<?xml version="1.0" encoding="UTF-8" standalone="no" ?>
<gpx xmlns="http://www.topografix.com/GPX/1/1" xmlns:xsi="http://www.w3.org/2001/XMLSchema-instance" xsi:schemaLocation="http://www.topografix.com/GPX/1/1 http://www.topografix.com/GPX/1/1/gpx.xsd" version="1.1" creator="VisuGPX - https://www.visugpx.com">
  <metadata>
    <name>glaris-engelberg(f)</name>
  </metadata>
  <trk>
    <name><![CDATA[glaris-engelberg(f)_1]]></name>
    <extensions>
      <line xmlns="http://www.topografix.com/GPX/gpx_style/0/2">
        <color>0000FF</color>
        <width>4</width>
      </line>
    </extensions>
    <trkseg>
      <trkpt lat="47.03918" lon="9.06161">
        <ele>494</ele>
        <time>2021-08-02T07:44:44.315Z</time>
      </trkpt>
      <trkpt lat="47.03918" lon="9.06161">
        <ele>494</ele>
        <time>2021-08-02T07:44:44.315Z</time>
      </trkpt>
      <trkpt lat="47.03918" lon="9.06161">
        <ele>494</ele>
        <time>2021-08-02T07:44:44.315Z</time>
      </trkpt>
      <trkpt lat="47.03918" lon="9.0616">
        <ele>494</ele>
        <time>2021-08-02T07:44:45.315Z</time>
      </trkpt>
      <trkpt lat="47.03918" lon="9.06159">
        <ele>494</ele>
        <time>2021-08-02T07:44:46.315Z</time>
      </trkpt>
      <trkpt lat="47.03918" lon="9.06158">
        <ele>494</ele>
        <time>2021-08-02T07:44:47.315Z</time>
      </trkpt>
      <trkpt lat="47.03919" lon="9.06157">
        <ele>494</ele>
        <time>2021-08-02T07:44:48.316Z</time>
      </trkpt>
      <trkpt lat="47.03919" lon="9.06156">
        <ele>493</ele>
        <time>2021-08-02T07:44:49.315Z</time>
      </trkpt>
      <trkpt lat="47.03919" lon="9.06155">
        <ele>493</ele>
        <time>2021-08-02T07:44:50.315Z</time>
      </trkpt>
      <trkpt lat="47.03919" lon="9.06155">
        <ele>493</ele>
        <time>2021-08-02T07:44:51.316Z</time>
      </trkpt>
      <trkpt lat="47.0392" lon="9.06154">
        <ele>492</ele>
        <time>2021-08-02T07:44:52.316Z</time>
      </trkpt>
      <trkpt lat="47.0392" lon="9.06153">
        <ele>492</ele>
        <time>2021-08-02T07:44:53.316Z</time>
      </trkpt>
      <trkpt lat="47.0392" lon="9.06154">
        <ele>492</ele>
        <time>2021-08-02T07:44:54.316Z</time>
      </trkpt>
      <trkpt lat="47.0392" lon="9.06154">
        <ele>491</ele>
        <time>2021-08-02T07:44:55.315Z</time>
      </trkpt>
      <trkpt lat="47.0392" lon="9.06154">
        <ele>491</ele>
        <time>2021-08-02T07:44:56.316Z</time>
      </trkpt>
      <trkpt lat="47.0392" lon="9.06155">
        <ele>491</ele>
        <time>2021-08-02T07:44:57.315Z</time>
      </trkpt>
      <trkpt lat="47.0392" lon="9.06156">
        <ele>491</ele>
        <time>2021-08-02T07:44:58.315Z</time>
      </trkpt>
      <trkpt lat="47.0392" lon="9.06158">
        <ele>491</ele>
        <time>2021-08-02T07:44:59.316Z</time>
      </trkpt>
      <trkpt lat="47.0392" lon="9.06159">
        <ele>491</ele>
        <time>2021-08-02T07:45:00.315Z</time>
      </trkpt>
      <trkpt lat="47.0392" lon="9.0616">
        <ele>491</ele>
        <time>2021-08-02T07:45:01.316Z</time>
      </trkpt>
      <trkpt lat="47.0392" lon="9.06161">
        <ele>492</ele>
        <time>2021-08-02T07:45:02.316Z</time>
      </trkpt>
      <trkpt lat="47.0392" lon="9.06162">
        <ele>492</ele>
        <time>2021-08-02T07:45:03.315Z</time>
      </trkpt>
      <trkpt lat="47.0392" lon="9.06164">
        <ele>492</ele>
        <time>2021-08-02T07:45:04.315Z</time>
      </trkpt>
      <trkpt lat="47.0392" lon="9.06166">
        <ele>492</ele>
        <time>2021-08-02T07:45:05.316Z</time>
      </trkpt>
      <trkpt lat="47.03921" lon="9.06167">
        <ele>492</ele>
        <time>2021-08-02T07:45:06.316Z</time>
      </trkpt>
      <trkpt lat="47.03921" lon="9.06169">
        <ele>492</ele>
        <time>2021-08-02T07:45:07.315Z</time>
      </trkpt>
      <trkpt lat="47.0392" lon="9.06171">
        <ele>492</ele>
        <time>2021-08-02T07:45:08.315Z</time>
      </trkpt>
      <trkpt lat="47.0392" lon="9.06173">
        <ele>492</ele>
        <time>2021-08-02T07:45:09.315Z</time>
      </trkpt>
      <trkpt lat="47.0392" lon="9.06175">
        <ele>492</ele>
        <time>2021-08-02T07:45:10.315Z</time>
      </trkpt>
      <trkpt lat="47.0392" lon="9.06177">
        <ele>492</ele>
        <time>2021-08-02T07:45:11.315Z</time>
      </trkpt>
      <trkpt lat="47.03921" lon="9.06178">
        <ele>492</ele>
        <time>2021-08-02T07:45:12.315Z</time>
      </trkpt>
      <trkpt lat="47.03921" lon="9.0618">
        <ele>492</ele>
        <time>2021-08-02T07:45:13.315Z</time>
      </trkpt>
      <trkpt lat="47.03921" lon="9.06182">
        <ele>492</ele>
        <time>2021-08-02T07:45:14.315Z</time>
      </trkpt>
      <trkpt lat="47.03921" lon="9.06184">
        <ele>492</ele>
        <time>2021-08-02T07:45:15.315Z</time>
      </trkpt>
      <trkpt lat="47.03922" lon="9.06186">
        <ele>492</ele>
        <time>2021-08-02T07:45:16.315Z</time>
      </trkpt>
      <trkpt lat="47.03922" lon="9.06188">
        <ele>492</ele>
        <time>2021-08-02T07:45:17.315Z</time>
      </trkpt>
      <trkpt lat="47.03922" lon="9.0619">
        <ele>492</ele>
        <time>2021-08-02T07:45:18.315Z</time>
      </trkpt>
      <trkpt lat="47.03922" lon="9.06191">
        <ele>491</ele>
        <time>2021-08-02T07:45:19.316Z</time>
      </trkpt>
      <trkpt lat="47.03922" lon="9.06193">
        <ele>491</ele>
        <time>2021-08-02T07:45:20.316Z</time>
      </trkpt>
      <trkpt lat="47.03922" lon="9.06195">
        <ele>491</ele>
        <time>2021-08-02T07:45:21.315Z</time>
      </trkpt>
      <trkpt lat="47.03922" lon="9.06197">
        <ele>491</ele>
        <time>2021-08-02T07:45:22.315Z</time>
      </trkpt>
      <trkpt lat="47.03922" lon="9.062">
        <ele>491</ele>
        <time>2021-08-02T07:45:23.316Z</time>
      </trkpt>
      <trkpt lat="47.03922" lon="9.06202">
        <ele>491</ele>
        <time>2021-08-02T07:45:24.316Z</time>
      </trkpt>
      <trkpt lat="47.03922" lon="9.06203">
        <ele>491</ele>
        <time>2021-08-02T07:45:25.316Z</time>
      </trkpt>
      <trkpt lat="47.03922" lon="9.06205">
        <ele>491</ele>
        <time>2021-08-02T07:45:26.316Z</time>
      </trkpt>
      <trkpt lat="47.03923" lon="9.06207">
        <ele>491</ele>
        <time>2021-08-02T07:45:27.315Z</time>
      </trkpt>
      <trkpt lat="47.03923" lon="9.06209">
        <ele>491</ele>
        <time>2021-08-02T07:45:28.316Z</time>
      </trkpt>
      <trkpt lat="47.03924" lon="9.0621">
        <ele>492</ele>
        <time>2021-08-02T07:45:29.316Z</time>
      </trkpt>
      <trkpt lat="47.03924" lon="9.06212">
        <ele>492</ele>
        <time>2021-08-02T07:45:30.316Z</time>
      </trkpt>
      <trkpt lat="47.03924" lon="9.06214">
        <ele>493</ele>
        <time>2021-08-02T07:45:31.316Z</time>
      </trkpt>
      <trkpt lat="47.03924" lon="9.06216">
        <ele>494</ele>
        <time>2021-08-02T07:45:32.316Z</time>
      </trkpt>
      <trkpt lat="47.03924" lon="9.06218">
        <ele>494</ele>
        <time>2021-08-02T07:45:33.316Z</time>
      </trkpt>
      <trkpt lat="47.03925" lon="9.0622">
        <ele>495</ele>
        <time>2021-08-02T07:45:34.316Z</time>
      </trkpt>
      <trkpt lat="47.03925" lon="9.06222">
        <ele>496</ele>
        <time>2021-08-02T07:45:35.316Z</time>
      </trkpt>
      <trkpt lat="47.03925" lon="9.06224">
        <ele>496</ele>
        <time>2021-08-02T07:45:36.315Z</time>
      </trkpt>
      <trkpt lat="47.03925" lon="9.06225">
        <ele>498</ele>
        <time>2021-08-02T07:45:37.316Z</time>
      </trkpt>
      <trkpt lat="47.03925" lon="9.06228">
        <ele>499</ele>
        <time>2021-08-02T07:45:38.315Z</time>
      </trkpt>
      <trkpt lat="47.03926" lon="9.0623">
        <ele>500</ele>
        <time>2021-08-02T07:45:39.316Z</time>
      </trkpt>
      <trkpt lat="47.03926" lon="9.06232">
        <ele>501</ele>
        <time>2021-08-02T07:45:40.316Z</time>
      </trkpt>
      <trkpt lat="47.03926" lon="9.06233">
        <ele>502</ele>
        <time>2021-08-02T07:45:41.316Z</time>
      </trkpt>
      <trkpt lat="47.03926" lon="9.06233">
        <ele>502</ele>
        <time>2021-08-02T07:45:42.316Z</time>
      </trkpt>
      <trkpt lat="47.03926" lon="9.06231">
        <ele>503</ele>
        <time>2021-08-02T07:45:43.315Z</time>
      </trkpt>
      <trkpt lat="47.03925" lon="9.0623">
        <ele>503</ele>
        <time>2021-08-02T07:45:44.315Z</time>
      </trkpt>
      <trkpt lat="47.03925" lon="9.06228">
        <ele>502</ele>
        <time>2021-08-02T07:45:45.316Z</time>
      </trkpt>
      <trkpt lat="47.03925" lon="9.06226">
        <ele>502</ele>
        <time>2021-08-02T07:45:46.316Z</time>
      </trkpt>
      <trkpt lat="47.03925" lon="9.06224">
        <ele>502</ele>
        <time>2021-08-02T07:45:47.316Z</time>
      </trkpt>
      <trkpt lat="47.03925" lon="9.06222">
        <ele>501</ele>
        <time>2021-08-02T07:45:48.315Z</time>
      </trkpt>
      <trkpt lat="47.03925" lon="9.0622">
        <ele>501</ele>
        <time>2021-08-02T07:45:49.316Z</time>
      </trkpt>
      <trkpt lat="47.03925" lon="9.06218">
        <ele>500</ele>
        <time>2021-08-02T07:45:50.316Z</time>
      </trkpt>
      <trkpt lat="47.03925" lon="9.06217">
        <ele>500</ele>
        <time>2021-08-02T07:45:51.315Z</time>
      </trkpt>
      <trkpt lat="47.03925" lon="9.06215">
        <ele>499</ele>
        <time>2021-08-02T07:45:52.316Z</time>
      </trkpt>
      <trkpt lat="47.03925" lon="9.06214">
        <ele>499</ele>
        <time>2021-08-02T07:45:53.316Z</time>
      </trkpt>
      <trkpt lat="47.03925" lon="9.06213">
        <ele>499</ele>
        <time>2021-08-02T07:45:54.316Z</time>
      </trkpt>
      <trkpt lat="47.03925" lon="9.06211">
        <ele>499</ele>
        <time>2021-08-02T07:45:55.315Z</time>
      </trkpt>
      <trkpt lat="47.03925" lon="9.06209">
        <ele>498</ele>
        <time>2021-08-02T07:45:56.315Z</time>
      </trkpt>
      <trkpt lat="47.03925" lon="9.06206">
        <ele>498</ele>
        <time>2021-08-02T07:45:57.316Z</time>
      </trkpt>
      <trkpt lat="47.03925" lon="9.06205">
        <ele>498</ele>
        <time>2021-08-02T07:45:58.316Z</time>
      </trkpt>
      <trkpt lat="47.03926" lon="9.06204">
        <ele>497</ele>
        <time>2021-08-02T07:45:59.316Z</time>
      </trkpt>
      <trkpt lat="47.03927" lon="9.06203">
        <ele>497</ele>
        <time>2021-08-02T07:46:00.316Z</time>
      </trkpt>
      <trkpt lat="47.03927" lon="9.06201">
        <ele>497</ele>
        <time>2021-08-02T07:46:01.316Z</time>
      </trkpt>
      <trkpt lat="47.03927" lon="9.06199">
        <ele>497</ele>
        <time>2021-08-02T07:46:02.315Z</time>
      </trkpt>
      <trkpt lat="47.03926" lon="9.06196">
        <ele>497</ele>
        <time>2021-08-02T07:46:03.315Z</time>
      </trkpt>
      <trkpt lat="47.03925" lon="9.06194">
        <ele>497</ele>
        <time>2021-08-02T07:46:04.316Z</time>
      </trkpt>
      <trkpt lat="47.03925" lon="9.06192">
        <ele>497</ele>
        <time>2021-08-02T07:46:05.316Z</time>
      </trkpt>
      <trkpt lat="47.03926" lon="9.0619">
        <ele>497</ele>
        <time>2021-08-02T07:46:06.316Z</time>
      </trkpt>
      <trkpt lat="47.03926" lon="9.06188">
        <ele>497</ele>
        <time>2021-08-02T07:46:07.316Z</time>
      </trkpt>
      <trkpt lat="47.03926" lon="9.06187">
        <ele>498</ele>
        <time>2021-08-02T07:46:08.316Z</time>
      </trkpt>
      <trkpt lat="47.03925" lon="9.06185">
        <ele>498</ele>
        <time>2021-08-02T07:46:09.316Z</time>
      </trkpt>
      <trkpt lat="47.03925" lon="9.06183">
        <ele>498</ele>
        <time>2021-08-02T07:46:10.316Z</time>
      </trkpt>
      <trkpt lat="47.03925" lon="9.0618">
        <ele>499</ele>
        <time>2021-08-02T07:46:11.316Z</time>
      </trkpt>
      <trkpt lat="47.03925" lon="9.06179">
        <ele>499</ele>
        <time>2021-08-02T07:46:12.315Z</time>
      </trkpt>
      <trkpt lat="47.03925" lon="9.06178">
        <ele>499</ele>
        <time>2021-08-02T07:46:13.316Z</time>
      </trkpt>
      <trkpt lat="47.03926" lon="9.06177">
        <ele>499</ele>
        <time>2021-08-02T07:46:14.316Z</time>
      </trkpt>
      <trkpt lat="47.03926" lon="9.06175">
        <ele>499</ele>
        <time>2021-08-02T07:46:15.316Z</time>
      </trkpt>
      <trkpt lat="47.03926" lon="9.06174">
        <ele>499</ele>
        <time>2021-08-02T07:46:16.315Z</time>
      </trkpt>
      <trkpt lat="47.03926" lon="9.06172">
        <ele>499</ele>
        <time>2021-08-02T07:46:17.316Z</time>
      </trkpt>
      <trkpt lat="47.03926" lon="9.0617">
        <ele>499</ele>
        <time>2021-08-02T07:46:18.316Z</time>
      </trkpt>
      <trkpt lat="47.03926" lon="9.06168">
        <ele>499</ele>
        <time>2021-08-02T07:46:19.316Z</time>
      </trkpt>
      <trkpt lat="47.03926" lon="9.06166">
        <ele>500</ele>
        <time>2021-08-02T07:46:20.316Z</time>
      </trkpt>
      <trkpt lat="47.03925" lon="9.06165">
        <ele>500</ele>
        <time>2021-08-02T07:46:21.316Z</time>
      </trkpt>
      <trkpt lat="47.03925" lon="9.06163">
        <ele>500</ele>
        <time>2021-08-02T07:46:22.316Z</time>
      </trkpt>
      <trkpt lat="47.03925" lon="9.06161">
        <ele>499</ele>
        <time>2021-08-02T07:46:23.316Z</time>
      </trkpt>
      <trkpt lat="47.03925" lon="9.06159">
        <ele>499</ele>
        <time>2021-08-02T07:46:24.316Z</time>
      </trkpt>
      <trkpt lat="47.03925" lon="9.06157">
        <ele>499</ele>
        <time>2021-08-02T07:46:25.316Z</time>
      </trkpt>
      <trkpt lat="47.03925" lon="9.06155">
        <ele>499</ele>
        <time>2021-08-02T07:46:26.315Z</time>
      </trkpt>
      <trkpt lat="47.03925" lon="9.06153">
        <ele>499</ele>
        <time>2021-08-02T07:46:27.316Z</time>
      </trkpt>
      <trkpt lat="47.03925" lon="9.06151">
        <ele>499</ele>
        <time>2021-08-02T07:46:28.316Z</time>
      </trkpt>
      <trkpt lat="47.03925" lon="9.06149">
        <ele>500</ele>
        <time>2021-08-02T07:46:29.316Z</time>
      </trkpt>
      <trkpt lat="47.03926" lon="9.06147">
        <ele>499</ele>
        <time>2021-08-02T07:46:30.316Z</time>
      </trkpt>
      <trkpt lat="47.03926" lon="9.06146">
        <ele>499</ele>
        <time>2021-08-02T07:46:31.316Z</time>
      </trkpt>
      <trkpt lat="47.03927" lon="9.06144">
        <ele>499</ele>
        <time>2021-08-02T07:46:32.315Z</time>
      </trkpt>
      <trkpt lat="47.03928" lon="9.06142">
        <ele>499</ele>
        <time>2021-08-02T07:46:33.315Z</time>
      </trkpt>
      <trkpt lat="47.03928" lon="9.0614">
        <ele>498</ele>
        <time>2021-08-02T07:46:34.315Z</time>
      </trkpt>
      <trkpt lat="47.03928" lon="9.06138">
        <ele>498</ele>
        <time>2021-08-02T07:46:35.315Z</time>
      </trkpt>
      <trkpt lat="47.03927" lon="9.06135">
        <ele>498</ele>
        <time>2021-08-02T07:46:36.316Z</time>
      </trkpt>
      <trkpt lat="47.03926" lon="9.06132">
        <ele>498</ele>
        <time>2021-08-02T07:46:37.316Z</time>
      </trkpt>
      <trkpt lat="47.03926" lon="9.0613">
        <ele>498</ele>
        <time>2021-08-02T07:46:38.316Z</time>
      </trkpt>
      <trkpt lat="47.03926" lon="9.06129">
        <ele>498</ele>
        <time>2021-08-02T07:46:39.316Z</time>
      </trkpt>
      <trkpt lat="47.03926" lon="9.06127">
        <ele>499</ele>
        <time>2021-08-02T07:46:40.316Z</time>
      </trkpt>
      <trkpt lat="47.03925" lon="9.06126">
        <ele>499</ele>
        <time>2021-08-02T07:46:41.315Z</time>
      </trkpt>
      <trkpt lat="47.03925" lon="9.06124">
        <ele>498</ele>
        <time>2021-08-02T07:46:42.315Z</time>
      </trkpt>
      <trkpt lat="47.03925" lon="9.06122">
        <ele>498</ele>
        <time>2021-08-02T07:46:43.315Z</time>
      </trkpt>
      <trkpt lat="47.03926" lon="9.06121">
        <ele>498</ele>
        <time>2021-08-02T07:46:44.315Z</time>
      </trkpt>
      <trkpt lat="47.03926" lon="9.06119">
        <ele>498</ele>
        <time>2021-08-02T07:46:45.315Z</time>
      </trkpt>
      <trkpt lat="47.03927" lon="9.06117">
        <ele>498</ele>
        <time>2021-08-02T07:46:46.316Z</time>
      </trkpt>
      <trkpt lat="47.03927" lon="9.06116">
        <ele>498</ele>
        <time>2021-08-02T07:46:47.316Z</time>
      </trkpt>
      <trkpt lat="47.03927" lon="9.06114">
        <ele>498</ele>
        <time>2021-08-02T07:46:48.316Z</time>
      </trkpt>
      <trkpt lat="47.03927" lon="9.06112">
        <ele>499</ele>
        <time>2021-08-02T07:46:49.315Z</time>
      </trkpt>
      <trkpt lat="47.03926" lon="9.0611">
        <ele>499</ele>
        <time>2021-08-02T07:46:50.316Z</time>
      </trkpt>
      <trkpt lat="47.03926" lon="9.06108">
        <ele>500</ele>
        <time>2021-08-02T07:46:51.316Z</time>
      </trkpt>
      <trkpt lat="47.03926" lon="9.06106">
        <ele>500</ele>
        <time>2021-08-02T07:46:52.316Z</time>
      </trkpt>
      <trkpt lat="47.03926" lon="9.06104">
        <ele>501</ele>
        <time>2021-08-02T07:46:53.315Z</time>
      </trkpt>
      <trkpt lat="47.03926" lon="9.06103">
        <ele>501</ele>
        <time>2021-08-02T07:46:54.316Z</time>
      </trkpt>
      <trkpt lat="47.03926" lon="9.06101">
        <ele>502</ele>
        <time>2021-08-02T07:46:55.316Z</time>
      </trkpt>
      <trkpt lat="47.03925" lon="9.06099">
        <ele>502</ele>
        <time>2021-08-02T07:46:56.316Z</time>
      </trkpt>
      <trkpt lat="47.03925" lon="9.06098">
        <ele>503</ele>
        <time>2021-08-02T07:46:57.315Z</time>
      </trkpt>
      <trkpt lat="47.03925" lon="9.06096">
        <ele>503</ele>
        <time>2021-08-02T07:46:58.315Z</time>
      </trkpt>
      <trkpt lat="47.03925" lon="9.06095">
        <ele>503</ele>
        <time>2021-08-02T07:46:59.316Z</time>
      </trkpt>
      <trkpt lat="47.03924" lon="9.06093">
        <ele>504</ele>
        <time>2021-08-02T07:47:00.316Z</time>
      </trkpt>
      <trkpt lat="47.03924" lon="9.06092">
        <ele>504</ele>
        <time>2021-08-02T07:47:01.315Z</time>
      </trkpt>
      <trkpt lat="47.03924" lon="9.06091">
        <ele>504</ele>
        <time>2021-08-02T07:47:02.315Z</time>
      </trkpt>
      <trkpt lat="47.03924" lon="9.0609">
        <ele>505</ele>
        <time>2021-08-02T07:47:03.315Z</time>
      </trkpt>
      <trkpt lat="47.03923" lon="9.06089">
        <ele>505</ele>
        <time>2021-08-02T07:47:04.315Z</time>
      </trkpt>
      <trkpt lat="47.03923" lon="9.06088">
        <ele>505</ele>
        <time>2021-08-02T07:47:05.316Z</time>
      </trkpt>
      <trkpt lat="47.03924" lon="9.06086">
        <ele>505</ele>
        <time>2021-08-02T07:47:06.316Z</time>
      </trkpt>
      <trkpt lat="47.03924" lon="9.06085">
        <ele>505</ele>
        <time>2021-08-02T07:47:07.316Z</time>
      </trkpt>
      <trkpt lat="47.03925" lon="9.06086">
        <ele>505</ele>
        <time>2021-08-02T07:47:08.315Z</time>
      </trkpt>
      <trkpt lat="47.03926" lon="9.06086">
        <ele>505</ele>
        <time>2021-08-02T07:47:09.316Z</time>
      </trkpt>
      <trkpt lat="47.03926" lon="9.06085">
        <ele>504</ele>
        <time>2021-08-02T07:47:10.315Z</time>
      </trkpt>
      <trkpt lat="47.03927" lon="9.06084">
        <ele>504</ele>
        <time>2021-08-02T07:47:11.316Z</time>
      </trkpt>
      <trkpt lat="47.03928" lon="9.06083">
        <ele>503</ele>
        <time>2021-08-02T07:47:12.316Z</time>
      </trkpt>
      <trkpt lat="47.03928" lon="9.06082">
        <ele>502</ele>
        <time>2021-08-02T07:47:13.315Z</time>
      </trkpt>
      <trkpt lat="47.03927" lon="9.06081">
        <ele>502</ele>
        <time>2021-08-02T07:47:14.316Z</time>
      </trkpt>
      <trkpt lat="47.03926" lon="9.0608">
        <ele>501</ele>
        <time>2021-08-02T07:47:15.316Z</time>
      </trkpt>
      <trkpt lat="47.03925" lon="9.06078">
        <ele>501</ele>
        <time>2021-08-02T07:47:16.315Z</time>
      </trkpt>
      <trkpt lat="47.03925" lon="9.06077">
        <ele>501</ele>
        <time>2021-08-02T07:47:17.316Z</time>
      </trkpt>
      <trkpt lat="47.03924" lon="9.06076">
        <ele>501</ele>
        <time>2021-08-02T07:47:18.316Z</time>
      </trkpt>
      <trkpt lat="47.03924" lon="9.06074">
        <ele>501</ele>
        <time>2021-08-02T07:47:19.316Z</time>
      </trkpt>
      <trkpt lat="47.03924" lon="9.06073">
        <ele>500</ele>
        <time>2021-08-02T07:47:20.316Z</time>
      </trkpt>
      <trkpt lat="47.03923" lon="9.06071">
        <ele>500</ele>
        <time>2021-08-02T07:47:21.315Z</time>
      </trkpt>
      <trkpt lat="47.03923" lon="9.0607">
        <ele>500</ele>
        <time>2021-08-02T07:47:22.315Z</time>
      </trkpt>
      <trkpt lat="47.03923" lon="9.06068">
        <ele>499</ele>
        <time>2021-08-02T07:47:23.316Z</time>
      </trkpt>
      <trkpt lat="47.03923" lon="9.06066">
        <ele>499</ele>
        <time>2021-08-02T07:47:24.315Z</time>
      </trkpt>
      <trkpt lat="47.03923" lon="9.06064">
        <ele>500</ele>
        <time>2021-08-02T07:47:25.315Z</time>
      </trkpt>
      <trkpt lat="47.03922" lon="9.06062">
        <ele>500</ele>
        <time>2021-08-02T07:47:26.316Z</time>
      </trkpt>
      <trkpt lat="47.03923" lon="9.06061">
        <ele>500</ele>
        <time>2021-08-02T07:47:27.316Z</time>
      </trkpt>
      <trkpt lat="47.03923" lon="9.06059">
        <ele>501</ele>
        <time>2021-08-02T07:47:28.316Z</time>
      </trkpt>
      <trkpt lat="47.03922" lon="9.06058">
        <ele>501</ele>
        <time>2021-08-02T07:47:29.316Z</time>
      </trkpt>
      <trkpt lat="47.03922" lon="9.06057">
        <ele>502</ele>
        <time>2021-08-02T07:47:30.316Z</time>
      </trkpt>
      <trkpt lat="47.03922" lon="9.06055">
        <ele>502</ele>
        <time>2021-08-02T07:47:31.316Z</time>
      </trkpt>
      <trkpt lat="47.03922" lon="9.06054">
        <ele>503</ele>
        <time>2021-08-02T07:47:32.316Z</time>
      </trkpt>
      <trkpt lat="47.03922" lon="9.06052">
        <ele>503</ele>
        <time>2021-08-02T07:47:33.316Z</time>
      </trkpt>
      <trkpt lat="47.03921" lon="9.0605">
        <ele>503</ele>
        <time>2021-08-02T07:47:34.316Z</time>
      </trkpt>
      <trkpt lat="47.03921" lon="9.06048">
        <ele>504</ele>
        <time>2021-08-02T07:47:35.316Z</time>
      </trkpt>
      <trkpt lat="47.03921" lon="9.06046">
        <ele>504</ele>
        <time>2021-08-02T07:47:36.316Z</time>
      </trkpt>
      <trkpt lat="47.03921" lon="9.06045">
        <ele>504</ele>
        <time>2021-08-02T07:47:37.315Z</time>
      </trkpt>
      <trkpt lat="47.03921" lon="9.06043">
        <ele>504</ele>
        <time>2021-08-02T07:47:38.316Z</time>
      </trkpt>
      <trkpt lat="47.0392" lon="9.06041">
        <ele>503</ele>
        <time>2021-08-02T07:47:39.315Z</time>
      </trkpt>
      <trkpt lat="47.0392" lon="9.06039">
        <ele>503</ele>
        <time>2021-08-02T07:47:40.316Z</time>
      </trkpt>
      <trkpt lat="47.03919" lon="9.06038">
        <ele>504</ele>
        <time>2021-08-02T07:47:41.316Z</time>
      </trkpt>
      <trkpt lat="47.03919" lon="9.06037">
        <ele>504</ele>
        <time>2021-08-02T07:47:42.316Z</time>
      </trkpt>
      <trkpt lat="47.03918" lon="9.06035">
        <ele>504</ele>
        <time>2021-08-02T07:47:43.315Z</time>
      </trkpt>
      <trkpt lat="47.03917" lon="9.06033">
        <ele>505</ele>
        <time>2021-08-02T07:47:44.316Z</time>
      </trkpt>
      <trkpt lat="47.03916" lon="9.06031">
        <ele>505</ele>
        <time>2021-08-02T07:47:45.316Z</time>
      </trkpt>
      <trkpt lat="47.03916" lon="9.06029">
        <ele>506</ele>
        <time>2021-08-02T07:47:46.316Z</time>
      </trkpt>
      <trkpt lat="47.03916" lon="9.06028">
        <ele>506</ele>
        <time>2021-08-02T07:47:47.316Z</time>
      </trkpt>
      <trkpt lat="47.03916" lon="9.06027">
        <ele>507</ele>
        <time>2021-08-02T07:47:48.315Z</time>
      </trkpt>
      <trkpt lat="47.03916" lon="9.06025">
        <ele>508</ele>
        <time>2021-08-02T07:47:49.316Z</time>
      </trkpt>
      <trkpt lat="47.03916" lon="9.06023">
        <ele>508</ele>
        <time>2021-08-02T07:47:50.316Z</time>
      </trkpt>
      <trkpt lat="47.03916" lon="9.06022">
        <ele>509</ele>
        <time>2021-08-02T07:47:51.316Z</time>
      </trkpt>
      <trkpt lat="47.03917" lon="9.0602">
        <ele>509</ele>
        <time>2021-08-02T07:47:52.316Z</time>
      </trkpt>
      <trkpt lat="47.03918" lon="9.06018">
        <ele>510</ele>
        <time>2021-08-02T07:47:53.316Z</time>
      </trkpt>
      <trkpt lat="47.03918" lon="9.06017">
        <ele>511</ele>
        <time>2021-08-02T07:47:54.315Z</time>
      </trkpt>
      <trkpt lat="47.03919" lon="9.06016">
        <ele>511</ele>
        <time>2021-08-02T07:47:55.315Z</time>
      </trkpt>
      <trkpt lat="47.03918" lon="9.06014">
        <ele>512</ele>
        <time>2021-08-02T07:47:56.316Z</time>
      </trkpt>
      <trkpt lat="47.03918" lon="9.06013">
        <ele>512</ele>
        <time>2021-08-02T07:47:57.315Z</time>
      </trkpt>
      <trkpt lat="47.03917" lon="9.06011">
        <ele>513</ele>
        <time>2021-08-02T07:47:58.316Z</time>
      </trkpt>
      <trkpt lat="47.03917" lon="9.06009">
        <ele>513</ele>
        <time>2021-08-02T07:47:59.316Z</time>
      </trkpt>
      <trkpt lat="47.03917" lon="9.06007">
        <ele>514</ele>
        <time>2021-08-02T07:48:00.316Z</time>
      </trkpt>
      <trkpt lat="47.03917" lon="9.06005">
        <ele>514</ele>
        <time>2021-08-02T07:48:01.316Z</time>
      </trkpt>
      <trkpt lat="47.03916" lon="9.06003">
        <ele>514</ele>
        <time>2021-08-02T07:48:02.316Z</time>
      </trkpt>
      <trkpt lat="47.03915" lon="9.06002">
        <ele>513</ele>
        <time>2021-08-02T07:48:03.315Z</time>
      </trkpt>
      <trkpt lat="47.03915" lon="9.05999">
        <ele>513</ele>
        <time>2021-08-02T07:48:04.315Z</time>
      </trkpt>
      <trkpt lat="47.03915" lon="9.05998">
        <ele>512</ele>
        <time>2021-08-02T07:48:05.316Z</time>
      </trkpt>
      <trkpt lat="47.03914" lon="9.05997">
        <ele>512</ele>
        <time>2021-08-02T07:48:06.316Z</time>
      </trkpt>
      <trkpt lat="47.03914" lon="9.05995">
        <ele>511</ele>
        <time>2021-08-02T07:48:07.316Z</time>
      </trkpt>
      <trkpt lat="47.03914" lon="9.05993">
        <ele>511</ele>
        <time>2021-08-02T07:48:08.316Z</time>
      </trkpt>
      <trkpt lat="47.03914" lon="9.05992">
        <ele>510</ele>
        <time>2021-08-02T07:48:09.315Z</time>
      </trkpt>
      <trkpt lat="47.03914" lon="9.0599">
        <ele>510</ele>
        <time>2021-08-02T07:48:10.315Z</time>
      </trkpt>
      <trkpt lat="47.03914" lon="9.05989">
        <ele>509</ele>
        <time>2021-08-02T07:48:11.316Z</time>
      </trkpt>
      <trkpt lat="47.03914" lon="9.05987">
        <ele>508</ele>
        <time>2021-08-02T07:48:12.316Z</time>
      </trkpt>
      <trkpt lat="47.03914" lon="9.05986">
        <ele>508</ele>
        <time>2021-08-02T07:48:13.316Z</time>
      </trkpt>
      <trkpt lat="47.03914" lon="9.05984">
        <ele>507</ele>
        <time>2021-08-02T07:48:14.315Z</time>
      </trkpt>
      <trkpt lat="47.03914" lon="9.05982">
        <ele>506</ele>
        <time>2021-08-02T07:48:15.316Z</time>
      </trkpt>
      <trkpt lat="47.03914" lon="9.0598">
        <ele>506</ele>
        <time>2021-08-02T07:48:16.315Z</time>
      </trkpt>
      <trkpt lat="47.03914" lon="9.05978">
        <ele>506</ele>
        <time>2021-08-02T07:48:17.315Z</time>
      </trkpt>
      <trkpt lat="47.03914" lon="9.05977">
        <ele>506</ele>
        <time>2021-08-02T07:48:18.316Z</time>
      </trkpt>
      <trkpt lat="47.03914" lon="9.05976">
        <ele>505</ele>
        <time>2021-08-02T07:48:19.316Z</time>
      </trkpt>
      <trkpt lat="47.03914" lon="9.05974">
        <ele>505</ele>
        <time>2021-08-02T07:48:20.316Z</time>
      </trkpt>
      <trkpt lat="47.03914" lon="9.05972">
        <ele>505</ele>
        <time>2021-08-02T07:48:21.316Z</time>
      </trkpt>
      <trkpt lat="47.03914" lon="9.0597">
        <ele>505</ele>
        <time>2021-08-02T07:48:22.316Z</time>
      </trkpt>
      <trkpt lat="47.03914" lon="9.05969">
        <ele>505</ele>
        <time>2021-08-02T07:48:23.316Z</time>
      </trkpt>
      <trkpt lat="47.03914" lon="9.05967">
        <ele>505</ele>
        <time>2021-08-02T07:48:24.315Z</time>
      </trkpt>
      <trkpt lat="47.03914" lon="9.05965">
        <ele>505</ele>
        <time>2021-08-02T07:48:25.316Z</time>
      </trkpt>
      <trkpt lat="47.03915" lon="9.05964">
        <ele>505</ele>
        <time>2021-08-02T07:48:26.316Z</time>
      </trkpt>
      <trkpt lat="47.03915" lon="9.05963">
        <ele>504</ele>
        <time>2021-08-02T07:48:27.316Z</time>
      </trkpt>
      <trkpt lat="47.03915" lon="9.05962">
        <ele>504</ele>
        <time>2021-08-02T07:48:28.316Z</time>
      </trkpt>
      <trkpt lat="47.03915" lon="9.0596">
        <ele>503</ele>
        <time>2021-08-02T07:48:29.316Z</time>
      </trkpt>
      <trkpt lat="47.03914" lon="9.05959">
        <ele>503</ele>
        <time>2021-08-02T07:48:30.316Z</time>
      </trkpt>
      <trkpt lat="47.03914" lon="9.05956">
        <ele>502</ele>
        <time>2021-08-02T07:48:31.315Z</time>
      </trkpt>
      <trkpt lat="47.03914" lon="9.05954">
        <ele>502</ele>
        <time>2021-08-02T07:48:32.316Z</time>
      </trkpt>
      <trkpt lat="47.03913" lon="9.05952">
        <ele>502</ele>
        <time>2021-08-02T07:48:33.316Z</time>
      </trkpt>
      <trkpt lat="47.03913" lon="9.0595">
        <ele>502</ele>
        <time>2021-08-02T07:48:34.316Z</time>
      </trkpt>
      <trkpt lat="47.03913" lon="9.05949">
        <ele>502</ele>
        <time>2021-08-02T07:48:35.316Z</time>
      </trkpt>
      <trkpt lat="47.03913" lon="9.05948">
        <ele>502</ele>
        <time>2021-08-02T07:48:36.316Z</time>
      </trkpt>
      <trkpt lat="47.03913" lon="9.05947">
        <ele>502</ele>
        <time>2021-08-02T07:48:37.316Z</time>
      </trkpt>
      <trkpt lat="47.03913" lon="9.05945">
        <ele>502</ele>
        <time>2021-08-02T07:48:38.316Z</time>
      </trkpt>
      <trkpt lat="47.03914" lon="9.05944">
        <ele>502</ele>
        <time>2021-08-02T07:48:39.315Z</time>
      </trkpt>
      <trkpt lat="47.03914" lon="9.05943">
        <ele>502</ele>
        <time>2021-08-02T07:48:40.316Z</time>
      </trkpt>
      <trkpt lat="47.03914" lon="9.05941">
        <ele>502</ele>
        <time>2021-08-02T07:48:41.316Z</time>
      </trkpt>
      <trkpt lat="47.03914" lon="9.05939">
        <ele>501</ele>
        <time>2021-08-02T07:48:42.315Z</time>
      </trkpt>
      <trkpt lat="47.03914" lon="9.05937">
        <ele>501</ele>
        <time>2021-08-02T07:48:43.316Z</time>
      </trkpt>
      <trkpt lat="47.03915" lon="9.05935">
        <ele>501</ele>
        <time>2021-08-02T07:48:44.315Z</time>
      </trkpt>
      <trkpt lat="47.03914" lon="9.05933">
        <ele>501</ele>
        <time>2021-08-02T07:48:45.316Z</time>
      </trkpt>
      <trkpt lat="47.03914" lon="9.05932">
        <ele>501</ele>
        <time>2021-08-02T07:48:46.315Z</time>
      </trkpt>
      <trkpt lat="47.03914" lon="9.05931">
        <ele>501</ele>
        <time>2021-08-02T07:48:47.316Z</time>
      </trkpt>
      <trkpt lat="47.03914" lon="9.05929">
        <ele>501</ele>
        <time>2021-08-02T07:48:48.316Z</time>
      </trkpt>
      <trkpt lat="47.03914" lon="9.05927">
        <ele>501</ele>
        <time>2021-08-02T07:48:49.316Z</time>
      </trkpt>
      <trkpt lat="47.03914" lon="9.05926">
        <ele>501</ele>
        <time>2021-08-02T07:48:50.315Z</time>
      </trkpt>
      <trkpt lat="47.03914" lon="9.05924">
        <ele>501</ele>
        <time>2021-08-02T07:48:51.316Z</time>
      </trkpt>
      <trkpt lat="47.03914" lon="9.05923">
        <ele>502</ele>
        <time>2021-08-02T07:48:52.316Z</time>
      </trkpt>
      <trkpt lat="47.03914" lon="9.05921">
        <ele>502</ele>
        <time>2021-08-02T07:48:53.316Z</time>
      </trkpt>
      <trkpt lat="47.03914" lon="9.05919">
        <ele>503</ele>
        <time>2021-08-02T07:48:54.315Z</time>
      </trkpt>
      <trkpt lat="47.03914" lon="9.05918">
        <ele>503</ele>
        <time>2021-08-02T07:48:55.316Z</time>
      </trkpt>
      <trkpt lat="47.03914" lon="9.05916">
        <ele>504</ele>
        <time>2021-08-02T07:48:56.316Z</time>
      </trkpt>
      <trkpt lat="47.03914" lon="9.05915">
        <ele>504</ele>
        <time>2021-08-02T07:48:57.315Z</time>
      </trkpt>
      <trkpt lat="47.03914" lon="9.05913">
        <ele>504</ele>
        <time>2021-08-02T07:48:58.316Z</time>
      </trkpt>
      <trkpt lat="47.03914" lon="9.05912">
        <ele>504</ele>
        <time>2021-08-02T07:48:59.315Z</time>
      </trkpt>
      <trkpt lat="47.03914" lon="9.0591">
        <ele>504</ele>
        <time>2021-08-02T07:49:00.315Z</time>
      </trkpt>
      <trkpt lat="47.03915" lon="9.05909">
        <ele>504</ele>
        <time>2021-08-02T07:49:01.316Z</time>
      </trkpt>
      <trkpt lat="47.03916" lon="9.05908">
        <ele>504</ele>
        <time>2021-08-02T07:49:02.316Z</time>
      </trkpt>
      <trkpt lat="47.03916" lon="9.05907">
        <ele>503</ele>
        <time>2021-08-02T07:49:03.315Z</time>
      </trkpt>
      <trkpt lat="47.03916" lon="9.05906">
        <ele>503</ele>
        <time>2021-08-02T07:49:04.316Z</time>
      </trkpt>
      <trkpt lat="47.03917" lon="9.05904">
        <ele>503</ele>
        <time>2021-08-02T07:49:05.316Z</time>
      </trkpt>
      <trkpt lat="47.03917" lon="9.05903">
        <ele>503</ele>
        <time>2021-08-02T07:49:06.315Z</time>
      </trkpt>
      <trkpt lat="47.03917" lon="9.05901">
        <ele>502</ele>
        <time>2021-08-02T07:49:07.316Z</time>
      </trkpt>
      <trkpt lat="47.03918" lon="9.059">
        <ele>502</ele>
        <time>2021-08-02T07:49:08.315Z</time>
      </trkpt>
      <trkpt lat="47.03918" lon="9.05899">
        <ele>502</ele>
        <time>2021-08-02T07:49:09.316Z</time>
      </trkpt>
      <trkpt lat="47.03918" lon="9.05898">
        <ele>502</ele>
        <time>2021-08-02T07:49:10.315Z</time>
      </trkpt>
      <trkpt lat="47.03919" lon="9.05898">
        <ele>503</ele>
        <time>2021-08-02T07:49:11.316Z</time>
      </trkpt>
      <trkpt lat="47.0392" lon="9.05898">
        <ele>503</ele>
        <time>2021-08-02T07:49:12.315Z</time>
      </trkpt>
      <trkpt lat="47.03921" lon="9.05897">
        <ele>503</ele>
        <time>2021-08-02T07:49:13.316Z</time>
      </trkpt>
      <trkpt lat="47.03921" lon="9.05896">
        <ele>503</ele>
        <time>2021-08-02T07:49:14.315Z</time>
      </trkpt>
      <trkpt lat="47.03922" lon="9.05894">
        <ele>503</ele>
        <time>2021-08-02T07:49:15.316Z</time>
      </trkpt>
      <trkpt lat="47.03923" lon="9.05892">
        <ele>504</ele>
        <time>2021-08-02T07:49:16.316Z</time>
      </trkpt>
      <trkpt lat="47.03923" lon="9.05891">
        <ele>504</ele>
        <time>2021-08-02T07:49:17.316Z</time>
      </trkpt>
      <trkpt lat="47.03924" lon="9.0589">
        <ele>504</ele>
        <time>2021-08-02T07:49:18.316Z</time>
      </trkpt>
      <trkpt lat="47.03925" lon="9.05888">
        <ele>504</ele>
        <time>2021-08-02T07:49:19.315Z</time>
      </trkpt>
      <trkpt lat="47.03925" lon="9.05887">
        <ele>504</ele>
        <time>2021-08-02T07:49:20.316Z</time>
      </trkpt>
      <trkpt lat="47.03925" lon="9.05886">
        <ele>504</ele>
        <time>2021-08-02T07:49:21.315Z</time>
      </trkpt>
      <trkpt lat="47.03926" lon="9.05884">
        <ele>504</ele>
        <time>2021-08-02T07:49:22.315Z</time>
      </trkpt>
      <trkpt lat="47.03926" lon="9.05882">
        <ele>504</ele>
        <time>2021-08-02T07:49:23.315Z</time>
      </trkpt>
      <trkpt lat="47.03926" lon="9.05881">
        <ele>505</ele>
        <time>2021-08-02T07:49:24.315Z</time>
      </trkpt>
      <trkpt lat="47.03927" lon="9.05879">
        <ele>505</ele>
        <time>2021-08-02T07:49:25.315Z</time>
      </trkpt>
      <trkpt lat="47.03927" lon="9.05878">
        <ele>506</ele>
        <time>2021-08-02T07:49:26.315Z</time>
      </trkpt>
      <trkpt lat="47.03926" lon="9.05876">
        <ele>506</ele>
        <time>2021-08-02T07:49:27.315Z</time>
      </trkpt>
      <trkpt lat="47.03926" lon="9.05874">
        <ele>507</ele>
        <time>2021-08-02T07:49:28.315Z</time>
      </trkpt>
      <trkpt lat="47.03925" lon="9.05872">
        <ele>507</ele>
        <time>2021-08-02T07:49:29.315Z</time>
      </trkpt>
      <trkpt lat="47.03925" lon="9.0587">
        <ele>508</ele>
        <time>2021-08-02T07:49:30.315Z</time>
      </trkpt>
      <trkpt lat="47.03925" lon="9.05868">
        <ele>508</ele>
        <time>2021-08-02T07:49:31.316Z</time>
      </trkpt>
      <trkpt lat="47.03926" lon="9.05867">
        <ele>508</ele>
        <time>2021-08-02T07:49:32.315Z</time>
      </trkpt>
      <trkpt lat="47.03926" lon="9.05866">
        <ele>509</ele>
        <time>2021-08-02T07:49:33.315Z</time>
      </trkpt>
      <trkpt lat="47.03926" lon="9.05865">
        <ele>509</ele>
        <time>2021-08-02T07:49:34.315Z</time>
      </trkpt>
      <trkpt lat="47.03926" lon="9.05864">
        <ele>509</ele>
        <time>2021-08-02T07:49:35.315Z</time>
      </trkpt>
      <trkpt lat="47.03926" lon="9.05863">
        <ele>509</ele>
        <time>2021-08-02T07:49:36.315Z</time>
      </trkpt>
      <trkpt lat="47.03926" lon="9.05861">
        <ele>509</ele>
        <time>2021-08-02T07:49:37.315Z</time>
      </trkpt>
      <trkpt lat="47.03926" lon="9.0586">
        <ele>509</ele>
        <time>2021-08-02T07:49:38.315Z</time>
      </trkpt>
      <trkpt lat="47.03927" lon="9.05858">
        <ele>509</ele>
        <time>2021-08-02T07:49:39.315Z</time>
      </trkpt>
      <trkpt lat="47.03928" lon="9.05857">
        <ele>509</ele>
        <time>2021-08-02T07:49:40.315Z</time>
      </trkpt>
      <trkpt lat="47.03927" lon="9.05856">
        <ele>509</ele>
        <time>2021-08-02T07:49:41.315Z</time>
      </trkpt>
      <trkpt lat="47.03927" lon="9.05854">
        <ele>508</ele>
        <time>2021-08-02T07:49:42.315Z</time>
      </trkpt>
      <trkpt lat="47.03928" lon="9.05853">
        <ele>508</ele>
        <time>2021-08-02T07:49:43.315Z</time>
      </trkpt>
      <trkpt lat="47.03928" lon="9.05852">
        <ele>508</ele>
        <time>2021-08-02T07:49:44.315Z</time>
      </trkpt>
      <trkpt lat="47.03929" lon="9.05851">
        <ele>508</ele>
        <time>2021-08-02T07:49:45.315Z</time>
      </trkpt>
      <trkpt lat="47.0393" lon="9.0585">
        <ele>508</ele>
        <time>2021-08-02T07:49:46.315Z</time>
      </trkpt>
      <trkpt lat="47.0393" lon="9.05849">
        <ele>508</ele>
        <time>2021-08-02T07:49:47.315Z</time>
      </trkpt>
      <trkpt lat="47.03931" lon="9.05848">
        <ele>508</ele>
        <time>2021-08-02T07:49:48.315Z</time>
      </trkpt>
      <trkpt lat="47.03931" lon="9.05847">
        <ele>508</ele>
        <time>2021-08-02T07:49:49.315Z</time>
      </trkpt>
      <trkpt lat="47.03931" lon="9.05845">
        <ele>508</ele>
        <time>2021-08-02T07:49:50.316Z</time>
      </trkpt>
      <trkpt lat="47.03932" lon="9.05844">
        <ele>509</ele>
        <time>2021-08-02T07:49:51.316Z</time>
      </trkpt>
      <trkpt lat="47.03932" lon="9.05842">
        <ele>509</ele>
        <time>2021-08-02T07:49:52.316Z</time>
      </trkpt>
      <trkpt lat="47.03932" lon="9.0584">
        <ele>510</ele>
        <time>2021-08-02T07:49:53.316Z</time>
      </trkpt>
      <trkpt lat="47.03932" lon="9.05839">
        <ele>511</ele>
        <time>2021-08-02T07:49:54.316Z</time>
      </trkpt>
      <trkpt lat="47.03932" lon="9.05837">
        <ele>511</ele>
        <time>2021-08-02T07:49:55.316Z</time>
      </trkpt>
      <trkpt lat="47.03932" lon="9.05836">
        <ele>511</ele>
        <time>2021-08-02T07:49:56.316Z</time>
      </trkpt>
      <trkpt lat="47.03932" lon="9.05835">
        <ele>511</ele>
        <time>2021-08-02T07:49:57.316Z</time>
      </trkpt>
      <trkpt lat="47.03932" lon="9.05833">
        <ele>511</ele>
        <time>2021-08-02T07:49:58.316Z</time>
      </trkpt>
      <trkpt lat="47.03933" lon="9.05831">
        <ele>511</ele>
        <time>2021-08-02T07:49:59.316Z</time>
      </trkpt>
      <trkpt lat="47.03933" lon="9.0583">
        <ele>511</ele>
        <time>2021-08-02T07:50:00.316Z</time>
      </trkpt>
      <trkpt lat="47.03934" lon="9.05829">
        <ele>511</ele>
        <time>2021-08-02T07:50:01.315Z</time>
      </trkpt>
      <trkpt lat="47.03935" lon="9.05828">
        <ele>510</ele>
        <time>2021-08-02T07:50:02.316Z</time>
      </trkpt>
      <trkpt lat="47.03936" lon="9.05827">
        <ele>510</ele>
        <time>2021-08-02T07:50:03.316Z</time>
      </trkpt>
      <trkpt lat="47.03938" lon="9.05827">
        <ele>509</ele>
        <time>2021-08-02T07:50:04.316Z</time>
      </trkpt>
      <trkpt lat="47.03939" lon="9.05825">
        <ele>509</ele>
        <time>2021-08-02T07:50:05.316Z</time>
      </trkpt>
      <trkpt lat="47.0394" lon="9.05823">
        <ele>508</ele>
        <time>2021-08-02T07:50:06.315Z</time>
      </trkpt>
      <trkpt lat="47.03941" lon="9.05822">
        <ele>508</ele>
        <time>2021-08-02T07:50:07.316Z</time>
      </trkpt>
      <trkpt lat="47.03942" lon="9.05821">
        <ele>508</ele>
        <time>2021-08-02T07:50:08.316Z</time>
      </trkpt>
      <trkpt lat="47.03942" lon="9.0582">
        <ele>507</ele>
        <time>2021-08-02T07:50:09.316Z</time>
      </trkpt>
      <trkpt lat="47.03942" lon="9.05818">
        <ele>507</ele>
        <time>2021-08-02T07:50:10.315Z</time>
      </trkpt>
      <trkpt lat="47.03943" lon="9.05817">
        <ele>507</ele>
        <time>2021-08-02T07:50:11.316Z</time>
      </trkpt>
      <trkpt lat="47.03944" lon="9.05815">
        <ele>507</ele>
        <time>2021-08-02T07:50:12.315Z</time>
      </trkpt>
      <trkpt lat="47.03945" lon="9.05814">
        <ele>508</ele>
        <time>2021-08-02T07:50:13.316Z</time>
      </trkpt>
      <trkpt lat="47.03946" lon="9.05813">
        <ele>508</ele>
        <time>2021-08-02T07:50:14.316Z</time>
      </trkpt>
      <trkpt lat="47.03946" lon="9.05811">
        <ele>507</ele>
        <time>2021-08-02T07:50:15.316Z</time>
      </trkpt>
      <trkpt lat="47.03946" lon="9.0581">
        <ele>507</ele>
        <time>2021-08-02T07:50:16.315Z</time>
      </trkpt>
      <trkpt lat="47.03946" lon="9.05808">
        <ele>507</ele>
        <time>2021-08-02T07:50:17.315Z</time>
      </trkpt>
      <trkpt lat="47.03946" lon="9.05807">
        <ele>507</ele>
        <time>2021-08-02T07:50:18.316Z</time>
      </trkpt>
      <trkpt lat="47.03946" lon="9.05805">
        <ele>507</ele>
        <time>2021-08-02T07:50:19.316Z</time>
      </trkpt>
      <trkpt lat="47.03946" lon="9.05803">
        <ele>507</ele>
        <time>2021-08-02T07:50:20.315Z</time>
      </trkpt>
      <trkpt lat="47.03946" lon="9.05801">
        <ele>508</ele>
        <time>2021-08-02T07:50:21.316Z</time>
      </trkpt>
      <trkpt lat="47.03947" lon="9.058">
        <ele>508</ele>
        <time>2021-08-02T07:50:22.316Z</time>
      </trkpt>
      <trkpt lat="47.03948" lon="9.05799">
        <ele>508</ele>
        <time>2021-08-02T07:50:23.315Z</time>
      </trkpt>
      <trkpt lat="47.03948" lon="9.05798">
        <ele>508</ele>
        <time>2021-08-02T07:50:24.315Z</time>
      </trkpt>
      <trkpt lat="47.03948" lon="9.05797">
        <ele>508</ele>
        <time>2021-08-02T07:50:25.315Z</time>
      </trkpt>
      <trkpt lat="47.03948" lon="9.05796">
        <ele>508</ele>
        <time>2021-08-02T07:50:26.315Z</time>
      </trkpt>
      <trkpt lat="47.03947" lon="9.05794">
        <ele>508</ele>
        <time>2021-08-02T07:50:27.316Z</time>
      </trkpt>
      <trkpt lat="47.03947" lon="9.05792">
        <ele>508</ele>
        <time>2021-08-02T07:50:28.316Z</time>
      </trkpt>
      <trkpt lat="47.03947" lon="9.05791">
        <ele>508</ele>
        <time>2021-08-02T07:50:29.315Z</time>
      </trkpt>
      <trkpt lat="47.03947" lon="9.05789">
        <ele>509</ele>
        <time>2021-08-02T07:50:30.316Z</time>
      </trkpt>
      <trkpt lat="47.03947" lon="9.05788">
        <ele>509</ele>
        <time>2021-08-02T07:50:31.316Z</time>
      </trkpt>
      <trkpt lat="47.03947" lon="9.05786">
        <ele>509</ele>
        <time>2021-08-02T07:50:32.316Z</time>
      </trkpt>
      <trkpt lat="47.03947" lon="9.05785">
        <ele>509</ele>
        <time>2021-08-02T07:50:33.316Z</time>
      </trkpt>
      <trkpt lat="47.03947" lon="9.05784">
        <ele>509</ele>
        <time>2021-08-02T07:50:34.316Z</time>
      </trkpt>
      <trkpt lat="47.03947" lon="9.05783">
        <ele>509</ele>
        <time>2021-08-02T07:50:35.316Z</time>
      </trkpt>
      <trkpt lat="47.03948" lon="9.05781">
        <ele>509</ele>
        <time>2021-08-02T07:50:36.315Z</time>
      </trkpt>
      <trkpt lat="47.03948" lon="9.0578">
        <ele>509</ele>
        <time>2021-08-02T07:50:37.316Z</time>
      </trkpt>
      <trkpt lat="47.03948" lon="9.05779">
        <ele>509</ele>
        <time>2021-08-02T07:50:38.316Z</time>
      </trkpt>
      <trkpt lat="47.03949" lon="9.05778">
        <ele>509</ele>
        <time>2021-08-02T07:50:39.316Z</time>
      </trkpt>
      <trkpt lat="47.0395" lon="9.05777">
        <ele>509</ele>
        <time>2021-08-02T07:50:40.316Z</time>
      </trkpt>
      <trkpt lat="47.03951" lon="9.05775">
        <ele>509</ele>
        <time>2021-08-02T07:50:41.316Z</time>
      </trkpt>
      <trkpt lat="47.03952" lon="9.05774">
        <ele>509</ele>
        <time>2021-08-02T07:50:42.315Z</time>
      </trkpt>
      <trkpt lat="47.03952" lon="9.05773">
        <ele>509</ele>
        <time>2021-08-02T07:50:43.316Z</time>
      </trkpt>
      <trkpt lat="47.03952" lon="9.05773">
        <ele>509</ele>
        <time>2021-08-02T07:50:44.316Z</time>
      </trkpt>
      <trkpt lat="47.03952" lon="9.05771">
        <ele>509</ele>
        <time>2021-08-02T07:50:45.316Z</time>
      </trkpt>
      <trkpt lat="47.03952" lon="9.05769">
        <ele>509</ele>
        <time>2021-08-02T07:50:46.315Z</time>
      </trkpt>
      <trkpt lat="47.03953" lon="9.05768">
        <ele>509</ele>
        <time>2021-08-02T07:50:47.315Z</time>
      </trkpt>
      <trkpt lat="47.03953" lon="9.05768">
        <ele>509</ele>
        <time>2021-08-02T07:50:48.316Z</time>
      </trkpt>
      <trkpt lat="47.03954" lon="9.05767">
        <ele>509</ele>
        <time>2021-08-02T07:50:49.315Z</time>
      </trkpt>
      <trkpt lat="47.03954" lon="9.05765">
        <ele>509</ele>
        <time>2021-08-02T07:50:50.316Z</time>
      </trkpt>
      <trkpt lat="47.03954" lon="9.05764">
        <ele>509</ele>
        <time>2021-08-02T07:50:51.315Z</time>
      </trkpt>
      <trkpt lat="47.03955" lon="9.05763">
        <ele>509</ele>
        <time>2021-08-02T07:50:52.315Z</time>
      </trkpt>
      <trkpt lat="47.03956" lon="9.05761">
        <ele>509</ele>
        <time>2021-08-02T07:50:53.316Z</time>
      </trkpt>
      <trkpt lat="47.03956" lon="9.05759">
        <ele>509</ele>
        <time>2021-08-02T07:50:54.316Z</time>
      </trkpt>
      <trkpt lat="47.03957" lon="9.05758">
        <ele>509</ele>
        <time>2021-08-02T07:50:55.316Z</time>
      </trkpt>
      <trkpt lat="47.03958" lon="9.05756">
        <ele>508</ele>
        <time>2021-08-02T07:50:56.315Z</time>
      </trkpt>
      <trkpt lat="47.03958" lon="9.05755">
        <ele>508</ele>
        <time>2021-08-02T07:50:57.316Z</time>
      </trkpt>
      <trkpt lat="47.03958" lon="9.05754">
        <ele>508</ele>
        <time>2021-08-02T07:50:58.315Z</time>
      </trkpt>
      <trkpt lat="47.03958" lon="9.05753">
        <ele>508</ele>
        <time>2021-08-02T07:50:59.316Z</time>
      </trkpt>
      <trkpt lat="47.03958" lon="9.05752">
        <ele>508</ele>
        <time>2021-08-02T07:51:00.315Z</time>
      </trkpt>
      <trkpt lat="47.03958" lon="9.05751">
        <ele>508</ele>
        <time>2021-08-02T07:51:01.316Z</time>
      </trkpt>
      <trkpt lat="47.03959" lon="9.05749">
        <ele>508</ele>
        <time>2021-08-02T07:51:02.315Z</time>
      </trkpt>
      <trkpt lat="47.03959" lon="9.05748">
        <ele>508</ele>
        <time>2021-08-02T07:51:03.316Z</time>
      </trkpt>
      <trkpt lat="47.0396" lon="9.05747">
        <ele>508</ele>
        <time>2021-08-02T07:51:04.315Z</time>
      </trkpt>
      <trkpt lat="47.0396" lon="9.05746">
        <ele>509</ele>
        <time>2021-08-02T07:51:05.316Z</time>
      </trkpt>
      <trkpt lat="47.03961" lon="9.05746">
        <ele>509</ele>
        <time>2021-08-02T07:51:06.315Z</time>
      </trkpt>
      <trkpt lat="47.03961" lon="9.05745">
        <ele>510</ele>
        <time>2021-08-02T07:51:07.316Z</time>
      </trkpt>
      <trkpt lat="47.03962" lon="9.05745">
        <ele>511</ele>
        <time>2021-08-02T07:51:08.316Z</time>
      </trkpt>
      <trkpt lat="47.03962" lon="9.05745">
        <ele>511</ele>
        <time>2021-08-02T07:51:09.316Z</time>
      </trkpt>
      <trkpt lat="47.03963" lon="9.05746">
        <ele>512</ele>
        <time>2021-08-02T07:51:10.316Z</time>
      </trkpt>
      <trkpt lat="47.03964" lon="9.05745">
        <ele>512</ele>
        <time>2021-08-02T07:51:11.316Z</time>
      </trkpt>
      <trkpt lat="47.03965" lon="9.05745">
        <ele>512</ele>
        <time>2021-08-02T07:51:12.316Z</time>
      </trkpt>
      <trkpt lat="47.03966" lon="9.05744">
        <ele>512</ele>
        <time>2021-08-02T07:51:13.315Z</time>
      </trkpt>
      <trkpt lat="47.03967" lon="9.05744">
        <ele>512</ele>
        <time>2021-08-02T07:51:14.315Z</time>
      </trkpt>
      <trkpt lat="47.03967" lon="9.05744">
        <ele>512</ele>
        <time>2021-08-02T07:51:15.315Z</time>
      </trkpt>
      <trkpt lat="47.03966" lon="9.05741">
        <ele>510</ele>
        <time>2021-08-02T07:51:16.316Z</time>
      </trkpt>
      <trkpt lat="47.03967" lon="9.05741">
        <ele>510</ele>
        <time>2021-08-02T07:51:17.315Z</time>
      </trkpt>
      <trkpt lat="47.03968" lon="9.05741">
        <ele>510</ele>
        <time>2021-08-02T07:51:18.315Z</time>
      </trkpt>
      <trkpt lat="47.0397" lon="9.05741">
        <ele>510</ele>
        <time>2021-08-02T07:51:19.316Z</time>
      </trkpt>
      <trkpt lat="47.03971" lon="9.05741">
        <ele>510</ele>
        <time>2021-08-02T07:51:20.316Z</time>
      </trkpt>
      <trkpt lat="47.03972" lon="9.05741">
        <ele>510</ele>
        <time>2021-08-02T07:51:21.315Z</time>
      </trkpt>
      <trkpt lat="47.03973" lon="9.05741">
        <ele>510</ele>
        <time>2021-08-02T07:51:22.315Z</time>
      </trkpt>
      <trkpt lat="47.03974" lon="9.0574">
        <ele>509</ele>
        <time>2021-08-02T07:51:23.316Z</time>
      </trkpt>
      <trkpt lat="47.03975" lon="9.05739">
        <ele>509</ele>
        <time>2021-08-02T07:51:24.316Z</time>
      </trkpt>
      <trkpt lat="47.03976" lon="9.05739">
        <ele>509</ele>
        <time>2021-08-02T07:51:25.316Z</time>
      </trkpt>
      <trkpt lat="47.03977" lon="9.05739">
        <ele>509</ele>
        <time>2021-08-02T07:51:26.316Z</time>
      </trkpt>
      <trkpt lat="47.03978" lon="9.05739">
        <ele>508</ele>
        <time>2021-08-02T07:51:27.316Z</time>
      </trkpt>
      <trkpt lat="47.03979" lon="9.05738">
        <ele>508</ele>
        <time>2021-08-02T07:51:28.316Z</time>
      </trkpt>
      <trkpt lat="47.0398" lon="9.05738">
        <ele>508</ele>
        <time>2021-08-02T07:51:29.316Z</time>
      </trkpt>
      <trkpt lat="47.03981" lon="9.05737">
        <ele>509</ele>
        <time>2021-08-02T07:51:30.316Z</time>
      </trkpt>
      <trkpt lat="47.03983" lon="9.05737">
        <ele>509</ele>
        <time>2021-08-02T07:51:31.315Z</time>
      </trkpt>
      <trkpt lat="47.03984" lon="9.05737">
        <ele>510</ele>
        <time>2021-08-02T07:51:32.315Z</time>
      </trkpt>
      <trkpt lat="47.03985" lon="9.05736">
        <ele>511</ele>
        <time>2021-08-02T07:51:33.316Z</time>
      </trkpt>
      <trkpt lat="47.03986" lon="9.05735">
        <ele>511</ele>
        <time>2021-08-02T07:51:34.315Z</time>
      </trkpt>
      <trkpt lat="47.03987" lon="9.05734">
        <ele>511</ele>
        <time>2021-08-02T07:51:35.316Z</time>
      </trkpt>
      <trkpt lat="47.03988" lon="9.05734">
        <ele>512</ele>
        <time>2021-08-02T07:51:36.316Z</time>
      </trkpt>
      <trkpt lat="47.03989" lon="9.05733">
        <ele>512</ele>
        <time>2021-08-02T07:51:37.315Z</time>
      </trkpt>
      <trkpt lat="47.03991" lon="9.05733">
        <ele>512</ele>
        <time>2021-08-02T07:51:38.316Z</time>
      </trkpt>
      <trkpt lat="47.03992" lon="9.05733">
        <ele>512</ele>
        <time>2021-08-02T07:51:39.316Z</time>
      </trkpt>
      <trkpt lat="47.03993" lon="9.05733">
        <ele>513</ele>
        <time>2021-08-02T07:51:40.316Z</time>
      </trkpt>
      <trkpt lat="47.03994" lon="9.05733">
        <ele>513</ele>
        <time>2021-08-02T07:51:41.316Z</time>
      </trkpt>
      <trkpt lat="47.03995" lon="9.05733">
        <ele>514</ele>
        <time>2021-08-02T07:51:42.316Z</time>
      </trkpt>
      <trkpt lat="47.03995" lon="9.05733">
        <ele>514</ele>
        <time>2021-08-02T07:51:43.316Z</time>
      </trkpt>
      <trkpt lat="47.03996" lon="9.05733">
        <ele>515</ele>
        <time>2021-08-02T07:51:44.316Z</time>
      </trkpt>
      <trkpt lat="47.03997" lon="9.05732">
        <ele>516</ele>
        <time>2021-08-02T07:51:45.316Z</time>
      </trkpt>
      <trkpt lat="47.03998" lon="9.05732">
        <ele>516</ele>
        <time>2021-08-02T07:51:46.315Z</time>
      </trkpt>
      <trkpt lat="47.03999" lon="9.05732">
        <ele>517</ele>
        <time>2021-08-02T07:51:47.315Z</time>
      </trkpt>
      <trkpt lat="47.04" lon="9.05732">
        <ele>518</ele>
        <time>2021-08-02T07:51:48.316Z</time>
      </trkpt>
      <trkpt lat="47.04001" lon="9.05732">
        <ele>518</ele>
        <time>2021-08-02T07:51:49.316Z</time>
      </trkpt>
      <trkpt lat="47.04002" lon="9.05732">
        <ele>518</ele>
        <time>2021-08-02T07:51:50.316Z</time>
      </trkpt>
      <trkpt lat="47.04003" lon="9.05732">
        <ele>518</ele>
        <time>2021-08-02T07:51:51.316Z</time>
      </trkpt>
      <trkpt lat="47.04004" lon="9.05732">
        <ele>517</ele>
        <time>2021-08-02T07:51:52.315Z</time>
      </trkpt>
      <trkpt lat="47.04005" lon="9.05732">
        <ele>517</ele>
        <time>2021-08-02T07:51:53.316Z</time>
      </trkpt>
      <trkpt lat="47.04006" lon="9.05732">
        <ele>517</ele>
        <time>2021-08-02T07:51:54.316Z</time>
      </trkpt>
      <trkpt lat="47.04007" lon="9.05731">
        <ele>516</ele>
        <time>2021-08-02T07:51:55.316Z</time>
      </trkpt>
      <trkpt lat="47.04008" lon="9.05731">
        <ele>516</ele>
        <time>2021-08-02T07:51:56.316Z</time>
      </trkpt>
      <trkpt lat="47.04009" lon="9.05731">
        <ele>517</ele>
        <time>2021-08-02T07:51:57.315Z</time>
      </trkpt>
      <trkpt lat="47.0401" lon="9.05731">
        <ele>517</ele>
        <time>2021-08-02T07:51:58.316Z</time>
      </trkpt>
      <trkpt lat="47.04011" lon="9.05732">
        <ele>517</ele>
        <time>2021-08-02T07:51:59.316Z</time>
      </trkpt>
      <trkpt lat="47.04012" lon="9.05732">
        <ele>517</ele>
        <time>2021-08-02T07:52:00.316Z</time>
      </trkpt>
      <trkpt lat="47.04013" lon="9.05732">
        <ele>517</ele>
        <time>2021-08-02T07:52:01.315Z</time>
      </trkpt>
      <trkpt lat="47.04014" lon="9.05732">
        <ele>518</ele>
        <time>2021-08-02T07:52:02.316Z</time>
      </trkpt>
      <trkpt lat="47.04015" lon="9.05732">
        <ele>518</ele>
        <time>2021-08-02T07:52:03.316Z</time>
      </trkpt>
      <trkpt lat="47.04016" lon="9.05731">
        <ele>519</ele>
        <time>2021-08-02T07:52:04.316Z</time>
      </trkpt>
      <trkpt lat="47.04018" lon="9.0573">
        <ele>519</ele>
        <time>2021-08-02T07:52:05.316Z</time>
      </trkpt>
      <trkpt lat="47.04019" lon="9.05729">
        <ele>519</ele>
        <time>2021-08-02T07:52:06.316Z</time>
      </trkpt>
      <trkpt lat="47.04021" lon="9.05729">
        <ele>518</ele>
        <time>2021-08-02T07:52:07.316Z</time>
      </trkpt>
      <trkpt lat="47.04022" lon="9.05729">
        <ele>518</ele>
        <time>2021-08-02T07:52:08.316Z</time>
      </trkpt>
      <trkpt lat="47.04023" lon="9.05729">
        <ele>517</ele>
        <time>2021-08-02T07:52:09.315Z</time>
      </trkpt>
      <trkpt lat="47.04025" lon="9.05729">
        <ele>517</ele>
        <time>2021-08-02T07:52:10.316Z</time>
      </trkpt>
      <trkpt lat="47.04026" lon="9.05728">
        <ele>516</ele>
        <time>2021-08-02T07:52:11.316Z</time>
      </trkpt>
      <trkpt lat="47.04027" lon="9.05728">
        <ele>516</ele>
        <time>2021-08-02T07:52:12.315Z</time>
      </trkpt>
      <trkpt lat="47.04028" lon="9.05728">
        <ele>516</ele>
        <time>2021-08-02T07:52:13.316Z</time>
      </trkpt>
      <trkpt lat="47.04029" lon="9.05727">
        <ele>516</ele>
        <time>2021-08-02T07:52:14.316Z</time>
      </trkpt>
      <trkpt lat="47.0403" lon="9.05726">
        <ele>516</ele>
        <time>2021-08-02T07:52:15.316Z</time>
      </trkpt>
      <trkpt lat="47.04031" lon="9.05725">
        <ele>516</ele>
        <time>2021-08-02T07:52:16.315Z</time>
      </trkpt>
      <trkpt lat="47.04031" lon="9.05725">
        <ele>516</ele>
        <time>2021-08-02T07:52:17.316Z</time>
      </trkpt>
      <trkpt lat="47.04031" lon="9.05724">
        <ele>516</ele>
        <time>2021-08-02T07:52:18.316Z</time>
      </trkpt>
      <trkpt lat="47.04031" lon="9.05722">
        <ele>516</ele>
        <time>2021-08-02T07:52:19.316Z</time>
      </trkpt>
      <trkpt lat="47.04031" lon="9.05721">
        <ele>517</ele>
        <time>2021-08-02T07:52:20.316Z</time>
      </trkpt>
      <trkpt lat="47.0403" lon="9.05719">
        <ele>517</ele>
        <time>2021-08-02T07:52:21.316Z</time>
      </trkpt>
      <trkpt lat="47.0403" lon="9.05718">
        <ele>517</ele>
        <time>2021-08-02T07:52:22.316Z</time>
      </trkpt>
      <trkpt lat="47.0403" lon="9.05716">
        <ele>517</ele>
        <time>2021-08-02T07:52:23.316Z</time>
      </trkpt>
      <trkpt lat="47.04029" lon="9.05714">
        <ele>516</ele>
        <time>2021-08-02T07:52:24.316Z</time>
      </trkpt>
      <trkpt lat="47.04029" lon="9.05712">
        <ele>516</ele>
        <time>2021-08-02T07:52:25.315Z</time>
      </trkpt>
      <trkpt lat="47.04029" lon="9.0571">
        <ele>516</ele>
        <time>2021-08-02T07:52:26.316Z</time>
      </trkpt>
      <trkpt lat="47.04029" lon="9.05708">
        <ele>516</ele>
        <time>2021-08-02T07:52:27.316Z</time>
      </trkpt>
      <trkpt lat="47.04028" lon="9.05706">
        <ele>516</ele>
        <time>2021-08-02T07:52:28.315Z</time>
      </trkpt>
      <trkpt lat="47.04028" lon="9.05703">
        <ele>516</ele>
        <time>2021-08-02T07:52:29.315Z</time>
      </trkpt>
      <trkpt lat="47.04029" lon="9.05701">
        <ele>517</ele>
        <time>2021-08-02T07:52:30.316Z</time>
      </trkpt>
      <trkpt lat="47.04029" lon="9.057">
        <ele>517</ele>
        <time>2021-08-02T07:52:31.316Z</time>
      </trkpt>
      <trkpt lat="47.0403" lon="9.05698">
        <ele>517</ele>
        <time>2021-08-02T07:52:32.315Z</time>
      </trkpt>
      <trkpt lat="47.04029" lon="9.05696">
        <ele>517</ele>
        <time>2021-08-02T07:52:33.316Z</time>
      </trkpt>
      <trkpt lat="47.04029" lon="9.05695">
        <ele>517</ele>
        <time>2021-08-02T07:52:34.316Z</time>
      </trkpt>
      <trkpt lat="47.04029" lon="9.05694">
        <ele>517</ele>
        <time>2021-08-02T07:52:35.316Z</time>
      </trkpt>
      <trkpt lat="47.04029" lon="9.05693">
        <ele>517</ele>
        <time>2021-08-02T07:52:36.316Z</time>
      </trkpt>
      <trkpt lat="47.04029" lon="9.05692">
        <ele>517</ele>
        <time>2021-08-02T07:52:37.316Z</time>
      </trkpt>
      <trkpt lat="47.04029" lon="9.05691">
        <ele>517</ele>
        <time>2021-08-02T07:52:38.316Z</time>
      </trkpt>
      <trkpt lat="47.04029" lon="9.0569">
        <ele>517</ele>
        <time>2021-08-02T07:52:39.316Z</time>
      </trkpt>
      <trkpt lat="47.04029" lon="9.05689">
        <ele>517</ele>
        <time>2021-08-02T07:52:40.316Z</time>
      </trkpt>
      <trkpt lat="47.0403" lon="9.05688">
        <ele>516</ele>
        <time>2021-08-02T07:52:41.316Z</time>
      </trkpt>
      <trkpt lat="47.0403" lon="9.05686">
        <ele>516</ele>
        <time>2021-08-02T07:52:42.316Z</time>
      </trkpt>
      <trkpt lat="47.0403" lon="9.05684">
        <ele>516</ele>
        <time>2021-08-02T07:52:43.316Z</time>
      </trkpt>
      <trkpt lat="47.0403" lon="9.05683">
        <ele>516</ele>
        <time>2021-08-02T07:52:44.315Z</time>
      </trkpt>
      <trkpt lat="47.04029" lon="9.05681">
        <ele>517</ele>
        <time>2021-08-02T07:52:45.316Z</time>
      </trkpt>
      <trkpt lat="47.04029" lon="9.05679">
        <ele>517</ele>
        <time>2021-08-02T07:52:46.316Z</time>
      </trkpt>
      <trkpt lat="47.04029" lon="9.05677">
        <ele>518</ele>
        <time>2021-08-02T07:52:47.316Z</time>
      </trkpt>
      <trkpt lat="47.04029" lon="9.05675">
        <ele>518</ele>
        <time>2021-08-02T07:52:48.316Z</time>
      </trkpt>
      <trkpt lat="47.0403" lon="9.05675">
        <ele>519</ele>
        <time>2021-08-02T07:52:49.315Z</time>
      </trkpt>
      <trkpt lat="47.0403" lon="9.05674">
        <ele>519</ele>
        <time>2021-08-02T07:52:50.315Z</time>
      </trkpt>
      <trkpt lat="47.04029" lon="9.05673">
        <ele>519</ele>
        <time>2021-08-02T07:52:51.316Z</time>
      </trkpt>
      <trkpt lat="47.0403" lon="9.05672">
        <ele>520</ele>
        <time>2021-08-02T07:52:52.315Z</time>
      </trkpt>
      <trkpt lat="47.0403" lon="9.0567">
        <ele>520</ele>
        <time>2021-08-02T07:52:53.316Z</time>
      </trkpt>
      <trkpt lat="47.0403" lon="9.05668">
        <ele>521</ele>
        <time>2021-08-02T07:52:54.316Z</time>
      </trkpt>
      <trkpt lat="47.04031" lon="9.05667">
        <ele>521</ele>
        <time>2021-08-02T07:52:55.316Z</time>
      </trkpt>
      <trkpt lat="47.04031" lon="9.05666">
        <ele>521</ele>
        <time>2021-08-02T07:52:56.316Z</time>
      </trkpt>
      <trkpt lat="47.04032" lon="9.05664">
        <ele>521</ele>
        <time>2021-08-02T07:52:57.315Z</time>
      </trkpt>
      <trkpt lat="47.04032" lon="9.05662">
        <ele>522</ele>
        <time>2021-08-02T07:52:58.315Z</time>
      </trkpt>
      <trkpt lat="47.04032" lon="9.05661">
        <ele>522</ele>
        <time>2021-08-02T07:52:59.315Z</time>
      </trkpt>
      <trkpt lat="47.04033" lon="9.05659">
        <ele>523</ele>
        <time>2021-08-02T07:53:00.316Z</time>
      </trkpt>
      <trkpt lat="47.04033" lon="9.05657">
        <ele>523</ele>
        <time>2021-08-02T07:53:01.316Z</time>
      </trkpt>
      <trkpt lat="47.04033" lon="9.05656">
        <ele>523</ele>
        <time>2021-08-02T07:53:02.315Z</time>
      </trkpt>
      <trkpt lat="47.04035" lon="9.05656">
        <ele>524</ele>
        <time>2021-08-02T07:53:03.316Z</time>
      </trkpt>
      <trkpt lat="47.04036" lon="9.05655">
        <ele>524</ele>
        <time>2021-08-02T07:53:04.316Z</time>
      </trkpt>
      <trkpt lat="47.04037" lon="9.05655">
        <ele>524</ele>
        <time>2021-08-02T07:53:05.316Z</time>
      </trkpt>
      <trkpt lat="47.04039" lon="9.05654">
        <ele>524</ele>
        <time>2021-08-02T07:53:06.315Z</time>
      </trkpt>
      <trkpt lat="47.0404" lon="9.05654">
        <ele>524</ele>
        <time>2021-08-02T07:53:07.316Z</time>
      </trkpt>
      <trkpt lat="47.04041" lon="9.05653">
        <ele>524</ele>
        <time>2021-08-02T07:53:08.315Z</time>
      </trkpt>
      <trkpt lat="47.04042" lon="9.05653">
        <ele>524</ele>
        <time>2021-08-02T07:53:09.316Z</time>
      </trkpt>
      <trkpt lat="47.04043" lon="9.05653">
        <ele>524</ele>
        <time>2021-08-02T07:53:10.315Z</time>
      </trkpt>
      <trkpt lat="47.04044" lon="9.05653">
        <ele>524</ele>
        <time>2021-08-02T07:53:11.315Z</time>
      </trkpt>
      <trkpt lat="47.04045" lon="9.05652">
        <ele>525</ele>
        <time>2021-08-02T07:53:12.316Z</time>
      </trkpt>
      <trkpt lat="47.04046" lon="9.05651">
        <ele>525</ele>
        <time>2021-08-02T07:53:13.316Z</time>
      </trkpt>
      <trkpt lat="47.04047" lon="9.05651">
        <ele>525</ele>
        <time>2021-08-02T07:53:14.316Z</time>
      </trkpt>
      <trkpt lat="47.04048" lon="9.0565">
        <ele>524</ele>
        <time>2021-08-02T07:53:15.315Z</time>
      </trkpt>
      <trkpt lat="47.0405" lon="9.0565">
        <ele>524</ele>
        <time>2021-08-02T07:53:16.315Z</time>
      </trkpt>
      <trkpt lat="47.04051" lon="9.05649">
        <ele>523</ele>
        <time>2021-08-02T07:53:17.315Z</time>
      </trkpt>
      <trkpt lat="47.04053" lon="9.05648">
        <ele>523</ele>
        <time>2021-08-02T07:53:18.316Z</time>
      </trkpt>
      <trkpt lat="47.04054" lon="9.05648">
        <ele>523</ele>
        <time>2021-08-02T07:53:19.316Z</time>
      </trkpt>
      <trkpt lat="47.04054" lon="9.05646">
        <ele>523</ele>
        <time>2021-08-02T07:53:20.316Z</time>
      </trkpt>
      <trkpt lat="47.04054" lon="9.05644">
        <ele>523</ele>
        <time>2021-08-02T07:53:21.315Z</time>
      </trkpt>
      <trkpt lat="47.04055" lon="9.05642">
        <ele>523</ele>
        <time>2021-08-02T07:53:22.316Z</time>
      </trkpt>
      <trkpt lat="47.04055" lon="9.0564">
        <ele>523</ele>
        <time>2021-08-02T07:53:23.316Z</time>
      </trkpt>
      <trkpt lat="47.04056" lon="9.05638">
        <ele>523</ele>
        <time>2021-08-02T07:53:24.316Z</time>
      </trkpt>
      <trkpt lat="47.04057" lon="9.05638">
        <ele>523</ele>
        <time>2021-08-02T07:53:25.316Z</time>
      </trkpt>
      <trkpt lat="47.04059" lon="9.05638">
        <ele>523</ele>
        <time>2021-08-02T07:53:26.316Z</time>
      </trkpt>
      <trkpt lat="47.0406" lon="9.05638">
        <ele>523</ele>
        <time>2021-08-02T07:53:27.315Z</time>
      </trkpt>
      <trkpt lat="47.04061" lon="9.05638">
        <ele>523</ele>
        <time>2021-08-02T07:53:28.315Z</time>
      </trkpt>
      <trkpt lat="47.04061" lon="9.05637">
        <ele>523</ele>
        <time>2021-08-02T07:53:29.316Z</time>
      </trkpt>
      <trkpt lat="47.04063" lon="9.05636">
        <ele>523</ele>
        <time>2021-08-02T07:53:30.315Z</time>
      </trkpt>
      <trkpt lat="47.04064" lon="9.05636">
        <ele>523</ele>
        <time>2021-08-02T07:53:31.316Z</time>
      </trkpt>
      <trkpt lat="47.04065" lon="9.05636">
        <ele>523</ele>
        <time>2021-08-02T07:53:32.315Z</time>
      </trkpt>
      <trkpt lat="47.04066" lon="9.05635">
        <ele>524</ele>
        <time>2021-08-02T07:53:33.316Z</time>
      </trkpt>
      <trkpt lat="47.04067" lon="9.05635">
        <ele>525</ele>
        <time>2021-08-02T07:53:34.316Z</time>
      </trkpt>
      <trkpt lat="47.04068" lon="9.05635">
        <ele>525</ele>
        <time>2021-08-02T07:53:35.316Z</time>
      </trkpt>
      <trkpt lat="47.04069" lon="9.05634">
        <ele>526</ele>
        <time>2021-08-02T07:53:36.315Z</time>
      </trkpt>
      <trkpt lat="47.0407" lon="9.05634">
        <ele>527</ele>
        <time>2021-08-02T07:53:37.316Z</time>
      </trkpt>
      <trkpt lat="47.04071" lon="9.05633">
        <ele>527</ele>
        <time>2021-08-02T07:53:38.316Z</time>
      </trkpt>
      <trkpt lat="47.04072" lon="9.05631">
        <ele>528</ele>
        <time>2021-08-02T07:53:39.316Z</time>
      </trkpt>
      <trkpt lat="47.04074" lon="9.05629">
        <ele>529</ele>
        <time>2021-08-02T07:53:40.315Z</time>
      </trkpt>
      <trkpt lat="47.04075" lon="9.05628">
        <ele>529</ele>
        <time>2021-08-02T07:53:41.316Z</time>
      </trkpt>
      <trkpt lat="47.04076" lon="9.05627">
        <ele>530</ele>
        <time>2021-08-02T07:53:42.316Z</time>
      </trkpt>
      <trkpt lat="47.04077" lon="9.05626">
        <ele>531</ele>
        <time>2021-08-02T07:53:43.315Z</time>
      </trkpt>
      <trkpt lat="47.04078" lon="9.05626">
        <ele>531</ele>
        <time>2021-08-02T07:53:44.316Z</time>
      </trkpt>
      <trkpt lat="47.04079" lon="9.05627">
        <ele>532</ele>
        <time>2021-08-02T07:53:45.315Z</time>
      </trkpt>
      <trkpt lat="47.04079" lon="9.05626">
        <ele>533</ele>
        <time>2021-08-02T07:53:46.316Z</time>
      </trkpt>
      <trkpt lat="47.0408" lon="9.05626">
        <ele>533</ele>
        <time>2021-08-02T07:53:47.316Z</time>
      </trkpt>
      <trkpt lat="47.0408" lon="9.05626">
        <ele>534</ele>
        <time>2021-08-02T07:53:48.316Z</time>
      </trkpt>
      <trkpt lat="47.04081" lon="9.05626">
        <ele>534</ele>
        <time>2021-08-02T07:53:49.315Z</time>
      </trkpt>
      <trkpt lat="47.04082" lon="9.05627">
        <ele>535</ele>
        <time>2021-08-02T07:53:50.316Z</time>
      </trkpt>
      <trkpt lat="47.04083" lon="9.05627">
        <ele>536</ele>
        <time>2021-08-02T07:53:51.315Z</time>
      </trkpt>
      <trkpt lat="47.04084" lon="9.05627">
        <ele>536</ele>
        <time>2021-08-02T07:53:52.316Z</time>
      </trkpt>
      <trkpt lat="47.04085" lon="9.05627">
        <ele>536</ele>
        <time>2021-08-02T07:53:53.316Z</time>
      </trkpt>
      <trkpt lat="47.04086" lon="9.05627">
        <ele>537</ele>
        <time>2021-08-02T07:53:54.316Z</time>
      </trkpt>
      <trkpt lat="47.04086" lon="9.05628">
        <ele>537</ele>
        <time>2021-08-02T07:53:55.316Z</time>
      </trkpt>
      <trkpt lat="47.04087" lon="9.05629">
        <ele>538</ele>
        <time>2021-08-02T07:53:56.316Z</time>
      </trkpt>
      <trkpt lat="47.04088" lon="9.05629">
        <ele>538</ele>
        <time>2021-08-02T07:53:57.315Z</time>
      </trkpt>
      <trkpt lat="47.04088" lon="9.05629">
        <ele>539</ele>
        <time>2021-08-02T07:53:58.316Z</time>
      </trkpt>
      <trkpt lat="47.04089" lon="9.05629">
        <ele>540</ele>
        <time>2021-08-02T07:53:59.316Z</time>
      </trkpt>
      <trkpt lat="47.0409" lon="9.05629">
        <ele>540</ele>
        <time>2021-08-02T07:54:00.316Z</time>
      </trkpt>
      <trkpt lat="47.04091" lon="9.05628">
        <ele>541</ele>
        <time>2021-08-02T07:54:01.316Z</time>
      </trkpt>
      <trkpt lat="47.04093" lon="9.05627">
        <ele>541</ele>
        <time>2021-08-02T07:54:02.315Z</time>
      </trkpt>
      <trkpt lat="47.04094" lon="9.05626">
        <ele>542</ele>
        <time>2021-08-02T07:54:03.316Z</time>
      </trkpt>
      <trkpt lat="47.04095" lon="9.05626">
        <ele>542</ele>
        <time>2021-08-02T07:54:04.316Z</time>
      </trkpt>
      <trkpt lat="47.04097" lon="9.05627">
        <ele>543</ele>
        <time>2021-08-02T07:54:05.316Z</time>
      </trkpt>
      <trkpt lat="47.04099" lon="9.05627">
        <ele>543</ele>
        <time>2021-08-02T07:54:06.315Z</time>
      </trkpt>
      <trkpt lat="47.041" lon="9.05627">
        <ele>544</ele>
        <time>2021-08-02T07:54:07.316Z</time>
      </trkpt>
      <trkpt lat="47.04101" lon="9.05627">
        <ele>544</ele>
        <time>2021-08-02T07:54:08.315Z</time>
      </trkpt>
      <trkpt lat="47.04102" lon="9.05626">
        <ele>544</ele>
        <time>2021-08-02T07:54:09.316Z</time>
      </trkpt>
      <trkpt lat="47.04103" lon="9.05626">
        <ele>545</ele>
        <time>2021-08-02T07:54:10.316Z</time>
      </trkpt>
      <trkpt lat="47.04105" lon="9.05626">
        <ele>545</ele>
        <time>2021-08-02T07:54:11.316Z</time>
      </trkpt>
      <trkpt lat="47.04106" lon="9.05627">
        <ele>546</ele>
        <time>2021-08-02T07:54:12.316Z</time>
      </trkpt>
      <trkpt lat="47.04107" lon="9.05627">
        <ele>546</ele>
        <time>2021-08-02T07:54:13.316Z</time>
      </trkpt>
      <trkpt lat="47.04108" lon="9.05627">
        <ele>547</ele>
        <time>2021-08-02T07:54:14.316Z</time>
      </trkpt>
      <trkpt lat="47.04109" lon="9.05628">
        <ele>547</ele>
        <time>2021-08-02T07:54:15.315Z</time>
      </trkpt>
      <trkpt lat="47.0411" lon="9.05628">
        <ele>548</ele>
        <time>2021-08-02T07:54:16.316Z</time>
      </trkpt>
      <trkpt lat="47.04111" lon="9.05628">
        <ele>548</ele>
        <time>2021-08-02T07:54:17.315Z</time>
      </trkpt>
      <trkpt lat="47.04111" lon="9.05629">
        <ele>549</ele>
        <time>2021-08-02T07:54:18.316Z</time>
      </trkpt>
      <trkpt lat="47.04112" lon="9.05631">
        <ele>550</ele>
        <time>2021-08-02T07:54:19.316Z</time>
      </trkpt>
      <trkpt lat="47.04113" lon="9.05632">
        <ele>550</ele>
        <time>2021-08-02T07:54:20.316Z</time>
      </trkpt>
      <trkpt lat="47.04114" lon="9.05632">
        <ele>551</ele>
        <time>2021-08-02T07:54:21.315Z</time>
      </trkpt>
      <trkpt lat="47.04116" lon="9.05633">
        <ele>551</ele>
        <time>2021-08-02T07:54:22.315Z</time>
      </trkpt>
      <trkpt lat="47.04117" lon="9.05634">
        <ele>552</ele>
        <time>2021-08-02T07:54:23.316Z</time>
      </trkpt>
      <trkpt lat="47.04117" lon="9.05635">
        <ele>553</ele>
        <time>2021-08-02T07:54:24.316Z</time>
      </trkpt>
      <trkpt lat="47.04117" lon="9.05635">
        <ele>554</ele>
        <time>2021-08-02T07:54:25.316Z</time>
      </trkpt>
      <trkpt lat="47.04118" lon="9.05635">
        <ele>554</ele>
        <time>2021-08-02T07:54:26.316Z</time>
      </trkpt>
      <trkpt lat="47.0412" lon="9.05636">
        <ele>555</ele>
        <time>2021-08-02T07:54:27.315Z</time>
      </trkpt>
      <trkpt lat="47.04121" lon="9.05637">
        <ele>556</ele>
        <time>2021-08-02T07:54:28.316Z</time>
      </trkpt>
      <trkpt lat="47.04122" lon="9.05637">
        <ele>556</ele>
        <time>2021-08-02T07:54:29.316Z</time>
      </trkpt>
      <trkpt lat="47.04124" lon="9.05637">
        <ele>556</ele>
        <time>2021-08-02T07:54:30.316Z</time>
      </trkpt>
      <trkpt lat="47.04125" lon="9.05636">
        <ele>556</ele>
        <time>2021-08-02T07:54:31.316Z</time>
      </trkpt>
      <trkpt lat="47.04126" lon="9.05636">
        <ele>556</ele>
        <time>2021-08-02T07:54:32.316Z</time>
      </trkpt>
      <trkpt lat="47.04128" lon="9.05636">
        <ele>556</ele>
        <time>2021-08-02T07:54:33.316Z</time>
      </trkpt>
      <trkpt lat="47.04129" lon="9.05636">
        <ele>556</ele>
        <time>2021-08-02T07:54:34.316Z</time>
      </trkpt>
      <trkpt lat="47.0413" lon="9.05636">
        <ele>556</ele>
        <time>2021-08-02T07:54:35.316Z</time>
      </trkpt>
      <trkpt lat="47.04131" lon="9.05636">
        <ele>556</ele>
        <time>2021-08-02T07:54:36.315Z</time>
      </trkpt>
      <trkpt lat="47.04132" lon="9.05637">
        <ele>557</ele>
        <time>2021-08-02T07:54:37.316Z</time>
      </trkpt>
      <trkpt lat="47.04133" lon="9.05636">
        <ele>557</ele>
        <time>2021-08-02T07:54:38.316Z</time>
      </trkpt>
      <trkpt lat="47.04134" lon="9.05637">
        <ele>557</ele>
        <time>2021-08-02T07:54:39.315Z</time>
      </trkpt>
      <trkpt lat="47.04135" lon="9.05637">
        <ele>557</ele>
        <time>2021-08-02T07:54:40.316Z</time>
      </trkpt>
      <trkpt lat="47.04136" lon="9.05637">
        <ele>556</ele>
        <time>2021-08-02T07:54:41.316Z</time>
      </trkpt>
      <trkpt lat="47.04137" lon="9.05636">
        <ele>556</ele>
        <time>2021-08-02T07:54:42.316Z</time>
      </trkpt>
      <trkpt lat="47.04139" lon="9.05635">
        <ele>556</ele>
        <time>2021-08-02T07:54:43.315Z</time>
      </trkpt>
      <trkpt lat="47.0414" lon="9.05634">
        <ele>556</ele>
        <time>2021-08-02T07:54:44.315Z</time>
      </trkpt>
      <trkpt lat="47.0414" lon="9.05634">
        <ele>555</ele>
        <time>2021-08-02T07:54:45.315Z</time>
      </trkpt>
      <trkpt lat="47.04141" lon="9.05634">
        <ele>555</ele>
        <time>2021-08-02T07:54:46.316Z</time>
      </trkpt>
      <trkpt lat="47.04142" lon="9.05634">
        <ele>555</ele>
        <time>2021-08-02T07:54:47.316Z</time>
      </trkpt>
      <trkpt lat="47.04143" lon="9.05634">
        <ele>555</ele>
        <time>2021-08-02T07:54:48.315Z</time>
      </trkpt>
      <trkpt lat="47.04144" lon="9.05635">
        <ele>555</ele>
        <time>2021-08-02T07:54:49.316Z</time>
      </trkpt>
      <trkpt lat="47.04146" lon="9.05635">
        <ele>555</ele>
        <time>2021-08-02T07:54:50.315Z</time>
      </trkpt>
      <trkpt lat="47.04147" lon="9.05635">
        <ele>555</ele>
        <time>2021-08-02T07:54:51.315Z</time>
      </trkpt>
      <trkpt lat="47.04148" lon="9.05635">
        <ele>555</ele>
        <time>2021-08-02T07:54:52.316Z</time>
      </trkpt>
      <trkpt lat="47.04149" lon="9.05635">
        <ele>555</ele>
        <time>2021-08-02T07:54:53.316Z</time>
      </trkpt>
      <trkpt lat="47.0415" lon="9.05635">
        <ele>555</ele>
        <time>2021-08-02T07:54:54.316Z</time>
      </trkpt>
      <trkpt lat="47.04151" lon="9.05635">
        <ele>554</ele>
        <time>2021-08-02T07:54:55.316Z</time>
      </trkpt>
      <trkpt lat="47.04152" lon="9.05635">
        <ele>554</ele>
        <time>2021-08-02T07:54:56.315Z</time>
      </trkpt>
      <trkpt lat="47.04153" lon="9.05634">
        <ele>554</ele>
        <time>2021-08-02T07:54:57.315Z</time>
      </trkpt>
      <trkpt lat="47.04154" lon="9.05635">
        <ele>553</ele>
        <time>2021-08-02T07:54:58.316Z</time>
      </trkpt>
      <trkpt lat="47.04155" lon="9.05634">
        <ele>553</ele>
        <time>2021-08-02T07:54:59.316Z</time>
      </trkpt>
      <trkpt lat="47.04156" lon="9.05634">
        <ele>552</ele>
        <time>2021-08-02T07:55:00.316Z</time>
      </trkpt>
      <trkpt lat="47.04157" lon="9.05635">
        <ele>552</ele>
        <time>2021-08-02T07:55:01.316Z</time>
      </trkpt>
      <trkpt lat="47.04158" lon="9.05635">
        <ele>551</ele>
        <time>2021-08-02T07:55:02.315Z</time>
      </trkpt>
      <trkpt lat="47.04159" lon="9.05634">
        <ele>550</ele>
        <time>2021-08-02T07:55:03.316Z</time>
      </trkpt>
      <trkpt lat="47.0416" lon="9.05634">
        <ele>550</ele>
        <time>2021-08-02T07:55:04.315Z</time>
      </trkpt>
      <trkpt lat="47.04162" lon="9.05634">
        <ele>549</ele>
        <time>2021-08-02T07:55:05.315Z</time>
      </trkpt>
      <trkpt lat="47.04162" lon="9.05635">
        <ele>549</ele>
        <time>2021-08-02T07:55:06.316Z</time>
      </trkpt>
      <trkpt lat="47.04163" lon="9.05635">
        <ele>548</ele>
        <time>2021-08-02T07:55:07.316Z</time>
      </trkpt>
      <trkpt lat="47.04164" lon="9.05634">
        <ele>548</ele>
        <time>2021-08-02T07:55:08.316Z</time>
      </trkpt>
      <trkpt lat="47.04164" lon="9.05633">
        <ele>547</ele>
        <time>2021-08-02T07:55:09.316Z</time>
      </trkpt>
      <trkpt lat="47.04165" lon="9.05633">
        <ele>547</ele>
        <time>2021-08-02T07:55:10.316Z</time>
      </trkpt>
      <trkpt lat="47.04166" lon="9.05633">
        <ele>547</ele>
        <time>2021-08-02T07:55:11.316Z</time>
      </trkpt>
      <trkpt lat="47.04166" lon="9.05632">
        <ele>547</ele>
        <time>2021-08-02T07:55:12.316Z</time>
      </trkpt>
      <trkpt lat="47.04167" lon="9.05632">
        <ele>547</ele>
        <time>2021-08-02T07:55:13.316Z</time>
      </trkpt>
      <trkpt lat="47.04169" lon="9.05632">
        <ele>547</ele>
        <time>2021-08-02T07:55:14.316Z</time>
      </trkpt>
      <trkpt lat="47.0417" lon="9.05632">
        <ele>547</ele>
        <time>2021-08-02T07:55:15.315Z</time>
      </trkpt>
      <trkpt lat="47.0417" lon="9.05633">
        <ele>547</ele>
        <time>2021-08-02T07:55:16.316Z</time>
      </trkpt>
      <trkpt lat="47.0417" lon="9.05633">
        <ele>547</ele>
        <time>2021-08-02T07:55:17.315Z</time>
      </trkpt>
      <trkpt lat="47.0417" lon="9.05633">
        <ele>547</ele>
        <time>2021-08-02T07:55:18.315Z</time>
      </trkpt>
      <trkpt lat="47.04171" lon="9.05634">
        <ele>547</ele>
        <time>2021-08-02T07:55:19.315Z</time>
      </trkpt>
      <trkpt lat="47.04172" lon="9.05635">
        <ele>547</ele>
        <time>2021-08-02T07:55:20.315Z</time>
      </trkpt>
      <trkpt lat="47.04173" lon="9.05635">
        <ele>546</ele>
        <time>2021-08-02T07:55:21.315Z</time>
      </trkpt>
      <trkpt lat="47.04174" lon="9.05635">
        <ele>546</ele>
        <time>2021-08-02T07:55:22.316Z</time>
      </trkpt>
      <trkpt lat="47.04175" lon="9.05635">
        <ele>546</ele>
        <time>2021-08-02T07:55:23.316Z</time>
      </trkpt>
      <trkpt lat="47.04176" lon="9.05634">
        <ele>546</ele>
        <time>2021-08-02T07:55:24.316Z</time>
      </trkpt>
      <trkpt lat="47.04177" lon="9.05634">
        <ele>546</ele>
        <time>2021-08-02T07:55:25.316Z</time>
      </trkpt>
      <trkpt lat="47.04178" lon="9.05634">
        <ele>546</ele>
        <time>2021-08-02T07:55:26.316Z</time>
      </trkpt>
      <trkpt lat="47.04178" lon="9.05634">
        <ele>546</ele>
        <time>2021-08-02T07:55:27.316Z</time>
      </trkpt>
      <trkpt lat="47.04179" lon="9.05635">
        <ele>546</ele>
        <time>2021-08-02T07:55:28.315Z</time>
      </trkpt>
      <trkpt lat="47.0418" lon="9.05634">
        <ele>546</ele>
        <time>2021-08-02T07:55:29.316Z</time>
      </trkpt>
      <trkpt lat="47.04181" lon="9.05635">
        <ele>546</ele>
        <time>2021-08-02T07:55:30.316Z</time>
      </trkpt>
      <trkpt lat="47.04182" lon="9.05635">
        <ele>545</ele>
        <time>2021-08-02T07:55:31.315Z</time>
      </trkpt>
      <trkpt lat="47.04183" lon="9.05635">
        <ele>545</ele>
        <time>2021-08-02T07:55:32.316Z</time>
      </trkpt>
      <trkpt lat="47.04184" lon="9.05636">
        <ele>544</ele>
        <time>2021-08-02T07:55:33.315Z</time>
      </trkpt>
      <trkpt lat="47.04185" lon="9.05636">
        <ele>544</ele>
        <time>2021-08-02T07:55:34.316Z</time>
      </trkpt>
      <trkpt lat="47.04186" lon="9.05635">
        <ele>543</ele>
        <time>2021-08-02T07:55:35.316Z</time>
      </trkpt>
      <trkpt lat="47.04188" lon="9.05635">
        <ele>542</ele>
        <time>2021-08-02T07:55:36.315Z</time>
      </trkpt>
      <trkpt lat="47.04189" lon="9.05635">
        <ele>541</ele>
        <time>2021-08-02T07:55:37.315Z</time>
      </trkpt>
      <trkpt lat="47.0419" lon="9.05636">
        <ele>540</ele>
        <time>2021-08-02T07:55:38.315Z</time>
      </trkpt>
      <trkpt lat="47.04191" lon="9.05636">
        <ele>540</ele>
        <time>2021-08-02T07:55:39.316Z</time>
      </trkpt>
      <trkpt lat="47.04192" lon="9.05636">
        <ele>539</ele>
        <time>2021-08-02T07:55:40.316Z</time>
      </trkpt>
      <trkpt lat="47.04193" lon="9.05636">
        <ele>539</ele>
        <time>2021-08-02T07:55:41.316Z</time>
      </trkpt>
      <trkpt lat="47.04195" lon="9.05636">
        <ele>538</ele>
        <time>2021-08-02T07:55:42.315Z</time>
      </trkpt>
      <trkpt lat="47.04196" lon="9.05636">
        <ele>537</ele>
        <time>2021-08-02T07:55:43.316Z</time>
      </trkpt>
      <trkpt lat="47.04198" lon="9.05636">
        <ele>536</ele>
        <time>2021-08-02T07:55:44.315Z</time>
      </trkpt>
      <trkpt lat="47.04199" lon="9.05636">
        <ele>536</ele>
        <time>2021-08-02T07:55:45.316Z</time>
      </trkpt>
      <trkpt lat="47.042" lon="9.05636">
        <ele>535</ele>
        <time>2021-08-02T07:55:46.316Z</time>
      </trkpt>
      <trkpt lat="47.04201" lon="9.05636">
        <ele>535</ele>
        <time>2021-08-02T07:55:47.315Z</time>
      </trkpt>
      <trkpt lat="47.04202" lon="9.05637">
        <ele>535</ele>
        <time>2021-08-02T07:55:48.315Z</time>
      </trkpt>
      <trkpt lat="47.04203" lon="9.05637">
        <ele>534</ele>
        <time>2021-08-02T07:55:49.316Z</time>
      </trkpt>
      <trkpt lat="47.04203" lon="9.05637">
        <ele>534</ele>
        <time>2021-08-02T07:55:50.316Z</time>
      </trkpt>
      <trkpt lat="47.04205" lon="9.05637">
        <ele>534</ele>
        <time>2021-08-02T07:55:51.315Z</time>
      </trkpt>
      <trkpt lat="47.04205" lon="9.05637">
        <ele>533</ele>
        <time>2021-08-02T07:55:52.316Z</time>
      </trkpt>
      <trkpt lat="47.04206" lon="9.05637">
        <ele>533</ele>
        <time>2021-08-02T07:55:53.315Z</time>
      </trkpt>
      <trkpt lat="47.04207" lon="9.05637">
        <ele>533</ele>
        <time>2021-08-02T07:55:54.316Z</time>
      </trkpt>
      <trkpt lat="47.04208" lon="9.05637">
        <ele>532</ele>
        <time>2021-08-02T07:55:55.316Z</time>
      </trkpt>
      <trkpt lat="47.04209" lon="9.05637">
        <ele>532</ele>
        <time>2021-08-02T07:55:56.315Z</time>
      </trkpt>
      <trkpt lat="47.0421" lon="9.05637">
        <ele>532</ele>
        <time>2021-08-02T07:55:57.316Z</time>
      </trkpt>
      <trkpt lat="47.04211" lon="9.05638">
        <ele>532</ele>
        <time>2021-08-02T07:55:58.316Z</time>
      </trkpt>
      <trkpt lat="47.04211" lon="9.05638">
        <ele>531</ele>
        <time>2021-08-02T07:55:59.316Z</time>
      </trkpt>
      <trkpt lat="47.04213" lon="9.05638">
        <ele>531</ele>
        <time>2021-08-02T07:56:00.315Z</time>
      </trkpt>
      <trkpt lat="47.04215" lon="9.05638">
        <ele>530</ele>
        <time>2021-08-02T07:56:01.316Z</time>
      </trkpt>
      <trkpt lat="47.04215" lon="9.05638">
        <ele>530</ele>
        <time>2021-08-02T07:56:02.315Z</time>
      </trkpt>
      <trkpt lat="47.04215" lon="9.05638">
        <ele>530</ele>
        <time>2021-08-02T07:56:03.315Z</time>
      </trkpt>
      <trkpt lat="47.04216" lon="9.05638">
        <ele>530</ele>
        <time>2021-08-02T07:56:04.316Z</time>
      </trkpt>
      <trkpt lat="47.04216" lon="9.05637">
        <ele>530</ele>
        <time>2021-08-02T07:56:05.315Z</time>
      </trkpt>
      <trkpt lat="47.04217" lon="9.05637">
        <ele>530</ele>
        <time>2021-08-02T07:56:06.316Z</time>
      </trkpt>
      <trkpt lat="47.04217" lon="9.05636">
        <ele>531</ele>
        <time>2021-08-02T07:56:07.316Z</time>
      </trkpt>
      <trkpt lat="47.04217" lon="9.05636">
        <ele>531</ele>
        <time>2021-08-02T07:56:08.316Z</time>
      </trkpt>
      <trkpt lat="47.04217" lon="9.05635">
        <ele>531</ele>
        <time>2021-08-02T07:56:09.316Z</time>
      </trkpt>
      <trkpt lat="47.04218" lon="9.05634">
        <ele>531</ele>
        <time>2021-08-02T07:56:10.316Z</time>
      </trkpt>
      <trkpt lat="47.0422" lon="9.05634">
        <ele>531</ele>
        <time>2021-08-02T07:56:11.315Z</time>
      </trkpt>
      <trkpt lat="47.0422" lon="9.05634">
        <ele>532</ele>
        <time>2021-08-02T07:56:12.316Z</time>
      </trkpt>
      <trkpt lat="47.04221" lon="9.05633">
        <ele>532</ele>
        <time>2021-08-02T07:56:13.316Z</time>
      </trkpt>
      <trkpt lat="47.04222" lon="9.05632">
        <ele>532</ele>
        <time>2021-08-02T07:56:14.315Z</time>
      </trkpt>
      <trkpt lat="47.04222" lon="9.05631">
        <ele>533</ele>
        <time>2021-08-02T07:56:15.315Z</time>
      </trkpt>
      <trkpt lat="47.04223" lon="9.05629">
        <ele>533</ele>
        <time>2021-08-02T07:56:16.316Z</time>
      </trkpt>
      <trkpt lat="47.04224" lon="9.05629">
        <ele>534</ele>
        <time>2021-08-02T07:56:17.316Z</time>
      </trkpt>
      <trkpt lat="47.04225" lon="9.05628">
        <ele>534</ele>
        <time>2021-08-02T07:56:18.316Z</time>
      </trkpt>
      <trkpt lat="47.04226" lon="9.05628">
        <ele>534</ele>
        <time>2021-08-02T07:56:19.316Z</time>
      </trkpt>
      <trkpt lat="47.04227" lon="9.05627">
        <ele>534</ele>
        <time>2021-08-02T07:56:20.315Z</time>
      </trkpt>
      <trkpt lat="47.04228" lon="9.05626">
        <ele>535</ele>
        <time>2021-08-02T07:56:21.316Z</time>
      </trkpt>
      <trkpt lat="47.04228" lon="9.05626">
        <ele>536</ele>
        <time>2021-08-02T07:56:22.315Z</time>
      </trkpt>
      <trkpt lat="47.04229" lon="9.05625">
        <ele>537</ele>
        <time>2021-08-02T07:56:23.315Z</time>
      </trkpt>
      <trkpt lat="47.04229" lon="9.05623">
        <ele>537</ele>
        <time>2021-08-02T07:56:24.316Z</time>
      </trkpt>
      <trkpt lat="47.0423" lon="9.05622">
        <ele>538</ele>
        <time>2021-08-02T07:56:25.316Z</time>
      </trkpt>
      <trkpt lat="47.0423" lon="9.05621">
        <ele>538</ele>
        <time>2021-08-02T07:56:26.316Z</time>
      </trkpt>
      <trkpt lat="47.0423" lon="9.05619">
        <ele>539</ele>
        <time>2021-08-02T07:56:27.316Z</time>
      </trkpt>
      <trkpt lat="47.04231" lon="9.05618">
        <ele>539</ele>
        <time>2021-08-02T07:56:28.316Z</time>
      </trkpt>
      <trkpt lat="47.04232" lon="9.05618">
        <ele>539</ele>
        <time>2021-08-02T07:56:29.315Z</time>
      </trkpt>
      <trkpt lat="47.04233" lon="9.05617">
        <ele>539</ele>
        <time>2021-08-02T07:56:30.316Z</time>
      </trkpt>
      <trkpt lat="47.04235" lon="9.05617">
        <ele>539</ele>
        <time>2021-08-02T07:56:31.315Z</time>
      </trkpt>
      <trkpt lat="47.04236" lon="9.05616">
        <ele>539</ele>
        <time>2021-08-02T07:56:32.315Z</time>
      </trkpt>
      <trkpt lat="47.04237" lon="9.05616">
        <ele>539</ele>
        <time>2021-08-02T07:56:33.315Z</time>
      </trkpt>
      <trkpt lat="47.04238" lon="9.05615">
        <ele>539</ele>
        <time>2021-08-02T07:56:34.315Z</time>
      </trkpt>
      <trkpt lat="47.04239" lon="9.05614">
        <ele>539</ele>
        <time>2021-08-02T07:56:35.316Z</time>
      </trkpt>
      <trkpt lat="47.0424" lon="9.05614">
        <ele>539</ele>
        <time>2021-08-02T07:56:36.315Z</time>
      </trkpt>
      <trkpt lat="47.04241" lon="9.05613">
        <ele>538</ele>
        <time>2021-08-02T07:56:37.315Z</time>
      </trkpt>
      <trkpt lat="47.04242" lon="9.05612">
        <ele>538</ele>
        <time>2021-08-02T07:56:38.316Z</time>
      </trkpt>
      <trkpt lat="47.04243" lon="9.05611">
        <ele>537</ele>
        <time>2021-08-02T07:56:39.315Z</time>
      </trkpt>
      <trkpt lat="47.04244" lon="9.0561">
        <ele>537</ele>
        <time>2021-08-02T07:56:40.316Z</time>
      </trkpt>
      <trkpt lat="47.04245" lon="9.05609">
        <ele>538</ele>
        <time>2021-08-02T07:56:41.316Z</time>
      </trkpt>
      <trkpt lat="47.04246" lon="9.05609">
        <ele>538</ele>
        <time>2021-08-02T07:56:42.316Z</time>
      </trkpt>
      <trkpt lat="47.04247" lon="9.05608">
        <ele>538</ele>
        <time>2021-08-02T07:56:43.315Z</time>
      </trkpt>
      <trkpt lat="47.04247" lon="9.05607">
        <ele>538</ele>
        <time>2021-08-02T07:56:44.316Z</time>
      </trkpt>
      <trkpt lat="47.04248" lon="9.05605">
        <ele>539</ele>
        <time>2021-08-02T07:56:45.315Z</time>
      </trkpt>
      <trkpt lat="47.04249" lon="9.05604">
        <ele>539</ele>
        <time>2021-08-02T07:56:46.316Z</time>
      </trkpt>
      <trkpt lat="47.04249" lon="9.05603">
        <ele>539</ele>
        <time>2021-08-02T07:56:47.316Z</time>
      </trkpt>
      <trkpt lat="47.04249" lon="9.05601">
        <ele>539</ele>
        <time>2021-08-02T07:56:48.315Z</time>
      </trkpt>
      <trkpt lat="47.04248" lon="9.05599">
        <ele>540</ele>
        <time>2021-08-02T07:56:49.316Z</time>
      </trkpt>
      <trkpt lat="47.04247" lon="9.05597">
        <ele>540</ele>
        <time>2021-08-02T07:56:50.315Z</time>
      </trkpt>
      <trkpt lat="47.04245" lon="9.05591">
        <ele>545</ele>
        <time>2021-08-02T07:56:51.317Z</time>
      </trkpt>
      <trkpt lat="47.04247" lon="9.05591">
        <ele>545</ele>
        <time>2021-08-02T07:56:52.316Z</time>
      </trkpt>
      <trkpt lat="47.04248" lon="9.0559">
        <ele>545</ele>
        <time>2021-08-02T07:56:53.317Z</time>
      </trkpt>
      <trkpt lat="47.04248" lon="9.0559">
        <ele>545</ele>
        <time>2021-08-02T07:56:54.317Z</time>
      </trkpt>
      <trkpt lat="47.04248" lon="9.05589">
        <ele>545</ele>
        <time>2021-08-02T07:56:55.316Z</time>
      </trkpt>
      <trkpt lat="47.04249" lon="9.05588">
        <ele>544</ele>
        <time>2021-08-02T07:56:56.317Z</time>
      </trkpt>
      <trkpt lat="47.04249" lon="9.05588">
        <ele>544</ele>
        <time>2021-08-02T07:56:57.317Z</time>
      </trkpt>
      <trkpt lat="47.0425" lon="9.05587">
        <ele>543</ele>
        <time>2021-08-02T07:56:58.317Z</time>
      </trkpt>
      <trkpt lat="47.04251" lon="9.05588">
        <ele>543</ele>
        <time>2021-08-02T07:56:59.316Z</time>
      </trkpt>
      <trkpt lat="47.04252" lon="9.05588">
        <ele>542</ele>
        <time>2021-08-02T07:57:00.316Z</time>
      </trkpt>
      <trkpt lat="47.04253" lon="9.05588">
        <ele>542</ele>
        <time>2021-08-02T07:57:01.317Z</time>
      </trkpt>
      <trkpt lat="47.04254" lon="9.05588">
        <ele>542</ele>
        <time>2021-08-02T07:57:02.317Z</time>
      </trkpt>
      <trkpt lat="47.04256" lon="9.05588">
        <ele>542</ele>
        <time>2021-08-02T07:57:03.316Z</time>
      </trkpt>
      <trkpt lat="47.04257" lon="9.05588">
        <ele>542</ele>
        <time>2021-08-02T07:57:04.316Z</time>
      </trkpt>
      <trkpt lat="47.04258" lon="9.05588">
        <ele>542</ele>
        <time>2021-08-02T07:57:05.317Z</time>
      </trkpt>
      <trkpt lat="47.0426" lon="9.05587">
        <ele>542</ele>
        <time>2021-08-02T07:57:06.317Z</time>
      </trkpt>
      <trkpt lat="47.04261" lon="9.05586">
        <ele>542</ele>
        <time>2021-08-02T07:57:07.316Z</time>
      </trkpt>
      <trkpt lat="47.04263" lon="9.05585">
        <ele>542</ele>
        <time>2021-08-02T07:57:08.317Z</time>
      </trkpt>
      <trkpt lat="47.04264" lon="9.05584">
        <ele>543</ele>
        <time>2021-08-02T07:57:09.316Z</time>
      </trkpt>
      <trkpt lat="47.04265" lon="9.05585">
        <ele>543</ele>
        <time>2021-08-02T07:57:10.316Z</time>
      </trkpt>
      <trkpt lat="47.04267" lon="9.05585">
        <ele>543</ele>
        <time>2021-08-02T07:57:11.316Z</time>
      </trkpt>
      <trkpt lat="47.0427" lon="9.05586">
        <ele>543</ele>
        <time>2021-08-02T07:57:12.317Z</time>
      </trkpt>
      <trkpt lat="47.04271" lon="9.05586">
        <ele>543</ele>
        <time>2021-08-02T07:57:13.317Z</time>
      </trkpt>
      <trkpt lat="47.04272" lon="9.05586">
        <ele>543</ele>
        <time>2021-08-02T07:57:14.317Z</time>
      </trkpt>
      <trkpt lat="47.04273" lon="9.05585">
        <ele>542</ele>
        <time>2021-08-02T07:57:15.317Z</time>
      </trkpt>
      <trkpt lat="47.04274" lon="9.05584">
        <ele>542</ele>
        <time>2021-08-02T07:57:16.317Z</time>
      </trkpt>
      <trkpt lat="47.04276" lon="9.05584">
        <ele>542</ele>
        <time>2021-08-02T07:57:17.317Z</time>
      </trkpt>
      <trkpt lat="47.04277" lon="9.05583">
        <ele>542</ele>
        <time>2021-08-02T07:57:18.316Z</time>
      </trkpt>
      <trkpt lat="47.04278" lon="9.05583">
        <ele>542</ele>
        <time>2021-08-02T07:57:19.316Z</time>
      </trkpt>
      <trkpt lat="47.04279" lon="9.05583">
        <ele>541</ele>
        <time>2021-08-02T07:57:20.316Z</time>
      </trkpt>
      <trkpt lat="47.0428" lon="9.05582">
        <ele>541</ele>
        <time>2021-08-02T07:57:21.316Z</time>
      </trkpt>
      <trkpt lat="47.04281" lon="9.05581">
        <ele>540</ele>
        <time>2021-08-02T07:57:22.316Z</time>
      </trkpt>
      <trkpt lat="47.04281" lon="9.05581">
        <ele>540</ele>
        <time>2021-08-02T07:57:23.316Z</time>
      </trkpt>
      <trkpt lat="47.04282" lon="9.0558">
        <ele>539</ele>
        <time>2021-08-02T07:57:24.316Z</time>
      </trkpt>
      <trkpt lat="47.04288" lon="9.05579">
        <ele>537</ele>
        <time>2021-08-02T07:57:25.319Z</time>
      </trkpt>
      <trkpt lat="47.04288" lon="9.05578">
        <ele>537</ele>
        <time>2021-08-02T07:57:26.319Z</time>
      </trkpt>
      <trkpt lat="47.04289" lon="9.05578">
        <ele>537</ele>
        <time>2021-08-02T07:57:27.319Z</time>
      </trkpt>
      <trkpt lat="47.04293" lon="9.05576">
        <ele>538</ele>
        <time>2021-08-02T07:57:28.319Z</time>
      </trkpt>
      <trkpt lat="47.04294" lon="9.05575">
        <ele>538</ele>
        <time>2021-08-02T07:57:29.318Z</time>
      </trkpt>
      <trkpt lat="47.04295" lon="9.05574">
        <ele>538</ele>
        <time>2021-08-02T07:57:30.318Z</time>
      </trkpt>
      <trkpt lat="47.04296" lon="9.05574">
        <ele>538</ele>
        <time>2021-08-02T07:57:31.318Z</time>
      </trkpt>
      <trkpt lat="47.04296" lon="9.05572">
        <ele>537</ele>
        <time>2021-08-02T07:57:32.318Z</time>
      </trkpt>
      <trkpt lat="47.04296" lon="9.05572">
        <ele>537</ele>
        <time>2021-08-02T07:57:33.318Z</time>
      </trkpt>
      <trkpt lat="47.04297" lon="9.05571">
        <ele>537</ele>
        <time>2021-08-02T07:57:34.318Z</time>
      </trkpt>
      <trkpt lat="47.04298" lon="9.05572">
        <ele>537</ele>
        <time>2021-08-02T07:57:35.318Z</time>
      </trkpt>
      <trkpt lat="47.043" lon="9.05571">
        <ele>537</ele>
        <time>2021-08-02T07:57:36.318Z</time>
      </trkpt>
      <trkpt lat="47.04301" lon="9.0557">
        <ele>537</ele>
        <time>2021-08-02T07:57:37.319Z</time>
      </trkpt>
      <trkpt lat="47.04302" lon="9.05569">
        <ele>537</ele>
        <time>2021-08-02T07:57:38.319Z</time>
      </trkpt>
      <trkpt lat="47.04303" lon="9.05569">
        <ele>537</ele>
        <time>2021-08-02T07:57:39.319Z</time>
      </trkpt>
      <trkpt lat="47.04304" lon="9.05569">
        <ele>537</ele>
        <time>2021-08-02T07:57:40.318Z</time>
      </trkpt>
      <trkpt lat="47.04306" lon="9.05567">
        <ele>537</ele>
        <time>2021-08-02T07:57:41.318Z</time>
      </trkpt>
      <trkpt lat="47.04307" lon="9.05567">
        <ele>537</ele>
        <time>2021-08-02T07:57:42.318Z</time>
      </trkpt>
      <trkpt lat="47.04307" lon="9.05567">
        <ele>537</ele>
        <time>2021-08-02T07:57:43.318Z</time>
      </trkpt>
      <trkpt lat="47.04308" lon="9.05567">
        <ele>537</ele>
        <time>2021-08-02T07:57:44.318Z</time>
      </trkpt>
      <trkpt lat="47.04309" lon="9.05566">
        <ele>537</ele>
        <time>2021-08-02T07:57:45.318Z</time>
      </trkpt>
      <trkpt lat="47.04309" lon="9.05566">
        <ele>537</ele>
        <time>2021-08-02T07:57:46.319Z</time>
      </trkpt>
      <trkpt lat="47.0431" lon="9.05566">
        <ele>538</ele>
        <time>2021-08-02T07:57:47.318Z</time>
      </trkpt>
      <trkpt lat="47.04311" lon="9.05565">
        <ele>538</ele>
        <time>2021-08-02T07:57:48.318Z</time>
      </trkpt>
      <trkpt lat="47.04312" lon="9.05564">
        <ele>538</ele>
        <time>2021-08-02T07:57:49.319Z</time>
      </trkpt>
      <trkpt lat="47.04312" lon="9.05563">
        <ele>538</ele>
        <time>2021-08-02T07:57:50.318Z</time>
      </trkpt>
      <trkpt lat="47.04313" lon="9.05562">
        <ele>538</ele>
        <time>2021-08-02T07:57:51.318Z</time>
      </trkpt>
      <trkpt lat="47.04315" lon="9.05561">
        <ele>538</ele>
        <time>2021-08-02T07:57:52.319Z</time>
      </trkpt>
      <trkpt lat="47.04316" lon="9.0556">
        <ele>538</ele>
        <time>2021-08-02T07:57:53.319Z</time>
      </trkpt>
      <trkpt lat="47.04317" lon="9.05559">
        <ele>538</ele>
        <time>2021-08-02T07:57:54.318Z</time>
      </trkpt>
      <trkpt lat="47.04318" lon="9.05557">
        <ele>538</ele>
        <time>2021-08-02T07:57:55.318Z</time>
      </trkpt>
      <trkpt lat="47.0432" lon="9.05557">
        <ele>538</ele>
        <time>2021-08-02T07:57:56.319Z</time>
      </trkpt>
      <trkpt lat="47.04322" lon="9.05557">
        <ele>539</ele>
        <time>2021-08-02T07:57:57.318Z</time>
      </trkpt>
      <trkpt lat="47.04323" lon="9.05556">
        <ele>539</ele>
        <time>2021-08-02T07:57:58.318Z</time>
      </trkpt>
      <trkpt lat="47.04324" lon="9.05555">
        <ele>539</ele>
        <time>2021-08-02T07:57:59.319Z</time>
      </trkpt>
      <trkpt lat="47.04324" lon="9.05554">
        <ele>540</ele>
        <time>2021-08-02T07:58:00.319Z</time>
      </trkpt>
      <trkpt lat="47.04324" lon="9.05553">
        <ele>540</ele>
        <time>2021-08-02T07:58:01.318Z</time>
      </trkpt>
      <trkpt lat="47.04324" lon="9.05552">
        <ele>540</ele>
        <time>2021-08-02T07:58:02.318Z</time>
      </trkpt>
      <trkpt lat="47.04324" lon="9.05552">
        <ele>541</ele>
        <time>2021-08-02T07:58:03.318Z</time>
      </trkpt>
      <trkpt lat="47.04324" lon="9.05551">
        <ele>541</ele>
        <time>2021-08-02T07:58:04.318Z</time>
      </trkpt>
      <trkpt lat="47.04325" lon="9.0555">
        <ele>541</ele>
        <time>2021-08-02T07:58:05.318Z</time>
      </trkpt>
      <trkpt lat="47.04326" lon="9.0555">
        <ele>542</ele>
        <time>2021-08-02T07:58:06.318Z</time>
      </trkpt>
      <trkpt lat="47.04326" lon="9.0555">
        <ele>542</ele>
        <time>2021-08-02T07:58:07.318Z</time>
      </trkpt>
      <trkpt lat="47.04327" lon="9.05549">
        <ele>542</ele>
        <time>2021-08-02T07:58:08.319Z</time>
      </trkpt>
      <trkpt lat="47.04329" lon="9.0555">
        <ele>543</ele>
        <time>2021-08-02T07:58:09.319Z</time>
      </trkpt>
      <trkpt lat="47.0433" lon="9.0555">
        <ele>543</ele>
        <time>2021-08-02T07:58:10.318Z</time>
      </trkpt>
      <trkpt lat="47.04332" lon="9.05551">
        <ele>544</ele>
        <time>2021-08-02T07:58:11.318Z</time>
      </trkpt>
      <trkpt lat="47.04333" lon="9.05552">
        <ele>544</ele>
        <time>2021-08-02T07:58:12.319Z</time>
      </trkpt>
      <trkpt lat="47.04334" lon="9.05552">
        <ele>545</ele>
        <time>2021-08-02T07:58:13.319Z</time>
      </trkpt>
      <trkpt lat="47.04335" lon="9.05553">
        <ele>545</ele>
        <time>2021-08-02T07:58:14.318Z</time>
      </trkpt>
      <trkpt lat="47.04336" lon="9.05554">
        <ele>545</ele>
        <time>2021-08-02T07:58:15.318Z</time>
      </trkpt>
      <trkpt lat="47.04336" lon="9.05554">
        <ele>545</ele>
        <time>2021-08-02T07:58:16.318Z</time>
      </trkpt>
      <trkpt lat="47.04336" lon="9.05554">
        <ele>545</ele>
        <time>2021-08-02T07:58:17.318Z</time>
      </trkpt>
      <trkpt lat="47.04339" lon="9.05553">
        <ele>545</ele>
        <time>2021-08-02T07:58:18.319Z</time>
      </trkpt>
      <trkpt lat="47.04341" lon="9.05553">
        <ele>545</ele>
        <time>2021-08-02T07:58:19.319Z</time>
      </trkpt>
      <trkpt lat="47.04342" lon="9.05555">
        <ele>545</ele>
        <time>2021-08-02T07:58:20.320Z</time>
      </trkpt>
      <trkpt lat="47.04344" lon="9.05557">
        <ele>544</ele>
        <time>2021-08-02T07:58:21.319Z</time>
      </trkpt>
      <trkpt lat="47.04345" lon="9.05559">
        <ele>544</ele>
        <time>2021-08-02T07:58:22.319Z</time>
      </trkpt>
      <trkpt lat="47.04346" lon="9.05559">
        <ele>543</ele>
        <time>2021-08-02T07:58:23.319Z</time>
      </trkpt>
      <trkpt lat="47.04347" lon="9.0556">
        <ele>542</ele>
        <time>2021-08-02T07:58:24.319Z</time>
      </trkpt>
      <trkpt lat="47.04349" lon="9.05561">
        <ele>542</ele>
        <time>2021-08-02T07:58:25.319Z</time>
      </trkpt>
      <trkpt lat="47.0435" lon="9.05561">
        <ele>542</ele>
        <time>2021-08-02T07:58:26.319Z</time>
      </trkpt>
      <trkpt lat="47.04351" lon="9.05562">
        <ele>542</ele>
        <time>2021-08-02T07:58:27.319Z</time>
      </trkpt>
      <trkpt lat="47.04352" lon="9.05562">
        <ele>541</ele>
        <time>2021-08-02T07:58:28.319Z</time>
      </trkpt>
      <trkpt lat="47.04353" lon="9.05563">
        <ele>541</ele>
        <time>2021-08-02T07:58:29.319Z</time>
      </trkpt>
      <trkpt lat="47.04354" lon="9.05564">
        <ele>540</ele>
        <time>2021-08-02T07:58:30.319Z</time>
      </trkpt>
      <trkpt lat="47.04355" lon="9.05565">
        <ele>540</ele>
        <time>2021-08-02T07:58:31.319Z</time>
      </trkpt>
      <trkpt lat="47.04357" lon="9.05566">
        <ele>539</ele>
        <time>2021-08-02T07:58:32.319Z</time>
      </trkpt>
      <trkpt lat="47.04357" lon="9.05568">
        <ele>539</ele>
        <time>2021-08-02T07:58:33.319Z</time>
      </trkpt>
      <trkpt lat="47.04358" lon="9.05569">
        <ele>538</ele>
        <time>2021-08-02T07:58:34.319Z</time>
      </trkpt>
      <trkpt lat="47.04359" lon="9.05569">
        <ele>538</ele>
        <time>2021-08-02T07:58:35.320Z</time>
      </trkpt>
      <trkpt lat="47.0436" lon="9.05569">
        <ele>537</ele>
        <time>2021-08-02T07:58:36.320Z</time>
      </trkpt>
      <trkpt lat="47.04362" lon="9.05569">
        <ele>536</ele>
        <time>2021-08-02T07:58:37.320Z</time>
      </trkpt>
      <trkpt lat="47.04362" lon="9.05568">
        <ele>535</ele>
        <time>2021-08-02T07:58:38.320Z</time>
      </trkpt>
      <trkpt lat="47.04362" lon="9.05567">
        <ele>534</ele>
        <time>2021-08-02T07:58:39.319Z</time>
      </trkpt>
      <trkpt lat="47.04363" lon="9.05567">
        <ele>533</ele>
        <time>2021-08-02T07:58:40.320Z</time>
      </trkpt>
      <trkpt lat="47.04364" lon="9.05568">
        <ele>532</ele>
        <time>2021-08-02T07:58:41.319Z</time>
      </trkpt>
      <trkpt lat="47.04364" lon="9.05567">
        <ele>531</ele>
        <time>2021-08-02T07:58:42.319Z</time>
      </trkpt>
      <trkpt lat="47.04364" lon="9.05566">
        <ele>530</ele>
        <time>2021-08-02T07:58:43.319Z</time>
      </trkpt>
      <trkpt lat="47.04365" lon="9.05566">
        <ele>529</ele>
        <time>2021-08-02T07:58:44.320Z</time>
      </trkpt>
      <trkpt lat="47.04365" lon="9.05566">
        <ele>529</ele>
        <time>2021-08-02T07:58:45.320Z</time>
      </trkpt>
      <trkpt lat="47.04366" lon="9.05566">
        <ele>528</ele>
        <time>2021-08-02T07:58:46.320Z</time>
      </trkpt>
      <trkpt lat="47.04367" lon="9.05567">
        <ele>528</ele>
        <time>2021-08-02T07:58:47.320Z</time>
      </trkpt>
      <trkpt lat="47.04368" lon="9.05568">
        <ele>527</ele>
        <time>2021-08-02T07:58:48.320Z</time>
      </trkpt>
      <trkpt lat="47.04369" lon="9.05569">
        <ele>526</ele>
        <time>2021-08-02T07:58:49.320Z</time>
      </trkpt>
      <trkpt lat="47.0437" lon="9.0557">
        <ele>526</ele>
        <time>2021-08-02T07:58:50.320Z</time>
      </trkpt>
      <trkpt lat="47.0437" lon="9.0557">
        <ele>526</ele>
        <time>2021-08-02T07:58:51.320Z</time>
      </trkpt>
      <trkpt lat="47.04372" lon="9.0557">
        <ele>525</ele>
        <time>2021-08-02T07:58:52.319Z</time>
      </trkpt>
      <trkpt lat="47.04374" lon="9.05569">
        <ele>525</ele>
        <time>2021-08-02T07:58:53.320Z</time>
      </trkpt>
      <trkpt lat="47.04376" lon="9.05569">
        <ele>524</ele>
        <time>2021-08-02T07:58:54.320Z</time>
      </trkpt>
      <trkpt lat="47.04378" lon="9.05569">
        <ele>524</ele>
        <time>2021-08-02T07:58:55.320Z</time>
      </trkpt>
      <trkpt lat="47.0438" lon="9.05568">
        <ele>524</ele>
        <time>2021-08-02T07:58:56.320Z</time>
      </trkpt>
      <trkpt lat="47.04381" lon="9.05567">
        <ele>525</ele>
        <time>2021-08-02T07:58:57.320Z</time>
      </trkpt>
      <trkpt lat="47.04382" lon="9.05566">
        <ele>525</ele>
        <time>2021-08-02T07:58:58.320Z</time>
      </trkpt>
      <trkpt lat="47.04382" lon="9.05565">
        <ele>526</ele>
        <time>2021-08-02T07:58:59.320Z</time>
      </trkpt>
      <trkpt lat="47.04383" lon="9.05564">
        <ele>527</ele>
        <time>2021-08-02T07:59:00.320Z</time>
      </trkpt>
      <trkpt lat="47.04384" lon="9.05564">
        <ele>528</ele>
        <time>2021-08-02T07:59:01.320Z</time>
      </trkpt>
      <trkpt lat="47.04385" lon="9.05563">
        <ele>528</ele>
        <time>2021-08-02T07:59:02.319Z</time>
      </trkpt>
      <trkpt lat="47.04386" lon="9.05562">
        <ele>529</ele>
        <time>2021-08-02T07:59:03.320Z</time>
      </trkpt>
      <trkpt lat="47.04387" lon="9.05561">
        <ele>530</ele>
        <time>2021-08-02T07:59:04.319Z</time>
      </trkpt>
      <trkpt lat="47.04388" lon="9.05559">
        <ele>530</ele>
        <time>2021-08-02T07:59:05.319Z</time>
      </trkpt>
      <trkpt lat="47.04389" lon="9.05558">
        <ele>531</ele>
        <time>2021-08-02T07:59:06.320Z</time>
      </trkpt>
      <trkpt lat="47.0439" lon="9.05557">
        <ele>532</ele>
        <time>2021-08-02T07:59:07.320Z</time>
      </trkpt>
      <trkpt lat="47.04391" lon="9.05556">
        <ele>532</ele>
        <time>2021-08-02T07:59:08.319Z</time>
      </trkpt>
      <trkpt lat="47.04391" lon="9.05555">
        <ele>533</ele>
        <time>2021-08-02T07:59:09.320Z</time>
      </trkpt>
      <trkpt lat="47.04392" lon="9.05554">
        <ele>533</ele>
        <time>2021-08-02T07:59:10.319Z</time>
      </trkpt>
      <trkpt lat="47.04393" lon="9.05553">
        <ele>533</ele>
        <time>2021-08-02T07:59:11.319Z</time>
      </trkpt>
      <trkpt lat="47.04395" lon="9.05552">
        <ele>533</ele>
        <time>2021-08-02T07:59:12.319Z</time>
      </trkpt>
      <trkpt lat="47.04395" lon="9.05551">
        <ele>534</ele>
        <time>2021-08-02T07:59:13.319Z</time>
      </trkpt>
      <trkpt lat="47.04396" lon="9.0555">
        <ele>534</ele>
        <time>2021-08-02T07:59:14.320Z</time>
      </trkpt>
      <trkpt lat="47.04397" lon="9.05548">
        <ele>534</ele>
        <time>2021-08-02T07:59:15.320Z</time>
      </trkpt>
      <trkpt lat="47.04399" lon="9.05547">
        <ele>534</ele>
        <time>2021-08-02T07:59:16.320Z</time>
      </trkpt>
      <trkpt lat="47.044" lon="9.05546">
        <ele>534</ele>
        <time>2021-08-02T07:59:17.319Z</time>
      </trkpt>
      <trkpt lat="47.044" lon="9.05545">
        <ele>534</ele>
        <time>2021-08-02T07:59:18.319Z</time>
      </trkpt>
      <trkpt lat="47.04401" lon="9.05544">
        <ele>535</ele>
        <time>2021-08-02T07:59:19.320Z</time>
      </trkpt>
      <trkpt lat="47.04401" lon="9.05542">
        <ele>536</ele>
        <time>2021-08-02T07:59:20.320Z</time>
      </trkpt>
      <trkpt lat="47.04402" lon="9.05541">
        <ele>536</ele>
        <time>2021-08-02T07:59:21.320Z</time>
      </trkpt>
      <trkpt lat="47.04402" lon="9.0554">
        <ele>537</ele>
        <time>2021-08-02T07:59:22.320Z</time>
      </trkpt>
      <trkpt lat="47.04402" lon="9.05538">
        <ele>537</ele>
        <time>2021-08-02T07:59:23.320Z</time>
      </trkpt>
      <trkpt lat="47.04402" lon="9.05537">
        <ele>537</ele>
        <time>2021-08-02T07:59:24.320Z</time>
      </trkpt>
      <trkpt lat="47.04402" lon="9.05536">
        <ele>537</ele>
        <time>2021-08-02T07:59:25.320Z</time>
      </trkpt>
      <trkpt lat="47.04402" lon="9.05536">
        <ele>533</ele>
        <time>2021-08-02T07:59:26.319Z</time>
      </trkpt>
      <trkpt lat="47.04403" lon="9.05537">
        <ele>533</ele>
        <time>2021-08-02T07:59:27.320Z</time>
      </trkpt>
      <trkpt lat="47.04404" lon="9.05536">
        <ele>533</ele>
        <time>2021-08-02T07:59:28.319Z</time>
      </trkpt>
      <trkpt lat="47.04405" lon="9.05535">
        <ele>533</ele>
        <time>2021-08-02T07:59:29.319Z</time>
      </trkpt>
      <trkpt lat="47.04405" lon="9.05534">
        <ele>533</ele>
        <time>2021-08-02T07:59:30.319Z</time>
      </trkpt>
      <trkpt lat="47.04406" lon="9.05534">
        <ele>533</ele>
        <time>2021-08-02T07:59:31.320Z</time>
      </trkpt>
      <trkpt lat="47.04406" lon="9.05532">
        <ele>533</ele>
        <time>2021-08-02T07:59:32.320Z</time>
      </trkpt>
      <trkpt lat="47.04407" lon="9.05531">
        <ele>533</ele>
        <time>2021-08-02T07:59:33.320Z</time>
      </trkpt>
      <trkpt lat="47.04407" lon="9.0553">
        <ele>533</ele>
        <time>2021-08-02T07:59:34.320Z</time>
      </trkpt>
      <trkpt lat="47.04407" lon="9.05529">
        <ele>533</ele>
        <time>2021-08-02T07:59:35.320Z</time>
      </trkpt>
      <trkpt lat="47.04406" lon="9.05528">
        <ele>533</ele>
        <time>2021-08-02T07:59:36.320Z</time>
      </trkpt>
      <trkpt lat="47.04406" lon="9.05527">
        <ele>534</ele>
        <time>2021-08-02T07:59:37.319Z</time>
      </trkpt>
      <trkpt lat="47.04406" lon="9.05525">
        <ele>535</ele>
        <time>2021-08-02T07:59:38.320Z</time>
      </trkpt>
      <trkpt lat="47.04405" lon="9.05524">
        <ele>535</ele>
        <time>2021-08-02T07:59:39.319Z</time>
      </trkpt>
      <trkpt lat="47.04405" lon="9.05522">
        <ele>536</ele>
        <time>2021-08-02T07:59:40.319Z</time>
      </trkpt>
      <trkpt lat="47.04405" lon="9.05521">
        <ele>536</ele>
        <time>2021-08-02T07:59:41.319Z</time>
      </trkpt>
      <trkpt lat="47.04404" lon="9.0552">
        <ele>537</ele>
        <time>2021-08-02T07:59:42.319Z</time>
      </trkpt>
      <trkpt lat="47.04404" lon="9.05519">
        <ele>537</ele>
        <time>2021-08-02T07:59:43.320Z</time>
      </trkpt>
      <trkpt lat="47.04405" lon="9.05517">
        <ele>537</ele>
        <time>2021-08-02T07:59:44.320Z</time>
      </trkpt>
      <trkpt lat="47.04405" lon="9.05516">
        <ele>537</ele>
        <time>2021-08-02T07:59:45.319Z</time>
      </trkpt>
      <trkpt lat="47.04404" lon="9.05514">
        <ele>538</ele>
        <time>2021-08-02T07:59:46.320Z</time>
      </trkpt>
      <trkpt lat="47.04404" lon="9.05512">
        <ele>538</ele>
        <time>2021-08-02T07:59:47.319Z</time>
      </trkpt>
      <trkpt lat="47.04405" lon="9.05511">
        <ele>538</ele>
        <time>2021-08-02T07:59:48.320Z</time>
      </trkpt>
      <trkpt lat="47.04405" lon="9.0551">
        <ele>538</ele>
        <time>2021-08-02T07:59:49.319Z</time>
      </trkpt>
      <trkpt lat="47.04405" lon="9.05508">
        <ele>538</ele>
        <time>2021-08-02T07:59:50.320Z</time>
      </trkpt>
      <trkpt lat="47.04405" lon="9.05507">
        <ele>538</ele>
        <time>2021-08-02T07:59:51.320Z</time>
      </trkpt>
      <trkpt lat="47.04405" lon="9.05506">
        <ele>538</ele>
        <time>2021-08-02T07:59:52.320Z</time>
      </trkpt>
      <trkpt lat="47.04405" lon="9.05505">
        <ele>538</ele>
        <time>2021-08-02T07:59:53.319Z</time>
      </trkpt>
      <trkpt lat="47.04405" lon="9.05503">
        <ele>538</ele>
        <time>2021-08-02T07:59:54.319Z</time>
      </trkpt>
      <trkpt lat="47.04404" lon="9.05501">
        <ele>538</ele>
        <time>2021-08-02T07:59:55.320Z</time>
      </trkpt>
      <trkpt lat="47.04404" lon="9.05499">
        <ele>538</ele>
        <time>2021-08-02T07:59:56.320Z</time>
      </trkpt>
      <trkpt lat="47.04403" lon="9.05498">
        <ele>538</ele>
        <time>2021-08-02T07:59:57.320Z</time>
      </trkpt>
      <trkpt lat="47.04403" lon="9.05497">
        <ele>537</ele>
        <time>2021-08-02T07:59:58.319Z</time>
      </trkpt>
      <trkpt lat="47.04403" lon="9.05495">
        <ele>537</ele>
        <time>2021-08-02T07:59:59.320Z</time>
      </trkpt>
      <trkpt lat="47.04402" lon="9.05494">
        <ele>537</ele>
        <time>2021-08-02T08:00:00.320Z</time>
      </trkpt>
      <trkpt lat="47.04402" lon="9.05492">
        <ele>536</ele>
        <time>2021-08-02T08:00:01.320Z</time>
      </trkpt>
      <trkpt lat="47.04401" lon="9.05491">
        <ele>536</ele>
        <time>2021-08-02T08:00:02.320Z</time>
      </trkpt>
      <trkpt lat="47.04401" lon="9.05489">
        <ele>536</ele>
        <time>2021-08-02T08:00:03.320Z</time>
      </trkpt>
      <trkpt lat="47.044" lon="9.05488">
        <ele>535</ele>
        <time>2021-08-02T08:00:04.319Z</time>
      </trkpt>
      <trkpt lat="47.044" lon="9.05486">
        <ele>535</ele>
        <time>2021-08-02T08:00:05.320Z</time>
      </trkpt>
      <trkpt lat="47.044" lon="9.05485">
        <ele>535</ele>
        <time>2021-08-02T08:00:06.320Z</time>
      </trkpt>
      <trkpt lat="47.044" lon="9.05484">
        <ele>535</ele>
        <time>2021-08-02T08:00:07.319Z</time>
      </trkpt>
      <trkpt lat="47.044" lon="9.05483">
        <ele>535</ele>
        <time>2021-08-02T08:00:08.319Z</time>
      </trkpt>
      <trkpt lat="47.04399" lon="9.05482">
        <ele>535</ele>
        <time>2021-08-02T08:00:09.320Z</time>
      </trkpt>
      <trkpt lat="47.04399" lon="9.0548">
        <ele>535</ele>
        <time>2021-08-02T08:00:10.319Z</time>
      </trkpt>
      <trkpt lat="47.04398" lon="9.05479">
        <ele>535</ele>
        <time>2021-08-02T08:00:11.320Z</time>
      </trkpt>
      <trkpt lat="47.04398" lon="9.05477">
        <ele>535</ele>
        <time>2021-08-02T08:00:12.320Z</time>
      </trkpt>
      <trkpt lat="47.04398" lon="9.05475">
        <ele>535</ele>
        <time>2021-08-02T08:00:13.320Z</time>
      </trkpt>
      <trkpt lat="47.04398" lon="9.05473">
        <ele>535</ele>
        <time>2021-08-02T08:00:14.320Z</time>
      </trkpt>
      <trkpt lat="47.04398" lon="9.05472">
        <ele>535</ele>
        <time>2021-08-02T08:00:15.320Z</time>
      </trkpt>
      <trkpt lat="47.04398" lon="9.05471">
        <ele>535</ele>
        <time>2021-08-02T08:00:16.320Z</time>
      </trkpt>
      <trkpt lat="47.04398" lon="9.0547">
        <ele>535</ele>
        <time>2021-08-02T08:00:17.320Z</time>
      </trkpt>
      <trkpt lat="47.04398" lon="9.05469">
        <ele>536</ele>
        <time>2021-08-02T08:00:18.319Z</time>
      </trkpt>
      <trkpt lat="47.04398" lon="9.05468">
        <ele>536</ele>
        <time>2021-08-02T08:00:19.320Z</time>
      </trkpt>
      <trkpt lat="47.04398" lon="9.05467">
        <ele>536</ele>
        <time>2021-08-02T08:00:20.320Z</time>
      </trkpt>
      <trkpt lat="47.04398" lon="9.05466">
        <ele>536</ele>
        <time>2021-08-02T08:00:21.319Z</time>
      </trkpt>
      <trkpt lat="47.04397" lon="9.05465">
        <ele>537</ele>
        <time>2021-08-02T08:00:22.320Z</time>
      </trkpt>
      <trkpt lat="47.04397" lon="9.05464">
        <ele>537</ele>
        <time>2021-08-02T08:00:23.320Z</time>
      </trkpt>
      <trkpt lat="47.04398" lon="9.05463">
        <ele>537</ele>
        <time>2021-08-02T08:00:24.319Z</time>
      </trkpt>
      <trkpt lat="47.04398" lon="9.05462">
        <ele>538</ele>
        <time>2021-08-02T08:00:25.320Z</time>
      </trkpt>
      <trkpt lat="47.04398" lon="9.05461">
        <ele>538</ele>
        <time>2021-08-02T08:00:26.320Z</time>
      </trkpt>
      <trkpt lat="47.04398" lon="9.0546">
        <ele>538</ele>
        <time>2021-08-02T08:00:27.319Z</time>
      </trkpt>
      <trkpt lat="47.04398" lon="9.05458">
        <ele>538</ele>
        <time>2021-08-02T08:00:28.320Z</time>
      </trkpt>
      <trkpt lat="47.04398" lon="9.05456">
        <ele>538</ele>
        <time>2021-08-02T08:00:29.320Z</time>
      </trkpt>
      <trkpt lat="47.04398" lon="9.05454">
        <ele>539</ele>
        <time>2021-08-02T08:00:30.320Z</time>
      </trkpt>
      <trkpt lat="47.04397" lon="9.05452">
        <ele>539</ele>
        <time>2021-08-02T08:00:31.319Z</time>
      </trkpt>
      <trkpt lat="47.04396" lon="9.05449">
        <ele>540</ele>
        <time>2021-08-02T08:00:32.320Z</time>
      </trkpt>
      <trkpt lat="47.04396" lon="9.05447">
        <ele>540</ele>
        <time>2021-08-02T08:00:33.320Z</time>
      </trkpt>
      <trkpt lat="47.04395" lon="9.05446">
        <ele>540</ele>
        <time>2021-08-02T08:00:34.319Z</time>
      </trkpt>
      <trkpt lat="47.04395" lon="9.05444">
        <ele>541</ele>
        <time>2021-08-02T08:00:35.319Z</time>
      </trkpt>
      <trkpt lat="47.04395" lon="9.05443">
        <ele>541</ele>
        <time>2021-08-02T08:00:36.320Z</time>
      </trkpt>
      <trkpt lat="47.04394" lon="9.05442">
        <ele>541</ele>
        <time>2021-08-02T08:00:37.320Z</time>
      </trkpt>
      <trkpt lat="47.04394" lon="9.0544">
        <ele>541</ele>
        <time>2021-08-02T08:00:38.320Z</time>
      </trkpt>
      <trkpt lat="47.04393" lon="9.05438">
        <ele>542</ele>
        <time>2021-08-02T08:00:39.320Z</time>
      </trkpt>
      <trkpt lat="47.04393" lon="9.05436">
        <ele>543</ele>
        <time>2021-08-02T08:00:40.320Z</time>
      </trkpt>
      <trkpt lat="47.04393" lon="9.05435">
        <ele>543</ele>
        <time>2021-08-02T08:00:41.320Z</time>
      </trkpt>
      <trkpt lat="47.04392" lon="9.05434">
        <ele>543</ele>
        <time>2021-08-02T08:00:42.320Z</time>
      </trkpt>
      <trkpt lat="47.04392" lon="9.05432">
        <ele>544</ele>
        <time>2021-08-02T08:00:43.320Z</time>
      </trkpt>
      <trkpt lat="47.04391" lon="9.0543">
        <ele>544</ele>
        <time>2021-08-02T08:00:44.320Z</time>
      </trkpt>
      <trkpt lat="47.04391" lon="9.05429">
        <ele>544</ele>
        <time>2021-08-02T08:00:45.320Z</time>
      </trkpt>
      <trkpt lat="47.04392" lon="9.05428">
        <ele>545</ele>
        <time>2021-08-02T08:00:46.320Z</time>
      </trkpt>
      <trkpt lat="47.04393" lon="9.05427">
        <ele>545</ele>
        <time>2021-08-02T08:00:47.320Z</time>
      </trkpt>
      <trkpt lat="47.04393" lon="9.05426">
        <ele>545</ele>
        <time>2021-08-02T08:00:48.320Z</time>
      </trkpt>
      <trkpt lat="47.04393" lon="9.05424">
        <ele>545</ele>
        <time>2021-08-02T08:00:49.320Z</time>
      </trkpt>
      <trkpt lat="47.04392" lon="9.05422">
        <ele>545</ele>
        <time>2021-08-02T08:00:50.320Z</time>
      </trkpt>
      <trkpt lat="47.04391" lon="9.0542">
        <ele>545</ele>
        <time>2021-08-02T08:00:51.319Z</time>
      </trkpt>
      <trkpt lat="47.0439" lon="9.05418">
        <ele>546</ele>
        <time>2021-08-02T08:00:52.319Z</time>
      </trkpt>
      <trkpt lat="47.0439" lon="9.05417">
        <ele>546</ele>
        <time>2021-08-02T08:00:53.320Z</time>
      </trkpt>
      <trkpt lat="47.04389" lon="9.05415">
        <ele>546</ele>
        <time>2021-08-02T08:00:54.320Z</time>
      </trkpt>
      <trkpt lat="47.0439" lon="9.05414">
        <ele>547</ele>
        <time>2021-08-02T08:00:55.319Z</time>
      </trkpt>
      <trkpt lat="47.0439" lon="9.05413">
        <ele>547</ele>
        <time>2021-08-02T08:00:56.320Z</time>
      </trkpt>
      <trkpt lat="47.04391" lon="9.05413">
        <ele>547</ele>
        <time>2021-08-02T08:00:57.320Z</time>
      </trkpt>
      <trkpt lat="47.04392" lon="9.05412">
        <ele>547</ele>
        <time>2021-08-02T08:00:58.319Z</time>
      </trkpt>
      <trkpt lat="47.04392" lon="9.0541">
        <ele>548</ele>
        <time>2021-08-02T08:00:59.320Z</time>
      </trkpt>
      <trkpt lat="47.04392" lon="9.05409">
        <ele>548</ele>
        <time>2021-08-02T08:01:00.320Z</time>
      </trkpt>
      <trkpt lat="47.04393" lon="9.05408">
        <ele>548</ele>
        <time>2021-08-02T08:01:01.320Z</time>
      </trkpt>
      <trkpt lat="47.04393" lon="9.05407">
        <ele>549</ele>
        <time>2021-08-02T08:01:02.320Z</time>
      </trkpt>
      <trkpt lat="47.04394" lon="9.05407">
        <ele>549</ele>
        <time>2021-08-02T08:01:03.320Z</time>
      </trkpt>
      <trkpt lat="47.04394" lon="9.05406">
        <ele>550</ele>
        <time>2021-08-02T08:01:04.319Z</time>
      </trkpt>
      <trkpt lat="47.04394" lon="9.05405">
        <ele>550</ele>
        <time>2021-08-02T08:01:05.320Z</time>
      </trkpt>
      <trkpt lat="47.04395" lon="9.05404">
        <ele>550</ele>
        <time>2021-08-02T08:01:06.319Z</time>
      </trkpt>
      <trkpt lat="47.04396" lon="9.05403">
        <ele>551</ele>
        <time>2021-08-02T08:01:07.320Z</time>
      </trkpt>
      <trkpt lat="47.04396" lon="9.05402">
        <ele>551</ele>
        <time>2021-08-02T08:01:08.320Z</time>
      </trkpt>
      <trkpt lat="47.04397" lon="9.05402">
        <ele>551</ele>
        <time>2021-08-02T08:01:09.320Z</time>
      </trkpt>
      <trkpt lat="47.04397" lon="9.05401">
        <ele>551</ele>
        <time>2021-08-02T08:01:10.319Z</time>
      </trkpt>
      <trkpt lat="47.04397" lon="9.054">
        <ele>550</ele>
        <time>2021-08-02T08:01:11.320Z</time>
      </trkpt>
      <trkpt lat="47.04398" lon="9.05399">
        <ele>550</ele>
        <time>2021-08-02T08:01:12.320Z</time>
      </trkpt>
      <trkpt lat="47.04399" lon="9.05398">
        <ele>550</ele>
        <time>2021-08-02T08:01:13.319Z</time>
      </trkpt>
      <trkpt lat="47.044" lon="9.05397">
        <ele>550</ele>
        <time>2021-08-02T08:01:14.319Z</time>
      </trkpt>
      <trkpt lat="47.04401" lon="9.05396">
        <ele>550</ele>
        <time>2021-08-02T08:01:15.319Z</time>
      </trkpt>
      <trkpt lat="47.04402" lon="9.05396">
        <ele>550</ele>
        <time>2021-08-02T08:01:16.320Z</time>
      </trkpt>
      <trkpt lat="47.04402" lon="9.05396">
        <ele>550</ele>
        <time>2021-08-02T08:01:17.319Z</time>
      </trkpt>
      <trkpt lat="47.04402" lon="9.05394">
        <ele>550</ele>
        <time>2021-08-02T08:01:18.319Z</time>
      </trkpt>
      <trkpt lat="47.04402" lon="9.05393">
        <ele>549</ele>
        <time>2021-08-02T08:01:19.320Z</time>
      </trkpt>
      <trkpt lat="47.04402" lon="9.05392">
        <ele>549</ele>
        <time>2021-08-02T08:01:20.320Z</time>
      </trkpt>
      <trkpt lat="47.04403" lon="9.05391">
        <ele>548</ele>
        <time>2021-08-02T08:01:21.320Z</time>
      </trkpt>
      <trkpt lat="47.04403" lon="9.0539">
        <ele>548</ele>
        <time>2021-08-02T08:01:22.319Z</time>
      </trkpt>
      <trkpt lat="47.04403" lon="9.0539">
        <ele>548</ele>
        <time>2021-08-02T08:01:23.319Z</time>
      </trkpt>
      <trkpt lat="47.04403" lon="9.05388">
        <ele>548</ele>
        <time>2021-08-02T08:01:24.320Z</time>
      </trkpt>
      <trkpt lat="47.04404" lon="9.05387">
        <ele>548</ele>
        <time>2021-08-02T08:01:25.319Z</time>
      </trkpt>
      <trkpt lat="47.04405" lon="9.05386">
        <ele>548</ele>
        <time>2021-08-02T08:01:26.320Z</time>
      </trkpt>
      <trkpt lat="47.04405" lon="9.05385">
        <ele>548</ele>
        <time>2021-08-02T08:01:27.319Z</time>
      </trkpt>
      <trkpt lat="47.04405" lon="9.05383">
        <ele>548</ele>
        <time>2021-08-02T08:01:28.320Z</time>
      </trkpt>
      <trkpt lat="47.04405" lon="9.05381">
        <ele>548</ele>
        <time>2021-08-02T08:01:29.320Z</time>
      </trkpt>
      <trkpt lat="47.04405" lon="9.0538">
        <ele>548</ele>
        <time>2021-08-02T08:01:30.320Z</time>
      </trkpt>
      <trkpt lat="47.04406" lon="9.05378">
        <ele>548</ele>
        <time>2021-08-02T08:01:31.320Z</time>
      </trkpt>
      <trkpt lat="47.04407" lon="9.05378">
        <ele>548</ele>
        <time>2021-08-02T08:01:32.319Z</time>
      </trkpt>
      <trkpt lat="47.04407" lon="9.05377">
        <ele>548</ele>
        <time>2021-08-02T08:01:33.319Z</time>
      </trkpt>
      <trkpt lat="47.04408" lon="9.05376">
        <ele>548</ele>
        <time>2021-08-02T08:01:34.319Z</time>
      </trkpt>
      <trkpt lat="47.04409" lon="9.05375">
        <ele>548</ele>
        <time>2021-08-02T08:01:35.320Z</time>
      </trkpt>
      <trkpt lat="47.04409" lon="9.05374">
        <ele>548</ele>
        <time>2021-08-02T08:01:36.319Z</time>
      </trkpt>
      <trkpt lat="47.04409" lon="9.05373">
        <ele>548</ele>
        <time>2021-08-02T08:01:37.320Z</time>
      </trkpt>
      <trkpt lat="47.04409" lon="9.05371">
        <ele>548</ele>
        <time>2021-08-02T08:01:38.319Z</time>
      </trkpt>
      <trkpt lat="47.0441" lon="9.05371">
        <ele>548</ele>
        <time>2021-08-02T08:01:39.319Z</time>
      </trkpt>
      <trkpt lat="47.0441" lon="9.0537">
        <ele>548</ele>
        <time>2021-08-02T08:01:40.320Z</time>
      </trkpt>
      <trkpt lat="47.0441" lon="9.05369">
        <ele>548</ele>
        <time>2021-08-02T08:01:41.320Z</time>
      </trkpt>
      <trkpt lat="47.0441" lon="9.05368">
        <ele>548</ele>
        <time>2021-08-02T08:01:42.320Z</time>
      </trkpt>
      <trkpt lat="47.04411" lon="9.05367">
        <ele>548</ele>
        <time>2021-08-02T08:01:43.319Z</time>
      </trkpt>
      <trkpt lat="47.04411" lon="9.05366">
        <ele>548</ele>
        <time>2021-08-02T08:01:44.320Z</time>
      </trkpt>
      <trkpt lat="47.04411" lon="9.05365">
        <ele>547</ele>
        <time>2021-08-02T08:01:45.319Z</time>
      </trkpt>
      <trkpt lat="47.04411" lon="9.05364">
        <ele>547</ele>
        <time>2021-08-02T08:01:46.320Z</time>
      </trkpt>
      <trkpt lat="47.04411" lon="9.05363">
        <ele>547</ele>
        <time>2021-08-02T08:01:47.320Z</time>
      </trkpt>
      <trkpt lat="47.04411" lon="9.05362">
        <ele>547</ele>
        <time>2021-08-02T08:01:48.320Z</time>
      </trkpt>
      <trkpt lat="47.04411" lon="9.05361">
        <ele>547</ele>
        <time>2021-08-02T08:01:49.320Z</time>
      </trkpt>
      <trkpt lat="47.04411" lon="9.05361">
        <ele>546</ele>
        <time>2021-08-02T08:01:50.320Z</time>
      </trkpt>
      <trkpt lat="47.04411" lon="9.0536">
        <ele>546</ele>
        <time>2021-08-02T08:01:51.320Z</time>
      </trkpt>
      <trkpt lat="47.04411" lon="9.05359">
        <ele>546</ele>
        <time>2021-08-02T08:01:52.319Z</time>
      </trkpt>
      <trkpt lat="47.04411" lon="9.05357">
        <ele>546</ele>
        <time>2021-08-02T08:01:53.320Z</time>
      </trkpt>
      <trkpt lat="47.04409" lon="9.05354">
        <ele>545</ele>
        <time>2021-08-02T08:01:54.319Z</time>
      </trkpt>
      <trkpt lat="47.04409" lon="9.05355">
        <ele>545</ele>
        <time>2021-08-02T08:01:55.320Z</time>
      </trkpt>
      <trkpt lat="47.0441" lon="9.05357">
        <ele>545</ele>
        <time>2021-08-02T08:01:56.319Z</time>
      </trkpt>
      <trkpt lat="47.04407" lon="9.05355">
        <ele>548</ele>
        <time>2021-08-02T08:01:57.320Z</time>
      </trkpt>
      <trkpt lat="47.04407" lon="9.05355">
        <ele>549</ele>
        <time>2021-08-02T08:01:58.319Z</time>
      </trkpt>
      <trkpt lat="47.04407" lon="9.05356">
        <ele>550</ele>
        <time>2021-08-02T08:01:59.320Z</time>
      </trkpt>
      <trkpt lat="47.04408" lon="9.05357">
        <ele>551</ele>
        <time>2021-08-02T08:02:00.320Z</time>
      </trkpt>
      <trkpt lat="47.04408" lon="9.05357">
        <ele>551</ele>
        <time>2021-08-02T08:02:01.320Z</time>
      </trkpt>
      <trkpt lat="47.04408" lon="9.05357">
        <ele>552</ele>
        <time>2021-08-02T08:02:02.319Z</time>
      </trkpt>
      <trkpt lat="47.04408" lon="9.05356">
        <ele>552</ele>
        <time>2021-08-02T08:02:03.319Z</time>
      </trkpt>
      <trkpt lat="47.04408" lon="9.05355">
        <ele>553</ele>
        <time>2021-08-02T08:02:04.319Z</time>
      </trkpt>
      <trkpt lat="47.04408" lon="9.05355">
        <ele>553</ele>
        <time>2021-08-02T08:02:05.319Z</time>
      </trkpt>
      <trkpt lat="47.04408" lon="9.05352">
        <ele>554</ele>
        <time>2021-08-02T08:02:06.320Z</time>
      </trkpt>
      <trkpt lat="47.04408" lon="9.05352">
        <ele>555</ele>
        <time>2021-08-02T08:02:07.319Z</time>
      </trkpt>
      <trkpt lat="47.04408" lon="9.05351">
        <ele>555</ele>
        <time>2021-08-02T08:02:08.320Z</time>
      </trkpt>
      <trkpt lat="47.04407" lon="9.0535">
        <ele>555</ele>
        <time>2021-08-02T08:02:09.319Z</time>
      </trkpt>
      <trkpt lat="47.04407" lon="9.05349">
        <ele>555</ele>
        <time>2021-08-02T08:02:10.320Z</time>
      </trkpt>
      <trkpt lat="47.04407" lon="9.05347">
        <ele>555</ele>
        <time>2021-08-02T08:02:11.319Z</time>
      </trkpt>
      <trkpt lat="47.04408" lon="9.05347">
        <ele>555</ele>
        <time>2021-08-02T08:02:12.319Z</time>
      </trkpt>
      <trkpt lat="47.04408" lon="9.05346">
        <ele>555</ele>
        <time>2021-08-02T08:02:13.319Z</time>
      </trkpt>
      <trkpt lat="47.04409" lon="9.05345">
        <ele>555</ele>
        <time>2021-08-02T08:02:14.320Z</time>
      </trkpt>
      <trkpt lat="47.0441" lon="9.05344">
        <ele>554</ele>
        <time>2021-08-02T08:02:15.319Z</time>
      </trkpt>
      <trkpt lat="47.04411" lon="9.05342">
        <ele>553</ele>
        <time>2021-08-02T08:02:16.319Z</time>
      </trkpt>
      <trkpt lat="47.04412" lon="9.05342">
        <ele>553</ele>
        <time>2021-08-02T08:02:17.319Z</time>
      </trkpt>
      <trkpt lat="47.04413" lon="9.05341">
        <ele>552</ele>
        <time>2021-08-02T08:02:18.320Z</time>
      </trkpt>
      <trkpt lat="47.04415" lon="9.05341">
        <ele>551</ele>
        <time>2021-08-02T08:02:19.320Z</time>
      </trkpt>
      <trkpt lat="47.04415" lon="9.0534">
        <ele>550</ele>
        <time>2021-08-02T08:02:20.319Z</time>
      </trkpt>
      <trkpt lat="47.04416" lon="9.05338">
        <ele>550</ele>
        <time>2021-08-02T08:02:21.320Z</time>
      </trkpt>
      <trkpt lat="47.04416" lon="9.05337">
        <ele>550</ele>
        <time>2021-08-02T08:02:22.320Z</time>
      </trkpt>
      <trkpt lat="47.04416" lon="9.05336">
        <ele>550</ele>
        <time>2021-08-02T08:02:23.320Z</time>
      </trkpt>
      <trkpt lat="47.04418" lon="9.05335">
        <ele>549</ele>
        <time>2021-08-02T08:02:24.320Z</time>
      </trkpt>
      <trkpt lat="47.04419" lon="9.05335">
        <ele>549</ele>
        <time>2021-08-02T08:02:25.319Z</time>
      </trkpt>
      <trkpt lat="47.0442" lon="9.05334">
        <ele>548</ele>
        <time>2021-08-02T08:02:26.320Z</time>
      </trkpt>
      <trkpt lat="47.04421" lon="9.05334">
        <ele>548</ele>
        <time>2021-08-02T08:02:27.320Z</time>
      </trkpt>
      <trkpt lat="47.04422" lon="9.05333">
        <ele>547</ele>
        <time>2021-08-02T08:02:28.319Z</time>
      </trkpt>
      <trkpt lat="47.04422" lon="9.05332">
        <ele>547</ele>
        <time>2021-08-02T08:02:29.320Z</time>
      </trkpt>
      <trkpt lat="47.04423" lon="9.05332">
        <ele>546</ele>
        <time>2021-08-02T08:02:30.319Z</time>
      </trkpt>
      <trkpt lat="47.04424" lon="9.05331">
        <ele>546</ele>
        <time>2021-08-02T08:02:31.320Z</time>
      </trkpt>
      <trkpt lat="47.04425" lon="9.05331">
        <ele>545</ele>
        <time>2021-08-02T08:02:32.320Z</time>
      </trkpt>
      <trkpt lat="47.04426" lon="9.05331">
        <ele>545</ele>
        <time>2021-08-02T08:02:33.320Z</time>
      </trkpt>
      <trkpt lat="47.04427" lon="9.0533">
        <ele>545</ele>
        <time>2021-08-02T08:02:34.320Z</time>
      </trkpt>
      <trkpt lat="47.04428" lon="9.05331">
        <ele>545</ele>
        <time>2021-08-02T08:02:35.319Z</time>
      </trkpt>
      <trkpt lat="47.0443" lon="9.05331">
        <ele>545</ele>
        <time>2021-08-02T08:02:36.320Z</time>
      </trkpt>
      <trkpt lat="47.04431" lon="9.05331">
        <ele>544</ele>
        <time>2021-08-02T08:02:37.319Z</time>
      </trkpt>
      <trkpt lat="47.04433" lon="9.0533">
        <ele>544</ele>
        <time>2021-08-02T08:02:38.320Z</time>
      </trkpt>
      <trkpt lat="47.04433" lon="9.0533">
        <ele>543</ele>
        <time>2021-08-02T08:02:39.320Z</time>
      </trkpt>
      <trkpt lat="47.04434" lon="9.05329">
        <ele>542</ele>
        <time>2021-08-02T08:02:40.320Z</time>
      </trkpt>
      <trkpt lat="47.04434" lon="9.05328">
        <ele>542</ele>
        <time>2021-08-02T08:02:41.320Z</time>
      </trkpt>
      <trkpt lat="47.04435" lon="9.05328">
        <ele>541</ele>
        <time>2021-08-02T08:02:42.320Z</time>
      </trkpt>
      <trkpt lat="47.04438" lon="9.05331">
        <ele>540</ele>
        <time>2021-08-02T08:02:43.320Z</time>
      </trkpt>
      <trkpt lat="47.04439" lon="9.05328">
        <ele>539</ele>
        <time>2021-08-02T08:02:44.322Z</time>
      </trkpt>
      <trkpt lat="47.04439" lon="9.05328">
        <ele>539</ele>
        <time>2021-08-02T08:02:45.322Z</time>
      </trkpt>
      <trkpt lat="47.0444" lon="9.05326">
        <ele>540</ele>
        <time>2021-08-02T08:02:46.322Z</time>
      </trkpt>
      <trkpt lat="47.0444" lon="9.05326">
        <ele>541</ele>
        <time>2021-08-02T08:02:47.322Z</time>
      </trkpt>
      <trkpt lat="47.04442" lon="9.05325">
        <ele>542</ele>
        <time>2021-08-02T08:02:48.322Z</time>
      </trkpt>
      <trkpt lat="47.04443" lon="9.05323">
        <ele>543</ele>
        <time>2021-08-02T08:02:49.321Z</time>
      </trkpt>
      <trkpt lat="47.04443" lon="9.05322">
        <ele>544</ele>
        <time>2021-08-02T08:02:50.322Z</time>
      </trkpt>
      <trkpt lat="47.04444" lon="9.05321">
        <ele>545</ele>
        <time>2021-08-02T08:02:51.322Z</time>
      </trkpt>
      <trkpt lat="47.04445" lon="9.0532">
        <ele>546</ele>
        <time>2021-08-02T08:02:52.321Z</time>
      </trkpt>
      <trkpt lat="47.04445" lon="9.05319">
        <ele>547</ele>
        <time>2021-08-02T08:02:53.321Z</time>
      </trkpt>
      <trkpt lat="47.04446" lon="9.05318">
        <ele>547</ele>
        <time>2021-08-02T08:02:54.321Z</time>
      </trkpt>
      <trkpt lat="47.04447" lon="9.05318">
        <ele>548</ele>
        <time>2021-08-02T08:02:55.322Z</time>
      </trkpt>
      <trkpt lat="47.04447" lon="9.05317">
        <ele>548</ele>
        <time>2021-08-02T08:02:56.322Z</time>
      </trkpt>
      <trkpt lat="47.04448" lon="9.05316">
        <ele>548</ele>
        <time>2021-08-02T08:02:57.322Z</time>
      </trkpt>
      <trkpt lat="47.04448" lon="9.05315">
        <ele>548</ele>
        <time>2021-08-02T08:02:58.321Z</time>
      </trkpt>
      <trkpt lat="47.04449" lon="9.05315">
        <ele>548</ele>
        <time>2021-08-02T08:02:59.322Z</time>
      </trkpt>
      <trkpt lat="47.0445" lon="9.05314">
        <ele>548</ele>
        <time>2021-08-02T08:03:00.322Z</time>
      </trkpt>
      <trkpt lat="47.04451" lon="9.05314">
        <ele>548</ele>
        <time>2021-08-02T08:03:01.322Z</time>
      </trkpt>
      <trkpt lat="47.04452" lon="9.05313">
        <ele>548</ele>
        <time>2021-08-02T08:03:02.322Z</time>
      </trkpt>
      <trkpt lat="47.04453" lon="9.05313">
        <ele>548</ele>
        <time>2021-08-02T08:03:03.321Z</time>
      </trkpt>
      <trkpt lat="47.04454" lon="9.05314">
        <ele>547</ele>
        <time>2021-08-02T08:03:04.321Z</time>
      </trkpt>
      <trkpt lat="47.04454" lon="9.05314">
        <ele>547</ele>
        <time>2021-08-02T08:03:05.322Z</time>
      </trkpt>
      <trkpt lat="47.04456" lon="9.05315">
        <ele>546</ele>
        <time>2021-08-02T08:03:06.322Z</time>
      </trkpt>
      <trkpt lat="47.04457" lon="9.05316">
        <ele>546</ele>
        <time>2021-08-02T08:03:07.322Z</time>
      </trkpt>
      <trkpt lat="47.04458" lon="9.05316">
        <ele>546</ele>
        <time>2021-08-02T08:03:08.322Z</time>
      </trkpt>
      <trkpt lat="47.04459" lon="9.05316">
        <ele>546</ele>
        <time>2021-08-02T08:03:09.321Z</time>
      </trkpt>
      <trkpt lat="47.0446" lon="9.05316">
        <ele>546</ele>
        <time>2021-08-02T08:03:10.322Z</time>
      </trkpt>
      <trkpt lat="47.04461" lon="9.05316">
        <ele>545</ele>
        <time>2021-08-02T08:03:11.322Z</time>
      </trkpt>
      <trkpt lat="47.04462" lon="9.05316">
        <ele>545</ele>
        <time>2021-08-02T08:03:12.322Z</time>
      </trkpt>
      <trkpt lat="47.04463" lon="9.05315">
        <ele>544</ele>
        <time>2021-08-02T08:03:13.321Z</time>
      </trkpt>
      <trkpt lat="47.04465" lon="9.05315">
        <ele>544</ele>
        <time>2021-08-02T08:03:14.322Z</time>
      </trkpt>
      <trkpt lat="47.04465" lon="9.05314">
        <ele>544</ele>
        <time>2021-08-02T08:03:15.322Z</time>
      </trkpt>
      <trkpt lat="47.04466" lon="9.05313">
        <ele>545</ele>
        <time>2021-08-02T08:03:16.321Z</time>
      </trkpt>
      <trkpt lat="47.04468" lon="9.05313">
        <ele>544</ele>
        <time>2021-08-02T08:03:17.322Z</time>
      </trkpt>
      <trkpt lat="47.04469" lon="9.05313">
        <ele>544</ele>
        <time>2021-08-02T08:03:18.322Z</time>
      </trkpt>
      <trkpt lat="47.04471" lon="9.05312">
        <ele>544</ele>
        <time>2021-08-02T08:03:19.322Z</time>
      </trkpt>
      <trkpt lat="47.04472" lon="9.05312">
        <ele>544</ele>
        <time>2021-08-02T08:03:20.322Z</time>
      </trkpt>
      <trkpt lat="47.04472" lon="9.05311">
        <ele>543</ele>
        <time>2021-08-02T08:03:21.322Z</time>
      </trkpt>
      <trkpt lat="47.04474" lon="9.05311">
        <ele>543</ele>
        <time>2021-08-02T08:03:22.321Z</time>
      </trkpt>
      <trkpt lat="47.04475" lon="9.0531">
        <ele>543</ele>
        <time>2021-08-02T08:03:23.321Z</time>
      </trkpt>
      <trkpt lat="47.04476" lon="9.05309">
        <ele>543</ele>
        <time>2021-08-02T08:03:24.321Z</time>
      </trkpt>
      <trkpt lat="47.04476" lon="9.05308">
        <ele>543</ele>
        <time>2021-08-02T08:03:25.322Z</time>
      </trkpt>
      <trkpt lat="47.04477" lon="9.05307">
        <ele>543</ele>
        <time>2021-08-02T08:03:26.322Z</time>
      </trkpt>
      <trkpt lat="47.04478" lon="9.05306">
        <ele>543</ele>
        <time>2021-08-02T08:03:27.322Z</time>
      </trkpt>
      <trkpt lat="47.04478" lon="9.05304">
        <ele>543</ele>
        <time>2021-08-02T08:03:28.322Z</time>
      </trkpt>
      <trkpt lat="47.04479" lon="9.05302">
        <ele>544</ele>
        <time>2021-08-02T08:03:29.322Z</time>
      </trkpt>
      <trkpt lat="47.0448" lon="9.05301">
        <ele>545</ele>
        <time>2021-08-02T08:03:30.322Z</time>
      </trkpt>
      <trkpt lat="47.0448" lon="9.053">
        <ele>545</ele>
        <time>2021-08-02T08:03:31.322Z</time>
      </trkpt>
      <trkpt lat="47.04481" lon="9.05297">
        <ele>545</ele>
        <time>2021-08-02T08:03:32.321Z</time>
      </trkpt>
      <trkpt lat="47.04482" lon="9.05296">
        <ele>546</ele>
        <time>2021-08-02T08:03:33.322Z</time>
      </trkpt>
      <trkpt lat="47.04483" lon="9.05295">
        <ele>546</ele>
        <time>2021-08-02T08:03:34.321Z</time>
      </trkpt>
      <trkpt lat="47.04483" lon="9.05294">
        <ele>547</ele>
        <time>2021-08-02T08:03:35.322Z</time>
      </trkpt>
      <trkpt lat="47.04484" lon="9.05293">
        <ele>547</ele>
        <time>2021-08-02T08:03:36.322Z</time>
      </trkpt>
      <trkpt lat="47.04485" lon="9.05292">
        <ele>548</ele>
        <time>2021-08-02T08:03:37.321Z</time>
      </trkpt>
      <trkpt lat="47.04486" lon="9.05291">
        <ele>548</ele>
        <time>2021-08-02T08:03:38.322Z</time>
      </trkpt>
      <trkpt lat="47.04486" lon="9.0529">
        <ele>549</ele>
        <time>2021-08-02T08:03:39.322Z</time>
      </trkpt>
      <trkpt lat="47.04487" lon="9.05289">
        <ele>549</ele>
        <time>2021-08-02T08:03:40.322Z</time>
      </trkpt>
      <trkpt lat="47.04487" lon="9.05288">
        <ele>549</ele>
        <time>2021-08-02T08:03:41.322Z</time>
      </trkpt>
      <trkpt lat="47.04488" lon="9.05287">
        <ele>549</ele>
        <time>2021-08-02T08:03:42.321Z</time>
      </trkpt>
      <trkpt lat="47.04488" lon="9.05286">
        <ele>549</ele>
        <time>2021-08-02T08:03:43.321Z</time>
      </trkpt>
      <trkpt lat="47.04488" lon="9.05285">
        <ele>549</ele>
        <time>2021-08-02T08:03:44.322Z</time>
      </trkpt>
      <trkpt lat="47.04489" lon="9.05285">
        <ele>550</ele>
        <time>2021-08-02T08:03:45.322Z</time>
      </trkpt>
      <trkpt lat="47.04489" lon="9.05284">
        <ele>550</ele>
        <time>2021-08-02T08:03:46.321Z</time>
      </trkpt>
      <trkpt lat="47.0449" lon="9.05283">
        <ele>550</ele>
        <time>2021-08-02T08:03:47.321Z</time>
      </trkpt>
      <trkpt lat="47.0449" lon="9.05282">
        <ele>550</ele>
        <time>2021-08-02T08:03:48.321Z</time>
      </trkpt>
      <trkpt lat="47.04491" lon="9.05281">
        <ele>550</ele>
        <time>2021-08-02T08:03:49.322Z</time>
      </trkpt>
      <trkpt lat="47.04492" lon="9.0528">
        <ele>551</ele>
        <time>2021-08-02T08:03:50.321Z</time>
      </trkpt>
      <trkpt lat="47.04492" lon="9.0528">
        <ele>551</ele>
        <time>2021-08-02T08:03:51.322Z</time>
      </trkpt>
      <trkpt lat="47.04493" lon="9.05279">
        <ele>550</ele>
        <time>2021-08-02T08:03:52.321Z</time>
      </trkpt>
      <trkpt lat="47.04493" lon="9.05278">
        <ele>550</ele>
        <time>2021-08-02T08:03:53.321Z</time>
      </trkpt>
      <trkpt lat="47.04494" lon="9.05277">
        <ele>550</ele>
        <time>2021-08-02T08:03:54.321Z</time>
      </trkpt>
      <trkpt lat="47.04495" lon="9.05277">
        <ele>550</ele>
        <time>2021-08-02T08:03:55.321Z</time>
      </trkpt>
      <trkpt lat="47.04495" lon="9.05276">
        <ele>550</ele>
        <time>2021-08-02T08:03:56.321Z</time>
      </trkpt>
      <trkpt lat="47.04496" lon="9.05275">
        <ele>550</ele>
        <time>2021-08-02T08:03:57.321Z</time>
      </trkpt>
      <trkpt lat="47.04497" lon="9.05274">
        <ele>550</ele>
        <time>2021-08-02T08:03:58.321Z</time>
      </trkpt>
      <trkpt lat="47.04497" lon="9.05273">
        <ele>551</ele>
        <time>2021-08-02T08:03:59.321Z</time>
      </trkpt>
      <trkpt lat="47.04498" lon="9.05272">
        <ele>551</ele>
        <time>2021-08-02T08:04:00.321Z</time>
      </trkpt>
      <trkpt lat="47.04498" lon="9.05271">
        <ele>551</ele>
        <time>2021-08-02T08:04:01.322Z</time>
      </trkpt>
      <trkpt lat="47.04499" lon="9.0527">
        <ele>551</ele>
        <time>2021-08-02T08:04:02.321Z</time>
      </trkpt>
      <trkpt lat="47.04499" lon="9.0527">
        <ele>551</ele>
        <time>2021-08-02T08:04:03.321Z</time>
      </trkpt>
      <trkpt lat="47.045" lon="9.05269">
        <ele>552</ele>
        <time>2021-08-02T08:04:04.321Z</time>
      </trkpt>
      <trkpt lat="47.04501" lon="9.05266">
        <ele>552</ele>
        <time>2021-08-02T08:04:05.321Z</time>
      </trkpt>
      <trkpt lat="47.04503" lon="9.05265">
        <ele>552</ele>
        <time>2021-08-02T08:04:06.321Z</time>
      </trkpt>
      <trkpt lat="47.04504" lon="9.05265">
        <ele>552</ele>
        <time>2021-08-02T08:04:07.321Z</time>
      </trkpt>
      <trkpt lat="47.04505" lon="9.05264">
        <ele>552</ele>
        <time>2021-08-02T08:04:08.321Z</time>
      </trkpt>
      <trkpt lat="47.04505" lon="9.05264">
        <ele>552</ele>
        <time>2021-08-02T08:04:09.321Z</time>
      </trkpt>
      <trkpt lat="47.04505" lon="9.05263">
        <ele>552</ele>
        <time>2021-08-02T08:04:10.321Z</time>
      </trkpt>
      <trkpt lat="47.04506" lon="9.05263">
        <ele>552</ele>
        <time>2021-08-02T08:04:11.321Z</time>
      </trkpt>
      <trkpt lat="47.04506" lon="9.05263">
        <ele>552</ele>
        <time>2021-08-02T08:04:12.321Z</time>
      </trkpt>
      <trkpt lat="47.04507" lon="9.05263">
        <ele>551</ele>
        <time>2021-08-02T08:04:13.321Z</time>
      </trkpt>
      <trkpt lat="47.04507" lon="9.05263">
        <ele>551</ele>
        <time>2021-08-02T08:04:14.321Z</time>
      </trkpt>
      <trkpt lat="47.04508" lon="9.05263">
        <ele>551</ele>
        <time>2021-08-02T08:04:15.321Z</time>
      </trkpt>
      <trkpt lat="47.04508" lon="9.05263">
        <ele>551</ele>
        <time>2021-08-02T08:04:16.322Z</time>
      </trkpt>
      <trkpt lat="47.04508" lon="9.05263">
        <ele>551</ele>
        <time>2021-08-02T08:04:17.322Z</time>
      </trkpt>
      <trkpt lat="47.04508" lon="9.05263">
        <ele>551</ele>
        <time>2021-08-02T08:04:18.322Z</time>
      </trkpt>
      <trkpt lat="47.04506" lon="9.05263">
        <ele>553</ele>
        <time>2021-08-02T08:04:19.321Z</time>
      </trkpt>
      <trkpt lat="47.04506" lon="9.05263">
        <ele>555</ele>
        <time>2021-08-02T08:04:20.322Z</time>
      </trkpt>
      <trkpt lat="47.04506" lon="9.05263">
        <ele>556</ele>
        <time>2021-08-02T08:04:21.322Z</time>
      </trkpt>
      <trkpt lat="47.04505" lon="9.05262">
        <ele>559</ele>
        <time>2021-08-02T08:04:22.321Z</time>
      </trkpt>
      <trkpt lat="47.04505" lon="9.05262">
        <ele>559</ele>
        <time>2021-08-02T08:04:23.322Z</time>
      </trkpt>
      <trkpt lat="47.04505" lon="9.05261">
        <ele>559</ele>
        <time>2021-08-02T08:04:24.321Z</time>
      </trkpt>
      <trkpt lat="47.04505" lon="9.05262">
        <ele>559</ele>
        <time>2021-08-02T08:04:25.323Z</time>
      </trkpt>
      <trkpt lat="47.04505" lon="9.05262">
        <ele>559</ele>
        <time>2021-08-02T08:04:26.322Z</time>
      </trkpt>
      <trkpt lat="47.04505" lon="9.05262">
        <ele>559</ele>
        <time>2021-08-02T08:04:27.323Z</time>
      </trkpt>
      <trkpt lat="47.04505" lon="9.05262">
        <ele>559</ele>
        <time>2021-08-02T08:04:28.323Z</time>
      </trkpt>
      <trkpt lat="47.04505" lon="9.05262">
        <ele>559</ele>
        <time>2021-08-02T08:04:29.323Z</time>
      </trkpt>
      <trkpt lat="47.04505" lon="9.05262">
        <ele>559</ele>
        <time>2021-08-02T08:04:30.323Z</time>
      </trkpt>
      <trkpt lat="47.04504" lon="9.05262">
        <ele>559</ele>
        <time>2021-08-02T08:04:31.323Z</time>
      </trkpt>
      <trkpt lat="47.04504" lon="9.05262">
        <ele>558</ele>
        <time>2021-08-02T08:04:32.323Z</time>
      </trkpt>
      <trkpt lat="47.04504" lon="9.05262">
        <ele>558</ele>
        <time>2021-08-02T08:04:33.322Z</time>
      </trkpt>
      <trkpt lat="47.04505" lon="9.05263">
        <ele>554</ele>
        <time>2021-08-02T08:04:34.324Z</time>
      </trkpt>
      <trkpt lat="47.04506" lon="9.05263">
        <ele>553</ele>
        <time>2021-08-02T08:04:35.324Z</time>
      </trkpt>
      <trkpt lat="47.04506" lon="9.05263">
        <ele>553</ele>
        <time>2021-08-02T08:04:36.323Z</time>
      </trkpt>
      <trkpt lat="47.04506" lon="9.05263">
        <ele>553</ele>
        <time>2021-08-02T08:04:37.323Z</time>
      </trkpt>
      <trkpt lat="47.04509" lon="9.05263">
        <ele>552</ele>
        <time>2021-08-02T08:04:38.324Z</time>
      </trkpt>
      <trkpt lat="47.0451" lon="9.05262">
        <ele>552</ele>
        <time>2021-08-02T08:04:39.325Z</time>
      </trkpt>
      <trkpt lat="47.04511" lon="9.05262">
        <ele>552</ele>
        <time>2021-08-02T08:04:40.324Z</time>
      </trkpt>
      <trkpt lat="47.04511" lon="9.05262">
        <ele>551</ele>
        <time>2021-08-02T08:04:41.324Z</time>
      </trkpt>
      <trkpt lat="47.04512" lon="9.05261">
        <ele>551</ele>
        <time>2021-08-02T08:04:42.324Z</time>
      </trkpt>
      <trkpt lat="47.04513" lon="9.0526">
        <ele>550</ele>
        <time>2021-08-02T08:04:43.324Z</time>
      </trkpt>
      <trkpt lat="47.04513" lon="9.05259">
        <ele>550</ele>
        <time>2021-08-02T08:04:44.324Z</time>
      </trkpt>
      <trkpt lat="47.04513" lon="9.05259">
        <ele>550</ele>
        <time>2021-08-02T08:04:45.325Z</time>
      </trkpt>
      <trkpt lat="47.04513" lon="9.05258">
        <ele>549</ele>
        <time>2021-08-02T08:04:46.324Z</time>
      </trkpt>
      <trkpt lat="47.04514" lon="9.05258">
        <ele>549</ele>
        <time>2021-08-02T08:04:47.324Z</time>
      </trkpt>
      <trkpt lat="47.04514" lon="9.05255">
        <ele>548</ele>
        <time>2021-08-02T08:04:48.325Z</time>
      </trkpt>
      <trkpt lat="47.04514" lon="9.05255">
        <ele>548</ele>
        <time>2021-08-02T08:04:49.324Z</time>
      </trkpt>
      <trkpt lat="47.04514" lon="9.05251">
        <ele>547</ele>
        <time>2021-08-02T08:04:50.326Z</time>
      </trkpt>
      <trkpt lat="47.04514" lon="9.0525">
        <ele>547</ele>
        <time>2021-08-02T08:04:51.326Z</time>
      </trkpt>
      <trkpt lat="47.04514" lon="9.0525">
        <ele>547</ele>
        <time>2021-08-02T08:04:52.325Z</time>
      </trkpt>
      <trkpt lat="47.04515" lon="9.05249">
        <ele>546</ele>
        <time>2021-08-02T08:04:53.326Z</time>
      </trkpt>
      <trkpt lat="47.04516" lon="9.05249">
        <ele>546</ele>
        <time>2021-08-02T08:04:54.326Z</time>
      </trkpt>
      <trkpt lat="47.04517" lon="9.05248">
        <ele>545</ele>
        <time>2021-08-02T08:04:55.326Z</time>
      </trkpt>
      <trkpt lat="47.04518" lon="9.05247">
        <ele>545</ele>
        <time>2021-08-02T08:04:56.325Z</time>
      </trkpt>
      <trkpt lat="47.04519" lon="9.05246">
        <ele>545</ele>
        <time>2021-08-02T08:04:57.325Z</time>
      </trkpt>
      <trkpt lat="47.04519" lon="9.05245">
        <ele>545</ele>
        <time>2021-08-02T08:04:58.325Z</time>
      </trkpt>
      <trkpt lat="47.0452" lon="9.05244">
        <ele>544</ele>
        <time>2021-08-02T08:04:59.326Z</time>
      </trkpt>
      <trkpt lat="47.04522" lon="9.05242">
        <ele>544</ele>
        <time>2021-08-02T08:05:00.326Z</time>
      </trkpt>
      <trkpt lat="47.04524" lon="9.05241">
        <ele>544</ele>
        <time>2021-08-02T08:05:01.326Z</time>
      </trkpt>
      <trkpt lat="47.04525" lon="9.05241">
        <ele>544</ele>
        <time>2021-08-02T08:05:02.326Z</time>
      </trkpt>
      <trkpt lat="47.04526" lon="9.05241">
        <ele>544</ele>
        <time>2021-08-02T08:05:03.326Z</time>
      </trkpt>
      <trkpt lat="47.04527" lon="9.0524">
        <ele>544</ele>
        <time>2021-08-02T08:05:04.325Z</time>
      </trkpt>
      <trkpt lat="47.04528" lon="9.0524">
        <ele>543</ele>
        <time>2021-08-02T08:05:05.326Z</time>
      </trkpt>
      <trkpt lat="47.04529" lon="9.0524">
        <ele>543</ele>
        <time>2021-08-02T08:05:06.325Z</time>
      </trkpt>
      <trkpt lat="47.0453" lon="9.05239">
        <ele>542</ele>
        <time>2021-08-02T08:05:07.326Z</time>
      </trkpt>
      <trkpt lat="47.04532" lon="9.05239">
        <ele>541</ele>
        <time>2021-08-02T08:05:08.326Z</time>
      </trkpt>
      <trkpt lat="47.04534" lon="9.05238">
        <ele>541</ele>
        <time>2021-08-02T08:05:09.326Z</time>
      </trkpt>
      <trkpt lat="47.04535" lon="9.05237">
        <ele>540</ele>
        <time>2021-08-02T08:05:10.325Z</time>
      </trkpt>
      <trkpt lat="47.04536" lon="9.05237">
        <ele>540</ele>
        <time>2021-08-02T08:05:11.326Z</time>
      </trkpt>
      <trkpt lat="47.04538" lon="9.05238">
        <ele>539</ele>
        <time>2021-08-02T08:05:12.326Z</time>
      </trkpt>
      <trkpt lat="47.04539" lon="9.05238">
        <ele>539</ele>
        <time>2021-08-02T08:05:13.326Z</time>
      </trkpt>
      <trkpt lat="47.0454" lon="9.05239">
        <ele>539</ele>
        <time>2021-08-02T08:05:14.325Z</time>
      </trkpt>
      <trkpt lat="47.04542" lon="9.0524">
        <ele>538</ele>
        <time>2021-08-02T08:05:15.325Z</time>
      </trkpt>
      <trkpt lat="47.04543" lon="9.05239">
        <ele>538</ele>
        <time>2021-08-02T08:05:16.325Z</time>
      </trkpt>
      <trkpt lat="47.04544" lon="9.05239">
        <ele>537</ele>
        <time>2021-08-02T08:05:17.326Z</time>
      </trkpt>
      <trkpt lat="47.04545" lon="9.05239">
        <ele>536</ele>
        <time>2021-08-02T08:05:18.326Z</time>
      </trkpt>
      <trkpt lat="47.04546" lon="9.05239">
        <ele>535</ele>
        <time>2021-08-02T08:05:19.325Z</time>
      </trkpt>
      <trkpt lat="47.04547" lon="9.05239">
        <ele>535</ele>
        <time>2021-08-02T08:05:20.326Z</time>
      </trkpt>
      <trkpt lat="47.04548" lon="9.05239">
        <ele>534</ele>
        <time>2021-08-02T08:05:21.326Z</time>
      </trkpt>
      <trkpt lat="47.04549" lon="9.0524">
        <ele>533</ele>
        <time>2021-08-02T08:05:22.326Z</time>
      </trkpt>
      <trkpt lat="47.0455" lon="9.05239">
        <ele>533</ele>
        <time>2021-08-02T08:05:23.326Z</time>
      </trkpt>
      <trkpt lat="47.04552" lon="9.05239">
        <ele>532</ele>
        <time>2021-08-02T08:05:24.326Z</time>
      </trkpt>
      <trkpt lat="47.04553" lon="9.05239">
        <ele>532</ele>
        <time>2021-08-02T08:05:25.325Z</time>
      </trkpt>
      <trkpt lat="47.04554" lon="9.0524">
        <ele>531</ele>
        <time>2021-08-02T08:05:26.326Z</time>
      </trkpt>
      <trkpt lat="47.04556" lon="9.0524">
        <ele>530</ele>
        <time>2021-08-02T08:05:27.325Z</time>
      </trkpt>
      <trkpt lat="47.04557" lon="9.05241">
        <ele>530</ele>
        <time>2021-08-02T08:05:28.326Z</time>
      </trkpt>
      <trkpt lat="47.04558" lon="9.0524">
        <ele>529</ele>
        <time>2021-08-02T08:05:29.326Z</time>
      </trkpt>
      <trkpt lat="47.04559" lon="9.0524">
        <ele>528</ele>
        <time>2021-08-02T08:05:30.326Z</time>
      </trkpt>
      <trkpt lat="47.04559" lon="9.0524">
        <ele>527</ele>
        <time>2021-08-02T08:05:31.325Z</time>
      </trkpt>
      <trkpt lat="47.0456" lon="9.05239">
        <ele>527</ele>
        <time>2021-08-02T08:05:32.326Z</time>
      </trkpt>
      <trkpt lat="47.04561" lon="9.05239">
        <ele>526</ele>
        <time>2021-08-02T08:05:33.326Z</time>
      </trkpt>
      <trkpt lat="47.04562" lon="9.05239">
        <ele>526</ele>
        <time>2021-08-02T08:05:34.326Z</time>
      </trkpt>
      <trkpt lat="47.04562" lon="9.05239">
        <ele>526</ele>
        <time>2021-08-02T08:05:35.325Z</time>
      </trkpt>
      <trkpt lat="47.04563" lon="9.0524">
        <ele>526</ele>
        <time>2021-08-02T08:05:36.326Z</time>
      </trkpt>
      <trkpt lat="47.04564" lon="9.0524">
        <ele>526</ele>
        <time>2021-08-02T08:05:37.326Z</time>
      </trkpt>
      <trkpt lat="47.04565" lon="9.0524">
        <ele>527</ele>
        <time>2021-08-02T08:05:38.326Z</time>
      </trkpt>
      <trkpt lat="47.04566" lon="9.0524">
        <ele>527</ele>
        <time>2021-08-02T08:05:39.326Z</time>
      </trkpt>
      <trkpt lat="47.04567" lon="9.0524">
        <ele>527</ele>
        <time>2021-08-02T08:05:40.326Z</time>
      </trkpt>
      <trkpt lat="47.04568" lon="9.0524">
        <ele>527</ele>
        <time>2021-08-02T08:05:41.326Z</time>
      </trkpt>
      <trkpt lat="47.04568" lon="9.05239">
        <ele>527</ele>
        <time>2021-08-02T08:05:42.326Z</time>
      </trkpt>
      <trkpt lat="47.04569" lon="9.05239">
        <ele>527</ele>
        <time>2021-08-02T08:05:43.326Z</time>
      </trkpt>
      <trkpt lat="47.0457" lon="9.05239">
        <ele>527</ele>
        <time>2021-08-02T08:05:44.325Z</time>
      </trkpt>
      <trkpt lat="47.04571" lon="9.05239">
        <ele>527</ele>
        <time>2021-08-02T08:05:45.326Z</time>
      </trkpt>
      <trkpt lat="47.04572" lon="9.05239">
        <ele>527</ele>
        <time>2021-08-02T08:05:46.326Z</time>
      </trkpt>
      <trkpt lat="47.04572" lon="9.05239">
        <ele>527</ele>
        <time>2021-08-02T08:05:47.325Z</time>
      </trkpt>
      <trkpt lat="47.04573" lon="9.05239">
        <ele>527</ele>
        <time>2021-08-02T08:05:48.325Z</time>
      </trkpt>
      <trkpt lat="47.04574" lon="9.05239">
        <ele>527</ele>
        <time>2021-08-02T08:05:49.325Z</time>
      </trkpt>
      <trkpt lat="47.04575" lon="9.05239">
        <ele>528</ele>
        <time>2021-08-02T08:05:50.326Z</time>
      </trkpt>
      <trkpt lat="47.04576" lon="9.05239">
        <ele>528</ele>
        <time>2021-08-02T08:05:51.326Z</time>
      </trkpt>
      <trkpt lat="47.04577" lon="9.05239">
        <ele>529</ele>
        <time>2021-08-02T08:05:52.325Z</time>
      </trkpt>
      <trkpt lat="47.04579" lon="9.05239">
        <ele>529</ele>
        <time>2021-08-02T08:05:53.325Z</time>
      </trkpt>
      <trkpt lat="47.0458" lon="9.05239">
        <ele>530</ele>
        <time>2021-08-02T08:05:54.326Z</time>
      </trkpt>
      <trkpt lat="47.04581" lon="9.05239">
        <ele>530</ele>
        <time>2021-08-02T08:05:55.326Z</time>
      </trkpt>
      <trkpt lat="47.04582" lon="9.05239">
        <ele>529</ele>
        <time>2021-08-02T08:05:56.326Z</time>
      </trkpt>
      <trkpt lat="47.04584" lon="9.05239">
        <ele>529</ele>
        <time>2021-08-02T08:05:57.326Z</time>
      </trkpt>
      <trkpt lat="47.04585" lon="9.05239">
        <ele>529</ele>
        <time>2021-08-02T08:05:58.326Z</time>
      </trkpt>
      <trkpt lat="47.04586" lon="9.05239">
        <ele>529</ele>
        <time>2021-08-02T08:05:59.326Z</time>
      </trkpt>
      <trkpt lat="47.04587" lon="9.05239">
        <ele>528</ele>
        <time>2021-08-02T08:06:00.326Z</time>
      </trkpt>
      <trkpt lat="47.04588" lon="9.05239">
        <ele>528</ele>
        <time>2021-08-02T08:06:01.326Z</time>
      </trkpt>
      <trkpt lat="47.04589" lon="9.05239">
        <ele>528</ele>
        <time>2021-08-02T08:06:02.326Z</time>
      </trkpt>
      <trkpt lat="47.0459" lon="9.05239">
        <ele>528</ele>
        <time>2021-08-02T08:06:03.326Z</time>
      </trkpt>
      <trkpt lat="47.04591" lon="9.05239">
        <ele>528</ele>
        <time>2021-08-02T08:06:04.325Z</time>
      </trkpt>
      <trkpt lat="47.04593" lon="9.05238">
        <ele>527</ele>
        <time>2021-08-02T08:06:05.326Z</time>
      </trkpt>
      <trkpt lat="47.04594" lon="9.05238">
        <ele>526</ele>
        <time>2021-08-02T08:06:06.325Z</time>
      </trkpt>
      <trkpt lat="47.04595" lon="9.05238">
        <ele>526</ele>
        <time>2021-08-02T08:06:07.326Z</time>
      </trkpt>
      <trkpt lat="47.04596" lon="9.05238">
        <ele>526</ele>
        <time>2021-08-02T08:06:08.326Z</time>
      </trkpt>
      <trkpt lat="47.04597" lon="9.05238">
        <ele>526</ele>
        <time>2021-08-02T08:06:09.326Z</time>
      </trkpt>
      <trkpt lat="47.04599" lon="9.05238">
        <ele>525</ele>
        <time>2021-08-02T08:06:10.326Z</time>
      </trkpt>
      <trkpt lat="47.046" lon="9.05238">
        <ele>526</ele>
        <time>2021-08-02T08:06:11.326Z</time>
      </trkpt>
      <trkpt lat="47.04601" lon="9.05238">
        <ele>527</ele>
        <time>2021-08-02T08:06:12.326Z</time>
      </trkpt>
      <trkpt lat="47.04602" lon="9.05238">
        <ele>527</ele>
        <time>2021-08-02T08:06:13.326Z</time>
      </trkpt>
      <trkpt lat="47.04603" lon="9.05239">
        <ele>528</ele>
        <time>2021-08-02T08:06:14.326Z</time>
      </trkpt>
      <trkpt lat="47.04604" lon="9.05239">
        <ele>529</ele>
        <time>2021-08-02T08:06:15.326Z</time>
      </trkpt>
      <trkpt lat="47.04605" lon="9.05239">
        <ele>529</ele>
        <time>2021-08-02T08:06:16.326Z</time>
      </trkpt>
      <trkpt lat="47.04606" lon="9.05239">
        <ele>530</ele>
        <time>2021-08-02T08:06:17.325Z</time>
      </trkpt>
      <trkpt lat="47.04607" lon="9.05239">
        <ele>531</ele>
        <time>2021-08-02T08:06:18.326Z</time>
      </trkpt>
      <trkpt lat="47.04608" lon="9.05238">
        <ele>531</ele>
        <time>2021-08-02T08:06:19.326Z</time>
      </trkpt>
      <trkpt lat="47.04609" lon="9.05238">
        <ele>531</ele>
        <time>2021-08-02T08:06:20.326Z</time>
      </trkpt>
      <trkpt lat="47.0461" lon="9.05238">
        <ele>531</ele>
        <time>2021-08-02T08:06:21.325Z</time>
      </trkpt>
      <trkpt lat="47.04611" lon="9.05239">
        <ele>532</ele>
        <time>2021-08-02T08:06:22.325Z</time>
      </trkpt>
      <trkpt lat="47.04613" lon="9.05239">
        <ele>532</ele>
        <time>2021-08-02T08:06:23.325Z</time>
      </trkpt>
      <trkpt lat="47.04614" lon="9.05239">
        <ele>532</ele>
        <time>2021-08-02T08:06:24.326Z</time>
      </trkpt>
      <trkpt lat="47.04615" lon="9.05239">
        <ele>532</ele>
        <time>2021-08-02T08:06:25.326Z</time>
      </trkpt>
      <trkpt lat="47.04616" lon="9.05239">
        <ele>532</ele>
        <time>2021-08-02T08:06:26.326Z</time>
      </trkpt>
      <trkpt lat="47.04617" lon="9.05238">
        <ele>531</ele>
        <time>2021-08-02T08:06:27.325Z</time>
      </trkpt>
      <trkpt lat="47.04619" lon="9.05238">
        <ele>531</ele>
        <time>2021-08-02T08:06:28.326Z</time>
      </trkpt>
      <trkpt lat="47.0462" lon="9.05237">
        <ele>531</ele>
        <time>2021-08-02T08:06:29.325Z</time>
      </trkpt>
      <trkpt lat="47.0462" lon="9.05236">
        <ele>531</ele>
        <time>2021-08-02T08:06:30.326Z</time>
      </trkpt>
      <trkpt lat="47.04621" lon="9.05235">
        <ele>530</ele>
        <time>2021-08-02T08:06:31.326Z</time>
      </trkpt>
      <trkpt lat="47.04621" lon="9.05233">
        <ele>530</ele>
        <time>2021-08-02T08:06:32.325Z</time>
      </trkpt>
      <trkpt lat="47.04622" lon="9.05232">
        <ele>530</ele>
        <time>2021-08-02T08:06:33.326Z</time>
      </trkpt>
      <trkpt lat="47.04622" lon="9.0523">
        <ele>529</ele>
        <time>2021-08-02T08:06:34.326Z</time>
      </trkpt>
      <trkpt lat="47.04623" lon="9.05228">
        <ele>529</ele>
        <time>2021-08-02T08:06:35.325Z</time>
      </trkpt>
      <trkpt lat="47.04623" lon="9.05227">
        <ele>530</ele>
        <time>2021-08-02T08:06:36.326Z</time>
      </trkpt>
      <trkpt lat="47.04624" lon="9.05225">
        <ele>530</ele>
        <time>2021-08-02T08:06:37.326Z</time>
      </trkpt>
      <trkpt lat="47.04625" lon="9.05223">
        <ele>530</ele>
        <time>2021-08-02T08:06:38.325Z</time>
      </trkpt>
      <trkpt lat="47.04625" lon="9.05222">
        <ele>531</ele>
        <time>2021-08-02T08:06:39.325Z</time>
      </trkpt>
      <trkpt lat="47.04626" lon="9.05221">
        <ele>531</ele>
        <time>2021-08-02T08:06:40.325Z</time>
      </trkpt>
      <trkpt lat="47.04627" lon="9.05219">
        <ele>531</ele>
        <time>2021-08-02T08:06:41.325Z</time>
      </trkpt>
      <trkpt lat="47.04627" lon="9.05218">
        <ele>531</ele>
        <time>2021-08-02T08:06:42.325Z</time>
      </trkpt>
      <trkpt lat="47.04628" lon="9.05217">
        <ele>532</ele>
        <time>2021-08-02T08:06:43.325Z</time>
      </trkpt>
      <trkpt lat="47.04628" lon="9.05215">
        <ele>532</ele>
        <time>2021-08-02T08:06:44.325Z</time>
      </trkpt>
      <trkpt lat="47.04629" lon="9.05213">
        <ele>532</ele>
        <time>2021-08-02T08:06:45.325Z</time>
      </trkpt>
      <trkpt lat="47.04632" lon="9.05212">
        <ele>532</ele>
        <time>2021-08-02T08:06:46.326Z</time>
      </trkpt>
      <trkpt lat="47.04632" lon="9.05211">
        <ele>532</ele>
        <time>2021-08-02T08:06:47.326Z</time>
      </trkpt>
      <trkpt lat="47.04633" lon="9.05209">
        <ele>532</ele>
        <time>2021-08-02T08:06:48.326Z</time>
      </trkpt>
      <trkpt lat="47.04633" lon="9.05207">
        <ele>532</ele>
        <time>2021-08-02T08:06:49.326Z</time>
      </trkpt>
      <trkpt lat="47.04634" lon="9.05206">
        <ele>532</ele>
        <time>2021-08-02T08:06:50.326Z</time>
      </trkpt>
      <trkpt lat="47.04634" lon="9.05204">
        <ele>532</ele>
        <time>2021-08-02T08:06:51.325Z</time>
      </trkpt>
      <trkpt lat="47.04635" lon="9.05203">
        <ele>533</ele>
        <time>2021-08-02T08:06:52.326Z</time>
      </trkpt>
      <trkpt lat="47.04635" lon="9.05202">
        <ele>533</ele>
        <time>2021-08-02T08:06:53.326Z</time>
      </trkpt>
      <trkpt lat="47.04636" lon="9.052">
        <ele>534</ele>
        <time>2021-08-02T08:06:54.326Z</time>
      </trkpt>
      <trkpt lat="47.04636" lon="9.05199">
        <ele>534</ele>
        <time>2021-08-02T08:06:55.326Z</time>
      </trkpt>
      <trkpt lat="47.04637" lon="9.05198">
        <ele>535</ele>
        <time>2021-08-02T08:06:56.326Z</time>
      </trkpt>
      <trkpt lat="47.04638" lon="9.05196">
        <ele>536</ele>
        <time>2021-08-02T08:06:57.325Z</time>
      </trkpt>
      <trkpt lat="47.04638" lon="9.05194">
        <ele>536</ele>
        <time>2021-08-02T08:06:58.326Z</time>
      </trkpt>
      <trkpt lat="47.04639" lon="9.05192">
        <ele>537</ele>
        <time>2021-08-02T08:06:59.325Z</time>
      </trkpt>
      <trkpt lat="47.04639" lon="9.05191">
        <ele>537</ele>
        <time>2021-08-02T08:07:00.326Z</time>
      </trkpt>
      <trkpt lat="47.04639" lon="9.0519">
        <ele>537</ele>
        <time>2021-08-02T08:07:01.326Z</time>
      </trkpt>
      <trkpt lat="47.0464" lon="9.05189">
        <ele>537</ele>
        <time>2021-08-02T08:07:02.326Z</time>
      </trkpt>
      <trkpt lat="47.0464" lon="9.05188">
        <ele>536</ele>
        <time>2021-08-02T08:07:03.325Z</time>
      </trkpt>
      <trkpt lat="47.04641" lon="9.05186">
        <ele>536</ele>
        <time>2021-08-02T08:07:04.325Z</time>
      </trkpt>
      <trkpt lat="47.04641" lon="9.05185">
        <ele>536</ele>
        <time>2021-08-02T08:07:05.326Z</time>
      </trkpt>
      <trkpt lat="47.04642" lon="9.05184">
        <ele>536</ele>
        <time>2021-08-02T08:07:06.326Z</time>
      </trkpt>
      <trkpt lat="47.04642" lon="9.05183">
        <ele>536</ele>
        <time>2021-08-02T08:07:07.326Z</time>
      </trkpt>
      <trkpt lat="47.04643" lon="9.05181">
        <ele>535</ele>
        <time>2021-08-02T08:07:08.325Z</time>
      </trkpt>
      <trkpt lat="47.04643" lon="9.0518">
        <ele>535</ele>
        <time>2021-08-02T08:07:09.326Z</time>
      </trkpt>
      <trkpt lat="47.04643" lon="9.05179">
        <ele>535</ele>
        <time>2021-08-02T08:07:10.325Z</time>
      </trkpt>
      <trkpt lat="47.04643" lon="9.05177">
        <ele>535</ele>
        <time>2021-08-02T08:07:11.325Z</time>
      </trkpt>
      <trkpt lat="47.04644" lon="9.05176">
        <ele>536</ele>
        <time>2021-08-02T08:07:12.325Z</time>
      </trkpt>
      <trkpt lat="47.04644" lon="9.05175">
        <ele>536</ele>
        <time>2021-08-02T08:07:13.326Z</time>
      </trkpt>
      <trkpt lat="47.04645" lon="9.05174">
        <ele>536</ele>
        <time>2021-08-02T08:07:14.325Z</time>
      </trkpt>
      <trkpt lat="47.04645" lon="9.05173">
        <ele>536</ele>
        <time>2021-08-02T08:07:15.325Z</time>
      </trkpt>
      <trkpt lat="47.04645" lon="9.05171">
        <ele>536</ele>
        <time>2021-08-02T08:07:16.326Z</time>
      </trkpt>
      <trkpt lat="47.04646" lon="9.0517">
        <ele>536</ele>
        <time>2021-08-02T08:07:17.325Z</time>
      </trkpt>
      <trkpt lat="47.04646" lon="9.05169">
        <ele>536</ele>
        <time>2021-08-02T08:07:18.326Z</time>
      </trkpt>
      <trkpt lat="47.04647" lon="9.05168">
        <ele>536</ele>
        <time>2021-08-02T08:07:19.325Z</time>
      </trkpt>
      <trkpt lat="47.04647" lon="9.05166">
        <ele>536</ele>
        <time>2021-08-02T08:07:20.326Z</time>
      </trkpt>
      <trkpt lat="47.04648" lon="9.05165">
        <ele>536</ele>
        <time>2021-08-02T08:07:21.326Z</time>
      </trkpt>
      <trkpt lat="47.04648" lon="9.05163">
        <ele>536</ele>
        <time>2021-08-02T08:07:22.325Z</time>
      </trkpt>
      <trkpt lat="47.04649" lon="9.05163">
        <ele>536</ele>
        <time>2021-08-02T08:07:23.326Z</time>
      </trkpt>
      <trkpt lat="47.04649" lon="9.05161">
        <ele>536</ele>
        <time>2021-08-02T08:07:24.325Z</time>
      </trkpt>
      <trkpt lat="47.0465" lon="9.0516">
        <ele>536</ele>
        <time>2021-08-02T08:07:25.326Z</time>
      </trkpt>
      <trkpt lat="47.0465" lon="9.05159">
        <ele>536</ele>
        <time>2021-08-02T08:07:26.325Z</time>
      </trkpt>
      <trkpt lat="47.0465" lon="9.05157">
        <ele>536</ele>
        <time>2021-08-02T08:07:27.326Z</time>
      </trkpt>
      <trkpt lat="47.0465" lon="9.05156">
        <ele>536</ele>
        <time>2021-08-02T08:07:28.325Z</time>
      </trkpt>
      <trkpt lat="47.04651" lon="9.05155">
        <ele>536</ele>
        <time>2021-08-02T08:07:29.326Z</time>
      </trkpt>
      <trkpt lat="47.04651" lon="9.05153">
        <ele>536</ele>
        <time>2021-08-02T08:07:30.325Z</time>
      </trkpt>
      <trkpt lat="47.04651" lon="9.05152">
        <ele>536</ele>
        <time>2021-08-02T08:07:31.325Z</time>
      </trkpt>
      <trkpt lat="47.04652" lon="9.05151">
        <ele>536</ele>
        <time>2021-08-02T08:07:32.326Z</time>
      </trkpt>
      <trkpt lat="47.04652" lon="9.05151">
        <ele>536</ele>
        <time>2021-08-02T08:07:33.326Z</time>
      </trkpt>
      <trkpt lat="47.04652" lon="9.0515">
        <ele>537</ele>
        <time>2021-08-02T08:07:34.326Z</time>
      </trkpt>
      <trkpt lat="47.04653" lon="9.05149">
        <ele>537</ele>
        <time>2021-08-02T08:07:35.325Z</time>
      </trkpt>
      <trkpt lat="47.04654" lon="9.05149">
        <ele>537</ele>
        <time>2021-08-02T08:07:36.325Z</time>
      </trkpt>
      <trkpt lat="47.04654" lon="9.05149">
        <ele>538</ele>
        <time>2021-08-02T08:07:37.326Z</time>
      </trkpt>
      <trkpt lat="47.04655" lon="9.05149">
        <ele>537</ele>
        <time>2021-08-02T08:07:38.326Z</time>
      </trkpt>
      <trkpt lat="47.04656" lon="9.05149">
        <ele>537</ele>
        <time>2021-08-02T08:07:39.325Z</time>
      </trkpt>
      <trkpt lat="47.04657" lon="9.05149">
        <ele>537</ele>
        <time>2021-08-02T08:07:40.326Z</time>
      </trkpt>
      <trkpt lat="47.04659" lon="9.05149">
        <ele>537</ele>
        <time>2021-08-02T08:07:41.325Z</time>
      </trkpt>
      <trkpt lat="47.0466" lon="9.05149">
        <ele>537</ele>
        <time>2021-08-02T08:07:42.326Z</time>
      </trkpt>
      <trkpt lat="47.04661" lon="9.05149">
        <ele>537</ele>
        <time>2021-08-02T08:07:43.325Z</time>
      </trkpt>
      <trkpt lat="47.04662" lon="9.05149">
        <ele>537</ele>
        <time>2021-08-02T08:07:44.326Z</time>
      </trkpt>
      <trkpt lat="47.04663" lon="9.0515">
        <ele>537</ele>
        <time>2021-08-02T08:07:45.325Z</time>
      </trkpt>
      <trkpt lat="47.04663" lon="9.05151">
        <ele>538</ele>
        <time>2021-08-02T08:07:46.326Z</time>
      </trkpt>
      <trkpt lat="47.04664" lon="9.05153">
        <ele>538</ele>
        <time>2021-08-02T08:07:47.326Z</time>
      </trkpt>
      <trkpt lat="47.04665" lon="9.05153">
        <ele>539</ele>
        <time>2021-08-02T08:07:48.326Z</time>
      </trkpt>
      <trkpt lat="47.04666" lon="9.05154">
        <ele>539</ele>
        <time>2021-08-02T08:07:49.326Z</time>
      </trkpt>
      <trkpt lat="47.04667" lon="9.05157">
        <ele>539</ele>
        <time>2021-08-02T08:07:50.326Z</time>
      </trkpt>
      <trkpt lat="47.04668" lon="9.05157">
        <ele>539</ele>
        <time>2021-08-02T08:07:51.325Z</time>
      </trkpt>
      <trkpt lat="47.04668" lon="9.05158">
        <ele>539</ele>
        <time>2021-08-02T08:07:52.326Z</time>
      </trkpt>
      <trkpt lat="47.04669" lon="9.05158">
        <ele>539</ele>
        <time>2021-08-02T08:07:53.325Z</time>
      </trkpt>
      <trkpt lat="47.04671" lon="9.05158">
        <ele>539</ele>
        <time>2021-08-02T08:07:54.326Z</time>
      </trkpt>
      <trkpt lat="47.04672" lon="9.05158">
        <ele>540</ele>
        <time>2021-08-02T08:07:55.326Z</time>
      </trkpt>
      <trkpt lat="47.04673" lon="9.05159">
        <ele>540</ele>
        <time>2021-08-02T08:07:56.326Z</time>
      </trkpt>
      <trkpt lat="47.04674" lon="9.0516">
        <ele>540</ele>
        <time>2021-08-02T08:07:57.326Z</time>
      </trkpt>
      <trkpt lat="47.04675" lon="9.05161">
        <ele>540</ele>
        <time>2021-08-02T08:07:58.326Z</time>
      </trkpt>
      <trkpt lat="47.04677" lon="9.05162">
        <ele>540</ele>
        <time>2021-08-02T08:07:59.325Z</time>
      </trkpt>
      <trkpt lat="47.04678" lon="9.05162">
        <ele>540</ele>
        <time>2021-08-02T08:08:00.325Z</time>
      </trkpt>
      <trkpt lat="47.04679" lon="9.05163">
        <ele>541</ele>
        <time>2021-08-02T08:08:01.325Z</time>
      </trkpt>
      <trkpt lat="47.04681" lon="9.05163">
        <ele>541</ele>
        <time>2021-08-02T08:08:02.326Z</time>
      </trkpt>
      <trkpt lat="47.04683" lon="9.05163">
        <ele>541</ele>
        <time>2021-08-02T08:08:03.325Z</time>
      </trkpt>
      <trkpt lat="47.04684" lon="9.05163">
        <ele>541</ele>
        <time>2021-08-02T08:08:04.326Z</time>
      </trkpt>
      <trkpt lat="47.04685" lon="9.05163">
        <ele>541</ele>
        <time>2021-08-02T08:08:05.325Z</time>
      </trkpt>
      <trkpt lat="47.04686" lon="9.05162">
        <ele>542</ele>
        <time>2021-08-02T08:08:06.325Z</time>
      </trkpt>
      <trkpt lat="47.04687" lon="9.05162">
        <ele>542</ele>
        <time>2021-08-02T08:08:07.325Z</time>
      </trkpt>
      <trkpt lat="47.04688" lon="9.05161">
        <ele>542</ele>
        <time>2021-08-02T08:08:08.325Z</time>
      </trkpt>
      <trkpt lat="47.04689" lon="9.05161">
        <ele>543</ele>
        <time>2021-08-02T08:08:09.325Z</time>
      </trkpt>
      <trkpt lat="47.0469" lon="9.05161">
        <ele>542</ele>
        <time>2021-08-02T08:08:10.326Z</time>
      </trkpt>
      <trkpt lat="47.04691" lon="9.05161">
        <ele>542</ele>
        <time>2021-08-02T08:08:11.325Z</time>
      </trkpt>
      <trkpt lat="47.04692" lon="9.05161">
        <ele>542</ele>
        <time>2021-08-02T08:08:12.325Z</time>
      </trkpt>
      <trkpt lat="47.04693" lon="9.05161">
        <ele>542</ele>
        <time>2021-08-02T08:08:13.326Z</time>
      </trkpt>
      <trkpt lat="47.04695" lon="9.05161">
        <ele>541</ele>
        <time>2021-08-02T08:08:14.326Z</time>
      </trkpt>
      <trkpt lat="47.04696" lon="9.05161">
        <ele>541</ele>
        <time>2021-08-02T08:08:15.326Z</time>
      </trkpt>
      <trkpt lat="47.04697" lon="9.05161">
        <ele>540</ele>
        <time>2021-08-02T08:08:16.326Z</time>
      </trkpt>
      <trkpt lat="47.04698" lon="9.05161">
        <ele>540</ele>
        <time>2021-08-02T08:08:17.326Z</time>
      </trkpt>
      <trkpt lat="47.04699" lon="9.05161">
        <ele>540</ele>
        <time>2021-08-02T08:08:18.326Z</time>
      </trkpt>
      <trkpt lat="47.047" lon="9.0516">
        <ele>540</ele>
        <time>2021-08-02T08:08:19.325Z</time>
      </trkpt>
      <trkpt lat="47.04701" lon="9.0516">
        <ele>540</ele>
        <time>2021-08-02T08:08:20.326Z</time>
      </trkpt>
      <trkpt lat="47.04702" lon="9.0516">
        <ele>540</ele>
        <time>2021-08-02T08:08:21.326Z</time>
      </trkpt>
      <trkpt lat="47.04703" lon="9.0516">
        <ele>540</ele>
        <time>2021-08-02T08:08:22.326Z</time>
      </trkpt>
      <trkpt lat="47.04704" lon="9.0516">
        <ele>539</ele>
        <time>2021-08-02T08:08:23.326Z</time>
      </trkpt>
      <trkpt lat="47.04705" lon="9.05161">
        <ele>539</ele>
        <time>2021-08-02T08:08:24.326Z</time>
      </trkpt>
      <trkpt lat="47.04706" lon="9.0516">
        <ele>538</ele>
        <time>2021-08-02T08:08:25.326Z</time>
      </trkpt>
      <trkpt lat="47.04707" lon="9.0516">
        <ele>538</ele>
        <time>2021-08-02T08:08:26.326Z</time>
      </trkpt>
      <trkpt lat="47.04709" lon="9.0516">
        <ele>538</ele>
        <time>2021-08-02T08:08:27.325Z</time>
      </trkpt>
      <trkpt lat="47.04709" lon="9.05159">
        <ele>537</ele>
        <time>2021-08-02T08:08:28.326Z</time>
      </trkpt>
      <trkpt lat="47.04711" lon="9.05159">
        <ele>537</ele>
        <time>2021-08-02T08:08:29.326Z</time>
      </trkpt>
      <trkpt lat="47.04712" lon="9.05159">
        <ele>537</ele>
        <time>2021-08-02T08:08:30.326Z</time>
      </trkpt>
      <trkpt lat="47.04713" lon="9.05159">
        <ele>537</ele>
        <time>2021-08-02T08:08:31.325Z</time>
      </trkpt>
      <trkpt lat="47.04714" lon="9.05159">
        <ele>537</ele>
        <time>2021-08-02T08:08:32.326Z</time>
      </trkpt>
      <trkpt lat="47.04715" lon="9.05158">
        <ele>537</ele>
        <time>2021-08-02T08:08:33.326Z</time>
      </trkpt>
      <trkpt lat="47.04716" lon="9.05158">
        <ele>537</ele>
        <time>2021-08-02T08:08:34.326Z</time>
      </trkpt>
      <trkpt lat="47.04717" lon="9.05158">
        <ele>537</ele>
        <time>2021-08-02T08:08:35.326Z</time>
      </trkpt>
      <trkpt lat="47.04718" lon="9.05158">
        <ele>537</ele>
        <time>2021-08-02T08:08:36.326Z</time>
      </trkpt>
      <trkpt lat="47.04719" lon="9.05159">
        <ele>537</ele>
        <time>2021-08-02T08:08:37.326Z</time>
      </trkpt>
      <trkpt lat="47.0472" lon="9.05159">
        <ele>536</ele>
        <time>2021-08-02T08:08:38.325Z</time>
      </trkpt>
      <trkpt lat="47.04721" lon="9.05159">
        <ele>536</ele>
        <time>2021-08-02T08:08:39.326Z</time>
      </trkpt>
      <trkpt lat="47.04722" lon="9.05159">
        <ele>536</ele>
        <time>2021-08-02T08:08:40.326Z</time>
      </trkpt>
      <trkpt lat="47.04723" lon="9.0516">
        <ele>535</ele>
        <time>2021-08-02T08:08:41.325Z</time>
      </trkpt>
      <trkpt lat="47.04724" lon="9.0516">
        <ele>535</ele>
        <time>2021-08-02T08:08:42.325Z</time>
      </trkpt>
      <trkpt lat="47.04726" lon="9.0516">
        <ele>535</ele>
        <time>2021-08-02T08:08:43.326Z</time>
      </trkpt>
      <trkpt lat="47.04727" lon="9.05159">
        <ele>535</ele>
        <time>2021-08-02T08:08:44.325Z</time>
      </trkpt>
      <trkpt lat="47.04727" lon="9.05159">
        <ele>535</ele>
        <time>2021-08-02T08:08:45.326Z</time>
      </trkpt>
      <trkpt lat="47.04728" lon="9.05158">
        <ele>535</ele>
        <time>2021-08-02T08:08:46.325Z</time>
      </trkpt>
      <trkpt lat="47.04729" lon="9.05158">
        <ele>535</ele>
        <time>2021-08-02T08:08:47.325Z</time>
      </trkpt>
      <trkpt lat="47.0473" lon="9.05158">
        <ele>535</ele>
        <time>2021-08-02T08:08:48.325Z</time>
      </trkpt>
      <trkpt lat="47.04731" lon="9.05158">
        <ele>535</ele>
        <time>2021-08-02T08:08:49.326Z</time>
      </trkpt>
      <trkpt lat="47.04732" lon="9.05158">
        <ele>535</ele>
        <time>2021-08-02T08:08:50.326Z</time>
      </trkpt>
      <trkpt lat="47.04733" lon="9.05158">
        <ele>534</ele>
        <time>2021-08-02T08:08:51.326Z</time>
      </trkpt>
      <trkpt lat="47.04734" lon="9.05158">
        <ele>534</ele>
        <time>2021-08-02T08:08:52.325Z</time>
      </trkpt>
      <trkpt lat="47.04736" lon="9.05158">
        <ele>533</ele>
        <time>2021-08-02T08:08:53.325Z</time>
      </trkpt>
      <trkpt lat="47.04737" lon="9.05159">
        <ele>533</ele>
        <time>2021-08-02T08:08:54.326Z</time>
      </trkpt>
      <trkpt lat="47.04738" lon="9.05159">
        <ele>533</ele>
        <time>2021-08-02T08:08:55.325Z</time>
      </trkpt>
      <trkpt lat="47.04739" lon="9.05159">
        <ele>533</ele>
        <time>2021-08-02T08:08:56.326Z</time>
      </trkpt>
      <trkpt lat="47.04739" lon="9.05159">
        <ele>534</ele>
        <time>2021-08-02T08:08:57.325Z</time>
      </trkpt>
      <trkpt lat="47.0474" lon="9.05158">
        <ele>534</ele>
        <time>2021-08-02T08:08:58.326Z</time>
      </trkpt>
      <trkpt lat="47.04741" lon="9.05157">
        <ele>534</ele>
        <time>2021-08-02T08:08:59.326Z</time>
      </trkpt>
      <trkpt lat="47.04742" lon="9.05157">
        <ele>535</ele>
        <time>2021-08-02T08:09:00.325Z</time>
      </trkpt>
      <trkpt lat="47.04742" lon="9.05156">
        <ele>535</ele>
        <time>2021-08-02T08:09:01.326Z</time>
      </trkpt>
      <trkpt lat="47.04743" lon="9.05155">
        <ele>535</ele>
        <time>2021-08-02T08:09:02.325Z</time>
      </trkpt>
      <trkpt lat="47.04743" lon="9.05154">
        <ele>535</ele>
        <time>2021-08-02T08:09:03.326Z</time>
      </trkpt>
      <trkpt lat="47.04744" lon="9.05153">
        <ele>535</ele>
        <time>2021-08-02T08:09:04.326Z</time>
      </trkpt>
      <trkpt lat="47.04745" lon="9.05153">
        <ele>535</ele>
        <time>2021-08-02T08:09:05.325Z</time>
      </trkpt>
      <trkpt lat="47.04745" lon="9.05152">
        <ele>535</ele>
        <time>2021-08-02T08:09:06.326Z</time>
      </trkpt>
      <trkpt lat="47.04746" lon="9.05152">
        <ele>535</ele>
        <time>2021-08-02T08:09:07.326Z</time>
      </trkpt>
      <trkpt lat="47.04747" lon="9.05152">
        <ele>535</ele>
        <time>2021-08-02T08:09:08.326Z</time>
      </trkpt>
      <trkpt lat="47.04749" lon="9.05151">
        <ele>535</ele>
        <time>2021-08-02T08:09:09.326Z</time>
      </trkpt>
      <trkpt lat="47.04751" lon="9.05151">
        <ele>534</ele>
        <time>2021-08-02T08:09:10.326Z</time>
      </trkpt>
      <trkpt lat="47.04752" lon="9.05151">
        <ele>534</ele>
        <time>2021-08-02T08:09:11.325Z</time>
      </trkpt>
      <trkpt lat="47.04753" lon="9.0515">
        <ele>534</ele>
        <time>2021-08-02T08:09:12.325Z</time>
      </trkpt>
      <trkpt lat="47.04753" lon="9.05149">
        <ele>534</ele>
        <time>2021-08-02T08:09:13.326Z</time>
      </trkpt>
      <trkpt lat="47.04754" lon="9.05148">
        <ele>534</ele>
        <time>2021-08-02T08:09:14.326Z</time>
      </trkpt>
      <trkpt lat="47.04755" lon="9.05147">
        <ele>534</ele>
        <time>2021-08-02T08:09:15.326Z</time>
      </trkpt>
      <trkpt lat="47.04756" lon="9.05146">
        <ele>534</ele>
        <time>2021-08-02T08:09:16.326Z</time>
      </trkpt>
      <trkpt lat="47.04757" lon="9.05146">
        <ele>534</ele>
        <time>2021-08-02T08:09:17.325Z</time>
      </trkpt>
      <trkpt lat="47.04758" lon="9.05145">
        <ele>534</ele>
        <time>2021-08-02T08:09:18.325Z</time>
      </trkpt>
      <trkpt lat="47.04759" lon="9.05145">
        <ele>534</ele>
        <time>2021-08-02T08:09:19.326Z</time>
      </trkpt>
      <trkpt lat="47.04759" lon="9.05144">
        <ele>534</ele>
        <time>2021-08-02T08:09:20.326Z</time>
      </trkpt>
      <trkpt lat="47.0476" lon="9.05144">
        <ele>534</ele>
        <time>2021-08-02T08:09:21.326Z</time>
      </trkpt>
      <trkpt lat="47.04761" lon="9.05144">
        <ele>534</ele>
        <time>2021-08-02T08:09:22.326Z</time>
      </trkpt>
      <trkpt lat="47.04762" lon="9.05143">
        <ele>534</ele>
        <time>2021-08-02T08:09:23.326Z</time>
      </trkpt>
      <trkpt lat="47.04763" lon="9.05142">
        <ele>534</ele>
        <time>2021-08-02T08:09:24.326Z</time>
      </trkpt>
      <trkpt lat="47.04763" lon="9.05141">
        <ele>534</ele>
        <time>2021-08-02T08:09:25.325Z</time>
      </trkpt>
      <trkpt lat="47.04764" lon="9.0514">
        <ele>535</ele>
        <time>2021-08-02T08:09:26.326Z</time>
      </trkpt>
      <trkpt lat="47.04764" lon="9.05139">
        <ele>535</ele>
        <time>2021-08-02T08:09:27.326Z</time>
      </trkpt>
      <trkpt lat="47.04765" lon="9.05138">
        <ele>535</ele>
        <time>2021-08-02T08:09:28.326Z</time>
      </trkpt>
      <trkpt lat="47.04766" lon="9.05137">
        <ele>535</ele>
        <time>2021-08-02T08:09:29.325Z</time>
      </trkpt>
      <trkpt lat="47.04766" lon="9.05136">
        <ele>536</ele>
        <time>2021-08-02T08:09:30.326Z</time>
      </trkpt>
      <trkpt lat="47.04766" lon="9.05135">
        <ele>536</ele>
        <time>2021-08-02T08:09:31.325Z</time>
      </trkpt>
      <trkpt lat="47.04767" lon="9.05134">
        <ele>536</ele>
        <time>2021-08-02T08:09:32.325Z</time>
      </trkpt>
      <trkpt lat="47.04768" lon="9.05133">
        <ele>537</ele>
        <time>2021-08-02T08:09:33.326Z</time>
      </trkpt>
      <trkpt lat="47.04769" lon="9.05131">
        <ele>537</ele>
        <time>2021-08-02T08:09:34.326Z</time>
      </trkpt>
      <trkpt lat="47.0477" lon="9.0513">
        <ele>538</ele>
        <time>2021-08-02T08:09:35.326Z</time>
      </trkpt>
      <trkpt lat="47.0477" lon="9.05129">
        <ele>538</ele>
        <time>2021-08-02T08:09:36.325Z</time>
      </trkpt>
      <trkpt lat="47.04771" lon="9.05127">
        <ele>538</ele>
        <time>2021-08-02T08:09:37.326Z</time>
      </trkpt>
      <trkpt lat="47.04771" lon="9.05126">
        <ele>538</ele>
        <time>2021-08-02T08:09:38.326Z</time>
      </trkpt>
      <trkpt lat="47.04772" lon="9.05125">
        <ele>539</ele>
        <time>2021-08-02T08:09:39.326Z</time>
      </trkpt>
      <trkpt lat="47.04773" lon="9.05125">
        <ele>539</ele>
        <time>2021-08-02T08:09:40.326Z</time>
      </trkpt>
      <trkpt lat="47.04774" lon="9.05124">
        <ele>540</ele>
        <time>2021-08-02T08:09:41.325Z</time>
      </trkpt>
      <trkpt lat="47.04776" lon="9.05123">
        <ele>540</ele>
        <time>2021-08-02T08:09:42.326Z</time>
      </trkpt>
      <trkpt lat="47.04778" lon="9.05123">
        <ele>541</ele>
        <time>2021-08-02T08:09:43.325Z</time>
      </trkpt>
      <trkpt lat="47.04779" lon="9.05122">
        <ele>541</ele>
        <time>2021-08-02T08:09:44.325Z</time>
      </trkpt>
      <trkpt lat="47.0478" lon="9.05122">
        <ele>541</ele>
        <time>2021-08-02T08:09:45.326Z</time>
      </trkpt>
      <trkpt lat="47.04781" lon="9.05121">
        <ele>541</ele>
        <time>2021-08-02T08:09:46.326Z</time>
      </trkpt>
      <trkpt lat="47.04782" lon="9.0512">
        <ele>542</ele>
        <time>2021-08-02T08:09:47.326Z</time>
      </trkpt>
      <trkpt lat="47.04783" lon="9.0512">
        <ele>542</ele>
        <time>2021-08-02T08:09:48.326Z</time>
      </trkpt>
      <trkpt lat="47.04784" lon="9.0512">
        <ele>542</ele>
        <time>2021-08-02T08:09:49.326Z</time>
      </trkpt>
      <trkpt lat="47.04785" lon="9.0512">
        <ele>543</ele>
        <time>2021-08-02T08:09:50.326Z</time>
      </trkpt>
      <trkpt lat="47.04786" lon="9.05119">
        <ele>542</ele>
        <time>2021-08-02T08:09:51.326Z</time>
      </trkpt>
      <trkpt lat="47.04786" lon="9.05119">
        <ele>542</ele>
        <time>2021-08-02T08:09:52.326Z</time>
      </trkpt>
      <trkpt lat="47.04787" lon="9.05119">
        <ele>542</ele>
        <time>2021-08-02T08:09:53.325Z</time>
      </trkpt>
      <trkpt lat="47.04789" lon="9.05119">
        <ele>540</ele>
        <time>2021-08-02T08:09:54.327Z</time>
      </trkpt>
      <trkpt lat="47.0479" lon="9.05119">
        <ele>539</ele>
        <time>2021-08-02T08:09:55.327Z</time>
      </trkpt>
      <trkpt lat="47.0479" lon="9.05119">
        <ele>539</ele>
        <time>2021-08-02T08:09:56.326Z</time>
      </trkpt>
      <trkpt lat="47.04789" lon="9.0512">
        <ele>538</ele>
        <time>2021-08-02T08:09:57.327Z</time>
      </trkpt>
      <trkpt lat="47.04789" lon="9.0512">
        <ele>537</ele>
        <time>2021-08-02T08:09:58.327Z</time>
      </trkpt>
      <trkpt lat="47.04789" lon="9.0512">
        <ele>536</ele>
        <time>2021-08-02T08:09:59.327Z</time>
      </trkpt>
      <trkpt lat="47.04789" lon="9.05121">
        <ele>535</ele>
        <time>2021-08-02T08:10:00.327Z</time>
      </trkpt>
      <trkpt lat="47.04789" lon="9.0512">
        <ele>533</ele>
        <time>2021-08-02T08:10:01.327Z</time>
      </trkpt>
      <trkpt lat="47.04788" lon="9.05119">
        <ele>525</ele>
        <time>2021-08-02T08:10:02.328Z</time>
      </trkpt>
      <trkpt lat="47.04787" lon="9.05119">
        <ele>525</ele>
        <time>2021-08-02T08:10:03.327Z</time>
      </trkpt>
      <trkpt lat="47.04787" lon="9.05119">
        <ele>525</ele>
        <time>2021-08-02T08:10:04.327Z</time>
      </trkpt>
      <trkpt lat="47.04787" lon="9.05118">
        <ele>526</ele>
        <time>2021-08-02T08:10:05.328Z</time>
      </trkpt>
      <trkpt lat="47.04785" lon="9.05116">
        <ele>534</ele>
        <time>2021-08-02T08:10:06.329Z</time>
      </trkpt>
      <trkpt lat="47.04786" lon="9.05114">
        <ele>540</ele>
        <time>2021-08-02T08:10:07.329Z</time>
      </trkpt>
      <trkpt lat="47.04787" lon="9.05115">
        <ele>541</ele>
        <time>2021-08-02T08:10:08.329Z</time>
      </trkpt>
      <trkpt lat="47.04789" lon="9.05114">
        <ele>541</ele>
        <time>2021-08-02T08:10:09.328Z</time>
      </trkpt>
      <trkpt lat="47.0479" lon="9.05114">
        <ele>541</ele>
        <time>2021-08-02T08:10:10.329Z</time>
      </trkpt>
      <trkpt lat="47.04792" lon="9.05114">
        <ele>541</ele>
        <time>2021-08-02T08:10:11.329Z</time>
      </trkpt>
      <trkpt lat="47.04793" lon="9.05114">
        <ele>540</ele>
        <time>2021-08-02T08:10:12.328Z</time>
      </trkpt>
      <trkpt lat="47.04795" lon="9.05113">
        <ele>540</ele>
        <time>2021-08-02T08:10:13.328Z</time>
      </trkpt>
      <trkpt lat="47.04795" lon="9.05113">
        <ele>540</ele>
        <time>2021-08-02T08:10:14.329Z</time>
      </trkpt>
      <trkpt lat="47.04796" lon="9.05112">
        <ele>540</ele>
        <time>2021-08-02T08:10:15.329Z</time>
      </trkpt>
      <trkpt lat="47.04797" lon="9.05112">
        <ele>540</ele>
        <time>2021-08-02T08:10:16.329Z</time>
      </trkpt>
      <trkpt lat="47.04799" lon="9.05111">
        <ele>540</ele>
        <time>2021-08-02T08:10:17.329Z</time>
      </trkpt>
      <trkpt lat="47.048" lon="9.05112">
        <ele>540</ele>
        <time>2021-08-02T08:10:18.329Z</time>
      </trkpt>
      <trkpt lat="47.04802" lon="9.05112">
        <ele>540</ele>
        <time>2021-08-02T08:10:19.329Z</time>
      </trkpt>
      <trkpt lat="47.04804" lon="9.05113">
        <ele>540</ele>
        <time>2021-08-02T08:10:20.329Z</time>
      </trkpt>
      <trkpt lat="47.04805" lon="9.05114">
        <ele>540</ele>
        <time>2021-08-02T08:10:21.328Z</time>
      </trkpt>
      <trkpt lat="47.04805" lon="9.05114">
        <ele>539</ele>
        <time>2021-08-02T08:10:22.329Z</time>
      </trkpt>
      <trkpt lat="47.04805" lon="9.05114">
        <ele>539</ele>
        <time>2021-08-02T08:10:23.329Z</time>
      </trkpt>
      <trkpt lat="47.04805" lon="9.05114">
        <ele>539</ele>
        <time>2021-08-02T08:10:24.329Z</time>
      </trkpt>
      <trkpt lat="47.04806" lon="9.05115">
        <ele>539</ele>
        <time>2021-08-02T08:10:25.329Z</time>
      </trkpt>
      <trkpt lat="47.04807" lon="9.05115">
        <ele>539</ele>
        <time>2021-08-02T08:10:26.329Z</time>
      </trkpt>
      <trkpt lat="47.04808" lon="9.05114">
        <ele>538</ele>
        <time>2021-08-02T08:10:27.329Z</time>
      </trkpt>
      <trkpt lat="47.0481" lon="9.05115">
        <ele>538</ele>
        <time>2021-08-02T08:10:28.329Z</time>
      </trkpt>
      <trkpt lat="47.04811" lon="9.05115">
        <ele>538</ele>
        <time>2021-08-02T08:10:29.329Z</time>
      </trkpt>
      <trkpt lat="47.04812" lon="9.05115">
        <ele>537</ele>
        <time>2021-08-02T08:10:30.329Z</time>
      </trkpt>
      <trkpt lat="47.04813" lon="9.05115">
        <ele>537</ele>
        <time>2021-08-02T08:10:31.329Z</time>
      </trkpt>
      <trkpt lat="47.04814" lon="9.05115">
        <ele>536</ele>
        <time>2021-08-02T08:10:32.328Z</time>
      </trkpt>
      <trkpt lat="47.04814" lon="9.05114">
        <ele>536</ele>
        <time>2021-08-02T08:10:33.329Z</time>
      </trkpt>
      <trkpt lat="47.04815" lon="9.05113">
        <ele>536</ele>
        <time>2021-08-02T08:10:34.329Z</time>
      </trkpt>
      <trkpt lat="47.04815" lon="9.05113">
        <ele>535</ele>
        <time>2021-08-02T08:10:35.329Z</time>
      </trkpt>
      <trkpt lat="47.04816" lon="9.05112">
        <ele>535</ele>
        <time>2021-08-02T08:10:36.329Z</time>
      </trkpt>
      <trkpt lat="47.04816" lon="9.05111">
        <ele>535</ele>
        <time>2021-08-02T08:10:37.329Z</time>
      </trkpt>
      <trkpt lat="47.04817" lon="9.0511">
        <ele>534</ele>
        <time>2021-08-02T08:10:38.328Z</time>
      </trkpt>
      <trkpt lat="47.04816" lon="9.05109">
        <ele>534</ele>
        <time>2021-08-02T08:10:39.329Z</time>
      </trkpt>
      <trkpt lat="47.04817" lon="9.05108">
        <ele>534</ele>
        <time>2021-08-02T08:10:40.329Z</time>
      </trkpt>
      <trkpt lat="47.04817" lon="9.05107">
        <ele>534</ele>
        <time>2021-08-02T08:10:41.328Z</time>
      </trkpt>
      <trkpt lat="47.04817" lon="9.05106">
        <ele>534</ele>
        <time>2021-08-02T08:10:42.329Z</time>
      </trkpt>
      <trkpt lat="47.04817" lon="9.05105">
        <ele>534</ele>
        <time>2021-08-02T08:10:43.329Z</time>
      </trkpt>
      <trkpt lat="47.04817" lon="9.05104">
        <ele>534</ele>
        <time>2021-08-02T08:10:44.329Z</time>
      </trkpt>
      <trkpt lat="47.04818" lon="9.05103">
        <ele>534</ele>
        <time>2021-08-02T08:10:45.329Z</time>
      </trkpt>
      <trkpt lat="47.04818" lon="9.05103">
        <ele>534</ele>
        <time>2021-08-02T08:10:46.329Z</time>
      </trkpt>
      <trkpt lat="47.04818" lon="9.05102">
        <ele>534</ele>
        <time>2021-08-02T08:10:47.328Z</time>
      </trkpt>
      <trkpt lat="47.04819" lon="9.05101">
        <ele>534</ele>
        <time>2021-08-02T08:10:48.329Z</time>
      </trkpt>
      <trkpt lat="47.04819" lon="9.05099">
        <ele>534</ele>
        <time>2021-08-02T08:10:49.329Z</time>
      </trkpt>
      <trkpt lat="47.0482" lon="9.05097">
        <ele>534</ele>
        <time>2021-08-02T08:10:50.329Z</time>
      </trkpt>
      <trkpt lat="47.0482" lon="9.05097">
        <ele>534</ele>
        <time>2021-08-02T08:10:51.329Z</time>
      </trkpt>
      <trkpt lat="47.0482" lon="9.05096">
        <ele>535</ele>
        <time>2021-08-02T08:10:52.329Z</time>
      </trkpt>
      <trkpt lat="47.04821" lon="9.05096">
        <ele>535</ele>
        <time>2021-08-02T08:10:53.329Z</time>
      </trkpt>
      <trkpt lat="47.0482" lon="9.05094">
        <ele>535</ele>
        <time>2021-08-02T08:10:54.329Z</time>
      </trkpt>
      <trkpt lat="47.0482" lon="9.05093">
        <ele>535</ele>
        <time>2021-08-02T08:10:55.329Z</time>
      </trkpt>
      <trkpt lat="47.0482" lon="9.05091">
        <ele>535</ele>
        <time>2021-08-02T08:10:56.328Z</time>
      </trkpt>
      <trkpt lat="47.0482" lon="9.05089">
        <ele>536</ele>
        <time>2021-08-02T08:10:57.329Z</time>
      </trkpt>
      <trkpt lat="47.0482" lon="9.05088">
        <ele>536</ele>
        <time>2021-08-02T08:10:58.328Z</time>
      </trkpt>
      <trkpt lat="47.0482" lon="9.05086">
        <ele>536</ele>
        <time>2021-08-02T08:10:59.329Z</time>
      </trkpt>
      <trkpt lat="47.0482" lon="9.05085">
        <ele>536</ele>
        <time>2021-08-02T08:11:00.329Z</time>
      </trkpt>
      <trkpt lat="47.0482" lon="9.05084">
        <ele>536</ele>
        <time>2021-08-02T08:11:01.329Z</time>
      </trkpt>
      <trkpt lat="47.0482" lon="9.05082">
        <ele>536</ele>
        <time>2021-08-02T08:11:02.329Z</time>
      </trkpt>
      <trkpt lat="47.04819" lon="9.0508">
        <ele>536</ele>
        <time>2021-08-02T08:11:03.329Z</time>
      </trkpt>
      <trkpt lat="47.04819" lon="9.05078">
        <ele>536</ele>
        <time>2021-08-02T08:11:04.329Z</time>
      </trkpt>
      <trkpt lat="47.04818" lon="9.05077">
        <ele>537</ele>
        <time>2021-08-02T08:11:05.328Z</time>
      </trkpt>
      <trkpt lat="47.04818" lon="9.05076">
        <ele>537</ele>
        <time>2021-08-02T08:11:06.329Z</time>
      </trkpt>
      <trkpt lat="47.04818" lon="9.05075">
        <ele>538</ele>
        <time>2021-08-02T08:11:07.328Z</time>
      </trkpt>
      <trkpt lat="47.04818" lon="9.05074">
        <ele>538</ele>
        <time>2021-08-02T08:11:08.329Z</time>
      </trkpt>
      <trkpt lat="47.04818" lon="9.05071">
        <ele>539</ele>
        <time>2021-08-02T08:11:09.329Z</time>
      </trkpt>
      <trkpt lat="47.04818" lon="9.05069">
        <ele>539</ele>
        <time>2021-08-02T08:11:10.329Z</time>
      </trkpt>
      <trkpt lat="47.04818" lon="9.05068">
        <ele>540</ele>
        <time>2021-08-02T08:11:11.328Z</time>
      </trkpt>
      <trkpt lat="47.04819" lon="9.05067">
        <ele>540</ele>
        <time>2021-08-02T08:11:12.329Z</time>
      </trkpt>
      <trkpt lat="47.0482" lon="9.05067">
        <ele>541</ele>
        <time>2021-08-02T08:11:13.329Z</time>
      </trkpt>
      <trkpt lat="47.04821" lon="9.05066">
        <ele>541</ele>
        <time>2021-08-02T08:11:14.329Z</time>
      </trkpt>
      <trkpt lat="47.04821" lon="9.05065">
        <ele>541</ele>
        <time>2021-08-02T08:11:15.329Z</time>
      </trkpt>
      <trkpt lat="47.04821" lon="9.05064">
        <ele>541</ele>
        <time>2021-08-02T08:11:16.328Z</time>
      </trkpt>
      <trkpt lat="47.04822" lon="9.05062">
        <ele>542</ele>
        <time>2021-08-02T08:11:17.329Z</time>
      </trkpt>
      <trkpt lat="47.04822" lon="9.0506">
        <ele>542</ele>
        <time>2021-08-02T08:11:18.329Z</time>
      </trkpt>
      <trkpt lat="47.04821" lon="9.05058">
        <ele>543</ele>
        <time>2021-08-02T08:11:19.329Z</time>
      </trkpt>
      <trkpt lat="47.04821" lon="9.05057">
        <ele>543</ele>
        <time>2021-08-02T08:11:20.329Z</time>
      </trkpt>
      <trkpt lat="47.04821" lon="9.05055">
        <ele>543</ele>
        <time>2021-08-02T08:11:21.328Z</time>
      </trkpt>
      <trkpt lat="47.04821" lon="9.05053">
        <ele>544</ele>
        <time>2021-08-02T08:11:22.329Z</time>
      </trkpt>
      <trkpt lat="47.04821" lon="9.05052">
        <ele>544</ele>
        <time>2021-08-02T08:11:23.329Z</time>
      </trkpt>
      <trkpt lat="47.04822" lon="9.0505">
        <ele>544</ele>
        <time>2021-08-02T08:11:24.329Z</time>
      </trkpt>
      <trkpt lat="47.04823" lon="9.05049">
        <ele>545</ele>
        <time>2021-08-02T08:11:25.329Z</time>
      </trkpt>
      <trkpt lat="47.04824" lon="9.05047">
        <ele>545</ele>
        <time>2021-08-02T08:11:26.328Z</time>
      </trkpt>
      <trkpt lat="47.04824" lon="9.05046">
        <ele>545</ele>
        <time>2021-08-02T08:11:27.329Z</time>
      </trkpt>
      <trkpt lat="47.04824" lon="9.05045">
        <ele>545</ele>
        <time>2021-08-02T08:11:28.328Z</time>
      </trkpt>
      <trkpt lat="47.04824" lon="9.05044">
        <ele>545</ele>
        <time>2021-08-02T08:11:29.329Z</time>
      </trkpt>
      <trkpt lat="47.04824" lon="9.05042">
        <ele>545</ele>
        <time>2021-08-02T08:11:30.329Z</time>
      </trkpt>
      <trkpt lat="47.04824" lon="9.0504">
        <ele>545</ele>
        <time>2021-08-02T08:11:31.329Z</time>
      </trkpt>
      <trkpt lat="47.04825" lon="9.05038">
        <ele>545</ele>
        <time>2021-08-02T08:11:32.329Z</time>
      </trkpt>
      <trkpt lat="47.04825" lon="9.05036">
        <ele>545</ele>
        <time>2021-08-02T08:11:33.329Z</time>
      </trkpt>
      <trkpt lat="47.04825" lon="9.05034">
        <ele>545</ele>
        <time>2021-08-02T08:11:34.329Z</time>
      </trkpt>
      <trkpt lat="47.04825" lon="9.05032">
        <ele>545</ele>
        <time>2021-08-02T08:11:35.329Z</time>
      </trkpt>
      <trkpt lat="47.04826" lon="9.0503">
        <ele>545</ele>
        <time>2021-08-02T08:11:36.328Z</time>
      </trkpt>
      <trkpt lat="47.04826" lon="9.05028">
        <ele>545</ele>
        <time>2021-08-02T08:11:37.329Z</time>
      </trkpt>
      <trkpt lat="47.04826" lon="9.05025">
        <ele>545</ele>
        <time>2021-08-02T08:11:38.329Z</time>
      </trkpt>
      <trkpt lat="47.04826" lon="9.05023">
        <ele>545</ele>
        <time>2021-08-02T08:11:39.329Z</time>
      </trkpt>
      <trkpt lat="47.04825" lon="9.05023">
        <ele>545</ele>
        <time>2021-08-02T08:11:40.329Z</time>
      </trkpt>
      <trkpt lat="47.04823" lon="9.05023">
        <ele>545</ele>
        <time>2021-08-02T08:11:41.328Z</time>
      </trkpt>
      <trkpt lat="47.0482" lon="9.05024">
        <ele>544</ele>
        <time>2021-08-02T08:11:42.329Z</time>
      </trkpt>
      <trkpt lat="47.0482" lon="9.05024">
        <ele>545</ele>
        <time>2021-08-02T08:11:43.329Z</time>
      </trkpt>
      <trkpt lat="47.0482" lon="9.05022">
        <ele>546</ele>
        <time>2021-08-02T08:11:44.329Z</time>
      </trkpt>
      <trkpt lat="47.04821" lon="9.0502">
        <ele>546</ele>
        <time>2021-08-02T08:11:45.328Z</time>
      </trkpt>
      <trkpt lat="47.04821" lon="9.05019">
        <ele>546</ele>
        <time>2021-08-02T08:11:46.329Z</time>
      </trkpt>
      <trkpt lat="47.04822" lon="9.05017">
        <ele>546</ele>
        <time>2021-08-02T08:11:47.329Z</time>
      </trkpt>
      <trkpt lat="47.04823" lon="9.05016">
        <ele>546</ele>
        <time>2021-08-02T08:11:48.328Z</time>
      </trkpt>
      <trkpt lat="47.04823" lon="9.05014">
        <ele>546</ele>
        <time>2021-08-02T08:11:49.328Z</time>
      </trkpt>
      <trkpt lat="47.04824" lon="9.05013">
        <ele>546</ele>
        <time>2021-08-02T08:11:50.328Z</time>
      </trkpt>
      <trkpt lat="47.04824" lon="9.05012">
        <ele>546</ele>
        <time>2021-08-02T08:11:51.329Z</time>
      </trkpt>
      <trkpt lat="47.04824" lon="9.05011">
        <ele>545</ele>
        <time>2021-08-02T08:11:52.329Z</time>
      </trkpt>
      <trkpt lat="47.04824" lon="9.05009">
        <ele>545</ele>
        <time>2021-08-02T08:11:53.329Z</time>
      </trkpt>
      <trkpt lat="47.04824" lon="9.05008">
        <ele>545</ele>
        <time>2021-08-02T08:11:54.329Z</time>
      </trkpt>
      <trkpt lat="47.04824" lon="9.05007">
        <ele>545</ele>
        <time>2021-08-02T08:11:55.329Z</time>
      </trkpt>
      <trkpt lat="47.04824" lon="9.05006">
        <ele>545</ele>
        <time>2021-08-02T08:11:56.329Z</time>
      </trkpt>
      <trkpt lat="47.04824" lon="9.05005">
        <ele>545</ele>
        <time>2021-08-02T08:11:57.329Z</time>
      </trkpt>
      <trkpt lat="47.04824" lon="9.05004">
        <ele>545</ele>
        <time>2021-08-02T08:11:58.329Z</time>
      </trkpt>
      <trkpt lat="47.04825" lon="9.05004">
        <ele>545</ele>
        <time>2021-08-02T08:11:59.329Z</time>
      </trkpt>
      <trkpt lat="47.04826" lon="9.05002">
        <ele>544</ele>
        <time>2021-08-02T08:12:00.329Z</time>
      </trkpt>
      <trkpt lat="47.04826" lon="9.05001">
        <ele>544</ele>
        <time>2021-08-02T08:12:01.329Z</time>
      </trkpt>
      <trkpt lat="47.04826" lon="9.04999">
        <ele>544</ele>
        <time>2021-08-02T08:12:02.328Z</time>
      </trkpt>
      <trkpt lat="47.04826" lon="9.04998">
        <ele>544</ele>
        <time>2021-08-02T08:12:03.329Z</time>
      </trkpt>
      <trkpt lat="47.04826" lon="9.04996">
        <ele>543</ele>
        <time>2021-08-02T08:12:04.329Z</time>
      </trkpt>
      <trkpt lat="47.04825" lon="9.04994">
        <ele>543</ele>
        <time>2021-08-02T08:12:05.329Z</time>
      </trkpt>
      <trkpt lat="47.04825" lon="9.04992">
        <ele>543</ele>
        <time>2021-08-02T08:12:06.328Z</time>
      </trkpt>
      <trkpt lat="47.04826" lon="9.0499">
        <ele>542</ele>
        <time>2021-08-02T08:12:07.329Z</time>
      </trkpt>
      <trkpt lat="47.04826" lon="9.04989">
        <ele>542</ele>
        <time>2021-08-02T08:12:08.328Z</time>
      </trkpt>
      <trkpt lat="47.04827" lon="9.04987">
        <ele>542</ele>
        <time>2021-08-02T08:12:09.329Z</time>
      </trkpt>
      <trkpt lat="47.04828" lon="9.04985">
        <ele>541</ele>
        <time>2021-08-02T08:12:10.329Z</time>
      </trkpt>
      <trkpt lat="47.04829" lon="9.04983">
        <ele>541</ele>
        <time>2021-08-02T08:12:11.328Z</time>
      </trkpt>
      <trkpt lat="47.04829" lon="9.04982">
        <ele>540</ele>
        <time>2021-08-02T08:12:12.329Z</time>
      </trkpt>
      <trkpt lat="47.0483" lon="9.0498">
        <ele>540</ele>
        <time>2021-08-02T08:12:13.329Z</time>
      </trkpt>
      <trkpt lat="47.0483" lon="9.04978">
        <ele>539</ele>
        <time>2021-08-02T08:12:14.329Z</time>
      </trkpt>
      <trkpt lat="47.0483" lon="9.04976">
        <ele>539</ele>
        <time>2021-08-02T08:12:15.329Z</time>
      </trkpt>
      <trkpt lat="47.0483" lon="9.04973">
        <ele>539</ele>
        <time>2021-08-02T08:12:16.329Z</time>
      </trkpt>
      <trkpt lat="47.04829" lon="9.04971">
        <ele>538</ele>
        <time>2021-08-02T08:12:17.329Z</time>
      </trkpt>
      <trkpt lat="47.04829" lon="9.04969">
        <ele>538</ele>
        <time>2021-08-02T08:12:18.329Z</time>
      </trkpt>
      <trkpt lat="47.04829" lon="9.04968">
        <ele>537</ele>
        <time>2021-08-02T08:12:19.328Z</time>
      </trkpt>
      <trkpt lat="47.0483" lon="9.04968">
        <ele>537</ele>
        <time>2021-08-02T08:12:20.328Z</time>
      </trkpt>
      <trkpt lat="47.0483" lon="9.04967">
        <ele>537</ele>
        <time>2021-08-02T08:12:21.328Z</time>
      </trkpt>
      <trkpt lat="47.0483" lon="9.04967">
        <ele>536</ele>
        <time>2021-08-02T08:12:22.329Z</time>
      </trkpt>
      <trkpt lat="47.0483" lon="9.04965">
        <ele>536</ele>
        <time>2021-08-02T08:12:23.329Z</time>
      </trkpt>
      <trkpt lat="47.0483" lon="9.04963">
        <ele>535</ele>
        <time>2021-08-02T08:12:24.328Z</time>
      </trkpt>
      <trkpt lat="47.0483" lon="9.04961">
        <ele>535</ele>
        <time>2021-08-02T08:12:25.329Z</time>
      </trkpt>
      <trkpt lat="47.0483" lon="9.04959">
        <ele>535</ele>
        <time>2021-08-02T08:12:26.328Z</time>
      </trkpt>
      <trkpt lat="47.0483" lon="9.04957">
        <ele>534</ele>
        <time>2021-08-02T08:12:27.329Z</time>
      </trkpt>
      <trkpt lat="47.0483" lon="9.04956">
        <ele>534</ele>
        <time>2021-08-02T08:12:28.329Z</time>
      </trkpt>
      <trkpt lat="47.0483" lon="9.04954">
        <ele>534</ele>
        <time>2021-08-02T08:12:29.329Z</time>
      </trkpt>
      <trkpt lat="47.0483" lon="9.04953">
        <ele>534</ele>
        <time>2021-08-02T08:12:30.328Z</time>
      </trkpt>
      <trkpt lat="47.0483" lon="9.04951">
        <ele>534</ele>
        <time>2021-08-02T08:12:31.329Z</time>
      </trkpt>
      <trkpt lat="47.0483" lon="9.04949">
        <ele>534</ele>
        <time>2021-08-02T08:12:32.328Z</time>
      </trkpt>
      <trkpt lat="47.04831" lon="9.04948">
        <ele>534</ele>
        <time>2021-08-02T08:12:33.329Z</time>
      </trkpt>
      <trkpt lat="47.04831" lon="9.04946">
        <ele>534</ele>
        <time>2021-08-02T08:12:34.328Z</time>
      </trkpt>
      <trkpt lat="47.04831" lon="9.04945">
        <ele>534</ele>
        <time>2021-08-02T08:12:35.329Z</time>
      </trkpt>
      <trkpt lat="47.04832" lon="9.04944">
        <ele>534</ele>
        <time>2021-08-02T08:12:36.329Z</time>
      </trkpt>
      <trkpt lat="47.04832" lon="9.04944">
        <ele>534</ele>
        <time>2021-08-02T08:12:37.329Z</time>
      </trkpt>
      <trkpt lat="47.04833" lon="9.04942">
        <ele>533</ele>
        <time>2021-08-02T08:12:38.329Z</time>
      </trkpt>
      <trkpt lat="47.04833" lon="9.04941">
        <ele>533</ele>
        <time>2021-08-02T08:12:39.328Z</time>
      </trkpt>
      <trkpt lat="47.04833" lon="9.0494">
        <ele>533</ele>
        <time>2021-08-02T08:12:40.328Z</time>
      </trkpt>
      <trkpt lat="47.04834" lon="9.0494">
        <ele>532</ele>
        <time>2021-08-02T08:12:41.329Z</time>
      </trkpt>
      <trkpt lat="47.04834" lon="9.0494">
        <ele>532</ele>
        <time>2021-08-02T08:12:42.328Z</time>
      </trkpt>
      <trkpt lat="47.04835" lon="9.04939">
        <ele>532</ele>
        <time>2021-08-02T08:12:43.329Z</time>
      </trkpt>
      <trkpt lat="47.04836" lon="9.04939">
        <ele>532</ele>
        <time>2021-08-02T08:12:44.329Z</time>
      </trkpt>
      <trkpt lat="47.04836" lon="9.04939">
        <ele>532</ele>
        <time>2021-08-02T08:12:45.328Z</time>
      </trkpt>
      <trkpt lat="47.04837" lon="9.04939">
        <ele>532</ele>
        <time>2021-08-02T08:12:46.328Z</time>
      </trkpt>
      <trkpt lat="47.04838" lon="9.04939">
        <ele>532</ele>
        <time>2021-08-02T08:12:47.329Z</time>
      </trkpt>
      <trkpt lat="47.04839" lon="9.04939">
        <ele>532</ele>
        <time>2021-08-02T08:12:48.329Z</time>
      </trkpt>
      <trkpt lat="47.04839" lon="9.04938">
        <ele>533</ele>
        <time>2021-08-02T08:12:49.328Z</time>
      </trkpt>
      <trkpt lat="47.0484" lon="9.04938">
        <ele>533</ele>
        <time>2021-08-02T08:12:50.329Z</time>
      </trkpt>
      <trkpt lat="47.04841" lon="9.04938">
        <ele>534</ele>
        <time>2021-08-02T08:12:51.329Z</time>
      </trkpt>
      <trkpt lat="47.04842" lon="9.04937">
        <ele>535</ele>
        <time>2021-08-02T08:12:52.329Z</time>
      </trkpt>
      <trkpt lat="47.04843" lon="9.04937">
        <ele>536</ele>
        <time>2021-08-02T08:12:53.329Z</time>
      </trkpt>
      <trkpt lat="47.04844" lon="9.04936">
        <ele>536</ele>
        <time>2021-08-02T08:12:54.328Z</time>
      </trkpt>
      <trkpt lat="47.04844" lon="9.04936">
        <ele>537</ele>
        <time>2021-08-02T08:12:55.329Z</time>
      </trkpt>
      <trkpt lat="47.04845" lon="9.04935">
        <ele>537</ele>
        <time>2021-08-02T08:12:56.328Z</time>
      </trkpt>
      <trkpt lat="47.04845" lon="9.04934">
        <ele>538</ele>
        <time>2021-08-02T08:12:57.328Z</time>
      </trkpt>
      <trkpt lat="47.04845" lon="9.04933">
        <ele>538</ele>
        <time>2021-08-02T08:12:58.329Z</time>
      </trkpt>
      <trkpt lat="47.04845" lon="9.04933">
        <ele>538</ele>
        <time>2021-08-02T08:12:59.328Z</time>
      </trkpt>
      <trkpt lat="47.04844" lon="9.04933">
        <ele>538</ele>
        <time>2021-08-02T08:13:00.329Z</time>
      </trkpt>
      <trkpt lat="47.04844" lon="9.04933">
        <ele>538</ele>
        <time>2021-08-02T08:13:01.329Z</time>
      </trkpt>
      <trkpt lat="47.04844" lon="9.04934">
        <ele>537</ele>
        <time>2021-08-02T08:13:02.328Z</time>
      </trkpt>
      <trkpt lat="47.04841" lon="9.04931">
        <ele>537</ele>
        <time>2021-08-02T08:13:03.328Z</time>
      </trkpt>
      <trkpt lat="47.0484" lon="9.04929">
        <ele>537</ele>
        <time>2021-08-02T08:13:04.328Z</time>
      </trkpt>
      <trkpt lat="47.0484" lon="9.04928">
        <ele>536</ele>
        <time>2021-08-02T08:13:05.328Z</time>
      </trkpt>
      <trkpt lat="47.0484" lon="9.04928">
        <ele>536</ele>
        <time>2021-08-02T08:13:06.328Z</time>
      </trkpt>
      <trkpt lat="47.0484" lon="9.04928">
        <ele>536</ele>
        <time>2021-08-02T08:13:07.328Z</time>
      </trkpt>
      <trkpt lat="47.04839" lon="9.04927">
        <ele>536</ele>
        <time>2021-08-02T08:13:08.329Z</time>
      </trkpt>
      <trkpt lat="47.04839" lon="9.04926">
        <ele>536</ele>
        <time>2021-08-02T08:13:09.328Z</time>
      </trkpt>
      <trkpt lat="47.04838" lon="9.04925">
        <ele>536</ele>
        <time>2021-08-02T08:13:10.328Z</time>
      </trkpt>
      <trkpt lat="47.04838" lon="9.04924">
        <ele>537</ele>
        <time>2021-08-02T08:13:11.328Z</time>
      </trkpt>
      <trkpt lat="47.04838" lon="9.04923">
        <ele>537</ele>
        <time>2021-08-02T08:13:12.328Z</time>
      </trkpt>
      <trkpt lat="47.04838" lon="9.0492">
        <ele>538</ele>
        <time>2021-08-02T08:13:13.328Z</time>
      </trkpt>
      <trkpt lat="47.04838" lon="9.04919">
        <ele>538</ele>
        <time>2021-08-02T08:13:14.328Z</time>
      </trkpt>
      <trkpt lat="47.04838" lon="9.04918">
        <ele>539</ele>
        <time>2021-08-02T08:13:15.328Z</time>
      </trkpt>
      <trkpt lat="47.04838" lon="9.04917">
        <ele>540</ele>
        <time>2021-08-02T08:13:16.328Z</time>
      </trkpt>
      <trkpt lat="47.04838" lon="9.04916">
        <ele>540</ele>
        <time>2021-08-02T08:13:17.328Z</time>
      </trkpt>
      <trkpt lat="47.04838" lon="9.04914">
        <ele>541</ele>
        <time>2021-08-02T08:13:18.329Z</time>
      </trkpt>
      <trkpt lat="47.04838" lon="9.04913">
        <ele>542</ele>
        <time>2021-08-02T08:13:19.329Z</time>
      </trkpt>
      <trkpt lat="47.04838" lon="9.04911">
        <ele>543</ele>
        <time>2021-08-02T08:13:20.329Z</time>
      </trkpt>
      <trkpt lat="47.04839" lon="9.0491">
        <ele>544</ele>
        <time>2021-08-02T08:13:21.329Z</time>
      </trkpt>
      <trkpt lat="47.04839" lon="9.04908">
        <ele>545</ele>
        <time>2021-08-02T08:13:22.328Z</time>
      </trkpt>
      <trkpt lat="47.0484" lon="9.04906">
        <ele>546</ele>
        <time>2021-08-02T08:13:23.329Z</time>
      </trkpt>
      <trkpt lat="47.0484" lon="9.04905">
        <ele>547</ele>
        <time>2021-08-02T08:13:24.329Z</time>
      </trkpt>
      <trkpt lat="47.0484" lon="9.04903">
        <ele>549</ele>
        <time>2021-08-02T08:13:25.329Z</time>
      </trkpt>
      <trkpt lat="47.04841" lon="9.04902">
        <ele>550</ele>
        <time>2021-08-02T08:13:26.328Z</time>
      </trkpt>
      <trkpt lat="47.04841" lon="9.049">
        <ele>551</ele>
        <time>2021-08-02T08:13:27.328Z</time>
      </trkpt>
      <trkpt lat="47.04842" lon="9.04899">
        <ele>552</ele>
        <time>2021-08-02T08:13:28.329Z</time>
      </trkpt>
      <trkpt lat="47.04843" lon="9.04897">
        <ele>553</ele>
        <time>2021-08-02T08:13:29.329Z</time>
      </trkpt>
      <trkpt lat="47.04844" lon="9.04895">
        <ele>554</ele>
        <time>2021-08-02T08:13:30.329Z</time>
      </trkpt>
      <trkpt lat="47.04844" lon="9.04894">
        <ele>555</ele>
        <time>2021-08-02T08:13:31.328Z</time>
      </trkpt>
      <trkpt lat="47.04844" lon="9.04892">
        <ele>556</ele>
        <time>2021-08-02T08:13:32.328Z</time>
      </trkpt>
      <trkpt lat="47.04846" lon="9.0489">
        <ele>557</ele>
        <time>2021-08-02T08:13:33.329Z</time>
      </trkpt>
      <trkpt lat="47.04846" lon="9.04889">
        <ele>558</ele>
        <time>2021-08-02T08:13:34.329Z</time>
      </trkpt>
      <trkpt lat="47.04847" lon="9.04887">
        <ele>559</ele>
        <time>2021-08-02T08:13:35.329Z</time>
      </trkpt>
      <trkpt lat="47.04847" lon="9.04885">
        <ele>560</ele>
        <time>2021-08-02T08:13:36.329Z</time>
      </trkpt>
      <trkpt lat="47.04847" lon="9.04884">
        <ele>561</ele>
        <time>2021-08-02T08:13:37.329Z</time>
      </trkpt>
      <trkpt lat="47.04847" lon="9.04882">
        <ele>562</ele>
        <time>2021-08-02T08:13:38.329Z</time>
      </trkpt>
      <trkpt lat="47.04847" lon="9.0488">
        <ele>563</ele>
        <time>2021-08-02T08:13:39.329Z</time>
      </trkpt>
      <trkpt lat="47.04846" lon="9.04879">
        <ele>563</ele>
        <time>2021-08-02T08:13:40.328Z</time>
      </trkpt>
      <trkpt lat="47.04844" lon="9.04877">
        <ele>563</ele>
        <time>2021-08-02T08:13:41.329Z</time>
      </trkpt>
      <trkpt lat="47.04843" lon="9.04875">
        <ele>562</ele>
        <time>2021-08-02T08:13:42.328Z</time>
      </trkpt>
      <trkpt lat="47.04841" lon="9.04873">
        <ele>561</ele>
        <time>2021-08-02T08:13:43.329Z</time>
      </trkpt>
      <trkpt lat="47.04841" lon="9.04872">
        <ele>560</ele>
        <time>2021-08-02T08:13:44.329Z</time>
      </trkpt>
      <trkpt lat="47.0484" lon="9.0487">
        <ele>559</ele>
        <time>2021-08-02T08:13:45.328Z</time>
      </trkpt>
      <trkpt lat="47.04839" lon="9.04868">
        <ele>558</ele>
        <time>2021-08-02T08:13:46.329Z</time>
      </trkpt>
      <trkpt lat="47.04838" lon="9.04867">
        <ele>557</ele>
        <time>2021-08-02T08:13:47.329Z</time>
      </trkpt>
      <trkpt lat="47.04837" lon="9.04865">
        <ele>556</ele>
        <time>2021-08-02T08:13:48.329Z</time>
      </trkpt>
      <trkpt lat="47.04837" lon="9.04864">
        <ele>554</ele>
        <time>2021-08-02T08:13:49.328Z</time>
      </trkpt>
      <trkpt lat="47.04837" lon="9.04862">
        <ele>553</ele>
        <time>2021-08-02T08:13:50.329Z</time>
      </trkpt>
      <trkpt lat="47.04836" lon="9.04861">
        <ele>552</ele>
        <time>2021-08-02T08:13:51.329Z</time>
      </trkpt>
      <trkpt lat="47.04835" lon="9.04859">
        <ele>551</ele>
        <time>2021-08-02T08:13:52.329Z</time>
      </trkpt>
      <trkpt lat="47.04834" lon="9.04858">
        <ele>550</ele>
        <time>2021-08-02T08:13:53.329Z</time>
      </trkpt>
      <trkpt lat="47.04833" lon="9.04857">
        <ele>549</ele>
        <time>2021-08-02T08:13:54.328Z</time>
      </trkpt>
      <trkpt lat="47.04833" lon="9.04855">
        <ele>548</ele>
        <time>2021-08-02T08:13:55.328Z</time>
      </trkpt>
      <trkpt lat="47.04833" lon="9.04854">
        <ele>547</ele>
        <time>2021-08-02T08:13:56.328Z</time>
      </trkpt>
      <trkpt lat="47.04833" lon="9.04852">
        <ele>547</ele>
        <time>2021-08-02T08:13:57.328Z</time>
      </trkpt>
      <trkpt lat="47.04832" lon="9.04851">
        <ele>546</ele>
        <time>2021-08-02T08:13:58.329Z</time>
      </trkpt>
      <trkpt lat="47.04831" lon="9.04849">
        <ele>546</ele>
        <time>2021-08-02T08:13:59.329Z</time>
      </trkpt>
      <trkpt lat="47.0483" lon="9.04847">
        <ele>546</ele>
        <time>2021-08-02T08:14:00.329Z</time>
      </trkpt>
      <trkpt lat="47.0483" lon="9.04845">
        <ele>545</ele>
        <time>2021-08-02T08:14:01.329Z</time>
      </trkpt>
      <trkpt lat="47.0483" lon="9.04843">
        <ele>545</ele>
        <time>2021-08-02T08:14:02.329Z</time>
      </trkpt>
      <trkpt lat="47.0483" lon="9.04842">
        <ele>545</ele>
        <time>2021-08-02T08:14:03.329Z</time>
      </trkpt>
      <trkpt lat="47.04829" lon="9.0484">
        <ele>544</ele>
        <time>2021-08-02T08:14:04.329Z</time>
      </trkpt>
      <trkpt lat="47.04829" lon="9.04838">
        <ele>544</ele>
        <time>2021-08-02T08:14:05.329Z</time>
      </trkpt>
      <trkpt lat="47.04828" lon="9.04837">
        <ele>543</ele>
        <time>2021-08-02T08:14:06.329Z</time>
      </trkpt>
      <trkpt lat="47.04828" lon="9.04836">
        <ele>543</ele>
        <time>2021-08-02T08:14:07.329Z</time>
      </trkpt>
      <trkpt lat="47.04827" lon="9.04834">
        <ele>542</ele>
        <time>2021-08-02T08:14:08.329Z</time>
      </trkpt>
      <trkpt lat="47.04827" lon="9.04833">
        <ele>542</ele>
        <time>2021-08-02T08:14:09.328Z</time>
      </trkpt>
      <trkpt lat="47.04827" lon="9.04831">
        <ele>542</ele>
        <time>2021-08-02T08:14:10.328Z</time>
      </trkpt>
      <trkpt lat="47.04826" lon="9.04831">
        <ele>541</ele>
        <time>2021-08-02T08:14:11.329Z</time>
      </trkpt>
      <trkpt lat="47.04826" lon="9.04831">
        <ele>541</ele>
        <time>2021-08-02T08:14:12.329Z</time>
      </trkpt>
      <trkpt lat="47.04825" lon="9.04831">
        <ele>540</ele>
        <time>2021-08-02T08:14:13.329Z</time>
      </trkpt>
      <trkpt lat="47.04825" lon="9.04831">
        <ele>536</ele>
        <time>2021-08-02T08:14:14.329Z</time>
      </trkpt>
      <trkpt lat="47.04825" lon="9.0483">
        <ele>536</ele>
        <time>2021-08-02T08:14:15.330Z</time>
      </trkpt>
      <trkpt lat="47.04826" lon="9.04829">
        <ele>536</ele>
        <time>2021-08-02T08:14:16.330Z</time>
      </trkpt>
      <trkpt lat="47.04827" lon="9.04826">
        <ele>536</ele>
        <time>2021-08-02T08:14:17.329Z</time>
      </trkpt>
      <trkpt lat="47.04828" lon="9.04825">
        <ele>536</ele>
        <time>2021-08-02T08:14:18.330Z</time>
      </trkpt>
      <trkpt lat="47.04828" lon="9.04824">
        <ele>536</ele>
        <time>2021-08-02T08:14:19.329Z</time>
      </trkpt>
      <trkpt lat="47.04828" lon="9.04823">
        <ele>536</ele>
        <time>2021-08-02T08:14:20.330Z</time>
      </trkpt>
      <trkpt lat="47.04828" lon="9.04821">
        <ele>536</ele>
        <time>2021-08-02T08:14:21.330Z</time>
      </trkpt>
      <trkpt lat="47.04828" lon="9.0482">
        <ele>535</ele>
        <time>2021-08-02T08:14:22.330Z</time>
      </trkpt>
      <trkpt lat="47.04827" lon="9.04818">
        <ele>535</ele>
        <time>2021-08-02T08:14:23.330Z</time>
      </trkpt>
      <trkpt lat="47.04826" lon="9.04817">
        <ele>534</ele>
        <time>2021-08-02T08:14:24.329Z</time>
      </trkpt>
      <trkpt lat="47.04826" lon="9.04815">
        <ele>534</ele>
        <time>2021-08-02T08:14:25.330Z</time>
      </trkpt>
      <trkpt lat="47.04826" lon="9.04814">
        <ele>533</ele>
        <time>2021-08-02T08:14:26.330Z</time>
      </trkpt>
      <trkpt lat="47.04825" lon="9.04813">
        <ele>533</ele>
        <time>2021-08-02T08:14:27.329Z</time>
      </trkpt>
      <trkpt lat="47.04825" lon="9.04812">
        <ele>533</ele>
        <time>2021-08-02T08:14:28.329Z</time>
      </trkpt>
      <trkpt lat="47.04826" lon="9.0481">
        <ele>533</ele>
        <time>2021-08-02T08:14:29.329Z</time>
      </trkpt>
      <trkpt lat="47.04826" lon="9.04808">
        <ele>533</ele>
        <time>2021-08-02T08:14:30.330Z</time>
      </trkpt>
      <trkpt lat="47.04827" lon="9.04807">
        <ele>534</ele>
        <time>2021-08-02T08:14:31.329Z</time>
      </trkpt>
      <trkpt lat="47.04827" lon="9.04805">
        <ele>534</ele>
        <time>2021-08-02T08:14:32.329Z</time>
      </trkpt>
      <trkpt lat="47.04827" lon="9.04804">
        <ele>535</ele>
        <time>2021-08-02T08:14:33.329Z</time>
      </trkpt>
      <trkpt lat="47.04827" lon="9.04803">
        <ele>535</ele>
        <time>2021-08-02T08:14:34.329Z</time>
      </trkpt>
      <trkpt lat="47.04826" lon="9.04801">
        <ele>536</ele>
        <time>2021-08-02T08:14:35.329Z</time>
      </trkpt>
      <trkpt lat="47.04825" lon="9.048">
        <ele>536</ele>
        <time>2021-08-02T08:14:36.329Z</time>
      </trkpt>
      <trkpt lat="47.04825" lon="9.04799">
        <ele>537</ele>
        <time>2021-08-02T08:14:37.329Z</time>
      </trkpt>
      <trkpt lat="47.04824" lon="9.04798">
        <ele>537</ele>
        <time>2021-08-02T08:14:38.329Z</time>
      </trkpt>
      <trkpt lat="47.04824" lon="9.04797">
        <ele>538</ele>
        <time>2021-08-02T08:14:39.329Z</time>
      </trkpt>
      <trkpt lat="47.04824" lon="9.04795">
        <ele>539</ele>
        <time>2021-08-02T08:14:40.329Z</time>
      </trkpt>
      <trkpt lat="47.04824" lon="9.04794">
        <ele>540</ele>
        <time>2021-08-02T08:14:41.330Z</time>
      </trkpt>
      <trkpt lat="47.04824" lon="9.04793">
        <ele>540</ele>
        <time>2021-08-02T08:14:42.329Z</time>
      </trkpt>
      <trkpt lat="47.04824" lon="9.04791">
        <ele>541</ele>
        <time>2021-08-02T08:14:43.330Z</time>
      </trkpt>
      <trkpt lat="47.04824" lon="9.0479">
        <ele>541</ele>
        <time>2021-08-02T08:14:44.329Z</time>
      </trkpt>
      <trkpt lat="47.04824" lon="9.04788">
        <ele>541</ele>
        <time>2021-08-02T08:14:45.329Z</time>
      </trkpt>
      <trkpt lat="47.04824" lon="9.04787">
        <ele>541</ele>
        <time>2021-08-02T08:14:46.329Z</time>
      </trkpt>
      <trkpt lat="47.04824" lon="9.04785">
        <ele>542</ele>
        <time>2021-08-02T08:14:47.329Z</time>
      </trkpt>
      <trkpt lat="47.04824" lon="9.04784">
        <ele>542</ele>
        <time>2021-08-02T08:14:48.329Z</time>
      </trkpt>
      <trkpt lat="47.04824" lon="9.04783">
        <ele>543</ele>
        <time>2021-08-02T08:14:49.329Z</time>
      </trkpt>
      <trkpt lat="47.04824" lon="9.04782">
        <ele>543</ele>
        <time>2021-08-02T08:14:50.329Z</time>
      </trkpt>
      <trkpt lat="47.04824" lon="9.04781">
        <ele>543</ele>
        <time>2021-08-02T08:14:51.329Z</time>
      </trkpt>
      <trkpt lat="47.04824" lon="9.0478">
        <ele>543</ele>
        <time>2021-08-02T08:14:52.330Z</time>
      </trkpt>
      <trkpt lat="47.04824" lon="9.04779">
        <ele>542</ele>
        <time>2021-08-02T08:14:53.330Z</time>
      </trkpt>
      <trkpt lat="47.04824" lon="9.04777">
        <ele>542</ele>
        <time>2021-08-02T08:14:54.329Z</time>
      </trkpt>
      <trkpt lat="47.04825" lon="9.04776">
        <ele>542</ele>
        <time>2021-08-02T08:14:55.330Z</time>
      </trkpt>
      <trkpt lat="47.04825" lon="9.04774">
        <ele>542</ele>
        <time>2021-08-02T08:14:56.330Z</time>
      </trkpt>
      <trkpt lat="47.04825" lon="9.04773">
        <ele>542</ele>
        <time>2021-08-02T08:14:57.330Z</time>
      </trkpt>
      <trkpt lat="47.04824" lon="9.04772">
        <ele>542</ele>
        <time>2021-08-02T08:14:58.330Z</time>
      </trkpt>
      <trkpt lat="47.04824" lon="9.04771">
        <ele>542</ele>
        <time>2021-08-02T08:14:59.329Z</time>
      </trkpt>
      <trkpt lat="47.04824" lon="9.04769">
        <ele>542</ele>
        <time>2021-08-02T08:15:00.330Z</time>
      </trkpt>
      <trkpt lat="47.04825" lon="9.04768">
        <ele>542</ele>
        <time>2021-08-02T08:15:01.330Z</time>
      </trkpt>
      <trkpt lat="47.04825" lon="9.04767">
        <ele>542</ele>
        <time>2021-08-02T08:15:02.330Z</time>
      </trkpt>
      <trkpt lat="47.04825" lon="9.04765">
        <ele>542</ele>
        <time>2021-08-02T08:15:03.330Z</time>
      </trkpt>
      <trkpt lat="47.04826" lon="9.04764">
        <ele>542</ele>
        <time>2021-08-02T08:15:04.330Z</time>
      </trkpt>
      <trkpt lat="47.04826" lon="9.04762">
        <ele>541</ele>
        <time>2021-08-02T08:15:05.329Z</time>
      </trkpt>
      <trkpt lat="47.04826" lon="9.04761">
        <ele>541</ele>
        <time>2021-08-02T08:15:06.329Z</time>
      </trkpt>
      <trkpt lat="47.04827" lon="9.0476">
        <ele>541</ele>
        <time>2021-08-02T08:15:07.329Z</time>
      </trkpt>
      <trkpt lat="47.04827" lon="9.04758">
        <ele>541</ele>
        <time>2021-08-02T08:15:08.330Z</time>
      </trkpt>
      <trkpt lat="47.04828" lon="9.04757">
        <ele>541</ele>
        <time>2021-08-02T08:15:09.330Z</time>
      </trkpt>
      <trkpt lat="47.04829" lon="9.04756">
        <ele>541</ele>
        <time>2021-08-02T08:15:10.330Z</time>
      </trkpt>
      <trkpt lat="47.04829" lon="9.04754">
        <ele>542</ele>
        <time>2021-08-02T08:15:11.330Z</time>
      </trkpt>
      <trkpt lat="47.04829" lon="9.04753">
        <ele>542</ele>
        <time>2021-08-02T08:15:12.330Z</time>
      </trkpt>
      <trkpt lat="47.04829" lon="9.04751">
        <ele>543</ele>
        <time>2021-08-02T08:15:13.329Z</time>
      </trkpt>
      <trkpt lat="47.0483" lon="9.04749">
        <ele>543</ele>
        <time>2021-08-02T08:15:14.330Z</time>
      </trkpt>
      <trkpt lat="47.0483" lon="9.04748">
        <ele>544</ele>
        <time>2021-08-02T08:15:15.330Z</time>
      </trkpt>
      <trkpt lat="47.0483" lon="9.04746">
        <ele>544</ele>
        <time>2021-08-02T08:15:16.329Z</time>
      </trkpt>
      <trkpt lat="47.0483" lon="9.04744">
        <ele>544</ele>
        <time>2021-08-02T08:15:17.330Z</time>
      </trkpt>
      <trkpt lat="47.0483" lon="9.04743">
        <ele>544</ele>
        <time>2021-08-02T08:15:18.330Z</time>
      </trkpt>
      <trkpt lat="47.0483" lon="9.04741">
        <ele>544</ele>
        <time>2021-08-02T08:15:19.330Z</time>
      </trkpt>
      <trkpt lat="47.04831" lon="9.0474">
        <ele>544</ele>
        <time>2021-08-02T08:15:20.330Z</time>
      </trkpt>
      <trkpt lat="47.04831" lon="9.04738">
        <ele>544</ele>
        <time>2021-08-02T08:15:21.330Z</time>
      </trkpt>
      <trkpt lat="47.04831" lon="9.04737">
        <ele>543</ele>
        <time>2021-08-02T08:15:22.330Z</time>
      </trkpt>
      <trkpt lat="47.0483" lon="9.04735">
        <ele>543</ele>
        <time>2021-08-02T08:15:23.330Z</time>
      </trkpt>
      <trkpt lat="47.04829" lon="9.04734">
        <ele>543</ele>
        <time>2021-08-02T08:15:24.330Z</time>
      </trkpt>
      <trkpt lat="47.04828" lon="9.04732">
        <ele>542</ele>
        <time>2021-08-02T08:15:25.329Z</time>
      </trkpt>
      <trkpt lat="47.04828" lon="9.04731">
        <ele>542</ele>
        <time>2021-08-02T08:15:26.330Z</time>
      </trkpt>
      <trkpt lat="47.04828" lon="9.04729">
        <ele>541</ele>
        <time>2021-08-02T08:15:27.329Z</time>
      </trkpt>
      <trkpt lat="47.04827" lon="9.04727">
        <ele>541</ele>
        <time>2021-08-02T08:15:28.330Z</time>
      </trkpt>
      <trkpt lat="47.04827" lon="9.04726">
        <ele>541</ele>
        <time>2021-08-02T08:15:29.329Z</time>
      </trkpt>
      <trkpt lat="47.04826" lon="9.04725">
        <ele>541</ele>
        <time>2021-08-02T08:15:30.330Z</time>
      </trkpt>
      <trkpt lat="47.04826" lon="9.04723">
        <ele>541</ele>
        <time>2021-08-02T08:15:31.330Z</time>
      </trkpt>
      <trkpt lat="47.04826" lon="9.04722">
        <ele>542</ele>
        <time>2021-08-02T08:15:32.330Z</time>
      </trkpt>
      <trkpt lat="47.04826" lon="9.04721">
        <ele>542</ele>
        <time>2021-08-02T08:15:33.330Z</time>
      </trkpt>
      <trkpt lat="47.04825" lon="9.0472">
        <ele>542</ele>
        <time>2021-08-02T08:15:34.329Z</time>
      </trkpt>
      <trkpt lat="47.04825" lon="9.04718">
        <ele>542</ele>
        <time>2021-08-02T08:15:35.330Z</time>
      </trkpt>
      <trkpt lat="47.04824" lon="9.04717">
        <ele>542</ele>
        <time>2021-08-02T08:15:36.329Z</time>
      </trkpt>
      <trkpt lat="47.04823" lon="9.04716">
        <ele>542</ele>
        <time>2021-08-02T08:15:37.330Z</time>
      </trkpt>
      <trkpt lat="47.04822" lon="9.04714">
        <ele>542</ele>
        <time>2021-08-02T08:15:38.329Z</time>
      </trkpt>
      <trkpt lat="47.04821" lon="9.04713">
        <ele>542</ele>
        <time>2021-08-02T08:15:39.329Z</time>
      </trkpt>
      <trkpt lat="47.0482" lon="9.04712">
        <ele>542</ele>
        <time>2021-08-02T08:15:40.330Z</time>
      </trkpt>
      <trkpt lat="47.0482" lon="9.0471">
        <ele>541</ele>
        <time>2021-08-02T08:15:41.330Z</time>
      </trkpt>
      <trkpt lat="47.04819" lon="9.04709">
        <ele>541</ele>
        <time>2021-08-02T08:15:42.330Z</time>
      </trkpt>
      <trkpt lat="47.04818" lon="9.04708">
        <ele>541</ele>
        <time>2021-08-02T08:15:43.329Z</time>
      </trkpt>
      <trkpt lat="47.04818" lon="9.04706">
        <ele>542</ele>
        <time>2021-08-02T08:15:44.330Z</time>
      </trkpt>
      <trkpt lat="47.04817" lon="9.04704">
        <ele>542</ele>
        <time>2021-08-02T08:15:45.330Z</time>
      </trkpt>
      <trkpt lat="47.04816" lon="9.04702">
        <ele>543</ele>
        <time>2021-08-02T08:15:46.330Z</time>
      </trkpt>
      <trkpt lat="47.04815" lon="9.04702">
        <ele>543</ele>
        <time>2021-08-02T08:15:47.330Z</time>
      </trkpt>
      <trkpt lat="47.04814" lon="9.04701">
        <ele>544</ele>
        <time>2021-08-02T08:15:48.330Z</time>
      </trkpt>
      <trkpt lat="47.04812" lon="9.04699">
        <ele>544</ele>
        <time>2021-08-02T08:15:49.329Z</time>
      </trkpt>
      <trkpt lat="47.04811" lon="9.04698">
        <ele>544</ele>
        <time>2021-08-02T08:15:50.329Z</time>
      </trkpt>
      <trkpt lat="47.0481" lon="9.04696">
        <ele>545</ele>
        <time>2021-08-02T08:15:51.330Z</time>
      </trkpt>
      <trkpt lat="47.04809" lon="9.04695">
        <ele>545</ele>
        <time>2021-08-02T08:15:52.329Z</time>
      </trkpt>
      <trkpt lat="47.04809" lon="9.04694">
        <ele>545</ele>
        <time>2021-08-02T08:15:53.330Z</time>
      </trkpt>
      <trkpt lat="47.04808" lon="9.04692">
        <ele>546</ele>
        <time>2021-08-02T08:15:54.330Z</time>
      </trkpt>
      <trkpt lat="47.04807" lon="9.04691">
        <ele>546</ele>
        <time>2021-08-02T08:15:55.330Z</time>
      </trkpt>
      <trkpt lat="47.04806" lon="9.0469">
        <ele>547</ele>
        <time>2021-08-02T08:15:56.330Z</time>
      </trkpt>
      <trkpt lat="47.04806" lon="9.04689">
        <ele>547</ele>
        <time>2021-08-02T08:15:57.330Z</time>
      </trkpt>
      <trkpt lat="47.04805" lon="9.04689">
        <ele>547</ele>
        <time>2021-08-02T08:15:58.329Z</time>
      </trkpt>
      <trkpt lat="47.04804" lon="9.04688">
        <ele>547</ele>
        <time>2021-08-02T08:15:59.330Z</time>
      </trkpt>
      <trkpt lat="47.04804" lon="9.04688">
        <ele>547</ele>
        <time>2021-08-02T08:16:00.330Z</time>
      </trkpt>
      <trkpt lat="47.04803" lon="9.04687">
        <ele>546</ele>
        <time>2021-08-02T08:16:01.330Z</time>
      </trkpt>
      <trkpt lat="47.04802" lon="9.04686">
        <ele>546</ele>
        <time>2021-08-02T08:16:02.330Z</time>
      </trkpt>
      <trkpt lat="47.04801" lon="9.04685">
        <ele>545</ele>
        <time>2021-08-02T08:16:03.330Z</time>
      </trkpt>
      <trkpt lat="47.048" lon="9.04684">
        <ele>545</ele>
        <time>2021-08-02T08:16:04.330Z</time>
      </trkpt>
      <trkpt lat="47.04799" lon="9.04683">
        <ele>544</ele>
        <time>2021-08-02T08:16:05.330Z</time>
      </trkpt>
      <trkpt lat="47.04799" lon="9.04682">
        <ele>544</ele>
        <time>2021-08-02T08:16:06.330Z</time>
      </trkpt>
      <trkpt lat="47.04798" lon="9.04681">
        <ele>544</ele>
        <time>2021-08-02T08:16:07.330Z</time>
      </trkpt>
      <trkpt lat="47.04797" lon="9.0468">
        <ele>543</ele>
        <time>2021-08-02T08:16:08.329Z</time>
      </trkpt>
      <trkpt lat="47.04796" lon="9.04679">
        <ele>543</ele>
        <time>2021-08-02T08:16:09.329Z</time>
      </trkpt>
      <trkpt lat="47.04795" lon="9.04678">
        <ele>543</ele>
        <time>2021-08-02T08:16:10.330Z</time>
      </trkpt>
      <trkpt lat="47.04795" lon="9.04677">
        <ele>542</ele>
        <time>2021-08-02T08:16:11.330Z</time>
      </trkpt>
      <trkpt lat="47.04794" lon="9.04676">
        <ele>541</ele>
        <time>2021-08-02T08:16:12.330Z</time>
      </trkpt>
      <trkpt lat="47.04794" lon="9.04676">
        <ele>541</ele>
        <time>2021-08-02T08:16:13.330Z</time>
      </trkpt>
      <trkpt lat="47.04793" lon="9.04674">
        <ele>540</ele>
        <time>2021-08-02T08:16:14.330Z</time>
      </trkpt>
      <trkpt lat="47.04792" lon="9.04673">
        <ele>540</ele>
        <time>2021-08-02T08:16:15.330Z</time>
      </trkpt>
      <trkpt lat="47.04791" lon="9.04671">
        <ele>540</ele>
        <time>2021-08-02T08:16:16.330Z</time>
      </trkpt>
      <trkpt lat="47.04791" lon="9.04669">
        <ele>540</ele>
        <time>2021-08-02T08:16:17.330Z</time>
      </trkpt>
      <trkpt lat="47.04791" lon="9.04667">
        <ele>540</ele>
        <time>2021-08-02T08:16:18.330Z</time>
      </trkpt>
      <trkpt lat="47.0479" lon="9.04666">
        <ele>541</ele>
        <time>2021-08-02T08:16:19.330Z</time>
      </trkpt>
      <trkpt lat="47.04789" lon="9.04665">
        <ele>541</ele>
        <time>2021-08-02T08:16:20.330Z</time>
      </trkpt>
      <trkpt lat="47.04789" lon="9.04664">
        <ele>542</ele>
        <time>2021-08-02T08:16:21.330Z</time>
      </trkpt>
      <trkpt lat="47.04788" lon="9.04663">
        <ele>543</ele>
        <time>2021-08-02T08:16:22.330Z</time>
      </trkpt>
      <trkpt lat="47.04787" lon="9.04661">
        <ele>543</ele>
        <time>2021-08-02T08:16:23.330Z</time>
      </trkpt>
      <trkpt lat="47.04786" lon="9.0466">
        <ele>543</ele>
        <time>2021-08-02T08:16:24.330Z</time>
      </trkpt>
      <trkpt lat="47.04786" lon="9.04659">
        <ele>544</ele>
        <time>2021-08-02T08:16:25.330Z</time>
      </trkpt>
      <trkpt lat="47.04785" lon="9.04657">
        <ele>544</ele>
        <time>2021-08-02T08:16:26.330Z</time>
      </trkpt>
      <trkpt lat="47.04783" lon="9.04656">
        <ele>544</ele>
        <time>2021-08-02T08:16:27.329Z</time>
      </trkpt>
      <trkpt lat="47.04783" lon="9.04654">
        <ele>544</ele>
        <time>2021-08-02T08:16:28.330Z</time>
      </trkpt>
      <trkpt lat="47.04782" lon="9.04653">
        <ele>544</ele>
        <time>2021-08-02T08:16:29.330Z</time>
      </trkpt>
      <trkpt lat="47.04782" lon="9.04652">
        <ele>545</ele>
        <time>2021-08-02T08:16:30.330Z</time>
      </trkpt>
      <trkpt lat="47.04781" lon="9.04651">
        <ele>544</ele>
        <time>2021-08-02T08:16:31.329Z</time>
      </trkpt>
      <trkpt lat="47.0478" lon="9.04651">
        <ele>545</ele>
        <time>2021-08-02T08:16:32.330Z</time>
      </trkpt>
      <trkpt lat="47.04779" lon="9.0465">
        <ele>545</ele>
        <time>2021-08-02T08:16:33.329Z</time>
      </trkpt>
      <trkpt lat="47.04779" lon="9.04649">
        <ele>545</ele>
        <time>2021-08-02T08:16:34.330Z</time>
      </trkpt>
      <trkpt lat="47.04779" lon="9.04648">
        <ele>545</ele>
        <time>2021-08-02T08:16:35.330Z</time>
      </trkpt>
      <trkpt lat="47.04778" lon="9.04648">
        <ele>545</ele>
        <time>2021-08-02T08:16:36.330Z</time>
      </trkpt>
      <trkpt lat="47.04778" lon="9.04647">
        <ele>545</ele>
        <time>2021-08-02T08:16:37.330Z</time>
      </trkpt>
      <trkpt lat="47.04778" lon="9.04646">
        <ele>545</ele>
        <time>2021-08-02T08:16:38.329Z</time>
      </trkpt>
      <trkpt lat="47.04777" lon="9.04644">
        <ele>545</ele>
        <time>2021-08-02T08:16:39.330Z</time>
      </trkpt>
      <trkpt lat="47.04777" lon="9.04643">
        <ele>546</ele>
        <time>2021-08-02T08:16:40.330Z</time>
      </trkpt>
      <trkpt lat="47.04776" lon="9.04641">
        <ele>546</ele>
        <time>2021-08-02T08:16:41.329Z</time>
      </trkpt>
      <trkpt lat="47.04775" lon="9.04639">
        <ele>547</ele>
        <time>2021-08-02T08:16:42.330Z</time>
      </trkpt>
      <trkpt lat="47.04774" lon="9.04638">
        <ele>547</ele>
        <time>2021-08-02T08:16:43.330Z</time>
      </trkpt>
      <trkpt lat="47.04773" lon="9.04638">
        <ele>547</ele>
        <time>2021-08-02T08:16:44.329Z</time>
      </trkpt>
      <trkpt lat="47.04773" lon="9.04637">
        <ele>548</ele>
        <time>2021-08-02T08:16:45.330Z</time>
      </trkpt>
      <trkpt lat="47.04773" lon="9.04635">
        <ele>548</ele>
        <time>2021-08-02T08:16:46.330Z</time>
      </trkpt>
      <trkpt lat="47.04773" lon="9.04633">
        <ele>548</ele>
        <time>2021-08-02T08:16:47.330Z</time>
      </trkpt>
      <trkpt lat="47.04773" lon="9.04632">
        <ele>548</ele>
        <time>2021-08-02T08:16:48.329Z</time>
      </trkpt>
      <trkpt lat="47.04773" lon="9.04631">
        <ele>548</ele>
        <time>2021-08-02T08:16:49.330Z</time>
      </trkpt>
      <trkpt lat="47.04773" lon="9.04629">
        <ele>549</ele>
        <time>2021-08-02T08:16:50.330Z</time>
      </trkpt>
      <trkpt lat="47.04773" lon="9.04627">
        <ele>549</ele>
        <time>2021-08-02T08:16:51.329Z</time>
      </trkpt>
      <trkpt lat="47.04774" lon="9.04627">
        <ele>549</ele>
        <time>2021-08-02T08:16:52.329Z</time>
      </trkpt>
      <trkpt lat="47.04774" lon="9.04625">
        <ele>549</ele>
        <time>2021-08-02T08:16:53.330Z</time>
      </trkpt>
      <trkpt lat="47.04773" lon="9.04623">
        <ele>549</ele>
        <time>2021-08-02T08:16:54.330Z</time>
      </trkpt>
      <trkpt lat="47.04773" lon="9.04621">
        <ele>550</ele>
        <time>2021-08-02T08:16:55.330Z</time>
      </trkpt>
      <trkpt lat="47.04774" lon="9.04619">
        <ele>550</ele>
        <time>2021-08-02T08:16:56.330Z</time>
      </trkpt>
      <trkpt lat="47.04773" lon="9.04618">
        <ele>551</ele>
        <time>2021-08-02T08:16:57.329Z</time>
      </trkpt>
      <trkpt lat="47.04773" lon="9.04617">
        <ele>552</ele>
        <time>2021-08-02T08:16:58.330Z</time>
      </trkpt>
      <trkpt lat="47.04773" lon="9.04615">
        <ele>553</ele>
        <time>2021-08-02T08:16:59.329Z</time>
      </trkpt>
      <trkpt lat="47.04774" lon="9.04614">
        <ele>554</ele>
        <time>2021-08-02T08:17:00.330Z</time>
      </trkpt>
      <trkpt lat="47.04774" lon="9.04613">
        <ele>556</ele>
        <time>2021-08-02T08:17:01.330Z</time>
      </trkpt>
      <trkpt lat="47.04774" lon="9.04611">
        <ele>557</ele>
        <time>2021-08-02T08:17:02.330Z</time>
      </trkpt>
      <trkpt lat="47.04774" lon="9.04609">
        <ele>558</ele>
        <time>2021-08-02T08:17:03.329Z</time>
      </trkpt>
      <trkpt lat="47.04772" lon="9.04608">
        <ele>559</ele>
        <time>2021-08-02T08:17:04.329Z</time>
      </trkpt>
      <trkpt lat="47.04771" lon="9.04606">
        <ele>559</ele>
        <time>2021-08-02T08:17:05.329Z</time>
      </trkpt>
      <trkpt lat="47.0477" lon="9.04605">
        <ele>560</ele>
        <time>2021-08-02T08:17:06.330Z</time>
      </trkpt>
      <trkpt lat="47.04769" lon="9.04603">
        <ele>560</ele>
        <time>2021-08-02T08:17:07.329Z</time>
      </trkpt>
      <trkpt lat="47.0477" lon="9.04602">
        <ele>561</ele>
        <time>2021-08-02T08:17:08.330Z</time>
      </trkpt>
      <trkpt lat="47.0477" lon="9.046">
        <ele>561</ele>
        <time>2021-08-02T08:17:09.329Z</time>
      </trkpt>
      <trkpt lat="47.0477" lon="9.04599">
        <ele>562</ele>
        <time>2021-08-02T08:17:10.330Z</time>
      </trkpt>
      <trkpt lat="47.0477" lon="9.04598">
        <ele>563</ele>
        <time>2021-08-02T08:17:11.329Z</time>
      </trkpt>
      <trkpt lat="47.0477" lon="9.04597">
        <ele>564</ele>
        <time>2021-08-02T08:17:12.330Z</time>
      </trkpt>
      <trkpt lat="47.04769" lon="9.04596">
        <ele>564</ele>
        <time>2021-08-02T08:17:13.330Z</time>
      </trkpt>
      <trkpt lat="47.04769" lon="9.04596">
        <ele>565</ele>
        <time>2021-08-02T08:17:14.330Z</time>
      </trkpt>
      <trkpt lat="47.04768" lon="9.04595">
        <ele>566</ele>
        <time>2021-08-02T08:17:15.330Z</time>
      </trkpt>
      <trkpt lat="47.04768" lon="9.04595">
        <ele>566</ele>
        <time>2021-08-02T08:17:16.329Z</time>
      </trkpt>
      <trkpt lat="47.04768" lon="9.04594">
        <ele>567</ele>
        <time>2021-08-02T08:17:17.329Z</time>
      </trkpt>
      <trkpt lat="47.04768" lon="9.04592">
        <ele>567</ele>
        <time>2021-08-02T08:17:18.329Z</time>
      </trkpt>
      <trkpt lat="47.04768" lon="9.04591">
        <ele>568</ele>
        <time>2021-08-02T08:17:19.329Z</time>
      </trkpt>
      <trkpt lat="47.04768" lon="9.0459">
        <ele>568</ele>
        <time>2021-08-02T08:17:20.330Z</time>
      </trkpt>
      <trkpt lat="47.04768" lon="9.04589">
        <ele>569</ele>
        <time>2021-08-02T08:17:21.329Z</time>
      </trkpt>
      <trkpt lat="47.04769" lon="9.04588">
        <ele>569</ele>
        <time>2021-08-02T08:17:22.330Z</time>
      </trkpt>
      <trkpt lat="47.0477" lon="9.04587">
        <ele>570</ele>
        <time>2021-08-02T08:17:23.330Z</time>
      </trkpt>
      <trkpt lat="47.0477" lon="9.04586">
        <ele>570</ele>
        <time>2021-08-02T08:17:24.329Z</time>
      </trkpt>
      <trkpt lat="47.04771" lon="9.04584">
        <ele>570</ele>
        <time>2021-08-02T08:17:25.330Z</time>
      </trkpt>
      <trkpt lat="47.04771" lon="9.04583">
        <ele>570</ele>
        <time>2021-08-02T08:17:26.330Z</time>
      </trkpt>
      <trkpt lat="47.04771" lon="9.04581">
        <ele>571</ele>
        <time>2021-08-02T08:17:27.329Z</time>
      </trkpt>
      <trkpt lat="47.04771" lon="9.0458">
        <ele>571</ele>
        <time>2021-08-02T08:17:28.330Z</time>
      </trkpt>
      <trkpt lat="47.04771" lon="9.04579">
        <ele>571</ele>
        <time>2021-08-02T08:17:29.329Z</time>
      </trkpt>
      <trkpt lat="47.04772" lon="9.04576">
        <ele>572</ele>
        <time>2021-08-02T08:17:30.329Z</time>
      </trkpt>
      <trkpt lat="47.04772" lon="9.04575">
        <ele>571</ele>
        <time>2021-08-02T08:17:31.329Z</time>
      </trkpt>
      <trkpt lat="47.04773" lon="9.04574">
        <ele>571</ele>
        <time>2021-08-02T08:17:32.330Z</time>
      </trkpt>
      <trkpt lat="47.04774" lon="9.04572">
        <ele>571</ele>
        <time>2021-08-02T08:17:33.329Z</time>
      </trkpt>
      <trkpt lat="47.04774" lon="9.0457">
        <ele>571</ele>
        <time>2021-08-02T08:17:34.329Z</time>
      </trkpt>
      <trkpt lat="47.04774" lon="9.04568">
        <ele>571</ele>
        <time>2021-08-02T08:17:35.330Z</time>
      </trkpt>
      <trkpt lat="47.04774" lon="9.04567">
        <ele>571</ele>
        <time>2021-08-02T08:17:36.330Z</time>
      </trkpt>
      <trkpt lat="47.04774" lon="9.04566">
        <ele>571</ele>
        <time>2021-08-02T08:17:37.330Z</time>
      </trkpt>
      <trkpt lat="47.04773" lon="9.04565">
        <ele>571</ele>
        <time>2021-08-02T08:17:38.329Z</time>
      </trkpt>
      <trkpt lat="47.04772" lon="9.04564">
        <ele>571</ele>
        <time>2021-08-02T08:17:39.329Z</time>
      </trkpt>
      <trkpt lat="47.04772" lon="9.04563">
        <ele>572</ele>
        <time>2021-08-02T08:17:40.329Z</time>
      </trkpt>
      <trkpt lat="47.04772" lon="9.04562">
        <ele>572</ele>
        <time>2021-08-02T08:17:41.330Z</time>
      </trkpt>
      <trkpt lat="47.04772" lon="9.04561">
        <ele>572</ele>
        <time>2021-08-02T08:17:42.330Z</time>
      </trkpt>
      <trkpt lat="47.04772" lon="9.0456">
        <ele>572</ele>
        <time>2021-08-02T08:17:43.330Z</time>
      </trkpt>
      <trkpt lat="47.04772" lon="9.04559">
        <ele>572</ele>
        <time>2021-08-02T08:17:44.330Z</time>
      </trkpt>
      <trkpt lat="47.04771" lon="9.04558">
        <ele>572</ele>
        <time>2021-08-02T08:17:45.330Z</time>
      </trkpt>
      <trkpt lat="47.0477" lon="9.04556">
        <ele>572</ele>
        <time>2021-08-02T08:17:46.330Z</time>
      </trkpt>
      <trkpt lat="47.04769" lon="9.04555">
        <ele>572</ele>
        <time>2021-08-02T08:17:47.330Z</time>
      </trkpt>
      <trkpt lat="47.04769" lon="9.04554">
        <ele>572</ele>
        <time>2021-08-02T08:17:48.330Z</time>
      </trkpt>
      <trkpt lat="47.04769" lon="9.04553">
        <ele>572</ele>
        <time>2021-08-02T08:17:49.330Z</time>
      </trkpt>
      <trkpt lat="47.04769" lon="9.04552">
        <ele>572</ele>
        <time>2021-08-02T08:17:50.330Z</time>
      </trkpt>
      <trkpt lat="47.04769" lon="9.04551">
        <ele>572</ele>
        <time>2021-08-02T08:17:51.329Z</time>
      </trkpt>
      <trkpt lat="47.04769" lon="9.04551">
        <ele>572</ele>
        <time>2021-08-02T08:17:52.330Z</time>
      </trkpt>
      <trkpt lat="47.04769" lon="9.04549">
        <ele>571</ele>
        <time>2021-08-02T08:17:53.330Z</time>
      </trkpt>
      <trkpt lat="47.04768" lon="9.04548">
        <ele>571</ele>
        <time>2021-08-02T08:17:54.330Z</time>
      </trkpt>
      <trkpt lat="47.04769" lon="9.04547">
        <ele>571</ele>
        <time>2021-08-02T08:17:55.330Z</time>
      </trkpt>
      <trkpt lat="47.04769" lon="9.04546">
        <ele>571</ele>
        <time>2021-08-02T08:17:56.330Z</time>
      </trkpt>
      <trkpt lat="47.0477" lon="9.04545">
        <ele>570</ele>
        <time>2021-08-02T08:17:57.330Z</time>
      </trkpt>
      <trkpt lat="47.0477" lon="9.04543">
        <ele>570</ele>
        <time>2021-08-02T08:17:58.330Z</time>
      </trkpt>
      <trkpt lat="47.0477" lon="9.04541">
        <ele>570</ele>
        <time>2021-08-02T08:17:59.330Z</time>
      </trkpt>
      <trkpt lat="47.04771" lon="9.04539">
        <ele>569</ele>
        <time>2021-08-02T08:18:00.330Z</time>
      </trkpt>
      <trkpt lat="47.04771" lon="9.04538">
        <ele>569</ele>
        <time>2021-08-02T08:18:01.329Z</time>
      </trkpt>
      <trkpt lat="47.04772" lon="9.04537">
        <ele>569</ele>
        <time>2021-08-02T08:18:02.330Z</time>
      </trkpt>
      <trkpt lat="47.04772" lon="9.04536">
        <ele>568</ele>
        <time>2021-08-02T08:18:03.330Z</time>
      </trkpt>
      <trkpt lat="47.04772" lon="9.04534">
        <ele>568</ele>
        <time>2021-08-02T08:18:04.330Z</time>
      </trkpt>
      <trkpt lat="47.04772" lon="9.04532">
        <ele>568</ele>
        <time>2021-08-02T08:18:05.330Z</time>
      </trkpt>
      <trkpt lat="47.04773" lon="9.0453">
        <ele>568</ele>
        <time>2021-08-02T08:18:06.330Z</time>
      </trkpt>
      <trkpt lat="47.04773" lon="9.04528">
        <ele>567</ele>
        <time>2021-08-02T08:18:07.330Z</time>
      </trkpt>
      <trkpt lat="47.04774" lon="9.04527">
        <ele>567</ele>
        <time>2021-08-02T08:18:08.330Z</time>
      </trkpt>
      <trkpt lat="47.04775" lon="9.04524">
        <ele>567</ele>
        <time>2021-08-02T08:18:09.329Z</time>
      </trkpt>
      <trkpt lat="47.04775" lon="9.04523">
        <ele>567</ele>
        <time>2021-08-02T08:18:10.329Z</time>
      </trkpt>
      <trkpt lat="47.04775" lon="9.04521">
        <ele>567</ele>
        <time>2021-08-02T08:18:11.329Z</time>
      </trkpt>
      <trkpt lat="47.04774" lon="9.0452">
        <ele>567</ele>
        <time>2021-08-02T08:18:12.330Z</time>
      </trkpt>
      <trkpt lat="47.04774" lon="9.04519">
        <ele>567</ele>
        <time>2021-08-02T08:18:13.330Z</time>
      </trkpt>
      <trkpt lat="47.04774" lon="9.04517">
        <ele>567</ele>
        <time>2021-08-02T08:18:14.330Z</time>
      </trkpt>
      <trkpt lat="47.04774" lon="9.04516">
        <ele>567</ele>
        <time>2021-08-02T08:18:15.330Z</time>
      </trkpt>
      <trkpt lat="47.04774" lon="9.04515">
        <ele>567</ele>
        <time>2021-08-02T08:18:16.329Z</time>
      </trkpt>
      <trkpt lat="47.04774" lon="9.04514">
        <ele>567</ele>
        <time>2021-08-02T08:18:17.330Z</time>
      </trkpt>
      <trkpt lat="47.04774" lon="9.04513">
        <ele>567</ele>
        <time>2021-08-02T08:18:18.330Z</time>
      </trkpt>
      <trkpt lat="47.04774" lon="9.04513">
        <ele>567</ele>
        <time>2021-08-02T08:18:19.329Z</time>
      </trkpt>
      <trkpt lat="47.04773" lon="9.04513">
        <ele>567</ele>
        <time>2021-08-02T08:18:20.330Z</time>
      </trkpt>
      <trkpt lat="47.04771" lon="9.04514">
        <ele>568</ele>
        <time>2021-08-02T08:18:21.329Z</time>
      </trkpt>
      <trkpt lat="47.0477" lon="9.04513">
        <ele>568</ele>
        <time>2021-08-02T08:18:22.329Z</time>
      </trkpt>
      <trkpt lat="47.0477" lon="9.04512">
        <ele>569</ele>
        <time>2021-08-02T08:18:23.330Z</time>
      </trkpt>
      <trkpt lat="47.0477" lon="9.04511">
        <ele>569</ele>
        <time>2021-08-02T08:18:24.330Z</time>
      </trkpt>
      <trkpt lat="47.0477" lon="9.0451">
        <ele>569</ele>
        <time>2021-08-02T08:18:25.330Z</time>
      </trkpt>
      <trkpt lat="47.04769" lon="9.04509">
        <ele>569</ele>
        <time>2021-08-02T08:18:26.330Z</time>
      </trkpt>
      <trkpt lat="47.04769" lon="9.04508">
        <ele>570</ele>
        <time>2021-08-02T08:18:27.330Z</time>
      </trkpt>
      <trkpt lat="47.04769" lon="9.04508">
        <ele>570</ele>
        <time>2021-08-02T08:18:28.330Z</time>
      </trkpt>
      <trkpt lat="47.04769" lon="9.04507">
        <ele>570</ele>
        <time>2021-08-02T08:18:29.330Z</time>
      </trkpt>
      <trkpt lat="47.04768" lon="9.04506">
        <ele>571</ele>
        <time>2021-08-02T08:18:30.329Z</time>
      </trkpt>
      <trkpt lat="47.04768" lon="9.04505">
        <ele>571</ele>
        <time>2021-08-02T08:18:31.330Z</time>
      </trkpt>
      <trkpt lat="47.04768" lon="9.04505">
        <ele>572</ele>
        <time>2021-08-02T08:18:32.330Z</time>
      </trkpt>
      <trkpt lat="47.04767" lon="9.04503">
        <ele>572</ele>
        <time>2021-08-02T08:18:33.329Z</time>
      </trkpt>
      <trkpt lat="47.04767" lon="9.04502">
        <ele>573</ele>
        <time>2021-08-02T08:18:34.330Z</time>
      </trkpt>
      <trkpt lat="47.04767" lon="9.04501">
        <ele>574</ele>
        <time>2021-08-02T08:18:35.330Z</time>
      </trkpt>
      <trkpt lat="47.04767" lon="9.045">
        <ele>574</ele>
        <time>2021-08-02T08:18:36.330Z</time>
      </trkpt>
      <trkpt lat="47.04766" lon="9.045">
        <ele>575</ele>
        <time>2021-08-02T08:18:37.330Z</time>
      </trkpt>
      <trkpt lat="47.04766" lon="9.045">
        <ele>576</ele>
        <time>2021-08-02T08:18:38.330Z</time>
      </trkpt>
      <trkpt lat="47.04766" lon="9.04499">
        <ele>576</ele>
        <time>2021-08-02T08:18:39.330Z</time>
      </trkpt>
      <trkpt lat="47.04767" lon="9.04498">
        <ele>576</ele>
        <time>2021-08-02T08:18:40.329Z</time>
      </trkpt>
      <trkpt lat="47.04767" lon="9.04499">
        <ele>576</ele>
        <time>2021-08-02T08:18:41.329Z</time>
      </trkpt>
      <trkpt lat="47.04767" lon="9.045">
        <ele>576</ele>
        <time>2021-08-02T08:18:42.330Z</time>
      </trkpt>
      <trkpt lat="47.04766" lon="9.04496">
        <ele>577</ele>
        <time>2021-08-02T08:18:43.330Z</time>
      </trkpt>
      <trkpt lat="47.04766" lon="9.04495">
        <ele>577</ele>
        <time>2021-08-02T08:18:44.330Z</time>
      </trkpt>
      <trkpt lat="47.04766" lon="9.04494">
        <ele>577</ele>
        <time>2021-08-02T08:18:45.329Z</time>
      </trkpt>
      <trkpt lat="47.04766" lon="9.04494">
        <ele>577</ele>
        <time>2021-08-02T08:18:46.329Z</time>
      </trkpt>
      <trkpt lat="47.04766" lon="9.04493">
        <ele>577</ele>
        <time>2021-08-02T08:18:47.329Z</time>
      </trkpt>
      <trkpt lat="47.04766" lon="9.04492">
        <ele>577</ele>
        <time>2021-08-02T08:18:48.329Z</time>
      </trkpt>
      <trkpt lat="47.04766" lon="9.04492">
        <ele>577</ele>
        <time>2021-08-02T08:18:49.329Z</time>
      </trkpt>
      <trkpt lat="47.04766" lon="9.04491">
        <ele>577</ele>
        <time>2021-08-02T08:18:50.330Z</time>
      </trkpt>
      <trkpt lat="47.04765" lon="9.04491">
        <ele>577</ele>
        <time>2021-08-02T08:18:51.329Z</time>
      </trkpt>
      <trkpt lat="47.04765" lon="9.0449">
        <ele>577</ele>
        <time>2021-08-02T08:18:52.329Z</time>
      </trkpt>
      <trkpt lat="47.04764" lon="9.04489">
        <ele>576</ele>
        <time>2021-08-02T08:18:53.329Z</time>
      </trkpt>
      <trkpt lat="47.04764" lon="9.04488">
        <ele>576</ele>
        <time>2021-08-02T08:18:54.329Z</time>
      </trkpt>
      <trkpt lat="47.04765" lon="9.04486">
        <ele>575</ele>
        <time>2021-08-02T08:18:55.330Z</time>
      </trkpt>
      <trkpt lat="47.04765" lon="9.04485">
        <ele>575</ele>
        <time>2021-08-02T08:18:56.329Z</time>
      </trkpt>
      <trkpt lat="47.04765" lon="9.04482">
        <ele>575</ele>
        <time>2021-08-02T08:18:57.330Z</time>
      </trkpt>
      <trkpt lat="47.04765" lon="9.0448">
        <ele>574</ele>
        <time>2021-08-02T08:18:58.330Z</time>
      </trkpt>
      <trkpt lat="47.04765" lon="9.04478">
        <ele>574</ele>
        <time>2021-08-02T08:18:59.329Z</time>
      </trkpt>
      <trkpt lat="47.04765" lon="9.04476">
        <ele>573</ele>
        <time>2021-08-02T08:19:00.330Z</time>
      </trkpt>
      <trkpt lat="47.04765" lon="9.04474">
        <ele>572</ele>
        <time>2021-08-02T08:19:01.329Z</time>
      </trkpt>
      <trkpt lat="47.04765" lon="9.04473">
        <ele>571</ele>
        <time>2021-08-02T08:19:02.330Z</time>
      </trkpt>
      <trkpt lat="47.04764" lon="9.04471">
        <ele>570</ele>
        <time>2021-08-02T08:19:03.330Z</time>
      </trkpt>
      <trkpt lat="47.04764" lon="9.04469">
        <ele>570</ele>
        <time>2021-08-02T08:19:04.329Z</time>
      </trkpt>
      <trkpt lat="47.04763" lon="9.04468">
        <ele>569</ele>
        <time>2021-08-02T08:19:05.330Z</time>
      </trkpt>
      <trkpt lat="47.04764" lon="9.04467">
        <ele>568</ele>
        <time>2021-08-02T08:19:06.330Z</time>
      </trkpt>
      <trkpt lat="47.04764" lon="9.04465">
        <ele>568</ele>
        <time>2021-08-02T08:19:07.330Z</time>
      </trkpt>
      <trkpt lat="47.04764" lon="9.04463">
        <ele>568</ele>
        <time>2021-08-02T08:19:08.329Z</time>
      </trkpt>
      <trkpt lat="47.04764" lon="9.04461">
        <ele>568</ele>
        <time>2021-08-02T08:19:09.329Z</time>
      </trkpt>
      <trkpt lat="47.04764" lon="9.04459">
        <ele>567</ele>
        <time>2021-08-02T08:19:10.330Z</time>
      </trkpt>
      <trkpt lat="47.04764" lon="9.04457">
        <ele>567</ele>
        <time>2021-08-02T08:19:11.330Z</time>
      </trkpt>
      <trkpt lat="47.04764" lon="9.04455">
        <ele>567</ele>
        <time>2021-08-02T08:19:12.329Z</time>
      </trkpt>
      <trkpt lat="47.04765" lon="9.04453">
        <ele>567</ele>
        <time>2021-08-02T08:19:13.330Z</time>
      </trkpt>
      <trkpt lat="47.04766" lon="9.04451">
        <ele>567</ele>
        <time>2021-08-02T08:19:14.330Z</time>
      </trkpt>
      <trkpt lat="47.04766" lon="9.0445">
        <ele>566</ele>
        <time>2021-08-02T08:19:15.330Z</time>
      </trkpt>
      <trkpt lat="47.04766" lon="9.04448">
        <ele>566</ele>
        <time>2021-08-02T08:19:16.330Z</time>
      </trkpt>
      <trkpt lat="47.04766" lon="9.04445">
        <ele>566</ele>
        <time>2021-08-02T08:19:17.330Z</time>
      </trkpt>
      <trkpt lat="47.04767" lon="9.04444">
        <ele>566</ele>
        <time>2021-08-02T08:19:18.330Z</time>
      </trkpt>
      <trkpt lat="47.04767" lon="9.04442">
        <ele>566</ele>
        <time>2021-08-02T08:19:19.329Z</time>
      </trkpt>
      <trkpt lat="47.04767" lon="9.04441">
        <ele>566</ele>
        <time>2021-08-02T08:19:20.330Z</time>
      </trkpt>
      <trkpt lat="47.04767" lon="9.04439">
        <ele>567</ele>
        <time>2021-08-02T08:19:21.329Z</time>
      </trkpt>
      <trkpt lat="47.04767" lon="9.04437">
        <ele>567</ele>
        <time>2021-08-02T08:19:22.330Z</time>
      </trkpt>
      <trkpt lat="47.04767" lon="9.04434">
        <ele>566</ele>
        <time>2021-08-02T08:19:23.330Z</time>
      </trkpt>
      <trkpt lat="47.04767" lon="9.04431">
        <ele>566</ele>
        <time>2021-08-02T08:19:24.329Z</time>
      </trkpt>
      <trkpt lat="47.04767" lon="9.04429">
        <ele>566</ele>
        <time>2021-08-02T08:19:25.330Z</time>
      </trkpt>
      <trkpt lat="47.04767" lon="9.04427">
        <ele>566</ele>
        <time>2021-08-02T08:19:26.330Z</time>
      </trkpt>
      <trkpt lat="47.04767" lon="9.04426">
        <ele>566</ele>
        <time>2021-08-02T08:19:27.330Z</time>
      </trkpt>
      <trkpt lat="47.04767" lon="9.04424">
        <ele>566</ele>
        <time>2021-08-02T08:19:28.330Z</time>
      </trkpt>
      <trkpt lat="47.04768" lon="9.04423">
        <ele>566</ele>
        <time>2021-08-02T08:19:29.330Z</time>
      </trkpt>
      <trkpt lat="47.04768" lon="9.04421">
        <ele>567</ele>
        <time>2021-08-02T08:19:30.329Z</time>
      </trkpt>
      <trkpt lat="47.04769" lon="9.04419">
        <ele>567</ele>
        <time>2021-08-02T08:19:31.329Z</time>
      </trkpt>
      <trkpt lat="47.0477" lon="9.04417">
        <ele>568</ele>
        <time>2021-08-02T08:19:32.329Z</time>
      </trkpt>
      <trkpt lat="47.04771" lon="9.04415">
        <ele>568</ele>
        <time>2021-08-02T08:19:33.330Z</time>
      </trkpt>
      <trkpt lat="47.04771" lon="9.04414">
        <ele>568</ele>
        <time>2021-08-02T08:19:34.330Z</time>
      </trkpt>
      <trkpt lat="47.04771" lon="9.04412">
        <ele>568</ele>
        <time>2021-08-02T08:19:35.330Z</time>
      </trkpt>
      <trkpt lat="47.04772" lon="9.04411">
        <ele>568</ele>
        <time>2021-08-02T08:19:36.330Z</time>
      </trkpt>
      <trkpt lat="47.04771" lon="9.04409">
        <ele>568</ele>
        <time>2021-08-02T08:19:37.329Z</time>
      </trkpt>
      <trkpt lat="47.04771" lon="9.04407">
        <ele>568</ele>
        <time>2021-08-02T08:19:38.330Z</time>
      </trkpt>
      <trkpt lat="47.04771" lon="9.04406">
        <ele>569</ele>
        <time>2021-08-02T08:19:39.329Z</time>
      </trkpt>
      <trkpt lat="47.04771" lon="9.04404">
        <ele>569</ele>
        <time>2021-08-02T08:19:40.330Z</time>
      </trkpt>
      <trkpt lat="47.04771" lon="9.04402">
        <ele>570</ele>
        <time>2021-08-02T08:19:41.330Z</time>
      </trkpt>
      <trkpt lat="47.04771" lon="9.044">
        <ele>570</ele>
        <time>2021-08-02T08:19:42.330Z</time>
      </trkpt>
      <trkpt lat="47.04771" lon="9.04399">
        <ele>570</ele>
        <time>2021-08-02T08:19:43.330Z</time>
      </trkpt>
      <trkpt lat="47.04772" lon="9.04396">
        <ele>569</ele>
        <time>2021-08-02T08:19:44.330Z</time>
      </trkpt>
      <trkpt lat="47.04772" lon="9.04394">
        <ele>569</ele>
        <time>2021-08-02T08:19:45.330Z</time>
      </trkpt>
      <trkpt lat="47.04772" lon="9.04392">
        <ele>569</ele>
        <time>2021-08-02T08:19:46.330Z</time>
      </trkpt>
      <trkpt lat="47.04772" lon="9.0439">
        <ele>568</ele>
        <time>2021-08-02T08:19:47.329Z</time>
      </trkpt>
      <trkpt lat="47.04772" lon="9.0439">
        <ele>568</ele>
        <time>2021-08-02T08:19:48.329Z</time>
      </trkpt>
      <trkpt lat="47.04771" lon="9.04388">
        <ele>568</ele>
        <time>2021-08-02T08:19:49.330Z</time>
      </trkpt>
      <trkpt lat="47.04772" lon="9.04386">
        <ele>568</ele>
        <time>2021-08-02T08:19:50.330Z</time>
      </trkpt>
      <trkpt lat="47.04772" lon="9.04385">
        <ele>567</ele>
        <time>2021-08-02T08:19:51.330Z</time>
      </trkpt>
      <trkpt lat="47.04771" lon="9.04383">
        <ele>567</ele>
        <time>2021-08-02T08:19:52.329Z</time>
      </trkpt>
      <trkpt lat="47.04771" lon="9.04382">
        <ele>566</ele>
        <time>2021-08-02T08:19:53.329Z</time>
      </trkpt>
      <trkpt lat="47.0477" lon="9.04381">
        <ele>566</ele>
        <time>2021-08-02T08:19:54.330Z</time>
      </trkpt>
      <trkpt lat="47.0477" lon="9.0438">
        <ele>565</ele>
        <time>2021-08-02T08:19:55.330Z</time>
      </trkpt>
      <trkpt lat="47.0477" lon="9.04379">
        <ele>565</ele>
        <time>2021-08-02T08:19:56.330Z</time>
      </trkpt>
      <trkpt lat="47.0477" lon="9.04377">
        <ele>564</ele>
        <time>2021-08-02T08:19:57.329Z</time>
      </trkpt>
      <trkpt lat="47.0477" lon="9.04374">
        <ele>564</ele>
        <time>2021-08-02T08:19:58.329Z</time>
      </trkpt>
      <trkpt lat="47.04769" lon="9.04372">
        <ele>564</ele>
        <time>2021-08-02T08:19:59.330Z</time>
      </trkpt>
      <trkpt lat="47.04769" lon="9.0437">
        <ele>564</ele>
        <time>2021-08-02T08:20:00.329Z</time>
      </trkpt>
      <trkpt lat="47.04769" lon="9.04369">
        <ele>565</ele>
        <time>2021-08-02T08:20:01.330Z</time>
      </trkpt>
      <trkpt lat="47.04769" lon="9.04368">
        <ele>564</ele>
        <time>2021-08-02T08:20:02.330Z</time>
      </trkpt>
      <trkpt lat="47.04769" lon="9.04366">
        <ele>564</ele>
        <time>2021-08-02T08:20:03.330Z</time>
      </trkpt>
      <trkpt lat="47.04769" lon="9.04365">
        <ele>564</ele>
        <time>2021-08-02T08:20:04.330Z</time>
      </trkpt>
      <trkpt lat="47.0477" lon="9.04364">
        <ele>565</ele>
        <time>2021-08-02T08:20:05.330Z</time>
      </trkpt>
      <trkpt lat="47.0477" lon="9.04362">
        <ele>565</ele>
        <time>2021-08-02T08:20:06.329Z</time>
      </trkpt>
      <trkpt lat="47.0477" lon="9.04361">
        <ele>565</ele>
        <time>2021-08-02T08:20:07.330Z</time>
      </trkpt>
      <trkpt lat="47.04771" lon="9.0436">
        <ele>565</ele>
        <time>2021-08-02T08:20:08.330Z</time>
      </trkpt>
      <trkpt lat="47.04771" lon="9.04359">
        <ele>566</ele>
        <time>2021-08-02T08:20:09.329Z</time>
      </trkpt>
      <trkpt lat="47.04771" lon="9.04358">
        <ele>566</ele>
        <time>2021-08-02T08:20:10.330Z</time>
      </trkpt>
      <trkpt lat="47.04771" lon="9.04357">
        <ele>566</ele>
        <time>2021-08-02T08:20:11.329Z</time>
      </trkpt>
      <trkpt lat="47.04771" lon="9.04356">
        <ele>567</ele>
        <time>2021-08-02T08:20:12.330Z</time>
      </trkpt>
      <trkpt lat="47.04772" lon="9.04355">
        <ele>567</ele>
        <time>2021-08-02T08:20:13.330Z</time>
      </trkpt>
      <trkpt lat="47.04772" lon="9.04353">
        <ele>567</ele>
        <time>2021-08-02T08:20:14.330Z</time>
      </trkpt>
      <trkpt lat="47.04772" lon="9.04351">
        <ele>568</ele>
        <time>2021-08-02T08:20:15.330Z</time>
      </trkpt>
      <trkpt lat="47.04772" lon="9.0435">
        <ele>568</ele>
        <time>2021-08-02T08:20:16.329Z</time>
      </trkpt>
      <trkpt lat="47.04772" lon="9.04348">
        <ele>568</ele>
        <time>2021-08-02T08:20:17.330Z</time>
      </trkpt>
      <trkpt lat="47.04773" lon="9.04347">
        <ele>568</ele>
        <time>2021-08-02T08:20:18.330Z</time>
      </trkpt>
      <trkpt lat="47.04775" lon="9.04347">
        <ele>568</ele>
        <time>2021-08-02T08:20:19.330Z</time>
      </trkpt>
      <trkpt lat="47.04775" lon="9.04346">
        <ele>568</ele>
        <time>2021-08-02T08:20:20.329Z</time>
      </trkpt>
      <trkpt lat="47.04775" lon="9.04345">
        <ele>568</ele>
        <time>2021-08-02T08:20:21.329Z</time>
      </trkpt>
      <trkpt lat="47.04775" lon="9.04343">
        <ele>568</ele>
        <time>2021-08-02T08:20:22.329Z</time>
      </trkpt>
      <trkpt lat="47.04775" lon="9.04341">
        <ele>568</ele>
        <time>2021-08-02T08:20:23.330Z</time>
      </trkpt>
      <trkpt lat="47.04775" lon="9.0434">
        <ele>568</ele>
        <time>2021-08-02T08:20:24.330Z</time>
      </trkpt>
      <trkpt lat="47.04776" lon="9.04337">
        <ele>568</ele>
        <time>2021-08-02T08:20:25.329Z</time>
      </trkpt>
      <trkpt lat="47.04776" lon="9.04335">
        <ele>569</ele>
        <time>2021-08-02T08:20:26.330Z</time>
      </trkpt>
      <trkpt lat="47.04776" lon="9.04333">
        <ele>570</ele>
        <time>2021-08-02T08:20:27.329Z</time>
      </trkpt>
      <trkpt lat="47.04777" lon="9.04331">
        <ele>570</ele>
        <time>2021-08-02T08:20:28.330Z</time>
      </trkpt>
      <trkpt lat="47.04777" lon="9.04329">
        <ele>571</ele>
        <time>2021-08-02T08:20:29.329Z</time>
      </trkpt>
      <trkpt lat="47.04777" lon="9.04328">
        <ele>571</ele>
        <time>2021-08-02T08:20:30.330Z</time>
      </trkpt>
      <trkpt lat="47.04777" lon="9.04326">
        <ele>571</ele>
        <time>2021-08-02T08:20:31.330Z</time>
      </trkpt>
      <trkpt lat="47.04777" lon="9.04325">
        <ele>572</ele>
        <time>2021-08-02T08:20:32.330Z</time>
      </trkpt>
      <trkpt lat="47.04777" lon="9.04324">
        <ele>572</ele>
        <time>2021-08-02T08:20:33.330Z</time>
      </trkpt>
      <trkpt lat="47.04777" lon="9.04323">
        <ele>572</ele>
        <time>2021-08-02T08:20:34.329Z</time>
      </trkpt>
      <trkpt lat="47.04778" lon="9.04322">
        <ele>572</ele>
        <time>2021-08-02T08:20:35.330Z</time>
      </trkpt>
      <trkpt lat="47.04778" lon="9.0432">
        <ele>573</ele>
        <time>2021-08-02T08:20:36.329Z</time>
      </trkpt>
      <trkpt lat="47.04779" lon="9.04319">
        <ele>573</ele>
        <time>2021-08-02T08:20:37.330Z</time>
      </trkpt>
      <trkpt lat="47.0478" lon="9.04317">
        <ele>573</ele>
        <time>2021-08-02T08:20:38.330Z</time>
      </trkpt>
      <trkpt lat="47.0478" lon="9.04316">
        <ele>573</ele>
        <time>2021-08-02T08:20:39.330Z</time>
      </trkpt>
      <trkpt lat="47.04779" lon="9.04315">
        <ele>573</ele>
        <time>2021-08-02T08:20:40.330Z</time>
      </trkpt>
      <trkpt lat="47.04778" lon="9.04314">
        <ele>573</ele>
        <time>2021-08-02T08:20:41.330Z</time>
      </trkpt>
      <trkpt lat="47.04778" lon="9.04312">
        <ele>572</ele>
        <time>2021-08-02T08:20:42.329Z</time>
      </trkpt>
      <trkpt lat="47.04777" lon="9.04311">
        <ele>572</ele>
        <time>2021-08-02T08:20:43.329Z</time>
      </trkpt>
      <trkpt lat="47.04776" lon="9.0431">
        <ele>571</ele>
        <time>2021-08-02T08:20:44.330Z</time>
      </trkpt>
      <trkpt lat="47.04776" lon="9.04308">
        <ele>571</ele>
        <time>2021-08-02T08:20:45.329Z</time>
      </trkpt>
      <trkpt lat="47.04776" lon="9.04307">
        <ele>570</ele>
        <time>2021-08-02T08:20:46.329Z</time>
      </trkpt>
      <trkpt lat="47.04776" lon="9.04306">
        <ele>570</ele>
        <time>2021-08-02T08:20:47.330Z</time>
      </trkpt>
      <trkpt lat="47.04776" lon="9.04305">
        <ele>569</ele>
        <time>2021-08-02T08:20:48.330Z</time>
      </trkpt>
      <trkpt lat="47.04777" lon="9.04303">
        <ele>569</ele>
        <time>2021-08-02T08:20:49.329Z</time>
      </trkpt>
      <trkpt lat="47.04777" lon="9.04302">
        <ele>568</ele>
        <time>2021-08-02T08:20:50.329Z</time>
      </trkpt>
      <trkpt lat="47.04778" lon="9.043">
        <ele>567</ele>
        <time>2021-08-02T08:20:51.330Z</time>
      </trkpt>
      <trkpt lat="47.04778" lon="9.04299">
        <ele>567</ele>
        <time>2021-08-02T08:20:52.330Z</time>
      </trkpt>
      <trkpt lat="47.04779" lon="9.04297">
        <ele>566</ele>
        <time>2021-08-02T08:20:53.330Z</time>
      </trkpt>
      <trkpt lat="47.04779" lon="9.04296">
        <ele>566</ele>
        <time>2021-08-02T08:20:54.330Z</time>
      </trkpt>
      <trkpt lat="47.04779" lon="9.04294">
        <ele>565</ele>
        <time>2021-08-02T08:20:55.329Z</time>
      </trkpt>
      <trkpt lat="47.04779" lon="9.04293">
        <ele>565</ele>
        <time>2021-08-02T08:20:56.330Z</time>
      </trkpt>
      <trkpt lat="47.04779" lon="9.04291">
        <ele>564</ele>
        <time>2021-08-02T08:20:57.329Z</time>
      </trkpt>
      <trkpt lat="47.04779" lon="9.04289">
        <ele>564</ele>
        <time>2021-08-02T08:20:58.330Z</time>
      </trkpt>
      <trkpt lat="47.04779" lon="9.04288">
        <ele>563</ele>
        <time>2021-08-02T08:20:59.330Z</time>
      </trkpt>
      <trkpt lat="47.04779" lon="9.04286">
        <ele>563</ele>
        <time>2021-08-02T08:21:00.330Z</time>
      </trkpt>
      <trkpt lat="47.04779" lon="9.04285">
        <ele>564</ele>
        <time>2021-08-02T08:21:01.329Z</time>
      </trkpt>
      <trkpt lat="47.04779" lon="9.04283">
        <ele>564</ele>
        <time>2021-08-02T08:21:02.330Z</time>
      </trkpt>
      <trkpt lat="47.04779" lon="9.04282">
        <ele>564</ele>
        <time>2021-08-02T08:21:03.330Z</time>
      </trkpt>
      <trkpt lat="47.04779" lon="9.0428">
        <ele>564</ele>
        <time>2021-08-02T08:21:04.329Z</time>
      </trkpt>
      <trkpt lat="47.04779" lon="9.04279">
        <ele>564</ele>
        <time>2021-08-02T08:21:05.330Z</time>
      </trkpt>
      <trkpt lat="47.04779" lon="9.04277">
        <ele>564</ele>
        <time>2021-08-02T08:21:06.330Z</time>
      </trkpt>
      <trkpt lat="47.04779" lon="9.04276">
        <ele>564</ele>
        <time>2021-08-02T08:21:07.330Z</time>
      </trkpt>
      <trkpt lat="47.04778" lon="9.04275">
        <ele>564</ele>
        <time>2021-08-02T08:21:08.330Z</time>
      </trkpt>
      <trkpt lat="47.04777" lon="9.04273">
        <ele>564</ele>
        <time>2021-08-02T08:21:09.329Z</time>
      </trkpt>
      <trkpt lat="47.04777" lon="9.0427">
        <ele>564</ele>
        <time>2021-08-02T08:21:10.330Z</time>
      </trkpt>
      <trkpt lat="47.04777" lon="9.04268">
        <ele>564</ele>
        <time>2021-08-02T08:21:11.330Z</time>
      </trkpt>
      <trkpt lat="47.04777" lon="9.04267">
        <ele>564</ele>
        <time>2021-08-02T08:21:12.330Z</time>
      </trkpt>
      <trkpt lat="47.04778" lon="9.04265">
        <ele>565</ele>
        <time>2021-08-02T08:21:13.329Z</time>
      </trkpt>
      <trkpt lat="47.04779" lon="9.04263">
        <ele>565</ele>
        <time>2021-08-02T08:21:14.330Z</time>
      </trkpt>
      <trkpt lat="47.04778" lon="9.04262">
        <ele>566</ele>
        <time>2021-08-02T08:21:15.330Z</time>
      </trkpt>
      <trkpt lat="47.04778" lon="9.04261">
        <ele>566</ele>
        <time>2021-08-02T08:21:16.329Z</time>
      </trkpt>
      <trkpt lat="47.04778" lon="9.04259">
        <ele>566</ele>
        <time>2021-08-02T08:21:17.330Z</time>
      </trkpt>
      <trkpt lat="47.04778" lon="9.04258">
        <ele>567</ele>
        <time>2021-08-02T08:21:18.329Z</time>
      </trkpt>
      <trkpt lat="47.04778" lon="9.04257">
        <ele>567</ele>
        <time>2021-08-02T08:21:19.329Z</time>
      </trkpt>
      <trkpt lat="47.04778" lon="9.04255">
        <ele>568</ele>
        <time>2021-08-02T08:21:20.330Z</time>
      </trkpt>
      <trkpt lat="47.04777" lon="9.04253">
        <ele>568</ele>
        <time>2021-08-02T08:21:21.330Z</time>
      </trkpt>
      <trkpt lat="47.04777" lon="9.04252">
        <ele>568</ele>
        <time>2021-08-02T08:21:22.329Z</time>
      </trkpt>
      <trkpt lat="47.04777" lon="9.0425">
        <ele>568</ele>
        <time>2021-08-02T08:21:23.329Z</time>
      </trkpt>
      <trkpt lat="47.04777" lon="9.04249">
        <ele>568</ele>
        <time>2021-08-02T08:21:24.330Z</time>
      </trkpt>
      <trkpt lat="47.04776" lon="9.04247">
        <ele>567</ele>
        <time>2021-08-02T08:21:25.330Z</time>
      </trkpt>
      <trkpt lat="47.04776" lon="9.04246">
        <ele>566</ele>
        <time>2021-08-02T08:21:26.329Z</time>
      </trkpt>
      <trkpt lat="47.04776" lon="9.04244">
        <ele>566</ele>
        <time>2021-08-02T08:21:27.329Z</time>
      </trkpt>
      <trkpt lat="47.04776" lon="9.04243">
        <ele>565</ele>
        <time>2021-08-02T08:21:28.330Z</time>
      </trkpt>
      <trkpt lat="47.04776" lon="9.04242">
        <ele>564</ele>
        <time>2021-08-02T08:21:29.330Z</time>
      </trkpt>
      <trkpt lat="47.04776" lon="9.0424">
        <ele>564</ele>
        <time>2021-08-02T08:21:30.329Z</time>
      </trkpt>
      <trkpt lat="47.04775" lon="9.04239">
        <ele>563</ele>
        <time>2021-08-02T08:21:31.330Z</time>
      </trkpt>
      <trkpt lat="47.04775" lon="9.04238">
        <ele>563</ele>
        <time>2021-08-02T08:21:32.330Z</time>
      </trkpt>
      <trkpt lat="47.04776" lon="9.04236">
        <ele>563</ele>
        <time>2021-08-02T08:21:33.330Z</time>
      </trkpt>
      <trkpt lat="47.04776" lon="9.04234">
        <ele>563</ele>
        <time>2021-08-02T08:21:34.330Z</time>
      </trkpt>
      <trkpt lat="47.04775" lon="9.04233">
        <ele>563</ele>
        <time>2021-08-02T08:21:35.330Z</time>
      </trkpt>
      <trkpt lat="47.04775" lon="9.04232">
        <ele>563</ele>
        <time>2021-08-02T08:21:36.330Z</time>
      </trkpt>
      <trkpt lat="47.04775" lon="9.0423">
        <ele>563</ele>
        <time>2021-08-02T08:21:37.330Z</time>
      </trkpt>
      <trkpt lat="47.04775" lon="9.04229">
        <ele>563</ele>
        <time>2021-08-02T08:21:38.330Z</time>
      </trkpt>
      <trkpt lat="47.04775" lon="9.04228">
        <ele>563</ele>
        <time>2021-08-02T08:21:39.330Z</time>
      </trkpt>
      <trkpt lat="47.04774" lon="9.04225">
        <ele>563</ele>
        <time>2021-08-02T08:21:40.330Z</time>
      </trkpt>
      <trkpt lat="47.04774" lon="9.04223">
        <ele>562</ele>
        <time>2021-08-02T08:21:41.330Z</time>
      </trkpt>
      <trkpt lat="47.04774" lon="9.04222">
        <ele>562</ele>
        <time>2021-08-02T08:21:42.330Z</time>
      </trkpt>
      <trkpt lat="47.04774" lon="9.0422">
        <ele>562</ele>
        <time>2021-08-02T08:21:43.330Z</time>
      </trkpt>
      <trkpt lat="47.04773" lon="9.04219">
        <ele>561</ele>
        <time>2021-08-02T08:21:44.329Z</time>
      </trkpt>
      <trkpt lat="47.04774" lon="9.04218">
        <ele>561</ele>
        <time>2021-08-02T08:21:45.330Z</time>
      </trkpt>
      <trkpt lat="47.04775" lon="9.04216">
        <ele>561</ele>
        <time>2021-08-02T08:21:46.330Z</time>
      </trkpt>
      <trkpt lat="47.04775" lon="9.04215">
        <ele>561</ele>
        <time>2021-08-02T08:21:47.330Z</time>
      </trkpt>
      <trkpt lat="47.04774" lon="9.04213">
        <ele>561</ele>
        <time>2021-08-02T08:21:48.329Z</time>
      </trkpt>
      <trkpt lat="47.04774" lon="9.04211">
        <ele>561</ele>
        <time>2021-08-02T08:21:49.330Z</time>
      </trkpt>
      <trkpt lat="47.04774" lon="9.0421">
        <ele>561</ele>
        <time>2021-08-02T08:21:50.330Z</time>
      </trkpt>
      <trkpt lat="47.04773" lon="9.04209">
        <ele>561</ele>
        <time>2021-08-02T08:21:51.330Z</time>
      </trkpt>
      <trkpt lat="47.04773" lon="9.04207">
        <ele>561</ele>
        <time>2021-08-02T08:21:52.330Z</time>
      </trkpt>
      <trkpt lat="47.04773" lon="9.04206">
        <ele>561</ele>
        <time>2021-08-02T08:21:53.330Z</time>
      </trkpt>
      <trkpt lat="47.04773" lon="9.04204">
        <ele>561</ele>
        <time>2021-08-02T08:21:54.329Z</time>
      </trkpt>
      <trkpt lat="47.04773" lon="9.04203">
        <ele>561</ele>
        <time>2021-08-02T08:21:55.329Z</time>
      </trkpt>
      <trkpt lat="47.04772" lon="9.04201">
        <ele>561</ele>
        <time>2021-08-02T08:21:56.329Z</time>
      </trkpt>
      <trkpt lat="47.04772" lon="9.042">
        <ele>561</ele>
        <time>2021-08-02T08:21:57.329Z</time>
      </trkpt>
      <trkpt lat="47.04772" lon="9.04199">
        <ele>561</ele>
        <time>2021-08-02T08:21:58.330Z</time>
      </trkpt>
      <trkpt lat="47.04771" lon="9.04197">
        <ele>561</ele>
        <time>2021-08-02T08:21:59.329Z</time>
      </trkpt>
      <trkpt lat="47.04771" lon="9.04196">
        <ele>561</ele>
        <time>2021-08-02T08:22:00.329Z</time>
      </trkpt>
      <trkpt lat="47.04771" lon="9.04194">
        <ele>561</ele>
        <time>2021-08-02T08:22:01.330Z</time>
      </trkpt>
      <trkpt lat="47.04771" lon="9.04192">
        <ele>561</ele>
        <time>2021-08-02T08:22:02.329Z</time>
      </trkpt>
      <trkpt lat="47.0477" lon="9.04191">
        <ele>561</ele>
        <time>2021-08-02T08:22:03.329Z</time>
      </trkpt>
      <trkpt lat="47.0477" lon="9.04189">
        <ele>561</ele>
        <time>2021-08-02T08:22:04.330Z</time>
      </trkpt>
      <trkpt lat="47.04771" lon="9.04188">
        <ele>562</ele>
        <time>2021-08-02T08:22:05.329Z</time>
      </trkpt>
      <trkpt lat="47.04772" lon="9.04186">
        <ele>562</ele>
        <time>2021-08-02T08:22:06.330Z</time>
      </trkpt>
      <trkpt lat="47.04772" lon="9.04184">
        <ele>562</ele>
        <time>2021-08-02T08:22:07.329Z</time>
      </trkpt>
      <trkpt lat="47.04772" lon="9.04182">
        <ele>563</ele>
        <time>2021-08-02T08:22:08.330Z</time>
      </trkpt>
      <trkpt lat="47.04771" lon="9.04181">
        <ele>564</ele>
        <time>2021-08-02T08:22:09.329Z</time>
      </trkpt>
      <trkpt lat="47.04771" lon="9.04179">
        <ele>565</ele>
        <time>2021-08-02T08:22:10.330Z</time>
      </trkpt>
      <trkpt lat="47.04771" lon="9.04178">
        <ele>566</ele>
        <time>2021-08-02T08:22:11.330Z</time>
      </trkpt>
      <trkpt lat="47.04771" lon="9.04178">
        <ele>566</ele>
        <time>2021-08-02T08:22:12.330Z</time>
      </trkpt>
      <trkpt lat="47.04772" lon="9.04177">
        <ele>567</ele>
        <time>2021-08-02T08:22:13.330Z</time>
      </trkpt>
      <trkpt lat="47.04772" lon="9.04176">
        <ele>568</ele>
        <time>2021-08-02T08:22:14.330Z</time>
      </trkpt>
      <trkpt lat="47.04772" lon="9.04173">
        <ele>568</ele>
        <time>2021-08-02T08:22:15.330Z</time>
      </trkpt>
      <trkpt lat="47.04773" lon="9.04171">
        <ele>569</ele>
        <time>2021-08-02T08:22:16.329Z</time>
      </trkpt>
      <trkpt lat="47.04773" lon="9.04169">
        <ele>569</ele>
        <time>2021-08-02T08:22:17.330Z</time>
      </trkpt>
      <trkpt lat="47.04773" lon="9.04166">
        <ele>570</ele>
        <time>2021-08-02T08:22:18.330Z</time>
      </trkpt>
      <trkpt lat="47.04772" lon="9.04165">
        <ele>570</ele>
        <time>2021-08-02T08:22:19.329Z</time>
      </trkpt>
      <trkpt lat="47.04772" lon="9.04163">
        <ele>570</ele>
        <time>2021-08-02T08:22:20.330Z</time>
      </trkpt>
      <trkpt lat="47.04771" lon="9.04161">
        <ele>571</ele>
        <time>2021-08-02T08:22:21.330Z</time>
      </trkpt>
      <trkpt lat="47.04771" lon="9.0416">
        <ele>571</ele>
        <time>2021-08-02T08:22:22.330Z</time>
      </trkpt>
      <trkpt lat="47.0477" lon="9.04158">
        <ele>571</ele>
        <time>2021-08-02T08:22:23.330Z</time>
      </trkpt>
      <trkpt lat="47.0477" lon="9.04157">
        <ele>572</ele>
        <time>2021-08-02T08:22:24.330Z</time>
      </trkpt>
      <trkpt lat="47.0477" lon="9.04156">
        <ele>572</ele>
        <time>2021-08-02T08:22:25.330Z</time>
      </trkpt>
      <trkpt lat="47.04769" lon="9.04155">
        <ele>572</ele>
        <time>2021-08-02T08:22:26.330Z</time>
      </trkpt>
      <trkpt lat="47.04769" lon="9.04154">
        <ele>572</ele>
        <time>2021-08-02T08:22:27.329Z</time>
      </trkpt>
      <trkpt lat="47.04769" lon="9.04152">
        <ele>572</ele>
        <time>2021-08-02T08:22:28.330Z</time>
      </trkpt>
      <trkpt lat="47.04769" lon="9.04151">
        <ele>573</ele>
        <time>2021-08-02T08:22:29.330Z</time>
      </trkpt>
      <trkpt lat="47.04768" lon="9.04151">
        <ele>573</ele>
        <time>2021-08-02T08:22:30.330Z</time>
      </trkpt>
      <trkpt lat="47.04768" lon="9.0415">
        <ele>574</ele>
        <time>2021-08-02T08:22:31.330Z</time>
      </trkpt>
      <trkpt lat="47.04767" lon="9.0415">
        <ele>574</ele>
        <time>2021-08-02T08:22:32.330Z</time>
      </trkpt>
      <trkpt lat="47.04767" lon="9.04148">
        <ele>575</ele>
        <time>2021-08-02T08:22:33.330Z</time>
      </trkpt>
      <trkpt lat="47.04766" lon="9.04147">
        <ele>575</ele>
        <time>2021-08-02T08:22:34.330Z</time>
      </trkpt>
      <trkpt lat="47.04766" lon="9.04146">
        <ele>576</ele>
        <time>2021-08-02T08:22:35.329Z</time>
      </trkpt>
      <trkpt lat="47.04765" lon="9.04144">
        <ele>576</ele>
        <time>2021-08-02T08:22:36.330Z</time>
      </trkpt>
      <trkpt lat="47.04765" lon="9.04143">
        <ele>576</ele>
        <time>2021-08-02T08:22:37.330Z</time>
      </trkpt>
      <trkpt lat="47.04763" lon="9.0414">
        <ele>577</ele>
        <time>2021-08-02T08:22:38.330Z</time>
      </trkpt>
      <trkpt lat="47.04763" lon="9.04138">
        <ele>577</ele>
        <time>2021-08-02T08:22:39.330Z</time>
      </trkpt>
      <trkpt lat="47.04763" lon="9.04136">
        <ele>576</ele>
        <time>2021-08-02T08:22:40.329Z</time>
      </trkpt>
      <trkpt lat="47.04763" lon="9.04135">
        <ele>576</ele>
        <time>2021-08-02T08:22:41.330Z</time>
      </trkpt>
      <trkpt lat="47.04763" lon="9.04134">
        <ele>576</ele>
        <time>2021-08-02T08:22:42.329Z</time>
      </trkpt>
      <trkpt lat="47.04763" lon="9.04132">
        <ele>576</ele>
        <time>2021-08-02T08:22:43.329Z</time>
      </trkpt>
      <trkpt lat="47.04764" lon="9.04131">
        <ele>576</ele>
        <time>2021-08-02T08:22:44.330Z</time>
      </trkpt>
      <trkpt lat="47.04764" lon="9.04129">
        <ele>576</ele>
        <time>2021-08-02T08:22:45.330Z</time>
      </trkpt>
      <trkpt lat="47.04765" lon="9.04128">
        <ele>575</ele>
        <time>2021-08-02T08:22:46.329Z</time>
      </trkpt>
      <trkpt lat="47.04765" lon="9.04127">
        <ele>575</ele>
        <time>2021-08-02T08:22:47.329Z</time>
      </trkpt>
      <trkpt lat="47.04766" lon="9.04126">
        <ele>575</ele>
        <time>2021-08-02T08:22:48.330Z</time>
      </trkpt>
      <trkpt lat="47.04766" lon="9.04125">
        <ele>575</ele>
        <time>2021-08-02T08:22:49.330Z</time>
      </trkpt>
      <trkpt lat="47.04767" lon="9.04123">
        <ele>575</ele>
        <time>2021-08-02T08:22:50.329Z</time>
      </trkpt>
      <trkpt lat="47.04768" lon="9.04122">
        <ele>575</ele>
        <time>2021-08-02T08:22:51.330Z</time>
      </trkpt>
      <trkpt lat="47.04768" lon="9.04121">
        <ele>575</ele>
        <time>2021-08-02T08:22:52.330Z</time>
      </trkpt>
      <trkpt lat="47.04768" lon="9.0412">
        <ele>574</ele>
        <time>2021-08-02T08:22:53.330Z</time>
      </trkpt>
      <trkpt lat="47.04769" lon="9.04118">
        <ele>574</ele>
        <time>2021-08-02T08:22:54.330Z</time>
      </trkpt>
      <trkpt lat="47.04769" lon="9.04117">
        <ele>573</ele>
        <time>2021-08-02T08:22:55.330Z</time>
      </trkpt>
      <trkpt lat="47.0477" lon="9.04116">
        <ele>573</ele>
        <time>2021-08-02T08:22:56.330Z</time>
      </trkpt>
      <trkpt lat="47.0477" lon="9.04115">
        <ele>573</ele>
        <time>2021-08-02T08:22:57.330Z</time>
      </trkpt>
      <trkpt lat="47.04771" lon="9.04113">
        <ele>572</ele>
        <time>2021-08-02T08:22:58.330Z</time>
      </trkpt>
      <trkpt lat="47.04771" lon="9.04112">
        <ele>572</ele>
        <time>2021-08-02T08:22:59.330Z</time>
      </trkpt>
      <trkpt lat="47.04771" lon="9.04111">
        <ele>572</ele>
        <time>2021-08-02T08:23:00.330Z</time>
      </trkpt>
      <trkpt lat="47.04772" lon="9.0411">
        <ele>572</ele>
        <time>2021-08-02T08:23:01.330Z</time>
      </trkpt>
      <trkpt lat="47.04772" lon="9.04109">
        <ele>571</ele>
        <time>2021-08-02T08:23:02.329Z</time>
      </trkpt>
      <trkpt lat="47.04772" lon="9.04108">
        <ele>571</ele>
        <time>2021-08-02T08:23:03.330Z</time>
      </trkpt>
      <trkpt lat="47.04772" lon="9.04106">
        <ele>572</ele>
        <time>2021-08-02T08:23:04.330Z</time>
      </trkpt>
      <trkpt lat="47.04772" lon="9.04105">
        <ele>572</ele>
        <time>2021-08-02T08:23:05.330Z</time>
      </trkpt>
      <trkpt lat="47.04772" lon="9.04103">
        <ele>572</ele>
        <time>2021-08-02T08:23:06.330Z</time>
      </trkpt>
      <trkpt lat="47.04772" lon="9.04101">
        <ele>573</ele>
        <time>2021-08-02T08:23:07.329Z</time>
      </trkpt>
      <trkpt lat="47.04772" lon="9.041">
        <ele>573</ele>
        <time>2021-08-02T08:23:08.329Z</time>
      </trkpt>
      <trkpt lat="47.04772" lon="9.04098">
        <ele>573</ele>
        <time>2021-08-02T08:23:09.330Z</time>
      </trkpt>
      <trkpt lat="47.04773" lon="9.04096">
        <ele>573</ele>
        <time>2021-08-02T08:23:10.329Z</time>
      </trkpt>
      <trkpt lat="47.04773" lon="9.04094">
        <ele>573</ele>
        <time>2021-08-02T08:23:11.329Z</time>
      </trkpt>
      <trkpt lat="47.04774" lon="9.04091">
        <ele>574</ele>
        <time>2021-08-02T08:23:12.329Z</time>
      </trkpt>
      <trkpt lat="47.04775" lon="9.0409">
        <ele>574</ele>
        <time>2021-08-02T08:23:13.330Z</time>
      </trkpt>
      <trkpt lat="47.04774" lon="9.04089">
        <ele>574</ele>
        <time>2021-08-02T08:23:14.330Z</time>
      </trkpt>
      <trkpt lat="47.04772" lon="9.04086">
        <ele>574</ele>
        <time>2021-08-02T08:23:15.329Z</time>
      </trkpt>
      <trkpt lat="47.0477" lon="9.04084">
        <ele>574</ele>
        <time>2021-08-02T08:23:16.329Z</time>
      </trkpt>
      <trkpt lat="47.0477" lon="9.04083">
        <ele>573</ele>
        <time>2021-08-02T08:23:17.329Z</time>
      </trkpt>
      <trkpt lat="47.0477" lon="9.04082">
        <ele>573</ele>
        <time>2021-08-02T08:23:18.329Z</time>
      </trkpt>
      <trkpt lat="47.0477" lon="9.04081">
        <ele>573</ele>
        <time>2021-08-02T08:23:19.329Z</time>
      </trkpt>
      <trkpt lat="47.0477" lon="9.0408">
        <ele>572</ele>
        <time>2021-08-02T08:23:20.329Z</time>
      </trkpt>
      <trkpt lat="47.04771" lon="9.04078">
        <ele>572</ele>
        <time>2021-08-02T08:23:21.330Z</time>
      </trkpt>
      <trkpt lat="47.0477" lon="9.04077">
        <ele>572</ele>
        <time>2021-08-02T08:23:22.329Z</time>
      </trkpt>
      <trkpt lat="47.0477" lon="9.04076">
        <ele>572</ele>
        <time>2021-08-02T08:23:23.329Z</time>
      </trkpt>
      <trkpt lat="47.0477" lon="9.04074">
        <ele>572</ele>
        <time>2021-08-02T08:23:24.329Z</time>
      </trkpt>
      <trkpt lat="47.0477" lon="9.04073">
        <ele>572</ele>
        <time>2021-08-02T08:23:25.330Z</time>
      </trkpt>
      <trkpt lat="47.0477" lon="9.04072">
        <ele>572</ele>
        <time>2021-08-02T08:23:26.329Z</time>
      </trkpt>
      <trkpt lat="47.04769" lon="9.0407">
        <ele>572</ele>
        <time>2021-08-02T08:23:27.329Z</time>
      </trkpt>
      <trkpt lat="47.04768" lon="9.0407">
        <ele>572</ele>
        <time>2021-08-02T08:23:28.330Z</time>
      </trkpt>
      <trkpt lat="47.04766" lon="9.04071">
        <ele>572</ele>
        <time>2021-08-02T08:23:29.329Z</time>
      </trkpt>
      <trkpt lat="47.04766" lon="9.04072">
        <ele>572</ele>
        <time>2021-08-02T08:23:30.329Z</time>
      </trkpt>
      <trkpt lat="47.04765" lon="9.04075">
        <ele>570</ele>
        <time>2021-08-02T08:23:31.330Z</time>
      </trkpt>
      <trkpt lat="47.04764" lon="9.04075">
        <ele>570</ele>
        <time>2021-08-02T08:23:32.330Z</time>
      </trkpt>
      <trkpt lat="47.04764" lon="9.04076">
        <ele>571</ele>
        <time>2021-08-02T08:23:33.330Z</time>
      </trkpt>
      <trkpt lat="47.04765" lon="9.04079">
        <ele>572</ele>
        <time>2021-08-02T08:23:34.330Z</time>
      </trkpt>
      <trkpt lat="47.04765" lon="9.04081">
        <ele>572</ele>
        <time>2021-08-02T08:23:35.329Z</time>
      </trkpt>
      <trkpt lat="47.04764" lon="9.04082">
        <ele>573</ele>
        <time>2021-08-02T08:23:36.330Z</time>
      </trkpt>
      <trkpt lat="47.04763" lon="9.04083">
        <ele>573</ele>
        <time>2021-08-02T08:23:37.330Z</time>
      </trkpt>
      <trkpt lat="47.04763" lon="9.04084">
        <ele>573</ele>
        <time>2021-08-02T08:23:38.329Z</time>
      </trkpt>
      <trkpt lat="47.04762" lon="9.04083">
        <ele>573</ele>
        <time>2021-08-02T08:23:39.330Z</time>
      </trkpt>
      <trkpt lat="47.04761" lon="9.04081">
        <ele>573</ele>
        <time>2021-08-02T08:23:40.330Z</time>
      </trkpt>
      <trkpt lat="47.04761" lon="9.04079">
        <ele>573</ele>
        <time>2021-08-02T08:23:41.330Z</time>
      </trkpt>
      <trkpt lat="47.04762" lon="9.04079">
        <ele>573</ele>
        <time>2021-08-02T08:23:42.330Z</time>
      </trkpt>
      <trkpt lat="47.04762" lon="9.04078">
        <ele>572</ele>
        <time>2021-08-02T08:23:43.330Z</time>
      </trkpt>
      <trkpt lat="47.04761" lon="9.04078">
        <ele>572</ele>
        <time>2021-08-02T08:23:44.329Z</time>
      </trkpt>
      <trkpt lat="47.04761" lon="9.04077">
        <ele>572</ele>
        <time>2021-08-02T08:23:45.330Z</time>
      </trkpt>
      <trkpt lat="47.0476" lon="9.04077">
        <ele>572</ele>
        <time>2021-08-02T08:23:46.330Z</time>
      </trkpt>
      <trkpt lat="47.0476" lon="9.04077">
        <ele>572</ele>
        <time>2021-08-02T08:23:47.330Z</time>
      </trkpt>
      <trkpt lat="47.0476" lon="9.04078">
        <ele>571</ele>
        <time>2021-08-02T08:23:48.330Z</time>
      </trkpt>
      <trkpt lat="47.0476" lon="9.04078">
        <ele>571</ele>
        <time>2021-08-02T08:23:49.330Z</time>
      </trkpt>
      <trkpt lat="47.04758" lon="9.04068">
        <ele>553</ele>
        <time>2021-08-02T08:23:50.330Z</time>
      </trkpt>
      <trkpt lat="47.04759" lon="9.04067">
        <ele>553</ele>
        <time>2021-08-02T08:23:51.329Z</time>
      </trkpt>
      <trkpt lat="47.04759" lon="9.04066">
        <ele>554</ele>
        <time>2021-08-02T08:23:52.329Z</time>
      </trkpt>
      <trkpt lat="47.04761" lon="9.04059">
        <ele>564</ele>
        <time>2021-08-02T08:23:53.330Z</time>
      </trkpt>
      <trkpt lat="47.04761" lon="9.04058">
        <ele>565</ele>
        <time>2021-08-02T08:23:54.329Z</time>
      </trkpt>
      <trkpt lat="47.04761" lon="9.04058">
        <ele>565</ele>
        <time>2021-08-02T08:23:55.330Z</time>
      </trkpt>
      <trkpt lat="47.04761" lon="9.04059">
        <ele>565</ele>
        <time>2021-08-02T08:23:56.329Z</time>
      </trkpt>
      <trkpt lat="47.04761" lon="9.04059">
        <ele>565</ele>
        <time>2021-08-02T08:23:57.330Z</time>
      </trkpt>
      <trkpt lat="47.04761" lon="9.04059">
        <ele>565</ele>
        <time>2021-08-02T08:23:58.329Z</time>
      </trkpt>
      <trkpt lat="47.04761" lon="9.04058">
        <ele>566</ele>
        <time>2021-08-02T08:23:59.330Z</time>
      </trkpt>
      <trkpt lat="47.0476" lon="9.04057">
        <ele>566</ele>
        <time>2021-08-02T08:24:00.330Z</time>
      </trkpt>
      <trkpt lat="47.0476" lon="9.04057">
        <ele>566</ele>
        <time>2021-08-02T08:24:01.329Z</time>
      </trkpt>
      <trkpt lat="47.0476" lon="9.04056">
        <ele>566</ele>
        <time>2021-08-02T08:24:02.330Z</time>
      </trkpt>
      <trkpt lat="47.0476" lon="9.04055">
        <ele>566</ele>
        <time>2021-08-02T08:24:03.330Z</time>
      </trkpt>
      <trkpt lat="47.04761" lon="9.04054">
        <ele>566</ele>
        <time>2021-08-02T08:24:04.329Z</time>
      </trkpt>
      <trkpt lat="47.04761" lon="9.04053">
        <ele>566</ele>
        <time>2021-08-02T08:24:05.329Z</time>
      </trkpt>
      <trkpt lat="47.04762" lon="9.04052">
        <ele>565</ele>
        <time>2021-08-02T08:24:06.330Z</time>
      </trkpt>
      <trkpt lat="47.04761" lon="9.04051">
        <ele>565</ele>
        <time>2021-08-02T08:24:07.330Z</time>
      </trkpt>
      <trkpt lat="47.0476" lon="9.0405">
        <ele>565</ele>
        <time>2021-08-02T08:24:08.329Z</time>
      </trkpt>
      <trkpt lat="47.0476" lon="9.0405">
        <ele>565</ele>
        <time>2021-08-02T08:24:09.330Z</time>
      </trkpt>
      <trkpt lat="47.04759" lon="9.04049">
        <ele>565</ele>
        <time>2021-08-02T08:24:10.330Z</time>
      </trkpt>
      <trkpt lat="47.04759" lon="9.04049">
        <ele>565</ele>
        <time>2021-08-02T08:24:11.330Z</time>
      </trkpt>
      <trkpt lat="47.04758" lon="9.04049">
        <ele>566</ele>
        <time>2021-08-02T08:24:12.330Z</time>
      </trkpt>
      <trkpt lat="47.04758" lon="9.04049">
        <ele>566</ele>
        <time>2021-08-02T08:24:13.329Z</time>
      </trkpt>
      <trkpt lat="47.04757" lon="9.04049">
        <ele>566</ele>
        <time>2021-08-02T08:24:14.330Z</time>
      </trkpt>
      <trkpt lat="47.04756" lon="9.0405">
        <ele>567</ele>
        <time>2021-08-02T08:24:15.329Z</time>
      </trkpt>
      <trkpt lat="47.04756" lon="9.0405">
        <ele>567</ele>
        <time>2021-08-02T08:24:16.330Z</time>
      </trkpt>
      <trkpt lat="47.04755" lon="9.0405">
        <ele>567</ele>
        <time>2021-08-02T08:24:17.330Z</time>
      </trkpt>
      <trkpt lat="47.04755" lon="9.0405">
        <ele>567</ele>
        <time>2021-08-02T08:24:18.329Z</time>
      </trkpt>
      <trkpt lat="47.04755" lon="9.0405">
        <ele>567</ele>
        <time>2021-08-02T08:24:19.329Z</time>
      </trkpt>
      <trkpt lat="47.04754" lon="9.04051">
        <ele>567</ele>
        <time>2021-08-02T08:24:20.330Z</time>
      </trkpt>
      <trkpt lat="47.04754" lon="9.04051">
        <ele>567</ele>
        <time>2021-08-02T08:24:21.330Z</time>
      </trkpt>
      <trkpt lat="47.04754" lon="9.04051">
        <ele>566</ele>
        <time>2021-08-02T08:24:22.329Z</time>
      </trkpt>
      <trkpt lat="47.04763" lon="9.04052">
        <ele>561</ele>
        <time>2021-08-02T08:24:23.332Z</time>
      </trkpt>
      <trkpt lat="47.04763" lon="9.04053">
        <ele>561</ele>
        <time>2021-08-02T08:24:24.332Z</time>
      </trkpt>
      <trkpt lat="47.04764" lon="9.04053">
        <ele>561</ele>
        <time>2021-08-02T08:24:25.331Z</time>
      </trkpt>
      <trkpt lat="47.04763" lon="9.04052">
        <ele>561</ele>
        <time>2021-08-02T08:24:26.332Z</time>
      </trkpt>
      <trkpt lat="47.04766" lon="9.04051">
        <ele>562</ele>
        <time>2021-08-02T08:24:27.333Z</time>
      </trkpt>
      <trkpt lat="47.04766" lon="9.04051">
        <ele>562</ele>
        <time>2021-08-02T08:24:28.333Z</time>
      </trkpt>
      <trkpt lat="47.04765" lon="9.04051">
        <ele>563</ele>
        <time>2021-08-02T08:24:29.332Z</time>
      </trkpt>
      <trkpt lat="47.04765" lon="9.0405">
        <ele>563</ele>
        <time>2021-08-02T08:24:30.333Z</time>
      </trkpt>
      <trkpt lat="47.04765" lon="9.0405">
        <ele>564</ele>
        <time>2021-08-02T08:24:31.332Z</time>
      </trkpt>
      <trkpt lat="47.04764" lon="9.04049">
        <ele>565</ele>
        <time>2021-08-02T08:24:32.333Z</time>
      </trkpt>
      <trkpt lat="47.04764" lon="9.04049">
        <ele>565</ele>
        <time>2021-08-02T08:24:33.333Z</time>
      </trkpt>
      <trkpt lat="47.04763" lon="9.04048">
        <ele>565</ele>
        <time>2021-08-02T08:24:34.333Z</time>
      </trkpt>
      <trkpt lat="47.04762" lon="9.04047">
        <ele>566</ele>
        <time>2021-08-02T08:24:35.333Z</time>
      </trkpt>
      <trkpt lat="47.04761" lon="9.04046">
        <ele>566</ele>
        <time>2021-08-02T08:24:36.333Z</time>
      </trkpt>
      <trkpt lat="47.0476" lon="9.04046">
        <ele>566</ele>
        <time>2021-08-02T08:24:37.333Z</time>
      </trkpt>
      <trkpt lat="47.0476" lon="9.04045">
        <ele>567</ele>
        <time>2021-08-02T08:24:38.333Z</time>
      </trkpt>
      <trkpt lat="47.0476" lon="9.04045">
        <ele>567</ele>
        <time>2021-08-02T08:24:39.333Z</time>
      </trkpt>
      <trkpt lat="47.0476" lon="9.04044">
        <ele>568</ele>
        <time>2021-08-02T08:24:40.333Z</time>
      </trkpt>
      <trkpt lat="47.0476" lon="9.04043">
        <ele>568</ele>
        <time>2021-08-02T08:24:41.332Z</time>
      </trkpt>
      <trkpt lat="47.0476" lon="9.04042">
        <ele>568</ele>
        <time>2021-08-02T08:24:42.333Z</time>
      </trkpt>
      <trkpt lat="47.0476" lon="9.04041">
        <ele>569</ele>
        <time>2021-08-02T08:24:43.333Z</time>
      </trkpt>
      <trkpt lat="47.0476" lon="9.0404">
        <ele>569</ele>
        <time>2021-08-02T08:24:44.333Z</time>
      </trkpt>
      <trkpt lat="47.04759" lon="9.04039">
        <ele>570</ele>
        <time>2021-08-02T08:24:45.332Z</time>
      </trkpt>
      <trkpt lat="47.04759" lon="9.04039">
        <ele>570</ele>
        <time>2021-08-02T08:24:46.333Z</time>
      </trkpt>
      <trkpt lat="47.04758" lon="9.04038">
        <ele>571</ele>
        <time>2021-08-02T08:24:47.333Z</time>
      </trkpt>
      <trkpt lat="47.04758" lon="9.04038">
        <ele>571</ele>
        <time>2021-08-02T08:24:48.333Z</time>
      </trkpt>
      <trkpt lat="47.04757" lon="9.04037">
        <ele>571</ele>
        <time>2021-08-02T08:24:49.333Z</time>
      </trkpt>
      <trkpt lat="47.04756" lon="9.04036">
        <ele>572</ele>
        <time>2021-08-02T08:24:50.332Z</time>
      </trkpt>
      <trkpt lat="47.04756" lon="9.04035">
        <ele>573</ele>
        <time>2021-08-02T08:24:51.333Z</time>
      </trkpt>
      <trkpt lat="47.04755" lon="9.04034">
        <ele>574</ele>
        <time>2021-08-02T08:24:52.333Z</time>
      </trkpt>
      <trkpt lat="47.04755" lon="9.04033">
        <ele>575</ele>
        <time>2021-08-02T08:24:53.332Z</time>
      </trkpt>
      <trkpt lat="47.04756" lon="9.04032">
        <ele>576</ele>
        <time>2021-08-02T08:24:54.332Z</time>
      </trkpt>
      <trkpt lat="47.04757" lon="9.04031">
        <ele>577</ele>
        <time>2021-08-02T08:24:55.332Z</time>
      </trkpt>
      <trkpt lat="47.04758" lon="9.04029">
        <ele>578</ele>
        <time>2021-08-02T08:24:56.332Z</time>
      </trkpt>
      <trkpt lat="47.04757" lon="9.04027">
        <ele>579</ele>
        <time>2021-08-02T08:24:57.333Z</time>
      </trkpt>
      <trkpt lat="47.04757" lon="9.04025">
        <ele>579</ele>
        <time>2021-08-02T08:24:58.332Z</time>
      </trkpt>
      <trkpt lat="47.04755" lon="9.04024">
        <ele>580</ele>
        <time>2021-08-02T08:24:59.333Z</time>
      </trkpt>
      <trkpt lat="47.04754" lon="9.04022">
        <ele>581</ele>
        <time>2021-08-02T08:25:00.333Z</time>
      </trkpt>
      <trkpt lat="47.04754" lon="9.04021">
        <ele>582</ele>
        <time>2021-08-02T08:25:01.332Z</time>
      </trkpt>
      <trkpt lat="47.04754" lon="9.04021">
        <ele>583</ele>
        <time>2021-08-02T08:25:02.333Z</time>
      </trkpt>
      <trkpt lat="47.04753" lon="9.0402">
        <ele>584</ele>
        <time>2021-08-02T08:25:03.332Z</time>
      </trkpt>
      <trkpt lat="47.04753" lon="9.04019">
        <ele>585</ele>
        <time>2021-08-02T08:25:04.332Z</time>
      </trkpt>
      <trkpt lat="47.04752" lon="9.04019">
        <ele>585</ele>
        <time>2021-08-02T08:25:05.333Z</time>
      </trkpt>
      <trkpt lat="47.04752" lon="9.04018">
        <ele>586</ele>
        <time>2021-08-02T08:25:06.333Z</time>
      </trkpt>
      <trkpt lat="47.04751" lon="9.04017">
        <ele>587</ele>
        <time>2021-08-02T08:25:07.333Z</time>
      </trkpt>
      <trkpt lat="47.0475" lon="9.04015">
        <ele>588</ele>
        <time>2021-08-02T08:25:08.333Z</time>
      </trkpt>
      <trkpt lat="47.0475" lon="9.04014">
        <ele>589</ele>
        <time>2021-08-02T08:25:09.332Z</time>
      </trkpt>
      <trkpt lat="47.04749" lon="9.04013">
        <ele>589</ele>
        <time>2021-08-02T08:25:10.333Z</time>
      </trkpt>
      <trkpt lat="47.04748" lon="9.04011">
        <ele>590</ele>
        <time>2021-08-02T08:25:11.332Z</time>
      </trkpt>
      <trkpt lat="47.04747" lon="9.0401">
        <ele>591</ele>
        <time>2021-08-02T08:25:12.333Z</time>
      </trkpt>
      <trkpt lat="47.04746" lon="9.04009">
        <ele>591</ele>
        <time>2021-08-02T08:25:13.333Z</time>
      </trkpt>
      <trkpt lat="47.04746" lon="9.04008">
        <ele>591</ele>
        <time>2021-08-02T08:25:14.332Z</time>
      </trkpt>
      <trkpt lat="47.04745" lon="9.04007">
        <ele>592</ele>
        <time>2021-08-02T08:25:15.333Z</time>
      </trkpt>
      <trkpt lat="47.04745" lon="9.04006">
        <ele>592</ele>
        <time>2021-08-02T08:25:16.333Z</time>
      </trkpt>
      <trkpt lat="47.04745" lon="9.04005">
        <ele>592</ele>
        <time>2021-08-02T08:25:17.333Z</time>
      </trkpt>
      <trkpt lat="47.04744" lon="9.04004">
        <ele>592</ele>
        <time>2021-08-02T08:25:18.333Z</time>
      </trkpt>
      <trkpt lat="47.04744" lon="9.04003">
        <ele>592</ele>
        <time>2021-08-02T08:25:19.332Z</time>
      </trkpt>
      <trkpt lat="47.04744" lon="9.04001">
        <ele>592</ele>
        <time>2021-08-02T08:25:20.333Z</time>
      </trkpt>
      <trkpt lat="47.04744" lon="9.04">
        <ele>592</ele>
        <time>2021-08-02T08:25:21.333Z</time>
      </trkpt>
      <trkpt lat="47.04743" lon="9.03998">
        <ele>592</ele>
        <time>2021-08-02T08:25:22.333Z</time>
      </trkpt>
      <trkpt lat="47.04742" lon="9.03998">
        <ele>592</ele>
        <time>2021-08-02T08:25:23.332Z</time>
      </trkpt>
      <trkpt lat="47.04741" lon="9.03997">
        <ele>592</ele>
        <time>2021-08-02T08:25:24.333Z</time>
      </trkpt>
      <trkpt lat="47.0474" lon="9.03996">
        <ele>591</ele>
        <time>2021-08-02T08:25:25.332Z</time>
      </trkpt>
      <trkpt lat="47.0474" lon="9.03995">
        <ele>591</ele>
        <time>2021-08-02T08:25:26.332Z</time>
      </trkpt>
      <trkpt lat="47.04741" lon="9.03993">
        <ele>590</ele>
        <time>2021-08-02T08:25:27.333Z</time>
      </trkpt>
      <trkpt lat="47.0474" lon="9.0399">
        <ele>590</ele>
        <time>2021-08-02T08:25:28.332Z</time>
      </trkpt>
      <trkpt lat="47.0474" lon="9.03987">
        <ele>590</ele>
        <time>2021-08-02T08:25:29.332Z</time>
      </trkpt>
      <trkpt lat="47.0474" lon="9.03985">
        <ele>590</ele>
        <time>2021-08-02T08:25:30.332Z</time>
      </trkpt>
      <trkpt lat="47.0474" lon="9.03984">
        <ele>590</ele>
        <time>2021-08-02T08:25:31.333Z</time>
      </trkpt>
      <trkpt lat="47.04739" lon="9.03982">
        <ele>590</ele>
        <time>2021-08-02T08:25:32.332Z</time>
      </trkpt>
      <trkpt lat="47.04738" lon="9.03981">
        <ele>590</ele>
        <time>2021-08-02T08:25:33.332Z</time>
      </trkpt>
      <trkpt lat="47.04738" lon="9.03979">
        <ele>591</ele>
        <time>2021-08-02T08:25:34.333Z</time>
      </trkpt>
      <trkpt lat="47.04737" lon="9.03978">
        <ele>591</ele>
        <time>2021-08-02T08:25:35.333Z</time>
      </trkpt>
      <trkpt lat="47.04737" lon="9.03976">
        <ele>591</ele>
        <time>2021-08-02T08:25:36.333Z</time>
      </trkpt>
      <trkpt lat="47.04736" lon="9.03975">
        <ele>592</ele>
        <time>2021-08-02T08:25:37.332Z</time>
      </trkpt>
      <trkpt lat="47.04736" lon="9.03972">
        <ele>592</ele>
        <time>2021-08-02T08:25:38.332Z</time>
      </trkpt>
      <trkpt lat="47.04735" lon="9.0397">
        <ele>592</ele>
        <time>2021-08-02T08:25:39.333Z</time>
      </trkpt>
      <trkpt lat="47.04734" lon="9.03968">
        <ele>593</ele>
        <time>2021-08-02T08:25:40.333Z</time>
      </trkpt>
      <trkpt lat="47.04733" lon="9.03966">
        <ele>593</ele>
        <time>2021-08-02T08:25:41.333Z</time>
      </trkpt>
      <trkpt lat="47.04733" lon="9.03962">
        <ele>594</ele>
        <time>2021-08-02T08:25:42.332Z</time>
      </trkpt>
      <trkpt lat="47.04733" lon="9.03959">
        <ele>594</ele>
        <time>2021-08-02T08:25:43.332Z</time>
      </trkpt>
      <trkpt lat="47.04733" lon="9.03957">
        <ele>595</ele>
        <time>2021-08-02T08:25:44.333Z</time>
      </trkpt>
      <trkpt lat="47.04732" lon="9.03955">
        <ele>595</ele>
        <time>2021-08-02T08:25:45.333Z</time>
      </trkpt>
      <trkpt lat="47.0473" lon="9.03953">
        <ele>596</ele>
        <time>2021-08-02T08:25:46.333Z</time>
      </trkpt>
      <trkpt lat="47.04729" lon="9.03952">
        <ele>596</ele>
        <time>2021-08-02T08:25:47.333Z</time>
      </trkpt>
      <trkpt lat="47.04728" lon="9.03951">
        <ele>596</ele>
        <time>2021-08-02T08:25:48.332Z</time>
      </trkpt>
      <trkpt lat="47.04728" lon="9.0395">
        <ele>596</ele>
        <time>2021-08-02T08:25:49.332Z</time>
      </trkpt>
      <trkpt lat="47.04728" lon="9.03948">
        <ele>597</ele>
        <time>2021-08-02T08:25:50.332Z</time>
      </trkpt>
      <trkpt lat="47.04728" lon="9.03947">
        <ele>597</ele>
        <time>2021-08-02T08:25:51.333Z</time>
      </trkpt>
      <trkpt lat="47.04728" lon="9.03946">
        <ele>598</ele>
        <time>2021-08-02T08:25:52.333Z</time>
      </trkpt>
      <trkpt lat="47.04728" lon="9.03945">
        <ele>598</ele>
        <time>2021-08-02T08:25:53.333Z</time>
      </trkpt>
      <trkpt lat="47.04729" lon="9.03944">
        <ele>599</ele>
        <time>2021-08-02T08:25:54.333Z</time>
      </trkpt>
      <trkpt lat="47.04729" lon="9.03943">
        <ele>600</ele>
        <time>2021-08-02T08:25:55.333Z</time>
      </trkpt>
      <trkpt lat="47.04728" lon="9.03941">
        <ele>600</ele>
        <time>2021-08-02T08:25:56.332Z</time>
      </trkpt>
      <trkpt lat="47.04727" lon="9.0394">
        <ele>601</ele>
        <time>2021-08-02T08:25:57.333Z</time>
      </trkpt>
      <trkpt lat="47.04726" lon="9.03939">
        <ele>601</ele>
        <time>2021-08-02T08:25:58.332Z</time>
      </trkpt>
      <trkpt lat="47.04725" lon="9.03938">
        <ele>601</ele>
        <time>2021-08-02T08:25:59.333Z</time>
      </trkpt>
      <trkpt lat="47.04725" lon="9.03937">
        <ele>602</ele>
        <time>2021-08-02T08:26:00.333Z</time>
      </trkpt>
      <trkpt lat="47.04724" lon="9.03936">
        <ele>602</ele>
        <time>2021-08-02T08:26:01.333Z</time>
      </trkpt>
      <trkpt lat="47.04724" lon="9.03935">
        <ele>602</ele>
        <time>2021-08-02T08:26:02.333Z</time>
      </trkpt>
      <trkpt lat="47.04724" lon="9.03935">
        <ele>602</ele>
        <time>2021-08-02T08:26:03.333Z</time>
      </trkpt>
      <trkpt lat="47.04723" lon="9.03934">
        <ele>602</ele>
        <time>2021-08-02T08:26:04.332Z</time>
      </trkpt>
      <trkpt lat="47.04723" lon="9.03933">
        <ele>602</ele>
        <time>2021-08-02T08:26:05.333Z</time>
      </trkpt>
      <trkpt lat="47.04723" lon="9.03931">
        <ele>602</ele>
        <time>2021-08-02T08:26:06.333Z</time>
      </trkpt>
      <trkpt lat="47.04723" lon="9.0393">
        <ele>602</ele>
        <time>2021-08-02T08:26:07.333Z</time>
      </trkpt>
      <trkpt lat="47.04722" lon="9.03929">
        <ele>602</ele>
        <time>2021-08-02T08:26:08.333Z</time>
      </trkpt>
      <trkpt lat="47.04722" lon="9.03928">
        <ele>602</ele>
        <time>2021-08-02T08:26:09.333Z</time>
      </trkpt>
      <trkpt lat="47.04721" lon="9.03927">
        <ele>603</ele>
        <time>2021-08-02T08:26:10.333Z</time>
      </trkpt>
      <trkpt lat="47.04721" lon="9.03926">
        <ele>603</ele>
        <time>2021-08-02T08:26:11.332Z</time>
      </trkpt>
      <trkpt lat="47.04721" lon="9.03925">
        <ele>603</ele>
        <time>2021-08-02T08:26:12.333Z</time>
      </trkpt>
      <trkpt lat="47.04721" lon="9.03924">
        <ele>603</ele>
        <time>2021-08-02T08:26:13.333Z</time>
      </trkpt>
      <trkpt lat="47.04721" lon="9.03922">
        <ele>604</ele>
        <time>2021-08-02T08:26:14.333Z</time>
      </trkpt>
      <trkpt lat="47.04721" lon="9.03921">
        <ele>604</ele>
        <time>2021-08-02T08:26:15.333Z</time>
      </trkpt>
      <trkpt lat="47.04722" lon="9.0392">
        <ele>604</ele>
        <time>2021-08-02T08:26:16.332Z</time>
      </trkpt>
      <trkpt lat="47.04721" lon="9.03919">
        <ele>604</ele>
        <time>2021-08-02T08:26:17.332Z</time>
      </trkpt>
      <trkpt lat="47.04721" lon="9.03916">
        <ele>604</ele>
        <time>2021-08-02T08:26:18.333Z</time>
      </trkpt>
      <trkpt lat="47.04721" lon="9.03914">
        <ele>604</ele>
        <time>2021-08-02T08:26:19.333Z</time>
      </trkpt>
      <trkpt lat="47.04721" lon="9.03913">
        <ele>604</ele>
        <time>2021-08-02T08:26:20.333Z</time>
      </trkpt>
      <trkpt lat="47.04721" lon="9.03912">
        <ele>604</ele>
        <time>2021-08-02T08:26:21.333Z</time>
      </trkpt>
      <trkpt lat="47.04721" lon="9.03911">
        <ele>605</ele>
        <time>2021-08-02T08:26:22.332Z</time>
      </trkpt>
      <trkpt lat="47.04721" lon="9.03909">
        <ele>605</ele>
        <time>2021-08-02T08:26:23.332Z</time>
      </trkpt>
      <trkpt lat="47.0472" lon="9.03908">
        <ele>605</ele>
        <time>2021-08-02T08:26:24.333Z</time>
      </trkpt>
      <trkpt lat="47.04719" lon="9.03907">
        <ele>606</ele>
        <time>2021-08-02T08:26:25.332Z</time>
      </trkpt>
      <trkpt lat="47.04719" lon="9.03906">
        <ele>606</ele>
        <time>2021-08-02T08:26:26.333Z</time>
      </trkpt>
      <trkpt lat="47.04719" lon="9.03905">
        <ele>607</ele>
        <time>2021-08-02T08:26:27.332Z</time>
      </trkpt>
      <trkpt lat="47.0472" lon="9.03904">
        <ele>608</ele>
        <time>2021-08-02T08:26:28.333Z</time>
      </trkpt>
      <trkpt lat="47.04721" lon="9.03903">
        <ele>609</ele>
        <time>2021-08-02T08:26:29.333Z</time>
      </trkpt>
      <trkpt lat="47.04721" lon="9.03902">
        <ele>609</ele>
        <time>2021-08-02T08:26:30.333Z</time>
      </trkpt>
      <trkpt lat="47.04721" lon="9.03901">
        <ele>610</ele>
        <time>2021-08-02T08:26:31.333Z</time>
      </trkpt>
      <trkpt lat="47.04719" lon="9.039">
        <ele>610</ele>
        <time>2021-08-02T08:26:32.332Z</time>
      </trkpt>
      <trkpt lat="47.04718" lon="9.039">
        <ele>610</ele>
        <time>2021-08-02T08:26:33.332Z</time>
      </trkpt>
      <trkpt lat="47.04718" lon="9.03898">
        <ele>610</ele>
        <time>2021-08-02T08:26:34.333Z</time>
      </trkpt>
      <trkpt lat="47.04717" lon="9.03897">
        <ele>611</ele>
        <time>2021-08-02T08:26:35.333Z</time>
      </trkpt>
      <trkpt lat="47.04717" lon="9.03896">
        <ele>611</ele>
        <time>2021-08-02T08:26:36.333Z</time>
      </trkpt>
      <trkpt lat="47.04717" lon="9.03895">
        <ele>611</ele>
        <time>2021-08-02T08:26:37.333Z</time>
      </trkpt>
      <trkpt lat="47.04716" lon="9.03894">
        <ele>610</ele>
        <time>2021-08-02T08:26:38.334Z</time>
      </trkpt>
      <trkpt lat="47.04716" lon="9.03893">
        <ele>610</ele>
        <time>2021-08-02T08:26:39.334Z</time>
      </trkpt>
      <trkpt lat="47.04715" lon="9.03892">
        <ele>609</ele>
        <time>2021-08-02T08:26:40.334Z</time>
      </trkpt>
      <trkpt lat="47.04715" lon="9.03891">
        <ele>609</ele>
        <time>2021-08-02T08:26:41.334Z</time>
      </trkpt>
      <trkpt lat="47.04715" lon="9.0389">
        <ele>608</ele>
        <time>2021-08-02T08:26:42.334Z</time>
      </trkpt>
      <trkpt lat="47.04714" lon="9.03889">
        <ele>609</ele>
        <time>2021-08-02T08:26:43.334Z</time>
      </trkpt>
      <trkpt lat="47.04714" lon="9.03888">
        <ele>609</ele>
        <time>2021-08-02T08:26:44.334Z</time>
      </trkpt>
      <trkpt lat="47.04713" lon="9.03886">
        <ele>609</ele>
        <time>2021-08-02T08:26:45.334Z</time>
      </trkpt>
      <trkpt lat="47.04713" lon="9.03884">
        <ele>609</ele>
        <time>2021-08-02T08:26:46.334Z</time>
      </trkpt>
      <trkpt lat="47.04713" lon="9.03883">
        <ele>609</ele>
        <time>2021-08-02T08:26:47.334Z</time>
      </trkpt>
      <trkpt lat="47.04711" lon="9.03881">
        <ele>609</ele>
        <time>2021-08-02T08:26:48.333Z</time>
      </trkpt>
      <trkpt lat="47.0471" lon="9.03879">
        <ele>608</ele>
        <time>2021-08-02T08:26:49.334Z</time>
      </trkpt>
      <trkpt lat="47.04709" lon="9.03878">
        <ele>607</ele>
        <time>2021-08-02T08:26:50.334Z</time>
      </trkpt>
      <trkpt lat="47.04708" lon="9.03877">
        <ele>607</ele>
        <time>2021-08-02T08:26:51.334Z</time>
      </trkpt>
      <trkpt lat="47.04708" lon="9.03875">
        <ele>606</ele>
        <time>2021-08-02T08:26:52.334Z</time>
      </trkpt>
      <trkpt lat="47.04707" lon="9.03874">
        <ele>605</ele>
        <time>2021-08-02T08:26:53.334Z</time>
      </trkpt>
      <trkpt lat="47.04706" lon="9.03873">
        <ele>605</ele>
        <time>2021-08-02T08:26:54.334Z</time>
      </trkpt>
      <trkpt lat="47.04705" lon="9.03871">
        <ele>604</ele>
        <time>2021-08-02T08:26:55.334Z</time>
      </trkpt>
      <trkpt lat="47.04703" lon="9.03869">
        <ele>603</ele>
        <time>2021-08-02T08:26:56.334Z</time>
      </trkpt>
      <trkpt lat="47.04701" lon="9.03868">
        <ele>603</ele>
        <time>2021-08-02T08:26:57.334Z</time>
      </trkpt>
      <trkpt lat="47.047" lon="9.03868">
        <ele>602</ele>
        <time>2021-08-02T08:26:58.334Z</time>
      </trkpt>
      <trkpt lat="47.047" lon="9.03868">
        <ele>602</ele>
        <time>2021-08-02T08:26:59.334Z</time>
      </trkpt>
      <trkpt lat="47.04696" lon="9.0387">
        <ele>599</ele>
        <time>2021-08-02T08:27:00.334Z</time>
      </trkpt>
      <trkpt lat="47.04695" lon="9.03871">
        <ele>599</ele>
        <time>2021-08-02T08:27:01.333Z</time>
      </trkpt>
      <trkpt lat="47.04694" lon="9.03872">
        <ele>598</ele>
        <time>2021-08-02T08:27:02.333Z</time>
      </trkpt>
      <trkpt lat="47.04692" lon="9.03873">
        <ele>596</ele>
        <time>2021-08-02T08:27:03.333Z</time>
      </trkpt>
      <trkpt lat="47.04691" lon="9.03873">
        <ele>595</ele>
        <time>2021-08-02T08:27:04.333Z</time>
      </trkpt>
      <trkpt lat="47.04686" lon="9.03873">
        <ele>574</ele>
        <time>2021-08-02T08:27:05.334Z</time>
      </trkpt>
      <trkpt lat="47.04687" lon="9.03871">
        <ele>573</ele>
        <time>2021-08-02T08:27:06.334Z</time>
      </trkpt>
      <trkpt lat="47.04684" lon="9.03872">
        <ele>577</ele>
        <time>2021-08-02T08:27:07.333Z</time>
      </trkpt>
      <trkpt lat="47.04685" lon="9.03871">
        <ele>577</ele>
        <time>2021-08-02T08:27:08.334Z</time>
      </trkpt>
      <trkpt lat="47.04685" lon="9.0387">
        <ele>577</ele>
        <time>2021-08-02T08:27:09.333Z</time>
      </trkpt>
      <trkpt lat="47.04685" lon="9.03868">
        <ele>577</ele>
        <time>2021-08-02T08:27:10.333Z</time>
      </trkpt>
      <trkpt lat="47.04685" lon="9.03868">
        <ele>577</ele>
        <time>2021-08-02T08:27:11.334Z</time>
      </trkpt>
      <trkpt lat="47.04686" lon="9.03867">
        <ele>577</ele>
        <time>2021-08-02T08:27:12.334Z</time>
      </trkpt>
      <trkpt lat="47.04686" lon="9.03867">
        <ele>577</ele>
        <time>2021-08-02T08:27:13.333Z</time>
      </trkpt>
      <trkpt lat="47.04686" lon="9.03867">
        <ele>577</ele>
        <time>2021-08-02T08:27:14.334Z</time>
      </trkpt>
      <trkpt lat="47.04686" lon="9.03868">
        <ele>577</ele>
        <time>2021-08-02T08:27:15.333Z</time>
      </trkpt>
      <trkpt lat="47.04686" lon="9.03868">
        <ele>577</ele>
        <time>2021-08-02T08:27:16.334Z</time>
      </trkpt>
      <trkpt lat="47.04685" lon="9.03868">
        <ele>577</ele>
        <time>2021-08-02T08:27:17.333Z</time>
      </trkpt>
      <trkpt lat="47.04685" lon="9.03867">
        <ele>577</ele>
        <time>2021-08-02T08:27:18.333Z</time>
      </trkpt>
      <trkpt lat="47.04685" lon="9.03867">
        <ele>577</ele>
        <time>2021-08-02T08:27:19.334Z</time>
      </trkpt>
      <trkpt lat="47.04683" lon="9.03869">
        <ele>577</ele>
        <time>2021-08-02T08:27:20.334Z</time>
      </trkpt>
      <trkpt lat="47.04683" lon="9.0387">
        <ele>577</ele>
        <time>2021-08-02T08:27:21.335Z</time>
      </trkpt>
      <trkpt lat="47.04682" lon="9.0387">
        <ele>577</ele>
        <time>2021-08-02T08:27:22.335Z</time>
      </trkpt>
      <trkpt lat="47.04683" lon="9.03869">
        <ele>577</ele>
        <time>2021-08-02T08:27:23.335Z</time>
      </trkpt>
      <trkpt lat="47.04682" lon="9.03868">
        <ele>576</ele>
        <time>2021-08-02T08:27:24.335Z</time>
      </trkpt>
      <trkpt lat="47.04682" lon="9.03867">
        <ele>576</ele>
        <time>2021-08-02T08:27:25.335Z</time>
      </trkpt>
      <trkpt lat="47.04682" lon="9.03864">
        <ele>576</ele>
        <time>2021-08-02T08:27:26.335Z</time>
      </trkpt>
      <trkpt lat="47.04682" lon="9.03863">
        <ele>576</ele>
        <time>2021-08-02T08:27:27.336Z</time>
      </trkpt>
      <trkpt lat="47.04682" lon="9.03862">
        <ele>576</ele>
        <time>2021-08-02T08:27:28.336Z</time>
      </trkpt>
      <trkpt lat="47.04682" lon="9.03861">
        <ele>577</ele>
        <time>2021-08-02T08:27:29.336Z</time>
      </trkpt>
      <trkpt lat="47.04681" lon="9.03859">
        <ele>577</ele>
        <time>2021-08-02T08:27:30.336Z</time>
      </trkpt>
      <trkpt lat="47.04681" lon="9.03858">
        <ele>577</ele>
        <time>2021-08-02T08:27:31.335Z</time>
      </trkpt>
      <trkpt lat="47.04681" lon="9.03857">
        <ele>577</ele>
        <time>2021-08-02T08:27:32.336Z</time>
      </trkpt>
      <trkpt lat="47.04681" lon="9.03857">
        <ele>577</ele>
        <time>2021-08-02T08:27:33.336Z</time>
      </trkpt>
      <trkpt lat="47.04681" lon="9.03857">
        <ele>576</ele>
        <time>2021-08-02T08:27:34.336Z</time>
      </trkpt>
      <trkpt lat="47.04682" lon="9.03856">
        <ele>576</ele>
        <time>2021-08-02T08:27:35.335Z</time>
      </trkpt>
      <trkpt lat="47.04683" lon="9.03856">
        <ele>576</ele>
        <time>2021-08-02T08:27:36.335Z</time>
      </trkpt>
      <trkpt lat="47.04684" lon="9.03856">
        <ele>575</ele>
        <time>2021-08-02T08:27:37.336Z</time>
      </trkpt>
      <trkpt lat="47.04684" lon="9.03854">
        <ele>575</ele>
        <time>2021-08-02T08:27:38.336Z</time>
      </trkpt>
      <trkpt lat="47.04685" lon="9.03852">
        <ele>574</ele>
        <time>2021-08-02T08:27:39.336Z</time>
      </trkpt>
      <trkpt lat="47.04685" lon="9.0385">
        <ele>574</ele>
        <time>2021-08-02T08:27:40.336Z</time>
      </trkpt>
      <trkpt lat="47.04684" lon="9.03849">
        <ele>574</ele>
        <time>2021-08-02T08:27:41.335Z</time>
      </trkpt>
      <trkpt lat="47.04684" lon="9.03848">
        <ele>574</ele>
        <time>2021-08-02T08:27:42.336Z</time>
      </trkpt>
      <trkpt lat="47.04684" lon="9.03847">
        <ele>574</ele>
        <time>2021-08-02T08:27:43.335Z</time>
      </trkpt>
      <trkpt lat="47.04684" lon="9.03846">
        <ele>574</ele>
        <time>2021-08-02T08:27:44.336Z</time>
      </trkpt>
      <trkpt lat="47.04684" lon="9.03845">
        <ele>574</ele>
        <time>2021-08-02T08:27:45.336Z</time>
      </trkpt>
      <trkpt lat="47.04684" lon="9.03845">
        <ele>574</ele>
        <time>2021-08-02T08:27:46.335Z</time>
      </trkpt>
      <trkpt lat="47.04682" lon="9.03844">
        <ele>574</ele>
        <time>2021-08-02T08:27:47.335Z</time>
      </trkpt>
      <trkpt lat="47.04681" lon="9.03843">
        <ele>574</ele>
        <time>2021-08-02T08:27:48.336Z</time>
      </trkpt>
      <trkpt lat="47.0468" lon="9.03841">
        <ele>574</ele>
        <time>2021-08-02T08:27:49.336Z</time>
      </trkpt>
      <trkpt lat="47.0468" lon="9.03841">
        <ele>574</ele>
        <time>2021-08-02T08:27:50.336Z</time>
      </trkpt>
      <trkpt lat="47.04679" lon="9.0384">
        <ele>573</ele>
        <time>2021-08-02T08:27:51.335Z</time>
      </trkpt>
      <trkpt lat="47.04679" lon="9.03839">
        <ele>573</ele>
        <time>2021-08-02T08:27:52.336Z</time>
      </trkpt>
      <trkpt lat="47.04678" lon="9.03839">
        <ele>572</ele>
        <time>2021-08-02T08:27:53.335Z</time>
      </trkpt>
      <trkpt lat="47.04678" lon="9.03838">
        <ele>572</ele>
        <time>2021-08-02T08:27:54.335Z</time>
      </trkpt>
      <trkpt lat="47.04678" lon="9.03837">
        <ele>571</ele>
        <time>2021-08-02T08:27:55.336Z</time>
      </trkpt>
      <trkpt lat="47.04677" lon="9.03836">
        <ele>571</ele>
        <time>2021-08-02T08:27:56.335Z</time>
      </trkpt>
      <trkpt lat="47.04677" lon="9.03836">
        <ele>571</ele>
        <time>2021-08-02T08:27:57.336Z</time>
      </trkpt>
      <trkpt lat="47.04676" lon="9.03835">
        <ele>570</ele>
        <time>2021-08-02T08:27:58.336Z</time>
      </trkpt>
      <trkpt lat="47.04675" lon="9.03834">
        <ele>570</ele>
        <time>2021-08-02T08:27:59.336Z</time>
      </trkpt>
      <trkpt lat="47.04674" lon="9.03834">
        <ele>570</ele>
        <time>2021-08-02T08:28:00.336Z</time>
      </trkpt>
      <trkpt lat="47.04674" lon="9.03833">
        <ele>569</ele>
        <time>2021-08-02T08:28:01.335Z</time>
      </trkpt>
      <trkpt lat="47.04673" lon="9.03832">
        <ele>569</ele>
        <time>2021-08-02T08:28:02.336Z</time>
      </trkpt>
      <trkpt lat="47.04672" lon="9.03831">
        <ele>568</ele>
        <time>2021-08-02T08:28:03.336Z</time>
      </trkpt>
      <trkpt lat="47.04671" lon="9.0383">
        <ele>568</ele>
        <time>2021-08-02T08:28:04.335Z</time>
      </trkpt>
      <trkpt lat="47.0467" lon="9.03829">
        <ele>568</ele>
        <time>2021-08-02T08:28:05.336Z</time>
      </trkpt>
      <trkpt lat="47.04669" lon="9.03829">
        <ele>568</ele>
        <time>2021-08-02T08:28:06.336Z</time>
      </trkpt>
      <trkpt lat="47.04669" lon="9.03828">
        <ele>569</ele>
        <time>2021-08-02T08:28:07.335Z</time>
      </trkpt>
      <trkpt lat="47.04669" lon="9.03827">
        <ele>569</ele>
        <time>2021-08-02T08:28:08.336Z</time>
      </trkpt>
      <trkpt lat="47.0467" lon="9.03826">
        <ele>569</ele>
        <time>2021-08-02T08:28:09.336Z</time>
      </trkpt>
      <trkpt lat="47.0467" lon="9.03825">
        <ele>569</ele>
        <time>2021-08-02T08:28:10.336Z</time>
      </trkpt>
      <trkpt lat="47.0467" lon="9.03824">
        <ele>569</ele>
        <time>2021-08-02T08:28:11.336Z</time>
      </trkpt>
      <trkpt lat="47.04669" lon="9.03823">
        <ele>569</ele>
        <time>2021-08-02T08:28:12.335Z</time>
      </trkpt>
      <trkpt lat="47.04669" lon="9.03822">
        <ele>569</ele>
        <time>2021-08-02T08:28:13.335Z</time>
      </trkpt>
      <trkpt lat="47.04668" lon="9.03821">
        <ele>570</ele>
        <time>2021-08-02T08:28:14.336Z</time>
      </trkpt>
      <trkpt lat="47.04668" lon="9.0382">
        <ele>570</ele>
        <time>2021-08-02T08:28:15.336Z</time>
      </trkpt>
      <trkpt lat="47.04667" lon="9.03818">
        <ele>570</ele>
        <time>2021-08-02T08:28:16.336Z</time>
      </trkpt>
      <trkpt lat="47.04667" lon="9.03818">
        <ele>571</ele>
        <time>2021-08-02T08:28:17.336Z</time>
      </trkpt>
      <trkpt lat="47.04667" lon="9.03817">
        <ele>572</ele>
        <time>2021-08-02T08:28:18.336Z</time>
      </trkpt>
      <trkpt lat="47.04667" lon="9.03816">
        <ele>573</ele>
        <time>2021-08-02T08:28:19.336Z</time>
      </trkpt>
      <trkpt lat="47.04668" lon="9.03814">
        <ele>574</ele>
        <time>2021-08-02T08:28:20.335Z</time>
      </trkpt>
      <trkpt lat="47.04668" lon="9.03814">
        <ele>574</ele>
        <time>2021-08-02T08:28:21.336Z</time>
      </trkpt>
      <trkpt lat="47.04667" lon="9.03814">
        <ele>575</ele>
        <time>2021-08-02T08:28:22.336Z</time>
      </trkpt>
      <trkpt lat="47.04666" lon="9.03814">
        <ele>576</ele>
        <time>2021-08-02T08:28:23.335Z</time>
      </trkpt>
      <trkpt lat="47.04664" lon="9.03814">
        <ele>576</ele>
        <time>2021-08-02T08:28:24.336Z</time>
      </trkpt>
      <trkpt lat="47.04662" lon="9.03812">
        <ele>576</ele>
        <time>2021-08-02T08:28:25.336Z</time>
      </trkpt>
      <trkpt lat="47.04661" lon="9.03811">
        <ele>576</ele>
        <time>2021-08-02T08:28:26.336Z</time>
      </trkpt>
      <trkpt lat="47.0466" lon="9.03811">
        <ele>577</ele>
        <time>2021-08-02T08:28:27.335Z</time>
      </trkpt>
      <trkpt lat="47.04659" lon="9.0381">
        <ele>577</ele>
        <time>2021-08-02T08:28:28.336Z</time>
      </trkpt>
      <trkpt lat="47.04659" lon="9.03809">
        <ele>578</ele>
        <time>2021-08-02T08:28:29.335Z</time>
      </trkpt>
      <trkpt lat="47.04659" lon="9.03807">
        <ele>579</ele>
        <time>2021-08-02T08:28:30.336Z</time>
      </trkpt>
      <trkpt lat="47.04658" lon="9.03806">
        <ele>579</ele>
        <time>2021-08-02T08:28:31.335Z</time>
      </trkpt>
      <trkpt lat="47.04658" lon="9.03805">
        <ele>580</ele>
        <time>2021-08-02T08:28:32.335Z</time>
      </trkpt>
      <trkpt lat="47.04658" lon="9.03804">
        <ele>581</ele>
        <time>2021-08-02T08:28:33.336Z</time>
      </trkpt>
      <trkpt lat="47.04657" lon="9.03802">
        <ele>582</ele>
        <time>2021-08-02T08:28:34.336Z</time>
      </trkpt>
      <trkpt lat="47.04656" lon="9.03801">
        <ele>583</ele>
        <time>2021-08-02T08:28:35.336Z</time>
      </trkpt>
      <trkpt lat="47.04656" lon="9.03799">
        <ele>584</ele>
        <time>2021-08-02T08:28:36.335Z</time>
      </trkpt>
      <trkpt lat="47.04655" lon="9.03798">
        <ele>584</ele>
        <time>2021-08-02T08:28:37.335Z</time>
      </trkpt>
      <trkpt lat="47.04655" lon="9.03796">
        <ele>585</ele>
        <time>2021-08-02T08:28:38.336Z</time>
      </trkpt>
      <trkpt lat="47.04655" lon="9.03795">
        <ele>586</ele>
        <time>2021-08-02T08:28:39.336Z</time>
      </trkpt>
      <trkpt lat="47.04654" lon="9.03795">
        <ele>587</ele>
        <time>2021-08-02T08:28:40.336Z</time>
      </trkpt>
      <trkpt lat="47.04654" lon="9.03794">
        <ele>589</ele>
        <time>2021-08-02T08:28:41.336Z</time>
      </trkpt>
      <trkpt lat="47.04654" lon="9.03793">
        <ele>590</ele>
        <time>2021-08-02T08:28:42.336Z</time>
      </trkpt>
      <trkpt lat="47.04654" lon="9.03793">
        <ele>591</ele>
        <time>2021-08-02T08:28:43.336Z</time>
      </trkpt>
      <trkpt lat="47.04652" lon="9.03792">
        <ele>593</ele>
        <time>2021-08-02T08:28:44.336Z</time>
      </trkpt>
      <trkpt lat="47.04651" lon="9.03791">
        <ele>594</ele>
        <time>2021-08-02T08:28:45.335Z</time>
      </trkpt>
      <trkpt lat="47.04651" lon="9.0379">
        <ele>594</ele>
        <time>2021-08-02T08:28:46.335Z</time>
      </trkpt>
      <trkpt lat="47.0465" lon="9.03789">
        <ele>595</ele>
        <time>2021-08-02T08:28:47.335Z</time>
      </trkpt>
      <trkpt lat="47.0465" lon="9.03788">
        <ele>595</ele>
        <time>2021-08-02T08:28:48.335Z</time>
      </trkpt>
      <trkpt lat="47.0465" lon="9.03787">
        <ele>596</ele>
        <time>2021-08-02T08:28:49.336Z</time>
      </trkpt>
      <trkpt lat="47.04649" lon="9.03786">
        <ele>596</ele>
        <time>2021-08-02T08:28:50.335Z</time>
      </trkpt>
      <trkpt lat="47.04648" lon="9.03786">
        <ele>597</ele>
        <time>2021-08-02T08:28:51.335Z</time>
      </trkpt>
      <trkpt lat="47.04648" lon="9.03785">
        <ele>598</ele>
        <time>2021-08-02T08:28:52.335Z</time>
      </trkpt>
      <trkpt lat="47.04647" lon="9.03785">
        <ele>598</ele>
        <time>2021-08-02T08:28:53.335Z</time>
      </trkpt>
      <trkpt lat="47.04646" lon="9.03784">
        <ele>599</ele>
        <time>2021-08-02T08:28:54.336Z</time>
      </trkpt>
      <trkpt lat="47.04645" lon="9.03783">
        <ele>600</ele>
        <time>2021-08-02T08:28:55.335Z</time>
      </trkpt>
      <trkpt lat="47.04645" lon="9.03782">
        <ele>600</ele>
        <time>2021-08-02T08:28:56.335Z</time>
      </trkpt>
      <trkpt lat="47.04644" lon="9.03781">
        <ele>601</ele>
        <time>2021-08-02T08:28:57.336Z</time>
      </trkpt>
      <trkpt lat="47.04643" lon="9.0378">
        <ele>601</ele>
        <time>2021-08-02T08:28:58.335Z</time>
      </trkpt>
      <trkpt lat="47.04642" lon="9.03778">
        <ele>601</ele>
        <time>2021-08-02T08:28:59.335Z</time>
      </trkpt>
      <trkpt lat="47.04641" lon="9.03777">
        <ele>601</ele>
        <time>2021-08-02T08:29:00.335Z</time>
      </trkpt>
      <trkpt lat="47.04638" lon="9.03775">
        <ele>601</ele>
        <time>2021-08-02T08:29:01.335Z</time>
      </trkpt>
      <trkpt lat="47.04637" lon="9.03774">
        <ele>601</ele>
        <time>2021-08-02T08:29:02.335Z</time>
      </trkpt>
      <trkpt lat="47.04637" lon="9.03773">
        <ele>601</ele>
        <time>2021-08-02T08:29:03.335Z</time>
      </trkpt>
      <trkpt lat="47.04637" lon="9.03772">
        <ele>601</ele>
        <time>2021-08-02T08:29:04.335Z</time>
      </trkpt>
      <trkpt lat="47.04637" lon="9.03772">
        <ele>600</ele>
        <time>2021-08-02T08:29:05.336Z</time>
      </trkpt>
      <trkpt lat="47.04637" lon="9.03771">
        <ele>600</ele>
        <time>2021-08-02T08:29:06.335Z</time>
      </trkpt>
      <trkpt lat="47.04637" lon="9.0377">
        <ele>600</ele>
        <time>2021-08-02T08:29:07.335Z</time>
      </trkpt>
      <trkpt lat="47.04637" lon="9.03769">
        <ele>600</ele>
        <time>2021-08-02T08:29:08.335Z</time>
      </trkpt>
      <trkpt lat="47.04637" lon="9.03768">
        <ele>600</ele>
        <time>2021-08-02T08:29:09.335Z</time>
      </trkpt>
      <trkpt lat="47.04637" lon="9.03767">
        <ele>600</ele>
        <time>2021-08-02T08:29:10.335Z</time>
      </trkpt>
      <trkpt lat="47.04637" lon="9.03765">
        <ele>600</ele>
        <time>2021-08-02T08:29:11.336Z</time>
      </trkpt>
      <trkpt lat="47.04637" lon="9.03764">
        <ele>600</ele>
        <time>2021-08-02T08:29:12.335Z</time>
      </trkpt>
      <trkpt lat="47.04637" lon="9.03762">
        <ele>600</ele>
        <time>2021-08-02T08:29:13.335Z</time>
      </trkpt>
      <trkpt lat="47.04636" lon="9.03761">
        <ele>600</ele>
        <time>2021-08-02T08:29:14.335Z</time>
      </trkpt>
      <trkpt lat="47.04636" lon="9.0376">
        <ele>599</ele>
        <time>2021-08-02T08:29:15.335Z</time>
      </trkpt>
      <trkpt lat="47.04636" lon="9.03758">
        <ele>599</ele>
        <time>2021-08-02T08:29:16.336Z</time>
      </trkpt>
      <trkpt lat="47.04635" lon="9.03757">
        <ele>599</ele>
        <time>2021-08-02T08:29:17.335Z</time>
      </trkpt>
      <trkpt lat="47.04635" lon="9.03755">
        <ele>599</ele>
        <time>2021-08-02T08:29:18.335Z</time>
      </trkpt>
      <trkpt lat="47.04635" lon="9.03754">
        <ele>599</ele>
        <time>2021-08-02T08:29:19.335Z</time>
      </trkpt>
      <trkpt lat="47.04634" lon="9.03752">
        <ele>598</ele>
        <time>2021-08-02T08:29:20.336Z</time>
      </trkpt>
      <trkpt lat="47.04634" lon="9.0375">
        <ele>598</ele>
        <time>2021-08-02T08:29:21.336Z</time>
      </trkpt>
      <trkpt lat="47.04634" lon="9.03749">
        <ele>598</ele>
        <time>2021-08-02T08:29:22.336Z</time>
      </trkpt>
      <trkpt lat="47.04635" lon="9.03747">
        <ele>597</ele>
        <time>2021-08-02T08:29:23.336Z</time>
      </trkpt>
      <trkpt lat="47.04635" lon="9.03745">
        <ele>597</ele>
        <time>2021-08-02T08:29:24.336Z</time>
      </trkpt>
      <trkpt lat="47.04635" lon="9.03744">
        <ele>596</ele>
        <time>2021-08-02T08:29:25.336Z</time>
      </trkpt>
      <trkpt lat="47.04635" lon="9.03743">
        <ele>596</ele>
        <time>2021-08-02T08:29:26.335Z</time>
      </trkpt>
      <trkpt lat="47.04635" lon="9.03742">
        <ele>595</ele>
        <time>2021-08-02T08:29:27.336Z</time>
      </trkpt>
      <trkpt lat="47.04635" lon="9.0374">
        <ele>595</ele>
        <time>2021-08-02T08:29:28.335Z</time>
      </trkpt>
      <trkpt lat="47.04635" lon="9.03739">
        <ele>595</ele>
        <time>2021-08-02T08:29:29.335Z</time>
      </trkpt>
      <trkpt lat="47.04635" lon="9.03737">
        <ele>595</ele>
        <time>2021-08-02T08:29:30.336Z</time>
      </trkpt>
      <trkpt lat="47.04635" lon="9.03735">
        <ele>594</ele>
        <time>2021-08-02T08:29:31.336Z</time>
      </trkpt>
      <trkpt lat="47.04636" lon="9.03733">
        <ele>594</ele>
        <time>2021-08-02T08:29:32.336Z</time>
      </trkpt>
      <trkpt lat="47.04636" lon="9.03732">
        <ele>594</ele>
        <time>2021-08-02T08:29:33.336Z</time>
      </trkpt>
      <trkpt lat="47.04636" lon="9.03731">
        <ele>594</ele>
        <time>2021-08-02T08:29:34.336Z</time>
      </trkpt>
      <trkpt lat="47.04637" lon="9.03729">
        <ele>594</ele>
        <time>2021-08-02T08:29:35.336Z</time>
      </trkpt>
      <trkpt lat="47.04637" lon="9.03728">
        <ele>593</ele>
        <time>2021-08-02T08:29:36.336Z</time>
      </trkpt>
      <trkpt lat="47.04637" lon="9.03727">
        <ele>593</ele>
        <time>2021-08-02T08:29:37.336Z</time>
      </trkpt>
      <trkpt lat="47.04636" lon="9.03726">
        <ele>592</ele>
        <time>2021-08-02T08:29:38.335Z</time>
      </trkpt>
      <trkpt lat="47.04637" lon="9.03725">
        <ele>592</ele>
        <time>2021-08-02T08:29:39.335Z</time>
      </trkpt>
      <trkpt lat="47.04638" lon="9.03723">
        <ele>592</ele>
        <time>2021-08-02T08:29:40.335Z</time>
      </trkpt>
      <trkpt lat="47.04638" lon="9.03721">
        <ele>592</ele>
        <time>2021-08-02T08:29:41.335Z</time>
      </trkpt>
      <trkpt lat="47.04639" lon="9.03719">
        <ele>591</ele>
        <time>2021-08-02T08:29:42.335Z</time>
      </trkpt>
      <trkpt lat="47.04639" lon="9.03718">
        <ele>591</ele>
        <time>2021-08-02T08:29:43.336Z</time>
      </trkpt>
      <trkpt lat="47.0464" lon="9.03717">
        <ele>591</ele>
        <time>2021-08-02T08:29:44.335Z</time>
      </trkpt>
      <trkpt lat="47.0464" lon="9.03715">
        <ele>591</ele>
        <time>2021-08-02T08:29:45.336Z</time>
      </trkpt>
      <trkpt lat="47.0464" lon="9.03714">
        <ele>591</ele>
        <time>2021-08-02T08:29:46.335Z</time>
      </trkpt>
      <trkpt lat="47.0464" lon="9.03713">
        <ele>591</ele>
        <time>2021-08-02T08:29:47.335Z</time>
      </trkpt>
      <trkpt lat="47.04641" lon="9.03711">
        <ele>592</ele>
        <time>2021-08-02T08:29:48.336Z</time>
      </trkpt>
      <trkpt lat="47.04641" lon="9.0371">
        <ele>592</ele>
        <time>2021-08-02T08:29:49.335Z</time>
      </trkpt>
      <trkpt lat="47.04641" lon="9.03709">
        <ele>592</ele>
        <time>2021-08-02T08:29:50.336Z</time>
      </trkpt>
      <trkpt lat="47.04641" lon="9.03707">
        <ele>591</ele>
        <time>2021-08-02T08:29:51.336Z</time>
      </trkpt>
      <trkpt lat="47.04641" lon="9.03706">
        <ele>592</ele>
        <time>2021-08-02T08:29:52.336Z</time>
      </trkpt>
      <trkpt lat="47.04641" lon="9.03704">
        <ele>592</ele>
        <time>2021-08-02T08:29:53.335Z</time>
      </trkpt>
      <trkpt lat="47.04641" lon="9.03702">
        <ele>592</ele>
        <time>2021-08-02T08:29:54.336Z</time>
      </trkpt>
      <trkpt lat="47.0464" lon="9.037">
        <ele>592</ele>
        <time>2021-08-02T08:29:55.336Z</time>
      </trkpt>
      <trkpt lat="47.04639" lon="9.03698">
        <ele>592</ele>
        <time>2021-08-02T08:29:56.335Z</time>
      </trkpt>
      <trkpt lat="47.04639" lon="9.03697">
        <ele>592</ele>
        <time>2021-08-02T08:29:57.336Z</time>
      </trkpt>
      <trkpt lat="47.04639" lon="9.03696">
        <ele>592</ele>
        <time>2021-08-02T08:29:58.336Z</time>
      </trkpt>
      <trkpt lat="47.04638" lon="9.03694">
        <ele>592</ele>
        <time>2021-08-02T08:29:59.336Z</time>
      </trkpt>
      <trkpt lat="47.04637" lon="9.03693">
        <ele>592</ele>
        <time>2021-08-02T08:30:00.336Z</time>
      </trkpt>
      <trkpt lat="47.04637" lon="9.03691">
        <ele>592</ele>
        <time>2021-08-02T08:30:01.335Z</time>
      </trkpt>
      <trkpt lat="47.04637" lon="9.03688">
        <ele>592</ele>
        <time>2021-08-02T08:30:02.336Z</time>
      </trkpt>
      <trkpt lat="47.04636" lon="9.03687">
        <ele>592</ele>
        <time>2021-08-02T08:30:03.336Z</time>
      </trkpt>
      <trkpt lat="47.04636" lon="9.03686">
        <ele>592</ele>
        <time>2021-08-02T08:30:04.335Z</time>
      </trkpt>
      <trkpt lat="47.04635" lon="9.03684">
        <ele>592</ele>
        <time>2021-08-02T08:30:05.336Z</time>
      </trkpt>
      <trkpt lat="47.04634" lon="9.03684">
        <ele>593</ele>
        <time>2021-08-02T08:30:06.336Z</time>
      </trkpt>
      <trkpt lat="47.04634" lon="9.03683">
        <ele>593</ele>
        <time>2021-08-02T08:30:07.336Z</time>
      </trkpt>
      <trkpt lat="47.04634" lon="9.03683">
        <ele>593</ele>
        <time>2021-08-02T08:30:08.335Z</time>
      </trkpt>
      <trkpt lat="47.04633" lon="9.03683">
        <ele>593</ele>
        <time>2021-08-02T08:30:09.336Z</time>
      </trkpt>
      <trkpt lat="47.04633" lon="9.03683">
        <ele>593</ele>
        <time>2021-08-02T08:30:10.336Z</time>
      </trkpt>
      <trkpt lat="47.04634" lon="9.03683">
        <ele>594</ele>
        <time>2021-08-02T08:30:11.336Z</time>
      </trkpt>
      <trkpt lat="47.04634" lon="9.03681">
        <ele>594</ele>
        <time>2021-08-02T08:30:12.335Z</time>
      </trkpt>
      <trkpt lat="47.04634" lon="9.03679">
        <ele>594</ele>
        <time>2021-08-02T08:30:13.335Z</time>
      </trkpt>
      <trkpt lat="47.04635" lon="9.03677">
        <ele>594</ele>
        <time>2021-08-02T08:30:14.336Z</time>
      </trkpt>
      <trkpt lat="47.04635" lon="9.03676">
        <ele>595</ele>
        <time>2021-08-02T08:30:15.335Z</time>
      </trkpt>
      <trkpt lat="47.04635" lon="9.03674">
        <ele>595</ele>
        <time>2021-08-02T08:30:16.335Z</time>
      </trkpt>
      <trkpt lat="47.04633" lon="9.03671">
        <ele>595</ele>
        <time>2021-08-02T08:30:17.336Z</time>
      </trkpt>
      <trkpt lat="47.04632" lon="9.0367">
        <ele>596</ele>
        <time>2021-08-02T08:30:18.336Z</time>
      </trkpt>
      <trkpt lat="47.04632" lon="9.03669">
        <ele>596</ele>
        <time>2021-08-02T08:30:19.336Z</time>
      </trkpt>
      <trkpt lat="47.04631" lon="9.03668">
        <ele>597</ele>
        <time>2021-08-02T08:30:20.336Z</time>
      </trkpt>
      <trkpt lat="47.0463" lon="9.03667">
        <ele>598</ele>
        <time>2021-08-02T08:30:21.335Z</time>
      </trkpt>
      <trkpt lat="47.04629" lon="9.03666">
        <ele>599</ele>
        <time>2021-08-02T08:30:22.336Z</time>
      </trkpt>
      <trkpt lat="47.04628" lon="9.03665">
        <ele>600</ele>
        <time>2021-08-02T08:30:23.336Z</time>
      </trkpt>
      <trkpt lat="47.04628" lon="9.03665">
        <ele>601</ele>
        <time>2021-08-02T08:30:24.336Z</time>
      </trkpt>
      <trkpt lat="47.04628" lon="9.03664">
        <ele>602</ele>
        <time>2021-08-02T08:30:25.336Z</time>
      </trkpt>
      <trkpt lat="47.04628" lon="9.03662">
        <ele>603</ele>
        <time>2021-08-02T08:30:26.336Z</time>
      </trkpt>
      <trkpt lat="47.04628" lon="9.03661">
        <ele>603</ele>
        <time>2021-08-02T08:30:27.336Z</time>
      </trkpt>
      <trkpt lat="47.04627" lon="9.0366">
        <ele>604</ele>
        <time>2021-08-02T08:30:28.336Z</time>
      </trkpt>
      <trkpt lat="47.04627" lon="9.03659">
        <ele>605</ele>
        <time>2021-08-02T08:30:29.336Z</time>
      </trkpt>
      <trkpt lat="47.04626" lon="9.03657">
        <ele>606</ele>
        <time>2021-08-02T08:30:30.336Z</time>
      </trkpt>
      <trkpt lat="47.04626" lon="9.03656">
        <ele>606</ele>
        <time>2021-08-02T08:30:31.336Z</time>
      </trkpt>
      <trkpt lat="47.04625" lon="9.03654">
        <ele>607</ele>
        <time>2021-08-02T08:30:32.336Z</time>
      </trkpt>
      <trkpt lat="47.04624" lon="9.03653">
        <ele>607</ele>
        <time>2021-08-02T08:30:33.336Z</time>
      </trkpt>
      <trkpt lat="47.04624" lon="9.03653">
        <ele>608</ele>
        <time>2021-08-02T08:30:34.336Z</time>
      </trkpt>
      <trkpt lat="47.04623" lon="9.03652">
        <ele>608</ele>
        <time>2021-08-02T08:30:35.335Z</time>
      </trkpt>
      <trkpt lat="47.04623" lon="9.03651">
        <ele>609</ele>
        <time>2021-08-02T08:30:36.336Z</time>
      </trkpt>
      <trkpt lat="47.04623" lon="9.0365">
        <ele>609</ele>
        <time>2021-08-02T08:30:37.336Z</time>
      </trkpt>
      <trkpt lat="47.04622" lon="9.03648">
        <ele>609</ele>
        <time>2021-08-02T08:30:38.336Z</time>
      </trkpt>
      <trkpt lat="47.04622" lon="9.03647">
        <ele>609</ele>
        <time>2021-08-02T08:30:39.335Z</time>
      </trkpt>
      <trkpt lat="47.04621" lon="9.03645">
        <ele>610</ele>
        <time>2021-08-02T08:30:40.335Z</time>
      </trkpt>
      <trkpt lat="47.0462" lon="9.03644">
        <ele>610</ele>
        <time>2021-08-02T08:30:41.336Z</time>
      </trkpt>
      <trkpt lat="47.04619" lon="9.03643">
        <ele>610</ele>
        <time>2021-08-02T08:30:42.335Z</time>
      </trkpt>
      <trkpt lat="47.04618" lon="9.03642">
        <ele>611</ele>
        <time>2021-08-02T08:30:43.336Z</time>
      </trkpt>
      <trkpt lat="47.04619" lon="9.03641">
        <ele>611</ele>
        <time>2021-08-02T08:30:44.336Z</time>
      </trkpt>
      <trkpt lat="47.04618" lon="9.03641">
        <ele>611</ele>
        <time>2021-08-02T08:30:45.336Z</time>
      </trkpt>
      <trkpt lat="47.04618" lon="9.03639">
        <ele>611</ele>
        <time>2021-08-02T08:30:46.336Z</time>
      </trkpt>
      <trkpt lat="47.04617" lon="9.03637">
        <ele>611</ele>
        <time>2021-08-02T08:30:47.336Z</time>
      </trkpt>
      <trkpt lat="47.04617" lon="9.03635">
        <ele>612</ele>
        <time>2021-08-02T08:30:48.335Z</time>
      </trkpt>
      <trkpt lat="47.04616" lon="9.03634">
        <ele>612</ele>
        <time>2021-08-02T08:30:49.336Z</time>
      </trkpt>
      <trkpt lat="47.04616" lon="9.03633">
        <ele>613</ele>
        <time>2021-08-02T08:30:50.335Z</time>
      </trkpt>
      <trkpt lat="47.04615" lon="9.03632">
        <ele>613</ele>
        <time>2021-08-02T08:30:51.335Z</time>
      </trkpt>
      <trkpt lat="47.04616" lon="9.03632">
        <ele>614</ele>
        <time>2021-08-02T08:30:52.335Z</time>
      </trkpt>
      <trkpt lat="47.04615" lon="9.03632">
        <ele>615</ele>
        <time>2021-08-02T08:30:53.336Z</time>
      </trkpt>
      <trkpt lat="47.04615" lon="9.0363">
        <ele>616</ele>
        <time>2021-08-02T08:30:54.336Z</time>
      </trkpt>
      <trkpt lat="47.04616" lon="9.0363">
        <ele>616</ele>
        <time>2021-08-02T08:30:55.336Z</time>
      </trkpt>
      <trkpt lat="47.04617" lon="9.03628">
        <ele>617</ele>
        <time>2021-08-02T08:30:56.336Z</time>
      </trkpt>
      <trkpt lat="47.04617" lon="9.03628">
        <ele>618</ele>
        <time>2021-08-02T08:30:57.336Z</time>
      </trkpt>
      <trkpt lat="47.04616" lon="9.03627">
        <ele>619</ele>
        <time>2021-08-02T08:30:58.335Z</time>
      </trkpt>
      <trkpt lat="47.04615" lon="9.03627">
        <ele>620</ele>
        <time>2021-08-02T08:30:59.335Z</time>
      </trkpt>
      <trkpt lat="47.04615" lon="9.03627">
        <ele>621</ele>
        <time>2021-08-02T08:31:00.335Z</time>
      </trkpt>
      <trkpt lat="47.04614" lon="9.03626">
        <ele>622</ele>
        <time>2021-08-02T08:31:01.335Z</time>
      </trkpt>
      <trkpt lat="47.04613" lon="9.03624">
        <ele>623</ele>
        <time>2021-08-02T08:31:02.335Z</time>
      </trkpt>
      <trkpt lat="47.04613" lon="9.03623">
        <ele>624</ele>
        <time>2021-08-02T08:31:03.336Z</time>
      </trkpt>
      <trkpt lat="47.04613" lon="9.03621">
        <ele>625</ele>
        <time>2021-08-02T08:31:04.336Z</time>
      </trkpt>
      <trkpt lat="47.04612" lon="9.0362">
        <ele>627</ele>
        <time>2021-08-02T08:31:05.335Z</time>
      </trkpt>
      <trkpt lat="47.04612" lon="9.03618">
        <ele>628</ele>
        <time>2021-08-02T08:31:06.336Z</time>
      </trkpt>
      <trkpt lat="47.04612" lon="9.03617">
        <ele>629</ele>
        <time>2021-08-02T08:31:07.336Z</time>
      </trkpt>
      <trkpt lat="47.04612" lon="9.03616">
        <ele>630</ele>
        <time>2021-08-02T08:31:08.336Z</time>
      </trkpt>
      <trkpt lat="47.04613" lon="9.03615">
        <ele>631</ele>
        <time>2021-08-02T08:31:09.336Z</time>
      </trkpt>
      <trkpt lat="47.04613" lon="9.03614">
        <ele>632</ele>
        <time>2021-08-02T08:31:10.335Z</time>
      </trkpt>
      <trkpt lat="47.04614" lon="9.03613">
        <ele>634</ele>
        <time>2021-08-02T08:31:11.335Z</time>
      </trkpt>
      <trkpt lat="47.04614" lon="9.03612">
        <ele>635</ele>
        <time>2021-08-02T08:31:12.335Z</time>
      </trkpt>
      <trkpt lat="47.04615" lon="9.03611">
        <ele>637</ele>
        <time>2021-08-02T08:31:13.336Z</time>
      </trkpt>
      <trkpt lat="47.04615" lon="9.0361">
        <ele>638</ele>
        <time>2021-08-02T08:31:14.336Z</time>
      </trkpt>
      <trkpt lat="47.04615" lon="9.03608">
        <ele>640</ele>
        <time>2021-08-02T08:31:15.336Z</time>
      </trkpt>
      <trkpt lat="47.04615" lon="9.03606">
        <ele>641</ele>
        <time>2021-08-02T08:31:16.335Z</time>
      </trkpt>
      <trkpt lat="47.04615" lon="9.03606">
        <ele>643</ele>
        <time>2021-08-02T08:31:17.336Z</time>
      </trkpt>
      <trkpt lat="47.04615" lon="9.03605">
        <ele>644</ele>
        <time>2021-08-02T08:31:18.336Z</time>
      </trkpt>
      <trkpt lat="47.04615" lon="9.03604">
        <ele>646</ele>
        <time>2021-08-02T08:31:19.336Z</time>
      </trkpt>
      <trkpt lat="47.04615" lon="9.03602">
        <ele>647</ele>
        <time>2021-08-02T08:31:20.336Z</time>
      </trkpt>
      <trkpt lat="47.04616" lon="9.03601">
        <ele>648</ele>
        <time>2021-08-02T08:31:21.336Z</time>
      </trkpt>
      <trkpt lat="47.04616" lon="9.03599">
        <ele>649</ele>
        <time>2021-08-02T08:31:22.335Z</time>
      </trkpt>
      <trkpt lat="47.04616" lon="9.03597">
        <ele>650</ele>
        <time>2021-08-02T08:31:23.336Z</time>
      </trkpt>
      <trkpt lat="47.04616" lon="9.03596">
        <ele>651</ele>
        <time>2021-08-02T08:31:24.336Z</time>
      </trkpt>
      <trkpt lat="47.04616" lon="9.03595">
        <ele>652</ele>
        <time>2021-08-02T08:31:25.335Z</time>
      </trkpt>
      <trkpt lat="47.04616" lon="9.03593">
        <ele>653</ele>
        <time>2021-08-02T08:31:26.336Z</time>
      </trkpt>
      <trkpt lat="47.04616" lon="9.03592">
        <ele>653</ele>
        <time>2021-08-02T08:31:27.336Z</time>
      </trkpt>
      <trkpt lat="47.04615" lon="9.03591">
        <ele>654</ele>
        <time>2021-08-02T08:31:28.336Z</time>
      </trkpt>
      <trkpt lat="47.04615" lon="9.03589">
        <ele>654</ele>
        <time>2021-08-02T08:31:29.336Z</time>
      </trkpt>
      <trkpt lat="47.04616" lon="9.03588">
        <ele>655</ele>
        <time>2021-08-02T08:31:30.336Z</time>
      </trkpt>
      <trkpt lat="47.04616" lon="9.03587">
        <ele>655</ele>
        <time>2021-08-02T08:31:31.335Z</time>
      </trkpt>
      <trkpt lat="47.04616" lon="9.03585">
        <ele>656</ele>
        <time>2021-08-02T08:31:32.335Z</time>
      </trkpt>
      <trkpt lat="47.04615" lon="9.03584">
        <ele>656</ele>
        <time>2021-08-02T08:31:33.336Z</time>
      </trkpt>
      <trkpt lat="47.04615" lon="9.03583">
        <ele>657</ele>
        <time>2021-08-02T08:31:34.336Z</time>
      </trkpt>
      <trkpt lat="47.04615" lon="9.03581">
        <ele>657</ele>
        <time>2021-08-02T08:31:35.335Z</time>
      </trkpt>
      <trkpt lat="47.04615" lon="9.0358">
        <ele>658</ele>
        <time>2021-08-02T08:31:36.335Z</time>
      </trkpt>
      <trkpt lat="47.04614" lon="9.03579">
        <ele>658</ele>
        <time>2021-08-02T08:31:37.336Z</time>
      </trkpt>
      <trkpt lat="47.04613" lon="9.03578">
        <ele>659</ele>
        <time>2021-08-02T08:31:38.335Z</time>
      </trkpt>
      <trkpt lat="47.04613" lon="9.03577">
        <ele>659</ele>
        <time>2021-08-02T08:31:39.336Z</time>
      </trkpt>
      <trkpt lat="47.04614" lon="9.03576">
        <ele>660</ele>
        <time>2021-08-02T08:31:40.336Z</time>
      </trkpt>
      <trkpt lat="47.04613" lon="9.03575">
        <ele>660</ele>
        <time>2021-08-02T08:31:41.335Z</time>
      </trkpt>
      <trkpt lat="47.04613" lon="9.03574">
        <ele>661</ele>
        <time>2021-08-02T08:31:42.335Z</time>
      </trkpt>
      <trkpt lat="47.04613" lon="9.03573">
        <ele>661</ele>
        <time>2021-08-02T08:31:43.335Z</time>
      </trkpt>
      <trkpt lat="47.04612" lon="9.03572">
        <ele>661</ele>
        <time>2021-08-02T08:31:44.336Z</time>
      </trkpt>
      <trkpt lat="47.04611" lon="9.03571">
        <ele>662</ele>
        <time>2021-08-02T08:31:45.336Z</time>
      </trkpt>
      <trkpt lat="47.0461" lon="9.0357">
        <ele>662</ele>
        <time>2021-08-02T08:31:46.335Z</time>
      </trkpt>
      <trkpt lat="47.0461" lon="9.03568">
        <ele>662</ele>
        <time>2021-08-02T08:31:47.335Z</time>
      </trkpt>
      <trkpt lat="47.0461" lon="9.03566">
        <ele>662</ele>
        <time>2021-08-02T08:31:48.335Z</time>
      </trkpt>
      <trkpt lat="47.0461" lon="9.03565">
        <ele>662</ele>
        <time>2021-08-02T08:31:49.335Z</time>
      </trkpt>
      <trkpt lat="47.0461" lon="9.03564">
        <ele>662</ele>
        <time>2021-08-02T08:31:50.336Z</time>
      </trkpt>
      <trkpt lat="47.0461" lon="9.03562">
        <ele>663</ele>
        <time>2021-08-02T08:31:51.335Z</time>
      </trkpt>
      <trkpt lat="47.04611" lon="9.03561">
        <ele>663</ele>
        <time>2021-08-02T08:31:52.336Z</time>
      </trkpt>
      <trkpt lat="47.0461" lon="9.03559">
        <ele>663</ele>
        <time>2021-08-02T08:31:53.336Z</time>
      </trkpt>
      <trkpt lat="47.04611" lon="9.03557">
        <ele>663</ele>
        <time>2021-08-02T08:31:54.335Z</time>
      </trkpt>
      <trkpt lat="47.04611" lon="9.03556">
        <ele>663</ele>
        <time>2021-08-02T08:31:55.335Z</time>
      </trkpt>
      <trkpt lat="47.04612" lon="9.03555">
        <ele>664</ele>
        <time>2021-08-02T08:31:56.336Z</time>
      </trkpt>
      <trkpt lat="47.04613" lon="9.03554">
        <ele>664</ele>
        <time>2021-08-02T08:31:57.336Z</time>
      </trkpt>
      <trkpt lat="47.04614" lon="9.03553">
        <ele>664</ele>
        <time>2021-08-02T08:31:58.336Z</time>
      </trkpt>
      <trkpt lat="47.04614" lon="9.03552">
        <ele>664</ele>
        <time>2021-08-02T08:31:59.336Z</time>
      </trkpt>
      <trkpt lat="47.04614" lon="9.03551">
        <ele>664</ele>
        <time>2021-08-02T08:32:00.335Z</time>
      </trkpt>
      <trkpt lat="47.04614" lon="9.0355">
        <ele>664</ele>
        <time>2021-08-02T08:32:01.336Z</time>
      </trkpt>
      <trkpt lat="47.04614" lon="9.03549">
        <ele>664</ele>
        <time>2021-08-02T08:32:02.336Z</time>
      </trkpt>
      <trkpt lat="47.04614" lon="9.03548">
        <ele>664</ele>
        <time>2021-08-02T08:32:03.336Z</time>
      </trkpt>
      <trkpt lat="47.04615" lon="9.03546">
        <ele>663</ele>
        <time>2021-08-02T08:32:04.336Z</time>
      </trkpt>
      <trkpt lat="47.04616" lon="9.03545">
        <ele>663</ele>
        <time>2021-08-02T08:32:05.336Z</time>
      </trkpt>
      <trkpt lat="47.04616" lon="9.03544">
        <ele>663</ele>
        <time>2021-08-02T08:32:06.336Z</time>
      </trkpt>
      <trkpt lat="47.04615" lon="9.03543">
        <ele>663</ele>
        <time>2021-08-02T08:32:07.336Z</time>
      </trkpt>
      <trkpt lat="47.04614" lon="9.03543">
        <ele>663</ele>
        <time>2021-08-02T08:32:08.336Z</time>
      </trkpt>
      <trkpt lat="47.04614" lon="9.03543">
        <ele>663</ele>
        <time>2021-08-02T08:32:09.336Z</time>
      </trkpt>
      <trkpt lat="47.04614" lon="9.03543">
        <ele>663</ele>
        <time>2021-08-02T08:32:10.336Z</time>
      </trkpt>
      <trkpt lat="47.04614" lon="9.03542">
        <ele>664</ele>
        <time>2021-08-02T08:32:11.335Z</time>
      </trkpt>
      <trkpt lat="47.04614" lon="9.03541">
        <ele>664</ele>
        <time>2021-08-02T08:32:12.336Z</time>
      </trkpt>
      <trkpt lat="47.04614" lon="9.0354">
        <ele>664</ele>
        <time>2021-08-02T08:32:13.336Z</time>
      </trkpt>
      <trkpt lat="47.04614" lon="9.03539">
        <ele>664</ele>
        <time>2021-08-02T08:32:14.336Z</time>
      </trkpt>
      <trkpt lat="47.04614" lon="9.03539">
        <ele>664</ele>
        <time>2021-08-02T08:32:15.335Z</time>
      </trkpt>
      <trkpt lat="47.04614" lon="9.03538">
        <ele>664</ele>
        <time>2021-08-02T08:32:16.336Z</time>
      </trkpt>
      <trkpt lat="47.04614" lon="9.03537">
        <ele>663</ele>
        <time>2021-08-02T08:32:17.336Z</time>
      </trkpt>
      <trkpt lat="47.04614" lon="9.03535">
        <ele>663</ele>
        <time>2021-08-02T08:32:18.336Z</time>
      </trkpt>
      <trkpt lat="47.04614" lon="9.03534">
        <ele>663</ele>
        <time>2021-08-02T08:32:19.335Z</time>
      </trkpt>
      <trkpt lat="47.04613" lon="9.03534">
        <ele>663</ele>
        <time>2021-08-02T08:32:20.336Z</time>
      </trkpt>
      <trkpt lat="47.04613" lon="9.03533">
        <ele>664</ele>
        <time>2021-08-02T08:32:21.336Z</time>
      </trkpt>
      <trkpt lat="47.04613" lon="9.03533">
        <ele>664</ele>
        <time>2021-08-02T08:32:22.335Z</time>
      </trkpt>
      <trkpt lat="47.04613" lon="9.03533">
        <ele>664</ele>
        <time>2021-08-02T08:32:23.336Z</time>
      </trkpt>
      <trkpt lat="47.04612" lon="9.03529">
        <ele>665</ele>
        <time>2021-08-02T08:32:24.336Z</time>
      </trkpt>
      <trkpt lat="47.04613" lon="9.03528">
        <ele>665</ele>
        <time>2021-08-02T08:32:25.336Z</time>
      </trkpt>
      <trkpt lat="47.04609" lon="9.03521">
        <ele>665</ele>
        <time>2021-08-02T08:32:26.337Z</time>
      </trkpt>
      <trkpt lat="47.04608" lon="9.0352">
        <ele>665</ele>
        <time>2021-08-02T08:32:27.337Z</time>
      </trkpt>
      <trkpt lat="47.04608" lon="9.03518">
        <ele>664</ele>
        <time>2021-08-02T08:32:28.337Z</time>
      </trkpt>
      <trkpt lat="47.0461" lon="9.03525">
        <ele>668</ele>
        <time>2021-08-02T08:32:29.337Z</time>
      </trkpt>
      <trkpt lat="47.04611" lon="9.03525">
        <ele>668</ele>
        <time>2021-08-02T08:32:30.337Z</time>
      </trkpt>
      <trkpt lat="47.04611" lon="9.03525">
        <ele>668</ele>
        <time>2021-08-02T08:32:31.336Z</time>
      </trkpt>
      <trkpt lat="47.04612" lon="9.03525">
        <ele>668</ele>
        <time>2021-08-02T08:32:32.337Z</time>
      </trkpt>
      <trkpt lat="47.04613" lon="9.03524">
        <ele>668</ele>
        <time>2021-08-02T08:32:33.336Z</time>
      </trkpt>
      <trkpt lat="47.04614" lon="9.03524">
        <ele>668</ele>
        <time>2021-08-02T08:32:34.336Z</time>
      </trkpt>
      <trkpt lat="47.04615" lon="9.03524">
        <ele>668</ele>
        <time>2021-08-02T08:32:35.337Z</time>
      </trkpt>
      <trkpt lat="47.04616" lon="9.03524">
        <ele>668</ele>
        <time>2021-08-02T08:32:36.336Z</time>
      </trkpt>
      <trkpt lat="47.04617" lon="9.03523">
        <ele>668</ele>
        <time>2021-08-02T08:32:37.337Z</time>
      </trkpt>
      <trkpt lat="47.04617" lon="9.03523">
        <ele>668</ele>
        <time>2021-08-02T08:32:38.337Z</time>
      </trkpt>
      <trkpt lat="47.04618" lon="9.03523">
        <ele>668</ele>
        <time>2021-08-02T08:32:39.336Z</time>
      </trkpt>
      <trkpt lat="47.04618" lon="9.03524">
        <ele>668</ele>
        <time>2021-08-02T08:32:40.337Z</time>
      </trkpt>
      <trkpt lat="47.0462" lon="9.03524">
        <ele>668</ele>
        <time>2021-08-02T08:32:41.337Z</time>
      </trkpt>
      <trkpt lat="47.04621" lon="9.03524">
        <ele>668</ele>
        <time>2021-08-02T08:32:42.336Z</time>
      </trkpt>
      <trkpt lat="47.04621" lon="9.03523">
        <ele>668</ele>
        <time>2021-08-02T08:32:43.336Z</time>
      </trkpt>
      <trkpt lat="47.04622" lon="9.03523">
        <ele>668</ele>
        <time>2021-08-02T08:32:44.336Z</time>
      </trkpt>
      <trkpt lat="47.04622" lon="9.03523">
        <ele>669</ele>
        <time>2021-08-02T08:32:45.337Z</time>
      </trkpt>
      <trkpt lat="47.04623" lon="9.03522">
        <ele>669</ele>
        <time>2021-08-02T08:32:46.337Z</time>
      </trkpt>
      <trkpt lat="47.04624" lon="9.03522">
        <ele>669</ele>
        <time>2021-08-02T08:32:47.337Z</time>
      </trkpt>
      <trkpt lat="47.04625" lon="9.03521">
        <ele>669</ele>
        <time>2021-08-02T08:32:48.336Z</time>
      </trkpt>
      <trkpt lat="47.04625" lon="9.03521">
        <ele>669</ele>
        <time>2021-08-02T08:32:49.337Z</time>
      </trkpt>
      <trkpt lat="47.04626" lon="9.03521">
        <ele>669</ele>
        <time>2021-08-02T08:32:50.337Z</time>
      </trkpt>
      <trkpt lat="47.04626" lon="9.03521">
        <ele>669</ele>
        <time>2021-08-02T08:32:51.337Z</time>
      </trkpt>
      <trkpt lat="47.04626" lon="9.03521">
        <ele>669</ele>
        <time>2021-08-02T08:32:52.337Z</time>
      </trkpt>
      <trkpt lat="47.04626" lon="9.0352">
        <ele>669</ele>
        <time>2021-08-02T08:32:53.336Z</time>
      </trkpt>
      <trkpt lat="47.04627" lon="9.03519">
        <ele>670</ele>
        <time>2021-08-02T08:32:54.337Z</time>
      </trkpt>
      <trkpt lat="47.04628" lon="9.03518">
        <ele>670</ele>
        <time>2021-08-02T08:32:55.337Z</time>
      </trkpt>
      <trkpt lat="47.04629" lon="9.03517">
        <ele>670</ele>
        <time>2021-08-02T08:32:56.336Z</time>
      </trkpt>
      <trkpt lat="47.04629" lon="9.03516">
        <ele>670</ele>
        <time>2021-08-02T08:32:57.337Z</time>
      </trkpt>
      <trkpt lat="47.0463" lon="9.03515">
        <ele>670</ele>
        <time>2021-08-02T08:32:58.336Z</time>
      </trkpt>
      <trkpt lat="47.0463" lon="9.03515">
        <ele>670</ele>
        <time>2021-08-02T08:32:59.336Z</time>
      </trkpt>
      <trkpt lat="47.04631" lon="9.03514">
        <ele>670</ele>
        <time>2021-08-02T08:33:00.337Z</time>
      </trkpt>
      <trkpt lat="47.04631" lon="9.03513">
        <ele>670</ele>
        <time>2021-08-02T08:33:01.337Z</time>
      </trkpt>
      <trkpt lat="47.04631" lon="9.03512">
        <ele>671</ele>
        <time>2021-08-02T08:33:02.337Z</time>
      </trkpt>
      <trkpt lat="47.04631" lon="9.03511">
        <ele>671</ele>
        <time>2021-08-02T08:33:03.337Z</time>
      </trkpt>
      <trkpt lat="47.04632" lon="9.0351">
        <ele>671</ele>
        <time>2021-08-02T08:33:04.336Z</time>
      </trkpt>
      <trkpt lat="47.04632" lon="9.03509">
        <ele>671</ele>
        <time>2021-08-02T08:33:05.337Z</time>
      </trkpt>
      <trkpt lat="47.04632" lon="9.03508">
        <ele>671</ele>
        <time>2021-08-02T08:33:06.337Z</time>
      </trkpt>
      <trkpt lat="47.04633" lon="9.03506">
        <ele>671</ele>
        <time>2021-08-02T08:33:07.337Z</time>
      </trkpt>
      <trkpt lat="47.04633" lon="9.03505">
        <ele>671</ele>
        <time>2021-08-02T08:33:08.337Z</time>
      </trkpt>
      <trkpt lat="47.04634" lon="9.03503">
        <ele>671</ele>
        <time>2021-08-02T08:33:09.336Z</time>
      </trkpt>
      <trkpt lat="47.04634" lon="9.03503">
        <ele>671</ele>
        <time>2021-08-02T08:33:10.336Z</time>
      </trkpt>
      <trkpt lat="47.04636" lon="9.03502">
        <ele>671</ele>
        <time>2021-08-02T08:33:11.337Z</time>
      </trkpt>
      <trkpt lat="47.04637" lon="9.03501">
        <ele>671</ele>
        <time>2021-08-02T08:33:12.337Z</time>
      </trkpt>
      <trkpt lat="47.04637" lon="9.035">
        <ele>671</ele>
        <time>2021-08-02T08:33:13.337Z</time>
      </trkpt>
      <trkpt lat="47.04638" lon="9.03498">
        <ele>671</ele>
        <time>2021-08-02T08:33:14.337Z</time>
      </trkpt>
      <trkpt lat="47.04638" lon="9.03497">
        <ele>672</ele>
        <time>2021-08-02T08:33:15.336Z</time>
      </trkpt>
      <trkpt lat="47.04638" lon="9.03496">
        <ele>672</ele>
        <time>2021-08-02T08:33:16.337Z</time>
      </trkpt>
      <trkpt lat="47.04638" lon="9.03495">
        <ele>673</ele>
        <time>2021-08-02T08:33:17.337Z</time>
      </trkpt>
      <trkpt lat="47.04638" lon="9.03494">
        <ele>673</ele>
        <time>2021-08-02T08:33:18.336Z</time>
      </trkpt>
      <trkpt lat="47.04639" lon="9.03493">
        <ele>674</ele>
        <time>2021-08-02T08:33:19.337Z</time>
      </trkpt>
      <trkpt lat="47.04639" lon="9.03492">
        <ele>674</ele>
        <time>2021-08-02T08:33:20.337Z</time>
      </trkpt>
      <trkpt lat="47.0464" lon="9.03491">
        <ele>674</ele>
        <time>2021-08-02T08:33:21.337Z</time>
      </trkpt>
      <trkpt lat="47.0464" lon="9.0349">
        <ele>675</ele>
        <time>2021-08-02T08:33:22.337Z</time>
      </trkpt>
      <trkpt lat="47.0464" lon="9.03489">
        <ele>675</ele>
        <time>2021-08-02T08:33:23.337Z</time>
      </trkpt>
      <trkpt lat="47.0464" lon="9.03488">
        <ele>675</ele>
        <time>2021-08-02T08:33:24.337Z</time>
      </trkpt>
      <trkpt lat="47.0464" lon="9.03487">
        <ele>675</ele>
        <time>2021-08-02T08:33:25.337Z</time>
      </trkpt>
      <trkpt lat="47.0464" lon="9.03485">
        <ele>676</ele>
        <time>2021-08-02T08:33:26.336Z</time>
      </trkpt>
      <trkpt lat="47.0464" lon="9.03484">
        <ele>676</ele>
        <time>2021-08-02T08:33:27.336Z</time>
      </trkpt>
      <trkpt lat="47.04639" lon="9.03483">
        <ele>676</ele>
        <time>2021-08-02T08:33:28.336Z</time>
      </trkpt>
      <trkpt lat="47.04639" lon="9.03482">
        <ele>677</ele>
        <time>2021-08-02T08:33:29.336Z</time>
      </trkpt>
      <trkpt lat="47.04639" lon="9.0348">
        <ele>677</ele>
        <time>2021-08-02T08:33:30.337Z</time>
      </trkpt>
      <trkpt lat="47.0464" lon="9.03479">
        <ele>677</ele>
        <time>2021-08-02T08:33:31.337Z</time>
      </trkpt>
      <trkpt lat="47.0464" lon="9.03477">
        <ele>677</ele>
        <time>2021-08-02T08:33:32.337Z</time>
      </trkpt>
      <trkpt lat="47.04641" lon="9.03476">
        <ele>677</ele>
        <time>2021-08-02T08:33:33.337Z</time>
      </trkpt>
      <trkpt lat="47.04641" lon="9.03475">
        <ele>677</ele>
        <time>2021-08-02T08:33:34.337Z</time>
      </trkpt>
      <trkpt lat="47.04641" lon="9.03474">
        <ele>678</ele>
        <time>2021-08-02T08:33:35.337Z</time>
      </trkpt>
      <trkpt lat="47.04641" lon="9.03473">
        <ele>678</ele>
        <time>2021-08-02T08:33:36.336Z</time>
      </trkpt>
      <trkpt lat="47.04642" lon="9.03471">
        <ele>679</ele>
        <time>2021-08-02T08:33:37.337Z</time>
      </trkpt>
      <trkpt lat="47.04642" lon="9.0347">
        <ele>679</ele>
        <time>2021-08-02T08:33:38.337Z</time>
      </trkpt>
      <trkpt lat="47.04642" lon="9.03469">
        <ele>680</ele>
        <time>2021-08-02T08:33:39.336Z</time>
      </trkpt>
      <trkpt lat="47.04642" lon="9.03467">
        <ele>680</ele>
        <time>2021-08-02T08:33:40.337Z</time>
      </trkpt>
      <trkpt lat="47.04642" lon="9.03466">
        <ele>680</ele>
        <time>2021-08-02T08:33:41.337Z</time>
      </trkpt>
      <trkpt lat="47.04642" lon="9.03465">
        <ele>680</ele>
        <time>2021-08-02T08:33:42.337Z</time>
      </trkpt>
      <trkpt lat="47.04642" lon="9.03464">
        <ele>680</ele>
        <time>2021-08-02T08:33:43.337Z</time>
      </trkpt>
      <trkpt lat="47.04642" lon="9.03463">
        <ele>680</ele>
        <time>2021-08-02T08:33:44.337Z</time>
      </trkpt>
      <trkpt lat="47.04643" lon="9.03462">
        <ele>680</ele>
        <time>2021-08-02T08:33:45.337Z</time>
      </trkpt>
      <trkpt lat="47.04643" lon="9.0346">
        <ele>680</ele>
        <time>2021-08-02T08:33:46.337Z</time>
      </trkpt>
      <trkpt lat="47.04644" lon="9.03459">
        <ele>680</ele>
        <time>2021-08-02T08:33:47.336Z</time>
      </trkpt>
      <trkpt lat="47.04644" lon="9.03458">
        <ele>680</ele>
        <time>2021-08-02T08:33:48.336Z</time>
      </trkpt>
      <trkpt lat="47.04644" lon="9.03457">
        <ele>679</ele>
        <time>2021-08-02T08:33:49.337Z</time>
      </trkpt>
      <trkpt lat="47.04644" lon="9.03456">
        <ele>679</ele>
        <time>2021-08-02T08:33:50.337Z</time>
      </trkpt>
      <trkpt lat="47.04644" lon="9.03455">
        <ele>679</ele>
        <time>2021-08-02T08:33:51.337Z</time>
      </trkpt>
      <trkpt lat="47.04644" lon="9.03453">
        <ele>678</ele>
        <time>2021-08-02T08:33:52.336Z</time>
      </trkpt>
      <trkpt lat="47.04644" lon="9.03452">
        <ele>678</ele>
        <time>2021-08-02T08:33:53.336Z</time>
      </trkpt>
      <trkpt lat="47.04644" lon="9.03451">
        <ele>678</ele>
        <time>2021-08-02T08:33:54.336Z</time>
      </trkpt>
      <trkpt lat="47.04644" lon="9.0345">
        <ele>678</ele>
        <time>2021-08-02T08:33:55.337Z</time>
      </trkpt>
      <trkpt lat="47.04645" lon="9.03448">
        <ele>678</ele>
        <time>2021-08-02T08:33:56.337Z</time>
      </trkpt>
      <trkpt lat="47.04645" lon="9.03447">
        <ele>678</ele>
        <time>2021-08-02T08:33:57.337Z</time>
      </trkpt>
      <trkpt lat="47.04645" lon="9.03447">
        <ele>678</ele>
        <time>2021-08-02T08:33:58.337Z</time>
      </trkpt>
      <trkpt lat="47.04645" lon="9.03446">
        <ele>678</ele>
        <time>2021-08-02T08:33:59.337Z</time>
      </trkpt>
      <trkpt lat="47.04645" lon="9.03445">
        <ele>678</ele>
        <time>2021-08-02T08:34:00.337Z</time>
      </trkpt>
      <trkpt lat="47.04645" lon="9.03444">
        <ele>678</ele>
        <time>2021-08-02T08:34:01.337Z</time>
      </trkpt>
      <trkpt lat="47.04645" lon="9.03443">
        <ele>677</ele>
        <time>2021-08-02T08:34:02.337Z</time>
      </trkpt>
      <trkpt lat="47.04645" lon="9.03441">
        <ele>677</ele>
        <time>2021-08-02T08:34:03.337Z</time>
      </trkpt>
      <trkpt lat="47.04644" lon="9.0344">
        <ele>676</ele>
        <time>2021-08-02T08:34:04.336Z</time>
      </trkpt>
      <trkpt lat="47.04644" lon="9.0344">
        <ele>675</ele>
        <time>2021-08-02T08:34:05.336Z</time>
      </trkpt>
      <trkpt lat="47.04643" lon="9.0344">
        <ele>674</ele>
        <time>2021-08-02T08:34:06.337Z</time>
      </trkpt>
      <trkpt lat="47.04643" lon="9.03439">
        <ele>673</ele>
        <time>2021-08-02T08:34:07.337Z</time>
      </trkpt>
      <trkpt lat="47.04643" lon="9.03438">
        <ele>671</ele>
        <time>2021-08-02T08:34:08.337Z</time>
      </trkpt>
      <trkpt lat="47.04643" lon="9.03438">
        <ele>670</ele>
        <time>2021-08-02T08:34:09.337Z</time>
      </trkpt>
      <trkpt lat="47.04643" lon="9.03438">
        <ele>668</ele>
        <time>2021-08-02T08:34:10.336Z</time>
      </trkpt>
      <trkpt lat="47.04642" lon="9.03438">
        <ele>665</ele>
        <time>2021-08-02T08:34:11.338Z</time>
      </trkpt>
      <trkpt lat="47.04642" lon="9.03438">
        <ele>663</ele>
        <time>2021-08-02T08:34:12.337Z</time>
      </trkpt>
      <trkpt lat="47.04642" lon="9.03437">
        <ele>661</ele>
        <time>2021-08-02T08:34:13.337Z</time>
      </trkpt>
      <trkpt lat="47.04642" lon="9.03435">
        <ele>659</ele>
        <time>2021-08-02T08:34:14.337Z</time>
      </trkpt>
      <trkpt lat="47.04641" lon="9.03433">
        <ele>657</ele>
        <time>2021-08-02T08:34:15.338Z</time>
      </trkpt>
      <trkpt lat="47.04641" lon="9.03431">
        <ele>655</ele>
        <time>2021-08-02T08:34:16.338Z</time>
      </trkpt>
      <trkpt lat="47.04642" lon="9.0343">
        <ele>654</ele>
        <time>2021-08-02T08:34:17.337Z</time>
      </trkpt>
      <trkpt lat="47.04642" lon="9.03429">
        <ele>652</ele>
        <time>2021-08-02T08:34:18.338Z</time>
      </trkpt>
      <trkpt lat="47.04642" lon="9.03429">
        <ele>651</ele>
        <time>2021-08-02T08:34:19.337Z</time>
      </trkpt>
      <trkpt lat="47.04642" lon="9.03429">
        <ele>650</ele>
        <time>2021-08-02T08:34:20.338Z</time>
      </trkpt>
      <trkpt lat="47.04642" lon="9.03428">
        <ele>647</ele>
        <time>2021-08-02T08:34:21.337Z</time>
      </trkpt>
      <trkpt lat="47.04643" lon="9.03428">
        <ele>647</ele>
        <time>2021-08-02T08:34:22.338Z</time>
      </trkpt>
      <trkpt lat="47.04643" lon="9.03427">
        <ele>646</ele>
        <time>2021-08-02T08:34:23.337Z</time>
      </trkpt>
      <trkpt lat="47.04644" lon="9.03426">
        <ele>645</ele>
        <time>2021-08-02T08:34:24.337Z</time>
      </trkpt>
      <trkpt lat="47.04644" lon="9.03426">
        <ele>644</ele>
        <time>2021-08-02T08:34:25.338Z</time>
      </trkpt>
      <trkpt lat="47.04644" lon="9.03425">
        <ele>643</ele>
        <time>2021-08-02T08:34:26.337Z</time>
      </trkpt>
      <trkpt lat="47.04643" lon="9.03424">
        <ele>643</ele>
        <time>2021-08-02T08:34:27.338Z</time>
      </trkpt>
      <trkpt lat="47.04643" lon="9.03424">
        <ele>642</ele>
        <time>2021-08-02T08:34:28.338Z</time>
      </trkpt>
      <trkpt lat="47.04644" lon="9.03423">
        <ele>641</ele>
        <time>2021-08-02T08:34:29.338Z</time>
      </trkpt>
      <trkpt lat="47.04643" lon="9.03422">
        <ele>640</ele>
        <time>2021-08-02T08:34:30.337Z</time>
      </trkpt>
      <trkpt lat="47.04644" lon="9.03422">
        <ele>639</ele>
        <time>2021-08-02T08:34:31.337Z</time>
      </trkpt>
      <trkpt lat="47.04644" lon="9.03421">
        <ele>639</ele>
        <time>2021-08-02T08:34:32.337Z</time>
      </trkpt>
      <trkpt lat="47.04644" lon="9.03421">
        <ele>638</ele>
        <time>2021-08-02T08:34:33.338Z</time>
      </trkpt>
      <trkpt lat="47.04644" lon="9.0342">
        <ele>638</ele>
        <time>2021-08-02T08:34:34.338Z</time>
      </trkpt>
      <trkpt lat="47.04644" lon="9.03419">
        <ele>638</ele>
        <time>2021-08-02T08:34:35.338Z</time>
      </trkpt>
      <trkpt lat="47.04644" lon="9.03418">
        <ele>638</ele>
        <time>2021-08-02T08:34:36.338Z</time>
      </trkpt>
      <trkpt lat="47.04645" lon="9.03418">
        <ele>639</ele>
        <time>2021-08-02T08:34:37.338Z</time>
      </trkpt>
      <trkpt lat="47.04645" lon="9.03417">
        <ele>639</ele>
        <time>2021-08-02T08:34:38.338Z</time>
      </trkpt>
      <trkpt lat="47.04646" lon="9.03416">
        <ele>639</ele>
        <time>2021-08-02T08:34:39.338Z</time>
      </trkpt>
      <trkpt lat="47.04646" lon="9.03414">
        <ele>639</ele>
        <time>2021-08-02T08:34:40.337Z</time>
      </trkpt>
      <trkpt lat="47.04647" lon="9.03414">
        <ele>640</ele>
        <time>2021-08-02T08:34:41.337Z</time>
      </trkpt>
      <trkpt lat="47.04647" lon="9.03413">
        <ele>640</ele>
        <time>2021-08-02T08:34:42.338Z</time>
      </trkpt>
      <trkpt lat="47.04648" lon="9.03411">
        <ele>639</ele>
        <time>2021-08-02T08:34:43.337Z</time>
      </trkpt>
      <trkpt lat="47.04648" lon="9.03409">
        <ele>639</ele>
        <time>2021-08-02T08:34:44.337Z</time>
      </trkpt>
      <trkpt lat="47.04649" lon="9.03407">
        <ele>639</ele>
        <time>2021-08-02T08:34:45.337Z</time>
      </trkpt>
      <trkpt lat="47.04649" lon="9.03406">
        <ele>639</ele>
        <time>2021-08-02T08:34:46.338Z</time>
      </trkpt>
      <trkpt lat="47.04649" lon="9.03405">
        <ele>638</ele>
        <time>2021-08-02T08:34:47.337Z</time>
      </trkpt>
      <trkpt lat="47.04648" lon="9.03403">
        <ele>638</ele>
        <time>2021-08-02T08:34:48.337Z</time>
      </trkpt>
      <trkpt lat="47.04648" lon="9.03401">
        <ele>638</ele>
        <time>2021-08-02T08:34:49.337Z</time>
      </trkpt>
      <trkpt lat="47.04648" lon="9.03399">
        <ele>637</ele>
        <time>2021-08-02T08:34:50.337Z</time>
      </trkpt>
      <trkpt lat="47.04649" lon="9.03398">
        <ele>637</ele>
        <time>2021-08-02T08:34:51.337Z</time>
      </trkpt>
      <trkpt lat="47.0465" lon="9.03396">
        <ele>637</ele>
        <time>2021-08-02T08:34:52.338Z</time>
      </trkpt>
      <trkpt lat="47.0465" lon="9.03395">
        <ele>637</ele>
        <time>2021-08-02T08:34:53.337Z</time>
      </trkpt>
      <trkpt lat="47.04651" lon="9.03393">
        <ele>637</ele>
        <time>2021-08-02T08:34:54.337Z</time>
      </trkpt>
      <trkpt lat="47.04651" lon="9.03392">
        <ele>637</ele>
        <time>2021-08-02T08:34:55.338Z</time>
      </trkpt>
      <trkpt lat="47.04652" lon="9.03392">
        <ele>636</ele>
        <time>2021-08-02T08:34:56.338Z</time>
      </trkpt>
      <trkpt lat="47.04653" lon="9.0339">
        <ele>635</ele>
        <time>2021-08-02T08:34:57.338Z</time>
      </trkpt>
      <trkpt lat="47.04653" lon="9.03388">
        <ele>635</ele>
        <time>2021-08-02T08:34:58.338Z</time>
      </trkpt>
      <trkpt lat="47.04654" lon="9.03386">
        <ele>635</ele>
        <time>2021-08-02T08:34:59.338Z</time>
      </trkpt>
      <trkpt lat="47.04654" lon="9.03385">
        <ele>635</ele>
        <time>2021-08-02T08:35:00.338Z</time>
      </trkpt>
      <trkpt lat="47.04654" lon="9.03385">
        <ele>635</ele>
        <time>2021-08-02T08:35:01.337Z</time>
      </trkpt>
      <trkpt lat="47.04654" lon="9.03384">
        <ele>635</ele>
        <time>2021-08-02T08:35:02.338Z</time>
      </trkpt>
      <trkpt lat="47.04654" lon="9.03383">
        <ele>635</ele>
        <time>2021-08-02T08:35:03.338Z</time>
      </trkpt>
      <trkpt lat="47.04655" lon="9.03382">
        <ele>635</ele>
        <time>2021-08-02T08:35:04.338Z</time>
      </trkpt>
      <trkpt lat="47.04655" lon="9.03381">
        <ele>636</ele>
        <time>2021-08-02T08:35:05.338Z</time>
      </trkpt>
      <trkpt lat="47.04656" lon="9.0338">
        <ele>636</ele>
        <time>2021-08-02T08:35:06.338Z</time>
      </trkpt>
      <trkpt lat="47.04657" lon="9.0338">
        <ele>636</ele>
        <time>2021-08-02T08:35:07.338Z</time>
      </trkpt>
      <trkpt lat="47.04657" lon="9.03379">
        <ele>636</ele>
        <time>2021-08-02T08:35:08.337Z</time>
      </trkpt>
      <trkpt lat="47.04656" lon="9.03379">
        <ele>637</ele>
        <time>2021-08-02T08:35:09.337Z</time>
      </trkpt>
      <trkpt lat="47.04656" lon="9.03377">
        <ele>637</ele>
        <time>2021-08-02T08:35:10.338Z</time>
      </trkpt>
      <trkpt lat="47.04656" lon="9.03375">
        <ele>636</ele>
        <time>2021-08-02T08:35:11.338Z</time>
      </trkpt>
      <trkpt lat="47.04657" lon="9.03373">
        <ele>636</ele>
        <time>2021-08-02T08:35:12.338Z</time>
      </trkpt>
      <trkpt lat="47.04657" lon="9.03371">
        <ele>636</ele>
        <time>2021-08-02T08:35:13.338Z</time>
      </trkpt>
      <trkpt lat="47.04657" lon="9.0337">
        <ele>635</ele>
        <time>2021-08-02T08:35:14.337Z</time>
      </trkpt>
      <trkpt lat="47.04658" lon="9.03369">
        <ele>635</ele>
        <time>2021-08-02T08:35:15.338Z</time>
      </trkpt>
      <trkpt lat="47.04658" lon="9.03368">
        <ele>635</ele>
        <time>2021-08-02T08:35:16.338Z</time>
      </trkpt>
      <trkpt lat="47.04658" lon="9.03367">
        <ele>636</ele>
        <time>2021-08-02T08:35:17.338Z</time>
      </trkpt>
      <trkpt lat="47.04659" lon="9.03366">
        <ele>636</ele>
        <time>2021-08-02T08:35:18.338Z</time>
      </trkpt>
      <trkpt lat="47.04659" lon="9.03364">
        <ele>636</ele>
        <time>2021-08-02T08:35:19.338Z</time>
      </trkpt>
      <trkpt lat="47.04659" lon="9.03362">
        <ele>636</ele>
        <time>2021-08-02T08:35:20.338Z</time>
      </trkpt>
      <trkpt lat="47.04659" lon="9.0336">
        <ele>636</ele>
        <time>2021-08-02T08:35:21.338Z</time>
      </trkpt>
      <trkpt lat="47.04659" lon="9.03359">
        <ele>635</ele>
        <time>2021-08-02T08:35:22.338Z</time>
      </trkpt>
      <trkpt lat="47.0466" lon="9.03357">
        <ele>635</ele>
        <time>2021-08-02T08:35:23.338Z</time>
      </trkpt>
      <trkpt lat="47.0466" lon="9.03355">
        <ele>634</ele>
        <time>2021-08-02T08:35:24.338Z</time>
      </trkpt>
      <trkpt lat="47.0466" lon="9.03353">
        <ele>634</ele>
        <time>2021-08-02T08:35:25.338Z</time>
      </trkpt>
      <trkpt lat="47.0466" lon="9.03351">
        <ele>634</ele>
        <time>2021-08-02T08:35:26.338Z</time>
      </trkpt>
      <trkpt lat="47.04661" lon="9.03348">
        <ele>634</ele>
        <time>2021-08-02T08:35:27.338Z</time>
      </trkpt>
      <trkpt lat="47.04661" lon="9.03347">
        <ele>634</ele>
        <time>2021-08-02T08:35:28.338Z</time>
      </trkpt>
      <trkpt lat="47.04662" lon="9.03345">
        <ele>633</ele>
        <time>2021-08-02T08:35:29.338Z</time>
      </trkpt>
      <trkpt lat="47.04662" lon="9.03343">
        <ele>633</ele>
        <time>2021-08-02T08:35:30.338Z</time>
      </trkpt>
      <trkpt lat="47.04662" lon="9.0334">
        <ele>633</ele>
        <time>2021-08-02T08:35:31.338Z</time>
      </trkpt>
      <trkpt lat="47.04663" lon="9.03338">
        <ele>633</ele>
        <time>2021-08-02T08:35:32.338Z</time>
      </trkpt>
      <trkpt lat="47.04663" lon="9.03336">
        <ele>633</ele>
        <time>2021-08-02T08:35:33.337Z</time>
      </trkpt>
      <trkpt lat="47.04663" lon="9.03333">
        <ele>633</ele>
        <time>2021-08-02T08:35:34.338Z</time>
      </trkpt>
      <trkpt lat="47.04663" lon="9.03329">
        <ele>633</ele>
        <time>2021-08-02T08:35:35.338Z</time>
      </trkpt>
      <trkpt lat="47.04663" lon="9.03326">
        <ele>632</ele>
        <time>2021-08-02T08:35:36.338Z</time>
      </trkpt>
      <trkpt lat="47.04663" lon="9.03324">
        <ele>632</ele>
        <time>2021-08-02T08:35:37.338Z</time>
      </trkpt>
      <trkpt lat="47.04663" lon="9.03323">
        <ele>632</ele>
        <time>2021-08-02T08:35:38.338Z</time>
      </trkpt>
      <trkpt lat="47.04663" lon="9.03321">
        <ele>631</ele>
        <time>2021-08-02T08:35:39.337Z</time>
      </trkpt>
      <trkpt lat="47.04663" lon="9.0332">
        <ele>631</ele>
        <time>2021-08-02T08:35:40.338Z</time>
      </trkpt>
      <trkpt lat="47.04664" lon="9.03319">
        <ele>631</ele>
        <time>2021-08-02T08:35:41.338Z</time>
      </trkpt>
      <trkpt lat="47.04664" lon="9.03318">
        <ele>630</ele>
        <time>2021-08-02T08:35:42.338Z</time>
      </trkpt>
      <trkpt lat="47.04665" lon="9.03317">
        <ele>630</ele>
        <time>2021-08-02T08:35:43.338Z</time>
      </trkpt>
      <trkpt lat="47.04665" lon="9.03316">
        <ele>630</ele>
        <time>2021-08-02T08:35:44.337Z</time>
      </trkpt>
      <trkpt lat="47.04666" lon="9.03314">
        <ele>631</ele>
        <time>2021-08-02T08:35:45.338Z</time>
      </trkpt>
      <trkpt lat="47.04666" lon="9.03313">
        <ele>631</ele>
        <time>2021-08-02T08:35:46.337Z</time>
      </trkpt>
      <trkpt lat="47.04666" lon="9.03313">
        <ele>632</ele>
        <time>2021-08-02T08:35:47.337Z</time>
      </trkpt>
      <trkpt lat="47.04665" lon="9.03312">
        <ele>632</ele>
        <time>2021-08-02T08:35:48.338Z</time>
      </trkpt>
      <trkpt lat="47.04664" lon="9.03311">
        <ele>632</ele>
        <time>2021-08-02T08:35:49.337Z</time>
      </trkpt>
      <trkpt lat="47.04663" lon="9.03314">
        <ele>639</ele>
        <time>2021-08-02T08:35:50.338Z</time>
      </trkpt>
      <trkpt lat="47.04663" lon="9.03314">
        <ele>642</ele>
        <time>2021-08-02T08:35:51.337Z</time>
      </trkpt>
      <trkpt lat="47.0466" lon="9.03319">
        <ele>636</ele>
        <time>2021-08-02T08:35:52.338Z</time>
      </trkpt>
      <trkpt lat="47.0466" lon="9.03319">
        <ele>635</ele>
        <time>2021-08-02T08:35:53.338Z</time>
      </trkpt>
      <trkpt lat="47.0466" lon="9.0332">
        <ele>633</ele>
        <time>2021-08-02T08:35:54.338Z</time>
      </trkpt>
      <trkpt lat="47.0466" lon="9.0332">
        <ele>632</ele>
        <time>2021-08-02T08:35:55.338Z</time>
      </trkpt>
      <trkpt lat="47.0466" lon="9.03332">
        <ele>634</ele>
        <time>2021-08-02T08:35:56.339Z</time>
      </trkpt>
      <trkpt lat="47.04659" lon="9.03333">
        <ele>634</ele>
        <time>2021-08-02T08:35:57.339Z</time>
      </trkpt>
      <trkpt lat="47.04659" lon="9.03334">
        <ele>634</ele>
        <time>2021-08-02T08:35:58.338Z</time>
      </trkpt>
      <trkpt lat="47.04659" lon="9.03334">
        <ele>635</ele>
        <time>2021-08-02T08:35:59.339Z</time>
      </trkpt>
      <trkpt lat="47.04659" lon="9.03334">
        <ele>635</ele>
        <time>2021-08-02T08:36:00.339Z</time>
      </trkpt>
      <trkpt lat="47.04658" lon="9.03334">
        <ele>635</ele>
        <time>2021-08-02T08:36:01.339Z</time>
      </trkpt>
      <trkpt lat="47.04658" lon="9.03334">
        <ele>635</ele>
        <time>2021-08-02T08:36:02.339Z</time>
      </trkpt>
      <trkpt lat="47.04658" lon="9.03334">
        <ele>635</ele>
        <time>2021-08-02T08:36:03.339Z</time>
      </trkpt>
      <trkpt lat="47.04658" lon="9.03335">
        <ele>636</ele>
        <time>2021-08-02T08:36:04.339Z</time>
      </trkpt>
      <trkpt lat="47.04658" lon="9.03335">
        <ele>637</ele>
        <time>2021-08-02T08:36:05.339Z</time>
      </trkpt>
      <trkpt lat="47.04658" lon="9.03334">
        <ele>639</ele>
        <time>2021-08-02T08:36:06.339Z</time>
      </trkpt>
      <trkpt lat="47.04659" lon="9.03332">
        <ele>640</ele>
        <time>2021-08-02T08:36:07.339Z</time>
      </trkpt>
      <trkpt lat="47.04659" lon="9.0333">
        <ele>640</ele>
        <time>2021-08-02T08:36:08.339Z</time>
      </trkpt>
      <trkpt lat="47.04658" lon="9.03328">
        <ele>641</ele>
        <time>2021-08-02T08:36:09.340Z</time>
      </trkpt>
      <trkpt lat="47.04658" lon="9.03326">
        <ele>641</ele>
        <time>2021-08-02T08:36:10.340Z</time>
      </trkpt>
      <trkpt lat="47.04658" lon="9.03325">
        <ele>642</ele>
        <time>2021-08-02T08:36:11.339Z</time>
      </trkpt>
      <trkpt lat="47.04657" lon="9.03324">
        <ele>642</ele>
        <time>2021-08-02T08:36:12.340Z</time>
      </trkpt>
      <trkpt lat="47.04655" lon="9.03319">
        <ele>639</ele>
        <time>2021-08-02T08:36:13.340Z</time>
      </trkpt>
      <trkpt lat="47.04655" lon="9.03319">
        <ele>638</ele>
        <time>2021-08-02T08:36:14.339Z</time>
      </trkpt>
      <trkpt lat="47.04656" lon="9.03317">
        <ele>637</ele>
        <time>2021-08-02T08:36:15.341Z</time>
      </trkpt>
      <trkpt lat="47.04656" lon="9.03316">
        <ele>636</ele>
        <time>2021-08-02T08:36:16.341Z</time>
      </trkpt>
      <trkpt lat="47.04656" lon="9.03315">
        <ele>636</ele>
        <time>2021-08-02T08:36:17.340Z</time>
      </trkpt>
      <trkpt lat="47.04656" lon="9.03313">
        <ele>635</ele>
        <time>2021-08-02T08:36:18.341Z</time>
      </trkpt>
      <trkpt lat="47.04656" lon="9.03312">
        <ele>635</ele>
        <time>2021-08-02T08:36:19.340Z</time>
      </trkpt>
      <trkpt lat="47.04656" lon="9.03311">
        <ele>634</ele>
        <time>2021-08-02T08:36:20.341Z</time>
      </trkpt>
      <trkpt lat="47.04657" lon="9.03309">
        <ele>634</ele>
        <time>2021-08-02T08:36:21.340Z</time>
      </trkpt>
      <trkpt lat="47.04658" lon="9.03308">
        <ele>634</ele>
        <time>2021-08-02T08:36:22.341Z</time>
      </trkpt>
      <trkpt lat="47.04659" lon="9.03307">
        <ele>634</ele>
        <time>2021-08-02T08:36:23.341Z</time>
      </trkpt>
      <trkpt lat="47.04659" lon="9.03306">
        <ele>634</ele>
        <time>2021-08-02T08:36:24.340Z</time>
      </trkpt>
      <trkpt lat="47.0466" lon="9.03305">
        <ele>634</ele>
        <time>2021-08-02T08:36:25.341Z</time>
      </trkpt>
      <trkpt lat="47.0466" lon="9.03304">
        <ele>634</ele>
        <time>2021-08-02T08:36:26.341Z</time>
      </trkpt>
      <trkpt lat="47.04661" lon="9.03303">
        <ele>634</ele>
        <time>2021-08-02T08:36:27.341Z</time>
      </trkpt>
      <trkpt lat="47.04661" lon="9.03302">
        <ele>634</ele>
        <time>2021-08-02T08:36:28.341Z</time>
      </trkpt>
      <trkpt lat="47.04661" lon="9.03302">
        <ele>634</ele>
        <time>2021-08-02T08:36:29.341Z</time>
      </trkpt>
      <trkpt lat="47.04662" lon="9.03301">
        <ele>634</ele>
        <time>2021-08-02T08:36:30.341Z</time>
      </trkpt>
      <trkpt lat="47.04663" lon="9.033">
        <ele>635</ele>
        <time>2021-08-02T08:36:31.340Z</time>
      </trkpt>
      <trkpt lat="47.04663" lon="9.03299">
        <ele>635</ele>
        <time>2021-08-02T08:36:32.341Z</time>
      </trkpt>
      <trkpt lat="47.04664" lon="9.03298">
        <ele>635</ele>
        <time>2021-08-02T08:36:33.341Z</time>
      </trkpt>
      <trkpt lat="47.04664" lon="9.03297">
        <ele>635</ele>
        <time>2021-08-02T08:36:34.341Z</time>
      </trkpt>
      <trkpt lat="47.04665" lon="9.03296">
        <ele>635</ele>
        <time>2021-08-02T08:36:35.340Z</time>
      </trkpt>
      <trkpt lat="47.04666" lon="9.03295">
        <ele>635</ele>
        <time>2021-08-02T08:36:36.340Z</time>
      </trkpt>
      <trkpt lat="47.04667" lon="9.03294">
        <ele>634</ele>
        <time>2021-08-02T08:36:37.341Z</time>
      </trkpt>
      <trkpt lat="47.04668" lon="9.03292">
        <ele>634</ele>
        <time>2021-08-02T08:36:38.341Z</time>
      </trkpt>
      <trkpt lat="47.04669" lon="9.03291">
        <ele>634</ele>
        <time>2021-08-02T08:36:39.341Z</time>
      </trkpt>
      <trkpt lat="47.04669" lon="9.03289">
        <ele>634</ele>
        <time>2021-08-02T08:36:40.341Z</time>
      </trkpt>
      <trkpt lat="47.0467" lon="9.03287">
        <ele>633</ele>
        <time>2021-08-02T08:36:41.340Z</time>
      </trkpt>
      <trkpt lat="47.04671" lon="9.03285">
        <ele>633</ele>
        <time>2021-08-02T08:36:42.341Z</time>
      </trkpt>
      <trkpt lat="47.0467" lon="9.03282">
        <ele>633</ele>
        <time>2021-08-02T08:36:43.341Z</time>
      </trkpt>
      <trkpt lat="47.04671" lon="9.03281">
        <ele>633</ele>
        <time>2021-08-02T08:36:44.340Z</time>
      </trkpt>
      <trkpt lat="47.04671" lon="9.03279">
        <ele>633</ele>
        <time>2021-08-02T08:36:45.340Z</time>
      </trkpt>
      <trkpt lat="47.04672" lon="9.03279">
        <ele>634</ele>
        <time>2021-08-02T08:36:46.340Z</time>
      </trkpt>
      <trkpt lat="47.04673" lon="9.03278">
        <ele>634</ele>
        <time>2021-08-02T08:36:47.340Z</time>
      </trkpt>
      <trkpt lat="47.04673" lon="9.03277">
        <ele>635</ele>
        <time>2021-08-02T08:36:48.341Z</time>
      </trkpt>
      <trkpt lat="47.04675" lon="9.03276">
        <ele>636</ele>
        <time>2021-08-02T08:36:49.341Z</time>
      </trkpt>
      <trkpt lat="47.04675" lon="9.03275">
        <ele>637</ele>
        <time>2021-08-02T08:36:50.341Z</time>
      </trkpt>
      <trkpt lat="47.04676" lon="9.03273">
        <ele>637</ele>
        <time>2021-08-02T08:36:51.341Z</time>
      </trkpt>
      <trkpt lat="47.04677" lon="9.03272">
        <ele>638</ele>
        <time>2021-08-02T08:36:52.340Z</time>
      </trkpt>
      <trkpt lat="47.04677" lon="9.0327">
        <ele>639</ele>
        <time>2021-08-02T08:36:53.341Z</time>
      </trkpt>
      <trkpt lat="47.04678" lon="9.03269">
        <ele>639</ele>
        <time>2021-08-02T08:36:54.341Z</time>
      </trkpt>
      <trkpt lat="47.04678" lon="9.03268">
        <ele>640</ele>
        <time>2021-08-02T08:36:55.341Z</time>
      </trkpt>
      <trkpt lat="47.04679" lon="9.03268">
        <ele>641</ele>
        <time>2021-08-02T08:36:56.340Z</time>
      </trkpt>
      <trkpt lat="47.04679" lon="9.03267">
        <ele>642</ele>
        <time>2021-08-02T08:36:57.341Z</time>
      </trkpt>
      <trkpt lat="47.0468" lon="9.03267">
        <ele>642</ele>
        <time>2021-08-02T08:36:58.340Z</time>
      </trkpt>
      <trkpt lat="47.0468" lon="9.03266">
        <ele>643</ele>
        <time>2021-08-02T08:36:59.340Z</time>
      </trkpt>
      <trkpt lat="47.04681" lon="9.03265">
        <ele>644</ele>
        <time>2021-08-02T08:37:00.340Z</time>
      </trkpt>
      <trkpt lat="47.04682" lon="9.03265">
        <ele>644</ele>
        <time>2021-08-02T08:37:01.340Z</time>
      </trkpt>
      <trkpt lat="47.04683" lon="9.03264">
        <ele>644</ele>
        <time>2021-08-02T08:37:02.341Z</time>
      </trkpt>
      <trkpt lat="47.04684" lon="9.03264">
        <ele>644</ele>
        <time>2021-08-02T08:37:03.341Z</time>
      </trkpt>
      <trkpt lat="47.04684" lon="9.03263">
        <ele>644</ele>
        <time>2021-08-02T08:37:04.341Z</time>
      </trkpt>
      <trkpt lat="47.04685" lon="9.03262">
        <ele>644</ele>
        <time>2021-08-02T08:37:05.340Z</time>
      </trkpt>
      <trkpt lat="47.04685" lon="9.03261">
        <ele>645</ele>
        <time>2021-08-02T08:37:06.341Z</time>
      </trkpt>
      <trkpt lat="47.04686" lon="9.0326">
        <ele>645</ele>
        <time>2021-08-02T08:37:07.341Z</time>
      </trkpt>
      <trkpt lat="47.04687" lon="9.03259">
        <ele>645</ele>
        <time>2021-08-02T08:37:08.340Z</time>
      </trkpt>
      <trkpt lat="47.04688" lon="9.03259">
        <ele>646</ele>
        <time>2021-08-02T08:37:09.341Z</time>
      </trkpt>
      <trkpt lat="47.04688" lon="9.03258">
        <ele>646</ele>
        <time>2021-08-02T08:37:10.341Z</time>
      </trkpt>
      <trkpt lat="47.04689" lon="9.03257">
        <ele>646</ele>
        <time>2021-08-02T08:37:11.341Z</time>
      </trkpt>
      <trkpt lat="47.04689" lon="9.03256">
        <ele>646</ele>
        <time>2021-08-02T08:37:12.340Z</time>
      </trkpt>
      <trkpt lat="47.0469" lon="9.03255">
        <ele>646</ele>
        <time>2021-08-02T08:37:13.340Z</time>
      </trkpt>
      <trkpt lat="47.0469" lon="9.03253">
        <ele>647</ele>
        <time>2021-08-02T08:37:14.340Z</time>
      </trkpt>
      <trkpt lat="47.04689" lon="9.03252">
        <ele>647</ele>
        <time>2021-08-02T08:37:15.340Z</time>
      </trkpt>
      <trkpt lat="47.04689" lon="9.03251">
        <ele>647</ele>
        <time>2021-08-02T08:37:16.341Z</time>
      </trkpt>
      <trkpt lat="47.0469" lon="9.03251">
        <ele>647</ele>
        <time>2021-08-02T08:37:17.341Z</time>
      </trkpt>
      <trkpt lat="47.04691" lon="9.0325">
        <ele>647</ele>
        <time>2021-08-02T08:37:18.341Z</time>
      </trkpt>
      <trkpt lat="47.04691" lon="9.0325">
        <ele>648</ele>
        <time>2021-08-02T08:37:19.341Z</time>
      </trkpt>
      <trkpt lat="47.04691" lon="9.0325">
        <ele>648</ele>
        <time>2021-08-02T08:37:20.341Z</time>
      </trkpt>
      <trkpt lat="47.04692" lon="9.03249">
        <ele>648</ele>
        <time>2021-08-02T08:37:21.341Z</time>
      </trkpt>
      <trkpt lat="47.04693" lon="9.03248">
        <ele>648</ele>
        <time>2021-08-02T08:37:22.341Z</time>
      </trkpt>
      <trkpt lat="47.04694" lon="9.03247">
        <ele>647</ele>
        <time>2021-08-02T08:37:23.341Z</time>
      </trkpt>
      <trkpt lat="47.04695" lon="9.03247">
        <ele>647</ele>
        <time>2021-08-02T08:37:24.341Z</time>
      </trkpt>
      <trkpt lat="47.04695" lon="9.03246">
        <ele>647</ele>
        <time>2021-08-02T08:37:25.341Z</time>
      </trkpt>
      <trkpt lat="47.04696" lon="9.03245">
        <ele>647</ele>
        <time>2021-08-02T08:37:26.340Z</time>
      </trkpt>
      <trkpt lat="47.04696" lon="9.03245">
        <ele>647</ele>
        <time>2021-08-02T08:37:27.340Z</time>
      </trkpt>
      <trkpt lat="47.04697" lon="9.03244">
        <ele>647</ele>
        <time>2021-08-02T08:37:28.340Z</time>
      </trkpt>
      <trkpt lat="47.04698" lon="9.03242">
        <ele>646</ele>
        <time>2021-08-02T08:37:29.341Z</time>
      </trkpt>
      <trkpt lat="47.04699" lon="9.03241">
        <ele>646</ele>
        <time>2021-08-02T08:37:30.340Z</time>
      </trkpt>
      <trkpt lat="47.04699" lon="9.0324">
        <ele>646</ele>
        <time>2021-08-02T08:37:31.341Z</time>
      </trkpt>
      <trkpt lat="47.047" lon="9.0324">
        <ele>646</ele>
        <time>2021-08-02T08:37:32.340Z</time>
      </trkpt>
      <trkpt lat="47.04702" lon="9.03239">
        <ele>645</ele>
        <time>2021-08-02T08:37:33.341Z</time>
      </trkpt>
      <trkpt lat="47.04703" lon="9.03239">
        <ele>645</ele>
        <time>2021-08-02T08:37:34.341Z</time>
      </trkpt>
      <trkpt lat="47.04703" lon="9.03238">
        <ele>644</ele>
        <time>2021-08-02T08:37:35.341Z</time>
      </trkpt>
      <trkpt lat="47.04704" lon="9.03237">
        <ele>644</ele>
        <time>2021-08-02T08:37:36.341Z</time>
      </trkpt>
      <trkpt lat="47.04706" lon="9.03236">
        <ele>643</ele>
        <time>2021-08-02T08:37:37.340Z</time>
      </trkpt>
      <trkpt lat="47.04706" lon="9.03235">
        <ele>643</ele>
        <time>2021-08-02T08:37:38.340Z</time>
      </trkpt>
      <trkpt lat="47.04707" lon="9.03234">
        <ele>642</ele>
        <time>2021-08-02T08:37:39.341Z</time>
      </trkpt>
      <trkpt lat="47.04707" lon="9.03234">
        <ele>642</ele>
        <time>2021-08-02T08:37:40.341Z</time>
      </trkpt>
      <trkpt lat="47.04707" lon="9.03234">
        <ele>642</ele>
        <time>2021-08-02T08:37:41.341Z</time>
      </trkpt>
      <trkpt lat="47.04708" lon="9.03234">
        <ele>641</ele>
        <time>2021-08-02T08:37:42.341Z</time>
      </trkpt>
      <trkpt lat="47.04708" lon="9.03234">
        <ele>641</ele>
        <time>2021-08-02T08:37:43.341Z</time>
      </trkpt>
      <trkpt lat="47.04709" lon="9.03234">
        <ele>641</ele>
        <time>2021-08-02T08:37:44.340Z</time>
      </trkpt>
      <trkpt lat="47.04709" lon="9.03234">
        <ele>640</ele>
        <time>2021-08-02T08:37:45.341Z</time>
      </trkpt>
      <trkpt lat="47.0471" lon="9.03233">
        <ele>640</ele>
        <time>2021-08-02T08:37:46.341Z</time>
      </trkpt>
      <trkpt lat="47.04711" lon="9.03232">
        <ele>640</ele>
        <time>2021-08-02T08:37:47.341Z</time>
      </trkpt>
      <trkpt lat="47.04712" lon="9.03231">
        <ele>639</ele>
        <time>2021-08-02T08:37:48.340Z</time>
      </trkpt>
      <trkpt lat="47.04713" lon="9.0323">
        <ele>639</ele>
        <time>2021-08-02T08:37:49.340Z</time>
      </trkpt>
      <trkpt lat="47.04714" lon="9.03229">
        <ele>639</ele>
        <time>2021-08-02T08:37:50.341Z</time>
      </trkpt>
      <trkpt lat="47.04715" lon="9.03227">
        <ele>639</ele>
        <time>2021-08-02T08:37:51.341Z</time>
      </trkpt>
      <trkpt lat="47.04716" lon="9.03226">
        <ele>639</ele>
        <time>2021-08-02T08:37:52.341Z</time>
      </trkpt>
      <trkpt lat="47.04716" lon="9.03225">
        <ele>639</ele>
        <time>2021-08-02T08:37:53.340Z</time>
      </trkpt>
      <trkpt lat="47.04717" lon="9.03224">
        <ele>639</ele>
        <time>2021-08-02T08:37:54.340Z</time>
      </trkpt>
      <trkpt lat="47.04717" lon="9.03224">
        <ele>640</ele>
        <time>2021-08-02T08:37:55.341Z</time>
      </trkpt>
      <trkpt lat="47.04718" lon="9.03224">
        <ele>640</ele>
        <time>2021-08-02T08:37:56.340Z</time>
      </trkpt>
      <trkpt lat="47.04719" lon="9.03222">
        <ele>640</ele>
        <time>2021-08-02T08:37:57.340Z</time>
      </trkpt>
      <trkpt lat="47.0472" lon="9.03221">
        <ele>640</ele>
        <time>2021-08-02T08:37:58.340Z</time>
      </trkpt>
      <trkpt lat="47.04721" lon="9.03222">
        <ele>641</ele>
        <time>2021-08-02T08:37:59.341Z</time>
      </trkpt>
      <trkpt lat="47.04722" lon="9.03221">
        <ele>641</ele>
        <time>2021-08-02T08:38:00.341Z</time>
      </trkpt>
      <trkpt lat="47.04723" lon="9.0322">
        <ele>641</ele>
        <time>2021-08-02T08:38:01.340Z</time>
      </trkpt>
      <trkpt lat="47.04724" lon="9.03218">
        <ele>640</ele>
        <time>2021-08-02T08:38:02.341Z</time>
      </trkpt>
      <trkpt lat="47.04725" lon="9.03217">
        <ele>640</ele>
        <time>2021-08-02T08:38:03.341Z</time>
      </trkpt>
      <trkpt lat="47.04726" lon="9.03217">
        <ele>640</ele>
        <time>2021-08-02T08:38:04.341Z</time>
      </trkpt>
      <trkpt lat="47.04726" lon="9.03217">
        <ele>640</ele>
        <time>2021-08-02T08:38:05.341Z</time>
      </trkpt>
      <trkpt lat="47.04728" lon="9.03216">
        <ele>640</ele>
        <time>2021-08-02T08:38:06.341Z</time>
      </trkpt>
      <trkpt lat="47.04729" lon="9.03214">
        <ele>640</ele>
        <time>2021-08-02T08:38:07.340Z</time>
      </trkpt>
      <trkpt lat="47.04729" lon="9.03213">
        <ele>640</ele>
        <time>2021-08-02T08:38:08.341Z</time>
      </trkpt>
      <trkpt lat="47.0473" lon="9.03213">
        <ele>640</ele>
        <time>2021-08-02T08:38:09.341Z</time>
      </trkpt>
      <trkpt lat="47.04731" lon="9.03212">
        <ele>640</ele>
        <time>2021-08-02T08:38:10.340Z</time>
      </trkpt>
      <trkpt lat="47.04732" lon="9.03212">
        <ele>641</ele>
        <time>2021-08-02T08:38:11.341Z</time>
      </trkpt>
      <trkpt lat="47.04732" lon="9.03211">
        <ele>641</ele>
        <time>2021-08-02T08:38:12.340Z</time>
      </trkpt>
      <trkpt lat="47.04733" lon="9.0321">
        <ele>641</ele>
        <time>2021-08-02T08:38:13.341Z</time>
      </trkpt>
      <trkpt lat="47.04734" lon="9.03209">
        <ele>642</ele>
        <time>2021-08-02T08:38:14.341Z</time>
      </trkpt>
      <trkpt lat="47.04735" lon="9.03209">
        <ele>642</ele>
        <time>2021-08-02T08:38:15.341Z</time>
      </trkpt>
      <trkpt lat="47.04735" lon="9.03208">
        <ele>642</ele>
        <time>2021-08-02T08:38:16.341Z</time>
      </trkpt>
      <trkpt lat="47.04736" lon="9.03207">
        <ele>642</ele>
        <time>2021-08-02T08:38:17.341Z</time>
      </trkpt>
      <trkpt lat="47.04737" lon="9.03207">
        <ele>642</ele>
        <time>2021-08-02T08:38:18.341Z</time>
      </trkpt>
      <trkpt lat="47.04737" lon="9.03206">
        <ele>643</ele>
        <time>2021-08-02T08:38:19.340Z</time>
      </trkpt>
      <trkpt lat="47.04738" lon="9.03205">
        <ele>643</ele>
        <time>2021-08-02T08:38:20.340Z</time>
      </trkpt>
      <trkpt lat="47.04739" lon="9.03204">
        <ele>644</ele>
        <time>2021-08-02T08:38:21.341Z</time>
      </trkpt>
      <trkpt lat="47.0474" lon="9.03203">
        <ele>644</ele>
        <time>2021-08-02T08:38:22.340Z</time>
      </trkpt>
      <trkpt lat="47.0474" lon="9.03202">
        <ele>644</ele>
        <time>2021-08-02T08:38:23.341Z</time>
      </trkpt>
      <trkpt lat="47.04741" lon="9.03201">
        <ele>644</ele>
        <time>2021-08-02T08:38:24.341Z</time>
      </trkpt>
      <trkpt lat="47.04742" lon="9.03201">
        <ele>644</ele>
        <time>2021-08-02T08:38:25.340Z</time>
      </trkpt>
      <trkpt lat="47.04743" lon="9.032">
        <ele>644</ele>
        <time>2021-08-02T08:38:26.340Z</time>
      </trkpt>
      <trkpt lat="47.04744" lon="9.032">
        <ele>644</ele>
        <time>2021-08-02T08:38:27.341Z</time>
      </trkpt>
      <trkpt lat="47.04744" lon="9.03201">
        <ele>644</ele>
        <time>2021-08-02T08:38:28.341Z</time>
      </trkpt>
      <trkpt lat="47.04745" lon="9.03202">
        <ele>644</ele>
        <time>2021-08-02T08:38:29.341Z</time>
      </trkpt>
      <trkpt lat="47.04746" lon="9.03201">
        <ele>644</ele>
        <time>2021-08-02T08:38:30.341Z</time>
      </trkpt>
      <trkpt lat="47.04747" lon="9.03199">
        <ele>644</ele>
        <time>2021-08-02T08:38:31.341Z</time>
      </trkpt>
      <trkpt lat="47.04748" lon="9.03199">
        <ele>644</ele>
        <time>2021-08-02T08:38:32.341Z</time>
      </trkpt>
      <trkpt lat="47.04749" lon="9.03199">
        <ele>644</ele>
        <time>2021-08-02T08:38:33.341Z</time>
      </trkpt>
      <trkpt lat="47.04749" lon="9.03199">
        <ele>644</ele>
        <time>2021-08-02T08:38:34.341Z</time>
      </trkpt>
      <trkpt lat="47.0475" lon="9.03198">
        <ele>644</ele>
        <time>2021-08-02T08:38:35.341Z</time>
      </trkpt>
      <trkpt lat="47.04751" lon="9.03198">
        <ele>644</ele>
        <time>2021-08-02T08:38:36.341Z</time>
      </trkpt>
      <trkpt lat="47.04752" lon="9.03197">
        <ele>644</ele>
        <time>2021-08-02T08:38:37.340Z</time>
      </trkpt>
      <trkpt lat="47.04753" lon="9.03196">
        <ele>643</ele>
        <time>2021-08-02T08:38:38.341Z</time>
      </trkpt>
      <trkpt lat="47.04753" lon="9.03195">
        <ele>643</ele>
        <time>2021-08-02T08:38:39.341Z</time>
      </trkpt>
      <trkpt lat="47.04754" lon="9.03194">
        <ele>643</ele>
        <time>2021-08-02T08:38:40.341Z</time>
      </trkpt>
      <trkpt lat="47.04754" lon="9.03195">
        <ele>642</ele>
        <time>2021-08-02T08:38:41.341Z</time>
      </trkpt>
      <trkpt lat="47.04755" lon="9.03195">
        <ele>642</ele>
        <time>2021-08-02T08:38:42.340Z</time>
      </trkpt>
      <trkpt lat="47.04756" lon="9.03195">
        <ele>642</ele>
        <time>2021-08-02T08:38:43.340Z</time>
      </trkpt>
      <trkpt lat="47.04757" lon="9.03196">
        <ele>643</ele>
        <time>2021-08-02T08:38:44.341Z</time>
      </trkpt>
      <trkpt lat="47.04759" lon="9.03196">
        <ele>643</ele>
        <time>2021-08-02T08:38:45.341Z</time>
      </trkpt>
      <trkpt lat="47.04759" lon="9.03195">
        <ele>644</ele>
        <time>2021-08-02T08:38:46.341Z</time>
      </trkpt>
      <trkpt lat="47.0476" lon="9.03194">
        <ele>644</ele>
        <time>2021-08-02T08:38:47.341Z</time>
      </trkpt>
      <trkpt lat="47.04761" lon="9.03193">
        <ele>644</ele>
        <time>2021-08-02T08:38:48.341Z</time>
      </trkpt>
      <trkpt lat="47.04762" lon="9.03193">
        <ele>645</ele>
        <time>2021-08-02T08:38:49.341Z</time>
      </trkpt>
      <trkpt lat="47.04763" lon="9.03192">
        <ele>646</ele>
        <time>2021-08-02T08:38:50.340Z</time>
      </trkpt>
      <trkpt lat="47.04764" lon="9.03192">
        <ele>646</ele>
        <time>2021-08-02T08:38:51.341Z</time>
      </trkpt>
      <trkpt lat="47.04766" lon="9.03192">
        <ele>646</ele>
        <time>2021-08-02T08:38:52.340Z</time>
      </trkpt>
      <trkpt lat="47.04767" lon="9.03192">
        <ele>646</ele>
        <time>2021-08-02T08:38:53.341Z</time>
      </trkpt>
      <trkpt lat="47.04768" lon="9.03192">
        <ele>647</ele>
        <time>2021-08-02T08:38:54.341Z</time>
      </trkpt>
      <trkpt lat="47.04769" lon="9.03191">
        <ele>647</ele>
        <time>2021-08-02T08:38:55.341Z</time>
      </trkpt>
      <trkpt lat="47.0477" lon="9.03191">
        <ele>648</ele>
        <time>2021-08-02T08:38:56.341Z</time>
      </trkpt>
      <trkpt lat="47.04771" lon="9.03191">
        <ele>649</ele>
        <time>2021-08-02T08:38:57.340Z</time>
      </trkpt>
      <trkpt lat="47.04772" lon="9.0319">
        <ele>649</ele>
        <time>2021-08-02T08:38:58.341Z</time>
      </trkpt>
      <trkpt lat="47.04773" lon="9.0319">
        <ele>650</ele>
        <time>2021-08-02T08:38:59.341Z</time>
      </trkpt>
      <trkpt lat="47.04773" lon="9.0319">
        <ele>650</ele>
        <time>2021-08-02T08:39:00.340Z</time>
      </trkpt>
      <trkpt lat="47.04775" lon="9.03189">
        <ele>650</ele>
        <time>2021-08-02T08:39:01.341Z</time>
      </trkpt>
      <trkpt lat="47.04776" lon="9.03189">
        <ele>650</ele>
        <time>2021-08-02T08:39:02.341Z</time>
      </trkpt>
      <trkpt lat="47.04776" lon="9.03188">
        <ele>651</ele>
        <time>2021-08-02T08:39:03.341Z</time>
      </trkpt>
      <trkpt lat="47.04777" lon="9.03187">
        <ele>651</ele>
        <time>2021-08-02T08:39:04.341Z</time>
      </trkpt>
      <trkpt lat="47.04778" lon="9.03186">
        <ele>651</ele>
        <time>2021-08-02T08:39:05.340Z</time>
      </trkpt>
      <trkpt lat="47.04778" lon="9.03185">
        <ele>651</ele>
        <time>2021-08-02T08:39:06.341Z</time>
      </trkpt>
      <trkpt lat="47.04779" lon="9.03184">
        <ele>651</ele>
        <time>2021-08-02T08:39:07.341Z</time>
      </trkpt>
      <trkpt lat="47.0478" lon="9.03184">
        <ele>652</ele>
        <time>2021-08-02T08:39:08.340Z</time>
      </trkpt>
      <trkpt lat="47.04781" lon="9.03183">
        <ele>652</ele>
        <time>2021-08-02T08:39:09.341Z</time>
      </trkpt>
      <trkpt lat="47.04782" lon="9.03183">
        <ele>652</ele>
        <time>2021-08-02T08:39:10.341Z</time>
      </trkpt>
      <trkpt lat="47.04782" lon="9.03183">
        <ele>652</ele>
        <time>2021-08-02T08:39:11.340Z</time>
      </trkpt>
      <trkpt lat="47.04783" lon="9.03182">
        <ele>652</ele>
        <time>2021-08-02T08:39:12.340Z</time>
      </trkpt>
      <trkpt lat="47.04784" lon="9.03182">
        <ele>652</ele>
        <time>2021-08-02T08:39:13.340Z</time>
      </trkpt>
      <trkpt lat="47.04784" lon="9.03181">
        <ele>653</ele>
        <time>2021-08-02T08:39:14.340Z</time>
      </trkpt>
      <trkpt lat="47.04786" lon="9.0318">
        <ele>653</ele>
        <time>2021-08-02T08:39:15.341Z</time>
      </trkpt>
      <trkpt lat="47.04787" lon="9.03179">
        <ele>653</ele>
        <time>2021-08-02T08:39:16.340Z</time>
      </trkpt>
      <trkpt lat="47.04788" lon="9.03179">
        <ele>653</ele>
        <time>2021-08-02T08:39:17.340Z</time>
      </trkpt>
      <trkpt lat="47.04789" lon="9.03178">
        <ele>653</ele>
        <time>2021-08-02T08:39:18.341Z</time>
      </trkpt>
      <trkpt lat="47.0479" lon="9.03178">
        <ele>653</ele>
        <time>2021-08-02T08:39:19.340Z</time>
      </trkpt>
      <trkpt lat="47.0479" lon="9.03178">
        <ele>654</ele>
        <time>2021-08-02T08:39:20.340Z</time>
      </trkpt>
      <trkpt lat="47.04791" lon="9.03178">
        <ele>654</ele>
        <time>2021-08-02T08:39:21.340Z</time>
      </trkpt>
      <trkpt lat="47.04791" lon="9.03178">
        <ele>654</ele>
        <time>2021-08-02T08:39:22.340Z</time>
      </trkpt>
      <trkpt lat="47.04792" lon="9.03178">
        <ele>655</ele>
        <time>2021-08-02T08:39:23.340Z</time>
      </trkpt>
      <trkpt lat="47.04793" lon="9.03178">
        <ele>655</ele>
        <time>2021-08-02T08:39:24.340Z</time>
      </trkpt>
      <trkpt lat="47.04794" lon="9.03177">
        <ele>655</ele>
        <time>2021-08-02T08:39:25.340Z</time>
      </trkpt>
      <trkpt lat="47.04794" lon="9.03176">
        <ele>655</ele>
        <time>2021-08-02T08:39:26.340Z</time>
      </trkpt>
      <trkpt lat="47.04795" lon="9.03176">
        <ele>656</ele>
        <time>2021-08-02T08:39:27.340Z</time>
      </trkpt>
      <trkpt lat="47.04796" lon="9.03175">
        <ele>656</ele>
        <time>2021-08-02T08:39:28.341Z</time>
      </trkpt>
      <trkpt lat="47.04796" lon="9.03174">
        <ele>656</ele>
        <time>2021-08-02T08:39:29.340Z</time>
      </trkpt>
      <trkpt lat="47.04797" lon="9.03174">
        <ele>656</ele>
        <time>2021-08-02T08:39:30.340Z</time>
      </trkpt>
      <trkpt lat="47.04798" lon="9.03173">
        <ele>656</ele>
        <time>2021-08-02T08:39:31.340Z</time>
      </trkpt>
      <trkpt lat="47.04798" lon="9.03172">
        <ele>656</ele>
        <time>2021-08-02T08:39:32.340Z</time>
      </trkpt>
      <trkpt lat="47.04799" lon="9.03172">
        <ele>656</ele>
        <time>2021-08-02T08:39:33.341Z</time>
      </trkpt>
      <trkpt lat="47.048" lon="9.03171">
        <ele>656</ele>
        <time>2021-08-02T08:39:34.341Z</time>
      </trkpt>
      <trkpt lat="47.04801" lon="9.0317">
        <ele>656</ele>
        <time>2021-08-02T08:39:35.341Z</time>
      </trkpt>
      <trkpt lat="47.04802" lon="9.03169">
        <ele>656</ele>
        <time>2021-08-02T08:39:36.341Z</time>
      </trkpt>
      <trkpt lat="47.04803" lon="9.03168">
        <ele>656</ele>
        <time>2021-08-02T08:39:37.341Z</time>
      </trkpt>
      <trkpt lat="47.04805" lon="9.03167">
        <ele>656</ele>
        <time>2021-08-02T08:39:38.340Z</time>
      </trkpt>
      <trkpt lat="47.04807" lon="9.03166">
        <ele>656</ele>
        <time>2021-08-02T08:39:39.341Z</time>
      </trkpt>
      <trkpt lat="47.0481" lon="9.03164">
        <ele>656</ele>
        <time>2021-08-02T08:39:40.341Z</time>
      </trkpt>
      <trkpt lat="47.04813" lon="9.03163">
        <ele>656</ele>
        <time>2021-08-02T08:39:41.341Z</time>
      </trkpt>
      <trkpt lat="47.04815" lon="9.03163">
        <ele>656</ele>
        <time>2021-08-02T08:39:42.340Z</time>
      </trkpt>
      <trkpt lat="47.04816" lon="9.03162">
        <ele>656</ele>
        <time>2021-08-02T08:39:43.341Z</time>
      </trkpt>
      <trkpt lat="47.04817" lon="9.03161">
        <ele>656</ele>
        <time>2021-08-02T08:39:44.340Z</time>
      </trkpt>
      <trkpt lat="47.04818" lon="9.03161">
        <ele>656</ele>
        <time>2021-08-02T08:39:45.340Z</time>
      </trkpt>
      <trkpt lat="47.04818" lon="9.0316">
        <ele>656</ele>
        <time>2021-08-02T08:39:46.341Z</time>
      </trkpt>
      <trkpt lat="47.04818" lon="9.0316">
        <ele>657</ele>
        <time>2021-08-02T08:39:47.341Z</time>
      </trkpt>
      <trkpt lat="47.04819" lon="9.0316">
        <ele>657</ele>
        <time>2021-08-02T08:39:48.341Z</time>
      </trkpt>
      <trkpt lat="47.04819" lon="9.03159">
        <ele>658</ele>
        <time>2021-08-02T08:39:49.341Z</time>
      </trkpt>
      <trkpt lat="47.0482" lon="9.03158">
        <ele>658</ele>
        <time>2021-08-02T08:39:50.341Z</time>
      </trkpt>
      <trkpt lat="47.04821" lon="9.03157">
        <ele>658</ele>
        <time>2021-08-02T08:39:51.341Z</time>
      </trkpt>
      <trkpt lat="47.04822" lon="9.03156">
        <ele>658</ele>
        <time>2021-08-02T08:39:52.340Z</time>
      </trkpt>
      <trkpt lat="47.04822" lon="9.03156">
        <ele>659</ele>
        <time>2021-08-02T08:39:53.341Z</time>
      </trkpt>
      <trkpt lat="47.04823" lon="9.03156">
        <ele>659</ele>
        <time>2021-08-02T08:39:54.340Z</time>
      </trkpt>
      <trkpt lat="47.04824" lon="9.03156">
        <ele>659</ele>
        <time>2021-08-02T08:39:55.341Z</time>
      </trkpt>
      <trkpt lat="47.04825" lon="9.03156">
        <ele>660</ele>
        <time>2021-08-02T08:39:56.341Z</time>
      </trkpt>
      <trkpt lat="47.04826" lon="9.03156">
        <ele>661</ele>
        <time>2021-08-02T08:39:57.341Z</time>
      </trkpt>
      <trkpt lat="47.04827" lon="9.03155">
        <ele>662</ele>
        <time>2021-08-02T08:39:58.341Z</time>
      </trkpt>
      <trkpt lat="47.04828" lon="9.03155">
        <ele>663</ele>
        <time>2021-08-02T08:39:59.341Z</time>
      </trkpt>
      <trkpt lat="47.04829" lon="9.03155">
        <ele>664</ele>
        <time>2021-08-02T08:40:00.340Z</time>
      </trkpt>
      <trkpt lat="47.0483" lon="9.03155">
        <ele>664</ele>
        <time>2021-08-02T08:40:01.341Z</time>
      </trkpt>
      <trkpt lat="47.04831" lon="9.03154">
        <ele>665</ele>
        <time>2021-08-02T08:40:02.341Z</time>
      </trkpt>
      <trkpt lat="47.04832" lon="9.03153">
        <ele>666</ele>
        <time>2021-08-02T08:40:03.341Z</time>
      </trkpt>
      <trkpt lat="47.04833" lon="9.03153">
        <ele>666</ele>
        <time>2021-08-02T08:40:04.341Z</time>
      </trkpt>
      <trkpt lat="47.04833" lon="9.03152">
        <ele>667</ele>
        <time>2021-08-02T08:40:05.341Z</time>
      </trkpt>
      <trkpt lat="47.04834" lon="9.03151">
        <ele>667</ele>
        <time>2021-08-02T08:40:06.341Z</time>
      </trkpt>
      <trkpt lat="47.04835" lon="9.0315">
        <ele>667</ele>
        <time>2021-08-02T08:40:07.340Z</time>
      </trkpt>
      <trkpt lat="47.04835" lon="9.03149">
        <ele>668</ele>
        <time>2021-08-02T08:40:08.341Z</time>
      </trkpt>
      <trkpt lat="47.04836" lon="9.03148">
        <ele>668</ele>
        <time>2021-08-02T08:40:09.341Z</time>
      </trkpt>
      <trkpt lat="47.04837" lon="9.03147">
        <ele>668</ele>
        <time>2021-08-02T08:40:10.340Z</time>
      </trkpt>
      <trkpt lat="47.04837" lon="9.03147">
        <ele>669</ele>
        <time>2021-08-02T08:40:11.341Z</time>
      </trkpt>
      <trkpt lat="47.04838" lon="9.03146">
        <ele>669</ele>
        <time>2021-08-02T08:40:12.341Z</time>
      </trkpt>
      <trkpt lat="47.04839" lon="9.03145">
        <ele>670</ele>
        <time>2021-08-02T08:40:13.341Z</time>
      </trkpt>
      <trkpt lat="47.0484" lon="9.03145">
        <ele>670</ele>
        <time>2021-08-02T08:40:14.340Z</time>
      </trkpt>
      <trkpt lat="47.04841" lon="9.03144">
        <ele>670</ele>
        <time>2021-08-02T08:40:15.341Z</time>
      </trkpt>
      <trkpt lat="47.04842" lon="9.03143">
        <ele>670</ele>
        <time>2021-08-02T08:40:16.340Z</time>
      </trkpt>
      <trkpt lat="47.04843" lon="9.03143">
        <ele>670</ele>
        <time>2021-08-02T08:40:17.340Z</time>
      </trkpt>
      <trkpt lat="47.04844" lon="9.03142">
        <ele>670</ele>
        <time>2021-08-02T08:40:18.340Z</time>
      </trkpt>
      <trkpt lat="47.04845" lon="9.03141">
        <ele>670</ele>
        <time>2021-08-02T08:40:19.341Z</time>
      </trkpt>
      <trkpt lat="47.04846" lon="9.0314">
        <ele>671</ele>
        <time>2021-08-02T08:40:20.341Z</time>
      </trkpt>
      <trkpt lat="47.04847" lon="9.03139">
        <ele>671</ele>
        <time>2021-08-02T08:40:21.340Z</time>
      </trkpt>
      <trkpt lat="47.04847" lon="9.03138">
        <ele>671</ele>
        <time>2021-08-02T08:40:22.340Z</time>
      </trkpt>
      <trkpt lat="47.04848" lon="9.03138">
        <ele>671</ele>
        <time>2021-08-02T08:40:23.341Z</time>
      </trkpt>
      <trkpt lat="47.04848" lon="9.03137">
        <ele>671</ele>
        <time>2021-08-02T08:40:24.341Z</time>
      </trkpt>
      <trkpt lat="47.04849" lon="9.03136">
        <ele>671</ele>
        <time>2021-08-02T08:40:25.340Z</time>
      </trkpt>
      <trkpt lat="47.04849" lon="9.03134">
        <ele>671</ele>
        <time>2021-08-02T08:40:26.340Z</time>
      </trkpt>
      <trkpt lat="47.04849" lon="9.03132">
        <ele>670</ele>
        <time>2021-08-02T08:40:27.341Z</time>
      </trkpt>
      <trkpt lat="47.04849" lon="9.0313">
        <ele>670</ele>
        <time>2021-08-02T08:40:28.341Z</time>
      </trkpt>
      <trkpt lat="47.0485" lon="9.03129">
        <ele>669</ele>
        <time>2021-08-02T08:40:29.341Z</time>
      </trkpt>
      <trkpt lat="47.04852" lon="9.03128">
        <ele>669</ele>
        <time>2021-08-02T08:40:30.341Z</time>
      </trkpt>
      <trkpt lat="47.04853" lon="9.03127">
        <ele>668</ele>
        <time>2021-08-02T08:40:31.341Z</time>
      </trkpt>
      <trkpt lat="47.04855" lon="9.03126">
        <ele>668</ele>
        <time>2021-08-02T08:40:32.340Z</time>
      </trkpt>
      <trkpt lat="47.04856" lon="9.03125">
        <ele>667</ele>
        <time>2021-08-02T08:40:33.341Z</time>
      </trkpt>
      <trkpt lat="47.04857" lon="9.03124">
        <ele>667</ele>
        <time>2021-08-02T08:40:34.340Z</time>
      </trkpt>
      <trkpt lat="47.04859" lon="9.03123">
        <ele>666</ele>
        <time>2021-08-02T08:40:35.341Z</time>
      </trkpt>
      <trkpt lat="47.0486" lon="9.03121">
        <ele>666</ele>
        <time>2021-08-02T08:40:36.340Z</time>
      </trkpt>
      <trkpt lat="47.0486" lon="9.0312">
        <ele>666</ele>
        <time>2021-08-02T08:40:37.341Z</time>
      </trkpt>
      <trkpt lat="47.04861" lon="9.0312">
        <ele>665</ele>
        <time>2021-08-02T08:40:38.341Z</time>
      </trkpt>
      <trkpt lat="47.04862" lon="9.0312">
        <ele>665</ele>
        <time>2021-08-02T08:40:39.340Z</time>
      </trkpt>
      <trkpt lat="47.04863" lon="9.03119">
        <ele>664</ele>
        <time>2021-08-02T08:40:40.340Z</time>
      </trkpt>
      <trkpt lat="47.04864" lon="9.03119">
        <ele>664</ele>
        <time>2021-08-02T08:40:41.341Z</time>
      </trkpt>
      <trkpt lat="47.04864" lon="9.03118">
        <ele>663</ele>
        <time>2021-08-02T08:40:42.340Z</time>
      </trkpt>
      <trkpt lat="47.04865" lon="9.03117">
        <ele>663</ele>
        <time>2021-08-02T08:40:43.340Z</time>
      </trkpt>
      <trkpt lat="47.04866" lon="9.03116">
        <ele>663</ele>
        <time>2021-08-02T08:40:44.341Z</time>
      </trkpt>
      <trkpt lat="47.04867" lon="9.03116">
        <ele>663</ele>
        <time>2021-08-02T08:40:45.340Z</time>
      </trkpt>
      <trkpt lat="47.04867" lon="9.03116">
        <ele>662</ele>
        <time>2021-08-02T08:40:46.340Z</time>
      </trkpt>
      <trkpt lat="47.04867" lon="9.03115">
        <ele>662</ele>
        <time>2021-08-02T08:40:47.341Z</time>
      </trkpt>
      <trkpt lat="47.04868" lon="9.03115">
        <ele>662</ele>
        <time>2021-08-02T08:40:48.341Z</time>
      </trkpt>
      <trkpt lat="47.04868" lon="9.03115">
        <ele>662</ele>
        <time>2021-08-02T08:40:49.340Z</time>
      </trkpt>
      <trkpt lat="47.04869" lon="9.03114">
        <ele>661</ele>
        <time>2021-08-02T08:40:50.340Z</time>
      </trkpt>
      <trkpt lat="47.0487" lon="9.03113">
        <ele>661</ele>
        <time>2021-08-02T08:40:51.341Z</time>
      </trkpt>
      <trkpt lat="47.04871" lon="9.03112">
        <ele>661</ele>
        <time>2021-08-02T08:40:52.341Z</time>
      </trkpt>
      <trkpt lat="47.04871" lon="9.03111">
        <ele>661</ele>
        <time>2021-08-02T08:40:53.341Z</time>
      </trkpt>
      <trkpt lat="47.04872" lon="9.0311">
        <ele>661</ele>
        <time>2021-08-02T08:40:54.340Z</time>
      </trkpt>
      <trkpt lat="47.04873" lon="9.0311">
        <ele>661</ele>
        <time>2021-08-02T08:40:55.341Z</time>
      </trkpt>
      <trkpt lat="47.04873" lon="9.0311">
        <ele>661</ele>
        <time>2021-08-02T08:40:56.341Z</time>
      </trkpt>
      <trkpt lat="47.04875" lon="9.03109">
        <ele>661</ele>
        <time>2021-08-02T08:40:57.341Z</time>
      </trkpt>
      <trkpt lat="47.04876" lon="9.03108">
        <ele>661</ele>
        <time>2021-08-02T08:40:58.341Z</time>
      </trkpt>
      <trkpt lat="47.04878" lon="9.03108">
        <ele>662</ele>
        <time>2021-08-02T08:40:59.341Z</time>
      </trkpt>
      <trkpt lat="47.04879" lon="9.03107">
        <ele>662</ele>
        <time>2021-08-02T08:41:00.341Z</time>
      </trkpt>
      <trkpt lat="47.0488" lon="9.03106">
        <ele>662</ele>
        <time>2021-08-02T08:41:01.341Z</time>
      </trkpt>
      <trkpt lat="47.04881" lon="9.03105">
        <ele>662</ele>
        <time>2021-08-02T08:41:02.341Z</time>
      </trkpt>
      <trkpt lat="47.04882" lon="9.03103">
        <ele>662</ele>
        <time>2021-08-02T08:41:03.340Z</time>
      </trkpt>
      <trkpt lat="47.04882" lon="9.03102">
        <ele>662</ele>
        <time>2021-08-02T08:41:04.341Z</time>
      </trkpt>
      <trkpt lat="47.04883" lon="9.03101">
        <ele>662</ele>
        <time>2021-08-02T08:41:05.341Z</time>
      </trkpt>
      <trkpt lat="47.04884" lon="9.031">
        <ele>662</ele>
        <time>2021-08-02T08:41:06.340Z</time>
      </trkpt>
      <trkpt lat="47.04885" lon="9.03099">
        <ele>662</ele>
        <time>2021-08-02T08:41:07.341Z</time>
      </trkpt>
      <trkpt lat="47.04886" lon="9.03098">
        <ele>662</ele>
        <time>2021-08-02T08:41:08.340Z</time>
      </trkpt>
      <trkpt lat="47.04888" lon="9.03096">
        <ele>663</ele>
        <time>2021-08-02T08:41:09.340Z</time>
      </trkpt>
      <trkpt lat="47.04889" lon="9.03094">
        <ele>663</ele>
        <time>2021-08-02T08:41:10.341Z</time>
      </trkpt>
      <trkpt lat="47.0489" lon="9.03094">
        <ele>663</ele>
        <time>2021-08-02T08:41:11.341Z</time>
      </trkpt>
      <trkpt lat="47.04891" lon="9.03093">
        <ele>664</ele>
        <time>2021-08-02T08:41:12.341Z</time>
      </trkpt>
      <trkpt lat="47.04892" lon="9.03092">
        <ele>664</ele>
        <time>2021-08-02T08:41:13.340Z</time>
      </trkpt>
      <trkpt lat="47.04893" lon="9.0309">
        <ele>665</ele>
        <time>2021-08-02T08:41:14.340Z</time>
      </trkpt>
      <trkpt lat="47.04893" lon="9.03089">
        <ele>665</ele>
        <time>2021-08-02T08:41:15.340Z</time>
      </trkpt>
      <trkpt lat="47.04894" lon="9.03087">
        <ele>665</ele>
        <time>2021-08-02T08:41:16.341Z</time>
      </trkpt>
      <trkpt lat="47.04894" lon="9.03086">
        <ele>666</ele>
        <time>2021-08-02T08:41:17.340Z</time>
      </trkpt>
      <trkpt lat="47.04895" lon="9.03084">
        <ele>666</ele>
        <time>2021-08-02T08:41:18.341Z</time>
      </trkpt>
      <trkpt lat="47.04895" lon="9.03082">
        <ele>667</ele>
        <time>2021-08-02T08:41:19.341Z</time>
      </trkpt>
      <trkpt lat="47.04895" lon="9.03081">
        <ele>667</ele>
        <time>2021-08-02T08:41:20.341Z</time>
      </trkpt>
      <trkpt lat="47.04896" lon="9.0308">
        <ele>667</ele>
        <time>2021-08-02T08:41:21.340Z</time>
      </trkpt>
      <trkpt lat="47.04897" lon="9.03078">
        <ele>668</ele>
        <time>2021-08-02T08:41:22.340Z</time>
      </trkpt>
      <trkpt lat="47.04897" lon="9.03077">
        <ele>668</ele>
        <time>2021-08-02T08:41:23.341Z</time>
      </trkpt>
      <trkpt lat="47.04897" lon="9.03075">
        <ele>668</ele>
        <time>2021-08-02T08:41:24.341Z</time>
      </trkpt>
      <trkpt lat="47.04898" lon="9.03074">
        <ele>669</ele>
        <time>2021-08-02T08:41:25.341Z</time>
      </trkpt>
      <trkpt lat="47.04899" lon="9.03073">
        <ele>669</ele>
        <time>2021-08-02T08:41:26.341Z</time>
      </trkpt>
      <trkpt lat="47.04899" lon="9.03072">
        <ele>669</ele>
        <time>2021-08-02T08:41:27.341Z</time>
      </trkpt>
      <trkpt lat="47.04899" lon="9.03072">
        <ele>670</ele>
        <time>2021-08-02T08:41:28.341Z</time>
      </trkpt>
      <trkpt lat="47.049" lon="9.03072">
        <ele>670</ele>
        <time>2021-08-02T08:41:29.341Z</time>
      </trkpt>
      <trkpt lat="47.049" lon="9.03072">
        <ele>670</ele>
        <time>2021-08-02T08:41:30.340Z</time>
      </trkpt>
      <trkpt lat="47.04899" lon="9.03074">
        <ele>671</ele>
        <time>2021-08-02T08:41:31.341Z</time>
      </trkpt>
      <trkpt lat="47.04899" lon="9.03073">
        <ele>671</ele>
        <time>2021-08-02T08:41:32.341Z</time>
      </trkpt>
      <trkpt lat="47.04899" lon="9.03072">
        <ele>671</ele>
        <time>2021-08-02T08:41:33.342Z</time>
      </trkpt>
      <trkpt lat="47.04899" lon="9.03071">
        <ele>671</ele>
        <time>2021-08-02T08:41:34.341Z</time>
      </trkpt>
      <trkpt lat="47.049" lon="9.03069">
        <ele>671</ele>
        <time>2021-08-02T08:41:35.342Z</time>
      </trkpt>
      <trkpt lat="47.04901" lon="9.03068">
        <ele>671</ele>
        <time>2021-08-02T08:41:36.342Z</time>
      </trkpt>
      <trkpt lat="47.04901" lon="9.03067">
        <ele>671</ele>
        <time>2021-08-02T08:41:37.342Z</time>
      </trkpt>
      <trkpt lat="47.04901" lon="9.03066">
        <ele>671</ele>
        <time>2021-08-02T08:41:38.342Z</time>
      </trkpt>
      <trkpt lat="47.04901" lon="9.03065">
        <ele>671</ele>
        <time>2021-08-02T08:41:39.342Z</time>
      </trkpt>
      <trkpt lat="47.04901" lon="9.03064">
        <ele>671</ele>
        <time>2021-08-02T08:41:40.342Z</time>
      </trkpt>
      <trkpt lat="47.04901" lon="9.03063">
        <ele>671</ele>
        <time>2021-08-02T08:41:41.342Z</time>
      </trkpt>
      <trkpt lat="47.04901" lon="9.03063">
        <ele>671</ele>
        <time>2021-08-02T08:41:42.342Z</time>
      </trkpt>
      <trkpt lat="47.04902" lon="9.03062">
        <ele>671</ele>
        <time>2021-08-02T08:41:43.342Z</time>
      </trkpt>
      <trkpt lat="47.04902" lon="9.03061">
        <ele>671</ele>
        <time>2021-08-02T08:41:44.342Z</time>
      </trkpt>
      <trkpt lat="47.04902" lon="9.0306">
        <ele>671</ele>
        <time>2021-08-02T08:41:45.342Z</time>
      </trkpt>
      <trkpt lat="47.04902" lon="9.0306">
        <ele>671</ele>
        <time>2021-08-02T08:41:46.341Z</time>
      </trkpt>
      <trkpt lat="47.04902" lon="9.03059">
        <ele>671</ele>
        <time>2021-08-02T08:41:47.342Z</time>
      </trkpt>
      <trkpt lat="47.04903" lon="9.03057">
        <ele>671</ele>
        <time>2021-08-02T08:41:48.342Z</time>
      </trkpt>
      <trkpt lat="47.04904" lon="9.03056">
        <ele>671</ele>
        <time>2021-08-02T08:41:49.342Z</time>
      </trkpt>
      <trkpt lat="47.04905" lon="9.03055">
        <ele>671</ele>
        <time>2021-08-02T08:41:50.342Z</time>
      </trkpt>
      <trkpt lat="47.04905" lon="9.03054">
        <ele>671</ele>
        <time>2021-08-02T08:41:51.342Z</time>
      </trkpt>
      <trkpt lat="47.04906" lon="9.03054">
        <ele>671</ele>
        <time>2021-08-02T08:41:52.341Z</time>
      </trkpt>
      <trkpt lat="47.04909" lon="9.03051">
        <ele>671</ele>
        <time>2021-08-02T08:41:53.342Z</time>
      </trkpt>
      <trkpt lat="47.0491" lon="9.0305">
        <ele>671</ele>
        <time>2021-08-02T08:41:54.341Z</time>
      </trkpt>
      <trkpt lat="47.04913" lon="9.03051">
        <ele>671</ele>
        <time>2021-08-02T08:41:55.342Z</time>
      </trkpt>
      <trkpt lat="47.04913" lon="9.03052">
        <ele>671</ele>
        <time>2021-08-02T08:41:56.342Z</time>
      </trkpt>
      <trkpt lat="47.04913" lon="9.03053">
        <ele>671</ele>
        <time>2021-08-02T08:41:57.341Z</time>
      </trkpt>
      <trkpt lat="47.04914" lon="9.03054">
        <ele>671</ele>
        <time>2021-08-02T08:41:58.342Z</time>
      </trkpt>
      <trkpt lat="47.04915" lon="9.03055">
        <ele>670</ele>
        <time>2021-08-02T08:41:59.342Z</time>
      </trkpt>
      <trkpt lat="47.04916" lon="9.03055">
        <ele>670</ele>
        <time>2021-08-02T08:42:00.341Z</time>
      </trkpt>
      <trkpt lat="47.04917" lon="9.03055">
        <ele>670</ele>
        <time>2021-08-02T08:42:01.342Z</time>
      </trkpt>
      <trkpt lat="47.04918" lon="9.03056">
        <ele>669</ele>
        <time>2021-08-02T08:42:02.342Z</time>
      </trkpt>
      <trkpt lat="47.04919" lon="9.03057">
        <ele>669</ele>
        <time>2021-08-02T08:42:03.341Z</time>
      </trkpt>
      <trkpt lat="47.0492" lon="9.03057">
        <ele>669</ele>
        <time>2021-08-02T08:42:04.342Z</time>
      </trkpt>
      <trkpt lat="47.04921" lon="9.03057">
        <ele>669</ele>
        <time>2021-08-02T08:42:05.341Z</time>
      </trkpt>
      <trkpt lat="47.04922" lon="9.03056">
        <ele>669</ele>
        <time>2021-08-02T08:42:06.342Z</time>
      </trkpt>
      <trkpt lat="47.04923" lon="9.03056">
        <ele>670</ele>
        <time>2021-08-02T08:42:07.341Z</time>
      </trkpt>
      <trkpt lat="47.04924" lon="9.03056">
        <ele>670</ele>
        <time>2021-08-02T08:42:08.341Z</time>
      </trkpt>
      <trkpt lat="47.04925" lon="9.03056">
        <ele>670</ele>
        <time>2021-08-02T08:42:09.342Z</time>
      </trkpt>
      <trkpt lat="47.04926" lon="9.03055">
        <ele>671</ele>
        <time>2021-08-02T08:42:10.341Z</time>
      </trkpt>
      <trkpt lat="47.04927" lon="9.03056">
        <ele>671</ele>
        <time>2021-08-02T08:42:11.342Z</time>
      </trkpt>
      <trkpt lat="47.04927" lon="9.03055">
        <ele>672</ele>
        <time>2021-08-02T08:42:12.342Z</time>
      </trkpt>
      <trkpt lat="47.04928" lon="9.03054">
        <ele>672</ele>
        <time>2021-08-02T08:42:13.341Z</time>
      </trkpt>
      <trkpt lat="47.0493" lon="9.03054">
        <ele>673</ele>
        <time>2021-08-02T08:42:14.342Z</time>
      </trkpt>
      <trkpt lat="47.04931" lon="9.03055">
        <ele>673</ele>
        <time>2021-08-02T08:42:15.342Z</time>
      </trkpt>
      <trkpt lat="47.04932" lon="9.03054">
        <ele>673</ele>
        <time>2021-08-02T08:42:16.342Z</time>
      </trkpt>
      <trkpt lat="47.04934" lon="9.03053">
        <ele>673</ele>
        <time>2021-08-02T08:42:17.341Z</time>
      </trkpt>
      <trkpt lat="47.04935" lon="9.03052">
        <ele>674</ele>
        <time>2021-08-02T08:42:18.342Z</time>
      </trkpt>
      <trkpt lat="47.04936" lon="9.03052">
        <ele>674</ele>
        <time>2021-08-02T08:42:19.342Z</time>
      </trkpt>
      <trkpt lat="47.04938" lon="9.03051">
        <ele>674</ele>
        <time>2021-08-02T08:42:20.342Z</time>
      </trkpt>
      <trkpt lat="47.04939" lon="9.0305">
        <ele>674</ele>
        <time>2021-08-02T08:42:21.341Z</time>
      </trkpt>
      <trkpt lat="47.0494" lon="9.03049">
        <ele>674</ele>
        <time>2021-08-02T08:42:22.341Z</time>
      </trkpt>
      <trkpt lat="47.04941" lon="9.03049">
        <ele>674</ele>
        <time>2021-08-02T08:42:23.342Z</time>
      </trkpt>
      <trkpt lat="47.04941" lon="9.03048">
        <ele>674</ele>
        <time>2021-08-02T08:42:24.342Z</time>
      </trkpt>
      <trkpt lat="47.04942" lon="9.03047">
        <ele>675</ele>
        <time>2021-08-02T08:42:25.342Z</time>
      </trkpt>
      <trkpt lat="47.04943" lon="9.03047">
        <ele>675</ele>
        <time>2021-08-02T08:42:26.342Z</time>
      </trkpt>
      <trkpt lat="47.04944" lon="9.03047">
        <ele>676</ele>
        <time>2021-08-02T08:42:27.341Z</time>
      </trkpt>
      <trkpt lat="47.04945" lon="9.03047">
        <ele>677</ele>
        <time>2021-08-02T08:42:28.342Z</time>
      </trkpt>
      <trkpt lat="47.04947" lon="9.03048">
        <ele>677</ele>
        <time>2021-08-02T08:42:29.341Z</time>
      </trkpt>
      <trkpt lat="47.04949" lon="9.03047">
        <ele>678</ele>
        <time>2021-08-02T08:42:30.341Z</time>
      </trkpt>
      <trkpt lat="47.0495" lon="9.03048">
        <ele>679</ele>
        <time>2021-08-02T08:42:31.342Z</time>
      </trkpt>
      <trkpt lat="47.04951" lon="9.03048">
        <ele>680</ele>
        <time>2021-08-02T08:42:32.342Z</time>
      </trkpt>
      <trkpt lat="47.04953" lon="9.03048">
        <ele>681</ele>
        <time>2021-08-02T08:42:33.341Z</time>
      </trkpt>
      <trkpt lat="47.04954" lon="9.03047">
        <ele>683</ele>
        <time>2021-08-02T08:42:34.341Z</time>
      </trkpt>
      <trkpt lat="47.04954" lon="9.03047">
        <ele>683</ele>
        <time>2021-08-02T08:42:35.342Z</time>
      </trkpt>
      <trkpt lat="47.04955" lon="9.03046">
        <ele>684</ele>
        <time>2021-08-02T08:42:36.342Z</time>
      </trkpt>
      <trkpt lat="47.04956" lon="9.03046">
        <ele>685</ele>
        <time>2021-08-02T08:42:37.341Z</time>
      </trkpt>
      <trkpt lat="47.04955" lon="9.03046">
        <ele>686</ele>
        <time>2021-08-02T08:42:38.341Z</time>
      </trkpt>
      <trkpt lat="47.04954" lon="9.03046">
        <ele>686</ele>
        <time>2021-08-02T08:42:39.342Z</time>
      </trkpt>
      <trkpt lat="47.04953" lon="9.03047">
        <ele>687</ele>
        <time>2021-08-02T08:42:40.342Z</time>
      </trkpt>
      <trkpt lat="47.04952" lon="9.03047">
        <ele>687</ele>
        <time>2021-08-02T08:42:41.341Z</time>
      </trkpt>
      <trkpt lat="47.04951" lon="9.03047">
        <ele>687</ele>
        <time>2021-08-02T08:42:42.341Z</time>
      </trkpt>
      <trkpt lat="47.04951" lon="9.03046">
        <ele>687</ele>
        <time>2021-08-02T08:42:43.341Z</time>
      </trkpt>
      <trkpt lat="47.04951" lon="9.03046">
        <ele>686</ele>
        <time>2021-08-02T08:42:44.342Z</time>
      </trkpt>
      <trkpt lat="47.0495" lon="9.03045">
        <ele>686</ele>
        <time>2021-08-02T08:42:45.342Z</time>
      </trkpt>
      <trkpt lat="47.0495" lon="9.03045">
        <ele>685</ele>
        <time>2021-08-02T08:42:46.342Z</time>
      </trkpt>
      <trkpt lat="47.04949" lon="9.03045">
        <ele>684</ele>
        <time>2021-08-02T08:42:47.342Z</time>
      </trkpt>
      <trkpt lat="47.04949" lon="9.03044">
        <ele>684</ele>
        <time>2021-08-02T08:42:48.341Z</time>
      </trkpt>
      <trkpt lat="47.04948" lon="9.03044">
        <ele>684</ele>
        <time>2021-08-02T08:42:49.342Z</time>
      </trkpt>
      <trkpt lat="47.04947" lon="9.03044">
        <ele>683</ele>
        <time>2021-08-02T08:42:50.341Z</time>
      </trkpt>
      <trkpt lat="47.04945" lon="9.03043">
        <ele>683</ele>
        <time>2021-08-02T08:42:51.342Z</time>
      </trkpt>
      <trkpt lat="47.04944" lon="9.03044">
        <ele>683</ele>
        <time>2021-08-02T08:42:52.341Z</time>
      </trkpt>
      <trkpt lat="47.04943" lon="9.03044">
        <ele>682</ele>
        <time>2021-08-02T08:42:53.341Z</time>
      </trkpt>
      <trkpt lat="47.04942" lon="9.03044">
        <ele>682</ele>
        <time>2021-08-02T08:42:54.342Z</time>
      </trkpt>
      <trkpt lat="47.0494" lon="9.03044">
        <ele>681</ele>
        <time>2021-08-02T08:42:55.341Z</time>
      </trkpt>
      <trkpt lat="47.04938" lon="9.03044">
        <ele>680</ele>
        <time>2021-08-02T08:42:56.341Z</time>
      </trkpt>
      <trkpt lat="47.04936" lon="9.03044">
        <ele>679</ele>
        <time>2021-08-02T08:42:57.341Z</time>
      </trkpt>
      <trkpt lat="47.04935" lon="9.03044">
        <ele>678</ele>
        <time>2021-08-02T08:42:58.341Z</time>
      </trkpt>
      <trkpt lat="47.04934" lon="9.03044">
        <ele>677</ele>
        <time>2021-08-02T08:42:59.341Z</time>
      </trkpt>
      <trkpt lat="47.04933" lon="9.03044">
        <ele>677</ele>
        <time>2021-08-02T08:43:00.341Z</time>
      </trkpt>
      <trkpt lat="47.04932" lon="9.03045">
        <ele>676</ele>
        <time>2021-08-02T08:43:01.342Z</time>
      </trkpt>
      <trkpt lat="47.04931" lon="9.03045">
        <ele>675</ele>
        <time>2021-08-02T08:43:02.341Z</time>
      </trkpt>
      <trkpt lat="47.0493" lon="9.03046">
        <ele>675</ele>
        <time>2021-08-02T08:43:03.342Z</time>
      </trkpt>
      <trkpt lat="47.04929" lon="9.03047">
        <ele>674</ele>
        <time>2021-08-02T08:43:04.342Z</time>
      </trkpt>
      <trkpt lat="47.04928" lon="9.03048">
        <ele>674</ele>
        <time>2021-08-02T08:43:05.341Z</time>
      </trkpt>
      <trkpt lat="47.04927" lon="9.03048">
        <ele>674</ele>
        <time>2021-08-02T08:43:06.341Z</time>
      </trkpt>
      <trkpt lat="47.04926" lon="9.03049">
        <ele>673</ele>
        <time>2021-08-02T08:43:07.341Z</time>
      </trkpt>
      <trkpt lat="47.04925" lon="9.03049">
        <ele>673</ele>
        <time>2021-08-02T08:43:08.341Z</time>
      </trkpt>
      <trkpt lat="47.04924" lon="9.03049">
        <ele>673</ele>
        <time>2021-08-02T08:43:09.342Z</time>
      </trkpt>
      <trkpt lat="47.04923" lon="9.03049">
        <ele>672</ele>
        <time>2021-08-02T08:43:10.341Z</time>
      </trkpt>
      <trkpt lat="47.04922" lon="9.03048">
        <ele>672</ele>
        <time>2021-08-02T08:43:11.342Z</time>
      </trkpt>
      <trkpt lat="47.0492" lon="9.03048">
        <ele>672</ele>
        <time>2021-08-02T08:43:12.342Z</time>
      </trkpt>
      <trkpt lat="47.04919" lon="9.03049">
        <ele>671</ele>
        <time>2021-08-02T08:43:13.342Z</time>
      </trkpt>
      <trkpt lat="47.04917" lon="9.03049">
        <ele>671</ele>
        <time>2021-08-02T08:43:14.342Z</time>
      </trkpt>
      <trkpt lat="47.04916" lon="9.03049">
        <ele>671</ele>
        <time>2021-08-02T08:43:15.341Z</time>
      </trkpt>
      <trkpt lat="47.04915" lon="9.03048">
        <ele>671</ele>
        <time>2021-08-02T08:43:16.342Z</time>
      </trkpt>
      <trkpt lat="47.04914" lon="9.03047">
        <ele>670</ele>
        <time>2021-08-02T08:43:17.342Z</time>
      </trkpt>
      <trkpt lat="47.04914" lon="9.03046">
        <ele>670</ele>
        <time>2021-08-02T08:43:18.342Z</time>
      </trkpt>
      <trkpt lat="47.04913" lon="9.03045">
        <ele>669</ele>
        <time>2021-08-02T08:43:19.342Z</time>
      </trkpt>
      <trkpt lat="47.04913" lon="9.03044">
        <ele>669</ele>
        <time>2021-08-02T08:43:20.342Z</time>
      </trkpt>
      <trkpt lat="47.04913" lon="9.03043">
        <ele>669</ele>
        <time>2021-08-02T08:43:21.341Z</time>
      </trkpt>
      <trkpt lat="47.04912" lon="9.03043">
        <ele>669</ele>
        <time>2021-08-02T08:43:22.342Z</time>
      </trkpt>
      <trkpt lat="47.04913" lon="9.03042">
        <ele>669</ele>
        <time>2021-08-02T08:43:23.342Z</time>
      </trkpt>
      <trkpt lat="47.04915" lon="9.03043">
        <ele>674</ele>
        <time>2021-08-02T08:43:24.342Z</time>
      </trkpt>
      <trkpt lat="47.04915" lon="9.03043">
        <ele>674</ele>
        <time>2021-08-02T08:43:25.341Z</time>
      </trkpt>
      <trkpt lat="47.04915" lon="9.03044">
        <ele>675</ele>
        <time>2021-08-02T08:43:26.342Z</time>
      </trkpt>
      <trkpt lat="47.04915" lon="9.03043">
        <ele>675</ele>
        <time>2021-08-02T08:43:27.342Z</time>
      </trkpt>
      <trkpt lat="47.04917" lon="9.03042">
        <ele>678</ele>
        <time>2021-08-02T08:43:28.342Z</time>
      </trkpt>
      <trkpt lat="47.04918" lon="9.03043">
        <ele>678</ele>
        <time>2021-08-02T08:43:29.342Z</time>
      </trkpt>
      <trkpt lat="47.04918" lon="9.03043">
        <ele>678</ele>
        <time>2021-08-02T08:43:30.341Z</time>
      </trkpt>
      <trkpt lat="47.04918" lon="9.03047">
        <ele>677</ele>
        <time>2021-08-02T08:43:31.341Z</time>
      </trkpt>
      <trkpt lat="47.04916" lon="9.03048">
        <ele>678</ele>
        <time>2021-08-02T08:43:32.341Z</time>
      </trkpt>
      <trkpt lat="47.04915" lon="9.03051">
        <ele>678</ele>
        <time>2021-08-02T08:43:33.341Z</time>
      </trkpt>
      <trkpt lat="47.04915" lon="9.03056">
        <ele>678</ele>
        <time>2021-08-02T08:43:34.341Z</time>
      </trkpt>
      <trkpt lat="47.04915" lon="9.03056">
        <ele>678</ele>
        <time>2021-08-02T08:43:35.341Z</time>
      </trkpt>
      <trkpt lat="47.04916" lon="9.03056">
        <ele>678</ele>
        <time>2021-08-02T08:43:36.342Z</time>
      </trkpt>
      <trkpt lat="47.04915" lon="9.03057">
        <ele>678</ele>
        <time>2021-08-02T08:43:37.341Z</time>
      </trkpt>
      <trkpt lat="47.04915" lon="9.03058">
        <ele>678</ele>
        <time>2021-08-02T08:43:38.341Z</time>
      </trkpt>
      <trkpt lat="47.04914" lon="9.03059">
        <ele>678</ele>
        <time>2021-08-02T08:43:39.341Z</time>
      </trkpt>
      <trkpt lat="47.04914" lon="9.0306">
        <ele>678</ele>
        <time>2021-08-02T08:43:40.341Z</time>
      </trkpt>
      <trkpt lat="47.04914" lon="9.0306">
        <ele>677</ele>
        <time>2021-08-02T08:43:41.341Z</time>
      </trkpt>
      <trkpt lat="47.04914" lon="9.03061">
        <ele>677</ele>
        <time>2021-08-02T08:43:42.341Z</time>
      </trkpt>
      <trkpt lat="47.04914" lon="9.03061">
        <ele>677</ele>
        <time>2021-08-02T08:43:43.341Z</time>
      </trkpt>
      <trkpt lat="47.04914" lon="9.03062">
        <ele>678</ele>
        <time>2021-08-02T08:43:44.341Z</time>
      </trkpt>
      <trkpt lat="47.04915" lon="9.03062">
        <ele>678</ele>
        <time>2021-08-02T08:43:45.341Z</time>
      </trkpt>
      <trkpt lat="47.04915" lon="9.03062">
        <ele>677</ele>
        <time>2021-08-02T08:43:46.341Z</time>
      </trkpt>
      <trkpt lat="47.04915" lon="9.03062">
        <ele>677</ele>
        <time>2021-08-02T08:43:47.341Z</time>
      </trkpt>
      <trkpt lat="47.04915" lon="9.03062">
        <ele>676</ele>
        <time>2021-08-02T08:43:48.342Z</time>
      </trkpt>
      <trkpt lat="47.04917" lon="9.03055">
        <ele>673</ele>
        <time>2021-08-02T08:43:49.344Z</time>
      </trkpt>
      <trkpt lat="47.04918" lon="9.03052">
        <ele>672</ele>
        <time>2021-08-02T08:43:50.344Z</time>
      </trkpt>
      <trkpt lat="47.04918" lon="9.0305">
        <ele>671</ele>
        <time>2021-08-02T08:43:51.343Z</time>
      </trkpt>
      <trkpt lat="47.04919" lon="9.03049">
        <ele>671</ele>
        <time>2021-08-02T08:43:52.344Z</time>
      </trkpt>
      <trkpt lat="47.04919" lon="9.03051">
        <ele>673</ele>
        <time>2021-08-02T08:43:53.345Z</time>
      </trkpt>
      <trkpt lat="47.04919" lon="9.0305">
        <ele>673</ele>
        <time>2021-08-02T08:43:54.344Z</time>
      </trkpt>
      <trkpt lat="47.04919" lon="9.03049">
        <ele>673</ele>
        <time>2021-08-02T08:43:55.344Z</time>
      </trkpt>
      <trkpt lat="47.04919" lon="9.03049">
        <ele>673</ele>
        <time>2021-08-02T08:43:56.344Z</time>
      </trkpt>
      <trkpt lat="47.04919" lon="9.03048">
        <ele>674</ele>
        <time>2021-08-02T08:43:57.344Z</time>
      </trkpt>
      <trkpt lat="47.04919" lon="9.03048">
        <ele>674</ele>
        <time>2021-08-02T08:43:58.344Z</time>
      </trkpt>
      <trkpt lat="47.04919" lon="9.03048">
        <ele>675</ele>
        <time>2021-08-02T08:43:59.344Z</time>
      </trkpt>
      <trkpt lat="47.0492" lon="9.03051">
        <ele>677</ele>
        <time>2021-08-02T08:44:00.345Z</time>
      </trkpt>
      <trkpt lat="47.04921" lon="9.03051">
        <ele>678</ele>
        <time>2021-08-02T08:44:01.345Z</time>
      </trkpt>
      <trkpt lat="47.04922" lon="9.0305">
        <ele>679</ele>
        <time>2021-08-02T08:44:02.345Z</time>
      </trkpt>
      <trkpt lat="47.04922" lon="9.03049">
        <ele>679</ele>
        <time>2021-08-02T08:44:03.345Z</time>
      </trkpt>
      <trkpt lat="47.04923" lon="9.03048">
        <ele>680</ele>
        <time>2021-08-02T08:44:04.345Z</time>
      </trkpt>
      <trkpt lat="47.04923" lon="9.03047">
        <ele>681</ele>
        <time>2021-08-02T08:44:05.345Z</time>
      </trkpt>
      <trkpt lat="47.04923" lon="9.03047">
        <ele>682</ele>
        <time>2021-08-02T08:44:06.345Z</time>
      </trkpt>
      <trkpt lat="47.04924" lon="9.03047">
        <ele>683</ele>
        <time>2021-08-02T08:44:07.346Z</time>
      </trkpt>
      <trkpt lat="47.04927" lon="9.03044">
        <ele>687</ele>
        <time>2021-08-02T08:44:08.347Z</time>
      </trkpt>
      <trkpt lat="47.04927" lon="9.03044">
        <ele>687</ele>
        <time>2021-08-02T08:44:09.348Z</time>
      </trkpt>
      <trkpt lat="47.04928" lon="9.03044">
        <ele>688</ele>
        <time>2021-08-02T08:44:10.347Z</time>
      </trkpt>
      <trkpt lat="47.04928" lon="9.03044">
        <ele>688</ele>
        <time>2021-08-02T08:44:11.347Z</time>
      </trkpt>
      <trkpt lat="47.04929" lon="9.03045">
        <ele>688</ele>
        <time>2021-08-02T08:44:12.347Z</time>
      </trkpt>
      <trkpt lat="47.04929" lon="9.03045">
        <ele>688</ele>
        <time>2021-08-02T08:44:13.347Z</time>
      </trkpt>
      <trkpt lat="47.0493" lon="9.03045">
        <ele>689</ele>
        <time>2021-08-02T08:44:14.347Z</time>
      </trkpt>
      <trkpt lat="47.0493" lon="9.03045">
        <ele>689</ele>
        <time>2021-08-02T08:44:15.347Z</time>
      </trkpt>
      <trkpt lat="47.0493" lon="9.03045">
        <ele>689</ele>
        <time>2021-08-02T08:44:16.347Z</time>
      </trkpt>
      <trkpt lat="47.0493" lon="9.03045">
        <ele>688</ele>
        <time>2021-08-02T08:44:17.347Z</time>
      </trkpt>
      <trkpt lat="47.0493" lon="9.03045">
        <ele>688</ele>
        <time>2021-08-02T08:44:18.347Z</time>
      </trkpt>
      <trkpt lat="47.04931" lon="9.03045">
        <ele>688</ele>
        <time>2021-08-02T08:44:19.347Z</time>
      </trkpt>
      <trkpt lat="47.04931" lon="9.03045">
        <ele>688</ele>
        <time>2021-08-02T08:44:20.347Z</time>
      </trkpt>
      <trkpt lat="47.04931" lon="9.03045">
        <ele>688</ele>
        <time>2021-08-02T08:44:21.348Z</time>
      </trkpt>
      <trkpt lat="47.04931" lon="9.03044">
        <ele>687</ele>
        <time>2021-08-02T08:44:22.348Z</time>
      </trkpt>
      <trkpt lat="47.04928" lon="9.03045">
        <ele>687</ele>
        <time>2021-08-02T08:44:23.349Z</time>
      </trkpt>
      <trkpt lat="47.04928" lon="9.03045">
        <ele>686</ele>
        <time>2021-08-02T08:44:24.349Z</time>
      </trkpt>
      <trkpt lat="47.04929" lon="9.03047">
        <ele>686</ele>
        <time>2021-08-02T08:44:25.349Z</time>
      </trkpt>
      <trkpt lat="47.0493" lon="9.03049">
        <ele>686</ele>
        <time>2021-08-02T08:44:26.349Z</time>
      </trkpt>
      <trkpt lat="47.04929" lon="9.0305">
        <ele>685</ele>
        <time>2021-08-02T08:44:27.349Z</time>
      </trkpt>
      <trkpt lat="47.0493" lon="9.03052">
        <ele>685</ele>
        <time>2021-08-02T08:44:28.349Z</time>
      </trkpt>
      <trkpt lat="47.04929" lon="9.03053">
        <ele>685</ele>
        <time>2021-08-02T08:44:29.349Z</time>
      </trkpt>
      <trkpt lat="47.04929" lon="9.03054">
        <ele>685</ele>
        <time>2021-08-02T08:44:30.349Z</time>
      </trkpt>
      <trkpt lat="47.04929" lon="9.03055">
        <ele>685</ele>
        <time>2021-08-02T08:44:31.349Z</time>
      </trkpt>
      <trkpt lat="47.04928" lon="9.03055">
        <ele>684</ele>
        <time>2021-08-02T08:44:32.349Z</time>
      </trkpt>
      <trkpt lat="47.04928" lon="9.03055">
        <ele>684</ele>
        <time>2021-08-02T08:44:33.349Z</time>
      </trkpt>
      <trkpt lat="47.04927" lon="9.03055">
        <ele>684</ele>
        <time>2021-08-02T08:44:34.349Z</time>
      </trkpt>
      <trkpt lat="47.04927" lon="9.03055">
        <ele>684</ele>
        <time>2021-08-02T08:44:35.349Z</time>
      </trkpt>
      <trkpt lat="47.04926" lon="9.03055">
        <ele>684</ele>
        <time>2021-08-02T08:44:36.349Z</time>
      </trkpt>
      <trkpt lat="47.04926" lon="9.03056">
        <ele>684</ele>
        <time>2021-08-02T08:44:37.349Z</time>
      </trkpt>
      <trkpt lat="47.04924" lon="9.03057">
        <ele>682</ele>
        <time>2021-08-02T08:44:38.350Z</time>
      </trkpt>
      <trkpt lat="47.04923" lon="9.03057">
        <ele>681</ele>
        <time>2021-08-02T08:44:39.349Z</time>
      </trkpt>
      <trkpt lat="47.04921" lon="9.03056">
        <ele>678</ele>
        <time>2021-08-02T08:44:40.349Z</time>
      </trkpt>
      <trkpt lat="47.0492" lon="9.03055">
        <ele>678</ele>
        <time>2021-08-02T08:44:41.350Z</time>
      </trkpt>
      <trkpt lat="47.0492" lon="9.03054">
        <ele>677</ele>
        <time>2021-08-02T08:44:42.349Z</time>
      </trkpt>
      <trkpt lat="47.04919" lon="9.03058">
        <ele>675</ele>
        <time>2021-08-02T08:44:43.351Z</time>
      </trkpt>
      <trkpt lat="47.04919" lon="9.03058">
        <ele>675</ele>
        <time>2021-08-02T08:44:44.351Z</time>
      </trkpt>
      <trkpt lat="47.04918" lon="9.03058">
        <ele>674</ele>
        <time>2021-08-02T08:44:45.351Z</time>
      </trkpt>
      <trkpt lat="47.04916" lon="9.03055">
        <ele>671</ele>
        <time>2021-08-02T08:44:46.352Z</time>
      </trkpt>
      <trkpt lat="47.04916" lon="9.03055">
        <ele>671</ele>
        <time>2021-08-02T08:44:47.352Z</time>
      </trkpt>
      <trkpt lat="47.04916" lon="9.03055">
        <ele>670</ele>
        <time>2021-08-02T08:44:48.352Z</time>
      </trkpt>
      <trkpt lat="47.04918" lon="9.03046">
        <ele>674</ele>
        <time>2021-08-02T08:44:49.353Z</time>
      </trkpt>
      <trkpt lat="47.04918" lon="9.03045">
        <ele>675</ele>
        <time>2021-08-02T08:44:50.353Z</time>
      </trkpt>
      <trkpt lat="47.04917" lon="9.03045">
        <ele>676</ele>
        <time>2021-08-02T08:44:51.352Z</time>
      </trkpt>
      <trkpt lat="47.04917" lon="9.03044">
        <ele>676</ele>
        <time>2021-08-02T08:44:52.353Z</time>
      </trkpt>
      <trkpt lat="47.04917" lon="9.03044">
        <ele>677</ele>
        <time>2021-08-02T08:44:53.352Z</time>
      </trkpt>
      <trkpt lat="47.04916" lon="9.03044">
        <ele>678</ele>
        <time>2021-08-02T08:44:54.353Z</time>
      </trkpt>
      <trkpt lat="47.04916" lon="9.03044">
        <ele>678</ele>
        <time>2021-08-02T08:44:55.353Z</time>
      </trkpt>
      <trkpt lat="47.04915" lon="9.03043">
        <ele>679</ele>
        <time>2021-08-02T08:44:56.353Z</time>
      </trkpt>
      <trkpt lat="47.04914" lon="9.03041">
        <ele>679</ele>
        <time>2021-08-02T08:44:57.354Z</time>
      </trkpt>
      <trkpt lat="47.04913" lon="9.03041">
        <ele>679</ele>
        <time>2021-08-02T08:44:58.353Z</time>
      </trkpt>
      <trkpt lat="47.04912" lon="9.03042">
        <ele>678</ele>
        <time>2021-08-02T08:44:59.353Z</time>
      </trkpt>
      <trkpt lat="47.04913" lon="9.03042">
        <ele>678</ele>
        <time>2021-08-02T08:45:00.354Z</time>
      </trkpt>
      <trkpt lat="47.04914" lon="9.03042">
        <ele>677</ele>
        <time>2021-08-02T08:45:01.353Z</time>
      </trkpt>
      <trkpt lat="47.04914" lon="9.03042">
        <ele>677</ele>
        <time>2021-08-02T08:45:02.353Z</time>
      </trkpt>
      <trkpt lat="47.04915" lon="9.03043">
        <ele>677</ele>
        <time>2021-08-02T08:45:03.354Z</time>
      </trkpt>
      <trkpt lat="47.04915" lon="9.03045">
        <ele>677</ele>
        <time>2021-08-02T08:45:04.354Z</time>
      </trkpt>
      <trkpt lat="47.04916" lon="9.03045">
        <ele>677</ele>
        <time>2021-08-02T08:45:05.353Z</time>
      </trkpt>
      <trkpt lat="47.04916" lon="9.03046">
        <ele>677</ele>
        <time>2021-08-02T08:45:06.354Z</time>
      </trkpt>
      <trkpt lat="47.04922" lon="9.03043">
        <ele>672</ele>
        <time>2021-08-02T08:45:07.354Z</time>
      </trkpt>
      <trkpt lat="47.04924" lon="9.03042">
        <ele>671</ele>
        <time>2021-08-02T08:45:08.353Z</time>
      </trkpt>
      <trkpt lat="47.04924" lon="9.03042">
        <ele>670</ele>
        <time>2021-08-02T08:45:09.353Z</time>
      </trkpt>
      <trkpt lat="47.04924" lon="9.03042">
        <ele>669</ele>
        <time>2021-08-02T08:45:10.353Z</time>
      </trkpt>
      <trkpt lat="47.04925" lon="9.03043">
        <ele>667</ele>
        <time>2021-08-02T08:45:11.355Z</time>
      </trkpt>
      <trkpt lat="47.04925" lon="9.03043">
        <ele>667</ele>
        <time>2021-08-02T08:45:12.355Z</time>
      </trkpt>
      <trkpt lat="47.04925" lon="9.03042">
        <ele>667</ele>
        <time>2021-08-02T08:45:13.354Z</time>
      </trkpt>
      <trkpt lat="47.04925" lon="9.03043">
        <ele>666</ele>
        <time>2021-08-02T08:45:14.354Z</time>
      </trkpt>
      <trkpt lat="47.0492" lon="9.03051">
        <ele>667</ele>
        <time>2021-08-02T08:45:15.355Z</time>
      </trkpt>
      <trkpt lat="47.04919" lon="9.03051">
        <ele>667</ele>
        <time>2021-08-02T08:45:16.355Z</time>
      </trkpt>
      <trkpt lat="47.04918" lon="9.0305">
        <ele>667</ele>
        <time>2021-08-02T08:45:17.354Z</time>
      </trkpt>
      <trkpt lat="47.04917" lon="9.0305">
        <ele>667</ele>
        <time>2021-08-02T08:45:18.355Z</time>
      </trkpt>
      <trkpt lat="47.04916" lon="9.0305">
        <ele>668</ele>
        <time>2021-08-02T08:45:19.355Z</time>
      </trkpt>
      <trkpt lat="47.04915" lon="9.03049">
        <ele>668</ele>
        <time>2021-08-02T08:45:20.354Z</time>
      </trkpt>
      <trkpt lat="47.04916" lon="9.03049">
        <ele>668</ele>
        <time>2021-08-02T08:45:21.354Z</time>
      </trkpt>
      <trkpt lat="47.04916" lon="9.03049">
        <ele>668</ele>
        <time>2021-08-02T08:45:22.354Z</time>
      </trkpt>
      <trkpt lat="47.04913" lon="9.03045">
        <ele>674</ele>
        <time>2021-08-02T08:45:23.355Z</time>
      </trkpt>
      <trkpt lat="47.04913" lon="9.03046">
        <ele>674</ele>
        <time>2021-08-02T08:45:24.355Z</time>
      </trkpt>
      <trkpt lat="47.04914" lon="9.03046">
        <ele>674</ele>
        <time>2021-08-02T08:45:25.354Z</time>
      </trkpt>
      <trkpt lat="47.04916" lon="9.03046">
        <ele>675</ele>
        <time>2021-08-02T08:45:26.356Z</time>
      </trkpt>
      <trkpt lat="47.04916" lon="9.03046">
        <ele>675</ele>
        <time>2021-08-02T08:45:27.355Z</time>
      </trkpt>
      <trkpt lat="47.04917" lon="9.03047">
        <ele>673</ele>
        <time>2021-08-02T08:45:28.357Z</time>
      </trkpt>
      <trkpt lat="47.04917" lon="9.03047">
        <ele>673</ele>
        <time>2021-08-02T08:45:29.356Z</time>
      </trkpt>
      <trkpt lat="47.04917" lon="9.03048">
        <ele>672</ele>
        <time>2021-08-02T08:45:30.356Z</time>
      </trkpt>
      <trkpt lat="47.04917" lon="9.03052">
        <ele>675</ele>
        <time>2021-08-02T08:45:31.357Z</time>
      </trkpt>
      <trkpt lat="47.04917" lon="9.03052">
        <ele>668</ele>
        <time>2021-08-02T08:45:32.357Z</time>
      </trkpt>
      <trkpt lat="47.04916" lon="9.03052">
        <ele>668</ele>
        <time>2021-08-02T08:45:33.356Z</time>
      </trkpt>
      <trkpt lat="47.04916" lon="9.03053">
        <ele>667</ele>
        <time>2021-08-02T08:45:34.356Z</time>
      </trkpt>
      <trkpt lat="47.04915" lon="9.03054">
        <ele>667</ele>
        <time>2021-08-02T08:45:35.356Z</time>
      </trkpt>
      <trkpt lat="47.04914" lon="9.03054">
        <ele>667</ele>
        <time>2021-08-02T08:45:36.357Z</time>
      </trkpt>
      <trkpt lat="47.04914" lon="9.03055">
        <ele>666</ele>
        <time>2021-08-02T08:45:37.357Z</time>
      </trkpt>
      <trkpt lat="47.04913" lon="9.03056">
        <ele>666</ele>
        <time>2021-08-02T08:45:38.356Z</time>
      </trkpt>
      <trkpt lat="47.04912" lon="9.03056">
        <ele>666</ele>
        <time>2021-08-02T08:45:39.357Z</time>
      </trkpt>
      <trkpt lat="47.04912" lon="9.03057">
        <ele>666</ele>
        <time>2021-08-02T08:45:40.357Z</time>
      </trkpt>
      <trkpt lat="47.04911" lon="9.03057">
        <ele>667</ele>
        <time>2021-08-02T08:45:41.357Z</time>
      </trkpt>
      <trkpt lat="47.0491" lon="9.03057">
        <ele>667</ele>
        <time>2021-08-02T08:45:42.357Z</time>
      </trkpt>
      <trkpt lat="47.04909" lon="9.03057">
        <ele>667</ele>
        <time>2021-08-02T08:45:43.356Z</time>
      </trkpt>
      <trkpt lat="47.04904" lon="9.03066">
        <ele>674</ele>
        <time>2021-08-02T08:45:44.359Z</time>
      </trkpt>
      <trkpt lat="47.04904" lon="9.03064">
        <ele>673</ele>
        <time>2021-08-02T08:45:45.358Z</time>
      </trkpt>
      <trkpt lat="47.04904" lon="9.03062">
        <ele>673</ele>
        <time>2021-08-02T08:45:46.358Z</time>
      </trkpt>
      <trkpt lat="47.04905" lon="9.03061">
        <ele>673</ele>
        <time>2021-08-02T08:45:47.359Z</time>
      </trkpt>
      <trkpt lat="47.04905" lon="9.03059">
        <ele>673</ele>
        <time>2021-08-02T08:45:48.359Z</time>
      </trkpt>
      <trkpt lat="47.04905" lon="9.03058">
        <ele>673</ele>
        <time>2021-08-02T08:45:49.359Z</time>
      </trkpt>
      <trkpt lat="47.04905" lon="9.03057">
        <ele>673</ele>
        <time>2021-08-02T08:45:50.359Z</time>
      </trkpt>
      <trkpt lat="47.04906" lon="9.03055">
        <ele>673</ele>
        <time>2021-08-02T08:45:51.359Z</time>
      </trkpt>
      <trkpt lat="47.04906" lon="9.03055">
        <ele>673</ele>
        <time>2021-08-02T08:45:52.359Z</time>
      </trkpt>
      <trkpt lat="47.04907" lon="9.03054">
        <ele>673</ele>
        <time>2021-08-02T08:45:53.359Z</time>
      </trkpt>
      <trkpt lat="47.04907" lon="9.03054">
        <ele>672</ele>
        <time>2021-08-02T08:45:54.359Z</time>
      </trkpt>
      <trkpt lat="47.04907" lon="9.03054">
        <ele>672</ele>
        <time>2021-08-02T08:45:55.359Z</time>
      </trkpt>
      <trkpt lat="47.04907" lon="9.03053">
        <ele>672</ele>
        <time>2021-08-02T08:45:56.358Z</time>
      </trkpt>
      <trkpt lat="47.04907" lon="9.03052">
        <ele>672</ele>
        <time>2021-08-02T08:45:57.359Z</time>
      </trkpt>
      <trkpt lat="47.04907" lon="9.03052">
        <ele>672</ele>
        <time>2021-08-02T08:45:58.359Z</time>
      </trkpt>
      <trkpt lat="47.04907" lon="9.03047">
        <ele>670</ele>
        <time>2021-08-02T08:45:59.360Z</time>
      </trkpt>
      <trkpt lat="47.04901" lon="9.03041">
        <ele>663</ele>
        <time>2021-08-02T08:46:00.359Z</time>
      </trkpt>
      <trkpt lat="47.04902" lon="9.03039">
        <ele>663</ele>
        <time>2021-08-02T08:46:01.360Z</time>
      </trkpt>
      <trkpt lat="47.04902" lon="9.0304">
        <ele>663</ele>
        <time>2021-08-02T08:46:02.359Z</time>
      </trkpt>
      <trkpt lat="47.04902" lon="9.0304">
        <ele>663</ele>
        <time>2021-08-02T08:46:03.360Z</time>
      </trkpt>
      <trkpt lat="47.04904" lon="9.03039">
        <ele>665</ele>
        <time>2021-08-02T08:46:04.359Z</time>
      </trkpt>
      <trkpt lat="47.04905" lon="9.03039">
        <ele>665</ele>
        <time>2021-08-02T08:46:05.360Z</time>
      </trkpt>
      <trkpt lat="47.04905" lon="9.03039">
        <ele>665</ele>
        <time>2021-08-02T08:46:06.359Z</time>
      </trkpt>
      <trkpt lat="47.04914" lon="9.03042">
        <ele>666</ele>
        <time>2021-08-02T08:46:07.360Z</time>
      </trkpt>
      <trkpt lat="47.04914" lon="9.03042">
        <ele>666</ele>
        <time>2021-08-02T08:46:08.360Z</time>
      </trkpt>
      <trkpt lat="47.04914" lon="9.03036">
        <ele>662</ele>
        <time>2021-08-02T08:46:09.361Z</time>
      </trkpt>
      <trkpt lat="47.04914" lon="9.03035">
        <ele>661</ele>
        <time>2021-08-02T08:46:10.361Z</time>
      </trkpt>
      <trkpt lat="47.04914" lon="9.03034">
        <ele>659</ele>
        <time>2021-08-02T08:46:11.360Z</time>
      </trkpt>
      <trkpt lat="47.04918" lon="9.03038">
        <ele>658</ele>
        <time>2021-08-02T08:46:12.360Z</time>
      </trkpt>
      <trkpt lat="47.04919" lon="9.03038">
        <ele>659</ele>
        <time>2021-08-02T08:46:13.361Z</time>
      </trkpt>
      <trkpt lat="47.04918" lon="9.03031">
        <ele>659</ele>
        <time>2021-08-02T08:46:15.361Z</time>
      </trkpt>
      <trkpt lat="47.04918" lon="9.0303">
        <ele>659</ele>
        <time>2021-08-02T08:46:16.360Z</time>
      </trkpt>
      <trkpt lat="47.04916" lon="9.0303">
        <ele>659</ele>
        <time>2021-08-02T08:46:17.363Z</time>
      </trkpt>
      <trkpt lat="47.04917" lon="9.0303">
        <ele>659</ele>
        <time>2021-08-02T08:46:18.363Z</time>
      </trkpt>
      <trkpt lat="47.04916" lon="9.03031">
        <ele>656</ele>
        <time>2021-08-02T08:46:19.363Z</time>
      </trkpt>
      <trkpt lat="47.04915" lon="9.03031">
        <ele>656</ele>
        <time>2021-08-02T08:46:20.363Z</time>
      </trkpt>
      <trkpt lat="47.04915" lon="9.03032">
        <ele>655</ele>
        <time>2021-08-02T08:46:21.362Z</time>
      </trkpt>
      <trkpt lat="47.04914" lon="9.03032">
        <ele>655</ele>
        <time>2021-08-02T08:46:22.363Z</time>
      </trkpt>
      <trkpt lat="47.04913" lon="9.03033">
        <ele>655</ele>
        <time>2021-08-02T08:46:23.363Z</time>
      </trkpt>
      <trkpt lat="47.04913" lon="9.03034">
        <ele>655</ele>
        <time>2021-08-02T08:46:24.363Z</time>
      </trkpt>
      <trkpt lat="47.04913" lon="9.03035">
        <ele>655</ele>
        <time>2021-08-02T08:46:25.363Z</time>
      </trkpt>
      <trkpt lat="47.04914" lon="9.03036">
        <ele>656</ele>
        <time>2021-08-02T08:46:26.363Z</time>
      </trkpt>
      <trkpt lat="47.04913" lon="9.03037">
        <ele>657</ele>
        <time>2021-08-02T08:46:27.363Z</time>
      </trkpt>
      <trkpt lat="47.04912" lon="9.03038">
        <ele>657</ele>
        <time>2021-08-02T08:46:28.363Z</time>
      </trkpt>
      <trkpt lat="47.04911" lon="9.03037">
        <ele>658</ele>
        <time>2021-08-02T08:46:29.364Z</time>
      </trkpt>
      <trkpt lat="47.04911" lon="9.03034">
        <ele>660</ele>
        <time>2021-08-02T08:46:30.365Z</time>
      </trkpt>
      <trkpt lat="47.04911" lon="9.03034">
        <ele>660</ele>
        <time>2021-08-02T08:46:31.365Z</time>
      </trkpt>
      <trkpt lat="47.04913" lon="9.03035">
        <ele>659</ele>
        <time>2021-08-02T08:46:32.365Z</time>
      </trkpt>
      <trkpt lat="47.04913" lon="9.03037">
        <ele>658</ele>
        <time>2021-08-02T08:46:33.364Z</time>
      </trkpt>
      <trkpt lat="47.04913" lon="9.03039">
        <ele>658</ele>
        <time>2021-08-02T08:46:34.364Z</time>
      </trkpt>
      <trkpt lat="47.04913" lon="9.03041">
        <ele>658</ele>
        <time>2021-08-02T08:46:35.366Z</time>
      </trkpt>
      <trkpt lat="47.04913" lon="9.03041">
        <ele>658</ele>
        <time>2021-08-02T08:46:36.366Z</time>
      </trkpt>
      <trkpt lat="47.04913" lon="9.03042">
        <ele>659</ele>
        <time>2021-08-02T08:46:37.366Z</time>
      </trkpt>
      <trkpt lat="47.04913" lon="9.03042">
        <ele>659</ele>
        <time>2021-08-02T08:46:38.367Z</time>
      </trkpt>
      <trkpt lat="47.04914" lon="9.03042">
        <ele>659</ele>
        <time>2021-08-02T08:46:39.366Z</time>
      </trkpt>
      <trkpt lat="47.04915" lon="9.03042">
        <ele>659</ele>
        <time>2021-08-02T08:46:40.366Z</time>
      </trkpt>
      <trkpt lat="47.04916" lon="9.03042">
        <ele>659</ele>
        <time>2021-08-02T08:46:41.366Z</time>
      </trkpt>
      <trkpt lat="47.04917" lon="9.03042">
        <ele>661</ele>
        <time>2021-08-02T08:46:42.367Z</time>
      </trkpt>
      <trkpt lat="47.04917" lon="9.03042">
        <ele>662</ele>
        <time>2021-08-02T08:46:43.368Z</time>
      </trkpt>
      <trkpt lat="47.04917" lon="9.03041">
        <ele>663</ele>
        <time>2021-08-02T08:46:44.367Z</time>
      </trkpt>
      <trkpt lat="47.04918" lon="9.03041">
        <ele>666</ele>
        <time>2021-08-02T08:46:45.369Z</time>
      </trkpt>
      <trkpt lat="47.04919" lon="9.03042">
        <ele>667</ele>
        <time>2021-08-02T08:46:46.369Z</time>
      </trkpt>
      <trkpt lat="47.0492" lon="9.03043">
        <ele>668</ele>
        <time>2021-08-02T08:46:47.368Z</time>
      </trkpt>
      <trkpt lat="47.0492" lon="9.03044">
        <ele>669</ele>
        <time>2021-08-02T08:46:48.369Z</time>
      </trkpt>
      <trkpt lat="47.0492" lon="9.03045">
        <ele>670</ele>
        <time>2021-08-02T08:46:49.369Z</time>
      </trkpt>
      <trkpt lat="47.0492" lon="9.03046">
        <ele>672</ele>
        <time>2021-08-02T08:46:50.368Z</time>
      </trkpt>
      <trkpt lat="47.04919" lon="9.03046">
        <ele>673</ele>
        <time>2021-08-02T08:46:51.368Z</time>
      </trkpt>
      <trkpt lat="47.04919" lon="9.03046">
        <ele>674</ele>
        <time>2021-08-02T08:46:52.369Z</time>
      </trkpt>
      <trkpt lat="47.04919" lon="9.03047">
        <ele>683</ele>
        <time>2021-08-02T08:46:53.369Z</time>
      </trkpt>
      <trkpt lat="47.0492" lon="9.0305">
        <ele>692</ele>
        <time>2021-08-02T08:46:54.371Z</time>
      </trkpt>
      <trkpt lat="47.04919" lon="9.03055">
        <ele>686</ele>
        <time>2021-08-02T08:46:55.371Z</time>
      </trkpt>
      <trkpt lat="47.04919" lon="9.03055">
        <ele>685</ele>
        <time>2021-08-02T08:46:56.371Z</time>
      </trkpt>
      <trkpt lat="47.04919" lon="9.03055">
        <ele>685</ele>
        <time>2021-08-02T08:46:57.371Z</time>
      </trkpt>
      <trkpt lat="47.04919" lon="9.03055">
        <ele>685</ele>
        <time>2021-08-02T08:46:58.370Z</time>
      </trkpt>
      <trkpt lat="47.04919" lon="9.03055">
        <ele>691</ele>
        <time>2021-08-02T08:46:59.373Z</time>
      </trkpt>
      <trkpt lat="47.04919" lon="9.03056">
        <ele>691</ele>
        <time>2021-08-02T08:47:00.373Z</time>
      </trkpt>
      <trkpt lat="47.04919" lon="9.03057">
        <ele>692</ele>
        <time>2021-08-02T08:47:01.372Z</time>
      </trkpt>
      <trkpt lat="47.04918" lon="9.03057">
        <ele>692</ele>
        <time>2021-08-02T08:47:02.372Z</time>
      </trkpt>
      <trkpt lat="47.04918" lon="9.03059">
        <ele>693</ele>
        <time>2021-08-02T08:47:03.373Z</time>
      </trkpt>
      <trkpt lat="47.04918" lon="9.0306">
        <ele>693</ele>
        <time>2021-08-02T08:47:04.373Z</time>
      </trkpt>
      <trkpt lat="47.04917" lon="9.0306">
        <ele>693</ele>
        <time>2021-08-02T08:47:05.372Z</time>
      </trkpt>
      <trkpt lat="47.04917" lon="9.03061">
        <ele>693</ele>
        <time>2021-08-02T08:47:06.373Z</time>
      </trkpt>
      <trkpt lat="47.04916" lon="9.03061">
        <ele>693</ele>
        <time>2021-08-02T08:47:07.373Z</time>
      </trkpt>
      <trkpt lat="47.04915" lon="9.0306">
        <ele>693</ele>
        <time>2021-08-02T08:47:08.373Z</time>
      </trkpt>
      <trkpt lat="47.04915" lon="9.03059">
        <ele>692</ele>
        <time>2021-08-02T08:47:09.373Z</time>
      </trkpt>
      <trkpt lat="47.04914" lon="9.03057">
        <ele>691</ele>
        <time>2021-08-02T08:47:10.372Z</time>
      </trkpt>
      <trkpt lat="47.04914" lon="9.03055">
        <ele>690</ele>
        <time>2021-08-02T08:47:11.373Z</time>
      </trkpt>
      <trkpt lat="47.04914" lon="9.03053">
        <ele>688</ele>
        <time>2021-08-02T08:47:12.373Z</time>
      </trkpt>
      <trkpt lat="47.04913" lon="9.0305">
        <ele>683</ele>
        <time>2021-08-02T08:47:13.374Z</time>
      </trkpt>
      <trkpt lat="47.04913" lon="9.03049">
        <ele>677</ele>
        <time>2021-08-02T08:47:14.374Z</time>
      </trkpt>
      <trkpt lat="47.04913" lon="9.03048">
        <ele>677</ele>
        <time>2021-08-02T08:47:15.375Z</time>
      </trkpt>
      <trkpt lat="47.04913" lon="9.03047">
        <ele>676</ele>
        <time>2021-08-02T08:47:16.374Z</time>
      </trkpt>
      <trkpt lat="47.04914" lon="9.03045">
        <ele>676</ele>
        <time>2021-08-02T08:47:17.374Z</time>
      </trkpt>
      <trkpt lat="47.04912" lon="9.03045">
        <ele>676</ele>
        <time>2021-08-02T08:47:18.374Z</time>
      </trkpt>
      <trkpt lat="47.04911" lon="9.03045">
        <ele>675</ele>
        <time>2021-08-02T08:47:19.374Z</time>
      </trkpt>
      <trkpt lat="47.0491" lon="9.03048">
        <ele>670</ele>
        <time>2021-08-02T08:47:20.375Z</time>
      </trkpt>
      <trkpt lat="47.04911" lon="9.03048">
        <ele>670</ele>
        <time>2021-08-02T08:47:21.375Z</time>
      </trkpt>
      <trkpt lat="47.04911" lon="9.03049">
        <ele>662</ele>
        <time>2021-08-02T08:47:22.374Z</time>
      </trkpt>
      <trkpt lat="47.04911" lon="9.03049">
        <ele>662</ele>
        <time>2021-08-02T08:47:23.375Z</time>
      </trkpt>
      <trkpt lat="47.04911" lon="9.03049">
        <ele>662</ele>
        <time>2021-08-02T08:47:24.374Z</time>
      </trkpt>
      <trkpt lat="47.04911" lon="9.03049">
        <ele>661</ele>
        <time>2021-08-02T08:47:25.374Z</time>
      </trkpt>
      <trkpt lat="47.04911" lon="9.03048">
        <ele>660</ele>
        <time>2021-08-02T08:47:26.375Z</time>
      </trkpt>
      <trkpt lat="47.04911" lon="9.03048">
        <ele>660</ele>
        <time>2021-08-02T08:47:27.375Z</time>
      </trkpt>
      <trkpt lat="47.04912" lon="9.03047">
        <ele>660</ele>
        <time>2021-08-02T08:47:28.375Z</time>
      </trkpt>
      <trkpt lat="47.04912" lon="9.03046">
        <ele>660</ele>
        <time>2021-08-02T08:47:29.375Z</time>
      </trkpt>
      <trkpt lat="47.04911" lon="9.03042">
        <ele>658</ele>
        <time>2021-08-02T08:47:30.375Z</time>
      </trkpt>
      <trkpt lat="47.04911" lon="9.03041">
        <ele>658</ele>
        <time>2021-08-02T08:47:31.374Z</time>
      </trkpt>
      <trkpt lat="47.04911" lon="9.03041">
        <ele>658</ele>
        <time>2021-08-02T08:47:32.374Z</time>
      </trkpt>
      <trkpt lat="47.04911" lon="9.0304">
        <ele>657</ele>
        <time>2021-08-02T08:47:33.375Z</time>
      </trkpt>
      <trkpt lat="47.04911" lon="9.0304">
        <ele>657</ele>
        <time>2021-08-02T08:47:34.375Z</time>
      </trkpt>
      <trkpt lat="47.04911" lon="9.0304">
        <ele>657</ele>
        <time>2021-08-02T08:47:35.374Z</time>
      </trkpt>
      <trkpt lat="47.04912" lon="9.03042">
        <ele>658</ele>
        <time>2021-08-02T08:47:36.374Z</time>
      </trkpt>
      <trkpt lat="47.04913" lon="9.03044">
        <ele>659</ele>
        <time>2021-08-02T08:47:37.374Z</time>
      </trkpt>
      <trkpt lat="47.04914" lon="9.03043">
        <ele>659</ele>
        <time>2021-08-02T08:47:38.374Z</time>
      </trkpt>
      <trkpt lat="47.04914" lon="9.03042">
        <ele>659</ele>
        <time>2021-08-02T08:47:39.374Z</time>
      </trkpt>
      <trkpt lat="47.04913" lon="9.03041">
        <ele>660</ele>
        <time>2021-08-02T08:47:40.375Z</time>
      </trkpt>
      <trkpt lat="47.04913" lon="9.0304">
        <ele>660</ele>
        <time>2021-08-02T08:47:41.375Z</time>
      </trkpt>
      <trkpt lat="47.04913" lon="9.03034">
        <ele>654</ele>
        <time>2021-08-02T08:47:42.376Z</time>
      </trkpt>
      <trkpt lat="47.04913" lon="9.03034">
        <ele>654</ele>
        <time>2021-08-02T08:47:43.375Z</time>
      </trkpt>
      <trkpt lat="47.04913" lon="9.03035">
        <ele>653</ele>
        <time>2021-08-02T08:47:44.375Z</time>
      </trkpt>
      <trkpt lat="47.04914" lon="9.03035">
        <ele>653</ele>
        <time>2021-08-02T08:47:45.376Z</time>
      </trkpt>
      <trkpt lat="47.04915" lon="9.03035">
        <ele>653</ele>
        <time>2021-08-02T08:47:46.375Z</time>
      </trkpt>
      <trkpt lat="47.04915" lon="9.03035">
        <ele>653</ele>
        <time>2021-08-02T08:47:47.375Z</time>
      </trkpt>
      <trkpt lat="47.04916" lon="9.03034">
        <ele>653</ele>
        <time>2021-08-02T08:47:48.376Z</time>
      </trkpt>
      <trkpt lat="47.04915" lon="9.03035">
        <ele>653</ele>
        <time>2021-08-02T08:47:49.375Z</time>
      </trkpt>
      <trkpt lat="47.04915" lon="9.03036">
        <ele>653</ele>
        <time>2021-08-02T08:47:50.376Z</time>
      </trkpt>
      <trkpt lat="47.04914" lon="9.03036">
        <ele>653</ele>
        <time>2021-08-02T08:47:51.375Z</time>
      </trkpt>
      <trkpt lat="47.04913" lon="9.03037">
        <ele>653</ele>
        <time>2021-08-02T08:47:52.376Z</time>
      </trkpt>
      <trkpt lat="47.04913" lon="9.03036">
        <ele>652</ele>
        <time>2021-08-02T08:47:53.375Z</time>
      </trkpt>
      <trkpt lat="47.04913" lon="9.03036">
        <ele>652</ele>
        <time>2021-08-02T08:47:54.376Z</time>
      </trkpt>
      <trkpt lat="47.04912" lon="9.03036">
        <ele>651</ele>
        <time>2021-08-02T08:47:55.375Z</time>
      </trkpt>
      <trkpt lat="47.04914" lon="9.03034">
        <ele>647</ele>
        <time>2021-08-02T08:47:56.376Z</time>
      </trkpt>
      <trkpt lat="47.04915" lon="9.03033">
        <ele>640</ele>
        <time>2021-08-02T08:47:57.375Z</time>
      </trkpt>
      <trkpt lat="47.04916" lon="9.03035">
        <ele>636</ele>
        <time>2021-08-02T08:47:58.376Z</time>
      </trkpt>
      <trkpt lat="47.04916" lon="9.03035">
        <ele>636</ele>
        <time>2021-08-02T08:47:59.376Z</time>
      </trkpt>
      <trkpt lat="47.04916" lon="9.03035">
        <ele>636</ele>
        <time>2021-08-02T08:48:00.375Z</time>
      </trkpt>
      <trkpt lat="47.04916" lon="9.03037">
        <ele>636</ele>
        <time>2021-08-02T08:48:01.377Z</time>
      </trkpt>
      <trkpt lat="47.04916" lon="9.03038">
        <ele>636</ele>
        <time>2021-08-02T08:48:02.377Z</time>
      </trkpt>
      <trkpt lat="47.04916" lon="9.03038">
        <ele>637</ele>
        <time>2021-08-02T08:48:03.376Z</time>
      </trkpt>
      <trkpt lat="47.04916" lon="9.03037">
        <ele>637</ele>
        <time>2021-08-02T08:48:04.376Z</time>
      </trkpt>
      <trkpt lat="47.04916" lon="9.03037">
        <ele>638</ele>
        <time>2021-08-02T08:48:05.377Z</time>
      </trkpt>
      <trkpt lat="47.04914" lon="9.03034">
        <ele>649</ele>
        <time>2021-08-02T08:48:06.376Z</time>
      </trkpt>
      <trkpt lat="47.04913" lon="9.03033">
        <ele>650</ele>
        <time>2021-08-02T08:48:07.377Z</time>
      </trkpt>
      <trkpt lat="47.04912" lon="9.03033">
        <ele>652</ele>
        <time>2021-08-02T08:48:08.377Z</time>
      </trkpt>
      <trkpt lat="47.04913" lon="9.03036">
        <ele>659</ele>
        <time>2021-08-02T08:48:09.377Z</time>
      </trkpt>
      <trkpt lat="47.04913" lon="9.03037">
        <ele>660</ele>
        <time>2021-08-02T08:48:10.377Z</time>
      </trkpt>
      <trkpt lat="47.04913" lon="9.03037">
        <ele>661</ele>
        <time>2021-08-02T08:48:11.376Z</time>
      </trkpt>
      <trkpt lat="47.04918" lon="9.03043">
        <ele>671</ele>
        <time>2021-08-02T08:48:12.376Z</time>
      </trkpt>
      <trkpt lat="47.04915" lon="9.03041">
        <ele>670</ele>
        <time>2021-08-02T08:48:13.378Z</time>
      </trkpt>
      <trkpt lat="47.04915" lon="9.03041">
        <ele>670</ele>
        <time>2021-08-02T08:48:14.377Z</time>
      </trkpt>
      <trkpt lat="47.04915" lon="9.0304">
        <ele>670</ele>
        <time>2021-08-02T08:48:15.378Z</time>
      </trkpt>
      <trkpt lat="47.04915" lon="9.0304">
        <ele>670</ele>
        <time>2021-08-02T08:48:16.378Z</time>
      </trkpt>
      <trkpt lat="47.04915" lon="9.03039">
        <ele>670</ele>
        <time>2021-08-02T08:48:17.377Z</time>
      </trkpt>
      <trkpt lat="47.04915" lon="9.0304">
        <ele>665</ele>
        <time>2021-08-02T08:48:18.377Z</time>
      </trkpt>
      <trkpt lat="47.04914" lon="9.03039">
        <ele>664</ele>
        <time>2021-08-02T08:48:19.377Z</time>
      </trkpt>
      <trkpt lat="47.04913" lon="9.03039">
        <ele>663</ele>
        <time>2021-08-02T08:48:20.377Z</time>
      </trkpt>
      <trkpt lat="47.04912" lon="9.03039">
        <ele>662</ele>
        <time>2021-08-02T08:48:21.378Z</time>
      </trkpt>
      <trkpt lat="47.04912" lon="9.03037">
        <ele>661</ele>
        <time>2021-08-02T08:48:22.377Z</time>
      </trkpt>
      <trkpt lat="47.04912" lon="9.03036">
        <ele>661</ele>
        <time>2021-08-02T08:48:23.378Z</time>
      </trkpt>
      <trkpt lat="47.04911" lon="9.03035">
        <ele>660</ele>
        <time>2021-08-02T08:48:24.377Z</time>
      </trkpt>
      <trkpt lat="47.04909" lon="9.03037">
        <ele>660</ele>
        <time>2021-08-02T08:48:25.377Z</time>
      </trkpt>
      <trkpt lat="47.04909" lon="9.0304">
        <ele>660</ele>
        <time>2021-08-02T08:48:26.377Z</time>
      </trkpt>
      <trkpt lat="47.04908" lon="9.03042">
        <ele>660</ele>
        <time>2021-08-02T08:48:27.377Z</time>
      </trkpt>
      <trkpt lat="47.04908" lon="9.03042">
        <ele>659</ele>
        <time>2021-08-02T08:48:28.377Z</time>
      </trkpt>
      <trkpt lat="47.04908" lon="9.03042">
        <ele>658</ele>
        <time>2021-08-02T08:48:29.377Z</time>
      </trkpt>
      <trkpt lat="47.04908" lon="9.03042">
        <ele>658</ele>
        <time>2021-08-02T08:48:30.378Z</time>
      </trkpt>
      <trkpt lat="47.04908" lon="9.03042">
        <ele>658</ele>
        <time>2021-08-02T08:48:31.377Z</time>
      </trkpt>
      <trkpt lat="47.04907" lon="9.03039">
        <ele>657</ele>
        <time>2021-08-02T08:48:32.378Z</time>
      </trkpt>
      <trkpt lat="47.04907" lon="9.03038">
        <ele>657</ele>
        <time>2021-08-02T08:48:33.377Z</time>
      </trkpt>
      <trkpt lat="47.04907" lon="9.03037">
        <ele>657</ele>
        <time>2021-08-02T08:48:34.378Z</time>
      </trkpt>
      <trkpt lat="47.04907" lon="9.03037">
        <ele>657</ele>
        <time>2021-08-02T08:48:35.377Z</time>
      </trkpt>
      <trkpt lat="47.04903" lon="9.03037">
        <ele>658</ele>
        <time>2021-08-02T08:48:36.379Z</time>
      </trkpt>
      <trkpt lat="47.04902" lon="9.03037">
        <ele>658</ele>
        <time>2021-08-02T08:48:37.378Z</time>
      </trkpt>
      <trkpt lat="47.04901" lon="9.03037">
        <ele>658</ele>
        <time>2021-08-02T08:48:38.378Z</time>
      </trkpt>
      <trkpt lat="47.04901" lon="9.03036">
        <ele>657</ele>
        <time>2021-08-02T08:48:39.379Z</time>
      </trkpt>
      <trkpt lat="47.049" lon="9.03035">
        <ele>658</ele>
        <time>2021-08-02T08:48:40.378Z</time>
      </trkpt>
      <trkpt lat="47.04899" lon="9.03034">
        <ele>658</ele>
        <time>2021-08-02T08:48:41.378Z</time>
      </trkpt>
      <trkpt lat="47.04898" lon="9.03034">
        <ele>658</ele>
        <time>2021-08-02T08:48:42.379Z</time>
      </trkpt>
      <trkpt lat="47.04898" lon="9.03033">
        <ele>658</ele>
        <time>2021-08-02T08:48:43.379Z</time>
      </trkpt>
      <trkpt lat="47.04897" lon="9.03033">
        <ele>659</ele>
        <time>2021-08-02T08:48:44.379Z</time>
      </trkpt>
      <trkpt lat="47.04895" lon="9.03033">
        <ele>659</ele>
        <time>2021-08-02T08:48:45.379Z</time>
      </trkpt>
      <trkpt lat="47.04894" lon="9.03033">
        <ele>659</ele>
        <time>2021-08-02T08:48:46.379Z</time>
      </trkpt>
      <trkpt lat="47.04893" lon="9.03034">
        <ele>660</ele>
        <time>2021-08-02T08:48:47.379Z</time>
      </trkpt>
      <trkpt lat="47.04892" lon="9.03034">
        <ele>660</ele>
        <time>2021-08-02T08:48:48.379Z</time>
      </trkpt>
      <trkpt lat="47.04891" lon="9.03034">
        <ele>661</ele>
        <time>2021-08-02T08:48:49.378Z</time>
      </trkpt>
      <trkpt lat="47.0489" lon="9.03033">
        <ele>661</ele>
        <time>2021-08-02T08:48:50.379Z</time>
      </trkpt>
      <trkpt lat="47.04889" lon="9.03032">
        <ele>661</ele>
        <time>2021-08-02T08:48:51.379Z</time>
      </trkpt>
      <trkpt lat="47.04888" lon="9.03031">
        <ele>661</ele>
        <time>2021-08-02T08:48:52.379Z</time>
      </trkpt>
      <trkpt lat="47.04887" lon="9.0303">
        <ele>662</ele>
        <time>2021-08-02T08:48:53.379Z</time>
      </trkpt>
      <trkpt lat="47.04885" lon="9.03028">
        <ele>662</ele>
        <time>2021-08-02T08:48:54.379Z</time>
      </trkpt>
      <trkpt lat="47.04884" lon="9.03026">
        <ele>662</ele>
        <time>2021-08-02T08:48:55.379Z</time>
      </trkpt>
      <trkpt lat="47.04882" lon="9.03025">
        <ele>662</ele>
        <time>2021-08-02T08:48:56.378Z</time>
      </trkpt>
      <trkpt lat="47.04881" lon="9.03023">
        <ele>663</ele>
        <time>2021-08-02T08:48:57.379Z</time>
      </trkpt>
      <trkpt lat="47.04881" lon="9.0302">
        <ele>663</ele>
        <time>2021-08-02T08:48:58.378Z</time>
      </trkpt>
      <trkpt lat="47.0488" lon="9.03019">
        <ele>663</ele>
        <time>2021-08-02T08:48:59.378Z</time>
      </trkpt>
      <trkpt lat="47.04879" lon="9.03017">
        <ele>663</ele>
        <time>2021-08-02T08:49:00.378Z</time>
      </trkpt>
      <trkpt lat="47.04877" lon="9.03017">
        <ele>664</ele>
        <time>2021-08-02T08:49:01.378Z</time>
      </trkpt>
      <trkpt lat="47.04876" lon="9.03016">
        <ele>664</ele>
        <time>2021-08-02T08:49:02.378Z</time>
      </trkpt>
      <trkpt lat="47.04876" lon="9.03016">
        <ele>664</ele>
        <time>2021-08-02T08:49:03.379Z</time>
      </trkpt>
      <trkpt lat="47.04876" lon="9.03015">
        <ele>665</ele>
        <time>2021-08-02T08:49:04.378Z</time>
      </trkpt>
      <trkpt lat="47.04875" lon="9.03016">
        <ele>665</ele>
        <time>2021-08-02T08:49:05.379Z</time>
      </trkpt>
      <trkpt lat="47.04874" lon="9.03017">
        <ele>666</ele>
        <time>2021-08-02T08:49:06.379Z</time>
      </trkpt>
      <trkpt lat="47.04874" lon="9.03018">
        <ele>666</ele>
        <time>2021-08-02T08:49:07.378Z</time>
      </trkpt>
      <trkpt lat="47.04873" lon="9.03016">
        <ele>668</ele>
        <time>2021-08-02T08:49:08.379Z</time>
      </trkpt>
      <trkpt lat="47.04872" lon="9.03015">
        <ele>669</ele>
        <time>2021-08-02T08:49:09.379Z</time>
      </trkpt>
      <trkpt lat="47.04872" lon="9.03015">
        <ele>670</ele>
        <time>2021-08-02T08:49:10.378Z</time>
      </trkpt>
      <trkpt lat="47.04872" lon="9.03014">
        <ele>670</ele>
        <time>2021-08-02T08:49:11.379Z</time>
      </trkpt>
      <trkpt lat="47.04871" lon="9.03013">
        <ele>671</ele>
        <time>2021-08-02T08:49:12.378Z</time>
      </trkpt>
      <trkpt lat="47.04871" lon="9.03013">
        <ele>672</ele>
        <time>2021-08-02T08:49:13.378Z</time>
      </trkpt>
      <trkpt lat="47.04871" lon="9.03013">
        <ele>673</ele>
        <time>2021-08-02T08:49:14.378Z</time>
      </trkpt>
      <trkpt lat="47.0487" lon="9.03012">
        <ele>673</ele>
        <time>2021-08-02T08:49:15.379Z</time>
      </trkpt>
      <trkpt lat="47.0487" lon="9.03011">
        <ele>674</ele>
        <time>2021-08-02T08:49:16.379Z</time>
      </trkpt>
      <trkpt lat="47.0487" lon="9.0301">
        <ele>675</ele>
        <time>2021-08-02T08:49:17.378Z</time>
      </trkpt>
      <trkpt lat="47.0487" lon="9.0301">
        <ele>676</ele>
        <time>2021-08-02T08:49:18.379Z</time>
      </trkpt>
      <trkpt lat="47.0487" lon="9.03009">
        <ele>676</ele>
        <time>2021-08-02T08:49:19.379Z</time>
      </trkpt>
      <trkpt lat="47.0487" lon="9.03008">
        <ele>677</ele>
        <time>2021-08-02T08:49:20.379Z</time>
      </trkpt>
      <trkpt lat="47.0487" lon="9.03007">
        <ele>677</ele>
        <time>2021-08-02T08:49:21.379Z</time>
      </trkpt>
      <trkpt lat="47.0487" lon="9.03007">
        <ele>678</ele>
        <time>2021-08-02T08:49:22.378Z</time>
      </trkpt>
      <trkpt lat="47.04869" lon="9.03005">
        <ele>678</ele>
        <time>2021-08-02T08:49:23.379Z</time>
      </trkpt>
      <trkpt lat="47.04868" lon="9.03004">
        <ele>679</ele>
        <time>2021-08-02T08:49:24.379Z</time>
      </trkpt>
      <trkpt lat="47.04867" lon="9.03004">
        <ele>680</ele>
        <time>2021-08-02T08:49:25.379Z</time>
      </trkpt>
      <trkpt lat="47.04867" lon="9.03004">
        <ele>680</ele>
        <time>2021-08-02T08:49:26.378Z</time>
      </trkpt>
      <trkpt lat="47.04866" lon="9.03004">
        <ele>681</ele>
        <time>2021-08-02T08:49:27.379Z</time>
      </trkpt>
      <trkpt lat="47.04865" lon="9.03004">
        <ele>681</ele>
        <time>2021-08-02T08:49:28.379Z</time>
      </trkpt>
      <trkpt lat="47.04865" lon="9.03003">
        <ele>682</ele>
        <time>2021-08-02T08:49:29.379Z</time>
      </trkpt>
      <trkpt lat="47.04864" lon="9.03003">
        <ele>682</ele>
        <time>2021-08-02T08:49:30.379Z</time>
      </trkpt>
      <trkpt lat="47.04864" lon="9.03001">
        <ele>683</ele>
        <time>2021-08-02T08:49:31.379Z</time>
      </trkpt>
      <trkpt lat="47.04863" lon="9.03">
        <ele>683</ele>
        <time>2021-08-02T08:49:32.378Z</time>
      </trkpt>
      <trkpt lat="47.04863" lon="9.02999">
        <ele>683</ele>
        <time>2021-08-02T08:49:33.378Z</time>
      </trkpt>
      <trkpt lat="47.04863" lon="9.02998">
        <ele>683</ele>
        <time>2021-08-02T08:49:34.379Z</time>
      </trkpt>
      <trkpt lat="47.04863" lon="9.02997">
        <ele>684</ele>
        <time>2021-08-02T08:49:35.379Z</time>
      </trkpt>
      <trkpt lat="47.04864" lon="9.02996">
        <ele>684</ele>
        <time>2021-08-02T08:49:36.379Z</time>
      </trkpt>
      <trkpt lat="47.04864" lon="9.02995">
        <ele>684</ele>
        <time>2021-08-02T08:49:37.378Z</time>
      </trkpt>
      <trkpt lat="47.04864" lon="9.02993">
        <ele>684</ele>
        <time>2021-08-02T08:49:38.378Z</time>
      </trkpt>
      <trkpt lat="47.04863" lon="9.02993">
        <ele>684</ele>
        <time>2021-08-02T08:49:39.379Z</time>
      </trkpt>
      <trkpt lat="47.04863" lon="9.02992">
        <ele>684</ele>
        <time>2021-08-02T08:49:40.378Z</time>
      </trkpt>
      <trkpt lat="47.04862" lon="9.0299">
        <ele>684</ele>
        <time>2021-08-02T08:49:41.378Z</time>
      </trkpt>
      <trkpt lat="47.04862" lon="9.02988">
        <ele>684</ele>
        <time>2021-08-02T08:49:42.379Z</time>
      </trkpt>
      <trkpt lat="47.04861" lon="9.02987">
        <ele>684</ele>
        <time>2021-08-02T08:49:43.378Z</time>
      </trkpt>
      <trkpt lat="47.04861" lon="9.02986">
        <ele>684</ele>
        <time>2021-08-02T08:49:44.378Z</time>
      </trkpt>
      <trkpt lat="47.0486" lon="9.02984">
        <ele>683</ele>
        <time>2021-08-02T08:49:45.378Z</time>
      </trkpt>
      <trkpt lat="47.0486" lon="9.02983">
        <ele>683</ele>
        <time>2021-08-02T08:49:46.378Z</time>
      </trkpt>
      <trkpt lat="47.04859" lon="9.02981">
        <ele>683</ele>
        <time>2021-08-02T08:49:47.378Z</time>
      </trkpt>
      <trkpt lat="47.04859" lon="9.0298">
        <ele>683</ele>
        <time>2021-08-02T08:49:48.378Z</time>
      </trkpt>
      <trkpt lat="47.04858" lon="9.02977">
        <ele>683</ele>
        <time>2021-08-02T08:49:49.378Z</time>
      </trkpt>
      <trkpt lat="47.04858" lon="9.02976">
        <ele>683</ele>
        <time>2021-08-02T08:49:50.378Z</time>
      </trkpt>
      <trkpt lat="47.04858" lon="9.02975">
        <ele>683</ele>
        <time>2021-08-02T08:49:51.378Z</time>
      </trkpt>
      <trkpt lat="47.04857" lon="9.02974">
        <ele>683</ele>
        <time>2021-08-02T08:49:52.378Z</time>
      </trkpt>
      <trkpt lat="47.04857" lon="9.02974">
        <ele>683</ele>
        <time>2021-08-02T08:49:53.378Z</time>
      </trkpt>
      <trkpt lat="47.04857" lon="9.02971">
        <ele>684</ele>
        <time>2021-08-02T08:49:54.379Z</time>
      </trkpt>
      <trkpt lat="47.04857" lon="9.02969">
        <ele>685</ele>
        <time>2021-08-02T08:49:55.380Z</time>
      </trkpt>
      <trkpt lat="47.04856" lon="9.02968">
        <ele>685</ele>
        <time>2021-08-02T08:49:56.379Z</time>
      </trkpt>
      <trkpt lat="47.04856" lon="9.02966">
        <ele>685</ele>
        <time>2021-08-02T08:49:57.380Z</time>
      </trkpt>
      <trkpt lat="47.04856" lon="9.02964">
        <ele>686</ele>
        <time>2021-08-02T08:49:58.380Z</time>
      </trkpt>
      <trkpt lat="47.04856" lon="9.02962">
        <ele>686</ele>
        <time>2021-08-02T08:49:59.380Z</time>
      </trkpt>
      <trkpt lat="47.04855" lon="9.02961">
        <ele>687</ele>
        <time>2021-08-02T08:50:00.379Z</time>
      </trkpt>
      <trkpt lat="47.04854" lon="9.0296">
        <ele>687</ele>
        <time>2021-08-02T08:50:01.380Z</time>
      </trkpt>
      <trkpt lat="47.04853" lon="9.02959">
        <ele>687</ele>
        <time>2021-08-02T08:50:02.380Z</time>
      </trkpt>
      <trkpt lat="47.04853" lon="9.02957">
        <ele>687</ele>
        <time>2021-08-02T08:50:03.379Z</time>
      </trkpt>
      <trkpt lat="47.04853" lon="9.02955">
        <ele>688</ele>
        <time>2021-08-02T08:50:04.380Z</time>
      </trkpt>
      <trkpt lat="47.04853" lon="9.02954">
        <ele>688</ele>
        <time>2021-08-02T08:50:05.380Z</time>
      </trkpt>
      <trkpt lat="47.04852" lon="9.02952">
        <ele>688</ele>
        <time>2021-08-02T08:50:06.380Z</time>
      </trkpt>
      <trkpt lat="47.04851" lon="9.02951">
        <ele>688</ele>
        <time>2021-08-02T08:50:07.380Z</time>
      </trkpt>
      <trkpt lat="47.04851" lon="9.0295">
        <ele>688</ele>
        <time>2021-08-02T08:50:08.380Z</time>
      </trkpt>
      <trkpt lat="47.04851" lon="9.02949">
        <ele>687</ele>
        <time>2021-08-02T08:50:09.380Z</time>
      </trkpt>
      <trkpt lat="47.04851" lon="9.02947">
        <ele>687</ele>
        <time>2021-08-02T08:50:10.380Z</time>
      </trkpt>
      <trkpt lat="47.04851" lon="9.02945">
        <ele>687</ele>
        <time>2021-08-02T08:50:11.380Z</time>
      </trkpt>
      <trkpt lat="47.04851" lon="9.02943">
        <ele>687</ele>
        <time>2021-08-02T08:50:12.379Z</time>
      </trkpt>
      <trkpt lat="47.0485" lon="9.02941">
        <ele>687</ele>
        <time>2021-08-02T08:50:13.380Z</time>
      </trkpt>
      <trkpt lat="47.0485" lon="9.0294">
        <ele>687</ele>
        <time>2021-08-02T08:50:14.379Z</time>
      </trkpt>
      <trkpt lat="47.0485" lon="9.02939">
        <ele>687</ele>
        <time>2021-08-02T08:50:15.379Z</time>
      </trkpt>
      <trkpt lat="47.04849" lon="9.02938">
        <ele>687</ele>
        <time>2021-08-02T08:50:16.380Z</time>
      </trkpt>
      <trkpt lat="47.04849" lon="9.02937">
        <ele>687</ele>
        <time>2021-08-02T08:50:17.379Z</time>
      </trkpt>
      <trkpt lat="47.04848" lon="9.02936">
        <ele>687</ele>
        <time>2021-08-02T08:50:18.380Z</time>
      </trkpt>
      <trkpt lat="47.04847" lon="9.02934">
        <ele>687</ele>
        <time>2021-08-02T08:50:19.380Z</time>
      </trkpt>
      <trkpt lat="47.04845" lon="9.02932">
        <ele>687</ele>
        <time>2021-08-02T08:50:20.380Z</time>
      </trkpt>
      <trkpt lat="47.04844" lon="9.0293">
        <ele>687</ele>
        <time>2021-08-02T08:50:21.380Z</time>
      </trkpt>
      <trkpt lat="47.04843" lon="9.02928">
        <ele>687</ele>
        <time>2021-08-02T08:50:22.379Z</time>
      </trkpt>
      <trkpt lat="47.04842" lon="9.02926">
        <ele>688</ele>
        <time>2021-08-02T08:50:23.379Z</time>
      </trkpt>
      <trkpt lat="47.04842" lon="9.02925">
        <ele>688</ele>
        <time>2021-08-02T08:50:24.380Z</time>
      </trkpt>
      <trkpt lat="47.04841" lon="9.02923">
        <ele>688</ele>
        <time>2021-08-02T08:50:25.380Z</time>
      </trkpt>
      <trkpt lat="47.04841" lon="9.02922">
        <ele>688</ele>
        <time>2021-08-02T08:50:26.380Z</time>
      </trkpt>
      <trkpt lat="47.0484" lon="9.0292">
        <ele>688</ele>
        <time>2021-08-02T08:50:27.380Z</time>
      </trkpt>
      <trkpt lat="47.0484" lon="9.02919">
        <ele>688</ele>
        <time>2021-08-02T08:50:28.380Z</time>
      </trkpt>
      <trkpt lat="47.0484" lon="9.02917">
        <ele>688</ele>
        <time>2021-08-02T08:50:29.379Z</time>
      </trkpt>
      <trkpt lat="47.0484" lon="9.02916">
        <ele>688</ele>
        <time>2021-08-02T08:50:30.379Z</time>
      </trkpt>
      <trkpt lat="47.04839" lon="9.02915">
        <ele>688</ele>
        <time>2021-08-02T08:50:31.379Z</time>
      </trkpt>
      <trkpt lat="47.04839" lon="9.02914">
        <ele>688</ele>
        <time>2021-08-02T08:50:32.380Z</time>
      </trkpt>
      <trkpt lat="47.04838" lon="9.02912">
        <ele>688</ele>
        <time>2021-08-02T08:50:33.380Z</time>
      </trkpt>
      <trkpt lat="47.04838" lon="9.0291">
        <ele>688</ele>
        <time>2021-08-02T08:50:34.379Z</time>
      </trkpt>
      <trkpt lat="47.04838" lon="9.02908">
        <ele>688</ele>
        <time>2021-08-02T08:50:35.379Z</time>
      </trkpt>
      <trkpt lat="47.04838" lon="9.02906">
        <ele>688</ele>
        <time>2021-08-02T08:50:36.379Z</time>
      </trkpt>
      <trkpt lat="47.04837" lon="9.02904">
        <ele>688</ele>
        <time>2021-08-02T08:50:37.380Z</time>
      </trkpt>
      <trkpt lat="47.04837" lon="9.02902">
        <ele>688</ele>
        <time>2021-08-02T08:50:38.380Z</time>
      </trkpt>
      <trkpt lat="47.04836" lon="9.029">
        <ele>688</ele>
        <time>2021-08-02T08:50:39.380Z</time>
      </trkpt>
      <trkpt lat="47.04835" lon="9.02899">
        <ele>688</ele>
        <time>2021-08-02T08:50:40.380Z</time>
      </trkpt>
      <trkpt lat="47.04835" lon="9.02898">
        <ele>688</ele>
        <time>2021-08-02T08:50:41.380Z</time>
      </trkpt>
      <trkpt lat="47.04834" lon="9.02896">
        <ele>689</ele>
        <time>2021-08-02T08:50:42.380Z</time>
      </trkpt>
      <trkpt lat="47.04833" lon="9.02895">
        <ele>689</ele>
        <time>2021-08-02T08:50:43.380Z</time>
      </trkpt>
      <trkpt lat="47.04832" lon="9.02894">
        <ele>689</ele>
        <time>2021-08-02T08:50:44.379Z</time>
      </trkpt>
      <trkpt lat="47.04832" lon="9.02894">
        <ele>690</ele>
        <time>2021-08-02T08:50:45.380Z</time>
      </trkpt>
      <trkpt lat="47.04831" lon="9.02893">
        <ele>690</ele>
        <time>2021-08-02T08:50:46.379Z</time>
      </trkpt>
      <trkpt lat="47.0483" lon="9.02894">
        <ele>691</ele>
        <time>2021-08-02T08:50:47.380Z</time>
      </trkpt>
      <trkpt lat="47.0483" lon="9.02894">
        <ele>692</ele>
        <time>2021-08-02T08:50:48.379Z</time>
      </trkpt>
      <trkpt lat="47.04829" lon="9.02894">
        <ele>692</ele>
        <time>2021-08-02T08:50:49.380Z</time>
      </trkpt>
      <trkpt lat="47.04828" lon="9.02893">
        <ele>693</ele>
        <time>2021-08-02T08:50:50.379Z</time>
      </trkpt>
      <trkpt lat="47.04827" lon="9.02892">
        <ele>694</ele>
        <time>2021-08-02T08:50:51.380Z</time>
      </trkpt>
      <trkpt lat="47.04827" lon="9.0289">
        <ele>694</ele>
        <time>2021-08-02T08:50:52.379Z</time>
      </trkpt>
      <trkpt lat="47.04827" lon="9.02888">
        <ele>695</ele>
        <time>2021-08-02T08:50:53.380Z</time>
      </trkpt>
      <trkpt lat="47.04827" lon="9.02887">
        <ele>695</ele>
        <time>2021-08-02T08:50:54.379Z</time>
      </trkpt>
      <trkpt lat="47.04827" lon="9.02886">
        <ele>695</ele>
        <time>2021-08-02T08:50:55.380Z</time>
      </trkpt>
      <trkpt lat="47.04827" lon="9.02886">
        <ele>696</ele>
        <time>2021-08-02T08:50:56.380Z</time>
      </trkpt>
      <trkpt lat="47.04827" lon="9.02885">
        <ele>696</ele>
        <time>2021-08-02T08:50:57.380Z</time>
      </trkpt>
      <trkpt lat="47.04827" lon="9.02883">
        <ele>696</ele>
        <time>2021-08-02T08:50:58.380Z</time>
      </trkpt>
      <trkpt lat="47.04827" lon="9.02882">
        <ele>696</ele>
        <time>2021-08-02T08:50:59.380Z</time>
      </trkpt>
      <trkpt lat="47.04827" lon="9.02881">
        <ele>697</ele>
        <time>2021-08-02T08:51:00.379Z</time>
      </trkpt>
      <trkpt lat="47.04827" lon="9.0288">
        <ele>697</ele>
        <time>2021-08-02T08:51:01.380Z</time>
      </trkpt>
      <trkpt lat="47.04827" lon="9.02879">
        <ele>698</ele>
        <time>2021-08-02T08:51:02.380Z</time>
      </trkpt>
      <trkpt lat="47.04828" lon="9.02877">
        <ele>698</ele>
        <time>2021-08-02T08:51:03.380Z</time>
      </trkpt>
      <trkpt lat="47.04828" lon="9.02876">
        <ele>698</ele>
        <time>2021-08-02T08:51:04.380Z</time>
      </trkpt>
      <trkpt lat="47.04829" lon="9.02875">
        <ele>699</ele>
        <time>2021-08-02T08:51:05.380Z</time>
      </trkpt>
      <trkpt lat="47.0483" lon="9.02873">
        <ele>699</ele>
        <time>2021-08-02T08:51:06.380Z</time>
      </trkpt>
      <trkpt lat="47.0483" lon="9.02872">
        <ele>699</ele>
        <time>2021-08-02T08:51:07.380Z</time>
      </trkpt>
      <trkpt lat="47.04831" lon="9.0287">
        <ele>698</ele>
        <time>2021-08-02T08:51:08.379Z</time>
      </trkpt>
      <trkpt lat="47.04831" lon="9.02867">
        <ele>698</ele>
        <time>2021-08-02T08:51:09.379Z</time>
      </trkpt>
      <trkpt lat="47.04831" lon="9.02865">
        <ele>697</ele>
        <time>2021-08-02T08:51:10.380Z</time>
      </trkpt>
      <trkpt lat="47.0483" lon="9.02862">
        <ele>697</ele>
        <time>2021-08-02T08:51:11.380Z</time>
      </trkpt>
      <trkpt lat="47.04829" lon="9.02861">
        <ele>697</ele>
        <time>2021-08-02T08:51:12.379Z</time>
      </trkpt>
      <trkpt lat="47.04829" lon="9.0286">
        <ele>696</ele>
        <time>2021-08-02T08:51:13.380Z</time>
      </trkpt>
      <trkpt lat="47.04828" lon="9.0286">
        <ele>695</ele>
        <time>2021-08-02T08:51:14.379Z</time>
      </trkpt>
      <trkpt lat="47.04827" lon="9.02859">
        <ele>695</ele>
        <time>2021-08-02T08:51:15.380Z</time>
      </trkpt>
      <trkpt lat="47.04827" lon="9.02858">
        <ele>694</ele>
        <time>2021-08-02T08:51:16.380Z</time>
      </trkpt>
      <trkpt lat="47.04827" lon="9.02857">
        <ele>694</ele>
        <time>2021-08-02T08:51:17.380Z</time>
      </trkpt>
      <trkpt lat="47.04826" lon="9.02856">
        <ele>693</ele>
        <time>2021-08-02T08:51:18.379Z</time>
      </trkpt>
      <trkpt lat="47.04826" lon="9.02855">
        <ele>693</ele>
        <time>2021-08-02T08:51:19.380Z</time>
      </trkpt>
      <trkpt lat="47.04826" lon="9.02853">
        <ele>692</ele>
        <time>2021-08-02T08:51:20.379Z</time>
      </trkpt>
      <trkpt lat="47.04826" lon="9.02852">
        <ele>692</ele>
        <time>2021-08-02T08:51:21.380Z</time>
      </trkpt>
      <trkpt lat="47.04826" lon="9.02851">
        <ele>691</ele>
        <time>2021-08-02T08:51:22.380Z</time>
      </trkpt>
      <trkpt lat="47.04826" lon="9.02849">
        <ele>691</ele>
        <time>2021-08-02T08:51:23.379Z</time>
      </trkpt>
      <trkpt lat="47.04825" lon="9.02848">
        <ele>690</ele>
        <time>2021-08-02T08:51:24.380Z</time>
      </trkpt>
      <trkpt lat="47.04825" lon="9.02846">
        <ele>689</ele>
        <time>2021-08-02T08:51:25.380Z</time>
      </trkpt>
      <trkpt lat="47.04824" lon="9.02845">
        <ele>689</ele>
        <time>2021-08-02T08:51:26.380Z</time>
      </trkpt>
      <trkpt lat="47.04824" lon="9.02844">
        <ele>688</ele>
        <time>2021-08-02T08:51:27.379Z</time>
      </trkpt>
      <trkpt lat="47.04824" lon="9.02843">
        <ele>688</ele>
        <time>2021-08-02T08:51:28.380Z</time>
      </trkpt>
      <trkpt lat="47.04824" lon="9.02842">
        <ele>688</ele>
        <time>2021-08-02T08:51:29.379Z</time>
      </trkpt>
      <trkpt lat="47.04823" lon="9.0284">
        <ele>687</ele>
        <time>2021-08-02T08:51:30.380Z</time>
      </trkpt>
      <trkpt lat="47.04822" lon="9.02838">
        <ele>687</ele>
        <time>2021-08-02T08:51:31.379Z</time>
      </trkpt>
      <trkpt lat="47.04822" lon="9.02837">
        <ele>687</ele>
        <time>2021-08-02T08:51:32.380Z</time>
      </trkpt>
      <trkpt lat="47.04822" lon="9.02835">
        <ele>686</ele>
        <time>2021-08-02T08:51:33.380Z</time>
      </trkpt>
      <trkpt lat="47.04821" lon="9.02834">
        <ele>686</ele>
        <time>2021-08-02T08:51:34.379Z</time>
      </trkpt>
      <trkpt lat="47.04821" lon="9.02834">
        <ele>686</ele>
        <time>2021-08-02T08:51:35.380Z</time>
      </trkpt>
      <trkpt lat="47.0482" lon="9.02833">
        <ele>686</ele>
        <time>2021-08-02T08:51:36.380Z</time>
      </trkpt>
      <trkpt lat="47.0482" lon="9.02833">
        <ele>686</ele>
        <time>2021-08-02T08:51:37.380Z</time>
      </trkpt>
      <trkpt lat="47.0482" lon="9.02833">
        <ele>686</ele>
        <time>2021-08-02T08:51:38.380Z</time>
      </trkpt>
      <trkpt lat="47.0482" lon="9.02832">
        <ele>686</ele>
        <time>2021-08-02T08:51:39.380Z</time>
      </trkpt>
      <trkpt lat="47.04819" lon="9.02831">
        <ele>686</ele>
        <time>2021-08-02T08:51:40.379Z</time>
      </trkpt>
      <trkpt lat="47.04819" lon="9.02829">
        <ele>686</ele>
        <time>2021-08-02T08:51:41.380Z</time>
      </trkpt>
      <trkpt lat="47.04819" lon="9.02828">
        <ele>686</ele>
        <time>2021-08-02T08:51:42.379Z</time>
      </trkpt>
      <trkpt lat="47.0482" lon="9.02827">
        <ele>686</ele>
        <time>2021-08-02T08:51:43.379Z</time>
      </trkpt>
      <trkpt lat="47.04819" lon="9.02827">
        <ele>686</ele>
        <time>2021-08-02T08:51:44.380Z</time>
      </trkpt>
      <trkpt lat="47.04819" lon="9.02826">
        <ele>686</ele>
        <time>2021-08-02T08:51:45.380Z</time>
      </trkpt>
      <trkpt lat="47.04819" lon="9.02825">
        <ele>686</ele>
        <time>2021-08-02T08:51:46.380Z</time>
      </trkpt>
      <trkpt lat="47.04818" lon="9.02824">
        <ele>686</ele>
        <time>2021-08-02T08:51:47.380Z</time>
      </trkpt>
      <trkpt lat="47.04818" lon="9.02822">
        <ele>686</ele>
        <time>2021-08-02T08:51:48.380Z</time>
      </trkpt>
      <trkpt lat="47.04817" lon="9.02821">
        <ele>686</ele>
        <time>2021-08-02T08:51:49.380Z</time>
      </trkpt>
      <trkpt lat="47.04815" lon="9.0282">
        <ele>687</ele>
        <time>2021-08-02T08:51:50.380Z</time>
      </trkpt>
      <trkpt lat="47.04814" lon="9.0282">
        <ele>687</ele>
        <time>2021-08-02T08:51:51.380Z</time>
      </trkpt>
      <trkpt lat="47.04813" lon="9.02821">
        <ele>687</ele>
        <time>2021-08-02T08:51:52.379Z</time>
      </trkpt>
      <trkpt lat="47.04813" lon="9.02821">
        <ele>688</ele>
        <time>2021-08-02T08:51:53.379Z</time>
      </trkpt>
      <trkpt lat="47.04811" lon="9.0282">
        <ele>688</ele>
        <time>2021-08-02T08:51:54.380Z</time>
      </trkpt>
      <trkpt lat="47.0481" lon="9.02819">
        <ele>689</ele>
        <time>2021-08-02T08:51:55.380Z</time>
      </trkpt>
      <trkpt lat="47.04809" lon="9.02818">
        <ele>689</ele>
        <time>2021-08-02T08:51:56.380Z</time>
      </trkpt>
      <trkpt lat="47.04809" lon="9.02818">
        <ele>690</ele>
        <time>2021-08-02T08:51:57.380Z</time>
      </trkpt>
      <trkpt lat="47.04808" lon="9.02817">
        <ele>691</ele>
        <time>2021-08-02T08:51:58.380Z</time>
      </trkpt>
      <trkpt lat="47.04808" lon="9.02817">
        <ele>692</ele>
        <time>2021-08-02T08:51:59.380Z</time>
      </trkpt>
      <trkpt lat="47.04807" lon="9.02816">
        <ele>692</ele>
        <time>2021-08-02T08:52:00.380Z</time>
      </trkpt>
      <trkpt lat="47.04807" lon="9.02816">
        <ele>693</ele>
        <time>2021-08-02T08:52:01.380Z</time>
      </trkpt>
      <trkpt lat="47.04807" lon="9.02815">
        <ele>693</ele>
        <time>2021-08-02T08:52:02.379Z</time>
      </trkpt>
      <trkpt lat="47.04806" lon="9.02814">
        <ele>694</ele>
        <time>2021-08-02T08:52:03.380Z</time>
      </trkpt>
      <trkpt lat="47.04805" lon="9.02813">
        <ele>694</ele>
        <time>2021-08-02T08:52:04.380Z</time>
      </trkpt>
      <trkpt lat="47.04805" lon="9.02812">
        <ele>695</ele>
        <time>2021-08-02T08:52:05.380Z</time>
      </trkpt>
      <trkpt lat="47.04804" lon="9.02811">
        <ele>696</ele>
        <time>2021-08-02T08:52:06.380Z</time>
      </trkpt>
      <trkpt lat="47.04803" lon="9.0281">
        <ele>696</ele>
        <time>2021-08-02T08:52:07.379Z</time>
      </trkpt>
      <trkpt lat="47.04801" lon="9.02809">
        <ele>696</ele>
        <time>2021-08-02T08:52:08.379Z</time>
      </trkpt>
      <trkpt lat="47.048" lon="9.02809">
        <ele>697</ele>
        <time>2021-08-02T08:52:09.380Z</time>
      </trkpt>
      <trkpt lat="47.04799" lon="9.02809">
        <ele>697</ele>
        <time>2021-08-02T08:52:10.380Z</time>
      </trkpt>
      <trkpt lat="47.04798" lon="9.02807">
        <ele>699</ele>
        <time>2021-08-02T08:52:11.380Z</time>
      </trkpt>
      <trkpt lat="47.04798" lon="9.02807">
        <ele>700</ele>
        <time>2021-08-02T08:52:12.380Z</time>
      </trkpt>
      <trkpt lat="47.04797" lon="9.02808">
        <ele>700</ele>
        <time>2021-08-02T08:52:13.379Z</time>
      </trkpt>
      <trkpt lat="47.04796" lon="9.02808">
        <ele>701</ele>
        <time>2021-08-02T08:52:14.380Z</time>
      </trkpt>
      <trkpt lat="47.04796" lon="9.02809">
        <ele>702</ele>
        <time>2021-08-02T08:52:15.380Z</time>
      </trkpt>
      <trkpt lat="47.04796" lon="9.02809">
        <ele>703</ele>
        <time>2021-08-02T08:52:16.380Z</time>
      </trkpt>
      <trkpt lat="47.04795" lon="9.0281">
        <ele>703</ele>
        <time>2021-08-02T08:52:17.380Z</time>
      </trkpt>
      <trkpt lat="47.04795" lon="9.0281">
        <ele>703</ele>
        <time>2021-08-02T08:52:18.380Z</time>
      </trkpt>
      <trkpt lat="47.04794" lon="9.02809">
        <ele>703</ele>
        <time>2021-08-02T08:52:19.379Z</time>
      </trkpt>
      <trkpt lat="47.04793" lon="9.02808">
        <ele>702</ele>
        <time>2021-08-02T08:52:20.379Z</time>
      </trkpt>
      <trkpt lat="47.04793" lon="9.02808">
        <ele>702</ele>
        <time>2021-08-02T08:52:21.379Z</time>
      </trkpt>
      <trkpt lat="47.04793" lon="9.02807">
        <ele>702</ele>
        <time>2021-08-02T08:52:22.380Z</time>
      </trkpt>
      <trkpt lat="47.04793" lon="9.02806">
        <ele>701</ele>
        <time>2021-08-02T08:52:23.380Z</time>
      </trkpt>
      <trkpt lat="47.04792" lon="9.02805">
        <ele>701</ele>
        <time>2021-08-02T08:52:24.379Z</time>
      </trkpt>
      <trkpt lat="47.04791" lon="9.02804">
        <ele>701</ele>
        <time>2021-08-02T08:52:25.379Z</time>
      </trkpt>
      <trkpt lat="47.04791" lon="9.02804">
        <ele>701</ele>
        <time>2021-08-02T08:52:26.379Z</time>
      </trkpt>
      <trkpt lat="47.04791" lon="9.02804">
        <ele>701</ele>
        <time>2021-08-02T08:52:27.380Z</time>
      </trkpt>
      <trkpt lat="47.04791" lon="9.02803">
        <ele>701</ele>
        <time>2021-08-02T08:52:28.379Z</time>
      </trkpt>
      <trkpt lat="47.0479" lon="9.02802">
        <ele>701</ele>
        <time>2021-08-02T08:52:29.380Z</time>
      </trkpt>
      <trkpt lat="47.04789" lon="9.028">
        <ele>701</ele>
        <time>2021-08-02T08:52:30.380Z</time>
      </trkpt>
      <trkpt lat="47.04788" lon="9.02799">
        <ele>701</ele>
        <time>2021-08-02T08:52:31.380Z</time>
      </trkpt>
      <trkpt lat="47.04788" lon="9.02798">
        <ele>701</ele>
        <time>2021-08-02T08:52:32.380Z</time>
      </trkpt>
      <trkpt lat="47.04788" lon="9.02797">
        <ele>702</ele>
        <time>2021-08-02T08:52:33.380Z</time>
      </trkpt>
      <trkpt lat="47.04788" lon="9.02796">
        <ele>702</ele>
        <time>2021-08-02T08:52:34.380Z</time>
      </trkpt>
      <trkpt lat="47.04788" lon="9.02795">
        <ele>702</ele>
        <time>2021-08-02T08:52:35.380Z</time>
      </trkpt>
      <trkpt lat="47.04787" lon="9.02795">
        <ele>702</ele>
        <time>2021-08-02T08:52:36.380Z</time>
      </trkpt>
      <trkpt lat="47.04787" lon="9.02794">
        <ele>702</ele>
        <time>2021-08-02T08:52:37.380Z</time>
      </trkpt>
      <trkpt lat="47.04787" lon="9.02794">
        <ele>703</ele>
        <time>2021-08-02T08:52:38.380Z</time>
      </trkpt>
      <trkpt lat="47.04785" lon="9.02793">
        <ele>703</ele>
        <time>2021-08-02T08:52:39.380Z</time>
      </trkpt>
      <trkpt lat="47.04783" lon="9.02792">
        <ele>704</ele>
        <time>2021-08-02T08:52:40.380Z</time>
      </trkpt>
      <trkpt lat="47.04783" lon="9.02791">
        <ele>704</ele>
        <time>2021-08-02T08:52:41.379Z</time>
      </trkpt>
      <trkpt lat="47.04783" lon="9.02791">
        <ele>704</ele>
        <time>2021-08-02T08:52:42.379Z</time>
      </trkpt>
      <trkpt lat="47.04783" lon="9.02789">
        <ele>704</ele>
        <time>2021-08-02T08:52:43.380Z</time>
      </trkpt>
      <trkpt lat="47.04782" lon="9.02789">
        <ele>703</ele>
        <time>2021-08-02T08:52:44.380Z</time>
      </trkpt>
      <trkpt lat="47.04782" lon="9.02788">
        <ele>703</ele>
        <time>2021-08-02T08:52:45.379Z</time>
      </trkpt>
      <trkpt lat="47.04782" lon="9.02787">
        <ele>703</ele>
        <time>2021-08-02T08:52:46.380Z</time>
      </trkpt>
      <trkpt lat="47.04781" lon="9.02786">
        <ele>702</ele>
        <time>2021-08-02T08:52:47.380Z</time>
      </trkpt>
      <trkpt lat="47.04781" lon="9.02785">
        <ele>702</ele>
        <time>2021-08-02T08:52:48.380Z</time>
      </trkpt>
      <trkpt lat="47.0478" lon="9.02784">
        <ele>701</ele>
        <time>2021-08-02T08:52:49.380Z</time>
      </trkpt>
      <trkpt lat="47.0478" lon="9.02783">
        <ele>700</ele>
        <time>2021-08-02T08:52:50.380Z</time>
      </trkpt>
      <trkpt lat="47.0478" lon="9.02781">
        <ele>700</ele>
        <time>2021-08-02T08:52:51.380Z</time>
      </trkpt>
      <trkpt lat="47.0478" lon="9.0278">
        <ele>699</ele>
        <time>2021-08-02T08:52:52.380Z</time>
      </trkpt>
      <trkpt lat="47.04779" lon="9.02779">
        <ele>699</ele>
        <time>2021-08-02T08:52:53.380Z</time>
      </trkpt>
      <trkpt lat="47.04779" lon="9.02778">
        <ele>699</ele>
        <time>2021-08-02T08:52:54.380Z</time>
      </trkpt>
      <trkpt lat="47.04779" lon="9.02777">
        <ele>699</ele>
        <time>2021-08-02T08:52:55.380Z</time>
      </trkpt>
      <trkpt lat="47.04779" lon="9.02776">
        <ele>699</ele>
        <time>2021-08-02T08:52:56.380Z</time>
      </trkpt>
      <trkpt lat="47.04779" lon="9.02775">
        <ele>699</ele>
        <time>2021-08-02T08:52:57.380Z</time>
      </trkpt>
      <trkpt lat="47.04779" lon="9.02773">
        <ele>699</ele>
        <time>2021-08-02T08:52:58.379Z</time>
      </trkpt>
      <trkpt lat="47.04778" lon="9.02772">
        <ele>699</ele>
        <time>2021-08-02T08:52:59.379Z</time>
      </trkpt>
      <trkpt lat="47.04778" lon="9.02771">
        <ele>700</ele>
        <time>2021-08-02T08:53:00.380Z</time>
      </trkpt>
      <trkpt lat="47.04776" lon="9.02769">
        <ele>700</ele>
        <time>2021-08-02T08:53:01.380Z</time>
      </trkpt>
      <trkpt lat="47.04775" lon="9.02768">
        <ele>700</ele>
        <time>2021-08-02T08:53:02.380Z</time>
      </trkpt>
      <trkpt lat="47.04774" lon="9.02768">
        <ele>700</ele>
        <time>2021-08-02T08:53:03.380Z</time>
      </trkpt>
      <trkpt lat="47.04774" lon="9.02767">
        <ele>701</ele>
        <time>2021-08-02T08:53:04.380Z</time>
      </trkpt>
      <trkpt lat="47.04774" lon="9.02766">
        <ele>701</ele>
        <time>2021-08-02T08:53:05.380Z</time>
      </trkpt>
      <trkpt lat="47.04773" lon="9.02765">
        <ele>701</ele>
        <time>2021-08-02T08:53:06.380Z</time>
      </trkpt>
      <trkpt lat="47.04772" lon="9.02764">
        <ele>701</ele>
        <time>2021-08-02T08:53:07.380Z</time>
      </trkpt>
      <trkpt lat="47.04772" lon="9.02764">
        <ele>701</ele>
        <time>2021-08-02T08:53:08.379Z</time>
      </trkpt>
      <trkpt lat="47.04771" lon="9.02763">
        <ele>700</ele>
        <time>2021-08-02T08:53:09.380Z</time>
      </trkpt>
      <trkpt lat="47.0477" lon="9.02762">
        <ele>700</ele>
        <time>2021-08-02T08:53:10.380Z</time>
      </trkpt>
      <trkpt lat="47.0477" lon="9.02761">
        <ele>700</ele>
        <time>2021-08-02T08:53:11.379Z</time>
      </trkpt>
      <trkpt lat="47.04769" lon="9.0276">
        <ele>700</ele>
        <time>2021-08-02T08:53:12.380Z</time>
      </trkpt>
      <trkpt lat="47.04769" lon="9.0276">
        <ele>699</ele>
        <time>2021-08-02T08:53:13.380Z</time>
      </trkpt>
      <trkpt lat="47.04769" lon="9.02759">
        <ele>699</ele>
        <time>2021-08-02T08:53:14.380Z</time>
      </trkpt>
      <trkpt lat="47.04769" lon="9.02759">
        <ele>698</ele>
        <time>2021-08-02T08:53:15.380Z</time>
      </trkpt>
      <trkpt lat="47.0477" lon="9.02759">
        <ele>697</ele>
        <time>2021-08-02T08:53:16.380Z</time>
      </trkpt>
      <trkpt lat="47.0477" lon="9.02758">
        <ele>697</ele>
        <time>2021-08-02T08:53:17.380Z</time>
      </trkpt>
      <trkpt lat="47.0477" lon="9.02757">
        <ele>696</ele>
        <time>2021-08-02T08:53:18.380Z</time>
      </trkpt>
      <trkpt lat="47.0477" lon="9.02756">
        <ele>696</ele>
        <time>2021-08-02T08:53:19.380Z</time>
      </trkpt>
      <trkpt lat="47.04769" lon="9.02755">
        <ele>696</ele>
        <time>2021-08-02T08:53:20.380Z</time>
      </trkpt>
      <trkpt lat="47.0477" lon="9.02754">
        <ele>695</ele>
        <time>2021-08-02T08:53:21.380Z</time>
      </trkpt>
      <trkpt lat="47.0477" lon="9.02753">
        <ele>695</ele>
        <time>2021-08-02T08:53:22.380Z</time>
      </trkpt>
      <trkpt lat="47.0477" lon="9.02752">
        <ele>694</ele>
        <time>2021-08-02T08:53:23.380Z</time>
      </trkpt>
      <trkpt lat="47.04769" lon="9.02752">
        <ele>694</ele>
        <time>2021-08-02T08:53:24.380Z</time>
      </trkpt>
      <trkpt lat="47.04768" lon="9.02751">
        <ele>693</ele>
        <time>2021-08-02T08:53:25.380Z</time>
      </trkpt>
      <trkpt lat="47.04767" lon="9.02752">
        <ele>693</ele>
        <time>2021-08-02T08:53:26.379Z</time>
      </trkpt>
      <trkpt lat="47.04767" lon="9.0275">
        <ele>693</ele>
        <time>2021-08-02T08:53:27.380Z</time>
      </trkpt>
      <trkpt lat="47.04767" lon="9.02749">
        <ele>692</ele>
        <time>2021-08-02T08:53:28.380Z</time>
      </trkpt>
      <trkpt lat="47.04767" lon="9.02747">
        <ele>692</ele>
        <time>2021-08-02T08:53:29.379Z</time>
      </trkpt>
      <trkpt lat="47.04767" lon="9.02746">
        <ele>691</ele>
        <time>2021-08-02T08:53:30.379Z</time>
      </trkpt>
      <trkpt lat="47.04767" lon="9.02745">
        <ele>691</ele>
        <time>2021-08-02T08:53:31.380Z</time>
      </trkpt>
      <trkpt lat="47.04768" lon="9.02744">
        <ele>690</ele>
        <time>2021-08-02T08:53:32.379Z</time>
      </trkpt>
      <trkpt lat="47.04768" lon="9.02743">
        <ele>690</ele>
        <time>2021-08-02T08:53:33.380Z</time>
      </trkpt>
      <trkpt lat="47.04768" lon="9.02741">
        <ele>690</ele>
        <time>2021-08-02T08:53:34.379Z</time>
      </trkpt>
      <trkpt lat="47.04767" lon="9.02741">
        <ele>690</ele>
        <time>2021-08-02T08:53:35.379Z</time>
      </trkpt>
      <trkpt lat="47.04766" lon="9.02739">
        <ele>690</ele>
        <time>2021-08-02T08:53:36.380Z</time>
      </trkpt>
      <trkpt lat="47.04765" lon="9.02738">
        <ele>689</ele>
        <time>2021-08-02T08:53:37.380Z</time>
      </trkpt>
      <trkpt lat="47.04765" lon="9.02736">
        <ele>689</ele>
        <time>2021-08-02T08:53:38.380Z</time>
      </trkpt>
      <trkpt lat="47.04764" lon="9.02735">
        <ele>689</ele>
        <time>2021-08-02T08:53:39.380Z</time>
      </trkpt>
      <trkpt lat="47.04764" lon="9.02733">
        <ele>689</ele>
        <time>2021-08-02T08:53:40.379Z</time>
      </trkpt>
      <trkpt lat="47.04764" lon="9.02733">
        <ele>689</ele>
        <time>2021-08-02T08:53:41.379Z</time>
      </trkpt>
      <trkpt lat="47.04765" lon="9.02732">
        <ele>689</ele>
        <time>2021-08-02T08:53:42.380Z</time>
      </trkpt>
      <trkpt lat="47.04764" lon="9.02731">
        <ele>689</ele>
        <time>2021-08-02T08:53:43.380Z</time>
      </trkpt>
      <trkpt lat="47.04764" lon="9.0273">
        <ele>689</ele>
        <time>2021-08-02T08:53:44.380Z</time>
      </trkpt>
      <trkpt lat="47.04764" lon="9.0273">
        <ele>689</ele>
        <time>2021-08-02T08:53:45.379Z</time>
      </trkpt>
      <trkpt lat="47.04763" lon="9.02729">
        <ele>689</ele>
        <time>2021-08-02T08:53:46.380Z</time>
      </trkpt>
      <trkpt lat="47.04763" lon="9.02728">
        <ele>689</ele>
        <time>2021-08-02T08:53:47.380Z</time>
      </trkpt>
      <trkpt lat="47.04762" lon="9.02726">
        <ele>690</ele>
        <time>2021-08-02T08:53:48.380Z</time>
      </trkpt>
      <trkpt lat="47.04762" lon="9.02725">
        <ele>690</ele>
        <time>2021-08-02T08:53:49.380Z</time>
      </trkpt>
      <trkpt lat="47.04762" lon="9.02723">
        <ele>690</ele>
        <time>2021-08-02T08:53:50.380Z</time>
      </trkpt>
      <trkpt lat="47.04761" lon="9.02722">
        <ele>690</ele>
        <time>2021-08-02T08:53:51.380Z</time>
      </trkpt>
      <trkpt lat="47.0476" lon="9.02721">
        <ele>690</ele>
        <time>2021-08-02T08:53:52.380Z</time>
      </trkpt>
      <trkpt lat="47.0476" lon="9.02719">
        <ele>690</ele>
        <time>2021-08-02T08:53:53.380Z</time>
      </trkpt>
      <trkpt lat="47.04759" lon="9.02718">
        <ele>690</ele>
        <time>2021-08-02T08:53:54.380Z</time>
      </trkpt>
      <trkpt lat="47.04758" lon="9.02716">
        <ele>690</ele>
        <time>2021-08-02T08:53:55.380Z</time>
      </trkpt>
      <trkpt lat="47.04757" lon="9.02714">
        <ele>690</ele>
        <time>2021-08-02T08:53:56.380Z</time>
      </trkpt>
      <trkpt lat="47.04756" lon="9.02712">
        <ele>690</ele>
        <time>2021-08-02T08:53:57.380Z</time>
      </trkpt>
      <trkpt lat="47.04755" lon="9.02709">
        <ele>691</ele>
        <time>2021-08-02T08:53:58.379Z</time>
      </trkpt>
      <trkpt lat="47.04754" lon="9.02707">
        <ele>691</ele>
        <time>2021-08-02T08:53:59.379Z</time>
      </trkpt>
      <trkpt lat="47.04754" lon="9.02706">
        <ele>691</ele>
        <time>2021-08-02T08:54:00.380Z</time>
      </trkpt>
      <trkpt lat="47.04753" lon="9.02705">
        <ele>691</ele>
        <time>2021-08-02T08:54:01.380Z</time>
      </trkpt>
      <trkpt lat="47.04752" lon="9.02704">
        <ele>691</ele>
        <time>2021-08-02T08:54:02.380Z</time>
      </trkpt>
      <trkpt lat="47.04751" lon="9.02702">
        <ele>691</ele>
        <time>2021-08-02T08:54:03.380Z</time>
      </trkpt>
      <trkpt lat="47.0475" lon="9.02702">
        <ele>691</ele>
        <time>2021-08-02T08:54:04.380Z</time>
      </trkpt>
      <trkpt lat="47.04749" lon="9.02702">
        <ele>691</ele>
        <time>2021-08-02T08:54:05.380Z</time>
      </trkpt>
      <trkpt lat="47.04749" lon="9.02701">
        <ele>691</ele>
        <time>2021-08-02T08:54:06.380Z</time>
      </trkpt>
      <trkpt lat="47.04748" lon="9.02699">
        <ele>691</ele>
        <time>2021-08-02T08:54:07.380Z</time>
      </trkpt>
      <trkpt lat="47.04747" lon="9.02698">
        <ele>691</ele>
        <time>2021-08-02T08:54:08.380Z</time>
      </trkpt>
      <trkpt lat="47.04747" lon="9.02697">
        <ele>692</ele>
        <time>2021-08-02T08:54:09.380Z</time>
      </trkpt>
      <trkpt lat="47.04747" lon="9.02694">
        <ele>692</ele>
        <time>2021-08-02T08:54:10.380Z</time>
      </trkpt>
      <trkpt lat="47.04747" lon="9.02691">
        <ele>692</ele>
        <time>2021-08-02T08:54:11.380Z</time>
      </trkpt>
      <trkpt lat="47.04747" lon="9.02689">
        <ele>693</ele>
        <time>2021-08-02T08:54:12.379Z</time>
      </trkpt>
      <trkpt lat="47.04747" lon="9.02686">
        <ele>693</ele>
        <time>2021-08-02T08:54:13.379Z</time>
      </trkpt>
      <trkpt lat="47.04746" lon="9.02684">
        <ele>693</ele>
        <time>2021-08-02T08:54:14.380Z</time>
      </trkpt>
      <trkpt lat="47.04746" lon="9.02682">
        <ele>694</ele>
        <time>2021-08-02T08:54:15.380Z</time>
      </trkpt>
      <trkpt lat="47.04745" lon="9.0268">
        <ele>694</ele>
        <time>2021-08-02T08:54:16.379Z</time>
      </trkpt>
      <trkpt lat="47.04744" lon="9.02679">
        <ele>695</ele>
        <time>2021-08-02T08:54:17.380Z</time>
      </trkpt>
      <trkpt lat="47.04745" lon="9.02678">
        <ele>695</ele>
        <time>2021-08-02T08:54:18.380Z</time>
      </trkpt>
      <trkpt lat="47.04745" lon="9.02677">
        <ele>695</ele>
        <time>2021-08-02T08:54:19.380Z</time>
      </trkpt>
      <trkpt lat="47.04745" lon="9.02676">
        <ele>696</ele>
        <time>2021-08-02T08:54:20.380Z</time>
      </trkpt>
      <trkpt lat="47.04745" lon="9.02674">
        <ele>697</ele>
        <time>2021-08-02T08:54:21.379Z</time>
      </trkpt>
      <trkpt lat="47.04744" lon="9.02673">
        <ele>697</ele>
        <time>2021-08-02T08:54:22.379Z</time>
      </trkpt>
      <trkpt lat="47.04744" lon="9.02673">
        <ele>698</ele>
        <time>2021-08-02T08:54:23.380Z</time>
      </trkpt>
      <trkpt lat="47.04743" lon="9.02672">
        <ele>698</ele>
        <time>2021-08-02T08:54:24.379Z</time>
      </trkpt>
      <trkpt lat="47.04742" lon="9.02671">
        <ele>699</ele>
        <time>2021-08-02T08:54:25.380Z</time>
      </trkpt>
      <trkpt lat="47.0474" lon="9.0267">
        <ele>699</ele>
        <time>2021-08-02T08:54:26.380Z</time>
      </trkpt>
      <trkpt lat="47.0474" lon="9.0267">
        <ele>700</ele>
        <time>2021-08-02T08:54:27.380Z</time>
      </trkpt>
      <trkpt lat="47.04739" lon="9.0267">
        <ele>701</ele>
        <time>2021-08-02T08:54:28.380Z</time>
      </trkpt>
      <trkpt lat="47.04739" lon="9.02669">
        <ele>702</ele>
        <time>2021-08-02T08:54:29.379Z</time>
      </trkpt>
      <trkpt lat="47.04739" lon="9.02668">
        <ele>703</ele>
        <time>2021-08-02T08:54:30.379Z</time>
      </trkpt>
      <trkpt lat="47.04738" lon="9.02666">
        <ele>704</ele>
        <time>2021-08-02T08:54:31.380Z</time>
      </trkpt>
      <trkpt lat="47.04736" lon="9.02666">
        <ele>705</ele>
        <time>2021-08-02T08:54:32.380Z</time>
      </trkpt>
      <trkpt lat="47.04735" lon="9.02665">
        <ele>706</ele>
        <time>2021-08-02T08:54:33.380Z</time>
      </trkpt>
      <trkpt lat="47.04735" lon="9.02664">
        <ele>706</ele>
        <time>2021-08-02T08:54:34.379Z</time>
      </trkpt>
      <trkpt lat="47.04734" lon="9.02663">
        <ele>707</ele>
        <time>2021-08-02T08:54:35.380Z</time>
      </trkpt>
      <trkpt lat="47.04733" lon="9.02661">
        <ele>708</ele>
        <time>2021-08-02T08:54:36.380Z</time>
      </trkpt>
      <trkpt lat="47.04732" lon="9.02659">
        <ele>709</ele>
        <time>2021-08-02T08:54:37.379Z</time>
      </trkpt>
      <trkpt lat="47.04731" lon="9.02657">
        <ele>709</ele>
        <time>2021-08-02T08:54:38.380Z</time>
      </trkpt>
      <trkpt lat="47.0473" lon="9.02655">
        <ele>710</ele>
        <time>2021-08-02T08:54:39.380Z</time>
      </trkpt>
      <trkpt lat="47.04729" lon="9.02654">
        <ele>710</ele>
        <time>2021-08-02T08:54:40.380Z</time>
      </trkpt>
      <trkpt lat="47.04728" lon="9.02655">
        <ele>711</ele>
        <time>2021-08-02T08:54:41.380Z</time>
      </trkpt>
      <trkpt lat="47.04727" lon="9.02656">
        <ele>712</ele>
        <time>2021-08-02T08:54:42.380Z</time>
      </trkpt>
      <trkpt lat="47.04727" lon="9.02654">
        <ele>713</ele>
        <time>2021-08-02T08:54:43.379Z</time>
      </trkpt>
      <trkpt lat="47.04725" lon="9.02653">
        <ele>713</ele>
        <time>2021-08-02T08:54:44.380Z</time>
      </trkpt>
      <trkpt lat="47.04724" lon="9.02651">
        <ele>714</ele>
        <time>2021-08-02T08:54:45.380Z</time>
      </trkpt>
      <trkpt lat="47.04723" lon="9.0265">
        <ele>714</ele>
        <time>2021-08-02T08:54:46.380Z</time>
      </trkpt>
      <trkpt lat="47.04723" lon="9.02648">
        <ele>715</ele>
        <time>2021-08-02T08:54:47.380Z</time>
      </trkpt>
      <trkpt lat="47.04722" lon="9.02647">
        <ele>716</ele>
        <time>2021-08-02T08:54:48.380Z</time>
      </trkpt>
      <trkpt lat="47.04722" lon="9.02645">
        <ele>716</ele>
        <time>2021-08-02T08:54:49.379Z</time>
      </trkpt>
      <trkpt lat="47.04722" lon="9.02644">
        <ele>717</ele>
        <time>2021-08-02T08:54:50.379Z</time>
      </trkpt>
      <trkpt lat="47.04721" lon="9.02643">
        <ele>717</ele>
        <time>2021-08-02T08:54:51.380Z</time>
      </trkpt>
      <trkpt lat="47.0472" lon="9.02643">
        <ele>717</ele>
        <time>2021-08-02T08:54:52.379Z</time>
      </trkpt>
      <trkpt lat="47.04719" lon="9.02642">
        <ele>718</ele>
        <time>2021-08-02T08:54:53.379Z</time>
      </trkpt>
      <trkpt lat="47.04718" lon="9.02641">
        <ele>718</ele>
        <time>2021-08-02T08:54:54.380Z</time>
      </trkpt>
      <trkpt lat="47.04717" lon="9.0264">
        <ele>718</ele>
        <time>2021-08-02T08:54:55.379Z</time>
      </trkpt>
      <trkpt lat="47.04716" lon="9.02639">
        <ele>719</ele>
        <time>2021-08-02T08:54:56.379Z</time>
      </trkpt>
      <trkpt lat="47.04716" lon="9.02639">
        <ele>719</ele>
        <time>2021-08-02T08:54:57.380Z</time>
      </trkpt>
      <trkpt lat="47.04716" lon="9.02638">
        <ele>719</ele>
        <time>2021-08-02T08:54:58.379Z</time>
      </trkpt>
      <trkpt lat="47.04716" lon="9.02637">
        <ele>720</ele>
        <time>2021-08-02T08:54:59.380Z</time>
      </trkpt>
      <trkpt lat="47.04716" lon="9.02636">
        <ele>720</ele>
        <time>2021-08-02T08:55:00.380Z</time>
      </trkpt>
      <trkpt lat="47.04715" lon="9.02635">
        <ele>720</ele>
        <time>2021-08-02T08:55:01.380Z</time>
      </trkpt>
      <trkpt lat="47.04714" lon="9.02634">
        <ele>720</ele>
        <time>2021-08-02T08:55:02.379Z</time>
      </trkpt>
      <trkpt lat="47.04714" lon="9.02633">
        <ele>720</ele>
        <time>2021-08-02T08:55:03.380Z</time>
      </trkpt>
      <trkpt lat="47.04713" lon="9.02631">
        <ele>720</ele>
        <time>2021-08-02T08:55:04.379Z</time>
      </trkpt>
      <trkpt lat="47.04713" lon="9.0263">
        <ele>720</ele>
        <time>2021-08-02T08:55:05.380Z</time>
      </trkpt>
      <trkpt lat="47.04713" lon="9.02631">
        <ele>720</ele>
        <time>2021-08-02T08:55:06.379Z</time>
      </trkpt>
      <trkpt lat="47.04712" lon="9.02631">
        <ele>721</ele>
        <time>2021-08-02T08:55:07.380Z</time>
      </trkpt>
      <trkpt lat="47.04712" lon="9.02629">
        <ele>720</ele>
        <time>2021-08-02T08:55:08.379Z</time>
      </trkpt>
      <trkpt lat="47.04711" lon="9.02628">
        <ele>720</ele>
        <time>2021-08-02T08:55:09.380Z</time>
      </trkpt>
      <trkpt lat="47.04711" lon="9.02628">
        <ele>720</ele>
        <time>2021-08-02T08:55:10.380Z</time>
      </trkpt>
      <trkpt lat="47.0471" lon="9.02626">
        <ele>720</ele>
        <time>2021-08-02T08:55:11.379Z</time>
      </trkpt>
      <trkpt lat="47.0471" lon="9.02625">
        <ele>719</ele>
        <time>2021-08-02T08:55:12.380Z</time>
      </trkpt>
      <trkpt lat="47.0471" lon="9.02624">
        <ele>718</ele>
        <time>2021-08-02T08:55:13.380Z</time>
      </trkpt>
      <trkpt lat="47.04711" lon="9.02622">
        <ele>718</ele>
        <time>2021-08-02T08:55:14.380Z</time>
      </trkpt>
      <trkpt lat="47.04711" lon="9.02621">
        <ele>717</ele>
        <time>2021-08-02T08:55:15.380Z</time>
      </trkpt>
      <trkpt lat="47.04711" lon="9.02619">
        <ele>716</ele>
        <time>2021-08-02T08:55:16.380Z</time>
      </trkpt>
      <trkpt lat="47.04711" lon="9.02617">
        <ele>715</ele>
        <time>2021-08-02T08:55:17.379Z</time>
      </trkpt>
      <trkpt lat="47.0471" lon="9.02616">
        <ele>714</ele>
        <time>2021-08-02T08:55:18.379Z</time>
      </trkpt>
      <trkpt lat="47.0471" lon="9.02614">
        <ele>713</ele>
        <time>2021-08-02T08:55:19.380Z</time>
      </trkpt>
      <trkpt lat="47.0471" lon="9.02612">
        <ele>713</ele>
        <time>2021-08-02T08:55:20.380Z</time>
      </trkpt>
      <trkpt lat="47.04709" lon="9.02611">
        <ele>712</ele>
        <time>2021-08-02T08:55:21.380Z</time>
      </trkpt>
      <trkpt lat="47.04709" lon="9.0261">
        <ele>711</ele>
        <time>2021-08-02T08:55:22.380Z</time>
      </trkpt>
      <trkpt lat="47.04708" lon="9.02609">
        <ele>710</ele>
        <time>2021-08-02T08:55:23.380Z</time>
      </trkpt>
      <trkpt lat="47.04707" lon="9.02607">
        <ele>708</ele>
        <time>2021-08-02T08:55:24.380Z</time>
      </trkpt>
      <trkpt lat="47.04707" lon="9.02606">
        <ele>706</ele>
        <time>2021-08-02T08:55:25.379Z</time>
      </trkpt>
      <trkpt lat="47.04707" lon="9.02605">
        <ele>705</ele>
        <time>2021-08-02T08:55:26.380Z</time>
      </trkpt>
      <trkpt lat="47.04706" lon="9.02603">
        <ele>703</ele>
        <time>2021-08-02T08:55:27.380Z</time>
      </trkpt>
      <trkpt lat="47.04706" lon="9.02602">
        <ele>701</ele>
        <time>2021-08-02T08:55:28.380Z</time>
      </trkpt>
      <trkpt lat="47.04705" lon="9.026">
        <ele>700</ele>
        <time>2021-08-02T08:55:29.380Z</time>
      </trkpt>
      <trkpt lat="47.04704" lon="9.02599">
        <ele>699</ele>
        <time>2021-08-02T08:55:30.379Z</time>
      </trkpt>
      <trkpt lat="47.04703" lon="9.02599">
        <ele>698</ele>
        <time>2021-08-02T08:55:31.380Z</time>
      </trkpt>
      <trkpt lat="47.04702" lon="9.02598">
        <ele>697</ele>
        <time>2021-08-02T08:55:32.380Z</time>
      </trkpt>
      <trkpt lat="47.04702" lon="9.02596">
        <ele>696</ele>
        <time>2021-08-02T08:55:33.379Z</time>
      </trkpt>
      <trkpt lat="47.04701" lon="9.02595">
        <ele>696</ele>
        <time>2021-08-02T08:55:34.380Z</time>
      </trkpt>
      <trkpt lat="47.047" lon="9.02593">
        <ele>695</ele>
        <time>2021-08-02T08:55:35.379Z</time>
      </trkpt>
      <trkpt lat="47.04698" lon="9.02591">
        <ele>695</ele>
        <time>2021-08-02T08:55:36.380Z</time>
      </trkpt>
      <trkpt lat="47.04697" lon="9.0259">
        <ele>694</ele>
        <time>2021-08-02T08:55:37.379Z</time>
      </trkpt>
      <trkpt lat="47.04696" lon="9.02588">
        <ele>694</ele>
        <time>2021-08-02T08:55:38.379Z</time>
      </trkpt>
      <trkpt lat="47.04695" lon="9.02587">
        <ele>694</ele>
        <time>2021-08-02T08:55:39.380Z</time>
      </trkpt>
      <trkpt lat="47.04695" lon="9.02586">
        <ele>694</ele>
        <time>2021-08-02T08:55:40.380Z</time>
      </trkpt>
      <trkpt lat="47.04695" lon="9.02584">
        <ele>694</ele>
        <time>2021-08-02T08:55:41.380Z</time>
      </trkpt>
      <trkpt lat="47.04695" lon="9.02583">
        <ele>693</ele>
        <time>2021-08-02T08:55:42.380Z</time>
      </trkpt>
      <trkpt lat="47.04694" lon="9.02581">
        <ele>693</ele>
        <time>2021-08-02T08:55:43.379Z</time>
      </trkpt>
      <trkpt lat="47.04694" lon="9.0258">
        <ele>692</ele>
        <time>2021-08-02T08:55:44.379Z</time>
      </trkpt>
      <trkpt lat="47.04694" lon="9.02578">
        <ele>691</ele>
        <time>2021-08-02T08:55:45.379Z</time>
      </trkpt>
      <trkpt lat="47.04693" lon="9.02577">
        <ele>690</ele>
        <time>2021-08-02T08:55:46.380Z</time>
      </trkpt>
      <trkpt lat="47.04693" lon="9.02576">
        <ele>689</ele>
        <time>2021-08-02T08:55:47.379Z</time>
      </trkpt>
      <trkpt lat="47.04693" lon="9.02575">
        <ele>688</ele>
        <time>2021-08-02T08:55:48.380Z</time>
      </trkpt>
      <trkpt lat="47.04692" lon="9.02573">
        <ele>687</ele>
        <time>2021-08-02T08:55:49.380Z</time>
      </trkpt>
      <trkpt lat="47.04692" lon="9.02572">
        <ele>686</ele>
        <time>2021-08-02T08:55:50.379Z</time>
      </trkpt>
      <trkpt lat="47.04691" lon="9.0257">
        <ele>686</ele>
        <time>2021-08-02T08:55:51.380Z</time>
      </trkpt>
      <trkpt lat="47.0469" lon="9.02568">
        <ele>686</ele>
        <time>2021-08-02T08:55:52.380Z</time>
      </trkpt>
      <trkpt lat="47.04689" lon="9.02565">
        <ele>686</ele>
        <time>2021-08-02T08:55:53.379Z</time>
      </trkpt>
      <trkpt lat="47.04689" lon="9.02563">
        <ele>686</ele>
        <time>2021-08-02T08:55:54.380Z</time>
      </trkpt>
      <trkpt lat="47.04689" lon="9.02562">
        <ele>686</ele>
        <time>2021-08-02T08:55:55.380Z</time>
      </trkpt>
      <trkpt lat="47.04689" lon="9.0256">
        <ele>686</ele>
        <time>2021-08-02T08:55:56.380Z</time>
      </trkpt>
      <trkpt lat="47.04689" lon="9.02558">
        <ele>687</ele>
        <time>2021-08-02T08:55:57.380Z</time>
      </trkpt>
      <trkpt lat="47.04688" lon="9.02556">
        <ele>687</ele>
        <time>2021-08-02T08:55:58.379Z</time>
      </trkpt>
      <trkpt lat="47.04688" lon="9.02555">
        <ele>687</ele>
        <time>2021-08-02T08:55:59.380Z</time>
      </trkpt>
      <trkpt lat="47.04688" lon="9.02553">
        <ele>687</ele>
        <time>2021-08-02T08:56:00.380Z</time>
      </trkpt>
      <trkpt lat="47.04688" lon="9.02551">
        <ele>688</ele>
        <time>2021-08-02T08:56:01.380Z</time>
      </trkpt>
      <trkpt lat="47.04688" lon="9.0255">
        <ele>688</ele>
        <time>2021-08-02T08:56:02.380Z</time>
      </trkpt>
      <trkpt lat="47.04688" lon="9.02549">
        <ele>689</ele>
        <time>2021-08-02T08:56:03.380Z</time>
      </trkpt>
      <trkpt lat="47.04687" lon="9.02547">
        <ele>689</ele>
        <time>2021-08-02T08:56:04.379Z</time>
      </trkpt>
      <trkpt lat="47.04687" lon="9.02546">
        <ele>690</ele>
        <time>2021-08-02T08:56:05.380Z</time>
      </trkpt>
      <trkpt lat="47.04687" lon="9.02544">
        <ele>690</ele>
        <time>2021-08-02T08:56:06.380Z</time>
      </trkpt>
      <trkpt lat="47.04687" lon="9.02542">
        <ele>690</ele>
        <time>2021-08-02T08:56:07.380Z</time>
      </trkpt>
      <trkpt lat="47.04686" lon="9.0254">
        <ele>690</ele>
        <time>2021-08-02T08:56:08.380Z</time>
      </trkpt>
      <trkpt lat="47.04686" lon="9.02539">
        <ele>691</ele>
        <time>2021-08-02T08:56:09.380Z</time>
      </trkpt>
      <trkpt lat="47.04686" lon="9.02537">
        <ele>691</ele>
        <time>2021-08-02T08:56:10.380Z</time>
      </trkpt>
      <trkpt lat="47.04686" lon="9.02536">
        <ele>691</ele>
        <time>2021-08-02T08:56:11.380Z</time>
      </trkpt>
      <trkpt lat="47.04686" lon="9.02535">
        <ele>692</ele>
        <time>2021-08-02T08:56:12.380Z</time>
      </trkpt>
      <trkpt lat="47.04686" lon="9.02534">
        <ele>692</ele>
        <time>2021-08-02T08:56:13.379Z</time>
      </trkpt>
      <trkpt lat="47.04685" lon="9.02532">
        <ele>692</ele>
        <time>2021-08-02T08:56:14.379Z</time>
      </trkpt>
      <trkpt lat="47.04684" lon="9.02531">
        <ele>693</ele>
        <time>2021-08-02T08:56:15.379Z</time>
      </trkpt>
      <trkpt lat="47.04683" lon="9.02529">
        <ele>693</ele>
        <time>2021-08-02T08:56:16.379Z</time>
      </trkpt>
      <trkpt lat="47.04682" lon="9.02527">
        <ele>693</ele>
        <time>2021-08-02T08:56:17.379Z</time>
      </trkpt>
      <trkpt lat="47.04681" lon="9.02525">
        <ele>693</ele>
        <time>2021-08-02T08:56:18.380Z</time>
      </trkpt>
      <trkpt lat="47.0468" lon="9.02523">
        <ele>693</ele>
        <time>2021-08-02T08:56:19.380Z</time>
      </trkpt>
      <trkpt lat="47.04679" lon="9.02521">
        <ele>693</ele>
        <time>2021-08-02T08:56:20.380Z</time>
      </trkpt>
      <trkpt lat="47.04678" lon="9.02519">
        <ele>693</ele>
        <time>2021-08-02T08:56:21.380Z</time>
      </trkpt>
      <trkpt lat="47.04677" lon="9.02518">
        <ele>693</ele>
        <time>2021-08-02T08:56:22.380Z</time>
      </trkpt>
      <trkpt lat="47.04676" lon="9.02517">
        <ele>692</ele>
        <time>2021-08-02T08:56:23.380Z</time>
      </trkpt>
      <trkpt lat="47.04675" lon="9.02516">
        <ele>691</ele>
        <time>2021-08-02T08:56:24.379Z</time>
      </trkpt>
      <trkpt lat="47.04673" lon="9.02516">
        <ele>691</ele>
        <time>2021-08-02T08:56:25.379Z</time>
      </trkpt>
      <trkpt lat="47.04672" lon="9.02516">
        <ele>691</ele>
        <time>2021-08-02T08:56:26.380Z</time>
      </trkpt>
      <trkpt lat="47.04671" lon="9.02516">
        <ele>690</ele>
        <time>2021-08-02T08:56:27.379Z</time>
      </trkpt>
      <trkpt lat="47.0467" lon="9.02516">
        <ele>690</ele>
        <time>2021-08-02T08:56:28.379Z</time>
      </trkpt>
      <trkpt lat="47.04669" lon="9.02515">
        <ele>690</ele>
        <time>2021-08-02T08:56:29.379Z</time>
      </trkpt>
      <trkpt lat="47.04667" lon="9.02513">
        <ele>689</ele>
        <time>2021-08-02T08:56:30.379Z</time>
      </trkpt>
      <trkpt lat="47.04666" lon="9.02513">
        <ele>689</ele>
        <time>2021-08-02T08:56:31.379Z</time>
      </trkpt>
      <trkpt lat="47.04665" lon="9.02512">
        <ele>689</ele>
        <time>2021-08-02T08:56:32.379Z</time>
      </trkpt>
      <trkpt lat="47.04664" lon="9.02511">
        <ele>689</ele>
        <time>2021-08-02T08:56:33.380Z</time>
      </trkpt>
      <trkpt lat="47.04663" lon="9.02511">
        <ele>689</ele>
        <time>2021-08-02T08:56:34.380Z</time>
      </trkpt>
      <trkpt lat="47.04662" lon="9.0251">
        <ele>689</ele>
        <time>2021-08-02T08:56:35.380Z</time>
      </trkpt>
      <trkpt lat="47.0466" lon="9.0251">
        <ele>689</ele>
        <time>2021-08-02T08:56:36.379Z</time>
      </trkpt>
      <trkpt lat="47.04659" lon="9.0251">
        <ele>690</ele>
        <time>2021-08-02T08:56:37.380Z</time>
      </trkpt>
      <trkpt lat="47.04658" lon="9.0251">
        <ele>690</ele>
        <time>2021-08-02T08:56:38.379Z</time>
      </trkpt>
      <trkpt lat="47.04657" lon="9.02509">
        <ele>690</ele>
        <time>2021-08-02T08:56:39.380Z</time>
      </trkpt>
      <trkpt lat="47.04655" lon="9.02508">
        <ele>691</ele>
        <time>2021-08-02T08:56:40.380Z</time>
      </trkpt>
      <trkpt lat="47.04654" lon="9.02507">
        <ele>692</ele>
        <time>2021-08-02T08:56:41.379Z</time>
      </trkpt>
      <trkpt lat="47.04652" lon="9.02507">
        <ele>692</ele>
        <time>2021-08-02T08:56:42.379Z</time>
      </trkpt>
      <trkpt lat="47.04651" lon="9.02505">
        <ele>693</ele>
        <time>2021-08-02T08:56:43.379Z</time>
      </trkpt>
      <trkpt lat="47.0465" lon="9.02504">
        <ele>694</ele>
        <time>2021-08-02T08:56:44.379Z</time>
      </trkpt>
      <trkpt lat="47.04649" lon="9.02503">
        <ele>694</ele>
        <time>2021-08-02T08:56:45.379Z</time>
      </trkpt>
      <trkpt lat="47.04648" lon="9.02501">
        <ele>695</ele>
        <time>2021-08-02T08:56:46.379Z</time>
      </trkpt>
      <trkpt lat="47.04646" lon="9.02499">
        <ele>695</ele>
        <time>2021-08-02T08:56:47.380Z</time>
      </trkpt>
      <trkpt lat="47.04645" lon="9.02498">
        <ele>695</ele>
        <time>2021-08-02T08:56:48.379Z</time>
      </trkpt>
      <trkpt lat="47.04644" lon="9.02498">
        <ele>696</ele>
        <time>2021-08-02T08:56:49.379Z</time>
      </trkpt>
      <trkpt lat="47.04643" lon="9.02499">
        <ele>696</ele>
        <time>2021-08-02T08:56:50.379Z</time>
      </trkpt>
      <trkpt lat="47.04642" lon="9.025">
        <ele>696</ele>
        <time>2021-08-02T08:56:51.379Z</time>
      </trkpt>
      <trkpt lat="47.04642" lon="9.025">
        <ele>696</ele>
        <time>2021-08-02T08:56:52.379Z</time>
      </trkpt>
      <trkpt lat="47.04641" lon="9.025">
        <ele>696</ele>
        <time>2021-08-02T08:56:53.379Z</time>
      </trkpt>
      <trkpt lat="47.0464" lon="9.025">
        <ele>696</ele>
        <time>2021-08-02T08:56:54.379Z</time>
      </trkpt>
      <trkpt lat="47.04639" lon="9.025">
        <ele>696</ele>
        <time>2021-08-02T08:56:55.380Z</time>
      </trkpt>
      <trkpt lat="47.04638" lon="9.025">
        <ele>696</ele>
        <time>2021-08-02T08:56:56.379Z</time>
      </trkpt>
      <trkpt lat="47.04637" lon="9.02501">
        <ele>696</ele>
        <time>2021-08-02T08:56:57.379Z</time>
      </trkpt>
      <trkpt lat="47.04636" lon="9.02501">
        <ele>696</ele>
        <time>2021-08-02T08:56:58.379Z</time>
      </trkpt>
      <trkpt lat="47.04636" lon="9.025">
        <ele>697</ele>
        <time>2021-08-02T08:56:59.380Z</time>
      </trkpt>
      <trkpt lat="47.04635" lon="9.025">
        <ele>697</ele>
        <time>2021-08-02T08:57:00.380Z</time>
      </trkpt>
      <trkpt lat="47.04635" lon="9.025">
        <ele>697</ele>
        <time>2021-08-02T08:57:01.380Z</time>
      </trkpt>
      <trkpt lat="47.04634" lon="9.025">
        <ele>698</ele>
        <time>2021-08-02T08:57:02.379Z</time>
      </trkpt>
      <trkpt lat="47.04633" lon="9.025">
        <ele>698</ele>
        <time>2021-08-02T08:57:03.379Z</time>
      </trkpt>
      <trkpt lat="47.04632" lon="9.02499">
        <ele>699</ele>
        <time>2021-08-02T08:57:04.379Z</time>
      </trkpt>
      <trkpt lat="47.04631" lon="9.02499">
        <ele>700</ele>
        <time>2021-08-02T08:57:05.380Z</time>
      </trkpt>
      <trkpt lat="47.04631" lon="9.02498">
        <ele>700</ele>
        <time>2021-08-02T08:57:06.380Z</time>
      </trkpt>
      <trkpt lat="47.0463" lon="9.02497">
        <ele>701</ele>
        <time>2021-08-02T08:57:07.380Z</time>
      </trkpt>
      <trkpt lat="47.0463" lon="9.02496">
        <ele>701</ele>
        <time>2021-08-02T08:57:08.379Z</time>
      </trkpt>
      <trkpt lat="47.04629" lon="9.02495">
        <ele>701</ele>
        <time>2021-08-02T08:57:09.379Z</time>
      </trkpt>
      <trkpt lat="47.04629" lon="9.02494">
        <ele>702</ele>
        <time>2021-08-02T08:57:10.380Z</time>
      </trkpt>
      <trkpt lat="47.04628" lon="9.02494">
        <ele>702</ele>
        <time>2021-08-02T08:57:11.380Z</time>
      </trkpt>
      <trkpt lat="47.04627" lon="9.02493">
        <ele>702</ele>
        <time>2021-08-02T08:57:12.380Z</time>
      </trkpt>
      <trkpt lat="47.04626" lon="9.02492">
        <ele>702</ele>
        <time>2021-08-02T08:57:13.380Z</time>
      </trkpt>
      <trkpt lat="47.04626" lon="9.02491">
        <ele>702</ele>
        <time>2021-08-02T08:57:14.379Z</time>
      </trkpt>
      <trkpt lat="47.04625" lon="9.0249">
        <ele>702</ele>
        <time>2021-08-02T08:57:15.379Z</time>
      </trkpt>
      <trkpt lat="47.04625" lon="9.02489">
        <ele>702</ele>
        <time>2021-08-02T08:57:16.379Z</time>
      </trkpt>
      <trkpt lat="47.04624" lon="9.02488">
        <ele>702</ele>
        <time>2021-08-02T08:57:17.380Z</time>
      </trkpt>
      <trkpt lat="47.04624" lon="9.02487">
        <ele>702</ele>
        <time>2021-08-02T08:57:18.380Z</time>
      </trkpt>
      <trkpt lat="47.04623" lon="9.02487">
        <ele>702</ele>
        <time>2021-08-02T08:57:19.379Z</time>
      </trkpt>
      <trkpt lat="47.04622" lon="9.02486">
        <ele>702</ele>
        <time>2021-08-02T08:57:20.379Z</time>
      </trkpt>
      <trkpt lat="47.04622" lon="9.02486">
        <ele>702</ele>
        <time>2021-08-02T08:57:21.380Z</time>
      </trkpt>
      <trkpt lat="47.04621" lon="9.02485">
        <ele>702</ele>
        <time>2021-08-02T08:57:22.380Z</time>
      </trkpt>
      <trkpt lat="47.0462" lon="9.02484">
        <ele>702</ele>
        <time>2021-08-02T08:57:23.380Z</time>
      </trkpt>
      <trkpt lat="47.04618" lon="9.02484">
        <ele>703</ele>
        <time>2021-08-02T08:57:24.379Z</time>
      </trkpt>
      <trkpt lat="47.04617" lon="9.02483">
        <ele>703</ele>
        <time>2021-08-02T08:57:25.380Z</time>
      </trkpt>
      <trkpt lat="47.04616" lon="9.02482">
        <ele>704</ele>
        <time>2021-08-02T08:57:26.379Z</time>
      </trkpt>
      <trkpt lat="47.04615" lon="9.02482">
        <ele>704</ele>
        <time>2021-08-02T08:57:27.379Z</time>
      </trkpt>
      <trkpt lat="47.04614" lon="9.02482">
        <ele>705</ele>
        <time>2021-08-02T08:57:28.379Z</time>
      </trkpt>
      <trkpt lat="47.04613" lon="9.02482">
        <ele>706</ele>
        <time>2021-08-02T08:57:29.380Z</time>
      </trkpt>
      <trkpt lat="47.04613" lon="9.02481">
        <ele>706</ele>
        <time>2021-08-02T08:57:30.380Z</time>
      </trkpt>
      <trkpt lat="47.04612" lon="9.02481">
        <ele>707</ele>
        <time>2021-08-02T08:57:31.380Z</time>
      </trkpt>
      <trkpt lat="47.04611" lon="9.02481">
        <ele>708</ele>
        <time>2021-08-02T08:57:32.380Z</time>
      </trkpt>
      <trkpt lat="47.04611" lon="9.02481">
        <ele>709</ele>
        <time>2021-08-02T08:57:33.380Z</time>
      </trkpt>
      <trkpt lat="47.0461" lon="9.0248">
        <ele>709</ele>
        <time>2021-08-02T08:57:34.380Z</time>
      </trkpt>
      <trkpt lat="47.04608" lon="9.02478">
        <ele>710</ele>
        <time>2021-08-02T08:57:35.379Z</time>
      </trkpt>
      <trkpt lat="47.04608" lon="9.02477">
        <ele>711</ele>
        <time>2021-08-02T08:57:36.380Z</time>
      </trkpt>
      <trkpt lat="47.04607" lon="9.02476">
        <ele>712</ele>
        <time>2021-08-02T08:57:37.380Z</time>
      </trkpt>
      <trkpt lat="47.04607" lon="9.02476">
        <ele>713</ele>
        <time>2021-08-02T08:57:38.380Z</time>
      </trkpt>
      <trkpt lat="47.04607" lon="9.02476">
        <ele>714</ele>
        <time>2021-08-02T08:57:39.380Z</time>
      </trkpt>
      <trkpt lat="47.04606" lon="9.02476">
        <ele>715</ele>
        <time>2021-08-02T08:57:40.379Z</time>
      </trkpt>
      <trkpt lat="47.04605" lon="9.02475">
        <ele>715</ele>
        <time>2021-08-02T08:57:41.380Z</time>
      </trkpt>
      <trkpt lat="47.04604" lon="9.02475">
        <ele>716</ele>
        <time>2021-08-02T08:57:42.380Z</time>
      </trkpt>
      <trkpt lat="47.04603" lon="9.02474">
        <ele>717</ele>
        <time>2021-08-02T08:57:43.380Z</time>
      </trkpt>
      <trkpt lat="47.04602" lon="9.02473">
        <ele>717</ele>
        <time>2021-08-02T08:57:44.379Z</time>
      </trkpt>
      <trkpt lat="47.04602" lon="9.02472">
        <ele>718</ele>
        <time>2021-08-02T08:57:45.380Z</time>
      </trkpt>
      <trkpt lat="47.04601" lon="9.02472">
        <ele>718</ele>
        <time>2021-08-02T08:57:46.380Z</time>
      </trkpt>
      <trkpt lat="47.046" lon="9.02472">
        <ele>719</ele>
        <time>2021-08-02T08:57:47.380Z</time>
      </trkpt>
      <trkpt lat="47.046" lon="9.02471">
        <ele>719</ele>
        <time>2021-08-02T08:57:48.379Z</time>
      </trkpt>
      <trkpt lat="47.04599" lon="9.02471">
        <ele>719</ele>
        <time>2021-08-02T08:57:49.380Z</time>
      </trkpt>
      <trkpt lat="47.04599" lon="9.02469">
        <ele>718</ele>
        <time>2021-08-02T08:57:50.379Z</time>
      </trkpt>
      <trkpt lat="47.04598" lon="9.02468">
        <ele>718</ele>
        <time>2021-08-02T08:57:51.379Z</time>
      </trkpt>
      <trkpt lat="47.04597" lon="9.02467">
        <ele>718</ele>
        <time>2021-08-02T08:57:52.379Z</time>
      </trkpt>
      <trkpt lat="47.04595" lon="9.02466">
        <ele>718</ele>
        <time>2021-08-02T08:57:53.380Z</time>
      </trkpt>
      <trkpt lat="47.04594" lon="9.02463">
        <ele>719</ele>
        <time>2021-08-02T08:57:54.379Z</time>
      </trkpt>
      <trkpt lat="47.04592" lon="9.02462">
        <ele>718</ele>
        <time>2021-08-02T08:57:55.379Z</time>
      </trkpt>
      <trkpt lat="47.04592" lon="9.02462">
        <ele>718</ele>
        <time>2021-08-02T08:57:56.379Z</time>
      </trkpt>
      <trkpt lat="47.04591" lon="9.02462">
        <ele>718</ele>
        <time>2021-08-02T08:57:57.380Z</time>
      </trkpt>
      <trkpt lat="47.04591" lon="9.02461">
        <ele>717</ele>
        <time>2021-08-02T08:57:58.380Z</time>
      </trkpt>
      <trkpt lat="47.0459" lon="9.02461">
        <ele>716</ele>
        <time>2021-08-02T08:57:59.380Z</time>
      </trkpt>
      <trkpt lat="47.04589" lon="9.0246">
        <ele>715</ele>
        <time>2021-08-02T08:58:00.380Z</time>
      </trkpt>
      <trkpt lat="47.04588" lon="9.02459">
        <ele>714</ele>
        <time>2021-08-02T08:58:01.380Z</time>
      </trkpt>
      <trkpt lat="47.04588" lon="9.02458">
        <ele>714</ele>
        <time>2021-08-02T08:58:02.380Z</time>
      </trkpt>
      <trkpt lat="47.04587" lon="9.02458">
        <ele>713</ele>
        <time>2021-08-02T08:58:03.380Z</time>
      </trkpt>
      <trkpt lat="47.04586" lon="9.02457">
        <ele>712</ele>
        <time>2021-08-02T08:58:04.380Z</time>
      </trkpt>
      <trkpt lat="47.04586" lon="9.02456">
        <ele>711</ele>
        <time>2021-08-02T08:58:05.380Z</time>
      </trkpt>
      <trkpt lat="47.04585" lon="9.02455">
        <ele>711</ele>
        <time>2021-08-02T08:58:06.380Z</time>
      </trkpt>
      <trkpt lat="47.04584" lon="9.02455">
        <ele>711</ele>
        <time>2021-08-02T08:58:07.379Z</time>
      </trkpt>
      <trkpt lat="47.04584" lon="9.02454">
        <ele>711</ele>
        <time>2021-08-02T08:58:08.380Z</time>
      </trkpt>
      <trkpt lat="47.04584" lon="9.02454">
        <ele>711</ele>
        <time>2021-08-02T08:58:09.380Z</time>
      </trkpt>
      <trkpt lat="47.04584" lon="9.02453">
        <ele>710</ele>
        <time>2021-08-02T08:58:10.380Z</time>
      </trkpt>
      <trkpt lat="47.04585" lon="9.02453">
        <ele>710</ele>
        <time>2021-08-02T08:58:11.380Z</time>
      </trkpt>
      <trkpt lat="47.04586" lon="9.02453">
        <ele>709</ele>
        <time>2021-08-02T08:58:12.380Z</time>
      </trkpt>
      <trkpt lat="47.04588" lon="9.02451">
        <ele>707</ele>
        <time>2021-08-02T08:58:13.381Z</time>
      </trkpt>
      <trkpt lat="47.04591" lon="9.02448">
        <ele>705</ele>
        <time>2021-08-02T08:58:14.380Z</time>
      </trkpt>
      <trkpt lat="47.04592" lon="9.02449">
        <ele>706</ele>
        <time>2021-08-02T08:58:15.380Z</time>
      </trkpt>
      <trkpt lat="47.04592" lon="9.02449">
        <ele>706</ele>
        <time>2021-08-02T08:58:16.380Z</time>
      </trkpt>
      <trkpt lat="47.04589" lon="9.02452">
        <ele>709</ele>
        <time>2021-08-02T08:58:17.381Z</time>
      </trkpt>
      <trkpt lat="47.04587" lon="9.02451">
        <ele>710</ele>
        <time>2021-08-02T08:58:18.381Z</time>
      </trkpt>
      <trkpt lat="47.04586" lon="9.02449">
        <ele>710</ele>
        <time>2021-08-02T08:58:19.380Z</time>
      </trkpt>
      <trkpt lat="47.04585" lon="9.02448">
        <ele>711</ele>
        <time>2021-08-02T08:58:20.380Z</time>
      </trkpt>
      <trkpt lat="47.04585" lon="9.02447">
        <ele>711</ele>
        <time>2021-08-02T08:58:21.381Z</time>
      </trkpt>
      <trkpt lat="47.04584" lon="9.02445">
        <ele>712</ele>
        <time>2021-08-02T08:58:22.381Z</time>
      </trkpt>
      <trkpt lat="47.04584" lon="9.02444">
        <ele>713</ele>
        <time>2021-08-02T08:58:23.381Z</time>
      </trkpt>
      <trkpt lat="47.04584" lon="9.02443">
        <ele>713</ele>
        <time>2021-08-02T08:58:24.381Z</time>
      </trkpt>
      <trkpt lat="47.04583" lon="9.02442">
        <ele>714</ele>
        <time>2021-08-02T08:58:25.381Z</time>
      </trkpt>
      <trkpt lat="47.04583" lon="9.02442">
        <ele>714</ele>
        <time>2021-08-02T08:58:26.381Z</time>
      </trkpt>
      <trkpt lat="47.04582" lon="9.02441">
        <ele>715</ele>
        <time>2021-08-02T08:58:27.381Z</time>
      </trkpt>
      <trkpt lat="47.04581" lon="9.02441">
        <ele>715</ele>
        <time>2021-08-02T08:58:28.381Z</time>
      </trkpt>
      <trkpt lat="47.0458" lon="9.0244">
        <ele>715</ele>
        <time>2021-08-02T08:58:29.381Z</time>
      </trkpt>
      <trkpt lat="47.04579" lon="9.02439">
        <ele>715</ele>
        <time>2021-08-02T08:58:30.381Z</time>
      </trkpt>
      <trkpt lat="47.04578" lon="9.02438">
        <ele>715</ele>
        <time>2021-08-02T08:58:31.381Z</time>
      </trkpt>
      <trkpt lat="47.04577" lon="9.02437">
        <ele>715</ele>
        <time>2021-08-02T08:58:32.380Z</time>
      </trkpt>
      <trkpt lat="47.04576" lon="9.02436">
        <ele>715</ele>
        <time>2021-08-02T08:58:33.381Z</time>
      </trkpt>
      <trkpt lat="47.04575" lon="9.02435">
        <ele>715</ele>
        <time>2021-08-02T08:58:34.381Z</time>
      </trkpt>
      <trkpt lat="47.04574" lon="9.02435">
        <ele>716</ele>
        <time>2021-08-02T08:58:35.381Z</time>
      </trkpt>
      <trkpt lat="47.04574" lon="9.02434">
        <ele>715</ele>
        <time>2021-08-02T08:58:36.381Z</time>
      </trkpt>
      <trkpt lat="47.04573" lon="9.02435">
        <ele>715</ele>
        <time>2021-08-02T08:58:37.381Z</time>
      </trkpt>
      <trkpt lat="47.04572" lon="9.02434">
        <ele>715</ele>
        <time>2021-08-02T08:58:38.381Z</time>
      </trkpt>
      <trkpt lat="47.0457" lon="9.02432">
        <ele>715</ele>
        <time>2021-08-02T08:58:39.380Z</time>
      </trkpt>
      <trkpt lat="47.04569" lon="9.02432">
        <ele>715</ele>
        <time>2021-08-02T08:58:40.381Z</time>
      </trkpt>
      <trkpt lat="47.04569" lon="9.02431">
        <ele>715</ele>
        <time>2021-08-02T08:58:41.381Z</time>
      </trkpt>
      <trkpt lat="47.04568" lon="9.02429">
        <ele>715</ele>
        <time>2021-08-02T08:58:42.380Z</time>
      </trkpt>
      <trkpt lat="47.04567" lon="9.02429">
        <ele>715</ele>
        <time>2021-08-02T08:58:43.380Z</time>
      </trkpt>
      <trkpt lat="47.04567" lon="9.02428">
        <ele>716</ele>
        <time>2021-08-02T08:58:44.381Z</time>
      </trkpt>
      <trkpt lat="47.04567" lon="9.02427">
        <ele>716</ele>
        <time>2021-08-02T08:58:45.381Z</time>
      </trkpt>
      <trkpt lat="47.04567" lon="9.02426">
        <ele>716</ele>
        <time>2021-08-02T08:58:46.381Z</time>
      </trkpt>
      <trkpt lat="47.04565" lon="9.02424">
        <ele>715</ele>
        <time>2021-08-02T08:58:47.381Z</time>
      </trkpt>
      <trkpt lat="47.04565" lon="9.02423">
        <ele>714</ele>
        <time>2021-08-02T08:58:48.381Z</time>
      </trkpt>
      <trkpt lat="47.04563" lon="9.02421">
        <ele>714</ele>
        <time>2021-08-02T08:58:49.381Z</time>
      </trkpt>
      <trkpt lat="47.04562" lon="9.0242">
        <ele>714</ele>
        <time>2021-08-02T08:58:50.381Z</time>
      </trkpt>
      <trkpt lat="47.04561" lon="9.02419">
        <ele>713</ele>
        <time>2021-08-02T08:58:51.381Z</time>
      </trkpt>
      <trkpt lat="47.0456" lon="9.02419">
        <ele>713</ele>
        <time>2021-08-02T08:58:52.381Z</time>
      </trkpt>
      <trkpt lat="47.04559" lon="9.02418">
        <ele>713</ele>
        <time>2021-08-02T08:58:53.381Z</time>
      </trkpt>
      <trkpt lat="47.04558" lon="9.02418">
        <ele>713</ele>
        <time>2021-08-02T08:58:54.381Z</time>
      </trkpt>
      <trkpt lat="47.04558" lon="9.02417">
        <ele>713</ele>
        <time>2021-08-02T08:58:55.381Z</time>
      </trkpt>
      <trkpt lat="47.04557" lon="9.02416">
        <ele>713</ele>
        <time>2021-08-02T08:58:56.380Z</time>
      </trkpt>
      <trkpt lat="47.04556" lon="9.02416">
        <ele>713</ele>
        <time>2021-08-02T08:58:57.380Z</time>
      </trkpt>
      <trkpt lat="47.04555" lon="9.02416">
        <ele>713</ele>
        <time>2021-08-02T08:58:58.380Z</time>
      </trkpt>
      <trkpt lat="47.04554" lon="9.02415">
        <ele>713</ele>
        <time>2021-08-02T08:58:59.381Z</time>
      </trkpt>
      <trkpt lat="47.04553" lon="9.02414">
        <ele>713</ele>
        <time>2021-08-02T08:59:00.381Z</time>
      </trkpt>
      <trkpt lat="47.04553" lon="9.02414">
        <ele>714</ele>
        <time>2021-08-02T08:59:01.380Z</time>
      </trkpt>
      <trkpt lat="47.04552" lon="9.02413">
        <ele>714</ele>
        <time>2021-08-02T08:59:02.381Z</time>
      </trkpt>
      <trkpt lat="47.04551" lon="9.02412">
        <ele>714</ele>
        <time>2021-08-02T08:59:03.381Z</time>
      </trkpt>
      <trkpt lat="47.04551" lon="9.02412">
        <ele>714</ele>
        <time>2021-08-02T08:59:04.380Z</time>
      </trkpt>
      <trkpt lat="47.0455" lon="9.02411">
        <ele>714</ele>
        <time>2021-08-02T08:59:05.380Z</time>
      </trkpt>
      <trkpt lat="47.04548" lon="9.0241">
        <ele>713</ele>
        <time>2021-08-02T08:59:06.380Z</time>
      </trkpt>
      <trkpt lat="47.04547" lon="9.02409">
        <ele>713</ele>
        <time>2021-08-02T08:59:07.381Z</time>
      </trkpt>
      <trkpt lat="47.04547" lon="9.02408">
        <ele>712</ele>
        <time>2021-08-02T08:59:08.381Z</time>
      </trkpt>
      <trkpt lat="47.04546" lon="9.02408">
        <ele>711</ele>
        <time>2021-08-02T08:59:09.380Z</time>
      </trkpt>
      <trkpt lat="47.04546" lon="9.02407">
        <ele>710</ele>
        <time>2021-08-02T08:59:10.381Z</time>
      </trkpt>
      <trkpt lat="47.04545" lon="9.02405">
        <ele>709</ele>
        <time>2021-08-02T08:59:11.380Z</time>
      </trkpt>
      <trkpt lat="47.04544" lon="9.02405">
        <ele>708</ele>
        <time>2021-08-02T08:59:12.381Z</time>
      </trkpt>
      <trkpt lat="47.04543" lon="9.02404">
        <ele>707</ele>
        <time>2021-08-02T08:59:13.381Z</time>
      </trkpt>
      <trkpt lat="47.04542" lon="9.02403">
        <ele>706</ele>
        <time>2021-08-02T08:59:14.380Z</time>
      </trkpt>
      <trkpt lat="47.04541" lon="9.02403">
        <ele>706</ele>
        <time>2021-08-02T08:59:15.380Z</time>
      </trkpt>
      <trkpt lat="47.0454" lon="9.02401">
        <ele>705</ele>
        <time>2021-08-02T08:59:16.381Z</time>
      </trkpt>
      <trkpt lat="47.04539" lon="9.024">
        <ele>705</ele>
        <time>2021-08-02T08:59:17.381Z</time>
      </trkpt>
      <trkpt lat="47.04538" lon="9.024">
        <ele>705</ele>
        <time>2021-08-02T08:59:18.381Z</time>
      </trkpt>
      <trkpt lat="47.04537" lon="9.024">
        <ele>704</ele>
        <time>2021-08-02T08:59:19.380Z</time>
      </trkpt>
      <trkpt lat="47.04537" lon="9.02402">
        <ele>704</ele>
        <time>2021-08-02T08:59:20.380Z</time>
      </trkpt>
      <trkpt lat="47.04537" lon="9.02404">
        <ele>704</ele>
        <time>2021-08-02T08:59:21.381Z</time>
      </trkpt>
      <trkpt lat="47.04537" lon="9.02406">
        <ele>705</ele>
        <time>2021-08-02T08:59:22.381Z</time>
      </trkpt>
      <trkpt lat="47.04536" lon="9.02406">
        <ele>705</ele>
        <time>2021-08-02T08:59:23.381Z</time>
      </trkpt>
      <trkpt lat="47.04536" lon="9.02407">
        <ele>705</ele>
        <time>2021-08-02T08:59:24.380Z</time>
      </trkpt>
      <trkpt lat="47.04536" lon="9.02407">
        <ele>705</ele>
        <time>2021-08-02T08:59:25.381Z</time>
      </trkpt>
      <trkpt lat="47.04535" lon="9.02406">
        <ele>706</ele>
        <time>2021-08-02T08:59:26.380Z</time>
      </trkpt>
      <trkpt lat="47.04535" lon="9.02405">
        <ele>706</ele>
        <time>2021-08-02T08:59:27.381Z</time>
      </trkpt>
      <trkpt lat="47.04534" lon="9.02404">
        <ele>706</ele>
        <time>2021-08-02T08:59:28.381Z</time>
      </trkpt>
      <trkpt lat="47.04534" lon="9.02403">
        <ele>706</ele>
        <time>2021-08-02T08:59:29.380Z</time>
      </trkpt>
      <trkpt lat="47.04533" lon="9.02402">
        <ele>706</ele>
        <time>2021-08-02T08:59:30.381Z</time>
      </trkpt>
      <trkpt lat="47.04533" lon="9.02401">
        <ele>707</ele>
        <time>2021-08-02T08:59:31.381Z</time>
      </trkpt>
      <trkpt lat="47.04532" lon="9.024">
        <ele>707</ele>
        <time>2021-08-02T08:59:32.381Z</time>
      </trkpt>
      <trkpt lat="47.04531" lon="9.024">
        <ele>707</ele>
        <time>2021-08-02T08:59:33.381Z</time>
      </trkpt>
      <trkpt lat="47.0453" lon="9.024">
        <ele>707</ele>
        <time>2021-08-02T08:59:34.380Z</time>
      </trkpt>
      <trkpt lat="47.04529" lon="9.024">
        <ele>707</ele>
        <time>2021-08-02T08:59:35.380Z</time>
      </trkpt>
      <trkpt lat="47.04528" lon="9.02399">
        <ele>707</ele>
        <time>2021-08-02T08:59:36.381Z</time>
      </trkpt>
      <trkpt lat="47.04528" lon="9.02397">
        <ele>707</ele>
        <time>2021-08-02T08:59:37.380Z</time>
      </trkpt>
      <trkpt lat="47.04527" lon="9.02395">
        <ele>707</ele>
        <time>2021-08-02T08:59:38.380Z</time>
      </trkpt>
      <trkpt lat="47.04526" lon="9.02395">
        <ele>707</ele>
        <time>2021-08-02T08:59:39.380Z</time>
      </trkpt>
      <trkpt lat="47.04525" lon="9.02394">
        <ele>706</ele>
        <time>2021-08-02T08:59:40.381Z</time>
      </trkpt>
      <trkpt lat="47.04524" lon="9.02394">
        <ele>705</ele>
        <time>2021-08-02T08:59:41.381Z</time>
      </trkpt>
      <trkpt lat="47.04523" lon="9.02393">
        <ele>705</ele>
        <time>2021-08-02T08:59:42.381Z</time>
      </trkpt>
      <trkpt lat="47.04523" lon="9.02392">
        <ele>704</ele>
        <time>2021-08-02T08:59:43.381Z</time>
      </trkpt>
      <trkpt lat="47.04522" lon="9.0239">
        <ele>703</ele>
        <time>2021-08-02T08:59:44.380Z</time>
      </trkpt>
      <trkpt lat="47.04522" lon="9.02388">
        <ele>703</ele>
        <time>2021-08-02T08:59:45.381Z</time>
      </trkpt>
      <trkpt lat="47.04522" lon="9.02387">
        <ele>703</ele>
        <time>2021-08-02T08:59:46.381Z</time>
      </trkpt>
      <trkpt lat="47.04522" lon="9.02386">
        <ele>703</ele>
        <time>2021-08-02T08:59:47.381Z</time>
      </trkpt>
      <trkpt lat="47.04522" lon="9.02384">
        <ele>703</ele>
        <time>2021-08-02T08:59:48.380Z</time>
      </trkpt>
      <trkpt lat="47.0452" lon="9.02383">
        <ele>703</ele>
        <time>2021-08-02T08:59:49.381Z</time>
      </trkpt>
      <trkpt lat="47.04519" lon="9.02381">
        <ele>702</ele>
        <time>2021-08-02T08:59:50.381Z</time>
      </trkpt>
      <trkpt lat="47.04518" lon="9.02379">
        <ele>701</ele>
        <time>2021-08-02T08:59:51.381Z</time>
      </trkpt>
      <trkpt lat="47.04517" lon="9.02378">
        <ele>701</ele>
        <time>2021-08-02T08:59:52.381Z</time>
      </trkpt>
      <trkpt lat="47.04517" lon="9.02378">
        <ele>701</ele>
        <time>2021-08-02T08:59:53.380Z</time>
      </trkpt>
      <trkpt lat="47.04516" lon="9.02378">
        <ele>700</ele>
        <time>2021-08-02T08:59:54.381Z</time>
      </trkpt>
      <trkpt lat="47.04515" lon="9.02377">
        <ele>700</ele>
        <time>2021-08-02T08:59:55.381Z</time>
      </trkpt>
      <trkpt lat="47.04514" lon="9.02376">
        <ele>699</ele>
        <time>2021-08-02T08:59:56.381Z</time>
      </trkpt>
      <trkpt lat="47.04514" lon="9.02375">
        <ele>698</ele>
        <time>2021-08-02T08:59:57.381Z</time>
      </trkpt>
      <trkpt lat="47.04513" lon="9.02373">
        <ele>697</ele>
        <time>2021-08-02T08:59:58.381Z</time>
      </trkpt>
      <trkpt lat="47.04513" lon="9.02371">
        <ele>696</ele>
        <time>2021-08-02T08:59:59.380Z</time>
      </trkpt>
      <trkpt lat="47.04513" lon="9.0237">
        <ele>695</ele>
        <time>2021-08-02T09:00:00.381Z</time>
      </trkpt>
      <trkpt lat="47.04513" lon="9.02369">
        <ele>694</ele>
        <time>2021-08-02T09:00:01.381Z</time>
      </trkpt>
      <trkpt lat="47.04513" lon="9.02367">
        <ele>693</ele>
        <time>2021-08-02T09:00:02.381Z</time>
      </trkpt>
      <trkpt lat="47.04513" lon="9.02366">
        <ele>692</ele>
        <time>2021-08-02T09:00:03.381Z</time>
      </trkpt>
      <trkpt lat="47.04514" lon="9.02366">
        <ele>692</ele>
        <time>2021-08-02T09:00:04.381Z</time>
      </trkpt>
      <trkpt lat="47.04514" lon="9.02366">
        <ele>692</ele>
        <time>2021-08-02T09:00:05.380Z</time>
      </trkpt>
      <trkpt lat="47.04514" lon="9.02365">
        <ele>692</ele>
        <time>2021-08-02T09:00:06.381Z</time>
      </trkpt>
      <trkpt lat="47.04513" lon="9.02364">
        <ele>692</ele>
        <time>2021-08-02T09:00:07.381Z</time>
      </trkpt>
      <trkpt lat="47.04512" lon="9.02363">
        <ele>692</ele>
        <time>2021-08-02T09:00:08.381Z</time>
      </trkpt>
      <trkpt lat="47.04512" lon="9.02362">
        <ele>692</ele>
        <time>2021-08-02T09:00:09.381Z</time>
      </trkpt>
      <trkpt lat="47.04511" lon="9.02361">
        <ele>691</ele>
        <time>2021-08-02T09:00:10.381Z</time>
      </trkpt>
      <trkpt lat="47.0451" lon="9.0236">
        <ele>691</ele>
        <time>2021-08-02T09:00:11.380Z</time>
      </trkpt>
      <trkpt lat="47.0451" lon="9.02358">
        <ele>691</ele>
        <time>2021-08-02T09:00:12.381Z</time>
      </trkpt>
      <trkpt lat="47.04509" lon="9.02357">
        <ele>691</ele>
        <time>2021-08-02T09:00:13.381Z</time>
      </trkpt>
      <trkpt lat="47.04508" lon="9.02356">
        <ele>691</ele>
        <time>2021-08-02T09:00:14.381Z</time>
      </trkpt>
      <trkpt lat="47.04507" lon="9.02354">
        <ele>691</ele>
        <time>2021-08-02T09:00:15.380Z</time>
      </trkpt>
      <trkpt lat="47.04506" lon="9.02352">
        <ele>691</ele>
        <time>2021-08-02T09:00:16.380Z</time>
      </trkpt>
      <trkpt lat="47.04506" lon="9.0235">
        <ele>691</ele>
        <time>2021-08-02T09:00:17.381Z</time>
      </trkpt>
      <trkpt lat="47.04504" lon="9.02348">
        <ele>691</ele>
        <time>2021-08-02T09:00:18.381Z</time>
      </trkpt>
      <trkpt lat="47.04503" lon="9.02346">
        <ele>692</ele>
        <time>2021-08-02T09:00:19.381Z</time>
      </trkpt>
      <trkpt lat="47.04502" lon="9.02344">
        <ele>692</ele>
        <time>2021-08-02T09:00:20.380Z</time>
      </trkpt>
      <trkpt lat="47.04501" lon="9.02343">
        <ele>692</ele>
        <time>2021-08-02T09:00:21.380Z</time>
      </trkpt>
      <trkpt lat="47.04502" lon="9.02342">
        <ele>692</ele>
        <time>2021-08-02T09:00:22.380Z</time>
      </trkpt>
      <trkpt lat="47.04502" lon="9.02341">
        <ele>691</ele>
        <time>2021-08-02T09:00:23.381Z</time>
      </trkpt>
      <trkpt lat="47.04501" lon="9.02341">
        <ele>691</ele>
        <time>2021-08-02T09:00:24.381Z</time>
      </trkpt>
      <trkpt lat="47.045" lon="9.02341">
        <ele>691</ele>
        <time>2021-08-02T09:00:25.381Z</time>
      </trkpt>
      <trkpt lat="47.04499" lon="9.0234">
        <ele>691</ele>
        <time>2021-08-02T09:00:26.380Z</time>
      </trkpt>
      <trkpt lat="47.04498" lon="9.0234">
        <ele>690</ele>
        <time>2021-08-02T09:00:27.381Z</time>
      </trkpt>
      <trkpt lat="47.04497" lon="9.0234">
        <ele>690</ele>
        <time>2021-08-02T09:00:28.381Z</time>
      </trkpt>
      <trkpt lat="47.04496" lon="9.02339">
        <ele>689</ele>
        <time>2021-08-02T09:00:29.381Z</time>
      </trkpt>
      <trkpt lat="47.04495" lon="9.02339">
        <ele>689</ele>
        <time>2021-08-02T09:00:30.381Z</time>
      </trkpt>
      <trkpt lat="47.04494" lon="9.02339">
        <ele>689</ele>
        <time>2021-08-02T09:00:31.380Z</time>
      </trkpt>
      <trkpt lat="47.04493" lon="9.02338">
        <ele>688</ele>
        <time>2021-08-02T09:00:32.381Z</time>
      </trkpt>
      <trkpt lat="47.04492" lon="9.02338">
        <ele>688</ele>
        <time>2021-08-02T09:00:33.381Z</time>
      </trkpt>
      <trkpt lat="47.04491" lon="9.02337">
        <ele>687</ele>
        <time>2021-08-02T09:00:34.381Z</time>
      </trkpt>
      <trkpt lat="47.0449" lon="9.02336">
        <ele>687</ele>
        <time>2021-08-02T09:00:35.381Z</time>
      </trkpt>
      <trkpt lat="47.04489" lon="9.02336">
        <ele>687</ele>
        <time>2021-08-02T09:00:36.380Z</time>
      </trkpt>
      <trkpt lat="47.04488" lon="9.02335">
        <ele>687</ele>
        <time>2021-08-02T09:00:37.380Z</time>
      </trkpt>
      <trkpt lat="47.04486" lon="9.02335">
        <ele>687</ele>
        <time>2021-08-02T09:00:38.381Z</time>
      </trkpt>
      <trkpt lat="47.04485" lon="9.02335">
        <ele>687</ele>
        <time>2021-08-02T09:00:39.380Z</time>
      </trkpt>
      <trkpt lat="47.04484" lon="9.02334">
        <ele>687</ele>
        <time>2021-08-02T09:00:40.380Z</time>
      </trkpt>
      <trkpt lat="47.04483" lon="9.02333">
        <ele>688</ele>
        <time>2021-08-02T09:00:41.380Z</time>
      </trkpt>
      <trkpt lat="47.04483" lon="9.02332">
        <ele>688</ele>
        <time>2021-08-02T09:00:42.380Z</time>
      </trkpt>
      <trkpt lat="47.04482" lon="9.02332">
        <ele>688</ele>
        <time>2021-08-02T09:00:43.380Z</time>
      </trkpt>
      <trkpt lat="47.04481" lon="9.02331">
        <ele>689</ele>
        <time>2021-08-02T09:00:44.380Z</time>
      </trkpt>
      <trkpt lat="47.04481" lon="9.02332">
        <ele>689</ele>
        <time>2021-08-02T09:00:45.380Z</time>
      </trkpt>
      <trkpt lat="47.0448" lon="9.02332">
        <ele>690</ele>
        <time>2021-08-02T09:00:46.380Z</time>
      </trkpt>
      <trkpt lat="47.04479" lon="9.02332">
        <ele>690</ele>
        <time>2021-08-02T09:00:47.380Z</time>
      </trkpt>
      <trkpt lat="47.04478" lon="9.02333">
        <ele>691</ele>
        <time>2021-08-02T09:00:48.380Z</time>
      </trkpt>
      <trkpt lat="47.04477" lon="9.02333">
        <ele>692</ele>
        <time>2021-08-02T09:00:49.380Z</time>
      </trkpt>
      <trkpt lat="47.04477" lon="9.02332">
        <ele>692</ele>
        <time>2021-08-02T09:00:50.380Z</time>
      </trkpt>
      <trkpt lat="47.04476" lon="9.02332">
        <ele>692</ele>
        <time>2021-08-02T09:00:51.381Z</time>
      </trkpt>
      <trkpt lat="47.04476" lon="9.02331">
        <ele>692</ele>
        <time>2021-08-02T09:00:52.380Z</time>
      </trkpt>
      <trkpt lat="47.04476" lon="9.0233">
        <ele>692</ele>
        <time>2021-08-02T09:00:53.380Z</time>
      </trkpt>
      <trkpt lat="47.04475" lon="9.02329">
        <ele>692</ele>
        <time>2021-08-02T09:00:54.381Z</time>
      </trkpt>
      <trkpt lat="47.04474" lon="9.02328">
        <ele>693</ele>
        <time>2021-08-02T09:00:55.381Z</time>
      </trkpt>
      <trkpt lat="47.04472" lon="9.02328">
        <ele>693</ele>
        <time>2021-08-02T09:00:56.380Z</time>
      </trkpt>
      <trkpt lat="47.04471" lon="9.02328">
        <ele>693</ele>
        <time>2021-08-02T09:00:57.380Z</time>
      </trkpt>
      <trkpt lat="47.0447" lon="9.02327">
        <ele>693</ele>
        <time>2021-08-02T09:00:58.380Z</time>
      </trkpt>
      <trkpt lat="47.04468" lon="9.02326">
        <ele>693</ele>
        <time>2021-08-02T09:00:59.380Z</time>
      </trkpt>
      <trkpt lat="47.04467" lon="9.02326">
        <ele>693</ele>
        <time>2021-08-02T09:01:00.381Z</time>
      </trkpt>
      <trkpt lat="47.04466" lon="9.02326">
        <ele>693</ele>
        <time>2021-08-02T09:01:01.381Z</time>
      </trkpt>
      <trkpt lat="47.04465" lon="9.02326">
        <ele>693</ele>
        <time>2021-08-02T09:01:02.380Z</time>
      </trkpt>
      <trkpt lat="47.04464" lon="9.02327">
        <ele>693</ele>
        <time>2021-08-02T09:01:03.380Z</time>
      </trkpt>
      <trkpt lat="47.04463" lon="9.02327">
        <ele>693</ele>
        <time>2021-08-02T09:01:04.381Z</time>
      </trkpt>
      <trkpt lat="47.04461" lon="9.02329">
        <ele>694</ele>
        <time>2021-08-02T09:01:05.381Z</time>
      </trkpt>
      <trkpt lat="47.0446" lon="9.02329">
        <ele>694</ele>
        <time>2021-08-02T09:01:06.381Z</time>
      </trkpt>
      <trkpt lat="47.04459" lon="9.0233">
        <ele>695</ele>
        <time>2021-08-02T09:01:07.381Z</time>
      </trkpt>
      <trkpt lat="47.04458" lon="9.02331">
        <ele>696</ele>
        <time>2021-08-02T09:01:08.380Z</time>
      </trkpt>
      <trkpt lat="47.04457" lon="9.02331">
        <ele>696</ele>
        <time>2021-08-02T09:01:09.380Z</time>
      </trkpt>
      <trkpt lat="47.04455" lon="9.02332">
        <ele>697</ele>
        <time>2021-08-02T09:01:10.381Z</time>
      </trkpt>
      <trkpt lat="47.04454" lon="9.02332">
        <ele>698</ele>
        <time>2021-08-02T09:01:11.381Z</time>
      </trkpt>
      <trkpt lat="47.04453" lon="9.02334">
        <ele>698</ele>
        <time>2021-08-02T09:01:12.380Z</time>
      </trkpt>
      <trkpt lat="47.04452" lon="9.02333">
        <ele>699</ele>
        <time>2021-08-02T09:01:13.381Z</time>
      </trkpt>
      <trkpt lat="47.04451" lon="9.02334">
        <ele>700</ele>
        <time>2021-08-02T09:01:14.380Z</time>
      </trkpt>
      <trkpt lat="47.04449" lon="9.02336">
        <ele>700</ele>
        <time>2021-08-02T09:01:15.381Z</time>
      </trkpt>
      <trkpt lat="47.04448" lon="9.02334">
        <ele>701</ele>
        <time>2021-08-02T09:01:16.381Z</time>
      </trkpt>
      <trkpt lat="47.04446" lon="9.02334">
        <ele>702</ele>
        <time>2021-08-02T09:01:17.380Z</time>
      </trkpt>
      <trkpt lat="47.04446" lon="9.02332">
        <ele>702</ele>
        <time>2021-08-02T09:01:18.381Z</time>
      </trkpt>
      <trkpt lat="47.04445" lon="9.02331">
        <ele>703</ele>
        <time>2021-08-02T09:01:19.381Z</time>
      </trkpt>
      <trkpt lat="47.04445" lon="9.02331">
        <ele>703</ele>
        <time>2021-08-02T09:01:20.380Z</time>
      </trkpt>
      <trkpt lat="47.04445" lon="9.0233">
        <ele>703</ele>
        <time>2021-08-02T09:01:21.381Z</time>
      </trkpt>
      <trkpt lat="47.04445" lon="9.0233">
        <ele>704</ele>
        <time>2021-08-02T09:01:22.381Z</time>
      </trkpt>
      <trkpt lat="47.04444" lon="9.02329">
        <ele>704</ele>
        <time>2021-08-02T09:01:23.381Z</time>
      </trkpt>
      <trkpt lat="47.04444" lon="9.02329">
        <ele>705</ele>
        <time>2021-08-02T09:01:24.380Z</time>
      </trkpt>
      <trkpt lat="47.04444" lon="9.02328">
        <ele>705</ele>
        <time>2021-08-02T09:01:25.380Z</time>
      </trkpt>
      <trkpt lat="47.04444" lon="9.02327">
        <ele>706</ele>
        <time>2021-08-02T09:01:26.381Z</time>
      </trkpt>
      <trkpt lat="47.04444" lon="9.02327">
        <ele>706</ele>
        <time>2021-08-02T09:01:27.381Z</time>
      </trkpt>
      <trkpt lat="47.04444" lon="9.02323">
        <ele>708</ele>
        <time>2021-08-02T09:01:28.382Z</time>
      </trkpt>
      <trkpt lat="47.04444" lon="9.02323">
        <ele>708</ele>
        <time>2021-08-02T09:01:29.382Z</time>
      </trkpt>
      <trkpt lat="47.04444" lon="9.02322">
        <ele>708</ele>
        <time>2021-08-02T09:01:30.381Z</time>
      </trkpt>
      <trkpt lat="47.04443" lon="9.02322">
        <ele>709</ele>
        <time>2021-08-02T09:01:31.382Z</time>
      </trkpt>
      <trkpt lat="47.04441" lon="9.02321">
        <ele>715</ele>
        <time>2021-08-02T09:01:32.382Z</time>
      </trkpt>
      <trkpt lat="47.04441" lon="9.02322">
        <ele>715</ele>
        <time>2021-08-02T09:01:33.382Z</time>
      </trkpt>
      <trkpt lat="47.0444" lon="9.02323">
        <ele>715</ele>
        <time>2021-08-02T09:01:34.382Z</time>
      </trkpt>
      <trkpt lat="47.04439" lon="9.02323">
        <ele>715</ele>
        <time>2021-08-02T09:01:35.383Z</time>
      </trkpt>
      <trkpt lat="47.04439" lon="9.02324">
        <ele>715</ele>
        <time>2021-08-02T09:01:36.383Z</time>
      </trkpt>
      <trkpt lat="47.04439" lon="9.02325">
        <ele>715</ele>
        <time>2021-08-02T09:01:37.382Z</time>
      </trkpt>
      <trkpt lat="47.04439" lon="9.02326">
        <ele>715</ele>
        <time>2021-08-02T09:01:38.383Z</time>
      </trkpt>
      <trkpt lat="47.04439" lon="9.02326">
        <ele>716</ele>
        <time>2021-08-02T09:01:39.382Z</time>
      </trkpt>
      <trkpt lat="47.04438" lon="9.02326">
        <ele>716</ele>
        <time>2021-08-02T09:01:40.383Z</time>
      </trkpt>
      <trkpt lat="47.04437" lon="9.02326">
        <ele>716</ele>
        <time>2021-08-02T09:01:41.383Z</time>
      </trkpt>
      <trkpt lat="47.04436" lon="9.02327">
        <ele>716</ele>
        <time>2021-08-02T09:01:42.383Z</time>
      </trkpt>
      <trkpt lat="47.04435" lon="9.02327">
        <ele>716</ele>
        <time>2021-08-02T09:01:43.383Z</time>
      </trkpt>
      <trkpt lat="47.04435" lon="9.02327">
        <ele>717</ele>
        <time>2021-08-02T09:01:44.383Z</time>
      </trkpt>
      <trkpt lat="47.04435" lon="9.02327">
        <ele>717</ele>
        <time>2021-08-02T09:01:45.382Z</time>
      </trkpt>
      <trkpt lat="47.04435" lon="9.02326">
        <ele>717</ele>
        <time>2021-08-02T09:01:46.383Z</time>
      </trkpt>
      <trkpt lat="47.04434" lon="9.02326">
        <ele>717</ele>
        <time>2021-08-02T09:01:47.383Z</time>
      </trkpt>
      <trkpt lat="47.04434" lon="9.02326">
        <ele>717</ele>
        <time>2021-08-02T09:01:48.383Z</time>
      </trkpt>
      <trkpt lat="47.04434" lon="9.02325">
        <ele>717</ele>
        <time>2021-08-02T09:01:49.383Z</time>
      </trkpt>
      <trkpt lat="47.04433" lon="9.02325">
        <ele>717</ele>
        <time>2021-08-02T09:01:50.383Z</time>
      </trkpt>
      <trkpt lat="47.04433" lon="9.02324">
        <ele>716</ele>
        <time>2021-08-02T09:01:51.383Z</time>
      </trkpt>
      <trkpt lat="47.04432" lon="9.02324">
        <ele>716</ele>
        <time>2021-08-02T09:01:52.383Z</time>
      </trkpt>
      <trkpt lat="47.04432" lon="9.02323">
        <ele>716</ele>
        <time>2021-08-02T09:01:53.383Z</time>
      </trkpt>
      <trkpt lat="47.04432" lon="9.02322">
        <ele>716</ele>
        <time>2021-08-02T09:01:54.383Z</time>
      </trkpt>
      <trkpt lat="47.04431" lon="9.02322">
        <ele>717</ele>
        <time>2021-08-02T09:01:55.383Z</time>
      </trkpt>
      <trkpt lat="47.04431" lon="9.02321">
        <ele>718</ele>
        <time>2021-08-02T09:01:56.383Z</time>
      </trkpt>
      <trkpt lat="47.0443" lon="9.02321">
        <ele>718</ele>
        <time>2021-08-02T09:01:57.383Z</time>
      </trkpt>
      <trkpt lat="47.0443" lon="9.0232">
        <ele>719</ele>
        <time>2021-08-02T09:01:58.383Z</time>
      </trkpt>
      <trkpt lat="47.0443" lon="9.02321">
        <ele>719</ele>
        <time>2021-08-02T09:01:59.383Z</time>
      </trkpt>
      <trkpt lat="47.0443" lon="9.0232">
        <ele>720</ele>
        <time>2021-08-02T09:02:00.384Z</time>
      </trkpt>
      <trkpt lat="47.04428" lon="9.02317">
        <ele>722</ele>
        <time>2021-08-02T09:02:01.384Z</time>
      </trkpt>
      <trkpt lat="47.04427" lon="9.02318">
        <ele>723</ele>
        <time>2021-08-02T09:02:02.385Z</time>
      </trkpt>
      <trkpt lat="47.04425" lon="9.02319">
        <ele>723</ele>
        <time>2021-08-02T09:02:03.384Z</time>
      </trkpt>
      <trkpt lat="47.04421" lon="9.02319">
        <ele>725</ele>
        <time>2021-08-02T09:02:04.385Z</time>
      </trkpt>
      <trkpt lat="47.0442" lon="9.0232">
        <ele>731</ele>
        <time>2021-08-02T09:02:05.386Z</time>
      </trkpt>
      <trkpt lat="47.0442" lon="9.0232">
        <ele>732</ele>
        <time>2021-08-02T09:02:06.387Z</time>
      </trkpt>
      <trkpt lat="47.04418" lon="9.02322">
        <ele>731</ele>
        <time>2021-08-02T09:02:07.386Z</time>
      </trkpt>
      <trkpt lat="47.04418" lon="9.02321">
        <ele>730</ele>
        <time>2021-08-02T09:02:08.387Z</time>
      </trkpt>
      <trkpt lat="47.04418" lon="9.02321">
        <ele>730</ele>
        <time>2021-08-02T09:02:09.386Z</time>
      </trkpt>
      <trkpt lat="47.04418" lon="9.02321">
        <ele>729</ele>
        <time>2021-08-02T09:02:10.387Z</time>
      </trkpt>
      <trkpt lat="47.04418" lon="9.02322">
        <ele>729</ele>
        <time>2021-08-02T09:02:11.387Z</time>
      </trkpt>
      <trkpt lat="47.04419" lon="9.02322">
        <ele>729</ele>
        <time>2021-08-02T09:02:12.387Z</time>
      </trkpt>
      <trkpt lat="47.04418" lon="9.02321">
        <ele>729</ele>
        <time>2021-08-02T09:02:13.388Z</time>
      </trkpt>
      <trkpt lat="47.04418" lon="9.02321">
        <ele>729</ele>
        <time>2021-08-02T09:02:14.388Z</time>
      </trkpt>
      <trkpt lat="47.04418" lon="9.02321">
        <ele>729</ele>
        <time>2021-08-02T09:02:15.387Z</time>
      </trkpt>
      <trkpt lat="47.04418" lon="9.0232">
        <ele>729</ele>
        <time>2021-08-02T09:02:16.387Z</time>
      </trkpt>
      <trkpt lat="47.04419" lon="9.02318">
        <ele>730</ele>
        <time>2021-08-02T09:02:17.388Z</time>
      </trkpt>
      <trkpt lat="47.04419" lon="9.02316">
        <ele>730</ele>
        <time>2021-08-02T09:02:18.387Z</time>
      </trkpt>
      <trkpt lat="47.04419" lon="9.02315">
        <ele>730</ele>
        <time>2021-08-02T09:02:19.387Z</time>
      </trkpt>
      <trkpt lat="47.04417" lon="9.02314">
        <ele>730</ele>
        <time>2021-08-02T09:02:20.388Z</time>
      </trkpt>
      <trkpt lat="47.04416" lon="9.02313">
        <ele>730</ele>
        <time>2021-08-02T09:02:21.388Z</time>
      </trkpt>
      <trkpt lat="47.04416" lon="9.02312">
        <ele>731</ele>
        <time>2021-08-02T09:02:22.388Z</time>
      </trkpt>
      <trkpt lat="47.04416" lon="9.02311">
        <ele>731</ele>
        <time>2021-08-02T09:02:23.387Z</time>
      </trkpt>
      <trkpt lat="47.04416" lon="9.0231">
        <ele>731</ele>
        <time>2021-08-02T09:02:24.388Z</time>
      </trkpt>
      <trkpt lat="47.04417" lon="9.02309">
        <ele>732</ele>
        <time>2021-08-02T09:02:25.388Z</time>
      </trkpt>
      <trkpt lat="47.04417" lon="9.02308">
        <ele>732</ele>
        <time>2021-08-02T09:02:26.388Z</time>
      </trkpt>
      <trkpt lat="47.04416" lon="9.02307">
        <ele>732</ele>
        <time>2021-08-02T09:02:27.388Z</time>
      </trkpt>
      <trkpt lat="47.04416" lon="9.02306">
        <ele>732</ele>
        <time>2021-08-02T09:02:28.387Z</time>
      </trkpt>
      <trkpt lat="47.04415" lon="9.02306">
        <ele>732</ele>
        <time>2021-08-02T09:02:29.387Z</time>
      </trkpt>
      <trkpt lat="47.04414" lon="9.02306">
        <ele>732</ele>
        <time>2021-08-02T09:02:30.388Z</time>
      </trkpt>
      <trkpt lat="47.04413" lon="9.02306">
        <ele>731</ele>
        <time>2021-08-02T09:02:31.388Z</time>
      </trkpt>
      <trkpt lat="47.04413" lon="9.02306">
        <ele>731</ele>
        <time>2021-08-02T09:02:32.388Z</time>
      </trkpt>
      <trkpt lat="47.04412" lon="9.02306">
        <ele>731</ele>
        <time>2021-08-02T09:02:33.388Z</time>
      </trkpt>
      <trkpt lat="47.04411" lon="9.02306">
        <ele>730</ele>
        <time>2021-08-02T09:02:34.388Z</time>
      </trkpt>
      <trkpt lat="47.0441" lon="9.02306">
        <ele>730</ele>
        <time>2021-08-02T09:02:35.387Z</time>
      </trkpt>
      <trkpt lat="47.0441" lon="9.02306">
        <ele>729</ele>
        <time>2021-08-02T09:02:36.388Z</time>
      </trkpt>
      <trkpt lat="47.04409" lon="9.02305">
        <ele>729</ele>
        <time>2021-08-02T09:02:37.388Z</time>
      </trkpt>
      <trkpt lat="47.04409" lon="9.02305">
        <ele>729</ele>
        <time>2021-08-02T09:02:38.388Z</time>
      </trkpt>
      <trkpt lat="47.04409" lon="9.02305">
        <ele>729</ele>
        <time>2021-08-02T09:02:39.388Z</time>
      </trkpt>
      <trkpt lat="47.04408" lon="9.02304">
        <ele>729</ele>
        <time>2021-08-02T09:02:40.389Z</time>
      </trkpt>
      <trkpt lat="47.04408" lon="9.02303">
        <ele>729</ele>
        <time>2021-08-02T09:02:41.388Z</time>
      </trkpt>
      <trkpt lat="47.04407" lon="9.02302">
        <ele>729</ele>
        <time>2021-08-02T09:02:42.388Z</time>
      </trkpt>
      <trkpt lat="47.04406" lon="9.023">
        <ele>729</ele>
        <time>2021-08-02T09:02:43.389Z</time>
      </trkpt>
      <trkpt lat="47.04405" lon="9.02299">
        <ele>729</ele>
        <time>2021-08-02T09:02:44.389Z</time>
      </trkpt>
      <trkpt lat="47.04405" lon="9.02299">
        <ele>729</ele>
        <time>2021-08-02T09:02:45.389Z</time>
      </trkpt>
      <trkpt lat="47.04405" lon="9.02299">
        <ele>729</ele>
        <time>2021-08-02T09:02:46.388Z</time>
      </trkpt>
      <trkpt lat="47.04403" lon="9.02299">
        <ele>729</ele>
        <time>2021-08-02T09:02:47.389Z</time>
      </trkpt>
      <trkpt lat="47.04403" lon="9.02298">
        <ele>729</ele>
        <time>2021-08-02T09:02:48.388Z</time>
      </trkpt>
      <trkpt lat="47.04403" lon="9.02298">
        <ele>729</ele>
        <time>2021-08-02T09:02:49.389Z</time>
      </trkpt>
      <trkpt lat="47.04404" lon="9.02297">
        <ele>728</ele>
        <time>2021-08-02T09:02:50.388Z</time>
      </trkpt>
      <trkpt lat="47.04403" lon="9.02296">
        <ele>728</ele>
        <time>2021-08-02T09:02:51.389Z</time>
      </trkpt>
      <trkpt lat="47.04401" lon="9.02296">
        <ele>727</ele>
        <time>2021-08-02T09:02:52.389Z</time>
      </trkpt>
      <trkpt lat="47.04399" lon="9.02297">
        <ele>727</ele>
        <time>2021-08-02T09:02:53.388Z</time>
      </trkpt>
      <trkpt lat="47.04397" lon="9.02295">
        <ele>726</ele>
        <time>2021-08-02T09:02:54.389Z</time>
      </trkpt>
      <trkpt lat="47.04396" lon="9.02294">
        <ele>726</ele>
        <time>2021-08-02T09:02:55.389Z</time>
      </trkpt>
      <trkpt lat="47.04396" lon="9.02293">
        <ele>725</ele>
        <time>2021-08-02T09:02:56.389Z</time>
      </trkpt>
      <trkpt lat="47.04395" lon="9.02292">
        <ele>725</ele>
        <time>2021-08-02T09:02:57.389Z</time>
      </trkpt>
      <trkpt lat="47.04394" lon="9.0229">
        <ele>725</ele>
        <time>2021-08-02T09:02:58.389Z</time>
      </trkpt>
      <trkpt lat="47.04393" lon="9.0229">
        <ele>725</ele>
        <time>2021-08-02T09:02:59.388Z</time>
      </trkpt>
      <trkpt lat="47.04392" lon="9.02289">
        <ele>724</ele>
        <time>2021-08-02T09:03:00.389Z</time>
      </trkpt>
      <trkpt lat="47.04391" lon="9.02288">
        <ele>724</ele>
        <time>2021-08-02T09:03:01.389Z</time>
      </trkpt>
      <trkpt lat="47.0439" lon="9.02287">
        <ele>724</ele>
        <time>2021-08-02T09:03:02.388Z</time>
      </trkpt>
      <trkpt lat="47.0439" lon="9.02286">
        <ele>723</ele>
        <time>2021-08-02T09:03:03.388Z</time>
      </trkpt>
      <trkpt lat="47.04389" lon="9.02286">
        <ele>722</ele>
        <time>2021-08-02T09:03:04.389Z</time>
      </trkpt>
      <trkpt lat="47.04389" lon="9.02285">
        <ele>722</ele>
        <time>2021-08-02T09:03:05.389Z</time>
      </trkpt>
      <trkpt lat="47.04389" lon="9.02283">
        <ele>721</ele>
        <time>2021-08-02T09:03:06.389Z</time>
      </trkpt>
      <trkpt lat="47.04389" lon="9.02282">
        <ele>721</ele>
        <time>2021-08-02T09:03:07.389Z</time>
      </trkpt>
      <trkpt lat="47.04389" lon="9.02282">
        <ele>721</ele>
        <time>2021-08-02T09:03:08.388Z</time>
      </trkpt>
      <trkpt lat="47.04389" lon="9.02281">
        <ele>720</ele>
        <time>2021-08-02T09:03:09.389Z</time>
      </trkpt>
      <trkpt lat="47.04388" lon="9.02281">
        <ele>720</ele>
        <time>2021-08-02T09:03:10.389Z</time>
      </trkpt>
      <trkpt lat="47.04388" lon="9.02281">
        <ele>719</ele>
        <time>2021-08-02T09:03:11.388Z</time>
      </trkpt>
      <trkpt lat="47.04388" lon="9.0228">
        <ele>718</ele>
        <time>2021-08-02T09:03:12.389Z</time>
      </trkpt>
      <trkpt lat="47.04388" lon="9.0228">
        <ele>718</ele>
        <time>2021-08-02T09:03:13.388Z</time>
      </trkpt>
      <trkpt lat="47.04388" lon="9.0228">
        <ele>718</ele>
        <time>2021-08-02T09:03:14.389Z</time>
      </trkpt>
      <trkpt lat="47.04389" lon="9.02279">
        <ele>716</ele>
        <time>2021-08-02T09:03:15.389Z</time>
      </trkpt>
      <trkpt lat="47.0439" lon="9.02278">
        <ele>716</ele>
        <time>2021-08-02T09:03:16.389Z</time>
      </trkpt>
      <trkpt lat="47.04391" lon="9.02277">
        <ele>716</ele>
        <time>2021-08-02T09:03:17.389Z</time>
      </trkpt>
      <trkpt lat="47.04392" lon="9.02275">
        <ele>716</ele>
        <time>2021-08-02T09:03:18.388Z</time>
      </trkpt>
      <trkpt lat="47.04393" lon="9.02273">
        <ele>717</ele>
        <time>2021-08-02T09:03:19.389Z</time>
      </trkpt>
      <trkpt lat="47.04393" lon="9.02272">
        <ele>717</ele>
        <time>2021-08-02T09:03:20.389Z</time>
      </trkpt>
      <trkpt lat="47.04392" lon="9.02271">
        <ele>718</ele>
        <time>2021-08-02T09:03:21.388Z</time>
      </trkpt>
      <trkpt lat="47.04391" lon="9.02271">
        <ele>718</ele>
        <time>2021-08-02T09:03:22.389Z</time>
      </trkpt>
      <trkpt lat="47.0439" lon="9.0227">
        <ele>719</ele>
        <time>2021-08-02T09:03:23.389Z</time>
      </trkpt>
      <trkpt lat="47.0439" lon="9.0227">
        <ele>719</ele>
        <time>2021-08-02T09:03:24.389Z</time>
      </trkpt>
      <trkpt lat="47.04389" lon="9.02268">
        <ele>719</ele>
        <time>2021-08-02T09:03:25.388Z</time>
      </trkpt>
      <trkpt lat="47.04389" lon="9.02268">
        <ele>719</ele>
        <time>2021-08-02T09:03:26.388Z</time>
      </trkpt>
      <trkpt lat="47.04389" lon="9.02268">
        <ele>719</ele>
        <time>2021-08-02T09:03:27.389Z</time>
      </trkpt>
      <trkpt lat="47.04389" lon="9.02267">
        <ele>719</ele>
        <time>2021-08-02T09:03:28.388Z</time>
      </trkpt>
      <trkpt lat="47.04388" lon="9.02267">
        <ele>719</ele>
        <time>2021-08-02T09:03:29.389Z</time>
      </trkpt>
      <trkpt lat="47.04387" lon="9.02266">
        <ele>719</ele>
        <time>2021-08-02T09:03:30.388Z</time>
      </trkpt>
      <trkpt lat="47.04386" lon="9.02265">
        <ele>719</ele>
        <time>2021-08-02T09:03:31.388Z</time>
      </trkpt>
      <trkpt lat="47.04385" lon="9.02264">
        <ele>719</ele>
        <time>2021-08-02T09:03:32.389Z</time>
      </trkpt>
      <trkpt lat="47.04385" lon="9.02265">
        <ele>720</ele>
        <time>2021-08-02T09:03:33.389Z</time>
      </trkpt>
      <trkpt lat="47.04385" lon="9.02265">
        <ele>721</ele>
        <time>2021-08-02T09:03:34.388Z</time>
      </trkpt>
      <trkpt lat="47.04384" lon="9.02265">
        <ele>722</ele>
        <time>2021-08-02T09:03:35.388Z</time>
      </trkpt>
      <trkpt lat="47.04384" lon="9.02264">
        <ele>722</ele>
        <time>2021-08-02T09:03:36.388Z</time>
      </trkpt>
      <trkpt lat="47.04384" lon="9.02264">
        <ele>723</ele>
        <time>2021-08-02T09:03:37.388Z</time>
      </trkpt>
      <trkpt lat="47.04384" lon="9.02263">
        <ele>724</ele>
        <time>2021-08-02T09:03:38.389Z</time>
      </trkpt>
      <trkpt lat="47.04384" lon="9.02262">
        <ele>724</ele>
        <time>2021-08-02T09:03:39.388Z</time>
      </trkpt>
      <trkpt lat="47.04384" lon="9.02262">
        <ele>725</ele>
        <time>2021-08-02T09:03:40.389Z</time>
      </trkpt>
      <trkpt lat="47.04384" lon="9.02261">
        <ele>725</ele>
        <time>2021-08-02T09:03:41.388Z</time>
      </trkpt>
      <trkpt lat="47.04384" lon="9.0226">
        <ele>725</ele>
        <time>2021-08-02T09:03:42.389Z</time>
      </trkpt>
      <trkpt lat="47.04383" lon="9.02259">
        <ele>726</ele>
        <time>2021-08-02T09:03:43.388Z</time>
      </trkpt>
      <trkpt lat="47.04383" lon="9.02258">
        <ele>726</ele>
        <time>2021-08-02T09:03:44.389Z</time>
      </trkpt>
      <trkpt lat="47.04382" lon="9.02258">
        <ele>726</ele>
        <time>2021-08-02T09:03:45.389Z</time>
      </trkpt>
      <trkpt lat="47.04382" lon="9.02257">
        <ele>727</ele>
        <time>2021-08-02T09:03:46.389Z</time>
      </trkpt>
      <trkpt lat="47.04381" lon="9.02256">
        <ele>727</ele>
        <time>2021-08-02T09:03:47.389Z</time>
      </trkpt>
      <trkpt lat="47.0438" lon="9.02256">
        <ele>727</ele>
        <time>2021-08-02T09:03:48.389Z</time>
      </trkpt>
      <trkpt lat="47.0438" lon="9.02256">
        <ele>727</ele>
        <time>2021-08-02T09:03:49.389Z</time>
      </trkpt>
      <trkpt lat="47.0438" lon="9.02255">
        <ele>727</ele>
        <time>2021-08-02T09:03:50.388Z</time>
      </trkpt>
      <trkpt lat="47.0438" lon="9.02255">
        <ele>728</ele>
        <time>2021-08-02T09:03:51.389Z</time>
      </trkpt>
      <trkpt lat="47.0438" lon="9.02253">
        <ele>727</ele>
        <time>2021-08-02T09:03:52.389Z</time>
      </trkpt>
      <trkpt lat="47.0438" lon="9.02252">
        <ele>727</ele>
        <time>2021-08-02T09:03:53.388Z</time>
      </trkpt>
      <trkpt lat="47.04379" lon="9.02251">
        <ele>727</ele>
        <time>2021-08-02T09:03:54.388Z</time>
      </trkpt>
      <trkpt lat="47.04379" lon="9.02249">
        <ele>727</ele>
        <time>2021-08-02T09:03:55.389Z</time>
      </trkpt>
      <trkpt lat="47.04379" lon="9.02248">
        <ele>726</ele>
        <time>2021-08-02T09:03:56.389Z</time>
      </trkpt>
      <trkpt lat="47.04379" lon="9.02247">
        <ele>727</ele>
        <time>2021-08-02T09:03:57.389Z</time>
      </trkpt>
      <trkpt lat="47.04379" lon="9.02246">
        <ele>727</ele>
        <time>2021-08-02T09:03:58.388Z</time>
      </trkpt>
      <trkpt lat="47.04378" lon="9.02244">
        <ele>727</ele>
        <time>2021-08-02T09:03:59.389Z</time>
      </trkpt>
      <trkpt lat="47.04378" lon="9.02243">
        <ele>728</ele>
        <time>2021-08-02T09:04:00.389Z</time>
      </trkpt>
      <trkpt lat="47.04378" lon="9.02241">
        <ele>728</ele>
        <time>2021-08-02T09:04:01.389Z</time>
      </trkpt>
      <trkpt lat="47.04378" lon="9.0224">
        <ele>729</ele>
        <time>2021-08-02T09:04:02.388Z</time>
      </trkpt>
      <trkpt lat="47.04377" lon="9.02239">
        <ele>729</ele>
        <time>2021-08-02T09:04:03.389Z</time>
      </trkpt>
      <trkpt lat="47.04377" lon="9.02238">
        <ele>729</ele>
        <time>2021-08-02T09:04:04.389Z</time>
      </trkpt>
      <trkpt lat="47.04376" lon="9.02238">
        <ele>729</ele>
        <time>2021-08-02T09:04:05.388Z</time>
      </trkpt>
      <trkpt lat="47.04376" lon="9.02238">
        <ele>729</ele>
        <time>2021-08-02T09:04:06.389Z</time>
      </trkpt>
      <trkpt lat="47.04376" lon="9.02238">
        <ele>729</ele>
        <time>2021-08-02T09:04:07.389Z</time>
      </trkpt>
      <trkpt lat="47.04375" lon="9.02237">
        <ele>729</ele>
        <time>2021-08-02T09:04:08.389Z</time>
      </trkpt>
      <trkpt lat="47.04374" lon="9.02236">
        <ele>729</ele>
        <time>2021-08-02T09:04:09.388Z</time>
      </trkpt>
      <trkpt lat="47.04373" lon="9.02234">
        <ele>730</ele>
        <time>2021-08-02T09:04:10.389Z</time>
      </trkpt>
      <trkpt lat="47.04372" lon="9.02234">
        <ele>730</ele>
        <time>2021-08-02T09:04:11.389Z</time>
      </trkpt>
      <trkpt lat="47.04371" lon="9.02234">
        <ele>730</ele>
        <time>2021-08-02T09:04:12.388Z</time>
      </trkpt>
      <trkpt lat="47.0437" lon="9.02233">
        <ele>730</ele>
        <time>2021-08-02T09:04:13.389Z</time>
      </trkpt>
      <trkpt lat="47.04368" lon="9.02232">
        <ele>731</ele>
        <time>2021-08-02T09:04:14.389Z</time>
      </trkpt>
      <trkpt lat="47.04367" lon="9.02232">
        <ele>731</ele>
        <time>2021-08-02T09:04:15.389Z</time>
      </trkpt>
      <trkpt lat="47.04366" lon="9.02231">
        <ele>731</ele>
        <time>2021-08-02T09:04:16.389Z</time>
      </trkpt>
      <trkpt lat="47.04365" lon="9.0223">
        <ele>732</ele>
        <time>2021-08-02T09:04:17.389Z</time>
      </trkpt>
      <trkpt lat="47.04365" lon="9.02228">
        <ele>732</ele>
        <time>2021-08-02T09:04:18.388Z</time>
      </trkpt>
      <trkpt lat="47.04365" lon="9.02227">
        <ele>732</ele>
        <time>2021-08-02T09:04:19.389Z</time>
      </trkpt>
      <trkpt lat="47.04365" lon="9.02226">
        <ele>732</ele>
        <time>2021-08-02T09:04:20.388Z</time>
      </trkpt>
      <trkpt lat="47.04365" lon="9.02225">
        <ele>732</ele>
        <time>2021-08-02T09:04:21.389Z</time>
      </trkpt>
      <trkpt lat="47.04365" lon="9.02224">
        <ele>733</ele>
        <time>2021-08-02T09:04:22.388Z</time>
      </trkpt>
      <trkpt lat="47.04365" lon="9.02223">
        <ele>733</ele>
        <time>2021-08-02T09:04:23.389Z</time>
      </trkpt>
      <trkpt lat="47.04364" lon="9.02222">
        <ele>733</ele>
        <time>2021-08-02T09:04:24.389Z</time>
      </trkpt>
      <trkpt lat="47.04363" lon="9.02222">
        <ele>733</ele>
        <time>2021-08-02T09:04:25.389Z</time>
      </trkpt>
      <trkpt lat="47.04362" lon="9.02222">
        <ele>733</ele>
        <time>2021-08-02T09:04:26.389Z</time>
      </trkpt>
      <trkpt lat="47.04361" lon="9.02222">
        <ele>734</ele>
        <time>2021-08-02T09:04:27.389Z</time>
      </trkpt>
      <trkpt lat="47.04361" lon="9.02222">
        <ele>734</ele>
        <time>2021-08-02T09:04:28.388Z</time>
      </trkpt>
      <trkpt lat="47.04361" lon="9.0222">
        <ele>734</ele>
        <time>2021-08-02T09:04:29.389Z</time>
      </trkpt>
      <trkpt lat="47.0436" lon="9.02218">
        <ele>734</ele>
        <time>2021-08-02T09:04:30.388Z</time>
      </trkpt>
      <trkpt lat="47.0436" lon="9.02215">
        <ele>734</ele>
        <time>2021-08-02T09:04:31.389Z</time>
      </trkpt>
      <trkpt lat="47.0436" lon="9.02213">
        <ele>734</ele>
        <time>2021-08-02T09:04:32.389Z</time>
      </trkpt>
      <trkpt lat="47.04359" lon="9.02212">
        <ele>735</ele>
        <time>2021-08-02T09:04:33.388Z</time>
      </trkpt>
      <trkpt lat="47.04359" lon="9.02211">
        <ele>735</ele>
        <time>2021-08-02T09:04:34.389Z</time>
      </trkpt>
      <trkpt lat="47.04359" lon="9.0221">
        <ele>735</ele>
        <time>2021-08-02T09:04:35.389Z</time>
      </trkpt>
      <trkpt lat="47.04358" lon="9.02208">
        <ele>735</ele>
        <time>2021-08-02T09:04:36.388Z</time>
      </trkpt>
      <trkpt lat="47.04357" lon="9.02207">
        <ele>735</ele>
        <time>2021-08-02T09:04:37.389Z</time>
      </trkpt>
      <trkpt lat="47.04357" lon="9.02206">
        <ele>736</ele>
        <time>2021-08-02T09:04:38.389Z</time>
      </trkpt>
      <trkpt lat="47.04357" lon="9.02204">
        <ele>736</ele>
        <time>2021-08-02T09:04:39.388Z</time>
      </trkpt>
      <trkpt lat="47.04357" lon="9.02202">
        <ele>736</ele>
        <time>2021-08-02T09:04:40.389Z</time>
      </trkpt>
      <trkpt lat="47.04356" lon="9.02201">
        <ele>736</ele>
        <time>2021-08-02T09:04:41.389Z</time>
      </trkpt>
      <trkpt lat="47.04356" lon="9.022">
        <ele>736</ele>
        <time>2021-08-02T09:04:42.388Z</time>
      </trkpt>
      <trkpt lat="47.04356" lon="9.02199">
        <ele>736</ele>
        <time>2021-08-02T09:04:43.389Z</time>
      </trkpt>
      <trkpt lat="47.04356" lon="9.02199">
        <ele>736</ele>
        <time>2021-08-02T09:04:44.389Z</time>
      </trkpt>
      <trkpt lat="47.04355" lon="9.02198">
        <ele>736</ele>
        <time>2021-08-02T09:04:45.388Z</time>
      </trkpt>
      <trkpt lat="47.04355" lon="9.02197">
        <ele>735</ele>
        <time>2021-08-02T09:04:46.388Z</time>
      </trkpt>
      <trkpt lat="47.04355" lon="9.02197">
        <ele>735</ele>
        <time>2021-08-02T09:04:47.388Z</time>
      </trkpt>
      <trkpt lat="47.04354" lon="9.02196">
        <ele>735</ele>
        <time>2021-08-02T09:04:48.388Z</time>
      </trkpt>
      <trkpt lat="47.04353" lon="9.02195">
        <ele>735</ele>
        <time>2021-08-02T09:04:49.389Z</time>
      </trkpt>
      <trkpt lat="47.04353" lon="9.02194">
        <ele>734</ele>
        <time>2021-08-02T09:04:50.389Z</time>
      </trkpt>
      <trkpt lat="47.04352" lon="9.02193">
        <ele>734</ele>
        <time>2021-08-02T09:04:51.388Z</time>
      </trkpt>
      <trkpt lat="47.04352" lon="9.02192">
        <ele>734</ele>
        <time>2021-08-02T09:04:52.389Z</time>
      </trkpt>
      <trkpt lat="47.04351" lon="9.0219">
        <ele>734</ele>
        <time>2021-08-02T09:04:53.388Z</time>
      </trkpt>
      <trkpt lat="47.04351" lon="9.02188">
        <ele>733</ele>
        <time>2021-08-02T09:04:54.389Z</time>
      </trkpt>
      <trkpt lat="47.0435" lon="9.02187">
        <ele>733</ele>
        <time>2021-08-02T09:04:55.388Z</time>
      </trkpt>
      <trkpt lat="47.04351" lon="9.02186">
        <ele>732</ele>
        <time>2021-08-02T09:04:56.388Z</time>
      </trkpt>
      <trkpt lat="47.04351" lon="9.02185">
        <ele>732</ele>
        <time>2021-08-02T09:04:57.389Z</time>
      </trkpt>
      <trkpt lat="47.04352" lon="9.02183">
        <ele>732</ele>
        <time>2021-08-02T09:04:58.389Z</time>
      </trkpt>
      <trkpt lat="47.04351" lon="9.02182">
        <ele>731</ele>
        <time>2021-08-02T09:04:59.388Z</time>
      </trkpt>
      <trkpt lat="47.04351" lon="9.02179">
        <ele>731</ele>
        <time>2021-08-02T09:05:00.388Z</time>
      </trkpt>
      <trkpt lat="47.0435" lon="9.02177">
        <ele>731</ele>
        <time>2021-08-02T09:05:01.389Z</time>
      </trkpt>
      <trkpt lat="47.04351" lon="9.02175">
        <ele>731</ele>
        <time>2021-08-02T09:05:02.389Z</time>
      </trkpt>
      <trkpt lat="47.04351" lon="9.02173">
        <ele>731</ele>
        <time>2021-08-02T09:05:03.388Z</time>
      </trkpt>
      <trkpt lat="47.0435" lon="9.02172">
        <ele>732</ele>
        <time>2021-08-02T09:05:04.388Z</time>
      </trkpt>
      <trkpt lat="47.04349" lon="9.0217">
        <ele>732</ele>
        <time>2021-08-02T09:05:05.388Z</time>
      </trkpt>
      <trkpt lat="47.04349" lon="9.0217">
        <ele>732</ele>
        <time>2021-08-02T09:05:06.388Z</time>
      </trkpt>
      <trkpt lat="47.04349" lon="9.02169">
        <ele>732</ele>
        <time>2021-08-02T09:05:07.389Z</time>
      </trkpt>
      <trkpt lat="47.04348" lon="9.02168">
        <ele>732</ele>
        <time>2021-08-02T09:05:08.389Z</time>
      </trkpt>
      <trkpt lat="47.04348" lon="9.02168">
        <ele>732</ele>
        <time>2021-08-02T09:05:09.388Z</time>
      </trkpt>
      <trkpt lat="47.04348" lon="9.02167">
        <ele>732</ele>
        <time>2021-08-02T09:05:10.389Z</time>
      </trkpt>
      <trkpt lat="47.04348" lon="9.02166">
        <ele>732</ele>
        <time>2021-08-02T09:05:11.389Z</time>
      </trkpt>
      <trkpt lat="47.04348" lon="9.02165">
        <ele>732</ele>
        <time>2021-08-02T09:05:12.388Z</time>
      </trkpt>
      <trkpt lat="47.04347" lon="9.02164">
        <ele>732</ele>
        <time>2021-08-02T09:05:13.388Z</time>
      </trkpt>
      <trkpt lat="47.04347" lon="9.02163">
        <ele>732</ele>
        <time>2021-08-02T09:05:14.388Z</time>
      </trkpt>
      <trkpt lat="47.04346" lon="9.02161">
        <ele>733</ele>
        <time>2021-08-02T09:05:15.389Z</time>
      </trkpt>
      <trkpt lat="47.04345" lon="9.02159">
        <ele>733</ele>
        <time>2021-08-02T09:05:16.389Z</time>
      </trkpt>
      <trkpt lat="47.04344" lon="9.02158">
        <ele>734</ele>
        <time>2021-08-02T09:05:17.389Z</time>
      </trkpt>
      <trkpt lat="47.04343" lon="9.02157">
        <ele>734</ele>
        <time>2021-08-02T09:05:18.388Z</time>
      </trkpt>
      <trkpt lat="47.04342" lon="9.02157">
        <ele>735</ele>
        <time>2021-08-02T09:05:19.388Z</time>
      </trkpt>
      <trkpt lat="47.04341" lon="9.02156">
        <ele>736</ele>
        <time>2021-08-02T09:05:20.389Z</time>
      </trkpt>
      <trkpt lat="47.04341" lon="9.02155">
        <ele>736</ele>
        <time>2021-08-02T09:05:21.388Z</time>
      </trkpt>
      <trkpt lat="47.0434" lon="9.02155">
        <ele>737</ele>
        <time>2021-08-02T09:05:22.389Z</time>
      </trkpt>
      <trkpt lat="47.0434" lon="9.02155">
        <ele>737</ele>
        <time>2021-08-02T09:05:23.389Z</time>
      </trkpt>
      <trkpt lat="47.0434" lon="9.02155">
        <ele>739</ele>
        <time>2021-08-02T09:05:24.389Z</time>
      </trkpt>
      <trkpt lat="47.04339" lon="9.02157">
        <ele>739</ele>
        <time>2021-08-02T09:05:25.389Z</time>
      </trkpt>
      <trkpt lat="47.04339" lon="9.02157">
        <ele>739</ele>
        <time>2021-08-02T09:05:26.389Z</time>
      </trkpt>
      <trkpt lat="47.04339" lon="9.02157">
        <ele>739</ele>
        <time>2021-08-02T09:05:27.390Z</time>
      </trkpt>
      <trkpt lat="47.04339" lon="9.02157">
        <ele>736</ele>
        <time>2021-08-02T09:05:28.391Z</time>
      </trkpt>
      <trkpt lat="47.04338" lon="9.02157">
        <ele>735</ele>
        <time>2021-08-02T09:05:29.390Z</time>
      </trkpt>
      <trkpt lat="47.04337" lon="9.02158">
        <ele>735</ele>
        <time>2021-08-02T09:05:30.390Z</time>
      </trkpt>
      <trkpt lat="47.04336" lon="9.0216">
        <ele>735</ele>
        <time>2021-08-02T09:05:31.391Z</time>
      </trkpt>
      <trkpt lat="47.04335" lon="9.02161">
        <ele>735</ele>
        <time>2021-08-02T09:05:32.391Z</time>
      </trkpt>
      <trkpt lat="47.04334" lon="9.02162">
        <ele>735</ele>
        <time>2021-08-02T09:05:33.391Z</time>
      </trkpt>
      <trkpt lat="47.04334" lon="9.02161">
        <ele>735</ele>
        <time>2021-08-02T09:05:34.391Z</time>
      </trkpt>
      <trkpt lat="47.04334" lon="9.02161">
        <ele>734</ele>
        <time>2021-08-02T09:05:35.390Z</time>
      </trkpt>
      <trkpt lat="47.04341" lon="9.02153">
        <ele>745</ele>
        <time>2021-08-02T09:05:36.391Z</time>
      </trkpt>
      <trkpt lat="47.04341" lon="9.02153">
        <ele>745</ele>
        <time>2021-08-02T09:05:37.391Z</time>
      </trkpt>
      <trkpt lat="47.0434" lon="9.02152">
        <ele>746</ele>
        <time>2021-08-02T09:05:38.390Z</time>
      </trkpt>
      <trkpt lat="47.04337" lon="9.02159">
        <ele>750</ele>
        <time>2021-08-02T09:05:39.392Z</time>
      </trkpt>
      <trkpt lat="47.04337" lon="9.02159">
        <ele>750</ele>
        <time>2021-08-02T09:05:40.391Z</time>
      </trkpt>
      <trkpt lat="47.04337" lon="9.02159">
        <ele>751</ele>
        <time>2021-08-02T09:05:41.392Z</time>
      </trkpt>
      <trkpt lat="47.04337" lon="9.02159">
        <ele>751</ele>
        <time>2021-08-02T09:05:42.392Z</time>
      </trkpt>
      <trkpt lat="47.04337" lon="9.0216">
        <ele>751</ele>
        <time>2021-08-02T09:05:43.391Z</time>
      </trkpt>
      <trkpt lat="47.04337" lon="9.0216">
        <ele>751</ele>
        <time>2021-08-02T09:05:44.391Z</time>
      </trkpt>
      <trkpt lat="47.04337" lon="9.02159">
        <ele>751</ele>
        <time>2021-08-02T09:05:45.392Z</time>
      </trkpt>
      <trkpt lat="47.04337" lon="9.02159">
        <ele>751</ele>
        <time>2021-08-02T09:05:46.392Z</time>
      </trkpt>
      <trkpt lat="47.04336" lon="9.02158">
        <ele>752</ele>
        <time>2021-08-02T09:05:47.393Z</time>
      </trkpt>
      <trkpt lat="47.04335" lon="9.02158">
        <ele>752</ele>
        <time>2021-08-02T09:05:48.393Z</time>
      </trkpt>
      <trkpt lat="47.04334" lon="9.02157">
        <ele>751</ele>
        <time>2021-08-02T09:05:49.392Z</time>
      </trkpt>
      <trkpt lat="47.04334" lon="9.02157">
        <ele>751</ele>
        <time>2021-08-02T09:05:50.393Z</time>
      </trkpt>
      <trkpt lat="47.04333" lon="9.02156">
        <ele>750</ele>
        <time>2021-08-02T09:05:51.393Z</time>
      </trkpt>
      <trkpt lat="47.04332" lon="9.02155">
        <ele>749</ele>
        <time>2021-08-02T09:05:52.393Z</time>
      </trkpt>
      <trkpt lat="47.04332" lon="9.02153">
        <ele>748</ele>
        <time>2021-08-02T09:05:53.392Z</time>
      </trkpt>
      <trkpt lat="47.04332" lon="9.02152">
        <ele>747</ele>
        <time>2021-08-02T09:05:54.392Z</time>
      </trkpt>
      <trkpt lat="47.04332" lon="9.02151">
        <ele>746</ele>
        <time>2021-08-02T09:05:55.393Z</time>
      </trkpt>
      <trkpt lat="47.04331" lon="9.0215">
        <ele>745</ele>
        <time>2021-08-02T09:05:56.393Z</time>
      </trkpt>
      <trkpt lat="47.04331" lon="9.0215">
        <ele>745</ele>
        <time>2021-08-02T09:05:57.393Z</time>
      </trkpt>
      <trkpt lat="47.04331" lon="9.02148">
        <ele>744</ele>
        <time>2021-08-02T09:05:58.393Z</time>
      </trkpt>
      <trkpt lat="47.0433" lon="9.02147">
        <ele>743</ele>
        <time>2021-08-02T09:05:59.392Z</time>
      </trkpt>
      <trkpt lat="47.04329" lon="9.02146">
        <ele>742</ele>
        <time>2021-08-02T09:06:00.392Z</time>
      </trkpt>
      <trkpt lat="47.04329" lon="9.02145">
        <ele>742</ele>
        <time>2021-08-02T09:06:01.393Z</time>
      </trkpt>
      <trkpt lat="47.04328" lon="9.02144">
        <ele>741</ele>
        <time>2021-08-02T09:06:02.393Z</time>
      </trkpt>
      <trkpt lat="47.04328" lon="9.02144">
        <ele>740</ele>
        <time>2021-08-02T09:06:03.392Z</time>
      </trkpt>
      <trkpt lat="47.04327" lon="9.02143">
        <ele>740</ele>
        <time>2021-08-02T09:06:04.392Z</time>
      </trkpt>
      <trkpt lat="47.04326" lon="9.02142">
        <ele>739</ele>
        <time>2021-08-02T09:06:05.393Z</time>
      </trkpt>
      <trkpt lat="47.04324" lon="9.02141">
        <ele>738</ele>
        <time>2021-08-02T09:06:06.392Z</time>
      </trkpt>
      <trkpt lat="47.04323" lon="9.02141">
        <ele>737</ele>
        <time>2021-08-02T09:06:07.393Z</time>
      </trkpt>
      <trkpt lat="47.04322" lon="9.0214">
        <ele>737</ele>
        <time>2021-08-02T09:06:08.393Z</time>
      </trkpt>
      <trkpt lat="47.04321" lon="9.02139">
        <ele>736</ele>
        <time>2021-08-02T09:06:09.393Z</time>
      </trkpt>
      <trkpt lat="47.04321" lon="9.02139">
        <ele>736</ele>
        <time>2021-08-02T09:06:10.392Z</time>
      </trkpt>
      <trkpt lat="47.0432" lon="9.02138">
        <ele>735</ele>
        <time>2021-08-02T09:06:11.393Z</time>
      </trkpt>
      <trkpt lat="47.04319" lon="9.02137">
        <ele>735</ele>
        <time>2021-08-02T09:06:12.393Z</time>
      </trkpt>
      <trkpt lat="47.04319" lon="9.02136">
        <ele>735</ele>
        <time>2021-08-02T09:06:13.393Z</time>
      </trkpt>
      <trkpt lat="47.04319" lon="9.02134">
        <ele>734</ele>
        <time>2021-08-02T09:06:14.393Z</time>
      </trkpt>
      <trkpt lat="47.04318" lon="9.02133">
        <ele>734</ele>
        <time>2021-08-02T09:06:15.393Z</time>
      </trkpt>
      <trkpt lat="47.04317" lon="9.02132">
        <ele>733</ele>
        <time>2021-08-02T09:06:16.393Z</time>
      </trkpt>
      <trkpt lat="47.04317" lon="9.02131">
        <ele>732</ele>
        <time>2021-08-02T09:06:17.393Z</time>
      </trkpt>
      <trkpt lat="47.04316" lon="9.0213">
        <ele>732</ele>
        <time>2021-08-02T09:06:18.393Z</time>
      </trkpt>
      <trkpt lat="47.04316" lon="9.02129">
        <ele>731</ele>
        <time>2021-08-02T09:06:19.392Z</time>
      </trkpt>
      <trkpt lat="47.04315" lon="9.02128">
        <ele>730</ele>
        <time>2021-08-02T09:06:20.392Z</time>
      </trkpt>
      <trkpt lat="47.04315" lon="9.02126">
        <ele>729</ele>
        <time>2021-08-02T09:06:21.392Z</time>
      </trkpt>
      <trkpt lat="47.04315" lon="9.02126">
        <ele>729</ele>
        <time>2021-08-02T09:06:22.393Z</time>
      </trkpt>
      <trkpt lat="47.04315" lon="9.02124">
        <ele>728</ele>
        <time>2021-08-02T09:06:23.392Z</time>
      </trkpt>
      <trkpt lat="47.04314" lon="9.02123">
        <ele>728</ele>
        <time>2021-08-02T09:06:24.393Z</time>
      </trkpt>
      <trkpt lat="47.04313" lon="9.02122">
        <ele>727</ele>
        <time>2021-08-02T09:06:25.393Z</time>
      </trkpt>
      <trkpt lat="47.04312" lon="9.0212">
        <ele>727</ele>
        <time>2021-08-02T09:06:26.393Z</time>
      </trkpt>
      <trkpt lat="47.04312" lon="9.02119">
        <ele>727</ele>
        <time>2021-08-02T09:06:27.393Z</time>
      </trkpt>
      <trkpt lat="47.04311" lon="9.02118">
        <ele>726</ele>
        <time>2021-08-02T09:06:28.393Z</time>
      </trkpt>
      <trkpt lat="47.04311" lon="9.02116">
        <ele>726</ele>
        <time>2021-08-02T09:06:29.393Z</time>
      </trkpt>
      <trkpt lat="47.04311" lon="9.02115">
        <ele>725</ele>
        <time>2021-08-02T09:06:30.393Z</time>
      </trkpt>
      <trkpt lat="47.0431" lon="9.02114">
        <ele>724</ele>
        <time>2021-08-02T09:06:31.393Z</time>
      </trkpt>
      <trkpt lat="47.04309" lon="9.02113">
        <ele>724</ele>
        <time>2021-08-02T09:06:32.393Z</time>
      </trkpt>
      <trkpt lat="47.04309" lon="9.02114">
        <ele>723</ele>
        <time>2021-08-02T09:06:33.393Z</time>
      </trkpt>
      <trkpt lat="47.04308" lon="9.02113">
        <ele>723</ele>
        <time>2021-08-02T09:06:34.393Z</time>
      </trkpt>
      <trkpt lat="47.04308" lon="9.02113">
        <ele>723</ele>
        <time>2021-08-02T09:06:35.393Z</time>
      </trkpt>
      <trkpt lat="47.04308" lon="9.02112">
        <ele>723</ele>
        <time>2021-08-02T09:06:36.392Z</time>
      </trkpt>
      <trkpt lat="47.04308" lon="9.02111">
        <ele>723</ele>
        <time>2021-08-02T09:06:37.393Z</time>
      </trkpt>
      <trkpt lat="47.04307" lon="9.0211">
        <ele>724</ele>
        <time>2021-08-02T09:06:38.392Z</time>
      </trkpt>
      <trkpt lat="47.04307" lon="9.02109">
        <ele>724</ele>
        <time>2021-08-02T09:06:39.393Z</time>
      </trkpt>
      <trkpt lat="47.04306" lon="9.02109">
        <ele>724</ele>
        <time>2021-08-02T09:06:40.393Z</time>
      </trkpt>
      <trkpt lat="47.04305" lon="9.02109">
        <ele>725</ele>
        <time>2021-08-02T09:06:41.392Z</time>
      </trkpt>
      <trkpt lat="47.04304" lon="9.02108">
        <ele>725</ele>
        <time>2021-08-02T09:06:42.392Z</time>
      </trkpt>
      <trkpt lat="47.04304" lon="9.02108">
        <ele>725</ele>
        <time>2021-08-02T09:06:43.393Z</time>
      </trkpt>
      <trkpt lat="47.04303" lon="9.02107">
        <ele>726</ele>
        <time>2021-08-02T09:06:44.393Z</time>
      </trkpt>
      <trkpt lat="47.04302" lon="9.02106">
        <ele>726</ele>
        <time>2021-08-02T09:06:45.392Z</time>
      </trkpt>
      <trkpt lat="47.04301" lon="9.02104">
        <ele>727</ele>
        <time>2021-08-02T09:06:46.392Z</time>
      </trkpt>
      <trkpt lat="47.043" lon="9.02103">
        <ele>727</ele>
        <time>2021-08-02T09:06:47.393Z</time>
      </trkpt>
      <trkpt lat="47.04299" lon="9.02102">
        <ele>727</ele>
        <time>2021-08-02T09:06:48.392Z</time>
      </trkpt>
      <trkpt lat="47.04299" lon="9.021">
        <ele>728</ele>
        <time>2021-08-02T09:06:49.392Z</time>
      </trkpt>
      <trkpt lat="47.04298" lon="9.02099">
        <ele>728</ele>
        <time>2021-08-02T09:06:50.393Z</time>
      </trkpt>
      <trkpt lat="47.04297" lon="9.02098">
        <ele>728</ele>
        <time>2021-08-02T09:06:51.393Z</time>
      </trkpt>
      <trkpt lat="47.04297" lon="9.02098">
        <ele>729</ele>
        <time>2021-08-02T09:06:52.393Z</time>
      </trkpt>
      <trkpt lat="47.04296" lon="9.02097">
        <ele>729</ele>
        <time>2021-08-02T09:06:53.393Z</time>
      </trkpt>
      <trkpt lat="47.04295" lon="9.02096">
        <ele>729</ele>
        <time>2021-08-02T09:06:54.393Z</time>
      </trkpt>
      <trkpt lat="47.04294" lon="9.02096">
        <ele>730</ele>
        <time>2021-08-02T09:06:55.393Z</time>
      </trkpt>
      <trkpt lat="47.04294" lon="9.02094">
        <ele>730</ele>
        <time>2021-08-02T09:06:56.392Z</time>
      </trkpt>
      <trkpt lat="47.04293" lon="9.02092">
        <ele>730</ele>
        <time>2021-08-02T09:06:57.392Z</time>
      </trkpt>
      <trkpt lat="47.04292" lon="9.02091">
        <ele>730</ele>
        <time>2021-08-02T09:06:58.393Z</time>
      </trkpt>
      <trkpt lat="47.04292" lon="9.0209">
        <ele>730</ele>
        <time>2021-08-02T09:06:59.393Z</time>
      </trkpt>
      <trkpt lat="47.04293" lon="9.02089">
        <ele>730</ele>
        <time>2021-08-02T09:07:00.393Z</time>
      </trkpt>
      <trkpt lat="47.04292" lon="9.02087">
        <ele>730</ele>
        <time>2021-08-02T09:07:01.393Z</time>
      </trkpt>
      <trkpt lat="47.04292" lon="9.02086">
        <ele>729</ele>
        <time>2021-08-02T09:07:02.393Z</time>
      </trkpt>
      <trkpt lat="47.04291" lon="9.02085">
        <ele>728</ele>
        <time>2021-08-02T09:07:03.393Z</time>
      </trkpt>
      <trkpt lat="47.0429" lon="9.02085">
        <ele>728</ele>
        <time>2021-08-02T09:07:04.392Z</time>
      </trkpt>
      <trkpt lat="47.0429" lon="9.02084">
        <ele>728</ele>
        <time>2021-08-02T09:07:05.393Z</time>
      </trkpt>
      <trkpt lat="47.04289" lon="9.02084">
        <ele>727</ele>
        <time>2021-08-02T09:07:06.392Z</time>
      </trkpt>
      <trkpt lat="47.04289" lon="9.02083">
        <ele>727</ele>
        <time>2021-08-02T09:07:07.392Z</time>
      </trkpt>
      <trkpt lat="47.04289" lon="9.02082">
        <ele>727</ele>
        <time>2021-08-02T09:07:08.393Z</time>
      </trkpt>
      <trkpt lat="47.04288" lon="9.02081">
        <ele>728</ele>
        <time>2021-08-02T09:07:09.393Z</time>
      </trkpt>
      <trkpt lat="47.04288" lon="9.02079">
        <ele>728</ele>
        <time>2021-08-02T09:07:10.393Z</time>
      </trkpt>
      <trkpt lat="47.04289" lon="9.02077">
        <ele>728</ele>
        <time>2021-08-02T09:07:11.393Z</time>
      </trkpt>
      <trkpt lat="47.04289" lon="9.02075">
        <ele>729</ele>
        <time>2021-08-02T09:07:12.393Z</time>
      </trkpt>
      <trkpt lat="47.04289" lon="9.02074">
        <ele>730</ele>
        <time>2021-08-02T09:07:13.393Z</time>
      </trkpt>
      <trkpt lat="47.04289" lon="9.02074">
        <ele>730</ele>
        <time>2021-08-02T09:07:14.393Z</time>
      </trkpt>
      <trkpt lat="47.04289" lon="9.02072">
        <ele>731</ele>
        <time>2021-08-02T09:07:15.393Z</time>
      </trkpt>
      <trkpt lat="47.04289" lon="9.02071">
        <ele>732</ele>
        <time>2021-08-02T09:07:16.392Z</time>
      </trkpt>
      <trkpt lat="47.04288" lon="9.0207">
        <ele>732</ele>
        <time>2021-08-02T09:07:17.393Z</time>
      </trkpt>
      <trkpt lat="47.04288" lon="9.02068">
        <ele>733</ele>
        <time>2021-08-02T09:07:18.393Z</time>
      </trkpt>
      <trkpt lat="47.04287" lon="9.02067">
        <ele>734</ele>
        <time>2021-08-02T09:07:19.393Z</time>
      </trkpt>
      <trkpt lat="47.04286" lon="9.02067">
        <ele>735</ele>
        <time>2021-08-02T09:07:20.393Z</time>
      </trkpt>
      <trkpt lat="47.04285" lon="9.02066">
        <ele>736</ele>
        <time>2021-08-02T09:07:21.393Z</time>
      </trkpt>
      <trkpt lat="47.04284" lon="9.02066">
        <ele>737</ele>
        <time>2021-08-02T09:07:22.392Z</time>
      </trkpt>
      <trkpt lat="47.04284" lon="9.02065">
        <ele>737</ele>
        <time>2021-08-02T09:07:23.393Z</time>
      </trkpt>
      <trkpt lat="47.04283" lon="9.02064">
        <ele>738</ele>
        <time>2021-08-02T09:07:24.392Z</time>
      </trkpt>
      <trkpt lat="47.04282" lon="9.02061">
        <ele>738</ele>
        <time>2021-08-02T09:07:25.392Z</time>
      </trkpt>
      <trkpt lat="47.04283" lon="9.02059">
        <ele>738</ele>
        <time>2021-08-02T09:07:26.392Z</time>
      </trkpt>
      <trkpt lat="47.04283" lon="9.02057">
        <ele>738</ele>
        <time>2021-08-02T09:07:27.393Z</time>
      </trkpt>
      <trkpt lat="47.04284" lon="9.02055">
        <ele>739</ele>
        <time>2021-08-02T09:07:28.392Z</time>
      </trkpt>
      <trkpt lat="47.04283" lon="9.02054">
        <ele>739</ele>
        <time>2021-08-02T09:07:29.393Z</time>
      </trkpt>
      <trkpt lat="47.04283" lon="9.02052">
        <ele>739</ele>
        <time>2021-08-02T09:07:30.392Z</time>
      </trkpt>
      <trkpt lat="47.04284" lon="9.0205">
        <ele>739</ele>
        <time>2021-08-02T09:07:31.392Z</time>
      </trkpt>
      <trkpt lat="47.04284" lon="9.02049">
        <ele>739</ele>
        <time>2021-08-02T09:07:32.393Z</time>
      </trkpt>
      <trkpt lat="47.04284" lon="9.02047">
        <ele>739</ele>
        <time>2021-08-02T09:07:33.393Z</time>
      </trkpt>
      <trkpt lat="47.04285" lon="9.02046">
        <ele>739</ele>
        <time>2021-08-02T09:07:34.393Z</time>
      </trkpt>
      <trkpt lat="47.04284" lon="9.02045">
        <ele>740</ele>
        <time>2021-08-02T09:07:35.393Z</time>
      </trkpt>
      <trkpt lat="47.04284" lon="9.02043">
        <ele>740</ele>
        <time>2021-08-02T09:07:36.393Z</time>
      </trkpt>
      <trkpt lat="47.04284" lon="9.02043">
        <ele>740</ele>
        <time>2021-08-02T09:07:37.392Z</time>
      </trkpt>
      <trkpt lat="47.04283" lon="9.02043">
        <ele>740</ele>
        <time>2021-08-02T09:07:38.392Z</time>
      </trkpt>
      <trkpt lat="47.04283" lon="9.02043">
        <ele>740</ele>
        <time>2021-08-02T09:07:39.393Z</time>
      </trkpt>
      <trkpt lat="47.04283" lon="9.02043">
        <ele>741</ele>
        <time>2021-08-02T09:07:40.392Z</time>
      </trkpt>
      <trkpt lat="47.04282" lon="9.02042">
        <ele>741</ele>
        <time>2021-08-02T09:07:41.393Z</time>
      </trkpt>
      <trkpt lat="47.04281" lon="9.02041">
        <ele>740</ele>
        <time>2021-08-02T09:07:42.392Z</time>
      </trkpt>
      <trkpt lat="47.04281" lon="9.02039">
        <ele>740</ele>
        <time>2021-08-02T09:07:43.392Z</time>
      </trkpt>
      <trkpt lat="47.0428" lon="9.02038">
        <ele>740</ele>
        <time>2021-08-02T09:07:44.393Z</time>
      </trkpt>
      <trkpt lat="47.0428" lon="9.02036">
        <ele>740</ele>
        <time>2021-08-02T09:07:45.393Z</time>
      </trkpt>
      <trkpt lat="47.0428" lon="9.02035">
        <ele>740</ele>
        <time>2021-08-02T09:07:46.393Z</time>
      </trkpt>
      <trkpt lat="47.04279" lon="9.02034">
        <ele>740</ele>
        <time>2021-08-02T09:07:47.393Z</time>
      </trkpt>
      <trkpt lat="47.04278" lon="9.02033">
        <ele>741</ele>
        <time>2021-08-02T09:07:48.393Z</time>
      </trkpt>
      <trkpt lat="47.04277" lon="9.02033">
        <ele>741</ele>
        <time>2021-08-02T09:07:49.392Z</time>
      </trkpt>
      <trkpt lat="47.04276" lon="9.02033">
        <ele>741</ele>
        <time>2021-08-02T09:07:50.392Z</time>
      </trkpt>
      <trkpt lat="47.04275" lon="9.02032">
        <ele>741</ele>
        <time>2021-08-02T09:07:51.392Z</time>
      </trkpt>
      <trkpt lat="47.04274" lon="9.02032">
        <ele>742</ele>
        <time>2021-08-02T09:07:52.393Z</time>
      </trkpt>
      <trkpt lat="47.04274" lon="9.02031">
        <ele>742</ele>
        <time>2021-08-02T09:07:53.393Z</time>
      </trkpt>
      <trkpt lat="47.04274" lon="9.0203">
        <ele>742</ele>
        <time>2021-08-02T09:07:54.393Z</time>
      </trkpt>
      <trkpt lat="47.04274" lon="9.02029">
        <ele>743</ele>
        <time>2021-08-02T09:07:55.392Z</time>
      </trkpt>
      <trkpt lat="47.04274" lon="9.02027">
        <ele>743</ele>
        <time>2021-08-02T09:07:56.393Z</time>
      </trkpt>
      <trkpt lat="47.04274" lon="9.02024">
        <ele>743</ele>
        <time>2021-08-02T09:07:57.393Z</time>
      </trkpt>
      <trkpt lat="47.04273" lon="9.02022">
        <ele>743</ele>
        <time>2021-08-02T09:07:58.393Z</time>
      </trkpt>
      <trkpt lat="47.04272" lon="9.02019">
        <ele>743</ele>
        <time>2021-08-02T09:07:59.393Z</time>
      </trkpt>
      <trkpt lat="47.04271" lon="9.02016">
        <ele>743</ele>
        <time>2021-08-02T09:08:00.393Z</time>
      </trkpt>
      <trkpt lat="47.0427" lon="9.02015">
        <ele>743</ele>
        <time>2021-08-02T09:08:01.392Z</time>
      </trkpt>
      <trkpt lat="47.04268" lon="9.02014">
        <ele>743</ele>
        <time>2021-08-02T09:08:02.393Z</time>
      </trkpt>
      <trkpt lat="47.04267" lon="9.02014">
        <ele>743</ele>
        <time>2021-08-02T09:08:03.392Z</time>
      </trkpt>
      <trkpt lat="47.04266" lon="9.02013">
        <ele>743</ele>
        <time>2021-08-02T09:08:04.392Z</time>
      </trkpt>
      <trkpt lat="47.04265" lon="9.02013">
        <ele>744</ele>
        <time>2021-08-02T09:08:05.393Z</time>
      </trkpt>
      <trkpt lat="47.04264" lon="9.02012">
        <ele>744</ele>
        <time>2021-08-02T09:08:06.393Z</time>
      </trkpt>
      <trkpt lat="47.04263" lon="9.02011">
        <ele>744</ele>
        <time>2021-08-02T09:08:07.392Z</time>
      </trkpt>
      <trkpt lat="47.04262" lon="9.0201">
        <ele>744</ele>
        <time>2021-08-02T09:08:08.393Z</time>
      </trkpt>
      <trkpt lat="47.04261" lon="9.02008">
        <ele>744</ele>
        <time>2021-08-02T09:08:09.393Z</time>
      </trkpt>
      <trkpt lat="47.0426" lon="9.02007">
        <ele>745</ele>
        <time>2021-08-02T09:08:10.393Z</time>
      </trkpt>
      <trkpt lat="47.0426" lon="9.02006">
        <ele>745</ele>
        <time>2021-08-02T09:08:11.392Z</time>
      </trkpt>
      <trkpt lat="47.04259" lon="9.02006">
        <ele>745</ele>
        <time>2021-08-02T09:08:12.392Z</time>
      </trkpt>
      <trkpt lat="47.04258" lon="9.02006">
        <ele>745</ele>
        <time>2021-08-02T09:08:13.393Z</time>
      </trkpt>
      <trkpt lat="47.04257" lon="9.02005">
        <ele>745</ele>
        <time>2021-08-02T09:08:14.393Z</time>
      </trkpt>
      <trkpt lat="47.04257" lon="9.02004">
        <ele>745</ele>
        <time>2021-08-02T09:08:15.393Z</time>
      </trkpt>
      <trkpt lat="47.04257" lon="9.02004">
        <ele>745</ele>
        <time>2021-08-02T09:08:16.392Z</time>
      </trkpt>
      <trkpt lat="47.04256" lon="9.02004">
        <ele>746</ele>
        <time>2021-08-02T09:08:17.393Z</time>
      </trkpt>
      <trkpt lat="47.04255" lon="9.02003">
        <ele>746</ele>
        <time>2021-08-02T09:08:18.393Z</time>
      </trkpt>
      <trkpt lat="47.04254" lon="9.02001">
        <ele>746</ele>
        <time>2021-08-02T09:08:19.393Z</time>
      </trkpt>
      <trkpt lat="47.04254" lon="9.02">
        <ele>747</ele>
        <time>2021-08-02T09:08:20.393Z</time>
      </trkpt>
      <trkpt lat="47.04253" lon="9.01998">
        <ele>747</ele>
        <time>2021-08-02T09:08:21.393Z</time>
      </trkpt>
      <trkpt lat="47.04253" lon="9.01997">
        <ele>747</ele>
        <time>2021-08-02T09:08:22.393Z</time>
      </trkpt>
      <trkpt lat="47.04253" lon="9.01995">
        <ele>747</ele>
        <time>2021-08-02T09:08:23.392Z</time>
      </trkpt>
      <trkpt lat="47.04252" lon="9.01994">
        <ele>747</ele>
        <time>2021-08-02T09:08:24.393Z</time>
      </trkpt>
      <trkpt lat="47.04251" lon="9.01993">
        <ele>747</ele>
        <time>2021-08-02T09:08:25.392Z</time>
      </trkpt>
      <trkpt lat="47.0425" lon="9.01991">
        <ele>747</ele>
        <time>2021-08-02T09:08:26.392Z</time>
      </trkpt>
      <trkpt lat="47.04249" lon="9.0199">
        <ele>746</ele>
        <time>2021-08-02T09:08:27.393Z</time>
      </trkpt>
      <trkpt lat="47.0425" lon="9.01988">
        <ele>746</ele>
        <time>2021-08-02T09:08:28.393Z</time>
      </trkpt>
      <trkpt lat="47.0425" lon="9.01987">
        <ele>745</ele>
        <time>2021-08-02T09:08:29.393Z</time>
      </trkpt>
      <trkpt lat="47.04249" lon="9.01985">
        <ele>745</ele>
        <time>2021-08-02T09:08:30.393Z</time>
      </trkpt>
      <trkpt lat="47.04249" lon="9.01984">
        <ele>745</ele>
        <time>2021-08-02T09:08:31.393Z</time>
      </trkpt>
      <trkpt lat="47.04249" lon="9.01983">
        <ele>745</ele>
        <time>2021-08-02T09:08:32.393Z</time>
      </trkpt>
      <trkpt lat="47.04249" lon="9.01982">
        <ele>745</ele>
        <time>2021-08-02T09:08:33.393Z</time>
      </trkpt>
      <trkpt lat="47.04249" lon="9.01981">
        <ele>744</ele>
        <time>2021-08-02T09:08:34.393Z</time>
      </trkpt>
      <trkpt lat="47.04249" lon="9.01979">
        <ele>744</ele>
        <time>2021-08-02T09:08:35.393Z</time>
      </trkpt>
      <trkpt lat="47.04249" lon="9.01978">
        <ele>744</ele>
        <time>2021-08-02T09:08:36.392Z</time>
      </trkpt>
      <trkpt lat="47.04248" lon="9.01977">
        <ele>744</ele>
        <time>2021-08-02T09:08:37.393Z</time>
      </trkpt>
      <trkpt lat="47.04249" lon="9.01975">
        <ele>744</ele>
        <time>2021-08-02T09:08:38.393Z</time>
      </trkpt>
      <trkpt lat="47.04249" lon="9.01974">
        <ele>745</ele>
        <time>2021-08-02T09:08:39.392Z</time>
      </trkpt>
      <trkpt lat="47.04249" lon="9.01973">
        <ele>745</ele>
        <time>2021-08-02T09:08:40.393Z</time>
      </trkpt>
      <trkpt lat="47.04248" lon="9.01972">
        <ele>745</ele>
        <time>2021-08-02T09:08:41.392Z</time>
      </trkpt>
      <trkpt lat="47.04248" lon="9.01971">
        <ele>745</ele>
        <time>2021-08-02T09:08:42.393Z</time>
      </trkpt>
      <trkpt lat="47.04247" lon="9.01969">
        <ele>745</ele>
        <time>2021-08-02T09:08:43.392Z</time>
      </trkpt>
      <trkpt lat="47.04247" lon="9.01967">
        <ele>745</ele>
        <time>2021-08-02T09:08:44.393Z</time>
      </trkpt>
      <trkpt lat="47.04246" lon="9.01966">
        <ele>745</ele>
        <time>2021-08-02T09:08:45.392Z</time>
      </trkpt>
      <trkpt lat="47.04246" lon="9.01965">
        <ele>746</ele>
        <time>2021-08-02T09:08:46.393Z</time>
      </trkpt>
      <trkpt lat="47.04247" lon="9.01963">
        <ele>746</ele>
        <time>2021-08-02T09:08:47.393Z</time>
      </trkpt>
      <trkpt lat="47.04247" lon="9.01961">
        <ele>746</ele>
        <time>2021-08-02T09:08:48.393Z</time>
      </trkpt>
      <trkpt lat="47.04247" lon="9.01959">
        <ele>746</ele>
        <time>2021-08-02T09:08:49.392Z</time>
      </trkpt>
      <trkpt lat="47.04247" lon="9.01957">
        <ele>746</ele>
        <time>2021-08-02T09:08:50.393Z</time>
      </trkpt>
      <trkpt lat="47.04247" lon="9.01955">
        <ele>746</ele>
        <time>2021-08-02T09:08:51.392Z</time>
      </trkpt>
      <trkpt lat="47.04246" lon="9.01953">
        <ele>746</ele>
        <time>2021-08-02T09:08:52.392Z</time>
      </trkpt>
      <trkpt lat="47.04245" lon="9.01951">
        <ele>746</ele>
        <time>2021-08-02T09:08:53.393Z</time>
      </trkpt>
      <trkpt lat="47.04244" lon="9.01949">
        <ele>746</ele>
        <time>2021-08-02T09:08:54.393Z</time>
      </trkpt>
      <trkpt lat="47.04243" lon="9.01947">
        <ele>745</ele>
        <time>2021-08-02T09:08:55.393Z</time>
      </trkpt>
      <trkpt lat="47.04242" lon="9.01946">
        <ele>745</ele>
        <time>2021-08-02T09:08:56.392Z</time>
      </trkpt>
      <trkpt lat="47.04241" lon="9.01945">
        <ele>744</ele>
        <time>2021-08-02T09:08:57.392Z</time>
      </trkpt>
      <trkpt lat="47.0424" lon="9.01944">
        <ele>744</ele>
        <time>2021-08-02T09:08:58.393Z</time>
      </trkpt>
      <trkpt lat="47.04239" lon="9.01943">
        <ele>743</ele>
        <time>2021-08-02T09:08:59.393Z</time>
      </trkpt>
      <trkpt lat="47.04239" lon="9.01943">
        <ele>743</ele>
        <time>2021-08-02T09:09:00.393Z</time>
      </trkpt>
      <trkpt lat="47.04238" lon="9.01944">
        <ele>742</ele>
        <time>2021-08-02T09:09:01.393Z</time>
      </trkpt>
      <trkpt lat="47.04237" lon="9.01944">
        <ele>742</ele>
        <time>2021-08-02T09:09:02.393Z</time>
      </trkpt>
      <trkpt lat="47.04237" lon="9.01943">
        <ele>741</ele>
        <time>2021-08-02T09:09:03.392Z</time>
      </trkpt>
      <trkpt lat="47.04236" lon="9.01942">
        <ele>741</ele>
        <time>2021-08-02T09:09:04.393Z</time>
      </trkpt>
      <trkpt lat="47.04236" lon="9.01941">
        <ele>741</ele>
        <time>2021-08-02T09:09:05.393Z</time>
      </trkpt>
      <trkpt lat="47.04235" lon="9.01941">
        <ele>740</ele>
        <time>2021-08-02T09:09:06.393Z</time>
      </trkpt>
      <trkpt lat="47.04235" lon="9.0194">
        <ele>740</ele>
        <time>2021-08-02T09:09:07.393Z</time>
      </trkpt>
      <trkpt lat="47.04234" lon="9.01939">
        <ele>740</ele>
        <time>2021-08-02T09:09:08.392Z</time>
      </trkpt>
      <trkpt lat="47.04233" lon="9.01938">
        <ele>740</ele>
        <time>2021-08-02T09:09:09.392Z</time>
      </trkpt>
      <trkpt lat="47.04233" lon="9.01937">
        <ele>739</ele>
        <time>2021-08-02T09:09:10.393Z</time>
      </trkpt>
      <trkpt lat="47.04232" lon="9.01936">
        <ele>739</ele>
        <time>2021-08-02T09:09:11.393Z</time>
      </trkpt>
      <trkpt lat="47.04232" lon="9.01935">
        <ele>739</ele>
        <time>2021-08-02T09:09:12.393Z</time>
      </trkpt>
      <trkpt lat="47.04232" lon="9.01934">
        <ele>738</ele>
        <time>2021-08-02T09:09:13.393Z</time>
      </trkpt>
      <trkpt lat="47.04231" lon="9.01932">
        <ele>738</ele>
        <time>2021-08-02T09:09:14.393Z</time>
      </trkpt>
      <trkpt lat="47.04231" lon="9.01931">
        <ele>738</ele>
        <time>2021-08-02T09:09:15.393Z</time>
      </trkpt>
      <trkpt lat="47.04231" lon="9.0193">
        <ele>738</ele>
        <time>2021-08-02T09:09:16.393Z</time>
      </trkpt>
      <trkpt lat="47.04231" lon="9.01929">
        <ele>738</ele>
        <time>2021-08-02T09:09:17.393Z</time>
      </trkpt>
      <trkpt lat="47.0423" lon="9.01928">
        <ele>738</ele>
        <time>2021-08-02T09:09:18.393Z</time>
      </trkpt>
      <trkpt lat="47.0423" lon="9.01927">
        <ele>738</ele>
        <time>2021-08-02T09:09:19.393Z</time>
      </trkpt>
      <trkpt lat="47.04229" lon="9.01925">
        <ele>738</ele>
        <time>2021-08-02T09:09:20.392Z</time>
      </trkpt>
      <trkpt lat="47.04229" lon="9.01924">
        <ele>738</ele>
        <time>2021-08-02T09:09:21.393Z</time>
      </trkpt>
      <trkpt lat="47.04229" lon="9.01923">
        <ele>739</ele>
        <time>2021-08-02T09:09:22.392Z</time>
      </trkpt>
      <trkpt lat="47.04229" lon="9.01921">
        <ele>739</ele>
        <time>2021-08-02T09:09:23.393Z</time>
      </trkpt>
      <trkpt lat="47.04228" lon="9.01918">
        <ele>739</ele>
        <time>2021-08-02T09:09:24.392Z</time>
      </trkpt>
      <trkpt lat="47.04228" lon="9.01917">
        <ele>739</ele>
        <time>2021-08-02T09:09:25.393Z</time>
      </trkpt>
      <trkpt lat="47.04227" lon="9.01916">
        <ele>739</ele>
        <time>2021-08-02T09:09:26.393Z</time>
      </trkpt>
      <trkpt lat="47.04225" lon="9.01914">
        <ele>738</ele>
        <time>2021-08-02T09:09:27.392Z</time>
      </trkpt>
      <trkpt lat="47.04225" lon="9.01913">
        <ele>738</ele>
        <time>2021-08-02T09:09:28.392Z</time>
      </trkpt>
      <trkpt lat="47.04225" lon="9.01912">
        <ele>738</ele>
        <time>2021-08-02T09:09:29.392Z</time>
      </trkpt>
      <trkpt lat="47.04225" lon="9.0191">
        <ele>738</ele>
        <time>2021-08-02T09:09:30.392Z</time>
      </trkpt>
      <trkpt lat="47.04225" lon="9.0191">
        <ele>738</ele>
        <time>2021-08-02T09:09:31.392Z</time>
      </trkpt>
      <trkpt lat="47.04223" lon="9.01909">
        <ele>738</ele>
        <time>2021-08-02T09:09:32.393Z</time>
      </trkpt>
      <trkpt lat="47.04222" lon="9.01909">
        <ele>738</ele>
        <time>2021-08-02T09:09:33.392Z</time>
      </trkpt>
      <trkpt lat="47.04222" lon="9.01907">
        <ele>738</ele>
        <time>2021-08-02T09:09:34.393Z</time>
      </trkpt>
      <trkpt lat="47.04221" lon="9.01905">
        <ele>738</ele>
        <time>2021-08-02T09:09:35.392Z</time>
      </trkpt>
      <trkpt lat="47.04221" lon="9.01904">
        <ele>738</ele>
        <time>2021-08-02T09:09:36.392Z</time>
      </trkpt>
      <trkpt lat="47.04221" lon="9.01903">
        <ele>738</ele>
        <time>2021-08-02T09:09:37.392Z</time>
      </trkpt>
      <trkpt lat="47.04219" lon="9.01902">
        <ele>737</ele>
        <time>2021-08-02T09:09:38.392Z</time>
      </trkpt>
      <trkpt lat="47.04218" lon="9.01902">
        <ele>737</ele>
        <time>2021-08-02T09:09:39.392Z</time>
      </trkpt>
      <trkpt lat="47.04217" lon="9.01901">
        <ele>736</ele>
        <time>2021-08-02T09:09:40.393Z</time>
      </trkpt>
      <trkpt lat="47.04215" lon="9.019">
        <ele>736</ele>
        <time>2021-08-02T09:09:41.392Z</time>
      </trkpt>
      <trkpt lat="47.04214" lon="9.019">
        <ele>735</ele>
        <time>2021-08-02T09:09:42.392Z</time>
      </trkpt>
      <trkpt lat="47.04213" lon="9.019">
        <ele>735</ele>
        <time>2021-08-02T09:09:43.392Z</time>
      </trkpt>
      <trkpt lat="47.04212" lon="9.019">
        <ele>735</ele>
        <time>2021-08-02T09:09:44.392Z</time>
      </trkpt>
      <trkpt lat="47.04212" lon="9.01899">
        <ele>735</ele>
        <time>2021-08-02T09:09:45.393Z</time>
      </trkpt>
      <trkpt lat="47.04213" lon="9.01897">
        <ele>735</ele>
        <time>2021-08-02T09:09:46.392Z</time>
      </trkpt>
      <trkpt lat="47.04213" lon="9.01895">
        <ele>735</ele>
        <time>2021-08-02T09:09:47.392Z</time>
      </trkpt>
      <trkpt lat="47.04214" lon="9.01893">
        <ele>736</ele>
        <time>2021-08-02T09:09:48.392Z</time>
      </trkpt>
      <trkpt lat="47.04214" lon="9.01892">
        <ele>736</ele>
        <time>2021-08-02T09:09:49.392Z</time>
      </trkpt>
      <trkpt lat="47.04214" lon="9.01891">
        <ele>737</ele>
        <time>2021-08-02T09:09:50.392Z</time>
      </trkpt>
      <trkpt lat="47.04213" lon="9.0189">
        <ele>737</ele>
        <time>2021-08-02T09:09:51.392Z</time>
      </trkpt>
      <trkpt lat="47.04213" lon="9.01889">
        <ele>738</ele>
        <time>2021-08-02T09:09:52.392Z</time>
      </trkpt>
      <trkpt lat="47.04213" lon="9.01888">
        <ele>739</ele>
        <time>2021-08-02T09:09:53.393Z</time>
      </trkpt>
      <trkpt lat="47.04212" lon="9.01887">
        <ele>739</ele>
        <time>2021-08-02T09:09:54.392Z</time>
      </trkpt>
      <trkpt lat="47.04212" lon="9.01886">
        <ele>740</ele>
        <time>2021-08-02T09:09:55.392Z</time>
      </trkpt>
      <trkpt lat="47.04212" lon="9.01886">
        <ele>741</ele>
        <time>2021-08-02T09:09:56.392Z</time>
      </trkpt>
      <trkpt lat="47.04212" lon="9.01886">
        <ele>742</ele>
        <time>2021-08-02T09:09:57.392Z</time>
      </trkpt>
      <trkpt lat="47.04212" lon="9.01885">
        <ele>743</ele>
        <time>2021-08-02T09:09:58.393Z</time>
      </trkpt>
      <trkpt lat="47.04211" lon="9.01884">
        <ele>744</ele>
        <time>2021-08-02T09:09:59.393Z</time>
      </trkpt>
      <trkpt lat="47.04211" lon="9.01882">
        <ele>745</ele>
        <time>2021-08-02T09:10:00.393Z</time>
      </trkpt>
      <trkpt lat="47.0421" lon="9.01881">
        <ele>746</ele>
        <time>2021-08-02T09:10:01.393Z</time>
      </trkpt>
      <trkpt lat="47.04209" lon="9.01879">
        <ele>746</ele>
        <time>2021-08-02T09:10:02.392Z</time>
      </trkpt>
      <trkpt lat="47.04209" lon="9.01877">
        <ele>747</ele>
        <time>2021-08-02T09:10:03.393Z</time>
      </trkpt>
      <trkpt lat="47.0421" lon="9.01875">
        <ele>747</ele>
        <time>2021-08-02T09:10:04.393Z</time>
      </trkpt>
      <trkpt lat="47.0421" lon="9.01873">
        <ele>747</ele>
        <time>2021-08-02T09:10:05.393Z</time>
      </trkpt>
      <trkpt lat="47.04209" lon="9.01872">
        <ele>748</ele>
        <time>2021-08-02T09:10:06.393Z</time>
      </trkpt>
      <trkpt lat="47.04208" lon="9.01871">
        <ele>748</ele>
        <time>2021-08-02T09:10:07.393Z</time>
      </trkpt>
      <trkpt lat="47.04207" lon="9.0187">
        <ele>749</ele>
        <time>2021-08-02T09:10:08.393Z</time>
      </trkpt>
      <trkpt lat="47.04206" lon="9.01869">
        <ele>749</ele>
        <time>2021-08-02T09:10:09.393Z</time>
      </trkpt>
      <trkpt lat="47.04205" lon="9.01867">
        <ele>749</ele>
        <time>2021-08-02T09:10:10.393Z</time>
      </trkpt>
      <trkpt lat="47.04204" lon="9.01866">
        <ele>750</ele>
        <time>2021-08-02T09:10:11.392Z</time>
      </trkpt>
      <trkpt lat="47.04203" lon="9.01866">
        <ele>750</ele>
        <time>2021-08-02T09:10:12.392Z</time>
      </trkpt>
      <trkpt lat="47.04203" lon="9.01865">
        <ele>750</ele>
        <time>2021-08-02T09:10:13.393Z</time>
      </trkpt>
      <trkpt lat="47.04203" lon="9.01864">
        <ele>751</ele>
        <time>2021-08-02T09:10:14.393Z</time>
      </trkpt>
      <trkpt lat="47.04203" lon="9.01864">
        <ele>751</ele>
        <time>2021-08-02T09:10:15.393Z</time>
      </trkpt>
      <trkpt lat="47.04203" lon="9.01863">
        <ele>751</ele>
        <time>2021-08-02T09:10:16.393Z</time>
      </trkpt>
      <trkpt lat="47.04204" lon="9.01861">
        <ele>752</ele>
        <time>2021-08-02T09:10:17.393Z</time>
      </trkpt>
      <trkpt lat="47.04204" lon="9.0186">
        <ele>753</ele>
        <time>2021-08-02T09:10:18.393Z</time>
      </trkpt>
      <trkpt lat="47.04203" lon="9.01859">
        <ele>754</ele>
        <time>2021-08-02T09:10:19.393Z</time>
      </trkpt>
      <trkpt lat="47.04202" lon="9.01858">
        <ele>754</ele>
        <time>2021-08-02T09:10:20.393Z</time>
      </trkpt>
      <trkpt lat="47.04201" lon="9.01856">
        <ele>755</ele>
        <time>2021-08-02T09:10:21.393Z</time>
      </trkpt>
      <trkpt lat="47.042" lon="9.01855">
        <ele>756</ele>
        <time>2021-08-02T09:10:22.393Z</time>
      </trkpt>
      <trkpt lat="47.04199" lon="9.01854">
        <ele>756</ele>
        <time>2021-08-02T09:10:23.393Z</time>
      </trkpt>
      <trkpt lat="47.04198" lon="9.01854">
        <ele>757</ele>
        <time>2021-08-02T09:10:24.393Z</time>
      </trkpt>
      <trkpt lat="47.04197" lon="9.01853">
        <ele>758</ele>
        <time>2021-08-02T09:10:25.393Z</time>
      </trkpt>
      <trkpt lat="47.04196" lon="9.01852">
        <ele>758</ele>
        <time>2021-08-02T09:10:26.393Z</time>
      </trkpt>
      <trkpt lat="47.04195" lon="9.01851">
        <ele>759</ele>
        <time>2021-08-02T09:10:27.393Z</time>
      </trkpt>
      <trkpt lat="47.04194" lon="9.01852">
        <ele>759</ele>
        <time>2021-08-02T09:10:28.393Z</time>
      </trkpt>
      <trkpt lat="47.04193" lon="9.01851">
        <ele>760</ele>
        <time>2021-08-02T09:10:29.393Z</time>
      </trkpt>
      <trkpt lat="47.04193" lon="9.01851">
        <ele>760</ele>
        <time>2021-08-02T09:10:30.393Z</time>
      </trkpt>
      <trkpt lat="47.04192" lon="9.0185">
        <ele>760</ele>
        <time>2021-08-02T09:10:31.392Z</time>
      </trkpt>
      <trkpt lat="47.04192" lon="9.0185">
        <ele>760</ele>
        <time>2021-08-02T09:10:32.393Z</time>
      </trkpt>
      <trkpt lat="47.04191" lon="9.01849">
        <ele>760</ele>
        <time>2021-08-02T09:10:33.393Z</time>
      </trkpt>
      <trkpt lat="47.0419" lon="9.01849">
        <ele>760</ele>
        <time>2021-08-02T09:10:34.393Z</time>
      </trkpt>
      <trkpt lat="47.0419" lon="9.01847">
        <ele>760</ele>
        <time>2021-08-02T09:10:35.393Z</time>
      </trkpt>
      <trkpt lat="47.0419" lon="9.01846">
        <ele>760</ele>
        <time>2021-08-02T09:10:36.393Z</time>
      </trkpt>
      <trkpt lat="47.04189" lon="9.01844">
        <ele>760</ele>
        <time>2021-08-02T09:10:37.393Z</time>
      </trkpt>
      <trkpt lat="47.04189" lon="9.01843">
        <ele>760</ele>
        <time>2021-08-02T09:10:38.392Z</time>
      </trkpt>
      <trkpt lat="47.04188" lon="9.01843">
        <ele>760</ele>
        <time>2021-08-02T09:10:39.393Z</time>
      </trkpt>
      <trkpt lat="47.04188" lon="9.01842">
        <ele>760</ele>
        <time>2021-08-02T09:10:40.393Z</time>
      </trkpt>
      <trkpt lat="47.04187" lon="9.01841">
        <ele>760</ele>
        <time>2021-08-02T09:10:41.392Z</time>
      </trkpt>
      <trkpt lat="47.04186" lon="9.0184">
        <ele>760</ele>
        <time>2021-08-02T09:10:42.393Z</time>
      </trkpt>
      <trkpt lat="47.04185" lon="9.01839">
        <ele>760</ele>
        <time>2021-08-02T09:10:43.392Z</time>
      </trkpt>
      <trkpt lat="47.04185" lon="9.01837">
        <ele>760</ele>
        <time>2021-08-02T09:10:44.393Z</time>
      </trkpt>
      <trkpt lat="47.04184" lon="9.01836">
        <ele>760</ele>
        <time>2021-08-02T09:10:45.393Z</time>
      </trkpt>
      <trkpt lat="47.04183" lon="9.01835">
        <ele>761</ele>
        <time>2021-08-02T09:10:46.393Z</time>
      </trkpt>
      <trkpt lat="47.04182" lon="9.01833">
        <ele>761</ele>
        <time>2021-08-02T09:10:47.393Z</time>
      </trkpt>
      <trkpt lat="47.04182" lon="9.01831">
        <ele>761</ele>
        <time>2021-08-02T09:10:48.393Z</time>
      </trkpt>
      <trkpt lat="47.04181" lon="9.0183">
        <ele>761</ele>
        <time>2021-08-02T09:10:49.393Z</time>
      </trkpt>
      <trkpt lat="47.0418" lon="9.01828">
        <ele>760</ele>
        <time>2021-08-02T09:10:50.393Z</time>
      </trkpt>
      <trkpt lat="47.0418" lon="9.01827">
        <ele>760</ele>
        <time>2021-08-02T09:10:51.393Z</time>
      </trkpt>
      <trkpt lat="47.04179" lon="9.01826">
        <ele>760</ele>
        <time>2021-08-02T09:10:52.392Z</time>
      </trkpt>
      <trkpt lat="47.04178" lon="9.01824">
        <ele>759</ele>
        <time>2021-08-02T09:10:53.393Z</time>
      </trkpt>
      <trkpt lat="47.04178" lon="9.01823">
        <ele>759</ele>
        <time>2021-08-02T09:10:54.392Z</time>
      </trkpt>
      <trkpt lat="47.04177" lon="9.01822">
        <ele>759</ele>
        <time>2021-08-02T09:10:55.392Z</time>
      </trkpt>
      <trkpt lat="47.04177" lon="9.01821">
        <ele>759</ele>
        <time>2021-08-02T09:10:56.393Z</time>
      </trkpt>
      <trkpt lat="47.04177" lon="9.0182">
        <ele>759</ele>
        <time>2021-08-02T09:10:57.393Z</time>
      </trkpt>
      <trkpt lat="47.04177" lon="9.01819">
        <ele>759</ele>
        <time>2021-08-02T09:10:58.392Z</time>
      </trkpt>
      <trkpt lat="47.04177" lon="9.01818">
        <ele>759</ele>
        <time>2021-08-02T09:10:59.392Z</time>
      </trkpt>
      <trkpt lat="47.04176" lon="9.01817">
        <ele>759</ele>
        <time>2021-08-02T09:11:00.393Z</time>
      </trkpt>
      <trkpt lat="47.04176" lon="9.01817">
        <ele>759</ele>
        <time>2021-08-02T09:11:01.392Z</time>
      </trkpt>
      <trkpt lat="47.04175" lon="9.01816">
        <ele>758</ele>
        <time>2021-08-02T09:11:02.393Z</time>
      </trkpt>
      <trkpt lat="47.04174" lon="9.01815">
        <ele>758</ele>
        <time>2021-08-02T09:11:03.393Z</time>
      </trkpt>
      <trkpt lat="47.04174" lon="9.01815">
        <ele>757</ele>
        <time>2021-08-02T09:11:04.393Z</time>
      </trkpt>
      <trkpt lat="47.04174" lon="9.01813">
        <ele>757</ele>
        <time>2021-08-02T09:11:05.392Z</time>
      </trkpt>
      <trkpt lat="47.04173" lon="9.01812">
        <ele>757</ele>
        <time>2021-08-02T09:11:06.393Z</time>
      </trkpt>
      <trkpt lat="47.04173" lon="9.0181">
        <ele>757</ele>
        <time>2021-08-02T09:11:07.393Z</time>
      </trkpt>
      <trkpt lat="47.04173" lon="9.01808">
        <ele>757</ele>
        <time>2021-08-02T09:11:08.393Z</time>
      </trkpt>
      <trkpt lat="47.04172" lon="9.01806">
        <ele>757</ele>
        <time>2021-08-02T09:11:09.392Z</time>
      </trkpt>
      <trkpt lat="47.04171" lon="9.01805">
        <ele>756</ele>
        <time>2021-08-02T09:11:10.393Z</time>
      </trkpt>
      <trkpt lat="47.04171" lon="9.01805">
        <ele>756</ele>
        <time>2021-08-02T09:11:11.392Z</time>
      </trkpt>
      <trkpt lat="47.04171" lon="9.01804">
        <ele>755</ele>
        <time>2021-08-02T09:11:12.392Z</time>
      </trkpt>
      <trkpt lat="47.0417" lon="9.01805">
        <ele>755</ele>
        <time>2021-08-02T09:11:13.393Z</time>
      </trkpt>
      <trkpt lat="47.04169" lon="9.01804">
        <ele>754</ele>
        <time>2021-08-02T09:11:14.393Z</time>
      </trkpt>
      <trkpt lat="47.04169" lon="9.01804">
        <ele>754</ele>
        <time>2021-08-02T09:11:15.393Z</time>
      </trkpt>
      <trkpt lat="47.04168" lon="9.01803">
        <ele>754</ele>
        <time>2021-08-02T09:11:16.393Z</time>
      </trkpt>
      <trkpt lat="47.04167" lon="9.01803">
        <ele>754</ele>
        <time>2021-08-02T09:11:17.393Z</time>
      </trkpt>
      <trkpt lat="47.04166" lon="9.01802">
        <ele>754</ele>
        <time>2021-08-02T09:11:18.393Z</time>
      </trkpt>
      <trkpt lat="47.04166" lon="9.01801">
        <ele>754</ele>
        <time>2021-08-02T09:11:19.393Z</time>
      </trkpt>
      <trkpt lat="47.04166" lon="9.01799">
        <ele>755</ele>
        <time>2021-08-02T09:11:20.393Z</time>
      </trkpt>
      <trkpt lat="47.04165" lon="9.01798">
        <ele>755</ele>
        <time>2021-08-02T09:11:21.393Z</time>
      </trkpt>
      <trkpt lat="47.04165" lon="9.01798">
        <ele>756</ele>
        <time>2021-08-02T09:11:22.393Z</time>
      </trkpt>
      <trkpt lat="47.04164" lon="9.01798">
        <ele>757</ele>
        <time>2021-08-02T09:11:23.393Z</time>
      </trkpt>
      <trkpt lat="47.04164" lon="9.01797">
        <ele>757</ele>
        <time>2021-08-02T09:11:24.393Z</time>
      </trkpt>
      <trkpt lat="47.04163" lon="9.01796">
        <ele>757</ele>
        <time>2021-08-02T09:11:25.392Z</time>
      </trkpt>
      <trkpt lat="47.04163" lon="9.01795">
        <ele>757</ele>
        <time>2021-08-02T09:11:26.393Z</time>
      </trkpt>
      <trkpt lat="47.04162" lon="9.01794">
        <ele>757</ele>
        <time>2021-08-02T09:11:27.392Z</time>
      </trkpt>
      <trkpt lat="47.04161" lon="9.01793">
        <ele>756</ele>
        <time>2021-08-02T09:11:28.392Z</time>
      </trkpt>
      <trkpt lat="47.04161" lon="9.01793">
        <ele>756</ele>
        <time>2021-08-02T09:11:29.393Z</time>
      </trkpt>
      <trkpt lat="47.0416" lon="9.01792">
        <ele>756</ele>
        <time>2021-08-02T09:11:30.393Z</time>
      </trkpt>
      <trkpt lat="47.0416" lon="9.01791">
        <ele>756</ele>
        <time>2021-08-02T09:11:31.393Z</time>
      </trkpt>
      <trkpt lat="47.04159" lon="9.01791">
        <ele>757</ele>
        <time>2021-08-02T09:11:32.393Z</time>
      </trkpt>
      <trkpt lat="47.04159" lon="9.0179">
        <ele>757</ele>
        <time>2021-08-02T09:11:33.393Z</time>
      </trkpt>
      <trkpt lat="47.04158" lon="9.0179">
        <ele>757</ele>
        <time>2021-08-02T09:11:34.393Z</time>
      </trkpt>
      <trkpt lat="47.04158" lon="9.01789">
        <ele>757</ele>
        <time>2021-08-02T09:11:35.393Z</time>
      </trkpt>
      <trkpt lat="47.04157" lon="9.01788">
        <ele>757</ele>
        <time>2021-08-02T09:11:36.393Z</time>
      </trkpt>
      <trkpt lat="47.04157" lon="9.01787">
        <ele>758</ele>
        <time>2021-08-02T09:11:37.392Z</time>
      </trkpt>
      <trkpt lat="47.04156" lon="9.01787">
        <ele>758</ele>
        <time>2021-08-02T09:11:38.393Z</time>
      </trkpt>
      <trkpt lat="47.04156" lon="9.01787">
        <ele>758</ele>
        <time>2021-08-02T09:11:39.393Z</time>
      </trkpt>
      <trkpt lat="47.04155" lon="9.01786">
        <ele>758</ele>
        <time>2021-08-02T09:11:40.392Z</time>
      </trkpt>
      <trkpt lat="47.04154" lon="9.01786">
        <ele>759</ele>
        <time>2021-08-02T09:11:41.393Z</time>
      </trkpt>
      <trkpt lat="47.04153" lon="9.01786">
        <ele>759</ele>
        <time>2021-08-02T09:11:42.392Z</time>
      </trkpt>
      <trkpt lat="47.04152" lon="9.01785">
        <ele>759</ele>
        <time>2021-08-02T09:11:43.392Z</time>
      </trkpt>
      <trkpt lat="47.04151" lon="9.01785">
        <ele>759</ele>
        <time>2021-08-02T09:11:44.393Z</time>
      </trkpt>
      <trkpt lat="47.0415" lon="9.01785">
        <ele>759</ele>
        <time>2021-08-02T09:11:45.393Z</time>
      </trkpt>
      <trkpt lat="47.04149" lon="9.01784">
        <ele>760</ele>
        <time>2021-08-02T09:11:46.392Z</time>
      </trkpt>
      <trkpt lat="47.04148" lon="9.01784">
        <ele>760</ele>
        <time>2021-08-02T09:11:47.393Z</time>
      </trkpt>
      <trkpt lat="47.04147" lon="9.01784">
        <ele>759</ele>
        <time>2021-08-02T09:11:48.392Z</time>
      </trkpt>
      <trkpt lat="47.04146" lon="9.01784">
        <ele>759</ele>
        <time>2021-08-02T09:11:49.393Z</time>
      </trkpt>
      <trkpt lat="47.04145" lon="9.01785">
        <ele>759</ele>
        <time>2021-08-02T09:11:50.393Z</time>
      </trkpt>
      <trkpt lat="47.04144" lon="9.01785">
        <ele>759</ele>
        <time>2021-08-02T09:11:51.393Z</time>
      </trkpt>
      <trkpt lat="47.04143" lon="9.01784">
        <ele>759</ele>
        <time>2021-08-02T09:11:52.393Z</time>
      </trkpt>
      <trkpt lat="47.04142" lon="9.01784">
        <ele>759</ele>
        <time>2021-08-02T09:11:53.393Z</time>
      </trkpt>
      <trkpt lat="47.04142" lon="9.01783">
        <ele>759</ele>
        <time>2021-08-02T09:11:54.393Z</time>
      </trkpt>
      <trkpt lat="47.04141" lon="9.01782">
        <ele>759</ele>
        <time>2021-08-02T09:11:55.393Z</time>
      </trkpt>
      <trkpt lat="47.0414" lon="9.01781">
        <ele>759</ele>
        <time>2021-08-02T09:11:56.392Z</time>
      </trkpt>
      <trkpt lat="47.0414" lon="9.01781">
        <ele>759</ele>
        <time>2021-08-02T09:11:57.392Z</time>
      </trkpt>
      <trkpt lat="47.04139" lon="9.0178">
        <ele>759</ele>
        <time>2021-08-02T09:11:58.393Z</time>
      </trkpt>
      <trkpt lat="47.04138" lon="9.01778">
        <ele>759</ele>
        <time>2021-08-02T09:11:59.393Z</time>
      </trkpt>
      <trkpt lat="47.04138" lon="9.01777">
        <ele>759</ele>
        <time>2021-08-02T09:12:00.392Z</time>
      </trkpt>
      <trkpt lat="47.04137" lon="9.01775">
        <ele>759</ele>
        <time>2021-08-02T09:12:01.393Z</time>
      </trkpt>
      <trkpt lat="47.04136" lon="9.01774">
        <ele>759</ele>
        <time>2021-08-02T09:12:02.392Z</time>
      </trkpt>
      <trkpt lat="47.04136" lon="9.01774">
        <ele>759</ele>
        <time>2021-08-02T09:12:03.392Z</time>
      </trkpt>
      <trkpt lat="47.04135" lon="9.01773">
        <ele>759</ele>
        <time>2021-08-02T09:12:04.392Z</time>
      </trkpt>
      <trkpt lat="47.04135" lon="9.01772">
        <ele>759</ele>
        <time>2021-08-02T09:12:05.393Z</time>
      </trkpt>
      <trkpt lat="47.04134" lon="9.0177">
        <ele>758</ele>
        <time>2021-08-02T09:12:06.392Z</time>
      </trkpt>
      <trkpt lat="47.04132" lon="9.0177">
        <ele>758</ele>
        <time>2021-08-02T09:12:07.393Z</time>
      </trkpt>
      <trkpt lat="47.04131" lon="9.01769">
        <ele>758</ele>
        <time>2021-08-02T09:12:08.392Z</time>
      </trkpt>
      <trkpt lat="47.04131" lon="9.01768">
        <ele>758</ele>
        <time>2021-08-02T09:12:09.393Z</time>
      </trkpt>
      <trkpt lat="47.0413" lon="9.01768">
        <ele>758</ele>
        <time>2021-08-02T09:12:10.393Z</time>
      </trkpt>
      <trkpt lat="47.0413" lon="9.01767">
        <ele>758</ele>
        <time>2021-08-02T09:12:11.392Z</time>
      </trkpt>
      <trkpt lat="47.04129" lon="9.01767">
        <ele>758</ele>
        <time>2021-08-02T09:12:12.393Z</time>
      </trkpt>
      <trkpt lat="47.04128" lon="9.01766">
        <ele>757</ele>
        <time>2021-08-02T09:12:13.393Z</time>
      </trkpt>
      <trkpt lat="47.04127" lon="9.01765">
        <ele>757</ele>
        <time>2021-08-02T09:12:14.393Z</time>
      </trkpt>
      <trkpt lat="47.04127" lon="9.01764">
        <ele>757</ele>
        <time>2021-08-02T09:12:15.393Z</time>
      </trkpt>
      <trkpt lat="47.04126" lon="9.01763">
        <ele>757</ele>
        <time>2021-08-02T09:12:16.392Z</time>
      </trkpt>
      <trkpt lat="47.04125" lon="9.01762">
        <ele>758</ele>
        <time>2021-08-02T09:12:17.393Z</time>
      </trkpt>
      <trkpt lat="47.04124" lon="9.0176">
        <ele>758</ele>
        <time>2021-08-02T09:12:18.393Z</time>
      </trkpt>
      <trkpt lat="47.04123" lon="9.01759">
        <ele>759</ele>
        <time>2021-08-02T09:12:19.393Z</time>
      </trkpt>
      <trkpt lat="47.04124" lon="9.01758">
        <ele>760</ele>
        <time>2021-08-02T09:12:20.393Z</time>
      </trkpt>
      <trkpt lat="47.04124" lon="9.01757">
        <ele>760</ele>
        <time>2021-08-02T09:12:21.392Z</time>
      </trkpt>
      <trkpt lat="47.04124" lon="9.01757">
        <ele>760</ele>
        <time>2021-08-02T09:12:22.392Z</time>
      </trkpt>
      <trkpt lat="47.04123" lon="9.01756">
        <ele>760</ele>
        <time>2021-08-02T09:12:23.392Z</time>
      </trkpt>
      <trkpt lat="47.04123" lon="9.01756">
        <ele>760</ele>
        <time>2021-08-02T09:12:24.392Z</time>
      </trkpt>
      <trkpt lat="47.04122" lon="9.01755">
        <ele>760</ele>
        <time>2021-08-02T09:12:25.393Z</time>
      </trkpt>
      <trkpt lat="47.04121" lon="9.01754">
        <ele>760</ele>
        <time>2021-08-02T09:12:26.393Z</time>
      </trkpt>
      <trkpt lat="47.04121" lon="9.01754">
        <ele>760</ele>
        <time>2021-08-02T09:12:27.393Z</time>
      </trkpt>
      <trkpt lat="47.04121" lon="9.01753">
        <ele>761</ele>
        <time>2021-08-02T09:12:28.393Z</time>
      </trkpt>
      <trkpt lat="47.0412" lon="9.01752">
        <ele>761</ele>
        <time>2021-08-02T09:12:29.393Z</time>
      </trkpt>
      <trkpt lat="47.04119" lon="9.01751">
        <ele>761</ele>
        <time>2021-08-02T09:12:30.392Z</time>
      </trkpt>
      <trkpt lat="47.04118" lon="9.01751">
        <ele>761</ele>
        <time>2021-08-02T09:12:31.393Z</time>
      </trkpt>
      <trkpt lat="47.04117" lon="9.0175">
        <ele>762</ele>
        <time>2021-08-02T09:12:32.393Z</time>
      </trkpt>
      <trkpt lat="47.04116" lon="9.0175">
        <ele>762</ele>
        <time>2021-08-02T09:12:33.392Z</time>
      </trkpt>
      <trkpt lat="47.04114" lon="9.01749">
        <ele>763</ele>
        <time>2021-08-02T09:12:34.393Z</time>
      </trkpt>
      <trkpt lat="47.04113" lon="9.01749">
        <ele>763</ele>
        <time>2021-08-02T09:12:35.393Z</time>
      </trkpt>
      <trkpt lat="47.04113" lon="9.01748">
        <ele>764</ele>
        <time>2021-08-02T09:12:36.393Z</time>
      </trkpt>
      <trkpt lat="47.04112" lon="9.01748">
        <ele>764</ele>
        <time>2021-08-02T09:12:37.392Z</time>
      </trkpt>
      <trkpt lat="47.04111" lon="9.01748">
        <ele>764</ele>
        <time>2021-08-02T09:12:38.393Z</time>
      </trkpt>
      <trkpt lat="47.0411" lon="9.01747">
        <ele>764</ele>
        <time>2021-08-02T09:12:39.392Z</time>
      </trkpt>
      <trkpt lat="47.0411" lon="9.01747">
        <ele>764</ele>
        <time>2021-08-02T09:12:40.393Z</time>
      </trkpt>
      <trkpt lat="47.0411" lon="9.01747">
        <ele>764</ele>
        <time>2021-08-02T09:12:41.392Z</time>
      </trkpt>
      <trkpt lat="47.04109" lon="9.01747">
        <ele>764</ele>
        <time>2021-08-02T09:12:42.393Z</time>
      </trkpt>
      <trkpt lat="47.04109" lon="9.01747">
        <ele>764</ele>
        <time>2021-08-02T09:12:43.393Z</time>
      </trkpt>
      <trkpt lat="47.04108" lon="9.01747">
        <ele>764</ele>
        <time>2021-08-02T09:12:44.393Z</time>
      </trkpt>
      <trkpt lat="47.04107" lon="9.01747">
        <ele>764</ele>
        <time>2021-08-02T09:12:45.393Z</time>
      </trkpt>
      <trkpt lat="47.04106" lon="9.01746">
        <ele>764</ele>
        <time>2021-08-02T09:12:46.392Z</time>
      </trkpt>
      <trkpt lat="47.04106" lon="9.01745">
        <ele>764</ele>
        <time>2021-08-02T09:12:47.392Z</time>
      </trkpt>
      <trkpt lat="47.04106" lon="9.01744">
        <ele>764</ele>
        <time>2021-08-02T09:12:48.393Z</time>
      </trkpt>
      <trkpt lat="47.04106" lon="9.01743">
        <ele>764</ele>
        <time>2021-08-02T09:12:49.393Z</time>
      </trkpt>
      <trkpt lat="47.04105" lon="9.01742">
        <ele>764</ele>
        <time>2021-08-02T09:12:50.392Z</time>
      </trkpt>
      <trkpt lat="47.04104" lon="9.01741">
        <ele>764</ele>
        <time>2021-08-02T09:12:51.393Z</time>
      </trkpt>
      <trkpt lat="47.04104" lon="9.0174">
        <ele>764</ele>
        <time>2021-08-02T09:12:52.392Z</time>
      </trkpt>
      <trkpt lat="47.04103" lon="9.0174">
        <ele>764</ele>
        <time>2021-08-02T09:12:53.393Z</time>
      </trkpt>
      <trkpt lat="47.04103" lon="9.01739">
        <ele>764</ele>
        <time>2021-08-02T09:12:54.393Z</time>
      </trkpt>
      <trkpt lat="47.04103" lon="9.01738">
        <ele>764</ele>
        <time>2021-08-02T09:12:55.392Z</time>
      </trkpt>
      <trkpt lat="47.04103" lon="9.01737">
        <ele>764</ele>
        <time>2021-08-02T09:12:56.392Z</time>
      </trkpt>
      <trkpt lat="47.04103" lon="9.01736">
        <ele>764</ele>
        <time>2021-08-02T09:12:57.392Z</time>
      </trkpt>
      <trkpt lat="47.04103" lon="9.01735">
        <ele>765</ele>
        <time>2021-08-02T09:12:58.392Z</time>
      </trkpt>
      <trkpt lat="47.04103" lon="9.01734">
        <ele>765</ele>
        <time>2021-08-02T09:12:59.393Z</time>
      </trkpt>
      <trkpt lat="47.04103" lon="9.01733">
        <ele>765</ele>
        <time>2021-08-02T09:13:00.393Z</time>
      </trkpt>
      <trkpt lat="47.04103" lon="9.01732">
        <ele>766</ele>
        <time>2021-08-02T09:13:01.393Z</time>
      </trkpt>
      <trkpt lat="47.04103" lon="9.01731">
        <ele>766</ele>
        <time>2021-08-02T09:13:02.393Z</time>
      </trkpt>
      <trkpt lat="47.04103" lon="9.01729">
        <ele>767</ele>
        <time>2021-08-02T09:13:03.393Z</time>
      </trkpt>
      <trkpt lat="47.04103" lon="9.01729">
        <ele>767</ele>
        <time>2021-08-02T09:13:04.393Z</time>
      </trkpt>
      <trkpt lat="47.04103" lon="9.01727">
        <ele>768</ele>
        <time>2021-08-02T09:13:05.392Z</time>
      </trkpt>
      <trkpt lat="47.04103" lon="9.01726">
        <ele>768</ele>
        <time>2021-08-02T09:13:06.392Z</time>
      </trkpt>
      <trkpt lat="47.04104" lon="9.01726">
        <ele>769</ele>
        <time>2021-08-02T09:13:07.393Z</time>
      </trkpt>
      <trkpt lat="47.04105" lon="9.01725">
        <ele>770</ele>
        <time>2021-08-02T09:13:08.393Z</time>
      </trkpt>
      <trkpt lat="47.04105" lon="9.01724">
        <ele>770</ele>
        <time>2021-08-02T09:13:09.393Z</time>
      </trkpt>
      <trkpt lat="47.04106" lon="9.01723">
        <ele>771</ele>
        <time>2021-08-02T09:13:10.393Z</time>
      </trkpt>
      <trkpt lat="47.04105" lon="9.01722">
        <ele>772</ele>
        <time>2021-08-02T09:13:11.393Z</time>
      </trkpt>
      <trkpt lat="47.04105" lon="9.0172">
        <ele>772</ele>
        <time>2021-08-02T09:13:12.393Z</time>
      </trkpt>
      <trkpt lat="47.04105" lon="9.0172">
        <ele>771</ele>
        <time>2021-08-02T09:13:13.392Z</time>
      </trkpt>
      <trkpt lat="47.04105" lon="9.01719">
        <ele>771</ele>
        <time>2021-08-02T09:13:14.392Z</time>
      </trkpt>
      <trkpt lat="47.04105" lon="9.01717">
        <ele>771</ele>
        <time>2021-08-02T09:13:15.393Z</time>
      </trkpt>
      <trkpt lat="47.04105" lon="9.01716">
        <ele>770</ele>
        <time>2021-08-02T09:13:16.393Z</time>
      </trkpt>
      <trkpt lat="47.04104" lon="9.01715">
        <ele>769</ele>
        <time>2021-08-02T09:13:17.392Z</time>
      </trkpt>
      <trkpt lat="47.04103" lon="9.01713">
        <ele>769</ele>
        <time>2021-08-02T09:13:18.392Z</time>
      </trkpt>
      <trkpt lat="47.04103" lon="9.01712">
        <ele>769</ele>
        <time>2021-08-02T09:13:19.393Z</time>
      </trkpt>
      <trkpt lat="47.04102" lon="9.0171">
        <ele>769</ele>
        <time>2021-08-02T09:13:20.393Z</time>
      </trkpt>
      <trkpt lat="47.04101" lon="9.01709">
        <ele>769</ele>
        <time>2021-08-02T09:13:21.392Z</time>
      </trkpt>
      <trkpt lat="47.041" lon="9.01708">
        <ele>769</ele>
        <time>2021-08-02T09:13:22.393Z</time>
      </trkpt>
      <trkpt lat="47.04099" lon="9.01707">
        <ele>769</ele>
        <time>2021-08-02T09:13:23.393Z</time>
      </trkpt>
      <trkpt lat="47.04099" lon="9.01706">
        <ele>769</ele>
        <time>2021-08-02T09:13:24.393Z</time>
      </trkpt>
      <trkpt lat="47.04097" lon="9.01705">
        <ele>770</ele>
        <time>2021-08-02T09:13:25.393Z</time>
      </trkpt>
      <trkpt lat="47.04096" lon="9.01704">
        <ele>770</ele>
        <time>2021-08-02T09:13:26.393Z</time>
      </trkpt>
      <trkpt lat="47.04095" lon="9.01703">
        <ele>771</ele>
        <time>2021-08-02T09:13:27.392Z</time>
      </trkpt>
      <trkpt lat="47.04094" lon="9.01702">
        <ele>771</ele>
        <time>2021-08-02T09:13:28.392Z</time>
      </trkpt>
      <trkpt lat="47.04093" lon="9.01701">
        <ele>771</ele>
        <time>2021-08-02T09:13:29.393Z</time>
      </trkpt>
      <trkpt lat="47.04093" lon="9.017">
        <ele>772</ele>
        <time>2021-08-02T09:13:30.392Z</time>
      </trkpt>
      <trkpt lat="47.04092" lon="9.01698">
        <ele>772</ele>
        <time>2021-08-02T09:13:31.393Z</time>
      </trkpt>
      <trkpt lat="47.04092" lon="9.01697">
        <ele>772</ele>
        <time>2021-08-02T09:13:32.392Z</time>
      </trkpt>
      <trkpt lat="47.04091" lon="9.01697">
        <ele>772</ele>
        <time>2021-08-02T09:13:33.392Z</time>
      </trkpt>
      <trkpt lat="47.04091" lon="9.01696">
        <ele>771</ele>
        <time>2021-08-02T09:13:34.392Z</time>
      </trkpt>
      <trkpt lat="47.0409" lon="9.01695">
        <ele>771</ele>
        <time>2021-08-02T09:13:35.393Z</time>
      </trkpt>
      <trkpt lat="47.0409" lon="9.01696">
        <ele>770</ele>
        <time>2021-08-02T09:13:36.393Z</time>
      </trkpt>
      <trkpt lat="47.04088" lon="9.01697">
        <ele>769</ele>
        <time>2021-08-02T09:13:37.393Z</time>
      </trkpt>
      <trkpt lat="47.04088" lon="9.01697">
        <ele>769</ele>
        <time>2021-08-02T09:13:38.393Z</time>
      </trkpt>
      <trkpt lat="47.04088" lon="9.01696">
        <ele>769</ele>
        <time>2021-08-02T09:13:39.392Z</time>
      </trkpt>
      <trkpt lat="47.04088" lon="9.01694">
        <ele>769</ele>
        <time>2021-08-02T09:13:40.392Z</time>
      </trkpt>
      <trkpt lat="47.04088" lon="9.01693">
        <ele>769</ele>
        <time>2021-08-02T09:13:41.393Z</time>
      </trkpt>
      <trkpt lat="47.04088" lon="9.01693">
        <ele>768</ele>
        <time>2021-08-02T09:13:42.392Z</time>
      </trkpt>
      <trkpt lat="47.04088" lon="9.01693">
        <ele>768</ele>
        <time>2021-08-02T09:13:43.392Z</time>
      </trkpt>
      <trkpt lat="47.04086" lon="9.01693">
        <ele>768</ele>
        <time>2021-08-02T09:13:44.392Z</time>
      </trkpt>
      <trkpt lat="47.04085" lon="9.01692">
        <ele>768</ele>
        <time>2021-08-02T09:13:45.393Z</time>
      </trkpt>
      <trkpt lat="47.04084" lon="9.01691">
        <ele>767</ele>
        <time>2021-08-02T09:13:46.393Z</time>
      </trkpt>
      <trkpt lat="47.04084" lon="9.01691">
        <ele>767</ele>
        <time>2021-08-02T09:13:47.392Z</time>
      </trkpt>
      <trkpt lat="47.04084" lon="9.0169">
        <ele>767</ele>
        <time>2021-08-02T09:13:48.392Z</time>
      </trkpt>
      <trkpt lat="47.04084" lon="9.0169">
        <ele>766</ele>
        <time>2021-08-02T09:13:49.392Z</time>
      </trkpt>
      <trkpt lat="47.04083" lon="9.01689">
        <ele>766</ele>
        <time>2021-08-02T09:13:50.392Z</time>
      </trkpt>
      <trkpt lat="47.04083" lon="9.01688">
        <ele>765</ele>
        <time>2021-08-02T09:13:51.393Z</time>
      </trkpt>
      <trkpt lat="47.04082" lon="9.01688">
        <ele>765</ele>
        <time>2021-08-02T09:13:52.392Z</time>
      </trkpt>
      <trkpt lat="47.04082" lon="9.01687">
        <ele>765</ele>
        <time>2021-08-02T09:13:53.393Z</time>
      </trkpt>
      <trkpt lat="47.04082" lon="9.01687">
        <ele>765</ele>
        <time>2021-08-02T09:13:54.393Z</time>
      </trkpt>
      <trkpt lat="47.04082" lon="9.01687">
        <ele>766</ele>
        <time>2021-08-02T09:13:55.392Z</time>
      </trkpt>
      <trkpt lat="47.04082" lon="9.01686">
        <ele>766</ele>
        <time>2021-08-02T09:13:56.393Z</time>
      </trkpt>
      <trkpt lat="47.04081" lon="9.01686">
        <ele>767</ele>
        <time>2021-08-02T09:13:57.392Z</time>
      </trkpt>
      <trkpt lat="47.04081" lon="9.01685">
        <ele>768</ele>
        <time>2021-08-02T09:13:58.392Z</time>
      </trkpt>
      <trkpt lat="47.04081" lon="9.01685">
        <ele>769</ele>
        <time>2021-08-02T09:13:59.392Z</time>
      </trkpt>
      <trkpt lat="47.0408" lon="9.01684">
        <ele>769</ele>
        <time>2021-08-02T09:14:00.392Z</time>
      </trkpt>
      <trkpt lat="47.0408" lon="9.01684">
        <ele>770</ele>
        <time>2021-08-02T09:14:01.393Z</time>
      </trkpt>
      <trkpt lat="47.04079" lon="9.01683">
        <ele>770</ele>
        <time>2021-08-02T09:14:02.393Z</time>
      </trkpt>
      <trkpt lat="47.04079" lon="9.01683">
        <ele>770</ele>
        <time>2021-08-02T09:14:03.393Z</time>
      </trkpt>
      <trkpt lat="47.04079" lon="9.01683">
        <ele>770</ele>
        <time>2021-08-02T09:14:04.392Z</time>
      </trkpt>
      <trkpt lat="47.04079" lon="9.01681">
        <ele>771</ele>
        <time>2021-08-02T09:14:05.393Z</time>
      </trkpt>
      <trkpt lat="47.04079" lon="9.0168">
        <ele>771</ele>
        <time>2021-08-02T09:14:06.393Z</time>
      </trkpt>
      <trkpt lat="47.0408" lon="9.01679">
        <ele>771</ele>
        <time>2021-08-02T09:14:07.393Z</time>
      </trkpt>
      <trkpt lat="47.0408" lon="9.01677">
        <ele>772</ele>
        <time>2021-08-02T09:14:08.392Z</time>
      </trkpt>
      <trkpt lat="47.0408" lon="9.01675">
        <ele>772</ele>
        <time>2021-08-02T09:14:09.392Z</time>
      </trkpt>
      <trkpt lat="47.04079" lon="9.01674">
        <ele>772</ele>
        <time>2021-08-02T09:14:10.393Z</time>
      </trkpt>
      <trkpt lat="47.04079" lon="9.01674">
        <ele>772</ele>
        <time>2021-08-02T09:14:11.393Z</time>
      </trkpt>
      <trkpt lat="47.04078" lon="9.01675">
        <ele>772</ele>
        <time>2021-08-02T09:14:12.393Z</time>
      </trkpt>
      <trkpt lat="47.04075" lon="9.01672">
        <ele>771</ele>
        <time>2021-08-02T09:14:13.393Z</time>
      </trkpt>
      <trkpt lat="47.04075" lon="9.01672">
        <ele>771</ele>
        <time>2021-08-02T09:14:14.393Z</time>
      </trkpt>
      <trkpt lat="47.04076" lon="9.01673">
        <ele>770</ele>
        <time>2021-08-02T09:14:15.393Z</time>
      </trkpt>
      <trkpt lat="47.04074" lon="9.01672">
        <ele>770</ele>
        <time>2021-08-02T09:14:16.393Z</time>
      </trkpt>
      <trkpt lat="47.04075" lon="9.01671">
        <ele>770</ele>
        <time>2021-08-02T09:14:17.394Z</time>
      </trkpt>
      <trkpt lat="47.04075" lon="9.01671">
        <ele>770</ele>
        <time>2021-08-02T09:14:18.393Z</time>
      </trkpt>
      <trkpt lat="47.04076" lon="9.0167">
        <ele>771</ele>
        <time>2021-08-02T09:14:19.393Z</time>
      </trkpt>
      <trkpt lat="47.04075" lon="9.01669">
        <ele>771</ele>
        <time>2021-08-02T09:14:20.395Z</time>
      </trkpt>
      <trkpt lat="47.04075" lon="9.01668">
        <ele>772</ele>
        <time>2021-08-02T09:14:21.395Z</time>
      </trkpt>
      <trkpt lat="47.04075" lon="9.01667">
        <ele>772</ele>
        <time>2021-08-02T09:14:22.394Z</time>
      </trkpt>
      <trkpt lat="47.04074" lon="9.01666">
        <ele>773</ele>
        <time>2021-08-02T09:14:23.395Z</time>
      </trkpt>
      <trkpt lat="47.04073" lon="9.01666">
        <ele>773</ele>
        <time>2021-08-02T09:14:24.394Z</time>
      </trkpt>
      <trkpt lat="47.04073" lon="9.01666">
        <ele>774</ele>
        <time>2021-08-02T09:14:25.394Z</time>
      </trkpt>
      <trkpt lat="47.04073" lon="9.01666">
        <ele>775</ele>
        <time>2021-08-02T09:14:26.394Z</time>
      </trkpt>
      <trkpt lat="47.04072" lon="9.01662">
        <ele>775</ele>
        <time>2021-08-02T09:14:27.395Z</time>
      </trkpt>
      <trkpt lat="47.04071" lon="9.01661">
        <ele>775</ele>
        <time>2021-08-02T09:14:28.395Z</time>
      </trkpt>
      <trkpt lat="47.0407" lon="9.0166">
        <ele>775</ele>
        <time>2021-08-02T09:14:29.394Z</time>
      </trkpt>
      <trkpt lat="47.04069" lon="9.0166">
        <ele>774</ele>
        <time>2021-08-02T09:14:30.394Z</time>
      </trkpt>
      <trkpt lat="47.04069" lon="9.01659">
        <ele>774</ele>
        <time>2021-08-02T09:14:31.394Z</time>
      </trkpt>
      <trkpt lat="47.04067" lon="9.01657">
        <ele>774</ele>
        <time>2021-08-02T09:14:32.394Z</time>
      </trkpt>
      <trkpt lat="47.04065" lon="9.01656">
        <ele>773</ele>
        <time>2021-08-02T09:14:33.394Z</time>
      </trkpt>
      <trkpt lat="47.04063" lon="9.01655">
        <ele>773</ele>
        <time>2021-08-02T09:14:34.395Z</time>
      </trkpt>
      <trkpt lat="47.04061" lon="9.01654">
        <ele>772</ele>
        <time>2021-08-02T09:14:35.395Z</time>
      </trkpt>
      <trkpt lat="47.04061" lon="9.01653">
        <ele>771</ele>
        <time>2021-08-02T09:14:36.394Z</time>
      </trkpt>
      <trkpt lat="47.04061" lon="9.01652">
        <ele>770</ele>
        <time>2021-08-02T09:14:37.395Z</time>
      </trkpt>
      <trkpt lat="47.0406" lon="9.01652">
        <ele>770</ele>
        <time>2021-08-02T09:14:38.394Z</time>
      </trkpt>
      <trkpt lat="47.04058" lon="9.01654">
        <ele>755</ele>
        <time>2021-08-02T09:14:39.395Z</time>
      </trkpt>
      <trkpt lat="47.04058" lon="9.01654">
        <ele>754</ele>
        <time>2021-08-02T09:14:40.394Z</time>
      </trkpt>
      <trkpt lat="47.04061" lon="9.01655">
        <ele>750</ele>
        <time>2021-08-02T09:14:41.394Z</time>
      </trkpt>
      <trkpt lat="47.04061" lon="9.01655">
        <ele>749</ele>
        <time>2021-08-02T09:14:42.395Z</time>
      </trkpt>
      <trkpt lat="47.04061" lon="9.01655">
        <ele>748</ele>
        <time>2021-08-02T09:14:43.394Z</time>
      </trkpt>
      <trkpt lat="47.04061" lon="9.01655">
        <ele>748</ele>
        <time>2021-08-02T09:14:44.395Z</time>
      </trkpt>
      <trkpt lat="47.04061" lon="9.01655">
        <ele>747</ele>
        <time>2021-08-02T09:14:45.395Z</time>
      </trkpt>
      <trkpt lat="47.04061" lon="9.01654">
        <ele>746</ele>
        <time>2021-08-02T09:14:46.395Z</time>
      </trkpt>
      <trkpt lat="47.04061" lon="9.01654">
        <ele>745</ele>
        <time>2021-08-02T09:14:47.395Z</time>
      </trkpt>
      <trkpt lat="47.04061" lon="9.01655">
        <ele>744</ele>
        <time>2021-08-02T09:14:48.395Z</time>
      </trkpt>
      <trkpt lat="47.04061" lon="9.01655">
        <ele>743</ele>
        <time>2021-08-02T09:14:49.395Z</time>
      </trkpt>
      <trkpt lat="47.04061" lon="9.01654">
        <ele>743</ele>
        <time>2021-08-02T09:14:50.395Z</time>
      </trkpt>
      <trkpt lat="47.04061" lon="9.0165">
        <ele>744</ele>
        <time>2021-08-02T09:14:51.394Z</time>
      </trkpt>
      <trkpt lat="47.04062" lon="9.0165">
        <ele>745</ele>
        <time>2021-08-02T09:14:52.394Z</time>
      </trkpt>
      <trkpt lat="47.04063" lon="9.01649">
        <ele>746</ele>
        <time>2021-08-02T09:14:53.394Z</time>
      </trkpt>
      <trkpt lat="47.04064" lon="9.01648">
        <ele>747</ele>
        <time>2021-08-02T09:14:54.395Z</time>
      </trkpt>
      <trkpt lat="47.04065" lon="9.01646">
        <ele>748</ele>
        <time>2021-08-02T09:14:55.395Z</time>
      </trkpt>
      <trkpt lat="47.04065" lon="9.01644">
        <ele>749</ele>
        <time>2021-08-02T09:14:56.395Z</time>
      </trkpt>
      <trkpt lat="47.04065" lon="9.01643">
        <ele>750</ele>
        <time>2021-08-02T09:14:57.395Z</time>
      </trkpt>
      <trkpt lat="47.04064" lon="9.01642">
        <ele>751</ele>
        <time>2021-08-02T09:14:58.395Z</time>
      </trkpt>
      <trkpt lat="47.04064" lon="9.01641">
        <ele>753</ele>
        <time>2021-08-02T09:14:59.394Z</time>
      </trkpt>
      <trkpt lat="47.04064" lon="9.01641">
        <ele>754</ele>
        <time>2021-08-02T09:15:00.394Z</time>
      </trkpt>
      <trkpt lat="47.04063" lon="9.0164">
        <ele>755</ele>
        <time>2021-08-02T09:15:01.395Z</time>
      </trkpt>
      <trkpt lat="47.04062" lon="9.01639">
        <ele>756</ele>
        <time>2021-08-02T09:15:02.394Z</time>
      </trkpt>
      <trkpt lat="47.04062" lon="9.01639">
        <ele>757</ele>
        <time>2021-08-02T09:15:03.394Z</time>
      </trkpt>
      <trkpt lat="47.04062" lon="9.01638">
        <ele>759</ele>
        <time>2021-08-02T09:15:04.395Z</time>
      </trkpt>
      <trkpt lat="47.04061" lon="9.01637">
        <ele>760</ele>
        <time>2021-08-02T09:15:05.394Z</time>
      </trkpt>
      <trkpt lat="47.04061" lon="9.01637">
        <ele>762</ele>
        <time>2021-08-02T09:15:06.394Z</time>
      </trkpt>
      <trkpt lat="47.04061" lon="9.01637">
        <ele>763</ele>
        <time>2021-08-02T09:15:07.394Z</time>
      </trkpt>
      <trkpt lat="47.0406" lon="9.01636">
        <ele>765</ele>
        <time>2021-08-02T09:15:08.394Z</time>
      </trkpt>
      <trkpt lat="47.0406" lon="9.01637">
        <ele>765</ele>
        <time>2021-08-02T09:15:09.394Z</time>
      </trkpt>
      <trkpt lat="47.04063" lon="9.01637">
        <ele>768</ele>
        <time>2021-08-02T09:15:10.395Z</time>
      </trkpt>
      <trkpt lat="47.04064" lon="9.01636">
        <ele>769</ele>
        <time>2021-08-02T09:15:11.394Z</time>
      </trkpt>
      <trkpt lat="47.04065" lon="9.01635">
        <ele>770</ele>
        <time>2021-08-02T09:15:12.394Z</time>
      </trkpt>
      <trkpt lat="47.04065" lon="9.01634">
        <ele>771</ele>
        <time>2021-08-02T09:15:13.395Z</time>
      </trkpt>
      <trkpt lat="47.04066" lon="9.01633">
        <ele>772</ele>
        <time>2021-08-02T09:15:14.394Z</time>
      </trkpt>
      <trkpt lat="47.04066" lon="9.01631">
        <ele>773</ele>
        <time>2021-08-02T09:15:15.395Z</time>
      </trkpt>
      <trkpt lat="47.04065" lon="9.0163">
        <ele>773</ele>
        <time>2021-08-02T09:15:16.395Z</time>
      </trkpt>
      <trkpt lat="47.04066" lon="9.01628">
        <ele>774</ele>
        <time>2021-08-02T09:15:17.395Z</time>
      </trkpt>
      <trkpt lat="47.04066" lon="9.01627">
        <ele>775</ele>
        <time>2021-08-02T09:15:18.395Z</time>
      </trkpt>
      <trkpt lat="47.04066" lon="9.01625">
        <ele>776</ele>
        <time>2021-08-02T09:15:19.395Z</time>
      </trkpt>
      <trkpt lat="47.04066" lon="9.01623">
        <ele>777</ele>
        <time>2021-08-02T09:15:20.394Z</time>
      </trkpt>
      <trkpt lat="47.04066" lon="9.01622">
        <ele>778</ele>
        <time>2021-08-02T09:15:21.395Z</time>
      </trkpt>
      <trkpt lat="47.04065" lon="9.01621">
        <ele>778</ele>
        <time>2021-08-02T09:15:22.395Z</time>
      </trkpt>
      <trkpt lat="47.04064" lon="9.01619">
        <ele>778</ele>
        <time>2021-08-02T09:15:23.395Z</time>
      </trkpt>
      <trkpt lat="47.04063" lon="9.01618">
        <ele>778</ele>
        <time>2021-08-02T09:15:24.395Z</time>
      </trkpt>
      <trkpt lat="47.04062" lon="9.01617">
        <ele>778</ele>
        <time>2021-08-02T09:15:25.394Z</time>
      </trkpt>
      <trkpt lat="47.04062" lon="9.01616">
        <ele>778</ele>
        <time>2021-08-02T09:15:26.395Z</time>
      </trkpt>
      <trkpt lat="47.04062" lon="9.01615">
        <ele>778</ele>
        <time>2021-08-02T09:15:27.394Z</time>
      </trkpt>
      <trkpt lat="47.04062" lon="9.01614">
        <ele>779</ele>
        <time>2021-08-02T09:15:28.395Z</time>
      </trkpt>
      <trkpt lat="47.04062" lon="9.01613">
        <ele>780</ele>
        <time>2021-08-02T09:15:29.395Z</time>
      </trkpt>
      <trkpt lat="47.04062" lon="9.01611">
        <ele>780</ele>
        <time>2021-08-02T09:15:30.395Z</time>
      </trkpt>
      <trkpt lat="47.04062" lon="9.0161">
        <ele>781</ele>
        <time>2021-08-02T09:15:31.395Z</time>
      </trkpt>
      <trkpt lat="47.04061" lon="9.01609">
        <ele>782</ele>
        <time>2021-08-02T09:15:32.395Z</time>
      </trkpt>
      <trkpt lat="47.0406" lon="9.01608">
        <ele>783</ele>
        <time>2021-08-02T09:15:33.394Z</time>
      </trkpt>
      <trkpt lat="47.04059" lon="9.01608">
        <ele>784</ele>
        <time>2021-08-02T09:15:34.394Z</time>
      </trkpt>
      <trkpt lat="47.04059" lon="9.01607">
        <ele>785</ele>
        <time>2021-08-02T09:15:35.394Z</time>
      </trkpt>
      <trkpt lat="47.04058" lon="9.01607">
        <ele>786</ele>
        <time>2021-08-02T09:15:36.395Z</time>
      </trkpt>
      <trkpt lat="47.04057" lon="9.01606">
        <ele>787</ele>
        <time>2021-08-02T09:15:37.394Z</time>
      </trkpt>
      <trkpt lat="47.04057" lon="9.01606">
        <ele>788</ele>
        <time>2021-08-02T09:15:38.394Z</time>
      </trkpt>
      <trkpt lat="47.04056" lon="9.01605">
        <ele>789</ele>
        <time>2021-08-02T09:15:39.395Z</time>
      </trkpt>
      <trkpt lat="47.04055" lon="9.01605">
        <ele>789</ele>
        <time>2021-08-02T09:15:40.394Z</time>
      </trkpt>
      <trkpt lat="47.04054" lon="9.01604">
        <ele>790</ele>
        <time>2021-08-02T09:15:41.395Z</time>
      </trkpt>
      <trkpt lat="47.04053" lon="9.01604">
        <ele>790</ele>
        <time>2021-08-02T09:15:42.394Z</time>
      </trkpt>
      <trkpt lat="47.04053" lon="9.01603">
        <ele>790</ele>
        <time>2021-08-02T09:15:43.395Z</time>
      </trkpt>
      <trkpt lat="47.04053" lon="9.01602">
        <ele>790</ele>
        <time>2021-08-02T09:15:44.395Z</time>
      </trkpt>
      <trkpt lat="47.04052" lon="9.01601">
        <ele>790</ele>
        <time>2021-08-02T09:15:45.395Z</time>
      </trkpt>
      <trkpt lat="47.04052" lon="9.01599">
        <ele>789</ele>
        <time>2021-08-02T09:15:46.395Z</time>
      </trkpt>
      <trkpt lat="47.04051" lon="9.01598">
        <ele>789</ele>
        <time>2021-08-02T09:15:47.394Z</time>
      </trkpt>
      <trkpt lat="47.04051" lon="9.01596">
        <ele>789</ele>
        <time>2021-08-02T09:15:48.395Z</time>
      </trkpt>
      <trkpt lat="47.04051" lon="9.01595">
        <ele>789</ele>
        <time>2021-08-02T09:15:49.394Z</time>
      </trkpt>
      <trkpt lat="47.04051" lon="9.01593">
        <ele>788</ele>
        <time>2021-08-02T09:15:50.395Z</time>
      </trkpt>
      <trkpt lat="47.0405" lon="9.01592">
        <ele>788</ele>
        <time>2021-08-02T09:15:51.394Z</time>
      </trkpt>
      <trkpt lat="47.0405" lon="9.0159">
        <ele>788</ele>
        <time>2021-08-02T09:15:52.394Z</time>
      </trkpt>
      <trkpt lat="47.04049" lon="9.01589">
        <ele>787</ele>
        <time>2021-08-02T09:15:53.395Z</time>
      </trkpt>
      <trkpt lat="47.04049" lon="9.01587">
        <ele>787</ele>
        <time>2021-08-02T09:15:54.395Z</time>
      </trkpt>
      <trkpt lat="47.04049" lon="9.01586">
        <ele>787</ele>
        <time>2021-08-02T09:15:55.395Z</time>
      </trkpt>
      <trkpt lat="47.04048" lon="9.01584">
        <ele>786</ele>
        <time>2021-08-02T09:15:56.395Z</time>
      </trkpt>
      <trkpt lat="47.04048" lon="9.01582">
        <ele>786</ele>
        <time>2021-08-02T09:15:57.395Z</time>
      </trkpt>
      <trkpt lat="47.04047" lon="9.01581">
        <ele>785</ele>
        <time>2021-08-02T09:15:58.394Z</time>
      </trkpt>
      <trkpt lat="47.04047" lon="9.0158">
        <ele>785</ele>
        <time>2021-08-02T09:15:59.395Z</time>
      </trkpt>
      <trkpt lat="47.04047" lon="9.01578">
        <ele>785</ele>
        <time>2021-08-02T09:16:00.394Z</time>
      </trkpt>
      <trkpt lat="47.04047" lon="9.01577">
        <ele>785</ele>
        <time>2021-08-02T09:16:01.395Z</time>
      </trkpt>
      <trkpt lat="47.04048" lon="9.01576">
        <ele>785</ele>
        <time>2021-08-02T09:16:02.395Z</time>
      </trkpt>
      <trkpt lat="47.04048" lon="9.01575">
        <ele>785</ele>
        <time>2021-08-02T09:16:03.395Z</time>
      </trkpt>
      <trkpt lat="47.04048" lon="9.01574">
        <ele>785</ele>
        <time>2021-08-02T09:16:04.395Z</time>
      </trkpt>
      <trkpt lat="47.04049" lon="9.01572">
        <ele>785</ele>
        <time>2021-08-02T09:16:05.395Z</time>
      </trkpt>
      <trkpt lat="47.0405" lon="9.01571">
        <ele>785</ele>
        <time>2021-08-02T09:16:06.394Z</time>
      </trkpt>
      <trkpt lat="47.04051" lon="9.0157">
        <ele>785</ele>
        <time>2021-08-02T09:16:07.395Z</time>
      </trkpt>
      <trkpt lat="47.04052" lon="9.01569">
        <ele>786</ele>
        <time>2021-08-02T09:16:08.394Z</time>
      </trkpt>
      <trkpt lat="47.04053" lon="9.01568">
        <ele>786</ele>
        <time>2021-08-02T09:16:09.395Z</time>
      </trkpt>
      <trkpt lat="47.04053" lon="9.01566">
        <ele>786</ele>
        <time>2021-08-02T09:16:10.395Z</time>
      </trkpt>
      <trkpt lat="47.04053" lon="9.01566">
        <ele>786</ele>
        <time>2021-08-02T09:16:11.395Z</time>
      </trkpt>
      <trkpt lat="47.04054" lon="9.01565">
        <ele>787</ele>
        <time>2021-08-02T09:16:12.395Z</time>
      </trkpt>
      <trkpt lat="47.04055" lon="9.01565">
        <ele>787</ele>
        <time>2021-08-02T09:16:13.395Z</time>
      </trkpt>
      <trkpt lat="47.04056" lon="9.01564">
        <ele>787</ele>
        <time>2021-08-02T09:16:14.394Z</time>
      </trkpt>
      <trkpt lat="47.04056" lon="9.01562">
        <ele>787</ele>
        <time>2021-08-02T09:16:15.395Z</time>
      </trkpt>
      <trkpt lat="47.04056" lon="9.01561">
        <ele>788</ele>
        <time>2021-08-02T09:16:16.395Z</time>
      </trkpt>
      <trkpt lat="47.04057" lon="9.01559">
        <ele>788</ele>
        <time>2021-08-02T09:16:17.394Z</time>
      </trkpt>
      <trkpt lat="47.04057" lon="9.01558">
        <ele>788</ele>
        <time>2021-08-02T09:16:18.395Z</time>
      </trkpt>
      <trkpt lat="47.04057" lon="9.01557">
        <ele>788</ele>
        <time>2021-08-02T09:16:19.394Z</time>
      </trkpt>
      <trkpt lat="47.04057" lon="9.01556">
        <ele>788</ele>
        <time>2021-08-02T09:16:20.394Z</time>
      </trkpt>
      <trkpt lat="47.04057" lon="9.01555">
        <ele>789</ele>
        <time>2021-08-02T09:16:21.395Z</time>
      </trkpt>
      <trkpt lat="47.04056" lon="9.01553">
        <ele>789</ele>
        <time>2021-08-02T09:16:22.394Z</time>
      </trkpt>
      <trkpt lat="47.04055" lon="9.01552">
        <ele>789</ele>
        <time>2021-08-02T09:16:23.394Z</time>
      </trkpt>
      <trkpt lat="47.04055" lon="9.01551">
        <ele>790</ele>
        <time>2021-08-02T09:16:24.394Z</time>
      </trkpt>
      <trkpt lat="47.04054" lon="9.01551">
        <ele>789</ele>
        <time>2021-08-02T09:16:25.394Z</time>
      </trkpt>
      <trkpt lat="47.04053" lon="9.01549">
        <ele>789</ele>
        <time>2021-08-02T09:16:26.395Z</time>
      </trkpt>
      <trkpt lat="47.04051" lon="9.01548">
        <ele>789</ele>
        <time>2021-08-02T09:16:27.394Z</time>
      </trkpt>
      <trkpt lat="47.0405" lon="9.01547">
        <ele>789</ele>
        <time>2021-08-02T09:16:28.395Z</time>
      </trkpt>
      <trkpt lat="47.0405" lon="9.01546">
        <ele>788</ele>
        <time>2021-08-02T09:16:29.394Z</time>
      </trkpt>
      <trkpt lat="47.0405" lon="9.01545">
        <ele>787</ele>
        <time>2021-08-02T09:16:30.394Z</time>
      </trkpt>
      <trkpt lat="47.0405" lon="9.01544">
        <ele>787</ele>
        <time>2021-08-02T09:16:31.395Z</time>
      </trkpt>
      <trkpt lat="47.0405" lon="9.01542">
        <ele>787</ele>
        <time>2021-08-02T09:16:32.394Z</time>
      </trkpt>
      <trkpt lat="47.0405" lon="9.01541">
        <ele>787</ele>
        <time>2021-08-02T09:16:33.394Z</time>
      </trkpt>
      <trkpt lat="47.0405" lon="9.0154">
        <ele>786</ele>
        <time>2021-08-02T09:16:34.394Z</time>
      </trkpt>
      <trkpt lat="47.0405" lon="9.01539">
        <ele>786</ele>
        <time>2021-08-02T09:16:35.395Z</time>
      </trkpt>
      <trkpt lat="47.0405" lon="9.01538">
        <ele>786</ele>
        <time>2021-08-02T09:16:36.395Z</time>
      </trkpt>
      <trkpt lat="47.04051" lon="9.01537">
        <ele>786</ele>
        <time>2021-08-02T09:16:37.394Z</time>
      </trkpt>
      <trkpt lat="47.04052" lon="9.01536">
        <ele>786</ele>
        <time>2021-08-02T09:16:38.395Z</time>
      </trkpt>
      <trkpt lat="47.04052" lon="9.01535">
        <ele>785</ele>
        <time>2021-08-02T09:16:39.395Z</time>
      </trkpt>
      <trkpt lat="47.04052" lon="9.01534">
        <ele>785</ele>
        <time>2021-08-02T09:16:40.394Z</time>
      </trkpt>
      <trkpt lat="47.04052" lon="9.01533">
        <ele>785</ele>
        <time>2021-08-02T09:16:41.394Z</time>
      </trkpt>
      <trkpt lat="47.04052" lon="9.01533">
        <ele>785</ele>
        <time>2021-08-02T09:16:42.395Z</time>
      </trkpt>
      <trkpt lat="47.04052" lon="9.01532">
        <ele>785</ele>
        <time>2021-08-02T09:16:43.395Z</time>
      </trkpt>
      <trkpt lat="47.04052" lon="9.01531">
        <ele>785</ele>
        <time>2021-08-02T09:16:44.395Z</time>
      </trkpt>
      <trkpt lat="47.04052" lon="9.01531">
        <ele>785</ele>
        <time>2021-08-02T09:16:45.395Z</time>
      </trkpt>
      <trkpt lat="47.04052" lon="9.0153">
        <ele>786</ele>
        <time>2021-08-02T09:16:46.395Z</time>
      </trkpt>
      <trkpt lat="47.04052" lon="9.01529">
        <ele>786</ele>
        <time>2021-08-02T09:16:47.395Z</time>
      </trkpt>
      <trkpt lat="47.04053" lon="9.01528">
        <ele>786</ele>
        <time>2021-08-02T09:16:48.395Z</time>
      </trkpt>
      <trkpt lat="47.04053" lon="9.01527">
        <ele>786</ele>
        <time>2021-08-02T09:16:49.394Z</time>
      </trkpt>
      <trkpt lat="47.04053" lon="9.01525">
        <ele>786</ele>
        <time>2021-08-02T09:16:50.394Z</time>
      </trkpt>
      <trkpt lat="47.04053" lon="9.01524">
        <ele>787</ele>
        <time>2021-08-02T09:16:51.394Z</time>
      </trkpt>
      <trkpt lat="47.04052" lon="9.01523">
        <ele>787</ele>
        <time>2021-08-02T09:16:52.395Z</time>
      </trkpt>
      <trkpt lat="47.04051" lon="9.01522">
        <ele>787</ele>
        <time>2021-08-02T09:16:53.394Z</time>
      </trkpt>
      <trkpt lat="47.0405" lon="9.01521">
        <ele>787</ele>
        <time>2021-08-02T09:16:54.394Z</time>
      </trkpt>
      <trkpt lat="47.0405" lon="9.0152">
        <ele>787</ele>
        <time>2021-08-02T09:16:55.394Z</time>
      </trkpt>
      <trkpt lat="47.04049" lon="9.01519">
        <ele>788</ele>
        <time>2021-08-02T09:16:56.395Z</time>
      </trkpt>
      <trkpt lat="47.04049" lon="9.01517">
        <ele>788</ele>
        <time>2021-08-02T09:16:57.395Z</time>
      </trkpt>
      <trkpt lat="47.04048" lon="9.01516">
        <ele>788</ele>
        <time>2021-08-02T09:16:58.394Z</time>
      </trkpt>
      <trkpt lat="47.04048" lon="9.01515">
        <ele>789</ele>
        <time>2021-08-02T09:16:59.395Z</time>
      </trkpt>
      <trkpt lat="47.04048" lon="9.01513">
        <ele>789</ele>
        <time>2021-08-02T09:17:00.395Z</time>
      </trkpt>
      <trkpt lat="47.04048" lon="9.01512">
        <ele>790</ele>
        <time>2021-08-02T09:17:01.395Z</time>
      </trkpt>
      <trkpt lat="47.04048" lon="9.01511">
        <ele>790</ele>
        <time>2021-08-02T09:17:02.394Z</time>
      </trkpt>
      <trkpt lat="47.04048" lon="9.0151">
        <ele>790</ele>
        <time>2021-08-02T09:17:03.395Z</time>
      </trkpt>
      <trkpt lat="47.04048" lon="9.01509">
        <ele>791</ele>
        <time>2021-08-02T09:17:04.395Z</time>
      </trkpt>
      <trkpt lat="47.04048" lon="9.01507">
        <ele>791</ele>
        <time>2021-08-02T09:17:05.394Z</time>
      </trkpt>
      <trkpt lat="47.04048" lon="9.01506">
        <ele>791</ele>
        <time>2021-08-02T09:17:06.394Z</time>
      </trkpt>
      <trkpt lat="47.04048" lon="9.01505">
        <ele>791</ele>
        <time>2021-08-02T09:17:07.395Z</time>
      </trkpt>
      <trkpt lat="47.04048" lon="9.01504">
        <ele>792</ele>
        <time>2021-08-02T09:17:08.395Z</time>
      </trkpt>
      <trkpt lat="47.04047" lon="9.01504">
        <ele>792</ele>
        <time>2021-08-02T09:17:09.395Z</time>
      </trkpt>
      <trkpt lat="47.04047" lon="9.01503">
        <ele>792</ele>
        <time>2021-08-02T09:17:10.395Z</time>
      </trkpt>
      <trkpt lat="47.04045" lon="9.01502">
        <ele>793</ele>
        <time>2021-08-02T09:17:11.395Z</time>
      </trkpt>
      <trkpt lat="47.04045" lon="9.01501">
        <ele>793</ele>
        <time>2021-08-02T09:17:12.395Z</time>
      </trkpt>
      <trkpt lat="47.04045" lon="9.015">
        <ele>793</ele>
        <time>2021-08-02T09:17:13.395Z</time>
      </trkpt>
      <trkpt lat="47.04045" lon="9.01498">
        <ele>792</ele>
        <time>2021-08-02T09:17:14.395Z</time>
      </trkpt>
      <trkpt lat="47.04045" lon="9.01497">
        <ele>792</ele>
        <time>2021-08-02T09:17:15.395Z</time>
      </trkpt>
      <trkpt lat="47.04045" lon="9.01496">
        <ele>792</ele>
        <time>2021-08-02T09:17:16.395Z</time>
      </trkpt>
      <trkpt lat="47.04046" lon="9.01495">
        <ele>792</ele>
        <time>2021-08-02T09:17:17.395Z</time>
      </trkpt>
      <trkpt lat="47.04046" lon="9.01494">
        <ele>792</ele>
        <time>2021-08-02T09:17:18.395Z</time>
      </trkpt>
      <trkpt lat="47.04047" lon="9.01493">
        <ele>793</ele>
        <time>2021-08-02T09:17:19.395Z</time>
      </trkpt>
      <trkpt lat="47.04047" lon="9.01492">
        <ele>793</ele>
        <time>2021-08-02T09:17:20.394Z</time>
      </trkpt>
      <trkpt lat="47.04047" lon="9.01491">
        <ele>794</ele>
        <time>2021-08-02T09:17:21.395Z</time>
      </trkpt>
      <trkpt lat="47.04047" lon="9.0149">
        <ele>795</ele>
        <time>2021-08-02T09:17:22.395Z</time>
      </trkpt>
      <trkpt lat="47.04047" lon="9.01489">
        <ele>796</ele>
        <time>2021-08-02T09:17:23.395Z</time>
      </trkpt>
      <trkpt lat="47.04046" lon="9.01488">
        <ele>797</ele>
        <time>2021-08-02T09:17:24.395Z</time>
      </trkpt>
      <trkpt lat="47.04046" lon="9.01487">
        <ele>797</ele>
        <time>2021-08-02T09:17:25.395Z</time>
      </trkpt>
      <trkpt lat="47.04046" lon="9.01487">
        <ele>798</ele>
        <time>2021-08-02T09:17:26.395Z</time>
      </trkpt>
      <trkpt lat="47.04046" lon="9.01486">
        <ele>798</ele>
        <time>2021-08-02T09:17:27.395Z</time>
      </trkpt>
      <trkpt lat="47.04045" lon="9.01486">
        <ele>799</ele>
        <time>2021-08-02T09:17:28.394Z</time>
      </trkpt>
      <trkpt lat="47.04045" lon="9.01485">
        <ele>799</ele>
        <time>2021-08-02T09:17:29.394Z</time>
      </trkpt>
      <trkpt lat="47.04045" lon="9.01483">
        <ele>799</ele>
        <time>2021-08-02T09:17:30.395Z</time>
      </trkpt>
      <trkpt lat="47.04045" lon="9.01482">
        <ele>799</ele>
        <time>2021-08-02T09:17:31.395Z</time>
      </trkpt>
      <trkpt lat="47.04045" lon="9.01481">
        <ele>799</ele>
        <time>2021-08-02T09:17:32.395Z</time>
      </trkpt>
      <trkpt lat="47.04043" lon="9.01481">
        <ele>800</ele>
        <time>2021-08-02T09:17:33.394Z</time>
      </trkpt>
      <trkpt lat="47.04042" lon="9.01482">
        <ele>800</ele>
        <time>2021-08-02T09:17:34.394Z</time>
      </trkpt>
      <trkpt lat="47.0404" lon="9.01482">
        <ele>801</ele>
        <time>2021-08-02T09:17:35.394Z</time>
      </trkpt>
      <trkpt lat="47.04038" lon="9.01481">
        <ele>802</ele>
        <time>2021-08-02T09:17:36.394Z</time>
      </trkpt>
      <trkpt lat="47.04038" lon="9.0148">
        <ele>802</ele>
        <time>2021-08-02T09:17:37.395Z</time>
      </trkpt>
      <trkpt lat="47.04038" lon="9.01479">
        <ele>803</ele>
        <time>2021-08-02T09:17:38.395Z</time>
      </trkpt>
      <trkpt lat="47.04037" lon="9.01477">
        <ele>803</ele>
        <time>2021-08-02T09:17:39.395Z</time>
      </trkpt>
      <trkpt lat="47.04037" lon="9.01475">
        <ele>804</ele>
        <time>2021-08-02T09:17:40.395Z</time>
      </trkpt>
      <trkpt lat="47.04037" lon="9.01474">
        <ele>804</ele>
        <time>2021-08-02T09:17:41.395Z</time>
      </trkpt>
      <trkpt lat="47.04037" lon="9.01473">
        <ele>804</ele>
        <time>2021-08-02T09:17:42.394Z</time>
      </trkpt>
      <trkpt lat="47.04037" lon="9.01471">
        <ele>804</ele>
        <time>2021-08-02T09:17:43.395Z</time>
      </trkpt>
      <trkpt lat="47.04037" lon="9.0147">
        <ele>804</ele>
        <time>2021-08-02T09:17:44.395Z</time>
      </trkpt>
      <trkpt lat="47.04037" lon="9.01469">
        <ele>804</ele>
        <time>2021-08-02T09:17:45.394Z</time>
      </trkpt>
      <trkpt lat="47.04036" lon="9.01467">
        <ele>804</ele>
        <time>2021-08-02T09:17:46.394Z</time>
      </trkpt>
      <trkpt lat="47.04036" lon="9.01466">
        <ele>804</ele>
        <time>2021-08-02T09:17:47.395Z</time>
      </trkpt>
      <trkpt lat="47.04035" lon="9.01464">
        <ele>803</ele>
        <time>2021-08-02T09:17:48.394Z</time>
      </trkpt>
      <trkpt lat="47.04035" lon="9.01463">
        <ele>802</ele>
        <time>2021-08-02T09:17:49.394Z</time>
      </trkpt>
      <trkpt lat="47.04035" lon="9.01461">
        <ele>801</ele>
        <time>2021-08-02T09:17:50.394Z</time>
      </trkpt>
      <trkpt lat="47.04034" lon="9.01459">
        <ele>800</ele>
        <time>2021-08-02T09:17:51.395Z</time>
      </trkpt>
      <trkpt lat="47.04033" lon="9.01457">
        <ele>799</ele>
        <time>2021-08-02T09:17:52.395Z</time>
      </trkpt>
      <trkpt lat="47.04032" lon="9.01457">
        <ele>798</ele>
        <time>2021-08-02T09:17:53.394Z</time>
      </trkpt>
      <trkpt lat="47.04032" lon="9.01457">
        <ele>797</ele>
        <time>2021-08-02T09:17:54.395Z</time>
      </trkpt>
      <trkpt lat="47.04031" lon="9.01456">
        <ele>796</ele>
        <time>2021-08-02T09:17:55.395Z</time>
      </trkpt>
      <trkpt lat="47.04031" lon="9.01455">
        <ele>795</ele>
        <time>2021-08-02T09:17:56.394Z</time>
      </trkpt>
      <trkpt lat="47.0403" lon="9.01453">
        <ele>794</ele>
        <time>2021-08-02T09:17:57.395Z</time>
      </trkpt>
      <trkpt lat="47.0403" lon="9.01452">
        <ele>793</ele>
        <time>2021-08-02T09:17:58.395Z</time>
      </trkpt>
      <trkpt lat="47.0403" lon="9.0145">
        <ele>792</ele>
        <time>2021-08-02T09:17:59.394Z</time>
      </trkpt>
      <trkpt lat="47.0403" lon="9.01449">
        <ele>791</ele>
        <time>2021-08-02T09:18:00.395Z</time>
      </trkpt>
      <trkpt lat="47.0403" lon="9.01448">
        <ele>791</ele>
        <time>2021-08-02T09:18:01.395Z</time>
      </trkpt>
      <trkpt lat="47.0403" lon="9.01447">
        <ele>790</ele>
        <time>2021-08-02T09:18:02.395Z</time>
      </trkpt>
      <trkpt lat="47.04029" lon="9.01446">
        <ele>790</ele>
        <time>2021-08-02T09:18:03.395Z</time>
      </trkpt>
      <trkpt lat="47.04029" lon="9.01445">
        <ele>790</ele>
        <time>2021-08-02T09:18:04.395Z</time>
      </trkpt>
      <trkpt lat="47.04029" lon="9.01443">
        <ele>790</ele>
        <time>2021-08-02T09:18:05.394Z</time>
      </trkpt>
      <trkpt lat="47.04028" lon="9.01442">
        <ele>790</ele>
        <time>2021-08-02T09:18:06.395Z</time>
      </trkpt>
      <trkpt lat="47.04028" lon="9.01441">
        <ele>790</ele>
        <time>2021-08-02T09:18:07.395Z</time>
      </trkpt>
      <trkpt lat="47.04028" lon="9.0144">
        <ele>790</ele>
        <time>2021-08-02T09:18:08.394Z</time>
      </trkpt>
      <trkpt lat="47.04027" lon="9.01438">
        <ele>791</ele>
        <time>2021-08-02T09:18:09.395Z</time>
      </trkpt>
      <trkpt lat="47.04026" lon="9.01437">
        <ele>791</ele>
        <time>2021-08-02T09:18:10.395Z</time>
      </trkpt>
      <trkpt lat="47.04026" lon="9.01434">
        <ele>791</ele>
        <time>2021-08-02T09:18:11.394Z</time>
      </trkpt>
      <trkpt lat="47.04025" lon="9.01432">
        <ele>792</ele>
        <time>2021-08-02T09:18:12.395Z</time>
      </trkpt>
      <trkpt lat="47.04025" lon="9.01431">
        <ele>792</ele>
        <time>2021-08-02T09:18:13.395Z</time>
      </trkpt>
      <trkpt lat="47.04024" lon="9.01431">
        <ele>792</ele>
        <time>2021-08-02T09:18:14.395Z</time>
      </trkpt>
      <trkpt lat="47.04024" lon="9.0143">
        <ele>793</ele>
        <time>2021-08-02T09:18:15.395Z</time>
      </trkpt>
      <trkpt lat="47.04023" lon="9.01428">
        <ele>793</ele>
        <time>2021-08-02T09:18:16.394Z</time>
      </trkpt>
      <trkpt lat="47.04022" lon="9.01428">
        <ele>793</ele>
        <time>2021-08-02T09:18:17.394Z</time>
      </trkpt>
      <trkpt lat="47.04022" lon="9.01427">
        <ele>793</ele>
        <time>2021-08-02T09:18:18.395Z</time>
      </trkpt>
      <trkpt lat="47.04021" lon="9.01425">
        <ele>793</ele>
        <time>2021-08-02T09:18:19.395Z</time>
      </trkpt>
      <trkpt lat="47.0402" lon="9.01424">
        <ele>794</ele>
        <time>2021-08-02T09:18:20.394Z</time>
      </trkpt>
      <trkpt lat="47.0402" lon="9.01423">
        <ele>794</ele>
        <time>2021-08-02T09:18:21.395Z</time>
      </trkpt>
      <trkpt lat="47.0402" lon="9.01422">
        <ele>794</ele>
        <time>2021-08-02T09:18:22.395Z</time>
      </trkpt>
      <trkpt lat="47.04019" lon="9.0142">
        <ele>795</ele>
        <time>2021-08-02T09:18:23.395Z</time>
      </trkpt>
      <trkpt lat="47.04019" lon="9.01419">
        <ele>795</ele>
        <time>2021-08-02T09:18:24.395Z</time>
      </trkpt>
      <trkpt lat="47.04018" lon="9.01418">
        <ele>795</ele>
        <time>2021-08-02T09:18:25.395Z</time>
      </trkpt>
      <trkpt lat="47.04017" lon="9.01417">
        <ele>796</ele>
        <time>2021-08-02T09:18:26.394Z</time>
      </trkpt>
      <trkpt lat="47.04017" lon="9.01416">
        <ele>796</ele>
        <time>2021-08-02T09:18:27.395Z</time>
      </trkpt>
      <trkpt lat="47.04016" lon="9.01416">
        <ele>797</ele>
        <time>2021-08-02T09:18:28.394Z</time>
      </trkpt>
      <trkpt lat="47.04016" lon="9.01415">
        <ele>796</ele>
        <time>2021-08-02T09:18:29.394Z</time>
      </trkpt>
      <trkpt lat="47.04015" lon="9.01414">
        <ele>796</ele>
        <time>2021-08-02T09:18:30.395Z</time>
      </trkpt>
      <trkpt lat="47.04015" lon="9.01412">
        <ele>796</ele>
        <time>2021-08-02T09:18:31.395Z</time>
      </trkpt>
      <trkpt lat="47.04015" lon="9.01411">
        <ele>796</ele>
        <time>2021-08-02T09:18:32.394Z</time>
      </trkpt>
      <trkpt lat="47.04014" lon="9.01409">
        <ele>796</ele>
        <time>2021-08-02T09:18:33.395Z</time>
      </trkpt>
      <trkpt lat="47.04014" lon="9.01408">
        <ele>795</ele>
        <time>2021-08-02T09:18:34.395Z</time>
      </trkpt>
      <trkpt lat="47.04013" lon="9.01407">
        <ele>795</ele>
        <time>2021-08-02T09:18:35.394Z</time>
      </trkpt>
      <trkpt lat="47.04012" lon="9.01406">
        <ele>795</ele>
        <time>2021-08-02T09:18:36.395Z</time>
      </trkpt>
      <trkpt lat="47.04012" lon="9.01405">
        <ele>795</ele>
        <time>2021-08-02T09:18:37.395Z</time>
      </trkpt>
      <trkpt lat="47.04012" lon="9.01404">
        <ele>796</ele>
        <time>2021-08-02T09:18:38.395Z</time>
      </trkpt>
      <trkpt lat="47.04012" lon="9.01403">
        <ele>796</ele>
        <time>2021-08-02T09:18:39.394Z</time>
      </trkpt>
      <trkpt lat="47.04012" lon="9.01402">
        <ele>796</ele>
        <time>2021-08-02T09:18:40.395Z</time>
      </trkpt>
      <trkpt lat="47.04011" lon="9.01401">
        <ele>796</ele>
        <time>2021-08-02T09:18:41.394Z</time>
      </trkpt>
      <trkpt lat="47.04012" lon="9.01399">
        <ele>797</ele>
        <time>2021-08-02T09:18:42.395Z</time>
      </trkpt>
      <trkpt lat="47.04012" lon="9.01398">
        <ele>797</ele>
        <time>2021-08-02T09:18:43.394Z</time>
      </trkpt>
      <trkpt lat="47.04013" lon="9.01397">
        <ele>798</ele>
        <time>2021-08-02T09:18:44.395Z</time>
      </trkpt>
      <trkpt lat="47.04014" lon="9.01396">
        <ele>798</ele>
        <time>2021-08-02T09:18:45.395Z</time>
      </trkpt>
      <trkpt lat="47.04015" lon="9.01395">
        <ele>798</ele>
        <time>2021-08-02T09:18:46.395Z</time>
      </trkpt>
      <trkpt lat="47.04015" lon="9.01394">
        <ele>799</ele>
        <time>2021-08-02T09:18:47.395Z</time>
      </trkpt>
      <trkpt lat="47.04016" lon="9.01393">
        <ele>799</ele>
        <time>2021-08-02T09:18:48.395Z</time>
      </trkpt>
      <trkpt lat="47.04016" lon="9.01392">
        <ele>800</ele>
        <time>2021-08-02T09:18:49.394Z</time>
      </trkpt>
      <trkpt lat="47.04017" lon="9.0139">
        <ele>800</ele>
        <time>2021-08-02T09:18:50.395Z</time>
      </trkpt>
      <trkpt lat="47.04018" lon="9.01388">
        <ele>800</ele>
        <time>2021-08-02T09:18:51.395Z</time>
      </trkpt>
      <trkpt lat="47.04019" lon="9.01386">
        <ele>800</ele>
        <time>2021-08-02T09:18:52.394Z</time>
      </trkpt>
      <trkpt lat="47.04018" lon="9.01385">
        <ele>800</ele>
        <time>2021-08-02T09:18:53.395Z</time>
      </trkpt>
      <trkpt lat="47.04018" lon="9.01384">
        <ele>800</ele>
        <time>2021-08-02T09:18:54.395Z</time>
      </trkpt>
      <trkpt lat="47.04018" lon="9.01382">
        <ele>800</ele>
        <time>2021-08-02T09:18:55.394Z</time>
      </trkpt>
      <trkpt lat="47.04017" lon="9.01381">
        <ele>800</ele>
        <time>2021-08-02T09:18:56.395Z</time>
      </trkpt>
      <trkpt lat="47.04017" lon="9.0138">
        <ele>800</ele>
        <time>2021-08-02T09:18:57.395Z</time>
      </trkpt>
      <trkpt lat="47.04016" lon="9.01378">
        <ele>801</ele>
        <time>2021-08-02T09:18:58.395Z</time>
      </trkpt>
      <trkpt lat="47.04015" lon="9.01377">
        <ele>801</ele>
        <time>2021-08-02T09:18:59.394Z</time>
      </trkpt>
      <trkpt lat="47.04015" lon="9.01376">
        <ele>802</ele>
        <time>2021-08-02T09:19:00.394Z</time>
      </trkpt>
      <trkpt lat="47.04013" lon="9.01374">
        <ele>803</ele>
        <time>2021-08-02T09:19:01.395Z</time>
      </trkpt>
      <trkpt lat="47.04011" lon="9.01373">
        <ele>803</ele>
        <time>2021-08-02T09:19:02.395Z</time>
      </trkpt>
      <trkpt lat="47.0401" lon="9.01372">
        <ele>804</ele>
        <time>2021-08-02T09:19:03.394Z</time>
      </trkpt>
      <trkpt lat="47.04008" lon="9.0137">
        <ele>804</ele>
        <time>2021-08-02T09:19:04.394Z</time>
      </trkpt>
      <trkpt lat="47.04007" lon="9.0137">
        <ele>803</ele>
        <time>2021-08-02T09:19:05.394Z</time>
      </trkpt>
      <trkpt lat="47.04006" lon="9.01369">
        <ele>803</ele>
        <time>2021-08-02T09:19:06.395Z</time>
      </trkpt>
      <trkpt lat="47.04005" lon="9.01369">
        <ele>802</ele>
        <time>2021-08-02T09:19:07.394Z</time>
      </trkpt>
      <trkpt lat="47.04004" lon="9.01369">
        <ele>802</ele>
        <time>2021-08-02T09:19:08.394Z</time>
      </trkpt>
      <trkpt lat="47.04003" lon="9.01367">
        <ele>802</ele>
        <time>2021-08-02T09:19:09.395Z</time>
      </trkpt>
      <trkpt lat="47.04003" lon="9.01365">
        <ele>802</ele>
        <time>2021-08-02T09:19:10.394Z</time>
      </trkpt>
      <trkpt lat="47.04002" lon="9.01363">
        <ele>802</ele>
        <time>2021-08-02T09:19:11.395Z</time>
      </trkpt>
      <trkpt lat="47.04002" lon="9.01361">
        <ele>802</ele>
        <time>2021-08-02T09:19:12.394Z</time>
      </trkpt>
      <trkpt lat="47.04002" lon="9.01359">
        <ele>802</ele>
        <time>2021-08-02T09:19:13.394Z</time>
      </trkpt>
      <trkpt lat="47.04002" lon="9.01357">
        <ele>802</ele>
        <time>2021-08-02T09:19:14.395Z</time>
      </trkpt>
      <trkpt lat="47.04002" lon="9.01355">
        <ele>802</ele>
        <time>2021-08-02T09:19:15.394Z</time>
      </trkpt>
      <trkpt lat="47.04002" lon="9.01354">
        <ele>801</ele>
        <time>2021-08-02T09:19:16.394Z</time>
      </trkpt>
      <trkpt lat="47.04002" lon="9.01352">
        <ele>801</ele>
        <time>2021-08-02T09:19:17.394Z</time>
      </trkpt>
      <trkpt lat="47.04001" lon="9.0135">
        <ele>800</ele>
        <time>2021-08-02T09:19:18.394Z</time>
      </trkpt>
      <trkpt lat="47.04" lon="9.01348">
        <ele>800</ele>
        <time>2021-08-02T09:19:19.394Z</time>
      </trkpt>
      <trkpt lat="47.03999" lon="9.01346">
        <ele>800</ele>
        <time>2021-08-02T09:19:20.395Z</time>
      </trkpt>
      <trkpt lat="47.03998" lon="9.01345">
        <ele>800</ele>
        <time>2021-08-02T09:19:21.395Z</time>
      </trkpt>
      <trkpt lat="47.03998" lon="9.01344">
        <ele>801</ele>
        <time>2021-08-02T09:19:22.394Z</time>
      </trkpt>
      <trkpt lat="47.03998" lon="9.01343">
        <ele>801</ele>
        <time>2021-08-02T09:19:23.394Z</time>
      </trkpt>
      <trkpt lat="47.03998" lon="9.01342">
        <ele>802</ele>
        <time>2021-08-02T09:19:24.395Z</time>
      </trkpt>
      <trkpt lat="47.03998" lon="9.01341">
        <ele>802</ele>
        <time>2021-08-02T09:19:25.396Z</time>
      </trkpt>
      <trkpt lat="47.03998" lon="9.01341">
        <ele>801</ele>
        <time>2021-08-02T09:19:26.395Z</time>
      </trkpt>
      <trkpt lat="47.03997" lon="9.0134">
        <ele>801</ele>
        <time>2021-08-02T09:19:27.396Z</time>
      </trkpt>
      <trkpt lat="47.03997" lon="9.01339">
        <ele>801</ele>
        <time>2021-08-02T09:19:28.395Z</time>
      </trkpt>
      <trkpt lat="47.03996" lon="9.01338">
        <ele>802</ele>
        <time>2021-08-02T09:19:29.396Z</time>
      </trkpt>
      <trkpt lat="47.03996" lon="9.01337">
        <ele>802</ele>
        <time>2021-08-02T09:19:30.396Z</time>
      </trkpt>
      <trkpt lat="47.03996" lon="9.01335">
        <ele>803</ele>
        <time>2021-08-02T09:19:31.395Z</time>
      </trkpt>
      <trkpt lat="47.03996" lon="9.01334">
        <ele>803</ele>
        <time>2021-08-02T09:19:32.395Z</time>
      </trkpt>
      <trkpt lat="47.03997" lon="9.01331">
        <ele>803</ele>
        <time>2021-08-02T09:19:33.396Z</time>
      </trkpt>
      <trkpt lat="47.03997" lon="9.0133">
        <ele>803</ele>
        <time>2021-08-02T09:19:34.395Z</time>
      </trkpt>
      <trkpt lat="47.03997" lon="9.01328">
        <ele>802</ele>
        <time>2021-08-02T09:19:35.396Z</time>
      </trkpt>
      <trkpt lat="47.03996" lon="9.01326">
        <ele>802</ele>
        <time>2021-08-02T09:19:36.396Z</time>
      </trkpt>
      <trkpt lat="47.03996" lon="9.01323">
        <ele>803</ele>
        <time>2021-08-02T09:19:37.396Z</time>
      </trkpt>
      <trkpt lat="47.03995" lon="9.01321">
        <ele>803</ele>
        <time>2021-08-02T09:19:38.396Z</time>
      </trkpt>
      <trkpt lat="47.03994" lon="9.01319">
        <ele>803</ele>
        <time>2021-08-02T09:19:39.395Z</time>
      </trkpt>
      <trkpt lat="47.03994" lon="9.01316">
        <ele>804</ele>
        <time>2021-08-02T09:19:40.395Z</time>
      </trkpt>
      <trkpt lat="47.03992" lon="9.01315">
        <ele>805</ele>
        <time>2021-08-02T09:19:41.396Z</time>
      </trkpt>
      <trkpt lat="47.03991" lon="9.01314">
        <ele>805</ele>
        <time>2021-08-02T09:19:42.396Z</time>
      </trkpt>
      <trkpt lat="47.0399" lon="9.01313">
        <ele>806</ele>
        <time>2021-08-02T09:19:43.395Z</time>
      </trkpt>
      <trkpt lat="47.03989" lon="9.01313">
        <ele>806</ele>
        <time>2021-08-02T09:19:44.396Z</time>
      </trkpt>
      <trkpt lat="47.03989" lon="9.01313">
        <ele>806</ele>
        <time>2021-08-02T09:19:45.395Z</time>
      </trkpt>
      <trkpt lat="47.03988" lon="9.01313">
        <ele>806</ele>
        <time>2021-08-02T09:19:46.396Z</time>
      </trkpt>
      <trkpt lat="47.03988" lon="9.01312">
        <ele>806</ele>
        <time>2021-08-02T09:19:47.395Z</time>
      </trkpt>
      <trkpt lat="47.03988" lon="9.01311">
        <ele>806</ele>
        <time>2021-08-02T09:19:48.396Z</time>
      </trkpt>
      <trkpt lat="47.03987" lon="9.0131">
        <ele>805</ele>
        <time>2021-08-02T09:19:49.395Z</time>
      </trkpt>
      <trkpt lat="47.03987" lon="9.0131">
        <ele>805</ele>
        <time>2021-08-02T09:19:50.396Z</time>
      </trkpt>
      <trkpt lat="47.03986" lon="9.0131">
        <ele>804</ele>
        <time>2021-08-02T09:19:51.395Z</time>
      </trkpt>
      <trkpt lat="47.03986" lon="9.01308">
        <ele>804</ele>
        <time>2021-08-02T09:19:52.395Z</time>
      </trkpt>
      <trkpt lat="47.03985" lon="9.01307">
        <ele>804</ele>
        <time>2021-08-02T09:19:53.396Z</time>
      </trkpt>
      <trkpt lat="47.03984" lon="9.01306">
        <ele>804</ele>
        <time>2021-08-02T09:19:54.395Z</time>
      </trkpt>
      <trkpt lat="47.03984" lon="9.01304">
        <ele>804</ele>
        <time>2021-08-02T09:19:55.395Z</time>
      </trkpt>
      <trkpt lat="47.03984" lon="9.01302">
        <ele>804</ele>
        <time>2021-08-02T09:19:56.396Z</time>
      </trkpt>
      <trkpt lat="47.03984" lon="9.01299">
        <ele>805</ele>
        <time>2021-08-02T09:19:57.395Z</time>
      </trkpt>
      <trkpt lat="47.03982" lon="9.01298">
        <ele>805</ele>
        <time>2021-08-02T09:19:58.396Z</time>
      </trkpt>
      <trkpt lat="47.03981" lon="9.01297">
        <ele>806</ele>
        <time>2021-08-02T09:19:59.396Z</time>
      </trkpt>
      <trkpt lat="47.03981" lon="9.01296">
        <ele>806</ele>
        <time>2021-08-02T09:20:00.396Z</time>
      </trkpt>
      <trkpt lat="47.0398" lon="9.01294">
        <ele>807</ele>
        <time>2021-08-02T09:20:01.395Z</time>
      </trkpt>
      <trkpt lat="47.0398" lon="9.01292">
        <ele>807</ele>
        <time>2021-08-02T09:20:02.396Z</time>
      </trkpt>
      <trkpt lat="47.03979" lon="9.01291">
        <ele>807</ele>
        <time>2021-08-02T09:20:03.396Z</time>
      </trkpt>
      <trkpt lat="47.03979" lon="9.01289">
        <ele>807</ele>
        <time>2021-08-02T09:20:04.395Z</time>
      </trkpt>
      <trkpt lat="47.03978" lon="9.01288">
        <ele>808</ele>
        <time>2021-08-02T09:20:05.396Z</time>
      </trkpt>
      <trkpt lat="47.03978" lon="9.01287">
        <ele>808</ele>
        <time>2021-08-02T09:20:06.396Z</time>
      </trkpt>
      <trkpt lat="47.03977" lon="9.01286">
        <ele>808</ele>
        <time>2021-08-02T09:20:07.396Z</time>
      </trkpt>
      <trkpt lat="47.03977" lon="9.01286">
        <ele>808</ele>
        <time>2021-08-02T09:20:08.395Z</time>
      </trkpt>
      <trkpt lat="47.03977" lon="9.01285">
        <ele>808</ele>
        <time>2021-08-02T09:20:09.396Z</time>
      </trkpt>
      <trkpt lat="47.03976" lon="9.01284">
        <ele>808</ele>
        <time>2021-08-02T09:20:10.395Z</time>
      </trkpt>
      <trkpt lat="47.03975" lon="9.01282">
        <ele>808</ele>
        <time>2021-08-02T09:20:11.395Z</time>
      </trkpt>
      <trkpt lat="47.03975" lon="9.01281">
        <ele>808</ele>
        <time>2021-08-02T09:20:12.395Z</time>
      </trkpt>
      <trkpt lat="47.03976" lon="9.0128">
        <ele>808</ele>
        <time>2021-08-02T09:20:13.396Z</time>
      </trkpt>
      <trkpt lat="47.03975" lon="9.01279">
        <ele>807</ele>
        <time>2021-08-02T09:20:14.395Z</time>
      </trkpt>
      <trkpt lat="47.03974" lon="9.01278">
        <ele>807</ele>
        <time>2021-08-02T09:20:15.395Z</time>
      </trkpt>
      <trkpt lat="47.03973" lon="9.01278">
        <ele>806</ele>
        <time>2021-08-02T09:20:16.395Z</time>
      </trkpt>
      <trkpt lat="47.03972" lon="9.01277">
        <ele>806</ele>
        <time>2021-08-02T09:20:17.395Z</time>
      </trkpt>
      <trkpt lat="47.0397" lon="9.01276">
        <ele>805</ele>
        <time>2021-08-02T09:20:18.395Z</time>
      </trkpt>
      <trkpt lat="47.03969" lon="9.01275">
        <ele>805</ele>
        <time>2021-08-02T09:20:19.396Z</time>
      </trkpt>
      <trkpt lat="47.03968" lon="9.01274">
        <ele>804</ele>
        <time>2021-08-02T09:20:20.395Z</time>
      </trkpt>
      <trkpt lat="47.03968" lon="9.01273">
        <ele>803</ele>
        <time>2021-08-02T09:20:21.395Z</time>
      </trkpt>
      <trkpt lat="47.03967" lon="9.01272">
        <ele>803</ele>
        <time>2021-08-02T09:20:22.396Z</time>
      </trkpt>
      <trkpt lat="47.03966" lon="9.01272">
        <ele>802</ele>
        <time>2021-08-02T09:20:23.396Z</time>
      </trkpt>
      <trkpt lat="47.03965" lon="9.01272">
        <ele>801</ele>
        <time>2021-08-02T09:20:24.395Z</time>
      </trkpt>
      <trkpt lat="47.03964" lon="9.01271">
        <ele>801</ele>
        <time>2021-08-02T09:20:25.395Z</time>
      </trkpt>
      <trkpt lat="47.03963" lon="9.0127">
        <ele>801</ele>
        <time>2021-08-02T09:20:26.395Z</time>
      </trkpt>
      <trkpt lat="47.03963" lon="9.01269">
        <ele>800</ele>
        <time>2021-08-02T09:20:27.395Z</time>
      </trkpt>
      <trkpt lat="47.03963" lon="9.01267">
        <ele>800</ele>
        <time>2021-08-02T09:20:28.396Z</time>
      </trkpt>
      <trkpt lat="47.03962" lon="9.01265">
        <ele>800</ele>
        <time>2021-08-02T09:20:29.395Z</time>
      </trkpt>
      <trkpt lat="47.03962" lon="9.01263">
        <ele>800</ele>
        <time>2021-08-02T09:20:30.395Z</time>
      </trkpt>
      <trkpt lat="47.03962" lon="9.01262">
        <ele>800</ele>
        <time>2021-08-02T09:20:31.395Z</time>
      </trkpt>
      <trkpt lat="47.03962" lon="9.0126">
        <ele>800</ele>
        <time>2021-08-02T09:20:32.395Z</time>
      </trkpt>
      <trkpt lat="47.03961" lon="9.01259">
        <ele>801</ele>
        <time>2021-08-02T09:20:33.395Z</time>
      </trkpt>
      <trkpt lat="47.0396" lon="9.01257">
        <ele>802</ele>
        <time>2021-08-02T09:20:34.395Z</time>
      </trkpt>
      <trkpt lat="47.0396" lon="9.01257">
        <ele>802</ele>
        <time>2021-08-02T09:20:35.396Z</time>
      </trkpt>
      <trkpt lat="47.0396" lon="9.01257">
        <ele>802</ele>
        <time>2021-08-02T09:20:36.395Z</time>
      </trkpt>
      <trkpt lat="47.03959" lon="9.01257">
        <ele>802</ele>
        <time>2021-08-02T09:20:37.395Z</time>
      </trkpt>
      <trkpt lat="47.03957" lon="9.01252">
        <ele>804</ele>
        <time>2021-08-02T09:20:38.396Z</time>
      </trkpt>
      <trkpt lat="47.03956" lon="9.01251">
        <ele>805</ele>
        <time>2021-08-02T09:20:39.397Z</time>
      </trkpt>
      <trkpt lat="47.03956" lon="9.0125">
        <ele>806</ele>
        <time>2021-08-02T09:20:40.397Z</time>
      </trkpt>
      <trkpt lat="47.03957" lon="9.01249">
        <ele>806</ele>
        <time>2021-08-02T09:20:41.397Z</time>
      </trkpt>
      <trkpt lat="47.03956" lon="9.01248">
        <ele>806</ele>
        <time>2021-08-02T09:20:42.397Z</time>
      </trkpt>
      <trkpt lat="47.03956" lon="9.01246">
        <ele>806</ele>
        <time>2021-08-02T09:20:43.397Z</time>
      </trkpt>
      <trkpt lat="47.03956" lon="9.01246">
        <ele>807</ele>
        <time>2021-08-02T09:20:44.396Z</time>
      </trkpt>
      <trkpt lat="47.03956" lon="9.01245">
        <ele>807</ele>
        <time>2021-08-02T09:20:45.397Z</time>
      </trkpt>
      <trkpt lat="47.03956" lon="9.01243">
        <ele>807</ele>
        <time>2021-08-02T09:20:46.396Z</time>
      </trkpt>
      <trkpt lat="47.03956" lon="9.01242">
        <ele>808</ele>
        <time>2021-08-02T09:20:47.396Z</time>
      </trkpt>
      <trkpt lat="47.03955" lon="9.01242">
        <ele>808</ele>
        <time>2021-08-02T09:20:48.397Z</time>
      </trkpt>
      <trkpt lat="47.03954" lon="9.01242">
        <ele>808</ele>
        <time>2021-08-02T09:20:49.397Z</time>
      </trkpt>
      <trkpt lat="47.03953" lon="9.01242">
        <ele>809</ele>
        <time>2021-08-02T09:20:50.397Z</time>
      </trkpt>
      <trkpt lat="47.03953" lon="9.01242">
        <ele>811</ele>
        <time>2021-08-02T09:20:51.397Z</time>
      </trkpt>
      <trkpt lat="47.03953" lon="9.01242">
        <ele>811</ele>
        <time>2021-08-02T09:20:52.396Z</time>
      </trkpt>
      <trkpt lat="47.03952" lon="9.01241">
        <ele>812</ele>
        <time>2021-08-02T09:20:53.397Z</time>
      </trkpt>
      <trkpt lat="47.03952" lon="9.01237">
        <ele>814</ele>
        <time>2021-08-02T09:20:54.397Z</time>
      </trkpt>
      <trkpt lat="47.03953" lon="9.01235">
        <ele>817</ele>
        <time>2021-08-02T09:20:55.398Z</time>
      </trkpt>
      <trkpt lat="47.03955" lon="9.01231">
        <ele>821</ele>
        <time>2021-08-02T09:20:56.399Z</time>
      </trkpt>
      <trkpt lat="47.03954" lon="9.0123">
        <ele>820</ele>
        <time>2021-08-02T09:20:57.398Z</time>
      </trkpt>
      <trkpt lat="47.03954" lon="9.01229">
        <ele>820</ele>
        <time>2021-08-02T09:20:58.399Z</time>
      </trkpt>
      <trkpt lat="47.03953" lon="9.01229">
        <ele>820</ele>
        <time>2021-08-02T09:20:59.399Z</time>
      </trkpt>
      <trkpt lat="47.03953" lon="9.01229">
        <ele>821</ele>
        <time>2021-08-02T09:21:00.399Z</time>
      </trkpt>
      <trkpt lat="47.03953" lon="9.01229">
        <ele>821</ele>
        <time>2021-08-02T09:21:01.399Z</time>
      </trkpt>
      <trkpt lat="47.03953" lon="9.01229">
        <ele>821</ele>
        <time>2021-08-02T09:21:02.398Z</time>
      </trkpt>
      <trkpt lat="47.03952" lon="9.01236">
        <ele>827</ele>
        <time>2021-08-02T09:21:03.398Z</time>
      </trkpt>
      <trkpt lat="47.03954" lon="9.01238">
        <ele>827</ele>
        <time>2021-08-02T09:21:04.398Z</time>
      </trkpt>
      <trkpt lat="47.03954" lon="9.01237">
        <ele>827</ele>
        <time>2021-08-02T09:21:05.399Z</time>
      </trkpt>
      <trkpt lat="47.03949" lon="9.01236">
        <ele>822</ele>
        <time>2021-08-02T09:21:06.399Z</time>
      </trkpt>
      <trkpt lat="47.03948" lon="9.01236">
        <ele>822</ele>
        <time>2021-08-02T09:21:07.400Z</time>
      </trkpt>
      <trkpt lat="47.03948" lon="9.01236">
        <ele>822</ele>
        <time>2021-08-02T09:21:08.399Z</time>
      </trkpt>
      <trkpt lat="47.03948" lon="9.01236">
        <ele>822</ele>
        <time>2021-08-02T09:21:09.399Z</time>
      </trkpt>
      <trkpt lat="47.03947" lon="9.01235">
        <ele>822</ele>
        <time>2021-08-02T09:21:10.399Z</time>
      </trkpt>
      <trkpt lat="47.03947" lon="9.01235">
        <ele>821</ele>
        <time>2021-08-02T09:21:11.400Z</time>
      </trkpt>
      <trkpt lat="47.03947" lon="9.01234">
        <ele>821</ele>
        <time>2021-08-02T09:21:12.400Z</time>
      </trkpt>
      <trkpt lat="47.03946" lon="9.01234">
        <ele>820</ele>
        <time>2021-08-02T09:21:13.401Z</time>
      </trkpt>
      <trkpt lat="47.03951" lon="9.01242">
        <ele>812</ele>
        <time>2021-08-02T09:21:14.401Z</time>
      </trkpt>
      <trkpt lat="47.0395" lon="9.01243">
        <ele>812</ele>
        <time>2021-08-02T09:21:15.400Z</time>
      </trkpt>
      <trkpt lat="47.0395" lon="9.01244">
        <ele>811</ele>
        <time>2021-08-02T09:21:16.401Z</time>
      </trkpt>
      <trkpt lat="47.0395" lon="9.01244">
        <ele>809</ele>
        <time>2021-08-02T09:21:17.400Z</time>
      </trkpt>
      <trkpt lat="47.03951" lon="9.01245">
        <ele>807</ele>
        <time>2021-08-02T09:21:18.400Z</time>
      </trkpt>
      <trkpt lat="47.03954" lon="9.01245">
        <ele>807</ele>
        <time>2021-08-02T09:21:19.401Z</time>
      </trkpt>
      <trkpt lat="47.03955" lon="9.01247">
        <ele>809</ele>
        <time>2021-08-02T09:21:20.401Z</time>
      </trkpt>
      <trkpt lat="47.03956" lon="9.01247">
        <ele>809</ele>
        <time>2021-08-02T09:21:21.400Z</time>
      </trkpt>
      <trkpt lat="47.03956" lon="9.01247">
        <ele>810</ele>
        <time>2021-08-02T09:21:22.401Z</time>
      </trkpt>
      <trkpt lat="47.03957" lon="9.01248">
        <ele>810</ele>
        <time>2021-08-02T09:21:23.401Z</time>
      </trkpt>
      <trkpt lat="47.03957" lon="9.01248">
        <ele>810</ele>
        <time>2021-08-02T09:21:24.401Z</time>
      </trkpt>
      <trkpt lat="47.03958" lon="9.01249">
        <ele>810</ele>
        <time>2021-08-02T09:21:25.401Z</time>
      </trkpt>
      <trkpt lat="47.03959" lon="9.01248">
        <ele>810</ele>
        <time>2021-08-02T09:21:26.400Z</time>
      </trkpt>
      <trkpt lat="47.0396" lon="9.01248">
        <ele>810</ele>
        <time>2021-08-02T09:21:27.401Z</time>
      </trkpt>
      <trkpt lat="47.03952" lon="9.01249">
        <ele>812</ele>
        <time>2021-08-02T09:21:28.403Z</time>
      </trkpt>
      <trkpt lat="47.03953" lon="9.0125">
        <ele>812</ele>
        <time>2021-08-02T09:21:29.402Z</time>
      </trkpt>
      <trkpt lat="47.03953" lon="9.0125">
        <ele>811</ele>
        <time>2021-08-02T09:21:30.402Z</time>
      </trkpt>
      <trkpt lat="47.03954" lon="9.0125">
        <ele>811</ele>
        <time>2021-08-02T09:21:31.403Z</time>
      </trkpt>
      <trkpt lat="47.03953" lon="9.01249">
        <ele>810</ele>
        <time>2021-08-02T09:21:32.402Z</time>
      </trkpt>
      <trkpt lat="47.03952" lon="9.01248">
        <ele>810</ele>
        <time>2021-08-02T09:21:33.402Z</time>
      </trkpt>
      <trkpt lat="47.03951" lon="9.01247">
        <ele>810</ele>
        <time>2021-08-02T09:21:34.403Z</time>
      </trkpt>
      <trkpt lat="47.03951" lon="9.01246">
        <ele>809</ele>
        <time>2021-08-02T09:21:35.402Z</time>
      </trkpt>
      <trkpt lat="47.0395" lon="9.01245">
        <ele>809</ele>
        <time>2021-08-02T09:21:36.402Z</time>
      </trkpt>
      <trkpt lat="47.03949" lon="9.01244">
        <ele>809</ele>
        <time>2021-08-02T09:21:37.403Z</time>
      </trkpt>
      <trkpt lat="47.03948" lon="9.01244">
        <ele>809</ele>
        <time>2021-08-02T09:21:38.402Z</time>
      </trkpt>
      <trkpt lat="47.03948" lon="9.01243">
        <ele>810</ele>
        <time>2021-08-02T09:21:39.403Z</time>
      </trkpt>
      <trkpt lat="47.03947" lon="9.01242">
        <ele>810</ele>
        <time>2021-08-02T09:21:40.403Z</time>
      </trkpt>
      <trkpt lat="47.03946" lon="9.01242">
        <ele>810</ele>
        <time>2021-08-02T09:21:41.402Z</time>
      </trkpt>
      <trkpt lat="47.03945" lon="9.01241">
        <ele>810</ele>
        <time>2021-08-02T09:21:42.403Z</time>
      </trkpt>
      <trkpt lat="47.03945" lon="9.01241">
        <ele>810</ele>
        <time>2021-08-02T09:21:43.403Z</time>
      </trkpt>
      <trkpt lat="47.03944" lon="9.0124">
        <ele>811</ele>
        <time>2021-08-02T09:21:44.403Z</time>
      </trkpt>
      <trkpt lat="47.03944" lon="9.01239">
        <ele>811</ele>
        <time>2021-08-02T09:21:45.402Z</time>
      </trkpt>
      <trkpt lat="47.03943" lon="9.01239">
        <ele>811</ele>
        <time>2021-08-02T09:21:46.403Z</time>
      </trkpt>
      <trkpt lat="47.03942" lon="9.01238">
        <ele>811</ele>
        <time>2021-08-02T09:21:47.402Z</time>
      </trkpt>
      <trkpt lat="47.03941" lon="9.01237">
        <ele>811</ele>
        <time>2021-08-02T09:21:48.403Z</time>
      </trkpt>
      <trkpt lat="47.0394" lon="9.01236">
        <ele>811</ele>
        <time>2021-08-02T09:21:49.403Z</time>
      </trkpt>
      <trkpt lat="47.03939" lon="9.01235">
        <ele>811</ele>
        <time>2021-08-02T09:21:50.402Z</time>
      </trkpt>
      <trkpt lat="47.03938" lon="9.01233">
        <ele>811</ele>
        <time>2021-08-02T09:21:51.403Z</time>
      </trkpt>
      <trkpt lat="47.03938" lon="9.01231">
        <ele>811</ele>
        <time>2021-08-02T09:21:52.403Z</time>
      </trkpt>
      <trkpt lat="47.03938" lon="9.01229">
        <ele>811</ele>
        <time>2021-08-02T09:21:53.402Z</time>
      </trkpt>
      <trkpt lat="47.03938" lon="9.01227">
        <ele>811</ele>
        <time>2021-08-02T09:21:54.402Z</time>
      </trkpt>
      <trkpt lat="47.03937" lon="9.01226">
        <ele>811</ele>
        <time>2021-08-02T09:21:55.402Z</time>
      </trkpt>
      <trkpt lat="47.03936" lon="9.01225">
        <ele>811</ele>
        <time>2021-08-02T09:21:56.402Z</time>
      </trkpt>
      <trkpt lat="47.03935" lon="9.01224">
        <ele>811</ele>
        <time>2021-08-02T09:21:57.402Z</time>
      </trkpt>
      <trkpt lat="47.03935" lon="9.01223">
        <ele>811</ele>
        <time>2021-08-02T09:21:58.402Z</time>
      </trkpt>
      <trkpt lat="47.03935" lon="9.01221">
        <ele>812</ele>
        <time>2021-08-02T09:21:59.403Z</time>
      </trkpt>
      <trkpt lat="47.03934" lon="9.0122">
        <ele>811</ele>
        <time>2021-08-02T09:22:00.403Z</time>
      </trkpt>
      <trkpt lat="47.03933" lon="9.01218">
        <ele>811</ele>
        <time>2021-08-02T09:22:01.403Z</time>
      </trkpt>
      <trkpt lat="47.03932" lon="9.01215">
        <ele>811</ele>
        <time>2021-08-02T09:22:02.403Z</time>
      </trkpt>
      <trkpt lat="47.03931" lon="9.01214">
        <ele>811</ele>
        <time>2021-08-02T09:22:03.403Z</time>
      </trkpt>
      <trkpt lat="47.0393" lon="9.01213">
        <ele>811</ele>
        <time>2021-08-02T09:22:04.402Z</time>
      </trkpt>
      <trkpt lat="47.03928" lon="9.01212">
        <ele>811</ele>
        <time>2021-08-02T09:22:05.402Z</time>
      </trkpt>
      <trkpt lat="47.03927" lon="9.01212">
        <ele>810</ele>
        <time>2021-08-02T09:22:06.403Z</time>
      </trkpt>
      <trkpt lat="47.03925" lon="9.01212">
        <ele>810</ele>
        <time>2021-08-02T09:22:07.402Z</time>
      </trkpt>
      <trkpt lat="47.03925" lon="9.0121">
        <ele>810</ele>
        <time>2021-08-02T09:22:08.403Z</time>
      </trkpt>
      <trkpt lat="47.03925" lon="9.01208">
        <ele>809</ele>
        <time>2021-08-02T09:22:09.402Z</time>
      </trkpt>
      <trkpt lat="47.03924" lon="9.01206">
        <ele>808</ele>
        <time>2021-08-02T09:22:10.402Z</time>
      </trkpt>
      <trkpt lat="47.03924" lon="9.01204">
        <ele>807</ele>
        <time>2021-08-02T09:22:11.402Z</time>
      </trkpt>
      <trkpt lat="47.03923" lon="9.01203">
        <ele>807</ele>
        <time>2021-08-02T09:22:12.402Z</time>
      </trkpt>
      <trkpt lat="47.03922" lon="9.01202">
        <ele>806</ele>
        <time>2021-08-02T09:22:13.403Z</time>
      </trkpt>
      <trkpt lat="47.03921" lon="9.01201">
        <ele>806</ele>
        <time>2021-08-02T09:22:14.403Z</time>
      </trkpt>
      <trkpt lat="47.0392" lon="9.01199">
        <ele>807</ele>
        <time>2021-08-02T09:22:15.402Z</time>
      </trkpt>
      <trkpt lat="47.0392" lon="9.01198">
        <ele>807</ele>
        <time>2021-08-02T09:22:16.402Z</time>
      </trkpt>
      <trkpt lat="47.03919" lon="9.01197">
        <ele>807</ele>
        <time>2021-08-02T09:22:17.402Z</time>
      </trkpt>
      <trkpt lat="47.03919" lon="9.01196">
        <ele>807</ele>
        <time>2021-08-02T09:22:18.403Z</time>
      </trkpt>
      <trkpt lat="47.03919" lon="9.01194">
        <ele>806</ele>
        <time>2021-08-02T09:22:19.403Z</time>
      </trkpt>
      <trkpt lat="47.03918" lon="9.01193">
        <ele>806</ele>
        <time>2021-08-02T09:22:20.403Z</time>
      </trkpt>
      <trkpt lat="47.03918" lon="9.01191">
        <ele>806</ele>
        <time>2021-08-02T09:22:21.402Z</time>
      </trkpt>
      <trkpt lat="47.03917" lon="9.0119">
        <ele>807</ele>
        <time>2021-08-02T09:22:22.402Z</time>
      </trkpt>
      <trkpt lat="47.03916" lon="9.01188">
        <ele>807</ele>
        <time>2021-08-02T09:22:23.402Z</time>
      </trkpt>
      <trkpt lat="47.03916" lon="9.01186">
        <ele>807</ele>
        <time>2021-08-02T09:22:24.402Z</time>
      </trkpt>
      <trkpt lat="47.03915" lon="9.01185">
        <ele>807</ele>
        <time>2021-08-02T09:22:25.403Z</time>
      </trkpt>
      <trkpt lat="47.03915" lon="9.01183">
        <ele>808</ele>
        <time>2021-08-02T09:22:26.402Z</time>
      </trkpt>
      <trkpt lat="47.03914" lon="9.01181">
        <ele>808</ele>
        <time>2021-08-02T09:22:27.403Z</time>
      </trkpt>
      <trkpt lat="47.03914" lon="9.0118">
        <ele>808</ele>
        <time>2021-08-02T09:22:28.402Z</time>
      </trkpt>
      <trkpt lat="47.03913" lon="9.01179">
        <ele>809</ele>
        <time>2021-08-02T09:22:29.403Z</time>
      </trkpt>
      <trkpt lat="47.03913" lon="9.01177">
        <ele>809</ele>
        <time>2021-08-02T09:22:30.402Z</time>
      </trkpt>
      <trkpt lat="47.03912" lon="9.01176">
        <ele>809</ele>
        <time>2021-08-02T09:22:31.402Z</time>
      </trkpt>
      <trkpt lat="47.03911" lon="9.01174">
        <ele>810</ele>
        <time>2021-08-02T09:22:32.402Z</time>
      </trkpt>
      <trkpt lat="47.03911" lon="9.01173">
        <ele>810</ele>
        <time>2021-08-02T09:22:33.403Z</time>
      </trkpt>
      <trkpt lat="47.0391" lon="9.01172">
        <ele>811</ele>
        <time>2021-08-02T09:22:34.403Z</time>
      </trkpt>
      <trkpt lat="47.03909" lon="9.0117">
        <ele>811</ele>
        <time>2021-08-02T09:22:35.403Z</time>
      </trkpt>
      <trkpt lat="47.03908" lon="9.01167">
        <ele>812</ele>
        <time>2021-08-02T09:22:36.402Z</time>
      </trkpt>
      <trkpt lat="47.03907" lon="9.01164">
        <ele>813</ele>
        <time>2021-08-02T09:22:37.402Z</time>
      </trkpt>
      <trkpt lat="47.03906" lon="9.01162">
        <ele>813</ele>
        <time>2021-08-02T09:22:38.403Z</time>
      </trkpt>
      <trkpt lat="47.03907" lon="9.0116">
        <ele>813</ele>
        <time>2021-08-02T09:22:39.402Z</time>
      </trkpt>
      <trkpt lat="47.03907" lon="9.01158">
        <ele>814</ele>
        <time>2021-08-02T09:22:40.402Z</time>
      </trkpt>
      <trkpt lat="47.03906" lon="9.01156">
        <ele>814</ele>
        <time>2021-08-02T09:22:41.403Z</time>
      </trkpt>
      <trkpt lat="47.03905" lon="9.01155">
        <ele>815</ele>
        <time>2021-08-02T09:22:42.402Z</time>
      </trkpt>
      <trkpt lat="47.03904" lon="9.01154">
        <ele>815</ele>
        <time>2021-08-02T09:22:43.403Z</time>
      </trkpt>
      <trkpt lat="47.03903" lon="9.01153">
        <ele>816</ele>
        <time>2021-08-02T09:22:44.402Z</time>
      </trkpt>
      <trkpt lat="47.03902" lon="9.01153">
        <ele>816</ele>
        <time>2021-08-02T09:22:45.403Z</time>
      </trkpt>
      <trkpt lat="47.03901" lon="9.01152">
        <ele>817</ele>
        <time>2021-08-02T09:22:46.403Z</time>
      </trkpt>
      <trkpt lat="47.039" lon="9.01152">
        <ele>817</ele>
        <time>2021-08-02T09:22:47.402Z</time>
      </trkpt>
      <trkpt lat="47.03899" lon="9.01151">
        <ele>817</ele>
        <time>2021-08-02T09:22:48.402Z</time>
      </trkpt>
      <trkpt lat="47.03898" lon="9.0115">
        <ele>816</ele>
        <time>2021-08-02T09:22:49.402Z</time>
      </trkpt>
      <trkpt lat="47.03896" lon="9.0115">
        <ele>816</ele>
        <time>2021-08-02T09:22:50.403Z</time>
      </trkpt>
      <trkpt lat="47.03895" lon="9.01149">
        <ele>815</ele>
        <time>2021-08-02T09:22:51.402Z</time>
      </trkpt>
      <trkpt lat="47.03895" lon="9.01149">
        <ele>815</ele>
        <time>2021-08-02T09:22:52.403Z</time>
      </trkpt>
      <trkpt lat="47.03895" lon="9.01148">
        <ele>815</ele>
        <time>2021-08-02T09:22:53.403Z</time>
      </trkpt>
      <trkpt lat="47.03894" lon="9.01148">
        <ele>815</ele>
        <time>2021-08-02T09:22:54.402Z</time>
      </trkpt>
      <trkpt lat="47.03894" lon="9.01147">
        <ele>815</ele>
        <time>2021-08-02T09:22:55.403Z</time>
      </trkpt>
      <trkpt lat="47.03893" lon="9.01147">
        <ele>814</ele>
        <time>2021-08-02T09:22:56.402Z</time>
      </trkpt>
      <trkpt lat="47.03891" lon="9.01146">
        <ele>814</ele>
        <time>2021-08-02T09:22:57.403Z</time>
      </trkpt>
      <trkpt lat="47.03891" lon="9.01145">
        <ele>814</ele>
        <time>2021-08-02T09:22:58.403Z</time>
      </trkpt>
      <trkpt lat="47.0389" lon="9.01144">
        <ele>813</ele>
        <time>2021-08-02T09:22:59.402Z</time>
      </trkpt>
      <trkpt lat="47.03889" lon="9.01144">
        <ele>813</ele>
        <time>2021-08-02T09:23:00.402Z</time>
      </trkpt>
      <trkpt lat="47.03888" lon="9.01143">
        <ele>812</ele>
        <time>2021-08-02T09:23:01.402Z</time>
      </trkpt>
      <trkpt lat="47.03887" lon="9.01142">
        <ele>812</ele>
        <time>2021-08-02T09:23:02.402Z</time>
      </trkpt>
      <trkpt lat="47.03886" lon="9.0114">
        <ele>812</ele>
        <time>2021-08-02T09:23:03.403Z</time>
      </trkpt>
      <trkpt lat="47.03884" lon="9.0114">
        <ele>812</ele>
        <time>2021-08-02T09:23:04.402Z</time>
      </trkpt>
      <trkpt lat="47.03883" lon="9.01139">
        <ele>812</ele>
        <time>2021-08-02T09:23:05.402Z</time>
      </trkpt>
      <trkpt lat="47.03882" lon="9.01139">
        <ele>812</ele>
        <time>2021-08-02T09:23:06.402Z</time>
      </trkpt>
      <trkpt lat="47.0388" lon="9.01139">
        <ele>813</ele>
        <time>2021-08-02T09:23:07.403Z</time>
      </trkpt>
      <trkpt lat="47.03879" lon="9.01137">
        <ele>813</ele>
        <time>2021-08-02T09:23:08.402Z</time>
      </trkpt>
      <trkpt lat="47.03878" lon="9.01136">
        <ele>814</ele>
        <time>2021-08-02T09:23:09.403Z</time>
      </trkpt>
      <trkpt lat="47.03877" lon="9.01135">
        <ele>814</ele>
        <time>2021-08-02T09:23:10.403Z</time>
      </trkpt>
      <trkpt lat="47.03876" lon="9.01134">
        <ele>815</ele>
        <time>2021-08-02T09:23:11.403Z</time>
      </trkpt>
      <trkpt lat="47.03874" lon="9.01133">
        <ele>815</ele>
        <time>2021-08-02T09:23:12.402Z</time>
      </trkpt>
      <trkpt lat="47.03873" lon="9.01132">
        <ele>816</ele>
        <time>2021-08-02T09:23:13.402Z</time>
      </trkpt>
      <trkpt lat="47.03871" lon="9.01131">
        <ele>817</ele>
        <time>2021-08-02T09:23:14.403Z</time>
      </trkpt>
      <trkpt lat="47.0387" lon="9.01131">
        <ele>818</ele>
        <time>2021-08-02T09:23:15.403Z</time>
      </trkpt>
      <trkpt lat="47.03869" lon="9.0113">
        <ele>819</ele>
        <time>2021-08-02T09:23:16.402Z</time>
      </trkpt>
      <trkpt lat="47.03868" lon="9.0113">
        <ele>820</ele>
        <time>2021-08-02T09:23:17.402Z</time>
      </trkpt>
      <trkpt lat="47.03866" lon="9.01129">
        <ele>820</ele>
        <time>2021-08-02T09:23:18.403Z</time>
      </trkpt>
      <trkpt lat="47.03865" lon="9.01128">
        <ele>821</ele>
        <time>2021-08-02T09:23:19.402Z</time>
      </trkpt>
      <trkpt lat="47.03865" lon="9.01127">
        <ele>821</ele>
        <time>2021-08-02T09:23:20.403Z</time>
      </trkpt>
      <trkpt lat="47.03863" lon="9.01126">
        <ele>822</ele>
        <time>2021-08-02T09:23:21.402Z</time>
      </trkpt>
      <trkpt lat="47.03863" lon="9.01125">
        <ele>822</ele>
        <time>2021-08-02T09:23:22.402Z</time>
      </trkpt>
      <trkpt lat="47.03862" lon="9.01124">
        <ele>822</ele>
        <time>2021-08-02T09:23:23.403Z</time>
      </trkpt>
      <trkpt lat="47.03862" lon="9.01124">
        <ele>822</ele>
        <time>2021-08-02T09:23:24.403Z</time>
      </trkpt>
      <trkpt lat="47.03862" lon="9.01123">
        <ele>823</ele>
        <time>2021-08-02T09:23:25.402Z</time>
      </trkpt>
      <trkpt lat="47.03861" lon="9.01122">
        <ele>823</ele>
        <time>2021-08-02T09:23:26.403Z</time>
      </trkpt>
      <trkpt lat="47.03861" lon="9.01121">
        <ele>823</ele>
        <time>2021-08-02T09:23:27.403Z</time>
      </trkpt>
      <trkpt lat="47.0386" lon="9.0112">
        <ele>824</ele>
        <time>2021-08-02T09:23:28.402Z</time>
      </trkpt>
      <trkpt lat="47.03859" lon="9.01118">
        <ele>824</ele>
        <time>2021-08-02T09:23:29.402Z</time>
      </trkpt>
      <trkpt lat="47.03858" lon="9.01117">
        <ele>824</ele>
        <time>2021-08-02T09:23:30.402Z</time>
      </trkpt>
      <trkpt lat="47.03857" lon="9.01116">
        <ele>824</ele>
        <time>2021-08-02T09:23:31.402Z</time>
      </trkpt>
      <trkpt lat="47.03856" lon="9.01115">
        <ele>824</ele>
        <time>2021-08-02T09:23:32.403Z</time>
      </trkpt>
      <trkpt lat="47.03855" lon="9.01115">
        <ele>824</ele>
        <time>2021-08-02T09:23:33.402Z</time>
      </trkpt>
      <trkpt lat="47.03854" lon="9.01114">
        <ele>824</ele>
        <time>2021-08-02T09:23:34.403Z</time>
      </trkpt>
      <trkpt lat="47.03854" lon="9.01114">
        <ele>823</ele>
        <time>2021-08-02T09:23:35.403Z</time>
      </trkpt>
      <trkpt lat="47.03854" lon="9.01113">
        <ele>823</ele>
        <time>2021-08-02T09:23:36.403Z</time>
      </trkpt>
      <trkpt lat="47.03854" lon="9.01112">
        <ele>822</ele>
        <time>2021-08-02T09:23:37.402Z</time>
      </trkpt>
      <trkpt lat="47.03854" lon="9.01111">
        <ele>821</ele>
        <time>2021-08-02T09:23:38.403Z</time>
      </trkpt>
      <trkpt lat="47.03854" lon="9.0111">
        <ele>821</ele>
        <time>2021-08-02T09:23:39.402Z</time>
      </trkpt>
      <trkpt lat="47.03853" lon="9.01109">
        <ele>820</ele>
        <time>2021-08-02T09:23:40.402Z</time>
      </trkpt>
      <trkpt lat="47.03853" lon="9.01107">
        <ele>819</ele>
        <time>2021-08-02T09:23:41.402Z</time>
      </trkpt>
      <trkpt lat="47.03853" lon="9.01106">
        <ele>818</ele>
        <time>2021-08-02T09:23:42.403Z</time>
      </trkpt>
      <trkpt lat="47.03853" lon="9.01105">
        <ele>818</ele>
        <time>2021-08-02T09:23:43.402Z</time>
      </trkpt>
      <trkpt lat="47.03852" lon="9.01105">
        <ele>817</ele>
        <time>2021-08-02T09:23:44.402Z</time>
      </trkpt>
      <trkpt lat="47.03852" lon="9.01104">
        <ele>816</ele>
        <time>2021-08-02T09:23:45.403Z</time>
      </trkpt>
      <trkpt lat="47.03852" lon="9.01104">
        <ele>816</ele>
        <time>2021-08-02T09:23:46.402Z</time>
      </trkpt>
      <trkpt lat="47.03852" lon="9.01103">
        <ele>816</ele>
        <time>2021-08-02T09:23:47.402Z</time>
      </trkpt>
      <trkpt lat="47.03852" lon="9.01103">
        <ele>816</ele>
        <time>2021-08-02T09:23:48.402Z</time>
      </trkpt>
      <trkpt lat="47.03851" lon="9.01101">
        <ele>815</ele>
        <time>2021-08-02T09:23:49.402Z</time>
      </trkpt>
      <trkpt lat="47.0385" lon="9.011">
        <ele>815</ele>
        <time>2021-08-02T09:23:50.402Z</time>
      </trkpt>
      <trkpt lat="47.0385" lon="9.01099">
        <ele>815</ele>
        <time>2021-08-02T09:23:51.403Z</time>
      </trkpt>
      <trkpt lat="47.03849" lon="9.01098">
        <ele>815</ele>
        <time>2021-08-02T09:23:52.402Z</time>
      </trkpt>
      <trkpt lat="47.03849" lon="9.01097">
        <ele>814</ele>
        <time>2021-08-02T09:23:53.402Z</time>
      </trkpt>
      <trkpt lat="47.03849" lon="9.01096">
        <ele>814</ele>
        <time>2021-08-02T09:23:54.403Z</time>
      </trkpt>
      <trkpt lat="47.03848" lon="9.01095">
        <ele>813</ele>
        <time>2021-08-02T09:23:55.402Z</time>
      </trkpt>
      <trkpt lat="47.03848" lon="9.01094">
        <ele>813</ele>
        <time>2021-08-02T09:23:56.403Z</time>
      </trkpt>
      <trkpt lat="47.03847" lon="9.01094">
        <ele>812</ele>
        <time>2021-08-02T09:23:57.402Z</time>
      </trkpt>
      <trkpt lat="47.03847" lon="9.01093">
        <ele>812</ele>
        <time>2021-08-02T09:23:58.402Z</time>
      </trkpt>
      <trkpt lat="47.03847" lon="9.01092">
        <ele>812</ele>
        <time>2021-08-02T09:23:59.403Z</time>
      </trkpt>
      <trkpt lat="47.03846" lon="9.01092">
        <ele>812</ele>
        <time>2021-08-02T09:24:00.403Z</time>
      </trkpt>
      <trkpt lat="47.03846" lon="9.01092">
        <ele>812</ele>
        <time>2021-08-02T09:24:01.402Z</time>
      </trkpt>
      <trkpt lat="47.03846" lon="9.01091">
        <ele>812</ele>
        <time>2021-08-02T09:24:02.403Z</time>
      </trkpt>
      <trkpt lat="47.03846" lon="9.01089">
        <ele>811</ele>
        <time>2021-08-02T09:24:03.403Z</time>
      </trkpt>
      <trkpt lat="47.03846" lon="9.01086">
        <ele>810</ele>
        <time>2021-08-02T09:24:04.402Z</time>
      </trkpt>
      <trkpt lat="47.03846" lon="9.01083">
        <ele>809</ele>
        <time>2021-08-02T09:24:05.402Z</time>
      </trkpt>
      <trkpt lat="47.03847" lon="9.01081">
        <ele>809</ele>
        <time>2021-08-02T09:24:06.402Z</time>
      </trkpt>
      <trkpt lat="47.03847" lon="9.0108">
        <ele>808</ele>
        <time>2021-08-02T09:24:07.402Z</time>
      </trkpt>
      <trkpt lat="47.03847" lon="9.01078">
        <ele>808</ele>
        <time>2021-08-02T09:24:08.402Z</time>
      </trkpt>
      <trkpt lat="47.03847" lon="9.01077">
        <ele>808</ele>
        <time>2021-08-02T09:24:09.402Z</time>
      </trkpt>
      <trkpt lat="47.03848" lon="9.01076">
        <ele>808</ele>
        <time>2021-08-02T09:24:10.402Z</time>
      </trkpt>
      <trkpt lat="47.03848" lon="9.01075">
        <ele>808</ele>
        <time>2021-08-02T09:24:11.402Z</time>
      </trkpt>
      <trkpt lat="47.03847" lon="9.01073">
        <ele>809</ele>
        <time>2021-08-02T09:24:12.403Z</time>
      </trkpt>
      <trkpt lat="47.03847" lon="9.01072">
        <ele>809</ele>
        <time>2021-08-02T09:24:13.403Z</time>
      </trkpt>
      <trkpt lat="47.03848" lon="9.0107">
        <ele>810</ele>
        <time>2021-08-02T09:24:14.402Z</time>
      </trkpt>
      <trkpt lat="47.03847" lon="9.01068">
        <ele>810</ele>
        <time>2021-08-02T09:24:15.402Z</time>
      </trkpt>
      <trkpt lat="47.03846" lon="9.01066">
        <ele>811</ele>
        <time>2021-08-02T09:24:16.402Z</time>
      </trkpt>
      <trkpt lat="47.03844" lon="9.01064">
        <ele>811</ele>
        <time>2021-08-02T09:24:17.402Z</time>
      </trkpt>
      <trkpt lat="47.03843" lon="9.01063">
        <ele>811</ele>
        <time>2021-08-02T09:24:18.403Z</time>
      </trkpt>
      <trkpt lat="47.03842" lon="9.01061">
        <ele>811</ele>
        <time>2021-08-02T09:24:19.402Z</time>
      </trkpt>
      <trkpt lat="47.03842" lon="9.0106">
        <ele>811</ele>
        <time>2021-08-02T09:24:20.403Z</time>
      </trkpt>
      <trkpt lat="47.03843" lon="9.0106">
        <ele>810</ele>
        <time>2021-08-02T09:24:21.403Z</time>
      </trkpt>
      <trkpt lat="47.03843" lon="9.01059">
        <ele>810</ele>
        <time>2021-08-02T09:24:22.402Z</time>
      </trkpt>
      <trkpt lat="47.03843" lon="9.01058">
        <ele>811</ele>
        <time>2021-08-02T09:24:23.403Z</time>
      </trkpt>
      <trkpt lat="47.03842" lon="9.01057">
        <ele>811</ele>
        <time>2021-08-02T09:24:24.403Z</time>
      </trkpt>
      <trkpt lat="47.03841" lon="9.01057">
        <ele>811</ele>
        <time>2021-08-02T09:24:25.402Z</time>
      </trkpt>
      <trkpt lat="47.0384" lon="9.01056">
        <ele>812</ele>
        <time>2021-08-02T09:24:26.403Z</time>
      </trkpt>
      <trkpt lat="47.03839" lon="9.01056">
        <ele>812</ele>
        <time>2021-08-02T09:24:27.402Z</time>
      </trkpt>
      <trkpt lat="47.03837" lon="9.01056">
        <ele>812</ele>
        <time>2021-08-02T09:24:28.403Z</time>
      </trkpt>
      <trkpt lat="47.03836" lon="9.01055">
        <ele>812</ele>
        <time>2021-08-02T09:24:29.403Z</time>
      </trkpt>
      <trkpt lat="47.03836" lon="9.01055">
        <ele>812</ele>
        <time>2021-08-02T09:24:30.402Z</time>
      </trkpt>
      <trkpt lat="47.03835" lon="9.01055">
        <ele>813</ele>
        <time>2021-08-02T09:24:31.403Z</time>
      </trkpt>
      <trkpt lat="47.03835" lon="9.01056">
        <ele>813</ele>
        <time>2021-08-02T09:24:32.403Z</time>
      </trkpt>
      <trkpt lat="47.03834" lon="9.01055">
        <ele>814</ele>
        <time>2021-08-02T09:24:33.402Z</time>
      </trkpt>
      <trkpt lat="47.03833" lon="9.01055">
        <ele>814</ele>
        <time>2021-08-02T09:24:34.403Z</time>
      </trkpt>
      <trkpt lat="47.03832" lon="9.01055">
        <ele>814</ele>
        <time>2021-08-02T09:24:35.403Z</time>
      </trkpt>
      <trkpt lat="47.03831" lon="9.01055">
        <ele>815</ele>
        <time>2021-08-02T09:24:36.403Z</time>
      </trkpt>
      <trkpt lat="47.0383" lon="9.01054">
        <ele>815</ele>
        <time>2021-08-02T09:24:37.402Z</time>
      </trkpt>
      <trkpt lat="47.03829" lon="9.01053">
        <ele>816</ele>
        <time>2021-08-02T09:24:38.403Z</time>
      </trkpt>
      <trkpt lat="47.03828" lon="9.01052">
        <ele>817</ele>
        <time>2021-08-02T09:24:39.403Z</time>
      </trkpt>
      <trkpt lat="47.03828" lon="9.01051">
        <ele>817</ele>
        <time>2021-08-02T09:24:40.403Z</time>
      </trkpt>
      <trkpt lat="47.03827" lon="9.01051">
        <ele>817</ele>
        <time>2021-08-02T09:24:41.402Z</time>
      </trkpt>
      <trkpt lat="47.03827" lon="9.01051">
        <ele>818</ele>
        <time>2021-08-02T09:24:42.403Z</time>
      </trkpt>
      <trkpt lat="47.03826" lon="9.0105">
        <ele>818</ele>
        <time>2021-08-02T09:24:43.403Z</time>
      </trkpt>
      <trkpt lat="47.03825" lon="9.0105">
        <ele>819</ele>
        <time>2021-08-02T09:24:44.403Z</time>
      </trkpt>
      <trkpt lat="47.03824" lon="9.01051">
        <ele>819</ele>
        <time>2021-08-02T09:24:45.402Z</time>
      </trkpt>
      <trkpt lat="47.03824" lon="9.01051">
        <ele>820</ele>
        <time>2021-08-02T09:24:46.403Z</time>
      </trkpt>
      <trkpt lat="47.03823" lon="9.01052">
        <ele>820</ele>
        <time>2021-08-02T09:24:47.402Z</time>
      </trkpt>
      <trkpt lat="47.03823" lon="9.01052">
        <ele>821</ele>
        <time>2021-08-02T09:24:48.403Z</time>
      </trkpt>
      <trkpt lat="47.03822" lon="9.01052">
        <ele>821</ele>
        <time>2021-08-02T09:24:49.402Z</time>
      </trkpt>
      <trkpt lat="47.03822" lon="9.0105">
        <ele>822</ele>
        <time>2021-08-02T09:24:50.403Z</time>
      </trkpt>
      <trkpt lat="47.03821" lon="9.01049">
        <ele>822</ele>
        <time>2021-08-02T09:24:51.403Z</time>
      </trkpt>
      <trkpt lat="47.0382" lon="9.01047">
        <ele>822</ele>
        <time>2021-08-02T09:24:52.402Z</time>
      </trkpt>
      <trkpt lat="47.03819" lon="9.01046">
        <ele>822</ele>
        <time>2021-08-02T09:24:53.402Z</time>
      </trkpt>
      <trkpt lat="47.03818" lon="9.01046">
        <ele>822</ele>
        <time>2021-08-02T09:24:54.403Z</time>
      </trkpt>
      <trkpt lat="47.03817" lon="9.01045">
        <ele>822</ele>
        <time>2021-08-02T09:24:55.403Z</time>
      </trkpt>
      <trkpt lat="47.03816" lon="9.01045">
        <ele>822</ele>
        <time>2021-08-02T09:24:56.403Z</time>
      </trkpt>
      <trkpt lat="47.03815" lon="9.01044">
        <ele>822</ele>
        <time>2021-08-02T09:24:57.403Z</time>
      </trkpt>
      <trkpt lat="47.03815" lon="9.01043">
        <ele>822</ele>
        <time>2021-08-02T09:24:58.402Z</time>
      </trkpt>
      <trkpt lat="47.03814" lon="9.01043">
        <ele>822</ele>
        <time>2021-08-02T09:24:59.403Z</time>
      </trkpt>
      <trkpt lat="47.03814" lon="9.01042">
        <ele>822</ele>
        <time>2021-08-02T09:25:00.402Z</time>
      </trkpt>
      <trkpt lat="47.03813" lon="9.01041">
        <ele>822</ele>
        <time>2021-08-02T09:25:01.403Z</time>
      </trkpt>
      <trkpt lat="47.03812" lon="9.0104">
        <ele>822</ele>
        <time>2021-08-02T09:25:02.403Z</time>
      </trkpt>
      <trkpt lat="47.03811" lon="9.0104">
        <ele>822</ele>
        <time>2021-08-02T09:25:03.402Z</time>
      </trkpt>
      <trkpt lat="47.03809" lon="9.0104">
        <ele>822</ele>
        <time>2021-08-02T09:25:04.403Z</time>
      </trkpt>
      <trkpt lat="47.03808" lon="9.01039">
        <ele>823</ele>
        <time>2021-08-02T09:25:05.403Z</time>
      </trkpt>
      <trkpt lat="47.03808" lon="9.01039">
        <ele>823</ele>
        <time>2021-08-02T09:25:06.403Z</time>
      </trkpt>
      <trkpt lat="47.03807" lon="9.01038">
        <ele>824</ele>
        <time>2021-08-02T09:25:07.403Z</time>
      </trkpt>
      <trkpt lat="47.03807" lon="9.01038">
        <ele>824</ele>
        <time>2021-08-02T09:25:08.402Z</time>
      </trkpt>
      <trkpt lat="47.03806" lon="9.01037">
        <ele>825</ele>
        <time>2021-08-02T09:25:09.403Z</time>
      </trkpt>
      <trkpt lat="47.03807" lon="9.01035">
        <ele>825</ele>
        <time>2021-08-02T09:25:10.403Z</time>
      </trkpt>
      <trkpt lat="47.03807" lon="9.01034">
        <ele>825</ele>
        <time>2021-08-02T09:25:11.403Z</time>
      </trkpt>
      <trkpt lat="47.03807" lon="9.01033">
        <ele>825</ele>
        <time>2021-08-02T09:25:12.402Z</time>
      </trkpt>
      <trkpt lat="47.03806" lon="9.01033">
        <ele>825</ele>
        <time>2021-08-02T09:25:13.402Z</time>
      </trkpt>
      <trkpt lat="47.03806" lon="9.01032">
        <ele>825</ele>
        <time>2021-08-02T09:25:14.402Z</time>
      </trkpt>
      <trkpt lat="47.03805" lon="9.01032">
        <ele>825</ele>
        <time>2021-08-02T09:25:15.402Z</time>
      </trkpt>
      <trkpt lat="47.03804" lon="9.01032">
        <ele>825</ele>
        <time>2021-08-02T09:25:16.403Z</time>
      </trkpt>
      <trkpt lat="47.03804" lon="9.01031">
        <ele>825</ele>
        <time>2021-08-02T09:25:17.403Z</time>
      </trkpt>
      <trkpt lat="47.03804" lon="9.01031">
        <ele>825</ele>
        <time>2021-08-02T09:25:18.402Z</time>
      </trkpt>
      <trkpt lat="47.03804" lon="9.0103">
        <ele>825</ele>
        <time>2021-08-02T09:25:19.403Z</time>
      </trkpt>
      <trkpt lat="47.03803" lon="9.0103">
        <ele>826</ele>
        <time>2021-08-02T09:25:20.402Z</time>
      </trkpt>
      <trkpt lat="47.03802" lon="9.0103">
        <ele>826</ele>
        <time>2021-08-02T09:25:21.403Z</time>
      </trkpt>
      <trkpt lat="47.03801" lon="9.0103">
        <ele>827</ele>
        <time>2021-08-02T09:25:22.403Z</time>
      </trkpt>
      <trkpt lat="47.03801" lon="9.01029">
        <ele>826</ele>
        <time>2021-08-02T09:25:23.403Z</time>
      </trkpt>
      <trkpt lat="47.03801" lon="9.01027">
        <ele>826</ele>
        <time>2021-08-02T09:25:24.403Z</time>
      </trkpt>
      <trkpt lat="47.038" lon="9.01025">
        <ele>826</ele>
        <time>2021-08-02T09:25:25.403Z</time>
      </trkpt>
      <trkpt lat="47.038" lon="9.01024">
        <ele>825</ele>
        <time>2021-08-02T09:25:26.403Z</time>
      </trkpt>
      <trkpt lat="47.03799" lon="9.01023">
        <ele>825</ele>
        <time>2021-08-02T09:25:27.403Z</time>
      </trkpt>
      <trkpt lat="47.03799" lon="9.01023">
        <ele>825</ele>
        <time>2021-08-02T09:25:28.403Z</time>
      </trkpt>
      <trkpt lat="47.03798" lon="9.01023">
        <ele>825</ele>
        <time>2021-08-02T09:25:29.402Z</time>
      </trkpt>
      <trkpt lat="47.03798" lon="9.01022">
        <ele>826</ele>
        <time>2021-08-02T09:25:30.403Z</time>
      </trkpt>
      <trkpt lat="47.03798" lon="9.01022">
        <ele>826</ele>
        <time>2021-08-02T09:25:31.403Z</time>
      </trkpt>
      <trkpt lat="47.03798" lon="9.01021">
        <ele>826</ele>
        <time>2021-08-02T09:25:32.403Z</time>
      </trkpt>
      <trkpt lat="47.03797" lon="9.0102">
        <ele>826</ele>
        <time>2021-08-02T09:25:33.403Z</time>
      </trkpt>
      <trkpt lat="47.03796" lon="9.01019">
        <ele>826</ele>
        <time>2021-08-02T09:25:34.402Z</time>
      </trkpt>
      <trkpt lat="47.03795" lon="9.01018">
        <ele>826</ele>
        <time>2021-08-02T09:25:35.402Z</time>
      </trkpt>
      <trkpt lat="47.03795" lon="9.01018">
        <ele>826</ele>
        <time>2021-08-02T09:25:36.402Z</time>
      </trkpt>
      <trkpt lat="47.03795" lon="9.01016">
        <ele>826</ele>
        <time>2021-08-02T09:25:37.402Z</time>
      </trkpt>
      <trkpt lat="47.03795" lon="9.01015">
        <ele>826</ele>
        <time>2021-08-02T09:25:38.402Z</time>
      </trkpt>
      <trkpt lat="47.03795" lon="9.01015">
        <ele>826</ele>
        <time>2021-08-02T09:25:39.402Z</time>
      </trkpt>
      <trkpt lat="47.03794" lon="9.01014">
        <ele>826</ele>
        <time>2021-08-02T09:25:40.403Z</time>
      </trkpt>
      <trkpt lat="47.03793" lon="9.01013">
        <ele>825</ele>
        <time>2021-08-02T09:25:41.403Z</time>
      </trkpt>
      <trkpt lat="47.03792" lon="9.01012">
        <ele>825</ele>
        <time>2021-08-02T09:25:42.402Z</time>
      </trkpt>
      <trkpt lat="47.03792" lon="9.0101">
        <ele>824</ele>
        <time>2021-08-02T09:25:43.402Z</time>
      </trkpt>
      <trkpt lat="47.03791" lon="9.01008">
        <ele>824</ele>
        <time>2021-08-02T09:25:44.402Z</time>
      </trkpt>
      <trkpt lat="47.0379" lon="9.01007">
        <ele>824</ele>
        <time>2021-08-02T09:25:45.402Z</time>
      </trkpt>
      <trkpt lat="47.03788" lon="9.01006">
        <ele>824</ele>
        <time>2021-08-02T09:25:46.403Z</time>
      </trkpt>
      <trkpt lat="47.03787" lon="9.01006">
        <ele>825</ele>
        <time>2021-08-02T09:25:47.402Z</time>
      </trkpt>
      <trkpt lat="47.03786" lon="9.01006">
        <ele>825</ele>
        <time>2021-08-02T09:25:48.403Z</time>
      </trkpt>
      <trkpt lat="47.03786" lon="9.01007">
        <ele>825</ele>
        <time>2021-08-02T09:25:49.402Z</time>
      </trkpt>
      <trkpt lat="47.03785" lon="9.01007">
        <ele>826</ele>
        <time>2021-08-02T09:25:50.402Z</time>
      </trkpt>
      <trkpt lat="47.03783" lon="9.01007">
        <ele>826</ele>
        <time>2021-08-02T09:25:51.403Z</time>
      </trkpt>
      <trkpt lat="47.03782" lon="9.01007">
        <ele>826</ele>
        <time>2021-08-02T09:25:52.403Z</time>
      </trkpt>
      <trkpt lat="47.03781" lon="9.01006">
        <ele>826</ele>
        <time>2021-08-02T09:25:53.403Z</time>
      </trkpt>
      <trkpt lat="47.0378" lon="9.01005">
        <ele>826</ele>
        <time>2021-08-02T09:25:54.403Z</time>
      </trkpt>
      <trkpt lat="47.03779" lon="9.01004">
        <ele>827</ele>
        <time>2021-08-02T09:25:55.403Z</time>
      </trkpt>
      <trkpt lat="47.03777" lon="9.01004">
        <ele>827</ele>
        <time>2021-08-02T09:25:56.402Z</time>
      </trkpt>
      <trkpt lat="47.03776" lon="9.01005">
        <ele>827</ele>
        <time>2021-08-02T09:25:57.402Z</time>
      </trkpt>
      <trkpt lat="47.03775" lon="9.01005">
        <ele>827</ele>
        <time>2021-08-02T09:25:58.403Z</time>
      </trkpt>
      <trkpt lat="47.03774" lon="9.01006">
        <ele>827</ele>
        <time>2021-08-02T09:25:59.403Z</time>
      </trkpt>
      <trkpt lat="47.03773" lon="9.01006">
        <ele>827</ele>
        <time>2021-08-02T09:26:00.403Z</time>
      </trkpt>
      <trkpt lat="47.03772" lon="9.01006">
        <ele>827</ele>
        <time>2021-08-02T09:26:01.403Z</time>
      </trkpt>
      <trkpt lat="47.0377" lon="9.01006">
        <ele>827</ele>
        <time>2021-08-02T09:26:02.403Z</time>
      </trkpt>
      <trkpt lat="47.03769" lon="9.01006">
        <ele>828</ele>
        <time>2021-08-02T09:26:03.403Z</time>
      </trkpt>
      <trkpt lat="47.03768" lon="9.01007">
        <ele>829</ele>
        <time>2021-08-02T09:26:04.403Z</time>
      </trkpt>
      <trkpt lat="47.03767" lon="9.01006">
        <ele>830</ele>
        <time>2021-08-02T09:26:05.402Z</time>
      </trkpt>
      <trkpt lat="47.03766" lon="9.01004">
        <ele>830</ele>
        <time>2021-08-02T09:26:06.402Z</time>
      </trkpt>
      <trkpt lat="47.03765" lon="9.01003">
        <ele>831</ele>
        <time>2021-08-02T09:26:07.403Z</time>
      </trkpt>
      <trkpt lat="47.03764" lon="9.01003">
        <ele>833</ele>
        <time>2021-08-02T09:26:08.403Z</time>
      </trkpt>
      <trkpt lat="47.03763" lon="9.01002">
        <ele>834</ele>
        <time>2021-08-02T09:26:09.403Z</time>
      </trkpt>
      <trkpt lat="47.03762" lon="9.01003">
        <ele>835</ele>
        <time>2021-08-02T09:26:10.403Z</time>
      </trkpt>
      <trkpt lat="47.03761" lon="9.01003">
        <ele>837</ele>
        <time>2021-08-02T09:26:11.402Z</time>
      </trkpt>
      <trkpt lat="47.0376" lon="9.01003">
        <ele>838</ele>
        <time>2021-08-02T09:26:12.402Z</time>
      </trkpt>
      <trkpt lat="47.0376" lon="9.01002">
        <ele>839</ele>
        <time>2021-08-02T09:26:13.402Z</time>
      </trkpt>
      <trkpt lat="47.03758" lon="9.01001">
        <ele>841</ele>
        <time>2021-08-02T09:26:14.402Z</time>
      </trkpt>
      <trkpt lat="47.03758" lon="9.01001">
        <ele>842</ele>
        <time>2021-08-02T09:26:15.403Z</time>
      </trkpt>
      <trkpt lat="47.03757" lon="9.01">
        <ele>842</ele>
        <time>2021-08-02T09:26:16.403Z</time>
      </trkpt>
      <trkpt lat="47.03756" lon="9.00999">
        <ele>843</ele>
        <time>2021-08-02T09:26:17.403Z</time>
      </trkpt>
      <trkpt lat="47.03756" lon="9.00998">
        <ele>844</ele>
        <time>2021-08-02T09:26:18.402Z</time>
      </trkpt>
      <trkpt lat="47.03756" lon="9.00998">
        <ele>844</ele>
        <time>2021-08-02T09:26:19.403Z</time>
      </trkpt>
      <trkpt lat="47.03754" lon="9.00993">
        <ele>847</ele>
        <time>2021-08-02T09:26:20.403Z</time>
      </trkpt>
      <trkpt lat="47.03753" lon="9.00991">
        <ele>847</ele>
        <time>2021-08-02T09:26:21.403Z</time>
      </trkpt>
      <trkpt lat="47.03753" lon="9.0099">
        <ele>848</ele>
        <time>2021-08-02T09:26:22.402Z</time>
      </trkpt>
      <trkpt lat="47.03752" lon="9.00988">
        <ele>848</ele>
        <time>2021-08-02T09:26:23.402Z</time>
      </trkpt>
      <trkpt lat="47.03751" lon="9.00987">
        <ele>847</ele>
        <time>2021-08-02T09:26:24.402Z</time>
      </trkpt>
      <trkpt lat="47.03751" lon="9.00987">
        <ele>847</ele>
        <time>2021-08-02T09:26:25.403Z</time>
      </trkpt>
      <trkpt lat="47.03751" lon="9.00987">
        <ele>846</ele>
        <time>2021-08-02T09:26:26.403Z</time>
      </trkpt>
      <trkpt lat="47.0375" lon="9.00986">
        <ele>845</ele>
        <time>2021-08-02T09:26:27.403Z</time>
      </trkpt>
      <trkpt lat="47.0375" lon="9.00985">
        <ele>844</ele>
        <time>2021-08-02T09:26:28.403Z</time>
      </trkpt>
      <trkpt lat="47.0375" lon="9.00984">
        <ele>843</ele>
        <time>2021-08-02T09:26:29.402Z</time>
      </trkpt>
      <trkpt lat="47.0375" lon="9.00983">
        <ele>843</ele>
        <time>2021-08-02T09:26:30.403Z</time>
      </trkpt>
      <trkpt lat="47.03749" lon="9.00982">
        <ele>842</ele>
        <time>2021-08-02T09:26:31.402Z</time>
      </trkpt>
      <trkpt lat="47.03748" lon="9.00981">
        <ele>842</ele>
        <time>2021-08-02T09:26:32.403Z</time>
      </trkpt>
      <trkpt lat="47.03748" lon="9.0098">
        <ele>841</ele>
        <time>2021-08-02T09:26:33.403Z</time>
      </trkpt>
      <trkpt lat="47.03748" lon="9.00979">
        <ele>841</ele>
        <time>2021-08-02T09:26:34.402Z</time>
      </trkpt>
      <trkpt lat="47.03747" lon="9.00978">
        <ele>841</ele>
        <time>2021-08-02T09:26:35.402Z</time>
      </trkpt>
      <trkpt lat="47.03747" lon="9.00977">
        <ele>841</ele>
        <time>2021-08-02T09:26:36.403Z</time>
      </trkpt>
      <trkpt lat="47.03746" lon="9.00975">
        <ele>840</ele>
        <time>2021-08-02T09:26:37.402Z</time>
      </trkpt>
      <trkpt lat="47.03745" lon="9.00974">
        <ele>839</ele>
        <time>2021-08-02T09:26:38.403Z</time>
      </trkpt>
      <trkpt lat="47.03745" lon="9.00973">
        <ele>839</ele>
        <time>2021-08-02T09:26:39.403Z</time>
      </trkpt>
      <trkpt lat="47.03744" lon="9.00972">
        <ele>838</ele>
        <time>2021-08-02T09:26:40.403Z</time>
      </trkpt>
      <trkpt lat="47.03742" lon="9.00972">
        <ele>838</ele>
        <time>2021-08-02T09:26:41.403Z</time>
      </trkpt>
      <trkpt lat="47.03741" lon="9.00971">
        <ele>837</ele>
        <time>2021-08-02T09:26:42.402Z</time>
      </trkpt>
      <trkpt lat="47.0374" lon="9.00971">
        <ele>837</ele>
        <time>2021-08-02T09:26:43.403Z</time>
      </trkpt>
      <trkpt lat="47.0374" lon="9.00972">
        <ele>837</ele>
        <time>2021-08-02T09:26:44.402Z</time>
      </trkpt>
      <trkpt lat="47.03741" lon="9.00974">
        <ele>836</ele>
        <time>2021-08-02T09:26:45.402Z</time>
      </trkpt>
      <trkpt lat="47.0374" lon="9.00974">
        <ele>836</ele>
        <time>2021-08-02T09:26:46.403Z</time>
      </trkpt>
      <trkpt lat="47.0374" lon="9.00974">
        <ele>836</ele>
        <time>2021-08-02T09:26:47.402Z</time>
      </trkpt>
      <trkpt lat="47.03739" lon="9.00974">
        <ele>835</ele>
        <time>2021-08-02T09:26:48.403Z</time>
      </trkpt>
      <trkpt lat="47.03738" lon="9.00974">
        <ele>835</ele>
        <time>2021-08-02T09:26:49.403Z</time>
      </trkpt>
      <trkpt lat="47.03737" lon="9.00973">
        <ele>835</ele>
        <time>2021-08-02T09:26:50.403Z</time>
      </trkpt>
      <trkpt lat="47.03737" lon="9.00972">
        <ele>834</ele>
        <time>2021-08-02T09:26:51.403Z</time>
      </trkpt>
      <trkpt lat="47.03737" lon="9.00972">
        <ele>834</ele>
        <time>2021-08-02T09:26:52.402Z</time>
      </trkpt>
      <trkpt lat="47.03736" lon="9.00971">
        <ele>833</ele>
        <time>2021-08-02T09:26:53.403Z</time>
      </trkpt>
      <trkpt lat="47.03736" lon="9.0097">
        <ele>832</ele>
        <time>2021-08-02T09:26:54.402Z</time>
      </trkpt>
      <trkpt lat="47.03735" lon="9.00969">
        <ele>832</ele>
        <time>2021-08-02T09:26:55.403Z</time>
      </trkpt>
      <trkpt lat="47.03734" lon="9.00968">
        <ele>831</ele>
        <time>2021-08-02T09:26:56.403Z</time>
      </trkpt>
      <trkpt lat="47.03733" lon="9.00966">
        <ele>830</ele>
        <time>2021-08-02T09:26:57.402Z</time>
      </trkpt>
      <trkpt lat="47.03733" lon="9.00964">
        <ele>830</ele>
        <time>2021-08-02T09:26:58.403Z</time>
      </trkpt>
      <trkpt lat="47.03732" lon="9.00964">
        <ele>830</ele>
        <time>2021-08-02T09:26:59.402Z</time>
      </trkpt>
      <trkpt lat="47.03732" lon="9.00964">
        <ele>830</ele>
        <time>2021-08-02T09:27:00.402Z</time>
      </trkpt>
      <trkpt lat="47.03731" lon="9.00963">
        <ele>830</ele>
        <time>2021-08-02T09:27:01.403Z</time>
      </trkpt>
      <trkpt lat="47.03731" lon="9.00962">
        <ele>829</ele>
        <time>2021-08-02T09:27:02.402Z</time>
      </trkpt>
      <trkpt lat="47.0373" lon="9.00961">
        <ele>828</ele>
        <time>2021-08-02T09:27:03.403Z</time>
      </trkpt>
      <trkpt lat="47.0373" lon="9.0096">
        <ele>827</ele>
        <time>2021-08-02T09:27:04.403Z</time>
      </trkpt>
      <trkpt lat="47.03729" lon="9.00959">
        <ele>825</ele>
        <time>2021-08-02T09:27:05.402Z</time>
      </trkpt>
      <trkpt lat="47.03729" lon="9.00957">
        <ele>824</ele>
        <time>2021-08-02T09:27:06.402Z</time>
      </trkpt>
      <trkpt lat="47.03728" lon="9.00956">
        <ele>823</ele>
        <time>2021-08-02T09:27:07.402Z</time>
      </trkpt>
      <trkpt lat="47.03727" lon="9.00955">
        <ele>822</ele>
        <time>2021-08-02T09:27:08.403Z</time>
      </trkpt>
      <trkpt lat="47.03726" lon="9.00955">
        <ele>821</ele>
        <time>2021-08-02T09:27:09.403Z</time>
      </trkpt>
      <trkpt lat="47.03725" lon="9.00954">
        <ele>821</ele>
        <time>2021-08-02T09:27:10.403Z</time>
      </trkpt>
      <trkpt lat="47.03725" lon="9.00953">
        <ele>821</ele>
        <time>2021-08-02T09:27:11.403Z</time>
      </trkpt>
      <trkpt lat="47.03724" lon="9.00953">
        <ele>821</ele>
        <time>2021-08-02T09:27:12.402Z</time>
      </trkpt>
      <trkpt lat="47.03724" lon="9.00952">
        <ele>821</ele>
        <time>2021-08-02T09:27:13.402Z</time>
      </trkpt>
      <trkpt lat="47.03723" lon="9.0095">
        <ele>822</ele>
        <time>2021-08-02T09:27:14.403Z</time>
      </trkpt>
      <trkpt lat="47.03723" lon="9.00949">
        <ele>823</ele>
        <time>2021-08-02T09:27:15.403Z</time>
      </trkpt>
      <trkpt lat="47.03722" lon="9.00948">
        <ele>824</ele>
        <time>2021-08-02T09:27:16.402Z</time>
      </trkpt>
      <trkpt lat="47.03721" lon="9.00947">
        <ele>825</ele>
        <time>2021-08-02T09:27:17.402Z</time>
      </trkpt>
      <trkpt lat="47.0372" lon="9.00946">
        <ele>826</ele>
        <time>2021-08-02T09:27:18.403Z</time>
      </trkpt>
      <trkpt lat="47.03719" lon="9.00945">
        <ele>826</ele>
        <time>2021-08-02T09:27:19.402Z</time>
      </trkpt>
      <trkpt lat="47.03717" lon="9.00944">
        <ele>827</ele>
        <time>2021-08-02T09:27:20.403Z</time>
      </trkpt>
      <trkpt lat="47.03716" lon="9.00943">
        <ele>828</ele>
        <time>2021-08-02T09:27:21.403Z</time>
      </trkpt>
      <trkpt lat="47.03716" lon="9.00941">
        <ele>829</ele>
        <time>2021-08-02T09:27:22.403Z</time>
      </trkpt>
      <trkpt lat="47.03715" lon="9.0094">
        <ele>830</ele>
        <time>2021-08-02T09:27:23.403Z</time>
      </trkpt>
      <trkpt lat="47.03715" lon="9.00939">
        <ele>830</ele>
        <time>2021-08-02T09:27:24.403Z</time>
      </trkpt>
      <trkpt lat="47.03714" lon="9.00938">
        <ele>831</ele>
        <time>2021-08-02T09:27:25.403Z</time>
      </trkpt>
      <trkpt lat="47.03714" lon="9.00937">
        <ele>832</ele>
        <time>2021-08-02T09:27:26.403Z</time>
      </trkpt>
      <trkpt lat="47.03714" lon="9.00936">
        <ele>832</ele>
        <time>2021-08-02T09:27:27.403Z</time>
      </trkpt>
      <trkpt lat="47.03713" lon="9.00935">
        <ele>833</ele>
        <time>2021-08-02T09:27:28.403Z</time>
      </trkpt>
      <trkpt lat="47.03712" lon="9.00934">
        <ele>833</ele>
        <time>2021-08-02T09:27:29.403Z</time>
      </trkpt>
      <trkpt lat="47.03712" lon="9.00933">
        <ele>834</ele>
        <time>2021-08-02T09:27:30.403Z</time>
      </trkpt>
      <trkpt lat="47.03711" lon="9.00932">
        <ele>834</ele>
        <time>2021-08-02T09:27:31.402Z</time>
      </trkpt>
      <trkpt lat="47.0371" lon="9.00931">
        <ele>834</ele>
        <time>2021-08-02T09:27:32.402Z</time>
      </trkpt>
      <trkpt lat="47.03709" lon="9.0093">
        <ele>834</ele>
        <time>2021-08-02T09:27:33.403Z</time>
      </trkpt>
      <trkpt lat="47.03709" lon="9.0093">
        <ele>835</ele>
        <time>2021-08-02T09:27:34.403Z</time>
      </trkpt>
      <trkpt lat="47.03708" lon="9.00929">
        <ele>835</ele>
        <time>2021-08-02T09:27:35.402Z</time>
      </trkpt>
      <trkpt lat="47.03708" lon="9.00928">
        <ele>834</ele>
        <time>2021-08-02T09:27:36.402Z</time>
      </trkpt>
      <trkpt lat="47.03707" lon="9.00927">
        <ele>834</ele>
        <time>2021-08-02T09:27:37.402Z</time>
      </trkpt>
      <trkpt lat="47.03706" lon="9.00926">
        <ele>834</ele>
        <time>2021-08-02T09:27:38.402Z</time>
      </trkpt>
      <trkpt lat="47.03706" lon="9.00925">
        <ele>835</ele>
        <time>2021-08-02T09:27:39.403Z</time>
      </trkpt>
      <trkpt lat="47.03705" lon="9.00924">
        <ele>835</ele>
        <time>2021-08-02T09:27:40.403Z</time>
      </trkpt>
      <trkpt lat="47.03705" lon="9.00923">
        <ele>835</ele>
        <time>2021-08-02T09:27:41.403Z</time>
      </trkpt>
      <trkpt lat="47.03704" lon="9.00922">
        <ele>835</ele>
        <time>2021-08-02T09:27:42.402Z</time>
      </trkpt>
      <trkpt lat="47.03703" lon="9.00921">
        <ele>835</ele>
        <time>2021-08-02T09:27:43.403Z</time>
      </trkpt>
      <trkpt lat="47.03703" lon="9.00921">
        <ele>835</ele>
        <time>2021-08-02T09:27:44.403Z</time>
      </trkpt>
      <trkpt lat="47.03702" lon="9.0092">
        <ele>836</ele>
        <time>2021-08-02T09:27:45.403Z</time>
      </trkpt>
      <trkpt lat="47.03701" lon="9.00919">
        <ele>836</ele>
        <time>2021-08-02T09:27:46.403Z</time>
      </trkpt>
      <trkpt lat="47.037" lon="9.00918">
        <ele>835</ele>
        <time>2021-08-02T09:27:47.402Z</time>
      </trkpt>
      <trkpt lat="47.037" lon="9.00917">
        <ele>835</ele>
        <time>2021-08-02T09:27:48.403Z</time>
      </trkpt>
      <trkpt lat="47.03698" lon="9.00917">
        <ele>835</ele>
        <time>2021-08-02T09:27:49.402Z</time>
      </trkpt>
      <trkpt lat="47.03698" lon="9.00916">
        <ele>834</ele>
        <time>2021-08-02T09:27:50.403Z</time>
      </trkpt>
      <trkpt lat="47.03698" lon="9.00915">
        <ele>834</ele>
        <time>2021-08-02T09:27:51.403Z</time>
      </trkpt>
      <trkpt lat="47.03697" lon="9.00914">
        <ele>833</ele>
        <time>2021-08-02T09:27:52.403Z</time>
      </trkpt>
      <trkpt lat="47.03696" lon="9.00914">
        <ele>833</ele>
        <time>2021-08-02T09:27:53.402Z</time>
      </trkpt>
      <trkpt lat="47.03695" lon="9.00912">
        <ele>833</ele>
        <time>2021-08-02T09:27:54.403Z</time>
      </trkpt>
      <trkpt lat="47.03695" lon="9.00911">
        <ele>833</ele>
        <time>2021-08-02T09:27:55.402Z</time>
      </trkpt>
      <trkpt lat="47.03694" lon="9.0091">
        <ele>833</ele>
        <time>2021-08-02T09:27:56.403Z</time>
      </trkpt>
      <trkpt lat="47.03693" lon="9.00909">
        <ele>833</ele>
        <time>2021-08-02T09:27:57.403Z</time>
      </trkpt>
      <trkpt lat="47.03692" lon="9.00907">
        <ele>833</ele>
        <time>2021-08-02T09:27:58.403Z</time>
      </trkpt>
      <trkpt lat="47.03691" lon="9.00906">
        <ele>833</ele>
        <time>2021-08-02T09:27:59.403Z</time>
      </trkpt>
      <trkpt lat="47.0369" lon="9.00904">
        <ele>833</ele>
        <time>2021-08-02T09:28:00.402Z</time>
      </trkpt>
      <trkpt lat="47.0369" lon="9.00902">
        <ele>834</ele>
        <time>2021-08-02T09:28:01.402Z</time>
      </trkpt>
      <trkpt lat="47.03688" lon="9.009">
        <ele>834</ele>
        <time>2021-08-02T09:28:02.402Z</time>
      </trkpt>
      <trkpt lat="47.03687" lon="9.00899">
        <ele>834</ele>
        <time>2021-08-02T09:28:03.402Z</time>
      </trkpt>
      <trkpt lat="47.03687" lon="9.00898">
        <ele>834</ele>
        <time>2021-08-02T09:28:04.403Z</time>
      </trkpt>
      <trkpt lat="47.03686" lon="9.00897">
        <ele>834</ele>
        <time>2021-08-02T09:28:05.403Z</time>
      </trkpt>
      <trkpt lat="47.03685" lon="9.00896">
        <ele>834</ele>
        <time>2021-08-02T09:28:06.402Z</time>
      </trkpt>
      <trkpt lat="47.03685" lon="9.00895">
        <ele>834</ele>
        <time>2021-08-02T09:28:07.402Z</time>
      </trkpt>
      <trkpt lat="47.03685" lon="9.00894">
        <ele>834</ele>
        <time>2021-08-02T09:28:08.403Z</time>
      </trkpt>
      <trkpt lat="47.03685" lon="9.00892">
        <ele>833</ele>
        <time>2021-08-02T09:28:09.403Z</time>
      </trkpt>
      <trkpt lat="47.03686" lon="9.0089">
        <ele>832</ele>
        <time>2021-08-02T09:28:10.403Z</time>
      </trkpt>
      <trkpt lat="47.03685" lon="9.00889">
        <ele>831</ele>
        <time>2021-08-02T09:28:11.402Z</time>
      </trkpt>
      <trkpt lat="47.03685" lon="9.00888">
        <ele>831</ele>
        <time>2021-08-02T09:28:12.403Z</time>
      </trkpt>
      <trkpt lat="47.03684" lon="9.00887">
        <ele>831</ele>
        <time>2021-08-02T09:28:13.403Z</time>
      </trkpt>
      <trkpt lat="47.03683" lon="9.00887">
        <ele>831</ele>
        <time>2021-08-02T09:28:14.403Z</time>
      </trkpt>
      <trkpt lat="47.03683" lon="9.00886">
        <ele>830</ele>
        <time>2021-08-02T09:28:15.403Z</time>
      </trkpt>
      <trkpt lat="47.03682" lon="9.00885">
        <ele>830</ele>
        <time>2021-08-02T09:28:16.402Z</time>
      </trkpt>
      <trkpt lat="47.03682" lon="9.00884">
        <ele>830</ele>
        <time>2021-08-02T09:28:17.402Z</time>
      </trkpt>
      <trkpt lat="47.0368" lon="9.00884">
        <ele>830</ele>
        <time>2021-08-02T09:28:18.402Z</time>
      </trkpt>
      <trkpt lat="47.03679" lon="9.00882">
        <ele>831</ele>
        <time>2021-08-02T09:28:19.403Z</time>
      </trkpt>
      <trkpt lat="47.03679" lon="9.00881">
        <ele>831</ele>
        <time>2021-08-02T09:28:20.403Z</time>
      </trkpt>
      <trkpt lat="47.03678" lon="9.00878">
        <ele>832</ele>
        <time>2021-08-02T09:28:21.403Z</time>
      </trkpt>
      <trkpt lat="47.03678" lon="9.00877">
        <ele>832</ele>
        <time>2021-08-02T09:28:22.403Z</time>
      </trkpt>
      <trkpt lat="47.03677" lon="9.00875">
        <ele>833</ele>
        <time>2021-08-02T09:28:23.403Z</time>
      </trkpt>
      <trkpt lat="47.03677" lon="9.00874">
        <ele>833</ele>
        <time>2021-08-02T09:28:24.403Z</time>
      </trkpt>
      <trkpt lat="47.03676" lon="9.00873">
        <ele>834</ele>
        <time>2021-08-02T09:28:25.403Z</time>
      </trkpt>
      <trkpt lat="47.03674" lon="9.00872">
        <ele>834</ele>
        <time>2021-08-02T09:28:26.403Z</time>
      </trkpt>
      <trkpt lat="47.03673" lon="9.00871">
        <ele>835</ele>
        <time>2021-08-02T09:28:27.403Z</time>
      </trkpt>
      <trkpt lat="47.03672" lon="9.00869">
        <ele>836</ele>
        <time>2021-08-02T09:28:28.403Z</time>
      </trkpt>
      <trkpt lat="47.03671" lon="9.00868">
        <ele>836</ele>
        <time>2021-08-02T09:28:29.403Z</time>
      </trkpt>
      <trkpt lat="47.03671" lon="9.00866">
        <ele>837</ele>
        <time>2021-08-02T09:28:30.403Z</time>
      </trkpt>
      <trkpt lat="47.0367" lon="9.00865">
        <ele>837</ele>
        <time>2021-08-02T09:28:31.402Z</time>
      </trkpt>
      <trkpt lat="47.0367" lon="9.00864">
        <ele>837</ele>
        <time>2021-08-02T09:28:32.403Z</time>
      </trkpt>
      <trkpt lat="47.03669" lon="9.00863">
        <ele>837</ele>
        <time>2021-08-02T09:28:33.403Z</time>
      </trkpt>
      <trkpt lat="47.03669" lon="9.00861">
        <ele>837</ele>
        <time>2021-08-02T09:28:34.403Z</time>
      </trkpt>
      <trkpt lat="47.03668" lon="9.0086">
        <ele>837</ele>
        <time>2021-08-02T09:28:35.403Z</time>
      </trkpt>
      <trkpt lat="47.03668" lon="9.00858">
        <ele>836</ele>
        <time>2021-08-02T09:28:36.403Z</time>
      </trkpt>
      <trkpt lat="47.03667" lon="9.00857">
        <ele>836</ele>
        <time>2021-08-02T09:28:37.402Z</time>
      </trkpt>
      <trkpt lat="47.03666" lon="9.00856">
        <ele>836</ele>
        <time>2021-08-02T09:28:38.402Z</time>
      </trkpt>
      <trkpt lat="47.03666" lon="9.00854">
        <ele>835</ele>
        <time>2021-08-02T09:28:39.403Z</time>
      </trkpt>
      <trkpt lat="47.03666" lon="9.00853">
        <ele>835</ele>
        <time>2021-08-02T09:28:40.403Z</time>
      </trkpt>
      <trkpt lat="47.03665" lon="9.00852">
        <ele>835</ele>
        <time>2021-08-02T09:28:41.403Z</time>
      </trkpt>
      <trkpt lat="47.03665" lon="9.00851">
        <ele>835</ele>
        <time>2021-08-02T09:28:42.402Z</time>
      </trkpt>
      <trkpt lat="47.03665" lon="9.0085">
        <ele>834</ele>
        <time>2021-08-02T09:28:43.403Z</time>
      </trkpt>
      <trkpt lat="47.03665" lon="9.00849">
        <ele>834</ele>
        <time>2021-08-02T09:28:44.403Z</time>
      </trkpt>
      <trkpt lat="47.03664" lon="9.00848">
        <ele>834</ele>
        <time>2021-08-02T09:28:45.402Z</time>
      </trkpt>
      <trkpt lat="47.03664" lon="9.00847">
        <ele>833</ele>
        <time>2021-08-02T09:28:46.403Z</time>
      </trkpt>
      <trkpt lat="47.03663" lon="9.00845">
        <ele>833</ele>
        <time>2021-08-02T09:28:47.403Z</time>
      </trkpt>
      <trkpt lat="47.03663" lon="9.00844">
        <ele>832</ele>
        <time>2021-08-02T09:28:48.402Z</time>
      </trkpt>
      <trkpt lat="47.03664" lon="9.00842">
        <ele>832</ele>
        <time>2021-08-02T09:28:49.402Z</time>
      </trkpt>
      <trkpt lat="47.03664" lon="9.0084">
        <ele>832</ele>
        <time>2021-08-02T09:28:50.402Z</time>
      </trkpt>
      <trkpt lat="47.03664" lon="9.00839">
        <ele>831</ele>
        <time>2021-08-02T09:28:51.403Z</time>
      </trkpt>
      <trkpt lat="47.03664" lon="9.00837">
        <ele>831</ele>
        <time>2021-08-02T09:28:52.402Z</time>
      </trkpt>
      <trkpt lat="47.03663" lon="9.00837">
        <ele>831</ele>
        <time>2021-08-02T09:28:53.403Z</time>
      </trkpt>
      <trkpt lat="47.03663" lon="9.00835">
        <ele>831</ele>
        <time>2021-08-02T09:28:54.403Z</time>
      </trkpt>
      <trkpt lat="47.03662" lon="9.00834">
        <ele>830</ele>
        <time>2021-08-02T09:28:55.402Z</time>
      </trkpt>
      <trkpt lat="47.03662" lon="9.00832">
        <ele>830</ele>
        <time>2021-08-02T09:28:56.403Z</time>
      </trkpt>
      <trkpt lat="47.03661" lon="9.0083">
        <ele>830</ele>
        <time>2021-08-02T09:28:57.402Z</time>
      </trkpt>
      <trkpt lat="47.0366" lon="9.00828">
        <ele>830</ele>
        <time>2021-08-02T09:28:58.403Z</time>
      </trkpt>
      <trkpt lat="47.0366" lon="9.00827">
        <ele>830</ele>
        <time>2021-08-02T09:28:59.402Z</time>
      </trkpt>
      <trkpt lat="47.03659" lon="9.00826">
        <ele>831</ele>
        <time>2021-08-02T09:29:00.403Z</time>
      </trkpt>
      <trkpt lat="47.03659" lon="9.00825">
        <ele>831</ele>
        <time>2021-08-02T09:29:01.403Z</time>
      </trkpt>
      <trkpt lat="47.03658" lon="9.00824">
        <ele>831</ele>
        <time>2021-08-02T09:29:02.403Z</time>
      </trkpt>
      <trkpt lat="47.03658" lon="9.00824">
        <ele>832</ele>
        <time>2021-08-02T09:29:03.402Z</time>
      </trkpt>
      <trkpt lat="47.03664" lon="9.00822">
        <ele>828</ele>
        <time>2021-08-02T09:29:04.403Z</time>
      </trkpt>
      <trkpt lat="47.03665" lon="9.00822">
        <ele>827</ele>
        <time>2021-08-02T09:29:05.403Z</time>
      </trkpt>
      <trkpt lat="47.03665" lon="9.00822">
        <ele>827</ele>
        <time>2021-08-02T09:29:06.402Z</time>
      </trkpt>
      <trkpt lat="47.03665" lon="9.00822">
        <ele>827</ele>
        <time>2021-08-02T09:29:07.403Z</time>
      </trkpt>
      <trkpt lat="47.03663" lon="9.00826">
        <ele>828</ele>
        <time>2021-08-02T09:29:08.403Z</time>
      </trkpt>
      <trkpt lat="47.03664" lon="9.00825">
        <ele>829</ele>
        <time>2021-08-02T09:29:09.403Z</time>
      </trkpt>
      <trkpt lat="47.03662" lon="9.00828">
        <ele>832</ele>
        <time>2021-08-02T09:29:10.403Z</time>
      </trkpt>
      <trkpt lat="47.03661" lon="9.00828">
        <ele>832</ele>
        <time>2021-08-02T09:29:11.403Z</time>
      </trkpt>
      <trkpt lat="47.0366" lon="9.00826">
        <ele>833</ele>
        <time>2021-08-02T09:29:12.403Z</time>
      </trkpt>
      <trkpt lat="47.03659" lon="9.00825">
        <ele>834</ele>
        <time>2021-08-02T09:29:13.403Z</time>
      </trkpt>
      <trkpt lat="47.03658" lon="9.00825">
        <ele>834</ele>
        <time>2021-08-02T09:29:14.402Z</time>
      </trkpt>
      <trkpt lat="47.03657" lon="9.00825">
        <ele>834</ele>
        <time>2021-08-02T09:29:15.402Z</time>
      </trkpt>
      <trkpt lat="47.03656" lon="9.00825">
        <ele>835</ele>
        <time>2021-08-02T09:29:16.403Z</time>
      </trkpt>
      <trkpt lat="47.03655" lon="9.00825">
        <ele>834</ele>
        <time>2021-08-02T09:29:17.403Z</time>
      </trkpt>
      <trkpt lat="47.03654" lon="9.00825">
        <ele>834</ele>
        <time>2021-08-02T09:29:18.403Z</time>
      </trkpt>
      <trkpt lat="47.03653" lon="9.00825">
        <ele>834</ele>
        <time>2021-08-02T09:29:19.402Z</time>
      </trkpt>
      <trkpt lat="47.03652" lon="9.00825">
        <ele>833</ele>
        <time>2021-08-02T09:29:20.403Z</time>
      </trkpt>
      <trkpt lat="47.03651" lon="9.00825">
        <ele>833</ele>
        <time>2021-08-02T09:29:21.403Z</time>
      </trkpt>
      <trkpt lat="47.0365" lon="9.00824">
        <ele>833</ele>
        <time>2021-08-02T09:29:22.403Z</time>
      </trkpt>
      <trkpt lat="47.03648" lon="9.00824">
        <ele>833</ele>
        <time>2021-08-02T09:29:23.403Z</time>
      </trkpt>
      <trkpt lat="47.03646" lon="9.00824">
        <ele>833</ele>
        <time>2021-08-02T09:29:24.403Z</time>
      </trkpt>
      <trkpt lat="47.03645" lon="9.00822">
        <ele>833</ele>
        <time>2021-08-02T09:29:25.403Z</time>
      </trkpt>
      <trkpt lat="47.03644" lon="9.00822">
        <ele>833</ele>
        <time>2021-08-02T09:29:26.403Z</time>
      </trkpt>
      <trkpt lat="47.03643" lon="9.00821">
        <ele>833</ele>
        <time>2021-08-02T09:29:27.403Z</time>
      </trkpt>
      <trkpt lat="47.03642" lon="9.00821">
        <ele>833</ele>
        <time>2021-08-02T09:29:28.403Z</time>
      </trkpt>
      <trkpt lat="47.0364" lon="9.0082">
        <ele>833</ele>
        <time>2021-08-02T09:29:29.402Z</time>
      </trkpt>
      <trkpt lat="47.0364" lon="9.00819">
        <ele>833</ele>
        <time>2021-08-02T09:29:30.403Z</time>
      </trkpt>
      <trkpt lat="47.03638" lon="9.00818">
        <ele>833</ele>
        <time>2021-08-02T09:29:31.403Z</time>
      </trkpt>
      <trkpt lat="47.03636" lon="9.00819">
        <ele>833</ele>
        <time>2021-08-02T09:29:32.402Z</time>
      </trkpt>
      <trkpt lat="47.03635" lon="9.00819">
        <ele>833</ele>
        <time>2021-08-02T09:29:33.402Z</time>
      </trkpt>
      <trkpt lat="47.03633" lon="9.00819">
        <ele>833</ele>
        <time>2021-08-02T09:29:34.403Z</time>
      </trkpt>
      <trkpt lat="47.03631" lon="9.00819">
        <ele>833</ele>
        <time>2021-08-02T09:29:35.402Z</time>
      </trkpt>
      <trkpt lat="47.0363" lon="9.00818">
        <ele>832</ele>
        <time>2021-08-02T09:29:36.402Z</time>
      </trkpt>
      <trkpt lat="47.03629" lon="9.00818">
        <ele>832</ele>
        <time>2021-08-02T09:29:37.403Z</time>
      </trkpt>
      <trkpt lat="47.03629" lon="9.00817">
        <ele>833</ele>
        <time>2021-08-02T09:29:38.403Z</time>
      </trkpt>
      <trkpt lat="47.03628" lon="9.00817">
        <ele>833</ele>
        <time>2021-08-02T09:29:39.403Z</time>
      </trkpt>
      <trkpt lat="47.03628" lon="9.00816">
        <ele>834</ele>
        <time>2021-08-02T09:29:40.403Z</time>
      </trkpt>
      <trkpt lat="47.03628" lon="9.00816">
        <ele>834</ele>
        <time>2021-08-02T09:29:41.403Z</time>
      </trkpt>
      <trkpt lat="47.03627" lon="9.00816">
        <ele>835</ele>
        <time>2021-08-02T09:29:42.403Z</time>
      </trkpt>
      <trkpt lat="47.03627" lon="9.00816">
        <ele>835</ele>
        <time>2021-08-02T09:29:43.402Z</time>
      </trkpt>
      <trkpt lat="47.03627" lon="9.00823">
        <ele>835</ele>
        <time>2021-08-02T09:29:44.403Z</time>
      </trkpt>
      <trkpt lat="47.03628" lon="9.00825">
        <ele>835</ele>
        <time>2021-08-02T09:29:45.403Z</time>
      </trkpt>
      <trkpt lat="47.03627" lon="9.00826">
        <ele>835</ele>
        <time>2021-08-02T09:29:46.402Z</time>
      </trkpt>
      <trkpt lat="47.03625" lon="9.00823">
        <ele>838</ele>
        <time>2021-08-02T09:29:47.402Z</time>
      </trkpt>
      <trkpt lat="47.03624" lon="9.00823">
        <ele>838</ele>
        <time>2021-08-02T09:29:48.403Z</time>
      </trkpt>
      <trkpt lat="47.03623" lon="9.00822">
        <ele>839</ele>
        <time>2021-08-02T09:29:49.402Z</time>
      </trkpt>
      <trkpt lat="47.03622" lon="9.00822">
        <ele>839</ele>
        <time>2021-08-02T09:29:50.403Z</time>
      </trkpt>
      <trkpt lat="47.03621" lon="9.00821">
        <ele>840</ele>
        <time>2021-08-02T09:29:51.403Z</time>
      </trkpt>
      <trkpt lat="47.0362" lon="9.00821">
        <ele>840</ele>
        <time>2021-08-02T09:29:52.403Z</time>
      </trkpt>
      <trkpt lat="47.03619" lon="9.0082">
        <ele>841</ele>
        <time>2021-08-02T09:29:53.403Z</time>
      </trkpt>
      <trkpt lat="47.03618" lon="9.00819">
        <ele>841</ele>
        <time>2021-08-02T09:29:54.402Z</time>
      </trkpt>
      <trkpt lat="47.03616" lon="9.00817">
        <ele>841</ele>
        <time>2021-08-02T09:29:55.402Z</time>
      </trkpt>
      <trkpt lat="47.03615" lon="9.00816">
        <ele>841</ele>
        <time>2021-08-02T09:29:56.402Z</time>
      </trkpt>
      <trkpt lat="47.03615" lon="9.00815">
        <ele>841</ele>
        <time>2021-08-02T09:29:57.402Z</time>
      </trkpt>
      <trkpt lat="47.03614" lon="9.00815">
        <ele>842</ele>
        <time>2021-08-02T09:29:58.403Z</time>
      </trkpt>
      <trkpt lat="47.03614" lon="9.00813">
        <ele>842</ele>
        <time>2021-08-02T09:29:59.402Z</time>
      </trkpt>
      <trkpt lat="47.03613" lon="9.00811">
        <ele>842</ele>
        <time>2021-08-02T09:30:00.403Z</time>
      </trkpt>
      <trkpt lat="47.03613" lon="9.00809">
        <ele>842</ele>
        <time>2021-08-02T09:30:01.403Z</time>
      </trkpt>
      <trkpt lat="47.03612" lon="9.00808">
        <ele>843</ele>
        <time>2021-08-02T09:30:02.403Z</time>
      </trkpt>
      <trkpt lat="47.03612" lon="9.00806">
        <ele>843</ele>
        <time>2021-08-02T09:30:03.402Z</time>
      </trkpt>
      <trkpt lat="47.03611" lon="9.00805">
        <ele>843</ele>
        <time>2021-08-02T09:30:04.402Z</time>
      </trkpt>
      <trkpt lat="47.0361" lon="9.00804">
        <ele>843</ele>
        <time>2021-08-02T09:30:05.403Z</time>
      </trkpt>
      <trkpt lat="47.03611" lon="9.00803">
        <ele>843</ele>
        <time>2021-08-02T09:30:06.403Z</time>
      </trkpt>
      <trkpt lat="47.03611" lon="9.00803">
        <ele>843</ele>
        <time>2021-08-02T09:30:07.403Z</time>
      </trkpt>
      <trkpt lat="47.03611" lon="9.00802">
        <ele>844</ele>
        <time>2021-08-02T09:30:08.403Z</time>
      </trkpt>
      <trkpt lat="47.03611" lon="9.00801">
        <ele>844</ele>
        <time>2021-08-02T09:30:09.402Z</time>
      </trkpt>
      <trkpt lat="47.0361" lon="9.008">
        <ele>844</ele>
        <time>2021-08-02T09:30:10.402Z</time>
      </trkpt>
      <trkpt lat="47.03609" lon="9.008">
        <ele>845</ele>
        <time>2021-08-02T09:30:11.403Z</time>
      </trkpt>
      <trkpt lat="47.03608" lon="9.00799">
        <ele>845</ele>
        <time>2021-08-02T09:30:12.403Z</time>
      </trkpt>
      <trkpt lat="47.03608" lon="9.00799">
        <ele>846</ele>
        <time>2021-08-02T09:30:13.402Z</time>
      </trkpt>
      <trkpt lat="47.03607" lon="9.00798">
        <ele>846</ele>
        <time>2021-08-02T09:30:14.402Z</time>
      </trkpt>
      <trkpt lat="47.03607" lon="9.00797">
        <ele>846</ele>
        <time>2021-08-02T09:30:15.402Z</time>
      </trkpt>
      <trkpt lat="47.03607" lon="9.00797">
        <ele>846</ele>
        <time>2021-08-02T09:30:16.403Z</time>
      </trkpt>
      <trkpt lat="47.03606" lon="9.00796">
        <ele>846</ele>
        <time>2021-08-02T09:30:17.403Z</time>
      </trkpt>
      <trkpt lat="47.03606" lon="9.00796">
        <ele>846</ele>
        <time>2021-08-02T09:30:18.403Z</time>
      </trkpt>
      <trkpt lat="47.03605" lon="9.00795">
        <ele>846</ele>
        <time>2021-08-02T09:30:19.403Z</time>
      </trkpt>
      <trkpt lat="47.03605" lon="9.00794">
        <ele>846</ele>
        <time>2021-08-02T09:30:20.403Z</time>
      </trkpt>
      <trkpt lat="47.03604" lon="9.00793">
        <ele>846</ele>
        <time>2021-08-02T09:30:21.403Z</time>
      </trkpt>
      <trkpt lat="47.03604" lon="9.00793">
        <ele>846</ele>
        <time>2021-08-02T09:30:22.403Z</time>
      </trkpt>
      <trkpt lat="47.03603" lon="9.00792">
        <ele>846</ele>
        <time>2021-08-02T09:30:23.403Z</time>
      </trkpt>
      <trkpt lat="47.03601" lon="9.00791">
        <ele>847</ele>
        <time>2021-08-02T09:30:24.402Z</time>
      </trkpt>
      <trkpt lat="47.036" lon="9.00792">
        <ele>847</ele>
        <time>2021-08-02T09:30:25.403Z</time>
      </trkpt>
      <trkpt lat="47.03598" lon="9.00791">
        <ele>848</ele>
        <time>2021-08-02T09:30:26.404Z</time>
      </trkpt>
      <trkpt lat="47.03598" lon="9.0079">
        <ele>849</ele>
        <time>2021-08-02T09:30:27.404Z</time>
      </trkpt>
      <trkpt lat="47.03597" lon="9.00788">
        <ele>849</ele>
        <time>2021-08-02T09:30:28.403Z</time>
      </trkpt>
      <trkpt lat="47.03596" lon="9.00787">
        <ele>850</ele>
        <time>2021-08-02T09:30:29.404Z</time>
      </trkpt>
      <trkpt lat="47.03596" lon="9.00786">
        <ele>850</ele>
        <time>2021-08-02T09:30:30.404Z</time>
      </trkpt>
      <trkpt lat="47.03595" lon="9.00784">
        <ele>850</ele>
        <time>2021-08-02T09:30:31.404Z</time>
      </trkpt>
      <trkpt lat="47.03595" lon="9.00783">
        <ele>850</ele>
        <time>2021-08-02T09:30:32.403Z</time>
      </trkpt>
      <trkpt lat="47.03595" lon="9.00783">
        <ele>850</ele>
        <time>2021-08-02T09:30:33.403Z</time>
      </trkpt>
      <trkpt lat="47.03594" lon="9.00783">
        <ele>850</ele>
        <time>2021-08-02T09:30:34.403Z</time>
      </trkpt>
      <trkpt lat="47.03594" lon="9.00782">
        <ele>849</ele>
        <time>2021-08-02T09:30:35.404Z</time>
      </trkpt>
      <trkpt lat="47.03593" lon="9.0078">
        <ele>848</ele>
        <time>2021-08-02T09:30:36.404Z</time>
      </trkpt>
      <trkpt lat="47.03593" lon="9.00779">
        <ele>847</ele>
        <time>2021-08-02T09:30:37.404Z</time>
      </trkpt>
      <trkpt lat="47.03592" lon="9.00778">
        <ele>846</ele>
        <time>2021-08-02T09:30:38.403Z</time>
      </trkpt>
      <trkpt lat="47.03592" lon="9.00778">
        <ele>846</ele>
        <time>2021-08-02T09:30:39.404Z</time>
      </trkpt>
      <trkpt lat="47.03591" lon="9.00777">
        <ele>845</ele>
        <time>2021-08-02T09:30:40.404Z</time>
      </trkpt>
      <trkpt lat="47.0359" lon="9.00776">
        <ele>844</ele>
        <time>2021-08-02T09:30:41.404Z</time>
      </trkpt>
      <trkpt lat="47.03589" lon="9.00776">
        <ele>844</ele>
        <time>2021-08-02T09:30:42.404Z</time>
      </trkpt>
      <trkpt lat="47.03589" lon="9.00775">
        <ele>844</ele>
        <time>2021-08-02T09:30:43.403Z</time>
      </trkpt>
      <trkpt lat="47.03588" lon="9.00774">
        <ele>843</ele>
        <time>2021-08-02T09:30:44.403Z</time>
      </trkpt>
      <trkpt lat="47.03587" lon="9.00773">
        <ele>843</ele>
        <time>2021-08-02T09:30:45.403Z</time>
      </trkpt>
      <trkpt lat="47.03586" lon="9.00773">
        <ele>843</ele>
        <time>2021-08-02T09:30:46.404Z</time>
      </trkpt>
      <trkpt lat="47.03586" lon="9.00772">
        <ele>843</ele>
        <time>2021-08-02T09:30:47.403Z</time>
      </trkpt>
      <trkpt lat="47.03585" lon="9.00771">
        <ele>842</ele>
        <time>2021-08-02T09:30:48.404Z</time>
      </trkpt>
      <trkpt lat="47.03585" lon="9.00771">
        <ele>842</ele>
        <time>2021-08-02T09:30:49.403Z</time>
      </trkpt>
      <trkpt lat="47.03583" lon="9.00771">
        <ele>842</ele>
        <time>2021-08-02T09:30:50.404Z</time>
      </trkpt>
      <trkpt lat="47.03582" lon="9.00772">
        <ele>842</ele>
        <time>2021-08-02T09:30:51.403Z</time>
      </trkpt>
      <trkpt lat="47.0358" lon="9.00772">
        <ele>842</ele>
        <time>2021-08-02T09:30:52.404Z</time>
      </trkpt>
      <trkpt lat="47.0358" lon="9.00773">
        <ele>841</ele>
        <time>2021-08-02T09:30:53.404Z</time>
      </trkpt>
      <trkpt lat="47.0358" lon="9.00773">
        <ele>841</ele>
        <time>2021-08-02T09:30:54.403Z</time>
      </trkpt>
      <trkpt lat="47.0358" lon="9.00773">
        <ele>840</ele>
        <time>2021-08-02T09:30:55.404Z</time>
      </trkpt>
      <trkpt lat="47.0358" lon="9.00772">
        <ele>839</ele>
        <time>2021-08-02T09:30:56.403Z</time>
      </trkpt>
      <trkpt lat="47.03579" lon="9.00771">
        <ele>838</ele>
        <time>2021-08-02T09:30:57.403Z</time>
      </trkpt>
      <trkpt lat="47.03578" lon="9.00771">
        <ele>838</ele>
        <time>2021-08-02T09:30:58.403Z</time>
      </trkpt>
      <trkpt lat="47.03577" lon="9.00771">
        <ele>837</ele>
        <time>2021-08-02T09:30:59.404Z</time>
      </trkpt>
      <trkpt lat="47.03577" lon="9.0077">
        <ele>838</ele>
        <time>2021-08-02T09:31:00.404Z</time>
      </trkpt>
      <trkpt lat="47.03576" lon="9.0077">
        <ele>838</ele>
        <time>2021-08-02T09:31:01.404Z</time>
      </trkpt>
      <trkpt lat="47.03575" lon="9.0077">
        <ele>839</ele>
        <time>2021-08-02T09:31:02.404Z</time>
      </trkpt>
      <trkpt lat="47.03574" lon="9.0077">
        <ele>839</ele>
        <time>2021-08-02T09:31:03.403Z</time>
      </trkpt>
      <trkpt lat="47.03573" lon="9.00769">
        <ele>839</ele>
        <time>2021-08-02T09:31:04.404Z</time>
      </trkpt>
      <trkpt lat="47.03573" lon="9.00769">
        <ele>839</ele>
        <time>2021-08-02T09:31:05.404Z</time>
      </trkpt>
      <trkpt lat="47.03572" lon="9.00768">
        <ele>839</ele>
        <time>2021-08-02T09:31:06.403Z</time>
      </trkpt>
      <trkpt lat="47.03572" lon="9.00768">
        <ele>839</ele>
        <time>2021-08-02T09:31:07.404Z</time>
      </trkpt>
      <trkpt lat="47.03571" lon="9.00768">
        <ele>839</ele>
        <time>2021-08-02T09:31:08.404Z</time>
      </trkpt>
      <trkpt lat="47.0357" lon="9.00767">
        <ele>840</ele>
        <time>2021-08-02T09:31:09.404Z</time>
      </trkpt>
      <trkpt lat="47.03569" lon="9.00767">
        <ele>840</ele>
        <time>2021-08-02T09:31:10.404Z</time>
      </trkpt>
      <trkpt lat="47.03568" lon="9.00766">
        <ele>840</ele>
        <time>2021-08-02T09:31:11.404Z</time>
      </trkpt>
      <trkpt lat="47.03567" lon="9.00765">
        <ele>840</ele>
        <time>2021-08-02T09:31:12.404Z</time>
      </trkpt>
      <trkpt lat="47.03566" lon="9.00763">
        <ele>840</ele>
        <time>2021-08-02T09:31:13.404Z</time>
      </trkpt>
      <trkpt lat="47.03565" lon="9.00762">
        <ele>841</ele>
        <time>2021-08-02T09:31:14.403Z</time>
      </trkpt>
      <trkpt lat="47.03564" lon="9.00762">
        <ele>841</ele>
        <time>2021-08-02T09:31:15.404Z</time>
      </trkpt>
      <trkpt lat="47.03564" lon="9.00761">
        <ele>841</ele>
        <time>2021-08-02T09:31:16.404Z</time>
      </trkpt>
      <trkpt lat="47.03563" lon="9.0076">
        <ele>842</ele>
        <time>2021-08-02T09:31:17.404Z</time>
      </trkpt>
      <trkpt lat="47.03562" lon="9.00759">
        <ele>842</ele>
        <time>2021-08-02T09:31:18.403Z</time>
      </trkpt>
      <trkpt lat="47.0356" lon="9.00759">
        <ele>843</ele>
        <time>2021-08-02T09:31:19.404Z</time>
      </trkpt>
      <trkpt lat="47.03559" lon="9.00758">
        <ele>843</ele>
        <time>2021-08-02T09:31:20.404Z</time>
      </trkpt>
      <trkpt lat="47.03558" lon="9.00758">
        <ele>844</ele>
        <time>2021-08-02T09:31:21.404Z</time>
      </trkpt>
      <trkpt lat="47.03557" lon="9.00757">
        <ele>844</ele>
        <time>2021-08-02T09:31:22.403Z</time>
      </trkpt>
      <trkpt lat="47.03556" lon="9.00757">
        <ele>844</ele>
        <time>2021-08-02T09:31:23.404Z</time>
      </trkpt>
      <trkpt lat="47.03555" lon="9.00757">
        <ele>844</ele>
        <time>2021-08-02T09:31:24.404Z</time>
      </trkpt>
      <trkpt lat="47.03554" lon="9.00755">
        <ele>844</ele>
        <time>2021-08-02T09:31:25.404Z</time>
      </trkpt>
      <trkpt lat="47.03552" lon="9.00754">
        <ele>845</ele>
        <time>2021-08-02T09:31:26.403Z</time>
      </trkpt>
      <trkpt lat="47.03551" lon="9.00753">
        <ele>845</ele>
        <time>2021-08-02T09:31:27.404Z</time>
      </trkpt>
      <trkpt lat="47.0355" lon="9.00752">
        <ele>845</ele>
        <time>2021-08-02T09:31:28.404Z</time>
      </trkpt>
      <trkpt lat="47.03548" lon="9.0075">
        <ele>845</ele>
        <time>2021-08-02T09:31:29.403Z</time>
      </trkpt>
      <trkpt lat="47.03547" lon="9.00748">
        <ele>845</ele>
        <time>2021-08-02T09:31:30.403Z</time>
      </trkpt>
      <trkpt lat="47.03545" lon="9.00747">
        <ele>846</ele>
        <time>2021-08-02T09:31:31.404Z</time>
      </trkpt>
      <trkpt lat="47.03545" lon="9.00746">
        <ele>846</ele>
        <time>2021-08-02T09:31:32.404Z</time>
      </trkpt>
      <trkpt lat="47.03545" lon="9.00746">
        <ele>846</ele>
        <time>2021-08-02T09:31:33.404Z</time>
      </trkpt>
      <trkpt lat="47.03543" lon="9.00745">
        <ele>846</ele>
        <time>2021-08-02T09:31:34.404Z</time>
      </trkpt>
      <trkpt lat="47.03541" lon="9.00745">
        <ele>846</ele>
        <time>2021-08-02T09:31:35.404Z</time>
      </trkpt>
      <trkpt lat="47.03539" lon="9.00745">
        <ele>846</ele>
        <time>2021-08-02T09:31:36.404Z</time>
      </trkpt>
      <trkpt lat="47.03538" lon="9.00744">
        <ele>846</ele>
        <time>2021-08-02T09:31:37.404Z</time>
      </trkpt>
      <trkpt lat="47.03537" lon="9.00744">
        <ele>845</ele>
        <time>2021-08-02T09:31:38.404Z</time>
      </trkpt>
      <trkpt lat="47.03536" lon="9.00744">
        <ele>845</ele>
        <time>2021-08-02T09:31:39.403Z</time>
      </trkpt>
      <trkpt lat="47.03536" lon="9.00744">
        <ele>845</ele>
        <time>2021-08-02T09:31:40.404Z</time>
      </trkpt>
      <trkpt lat="47.03535" lon="9.00743">
        <ele>845</ele>
        <time>2021-08-02T09:31:41.404Z</time>
      </trkpt>
      <trkpt lat="47.03534" lon="9.00743">
        <ele>845</ele>
        <time>2021-08-02T09:31:42.403Z</time>
      </trkpt>
      <trkpt lat="47.03533" lon="9.00742">
        <ele>846</ele>
        <time>2021-08-02T09:31:43.403Z</time>
      </trkpt>
      <trkpt lat="47.03532" lon="9.00742">
        <ele>846</ele>
        <time>2021-08-02T09:31:44.403Z</time>
      </trkpt>
      <trkpt lat="47.03531" lon="9.0074">
        <ele>846</ele>
        <time>2021-08-02T09:31:45.403Z</time>
      </trkpt>
      <trkpt lat="47.0353" lon="9.0074">
        <ele>846</ele>
        <time>2021-08-02T09:31:46.403Z</time>
      </trkpt>
      <trkpt lat="47.03529" lon="9.00739">
        <ele>847</ele>
        <time>2021-08-02T09:31:47.403Z</time>
      </trkpt>
      <trkpt lat="47.03529" lon="9.00739">
        <ele>847</ele>
        <time>2021-08-02T09:31:48.404Z</time>
      </trkpt>
      <trkpt lat="47.03528" lon="9.00739">
        <ele>847</ele>
        <time>2021-08-02T09:31:49.404Z</time>
      </trkpt>
      <trkpt lat="47.03527" lon="9.00738">
        <ele>848</ele>
        <time>2021-08-02T09:31:50.404Z</time>
      </trkpt>
      <trkpt lat="47.03526" lon="9.00738">
        <ele>848</ele>
        <time>2021-08-02T09:31:51.404Z</time>
      </trkpt>
      <trkpt lat="47.03526" lon="9.00737">
        <ele>849</ele>
        <time>2021-08-02T09:31:52.404Z</time>
      </trkpt>
      <trkpt lat="47.03525" lon="9.00737">
        <ele>849</ele>
        <time>2021-08-02T09:31:53.404Z</time>
      </trkpt>
      <trkpt lat="47.03524" lon="9.00737">
        <ele>849</ele>
        <time>2021-08-02T09:31:54.404Z</time>
      </trkpt>
      <trkpt lat="47.03523" lon="9.00737">
        <ele>850</ele>
        <time>2021-08-02T09:31:55.404Z</time>
      </trkpt>
      <trkpt lat="47.03522" lon="9.00736">
        <ele>850</ele>
        <time>2021-08-02T09:31:56.404Z</time>
      </trkpt>
      <trkpt lat="47.0352" lon="9.00735">
        <ele>850</ele>
        <time>2021-08-02T09:31:57.403Z</time>
      </trkpt>
      <trkpt lat="47.03518" lon="9.00733">
        <ele>850</ele>
        <time>2021-08-02T09:31:58.403Z</time>
      </trkpt>
      <trkpt lat="47.03517" lon="9.00732">
        <ele>851</ele>
        <time>2021-08-02T09:31:59.404Z</time>
      </trkpt>
      <trkpt lat="47.03516" lon="9.00731">
        <ele>851</ele>
        <time>2021-08-02T09:32:00.404Z</time>
      </trkpt>
      <trkpt lat="47.03515" lon="9.0073">
        <ele>851</ele>
        <time>2021-08-02T09:32:01.404Z</time>
      </trkpt>
      <trkpt lat="47.03515" lon="9.00729">
        <ele>852</ele>
        <time>2021-08-02T09:32:02.404Z</time>
      </trkpt>
      <trkpt lat="47.03514" lon="9.00729">
        <ele>852</ele>
        <time>2021-08-02T09:32:03.404Z</time>
      </trkpt>
      <trkpt lat="47.03512" lon="9.00728">
        <ele>853</ele>
        <time>2021-08-02T09:32:04.403Z</time>
      </trkpt>
      <trkpt lat="47.03511" lon="9.00727">
        <ele>853</ele>
        <time>2021-08-02T09:32:05.404Z</time>
      </trkpt>
      <trkpt lat="47.0351" lon="9.00726">
        <ele>853</ele>
        <time>2021-08-02T09:32:06.404Z</time>
      </trkpt>
      <trkpt lat="47.03508" lon="9.00724">
        <ele>854</ele>
        <time>2021-08-02T09:32:07.404Z</time>
      </trkpt>
      <trkpt lat="47.03507" lon="9.00723">
        <ele>854</ele>
        <time>2021-08-02T09:32:08.404Z</time>
      </trkpt>
      <trkpt lat="47.03506" lon="9.00722">
        <ele>854</ele>
        <time>2021-08-02T09:32:09.404Z</time>
      </trkpt>
      <trkpt lat="47.03505" lon="9.00721">
        <ele>854</ele>
        <time>2021-08-02T09:32:10.404Z</time>
      </trkpt>
      <trkpt lat="47.03504" lon="9.00721">
        <ele>854</ele>
        <time>2021-08-02T09:32:11.404Z</time>
      </trkpt>
      <trkpt lat="47.03503" lon="9.0072">
        <ele>854</ele>
        <time>2021-08-02T09:32:12.404Z</time>
      </trkpt>
      <trkpt lat="47.03502" lon="9.0072">
        <ele>854</ele>
        <time>2021-08-02T09:32:13.404Z</time>
      </trkpt>
      <trkpt lat="47.03501" lon="9.0072">
        <ele>854</ele>
        <time>2021-08-02T09:32:14.403Z</time>
      </trkpt>
      <trkpt lat="47.035" lon="9.0072">
        <ele>855</ele>
        <time>2021-08-02T09:32:15.404Z</time>
      </trkpt>
      <trkpt lat="47.03499" lon="9.00719">
        <ele>855</ele>
        <time>2021-08-02T09:32:16.404Z</time>
      </trkpt>
      <trkpt lat="47.03498" lon="9.00719">
        <ele>855</ele>
        <time>2021-08-02T09:32:17.403Z</time>
      </trkpt>
      <trkpt lat="47.03497" lon="9.00718">
        <ele>855</ele>
        <time>2021-08-02T09:32:18.404Z</time>
      </trkpt>
      <trkpt lat="47.03496" lon="9.00717">
        <ele>855</ele>
        <time>2021-08-02T09:32:19.403Z</time>
      </trkpt>
      <trkpt lat="47.03495" lon="9.00717">
        <ele>855</ele>
        <time>2021-08-02T09:32:20.403Z</time>
      </trkpt>
      <trkpt lat="47.03494" lon="9.00716">
        <ele>856</ele>
        <time>2021-08-02T09:32:21.404Z</time>
      </trkpt>
      <trkpt lat="47.03492" lon="9.00715">
        <ele>856</ele>
        <time>2021-08-02T09:32:22.404Z</time>
      </trkpt>
      <trkpt lat="47.03491" lon="9.00715">
        <ele>856</ele>
        <time>2021-08-02T09:32:23.403Z</time>
      </trkpt>
      <trkpt lat="47.0349" lon="9.00715">
        <ele>857</ele>
        <time>2021-08-02T09:32:24.404Z</time>
      </trkpt>
      <trkpt lat="47.03489" lon="9.00714">
        <ele>858</ele>
        <time>2021-08-02T09:32:25.404Z</time>
      </trkpt>
      <trkpt lat="47.03487" lon="9.00713">
        <ele>858</ele>
        <time>2021-08-02T09:32:26.404Z</time>
      </trkpt>
      <trkpt lat="47.03486" lon="9.00712">
        <ele>859</ele>
        <time>2021-08-02T09:32:27.404Z</time>
      </trkpt>
      <trkpt lat="47.03485" lon="9.00711">
        <ele>860</ele>
        <time>2021-08-02T09:32:28.403Z</time>
      </trkpt>
      <trkpt lat="47.03483" lon="9.0071">
        <ele>861</ele>
        <time>2021-08-02T09:32:29.403Z</time>
      </trkpt>
      <trkpt lat="47.03481" lon="9.0071">
        <ele>862</ele>
        <time>2021-08-02T09:32:30.404Z</time>
      </trkpt>
      <trkpt lat="47.0348" lon="9.00709">
        <ele>862</ele>
        <time>2021-08-02T09:32:31.403Z</time>
      </trkpt>
      <trkpt lat="47.03479" lon="9.00708">
        <ele>863</ele>
        <time>2021-08-02T09:32:32.403Z</time>
      </trkpt>
      <trkpt lat="47.03477" lon="9.00707">
        <ele>864</ele>
        <time>2021-08-02T09:32:33.404Z</time>
      </trkpt>
      <trkpt lat="47.03476" lon="9.00706">
        <ele>865</ele>
        <time>2021-08-02T09:32:34.404Z</time>
      </trkpt>
      <trkpt lat="47.03474" lon="9.00705">
        <ele>865</ele>
        <time>2021-08-02T09:32:35.403Z</time>
      </trkpt>
      <trkpt lat="47.03473" lon="9.00704">
        <ele>866</ele>
        <time>2021-08-02T09:32:36.404Z</time>
      </trkpt>
      <trkpt lat="47.03471" lon="9.00703">
        <ele>867</ele>
        <time>2021-08-02T09:32:37.404Z</time>
      </trkpt>
      <trkpt lat="47.0347" lon="9.00703">
        <ele>867</ele>
        <time>2021-08-02T09:32:38.403Z</time>
      </trkpt>
      <trkpt lat="47.03469" lon="9.00702">
        <ele>868</ele>
        <time>2021-08-02T09:32:39.404Z</time>
      </trkpt>
      <trkpt lat="47.03467" lon="9.00701">
        <ele>868</ele>
        <time>2021-08-02T09:32:40.404Z</time>
      </trkpt>
      <trkpt lat="47.03465" lon="9.00699">
        <ele>869</ele>
        <time>2021-08-02T09:32:41.403Z</time>
      </trkpt>
      <trkpt lat="47.03464" lon="9.00698">
        <ele>870</ele>
        <time>2021-08-02T09:32:42.404Z</time>
      </trkpt>
      <trkpt lat="47.03463" lon="9.00698">
        <ele>871</ele>
        <time>2021-08-02T09:32:43.403Z</time>
      </trkpt>
      <trkpt lat="47.03461" lon="9.00697">
        <ele>871</ele>
        <time>2021-08-02T09:32:44.404Z</time>
      </trkpt>
      <trkpt lat="47.0346" lon="9.00697">
        <ele>871</ele>
        <time>2021-08-02T09:32:45.404Z</time>
      </trkpt>
      <trkpt lat="47.03459" lon="9.00697">
        <ele>872</ele>
        <time>2021-08-02T09:32:46.403Z</time>
      </trkpt>
      <trkpt lat="47.03458" lon="9.00697">
        <ele>872</ele>
        <time>2021-08-02T09:32:47.404Z</time>
      </trkpt>
      <trkpt lat="47.03457" lon="9.00698">
        <ele>872</ele>
        <time>2021-08-02T09:32:48.404Z</time>
      </trkpt>
      <trkpt lat="47.03457" lon="9.00699">
        <ele>872</ele>
        <time>2021-08-02T09:32:49.403Z</time>
      </trkpt>
      <trkpt lat="47.03456" lon="9.007">
        <ele>871</ele>
        <time>2021-08-02T09:32:50.404Z</time>
      </trkpt>
      <trkpt lat="47.03455" lon="9.00699">
        <ele>872</ele>
        <time>2021-08-02T09:32:51.403Z</time>
      </trkpt>
      <trkpt lat="47.03453" lon="9.00698">
        <ele>872</ele>
        <time>2021-08-02T09:32:52.403Z</time>
      </trkpt>
      <trkpt lat="47.03452" lon="9.00697">
        <ele>872</ele>
        <time>2021-08-02T09:32:53.403Z</time>
      </trkpt>
      <trkpt lat="47.03451" lon="9.00698">
        <ele>872</ele>
        <time>2021-08-02T09:32:54.403Z</time>
      </trkpt>
      <trkpt lat="47.0345" lon="9.00698">
        <ele>871</ele>
        <time>2021-08-02T09:32:55.403Z</time>
      </trkpt>
      <trkpt lat="47.03449" lon="9.00698">
        <ele>871</ele>
        <time>2021-08-02T09:32:56.403Z</time>
      </trkpt>
      <trkpt lat="47.03448" lon="9.00698">
        <ele>871</ele>
        <time>2021-08-02T09:32:57.403Z</time>
      </trkpt>
      <trkpt lat="47.03447" lon="9.00699">
        <ele>871</ele>
        <time>2021-08-02T09:32:58.404Z</time>
      </trkpt>
      <trkpt lat="47.03446" lon="9.00699">
        <ele>870</ele>
        <time>2021-08-02T09:32:59.403Z</time>
      </trkpt>
      <trkpt lat="47.03445" lon="9.00699">
        <ele>870</ele>
        <time>2021-08-02T09:33:00.403Z</time>
      </trkpt>
      <trkpt lat="47.03444" lon="9.007">
        <ele>870</ele>
        <time>2021-08-02T09:33:01.404Z</time>
      </trkpt>
      <trkpt lat="47.03444" lon="9.007">
        <ele>870</ele>
        <time>2021-08-02T09:33:02.404Z</time>
      </trkpt>
      <trkpt lat="47.03443" lon="9.007">
        <ele>870</ele>
        <time>2021-08-02T09:33:03.403Z</time>
      </trkpt>
      <trkpt lat="47.03442" lon="9.007">
        <ele>869</ele>
        <time>2021-08-02T09:33:04.404Z</time>
      </trkpt>
      <trkpt lat="47.03441" lon="9.007">
        <ele>869</ele>
        <time>2021-08-02T09:33:05.404Z</time>
      </trkpt>
      <trkpt lat="47.0344" lon="9.00699">
        <ele>869</ele>
        <time>2021-08-02T09:33:06.404Z</time>
      </trkpt>
      <trkpt lat="47.03439" lon="9.00699">
        <ele>869</ele>
        <time>2021-08-02T09:33:07.403Z</time>
      </trkpt>
      <trkpt lat="47.03439" lon="9.00698">
        <ele>869</ele>
        <time>2021-08-02T09:33:08.403Z</time>
      </trkpt>
      <trkpt lat="47.03438" lon="9.00698">
        <ele>869</ele>
        <time>2021-08-02T09:33:09.404Z</time>
      </trkpt>
      <trkpt lat="47.03437" lon="9.00697">
        <ele>869</ele>
        <time>2021-08-02T09:33:10.403Z</time>
      </trkpt>
      <trkpt lat="47.03436" lon="9.00696">
        <ele>869</ele>
        <time>2021-08-02T09:33:11.404Z</time>
      </trkpt>
      <trkpt lat="47.03435" lon="9.00696">
        <ele>869</ele>
        <time>2021-08-02T09:33:12.404Z</time>
      </trkpt>
      <trkpt lat="47.03434" lon="9.00695">
        <ele>868</ele>
        <time>2021-08-02T09:33:13.404Z</time>
      </trkpt>
      <trkpt lat="47.03433" lon="9.00694">
        <ele>868</ele>
        <time>2021-08-02T09:33:14.404Z</time>
      </trkpt>
      <trkpt lat="47.03433" lon="9.00693">
        <ele>868</ele>
        <time>2021-08-02T09:33:15.404Z</time>
      </trkpt>
      <trkpt lat="47.03433" lon="9.00693">
        <ele>867</ele>
        <time>2021-08-02T09:33:16.403Z</time>
      </trkpt>
      <trkpt lat="47.03432" lon="9.00692">
        <ele>867</ele>
        <time>2021-08-02T09:33:17.404Z</time>
      </trkpt>
      <trkpt lat="47.03432" lon="9.00691">
        <ele>866</ele>
        <time>2021-08-02T09:33:18.404Z</time>
      </trkpt>
      <trkpt lat="47.03432" lon="9.00691">
        <ele>866</ele>
        <time>2021-08-02T09:33:19.404Z</time>
      </trkpt>
      <trkpt lat="47.03432" lon="9.0069">
        <ele>865</ele>
        <time>2021-08-02T09:33:20.403Z</time>
      </trkpt>
      <trkpt lat="47.03432" lon="9.00689">
        <ele>865</ele>
        <time>2021-08-02T09:33:21.404Z</time>
      </trkpt>
      <trkpt lat="47.03431" lon="9.00689">
        <ele>865</ele>
        <time>2021-08-02T09:33:22.404Z</time>
      </trkpt>
      <trkpt lat="47.0343" lon="9.00688">
        <ele>865</ele>
        <time>2021-08-02T09:33:23.403Z</time>
      </trkpt>
      <trkpt lat="47.0343" lon="9.00688">
        <ele>864</ele>
        <time>2021-08-02T09:33:24.403Z</time>
      </trkpt>
      <trkpt lat="47.0343" lon="9.00687">
        <ele>864</ele>
        <time>2021-08-02T09:33:25.404Z</time>
      </trkpt>
      <trkpt lat="47.0343" lon="9.00687">
        <ele>864</ele>
        <time>2021-08-02T09:33:26.403Z</time>
      </trkpt>
      <trkpt lat="47.03432" lon="9.00686">
        <ele>864</ele>
        <time>2021-08-02T09:33:27.404Z</time>
      </trkpt>
      <trkpt lat="47.03433" lon="9.00687">
        <ele>863</ele>
        <time>2021-08-02T09:33:28.404Z</time>
      </trkpt>
      <trkpt lat="47.03433" lon="9.00687">
        <ele>863</ele>
        <time>2021-08-02T09:33:29.403Z</time>
      </trkpt>
      <trkpt lat="47.03433" lon="9.00688">
        <ele>862</ele>
        <time>2021-08-02T09:33:30.403Z</time>
      </trkpt>
      <trkpt lat="47.03433" lon="9.00688">
        <ele>862</ele>
        <time>2021-08-02T09:33:31.404Z</time>
      </trkpt>
      <trkpt lat="47.03433" lon="9.00688">
        <ele>862</ele>
        <time>2021-08-02T09:33:32.404Z</time>
      </trkpt>
      <trkpt lat="47.03433" lon="9.00688">
        <ele>862</ele>
        <time>2021-08-02T09:33:33.403Z</time>
      </trkpt>
      <trkpt lat="47.03432" lon="9.00688">
        <ele>863</ele>
        <time>2021-08-02T09:33:34.403Z</time>
      </trkpt>
      <trkpt lat="47.03433" lon="9.00688">
        <ele>863</ele>
        <time>2021-08-02T09:33:35.404Z</time>
      </trkpt>
      <trkpt lat="47.03433" lon="9.00689">
        <ele>863</ele>
        <time>2021-08-02T09:33:36.404Z</time>
      </trkpt>
      <trkpt lat="47.03434" lon="9.0069">
        <ele>863</ele>
        <time>2021-08-02T09:33:37.403Z</time>
      </trkpt>
      <trkpt lat="47.03434" lon="9.00691">
        <ele>863</ele>
        <time>2021-08-02T09:33:38.405Z</time>
      </trkpt>
      <trkpt lat="47.03434" lon="9.00692">
        <ele>864</ele>
        <time>2021-08-02T09:33:39.406Z</time>
      </trkpt>
      <trkpt lat="47.03433" lon="9.00692">
        <ele>864</ele>
        <time>2021-08-02T09:33:40.405Z</time>
      </trkpt>
      <trkpt lat="47.03433" lon="9.00693">
        <ele>864</ele>
        <time>2021-08-02T09:33:41.406Z</time>
      </trkpt>
      <trkpt lat="47.03433" lon="9.00693">
        <ele>864</ele>
        <time>2021-08-02T09:33:42.406Z</time>
      </trkpt>
      <trkpt lat="47.03433" lon="9.00694">
        <ele>864</ele>
        <time>2021-08-02T09:33:43.406Z</time>
      </trkpt>
      <trkpt lat="47.03433" lon="9.00694">
        <ele>865</ele>
        <time>2021-08-02T09:33:44.406Z</time>
      </trkpt>
      <trkpt lat="47.03433" lon="9.00694">
        <ele>865</ele>
        <time>2021-08-02T09:33:45.406Z</time>
      </trkpt>
      <trkpt lat="47.03433" lon="9.00694">
        <ele>865</ele>
        <time>2021-08-02T09:33:46.406Z</time>
      </trkpt>
      <trkpt lat="47.03432" lon="9.00695">
        <ele>865</ele>
        <time>2021-08-02T09:33:47.406Z</time>
      </trkpt>
      <trkpt lat="47.03432" lon="9.00695">
        <ele>866</ele>
        <time>2021-08-02T09:33:48.405Z</time>
      </trkpt>
      <trkpt lat="47.03432" lon="9.00695">
        <ele>866</ele>
        <time>2021-08-02T09:33:49.406Z</time>
      </trkpt>
      <trkpt lat="47.03433" lon="9.00695">
        <ele>866</ele>
        <time>2021-08-02T09:33:50.406Z</time>
      </trkpt>
      <trkpt lat="47.03433" lon="9.00695">
        <ele>867</ele>
        <time>2021-08-02T09:33:51.405Z</time>
      </trkpt>
      <trkpt lat="47.03434" lon="9.00694">
        <ele>867</ele>
        <time>2021-08-02T09:33:52.405Z</time>
      </trkpt>
      <trkpt lat="47.03434" lon="9.00693">
        <ele>867</ele>
        <time>2021-08-02T09:33:53.405Z</time>
      </trkpt>
      <trkpt lat="47.03434" lon="9.00693">
        <ele>866</ele>
        <time>2021-08-02T09:33:54.406Z</time>
      </trkpt>
      <trkpt lat="47.03434" lon="9.00693">
        <ele>865</ele>
        <time>2021-08-02T09:33:55.406Z</time>
      </trkpt>
      <trkpt lat="47.03433" lon="9.00692">
        <ele>864</ele>
        <time>2021-08-02T09:33:56.406Z</time>
      </trkpt>
      <trkpt lat="47.03433" lon="9.00692">
        <ele>864</ele>
        <time>2021-08-02T09:33:57.405Z</time>
      </trkpt>
      <trkpt lat="47.03432" lon="9.00693">
        <ele>863</ele>
        <time>2021-08-02T09:33:58.405Z</time>
      </trkpt>
      <trkpt lat="47.03433" lon="9.00694">
        <ele>862</ele>
        <time>2021-08-02T09:33:59.406Z</time>
      </trkpt>
      <trkpt lat="47.03434" lon="9.00697">
        <ele>859</ele>
        <time>2021-08-02T09:34:00.407Z</time>
      </trkpt>
      <trkpt lat="47.03436" lon="9.00696">
        <ele>855</ele>
        <time>2021-08-02T09:34:01.408Z</time>
      </trkpt>
      <trkpt lat="47.03442" lon="9.00691">
        <ele>848</ele>
        <time>2021-08-02T09:34:02.408Z</time>
      </trkpt>
      <trkpt lat="47.03442" lon="9.0069">
        <ele>848</ele>
        <time>2021-08-02T09:34:03.408Z</time>
      </trkpt>
      <trkpt lat="47.03442" lon="9.0069">
        <ele>849</ele>
        <time>2021-08-02T09:34:04.407Z</time>
      </trkpt>
      <trkpt lat="47.03443" lon="9.00689">
        <ele>849</ele>
        <time>2021-08-02T09:34:05.407Z</time>
      </trkpt>
      <trkpt lat="47.03443" lon="9.00688">
        <ele>850</ele>
        <time>2021-08-02T09:34:06.407Z</time>
      </trkpt>
      <trkpt lat="47.03443" lon="9.00688">
        <ele>851</ele>
        <time>2021-08-02T09:34:07.408Z</time>
      </trkpt>
      <trkpt lat="47.03443" lon="9.00689">
        <ele>851</ele>
        <time>2021-08-02T09:34:08.407Z</time>
      </trkpt>
      <trkpt lat="47.03442" lon="9.00689">
        <ele>852</ele>
        <time>2021-08-02T09:34:09.408Z</time>
      </trkpt>
      <trkpt lat="47.03442" lon="9.00689">
        <ele>852</ele>
        <time>2021-08-02T09:34:10.408Z</time>
      </trkpt>
      <trkpt lat="47.03441" lon="9.0069">
        <ele>852</ele>
        <time>2021-08-02T09:34:11.408Z</time>
      </trkpt>
      <trkpt lat="47.03441" lon="9.00691">
        <ele>852</ele>
        <time>2021-08-02T09:34:12.408Z</time>
      </trkpt>
      <trkpt lat="47.03441" lon="9.00692">
        <ele>851</ele>
        <time>2021-08-02T09:34:13.407Z</time>
      </trkpt>
      <trkpt lat="47.0344" lon="9.00691">
        <ele>851</ele>
        <time>2021-08-02T09:34:14.407Z</time>
      </trkpt>
      <trkpt lat="47.03439" lon="9.0069">
        <ele>852</ele>
        <time>2021-08-02T09:34:15.408Z</time>
      </trkpt>
      <trkpt lat="47.03437" lon="9.00689">
        <ele>852</ele>
        <time>2021-08-02T09:34:16.407Z</time>
      </trkpt>
      <trkpt lat="47.03436" lon="9.00687">
        <ele>852</ele>
        <time>2021-08-02T09:34:17.408Z</time>
      </trkpt>
      <trkpt lat="47.03435" lon="9.00686">
        <ele>852</ele>
        <time>2021-08-02T09:34:18.408Z</time>
      </trkpt>
      <trkpt lat="47.03434" lon="9.00685">
        <ele>852</ele>
        <time>2021-08-02T09:34:19.408Z</time>
      </trkpt>
      <trkpt lat="47.03434" lon="9.00686">
        <ele>853</ele>
        <time>2021-08-02T09:34:20.408Z</time>
      </trkpt>
      <trkpt lat="47.03433" lon="9.00685">
        <ele>853</ele>
        <time>2021-08-02T09:34:21.407Z</time>
      </trkpt>
      <trkpt lat="47.03432" lon="9.00684">
        <ele>853</ele>
        <time>2021-08-02T09:34:22.408Z</time>
      </trkpt>
      <trkpt lat="47.03432" lon="9.00684">
        <ele>853</ele>
        <time>2021-08-02T09:34:23.407Z</time>
      </trkpt>
      <trkpt lat="47.0343" lon="9.00683">
        <ele>853</ele>
        <time>2021-08-02T09:34:24.408Z</time>
      </trkpt>
      <trkpt lat="47.03429" lon="9.00682">
        <ele>853</ele>
        <time>2021-08-02T09:34:25.408Z</time>
      </trkpt>
      <trkpt lat="47.03428" lon="9.00682">
        <ele>853</ele>
        <time>2021-08-02T09:34:26.407Z</time>
      </trkpt>
      <trkpt lat="47.03427" lon="9.00682">
        <ele>854</ele>
        <time>2021-08-02T09:34:27.408Z</time>
      </trkpt>
      <trkpt lat="47.03424" lon="9.00681">
        <ele>854</ele>
        <time>2021-08-02T09:34:28.408Z</time>
      </trkpt>
      <trkpt lat="47.03422" lon="9.00681">
        <ele>854</ele>
        <time>2021-08-02T09:34:29.407Z</time>
      </trkpt>
      <trkpt lat="47.0342" lon="9.0068">
        <ele>854</ele>
        <time>2021-08-02T09:34:30.408Z</time>
      </trkpt>
      <trkpt lat="47.03419" lon="9.0068">
        <ele>855</ele>
        <time>2021-08-02T09:34:31.407Z</time>
      </trkpt>
      <trkpt lat="47.03418" lon="9.0068">
        <ele>855</ele>
        <time>2021-08-02T09:34:32.407Z</time>
      </trkpt>
      <trkpt lat="47.03416" lon="9.0068">
        <ele>855</ele>
        <time>2021-08-02T09:34:33.408Z</time>
      </trkpt>
      <trkpt lat="47.03415" lon="9.0068">
        <ele>856</ele>
        <time>2021-08-02T09:34:34.408Z</time>
      </trkpt>
      <trkpt lat="47.03414" lon="9.00679">
        <ele>856</ele>
        <time>2021-08-02T09:34:35.407Z</time>
      </trkpt>
      <trkpt lat="47.03413" lon="9.00679">
        <ele>857</ele>
        <time>2021-08-02T09:34:36.407Z</time>
      </trkpt>
      <trkpt lat="47.03412" lon="9.00679">
        <ele>857</ele>
        <time>2021-08-02T09:34:37.407Z</time>
      </trkpt>
      <trkpt lat="47.03411" lon="9.00679">
        <ele>857</ele>
        <time>2021-08-02T09:34:38.407Z</time>
      </trkpt>
      <trkpt lat="47.0341" lon="9.00678">
        <ele>857</ele>
        <time>2021-08-02T09:34:39.408Z</time>
      </trkpt>
      <trkpt lat="47.03409" lon="9.00678">
        <ele>857</ele>
        <time>2021-08-02T09:34:40.407Z</time>
      </trkpt>
      <trkpt lat="47.03409" lon="9.00678">
        <ele>857</ele>
        <time>2021-08-02T09:34:41.407Z</time>
      </trkpt>
      <trkpt lat="47.03409" lon="9.00678">
        <ele>857</ele>
        <time>2021-08-02T09:34:42.408Z</time>
      </trkpt>
      <trkpt lat="47.03409" lon="9.00678">
        <ele>857</ele>
        <time>2021-08-02T09:34:43.407Z</time>
      </trkpt>
      <trkpt lat="47.03409" lon="9.00678">
        <ele>857</ele>
        <time>2021-08-02T09:34:44.408Z</time>
      </trkpt>
      <trkpt lat="47.03409" lon="9.00678">
        <ele>856</ele>
        <time>2021-08-02T09:34:45.408Z</time>
      </trkpt>
      <trkpt lat="47.03409" lon="9.00679">
        <ele>856</ele>
        <time>2021-08-02T09:34:46.408Z</time>
      </trkpt>
      <trkpt lat="47.03409" lon="9.00679">
        <ele>855</ele>
        <time>2021-08-02T09:34:47.407Z</time>
      </trkpt>
      <trkpt lat="47.03409" lon="9.00679">
        <ele>854</ele>
        <time>2021-08-02T09:34:48.407Z</time>
      </trkpt>
      <trkpt lat="47.03408" lon="9.00679">
        <ele>853</ele>
        <time>2021-08-02T09:34:49.407Z</time>
      </trkpt>
      <trkpt lat="47.03408" lon="9.00678">
        <ele>853</ele>
        <time>2021-08-02T09:34:50.407Z</time>
      </trkpt>
      <trkpt lat="47.03408" lon="9.00677">
        <ele>852</ele>
        <time>2021-08-02T09:34:51.407Z</time>
      </trkpt>
      <trkpt lat="47.03408" lon="9.00676">
        <ele>851</ele>
        <time>2021-08-02T09:34:52.408Z</time>
      </trkpt>
      <trkpt lat="47.03408" lon="9.00675">
        <ele>851</ele>
        <time>2021-08-02T09:34:53.408Z</time>
      </trkpt>
      <trkpt lat="47.03407" lon="9.00674">
        <ele>851</ele>
        <time>2021-08-02T09:34:54.408Z</time>
      </trkpt>
      <trkpt lat="47.03407" lon="9.00673">
        <ele>851</ele>
        <time>2021-08-02T09:34:55.408Z</time>
      </trkpt>
      <trkpt lat="47.03406" lon="9.00672">
        <ele>851</ele>
        <time>2021-08-02T09:34:56.408Z</time>
      </trkpt>
      <trkpt lat="47.03405" lon="9.00671">
        <ele>850</ele>
        <time>2021-08-02T09:34:57.407Z</time>
      </trkpt>
      <trkpt lat="47.03404" lon="9.0067">
        <ele>850</ele>
        <time>2021-08-02T09:34:58.408Z</time>
      </trkpt>
      <trkpt lat="47.03403" lon="9.00669">
        <ele>850</ele>
        <time>2021-08-02T09:34:59.408Z</time>
      </trkpt>
      <trkpt lat="47.03402" lon="9.00669">
        <ele>849</ele>
        <time>2021-08-02T09:35:00.407Z</time>
      </trkpt>
      <trkpt lat="47.03402" lon="9.00668">
        <ele>849</ele>
        <time>2021-08-02T09:35:01.408Z</time>
      </trkpt>
      <trkpt lat="47.03401" lon="9.00668">
        <ele>849</ele>
        <time>2021-08-02T09:35:02.407Z</time>
      </trkpt>
      <trkpt lat="47.03402" lon="9.00669">
        <ele>849</ele>
        <time>2021-08-02T09:35:03.408Z</time>
      </trkpt>
      <trkpt lat="47.03401" lon="9.00669">
        <ele>848</ele>
        <time>2021-08-02T09:35:04.408Z</time>
      </trkpt>
      <trkpt lat="47.034" lon="9.00668">
        <ele>848</ele>
        <time>2021-08-02T09:35:05.408Z</time>
      </trkpt>
      <trkpt lat="47.034" lon="9.00668">
        <ele>848</ele>
        <time>2021-08-02T09:35:06.407Z</time>
      </trkpt>
      <trkpt lat="47.03399" lon="9.00668">
        <ele>849</ele>
        <time>2021-08-02T09:35:07.407Z</time>
      </trkpt>
      <trkpt lat="47.03398" lon="9.00667">
        <ele>849</ele>
        <time>2021-08-02T09:35:08.408Z</time>
      </trkpt>
      <trkpt lat="47.03397" lon="9.00666">
        <ele>849</ele>
        <time>2021-08-02T09:35:09.408Z</time>
      </trkpt>
      <trkpt lat="47.03396" lon="9.00666">
        <ele>849</ele>
        <time>2021-08-02T09:35:10.408Z</time>
      </trkpt>
      <trkpt lat="47.03396" lon="9.00666">
        <ele>850</ele>
        <time>2021-08-02T09:35:11.407Z</time>
      </trkpt>
      <trkpt lat="47.03394" lon="9.00665">
        <ele>850</ele>
        <time>2021-08-02T09:35:12.408Z</time>
      </trkpt>
      <trkpt lat="47.03393" lon="9.00665">
        <ele>851</ele>
        <time>2021-08-02T09:35:13.408Z</time>
      </trkpt>
      <trkpt lat="47.03393" lon="9.00665">
        <ele>851</ele>
        <time>2021-08-02T09:35:14.408Z</time>
      </trkpt>
      <trkpt lat="47.03392" lon="9.00665">
        <ele>852</ele>
        <time>2021-08-02T09:35:15.408Z</time>
      </trkpt>
      <trkpt lat="47.03391" lon="9.00664">
        <ele>852</ele>
        <time>2021-08-02T09:35:16.407Z</time>
      </trkpt>
      <trkpt lat="47.0339" lon="9.00664">
        <ele>852</ele>
        <time>2021-08-02T09:35:17.408Z</time>
      </trkpt>
      <trkpt lat="47.03389" lon="9.00664">
        <ele>852</ele>
        <time>2021-08-02T09:35:18.408Z</time>
      </trkpt>
      <trkpt lat="47.03388" lon="9.00664">
        <ele>852</ele>
        <time>2021-08-02T09:35:19.408Z</time>
      </trkpt>
      <trkpt lat="47.03388" lon="9.00664">
        <ele>852</ele>
        <time>2021-08-02T09:35:20.408Z</time>
      </trkpt>
      <trkpt lat="47.03387" lon="9.00664">
        <ele>852</ele>
        <time>2021-08-02T09:35:21.408Z</time>
      </trkpt>
      <trkpt lat="47.03386" lon="9.00663">
        <ele>852</ele>
        <time>2021-08-02T09:35:22.407Z</time>
      </trkpt>
      <trkpt lat="47.03385" lon="9.00663">
        <ele>853</ele>
        <time>2021-08-02T09:35:23.408Z</time>
      </trkpt>
      <trkpt lat="47.03383" lon="9.00663">
        <ele>853</ele>
        <time>2021-08-02T09:35:24.407Z</time>
      </trkpt>
      <trkpt lat="47.03382" lon="9.00662">
        <ele>853</ele>
        <time>2021-08-02T09:35:25.408Z</time>
      </trkpt>
      <trkpt lat="47.03381" lon="9.00662">
        <ele>852</ele>
        <time>2021-08-02T09:35:26.408Z</time>
      </trkpt>
      <trkpt lat="47.0338" lon="9.00662">
        <ele>852</ele>
        <time>2021-08-02T09:35:27.407Z</time>
      </trkpt>
      <trkpt lat="47.03379" lon="9.00661">
        <ele>852</ele>
        <time>2021-08-02T09:35:28.407Z</time>
      </trkpt>
      <trkpt lat="47.03378" lon="9.00661">
        <ele>852</ele>
        <time>2021-08-02T09:35:29.407Z</time>
      </trkpt>
      <trkpt lat="47.03377" lon="9.00661">
        <ele>852</ele>
        <time>2021-08-02T09:35:30.407Z</time>
      </trkpt>
      <trkpt lat="47.03376" lon="9.0066">
        <ele>852</ele>
        <time>2021-08-02T09:35:31.408Z</time>
      </trkpt>
      <trkpt lat="47.03375" lon="9.0066">
        <ele>851</ele>
        <time>2021-08-02T09:35:32.408Z</time>
      </trkpt>
      <trkpt lat="47.03374" lon="9.0066">
        <ele>851</ele>
        <time>2021-08-02T09:35:33.408Z</time>
      </trkpt>
      <trkpt lat="47.03373" lon="9.0066">
        <ele>851</ele>
        <time>2021-08-02T09:35:34.408Z</time>
      </trkpt>
      <trkpt lat="47.03371" lon="9.00659">
        <ele>851</ele>
        <time>2021-08-02T09:35:35.408Z</time>
      </trkpt>
      <trkpt lat="47.0337" lon="9.00659">
        <ele>851</ele>
        <time>2021-08-02T09:35:36.407Z</time>
      </trkpt>
      <trkpt lat="47.03369" lon="9.00659">
        <ele>851</ele>
        <time>2021-08-02T09:35:37.408Z</time>
      </trkpt>
      <trkpt lat="47.03368" lon="9.00659">
        <ele>852</ele>
        <time>2021-08-02T09:35:38.407Z</time>
      </trkpt>
      <trkpt lat="47.03367" lon="9.00659">
        <ele>852</ele>
        <time>2021-08-02T09:35:39.407Z</time>
      </trkpt>
      <trkpt lat="47.03367" lon="9.00658">
        <ele>852</ele>
        <time>2021-08-02T09:35:40.408Z</time>
      </trkpt>
      <trkpt lat="47.03366" lon="9.00658">
        <ele>853</ele>
        <time>2021-08-02T09:35:41.407Z</time>
      </trkpt>
      <trkpt lat="47.03365" lon="9.00658">
        <ele>853</ele>
        <time>2021-08-02T09:35:42.408Z</time>
      </trkpt>
      <trkpt lat="47.03364" lon="9.00658">
        <ele>853</ele>
        <time>2021-08-02T09:35:43.408Z</time>
      </trkpt>
      <trkpt lat="47.03362" lon="9.00657">
        <ele>853</ele>
        <time>2021-08-02T09:35:44.407Z</time>
      </trkpt>
      <trkpt lat="47.03362" lon="9.00656">
        <ele>854</ele>
        <time>2021-08-02T09:35:45.407Z</time>
      </trkpt>
      <trkpt lat="47.03361" lon="9.00655">
        <ele>854</ele>
        <time>2021-08-02T09:35:46.408Z</time>
      </trkpt>
      <trkpt lat="47.0336" lon="9.00655">
        <ele>855</ele>
        <time>2021-08-02T09:35:47.408Z</time>
      </trkpt>
      <trkpt lat="47.03359" lon="9.00655">
        <ele>855</ele>
        <time>2021-08-02T09:35:48.407Z</time>
      </trkpt>
      <trkpt lat="47.03358" lon="9.00655">
        <ele>856</ele>
        <time>2021-08-02T09:35:49.407Z</time>
      </trkpt>
      <trkpt lat="47.03357" lon="9.00655">
        <ele>856</ele>
        <time>2021-08-02T09:35:50.407Z</time>
      </trkpt>
      <trkpt lat="47.03356" lon="9.00654">
        <ele>856</ele>
        <time>2021-08-02T09:35:51.407Z</time>
      </trkpt>
      <trkpt lat="47.03355" lon="9.00654">
        <ele>857</ele>
        <time>2021-08-02T09:35:52.407Z</time>
      </trkpt>
      <trkpt lat="47.03353" lon="9.00654">
        <ele>857</ele>
        <time>2021-08-02T09:35:53.407Z</time>
      </trkpt>
      <trkpt lat="47.03352" lon="9.00654">
        <ele>857</ele>
        <time>2021-08-02T09:35:54.407Z</time>
      </trkpt>
      <trkpt lat="47.0335" lon="9.00654">
        <ele>857</ele>
        <time>2021-08-02T09:35:55.407Z</time>
      </trkpt>
      <trkpt lat="47.03349" lon="9.00653">
        <ele>857</ele>
        <time>2021-08-02T09:35:56.408Z</time>
      </trkpt>
      <trkpt lat="47.03348" lon="9.00653">
        <ele>857</ele>
        <time>2021-08-02T09:35:57.408Z</time>
      </trkpt>
      <trkpt lat="47.03347" lon="9.00653">
        <ele>857</ele>
        <time>2021-08-02T09:35:58.408Z</time>
      </trkpt>
      <trkpt lat="47.03345" lon="9.00653">
        <ele>857</ele>
        <time>2021-08-02T09:35:59.407Z</time>
      </trkpt>
      <trkpt lat="47.03344" lon="9.00652">
        <ele>858</ele>
        <time>2021-08-02T09:36:00.408Z</time>
      </trkpt>
      <trkpt lat="47.03343" lon="9.00652">
        <ele>858</ele>
        <time>2021-08-02T09:36:01.408Z</time>
      </trkpt>
      <trkpt lat="47.03342" lon="9.00652">
        <ele>858</ele>
        <time>2021-08-02T09:36:02.408Z</time>
      </trkpt>
      <trkpt lat="47.0334" lon="9.00652">
        <ele>858</ele>
        <time>2021-08-02T09:36:03.408Z</time>
      </trkpt>
      <trkpt lat="47.03339" lon="9.00651">
        <ele>859</ele>
        <time>2021-08-02T09:36:04.407Z</time>
      </trkpt>
      <trkpt lat="47.03338" lon="9.00651">
        <ele>859</ele>
        <time>2021-08-02T09:36:05.408Z</time>
      </trkpt>
      <trkpt lat="47.03337" lon="9.00651">
        <ele>859</ele>
        <time>2021-08-02T09:36:06.408Z</time>
      </trkpt>
      <trkpt lat="47.03336" lon="9.00651">
        <ele>859</ele>
        <time>2021-08-02T09:36:07.407Z</time>
      </trkpt>
      <trkpt lat="47.03335" lon="9.00651">
        <ele>858</ele>
        <time>2021-08-02T09:36:08.408Z</time>
      </trkpt>
      <trkpt lat="47.03335" lon="9.00652">
        <ele>857</ele>
        <time>2021-08-02T09:36:09.408Z</time>
      </trkpt>
      <trkpt lat="47.03335" lon="9.00652">
        <ele>857</ele>
        <time>2021-08-02T09:36:10.408Z</time>
      </trkpt>
      <trkpt lat="47.03333" lon="9.00652">
        <ele>856</ele>
        <time>2021-08-02T09:36:11.407Z</time>
      </trkpt>
      <trkpt lat="47.03333" lon="9.00652">
        <ele>855</ele>
        <time>2021-08-02T09:36:12.408Z</time>
      </trkpt>
      <trkpt lat="47.03332" lon="9.00651">
        <ele>855</ele>
        <time>2021-08-02T09:36:13.408Z</time>
      </trkpt>
      <trkpt lat="47.0333" lon="9.00651">
        <ele>855</ele>
        <time>2021-08-02T09:36:14.407Z</time>
      </trkpt>
      <trkpt lat="47.03329" lon="9.00651">
        <ele>854</ele>
        <time>2021-08-02T09:36:15.407Z</time>
      </trkpt>
      <trkpt lat="47.03327" lon="9.0065">
        <ele>854</ele>
        <time>2021-08-02T09:36:16.408Z</time>
      </trkpt>
      <trkpt lat="47.03326" lon="9.0065">
        <ele>854</ele>
        <time>2021-08-02T09:36:17.408Z</time>
      </trkpt>
      <trkpt lat="47.03325" lon="9.00649">
        <ele>855</ele>
        <time>2021-08-02T09:36:18.408Z</time>
      </trkpt>
      <trkpt lat="47.03325" lon="9.00649">
        <ele>855</ele>
        <time>2021-08-02T09:36:19.407Z</time>
      </trkpt>
      <trkpt lat="47.03324" lon="9.00648">
        <ele>855</ele>
        <time>2021-08-02T09:36:20.408Z</time>
      </trkpt>
      <trkpt lat="47.03323" lon="9.00648">
        <ele>855</ele>
        <time>2021-08-02T09:36:21.408Z</time>
      </trkpt>
      <trkpt lat="47.03322" lon="9.00647">
        <ele>854</ele>
        <time>2021-08-02T09:36:22.408Z</time>
      </trkpt>
      <trkpt lat="47.0332" lon="9.00647">
        <ele>854</ele>
        <time>2021-08-02T09:36:23.407Z</time>
      </trkpt>
      <trkpt lat="47.0332" lon="9.00647">
        <ele>854</ele>
        <time>2021-08-02T09:36:24.408Z</time>
      </trkpt>
      <trkpt lat="47.03319" lon="9.00646">
        <ele>854</ele>
        <time>2021-08-02T09:36:25.408Z</time>
      </trkpt>
      <trkpt lat="47.03319" lon="9.00645">
        <ele>854</ele>
        <time>2021-08-02T09:36:26.407Z</time>
      </trkpt>
      <trkpt lat="47.03318" lon="9.00644">
        <ele>854</ele>
        <time>2021-08-02T09:36:27.408Z</time>
      </trkpt>
      <trkpt lat="47.03318" lon="9.00644">
        <ele>854</ele>
        <time>2021-08-02T09:36:28.408Z</time>
      </trkpt>
      <trkpt lat="47.03317" lon="9.00643">
        <ele>854</ele>
        <time>2021-08-02T09:36:29.408Z</time>
      </trkpt>
      <trkpt lat="47.03316" lon="9.00642">
        <ele>854</ele>
        <time>2021-08-02T09:36:30.408Z</time>
      </trkpt>
      <trkpt lat="47.03316" lon="9.00641">
        <ele>854</ele>
        <time>2021-08-02T09:36:31.407Z</time>
      </trkpt>
      <trkpt lat="47.03315" lon="9.00641">
        <ele>853</ele>
        <time>2021-08-02T09:36:32.408Z</time>
      </trkpt>
      <trkpt lat="47.03315" lon="9.0064">
        <ele>853</ele>
        <time>2021-08-02T09:36:33.408Z</time>
      </trkpt>
      <trkpt lat="47.03314" lon="9.00639">
        <ele>853</ele>
        <time>2021-08-02T09:36:34.408Z</time>
      </trkpt>
      <trkpt lat="47.03313" lon="9.00639">
        <ele>852</ele>
        <time>2021-08-02T09:36:35.407Z</time>
      </trkpt>
      <trkpt lat="47.03312" lon="9.00637">
        <ele>852</ele>
        <time>2021-08-02T09:36:36.408Z</time>
      </trkpt>
      <trkpt lat="47.03311" lon="9.00635">
        <ele>852</ele>
        <time>2021-08-02T09:36:37.407Z</time>
      </trkpt>
      <trkpt lat="47.0331" lon="9.00634">
        <ele>852</ele>
        <time>2021-08-02T09:36:38.407Z</time>
      </trkpt>
      <trkpt lat="47.0331" lon="9.00633">
        <ele>852</ele>
        <time>2021-08-02T09:36:39.408Z</time>
      </trkpt>
      <trkpt lat="47.03309" lon="9.00632">
        <ele>852</ele>
        <time>2021-08-02T09:36:40.407Z</time>
      </trkpt>
      <trkpt lat="47.03308" lon="9.00631">
        <ele>852</ele>
        <time>2021-08-02T09:36:41.408Z</time>
      </trkpt>
      <trkpt lat="47.03307" lon="9.0063">
        <ele>852</ele>
        <time>2021-08-02T09:36:42.408Z</time>
      </trkpt>
      <trkpt lat="47.03307" lon="9.00629">
        <ele>852</ele>
        <time>2021-08-02T09:36:43.407Z</time>
      </trkpt>
      <trkpt lat="47.03306" lon="9.00629">
        <ele>852</ele>
        <time>2021-08-02T09:36:44.407Z</time>
      </trkpt>
      <trkpt lat="47.03305" lon="9.00628">
        <ele>851</ele>
        <time>2021-08-02T09:36:45.408Z</time>
      </trkpt>
      <trkpt lat="47.03304" lon="9.00628">
        <ele>851</ele>
        <time>2021-08-02T09:36:46.407Z</time>
      </trkpt>
      <trkpt lat="47.03303" lon="9.00627">
        <ele>851</ele>
        <time>2021-08-02T09:36:47.408Z</time>
      </trkpt>
      <trkpt lat="47.03302" lon="9.00626">
        <ele>851</ele>
        <time>2021-08-02T09:36:48.407Z</time>
      </trkpt>
      <trkpt lat="47.03301" lon="9.00625">
        <ele>851</ele>
        <time>2021-08-02T09:36:49.408Z</time>
      </trkpt>
      <trkpt lat="47.033" lon="9.00625">
        <ele>851</ele>
        <time>2021-08-02T09:36:50.407Z</time>
      </trkpt>
      <trkpt lat="47.03298" lon="9.00624">
        <ele>851</ele>
        <time>2021-08-02T09:36:51.407Z</time>
      </trkpt>
      <trkpt lat="47.03297" lon="9.00624">
        <ele>852</ele>
        <time>2021-08-02T09:36:52.407Z</time>
      </trkpt>
      <trkpt lat="47.03296" lon="9.00623">
        <ele>852</ele>
        <time>2021-08-02T09:36:53.407Z</time>
      </trkpt>
      <trkpt lat="47.03295" lon="9.00623">
        <ele>852</ele>
        <time>2021-08-02T09:36:54.407Z</time>
      </trkpt>
      <trkpt lat="47.03295" lon="9.00622">
        <ele>851</ele>
        <time>2021-08-02T09:36:55.407Z</time>
      </trkpt>
      <trkpt lat="47.03296" lon="9.00619">
        <ele>851</ele>
        <time>2021-08-02T09:36:56.407Z</time>
      </trkpt>
      <trkpt lat="47.03295" lon="9.00618">
        <ele>851</ele>
        <time>2021-08-02T09:36:57.407Z</time>
      </trkpt>
      <trkpt lat="47.03295" lon="9.00617">
        <ele>851</ele>
        <time>2021-08-02T09:36:58.407Z</time>
      </trkpt>
      <trkpt lat="47.03294" lon="9.00616">
        <ele>851</ele>
        <time>2021-08-02T09:36:59.408Z</time>
      </trkpt>
      <trkpt lat="47.03293" lon="9.00616">
        <ele>851</ele>
        <time>2021-08-02T09:37:00.407Z</time>
      </trkpt>
      <trkpt lat="47.03292" lon="9.00615">
        <ele>851</ele>
        <time>2021-08-02T09:37:01.408Z</time>
      </trkpt>
      <trkpt lat="47.03291" lon="9.00614">
        <ele>851</ele>
        <time>2021-08-02T09:37:02.408Z</time>
      </trkpt>
      <trkpt lat="47.0329" lon="9.00614">
        <ele>851</ele>
        <time>2021-08-02T09:37:03.407Z</time>
      </trkpt>
      <trkpt lat="47.03288" lon="9.00613">
        <ele>851</ele>
        <time>2021-08-02T09:37:04.408Z</time>
      </trkpt>
      <trkpt lat="47.03287" lon="9.00612">
        <ele>852</ele>
        <time>2021-08-02T09:37:05.408Z</time>
      </trkpt>
      <trkpt lat="47.03286" lon="9.00612">
        <ele>852</ele>
        <time>2021-08-02T09:37:06.407Z</time>
      </trkpt>
      <trkpt lat="47.03286" lon="9.00611">
        <ele>851</ele>
        <time>2021-08-02T09:37:07.408Z</time>
      </trkpt>
      <trkpt lat="47.03285" lon="9.00611">
        <ele>851</ele>
        <time>2021-08-02T09:37:08.408Z</time>
      </trkpt>
      <trkpt lat="47.03284" lon="9.0061">
        <ele>851</ele>
        <time>2021-08-02T09:37:09.408Z</time>
      </trkpt>
      <trkpt lat="47.03283" lon="9.00609">
        <ele>851</ele>
        <time>2021-08-02T09:37:10.408Z</time>
      </trkpt>
      <trkpt lat="47.03282" lon="9.00608">
        <ele>851</ele>
        <time>2021-08-02T09:37:11.408Z</time>
      </trkpt>
      <trkpt lat="47.03281" lon="9.00607">
        <ele>851</ele>
        <time>2021-08-02T09:37:12.407Z</time>
      </trkpt>
      <trkpt lat="47.0328" lon="9.00606">
        <ele>851</ele>
        <time>2021-08-02T09:37:13.408Z</time>
      </trkpt>
      <trkpt lat="47.03279" lon="9.00605">
        <ele>851</ele>
        <time>2021-08-02T09:37:14.408Z</time>
      </trkpt>
      <trkpt lat="47.03278" lon="9.00605">
        <ele>851</ele>
        <time>2021-08-02T09:37:15.407Z</time>
      </trkpt>
      <trkpt lat="47.03277" lon="9.00603">
        <ele>850</ele>
        <time>2021-08-02T09:37:16.408Z</time>
      </trkpt>
      <trkpt lat="47.03276" lon="9.00602">
        <ele>850</ele>
        <time>2021-08-02T09:37:17.408Z</time>
      </trkpt>
      <trkpt lat="47.03276" lon="9.00601">
        <ele>850</ele>
        <time>2021-08-02T09:37:18.408Z</time>
      </trkpt>
      <trkpt lat="47.03275" lon="9.006">
        <ele>850</ele>
        <time>2021-08-02T09:37:19.408Z</time>
      </trkpt>
      <trkpt lat="47.03274" lon="9.00599">
        <ele>850</ele>
        <time>2021-08-02T09:37:20.408Z</time>
      </trkpt>
      <trkpt lat="47.03274" lon="9.00597">
        <ele>849</ele>
        <time>2021-08-02T09:37:21.408Z</time>
      </trkpt>
      <trkpt lat="47.03273" lon="9.00596">
        <ele>849</ele>
        <time>2021-08-02T09:37:22.407Z</time>
      </trkpt>
      <trkpt lat="47.03273" lon="9.00595">
        <ele>849</ele>
        <time>2021-08-02T09:37:23.408Z</time>
      </trkpt>
      <trkpt lat="47.03272" lon="9.00593">
        <ele>849</ele>
        <time>2021-08-02T09:37:24.408Z</time>
      </trkpt>
      <trkpt lat="47.03271" lon="9.00592">
        <ele>849</ele>
        <time>2021-08-02T09:37:25.408Z</time>
      </trkpt>
      <trkpt lat="47.03271" lon="9.00591">
        <ele>848</ele>
        <time>2021-08-02T09:37:26.408Z</time>
      </trkpt>
      <trkpt lat="47.0327" lon="9.00591">
        <ele>848</ele>
        <time>2021-08-02T09:37:27.407Z</time>
      </trkpt>
      <trkpt lat="47.03269" lon="9.0059">
        <ele>848</ele>
        <time>2021-08-02T09:37:28.407Z</time>
      </trkpt>
      <trkpt lat="47.03268" lon="9.00589">
        <ele>848</ele>
        <time>2021-08-02T09:37:29.408Z</time>
      </trkpt>
      <trkpt lat="47.03267" lon="9.00588">
        <ele>847</ele>
        <time>2021-08-02T09:37:30.408Z</time>
      </trkpt>
      <trkpt lat="47.03266" lon="9.00587">
        <ele>847</ele>
        <time>2021-08-02T09:37:31.408Z</time>
      </trkpt>
      <trkpt lat="47.03266" lon="9.00586">
        <ele>848</ele>
        <time>2021-08-02T09:37:32.408Z</time>
      </trkpt>
      <trkpt lat="47.03265" lon="9.00585">
        <ele>848</ele>
        <time>2021-08-02T09:37:33.407Z</time>
      </trkpt>
      <trkpt lat="47.03264" lon="9.00584">
        <ele>848</ele>
        <time>2021-08-02T09:37:34.408Z</time>
      </trkpt>
      <trkpt lat="47.03263" lon="9.00583">
        <ele>848</ele>
        <time>2021-08-02T09:37:35.408Z</time>
      </trkpt>
      <trkpt lat="47.03262" lon="9.00582">
        <ele>848</ele>
        <time>2021-08-02T09:37:36.407Z</time>
      </trkpt>
      <trkpt lat="47.03261" lon="9.00581">
        <ele>848</ele>
        <time>2021-08-02T09:37:37.408Z</time>
      </trkpt>
      <trkpt lat="47.03261" lon="9.0058">
        <ele>848</ele>
        <time>2021-08-02T09:37:38.408Z</time>
      </trkpt>
      <trkpt lat="47.0326" lon="9.00579">
        <ele>848</ele>
        <time>2021-08-02T09:37:39.407Z</time>
      </trkpt>
      <trkpt lat="47.03259" lon="9.00579">
        <ele>848</ele>
        <time>2021-08-02T09:37:40.408Z</time>
      </trkpt>
      <trkpt lat="47.03258" lon="9.00578">
        <ele>848</ele>
        <time>2021-08-02T09:37:41.407Z</time>
      </trkpt>
      <trkpt lat="47.03257" lon="9.00577">
        <ele>848</ele>
        <time>2021-08-02T09:37:42.407Z</time>
      </trkpt>
      <trkpt lat="47.03256" lon="9.00576">
        <ele>849</ele>
        <time>2021-08-02T09:37:43.408Z</time>
      </trkpt>
      <trkpt lat="47.03255" lon="9.00576">
        <ele>849</ele>
        <time>2021-08-02T09:37:44.408Z</time>
      </trkpt>
      <trkpt lat="47.03254" lon="9.00576">
        <ele>849</ele>
        <time>2021-08-02T09:37:45.408Z</time>
      </trkpt>
      <trkpt lat="47.03252" lon="9.00577">
        <ele>849</ele>
        <time>2021-08-02T09:37:46.407Z</time>
      </trkpt>
      <trkpt lat="47.03251" lon="9.00577">
        <ele>850</ele>
        <time>2021-08-02T09:37:47.408Z</time>
      </trkpt>
      <trkpt lat="47.0325" lon="9.00577">
        <ele>850</ele>
        <time>2021-08-02T09:37:48.408Z</time>
      </trkpt>
      <trkpt lat="47.0325" lon="9.00577">
        <ele>849</ele>
        <time>2021-08-02T09:37:49.408Z</time>
      </trkpt>
      <trkpt lat="47.0325" lon="9.00576">
        <ele>849</ele>
        <time>2021-08-02T09:37:50.408Z</time>
      </trkpt>
      <trkpt lat="47.03249" lon="9.00575">
        <ele>849</ele>
        <time>2021-08-02T09:37:51.408Z</time>
      </trkpt>
      <trkpt lat="47.03248" lon="9.00574">
        <ele>849</ele>
        <time>2021-08-02T09:37:52.408Z</time>
      </trkpt>
      <trkpt lat="47.03247" lon="9.00574">
        <ele>849</ele>
        <time>2021-08-02T09:37:53.407Z</time>
      </trkpt>
      <trkpt lat="47.03246" lon="9.00573">
        <ele>849</ele>
        <time>2021-08-02T09:37:54.407Z</time>
      </trkpt>
      <trkpt lat="47.03246" lon="9.00573">
        <ele>849</ele>
        <time>2021-08-02T09:37:55.407Z</time>
      </trkpt>
      <trkpt lat="47.03245" lon="9.00573">
        <ele>849</ele>
        <time>2021-08-02T09:37:56.408Z</time>
      </trkpt>
      <trkpt lat="47.03245" lon="9.00573">
        <ele>848</ele>
        <time>2021-08-02T09:37:57.407Z</time>
      </trkpt>
      <trkpt lat="47.03245" lon="9.00573">
        <ele>848</ele>
        <time>2021-08-02T09:37:58.408Z</time>
      </trkpt>
      <trkpt lat="47.03242" lon="9.00573">
        <ele>848</ele>
        <time>2021-08-02T09:37:59.408Z</time>
      </trkpt>
      <trkpt lat="47.03241" lon="9.00572">
        <ele>848</ele>
        <time>2021-08-02T09:38:00.408Z</time>
      </trkpt>
      <trkpt lat="47.0324" lon="9.00571">
        <ele>848</ele>
        <time>2021-08-02T09:38:01.407Z</time>
      </trkpt>
      <trkpt lat="47.03239" lon="9.0057">
        <ele>848</ele>
        <time>2021-08-02T09:38:02.408Z</time>
      </trkpt>
      <trkpt lat="47.03239" lon="9.00568">
        <ele>847</ele>
        <time>2021-08-02T09:38:03.408Z</time>
      </trkpt>
      <trkpt lat="47.03238" lon="9.00568">
        <ele>847</ele>
        <time>2021-08-02T09:38:04.408Z</time>
      </trkpt>
      <trkpt lat="47.03237" lon="9.00568">
        <ele>848</ele>
        <time>2021-08-02T09:38:05.407Z</time>
      </trkpt>
      <trkpt lat="47.03236" lon="9.00567">
        <ele>848</ele>
        <time>2021-08-02T09:38:06.408Z</time>
      </trkpt>
      <trkpt lat="47.03235" lon="9.00566">
        <ele>849</ele>
        <time>2021-08-02T09:38:07.407Z</time>
      </trkpt>
      <trkpt lat="47.03234" lon="9.00566">
        <ele>849</ele>
        <time>2021-08-02T09:38:08.407Z</time>
      </trkpt>
      <trkpt lat="47.03233" lon="9.00565">
        <ele>850</ele>
        <time>2021-08-02T09:38:09.408Z</time>
      </trkpt>
      <trkpt lat="47.03232" lon="9.00563">
        <ele>850</ele>
        <time>2021-08-02T09:38:10.408Z</time>
      </trkpt>
      <trkpt lat="47.03231" lon="9.00562">
        <ele>851</ele>
        <time>2021-08-02T09:38:11.408Z</time>
      </trkpt>
      <trkpt lat="47.0323" lon="9.0056">
        <ele>851</ele>
        <time>2021-08-02T09:38:12.407Z</time>
      </trkpt>
      <trkpt lat="47.03228" lon="9.00559">
        <ele>851</ele>
        <time>2021-08-02T09:38:13.408Z</time>
      </trkpt>
      <trkpt lat="47.03227" lon="9.00558">
        <ele>852</ele>
        <time>2021-08-02T09:38:14.408Z</time>
      </trkpt>
      <trkpt lat="47.03226" lon="9.00556">
        <ele>852</ele>
        <time>2021-08-02T09:38:15.408Z</time>
      </trkpt>
      <trkpt lat="47.03225" lon="9.00555">
        <ele>852</ele>
        <time>2021-08-02T09:38:16.408Z</time>
      </trkpt>
      <trkpt lat="47.03224" lon="9.00554">
        <ele>852</ele>
        <time>2021-08-02T09:38:17.408Z</time>
      </trkpt>
      <trkpt lat="47.03223" lon="9.00552">
        <ele>852</ele>
        <time>2021-08-02T09:38:18.408Z</time>
      </trkpt>
      <trkpt lat="47.03223" lon="9.00551">
        <ele>852</ele>
        <time>2021-08-02T09:38:19.407Z</time>
      </trkpt>
      <trkpt lat="47.03222" lon="9.00549">
        <ele>852</ele>
        <time>2021-08-02T09:38:20.408Z</time>
      </trkpt>
      <trkpt lat="47.03221" lon="9.00548">
        <ele>852</ele>
        <time>2021-08-02T09:38:21.408Z</time>
      </trkpt>
      <trkpt lat="47.0322" lon="9.00547">
        <ele>852</ele>
        <time>2021-08-02T09:38:22.407Z</time>
      </trkpt>
      <trkpt lat="47.03219" lon="9.00546">
        <ele>852</ele>
        <time>2021-08-02T09:38:23.407Z</time>
      </trkpt>
      <trkpt lat="47.03217" lon="9.00545">
        <ele>852</ele>
        <time>2021-08-02T09:38:24.407Z</time>
      </trkpt>
      <trkpt lat="47.03216" lon="9.00544">
        <ele>851</ele>
        <time>2021-08-02T09:38:25.407Z</time>
      </trkpt>
      <trkpt lat="47.03216" lon="9.00543">
        <ele>851</ele>
        <time>2021-08-02T09:38:26.407Z</time>
      </trkpt>
      <trkpt lat="47.03216" lon="9.00541">
        <ele>851</ele>
        <time>2021-08-02T09:38:27.408Z</time>
      </trkpt>
      <trkpt lat="47.03215" lon="9.0054">
        <ele>851</ele>
        <time>2021-08-02T09:38:28.408Z</time>
      </trkpt>
      <trkpt lat="47.03214" lon="9.00539">
        <ele>851</ele>
        <time>2021-08-02T09:38:29.408Z</time>
      </trkpt>
      <trkpt lat="47.03214" lon="9.00539">
        <ele>851</ele>
        <time>2021-08-02T09:38:30.408Z</time>
      </trkpt>
      <trkpt lat="47.03213" lon="9.00538">
        <ele>851</ele>
        <time>2021-08-02T09:38:31.407Z</time>
      </trkpt>
      <trkpt lat="47.03212" lon="9.00537">
        <ele>851</ele>
        <time>2021-08-02T09:38:32.407Z</time>
      </trkpt>
      <trkpt lat="47.03212" lon="9.00536">
        <ele>850</ele>
        <time>2021-08-02T09:38:33.407Z</time>
      </trkpt>
      <trkpt lat="47.03211" lon="9.00535">
        <ele>850</ele>
        <time>2021-08-02T09:38:34.407Z</time>
      </trkpt>
      <trkpt lat="47.0321" lon="9.00535">
        <ele>850</ele>
        <time>2021-08-02T09:38:35.407Z</time>
      </trkpt>
      <trkpt lat="47.03209" lon="9.00534">
        <ele>850</ele>
        <time>2021-08-02T09:38:36.408Z</time>
      </trkpt>
      <trkpt lat="47.03208" lon="9.00533">
        <ele>850</ele>
        <time>2021-08-02T09:38:37.407Z</time>
      </trkpt>
      <trkpt lat="47.03208" lon="9.00532">
        <ele>850</ele>
        <time>2021-08-02T09:38:38.407Z</time>
      </trkpt>
      <trkpt lat="47.03207" lon="9.0053">
        <ele>850</ele>
        <time>2021-08-02T09:38:39.407Z</time>
      </trkpt>
      <trkpt lat="47.03206" lon="9.00529">
        <ele>850</ele>
        <time>2021-08-02T09:38:40.408Z</time>
      </trkpt>
      <trkpt lat="47.03205" lon="9.00528">
        <ele>850</ele>
        <time>2021-08-02T09:38:41.408Z</time>
      </trkpt>
      <trkpt lat="47.03205" lon="9.00527">
        <ele>850</ele>
        <time>2021-08-02T09:38:42.407Z</time>
      </trkpt>
      <trkpt lat="47.03204" lon="9.00526">
        <ele>850</ele>
        <time>2021-08-02T09:38:43.408Z</time>
      </trkpt>
      <trkpt lat="47.03204" lon="9.00525">
        <ele>851</ele>
        <time>2021-08-02T09:38:44.408Z</time>
      </trkpt>
      <trkpt lat="47.03203" lon="9.00524">
        <ele>851</ele>
        <time>2021-08-02T09:38:45.407Z</time>
      </trkpt>
      <trkpt lat="47.03203" lon="9.00523">
        <ele>852</ele>
        <time>2021-08-02T09:38:46.408Z</time>
      </trkpt>
      <trkpt lat="47.03202" lon="9.00522">
        <ele>852</ele>
        <time>2021-08-02T09:38:47.408Z</time>
      </trkpt>
      <trkpt lat="47.03202" lon="9.00521">
        <ele>852</ele>
        <time>2021-08-02T09:38:48.407Z</time>
      </trkpt>
      <trkpt lat="47.03202" lon="9.00519">
        <ele>853</ele>
        <time>2021-08-02T09:38:49.407Z</time>
      </trkpt>
      <trkpt lat="47.03201" lon="9.00517">
        <ele>853</ele>
        <time>2021-08-02T09:38:50.407Z</time>
      </trkpt>
      <trkpt lat="47.032" lon="9.00516">
        <ele>853</ele>
        <time>2021-08-02T09:38:51.408Z</time>
      </trkpt>
      <trkpt lat="47.03199" lon="9.00516">
        <ele>853</ele>
        <time>2021-08-02T09:38:52.407Z</time>
      </trkpt>
      <trkpt lat="47.03199" lon="9.00515">
        <ele>854</ele>
        <time>2021-08-02T09:38:53.407Z</time>
      </trkpt>
      <trkpt lat="47.03198" lon="9.00513">
        <ele>854</ele>
        <time>2021-08-02T09:38:54.408Z</time>
      </trkpt>
      <trkpt lat="47.03198" lon="9.00512">
        <ele>854</ele>
        <time>2021-08-02T09:38:55.408Z</time>
      </trkpt>
      <trkpt lat="47.03197" lon="9.0051">
        <ele>854</ele>
        <time>2021-08-02T09:38:56.407Z</time>
      </trkpt>
      <trkpt lat="47.03197" lon="9.00508">
        <ele>853</ele>
        <time>2021-08-02T09:38:57.407Z</time>
      </trkpt>
      <trkpt lat="47.03196" lon="9.00506">
        <ele>853</ele>
        <time>2021-08-02T09:38:58.407Z</time>
      </trkpt>
      <trkpt lat="47.03196" lon="9.00504">
        <ele>853</ele>
        <time>2021-08-02T09:38:59.407Z</time>
      </trkpt>
      <trkpt lat="47.03196" lon="9.00503">
        <ele>852</ele>
        <time>2021-08-02T09:39:00.407Z</time>
      </trkpt>
      <trkpt lat="47.03196" lon="9.00502">
        <ele>852</ele>
        <time>2021-08-02T09:39:01.407Z</time>
      </trkpt>
      <trkpt lat="47.03196" lon="9.005">
        <ele>852</ele>
        <time>2021-08-02T09:39:02.407Z</time>
      </trkpt>
      <trkpt lat="47.03197" lon="9.00499">
        <ele>852</ele>
        <time>2021-08-02T09:39:03.407Z</time>
      </trkpt>
      <trkpt lat="47.03196" lon="9.00497">
        <ele>852</ele>
        <time>2021-08-02T09:39:04.407Z</time>
      </trkpt>
      <trkpt lat="47.03195" lon="9.00496">
        <ele>851</ele>
        <time>2021-08-02T09:39:05.408Z</time>
      </trkpt>
      <trkpt lat="47.03194" lon="9.00495">
        <ele>851</ele>
        <time>2021-08-02T09:39:06.408Z</time>
      </trkpt>
      <trkpt lat="47.03192" lon="9.00494">
        <ele>852</ele>
        <time>2021-08-02T09:39:07.407Z</time>
      </trkpt>
      <trkpt lat="47.03191" lon="9.00493">
        <ele>852</ele>
        <time>2021-08-02T09:39:08.407Z</time>
      </trkpt>
      <trkpt lat="47.0319" lon="9.00493">
        <ele>852</ele>
        <time>2021-08-02T09:39:09.407Z</time>
      </trkpt>
      <trkpt lat="47.03189" lon="9.00492">
        <ele>852</ele>
        <time>2021-08-02T09:39:10.407Z</time>
      </trkpt>
      <trkpt lat="47.03188" lon="9.00491">
        <ele>852</ele>
        <time>2021-08-02T09:39:11.408Z</time>
      </trkpt>
      <trkpt lat="47.03187" lon="9.00491">
        <ele>852</ele>
        <time>2021-08-02T09:39:12.407Z</time>
      </trkpt>
      <trkpt lat="47.03186" lon="9.0049">
        <ele>853</ele>
        <time>2021-08-02T09:39:13.407Z</time>
      </trkpt>
      <trkpt lat="47.03186" lon="9.0049">
        <ele>853</ele>
        <time>2021-08-02T09:39:14.407Z</time>
      </trkpt>
      <trkpt lat="47.03185" lon="9.0049">
        <ele>854</ele>
        <time>2021-08-02T09:39:15.408Z</time>
      </trkpt>
      <trkpt lat="47.03184" lon="9.00489">
        <ele>854</ele>
        <time>2021-08-02T09:39:16.408Z</time>
      </trkpt>
      <trkpt lat="47.03183" lon="9.00489">
        <ele>854</ele>
        <time>2021-08-02T09:39:17.407Z</time>
      </trkpt>
      <trkpt lat="47.03182" lon="9.00488">
        <ele>855</ele>
        <time>2021-08-02T09:39:18.407Z</time>
      </trkpt>
      <trkpt lat="47.03182" lon="9.00487">
        <ele>855</ele>
        <time>2021-08-02T09:39:19.407Z</time>
      </trkpt>
      <trkpt lat="47.03181" lon="9.00486">
        <ele>855</ele>
        <time>2021-08-02T09:39:20.407Z</time>
      </trkpt>
      <trkpt lat="47.03182" lon="9.00485">
        <ele>856</ele>
        <time>2021-08-02T09:39:21.407Z</time>
      </trkpt>
      <trkpt lat="47.03182" lon="9.00484">
        <ele>856</ele>
        <time>2021-08-02T09:39:22.407Z</time>
      </trkpt>
      <trkpt lat="47.03182" lon="9.00482">
        <ele>856</ele>
        <time>2021-08-02T09:39:23.407Z</time>
      </trkpt>
      <trkpt lat="47.03181" lon="9.00481">
        <ele>856</ele>
        <time>2021-08-02T09:39:24.407Z</time>
      </trkpt>
      <trkpt lat="47.0318" lon="9.00481">
        <ele>856</ele>
        <time>2021-08-02T09:39:25.407Z</time>
      </trkpt>
      <trkpt lat="47.03178" lon="9.00481">
        <ele>856</ele>
        <time>2021-08-02T09:39:26.407Z</time>
      </trkpt>
      <trkpt lat="47.03177" lon="9.0048">
        <ele>856</ele>
        <time>2021-08-02T09:39:27.407Z</time>
      </trkpt>
      <trkpt lat="47.03177" lon="9.0048">
        <ele>856</ele>
        <time>2021-08-02T09:39:28.407Z</time>
      </trkpt>
      <trkpt lat="47.03176" lon="9.0048">
        <ele>857</ele>
        <time>2021-08-02T09:39:29.407Z</time>
      </trkpt>
      <trkpt lat="47.03176" lon="9.00479">
        <ele>857</ele>
        <time>2021-08-02T09:39:30.407Z</time>
      </trkpt>
      <trkpt lat="47.03176" lon="9.00479">
        <ele>857</ele>
        <time>2021-08-02T09:39:31.407Z</time>
      </trkpt>
      <trkpt lat="47.03175" lon="9.00478">
        <ele>857</ele>
        <time>2021-08-02T09:39:32.407Z</time>
      </trkpt>
      <trkpt lat="47.03175" lon="9.00478">
        <ele>857</ele>
        <time>2021-08-02T09:39:33.408Z</time>
      </trkpt>
      <trkpt lat="47.03174" lon="9.00477">
        <ele>857</ele>
        <time>2021-08-02T09:39:34.408Z</time>
      </trkpt>
      <trkpt lat="47.03174" lon="9.00477">
        <ele>857</ele>
        <time>2021-08-02T09:39:35.408Z</time>
      </trkpt>
      <trkpt lat="47.03173" lon="9.00477">
        <ele>857</ele>
        <time>2021-08-02T09:39:36.408Z</time>
      </trkpt>
      <trkpt lat="47.03173" lon="9.00478">
        <ele>857</ele>
        <time>2021-08-02T09:39:37.408Z</time>
      </trkpt>
      <trkpt lat="47.03172" lon="9.00479">
        <ele>857</ele>
        <time>2021-08-02T09:39:38.408Z</time>
      </trkpt>
      <trkpt lat="47.03171" lon="9.00479">
        <ele>857</ele>
        <time>2021-08-02T09:39:39.408Z</time>
      </trkpt>
      <trkpt lat="47.0317" lon="9.0048">
        <ele>857</ele>
        <time>2021-08-02T09:39:40.408Z</time>
      </trkpt>
      <trkpt lat="47.03169" lon="9.00479">
        <ele>857</ele>
        <time>2021-08-02T09:39:41.408Z</time>
      </trkpt>
      <trkpt lat="47.03169" lon="9.00479">
        <ele>858</ele>
        <time>2021-08-02T09:39:42.408Z</time>
      </trkpt>
      <trkpt lat="47.03168" lon="9.00479">
        <ele>858</ele>
        <time>2021-08-02T09:39:43.408Z</time>
      </trkpt>
      <trkpt lat="47.03167" lon="9.00478">
        <ele>858</ele>
        <time>2021-08-02T09:39:44.408Z</time>
      </trkpt>
      <trkpt lat="47.03165" lon="9.00478">
        <ele>859</ele>
        <time>2021-08-02T09:39:45.407Z</time>
      </trkpt>
      <trkpt lat="47.03164" lon="9.00477">
        <ele>859</ele>
        <time>2021-08-02T09:39:46.408Z</time>
      </trkpt>
      <trkpt lat="47.03162" lon="9.00476">
        <ele>859</ele>
        <time>2021-08-02T09:39:47.408Z</time>
      </trkpt>
      <trkpt lat="47.03161" lon="9.00476">
        <ele>860</ele>
        <time>2021-08-02T09:39:48.408Z</time>
      </trkpt>
      <trkpt lat="47.0316" lon="9.00475">
        <ele>860</ele>
        <time>2021-08-02T09:39:49.408Z</time>
      </trkpt>
      <trkpt lat="47.03159" lon="9.00474">
        <ele>861</ele>
        <time>2021-08-02T09:39:50.408Z</time>
      </trkpt>
      <trkpt lat="47.03157" lon="9.00474">
        <ele>861</ele>
        <time>2021-08-02T09:39:51.408Z</time>
      </trkpt>
      <trkpt lat="47.03156" lon="9.00474">
        <ele>861</ele>
        <time>2021-08-02T09:39:52.408Z</time>
      </trkpt>
      <trkpt lat="47.03154" lon="9.00475">
        <ele>861</ele>
        <time>2021-08-02T09:39:53.408Z</time>
      </trkpt>
      <trkpt lat="47.03152" lon="9.00476">
        <ele>861</ele>
        <time>2021-08-02T09:39:54.407Z</time>
      </trkpt>
      <trkpt lat="47.03151" lon="9.00476">
        <ele>861</ele>
        <time>2021-08-02T09:39:55.408Z</time>
      </trkpt>
      <trkpt lat="47.03151" lon="9.00477">
        <ele>861</ele>
        <time>2021-08-02T09:39:56.407Z</time>
      </trkpt>
      <trkpt lat="47.0315" lon="9.00476">
        <ele>862</ele>
        <time>2021-08-02T09:39:57.408Z</time>
      </trkpt>
      <trkpt lat="47.03149" lon="9.00475">
        <ele>862</ele>
        <time>2021-08-02T09:39:58.407Z</time>
      </trkpt>
      <trkpt lat="47.03148" lon="9.00474">
        <ele>862</ele>
        <time>2021-08-02T09:39:59.408Z</time>
      </trkpt>
      <trkpt lat="47.03148" lon="9.00474">
        <ele>862</ele>
        <time>2021-08-02T09:40:00.408Z</time>
      </trkpt>
      <trkpt lat="47.03147" lon="9.00473">
        <ele>863</ele>
        <time>2021-08-02T09:40:01.407Z</time>
      </trkpt>
      <trkpt lat="47.03146" lon="9.00473">
        <ele>863</ele>
        <time>2021-08-02T09:40:02.408Z</time>
      </trkpt>
      <trkpt lat="47.03146" lon="9.00474">
        <ele>863</ele>
        <time>2021-08-02T09:40:03.407Z</time>
      </trkpt>
      <trkpt lat="47.03146" lon="9.00473">
        <ele>863</ele>
        <time>2021-08-02T09:40:04.408Z</time>
      </trkpt>
      <trkpt lat="47.03146" lon="9.00473">
        <ele>864</ele>
        <time>2021-08-02T09:40:05.408Z</time>
      </trkpt>
      <trkpt lat="47.03146" lon="9.00472">
        <ele>864</ele>
        <time>2021-08-02T09:40:06.408Z</time>
      </trkpt>
      <trkpt lat="47.03146" lon="9.00471">
        <ele>864</ele>
        <time>2021-08-02T09:40:07.408Z</time>
      </trkpt>
      <trkpt lat="47.03146" lon="9.00469">
        <ele>864</ele>
        <time>2021-08-02T09:40:08.408Z</time>
      </trkpt>
      <trkpt lat="47.03146" lon="9.00468">
        <ele>864</ele>
        <time>2021-08-02T09:40:09.408Z</time>
      </trkpt>
      <trkpt lat="47.03145" lon="9.00466">
        <ele>864</ele>
        <time>2021-08-02T09:40:10.408Z</time>
      </trkpt>
      <trkpt lat="47.03145" lon="9.00465">
        <ele>863</ele>
        <time>2021-08-02T09:40:11.407Z</time>
      </trkpt>
      <trkpt lat="47.03144" lon="9.00465">
        <ele>863</ele>
        <time>2021-08-02T09:40:12.407Z</time>
      </trkpt>
      <trkpt lat="47.03144" lon="9.00464">
        <ele>862</ele>
        <time>2021-08-02T09:40:13.407Z</time>
      </trkpt>
      <trkpt lat="47.03143" lon="9.00463">
        <ele>862</ele>
        <time>2021-08-02T09:40:14.407Z</time>
      </trkpt>
      <trkpt lat="47.03143" lon="9.00462">
        <ele>862</ele>
        <time>2021-08-02T09:40:15.407Z</time>
      </trkpt>
      <trkpt lat="47.03142" lon="9.00461">
        <ele>862</ele>
        <time>2021-08-02T09:40:16.407Z</time>
      </trkpt>
      <trkpt lat="47.03142" lon="9.0046">
        <ele>862</ele>
        <time>2021-08-02T09:40:17.407Z</time>
      </trkpt>
      <trkpt lat="47.03141" lon="9.00458">
        <ele>861</ele>
        <time>2021-08-02T09:40:18.407Z</time>
      </trkpt>
      <trkpt lat="47.0314" lon="9.00456">
        <ele>861</ele>
        <time>2021-08-02T09:40:19.407Z</time>
      </trkpt>
      <trkpt lat="47.0314" lon="9.00454">
        <ele>860</ele>
        <time>2021-08-02T09:40:20.407Z</time>
      </trkpt>
      <trkpt lat="47.0314" lon="9.00453">
        <ele>860</ele>
        <time>2021-08-02T09:40:21.407Z</time>
      </trkpt>
      <trkpt lat="47.03139" lon="9.00452">
        <ele>860</ele>
        <time>2021-08-02T09:40:22.407Z</time>
      </trkpt>
      <trkpt lat="47.03138" lon="9.00451">
        <ele>859</ele>
        <time>2021-08-02T09:40:23.407Z</time>
      </trkpt>
      <trkpt lat="47.03137" lon="9.00451">
        <ele>859</ele>
        <time>2021-08-02T09:40:24.407Z</time>
      </trkpt>
      <trkpt lat="47.03135" lon="9.0045">
        <ele>859</ele>
        <time>2021-08-02T09:40:25.407Z</time>
      </trkpt>
      <trkpt lat="47.03135" lon="9.00449">
        <ele>858</ele>
        <time>2021-08-02T09:40:26.407Z</time>
      </trkpt>
      <trkpt lat="47.03134" lon="9.00448">
        <ele>858</ele>
        <time>2021-08-02T09:40:27.408Z</time>
      </trkpt>
      <trkpt lat="47.03134" lon="9.00447">
        <ele>858</ele>
        <time>2021-08-02T09:40:28.407Z</time>
      </trkpt>
      <trkpt lat="47.03134" lon="9.00446">
        <ele>858</ele>
        <time>2021-08-02T09:40:29.408Z</time>
      </trkpt>
      <trkpt lat="47.03133" lon="9.00445">
        <ele>858</ele>
        <time>2021-08-02T09:40:30.407Z</time>
      </trkpt>
      <trkpt lat="47.03133" lon="9.00444">
        <ele>858</ele>
        <time>2021-08-02T09:40:31.408Z</time>
      </trkpt>
      <trkpt lat="47.03133" lon="9.00443">
        <ele>857</ele>
        <time>2021-08-02T09:40:32.408Z</time>
      </trkpt>
      <trkpt lat="47.03133" lon="9.00441">
        <ele>857</ele>
        <time>2021-08-02T09:40:33.407Z</time>
      </trkpt>
      <trkpt lat="47.03133" lon="9.0044">
        <ele>857</ele>
        <time>2021-08-02T09:40:34.407Z</time>
      </trkpt>
      <trkpt lat="47.03133" lon="9.00438">
        <ele>858</ele>
        <time>2021-08-02T09:40:35.407Z</time>
      </trkpt>
      <trkpt lat="47.03133" lon="9.00437">
        <ele>858</ele>
        <time>2021-08-02T09:40:36.407Z</time>
      </trkpt>
      <trkpt lat="47.03132" lon="9.00436">
        <ele>858</ele>
        <time>2021-08-02T09:40:37.407Z</time>
      </trkpt>
      <trkpt lat="47.03132" lon="9.00435">
        <ele>858</ele>
        <time>2021-08-02T09:40:38.408Z</time>
      </trkpt>
      <trkpt lat="47.03131" lon="9.00433">
        <ele>859</ele>
        <time>2021-08-02T09:40:39.408Z</time>
      </trkpt>
      <trkpt lat="47.0313" lon="9.00431">
        <ele>859</ele>
        <time>2021-08-02T09:40:40.408Z</time>
      </trkpt>
      <trkpt lat="47.0313" lon="9.00427">
        <ele>859</ele>
        <time>2021-08-02T09:40:41.407Z</time>
      </trkpt>
      <trkpt lat="47.03131" lon="9.00424">
        <ele>859</ele>
        <time>2021-08-02T09:40:42.407Z</time>
      </trkpt>
      <trkpt lat="47.03131" lon="9.00422">
        <ele>859</ele>
        <time>2021-08-02T09:40:43.408Z</time>
      </trkpt>
      <trkpt lat="47.0313" lon="9.0042">
        <ele>860</ele>
        <time>2021-08-02T09:40:44.407Z</time>
      </trkpt>
      <trkpt lat="47.03129" lon="9.00418">
        <ele>860</ele>
        <time>2021-08-02T09:40:45.408Z</time>
      </trkpt>
      <trkpt lat="47.03128" lon="9.00416">
        <ele>860</ele>
        <time>2021-08-02T09:40:46.408Z</time>
      </trkpt>
      <trkpt lat="47.03127" lon="9.00414">
        <ele>860</ele>
        <time>2021-08-02T09:40:47.407Z</time>
      </trkpt>
      <trkpt lat="47.03126" lon="9.00413">
        <ele>859</ele>
        <time>2021-08-02T09:40:48.408Z</time>
      </trkpt>
      <trkpt lat="47.03126" lon="9.00411">
        <ele>859</ele>
        <time>2021-08-02T09:40:49.407Z</time>
      </trkpt>
      <trkpt lat="47.03125" lon="9.0041">
        <ele>859</ele>
        <time>2021-08-02T09:40:50.407Z</time>
      </trkpt>
      <trkpt lat="47.03125" lon="9.00409">
        <ele>859</ele>
        <time>2021-08-02T09:40:51.407Z</time>
      </trkpt>
      <trkpt lat="47.03124" lon="9.0041">
        <ele>858</ele>
        <time>2021-08-02T09:40:52.407Z</time>
      </trkpt>
      <trkpt lat="47.03124" lon="9.00411">
        <ele>858</ele>
        <time>2021-08-02T09:40:53.407Z</time>
      </trkpt>
      <trkpt lat="47.03124" lon="9.00413">
        <ele>857</ele>
        <time>2021-08-02T09:40:54.409Z</time>
      </trkpt>
      <trkpt lat="47.03125" lon="9.00413">
        <ele>857</ele>
        <time>2021-08-02T09:40:55.409Z</time>
      </trkpt>
      <trkpt lat="47.03125" lon="9.00412">
        <ele>857</ele>
        <time>2021-08-02T09:40:56.408Z</time>
      </trkpt>
      <trkpt lat="47.03125" lon="9.00412">
        <ele>857</ele>
        <time>2021-08-02T09:40:57.409Z</time>
      </trkpt>
      <trkpt lat="47.03125" lon="9.00411">
        <ele>854</ele>
        <time>2021-08-02T09:40:58.409Z</time>
      </trkpt>
      <trkpt lat="47.03125" lon="9.00412">
        <ele>854</ele>
        <time>2021-08-02T09:40:59.409Z</time>
      </trkpt>
      <trkpt lat="47.03125" lon="9.00412">
        <ele>853</ele>
        <time>2021-08-02T09:41:00.408Z</time>
      </trkpt>
      <trkpt lat="47.03122" lon="9.00412">
        <ele>850</ele>
        <time>2021-08-02T09:41:01.410Z</time>
      </trkpt>
      <trkpt lat="47.03121" lon="9.00411">
        <ele>849</ele>
        <time>2021-08-02T09:41:02.409Z</time>
      </trkpt>
      <trkpt lat="47.0312" lon="9.00411">
        <ele>849</ele>
        <time>2021-08-02T09:41:03.409Z</time>
      </trkpt>
      <trkpt lat="47.03119" lon="9.0041">
        <ele>848</ele>
        <time>2021-08-02T09:41:04.410Z</time>
      </trkpt>
      <trkpt lat="47.03118" lon="9.00409">
        <ele>847</ele>
        <time>2021-08-02T09:41:05.409Z</time>
      </trkpt>
      <trkpt lat="47.03117" lon="9.00408">
        <ele>847</ele>
        <time>2021-08-02T09:41:06.410Z</time>
      </trkpt>
      <trkpt lat="47.03116" lon="9.00407">
        <ele>846</ele>
        <time>2021-08-02T09:41:07.410Z</time>
      </trkpt>
      <trkpt lat="47.03116" lon="9.00406">
        <ele>846</ele>
        <time>2021-08-02T09:41:08.410Z</time>
      </trkpt>
      <trkpt lat="47.03115" lon="9.00405">
        <ele>845</ele>
        <time>2021-08-02T09:41:09.410Z</time>
      </trkpt>
      <trkpt lat="47.03115" lon="9.00404">
        <ele>845</ele>
        <time>2021-08-02T09:41:10.410Z</time>
      </trkpt>
      <trkpt lat="47.03115" lon="9.00403">
        <ele>844</ele>
        <time>2021-08-02T09:41:11.410Z</time>
      </trkpt>
      <trkpt lat="47.03115" lon="9.00402">
        <ele>844</ele>
        <time>2021-08-02T09:41:12.409Z</time>
      </trkpt>
      <trkpt lat="47.03116" lon="9.00401">
        <ele>844</ele>
        <time>2021-08-02T09:41:13.410Z</time>
      </trkpt>
      <trkpt lat="47.03116" lon="9.004">
        <ele>844</ele>
        <time>2021-08-02T09:41:14.410Z</time>
      </trkpt>
      <trkpt lat="47.03116" lon="9.00398">
        <ele>844</ele>
        <time>2021-08-02T09:41:15.409Z</time>
      </trkpt>
      <trkpt lat="47.03115" lon="9.00397">
        <ele>844</ele>
        <time>2021-08-02T09:41:16.410Z</time>
      </trkpt>
      <trkpt lat="47.03115" lon="9.00395">
        <ele>844</ele>
        <time>2021-08-02T09:41:17.410Z</time>
      </trkpt>
      <trkpt lat="47.03115" lon="9.00394">
        <ele>844</ele>
        <time>2021-08-02T09:41:18.409Z</time>
      </trkpt>
      <trkpt lat="47.03115" lon="9.00393">
        <ele>845</ele>
        <time>2021-08-02T09:41:19.409Z</time>
      </trkpt>
      <trkpt lat="47.03115" lon="9.00391">
        <ele>845</ele>
        <time>2021-08-02T09:41:20.410Z</time>
      </trkpt>
      <trkpt lat="47.03115" lon="9.00389">
        <ele>846</ele>
        <time>2021-08-02T09:41:21.409Z</time>
      </trkpt>
      <trkpt lat="47.03115" lon="9.00387">
        <ele>846</ele>
        <time>2021-08-02T09:41:22.410Z</time>
      </trkpt>
      <trkpt lat="47.03115" lon="9.00385">
        <ele>847</ele>
        <time>2021-08-02T09:41:23.410Z</time>
      </trkpt>
      <trkpt lat="47.03115" lon="9.00383">
        <ele>847</ele>
        <time>2021-08-02T09:41:24.410Z</time>
      </trkpt>
      <trkpt lat="47.03114" lon="9.00381">
        <ele>848</ele>
        <time>2021-08-02T09:41:25.410Z</time>
      </trkpt>
      <trkpt lat="47.03114" lon="9.00379">
        <ele>848</ele>
        <time>2021-08-02T09:41:26.409Z</time>
      </trkpt>
      <trkpt lat="47.03114" lon="9.00377">
        <ele>849</ele>
        <time>2021-08-02T09:41:27.410Z</time>
      </trkpt>
      <trkpt lat="47.03114" lon="9.00376">
        <ele>849</ele>
        <time>2021-08-02T09:41:28.409Z</time>
      </trkpt>
      <trkpt lat="47.03114" lon="9.00373">
        <ele>849</ele>
        <time>2021-08-02T09:41:29.410Z</time>
      </trkpt>
      <trkpt lat="47.03115" lon="9.00371">
        <ele>849</ele>
        <time>2021-08-02T09:41:30.409Z</time>
      </trkpt>
      <trkpt lat="47.03115" lon="9.00369">
        <ele>849</ele>
        <time>2021-08-02T09:41:31.409Z</time>
      </trkpt>
      <trkpt lat="47.03115" lon="9.00366">
        <ele>849</ele>
        <time>2021-08-02T09:41:32.409Z</time>
      </trkpt>
      <trkpt lat="47.03115" lon="9.00364">
        <ele>850</ele>
        <time>2021-08-02T09:41:33.409Z</time>
      </trkpt>
      <trkpt lat="47.03115" lon="9.00361">
        <ele>850</ele>
        <time>2021-08-02T09:41:34.410Z</time>
      </trkpt>
      <trkpt lat="47.03114" lon="9.00359">
        <ele>850</ele>
        <time>2021-08-02T09:41:35.409Z</time>
      </trkpt>
      <trkpt lat="47.03113" lon="9.00357">
        <ele>850</ele>
        <time>2021-08-02T09:41:36.410Z</time>
      </trkpt>
      <trkpt lat="47.03113" lon="9.00355">
        <ele>850</ele>
        <time>2021-08-02T09:41:37.410Z</time>
      </trkpt>
      <trkpt lat="47.03113" lon="9.00352">
        <ele>850</ele>
        <time>2021-08-02T09:41:38.410Z</time>
      </trkpt>
      <trkpt lat="47.03113" lon="9.00351">
        <ele>850</ele>
        <time>2021-08-02T09:41:39.410Z</time>
      </trkpt>
      <trkpt lat="47.03113" lon="9.00349">
        <ele>850</ele>
        <time>2021-08-02T09:41:40.409Z</time>
      </trkpt>
      <trkpt lat="47.03112" lon="9.00347">
        <ele>850</ele>
        <time>2021-08-02T09:41:41.409Z</time>
      </trkpt>
      <trkpt lat="47.03112" lon="9.00345">
        <ele>850</ele>
        <time>2021-08-02T09:41:42.410Z</time>
      </trkpt>
      <trkpt lat="47.03112" lon="9.00343">
        <ele>851</ele>
        <time>2021-08-02T09:41:43.410Z</time>
      </trkpt>
      <trkpt lat="47.03112" lon="9.00341">
        <ele>851</ele>
        <time>2021-08-02T09:41:44.409Z</time>
      </trkpt>
      <trkpt lat="47.03113" lon="9.0034">
        <ele>850</ele>
        <time>2021-08-02T09:41:45.410Z</time>
      </trkpt>
      <trkpt lat="47.03113" lon="9.00337">
        <ele>850</ele>
        <time>2021-08-02T09:41:46.409Z</time>
      </trkpt>
      <trkpt lat="47.03113" lon="9.00336">
        <ele>850</ele>
        <time>2021-08-02T09:41:47.410Z</time>
      </trkpt>
      <trkpt lat="47.03113" lon="9.00334">
        <ele>850</ele>
        <time>2021-08-02T09:41:48.410Z</time>
      </trkpt>
      <trkpt lat="47.03112" lon="9.00333">
        <ele>850</ele>
        <time>2021-08-02T09:41:49.409Z</time>
      </trkpt>
      <trkpt lat="47.03112" lon="9.00331">
        <ele>850</ele>
        <time>2021-08-02T09:41:50.409Z</time>
      </trkpt>
      <trkpt lat="47.03112" lon="9.00329">
        <ele>850</ele>
        <time>2021-08-02T09:41:51.409Z</time>
      </trkpt>
      <trkpt lat="47.03112" lon="9.00328">
        <ele>850</ele>
        <time>2021-08-02T09:41:52.410Z</time>
      </trkpt>
      <trkpt lat="47.03112" lon="9.00326">
        <ele>850</ele>
        <time>2021-08-02T09:41:53.409Z</time>
      </trkpt>
      <trkpt lat="47.03112" lon="9.00325">
        <ele>850</ele>
        <time>2021-08-02T09:41:54.409Z</time>
      </trkpt>
      <trkpt lat="47.03113" lon="9.00323">
        <ele>850</ele>
        <time>2021-08-02T09:41:55.409Z</time>
      </trkpt>
      <trkpt lat="47.03113" lon="9.00322">
        <ele>851</ele>
        <time>2021-08-02T09:41:56.409Z</time>
      </trkpt>
      <trkpt lat="47.03113" lon="9.0032">
        <ele>851</ele>
        <time>2021-08-02T09:41:57.410Z</time>
      </trkpt>
      <trkpt lat="47.03113" lon="9.00319">
        <ele>851</ele>
        <time>2021-08-02T09:41:58.409Z</time>
      </trkpt>
      <trkpt lat="47.03113" lon="9.00317">
        <ele>851</ele>
        <time>2021-08-02T09:41:59.409Z</time>
      </trkpt>
      <trkpt lat="47.03112" lon="9.00316">
        <ele>851</ele>
        <time>2021-08-02T09:42:00.409Z</time>
      </trkpt>
      <trkpt lat="47.03112" lon="9.00314">
        <ele>851</ele>
        <time>2021-08-02T09:42:01.409Z</time>
      </trkpt>
      <trkpt lat="47.03112" lon="9.00313">
        <ele>851</ele>
        <time>2021-08-02T09:42:02.410Z</time>
      </trkpt>
      <trkpt lat="47.03112" lon="9.00311">
        <ele>851</ele>
        <time>2021-08-02T09:42:03.410Z</time>
      </trkpt>
      <trkpt lat="47.03111" lon="9.0031">
        <ele>851</ele>
        <time>2021-08-02T09:42:04.409Z</time>
      </trkpt>
      <trkpt lat="47.03111" lon="9.00308">
        <ele>851</ele>
        <time>2021-08-02T09:42:05.409Z</time>
      </trkpt>
      <trkpt lat="47.03111" lon="9.00307">
        <ele>851</ele>
        <time>2021-08-02T09:42:06.409Z</time>
      </trkpt>
      <trkpt lat="47.03111" lon="9.00305">
        <ele>850</ele>
        <time>2021-08-02T09:42:07.409Z</time>
      </trkpt>
      <trkpt lat="47.0311" lon="9.00304">
        <ele>850</ele>
        <time>2021-08-02T09:42:08.410Z</time>
      </trkpt>
      <trkpt lat="47.0311" lon="9.00301">
        <ele>850</ele>
        <time>2021-08-02T09:42:09.409Z</time>
      </trkpt>
      <trkpt lat="47.0311" lon="9.003">
        <ele>850</ele>
        <time>2021-08-02T09:42:10.409Z</time>
      </trkpt>
      <trkpt lat="47.03109" lon="9.00298">
        <ele>850</ele>
        <time>2021-08-02T09:42:11.409Z</time>
      </trkpt>
      <trkpt lat="47.03109" lon="9.00296">
        <ele>850</ele>
        <time>2021-08-02T09:42:12.409Z</time>
      </trkpt>
      <trkpt lat="47.03109" lon="9.00295">
        <ele>850</ele>
        <time>2021-08-02T09:42:13.410Z</time>
      </trkpt>
      <trkpt lat="47.03108" lon="9.00293">
        <ele>850</ele>
        <time>2021-08-02T09:42:14.409Z</time>
      </trkpt>
      <trkpt lat="47.03108" lon="9.00291">
        <ele>850</ele>
        <time>2021-08-02T09:42:15.409Z</time>
      </trkpt>
      <trkpt lat="47.03107" lon="9.0029">
        <ele>850</ele>
        <time>2021-08-02T09:42:16.410Z</time>
      </trkpt>
      <trkpt lat="47.03106" lon="9.00289">
        <ele>850</ele>
        <time>2021-08-02T09:42:17.409Z</time>
      </trkpt>
      <trkpt lat="47.03105" lon="9.00288">
        <ele>851</ele>
        <time>2021-08-02T09:42:18.409Z</time>
      </trkpt>
      <trkpt lat="47.03105" lon="9.00287">
        <ele>851</ele>
        <time>2021-08-02T09:42:19.409Z</time>
      </trkpt>
      <trkpt lat="47.03105" lon="9.00285">
        <ele>851</ele>
        <time>2021-08-02T09:42:20.409Z</time>
      </trkpt>
      <trkpt lat="47.03105" lon="9.00284">
        <ele>851</ele>
        <time>2021-08-02T09:42:21.409Z</time>
      </trkpt>
      <trkpt lat="47.03104" lon="9.00284">
        <ele>851</ele>
        <time>2021-08-02T09:42:22.409Z</time>
      </trkpt>
      <trkpt lat="47.03103" lon="9.00283">
        <ele>851</ele>
        <time>2021-08-02T09:42:23.409Z</time>
      </trkpt>
      <trkpt lat="47.03103" lon="9.00283">
        <ele>851</ele>
        <time>2021-08-02T09:42:24.410Z</time>
      </trkpt>
      <trkpt lat="47.031" lon="9.00282">
        <ele>852</ele>
        <time>2021-08-02T09:42:25.410Z</time>
      </trkpt>
      <trkpt lat="47.031" lon="9.0028">
        <ele>852</ele>
        <time>2021-08-02T09:42:26.409Z</time>
      </trkpt>
      <trkpt lat="47.03101" lon="9.00279">
        <ele>852</ele>
        <time>2021-08-02T09:42:27.409Z</time>
      </trkpt>
      <trkpt lat="47.031" lon="9.00278">
        <ele>851</ele>
        <time>2021-08-02T09:42:28.410Z</time>
      </trkpt>
      <trkpt lat="47.031" lon="9.00276">
        <ele>851</ele>
        <time>2021-08-02T09:42:29.410Z</time>
      </trkpt>
      <trkpt lat="47.031" lon="9.00275">
        <ele>851</ele>
        <time>2021-08-02T09:42:30.410Z</time>
      </trkpt>
      <trkpt lat="47.03099" lon="9.00274">
        <ele>851</ele>
        <time>2021-08-02T09:42:31.409Z</time>
      </trkpt>
      <trkpt lat="47.03099" lon="9.00273">
        <ele>852</ele>
        <time>2021-08-02T09:42:32.409Z</time>
      </trkpt>
      <trkpt lat="47.03099" lon="9.00273">
        <ele>852</ele>
        <time>2021-08-02T09:42:33.410Z</time>
      </trkpt>
      <trkpt lat="47.03098" lon="9.00273">
        <ele>852</ele>
        <time>2021-08-02T09:42:34.410Z</time>
      </trkpt>
      <trkpt lat="47.03097" lon="9.00273">
        <ele>853</ele>
        <time>2021-08-02T09:42:35.409Z</time>
      </trkpt>
      <trkpt lat="47.03096" lon="9.00273">
        <ele>853</ele>
        <time>2021-08-02T09:42:36.409Z</time>
      </trkpt>
      <trkpt lat="47.03095" lon="9.00274">
        <ele>853</ele>
        <time>2021-08-02T09:42:37.410Z</time>
      </trkpt>
      <trkpt lat="47.03095" lon="9.00273">
        <ele>854</ele>
        <time>2021-08-02T09:42:38.410Z</time>
      </trkpt>
      <trkpt lat="47.03095" lon="9.00273">
        <ele>855</ele>
        <time>2021-08-02T09:42:39.410Z</time>
      </trkpt>
      <trkpt lat="47.03094" lon="9.00272">
        <ele>855</ele>
        <time>2021-08-02T09:42:40.409Z</time>
      </trkpt>
      <trkpt lat="47.03094" lon="9.00271">
        <ele>856</ele>
        <time>2021-08-02T09:42:41.410Z</time>
      </trkpt>
      <trkpt lat="47.03094" lon="9.0027">
        <ele>856</ele>
        <time>2021-08-02T09:42:42.409Z</time>
      </trkpt>
      <trkpt lat="47.03094" lon="9.00268">
        <ele>856</ele>
        <time>2021-08-02T09:42:43.410Z</time>
      </trkpt>
      <trkpt lat="47.03093" lon="9.00267">
        <ele>855</ele>
        <time>2021-08-02T09:42:44.409Z</time>
      </trkpt>
      <trkpt lat="47.03093" lon="9.00266">
        <ele>855</ele>
        <time>2021-08-02T09:42:45.410Z</time>
      </trkpt>
      <trkpt lat="47.03092" lon="9.00265">
        <ele>855</ele>
        <time>2021-08-02T09:42:46.410Z</time>
      </trkpt>
      <trkpt lat="47.03092" lon="9.00264">
        <ele>855</ele>
        <time>2021-08-02T09:42:47.409Z</time>
      </trkpt>
      <trkpt lat="47.03092" lon="9.00262">
        <ele>855</ele>
        <time>2021-08-02T09:42:48.409Z</time>
      </trkpt>
      <trkpt lat="47.03091" lon="9.00261">
        <ele>856</ele>
        <time>2021-08-02T09:42:49.410Z</time>
      </trkpt>
      <trkpt lat="47.0309" lon="9.0026">
        <ele>856</ele>
        <time>2021-08-02T09:42:50.409Z</time>
      </trkpt>
      <trkpt lat="47.0309" lon="9.00259">
        <ele>856</ele>
        <time>2021-08-02T09:42:51.409Z</time>
      </trkpt>
      <trkpt lat="47.03089" lon="9.00258">
        <ele>856</ele>
        <time>2021-08-02T09:42:52.409Z</time>
      </trkpt>
      <trkpt lat="47.03088" lon="9.00257">
        <ele>856</ele>
        <time>2021-08-02T09:42:53.410Z</time>
      </trkpt>
      <trkpt lat="47.03088" lon="9.00255">
        <ele>855</ele>
        <time>2021-08-02T09:42:54.409Z</time>
      </trkpt>
      <trkpt lat="47.03088" lon="9.00253">
        <ele>855</ele>
        <time>2021-08-02T09:42:55.410Z</time>
      </trkpt>
      <trkpt lat="47.03088" lon="9.00251">
        <ele>855</ele>
        <time>2021-08-02T09:42:56.409Z</time>
      </trkpt>
      <trkpt lat="47.03087" lon="9.00249">
        <ele>855</ele>
        <time>2021-08-02T09:42:57.409Z</time>
      </trkpt>
      <trkpt lat="47.03087" lon="9.00248">
        <ele>855</ele>
        <time>2021-08-02T09:42:58.409Z</time>
      </trkpt>
      <trkpt lat="47.03086" lon="9.00247">
        <ele>854</ele>
        <time>2021-08-02T09:42:59.410Z</time>
      </trkpt>
      <trkpt lat="47.03085" lon="9.00245">
        <ele>855</ele>
        <time>2021-08-02T09:43:00.410Z</time>
      </trkpt>
      <trkpt lat="47.03086" lon="9.00244">
        <ele>855</ele>
        <time>2021-08-02T09:43:01.409Z</time>
      </trkpt>
      <trkpt lat="47.03086" lon="9.00242">
        <ele>856</ele>
        <time>2021-08-02T09:43:02.409Z</time>
      </trkpt>
      <trkpt lat="47.03087" lon="9.00242">
        <ele>856</ele>
        <time>2021-08-02T09:43:03.409Z</time>
      </trkpt>
      <trkpt lat="47.03087" lon="9.00242">
        <ele>856</ele>
        <time>2021-08-02T09:43:04.409Z</time>
      </trkpt>
      <trkpt lat="47.03086" lon="9.00242">
        <ele>857</ele>
        <time>2021-08-02T09:43:05.410Z</time>
      </trkpt>
      <trkpt lat="47.03085" lon="9.00242">
        <ele>857</ele>
        <time>2021-08-02T09:43:06.409Z</time>
      </trkpt>
      <trkpt lat="47.03084" lon="9.00243">
        <ele>858</ele>
        <time>2021-08-02T09:43:07.409Z</time>
      </trkpt>
      <trkpt lat="47.03084" lon="9.00243">
        <ele>857</ele>
        <time>2021-08-02T09:43:08.410Z</time>
      </trkpt>
      <trkpt lat="47.03083" lon="9.00243">
        <ele>857</ele>
        <time>2021-08-02T09:43:09.410Z</time>
      </trkpt>
      <trkpt lat="47.03081" lon="9.00242">
        <ele>857</ele>
        <time>2021-08-02T09:43:10.410Z</time>
      </trkpt>
      <trkpt lat="47.03081" lon="9.0024">
        <ele>856</ele>
        <time>2021-08-02T09:43:11.409Z</time>
      </trkpt>
      <trkpt lat="47.03081" lon="9.00238">
        <ele>856</ele>
        <time>2021-08-02T09:43:12.409Z</time>
      </trkpt>
      <trkpt lat="47.0308" lon="9.00237">
        <ele>856</ele>
        <time>2021-08-02T09:43:13.409Z</time>
      </trkpt>
      <trkpt lat="47.0308" lon="9.00235">
        <ele>855</ele>
        <time>2021-08-02T09:43:14.410Z</time>
      </trkpt>
      <trkpt lat="47.0308" lon="9.00234">
        <ele>855</ele>
        <time>2021-08-02T09:43:15.409Z</time>
      </trkpt>
      <trkpt lat="47.0308" lon="9.00233">
        <ele>855</ele>
        <time>2021-08-02T09:43:16.409Z</time>
      </trkpt>
      <trkpt lat="47.0308" lon="9.00231">
        <ele>855</ele>
        <time>2021-08-02T09:43:17.409Z</time>
      </trkpt>
      <trkpt lat="47.03079" lon="9.0023">
        <ele>855</ele>
        <time>2021-08-02T09:43:18.410Z</time>
      </trkpt>
      <trkpt lat="47.03078" lon="9.00229">
        <ele>855</ele>
        <time>2021-08-02T09:43:19.409Z</time>
      </trkpt>
      <trkpt lat="47.03077" lon="9.00228">
        <ele>855</ele>
        <time>2021-08-02T09:43:20.409Z</time>
      </trkpt>
      <trkpt lat="47.03077" lon="9.00227">
        <ele>855</ele>
        <time>2021-08-02T09:43:21.410Z</time>
      </trkpt>
      <trkpt lat="47.03076" lon="9.00226">
        <ele>855</ele>
        <time>2021-08-02T09:43:22.410Z</time>
      </trkpt>
      <trkpt lat="47.03074" lon="9.00225">
        <ele>854</ele>
        <time>2021-08-02T09:43:23.409Z</time>
      </trkpt>
      <trkpt lat="47.03073" lon="9.00224">
        <ele>854</ele>
        <time>2021-08-02T09:43:24.410Z</time>
      </trkpt>
      <trkpt lat="47.03072" lon="9.00222">
        <ele>853</ele>
        <time>2021-08-02T09:43:25.410Z</time>
      </trkpt>
      <trkpt lat="47.03073" lon="9.00221">
        <ele>853</ele>
        <time>2021-08-02T09:43:26.409Z</time>
      </trkpt>
      <trkpt lat="47.03073" lon="9.00219">
        <ele>853</ele>
        <time>2021-08-02T09:43:27.410Z</time>
      </trkpt>
      <trkpt lat="47.03073" lon="9.00219">
        <ele>852</ele>
        <time>2021-08-02T09:43:28.410Z</time>
      </trkpt>
      <trkpt lat="47.03073" lon="9.00218">
        <ele>852</ele>
        <time>2021-08-02T09:43:29.410Z</time>
      </trkpt>
      <trkpt lat="47.03072" lon="9.00218">
        <ele>851</ele>
        <time>2021-08-02T09:43:30.409Z</time>
      </trkpt>
      <trkpt lat="47.03072" lon="9.00218">
        <ele>851</ele>
        <time>2021-08-02T09:43:31.410Z</time>
      </trkpt>
      <trkpt lat="47.03071" lon="9.00219">
        <ele>851</ele>
        <time>2021-08-02T09:43:32.410Z</time>
      </trkpt>
      <trkpt lat="47.03071" lon="9.0022">
        <ele>850</ele>
        <time>2021-08-02T09:43:33.409Z</time>
      </trkpt>
      <trkpt lat="47.03071" lon="9.0022">
        <ele>850</ele>
        <time>2021-08-02T09:43:34.409Z</time>
      </trkpt>
      <trkpt lat="47.0307" lon="9.0022">
        <ele>850</ele>
        <time>2021-08-02T09:43:35.410Z</time>
      </trkpt>
      <trkpt lat="47.03069" lon="9.00221">
        <ele>850</ele>
        <time>2021-08-02T09:43:36.409Z</time>
      </trkpt>
      <trkpt lat="47.03069" lon="9.0022">
        <ele>850</ele>
        <time>2021-08-02T09:43:37.410Z</time>
      </trkpt>
      <trkpt lat="47.03067" lon="9.0022">
        <ele>849</ele>
        <time>2021-08-02T09:43:38.410Z</time>
      </trkpt>
      <trkpt lat="47.03065" lon="9.0022">
        <ele>849</ele>
        <time>2021-08-02T09:43:39.410Z</time>
      </trkpt>
      <trkpt lat="47.03064" lon="9.0022">
        <ele>849</ele>
        <time>2021-08-02T09:43:40.410Z</time>
      </trkpt>
      <trkpt lat="47.03064" lon="9.00219">
        <ele>850</ele>
        <time>2021-08-02T09:43:41.409Z</time>
      </trkpt>
      <trkpt lat="47.03063" lon="9.00218">
        <ele>850</ele>
        <time>2021-08-02T09:43:42.410Z</time>
      </trkpt>
      <trkpt lat="47.03062" lon="9.00217">
        <ele>851</ele>
        <time>2021-08-02T09:43:43.409Z</time>
      </trkpt>
      <trkpt lat="47.03062" lon="9.00216">
        <ele>851</ele>
        <time>2021-08-02T09:43:44.410Z</time>
      </trkpt>
      <trkpt lat="47.03062" lon="9.00214">
        <ele>852</ele>
        <time>2021-08-02T09:43:45.409Z</time>
      </trkpt>
      <trkpt lat="47.03062" lon="9.00213">
        <ele>852</ele>
        <time>2021-08-02T09:43:46.409Z</time>
      </trkpt>
      <trkpt lat="47.03063" lon="9.00212">
        <ele>852</ele>
        <time>2021-08-02T09:43:47.410Z</time>
      </trkpt>
      <trkpt lat="47.03063" lon="9.00211">
        <ele>853</ele>
        <time>2021-08-02T09:43:48.409Z</time>
      </trkpt>
      <trkpt lat="47.03062" lon="9.0021">
        <ele>853</ele>
        <time>2021-08-02T09:43:49.409Z</time>
      </trkpt>
      <trkpt lat="47.03061" lon="9.00209">
        <ele>853</ele>
        <time>2021-08-02T09:43:50.409Z</time>
      </trkpt>
      <trkpt lat="47.0306" lon="9.00208">
        <ele>853</ele>
        <time>2021-08-02T09:43:51.409Z</time>
      </trkpt>
      <trkpt lat="47.0306" lon="9.00207">
        <ele>854</ele>
        <time>2021-08-02T09:43:52.410Z</time>
      </trkpt>
      <trkpt lat="47.0306" lon="9.00206">
        <ele>854</ele>
        <time>2021-08-02T09:43:53.409Z</time>
      </trkpt>
      <trkpt lat="47.0306" lon="9.00206">
        <ele>855</ele>
        <time>2021-08-02T09:43:54.409Z</time>
      </trkpt>
      <trkpt lat="47.0306" lon="9.00205">
        <ele>855</ele>
        <time>2021-08-02T09:43:55.409Z</time>
      </trkpt>
      <trkpt lat="47.0306" lon="9.00204">
        <ele>855</ele>
        <time>2021-08-02T09:43:56.410Z</time>
      </trkpt>
      <trkpt lat="47.0306" lon="9.00202">
        <ele>856</ele>
        <time>2021-08-02T09:43:57.409Z</time>
      </trkpt>
      <trkpt lat="47.03059" lon="9.00201">
        <ele>856</ele>
        <time>2021-08-02T09:43:58.410Z</time>
      </trkpt>
      <trkpt lat="47.03058" lon="9.00199">
        <ele>856</ele>
        <time>2021-08-02T09:43:59.409Z</time>
      </trkpt>
      <trkpt lat="47.03057" lon="9.00198">
        <ele>856</ele>
        <time>2021-08-02T09:44:00.410Z</time>
      </trkpt>
      <trkpt lat="47.03056" lon="9.00197">
        <ele>856</ele>
        <time>2021-08-02T09:44:01.410Z</time>
      </trkpt>
      <trkpt lat="47.03055" lon="9.00197">
        <ele>856</ele>
        <time>2021-08-02T09:44:02.410Z</time>
      </trkpt>
      <trkpt lat="47.03055" lon="9.00196">
        <ele>855</ele>
        <time>2021-08-02T09:44:03.410Z</time>
      </trkpt>
      <trkpt lat="47.03055" lon="9.00194">
        <ele>855</ele>
        <time>2021-08-02T09:44:04.409Z</time>
      </trkpt>
      <trkpt lat="47.03056" lon="9.00193">
        <ele>855</ele>
        <time>2021-08-02T09:44:05.410Z</time>
      </trkpt>
      <trkpt lat="47.03055" lon="9.00191">
        <ele>855</ele>
        <time>2021-08-02T09:44:06.409Z</time>
      </trkpt>
      <trkpt lat="47.03055" lon="9.0019">
        <ele>856</ele>
        <time>2021-08-02T09:44:07.409Z</time>
      </trkpt>
      <trkpt lat="47.03054" lon="9.00189">
        <ele>856</ele>
        <time>2021-08-02T09:44:08.410Z</time>
      </trkpt>
      <trkpt lat="47.03053" lon="9.00187">
        <ele>856</ele>
        <time>2021-08-02T09:44:09.410Z</time>
      </trkpt>
      <trkpt lat="47.03052" lon="9.00185">
        <ele>856</ele>
        <time>2021-08-02T09:44:10.410Z</time>
      </trkpt>
      <trkpt lat="47.0305" lon="9.00184">
        <ele>856</ele>
        <time>2021-08-02T09:44:11.409Z</time>
      </trkpt>
      <trkpt lat="47.03048" lon="9.00184">
        <ele>857</ele>
        <time>2021-08-02T09:44:12.410Z</time>
      </trkpt>
      <trkpt lat="47.03047" lon="9.00183">
        <ele>857</ele>
        <time>2021-08-02T09:44:13.410Z</time>
      </trkpt>
      <trkpt lat="47.03047" lon="9.00182">
        <ele>857</ele>
        <time>2021-08-02T09:44:14.409Z</time>
      </trkpt>
      <trkpt lat="47.03048" lon="9.00181">
        <ele>857</ele>
        <time>2021-08-02T09:44:15.410Z</time>
      </trkpt>
      <trkpt lat="47.03047" lon="9.0018">
        <ele>857</ele>
        <time>2021-08-02T09:44:16.410Z</time>
      </trkpt>
      <trkpt lat="47.03046" lon="9.00179">
        <ele>857</ele>
        <time>2021-08-02T09:44:17.410Z</time>
      </trkpt>
      <trkpt lat="47.03045" lon="9.00178">
        <ele>857</ele>
        <time>2021-08-02T09:44:18.409Z</time>
      </trkpt>
      <trkpt lat="47.03045" lon="9.00177">
        <ele>857</ele>
        <time>2021-08-02T09:44:19.409Z</time>
      </trkpt>
      <trkpt lat="47.03044" lon="9.00176">
        <ele>858</ele>
        <time>2021-08-02T09:44:20.409Z</time>
      </trkpt>
      <trkpt lat="47.03043" lon="9.00174">
        <ele>858</ele>
        <time>2021-08-02T09:44:21.409Z</time>
      </trkpt>
      <trkpt lat="47.03043" lon="9.00173">
        <ele>857</ele>
        <time>2021-08-02T09:44:22.409Z</time>
      </trkpt>
      <trkpt lat="47.03042" lon="9.00172">
        <ele>857</ele>
        <time>2021-08-02T09:44:23.409Z</time>
      </trkpt>
      <trkpt lat="47.03042" lon="9.00171">
        <ele>856</ele>
        <time>2021-08-02T09:44:24.409Z</time>
      </trkpt>
      <trkpt lat="47.03042" lon="9.00169">
        <ele>856</ele>
        <time>2021-08-02T09:44:25.410Z</time>
      </trkpt>
      <trkpt lat="47.03043" lon="9.00167">
        <ele>855</ele>
        <time>2021-08-02T09:44:26.409Z</time>
      </trkpt>
      <trkpt lat="47.03043" lon="9.00165">
        <ele>854</ele>
        <time>2021-08-02T09:44:27.409Z</time>
      </trkpt>
      <trkpt lat="47.03043" lon="9.00164">
        <ele>854</ele>
        <time>2021-08-02T09:44:28.409Z</time>
      </trkpt>
      <trkpt lat="47.03042" lon="9.00163">
        <ele>854</ele>
        <time>2021-08-02T09:44:29.409Z</time>
      </trkpt>
      <trkpt lat="47.03042" lon="9.00163">
        <ele>853</ele>
        <time>2021-08-02T09:44:30.410Z</time>
      </trkpt>
      <trkpt lat="47.03041" lon="9.00162">
        <ele>853</ele>
        <time>2021-08-02T09:44:31.410Z</time>
      </trkpt>
      <trkpt lat="47.0304" lon="9.00161">
        <ele>853</ele>
        <time>2021-08-02T09:44:32.409Z</time>
      </trkpt>
      <trkpt lat="47.0304" lon="9.0016">
        <ele>852</ele>
        <time>2021-08-02T09:44:33.409Z</time>
      </trkpt>
      <trkpt lat="47.03039" lon="9.00159">
        <ele>852</ele>
        <time>2021-08-02T09:44:34.409Z</time>
      </trkpt>
      <trkpt lat="47.03038" lon="9.00157">
        <ele>851</ele>
        <time>2021-08-02T09:44:35.410Z</time>
      </trkpt>
      <trkpt lat="47.03037" lon="9.00157">
        <ele>851</ele>
        <time>2021-08-02T09:44:36.410Z</time>
      </trkpt>
      <trkpt lat="47.03035" lon="9.00156">
        <ele>851</ele>
        <time>2021-08-02T09:44:37.409Z</time>
      </trkpt>
      <trkpt lat="47.03034" lon="9.00155">
        <ele>851</ele>
        <time>2021-08-02T09:44:38.409Z</time>
      </trkpt>
      <trkpt lat="47.03033" lon="9.00154">
        <ele>850</ele>
        <time>2021-08-02T09:44:39.409Z</time>
      </trkpt>
      <trkpt lat="47.03033" lon="9.00153">
        <ele>850</ele>
        <time>2021-08-02T09:44:40.409Z</time>
      </trkpt>
      <trkpt lat="47.03032" lon="9.00153">
        <ele>850</ele>
        <time>2021-08-02T09:44:41.410Z</time>
      </trkpt>
      <trkpt lat="47.03031" lon="9.00153">
        <ele>850</ele>
        <time>2021-08-02T09:44:42.410Z</time>
      </trkpt>
      <trkpt lat="47.03031" lon="9.00152">
        <ele>851</ele>
        <time>2021-08-02T09:44:43.409Z</time>
      </trkpt>
      <trkpt lat="47.0303" lon="9.00153">
        <ele>851</ele>
        <time>2021-08-02T09:44:44.409Z</time>
      </trkpt>
      <trkpt lat="47.0303" lon="9.00153">
        <ele>851</ele>
        <time>2021-08-02T09:44:45.409Z</time>
      </trkpt>
      <trkpt lat="47.0303" lon="9.00153">
        <ele>852</ele>
        <time>2021-08-02T09:44:46.410Z</time>
      </trkpt>
      <trkpt lat="47.0303" lon="9.00153">
        <ele>853</ele>
        <time>2021-08-02T09:44:47.411Z</time>
      </trkpt>
      <trkpt lat="47.0303" lon="9.00152">
        <ele>853</ele>
        <time>2021-08-02T09:44:48.410Z</time>
      </trkpt>
      <trkpt lat="47.0303" lon="9.00152">
        <ele>852</ele>
        <time>2021-08-02T09:44:49.411Z</time>
      </trkpt>
      <trkpt lat="47.0303" lon="9.00151">
        <ele>852</ele>
        <time>2021-08-02T09:44:50.411Z</time>
      </trkpt>
      <trkpt lat="47.03029" lon="9.00151">
        <ele>852</ele>
        <time>2021-08-02T09:44:51.410Z</time>
      </trkpt>
      <trkpt lat="47.03029" lon="9.0015">
        <ele>851</ele>
        <time>2021-08-02T09:44:52.411Z</time>
      </trkpt>
      <trkpt lat="47.03029" lon="9.00148">
        <ele>852</ele>
        <time>2021-08-02T09:44:53.411Z</time>
      </trkpt>
      <trkpt lat="47.03029" lon="9.00147">
        <ele>852</ele>
        <time>2021-08-02T09:44:54.411Z</time>
      </trkpt>
      <trkpt lat="47.03029" lon="9.00145">
        <ele>852</ele>
        <time>2021-08-02T09:44:55.410Z</time>
      </trkpt>
      <trkpt lat="47.03028" lon="9.00143">
        <ele>852</ele>
        <time>2021-08-02T09:44:56.411Z</time>
      </trkpt>
      <trkpt lat="47.03027" lon="9.00142">
        <ele>852</ele>
        <time>2021-08-02T09:44:57.410Z</time>
      </trkpt>
      <trkpt lat="47.03025" lon="9.00141">
        <ele>852</ele>
        <time>2021-08-02T09:44:58.410Z</time>
      </trkpt>
      <trkpt lat="47.03024" lon="9.0014">
        <ele>852</ele>
        <time>2021-08-02T09:44:59.411Z</time>
      </trkpt>
      <trkpt lat="47.03024" lon="9.00139">
        <ele>852</ele>
        <time>2021-08-02T09:45:00.411Z</time>
      </trkpt>
      <trkpt lat="47.03023" lon="9.00138">
        <ele>853</ele>
        <time>2021-08-02T09:45:01.411Z</time>
      </trkpt>
      <trkpt lat="47.03023" lon="9.00136">
        <ele>853</ele>
        <time>2021-08-02T09:45:02.410Z</time>
      </trkpt>
      <trkpt lat="47.03022" lon="9.00135">
        <ele>853</ele>
        <time>2021-08-02T09:45:03.410Z</time>
      </trkpt>
      <trkpt lat="47.0302" lon="9.00134">
        <ele>853</ele>
        <time>2021-08-02T09:45:04.410Z</time>
      </trkpt>
      <trkpt lat="47.03018" lon="9.00133">
        <ele>853</ele>
        <time>2021-08-02T09:45:05.411Z</time>
      </trkpt>
      <trkpt lat="47.03018" lon="9.00132">
        <ele>853</ele>
        <time>2021-08-02T09:45:06.411Z</time>
      </trkpt>
      <trkpt lat="47.03017" lon="9.00131">
        <ele>854</ele>
        <time>2021-08-02T09:45:07.411Z</time>
      </trkpt>
      <trkpt lat="47.03016" lon="9.0013">
        <ele>854</ele>
        <time>2021-08-02T09:45:08.410Z</time>
      </trkpt>
      <trkpt lat="47.03015" lon="9.00129">
        <ele>854</ele>
        <time>2021-08-02T09:45:09.410Z</time>
      </trkpt>
      <trkpt lat="47.03013" lon="9.00129">
        <ele>854</ele>
        <time>2021-08-02T09:45:10.410Z</time>
      </trkpt>
      <trkpt lat="47.03012" lon="9.00128">
        <ele>854</ele>
        <time>2021-08-02T09:45:11.410Z</time>
      </trkpt>
      <trkpt lat="47.03012" lon="9.00128">
        <ele>854</ele>
        <time>2021-08-02T09:45:12.410Z</time>
      </trkpt>
      <trkpt lat="47.03011" lon="9.00128">
        <ele>855</ele>
        <time>2021-08-02T09:45:13.411Z</time>
      </trkpt>
      <trkpt lat="47.03011" lon="9.00128">
        <ele>855</ele>
        <time>2021-08-02T09:45:14.410Z</time>
      </trkpt>
      <trkpt lat="47.03013" lon="9.00128">
        <ele>855</ele>
        <time>2021-08-02T09:45:15.410Z</time>
      </trkpt>
      <trkpt lat="47.03015" lon="9.00127">
        <ele>856</ele>
        <time>2021-08-02T09:45:16.410Z</time>
      </trkpt>
      <trkpt lat="47.03018" lon="9.00127">
        <ele>856</ele>
        <time>2021-08-02T09:45:17.410Z</time>
      </trkpt>
      <trkpt lat="47.0302" lon="9.00127">
        <ele>856</ele>
        <time>2021-08-02T09:45:18.411Z</time>
      </trkpt>
      <trkpt lat="47.03021" lon="9.00127">
        <ele>857</ele>
        <time>2021-08-02T09:45:19.410Z</time>
      </trkpt>
      <trkpt lat="47.03021" lon="9.00126">
        <ele>857</ele>
        <time>2021-08-02T09:45:20.411Z</time>
      </trkpt>
      <trkpt lat="47.0302" lon="9.00126">
        <ele>857</ele>
        <time>2021-08-02T09:45:21.410Z</time>
      </trkpt>
      <trkpt lat="47.0302" lon="9.00126">
        <ele>857</ele>
        <time>2021-08-02T09:45:22.411Z</time>
      </trkpt>
      <trkpt lat="47.0302" lon="9.00126">
        <ele>858</ele>
        <time>2021-08-02T09:45:23.411Z</time>
      </trkpt>
      <trkpt lat="47.0302" lon="9.00126">
        <ele>858</ele>
        <time>2021-08-02T09:45:24.410Z</time>
      </trkpt>
      <trkpt lat="47.0302" lon="9.00127">
        <ele>857</ele>
        <time>2021-08-02T09:45:25.411Z</time>
      </trkpt>
      <trkpt lat="47.0302" lon="9.00127">
        <ele>857</ele>
        <time>2021-08-02T09:45:26.410Z</time>
      </trkpt>
      <trkpt lat="47.03021" lon="9.00126">
        <ele>857</ele>
        <time>2021-08-02T09:45:27.411Z</time>
      </trkpt>
      <trkpt lat="47.03022" lon="9.00126">
        <ele>858</ele>
        <time>2021-08-02T09:45:28.411Z</time>
      </trkpt>
      <trkpt lat="47.03023" lon="9.00126">
        <ele>858</ele>
        <time>2021-08-02T09:45:29.411Z</time>
      </trkpt>
      <trkpt lat="47.03023" lon="9.00126">
        <ele>858</ele>
        <time>2021-08-02T09:45:30.410Z</time>
      </trkpt>
      <trkpt lat="47.03023" lon="9.00126">
        <ele>858</ele>
        <time>2021-08-02T09:45:31.411Z</time>
      </trkpt>
      <trkpt lat="47.03022" lon="9.00127">
        <ele>858</ele>
        <time>2021-08-02T09:45:32.411Z</time>
      </trkpt>
      <trkpt lat="47.03022" lon="9.00127">
        <ele>858</ele>
        <time>2021-08-02T09:45:33.411Z</time>
      </trkpt>
      <trkpt lat="47.03021" lon="9.00127">
        <ele>858</ele>
        <time>2021-08-02T09:45:34.411Z</time>
      </trkpt>
      <trkpt lat="47.0302" lon="9.00127">
        <ele>858</ele>
        <time>2021-08-02T09:45:35.410Z</time>
      </trkpt>
      <trkpt lat="47.0302" lon="9.00128">
        <ele>859</ele>
        <time>2021-08-02T09:45:36.411Z</time>
      </trkpt>
      <trkpt lat="47.03019" lon="9.00128">
        <ele>859</ele>
        <time>2021-08-02T09:45:37.411Z</time>
      </trkpt>
      <trkpt lat="47.03019" lon="9.00128">
        <ele>859</ele>
        <time>2021-08-02T09:45:38.410Z</time>
      </trkpt>
      <trkpt lat="47.03018" lon="9.00128">
        <ele>859</ele>
        <time>2021-08-02T09:45:39.411Z</time>
      </trkpt>
      <trkpt lat="47.03017" lon="9.00128">
        <ele>859</ele>
        <time>2021-08-02T09:45:40.410Z</time>
      </trkpt>
      <trkpt lat="47.03016" lon="9.00128">
        <ele>859</ele>
        <time>2021-08-02T09:45:41.410Z</time>
      </trkpt>
      <trkpt lat="47.03015" lon="9.00128">
        <ele>859</ele>
        <time>2021-08-02T09:45:42.411Z</time>
      </trkpt>
      <trkpt lat="47.03015" lon="9.00128">
        <ele>859</ele>
        <time>2021-08-02T09:45:43.410Z</time>
      </trkpt>
      <trkpt lat="47.03014" lon="9.00127">
        <ele>859</ele>
        <time>2021-08-02T09:45:44.411Z</time>
      </trkpt>
      <trkpt lat="47.03013" lon="9.00127">
        <ele>859</ele>
        <time>2021-08-02T09:45:45.410Z</time>
      </trkpt>
      <trkpt lat="47.03013" lon="9.00127">
        <ele>859</ele>
        <time>2021-08-02T09:45:46.411Z</time>
      </trkpt>
      <trkpt lat="47.03012" lon="9.00127">
        <ele>858</ele>
        <time>2021-08-02T09:45:47.410Z</time>
      </trkpt>
      <trkpt lat="47.03012" lon="9.00127">
        <ele>858</ele>
        <time>2021-08-02T09:45:48.410Z</time>
      </trkpt>
      <trkpt lat="47.03013" lon="9.00126">
        <ele>858</ele>
        <time>2021-08-02T09:45:49.411Z</time>
      </trkpt>
      <trkpt lat="47.03013" lon="9.00125">
        <ele>858</ele>
        <time>2021-08-02T09:45:50.411Z</time>
      </trkpt>
      <trkpt lat="47.03014" lon="9.00125">
        <ele>858</ele>
        <time>2021-08-02T09:45:51.411Z</time>
      </trkpt>
      <trkpt lat="47.03015" lon="9.00125">
        <ele>858</ele>
        <time>2021-08-02T09:45:52.410Z</time>
      </trkpt>
      <trkpt lat="47.03014" lon="9.00126">
        <ele>856</ele>
        <time>2021-08-02T09:45:53.411Z</time>
      </trkpt>
      <trkpt lat="47.03014" lon="9.00126">
        <ele>856</ele>
        <time>2021-08-02T09:45:54.411Z</time>
      </trkpt>
      <trkpt lat="47.03015" lon="9.00126">
        <ele>856</ele>
        <time>2021-08-02T09:45:55.411Z</time>
      </trkpt>
      <trkpt lat="47.03015" lon="9.00125">
        <ele>856</ele>
        <time>2021-08-02T09:45:56.411Z</time>
      </trkpt>
      <trkpt lat="47.03014" lon="9.00126">
        <ele>856</ele>
        <time>2021-08-02T09:45:57.411Z</time>
      </trkpt>
      <trkpt lat="47.03014" lon="9.00126">
        <ele>856</ele>
        <time>2021-08-02T09:45:58.411Z</time>
      </trkpt>
      <trkpt lat="47.03016" lon="9.00127">
        <ele>856</ele>
        <time>2021-08-02T09:45:59.411Z</time>
      </trkpt>
      <trkpt lat="47.03016" lon="9.00128">
        <ele>856</ele>
        <time>2021-08-02T09:46:00.411Z</time>
      </trkpt>
      <trkpt lat="47.03017" lon="9.00129">
        <ele>856</ele>
        <time>2021-08-02T09:46:01.411Z</time>
      </trkpt>
      <trkpt lat="47.03017" lon="9.0013">
        <ele>856</ele>
        <time>2021-08-02T09:46:02.411Z</time>
      </trkpt>
      <trkpt lat="47.03015" lon="9.00132">
        <ele>856</ele>
        <time>2021-08-02T09:46:03.411Z</time>
      </trkpt>
      <trkpt lat="47.03015" lon="9.00133">
        <ele>856</ele>
        <time>2021-08-02T09:46:04.410Z</time>
      </trkpt>
      <trkpt lat="47.03013" lon="9.00133">
        <ele>856</ele>
        <time>2021-08-02T09:46:05.411Z</time>
      </trkpt>
      <trkpt lat="47.03012" lon="9.00132">
        <ele>856</ele>
        <time>2021-08-02T09:46:06.411Z</time>
      </trkpt>
      <trkpt lat="47.0301" lon="9.00132">
        <ele>856</ele>
        <time>2021-08-02T09:46:07.410Z</time>
      </trkpt>
      <trkpt lat="47.03009" lon="9.00134">
        <ele>856</ele>
        <time>2021-08-02T09:46:08.411Z</time>
      </trkpt>
      <trkpt lat="47.03007" lon="9.00134">
        <ele>855</ele>
        <time>2021-08-02T09:46:09.410Z</time>
      </trkpt>
      <trkpt lat="47.03006" lon="9.00135">
        <ele>855</ele>
        <time>2021-08-02T09:46:10.411Z</time>
      </trkpt>
      <trkpt lat="47.03004" lon="9.00135">
        <ele>855</ele>
        <time>2021-08-02T09:46:11.411Z</time>
      </trkpt>
      <trkpt lat="47.03003" lon="9.00136">
        <ele>855</ele>
        <time>2021-08-02T09:46:12.411Z</time>
      </trkpt>
      <trkpt lat="47.03002" lon="9.00136">
        <ele>854</ele>
        <time>2021-08-02T09:46:13.411Z</time>
      </trkpt>
      <trkpt lat="47.03" lon="9.00138">
        <ele>854</ele>
        <time>2021-08-02T09:46:14.411Z</time>
      </trkpt>
      <trkpt lat="47.02999" lon="9.00139">
        <ele>854</ele>
        <time>2021-08-02T09:46:15.411Z</time>
      </trkpt>
      <trkpt lat="47.02998" lon="9.0014">
        <ele>854</ele>
        <time>2021-08-02T09:46:16.411Z</time>
      </trkpt>
      <trkpt lat="47.02998" lon="9.0014">
        <ele>853</ele>
        <time>2021-08-02T09:46:17.410Z</time>
      </trkpt>
      <trkpt lat="47.02996" lon="9.0014">
        <ele>852</ele>
        <time>2021-08-02T09:46:18.411Z</time>
      </trkpt>
      <trkpt lat="47.02994" lon="9.0014">
        <ele>852</ele>
        <time>2021-08-02T09:46:19.411Z</time>
      </trkpt>
      <trkpt lat="47.02993" lon="9.0014">
        <ele>851</ele>
        <time>2021-08-02T09:46:20.411Z</time>
      </trkpt>
      <trkpt lat="47.02991" lon="9.0014">
        <ele>851</ele>
        <time>2021-08-02T09:46:21.411Z</time>
      </trkpt>
      <trkpt lat="47.02989" lon="9.0014">
        <ele>850</ele>
        <time>2021-08-02T09:46:22.411Z</time>
      </trkpt>
      <trkpt lat="47.02988" lon="9.0014">
        <ele>850</ele>
        <time>2021-08-02T09:46:23.411Z</time>
      </trkpt>
      <trkpt lat="47.02988" lon="9.0014">
        <ele>850</ele>
        <time>2021-08-02T09:46:24.410Z</time>
      </trkpt>
      <trkpt lat="47.02988" lon="9.0014">
        <ele>849</ele>
        <time>2021-08-02T09:46:25.411Z</time>
      </trkpt>
      <trkpt lat="47.02989" lon="9.0014">
        <ele>849</ele>
        <time>2021-08-02T09:46:26.410Z</time>
      </trkpt>
      <trkpt lat="47.0299" lon="9.00141">
        <ele>848</ele>
        <time>2021-08-02T09:46:27.411Z</time>
      </trkpt>
      <trkpt lat="47.02991" lon="9.00141">
        <ele>848</ele>
        <time>2021-08-02T09:46:28.410Z</time>
      </trkpt>
      <trkpt lat="47.02992" lon="9.00141">
        <ele>847</ele>
        <time>2021-08-02T09:46:29.411Z</time>
      </trkpt>
      <trkpt lat="47.02992" lon="9.00141">
        <ele>847</ele>
        <time>2021-08-02T09:46:30.410Z</time>
      </trkpt>
      <trkpt lat="47.02992" lon="9.00141">
        <ele>846</ele>
        <time>2021-08-02T09:46:31.411Z</time>
      </trkpt>
      <trkpt lat="47.02992" lon="9.00142">
        <ele>845</ele>
        <time>2021-08-02T09:46:32.410Z</time>
      </trkpt>
      <trkpt lat="47.02993" lon="9.00142">
        <ele>845</ele>
        <time>2021-08-02T09:46:33.410Z</time>
      </trkpt>
      <trkpt lat="47.02993" lon="9.00142">
        <ele>845</ele>
        <time>2021-08-02T09:46:34.411Z</time>
      </trkpt>
      <trkpt lat="47.02993" lon="9.00142">
        <ele>848</ele>
        <time>2021-08-02T09:46:35.412Z</time>
      </trkpt>
      <trkpt lat="47.02994" lon="9.00143">
        <ele>853</ele>
        <time>2021-08-02T09:46:36.412Z</time>
      </trkpt>
      <trkpt lat="47.02992" lon="9.00144">
        <ele>851</ele>
        <time>2021-08-02T09:46:37.412Z</time>
      </trkpt>
      <trkpt lat="47.02992" lon="9.00144">
        <ele>851</ele>
        <time>2021-08-02T09:46:38.411Z</time>
      </trkpt>
      <trkpt lat="47.02992" lon="9.00145">
        <ele>852</ele>
        <time>2021-08-02T09:46:39.412Z</time>
      </trkpt>
      <trkpt lat="47.02992" lon="9.00144">
        <ele>852</ele>
        <time>2021-08-02T09:46:40.412Z</time>
      </trkpt>
      <trkpt lat="47.02992" lon="9.00144">
        <ele>852</ele>
        <time>2021-08-02T09:46:41.412Z</time>
      </trkpt>
      <trkpt lat="47.02992" lon="9.00144">
        <ele>852</ele>
        <time>2021-08-02T09:46:42.411Z</time>
      </trkpt>
      <trkpt lat="47.02994" lon="9.00141">
        <ele>850</ele>
        <time>2021-08-02T09:46:43.412Z</time>
      </trkpt>
      <trkpt lat="47.02993" lon="9.00141">
        <ele>850</ele>
        <time>2021-08-02T09:46:44.412Z</time>
      </trkpt>
      <trkpt lat="47.02991" lon="9.0014">
        <ele>847</ele>
        <time>2021-08-02T09:46:45.413Z</time>
      </trkpt>
      <trkpt lat="47.02991" lon="9.0014">
        <ele>847</ele>
        <time>2021-08-02T09:46:46.413Z</time>
      </trkpt>
      <trkpt lat="47.02992" lon="9.0014">
        <ele>848</ele>
        <time>2021-08-02T09:46:47.415Z</time>
      </trkpt>
      <trkpt lat="47.02992" lon="9.0014">
        <ele>849</ele>
        <time>2021-08-02T09:46:48.415Z</time>
      </trkpt>
      <trkpt lat="47.02994" lon="9.0014">
        <ele>850</ele>
        <time>2021-08-02T09:46:49.414Z</time>
      </trkpt>
      <trkpt lat="47.02994" lon="9.0014">
        <ele>851</ele>
        <time>2021-08-02T09:46:50.415Z</time>
      </trkpt>
      <trkpt lat="47.02995" lon="9.0014">
        <ele>852</ele>
        <time>2021-08-02T09:46:51.415Z</time>
      </trkpt>
      <trkpt lat="47.02995" lon="9.0014">
        <ele>853</ele>
        <time>2021-08-02T09:46:52.414Z</time>
      </trkpt>
      <trkpt lat="47.02996" lon="9.00141">
        <ele>852</ele>
        <time>2021-08-02T09:46:53.414Z</time>
      </trkpt>
      <trkpt lat="47.02996" lon="9.0014">
        <ele>851</ele>
        <time>2021-08-02T09:46:54.415Z</time>
      </trkpt>
      <trkpt lat="47.02996" lon="9.00139">
        <ele>851</ele>
        <time>2021-08-02T09:46:55.416Z</time>
      </trkpt>
      <trkpt lat="47.03001" lon="9.0014">
        <ele>853</ele>
        <time>2021-08-02T09:46:56.416Z</time>
      </trkpt>
      <trkpt lat="47.03001" lon="9.0014">
        <ele>853</ele>
        <time>2021-08-02T09:46:57.416Z</time>
      </trkpt>
      <trkpt lat="47.03001" lon="9.0014">
        <ele>852</ele>
        <time>2021-08-02T09:46:58.415Z</time>
      </trkpt>
      <trkpt lat="47.02999" lon="9.00141">
        <ele>854</ele>
        <time>2021-08-02T09:46:59.417Z</time>
      </trkpt>
      <trkpt lat="47.03" lon="9.00142">
        <ele>855</ele>
        <time>2021-08-02T09:47:00.417Z</time>
      </trkpt>
      <trkpt lat="47.02999" lon="9.00142">
        <ele>855</ele>
        <time>2021-08-02T09:47:01.416Z</time>
      </trkpt>
      <trkpt lat="47.02999" lon="9.00144">
        <ele>855</ele>
        <time>2021-08-02T09:47:02.418Z</time>
      </trkpt>
      <trkpt lat="47.02999" lon="9.00144">
        <ele>855</ele>
        <time>2021-08-02T09:47:03.418Z</time>
      </trkpt>
      <trkpt lat="47.03" lon="9.00145">
        <ele>855</ele>
        <time>2021-08-02T09:47:04.417Z</time>
      </trkpt>
      <trkpt lat="47.03001" lon="9.00145">
        <ele>855</ele>
        <time>2021-08-02T09:47:05.418Z</time>
      </trkpt>
      <trkpt lat="47.03002" lon="9.00146">
        <ele>855</ele>
        <time>2021-08-02T09:47:06.418Z</time>
      </trkpt>
      <trkpt lat="47.03002" lon="9.00147">
        <ele>855</ele>
        <time>2021-08-02T09:47:07.418Z</time>
      </trkpt>
      <trkpt lat="47.03003" lon="9.00147">
        <ele>856</ele>
        <time>2021-08-02T09:47:08.418Z</time>
      </trkpt>
      <trkpt lat="47.03004" lon="9.00147">
        <ele>856</ele>
        <time>2021-08-02T09:47:09.417Z</time>
      </trkpt>
      <trkpt lat="47.03005" lon="9.00148">
        <ele>857</ele>
        <time>2021-08-02T09:47:10.417Z</time>
      </trkpt>
      <trkpt lat="47.03006" lon="9.00149">
        <ele>858</ele>
        <time>2021-08-02T09:47:11.418Z</time>
      </trkpt>
      <trkpt lat="47.03006" lon="9.00149">
        <ele>858</ele>
        <time>2021-08-02T09:47:12.418Z</time>
      </trkpt>
      <trkpt lat="47.03006" lon="9.00149">
        <ele>859</ele>
        <time>2021-08-02T09:47:13.418Z</time>
      </trkpt>
      <trkpt lat="47.03005" lon="9.00149">
        <ele>860</ele>
        <time>2021-08-02T09:47:14.417Z</time>
      </trkpt>
      <trkpt lat="47.03004" lon="9.00147">
        <ele>860</ele>
        <time>2021-08-02T09:47:15.418Z</time>
      </trkpt>
      <trkpt lat="47.03005" lon="9.00145">
        <ele>861</ele>
        <time>2021-08-02T09:47:16.417Z</time>
      </trkpt>
      <trkpt lat="47.03005" lon="9.00142">
        <ele>863</ele>
        <time>2021-08-02T09:47:17.418Z</time>
      </trkpt>
      <trkpt lat="47.03004" lon="9.00142">
        <ele>864</ele>
        <time>2021-08-02T09:47:18.418Z</time>
      </trkpt>
      <trkpt lat="47.03004" lon="9.00142">
        <ele>865</ele>
        <time>2021-08-02T09:47:19.417Z</time>
      </trkpt>
      <trkpt lat="47.03004" lon="9.00141">
        <ele>865</ele>
        <time>2021-08-02T09:47:20.417Z</time>
      </trkpt>
      <trkpt lat="47.03005" lon="9.00141">
        <ele>866</ele>
        <time>2021-08-02T09:47:21.418Z</time>
      </trkpt>
      <trkpt lat="47.03006" lon="9.00141">
        <ele>868</ele>
        <time>2021-08-02T09:47:22.417Z</time>
      </trkpt>
      <trkpt lat="47.03006" lon="9.00141">
        <ele>869</ele>
        <time>2021-08-02T09:47:23.417Z</time>
      </trkpt>
      <trkpt lat="47.03006" lon="9.00142">
        <ele>870</ele>
        <time>2021-08-02T09:47:24.419Z</time>
      </trkpt>
      <trkpt lat="47.03006" lon="9.00142">
        <ele>870</ele>
        <time>2021-08-02T09:47:25.418Z</time>
      </trkpt>
      <trkpt lat="47.03006" lon="9.00142">
        <ele>869</ele>
        <time>2021-08-02T09:47:26.418Z</time>
      </trkpt>
      <trkpt lat="47.03006" lon="9.00142">
        <ele>867</ele>
        <time>2021-08-02T09:47:27.419Z</time>
      </trkpt>
      <trkpt lat="47.03008" lon="9.00141">
        <ele>867</ele>
        <time>2021-08-02T09:47:28.419Z</time>
      </trkpt>
      <trkpt lat="47.03008" lon="9.00141">
        <ele>867</ele>
        <time>2021-08-02T09:47:29.420Z</time>
      </trkpt>
      <trkpt lat="47.03007" lon="9.00143">
        <ele>866</ele>
        <time>2021-08-02T09:47:33.420Z</time>
      </trkpt>
      <trkpt lat="47.03007" lon="9.00143">
        <ele>866</ele>
        <time>2021-08-02T09:47:34.419Z</time>
      </trkpt>
      <trkpt lat="47.03006" lon="9.00142">
        <ele>866</ele>
        <time>2021-08-02T09:47:35.419Z</time>
      </trkpt>
      <trkpt lat="47.03005" lon="9.00141">
        <ele>866</ele>
        <time>2021-08-02T09:47:36.419Z</time>
      </trkpt>
      <trkpt lat="47.03004" lon="9.00141">
        <ele>865</ele>
        <time>2021-08-02T09:47:37.420Z</time>
      </trkpt>
      <trkpt lat="47.03003" lon="9.00141">
        <ele>865</ele>
        <time>2021-08-02T09:47:38.420Z</time>
      </trkpt>
      <trkpt lat="47.03001" lon="9.00141">
        <ele>865</ele>
        <time>2021-08-02T09:47:39.419Z</time>
      </trkpt>
      <trkpt lat="47.03" lon="9.00141">
        <ele>864</ele>
        <time>2021-08-02T09:47:40.420Z</time>
      </trkpt>
      <trkpt lat="47.03" lon="9.0014">
        <ele>864</ele>
        <time>2021-08-02T09:47:41.420Z</time>
      </trkpt>
      <trkpt lat="47.03001" lon="9.00139">
        <ele>864</ele>
        <time>2021-08-02T09:47:42.420Z</time>
      </trkpt>
      <trkpt lat="47.03001" lon="9.00138">
        <ele>863</ele>
        <time>2021-08-02T09:47:43.419Z</time>
      </trkpt>
      <trkpt lat="47.03001" lon="9.00138">
        <ele>863</ele>
        <time>2021-08-02T09:47:44.419Z</time>
      </trkpt>
      <trkpt lat="47.03001" lon="9.00137">
        <ele>862</ele>
        <time>2021-08-02T09:47:45.419Z</time>
      </trkpt>
      <trkpt lat="47.02999" lon="9.00136">
        <ele>861</ele>
        <time>2021-08-02T09:47:46.420Z</time>
      </trkpt>
      <trkpt lat="47.03" lon="9.00137">
        <ele>860</ele>
        <time>2021-08-02T09:47:47.420Z</time>
      </trkpt>
      <trkpt lat="47.03" lon="9.00137">
        <ele>860</ele>
        <time>2021-08-02T09:47:48.420Z</time>
      </trkpt>
      <trkpt lat="47.02999" lon="9.00137">
        <ele>859</ele>
        <time>2021-08-02T09:47:49.420Z</time>
      </trkpt>
      <trkpt lat="47.03001" lon="9.00137">
        <ele>859</ele>
        <time>2021-08-02T09:47:50.419Z</time>
      </trkpt>
      <trkpt lat="47.03002" lon="9.00132">
        <ele>858</ele>
        <time>2021-08-02T09:47:51.420Z</time>
      </trkpt>
      <trkpt lat="47.03003" lon="9.0013">
        <ele>858</ele>
        <time>2021-08-02T09:47:52.420Z</time>
      </trkpt>
      <trkpt lat="47.03004" lon="9.00131">
        <ele>857</ele>
        <time>2021-08-02T09:47:53.420Z</time>
      </trkpt>
      <trkpt lat="47.03005" lon="9.00131">
        <ele>856</ele>
        <time>2021-08-02T09:47:54.420Z</time>
      </trkpt>
      <trkpt lat="47.03005" lon="9.00131">
        <ele>855</ele>
        <time>2021-08-02T09:47:55.420Z</time>
      </trkpt>
      <trkpt lat="47.03004" lon="9.00131">
        <ele>854</ele>
        <time>2021-08-02T09:47:56.420Z</time>
      </trkpt>
      <trkpt lat="47.03004" lon="9.0013">
        <ele>854</ele>
        <time>2021-08-02T09:47:57.420Z</time>
      </trkpt>
      <trkpt lat="47.03003" lon="9.00129">
        <ele>852</ele>
        <time>2021-08-02T09:47:58.420Z</time>
      </trkpt>
      <trkpt lat="47.03002" lon="9.00129">
        <ele>851</ele>
        <time>2021-08-02T09:47:59.420Z</time>
      </trkpt>
      <trkpt lat="47.03002" lon="9.00128">
        <ele>850</ele>
        <time>2021-08-02T09:48:00.420Z</time>
      </trkpt>
      <trkpt lat="47.03001" lon="9.00128">
        <ele>850</ele>
        <time>2021-08-02T09:48:01.419Z</time>
      </trkpt>
      <trkpt lat="47.03001" lon="9.00129">
        <ele>849</ele>
        <time>2021-08-02T09:48:02.419Z</time>
      </trkpt>
      <trkpt lat="47.03001" lon="9.00129">
        <ele>849</ele>
        <time>2021-08-02T09:48:03.420Z</time>
      </trkpt>
      <trkpt lat="47.03003" lon="9.0013">
        <ele>848</ele>
        <time>2021-08-02T09:48:04.419Z</time>
      </trkpt>
      <trkpt lat="47.03003" lon="9.0013">
        <ele>847</ele>
        <time>2021-08-02T09:48:05.419Z</time>
      </trkpt>
      <trkpt lat="47.03003" lon="9.0013">
        <ele>847</ele>
        <time>2021-08-02T09:48:06.419Z</time>
      </trkpt>
      <trkpt lat="47.03004" lon="9.0013">
        <ele>847</ele>
        <time>2021-08-02T09:48:07.419Z</time>
      </trkpt>
      <trkpt lat="47.03005" lon="9.00129">
        <ele>847</ele>
        <time>2021-08-02T09:48:08.419Z</time>
      </trkpt>
      <trkpt lat="47.03007" lon="9.00129">
        <ele>846</ele>
        <time>2021-08-02T09:48:09.419Z</time>
      </trkpt>
      <trkpt lat="47.03009" lon="9.00128">
        <ele>846</ele>
        <time>2021-08-02T09:48:10.419Z</time>
      </trkpt>
      <trkpt lat="47.0301" lon="9.00127">
        <ele>846</ele>
        <time>2021-08-02T09:48:11.419Z</time>
      </trkpt>
      <trkpt lat="47.03012" lon="9.00126">
        <ele>846</ele>
        <time>2021-08-02T09:48:12.420Z</time>
      </trkpt>
      <trkpt lat="47.03013" lon="9.00126">
        <ele>845</ele>
        <time>2021-08-02T09:48:13.419Z</time>
      </trkpt>
      <trkpt lat="47.03013" lon="9.00125">
        <ele>845</ele>
        <time>2021-08-02T09:48:14.419Z</time>
      </trkpt>
      <trkpt lat="47.03013" lon="9.00126">
        <ele>845</ele>
        <time>2021-08-02T09:48:15.420Z</time>
      </trkpt>
      <trkpt lat="47.03014" lon="9.00126">
        <ele>845</ele>
        <time>2021-08-02T09:48:16.419Z</time>
      </trkpt>
      <trkpt lat="47.03014" lon="9.00127">
        <ele>845</ele>
        <time>2021-08-02T09:48:17.419Z</time>
      </trkpt>
      <trkpt lat="47.03015" lon="9.00128">
        <ele>845</ele>
        <time>2021-08-02T09:48:18.419Z</time>
      </trkpt>
      <trkpt lat="47.03016" lon="9.00129">
        <ele>845</ele>
        <time>2021-08-02T09:48:19.420Z</time>
      </trkpt>
      <trkpt lat="47.03016" lon="9.00129">
        <ele>845</ele>
        <time>2021-08-02T09:48:20.419Z</time>
      </trkpt>
      <trkpt lat="47.03016" lon="9.00129">
        <ele>845</ele>
        <time>2021-08-02T09:48:21.420Z</time>
      </trkpt>
      <trkpt lat="47.03015" lon="9.00129">
        <ele>845</ele>
        <time>2021-08-02T09:48:22.420Z</time>
      </trkpt>
      <trkpt lat="47.03015" lon="9.00131">
        <ele>845</ele>
        <time>2021-08-02T09:48:23.420Z</time>
      </trkpt>
      <trkpt lat="47.03015" lon="9.00132">
        <ele>845</ele>
        <time>2021-08-02T09:48:24.419Z</time>
      </trkpt>
      <trkpt lat="47.03014" lon="9.00133">
        <ele>845</ele>
        <time>2021-08-02T09:48:25.420Z</time>
      </trkpt>
      <trkpt lat="47.03014" lon="9.00134">
        <ele>845</ele>
        <time>2021-08-02T09:48:26.419Z</time>
      </trkpt>
      <trkpt lat="47.03013" lon="9.00134">
        <ele>846</ele>
        <time>2021-08-02T09:48:27.419Z</time>
      </trkpt>
      <trkpt lat="47.03012" lon="9.00133">
        <ele>846</ele>
        <time>2021-08-02T09:48:28.419Z</time>
      </trkpt>
      <trkpt lat="47.0301" lon="9.00133">
        <ele>846</ele>
        <time>2021-08-02T09:48:29.419Z</time>
      </trkpt>
      <trkpt lat="47.03009" lon="9.00132">
        <ele>846</ele>
        <time>2021-08-02T09:48:30.420Z</time>
      </trkpt>
      <trkpt lat="47.03009" lon="9.00132">
        <ele>846</ele>
        <time>2021-08-02T09:48:31.419Z</time>
      </trkpt>
      <trkpt lat="47.03009" lon="9.00131">
        <ele>846</ele>
        <time>2021-08-02T09:48:32.419Z</time>
      </trkpt>
      <trkpt lat="47.0301" lon="9.00132">
        <ele>846</ele>
        <time>2021-08-02T09:48:33.420Z</time>
      </trkpt>
      <trkpt lat="47.0301" lon="9.00133">
        <ele>847</ele>
        <time>2021-08-02T09:48:34.419Z</time>
      </trkpt>
      <trkpt lat="47.03011" lon="9.00134">
        <ele>847</ele>
        <time>2021-08-02T09:48:35.420Z</time>
      </trkpt>
      <trkpt lat="47.0301" lon="9.00133">
        <ele>847</ele>
        <time>2021-08-02T09:48:36.420Z</time>
      </trkpt>
      <trkpt lat="47.03008" lon="9.00133">
        <ele>847</ele>
        <time>2021-08-02T09:48:37.419Z</time>
      </trkpt>
      <trkpt lat="47.03008" lon="9.00134">
        <ele>847</ele>
        <time>2021-08-02T09:48:38.419Z</time>
      </trkpt>
      <trkpt lat="47.03007" lon="9.00134">
        <ele>847</ele>
        <time>2021-08-02T09:48:39.419Z</time>
      </trkpt>
      <trkpt lat="47.03007" lon="9.00135">
        <ele>847</ele>
        <time>2021-08-02T09:48:40.419Z</time>
      </trkpt>
      <trkpt lat="47.03007" lon="9.00134">
        <ele>847</ele>
        <time>2021-08-02T09:48:41.420Z</time>
      </trkpt>
      <trkpt lat="47.03007" lon="9.00134">
        <ele>847</ele>
        <time>2021-08-02T09:48:42.420Z</time>
      </trkpt>
      <trkpt lat="47.03006" lon="9.00135">
        <ele>847</ele>
        <time>2021-08-02T09:48:43.421Z</time>
      </trkpt>
      <trkpt lat="47.03005" lon="9.00136">
        <ele>847</ele>
        <time>2021-08-02T09:48:44.420Z</time>
      </trkpt>
      <trkpt lat="47.03004" lon="9.00136">
        <ele>847</ele>
        <time>2021-08-02T09:48:45.420Z</time>
      </trkpt>
      <trkpt lat="47.03003" lon="9.00137">
        <ele>847</ele>
        <time>2021-08-02T09:48:46.421Z</time>
      </trkpt>
      <trkpt lat="47.03002" lon="9.00136">
        <ele>847</ele>
        <time>2021-08-02T09:48:47.420Z</time>
      </trkpt>
      <trkpt lat="47.03001" lon="9.00137">
        <ele>847</ele>
        <time>2021-08-02T09:48:48.421Z</time>
      </trkpt>
      <trkpt lat="47.03002" lon="9.00138">
        <ele>846</ele>
        <time>2021-08-02T09:48:49.422Z</time>
      </trkpt>
      <trkpt lat="47.03002" lon="9.00138">
        <ele>847</ele>
        <time>2021-08-02T09:48:50.421Z</time>
      </trkpt>
      <trkpt lat="47.03002" lon="9.00139">
        <ele>847</ele>
        <time>2021-08-02T09:48:51.421Z</time>
      </trkpt>
      <trkpt lat="47.03002" lon="9.00139">
        <ele>847</ele>
        <time>2021-08-02T09:48:52.421Z</time>
      </trkpt>
      <trkpt lat="47.03" lon="9.00138">
        <ele>849</ele>
        <time>2021-08-02T09:48:53.423Z</time>
      </trkpt>
      <trkpt lat="47.03" lon="9.00138">
        <ele>849</ele>
        <time>2021-08-02T09:48:54.422Z</time>
      </trkpt>
      <trkpt lat="47.03" lon="9.00138">
        <ele>849</ele>
        <time>2021-08-02T09:48:55.422Z</time>
      </trkpt>
      <trkpt lat="47.03" lon="9.00139">
        <ele>850</ele>
        <time>2021-08-02T09:48:56.424Z</time>
      </trkpt>
      <trkpt lat="47.03" lon="9.00139">
        <ele>850</ele>
        <time>2021-08-02T09:48:57.423Z</time>
      </trkpt>
      <trkpt lat="47.02999" lon="9.00139">
        <ele>850</ele>
        <time>2021-08-02T09:48:58.423Z</time>
      </trkpt>
      <trkpt lat="47.02999" lon="9.0014">
        <ele>851</ele>
        <time>2021-08-02T09:48:59.424Z</time>
      </trkpt>
      <trkpt lat="47.02999" lon="9.0014">
        <ele>851</ele>
        <time>2021-08-02T09:49:00.424Z</time>
      </trkpt>
      <trkpt lat="47.02999" lon="9.0014">
        <ele>852</ele>
        <time>2021-08-02T09:49:01.423Z</time>
      </trkpt>
      <trkpt lat="47.02997" lon="9.00139">
        <ele>854</ele>
        <time>2021-08-02T09:49:02.424Z</time>
      </trkpt>
      <trkpt lat="47.02996" lon="9.00139">
        <ele>854</ele>
        <time>2021-08-02T09:49:03.424Z</time>
      </trkpt>
      <trkpt lat="47.02994" lon="9.00139">
        <ele>854</ele>
        <time>2021-08-02T09:49:04.423Z</time>
      </trkpt>
      <trkpt lat="47.02995" lon="9.00139">
        <ele>855</ele>
        <time>2021-08-02T09:49:05.423Z</time>
      </trkpt>
      <trkpt lat="47.02996" lon="9.00139">
        <ele>855</ele>
        <time>2021-08-02T09:49:06.423Z</time>
      </trkpt>
      <trkpt lat="47.02996" lon="9.00139">
        <ele>855</ele>
        <time>2021-08-02T09:49:07.424Z</time>
      </trkpt>
      <trkpt lat="47.02997" lon="9.00139">
        <ele>855</ele>
        <time>2021-08-02T09:49:08.424Z</time>
      </trkpt>
      <trkpt lat="47.02998" lon="9.0014">
        <ele>855</ele>
        <time>2021-08-02T09:49:09.424Z</time>
      </trkpt>
      <trkpt lat="47.02998" lon="9.00141">
        <ele>855</ele>
        <time>2021-08-02T09:49:10.424Z</time>
      </trkpt>
      <trkpt lat="47.02999" lon="9.00142">
        <ele>855</ele>
        <time>2021-08-02T09:49:11.424Z</time>
      </trkpt>
      <trkpt lat="47.03" lon="9.00144">
        <ele>856</ele>
        <time>2021-08-02T09:49:12.424Z</time>
      </trkpt>
      <trkpt lat="47.03" lon="9.00145">
        <ele>856</ele>
        <time>2021-08-02T09:49:13.424Z</time>
      </trkpt>
      <trkpt lat="47.03" lon="9.00145">
        <ele>856</ele>
        <time>2021-08-02T09:49:14.423Z</time>
      </trkpt>
      <trkpt lat="47.03" lon="9.00145">
        <ele>857</ele>
        <time>2021-08-02T09:49:15.423Z</time>
      </trkpt>
      <trkpt lat="47.03" lon="9.00146">
        <ele>857</ele>
        <time>2021-08-02T09:49:16.423Z</time>
      </trkpt>
      <trkpt lat="47.03001" lon="9.00146">
        <ele>858</ele>
        <time>2021-08-02T09:49:17.423Z</time>
      </trkpt>
      <trkpt lat="47.03001" lon="9.00146">
        <ele>858</ele>
        <time>2021-08-02T09:49:18.424Z</time>
      </trkpt>
      <trkpt lat="47.03002" lon="9.00147">
        <ele>859</ele>
        <time>2021-08-02T09:49:19.424Z</time>
      </trkpt>
      <trkpt lat="47.03003" lon="9.00147">
        <ele>859</ele>
        <time>2021-08-02T09:49:20.424Z</time>
      </trkpt>
      <trkpt lat="47.03005" lon="9.00147">
        <ele>859</ele>
        <time>2021-08-02T09:49:21.424Z</time>
      </trkpt>
      <trkpt lat="47.03006" lon="9.00147">
        <ele>860</ele>
        <time>2021-08-02T09:49:22.424Z</time>
      </trkpt>
      <trkpt lat="47.03006" lon="9.00147">
        <ele>860</ele>
        <time>2021-08-02T09:49:23.423Z</time>
      </trkpt>
      <trkpt lat="47.03006" lon="9.00147">
        <ele>861</ele>
        <time>2021-08-02T09:49:24.424Z</time>
      </trkpt>
      <trkpt lat="47.03005" lon="9.00146">
        <ele>861</ele>
        <time>2021-08-02T09:49:25.424Z</time>
      </trkpt>
      <trkpt lat="47.03004" lon="9.00145">
        <ele>861</ele>
        <time>2021-08-02T09:49:26.423Z</time>
      </trkpt>
      <trkpt lat="47.03004" lon="9.00146">
        <ele>861</ele>
        <time>2021-08-02T09:49:27.424Z</time>
      </trkpt>
      <trkpt lat="47.03003" lon="9.00146">
        <ele>861</ele>
        <time>2021-08-02T09:49:28.424Z</time>
      </trkpt>
      <trkpt lat="47.03003" lon="9.00146">
        <ele>861</ele>
        <time>2021-08-02T09:49:29.424Z</time>
      </trkpt>
      <trkpt lat="47.03001" lon="9.00146">
        <ele>860</ele>
        <time>2021-08-02T09:49:30.423Z</time>
      </trkpt>
      <trkpt lat="47.03001" lon="9.00145">
        <ele>860</ele>
        <time>2021-08-02T09:49:31.424Z</time>
      </trkpt>
      <trkpt lat="47.03" lon="9.00145">
        <ele>860</ele>
        <time>2021-08-02T09:49:32.424Z</time>
      </trkpt>
      <trkpt lat="47.02999" lon="9.00143">
        <ele>859</ele>
        <time>2021-08-02T09:49:33.426Z</time>
      </trkpt>
      <trkpt lat="47.02999" lon="9.00144">
        <ele>859</ele>
        <time>2021-08-02T09:49:34.426Z</time>
      </trkpt>
      <trkpt lat="47.02998" lon="9.00143">
        <ele>859</ele>
        <time>2021-08-02T09:49:35.425Z</time>
      </trkpt>
      <trkpt lat="47.02998" lon="9.00143">
        <ele>859</ele>
        <time>2021-08-02T09:49:36.426Z</time>
      </trkpt>
      <trkpt lat="47.02997" lon="9.00143">
        <ele>859</ele>
        <time>2021-08-02T09:49:37.426Z</time>
      </trkpt>
      <trkpt lat="47.02998" lon="9.00143">
        <ele>859</ele>
        <time>2021-08-02T09:49:38.426Z</time>
      </trkpt>
      <trkpt lat="47.02998" lon="9.00141">
        <ele>859</ele>
        <time>2021-08-02T09:49:39.426Z</time>
      </trkpt>
      <trkpt lat="47.02997" lon="9.00139">
        <ele>858</ele>
        <time>2021-08-02T09:49:40.426Z</time>
      </trkpt>
      <trkpt lat="47.02997" lon="9.00137">
        <ele>858</ele>
        <time>2021-08-02T09:49:41.426Z</time>
      </trkpt>
      <trkpt lat="47.02997" lon="9.00136">
        <ele>858</ele>
        <time>2021-08-02T09:49:42.426Z</time>
      </trkpt>
      <trkpt lat="47.02996" lon="9.00134">
        <ele>858</ele>
        <time>2021-08-02T09:49:43.425Z</time>
      </trkpt>
      <trkpt lat="47.02997" lon="9.00132">
        <ele>858</ele>
        <time>2021-08-02T09:49:44.426Z</time>
      </trkpt>
      <trkpt lat="47.02998" lon="9.00124">
        <ele>858</ele>
        <time>2021-08-02T09:49:54.426Z</time>
      </trkpt>
      <trkpt lat="47.03006" lon="9.00118">
        <ele>858</ele>
        <time>2021-08-02T09:49:55.426Z</time>
      </trkpt>
      <trkpt lat="47.03017" lon="9.00116">
        <ele>858</ele>
        <time>2021-08-02T09:49:56.426Z</time>
      </trkpt>
      <trkpt lat="47.03013" lon="9.00116">
        <ele>858</ele>
        <time>2021-08-02T09:49:57.426Z</time>
      </trkpt>
      <trkpt lat="47.03016" lon="9.00114">
        <ele>858</ele>
        <time>2021-08-02T09:49:58.426Z</time>
      </trkpt>
      <trkpt lat="47.03018" lon="9.00114">
        <ele>858</ele>
        <time>2021-08-02T09:49:59.425Z</time>
      </trkpt>
      <trkpt lat="47.03021" lon="9.00114">
        <ele>858</ele>
        <time>2021-08-02T09:50:00.426Z</time>
      </trkpt>
      <trkpt lat="47.03021" lon="9.00112">
        <ele>857</ele>
        <time>2021-08-02T09:50:01.426Z</time>
      </trkpt>
      <trkpt lat="47.03025" lon="9.00113">
        <ele>857</ele>
        <time>2021-08-02T09:50:02.426Z</time>
      </trkpt>
      <trkpt lat="47.03028" lon="9.00113">
        <ele>857</ele>
        <time>2021-08-02T09:50:03.425Z</time>
      </trkpt>
      <trkpt lat="47.0303" lon="9.00113">
        <ele>856</ele>
        <time>2021-08-02T09:50:04.426Z</time>
      </trkpt>
      <trkpt lat="47.03029" lon="9.00112">
        <ele>856</ele>
        <time>2021-08-02T09:50:05.425Z</time>
      </trkpt>
      <trkpt lat="47.03027" lon="9.00114">
        <ele>855</ele>
        <time>2021-08-02T09:50:06.426Z</time>
      </trkpt>
      <trkpt lat="47.03023" lon="9.00116">
        <ele>855</ele>
        <time>2021-08-02T09:50:07.425Z</time>
      </trkpt>
      <trkpt lat="47.03019" lon="9.00118">
        <ele>855</ele>
        <time>2021-08-02T09:50:08.426Z</time>
      </trkpt>
      <trkpt lat="47.03013" lon="9.0012">
        <ele>854</ele>
        <time>2021-08-02T09:50:09.425Z</time>
      </trkpt>
      <trkpt lat="47.0301" lon="9.00121">
        <ele>854</ele>
        <time>2021-08-02T09:50:10.426Z</time>
      </trkpt>
      <trkpt lat="47.03009" lon="9.00122">
        <ele>854</ele>
        <time>2021-08-02T09:50:11.425Z</time>
      </trkpt>
      <trkpt lat="47.03007" lon="9.00124">
        <ele>853</ele>
        <time>2021-08-02T09:50:12.425Z</time>
      </trkpt>
      <trkpt lat="47.03006" lon="9.00124">
        <ele>853</ele>
        <time>2021-08-02T09:50:13.425Z</time>
      </trkpt>
      <trkpt lat="47.03006" lon="9.00124">
        <ele>852</ele>
        <time>2021-08-02T09:50:14.425Z</time>
      </trkpt>
      <trkpt lat="47.03007" lon="9.00124">
        <ele>852</ele>
        <time>2021-08-02T09:50:15.426Z</time>
      </trkpt>
      <trkpt lat="47.03007" lon="9.00124">
        <ele>852</ele>
        <time>2021-08-02T09:50:16.426Z</time>
      </trkpt>
      <trkpt lat="47.03008" lon="9.00124">
        <ele>851</ele>
        <time>2021-08-02T09:50:17.426Z</time>
      </trkpt>
      <trkpt lat="47.03009" lon="9.00124">
        <ele>851</ele>
        <time>2021-08-02T09:50:18.425Z</time>
      </trkpt>
      <trkpt lat="47.03009" lon="9.00124">
        <ele>851</ele>
        <time>2021-08-02T09:50:19.426Z</time>
      </trkpt>
      <trkpt lat="47.03009" lon="9.00125">
        <ele>850</ele>
        <time>2021-08-02T09:50:20.426Z</time>
      </trkpt>
      <trkpt lat="47.03009" lon="9.00125">
        <ele>850</ele>
        <time>2021-08-02T09:50:21.426Z</time>
      </trkpt>
      <trkpt lat="47.03008" lon="9.00126">
        <ele>850</ele>
        <time>2021-08-02T09:50:22.425Z</time>
      </trkpt>
      <trkpt lat="47.03006" lon="9.00128">
        <ele>850</ele>
        <time>2021-08-02T09:50:23.426Z</time>
      </trkpt>
      <trkpt lat="47.03003" lon="9.00129">
        <ele>849</ele>
        <time>2021-08-02T09:50:24.426Z</time>
      </trkpt>
      <trkpt lat="47.03" lon="9.0013">
        <ele>849</ele>
        <time>2021-08-02T09:50:25.426Z</time>
      </trkpt>
      <trkpt lat="47.02997" lon="9.0013">
        <ele>849</ele>
        <time>2021-08-02T09:50:26.426Z</time>
      </trkpt>
      <trkpt lat="47.02996" lon="9.00131">
        <ele>849</ele>
        <time>2021-08-02T09:50:27.425Z</time>
      </trkpt>
      <trkpt lat="47.02995" lon="9.00131">
        <ele>849</ele>
        <time>2021-08-02T09:50:28.426Z</time>
      </trkpt>
      <trkpt lat="47.02996" lon="9.0013">
        <ele>849</ele>
        <time>2021-08-02T09:50:29.425Z</time>
      </trkpt>
      <trkpt lat="47.02995" lon="9.0013">
        <ele>849</ele>
        <time>2021-08-02T09:50:30.426Z</time>
      </trkpt>
      <trkpt lat="47.02996" lon="9.00129">
        <ele>849</ele>
        <time>2021-08-02T09:50:31.425Z</time>
      </trkpt>
      <trkpt lat="47.02997" lon="9.00129">
        <ele>849</ele>
        <time>2021-08-02T09:50:32.426Z</time>
      </trkpt>
      <trkpt lat="47.02997" lon="9.00129">
        <ele>850</ele>
        <time>2021-08-02T09:50:33.426Z</time>
      </trkpt>
      <trkpt lat="47.02998" lon="9.00128">
        <ele>850</ele>
        <time>2021-08-02T09:50:34.426Z</time>
      </trkpt>
      <trkpt lat="47.02998" lon="9.00128">
        <ele>851</ele>
        <time>2021-08-02T09:50:35.426Z</time>
      </trkpt>
      <trkpt lat="47.02999" lon="9.00129">
        <ele>853</ele>
        <time>2021-08-02T09:50:36.425Z</time>
      </trkpt>
      <trkpt lat="47.02998" lon="9.00129">
        <ele>854</ele>
        <time>2021-08-02T09:50:37.425Z</time>
      </trkpt>
      <trkpt lat="47.02998" lon="9.00129">
        <ele>855</ele>
        <time>2021-08-02T09:50:38.426Z</time>
      </trkpt>
      <trkpt lat="47.02998" lon="9.00129">
        <ele>856</ele>
        <time>2021-08-02T09:50:39.426Z</time>
      </trkpt>
      <trkpt lat="47.02997" lon="9.00128">
        <ele>856</ele>
        <time>2021-08-02T09:50:40.426Z</time>
      </trkpt>
      <trkpt lat="47.02996" lon="9.00128">
        <ele>857</ele>
        <time>2021-08-02T09:50:41.426Z</time>
      </trkpt>
      <trkpt lat="47.02995" lon="9.00128">
        <ele>857</ele>
        <time>2021-08-02T09:50:42.425Z</time>
      </trkpt>
      <trkpt lat="47.02994" lon="9.00128">
        <ele>857</ele>
        <time>2021-08-02T09:50:43.426Z</time>
      </trkpt>
      <trkpt lat="47.02994" lon="9.00129">
        <ele>857</ele>
        <time>2021-08-02T09:50:44.425Z</time>
      </trkpt>
      <trkpt lat="47.02993" lon="9.00129">
        <ele>857</ele>
        <time>2021-08-02T09:50:45.426Z</time>
      </trkpt>
      <trkpt lat="47.02993" lon="9.00129">
        <ele>858</ele>
        <time>2021-08-02T09:50:46.425Z</time>
      </trkpt>
      <trkpt lat="47.02992" lon="9.0013">
        <ele>858</ele>
        <time>2021-08-02T09:50:47.426Z</time>
      </trkpt>
      <trkpt lat="47.02991" lon="9.00132">
        <ele>859</ele>
        <time>2021-08-02T09:50:48.426Z</time>
      </trkpt>
      <trkpt lat="47.02992" lon="9.00134">
        <ele>859</ele>
        <time>2021-08-02T09:50:49.426Z</time>
      </trkpt>
      <trkpt lat="47.02993" lon="9.00135">
        <ele>859</ele>
        <time>2021-08-02T09:50:50.425Z</time>
      </trkpt>
      <trkpt lat="47.02993" lon="9.00137">
        <ele>859</ele>
        <time>2021-08-02T09:50:51.426Z</time>
      </trkpt>
      <trkpt lat="47.02991" lon="9.00139">
        <ele>859</ele>
        <time>2021-08-02T09:50:52.426Z</time>
      </trkpt>
      <trkpt lat="47.02991" lon="9.0014">
        <ele>859</ele>
        <time>2021-08-02T09:50:53.426Z</time>
      </trkpt>
      <trkpt lat="47.02992" lon="9.0014">
        <ele>859</ele>
        <time>2021-08-02T09:50:54.425Z</time>
      </trkpt>
      <trkpt lat="47.02996" lon="9.00141">
        <ele>858</ele>
        <time>2021-08-02T09:50:55.426Z</time>
      </trkpt>
      <trkpt lat="47.03" lon="9.00142">
        <ele>858</ele>
        <time>2021-08-02T09:50:56.426Z</time>
      </trkpt>
      <trkpt lat="47.03002" lon="9.00142">
        <ele>857</ele>
        <time>2021-08-02T09:50:57.425Z</time>
      </trkpt>
      <trkpt lat="47.03002" lon="9.00143">
        <ele>857</ele>
        <time>2021-08-02T09:50:58.426Z</time>
      </trkpt>
      <trkpt lat="47.03001" lon="9.00144">
        <ele>857</ele>
        <time>2021-08-02T09:50:59.426Z</time>
      </trkpt>
      <trkpt lat="47.03001" lon="9.00145">
        <ele>857</ele>
        <time>2021-08-02T09:51:00.425Z</time>
      </trkpt>
      <trkpt lat="47.03" lon="9.00146">
        <ele>857</ele>
        <time>2021-08-02T09:51:01.426Z</time>
      </trkpt>
      <trkpt lat="47.03" lon="9.00146">
        <ele>857</ele>
        <time>2021-08-02T09:51:02.425Z</time>
      </trkpt>
      <trkpt lat="47.03" lon="9.00145">
        <ele>857</ele>
        <time>2021-08-02T09:51:03.425Z</time>
      </trkpt>
      <trkpt lat="47.03001" lon="9.00143">
        <ele>857</ele>
        <time>2021-08-02T09:51:04.426Z</time>
      </trkpt>
      <trkpt lat="47.03002" lon="9.00144">
        <ele>857</ele>
        <time>2021-08-02T09:51:05.426Z</time>
      </trkpt>
      <trkpt lat="47.03002" lon="9.00143">
        <ele>857</ele>
        <time>2021-08-02T09:51:06.426Z</time>
      </trkpt>
      <trkpt lat="47.03002" lon="9.00143">
        <ele>856</ele>
        <time>2021-08-02T09:51:07.426Z</time>
      </trkpt>
      <trkpt lat="47.03002" lon="9.00142">
        <ele>856</ele>
        <time>2021-08-02T09:51:08.426Z</time>
      </trkpt>
      <trkpt lat="47.03001" lon="9.00142">
        <ele>856</ele>
        <time>2021-08-02T09:51:09.425Z</time>
      </trkpt>
      <trkpt lat="47.03001" lon="9.00141">
        <ele>855</ele>
        <time>2021-08-02T09:51:10.426Z</time>
      </trkpt>
      <trkpt lat="47.03" lon="9.00143">
        <ele>855</ele>
        <time>2021-08-02T09:51:11.425Z</time>
      </trkpt>
      <trkpt lat="47.02999" lon="9.00144">
        <ele>854</ele>
        <time>2021-08-02T09:51:12.426Z</time>
      </trkpt>
      <trkpt lat="47.03" lon="9.00143">
        <ele>854</ele>
        <time>2021-08-02T09:51:13.426Z</time>
      </trkpt>
      <trkpt lat="47.03013" lon="9.00129">
        <ele>847</ele>
        <time>2021-08-02T09:51:14.426Z</time>
      </trkpt>
      <trkpt lat="47.03012" lon="9.00127">
        <ele>847</ele>
        <time>2021-08-02T09:51:15.426Z</time>
      </trkpt>
      <trkpt lat="47.03011" lon="9.00125">
        <ele>847</ele>
        <time>2021-08-02T09:51:35.533Z</time>
      </trkpt>
      <trkpt lat="47.0301" lon="9.00124">
        <ele>847</ele>
        <time>2021-08-02T09:51:36.534Z</time>
      </trkpt>
      <trkpt lat="47.03009" lon="9.00123">
        <ele>847</ele>
        <time>2021-08-02T09:51:37.534Z</time>
      </trkpt>
      <trkpt lat="47.03009" lon="9.00121">
        <ele>848</ele>
        <time>2021-08-02T09:51:38.534Z</time>
      </trkpt>
      <trkpt lat="47.03008" lon="9.0012">
        <ele>848</ele>
        <time>2021-08-02T09:51:39.534Z</time>
      </trkpt>
      <trkpt lat="47.03008" lon="9.0012">
        <ele>848</ele>
        <time>2021-08-02T09:51:40.534Z</time>
      </trkpt>
      <trkpt lat="47.03007" lon="9.00119">
        <ele>849</ele>
        <time>2021-08-02T09:51:41.534Z</time>
      </trkpt>
      <trkpt lat="47.03007" lon="9.00118">
        <ele>849</ele>
        <time>2021-08-02T09:51:42.534Z</time>
      </trkpt>
      <trkpt lat="47.03006" lon="9.00117">
        <ele>850</ele>
        <time>2021-08-02T09:51:43.533Z</time>
      </trkpt>
      <trkpt lat="47.03005" lon="9.00117">
        <ele>850</ele>
        <time>2021-08-02T09:51:44.533Z</time>
      </trkpt>
      <trkpt lat="47.03004" lon="9.00115">
        <ele>851</ele>
        <time>2021-08-02T09:51:45.534Z</time>
      </trkpt>
      <trkpt lat="47.03003" lon="9.00114">
        <ele>851</ele>
        <time>2021-08-02T09:51:46.534Z</time>
      </trkpt>
      <trkpt lat="47.03003" lon="9.00113">
        <ele>850</ele>
        <time>2021-08-02T09:51:47.533Z</time>
      </trkpt>
      <trkpt lat="47.03002" lon="9.00112">
        <ele>850</ele>
        <time>2021-08-02T09:51:48.534Z</time>
      </trkpt>
      <trkpt lat="47.03001" lon="9.0011">
        <ele>850</ele>
        <time>2021-08-02T09:51:49.534Z</time>
      </trkpt>
      <trkpt lat="47.03" lon="9.00109">
        <ele>850</ele>
        <time>2021-08-02T09:51:50.534Z</time>
      </trkpt>
      <trkpt lat="47.02999" lon="9.00107">
        <ele>850</ele>
        <time>2021-08-02T09:51:51.534Z</time>
      </trkpt>
      <trkpt lat="47.02998" lon="9.00105">
        <ele>850</ele>
        <time>2021-08-02T09:51:52.533Z</time>
      </trkpt>
      <trkpt lat="47.02997" lon="9.00104">
        <ele>850</ele>
        <time>2021-08-02T09:51:53.534Z</time>
      </trkpt>
      <trkpt lat="47.02995" lon="9.00101">
        <ele>850</ele>
        <time>2021-08-02T09:51:54.534Z</time>
      </trkpt>
      <trkpt lat="47.02995" lon="9.00101">
        <ele>850</ele>
        <time>2021-08-02T09:51:55.534Z</time>
      </trkpt>
      <trkpt lat="47.02994" lon="9.001">
        <ele>850</ele>
        <time>2021-08-02T09:51:56.533Z</time>
      </trkpt>
      <trkpt lat="47.02994" lon="9.00099">
        <ele>850</ele>
        <time>2021-08-02T09:51:57.533Z</time>
      </trkpt>
      <trkpt lat="47.02993" lon="9.00097">
        <ele>850</ele>
        <time>2021-08-02T09:51:58.533Z</time>
      </trkpt>
      <trkpt lat="47.02993" lon="9.00096">
        <ele>850</ele>
        <time>2021-08-02T09:51:59.533Z</time>
      </trkpt>
      <trkpt lat="47.02992" lon="9.00095">
        <ele>850</ele>
        <time>2021-08-02T09:52:00.533Z</time>
      </trkpt>
      <trkpt lat="47.02991" lon="9.00094">
        <ele>851</ele>
        <time>2021-08-02T09:52:01.533Z</time>
      </trkpt>
      <trkpt lat="47.02991" lon="9.00093">
        <ele>851</ele>
        <time>2021-08-02T09:52:02.533Z</time>
      </trkpt>
      <trkpt lat="47.02991" lon="9.00092">
        <ele>851</ele>
        <time>2021-08-02T09:52:03.534Z</time>
      </trkpt>
      <trkpt lat="47.02991" lon="9.0009">
        <ele>852</ele>
        <time>2021-08-02T09:52:04.533Z</time>
      </trkpt>
      <trkpt lat="47.02991" lon="9.0009">
        <ele>853</ele>
        <time>2021-08-02T09:52:05.533Z</time>
      </trkpt>
      <trkpt lat="47.02991" lon="9.00089">
        <ele>853</ele>
        <time>2021-08-02T09:52:06.533Z</time>
      </trkpt>
      <trkpt lat="47.0299" lon="9.00089">
        <ele>853</ele>
        <time>2021-08-02T09:52:07.533Z</time>
      </trkpt>
      <trkpt lat="47.0299" lon="9.00088">
        <ele>853</ele>
        <time>2021-08-02T09:52:08.534Z</time>
      </trkpt>
      <trkpt lat="47.02989" lon="9.00087">
        <ele>853</ele>
        <time>2021-08-02T09:52:09.533Z</time>
      </trkpt>
      <trkpt lat="47.02989" lon="9.00087">
        <ele>853</ele>
        <time>2021-08-02T09:52:10.533Z</time>
      </trkpt>
      <trkpt lat="47.02985" lon="9.0008">
        <ele>853</ele>
        <time>2021-08-02T09:52:11.533Z</time>
      </trkpt>
      <trkpt lat="47.02983" lon="9.00078">
        <ele>854</ele>
        <time>2021-08-02T09:52:12.533Z</time>
      </trkpt>
      <trkpt lat="47.02981" lon="9.00077">
        <ele>854</ele>
        <time>2021-08-02T09:52:13.533Z</time>
      </trkpt>
      <trkpt lat="47.02979" lon="9.00078">
        <ele>854</ele>
        <time>2021-08-02T09:52:14.534Z</time>
      </trkpt>
      <trkpt lat="47.02978" lon="9.00078">
        <ele>854</ele>
        <time>2021-08-02T09:52:15.534Z</time>
      </trkpt>
      <trkpt lat="47.02977" lon="9.00078">
        <ele>854</ele>
        <time>2021-08-02T09:52:16.534Z</time>
      </trkpt>
      <trkpt lat="47.02974" lon="9.00076">
        <ele>853</ele>
        <time>2021-08-02T09:52:17.535Z</time>
      </trkpt>
      <trkpt lat="47.02974" lon="9.00075">
        <ele>853</ele>
        <time>2021-08-02T09:52:18.536Z</time>
      </trkpt>
      <trkpt lat="47.02973" lon="9.00074">
        <ele>853</ele>
        <time>2021-08-02T09:52:19.536Z</time>
      </trkpt>
      <trkpt lat="47.02972" lon="9.00074">
        <ele>852</ele>
        <time>2021-08-02T09:52:20.536Z</time>
      </trkpt>
      <trkpt lat="47.02972" lon="9.00073">
        <ele>852</ele>
        <time>2021-08-02T09:52:21.536Z</time>
      </trkpt>
      <trkpt lat="47.02971" lon="9.00072">
        <ele>852</ele>
        <time>2021-08-02T09:52:22.535Z</time>
      </trkpt>
      <trkpt lat="47.0297" lon="9.00071">
        <ele>851</ele>
        <time>2021-08-02T09:52:23.536Z</time>
      </trkpt>
      <trkpt lat="47.0297" lon="9.00071">
        <ele>851</ele>
        <time>2021-08-02T09:52:24.536Z</time>
      </trkpt>
      <trkpt lat="47.02969" lon="9.0007">
        <ele>850</ele>
        <time>2021-08-02T09:52:25.535Z</time>
      </trkpt>
      <trkpt lat="47.02969" lon="9.00069">
        <ele>850</ele>
        <time>2021-08-02T09:52:26.536Z</time>
      </trkpt>
      <trkpt lat="47.02969" lon="9.00068">
        <ele>850</ele>
        <time>2021-08-02T09:52:27.536Z</time>
      </trkpt>
      <trkpt lat="47.02969" lon="9.00067">
        <ele>850</ele>
        <time>2021-08-02T09:52:28.536Z</time>
      </trkpt>
      <trkpt lat="47.02968" lon="9.00066">
        <ele>849</ele>
        <time>2021-08-02T09:52:29.536Z</time>
      </trkpt>
      <trkpt lat="47.02967" lon="9.00065">
        <ele>849</ele>
        <time>2021-08-02T09:52:30.535Z</time>
      </trkpt>
      <trkpt lat="47.02967" lon="9.00063">
        <ele>849</ele>
        <time>2021-08-02T09:52:31.535Z</time>
      </trkpt>
      <trkpt lat="47.02966" lon="9.00063">
        <ele>848</ele>
        <time>2021-08-02T09:52:32.536Z</time>
      </trkpt>
      <trkpt lat="47.02965" lon="9.00061">
        <ele>848</ele>
        <time>2021-08-02T09:52:33.535Z</time>
      </trkpt>
      <trkpt lat="47.02964" lon="9.00059">
        <ele>848</ele>
        <time>2021-08-02T09:52:34.535Z</time>
      </trkpt>
      <trkpt lat="47.02963" lon="9.00057">
        <ele>848</ele>
        <time>2021-08-02T09:52:35.536Z</time>
      </trkpt>
      <trkpt lat="47.02962" lon="9.00056">
        <ele>848</ele>
        <time>2021-08-02T09:52:36.536Z</time>
      </trkpt>
      <trkpt lat="47.0296" lon="9.00056">
        <ele>848</ele>
        <time>2021-08-02T09:52:37.535Z</time>
      </trkpt>
      <trkpt lat="47.02959" lon="9.00056">
        <ele>848</ele>
        <time>2021-08-02T09:52:38.536Z</time>
      </trkpt>
      <trkpt lat="47.02958" lon="9.00056">
        <ele>848</ele>
        <time>2021-08-02T09:52:39.536Z</time>
      </trkpt>
      <trkpt lat="47.02958" lon="9.00055">
        <ele>848</ele>
        <time>2021-08-02T09:52:40.536Z</time>
      </trkpt>
      <trkpt lat="47.02958" lon="9.00055">
        <ele>848</ele>
        <time>2021-08-02T09:52:41.536Z</time>
      </trkpt>
      <trkpt lat="47.02953" lon="9.00051">
        <ele>848</ele>
        <time>2021-08-02T09:52:42.537Z</time>
      </trkpt>
      <trkpt lat="47.02953" lon="9.00051">
        <ele>848</ele>
        <time>2021-08-02T09:52:43.536Z</time>
      </trkpt>
      <trkpt lat="47.02953" lon="9.00051">
        <ele>848</ele>
        <time>2021-08-02T09:52:44.536Z</time>
      </trkpt>
      <trkpt lat="47.02953" lon="9.0005">
        <ele>848</ele>
        <time>2021-08-02T09:52:45.536Z</time>
      </trkpt>
      <trkpt lat="47.02953" lon="9.00049">
        <ele>848</ele>
        <time>2021-08-02T09:52:46.536Z</time>
      </trkpt>
      <trkpt lat="47.02952" lon="9.00049">
        <ele>848</ele>
        <time>2021-08-02T09:52:47.536Z</time>
      </trkpt>
      <trkpt lat="47.02952" lon="9.00048">
        <ele>848</ele>
        <time>2021-08-02T09:52:48.536Z</time>
      </trkpt>
      <trkpt lat="47.02951" lon="9.00047">
        <ele>849</ele>
        <time>2021-08-02T09:52:49.536Z</time>
      </trkpt>
      <trkpt lat="47.0295" lon="9.00047">
        <ele>849</ele>
        <time>2021-08-02T09:52:50.536Z</time>
      </trkpt>
      <trkpt lat="47.02949" lon="9.00046">
        <ele>849</ele>
        <time>2021-08-02T09:52:51.536Z</time>
      </trkpt>
      <trkpt lat="47.02948" lon="9.00045">
        <ele>849</ele>
        <time>2021-08-02T09:52:52.536Z</time>
      </trkpt>
      <trkpt lat="47.02947" lon="9.00044">
        <ele>850</ele>
        <time>2021-08-02T09:52:53.536Z</time>
      </trkpt>
      <trkpt lat="47.02946" lon="9.00043">
        <ele>850</ele>
        <time>2021-08-02T09:52:54.536Z</time>
      </trkpt>
      <trkpt lat="47.02945" lon="9.00043">
        <ele>851</ele>
        <time>2021-08-02T09:52:55.536Z</time>
      </trkpt>
      <trkpt lat="47.02944" lon="9.00042">
        <ele>851</ele>
        <time>2021-08-02T09:52:56.536Z</time>
      </trkpt>
      <trkpt lat="47.02943" lon="9.00041">
        <ele>852</ele>
        <time>2021-08-02T09:52:57.537Z</time>
      </trkpt>
      <trkpt lat="47.02942" lon="9.00039">
        <ele>853</ele>
        <time>2021-08-02T09:52:58.536Z</time>
      </trkpt>
      <trkpt lat="47.02941" lon="9.00038">
        <ele>854</ele>
        <time>2021-08-02T09:52:59.537Z</time>
      </trkpt>
      <trkpt lat="47.02941" lon="9.00036">
        <ele>854</ele>
        <time>2021-08-02T09:53:00.536Z</time>
      </trkpt>
      <trkpt lat="47.02941" lon="9.00034">
        <ele>854</ele>
        <time>2021-08-02T09:53:01.536Z</time>
      </trkpt>
      <trkpt lat="47.0294" lon="9.00033">
        <ele>854</ele>
        <time>2021-08-02T09:53:02.536Z</time>
      </trkpt>
      <trkpt lat="47.0294" lon="9.00032">
        <ele>855</ele>
        <time>2021-08-02T09:53:03.537Z</time>
      </trkpt>
      <trkpt lat="47.02939" lon="9.00031">
        <ele>855</ele>
        <time>2021-08-02T09:53:04.537Z</time>
      </trkpt>
      <trkpt lat="47.02939" lon="9.0003">
        <ele>856</ele>
        <time>2021-08-02T09:53:05.537Z</time>
      </trkpt>
      <trkpt lat="47.02939" lon="9.00029">
        <ele>856</ele>
        <time>2021-08-02T09:53:06.537Z</time>
      </trkpt>
      <trkpt lat="47.02939" lon="9.00029">
        <ele>856</ele>
        <time>2021-08-02T09:53:07.537Z</time>
      </trkpt>
      <trkpt lat="47.0294" lon="9.00029">
        <ele>857</ele>
        <time>2021-08-02T09:53:08.537Z</time>
      </trkpt>
      <trkpt lat="47.02938" lon="9.00028">
        <ele>856</ele>
        <time>2021-08-02T09:53:09.538Z</time>
      </trkpt>
      <trkpt lat="47.02938" lon="9.00028">
        <ele>856</ele>
        <time>2021-08-02T09:53:10.537Z</time>
      </trkpt>
      <trkpt lat="47.02938" lon="9.00028">
        <ele>854</ele>
        <time>2021-08-02T09:53:11.538Z</time>
      </trkpt>
      <trkpt lat="47.02937" lon="9.00028">
        <ele>854</ele>
        <time>2021-08-02T09:53:12.538Z</time>
      </trkpt>
      <trkpt lat="47.02936" lon="9.00028">
        <ele>853</ele>
        <time>2021-08-02T09:53:13.537Z</time>
      </trkpt>
      <trkpt lat="47.02935" lon="9.00028">
        <ele>853</ele>
        <time>2021-08-02T09:53:14.537Z</time>
      </trkpt>
      <trkpt lat="47.02933" lon="9.00027">
        <ele>854</ele>
        <time>2021-08-02T09:53:15.537Z</time>
      </trkpt>
      <trkpt lat="47.02932" lon="9.00027">
        <ele>854</ele>
        <time>2021-08-02T09:53:16.537Z</time>
      </trkpt>
      <trkpt lat="47.02931" lon="9.00027">
        <ele>854</ele>
        <time>2021-08-02T09:53:17.537Z</time>
      </trkpt>
      <trkpt lat="47.0293" lon="9.00026">
        <ele>855</ele>
        <time>2021-08-02T09:53:18.537Z</time>
      </trkpt>
      <trkpt lat="47.02929" lon="9.00026">
        <ele>855</ele>
        <time>2021-08-02T09:53:19.537Z</time>
      </trkpt>
      <trkpt lat="47.02927" lon="9.00025">
        <ele>855</ele>
        <time>2021-08-02T09:53:20.537Z</time>
      </trkpt>
      <trkpt lat="47.02925" lon="9.00024">
        <ele>855</ele>
        <time>2021-08-02T09:53:21.537Z</time>
      </trkpt>
      <trkpt lat="47.02923" lon="9.00023">
        <ele>855</ele>
        <time>2021-08-02T09:53:22.537Z</time>
      </trkpt>
      <trkpt lat="47.02922" lon="9.00022">
        <ele>855</ele>
        <time>2021-08-02T09:53:23.537Z</time>
      </trkpt>
      <trkpt lat="47.02921" lon="9.00022">
        <ele>856</ele>
        <time>2021-08-02T09:53:24.538Z</time>
      </trkpt>
      <trkpt lat="47.02919" lon="9.00022">
        <ele>856</ele>
        <time>2021-08-02T09:53:25.538Z</time>
      </trkpt>
      <trkpt lat="47.02918" lon="9.00021">
        <ele>857</ele>
        <time>2021-08-02T09:53:26.537Z</time>
      </trkpt>
      <trkpt lat="47.02917" lon="9.0002">
        <ele>857</ele>
        <time>2021-08-02T09:53:27.538Z</time>
      </trkpt>
      <trkpt lat="47.02916" lon="9.0002">
        <ele>858</ele>
        <time>2021-08-02T09:53:28.538Z</time>
      </trkpt>
      <trkpt lat="47.02915" lon="9.00019">
        <ele>858</ele>
        <time>2021-08-02T09:53:29.537Z</time>
      </trkpt>
      <trkpt lat="47.02914" lon="9.00019">
        <ele>859</ele>
        <time>2021-08-02T09:53:30.538Z</time>
      </trkpt>
      <trkpt lat="47.02913" lon="9.00018">
        <ele>859</ele>
        <time>2021-08-02T09:53:31.537Z</time>
      </trkpt>
      <trkpt lat="47.02912" lon="9.00017">
        <ele>860</ele>
        <time>2021-08-02T09:53:32.538Z</time>
      </trkpt>
      <trkpt lat="47.02911" lon="9.00016">
        <ele>860</ele>
        <time>2021-08-02T09:53:33.538Z</time>
      </trkpt>
      <trkpt lat="47.02909" lon="9.00016">
        <ele>861</ele>
        <time>2021-08-02T09:53:34.538Z</time>
      </trkpt>
      <trkpt lat="47.02908" lon="9.00015">
        <ele>861</ele>
        <time>2021-08-02T09:53:35.537Z</time>
      </trkpt>
      <trkpt lat="47.02905" lon="9.00014">
        <ele>861</ele>
        <time>2021-08-02T09:53:36.538Z</time>
      </trkpt>
      <trkpt lat="47.02904" lon="9.00013">
        <ele>861</ele>
        <time>2021-08-02T09:53:37.537Z</time>
      </trkpt>
      <trkpt lat="47.02903" lon="9.00012">
        <ele>861</ele>
        <time>2021-08-02T09:53:38.538Z</time>
      </trkpt>
      <trkpt lat="47.02903" lon="9.0001">
        <ele>861</ele>
        <time>2021-08-02T09:53:39.538Z</time>
      </trkpt>
      <trkpt lat="47.02903" lon="9.00008">
        <ele>861</ele>
        <time>2021-08-02T09:53:40.538Z</time>
      </trkpt>
      <trkpt lat="47.02902" lon="9.00007">
        <ele>861</ele>
        <time>2021-08-02T09:53:41.537Z</time>
      </trkpt>
      <trkpt lat="47.02901" lon="9.00007">
        <ele>861</ele>
        <time>2021-08-02T09:53:42.538Z</time>
      </trkpt>
      <trkpt lat="47.029" lon="9.00007">
        <ele>861</ele>
        <time>2021-08-02T09:53:43.538Z</time>
      </trkpt>
      <trkpt lat="47.02899" lon="9.00006">
        <ele>862</ele>
        <time>2021-08-02T09:53:44.537Z</time>
      </trkpt>
      <trkpt lat="47.02898" lon="9.00006">
        <ele>862</ele>
        <time>2021-08-02T09:53:45.537Z</time>
      </trkpt>
      <trkpt lat="47.02897" lon="9.00006">
        <ele>862</ele>
        <time>2021-08-02T09:53:46.538Z</time>
      </trkpt>
      <trkpt lat="47.02897" lon="9.00005">
        <ele>862</ele>
        <time>2021-08-02T09:53:47.538Z</time>
      </trkpt>
      <trkpt lat="47.02896" lon="9.00004">
        <ele>862</ele>
        <time>2021-08-02T09:53:48.538Z</time>
      </trkpt>
      <trkpt lat="47.02896" lon="9.00003">
        <ele>862</ele>
        <time>2021-08-02T09:53:49.537Z</time>
      </trkpt>
      <trkpt lat="47.02895" lon="9.00002">
        <ele>862</ele>
        <time>2021-08-02T09:53:50.537Z</time>
      </trkpt>
      <trkpt lat="47.02895" lon="9.00001">
        <ele>862</ele>
        <time>2021-08-02T09:53:51.537Z</time>
      </trkpt>
      <trkpt lat="47.02894" lon="9.00001">
        <ele>862</ele>
        <time>2021-08-02T09:53:52.538Z</time>
      </trkpt>
      <trkpt lat="47.02894" lon="9.00001">
        <ele>862</ele>
        <time>2021-08-02T09:53:53.538Z</time>
      </trkpt>
      <trkpt lat="47.02894" lon="9.00001">
        <ele>862</ele>
        <time>2021-08-02T09:53:54.537Z</time>
      </trkpt>
      <trkpt lat="47.02894" lon="9.00002">
        <ele>862</ele>
        <time>2021-08-02T09:53:55.538Z</time>
      </trkpt>
      <trkpt lat="47.02894" lon="9.00003">
        <ele>862</ele>
        <time>2021-08-02T09:53:56.538Z</time>
      </trkpt>
      <trkpt lat="47.02894" lon="9.00004">
        <ele>863</ele>
        <time>2021-08-02T09:53:57.538Z</time>
      </trkpt>
      <trkpt lat="47.02894" lon="9.00005">
        <ele>864</ele>
        <time>2021-08-02T09:53:58.537Z</time>
      </trkpt>
      <trkpt lat="47.02894" lon="9.00006">
        <ele>865</ele>
        <time>2021-08-02T09:53:59.537Z</time>
      </trkpt>
      <trkpt lat="47.02894" lon="9.00005">
        <ele>865</ele>
        <time>2021-08-02T09:54:00.538Z</time>
      </trkpt>
      <trkpt lat="47.02894" lon="9.00004">
        <ele>865</ele>
        <time>2021-08-02T09:54:01.538Z</time>
      </trkpt>
      <trkpt lat="47.02893" lon="9.00003">
        <ele>864</ele>
        <time>2021-08-02T09:54:02.538Z</time>
      </trkpt>
      <trkpt lat="47.02892" lon="9.00002">
        <ele>863</ele>
        <time>2021-08-02T09:54:03.537Z</time>
      </trkpt>
      <trkpt lat="47.02892" lon="9.00001">
        <ele>863</ele>
        <time>2021-08-02T09:54:04.538Z</time>
      </trkpt>
      <trkpt lat="47.02891" lon="9">
        <ele>863</ele>
        <time>2021-08-02T09:54:05.537Z</time>
      </trkpt>
      <trkpt lat="47.0289" lon="8.99998">
        <ele>862</ele>
        <time>2021-08-02T09:54:06.538Z</time>
      </trkpt>
      <trkpt lat="47.02889" lon="8.99997">
        <ele>861</ele>
        <time>2021-08-02T09:54:07.538Z</time>
      </trkpt>
      <trkpt lat="47.02889" lon="8.99995">
        <ele>860</ele>
        <time>2021-08-02T09:54:08.538Z</time>
      </trkpt>
      <trkpt lat="47.02889" lon="8.99994">
        <ele>860</ele>
        <time>2021-08-02T09:54:09.538Z</time>
      </trkpt>
      <trkpt lat="47.02889" lon="8.99992">
        <ele>860</ele>
        <time>2021-08-02T09:54:10.538Z</time>
      </trkpt>
      <trkpt lat="47.02888" lon="8.99991">
        <ele>859</ele>
        <time>2021-08-02T09:54:11.538Z</time>
      </trkpt>
      <trkpt lat="47.02886" lon="8.9999">
        <ele>859</ele>
        <time>2021-08-02T09:54:12.538Z</time>
      </trkpt>
      <trkpt lat="47.02884" lon="8.99989">
        <ele>859</ele>
        <time>2021-08-02T09:54:13.537Z</time>
      </trkpt>
      <trkpt lat="47.02883" lon="8.99987">
        <ele>859</ele>
        <time>2021-08-02T09:54:14.537Z</time>
      </trkpt>
      <trkpt lat="47.02882" lon="8.99985">
        <ele>859</ele>
        <time>2021-08-02T09:54:15.537Z</time>
      </trkpt>
      <trkpt lat="47.02882" lon="8.99984">
        <ele>859</ele>
        <time>2021-08-02T09:54:16.537Z</time>
      </trkpt>
      <trkpt lat="47.02882" lon="8.99984">
        <ele>859</ele>
        <time>2021-08-02T09:54:17.537Z</time>
      </trkpt>
      <trkpt lat="47.02882" lon="8.99983">
        <ele>859</ele>
        <time>2021-08-02T09:54:18.537Z</time>
      </trkpt>
      <trkpt lat="47.02881" lon="8.99983">
        <ele>859</ele>
        <time>2021-08-02T09:54:19.537Z</time>
      </trkpt>
      <trkpt lat="47.0288" lon="8.99981">
        <ele>860</ele>
        <time>2021-08-02T09:54:20.537Z</time>
      </trkpt>
      <trkpt lat="47.0288" lon="8.9998">
        <ele>860</ele>
        <time>2021-08-02T09:54:21.537Z</time>
      </trkpt>
      <trkpt lat="47.0288" lon="8.9998">
        <ele>860</ele>
        <time>2021-08-02T09:54:22.537Z</time>
      </trkpt>
      <trkpt lat="47.0288" lon="8.99979">
        <ele>860</ele>
        <time>2021-08-02T09:54:23.537Z</time>
      </trkpt>
      <trkpt lat="47.02879" lon="8.99977">
        <ele>860</ele>
        <time>2021-08-02T09:54:24.538Z</time>
      </trkpt>
      <trkpt lat="47.02878" lon="8.99976">
        <ele>860</ele>
        <time>2021-08-02T09:54:25.537Z</time>
      </trkpt>
      <trkpt lat="47.02878" lon="8.99974">
        <ele>859</ele>
        <time>2021-08-02T09:54:26.537Z</time>
      </trkpt>
      <trkpt lat="47.02877" lon="8.99972">
        <ele>859</ele>
        <time>2021-08-02T09:54:27.537Z</time>
      </trkpt>
      <trkpt lat="47.02877" lon="8.9997">
        <ele>859</ele>
        <time>2021-08-02T09:54:28.537Z</time>
      </trkpt>
      <trkpt lat="47.02877" lon="8.99967">
        <ele>859</ele>
        <time>2021-08-02T09:54:29.537Z</time>
      </trkpt>
      <trkpt lat="47.02877" lon="8.99966">
        <ele>859</ele>
        <time>2021-08-02T09:54:30.537Z</time>
      </trkpt>
      <trkpt lat="47.02876" lon="8.99964">
        <ele>859</ele>
        <time>2021-08-02T09:54:31.537Z</time>
      </trkpt>
      <trkpt lat="47.02877" lon="8.99962">
        <ele>859</ele>
        <time>2021-08-02T09:54:32.537Z</time>
      </trkpt>
      <trkpt lat="47.02877" lon="8.9996">
        <ele>859</ele>
        <time>2021-08-02T09:54:33.537Z</time>
      </trkpt>
      <trkpt lat="47.02878" lon="8.99959">
        <ele>859</ele>
        <time>2021-08-02T09:54:34.537Z</time>
      </trkpt>
      <trkpt lat="47.02878" lon="8.99959">
        <ele>860</ele>
        <time>2021-08-02T09:54:35.538Z</time>
      </trkpt>
      <trkpt lat="47.02878" lon="8.99957">
        <ele>859</ele>
        <time>2021-08-02T09:54:36.537Z</time>
      </trkpt>
      <trkpt lat="47.02878" lon="8.99957">
        <ele>859</ele>
        <time>2021-08-02T09:54:37.537Z</time>
      </trkpt>
      <trkpt lat="47.02878" lon="8.99956">
        <ele>858</ele>
        <time>2021-08-02T09:54:38.537Z</time>
      </trkpt>
      <trkpt lat="47.02877" lon="8.99955">
        <ele>858</ele>
        <time>2021-08-02T09:54:39.537Z</time>
      </trkpt>
      <trkpt lat="47.02877" lon="8.99954">
        <ele>857</ele>
        <time>2021-08-02T09:54:40.537Z</time>
      </trkpt>
      <trkpt lat="47.02877" lon="8.99952">
        <ele>857</ele>
        <time>2021-08-02T09:54:41.537Z</time>
      </trkpt>
      <trkpt lat="47.02876" lon="8.99951">
        <ele>857</ele>
        <time>2021-08-02T09:54:42.538Z</time>
      </trkpt>
      <trkpt lat="47.02876" lon="8.99949">
        <ele>856</ele>
        <time>2021-08-02T09:54:43.537Z</time>
      </trkpt>
      <trkpt lat="47.02876" lon="8.99948">
        <ele>856</ele>
        <time>2021-08-02T09:54:44.538Z</time>
      </trkpt>
      <trkpt lat="47.02876" lon="8.99946">
        <ele>856</ele>
        <time>2021-08-02T09:54:45.537Z</time>
      </trkpt>
      <trkpt lat="47.02875" lon="8.99944">
        <ele>857</ele>
        <time>2021-08-02T09:54:46.537Z</time>
      </trkpt>
      <trkpt lat="47.02874" lon="8.99943">
        <ele>857</ele>
        <time>2021-08-02T09:54:47.537Z</time>
      </trkpt>
      <trkpt lat="47.02873" lon="8.99941">
        <ele>857</ele>
        <time>2021-08-02T09:54:48.537Z</time>
      </trkpt>
      <trkpt lat="47.02873" lon="8.99939">
        <ele>857</ele>
        <time>2021-08-02T09:54:49.537Z</time>
      </trkpt>
      <trkpt lat="47.02873" lon="8.99938">
        <ele>858</ele>
        <time>2021-08-02T09:54:50.537Z</time>
      </trkpt>
      <trkpt lat="47.02874" lon="8.99936">
        <ele>858</ele>
        <time>2021-08-02T09:54:51.538Z</time>
      </trkpt>
      <trkpt lat="47.02873" lon="8.99935">
        <ele>858</ele>
        <time>2021-08-02T09:54:52.538Z</time>
      </trkpt>
      <trkpt lat="47.02872" lon="8.99933">
        <ele>858</ele>
        <time>2021-08-02T09:54:53.537Z</time>
      </trkpt>
      <trkpt lat="47.02871" lon="8.99932">
        <ele>858</ele>
        <time>2021-08-02T09:54:54.537Z</time>
      </trkpt>
      <trkpt lat="47.0287" lon="8.99931">
        <ele>858</ele>
        <time>2021-08-02T09:54:55.538Z</time>
      </trkpt>
      <trkpt lat="47.0287" lon="8.99929">
        <ele>858</ele>
        <time>2021-08-02T09:54:56.537Z</time>
      </trkpt>
      <trkpt lat="47.02869" lon="8.99928">
        <ele>858</ele>
        <time>2021-08-02T09:54:57.537Z</time>
      </trkpt>
      <trkpt lat="47.02868" lon="8.99927">
        <ele>859</ele>
        <time>2021-08-02T09:54:58.538Z</time>
      </trkpt>
      <trkpt lat="47.02867" lon="8.99926">
        <ele>858</ele>
        <time>2021-08-02T09:54:59.537Z</time>
      </trkpt>
      <trkpt lat="47.02867" lon="8.99926">
        <ele>858</ele>
        <time>2021-08-02T09:55:00.537Z</time>
      </trkpt>
      <trkpt lat="47.02866" lon="8.99925">
        <ele>858</ele>
        <time>2021-08-02T09:55:01.537Z</time>
      </trkpt>
      <trkpt lat="47.02865" lon="8.99924">
        <ele>857</ele>
        <time>2021-08-02T09:55:02.537Z</time>
      </trkpt>
      <trkpt lat="47.02864" lon="8.99923">
        <ele>857</ele>
        <time>2021-08-02T09:55:03.537Z</time>
      </trkpt>
      <trkpt lat="47.02863" lon="8.99922">
        <ele>856</ele>
        <time>2021-08-02T09:55:04.538Z</time>
      </trkpt>
      <trkpt lat="47.02863" lon="8.9992">
        <ele>856</ele>
        <time>2021-08-02T09:55:05.538Z</time>
      </trkpt>
      <trkpt lat="47.02864" lon="8.99918">
        <ele>855</ele>
        <time>2021-08-02T09:55:06.537Z</time>
      </trkpt>
      <trkpt lat="47.02863" lon="8.99916">
        <ele>855</ele>
        <time>2021-08-02T09:55:07.538Z</time>
      </trkpt>
      <trkpt lat="47.02863" lon="8.99914">
        <ele>855</ele>
        <time>2021-08-02T09:55:08.537Z</time>
      </trkpt>
      <trkpt lat="47.02862" lon="8.99912">
        <ele>855</ele>
        <time>2021-08-02T09:55:09.538Z</time>
      </trkpt>
      <trkpt lat="47.02861" lon="8.99911">
        <ele>855</ele>
        <time>2021-08-02T09:55:10.538Z</time>
      </trkpt>
      <trkpt lat="47.0286" lon="8.9991">
        <ele>855</ele>
        <time>2021-08-02T09:55:11.537Z</time>
      </trkpt>
      <trkpt lat="47.0286" lon="8.99909">
        <ele>855</ele>
        <time>2021-08-02T09:55:12.538Z</time>
      </trkpt>
      <trkpt lat="47.02859" lon="8.99908">
        <ele>855</ele>
        <time>2021-08-02T09:55:13.538Z</time>
      </trkpt>
      <trkpt lat="47.02858" lon="8.99907">
        <ele>856</ele>
        <time>2021-08-02T09:55:14.537Z</time>
      </trkpt>
      <trkpt lat="47.02857" lon="8.99906">
        <ele>856</ele>
        <time>2021-08-02T09:55:15.537Z</time>
      </trkpt>
      <trkpt lat="47.02856" lon="8.99905">
        <ele>855</ele>
        <time>2021-08-02T09:55:16.538Z</time>
      </trkpt>
      <trkpt lat="47.02855" lon="8.99904">
        <ele>855</ele>
        <time>2021-08-02T09:55:17.537Z</time>
      </trkpt>
      <trkpt lat="47.02854" lon="8.99904">
        <ele>855</ele>
        <time>2021-08-02T09:55:18.537Z</time>
      </trkpt>
      <trkpt lat="47.02853" lon="8.99903">
        <ele>854</ele>
        <time>2021-08-02T09:55:19.537Z</time>
      </trkpt>
      <trkpt lat="47.02851" lon="8.99901">
        <ele>854</ele>
        <time>2021-08-02T09:55:20.537Z</time>
      </trkpt>
      <trkpt lat="47.0285" lon="8.999">
        <ele>854</ele>
        <time>2021-08-02T09:55:21.538Z</time>
      </trkpt>
      <trkpt lat="47.0285" lon="8.99898">
        <ele>854</ele>
        <time>2021-08-02T09:55:22.537Z</time>
      </trkpt>
      <trkpt lat="47.02849" lon="8.99897">
        <ele>854</ele>
        <time>2021-08-02T09:55:23.537Z</time>
      </trkpt>
      <trkpt lat="47.02849" lon="8.99896">
        <ele>855</ele>
        <time>2021-08-02T09:55:24.537Z</time>
      </trkpt>
      <trkpt lat="47.0285" lon="8.99895">
        <ele>854</ele>
        <time>2021-08-02T09:55:25.537Z</time>
      </trkpt>
      <trkpt lat="47.02849" lon="8.99894">
        <ele>854</ele>
        <time>2021-08-02T09:55:26.537Z</time>
      </trkpt>
      <trkpt lat="47.02848" lon="8.99893">
        <ele>854</ele>
        <time>2021-08-02T09:55:27.537Z</time>
      </trkpt>
      <trkpt lat="47.02848" lon="8.99892">
        <ele>854</ele>
        <time>2021-08-02T09:55:28.537Z</time>
      </trkpt>
      <trkpt lat="47.02847" lon="8.99891">
        <ele>854</ele>
        <time>2021-08-02T09:55:29.537Z</time>
      </trkpt>
      <trkpt lat="47.02847" lon="8.9989">
        <ele>853</ele>
        <time>2021-08-02T09:55:30.537Z</time>
      </trkpt>
      <trkpt lat="47.02846" lon="8.99889">
        <ele>853</ele>
        <time>2021-08-02T09:55:31.537Z</time>
      </trkpt>
      <trkpt lat="47.02845" lon="8.99888">
        <ele>853</ele>
        <time>2021-08-02T09:55:32.537Z</time>
      </trkpt>
      <trkpt lat="47.02844" lon="8.99887">
        <ele>852</ele>
        <time>2021-08-02T09:55:33.538Z</time>
      </trkpt>
      <trkpt lat="47.02843" lon="8.99886">
        <ele>852</ele>
        <time>2021-08-02T09:55:34.537Z</time>
      </trkpt>
      <trkpt lat="47.02842" lon="8.99885">
        <ele>851</ele>
        <time>2021-08-02T09:55:35.537Z</time>
      </trkpt>
      <trkpt lat="47.02842" lon="8.99885">
        <ele>850</ele>
        <time>2021-08-02T09:55:36.537Z</time>
      </trkpt>
      <trkpt lat="47.02842" lon="8.99884">
        <ele>850</ele>
        <time>2021-08-02T09:55:37.537Z</time>
      </trkpt>
      <trkpt lat="47.02842" lon="8.99883">
        <ele>849</ele>
        <time>2021-08-02T09:55:39.559Z</time>
      </trkpt>
      <trkpt lat="47.02841" lon="8.99882">
        <ele>849</ele>
        <time>2021-08-02T09:55:40.558Z</time>
      </trkpt>
      <trkpt lat="47.02841" lon="8.99881">
        <ele>848</ele>
        <time>2021-08-02T09:55:41.558Z</time>
      </trkpt>
      <trkpt lat="47.02841" lon="8.9988">
        <ele>848</ele>
        <time>2021-08-02T09:55:42.559Z</time>
      </trkpt>
      <trkpt lat="47.02841" lon="8.99879">
        <ele>848</ele>
        <time>2021-08-02T09:55:43.559Z</time>
      </trkpt>
      <trkpt lat="47.0284" lon="8.99878">
        <ele>848</ele>
        <time>2021-08-02T09:55:44.559Z</time>
      </trkpt>
      <trkpt lat="47.02839" lon="8.99877">
        <ele>848</ele>
        <time>2021-08-02T09:55:45.558Z</time>
      </trkpt>
      <trkpt lat="47.02838" lon="8.99877">
        <ele>848</ele>
        <time>2021-08-02T09:55:46.558Z</time>
      </trkpt>
      <trkpt lat="47.02837" lon="8.99876">
        <ele>848</ele>
        <time>2021-08-02T09:55:47.558Z</time>
      </trkpt>
      <trkpt lat="47.02836" lon="8.99874">
        <ele>848</ele>
        <time>2021-08-02T09:55:48.558Z</time>
      </trkpt>
      <trkpt lat="47.02836" lon="8.99874">
        <ele>848</ele>
        <time>2021-08-02T09:55:49.558Z</time>
      </trkpt>
      <trkpt lat="47.02835" lon="8.99873">
        <ele>848</ele>
        <time>2021-08-02T09:55:50.558Z</time>
      </trkpt>
      <trkpt lat="47.02835" lon="8.99872">
        <ele>848</ele>
        <time>2021-08-02T09:55:51.558Z</time>
      </trkpt>
      <trkpt lat="47.02834" lon="8.99871">
        <ele>848</ele>
        <time>2021-08-02T09:55:52.558Z</time>
      </trkpt>
      <trkpt lat="47.02833" lon="8.9987">
        <ele>848</ele>
        <time>2021-08-02T09:55:53.558Z</time>
      </trkpt>
      <trkpt lat="47.02832" lon="8.99869">
        <ele>847</ele>
        <time>2021-08-02T09:55:54.558Z</time>
      </trkpt>
      <trkpt lat="47.02832" lon="8.99867">
        <ele>847</ele>
        <time>2021-08-02T09:55:55.559Z</time>
      </trkpt>
      <trkpt lat="47.02831" lon="8.99866">
        <ele>847</ele>
        <time>2021-08-02T09:55:56.558Z</time>
      </trkpt>
      <trkpt lat="47.02831" lon="8.99865">
        <ele>847</ele>
        <time>2021-08-02T09:55:57.558Z</time>
      </trkpt>
      <trkpt lat="47.0283" lon="8.99863">
        <ele>847</ele>
        <time>2021-08-02T09:55:58.558Z</time>
      </trkpt>
      <trkpt lat="47.02829" lon="8.99862">
        <ele>847</ele>
        <time>2021-08-02T09:55:59.558Z</time>
      </trkpt>
      <trkpt lat="47.02828" lon="8.99861">
        <ele>847</ele>
        <time>2021-08-02T09:56:00.558Z</time>
      </trkpt>
      <trkpt lat="47.02828" lon="8.9986">
        <ele>847</ele>
        <time>2021-08-02T09:56:01.558Z</time>
      </trkpt>
      <trkpt lat="47.02827" lon="8.99859">
        <ele>847</ele>
        <time>2021-08-02T09:56:02.559Z</time>
      </trkpt>
      <trkpt lat="47.02827" lon="8.99858">
        <ele>847</ele>
        <time>2021-08-02T09:56:03.558Z</time>
      </trkpt>
      <trkpt lat="47.02827" lon="8.99857">
        <ele>847</ele>
        <time>2021-08-02T09:56:04.558Z</time>
      </trkpt>
      <trkpt lat="47.02826" lon="8.99856">
        <ele>847</ele>
        <time>2021-08-02T09:56:05.559Z</time>
      </trkpt>
      <trkpt lat="47.02825" lon="8.99855">
        <ele>847</ele>
        <time>2021-08-02T09:56:06.558Z</time>
      </trkpt>
      <trkpt lat="47.02824" lon="8.99854">
        <ele>847</ele>
        <time>2021-08-02T09:56:07.558Z</time>
      </trkpt>
      <trkpt lat="47.02824" lon="8.99852">
        <ele>848</ele>
        <time>2021-08-02T09:56:08.558Z</time>
      </trkpt>
      <trkpt lat="47.02824" lon="8.9985">
        <ele>848</ele>
        <time>2021-08-02T09:56:09.558Z</time>
      </trkpt>
      <trkpt lat="47.02825" lon="8.99848">
        <ele>849</ele>
        <time>2021-08-02T09:56:10.558Z</time>
      </trkpt>
      <trkpt lat="47.02824" lon="8.99847">
        <ele>849</ele>
        <time>2021-08-02T09:56:11.558Z</time>
      </trkpt>
      <trkpt lat="47.02823" lon="8.99845">
        <ele>849</ele>
        <time>2021-08-02T09:56:12.558Z</time>
      </trkpt>
      <trkpt lat="47.02822" lon="8.99844">
        <ele>850</ele>
        <time>2021-08-02T09:56:13.558Z</time>
      </trkpt>
      <trkpt lat="47.02822" lon="8.99843">
        <ele>850</ele>
        <time>2021-08-02T09:56:14.559Z</time>
      </trkpt>
      <trkpt lat="47.02821" lon="8.99841">
        <ele>850</ele>
        <time>2021-08-02T09:56:15.558Z</time>
      </trkpt>
      <trkpt lat="47.02821" lon="8.9984">
        <ele>850</ele>
        <time>2021-08-02T09:56:16.558Z</time>
      </trkpt>
      <trkpt lat="47.0282" lon="8.99839">
        <ele>850</ele>
        <time>2021-08-02T09:56:17.558Z</time>
      </trkpt>
      <trkpt lat="47.0282" lon="8.99838">
        <ele>850</ele>
        <time>2021-08-02T09:56:18.559Z</time>
      </trkpt>
      <trkpt lat="47.02819" lon="8.99837">
        <ele>851</ele>
        <time>2021-08-02T09:56:19.558Z</time>
      </trkpt>
      <trkpt lat="47.02819" lon="8.99836">
        <ele>851</ele>
        <time>2021-08-02T09:56:20.559Z</time>
      </trkpt>
      <trkpt lat="47.02818" lon="8.99835">
        <ele>851</ele>
        <time>2021-08-02T09:56:21.558Z</time>
      </trkpt>
      <trkpt lat="47.02818" lon="8.99834">
        <ele>850</ele>
        <time>2021-08-02T09:56:22.558Z</time>
      </trkpt>
      <trkpt lat="47.02817" lon="8.99833">
        <ele>850</ele>
        <time>2021-08-02T09:56:23.559Z</time>
      </trkpt>
      <trkpt lat="47.02817" lon="8.99831">
        <ele>850</ele>
        <time>2021-08-02T09:56:24.558Z</time>
      </trkpt>
      <trkpt lat="47.02816" lon="8.99829">
        <ele>850</ele>
        <time>2021-08-02T09:56:25.558Z</time>
      </trkpt>
      <trkpt lat="47.02816" lon="8.99827">
        <ele>850</ele>
        <time>2021-08-02T09:56:26.558Z</time>
      </trkpt>
      <trkpt lat="47.02814" lon="8.99826">
        <ele>850</ele>
        <time>2021-08-02T09:56:27.558Z</time>
      </trkpt>
      <trkpt lat="47.02813" lon="8.99825">
        <ele>850</ele>
        <time>2021-08-02T09:56:28.558Z</time>
      </trkpt>
      <trkpt lat="47.02812" lon="8.99823">
        <ele>850</ele>
        <time>2021-08-02T09:56:29.558Z</time>
      </trkpt>
      <trkpt lat="47.02812" lon="8.99821">
        <ele>850</ele>
        <time>2021-08-02T09:56:30.558Z</time>
      </trkpt>
      <trkpt lat="47.02812" lon="8.99819">
        <ele>850</ele>
        <time>2021-08-02T09:56:31.558Z</time>
      </trkpt>
      <trkpt lat="47.02812" lon="8.99817">
        <ele>850</ele>
        <time>2021-08-02T09:56:32.559Z</time>
      </trkpt>
      <trkpt lat="47.02812" lon="8.99815">
        <ele>850</ele>
        <time>2021-08-02T09:56:33.558Z</time>
      </trkpt>
      <trkpt lat="47.02811" lon="8.99814">
        <ele>851</ele>
        <time>2021-08-02T09:56:34.558Z</time>
      </trkpt>
      <trkpt lat="47.02811" lon="8.99813">
        <ele>851</ele>
        <time>2021-08-02T09:56:35.558Z</time>
      </trkpt>
      <trkpt lat="47.02811" lon="8.99811">
        <ele>851</ele>
        <time>2021-08-02T09:56:36.558Z</time>
      </trkpt>
      <trkpt lat="47.02811" lon="8.9981">
        <ele>851</ele>
        <time>2021-08-02T09:56:37.558Z</time>
      </trkpt>
      <trkpt lat="47.02811" lon="8.99808">
        <ele>851</ele>
        <time>2021-08-02T09:56:38.558Z</time>
      </trkpt>
      <trkpt lat="47.0281" lon="8.99807">
        <ele>852</ele>
        <time>2021-08-02T09:56:39.558Z</time>
      </trkpt>
      <trkpt lat="47.02809" lon="8.99805">
        <ele>852</ele>
        <time>2021-08-02T09:56:40.558Z</time>
      </trkpt>
      <trkpt lat="47.02809" lon="8.99804">
        <ele>852</ele>
        <time>2021-08-02T09:56:41.559Z</time>
      </trkpt>
      <trkpt lat="47.02809" lon="8.99803">
        <ele>853</ele>
        <time>2021-08-02T09:56:42.558Z</time>
      </trkpt>
      <trkpt lat="47.02809" lon="8.99802">
        <ele>853</ele>
        <time>2021-08-02T09:56:43.559Z</time>
      </trkpt>
      <trkpt lat="47.02808" lon="8.99801">
        <ele>853</ele>
        <time>2021-08-02T09:56:44.558Z</time>
      </trkpt>
      <trkpt lat="47.02808" lon="8.998">
        <ele>853</ele>
        <time>2021-08-02T09:56:45.558Z</time>
      </trkpt>
      <trkpt lat="47.02808" lon="8.99798">
        <ele>853</ele>
        <time>2021-08-02T09:56:46.559Z</time>
      </trkpt>
      <trkpt lat="47.02807" lon="8.99796">
        <ele>854</ele>
        <time>2021-08-02T09:56:47.558Z</time>
      </trkpt>
      <trkpt lat="47.02807" lon="8.99795">
        <ele>854</ele>
        <time>2021-08-02T09:56:48.558Z</time>
      </trkpt>
      <trkpt lat="47.02807" lon="8.99794">
        <ele>853</ele>
        <time>2021-08-02T09:56:49.559Z</time>
      </trkpt>
      <trkpt lat="47.02806" lon="8.99792">
        <ele>853</ele>
        <time>2021-08-02T09:56:50.558Z</time>
      </trkpt>
      <trkpt lat="47.02806" lon="8.99791">
        <ele>852</ele>
        <time>2021-08-02T09:56:51.559Z</time>
      </trkpt>
      <trkpt lat="47.02806" lon="8.9979">
        <ele>851</ele>
        <time>2021-08-02T09:56:52.559Z</time>
      </trkpt>
      <trkpt lat="47.02805" lon="8.99788">
        <ele>851</ele>
        <time>2021-08-02T09:56:53.558Z</time>
      </trkpt>
      <trkpt lat="47.02805" lon="8.99787">
        <ele>850</ele>
        <time>2021-08-02T09:56:54.558Z</time>
      </trkpt>
      <trkpt lat="47.02804" lon="8.99786">
        <ele>850</ele>
        <time>2021-08-02T09:56:55.558Z</time>
      </trkpt>
      <trkpt lat="47.02804" lon="8.99784">
        <ele>850</ele>
        <time>2021-08-02T09:56:56.559Z</time>
      </trkpt>
      <trkpt lat="47.02803" lon="8.99782">
        <ele>850</ele>
        <time>2021-08-02T09:56:57.558Z</time>
      </trkpt>
      <trkpt lat="47.02804" lon="8.9978">
        <ele>850</ele>
        <time>2021-08-02T09:56:58.559Z</time>
      </trkpt>
      <trkpt lat="47.02803" lon="8.99778">
        <ele>850</ele>
        <time>2021-08-02T09:56:59.559Z</time>
      </trkpt>
      <trkpt lat="47.02803" lon="8.99777">
        <ele>851</ele>
        <time>2021-08-02T09:57:00.558Z</time>
      </trkpt>
      <trkpt lat="47.02802" lon="8.99775">
        <ele>851</ele>
        <time>2021-08-02T09:57:01.559Z</time>
      </trkpt>
      <trkpt lat="47.02802" lon="8.99773">
        <ele>852</ele>
        <time>2021-08-02T09:57:02.558Z</time>
      </trkpt>
      <trkpt lat="47.02801" lon="8.99771">
        <ele>853</ele>
        <time>2021-08-02T09:57:03.558Z</time>
      </trkpt>
      <trkpt lat="47.028" lon="8.99769">
        <ele>854</ele>
        <time>2021-08-02T09:57:04.558Z</time>
      </trkpt>
      <trkpt lat="47.028" lon="8.99767">
        <ele>854</ele>
        <time>2021-08-02T09:57:05.558Z</time>
      </trkpt>
      <trkpt lat="47.028" lon="8.99766">
        <ele>854</ele>
        <time>2021-08-02T09:57:06.558Z</time>
      </trkpt>
      <trkpt lat="47.02799" lon="8.99764">
        <ele>854</ele>
        <time>2021-08-02T09:57:07.558Z</time>
      </trkpt>
      <trkpt lat="47.02798" lon="8.99762">
        <ele>855</ele>
        <time>2021-08-02T09:57:08.558Z</time>
      </trkpt>
      <trkpt lat="47.02798" lon="8.99761">
        <ele>855</ele>
        <time>2021-08-02T09:57:09.558Z</time>
      </trkpt>
      <trkpt lat="47.02797" lon="8.99759">
        <ele>855</ele>
        <time>2021-08-02T09:57:10.558Z</time>
      </trkpt>
      <trkpt lat="47.02797" lon="8.99757">
        <ele>856</ele>
        <time>2021-08-02T09:57:17.695Z</time>
      </trkpt>
      <trkpt lat="47.02795" lon="8.99755">
        <ele>856</ele>
        <time>2021-08-02T09:57:18.695Z</time>
      </trkpt>
      <trkpt lat="47.02795" lon="8.99754">
        <ele>857</ele>
        <time>2021-08-02T09:57:19.695Z</time>
      </trkpt>
      <trkpt lat="47.02794" lon="8.99753">
        <ele>857</ele>
        <time>2021-08-02T09:57:20.695Z</time>
      </trkpt>
      <trkpt lat="47.02793" lon="8.99751">
        <ele>857</ele>
        <time>2021-08-02T09:57:21.695Z</time>
      </trkpt>
      <trkpt lat="47.02793" lon="8.9975">
        <ele>856</ele>
        <time>2021-08-02T09:57:22.695Z</time>
      </trkpt>
      <trkpt lat="47.02792" lon="8.99749">
        <ele>856</ele>
        <time>2021-08-02T09:57:23.695Z</time>
      </trkpt>
      <trkpt lat="47.02792" lon="8.99747">
        <ele>856</ele>
        <time>2021-08-02T09:57:24.696Z</time>
      </trkpt>
      <trkpt lat="47.02791" lon="8.99746">
        <ele>856</ele>
        <time>2021-08-02T09:57:25.695Z</time>
      </trkpt>
      <trkpt lat="47.0279" lon="8.99745">
        <ele>855</ele>
        <time>2021-08-02T09:57:26.695Z</time>
      </trkpt>
      <trkpt lat="47.0279" lon="8.99744">
        <ele>854</ele>
        <time>2021-08-02T09:57:27.695Z</time>
      </trkpt>
      <trkpt lat="47.02789" lon="8.99743">
        <ele>854</ele>
        <time>2021-08-02T09:57:28.695Z</time>
      </trkpt>
      <trkpt lat="47.02788" lon="8.99742">
        <ele>854</ele>
        <time>2021-08-02T09:57:29.695Z</time>
      </trkpt>
      <trkpt lat="47.02788" lon="8.99742">
        <ele>854</ele>
        <time>2021-08-02T09:57:30.695Z</time>
      </trkpt>
      <trkpt lat="47.02787" lon="8.99741">
        <ele>854</ele>
        <time>2021-08-02T09:57:31.696Z</time>
      </trkpt>
      <trkpt lat="47.02786" lon="8.9974">
        <ele>854</ele>
        <time>2021-08-02T09:57:32.695Z</time>
      </trkpt>
      <trkpt lat="47.02786" lon="8.99739">
        <ele>854</ele>
        <time>2021-08-02T09:57:33.695Z</time>
      </trkpt>
      <trkpt lat="47.02786" lon="8.99737">
        <ele>853</ele>
        <time>2021-08-02T09:57:34.695Z</time>
      </trkpt>
      <trkpt lat="47.02785" lon="8.99736">
        <ele>853</ele>
        <time>2021-08-02T09:57:35.695Z</time>
      </trkpt>
      <trkpt lat="47.02784" lon="8.99733">
        <ele>853</ele>
        <time>2021-08-02T09:57:36.696Z</time>
      </trkpt>
      <trkpt lat="47.02783" lon="8.99731">
        <ele>853</ele>
        <time>2021-08-02T09:57:37.695Z</time>
      </trkpt>
      <trkpt lat="47.02782" lon="8.99728">
        <ele>853</ele>
        <time>2021-08-02T09:57:38.695Z</time>
      </trkpt>
      <trkpt lat="47.02782" lon="8.99726">
        <ele>853</ele>
        <time>2021-08-02T09:57:39.695Z</time>
      </trkpt>
      <trkpt lat="47.0278" lon="8.99726">
        <ele>853</ele>
        <time>2021-08-02T09:57:40.696Z</time>
      </trkpt>
      <trkpt lat="47.02779" lon="8.99726">
        <ele>853</ele>
        <time>2021-08-02T09:57:41.695Z</time>
      </trkpt>
      <trkpt lat="47.02777" lon="8.99725">
        <ele>854</ele>
        <time>2021-08-02T09:57:42.695Z</time>
      </trkpt>
      <trkpt lat="47.02776" lon="8.99724">
        <ele>854</ele>
        <time>2021-08-02T09:57:43.695Z</time>
      </trkpt>
      <trkpt lat="47.02776" lon="8.99723">
        <ele>854</ele>
        <time>2021-08-02T09:57:44.695Z</time>
      </trkpt>
      <trkpt lat="47.02775" lon="8.99722">
        <ele>854</ele>
        <time>2021-08-02T09:57:45.695Z</time>
      </trkpt>
      <trkpt lat="47.02774" lon="8.99721">
        <ele>854</ele>
        <time>2021-08-02T09:57:46.695Z</time>
      </trkpt>
      <trkpt lat="47.02773" lon="8.9972">
        <ele>854</ele>
        <time>2021-08-02T09:57:47.696Z</time>
      </trkpt>
      <trkpt lat="47.02773" lon="8.99719">
        <ele>855</ele>
        <time>2021-08-02T09:57:48.695Z</time>
      </trkpt>
      <trkpt lat="47.02772" lon="8.99718">
        <ele>855</ele>
        <time>2021-08-02T09:57:49.695Z</time>
      </trkpt>
      <trkpt lat="47.02772" lon="8.99716">
        <ele>855</ele>
        <time>2021-08-02T09:57:50.695Z</time>
      </trkpt>
      <trkpt lat="47.02771" lon="8.99715">
        <ele>854</ele>
        <time>2021-08-02T09:57:54.851Z</time>
      </trkpt>
      <trkpt lat="47.0277" lon="8.99714">
        <ele>854</ele>
        <time>2021-08-02T09:57:55.851Z</time>
      </trkpt>
      <trkpt lat="47.0277" lon="8.99714">
        <ele>853</ele>
        <time>2021-08-02T09:57:56.850Z</time>
      </trkpt>
      <trkpt lat="47.02769" lon="8.99712">
        <ele>852</ele>
        <time>2021-08-02T09:58:00.948Z</time>
      </trkpt>
      <trkpt lat="47.02768" lon="8.99711">
        <ele>852</ele>
        <time>2021-08-02T09:58:01.948Z</time>
      </trkpt>
      <trkpt lat="47.02767" lon="8.99709">
        <ele>852</ele>
        <time>2021-08-02T09:58:02.948Z</time>
      </trkpt>
      <trkpt lat="47.02767" lon="8.99707">
        <ele>851</ele>
        <time>2021-08-02T09:58:03.948Z</time>
      </trkpt>
      <trkpt lat="47.02766" lon="8.99705">
        <ele>851</ele>
        <time>2021-08-02T09:58:04.948Z</time>
      </trkpt>
      <trkpt lat="47.02766" lon="8.99703">
        <ele>851</ele>
        <time>2021-08-02T09:58:05.948Z</time>
      </trkpt>
      <trkpt lat="47.02766" lon="8.99701">
        <ele>851</ele>
        <time>2021-08-02T09:58:06.948Z</time>
      </trkpt>
      <trkpt lat="47.02766" lon="8.997">
        <ele>851</ele>
        <time>2021-08-02T09:58:07.948Z</time>
      </trkpt>
      <trkpt lat="47.02766" lon="8.99698">
        <ele>852</ele>
        <time>2021-08-02T09:58:08.948Z</time>
      </trkpt>
      <trkpt lat="47.02765" lon="8.99695">
        <ele>852</ele>
        <time>2021-08-02T09:58:09.948Z</time>
      </trkpt>
      <trkpt lat="47.02765" lon="8.99692">
        <ele>852</ele>
        <time>2021-08-02T09:58:10.948Z</time>
      </trkpt>
      <trkpt lat="47.02764" lon="8.99691">
        <ele>851</ele>
        <time>2021-08-02T09:58:11.948Z</time>
      </trkpt>
      <trkpt lat="47.02764" lon="8.9969">
        <ele>851</ele>
        <time>2021-08-02T09:58:12.948Z</time>
      </trkpt>
      <trkpt lat="47.02763" lon="8.99688">
        <ele>851</ele>
        <time>2021-08-02T09:58:13.948Z</time>
      </trkpt>
      <trkpt lat="47.02763" lon="8.99687">
        <ele>851</ele>
        <time>2021-08-02T09:58:14.949Z</time>
      </trkpt>
      <trkpt lat="47.02762" lon="8.99686">
        <ele>851</ele>
        <time>2021-08-02T09:58:15.949Z</time>
      </trkpt>
      <trkpt lat="47.02761" lon="8.99684">
        <ele>851</ele>
        <time>2021-08-02T09:58:16.948Z</time>
      </trkpt>
      <trkpt lat="47.0276" lon="8.99683">
        <ele>851</ele>
        <time>2021-08-02T09:58:17.948Z</time>
      </trkpt>
      <trkpt lat="47.0276" lon="8.99681">
        <ele>851</ele>
        <time>2021-08-02T09:58:18.948Z</time>
      </trkpt>
      <trkpt lat="47.02759" lon="8.9968">
        <ele>852</ele>
        <time>2021-08-02T09:58:19.948Z</time>
      </trkpt>
      <trkpt lat="47.02758" lon="8.99679">
        <ele>852</ele>
        <time>2021-08-02T09:58:20.948Z</time>
      </trkpt>
      <trkpt lat="47.02757" lon="8.99676">
        <ele>853</ele>
        <time>2021-08-02T09:58:21.949Z</time>
      </trkpt>
      <trkpt lat="47.02757" lon="8.99676">
        <ele>853</ele>
        <time>2021-08-02T09:58:22.948Z</time>
      </trkpt>
      <trkpt lat="47.02757" lon="8.99674">
        <ele>853</ele>
        <time>2021-08-02T09:58:23.948Z</time>
      </trkpt>
      <trkpt lat="47.02757" lon="8.99672">
        <ele>853</ele>
        <time>2021-08-02T09:58:24.948Z</time>
      </trkpt>
      <trkpt lat="47.02758" lon="8.9967">
        <ele>853</ele>
        <time>2021-08-02T09:58:25.948Z</time>
      </trkpt>
      <trkpt lat="47.02757" lon="8.99668">
        <ele>853</ele>
        <time>2021-08-02T09:58:26.948Z</time>
      </trkpt>
      <trkpt lat="47.02756" lon="8.99666">
        <ele>853</ele>
        <time>2021-08-02T09:58:27.948Z</time>
      </trkpt>
      <trkpt lat="47.02755" lon="8.99665">
        <ele>853</ele>
        <time>2021-08-02T09:58:28.949Z</time>
      </trkpt>
      <trkpt lat="47.02755" lon="8.99664">
        <ele>853</ele>
        <time>2021-08-02T09:58:29.948Z</time>
      </trkpt>
      <trkpt lat="47.02754" lon="8.99662">
        <ele>852</ele>
        <time>2021-08-02T09:58:30.948Z</time>
      </trkpt>
      <trkpt lat="47.02755" lon="8.9966">
        <ele>852</ele>
        <time>2021-08-02T09:58:31.948Z</time>
      </trkpt>
      <trkpt lat="47.02755" lon="8.99658">
        <ele>852</ele>
        <time>2021-08-02T09:58:32.949Z</time>
      </trkpt>
      <trkpt lat="47.02754" lon="8.99656">
        <ele>852</ele>
        <time>2021-08-02T09:58:33.948Z</time>
      </trkpt>
      <trkpt lat="47.02754" lon="8.99655">
        <ele>852</ele>
        <time>2021-08-02T09:58:34.948Z</time>
      </trkpt>
      <trkpt lat="47.02753" lon="8.99653">
        <ele>852</ele>
        <time>2021-08-02T09:58:35.949Z</time>
      </trkpt>
      <trkpt lat="47.02752" lon="8.99652">
        <ele>852</ele>
        <time>2021-08-02T09:58:36.948Z</time>
      </trkpt>
      <trkpt lat="47.02752" lon="8.9965">
        <ele>852</ele>
        <time>2021-08-02T09:58:37.949Z</time>
      </trkpt>
      <trkpt lat="47.02751" lon="8.99648">
        <ele>851</ele>
        <time>2021-08-02T09:58:38.948Z</time>
      </trkpt>
      <trkpt lat="47.02751" lon="8.99647">
        <ele>851</ele>
        <time>2021-08-02T09:58:39.949Z</time>
      </trkpt>
      <trkpt lat="47.0275" lon="8.99645">
        <ele>850</ele>
        <time>2021-08-02T09:58:40.949Z</time>
      </trkpt>
      <trkpt lat="47.0275" lon="8.99644">
        <ele>850</ele>
        <time>2021-08-02T09:58:41.949Z</time>
      </trkpt>
      <trkpt lat="47.02749" lon="8.99642">
        <ele>851</ele>
        <time>2021-08-02T09:58:42.948Z</time>
      </trkpt>
      <trkpt lat="47.02749" lon="8.99641">
        <ele>851</ele>
        <time>2021-08-02T09:58:43.948Z</time>
      </trkpt>
      <trkpt lat="47.02748" lon="8.99639">
        <ele>851</ele>
        <time>2021-08-02T09:58:44.948Z</time>
      </trkpt>
      <trkpt lat="47.02748" lon="8.99638">
        <ele>851</ele>
        <time>2021-08-02T09:58:45.948Z</time>
      </trkpt>
      <trkpt lat="47.02748" lon="8.99636">
        <ele>851</ele>
        <time>2021-08-02T09:58:46.948Z</time>
      </trkpt>
      <trkpt lat="47.02748" lon="8.99634">
        <ele>851</ele>
        <time>2021-08-02T09:58:47.948Z</time>
      </trkpt>
      <trkpt lat="47.02747" lon="8.99633">
        <ele>851</ele>
        <time>2021-08-02T09:58:48.948Z</time>
      </trkpt>
      <trkpt lat="47.02747" lon="8.99631">
        <ele>852</ele>
        <time>2021-08-02T09:58:52.072Z</time>
      </trkpt>
      <trkpt lat="47.02746" lon="8.99629">
        <ele>852</ele>
        <time>2021-08-02T09:58:53.071Z</time>
      </trkpt>
      <trkpt lat="47.02746" lon="8.99628">
        <ele>851</ele>
        <time>2021-08-02T09:58:54.071Z</time>
      </trkpt>
      <trkpt lat="47.02745" lon="8.99626">
        <ele>852</ele>
        <time>2021-08-02T09:58:55.071Z</time>
      </trkpt>
      <trkpt lat="47.02745" lon="8.99625">
        <ele>851</ele>
        <time>2021-08-02T09:58:56.072Z</time>
      </trkpt>
      <trkpt lat="47.02745" lon="8.99624">
        <ele>851</ele>
        <time>2021-08-02T09:58:57.071Z</time>
      </trkpt>
      <trkpt lat="47.02745" lon="8.99622">
        <ele>851</ele>
        <time>2021-08-02T09:58:58.071Z</time>
      </trkpt>
      <trkpt lat="47.02744" lon="8.99621">
        <ele>851</ele>
        <time>2021-08-02T09:58:59.071Z</time>
      </trkpt>
      <trkpt lat="47.02743" lon="8.99619">
        <ele>851</ele>
        <time>2021-08-02T09:59:00.071Z</time>
      </trkpt>
      <trkpt lat="47.02743" lon="8.99618">
        <ele>851</ele>
        <time>2021-08-02T09:59:01.071Z</time>
      </trkpt>
      <trkpt lat="47.02743" lon="8.99616">
        <ele>850</ele>
        <time>2021-08-02T09:59:02.071Z</time>
      </trkpt>
      <trkpt lat="47.02743" lon="8.99614">
        <ele>850</ele>
        <time>2021-08-02T09:59:03.071Z</time>
      </trkpt>
      <trkpt lat="47.02743" lon="8.99611">
        <ele>850</ele>
        <time>2021-08-02T09:59:04.071Z</time>
      </trkpt>
      <trkpt lat="47.02742" lon="8.99609">
        <ele>850</ele>
        <time>2021-08-02T09:59:05.071Z</time>
      </trkpt>
      <trkpt lat="47.02742" lon="8.99607">
        <ele>850</ele>
        <time>2021-08-02T09:59:06.072Z</time>
      </trkpt>
      <trkpt lat="47.02742" lon="8.99606">
        <ele>850</ele>
        <time>2021-08-02T09:59:07.071Z</time>
      </trkpt>
      <trkpt lat="47.02742" lon="8.99604">
        <ele>850</ele>
        <time>2021-08-02T09:59:08.071Z</time>
      </trkpt>
      <trkpt lat="47.02742" lon="8.99603">
        <ele>850</ele>
        <time>2021-08-02T09:59:09.071Z</time>
      </trkpt>
      <trkpt lat="47.02743" lon="8.99602">
        <ele>851</ele>
        <time>2021-08-02T09:59:10.071Z</time>
      </trkpt>
      <trkpt lat="47.02743" lon="8.996">
        <ele>851</ele>
        <time>2021-08-02T09:59:11.071Z</time>
      </trkpt>
      <trkpt lat="47.02743" lon="8.99599">
        <ele>851</ele>
        <time>2021-08-02T09:59:13.201Z</time>
      </trkpt>
      <trkpt lat="47.02743" lon="8.99597">
        <ele>851</ele>
        <time>2021-08-02T09:59:14.201Z</time>
      </trkpt>
      <trkpt lat="47.02742" lon="8.99596">
        <ele>851</ele>
        <time>2021-08-02T09:59:15.201Z</time>
      </trkpt>
      <trkpt lat="47.02742" lon="8.99595">
        <ele>852</ele>
        <time>2021-08-02T09:59:16.201Z</time>
      </trkpt>
      <trkpt lat="47.02742" lon="8.99593">
        <ele>852</ele>
        <time>2021-08-02T09:59:17.201Z</time>
      </trkpt>
      <trkpt lat="47.02741" lon="8.99592">
        <ele>852</ele>
        <time>2021-08-02T09:59:18.201Z</time>
      </trkpt>
      <trkpt lat="47.0274" lon="8.99591">
        <ele>853</ele>
        <time>2021-08-02T09:59:19.201Z</time>
      </trkpt>
      <trkpt lat="47.02739" lon="8.99589">
        <ele>853</ele>
        <time>2021-08-02T09:59:20.201Z</time>
      </trkpt>
      <trkpt lat="47.02739" lon="8.99588">
        <ele>854</ele>
        <time>2021-08-02T09:59:21.202Z</time>
      </trkpt>
      <trkpt lat="47.02739" lon="8.99587">
        <ele>854</ele>
        <time>2021-08-02T09:59:22.201Z</time>
      </trkpt>
      <trkpt lat="47.02739" lon="8.99585">
        <ele>854</ele>
        <time>2021-08-02T09:59:23.202Z</time>
      </trkpt>
      <trkpt lat="47.02738" lon="8.99584">
        <ele>854</ele>
        <time>2021-08-02T09:59:24.201Z</time>
      </trkpt>
      <trkpt lat="47.02737" lon="8.99583">
        <ele>854</ele>
        <time>2021-08-02T09:59:25.201Z</time>
      </trkpt>
      <trkpt lat="47.02737" lon="8.99582">
        <ele>854</ele>
        <time>2021-08-02T09:59:26.201Z</time>
      </trkpt>
      <trkpt lat="47.02737" lon="8.9958">
        <ele>854</ele>
        <time>2021-08-02T09:59:27.201Z</time>
      </trkpt>
      <trkpt lat="47.02736" lon="8.99579">
        <ele>854</ele>
        <time>2021-08-02T09:59:28.201Z</time>
      </trkpt>
      <trkpt lat="47.02736" lon="8.99578">
        <ele>854</ele>
        <time>2021-08-02T09:59:29.202Z</time>
      </trkpt>
      <trkpt lat="47.02736" lon="8.99577">
        <ele>854</ele>
        <time>2021-08-02T09:59:30.202Z</time>
      </trkpt>
      <trkpt lat="47.02736" lon="8.99576">
        <ele>854</ele>
        <time>2021-08-02T09:59:31.201Z</time>
      </trkpt>
      <trkpt lat="47.02735" lon="8.99575">
        <ele>854</ele>
        <time>2021-08-02T09:59:32.201Z</time>
      </trkpt>
      <trkpt lat="47.02733" lon="8.99575">
        <ele>854</ele>
        <time>2021-08-02T09:59:33.201Z</time>
      </trkpt>
      <trkpt lat="47.02733" lon="8.99575">
        <ele>854</ele>
        <time>2021-08-02T09:59:34.201Z</time>
      </trkpt>
      <trkpt lat="47.02733" lon="8.99574">
        <ele>854</ele>
        <time>2021-08-02T09:59:35.202Z</time>
      </trkpt>
      <trkpt lat="47.02731" lon="8.99572">
        <ele>854</ele>
        <time>2021-08-02T09:59:36.201Z</time>
      </trkpt>
      <trkpt lat="47.0273" lon="8.99572">
        <ele>854</ele>
        <time>2021-08-02T09:59:37.201Z</time>
      </trkpt>
      <trkpt lat="47.0273" lon="8.99572">
        <ele>854</ele>
        <time>2021-08-02T09:59:38.201Z</time>
      </trkpt>
      <trkpt lat="47.02729" lon="8.99572">
        <ele>854</ele>
        <time>2021-08-02T09:59:39.201Z</time>
      </trkpt>
      <trkpt lat="47.02729" lon="8.99572">
        <ele>854</ele>
        <time>2021-08-02T09:59:40.201Z</time>
      </trkpt>
      <trkpt lat="47.02729" lon="8.99573">
        <ele>854</ele>
        <time>2021-08-02T09:59:41.201Z</time>
      </trkpt>
      <trkpt lat="47.02728" lon="8.99573">
        <ele>854</ele>
        <time>2021-08-02T09:59:42.201Z</time>
      </trkpt>
      <trkpt lat="47.02726" lon="8.99573">
        <ele>863</ele>
        <time>2021-08-02T09:59:43.202Z</time>
      </trkpt>
      <trkpt lat="47.02725" lon="8.99573">
        <ele>863</ele>
        <time>2021-08-02T09:59:44.201Z</time>
      </trkpt>
      <trkpt lat="47.02724" lon="8.99573">
        <ele>863</ele>
        <time>2021-08-02T09:59:45.201Z</time>
      </trkpt>
      <trkpt lat="47.02723" lon="8.99572">
        <ele>863</ele>
        <time>2021-08-02T09:59:46.202Z</time>
      </trkpt>
      <trkpt lat="47.02721" lon="8.99571">
        <ele>863</ele>
        <time>2021-08-02T09:59:47.201Z</time>
      </trkpt>
      <trkpt lat="47.0272" lon="8.9957">
        <ele>863</ele>
        <time>2021-08-02T09:59:48.201Z</time>
      </trkpt>
      <trkpt lat="47.02719" lon="8.99569">
        <ele>863</ele>
        <time>2021-08-02T09:59:49.202Z</time>
      </trkpt>
      <trkpt lat="47.02718" lon="8.99569">
        <ele>863</ele>
        <time>2021-08-02T09:59:50.202Z</time>
      </trkpt>
      <trkpt lat="47.02717" lon="8.99568">
        <ele>863</ele>
        <time>2021-08-02T09:59:51.201Z</time>
      </trkpt>
      <trkpt lat="47.02715" lon="8.99567">
        <ele>863</ele>
        <time>2021-08-02T09:59:52.201Z</time>
      </trkpt>
      <trkpt lat="47.02714" lon="8.99566">
        <ele>862</ele>
        <time>2021-08-02T09:59:53.201Z</time>
      </trkpt>
      <trkpt lat="47.02712" lon="8.99564">
        <ele>862</ele>
        <time>2021-08-02T09:59:54.201Z</time>
      </trkpt>
      <trkpt lat="47.0271" lon="8.99563">
        <ele>862</ele>
        <time>2021-08-02T09:59:55.202Z</time>
      </trkpt>
      <trkpt lat="47.02708" lon="8.99562">
        <ele>862</ele>
        <time>2021-08-02T09:59:56.201Z</time>
      </trkpt>
      <trkpt lat="47.02707" lon="8.9956">
        <ele>862</ele>
        <time>2021-08-02T09:59:57.201Z</time>
      </trkpt>
      <trkpt lat="47.02706" lon="8.99559">
        <ele>861</ele>
        <time>2021-08-02T09:59:58.201Z</time>
      </trkpt>
      <trkpt lat="47.02705" lon="8.99559">
        <ele>861</ele>
        <time>2021-08-02T09:59:59.201Z</time>
      </trkpt>
      <trkpt lat="47.02704" lon="8.9956">
        <ele>861</ele>
        <time>2021-08-02T10:00:00.201Z</time>
      </trkpt>
      <trkpt lat="47.02702" lon="8.9956">
        <ele>860</ele>
        <time>2021-08-02T10:00:01.201Z</time>
      </trkpt>
      <trkpt lat="47.02701" lon="8.9956">
        <ele>860</ele>
        <time>2021-08-02T10:00:09.310Z</time>
      </trkpt>
      <trkpt lat="47.02701" lon="8.9956">
        <ele>860</ele>
        <time>2021-08-02T10:00:10.310Z</time>
      </trkpt>
      <trkpt lat="47.027" lon="8.99559">
        <ele>860</ele>
        <time>2021-08-02T10:00:11.310Z</time>
      </trkpt>
      <trkpt lat="47.02699" lon="8.99558">
        <ele>859</ele>
        <time>2021-08-02T10:00:12.311Z</time>
      </trkpt>
      <trkpt lat="47.02699" lon="8.99557">
        <ele>859</ele>
        <time>2021-08-02T10:00:13.310Z</time>
      </trkpt>
      <trkpt lat="47.02699" lon="8.99556">
        <ele>860</ele>
        <time>2021-08-02T10:00:14.310Z</time>
      </trkpt>
      <trkpt lat="47.02698" lon="8.99554">
        <ele>860</ele>
        <time>2021-08-02T10:00:15.310Z</time>
      </trkpt>
      <trkpt lat="47.02697" lon="8.99553">
        <ele>860</ele>
        <time>2021-08-02T10:00:16.310Z</time>
      </trkpt>
      <trkpt lat="47.02696" lon="8.99551">
        <ele>861</ele>
        <time>2021-08-02T10:00:17.310Z</time>
      </trkpt>
      <trkpt lat="47.02695" lon="8.9955">
        <ele>861</ele>
        <time>2021-08-02T10:00:18.311Z</time>
      </trkpt>
      <trkpt lat="47.02694" lon="8.99549">
        <ele>862</ele>
        <time>2021-08-02T10:00:19.310Z</time>
      </trkpt>
      <trkpt lat="47.02693" lon="8.99548">
        <ele>862</ele>
        <time>2021-08-02T10:00:20.310Z</time>
      </trkpt>
      <trkpt lat="47.02692" lon="8.99546">
        <ele>863</ele>
        <time>2021-08-02T10:00:21.310Z</time>
      </trkpt>
      <trkpt lat="47.02691" lon="8.99545">
        <ele>863</ele>
        <time>2021-08-02T10:00:22.310Z</time>
      </trkpt>
      <trkpt lat="47.02691" lon="8.99545">
        <ele>864</ele>
        <time>2021-08-02T10:00:23.310Z</time>
      </trkpt>
      <trkpt lat="47.02691" lon="8.99544">
        <ele>864</ele>
        <time>2021-08-02T10:00:24.310Z</time>
      </trkpt>
      <trkpt lat="47.02692" lon="8.99543">
        <ele>865</ele>
        <time>2021-08-02T10:00:25.311Z</time>
      </trkpt>
      <trkpt lat="47.02692" lon="8.99542">
        <ele>865</ele>
        <time>2021-08-02T10:00:26.310Z</time>
      </trkpt>
      <trkpt lat="47.02691" lon="8.99541">
        <ele>865</ele>
        <time>2021-08-02T10:00:27.310Z</time>
      </trkpt>
      <trkpt lat="47.0269" lon="8.99539">
        <ele>865</ele>
        <time>2021-08-02T10:00:28.310Z</time>
      </trkpt>
      <trkpt lat="47.02689" lon="8.99538">
        <ele>865</ele>
        <time>2021-08-02T10:00:29.310Z</time>
      </trkpt>
      <trkpt lat="47.02688" lon="8.99536">
        <ele>865</ele>
        <time>2021-08-02T10:00:30.310Z</time>
      </trkpt>
      <trkpt lat="47.02688" lon="8.99535">
        <ele>864</ele>
        <time>2021-08-02T10:00:31.310Z</time>
      </trkpt>
      <trkpt lat="47.02688" lon="8.99533">
        <ele>864</ele>
        <time>2021-08-02T10:00:32.310Z</time>
      </trkpt>
      <trkpt lat="47.02687" lon="8.99532">
        <ele>864</ele>
        <time>2021-08-02T10:00:33.310Z</time>
      </trkpt>
      <trkpt lat="47.02687" lon="8.9953">
        <ele>864</ele>
        <time>2021-08-02T10:00:34.310Z</time>
      </trkpt>
      <trkpt lat="47.02687" lon="8.99529">
        <ele>865</ele>
        <time>2021-08-02T10:00:35.310Z</time>
      </trkpt>
      <trkpt lat="47.02687" lon="8.99527">
        <ele>865</ele>
        <time>2021-08-02T10:00:36.311Z</time>
      </trkpt>
      <trkpt lat="47.02686" lon="8.99526">
        <ele>865</ele>
        <time>2021-08-02T10:00:37.310Z</time>
      </trkpt>
      <trkpt lat="47.02686" lon="8.99525">
        <ele>865</ele>
        <time>2021-08-02T10:00:38.310Z</time>
      </trkpt>
      <trkpt lat="47.02686" lon="8.99523">
        <ele>865</ele>
        <time>2021-08-02T10:00:39.310Z</time>
      </trkpt>
      <trkpt lat="47.02685" lon="8.99521">
        <ele>864</ele>
        <time>2021-08-02T10:00:40.310Z</time>
      </trkpt>
      <trkpt lat="47.02684" lon="8.9952">
        <ele>864</ele>
        <time>2021-08-02T10:00:41.310Z</time>
      </trkpt>
      <trkpt lat="47.02683" lon="8.99518">
        <ele>863</ele>
        <time>2021-08-02T10:00:42.310Z</time>
      </trkpt>
      <trkpt lat="47.02682" lon="8.99516">
        <ele>863</ele>
        <time>2021-08-02T10:00:43.310Z</time>
      </trkpt>
      <trkpt lat="47.02682" lon="8.99515">
        <ele>862</ele>
        <time>2021-08-02T10:00:44.310Z</time>
      </trkpt>
      <trkpt lat="47.02682" lon="8.99513">
        <ele>861</ele>
        <time>2021-08-02T10:00:45.310Z</time>
      </trkpt>
      <trkpt lat="47.02682" lon="8.99512">
        <ele>860</ele>
        <time>2021-08-02T10:00:46.311Z</time>
      </trkpt>
      <trkpt lat="47.02682" lon="8.9951">
        <ele>860</ele>
        <time>2021-08-02T10:00:47.310Z</time>
      </trkpt>
      <trkpt lat="47.02681" lon="8.99507">
        <ele>860</ele>
        <time>2021-08-02T10:00:48.310Z</time>
      </trkpt>
      <trkpt lat="47.02681" lon="8.99506">
        <ele>860</ele>
        <time>2021-08-02T10:00:49.310Z</time>
      </trkpt>
      <trkpt lat="47.0268" lon="8.99505">
        <ele>860</ele>
        <time>2021-08-02T10:00:50.310Z</time>
      </trkpt>
      <trkpt lat="47.0268" lon="8.99504">
        <ele>859</ele>
        <time>2021-08-02T10:00:51.311Z</time>
      </trkpt>
      <trkpt lat="47.02679" lon="8.99502">
        <ele>859</ele>
        <time>2021-08-02T10:00:52.310Z</time>
      </trkpt>
      <trkpt lat="47.02678" lon="8.99501">
        <ele>859</ele>
        <time>2021-08-02T10:00:53.310Z</time>
      </trkpt>
      <trkpt lat="47.02677" lon="8.995">
        <ele>859</ele>
        <time>2021-08-02T10:00:54.310Z</time>
      </trkpt>
      <trkpt lat="47.02675" lon="8.99497">
        <ele>858</ele>
        <time>2021-08-02T10:00:55.310Z</time>
      </trkpt>
      <trkpt lat="47.02675" lon="8.99496">
        <ele>859</ele>
        <time>2021-08-02T10:00:56.310Z</time>
      </trkpt>
      <trkpt lat="47.02675" lon="8.99493">
        <ele>859</ele>
        <time>2021-08-02T10:00:57.310Z</time>
      </trkpt>
      <trkpt lat="47.02675" lon="8.99492">
        <ele>859</ele>
        <time>2021-08-02T10:00:58.310Z</time>
      </trkpt>
      <trkpt lat="47.02674" lon="8.99491">
        <ele>859</ele>
        <time>2021-08-02T10:00:59.310Z</time>
      </trkpt>
      <trkpt lat="47.02674" lon="8.99489">
        <ele>858</ele>
        <time>2021-08-02T10:01:00.310Z</time>
      </trkpt>
      <trkpt lat="47.02673" lon="8.99488">
        <ele>858</ele>
        <time>2021-08-02T10:01:01.311Z</time>
      </trkpt>
      <trkpt lat="47.02673" lon="8.99487">
        <ele>857</ele>
        <time>2021-08-02T10:01:02.310Z</time>
      </trkpt>
      <trkpt lat="47.02673" lon="8.99485">
        <ele>857</ele>
        <time>2021-08-02T10:01:03.310Z</time>
      </trkpt>
      <trkpt lat="47.02672" lon="8.99484">
        <ele>857</ele>
        <time>2021-08-02T10:01:04.310Z</time>
      </trkpt>
      <trkpt lat="47.02671" lon="8.99482">
        <ele>857</ele>
        <time>2021-08-02T10:01:05.310Z</time>
      </trkpt>
      <trkpt lat="47.0267" lon="8.99481">
        <ele>857</ele>
        <time>2021-08-02T10:01:06.311Z</time>
      </trkpt>
      <trkpt lat="47.02668" lon="8.9948">
        <ele>857</ele>
        <time>2021-08-02T10:01:07.310Z</time>
      </trkpt>
      <trkpt lat="47.02667" lon="8.99479">
        <ele>856</ele>
        <time>2021-08-02T10:01:08.310Z</time>
      </trkpt>
      <trkpt lat="47.02667" lon="8.99478">
        <ele>856</ele>
        <time>2021-08-02T10:01:09.310Z</time>
      </trkpt>
      <trkpt lat="47.02666" lon="8.99476">
        <ele>856</ele>
        <time>2021-08-02T10:01:10.310Z</time>
      </trkpt>
      <trkpt lat="47.02666" lon="8.99474">
        <ele>855</ele>
        <time>2021-08-02T10:01:11.310Z</time>
      </trkpt>
      <trkpt lat="47.02665" lon="8.99473">
        <ele>855</ele>
        <time>2021-08-02T10:01:12.310Z</time>
      </trkpt>
      <trkpt lat="47.02665" lon="8.99471">
        <ele>855</ele>
        <time>2021-08-02T10:01:13.310Z</time>
      </trkpt>
      <trkpt lat="47.02665" lon="8.99469">
        <ele>855</ele>
        <time>2021-08-02T10:01:14.311Z</time>
      </trkpt>
      <trkpt lat="47.02664" lon="8.99467">
        <ele>855</ele>
        <time>2021-08-02T10:01:15.310Z</time>
      </trkpt>
      <trkpt lat="47.02663" lon="8.99465">
        <ele>855</ele>
        <time>2021-08-02T10:01:16.310Z</time>
      </trkpt>
      <trkpt lat="47.02663" lon="8.99464">
        <ele>855</ele>
        <time>2021-08-02T10:01:17.310Z</time>
      </trkpt>
      <trkpt lat="47.02662" lon="8.99462">
        <ele>856</ele>
        <time>2021-08-02T10:01:18.310Z</time>
      </trkpt>
      <trkpt lat="47.02662" lon="8.9946">
        <ele>856</ele>
        <time>2021-08-02T10:01:19.310Z</time>
      </trkpt>
      <trkpt lat="47.02662" lon="8.99458">
        <ele>856</ele>
        <time>2021-08-02T10:01:20.310Z</time>
      </trkpt>
      <trkpt lat="47.02662" lon="8.99456">
        <ele>856</ele>
        <time>2021-08-02T10:01:21.310Z</time>
      </trkpt>
      <trkpt lat="47.02661" lon="8.99454">
        <ele>856</ele>
        <time>2021-08-02T10:01:22.310Z</time>
      </trkpt>
      <trkpt lat="47.0266" lon="8.99452">
        <ele>857</ele>
        <time>2021-08-02T10:01:23.310Z</time>
      </trkpt>
      <trkpt lat="47.0266" lon="8.99449">
        <ele>857</ele>
        <time>2021-08-02T10:01:24.310Z</time>
      </trkpt>
      <trkpt lat="47.02659" lon="8.99447">
        <ele>857</ele>
        <time>2021-08-02T10:01:25.310Z</time>
      </trkpt>
      <trkpt lat="47.02659" lon="8.99445">
        <ele>857</ele>
        <time>2021-08-02T10:01:26.310Z</time>
      </trkpt>
      <trkpt lat="47.02659" lon="8.99444">
        <ele>857</ele>
        <time>2021-08-02T10:01:27.311Z</time>
      </trkpt>
      <trkpt lat="47.02659" lon="8.99441">
        <ele>857</ele>
        <time>2021-08-02T10:01:28.310Z</time>
      </trkpt>
      <trkpt lat="47.0266" lon="8.99438">
        <ele>857</ele>
        <time>2021-08-02T10:01:29.311Z</time>
      </trkpt>
      <trkpt lat="47.02659" lon="8.99436">
        <ele>857</ele>
        <time>2021-08-02T10:01:30.310Z</time>
      </trkpt>
      <trkpt lat="47.02659" lon="8.99434">
        <ele>857</ele>
        <time>2021-08-02T10:01:31.310Z</time>
      </trkpt>
      <trkpt lat="47.02658" lon="8.99431">
        <ele>857</ele>
        <time>2021-08-02T10:01:32.310Z</time>
      </trkpt>
      <trkpt lat="47.02657" lon="8.99429">
        <ele>857</ele>
        <time>2021-08-02T10:01:33.310Z</time>
      </trkpt>
      <trkpt lat="47.02657" lon="8.99428">
        <ele>857</ele>
        <time>2021-08-02T10:01:34.310Z</time>
      </trkpt>
      <trkpt lat="47.02657" lon="8.99426">
        <ele>857</ele>
        <time>2021-08-02T10:01:35.310Z</time>
      </trkpt>
      <trkpt lat="47.02657" lon="8.99426">
        <ele>857</ele>
        <time>2021-08-02T10:01:36.311Z</time>
      </trkpt>
      <trkpt lat="47.02657" lon="8.99426">
        <ele>857</ele>
        <time>2021-08-02T10:01:37.311Z</time>
      </trkpt>
      <trkpt lat="47.02656" lon="8.99427">
        <ele>856</ele>
        <time>2021-08-02T10:01:38.311Z</time>
      </trkpt>
      <trkpt lat="47.02655" lon="8.99428">
        <ele>856</ele>
        <time>2021-08-02T10:01:39.311Z</time>
      </trkpt>
      <trkpt lat="47.02656" lon="8.99424">
        <ele>856</ele>
        <time>2021-08-02T10:01:40.312Z</time>
      </trkpt>
      <trkpt lat="47.02657" lon="8.99423">
        <ele>856</ele>
        <time>2021-08-02T10:01:41.311Z</time>
      </trkpt>
      <trkpt lat="47.02657" lon="8.99421">
        <ele>856</ele>
        <time>2021-08-02T10:01:42.311Z</time>
      </trkpt>
      <trkpt lat="47.02657" lon="8.99419">
        <ele>855</ele>
        <time>2021-08-02T10:01:43.311Z</time>
      </trkpt>
      <trkpt lat="47.02658" lon="8.99417">
        <ele>855</ele>
        <time>2021-08-02T10:01:44.311Z</time>
      </trkpt>
      <trkpt lat="47.02658" lon="8.99416">
        <ele>854</ele>
        <time>2021-08-02T10:01:45.312Z</time>
      </trkpt>
      <trkpt lat="47.02658" lon="8.99414">
        <ele>853</ele>
        <time>2021-08-02T10:01:46.311Z</time>
      </trkpt>
      <trkpt lat="47.02659" lon="8.99412">
        <ele>853</ele>
        <time>2021-08-02T10:01:47.312Z</time>
      </trkpt>
      <trkpt lat="47.02659" lon="8.99411">
        <ele>853</ele>
        <time>2021-08-02T10:01:48.312Z</time>
      </trkpt>
      <trkpt lat="47.0266" lon="8.99409">
        <ele>853</ele>
        <time>2021-08-02T10:01:49.311Z</time>
      </trkpt>
      <trkpt lat="47.0266" lon="8.99407">
        <ele>852</ele>
        <time>2021-08-02T10:01:50.311Z</time>
      </trkpt>
      <trkpt lat="47.0266" lon="8.99406">
        <ele>852</ele>
        <time>2021-08-02T10:01:51.311Z</time>
      </trkpt>
      <trkpt lat="47.02661" lon="8.99404">
        <ele>851</ele>
        <time>2021-08-02T10:01:52.311Z</time>
      </trkpt>
      <trkpt lat="47.02661" lon="8.99403">
        <ele>851</ele>
        <time>2021-08-02T10:01:53.311Z</time>
      </trkpt>
      <trkpt lat="47.02661" lon="8.99401">
        <ele>851</ele>
        <time>2021-08-02T10:01:54.311Z</time>
      </trkpt>
      <trkpt lat="47.02662" lon="8.994">
        <ele>851</ele>
        <time>2021-08-02T10:01:55.311Z</time>
      </trkpt>
      <trkpt lat="47.02662" lon="8.99398">
        <ele>851</ele>
        <time>2021-08-02T10:01:56.311Z</time>
      </trkpt>
      <trkpt lat="47.02663" lon="8.99396">
        <ele>851</ele>
        <time>2021-08-02T10:01:57.311Z</time>
      </trkpt>
      <trkpt lat="47.02663" lon="8.99395">
        <ele>851</ele>
        <time>2021-08-02T10:01:58.312Z</time>
      </trkpt>
      <trkpt lat="47.02663" lon="8.99393">
        <ele>852</ele>
        <time>2021-08-02T10:01:59.311Z</time>
      </trkpt>
      <trkpt lat="47.02664" lon="8.99391">
        <ele>852</ele>
        <time>2021-08-02T10:02:00.311Z</time>
      </trkpt>
      <trkpt lat="47.02664" lon="8.99389">
        <ele>852</ele>
        <time>2021-08-02T10:02:01.311Z</time>
      </trkpt>
      <trkpt lat="47.02664" lon="8.99388">
        <ele>853</ele>
        <time>2021-08-02T10:02:02.312Z</time>
      </trkpt>
      <trkpt lat="47.02665" lon="8.99386">
        <ele>853</ele>
        <time>2021-08-02T10:02:03.311Z</time>
      </trkpt>
      <trkpt lat="47.02665" lon="8.99384">
        <ele>853</ele>
        <time>2021-08-02T10:02:04.312Z</time>
      </trkpt>
      <trkpt lat="47.02666" lon="8.99382">
        <ele>852</ele>
        <time>2021-08-02T10:02:05.311Z</time>
      </trkpt>
      <trkpt lat="47.02666" lon="8.99381">
        <ele>852</ele>
        <time>2021-08-02T10:02:06.311Z</time>
      </trkpt>
      <trkpt lat="47.02666" lon="8.99379">
        <ele>853</ele>
        <time>2021-08-02T10:02:07.311Z</time>
      </trkpt>
      <trkpt lat="47.02667" lon="8.99377">
        <ele>853</ele>
        <time>2021-08-02T10:02:08.311Z</time>
      </trkpt>
      <trkpt lat="47.02667" lon="8.99375">
        <ele>852</ele>
        <time>2021-08-02T10:02:09.312Z</time>
      </trkpt>
      <trkpt lat="47.02667" lon="8.99374">
        <ele>852</ele>
        <time>2021-08-02T10:02:10.311Z</time>
      </trkpt>
      <trkpt lat="47.02668" lon="8.99372">
        <ele>852</ele>
        <time>2021-08-02T10:02:11.311Z</time>
      </trkpt>
      <trkpt lat="47.02668" lon="8.99371">
        <ele>851</ele>
        <time>2021-08-02T10:02:12.311Z</time>
      </trkpt>
      <trkpt lat="47.02668" lon="8.9937">
        <ele>850</ele>
        <time>2021-08-02T10:02:13.311Z</time>
      </trkpt>
      <trkpt lat="47.02668" lon="8.99368">
        <ele>850</ele>
        <time>2021-08-02T10:02:14.311Z</time>
      </trkpt>
      <trkpt lat="47.02668" lon="8.99367">
        <ele>849</ele>
        <time>2021-08-02T10:02:15.311Z</time>
      </trkpt>
      <trkpt lat="47.02668" lon="8.99365">
        <ele>849</ele>
        <time>2021-08-02T10:02:16.312Z</time>
      </trkpt>
      <trkpt lat="47.02668" lon="8.99363">
        <ele>849</ele>
        <time>2021-08-02T10:02:17.311Z</time>
      </trkpt>
      <trkpt lat="47.02669" lon="8.99361">
        <ele>849</ele>
        <time>2021-08-02T10:02:18.311Z</time>
      </trkpt>
      <trkpt lat="47.02669" lon="8.99359">
        <ele>849</ele>
        <time>2021-08-02T10:02:19.311Z</time>
      </trkpt>
      <trkpt lat="47.02669" lon="8.99357">
        <ele>849</ele>
        <time>2021-08-02T10:02:20.311Z</time>
      </trkpt>
      <trkpt lat="47.02669" lon="8.99356">
        <ele>849</ele>
        <time>2021-08-02T10:02:21.311Z</time>
      </trkpt>
      <trkpt lat="47.0267" lon="8.99354">
        <ele>849</ele>
        <time>2021-08-02T10:02:22.311Z</time>
      </trkpt>
      <trkpt lat="47.0267" lon="8.99352">
        <ele>849</ele>
        <time>2021-08-02T10:02:23.311Z</time>
      </trkpt>
      <trkpt lat="47.0267" lon="8.99351">
        <ele>849</ele>
        <time>2021-08-02T10:02:24.311Z</time>
      </trkpt>
      <trkpt lat="47.02671" lon="8.99349">
        <ele>849</ele>
        <time>2021-08-02T10:02:25.311Z</time>
      </trkpt>
      <trkpt lat="47.02671" lon="8.99347">
        <ele>849</ele>
        <time>2021-08-02T10:02:26.312Z</time>
      </trkpt>
      <trkpt lat="47.02672" lon="8.99345">
        <ele>849</ele>
        <time>2021-08-02T10:02:27.312Z</time>
      </trkpt>
      <trkpt lat="47.02672" lon="8.99343">
        <ele>849</ele>
        <time>2021-08-02T10:02:28.311Z</time>
      </trkpt>
      <trkpt lat="47.02673" lon="8.99341">
        <ele>848</ele>
        <time>2021-08-02T10:02:29.311Z</time>
      </trkpt>
      <trkpt lat="47.02673" lon="8.99338">
        <ele>848</ele>
        <time>2021-08-02T10:02:30.311Z</time>
      </trkpt>
      <trkpt lat="47.02674" lon="8.99336">
        <ele>847</ele>
        <time>2021-08-02T10:02:31.311Z</time>
      </trkpt>
      <trkpt lat="47.02674" lon="8.99334">
        <ele>847</ele>
        <time>2021-08-02T10:02:32.311Z</time>
      </trkpt>
      <trkpt lat="47.02674" lon="8.99332">
        <ele>847</ele>
        <time>2021-08-02T10:02:33.311Z</time>
      </trkpt>
      <trkpt lat="47.02673" lon="8.9933">
        <ele>846</ele>
        <time>2021-08-02T10:02:34.311Z</time>
      </trkpt>
      <trkpt lat="47.02673" lon="8.99328">
        <ele>846</ele>
        <time>2021-08-02T10:02:35.311Z</time>
      </trkpt>
      <trkpt lat="47.02673" lon="8.99326">
        <ele>846</ele>
        <time>2021-08-02T10:02:37.403Z</time>
      </trkpt>
      <trkpt lat="47.02673" lon="8.99325">
        <ele>846</ele>
        <time>2021-08-02T10:02:41.158Z</time>
      </trkpt>
      <trkpt lat="47.02673" lon="8.99323">
        <ele>847</ele>
        <time>2021-08-02T10:02:42.157Z</time>
      </trkpt>
      <trkpt lat="47.02673" lon="8.99321">
        <ele>847</ele>
        <time>2021-08-02T10:02:43.158Z</time>
      </trkpt>
      <trkpt lat="47.02673" lon="8.99319">
        <ele>846</ele>
        <time>2021-08-02T10:03:09.922Z</time>
      </trkpt>
      <trkpt lat="47.02673" lon="8.99318">
        <ele>846</ele>
        <time>2021-08-02T10:03:10.922Z</time>
      </trkpt>
      <trkpt lat="47.02672" lon="8.99316">
        <ele>846</ele>
        <time>2021-08-02T10:03:11.922Z</time>
      </trkpt>
      <trkpt lat="47.02672" lon="8.99314">
        <ele>846</ele>
        <time>2021-08-02T10:03:12.923Z</time>
      </trkpt>
      <trkpt lat="47.02672" lon="8.99312">
        <ele>846</ele>
        <time>2021-08-02T10:03:13.922Z</time>
      </trkpt>
      <trkpt lat="47.02671" lon="8.9931">
        <ele>847</ele>
        <time>2021-08-02T10:03:14.922Z</time>
      </trkpt>
      <trkpt lat="47.02671" lon="8.99309">
        <ele>847</ele>
        <time>2021-08-02T10:03:15.922Z</time>
      </trkpt>
      <trkpt lat="47.02671" lon="8.99307">
        <ele>847</ele>
        <time>2021-08-02T10:03:16.922Z</time>
      </trkpt>
      <trkpt lat="47.02671" lon="8.99305">
        <ele>847</ele>
        <time>2021-08-02T10:03:17.923Z</time>
      </trkpt>
      <trkpt lat="47.02672" lon="8.99303">
        <ele>847</ele>
        <time>2021-08-02T10:03:21.925Z</time>
      </trkpt>
      <trkpt lat="47.02672" lon="8.99301">
        <ele>847</ele>
        <time>2021-08-02T10:03:22.925Z</time>
      </trkpt>
      <trkpt lat="47.02672" lon="8.99299">
        <ele>847</ele>
        <time>2021-08-02T10:03:23.925Z</time>
      </trkpt>
      <trkpt lat="47.02672" lon="8.99297">
        <ele>847</ele>
        <time>2021-08-02T10:03:24.925Z</time>
      </trkpt>
      <trkpt lat="47.02672" lon="8.99295">
        <ele>847</ele>
        <time>2021-08-02T10:03:25.925Z</time>
      </trkpt>
      <trkpt lat="47.02672" lon="8.99294">
        <ele>847</ele>
        <time>2021-08-02T10:03:26.925Z</time>
      </trkpt>
      <trkpt lat="47.02671" lon="8.99292">
        <ele>847</ele>
        <time>2021-08-02T10:03:27.925Z</time>
      </trkpt>
      <trkpt lat="47.02672" lon="8.9929">
        <ele>847</ele>
        <time>2021-08-02T10:03:28.925Z</time>
      </trkpt>
      <trkpt lat="47.02672" lon="8.99288">
        <ele>848</ele>
        <time>2021-08-02T10:03:29.925Z</time>
      </trkpt>
      <trkpt lat="47.02672" lon="8.99286">
        <ele>848</ele>
        <time>2021-08-02T10:03:30.925Z</time>
      </trkpt>
      <trkpt lat="47.02673" lon="8.99284">
        <ele>848</ele>
        <time>2021-08-02T10:03:31.925Z</time>
      </trkpt>
      <trkpt lat="47.02673" lon="8.99282">
        <ele>848</ele>
        <time>2021-08-02T10:03:32.925Z</time>
      </trkpt>
      <trkpt lat="47.02673" lon="8.9928">
        <ele>848</ele>
        <time>2021-08-02T10:03:33.925Z</time>
      </trkpt>
      <trkpt lat="47.02672" lon="8.99279">
        <ele>848</ele>
        <time>2021-08-02T10:03:34.925Z</time>
      </trkpt>
      <trkpt lat="47.02672" lon="8.99277">
        <ele>848</ele>
        <time>2021-08-02T10:03:35.925Z</time>
      </trkpt>
      <trkpt lat="47.02672" lon="8.99276">
        <ele>848</ele>
        <time>2021-08-02T10:03:36.925Z</time>
      </trkpt>
      <trkpt lat="47.02672" lon="8.99274">
        <ele>848</ele>
        <time>2021-08-02T10:03:37.925Z</time>
      </trkpt>
      <trkpt lat="47.02672" lon="8.99272">
        <ele>848</ele>
        <time>2021-08-02T10:03:38.925Z</time>
      </trkpt>
      <trkpt lat="47.02673" lon="8.99271">
        <ele>848</ele>
        <time>2021-08-02T10:03:39.925Z</time>
      </trkpt>
      <trkpt lat="47.02673" lon="8.99268">
        <ele>848</ele>
        <time>2021-08-02T10:03:40.925Z</time>
      </trkpt>
      <trkpt lat="47.02674" lon="8.99267">
        <ele>849</ele>
        <time>2021-08-02T10:03:41.925Z</time>
      </trkpt>
      <trkpt lat="47.02674" lon="8.99265">
        <ele>849</ele>
        <time>2021-08-02T10:03:42.925Z</time>
      </trkpt>
      <trkpt lat="47.02675" lon="8.99263">
        <ele>849</ele>
        <time>2021-08-02T10:03:43.925Z</time>
      </trkpt>
      <trkpt lat="47.02675" lon="8.99262">
        <ele>849</ele>
        <time>2021-08-02T10:03:44.925Z</time>
      </trkpt>
      <trkpt lat="47.02676" lon="8.9926">
        <ele>849</ele>
        <time>2021-08-02T10:03:45.925Z</time>
      </trkpt>
      <trkpt lat="47.02676" lon="8.99258">
        <ele>849</ele>
        <time>2021-08-02T10:03:46.925Z</time>
      </trkpt>
      <trkpt lat="47.02677" lon="8.99257">
        <ele>849</ele>
        <time>2021-08-02T10:03:47.925Z</time>
      </trkpt>
      <trkpt lat="47.02677" lon="8.99255">
        <ele>849</ele>
        <time>2021-08-02T10:03:48.925Z</time>
      </trkpt>
      <trkpt lat="47.02678" lon="8.99254">
        <ele>848</ele>
        <time>2021-08-02T10:03:49.925Z</time>
      </trkpt>
      <trkpt lat="47.02679" lon="8.99253">
        <ele>849</ele>
        <time>2021-08-02T10:03:50.925Z</time>
      </trkpt>
      <trkpt lat="47.0268" lon="8.99252">
        <ele>849</ele>
        <time>2021-08-02T10:03:51.925Z</time>
      </trkpt>
      <trkpt lat="47.0268" lon="8.99251">
        <ele>849</ele>
        <time>2021-08-02T10:03:52.925Z</time>
      </trkpt>
      <trkpt lat="47.0268" lon="8.9925">
        <ele>850</ele>
        <time>2021-08-02T10:03:53.925Z</time>
      </trkpt>
      <trkpt lat="47.0268" lon="8.99249">
        <ele>850</ele>
        <time>2021-08-02T10:03:54.925Z</time>
      </trkpt>
      <trkpt lat="47.0268" lon="8.99248">
        <ele>851</ele>
        <time>2021-08-02T10:03:55.925Z</time>
      </trkpt>
      <trkpt lat="47.0268" lon="8.99248">
        <ele>852</ele>
        <time>2021-08-02T10:03:56.925Z</time>
      </trkpt>
      <trkpt lat="47.02682" lon="8.99248">
        <ele>854</ele>
        <time>2021-08-02T10:04:02.044Z</time>
      </trkpt>
      <trkpt lat="47.02683" lon="8.99247">
        <ele>853</ele>
        <time>2021-08-02T10:04:03.045Z</time>
      </trkpt>
      <trkpt lat="47.02684" lon="8.99246">
        <ele>853</ele>
        <time>2021-08-02T10:04:10.809Z</time>
      </trkpt>
      <trkpt lat="47.02685" lon="8.99244">
        <ele>852</ele>
        <time>2021-08-02T10:04:11.809Z</time>
      </trkpt>
      <trkpt lat="47.02686" lon="8.99243">
        <ele>852</ele>
        <time>2021-08-02T10:04:12.809Z</time>
      </trkpt>
      <trkpt lat="47.02686" lon="8.99242">
        <ele>852</ele>
        <time>2021-08-02T10:04:13.809Z</time>
      </trkpt>
      <trkpt lat="47.02687" lon="8.9924">
        <ele>852</ele>
        <time>2021-08-02T10:04:14.809Z</time>
      </trkpt>
      <trkpt lat="47.02688" lon="8.99239">
        <ele>851</ele>
        <time>2021-08-02T10:04:15.809Z</time>
      </trkpt>
      <trkpt lat="47.02688" lon="8.99237">
        <ele>851</ele>
        <time>2021-08-02T10:04:16.809Z</time>
      </trkpt>
      <trkpt lat="47.02689" lon="8.99236">
        <ele>851</ele>
        <time>2021-08-02T10:04:17.809Z</time>
      </trkpt>
      <trkpt lat="47.02689" lon="8.99234">
        <ele>850</ele>
        <time>2021-08-02T10:04:18.810Z</time>
      </trkpt>
      <trkpt lat="47.0269" lon="8.99233">
        <ele>850</ele>
        <time>2021-08-02T10:04:19.809Z</time>
      </trkpt>
      <trkpt lat="47.0269" lon="8.99231">
        <ele>850</ele>
        <time>2021-08-02T10:04:20.809Z</time>
      </trkpt>
      <trkpt lat="47.02691" lon="8.99229">
        <ele>849</ele>
        <time>2021-08-02T10:04:21.810Z</time>
      </trkpt>
      <trkpt lat="47.02692" lon="8.99227">
        <ele>849</ele>
        <time>2021-08-02T10:04:22.809Z</time>
      </trkpt>
      <trkpt lat="47.02693" lon="8.99226">
        <ele>849</ele>
        <time>2021-08-02T10:04:23.809Z</time>
      </trkpt>
      <trkpt lat="47.02694" lon="8.99224">
        <ele>848</ele>
        <time>2021-08-02T10:04:24.809Z</time>
      </trkpt>
      <trkpt lat="47.02694" lon="8.99222">
        <ele>848</ele>
        <time>2021-08-02T10:04:25.810Z</time>
      </trkpt>
      <trkpt lat="47.02695" lon="8.9922">
        <ele>847</ele>
        <time>2021-08-02T10:04:26.809Z</time>
      </trkpt>
      <trkpt lat="47.02696" lon="8.99218">
        <ele>846</ele>
        <time>2021-08-02T10:04:27.809Z</time>
      </trkpt>
      <trkpt lat="47.02696" lon="8.99216">
        <ele>846</ele>
        <time>2021-08-02T10:04:28.810Z</time>
      </trkpt>
      <trkpt lat="47.02696" lon="8.99214">
        <ele>846</ele>
        <time>2021-08-02T10:04:29.809Z</time>
      </trkpt>
      <trkpt lat="47.02696" lon="8.99213">
        <ele>847</ele>
        <time>2021-08-02T10:04:30.810Z</time>
      </trkpt>
      <trkpt lat="47.02697" lon="8.99211">
        <ele>847</ele>
        <time>2021-08-02T10:04:31.809Z</time>
      </trkpt>
      <trkpt lat="47.02697" lon="8.9921">
        <ele>848</ele>
        <time>2021-08-02T10:04:32.809Z</time>
      </trkpt>
      <trkpt lat="47.02698" lon="8.99209">
        <ele>848</ele>
        <time>2021-08-02T10:04:33.810Z</time>
      </trkpt>
      <trkpt lat="47.02699" lon="8.99207">
        <ele>849</ele>
        <time>2021-08-02T10:04:34.810Z</time>
      </trkpt>
      <trkpt lat="47.02699" lon="8.99206">
        <ele>849</ele>
        <time>2021-08-02T10:04:35.809Z</time>
      </trkpt>
      <trkpt lat="47.027" lon="8.99204">
        <ele>849</ele>
        <time>2021-08-02T10:04:36.810Z</time>
      </trkpt>
      <trkpt lat="47.027" lon="8.99203">
        <ele>848</ele>
        <time>2021-08-02T10:04:37.809Z</time>
      </trkpt>
      <trkpt lat="47.02701" lon="8.99201">
        <ele>848</ele>
        <time>2021-08-02T10:04:38.809Z</time>
      </trkpt>
      <trkpt lat="47.02701" lon="8.992">
        <ele>848</ele>
        <time>2021-08-02T10:04:39.809Z</time>
      </trkpt>
      <trkpt lat="47.02701" lon="8.99199">
        <ele>848</ele>
        <time>2021-08-02T10:04:40.809Z</time>
      </trkpt>
      <trkpt lat="47.02702" lon="8.99197">
        <ele>848</ele>
        <time>2021-08-02T10:04:41.809Z</time>
      </trkpt>
      <trkpt lat="47.02702" lon="8.99195">
        <ele>848</ele>
        <time>2021-08-02T10:04:42.809Z</time>
      </trkpt>
      <trkpt lat="47.02703" lon="8.99194">
        <ele>848</ele>
        <time>2021-08-02T10:04:43.809Z</time>
      </trkpt>
      <trkpt lat="47.02703" lon="8.99192">
        <ele>848</ele>
        <time>2021-08-02T10:04:44.809Z</time>
      </trkpt>
      <trkpt lat="47.02704" lon="8.9919">
        <ele>849</ele>
        <time>2021-08-02T10:04:45.809Z</time>
      </trkpt>
      <trkpt lat="47.02704" lon="8.99189">
        <ele>849</ele>
        <time>2021-08-02T10:04:46.810Z</time>
      </trkpt>
      <trkpt lat="47.02705" lon="8.99187">
        <ele>849</ele>
        <time>2021-08-02T10:04:47.809Z</time>
      </trkpt>
      <trkpt lat="47.02705" lon="8.99185">
        <ele>848</ele>
        <time>2021-08-02T10:04:48.809Z</time>
      </trkpt>
      <trkpt lat="47.02705" lon="8.99183">
        <ele>848</ele>
        <time>2021-08-02T10:04:49.809Z</time>
      </trkpt>
      <trkpt lat="47.02705" lon="8.99182">
        <ele>848</ele>
        <time>2021-08-02T10:04:50.810Z</time>
      </trkpt>
      <trkpt lat="47.02706" lon="8.9918">
        <ele>848</ele>
        <time>2021-08-02T10:04:51.809Z</time>
      </trkpt>
      <trkpt lat="47.02706" lon="8.99178">
        <ele>847</ele>
        <time>2021-08-02T10:04:52.809Z</time>
      </trkpt>
      <trkpt lat="47.02706" lon="8.99176">
        <ele>847</ele>
        <time>2021-08-02T10:04:53.809Z</time>
      </trkpt>
      <trkpt lat="47.02707" lon="8.99174">
        <ele>847</ele>
        <time>2021-08-02T10:04:54.809Z</time>
      </trkpt>
      <trkpt lat="47.02708" lon="8.99172">
        <ele>847</ele>
        <time>2021-08-02T10:04:55.809Z</time>
      </trkpt>
      <trkpt lat="47.02709" lon="8.9917">
        <ele>847</ele>
        <time>2021-08-02T10:04:56.810Z</time>
      </trkpt>
      <trkpt lat="47.02709" lon="8.99167">
        <ele>847</ele>
        <time>2021-08-02T10:04:57.809Z</time>
      </trkpt>
      <trkpt lat="47.02709" lon="8.99165">
        <ele>847</ele>
        <time>2021-08-02T10:04:58.809Z</time>
      </trkpt>
      <trkpt lat="47.0271" lon="8.99163">
        <ele>847</ele>
        <time>2021-08-02T10:04:59.809Z</time>
      </trkpt>
      <trkpt lat="47.0271" lon="8.99161">
        <ele>847</ele>
        <time>2021-08-02T10:05:00.809Z</time>
      </trkpt>
      <trkpt lat="47.0271" lon="8.99159">
        <ele>847</ele>
        <time>2021-08-02T10:05:01.810Z</time>
      </trkpt>
      <trkpt lat="47.0271" lon="8.99157">
        <ele>848</ele>
        <time>2021-08-02T10:05:02.809Z</time>
      </trkpt>
      <trkpt lat="47.02711" lon="8.99156">
        <ele>848</ele>
        <time>2021-08-02T10:05:03.809Z</time>
      </trkpt>
      <trkpt lat="47.02711" lon="8.99154">
        <ele>849</ele>
        <time>2021-08-02T10:05:04.809Z</time>
      </trkpt>
      <trkpt lat="47.0271" lon="8.99152">
        <ele>850</ele>
        <time>2021-08-02T10:05:05.810Z</time>
      </trkpt>
      <trkpt lat="47.0271" lon="8.9915">
        <ele>850</ele>
        <time>2021-08-02T10:05:06.810Z</time>
      </trkpt>
      <trkpt lat="47.0271" lon="8.99148">
        <ele>850</ele>
        <time>2021-08-02T10:05:07.809Z</time>
      </trkpt>
      <trkpt lat="47.0271" lon="8.99147">
        <ele>850</ele>
        <time>2021-08-02T10:05:08.809Z</time>
      </trkpt>
      <trkpt lat="47.0271" lon="8.99145">
        <ele>850</ele>
        <time>2021-08-02T10:05:09.809Z</time>
      </trkpt>
      <trkpt lat="47.0271" lon="8.99143">
        <ele>849</ele>
        <time>2021-08-02T10:05:10.809Z</time>
      </trkpt>
      <trkpt lat="47.0271" lon="8.99142">
        <ele>849</ele>
        <time>2021-08-02T10:05:11.809Z</time>
      </trkpt>
      <trkpt lat="47.0271" lon="8.9914">
        <ele>848</ele>
        <time>2021-08-02T10:05:12.809Z</time>
      </trkpt>
      <trkpt lat="47.0271" lon="8.99138">
        <ele>848</ele>
        <time>2021-08-02T10:05:13.809Z</time>
      </trkpt>
      <trkpt lat="47.0271" lon="8.99136">
        <ele>848</ele>
        <time>2021-08-02T10:05:14.809Z</time>
      </trkpt>
      <trkpt lat="47.0271" lon="8.99135">
        <ele>849</ele>
        <time>2021-08-02T10:05:15.809Z</time>
      </trkpt>
      <trkpt lat="47.0271" lon="8.99133">
        <ele>849</ele>
        <time>2021-08-02T10:05:16.809Z</time>
      </trkpt>
      <trkpt lat="47.0271" lon="8.99131">
        <ele>850</ele>
        <time>2021-08-02T10:05:17.809Z</time>
      </trkpt>
      <trkpt lat="47.0271" lon="8.99129">
        <ele>850</ele>
        <time>2021-08-02T10:05:18.809Z</time>
      </trkpt>
      <trkpt lat="47.0271" lon="8.99127">
        <ele>851</ele>
        <time>2021-08-02T10:05:19.809Z</time>
      </trkpt>
      <trkpt lat="47.0271" lon="8.99126">
        <ele>852</ele>
        <time>2021-08-02T10:05:20.809Z</time>
      </trkpt>
      <trkpt lat="47.0271" lon="8.99124">
        <ele>852</ele>
        <time>2021-08-02T10:05:21.809Z</time>
      </trkpt>
      <trkpt lat="47.0271" lon="8.99123">
        <ele>853</ele>
        <time>2021-08-02T10:05:22.810Z</time>
      </trkpt>
      <trkpt lat="47.0271" lon="8.99121">
        <ele>854</ele>
        <time>2021-08-02T10:05:23.809Z</time>
      </trkpt>
      <trkpt lat="47.02709" lon="8.99119">
        <ele>855</ele>
        <time>2021-08-02T10:05:24.810Z</time>
      </trkpt>
      <trkpt lat="47.02709" lon="8.99118">
        <ele>856</ele>
        <time>2021-08-02T10:05:25.809Z</time>
      </trkpt>
      <trkpt lat="47.02709" lon="8.99116">
        <ele>856</ele>
        <time>2021-08-02T10:05:26.809Z</time>
      </trkpt>
      <trkpt lat="47.02709" lon="8.99114">
        <ele>857</ele>
        <time>2021-08-02T10:05:27.810Z</time>
      </trkpt>
      <trkpt lat="47.02708" lon="8.99112">
        <ele>858</ele>
        <time>2021-08-02T10:05:28.809Z</time>
      </trkpt>
      <trkpt lat="47.02708" lon="8.9911">
        <ele>858</ele>
        <time>2021-08-02T10:05:29.810Z</time>
      </trkpt>
      <trkpt lat="47.02709" lon="8.99107">
        <ele>857</ele>
        <time>2021-08-02T10:05:30.810Z</time>
      </trkpt>
      <trkpt lat="47.02708" lon="8.99105">
        <ele>857</ele>
        <time>2021-08-02T10:05:31.810Z</time>
      </trkpt>
      <trkpt lat="47.02708" lon="8.99104">
        <ele>857</ele>
        <time>2021-08-02T10:05:32.810Z</time>
      </trkpt>
      <trkpt lat="47.02707" lon="8.99102">
        <ele>857</ele>
        <time>2021-08-02T10:05:33.809Z</time>
      </trkpt>
      <trkpt lat="47.02707" lon="8.991">
        <ele>857</ele>
        <time>2021-08-02T10:05:34.810Z</time>
      </trkpt>
      <trkpt lat="47.02707" lon="8.99097">
        <ele>857</ele>
        <time>2021-08-02T10:05:35.810Z</time>
      </trkpt>
      <trkpt lat="47.02707" lon="8.99096">
        <ele>857</ele>
        <time>2021-08-02T10:05:36.810Z</time>
      </trkpt>
      <trkpt lat="47.02707" lon="8.99094">
        <ele>856</ele>
        <time>2021-08-02T10:05:37.810Z</time>
      </trkpt>
      <trkpt lat="47.02706" lon="8.99092">
        <ele>856</ele>
        <time>2021-08-02T10:05:38.810Z</time>
      </trkpt>
      <trkpt lat="47.02706" lon="8.9909">
        <ele>856</ele>
        <time>2021-08-02T10:05:39.810Z</time>
      </trkpt>
      <trkpt lat="47.02706" lon="8.99088">
        <ele>855</ele>
        <time>2021-08-02T10:05:40.810Z</time>
      </trkpt>
      <trkpt lat="47.02706" lon="8.99086">
        <ele>855</ele>
        <time>2021-08-02T10:05:41.809Z</time>
      </trkpt>
      <trkpt lat="47.02706" lon="8.99085">
        <ele>855</ele>
        <time>2021-08-02T10:05:42.810Z</time>
      </trkpt>
      <trkpt lat="47.02705" lon="8.99083">
        <ele>856</ele>
        <time>2021-08-02T10:05:43.810Z</time>
      </trkpt>
      <trkpt lat="47.02705" lon="8.99081">
        <ele>856</ele>
        <time>2021-08-02T10:05:44.810Z</time>
      </trkpt>
      <trkpt lat="47.02706" lon="8.99079">
        <ele>857</ele>
        <time>2021-08-02T10:05:49.910Z</time>
      </trkpt>
      <trkpt lat="47.02706" lon="8.99078">
        <ele>857</ele>
        <time>2021-08-02T10:05:51.814Z</time>
      </trkpt>
      <trkpt lat="47.02706" lon="8.99077">
        <ele>857</ele>
        <time>2021-08-02T10:05:52.814Z</time>
      </trkpt>
      <trkpt lat="47.02705" lon="8.99075">
        <ele>857</ele>
        <time>2021-08-02T10:06:01.570Z</time>
      </trkpt>
      <trkpt lat="47.02705" lon="8.99073">
        <ele>857</ele>
        <time>2021-08-02T10:06:02.570Z</time>
      </trkpt>
      <trkpt lat="47.02704" lon="8.99072">
        <ele>858</ele>
        <time>2021-08-02T10:06:03.570Z</time>
      </trkpt>
      <trkpt lat="47.02703" lon="8.9907">
        <ele>858</ele>
        <time>2021-08-02T10:06:16.660Z</time>
      </trkpt>
      <trkpt lat="47.02702" lon="8.99067">
        <ele>858</ele>
        <time>2021-08-02T10:06:17.659Z</time>
      </trkpt>
      <trkpt lat="47.02701" lon="8.99066">
        <ele>858</ele>
        <time>2021-08-02T10:06:18.659Z</time>
      </trkpt>
      <trkpt lat="47.02701" lon="8.99064">
        <ele>858</ele>
        <time>2021-08-02T10:06:19.659Z</time>
      </trkpt>
      <trkpt lat="47.02701" lon="8.99063">
        <ele>858</ele>
        <time>2021-08-02T10:06:23.681Z</time>
      </trkpt>
      <trkpt lat="47.027" lon="8.9906">
        <ele>858</ele>
        <time>2021-08-02T10:06:24.681Z</time>
      </trkpt>
      <trkpt lat="47.027" lon="8.99059">
        <ele>858</ele>
        <time>2021-08-02T10:06:25.681Z</time>
      </trkpt>
      <trkpt lat="47.027" lon="8.99057">
        <ele>858</ele>
        <time>2021-08-02T10:06:26.681Z</time>
      </trkpt>
      <trkpt lat="47.027" lon="8.99055">
        <ele>858</ele>
        <time>2021-08-02T10:06:27.681Z</time>
      </trkpt>
      <trkpt lat="47.02699" lon="8.99054">
        <ele>858</ele>
        <time>2021-08-02T10:06:38.795Z</time>
      </trkpt>
      <trkpt lat="47.02699" lon="8.99052">
        <ele>858</ele>
        <time>2021-08-02T10:06:39.795Z</time>
      </trkpt>
      <trkpt lat="47.02699" lon="8.99049">
        <ele>857</ele>
        <time>2021-08-02T10:06:40.796Z</time>
      </trkpt>
      <trkpt lat="47.02699" lon="8.99047">
        <ele>857</ele>
        <time>2021-08-02T10:06:41.795Z</time>
      </trkpt>
      <trkpt lat="47.02699" lon="8.99045">
        <ele>857</ele>
        <time>2021-08-02T10:06:46.942Z</time>
      </trkpt>
      <trkpt lat="47.02698" lon="8.99042">
        <ele>856</ele>
        <time>2021-08-02T10:06:47.941Z</time>
      </trkpt>
      <trkpt lat="47.02698" lon="8.99041">
        <ele>856</ele>
        <time>2021-08-02T10:06:48.942Z</time>
      </trkpt>
      <trkpt lat="47.02697" lon="8.99039">
        <ele>856</ele>
        <time>2021-08-02T10:06:49.941Z</time>
      </trkpt>
      <trkpt lat="47.02697" lon="8.99037">
        <ele>855</ele>
        <time>2021-08-02T10:06:50.942Z</time>
      </trkpt>
      <trkpt lat="47.02697" lon="8.99035">
        <ele>855</ele>
        <time>2021-08-02T10:06:51.941Z</time>
      </trkpt>
      <trkpt lat="47.02696" lon="8.99033">
        <ele>855</ele>
        <time>2021-08-02T10:06:52.941Z</time>
      </trkpt>
      <trkpt lat="47.02696" lon="8.99031">
        <ele>855</ele>
        <time>2021-08-02T10:06:53.941Z</time>
      </trkpt>
      <trkpt lat="47.02695" lon="8.99029">
        <ele>855</ele>
        <time>2021-08-02T10:06:54.941Z</time>
      </trkpt>
      <trkpt lat="47.02695" lon="8.99027">
        <ele>855</ele>
        <time>2021-08-02T10:06:59.075Z</time>
      </trkpt>
      <trkpt lat="47.02694" lon="8.99025">
        <ele>855</ele>
        <time>2021-08-02T10:07:00.075Z</time>
      </trkpt>
      <trkpt lat="47.02694" lon="8.99023">
        <ele>855</ele>
        <time>2021-08-02T10:07:01.075Z</time>
      </trkpt>
      <trkpt lat="47.02693" lon="8.99021">
        <ele>855</ele>
        <time>2021-08-02T10:07:05.212Z</time>
      </trkpt>
      <trkpt lat="47.02693" lon="8.99019">
        <ele>855</ele>
        <time>2021-08-02T10:07:06.212Z</time>
      </trkpt>
      <trkpt lat="47.02692" lon="8.99018">
        <ele>855</ele>
        <time>2021-08-02T10:07:07.212Z</time>
      </trkpt>
      <trkpt lat="47.02692" lon="8.99017">
        <ele>855</ele>
        <time>2021-08-02T10:07:08.213Z</time>
      </trkpt>
      <trkpt lat="47.02691" lon="8.99015">
        <ele>856</ele>
        <time>2021-08-02T10:07:09.212Z</time>
      </trkpt>
      <trkpt lat="47.02691" lon="8.99013">
        <ele>855</ele>
        <time>2021-08-02T10:07:10.212Z</time>
      </trkpt>
      <trkpt lat="47.0269" lon="8.99012">
        <ele>855</ele>
        <time>2021-08-02T10:07:11.213Z</time>
      </trkpt>
      <trkpt lat="47.02689" lon="8.9901">
        <ele>856</ele>
        <time>2021-08-02T10:07:12.212Z</time>
      </trkpt>
      <trkpt lat="47.02689" lon="8.99008">
        <ele>856</ele>
        <time>2021-08-02T10:07:13.212Z</time>
      </trkpt>
      <trkpt lat="47.02688" lon="8.99006">
        <ele>856</ele>
        <time>2021-08-02T10:07:14.212Z</time>
      </trkpt>
      <trkpt lat="47.02688" lon="8.99004">
        <ele>856</ele>
        <time>2021-08-02T10:07:15.212Z</time>
      </trkpt>
      <trkpt lat="47.02688" lon="8.99002">
        <ele>856</ele>
        <time>2021-08-02T10:07:16.212Z</time>
      </trkpt>
      <trkpt lat="47.02688" lon="8.99">
        <ele>856</ele>
        <time>2021-08-02T10:07:17.212Z</time>
      </trkpt>
      <trkpt lat="47.02687" lon="8.98998">
        <ele>856</ele>
        <time>2021-08-02T10:07:18.212Z</time>
      </trkpt>
      <trkpt lat="47.02687" lon="8.98996">
        <ele>855</ele>
        <time>2021-08-02T10:07:19.213Z</time>
      </trkpt>
      <trkpt lat="47.02686" lon="8.98993">
        <ele>855</ele>
        <time>2021-08-02T10:07:20.213Z</time>
      </trkpt>
      <trkpt lat="47.02685" lon="8.98992">
        <ele>855</ele>
        <time>2021-08-02T10:07:21.213Z</time>
      </trkpt>
      <trkpt lat="47.02685" lon="8.98991">
        <ele>855</ele>
        <time>2021-08-02T10:07:22.212Z</time>
      </trkpt>
      <trkpt lat="47.02684" lon="8.98989">
        <ele>855</ele>
        <time>2021-08-02T10:07:23.213Z</time>
      </trkpt>
      <trkpt lat="47.02683" lon="8.98988">
        <ele>855</ele>
        <time>2021-08-02T10:07:24.213Z</time>
      </trkpt>
      <trkpt lat="47.02683" lon="8.98986">
        <ele>855</ele>
        <time>2021-08-02T10:07:25.213Z</time>
      </trkpt>
      <trkpt lat="47.02683" lon="8.98984">
        <ele>855</ele>
        <time>2021-08-02T10:07:26.213Z</time>
      </trkpt>
      <trkpt lat="47.02683" lon="8.98983">
        <ele>854</ele>
        <time>2021-08-02T10:07:27.213Z</time>
      </trkpt>
      <trkpt lat="47.02682" lon="8.98981">
        <ele>854</ele>
        <time>2021-08-02T10:07:28.213Z</time>
      </trkpt>
      <trkpt lat="47.02682" lon="8.98979">
        <ele>854</ele>
        <time>2021-08-02T10:07:29.212Z</time>
      </trkpt>
      <trkpt lat="47.02681" lon="8.98977">
        <ele>853</ele>
        <time>2021-08-02T10:07:30.213Z</time>
      </trkpt>
      <trkpt lat="47.0268" lon="8.98975">
        <ele>853</ele>
        <time>2021-08-02T10:07:31.213Z</time>
      </trkpt>
      <trkpt lat="47.02679" lon="8.98973">
        <ele>854</ele>
        <time>2021-08-02T10:07:32.212Z</time>
      </trkpt>
      <trkpt lat="47.02678" lon="8.98971">
        <ele>854</ele>
        <time>2021-08-02T10:07:33.212Z</time>
      </trkpt>
      <trkpt lat="47.02677" lon="8.9897">
        <ele>854</ele>
        <time>2021-08-02T10:07:34.213Z</time>
      </trkpt>
      <trkpt lat="47.02676" lon="8.98968">
        <ele>855</ele>
        <time>2021-08-02T10:07:35.212Z</time>
      </trkpt>
      <trkpt lat="47.02675" lon="8.98966">
        <ele>855</ele>
        <time>2021-08-02T10:07:36.213Z</time>
      </trkpt>
      <trkpt lat="47.02674" lon="8.98964">
        <ele>854</ele>
        <time>2021-08-02T10:07:37.212Z</time>
      </trkpt>
      <trkpt lat="47.02672" lon="8.98961">
        <ele>854</ele>
        <time>2021-08-02T10:07:38.213Z</time>
      </trkpt>
      <trkpt lat="47.02671" lon="8.9896">
        <ele>854</ele>
        <time>2021-08-02T10:07:39.213Z</time>
      </trkpt>
      <trkpt lat="47.02671" lon="8.98959">
        <ele>855</ele>
        <time>2021-08-02T10:07:40.213Z</time>
      </trkpt>
      <trkpt lat="47.0267" lon="8.98957">
        <ele>854</ele>
        <time>2021-08-02T10:07:41.213Z</time>
      </trkpt>
      <trkpt lat="47.02669" lon="8.98956">
        <ele>854</ele>
        <time>2021-08-02T10:07:42.212Z</time>
      </trkpt>
      <trkpt lat="47.02668" lon="8.98955">
        <ele>854</ele>
        <time>2021-08-02T10:07:43.212Z</time>
      </trkpt>
      <trkpt lat="47.02666" lon="8.98955">
        <ele>853</ele>
        <time>2021-08-02T10:07:44.213Z</time>
      </trkpt>
      <trkpt lat="47.02664" lon="8.98954">
        <ele>853</ele>
        <time>2021-08-02T10:07:45.212Z</time>
      </trkpt>
      <trkpt lat="47.02663" lon="8.98953">
        <ele>853</ele>
        <time>2021-08-02T10:07:46.212Z</time>
      </trkpt>
      <trkpt lat="47.02661" lon="8.98952">
        <ele>853</ele>
        <time>2021-08-02T10:07:47.213Z</time>
      </trkpt>
      <trkpt lat="47.0266" lon="8.98951">
        <ele>853</ele>
        <time>2021-08-02T10:07:48.212Z</time>
      </trkpt>
      <trkpt lat="47.02659" lon="8.9895">
        <ele>853</ele>
        <time>2021-08-02T10:07:49.213Z</time>
      </trkpt>
      <trkpt lat="47.02658" lon="8.98949">
        <ele>853</ele>
        <time>2021-08-02T10:07:50.212Z</time>
      </trkpt>
      <trkpt lat="47.02657" lon="8.98948">
        <ele>853</ele>
        <time>2021-08-02T10:07:51.213Z</time>
      </trkpt>
      <trkpt lat="47.02656" lon="8.98947">
        <ele>853</ele>
        <time>2021-08-02T10:07:52.213Z</time>
      </trkpt>
      <trkpt lat="47.02654" lon="8.98946">
        <ele>854</ele>
        <time>2021-08-02T10:07:53.212Z</time>
      </trkpt>
      <trkpt lat="47.02653" lon="8.98945">
        <ele>854</ele>
        <time>2021-08-02T10:07:54.213Z</time>
      </trkpt>
      <trkpt lat="47.02652" lon="8.98944">
        <ele>854</ele>
        <time>2021-08-02T10:07:55.213Z</time>
      </trkpt>
      <trkpt lat="47.0265" lon="8.98943">
        <ele>854</ele>
        <time>2021-08-02T10:07:56.213Z</time>
      </trkpt>
      <trkpt lat="47.02649" lon="8.98943">
        <ele>854</ele>
        <time>2021-08-02T10:07:57.213Z</time>
      </trkpt>
      <trkpt lat="47.02648" lon="8.98943">
        <ele>854</ele>
        <time>2021-08-02T10:07:58.212Z</time>
      </trkpt>
      <trkpt lat="47.02647" lon="8.98942">
        <ele>854</ele>
        <time>2021-08-02T10:07:59.213Z</time>
      </trkpt>
      <trkpt lat="47.02646" lon="8.98942">
        <ele>854</ele>
        <time>2021-08-02T10:08:00.213Z</time>
      </trkpt>
      <trkpt lat="47.02645" lon="8.98941">
        <ele>854</ele>
        <time>2021-08-02T10:08:01.213Z</time>
      </trkpt>
      <trkpt lat="47.02645" lon="8.9894">
        <ele>854</ele>
        <time>2021-08-02T10:08:02.213Z</time>
      </trkpt>
      <trkpt lat="47.02644" lon="8.98939">
        <ele>854</ele>
        <time>2021-08-02T10:08:03.213Z</time>
      </trkpt>
      <trkpt lat="47.02643" lon="8.98938">
        <ele>854</ele>
        <time>2021-08-02T10:08:04.212Z</time>
      </trkpt>
      <trkpt lat="47.02642" lon="8.98937">
        <ele>855</ele>
        <time>2021-08-02T10:08:05.212Z</time>
      </trkpt>
      <trkpt lat="47.02641" lon="8.98936">
        <ele>855</ele>
        <time>2021-08-02T10:08:06.213Z</time>
      </trkpt>
      <trkpt lat="47.0264" lon="8.98936">
        <ele>856</ele>
        <time>2021-08-02T10:08:07.213Z</time>
      </trkpt>
      <trkpt lat="47.02637" lon="8.98933">
        <ele>856</ele>
        <time>2021-08-02T10:08:08.213Z</time>
      </trkpt>
      <trkpt lat="47.02635" lon="8.98931">
        <ele>857</ele>
        <time>2021-08-02T10:08:09.212Z</time>
      </trkpt>
      <trkpt lat="47.02634" lon="8.9893">
        <ele>857</ele>
        <time>2021-08-02T10:08:10.213Z</time>
      </trkpt>
      <trkpt lat="47.02633" lon="8.98929">
        <ele>857</ele>
        <time>2021-08-02T10:08:11.212Z</time>
      </trkpt>
      <trkpt lat="47.02632" lon="8.98928">
        <ele>857</ele>
        <time>2021-08-02T10:08:12.212Z</time>
      </trkpt>
      <trkpt lat="47.02631" lon="8.98927">
        <ele>857</ele>
        <time>2021-08-02T10:08:13.213Z</time>
      </trkpt>
      <trkpt lat="47.02629" lon="8.98926">
        <ele>857</ele>
        <time>2021-08-02T10:08:14.212Z</time>
      </trkpt>
      <trkpt lat="47.02629" lon="8.98925">
        <ele>857</ele>
        <time>2021-08-02T10:08:15.212Z</time>
      </trkpt>
      <trkpt lat="47.02628" lon="8.98924">
        <ele>858</ele>
        <time>2021-08-02T10:08:16.213Z</time>
      </trkpt>
      <trkpt lat="47.02627" lon="8.98923">
        <ele>858</ele>
        <time>2021-08-02T10:08:17.213Z</time>
      </trkpt>
      <trkpt lat="47.02626" lon="8.98922">
        <ele>858</ele>
        <time>2021-08-02T10:08:18.212Z</time>
      </trkpt>
      <trkpt lat="47.02625" lon="8.9892">
        <ele>858</ele>
        <time>2021-08-02T10:08:19.213Z</time>
      </trkpt>
      <trkpt lat="47.02624" lon="8.98919">
        <ele>858</ele>
        <time>2021-08-02T10:08:20.213Z</time>
      </trkpt>
      <trkpt lat="47.02623" lon="8.98917">
        <ele>859</ele>
        <time>2021-08-02T10:08:21.213Z</time>
      </trkpt>
      <trkpt lat="47.02622" lon="8.98916">
        <ele>858</ele>
        <time>2021-08-02T10:08:22.213Z</time>
      </trkpt>
      <trkpt lat="47.02621" lon="8.98916">
        <ele>859</ele>
        <time>2021-08-02T10:08:23.213Z</time>
      </trkpt>
      <trkpt lat="47.0262" lon="8.98915">
        <ele>859</ele>
        <time>2021-08-02T10:08:24.213Z</time>
      </trkpt>
      <trkpt lat="47.02619" lon="8.98913">
        <ele>858</ele>
        <time>2021-08-02T10:08:25.213Z</time>
      </trkpt>
      <trkpt lat="47.02618" lon="8.98911">
        <ele>858</ele>
        <time>2021-08-02T10:08:26.213Z</time>
      </trkpt>
      <trkpt lat="47.02617" lon="8.9891">
        <ele>857</ele>
        <time>2021-08-02T10:08:27.213Z</time>
      </trkpt>
      <trkpt lat="47.02616" lon="8.98909">
        <ele>857</ele>
        <time>2021-08-02T10:08:28.213Z</time>
      </trkpt>
      <trkpt lat="47.02615" lon="8.98908">
        <ele>856</ele>
        <time>2021-08-02T10:08:29.212Z</time>
      </trkpt>
      <trkpt lat="47.02614" lon="8.98908">
        <ele>856</ele>
        <time>2021-08-02T10:08:30.213Z</time>
      </trkpt>
      <trkpt lat="47.02613" lon="8.98907">
        <ele>855</ele>
        <time>2021-08-02T10:08:31.213Z</time>
      </trkpt>
      <trkpt lat="47.02612" lon="8.98906">
        <ele>855</ele>
        <time>2021-08-02T10:08:32.213Z</time>
      </trkpt>
      <trkpt lat="47.02611" lon="8.98905">
        <ele>854</ele>
        <time>2021-08-02T10:08:33.213Z</time>
      </trkpt>
      <trkpt lat="47.0261" lon="8.98903">
        <ele>854</ele>
        <time>2021-08-02T10:08:34.213Z</time>
      </trkpt>
      <trkpt lat="47.02609" lon="8.98903">
        <ele>854</ele>
        <time>2021-08-02T10:08:35.213Z</time>
      </trkpt>
      <trkpt lat="47.02607" lon="8.98902">
        <ele>853</ele>
        <time>2021-08-02T10:08:36.213Z</time>
      </trkpt>
      <trkpt lat="47.02606" lon="8.98901">
        <ele>853</ele>
        <time>2021-08-02T10:08:37.213Z</time>
      </trkpt>
      <trkpt lat="47.02606" lon="8.989">
        <ele>852</ele>
        <time>2021-08-02T10:08:38.213Z</time>
      </trkpt>
      <trkpt lat="47.02605" lon="8.98899">
        <ele>853</ele>
        <time>2021-08-02T10:08:39.213Z</time>
      </trkpt>
      <trkpt lat="47.02604" lon="8.98898">
        <ele>853</ele>
        <time>2021-08-02T10:08:40.213Z</time>
      </trkpt>
      <trkpt lat="47.02603" lon="8.98897">
        <ele>854</ele>
        <time>2021-08-02T10:08:41.213Z</time>
      </trkpt>
      <trkpt lat="47.02602" lon="8.98896">
        <ele>854</ele>
        <time>2021-08-02T10:08:42.213Z</time>
      </trkpt>
      <trkpt lat="47.02601" lon="8.98895">
        <ele>855</ele>
        <time>2021-08-02T10:08:43.213Z</time>
      </trkpt>
      <trkpt lat="47.026" lon="8.98893">
        <ele>855</ele>
        <time>2021-08-02T10:08:44.213Z</time>
      </trkpt>
      <trkpt lat="47.02601" lon="8.98892">
        <ele>855</ele>
        <time>2021-08-02T10:08:45.212Z</time>
      </trkpt>
      <trkpt lat="47.02601" lon="8.98891">
        <ele>856</ele>
        <time>2021-08-02T10:08:46.213Z</time>
      </trkpt>
      <trkpt lat="47.026" lon="8.98889">
        <ele>856</ele>
        <time>2021-08-02T10:08:47.212Z</time>
      </trkpt>
      <trkpt lat="47.02598" lon="8.98887">
        <ele>856</ele>
        <time>2021-08-02T10:08:48.213Z</time>
      </trkpt>
      <trkpt lat="47.02597" lon="8.98885">
        <ele>857</ele>
        <time>2021-08-02T10:08:49.212Z</time>
      </trkpt>
      <trkpt lat="47.02595" lon="8.98884">
        <ele>857</ele>
        <time>2021-08-02T10:08:50.213Z</time>
      </trkpt>
      <trkpt lat="47.02593" lon="8.98883">
        <ele>858</ele>
        <time>2021-08-02T10:08:51.213Z</time>
      </trkpt>
      <trkpt lat="47.02592" lon="8.98881">
        <ele>858</ele>
        <time>2021-08-02T10:08:52.213Z</time>
      </trkpt>
      <trkpt lat="47.02591" lon="8.9888">
        <ele>857</ele>
        <time>2021-08-02T10:08:53.213Z</time>
      </trkpt>
      <trkpt lat="47.02591" lon="8.98878">
        <ele>857</ele>
        <time>2021-08-02T10:08:54.213Z</time>
      </trkpt>
      <trkpt lat="47.02589" lon="8.98877">
        <ele>857</ele>
        <time>2021-08-02T10:08:55.213Z</time>
      </trkpt>
      <trkpt lat="47.02588" lon="8.98876">
        <ele>857</ele>
        <time>2021-08-02T10:08:56.213Z</time>
      </trkpt>
      <trkpt lat="47.02586" lon="8.98875">
        <ele>857</ele>
        <time>2021-08-02T10:08:57.213Z</time>
      </trkpt>
      <trkpt lat="47.02585" lon="8.98875">
        <ele>857</ele>
        <time>2021-08-02T10:08:58.213Z</time>
      </trkpt>
      <trkpt lat="47.02583" lon="8.98875">
        <ele>857</ele>
        <time>2021-08-02T10:08:59.212Z</time>
      </trkpt>
      <trkpt lat="47.02582" lon="8.98874">
        <ele>857</ele>
        <time>2021-08-02T10:09:00.213Z</time>
      </trkpt>
      <trkpt lat="47.02582" lon="8.98871">
        <ele>857</ele>
        <time>2021-08-02T10:09:01.213Z</time>
      </trkpt>
      <trkpt lat="47.02581" lon="8.9887">
        <ele>857</ele>
        <time>2021-08-02T10:09:02.213Z</time>
      </trkpt>
      <trkpt lat="47.02581" lon="8.98869">
        <ele>857</ele>
        <time>2021-08-02T10:09:03.213Z</time>
      </trkpt>
      <trkpt lat="47.02581" lon="8.98868">
        <ele>857</ele>
        <time>2021-08-02T10:09:04.212Z</time>
      </trkpt>
      <trkpt lat="47.02581" lon="8.98867">
        <ele>857</ele>
        <time>2021-08-02T10:09:05.213Z</time>
      </trkpt>
      <trkpt lat="47.0258" lon="8.98866">
        <ele>857</ele>
        <time>2021-08-02T10:09:06.213Z</time>
      </trkpt>
      <trkpt lat="47.02579" lon="8.98865">
        <ele>858</ele>
        <time>2021-08-02T10:09:07.213Z</time>
      </trkpt>
      <trkpt lat="47.02578" lon="8.98864">
        <ele>858</ele>
        <time>2021-08-02T10:09:08.213Z</time>
      </trkpt>
      <trkpt lat="47.02577" lon="8.98864">
        <ele>858</ele>
        <time>2021-08-02T10:09:09.212Z</time>
      </trkpt>
      <trkpt lat="47.02576" lon="8.98863">
        <ele>859</ele>
        <time>2021-08-02T10:09:10.212Z</time>
      </trkpt>
      <trkpt lat="47.02575" lon="8.98863">
        <ele>859</ele>
        <time>2021-08-02T10:09:11.212Z</time>
      </trkpt>
      <trkpt lat="47.02574" lon="8.98862">
        <ele>860</ele>
        <time>2021-08-02T10:09:12.213Z</time>
      </trkpt>
      <trkpt lat="47.02573" lon="8.98861">
        <ele>860</ele>
        <time>2021-08-02T10:09:13.213Z</time>
      </trkpt>
      <trkpt lat="47.02573" lon="8.9886">
        <ele>861</ele>
        <time>2021-08-02T10:09:14.213Z</time>
      </trkpt>
      <trkpt lat="47.02572" lon="8.98859">
        <ele>861</ele>
        <time>2021-08-02T10:09:15.213Z</time>
      </trkpt>
      <trkpt lat="47.02571" lon="8.98858">
        <ele>861</ele>
        <time>2021-08-02T10:09:16.213Z</time>
      </trkpt>
      <trkpt lat="47.02569" lon="8.98857">
        <ele>861</ele>
        <time>2021-08-02T10:09:17.213Z</time>
      </trkpt>
      <trkpt lat="47.02568" lon="8.98856">
        <ele>861</ele>
        <time>2021-08-02T10:09:18.213Z</time>
      </trkpt>
      <trkpt lat="47.02567" lon="8.98855">
        <ele>861</ele>
        <time>2021-08-02T10:09:19.213Z</time>
      </trkpt>
      <trkpt lat="47.02566" lon="8.98854">
        <ele>861</ele>
        <time>2021-08-02T10:09:20.213Z</time>
      </trkpt>
      <trkpt lat="47.02565" lon="8.98853">
        <ele>861</ele>
        <time>2021-08-02T10:09:21.213Z</time>
      </trkpt>
      <trkpt lat="47.02564" lon="8.98852">
        <ele>861</ele>
        <time>2021-08-02T10:09:22.212Z</time>
      </trkpt>
      <trkpt lat="47.02562" lon="8.98851">
        <ele>861</ele>
        <time>2021-08-02T10:09:23.213Z</time>
      </trkpt>
      <trkpt lat="47.02561" lon="8.9885">
        <ele>861</ele>
        <time>2021-08-02T10:09:24.213Z</time>
      </trkpt>
      <trkpt lat="47.02559" lon="8.98849">
        <ele>861</ele>
        <time>2021-08-02T10:09:25.212Z</time>
      </trkpt>
      <trkpt lat="47.02557" lon="8.98849">
        <ele>861</ele>
        <time>2021-08-02T10:09:26.213Z</time>
      </trkpt>
      <trkpt lat="47.02555" lon="8.98847">
        <ele>861</ele>
        <time>2021-08-02T10:09:27.213Z</time>
      </trkpt>
      <trkpt lat="47.02554" lon="8.98846">
        <ele>861</ele>
        <time>2021-08-02T10:09:28.212Z</time>
      </trkpt>
      <trkpt lat="47.02553" lon="8.98845">
        <ele>861</ele>
        <time>2021-08-02T10:09:29.213Z</time>
      </trkpt>
      <trkpt lat="47.02552" lon="8.98844">
        <ele>860</ele>
        <time>2021-08-02T10:09:30.213Z</time>
      </trkpt>
      <trkpt lat="47.0255" lon="8.98843">
        <ele>860</ele>
        <time>2021-08-02T10:09:31.212Z</time>
      </trkpt>
      <trkpt lat="47.02549" lon="8.98842">
        <ele>860</ele>
        <time>2021-08-02T10:09:32.212Z</time>
      </trkpt>
      <trkpt lat="47.02548" lon="8.98842">
        <ele>861</ele>
        <time>2021-08-02T10:09:33.212Z</time>
      </trkpt>
      <trkpt lat="47.02547" lon="8.98841">
        <ele>861</ele>
        <time>2021-08-02T10:09:34.212Z</time>
      </trkpt>
      <trkpt lat="47.02547" lon="8.9884">
        <ele>861</ele>
        <time>2021-08-02T10:09:35.212Z</time>
      </trkpt>
      <trkpt lat="47.02545" lon="8.98839">
        <ele>861</ele>
        <time>2021-08-02T10:09:36.212Z</time>
      </trkpt>
      <trkpt lat="47.02544" lon="8.98837">
        <ele>861</ele>
        <time>2021-08-02T10:09:37.212Z</time>
      </trkpt>
      <trkpt lat="47.02542" lon="8.98835">
        <ele>861</ele>
        <time>2021-08-02T10:09:38.212Z</time>
      </trkpt>
      <trkpt lat="47.0254" lon="8.98834">
        <ele>860</ele>
        <time>2021-08-02T10:09:39.213Z</time>
      </trkpt>
      <trkpt lat="47.02539" lon="8.98833">
        <ele>860</ele>
        <time>2021-08-02T10:09:40.212Z</time>
      </trkpt>
      <trkpt lat="47.02538" lon="8.98833">
        <ele>860</ele>
        <time>2021-08-02T10:09:41.212Z</time>
      </trkpt>
      <trkpt lat="47.02537" lon="8.98832">
        <ele>859</ele>
        <time>2021-08-02T10:09:42.212Z</time>
      </trkpt>
      <trkpt lat="47.02536" lon="8.98831">
        <ele>859</ele>
        <time>2021-08-02T10:09:43.212Z</time>
      </trkpt>
      <trkpt lat="47.02536" lon="8.9883">
        <ele>859</ele>
        <time>2021-08-02T10:09:44.213Z</time>
      </trkpt>
      <trkpt lat="47.02535" lon="8.98828">
        <ele>859</ele>
        <time>2021-08-02T10:09:45.213Z</time>
      </trkpt>
      <trkpt lat="47.02533" lon="8.98828">
        <ele>859</ele>
        <time>2021-08-02T10:09:46.212Z</time>
      </trkpt>
      <trkpt lat="47.02531" lon="8.98827">
        <ele>859</ele>
        <time>2021-08-02T10:09:47.213Z</time>
      </trkpt>
      <trkpt lat="47.0253" lon="8.98826">
        <ele>859</ele>
        <time>2021-08-02T10:09:48.213Z</time>
      </trkpt>
      <trkpt lat="47.0253" lon="8.98824">
        <ele>859</ele>
        <time>2021-08-02T10:09:49.212Z</time>
      </trkpt>
      <trkpt lat="47.02529" lon="8.98823">
        <ele>859</ele>
        <time>2021-08-02T10:09:50.213Z</time>
      </trkpt>
      <trkpt lat="47.02528" lon="8.98821">
        <ele>859</ele>
        <time>2021-08-02T10:09:51.213Z</time>
      </trkpt>
      <trkpt lat="47.02528" lon="8.98821">
        <ele>858</ele>
        <time>2021-08-02T10:09:52.213Z</time>
      </trkpt>
      <trkpt lat="47.02527" lon="8.98821">
        <ele>858</ele>
        <time>2021-08-02T10:09:53.213Z</time>
      </trkpt>
      <trkpt lat="47.02526" lon="8.9882">
        <ele>857</ele>
        <time>2021-08-02T10:09:54.213Z</time>
      </trkpt>
      <trkpt lat="47.02525" lon="8.9882">
        <ele>857</ele>
        <time>2021-08-02T10:09:55.212Z</time>
      </trkpt>
      <trkpt lat="47.02524" lon="8.98819">
        <ele>856</ele>
        <time>2021-08-02T10:09:56.213Z</time>
      </trkpt>
      <trkpt lat="47.02523" lon="8.98818">
        <ele>856</ele>
        <time>2021-08-02T10:09:57.213Z</time>
      </trkpt>
      <trkpt lat="47.02523" lon="8.98817">
        <ele>855</ele>
        <time>2021-08-02T10:09:58.213Z</time>
      </trkpt>
      <trkpt lat="47.02521" lon="8.98816">
        <ele>855</ele>
        <time>2021-08-02T10:09:59.213Z</time>
      </trkpt>
      <trkpt lat="47.0252" lon="8.98815">
        <ele>855</ele>
        <time>2021-08-02T10:10:00.212Z</time>
      </trkpt>
      <trkpt lat="47.02519" lon="8.98814">
        <ele>855</ele>
        <time>2021-08-02T10:10:01.213Z</time>
      </trkpt>
      <trkpt lat="47.02517" lon="8.98813">
        <ele>855</ele>
        <time>2021-08-02T10:10:02.212Z</time>
      </trkpt>
      <trkpt lat="47.02517" lon="8.98812">
        <ele>855</ele>
        <time>2021-08-02T10:10:03.212Z</time>
      </trkpt>
      <trkpt lat="47.02516" lon="8.98812">
        <ele>855</ele>
        <time>2021-08-02T10:10:04.213Z</time>
      </trkpt>
      <trkpt lat="47.02515" lon="8.98811">
        <ele>855</ele>
        <time>2021-08-02T10:10:05.213Z</time>
      </trkpt>
      <trkpt lat="47.02514" lon="8.98811">
        <ele>855</ele>
        <time>2021-08-02T10:10:06.213Z</time>
      </trkpt>
      <trkpt lat="47.02512" lon="8.9881">
        <ele>855</ele>
        <time>2021-08-02T10:10:07.212Z</time>
      </trkpt>
      <trkpt lat="47.02511" lon="8.9881">
        <ele>855</ele>
        <time>2021-08-02T10:10:08.213Z</time>
      </trkpt>
      <trkpt lat="47.0251" lon="8.9881">
        <ele>856</ele>
        <time>2021-08-02T10:10:09.213Z</time>
      </trkpt>
      <trkpt lat="47.02509" lon="8.98811">
        <ele>856</ele>
        <time>2021-08-02T10:10:10.212Z</time>
      </trkpt>
      <trkpt lat="47.02508" lon="8.98811">
        <ele>857</ele>
        <time>2021-08-02T10:10:11.213Z</time>
      </trkpt>
      <trkpt lat="47.02507" lon="8.98811">
        <ele>857</ele>
        <time>2021-08-02T10:10:12.212Z</time>
      </trkpt>
      <trkpt lat="47.02506" lon="8.98812">
        <ele>857</ele>
        <time>2021-08-02T10:10:13.213Z</time>
      </trkpt>
      <trkpt lat="47.02505" lon="8.98812">
        <ele>856</ele>
        <time>2021-08-02T10:10:14.213Z</time>
      </trkpt>
      <trkpt lat="47.02504" lon="8.98811">
        <ele>855</ele>
        <time>2021-08-02T10:10:15.213Z</time>
      </trkpt>
      <trkpt lat="47.02502" lon="8.98811">
        <ele>855</ele>
        <time>2021-08-02T10:10:16.213Z</time>
      </trkpt>
      <trkpt lat="47.02501" lon="8.98811">
        <ele>855</ele>
        <time>2021-08-02T10:10:17.213Z</time>
      </trkpt>
      <trkpt lat="47.025" lon="8.9881">
        <ele>855</ele>
        <time>2021-08-02T10:10:18.213Z</time>
      </trkpt>
      <trkpt lat="47.02499" lon="8.9881">
        <ele>855</ele>
        <time>2021-08-02T10:10:19.213Z</time>
      </trkpt>
      <trkpt lat="47.02498" lon="8.9881">
        <ele>855</ele>
        <time>2021-08-02T10:10:20.212Z</time>
      </trkpt>
      <trkpt lat="47.02497" lon="8.9881">
        <ele>856</ele>
        <time>2021-08-02T10:10:21.213Z</time>
      </trkpt>
      <trkpt lat="47.02496" lon="8.9881">
        <ele>856</ele>
        <time>2021-08-02T10:10:22.212Z</time>
      </trkpt>
      <trkpt lat="47.02495" lon="8.98809">
        <ele>857</ele>
        <time>2021-08-02T10:10:23.213Z</time>
      </trkpt>
      <trkpt lat="47.02494" lon="8.98809">
        <ele>857</ele>
        <time>2021-08-02T10:10:24.213Z</time>
      </trkpt>
      <trkpt lat="47.02493" lon="8.98808">
        <ele>857</ele>
        <time>2021-08-02T10:10:25.212Z</time>
      </trkpt>
      <trkpt lat="47.02492" lon="8.98807">
        <ele>857</ele>
        <time>2021-08-02T10:10:26.213Z</time>
      </trkpt>
      <trkpt lat="47.02491" lon="8.98806">
        <ele>858</ele>
        <time>2021-08-02T10:10:27.213Z</time>
      </trkpt>
      <trkpt lat="47.0249" lon="8.98804">
        <ele>858</ele>
        <time>2021-08-02T10:10:28.213Z</time>
      </trkpt>
      <trkpt lat="47.02489" lon="8.98804">
        <ele>858</ele>
        <time>2021-08-02T10:10:29.213Z</time>
      </trkpt>
      <trkpt lat="47.02488" lon="8.98803">
        <ele>858</ele>
        <time>2021-08-02T10:10:30.212Z</time>
      </trkpt>
      <trkpt lat="47.02487" lon="8.98802">
        <ele>858</ele>
        <time>2021-08-02T10:10:31.212Z</time>
      </trkpt>
      <trkpt lat="47.02487" lon="8.98801">
        <ele>857</ele>
        <time>2021-08-02T10:10:32.213Z</time>
      </trkpt>
      <trkpt lat="47.02486" lon="8.98801">
        <ele>856</ele>
        <time>2021-08-02T10:10:33.212Z</time>
      </trkpt>
      <trkpt lat="47.02486" lon="8.98799">
        <ele>856</ele>
        <time>2021-08-02T10:10:34.212Z</time>
      </trkpt>
      <trkpt lat="47.02485" lon="8.98799">
        <ele>856</ele>
        <time>2021-08-02T10:10:35.212Z</time>
      </trkpt>
      <trkpt lat="47.02484" lon="8.98798">
        <ele>856</ele>
        <time>2021-08-02T10:10:36.213Z</time>
      </trkpt>
      <trkpt lat="47.02483" lon="8.98797">
        <ele>855</ele>
        <time>2021-08-02T10:10:37.213Z</time>
      </trkpt>
      <trkpt lat="47.02482" lon="8.98796">
        <ele>855</ele>
        <time>2021-08-02T10:10:38.212Z</time>
      </trkpt>
      <trkpt lat="47.02481" lon="8.98795">
        <ele>855</ele>
        <time>2021-08-02T10:10:39.213Z</time>
      </trkpt>
      <trkpt lat="47.0248" lon="8.98794">
        <ele>855</ele>
        <time>2021-08-02T10:10:40.213Z</time>
      </trkpt>
      <trkpt lat="47.0248" lon="8.98793">
        <ele>854</ele>
        <time>2021-08-02T10:10:41.213Z</time>
      </trkpt>
      <trkpt lat="47.02479" lon="8.98792">
        <ele>854</ele>
        <time>2021-08-02T10:10:42.213Z</time>
      </trkpt>
      <trkpt lat="47.02479" lon="8.98791">
        <ele>854</ele>
        <time>2021-08-02T10:10:43.212Z</time>
      </trkpt>
      <trkpt lat="47.02478" lon="8.98789">
        <ele>854</ele>
        <time>2021-08-02T10:10:44.213Z</time>
      </trkpt>
      <trkpt lat="47.02477" lon="8.98789">
        <ele>854</ele>
        <time>2021-08-02T10:10:45.213Z</time>
      </trkpt>
      <trkpt lat="47.02476" lon="8.98788">
        <ele>854</ele>
        <time>2021-08-02T10:10:46.212Z</time>
      </trkpt>
      <trkpt lat="47.02475" lon="8.98787">
        <ele>854</ele>
        <time>2021-08-02T10:10:47.213Z</time>
      </trkpt>
      <trkpt lat="47.02474" lon="8.98785">
        <ele>854</ele>
        <time>2021-08-02T10:10:48.213Z</time>
      </trkpt>
      <trkpt lat="47.02475" lon="8.98784">
        <ele>853</ele>
        <time>2021-08-02T10:10:49.213Z</time>
      </trkpt>
      <trkpt lat="47.02475" lon="8.98782">
        <ele>853</ele>
        <time>2021-08-02T10:10:50.213Z</time>
      </trkpt>
      <trkpt lat="47.02474" lon="8.98781">
        <ele>853</ele>
        <time>2021-08-02T10:10:51.212Z</time>
      </trkpt>
      <trkpt lat="47.02474" lon="8.98781">
        <ele>853</ele>
        <time>2021-08-02T10:10:52.213Z</time>
      </trkpt>
      <trkpt lat="47.02473" lon="8.9878">
        <ele>853</ele>
        <time>2021-08-02T10:10:53.212Z</time>
      </trkpt>
      <trkpt lat="47.02472" lon="8.9878">
        <ele>853</ele>
        <time>2021-08-02T10:10:54.213Z</time>
      </trkpt>
      <trkpt lat="47.02472" lon="8.98779">
        <ele>853</ele>
        <time>2021-08-02T10:10:55.213Z</time>
      </trkpt>
      <trkpt lat="47.02471" lon="8.98779">
        <ele>852</ele>
        <time>2021-08-02T10:10:56.212Z</time>
      </trkpt>
      <trkpt lat="47.0247" lon="8.98778">
        <ele>852</ele>
        <time>2021-08-02T10:10:57.213Z</time>
      </trkpt>
      <trkpt lat="47.0247" lon="8.98778">
        <ele>852</ele>
        <time>2021-08-02T10:10:58.213Z</time>
      </trkpt>
      <trkpt lat="47.02469" lon="8.98777">
        <ele>852</ele>
        <time>2021-08-02T10:10:59.212Z</time>
      </trkpt>
      <trkpt lat="47.02468" lon="8.98777">
        <ele>852</ele>
        <time>2021-08-02T10:11:00.213Z</time>
      </trkpt>
      <trkpt lat="47.02467" lon="8.98776">
        <ele>853</ele>
        <time>2021-08-02T10:11:01.213Z</time>
      </trkpt>
      <trkpt lat="47.02466" lon="8.98776">
        <ele>853</ele>
        <time>2021-08-02T10:11:02.213Z</time>
      </trkpt>
      <trkpt lat="47.02465" lon="8.98776">
        <ele>854</ele>
        <time>2021-08-02T10:11:03.212Z</time>
      </trkpt>
      <trkpt lat="47.02464" lon="8.98775">
        <ele>854</ele>
        <time>2021-08-02T10:11:04.212Z</time>
      </trkpt>
      <trkpt lat="47.02463" lon="8.98773">
        <ele>854</ele>
        <time>2021-08-02T10:11:05.213Z</time>
      </trkpt>
      <trkpt lat="47.02462" lon="8.98772">
        <ele>854</ele>
        <time>2021-08-02T10:11:06.213Z</time>
      </trkpt>
      <trkpt lat="47.0246" lon="8.9877">
        <ele>854</ele>
        <time>2021-08-02T10:11:07.213Z</time>
      </trkpt>
      <trkpt lat="47.0246" lon="8.98769">
        <ele>854</ele>
        <time>2021-08-02T10:11:08.212Z</time>
      </trkpt>
      <trkpt lat="47.02459" lon="8.98768">
        <ele>854</ele>
        <time>2021-08-02T10:11:09.213Z</time>
      </trkpt>
      <trkpt lat="47.02459" lon="8.98767">
        <ele>854</ele>
        <time>2021-08-02T10:11:10.212Z</time>
      </trkpt>
      <trkpt lat="47.02458" lon="8.98766">
        <ele>853</ele>
        <time>2021-08-02T10:11:11.212Z</time>
      </trkpt>
      <trkpt lat="47.02458" lon="8.98765">
        <ele>853</ele>
        <time>2021-08-02T10:11:12.213Z</time>
      </trkpt>
      <trkpt lat="47.02458" lon="8.98764">
        <ele>854</ele>
        <time>2021-08-02T10:11:13.213Z</time>
      </trkpt>
      <trkpt lat="47.02457" lon="8.98762">
        <ele>854</ele>
        <time>2021-08-02T10:11:14.213Z</time>
      </trkpt>
      <trkpt lat="47.02456" lon="8.9876">
        <ele>854</ele>
        <time>2021-08-02T10:11:15.212Z</time>
      </trkpt>
      <trkpt lat="47.02454" lon="8.98758">
        <ele>854</ele>
        <time>2021-08-02T10:11:16.213Z</time>
      </trkpt>
      <trkpt lat="47.02453" lon="8.98756">
        <ele>854</ele>
        <time>2021-08-02T10:11:17.212Z</time>
      </trkpt>
      <trkpt lat="47.02452" lon="8.98756">
        <ele>854</ele>
        <time>2021-08-02T10:11:18.213Z</time>
      </trkpt>
      <trkpt lat="47.02452" lon="8.98755">
        <ele>853</ele>
        <time>2021-08-02T10:11:19.213Z</time>
      </trkpt>
      <trkpt lat="47.02451" lon="8.98754">
        <ele>853</ele>
        <time>2021-08-02T10:11:20.213Z</time>
      </trkpt>
      <trkpt lat="47.02451" lon="8.98753">
        <ele>852</ele>
        <time>2021-08-02T10:11:21.212Z</time>
      </trkpt>
      <trkpt lat="47.0245" lon="8.98752">
        <ele>852</ele>
        <time>2021-08-02T10:11:22.212Z</time>
      </trkpt>
      <trkpt lat="47.02448" lon="8.98751">
        <ele>852</ele>
        <time>2021-08-02T10:11:23.213Z</time>
      </trkpt>
      <trkpt lat="47.02447" lon="8.9875">
        <ele>852</ele>
        <time>2021-08-02T10:11:24.212Z</time>
      </trkpt>
      <trkpt lat="47.02446" lon="8.9875">
        <ele>853</ele>
        <time>2021-08-02T10:11:25.213Z</time>
      </trkpt>
      <trkpt lat="47.02444" lon="8.98749">
        <ele>853</ele>
        <time>2021-08-02T10:11:26.212Z</time>
      </trkpt>
      <trkpt lat="47.02443" lon="8.98748">
        <ele>854</ele>
        <time>2021-08-02T10:11:27.213Z</time>
      </trkpt>
      <trkpt lat="47.02442" lon="8.98747">
        <ele>854</ele>
        <time>2021-08-02T10:11:28.213Z</time>
      </trkpt>
      <trkpt lat="47.02441" lon="8.98745">
        <ele>854</ele>
        <time>2021-08-02T10:11:29.213Z</time>
      </trkpt>
      <trkpt lat="47.02441" lon="8.98744">
        <ele>854</ele>
        <time>2021-08-02T10:11:30.213Z</time>
      </trkpt>
      <trkpt lat="47.0244" lon="8.98742">
        <ele>854</ele>
        <time>2021-08-02T10:11:31.213Z</time>
      </trkpt>
      <trkpt lat="47.0244" lon="8.98741">
        <ele>854</ele>
        <time>2021-08-02T10:11:32.213Z</time>
      </trkpt>
      <trkpt lat="47.0244" lon="8.9874">
        <ele>854</ele>
        <time>2021-08-02T10:11:33.213Z</time>
      </trkpt>
      <trkpt lat="47.02439" lon="8.98739">
        <ele>853</ele>
        <time>2021-08-02T10:11:34.212Z</time>
      </trkpt>
      <trkpt lat="47.02439" lon="8.98738">
        <ele>853</ele>
        <time>2021-08-02T10:11:35.212Z</time>
      </trkpt>
      <trkpt lat="47.02438" lon="8.98737">
        <ele>853</ele>
        <time>2021-08-02T10:11:36.212Z</time>
      </trkpt>
      <trkpt lat="47.02437" lon="8.98737">
        <ele>853</ele>
        <time>2021-08-02T10:11:37.213Z</time>
      </trkpt>
      <trkpt lat="47.02436" lon="8.98736">
        <ele>853</ele>
        <time>2021-08-02T10:11:38.213Z</time>
      </trkpt>
      <trkpt lat="47.02435" lon="8.98736">
        <ele>853</ele>
        <time>2021-08-02T10:11:39.212Z</time>
      </trkpt>
      <trkpt lat="47.02435" lon="8.98735">
        <ele>853</ele>
        <time>2021-08-02T10:11:40.212Z</time>
      </trkpt>
      <trkpt lat="47.02434" lon="8.98734">
        <ele>853</ele>
        <time>2021-08-02T10:11:41.213Z</time>
      </trkpt>
      <trkpt lat="47.02433" lon="8.98733">
        <ele>853</ele>
        <time>2021-08-02T10:11:42.213Z</time>
      </trkpt>
      <trkpt lat="47.02432" lon="8.98731">
        <ele>853</ele>
        <time>2021-08-02T10:11:43.212Z</time>
      </trkpt>
      <trkpt lat="47.02432" lon="8.98729">
        <ele>853</ele>
        <time>2021-08-02T10:11:44.212Z</time>
      </trkpt>
      <trkpt lat="47.02432" lon="8.98728">
        <ele>853</ele>
        <time>2021-08-02T10:11:45.213Z</time>
      </trkpt>
      <trkpt lat="47.0243" lon="8.98727">
        <ele>853</ele>
        <time>2021-08-02T10:11:46.213Z</time>
      </trkpt>
      <trkpt lat="47.02429" lon="8.98726">
        <ele>853</ele>
        <time>2021-08-02T10:11:47.213Z</time>
      </trkpt>
      <trkpt lat="47.02428" lon="8.98725">
        <ele>853</ele>
        <time>2021-08-02T10:11:48.212Z</time>
      </trkpt>
      <trkpt lat="47.02427" lon="8.98723">
        <ele>853</ele>
        <time>2021-08-02T10:11:49.213Z</time>
      </trkpt>
      <trkpt lat="47.02427" lon="8.98721">
        <ele>852</ele>
        <time>2021-08-02T10:11:50.212Z</time>
      </trkpt>
      <trkpt lat="47.02426" lon="8.9872">
        <ele>852</ele>
        <time>2021-08-02T10:11:51.213Z</time>
      </trkpt>
      <trkpt lat="47.02424" lon="8.98719">
        <ele>851</ele>
        <time>2021-08-02T10:11:52.213Z</time>
      </trkpt>
      <trkpt lat="47.02423" lon="8.98718">
        <ele>851</ele>
        <time>2021-08-02T10:11:53.212Z</time>
      </trkpt>
      <trkpt lat="47.02423" lon="8.98718">
        <ele>851</ele>
        <time>2021-08-02T10:11:54.213Z</time>
      </trkpt>
      <trkpt lat="47.02422" lon="8.98717">
        <ele>851</ele>
        <time>2021-08-02T10:11:55.213Z</time>
      </trkpt>
      <trkpt lat="47.02421" lon="8.98716">
        <ele>851</ele>
        <time>2021-08-02T10:11:56.212Z</time>
      </trkpt>
      <trkpt lat="47.02421" lon="8.98715">
        <ele>851</ele>
        <time>2021-08-02T10:11:57.213Z</time>
      </trkpt>
      <trkpt lat="47.0242" lon="8.98714">
        <ele>850</ele>
        <time>2021-08-02T10:11:58.212Z</time>
      </trkpt>
      <trkpt lat="47.0242" lon="8.98713">
        <ele>850</ele>
        <time>2021-08-02T10:11:59.212Z</time>
      </trkpt>
      <trkpt lat="47.02419" lon="8.98711">
        <ele>850</ele>
        <time>2021-08-02T10:12:00.212Z</time>
      </trkpt>
      <trkpt lat="47.02419" lon="8.9871">
        <ele>850</ele>
        <time>2021-08-02T10:12:01.213Z</time>
      </trkpt>
      <trkpt lat="47.02419" lon="8.98709">
        <ele>850</ele>
        <time>2021-08-02T10:12:02.212Z</time>
      </trkpt>
      <trkpt lat="47.02419" lon="8.98707">
        <ele>850</ele>
        <time>2021-08-02T10:12:03.212Z</time>
      </trkpt>
      <trkpt lat="47.02418" lon="8.98707">
        <ele>850</ele>
        <time>2021-08-02T10:12:04.212Z</time>
      </trkpt>
      <trkpt lat="47.02417" lon="8.98706">
        <ele>850</ele>
        <time>2021-08-02T10:12:05.213Z</time>
      </trkpt>
      <trkpt lat="47.02416" lon="8.98705">
        <ele>849</ele>
        <time>2021-08-02T10:12:06.213Z</time>
      </trkpt>
      <trkpt lat="47.02415" lon="8.98704">
        <ele>849</ele>
        <time>2021-08-02T10:12:07.212Z</time>
      </trkpt>
      <trkpt lat="47.02415" lon="8.98702">
        <ele>849</ele>
        <time>2021-08-02T10:12:08.212Z</time>
      </trkpt>
      <trkpt lat="47.02415" lon="8.98701">
        <ele>850</ele>
        <time>2021-08-02T10:12:15.301Z</time>
      </trkpt>
      <trkpt lat="47.02414" lon="8.98701">
        <ele>850</ele>
        <time>2021-08-02T10:12:16.302Z</time>
      </trkpt>
      <trkpt lat="47.02413" lon="8.987">
        <ele>850</ele>
        <time>2021-08-02T10:12:17.302Z</time>
      </trkpt>
      <trkpt lat="47.02412" lon="8.98699">
        <ele>849</ele>
        <time>2021-08-02T10:12:18.301Z</time>
      </trkpt>
      <trkpt lat="47.02412" lon="8.98698">
        <ele>849</ele>
        <time>2021-08-02T10:12:19.301Z</time>
      </trkpt>
      <trkpt lat="47.0241" lon="8.98697">
        <ele>849</ele>
        <time>2021-08-02T10:12:20.301Z</time>
      </trkpt>
      <trkpt lat="47.02409" lon="8.98695">
        <ele>849</ele>
        <time>2021-08-02T10:12:21.302Z</time>
      </trkpt>
      <trkpt lat="47.02408" lon="8.98694">
        <ele>849</ele>
        <time>2021-08-02T10:12:22.301Z</time>
      </trkpt>
      <trkpt lat="47.02408" lon="8.98692">
        <ele>849</ele>
        <time>2021-08-02T10:12:29.442Z</time>
      </trkpt>
      <trkpt lat="47.02407" lon="8.98691">
        <ele>849</ele>
        <time>2021-08-02T10:12:30.442Z</time>
      </trkpt>
      <trkpt lat="47.02406" lon="8.98689">
        <ele>849</ele>
        <time>2021-08-02T10:12:31.442Z</time>
      </trkpt>
      <trkpt lat="47.02405" lon="8.98687">
        <ele>849</ele>
        <time>2021-08-02T10:12:32.441Z</time>
      </trkpt>
      <trkpt lat="47.02404" lon="8.98686">
        <ele>849</ele>
        <time>2021-08-02T10:12:40.564Z</time>
      </trkpt>
      <trkpt lat="47.02403" lon="8.98684">
        <ele>849</ele>
        <time>2021-08-02T10:12:48.444Z</time>
      </trkpt>
      <trkpt lat="47.02402" lon="8.98683">
        <ele>849</ele>
        <time>2021-08-02T10:12:49.443Z</time>
      </trkpt>
      <trkpt lat="47.02401" lon="8.98681">
        <ele>849</ele>
        <time>2021-08-02T10:12:50.443Z</time>
      </trkpt>
      <trkpt lat="47.02401" lon="8.9868">
        <ele>849</ele>
        <time>2021-08-02T10:12:51.443Z</time>
      </trkpt>
      <trkpt lat="47.024" lon="8.9868">
        <ele>849</ele>
        <time>2021-08-02T10:12:52.444Z</time>
      </trkpt>
      <trkpt lat="47.02399" lon="8.98679">
        <ele>850</ele>
        <time>2021-08-02T10:12:53.444Z</time>
      </trkpt>
      <trkpt lat="47.02398" lon="8.98679">
        <ele>850</ele>
        <time>2021-08-02T10:12:54.443Z</time>
      </trkpt>
      <trkpt lat="47.02397" lon="8.98679">
        <ele>850</ele>
        <time>2021-08-02T10:12:55.444Z</time>
      </trkpt>
      <trkpt lat="47.02397" lon="8.98678">
        <ele>850</ele>
        <time>2021-08-02T10:12:56.444Z</time>
      </trkpt>
      <trkpt lat="47.02397" lon="8.98676">
        <ele>849</ele>
        <time>2021-08-02T10:12:57.444Z</time>
      </trkpt>
      <trkpt lat="47.02397" lon="8.98674">
        <ele>849</ele>
        <time>2021-08-02T10:12:58.443Z</time>
      </trkpt>
      <trkpt lat="47.02397" lon="8.98672">
        <ele>849</ele>
        <time>2021-08-02T10:12:59.444Z</time>
      </trkpt>
      <trkpt lat="47.02397" lon="8.98671">
        <ele>848</ele>
        <time>2021-08-02T10:13:00.444Z</time>
      </trkpt>
      <trkpt lat="47.02397" lon="8.98669">
        <ele>848</ele>
        <time>2021-08-02T10:13:01.443Z</time>
      </trkpt>
      <trkpt lat="47.02396" lon="8.98668">
        <ele>848</ele>
        <time>2021-08-02T10:13:02.443Z</time>
      </trkpt>
      <trkpt lat="47.02396" lon="8.98667">
        <ele>847</ele>
        <time>2021-08-02T10:13:03.444Z</time>
      </trkpt>
      <trkpt lat="47.02395" lon="8.98666">
        <ele>847</ele>
        <time>2021-08-02T10:13:04.444Z</time>
      </trkpt>
      <trkpt lat="47.02395" lon="8.98665">
        <ele>847</ele>
        <time>2021-08-02T10:13:05.443Z</time>
      </trkpt>
      <trkpt lat="47.02394" lon="8.98663">
        <ele>847</ele>
        <time>2021-08-02T10:13:06.443Z</time>
      </trkpt>
      <trkpt lat="47.02393" lon="8.98662">
        <ele>847</ele>
        <time>2021-08-02T10:13:07.443Z</time>
      </trkpt>
      <trkpt lat="47.02392" lon="8.98661">
        <ele>847</ele>
        <time>2021-08-02T10:13:08.444Z</time>
      </trkpt>
      <trkpt lat="47.02391" lon="8.9866">
        <ele>847</ele>
        <time>2021-08-02T10:13:09.444Z</time>
      </trkpt>
      <trkpt lat="47.02389" lon="8.98659">
        <ele>847</ele>
        <time>2021-08-02T10:13:10.443Z</time>
      </trkpt>
      <trkpt lat="47.02388" lon="8.98659">
        <ele>847</ele>
        <time>2021-08-02T10:13:11.444Z</time>
      </trkpt>
      <trkpt lat="47.02387" lon="8.98658">
        <ele>847</ele>
        <time>2021-08-02T10:13:12.444Z</time>
      </trkpt>
      <trkpt lat="47.02386" lon="8.98658">
        <ele>847</ele>
        <time>2021-08-02T10:13:13.443Z</time>
      </trkpt>
      <trkpt lat="47.02384" lon="8.98657">
        <ele>848</ele>
        <time>2021-08-02T10:13:14.444Z</time>
      </trkpt>
      <trkpt lat="47.02383" lon="8.98656">
        <ele>848</ele>
        <time>2021-08-02T10:13:15.444Z</time>
      </trkpt>
      <trkpt lat="47.02382" lon="8.98654">
        <ele>849</ele>
        <time>2021-08-02T10:13:16.443Z</time>
      </trkpt>
      <trkpt lat="47.02381" lon="8.98653">
        <ele>849</ele>
        <time>2021-08-02T10:13:17.444Z</time>
      </trkpt>
      <trkpt lat="47.02381" lon="8.98652">
        <ele>850</ele>
        <time>2021-08-02T10:13:18.443Z</time>
      </trkpt>
      <trkpt lat="47.02379" lon="8.98651">
        <ele>850</ele>
        <time>2021-08-02T10:13:19.444Z</time>
      </trkpt>
      <trkpt lat="47.02378" lon="8.9865">
        <ele>850</ele>
        <time>2021-08-02T10:13:20.444Z</time>
      </trkpt>
      <trkpt lat="47.02377" lon="8.98649">
        <ele>850</ele>
        <time>2021-08-02T10:13:21.444Z</time>
      </trkpt>
      <trkpt lat="47.02375" lon="8.98649">
        <ele>850</ele>
        <time>2021-08-02T10:13:22.444Z</time>
      </trkpt>
      <trkpt lat="47.02374" lon="8.98648">
        <ele>850</ele>
        <time>2021-08-02T10:13:23.444Z</time>
      </trkpt>
      <trkpt lat="47.02372" lon="8.98647">
        <ele>850</ele>
        <time>2021-08-02T10:13:24.443Z</time>
      </trkpt>
      <trkpt lat="47.02371" lon="8.98646">
        <ele>850</ele>
        <time>2021-08-02T10:13:25.443Z</time>
      </trkpt>
      <trkpt lat="47.0237" lon="8.98645">
        <ele>850</ele>
        <time>2021-08-02T10:13:26.444Z</time>
      </trkpt>
      <trkpt lat="47.02369" lon="8.98644">
        <ele>850</ele>
        <time>2021-08-02T10:13:27.444Z</time>
      </trkpt>
      <trkpt lat="47.02369" lon="8.98642">
        <ele>850</ele>
        <time>2021-08-02T10:13:28.444Z</time>
      </trkpt>
      <trkpt lat="47.02369" lon="8.98641">
        <ele>850</ele>
        <time>2021-08-02T10:13:29.444Z</time>
      </trkpt>
      <trkpt lat="47.02369" lon="8.9864">
        <ele>850</ele>
        <time>2021-08-02T10:13:30.443Z</time>
      </trkpt>
      <trkpt lat="47.02368" lon="8.9864">
        <ele>851</ele>
        <time>2021-08-02T10:13:31.444Z</time>
      </trkpt>
      <trkpt lat="47.02367" lon="8.98639">
        <ele>851</ele>
        <time>2021-08-02T10:13:32.444Z</time>
      </trkpt>
      <trkpt lat="47.02365" lon="8.98639">
        <ele>851</ele>
        <time>2021-08-02T10:13:33.444Z</time>
      </trkpt>
      <trkpt lat="47.02365" lon="8.98638">
        <ele>852</ele>
        <time>2021-08-02T10:13:34.444Z</time>
      </trkpt>
      <trkpt lat="47.02364" lon="8.98637">
        <ele>852</ele>
        <time>2021-08-02T10:13:35.443Z</time>
      </trkpt>
      <trkpt lat="47.02363" lon="8.98636">
        <ele>853</ele>
        <time>2021-08-02T10:13:36.444Z</time>
      </trkpt>
      <trkpt lat="47.02363" lon="8.98635">
        <ele>853</ele>
        <time>2021-08-02T10:13:37.444Z</time>
      </trkpt>
      <trkpt lat="47.02362" lon="8.98634">
        <ele>854</ele>
        <time>2021-08-02T10:13:38.444Z</time>
      </trkpt>
      <trkpt lat="47.02362" lon="8.98633">
        <ele>854</ele>
        <time>2021-08-02T10:13:39.443Z</time>
      </trkpt>
      <trkpt lat="47.02362" lon="8.98632">
        <ele>855</ele>
        <time>2021-08-02T10:13:40.443Z</time>
      </trkpt>
      <trkpt lat="47.02361" lon="8.98631">
        <ele>855</ele>
        <time>2021-08-02T10:13:41.444Z</time>
      </trkpt>
      <trkpt lat="47.02361" lon="8.9863">
        <ele>855</ele>
        <time>2021-08-02T10:13:42.444Z</time>
      </trkpt>
      <trkpt lat="47.02361" lon="8.98629">
        <ele>855</ele>
        <time>2021-08-02T10:13:43.443Z</time>
      </trkpt>
      <trkpt lat="47.0236" lon="8.98628">
        <ele>855</ele>
        <time>2021-08-02T10:13:44.444Z</time>
      </trkpt>
      <trkpt lat="47.0236" lon="8.98626">
        <ele>855</ele>
        <time>2021-08-02T10:13:45.444Z</time>
      </trkpt>
      <trkpt lat="47.02358" lon="8.98625">
        <ele>855</ele>
        <time>2021-08-02T10:13:46.444Z</time>
      </trkpt>
      <trkpt lat="47.02357" lon="8.98623">
        <ele>855</ele>
        <time>2021-08-02T10:13:47.444Z</time>
      </trkpt>
      <trkpt lat="47.02356" lon="8.98621">
        <ele>855</ele>
        <time>2021-08-02T10:13:48.443Z</time>
      </trkpt>
      <trkpt lat="47.02356" lon="8.98619">
        <ele>854</ele>
        <time>2021-08-02T10:13:49.444Z</time>
      </trkpt>
      <trkpt lat="47.02356" lon="8.98617">
        <ele>855</ele>
        <time>2021-08-02T10:13:50.444Z</time>
      </trkpt>
      <trkpt lat="47.02355" lon="8.98615">
        <ele>855</ele>
        <time>2021-08-02T10:13:51.444Z</time>
      </trkpt>
      <trkpt lat="47.02354" lon="8.98614">
        <ele>855</ele>
        <time>2021-08-02T10:13:52.443Z</time>
      </trkpt>
      <trkpt lat="47.02352" lon="8.98612">
        <ele>855</ele>
        <time>2021-08-02T10:13:53.443Z</time>
      </trkpt>
      <trkpt lat="47.02351" lon="8.9861">
        <ele>855</ele>
        <time>2021-08-02T10:13:54.443Z</time>
      </trkpt>
      <trkpt lat="47.0235" lon="8.98608">
        <ele>855</ele>
        <time>2021-08-02T10:13:55.443Z</time>
      </trkpt>
      <trkpt lat="47.02349" lon="8.98606">
        <ele>856</ele>
        <time>2021-08-02T10:13:56.444Z</time>
      </trkpt>
      <trkpt lat="47.02348" lon="8.98605">
        <ele>856</ele>
        <time>2021-08-02T10:13:57.443Z</time>
      </trkpt>
      <trkpt lat="47.02347" lon="8.98603">
        <ele>856</ele>
        <time>2021-08-02T10:13:58.444Z</time>
      </trkpt>
      <trkpt lat="47.02346" lon="8.98603">
        <ele>856</ele>
        <time>2021-08-02T10:13:59.444Z</time>
      </trkpt>
      <trkpt lat="47.02345" lon="8.98603">
        <ele>856</ele>
        <time>2021-08-02T10:14:00.444Z</time>
      </trkpt>
      <trkpt lat="47.02344" lon="8.98602">
        <ele>856</ele>
        <time>2021-08-02T10:14:01.443Z</time>
      </trkpt>
      <trkpt lat="47.02344" lon="8.986">
        <ele>856</ele>
        <time>2021-08-02T10:14:02.444Z</time>
      </trkpt>
      <trkpt lat="47.02343" lon="8.986">
        <ele>856</ele>
        <time>2021-08-02T10:14:03.444Z</time>
      </trkpt>
      <trkpt lat="47.02342" lon="8.98599">
        <ele>856</ele>
        <time>2021-08-02T10:14:04.444Z</time>
      </trkpt>
      <trkpt lat="47.02342" lon="8.98598">
        <ele>856</ele>
        <time>2021-08-02T10:14:05.443Z</time>
      </trkpt>
      <trkpt lat="47.02341" lon="8.98597">
        <ele>857</ele>
        <time>2021-08-02T10:14:06.444Z</time>
      </trkpt>
      <trkpt lat="47.0234" lon="8.98597">
        <ele>857</ele>
        <time>2021-08-02T10:14:07.444Z</time>
      </trkpt>
      <trkpt lat="47.02339" lon="8.98596">
        <ele>857</ele>
        <time>2021-08-02T10:14:08.443Z</time>
      </trkpt>
      <trkpt lat="47.02338" lon="8.98595">
        <ele>857</ele>
        <time>2021-08-02T10:14:09.444Z</time>
      </trkpt>
      <trkpt lat="47.02337" lon="8.98595">
        <ele>857</ele>
        <time>2021-08-02T10:14:10.444Z</time>
      </trkpt>
      <trkpt lat="47.02336" lon="8.98594">
        <ele>857</ele>
        <time>2021-08-02T10:14:11.443Z</time>
      </trkpt>
      <trkpt lat="47.02335" lon="8.98594">
        <ele>857</ele>
        <time>2021-08-02T10:14:12.444Z</time>
      </trkpt>
      <trkpt lat="47.02334" lon="8.98593">
        <ele>857</ele>
        <time>2021-08-02T10:14:13.443Z</time>
      </trkpt>
      <trkpt lat="47.02333" lon="8.98592">
        <ele>857</ele>
        <time>2021-08-02T10:14:14.443Z</time>
      </trkpt>
      <trkpt lat="47.02332" lon="8.98591">
        <ele>857</ele>
        <time>2021-08-02T10:14:15.443Z</time>
      </trkpt>
      <trkpt lat="47.02331" lon="8.98591">
        <ele>857</ele>
        <time>2021-08-02T10:14:16.443Z</time>
      </trkpt>
      <trkpt lat="47.0233" lon="8.98589">
        <ele>857</ele>
        <time>2021-08-02T10:14:17.443Z</time>
      </trkpt>
      <trkpt lat="47.02329" lon="8.98587">
        <ele>857</ele>
        <time>2021-08-02T10:14:18.444Z</time>
      </trkpt>
      <trkpt lat="47.02328" lon="8.98584">
        <ele>857</ele>
        <time>2021-08-02T10:14:19.443Z</time>
      </trkpt>
      <trkpt lat="47.02326" lon="8.98583">
        <ele>857</ele>
        <time>2021-08-02T10:14:20.444Z</time>
      </trkpt>
      <trkpt lat="47.02326" lon="8.98581">
        <ele>857</ele>
        <time>2021-08-02T10:14:21.443Z</time>
      </trkpt>
      <trkpt lat="47.02325" lon="8.9858">
        <ele>857</ele>
        <time>2021-08-02T10:14:22.444Z</time>
      </trkpt>
      <trkpt lat="47.02323" lon="8.98579">
        <ele>857</ele>
        <time>2021-08-02T10:14:32.552Z</time>
      </trkpt>
      <trkpt lat="47.02322" lon="8.98578">
        <ele>857</ele>
        <time>2021-08-02T10:14:42.464Z</time>
      </trkpt>
      <trkpt lat="47.02322" lon="8.98578">
        <ele>857</ele>
        <time>2021-08-02T10:14:43.464Z</time>
      </trkpt>
      <trkpt lat="47.02321" lon="8.98577">
        <ele>857</ele>
        <time>2021-08-02T10:14:44.464Z</time>
      </trkpt>
      <trkpt lat="47.02321" lon="8.98576">
        <ele>858</ele>
        <time>2021-08-02T10:14:45.464Z</time>
      </trkpt>
      <trkpt lat="47.02321" lon="8.98575">
        <ele>858</ele>
        <time>2021-08-02T10:14:46.463Z</time>
      </trkpt>
      <trkpt lat="47.0232" lon="8.98573">
        <ele>858</ele>
        <time>2021-08-02T10:14:47.463Z</time>
      </trkpt>
      <trkpt lat="47.0232" lon="8.98572">
        <ele>858</ele>
        <time>2021-08-02T10:14:48.464Z</time>
      </trkpt>
      <trkpt lat="47.02319" lon="8.98572">
        <ele>859</ele>
        <time>2021-08-02T10:14:49.463Z</time>
      </trkpt>
      <trkpt lat="47.02319" lon="8.98571">
        <ele>859</ele>
        <time>2021-08-02T10:14:50.463Z</time>
      </trkpt>
      <trkpt lat="47.02318" lon="8.9857">
        <ele>859</ele>
        <time>2021-08-02T10:14:51.463Z</time>
      </trkpt>
      <trkpt lat="47.02317" lon="8.98569">
        <ele>860</ele>
        <time>2021-08-02T10:14:52.464Z</time>
      </trkpt>
      <trkpt lat="47.02317" lon="8.98569">
        <ele>859</ele>
        <time>2021-08-02T10:14:53.463Z</time>
      </trkpt>
      <trkpt lat="47.02317" lon="8.98568">
        <ele>859</ele>
        <time>2021-08-02T10:14:54.463Z</time>
      </trkpt>
      <trkpt lat="47.02317" lon="8.98567">
        <ele>858</ele>
        <time>2021-08-02T10:14:55.463Z</time>
      </trkpt>
      <trkpt lat="47.02316" lon="8.98566">
        <ele>858</ele>
        <time>2021-08-02T10:14:56.463Z</time>
      </trkpt>
      <trkpt lat="47.02316" lon="8.98565">
        <ele>858</ele>
        <time>2021-08-02T10:14:57.464Z</time>
      </trkpt>
      <trkpt lat="47.02316" lon="8.98565">
        <ele>857</ele>
        <time>2021-08-02T10:14:58.463Z</time>
      </trkpt>
      <trkpt lat="47.02315" lon="8.98565">
        <ele>857</ele>
        <time>2021-08-02T10:14:59.464Z</time>
      </trkpt>
      <trkpt lat="47.02314" lon="8.98565">
        <ele>856</ele>
        <time>2021-08-02T10:15:00.464Z</time>
      </trkpt>
      <trkpt lat="47.02313" lon="8.98564">
        <ele>856</ele>
        <time>2021-08-02T10:15:01.464Z</time>
      </trkpt>
      <trkpt lat="47.02312" lon="8.98564">
        <ele>856</ele>
        <time>2021-08-02T10:15:02.464Z</time>
      </trkpt>
      <trkpt lat="47.02312" lon="8.98563">
        <ele>856</ele>
        <time>2021-08-02T10:15:03.464Z</time>
      </trkpt>
      <trkpt lat="47.02311" lon="8.98562">
        <ele>856</ele>
        <time>2021-08-02T10:15:04.464Z</time>
      </trkpt>
      <trkpt lat="47.0231" lon="8.98561">
        <ele>856</ele>
        <time>2021-08-02T10:15:05.464Z</time>
      </trkpt>
      <trkpt lat="47.02309" lon="8.9856">
        <ele>856</ele>
        <time>2021-08-02T10:15:06.464Z</time>
      </trkpt>
      <trkpt lat="47.02309" lon="8.98559">
        <ele>856</ele>
        <time>2021-08-02T10:15:07.463Z</time>
      </trkpt>
      <trkpt lat="47.02308" lon="8.98559">
        <ele>856</ele>
        <time>2021-08-02T10:15:08.463Z</time>
      </trkpt>
      <trkpt lat="47.02307" lon="8.98557">
        <ele>855</ele>
        <time>2021-08-02T10:15:09.463Z</time>
      </trkpt>
      <trkpt lat="47.02306" lon="8.98556">
        <ele>855</ele>
        <time>2021-08-02T10:15:10.463Z</time>
      </trkpt>
      <trkpt lat="47.02305" lon="8.98555">
        <ele>855</ele>
        <time>2021-08-02T10:15:11.463Z</time>
      </trkpt>
      <trkpt lat="47.02305" lon="8.98554">
        <ele>854</ele>
        <time>2021-08-02T10:15:12.463Z</time>
      </trkpt>
      <trkpt lat="47.02305" lon="8.98553">
        <ele>854</ele>
        <time>2021-08-02T10:15:13.463Z</time>
      </trkpt>
      <trkpt lat="47.02304" lon="8.98551">
        <ele>853</ele>
        <time>2021-08-02T10:15:14.463Z</time>
      </trkpt>
      <trkpt lat="47.02304" lon="8.9855">
        <ele>853</ele>
        <time>2021-08-02T10:15:15.463Z</time>
      </trkpt>
      <trkpt lat="47.02304" lon="8.98548">
        <ele>853</ele>
        <time>2021-08-02T10:15:16.463Z</time>
      </trkpt>
      <trkpt lat="47.02304" lon="8.98546">
        <ele>853</ele>
        <time>2021-08-02T10:15:17.463Z</time>
      </trkpt>
      <trkpt lat="47.02304" lon="8.98544">
        <ele>853</ele>
        <time>2021-08-02T10:15:18.463Z</time>
      </trkpt>
      <trkpt lat="47.02304" lon="8.98543">
        <ele>852</ele>
        <time>2021-08-02T10:15:19.463Z</time>
      </trkpt>
      <trkpt lat="47.02303" lon="8.98542">
        <ele>852</ele>
        <time>2021-08-02T10:15:20.463Z</time>
      </trkpt>
      <trkpt lat="47.02303" lon="8.9854">
        <ele>852</ele>
        <time>2021-08-02T10:15:21.464Z</time>
      </trkpt>
      <trkpt lat="47.02302" lon="8.98538">
        <ele>852</ele>
        <time>2021-08-02T10:15:22.463Z</time>
      </trkpt>
      <trkpt lat="47.02301" lon="8.98537">
        <ele>852</ele>
        <time>2021-08-02T10:15:23.463Z</time>
      </trkpt>
      <trkpt lat="47.023" lon="8.98536">
        <ele>852</ele>
        <time>2021-08-02T10:15:24.463Z</time>
      </trkpt>
      <trkpt lat="47.023" lon="8.98535">
        <ele>852</ele>
        <time>2021-08-02T10:15:25.464Z</time>
      </trkpt>
      <trkpt lat="47.023" lon="8.98534">
        <ele>851</ele>
        <time>2021-08-02T10:15:26.463Z</time>
      </trkpt>
      <trkpt lat="47.023" lon="8.98531">
        <ele>851</ele>
        <time>2021-08-02T10:15:27.464Z</time>
      </trkpt>
      <trkpt lat="47.023" lon="8.98529">
        <ele>851</ele>
        <time>2021-08-02T10:15:28.464Z</time>
      </trkpt>
      <trkpt lat="47.023" lon="8.98528">
        <ele>851</ele>
        <time>2021-08-02T10:15:29.464Z</time>
      </trkpt>
      <trkpt lat="47.02299" lon="8.98527">
        <ele>851</ele>
        <time>2021-08-02T10:15:30.464Z</time>
      </trkpt>
      <trkpt lat="47.02298" lon="8.98525">
        <ele>851</ele>
        <time>2021-08-02T10:15:31.464Z</time>
      </trkpt>
      <trkpt lat="47.02298" lon="8.98524">
        <ele>852</ele>
        <time>2021-08-02T10:15:32.464Z</time>
      </trkpt>
      <trkpt lat="47.02297" lon="8.98522">
        <ele>852</ele>
        <time>2021-08-02T10:15:33.463Z</time>
      </trkpt>
      <trkpt lat="47.02297" lon="8.9852">
        <ele>853</ele>
        <time>2021-08-02T10:15:34.464Z</time>
      </trkpt>
      <trkpt lat="47.02295" lon="8.98519">
        <ele>853</ele>
        <time>2021-08-02T10:15:35.464Z</time>
      </trkpt>
      <trkpt lat="47.02294" lon="8.98517">
        <ele>854</ele>
        <time>2021-08-02T10:15:36.464Z</time>
      </trkpt>
      <trkpt lat="47.02293" lon="8.98516">
        <ele>854</ele>
        <time>2021-08-02T10:15:37.463Z</time>
      </trkpt>
      <trkpt lat="47.02292" lon="8.98515">
        <ele>853</ele>
        <time>2021-08-02T10:15:38.464Z</time>
      </trkpt>
      <trkpt lat="47.02291" lon="8.98514">
        <ele>853</ele>
        <time>2021-08-02T10:15:39.464Z</time>
      </trkpt>
      <trkpt lat="47.0229" lon="8.98512">
        <ele>853</ele>
        <time>2021-08-02T10:15:40.463Z</time>
      </trkpt>
      <trkpt lat="47.02287" lon="8.9851">
        <ele>852</ele>
        <time>2021-08-02T10:15:41.464Z</time>
      </trkpt>
      <trkpt lat="47.02286" lon="8.98508">
        <ele>852</ele>
        <time>2021-08-02T10:15:42.463Z</time>
      </trkpt>
      <trkpt lat="47.02285" lon="8.98506">
        <ele>851</ele>
        <time>2021-08-02T10:15:43.464Z</time>
      </trkpt>
      <trkpt lat="47.02284" lon="8.98504">
        <ele>851</ele>
        <time>2021-08-02T10:15:44.463Z</time>
      </trkpt>
      <trkpt lat="47.02283" lon="8.98503">
        <ele>851</ele>
        <time>2021-08-02T10:15:45.464Z</time>
      </trkpt>
      <trkpt lat="47.02283" lon="8.98502">
        <ele>852</ele>
        <time>2021-08-02T10:15:46.464Z</time>
      </trkpt>
      <trkpt lat="47.02283" lon="8.985">
        <ele>852</ele>
        <time>2021-08-02T10:15:47.464Z</time>
      </trkpt>
      <trkpt lat="47.02282" lon="8.98499">
        <ele>852</ele>
        <time>2021-08-02T10:15:48.463Z</time>
      </trkpt>
      <trkpt lat="47.02281" lon="8.98498">
        <ele>852</ele>
        <time>2021-08-02T10:15:49.464Z</time>
      </trkpt>
      <trkpt lat="47.0228" lon="8.98497">
        <ele>852</ele>
        <time>2021-08-02T10:15:50.464Z</time>
      </trkpt>
      <trkpt lat="47.02279" lon="8.98496">
        <ele>852</ele>
        <time>2021-08-02T10:15:51.464Z</time>
      </trkpt>
      <trkpt lat="47.02279" lon="8.98494">
        <ele>852</ele>
        <time>2021-08-02T10:15:52.464Z</time>
      </trkpt>
      <trkpt lat="47.02278" lon="8.98493">
        <ele>852</ele>
        <time>2021-08-02T10:15:53.464Z</time>
      </trkpt>
      <trkpt lat="47.02277" lon="8.98492">
        <ele>852</ele>
        <time>2021-08-02T10:15:54.464Z</time>
      </trkpt>
      <trkpt lat="47.02276" lon="8.98491">
        <ele>851</ele>
        <time>2021-08-02T10:15:55.464Z</time>
      </trkpt>
      <trkpt lat="47.02275" lon="8.98489">
        <ele>850</ele>
        <time>2021-08-02T10:15:56.464Z</time>
      </trkpt>
      <trkpt lat="47.02275" lon="8.98487">
        <ele>850</ele>
        <time>2021-08-02T10:15:57.463Z</time>
      </trkpt>
      <trkpt lat="47.02275" lon="8.98486">
        <ele>849</ele>
        <time>2021-08-02T10:15:58.464Z</time>
      </trkpt>
      <trkpt lat="47.02275" lon="8.98485">
        <ele>849</ele>
        <time>2021-08-02T10:15:59.464Z</time>
      </trkpt>
      <trkpt lat="47.02275" lon="8.98484">
        <ele>849</ele>
        <time>2021-08-02T10:16:00.464Z</time>
      </trkpt>
      <trkpt lat="47.02275" lon="8.98482">
        <ele>849</ele>
        <time>2021-08-02T10:16:01.464Z</time>
      </trkpt>
      <trkpt lat="47.02274" lon="8.98481">
        <ele>849</ele>
        <time>2021-08-02T10:16:07.548Z</time>
      </trkpt>
      <trkpt lat="47.02274" lon="8.98479">
        <ele>849</ele>
        <time>2021-08-02T10:16:08.549Z</time>
      </trkpt>
      <trkpt lat="47.02274" lon="8.98478">
        <ele>848</ele>
        <time>2021-08-02T10:16:09.549Z</time>
      </trkpt>
      <trkpt lat="47.02274" lon="8.98476">
        <ele>848</ele>
        <time>2021-08-02T10:16:10.549Z</time>
      </trkpt>
      <trkpt lat="47.02273" lon="8.98474">
        <ele>848</ele>
        <time>2021-08-02T10:16:11.549Z</time>
      </trkpt>
      <trkpt lat="47.02273" lon="8.98473">
        <ele>848</ele>
        <time>2021-08-02T10:16:12.549Z</time>
      </trkpt>
      <trkpt lat="47.02273" lon="8.98471">
        <ele>847</ele>
        <time>2021-08-02T10:16:13.549Z</time>
      </trkpt>
      <trkpt lat="47.02272" lon="8.9847">
        <ele>847</ele>
        <time>2021-08-02T10:16:14.549Z</time>
      </trkpt>
      <trkpt lat="47.02272" lon="8.98469">
        <ele>847</ele>
        <time>2021-08-02T10:16:15.548Z</time>
      </trkpt>
      <trkpt lat="47.02272" lon="8.98468">
        <ele>848</ele>
        <time>2021-08-02T10:16:16.549Z</time>
      </trkpt>
      <trkpt lat="47.02271" lon="8.98466">
        <ele>848</ele>
        <time>2021-08-02T10:16:17.549Z</time>
      </trkpt>
      <trkpt lat="47.02271" lon="8.98465">
        <ele>848</ele>
        <time>2021-08-02T10:16:18.549Z</time>
      </trkpt>
      <trkpt lat="47.02271" lon="8.98464">
        <ele>849</ele>
        <time>2021-08-02T10:16:19.549Z</time>
      </trkpt>
      <trkpt lat="47.02271" lon="8.98463">
        <ele>849</ele>
        <time>2021-08-02T10:16:20.549Z</time>
      </trkpt>
      <trkpt lat="47.02272" lon="8.98461">
        <ele>849</ele>
        <time>2021-08-02T10:16:21.548Z</time>
      </trkpt>
      <trkpt lat="47.02271" lon="8.98459">
        <ele>849</ele>
        <time>2021-08-02T10:16:22.549Z</time>
      </trkpt>
      <trkpt lat="47.02271" lon="8.98458">
        <ele>849</ele>
        <time>2021-08-02T10:16:23.549Z</time>
      </trkpt>
      <trkpt lat="47.02271" lon="8.98457">
        <ele>850</ele>
        <time>2021-08-02T10:16:24.548Z</time>
      </trkpt>
      <trkpt lat="47.0227" lon="8.98455">
        <ele>850</ele>
        <time>2021-08-02T10:16:25.549Z</time>
      </trkpt>
      <trkpt lat="47.0227" lon="8.98454">
        <ele>850</ele>
        <time>2021-08-02T10:16:26.548Z</time>
      </trkpt>
      <trkpt lat="47.0227" lon="8.98453">
        <ele>851</ele>
        <time>2021-08-02T10:16:27.549Z</time>
      </trkpt>
      <trkpt lat="47.0227" lon="8.98452">
        <ele>851</ele>
        <time>2021-08-02T10:16:28.549Z</time>
      </trkpt>
      <trkpt lat="47.0227" lon="8.98451">
        <ele>851</ele>
        <time>2021-08-02T10:16:29.549Z</time>
      </trkpt>
      <trkpt lat="47.02271" lon="8.98448">
        <ele>852</ele>
        <time>2021-08-02T10:16:30.548Z</time>
      </trkpt>
      <trkpt lat="47.02272" lon="8.98446">
        <ele>852</ele>
        <time>2021-08-02T10:16:31.548Z</time>
      </trkpt>
      <trkpt lat="47.02272" lon="8.98445">
        <ele>853</ele>
        <time>2021-08-02T10:16:32.549Z</time>
      </trkpt>
      <trkpt lat="47.02273" lon="8.98443">
        <ele>853</ele>
        <time>2021-08-02T10:16:33.548Z</time>
      </trkpt>
      <trkpt lat="47.02273" lon="8.98442">
        <ele>853</ele>
        <time>2021-08-02T10:16:34.548Z</time>
      </trkpt>
      <trkpt lat="47.02273" lon="8.98441">
        <ele>854</ele>
        <time>2021-08-02T10:16:35.549Z</time>
      </trkpt>
      <trkpt lat="47.02273" lon="8.9844">
        <ele>854</ele>
        <time>2021-08-02T10:16:36.549Z</time>
      </trkpt>
      <trkpt lat="47.02274" lon="8.98438">
        <ele>854</ele>
        <time>2021-08-02T10:16:37.549Z</time>
      </trkpt>
      <trkpt lat="47.02273" lon="8.98437">
        <ele>854</ele>
        <time>2021-08-02T10:16:38.548Z</time>
      </trkpt>
      <trkpt lat="47.02272" lon="8.98436">
        <ele>854</ele>
        <time>2021-08-02T10:16:39.549Z</time>
      </trkpt>
      <trkpt lat="47.02272" lon="8.98435">
        <ele>854</ele>
        <time>2021-08-02T10:16:40.549Z</time>
      </trkpt>
      <trkpt lat="47.02271" lon="8.98434">
        <ele>854</ele>
        <time>2021-08-02T10:16:41.549Z</time>
      </trkpt>
      <trkpt lat="47.0227" lon="8.98434">
        <ele>854</ele>
        <time>2021-08-02T10:16:42.548Z</time>
      </trkpt>
      <trkpt lat="47.0227" lon="8.98432">
        <ele>854</ele>
        <time>2021-08-02T10:16:43.549Z</time>
      </trkpt>
      <trkpt lat="47.0227" lon="8.98431">
        <ele>854</ele>
        <time>2021-08-02T10:16:44.548Z</time>
      </trkpt>
      <trkpt lat="47.0227" lon="8.98429">
        <ele>854</ele>
        <time>2021-08-02T10:16:45.548Z</time>
      </trkpt>
      <trkpt lat="47.0227" lon="8.98427">
        <ele>854</ele>
        <time>2021-08-02T10:16:46.549Z</time>
      </trkpt>
      <trkpt lat="47.0227" lon="8.98426">
        <ele>854</ele>
        <time>2021-08-02T10:16:47.549Z</time>
      </trkpt>
      <trkpt lat="47.0227" lon="8.98424">
        <ele>854</ele>
        <time>2021-08-02T10:16:48.549Z</time>
      </trkpt>
      <trkpt lat="47.0227" lon="8.98422">
        <ele>854</ele>
        <time>2021-08-02T10:16:49.548Z</time>
      </trkpt>
      <trkpt lat="47.02269" lon="8.98421">
        <ele>854</ele>
        <time>2021-08-02T10:16:50.549Z</time>
      </trkpt>
      <trkpt lat="47.02269" lon="8.9842">
        <ele>854</ele>
        <time>2021-08-02T10:16:51.549Z</time>
      </trkpt>
      <trkpt lat="47.02269" lon="8.98419">
        <ele>854</ele>
        <time>2021-08-02T10:16:52.549Z</time>
      </trkpt>
      <trkpt lat="47.02268" lon="8.98418">
        <ele>854</ele>
        <time>2021-08-02T10:16:53.549Z</time>
      </trkpt>
      <trkpt lat="47.02268" lon="8.98416">
        <ele>854</ele>
        <time>2021-08-02T10:16:54.548Z</time>
      </trkpt>
      <trkpt lat="47.02268" lon="8.98415">
        <ele>855</ele>
        <time>2021-08-02T10:16:55.549Z</time>
      </trkpt>
      <trkpt lat="47.02268" lon="8.98413">
        <ele>855</ele>
        <time>2021-08-02T10:16:56.549Z</time>
      </trkpt>
      <trkpt lat="47.02267" lon="8.98413">
        <ele>855</ele>
        <time>2021-08-02T10:16:57.549Z</time>
      </trkpt>
      <trkpt lat="47.02265" lon="8.98412">
        <ele>855</ele>
        <time>2021-08-02T10:16:58.548Z</time>
      </trkpt>
      <trkpt lat="47.02264" lon="8.98411">
        <ele>855</ele>
        <time>2021-08-02T10:16:59.548Z</time>
      </trkpt>
      <trkpt lat="47.02263" lon="8.9841">
        <ele>855</ele>
        <time>2021-08-02T10:17:00.549Z</time>
      </trkpt>
      <trkpt lat="47.02263" lon="8.98409">
        <ele>855</ele>
        <time>2021-08-02T10:17:01.549Z</time>
      </trkpt>
      <trkpt lat="47.02263" lon="8.98407">
        <ele>855</ele>
        <time>2021-08-02T10:17:02.549Z</time>
      </trkpt>
      <trkpt lat="47.02263" lon="8.98406">
        <ele>854</ele>
        <time>2021-08-02T10:17:03.549Z</time>
      </trkpt>
      <trkpt lat="47.02262" lon="8.98404">
        <ele>854</ele>
        <time>2021-08-02T10:17:04.549Z</time>
      </trkpt>
      <trkpt lat="47.02262" lon="8.98403">
        <ele>854</ele>
        <time>2021-08-02T10:17:05.549Z</time>
      </trkpt>
      <trkpt lat="47.02262" lon="8.98402">
        <ele>854</ele>
        <time>2021-08-02T10:17:06.548Z</time>
      </trkpt>
      <trkpt lat="47.02263" lon="8.984">
        <ele>854</ele>
        <time>2021-08-02T10:17:07.549Z</time>
      </trkpt>
      <trkpt lat="47.02263" lon="8.98398">
        <ele>854</ele>
        <time>2021-08-02T10:17:08.548Z</time>
      </trkpt>
      <trkpt lat="47.02263" lon="8.98397">
        <ele>854</ele>
        <time>2021-08-02T10:17:09.548Z</time>
      </trkpt>
      <trkpt lat="47.02262" lon="8.98396">
        <ele>855</ele>
        <time>2021-08-02T10:17:10.549Z</time>
      </trkpt>
      <trkpt lat="47.02261" lon="8.98395">
        <ele>855</ele>
        <time>2021-08-02T10:17:11.549Z</time>
      </trkpt>
      <trkpt lat="47.02261" lon="8.98394">
        <ele>855</ele>
        <time>2021-08-02T10:17:12.549Z</time>
      </trkpt>
      <trkpt lat="47.02261" lon="8.98393">
        <ele>855</ele>
        <time>2021-08-02T10:17:13.549Z</time>
      </trkpt>
      <trkpt lat="47.02261" lon="8.98392">
        <ele>856</ele>
        <time>2021-08-02T10:17:14.548Z</time>
      </trkpt>
      <trkpt lat="47.02262" lon="8.98391">
        <ele>856</ele>
        <time>2021-08-02T10:17:15.549Z</time>
      </trkpt>
      <trkpt lat="47.02262" lon="8.9839">
        <ele>857</ele>
        <time>2021-08-02T10:17:16.549Z</time>
      </trkpt>
      <trkpt lat="47.02263" lon="8.98389">
        <ele>857</ele>
        <time>2021-08-02T10:17:17.548Z</time>
      </trkpt>
      <trkpt lat="47.02263" lon="8.98388">
        <ele>858</ele>
        <time>2021-08-02T10:17:24.656Z</time>
      </trkpt>
      <trkpt lat="47.02264" lon="8.98386">
        <ele>858</ele>
        <time>2021-08-02T10:17:25.655Z</time>
      </trkpt>
      <trkpt lat="47.02264" lon="8.98385">
        <ele>859</ele>
        <time>2021-08-02T10:17:26.656Z</time>
      </trkpt>
      <trkpt lat="47.02264" lon="8.98384">
        <ele>859</ele>
        <time>2021-08-02T10:17:27.655Z</time>
      </trkpt>
      <trkpt lat="47.02264" lon="8.98383">
        <ele>859</ele>
        <time>2021-08-02T10:17:28.655Z</time>
      </trkpt>
      <trkpt lat="47.02265" lon="8.98381">
        <ele>860</ele>
        <time>2021-08-02T10:17:29.655Z</time>
      </trkpt>
      <trkpt lat="47.02266" lon="8.98379">
        <ele>860</ele>
        <time>2021-08-02T10:17:30.656Z</time>
      </trkpt>
      <trkpt lat="47.02267" lon="8.98377">
        <ele>860</ele>
        <time>2021-08-02T10:17:31.656Z</time>
      </trkpt>
      <trkpt lat="47.02268" lon="8.98375">
        <ele>860</ele>
        <time>2021-08-02T10:17:32.656Z</time>
      </trkpt>
      <trkpt lat="47.02269" lon="8.98373">
        <ele>859</ele>
        <time>2021-08-02T10:17:33.655Z</time>
      </trkpt>
      <trkpt lat="47.0227" lon="8.98371">
        <ele>859</ele>
        <time>2021-08-02T10:17:34.656Z</time>
      </trkpt>
      <trkpt lat="47.02272" lon="8.98369">
        <ele>859</ele>
        <time>2021-08-02T10:17:35.655Z</time>
      </trkpt>
      <trkpt lat="47.02272" lon="8.98367">
        <ele>858</ele>
        <time>2021-08-02T10:17:36.656Z</time>
      </trkpt>
      <trkpt lat="47.02273" lon="8.98365">
        <ele>857</ele>
        <time>2021-08-02T10:17:37.656Z</time>
      </trkpt>
      <trkpt lat="47.02274" lon="8.98363">
        <ele>856</ele>
        <time>2021-08-02T10:17:38.656Z</time>
      </trkpt>
      <trkpt lat="47.02275" lon="8.98361">
        <ele>855</ele>
        <time>2021-08-02T10:17:39.655Z</time>
      </trkpt>
      <trkpt lat="47.02276" lon="8.98359">
        <ele>855</ele>
        <time>2021-08-02T10:17:40.656Z</time>
      </trkpt>
      <trkpt lat="47.02278" lon="8.98357">
        <ele>854</ele>
        <time>2021-08-02T10:17:41.656Z</time>
      </trkpt>
      <trkpt lat="47.02278" lon="8.98355">
        <ele>854</ele>
        <time>2021-08-02T10:17:42.656Z</time>
      </trkpt>
      <trkpt lat="47.02278" lon="8.98353">
        <ele>853</ele>
        <time>2021-08-02T10:17:43.655Z</time>
      </trkpt>
      <trkpt lat="47.02278" lon="8.98352">
        <ele>853</ele>
        <time>2021-08-02T10:17:44.655Z</time>
      </trkpt>
      <trkpt lat="47.02278" lon="8.9835">
        <ele>852</ele>
        <time>2021-08-02T10:17:45.656Z</time>
      </trkpt>
      <trkpt lat="47.02278" lon="8.98349">
        <ele>851</ele>
        <time>2021-08-02T10:17:46.655Z</time>
      </trkpt>
      <trkpt lat="47.02278" lon="8.98348">
        <ele>851</ele>
        <time>2021-08-02T10:17:47.656Z</time>
      </trkpt>
      <trkpt lat="47.02279" lon="8.98347">
        <ele>850</ele>
        <time>2021-08-02T10:17:48.656Z</time>
      </trkpt>
      <trkpt lat="47.02279" lon="8.98345">
        <ele>850</ele>
        <time>2021-08-02T10:17:49.655Z</time>
      </trkpt>
      <trkpt lat="47.02279" lon="8.98344">
        <ele>849</ele>
        <time>2021-08-02T10:17:50.655Z</time>
      </trkpt>
      <trkpt lat="47.02279" lon="8.98343">
        <ele>849</ele>
        <time>2021-08-02T10:17:51.655Z</time>
      </trkpt>
      <trkpt lat="47.02279" lon="8.98341">
        <ele>848</ele>
        <time>2021-08-02T10:17:52.655Z</time>
      </trkpt>
      <trkpt lat="47.02279" lon="8.9834">
        <ele>848</ele>
        <time>2021-08-02T10:17:53.656Z</time>
      </trkpt>
      <trkpt lat="47.02279" lon="8.98338">
        <ele>848</ele>
        <time>2021-08-02T10:17:54.656Z</time>
      </trkpt>
      <trkpt lat="47.0228" lon="8.98337">
        <ele>847</ele>
        <time>2021-08-02T10:17:55.656Z</time>
      </trkpt>
      <trkpt lat="47.0228" lon="8.98335">
        <ele>847</ele>
        <time>2021-08-02T10:17:56.656Z</time>
      </trkpt>
      <trkpt lat="47.0228" lon="8.98333">
        <ele>847</ele>
        <time>2021-08-02T10:17:57.656Z</time>
      </trkpt>
      <trkpt lat="47.0228" lon="8.98332">
        <ele>846</ele>
        <time>2021-08-02T10:17:58.656Z</time>
      </trkpt>
      <trkpt lat="47.02281" lon="8.9833">
        <ele>846</ele>
        <time>2021-08-02T10:17:59.656Z</time>
      </trkpt>
      <trkpt lat="47.02281" lon="8.98328">
        <ele>845</ele>
        <time>2021-08-02T10:18:00.656Z</time>
      </trkpt>
      <trkpt lat="47.02283" lon="8.98324">
        <ele>845</ele>
        <time>2021-08-02T10:18:01.655Z</time>
      </trkpt>
      <trkpt lat="47.02284" lon="8.98321">
        <ele>845</ele>
        <time>2021-08-02T10:18:02.655Z</time>
      </trkpt>
      <trkpt lat="47.02285" lon="8.98319">
        <ele>844</ele>
        <time>2021-08-02T10:18:03.656Z</time>
      </trkpt>
      <trkpt lat="47.02287" lon="8.98317">
        <ele>844</ele>
        <time>2021-08-02T10:18:04.656Z</time>
      </trkpt>
      <trkpt lat="47.02289" lon="8.98315">
        <ele>844</ele>
        <time>2021-08-02T10:18:05.656Z</time>
      </trkpt>
      <trkpt lat="47.0229" lon="8.98314">
        <ele>844</ele>
        <time>2021-08-02T10:18:06.656Z</time>
      </trkpt>
      <trkpt lat="47.02291" lon="8.98313">
        <ele>844</ele>
        <time>2021-08-02T10:18:07.655Z</time>
      </trkpt>
      <trkpt lat="47.02292" lon="8.98312">
        <ele>844</ele>
        <time>2021-08-02T10:18:08.656Z</time>
      </trkpt>
      <trkpt lat="47.02293" lon="8.98311">
        <ele>843</ele>
        <time>2021-08-02T10:18:09.655Z</time>
      </trkpt>
      <trkpt lat="47.02293" lon="8.9831">
        <ele>843</ele>
        <time>2021-08-02T10:18:10.656Z</time>
      </trkpt>
      <trkpt lat="47.02294" lon="8.9831">
        <ele>843</ele>
        <time>2021-08-02T10:18:11.656Z</time>
      </trkpt>
      <trkpt lat="47.02295" lon="8.98309">
        <ele>842</ele>
        <time>2021-08-02T10:18:12.656Z</time>
      </trkpt>
      <trkpt lat="47.02295" lon="8.98308">
        <ele>842</ele>
        <time>2021-08-02T10:18:13.656Z</time>
      </trkpt>
      <trkpt lat="47.02296" lon="8.98306">
        <ele>842</ele>
        <time>2021-08-02T10:18:14.655Z</time>
      </trkpt>
      <trkpt lat="47.02295" lon="8.98304">
        <ele>841</ele>
        <time>2021-08-02T10:18:15.656Z</time>
      </trkpt>
      <trkpt lat="47.02295" lon="8.98302">
        <ele>841</ele>
        <time>2021-08-02T10:18:16.656Z</time>
      </trkpt>
      <trkpt lat="47.02294" lon="8.98301">
        <ele>840</ele>
        <time>2021-08-02T10:18:17.656Z</time>
      </trkpt>
      <trkpt lat="47.02295" lon="8.983">
        <ele>839</ele>
        <time>2021-08-02T10:18:18.656Z</time>
      </trkpt>
      <trkpt lat="47.02295" lon="8.98299">
        <ele>838</ele>
        <time>2021-08-02T10:18:19.655Z</time>
      </trkpt>
      <trkpt lat="47.02296" lon="8.98298">
        <ele>838</ele>
        <time>2021-08-02T10:18:20.655Z</time>
      </trkpt>
      <trkpt lat="47.02297" lon="8.98296">
        <ele>838</ele>
        <time>2021-08-02T10:18:21.656Z</time>
      </trkpt>
      <trkpt lat="47.02298" lon="8.98294">
        <ele>838</ele>
        <time>2021-08-02T10:18:22.655Z</time>
      </trkpt>
      <trkpt lat="47.02298" lon="8.98293">
        <ele>838</ele>
        <time>2021-08-02T10:18:23.656Z</time>
      </trkpt>
      <trkpt lat="47.02299" lon="8.98292">
        <ele>838</ele>
        <time>2021-08-02T10:18:24.655Z</time>
      </trkpt>
      <trkpt lat="47.02299" lon="8.98291">
        <ele>838</ele>
        <time>2021-08-02T10:18:25.656Z</time>
      </trkpt>
      <trkpt lat="47.02299" lon="8.98291">
        <ele>838</ele>
        <time>2021-08-02T10:18:26.656Z</time>
      </trkpt>
      <trkpt lat="47.02299" lon="8.9829">
        <ele>838</ele>
        <time>2021-08-02T10:18:27.656Z</time>
      </trkpt>
      <trkpt lat="47.02299" lon="8.9829">
        <ele>838</ele>
        <time>2021-08-02T10:18:28.656Z</time>
      </trkpt>
      <trkpt lat="47.023" lon="8.98289">
        <ele>838</ele>
        <time>2021-08-02T10:18:29.655Z</time>
      </trkpt>
      <trkpt lat="47.023" lon="8.98288">
        <ele>838</ele>
        <time>2021-08-02T10:18:30.656Z</time>
      </trkpt>
      <trkpt lat="47.02301" lon="8.98287">
        <ele>839</ele>
        <time>2021-08-02T10:18:31.656Z</time>
      </trkpt>
      <trkpt lat="47.02302" lon="8.98287">
        <ele>839</ele>
        <time>2021-08-02T10:18:32.655Z</time>
      </trkpt>
      <trkpt lat="47.02302" lon="8.98286">
        <ele>839</ele>
        <time>2021-08-02T10:18:33.656Z</time>
      </trkpt>
      <trkpt lat="47.02303" lon="8.98286">
        <ele>840</ele>
        <time>2021-08-02T10:18:34.655Z</time>
      </trkpt>
      <trkpt lat="47.02304" lon="8.98286">
        <ele>840</ele>
        <time>2021-08-02T10:18:35.656Z</time>
      </trkpt>
      <trkpt lat="47.02305" lon="8.98286">
        <ele>840</ele>
        <time>2021-08-02T10:18:36.656Z</time>
      </trkpt>
      <trkpt lat="47.02306" lon="8.98285">
        <ele>840</ele>
        <time>2021-08-02T10:18:37.656Z</time>
      </trkpt>
      <trkpt lat="47.02306" lon="8.98284">
        <ele>841</ele>
        <time>2021-08-02T10:18:38.656Z</time>
      </trkpt>
      <trkpt lat="47.02307" lon="8.98283">
        <ele>841</ele>
        <time>2021-08-02T10:18:39.655Z</time>
      </trkpt>
      <trkpt lat="47.02308" lon="8.98282">
        <ele>841</ele>
        <time>2021-08-02T10:18:40.655Z</time>
      </trkpt>
      <trkpt lat="47.02309" lon="8.98281">
        <ele>842</ele>
        <time>2021-08-02T10:18:41.655Z</time>
      </trkpt>
      <trkpt lat="47.02309" lon="8.98279">
        <ele>842</ele>
        <time>2021-08-02T10:18:42.655Z</time>
      </trkpt>
      <trkpt lat="47.0231" lon="8.98277">
        <ele>843</ele>
        <time>2021-08-02T10:18:43.656Z</time>
      </trkpt>
      <trkpt lat="47.0231" lon="8.98276">
        <ele>843</ele>
        <time>2021-08-02T10:18:44.655Z</time>
      </trkpt>
      <trkpt lat="47.02309" lon="8.98275">
        <ele>844</ele>
        <time>2021-08-02T10:18:45.656Z</time>
      </trkpt>
      <trkpt lat="47.0231" lon="8.98273">
        <ele>844</ele>
        <time>2021-08-02T10:18:46.656Z</time>
      </trkpt>
      <trkpt lat="47.0231" lon="8.98272">
        <ele>844</ele>
        <time>2021-08-02T10:18:47.656Z</time>
      </trkpt>
      <trkpt lat="47.02311" lon="8.9827">
        <ele>844</ele>
        <time>2021-08-02T10:18:48.655Z</time>
      </trkpt>
      <trkpt lat="47.02311" lon="8.98268">
        <ele>844</ele>
        <time>2021-08-02T10:18:49.656Z</time>
      </trkpt>
      <trkpt lat="47.02311" lon="8.98266">
        <ele>844</ele>
        <time>2021-08-02T10:18:50.656Z</time>
      </trkpt>
      <trkpt lat="47.02312" lon="8.98265">
        <ele>845</ele>
        <time>2021-08-02T10:18:51.656Z</time>
      </trkpt>
      <trkpt lat="47.02312" lon="8.98263">
        <ele>845</ele>
        <time>2021-08-02T10:18:52.656Z</time>
      </trkpt>
      <trkpt lat="47.02312" lon="8.98261">
        <ele>846</ele>
        <time>2021-08-02T10:18:53.656Z</time>
      </trkpt>
      <trkpt lat="47.02313" lon="8.98259">
        <ele>847</ele>
        <time>2021-08-02T10:18:54.655Z</time>
      </trkpt>
      <trkpt lat="47.02313" lon="8.98257">
        <ele>847</ele>
        <time>2021-08-02T10:18:55.656Z</time>
      </trkpt>
      <trkpt lat="47.02314" lon="8.98255">
        <ele>848</ele>
        <time>2021-08-02T10:18:56.656Z</time>
      </trkpt>
      <trkpt lat="47.02315" lon="8.98253">
        <ele>848</ele>
        <time>2021-08-02T10:18:57.656Z</time>
      </trkpt>
      <trkpt lat="47.02316" lon="8.9825">
        <ele>849</ele>
        <time>2021-08-02T10:18:58.656Z</time>
      </trkpt>
      <trkpt lat="47.02316" lon="8.98247">
        <ele>849</ele>
        <time>2021-08-02T10:18:59.655Z</time>
      </trkpt>
      <trkpt lat="47.02316" lon="8.98245">
        <ele>849</ele>
        <time>2021-08-02T10:19:00.656Z</time>
      </trkpt>
      <trkpt lat="47.02315" lon="8.98244">
        <ele>848</ele>
        <time>2021-08-02T10:19:01.656Z</time>
      </trkpt>
      <trkpt lat="47.02316" lon="8.98243">
        <ele>848</ele>
        <time>2021-08-02T10:19:02.655Z</time>
      </trkpt>
      <trkpt lat="47.02316" lon="8.98241">
        <ele>848</ele>
        <time>2021-08-02T10:19:03.655Z</time>
      </trkpt>
      <trkpt lat="47.02316" lon="8.9824">
        <ele>848</ele>
        <time>2021-08-02T10:19:04.656Z</time>
      </trkpt>
      <trkpt lat="47.02315" lon="8.98238">
        <ele>848</ele>
        <time>2021-08-02T10:19:05.656Z</time>
      </trkpt>
      <trkpt lat="47.02316" lon="8.98237">
        <ele>849</ele>
        <time>2021-08-02T10:19:06.655Z</time>
      </trkpt>
      <trkpt lat="47.02315" lon="8.98234">
        <ele>849</ele>
        <time>2021-08-02T10:19:07.655Z</time>
      </trkpt>
      <trkpt lat="47.02314" lon="8.98232">
        <ele>850</ele>
        <time>2021-08-02T10:19:08.656Z</time>
      </trkpt>
      <trkpt lat="47.02312" lon="8.9823">
        <ele>850</ele>
        <time>2021-08-02T10:19:09.655Z</time>
      </trkpt>
      <trkpt lat="47.0231" lon="8.98228">
        <ele>850</ele>
        <time>2021-08-02T10:19:10.656Z</time>
      </trkpt>
      <trkpt lat="47.02309" lon="8.98227">
        <ele>850</ele>
        <time>2021-08-02T10:19:11.655Z</time>
      </trkpt>
      <trkpt lat="47.02308" lon="8.98227">
        <ele>850</ele>
        <time>2021-08-02T10:19:12.656Z</time>
      </trkpt>
      <trkpt lat="47.02308" lon="8.98226">
        <ele>850</ele>
        <time>2021-08-02T10:19:13.656Z</time>
      </trkpt>
      <trkpt lat="47.02307" lon="8.98225">
        <ele>850</ele>
        <time>2021-08-02T10:19:14.656Z</time>
      </trkpt>
      <trkpt lat="47.02306" lon="8.98224">
        <ele>849</ele>
        <time>2021-08-02T10:19:15.656Z</time>
      </trkpt>
      <trkpt lat="47.02305" lon="8.98222">
        <ele>849</ele>
        <time>2021-08-02T10:19:16.655Z</time>
      </trkpt>
      <trkpt lat="47.02304" lon="8.98221">
        <ele>848</ele>
        <time>2021-08-02T10:19:17.656Z</time>
      </trkpt>
      <trkpt lat="47.02304" lon="8.9822">
        <ele>848</ele>
        <time>2021-08-02T10:19:18.656Z</time>
      </trkpt>
      <trkpt lat="47.02303" lon="8.98219">
        <ele>847</ele>
        <time>2021-08-02T10:19:19.656Z</time>
      </trkpt>
      <trkpt lat="47.02302" lon="8.98218">
        <ele>846</ele>
        <time>2021-08-02T10:19:20.656Z</time>
      </trkpt>
      <trkpt lat="47.02301" lon="8.98217">
        <ele>846</ele>
        <time>2021-08-02T10:19:21.656Z</time>
      </trkpt>
      <trkpt lat="47.023" lon="8.98215">
        <ele>846</ele>
        <time>2021-08-02T10:19:22.655Z</time>
      </trkpt>
      <trkpt lat="47.02299" lon="8.98214">
        <ele>846</ele>
        <time>2021-08-02T10:19:23.656Z</time>
      </trkpt>
      <trkpt lat="47.02297" lon="8.98213">
        <ele>846</ele>
        <time>2021-08-02T10:19:24.656Z</time>
      </trkpt>
      <trkpt lat="47.02297" lon="8.98211">
        <ele>846</ele>
        <time>2021-08-02T10:19:25.656Z</time>
      </trkpt>
      <trkpt lat="47.02296" lon="8.98209">
        <ele>846</ele>
        <time>2021-08-02T10:19:26.656Z</time>
      </trkpt>
      <trkpt lat="47.02295" lon="8.98208">
        <ele>847</ele>
        <time>2021-08-02T10:19:27.656Z</time>
      </trkpt>
      <trkpt lat="47.02295" lon="8.98208">
        <ele>847</ele>
        <time>2021-08-02T10:19:28.656Z</time>
      </trkpt>
      <trkpt lat="47.02295" lon="8.98207">
        <ele>847</ele>
        <time>2021-08-02T10:19:29.655Z</time>
      </trkpt>
      <trkpt lat="47.02295" lon="8.98206">
        <ele>847</ele>
        <time>2021-08-02T10:19:30.656Z</time>
      </trkpt>
      <trkpt lat="47.02295" lon="8.98204">
        <ele>847</ele>
        <time>2021-08-02T10:19:31.655Z</time>
      </trkpt>
      <trkpt lat="47.02295" lon="8.98202">
        <ele>847</ele>
        <time>2021-08-02T10:19:32.656Z</time>
      </trkpt>
      <trkpt lat="47.02295" lon="8.98201">
        <ele>848</ele>
        <time>2021-08-02T10:19:33.656Z</time>
      </trkpt>
      <trkpt lat="47.02295" lon="8.98199">
        <ele>848</ele>
        <time>2021-08-02T10:19:34.656Z</time>
      </trkpt>
      <trkpt lat="47.02295" lon="8.98198">
        <ele>848</ele>
        <time>2021-08-02T10:19:35.656Z</time>
      </trkpt>
      <trkpt lat="47.02294" lon="8.98196">
        <ele>848</ele>
        <time>2021-08-02T10:19:36.656Z</time>
      </trkpt>
      <trkpt lat="47.02294" lon="8.98195">
        <ele>849</ele>
        <time>2021-08-02T10:19:37.656Z</time>
      </trkpt>
      <trkpt lat="47.02293" lon="8.98194">
        <ele>850</ele>
        <time>2021-08-02T10:19:38.655Z</time>
      </trkpt>
      <trkpt lat="47.02293" lon="8.98193">
        <ele>850</ele>
        <time>2021-08-02T10:19:39.655Z</time>
      </trkpt>
      <trkpt lat="47.02293" lon="8.98193">
        <ele>850</ele>
        <time>2021-08-02T10:19:40.655Z</time>
      </trkpt>
      <trkpt lat="47.02292" lon="8.98192">
        <ele>851</ele>
        <time>2021-08-02T10:19:41.655Z</time>
      </trkpt>
      <trkpt lat="47.02292" lon="8.98191">
        <ele>851</ele>
        <time>2021-08-02T10:19:42.656Z</time>
      </trkpt>
      <trkpt lat="47.02292" lon="8.9819">
        <ele>851</ele>
        <time>2021-08-02T10:19:43.656Z</time>
      </trkpt>
      <trkpt lat="47.02292" lon="8.98189">
        <ele>852</ele>
        <time>2021-08-02T10:19:44.656Z</time>
      </trkpt>
      <trkpt lat="47.02292" lon="8.98187">
        <ele>852</ele>
        <time>2021-08-02T10:19:45.655Z</time>
      </trkpt>
      <trkpt lat="47.02292" lon="8.98186">
        <ele>852</ele>
        <time>2021-08-02T10:19:46.656Z</time>
      </trkpt>
      <trkpt lat="47.02293" lon="8.98184">
        <ele>852</ele>
        <time>2021-08-02T10:19:47.655Z</time>
      </trkpt>
      <trkpt lat="47.02292" lon="8.98183">
        <ele>852</ele>
        <time>2021-08-02T10:19:48.655Z</time>
      </trkpt>
      <trkpt lat="47.02292" lon="8.98181">
        <ele>852</ele>
        <time>2021-08-02T10:19:49.655Z</time>
      </trkpt>
      <trkpt lat="47.02291" lon="8.98179">
        <ele>852</ele>
        <time>2021-08-02T10:19:50.656Z</time>
      </trkpt>
      <trkpt lat="47.02291" lon="8.98177">
        <ele>851</ele>
        <time>2021-08-02T10:19:51.655Z</time>
      </trkpt>
      <trkpt lat="47.02292" lon="8.98176">
        <ele>851</ele>
        <time>2021-08-02T10:19:52.656Z</time>
      </trkpt>
      <trkpt lat="47.02292" lon="8.98174">
        <ele>851</ele>
        <time>2021-08-02T10:19:53.656Z</time>
      </trkpt>
      <trkpt lat="47.02292" lon="8.98173">
        <ele>850</ele>
        <time>2021-08-02T10:19:54.655Z</time>
      </trkpt>
      <trkpt lat="47.02292" lon="8.98172">
        <ele>851</ele>
        <time>2021-08-02T10:19:55.656Z</time>
      </trkpt>
      <trkpt lat="47.02291" lon="8.9817">
        <ele>851</ele>
        <time>2021-08-02T10:19:56.656Z</time>
      </trkpt>
      <trkpt lat="47.02291" lon="8.98169">
        <ele>851</ele>
        <time>2021-08-02T10:19:57.656Z</time>
      </trkpt>
      <trkpt lat="47.02291" lon="8.98168">
        <ele>852</ele>
        <time>2021-08-02T10:19:58.655Z</time>
      </trkpt>
      <trkpt lat="47.02291" lon="8.98167">
        <ele>852</ele>
        <time>2021-08-02T10:19:59.656Z</time>
      </trkpt>
      <trkpt lat="47.02291" lon="8.98165">
        <ele>853</ele>
        <time>2021-08-02T10:20:00.656Z</time>
      </trkpt>
      <trkpt lat="47.02291" lon="8.98163">
        <ele>853</ele>
        <time>2021-08-02T10:20:01.656Z</time>
      </trkpt>
      <trkpt lat="47.02291" lon="8.98161">
        <ele>853</ele>
        <time>2021-08-02T10:20:02.656Z</time>
      </trkpt>
      <trkpt lat="47.02292" lon="8.98159">
        <ele>853</ele>
        <time>2021-08-02T10:20:03.656Z</time>
      </trkpt>
      <trkpt lat="47.02292" lon="8.98158">
        <ele>854</ele>
        <time>2021-08-02T10:20:04.655Z</time>
      </trkpt>
      <trkpt lat="47.02292" lon="8.98157">
        <ele>854</ele>
        <time>2021-08-02T10:20:05.655Z</time>
      </trkpt>
      <trkpt lat="47.02291" lon="8.98155">
        <ele>855</ele>
        <time>2021-08-02T10:20:06.656Z</time>
      </trkpt>
      <trkpt lat="47.02291" lon="8.98154">
        <ele>855</ele>
        <time>2021-08-02T10:20:07.656Z</time>
      </trkpt>
      <trkpt lat="47.02291" lon="8.98153">
        <ele>856</ele>
        <time>2021-08-02T10:20:08.656Z</time>
      </trkpt>
      <trkpt lat="47.02291" lon="8.98151">
        <ele>856</ele>
        <time>2021-08-02T10:20:09.656Z</time>
      </trkpt>
      <trkpt lat="47.02291" lon="8.9815">
        <ele>857</ele>
        <time>2021-08-02T10:20:10.656Z</time>
      </trkpt>
      <trkpt lat="47.02291" lon="8.98149">
        <ele>856</ele>
        <time>2021-08-02T10:20:11.655Z</time>
      </trkpt>
      <trkpt lat="47.0229" lon="8.98148">
        <ele>856</ele>
        <time>2021-08-02T10:20:12.656Z</time>
      </trkpt>
      <trkpt lat="47.02291" lon="8.98146">
        <ele>856</ele>
        <time>2021-08-02T10:20:13.655Z</time>
      </trkpt>
      <trkpt lat="47.0229" lon="8.98145">
        <ele>856</ele>
        <time>2021-08-02T10:20:14.656Z</time>
      </trkpt>
      <trkpt lat="47.0229" lon="8.98144">
        <ele>857</ele>
        <time>2021-08-02T10:20:15.656Z</time>
      </trkpt>
      <trkpt lat="47.0229" lon="8.98142">
        <ele>857</ele>
        <time>2021-08-02T10:20:16.655Z</time>
      </trkpt>
      <trkpt lat="47.0229" lon="8.98141">
        <ele>857</ele>
        <time>2021-08-02T10:20:17.656Z</time>
      </trkpt>
      <trkpt lat="47.02291" lon="8.98139">
        <ele>857</ele>
        <time>2021-08-02T10:20:18.655Z</time>
      </trkpt>
      <trkpt lat="47.02291" lon="8.98137">
        <ele>857</ele>
        <time>2021-08-02T10:20:19.655Z</time>
      </trkpt>
      <trkpt lat="47.0229" lon="8.98136">
        <ele>857</ele>
        <time>2021-08-02T10:20:20.656Z</time>
      </trkpt>
      <trkpt lat="47.0229" lon="8.98135">
        <ele>857</ele>
        <time>2021-08-02T10:20:21.656Z</time>
      </trkpt>
      <trkpt lat="47.0229" lon="8.98133">
        <ele>857</ele>
        <time>2021-08-02T10:20:22.655Z</time>
      </trkpt>
      <trkpt lat="47.02291" lon="8.98132">
        <ele>857</ele>
        <time>2021-08-02T10:20:23.655Z</time>
      </trkpt>
      <trkpt lat="47.02292" lon="8.9813">
        <ele>857</ele>
        <time>2021-08-02T10:20:24.656Z</time>
      </trkpt>
      <trkpt lat="47.02291" lon="8.98129">
        <ele>857</ele>
        <time>2021-08-02T10:20:25.655Z</time>
      </trkpt>
      <trkpt lat="47.02291" lon="8.98128">
        <ele>857</ele>
        <time>2021-08-02T10:20:26.655Z</time>
      </trkpt>
      <trkpt lat="47.0229" lon="8.98126">
        <ele>856</ele>
        <time>2021-08-02T10:20:27.656Z</time>
      </trkpt>
      <trkpt lat="47.02289" lon="8.98125">
        <ele>856</ele>
        <time>2021-08-02T10:20:28.655Z</time>
      </trkpt>
      <trkpt lat="47.02287" lon="8.98125">
        <ele>855</ele>
        <time>2021-08-02T10:20:29.655Z</time>
      </trkpt>
      <trkpt lat="47.02286" lon="8.98123">
        <ele>855</ele>
        <time>2021-08-02T10:20:30.655Z</time>
      </trkpt>
      <trkpt lat="47.02286" lon="8.98122">
        <ele>855</ele>
        <time>2021-08-02T10:20:31.656Z</time>
      </trkpt>
      <trkpt lat="47.02285" lon="8.9812">
        <ele>855</ele>
        <time>2021-08-02T10:20:32.656Z</time>
      </trkpt>
      <trkpt lat="47.02285" lon="8.98119">
        <ele>855</ele>
        <time>2021-08-02T10:20:33.656Z</time>
      </trkpt>
      <trkpt lat="47.02285" lon="8.98117">
        <ele>856</ele>
        <time>2021-08-02T10:20:34.656Z</time>
      </trkpt>
      <trkpt lat="47.02284" lon="8.98116">
        <ele>856</ele>
        <time>2021-08-02T10:20:35.655Z</time>
      </trkpt>
      <trkpt lat="47.02284" lon="8.98116">
        <ele>857</ele>
        <time>2021-08-02T10:20:36.656Z</time>
      </trkpt>
      <trkpt lat="47.02283" lon="8.98115">
        <ele>858</ele>
        <time>2021-08-02T10:20:37.655Z</time>
      </trkpt>
      <trkpt lat="47.02283" lon="8.98114">
        <ele>858</ele>
        <time>2021-08-02T10:20:38.655Z</time>
      </trkpt>
      <trkpt lat="47.02283" lon="8.98113">
        <ele>858</ele>
        <time>2021-08-02T10:20:39.655Z</time>
      </trkpt>
      <trkpt lat="47.02282" lon="8.98112">
        <ele>858</ele>
        <time>2021-08-02T10:20:40.655Z</time>
      </trkpt>
      <trkpt lat="47.02281" lon="8.98111">
        <ele>857</ele>
        <time>2021-08-02T10:20:41.656Z</time>
      </trkpt>
      <trkpt lat="47.0228" lon="8.9811">
        <ele>857</ele>
        <time>2021-08-02T10:20:42.655Z</time>
      </trkpt>
      <trkpt lat="47.02279" lon="8.98109">
        <ele>857</ele>
        <time>2021-08-02T10:20:43.655Z</time>
      </trkpt>
      <trkpt lat="47.02278" lon="8.98108">
        <ele>857</ele>
        <time>2021-08-02T10:20:44.656Z</time>
      </trkpt>
      <trkpt lat="47.02278" lon="8.98107">
        <ele>857</ele>
        <time>2021-08-02T10:20:45.655Z</time>
      </trkpt>
      <trkpt lat="47.02278" lon="8.98104">
        <ele>857</ele>
        <time>2021-08-02T10:20:46.656Z</time>
      </trkpt>
      <trkpt lat="47.02278" lon="8.98103">
        <ele>857</ele>
        <time>2021-08-02T10:20:47.656Z</time>
      </trkpt>
      <trkpt lat="47.02278" lon="8.98102">
        <ele>857</ele>
        <time>2021-08-02T10:20:48.655Z</time>
      </trkpt>
      <trkpt lat="47.02278" lon="8.981">
        <ele>857</ele>
        <time>2021-08-02T10:20:49.656Z</time>
      </trkpt>
      <trkpt lat="47.02279" lon="8.98098">
        <ele>857</ele>
        <time>2021-08-02T10:20:50.655Z</time>
      </trkpt>
      <trkpt lat="47.02279" lon="8.98095">
        <ele>857</ele>
        <time>2021-08-02T10:20:51.655Z</time>
      </trkpt>
      <trkpt lat="47.02278" lon="8.98093">
        <ele>857</ele>
        <time>2021-08-02T10:20:52.655Z</time>
      </trkpt>
      <trkpt lat="47.02277" lon="8.98091">
        <ele>857</ele>
        <time>2021-08-02T10:20:53.656Z</time>
      </trkpt>
      <trkpt lat="47.02277" lon="8.9809">
        <ele>857</ele>
        <time>2021-08-02T10:20:54.656Z</time>
      </trkpt>
      <trkpt lat="47.02276" lon="8.98089">
        <ele>858</ele>
        <time>2021-08-02T10:20:55.656Z</time>
      </trkpt>
      <trkpt lat="47.02276" lon="8.98088">
        <ele>858</ele>
        <time>2021-08-02T10:20:56.655Z</time>
      </trkpt>
      <trkpt lat="47.02276" lon="8.98087">
        <ele>858</ele>
        <time>2021-08-02T10:20:57.656Z</time>
      </trkpt>
      <trkpt lat="47.02275" lon="8.98086">
        <ele>858</ele>
        <time>2021-08-02T10:20:58.656Z</time>
      </trkpt>
      <trkpt lat="47.02275" lon="8.98085">
        <ele>859</ele>
        <time>2021-08-02T10:20:59.656Z</time>
      </trkpt>
      <trkpt lat="47.02275" lon="8.98084">
        <ele>858</ele>
        <time>2021-08-02T10:21:00.655Z</time>
      </trkpt>
      <trkpt lat="47.02275" lon="8.98082">
        <ele>858</ele>
        <time>2021-08-02T10:21:01.656Z</time>
      </trkpt>
      <trkpt lat="47.02275" lon="8.9808">
        <ele>857</ele>
        <time>2021-08-02T10:21:02.656Z</time>
      </trkpt>
      <trkpt lat="47.02274" lon="8.98078">
        <ele>856</ele>
        <time>2021-08-02T10:21:03.655Z</time>
      </trkpt>
      <trkpt lat="47.02273" lon="8.98077">
        <ele>856</ele>
        <time>2021-08-02T10:21:04.655Z</time>
      </trkpt>
      <trkpt lat="47.02271" lon="8.98075">
        <ele>856</ele>
        <time>2021-08-02T10:21:05.655Z</time>
      </trkpt>
      <trkpt lat="47.0227" lon="8.98074">
        <ele>856</ele>
        <time>2021-08-02T10:21:06.656Z</time>
      </trkpt>
      <trkpt lat="47.02269" lon="8.98073">
        <ele>856</ele>
        <time>2021-08-02T10:21:07.655Z</time>
      </trkpt>
      <trkpt lat="47.02268" lon="8.98071">
        <ele>856</ele>
        <time>2021-08-02T10:21:08.656Z</time>
      </trkpt>
      <trkpt lat="47.02267" lon="8.9807">
        <ele>856</ele>
        <time>2021-08-02T10:21:09.656Z</time>
      </trkpt>
      <trkpt lat="47.02267" lon="8.98069">
        <ele>856</ele>
        <time>2021-08-02T10:21:10.656Z</time>
      </trkpt>
      <trkpt lat="47.02266" lon="8.98068">
        <ele>856</ele>
        <time>2021-08-02T10:21:11.656Z</time>
      </trkpt>
      <trkpt lat="47.02266" lon="8.98066">
        <ele>856</ele>
        <time>2021-08-02T10:21:12.656Z</time>
      </trkpt>
      <trkpt lat="47.02266" lon="8.98065">
        <ele>856</ele>
        <time>2021-08-02T10:21:13.656Z</time>
      </trkpt>
      <trkpt lat="47.02265" lon="8.98063">
        <ele>855</ele>
        <time>2021-08-02T10:21:14.656Z</time>
      </trkpt>
      <trkpt lat="47.02264" lon="8.98062">
        <ele>855</ele>
        <time>2021-08-02T10:21:15.655Z</time>
      </trkpt>
      <trkpt lat="47.02263" lon="8.9806">
        <ele>855</ele>
        <time>2021-08-02T10:21:16.656Z</time>
      </trkpt>
      <trkpt lat="47.02262" lon="8.98059">
        <ele>855</ele>
        <time>2021-08-02T10:21:17.656Z</time>
      </trkpt>
      <trkpt lat="47.0226" lon="8.98057">
        <ele>854</ele>
        <time>2021-08-02T10:21:18.655Z</time>
      </trkpt>
      <trkpt lat="47.02259" lon="8.98056">
        <ele>854</ele>
        <time>2021-08-02T10:21:19.655Z</time>
      </trkpt>
      <trkpt lat="47.02258" lon="8.98056">
        <ele>854</ele>
        <time>2021-08-02T10:21:20.656Z</time>
      </trkpt>
      <trkpt lat="47.02257" lon="8.98055">
        <ele>854</ele>
        <time>2021-08-02T10:21:21.656Z</time>
      </trkpt>
      <trkpt lat="47.02257" lon="8.98054">
        <ele>854</ele>
        <time>2021-08-02T10:21:22.656Z</time>
      </trkpt>
      <trkpt lat="47.02257" lon="8.98053">
        <ele>854</ele>
        <time>2021-08-02T10:21:23.655Z</time>
      </trkpt>
      <trkpt lat="47.02256" lon="8.98052">
        <ele>854</ele>
        <time>2021-08-02T10:21:24.655Z</time>
      </trkpt>
      <trkpt lat="47.02255" lon="8.9805">
        <ele>854</ele>
        <time>2021-08-02T10:21:25.655Z</time>
      </trkpt>
      <trkpt lat="47.02255" lon="8.98049">
        <ele>855</ele>
        <time>2021-08-02T10:21:26.655Z</time>
      </trkpt>
      <trkpt lat="47.02255" lon="8.98047">
        <ele>855</ele>
        <time>2021-08-02T10:21:27.655Z</time>
      </trkpt>
      <trkpt lat="47.02254" lon="8.98045">
        <ele>855</ele>
        <time>2021-08-02T10:21:28.655Z</time>
      </trkpt>
      <trkpt lat="47.02254" lon="8.98042">
        <ele>855</ele>
        <time>2021-08-02T10:21:29.655Z</time>
      </trkpt>
      <trkpt lat="47.02254" lon="8.9804">
        <ele>855</ele>
        <time>2021-08-02T10:21:30.655Z</time>
      </trkpt>
      <trkpt lat="47.02253" lon="8.98039">
        <ele>855</ele>
        <time>2021-08-02T10:21:31.656Z</time>
      </trkpt>
      <trkpt lat="47.02253" lon="8.98038">
        <ele>855</ele>
        <time>2021-08-02T10:21:32.655Z</time>
      </trkpt>
      <trkpt lat="47.02253" lon="8.98036">
        <ele>855</ele>
        <time>2021-08-02T10:21:33.655Z</time>
      </trkpt>
      <trkpt lat="47.02252" lon="8.98035">
        <ele>855</ele>
        <time>2021-08-02T10:21:34.655Z</time>
      </trkpt>
      <trkpt lat="47.02252" lon="8.98034">
        <ele>855</ele>
        <time>2021-08-02T10:21:35.655Z</time>
      </trkpt>
      <trkpt lat="47.02251" lon="8.98032">
        <ele>855</ele>
        <time>2021-08-02T10:21:36.656Z</time>
      </trkpt>
      <trkpt lat="47.02251" lon="8.98031">
        <ele>855</ele>
        <time>2021-08-02T10:21:37.656Z</time>
      </trkpt>
      <trkpt lat="47.0225" lon="8.98031">
        <ele>855</ele>
        <time>2021-08-02T10:21:38.656Z</time>
      </trkpt>
      <trkpt lat="47.02251" lon="8.9803">
        <ele>855</ele>
        <time>2021-08-02T10:21:39.656Z</time>
      </trkpt>
      <trkpt lat="47.0225" lon="8.98028">
        <ele>855</ele>
        <time>2021-08-02T10:21:40.656Z</time>
      </trkpt>
      <trkpt lat="47.02249" lon="8.98026">
        <ele>855</ele>
        <time>2021-08-02T10:21:41.655Z</time>
      </trkpt>
      <trkpt lat="47.02249" lon="8.98025">
        <ele>855</ele>
        <time>2021-08-02T10:21:42.656Z</time>
      </trkpt>
      <trkpt lat="47.02248" lon="8.98024">
        <ele>854</ele>
        <time>2021-08-02T10:21:43.655Z</time>
      </trkpt>
      <trkpt lat="47.02248" lon="8.98024">
        <ele>854</ele>
        <time>2021-08-02T10:21:44.656Z</time>
      </trkpt>
      <trkpt lat="47.02247" lon="8.98023">
        <ele>854</ele>
        <time>2021-08-02T10:21:45.655Z</time>
      </trkpt>
      <trkpt lat="47.02247" lon="8.98022">
        <ele>854</ele>
        <time>2021-08-02T10:21:46.656Z</time>
      </trkpt>
      <trkpt lat="47.02246" lon="8.98021">
        <ele>854</ele>
        <time>2021-08-02T10:21:47.656Z</time>
      </trkpt>
      <trkpt lat="47.02247" lon="8.9802">
        <ele>854</ele>
        <time>2021-08-02T10:21:48.655Z</time>
      </trkpt>
      <trkpt lat="47.02246" lon="8.98018">
        <ele>854</ele>
        <time>2021-08-02T10:21:49.656Z</time>
      </trkpt>
      <trkpt lat="47.02246" lon="8.98016">
        <ele>854</ele>
        <time>2021-08-02T10:21:50.655Z</time>
      </trkpt>
      <trkpt lat="47.02246" lon="8.98015">
        <ele>854</ele>
        <time>2021-08-02T10:21:51.655Z</time>
      </trkpt>
      <trkpt lat="47.02246" lon="8.98013">
        <ele>854</ele>
        <time>2021-08-02T10:21:52.655Z</time>
      </trkpt>
      <trkpt lat="47.02245" lon="8.98011">
        <ele>855</ele>
        <time>2021-08-02T10:21:56.694Z</time>
      </trkpt>
      <trkpt lat="47.02244" lon="8.9801">
        <ele>855</ele>
        <time>2021-08-02T10:21:57.694Z</time>
      </trkpt>
      <trkpt lat="47.02244" lon="8.98009">
        <ele>856</ele>
        <time>2021-08-02T10:21:58.693Z</time>
      </trkpt>
      <trkpt lat="47.02243" lon="8.98008">
        <ele>856</ele>
        <time>2021-08-02T10:21:59.694Z</time>
      </trkpt>
      <trkpt lat="47.02242" lon="8.98006">
        <ele>856</ele>
        <time>2021-08-02T10:22:00.694Z</time>
      </trkpt>
      <trkpt lat="47.02242" lon="8.98005">
        <ele>857</ele>
        <time>2021-08-02T10:22:01.694Z</time>
      </trkpt>
      <trkpt lat="47.02241" lon="8.98004">
        <ele>857</ele>
        <time>2021-08-02T10:22:02.694Z</time>
      </trkpt>
      <trkpt lat="47.0224" lon="8.98004">
        <ele>857</ele>
        <time>2021-08-02T10:22:03.693Z</time>
      </trkpt>
      <trkpt lat="47.0224" lon="8.98003">
        <ele>857</ele>
        <time>2021-08-02T10:22:04.693Z</time>
      </trkpt>
      <trkpt lat="47.02239" lon="8.98002">
        <ele>857</ele>
        <time>2021-08-02T10:22:05.693Z</time>
      </trkpt>
      <trkpt lat="47.02239" lon="8.98001">
        <ele>857</ele>
        <time>2021-08-02T10:22:06.694Z</time>
      </trkpt>
      <trkpt lat="47.02239" lon="8.98">
        <ele>856</ele>
        <time>2021-08-02T10:22:07.694Z</time>
      </trkpt>
      <trkpt lat="47.02239" lon="8.97999">
        <ele>856</ele>
        <time>2021-08-02T10:22:08.694Z</time>
      </trkpt>
      <trkpt lat="47.02238" lon="8.97998">
        <ele>856</ele>
        <time>2021-08-02T10:22:09.694Z</time>
      </trkpt>
      <trkpt lat="47.02237" lon="8.97997">
        <ele>856</ele>
        <time>2021-08-02T10:22:10.694Z</time>
      </trkpt>
      <trkpt lat="47.02236" lon="8.97996">
        <ele>857</ele>
        <time>2021-08-02T10:22:11.694Z</time>
      </trkpt>
      <trkpt lat="47.02235" lon="8.97995">
        <ele>857</ele>
        <time>2021-08-02T10:22:12.693Z</time>
      </trkpt>
      <trkpt lat="47.02234" lon="8.97994">
        <ele>857</ele>
        <time>2021-08-02T10:22:13.693Z</time>
      </trkpt>
      <trkpt lat="47.02234" lon="8.97992">
        <ele>857</ele>
        <time>2021-08-02T10:22:14.694Z</time>
      </trkpt>
      <trkpt lat="47.02233" lon="8.97991">
        <ele>857</ele>
        <time>2021-08-02T10:22:15.693Z</time>
      </trkpt>
      <trkpt lat="47.02233" lon="8.97989">
        <ele>857</ele>
        <time>2021-08-02T10:22:16.693Z</time>
      </trkpt>
      <trkpt lat="47.02233" lon="8.97988">
        <ele>857</ele>
        <time>2021-08-02T10:22:17.694Z</time>
      </trkpt>
      <trkpt lat="47.02233" lon="8.97986">
        <ele>858</ele>
        <time>2021-08-02T10:22:18.693Z</time>
      </trkpt>
      <trkpt lat="47.02233" lon="8.97985">
        <ele>858</ele>
        <time>2021-08-02T10:22:19.693Z</time>
      </trkpt>
      <trkpt lat="47.02232" lon="8.97984">
        <ele>859</ele>
        <time>2021-08-02T10:22:20.693Z</time>
      </trkpt>
      <trkpt lat="47.02232" lon="8.97983">
        <ele>859</ele>
        <time>2021-08-02T10:22:21.694Z</time>
      </trkpt>
      <trkpt lat="47.02232" lon="8.97982">
        <ele>860</ele>
        <time>2021-08-02T10:22:22.694Z</time>
      </trkpt>
      <trkpt lat="47.02232" lon="8.9798">
        <ele>860</ele>
        <time>2021-08-02T10:22:23.694Z</time>
      </trkpt>
      <trkpt lat="47.02231" lon="8.97977">
        <ele>861</ele>
        <time>2021-08-02T10:22:24.694Z</time>
      </trkpt>
      <trkpt lat="47.02231" lon="8.97974">
        <ele>861</ele>
        <time>2021-08-02T10:22:25.694Z</time>
      </trkpt>
      <trkpt lat="47.02231" lon="8.97973">
        <ele>862</ele>
        <time>2021-08-02T10:22:26.694Z</time>
      </trkpt>
      <trkpt lat="47.02231" lon="8.97971">
        <ele>862</ele>
        <time>2021-08-02T10:22:27.693Z</time>
      </trkpt>
      <trkpt lat="47.0223" lon="8.97969">
        <ele>863</ele>
        <time>2021-08-02T10:22:28.693Z</time>
      </trkpt>
      <trkpt lat="47.02229" lon="8.97967">
        <ele>863</ele>
        <time>2021-08-02T10:22:29.694Z</time>
      </trkpt>
      <trkpt lat="47.0223" lon="8.97965">
        <ele>863</ele>
        <time>2021-08-02T10:22:30.694Z</time>
      </trkpt>
      <trkpt lat="47.0223" lon="8.97963">
        <ele>863</ele>
        <time>2021-08-02T10:22:31.693Z</time>
      </trkpt>
      <trkpt lat="47.0223" lon="8.97963">
        <ele>863</ele>
        <time>2021-08-02T10:22:32.693Z</time>
      </trkpt>
      <trkpt lat="47.02229" lon="8.97962">
        <ele>863</ele>
        <time>2021-08-02T10:22:33.693Z</time>
      </trkpt>
      <trkpt lat="47.02229" lon="8.97961">
        <ele>863</ele>
        <time>2021-08-02T10:22:34.693Z</time>
      </trkpt>
      <trkpt lat="47.02229" lon="8.97961">
        <ele>863</ele>
        <time>2021-08-02T10:22:35.694Z</time>
      </trkpt>
      <trkpt lat="47.0223" lon="8.97959">
        <ele>863</ele>
        <time>2021-08-02T10:22:36.694Z</time>
      </trkpt>
      <trkpt lat="47.0223" lon="8.97957">
        <ele>863</ele>
        <time>2021-08-02T10:22:37.694Z</time>
      </trkpt>
      <trkpt lat="47.0223" lon="8.97956">
        <ele>862</ele>
        <time>2021-08-02T10:22:38.694Z</time>
      </trkpt>
      <trkpt lat="47.02229" lon="8.97954">
        <ele>862</ele>
        <time>2021-08-02T10:22:39.694Z</time>
      </trkpt>
      <trkpt lat="47.02228" lon="8.97953">
        <ele>861</ele>
        <time>2021-08-02T10:22:40.694Z</time>
      </trkpt>
      <trkpt lat="47.02227" lon="8.97951">
        <ele>860</ele>
        <time>2021-08-02T10:22:41.693Z</time>
      </trkpt>
      <trkpt lat="47.02227" lon="8.9795">
        <ele>860</ele>
        <time>2021-08-02T10:22:42.693Z</time>
      </trkpt>
      <trkpt lat="47.02226" lon="8.97949">
        <ele>860</ele>
        <time>2021-08-02T10:22:43.694Z</time>
      </trkpt>
      <trkpt lat="47.02226" lon="8.97947">
        <ele>859</ele>
        <time>2021-08-02T10:22:44.694Z</time>
      </trkpt>
      <trkpt lat="47.02226" lon="8.97946">
        <ele>859</ele>
        <time>2021-08-02T10:22:45.693Z</time>
      </trkpt>
      <trkpt lat="47.02226" lon="8.97944">
        <ele>859</ele>
        <time>2021-08-02T10:22:46.694Z</time>
      </trkpt>
      <trkpt lat="47.02225" lon="8.97943">
        <ele>859</ele>
        <time>2021-08-02T10:22:47.694Z</time>
      </trkpt>
      <trkpt lat="47.02225" lon="8.97942">
        <ele>859</ele>
        <time>2021-08-02T10:22:48.693Z</time>
      </trkpt>
      <trkpt lat="47.02225" lon="8.9794">
        <ele>859</ele>
        <time>2021-08-02T10:22:49.694Z</time>
      </trkpt>
      <trkpt lat="47.02224" lon="8.97938">
        <ele>858</ele>
        <time>2021-08-02T10:22:50.693Z</time>
      </trkpt>
      <trkpt lat="47.02223" lon="8.97937">
        <ele>858</ele>
        <time>2021-08-02T10:22:51.694Z</time>
      </trkpt>
      <trkpt lat="47.02222" lon="8.97935">
        <ele>858</ele>
        <time>2021-08-02T10:22:52.694Z</time>
      </trkpt>
      <trkpt lat="47.02222" lon="8.97934">
        <ele>857</ele>
        <time>2021-08-02T10:22:53.694Z</time>
      </trkpt>
      <trkpt lat="47.02222" lon="8.97934">
        <ele>857</ele>
        <time>2021-08-02T10:22:54.693Z</time>
      </trkpt>
      <trkpt lat="47.02222" lon="8.97933">
        <ele>856</ele>
        <time>2021-08-02T10:22:55.694Z</time>
      </trkpt>
      <trkpt lat="47.02222" lon="8.97933">
        <ele>856</ele>
        <time>2021-08-02T10:22:56.694Z</time>
      </trkpt>
      <trkpt lat="47.02223" lon="8.97932">
        <ele>855</ele>
        <time>2021-08-02T10:22:57.694Z</time>
      </trkpt>
      <trkpt lat="47.02222" lon="8.97931">
        <ele>855</ele>
        <time>2021-08-02T10:22:58.694Z</time>
      </trkpt>
      <trkpt lat="47.02222" lon="8.97931">
        <ele>855</ele>
        <time>2021-08-02T10:22:59.694Z</time>
      </trkpt>
      <trkpt lat="47.02221" lon="8.97929">
        <ele>855</ele>
        <time>2021-08-02T10:23:00.694Z</time>
      </trkpt>
      <trkpt lat="47.02221" lon="8.97929">
        <ele>855</ele>
        <time>2021-08-02T10:23:01.693Z</time>
      </trkpt>
      <trkpt lat="47.02222" lon="8.97928">
        <ele>855</ele>
        <time>2021-08-02T10:23:02.694Z</time>
      </trkpt>
      <trkpt lat="47.02221" lon="8.97927">
        <ele>855</ele>
        <time>2021-08-02T10:23:03.694Z</time>
      </trkpt>
      <trkpt lat="47.02221" lon="8.97927">
        <ele>856</ele>
        <time>2021-08-02T10:23:04.693Z</time>
      </trkpt>
      <trkpt lat="47.0222" lon="8.97926">
        <ele>856</ele>
        <time>2021-08-02T10:23:05.693Z</time>
      </trkpt>
      <trkpt lat="47.02219" lon="8.97925">
        <ele>856</ele>
        <time>2021-08-02T10:23:06.693Z</time>
      </trkpt>
      <trkpt lat="47.02218" lon="8.97925">
        <ele>856</ele>
        <time>2021-08-02T10:23:07.693Z</time>
      </trkpt>
      <trkpt lat="47.02219" lon="8.97925">
        <ele>856</ele>
        <time>2021-08-02T10:23:08.694Z</time>
      </trkpt>
      <trkpt lat="47.02219" lon="8.97926">
        <ele>856</ele>
        <time>2021-08-02T10:23:09.694Z</time>
      </trkpt>
      <trkpt lat="47.02219" lon="8.97927">
        <ele>857</ele>
        <time>2021-08-02T10:23:10.693Z</time>
      </trkpt>
      <trkpt lat="47.02219" lon="8.97927">
        <ele>857</ele>
        <time>2021-08-02T10:23:11.693Z</time>
      </trkpt>
      <trkpt lat="47.02219" lon="8.97927">
        <ele>857</ele>
        <time>2021-08-02T10:23:12.694Z</time>
      </trkpt>
      <trkpt lat="47.02218" lon="8.97926">
        <ele>856</ele>
        <time>2021-08-02T10:23:13.693Z</time>
      </trkpt>
      <trkpt lat="47.02217" lon="8.97926">
        <ele>856</ele>
        <time>2021-08-02T10:23:14.694Z</time>
      </trkpt>
      <trkpt lat="47.02217" lon="8.97927">
        <ele>856</ele>
        <time>2021-08-02T10:23:15.693Z</time>
      </trkpt>
      <trkpt lat="47.02216" lon="8.97927">
        <ele>856</ele>
        <time>2021-08-02T10:23:16.693Z</time>
      </trkpt>
      <trkpt lat="47.02215" lon="8.97927">
        <ele>857</ele>
        <time>2021-08-02T10:23:17.694Z</time>
      </trkpt>
      <trkpt lat="47.02214" lon="8.97927">
        <ele>857</ele>
        <time>2021-08-02T10:23:18.693Z</time>
      </trkpt>
      <trkpt lat="47.02213" lon="8.97927">
        <ele>857</ele>
        <time>2021-08-02T10:23:19.693Z</time>
      </trkpt>
      <trkpt lat="47.02214" lon="8.97926">
        <ele>857</ele>
        <time>2021-08-02T10:23:20.694Z</time>
      </trkpt>
      <trkpt lat="47.02214" lon="8.97925">
        <ele>857</ele>
        <time>2021-08-02T10:23:21.693Z</time>
      </trkpt>
      <trkpt lat="47.02215" lon="8.97924">
        <ele>858</ele>
        <time>2021-08-02T10:23:22.694Z</time>
      </trkpt>
      <trkpt lat="47.02215" lon="8.97924">
        <ele>858</ele>
        <time>2021-08-02T10:23:23.694Z</time>
      </trkpt>
      <trkpt lat="47.02215" lon="8.97925">
        <ele>858</ele>
        <time>2021-08-02T10:23:24.694Z</time>
      </trkpt>
      <trkpt lat="47.02214" lon="8.97925">
        <ele>858</ele>
        <time>2021-08-02T10:23:25.694Z</time>
      </trkpt>
      <trkpt lat="47.02214" lon="8.97925">
        <ele>858</ele>
        <time>2021-08-02T10:23:26.694Z</time>
      </trkpt>
      <trkpt lat="47.02214" lon="8.97925">
        <ele>858</ele>
        <time>2021-08-02T10:23:27.693Z</time>
      </trkpt>
      <trkpt lat="47.02215" lon="8.97925">
        <ele>858</ele>
        <time>2021-08-02T10:23:28.694Z</time>
      </trkpt>
      <trkpt lat="47.02216" lon="8.97925">
        <ele>858</ele>
        <time>2021-08-02T10:23:29.693Z</time>
      </trkpt>
      <trkpt lat="47.02216" lon="8.97924">
        <ele>858</ele>
        <time>2021-08-02T10:23:30.694Z</time>
      </trkpt>
      <trkpt lat="47.02216" lon="8.97923">
        <ele>859</ele>
        <time>2021-08-02T10:23:31.694Z</time>
      </trkpt>
      <trkpt lat="47.02215" lon="8.97922">
        <ele>859</ele>
        <time>2021-08-02T10:23:32.693Z</time>
      </trkpt>
      <trkpt lat="47.02214" lon="8.97921">
        <ele>859</ele>
        <time>2021-08-02T10:23:33.693Z</time>
      </trkpt>
      <trkpt lat="47.02214" lon="8.97919">
        <ele>859</ele>
        <time>2021-08-02T10:23:34.694Z</time>
      </trkpt>
      <trkpt lat="47.02214" lon="8.97918">
        <ele>859</ele>
        <time>2021-08-02T10:23:35.694Z</time>
      </trkpt>
      <trkpt lat="47.02213" lon="8.97917">
        <ele>859</ele>
        <time>2021-08-02T10:23:36.693Z</time>
      </trkpt>
      <trkpt lat="47.02213" lon="8.97916">
        <ele>859</ele>
        <time>2021-08-02T10:23:37.693Z</time>
      </trkpt>
      <trkpt lat="47.02213" lon="8.97915">
        <ele>859</ele>
        <time>2021-08-02T10:23:38.694Z</time>
      </trkpt>
      <trkpt lat="47.02213" lon="8.97913">
        <ele>859</ele>
        <time>2021-08-02T10:23:39.694Z</time>
      </trkpt>
      <trkpt lat="47.02213" lon="8.97912">
        <ele>860</ele>
        <time>2021-08-02T10:23:40.694Z</time>
      </trkpt>
      <trkpt lat="47.02212" lon="8.97912">
        <ele>859</ele>
        <time>2021-08-02T10:23:41.695Z</time>
      </trkpt>
      <trkpt lat="47.02211" lon="8.97912">
        <ele>859</ele>
        <time>2021-08-02T10:23:42.695Z</time>
      </trkpt>
      <trkpt lat="47.02211" lon="8.97912">
        <ele>859</ele>
        <time>2021-08-02T10:23:43.694Z</time>
      </trkpt>
      <trkpt lat="47.02212" lon="8.97911">
        <ele>859</ele>
        <time>2021-08-02T10:23:44.694Z</time>
      </trkpt>
      <trkpt lat="47.02212" lon="8.9791">
        <ele>858</ele>
        <time>2021-08-02T10:23:45.694Z</time>
      </trkpt>
      <trkpt lat="47.02213" lon="8.9791">
        <ele>858</ele>
        <time>2021-08-02T10:23:46.695Z</time>
      </trkpt>
      <trkpt lat="47.02213" lon="8.9791">
        <ele>859</ele>
        <time>2021-08-02T10:23:47.694Z</time>
      </trkpt>
      <trkpt lat="47.02214" lon="8.97907">
        <ele>859</ele>
        <time>2021-08-02T10:23:48.694Z</time>
      </trkpt>
      <trkpt lat="47.02214" lon="8.97906">
        <ele>859</ele>
        <time>2021-08-02T10:23:49.695Z</time>
      </trkpt>
      <trkpt lat="47.02214" lon="8.97904">
        <ele>859</ele>
        <time>2021-08-02T10:23:50.694Z</time>
      </trkpt>
      <trkpt lat="47.02214" lon="8.97902">
        <ele>859</ele>
        <time>2021-08-02T10:23:51.694Z</time>
      </trkpt>
      <trkpt lat="47.02213" lon="8.97901">
        <ele>859</ele>
        <time>2021-08-02T10:23:52.694Z</time>
      </trkpt>
      <trkpt lat="47.02212" lon="8.97901">
        <ele>859</ele>
        <time>2021-08-02T10:23:53.694Z</time>
      </trkpt>
      <trkpt lat="47.02211" lon="8.979">
        <ele>858</ele>
        <time>2021-08-02T10:23:54.694Z</time>
      </trkpt>
      <trkpt lat="47.0221" lon="8.97899">
        <ele>858</ele>
        <time>2021-08-02T10:23:55.694Z</time>
      </trkpt>
      <trkpt lat="47.02208" lon="8.97898">
        <ele>857</ele>
        <time>2021-08-02T10:23:56.694Z</time>
      </trkpt>
      <trkpt lat="47.02208" lon="8.97898">
        <ele>857</ele>
        <time>2021-08-02T10:23:57.695Z</time>
      </trkpt>
      <trkpt lat="47.02208" lon="8.97898">
        <ele>857</ele>
        <time>2021-08-02T10:23:58.694Z</time>
      </trkpt>
      <trkpt lat="47.02209" lon="8.97897">
        <ele>857</ele>
        <time>2021-08-02T10:23:59.694Z</time>
      </trkpt>
      <trkpt lat="47.0221" lon="8.97896">
        <ele>857</ele>
        <time>2021-08-02T10:24:00.694Z</time>
      </trkpt>
      <trkpt lat="47.02211" lon="8.97894">
        <ele>857</ele>
        <time>2021-08-02T10:24:01.694Z</time>
      </trkpt>
      <trkpt lat="47.02211" lon="8.97892">
        <ele>857</ele>
        <time>2021-08-02T10:24:02.694Z</time>
      </trkpt>
      <trkpt lat="47.02212" lon="8.97891">
        <ele>857</ele>
        <time>2021-08-02T10:24:03.694Z</time>
      </trkpt>
      <trkpt lat="47.02212" lon="8.97889">
        <ele>858</ele>
        <time>2021-08-02T10:24:04.694Z</time>
      </trkpt>
      <trkpt lat="47.02213" lon="8.97887">
        <ele>858</ele>
        <time>2021-08-02T10:24:05.695Z</time>
      </trkpt>
      <trkpt lat="47.02213" lon="8.97886">
        <ele>858</ele>
        <time>2021-08-02T10:24:06.694Z</time>
      </trkpt>
      <trkpt lat="47.02214" lon="8.97886">
        <ele>859</ele>
        <time>2021-08-02T10:24:07.695Z</time>
      </trkpt>
      <trkpt lat="47.02214" lon="8.97885">
        <ele>859</ele>
        <time>2021-08-02T10:24:08.694Z</time>
      </trkpt>
      <trkpt lat="47.02215" lon="8.97885">
        <ele>860</ele>
        <time>2021-08-02T10:24:09.694Z</time>
      </trkpt>
      <trkpt lat="47.02216" lon="8.97886">
        <ele>861</ele>
        <time>2021-08-02T10:24:10.695Z</time>
      </trkpt>
      <trkpt lat="47.02216" lon="8.97887">
        <ele>861</ele>
        <time>2021-08-02T10:24:11.694Z</time>
      </trkpt>
      <trkpt lat="47.02217" lon="8.97888">
        <ele>862</ele>
        <time>2021-08-02T10:24:12.694Z</time>
      </trkpt>
      <trkpt lat="47.02217" lon="8.97888">
        <ele>862</ele>
        <time>2021-08-02T10:24:13.694Z</time>
      </trkpt>
      <trkpt lat="47.02217" lon="8.97888">
        <ele>863</ele>
        <time>2021-08-02T10:24:14.694Z</time>
      </trkpt>
      <trkpt lat="47.02215" lon="8.97887">
        <ele>864</ele>
        <time>2021-08-02T10:24:15.694Z</time>
      </trkpt>
      <trkpt lat="47.02212" lon="8.97883">
        <ele>861</ele>
        <time>2021-08-02T10:24:16.695Z</time>
      </trkpt>
      <trkpt lat="47.02212" lon="8.97882">
        <ele>861</ele>
        <time>2021-08-02T10:24:17.694Z</time>
      </trkpt>
      <trkpt lat="47.02213" lon="8.97881">
        <ele>861</ele>
        <time>2021-08-02T10:24:18.694Z</time>
      </trkpt>
      <trkpt lat="47.02214" lon="8.9788">
        <ele>861</ele>
        <time>2021-08-02T10:24:19.695Z</time>
      </trkpt>
      <trkpt lat="47.02214" lon="8.97879">
        <ele>862</ele>
        <time>2021-08-02T10:24:20.695Z</time>
      </trkpt>
      <trkpt lat="47.02215" lon="8.97878">
        <ele>862</ele>
        <time>2021-08-02T10:24:21.695Z</time>
      </trkpt>
      <trkpt lat="47.02215" lon="8.97876">
        <ele>862</ele>
        <time>2021-08-02T10:24:22.695Z</time>
      </trkpt>
      <trkpt lat="47.02216" lon="8.97875">
        <ele>862</ele>
        <time>2021-08-02T10:24:23.694Z</time>
      </trkpt>
      <trkpt lat="47.02216" lon="8.97873">
        <ele>862</ele>
        <time>2021-08-02T10:24:24.695Z</time>
      </trkpt>
      <trkpt lat="47.02216" lon="8.97872">
        <ele>862</ele>
        <time>2021-08-02T10:24:25.695Z</time>
      </trkpt>
      <trkpt lat="47.02217" lon="8.97871">
        <ele>861</ele>
        <time>2021-08-02T10:24:26.694Z</time>
      </trkpt>
      <trkpt lat="47.02217" lon="8.97869">
        <ele>861</ele>
        <time>2021-08-02T10:24:27.695Z</time>
      </trkpt>
      <trkpt lat="47.02219" lon="8.97867">
        <ele>860</ele>
        <time>2021-08-02T10:24:28.694Z</time>
      </trkpt>
      <trkpt lat="47.02221" lon="8.97865">
        <ele>860</ele>
        <time>2021-08-02T10:24:29.695Z</time>
      </trkpt>
      <trkpt lat="47.02222" lon="8.97863">
        <ele>859</ele>
        <time>2021-08-02T10:24:30.695Z</time>
      </trkpt>
      <trkpt lat="47.02223" lon="8.97861">
        <ele>859</ele>
        <time>2021-08-02T10:24:31.694Z</time>
      </trkpt>
      <trkpt lat="47.02222" lon="8.9786">
        <ele>858</ele>
        <time>2021-08-02T10:24:32.695Z</time>
      </trkpt>
      <trkpt lat="47.02222" lon="8.9786">
        <ele>858</ele>
        <time>2021-08-02T10:24:33.695Z</time>
      </trkpt>
      <trkpt lat="47.02222" lon="8.97858">
        <ele>858</ele>
        <time>2021-08-02T10:24:34.695Z</time>
      </trkpt>
      <trkpt lat="47.02222" lon="8.97857">
        <ele>857</ele>
        <time>2021-08-02T10:24:35.694Z</time>
      </trkpt>
      <trkpt lat="47.02221" lon="8.97857">
        <ele>857</ele>
        <time>2021-08-02T10:24:36.694Z</time>
      </trkpt>
      <trkpt lat="47.0222" lon="8.97856">
        <ele>857</ele>
        <time>2021-08-02T10:24:37.694Z</time>
      </trkpt>
      <trkpt lat="47.02219" lon="8.97855">
        <ele>857</ele>
        <time>2021-08-02T10:24:38.694Z</time>
      </trkpt>
      <trkpt lat="47.02219" lon="8.97854">
        <ele>857</ele>
        <time>2021-08-02T10:24:39.694Z</time>
      </trkpt>
      <trkpt lat="47.02218" lon="8.97853">
        <ele>857</ele>
        <time>2021-08-02T10:24:40.694Z</time>
      </trkpt>
      <trkpt lat="47.02218" lon="8.97851">
        <ele>857</ele>
        <time>2021-08-02T10:24:41.695Z</time>
      </trkpt>
      <trkpt lat="47.02218" lon="8.9785">
        <ele>857</ele>
        <time>2021-08-02T10:24:42.694Z</time>
      </trkpt>
      <trkpt lat="47.02219" lon="8.97848">
        <ele>857</ele>
        <time>2021-08-02T10:24:43.694Z</time>
      </trkpt>
      <trkpt lat="47.0222" lon="8.97847">
        <ele>857</ele>
        <time>2021-08-02T10:24:44.695Z</time>
      </trkpt>
      <trkpt lat="47.0222" lon="8.97846">
        <ele>857</ele>
        <time>2021-08-02T10:24:45.695Z</time>
      </trkpt>
      <trkpt lat="47.02221" lon="8.97845">
        <ele>857</ele>
        <time>2021-08-02T10:24:46.694Z</time>
      </trkpt>
      <trkpt lat="47.02221" lon="8.97844">
        <ele>857</ele>
        <time>2021-08-02T10:24:47.694Z</time>
      </trkpt>
      <trkpt lat="47.02221" lon="8.97843">
        <ele>857</ele>
        <time>2021-08-02T10:24:48.694Z</time>
      </trkpt>
      <trkpt lat="47.02222" lon="8.97843">
        <ele>857</ele>
        <time>2021-08-02T10:24:49.695Z</time>
      </trkpt>
      <trkpt lat="47.02223" lon="8.97844">
        <ele>856</ele>
        <time>2021-08-02T10:24:50.695Z</time>
      </trkpt>
      <trkpt lat="47.02225" lon="8.97843">
        <ele>856</ele>
        <time>2021-08-02T10:24:51.695Z</time>
      </trkpt>
      <trkpt lat="47.02226" lon="8.97842">
        <ele>856</ele>
        <time>2021-08-02T10:24:52.694Z</time>
      </trkpt>
      <trkpt lat="47.02227" lon="8.97841">
        <ele>857</ele>
        <time>2021-08-02T10:24:53.694Z</time>
      </trkpt>
      <trkpt lat="47.02228" lon="8.97839">
        <ele>857</ele>
        <time>2021-08-02T10:24:54.694Z</time>
      </trkpt>
      <trkpt lat="47.02229" lon="8.97838">
        <ele>856</ele>
        <time>2021-08-02T10:24:55.694Z</time>
      </trkpt>
      <trkpt lat="47.02229" lon="8.97836">
        <ele>856</ele>
        <time>2021-08-02T10:24:56.695Z</time>
      </trkpt>
      <trkpt lat="47.02229" lon="8.97835">
        <ele>856</ele>
        <time>2021-08-02T10:24:57.695Z</time>
      </trkpt>
      <trkpt lat="47.0223" lon="8.97834">
        <ele>855</ele>
        <time>2021-08-02T10:24:58.694Z</time>
      </trkpt>
      <trkpt lat="47.02231" lon="8.97833">
        <ele>855</ele>
        <time>2021-08-02T10:24:59.694Z</time>
      </trkpt>
      <trkpt lat="47.02231" lon="8.97831">
        <ele>854</ele>
        <time>2021-08-02T10:25:00.694Z</time>
      </trkpt>
      <trkpt lat="47.02232" lon="8.9783">
        <ele>854</ele>
        <time>2021-08-02T10:25:01.694Z</time>
      </trkpt>
      <trkpt lat="47.02231" lon="8.97828">
        <ele>854</ele>
        <time>2021-08-02T10:25:02.694Z</time>
      </trkpt>
      <trkpt lat="47.02231" lon="8.97826">
        <ele>854</ele>
        <time>2021-08-02T10:25:03.694Z</time>
      </trkpt>
      <trkpt lat="47.02231" lon="8.97824">
        <ele>853</ele>
        <time>2021-08-02T10:25:04.694Z</time>
      </trkpt>
      <trkpt lat="47.02231" lon="8.97823">
        <ele>853</ele>
        <time>2021-08-02T10:25:05.694Z</time>
      </trkpt>
      <trkpt lat="47.02231" lon="8.97821">
        <ele>854</ele>
        <time>2021-08-02T10:25:06.694Z</time>
      </trkpt>
      <trkpt lat="47.02231" lon="8.97819">
        <ele>854</ele>
        <time>2021-08-02T10:25:07.694Z</time>
      </trkpt>
      <trkpt lat="47.02231" lon="8.97817">
        <ele>853</ele>
        <time>2021-08-02T10:25:08.694Z</time>
      </trkpt>
      <trkpt lat="47.02231" lon="8.97816">
        <ele>853</ele>
        <time>2021-08-02T10:25:09.694Z</time>
      </trkpt>
      <trkpt lat="47.02231" lon="8.97815">
        <ele>853</ele>
        <time>2021-08-02T10:25:10.694Z</time>
      </trkpt>
      <trkpt lat="47.02231" lon="8.97813">
        <ele>853</ele>
        <time>2021-08-02T10:25:11.694Z</time>
      </trkpt>
      <trkpt lat="47.02231" lon="8.97812">
        <ele>853</ele>
        <time>2021-08-02T10:25:12.694Z</time>
      </trkpt>
      <trkpt lat="47.02231" lon="8.97811">
        <ele>853</ele>
        <time>2021-08-02T10:25:13.694Z</time>
      </trkpt>
      <trkpt lat="47.02231" lon="8.97809">
        <ele>853</ele>
        <time>2021-08-02T10:25:14.694Z</time>
      </trkpt>
      <trkpt lat="47.02231" lon="8.97807">
        <ele>853</ele>
        <time>2021-08-02T10:25:15.695Z</time>
      </trkpt>
      <trkpt lat="47.02232" lon="8.97805">
        <ele>852</ele>
        <time>2021-08-02T10:25:16.695Z</time>
      </trkpt>
      <trkpt lat="47.02232" lon="8.97804">
        <ele>852</ele>
        <time>2021-08-02T10:25:17.694Z</time>
      </trkpt>
      <trkpt lat="47.02232" lon="8.97804">
        <ele>852</ele>
        <time>2021-08-02T10:25:18.694Z</time>
      </trkpt>
      <trkpt lat="47.02233" lon="8.97804">
        <ele>852</ele>
        <time>2021-08-02T10:25:19.694Z</time>
      </trkpt>
      <trkpt lat="47.02233" lon="8.97804">
        <ele>852</ele>
        <time>2021-08-02T10:25:20.694Z</time>
      </trkpt>
      <trkpt lat="47.02234" lon="8.97803">
        <ele>852</ele>
        <time>2021-08-02T10:25:21.694Z</time>
      </trkpt>
      <trkpt lat="47.02233" lon="8.97802">
        <ele>852</ele>
        <time>2021-08-02T10:25:22.695Z</time>
      </trkpt>
      <trkpt lat="47.02233" lon="8.97801">
        <ele>852</ele>
        <time>2021-08-02T10:25:23.695Z</time>
      </trkpt>
      <trkpt lat="47.02233" lon="8.97799">
        <ele>852</ele>
        <time>2021-08-02T10:25:24.694Z</time>
      </trkpt>
      <trkpt lat="47.02233" lon="8.97798">
        <ele>852</ele>
        <time>2021-08-02T10:25:25.694Z</time>
      </trkpt>
      <trkpt lat="47.02232" lon="8.97797">
        <ele>852</ele>
        <time>2021-08-02T10:25:26.695Z</time>
      </trkpt>
      <trkpt lat="47.02232" lon="8.97795">
        <ele>852</ele>
        <time>2021-08-02T10:25:27.695Z</time>
      </trkpt>
      <trkpt lat="47.02231" lon="8.97794">
        <ele>851</ele>
        <time>2021-08-02T10:25:28.695Z</time>
      </trkpt>
      <trkpt lat="47.02231" lon="8.97792">
        <ele>851</ele>
        <time>2021-08-02T10:25:29.695Z</time>
      </trkpt>
      <trkpt lat="47.02231" lon="8.9779">
        <ele>850</ele>
        <time>2021-08-02T10:25:30.695Z</time>
      </trkpt>
      <trkpt lat="47.02231" lon="8.97789">
        <ele>850</ele>
        <time>2021-08-02T10:25:31.695Z</time>
      </trkpt>
      <trkpt lat="47.02231" lon="8.97787">
        <ele>849</ele>
        <time>2021-08-02T10:25:32.694Z</time>
      </trkpt>
      <trkpt lat="47.0223" lon="8.97785">
        <ele>849</ele>
        <time>2021-08-02T10:25:33.694Z</time>
      </trkpt>
      <trkpt lat="47.0223" lon="8.97783">
        <ele>849</ele>
        <time>2021-08-02T10:25:34.695Z</time>
      </trkpt>
      <trkpt lat="47.0223" lon="8.97781">
        <ele>848</ele>
        <time>2021-08-02T10:25:35.695Z</time>
      </trkpt>
      <trkpt lat="47.02229" lon="8.9778">
        <ele>848</ele>
        <time>2021-08-02T10:25:36.695Z</time>
      </trkpt>
      <trkpt lat="47.02228" lon="8.97779">
        <ele>848</ele>
        <time>2021-08-02T10:25:37.695Z</time>
      </trkpt>
      <trkpt lat="47.02228" lon="8.97778">
        <ele>848</ele>
        <time>2021-08-02T10:25:38.694Z</time>
      </trkpt>
      <trkpt lat="47.02227" lon="8.97777">
        <ele>848</ele>
        <time>2021-08-02T10:25:39.694Z</time>
      </trkpt>
      <trkpt lat="47.02226" lon="8.97776">
        <ele>848</ele>
        <time>2021-08-02T10:25:40.695Z</time>
      </trkpt>
      <trkpt lat="47.02225" lon="8.97775">
        <ele>847</ele>
        <time>2021-08-02T10:25:41.694Z</time>
      </trkpt>
      <trkpt lat="47.02224" lon="8.97773">
        <ele>847</ele>
        <time>2021-08-02T10:25:42.695Z</time>
      </trkpt>
      <trkpt lat="47.02223" lon="8.97772">
        <ele>847</ele>
        <time>2021-08-02T10:25:43.694Z</time>
      </trkpt>
      <trkpt lat="47.02222" lon="8.9777">
        <ele>847</ele>
        <time>2021-08-02T10:25:44.694Z</time>
      </trkpt>
      <trkpt lat="47.02221" lon="8.97768">
        <ele>847</ele>
        <time>2021-08-02T10:25:45.695Z</time>
      </trkpt>
      <trkpt lat="47.02221" lon="8.97766">
        <ele>847</ele>
        <time>2021-08-02T10:25:46.695Z</time>
      </trkpt>
      <trkpt lat="47.0222" lon="8.97765">
        <ele>847</ele>
        <time>2021-08-02T10:25:47.694Z</time>
      </trkpt>
      <trkpt lat="47.02219" lon="8.97764">
        <ele>847</ele>
        <time>2021-08-02T10:25:48.694Z</time>
      </trkpt>
      <trkpt lat="47.02218" lon="8.97763">
        <ele>846</ele>
        <time>2021-08-02T10:25:49.694Z</time>
      </trkpt>
      <trkpt lat="47.02217" lon="8.97761">
        <ele>846</ele>
        <time>2021-08-02T10:25:50.694Z</time>
      </trkpt>
      <trkpt lat="47.02216" lon="8.9776">
        <ele>846</ele>
        <time>2021-08-02T10:25:51.694Z</time>
      </trkpt>
      <trkpt lat="47.02215" lon="8.97758">
        <ele>846</ele>
        <time>2021-08-02T10:25:52.695Z</time>
      </trkpt>
      <trkpt lat="47.02214" lon="8.97756">
        <ele>846</ele>
        <time>2021-08-02T10:25:53.694Z</time>
      </trkpt>
      <trkpt lat="47.02214" lon="8.97754">
        <ele>846</ele>
        <time>2021-08-02T10:25:54.695Z</time>
      </trkpt>
      <trkpt lat="47.02213" lon="8.97752">
        <ele>846</ele>
        <time>2021-08-02T10:25:55.694Z</time>
      </trkpt>
      <trkpt lat="47.02214" lon="8.97749">
        <ele>846</ele>
        <time>2021-08-02T10:25:56.694Z</time>
      </trkpt>
      <trkpt lat="47.02214" lon="8.97746">
        <ele>846</ele>
        <time>2021-08-02T10:25:57.695Z</time>
      </trkpt>
      <trkpt lat="47.02213" lon="8.97745">
        <ele>846</ele>
        <time>2021-08-02T10:25:58.695Z</time>
      </trkpt>
      <trkpt lat="47.02213" lon="8.97744">
        <ele>846</ele>
        <time>2021-08-02T10:25:59.695Z</time>
      </trkpt>
      <trkpt lat="47.02213" lon="8.97743">
        <ele>846</ele>
        <time>2021-08-02T10:26:00.695Z</time>
      </trkpt>
      <trkpt lat="47.02213" lon="8.97741">
        <ele>846</ele>
        <time>2021-08-02T10:26:01.694Z</time>
      </trkpt>
      <trkpt lat="47.02213" lon="8.9774">
        <ele>847</ele>
        <time>2021-08-02T10:26:02.695Z</time>
      </trkpt>
      <trkpt lat="47.02214" lon="8.97738">
        <ele>847</ele>
        <time>2021-08-02T10:26:03.694Z</time>
      </trkpt>
      <trkpt lat="47.02214" lon="8.97736">
        <ele>847</ele>
        <time>2021-08-02T10:26:04.694Z</time>
      </trkpt>
      <trkpt lat="47.02213" lon="8.97734">
        <ele>847</ele>
        <time>2021-08-02T10:26:05.694Z</time>
      </trkpt>
      <trkpt lat="47.02213" lon="8.97732">
        <ele>847</ele>
        <time>2021-08-02T10:26:06.694Z</time>
      </trkpt>
      <trkpt lat="47.02212" lon="8.9773">
        <ele>847</ele>
        <time>2021-08-02T10:26:07.695Z</time>
      </trkpt>
      <trkpt lat="47.02212" lon="8.97729">
        <ele>846</ele>
        <time>2021-08-02T10:26:08.695Z</time>
      </trkpt>
      <trkpt lat="47.02212" lon="8.97727">
        <ele>846</ele>
        <time>2021-08-02T10:26:09.695Z</time>
      </trkpt>
      <trkpt lat="47.02212" lon="8.97726">
        <ele>847</ele>
        <time>2021-08-02T10:26:10.695Z</time>
      </trkpt>
      <trkpt lat="47.02212" lon="8.97726">
        <ele>847</ele>
        <time>2021-08-02T10:26:11.694Z</time>
      </trkpt>
      <trkpt lat="47.02211" lon="8.97725">
        <ele>848</ele>
        <time>2021-08-02T10:26:12.695Z</time>
      </trkpt>
      <trkpt lat="47.02211" lon="8.97724">
        <ele>848</ele>
        <time>2021-08-02T10:26:13.695Z</time>
      </trkpt>
      <trkpt lat="47.0221" lon="8.97723">
        <ele>848</ele>
        <time>2021-08-02T10:26:14.695Z</time>
      </trkpt>
      <trkpt lat="47.02209" lon="8.97721">
        <ele>848</ele>
        <time>2021-08-02T10:26:15.694Z</time>
      </trkpt>
      <trkpt lat="47.02209" lon="8.9772">
        <ele>848</ele>
        <time>2021-08-02T10:26:16.694Z</time>
      </trkpt>
      <trkpt lat="47.02208" lon="8.97719">
        <ele>848</ele>
        <time>2021-08-02T10:26:17.695Z</time>
      </trkpt>
      <trkpt lat="47.02208" lon="8.97718">
        <ele>848</ele>
        <time>2021-08-02T10:26:18.695Z</time>
      </trkpt>
      <trkpt lat="47.02208" lon="8.97716">
        <ele>848</ele>
        <time>2021-08-02T10:26:19.695Z</time>
      </trkpt>
      <trkpt lat="47.02208" lon="8.97714">
        <ele>848</ele>
        <time>2021-08-02T10:26:20.694Z</time>
      </trkpt>
      <trkpt lat="47.02208" lon="8.97712">
        <ele>848</ele>
        <time>2021-08-02T10:26:21.695Z</time>
      </trkpt>
      <trkpt lat="47.02208" lon="8.9771">
        <ele>849</ele>
        <time>2021-08-02T10:26:22.694Z</time>
      </trkpt>
      <trkpt lat="47.02208" lon="8.97707">
        <ele>849</ele>
        <time>2021-08-02T10:26:23.695Z</time>
      </trkpt>
      <trkpt lat="47.02208" lon="8.97704">
        <ele>849</ele>
        <time>2021-08-02T10:26:24.695Z</time>
      </trkpt>
      <trkpt lat="47.02207" lon="8.97702">
        <ele>850</ele>
        <time>2021-08-02T10:26:25.694Z</time>
      </trkpt>
      <trkpt lat="47.02207" lon="8.977">
        <ele>850</ele>
        <time>2021-08-02T10:26:26.694Z</time>
      </trkpt>
      <trkpt lat="47.02206" lon="8.97697">
        <ele>850</ele>
        <time>2021-08-02T10:26:27.695Z</time>
      </trkpt>
      <trkpt lat="47.02205" lon="8.97695">
        <ele>851</ele>
        <time>2021-08-02T10:26:28.694Z</time>
      </trkpt>
      <trkpt lat="47.02204" lon="8.97694">
        <ele>851</ele>
        <time>2021-08-02T10:26:29.694Z</time>
      </trkpt>
      <trkpt lat="47.02203" lon="8.97692">
        <ele>852</ele>
        <time>2021-08-02T10:26:30.694Z</time>
      </trkpt>
      <trkpt lat="47.02202" lon="8.97691">
        <ele>853</ele>
        <time>2021-08-02T10:26:31.694Z</time>
      </trkpt>
      <trkpt lat="47.02202" lon="8.9769">
        <ele>853</ele>
        <time>2021-08-02T10:26:32.694Z</time>
      </trkpt>
      <trkpt lat="47.02201" lon="8.97689">
        <ele>854</ele>
        <time>2021-08-02T10:26:33.695Z</time>
      </trkpt>
      <trkpt lat="47.02201" lon="8.97688">
        <ele>854</ele>
        <time>2021-08-02T10:26:34.695Z</time>
      </trkpt>
      <trkpt lat="47.022" lon="8.97687">
        <ele>855</ele>
        <time>2021-08-02T10:26:35.695Z</time>
      </trkpt>
      <trkpt lat="47.02199" lon="8.97685">
        <ele>855</ele>
        <time>2021-08-02T10:26:36.695Z</time>
      </trkpt>
      <trkpt lat="47.02198" lon="8.97685">
        <ele>856</ele>
        <time>2021-08-02T10:26:37.695Z</time>
      </trkpt>
      <trkpt lat="47.02197" lon="8.97684">
        <ele>856</ele>
        <time>2021-08-02T10:26:38.695Z</time>
      </trkpt>
      <trkpt lat="47.02197" lon="8.97683">
        <ele>856</ele>
        <time>2021-08-02T10:26:39.695Z</time>
      </trkpt>
      <trkpt lat="47.02195" lon="8.97681">
        <ele>856</ele>
        <time>2021-08-02T10:26:40.694Z</time>
      </trkpt>
      <trkpt lat="47.02194" lon="8.97679">
        <ele>857</ele>
        <time>2021-08-02T10:26:41.694Z</time>
      </trkpt>
      <trkpt lat="47.02193" lon="8.97678">
        <ele>857</ele>
        <time>2021-08-02T10:26:42.695Z</time>
      </trkpt>
      <trkpt lat="47.02192" lon="8.97677">
        <ele>857</ele>
        <time>2021-08-02T10:26:43.695Z</time>
      </trkpt>
      <trkpt lat="47.02192" lon="8.97676">
        <ele>857</ele>
        <time>2021-08-02T10:26:50.696Z</time>
      </trkpt>
      <trkpt lat="47.02192" lon="8.97675">
        <ele>858</ele>
        <time>2021-08-02T10:26:51.696Z</time>
      </trkpt>
      <trkpt lat="47.02191" lon="8.97674">
        <ele>858</ele>
        <time>2021-08-02T10:26:52.696Z</time>
      </trkpt>
      <trkpt lat="47.02191" lon="8.97673">
        <ele>859</ele>
        <time>2021-08-02T10:26:56.857Z</time>
      </trkpt>
      <trkpt lat="47.02191" lon="8.9767">
        <ele>859</ele>
        <time>2021-08-02T10:26:57.857Z</time>
      </trkpt>
      <trkpt lat="47.02191" lon="8.97669">
        <ele>860</ele>
        <time>2021-08-02T10:26:58.857Z</time>
      </trkpt>
      <trkpt lat="47.0219" lon="8.97668">
        <ele>860</ele>
        <time>2021-08-02T10:26:59.856Z</time>
      </trkpt>
      <trkpt lat="47.0219" lon="8.97667">
        <ele>861</ele>
        <time>2021-08-02T10:27:00.856Z</time>
      </trkpt>
      <trkpt lat="47.02189" lon="8.97665">
        <ele>861</ele>
        <time>2021-08-02T10:27:03.926Z</time>
      </trkpt>
      <trkpt lat="47.02189" lon="8.97664">
        <ele>862</ele>
        <time>2021-08-02T10:27:04.925Z</time>
      </trkpt>
      <trkpt lat="47.02188" lon="8.97663">
        <ele>862</ele>
        <time>2021-08-02T10:27:05.925Z</time>
      </trkpt>
      <trkpt lat="47.02188" lon="8.97662">
        <ele>863</ele>
        <time>2021-08-02T10:27:06.926Z</time>
      </trkpt>
      <trkpt lat="47.02187" lon="8.97661">
        <ele>863</ele>
        <time>2021-08-02T10:27:07.925Z</time>
      </trkpt>
      <trkpt lat="47.02187" lon="8.9766">
        <ele>863</ele>
        <time>2021-08-02T10:27:08.925Z</time>
      </trkpt>
      <trkpt lat="47.02188" lon="8.97659">
        <ele>864</ele>
        <time>2021-08-02T10:27:09.926Z</time>
      </trkpt>
      <trkpt lat="47.02188" lon="8.97658">
        <ele>864</ele>
        <time>2021-08-02T10:27:10.926Z</time>
      </trkpt>
      <trkpt lat="47.02188" lon="8.97657">
        <ele>863</ele>
        <time>2021-08-02T10:27:11.925Z</time>
      </trkpt>
      <trkpt lat="47.02189" lon="8.97655">
        <ele>862</ele>
        <time>2021-08-02T10:27:12.926Z</time>
      </trkpt>
      <trkpt lat="47.02189" lon="8.97653">
        <ele>862</ele>
        <time>2021-08-02T10:27:13.926Z</time>
      </trkpt>
      <trkpt lat="47.02188" lon="8.97652">
        <ele>861</ele>
        <time>2021-08-02T10:27:34.974Z</time>
      </trkpt>
      <trkpt lat="47.02188" lon="8.9765">
        <ele>860</ele>
        <time>2021-08-02T10:27:35.974Z</time>
      </trkpt>
      <trkpt lat="47.02188" lon="8.97649">
        <ele>859</ele>
        <time>2021-08-02T10:27:54.080Z</time>
      </trkpt>
      <trkpt lat="47.02188" lon="8.97648">
        <ele>859</ele>
        <time>2021-08-02T10:27:55.079Z</time>
      </trkpt>
      <trkpt lat="47.02188" lon="8.97647">
        <ele>858</ele>
        <time>2021-08-02T10:27:56.080Z</time>
      </trkpt>
      <trkpt lat="47.02188" lon="8.97645">
        <ele>857</ele>
        <time>2021-08-02T10:27:57.079Z</time>
      </trkpt>
      <trkpt lat="47.02187" lon="8.97644">
        <ele>856</ele>
        <time>2021-08-02T10:28:03.169Z</time>
      </trkpt>
      <trkpt lat="47.02187" lon="8.97643">
        <ele>855</ele>
        <time>2021-08-02T10:28:04.169Z</time>
      </trkpt>
      <trkpt lat="47.02187" lon="8.97641">
        <ele>855</ele>
        <time>2021-08-02T10:28:05.169Z</time>
      </trkpt>
      <trkpt lat="47.02187" lon="8.97639">
        <ele>855</ele>
        <time>2021-08-02T10:28:06.168Z</time>
      </trkpt>
      <trkpt lat="47.02188" lon="8.97637">
        <ele>855</ele>
        <time>2021-08-02T10:28:07.169Z</time>
      </trkpt>
      <trkpt lat="47.02188" lon="8.97636">
        <ele>855</ele>
        <time>2021-08-02T10:28:08.169Z</time>
      </trkpt>
      <trkpt lat="47.02188" lon="8.97634">
        <ele>855</ele>
        <time>2021-08-02T10:28:09.169Z</time>
      </trkpt>
      <trkpt lat="47.02188" lon="8.97632">
        <ele>855</ele>
        <time>2021-08-02T10:28:10.168Z</time>
      </trkpt>
      <trkpt lat="47.02188" lon="8.9763">
        <ele>855</ele>
        <time>2021-08-02T10:28:11.169Z</time>
      </trkpt>
      <trkpt lat="47.02188" lon="8.97627">
        <ele>855</ele>
        <time>2021-08-02T10:28:12.169Z</time>
      </trkpt>
      <trkpt lat="47.02188" lon="8.97625">
        <ele>855</ele>
        <time>2021-08-02T10:28:13.169Z</time>
      </trkpt>
      <trkpt lat="47.02187" lon="8.97623">
        <ele>855</ele>
        <time>2021-08-02T10:28:14.169Z</time>
      </trkpt>
      <trkpt lat="47.02187" lon="8.97621">
        <ele>855</ele>
        <time>2021-08-02T10:28:15.169Z</time>
      </trkpt>
      <trkpt lat="47.02187" lon="8.97619">
        <ele>856</ele>
        <time>2021-08-02T10:28:16.169Z</time>
      </trkpt>
      <trkpt lat="47.02186" lon="8.97618">
        <ele>856</ele>
        <time>2021-08-02T10:28:17.169Z</time>
      </trkpt>
      <trkpt lat="47.02186" lon="8.97617">
        <ele>856</ele>
        <time>2021-08-02T10:28:18.168Z</time>
      </trkpt>
      <trkpt lat="47.02186" lon="8.97616">
        <ele>857</ele>
        <time>2021-08-02T10:28:19.169Z</time>
      </trkpt>
      <trkpt lat="47.02186" lon="8.97615">
        <ele>857</ele>
        <time>2021-08-02T10:28:20.168Z</time>
      </trkpt>
      <trkpt lat="47.02185" lon="8.97613">
        <ele>857</ele>
        <time>2021-08-02T10:28:21.169Z</time>
      </trkpt>
      <trkpt lat="47.02185" lon="8.97612">
        <ele>856</ele>
        <time>2021-08-02T10:28:22.169Z</time>
      </trkpt>
      <trkpt lat="47.02185" lon="8.9761">
        <ele>856</ele>
        <time>2021-08-02T10:28:23.168Z</time>
      </trkpt>
      <trkpt lat="47.02184" lon="8.97608">
        <ele>856</ele>
        <time>2021-08-02T10:28:24.169Z</time>
      </trkpt>
      <trkpt lat="47.02183" lon="8.97606">
        <ele>856</ele>
        <time>2021-08-02T10:28:25.168Z</time>
      </trkpt>
      <trkpt lat="47.02183" lon="8.97605">
        <ele>856</ele>
        <time>2021-08-02T10:28:26.169Z</time>
      </trkpt>
      <trkpt lat="47.02183" lon="8.97603">
        <ele>856</ele>
        <time>2021-08-02T10:28:27.169Z</time>
      </trkpt>
      <trkpt lat="47.02182" lon="8.97602">
        <ele>855</ele>
        <time>2021-08-02T10:28:28.168Z</time>
      </trkpt>
      <trkpt lat="47.02181" lon="8.97601">
        <ele>855</ele>
        <time>2021-08-02T10:28:29.168Z</time>
      </trkpt>
      <trkpt lat="47.0218" lon="8.976">
        <ele>856</ele>
        <time>2021-08-02T10:29:03.367Z</time>
      </trkpt>
      <trkpt lat="47.02179" lon="8.97598">
        <ele>856</ele>
        <time>2021-08-02T10:29:04.367Z</time>
      </trkpt>
      <trkpt lat="47.02178" lon="8.97597">
        <ele>856</ele>
        <time>2021-08-02T10:29:05.366Z</time>
      </trkpt>
      <trkpt lat="47.02176" lon="8.97595">
        <ele>856</ele>
        <time>2021-08-02T10:29:06.366Z</time>
      </trkpt>
      <trkpt lat="47.02175" lon="8.97594">
        <ele>855</ele>
        <time>2021-08-02T10:29:13.472Z</time>
      </trkpt>
      <trkpt lat="47.02174" lon="8.97593">
        <ele>855</ele>
        <time>2021-08-02T10:29:14.472Z</time>
      </trkpt>
      <trkpt lat="47.02173" lon="8.97592">
        <ele>855</ele>
        <time>2021-08-02T10:29:15.472Z</time>
      </trkpt>
      <trkpt lat="47.02173" lon="8.97591">
        <ele>855</ele>
        <time>2021-08-02T10:29:16.471Z</time>
      </trkpt>
      <trkpt lat="47.02172" lon="8.97589">
        <ele>855</ele>
        <time>2021-08-02T10:29:17.472Z</time>
      </trkpt>
      <trkpt lat="47.02171" lon="8.97588">
        <ele>855</ele>
        <time>2021-08-02T10:29:18.472Z</time>
      </trkpt>
      <trkpt lat="47.0217" lon="8.97588">
        <ele>855</ele>
        <time>2021-08-02T10:29:19.471Z</time>
      </trkpt>
      <trkpt lat="47.0217" lon="8.97587">
        <ele>854</ele>
        <time>2021-08-02T10:29:20.471Z</time>
      </trkpt>
      <trkpt lat="47.02169" lon="8.97585">
        <ele>854</ele>
        <time>2021-08-02T10:29:21.471Z</time>
      </trkpt>
      <trkpt lat="47.02169" lon="8.97584">
        <ele>853</ele>
        <time>2021-08-02T10:29:22.471Z</time>
      </trkpt>
      <trkpt lat="47.02169" lon="8.97584">
        <ele>853</ele>
        <time>2021-08-02T10:29:23.472Z</time>
      </trkpt>
      <trkpt lat="47.02168" lon="8.97583">
        <ele>853</ele>
        <time>2021-08-02T10:29:24.471Z</time>
      </trkpt>
      <trkpt lat="47.02167" lon="8.97582">
        <ele>853</ele>
        <time>2021-08-02T10:29:25.471Z</time>
      </trkpt>
      <trkpt lat="47.02166" lon="8.9758">
        <ele>853</ele>
        <time>2021-08-02T10:29:26.472Z</time>
      </trkpt>
      <trkpt lat="47.02164" lon="8.97579">
        <ele>853</ele>
        <time>2021-08-02T10:29:27.471Z</time>
      </trkpt>
      <trkpt lat="47.02164" lon="8.97578">
        <ele>853</ele>
        <time>2021-08-02T10:29:28.471Z</time>
      </trkpt>
      <trkpt lat="47.02164" lon="8.97579">
        <ele>853</ele>
        <time>2021-08-02T10:29:29.472Z</time>
      </trkpt>
      <trkpt lat="47.02165" lon="8.9758">
        <ele>853</ele>
        <time>2021-08-02T10:29:30.472Z</time>
      </trkpt>
      <trkpt lat="47.02165" lon="8.9758">
        <ele>853</ele>
        <time>2021-08-02T10:29:31.473Z</time>
      </trkpt>
      <trkpt lat="47.02165" lon="8.97579">
        <ele>853</ele>
        <time>2021-08-02T10:29:32.472Z</time>
      </trkpt>
      <trkpt lat="47.02164" lon="8.97578">
        <ele>853</ele>
        <time>2021-08-02T10:29:33.472Z</time>
      </trkpt>
      <trkpt lat="47.02164" lon="8.97578">
        <ele>852</ele>
        <time>2021-08-02T10:29:34.472Z</time>
      </trkpt>
      <trkpt lat="47.02163" lon="8.97577">
        <ele>852</ele>
        <time>2021-08-02T10:29:35.472Z</time>
      </trkpt>
      <trkpt lat="47.02163" lon="8.97577">
        <ele>852</ele>
        <time>2021-08-02T10:29:36.473Z</time>
      </trkpt>
      <trkpt lat="47.02162" lon="8.97577">
        <ele>852</ele>
        <time>2021-08-02T10:29:37.472Z</time>
      </trkpt>
      <trkpt lat="47.02161" lon="8.97577">
        <ele>851</ele>
        <time>2021-08-02T10:29:38.472Z</time>
      </trkpt>
      <trkpt lat="47.0216" lon="8.97577">
        <ele>851</ele>
        <time>2021-08-02T10:29:39.473Z</time>
      </trkpt>
      <trkpt lat="47.0216" lon="8.97577">
        <ele>851</ele>
        <time>2021-08-02T10:29:40.472Z</time>
      </trkpt>
      <trkpt lat="47.02158" lon="8.97577">
        <ele>850</ele>
        <time>2021-08-02T10:29:41.473Z</time>
      </trkpt>
      <trkpt lat="47.02157" lon="8.97577">
        <ele>850</ele>
        <time>2021-08-02T10:29:42.472Z</time>
      </trkpt>
      <trkpt lat="47.02157" lon="8.97577">
        <ele>850</ele>
        <time>2021-08-02T10:29:43.472Z</time>
      </trkpt>
      <trkpt lat="47.02157" lon="8.97575">
        <ele>850</ele>
        <time>2021-08-02T10:29:44.472Z</time>
      </trkpt>
      <trkpt lat="47.02157" lon="8.97571">
        <ele>850</ele>
        <time>2021-08-02T10:29:45.473Z</time>
      </trkpt>
      <trkpt lat="47.02156" lon="8.97571">
        <ele>850</ele>
        <time>2021-08-02T10:29:46.473Z</time>
      </trkpt>
      <trkpt lat="47.02156" lon="8.9757">
        <ele>850</ele>
        <time>2021-08-02T10:29:47.473Z</time>
      </trkpt>
      <trkpt lat="47.02155" lon="8.97569">
        <ele>850</ele>
        <time>2021-08-02T10:29:48.473Z</time>
      </trkpt>
      <trkpt lat="47.02154" lon="8.97569">
        <ele>850</ele>
        <time>2021-08-02T10:29:49.473Z</time>
      </trkpt>
      <trkpt lat="47.02153" lon="8.97569">
        <ele>850</ele>
        <time>2021-08-02T10:29:50.472Z</time>
      </trkpt>
      <trkpt lat="47.02152" lon="8.97569">
        <ele>851</ele>
        <time>2021-08-02T10:29:51.473Z</time>
      </trkpt>
      <trkpt lat="47.02151" lon="8.97569">
        <ele>851</ele>
        <time>2021-08-02T10:29:52.473Z</time>
      </trkpt>
      <trkpt lat="47.02151" lon="8.97569">
        <ele>851</ele>
        <time>2021-08-02T10:29:53.472Z</time>
      </trkpt>
      <trkpt lat="47.0215" lon="8.97569">
        <ele>850</ele>
        <time>2021-08-02T10:29:54.473Z</time>
      </trkpt>
      <trkpt lat="47.02148" lon="8.97569">
        <ele>850</ele>
        <time>2021-08-02T10:29:55.472Z</time>
      </trkpt>
      <trkpt lat="47.02146" lon="8.97569">
        <ele>850</ele>
        <time>2021-08-02T10:29:56.473Z</time>
      </trkpt>
      <trkpt lat="47.02145" lon="8.97569">
        <ele>850</ele>
        <time>2021-08-02T10:29:57.473Z</time>
      </trkpt>
      <trkpt lat="47.02144" lon="8.97568">
        <ele>849</ele>
        <time>2021-08-02T10:29:58.473Z</time>
      </trkpt>
      <trkpt lat="47.02142" lon="8.97567">
        <ele>849</ele>
        <time>2021-08-02T10:29:59.473Z</time>
      </trkpt>
      <trkpt lat="47.02141" lon="8.97566">
        <ele>849</ele>
        <time>2021-08-02T10:30:00.472Z</time>
      </trkpt>
      <trkpt lat="47.0214" lon="8.97565">
        <ele>849</ele>
        <time>2021-08-02T10:30:01.472Z</time>
      </trkpt>
      <trkpt lat="47.02139" lon="8.97565">
        <ele>848</ele>
        <time>2021-08-02T10:30:02.473Z</time>
      </trkpt>
      <trkpt lat="47.02138" lon="8.97564">
        <ele>848</ele>
        <time>2021-08-02T10:30:03.473Z</time>
      </trkpt>
      <trkpt lat="47.02137" lon="8.97562">
        <ele>848</ele>
        <time>2021-08-02T10:30:04.472Z</time>
      </trkpt>
      <trkpt lat="47.02136" lon="8.97561">
        <ele>848</ele>
        <time>2021-08-02T10:30:05.473Z</time>
      </trkpt>
      <trkpt lat="47.02135" lon="8.9756">
        <ele>848</ele>
        <time>2021-08-02T10:30:06.472Z</time>
      </trkpt>
      <trkpt lat="47.02134" lon="8.9756">
        <ele>849</ele>
        <time>2021-08-02T10:30:07.472Z</time>
      </trkpt>
      <trkpt lat="47.02134" lon="8.97559">
        <ele>849</ele>
        <time>2021-08-02T10:30:08.472Z</time>
      </trkpt>
      <trkpt lat="47.02133" lon="8.97558">
        <ele>849</ele>
        <time>2021-08-02T10:30:09.473Z</time>
      </trkpt>
      <trkpt lat="47.02133" lon="8.97556">
        <ele>849</ele>
        <time>2021-08-02T10:30:10.473Z</time>
      </trkpt>
      <trkpt lat="47.02132" lon="8.97549">
        <ele>849</ele>
        <time>2021-08-02T10:30:11.472Z</time>
      </trkpt>
      <trkpt lat="47.02131" lon="8.97547">
        <ele>849</ele>
        <time>2021-08-02T10:30:12.472Z</time>
      </trkpt>
      <trkpt lat="47.0213" lon="8.97544">
        <ele>850</ele>
        <time>2021-08-02T10:30:13.472Z</time>
      </trkpt>
      <trkpt lat="47.0213" lon="8.97542">
        <ele>850</ele>
        <time>2021-08-02T10:30:14.472Z</time>
      </trkpt>
      <trkpt lat="47.02129" lon="8.97541">
        <ele>850</ele>
        <time>2021-08-02T10:30:15.473Z</time>
      </trkpt>
      <trkpt lat="47.02129" lon="8.97538">
        <ele>850</ele>
        <time>2021-08-02T10:30:16.472Z</time>
      </trkpt>
      <trkpt lat="47.02129" lon="8.97537">
        <ele>851</ele>
        <time>2021-08-02T10:30:17.472Z</time>
      </trkpt>
      <trkpt lat="47.02128" lon="8.97536">
        <ele>851</ele>
        <time>2021-08-02T10:30:18.472Z</time>
      </trkpt>
      <trkpt lat="47.02127" lon="8.97535">
        <ele>851</ele>
        <time>2021-08-02T10:30:19.472Z</time>
      </trkpt>
      <trkpt lat="47.02126" lon="8.97534">
        <ele>851</ele>
        <time>2021-08-02T10:30:20.473Z</time>
      </trkpt>
      <trkpt lat="47.02125" lon="8.97534">
        <ele>852</ele>
        <time>2021-08-02T10:30:21.472Z</time>
      </trkpt>
      <trkpt lat="47.02124" lon="8.97533">
        <ele>852</ele>
        <time>2021-08-02T10:30:22.472Z</time>
      </trkpt>
      <trkpt lat="47.02123" lon="8.97533">
        <ele>852</ele>
        <time>2021-08-02T10:30:23.472Z</time>
      </trkpt>
      <trkpt lat="47.02122" lon="8.97532">
        <ele>852</ele>
        <time>2021-08-02T10:30:24.472Z</time>
      </trkpt>
      <trkpt lat="47.02121" lon="8.97532">
        <ele>853</ele>
        <time>2021-08-02T10:30:25.472Z</time>
      </trkpt>
      <trkpt lat="47.0212" lon="8.97532">
        <ele>853</ele>
        <time>2021-08-02T10:30:26.473Z</time>
      </trkpt>
      <trkpt lat="47.0212" lon="8.97531">
        <ele>853</ele>
        <time>2021-08-02T10:30:27.472Z</time>
      </trkpt>
      <trkpt lat="47.02119" lon="8.97531">
        <ele>853</ele>
        <time>2021-08-02T10:30:28.472Z</time>
      </trkpt>
      <trkpt lat="47.02119" lon="8.9753">
        <ele>853</ele>
        <time>2021-08-02T10:30:29.473Z</time>
      </trkpt>
      <trkpt lat="47.02119" lon="8.97529">
        <ele>853</ele>
        <time>2021-08-02T10:30:30.472Z</time>
      </trkpt>
      <trkpt lat="47.02119" lon="8.97528">
        <ele>853</ele>
        <time>2021-08-02T10:30:31.472Z</time>
      </trkpt>
      <trkpt lat="47.02118" lon="8.97526">
        <ele>853</ele>
        <time>2021-08-02T10:30:32.472Z</time>
      </trkpt>
      <trkpt lat="47.02118" lon="8.97525">
        <ele>853</ele>
        <time>2021-08-02T10:30:33.472Z</time>
      </trkpt>
      <trkpt lat="47.02117" lon="8.97524">
        <ele>853</ele>
        <time>2021-08-02T10:30:34.473Z</time>
      </trkpt>
      <trkpt lat="47.02116" lon="8.97523">
        <ele>853</ele>
        <time>2021-08-02T10:30:35.472Z</time>
      </trkpt>
      <trkpt lat="47.02115" lon="8.97521">
        <ele>853</ele>
        <time>2021-08-02T10:30:36.472Z</time>
      </trkpt>
      <trkpt lat="47.02114" lon="8.9752">
        <ele>853</ele>
        <time>2021-08-02T10:30:37.472Z</time>
      </trkpt>
      <trkpt lat="47.02113" lon="8.97519">
        <ele>853</ele>
        <time>2021-08-02T10:30:38.472Z</time>
      </trkpt>
      <trkpt lat="47.02113" lon="8.97518">
        <ele>852</ele>
        <time>2021-08-02T10:30:39.472Z</time>
      </trkpt>
      <trkpt lat="47.02112" lon="8.97518">
        <ele>852</ele>
        <time>2021-08-02T10:30:40.472Z</time>
      </trkpt>
      <trkpt lat="47.02111" lon="8.97518">
        <ele>851</ele>
        <time>2021-08-02T10:30:41.472Z</time>
      </trkpt>
      <trkpt lat="47.02111" lon="8.97517">
        <ele>851</ele>
        <time>2021-08-02T10:30:42.472Z</time>
      </trkpt>
      <trkpt lat="47.0211" lon="8.97516">
        <ele>851</ele>
        <time>2021-08-02T10:30:43.472Z</time>
      </trkpt>
      <trkpt lat="47.0211" lon="8.97515">
        <ele>851</ele>
        <time>2021-08-02T10:30:44.473Z</time>
      </trkpt>
      <trkpt lat="47.02109" lon="8.97514">
        <ele>851</ele>
        <time>2021-08-02T10:30:45.472Z</time>
      </trkpt>
      <trkpt lat="47.02107" lon="8.97514">
        <ele>851</ele>
        <time>2021-08-02T10:30:46.472Z</time>
      </trkpt>
      <trkpt lat="47.02106" lon="8.97512">
        <ele>851</ele>
        <time>2021-08-02T10:30:47.472Z</time>
      </trkpt>
      <trkpt lat="47.02106" lon="8.9751">
        <ele>851</ele>
        <time>2021-08-02T10:30:48.473Z</time>
      </trkpt>
      <trkpt lat="47.02106" lon="8.97507">
        <ele>851</ele>
        <time>2021-08-02T10:30:49.472Z</time>
      </trkpt>
      <trkpt lat="47.02106" lon="8.97504">
        <ele>851</ele>
        <time>2021-08-02T10:30:50.473Z</time>
      </trkpt>
      <trkpt lat="47.02107" lon="8.975">
        <ele>851</ele>
        <time>2021-08-02T10:30:51.472Z</time>
      </trkpt>
      <trkpt lat="47.02107" lon="8.97497">
        <ele>851</ele>
        <time>2021-08-02T10:30:52.472Z</time>
      </trkpt>
      <trkpt lat="47.02107" lon="8.97495">
        <ele>851</ele>
        <time>2021-08-02T10:30:53.472Z</time>
      </trkpt>
      <trkpt lat="47.02107" lon="8.97491">
        <ele>851</ele>
        <time>2021-08-02T10:30:54.472Z</time>
      </trkpt>
      <trkpt lat="47.02106" lon="8.9749">
        <ele>851</ele>
        <time>2021-08-02T10:30:55.472Z</time>
      </trkpt>
      <trkpt lat="47.02105" lon="8.97488">
        <ele>850</ele>
        <time>2021-08-02T10:30:56.472Z</time>
      </trkpt>
      <trkpt lat="47.02104" lon="8.97486">
        <ele>850</ele>
        <time>2021-08-02T10:30:57.472Z</time>
      </trkpt>
      <trkpt lat="47.02103" lon="8.97485">
        <ele>850</ele>
        <time>2021-08-02T10:30:58.472Z</time>
      </trkpt>
      <trkpt lat="47.02103" lon="8.97483">
        <ele>849</ele>
        <time>2021-08-02T10:30:59.472Z</time>
      </trkpt>
      <trkpt lat="47.02103" lon="8.97482">
        <ele>849</ele>
        <time>2021-08-02T10:31:00.472Z</time>
      </trkpt>
      <trkpt lat="47.02103" lon="8.97479">
        <ele>849</ele>
        <time>2021-08-02T10:31:01.473Z</time>
      </trkpt>
      <trkpt lat="47.02104" lon="8.97478">
        <ele>849</ele>
        <time>2021-08-02T10:31:02.472Z</time>
      </trkpt>
      <trkpt lat="47.02103" lon="8.97476">
        <ele>849</ele>
        <time>2021-08-02T10:31:03.473Z</time>
      </trkpt>
      <trkpt lat="47.02103" lon="8.97474">
        <ele>849</ele>
        <time>2021-08-02T10:31:04.472Z</time>
      </trkpt>
      <trkpt lat="47.02102" lon="8.97473">
        <ele>849</ele>
        <time>2021-08-02T10:31:05.472Z</time>
      </trkpt>
      <trkpt lat="47.02101" lon="8.97471">
        <ele>849</ele>
        <time>2021-08-02T10:31:06.473Z</time>
      </trkpt>
      <trkpt lat="47.021" lon="8.9747">
        <ele>849</ele>
        <time>2021-08-02T10:31:07.472Z</time>
      </trkpt>
      <trkpt lat="47.02099" lon="8.97469">
        <ele>849</ele>
        <time>2021-08-02T10:31:08.473Z</time>
      </trkpt>
      <trkpt lat="47.02098" lon="8.97469">
        <ele>849</ele>
        <time>2021-08-02T10:31:09.473Z</time>
      </trkpt>
      <trkpt lat="47.02098" lon="8.97468">
        <ele>849</ele>
        <time>2021-08-02T10:31:10.473Z</time>
      </trkpt>
      <trkpt lat="47.02097" lon="8.97467">
        <ele>849</ele>
        <time>2021-08-02T10:31:11.473Z</time>
      </trkpt>
      <trkpt lat="47.02096" lon="8.97466">
        <ele>849</ele>
        <time>2021-08-02T10:31:12.472Z</time>
      </trkpt>
      <trkpt lat="47.02095" lon="8.97466">
        <ele>849</ele>
        <time>2021-08-02T10:31:13.472Z</time>
      </trkpt>
      <trkpt lat="47.02095" lon="8.97465">
        <ele>849</ele>
        <time>2021-08-02T10:31:14.473Z</time>
      </trkpt>
      <trkpt lat="47.02094" lon="8.97464">
        <ele>850</ele>
        <time>2021-08-02T10:31:15.473Z</time>
      </trkpt>
      <trkpt lat="47.02093" lon="8.97462">
        <ele>850</ele>
        <time>2021-08-02T10:31:16.472Z</time>
      </trkpt>
      <trkpt lat="47.02092" lon="8.97461">
        <ele>850</ele>
        <time>2021-08-02T10:31:17.472Z</time>
      </trkpt>
      <trkpt lat="47.02092" lon="8.97459">
        <ele>850</ele>
        <time>2021-08-02T10:31:18.472Z</time>
      </trkpt>
      <trkpt lat="47.02091" lon="8.97458">
        <ele>850</ele>
        <time>2021-08-02T10:31:19.472Z</time>
      </trkpt>
      <trkpt lat="47.02091" lon="8.97457">
        <ele>850</ele>
        <time>2021-08-02T10:31:21.533Z</time>
      </trkpt>
      <trkpt lat="47.02091" lon="8.97456">
        <ele>850</ele>
        <time>2021-08-02T10:31:22.532Z</time>
      </trkpt>
      <trkpt lat="47.0209" lon="8.97454">
        <ele>850</ele>
        <time>2021-08-02T10:31:23.532Z</time>
      </trkpt>
      <trkpt lat="47.02089" lon="8.97453">
        <ele>850</ele>
        <time>2021-08-02T10:31:24.533Z</time>
      </trkpt>
      <trkpt lat="47.02089" lon="8.97452">
        <ele>850</ele>
        <time>2021-08-02T10:31:25.532Z</time>
      </trkpt>
      <trkpt lat="47.02088" lon="8.9745">
        <ele>851</ele>
        <time>2021-08-02T10:31:26.532Z</time>
      </trkpt>
      <trkpt lat="47.02087" lon="8.97449">
        <ele>851</ele>
        <time>2021-08-02T10:31:27.532Z</time>
      </trkpt>
      <trkpt lat="47.02086" lon="8.97447">
        <ele>851</ele>
        <time>2021-08-02T10:31:28.532Z</time>
      </trkpt>
      <trkpt lat="47.02085" lon="8.97445">
        <ele>851</ele>
        <time>2021-08-02T10:31:29.532Z</time>
      </trkpt>
      <trkpt lat="47.02084" lon="8.97443">
        <ele>852</ele>
        <time>2021-08-02T10:31:30.532Z</time>
      </trkpt>
      <trkpt lat="47.02084" lon="8.97441">
        <ele>852</ele>
        <time>2021-08-02T10:31:31.532Z</time>
      </trkpt>
      <trkpt lat="47.02084" lon="8.97439">
        <ele>852</ele>
        <time>2021-08-02T10:31:32.532Z</time>
      </trkpt>
      <trkpt lat="47.02084" lon="8.97438">
        <ele>852</ele>
        <time>2021-08-02T10:31:33.532Z</time>
      </trkpt>
      <trkpt lat="47.02083" lon="8.97437">
        <ele>852</ele>
        <time>2021-08-02T10:31:34.532Z</time>
      </trkpt>
      <trkpt lat="47.02083" lon="8.97435">
        <ele>852</ele>
        <time>2021-08-02T10:31:35.532Z</time>
      </trkpt>
      <trkpt lat="47.02082" lon="8.97435">
        <ele>852</ele>
        <time>2021-08-02T10:31:36.532Z</time>
      </trkpt>
      <trkpt lat="47.02082" lon="8.97434">
        <ele>853</ele>
        <time>2021-08-02T10:31:37.532Z</time>
      </trkpt>
      <trkpt lat="47.02082" lon="8.97433">
        <ele>852</ele>
        <time>2021-08-02T10:31:38.532Z</time>
      </trkpt>
      <trkpt lat="47.02082" lon="8.97432">
        <ele>852</ele>
        <time>2021-08-02T10:31:39.532Z</time>
      </trkpt>
      <trkpt lat="47.02082" lon="8.97431">
        <ele>852</ele>
        <time>2021-08-02T10:31:40.532Z</time>
      </trkpt>
      <trkpt lat="47.02082" lon="8.9743">
        <ele>852</ele>
        <time>2021-08-02T10:31:41.532Z</time>
      </trkpt>
      <trkpt lat="47.02082" lon="8.97429">
        <ele>853</ele>
        <time>2021-08-02T10:31:42.532Z</time>
      </trkpt>
      <trkpt lat="47.02081" lon="8.97428">
        <ele>853</ele>
        <time>2021-08-02T10:31:43.533Z</time>
      </trkpt>
      <trkpt lat="47.02081" lon="8.97426">
        <ele>854</ele>
        <time>2021-08-02T10:31:44.533Z</time>
      </trkpt>
      <trkpt lat="47.0208" lon="8.97425">
        <ele>854</ele>
        <time>2021-08-02T10:31:45.532Z</time>
      </trkpt>
      <trkpt lat="47.02079" lon="8.97424">
        <ele>855</ele>
        <time>2021-08-02T10:31:46.533Z</time>
      </trkpt>
      <trkpt lat="47.0208" lon="8.97422">
        <ele>855</ele>
        <time>2021-08-02T10:31:50.694Z</time>
      </trkpt>
      <trkpt lat="47.02079" lon="8.97419">
        <ele>855</ele>
        <time>2021-08-02T10:31:51.695Z</time>
      </trkpt>
      <trkpt lat="47.02079" lon="8.97416">
        <ele>855</ele>
        <time>2021-08-02T10:31:52.694Z</time>
      </trkpt>
      <trkpt lat="47.02079" lon="8.97414">
        <ele>855</ele>
        <time>2021-08-02T10:31:53.694Z</time>
      </trkpt>
      <trkpt lat="47.0208" lon="8.97413">
        <ele>855</ele>
        <time>2021-08-02T10:31:54.694Z</time>
      </trkpt>
      <trkpt lat="47.0208" lon="8.97411">
        <ele>855</ele>
        <time>2021-08-02T10:32:13.824Z</time>
      </trkpt>
      <trkpt lat="47.02079" lon="8.97409">
        <ele>854</ele>
        <time>2021-08-02T10:32:15.683Z</time>
      </trkpt>
      <trkpt lat="47.02078" lon="8.97408">
        <ele>854</ele>
        <time>2021-08-02T10:32:34.564Z</time>
      </trkpt>
      <trkpt lat="47.02077" lon="8.97406">
        <ele>854</ele>
        <time>2021-08-02T10:32:35.564Z</time>
      </trkpt>
      <trkpt lat="47.02077" lon="8.97405">
        <ele>854</ele>
        <time>2021-08-02T10:32:36.564Z</time>
      </trkpt>
      <trkpt lat="47.02076" lon="8.97404">
        <ele>854</ele>
        <time>2021-08-02T10:32:37.564Z</time>
      </trkpt>
      <trkpt lat="47.02076" lon="8.97404">
        <ele>854</ele>
        <time>2021-08-02T10:32:38.565Z</time>
      </trkpt>
      <trkpt lat="47.02076" lon="8.97402">
        <ele>854</ele>
        <time>2021-08-02T10:32:39.565Z</time>
      </trkpt>
      <trkpt lat="47.02076" lon="8.974">
        <ele>854</ele>
        <time>2021-08-02T10:32:40.564Z</time>
      </trkpt>
      <trkpt lat="47.02075" lon="8.97397">
        <ele>853</ele>
        <time>2021-08-02T10:32:41.564Z</time>
      </trkpt>
      <trkpt lat="47.02075" lon="8.97395">
        <ele>853</ele>
        <time>2021-08-02T10:32:42.565Z</time>
      </trkpt>
      <trkpt lat="47.02075" lon="8.97394">
        <ele>853</ele>
        <time>2021-08-02T10:32:43.564Z</time>
      </trkpt>
      <trkpt lat="47.02075" lon="8.97394">
        <ele>852</ele>
        <time>2021-08-02T10:32:44.565Z</time>
      </trkpt>
      <trkpt lat="47.02074" lon="8.97393">
        <ele>852</ele>
        <time>2021-08-02T10:32:45.564Z</time>
      </trkpt>
      <trkpt lat="47.02073" lon="8.97392">
        <ele>852</ele>
        <time>2021-08-02T10:32:46.564Z</time>
      </trkpt>
      <trkpt lat="47.02073" lon="8.97391">
        <ele>851</ele>
        <time>2021-08-02T10:32:52.688Z</time>
      </trkpt>
      <trkpt lat="47.02073" lon="8.97389">
        <ele>851</ele>
        <time>2021-08-02T10:32:53.689Z</time>
      </trkpt>
      <trkpt lat="47.02073" lon="8.97388">
        <ele>850</ele>
        <time>2021-08-02T10:32:54.688Z</time>
      </trkpt>
      <trkpt lat="47.02072" lon="8.97387">
        <ele>850</ele>
        <time>2021-08-02T10:32:55.688Z</time>
      </trkpt>
      <trkpt lat="47.02071" lon="8.97385">
        <ele>850</ele>
        <time>2021-08-02T10:32:56.688Z</time>
      </trkpt>
      <trkpt lat="47.02071" lon="8.97383">
        <ele>849</ele>
        <time>2021-08-02T10:32:57.688Z</time>
      </trkpt>
      <trkpt lat="47.0207" lon="8.97381">
        <ele>849</ele>
        <time>2021-08-02T10:32:59.799Z</time>
      </trkpt>
      <trkpt lat="47.02069" lon="8.97379">
        <ele>848</ele>
        <time>2021-08-02T10:33:00.798Z</time>
      </trkpt>
      <trkpt lat="47.02067" lon="8.97377">
        <ele>848</ele>
        <time>2021-08-02T10:33:01.798Z</time>
      </trkpt>
      <trkpt lat="47.02066" lon="8.97375">
        <ele>847</ele>
        <time>2021-08-02T10:33:02.798Z</time>
      </trkpt>
      <trkpt lat="47.02066" lon="8.97374">
        <ele>847</ele>
        <time>2021-08-02T10:33:03.798Z</time>
      </trkpt>
      <trkpt lat="47.02065" lon="8.97373">
        <ele>846</ele>
        <time>2021-08-02T10:33:04.799Z</time>
      </trkpt>
      <trkpt lat="47.02064" lon="8.97372">
        <ele>846</ele>
        <time>2021-08-02T10:33:05.799Z</time>
      </trkpt>
      <trkpt lat="47.02064" lon="8.97371">
        <ele>846</ele>
        <time>2021-08-02T10:33:06.798Z</time>
      </trkpt>
      <trkpt lat="47.02063" lon="8.97369">
        <ele>847</ele>
        <time>2021-08-02T10:33:07.798Z</time>
      </trkpt>
      <trkpt lat="47.02063" lon="8.97367">
        <ele>847</ele>
        <time>2021-08-02T10:33:08.798Z</time>
      </trkpt>
      <trkpt lat="47.02063" lon="8.97366">
        <ele>848</ele>
        <time>2021-08-02T10:33:09.798Z</time>
      </trkpt>
      <trkpt lat="47.02062" lon="8.97364">
        <ele>849</ele>
        <time>2021-08-02T10:33:10.798Z</time>
      </trkpt>
      <trkpt lat="47.02062" lon="8.97362">
        <ele>850</ele>
        <time>2021-08-02T10:33:11.798Z</time>
      </trkpt>
      <trkpt lat="47.02062" lon="8.97359">
        <ele>851</ele>
        <time>2021-08-02T10:33:12.798Z</time>
      </trkpt>
      <trkpt lat="47.02063" lon="8.97357">
        <ele>852</ele>
        <time>2021-08-02T10:33:13.798Z</time>
      </trkpt>
      <trkpt lat="47.02063" lon="8.97355">
        <ele>853</ele>
        <time>2021-08-02T10:33:14.799Z</time>
      </trkpt>
      <trkpt lat="47.02062" lon="8.97353">
        <ele>854</ele>
        <time>2021-08-02T10:33:15.798Z</time>
      </trkpt>
      <trkpt lat="47.02061" lon="8.9735">
        <ele>854</ele>
        <time>2021-08-02T10:33:16.798Z</time>
      </trkpt>
      <trkpt lat="47.0206" lon="8.97349">
        <ele>855</ele>
        <time>2021-08-02T10:33:17.799Z</time>
      </trkpt>
      <trkpt lat="47.0206" lon="8.97348">
        <ele>856</ele>
        <time>2021-08-02T10:33:18.798Z</time>
      </trkpt>
      <trkpt lat="47.02059" lon="8.97347">
        <ele>857</ele>
        <time>2021-08-02T10:33:19.799Z</time>
      </trkpt>
      <trkpt lat="47.02058" lon="8.97346">
        <ele>857</ele>
        <time>2021-08-02T10:33:20.798Z</time>
      </trkpt>
      <trkpt lat="47.02058" lon="8.97344">
        <ele>857</ele>
        <time>2021-08-02T10:33:21.799Z</time>
      </trkpt>
      <trkpt lat="47.02057" lon="8.9734">
        <ele>858</ele>
        <time>2021-08-02T10:33:22.798Z</time>
      </trkpt>
      <trkpt lat="47.02056" lon="8.97337">
        <ele>858</ele>
        <time>2021-08-02T10:33:23.798Z</time>
      </trkpt>
      <trkpt lat="47.02055" lon="8.97335">
        <ele>858</ele>
        <time>2021-08-02T10:33:24.798Z</time>
      </trkpt>
      <trkpt lat="47.02055" lon="8.97334">
        <ele>858</ele>
        <time>2021-08-02T10:33:25.798Z</time>
      </trkpt>
      <trkpt lat="47.02053" lon="8.97335">
        <ele>858</ele>
        <time>2021-08-02T10:33:26.798Z</time>
      </trkpt>
      <trkpt lat="47.02053" lon="8.97334">
        <ele>858</ele>
        <time>2021-08-02T10:33:27.798Z</time>
      </trkpt>
      <trkpt lat="47.02053" lon="8.97333">
        <ele>858</ele>
        <time>2021-08-02T10:33:28.798Z</time>
      </trkpt>
      <trkpt lat="47.02053" lon="8.97331">
        <ele>858</ele>
        <time>2021-08-02T10:33:29.798Z</time>
      </trkpt>
      <trkpt lat="47.02052" lon="8.97331">
        <ele>858</ele>
        <time>2021-08-02T10:33:30.799Z</time>
      </trkpt>
      <trkpt lat="47.02052" lon="8.97329">
        <ele>858</ele>
        <time>2021-08-02T10:33:31.798Z</time>
      </trkpt>
      <trkpt lat="47.02051" lon="8.97328">
        <ele>858</ele>
        <time>2021-08-02T10:33:32.798Z</time>
      </trkpt>
      <trkpt lat="47.02051" lon="8.97326">
        <ele>858</ele>
        <time>2021-08-02T10:33:33.798Z</time>
      </trkpt>
      <trkpt lat="47.0205" lon="8.97325">
        <ele>858</ele>
        <time>2021-08-02T10:33:34.798Z</time>
      </trkpt>
      <trkpt lat="47.0205" lon="8.97323">
        <ele>858</ele>
        <time>2021-08-02T10:33:35.798Z</time>
      </trkpt>
      <trkpt lat="47.0205" lon="8.97322">
        <ele>857</ele>
        <time>2021-08-02T10:33:36.798Z</time>
      </trkpt>
      <trkpt lat="47.02049" lon="8.9732">
        <ele>857</ele>
        <time>2021-08-02T10:33:37.798Z</time>
      </trkpt>
      <trkpt lat="47.02049" lon="8.97318">
        <ele>857</ele>
        <time>2021-08-02T10:33:38.798Z</time>
      </trkpt>
      <trkpt lat="47.02049" lon="8.97317">
        <ele>857</ele>
        <time>2021-08-02T10:33:39.798Z</time>
      </trkpt>
      <trkpt lat="47.02049" lon="8.97316">
        <ele>858</ele>
        <time>2021-08-02T10:33:40.798Z</time>
      </trkpt>
      <trkpt lat="47.02048" lon="8.97315">
        <ele>858</ele>
        <time>2021-08-02T10:33:41.799Z</time>
      </trkpt>
      <trkpt lat="47.02048" lon="8.97314">
        <ele>858</ele>
        <time>2021-08-02T10:33:42.798Z</time>
      </trkpt>
      <trkpt lat="47.02047" lon="8.97313">
        <ele>858</ele>
        <time>2021-08-02T10:33:43.799Z</time>
      </trkpt>
      <trkpt lat="47.02046" lon="8.97312">
        <ele>858</ele>
        <time>2021-08-02T10:33:44.798Z</time>
      </trkpt>
      <trkpt lat="47.02046" lon="8.97311">
        <ele>858</ele>
        <time>2021-08-02T10:33:45.798Z</time>
      </trkpt>
      <trkpt lat="47.02045" lon="8.9731">
        <ele>857</ele>
        <time>2021-08-02T10:33:46.798Z</time>
      </trkpt>
      <trkpt lat="47.02045" lon="8.97309">
        <ele>856</ele>
        <time>2021-08-02T10:33:47.798Z</time>
      </trkpt>
      <trkpt lat="47.02044" lon="8.97308">
        <ele>856</ele>
        <time>2021-08-02T10:33:48.798Z</time>
      </trkpt>
      <trkpt lat="47.02044" lon="8.97307">
        <ele>855</ele>
        <time>2021-08-02T10:33:49.798Z</time>
      </trkpt>
      <trkpt lat="47.02043" lon="8.97307">
        <ele>855</ele>
        <time>2021-08-02T10:33:50.798Z</time>
      </trkpt>
      <trkpt lat="47.02042" lon="8.97306">
        <ele>854</ele>
        <time>2021-08-02T10:33:51.798Z</time>
      </trkpt>
      <trkpt lat="47.02042" lon="8.97305">
        <ele>854</ele>
        <time>2021-08-02T10:33:52.798Z</time>
      </trkpt>
      <trkpt lat="47.02043" lon="8.97303">
        <ele>854</ele>
        <time>2021-08-02T10:33:53.798Z</time>
      </trkpt>
      <trkpt lat="47.02043" lon="8.97303">
        <ele>854</ele>
        <time>2021-08-02T10:33:54.798Z</time>
      </trkpt>
      <trkpt lat="47.02044" lon="8.97302">
        <ele>854</ele>
        <time>2021-08-02T10:33:55.798Z</time>
      </trkpt>
      <trkpt lat="47.02044" lon="8.97301">
        <ele>855</ele>
        <time>2021-08-02T10:33:56.799Z</time>
      </trkpt>
      <trkpt lat="47.02044" lon="8.973">
        <ele>855</ele>
        <time>2021-08-02T10:33:57.798Z</time>
      </trkpt>
      <trkpt lat="47.02045" lon="8.97299">
        <ele>856</ele>
        <time>2021-08-02T10:33:58.798Z</time>
      </trkpt>
      <trkpt lat="47.02045" lon="8.97298">
        <ele>856</ele>
        <time>2021-08-02T10:33:59.798Z</time>
      </trkpt>
      <trkpt lat="47.02046" lon="8.97296">
        <ele>856</ele>
        <time>2021-08-02T10:34:00.799Z</time>
      </trkpt>
      <trkpt lat="47.02046" lon="8.97295">
        <ele>856</ele>
        <time>2021-08-02T10:34:01.798Z</time>
      </trkpt>
      <trkpt lat="47.02046" lon="8.97294">
        <ele>856</ele>
        <time>2021-08-02T10:34:02.798Z</time>
      </trkpt>
      <trkpt lat="47.02046" lon="8.97292">
        <ele>855</ele>
        <time>2021-08-02T10:34:03.798Z</time>
      </trkpt>
      <trkpt lat="47.02047" lon="8.97291">
        <ele>855</ele>
        <time>2021-08-02T10:34:04.798Z</time>
      </trkpt>
      <trkpt lat="47.02047" lon="8.97288">
        <ele>854</ele>
        <time>2021-08-02T10:34:05.799Z</time>
      </trkpt>
      <trkpt lat="47.02047" lon="8.97286">
        <ele>853</ele>
        <time>2021-08-02T10:34:06.798Z</time>
      </trkpt>
      <trkpt lat="47.02046" lon="8.97284">
        <ele>852</ele>
        <time>2021-08-02T10:34:07.798Z</time>
      </trkpt>
      <trkpt lat="47.02045" lon="8.97282">
        <ele>852</ele>
        <time>2021-08-02T10:34:08.798Z</time>
      </trkpt>
      <trkpt lat="47.02045" lon="8.97281">
        <ele>851</ele>
        <time>2021-08-02T10:34:09.798Z</time>
      </trkpt>
      <trkpt lat="47.02044" lon="8.9728">
        <ele>850</ele>
        <time>2021-08-02T10:34:10.798Z</time>
      </trkpt>
      <trkpt lat="47.02044" lon="8.97278">
        <ele>849</ele>
        <time>2021-08-02T10:34:11.798Z</time>
      </trkpt>
      <trkpt lat="47.02045" lon="8.97277">
        <ele>849</ele>
        <time>2021-08-02T10:34:12.798Z</time>
      </trkpt>
      <trkpt lat="47.02045" lon="8.97275">
        <ele>849</ele>
        <time>2021-08-02T10:34:13.798Z</time>
      </trkpt>
      <trkpt lat="47.02045" lon="8.97273">
        <ele>849</ele>
        <time>2021-08-02T10:34:14.798Z</time>
      </trkpt>
      <trkpt lat="47.02045" lon="8.97272">
        <ele>849</ele>
        <time>2021-08-02T10:34:15.798Z</time>
      </trkpt>
      <trkpt lat="47.02045" lon="8.97271">
        <ele>849</ele>
        <time>2021-08-02T10:34:16.798Z</time>
      </trkpt>
      <trkpt lat="47.02045" lon="8.9727">
        <ele>850</ele>
        <time>2021-08-02T10:34:17.798Z</time>
      </trkpt>
      <trkpt lat="47.02045" lon="8.97268">
        <ele>850</ele>
        <time>2021-08-02T10:34:18.798Z</time>
      </trkpt>
      <trkpt lat="47.02045" lon="8.97267">
        <ele>849</ele>
        <time>2021-08-02T10:34:19.798Z</time>
      </trkpt>
      <trkpt lat="47.02045" lon="8.97266">
        <ele>849</ele>
        <time>2021-08-02T10:34:20.799Z</time>
      </trkpt>
      <trkpt lat="47.02046" lon="8.97264">
        <ele>849</ele>
        <time>2021-08-02T10:34:21.798Z</time>
      </trkpt>
      <trkpt lat="47.02046" lon="8.97263">
        <ele>849</ele>
        <time>2021-08-02T10:34:22.799Z</time>
      </trkpt>
      <trkpt lat="47.02047" lon="8.97262">
        <ele>849</ele>
        <time>2021-08-02T10:34:23.798Z</time>
      </trkpt>
      <trkpt lat="47.02047" lon="8.97262">
        <ele>849</ele>
        <time>2021-08-02T10:34:24.799Z</time>
      </trkpt>
      <trkpt lat="47.02048" lon="8.97261">
        <ele>849</ele>
        <time>2021-08-02T10:34:25.798Z</time>
      </trkpt>
      <trkpt lat="47.02049" lon="8.97261">
        <ele>849</ele>
        <time>2021-08-02T10:34:26.798Z</time>
      </trkpt>
      <trkpt lat="47.0205" lon="8.97259">
        <ele>849</ele>
        <time>2021-08-02T10:34:27.798Z</time>
      </trkpt>
      <trkpt lat="47.02051" lon="8.97257">
        <ele>849</ele>
        <time>2021-08-02T10:34:28.799Z</time>
      </trkpt>
      <trkpt lat="47.02052" lon="8.97255">
        <ele>849</ele>
        <time>2021-08-02T10:34:29.798Z</time>
      </trkpt>
      <trkpt lat="47.02052" lon="8.97254">
        <ele>849</ele>
        <time>2021-08-02T10:34:30.798Z</time>
      </trkpt>
      <trkpt lat="47.02052" lon="8.97252">
        <ele>849</ele>
        <time>2021-08-02T10:34:31.798Z</time>
      </trkpt>
      <trkpt lat="47.02053" lon="8.97251">
        <ele>849</ele>
        <time>2021-08-02T10:34:32.798Z</time>
      </trkpt>
      <trkpt lat="47.02053" lon="8.9725">
        <ele>849</ele>
        <time>2021-08-02T10:34:33.798Z</time>
      </trkpt>
      <trkpt lat="47.02053" lon="8.97248">
        <ele>849</ele>
        <time>2021-08-02T10:34:34.798Z</time>
      </trkpt>
      <trkpt lat="47.02052" lon="8.97247">
        <ele>849</ele>
        <time>2021-08-02T10:34:35.798Z</time>
      </trkpt>
      <trkpt lat="47.02053" lon="8.97245">
        <ele>849</ele>
        <time>2021-08-02T10:34:36.798Z</time>
      </trkpt>
      <trkpt lat="47.02053" lon="8.97244">
        <ele>849</ele>
        <time>2021-08-02T10:34:37.798Z</time>
      </trkpt>
      <trkpt lat="47.02053" lon="8.97242">
        <ele>849</ele>
        <time>2021-08-02T10:34:38.798Z</time>
      </trkpt>
      <trkpt lat="47.02054" lon="8.97241">
        <ele>849</ele>
        <time>2021-08-02T10:34:39.798Z</time>
      </trkpt>
      <trkpt lat="47.02054" lon="8.9724">
        <ele>850</ele>
        <time>2021-08-02T10:34:40.799Z</time>
      </trkpt>
      <trkpt lat="47.02054" lon="8.97238">
        <ele>850</ele>
        <time>2021-08-02T10:34:41.798Z</time>
      </trkpt>
      <trkpt lat="47.02054" lon="8.97237">
        <ele>851</ele>
        <time>2021-08-02T10:34:42.798Z</time>
      </trkpt>
      <trkpt lat="47.02054" lon="8.97236">
        <ele>851</ele>
        <time>2021-08-02T10:34:43.799Z</time>
      </trkpt>
      <trkpt lat="47.02053" lon="8.97235">
        <ele>851</ele>
        <time>2021-08-02T10:34:44.798Z</time>
      </trkpt>
      <trkpt lat="47.02053" lon="8.97234">
        <ele>852</ele>
        <time>2021-08-02T10:34:45.798Z</time>
      </trkpt>
      <trkpt lat="47.02052" lon="8.97233">
        <ele>852</ele>
        <time>2021-08-02T10:34:46.799Z</time>
      </trkpt>
      <trkpt lat="47.02052" lon="8.97232">
        <ele>852</ele>
        <time>2021-08-02T10:34:47.798Z</time>
      </trkpt>
      <trkpt lat="47.02052" lon="8.9723">
        <ele>852</ele>
        <time>2021-08-02T10:34:48.798Z</time>
      </trkpt>
      <trkpt lat="47.02051" lon="8.97229">
        <ele>852</ele>
        <time>2021-08-02T10:34:49.798Z</time>
      </trkpt>
      <trkpt lat="47.02052" lon="8.97228">
        <ele>852</ele>
        <time>2021-08-02T10:34:50.798Z</time>
      </trkpt>
      <trkpt lat="47.02053" lon="8.97228">
        <ele>852</ele>
        <time>2021-08-02T10:34:51.798Z</time>
      </trkpt>
      <trkpt lat="47.02053" lon="8.97228">
        <ele>852</ele>
        <time>2021-08-02T10:34:52.799Z</time>
      </trkpt>
      <trkpt lat="47.02054" lon="8.97227">
        <ele>852</ele>
        <time>2021-08-02T10:34:53.798Z</time>
      </trkpt>
      <trkpt lat="47.02055" lon="8.97227">
        <ele>853</ele>
        <time>2021-08-02T10:34:54.798Z</time>
      </trkpt>
      <trkpt lat="47.02055" lon="8.97226">
        <ele>853</ele>
        <time>2021-08-02T10:34:55.798Z</time>
      </trkpt>
      <trkpt lat="47.02056" lon="8.97226">
        <ele>854</ele>
        <time>2021-08-02T10:34:56.798Z</time>
      </trkpt>
      <trkpt lat="47.02057" lon="8.97225">
        <ele>854</ele>
        <time>2021-08-02T10:34:57.798Z</time>
      </trkpt>
      <trkpt lat="47.02058" lon="8.97224">
        <ele>854</ele>
        <time>2021-08-02T10:34:58.798Z</time>
      </trkpt>
      <trkpt lat="47.02058" lon="8.97224">
        <ele>854</ele>
        <time>2021-08-02T10:34:59.798Z</time>
      </trkpt>
      <trkpt lat="47.02058" lon="8.97224">
        <ele>855</ele>
        <time>2021-08-02T10:35:00.798Z</time>
      </trkpt>
      <trkpt lat="47.02059" lon="8.97223">
        <ele>855</ele>
        <time>2021-08-02T10:35:01.798Z</time>
      </trkpt>
      <trkpt lat="47.0206" lon="8.97222">
        <ele>855</ele>
        <time>2021-08-02T10:35:02.798Z</time>
      </trkpt>
      <trkpt lat="47.02061" lon="8.9722">
        <ele>855</ele>
        <time>2021-08-02T10:35:03.799Z</time>
      </trkpt>
      <trkpt lat="47.02062" lon="8.97219">
        <ele>855</ele>
        <time>2021-08-02T10:35:04.798Z</time>
      </trkpt>
      <trkpt lat="47.02063" lon="8.97218">
        <ele>855</ele>
        <time>2021-08-02T10:35:05.798Z</time>
      </trkpt>
      <trkpt lat="47.02063" lon="8.97217">
        <ele>855</ele>
        <time>2021-08-02T10:35:06.798Z</time>
      </trkpt>
      <trkpt lat="47.02064" lon="8.97216">
        <ele>855</ele>
        <time>2021-08-02T10:35:07.798Z</time>
      </trkpt>
      <trkpt lat="47.02066" lon="8.97216">
        <ele>855</ele>
        <time>2021-08-02T10:35:08.799Z</time>
      </trkpt>
      <trkpt lat="47.02068" lon="8.97215">
        <ele>855</ele>
        <time>2021-08-02T10:35:09.798Z</time>
      </trkpt>
      <trkpt lat="47.02068" lon="8.97214">
        <ele>855</ele>
        <time>2021-08-02T10:35:10.798Z</time>
      </trkpt>
      <trkpt lat="47.02069" lon="8.97213">
        <ele>855</ele>
        <time>2021-08-02T10:35:11.798Z</time>
      </trkpt>
      <trkpt lat="47.02069" lon="8.97212">
        <ele>855</ele>
        <time>2021-08-02T10:35:12.798Z</time>
      </trkpt>
      <trkpt lat="47.0207" lon="8.9721">
        <ele>855</ele>
        <time>2021-08-02T10:35:13.798Z</time>
      </trkpt>
      <trkpt lat="47.02071" lon="8.97209">
        <ele>855</ele>
        <time>2021-08-02T10:35:14.798Z</time>
      </trkpt>
      <trkpt lat="47.02072" lon="8.97208">
        <ele>855</ele>
        <time>2021-08-02T10:35:15.798Z</time>
      </trkpt>
      <trkpt lat="47.02072" lon="8.97208">
        <ele>855</ele>
        <time>2021-08-02T10:35:16.798Z</time>
      </trkpt>
      <trkpt lat="47.02072" lon="8.97207">
        <ele>855</ele>
        <time>2021-08-02T10:35:17.799Z</time>
      </trkpt>
      <trkpt lat="47.02072" lon="8.97206">
        <ele>855</ele>
        <time>2021-08-02T10:35:18.799Z</time>
      </trkpt>
      <trkpt lat="47.02072" lon="8.97205">
        <ele>856</ele>
        <time>2021-08-02T10:35:19.798Z</time>
      </trkpt>
      <trkpt lat="47.02071" lon="8.97204">
        <ele>856</ele>
        <time>2021-08-02T10:35:20.798Z</time>
      </trkpt>
      <trkpt lat="47.02071" lon="8.97203">
        <ele>856</ele>
        <time>2021-08-02T10:35:21.799Z</time>
      </trkpt>
      <trkpt lat="47.02071" lon="8.97202">
        <ele>856</ele>
        <time>2021-08-02T10:35:22.798Z</time>
      </trkpt>
      <trkpt lat="47.02071" lon="8.97201">
        <ele>856</ele>
        <time>2021-08-02T10:35:23.798Z</time>
      </trkpt>
      <trkpt lat="47.02071" lon="8.972">
        <ele>856</ele>
        <time>2021-08-02T10:35:24.798Z</time>
      </trkpt>
      <trkpt lat="47.02072" lon="8.97198">
        <ele>856</ele>
        <time>2021-08-02T10:35:25.798Z</time>
      </trkpt>
      <trkpt lat="47.02072" lon="8.97198">
        <ele>857</ele>
        <time>2021-08-02T10:35:26.798Z</time>
      </trkpt>
      <trkpt lat="47.02073" lon="8.97197">
        <ele>857</ele>
        <time>2021-08-02T10:35:27.798Z</time>
      </trkpt>
      <trkpt lat="47.02074" lon="8.97195">
        <ele>857</ele>
        <time>2021-08-02T10:35:28.798Z</time>
      </trkpt>
      <trkpt lat="47.02074" lon="8.97194">
        <ele>857</ele>
        <time>2021-08-02T10:35:29.798Z</time>
      </trkpt>
      <trkpt lat="47.02074" lon="8.97193">
        <ele>857</ele>
        <time>2021-08-02T10:35:30.799Z</time>
      </trkpt>
      <trkpt lat="47.02073" lon="8.97192">
        <ele>857</ele>
        <time>2021-08-02T10:35:31.798Z</time>
      </trkpt>
      <trkpt lat="47.02073" lon="8.97191">
        <ele>857</ele>
        <time>2021-08-02T10:35:32.799Z</time>
      </trkpt>
      <trkpt lat="47.02073" lon="8.9719">
        <ele>857</ele>
        <time>2021-08-02T10:35:33.798Z</time>
      </trkpt>
      <trkpt lat="47.02074" lon="8.97189">
        <ele>857</ele>
        <time>2021-08-02T10:35:34.798Z</time>
      </trkpt>
      <trkpt lat="47.02074" lon="8.97188">
        <ele>857</ele>
        <time>2021-08-02T10:35:35.798Z</time>
      </trkpt>
      <trkpt lat="47.02074" lon="8.97187">
        <ele>857</ele>
        <time>2021-08-02T10:35:36.799Z</time>
      </trkpt>
      <trkpt lat="47.02074" lon="8.97186">
        <ele>857</ele>
        <time>2021-08-02T10:35:37.798Z</time>
      </trkpt>
      <trkpt lat="47.02075" lon="8.97185">
        <ele>857</ele>
        <time>2021-08-02T10:35:38.799Z</time>
      </trkpt>
      <trkpt lat="47.02076" lon="8.97185">
        <ele>858</ele>
        <time>2021-08-02T10:35:39.798Z</time>
      </trkpt>
      <trkpt lat="47.02076" lon="8.97185">
        <ele>858</ele>
        <time>2021-08-02T10:35:40.798Z</time>
      </trkpt>
      <trkpt lat="47.02076" lon="8.97185">
        <ele>858</ele>
        <time>2021-08-02T10:35:41.798Z</time>
      </trkpt>
      <trkpt lat="47.02076" lon="8.97185">
        <ele>858</ele>
        <time>2021-08-02T10:35:42.798Z</time>
      </trkpt>
      <trkpt lat="47.02077" lon="8.97182">
        <ele>858</ele>
        <time>2021-08-02T10:35:43.798Z</time>
      </trkpt>
      <trkpt lat="47.02078" lon="8.9718">
        <ele>857</ele>
        <time>2021-08-02T10:35:44.798Z</time>
      </trkpt>
      <trkpt lat="47.02079" lon="8.97179">
        <ele>857</ele>
        <time>2021-08-02T10:35:45.798Z</time>
      </trkpt>
      <trkpt lat="47.0208" lon="8.97177">
        <ele>857</ele>
        <time>2021-08-02T10:35:46.798Z</time>
      </trkpt>
      <trkpt lat="47.0208" lon="8.97177">
        <ele>857</ele>
        <time>2021-08-02T10:35:47.798Z</time>
      </trkpt>
      <trkpt lat="47.0208" lon="8.97176">
        <ele>857</ele>
        <time>2021-08-02T10:35:48.798Z</time>
      </trkpt>
      <trkpt lat="47.0208" lon="8.97175">
        <ele>857</ele>
        <time>2021-08-02T10:35:49.798Z</time>
      </trkpt>
      <trkpt lat="47.0208" lon="8.97175">
        <ele>857</ele>
        <time>2021-08-02T10:35:50.798Z</time>
      </trkpt>
      <trkpt lat="47.0208" lon="8.97174">
        <ele>856</ele>
        <time>2021-08-02T10:35:51.800Z</time>
      </trkpt>
      <trkpt lat="47.0208" lon="8.97172">
        <ele>856</ele>
        <time>2021-08-02T10:35:52.800Z</time>
      </trkpt>
      <trkpt lat="47.02081" lon="8.97171">
        <ele>856</ele>
        <time>2021-08-02T10:35:53.800Z</time>
      </trkpt>
      <trkpt lat="47.02082" lon="8.9717">
        <ele>856</ele>
        <time>2021-08-02T10:35:54.799Z</time>
      </trkpt>
      <trkpt lat="47.02082" lon="8.97168">
        <ele>856</ele>
        <time>2021-08-02T10:35:55.800Z</time>
      </trkpt>
      <trkpt lat="47.02083" lon="8.97167">
        <ele>855</ele>
        <time>2021-08-02T10:35:56.799Z</time>
      </trkpt>
      <trkpt lat="47.02084" lon="8.97165">
        <ele>854</ele>
        <time>2021-08-02T10:35:57.799Z</time>
      </trkpt>
      <trkpt lat="47.02085" lon="8.97163">
        <ele>854</ele>
        <time>2021-08-02T10:35:58.799Z</time>
      </trkpt>
      <trkpt lat="47.02086" lon="8.97162">
        <ele>853</ele>
        <time>2021-08-02T10:35:59.799Z</time>
      </trkpt>
      <trkpt lat="47.02086" lon="8.9716">
        <ele>853</ele>
        <time>2021-08-02T10:36:00.800Z</time>
      </trkpt>
      <trkpt lat="47.02087" lon="8.97159">
        <ele>853</ele>
        <time>2021-08-02T10:36:01.800Z</time>
      </trkpt>
      <trkpt lat="47.02087" lon="8.97157">
        <ele>853</ele>
        <time>2021-08-02T10:36:02.800Z</time>
      </trkpt>
      <trkpt lat="47.02087" lon="8.97155">
        <ele>853</ele>
        <time>2021-08-02T10:36:03.799Z</time>
      </trkpt>
      <trkpt lat="47.02087" lon="8.97152">
        <ele>854</ele>
        <time>2021-08-02T10:36:04.800Z</time>
      </trkpt>
      <trkpt lat="47.02087" lon="8.9715">
        <ele>853</ele>
        <time>2021-08-02T10:36:05.800Z</time>
      </trkpt>
      <trkpt lat="47.02087" lon="8.97149">
        <ele>853</ele>
        <time>2021-08-02T10:36:06.800Z</time>
      </trkpt>
      <trkpt lat="47.02089" lon="8.97147">
        <ele>853</ele>
        <time>2021-08-02T10:36:07.800Z</time>
      </trkpt>
      <trkpt lat="47.0209" lon="8.97145">
        <ele>853</ele>
        <time>2021-08-02T10:36:08.799Z</time>
      </trkpt>
      <trkpt lat="47.02092" lon="8.97144">
        <ele>853</ele>
        <time>2021-08-02T10:36:09.800Z</time>
      </trkpt>
      <trkpt lat="47.02092" lon="8.97142">
        <ele>853</ele>
        <time>2021-08-02T10:36:10.800Z</time>
      </trkpt>
      <trkpt lat="47.02093" lon="8.97141">
        <ele>853</ele>
        <time>2021-08-02T10:36:11.800Z</time>
      </trkpt>
      <trkpt lat="47.02095" lon="8.97139">
        <ele>853</ele>
        <time>2021-08-02T10:36:12.799Z</time>
      </trkpt>
      <trkpt lat="47.02095" lon="8.97138">
        <ele>853</ele>
        <time>2021-08-02T10:36:13.799Z</time>
      </trkpt>
      <trkpt lat="47.02095" lon="8.97137">
        <ele>853</ele>
        <time>2021-08-02T10:36:14.800Z</time>
      </trkpt>
      <trkpt lat="47.02096" lon="8.97135">
        <ele>854</ele>
        <time>2021-08-02T10:36:15.800Z</time>
      </trkpt>
      <trkpt lat="47.02096" lon="8.97134">
        <ele>854</ele>
        <time>2021-08-02T10:36:16.800Z</time>
      </trkpt>
      <trkpt lat="47.02097" lon="8.97132">
        <ele>855</ele>
        <time>2021-08-02T10:36:17.799Z</time>
      </trkpt>
      <trkpt lat="47.02097" lon="8.97132">
        <ele>855</ele>
        <time>2021-08-02T10:36:18.800Z</time>
      </trkpt>
      <trkpt lat="47.02097" lon="8.97131">
        <ele>856</ele>
        <time>2021-08-02T10:36:19.800Z</time>
      </trkpt>
      <trkpt lat="47.02097" lon="8.9713">
        <ele>857</ele>
        <time>2021-08-02T10:36:20.800Z</time>
      </trkpt>
      <trkpt lat="47.02099" lon="8.97128">
        <ele>857</ele>
        <time>2021-08-02T10:36:21.799Z</time>
      </trkpt>
      <trkpt lat="47.02099" lon="8.97127">
        <ele>857</ele>
        <time>2021-08-02T10:36:22.799Z</time>
      </trkpt>
      <trkpt lat="47.021" lon="8.97125">
        <ele>857</ele>
        <time>2021-08-02T10:36:23.799Z</time>
      </trkpt>
      <trkpt lat="47.02102" lon="8.97123">
        <ele>858</ele>
        <time>2021-08-02T10:36:24.799Z</time>
      </trkpt>
      <trkpt lat="47.02103" lon="8.97122">
        <ele>858</ele>
        <time>2021-08-02T10:36:25.799Z</time>
      </trkpt>
      <trkpt lat="47.02103" lon="8.9712">
        <ele>857</ele>
        <time>2021-08-02T10:36:26.799Z</time>
      </trkpt>
      <trkpt lat="47.02104" lon="8.97118">
        <ele>857</ele>
        <time>2021-08-02T10:36:27.800Z</time>
      </trkpt>
      <trkpt lat="47.02104" lon="8.97117">
        <ele>857</ele>
        <time>2021-08-02T10:36:28.799Z</time>
      </trkpt>
      <trkpt lat="47.02104" lon="8.97116">
        <ele>856</ele>
        <time>2021-08-02T10:36:29.800Z</time>
      </trkpt>
      <trkpt lat="47.02104" lon="8.97114">
        <ele>856</ele>
        <time>2021-08-02T10:36:30.800Z</time>
      </trkpt>
      <trkpt lat="47.02105" lon="8.97112">
        <ele>856</ele>
        <time>2021-08-02T10:36:31.799Z</time>
      </trkpt>
      <trkpt lat="47.02106" lon="8.9711">
        <ele>857</ele>
        <time>2021-08-02T10:36:32.799Z</time>
      </trkpt>
      <trkpt lat="47.02107" lon="8.97108">
        <ele>857</ele>
        <time>2021-08-02T10:36:33.799Z</time>
      </trkpt>
      <trkpt lat="47.02108" lon="8.97107">
        <ele>857</ele>
        <time>2021-08-02T10:36:34.800Z</time>
      </trkpt>
      <trkpt lat="47.02108" lon="8.97105">
        <ele>857</ele>
        <time>2021-08-02T10:36:35.800Z</time>
      </trkpt>
      <trkpt lat="47.02109" lon="8.97104">
        <ele>857</ele>
        <time>2021-08-02T10:36:36.800Z</time>
      </trkpt>
      <trkpt lat="47.0211" lon="8.97103">
        <ele>858</ele>
        <time>2021-08-02T10:36:37.799Z</time>
      </trkpt>
      <trkpt lat="47.0211" lon="8.97101">
        <ele>858</ele>
        <time>2021-08-02T10:36:38.800Z</time>
      </trkpt>
      <trkpt lat="47.02111" lon="8.971">
        <ele>858</ele>
        <time>2021-08-02T10:36:39.800Z</time>
      </trkpt>
      <trkpt lat="47.02111" lon="8.97099">
        <ele>858</ele>
        <time>2021-08-02T10:36:40.799Z</time>
      </trkpt>
      <trkpt lat="47.02112" lon="8.97098">
        <ele>858</ele>
        <time>2021-08-02T10:36:41.799Z</time>
      </trkpt>
      <trkpt lat="47.02112" lon="8.97096">
        <ele>858</ele>
        <time>2021-08-02T10:36:42.800Z</time>
      </trkpt>
      <trkpt lat="47.02113" lon="8.97094">
        <ele>858</ele>
        <time>2021-08-02T10:36:43.799Z</time>
      </trkpt>
      <trkpt lat="47.02113" lon="8.97092">
        <ele>859</ele>
        <time>2021-08-02T10:36:44.800Z</time>
      </trkpt>
      <trkpt lat="47.02113" lon="8.9709">
        <ele>859</ele>
        <time>2021-08-02T10:36:45.800Z</time>
      </trkpt>
      <trkpt lat="47.02113" lon="8.97087">
        <ele>858</ele>
        <time>2021-08-02T10:36:46.799Z</time>
      </trkpt>
      <trkpt lat="47.02114" lon="8.97086">
        <ele>858</ele>
        <time>2021-08-02T10:36:47.800Z</time>
      </trkpt>
      <trkpt lat="47.02114" lon="8.97084">
        <ele>858</ele>
        <time>2021-08-02T10:36:48.800Z</time>
      </trkpt>
      <trkpt lat="47.02114" lon="8.97082">
        <ele>858</ele>
        <time>2021-08-02T10:36:49.800Z</time>
      </trkpt>
      <trkpt lat="47.02114" lon="8.97081">
        <ele>857</ele>
        <time>2021-08-02T10:36:50.800Z</time>
      </trkpt>
      <trkpt lat="47.02114" lon="8.97078">
        <ele>857</ele>
        <time>2021-08-02T10:36:51.799Z</time>
      </trkpt>
      <trkpt lat="47.02113" lon="8.97076">
        <ele>857</ele>
        <time>2021-08-02T10:36:52.800Z</time>
      </trkpt>
      <trkpt lat="47.02113" lon="8.97074">
        <ele>857</ele>
        <time>2021-08-02T10:36:53.800Z</time>
      </trkpt>
      <trkpt lat="47.02113" lon="8.97073">
        <ele>857</ele>
        <time>2021-08-02T10:36:54.799Z</time>
      </trkpt>
      <trkpt lat="47.02113" lon="8.97071">
        <ele>857</ele>
        <time>2021-08-02T10:36:55.800Z</time>
      </trkpt>
      <trkpt lat="47.02114" lon="8.97069">
        <ele>857</ele>
        <time>2021-08-02T10:36:56.800Z</time>
      </trkpt>
      <trkpt lat="47.02114" lon="8.97067">
        <ele>857</ele>
        <time>2021-08-02T10:36:57.800Z</time>
      </trkpt>
      <trkpt lat="47.02114" lon="8.97066">
        <ele>857</ele>
        <time>2021-08-02T10:36:58.800Z</time>
      </trkpt>
      <trkpt lat="47.02113" lon="8.97064">
        <ele>857</ele>
        <time>2021-08-02T10:36:59.800Z</time>
      </trkpt>
      <trkpt lat="47.02113" lon="8.97061">
        <ele>857</ele>
        <time>2021-08-02T10:37:00.800Z</time>
      </trkpt>
      <trkpt lat="47.02113" lon="8.97059">
        <ele>857</ele>
        <time>2021-08-02T10:37:01.799Z</time>
      </trkpt>
      <trkpt lat="47.02112" lon="8.97058">
        <ele>857</ele>
        <time>2021-08-02T10:37:02.799Z</time>
      </trkpt>
      <trkpt lat="47.02113" lon="8.97057">
        <ele>857</ele>
        <time>2021-08-02T10:37:03.799Z</time>
      </trkpt>
      <trkpt lat="47.02112" lon="8.97056">
        <ele>857</ele>
        <time>2021-08-02T10:37:04.799Z</time>
      </trkpt>
      <trkpt lat="47.02112" lon="8.97055">
        <ele>857</ele>
        <time>2021-08-02T10:37:05.800Z</time>
      </trkpt>
      <trkpt lat="47.02112" lon="8.97054">
        <ele>856</ele>
        <time>2021-08-02T10:37:06.799Z</time>
      </trkpt>
      <trkpt lat="47.02112" lon="8.97051">
        <ele>856</ele>
        <time>2021-08-02T10:37:07.800Z</time>
      </trkpt>
      <trkpt lat="47.02112" lon="8.97048">
        <ele>857</ele>
        <time>2021-08-02T10:37:08.799Z</time>
      </trkpt>
      <trkpt lat="47.02112" lon="8.97047">
        <ele>857</ele>
        <time>2021-08-02T10:37:09.799Z</time>
      </trkpt>
      <trkpt lat="47.02113" lon="8.97045">
        <ele>857</ele>
        <time>2021-08-02T10:37:10.800Z</time>
      </trkpt>
      <trkpt lat="47.02114" lon="8.97044">
        <ele>858</ele>
        <time>2021-08-02T10:37:11.800Z</time>
      </trkpt>
      <trkpt lat="47.02114" lon="8.97043">
        <ele>858</ele>
        <time>2021-08-02T10:37:12.800Z</time>
      </trkpt>
      <trkpt lat="47.02114" lon="8.97042">
        <ele>858</ele>
        <time>2021-08-02T10:37:13.800Z</time>
      </trkpt>
      <trkpt lat="47.02114" lon="8.9704">
        <ele>858</ele>
        <time>2021-08-02T10:37:14.799Z</time>
      </trkpt>
      <trkpt lat="47.02114" lon="8.97038">
        <ele>858</ele>
        <time>2021-08-02T10:37:15.800Z</time>
      </trkpt>
      <trkpt lat="47.02114" lon="8.97036">
        <ele>858</ele>
        <time>2021-08-02T10:37:16.800Z</time>
      </trkpt>
      <trkpt lat="47.02114" lon="8.97034">
        <ele>858</ele>
        <time>2021-08-02T10:37:17.800Z</time>
      </trkpt>
      <trkpt lat="47.02115" lon="8.97032">
        <ele>858</ele>
        <time>2021-08-02T10:37:18.799Z</time>
      </trkpt>
      <trkpt lat="47.02115" lon="8.9703">
        <ele>858</ele>
        <time>2021-08-02T10:37:19.800Z</time>
      </trkpt>
      <trkpt lat="47.02115" lon="8.97028">
        <ele>858</ele>
        <time>2021-08-02T10:37:20.799Z</time>
      </trkpt>
      <trkpt lat="47.02114" lon="8.97027">
        <ele>858</ele>
        <time>2021-08-02T10:37:21.800Z</time>
      </trkpt>
      <trkpt lat="47.02114" lon="8.97025">
        <ele>857</ele>
        <time>2021-08-02T10:37:22.800Z</time>
      </trkpt>
      <trkpt lat="47.02114" lon="8.97023">
        <ele>857</ele>
        <time>2021-08-02T10:37:23.800Z</time>
      </trkpt>
      <trkpt lat="47.02114" lon="8.97022">
        <ele>856</ele>
        <time>2021-08-02T10:37:24.799Z</time>
      </trkpt>
      <trkpt lat="47.02115" lon="8.9702">
        <ele>856</ele>
        <time>2021-08-02T10:37:25.800Z</time>
      </trkpt>
      <trkpt lat="47.02115" lon="8.97019">
        <ele>856</ele>
        <time>2021-08-02T10:37:26.800Z</time>
      </trkpt>
      <trkpt lat="47.02115" lon="8.97018">
        <ele>856</ele>
        <time>2021-08-02T10:37:27.800Z</time>
      </trkpt>
      <trkpt lat="47.02115" lon="8.97017">
        <ele>856</ele>
        <time>2021-08-02T10:37:28.800Z</time>
      </trkpt>
      <trkpt lat="47.02114" lon="8.97016">
        <ele>856</ele>
        <time>2021-08-02T10:37:29.799Z</time>
      </trkpt>
      <trkpt lat="47.02113" lon="8.97014">
        <ele>855</ele>
        <time>2021-08-02T10:37:30.800Z</time>
      </trkpt>
      <trkpt lat="47.02113" lon="8.97012">
        <ele>855</ele>
        <time>2021-08-02T10:37:31.800Z</time>
      </trkpt>
      <trkpt lat="47.02112" lon="8.9701">
        <ele>855</ele>
        <time>2021-08-02T10:37:32.799Z</time>
      </trkpt>
      <trkpt lat="47.02112" lon="8.97009">
        <ele>855</ele>
        <time>2021-08-02T10:37:33.800Z</time>
      </trkpt>
      <trkpt lat="47.02112" lon="8.97007">
        <ele>855</ele>
        <time>2021-08-02T10:37:34.800Z</time>
      </trkpt>
      <trkpt lat="47.02112" lon="8.97006">
        <ele>855</ele>
        <time>2021-08-02T10:37:35.800Z</time>
      </trkpt>
      <trkpt lat="47.02112" lon="8.97004">
        <ele>855</ele>
        <time>2021-08-02T10:37:36.800Z</time>
      </trkpt>
      <trkpt lat="47.02113" lon="8.97003">
        <ele>855</ele>
        <time>2021-08-02T10:37:37.800Z</time>
      </trkpt>
      <trkpt lat="47.02113" lon="8.97001">
        <ele>855</ele>
        <time>2021-08-02T10:37:38.799Z</time>
      </trkpt>
      <trkpt lat="47.02113" lon="8.96999">
        <ele>855</ele>
        <time>2021-08-02T10:37:39.800Z</time>
      </trkpt>
      <trkpt lat="47.02113" lon="8.96997">
        <ele>855</ele>
        <time>2021-08-02T10:37:40.799Z</time>
      </trkpt>
      <trkpt lat="47.02113" lon="8.96996">
        <ele>855</ele>
        <time>2021-08-02T10:37:41.800Z</time>
      </trkpt>
      <trkpt lat="47.02113" lon="8.96993">
        <ele>855</ele>
        <time>2021-08-02T10:37:42.800Z</time>
      </trkpt>
      <trkpt lat="47.02113" lon="8.96991">
        <ele>855</ele>
        <time>2021-08-02T10:37:43.799Z</time>
      </trkpt>
      <trkpt lat="47.02114" lon="8.96989">
        <ele>855</ele>
        <time>2021-08-02T10:37:44.800Z</time>
      </trkpt>
      <trkpt lat="47.02114" lon="8.96986">
        <ele>855</ele>
        <time>2021-08-02T10:37:45.800Z</time>
      </trkpt>
      <trkpt lat="47.02114" lon="8.96984">
        <ele>855</ele>
        <time>2021-08-02T10:37:46.799Z</time>
      </trkpt>
      <trkpt lat="47.02114" lon="8.96982">
        <ele>856</ele>
        <time>2021-08-02T10:37:47.800Z</time>
      </trkpt>
      <trkpt lat="47.02114" lon="8.96981">
        <ele>856</ele>
        <time>2021-08-02T10:37:48.799Z</time>
      </trkpt>
      <trkpt lat="47.02113" lon="8.96979">
        <ele>856</ele>
        <time>2021-08-02T10:37:49.800Z</time>
      </trkpt>
      <trkpt lat="47.02113" lon="8.96977">
        <ele>856</ele>
        <time>2021-08-02T10:37:50.800Z</time>
      </trkpt>
      <trkpt lat="47.02113" lon="8.96975">
        <ele>856</ele>
        <time>2021-08-02T10:37:51.799Z</time>
      </trkpt>
      <trkpt lat="47.02113" lon="8.96973">
        <ele>857</ele>
        <time>2021-08-02T10:37:52.800Z</time>
      </trkpt>
      <trkpt lat="47.02113" lon="8.96972">
        <ele>857</ele>
        <time>2021-08-02T10:37:53.799Z</time>
      </trkpt>
      <trkpt lat="47.02112" lon="8.9697">
        <ele>857</ele>
        <time>2021-08-02T10:38:00.907Z</time>
      </trkpt>
      <trkpt lat="47.02111" lon="8.96969">
        <ele>857</ele>
        <time>2021-08-02T10:38:01.907Z</time>
      </trkpt>
      <trkpt lat="47.02111" lon="8.96969">
        <ele>856</ele>
        <time>2021-08-02T10:38:02.906Z</time>
      </trkpt>
      <trkpt lat="47.0211" lon="8.96969">
        <ele>856</ele>
        <time>2021-08-02T10:38:06.977Z</time>
      </trkpt>
      <trkpt lat="47.0211" lon="8.96967">
        <ele>856</ele>
        <time>2021-08-02T10:38:07.976Z</time>
      </trkpt>
      <trkpt lat="47.0211" lon="8.96967">
        <ele>856</ele>
        <time>2021-08-02T10:38:13.818Z</time>
      </trkpt>
      <trkpt lat="47.02111" lon="8.96966">
        <ele>856</ele>
        <time>2021-08-02T10:38:14.817Z</time>
      </trkpt>
      <trkpt lat="47.02112" lon="8.96964">
        <ele>856</ele>
        <time>2021-08-02T10:38:20.680Z</time>
      </trkpt>
      <trkpt lat="47.02112" lon="8.96963">
        <ele>856</ele>
        <time>2021-08-02T10:38:37.543Z</time>
      </trkpt>
      <trkpt lat="47.02112" lon="8.96962">
        <ele>856</ele>
        <time>2021-08-02T10:38:38.542Z</time>
      </trkpt>
      <trkpt lat="47.02113" lon="8.96961">
        <ele>857</ele>
        <time>2021-08-02T10:38:39.543Z</time>
      </trkpt>
      <trkpt lat="47.02114" lon="8.9696">
        <ele>857</ele>
        <time>2021-08-02T10:38:40.543Z</time>
      </trkpt>
      <trkpt lat="47.02114" lon="8.96959">
        <ele>857</ele>
        <time>2021-08-02T10:38:41.543Z</time>
      </trkpt>
      <trkpt lat="47.02115" lon="8.96958">
        <ele>857</ele>
        <time>2021-08-02T10:38:42.543Z</time>
      </trkpt>
      <trkpt lat="47.02116" lon="8.96956">
        <ele>857</ele>
        <time>2021-08-02T10:38:43.543Z</time>
      </trkpt>
      <trkpt lat="47.02117" lon="8.96955">
        <ele>857</ele>
        <time>2021-08-02T10:38:44.542Z</time>
      </trkpt>
      <trkpt lat="47.02117" lon="8.96954">
        <ele>857</ele>
        <time>2021-08-02T10:38:45.542Z</time>
      </trkpt>
      <trkpt lat="47.02118" lon="8.96953">
        <ele>857</ele>
        <time>2021-08-02T10:38:46.543Z</time>
      </trkpt>
      <trkpt lat="47.02118" lon="8.96952">
        <ele>856</ele>
        <time>2021-08-02T10:38:47.542Z</time>
      </trkpt>
      <trkpt lat="47.02119" lon="8.96951">
        <ele>856</ele>
        <time>2021-08-02T10:38:48.543Z</time>
      </trkpt>
      <trkpt lat="47.02121" lon="8.9695">
        <ele>856</ele>
        <time>2021-08-02T10:38:49.543Z</time>
      </trkpt>
      <trkpt lat="47.02122" lon="8.96948">
        <ele>857</ele>
        <time>2021-08-02T10:38:50.543Z</time>
      </trkpt>
      <trkpt lat="47.02124" lon="8.96947">
        <ele>857</ele>
        <time>2021-08-02T10:38:51.542Z</time>
      </trkpt>
      <trkpt lat="47.02124" lon="8.96946">
        <ele>857</ele>
        <time>2021-08-02T10:38:52.542Z</time>
      </trkpt>
      <trkpt lat="47.02125" lon="8.96945">
        <ele>858</ele>
        <time>2021-08-02T10:38:53.542Z</time>
      </trkpt>
      <trkpt lat="47.02125" lon="8.96944">
        <ele>859</ele>
        <time>2021-08-02T10:38:54.543Z</time>
      </trkpt>
      <trkpt lat="47.02125" lon="8.96943">
        <ele>859</ele>
        <time>2021-08-02T10:38:55.542Z</time>
      </trkpt>
      <trkpt lat="47.02126" lon="8.96941">
        <ele>859</ele>
        <time>2021-08-02T10:38:56.543Z</time>
      </trkpt>
      <trkpt lat="47.02126" lon="8.96939">
        <ele>860</ele>
        <time>2021-08-02T10:38:57.542Z</time>
      </trkpt>
      <trkpt lat="47.02127" lon="8.96937">
        <ele>860</ele>
        <time>2021-08-02T10:38:58.542Z</time>
      </trkpt>
      <trkpt lat="47.02128" lon="8.96935">
        <ele>859</ele>
        <time>2021-08-02T10:38:59.542Z</time>
      </trkpt>
      <trkpt lat="47.02128" lon="8.96934">
        <ele>859</ele>
        <time>2021-08-02T10:39:00.542Z</time>
      </trkpt>
      <trkpt lat="47.02128" lon="8.96932">
        <ele>859</ele>
        <time>2021-08-02T10:39:01.542Z</time>
      </trkpt>
      <trkpt lat="47.02128" lon="8.9693">
        <ele>858</ele>
        <time>2021-08-02T10:39:02.543Z</time>
      </trkpt>
      <trkpt lat="47.02128" lon="8.96928">
        <ele>858</ele>
        <time>2021-08-02T10:39:03.542Z</time>
      </trkpt>
      <trkpt lat="47.02128" lon="8.96926">
        <ele>857</ele>
        <time>2021-08-02T10:39:04.542Z</time>
      </trkpt>
      <trkpt lat="47.02128" lon="8.96925">
        <ele>857</ele>
        <time>2021-08-02T10:39:05.542Z</time>
      </trkpt>
      <trkpt lat="47.02128" lon="8.96923">
        <ele>856</ele>
        <time>2021-08-02T10:39:06.543Z</time>
      </trkpt>
      <trkpt lat="47.02128" lon="8.9692">
        <ele>856</ele>
        <time>2021-08-02T10:39:07.542Z</time>
      </trkpt>
      <trkpt lat="47.02128" lon="8.96918">
        <ele>855</ele>
        <time>2021-08-02T10:39:08.542Z</time>
      </trkpt>
      <trkpt lat="47.02127" lon="8.96917">
        <ele>855</ele>
        <time>2021-08-02T10:39:09.542Z</time>
      </trkpt>
      <trkpt lat="47.02127" lon="8.96916">
        <ele>855</ele>
        <time>2021-08-02T10:39:10.542Z</time>
      </trkpt>
      <trkpt lat="47.02127" lon="8.96914">
        <ele>855</ele>
        <time>2021-08-02T10:39:11.542Z</time>
      </trkpt>
      <trkpt lat="47.02128" lon="8.96913">
        <ele>855</ele>
        <time>2021-08-02T10:39:12.542Z</time>
      </trkpt>
      <trkpt lat="47.02127" lon="8.96911">
        <ele>855</ele>
        <time>2021-08-02T10:39:13.542Z</time>
      </trkpt>
      <trkpt lat="47.02126" lon="8.96909">
        <ele>855</ele>
        <time>2021-08-02T10:39:14.542Z</time>
      </trkpt>
      <trkpt lat="47.02125" lon="8.96907">
        <ele>855</ele>
        <time>2021-08-02T10:39:15.542Z</time>
      </trkpt>
      <trkpt lat="47.02124" lon="8.96906">
        <ele>855</ele>
        <time>2021-08-02T10:39:16.542Z</time>
      </trkpt>
      <trkpt lat="47.02124" lon="8.96905">
        <ele>855</ele>
        <time>2021-08-02T10:39:17.542Z</time>
      </trkpt>
      <trkpt lat="47.02124" lon="8.96904">
        <ele>855</ele>
        <time>2021-08-02T10:39:18.543Z</time>
      </trkpt>
      <trkpt lat="47.02123" lon="8.96903">
        <ele>855</ele>
        <time>2021-08-02T10:39:19.543Z</time>
      </trkpt>
      <trkpt lat="47.02123" lon="8.96902">
        <ele>854</ele>
        <time>2021-08-02T10:39:20.542Z</time>
      </trkpt>
      <trkpt lat="47.02123" lon="8.96901">
        <ele>854</ele>
        <time>2021-08-02T10:39:21.543Z</time>
      </trkpt>
      <trkpt lat="47.02122" lon="8.969">
        <ele>855</ele>
        <time>2021-08-02T10:39:22.543Z</time>
      </trkpt>
      <trkpt lat="47.02121" lon="8.969">
        <ele>855</ele>
        <time>2021-08-02T10:39:23.543Z</time>
      </trkpt>
      <trkpt lat="47.02121" lon="8.96899">
        <ele>855</ele>
        <time>2021-08-02T10:39:24.543Z</time>
      </trkpt>
      <trkpt lat="47.02121" lon="8.96898">
        <ele>855</ele>
        <time>2021-08-02T10:39:25.543Z</time>
      </trkpt>
      <trkpt lat="47.02121" lon="8.96897">
        <ele>855</ele>
        <time>2021-08-02T10:39:26.543Z</time>
      </trkpt>
      <trkpt lat="47.02118" lon="8.96892">
        <ele>855</ele>
        <time>2021-08-02T10:39:27.543Z</time>
      </trkpt>
      <trkpt lat="47.02118" lon="8.9689">
        <ele>855</ele>
        <time>2021-08-02T10:39:28.543Z</time>
      </trkpt>
      <trkpt lat="47.02118" lon="8.96889">
        <ele>855</ele>
        <time>2021-08-02T10:39:29.542Z</time>
      </trkpt>
      <trkpt lat="47.02118" lon="8.96888">
        <ele>855</ele>
        <time>2021-08-02T10:39:30.542Z</time>
      </trkpt>
      <trkpt lat="47.02119" lon="8.96887">
        <ele>855</ele>
        <time>2021-08-02T10:39:31.542Z</time>
      </trkpt>
      <trkpt lat="47.02119" lon="8.96888">
        <ele>855</ele>
        <time>2021-08-02T10:39:32.543Z</time>
      </trkpt>
      <trkpt lat="47.02119" lon="8.9689">
        <ele>854</ele>
        <time>2021-08-02T10:39:33.542Z</time>
      </trkpt>
      <trkpt lat="47.02119" lon="8.96892">
        <ele>854</ele>
        <time>2021-08-02T10:39:34.542Z</time>
      </trkpt>
      <trkpt lat="47.02118" lon="8.96894">
        <ele>854</ele>
        <time>2021-08-02T10:39:35.543Z</time>
      </trkpt>
      <trkpt lat="47.02118" lon="8.96894">
        <ele>854</ele>
        <time>2021-08-02T10:39:36.543Z</time>
      </trkpt>
      <trkpt lat="47.02118" lon="8.96894">
        <ele>854</ele>
        <time>2021-08-02T10:39:37.542Z</time>
      </trkpt>
      <trkpt lat="47.02118" lon="8.96894">
        <ele>852</ele>
        <time>2021-08-02T10:39:38.544Z</time>
      </trkpt>
      <trkpt lat="47.02117" lon="8.96893">
        <ele>851</ele>
        <time>2021-08-02T10:39:39.543Z</time>
      </trkpt>
      <trkpt lat="47.02117" lon="8.96893">
        <ele>851</ele>
        <time>2021-08-02T10:39:40.543Z</time>
      </trkpt>
      <trkpt lat="47.02117" lon="8.96892">
        <ele>850</ele>
        <time>2021-08-02T10:39:41.544Z</time>
      </trkpt>
      <trkpt lat="47.02116" lon="8.96891">
        <ele>850</ele>
        <time>2021-08-02T10:39:42.543Z</time>
      </trkpt>
      <trkpt lat="47.02116" lon="8.9689">
        <ele>850</ele>
        <time>2021-08-02T10:39:43.543Z</time>
      </trkpt>
      <trkpt lat="47.02116" lon="8.96888">
        <ele>850</ele>
        <time>2021-08-02T10:39:44.543Z</time>
      </trkpt>
      <trkpt lat="47.02115" lon="8.96887">
        <ele>850</ele>
        <time>2021-08-02T10:39:45.543Z</time>
      </trkpt>
      <trkpt lat="47.02113" lon="8.96886">
        <ele>850</ele>
        <time>2021-08-02T10:39:46.543Z</time>
      </trkpt>
      <trkpt lat="47.02112" lon="8.96885">
        <ele>850</ele>
        <time>2021-08-02T10:39:47.543Z</time>
      </trkpt>
      <trkpt lat="47.02112" lon="8.96883">
        <ele>851</ele>
        <time>2021-08-02T10:39:48.543Z</time>
      </trkpt>
      <trkpt lat="47.02111" lon="8.96881">
        <ele>851</ele>
        <time>2021-08-02T10:39:49.543Z</time>
      </trkpt>
      <trkpt lat="47.02111" lon="8.96879">
        <ele>851</ele>
        <time>2021-08-02T10:39:50.543Z</time>
      </trkpt>
      <trkpt lat="47.0211" lon="8.96877">
        <ele>851</ele>
        <time>2021-08-02T10:39:51.543Z</time>
      </trkpt>
      <trkpt lat="47.0211" lon="8.96875">
        <ele>850</ele>
        <time>2021-08-02T10:39:52.543Z</time>
      </trkpt>
      <trkpt lat="47.02109" lon="8.96874">
        <ele>850</ele>
        <time>2021-08-02T10:39:53.543Z</time>
      </trkpt>
      <trkpt lat="47.02108" lon="8.96872">
        <ele>850</ele>
        <time>2021-08-02T10:39:54.543Z</time>
      </trkpt>
      <trkpt lat="47.02107" lon="8.96872">
        <ele>849</ele>
        <time>2021-08-02T10:39:55.543Z</time>
      </trkpt>
      <trkpt lat="47.02106" lon="8.9687">
        <ele>849</ele>
        <time>2021-08-02T10:39:56.543Z</time>
      </trkpt>
      <trkpt lat="47.02105" lon="8.96869">
        <ele>849</ele>
        <time>2021-08-02T10:39:57.543Z</time>
      </trkpt>
      <trkpt lat="47.02105" lon="8.96868">
        <ele>850</ele>
        <time>2021-08-02T10:39:58.543Z</time>
      </trkpt>
      <trkpt lat="47.02106" lon="8.96867">
        <ele>850</ele>
        <time>2021-08-02T10:39:59.543Z</time>
      </trkpt>
      <trkpt lat="47.02106" lon="8.96866">
        <ele>850</ele>
        <time>2021-08-02T10:40:00.543Z</time>
      </trkpt>
      <trkpt lat="47.02105" lon="8.96864">
        <ele>850</ele>
        <time>2021-08-02T10:40:01.543Z</time>
      </trkpt>
      <trkpt lat="47.02105" lon="8.96862">
        <ele>851</ele>
        <time>2021-08-02T10:40:02.543Z</time>
      </trkpt>
      <trkpt lat="47.02104" lon="8.96861">
        <ele>851</ele>
        <time>2021-08-02T10:40:03.543Z</time>
      </trkpt>
      <trkpt lat="47.02103" lon="8.96859">
        <ele>851</ele>
        <time>2021-08-02T10:40:04.543Z</time>
      </trkpt>
      <trkpt lat="47.02103" lon="8.96858">
        <ele>852</ele>
        <time>2021-08-02T10:40:05.543Z</time>
      </trkpt>
      <trkpt lat="47.02102" lon="8.96853">
        <ele>856</ele>
        <time>2021-08-02T10:40:06.543Z</time>
      </trkpt>
      <trkpt lat="47.02102" lon="8.96852">
        <ele>856</ele>
        <time>2021-08-02T10:40:07.544Z</time>
      </trkpt>
      <trkpt lat="47.02102" lon="8.96851">
        <ele>857</ele>
        <time>2021-08-02T10:40:08.543Z</time>
      </trkpt>
      <trkpt lat="47.02102" lon="8.9685">
        <ele>857</ele>
        <time>2021-08-02T10:40:09.544Z</time>
      </trkpt>
      <trkpt lat="47.02101" lon="8.96849">
        <ele>857</ele>
        <time>2021-08-02T10:40:10.543Z</time>
      </trkpt>
      <trkpt lat="47.021" lon="8.96848">
        <ele>858</ele>
        <time>2021-08-02T10:40:11.544Z</time>
      </trkpt>
      <trkpt lat="47.02099" lon="8.96847">
        <ele>858</ele>
        <time>2021-08-02T10:40:12.543Z</time>
      </trkpt>
      <trkpt lat="47.02098" lon="8.96846">
        <ele>859</ele>
        <time>2021-08-02T10:40:13.543Z</time>
      </trkpt>
      <trkpt lat="47.02097" lon="8.96844">
        <ele>859</ele>
        <time>2021-08-02T10:40:14.543Z</time>
      </trkpt>
      <trkpt lat="47.02098" lon="8.96842">
        <ele>860</ele>
        <time>2021-08-02T10:40:15.544Z</time>
      </trkpt>
      <trkpt lat="47.02098" lon="8.9684">
        <ele>861</ele>
        <time>2021-08-02T10:40:16.543Z</time>
      </trkpt>
      <trkpt lat="47.02098" lon="8.96839">
        <ele>861</ele>
        <time>2021-08-02T10:40:17.543Z</time>
      </trkpt>
      <trkpt lat="47.02097" lon="8.96837">
        <ele>862</ele>
        <time>2021-08-02T10:40:18.544Z</time>
      </trkpt>
      <trkpt lat="47.02097" lon="8.96835">
        <ele>862</ele>
        <time>2021-08-02T10:40:20.652Z</time>
      </trkpt>
      <trkpt lat="47.02097" lon="8.96834">
        <ele>862</ele>
        <time>2021-08-02T10:40:21.653Z</time>
      </trkpt>
      <trkpt lat="47.02097" lon="8.96833">
        <ele>863</ele>
        <time>2021-08-02T10:40:22.652Z</time>
      </trkpt>
      <trkpt lat="47.02096" lon="8.96831">
        <ele>863</ele>
        <time>2021-08-02T10:40:23.653Z</time>
      </trkpt>
      <trkpt lat="47.02096" lon="8.96829">
        <ele>863</ele>
        <time>2021-08-02T10:40:24.652Z</time>
      </trkpt>
      <trkpt lat="47.02096" lon="8.96828">
        <ele>863</ele>
        <time>2021-08-02T10:40:25.653Z</time>
      </trkpt>
      <trkpt lat="47.02095" lon="8.96826">
        <ele>863</ele>
        <time>2021-08-02T10:40:26.653Z</time>
      </trkpt>
      <trkpt lat="47.02094" lon="8.96825">
        <ele>863</ele>
        <time>2021-08-02T10:40:27.652Z</time>
      </trkpt>
      <trkpt lat="47.02093" lon="8.96824">
        <ele>863</ele>
        <time>2021-08-02T10:40:28.653Z</time>
      </trkpt>
      <trkpt lat="47.02093" lon="8.96822">
        <ele>863</ele>
        <time>2021-08-02T10:40:29.653Z</time>
      </trkpt>
      <trkpt lat="47.02093" lon="8.96821">
        <ele>863</ele>
        <time>2021-08-02T10:40:32.637Z</time>
      </trkpt>
      <trkpt lat="47.02093" lon="8.96821">
        <ele>864</ele>
        <time>2021-08-02T10:40:33.638Z</time>
      </trkpt>
      <trkpt lat="47.02093" lon="8.96821">
        <ele>864</ele>
        <time>2021-08-02T10:40:34.638Z</time>
      </trkpt>
      <trkpt lat="47.02093" lon="8.9682">
        <ele>863</ele>
        <time>2021-08-02T10:40:35.637Z</time>
      </trkpt>
      <trkpt lat="47.02093" lon="8.96819">
        <ele>863</ele>
        <time>2021-08-02T10:40:36.638Z</time>
      </trkpt>
      <trkpt lat="47.02093" lon="8.96818">
        <ele>863</ele>
        <time>2021-08-02T10:40:37.638Z</time>
      </trkpt>
      <trkpt lat="47.02093" lon="8.96816">
        <ele>863</ele>
        <time>2021-08-02T10:40:38.638Z</time>
      </trkpt>
      <trkpt lat="47.02092" lon="8.96815">
        <ele>863</ele>
        <time>2021-08-02T10:40:39.638Z</time>
      </trkpt>
      <trkpt lat="47.02092" lon="8.96814">
        <ele>863</ele>
        <time>2021-08-02T10:40:40.638Z</time>
      </trkpt>
      <trkpt lat="47.02091" lon="8.96813">
        <ele>863</ele>
        <time>2021-08-02T10:40:41.638Z</time>
      </trkpt>
      <trkpt lat="47.02091" lon="8.96812">
        <ele>863</ele>
        <time>2021-08-02T10:40:42.638Z</time>
      </trkpt>
      <trkpt lat="47.02091" lon="8.96812">
        <ele>863</ele>
        <time>2021-08-02T10:40:43.638Z</time>
      </trkpt>
      <trkpt lat="47.0209" lon="8.96811">
        <ele>864</ele>
        <time>2021-08-02T10:40:44.637Z</time>
      </trkpt>
      <trkpt lat="47.0209" lon="8.9681">
        <ele>864</ele>
        <time>2021-08-02T10:40:45.638Z</time>
      </trkpt>
      <trkpt lat="47.02089" lon="8.96808">
        <ele>865</ele>
        <time>2021-08-02T10:40:46.637Z</time>
      </trkpt>
      <trkpt lat="47.02088" lon="8.96806">
        <ele>865</ele>
        <time>2021-08-02T10:40:47.638Z</time>
      </trkpt>
      <trkpt lat="47.02088" lon="8.96805">
        <ele>865</ele>
        <time>2021-08-02T10:40:48.638Z</time>
      </trkpt>
      <trkpt lat="47.02088" lon="8.96803">
        <ele>865</ele>
        <time>2021-08-02T10:40:49.637Z</time>
      </trkpt>
      <trkpt lat="47.02087" lon="8.96801">
        <ele>865</ele>
        <time>2021-08-02T10:40:50.638Z</time>
      </trkpt>
      <trkpt lat="47.02086" lon="8.968">
        <ele>866</ele>
        <time>2021-08-02T10:40:51.637Z</time>
      </trkpt>
      <trkpt lat="47.02085" lon="8.96798">
        <ele>866</ele>
        <time>2021-08-02T10:40:52.638Z</time>
      </trkpt>
      <trkpt lat="47.02084" lon="8.96797">
        <ele>866</ele>
        <time>2021-08-02T10:40:53.637Z</time>
      </trkpt>
      <trkpt lat="47.02083" lon="8.96795">
        <ele>866</ele>
        <time>2021-08-02T10:40:54.638Z</time>
      </trkpt>
      <trkpt lat="47.02082" lon="8.96793">
        <ele>866</ele>
        <time>2021-08-02T10:40:55.637Z</time>
      </trkpt>
      <trkpt lat="47.02081" lon="8.96791">
        <ele>866</ele>
        <time>2021-08-02T10:40:56.637Z</time>
      </trkpt>
      <trkpt lat="47.02081" lon="8.96788">
        <ele>866</ele>
        <time>2021-08-02T10:40:57.638Z</time>
      </trkpt>
      <trkpt lat="47.02079" lon="8.96787">
        <ele>866</ele>
        <time>2021-08-02T10:40:58.638Z</time>
      </trkpt>
      <trkpt lat="47.02078" lon="8.96786">
        <ele>866</ele>
        <time>2021-08-02T10:40:59.638Z</time>
      </trkpt>
      <trkpt lat="47.02077" lon="8.96785">
        <ele>867</ele>
        <time>2021-08-02T10:41:00.638Z</time>
      </trkpt>
      <trkpt lat="47.02076" lon="8.96784">
        <ele>867</ele>
        <time>2021-08-02T10:41:01.638Z</time>
      </trkpt>
      <trkpt lat="47.02076" lon="8.96783">
        <ele>867</ele>
        <time>2021-08-02T10:41:02.637Z</time>
      </trkpt>
      <trkpt lat="47.02076" lon="8.96782">
        <ele>867</ele>
        <time>2021-08-02T10:41:03.638Z</time>
      </trkpt>
      <trkpt lat="47.02076" lon="8.9678">
        <ele>867</ele>
        <time>2021-08-02T10:41:04.638Z</time>
      </trkpt>
      <trkpt lat="47.02076" lon="8.96777">
        <ele>867</ele>
        <time>2021-08-02T10:41:05.638Z</time>
      </trkpt>
      <trkpt lat="47.02075" lon="8.96774">
        <ele>867</ele>
        <time>2021-08-02T10:41:06.637Z</time>
      </trkpt>
      <trkpt lat="47.02075" lon="8.96771">
        <ele>867</ele>
        <time>2021-08-02T10:41:07.638Z</time>
      </trkpt>
      <trkpt lat="47.02075" lon="8.96769">
        <ele>867</ele>
        <time>2021-08-02T10:41:08.638Z</time>
      </trkpt>
      <trkpt lat="47.02075" lon="8.96767">
        <ele>867</ele>
        <time>2021-08-02T10:41:09.637Z</time>
      </trkpt>
      <trkpt lat="47.02075" lon="8.96765">
        <ele>868</ele>
        <time>2021-08-02T10:41:10.638Z</time>
      </trkpt>
      <trkpt lat="47.02075" lon="8.96764">
        <ele>868</ele>
        <time>2021-08-02T10:41:11.638Z</time>
      </trkpt>
      <trkpt lat="47.02075" lon="8.96763">
        <ele>868</ele>
        <time>2021-08-02T10:41:12.637Z</time>
      </trkpt>
      <trkpt lat="47.02075" lon="8.96762">
        <ele>868</ele>
        <time>2021-08-02T10:41:13.637Z</time>
      </trkpt>
      <trkpt lat="47.02074" lon="8.9676">
        <ele>868</ele>
        <time>2021-08-02T10:41:14.638Z</time>
      </trkpt>
      <trkpt lat="47.02073" lon="8.96758">
        <ele>868</ele>
        <time>2021-08-02T10:41:15.638Z</time>
      </trkpt>
      <trkpt lat="47.02072" lon="8.96757">
        <ele>868</ele>
        <time>2021-08-02T10:41:16.637Z</time>
      </trkpt>
      <trkpt lat="47.02072" lon="8.96755">
        <ele>868</ele>
        <time>2021-08-02T10:41:17.638Z</time>
      </trkpt>
      <trkpt lat="47.02072" lon="8.96754">
        <ele>867</ele>
        <time>2021-08-02T10:41:18.637Z</time>
      </trkpt>
      <trkpt lat="47.02072" lon="8.96753">
        <ele>866</ele>
        <time>2021-08-02T10:41:19.638Z</time>
      </trkpt>
      <trkpt lat="47.02071" lon="8.96752">
        <ele>866</ele>
        <time>2021-08-02T10:41:20.638Z</time>
      </trkpt>
      <trkpt lat="47.02071" lon="8.96751">
        <ele>866</ele>
        <time>2021-08-02T10:41:21.637Z</time>
      </trkpt>
      <trkpt lat="47.0207" lon="8.9675">
        <ele>865</ele>
        <time>2021-08-02T10:41:22.638Z</time>
      </trkpt>
      <trkpt lat="47.02069" lon="8.9675">
        <ele>865</ele>
        <time>2021-08-02T10:41:23.638Z</time>
      </trkpt>
      <trkpt lat="47.02068" lon="8.96749">
        <ele>864</ele>
        <time>2021-08-02T10:41:24.637Z</time>
      </trkpt>
      <trkpt lat="47.02067" lon="8.96748">
        <ele>863</ele>
        <time>2021-08-02T10:41:25.638Z</time>
      </trkpt>
      <trkpt lat="47.02067" lon="8.96748">
        <ele>862</ele>
        <time>2021-08-02T10:41:26.638Z</time>
      </trkpt>
      <trkpt lat="47.02067" lon="8.96746">
        <ele>862</ele>
        <time>2021-08-02T10:41:27.638Z</time>
      </trkpt>
      <trkpt lat="47.02067" lon="8.96745">
        <ele>861</ele>
        <time>2021-08-02T10:41:28.638Z</time>
      </trkpt>
      <trkpt lat="47.02067" lon="8.96744">
        <ele>860</ele>
        <time>2021-08-02T10:41:29.637Z</time>
      </trkpt>
      <trkpt lat="47.02066" lon="8.96743">
        <ele>860</ele>
        <time>2021-08-02T10:41:30.638Z</time>
      </trkpt>
      <trkpt lat="47.02066" lon="8.96741">
        <ele>860</ele>
        <time>2021-08-02T10:41:31.638Z</time>
      </trkpt>
      <trkpt lat="47.02065" lon="8.9674">
        <ele>860</ele>
        <time>2021-08-02T10:41:32.637Z</time>
      </trkpt>
      <trkpt lat="47.02065" lon="8.96738">
        <ele>860</ele>
        <time>2021-08-02T10:41:33.638Z</time>
      </trkpt>
      <trkpt lat="47.02064" lon="8.96737">
        <ele>860</ele>
        <time>2021-08-02T10:41:34.637Z</time>
      </trkpt>
      <trkpt lat="47.02063" lon="8.96736">
        <ele>860</ele>
        <time>2021-08-02T10:41:35.638Z</time>
      </trkpt>
      <trkpt lat="47.02062" lon="8.96734">
        <ele>860</ele>
        <time>2021-08-02T10:41:36.638Z</time>
      </trkpt>
      <trkpt lat="47.02061" lon="8.96733">
        <ele>860</ele>
        <time>2021-08-02T10:41:37.638Z</time>
      </trkpt>
      <trkpt lat="47.02059" lon="8.96731">
        <ele>860</ele>
        <time>2021-08-02T10:41:38.637Z</time>
      </trkpt>
      <trkpt lat="47.02057" lon="8.9673">
        <ele>860</ele>
        <time>2021-08-02T10:41:39.637Z</time>
      </trkpt>
      <trkpt lat="47.02056" lon="8.96729">
        <ele>860</ele>
        <time>2021-08-02T10:41:40.638Z</time>
      </trkpt>
      <trkpt lat="47.02056" lon="8.96728">
        <ele>860</ele>
        <time>2021-08-02T10:41:41.637Z</time>
      </trkpt>
      <trkpt lat="47.02056" lon="8.96728">
        <ele>860</ele>
        <time>2021-08-02T10:41:42.637Z</time>
      </trkpt>
      <trkpt lat="47.02055" lon="8.96726">
        <ele>860</ele>
        <time>2021-08-02T10:41:43.637Z</time>
      </trkpt>
      <trkpt lat="47.02054" lon="8.96725">
        <ele>860</ele>
        <time>2021-08-02T10:41:44.637Z</time>
      </trkpt>
      <trkpt lat="47.02053" lon="8.96724">
        <ele>860</ele>
        <time>2021-08-02T10:41:45.638Z</time>
      </trkpt>
      <trkpt lat="47.02053" lon="8.96723">
        <ele>860</ele>
        <time>2021-08-02T10:41:46.638Z</time>
      </trkpt>
      <trkpt lat="47.02052" lon="8.96722">
        <ele>860</ele>
        <time>2021-08-02T10:41:47.637Z</time>
      </trkpt>
      <trkpt lat="47.02051" lon="8.96721">
        <ele>860</ele>
        <time>2021-08-02T10:41:48.638Z</time>
      </trkpt>
      <trkpt lat="47.0205" lon="8.9672">
        <ele>860</ele>
        <time>2021-08-02T10:41:49.638Z</time>
      </trkpt>
      <trkpt lat="47.02049" lon="8.96719">
        <ele>861</ele>
        <time>2021-08-02T10:41:50.637Z</time>
      </trkpt>
      <trkpt lat="47.02048" lon="8.96718">
        <ele>861</ele>
        <time>2021-08-02T10:41:51.638Z</time>
      </trkpt>
      <trkpt lat="47.02048" lon="8.96717">
        <ele>861</ele>
        <time>2021-08-02T10:41:52.638Z</time>
      </trkpt>
      <trkpt lat="47.02047" lon="8.96716">
        <ele>862</ele>
        <time>2021-08-02T10:41:53.637Z</time>
      </trkpt>
      <trkpt lat="47.02047" lon="8.96715">
        <ele>862</ele>
        <time>2021-08-02T10:41:54.637Z</time>
      </trkpt>
      <trkpt lat="47.02046" lon="8.96713">
        <ele>863</ele>
        <time>2021-08-02T10:41:55.638Z</time>
      </trkpt>
      <trkpt lat="47.02045" lon="8.96711">
        <ele>863</ele>
        <time>2021-08-02T10:41:56.638Z</time>
      </trkpt>
      <trkpt lat="47.02045" lon="8.96709">
        <ele>864</ele>
        <time>2021-08-02T10:41:57.638Z</time>
      </trkpt>
      <trkpt lat="47.02044" lon="8.96708">
        <ele>865</ele>
        <time>2021-08-02T10:41:58.637Z</time>
      </trkpt>
      <trkpt lat="47.02043" lon="8.96707">
        <ele>865</ele>
        <time>2021-08-02T10:41:59.638Z</time>
      </trkpt>
      <trkpt lat="47.02042" lon="8.96706">
        <ele>865</ele>
        <time>2021-08-02T10:42:00.638Z</time>
      </trkpt>
      <trkpt lat="47.02041" lon="8.96706">
        <ele>866</ele>
        <time>2021-08-02T10:42:05.659Z</time>
      </trkpt>
      <trkpt lat="47.0204" lon="8.96704">
        <ele>867</ele>
        <time>2021-08-02T10:42:08.390Z</time>
      </trkpt>
      <trkpt lat="47.02039" lon="8.96703">
        <ele>867</ele>
        <time>2021-08-02T10:42:17.184Z</time>
      </trkpt>
      <trkpt lat="47.02038" lon="8.96701">
        <ele>868</ele>
        <time>2021-08-02T10:42:18.184Z</time>
      </trkpt>
      <trkpt lat="47.02036" lon="8.96698">
        <ele>868</ele>
        <time>2021-08-02T10:42:19.185Z</time>
      </trkpt>
      <trkpt lat="47.02035" lon="8.96695">
        <ele>868</ele>
        <time>2021-08-02T10:42:20.185Z</time>
      </trkpt>
      <trkpt lat="47.02034" lon="8.96692">
        <ele>868</ele>
        <time>2021-08-02T10:42:35.322Z</time>
      </trkpt>
      <trkpt lat="47.02033" lon="8.9669">
        <ele>869</ele>
        <time>2021-08-02T10:42:36.322Z</time>
      </trkpt>
      <trkpt lat="47.02032" lon="8.96689">
        <ele>869</ele>
        <time>2021-08-02T10:42:37.322Z</time>
      </trkpt>
      <trkpt lat="47.02032" lon="8.96688">
        <ele>869</ele>
        <time>2021-08-02T10:42:38.322Z</time>
      </trkpt>
      <trkpt lat="47.02031" lon="8.96687">
        <ele>870</ele>
        <time>2021-08-02T10:42:39.322Z</time>
      </trkpt>
      <trkpt lat="47.0203" lon="8.96686">
        <ele>870</ele>
        <time>2021-08-02T10:42:40.321Z</time>
      </trkpt>
      <trkpt lat="47.02029" lon="8.96685">
        <ele>870</ele>
        <time>2021-08-02T10:42:41.321Z</time>
      </trkpt>
      <trkpt lat="47.02028" lon="8.96685">
        <ele>870</ele>
        <time>2021-08-02T10:42:42.321Z</time>
      </trkpt>
      <trkpt lat="47.02027" lon="8.96684">
        <ele>869</ele>
        <time>2021-08-02T10:42:43.321Z</time>
      </trkpt>
      <trkpt lat="47.02027" lon="8.96683">
        <ele>869</ele>
        <time>2021-08-02T10:42:44.322Z</time>
      </trkpt>
      <trkpt lat="47.02025" lon="8.96683">
        <ele>869</ele>
        <time>2021-08-02T10:42:46.420Z</time>
      </trkpt>
      <trkpt lat="47.02025" lon="8.96682">
        <ele>869</ele>
        <time>2021-08-02T10:42:47.420Z</time>
      </trkpt>
      <trkpt lat="47.02024" lon="8.96682">
        <ele>868</ele>
        <time>2021-08-02T10:42:48.420Z</time>
      </trkpt>
      <trkpt lat="47.02024" lon="8.96681">
        <ele>868</ele>
        <time>2021-08-02T10:42:49.419Z</time>
      </trkpt>
      <trkpt lat="47.02023" lon="8.96681">
        <ele>867</ele>
        <time>2021-08-02T10:42:50.419Z</time>
      </trkpt>
      <trkpt lat="47.02022" lon="8.96681">
        <ele>867</ele>
        <time>2021-08-02T10:42:51.420Z</time>
      </trkpt>
      <trkpt lat="47.02021" lon="8.96681">
        <ele>867</ele>
        <time>2021-08-02T10:42:52.420Z</time>
      </trkpt>
      <trkpt lat="47.0202" lon="8.9668">
        <ele>866</ele>
        <time>2021-08-02T10:43:26.549Z</time>
      </trkpt>
      <trkpt lat="47.02018" lon="8.96679">
        <ele>866</ele>
        <time>2021-08-02T10:43:27.549Z</time>
      </trkpt>
      <trkpt lat="47.02016" lon="8.96677">
        <ele>866</ele>
        <time>2021-08-02T10:43:29.413Z</time>
      </trkpt>
      <trkpt lat="47.02014" lon="8.96675">
        <ele>866</ele>
        <time>2021-08-02T10:43:30.413Z</time>
      </trkpt>
      <trkpt lat="47.02013" lon="8.96674">
        <ele>865</ele>
        <time>2021-08-02T10:43:31.413Z</time>
      </trkpt>
      <trkpt lat="47.02012" lon="8.96673">
        <ele>865</ele>
        <time>2021-08-02T10:43:32.412Z</time>
      </trkpt>
      <trkpt lat="47.02011" lon="8.96672">
        <ele>865</ele>
        <time>2021-08-02T10:43:33.412Z</time>
      </trkpt>
      <trkpt lat="47.0201" lon="8.96671">
        <ele>864</ele>
        <time>2021-08-02T10:43:34.413Z</time>
      </trkpt>
      <trkpt lat="47.02009" lon="8.9667">
        <ele>864</ele>
        <time>2021-08-02T10:43:35.413Z</time>
      </trkpt>
      <trkpt lat="47.02008" lon="8.96669">
        <ele>863</ele>
        <time>2021-08-02T10:43:36.413Z</time>
      </trkpt>
      <trkpt lat="47.02007" lon="8.96669">
        <ele>863</ele>
        <time>2021-08-02T10:43:37.413Z</time>
      </trkpt>
      <trkpt lat="47.02006" lon="8.96669">
        <ele>862</ele>
        <time>2021-08-02T10:43:38.412Z</time>
      </trkpt>
      <trkpt lat="47.02006" lon="8.96668">
        <ele>862</ele>
        <time>2021-08-02T10:43:39.413Z</time>
      </trkpt>
      <trkpt lat="47.02005" lon="8.96668">
        <ele>861</ele>
        <time>2021-08-02T10:43:40.413Z</time>
      </trkpt>
      <trkpt lat="47.02004" lon="8.96668">
        <ele>861</ele>
        <time>2021-08-02T10:43:41.413Z</time>
      </trkpt>
      <trkpt lat="47.02004" lon="8.96668">
        <ele>861</ele>
        <time>2021-08-02T10:43:42.413Z</time>
      </trkpt>
      <trkpt lat="47.02004" lon="8.96667">
        <ele>861</ele>
        <time>2021-08-02T10:43:43.412Z</time>
      </trkpt>
      <trkpt lat="47.02004" lon="8.96666">
        <ele>861</ele>
        <time>2021-08-02T10:43:44.413Z</time>
      </trkpt>
      <trkpt lat="47.02004" lon="8.96665">
        <ele>860</ele>
        <time>2021-08-02T10:43:45.412Z</time>
      </trkpt>
      <trkpt lat="47.02003" lon="8.96664">
        <ele>860</ele>
        <time>2021-08-02T10:43:46.413Z</time>
      </trkpt>
      <trkpt lat="47.02002" lon="8.96663">
        <ele>860</ele>
        <time>2021-08-02T10:43:47.413Z</time>
      </trkpt>
      <trkpt lat="47.02002" lon="8.96662">
        <ele>861</ele>
        <time>2021-08-02T10:43:48.413Z</time>
      </trkpt>
      <trkpt lat="47.02001" lon="8.9666">
        <ele>861</ele>
        <time>2021-08-02T10:43:49.412Z</time>
      </trkpt>
      <trkpt lat="47.02001" lon="8.96659">
        <ele>861</ele>
        <time>2021-08-02T10:43:50.412Z</time>
      </trkpt>
      <trkpt lat="47.02001" lon="8.96658">
        <ele>862</ele>
        <time>2021-08-02T10:43:51.412Z</time>
      </trkpt>
      <trkpt lat="47.02001" lon="8.96657">
        <ele>863</ele>
        <time>2021-08-02T10:43:52.412Z</time>
      </trkpt>
      <trkpt lat="47.02" lon="8.96656">
        <ele>863</ele>
        <time>2021-08-02T10:43:53.412Z</time>
      </trkpt>
      <trkpt lat="47.02" lon="8.96654">
        <ele>864</ele>
        <time>2021-08-02T10:43:54.413Z</time>
      </trkpt>
      <trkpt lat="47.01999" lon="8.96654">
        <ele>864</ele>
        <time>2021-08-02T10:43:55.412Z</time>
      </trkpt>
      <trkpt lat="47.01998" lon="8.96653">
        <ele>864</ele>
        <time>2021-08-02T10:43:56.413Z</time>
      </trkpt>
      <trkpt lat="47.01997" lon="8.96652">
        <ele>865</ele>
        <time>2021-08-02T10:43:57.413Z</time>
      </trkpt>
      <trkpt lat="47.01996" lon="8.96651">
        <ele>865</ele>
        <time>2021-08-02T10:43:58.413Z</time>
      </trkpt>
      <trkpt lat="47.01994" lon="8.9665">
        <ele>865</ele>
        <time>2021-08-02T10:43:59.412Z</time>
      </trkpt>
      <trkpt lat="47.01994" lon="8.96649">
        <ele>866</ele>
        <time>2021-08-02T10:44:00.413Z</time>
      </trkpt>
      <trkpt lat="47.01993" lon="8.96647">
        <ele>866</ele>
        <time>2021-08-02T10:44:01.412Z</time>
      </trkpt>
      <trkpt lat="47.01992" lon="8.96647">
        <ele>867</ele>
        <time>2021-08-02T10:44:02.413Z</time>
      </trkpt>
      <trkpt lat="47.0199" lon="8.96646">
        <ele>867</ele>
        <time>2021-08-02T10:44:03.413Z</time>
      </trkpt>
      <trkpt lat="47.01989" lon="8.96646">
        <ele>867</ele>
        <time>2021-08-02T10:44:04.413Z</time>
      </trkpt>
      <trkpt lat="47.01988" lon="8.96646">
        <ele>868</ele>
        <time>2021-08-02T10:44:05.413Z</time>
      </trkpt>
      <trkpt lat="47.01987" lon="8.96646">
        <ele>868</ele>
        <time>2021-08-02T10:44:06.413Z</time>
      </trkpt>
      <trkpt lat="47.01986" lon="8.96646">
        <ele>868</ele>
        <time>2021-08-02T10:44:07.413Z</time>
      </trkpt>
      <trkpt lat="47.01986" lon="8.96645">
        <ele>868</ele>
        <time>2021-08-02T10:44:08.413Z</time>
      </trkpt>
      <trkpt lat="47.01985" lon="8.96644">
        <ele>868</ele>
        <time>2021-08-02T10:44:09.413Z</time>
      </trkpt>
      <trkpt lat="47.01984" lon="8.96643">
        <ele>868</ele>
        <time>2021-08-02T10:44:10.413Z</time>
      </trkpt>
      <trkpt lat="47.01983" lon="8.96643">
        <ele>868</ele>
        <time>2021-08-02T10:44:11.413Z</time>
      </trkpt>
      <trkpt lat="47.01982" lon="8.96642">
        <ele>868</ele>
        <time>2021-08-02T10:44:12.413Z</time>
      </trkpt>
      <trkpt lat="47.0198" lon="8.96641">
        <ele>868</ele>
        <time>2021-08-02T10:44:13.413Z</time>
      </trkpt>
      <trkpt lat="47.01978" lon="8.96641">
        <ele>868</ele>
        <time>2021-08-02T10:44:14.413Z</time>
      </trkpt>
      <trkpt lat="47.01977" lon="8.96639">
        <ele>868</ele>
        <time>2021-08-02T10:44:15.413Z</time>
      </trkpt>
      <trkpt lat="47.01976" lon="8.96639">
        <ele>867</ele>
        <time>2021-08-02T10:44:16.413Z</time>
      </trkpt>
      <trkpt lat="47.01975" lon="8.96638">
        <ele>867</ele>
        <time>2021-08-02T10:44:17.413Z</time>
      </trkpt>
      <trkpt lat="47.01974" lon="8.96638">
        <ele>867</ele>
        <time>2021-08-02T10:44:18.413Z</time>
      </trkpt>
      <trkpt lat="47.01974" lon="8.96637">
        <ele>867</ele>
        <time>2021-08-02T10:44:19.413Z</time>
      </trkpt>
      <trkpt lat="47.01973" lon="8.96638">
        <ele>867</ele>
        <time>2021-08-02T10:44:20.413Z</time>
      </trkpt>
      <trkpt lat="47.01973" lon="8.96638">
        <ele>867</ele>
        <time>2021-08-02T10:44:21.413Z</time>
      </trkpt>
      <trkpt lat="47.01973" lon="8.96638">
        <ele>867</ele>
        <time>2021-08-02T10:44:22.412Z</time>
      </trkpt>
      <trkpt lat="47.01973" lon="8.96638">
        <ele>867</ele>
        <time>2021-08-02T10:44:23.412Z</time>
      </trkpt>
      <trkpt lat="47.01972" lon="8.96639">
        <ele>867</ele>
        <time>2021-08-02T10:44:24.412Z</time>
      </trkpt>
      <trkpt lat="47.01971" lon="8.9664">
        <ele>867</ele>
        <time>2021-08-02T10:44:25.412Z</time>
      </trkpt>
      <trkpt lat="47.01971" lon="8.9664">
        <ele>867</ele>
        <time>2021-08-02T10:44:26.412Z</time>
      </trkpt>
      <trkpt lat="47.0197" lon="8.96641">
        <ele>867</ele>
        <time>2021-08-02T10:44:27.412Z</time>
      </trkpt>
      <trkpt lat="47.01969" lon="8.96641">
        <ele>863</ele>
        <time>2021-08-02T10:44:28.413Z</time>
      </trkpt>
      <trkpt lat="47.01969" lon="8.96641">
        <ele>863</ele>
        <time>2021-08-02T10:44:29.412Z</time>
      </trkpt>
      <trkpt lat="47.01969" lon="8.9664">
        <ele>862</ele>
        <time>2021-08-02T10:44:30.412Z</time>
      </trkpt>
      <trkpt lat="47.01969" lon="8.9664">
        <ele>861</ele>
        <time>2021-08-02T10:44:31.412Z</time>
      </trkpt>
      <trkpt lat="47.01968" lon="8.9664">
        <ele>861</ele>
        <time>2021-08-02T10:44:32.413Z</time>
      </trkpt>
      <trkpt lat="47.01968" lon="8.96639">
        <ele>860</ele>
        <time>2021-08-02T10:44:33.413Z</time>
      </trkpt>
      <trkpt lat="47.01967" lon="8.96639">
        <ele>860</ele>
        <time>2021-08-02T10:44:34.412Z</time>
      </trkpt>
      <trkpt lat="47.01966" lon="8.96638">
        <ele>859</ele>
        <time>2021-08-02T10:44:35.413Z</time>
      </trkpt>
      <trkpt lat="47.01966" lon="8.96638">
        <ele>859</ele>
        <time>2021-08-02T10:44:36.413Z</time>
      </trkpt>
      <trkpt lat="47.01965" lon="8.96638">
        <ele>858</ele>
        <time>2021-08-02T10:44:37.413Z</time>
      </trkpt>
      <trkpt lat="47.01964" lon="8.96637">
        <ele>858</ele>
        <time>2021-08-02T10:44:38.413Z</time>
      </trkpt>
      <trkpt lat="47.01963" lon="8.96637">
        <ele>858</ele>
        <time>2021-08-02T10:44:39.413Z</time>
      </trkpt>
      <trkpt lat="47.01963" lon="8.96637">
        <ele>858</ele>
        <time>2021-08-02T10:44:40.413Z</time>
      </trkpt>
      <trkpt lat="47.01962" lon="8.96637">
        <ele>858</ele>
        <time>2021-08-02T10:44:41.412Z</time>
      </trkpt>
      <trkpt lat="47.01962" lon="8.96636">
        <ele>858</ele>
        <time>2021-08-02T10:44:42.413Z</time>
      </trkpt>
      <trkpt lat="47.01961" lon="8.96635">
        <ele>859</ele>
        <time>2021-08-02T10:44:43.413Z</time>
      </trkpt>
      <trkpt lat="47.01961" lon="8.96635">
        <ele>859</ele>
        <time>2021-08-02T10:44:44.413Z</time>
      </trkpt>
      <trkpt lat="47.0196" lon="8.96634">
        <ele>859</ele>
        <time>2021-08-02T10:44:45.412Z</time>
      </trkpt>
      <trkpt lat="47.01959" lon="8.96633">
        <ele>860</ele>
        <time>2021-08-02T10:44:46.412Z</time>
      </trkpt>
      <trkpt lat="47.01957" lon="8.96632">
        <ele>860</ele>
        <time>2021-08-02T10:44:47.413Z</time>
      </trkpt>
      <trkpt lat="47.01956" lon="8.96631">
        <ele>860</ele>
        <time>2021-08-02T10:44:48.413Z</time>
      </trkpt>
      <trkpt lat="47.01955" lon="8.96631">
        <ele>860</ele>
        <time>2021-08-02T10:44:49.413Z</time>
      </trkpt>
      <trkpt lat="47.01953" lon="8.96631">
        <ele>861</ele>
        <time>2021-08-02T10:44:50.412Z</time>
      </trkpt>
      <trkpt lat="47.01951" lon="8.9663">
        <ele>861</ele>
        <time>2021-08-02T10:44:51.413Z</time>
      </trkpt>
      <trkpt lat="47.0195" lon="8.9663">
        <ele>861</ele>
        <time>2021-08-02T10:44:52.413Z</time>
      </trkpt>
      <trkpt lat="47.01949" lon="8.96629">
        <ele>862</ele>
        <time>2021-08-02T10:44:53.413Z</time>
      </trkpt>
      <trkpt lat="47.01948" lon="8.96627">
        <ele>862</ele>
        <time>2021-08-02T10:44:54.413Z</time>
      </trkpt>
      <trkpt lat="47.01947" lon="8.96626">
        <ele>862</ele>
        <time>2021-08-02T10:44:55.412Z</time>
      </trkpt>
      <trkpt lat="47.01946" lon="8.96627">
        <ele>862</ele>
        <time>2021-08-02T10:44:56.413Z</time>
      </trkpt>
      <trkpt lat="47.01945" lon="8.96628">
        <ele>862</ele>
        <time>2021-08-02T10:44:57.412Z</time>
      </trkpt>
      <trkpt lat="47.01944" lon="8.96628">
        <ele>862</ele>
        <time>2021-08-02T10:44:58.413Z</time>
      </trkpt>
      <trkpt lat="47.01943" lon="8.96628">
        <ele>862</ele>
        <time>2021-08-02T10:44:59.412Z</time>
      </trkpt>
      <trkpt lat="47.01942" lon="8.96627">
        <ele>861</ele>
        <time>2021-08-02T10:45:00.412Z</time>
      </trkpt>
      <trkpt lat="47.01941" lon="8.96626">
        <ele>861</ele>
        <time>2021-08-02T10:45:01.412Z</time>
      </trkpt>
      <trkpt lat="47.0194" lon="8.96626">
        <ele>861</ele>
        <time>2021-08-02T10:45:02.412Z</time>
      </trkpt>
      <trkpt lat="47.0194" lon="8.96625">
        <ele>861</ele>
        <time>2021-08-02T10:45:03.413Z</time>
      </trkpt>
      <trkpt lat="47.01939" lon="8.96625">
        <ele>860</ele>
        <time>2021-08-02T10:45:04.413Z</time>
      </trkpt>
      <trkpt lat="47.01938" lon="8.96624">
        <ele>860</ele>
        <time>2021-08-02T10:45:05.413Z</time>
      </trkpt>
      <trkpt lat="47.01937" lon="8.96624">
        <ele>860</ele>
        <time>2021-08-02T10:45:06.413Z</time>
      </trkpt>
      <trkpt lat="47.01937" lon="8.96624">
        <ele>859</ele>
        <time>2021-08-02T10:45:07.413Z</time>
      </trkpt>
      <trkpt lat="47.01936" lon="8.96624">
        <ele>859</ele>
        <time>2021-08-02T10:45:08.413Z</time>
      </trkpt>
      <trkpt lat="47.01935" lon="8.96624">
        <ele>859</ele>
        <time>2021-08-02T10:45:09.413Z</time>
      </trkpt>
      <trkpt lat="47.01934" lon="8.96622">
        <ele>858</ele>
        <time>2021-08-02T10:45:10.413Z</time>
      </trkpt>
      <trkpt lat="47.01933" lon="8.96621">
        <ele>858</ele>
        <time>2021-08-02T10:45:11.412Z</time>
      </trkpt>
      <trkpt lat="47.01933" lon="8.9662">
        <ele>858</ele>
        <time>2021-08-02T10:45:12.413Z</time>
      </trkpt>
      <trkpt lat="47.01933" lon="8.9662">
        <ele>858</ele>
        <time>2021-08-02T10:45:13.412Z</time>
      </trkpt>
      <trkpt lat="47.01932" lon="8.96619">
        <ele>857</ele>
        <time>2021-08-02T10:45:14.412Z</time>
      </trkpt>
      <trkpt lat="47.0193" lon="8.96619">
        <ele>857</ele>
        <time>2021-08-02T10:45:15.413Z</time>
      </trkpt>
      <trkpt lat="47.01929" lon="8.96618">
        <ele>857</ele>
        <time>2021-08-02T10:45:16.413Z</time>
      </trkpt>
      <trkpt lat="47.01929" lon="8.96618">
        <ele>857</ele>
        <time>2021-08-02T10:45:17.412Z</time>
      </trkpt>
      <trkpt lat="47.01929" lon="8.96617">
        <ele>857</ele>
        <time>2021-08-02T10:45:18.412Z</time>
      </trkpt>
      <trkpt lat="47.01928" lon="8.96615">
        <ele>857</ele>
        <time>2021-08-02T10:45:19.413Z</time>
      </trkpt>
      <trkpt lat="47.01928" lon="8.96614">
        <ele>857</ele>
        <time>2021-08-02T10:45:20.412Z</time>
      </trkpt>
      <trkpt lat="47.01927" lon="8.96614">
        <ele>857</ele>
        <time>2021-08-02T10:45:21.412Z</time>
      </trkpt>
      <trkpt lat="47.01927" lon="8.96613">
        <ele>857</ele>
        <time>2021-08-02T10:45:22.413Z</time>
      </trkpt>
      <trkpt lat="47.01926" lon="8.96613">
        <ele>858</ele>
        <time>2021-08-02T10:45:23.412Z</time>
      </trkpt>
      <trkpt lat="47.01925" lon="8.96612">
        <ele>858</ele>
        <time>2021-08-02T10:45:24.413Z</time>
      </trkpt>
      <trkpt lat="47.01924" lon="8.96612">
        <ele>858</ele>
        <time>2021-08-02T10:45:25.413Z</time>
      </trkpt>
      <trkpt lat="47.01924" lon="8.96611">
        <ele>859</ele>
        <time>2021-08-02T10:45:26.413Z</time>
      </trkpt>
      <trkpt lat="47.01924" lon="8.9661">
        <ele>859</ele>
        <time>2021-08-02T10:45:27.413Z</time>
      </trkpt>
      <trkpt lat="47.01924" lon="8.96611">
        <ele>860</ele>
        <time>2021-08-02T10:45:28.413Z</time>
      </trkpt>
      <trkpt lat="47.01924" lon="8.9661">
        <ele>861</ele>
        <time>2021-08-02T10:45:29.413Z</time>
      </trkpt>
      <trkpt lat="47.01925" lon="8.9661">
        <ele>861</ele>
        <time>2021-08-02T10:45:30.413Z</time>
      </trkpt>
      <trkpt lat="47.01924" lon="8.96608">
        <ele>863</ele>
        <time>2021-08-02T10:45:31.414Z</time>
      </trkpt>
      <trkpt lat="47.01924" lon="8.96608">
        <ele>863</ele>
        <time>2021-08-02T10:45:32.414Z</time>
      </trkpt>
      <trkpt lat="47.01923" lon="8.96608">
        <ele>864</ele>
        <time>2021-08-02T10:45:33.413Z</time>
      </trkpt>
      <trkpt lat="47.01922" lon="8.96608">
        <ele>864</ele>
        <time>2021-08-02T10:45:34.414Z</time>
      </trkpt>
      <trkpt lat="47.01922" lon="8.96607">
        <ele>865</ele>
        <time>2021-08-02T10:45:35.413Z</time>
      </trkpt>
      <trkpt lat="47.01921" lon="8.96606">
        <ele>865</ele>
        <time>2021-08-02T10:45:36.414Z</time>
      </trkpt>
      <trkpt lat="47.0192" lon="8.96605">
        <ele>866</ele>
        <time>2021-08-02T10:45:37.413Z</time>
      </trkpt>
      <trkpt lat="47.0192" lon="8.96604">
        <ele>866</ele>
        <time>2021-08-02T10:45:38.414Z</time>
      </trkpt>
      <trkpt lat="47.0192" lon="8.96603">
        <ele>866</ele>
        <time>2021-08-02T10:45:39.414Z</time>
      </trkpt>
      <trkpt lat="47.0192" lon="8.96603">
        <ele>866</ele>
        <time>2021-08-02T10:45:40.413Z</time>
      </trkpt>
      <trkpt lat="47.01919" lon="8.96602">
        <ele>866</ele>
        <time>2021-08-02T10:45:41.413Z</time>
      </trkpt>
      <trkpt lat="47.01918" lon="8.96602">
        <ele>866</ele>
        <time>2021-08-02T10:45:42.413Z</time>
      </trkpt>
      <trkpt lat="47.01917" lon="8.96602">
        <ele>866</ele>
        <time>2021-08-02T10:45:43.413Z</time>
      </trkpt>
      <trkpt lat="47.01918" lon="8.96602">
        <ele>866</ele>
        <time>2021-08-02T10:45:44.413Z</time>
      </trkpt>
      <trkpt lat="47.01918" lon="8.96603">
        <ele>866</ele>
        <time>2021-08-02T10:45:45.413Z</time>
      </trkpt>
      <trkpt lat="47.01917" lon="8.96604">
        <ele>866</ele>
        <time>2021-08-02T10:45:46.413Z</time>
      </trkpt>
      <trkpt lat="47.01917" lon="8.96605">
        <ele>866</ele>
        <time>2021-08-02T10:45:47.414Z</time>
      </trkpt>
      <trkpt lat="47.01917" lon="8.96605">
        <ele>867</ele>
        <time>2021-08-02T10:45:48.414Z</time>
      </trkpt>
      <trkpt lat="47.01918" lon="8.96605">
        <ele>868</ele>
        <time>2021-08-02T10:45:49.414Z</time>
      </trkpt>
      <trkpt lat="47.01919" lon="8.96606">
        <ele>868</ele>
        <time>2021-08-02T10:45:50.414Z</time>
      </trkpt>
      <trkpt lat="47.01919" lon="8.96605">
        <ele>869</ele>
        <time>2021-08-02T10:45:51.413Z</time>
      </trkpt>
      <trkpt lat="47.01918" lon="8.96605">
        <ele>870</ele>
        <time>2021-08-02T10:45:52.414Z</time>
      </trkpt>
      <trkpt lat="47.01918" lon="8.96604">
        <ele>870</ele>
        <time>2021-08-02T10:45:53.414Z</time>
      </trkpt>
      <trkpt lat="47.01917" lon="8.96604">
        <ele>871</ele>
        <time>2021-08-02T10:45:54.414Z</time>
      </trkpt>
      <trkpt lat="47.01917" lon="8.96604">
        <ele>871</ele>
        <time>2021-08-02T10:45:55.413Z</time>
      </trkpt>
      <trkpt lat="47.01915" lon="8.96603">
        <ele>871</ele>
        <time>2021-08-02T10:45:56.414Z</time>
      </trkpt>
      <trkpt lat="47.01915" lon="8.96602">
        <ele>871</ele>
        <time>2021-08-02T10:45:57.413Z</time>
      </trkpt>
      <trkpt lat="47.01914" lon="8.96602">
        <ele>872</ele>
        <time>2021-08-02T10:45:58.414Z</time>
      </trkpt>
      <trkpt lat="47.01913" lon="8.96601">
        <ele>872</ele>
        <time>2021-08-02T10:45:59.414Z</time>
      </trkpt>
      <trkpt lat="47.01912" lon="8.96601">
        <ele>872</ele>
        <time>2021-08-02T10:46:00.414Z</time>
      </trkpt>
      <trkpt lat="47.01911" lon="8.96601">
        <ele>872</ele>
        <time>2021-08-02T10:46:01.414Z</time>
      </trkpt>
      <trkpt lat="47.0191" lon="8.96601">
        <ele>872</ele>
        <time>2021-08-02T10:46:02.414Z</time>
      </trkpt>
      <trkpt lat="47.01909" lon="8.96601">
        <ele>872</ele>
        <time>2021-08-02T10:46:03.414Z</time>
      </trkpt>
      <trkpt lat="47.01908" lon="8.966">
        <ele>872</ele>
        <time>2021-08-02T10:46:04.414Z</time>
      </trkpt>
      <trkpt lat="47.01907" lon="8.966">
        <ele>872</ele>
        <time>2021-08-02T10:46:05.414Z</time>
      </trkpt>
      <trkpt lat="47.01907" lon="8.96599">
        <ele>871</ele>
        <time>2021-08-02T10:46:06.414Z</time>
      </trkpt>
      <trkpt lat="47.01907" lon="8.96598">
        <ele>871</ele>
        <time>2021-08-02T10:46:07.414Z</time>
      </trkpt>
      <trkpt lat="47.01907" lon="8.96598">
        <ele>870</ele>
        <time>2021-08-02T10:46:08.413Z</time>
      </trkpt>
      <trkpt lat="47.01906" lon="8.96596">
        <ele>869</ele>
        <time>2021-08-02T10:46:09.414Z</time>
      </trkpt>
      <trkpt lat="47.01906" lon="8.96595">
        <ele>869</ele>
        <time>2021-08-02T10:46:10.413Z</time>
      </trkpt>
      <trkpt lat="47.01906" lon="8.96593">
        <ele>868</ele>
        <time>2021-08-02T10:46:11.414Z</time>
      </trkpt>
      <trkpt lat="47.01905" lon="8.96592">
        <ele>868</ele>
        <time>2021-08-02T10:46:12.414Z</time>
      </trkpt>
      <trkpt lat="47.01905" lon="8.96591">
        <ele>867</ele>
        <time>2021-08-02T10:46:13.413Z</time>
      </trkpt>
      <trkpt lat="47.01903" lon="8.96588">
        <ele>867</ele>
        <time>2021-08-02T10:46:14.414Z</time>
      </trkpt>
      <trkpt lat="47.01902" lon="8.96585">
        <ele>867</ele>
        <time>2021-08-02T10:46:15.414Z</time>
      </trkpt>
      <trkpt lat="47.01902" lon="8.96582">
        <ele>866</ele>
        <time>2021-08-02T10:46:16.414Z</time>
      </trkpt>
      <trkpt lat="47.01901" lon="8.9658">
        <ele>866</ele>
        <time>2021-08-02T10:46:17.413Z</time>
      </trkpt>
      <trkpt lat="47.019" lon="8.96577">
        <ele>866</ele>
        <time>2021-08-02T10:46:18.414Z</time>
      </trkpt>
      <trkpt lat="47.01899" lon="8.96575">
        <ele>866</ele>
        <time>2021-08-02T10:46:19.414Z</time>
      </trkpt>
      <trkpt lat="47.01899" lon="8.96573">
        <ele>866</ele>
        <time>2021-08-02T10:46:20.414Z</time>
      </trkpt>
      <trkpt lat="47.01899" lon="8.96572">
        <ele>866</ele>
        <time>2021-08-02T10:46:21.413Z</time>
      </trkpt>
      <trkpt lat="47.019" lon="8.96571">
        <ele>866</ele>
        <time>2021-08-02T10:46:22.414Z</time>
      </trkpt>
      <trkpt lat="47.01899" lon="8.96571">
        <ele>866</ele>
        <time>2021-08-02T10:46:23.414Z</time>
      </trkpt>
      <trkpt lat="47.01899" lon="8.9657">
        <ele>865</ele>
        <time>2021-08-02T10:46:24.413Z</time>
      </trkpt>
      <trkpt lat="47.01898" lon="8.96569">
        <ele>865</ele>
        <time>2021-08-02T10:46:25.413Z</time>
      </trkpt>
      <trkpt lat="47.01896" lon="8.96568">
        <ele>865</ele>
        <time>2021-08-02T10:46:26.414Z</time>
      </trkpt>
      <trkpt lat="47.01894" lon="8.96567">
        <ele>865</ele>
        <time>2021-08-02T10:46:27.413Z</time>
      </trkpt>
      <trkpt lat="47.01893" lon="8.96566">
        <ele>865</ele>
        <time>2021-08-02T10:46:28.414Z</time>
      </trkpt>
      <trkpt lat="47.01892" lon="8.96565">
        <ele>864</ele>
        <time>2021-08-02T10:46:29.413Z</time>
      </trkpt>
      <trkpt lat="47.01891" lon="8.96563">
        <ele>864</ele>
        <time>2021-08-02T10:46:30.414Z</time>
      </trkpt>
      <trkpt lat="47.01891" lon="8.96562">
        <ele>864</ele>
        <time>2021-08-02T10:46:31.413Z</time>
      </trkpt>
      <trkpt lat="47.01891" lon="8.96561">
        <ele>863</ele>
        <time>2021-08-02T10:46:32.414Z</time>
      </trkpt>
      <trkpt lat="47.01891" lon="8.96559">
        <ele>863</ele>
        <time>2021-08-02T10:46:33.413Z</time>
      </trkpt>
      <trkpt lat="47.01891" lon="8.96558">
        <ele>863</ele>
        <time>2021-08-02T10:46:34.414Z</time>
      </trkpt>
      <trkpt lat="47.0189" lon="8.96556">
        <ele>863</ele>
        <time>2021-08-02T10:46:35.414Z</time>
      </trkpt>
      <trkpt lat="47.0189" lon="8.96554">
        <ele>863</ele>
        <time>2021-08-02T10:46:36.414Z</time>
      </trkpt>
      <trkpt lat="47.01889" lon="8.96552">
        <ele>863</ele>
        <time>2021-08-02T10:46:37.414Z</time>
      </trkpt>
      <trkpt lat="47.01888" lon="8.9655">
        <ele>863</ele>
        <time>2021-08-02T10:46:38.414Z</time>
      </trkpt>
      <trkpt lat="47.01886" lon="8.96549">
        <ele>863</ele>
        <time>2021-08-02T10:46:39.414Z</time>
      </trkpt>
      <trkpt lat="47.01885" lon="8.96548">
        <ele>863</ele>
        <time>2021-08-02T10:46:40.414Z</time>
      </trkpt>
      <trkpt lat="47.01884" lon="8.96547">
        <ele>863</ele>
        <time>2021-08-02T10:46:41.414Z</time>
      </trkpt>
      <trkpt lat="47.01885" lon="8.96545">
        <ele>863</ele>
        <time>2021-08-02T10:46:42.414Z</time>
      </trkpt>
      <trkpt lat="47.01886" lon="8.96544">
        <ele>863</ele>
        <time>2021-08-02T10:46:43.414Z</time>
      </trkpt>
      <trkpt lat="47.01887" lon="8.96542">
        <ele>862</ele>
        <time>2021-08-02T10:46:44.414Z</time>
      </trkpt>
      <trkpt lat="47.01888" lon="8.96541">
        <ele>862</ele>
        <time>2021-08-02T10:46:45.414Z</time>
      </trkpt>
      <trkpt lat="47.01889" lon="8.9654">
        <ele>862</ele>
        <time>2021-08-02T10:46:46.413Z</time>
      </trkpt>
      <trkpt lat="47.01888" lon="8.96538">
        <ele>861</ele>
        <time>2021-08-02T10:46:47.414Z</time>
      </trkpt>
      <trkpt lat="47.01888" lon="8.96537">
        <ele>861</ele>
        <time>2021-08-02T10:46:48.413Z</time>
      </trkpt>
      <trkpt lat="47.01887" lon="8.96536">
        <ele>861</ele>
        <time>2021-08-02T10:46:49.414Z</time>
      </trkpt>
      <trkpt lat="47.01886" lon="8.96535">
        <ele>860</ele>
        <time>2021-08-02T10:46:50.414Z</time>
      </trkpt>
      <trkpt lat="47.01885" lon="8.96534">
        <ele>859</ele>
        <time>2021-08-02T10:46:51.414Z</time>
      </trkpt>
      <trkpt lat="47.01885" lon="8.96533">
        <ele>859</ele>
        <time>2021-08-02T10:46:52.413Z</time>
      </trkpt>
      <trkpt lat="47.01886" lon="8.96531">
        <ele>858</ele>
        <time>2021-08-02T10:46:53.414Z</time>
      </trkpt>
      <trkpt lat="47.01886" lon="8.9653">
        <ele>858</ele>
        <time>2021-08-02T10:46:54.413Z</time>
      </trkpt>
      <trkpt lat="47.01885" lon="8.96529">
        <ele>858</ele>
        <time>2021-08-02T10:46:55.414Z</time>
      </trkpt>
      <trkpt lat="47.01885" lon="8.96529">
        <ele>857</ele>
        <time>2021-08-02T10:46:56.413Z</time>
      </trkpt>
      <trkpt lat="47.01885" lon="8.96529">
        <ele>857</ele>
        <time>2021-08-02T10:46:57.414Z</time>
      </trkpt>
      <trkpt lat="47.01885" lon="8.96529">
        <ele>857</ele>
        <time>2021-08-02T10:46:58.414Z</time>
      </trkpt>
      <trkpt lat="47.01886" lon="8.96528">
        <ele>859</ele>
        <time>2021-08-02T10:46:59.413Z</time>
      </trkpt>
      <trkpt lat="47.01886" lon="8.96527">
        <ele>860</ele>
        <time>2021-08-02T10:47:00.414Z</time>
      </trkpt>
      <trkpt lat="47.01886" lon="8.96526">
        <ele>860</ele>
        <time>2021-08-02T10:47:01.413Z</time>
      </trkpt>
      <trkpt lat="47.01886" lon="8.96525">
        <ele>861</ele>
        <time>2021-08-02T10:47:02.413Z</time>
      </trkpt>
      <trkpt lat="47.01886" lon="8.96524">
        <ele>861</ele>
        <time>2021-08-02T10:47:03.413Z</time>
      </trkpt>
      <trkpt lat="47.01885" lon="8.96522">
        <ele>861</ele>
        <time>2021-08-02T10:47:04.414Z</time>
      </trkpt>
      <trkpt lat="47.01884" lon="8.96521">
        <ele>861</ele>
        <time>2021-08-02T10:47:05.413Z</time>
      </trkpt>
      <trkpt lat="47.01884" lon="8.96519">
        <ele>861</ele>
        <time>2021-08-02T10:47:06.414Z</time>
      </trkpt>
      <trkpt lat="47.01883" lon="8.96517">
        <ele>861</ele>
        <time>2021-08-02T10:47:07.413Z</time>
      </trkpt>
      <trkpt lat="47.01883" lon="8.96515">
        <ele>861</ele>
        <time>2021-08-02T10:47:08.413Z</time>
      </trkpt>
      <trkpt lat="47.01883" lon="8.96513">
        <ele>861</ele>
        <time>2021-08-02T10:47:09.413Z</time>
      </trkpt>
      <trkpt lat="47.01883" lon="8.96511">
        <ele>860</ele>
        <time>2021-08-02T10:47:10.414Z</time>
      </trkpt>
      <trkpt lat="47.01883" lon="8.96509">
        <ele>860</ele>
        <time>2021-08-02T10:47:11.414Z</time>
      </trkpt>
      <trkpt lat="47.01884" lon="8.96507">
        <ele>859</ele>
        <time>2021-08-02T10:47:12.414Z</time>
      </trkpt>
      <trkpt lat="47.01885" lon="8.96505">
        <ele>859</ele>
        <time>2021-08-02T10:47:13.414Z</time>
      </trkpt>
      <trkpt lat="47.01885" lon="8.96502">
        <ele>858</ele>
        <time>2021-08-02T10:47:14.414Z</time>
      </trkpt>
      <trkpt lat="47.01886" lon="8.965">
        <ele>858</ele>
        <time>2021-08-02T10:47:15.414Z</time>
      </trkpt>
      <trkpt lat="47.01886" lon="8.96498">
        <ele>858</ele>
        <time>2021-08-02T10:47:16.413Z</time>
      </trkpt>
      <trkpt lat="47.01886" lon="8.96496">
        <ele>857</ele>
        <time>2021-08-02T10:47:17.413Z</time>
      </trkpt>
      <trkpt lat="47.01886" lon="8.96495">
        <ele>857</ele>
        <time>2021-08-02T10:47:18.413Z</time>
      </trkpt>
      <trkpt lat="47.01887" lon="8.96494">
        <ele>857</ele>
        <time>2021-08-02T10:47:19.414Z</time>
      </trkpt>
      <trkpt lat="47.0189" lon="8.96491">
        <ele>856</ele>
        <time>2021-08-02T10:47:20.413Z</time>
      </trkpt>
      <trkpt lat="47.0189" lon="8.9649">
        <ele>856</ele>
        <time>2021-08-02T10:47:21.414Z</time>
      </trkpt>
      <trkpt lat="47.01889" lon="8.9649">
        <ele>856</ele>
        <time>2021-08-02T10:47:22.413Z</time>
      </trkpt>
      <trkpt lat="47.0189" lon="8.96489">
        <ele>856</ele>
        <time>2021-08-02T10:47:23.414Z</time>
      </trkpt>
      <trkpt lat="47.0189" lon="8.96487">
        <ele>856</ele>
        <time>2021-08-02T10:47:24.414Z</time>
      </trkpt>
      <trkpt lat="47.0189" lon="8.96486">
        <ele>856</ele>
        <time>2021-08-02T10:47:25.414Z</time>
      </trkpt>
      <trkpt lat="47.0189" lon="8.96485">
        <ele>856</ele>
        <time>2021-08-02T10:47:26.414Z</time>
      </trkpt>
      <trkpt lat="47.0189" lon="8.96484">
        <ele>856</ele>
        <time>2021-08-02T10:47:27.414Z</time>
      </trkpt>
      <trkpt lat="47.0189" lon="8.96482">
        <ele>856</ele>
        <time>2021-08-02T10:47:28.413Z</time>
      </trkpt>
      <trkpt lat="47.01891" lon="8.96481">
        <ele>856</ele>
        <time>2021-08-02T10:47:29.413Z</time>
      </trkpt>
      <trkpt lat="47.01891" lon="8.96479">
        <ele>856</ele>
        <time>2021-08-02T10:47:30.413Z</time>
      </trkpt>
      <trkpt lat="47.01891" lon="8.96478">
        <ele>856</ele>
        <time>2021-08-02T10:47:31.414Z</time>
      </trkpt>
      <trkpt lat="47.01891" lon="8.96476">
        <ele>856</ele>
        <time>2021-08-02T10:47:32.414Z</time>
      </trkpt>
      <trkpt lat="47.01891" lon="8.96474">
        <ele>855</ele>
        <time>2021-08-02T10:47:33.414Z</time>
      </trkpt>
      <trkpt lat="47.0189" lon="8.96473">
        <ele>855</ele>
        <time>2021-08-02T10:47:34.414Z</time>
      </trkpt>
      <trkpt lat="47.01888" lon="8.96471">
        <ele>855</ele>
        <time>2021-08-02T10:47:35.413Z</time>
      </trkpt>
      <trkpt lat="47.01888" lon="8.9647">
        <ele>854</ele>
        <time>2021-08-02T10:47:36.414Z</time>
      </trkpt>
      <trkpt lat="47.01888" lon="8.96469">
        <ele>855</ele>
        <time>2021-08-02T10:47:37.413Z</time>
      </trkpt>
      <trkpt lat="47.01888" lon="8.96469">
        <ele>855</ele>
        <time>2021-08-02T10:47:38.413Z</time>
      </trkpt>
      <trkpt lat="47.01888" lon="8.96468">
        <ele>855</ele>
        <time>2021-08-02T10:47:39.414Z</time>
      </trkpt>
      <trkpt lat="47.01889" lon="8.96467">
        <ele>856</ele>
        <time>2021-08-02T10:47:40.414Z</time>
      </trkpt>
      <trkpt lat="47.0189" lon="8.96465">
        <ele>856</ele>
        <time>2021-08-02T10:47:41.414Z</time>
      </trkpt>
      <trkpt lat="47.01891" lon="8.96464">
        <ele>856</ele>
        <time>2021-08-02T10:47:42.413Z</time>
      </trkpt>
      <trkpt lat="47.01891" lon="8.96463">
        <ele>856</ele>
        <time>2021-08-02T10:47:43.414Z</time>
      </trkpt>
      <trkpt lat="47.01891" lon="8.96461">
        <ele>856</ele>
        <time>2021-08-02T10:47:44.414Z</time>
      </trkpt>
      <trkpt lat="47.01891" lon="8.9646">
        <ele>856</ele>
        <time>2021-08-02T10:47:45.414Z</time>
      </trkpt>
      <trkpt lat="47.01891" lon="8.96459">
        <ele>856</ele>
        <time>2021-08-02T10:47:46.414Z</time>
      </trkpt>
      <trkpt lat="47.0189" lon="8.96458">
        <ele>855</ele>
        <time>2021-08-02T10:47:47.414Z</time>
      </trkpt>
      <trkpt lat="47.0189" lon="8.96456">
        <ele>854</ele>
        <time>2021-08-02T10:47:48.414Z</time>
      </trkpt>
      <trkpt lat="47.0189" lon="8.96455">
        <ele>854</ele>
        <time>2021-08-02T10:47:49.414Z</time>
      </trkpt>
      <trkpt lat="47.01889" lon="8.96454">
        <ele>853</ele>
        <time>2021-08-02T10:47:50.414Z</time>
      </trkpt>
      <trkpt lat="47.0189" lon="8.96453">
        <ele>853</ele>
        <time>2021-08-02T10:47:51.414Z</time>
      </trkpt>
      <trkpt lat="47.01889" lon="8.96451">
        <ele>852</ele>
        <time>2021-08-02T10:47:52.414Z</time>
      </trkpt>
      <trkpt lat="47.0189" lon="8.9645">
        <ele>852</ele>
        <time>2021-08-02T10:47:53.413Z</time>
      </trkpt>
      <trkpt lat="47.01889" lon="8.96449">
        <ele>851</ele>
        <time>2021-08-02T10:47:54.414Z</time>
      </trkpt>
      <trkpt lat="47.01888" lon="8.96448">
        <ele>851</ele>
        <time>2021-08-02T10:47:55.413Z</time>
      </trkpt>
      <trkpt lat="47.01888" lon="8.96447">
        <ele>850</ele>
        <time>2021-08-02T10:47:56.414Z</time>
      </trkpt>
      <trkpt lat="47.01887" lon="8.96445">
        <ele>849</ele>
        <time>2021-08-02T10:47:57.414Z</time>
      </trkpt>
      <trkpt lat="47.01887" lon="8.96444">
        <ele>849</ele>
        <time>2021-08-02T10:47:58.414Z</time>
      </trkpt>
      <trkpt lat="47.01887" lon="8.96442">
        <ele>849</ele>
        <time>2021-08-02T10:47:59.413Z</time>
      </trkpt>
      <trkpt lat="47.01887" lon="8.96442">
        <ele>849</ele>
        <time>2021-08-02T10:48:00.414Z</time>
      </trkpt>
      <trkpt lat="47.01887" lon="8.96441">
        <ele>850</ele>
        <time>2021-08-02T10:48:01.413Z</time>
      </trkpt>
      <trkpt lat="47.01887" lon="8.9644">
        <ele>850</ele>
        <time>2021-08-02T10:48:02.414Z</time>
      </trkpt>
      <trkpt lat="47.01887" lon="8.96439">
        <ele>851</ele>
        <time>2021-08-02T10:48:03.413Z</time>
      </trkpt>
      <trkpt lat="47.01887" lon="8.96438">
        <ele>851</ele>
        <time>2021-08-02T10:48:04.414Z</time>
      </trkpt>
      <trkpt lat="47.01887" lon="8.96436">
        <ele>851</ele>
        <time>2021-08-02T10:48:05.414Z</time>
      </trkpt>
      <trkpt lat="47.01888" lon="8.96435">
        <ele>851</ele>
        <time>2021-08-02T10:48:06.414Z</time>
      </trkpt>
      <trkpt lat="47.01888" lon="8.96433">
        <ele>852</ele>
        <time>2021-08-02T10:48:07.413Z</time>
      </trkpt>
      <trkpt lat="47.01889" lon="8.96432">
        <ele>852</ele>
        <time>2021-08-02T10:48:08.413Z</time>
      </trkpt>
      <trkpt lat="47.01888" lon="8.9643">
        <ele>852</ele>
        <time>2021-08-02T10:48:09.414Z</time>
      </trkpt>
      <trkpt lat="47.01888" lon="8.96429">
        <ele>852</ele>
        <time>2021-08-02T10:48:10.414Z</time>
      </trkpt>
      <trkpt lat="47.01887" lon="8.96428">
        <ele>851</ele>
        <time>2021-08-02T10:48:11.414Z</time>
      </trkpt>
      <trkpt lat="47.01887" lon="8.96426">
        <ele>851</ele>
        <time>2021-08-02T10:48:12.414Z</time>
      </trkpt>
      <trkpt lat="47.01886" lon="8.96424">
        <ele>851</ele>
        <time>2021-08-02T10:48:13.413Z</time>
      </trkpt>
      <trkpt lat="47.01885" lon="8.96422">
        <ele>850</ele>
        <time>2021-08-02T10:48:14.414Z</time>
      </trkpt>
      <trkpt lat="47.01887" lon="8.96421">
        <ele>850</ele>
        <time>2021-08-02T10:48:15.414Z</time>
      </trkpt>
      <trkpt lat="47.01887" lon="8.96419">
        <ele>850</ele>
        <time>2021-08-02T10:48:16.413Z</time>
      </trkpt>
      <trkpt lat="47.01887" lon="8.96418">
        <ele>850</ele>
        <time>2021-08-02T10:48:17.413Z</time>
      </trkpt>
      <trkpt lat="47.01887" lon="8.96416">
        <ele>849</ele>
        <time>2021-08-02T10:48:18.414Z</time>
      </trkpt>
      <trkpt lat="47.01887" lon="8.96414">
        <ele>849</ele>
        <time>2021-08-02T10:48:19.414Z</time>
      </trkpt>
      <trkpt lat="47.01887" lon="8.96413">
        <ele>849</ele>
        <time>2021-08-02T10:48:20.413Z</time>
      </trkpt>
      <trkpt lat="47.01887" lon="8.96411">
        <ele>849</ele>
        <time>2021-08-02T10:48:21.414Z</time>
      </trkpt>
      <trkpt lat="47.01888" lon="8.9641">
        <ele>849</ele>
        <time>2021-08-02T10:48:22.414Z</time>
      </trkpt>
      <trkpt lat="47.01887" lon="8.96409">
        <ele>849</ele>
        <time>2021-08-02T10:48:23.413Z</time>
      </trkpt>
      <trkpt lat="47.01887" lon="8.96408">
        <ele>849</ele>
        <time>2021-08-02T10:48:24.414Z</time>
      </trkpt>
      <trkpt lat="47.01887" lon="8.96406">
        <ele>848</ele>
        <time>2021-08-02T10:48:25.414Z</time>
      </trkpt>
      <trkpt lat="47.01888" lon="8.96404">
        <ele>848</ele>
        <time>2021-08-02T10:48:26.414Z</time>
      </trkpt>
      <trkpt lat="47.01888" lon="8.96401">
        <ele>848</ele>
        <time>2021-08-02T10:48:27.413Z</time>
      </trkpt>
      <trkpt lat="47.01889" lon="8.964">
        <ele>848</ele>
        <time>2021-08-02T10:48:28.413Z</time>
      </trkpt>
      <trkpt lat="47.01888" lon="8.96398">
        <ele>848</ele>
        <time>2021-08-02T10:48:29.414Z</time>
      </trkpt>
      <trkpt lat="47.01888" lon="8.96397">
        <ele>848</ele>
        <time>2021-08-02T10:48:30.413Z</time>
      </trkpt>
      <trkpt lat="47.01887" lon="8.96396">
        <ele>847</ele>
        <time>2021-08-02T10:48:31.414Z</time>
      </trkpt>
      <trkpt lat="47.01887" lon="8.96394">
        <ele>847</ele>
        <time>2021-08-02T10:48:32.413Z</time>
      </trkpt>
      <trkpt lat="47.01887" lon="8.96393">
        <ele>847</ele>
        <time>2021-08-02T10:48:33.414Z</time>
      </trkpt>
      <trkpt lat="47.01886" lon="8.96392">
        <ele>847</ele>
        <time>2021-08-02T10:48:34.414Z</time>
      </trkpt>
      <trkpt lat="47.01886" lon="8.9639">
        <ele>847</ele>
        <time>2021-08-02T10:48:35.414Z</time>
      </trkpt>
      <trkpt lat="47.01886" lon="8.96389">
        <ele>847</ele>
        <time>2021-08-02T10:48:36.414Z</time>
      </trkpt>
      <trkpt lat="47.01885" lon="8.96387">
        <ele>846</ele>
        <time>2021-08-02T10:48:37.414Z</time>
      </trkpt>
      <trkpt lat="47.01885" lon="8.96386">
        <ele>846</ele>
        <time>2021-08-02T10:48:38.414Z</time>
      </trkpt>
      <trkpt lat="47.01886" lon="8.96385">
        <ele>846</ele>
        <time>2021-08-02T10:48:39.413Z</time>
      </trkpt>
      <trkpt lat="47.01886" lon="8.96383">
        <ele>846</ele>
        <time>2021-08-02T10:48:40.413Z</time>
      </trkpt>
      <trkpt lat="47.01887" lon="8.96381">
        <ele>846</ele>
        <time>2021-08-02T10:48:41.414Z</time>
      </trkpt>
      <trkpt lat="47.01887" lon="8.9638">
        <ele>846</ele>
        <time>2021-08-02T10:48:42.414Z</time>
      </trkpt>
      <trkpt lat="47.01887" lon="8.96379">
        <ele>846</ele>
        <time>2021-08-02T10:48:43.414Z</time>
      </trkpt>
      <trkpt lat="47.01888" lon="8.96377">
        <ele>846</ele>
        <time>2021-08-02T10:48:44.414Z</time>
      </trkpt>
      <trkpt lat="47.01888" lon="8.96375">
        <ele>847</ele>
        <time>2021-08-02T10:48:45.414Z</time>
      </trkpt>
      <trkpt lat="47.01889" lon="8.96374">
        <ele>847</ele>
        <time>2021-08-02T10:48:47.524Z</time>
      </trkpt>
      <trkpt lat="47.01889" lon="8.96373">
        <ele>848</ele>
        <time>2021-08-02T10:48:48.523Z</time>
      </trkpt>
      <trkpt lat="47.0189" lon="8.96372">
        <ele>848</ele>
        <time>2021-08-02T10:48:49.524Z</time>
      </trkpt>
      <trkpt lat="47.0189" lon="8.96371">
        <ele>849</ele>
        <time>2021-08-02T10:48:50.524Z</time>
      </trkpt>
      <trkpt lat="47.0189" lon="8.96369">
        <ele>849</ele>
        <time>2021-08-02T10:48:51.524Z</time>
      </trkpt>
      <trkpt lat="47.0189" lon="8.96368">
        <ele>850</ele>
        <time>2021-08-02T10:48:52.524Z</time>
      </trkpt>
      <trkpt lat="47.0189" lon="8.96366">
        <ele>850</ele>
        <time>2021-08-02T10:48:53.524Z</time>
      </trkpt>
      <trkpt lat="47.01889" lon="8.96365">
        <ele>850</ele>
        <time>2021-08-02T10:48:54.523Z</time>
      </trkpt>
      <trkpt lat="47.0189" lon="8.96363">
        <ele>850</ele>
        <time>2021-08-02T10:48:55.524Z</time>
      </trkpt>
      <trkpt lat="47.0189" lon="8.96362">
        <ele>850</ele>
        <time>2021-08-02T10:48:56.524Z</time>
      </trkpt>
      <trkpt lat="47.0189" lon="8.9636">
        <ele>850</ele>
        <time>2021-08-02T10:48:57.523Z</time>
      </trkpt>
      <trkpt lat="47.01888" lon="8.96358">
        <ele>850</ele>
        <time>2021-08-02T10:48:58.524Z</time>
      </trkpt>
      <trkpt lat="47.01886" lon="8.96356">
        <ele>849</ele>
        <time>2021-08-02T10:48:59.524Z</time>
      </trkpt>
      <trkpt lat="47.01885" lon="8.96355">
        <ele>849</ele>
        <time>2021-08-02T10:49:00.524Z</time>
      </trkpt>
      <trkpt lat="47.01884" lon="8.96353">
        <ele>848</ele>
        <time>2021-08-02T10:49:01.524Z</time>
      </trkpt>
      <trkpt lat="47.01884" lon="8.96351">
        <ele>848</ele>
        <time>2021-08-02T10:49:02.524Z</time>
      </trkpt>
      <trkpt lat="47.01884" lon="8.9635">
        <ele>847</ele>
        <time>2021-08-02T10:49:03.523Z</time>
      </trkpt>
      <trkpt lat="47.01883" lon="8.96348">
        <ele>847</ele>
        <time>2021-08-02T10:49:04.523Z</time>
      </trkpt>
      <trkpt lat="47.01883" lon="8.96347">
        <ele>847</ele>
        <time>2021-08-02T10:49:05.524Z</time>
      </trkpt>
      <trkpt lat="47.01883" lon="8.96345">
        <ele>847</ele>
        <time>2021-08-02T10:49:06.523Z</time>
      </trkpt>
      <trkpt lat="47.01884" lon="8.96344">
        <ele>847</ele>
        <time>2021-08-02T10:49:07.524Z</time>
      </trkpt>
      <trkpt lat="47.01884" lon="8.96343">
        <ele>847</ele>
        <time>2021-08-02T10:49:11.576Z</time>
      </trkpt>
      <trkpt lat="47.01885" lon="8.96342">
        <ele>847</ele>
        <time>2021-08-02T10:49:12.576Z</time>
      </trkpt>
      <trkpt lat="47.01886" lon="8.96341">
        <ele>847</ele>
        <time>2021-08-02T10:49:14.403Z</time>
      </trkpt>
      <trkpt lat="47.01887" lon="8.9634">
        <ele>847</ele>
        <time>2021-08-02T10:49:15.404Z</time>
      </trkpt>
      <trkpt lat="47.01888" lon="8.96338">
        <ele>847</ele>
        <time>2021-08-02T10:49:16.404Z</time>
      </trkpt>
      <trkpt lat="47.01889" lon="8.96337">
        <ele>847</ele>
        <time>2021-08-02T10:49:17.403Z</time>
      </trkpt>
      <trkpt lat="47.01889" lon="8.96336">
        <ele>847</ele>
        <time>2021-08-02T10:49:18.404Z</time>
      </trkpt>
      <trkpt lat="47.01889" lon="8.96335">
        <ele>847</ele>
        <time>2021-08-02T10:49:19.404Z</time>
      </trkpt>
      <trkpt lat="47.0189" lon="8.96333">
        <ele>847</ele>
        <time>2021-08-02T10:49:20.404Z</time>
      </trkpt>
      <trkpt lat="47.0189" lon="8.96332">
        <ele>847</ele>
        <time>2021-08-02T10:49:21.404Z</time>
      </trkpt>
      <trkpt lat="47.0189" lon="8.96331">
        <ele>848</ele>
        <time>2021-08-02T10:49:22.404Z</time>
      </trkpt>
      <trkpt lat="47.01889" lon="8.96328">
        <ele>848</ele>
        <time>2021-08-02T10:49:23.404Z</time>
      </trkpt>
      <trkpt lat="47.0189" lon="8.96327">
        <ele>848</ele>
        <time>2021-08-02T10:49:24.403Z</time>
      </trkpt>
      <trkpt lat="47.0189" lon="8.96325">
        <ele>849</ele>
        <time>2021-08-02T10:49:25.404Z</time>
      </trkpt>
      <trkpt lat="47.01891" lon="8.96324">
        <ele>849</ele>
        <time>2021-08-02T10:49:26.403Z</time>
      </trkpt>
      <trkpt lat="47.01891" lon="8.96322">
        <ele>850</ele>
        <time>2021-08-02T10:49:27.404Z</time>
      </trkpt>
      <trkpt lat="47.0189" lon="8.96321">
        <ele>850</ele>
        <time>2021-08-02T10:49:28.404Z</time>
      </trkpt>
      <trkpt lat="47.01889" lon="8.96319">
        <ele>850</ele>
        <time>2021-08-02T10:49:29.404Z</time>
      </trkpt>
      <trkpt lat="47.01888" lon="8.96318">
        <ele>850</ele>
        <time>2021-08-02T10:49:30.404Z</time>
      </trkpt>
      <trkpt lat="47.01887" lon="8.96317">
        <ele>850</ele>
        <time>2021-08-02T10:49:31.404Z</time>
      </trkpt>
      <trkpt lat="47.01888" lon="8.96316">
        <ele>850</ele>
        <time>2021-08-02T10:49:32.404Z</time>
      </trkpt>
      <trkpt lat="47.01888" lon="8.96315">
        <ele>850</ele>
        <time>2021-08-02T10:49:33.404Z</time>
      </trkpt>
      <trkpt lat="47.01889" lon="8.96314">
        <ele>850</ele>
        <time>2021-08-02T10:49:34.404Z</time>
      </trkpt>
      <trkpt lat="47.01889" lon="8.96313">
        <ele>850</ele>
        <time>2021-08-02T10:49:35.404Z</time>
      </trkpt>
      <trkpt lat="47.01889" lon="8.96311">
        <ele>850</ele>
        <time>2021-08-02T10:49:36.404Z</time>
      </trkpt>
      <trkpt lat="47.01889" lon="8.9631">
        <ele>850</ele>
        <time>2021-08-02T10:49:37.404Z</time>
      </trkpt>
      <trkpt lat="47.01889" lon="8.96309">
        <ele>850</ele>
        <time>2021-08-02T10:49:38.404Z</time>
      </trkpt>
      <trkpt lat="47.01889" lon="8.96308">
        <ele>850</ele>
        <time>2021-08-02T10:49:39.403Z</time>
      </trkpt>
      <trkpt lat="47.01888" lon="8.96306">
        <ele>849</ele>
        <time>2021-08-02T10:49:40.404Z</time>
      </trkpt>
      <trkpt lat="47.01887" lon="8.96305">
        <ele>848</ele>
        <time>2021-08-02T10:49:41.403Z</time>
      </trkpt>
      <trkpt lat="47.01886" lon="8.96303">
        <ele>848</ele>
        <time>2021-08-02T10:49:42.404Z</time>
      </trkpt>
      <trkpt lat="47.01886" lon="8.96302">
        <ele>847</ele>
        <time>2021-08-02T10:49:43.403Z</time>
      </trkpt>
      <trkpt lat="47.01886" lon="8.963">
        <ele>846</ele>
        <time>2021-08-02T10:49:44.404Z</time>
      </trkpt>
      <trkpt lat="47.01885" lon="8.96299">
        <ele>846</ele>
        <time>2021-08-02T10:49:45.404Z</time>
      </trkpt>
      <trkpt lat="47.01886" lon="8.96298">
        <ele>845</ele>
        <time>2021-08-02T10:49:46.404Z</time>
      </trkpt>
      <trkpt lat="47.01886" lon="8.96297">
        <ele>845</ele>
        <time>2021-08-02T10:49:47.403Z</time>
      </trkpt>
      <trkpt lat="47.01886" lon="8.96295">
        <ele>846</ele>
        <time>2021-08-02T10:49:48.404Z</time>
      </trkpt>
      <trkpt lat="47.01885" lon="8.96294">
        <ele>845</ele>
        <time>2021-08-02T10:49:49.403Z</time>
      </trkpt>
      <trkpt lat="47.01885" lon="8.96293">
        <ele>845</ele>
        <time>2021-08-02T10:49:50.404Z</time>
      </trkpt>
      <trkpt lat="47.01885" lon="8.96291">
        <ele>845</ele>
        <time>2021-08-02T10:49:51.404Z</time>
      </trkpt>
      <trkpt lat="47.01885" lon="8.9629">
        <ele>846</ele>
        <time>2021-08-02T10:49:52.404Z</time>
      </trkpt>
      <trkpt lat="47.01885" lon="8.96289">
        <ele>846</ele>
        <time>2021-08-02T10:49:53.404Z</time>
      </trkpt>
      <trkpt lat="47.01886" lon="8.96287">
        <ele>846</ele>
        <time>2021-08-02T10:49:54.403Z</time>
      </trkpt>
      <trkpt lat="47.01885" lon="8.96286">
        <ele>846</ele>
        <time>2021-08-02T10:49:55.404Z</time>
      </trkpt>
      <trkpt lat="47.01885" lon="8.96284">
        <ele>846</ele>
        <time>2021-08-02T10:49:56.404Z</time>
      </trkpt>
      <trkpt lat="47.01886" lon="8.96283">
        <ele>846</ele>
        <time>2021-08-02T10:49:57.404Z</time>
      </trkpt>
      <trkpt lat="47.01886" lon="8.96281">
        <ele>846</ele>
        <time>2021-08-02T10:49:58.404Z</time>
      </trkpt>
      <trkpt lat="47.01886" lon="8.9628">
        <ele>846</ele>
        <time>2021-08-02T10:49:59.403Z</time>
      </trkpt>
      <trkpt lat="47.01886" lon="8.96278">
        <ele>847</ele>
        <time>2021-08-02T10:50:00.404Z</time>
      </trkpt>
      <trkpt lat="47.01885" lon="8.96277">
        <ele>847</ele>
        <time>2021-08-02T10:50:01.404Z</time>
      </trkpt>
      <trkpt lat="47.01885" lon="8.96276">
        <ele>847</ele>
        <time>2021-08-02T10:50:02.404Z</time>
      </trkpt>
      <trkpt lat="47.01886" lon="8.96275">
        <ele>847</ele>
        <time>2021-08-02T10:50:03.404Z</time>
      </trkpt>
      <trkpt lat="47.01887" lon="8.96274">
        <ele>846</ele>
        <time>2021-08-02T10:50:04.403Z</time>
      </trkpt>
      <trkpt lat="47.01888" lon="8.96272">
        <ele>846</ele>
        <time>2021-08-02T10:50:05.403Z</time>
      </trkpt>
      <trkpt lat="47.01888" lon="8.9627">
        <ele>846</ele>
        <time>2021-08-02T10:50:06.403Z</time>
      </trkpt>
      <trkpt lat="47.01888" lon="8.96268">
        <ele>846</ele>
        <time>2021-08-02T10:50:07.404Z</time>
      </trkpt>
      <trkpt lat="47.01888" lon="8.96267">
        <ele>846</ele>
        <time>2021-08-02T10:50:08.403Z</time>
      </trkpt>
      <trkpt lat="47.01888" lon="8.96265">
        <ele>845</ele>
        <time>2021-08-02T10:50:09.404Z</time>
      </trkpt>
      <trkpt lat="47.01888" lon="8.96264">
        <ele>845</ele>
        <time>2021-08-02T10:50:10.404Z</time>
      </trkpt>
      <trkpt lat="47.01887" lon="8.96263">
        <ele>845</ele>
        <time>2021-08-02T10:50:11.403Z</time>
      </trkpt>
      <trkpt lat="47.01887" lon="8.96261">
        <ele>845</ele>
        <time>2021-08-02T10:50:12.403Z</time>
      </trkpt>
      <trkpt lat="47.01888" lon="8.9626">
        <ele>845</ele>
        <time>2021-08-02T10:50:13.404Z</time>
      </trkpt>
      <trkpt lat="47.01888" lon="8.96259">
        <ele>845</ele>
        <time>2021-08-02T10:50:14.403Z</time>
      </trkpt>
      <trkpt lat="47.01888" lon="8.96257">
        <ele>845</ele>
        <time>2021-08-02T10:50:15.403Z</time>
      </trkpt>
      <trkpt lat="47.01889" lon="8.96256">
        <ele>845</ele>
        <time>2021-08-02T10:50:16.403Z</time>
      </trkpt>
      <trkpt lat="47.01889" lon="8.96255">
        <ele>845</ele>
        <time>2021-08-02T10:50:17.404Z</time>
      </trkpt>
      <trkpt lat="47.0189" lon="8.96255">
        <ele>845</ele>
        <time>2021-08-02T10:50:18.404Z</time>
      </trkpt>
      <trkpt lat="47.0189" lon="8.96254">
        <ele>845</ele>
        <time>2021-08-02T10:50:19.403Z</time>
      </trkpt>
      <trkpt lat="47.01891" lon="8.96253">
        <ele>845</ele>
        <time>2021-08-02T10:50:20.404Z</time>
      </trkpt>
      <trkpt lat="47.01893" lon="8.96253">
        <ele>845</ele>
        <time>2021-08-02T10:50:21.403Z</time>
      </trkpt>
      <trkpt lat="47.01895" lon="8.96252">
        <ele>846</ele>
        <time>2021-08-02T10:50:22.403Z</time>
      </trkpt>
      <trkpt lat="47.01897" lon="8.96251">
        <ele>846</ele>
        <time>2021-08-02T10:50:23.404Z</time>
      </trkpt>
      <trkpt lat="47.01899" lon="8.96251">
        <ele>846</ele>
        <time>2021-08-02T10:50:24.404Z</time>
      </trkpt>
      <trkpt lat="47.019" lon="8.96249">
        <ele>847</ele>
        <time>2021-08-02T10:50:25.404Z</time>
      </trkpt>
      <trkpt lat="47.01901" lon="8.96248">
        <ele>847</ele>
        <time>2021-08-02T10:50:26.404Z</time>
      </trkpt>
      <trkpt lat="47.01902" lon="8.96247">
        <ele>847</ele>
        <time>2021-08-02T10:50:27.403Z</time>
      </trkpt>
      <trkpt lat="47.01903" lon="8.96246">
        <ele>847</ele>
        <time>2021-08-02T10:50:28.404Z</time>
      </trkpt>
      <trkpt lat="47.01903" lon="8.96245">
        <ele>848</ele>
        <time>2021-08-02T10:50:29.404Z</time>
      </trkpt>
      <trkpt lat="47.01902" lon="8.96245">
        <ele>848</ele>
        <time>2021-08-02T10:50:30.403Z</time>
      </trkpt>
      <trkpt lat="47.01903" lon="8.96245">
        <ele>848</ele>
        <time>2021-08-02T10:50:31.403Z</time>
      </trkpt>
      <trkpt lat="47.01903" lon="8.96244">
        <ele>848</ele>
        <time>2021-08-02T10:50:32.404Z</time>
      </trkpt>
      <trkpt lat="47.01903" lon="8.96244">
        <ele>847</ele>
        <time>2021-08-02T10:50:33.404Z</time>
      </trkpt>
      <trkpt lat="47.01903" lon="8.96241">
        <ele>845</ele>
        <time>2021-08-02T10:50:34.405Z</time>
      </trkpt>
      <trkpt lat="47.01904" lon="8.96241">
        <ele>845</ele>
        <time>2021-08-02T10:50:35.404Z</time>
      </trkpt>
      <trkpt lat="47.01904" lon="8.96241">
        <ele>845</ele>
        <time>2021-08-02T10:50:36.404Z</time>
      </trkpt>
      <trkpt lat="47.01907" lon="8.96244">
        <ele>853</ele>
        <time>2021-08-02T10:50:37.405Z</time>
      </trkpt>
      <trkpt lat="47.01908" lon="8.96244">
        <ele>855</ele>
        <time>2021-08-02T10:50:38.404Z</time>
      </trkpt>
      <trkpt lat="47.01909" lon="8.96243">
        <ele>856</ele>
        <time>2021-08-02T10:50:39.405Z</time>
      </trkpt>
      <trkpt lat="47.0191" lon="8.96243">
        <ele>856</ele>
        <time>2021-08-02T10:50:40.405Z</time>
      </trkpt>
      <trkpt lat="47.01911" lon="8.96242">
        <ele>857</ele>
        <time>2021-08-02T10:50:41.404Z</time>
      </trkpt>
      <trkpt lat="47.01911" lon="8.9624">
        <ele>857</ele>
        <time>2021-08-02T10:50:42.404Z</time>
      </trkpt>
      <trkpt lat="47.0191" lon="8.96239">
        <ele>856</ele>
        <time>2021-08-02T10:50:51.430Z</time>
      </trkpt>
      <trkpt lat="47.0191" lon="8.96238">
        <ele>856</ele>
        <time>2021-08-02T10:50:52.431Z</time>
      </trkpt>
      <trkpt lat="47.0191" lon="8.96237">
        <ele>856</ele>
        <time>2021-08-02T10:50:57.337Z</time>
      </trkpt>
      <trkpt lat="47.0191" lon="8.96236">
        <ele>855</ele>
        <time>2021-08-02T10:50:58.336Z</time>
      </trkpt>
      <trkpt lat="47.0191" lon="8.96236">
        <ele>855</ele>
        <time>2021-08-02T10:51:06.172Z</time>
      </trkpt>
      <trkpt lat="47.0191" lon="8.96236">
        <ele>855</ele>
        <time>2021-08-02T10:51:07.172Z</time>
      </trkpt>
      <trkpt lat="47.01911" lon="8.96235">
        <ele>854</ele>
        <time>2021-08-02T10:51:08.172Z</time>
      </trkpt>
      <trkpt lat="47.01911" lon="8.96235">
        <ele>854</ele>
        <time>2021-08-02T10:51:27.208Z</time>
      </trkpt>
      <trkpt lat="47.01911" lon="8.96234">
        <ele>853</ele>
        <time>2021-08-02T10:51:28.208Z</time>
      </trkpt>
      <trkpt lat="47.01911" lon="8.96233">
        <ele>853</ele>
        <time>2021-08-02T10:51:30.053Z</time>
      </trkpt>
      <trkpt lat="47.01911" lon="8.96232">
        <ele>852</ele>
        <time>2021-08-02T10:51:31.053Z</time>
      </trkpt>
      <trkpt lat="47.0191" lon="8.96231">
        <ele>852</ele>
        <time>2021-08-02T10:51:32.054Z</time>
      </trkpt>
      <trkpt lat="47.0191" lon="8.9623">
        <ele>852</ele>
        <time>2021-08-02T10:51:33.054Z</time>
      </trkpt>
      <trkpt lat="47.01911" lon="8.96228">
        <ele>852</ele>
        <time>2021-08-02T10:51:34.053Z</time>
      </trkpt>
      <trkpt lat="47.01911" lon="8.96226">
        <ele>851</ele>
        <time>2021-08-02T10:51:35.053Z</time>
      </trkpt>
      <trkpt lat="47.0191" lon="8.96224">
        <ele>850</ele>
        <time>2021-08-02T10:51:36.053Z</time>
      </trkpt>
      <trkpt lat="47.01911" lon="8.96223">
        <ele>850</ele>
        <time>2021-08-02T10:51:37.053Z</time>
      </trkpt>
      <trkpt lat="47.01911" lon="8.96222">
        <ele>850</ele>
        <time>2021-08-02T10:51:38.053Z</time>
      </trkpt>
      <trkpt lat="47.0191" lon="8.96221">
        <ele>850</ele>
        <time>2021-08-02T10:51:39.054Z</time>
      </trkpt>
      <trkpt lat="47.01911" lon="8.96219">
        <ele>850</ele>
        <time>2021-08-02T10:51:40.054Z</time>
      </trkpt>
      <trkpt lat="47.0191" lon="8.96218">
        <ele>849</ele>
        <time>2021-08-02T10:51:41.054Z</time>
      </trkpt>
      <trkpt lat="47.01909" lon="8.96217">
        <ele>849</ele>
        <time>2021-08-02T10:51:42.054Z</time>
      </trkpt>
      <trkpt lat="47.01908" lon="8.96215">
        <ele>849</ele>
        <time>2021-08-02T10:51:43.054Z</time>
      </trkpt>
      <trkpt lat="47.01908" lon="8.96214">
        <ele>848</ele>
        <time>2021-08-02T10:51:44.053Z</time>
      </trkpt>
      <trkpt lat="47.01907" lon="8.96212">
        <ele>848</ele>
        <time>2021-08-02T10:51:52.070Z</time>
      </trkpt>
      <trkpt lat="47.01907" lon="8.9621">
        <ele>848</ele>
        <time>2021-08-02T10:51:53.071Z</time>
      </trkpt>
      <trkpt lat="47.01906" lon="8.96209">
        <ele>847</ele>
        <time>2021-08-02T10:51:54.071Z</time>
      </trkpt>
      <trkpt lat="47.01906" lon="8.96208">
        <ele>847</ele>
        <time>2021-08-02T10:51:55.071Z</time>
      </trkpt>
      <trkpt lat="47.01907" lon="8.96207">
        <ele>847</ele>
        <time>2021-08-02T10:52:09.065Z</time>
      </trkpt>
      <trkpt lat="47.01907" lon="8.96207">
        <ele>847</ele>
        <time>2021-08-02T10:52:10.065Z</time>
      </trkpt>
      <trkpt lat="47.01907" lon="8.96206">
        <ele>847</ele>
        <time>2021-08-02T10:52:11.065Z</time>
      </trkpt>
      <trkpt lat="47.01906" lon="8.96207">
        <ele>848</ele>
        <time>2021-08-02T10:52:12.065Z</time>
      </trkpt>
      <trkpt lat="47.01906" lon="8.96207">
        <ele>848</ele>
        <time>2021-08-02T10:52:13.065Z</time>
      </trkpt>
      <trkpt lat="47.01908" lon="8.96206">
        <ele>848</ele>
        <time>2021-08-02T10:52:14.065Z</time>
      </trkpt>
      <trkpt lat="47.0191" lon="8.96205">
        <ele>849</ele>
        <time>2021-08-02T10:52:15.065Z</time>
      </trkpt>
      <trkpt lat="47.01911" lon="8.96204">
        <ele>849</ele>
        <time>2021-08-02T10:52:22.063Z</time>
      </trkpt>
      <trkpt lat="47.01911" lon="8.96202">
        <ele>850</ele>
        <time>2021-08-02T10:52:23.062Z</time>
      </trkpt>
      <trkpt lat="47.01911" lon="8.96201">
        <ele>850</ele>
        <time>2021-08-02T10:52:24.063Z</time>
      </trkpt>
      <trkpt lat="47.0191" lon="8.96199">
        <ele>851</ele>
        <time>2021-08-02T10:52:25.063Z</time>
      </trkpt>
      <trkpt lat="47.0191" lon="8.96198">
        <ele>851</ele>
        <time>2021-08-02T10:52:26.063Z</time>
      </trkpt>
      <trkpt lat="47.01911" lon="8.96197">
        <ele>852</ele>
        <time>2021-08-02T10:52:27.062Z</time>
      </trkpt>
      <trkpt lat="47.01911" lon="8.96197">
        <ele>852</ele>
        <time>2021-08-02T10:52:28.063Z</time>
      </trkpt>
      <trkpt lat="47.01911" lon="8.96196">
        <ele>852</ele>
        <time>2021-08-02T10:52:29.063Z</time>
      </trkpt>
      <trkpt lat="47.01911" lon="8.96196">
        <ele>852</ele>
        <time>2021-08-02T10:52:33.103Z</time>
      </trkpt>
      <trkpt lat="47.01912" lon="8.96196">
        <ele>852</ele>
        <time>2021-08-02T10:52:34.103Z</time>
      </trkpt>
      <trkpt lat="47.01912" lon="8.96195">
        <ele>852</ele>
        <time>2021-08-02T10:52:35.104Z</time>
      </trkpt>
      <trkpt lat="47.01912" lon="8.96194">
        <ele>851</ele>
        <time>2021-08-02T10:52:36.103Z</time>
      </trkpt>
      <trkpt lat="47.01912" lon="8.96194">
        <ele>851</ele>
        <time>2021-08-02T10:52:37.103Z</time>
      </trkpt>
      <trkpt lat="47.01909" lon="8.96191">
        <ele>851</ele>
        <time>2021-08-02T10:52:38.103Z</time>
      </trkpt>
      <trkpt lat="47.01908" lon="8.96192">
        <ele>851</ele>
        <time>2021-08-02T10:52:39.103Z</time>
      </trkpt>
      <trkpt lat="47.01908" lon="8.96192">
        <ele>851</ele>
        <time>2021-08-02T10:52:40.103Z</time>
      </trkpt>
      <trkpt lat="47.01908" lon="8.96191">
        <ele>853</ele>
        <time>2021-08-02T10:52:41.103Z</time>
      </trkpt>
      <trkpt lat="47.01906" lon="8.96197">
        <ele>852</ele>
        <time>2021-08-02T10:52:42.103Z</time>
      </trkpt>
      <trkpt lat="47.01906" lon="8.96198">
        <ele>852</ele>
        <time>2021-08-02T10:52:43.103Z</time>
      </trkpt>
      <trkpt lat="47.01907" lon="8.962">
        <ele>850</ele>
        <time>2021-08-02T10:52:44.103Z</time>
      </trkpt>
      <trkpt lat="47.01908" lon="8.96201">
        <ele>849</ele>
        <time>2021-08-02T10:52:45.103Z</time>
      </trkpt>
      <trkpt lat="47.01908" lon="8.96201">
        <ele>848</ele>
        <time>2021-08-02T10:52:46.104Z</time>
      </trkpt>
      <trkpt lat="47.01909" lon="8.96202">
        <ele>847</ele>
        <time>2021-08-02T10:52:47.103Z</time>
      </trkpt>
      <trkpt lat="47.0191" lon="8.96201">
        <ele>846</ele>
        <time>2021-08-02T10:52:53.062Z</time>
      </trkpt>
      <trkpt lat="47.01912" lon="8.962">
        <ele>846</ele>
        <time>2021-08-02T10:52:54.062Z</time>
      </trkpt>
      <trkpt lat="47.01912" lon="8.96199">
        <ele>846</ele>
        <time>2021-08-02T10:52:55.063Z</time>
      </trkpt>
      <trkpt lat="47.01913" lon="8.96197">
        <ele>846</ele>
        <time>2021-08-02T10:52:56.062Z</time>
      </trkpt>
      <trkpt lat="47.01914" lon="8.96196">
        <ele>846</ele>
        <time>2021-08-02T10:52:57.062Z</time>
      </trkpt>
      <trkpt lat="47.01914" lon="8.96195">
        <ele>845</ele>
        <time>2021-08-02T10:52:58.062Z</time>
      </trkpt>
      <trkpt lat="47.01914" lon="8.96193">
        <ele>845</ele>
        <time>2021-08-02T10:52:59.062Z</time>
      </trkpt>
      <trkpt lat="47.01914" lon="8.96192">
        <ele>845</ele>
        <time>2021-08-02T10:53:00.062Z</time>
      </trkpt>
      <trkpt lat="47.01915" lon="8.96191">
        <ele>845</ele>
        <time>2021-08-02T10:53:01.062Z</time>
      </trkpt>
      <trkpt lat="47.01915" lon="8.96189">
        <ele>845</ele>
        <time>2021-08-02T10:53:02.062Z</time>
      </trkpt>
      <trkpt lat="47.01915" lon="8.96188">
        <ele>845</ele>
        <time>2021-08-02T10:53:03.062Z</time>
      </trkpt>
      <trkpt lat="47.01915" lon="8.96188">
        <ele>845</ele>
        <time>2021-08-02T10:53:04.062Z</time>
      </trkpt>
      <trkpt lat="47.01915" lon="8.96185">
        <ele>846</ele>
        <time>2021-08-02T10:53:05.062Z</time>
      </trkpt>
      <trkpt lat="47.01915" lon="8.96184">
        <ele>846</ele>
        <time>2021-08-02T10:53:06.062Z</time>
      </trkpt>
      <trkpt lat="47.01915" lon="8.96182">
        <ele>846</ele>
        <time>2021-08-02T10:53:07.062Z</time>
      </trkpt>
      <trkpt lat="47.01915" lon="8.96181">
        <ele>847</ele>
        <time>2021-08-02T10:53:11.053Z</time>
      </trkpt>
      <trkpt lat="47.01915" lon="8.9618">
        <ele>847</ele>
        <time>2021-08-02T10:53:12.053Z</time>
      </trkpt>
      <trkpt lat="47.01914" lon="8.96178">
        <ele>847</ele>
        <time>2021-08-02T10:53:13.053Z</time>
      </trkpt>
      <trkpt lat="47.01914" lon="8.96178">
        <ele>848</ele>
        <time>2021-08-02T10:53:16.955Z</time>
      </trkpt>
      <trkpt lat="47.01914" lon="8.96177">
        <ele>848</ele>
        <time>2021-08-02T10:53:17.955Z</time>
      </trkpt>
      <trkpt lat="47.01914" lon="8.96176">
        <ele>849</ele>
        <time>2021-08-02T10:53:18.955Z</time>
      </trkpt>
      <trkpt lat="47.01915" lon="8.96176">
        <ele>850</ele>
        <time>2021-08-02T10:53:23.931Z</time>
      </trkpt>
      <trkpt lat="47.01915" lon="8.96176">
        <ele>850</ele>
        <time>2021-08-02T10:53:24.931Z</time>
      </trkpt>
      <trkpt lat="47.01916" lon="8.96176">
        <ele>851</ele>
        <time>2021-08-02T10:53:25.931Z</time>
      </trkpt>
      <trkpt lat="47.01915" lon="8.96174">
        <ele>851</ele>
        <time>2021-08-02T10:53:30.789Z</time>
      </trkpt>
      <trkpt lat="47.01914" lon="8.96171">
        <ele>851</ele>
        <time>2021-08-02T10:53:31.789Z</time>
      </trkpt>
      <trkpt lat="47.01914" lon="8.96164">
        <ele>852</ele>
        <time>2021-08-02T10:53:32.789Z</time>
      </trkpt>
      <trkpt lat="47.01914" lon="8.96164">
        <ele>853</ele>
        <time>2021-08-02T10:54:04.795Z</time>
      </trkpt>
      <trkpt lat="47.01914" lon="8.96165">
        <ele>853</ele>
        <time>2021-08-02T10:54:05.795Z</time>
      </trkpt>
      <trkpt lat="47.01914" lon="8.96166">
        <ele>853</ele>
        <time>2021-08-02T10:54:06.796Z</time>
      </trkpt>
      <trkpt lat="47.01914" lon="8.96166">
        <ele>853</ele>
        <time>2021-08-02T10:54:07.796Z</time>
      </trkpt>
      <trkpt lat="47.01914" lon="8.96166">
        <ele>853</ele>
        <time>2021-08-02T10:54:08.796Z</time>
      </trkpt>
      <trkpt lat="47.01913" lon="8.96166">
        <ele>852</ele>
        <time>2021-08-02T10:54:09.797Z</time>
      </trkpt>
      <trkpt lat="47.01913" lon="8.96166">
        <ele>853</ele>
        <time>2021-08-02T10:54:10.672Z</time>
      </trkpt>
      <trkpt lat="47.01912" lon="8.96165">
        <ele>853</ele>
        <time>2021-08-02T10:54:13.787Z</time>
      </trkpt>
      <trkpt lat="47.01911" lon="8.96164">
        <ele>853</ele>
        <time>2021-08-02T10:54:15.395Z</time>
      </trkpt>
      <trkpt lat="47.01912" lon="8.96164">
        <ele>854</ele>
        <time>2021-08-02T10:54:16.395Z</time>
      </trkpt>
      <trkpt lat="47.01914" lon="8.96165">
        <ele>856</ele>
        <time>2021-08-02T10:54:17.395Z</time>
      </trkpt>
      <trkpt lat="47.01915" lon="8.96164">
        <ele>857</ele>
        <time>2021-08-02T10:54:18.395Z</time>
      </trkpt>
      <trkpt lat="47.01915" lon="8.96164">
        <ele>857</ele>
        <time>2021-08-02T10:54:19.395Z</time>
      </trkpt>
      <trkpt lat="47.01916" lon="8.96163">
        <ele>857</ele>
        <time>2021-08-02T10:54:20.395Z</time>
      </trkpt>
      <trkpt lat="47.01916" lon="8.96162">
        <ele>858</ele>
        <time>2021-08-02T10:54:21.395Z</time>
      </trkpt>
      <trkpt lat="47.01916" lon="8.96162">
        <ele>858</ele>
        <time>2021-08-02T10:54:22.395Z</time>
      </trkpt>
      <trkpt lat="47.01916" lon="8.96161">
        <ele>859</ele>
        <time>2021-08-02T10:54:23.395Z</time>
      </trkpt>
      <trkpt lat="47.01916" lon="8.9616">
        <ele>859</ele>
        <time>2021-08-02T10:54:24.395Z</time>
      </trkpt>
      <trkpt lat="47.01915" lon="8.9616">
        <ele>859</ele>
        <time>2021-08-02T10:54:44.316Z</time>
      </trkpt>
      <trkpt lat="47.01915" lon="8.96159">
        <ele>859</ele>
        <time>2021-08-02T10:54:45.316Z</time>
      </trkpt>
      <trkpt lat="47.01915" lon="8.96158">
        <ele>859</ele>
        <time>2021-08-02T10:54:46.316Z</time>
      </trkpt>
      <trkpt lat="47.01916" lon="8.96157">
        <ele>859</ele>
        <time>2021-08-02T10:54:47.316Z</time>
      </trkpt>
      <trkpt lat="47.01917" lon="8.96156">
        <ele>859</ele>
        <time>2021-08-02T10:54:50.277Z</time>
      </trkpt>
      <trkpt lat="47.01919" lon="8.96155">
        <ele>859</ele>
        <time>2021-08-02T10:54:51.277Z</time>
      </trkpt>
      <trkpt lat="47.01919" lon="8.96155">
        <ele>858</ele>
        <time>2021-08-02T10:54:52.277Z</time>
      </trkpt>
      <trkpt lat="47.0192" lon="8.96154">
        <ele>858</ele>
        <time>2021-08-02T10:54:53.277Z</time>
      </trkpt>
      <trkpt lat="47.01921" lon="8.96153">
        <ele>858</ele>
        <time>2021-08-02T10:55:18.185Z</time>
      </trkpt>
      <trkpt lat="47.01921" lon="8.96152">
        <ele>858</ele>
        <time>2021-08-02T10:55:19.185Z</time>
      </trkpt>
      <trkpt lat="47.01921" lon="8.96151">
        <ele>858</ele>
        <time>2021-08-02T10:55:20.185Z</time>
      </trkpt>
      <trkpt lat="47.01921" lon="8.96149">
        <ele>858</ele>
        <time>2021-08-02T10:55:21.185Z</time>
      </trkpt>
      <trkpt lat="47.01921" lon="8.96148">
        <ele>858</ele>
        <time>2021-08-02T10:55:22.185Z</time>
      </trkpt>
      <trkpt lat="47.01921" lon="8.96147">
        <ele>858</ele>
        <time>2021-08-02T10:55:23.185Z</time>
      </trkpt>
      <trkpt lat="47.0192" lon="8.96147">
        <ele>858</ele>
        <time>2021-08-02T10:55:24.185Z</time>
      </trkpt>
      <trkpt lat="47.0192" lon="8.96146">
        <ele>858</ele>
        <time>2021-08-02T10:55:25.185Z</time>
      </trkpt>
      <trkpt lat="47.0192" lon="8.96145">
        <ele>858</ele>
        <time>2021-08-02T10:55:35.174Z</time>
      </trkpt>
      <trkpt lat="47.01919" lon="8.96143">
        <ele>858</ele>
        <time>2021-08-02T10:55:36.174Z</time>
      </trkpt>
      <trkpt lat="47.01919" lon="8.96141">
        <ele>858</ele>
        <time>2021-08-02T10:55:37.174Z</time>
      </trkpt>
      <trkpt lat="47.01919" lon="8.9614">
        <ele>858</ele>
        <time>2021-08-02T10:55:43.277Z</time>
      </trkpt>
      <trkpt lat="47.01919" lon="8.96138">
        <ele>858</ele>
        <time>2021-08-02T10:55:44.277Z</time>
      </trkpt>
      <trkpt lat="47.01919" lon="8.96136">
        <ele>858</ele>
        <time>2021-08-02T10:55:53.067Z</time>
      </trkpt>
      <trkpt lat="47.01918" lon="8.96135">
        <ele>858</ele>
        <time>2021-08-02T10:55:54.067Z</time>
      </trkpt>
      <trkpt lat="47.01918" lon="8.96134">
        <ele>857</ele>
        <time>2021-08-02T10:55:55.910Z</time>
      </trkpt>
      <trkpt lat="47.01918" lon="8.96133">
        <ele>857</ele>
        <time>2021-08-02T10:56:12.682Z</time>
      </trkpt>
      <trkpt lat="47.01918" lon="8.96132">
        <ele>857</ele>
        <time>2021-08-02T10:56:28.541Z</time>
      </trkpt>
      <trkpt lat="47.01917" lon="8.9613">
        <ele>857</ele>
        <time>2021-08-02T10:56:29.541Z</time>
      </trkpt>
      <trkpt lat="47.01916" lon="8.96129">
        <ele>857</ele>
        <time>2021-08-02T10:56:30.541Z</time>
      </trkpt>
      <trkpt lat="47.01916" lon="8.96128">
        <ele>857</ele>
        <time>2021-08-02T10:56:31.541Z</time>
      </trkpt>
      <trkpt lat="47.01915" lon="8.96126">
        <ele>857</ele>
        <time>2021-08-02T10:56:32.541Z</time>
      </trkpt>
      <trkpt lat="47.01915" lon="8.96126">
        <ele>857</ele>
        <time>2021-08-02T10:56:33.541Z</time>
      </trkpt>
      <trkpt lat="47.01915" lon="8.96124">
        <ele>857</ele>
        <time>2021-08-02T10:56:34.541Z</time>
      </trkpt>
      <trkpt lat="47.01914" lon="8.96124">
        <ele>857</ele>
        <time>2021-08-02T10:56:35.541Z</time>
      </trkpt>
      <trkpt lat="47.01913" lon="8.96123">
        <ele>857</ele>
        <time>2021-08-02T10:56:36.541Z</time>
      </trkpt>
      <trkpt lat="47.01913" lon="8.96122">
        <ele>858</ele>
        <time>2021-08-02T10:56:37.541Z</time>
      </trkpt>
      <trkpt lat="47.01912" lon="8.9612">
        <ele>858</ele>
        <time>2021-08-02T10:56:38.541Z</time>
      </trkpt>
      <trkpt lat="47.0191" lon="8.96118">
        <ele>858</ele>
        <time>2021-08-02T10:56:39.541Z</time>
      </trkpt>
      <trkpt lat="47.0191" lon="8.96116">
        <ele>858</ele>
        <time>2021-08-02T10:56:51.457Z</time>
      </trkpt>
      <trkpt lat="47.0191" lon="8.96114">
        <ele>858</ele>
        <time>2021-08-02T10:56:52.457Z</time>
      </trkpt>
      <trkpt lat="47.01909" lon="8.96111">
        <ele>858</ele>
        <time>2021-08-02T10:56:53.457Z</time>
      </trkpt>
      <trkpt lat="47.01908" lon="8.9611">
        <ele>859</ele>
        <time>2021-08-02T10:56:54.457Z</time>
      </trkpt>
      <trkpt lat="47.01908" lon="8.96109">
        <ele>859</ele>
        <time>2021-08-02T10:56:55.457Z</time>
      </trkpt>
      <trkpt lat="47.01907" lon="8.96108">
        <ele>859</ele>
        <time>2021-08-02T10:56:56.457Z</time>
      </trkpt>
      <trkpt lat="47.01906" lon="8.96107">
        <ele>859</ele>
        <time>2021-08-02T10:56:57.457Z</time>
      </trkpt>
      <trkpt lat="47.01905" lon="8.96106">
        <ele>859</ele>
        <time>2021-08-02T10:56:58.457Z</time>
      </trkpt>
      <trkpt lat="47.01905" lon="8.96106">
        <ele>859</ele>
        <time>2021-08-02T10:56:59.457Z</time>
      </trkpt>
      <trkpt lat="47.01905" lon="8.96106">
        <ele>859</ele>
        <time>2021-08-02T10:57:00.457Z</time>
      </trkpt>
      <trkpt lat="47.01906" lon="8.96105">
        <ele>859</ele>
        <time>2021-08-02T10:57:01.457Z</time>
      </trkpt>
      <trkpt lat="47.01907" lon="8.96104">
        <ele>859</ele>
        <time>2021-08-02T10:57:02.457Z</time>
      </trkpt>
      <trkpt lat="47.01907" lon="8.96103">
        <ele>859</ele>
        <time>2021-08-02T10:57:03.457Z</time>
      </trkpt>
      <trkpt lat="47.01907" lon="8.96102">
        <ele>859</ele>
        <time>2021-08-02T10:57:04.457Z</time>
      </trkpt>
      <trkpt lat="47.01908" lon="8.961">
        <ele>858</ele>
        <time>2021-08-02T10:57:05.457Z</time>
      </trkpt>
      <trkpt lat="47.01909" lon="8.96099">
        <ele>858</ele>
        <time>2021-08-02T10:57:08.328Z</time>
      </trkpt>
      <trkpt lat="47.01909" lon="8.96097">
        <ele>858</ele>
        <time>2021-08-02T10:57:24.224Z</time>
      </trkpt>
      <trkpt lat="47.0191" lon="8.96095">
        <ele>858</ele>
        <time>2021-08-02T10:57:25.224Z</time>
      </trkpt>
      <trkpt lat="47.0191" lon="8.96094">
        <ele>857</ele>
        <time>2021-08-02T10:57:26.224Z</time>
      </trkpt>
      <trkpt lat="47.0191" lon="8.96091">
        <ele>857</ele>
        <time>2021-08-02T10:57:27.224Z</time>
      </trkpt>
      <trkpt lat="47.01909" lon="8.96089">
        <ele>857</ele>
        <time>2021-08-02T10:57:31.206Z</time>
      </trkpt>
      <trkpt lat="47.01909" lon="8.96087">
        <ele>857</ele>
        <time>2021-08-02T10:57:32.206Z</time>
      </trkpt>
      <trkpt lat="47.0191" lon="8.96085">
        <ele>857</ele>
        <time>2021-08-02T10:57:33.206Z</time>
      </trkpt>
      <trkpt lat="47.01911" lon="8.96084">
        <ele>856</ele>
        <time>2021-08-02T10:57:53.341Z</time>
      </trkpt>
      <trkpt lat="47.01912" lon="8.96082">
        <ele>856</ele>
        <time>2021-08-02T10:57:54.341Z</time>
      </trkpt>
      <trkpt lat="47.01912" lon="8.9608">
        <ele>856</ele>
        <time>2021-08-02T10:58:03.161Z</time>
      </trkpt>
      <trkpt lat="47.01914" lon="8.96079">
        <ele>856</ele>
        <time>2021-08-02T10:58:04.161Z</time>
      </trkpt>
      <trkpt lat="47.01914" lon="8.96077">
        <ele>856</ele>
        <time>2021-08-02T10:58:05.161Z</time>
      </trkpt>
      <trkpt lat="47.01914" lon="8.96075">
        <ele>856</ele>
        <time>2021-08-02T10:58:21.911Z</time>
      </trkpt>
      <trkpt lat="47.01915" lon="8.96075">
        <ele>856</ele>
        <time>2021-08-02T10:58:22.911Z</time>
      </trkpt>
      <trkpt lat="47.01915" lon="8.96075">
        <ele>856</ele>
        <time>2021-08-02T10:58:39.020Z</time>
      </trkpt>
      <trkpt lat="47.01914" lon="8.96075">
        <ele>856</ele>
        <time>2021-08-02T10:58:40.021Z</time>
      </trkpt>
      <trkpt lat="47.01914" lon="8.96075">
        <ele>856</ele>
        <time>2021-08-02T10:58:41.022Z</time>
      </trkpt>
      <trkpt lat="47.01915" lon="8.96075">
        <ele>856</ele>
        <time>2021-08-02T10:58:52.765Z</time>
      </trkpt>
      <trkpt lat="47.01914" lon="8.96075">
        <ele>856</ele>
        <time>2021-08-02T10:58:53.766Z</time>
      </trkpt>
      <trkpt lat="47.01914" lon="8.96076">
        <ele>856</ele>
        <time>2021-08-02T10:58:58.522Z</time>
      </trkpt>
      <trkpt lat="47.01915" lon="8.96076">
        <ele>856</ele>
        <time>2021-08-02T10:58:59.522Z</time>
      </trkpt>
      <trkpt lat="47.01915" lon="8.96076">
        <ele>856</ele>
        <time>2021-08-02T10:59:00.523Z</time>
      </trkpt>
      <trkpt lat="47.01915" lon="8.96076">
        <ele>856</ele>
        <time>2021-08-02T10:59:01.522Z</time>
      </trkpt>
      <trkpt lat="47.01916" lon="8.96076">
        <ele>856</ele>
        <time>2021-08-02T10:59:02.522Z</time>
      </trkpt>
      <trkpt lat="47.01917" lon="8.96076">
        <ele>856</ele>
        <time>2021-08-02T10:59:03.523Z</time>
      </trkpt>
      <trkpt lat="47.01917" lon="8.96076">
        <ele>856</ele>
        <time>2021-08-02T10:59:04.523Z</time>
      </trkpt>
      <trkpt lat="47.01917" lon="8.96076">
        <ele>856</ele>
        <time>2021-08-02T10:59:09.529Z</time>
      </trkpt>
      <trkpt lat="47.01918" lon="8.96076">
        <ele>855</ele>
        <time>2021-08-02T10:59:10.530Z</time>
      </trkpt>
      <trkpt lat="47.01917" lon="8.96075">
        <ele>855</ele>
        <time>2021-08-02T10:59:11.530Z</time>
      </trkpt>
      <trkpt lat="47.01917" lon="8.96075">
        <ele>855</ele>
        <time>2021-08-02T10:59:12.529Z</time>
      </trkpt>
      <trkpt lat="47.01917" lon="8.96074">
        <ele>854</ele>
        <time>2021-08-02T10:59:20.653Z</time>
      </trkpt>
      <trkpt lat="47.01917" lon="8.96073">
        <ele>854</ele>
        <time>2021-08-02T10:59:21.653Z</time>
      </trkpt>
      <trkpt lat="47.01917" lon="8.96072">
        <ele>854</ele>
        <time>2021-08-02T10:59:29.393Z</time>
      </trkpt>
      <trkpt lat="47.01917" lon="8.9607">
        <ele>854</ele>
        <time>2021-08-02T10:59:32.136Z</time>
      </trkpt>
      <trkpt lat="47.01917" lon="8.96069">
        <ele>854</ele>
        <time>2021-08-02T10:59:33.135Z</time>
      </trkpt>
      <trkpt lat="47.01917" lon="8.96067">
        <ele>854</ele>
        <time>2021-08-02T10:59:34.909Z</time>
      </trkpt>
      <trkpt lat="47.01917" lon="8.96066">
        <ele>854</ele>
        <time>2021-08-02T10:59:35.910Z</time>
      </trkpt>
      <trkpt lat="47.01918" lon="8.96065">
        <ele>855</ele>
        <time>2021-08-02T10:59:38.033Z</time>
      </trkpt>
      <trkpt lat="47.01917" lon="8.96065">
        <ele>855</ele>
        <time>2021-08-02T10:59:39.034Z</time>
      </trkpt>
      <trkpt lat="47.01917" lon="8.96065">
        <ele>855</ele>
        <time>2021-08-02T10:59:40.034Z</time>
      </trkpt>
      <trkpt lat="47.01918" lon="8.96066">
        <ele>856</ele>
        <time>2021-08-02T10:59:41.034Z</time>
      </trkpt>
      <trkpt lat="47.01918" lon="8.96066">
        <ele>856</ele>
        <time>2021-08-02T10:59:42.035Z</time>
      </trkpt>
      <trkpt lat="47.01918" lon="8.96066">
        <ele>856</ele>
        <time>2021-08-02T10:59:52.033Z</time>
      </trkpt>
      <trkpt lat="47.01918" lon="8.96064">
        <ele>857</ele>
        <time>2021-08-02T10:59:53.034Z</time>
      </trkpt>
      <trkpt lat="47.01918" lon="8.96062">
        <ele>857</ele>
        <time>2021-08-02T10:59:54.034Z</time>
      </trkpt>
      <trkpt lat="47.01917" lon="8.96061">
        <ele>856</ele>
        <time>2021-08-02T11:00:07.197Z</time>
      </trkpt>
      <trkpt lat="47.01917" lon="8.9606">
        <ele>856</ele>
        <time>2021-08-02T11:00:08.197Z</time>
      </trkpt>
      <trkpt lat="47.01917" lon="8.9606">
        <ele>856</ele>
        <time>2021-08-02T11:00:09.197Z</time>
      </trkpt>
      <trkpt lat="47.01916" lon="8.96059">
        <ele>856</ele>
        <time>2021-08-02T11:00:10.198Z</time>
      </trkpt>
      <trkpt lat="47.01916" lon="8.96059">
        <ele>856</ele>
        <time>2021-08-02T11:00:11.198Z</time>
      </trkpt>
      <trkpt lat="47.01916" lon="8.9606">
        <ele>856</ele>
        <time>2021-08-02T11:00:12.197Z</time>
      </trkpt>
      <trkpt lat="47.01916" lon="8.96058">
        <ele>856</ele>
        <time>2021-08-02T11:00:13.199Z</time>
      </trkpt>
      <trkpt lat="47.01916" lon="8.96057">
        <ele>856</ele>
        <time>2021-08-02T11:00:14.199Z</time>
      </trkpt>
      <trkpt lat="47.01915" lon="8.96056">
        <ele>856</ele>
        <time>2021-08-02T11:00:21.278Z</time>
      </trkpt>
      <trkpt lat="47.01915" lon="8.96056">
        <ele>855</ele>
        <time>2021-08-02T11:00:38.165Z</time>
      </trkpt>
      <trkpt lat="47.01914" lon="8.96056">
        <ele>855</ele>
        <time>2021-08-02T11:00:52.050Z</time>
      </trkpt>
      <trkpt lat="47.01914" lon="8.96056">
        <ele>855</ele>
        <time>2021-08-02T11:00:53.050Z</time>
      </trkpt>
      <trkpt lat="47.01912" lon="8.96056">
        <ele>855</ele>
        <time>2021-08-02T11:00:54.051Z</time>
      </trkpt>
      <trkpt lat="47.01911" lon="8.96056">
        <ele>855</ele>
        <time>2021-08-02T11:00:55.051Z</time>
      </trkpt>
      <trkpt lat="47.01911" lon="8.96057">
        <ele>855</ele>
        <time>2021-08-02T11:01:11.173Z</time>
      </trkpt>
      <trkpt lat="47.0191" lon="8.96057">
        <ele>855</ele>
        <time>2021-08-02T11:01:12.174Z</time>
      </trkpt>
      <trkpt lat="47.0191" lon="8.96057">
        <ele>855</ele>
        <time>2021-08-02T11:01:13.173Z</time>
      </trkpt>
      <trkpt lat="47.01908" lon="8.96056">
        <ele>855</ele>
        <time>2021-08-02T11:01:14.174Z</time>
      </trkpt>
      <trkpt lat="47.01907" lon="8.96055">
        <ele>855</ele>
        <time>2021-08-02T11:01:20.296Z</time>
      </trkpt>
      <trkpt lat="47.01903" lon="8.96053">
        <ele>854</ele>
        <time>2021-08-02T11:01:21.296Z</time>
      </trkpt>
      <trkpt lat="47.01902" lon="8.96053">
        <ele>854</ele>
        <time>2021-08-02T11:01:22.296Z</time>
      </trkpt>
      <trkpt lat="47.01902" lon="8.96053">
        <ele>854</ele>
        <time>2021-08-02T11:01:23.297Z</time>
      </trkpt>
      <trkpt lat="47.01901" lon="8.96052">
        <ele>854</ele>
        <time>2021-08-02T11:01:24.297Z</time>
      </trkpt>
      <trkpt lat="47.01902" lon="8.96052">
        <ele>854</ele>
        <time>2021-08-02T11:01:25.297Z</time>
      </trkpt>
      <trkpt lat="47.01902" lon="8.96051">
        <ele>854</ele>
        <time>2021-08-02T11:01:26.297Z</time>
      </trkpt>
      <trkpt lat="47.01902" lon="8.9605">
        <ele>854</ele>
        <time>2021-08-02T11:01:27.297Z</time>
      </trkpt>
      <trkpt lat="47.01902" lon="8.96049">
        <ele>853</ele>
        <time>2021-08-02T11:01:28.297Z</time>
      </trkpt>
      <trkpt lat="47.01902" lon="8.96048">
        <ele>853</ele>
        <time>2021-08-02T11:01:29.297Z</time>
      </trkpt>
      <trkpt lat="47.01902" lon="8.96047">
        <ele>852</ele>
        <time>2021-08-02T11:01:33.387Z</time>
      </trkpt>
      <trkpt lat="47.01902" lon="8.96045">
        <ele>852</ele>
        <time>2021-08-02T11:01:46.137Z</time>
      </trkpt>
      <trkpt lat="47.01903" lon="8.96044">
        <ele>852</ele>
        <time>2021-08-02T11:01:47.137Z</time>
      </trkpt>
      <trkpt lat="47.01903" lon="8.96043">
        <ele>851</ele>
        <time>2021-08-02T11:01:48.137Z</time>
      </trkpt>
      <trkpt lat="47.01903" lon="8.96041">
        <ele>851</ele>
        <time>2021-08-02T11:01:49.137Z</time>
      </trkpt>
      <trkpt lat="47.01903" lon="8.9604">
        <ele>851</ele>
        <time>2021-08-02T11:01:50.137Z</time>
      </trkpt>
      <trkpt lat="47.01904" lon="8.96039">
        <ele>851</ele>
        <time>2021-08-02T11:01:51.137Z</time>
      </trkpt>
      <trkpt lat="47.01904" lon="8.96038">
        <ele>850</ele>
        <time>2021-08-02T11:02:33.175Z</time>
      </trkpt>
      <trkpt lat="47.01905" lon="8.96038">
        <ele>850</ele>
        <time>2021-08-02T11:02:34.175Z</time>
      </trkpt>
      <trkpt lat="47.01906" lon="8.96037">
        <ele>850</ele>
        <time>2021-08-02T11:02:44.024Z</time>
      </trkpt>
      <trkpt lat="47.01907" lon="8.96036">
        <ele>850</ele>
        <time>2021-08-02T11:02:45.025Z</time>
      </trkpt>
      <trkpt lat="47.01906" lon="8.96034">
        <ele>850</ele>
        <time>2021-08-02T11:02:46.024Z</time>
      </trkpt>
      <trkpt lat="47.01905" lon="8.96032">
        <ele>850</ele>
        <time>2021-08-02T11:02:57.011Z</time>
      </trkpt>
      <trkpt lat="47.01904" lon="8.96031">
        <ele>850</ele>
        <time>2021-08-02T11:02:58.011Z</time>
      </trkpt>
      <trkpt lat="47.01905" lon="8.96029">
        <ele>849</ele>
        <time>2021-08-02T11:02:59.011Z</time>
      </trkpt>
      <trkpt lat="47.01905" lon="8.96028">
        <ele>849</ele>
        <time>2021-08-02T11:03:00.011Z</time>
      </trkpt>
      <trkpt lat="47.01906" lon="8.96026">
        <ele>849</ele>
        <time>2021-08-02T11:03:01.011Z</time>
      </trkpt>
      <trkpt lat="47.01906" lon="8.96024">
        <ele>849</ele>
        <time>2021-08-02T11:03:07.065Z</time>
      </trkpt>
      <trkpt lat="47.01906" lon="8.96022">
        <ele>849</ele>
        <time>2021-08-02T11:03:08.066Z</time>
      </trkpt>
      <trkpt lat="47.01906" lon="8.9602">
        <ele>849</ele>
        <time>2021-08-02T11:03:09.065Z</time>
      </trkpt>
      <trkpt lat="47.01906" lon="8.96019">
        <ele>849</ele>
        <time>2021-08-02T11:03:12.138Z</time>
      </trkpt>
      <trkpt lat="47.01906" lon="8.96017">
        <ele>849</ele>
        <time>2021-08-02T11:03:13.138Z</time>
      </trkpt>
      <trkpt lat="47.01906" lon="8.96016">
        <ele>849</ele>
        <time>2021-08-02T11:03:14.137Z</time>
      </trkpt>
      <trkpt lat="47.01905" lon="8.96015">
        <ele>849</ele>
        <time>2021-08-02T11:03:18.899Z</time>
      </trkpt>
      <trkpt lat="47.01905" lon="8.96013">
        <ele>848</ele>
        <time>2021-08-02T11:03:21.627Z</time>
      </trkpt>
      <trkpt lat="47.01905" lon="8.96011">
        <ele>848</ele>
        <time>2021-08-02T11:03:22.628Z</time>
      </trkpt>
      <trkpt lat="47.01905" lon="8.9601">
        <ele>848</ele>
        <time>2021-08-02T11:03:23.627Z</time>
      </trkpt>
      <trkpt lat="47.01904" lon="8.96009">
        <ele>848</ele>
        <time>2021-08-02T11:03:25.632Z</time>
      </trkpt>
      <trkpt lat="47.01905" lon="8.96007">
        <ele>848</ele>
        <time>2021-08-02T11:03:26.631Z</time>
      </trkpt>
      <trkpt lat="47.01905" lon="8.96005">
        <ele>848</ele>
        <time>2021-08-02T11:03:38.507Z</time>
      </trkpt>
      <trkpt lat="47.01905" lon="8.96004">
        <ele>848</ele>
        <time>2021-08-02T11:03:39.507Z</time>
      </trkpt>
      <trkpt lat="47.01905" lon="8.96002">
        <ele>847</ele>
        <time>2021-08-02T11:03:40.507Z</time>
      </trkpt>
      <trkpt lat="47.01906" lon="8.96">
        <ele>847</ele>
        <time>2021-08-02T11:03:41.507Z</time>
      </trkpt>
      <trkpt lat="47.01906" lon="8.95999">
        <ele>847</ele>
        <time>2021-08-02T11:03:44.491Z</time>
      </trkpt>
      <trkpt lat="47.01907" lon="8.95997">
        <ele>847</ele>
        <time>2021-08-02T11:03:45.491Z</time>
      </trkpt>
      <trkpt lat="47.01907" lon="8.95996">
        <ele>846</ele>
        <time>2021-08-02T11:03:46.491Z</time>
      </trkpt>
      <trkpt lat="47.01906" lon="8.95994">
        <ele>847</ele>
        <time>2021-08-02T11:03:47.491Z</time>
      </trkpt>
      <trkpt lat="47.01906" lon="8.95993">
        <ele>847</ele>
        <time>2021-08-02T11:03:48.491Z</time>
      </trkpt>
      <trkpt lat="47.01907" lon="8.95991">
        <ele>847</ele>
        <time>2021-08-02T11:03:49.491Z</time>
      </trkpt>
      <trkpt lat="47.01907" lon="8.95989">
        <ele>847</ele>
        <time>2021-08-02T11:03:50.491Z</time>
      </trkpt>
      <trkpt lat="47.01907" lon="8.95988">
        <ele>847</ele>
        <time>2021-08-02T11:03:51.491Z</time>
      </trkpt>
      <trkpt lat="47.01907" lon="8.95986">
        <ele>848</ele>
        <time>2021-08-02T11:03:52.492Z</time>
      </trkpt>
      <trkpt lat="47.01906" lon="8.95984">
        <ele>848</ele>
        <time>2021-08-02T11:03:55.490Z</time>
      </trkpt>
      <trkpt lat="47.01907" lon="8.95982">
        <ele>848</ele>
        <time>2021-08-02T11:04:09.260Z</time>
      </trkpt>
      <trkpt lat="47.01907" lon="8.9598">
        <ele>848</ele>
        <time>2021-08-02T11:04:14.132Z</time>
      </trkpt>
      <trkpt lat="47.01906" lon="8.95978">
        <ele>848</ele>
        <time>2021-08-02T11:04:18.050Z</time>
      </trkpt>
      <trkpt lat="47.01907" lon="8.95976">
        <ele>848</ele>
        <time>2021-08-02T11:04:19.050Z</time>
      </trkpt>
      <trkpt lat="47.01907" lon="8.95975">
        <ele>848</ele>
        <time>2021-08-02T11:04:20.050Z</time>
      </trkpt>
      <trkpt lat="47.01905" lon="8.95972">
        <ele>848</ele>
        <time>2021-08-02T11:04:22.168Z</time>
      </trkpt>
      <trkpt lat="47.01905" lon="8.9597">
        <ele>848</ele>
        <time>2021-08-02T11:04:23.167Z</time>
      </trkpt>
      <trkpt lat="47.01905" lon="8.95969">
        <ele>849</ele>
        <time>2021-08-02T11:04:24.168Z</time>
      </trkpt>
      <trkpt lat="47.01908" lon="8.95967">
        <ele>849</ele>
        <time>2021-08-02T11:04:25.167Z</time>
      </trkpt>
      <trkpt lat="47.01909" lon="8.95966">
        <ele>849</ele>
        <time>2021-08-02T11:04:27.253Z</time>
      </trkpt>
      <trkpt lat="47.0191" lon="8.95964">
        <ele>849</ele>
        <time>2021-08-02T11:04:41.020Z</time>
      </trkpt>
      <trkpt lat="47.0191" lon="8.95963">
        <ele>849</ele>
        <time>2021-08-02T11:04:42.021Z</time>
      </trkpt>
      <trkpt lat="47.0191" lon="8.95961">
        <ele>850</ele>
        <time>2021-08-02T11:04:43.020Z</time>
      </trkpt>
      <trkpt lat="47.01911" lon="8.9596">
        <ele>850</ele>
        <time>2021-08-02T11:04:53.063Z</time>
      </trkpt>
      <trkpt lat="47.01911" lon="8.95958">
        <ele>850</ele>
        <time>2021-08-02T11:04:54.062Z</time>
      </trkpt>
      <trkpt lat="47.01911" lon="8.95957">
        <ele>850</ele>
        <time>2021-08-02T11:04:55.063Z</time>
      </trkpt>
      <trkpt lat="47.01911" lon="8.95956">
        <ele>850</ele>
        <time>2021-08-02T11:05:16.922Z</time>
      </trkpt>
      <trkpt lat="47.01911" lon="8.95954">
        <ele>850</ele>
        <time>2021-08-02T11:05:23.806Z</time>
      </trkpt>
      <trkpt lat="47.01911" lon="8.95953">
        <ele>850</ele>
        <time>2021-08-02T11:05:24.807Z</time>
      </trkpt>
      <trkpt lat="47.01911" lon="8.95951">
        <ele>850</ele>
        <time>2021-08-02T11:05:25.807Z</time>
      </trkpt>
      <trkpt lat="47.01909" lon="8.95949">
        <ele>850</ele>
        <time>2021-08-02T11:05:26.806Z</time>
      </trkpt>
      <trkpt lat="47.01909" lon="8.95947">
        <ele>850</ele>
        <time>2021-08-02T11:05:27.807Z</time>
      </trkpt>
      <trkpt lat="47.01908" lon="8.95945">
        <ele>850</ele>
        <time>2021-08-02T11:05:33.938Z</time>
      </trkpt>
      <trkpt lat="47.01908" lon="8.95943">
        <ele>850</ele>
        <time>2021-08-02T11:05:34.937Z</time>
      </trkpt>
      <trkpt lat="47.01907" lon="8.95942">
        <ele>849</ele>
        <time>2021-08-02T11:05:35.938Z</time>
      </trkpt>
      <trkpt lat="47.01907" lon="8.95941">
        <ele>849</ele>
        <time>2021-08-02T11:05:36.938Z</time>
      </trkpt>
      <trkpt lat="47.01907" lon="8.9594">
        <ele>849</ele>
        <time>2021-08-02T11:05:37.938Z</time>
      </trkpt>
      <trkpt lat="47.01908" lon="8.95938">
        <ele>849</ele>
        <time>2021-08-02T11:05:38.938Z</time>
      </trkpt>
      <trkpt lat="47.01907" lon="8.95936">
        <ele>849</ele>
        <time>2021-08-02T11:05:39.938Z</time>
      </trkpt>
      <trkpt lat="47.01905" lon="8.95933">
        <ele>849</ele>
        <time>2021-08-02T11:05:40.938Z</time>
      </trkpt>
      <trkpt lat="47.01904" lon="8.95932">
        <ele>850</ele>
        <time>2021-08-02T11:05:41.938Z</time>
      </trkpt>
      <trkpt lat="47.01903" lon="8.9593">
        <ele>849</ele>
        <time>2021-08-02T11:05:42.937Z</time>
      </trkpt>
      <trkpt lat="47.01903" lon="8.95928">
        <ele>849</ele>
        <time>2021-08-02T11:05:43.938Z</time>
      </trkpt>
      <trkpt lat="47.01904" lon="8.95927">
        <ele>849</ele>
        <time>2021-08-02T11:05:50.027Z</time>
      </trkpt>
      <trkpt lat="47.01903" lon="8.95925">
        <ele>849</ele>
        <time>2021-08-02T11:05:51.026Z</time>
      </trkpt>
      <trkpt lat="47.01904" lon="8.95924">
        <ele>849</ele>
        <time>2021-08-02T11:05:52.026Z</time>
      </trkpt>
      <trkpt lat="47.01905" lon="8.95922">
        <ele>849</ele>
        <time>2021-08-02T11:06:04.918Z</time>
      </trkpt>
      <trkpt lat="47.01905" lon="8.95921">
        <ele>849</ele>
        <time>2021-08-02T11:06:05.918Z</time>
      </trkpt>
      <trkpt lat="47.01905" lon="8.9592">
        <ele>850</ele>
        <time>2021-08-02T11:06:06.918Z</time>
      </trkpt>
      <trkpt lat="47.01905" lon="8.95919">
        <ele>850</ele>
        <time>2021-08-02T11:06:07.918Z</time>
      </trkpt>
      <trkpt lat="47.01904" lon="8.95918">
        <ele>850</ele>
        <time>2021-08-02T11:06:15.021Z</time>
      </trkpt>
      <trkpt lat="47.01904" lon="8.95917">
        <ele>850</ele>
        <time>2021-08-02T11:06:16.021Z</time>
      </trkpt>
      <trkpt lat="47.01905" lon="8.95916">
        <ele>850</ele>
        <time>2021-08-02T11:06:17.021Z</time>
      </trkpt>
      <trkpt lat="47.01906" lon="8.95915">
        <ele>850</ele>
        <time>2021-08-02T11:06:18.020Z</time>
      </trkpt>
      <trkpt lat="47.01906" lon="8.95913">
        <ele>850</ele>
        <time>2021-08-02T11:06:19.020Z</time>
      </trkpt>
      <trkpt lat="47.01907" lon="8.95912">
        <ele>850</ele>
        <time>2021-08-02T11:06:20.020Z</time>
      </trkpt>
      <trkpt lat="47.01907" lon="8.95911">
        <ele>850</ele>
        <time>2021-08-02T11:06:21.020Z</time>
      </trkpt>
      <trkpt lat="47.01907" lon="8.95909">
        <ele>850</ele>
        <time>2021-08-02T11:06:22.021Z</time>
      </trkpt>
      <trkpt lat="47.01908" lon="8.95908">
        <ele>850</ele>
        <time>2021-08-02T11:06:23.021Z</time>
      </trkpt>
      <trkpt lat="47.01909" lon="8.95906">
        <ele>850</ele>
        <time>2021-08-02T11:06:24.021Z</time>
      </trkpt>
      <trkpt lat="47.0191" lon="8.95905">
        <ele>850</ele>
        <time>2021-08-02T11:06:25.021Z</time>
      </trkpt>
      <trkpt lat="47.0191" lon="8.95903">
        <ele>850</ele>
        <time>2021-08-02T11:06:26.021Z</time>
      </trkpt>
      <trkpt lat="47.01911" lon="8.95902">
        <ele>849</ele>
        <time>2021-08-02T11:06:27.021Z</time>
      </trkpt>
      <trkpt lat="47.01911" lon="8.959">
        <ele>849</ele>
        <time>2021-08-02T11:06:28.020Z</time>
      </trkpt>
      <trkpt lat="47.01911" lon="8.95899">
        <ele>849</ele>
        <time>2021-08-02T11:06:29.020Z</time>
      </trkpt>
      <trkpt lat="47.01911" lon="8.95898">
        <ele>849</ele>
        <time>2021-08-02T11:06:30.020Z</time>
      </trkpt>
      <trkpt lat="47.01911" lon="8.95897">
        <ele>849</ele>
        <time>2021-08-02T11:06:31.020Z</time>
      </trkpt>
      <trkpt lat="47.01912" lon="8.95896">
        <ele>849</ele>
        <time>2021-08-02T11:06:32.020Z</time>
      </trkpt>
      <trkpt lat="47.01912" lon="8.95895">
        <ele>849</ele>
        <time>2021-08-02T11:06:33.021Z</time>
      </trkpt>
      <trkpt lat="47.01912" lon="8.95893">
        <ele>849</ele>
        <time>2021-08-02T11:06:34.020Z</time>
      </trkpt>
      <trkpt lat="47.01913" lon="8.95891">
        <ele>849</ele>
        <time>2021-08-02T11:06:35.020Z</time>
      </trkpt>
      <trkpt lat="47.01913" lon="8.95889">
        <ele>849</ele>
        <time>2021-08-02T11:06:36.020Z</time>
      </trkpt>
      <trkpt lat="47.01913" lon="8.95887">
        <ele>849</ele>
        <time>2021-08-02T11:06:37.021Z</time>
      </trkpt>
      <trkpt lat="47.01912" lon="8.95886">
        <ele>849</ele>
        <time>2021-08-02T11:06:38.021Z</time>
      </trkpt>
      <trkpt lat="47.01912" lon="8.95884">
        <ele>849</ele>
        <time>2021-08-02T11:06:39.020Z</time>
      </trkpt>
      <trkpt lat="47.01911" lon="8.95882">
        <ele>849</ele>
        <time>2021-08-02T11:06:40.021Z</time>
      </trkpt>
      <trkpt lat="47.0191" lon="8.9588">
        <ele>849</ele>
        <time>2021-08-02T11:06:41.021Z</time>
      </trkpt>
      <trkpt lat="47.01909" lon="8.95878">
        <ele>849</ele>
        <time>2021-08-02T11:06:42.020Z</time>
      </trkpt>
      <trkpt lat="47.01909" lon="8.95876">
        <ele>849</ele>
        <time>2021-08-02T11:06:43.021Z</time>
      </trkpt>
      <trkpt lat="47.01908" lon="8.95874">
        <ele>849</ele>
        <time>2021-08-02T11:06:44.021Z</time>
      </trkpt>
      <trkpt lat="47.01908" lon="8.95872">
        <ele>849</ele>
        <time>2021-08-02T11:06:45.021Z</time>
      </trkpt>
      <trkpt lat="47.01908" lon="8.95871">
        <ele>849</ele>
        <time>2021-08-02T11:06:46.020Z</time>
      </trkpt>
      <trkpt lat="47.01909" lon="8.9587">
        <ele>848</ele>
        <time>2021-08-02T11:06:49.046Z</time>
      </trkpt>
      <trkpt lat="47.0191" lon="8.95868">
        <ele>848</ele>
        <time>2021-08-02T11:06:50.046Z</time>
      </trkpt>
      <trkpt lat="47.01911" lon="8.95867">
        <ele>848</ele>
        <time>2021-08-02T11:06:51.046Z</time>
      </trkpt>
      <trkpt lat="47.01912" lon="8.95865">
        <ele>848</ele>
        <time>2021-08-02T11:06:52.045Z</time>
      </trkpt>
      <trkpt lat="47.01913" lon="8.95863">
        <ele>848</ele>
        <time>2021-08-02T11:06:53.045Z</time>
      </trkpt>
      <trkpt lat="47.01913" lon="8.95862">
        <ele>848</ele>
        <time>2021-08-02T11:06:54.046Z</time>
      </trkpt>
      <trkpt lat="47.01913" lon="8.9586">
        <ele>848</ele>
        <time>2021-08-02T11:06:55.045Z</time>
      </trkpt>
      <trkpt lat="47.01914" lon="8.95859">
        <ele>848</ele>
        <time>2021-08-02T11:06:56.046Z</time>
      </trkpt>
      <trkpt lat="47.01914" lon="8.95857">
        <ele>848</ele>
        <time>2021-08-02T11:06:57.045Z</time>
      </trkpt>
      <trkpt lat="47.01915" lon="8.95856">
        <ele>848</ele>
        <time>2021-08-02T11:06:58.046Z</time>
      </trkpt>
      <trkpt lat="47.01915" lon="8.95854">
        <ele>848</ele>
        <time>2021-08-02T11:06:59.046Z</time>
      </trkpt>
      <trkpt lat="47.01915" lon="8.95853">
        <ele>849</ele>
        <time>2021-08-02T11:07:00.046Z</time>
      </trkpt>
      <trkpt lat="47.01916" lon="8.95851">
        <ele>849</ele>
        <time>2021-08-02T11:07:01.045Z</time>
      </trkpt>
      <trkpt lat="47.01915" lon="8.9585">
        <ele>849</ele>
        <time>2021-08-02T11:07:02.046Z</time>
      </trkpt>
      <trkpt lat="47.01914" lon="8.95848">
        <ele>849</ele>
        <time>2021-08-02T11:07:03.046Z</time>
      </trkpt>
      <trkpt lat="47.01914" lon="8.95846">
        <ele>849</ele>
        <time>2021-08-02T11:07:04.046Z</time>
      </trkpt>
      <trkpt lat="47.01915" lon="8.95845">
        <ele>849</ele>
        <time>2021-08-02T11:07:05.045Z</time>
      </trkpt>
      <trkpt lat="47.01915" lon="8.95843">
        <ele>849</ele>
        <time>2021-08-02T11:07:06.046Z</time>
      </trkpt>
      <trkpt lat="47.01915" lon="8.95841">
        <ele>849</ele>
        <time>2021-08-02T11:07:07.046Z</time>
      </trkpt>
      <trkpt lat="47.01914" lon="8.95839">
        <ele>849</ele>
        <time>2021-08-02T11:07:08.046Z</time>
      </trkpt>
      <trkpt lat="47.01914" lon="8.95837">
        <ele>849</ele>
        <time>2021-08-02T11:07:09.046Z</time>
      </trkpt>
      <trkpt lat="47.01914" lon="8.95835">
        <ele>849</ele>
        <time>2021-08-02T11:07:10.045Z</time>
      </trkpt>
      <trkpt lat="47.01914" lon="8.95834">
        <ele>849</ele>
        <time>2021-08-02T11:07:11.046Z</time>
      </trkpt>
      <trkpt lat="47.01913" lon="8.95833">
        <ele>850</ele>
        <time>2021-08-02T11:07:12.045Z</time>
      </trkpt>
      <trkpt lat="47.01912" lon="8.95831">
        <ele>850</ele>
        <time>2021-08-02T11:07:13.046Z</time>
      </trkpt>
      <trkpt lat="47.01912" lon="8.95829">
        <ele>850</ele>
        <time>2021-08-02T11:07:14.045Z</time>
      </trkpt>
      <trkpt lat="47.01912" lon="8.95828">
        <ele>851</ele>
        <time>2021-08-02T11:07:15.045Z</time>
      </trkpt>
      <trkpt lat="47.01912" lon="8.95826">
        <ele>851</ele>
        <time>2021-08-02T11:07:16.046Z</time>
      </trkpt>
      <trkpt lat="47.01911" lon="8.95824">
        <ele>851</ele>
        <time>2021-08-02T11:07:17.045Z</time>
      </trkpt>
      <trkpt lat="47.01911" lon="8.95822">
        <ele>851</ele>
        <time>2021-08-02T11:07:18.045Z</time>
      </trkpt>
      <trkpt lat="47.0191" lon="8.9582">
        <ele>851</ele>
        <time>2021-08-02T11:07:19.046Z</time>
      </trkpt>
      <trkpt lat="47.01909" lon="8.95818">
        <ele>851</ele>
        <time>2021-08-02T11:07:20.045Z</time>
      </trkpt>
      <trkpt lat="47.01909" lon="8.95817">
        <ele>851</ele>
        <time>2021-08-02T11:07:21.046Z</time>
      </trkpt>
      <trkpt lat="47.01907" lon="8.95816">
        <ele>852</ele>
        <time>2021-08-02T11:07:22.046Z</time>
      </trkpt>
      <trkpt lat="47.01906" lon="8.95814">
        <ele>852</ele>
        <time>2021-08-02T11:07:23.046Z</time>
      </trkpt>
      <trkpt lat="47.01906" lon="8.95813">
        <ele>852</ele>
        <time>2021-08-02T11:07:24.046Z</time>
      </trkpt>
      <trkpt lat="47.01906" lon="8.95812">
        <ele>851</ele>
        <time>2021-08-02T11:07:25.046Z</time>
      </trkpt>
      <trkpt lat="47.01906" lon="8.95811">
        <ele>851</ele>
        <time>2021-08-02T11:07:26.045Z</time>
      </trkpt>
      <trkpt lat="47.01905" lon="8.95809">
        <ele>851</ele>
        <time>2021-08-02T11:07:27.045Z</time>
      </trkpt>
      <trkpt lat="47.01907" lon="8.95808">
        <ele>851</ele>
        <time>2021-08-02T11:07:28.045Z</time>
      </trkpt>
      <trkpt lat="47.01907" lon="8.95806">
        <ele>851</ele>
        <time>2021-08-02T11:07:29.045Z</time>
      </trkpt>
      <trkpt lat="47.01909" lon="8.95805">
        <ele>851</ele>
        <time>2021-08-02T11:07:30.046Z</time>
      </trkpt>
      <trkpt lat="47.0191" lon="8.95804">
        <ele>851</ele>
        <time>2021-08-02T11:07:31.045Z</time>
      </trkpt>
      <trkpt lat="47.01909" lon="8.95802">
        <ele>850</ele>
        <time>2021-08-02T11:07:32.046Z</time>
      </trkpt>
      <trkpt lat="47.01908" lon="8.95801">
        <ele>850</ele>
        <time>2021-08-02T11:07:33.046Z</time>
      </trkpt>
      <trkpt lat="47.01908" lon="8.958">
        <ele>850</ele>
        <time>2021-08-02T11:07:34.046Z</time>
      </trkpt>
      <trkpt lat="47.01908" lon="8.95798">
        <ele>850</ele>
        <time>2021-08-02T11:07:38.160Z</time>
      </trkpt>
      <trkpt lat="47.01908" lon="8.95797">
        <ele>850</ele>
        <time>2021-08-02T11:07:39.160Z</time>
      </trkpt>
      <trkpt lat="47.01907" lon="8.95795">
        <ele>851</ele>
        <time>2021-08-02T11:07:40.160Z</time>
      </trkpt>
      <trkpt lat="47.01906" lon="8.95794">
        <ele>851</ele>
        <time>2021-08-02T11:07:41.159Z</time>
      </trkpt>
      <trkpt lat="47.01906" lon="8.95793">
        <ele>851</ele>
        <time>2021-08-02T11:07:42.160Z</time>
      </trkpt>
      <trkpt lat="47.01906" lon="8.95791">
        <ele>851</ele>
        <time>2021-08-02T11:07:43.160Z</time>
      </trkpt>
      <trkpt lat="47.01905" lon="8.9579">
        <ele>851</ele>
        <time>2021-08-02T11:07:44.160Z</time>
      </trkpt>
      <trkpt lat="47.01903" lon="8.95788">
        <ele>851</ele>
        <time>2021-08-02T11:07:45.160Z</time>
      </trkpt>
      <trkpt lat="47.01902" lon="8.95787">
        <ele>851</ele>
        <time>2021-08-02T11:07:46.160Z</time>
      </trkpt>
      <trkpt lat="47.01902" lon="8.95785">
        <ele>850</ele>
        <time>2021-08-02T11:07:47.159Z</time>
      </trkpt>
      <trkpt lat="47.01903" lon="8.95783">
        <ele>850</ele>
        <time>2021-08-02T11:07:48.160Z</time>
      </trkpt>
      <trkpt lat="47.01903" lon="8.95782">
        <ele>850</ele>
        <time>2021-08-02T11:07:49.160Z</time>
      </trkpt>
      <trkpt lat="47.01904" lon="8.9578">
        <ele>850</ele>
        <time>2021-08-02T11:07:50.159Z</time>
      </trkpt>
      <trkpt lat="47.01904" lon="8.95779">
        <ele>850</ele>
        <time>2021-08-02T11:07:51.160Z</time>
      </trkpt>
      <trkpt lat="47.01904" lon="8.95777">
        <ele>850</ele>
        <time>2021-08-02T11:07:52.160Z</time>
      </trkpt>
      <trkpt lat="47.01904" lon="8.95775">
        <ele>850</ele>
        <time>2021-08-02T11:07:53.160Z</time>
      </trkpt>
      <trkpt lat="47.01903" lon="8.95773">
        <ele>851</ele>
        <time>2021-08-02T11:07:54.160Z</time>
      </trkpt>
      <trkpt lat="47.01902" lon="8.95772">
        <ele>851</ele>
        <time>2021-08-02T11:07:55.160Z</time>
      </trkpt>
      <trkpt lat="47.01901" lon="8.95771">
        <ele>851</ele>
        <time>2021-08-02T11:07:56.160Z</time>
      </trkpt>
      <trkpt lat="47.019" lon="8.9577">
        <ele>852</ele>
        <time>2021-08-02T11:07:57.160Z</time>
      </trkpt>
      <trkpt lat="47.019" lon="8.95768">
        <ele>852</ele>
        <time>2021-08-02T11:07:58.159Z</time>
      </trkpt>
      <trkpt lat="47.019" lon="8.95768">
        <ele>852</ele>
        <time>2021-08-02T11:07:59.159Z</time>
      </trkpt>
      <trkpt lat="47.01899" lon="8.95766">
        <ele>852</ele>
        <time>2021-08-02T11:08:00.160Z</time>
      </trkpt>
      <trkpt lat="47.01899" lon="8.95765">
        <ele>853</ele>
        <time>2021-08-02T11:08:01.160Z</time>
      </trkpt>
      <trkpt lat="47.01898" lon="8.95765">
        <ele>853</ele>
        <time>2021-08-02T11:08:02.159Z</time>
      </trkpt>
      <trkpt lat="47.01897" lon="8.95764">
        <ele>852</ele>
        <time>2021-08-02T11:08:03.160Z</time>
      </trkpt>
      <trkpt lat="47.01897" lon="8.95763">
        <ele>852</ele>
        <time>2021-08-02T11:08:04.160Z</time>
      </trkpt>
      <trkpt lat="47.01896" lon="8.95762">
        <ele>851</ele>
        <time>2021-08-02T11:08:05.160Z</time>
      </trkpt>
      <trkpt lat="47.01896" lon="8.95761">
        <ele>850</ele>
        <time>2021-08-02T11:08:06.160Z</time>
      </trkpt>
      <trkpt lat="47.01896" lon="8.9576">
        <ele>850</ele>
        <time>2021-08-02T11:08:07.159Z</time>
      </trkpt>
      <trkpt lat="47.01897" lon="8.95759">
        <ele>849</ele>
        <time>2021-08-02T11:08:08.159Z</time>
      </trkpt>
      <trkpt lat="47.01898" lon="8.95758">
        <ele>849</ele>
        <time>2021-08-02T11:08:09.160Z</time>
      </trkpt>
      <trkpt lat="47.01898" lon="8.95757">
        <ele>849</ele>
        <time>2021-08-02T11:08:10.160Z</time>
      </trkpt>
      <trkpt lat="47.01899" lon="8.95756">
        <ele>848</ele>
        <time>2021-08-02T11:08:11.159Z</time>
      </trkpt>
      <trkpt lat="47.01899" lon="8.95755">
        <ele>848</ele>
        <time>2021-08-02T11:08:12.160Z</time>
      </trkpt>
      <trkpt lat="47.019" lon="8.95753">
        <ele>848</ele>
        <time>2021-08-02T11:08:13.160Z</time>
      </trkpt>
      <trkpt lat="47.019" lon="8.95752">
        <ele>848</ele>
        <time>2021-08-02T11:08:14.160Z</time>
      </trkpt>
      <trkpt lat="47.019" lon="8.95751">
        <ele>848</ele>
        <time>2021-08-02T11:08:15.160Z</time>
      </trkpt>
      <trkpt lat="47.019" lon="8.9575">
        <ele>848</ele>
        <time>2021-08-02T11:08:16.160Z</time>
      </trkpt>
      <trkpt lat="47.01901" lon="8.95749">
        <ele>848</ele>
        <time>2021-08-02T11:08:17.159Z</time>
      </trkpt>
      <trkpt lat="47.01901" lon="8.95748">
        <ele>848</ele>
        <time>2021-08-02T11:08:18.160Z</time>
      </trkpt>
      <trkpt lat="47.01902" lon="8.95747">
        <ele>848</ele>
        <time>2021-08-02T11:08:19.159Z</time>
      </trkpt>
      <trkpt lat="47.01902" lon="8.95746">
        <ele>849</ele>
        <time>2021-08-02T11:08:20.159Z</time>
      </trkpt>
      <trkpt lat="47.01902" lon="8.95745">
        <ele>849</ele>
        <time>2021-08-02T11:08:21.160Z</time>
      </trkpt>
      <trkpt lat="47.019" lon="8.95744">
        <ele>849</ele>
        <time>2021-08-02T11:08:22.159Z</time>
      </trkpt>
      <trkpt lat="47.01899" lon="8.95742">
        <ele>849</ele>
        <time>2021-08-02T11:08:23.160Z</time>
      </trkpt>
      <trkpt lat="47.01898" lon="8.95741">
        <ele>849</ele>
        <time>2021-08-02T11:08:24.160Z</time>
      </trkpt>
      <trkpt lat="47.01898" lon="8.95739">
        <ele>850</ele>
        <time>2021-08-02T11:08:25.160Z</time>
      </trkpt>
      <trkpt lat="47.01898" lon="8.95737">
        <ele>850</ele>
        <time>2021-08-02T11:08:26.160Z</time>
      </trkpt>
      <trkpt lat="47.01899" lon="8.95736">
        <ele>850</ele>
        <time>2021-08-02T11:08:27.160Z</time>
      </trkpt>
      <trkpt lat="47.01899" lon="8.95734">
        <ele>850</ele>
        <time>2021-08-02T11:08:28.160Z</time>
      </trkpt>
      <trkpt lat="47.01901" lon="8.95732">
        <ele>850</ele>
        <time>2021-08-02T11:08:29.160Z</time>
      </trkpt>
      <trkpt lat="47.01901" lon="8.95731">
        <ele>851</ele>
        <time>2021-08-02T11:08:30.160Z</time>
      </trkpt>
      <trkpt lat="47.01902" lon="8.95729">
        <ele>851</ele>
        <time>2021-08-02T11:08:31.160Z</time>
      </trkpt>
      <trkpt lat="47.01902" lon="8.95728">
        <ele>851</ele>
        <time>2021-08-02T11:08:32.160Z</time>
      </trkpt>
      <trkpt lat="47.01902" lon="8.95726">
        <ele>851</ele>
        <time>2021-08-02T11:08:33.159Z</time>
      </trkpt>
      <trkpt lat="47.01903" lon="8.95724">
        <ele>851</ele>
        <time>2021-08-02T11:08:34.160Z</time>
      </trkpt>
      <trkpt lat="47.01903" lon="8.95722">
        <ele>851</ele>
        <time>2021-08-02T11:08:35.160Z</time>
      </trkpt>
      <trkpt lat="47.01903" lon="8.95721">
        <ele>851</ele>
        <time>2021-08-02T11:08:36.160Z</time>
      </trkpt>
      <trkpt lat="47.01903" lon="8.9572">
        <ele>851</ele>
        <time>2021-08-02T11:08:37.160Z</time>
      </trkpt>
      <trkpt lat="47.01903" lon="8.95719">
        <ele>851</ele>
        <time>2021-08-02T11:08:38.160Z</time>
      </trkpt>
      <trkpt lat="47.01903" lon="8.95717">
        <ele>851</ele>
        <time>2021-08-02T11:08:39.160Z</time>
      </trkpt>
      <trkpt lat="47.01903" lon="8.95715">
        <ele>851</ele>
        <time>2021-08-02T11:08:40.159Z</time>
      </trkpt>
      <trkpt lat="47.01903" lon="8.95713">
        <ele>850</ele>
        <time>2021-08-02T11:08:41.159Z</time>
      </trkpt>
      <trkpt lat="47.01904" lon="8.95711">
        <ele>850</ele>
        <time>2021-08-02T11:08:42.160Z</time>
      </trkpt>
      <trkpt lat="47.01905" lon="8.9571">
        <ele>850</ele>
        <time>2021-08-02T11:08:43.160Z</time>
      </trkpt>
      <trkpt lat="47.01904" lon="8.95708">
        <ele>849</ele>
        <time>2021-08-02T11:08:44.159Z</time>
      </trkpt>
      <trkpt lat="47.01904" lon="8.95707">
        <ele>849</ele>
        <time>2021-08-02T11:08:45.160Z</time>
      </trkpt>
      <trkpt lat="47.01904" lon="8.95706">
        <ele>848</ele>
        <time>2021-08-02T11:08:46.159Z</time>
      </trkpt>
      <trkpt lat="47.01904" lon="8.95705">
        <ele>848</ele>
        <time>2021-08-02T11:08:47.160Z</time>
      </trkpt>
      <trkpt lat="47.01903" lon="8.95703">
        <ele>848</ele>
        <time>2021-08-02T11:08:48.160Z</time>
      </trkpt>
      <trkpt lat="47.01903" lon="8.95702">
        <ele>847</ele>
        <time>2021-08-02T11:08:49.160Z</time>
      </trkpt>
      <trkpt lat="47.01903" lon="8.957">
        <ele>847</ele>
        <time>2021-08-02T11:08:50.159Z</time>
      </trkpt>
      <trkpt lat="47.01903" lon="8.95699">
        <ele>847</ele>
        <time>2021-08-02T11:08:51.159Z</time>
      </trkpt>
      <trkpt lat="47.01902" lon="8.95698">
        <ele>847</ele>
        <time>2021-08-02T11:08:52.160Z</time>
      </trkpt>
      <trkpt lat="47.01901" lon="8.95696">
        <ele>848</ele>
        <time>2021-08-02T11:08:53.160Z</time>
      </trkpt>
      <trkpt lat="47.019" lon="8.95695">
        <ele>848</ele>
        <time>2021-08-02T11:08:54.160Z</time>
      </trkpt>
      <trkpt lat="47.01899" lon="8.95694">
        <ele>848</ele>
        <time>2021-08-02T11:08:55.160Z</time>
      </trkpt>
      <trkpt lat="47.01899" lon="8.95693">
        <ele>848</ele>
        <time>2021-08-02T11:08:56.160Z</time>
      </trkpt>
      <trkpt lat="47.019" lon="8.95691">
        <ele>848</ele>
        <time>2021-08-02T11:08:57.160Z</time>
      </trkpt>
      <trkpt lat="47.019" lon="8.9569">
        <ele>848</ele>
        <time>2021-08-02T11:08:58.159Z</time>
      </trkpt>
      <trkpt lat="47.01902" lon="8.95688">
        <ele>848</ele>
        <time>2021-08-02T11:08:59.160Z</time>
      </trkpt>
      <trkpt lat="47.01903" lon="8.95687">
        <ele>848</ele>
        <time>2021-08-02T11:09:00.159Z</time>
      </trkpt>
      <trkpt lat="47.01903" lon="8.95685">
        <ele>848</ele>
        <time>2021-08-02T11:09:01.160Z</time>
      </trkpt>
      <trkpt lat="47.01904" lon="8.95684">
        <ele>848</ele>
        <time>2021-08-02T11:09:02.159Z</time>
      </trkpt>
      <trkpt lat="47.01904" lon="8.95683">
        <ele>848</ele>
        <time>2021-08-02T11:09:03.160Z</time>
      </trkpt>
      <trkpt lat="47.01905" lon="8.95681">
        <ele>848</ele>
        <time>2021-08-02T11:09:04.160Z</time>
      </trkpt>
      <trkpt lat="47.01905" lon="8.95679">
        <ele>848</ele>
        <time>2021-08-02T11:09:05.159Z</time>
      </trkpt>
      <trkpt lat="47.01906" lon="8.95678">
        <ele>848</ele>
        <time>2021-08-02T11:09:06.160Z</time>
      </trkpt>
      <trkpt lat="47.01906" lon="8.95677">
        <ele>848</ele>
        <time>2021-08-02T11:09:07.160Z</time>
      </trkpt>
      <trkpt lat="47.01905" lon="8.95675">
        <ele>848</ele>
        <time>2021-08-02T11:09:08.160Z</time>
      </trkpt>
      <trkpt lat="47.01903" lon="8.95674">
        <ele>848</ele>
        <time>2021-08-02T11:09:09.159Z</time>
      </trkpt>
      <trkpt lat="47.01903" lon="8.95673">
        <ele>847</ele>
        <time>2021-08-02T11:09:10.159Z</time>
      </trkpt>
      <trkpt lat="47.01902" lon="8.95672">
        <ele>847</ele>
        <time>2021-08-02T11:09:11.160Z</time>
      </trkpt>
      <trkpt lat="47.01902" lon="8.95671">
        <ele>847</ele>
        <time>2021-08-02T11:09:12.159Z</time>
      </trkpt>
      <trkpt lat="47.01903" lon="8.9567">
        <ele>846</ele>
        <time>2021-08-02T11:09:13.159Z</time>
      </trkpt>
      <trkpt lat="47.01903" lon="8.95669">
        <ele>846</ele>
        <time>2021-08-02T11:09:14.159Z</time>
      </trkpt>
      <trkpt lat="47.01905" lon="8.95668">
        <ele>846</ele>
        <time>2021-08-02T11:09:15.160Z</time>
      </trkpt>
      <trkpt lat="47.01905" lon="8.95667">
        <ele>846</ele>
        <time>2021-08-02T11:09:16.160Z</time>
      </trkpt>
      <trkpt lat="47.01905" lon="8.95666">
        <ele>846</ele>
        <time>2021-08-02T11:09:17.160Z</time>
      </trkpt>
      <trkpt lat="47.01905" lon="8.95665">
        <ele>845</ele>
        <time>2021-08-02T11:09:18.160Z</time>
      </trkpt>
      <trkpt lat="47.01905" lon="8.95664">
        <ele>845</ele>
        <time>2021-08-02T11:09:19.160Z</time>
      </trkpt>
      <trkpt lat="47.01906" lon="8.95662">
        <ele>845</ele>
        <time>2021-08-02T11:09:20.160Z</time>
      </trkpt>
      <trkpt lat="47.01906" lon="8.95661">
        <ele>844</ele>
        <time>2021-08-02T11:09:21.160Z</time>
      </trkpt>
      <trkpt lat="47.01907" lon="8.95659">
        <ele>844</ele>
        <time>2021-08-02T11:09:22.160Z</time>
      </trkpt>
      <trkpt lat="47.01908" lon="8.95658">
        <ele>844</ele>
        <time>2021-08-02T11:09:23.160Z</time>
      </trkpt>
      <trkpt lat="47.01909" lon="8.95656">
        <ele>845</ele>
        <time>2021-08-02T11:09:24.160Z</time>
      </trkpt>
      <trkpt lat="47.01909" lon="8.95655">
        <ele>845</ele>
        <time>2021-08-02T11:09:25.159Z</time>
      </trkpt>
      <trkpt lat="47.0191" lon="8.95654">
        <ele>845</ele>
        <time>2021-08-02T11:09:26.160Z</time>
      </trkpt>
      <trkpt lat="47.01911" lon="8.95652">
        <ele>845</ele>
        <time>2021-08-02T11:09:27.159Z</time>
      </trkpt>
      <trkpt lat="47.01911" lon="8.95651">
        <ele>845</ele>
        <time>2021-08-02T11:09:28.160Z</time>
      </trkpt>
      <trkpt lat="47.01912" lon="8.95649">
        <ele>845</ele>
        <time>2021-08-02T11:09:29.160Z</time>
      </trkpt>
      <trkpt lat="47.01912" lon="8.95648">
        <ele>846</ele>
        <time>2021-08-02T11:09:30.160Z</time>
      </trkpt>
      <trkpt lat="47.01913" lon="8.95646">
        <ele>846</ele>
        <time>2021-08-02T11:09:31.160Z</time>
      </trkpt>
      <trkpt lat="47.01913" lon="8.95645">
        <ele>846</ele>
        <time>2021-08-02T11:09:32.160Z</time>
      </trkpt>
      <trkpt lat="47.01913" lon="8.95643">
        <ele>846</ele>
        <time>2021-08-02T11:09:33.159Z</time>
      </trkpt>
      <trkpt lat="47.01914" lon="8.95642">
        <ele>846</ele>
        <time>2021-08-02T11:09:34.160Z</time>
      </trkpt>
      <trkpt lat="47.01914" lon="8.9564">
        <ele>846</ele>
        <time>2021-08-02T11:09:35.160Z</time>
      </trkpt>
      <trkpt lat="47.01916" lon="8.95639">
        <ele>847</ele>
        <time>2021-08-02T11:09:36.160Z</time>
      </trkpt>
      <trkpt lat="47.01917" lon="8.95638">
        <ele>848</ele>
        <time>2021-08-02T11:09:37.159Z</time>
      </trkpt>
      <trkpt lat="47.01918" lon="8.95635">
        <ele>848</ele>
        <time>2021-08-02T11:09:38.160Z</time>
      </trkpt>
      <trkpt lat="47.01919" lon="8.95634">
        <ele>849</ele>
        <time>2021-08-02T11:09:39.159Z</time>
      </trkpt>
      <trkpt lat="47.01919" lon="8.95631">
        <ele>849</ele>
        <time>2021-08-02T11:09:40.160Z</time>
      </trkpt>
      <trkpt lat="47.01919" lon="8.9563">
        <ele>849</ele>
        <time>2021-08-02T11:09:41.159Z</time>
      </trkpt>
      <trkpt lat="47.01919" lon="8.95628">
        <ele>850</ele>
        <time>2021-08-02T11:09:42.160Z</time>
      </trkpt>
      <trkpt lat="47.01919" lon="8.95627">
        <ele>850</ele>
        <time>2021-08-02T11:09:43.159Z</time>
      </trkpt>
      <trkpt lat="47.01919" lon="8.95626">
        <ele>850</ele>
        <time>2021-08-02T11:09:44.160Z</time>
      </trkpt>
      <trkpt lat="47.01918" lon="8.95624">
        <ele>850</ele>
        <time>2021-08-02T11:09:45.159Z</time>
      </trkpt>
      <trkpt lat="47.01918" lon="8.95623">
        <ele>850</ele>
        <time>2021-08-02T11:09:46.160Z</time>
      </trkpt>
      <trkpt lat="47.01918" lon="8.95621">
        <ele>850</ele>
        <time>2021-08-02T11:09:47.159Z</time>
      </trkpt>
      <trkpt lat="47.01918" lon="8.9562">
        <ele>850</ele>
        <time>2021-08-02T11:09:48.159Z</time>
      </trkpt>
      <trkpt lat="47.01918" lon="8.95618">
        <ele>849</ele>
        <time>2021-08-02T11:09:49.160Z</time>
      </trkpt>
      <trkpt lat="47.01918" lon="8.95617">
        <ele>849</ele>
        <time>2021-08-02T11:09:50.159Z</time>
      </trkpt>
      <trkpt lat="47.01918" lon="8.95615">
        <ele>849</ele>
        <time>2021-08-02T11:09:51.159Z</time>
      </trkpt>
      <trkpt lat="47.01919" lon="8.95614">
        <ele>849</ele>
        <time>2021-08-02T11:09:52.160Z</time>
      </trkpt>
      <trkpt lat="47.0192" lon="8.95612">
        <ele>848</ele>
        <time>2021-08-02T11:09:53.159Z</time>
      </trkpt>
      <trkpt lat="47.01922" lon="8.9561">
        <ele>848</ele>
        <time>2021-08-02T11:09:54.159Z</time>
      </trkpt>
      <trkpt lat="47.01923" lon="8.95609">
        <ele>848</ele>
        <time>2021-08-02T11:09:58.267Z</time>
      </trkpt>
      <trkpt lat="47.01924" lon="8.95607">
        <ele>848</ele>
        <time>2021-08-02T11:09:59.267Z</time>
      </trkpt>
      <trkpt lat="47.01925" lon="8.95606">
        <ele>848</ele>
        <time>2021-08-02T11:10:00.267Z</time>
      </trkpt>
      <trkpt lat="47.01926" lon="8.95604">
        <ele>847</ele>
        <time>2021-08-02T11:10:01.267Z</time>
      </trkpt>
      <trkpt lat="47.01925" lon="8.95602">
        <ele>847</ele>
        <time>2021-08-02T11:10:02.268Z</time>
      </trkpt>
      <trkpt lat="47.01925" lon="8.956">
        <ele>847</ele>
        <time>2021-08-02T11:10:03.267Z</time>
      </trkpt>
      <trkpt lat="47.01926" lon="8.95599">
        <ele>847</ele>
        <time>2021-08-02T11:10:04.267Z</time>
      </trkpt>
      <trkpt lat="47.01925" lon="8.95597">
        <ele>847</ele>
        <time>2021-08-02T11:10:05.267Z</time>
      </trkpt>
      <trkpt lat="47.01924" lon="8.95595">
        <ele>847</ele>
        <time>2021-08-02T11:10:06.268Z</time>
      </trkpt>
      <trkpt lat="47.01924" lon="8.95593">
        <ele>847</ele>
        <time>2021-08-02T11:10:07.267Z</time>
      </trkpt>
      <trkpt lat="47.01924" lon="8.95592">
        <ele>847</ele>
        <time>2021-08-02T11:10:08.267Z</time>
      </trkpt>
      <trkpt lat="47.01924" lon="8.9559">
        <ele>847</ele>
        <time>2021-08-02T11:10:09.267Z</time>
      </trkpt>
      <trkpt lat="47.01925" lon="8.95589">
        <ele>847</ele>
        <time>2021-08-02T11:10:10.267Z</time>
      </trkpt>
      <trkpt lat="47.01925" lon="8.95587">
        <ele>847</ele>
        <time>2021-08-02T11:10:11.267Z</time>
      </trkpt>
      <trkpt lat="47.01924" lon="8.95585">
        <ele>847</ele>
        <time>2021-08-02T11:10:12.267Z</time>
      </trkpt>
      <trkpt lat="47.01926" lon="8.95584">
        <ele>847</ele>
        <time>2021-08-02T11:10:13.267Z</time>
      </trkpt>
      <trkpt lat="47.01927" lon="8.95583">
        <ele>848</ele>
        <time>2021-08-02T11:10:14.267Z</time>
      </trkpt>
      <trkpt lat="47.01927" lon="8.95581">
        <ele>848</ele>
        <time>2021-08-02T11:10:15.267Z</time>
      </trkpt>
      <trkpt lat="47.01926" lon="8.95579">
        <ele>848</ele>
        <time>2021-08-02T11:10:16.267Z</time>
      </trkpt>
      <trkpt lat="47.01925" lon="8.95578">
        <ele>848</ele>
        <time>2021-08-02T11:10:17.268Z</time>
      </trkpt>
      <trkpt lat="47.01926" lon="8.95577">
        <ele>848</ele>
        <time>2021-08-02T11:10:18.267Z</time>
      </trkpt>
      <trkpt lat="47.01926" lon="8.95575">
        <ele>848</ele>
        <time>2021-08-02T11:10:19.267Z</time>
      </trkpt>
      <trkpt lat="47.01925" lon="8.95574">
        <ele>848</ele>
        <time>2021-08-02T11:10:20.267Z</time>
      </trkpt>
      <trkpt lat="47.01926" lon="8.95572">
        <ele>848</ele>
        <time>2021-08-02T11:10:21.267Z</time>
      </trkpt>
      <trkpt lat="47.01926" lon="8.95571">
        <ele>848</ele>
        <time>2021-08-02T11:10:22.267Z</time>
      </trkpt>
      <trkpt lat="47.01927" lon="8.9557">
        <ele>849</ele>
        <time>2021-08-02T11:10:23.267Z</time>
      </trkpt>
      <trkpt lat="47.01927" lon="8.95568">
        <ele>849</ele>
        <time>2021-08-02T11:10:24.268Z</time>
      </trkpt>
      <trkpt lat="47.01928" lon="8.95567">
        <ele>849</ele>
        <time>2021-08-02T11:10:25.268Z</time>
      </trkpt>
      <trkpt lat="47.01928" lon="8.95566">
        <ele>849</ele>
        <time>2021-08-02T11:10:26.268Z</time>
      </trkpt>
      <trkpt lat="47.01929" lon="8.95565">
        <ele>849</ele>
        <time>2021-08-02T11:10:27.267Z</time>
      </trkpt>
      <trkpt lat="47.0193" lon="8.95564">
        <ele>848</ele>
        <time>2021-08-02T11:10:28.268Z</time>
      </trkpt>
      <trkpt lat="47.0193" lon="8.95562">
        <ele>848</ele>
        <time>2021-08-02T11:10:29.268Z</time>
      </trkpt>
      <trkpt lat="47.0193" lon="8.95561">
        <ele>848</ele>
        <time>2021-08-02T11:10:30.267Z</time>
      </trkpt>
      <trkpt lat="47.01931" lon="8.9556">
        <ele>848</ele>
        <time>2021-08-02T11:10:31.267Z</time>
      </trkpt>
      <trkpt lat="47.01932" lon="8.95559">
        <ele>848</ele>
        <time>2021-08-02T11:10:32.267Z</time>
      </trkpt>
      <trkpt lat="47.01934" lon="8.95559">
        <ele>848</ele>
        <time>2021-08-02T11:10:33.268Z</time>
      </trkpt>
      <trkpt lat="47.01936" lon="8.95559">
        <ele>848</ele>
        <time>2021-08-02T11:10:34.267Z</time>
      </trkpt>
      <trkpt lat="47.01937" lon="8.95558">
        <ele>848</ele>
        <time>2021-08-02T11:10:35.268Z</time>
      </trkpt>
      <trkpt lat="47.01938" lon="8.95557">
        <ele>848</ele>
        <time>2021-08-02T11:10:36.267Z</time>
      </trkpt>
      <trkpt lat="47.01939" lon="8.95556">
        <ele>848</ele>
        <time>2021-08-02T11:10:37.267Z</time>
      </trkpt>
      <trkpt lat="47.0194" lon="8.95555">
        <ele>848</ele>
        <time>2021-08-02T11:10:38.267Z</time>
      </trkpt>
      <trkpt lat="47.0194" lon="8.95555">
        <ele>848</ele>
        <time>2021-08-02T11:10:39.268Z</time>
      </trkpt>
      <trkpt lat="47.01941" lon="8.95554">
        <ele>847</ele>
        <time>2021-08-02T11:10:40.267Z</time>
      </trkpt>
      <trkpt lat="47.01942" lon="8.95553">
        <ele>847</ele>
        <time>2021-08-02T11:10:41.267Z</time>
      </trkpt>
      <trkpt lat="47.01943" lon="8.95553">
        <ele>847</ele>
        <time>2021-08-02T11:10:42.268Z</time>
      </trkpt>
      <trkpt lat="47.01945" lon="8.95552">
        <ele>847</ele>
        <time>2021-08-02T11:10:43.267Z</time>
      </trkpt>
      <trkpt lat="47.01946" lon="8.95551">
        <ele>848</ele>
        <time>2021-08-02T11:10:44.268Z</time>
      </trkpt>
      <trkpt lat="47.01947" lon="8.9555">
        <ele>848</ele>
        <time>2021-08-02T11:10:45.268Z</time>
      </trkpt>
      <trkpt lat="47.01948" lon="8.95549">
        <ele>848</ele>
        <time>2021-08-02T11:10:46.268Z</time>
      </trkpt>
      <trkpt lat="47.01948" lon="8.95547">
        <ele>848</ele>
        <time>2021-08-02T11:10:47.268Z</time>
      </trkpt>
      <trkpt lat="47.01948" lon="8.95546">
        <ele>849</ele>
        <time>2021-08-02T11:10:48.268Z</time>
      </trkpt>
      <trkpt lat="47.01948" lon="8.95545">
        <ele>849</ele>
        <time>2021-08-02T11:10:49.268Z</time>
      </trkpt>
      <trkpt lat="47.01949" lon="8.95544">
        <ele>850</ele>
        <time>2021-08-02T11:10:50.268Z</time>
      </trkpt>
      <trkpt lat="47.0195" lon="8.95543">
        <ele>851</ele>
        <time>2021-08-02T11:10:51.268Z</time>
      </trkpt>
      <trkpt lat="47.01951" lon="8.95542">
        <ele>851</ele>
        <time>2021-08-02T11:10:52.268Z</time>
      </trkpt>
      <trkpt lat="47.01953" lon="8.95541">
        <ele>852</ele>
        <time>2021-08-02T11:10:53.268Z</time>
      </trkpt>
      <trkpt lat="47.01954" lon="8.9554">
        <ele>852</ele>
        <time>2021-08-02T11:10:54.268Z</time>
      </trkpt>
      <trkpt lat="47.01954" lon="8.95538">
        <ele>852</ele>
        <time>2021-08-02T11:10:55.267Z</time>
      </trkpt>
      <trkpt lat="47.01954" lon="8.95537">
        <ele>852</ele>
        <time>2021-08-02T11:10:56.268Z</time>
      </trkpt>
      <trkpt lat="47.01955" lon="8.95535">
        <ele>851</ele>
        <time>2021-08-02T11:10:57.267Z</time>
      </trkpt>
      <trkpt lat="47.01956" lon="8.95534">
        <ele>851</ele>
        <time>2021-08-02T11:10:58.268Z</time>
      </trkpt>
      <trkpt lat="47.01956" lon="8.95532">
        <ele>851</ele>
        <time>2021-08-02T11:10:59.267Z</time>
      </trkpt>
      <trkpt lat="47.01956" lon="8.95531">
        <ele>851</ele>
        <time>2021-08-02T11:11:00.267Z</time>
      </trkpt>
      <trkpt lat="47.01957" lon="8.9553">
        <ele>851</ele>
        <time>2021-08-02T11:11:01.268Z</time>
      </trkpt>
      <trkpt lat="47.01958" lon="8.95529">
        <ele>851</ele>
        <time>2021-08-02T11:11:02.268Z</time>
      </trkpt>
      <trkpt lat="47.01959" lon="8.95528">
        <ele>851</ele>
        <time>2021-08-02T11:11:03.268Z</time>
      </trkpt>
      <trkpt lat="47.0196" lon="8.95526">
        <ele>852</ele>
        <time>2021-08-02T11:11:04.267Z</time>
      </trkpt>
      <trkpt lat="47.01962" lon="8.95525">
        <ele>852</ele>
        <time>2021-08-02T11:11:05.267Z</time>
      </trkpt>
      <trkpt lat="47.01962" lon="8.95524">
        <ele>853</ele>
        <time>2021-08-02T11:11:06.267Z</time>
      </trkpt>
      <trkpt lat="47.01963" lon="8.95523">
        <ele>853</ele>
        <time>2021-08-02T11:11:07.267Z</time>
      </trkpt>
      <trkpt lat="47.01964" lon="8.95521">
        <ele>854</ele>
        <time>2021-08-02T11:11:08.267Z</time>
      </trkpt>
      <trkpt lat="47.01965" lon="8.9552">
        <ele>855</ele>
        <time>2021-08-02T11:11:09.268Z</time>
      </trkpt>
      <trkpt lat="47.01967" lon="8.95519">
        <ele>855</ele>
        <time>2021-08-02T11:11:10.268Z</time>
      </trkpt>
      <trkpt lat="47.01968" lon="8.95517">
        <ele>855</ele>
        <time>2021-08-02T11:11:11.268Z</time>
      </trkpt>
      <trkpt lat="47.01968" lon="8.95516">
        <ele>855</ele>
        <time>2021-08-02T11:11:12.267Z</time>
      </trkpt>
      <trkpt lat="47.01969" lon="8.95514">
        <ele>855</ele>
        <time>2021-08-02T11:11:13.267Z</time>
      </trkpt>
      <trkpt lat="47.0197" lon="8.95513">
        <ele>855</ele>
        <time>2021-08-02T11:11:14.268Z</time>
      </trkpt>
      <trkpt lat="47.0197" lon="8.95512">
        <ele>856</ele>
        <time>2021-08-02T11:11:15.268Z</time>
      </trkpt>
      <trkpt lat="47.01971" lon="8.95509">
        <ele>856</ele>
        <time>2021-08-02T11:11:16.268Z</time>
      </trkpt>
      <trkpt lat="47.01973" lon="8.95507">
        <ele>857</ele>
        <time>2021-08-02T11:11:17.268Z</time>
      </trkpt>
      <trkpt lat="47.01974" lon="8.95504">
        <ele>857</ele>
        <time>2021-08-02T11:11:18.268Z</time>
      </trkpt>
      <trkpt lat="47.01974" lon="8.95503">
        <ele>858</ele>
        <time>2021-08-02T11:11:19.267Z</time>
      </trkpt>
      <trkpt lat="47.01974" lon="8.955">
        <ele>858</ele>
        <time>2021-08-02T11:11:20.268Z</time>
      </trkpt>
      <trkpt lat="47.01974" lon="8.95498">
        <ele>859</ele>
        <time>2021-08-02T11:11:21.268Z</time>
      </trkpt>
      <trkpt lat="47.01973" lon="8.95495">
        <ele>859</ele>
        <time>2021-08-02T11:11:22.268Z</time>
      </trkpt>
      <trkpt lat="47.01973" lon="8.95493">
        <ele>860</ele>
        <time>2021-08-02T11:11:23.268Z</time>
      </trkpt>
      <trkpt lat="47.01973" lon="8.95491">
        <ele>861</ele>
        <time>2021-08-02T11:11:24.268Z</time>
      </trkpt>
      <trkpt lat="47.01972" lon="8.95489">
        <ele>861</ele>
        <time>2021-08-02T11:11:25.268Z</time>
      </trkpt>
      <trkpt lat="47.01972" lon="8.95488">
        <ele>862</ele>
        <time>2021-08-02T11:11:26.268Z</time>
      </trkpt>
      <trkpt lat="47.01971" lon="8.95487">
        <ele>862</ele>
        <time>2021-08-02T11:11:27.268Z</time>
      </trkpt>
      <trkpt lat="47.01972" lon="8.95486">
        <ele>862</ele>
        <time>2021-08-02T11:11:28.267Z</time>
      </trkpt>
      <trkpt lat="47.01972" lon="8.95485">
        <ele>862</ele>
        <time>2021-08-02T11:11:29.268Z</time>
      </trkpt>
      <trkpt lat="47.01972" lon="8.95484">
        <ele>862</ele>
        <time>2021-08-02T11:11:30.267Z</time>
      </trkpt>
      <trkpt lat="47.01972" lon="8.95483">
        <ele>863</ele>
        <time>2021-08-02T11:11:31.267Z</time>
      </trkpt>
      <trkpt lat="47.01973" lon="8.95481">
        <ele>863</ele>
        <time>2021-08-02T11:11:32.267Z</time>
      </trkpt>
      <trkpt lat="47.01974" lon="8.9548">
        <ele>863</ele>
        <time>2021-08-02T11:11:33.268Z</time>
      </trkpt>
      <trkpt lat="47.01974" lon="8.95478">
        <ele>864</ele>
        <time>2021-08-02T11:11:34.268Z</time>
      </trkpt>
      <trkpt lat="47.01975" lon="8.95477">
        <ele>864</ele>
        <time>2021-08-02T11:11:35.267Z</time>
      </trkpt>
      <trkpt lat="47.01975" lon="8.95475">
        <ele>864</ele>
        <time>2021-08-02T11:11:36.268Z</time>
      </trkpt>
      <trkpt lat="47.01976" lon="8.95474">
        <ele>864</ele>
        <time>2021-08-02T11:11:37.268Z</time>
      </trkpt>
      <trkpt lat="47.01977" lon="8.95473">
        <ele>864</ele>
        <time>2021-08-02T11:11:38.267Z</time>
      </trkpt>
      <trkpt lat="47.01978" lon="8.95471">
        <ele>864</ele>
        <time>2021-08-02T11:11:39.268Z</time>
      </trkpt>
      <trkpt lat="47.01978" lon="8.9547">
        <ele>864</ele>
        <time>2021-08-02T11:11:40.267Z</time>
      </trkpt>
      <trkpt lat="47.01979" lon="8.95469">
        <ele>864</ele>
        <time>2021-08-02T11:11:41.267Z</time>
      </trkpt>
      <trkpt lat="47.01979" lon="8.95467">
        <ele>864</ele>
        <time>2021-08-02T11:11:42.268Z</time>
      </trkpt>
      <trkpt lat="47.0198" lon="8.95466">
        <ele>865</ele>
        <time>2021-08-02T11:11:43.267Z</time>
      </trkpt>
      <trkpt lat="47.01981" lon="8.95466">
        <ele>865</ele>
        <time>2021-08-02T11:11:44.268Z</time>
      </trkpt>
      <trkpt lat="47.01982" lon="8.95465">
        <ele>865</ele>
        <time>2021-08-02T11:11:45.270Z</time>
      </trkpt>
      <trkpt lat="47.01982" lon="8.95464">
        <ele>865</ele>
        <time>2021-08-02T11:11:46.270Z</time>
      </trkpt>
      <trkpt lat="47.01983" lon="8.95463">
        <ele>865</ele>
        <time>2021-08-02T11:11:47.270Z</time>
      </trkpt>
      <trkpt lat="47.01983" lon="8.95462">
        <ele>864</ele>
        <time>2021-08-02T11:11:48.269Z</time>
      </trkpt>
      <trkpt lat="47.01983" lon="8.95461">
        <ele>864</ele>
        <time>2021-08-02T11:11:49.270Z</time>
      </trkpt>
      <trkpt lat="47.01983" lon="8.9546">
        <ele>864</ele>
        <time>2021-08-02T11:11:50.270Z</time>
      </trkpt>
      <trkpt lat="47.01983" lon="8.95459">
        <ele>863</ele>
        <time>2021-08-02T11:11:51.270Z</time>
      </trkpt>
      <trkpt lat="47.01984" lon="8.95457">
        <ele>863</ele>
        <time>2021-08-02T11:11:52.270Z</time>
      </trkpt>
      <trkpt lat="47.01985" lon="8.95456">
        <ele>863</ele>
        <time>2021-08-02T11:11:53.269Z</time>
      </trkpt>
      <trkpt lat="47.01985" lon="8.95455">
        <ele>862</ele>
        <time>2021-08-02T11:11:54.270Z</time>
      </trkpt>
      <trkpt lat="47.01986" lon="8.95454">
        <ele>862</ele>
        <time>2021-08-02T11:11:55.269Z</time>
      </trkpt>
      <trkpt lat="47.01987" lon="8.95454">
        <ele>862</ele>
        <time>2021-08-02T11:11:56.269Z</time>
      </trkpt>
      <trkpt lat="47.01988" lon="8.95453">
        <ele>862</ele>
        <time>2021-08-02T11:11:57.270Z</time>
      </trkpt>
      <trkpt lat="47.01989" lon="8.95453">
        <ele>861</ele>
        <time>2021-08-02T11:11:58.270Z</time>
      </trkpt>
      <trkpt lat="47.0199" lon="8.95453">
        <ele>861</ele>
        <time>2021-08-02T11:11:59.270Z</time>
      </trkpt>
      <trkpt lat="47.01991" lon="8.95453">
        <ele>861</ele>
        <time>2021-08-02T11:12:00.270Z</time>
      </trkpt>
      <trkpt lat="47.01992" lon="8.95452">
        <ele>860</ele>
        <time>2021-08-02T11:12:01.269Z</time>
      </trkpt>
      <trkpt lat="47.01992" lon="8.95452">
        <ele>860</ele>
        <time>2021-08-02T11:12:02.270Z</time>
      </trkpt>
      <trkpt lat="47.01993" lon="8.95452">
        <ele>859</ele>
        <time>2021-08-02T11:12:03.269Z</time>
      </trkpt>
      <trkpt lat="47.01993" lon="8.95451">
        <ele>859</ele>
        <time>2021-08-02T11:12:04.270Z</time>
      </trkpt>
      <trkpt lat="47.01994" lon="8.95451">
        <ele>858</ele>
        <time>2021-08-02T11:12:05.270Z</time>
      </trkpt>
      <trkpt lat="47.01996" lon="8.95451">
        <ele>858</ele>
        <time>2021-08-02T11:12:06.269Z</time>
      </trkpt>
      <trkpt lat="47.01997" lon="8.95452">
        <ele>857</ele>
        <time>2021-08-02T11:12:07.270Z</time>
      </trkpt>
      <trkpt lat="47.01998" lon="8.95452">
        <ele>857</ele>
        <time>2021-08-02T11:12:08.269Z</time>
      </trkpt>
      <trkpt lat="47.01998" lon="8.95452">
        <ele>856</ele>
        <time>2021-08-02T11:12:09.270Z</time>
      </trkpt>
      <trkpt lat="47.01999" lon="8.95451">
        <ele>856</ele>
        <time>2021-08-02T11:12:10.270Z</time>
      </trkpt>
      <trkpt lat="47.02" lon="8.95451">
        <ele>856</ele>
        <time>2021-08-02T11:12:11.270Z</time>
      </trkpt>
      <trkpt lat="47.02" lon="8.95451">
        <ele>856</ele>
        <time>2021-08-02T11:12:12.269Z</time>
      </trkpt>
      <trkpt lat="47.02001" lon="8.9545">
        <ele>855</ele>
        <time>2021-08-02T11:12:13.270Z</time>
      </trkpt>
      <trkpt lat="47.02002" lon="8.9545">
        <ele>855</ele>
        <time>2021-08-02T11:12:14.270Z</time>
      </trkpt>
      <trkpt lat="47.02003" lon="8.9545">
        <ele>854</ele>
        <time>2021-08-02T11:12:15.269Z</time>
      </trkpt>
      <trkpt lat="47.02005" lon="8.9545">
        <ele>854</ele>
        <time>2021-08-02T11:12:16.269Z</time>
      </trkpt>
      <trkpt lat="47.02005" lon="8.9545">
        <ele>854</ele>
        <time>2021-08-02T11:12:17.270Z</time>
      </trkpt>
      <trkpt lat="47.02006" lon="8.9545">
        <ele>854</ele>
        <time>2021-08-02T11:12:18.269Z</time>
      </trkpt>
      <trkpt lat="47.02006" lon="8.9545">
        <ele>854</ele>
        <time>2021-08-02T11:12:19.270Z</time>
      </trkpt>
      <trkpt lat="47.02007" lon="8.9545">
        <ele>854</ele>
        <time>2021-08-02T11:12:20.270Z</time>
      </trkpt>
      <trkpt lat="47.02008" lon="8.95449">
        <ele>854</ele>
        <time>2021-08-02T11:12:21.270Z</time>
      </trkpt>
      <trkpt lat="47.02009" lon="8.95448">
        <ele>854</ele>
        <time>2021-08-02T11:12:22.270Z</time>
      </trkpt>
      <trkpt lat="47.0201" lon="8.95447">
        <ele>854</ele>
        <time>2021-08-02T11:12:23.269Z</time>
      </trkpt>
      <trkpt lat="47.02011" lon="8.95446">
        <ele>854</ele>
        <time>2021-08-02T11:12:24.270Z</time>
      </trkpt>
      <trkpt lat="47.02011" lon="8.95446">
        <ele>854</ele>
        <time>2021-08-02T11:12:25.269Z</time>
      </trkpt>
      <trkpt lat="47.02012" lon="8.95445">
        <ele>854</ele>
        <time>2021-08-02T11:12:26.270Z</time>
      </trkpt>
      <trkpt lat="47.02013" lon="8.95444">
        <ele>854</ele>
        <time>2021-08-02T11:12:27.269Z</time>
      </trkpt>
      <trkpt lat="47.02014" lon="8.95444">
        <ele>854</ele>
        <time>2021-08-02T11:12:28.270Z</time>
      </trkpt>
      <trkpt lat="47.02015" lon="8.95443">
        <ele>854</ele>
        <time>2021-08-02T11:12:29.269Z</time>
      </trkpt>
      <trkpt lat="47.02015" lon="8.95442">
        <ele>855</ele>
        <time>2021-08-02T11:12:30.270Z</time>
      </trkpt>
      <trkpt lat="47.02018" lon="8.95441">
        <ele>856</ele>
        <time>2021-08-02T11:12:31.270Z</time>
      </trkpt>
      <trkpt lat="47.02019" lon="8.95439">
        <ele>856</ele>
        <time>2021-08-02T11:12:32.269Z</time>
      </trkpt>
      <trkpt lat="47.0202" lon="8.95437">
        <ele>857</ele>
        <time>2021-08-02T11:12:33.270Z</time>
      </trkpt>
      <trkpt lat="47.02021" lon="8.95436">
        <ele>857</ele>
        <time>2021-08-02T11:12:34.270Z</time>
      </trkpt>
      <trkpt lat="47.02022" lon="8.95435">
        <ele>858</ele>
        <time>2021-08-02T11:12:35.269Z</time>
      </trkpt>
      <trkpt lat="47.02023" lon="8.95433">
        <ele>858</ele>
        <time>2021-08-02T11:12:36.270Z</time>
      </trkpt>
      <trkpt lat="47.02024" lon="8.95431">
        <ele>859</ele>
        <time>2021-08-02T11:12:37.270Z</time>
      </trkpt>
      <trkpt lat="47.02026" lon="8.95431">
        <ele>859</ele>
        <time>2021-08-02T11:12:38.270Z</time>
      </trkpt>
      <trkpt lat="47.02027" lon="8.95429">
        <ele>859</ele>
        <time>2021-08-02T11:12:39.270Z</time>
      </trkpt>
      <trkpt lat="47.02028" lon="8.95428">
        <ele>859</ele>
        <time>2021-08-02T11:12:40.270Z</time>
      </trkpt>
      <trkpt lat="47.02029" lon="8.95427">
        <ele>859</ele>
        <time>2021-08-02T11:12:41.270Z</time>
      </trkpt>
      <trkpt lat="47.02029" lon="8.95426">
        <ele>859</ele>
        <time>2021-08-02T11:12:42.269Z</time>
      </trkpt>
      <trkpt lat="47.0203" lon="8.95424">
        <ele>859</ele>
        <time>2021-08-02T11:12:43.270Z</time>
      </trkpt>
      <trkpt lat="47.02031" lon="8.95423">
        <ele>859</ele>
        <time>2021-08-02T11:12:44.269Z</time>
      </trkpt>
      <trkpt lat="47.02031" lon="8.95422">
        <ele>859</ele>
        <time>2021-08-02T11:12:45.270Z</time>
      </trkpt>
      <trkpt lat="47.02032" lon="8.95421">
        <ele>860</ele>
        <time>2021-08-02T11:12:46.270Z</time>
      </trkpt>
      <trkpt lat="47.02032" lon="8.9542">
        <ele>860</ele>
        <time>2021-08-02T11:12:47.270Z</time>
      </trkpt>
      <trkpt lat="47.02033" lon="8.95418">
        <ele>860</ele>
        <time>2021-08-02T11:12:48.270Z</time>
      </trkpt>
      <trkpt lat="47.02034" lon="8.95417">
        <ele>860</ele>
        <time>2021-08-02T11:12:49.269Z</time>
      </trkpt>
      <trkpt lat="47.02035" lon="8.95416">
        <ele>860</ele>
        <time>2021-08-02T11:12:50.270Z</time>
      </trkpt>
      <trkpt lat="47.02035" lon="8.95414">
        <ele>860</ele>
        <time>2021-08-02T11:12:51.269Z</time>
      </trkpt>
      <trkpt lat="47.02035" lon="8.95412">
        <ele>860</ele>
        <time>2021-08-02T11:12:52.270Z</time>
      </trkpt>
      <trkpt lat="47.02036" lon="8.95411">
        <ele>860</ele>
        <time>2021-08-02T11:12:53.270Z</time>
      </trkpt>
      <trkpt lat="47.02036" lon="8.95409">
        <ele>860</ele>
        <time>2021-08-02T11:12:54.270Z</time>
      </trkpt>
      <trkpt lat="47.02036" lon="8.95408">
        <ele>860</ele>
        <time>2021-08-02T11:12:55.270Z</time>
      </trkpt>
      <trkpt lat="47.02037" lon="8.95406">
        <ele>860</ele>
        <time>2021-08-02T11:12:56.270Z</time>
      </trkpt>
      <trkpt lat="47.02037" lon="8.95405">
        <ele>860</ele>
        <time>2021-08-02T11:12:57.270Z</time>
      </trkpt>
      <trkpt lat="47.02037" lon="8.95403">
        <ele>860</ele>
        <time>2021-08-02T11:12:58.270Z</time>
      </trkpt>
      <trkpt lat="47.02038" lon="8.95401">
        <ele>860</ele>
        <time>2021-08-02T11:12:59.269Z</time>
      </trkpt>
      <trkpt lat="47.02038" lon="8.954">
        <ele>860</ele>
        <time>2021-08-02T11:13:00.270Z</time>
      </trkpt>
      <trkpt lat="47.02039" lon="8.95398">
        <ele>860</ele>
        <time>2021-08-02T11:13:01.270Z</time>
      </trkpt>
      <trkpt lat="47.02039" lon="8.95397">
        <ele>860</ele>
        <time>2021-08-02T11:13:02.270Z</time>
      </trkpt>
      <trkpt lat="47.0204" lon="8.95395">
        <ele>860</ele>
        <time>2021-08-02T11:13:03.270Z</time>
      </trkpt>
      <trkpt lat="47.0204" lon="8.95394">
        <ele>860</ele>
        <time>2021-08-02T11:13:04.270Z</time>
      </trkpt>
      <trkpt lat="47.02041" lon="8.95394">
        <ele>860</ele>
        <time>2021-08-02T11:13:05.270Z</time>
      </trkpt>
      <trkpt lat="47.02041" lon="8.95392">
        <ele>859</ele>
        <time>2021-08-02T11:13:06.270Z</time>
      </trkpt>
      <trkpt lat="47.02041" lon="8.95391">
        <ele>859</ele>
        <time>2021-08-02T11:13:07.270Z</time>
      </trkpt>
      <trkpt lat="47.02042" lon="8.95389">
        <ele>859</ele>
        <time>2021-08-02T11:13:08.270Z</time>
      </trkpt>
      <trkpt lat="47.02042" lon="8.95387">
        <ele>859</ele>
        <time>2021-08-02T11:13:09.270Z</time>
      </trkpt>
      <trkpt lat="47.02042" lon="8.95386">
        <ele>859</ele>
        <time>2021-08-02T11:13:10.270Z</time>
      </trkpt>
      <trkpt lat="47.02042" lon="8.95384">
        <ele>858</ele>
        <time>2021-08-02T11:13:11.270Z</time>
      </trkpt>
      <trkpt lat="47.02043" lon="8.95383">
        <ele>858</ele>
        <time>2021-08-02T11:13:12.269Z</time>
      </trkpt>
      <trkpt lat="47.02043" lon="8.95382">
        <ele>858</ele>
        <time>2021-08-02T11:13:13.270Z</time>
      </trkpt>
      <trkpt lat="47.02043" lon="8.9538">
        <ele>858</ele>
        <time>2021-08-02T11:13:14.270Z</time>
      </trkpt>
      <trkpt lat="47.02044" lon="8.95378">
        <ele>857</ele>
        <time>2021-08-02T11:13:15.270Z</time>
      </trkpt>
      <trkpt lat="47.02044" lon="8.95376">
        <ele>857</ele>
        <time>2021-08-02T11:13:16.270Z</time>
      </trkpt>
      <trkpt lat="47.02045" lon="8.95374">
        <ele>857</ele>
        <time>2021-08-02T11:13:17.270Z</time>
      </trkpt>
      <trkpt lat="47.02045" lon="8.95372">
        <ele>857</ele>
        <time>2021-08-02T11:13:18.270Z</time>
      </trkpt>
      <trkpt lat="47.02045" lon="8.95371">
        <ele>857</ele>
        <time>2021-08-02T11:13:19.270Z</time>
      </trkpt>
      <trkpt lat="47.02045" lon="8.9537">
        <ele>857</ele>
        <time>2021-08-02T11:13:20.270Z</time>
      </trkpt>
      <trkpt lat="47.02045" lon="8.95369">
        <ele>856</ele>
        <time>2021-08-02T11:13:21.269Z</time>
      </trkpt>
      <trkpt lat="47.02045" lon="8.95367">
        <ele>856</ele>
        <time>2021-08-02T11:13:22.270Z</time>
      </trkpt>
      <trkpt lat="47.02046" lon="8.95365">
        <ele>856</ele>
        <time>2021-08-02T11:13:23.270Z</time>
      </trkpt>
      <trkpt lat="47.02046" lon="8.95363">
        <ele>856</ele>
        <time>2021-08-02T11:13:24.270Z</time>
      </trkpt>
      <trkpt lat="47.02046" lon="8.95361">
        <ele>857</ele>
        <time>2021-08-02T11:13:25.269Z</time>
      </trkpt>
      <trkpt lat="47.02047" lon="8.95359">
        <ele>857</ele>
        <time>2021-08-02T11:13:26.269Z</time>
      </trkpt>
      <trkpt lat="47.02047" lon="8.95357">
        <ele>857</ele>
        <time>2021-08-02T11:13:27.269Z</time>
      </trkpt>
      <trkpt lat="47.02046" lon="8.95354">
        <ele>857</ele>
        <time>2021-08-02T11:13:28.270Z</time>
      </trkpt>
      <trkpt lat="47.02045" lon="8.95351">
        <ele>856</ele>
        <time>2021-08-02T11:13:29.269Z</time>
      </trkpt>
      <trkpt lat="47.02045" lon="8.95349">
        <ele>855</ele>
        <time>2021-08-02T11:13:30.270Z</time>
      </trkpt>
      <trkpt lat="47.02044" lon="8.95347">
        <ele>854</ele>
        <time>2021-08-02T11:13:31.270Z</time>
      </trkpt>
      <trkpt lat="47.02044" lon="8.95346">
        <ele>854</ele>
        <time>2021-08-02T11:13:32.270Z</time>
      </trkpt>
      <trkpt lat="47.02045" lon="8.95344">
        <ele>854</ele>
        <time>2021-08-02T11:13:33.270Z</time>
      </trkpt>
      <trkpt lat="47.02045" lon="8.95342">
        <ele>854</ele>
        <time>2021-08-02T11:13:34.270Z</time>
      </trkpt>
      <trkpt lat="47.02046" lon="8.95341">
        <ele>854</ele>
        <time>2021-08-02T11:13:35.270Z</time>
      </trkpt>
      <trkpt lat="47.02046" lon="8.95339">
        <ele>854</ele>
        <time>2021-08-02T11:13:36.270Z</time>
      </trkpt>
      <trkpt lat="47.02046" lon="8.95337">
        <ele>854</ele>
        <time>2021-08-02T11:13:37.270Z</time>
      </trkpt>
      <trkpt lat="47.02047" lon="8.95336">
        <ele>854</ele>
        <time>2021-08-02T11:13:38.269Z</time>
      </trkpt>
      <trkpt lat="47.02047" lon="8.95334">
        <ele>854</ele>
        <time>2021-08-02T11:13:39.270Z</time>
      </trkpt>
      <trkpt lat="47.02047" lon="8.95332">
        <ele>854</ele>
        <time>2021-08-02T11:13:40.270Z</time>
      </trkpt>
      <trkpt lat="47.02048" lon="8.9533">
        <ele>854</ele>
        <time>2021-08-02T11:13:41.269Z</time>
      </trkpt>
      <trkpt lat="47.02048" lon="8.95329">
        <ele>854</ele>
        <time>2021-08-02T11:13:42.270Z</time>
      </trkpt>
      <trkpt lat="47.02048" lon="8.95327">
        <ele>854</ele>
        <time>2021-08-02T11:13:43.270Z</time>
      </trkpt>
      <trkpt lat="47.02047" lon="8.95325">
        <ele>854</ele>
        <time>2021-08-02T11:13:44.269Z</time>
      </trkpt>
      <trkpt lat="47.02047" lon="8.95322">
        <ele>853</ele>
        <time>2021-08-02T11:13:45.270Z</time>
      </trkpt>
      <trkpt lat="47.02047" lon="8.95319">
        <ele>853</ele>
        <time>2021-08-02T11:13:46.270Z</time>
      </trkpt>
      <trkpt lat="47.02047" lon="8.95318">
        <ele>853</ele>
        <time>2021-08-02T11:13:47.269Z</time>
      </trkpt>
      <trkpt lat="47.02047" lon="8.95316">
        <ele>853</ele>
        <time>2021-08-02T11:13:48.270Z</time>
      </trkpt>
      <trkpt lat="47.02047" lon="8.95315">
        <ele>853</ele>
        <time>2021-08-02T11:13:49.270Z</time>
      </trkpt>
      <trkpt lat="47.02047" lon="8.95314">
        <ele>853</ele>
        <time>2021-08-02T11:13:50.270Z</time>
      </trkpt>
      <trkpt lat="47.02047" lon="8.95312">
        <ele>853</ele>
        <time>2021-08-02T11:13:51.270Z</time>
      </trkpt>
      <trkpt lat="47.02047" lon="8.9531">
        <ele>853</ele>
        <time>2021-08-02T11:13:52.270Z</time>
      </trkpt>
      <trkpt lat="47.02047" lon="8.95309">
        <ele>853</ele>
        <time>2021-08-02T11:13:53.269Z</time>
      </trkpt>
      <trkpt lat="47.02047" lon="8.95308">
        <ele>853</ele>
        <time>2021-08-02T11:13:54.270Z</time>
      </trkpt>
      <trkpt lat="47.02047" lon="8.95307">
        <ele>853</ele>
        <time>2021-08-02T11:13:55.269Z</time>
      </trkpt>
      <trkpt lat="47.02047" lon="8.95306">
        <ele>853</ele>
        <time>2021-08-02T11:13:56.270Z</time>
      </trkpt>
      <trkpt lat="47.02046" lon="8.95305">
        <ele>854</ele>
        <time>2021-08-02T11:13:57.269Z</time>
      </trkpt>
      <trkpt lat="47.02046" lon="8.95303">
        <ele>854</ele>
        <time>2021-08-02T11:13:58.270Z</time>
      </trkpt>
      <trkpt lat="47.02046" lon="8.95302">
        <ele>855</ele>
        <time>2021-08-02T11:13:59.270Z</time>
      </trkpt>
      <trkpt lat="47.02046" lon="8.953">
        <ele>855</ele>
        <time>2021-08-02T11:14:00.270Z</time>
      </trkpt>
      <trkpt lat="47.02046" lon="8.95299">
        <ele>855</ele>
        <time>2021-08-02T11:14:01.270Z</time>
      </trkpt>
      <trkpt lat="47.02045" lon="8.95298">
        <ele>855</ele>
        <time>2021-08-02T11:14:02.269Z</time>
      </trkpt>
      <trkpt lat="47.02045" lon="8.95296">
        <ele>855</ele>
        <time>2021-08-02T11:14:03.270Z</time>
      </trkpt>
      <trkpt lat="47.02045" lon="8.95295">
        <ele>855</ele>
        <time>2021-08-02T11:14:04.269Z</time>
      </trkpt>
      <trkpt lat="47.02045" lon="8.95293">
        <ele>855</ele>
        <time>2021-08-02T11:14:05.270Z</time>
      </trkpt>
      <trkpt lat="47.02045" lon="8.95291">
        <ele>855</ele>
        <time>2021-08-02T11:14:06.270Z</time>
      </trkpt>
      <trkpt lat="47.02045" lon="8.9529">
        <ele>855</ele>
        <time>2021-08-02T11:14:07.270Z</time>
      </trkpt>
      <trkpt lat="47.02045" lon="8.95288">
        <ele>855</ele>
        <time>2021-08-02T11:14:08.270Z</time>
      </trkpt>
      <trkpt lat="47.02044" lon="8.95286">
        <ele>855</ele>
        <time>2021-08-02T11:14:09.269Z</time>
      </trkpt>
      <trkpt lat="47.02044" lon="8.95284">
        <ele>855</ele>
        <time>2021-08-02T11:14:10.270Z</time>
      </trkpt>
      <trkpt lat="47.02044" lon="8.95283">
        <ele>854</ele>
        <time>2021-08-02T11:14:11.269Z</time>
      </trkpt>
      <trkpt lat="47.02044" lon="8.95281">
        <ele>854</ele>
        <time>2021-08-02T11:14:12.270Z</time>
      </trkpt>
      <trkpt lat="47.02044" lon="8.95279">
        <ele>854</ele>
        <time>2021-08-02T11:14:13.270Z</time>
      </trkpt>
      <trkpt lat="47.02044" lon="8.95277">
        <ele>854</ele>
        <time>2021-08-02T11:14:14.270Z</time>
      </trkpt>
      <trkpt lat="47.02044" lon="8.95276">
        <ele>855</ele>
        <time>2021-08-02T11:14:15.270Z</time>
      </trkpt>
      <trkpt lat="47.02044" lon="8.95275">
        <ele>855</ele>
        <time>2021-08-02T11:14:16.270Z</time>
      </trkpt>
      <trkpt lat="47.02044" lon="8.95273">
        <ele>855</ele>
        <time>2021-08-02T11:14:17.270Z</time>
      </trkpt>
      <trkpt lat="47.02044" lon="8.95271">
        <ele>856</ele>
        <time>2021-08-02T11:14:18.269Z</time>
      </trkpt>
      <trkpt lat="47.02044" lon="8.9527">
        <ele>856</ele>
        <time>2021-08-02T11:14:19.270Z</time>
      </trkpt>
      <trkpt lat="47.02044" lon="8.95269">
        <ele>856</ele>
        <time>2021-08-02T11:14:20.270Z</time>
      </trkpt>
      <trkpt lat="47.02044" lon="8.95267">
        <ele>856</ele>
        <time>2021-08-02T11:14:21.270Z</time>
      </trkpt>
      <trkpt lat="47.02044" lon="8.95266">
        <ele>855</ele>
        <time>2021-08-02T11:14:22.270Z</time>
      </trkpt>
      <trkpt lat="47.02044" lon="8.95265">
        <ele>855</ele>
        <time>2021-08-02T11:14:23.270Z</time>
      </trkpt>
      <trkpt lat="47.02045" lon="8.95263">
        <ele>855</ele>
        <time>2021-08-02T11:14:24.270Z</time>
      </trkpt>
      <trkpt lat="47.02045" lon="8.95262">
        <ele>855</ele>
        <time>2021-08-02T11:14:25.269Z</time>
      </trkpt>
      <trkpt lat="47.02045" lon="8.9526">
        <ele>855</ele>
        <time>2021-08-02T11:14:26.270Z</time>
      </trkpt>
      <trkpt lat="47.02044" lon="8.95258">
        <ele>855</ele>
        <time>2021-08-02T11:14:27.270Z</time>
      </trkpt>
      <trkpt lat="47.02043" lon="8.95256">
        <ele>855</ele>
        <time>2021-08-02T11:14:28.269Z</time>
      </trkpt>
      <trkpt lat="47.02042" lon="8.95255">
        <ele>855</ele>
        <time>2021-08-02T11:14:29.270Z</time>
      </trkpt>
      <trkpt lat="47.02041" lon="8.95253">
        <ele>855</ele>
        <time>2021-08-02T11:14:30.269Z</time>
      </trkpt>
      <trkpt lat="47.0204" lon="8.95251">
        <ele>855</ele>
        <time>2021-08-02T11:14:31.269Z</time>
      </trkpt>
      <trkpt lat="47.0204" lon="8.95249">
        <ele>855</ele>
        <time>2021-08-02T11:14:32.269Z</time>
      </trkpt>
      <trkpt lat="47.0204" lon="8.95248">
        <ele>855</ele>
        <time>2021-08-02T11:14:33.270Z</time>
      </trkpt>
      <trkpt lat="47.02039" lon="8.95247">
        <ele>855</ele>
        <time>2021-08-02T11:14:34.270Z</time>
      </trkpt>
      <trkpt lat="47.02038" lon="8.95246">
        <ele>855</ele>
        <time>2021-08-02T11:14:35.270Z</time>
      </trkpt>
      <trkpt lat="47.02037" lon="8.95245">
        <ele>855</ele>
        <time>2021-08-02T11:14:36.270Z</time>
      </trkpt>
      <trkpt lat="47.02036" lon="8.95244">
        <ele>856</ele>
        <time>2021-08-02T11:14:37.270Z</time>
      </trkpt>
      <trkpt lat="47.02035" lon="8.95243">
        <ele>856</ele>
        <time>2021-08-02T11:14:38.269Z</time>
      </trkpt>
      <trkpt lat="47.02034" lon="8.95242">
        <ele>857</ele>
        <time>2021-08-02T11:14:39.269Z</time>
      </trkpt>
      <trkpt lat="47.02032" lon="8.9524">
        <ele>857</ele>
        <time>2021-08-02T11:14:40.270Z</time>
      </trkpt>
      <trkpt lat="47.02031" lon="8.95239">
        <ele>857</ele>
        <time>2021-08-02T11:14:41.270Z</time>
      </trkpt>
      <trkpt lat="47.0203" lon="8.95237">
        <ele>858</ele>
        <time>2021-08-02T11:14:42.269Z</time>
      </trkpt>
      <trkpt lat="47.02029" lon="8.95236">
        <ele>859</ele>
        <time>2021-08-02T11:14:43.269Z</time>
      </trkpt>
      <trkpt lat="47.02029" lon="8.95236">
        <ele>860</ele>
        <time>2021-08-02T11:14:44.269Z</time>
      </trkpt>
      <trkpt lat="47.02028" lon="8.95235">
        <ele>860</ele>
        <time>2021-08-02T11:14:45.269Z</time>
      </trkpt>
      <trkpt lat="47.02028" lon="8.95233">
        <ele>861</ele>
        <time>2021-08-02T11:14:46.269Z</time>
      </trkpt>
      <trkpt lat="47.02028" lon="8.95231">
        <ele>861</ele>
        <time>2021-08-02T11:14:47.269Z</time>
      </trkpt>
      <trkpt lat="47.02027" lon="8.9523">
        <ele>862</ele>
        <time>2021-08-02T11:14:48.270Z</time>
      </trkpt>
      <trkpt lat="47.02027" lon="8.95229">
        <ele>862</ele>
        <time>2021-08-02T11:14:49.270Z</time>
      </trkpt>
      <trkpt lat="47.02026" lon="8.95229">
        <ele>863</ele>
        <time>2021-08-02T11:14:50.270Z</time>
      </trkpt>
      <trkpt lat="47.02026" lon="8.95228">
        <ele>863</ele>
        <time>2021-08-02T11:14:51.270Z</time>
      </trkpt>
      <trkpt lat="47.02025" lon="8.95228">
        <ele>864</ele>
        <time>2021-08-02T11:14:52.269Z</time>
      </trkpt>
      <trkpt lat="47.02025" lon="8.95227">
        <ele>864</ele>
        <time>2021-08-02T11:14:53.270Z</time>
      </trkpt>
      <trkpt lat="47.02025" lon="8.95226">
        <ele>864</ele>
        <time>2021-08-02T11:14:54.269Z</time>
      </trkpt>
      <trkpt lat="47.02025" lon="8.95226">
        <ele>864</ele>
        <time>2021-08-02T11:14:55.269Z</time>
      </trkpt>
      <trkpt lat="47.02024" lon="8.95226">
        <ele>864</ele>
        <time>2021-08-02T11:14:56.269Z</time>
      </trkpt>
      <trkpt lat="47.02025" lon="8.95226">
        <ele>864</ele>
        <time>2021-08-02T11:14:57.270Z</time>
      </trkpt>
      <trkpt lat="47.02026" lon="8.95226">
        <ele>864</ele>
        <time>2021-08-02T11:14:58.269Z</time>
      </trkpt>
      <trkpt lat="47.02027" lon="8.95226">
        <ele>864</ele>
        <time>2021-08-02T11:14:59.269Z</time>
      </trkpt>
      <trkpt lat="47.02028" lon="8.95225">
        <ele>863</ele>
        <time>2021-08-02T11:15:00.270Z</time>
      </trkpt>
      <trkpt lat="47.02028" lon="8.95224">
        <ele>863</ele>
        <time>2021-08-02T11:15:01.269Z</time>
      </trkpt>
      <trkpt lat="47.02029" lon="8.95223">
        <ele>863</ele>
        <time>2021-08-02T11:15:02.270Z</time>
      </trkpt>
      <trkpt lat="47.02029" lon="8.95223">
        <ele>863</ele>
        <time>2021-08-02T11:15:03.270Z</time>
      </trkpt>
      <trkpt lat="47.0203" lon="8.95221">
        <ele>863</ele>
        <time>2021-08-02T11:15:04.270Z</time>
      </trkpt>
      <trkpt lat="47.02031" lon="8.9522">
        <ele>863</ele>
        <time>2021-08-02T11:15:05.270Z</time>
      </trkpt>
      <trkpt lat="47.02031" lon="8.95218">
        <ele>862</ele>
        <time>2021-08-02T11:15:06.270Z</time>
      </trkpt>
      <trkpt lat="47.02032" lon="8.95217">
        <ele>862</ele>
        <time>2021-08-02T11:15:07.270Z</time>
      </trkpt>
      <trkpt lat="47.02033" lon="8.95216">
        <ele>861</ele>
        <time>2021-08-02T11:15:08.269Z</time>
      </trkpt>
      <trkpt lat="47.02034" lon="8.95215">
        <ele>861</ele>
        <time>2021-08-02T11:15:09.270Z</time>
      </trkpt>
      <trkpt lat="47.02034" lon="8.95214">
        <ele>861</ele>
        <time>2021-08-02T11:15:10.269Z</time>
      </trkpt>
      <trkpt lat="47.02034" lon="8.95213">
        <ele>860</ele>
        <time>2021-08-02T11:15:11.270Z</time>
      </trkpt>
      <trkpt lat="47.02034" lon="8.95211">
        <ele>860</ele>
        <time>2021-08-02T11:15:12.270Z</time>
      </trkpt>
      <trkpt lat="47.02035" lon="8.9521">
        <ele>860</ele>
        <time>2021-08-02T11:15:13.270Z</time>
      </trkpt>
      <trkpt lat="47.02036" lon="8.95209">
        <ele>860</ele>
        <time>2021-08-02T11:15:14.270Z</time>
      </trkpt>
      <trkpt lat="47.02036" lon="8.95207">
        <ele>860</ele>
        <time>2021-08-02T11:15:15.270Z</time>
      </trkpt>
      <trkpt lat="47.02037" lon="8.95206">
        <ele>860</ele>
        <time>2021-08-02T11:15:16.270Z</time>
      </trkpt>
      <trkpt lat="47.02037" lon="8.95204">
        <ele>860</ele>
        <time>2021-08-02T11:15:17.269Z</time>
      </trkpt>
      <trkpt lat="47.02038" lon="8.95203">
        <ele>860</ele>
        <time>2021-08-02T11:15:18.270Z</time>
      </trkpt>
      <trkpt lat="47.02039" lon="8.95202">
        <ele>860</ele>
        <time>2021-08-02T11:15:19.270Z</time>
      </trkpt>
      <trkpt lat="47.02038" lon="8.952">
        <ele>860</ele>
        <time>2021-08-02T11:15:20.270Z</time>
      </trkpt>
      <trkpt lat="47.02039" lon="8.95199">
        <ele>860</ele>
        <time>2021-08-02T11:15:21.270Z</time>
      </trkpt>
      <trkpt lat="47.02039" lon="8.95197">
        <ele>860</ele>
        <time>2021-08-02T11:15:22.270Z</time>
      </trkpt>
      <trkpt lat="47.0204" lon="8.95196">
        <ele>860</ele>
        <time>2021-08-02T11:15:23.269Z</time>
      </trkpt>
      <trkpt lat="47.0204" lon="8.95195">
        <ele>861</ele>
        <time>2021-08-02T11:15:24.270Z</time>
      </trkpt>
      <trkpt lat="47.02041" lon="8.95193">
        <ele>861</ele>
        <time>2021-08-02T11:15:25.269Z</time>
      </trkpt>
      <trkpt lat="47.02042" lon="8.95192">
        <ele>860</ele>
        <time>2021-08-02T11:15:26.270Z</time>
      </trkpt>
      <trkpt lat="47.02041" lon="8.9519">
        <ele>860</ele>
        <time>2021-08-02T11:15:27.270Z</time>
      </trkpt>
      <trkpt lat="47.02041" lon="8.9519">
        <ele>860</ele>
        <time>2021-08-02T11:15:28.270Z</time>
      </trkpt>
      <trkpt lat="47.02041" lon="8.95189">
        <ele>860</ele>
        <time>2021-08-02T11:15:29.270Z</time>
      </trkpt>
      <trkpt lat="47.02041" lon="8.95187">
        <ele>860</ele>
        <time>2021-08-02T11:15:30.269Z</time>
      </trkpt>
      <trkpt lat="47.02041" lon="8.95186">
        <ele>860</ele>
        <time>2021-08-02T11:15:31.270Z</time>
      </trkpt>
      <trkpt lat="47.0204" lon="8.95184">
        <ele>861</ele>
        <time>2021-08-02T11:15:32.269Z</time>
      </trkpt>
      <trkpt lat="47.0204" lon="8.95183">
        <ele>861</ele>
        <time>2021-08-02T11:15:33.269Z</time>
      </trkpt>
      <trkpt lat="47.02039" lon="8.95182">
        <ele>862</ele>
        <time>2021-08-02T11:15:34.270Z</time>
      </trkpt>
      <trkpt lat="47.02039" lon="8.9518">
        <ele>862</ele>
        <time>2021-08-02T11:15:35.270Z</time>
      </trkpt>
      <trkpt lat="47.02038" lon="8.95178">
        <ele>862</ele>
        <time>2021-08-02T11:15:36.269Z</time>
      </trkpt>
      <trkpt lat="47.02038" lon="8.95177">
        <ele>862</ele>
        <time>2021-08-02T11:15:37.269Z</time>
      </trkpt>
      <trkpt lat="47.02038" lon="8.95175">
        <ele>861</ele>
        <time>2021-08-02T11:15:38.269Z</time>
      </trkpt>
      <trkpt lat="47.02038" lon="8.95173">
        <ele>861</ele>
        <time>2021-08-02T11:15:39.270Z</time>
      </trkpt>
      <trkpt lat="47.02038" lon="8.95172">
        <ele>861</ele>
        <time>2021-08-02T11:15:40.270Z</time>
      </trkpt>
      <trkpt lat="47.02038" lon="8.95171">
        <ele>860</ele>
        <time>2021-08-02T11:15:41.270Z</time>
      </trkpt>
      <trkpt lat="47.02038" lon="8.95171">
        <ele>860</ele>
        <time>2021-08-02T11:15:42.270Z</time>
      </trkpt>
      <trkpt lat="47.02038" lon="8.9517">
        <ele>859</ele>
        <time>2021-08-02T11:15:43.270Z</time>
      </trkpt>
      <trkpt lat="47.02038" lon="8.95169">
        <ele>859</ele>
        <time>2021-08-02T11:15:44.270Z</time>
      </trkpt>
      <trkpt lat="47.02039" lon="8.95168">
        <ele>858</ele>
        <time>2021-08-02T11:15:45.270Z</time>
      </trkpt>
      <trkpt lat="47.0204" lon="8.95167">
        <ele>858</ele>
        <time>2021-08-02T11:15:46.269Z</time>
      </trkpt>
      <trkpt lat="47.02041" lon="8.95165">
        <ele>857</ele>
        <time>2021-08-02T11:15:47.270Z</time>
      </trkpt>
      <trkpt lat="47.02042" lon="8.95164">
        <ele>857</ele>
        <time>2021-08-02T11:15:48.270Z</time>
      </trkpt>
      <trkpt lat="47.02042" lon="8.95163">
        <ele>856</ele>
        <time>2021-08-02T11:15:49.270Z</time>
      </trkpt>
      <trkpt lat="47.02043" lon="8.95162">
        <ele>856</ele>
        <time>2021-08-02T11:15:50.269Z</time>
      </trkpt>
      <trkpt lat="47.02043" lon="8.95161">
        <ele>855</ele>
        <time>2021-08-02T11:15:51.270Z</time>
      </trkpt>
      <trkpt lat="47.02043" lon="8.9516">
        <ele>855</ele>
        <time>2021-08-02T11:15:52.270Z</time>
      </trkpt>
      <trkpt lat="47.02044" lon="8.95159">
        <ele>855</ele>
        <time>2021-08-02T11:15:53.270Z</time>
      </trkpt>
      <trkpt lat="47.02044" lon="8.95158">
        <ele>855</ele>
        <time>2021-08-02T11:15:54.270Z</time>
      </trkpt>
      <trkpt lat="47.02044" lon="8.95156">
        <ele>855</ele>
        <time>2021-08-02T11:15:55.270Z</time>
      </trkpt>
      <trkpt lat="47.02044" lon="8.95155">
        <ele>856</ele>
        <time>2021-08-02T11:15:56.269Z</time>
      </trkpt>
      <trkpt lat="47.02043" lon="8.95153">
        <ele>856</ele>
        <time>2021-08-02T11:15:57.270Z</time>
      </trkpt>
      <trkpt lat="47.02041" lon="8.95151">
        <ele>856</ele>
        <time>2021-08-02T11:15:58.269Z</time>
      </trkpt>
      <trkpt lat="47.0204" lon="8.9515">
        <ele>855</ele>
        <time>2021-08-02T11:15:59.269Z</time>
      </trkpt>
      <trkpt lat="47.0204" lon="8.95148">
        <ele>855</ele>
        <time>2021-08-02T11:16:08.406Z</time>
      </trkpt>
      <trkpt lat="47.02041" lon="8.95148">
        <ele>855</ele>
        <time>2021-08-02T11:16:12.136Z</time>
      </trkpt>
      <trkpt lat="47.02041" lon="8.95147">
        <ele>855</ele>
        <time>2021-08-02T11:16:13.136Z</time>
      </trkpt>
      <trkpt lat="47.02042" lon="8.95146">
        <ele>855</ele>
        <time>2021-08-02T11:16:14.137Z</time>
      </trkpt>
      <trkpt lat="47.02042" lon="8.95145">
        <ele>855</ele>
        <time>2021-08-02T11:16:28.166Z</time>
      </trkpt>
      <trkpt lat="47.02042" lon="8.95144">
        <ele>854</ele>
        <time>2021-08-02T11:16:29.165Z</time>
      </trkpt>
      <trkpt lat="47.02043" lon="8.95143">
        <ele>853</ele>
        <time>2021-08-02T11:16:30.166Z</time>
      </trkpt>
      <trkpt lat="47.02043" lon="8.95142">
        <ele>853</ele>
        <time>2021-08-02T11:16:31.166Z</time>
      </trkpt>
      <trkpt lat="47.02044" lon="8.95141">
        <ele>852</ele>
        <time>2021-08-02T11:16:32.166Z</time>
      </trkpt>
      <trkpt lat="47.02046" lon="8.9514">
        <ele>852</ele>
        <time>2021-08-02T11:16:33.166Z</time>
      </trkpt>
      <trkpt lat="47.02047" lon="8.95139">
        <ele>851</ele>
        <time>2021-08-02T11:16:34.166Z</time>
      </trkpt>
      <trkpt lat="47.02047" lon="8.95138">
        <ele>851</ele>
        <time>2021-08-02T11:16:35.166Z</time>
      </trkpt>
      <trkpt lat="47.02048" lon="8.95136">
        <ele>850</ele>
        <time>2021-08-02T11:16:36.166Z</time>
      </trkpt>
      <trkpt lat="47.02048" lon="8.95135">
        <ele>850</ele>
        <time>2021-08-02T11:16:37.166Z</time>
      </trkpt>
      <trkpt lat="47.02049" lon="8.95133">
        <ele>850</ele>
        <time>2021-08-02T11:16:38.165Z</time>
      </trkpt>
      <trkpt lat="47.0205" lon="8.95132">
        <ele>850</ele>
        <time>2021-08-02T11:16:39.166Z</time>
      </trkpt>
      <trkpt lat="47.0205" lon="8.9513">
        <ele>850</ele>
        <time>2021-08-02T11:16:40.165Z</time>
      </trkpt>
      <trkpt lat="47.0205" lon="8.95128">
        <ele>850</ele>
        <time>2021-08-02T11:16:41.166Z</time>
      </trkpt>
      <trkpt lat="47.0205" lon="8.95126">
        <ele>850</ele>
        <time>2021-08-02T11:16:42.166Z</time>
      </trkpt>
      <trkpt lat="47.0205" lon="8.95124">
        <ele>850</ele>
        <time>2021-08-02T11:16:43.166Z</time>
      </trkpt>
      <trkpt lat="47.0205" lon="8.95122">
        <ele>850</ele>
        <time>2021-08-02T11:16:44.165Z</time>
      </trkpt>
      <trkpt lat="47.0205" lon="8.9512">
        <ele>850</ele>
        <time>2021-08-02T11:16:45.165Z</time>
      </trkpt>
      <trkpt lat="47.0205" lon="8.95119">
        <ele>850</ele>
        <time>2021-08-02T11:16:46.166Z</time>
      </trkpt>
      <trkpt lat="47.0205" lon="8.95117">
        <ele>850</ele>
        <time>2021-08-02T11:16:47.166Z</time>
      </trkpt>
      <trkpt lat="47.0205" lon="8.95116">
        <ele>850</ele>
        <time>2021-08-02T11:16:48.166Z</time>
      </trkpt>
      <trkpt lat="47.02049" lon="8.95114">
        <ele>850</ele>
        <time>2021-08-02T11:16:49.166Z</time>
      </trkpt>
      <trkpt lat="47.02048" lon="8.95113">
        <ele>850</ele>
        <time>2021-08-02T11:16:50.165Z</time>
      </trkpt>
      <trkpt lat="47.02047" lon="8.95111">
        <ele>850</ele>
        <time>2021-08-02T11:16:51.166Z</time>
      </trkpt>
      <trkpt lat="47.02048" lon="8.9511">
        <ele>850</ele>
        <time>2021-08-02T11:16:52.166Z</time>
      </trkpt>
      <trkpt lat="47.02047" lon="8.95108">
        <ele>850</ele>
        <time>2021-08-02T11:16:53.166Z</time>
      </trkpt>
      <trkpt lat="47.02046" lon="8.95107">
        <ele>850</ele>
        <time>2021-08-02T11:16:54.166Z</time>
      </trkpt>
      <trkpt lat="47.02046" lon="8.95105">
        <ele>850</ele>
        <time>2021-08-02T11:16:55.166Z</time>
      </trkpt>
      <trkpt lat="47.02045" lon="8.95104">
        <ele>849</ele>
        <time>2021-08-02T11:16:56.166Z</time>
      </trkpt>
      <trkpt lat="47.02045" lon="8.95102">
        <ele>849</ele>
        <time>2021-08-02T11:16:57.166Z</time>
      </trkpt>
      <trkpt lat="47.02045" lon="8.95101">
        <ele>849</ele>
        <time>2021-08-02T11:16:58.166Z</time>
      </trkpt>
      <trkpt lat="47.02045" lon="8.95099">
        <ele>849</ele>
        <time>2021-08-02T11:16:59.165Z</time>
      </trkpt>
      <trkpt lat="47.02046" lon="8.95097">
        <ele>849</ele>
        <time>2021-08-02T11:17:00.166Z</time>
      </trkpt>
      <trkpt lat="47.02046" lon="8.95096">
        <ele>848</ele>
        <time>2021-08-02T11:17:01.165Z</time>
      </trkpt>
      <trkpt lat="47.02045" lon="8.95095">
        <ele>849</ele>
        <time>2021-08-02T11:17:02.166Z</time>
      </trkpt>
      <trkpt lat="47.02045" lon="8.95094">
        <ele>849</ele>
        <time>2021-08-02T11:17:03.166Z</time>
      </trkpt>
      <trkpt lat="47.02046" lon="8.95093">
        <ele>849</ele>
        <time>2021-08-02T11:17:04.166Z</time>
      </trkpt>
      <trkpt lat="47.02046" lon="8.95092">
        <ele>849</ele>
        <time>2021-08-02T11:17:05.166Z</time>
      </trkpt>
      <trkpt lat="47.02046" lon="8.95091">
        <ele>849</ele>
        <time>2021-08-02T11:17:06.166Z</time>
      </trkpt>
      <trkpt lat="47.02046" lon="8.9509">
        <ele>849</ele>
        <time>2021-08-02T11:17:07.166Z</time>
      </trkpt>
      <trkpt lat="47.02047" lon="8.95088">
        <ele>849</ele>
        <time>2021-08-02T11:17:08.165Z</time>
      </trkpt>
      <trkpt lat="47.02048" lon="8.95086">
        <ele>848</ele>
        <time>2021-08-02T11:17:09.166Z</time>
      </trkpt>
      <trkpt lat="47.02051" lon="8.95085">
        <ele>848</ele>
        <time>2021-08-02T11:17:10.165Z</time>
      </trkpt>
      <trkpt lat="47.02053" lon="8.95083">
        <ele>848</ele>
        <time>2021-08-02T11:17:11.165Z</time>
      </trkpt>
      <trkpt lat="47.02054" lon="8.95083">
        <ele>848</ele>
        <time>2021-08-02T11:17:12.165Z</time>
      </trkpt>
      <trkpt lat="47.02055" lon="8.95083">
        <ele>847</ele>
        <time>2021-08-02T11:17:13.166Z</time>
      </trkpt>
      <trkpt lat="47.02057" lon="8.95082">
        <ele>847</ele>
        <time>2021-08-02T11:17:14.166Z</time>
      </trkpt>
      <trkpt lat="47.02058" lon="8.95082">
        <ele>847</ele>
        <time>2021-08-02T11:17:15.166Z</time>
      </trkpt>
      <trkpt lat="47.02059" lon="8.95081">
        <ele>847</ele>
        <time>2021-08-02T11:17:16.165Z</time>
      </trkpt>
      <trkpt lat="47.02059" lon="8.9508">
        <ele>848</ele>
        <time>2021-08-02T11:17:17.165Z</time>
      </trkpt>
      <trkpt lat="47.0206" lon="8.95079">
        <ele>848</ele>
        <time>2021-08-02T11:17:18.165Z</time>
      </trkpt>
      <trkpt lat="47.02061" lon="8.95078">
        <ele>848</ele>
        <time>2021-08-02T11:17:19.165Z</time>
      </trkpt>
      <trkpt lat="47.02062" lon="8.95077">
        <ele>848</ele>
        <time>2021-08-02T11:17:20.166Z</time>
      </trkpt>
      <trkpt lat="47.02062" lon="8.95076">
        <ele>849</ele>
        <time>2021-08-02T11:17:21.166Z</time>
      </trkpt>
      <trkpt lat="47.02062" lon="8.95075">
        <ele>849</ele>
        <time>2021-08-02T11:17:22.166Z</time>
      </trkpt>
      <trkpt lat="47.02062" lon="8.95074">
        <ele>849</ele>
        <time>2021-08-02T11:17:23.166Z</time>
      </trkpt>
      <trkpt lat="47.02063" lon="8.95072">
        <ele>849</ele>
        <time>2021-08-02T11:17:24.166Z</time>
      </trkpt>
      <trkpt lat="47.02063" lon="8.95071">
        <ele>849</ele>
        <time>2021-08-02T11:17:25.166Z</time>
      </trkpt>
      <trkpt lat="47.02064" lon="8.95069">
        <ele>849</ele>
        <time>2021-08-02T11:17:26.166Z</time>
      </trkpt>
      <trkpt lat="47.02064" lon="8.95068">
        <ele>849</ele>
        <time>2021-08-02T11:17:27.165Z</time>
      </trkpt>
      <trkpt lat="47.02063" lon="8.95067">
        <ele>849</ele>
        <time>2021-08-02T11:17:28.165Z</time>
      </trkpt>
      <trkpt lat="47.02064" lon="8.95066">
        <ele>849</ele>
        <time>2021-08-02T11:17:29.166Z</time>
      </trkpt>
      <trkpt lat="47.02064" lon="8.95066">
        <ele>848</ele>
        <time>2021-08-02T11:17:30.166Z</time>
      </trkpt>
      <trkpt lat="47.02064" lon="8.95065">
        <ele>848</ele>
        <time>2021-08-02T11:17:31.166Z</time>
      </trkpt>
      <trkpt lat="47.02065" lon="8.95064">
        <ele>848</ele>
        <time>2021-08-02T11:17:32.166Z</time>
      </trkpt>
      <trkpt lat="47.02066" lon="8.95064">
        <ele>848</ele>
        <time>2021-08-02T11:17:33.165Z</time>
      </trkpt>
      <trkpt lat="47.02067" lon="8.95063">
        <ele>848</ele>
        <time>2021-08-02T11:17:34.166Z</time>
      </trkpt>
      <trkpt lat="47.02068" lon="8.95062">
        <ele>849</ele>
        <time>2021-08-02T11:17:35.166Z</time>
      </trkpt>
      <trkpt lat="47.02069" lon="8.95061">
        <ele>849</ele>
        <time>2021-08-02T11:17:36.165Z</time>
      </trkpt>
      <trkpt lat="47.02071" lon="8.9506">
        <ele>849</ele>
        <time>2021-08-02T11:17:37.166Z</time>
      </trkpt>
      <trkpt lat="47.02073" lon="8.95059">
        <ele>849</ele>
        <time>2021-08-02T11:17:38.165Z</time>
      </trkpt>
      <trkpt lat="47.02074" lon="8.95058">
        <ele>849</ele>
        <time>2021-08-02T11:17:39.166Z</time>
      </trkpt>
      <trkpt lat="47.02074" lon="8.95057">
        <ele>849</ele>
        <time>2021-08-02T11:17:40.165Z</time>
      </trkpt>
      <trkpt lat="47.02075" lon="8.95055">
        <ele>849</ele>
        <time>2021-08-02T11:17:41.165Z</time>
      </trkpt>
      <trkpt lat="47.02075" lon="8.95053">
        <ele>850</ele>
        <time>2021-08-02T11:17:42.166Z</time>
      </trkpt>
      <trkpt lat="47.02075" lon="8.95051">
        <ele>850</ele>
        <time>2021-08-02T11:17:43.166Z</time>
      </trkpt>
      <trkpt lat="47.02076" lon="8.95049">
        <ele>850</ele>
        <time>2021-08-02T11:17:44.166Z</time>
      </trkpt>
      <trkpt lat="47.02076" lon="8.95048">
        <ele>850</ele>
        <time>2021-08-02T11:17:45.166Z</time>
      </trkpt>
      <trkpt lat="47.02077" lon="8.95046">
        <ele>850</ele>
        <time>2021-08-02T11:17:46.166Z</time>
      </trkpt>
      <trkpt lat="47.02078" lon="8.95045">
        <ele>850</ele>
        <time>2021-08-02T11:17:47.166Z</time>
      </trkpt>
      <trkpt lat="47.02079" lon="8.95043">
        <ele>850</ele>
        <time>2021-08-02T11:17:48.165Z</time>
      </trkpt>
      <trkpt lat="47.0208" lon="8.95042">
        <ele>850</ele>
        <time>2021-08-02T11:17:49.166Z</time>
      </trkpt>
      <trkpt lat="47.02081" lon="8.95041">
        <ele>850</ele>
        <time>2021-08-02T11:17:50.166Z</time>
      </trkpt>
      <trkpt lat="47.0208" lon="8.9504">
        <ele>849</ele>
        <time>2021-08-02T11:17:51.166Z</time>
      </trkpt>
      <trkpt lat="47.0208" lon="8.95039">
        <ele>849</ele>
        <time>2021-08-02T11:17:52.165Z</time>
      </trkpt>
      <trkpt lat="47.02079" lon="8.95037">
        <ele>849</ele>
        <time>2021-08-02T11:17:53.166Z</time>
      </trkpt>
      <trkpt lat="47.0208" lon="8.95035">
        <ele>849</ele>
        <time>2021-08-02T11:17:54.166Z</time>
      </trkpt>
      <trkpt lat="47.02081" lon="8.95033">
        <ele>848</ele>
        <time>2021-08-02T11:17:55.166Z</time>
      </trkpt>
      <trkpt lat="47.02081" lon="8.95032">
        <ele>848</ele>
        <time>2021-08-02T11:17:56.166Z</time>
      </trkpt>
      <trkpt lat="47.02081" lon="8.95032">
        <ele>848</ele>
        <time>2021-08-02T11:17:57.165Z</time>
      </trkpt>
      <trkpt lat="47.02081" lon="8.95031">
        <ele>847</ele>
        <time>2021-08-02T11:17:58.166Z</time>
      </trkpt>
      <trkpt lat="47.02081" lon="8.95031">
        <ele>847</ele>
        <time>2021-08-02T11:17:59.166Z</time>
      </trkpt>
      <trkpt lat="47.02082" lon="8.9503">
        <ele>847</ele>
        <time>2021-08-02T11:18:00.166Z</time>
      </trkpt>
      <trkpt lat="47.02082" lon="8.95029">
        <ele>847</ele>
        <time>2021-08-02T11:18:01.166Z</time>
      </trkpt>
      <trkpt lat="47.02083" lon="8.95029">
        <ele>847</ele>
        <time>2021-08-02T11:18:02.166Z</time>
      </trkpt>
      <trkpt lat="47.02083" lon="8.95029">
        <ele>847</ele>
        <time>2021-08-02T11:18:03.166Z</time>
      </trkpt>
      <trkpt lat="47.02084" lon="8.95029">
        <ele>848</ele>
        <time>2021-08-02T11:18:04.166Z</time>
      </trkpt>
      <trkpt lat="47.02085" lon="8.95028">
        <ele>848</ele>
        <time>2021-08-02T11:18:05.166Z</time>
      </trkpt>
      <trkpt lat="47.02086" lon="8.95028">
        <ele>848</ele>
        <time>2021-08-02T11:18:06.166Z</time>
      </trkpt>
      <trkpt lat="47.02087" lon="8.95027">
        <ele>848</ele>
        <time>2021-08-02T11:18:07.166Z</time>
      </trkpt>
      <trkpt lat="47.02089" lon="8.95027">
        <ele>849</ele>
        <time>2021-08-02T11:18:08.166Z</time>
      </trkpt>
      <trkpt lat="47.0209" lon="8.95027">
        <ele>849</ele>
        <time>2021-08-02T11:18:09.166Z</time>
      </trkpt>
      <trkpt lat="47.02092" lon="8.95027">
        <ele>849</ele>
        <time>2021-08-02T11:18:10.166Z</time>
      </trkpt>
      <trkpt lat="47.02094" lon="8.95026">
        <ele>850</ele>
        <time>2021-08-02T11:18:11.165Z</time>
      </trkpt>
      <trkpt lat="47.02095" lon="8.95025">
        <ele>850</ele>
        <time>2021-08-02T11:18:12.166Z</time>
      </trkpt>
      <trkpt lat="47.02097" lon="8.95024">
        <ele>850</ele>
        <time>2021-08-02T11:18:13.165Z</time>
      </trkpt>
      <trkpt lat="47.02098" lon="8.95023">
        <ele>851</ele>
        <time>2021-08-02T11:18:14.166Z</time>
      </trkpt>
      <trkpt lat="47.021" lon="8.95023">
        <ele>851</ele>
        <time>2021-08-02T11:18:15.165Z</time>
      </trkpt>
      <trkpt lat="47.02101" lon="8.95023">
        <ele>852</ele>
        <time>2021-08-02T11:18:16.166Z</time>
      </trkpt>
      <trkpt lat="47.02102" lon="8.95022">
        <ele>852</ele>
        <time>2021-08-02T11:18:17.166Z</time>
      </trkpt>
      <trkpt lat="47.02103" lon="8.95022">
        <ele>853</ele>
        <time>2021-08-02T11:18:18.166Z</time>
      </trkpt>
      <trkpt lat="47.02104" lon="8.95021">
        <ele>854</ele>
        <time>2021-08-02T11:18:19.166Z</time>
      </trkpt>
      <trkpt lat="47.02105" lon="8.95021">
        <ele>855</ele>
        <time>2021-08-02T11:18:20.165Z</time>
      </trkpt>
      <trkpt lat="47.02106" lon="8.9502">
        <ele>856</ele>
        <time>2021-08-02T11:18:21.166Z</time>
      </trkpt>
      <trkpt lat="47.02107" lon="8.9502">
        <ele>856</ele>
        <time>2021-08-02T11:18:22.165Z</time>
      </trkpt>
      <trkpt lat="47.02108" lon="8.95019">
        <ele>856</ele>
        <time>2021-08-02T11:18:23.166Z</time>
      </trkpt>
      <trkpt lat="47.02109" lon="8.95018">
        <ele>857</ele>
        <time>2021-08-02T11:18:24.165Z</time>
      </trkpt>
      <trkpt lat="47.02109" lon="8.95017">
        <ele>857</ele>
        <time>2021-08-02T11:18:25.166Z</time>
      </trkpt>
      <trkpt lat="47.0211" lon="8.95016">
        <ele>857</ele>
        <time>2021-08-02T11:18:26.165Z</time>
      </trkpt>
      <trkpt lat="47.02111" lon="8.95015">
        <ele>858</ele>
        <time>2021-08-02T11:18:27.166Z</time>
      </trkpt>
      <trkpt lat="47.02112" lon="8.95014">
        <ele>858</ele>
        <time>2021-08-02T11:18:28.166Z</time>
      </trkpt>
      <trkpt lat="47.02113" lon="8.95014">
        <ele>858</ele>
        <time>2021-08-02T11:18:29.166Z</time>
      </trkpt>
      <trkpt lat="47.02116" lon="8.95013">
        <ele>859</ele>
        <time>2021-08-02T11:18:30.166Z</time>
      </trkpt>
      <trkpt lat="47.02118" lon="8.95012">
        <ele>859</ele>
        <time>2021-08-02T11:18:31.165Z</time>
      </trkpt>
      <trkpt lat="47.02119" lon="8.9501">
        <ele>858</ele>
        <time>2021-08-02T11:18:32.166Z</time>
      </trkpt>
      <trkpt lat="47.0212" lon="8.95009">
        <ele>858</ele>
        <time>2021-08-02T11:18:33.166Z</time>
      </trkpt>
      <trkpt lat="47.02121" lon="8.95009">
        <ele>858</ele>
        <time>2021-08-02T11:18:34.166Z</time>
      </trkpt>
      <trkpt lat="47.02123" lon="8.95008">
        <ele>858</ele>
        <time>2021-08-02T11:18:35.165Z</time>
      </trkpt>
      <trkpt lat="47.02124" lon="8.95008">
        <ele>857</ele>
        <time>2021-08-02T11:18:36.166Z</time>
      </trkpt>
      <trkpt lat="47.02125" lon="8.95007">
        <ele>857</ele>
        <time>2021-08-02T11:18:37.166Z</time>
      </trkpt>
      <trkpt lat="47.02125" lon="8.95006">
        <ele>856</ele>
        <time>2021-08-02T11:18:38.166Z</time>
      </trkpt>
      <trkpt lat="47.02126" lon="8.95006">
        <ele>856</ele>
        <time>2021-08-02T11:18:39.166Z</time>
      </trkpt>
      <trkpt lat="47.02127" lon="8.95004">
        <ele>856</ele>
        <time>2021-08-02T11:18:40.165Z</time>
      </trkpt>
      <trkpt lat="47.02128" lon="8.95003">
        <ele>856</ele>
        <time>2021-08-02T11:18:41.165Z</time>
      </trkpt>
      <trkpt lat="47.02129" lon="8.95002">
        <ele>856</ele>
        <time>2021-08-02T11:18:42.165Z</time>
      </trkpt>
      <trkpt lat="47.02129" lon="8.95002">
        <ele>855</ele>
        <time>2021-08-02T11:18:43.165Z</time>
      </trkpt>
      <trkpt lat="47.0213" lon="8.95002">
        <ele>855</ele>
        <time>2021-08-02T11:18:44.165Z</time>
      </trkpt>
      <trkpt lat="47.0213" lon="8.95002">
        <ele>855</ele>
        <time>2021-08-02T11:18:45.165Z</time>
      </trkpt>
      <trkpt lat="47.02131" lon="8.95001">
        <ele>855</ele>
        <time>2021-08-02T11:18:46.166Z</time>
      </trkpt>
      <trkpt lat="47.02133" lon="8.94999">
        <ele>855</ele>
        <time>2021-08-02T11:18:47.165Z</time>
      </trkpt>
      <trkpt lat="47.02133" lon="8.94999">
        <ele>855</ele>
        <time>2021-08-02T11:18:48.166Z</time>
      </trkpt>
      <trkpt lat="47.02134" lon="8.94998">
        <ele>855</ele>
        <time>2021-08-02T11:18:49.166Z</time>
      </trkpt>
      <trkpt lat="47.02134" lon="8.94998">
        <ele>855</ele>
        <time>2021-08-02T11:18:50.165Z</time>
      </trkpt>
      <trkpt lat="47.02134" lon="8.94997">
        <ele>855</ele>
        <time>2021-08-02T11:18:51.166Z</time>
      </trkpt>
      <trkpt lat="47.02134" lon="8.94995">
        <ele>855</ele>
        <time>2021-08-02T11:18:52.165Z</time>
      </trkpt>
      <trkpt lat="47.02134" lon="8.94995">
        <ele>855</ele>
        <time>2021-08-02T11:18:53.166Z</time>
      </trkpt>
      <trkpt lat="47.02135" lon="8.94994">
        <ele>855</ele>
        <time>2021-08-02T11:18:54.165Z</time>
      </trkpt>
      <trkpt lat="47.02135" lon="8.94994">
        <ele>855</ele>
        <time>2021-08-02T11:18:55.165Z</time>
      </trkpt>
      <trkpt lat="47.02136" lon="8.94993">
        <ele>856</ele>
        <time>2021-08-02T11:18:56.166Z</time>
      </trkpt>
      <trkpt lat="47.02137" lon="8.94993">
        <ele>856</ele>
        <time>2021-08-02T11:18:57.166Z</time>
      </trkpt>
      <trkpt lat="47.02137" lon="8.94991">
        <ele>856</ele>
        <time>2021-08-02T11:18:58.166Z</time>
      </trkpt>
      <trkpt lat="47.02138" lon="8.94991">
        <ele>856</ele>
        <time>2021-08-02T11:18:59.166Z</time>
      </trkpt>
      <trkpt lat="47.02138" lon="8.94991">
        <ele>856</ele>
        <time>2021-08-02T11:19:00.165Z</time>
      </trkpt>
      <trkpt lat="47.02139" lon="8.9499">
        <ele>856</ele>
        <time>2021-08-02T11:19:01.166Z</time>
      </trkpt>
      <trkpt lat="47.02139" lon="8.9499">
        <ele>855</ele>
        <time>2021-08-02T11:19:02.165Z</time>
      </trkpt>
      <trkpt lat="47.0214" lon="8.94991">
        <ele>855</ele>
        <time>2021-08-02T11:19:03.166Z</time>
      </trkpt>
      <trkpt lat="47.02141" lon="8.9499">
        <ele>854</ele>
        <time>2021-08-02T11:19:04.166Z</time>
      </trkpt>
      <trkpt lat="47.02141" lon="8.9499">
        <ele>854</ele>
        <time>2021-08-02T11:19:05.165Z</time>
      </trkpt>
      <trkpt lat="47.02142" lon="8.94989">
        <ele>854</ele>
        <time>2021-08-02T11:19:06.166Z</time>
      </trkpt>
      <trkpt lat="47.02144" lon="8.94988">
        <ele>853</ele>
        <time>2021-08-02T11:19:07.165Z</time>
      </trkpt>
      <trkpt lat="47.02145" lon="8.94987">
        <ele>853</ele>
        <time>2021-08-02T11:19:08.165Z</time>
      </trkpt>
      <trkpt lat="47.02146" lon="8.94986">
        <ele>852</ele>
        <time>2021-08-02T11:19:09.166Z</time>
      </trkpt>
      <trkpt lat="47.02146" lon="8.94985">
        <ele>852</ele>
        <time>2021-08-02T11:19:10.166Z</time>
      </trkpt>
      <trkpt lat="47.02147" lon="8.94984">
        <ele>851</ele>
        <time>2021-08-02T11:19:11.166Z</time>
      </trkpt>
      <trkpt lat="47.02147" lon="8.94983">
        <ele>851</ele>
        <time>2021-08-02T11:19:12.165Z</time>
      </trkpt>
      <trkpt lat="47.02148" lon="8.94982">
        <ele>851</ele>
        <time>2021-08-02T11:19:13.166Z</time>
      </trkpt>
      <trkpt lat="47.02149" lon="8.94981">
        <ele>851</ele>
        <time>2021-08-02T11:19:14.166Z</time>
      </trkpt>
      <trkpt lat="47.02149" lon="8.9498">
        <ele>851</ele>
        <time>2021-08-02T11:19:15.165Z</time>
      </trkpt>
      <trkpt lat="47.0215" lon="8.94979">
        <ele>851</ele>
        <time>2021-08-02T11:19:16.166Z</time>
      </trkpt>
      <trkpt lat="47.02151" lon="8.94979">
        <ele>851</ele>
        <time>2021-08-02T11:19:17.165Z</time>
      </trkpt>
      <trkpt lat="47.02151" lon="8.94979">
        <ele>851</ele>
        <time>2021-08-02T11:19:18.166Z</time>
      </trkpt>
      <trkpt lat="47.02152" lon="8.94977">
        <ele>851</ele>
        <time>2021-08-02T11:19:19.165Z</time>
      </trkpt>
      <trkpt lat="47.02154" lon="8.94976">
        <ele>851</ele>
        <time>2021-08-02T11:19:20.166Z</time>
      </trkpt>
      <trkpt lat="47.02155" lon="8.94974">
        <ele>852</ele>
        <time>2021-08-02T11:19:21.166Z</time>
      </trkpt>
      <trkpt lat="47.02156" lon="8.94973">
        <ele>852</ele>
        <time>2021-08-02T11:19:22.166Z</time>
      </trkpt>
      <trkpt lat="47.02157" lon="8.94972">
        <ele>852</ele>
        <time>2021-08-02T11:19:23.166Z</time>
      </trkpt>
      <trkpt lat="47.02157" lon="8.94971">
        <ele>851</ele>
        <time>2021-08-02T11:19:24.165Z</time>
      </trkpt>
      <trkpt lat="47.02158" lon="8.9497">
        <ele>851</ele>
        <time>2021-08-02T11:19:25.165Z</time>
      </trkpt>
      <trkpt lat="47.02159" lon="8.94969">
        <ele>851</ele>
        <time>2021-08-02T11:19:26.166Z</time>
      </trkpt>
      <trkpt lat="47.02159" lon="8.94968">
        <ele>851</ele>
        <time>2021-08-02T11:19:27.166Z</time>
      </trkpt>
      <trkpt lat="47.0216" lon="8.94967">
        <ele>851</ele>
        <time>2021-08-02T11:19:28.165Z</time>
      </trkpt>
      <trkpt lat="47.0216" lon="8.94966">
        <ele>851</ele>
        <time>2021-08-02T11:19:29.165Z</time>
      </trkpt>
      <trkpt lat="47.0216" lon="8.94964">
        <ele>851</ele>
        <time>2021-08-02T11:19:30.166Z</time>
      </trkpt>
      <trkpt lat="47.02161" lon="8.94962">
        <ele>851</ele>
        <time>2021-08-02T11:19:31.166Z</time>
      </trkpt>
      <trkpt lat="47.02161" lon="8.94961">
        <ele>851</ele>
        <time>2021-08-02T11:19:32.165Z</time>
      </trkpt>
      <trkpt lat="47.02162" lon="8.94959">
        <ele>851</ele>
        <time>2021-08-02T11:19:33.166Z</time>
      </trkpt>
      <trkpt lat="47.02162" lon="8.94957">
        <ele>852</ele>
        <time>2021-08-02T11:19:34.166Z</time>
      </trkpt>
      <trkpt lat="47.02163" lon="8.94956">
        <ele>852</ele>
        <time>2021-08-02T11:19:35.166Z</time>
      </trkpt>
      <trkpt lat="47.02163" lon="8.94954">
        <ele>852</ele>
        <time>2021-08-02T11:19:36.166Z</time>
      </trkpt>
      <trkpt lat="47.02163" lon="8.94953">
        <ele>852</ele>
        <time>2021-08-02T11:19:37.166Z</time>
      </trkpt>
      <trkpt lat="47.02164" lon="8.94953">
        <ele>853</ele>
        <time>2021-08-02T11:19:38.166Z</time>
      </trkpt>
      <trkpt lat="47.02164" lon="8.94951">
        <ele>853</ele>
        <time>2021-08-02T11:19:42.295Z</time>
      </trkpt>
      <trkpt lat="47.02165" lon="8.94951">
        <ele>853</ele>
        <time>2021-08-02T11:19:43.294Z</time>
      </trkpt>
      <trkpt lat="47.02165" lon="8.9495">
        <ele>853</ele>
        <time>2021-08-02T11:19:44.295Z</time>
      </trkpt>
      <trkpt lat="47.02165" lon="8.94948">
        <ele>853</ele>
        <time>2021-08-02T11:19:45.295Z</time>
      </trkpt>
      <trkpt lat="47.02166" lon="8.94947">
        <ele>853</ele>
        <time>2021-08-02T11:19:53.396Z</time>
      </trkpt>
      <trkpt lat="47.02167" lon="8.94946">
        <ele>854</ele>
        <time>2021-08-02T11:19:54.397Z</time>
      </trkpt>
      <trkpt lat="47.02168" lon="8.94945">
        <ele>854</ele>
        <time>2021-08-02T11:19:55.396Z</time>
      </trkpt>
      <trkpt lat="47.02168" lon="8.94943">
        <ele>854</ele>
        <time>2021-08-02T11:19:56.397Z</time>
      </trkpt>
      <trkpt lat="47.02168" lon="8.94942">
        <ele>854</ele>
        <time>2021-08-02T11:19:57.397Z</time>
      </trkpt>
      <trkpt lat="47.02169" lon="8.94941">
        <ele>854</ele>
        <time>2021-08-02T11:19:58.396Z</time>
      </trkpt>
      <trkpt lat="47.02169" lon="8.9494">
        <ele>855</ele>
        <time>2021-08-02T11:19:59.397Z</time>
      </trkpt>
      <trkpt lat="47.0217" lon="8.94939">
        <ele>855</ele>
        <time>2021-08-02T11:20:00.397Z</time>
      </trkpt>
      <trkpt lat="47.0217" lon="8.94937">
        <ele>855</ele>
        <time>2021-08-02T11:20:01.397Z</time>
      </trkpt>
      <trkpt lat="47.0217" lon="8.94936">
        <ele>855</ele>
        <time>2021-08-02T11:20:02.397Z</time>
      </trkpt>
      <trkpt lat="47.02171" lon="8.94932">
        <ele>855</ele>
        <time>2021-08-02T11:20:03.397Z</time>
      </trkpt>
      <trkpt lat="47.02172" lon="8.94931">
        <ele>855</ele>
        <time>2021-08-02T11:20:04.397Z</time>
      </trkpt>
      <trkpt lat="47.02173" lon="8.94929">
        <ele>855</ele>
        <time>2021-08-02T11:20:05.396Z</time>
      </trkpt>
      <trkpt lat="47.02173" lon="8.94927">
        <ele>855</ele>
        <time>2021-08-02T11:20:06.397Z</time>
      </trkpt>
      <trkpt lat="47.02172" lon="8.94926">
        <ele>855</ele>
        <time>2021-08-02T11:20:07.397Z</time>
      </trkpt>
      <trkpt lat="47.02173" lon="8.94925">
        <ele>855</ele>
        <time>2021-08-02T11:20:08.397Z</time>
      </trkpt>
      <trkpt lat="47.02173" lon="8.94923">
        <ele>855</ele>
        <time>2021-08-02T11:20:09.396Z</time>
      </trkpt>
      <trkpt lat="47.02173" lon="8.94922">
        <ele>855</ele>
        <time>2021-08-02T11:20:10.397Z</time>
      </trkpt>
      <trkpt lat="47.02172" lon="8.9492">
        <ele>854</ele>
        <time>2021-08-02T11:20:11.397Z</time>
      </trkpt>
      <trkpt lat="47.02173" lon="8.94919">
        <ele>854</ele>
        <time>2021-08-02T11:20:12.397Z</time>
      </trkpt>
      <trkpt lat="47.02173" lon="8.94918">
        <ele>854</ele>
        <time>2021-08-02T11:20:13.397Z</time>
      </trkpt>
      <trkpt lat="47.02174" lon="8.94915">
        <ele>854</ele>
        <time>2021-08-02T11:20:14.397Z</time>
      </trkpt>
      <trkpt lat="47.02174" lon="8.94913">
        <ele>855</ele>
        <time>2021-08-02T11:20:15.397Z</time>
      </trkpt>
      <trkpt lat="47.02174" lon="8.94911">
        <ele>855</ele>
        <time>2021-08-02T11:20:16.397Z</time>
      </trkpt>
      <trkpt lat="47.02175" lon="8.9491">
        <ele>855</ele>
        <time>2021-08-02T11:20:17.396Z</time>
      </trkpt>
      <trkpt lat="47.02176" lon="8.94909">
        <ele>856</ele>
        <time>2021-08-02T11:20:18.397Z</time>
      </trkpt>
      <trkpt lat="47.02176" lon="8.94907">
        <ele>856</ele>
        <time>2021-08-02T11:20:19.397Z</time>
      </trkpt>
      <trkpt lat="47.02176" lon="8.94906">
        <ele>856</ele>
        <time>2021-08-02T11:20:20.397Z</time>
      </trkpt>
      <trkpt lat="47.02176" lon="8.94905">
        <ele>855</ele>
        <time>2021-08-02T11:20:22.526Z</time>
      </trkpt>
      <trkpt lat="47.02176" lon="8.94903">
        <ele>855</ele>
        <time>2021-08-02T11:20:27.418Z</time>
      </trkpt>
      <trkpt lat="47.02176" lon="8.94902">
        <ele>854</ele>
        <time>2021-08-02T11:20:28.418Z</time>
      </trkpt>
      <trkpt lat="47.02176" lon="8.94901">
        <ele>854</ele>
        <time>2021-08-02T11:20:29.417Z</time>
      </trkpt>
      <trkpt lat="47.02177" lon="8.94899">
        <ele>854</ele>
        <time>2021-08-02T11:20:33.518Z</time>
      </trkpt>
      <trkpt lat="47.02178" lon="8.94897">
        <ele>854</ele>
        <time>2021-08-02T11:20:39.392Z</time>
      </trkpt>
      <trkpt lat="47.02179" lon="8.94895">
        <ele>854</ele>
        <time>2021-08-02T11:20:40.392Z</time>
      </trkpt>
      <trkpt lat="47.02179" lon="8.94893">
        <ele>855</ele>
        <time>2021-08-02T11:20:47.289Z</time>
      </trkpt>
      <trkpt lat="47.02179" lon="8.94891">
        <ele>855</ele>
        <time>2021-08-02T11:20:48.290Z</time>
      </trkpt>
      <trkpt lat="47.02179" lon="8.9489">
        <ele>856</ele>
        <time>2021-08-02T11:20:49.290Z</time>
      </trkpt>
      <trkpt lat="47.02179" lon="8.94888">
        <ele>856</ele>
        <time>2021-08-02T11:20:50.290Z</time>
      </trkpt>
      <trkpt lat="47.0218" lon="8.94887">
        <ele>857</ele>
        <time>2021-08-02T11:20:51.289Z</time>
      </trkpt>
      <trkpt lat="47.0218" lon="8.94885">
        <ele>858</ele>
        <time>2021-08-02T11:20:52.289Z</time>
      </trkpt>
      <trkpt lat="47.0218" lon="8.94884">
        <ele>858</ele>
        <time>2021-08-02T11:20:55.413Z</time>
      </trkpt>
      <trkpt lat="47.0218" lon="8.94882">
        <ele>859</ele>
        <time>2021-08-02T11:20:56.414Z</time>
      </trkpt>
      <trkpt lat="47.0218" lon="8.94881">
        <ele>859</ele>
        <time>2021-08-02T11:20:57.413Z</time>
      </trkpt>
      <trkpt lat="47.0218" lon="8.9488">
        <ele>859</ele>
        <time>2021-08-02T11:20:59.557Z</time>
      </trkpt>
      <trkpt lat="47.0218" lon="8.94878">
        <ele>859</ele>
        <time>2021-08-02T11:21:00.558Z</time>
      </trkpt>
      <trkpt lat="47.0218" lon="8.94876">
        <ele>860</ele>
        <time>2021-08-02T11:21:01.558Z</time>
      </trkpt>
      <trkpt lat="47.02181" lon="8.94874">
        <ele>860</ele>
        <time>2021-08-02T11:21:02.557Z</time>
      </trkpt>
      <trkpt lat="47.02182" lon="8.94872">
        <ele>861</ele>
        <time>2021-08-02T11:21:03.558Z</time>
      </trkpt>
      <trkpt lat="47.02182" lon="8.9487">
        <ele>861</ele>
        <time>2021-08-02T11:21:04.557Z</time>
      </trkpt>
      <trkpt lat="47.02182" lon="8.94869">
        <ele>861</ele>
        <time>2021-08-02T11:21:05.557Z</time>
      </trkpt>
      <trkpt lat="47.02183" lon="8.94867">
        <ele>861</ele>
        <time>2021-08-02T11:21:06.558Z</time>
      </trkpt>
      <trkpt lat="47.02183" lon="8.94865">
        <ele>861</ele>
        <time>2021-08-02T11:21:07.557Z</time>
      </trkpt>
      <trkpt lat="47.02183" lon="8.94862">
        <ele>862</ele>
        <time>2021-08-02T11:21:08.558Z</time>
      </trkpt>
      <trkpt lat="47.02183" lon="8.9486">
        <ele>862</ele>
        <time>2021-08-02T11:21:09.557Z</time>
      </trkpt>
      <trkpt lat="47.02183" lon="8.94859">
        <ele>862</ele>
        <time>2021-08-02T11:21:10.558Z</time>
      </trkpt>
      <trkpt lat="47.02183" lon="8.94859">
        <ele>862</ele>
        <time>2021-08-02T11:21:11.558Z</time>
      </trkpt>
      <trkpt lat="47.02183" lon="8.94855">
        <ele>860</ele>
        <time>2021-08-02T11:21:12.559Z</time>
      </trkpt>
      <trkpt lat="47.02183" lon="8.94854">
        <ele>860</ele>
        <time>2021-08-02T11:21:13.558Z</time>
      </trkpt>
      <trkpt lat="47.02182" lon="8.94852">
        <ele>860</ele>
        <time>2021-08-02T11:21:14.559Z</time>
      </trkpt>
      <trkpt lat="47.02182" lon="8.94851">
        <ele>860</ele>
        <time>2021-08-02T11:21:15.558Z</time>
      </trkpt>
      <trkpt lat="47.02183" lon="8.9485">
        <ele>860</ele>
        <time>2021-08-02T11:21:16.558Z</time>
      </trkpt>
      <trkpt lat="47.02183" lon="8.94848">
        <ele>860</ele>
        <time>2021-08-02T11:21:17.558Z</time>
      </trkpt>
      <trkpt lat="47.02183" lon="8.94847">
        <ele>860</ele>
        <time>2021-08-02T11:21:18.558Z</time>
      </trkpt>
      <trkpt lat="47.02183" lon="8.94846">
        <ele>859</ele>
        <time>2021-08-02T11:21:19.558Z</time>
      </trkpt>
      <trkpt lat="47.02183" lon="8.94844">
        <ele>859</ele>
        <time>2021-08-02T11:21:20.558Z</time>
      </trkpt>
      <trkpt lat="47.02182" lon="8.94843">
        <ele>860</ele>
        <time>2021-08-02T11:21:21.558Z</time>
      </trkpt>
      <trkpt lat="47.02182" lon="8.94842">
        <ele>859</ele>
        <time>2021-08-02T11:21:22.558Z</time>
      </trkpt>
      <trkpt lat="47.02182" lon="8.9484">
        <ele>859</ele>
        <time>2021-08-02T11:21:24.636Z</time>
      </trkpt>
      <trkpt lat="47.02182" lon="8.94838">
        <ele>859</ele>
        <time>2021-08-02T11:21:25.636Z</time>
      </trkpt>
      <trkpt lat="47.02182" lon="8.94836">
        <ele>860</ele>
        <time>2021-08-02T11:21:26.636Z</time>
      </trkpt>
      <trkpt lat="47.02182" lon="8.94833">
        <ele>859</ele>
        <time>2021-08-02T11:21:27.636Z</time>
      </trkpt>
      <trkpt lat="47.02182" lon="8.94832">
        <ele>859</ele>
        <time>2021-08-02T11:21:28.636Z</time>
      </trkpt>
      <trkpt lat="47.02182" lon="8.9483">
        <ele>859</ele>
        <time>2021-08-02T11:21:29.636Z</time>
      </trkpt>
      <trkpt lat="47.02182" lon="8.94829">
        <ele>859</ele>
        <time>2021-08-02T11:21:30.636Z</time>
      </trkpt>
      <trkpt lat="47.02182" lon="8.94827">
        <ele>859</ele>
        <time>2021-08-02T11:21:31.636Z</time>
      </trkpt>
      <trkpt lat="47.02182" lon="8.94826">
        <ele>859</ele>
        <time>2021-08-02T11:21:32.636Z</time>
      </trkpt>
      <trkpt lat="47.02183" lon="8.94825">
        <ele>859</ele>
        <time>2021-08-02T11:21:33.636Z</time>
      </trkpt>
      <trkpt lat="47.02183" lon="8.94824">
        <ele>859</ele>
        <time>2021-08-02T11:21:34.636Z</time>
      </trkpt>
      <trkpt lat="47.02183" lon="8.94822">
        <ele>859</ele>
        <time>2021-08-02T11:21:35.637Z</time>
      </trkpt>
      <trkpt lat="47.02184" lon="8.9482">
        <ele>859</ele>
        <time>2021-08-02T11:21:36.637Z</time>
      </trkpt>
      <trkpt lat="47.02183" lon="8.94818">
        <ele>859</ele>
        <time>2021-08-02T11:21:37.636Z</time>
      </trkpt>
      <trkpt lat="47.02183" lon="8.94816">
        <ele>859</ele>
        <time>2021-08-02T11:21:38.636Z</time>
      </trkpt>
      <trkpt lat="47.02183" lon="8.94815">
        <ele>859</ele>
        <time>2021-08-02T11:21:39.636Z</time>
      </trkpt>
      <trkpt lat="47.02184" lon="8.94812">
        <ele>859</ele>
        <time>2021-08-02T11:21:40.636Z</time>
      </trkpt>
      <trkpt lat="47.02184" lon="8.94809">
        <ele>859</ele>
        <time>2021-08-02T11:21:41.636Z</time>
      </trkpt>
      <trkpt lat="47.02185" lon="8.94807">
        <ele>859</ele>
        <time>2021-08-02T11:21:42.636Z</time>
      </trkpt>
      <trkpt lat="47.02186" lon="8.94804">
        <ele>859</ele>
        <time>2021-08-02T11:21:43.636Z</time>
      </trkpt>
      <trkpt lat="47.02186" lon="8.94802">
        <ele>859</ele>
        <time>2021-08-02T11:21:44.637Z</time>
      </trkpt>
      <trkpt lat="47.02186" lon="8.948">
        <ele>859</ele>
        <time>2021-08-02T11:21:45.637Z</time>
      </trkpt>
      <trkpt lat="47.02186" lon="8.94799">
        <ele>859</ele>
        <time>2021-08-02T11:21:46.636Z</time>
      </trkpt>
      <trkpt lat="47.02187" lon="8.94798">
        <ele>859</ele>
        <time>2021-08-02T11:21:47.637Z</time>
      </trkpt>
      <trkpt lat="47.02187" lon="8.94797">
        <ele>859</ele>
        <time>2021-08-02T11:21:48.636Z</time>
      </trkpt>
      <trkpt lat="47.02186" lon="8.94795">
        <ele>859</ele>
        <time>2021-08-02T11:21:49.637Z</time>
      </trkpt>
      <trkpt lat="47.02186" lon="8.94794">
        <ele>860</ele>
        <time>2021-08-02T11:21:50.636Z</time>
      </trkpt>
      <trkpt lat="47.02187" lon="8.94792">
        <ele>860</ele>
        <time>2021-08-02T11:21:51.637Z</time>
      </trkpt>
      <trkpt lat="47.02187" lon="8.9479">
        <ele>860</ele>
        <time>2021-08-02T11:21:52.636Z</time>
      </trkpt>
      <trkpt lat="47.02187" lon="8.94788">
        <ele>861</ele>
        <time>2021-08-02T11:21:53.637Z</time>
      </trkpt>
      <trkpt lat="47.02187" lon="8.94787">
        <ele>861</ele>
        <time>2021-08-02T11:21:54.636Z</time>
      </trkpt>
      <trkpt lat="47.02187" lon="8.94786">
        <ele>861</ele>
        <time>2021-08-02T11:21:55.637Z</time>
      </trkpt>
      <trkpt lat="47.02187" lon="8.94785">
        <ele>861</ele>
        <time>2021-08-02T11:21:56.636Z</time>
      </trkpt>
      <trkpt lat="47.02187" lon="8.94783">
        <ele>861</ele>
        <time>2021-08-02T11:21:57.637Z</time>
      </trkpt>
      <trkpt lat="47.02187" lon="8.94781">
        <ele>861</ele>
        <time>2021-08-02T11:21:58.636Z</time>
      </trkpt>
      <trkpt lat="47.02187" lon="8.94779">
        <ele>861</ele>
        <time>2021-08-02T11:22:01.766Z</time>
      </trkpt>
      <trkpt lat="47.02188" lon="8.94777">
        <ele>861</ele>
        <time>2021-08-02T11:22:02.766Z</time>
      </trkpt>
      <trkpt lat="47.02189" lon="8.94776">
        <ele>861</ele>
        <time>2021-08-02T11:22:03.766Z</time>
      </trkpt>
      <trkpt lat="47.02189" lon="8.94774">
        <ele>861</ele>
        <time>2021-08-02T11:22:04.766Z</time>
      </trkpt>
      <trkpt lat="47.02189" lon="8.94773">
        <ele>861</ele>
        <time>2021-08-02T11:22:05.766Z</time>
      </trkpt>
      <trkpt lat="47.02189" lon="8.94771">
        <ele>861</ele>
        <time>2021-08-02T11:22:06.766Z</time>
      </trkpt>
      <trkpt lat="47.02189" lon="8.9477">
        <ele>861</ele>
        <time>2021-08-02T11:22:07.766Z</time>
      </trkpt>
      <trkpt lat="47.02189" lon="8.94768">
        <ele>860</ele>
        <time>2021-08-02T11:22:08.766Z</time>
      </trkpt>
      <trkpt lat="47.02189" lon="8.94766">
        <ele>860</ele>
        <time>2021-08-02T11:22:09.766Z</time>
      </trkpt>
      <trkpt lat="47.02189" lon="8.94764">
        <ele>859</ele>
        <time>2021-08-02T11:22:10.766Z</time>
      </trkpt>
      <trkpt lat="47.0219" lon="8.94762">
        <ele>859</ele>
        <time>2021-08-02T11:22:11.766Z</time>
      </trkpt>
      <trkpt lat="47.0219" lon="8.94761">
        <ele>858</ele>
        <time>2021-08-02T11:22:12.766Z</time>
      </trkpt>
      <trkpt lat="47.02189" lon="8.94759">
        <ele>858</ele>
        <time>2021-08-02T11:22:13.766Z</time>
      </trkpt>
      <trkpt lat="47.02188" lon="8.94758">
        <ele>858</ele>
        <time>2021-08-02T11:22:14.766Z</time>
      </trkpt>
      <trkpt lat="47.02188" lon="8.94757">
        <ele>858</ele>
        <time>2021-08-02T11:22:15.766Z</time>
      </trkpt>
      <trkpt lat="47.02187" lon="8.94754">
        <ele>858</ele>
        <time>2021-08-02T11:22:17.768Z</time>
      </trkpt>
      <trkpt lat="47.02187" lon="8.94752">
        <ele>858</ele>
        <time>2021-08-02T11:22:18.768Z</time>
      </trkpt>
      <trkpt lat="47.02186" lon="8.9475">
        <ele>858</ele>
        <time>2021-08-02T11:22:19.768Z</time>
      </trkpt>
      <trkpt lat="47.02185" lon="8.94747">
        <ele>858</ele>
        <time>2021-08-02T11:22:20.768Z</time>
      </trkpt>
      <trkpt lat="47.02184" lon="8.94746">
        <ele>858</ele>
        <time>2021-08-02T11:22:21.768Z</time>
      </trkpt>
      <trkpt lat="47.02183" lon="8.94745">
        <ele>858</ele>
        <time>2021-08-02T11:22:22.768Z</time>
      </trkpt>
      <trkpt lat="47.02182" lon="8.94744">
        <ele>858</ele>
        <time>2021-08-02T11:22:23.768Z</time>
      </trkpt>
      <trkpt lat="47.02181" lon="8.94743">
        <ele>858</ele>
        <time>2021-08-02T11:22:24.769Z</time>
      </trkpt>
      <trkpt lat="47.02181" lon="8.94741">
        <ele>858</ele>
        <time>2021-08-02T11:22:25.768Z</time>
      </trkpt>
      <trkpt lat="47.0218" lon="8.9474">
        <ele>858</ele>
        <time>2021-08-02T11:22:26.768Z</time>
      </trkpt>
      <trkpt lat="47.0218" lon="8.94738">
        <ele>857</ele>
        <time>2021-08-02T11:22:27.768Z</time>
      </trkpt>
      <trkpt lat="47.02179" lon="8.94736">
        <ele>857</ele>
        <time>2021-08-02T11:22:28.768Z</time>
      </trkpt>
      <trkpt lat="47.02179" lon="8.94735">
        <ele>857</ele>
        <time>2021-08-02T11:22:29.768Z</time>
      </trkpt>
      <trkpt lat="47.02179" lon="8.94734">
        <ele>857</ele>
        <time>2021-08-02T11:22:30.768Z</time>
      </trkpt>
      <trkpt lat="47.02177" lon="8.94731">
        <ele>857</ele>
        <time>2021-08-02T11:22:31.768Z</time>
      </trkpt>
      <trkpt lat="47.02176" lon="8.94729">
        <ele>857</ele>
        <time>2021-08-02T11:22:32.769Z</time>
      </trkpt>
      <trkpt lat="47.02175" lon="8.94727">
        <ele>857</ele>
        <time>2021-08-02T11:22:33.769Z</time>
      </trkpt>
      <trkpt lat="47.02174" lon="8.94725">
        <ele>856</ele>
        <time>2021-08-02T11:22:34.768Z</time>
      </trkpt>
      <trkpt lat="47.02173" lon="8.94723">
        <ele>856</ele>
        <time>2021-08-02T11:22:35.768Z</time>
      </trkpt>
      <trkpt lat="47.02171" lon="8.94721">
        <ele>856</ele>
        <time>2021-08-02T11:22:36.768Z</time>
      </trkpt>
      <trkpt lat="47.0217" lon="8.9472">
        <ele>856</ele>
        <time>2021-08-02T11:22:37.768Z</time>
      </trkpt>
      <trkpt lat="47.0217" lon="8.94719">
        <ele>856</ele>
        <time>2021-08-02T11:22:38.768Z</time>
      </trkpt>
      <trkpt lat="47.02169" lon="8.94717">
        <ele>856</ele>
        <time>2021-08-02T11:22:39.768Z</time>
      </trkpt>
      <trkpt lat="47.02168" lon="8.94716">
        <ele>857</ele>
        <time>2021-08-02T11:22:40.768Z</time>
      </trkpt>
      <trkpt lat="47.02168" lon="8.94714">
        <ele>857</ele>
        <time>2021-08-02T11:22:41.768Z</time>
      </trkpt>
      <trkpt lat="47.02168" lon="8.94713">
        <ele>857</ele>
        <time>2021-08-02T11:22:42.768Z</time>
      </trkpt>
      <trkpt lat="47.02168" lon="8.94712">
        <ele>857</ele>
        <time>2021-08-02T11:22:43.768Z</time>
      </trkpt>
      <trkpt lat="47.02168" lon="8.94711">
        <ele>858</ele>
        <time>2021-08-02T11:22:44.768Z</time>
      </trkpt>
      <trkpt lat="47.02167" lon="8.9471">
        <ele>858</ele>
        <time>2021-08-02T11:22:45.768Z</time>
      </trkpt>
      <trkpt lat="47.02166" lon="8.94706">
        <ele>858</ele>
        <time>2021-08-02T11:22:46.768Z</time>
      </trkpt>
      <trkpt lat="47.02166" lon="8.94702">
        <ele>859</ele>
        <time>2021-08-02T11:22:47.768Z</time>
      </trkpt>
      <trkpt lat="47.02165" lon="8.947">
        <ele>859</ele>
        <time>2021-08-02T11:22:48.768Z</time>
      </trkpt>
      <trkpt lat="47.02165" lon="8.94698">
        <ele>859</ele>
        <time>2021-08-02T11:22:49.768Z</time>
      </trkpt>
      <trkpt lat="47.02164" lon="8.94696">
        <ele>859</ele>
        <time>2021-08-02T11:22:50.768Z</time>
      </trkpt>
      <trkpt lat="47.02163" lon="8.94695">
        <ele>859</ele>
        <time>2021-08-02T11:22:51.768Z</time>
      </trkpt>
      <trkpt lat="47.02162" lon="8.94693">
        <ele>859</ele>
        <time>2021-08-02T11:22:52.769Z</time>
      </trkpt>
      <trkpt lat="47.02161" lon="8.94692">
        <ele>860</ele>
        <time>2021-08-02T11:22:53.768Z</time>
      </trkpt>
      <trkpt lat="47.02161" lon="8.94691">
        <ele>859</ele>
        <time>2021-08-02T11:22:54.769Z</time>
      </trkpt>
      <trkpt lat="47.0216" lon="8.9469">
        <ele>859</ele>
        <time>2021-08-02T11:22:55.768Z</time>
      </trkpt>
      <trkpt lat="47.02161" lon="8.94688">
        <ele>859</ele>
        <time>2021-08-02T11:22:56.768Z</time>
      </trkpt>
      <trkpt lat="47.02161" lon="8.94687">
        <ele>859</ele>
        <time>2021-08-02T11:22:57.768Z</time>
      </trkpt>
      <trkpt lat="47.0216" lon="8.94686">
        <ele>859</ele>
        <time>2021-08-02T11:22:58.768Z</time>
      </trkpt>
      <trkpt lat="47.0216" lon="8.94684">
        <ele>859</ele>
        <time>2021-08-02T11:22:59.769Z</time>
      </trkpt>
      <trkpt lat="47.02159" lon="8.94682">
        <ele>860</ele>
        <time>2021-08-02T11:23:00.768Z</time>
      </trkpt>
      <trkpt lat="47.02159" lon="8.9468">
        <ele>860</ele>
        <time>2021-08-02T11:23:01.768Z</time>
      </trkpt>
      <trkpt lat="47.02158" lon="8.94679">
        <ele>860</ele>
        <time>2021-08-02T11:23:02.768Z</time>
      </trkpt>
      <trkpt lat="47.02158" lon="8.94677">
        <ele>860</ele>
        <time>2021-08-02T11:23:03.768Z</time>
      </trkpt>
      <trkpt lat="47.02158" lon="8.94675">
        <ele>860</ele>
        <time>2021-08-02T11:23:04.768Z</time>
      </trkpt>
      <trkpt lat="47.02158" lon="8.94674">
        <ele>860</ele>
        <time>2021-08-02T11:23:05.769Z</time>
      </trkpt>
      <trkpt lat="47.02158" lon="8.94672">
        <ele>860</ele>
        <time>2021-08-02T11:23:06.768Z</time>
      </trkpt>
      <trkpt lat="47.02158" lon="8.94671">
        <ele>860</ele>
        <time>2021-08-02T11:23:07.768Z</time>
      </trkpt>
      <trkpt lat="47.02157" lon="8.94669">
        <ele>860</ele>
        <time>2021-08-02T11:23:08.769Z</time>
      </trkpt>
      <trkpt lat="47.02157" lon="8.94667">
        <ele>861</ele>
        <time>2021-08-02T11:23:09.768Z</time>
      </trkpt>
      <trkpt lat="47.02156" lon="8.94665">
        <ele>861</ele>
        <time>2021-08-02T11:23:10.768Z</time>
      </trkpt>
      <trkpt lat="47.02156" lon="8.94663">
        <ele>861</ele>
        <time>2021-08-02T11:23:11.768Z</time>
      </trkpt>
      <trkpt lat="47.02156" lon="8.94662">
        <ele>862</ele>
        <time>2021-08-02T11:23:12.768Z</time>
      </trkpt>
      <trkpt lat="47.02156" lon="8.94661">
        <ele>862</ele>
        <time>2021-08-02T11:23:13.768Z</time>
      </trkpt>
      <trkpt lat="47.02156" lon="8.94659">
        <ele>863</ele>
        <time>2021-08-02T11:23:14.768Z</time>
      </trkpt>
      <trkpt lat="47.02156" lon="8.94657">
        <ele>864</ele>
        <time>2021-08-02T11:23:15.768Z</time>
      </trkpt>
      <trkpt lat="47.02155" lon="8.94656">
        <ele>864</ele>
        <time>2021-08-02T11:23:16.768Z</time>
      </trkpt>
      <trkpt lat="47.02154" lon="8.94655">
        <ele>865</ele>
        <time>2021-08-02T11:23:17.768Z</time>
      </trkpt>
      <trkpt lat="47.02154" lon="8.94654">
        <ele>865</ele>
        <time>2021-08-02T11:23:18.769Z</time>
      </trkpt>
      <trkpt lat="47.02153" lon="8.94652">
        <ele>865</ele>
        <time>2021-08-02T11:23:19.768Z</time>
      </trkpt>
      <trkpt lat="47.02152" lon="8.94651">
        <ele>865</ele>
        <time>2021-08-02T11:23:20.768Z</time>
      </trkpt>
      <trkpt lat="47.02151" lon="8.94651">
        <ele>866</ele>
        <time>2021-08-02T11:23:21.768Z</time>
      </trkpt>
      <trkpt lat="47.02151" lon="8.9465">
        <ele>866</ele>
        <time>2021-08-02T11:23:22.769Z</time>
      </trkpt>
      <trkpt lat="47.02149" lon="8.94648">
        <ele>866</ele>
        <time>2021-08-02T11:23:23.769Z</time>
      </trkpt>
      <trkpt lat="47.02148" lon="8.94646">
        <ele>866</ele>
        <time>2021-08-02T11:23:24.768Z</time>
      </trkpt>
      <trkpt lat="47.02147" lon="8.94645">
        <ele>866</ele>
        <time>2021-08-02T11:23:25.768Z</time>
      </trkpt>
      <trkpt lat="47.02145" lon="8.94643">
        <ele>866</ele>
        <time>2021-08-02T11:23:26.768Z</time>
      </trkpt>
      <trkpt lat="47.02144" lon="8.94641">
        <ele>866</ele>
        <time>2021-08-02T11:23:27.768Z</time>
      </trkpt>
      <trkpt lat="47.02141" lon="8.9464">
        <ele>866</ele>
        <time>2021-08-02T11:23:28.769Z</time>
      </trkpt>
      <trkpt lat="47.02139" lon="8.94639">
        <ele>866</ele>
        <time>2021-08-02T11:23:29.768Z</time>
      </trkpt>
      <trkpt lat="47.02138" lon="8.94639">
        <ele>866</ele>
        <time>2021-08-02T11:23:30.769Z</time>
      </trkpt>
      <trkpt lat="47.02138" lon="8.94639">
        <ele>866</ele>
        <time>2021-08-02T11:23:31.768Z</time>
      </trkpt>
      <trkpt lat="47.02136" lon="8.94638">
        <ele>866</ele>
        <time>2021-08-02T11:23:32.768Z</time>
      </trkpt>
      <trkpt lat="47.02135" lon="8.94636">
        <ele>866</ele>
        <time>2021-08-02T11:23:33.768Z</time>
      </trkpt>
      <trkpt lat="47.02134" lon="8.94635">
        <ele>866</ele>
        <time>2021-08-02T11:23:34.768Z</time>
      </trkpt>
      <trkpt lat="47.02133" lon="8.94634">
        <ele>866</ele>
        <time>2021-08-02T11:23:35.768Z</time>
      </trkpt>
      <trkpt lat="47.02133" lon="8.94633">
        <ele>866</ele>
        <time>2021-08-02T11:23:36.768Z</time>
      </trkpt>
      <trkpt lat="47.02132" lon="8.94633">
        <ele>866</ele>
        <time>2021-08-02T11:23:37.768Z</time>
      </trkpt>
      <trkpt lat="47.02132" lon="8.94633">
        <ele>865</ele>
        <time>2021-08-02T11:23:38.769Z</time>
      </trkpt>
      <trkpt lat="47.02131" lon="8.94633">
        <ele>865</ele>
        <time>2021-08-02T11:23:39.769Z</time>
      </trkpt>
      <trkpt lat="47.0213" lon="8.94632">
        <ele>865</ele>
        <time>2021-08-02T11:23:40.769Z</time>
      </trkpt>
      <trkpt lat="47.02128" lon="8.9463">
        <ele>864</ele>
        <time>2021-08-02T11:23:41.768Z</time>
      </trkpt>
      <trkpt lat="47.02127" lon="8.94628">
        <ele>864</ele>
        <time>2021-08-02T11:23:42.769Z</time>
      </trkpt>
      <trkpt lat="47.02126" lon="8.94625">
        <ele>864</ele>
        <time>2021-08-02T11:23:43.768Z</time>
      </trkpt>
      <trkpt lat="47.02126" lon="8.94623">
        <ele>863</ele>
        <time>2021-08-02T11:23:44.768Z</time>
      </trkpt>
      <trkpt lat="47.02126" lon="8.94621">
        <ele>863</ele>
        <time>2021-08-02T11:23:45.769Z</time>
      </trkpt>
      <trkpt lat="47.02124" lon="8.9462">
        <ele>863</ele>
        <time>2021-08-02T11:23:46.768Z</time>
      </trkpt>
      <trkpt lat="47.02122" lon="8.94619">
        <ele>862</ele>
        <time>2021-08-02T11:23:47.769Z</time>
      </trkpt>
      <trkpt lat="47.0212" lon="8.9462">
        <ele>862</ele>
        <time>2021-08-02T11:23:48.769Z</time>
      </trkpt>
      <trkpt lat="47.02118" lon="8.9462">
        <ele>862</ele>
        <time>2021-08-02T11:23:49.769Z</time>
      </trkpt>
      <trkpt lat="47.02117" lon="8.94619">
        <ele>861</ele>
        <time>2021-08-02T11:23:50.769Z</time>
      </trkpt>
      <trkpt lat="47.02117" lon="8.94619">
        <ele>861</ele>
        <time>2021-08-02T11:23:51.769Z</time>
      </trkpt>
      <trkpt lat="47.02116" lon="8.94619">
        <ele>860</ele>
        <time>2021-08-02T11:23:52.769Z</time>
      </trkpt>
      <trkpt lat="47.02116" lon="8.94619">
        <ele>860</ele>
        <time>2021-08-02T11:23:53.768Z</time>
      </trkpt>
      <trkpt lat="47.02115" lon="8.94618">
        <ele>859</ele>
        <time>2021-08-02T11:23:54.768Z</time>
      </trkpt>
      <trkpt lat="47.02114" lon="8.94617">
        <ele>859</ele>
        <time>2021-08-02T11:23:55.768Z</time>
      </trkpt>
      <trkpt lat="47.02114" lon="8.94617">
        <ele>859</ele>
        <time>2021-08-02T11:23:56.768Z</time>
      </trkpt>
      <trkpt lat="47.02113" lon="8.94615">
        <ele>859</ele>
        <time>2021-08-02T11:23:57.768Z</time>
      </trkpt>
      <trkpt lat="47.02112" lon="8.94614">
        <ele>859</ele>
        <time>2021-08-02T11:23:58.768Z</time>
      </trkpt>
      <trkpt lat="47.02111" lon="8.94613">
        <ele>859</ele>
        <time>2021-08-02T11:23:59.768Z</time>
      </trkpt>
      <trkpt lat="47.0211" lon="8.94611">
        <ele>859</ele>
        <time>2021-08-02T11:24:00.769Z</time>
      </trkpt>
      <trkpt lat="47.0211" lon="8.94609">
        <ele>858</ele>
        <time>2021-08-02T11:24:01.769Z</time>
      </trkpt>
      <trkpt lat="47.02109" lon="8.94608">
        <ele>858</ele>
        <time>2021-08-02T11:24:02.769Z</time>
      </trkpt>
      <trkpt lat="47.02108" lon="8.94606">
        <ele>858</ele>
        <time>2021-08-02T11:24:03.768Z</time>
      </trkpt>
      <trkpt lat="47.02108" lon="8.94604">
        <ele>858</ele>
        <time>2021-08-02T11:24:04.768Z</time>
      </trkpt>
      <trkpt lat="47.02107" lon="8.94602">
        <ele>858</ele>
        <time>2021-08-02T11:24:05.769Z</time>
      </trkpt>
      <trkpt lat="47.02105" lon="8.946">
        <ele>858</ele>
        <time>2021-08-02T11:24:06.768Z</time>
      </trkpt>
      <trkpt lat="47.02104" lon="8.94598">
        <ele>858</ele>
        <time>2021-08-02T11:24:07.769Z</time>
      </trkpt>
      <trkpt lat="47.02103" lon="8.94596">
        <ele>858</ele>
        <time>2021-08-02T11:24:08.768Z</time>
      </trkpt>
      <trkpt lat="47.02102" lon="8.94594">
        <ele>858</ele>
        <time>2021-08-02T11:24:09.769Z</time>
      </trkpt>
      <trkpt lat="47.02103" lon="8.94593">
        <ele>858</ele>
        <time>2021-08-02T11:24:10.768Z</time>
      </trkpt>
      <trkpt lat="47.02101" lon="8.94591">
        <ele>858</ele>
        <time>2021-08-02T11:24:13.882Z</time>
      </trkpt>
      <trkpt lat="47.021" lon="8.94589">
        <ele>858</ele>
        <time>2021-08-02T11:24:14.882Z</time>
      </trkpt>
      <trkpt lat="47.02099" lon="8.94586">
        <ele>858</ele>
        <time>2021-08-02T11:24:15.883Z</time>
      </trkpt>
      <trkpt lat="47.02098" lon="8.94584">
        <ele>858</ele>
        <time>2021-08-02T11:24:16.882Z</time>
      </trkpt>
      <trkpt lat="47.02097" lon="8.94582">
        <ele>858</ele>
        <time>2021-08-02T11:24:30.043Z</time>
      </trkpt>
      <trkpt lat="47.02096" lon="8.9458">
        <ele>858</ele>
        <time>2021-08-02T11:24:31.042Z</time>
      </trkpt>
      <trkpt lat="47.02096" lon="8.94579">
        <ele>858</ele>
        <time>2021-08-02T11:24:32.042Z</time>
      </trkpt>
      <trkpt lat="47.02096" lon="8.94577">
        <ele>859</ele>
        <time>2021-08-02T11:24:33.043Z</time>
      </trkpt>
      <trkpt lat="47.02096" lon="8.94575">
        <ele>859</ele>
        <time>2021-08-02T11:24:34.043Z</time>
      </trkpt>
      <trkpt lat="47.02096" lon="8.94573">
        <ele>859</ele>
        <time>2021-08-02T11:24:35.043Z</time>
      </trkpt>
      <trkpt lat="47.02095" lon="8.94571">
        <ele>859</ele>
        <time>2021-08-02T11:24:36.042Z</time>
      </trkpt>
      <trkpt lat="47.02094" lon="8.9457">
        <ele>859</ele>
        <time>2021-08-02T11:24:37.042Z</time>
      </trkpt>
      <trkpt lat="47.02094" lon="8.94568">
        <ele>859</ele>
        <time>2021-08-02T11:25:09.145Z</time>
      </trkpt>
      <trkpt lat="47.02093" lon="8.94566">
        <ele>859</ele>
        <time>2021-08-02T11:25:10.145Z</time>
      </trkpt>
      <trkpt lat="47.02093" lon="8.94565">
        <ele>858</ele>
        <time>2021-08-02T11:25:11.146Z</time>
      </trkpt>
      <trkpt lat="47.02092" lon="8.94563">
        <ele>858</ele>
        <time>2021-08-02T11:25:17.268Z</time>
      </trkpt>
      <trkpt lat="47.02093" lon="8.94561">
        <ele>858</ele>
        <time>2021-08-02T11:25:18.267Z</time>
      </trkpt>
      <trkpt lat="47.02094" lon="8.94559">
        <ele>857</ele>
        <time>2021-08-02T11:25:20.135Z</time>
      </trkpt>
      <trkpt lat="47.02095" lon="8.94558">
        <ele>857</ele>
        <time>2021-08-02T11:25:21.136Z</time>
      </trkpt>
      <trkpt lat="47.02096" lon="8.94556">
        <ele>857</ele>
        <time>2021-08-02T11:25:22.136Z</time>
      </trkpt>
      <trkpt lat="47.02097" lon="8.94554">
        <ele>856</ele>
        <time>2021-08-02T11:25:23.135Z</time>
      </trkpt>
      <trkpt lat="47.02095" lon="8.94552">
        <ele>856</ele>
        <time>2021-08-02T11:25:24.135Z</time>
      </trkpt>
      <trkpt lat="47.02094" lon="8.94551">
        <ele>856</ele>
        <time>2021-08-02T11:25:25.135Z</time>
      </trkpt>
      <trkpt lat="47.02095" lon="8.94549">
        <ele>855</ele>
        <time>2021-08-02T11:25:29.285Z</time>
      </trkpt>
      <trkpt lat="47.02097" lon="8.94546">
        <ele>855</ele>
        <time>2021-08-02T11:25:30.285Z</time>
      </trkpt>
      <trkpt lat="47.02098" lon="8.94543">
        <ele>855</ele>
        <time>2021-08-02T11:25:31.285Z</time>
      </trkpt>
      <trkpt lat="47.021" lon="8.94542">
        <ele>855</ele>
        <time>2021-08-02T11:25:32.286Z</time>
      </trkpt>
      <trkpt lat="47.021" lon="8.9454">
        <ele>855</ele>
        <time>2021-08-02T11:25:33.286Z</time>
      </trkpt>
      <trkpt lat="47.02101" lon="8.94539">
        <ele>855</ele>
        <time>2021-08-02T11:25:34.286Z</time>
      </trkpt>
      <trkpt lat="47.02101" lon="8.94538">
        <ele>855</ele>
        <time>2021-08-02T11:25:35.285Z</time>
      </trkpt>
      <trkpt lat="47.02101" lon="8.94537">
        <ele>856</ele>
        <time>2021-08-02T11:25:36.285Z</time>
      </trkpt>
      <trkpt lat="47.02102" lon="8.94535">
        <ele>856</ele>
        <time>2021-08-02T11:25:37.285Z</time>
      </trkpt>
      <trkpt lat="47.02103" lon="8.94534">
        <ele>856</ele>
        <time>2021-08-02T11:25:38.286Z</time>
      </trkpt>
      <trkpt lat="47.02104" lon="8.94533">
        <ele>856</ele>
        <time>2021-08-02T11:25:39.285Z</time>
      </trkpt>
      <trkpt lat="47.02104" lon="8.94531">
        <ele>856</ele>
        <time>2021-08-02T11:25:40.285Z</time>
      </trkpt>
      <trkpt lat="47.02105" lon="8.9453">
        <ele>856</ele>
        <time>2021-08-02T11:25:41.285Z</time>
      </trkpt>
      <trkpt lat="47.02105" lon="8.94528">
        <ele>856</ele>
        <time>2021-08-02T11:25:42.286Z</time>
      </trkpt>
      <trkpt lat="47.02106" lon="8.94526">
        <ele>855</ele>
        <time>2021-08-02T11:25:43.285Z</time>
      </trkpt>
      <trkpt lat="47.02106" lon="8.94524">
        <ele>855</ele>
        <time>2021-08-02T11:25:44.286Z</time>
      </trkpt>
      <trkpt lat="47.02108" lon="8.94522">
        <ele>854</ele>
        <time>2021-08-02T11:25:45.285Z</time>
      </trkpt>
      <trkpt lat="47.0211" lon="8.9452">
        <ele>854</ele>
        <time>2021-08-02T11:25:46.285Z</time>
      </trkpt>
      <trkpt lat="47.02111" lon="8.94519">
        <ele>853</ele>
        <time>2021-08-02T11:25:47.285Z</time>
      </trkpt>
      <trkpt lat="47.02114" lon="8.94517">
        <ele>853</ele>
        <time>2021-08-02T11:25:48.286Z</time>
      </trkpt>
      <trkpt lat="47.02116" lon="8.94515">
        <ele>852</ele>
        <time>2021-08-02T11:25:49.285Z</time>
      </trkpt>
      <trkpt lat="47.02117" lon="8.94512">
        <ele>852</ele>
        <time>2021-08-02T11:25:50.285Z</time>
      </trkpt>
      <trkpt lat="47.02119" lon="8.9451">
        <ele>852</ele>
        <time>2021-08-02T11:25:51.285Z</time>
      </trkpt>
      <trkpt lat="47.02121" lon="8.94508">
        <ele>852</ele>
        <time>2021-08-02T11:25:52.286Z</time>
      </trkpt>
      <trkpt lat="47.02122" lon="8.94506">
        <ele>852</ele>
        <time>2021-08-02T11:25:53.285Z</time>
      </trkpt>
      <trkpt lat="47.02123" lon="8.94505">
        <ele>852</ele>
        <time>2021-08-02T11:25:54.285Z</time>
      </trkpt>
      <trkpt lat="47.02123" lon="8.94504">
        <ele>852</ele>
        <time>2021-08-02T11:25:55.286Z</time>
      </trkpt>
      <trkpt lat="47.02124" lon="8.94503">
        <ele>852</ele>
        <time>2021-08-02T11:25:56.285Z</time>
      </trkpt>
      <trkpt lat="47.02125" lon="8.94501">
        <ele>852</ele>
        <time>2021-08-02T11:25:57.286Z</time>
      </trkpt>
      <trkpt lat="47.02127" lon="8.945">
        <ele>851</ele>
        <time>2021-08-02T11:25:58.286Z</time>
      </trkpt>
      <trkpt lat="47.02128" lon="8.94499">
        <ele>851</ele>
        <time>2021-08-02T11:25:59.285Z</time>
      </trkpt>
      <trkpt lat="47.02129" lon="8.94498">
        <ele>851</ele>
        <time>2021-08-02T11:26:00.285Z</time>
      </trkpt>
      <trkpt lat="47.02129" lon="8.94496">
        <ele>850</ele>
        <time>2021-08-02T11:26:01.286Z</time>
      </trkpt>
      <trkpt lat="47.0213" lon="8.94495">
        <ele>850</ele>
        <time>2021-08-02T11:26:02.285Z</time>
      </trkpt>
      <trkpt lat="47.0213" lon="8.94493">
        <ele>850</ele>
        <time>2021-08-02T11:26:03.286Z</time>
      </trkpt>
      <trkpt lat="47.02132" lon="8.94492">
        <ele>849</ele>
        <time>2021-08-02T11:26:04.285Z</time>
      </trkpt>
      <trkpt lat="47.02133" lon="8.9449">
        <ele>849</ele>
        <time>2021-08-02T11:26:05.285Z</time>
      </trkpt>
      <trkpt lat="47.02134" lon="8.94488">
        <ele>849</ele>
        <time>2021-08-02T11:26:06.286Z</time>
      </trkpt>
      <trkpt lat="47.02136" lon="8.94487">
        <ele>849</ele>
        <time>2021-08-02T11:26:07.286Z</time>
      </trkpt>
      <trkpt lat="47.02137" lon="8.94485">
        <ele>849</ele>
        <time>2021-08-02T11:26:08.285Z</time>
      </trkpt>
      <trkpt lat="47.02137" lon="8.94483">
        <ele>849</ele>
        <time>2021-08-02T11:26:09.285Z</time>
      </trkpt>
      <trkpt lat="47.02137" lon="8.94482">
        <ele>849</ele>
        <time>2021-08-02T11:26:10.286Z</time>
      </trkpt>
      <trkpt lat="47.02138" lon="8.9448">
        <ele>848</ele>
        <time>2021-08-02T11:26:11.285Z</time>
      </trkpt>
      <trkpt lat="47.0214" lon="8.94479">
        <ele>848</ele>
        <time>2021-08-02T11:26:12.286Z</time>
      </trkpt>
      <trkpt lat="47.02142" lon="8.94477">
        <ele>849</ele>
        <time>2021-08-02T11:26:13.285Z</time>
      </trkpt>
      <trkpt lat="47.02144" lon="8.94475">
        <ele>849</ele>
        <time>2021-08-02T11:26:14.285Z</time>
      </trkpt>
      <trkpt lat="47.02146" lon="8.94474">
        <ele>850</ele>
        <time>2021-08-02T11:26:15.285Z</time>
      </trkpt>
      <trkpt lat="47.02148" lon="8.94472">
        <ele>851</ele>
        <time>2021-08-02T11:26:16.285Z</time>
      </trkpt>
      <trkpt lat="47.02149" lon="8.94471">
        <ele>852</ele>
        <time>2021-08-02T11:26:17.285Z</time>
      </trkpt>
      <trkpt lat="47.0215" lon="8.94469">
        <ele>852</ele>
        <time>2021-08-02T11:26:18.285Z</time>
      </trkpt>
      <trkpt lat="47.02152" lon="8.94468">
        <ele>853</ele>
        <time>2021-08-02T11:26:19.285Z</time>
      </trkpt>
      <trkpt lat="47.02153" lon="8.94466">
        <ele>854</ele>
        <time>2021-08-02T11:26:20.285Z</time>
      </trkpt>
      <trkpt lat="47.02154" lon="8.94464">
        <ele>854</ele>
        <time>2021-08-02T11:26:21.285Z</time>
      </trkpt>
      <trkpt lat="47.02153" lon="8.94463">
        <ele>855</ele>
        <time>2021-08-02T11:26:22.286Z</time>
      </trkpt>
      <trkpt lat="47.02153" lon="8.94461">
        <ele>855</ele>
        <time>2021-08-02T11:26:23.285Z</time>
      </trkpt>
      <trkpt lat="47.02154" lon="8.94459">
        <ele>855</ele>
        <time>2021-08-02T11:26:24.285Z</time>
      </trkpt>
      <trkpt lat="47.02154" lon="8.94458">
        <ele>856</ele>
        <time>2021-08-02T11:26:25.285Z</time>
      </trkpt>
      <trkpt lat="47.02154" lon="8.94456">
        <ele>857</ele>
        <time>2021-08-02T11:26:26.285Z</time>
      </trkpt>
      <trkpt lat="47.02155" lon="8.94454">
        <ele>857</ele>
        <time>2021-08-02T11:26:27.285Z</time>
      </trkpt>
      <trkpt lat="47.02156" lon="8.94452">
        <ele>857</ele>
        <time>2021-08-02T11:26:28.285Z</time>
      </trkpt>
      <trkpt lat="47.02158" lon="8.9445">
        <ele>857</ele>
        <time>2021-08-02T11:26:29.285Z</time>
      </trkpt>
      <trkpt lat="47.02159" lon="8.94448">
        <ele>857</ele>
        <time>2021-08-02T11:26:30.285Z</time>
      </trkpt>
      <trkpt lat="47.0216" lon="8.94445">
        <ele>857</ele>
        <time>2021-08-02T11:26:31.285Z</time>
      </trkpt>
      <trkpt lat="47.0216" lon="8.94443">
        <ele>858</ele>
        <time>2021-08-02T11:26:32.285Z</time>
      </trkpt>
      <trkpt lat="47.02161" lon="8.9444">
        <ele>858</ele>
        <time>2021-08-02T11:26:33.286Z</time>
      </trkpt>
      <trkpt lat="47.02163" lon="8.94439">
        <ele>858</ele>
        <time>2021-08-02T11:26:34.285Z</time>
      </trkpt>
      <trkpt lat="47.02163" lon="8.94438">
        <ele>858</ele>
        <time>2021-08-02T11:26:35.286Z</time>
      </trkpt>
      <trkpt lat="47.02164" lon="8.94437">
        <ele>858</ele>
        <time>2021-08-02T11:26:36.285Z</time>
      </trkpt>
      <trkpt lat="47.02164" lon="8.94435">
        <ele>858</ele>
        <time>2021-08-02T11:26:37.285Z</time>
      </trkpt>
      <trkpt lat="47.02164" lon="8.94434">
        <ele>858</ele>
        <time>2021-08-02T11:26:38.285Z</time>
      </trkpt>
      <trkpt lat="47.02164" lon="8.94432">
        <ele>858</ele>
        <time>2021-08-02T11:26:39.286Z</time>
      </trkpt>
      <trkpt lat="47.02165" lon="8.94431">
        <ele>859</ele>
        <time>2021-08-02T11:26:40.285Z</time>
      </trkpt>
      <trkpt lat="47.02164" lon="8.94429">
        <ele>859</ele>
        <time>2021-08-02T11:26:41.285Z</time>
      </trkpt>
      <trkpt lat="47.02164" lon="8.94428">
        <ele>859</ele>
        <time>2021-08-02T11:26:42.285Z</time>
      </trkpt>
      <trkpt lat="47.02163" lon="8.94426">
        <ele>858</ele>
        <time>2021-08-02T11:26:43.286Z</time>
      </trkpt>
      <trkpt lat="47.02163" lon="8.94423">
        <ele>858</ele>
        <time>2021-08-02T11:26:44.286Z</time>
      </trkpt>
      <trkpt lat="47.02164" lon="8.94421">
        <ele>857</ele>
        <time>2021-08-02T11:26:45.285Z</time>
      </trkpt>
      <trkpt lat="47.02164" lon="8.94418">
        <ele>857</ele>
        <time>2021-08-02T11:26:46.285Z</time>
      </trkpt>
      <trkpt lat="47.02164" lon="8.94416">
        <ele>857</ele>
        <time>2021-08-02T11:26:47.286Z</time>
      </trkpt>
      <trkpt lat="47.02165" lon="8.94415">
        <ele>856</ele>
        <time>2021-08-02T11:26:48.285Z</time>
      </trkpt>
      <trkpt lat="47.02165" lon="8.94413">
        <ele>856</ele>
        <time>2021-08-02T11:26:49.285Z</time>
      </trkpt>
      <trkpt lat="47.02166" lon="8.94411">
        <ele>856</ele>
        <time>2021-08-02T11:26:50.285Z</time>
      </trkpt>
      <trkpt lat="47.02165" lon="8.94409">
        <ele>856</ele>
        <time>2021-08-02T11:26:51.285Z</time>
      </trkpt>
      <trkpt lat="47.02164" lon="8.94407">
        <ele>856</ele>
        <time>2021-08-02T11:26:52.285Z</time>
      </trkpt>
      <trkpt lat="47.02164" lon="8.94405">
        <ele>856</ele>
        <time>2021-08-02T11:26:53.286Z</time>
      </trkpt>
      <trkpt lat="47.02164" lon="8.94403">
        <ele>856</ele>
        <time>2021-08-02T11:26:54.285Z</time>
      </trkpt>
      <trkpt lat="47.02164" lon="8.94401">
        <ele>856</ele>
        <time>2021-08-02T11:26:55.286Z</time>
      </trkpt>
      <trkpt lat="47.02164" lon="8.944">
        <ele>856</ele>
        <time>2021-08-02T11:26:56.285Z</time>
      </trkpt>
      <trkpt lat="47.02164" lon="8.94398">
        <ele>856</ele>
        <time>2021-08-02T11:26:57.286Z</time>
      </trkpt>
      <trkpt lat="47.02164" lon="8.94397">
        <ele>856</ele>
        <time>2021-08-02T11:26:58.285Z</time>
      </trkpt>
      <trkpt lat="47.02164" lon="8.94395">
        <ele>857</ele>
        <time>2021-08-02T11:26:59.285Z</time>
      </trkpt>
      <trkpt lat="47.02164" lon="8.94394">
        <ele>857</ele>
        <time>2021-08-02T11:27:00.285Z</time>
      </trkpt>
      <trkpt lat="47.02164" lon="8.94392">
        <ele>857</ele>
        <time>2021-08-02T11:27:01.285Z</time>
      </trkpt>
      <trkpt lat="47.02165" lon="8.94391">
        <ele>857</ele>
        <time>2021-08-02T11:27:02.285Z</time>
      </trkpt>
      <trkpt lat="47.02165" lon="8.94389">
        <ele>857</ele>
        <time>2021-08-02T11:27:03.286Z</time>
      </trkpt>
      <trkpt lat="47.02166" lon="8.94388">
        <ele>857</ele>
        <time>2021-08-02T11:27:04.285Z</time>
      </trkpt>
      <trkpt lat="47.02166" lon="8.94387">
        <ele>857</ele>
        <time>2021-08-02T11:27:05.286Z</time>
      </trkpt>
      <trkpt lat="47.02165" lon="8.94387">
        <ele>857</ele>
        <time>2021-08-02T11:27:06.285Z</time>
      </trkpt>
      <trkpt lat="47.02165" lon="8.94386">
        <ele>857</ele>
        <time>2021-08-02T11:27:07.286Z</time>
      </trkpt>
      <trkpt lat="47.02165" lon="8.94385">
        <ele>856</ele>
        <time>2021-08-02T11:27:08.286Z</time>
      </trkpt>
      <trkpt lat="47.02165" lon="8.94384">
        <ele>856</ele>
        <time>2021-08-02T11:27:09.285Z</time>
      </trkpt>
      <trkpt lat="47.02165" lon="8.94381">
        <ele>856</ele>
        <time>2021-08-02T11:27:10.285Z</time>
      </trkpt>
      <trkpt lat="47.02166" lon="8.9438">
        <ele>856</ele>
        <time>2021-08-02T11:27:11.285Z</time>
      </trkpt>
      <trkpt lat="47.02167" lon="8.94379">
        <ele>856</ele>
        <time>2021-08-02T11:27:12.285Z</time>
      </trkpt>
      <trkpt lat="47.02167" lon="8.94377">
        <ele>855</ele>
        <time>2021-08-02T11:27:13.285Z</time>
      </trkpt>
      <trkpt lat="47.02167" lon="8.94375">
        <ele>855</ele>
        <time>2021-08-02T11:27:14.285Z</time>
      </trkpt>
      <trkpt lat="47.02167" lon="8.94373">
        <ele>855</ele>
        <time>2021-08-02T11:27:15.285Z</time>
      </trkpt>
      <trkpt lat="47.02168" lon="8.94371">
        <ele>855</ele>
        <time>2021-08-02T11:27:16.286Z</time>
      </trkpt>
      <trkpt lat="47.02167" lon="8.94369">
        <ele>855</ele>
        <time>2021-08-02T11:27:17.285Z</time>
      </trkpt>
      <trkpt lat="47.02168" lon="8.94367">
        <ele>855</ele>
        <time>2021-08-02T11:27:18.286Z</time>
      </trkpt>
      <trkpt lat="47.02169" lon="8.94366">
        <ele>855</ele>
        <time>2021-08-02T11:27:19.285Z</time>
      </trkpt>
      <trkpt lat="47.0217" lon="8.94364">
        <ele>855</ele>
        <time>2021-08-02T11:27:20.286Z</time>
      </trkpt>
      <trkpt lat="47.0217" lon="8.94363">
        <ele>855</ele>
        <time>2021-08-02T11:27:21.285Z</time>
      </trkpt>
      <trkpt lat="47.0217" lon="8.94362">
        <ele>855</ele>
        <time>2021-08-02T11:27:22.285Z</time>
      </trkpt>
      <trkpt lat="47.0217" lon="8.9436">
        <ele>855</ele>
        <time>2021-08-02T11:27:23.285Z</time>
      </trkpt>
      <trkpt lat="47.0217" lon="8.94359">
        <ele>855</ele>
        <time>2021-08-02T11:27:24.285Z</time>
      </trkpt>
      <trkpt lat="47.02171" lon="8.94358">
        <ele>855</ele>
        <time>2021-08-02T11:27:25.286Z</time>
      </trkpt>
      <trkpt lat="47.02171" lon="8.94356">
        <ele>854</ele>
        <time>2021-08-02T11:27:26.285Z</time>
      </trkpt>
      <trkpt lat="47.0217" lon="8.94354">
        <ele>854</ele>
        <time>2021-08-02T11:27:27.286Z</time>
      </trkpt>
      <trkpt lat="47.0217" lon="8.94353">
        <ele>854</ele>
        <time>2021-08-02T11:27:28.286Z</time>
      </trkpt>
      <trkpt lat="47.0217" lon="8.94351">
        <ele>854</ele>
        <time>2021-08-02T11:27:29.285Z</time>
      </trkpt>
      <trkpt lat="47.0217" lon="8.94349">
        <ele>854</ele>
        <time>2021-08-02T11:27:30.285Z</time>
      </trkpt>
      <trkpt lat="47.0217" lon="8.94348">
        <ele>854</ele>
        <time>2021-08-02T11:27:31.285Z</time>
      </trkpt>
      <trkpt lat="47.0217" lon="8.94346">
        <ele>854</ele>
        <time>2021-08-02T11:27:32.285Z</time>
      </trkpt>
      <trkpt lat="47.0217" lon="8.94345">
        <ele>854</ele>
        <time>2021-08-02T11:27:33.285Z</time>
      </trkpt>
      <trkpt lat="47.0217" lon="8.94344">
        <ele>855</ele>
        <time>2021-08-02T11:27:34.286Z</time>
      </trkpt>
      <trkpt lat="47.0217" lon="8.94343">
        <ele>856</ele>
        <time>2021-08-02T11:27:35.286Z</time>
      </trkpt>
      <trkpt lat="47.0217" lon="8.94343">
        <ele>856</ele>
        <time>2021-08-02T11:27:36.285Z</time>
      </trkpt>
      <trkpt lat="47.0217" lon="8.94342">
        <ele>857</ele>
        <time>2021-08-02T11:27:37.285Z</time>
      </trkpt>
      <trkpt lat="47.0217" lon="8.94341">
        <ele>857</ele>
        <time>2021-08-02T11:27:38.285Z</time>
      </trkpt>
      <trkpt lat="47.02171" lon="8.94339">
        <ele>858</ele>
        <time>2021-08-02T11:27:39.285Z</time>
      </trkpt>
      <trkpt lat="47.02171" lon="8.94337">
        <ele>859</ele>
        <time>2021-08-02T11:27:40.285Z</time>
      </trkpt>
      <trkpt lat="47.0217" lon="8.94335">
        <ele>859</ele>
        <time>2021-08-02T11:27:41.285Z</time>
      </trkpt>
      <trkpt lat="47.02169" lon="8.94333">
        <ele>860</ele>
        <time>2021-08-02T11:27:42.285Z</time>
      </trkpt>
      <trkpt lat="47.02168" lon="8.94331">
        <ele>860</ele>
        <time>2021-08-02T11:27:43.286Z</time>
      </trkpt>
      <trkpt lat="47.02167" lon="8.94329">
        <ele>860</ele>
        <time>2021-08-02T11:27:44.285Z</time>
      </trkpt>
      <trkpt lat="47.02167" lon="8.94327">
        <ele>861</ele>
        <time>2021-08-02T11:27:45.285Z</time>
      </trkpt>
      <trkpt lat="47.02168" lon="8.94325">
        <ele>861</ele>
        <time>2021-08-02T11:27:46.285Z</time>
      </trkpt>
      <trkpt lat="47.02167" lon="8.94322">
        <ele>861</ele>
        <time>2021-08-02T11:27:47.286Z</time>
      </trkpt>
      <trkpt lat="47.02167" lon="8.9432">
        <ele>861</ele>
        <time>2021-08-02T11:27:48.285Z</time>
      </trkpt>
      <trkpt lat="47.02166" lon="8.94318">
        <ele>861</ele>
        <time>2021-08-02T11:27:49.285Z</time>
      </trkpt>
      <trkpt lat="47.02165" lon="8.94315">
        <ele>861</ele>
        <time>2021-08-02T11:27:50.285Z</time>
      </trkpt>
      <trkpt lat="47.02164" lon="8.94312">
        <ele>861</ele>
        <time>2021-08-02T11:27:51.285Z</time>
      </trkpt>
      <trkpt lat="47.02164" lon="8.9431">
        <ele>861</ele>
        <time>2021-08-02T11:27:52.286Z</time>
      </trkpt>
      <trkpt lat="47.02164" lon="8.94308">
        <ele>861</ele>
        <time>2021-08-02T11:27:53.285Z</time>
      </trkpt>
      <trkpt lat="47.02164" lon="8.94306">
        <ele>861</ele>
        <time>2021-08-02T11:27:54.286Z</time>
      </trkpt>
      <trkpt lat="47.02164" lon="8.94304">
        <ele>861</ele>
        <time>2021-08-02T11:27:55.285Z</time>
      </trkpt>
      <trkpt lat="47.02164" lon="8.94302">
        <ele>861</ele>
        <time>2021-08-02T11:27:56.285Z</time>
      </trkpt>
      <trkpt lat="47.02165" lon="8.94301">
        <ele>862</ele>
        <time>2021-08-02T11:27:57.285Z</time>
      </trkpt>
      <trkpt lat="47.02165" lon="8.943">
        <ele>862</ele>
        <time>2021-08-02T11:27:58.286Z</time>
      </trkpt>
      <trkpt lat="47.02166" lon="8.94298">
        <ele>862</ele>
        <time>2021-08-02T11:27:59.285Z</time>
      </trkpt>
      <trkpt lat="47.02166" lon="8.94297">
        <ele>862</ele>
        <time>2021-08-02T11:28:00.285Z</time>
      </trkpt>
      <trkpt lat="47.02166" lon="8.94295">
        <ele>862</ele>
        <time>2021-08-02T11:28:01.285Z</time>
      </trkpt>
      <trkpt lat="47.02166" lon="8.94293">
        <ele>862</ele>
        <time>2021-08-02T11:28:02.285Z</time>
      </trkpt>
      <trkpt lat="47.02166" lon="8.94292">
        <ele>862</ele>
        <time>2021-08-02T11:28:03.285Z</time>
      </trkpt>
      <trkpt lat="47.02166" lon="8.94291">
        <ele>862</ele>
        <time>2021-08-02T11:28:04.285Z</time>
      </trkpt>
      <trkpt lat="47.02165" lon="8.94288">
        <ele>861</ele>
        <time>2021-08-02T11:28:05.285Z</time>
      </trkpt>
      <trkpt lat="47.02164" lon="8.94286">
        <ele>861</ele>
        <time>2021-08-02T11:28:06.285Z</time>
      </trkpt>
      <trkpt lat="47.02164" lon="8.94284">
        <ele>861</ele>
        <time>2021-08-02T11:28:07.286Z</time>
      </trkpt>
      <trkpt lat="47.02163" lon="8.94283">
        <ele>861</ele>
        <time>2021-08-02T11:28:08.285Z</time>
      </trkpt>
      <trkpt lat="47.02163" lon="8.94282">
        <ele>861</ele>
        <time>2021-08-02T11:28:09.286Z</time>
      </trkpt>
      <trkpt lat="47.02163" lon="8.94281">
        <ele>861</ele>
        <time>2021-08-02T11:28:10.285Z</time>
      </trkpt>
      <trkpt lat="47.02163" lon="8.9428">
        <ele>861</ele>
        <time>2021-08-02T11:28:11.286Z</time>
      </trkpt>
      <trkpt lat="47.02163" lon="8.94279">
        <ele>861</ele>
        <time>2021-08-02T11:28:12.286Z</time>
      </trkpt>
      <trkpt lat="47.02162" lon="8.94278">
        <ele>861</ele>
        <time>2021-08-02T11:28:13.286Z</time>
      </trkpt>
      <trkpt lat="47.02161" lon="8.94278">
        <ele>861</ele>
        <time>2021-08-02T11:28:14.286Z</time>
      </trkpt>
      <trkpt lat="47.02161" lon="8.94276">
        <ele>861</ele>
        <time>2021-08-02T11:28:15.285Z</time>
      </trkpt>
      <trkpt lat="47.0216" lon="8.94275">
        <ele>861</ele>
        <time>2021-08-02T11:28:16.285Z</time>
      </trkpt>
      <trkpt lat="47.0216" lon="8.94274">
        <ele>861</ele>
        <time>2021-08-02T11:28:17.285Z</time>
      </trkpt>
      <trkpt lat="47.02159" lon="8.94272">
        <ele>861</ele>
        <time>2021-08-02T11:28:18.286Z</time>
      </trkpt>
      <trkpt lat="47.02159" lon="8.9427">
        <ele>861</ele>
        <time>2021-08-02T11:28:19.285Z</time>
      </trkpt>
      <trkpt lat="47.02159" lon="8.94268">
        <ele>862</ele>
        <time>2021-08-02T11:28:20.285Z</time>
      </trkpt>
      <trkpt lat="47.02159" lon="8.94266">
        <ele>862</ele>
        <time>2021-08-02T11:28:21.285Z</time>
      </trkpt>
      <trkpt lat="47.02158" lon="8.94264">
        <ele>862</ele>
        <time>2021-08-02T11:28:22.286Z</time>
      </trkpt>
      <trkpt lat="47.02158" lon="8.94262">
        <ele>862</ele>
        <time>2021-08-02T11:28:23.286Z</time>
      </trkpt>
      <trkpt lat="47.02158" lon="8.9426">
        <ele>862</ele>
        <time>2021-08-02T11:28:24.285Z</time>
      </trkpt>
      <trkpt lat="47.02157" lon="8.94257">
        <ele>862</ele>
        <time>2021-08-02T11:28:25.285Z</time>
      </trkpt>
      <trkpt lat="47.02156" lon="8.94255">
        <ele>862</ele>
        <time>2021-08-02T11:28:26.285Z</time>
      </trkpt>
      <trkpt lat="47.02155" lon="8.94254">
        <ele>862</ele>
        <time>2021-08-02T11:28:27.285Z</time>
      </trkpt>
      <trkpt lat="47.02155" lon="8.94251">
        <ele>862</ele>
        <time>2021-08-02T11:28:28.285Z</time>
      </trkpt>
      <trkpt lat="47.02154" lon="8.94249">
        <ele>863</ele>
        <time>2021-08-02T11:28:29.286Z</time>
      </trkpt>
      <trkpt lat="47.02154" lon="8.94247">
        <ele>863</ele>
        <time>2021-08-02T11:28:30.285Z</time>
      </trkpt>
      <trkpt lat="47.02153" lon="8.94245">
        <ele>864</ele>
        <time>2021-08-02T11:28:31.286Z</time>
      </trkpt>
      <trkpt lat="47.02152" lon="8.94243">
        <ele>865</ele>
        <time>2021-08-02T11:28:32.285Z</time>
      </trkpt>
      <trkpt lat="47.02152" lon="8.94241">
        <ele>865</ele>
        <time>2021-08-02T11:28:33.285Z</time>
      </trkpt>
      <trkpt lat="47.02151" lon="8.9424">
        <ele>866</ele>
        <time>2021-08-02T11:28:34.285Z</time>
      </trkpt>
      <trkpt lat="47.02151" lon="8.94239">
        <ele>866</ele>
        <time>2021-08-02T11:28:35.286Z</time>
      </trkpt>
      <trkpt lat="47.0215" lon="8.94237">
        <ele>867</ele>
        <time>2021-08-02T11:28:36.285Z</time>
      </trkpt>
      <trkpt lat="47.0215" lon="8.94235">
        <ele>867</ele>
        <time>2021-08-02T11:28:37.285Z</time>
      </trkpt>
      <trkpt lat="47.0215" lon="8.94233">
        <ele>868</ele>
        <time>2021-08-02T11:28:38.286Z</time>
      </trkpt>
      <trkpt lat="47.02151" lon="8.94231">
        <ele>868</ele>
        <time>2021-08-02T11:28:39.285Z</time>
      </trkpt>
      <trkpt lat="47.02152" lon="8.9423">
        <ele>869</ele>
        <time>2021-08-02T11:28:40.285Z</time>
      </trkpt>
      <trkpt lat="47.02152" lon="8.94228">
        <ele>869</ele>
        <time>2021-08-02T11:28:41.285Z</time>
      </trkpt>
      <trkpt lat="47.02151" lon="8.94227">
        <ele>870</ele>
        <time>2021-08-02T11:28:42.286Z</time>
      </trkpt>
      <trkpt lat="47.02151" lon="8.94226">
        <ele>870</ele>
        <time>2021-08-02T11:28:43.285Z</time>
      </trkpt>
      <trkpt lat="47.0215" lon="8.94225">
        <ele>871</ele>
        <time>2021-08-02T11:28:44.286Z</time>
      </trkpt>
      <trkpt lat="47.0215" lon="8.94224">
        <ele>871</ele>
        <time>2021-08-02T11:28:45.285Z</time>
      </trkpt>
      <trkpt lat="47.0215" lon="8.94222">
        <ele>871</ele>
        <time>2021-08-02T11:28:46.285Z</time>
      </trkpt>
      <trkpt lat="47.0215" lon="8.94221">
        <ele>872</ele>
        <time>2021-08-02T11:28:47.285Z</time>
      </trkpt>
      <trkpt lat="47.0215" lon="8.94219">
        <ele>872</ele>
        <time>2021-08-02T11:28:48.285Z</time>
      </trkpt>
      <trkpt lat="47.0215" lon="8.94218">
        <ele>872</ele>
        <time>2021-08-02T11:28:49.285Z</time>
      </trkpt>
      <trkpt lat="47.0215" lon="8.94217">
        <ele>873</ele>
        <time>2021-08-02T11:28:50.285Z</time>
      </trkpt>
      <trkpt lat="47.0215" lon="8.94215">
        <ele>873</ele>
        <time>2021-08-02T11:28:51.286Z</time>
      </trkpt>
      <trkpt lat="47.02149" lon="8.94214">
        <ele>873</ele>
        <time>2021-08-02T11:28:52.286Z</time>
      </trkpt>
      <trkpt lat="47.02149" lon="8.94213">
        <ele>874</ele>
        <time>2021-08-02T11:28:53.286Z</time>
      </trkpt>
      <trkpt lat="47.02149" lon="8.94212">
        <ele>873</ele>
        <time>2021-08-02T11:28:54.285Z</time>
      </trkpt>
      <trkpt lat="47.02148" lon="8.94211">
        <ele>873</ele>
        <time>2021-08-02T11:28:55.285Z</time>
      </trkpt>
      <trkpt lat="47.02148" lon="8.9421">
        <ele>873</ele>
        <time>2021-08-02T11:28:56.285Z</time>
      </trkpt>
      <trkpt lat="47.02148" lon="8.94209">
        <ele>874</ele>
        <time>2021-08-02T11:28:57.286Z</time>
      </trkpt>
      <trkpt lat="47.02148" lon="8.94208">
        <ele>874</ele>
        <time>2021-08-02T11:28:58.285Z</time>
      </trkpt>
      <trkpt lat="47.02147" lon="8.94207">
        <ele>874</ele>
        <time>2021-08-02T11:28:59.285Z</time>
      </trkpt>
      <trkpt lat="47.02148" lon="8.94205">
        <ele>874</ele>
        <time>2021-08-02T11:29:00.285Z</time>
      </trkpt>
      <trkpt lat="47.02148" lon="8.94204">
        <ele>874</ele>
        <time>2021-08-02T11:29:01.285Z</time>
      </trkpt>
      <trkpt lat="47.02148" lon="8.94203">
        <ele>874</ele>
        <time>2021-08-02T11:29:02.285Z</time>
      </trkpt>
      <trkpt lat="47.02148" lon="8.94202">
        <ele>873</ele>
        <time>2021-08-02T11:29:03.285Z</time>
      </trkpt>
      <trkpt lat="47.02148" lon="8.94201">
        <ele>873</ele>
        <time>2021-08-02T11:29:04.285Z</time>
      </trkpt>
      <trkpt lat="47.02149" lon="8.94199">
        <ele>873</ele>
        <time>2021-08-02T11:29:05.286Z</time>
      </trkpt>
      <trkpt lat="47.02149" lon="8.94198">
        <ele>872</ele>
        <time>2021-08-02T11:29:06.285Z</time>
      </trkpt>
      <trkpt lat="47.0215" lon="8.94197">
        <ele>872</ele>
        <time>2021-08-02T11:29:07.285Z</time>
      </trkpt>
      <trkpt lat="47.0215" lon="8.94196">
        <ele>872</ele>
        <time>2021-08-02T11:29:08.286Z</time>
      </trkpt>
      <trkpt lat="47.02151" lon="8.94195">
        <ele>872</ele>
        <time>2021-08-02T11:29:09.286Z</time>
      </trkpt>
      <trkpt lat="47.02151" lon="8.94194">
        <ele>872</ele>
        <time>2021-08-02T11:29:10.286Z</time>
      </trkpt>
      <trkpt lat="47.02152" lon="8.94193">
        <ele>872</ele>
        <time>2021-08-02T11:29:11.285Z</time>
      </trkpt>
      <trkpt lat="47.02153" lon="8.94192">
        <ele>872</ele>
        <time>2021-08-02T11:29:12.285Z</time>
      </trkpt>
      <trkpt lat="47.02153" lon="8.9419">
        <ele>872</ele>
        <time>2021-08-02T11:29:13.286Z</time>
      </trkpt>
      <trkpt lat="47.02154" lon="8.94189">
        <ele>872</ele>
        <time>2021-08-02T11:29:14.285Z</time>
      </trkpt>
      <trkpt lat="47.02156" lon="8.94187">
        <ele>871</ele>
        <time>2021-08-02T11:29:15.285Z</time>
      </trkpt>
      <trkpt lat="47.02157" lon="8.94186">
        <ele>871</ele>
        <time>2021-08-02T11:29:16.285Z</time>
      </trkpt>
      <trkpt lat="47.02159" lon="8.94185">
        <ele>871</ele>
        <time>2021-08-02T11:29:17.286Z</time>
      </trkpt>
      <trkpt lat="47.02159" lon="8.94184">
        <ele>872</ele>
        <time>2021-08-02T11:29:18.286Z</time>
      </trkpt>
      <trkpt lat="47.0216" lon="8.94183">
        <ele>872</ele>
        <time>2021-08-02T11:29:19.286Z</time>
      </trkpt>
      <trkpt lat="47.02159" lon="8.94183">
        <ele>872</ele>
        <time>2021-08-02T11:29:20.285Z</time>
      </trkpt>
      <trkpt lat="47.02159" lon="8.94182">
        <ele>873</ele>
        <time>2021-08-02T11:29:21.286Z</time>
      </trkpt>
      <trkpt lat="47.02159" lon="8.94181">
        <ele>873</ele>
        <time>2021-08-02T11:29:22.285Z</time>
      </trkpt>
      <trkpt lat="47.02159" lon="8.94179">
        <ele>873</ele>
        <time>2021-08-02T11:29:23.286Z</time>
      </trkpt>
      <trkpt lat="47.02161" lon="8.94178">
        <ele>873</ele>
        <time>2021-08-02T11:29:24.286Z</time>
      </trkpt>
      <trkpt lat="47.02161" lon="8.94177">
        <ele>874</ele>
        <time>2021-08-02T11:29:25.286Z</time>
      </trkpt>
      <trkpt lat="47.02162" lon="8.94176">
        <ele>874</ele>
        <time>2021-08-02T11:29:26.285Z</time>
      </trkpt>
      <trkpt lat="47.02163" lon="8.94175">
        <ele>874</ele>
        <time>2021-08-02T11:29:27.286Z</time>
      </trkpt>
      <trkpt lat="47.02163" lon="8.94174">
        <ele>874</ele>
        <time>2021-08-02T11:29:28.286Z</time>
      </trkpt>
      <trkpt lat="47.02164" lon="8.94173">
        <ele>874</ele>
        <time>2021-08-02T11:29:29.286Z</time>
      </trkpt>
      <trkpt lat="47.02164" lon="8.94171">
        <ele>875</ele>
        <time>2021-08-02T11:29:30.285Z</time>
      </trkpt>
      <trkpt lat="47.02165" lon="8.94171">
        <ele>875</ele>
        <time>2021-08-02T11:29:31.285Z</time>
      </trkpt>
      <trkpt lat="47.02164" lon="8.9417">
        <ele>875</ele>
        <time>2021-08-02T11:29:32.285Z</time>
      </trkpt>
      <trkpt lat="47.02164" lon="8.94169">
        <ele>876</ele>
        <time>2021-08-02T11:29:33.285Z</time>
      </trkpt>
      <trkpt lat="47.02163" lon="8.94168">
        <ele>876</ele>
        <time>2021-08-02T11:29:34.285Z</time>
      </trkpt>
      <trkpt lat="47.02163" lon="8.94167">
        <ele>876</ele>
        <time>2021-08-02T11:29:35.285Z</time>
      </trkpt>
      <trkpt lat="47.02163" lon="8.94165">
        <ele>876</ele>
        <time>2021-08-02T11:29:36.285Z</time>
      </trkpt>
      <trkpt lat="47.02163" lon="8.94164">
        <ele>876</ele>
        <time>2021-08-02T11:29:37.286Z</time>
      </trkpt>
      <trkpt lat="47.02164" lon="8.94163">
        <ele>876</ele>
        <time>2021-08-02T11:29:38.285Z</time>
      </trkpt>
      <trkpt lat="47.02164" lon="8.94161">
        <ele>876</ele>
        <time>2021-08-02T11:29:39.285Z</time>
      </trkpt>
      <trkpt lat="47.02165" lon="8.9416">
        <ele>876</ele>
        <time>2021-08-02T11:29:40.285Z</time>
      </trkpt>
      <trkpt lat="47.02165" lon="8.94158">
        <ele>876</ele>
        <time>2021-08-02T11:29:41.286Z</time>
      </trkpt>
      <trkpt lat="47.02166" lon="8.94156">
        <ele>876</ele>
        <time>2021-08-02T11:29:42.285Z</time>
      </trkpt>
      <trkpt lat="47.02166" lon="8.94154">
        <ele>875</ele>
        <time>2021-08-02T11:29:43.286Z</time>
      </trkpt>
      <trkpt lat="47.02166" lon="8.94153">
        <ele>875</ele>
        <time>2021-08-02T11:29:44.285Z</time>
      </trkpt>
      <trkpt lat="47.02166" lon="8.94152">
        <ele>875</ele>
        <time>2021-08-02T11:29:45.285Z</time>
      </trkpt>
      <trkpt lat="47.02166" lon="8.94151">
        <ele>875</ele>
        <time>2021-08-02T11:29:46.285Z</time>
      </trkpt>
      <trkpt lat="47.02167" lon="8.94145">
        <ele>874</ele>
        <time>2021-08-02T11:29:47.285Z</time>
      </trkpt>
      <trkpt lat="47.02166" lon="8.94144">
        <ele>874</ele>
        <time>2021-08-02T11:29:48.285Z</time>
      </trkpt>
      <trkpt lat="47.02166" lon="8.94142">
        <ele>874</ele>
        <time>2021-08-02T11:29:49.285Z</time>
      </trkpt>
      <trkpt lat="47.02166" lon="8.94141">
        <ele>874</ele>
        <time>2021-08-02T11:29:50.285Z</time>
      </trkpt>
      <trkpt lat="47.02166" lon="8.94138">
        <ele>873</ele>
        <time>2021-08-02T11:29:51.285Z</time>
      </trkpt>
      <trkpt lat="47.02167" lon="8.94137">
        <ele>873</ele>
        <time>2021-08-02T11:29:52.285Z</time>
      </trkpt>
      <trkpt lat="47.02167" lon="8.94136">
        <ele>873</ele>
        <time>2021-08-02T11:29:53.285Z</time>
      </trkpt>
      <trkpt lat="47.02167" lon="8.94134">
        <ele>873</ele>
        <time>2021-08-02T11:29:54.285Z</time>
      </trkpt>
      <trkpt lat="47.02168" lon="8.94133">
        <ele>872</ele>
        <time>2021-08-02T11:29:55.285Z</time>
      </trkpt>
      <trkpt lat="47.02168" lon="8.94131">
        <ele>872</ele>
        <time>2021-08-02T11:29:56.285Z</time>
      </trkpt>
      <trkpt lat="47.02168" lon="8.9413">
        <ele>872</ele>
        <time>2021-08-02T11:29:57.285Z</time>
      </trkpt>
      <trkpt lat="47.02167" lon="8.94126">
        <ele>872</ele>
        <time>2021-08-02T11:29:58.285Z</time>
      </trkpt>
      <trkpt lat="47.02165" lon="8.94123">
        <ele>872</ele>
        <time>2021-08-02T11:29:59.285Z</time>
      </trkpt>
      <trkpt lat="47.02166" lon="8.94121">
        <ele>871</ele>
        <time>2021-08-02T11:30:00.285Z</time>
      </trkpt>
      <trkpt lat="47.02165" lon="8.94119">
        <ele>871</ele>
        <time>2021-08-02T11:30:01.285Z</time>
      </trkpt>
      <trkpt lat="47.02165" lon="8.94117">
        <ele>870</ele>
        <time>2021-08-02T11:30:02.285Z</time>
      </trkpt>
      <trkpt lat="47.02165" lon="8.94115">
        <ele>870</ele>
        <time>2021-08-02T11:30:03.285Z</time>
      </trkpt>
      <trkpt lat="47.02166" lon="8.94113">
        <ele>870</ele>
        <time>2021-08-02T11:30:04.285Z</time>
      </trkpt>
      <trkpt lat="47.02165" lon="8.94111">
        <ele>870</ele>
        <time>2021-08-02T11:30:05.285Z</time>
      </trkpt>
      <trkpt lat="47.02165" lon="8.9411">
        <ele>870</ele>
        <time>2021-08-02T11:30:06.285Z</time>
      </trkpt>
      <trkpt lat="47.02165" lon="8.94108">
        <ele>870</ele>
        <time>2021-08-02T11:30:07.285Z</time>
      </trkpt>
      <trkpt lat="47.02165" lon="8.94106">
        <ele>871</ele>
        <time>2021-08-02T11:30:08.285Z</time>
      </trkpt>
      <trkpt lat="47.02164" lon="8.94105">
        <ele>871</ele>
        <time>2021-08-02T11:30:09.285Z</time>
      </trkpt>
      <trkpt lat="47.02164" lon="8.94104">
        <ele>870</ele>
        <time>2021-08-02T11:30:10.285Z</time>
      </trkpt>
      <trkpt lat="47.02164" lon="8.94103">
        <ele>870</ele>
        <time>2021-08-02T11:30:11.285Z</time>
      </trkpt>
      <trkpt lat="47.02164" lon="8.94101">
        <ele>870</ele>
        <time>2021-08-02T11:30:12.285Z</time>
      </trkpt>
      <trkpt lat="47.02163" lon="8.941">
        <ele>869</ele>
        <time>2021-08-02T11:30:13.285Z</time>
      </trkpt>
      <trkpt lat="47.02163" lon="8.94099">
        <ele>868</ele>
        <time>2021-08-02T11:30:14.285Z</time>
      </trkpt>
      <trkpt lat="47.02162" lon="8.94098">
        <ele>867</ele>
        <time>2021-08-02T11:30:15.285Z</time>
      </trkpt>
      <trkpt lat="47.02162" lon="8.94097">
        <ele>867</ele>
        <time>2021-08-02T11:30:16.285Z</time>
      </trkpt>
      <trkpt lat="47.02162" lon="8.94095">
        <ele>866</ele>
        <time>2021-08-02T11:30:17.285Z</time>
      </trkpt>
      <trkpt lat="47.02162" lon="8.94093">
        <ele>865</ele>
        <time>2021-08-02T11:30:18.285Z</time>
      </trkpt>
      <trkpt lat="47.02162" lon="8.94091">
        <ele>865</ele>
        <time>2021-08-02T11:30:19.285Z</time>
      </trkpt>
      <trkpt lat="47.02163" lon="8.9409">
        <ele>864</ele>
        <time>2021-08-02T11:30:20.285Z</time>
      </trkpt>
      <trkpt lat="47.02163" lon="8.94088">
        <ele>864</ele>
        <time>2021-08-02T11:30:21.285Z</time>
      </trkpt>
      <trkpt lat="47.02164" lon="8.94086">
        <ele>864</ele>
        <time>2021-08-02T11:30:22.285Z</time>
      </trkpt>
      <trkpt lat="47.02165" lon="8.94085">
        <ele>864</ele>
        <time>2021-08-02T11:30:23.285Z</time>
      </trkpt>
      <trkpt lat="47.02165" lon="8.94084">
        <ele>864</ele>
        <time>2021-08-02T11:30:24.285Z</time>
      </trkpt>
      <trkpt lat="47.02165" lon="8.94082">
        <ele>864</ele>
        <time>2021-08-02T11:30:25.285Z</time>
      </trkpt>
      <trkpt lat="47.02164" lon="8.9408">
        <ele>864</ele>
        <time>2021-08-02T11:30:26.285Z</time>
      </trkpt>
      <trkpt lat="47.02164" lon="8.94079">
        <ele>863</ele>
        <time>2021-08-02T11:30:27.285Z</time>
      </trkpt>
      <trkpt lat="47.02165" lon="8.94077">
        <ele>863</ele>
        <time>2021-08-02T11:30:28.285Z</time>
      </trkpt>
      <trkpt lat="47.02165" lon="8.94075">
        <ele>864</ele>
        <time>2021-08-02T11:30:29.285Z</time>
      </trkpt>
      <trkpt lat="47.02166" lon="8.94072">
        <ele>864</ele>
        <time>2021-08-02T11:30:30.285Z</time>
      </trkpt>
      <trkpt lat="47.02166" lon="8.9407">
        <ele>864</ele>
        <time>2021-08-02T11:30:31.285Z</time>
      </trkpt>
      <trkpt lat="47.02165" lon="8.94069">
        <ele>864</ele>
        <time>2021-08-02T11:30:32.285Z</time>
      </trkpt>
      <trkpt lat="47.02164" lon="8.94067">
        <ele>865</ele>
        <time>2021-08-02T11:30:33.285Z</time>
      </trkpt>
      <trkpt lat="47.02165" lon="8.94065">
        <ele>865</ele>
        <time>2021-08-02T11:30:34.285Z</time>
      </trkpt>
      <trkpt lat="47.02166" lon="8.94064">
        <ele>866</ele>
        <time>2021-08-02T11:30:35.285Z</time>
      </trkpt>
      <trkpt lat="47.02168" lon="8.94061">
        <ele>866</ele>
        <time>2021-08-02T11:30:36.285Z</time>
      </trkpt>
      <trkpt lat="47.02169" lon="8.94058">
        <ele>866</ele>
        <time>2021-08-02T11:30:37.285Z</time>
      </trkpt>
      <trkpt lat="47.0217" lon="8.94056">
        <ele>866</ele>
        <time>2021-08-02T11:30:38.285Z</time>
      </trkpt>
      <trkpt lat="47.0217" lon="8.94055">
        <ele>866</ele>
        <time>2021-08-02T11:30:39.285Z</time>
      </trkpt>
      <trkpt lat="47.02169" lon="8.94053">
        <ele>866</ele>
        <time>2021-08-02T11:30:40.285Z</time>
      </trkpt>
      <trkpt lat="47.0217" lon="8.94052">
        <ele>866</ele>
        <time>2021-08-02T11:30:41.285Z</time>
      </trkpt>
      <trkpt lat="47.0217" lon="8.94051">
        <ele>866</ele>
        <time>2021-08-02T11:30:42.285Z</time>
      </trkpt>
      <trkpt lat="47.0217" lon="8.9405">
        <ele>865</ele>
        <time>2021-08-02T11:30:43.285Z</time>
      </trkpt>
      <trkpt lat="47.0217" lon="8.94048">
        <ele>864</ele>
        <time>2021-08-02T11:30:44.285Z</time>
      </trkpt>
      <trkpt lat="47.0217" lon="8.94047">
        <ele>864</ele>
        <time>2021-08-02T11:30:45.285Z</time>
      </trkpt>
      <trkpt lat="47.02171" lon="8.94045">
        <ele>863</ele>
        <time>2021-08-02T11:30:46.285Z</time>
      </trkpt>
      <trkpt lat="47.02171" lon="8.94044">
        <ele>863</ele>
        <time>2021-08-02T11:30:47.285Z</time>
      </trkpt>
      <trkpt lat="47.02172" lon="8.94043">
        <ele>863</ele>
        <time>2021-08-02T11:30:48.285Z</time>
      </trkpt>
      <trkpt lat="47.02172" lon="8.94042">
        <ele>862</ele>
        <time>2021-08-02T11:30:49.285Z</time>
      </trkpt>
      <trkpt lat="47.02173" lon="8.94041">
        <ele>862</ele>
        <time>2021-08-02T11:30:50.285Z</time>
      </trkpt>
      <trkpt lat="47.02173" lon="8.9404">
        <ele>862</ele>
        <time>2021-08-02T11:30:51.285Z</time>
      </trkpt>
      <trkpt lat="47.02174" lon="8.94039">
        <ele>861</ele>
        <time>2021-08-02T11:30:52.285Z</time>
      </trkpt>
      <trkpt lat="47.02174" lon="8.94038">
        <ele>861</ele>
        <time>2021-08-02T11:30:53.285Z</time>
      </trkpt>
      <trkpt lat="47.02174" lon="8.94037">
        <ele>860</ele>
        <time>2021-08-02T11:30:54.285Z</time>
      </trkpt>
      <trkpt lat="47.02174" lon="8.94035">
        <ele>860</ele>
        <time>2021-08-02T11:30:55.285Z</time>
      </trkpt>
      <trkpt lat="47.02175" lon="8.94035">
        <ele>859</ele>
        <time>2021-08-02T11:30:56.285Z</time>
      </trkpt>
      <trkpt lat="47.02175" lon="8.94034">
        <ele>858</ele>
        <time>2021-08-02T11:30:57.285Z</time>
      </trkpt>
      <trkpt lat="47.02174" lon="8.94033">
        <ele>858</ele>
        <time>2021-08-02T11:30:58.285Z</time>
      </trkpt>
      <trkpt lat="47.02174" lon="8.94032">
        <ele>857</ele>
        <time>2021-08-02T11:30:59.285Z</time>
      </trkpt>
      <trkpt lat="47.02175" lon="8.94031">
        <ele>858</ele>
        <time>2021-08-02T11:31:00.285Z</time>
      </trkpt>
      <trkpt lat="47.02175" lon="8.9403">
        <ele>858</ele>
        <time>2021-08-02T11:31:01.285Z</time>
      </trkpt>
      <trkpt lat="47.02175" lon="8.94028">
        <ele>858</ele>
        <time>2021-08-02T11:31:02.285Z</time>
      </trkpt>
      <trkpt lat="47.02175" lon="8.94027">
        <ele>858</ele>
        <time>2021-08-02T11:31:03.285Z</time>
      </trkpt>
      <trkpt lat="47.02175" lon="8.94025">
        <ele>858</ele>
        <time>2021-08-02T11:31:04.285Z</time>
      </trkpt>
      <trkpt lat="47.02174" lon="8.94023">
        <ele>859</ele>
        <time>2021-08-02T11:31:05.285Z</time>
      </trkpt>
      <trkpt lat="47.02174" lon="8.94021">
        <ele>859</ele>
        <time>2021-08-02T11:31:06.285Z</time>
      </trkpt>
      <trkpt lat="47.02174" lon="8.94018">
        <ele>859</ele>
        <time>2021-08-02T11:31:07.285Z</time>
      </trkpt>
      <trkpt lat="47.02174" lon="8.94015">
        <ele>859</ele>
        <time>2021-08-02T11:31:08.285Z</time>
      </trkpt>
      <trkpt lat="47.02174" lon="8.94013">
        <ele>859</ele>
        <time>2021-08-02T11:31:09.285Z</time>
      </trkpt>
      <trkpt lat="47.02175" lon="8.9401">
        <ele>860</ele>
        <time>2021-08-02T11:31:10.285Z</time>
      </trkpt>
      <trkpt lat="47.02175" lon="8.94008">
        <ele>860</ele>
        <time>2021-08-02T11:31:11.285Z</time>
      </trkpt>
      <trkpt lat="47.02174" lon="8.94006">
        <ele>860</ele>
        <time>2021-08-02T11:31:12.285Z</time>
      </trkpt>
      <trkpt lat="47.02174" lon="8.94004">
        <ele>860</ele>
        <time>2021-08-02T11:31:13.285Z</time>
      </trkpt>
      <trkpt lat="47.02174" lon="8.94001">
        <ele>861</ele>
        <time>2021-08-02T11:31:14.285Z</time>
      </trkpt>
      <trkpt lat="47.02174" lon="8.93998">
        <ele>861</ele>
        <time>2021-08-02T11:31:15.285Z</time>
      </trkpt>
      <trkpt lat="47.02174" lon="8.93997">
        <ele>861</ele>
        <time>2021-08-02T11:31:16.285Z</time>
      </trkpt>
      <trkpt lat="47.02174" lon="8.93994">
        <ele>861</ele>
        <time>2021-08-02T11:31:17.285Z</time>
      </trkpt>
      <trkpt lat="47.02173" lon="8.93992">
        <ele>861</ele>
        <time>2021-08-02T11:31:18.285Z</time>
      </trkpt>
      <trkpt lat="47.02172" lon="8.93989">
        <ele>862</ele>
        <time>2021-08-02T11:31:19.285Z</time>
      </trkpt>
      <trkpt lat="47.0217" lon="8.93987">
        <ele>862</ele>
        <time>2021-08-02T11:31:20.285Z</time>
      </trkpt>
      <trkpt lat="47.02169" lon="8.93985">
        <ele>862</ele>
        <time>2021-08-02T11:31:21.285Z</time>
      </trkpt>
      <trkpt lat="47.02168" lon="8.93984">
        <ele>862</ele>
        <time>2021-08-02T11:31:22.285Z</time>
      </trkpt>
      <trkpt lat="47.02167" lon="8.93983">
        <ele>862</ele>
        <time>2021-08-02T11:31:23.285Z</time>
      </trkpt>
      <trkpt lat="47.02166" lon="8.93981">
        <ele>861</ele>
        <time>2021-08-02T11:31:24.285Z</time>
      </trkpt>
      <trkpt lat="47.02165" lon="8.9398">
        <ele>861</ele>
        <time>2021-08-02T11:31:25.285Z</time>
      </trkpt>
      <trkpt lat="47.02165" lon="8.93979">
        <ele>861</ele>
        <time>2021-08-02T11:31:26.285Z</time>
      </trkpt>
      <trkpt lat="47.02164" lon="8.93978">
        <ele>861</ele>
        <time>2021-08-02T11:31:27.285Z</time>
      </trkpt>
      <trkpt lat="47.02163" lon="8.93977">
        <ele>860</ele>
        <time>2021-08-02T11:31:28.285Z</time>
      </trkpt>
      <trkpt lat="47.02162" lon="8.93975">
        <ele>860</ele>
        <time>2021-08-02T11:31:29.285Z</time>
      </trkpt>
      <trkpt lat="47.02162" lon="8.93974">
        <ele>859</ele>
        <time>2021-08-02T11:31:30.285Z</time>
      </trkpt>
      <trkpt lat="47.02162" lon="8.93972">
        <ele>859</ele>
        <time>2021-08-02T11:31:31.285Z</time>
      </trkpt>
      <trkpt lat="47.02163" lon="8.9397">
        <ele>858</ele>
        <time>2021-08-02T11:31:32.285Z</time>
      </trkpt>
      <trkpt lat="47.02165" lon="8.93969">
        <ele>858</ele>
        <time>2021-08-02T11:31:33.285Z</time>
      </trkpt>
      <trkpt lat="47.02167" lon="8.93968">
        <ele>858</ele>
        <time>2021-08-02T11:31:34.285Z</time>
      </trkpt>
      <trkpt lat="47.02168" lon="8.93966">
        <ele>857</ele>
        <time>2021-08-02T11:31:35.285Z</time>
      </trkpt>
      <trkpt lat="47.02169" lon="8.93966">
        <ele>857</ele>
        <time>2021-08-02T11:31:36.285Z</time>
      </trkpt>
      <trkpt lat="47.02171" lon="8.93965">
        <ele>857</ele>
        <time>2021-08-02T11:31:37.285Z</time>
      </trkpt>
      <trkpt lat="47.02172" lon="8.93965">
        <ele>857</ele>
        <time>2021-08-02T11:31:38.285Z</time>
      </trkpt>
      <trkpt lat="47.02172" lon="8.93965">
        <ele>857</ele>
        <time>2021-08-02T11:31:39.285Z</time>
      </trkpt>
      <trkpt lat="47.02173" lon="8.93965">
        <ele>857</ele>
        <time>2021-08-02T11:31:40.285Z</time>
      </trkpt>
      <trkpt lat="47.02174" lon="8.93964">
        <ele>857</ele>
        <time>2021-08-02T11:31:41.285Z</time>
      </trkpt>
      <trkpt lat="47.02175" lon="8.93963">
        <ele>856</ele>
        <time>2021-08-02T11:31:42.285Z</time>
      </trkpt>
      <trkpt lat="47.02176" lon="8.93962">
        <ele>856</ele>
        <time>2021-08-02T11:31:43.285Z</time>
      </trkpt>
      <trkpt lat="47.02177" lon="8.93961">
        <ele>856</ele>
        <time>2021-08-02T11:31:44.285Z</time>
      </trkpt>
      <trkpt lat="47.02178" lon="8.9396">
        <ele>856</ele>
        <time>2021-08-02T11:31:45.285Z</time>
      </trkpt>
      <trkpt lat="47.02179" lon="8.93959">
        <ele>856</ele>
        <time>2021-08-02T11:31:46.285Z</time>
      </trkpt>
      <trkpt lat="47.0218" lon="8.93958">
        <ele>855</ele>
        <time>2021-08-02T11:31:47.285Z</time>
      </trkpt>
      <trkpt lat="47.02181" lon="8.93957">
        <ele>855</ele>
        <time>2021-08-02T11:31:48.285Z</time>
      </trkpt>
      <trkpt lat="47.02182" lon="8.93957">
        <ele>855</ele>
        <time>2021-08-02T11:31:49.285Z</time>
      </trkpt>
      <trkpt lat="47.02183" lon="8.93956">
        <ele>855</ele>
        <time>2021-08-02T11:31:50.285Z</time>
      </trkpt>
      <trkpt lat="47.02185" lon="8.93955">
        <ele>854</ele>
        <time>2021-08-02T11:31:51.285Z</time>
      </trkpt>
      <trkpt lat="47.02186" lon="8.93953">
        <ele>854</ele>
        <time>2021-08-02T11:31:52.285Z</time>
      </trkpt>
      <trkpt lat="47.02188" lon="8.93952">
        <ele>854</ele>
        <time>2021-08-02T11:31:53.285Z</time>
      </trkpt>
      <trkpt lat="47.02188" lon="8.93951">
        <ele>854</ele>
        <time>2021-08-02T11:31:54.285Z</time>
      </trkpt>
      <trkpt lat="47.02189" lon="8.93949">
        <ele>854</ele>
        <time>2021-08-02T11:31:55.285Z</time>
      </trkpt>
      <trkpt lat="47.02191" lon="8.93948">
        <ele>853</ele>
        <time>2021-08-02T11:31:56.285Z</time>
      </trkpt>
      <trkpt lat="47.02193" lon="8.93946">
        <ele>853</ele>
        <time>2021-08-02T11:31:57.285Z</time>
      </trkpt>
      <trkpt lat="47.02194" lon="8.93944">
        <ele>853</ele>
        <time>2021-08-02T11:31:58.285Z</time>
      </trkpt>
      <trkpt lat="47.02196" lon="8.93944">
        <ele>853</ele>
        <time>2021-08-02T11:31:59.285Z</time>
      </trkpt>
      <trkpt lat="47.02198" lon="8.93942">
        <ele>853</ele>
        <time>2021-08-02T11:32:00.285Z</time>
      </trkpt>
      <trkpt lat="47.02199" lon="8.93942">
        <ele>852</ele>
        <time>2021-08-02T11:32:01.285Z</time>
      </trkpt>
      <trkpt lat="47.022" lon="8.93942">
        <ele>852</ele>
        <time>2021-08-02T11:32:02.285Z</time>
      </trkpt>
      <trkpt lat="47.02201" lon="8.93942">
        <ele>852</ele>
        <time>2021-08-02T11:32:03.285Z</time>
      </trkpt>
      <trkpt lat="47.02201" lon="8.93942">
        <ele>852</ele>
        <time>2021-08-02T11:32:04.285Z</time>
      </trkpt>
      <trkpt lat="47.02202" lon="8.93942">
        <ele>852</ele>
        <time>2021-08-02T11:32:05.285Z</time>
      </trkpt>
      <trkpt lat="47.02203" lon="8.93941">
        <ele>852</ele>
        <time>2021-08-02T11:32:06.285Z</time>
      </trkpt>
      <trkpt lat="47.02203" lon="8.9394">
        <ele>852</ele>
        <time>2021-08-02T11:32:07.285Z</time>
      </trkpt>
      <trkpt lat="47.02204" lon="8.9394">
        <ele>852</ele>
        <time>2021-08-02T11:32:08.285Z</time>
      </trkpt>
      <trkpt lat="47.02205" lon="8.93939">
        <ele>852</ele>
        <time>2021-08-02T11:32:09.285Z</time>
      </trkpt>
      <trkpt lat="47.02207" lon="8.93938">
        <ele>852</ele>
        <time>2021-08-02T11:32:10.285Z</time>
      </trkpt>
      <trkpt lat="47.02208" lon="8.93937">
        <ele>853</ele>
        <time>2021-08-02T11:32:11.285Z</time>
      </trkpt>
      <trkpt lat="47.02209" lon="8.93936">
        <ele>852</ele>
        <time>2021-08-02T11:32:12.285Z</time>
      </trkpt>
      <trkpt lat="47.0221" lon="8.93936">
        <ele>852</ele>
        <time>2021-08-02T11:32:13.285Z</time>
      </trkpt>
      <trkpt lat="47.02211" lon="8.93935">
        <ele>852</ele>
        <time>2021-08-02T11:32:14.285Z</time>
      </trkpt>
      <trkpt lat="47.02212" lon="8.93935">
        <ele>852</ele>
        <time>2021-08-02T11:32:15.285Z</time>
      </trkpt>
      <trkpt lat="47.02214" lon="8.93934">
        <ele>852</ele>
        <time>2021-08-02T11:32:16.285Z</time>
      </trkpt>
      <trkpt lat="47.02216" lon="8.93933">
        <ele>852</ele>
        <time>2021-08-02T11:32:17.285Z</time>
      </trkpt>
      <trkpt lat="47.02216" lon="8.93932">
        <ele>853</ele>
        <time>2021-08-02T11:32:18.285Z</time>
      </trkpt>
      <trkpt lat="47.02218" lon="8.93931">
        <ele>853</ele>
        <time>2021-08-02T11:32:19.285Z</time>
      </trkpt>
      <trkpt lat="47.02218" lon="8.9393">
        <ele>853</ele>
        <time>2021-08-02T11:32:20.285Z</time>
      </trkpt>
      <trkpt lat="47.02219" lon="8.93929">
        <ele>853</ele>
        <time>2021-08-02T11:32:21.285Z</time>
      </trkpt>
      <trkpt lat="47.02221" lon="8.93928">
        <ele>852</ele>
        <time>2021-08-02T11:32:22.285Z</time>
      </trkpt>
      <trkpt lat="47.02222" lon="8.93927">
        <ele>852</ele>
        <time>2021-08-02T11:32:23.285Z</time>
      </trkpt>
      <trkpt lat="47.02223" lon="8.93926">
        <ele>852</ele>
        <time>2021-08-02T11:32:24.285Z</time>
      </trkpt>
      <trkpt lat="47.02225" lon="8.93925">
        <ele>852</ele>
        <time>2021-08-02T11:32:25.285Z</time>
      </trkpt>
      <trkpt lat="47.02227" lon="8.93924">
        <ele>852</ele>
        <time>2021-08-02T11:32:26.285Z</time>
      </trkpt>
      <trkpt lat="47.02228" lon="8.93923">
        <ele>852</ele>
        <time>2021-08-02T11:32:27.285Z</time>
      </trkpt>
      <trkpt lat="47.0223" lon="8.93923">
        <ele>852</ele>
        <time>2021-08-02T11:32:28.285Z</time>
      </trkpt>
      <trkpt lat="47.02231" lon="8.93922">
        <ele>852</ele>
        <time>2021-08-02T11:32:29.285Z</time>
      </trkpt>
      <trkpt lat="47.02233" lon="8.93921">
        <ele>852</ele>
        <time>2021-08-02T11:32:30.285Z</time>
      </trkpt>
      <trkpt lat="47.02234" lon="8.93921">
        <ele>852</ele>
        <time>2021-08-02T11:32:31.285Z</time>
      </trkpt>
      <trkpt lat="47.02235" lon="8.9392">
        <ele>852</ele>
        <time>2021-08-02T11:32:32.285Z</time>
      </trkpt>
      <trkpt lat="47.02236" lon="8.9392">
        <ele>852</ele>
        <time>2021-08-02T11:32:33.285Z</time>
      </trkpt>
      <trkpt lat="47.02237" lon="8.9392">
        <ele>852</ele>
        <time>2021-08-02T11:32:34.285Z</time>
      </trkpt>
      <trkpt lat="47.02239" lon="8.93919">
        <ele>853</ele>
        <time>2021-08-02T11:32:35.285Z</time>
      </trkpt>
      <trkpt lat="47.02241" lon="8.93918">
        <ele>853</ele>
        <time>2021-08-02T11:32:36.285Z</time>
      </trkpt>
      <trkpt lat="47.02242" lon="8.93917">
        <ele>854</ele>
        <time>2021-08-02T11:32:37.285Z</time>
      </trkpt>
      <trkpt lat="47.02243" lon="8.93916">
        <ele>854</ele>
        <time>2021-08-02T11:32:38.285Z</time>
      </trkpt>
      <trkpt lat="47.02245" lon="8.93915">
        <ele>854</ele>
        <time>2021-08-02T11:32:39.285Z</time>
      </trkpt>
      <trkpt lat="47.02245" lon="8.93914">
        <ele>855</ele>
        <time>2021-08-02T11:32:40.285Z</time>
      </trkpt>
      <trkpt lat="47.02246" lon="8.93914">
        <ele>855</ele>
        <time>2021-08-02T11:32:41.285Z</time>
      </trkpt>
      <trkpt lat="47.02248" lon="8.93913">
        <ele>856</ele>
        <time>2021-08-02T11:32:42.285Z</time>
      </trkpt>
      <trkpt lat="47.02249" lon="8.93912">
        <ele>856</ele>
        <time>2021-08-02T11:32:43.285Z</time>
      </trkpt>
      <trkpt lat="47.0225" lon="8.93911">
        <ele>857</ele>
        <time>2021-08-02T11:32:44.285Z</time>
      </trkpt>
      <trkpt lat="47.02251" lon="8.9391">
        <ele>857</ele>
        <time>2021-08-02T11:32:45.285Z</time>
      </trkpt>
      <trkpt lat="47.02252" lon="8.93909">
        <ele>857</ele>
        <time>2021-08-02T11:32:46.285Z</time>
      </trkpt>
      <trkpt lat="47.02254" lon="8.93909">
        <ele>857</ele>
        <time>2021-08-02T11:32:47.285Z</time>
      </trkpt>
      <trkpt lat="47.02255" lon="8.93908">
        <ele>856</ele>
        <time>2021-08-02T11:32:48.285Z</time>
      </trkpt>
      <trkpt lat="47.02256" lon="8.93907">
        <ele>856</ele>
        <time>2021-08-02T11:32:49.285Z</time>
      </trkpt>
      <trkpt lat="47.02257" lon="8.93906">
        <ele>856</ele>
        <time>2021-08-02T11:32:50.285Z</time>
      </trkpt>
      <trkpt lat="47.02259" lon="8.93905">
        <ele>856</ele>
        <time>2021-08-02T11:32:51.285Z</time>
      </trkpt>
      <trkpt lat="47.02261" lon="8.93904">
        <ele>856</ele>
        <time>2021-08-02T11:32:52.285Z</time>
      </trkpt>
      <trkpt lat="47.02262" lon="8.93904">
        <ele>856</ele>
        <time>2021-08-02T11:32:53.285Z</time>
      </trkpt>
      <trkpt lat="47.02263" lon="8.93902">
        <ele>856</ele>
        <time>2021-08-02T11:32:54.285Z</time>
      </trkpt>
      <trkpt lat="47.02264" lon="8.93901">
        <ele>856</ele>
        <time>2021-08-02T11:32:55.285Z</time>
      </trkpt>
      <trkpt lat="47.02265" lon="8.93901">
        <ele>856</ele>
        <time>2021-08-02T11:32:56.285Z</time>
      </trkpt>
      <trkpt lat="47.02266" lon="8.939">
        <ele>855</ele>
        <time>2021-08-02T11:32:57.285Z</time>
      </trkpt>
      <trkpt lat="47.02267" lon="8.93898">
        <ele>855</ele>
        <time>2021-08-02T11:32:58.285Z</time>
      </trkpt>
      <trkpt lat="47.02268" lon="8.93897">
        <ele>855</ele>
        <time>2021-08-02T11:32:59.285Z</time>
      </trkpt>
      <trkpt lat="47.02269" lon="8.93896">
        <ele>854</ele>
        <time>2021-08-02T11:33:00.285Z</time>
      </trkpt>
      <trkpt lat="47.0227" lon="8.93894">
        <ele>854</ele>
        <time>2021-08-02T11:33:01.285Z</time>
      </trkpt>
      <trkpt lat="47.02271" lon="8.93893">
        <ele>854</ele>
        <time>2021-08-02T11:33:02.285Z</time>
      </trkpt>
      <trkpt lat="47.02273" lon="8.93893">
        <ele>854</ele>
        <time>2021-08-02T11:33:03.285Z</time>
      </trkpt>
      <trkpt lat="47.02274" lon="8.93891">
        <ele>853</ele>
        <time>2021-08-02T11:33:04.285Z</time>
      </trkpt>
      <trkpt lat="47.02275" lon="8.93891">
        <ele>853</ele>
        <time>2021-08-02T11:33:05.285Z</time>
      </trkpt>
      <trkpt lat="47.02276" lon="8.9389">
        <ele>853</ele>
        <time>2021-08-02T11:33:06.285Z</time>
      </trkpt>
      <trkpt lat="47.02277" lon="8.93888">
        <ele>852</ele>
        <time>2021-08-02T11:33:07.285Z</time>
      </trkpt>
      <trkpt lat="47.02278" lon="8.93887">
        <ele>851</ele>
        <time>2021-08-02T11:33:08.285Z</time>
      </trkpt>
      <trkpt lat="47.02279" lon="8.93886">
        <ele>851</ele>
        <time>2021-08-02T11:33:09.285Z</time>
      </trkpt>
      <trkpt lat="47.0228" lon="8.93884">
        <ele>850</ele>
        <time>2021-08-02T11:33:10.285Z</time>
      </trkpt>
      <trkpt lat="47.0228" lon="8.93883">
        <ele>850</ele>
        <time>2021-08-02T11:33:11.285Z</time>
      </trkpt>
      <trkpt lat="47.0228" lon="8.93882">
        <ele>850</ele>
        <time>2021-08-02T11:33:12.285Z</time>
      </trkpt>
      <trkpt lat="47.02281" lon="8.93881">
        <ele>850</ele>
        <time>2021-08-02T11:33:14.276Z</time>
      </trkpt>
      <trkpt lat="47.02282" lon="8.9388">
        <ele>850</ele>
        <time>2021-08-02T11:33:15.276Z</time>
      </trkpt>
      <trkpt lat="47.02282" lon="8.93879">
        <ele>850</ele>
        <time>2021-08-02T11:33:16.276Z</time>
      </trkpt>
      <trkpt lat="47.02283" lon="8.93877">
        <ele>849</ele>
        <time>2021-08-02T11:33:17.276Z</time>
      </trkpt>
      <trkpt lat="47.02284" lon="8.93876">
        <ele>849</ele>
        <time>2021-08-02T11:33:18.276Z</time>
      </trkpt>
      <trkpt lat="47.02285" lon="8.93874">
        <ele>849</ele>
        <time>2021-08-02T11:33:19.276Z</time>
      </trkpt>
      <trkpt lat="47.02286" lon="8.93873">
        <ele>848</ele>
        <time>2021-08-02T11:33:20.276Z</time>
      </trkpt>
      <trkpt lat="47.02287" lon="8.93872">
        <ele>848</ele>
        <time>2021-08-02T11:33:21.276Z</time>
      </trkpt>
      <trkpt lat="47.02288" lon="8.93871">
        <ele>848</ele>
        <time>2021-08-02T11:33:22.276Z</time>
      </trkpt>
      <trkpt lat="47.0229" lon="8.9387">
        <ele>848</ele>
        <time>2021-08-02T11:33:23.276Z</time>
      </trkpt>
      <trkpt lat="47.02291" lon="8.93869">
        <ele>848</ele>
        <time>2021-08-02T11:33:24.276Z</time>
      </trkpt>
      <trkpt lat="47.02291" lon="8.93868">
        <ele>848</ele>
        <time>2021-08-02T11:33:25.276Z</time>
      </trkpt>
      <trkpt lat="47.02292" lon="8.93866">
        <ele>848</ele>
        <time>2021-08-02T11:33:26.276Z</time>
      </trkpt>
      <trkpt lat="47.02293" lon="8.93865">
        <ele>847</ele>
        <time>2021-08-02T11:33:27.276Z</time>
      </trkpt>
      <trkpt lat="47.02293" lon="8.93864">
        <ele>847</ele>
        <time>2021-08-02T11:33:28.276Z</time>
      </trkpt>
      <trkpt lat="47.02294" lon="8.93864">
        <ele>847</ele>
        <time>2021-08-02T11:33:29.276Z</time>
      </trkpt>
      <trkpt lat="47.02296" lon="8.93862">
        <ele>847</ele>
        <time>2021-08-02T11:33:30.276Z</time>
      </trkpt>
      <trkpt lat="47.02297" lon="8.9386">
        <ele>847</ele>
        <time>2021-08-02T11:33:31.276Z</time>
      </trkpt>
      <trkpt lat="47.02298" lon="8.93859">
        <ele>846</ele>
        <time>2021-08-02T11:33:32.276Z</time>
      </trkpt>
      <trkpt lat="47.02299" lon="8.93858">
        <ele>846</ele>
        <time>2021-08-02T11:33:33.276Z</time>
      </trkpt>
      <trkpt lat="47.023" lon="8.93858">
        <ele>846</ele>
        <time>2021-08-02T11:33:34.276Z</time>
      </trkpt>
      <trkpt lat="47.02301" lon="8.93857">
        <ele>846</ele>
        <time>2021-08-02T11:33:35.276Z</time>
      </trkpt>
      <trkpt lat="47.02301" lon="8.93857">
        <ele>846</ele>
        <time>2021-08-02T11:33:36.276Z</time>
      </trkpt>
      <trkpt lat="47.02302" lon="8.93856">
        <ele>846</ele>
        <time>2021-08-02T11:33:37.276Z</time>
      </trkpt>
      <trkpt lat="47.02303" lon="8.93856">
        <ele>847</ele>
        <time>2021-08-02T11:33:38.276Z</time>
      </trkpt>
      <trkpt lat="47.02303" lon="8.93855">
        <ele>847</ele>
        <time>2021-08-02T11:33:39.276Z</time>
      </trkpt>
      <trkpt lat="47.02304" lon="8.93854">
        <ele>848</ele>
        <time>2021-08-02T11:33:40.276Z</time>
      </trkpt>
      <trkpt lat="47.02305" lon="8.93854">
        <ele>848</ele>
        <time>2021-08-02T11:33:41.276Z</time>
      </trkpt>
      <trkpt lat="47.02307" lon="8.93853">
        <ele>849</ele>
        <time>2021-08-02T11:33:42.276Z</time>
      </trkpt>
      <trkpt lat="47.02307" lon="8.93853">
        <ele>849</ele>
        <time>2021-08-02T11:33:43.276Z</time>
      </trkpt>
      <trkpt lat="47.02308" lon="8.93853">
        <ele>849</ele>
        <time>2021-08-02T11:33:44.276Z</time>
      </trkpt>
      <trkpt lat="47.02309" lon="8.93853">
        <ele>850</ele>
        <time>2021-08-02T11:33:45.276Z</time>
      </trkpt>
      <trkpt lat="47.0231" lon="8.93853">
        <ele>850</ele>
        <time>2021-08-02T11:33:46.276Z</time>
      </trkpt>
      <trkpt lat="47.02311" lon="8.93853">
        <ele>851</ele>
        <time>2021-08-02T11:33:47.276Z</time>
      </trkpt>
      <trkpt lat="47.02312" lon="8.93853">
        <ele>851</ele>
        <time>2021-08-02T11:33:48.276Z</time>
      </trkpt>
      <trkpt lat="47.02313" lon="8.93853">
        <ele>851</ele>
        <time>2021-08-02T11:33:49.276Z</time>
      </trkpt>
      <trkpt lat="47.02314" lon="8.93853">
        <ele>852</ele>
        <time>2021-08-02T11:33:50.276Z</time>
      </trkpt>
      <trkpt lat="47.02316" lon="8.93853">
        <ele>852</ele>
        <time>2021-08-02T11:33:51.276Z</time>
      </trkpt>
      <trkpt lat="47.02317" lon="8.93852">
        <ele>852</ele>
        <time>2021-08-02T11:33:52.276Z</time>
      </trkpt>
      <trkpt lat="47.02317" lon="8.93852">
        <ele>852</ele>
        <time>2021-08-02T11:33:53.276Z</time>
      </trkpt>
      <trkpt lat="47.02318" lon="8.93853">
        <ele>852</ele>
        <time>2021-08-02T11:33:54.276Z</time>
      </trkpt>
      <trkpt lat="47.02318" lon="8.93854">
        <ele>852</ele>
        <time>2021-08-02T11:33:55.276Z</time>
      </trkpt>
      <trkpt lat="47.02319" lon="8.93856">
        <ele>852</ele>
        <time>2021-08-02T11:34:06.395Z</time>
      </trkpt>
      <trkpt lat="47.02319" lon="8.93857">
        <ele>852</ele>
        <time>2021-08-02T11:34:07.395Z</time>
      </trkpt>
      <trkpt lat="47.02319" lon="8.93859">
        <ele>853</ele>
        <time>2021-08-02T11:34:08.395Z</time>
      </trkpt>
      <trkpt lat="47.0232" lon="8.9386">
        <ele>853</ele>
        <time>2021-08-02T11:34:12.394Z</time>
      </trkpt>
      <trkpt lat="47.02321" lon="8.93861">
        <ele>853</ele>
        <time>2021-08-02T11:34:13.394Z</time>
      </trkpt>
      <trkpt lat="47.02321" lon="8.93862">
        <ele>854</ele>
        <time>2021-08-02T11:34:14.394Z</time>
      </trkpt>
      <trkpt lat="47.02322" lon="8.93863">
        <ele>854</ele>
        <time>2021-08-02T11:34:15.394Z</time>
      </trkpt>
      <trkpt lat="47.02323" lon="8.93864">
        <ele>855</ele>
        <time>2021-08-02T11:34:17.533Z</time>
      </trkpt>
      <trkpt lat="47.02323" lon="8.93866">
        <ele>855</ele>
        <time>2021-08-02T11:34:18.533Z</time>
      </trkpt>
      <trkpt lat="47.02324" lon="8.93867">
        <ele>856</ele>
        <time>2021-08-02T11:34:19.533Z</time>
      </trkpt>
      <trkpt lat="47.02324" lon="8.93869">
        <ele>856</ele>
        <time>2021-08-02T11:34:20.533Z</time>
      </trkpt>
      <trkpt lat="47.02325" lon="8.93871">
        <ele>857</ele>
        <time>2021-08-02T11:34:21.533Z</time>
      </trkpt>
      <trkpt lat="47.02326" lon="8.93873">
        <ele>857</ele>
        <time>2021-08-02T11:34:22.533Z</time>
      </trkpt>
      <trkpt lat="47.02326" lon="8.93875">
        <ele>858</ele>
        <time>2021-08-02T11:34:23.533Z</time>
      </trkpt>
      <trkpt lat="47.02326" lon="8.93877">
        <ele>858</ele>
        <time>2021-08-02T11:34:37.642Z</time>
      </trkpt>
      <trkpt lat="47.02327" lon="8.93879">
        <ele>858</ele>
        <time>2021-08-02T11:34:38.642Z</time>
      </trkpt>
      <trkpt lat="47.02327" lon="8.93881">
        <ele>858</ele>
        <time>2021-08-02T11:34:39.642Z</time>
      </trkpt>
      <trkpt lat="47.02327" lon="8.93884">
        <ele>858</ele>
        <time>2021-08-02T11:34:40.642Z</time>
      </trkpt>
      <trkpt lat="47.02328" lon="8.93886">
        <ele>858</ele>
        <time>2021-08-02T11:34:41.642Z</time>
      </trkpt>
      <trkpt lat="47.02328" lon="8.93887">
        <ele>858</ele>
        <time>2021-08-02T11:34:42.642Z</time>
      </trkpt>
      <trkpt lat="47.02329" lon="8.93889">
        <ele>858</ele>
        <time>2021-08-02T11:34:43.642Z</time>
      </trkpt>
      <trkpt lat="47.02329" lon="8.93891">
        <ele>858</ele>
        <time>2021-08-02T11:34:44.642Z</time>
      </trkpt>
      <trkpt lat="47.02328" lon="8.93892">
        <ele>858</ele>
        <time>2021-08-02T11:34:45.642Z</time>
      </trkpt>
      <trkpt lat="47.02329" lon="8.93892">
        <ele>858</ele>
        <time>2021-08-02T11:34:46.642Z</time>
      </trkpt>
      <trkpt lat="47.02329" lon="8.93894">
        <ele>858</ele>
        <time>2021-08-02T11:34:47.642Z</time>
      </trkpt>
      <trkpt lat="47.0233" lon="8.93896">
        <ele>858</ele>
        <time>2021-08-02T11:34:48.642Z</time>
      </trkpt>
      <trkpt lat="47.0233" lon="8.93898">
        <ele>858</ele>
        <time>2021-08-02T11:34:59.647Z</time>
      </trkpt>
      <trkpt lat="47.0233" lon="8.93899">
        <ele>858</ele>
        <time>2021-08-02T11:35:00.647Z</time>
      </trkpt>
      <trkpt lat="47.02331" lon="8.93901">
        <ele>858</ele>
        <time>2021-08-02T11:35:06.375Z</time>
      </trkpt>
      <trkpt lat="47.02331" lon="8.93902">
        <ele>858</ele>
        <time>2021-08-02T11:35:07.375Z</time>
      </trkpt>
      <trkpt lat="47.02332" lon="8.93904">
        <ele>858</ele>
        <time>2021-08-02T11:35:08.375Z</time>
      </trkpt>
      <trkpt lat="47.02332" lon="8.93906">
        <ele>858</ele>
        <time>2021-08-02T11:35:09.375Z</time>
      </trkpt>
      <trkpt lat="47.02332" lon="8.93908">
        <ele>858</ele>
        <time>2021-08-02T11:35:10.375Z</time>
      </trkpt>
      <trkpt lat="47.02332" lon="8.93908">
        <ele>858</ele>
        <time>2021-08-02T11:35:11.375Z</time>
      </trkpt>
      <trkpt lat="47.02332" lon="8.9391">
        <ele>858</ele>
        <time>2021-08-02T11:35:12.375Z</time>
      </trkpt>
      <trkpt lat="47.02333" lon="8.93912">
        <ele>857</ele>
        <time>2021-08-02T11:35:13.375Z</time>
      </trkpt>
      <trkpt lat="47.02334" lon="8.93914">
        <ele>857</ele>
        <time>2021-08-02T11:35:14.375Z</time>
      </trkpt>
      <trkpt lat="47.02335" lon="8.93917">
        <ele>857</ele>
        <time>2021-08-02T11:35:15.375Z</time>
      </trkpt>
      <trkpt lat="47.02335" lon="8.93918">
        <ele>858</ele>
        <time>2021-08-02T11:35:21.379Z</time>
      </trkpt>
      <trkpt lat="47.02335" lon="8.9392">
        <ele>858</ele>
        <time>2021-08-02T11:35:22.379Z</time>
      </trkpt>
      <trkpt lat="47.02336" lon="8.93921">
        <ele>858</ele>
        <time>2021-08-02T11:35:23.379Z</time>
      </trkpt>
      <trkpt lat="47.02336" lon="8.93922">
        <ele>858</ele>
        <time>2021-08-02T11:35:24.379Z</time>
      </trkpt>
      <trkpt lat="47.02336" lon="8.93924">
        <ele>858</ele>
        <time>2021-08-02T11:35:25.379Z</time>
      </trkpt>
      <trkpt lat="47.02337" lon="8.93925">
        <ele>858</ele>
        <time>2021-08-02T11:35:26.379Z</time>
      </trkpt>
      <trkpt lat="47.02338" lon="8.93926">
        <ele>858</ele>
        <time>2021-08-02T11:35:27.379Z</time>
      </trkpt>
      <trkpt lat="47.02339" lon="8.93929">
        <ele>858</ele>
        <time>2021-08-02T11:35:28.379Z</time>
      </trkpt>
      <trkpt lat="47.02339" lon="8.93931">
        <ele>858</ele>
        <time>2021-08-02T11:35:29.379Z</time>
      </trkpt>
      <trkpt lat="47.02341" lon="8.93934">
        <ele>858</ele>
        <time>2021-08-02T11:35:30.379Z</time>
      </trkpt>
      <trkpt lat="47.02342" lon="8.93936">
        <ele>858</ele>
        <time>2021-08-02T11:35:31.379Z</time>
      </trkpt>
      <trkpt lat="47.02344" lon="8.93937">
        <ele>858</ele>
        <time>2021-08-02T11:35:32.379Z</time>
      </trkpt>
      <trkpt lat="47.02345" lon="8.93938">
        <ele>858</ele>
        <time>2021-08-02T11:35:33.379Z</time>
      </trkpt>
      <trkpt lat="47.02347" lon="8.9394">
        <ele>858</ele>
        <time>2021-08-02T11:35:34.379Z</time>
      </trkpt>
      <trkpt lat="47.02347" lon="8.93941">
        <ele>858</ele>
        <time>2021-08-02T11:35:35.379Z</time>
      </trkpt>
      <trkpt lat="47.02347" lon="8.93943">
        <ele>858</ele>
        <time>2021-08-02T11:35:36.379Z</time>
      </trkpt>
      <trkpt lat="47.02348" lon="8.93945">
        <ele>857</ele>
        <time>2021-08-02T11:35:37.379Z</time>
      </trkpt>
      <trkpt lat="47.02348" lon="8.93946">
        <ele>857</ele>
        <time>2021-08-02T11:35:38.379Z</time>
      </trkpt>
      <trkpt lat="47.02349" lon="8.93947">
        <ele>856</ele>
        <time>2021-08-02T11:35:39.379Z</time>
      </trkpt>
      <trkpt lat="47.02349" lon="8.93948">
        <ele>856</ele>
        <time>2021-08-02T11:35:42.372Z</time>
      </trkpt>
      <trkpt lat="47.0235" lon="8.93949">
        <ele>855</ele>
        <time>2021-08-02T11:35:43.372Z</time>
      </trkpt>
      <trkpt lat="47.02351" lon="8.9395">
        <ele>854</ele>
        <time>2021-08-02T11:35:44.372Z</time>
      </trkpt>
      <trkpt lat="47.02351" lon="8.93951">
        <ele>853</ele>
        <time>2021-08-02T11:35:45.372Z</time>
      </trkpt>
      <trkpt lat="47.02352" lon="8.93952">
        <ele>853</ele>
        <time>2021-08-02T11:35:46.372Z</time>
      </trkpt>
      <trkpt lat="47.02352" lon="8.93953">
        <ele>852</ele>
        <time>2021-08-02T11:35:47.372Z</time>
      </trkpt>
      <trkpt lat="47.02353" lon="8.93955">
        <ele>851</ele>
        <time>2021-08-02T11:35:48.372Z</time>
      </trkpt>
      <trkpt lat="47.02353" lon="8.93956">
        <ele>850</ele>
        <time>2021-08-02T11:35:49.372Z</time>
      </trkpt>
      <trkpt lat="47.02353" lon="8.93957">
        <ele>849</ele>
        <time>2021-08-02T11:35:50.372Z</time>
      </trkpt>
      <trkpt lat="47.02354" lon="8.93958">
        <ele>848</ele>
        <time>2021-08-02T11:35:51.372Z</time>
      </trkpt>
      <trkpt lat="47.02355" lon="8.9396">
        <ele>848</ele>
        <time>2021-08-02T11:35:52.372Z</time>
      </trkpt>
      <trkpt lat="47.02356" lon="8.93961">
        <ele>847</ele>
        <time>2021-08-02T11:35:53.372Z</time>
      </trkpt>
      <trkpt lat="47.02356" lon="8.93963">
        <ele>847</ele>
        <time>2021-08-02T11:35:54.372Z</time>
      </trkpt>
      <trkpt lat="47.02357" lon="8.93964">
        <ele>847</ele>
        <time>2021-08-02T11:35:55.372Z</time>
      </trkpt>
      <trkpt lat="47.02359" lon="8.93966">
        <ele>847</ele>
        <time>2021-08-02T11:35:56.372Z</time>
      </trkpt>
      <trkpt lat="47.0236" lon="8.93968">
        <ele>847</ele>
        <time>2021-08-02T11:35:57.372Z</time>
      </trkpt>
      <trkpt lat="47.02361" lon="8.93969">
        <ele>847</ele>
        <time>2021-08-02T11:35:58.372Z</time>
      </trkpt>
      <trkpt lat="47.02362" lon="8.9397">
        <ele>847</ele>
        <time>2021-08-02T11:35:59.372Z</time>
      </trkpt>
      <trkpt lat="47.02363" lon="8.93971">
        <ele>847</ele>
        <time>2021-08-02T11:36:00.372Z</time>
      </trkpt>
      <trkpt lat="47.02364" lon="8.93971">
        <ele>847</ele>
        <time>2021-08-02T11:36:01.372Z</time>
      </trkpt>
      <trkpt lat="47.02364" lon="8.93972">
        <ele>847</ele>
        <time>2021-08-02T11:36:02.372Z</time>
      </trkpt>
      <trkpt lat="47.02365" lon="8.93974">
        <ele>847</ele>
        <time>2021-08-02T11:36:03.372Z</time>
      </trkpt>
      <trkpt lat="47.02366" lon="8.93976">
        <ele>847</ele>
        <time>2021-08-02T11:36:04.372Z</time>
      </trkpt>
      <trkpt lat="47.02367" lon="8.93977">
        <ele>848</ele>
        <time>2021-08-02T11:36:05.372Z</time>
      </trkpt>
      <trkpt lat="47.02368" lon="8.93978">
        <ele>848</ele>
        <time>2021-08-02T11:36:06.372Z</time>
      </trkpt>
      <trkpt lat="47.02369" lon="8.93979">
        <ele>848</ele>
        <time>2021-08-02T11:36:07.372Z</time>
      </trkpt>
      <trkpt lat="47.0237" lon="8.93981">
        <ele>849</ele>
        <time>2021-08-02T11:36:08.372Z</time>
      </trkpt>
      <trkpt lat="47.0237" lon="8.93982">
        <ele>849</ele>
        <time>2021-08-02T11:36:09.372Z</time>
      </trkpt>
      <trkpt lat="47.02371" lon="8.93985">
        <ele>849</ele>
        <time>2021-08-02T11:36:10.372Z</time>
      </trkpt>
      <trkpt lat="47.02371" lon="8.93988">
        <ele>850</ele>
        <time>2021-08-02T11:36:11.372Z</time>
      </trkpt>
      <trkpt lat="47.02372" lon="8.93988">
        <ele>850</ele>
        <time>2021-08-02T11:36:12.372Z</time>
      </trkpt>
      <trkpt lat="47.02373" lon="8.93989">
        <ele>850</ele>
        <time>2021-08-02T11:36:13.372Z</time>
      </trkpt>
      <trkpt lat="47.02374" lon="8.9399">
        <ele>849</ele>
        <time>2021-08-02T11:36:14.372Z</time>
      </trkpt>
      <trkpt lat="47.02375" lon="8.93991">
        <ele>849</ele>
        <time>2021-08-02T11:36:15.372Z</time>
      </trkpt>
      <trkpt lat="47.02376" lon="8.93992">
        <ele>849</ele>
        <time>2021-08-02T11:36:16.372Z</time>
      </trkpt>
      <trkpt lat="47.02377" lon="8.93993">
        <ele>848</ele>
        <time>2021-08-02T11:36:17.372Z</time>
      </trkpt>
      <trkpt lat="47.02377" lon="8.93994">
        <ele>848</ele>
        <time>2021-08-02T11:36:18.372Z</time>
      </trkpt>
      <trkpt lat="47.02378" lon="8.93995">
        <ele>848</ele>
        <time>2021-08-02T11:36:19.372Z</time>
      </trkpt>
      <trkpt lat="47.02379" lon="8.93996">
        <ele>848</ele>
        <time>2021-08-02T11:36:20.372Z</time>
      </trkpt>
      <trkpt lat="47.0238" lon="8.93997">
        <ele>849</ele>
        <time>2021-08-02T11:36:21.372Z</time>
      </trkpt>
      <trkpt lat="47.0238" lon="8.93998">
        <ele>849</ele>
        <time>2021-08-02T11:36:22.372Z</time>
      </trkpt>
      <trkpt lat="47.02381" lon="8.94">
        <ele>849</ele>
        <time>2021-08-02T11:36:23.372Z</time>
      </trkpt>
      <trkpt lat="47.02381" lon="8.94002">
        <ele>849</ele>
        <time>2021-08-02T11:36:24.372Z</time>
      </trkpt>
      <trkpt lat="47.02382" lon="8.94004">
        <ele>849</ele>
        <time>2021-08-02T11:36:25.372Z</time>
      </trkpt>
      <trkpt lat="47.02383" lon="8.94005">
        <ele>849</ele>
        <time>2021-08-02T11:36:26.372Z</time>
      </trkpt>
      <trkpt lat="47.02384" lon="8.94006">
        <ele>850</ele>
        <time>2021-08-02T11:36:27.372Z</time>
      </trkpt>
      <trkpt lat="47.02386" lon="8.94007">
        <ele>850</ele>
        <time>2021-08-02T11:36:28.372Z</time>
      </trkpt>
      <trkpt lat="47.02387" lon="8.94008">
        <ele>850</ele>
        <time>2021-08-02T11:36:29.372Z</time>
      </trkpt>
      <trkpt lat="47.02388" lon="8.94009">
        <ele>851</ele>
        <time>2021-08-02T11:36:30.372Z</time>
      </trkpt>
      <trkpt lat="47.02389" lon="8.9401">
        <ele>852</ele>
        <time>2021-08-02T11:36:31.372Z</time>
      </trkpt>
      <trkpt lat="47.02389" lon="8.94012">
        <ele>852</ele>
        <time>2021-08-02T11:36:32.372Z</time>
      </trkpt>
      <trkpt lat="47.0239" lon="8.94014">
        <ele>853</ele>
        <time>2021-08-02T11:36:33.372Z</time>
      </trkpt>
      <trkpt lat="47.0239" lon="8.94016">
        <ele>854</ele>
        <time>2021-08-02T11:36:34.372Z</time>
      </trkpt>
      <trkpt lat="47.02391" lon="8.94018">
        <ele>854</ele>
        <time>2021-08-02T11:36:35.372Z</time>
      </trkpt>
      <trkpt lat="47.02391" lon="8.9402">
        <ele>854</ele>
        <time>2021-08-02T11:36:36.372Z</time>
      </trkpt>
      <trkpt lat="47.02391" lon="8.94022">
        <ele>855</ele>
        <time>2021-08-02T11:36:37.372Z</time>
      </trkpt>
      <trkpt lat="47.0239" lon="8.94024">
        <ele>855</ele>
        <time>2021-08-02T11:36:38.372Z</time>
      </trkpt>
      <trkpt lat="47.02389" lon="8.94025">
        <ele>855</ele>
        <time>2021-08-02T11:36:39.372Z</time>
      </trkpt>
      <trkpt lat="47.0239" lon="8.94027">
        <ele>856</ele>
        <time>2021-08-02T11:36:40.372Z</time>
      </trkpt>
      <trkpt lat="47.0239" lon="8.94029">
        <ele>856</ele>
        <time>2021-08-02T11:36:41.372Z</time>
      </trkpt>
      <trkpt lat="47.0239" lon="8.94031">
        <ele>857</ele>
        <time>2021-08-02T11:36:42.372Z</time>
      </trkpt>
      <trkpt lat="47.02391" lon="8.94032">
        <ele>857</ele>
        <time>2021-08-02T11:36:43.372Z</time>
      </trkpt>
      <trkpt lat="47.02391" lon="8.94033">
        <ele>857</ele>
        <time>2021-08-02T11:36:44.372Z</time>
      </trkpt>
      <trkpt lat="47.02391" lon="8.94035">
        <ele>858</ele>
        <time>2021-08-02T11:36:45.372Z</time>
      </trkpt>
      <trkpt lat="47.02391" lon="8.94036">
        <ele>858</ele>
        <time>2021-08-02T11:36:46.372Z</time>
      </trkpt>
      <trkpt lat="47.02391" lon="8.94038">
        <ele>859</ele>
        <time>2021-08-02T11:36:47.372Z</time>
      </trkpt>
      <trkpt lat="47.02391" lon="8.9404">
        <ele>860</ele>
        <time>2021-08-02T11:36:48.372Z</time>
      </trkpt>
      <trkpt lat="47.02391" lon="8.94042">
        <ele>860</ele>
        <time>2021-08-02T11:36:49.372Z</time>
      </trkpt>
      <trkpt lat="47.02391" lon="8.94044">
        <ele>861</ele>
        <time>2021-08-02T11:36:50.372Z</time>
      </trkpt>
      <trkpt lat="47.02392" lon="8.94047">
        <ele>862</ele>
        <time>2021-08-02T11:36:51.372Z</time>
      </trkpt>
      <trkpt lat="47.02393" lon="8.9405">
        <ele>862</ele>
        <time>2021-08-02T11:36:52.372Z</time>
      </trkpt>
      <trkpt lat="47.02393" lon="8.94053">
        <ele>863</ele>
        <time>2021-08-02T11:36:53.372Z</time>
      </trkpt>
      <trkpt lat="47.02394" lon="8.94055">
        <ele>864</ele>
        <time>2021-08-02T11:36:54.372Z</time>
      </trkpt>
      <trkpt lat="47.02394" lon="8.94057">
        <ele>864</ele>
        <time>2021-08-02T11:36:55.372Z</time>
      </trkpt>
      <trkpt lat="47.02394" lon="8.94058">
        <ele>865</ele>
        <time>2021-08-02T11:36:56.372Z</time>
      </trkpt>
      <trkpt lat="47.02395" lon="8.94058">
        <ele>865</ele>
        <time>2021-08-02T11:36:57.372Z</time>
      </trkpt>
      <trkpt lat="47.02396" lon="8.94059">
        <ele>865</ele>
        <time>2021-08-02T11:36:58.372Z</time>
      </trkpt>
      <trkpt lat="47.02396" lon="8.9406">
        <ele>865</ele>
        <time>2021-08-02T11:36:59.372Z</time>
      </trkpt>
      <trkpt lat="47.02397" lon="8.94061">
        <ele>865</ele>
        <time>2021-08-02T11:37:00.372Z</time>
      </trkpt>
      <trkpt lat="47.02399" lon="8.94062">
        <ele>865</ele>
        <time>2021-08-02T11:37:01.372Z</time>
      </trkpt>
      <trkpt lat="47.02401" lon="8.94063">
        <ele>865</ele>
        <time>2021-08-02T11:37:02.372Z</time>
      </trkpt>
      <trkpt lat="47.02402" lon="8.94063">
        <ele>864</ele>
        <time>2021-08-02T11:37:03.372Z</time>
      </trkpt>
      <trkpt lat="47.02404" lon="8.94063">
        <ele>864</ele>
        <time>2021-08-02T11:37:04.372Z</time>
      </trkpt>
      <trkpt lat="47.02405" lon="8.94063">
        <ele>864</ele>
        <time>2021-08-02T11:37:05.372Z</time>
      </trkpt>
      <trkpt lat="47.02406" lon="8.94064">
        <ele>863</ele>
        <time>2021-08-02T11:37:06.372Z</time>
      </trkpt>
      <trkpt lat="47.02406" lon="8.94064">
        <ele>863</ele>
        <time>2021-08-02T11:37:07.372Z</time>
      </trkpt>
      <trkpt lat="47.02407" lon="8.94064">
        <ele>863</ele>
        <time>2021-08-02T11:37:08.372Z</time>
      </trkpt>
      <trkpt lat="47.02407" lon="8.94064">
        <ele>863</ele>
        <time>2021-08-02T11:37:09.372Z</time>
      </trkpt>
      <trkpt lat="47.02404" lon="8.94065">
        <ele>860</ele>
        <time>2021-08-02T11:37:10.373Z</time>
      </trkpt>
      <trkpt lat="47.02404" lon="8.94066">
        <ele>860</ele>
        <time>2021-08-02T11:37:11.372Z</time>
      </trkpt>
      <trkpt lat="47.02403" lon="8.94066">
        <ele>860</ele>
        <time>2021-08-02T11:37:12.372Z</time>
      </trkpt>
      <trkpt lat="47.02403" lon="8.94068">
        <ele>859</ele>
        <time>2021-08-02T11:37:13.373Z</time>
      </trkpt>
      <trkpt lat="47.02403" lon="8.94069">
        <ele>859</ele>
        <time>2021-08-02T11:37:14.372Z</time>
      </trkpt>
      <trkpt lat="47.02403" lon="8.94071">
        <ele>859</ele>
        <time>2021-08-02T11:37:15.372Z</time>
      </trkpt>
      <trkpt lat="47.02403" lon="8.94073">
        <ele>858</ele>
        <time>2021-08-02T11:37:16.372Z</time>
      </trkpt>
      <trkpt lat="47.02404" lon="8.94075">
        <ele>858</ele>
        <time>2021-08-02T11:37:17.373Z</time>
      </trkpt>
      <trkpt lat="47.02404" lon="8.94076">
        <ele>857</ele>
        <time>2021-08-02T11:37:18.372Z</time>
      </trkpt>
      <trkpt lat="47.02404" lon="8.94078">
        <ele>856</ele>
        <time>2021-08-02T11:37:19.372Z</time>
      </trkpt>
      <trkpt lat="47.02405" lon="8.9408">
        <ele>855</ele>
        <time>2021-08-02T11:37:20.372Z</time>
      </trkpt>
      <trkpt lat="47.02405" lon="8.94082">
        <ele>854</ele>
        <time>2021-08-02T11:37:21.372Z</time>
      </trkpt>
      <trkpt lat="47.02406" lon="8.94084">
        <ele>854</ele>
        <time>2021-08-02T11:37:22.372Z</time>
      </trkpt>
      <trkpt lat="47.02407" lon="8.94085">
        <ele>854</ele>
        <time>2021-08-02T11:37:23.372Z</time>
      </trkpt>
      <trkpt lat="47.02407" lon="8.94087">
        <ele>854</ele>
        <time>2021-08-02T11:37:24.372Z</time>
      </trkpt>
      <trkpt lat="47.02408" lon="8.94089">
        <ele>854</ele>
        <time>2021-08-02T11:37:25.372Z</time>
      </trkpt>
      <trkpt lat="47.02408" lon="8.94092">
        <ele>854</ele>
        <time>2021-08-02T11:37:26.372Z</time>
      </trkpt>
      <trkpt lat="47.02409" lon="8.94094">
        <ele>854</ele>
        <time>2021-08-02T11:37:27.372Z</time>
      </trkpt>
      <trkpt lat="47.02409" lon="8.94096">
        <ele>855</ele>
        <time>2021-08-02T11:37:28.372Z</time>
      </trkpt>
      <trkpt lat="47.02409" lon="8.94098">
        <ele>855</ele>
        <time>2021-08-02T11:37:29.373Z</time>
      </trkpt>
      <trkpt lat="47.0241" lon="8.94099">
        <ele>856</ele>
        <time>2021-08-02T11:37:30.372Z</time>
      </trkpt>
      <trkpt lat="47.0241" lon="8.941">
        <ele>856</ele>
        <time>2021-08-02T11:37:31.373Z</time>
      </trkpt>
      <trkpt lat="47.02411" lon="8.94102">
        <ele>856</ele>
        <time>2021-08-02T11:37:32.373Z</time>
      </trkpt>
      <trkpt lat="47.02411" lon="8.94104">
        <ele>856</ele>
        <time>2021-08-02T11:37:33.373Z</time>
      </trkpt>
      <trkpt lat="47.02412" lon="8.94106">
        <ele>855</ele>
        <time>2021-08-02T11:37:34.372Z</time>
      </trkpt>
      <trkpt lat="47.02412" lon="8.94107">
        <ele>856</ele>
        <time>2021-08-02T11:37:35.373Z</time>
      </trkpt>
      <trkpt lat="47.02412" lon="8.94109">
        <ele>856</ele>
        <time>2021-08-02T11:37:36.372Z</time>
      </trkpt>
      <trkpt lat="47.02413" lon="8.94111">
        <ele>856</ele>
        <time>2021-08-02T11:37:37.372Z</time>
      </trkpt>
      <trkpt lat="47.02413" lon="8.94113">
        <ele>856</ele>
        <time>2021-08-02T11:37:38.372Z</time>
      </trkpt>
      <trkpt lat="47.02413" lon="8.94115">
        <ele>856</ele>
        <time>2021-08-02T11:37:39.372Z</time>
      </trkpt>
      <trkpt lat="47.02413" lon="8.94117">
        <ele>856</ele>
        <time>2021-08-02T11:37:40.372Z</time>
      </trkpt>
      <trkpt lat="47.02414" lon="8.94118">
        <ele>856</ele>
        <time>2021-08-02T11:37:41.372Z</time>
      </trkpt>
      <trkpt lat="47.02414" lon="8.9412">
        <ele>856</ele>
        <time>2021-08-02T11:37:42.372Z</time>
      </trkpt>
      <trkpt lat="47.02414" lon="8.94122">
        <ele>856</ele>
        <time>2021-08-02T11:37:43.373Z</time>
      </trkpt>
      <trkpt lat="47.02414" lon="8.94123">
        <ele>856</ele>
        <time>2021-08-02T11:37:44.373Z</time>
      </trkpt>
      <trkpt lat="47.02415" lon="8.94125">
        <ele>856</ele>
        <time>2021-08-02T11:37:45.373Z</time>
      </trkpt>
      <trkpt lat="47.02416" lon="8.94127">
        <ele>856</ele>
        <time>2021-08-02T11:37:46.372Z</time>
      </trkpt>
      <trkpt lat="47.02416" lon="8.94129">
        <ele>857</ele>
        <time>2021-08-02T11:37:47.372Z</time>
      </trkpt>
      <trkpt lat="47.02416" lon="8.94131">
        <ele>857</ele>
        <time>2021-08-02T11:37:48.372Z</time>
      </trkpt>
      <trkpt lat="47.02416" lon="8.94133">
        <ele>857</ele>
        <time>2021-08-02T11:37:49.372Z</time>
      </trkpt>
      <trkpt lat="47.02417" lon="8.94134">
        <ele>857</ele>
        <time>2021-08-02T11:37:50.372Z</time>
      </trkpt>
      <trkpt lat="47.02417" lon="8.94136">
        <ele>857</ele>
        <time>2021-08-02T11:37:51.373Z</time>
      </trkpt>
      <trkpt lat="47.02418" lon="8.94138">
        <ele>856</ele>
        <time>2021-08-02T11:37:52.373Z</time>
      </trkpt>
      <trkpt lat="47.02418" lon="8.9414">
        <ele>856</ele>
        <time>2021-08-02T11:37:53.373Z</time>
      </trkpt>
      <trkpt lat="47.02419" lon="8.94142">
        <ele>855</ele>
        <time>2021-08-02T11:37:54.372Z</time>
      </trkpt>
      <trkpt lat="47.02419" lon="8.94144">
        <ele>855</ele>
        <time>2021-08-02T11:37:55.372Z</time>
      </trkpt>
      <trkpt lat="47.02419" lon="8.94145">
        <ele>854</ele>
        <time>2021-08-02T11:37:56.373Z</time>
      </trkpt>
      <trkpt lat="47.0242" lon="8.94147">
        <ele>854</ele>
        <time>2021-08-02T11:37:57.372Z</time>
      </trkpt>
      <trkpt lat="47.0242" lon="8.94149">
        <ele>853</ele>
        <time>2021-08-02T11:37:58.372Z</time>
      </trkpt>
      <trkpt lat="47.02421" lon="8.9415">
        <ele>852</ele>
        <time>2021-08-02T11:37:59.372Z</time>
      </trkpt>
      <trkpt lat="47.02421" lon="8.94152">
        <ele>851</ele>
        <time>2021-08-02T11:38:00.372Z</time>
      </trkpt>
      <trkpt lat="47.02422" lon="8.94153">
        <ele>851</ele>
        <time>2021-08-02T11:38:01.372Z</time>
      </trkpt>
      <trkpt lat="47.02422" lon="8.94155">
        <ele>850</ele>
        <time>2021-08-02T11:38:02.373Z</time>
      </trkpt>
      <trkpt lat="47.02423" lon="8.94157">
        <ele>850</ele>
        <time>2021-08-02T11:38:03.372Z</time>
      </trkpt>
      <trkpt lat="47.02423" lon="8.94158">
        <ele>850</ele>
        <time>2021-08-02T11:38:04.372Z</time>
      </trkpt>
      <trkpt lat="47.02424" lon="8.9416">
        <ele>850</ele>
        <time>2021-08-02T11:38:05.372Z</time>
      </trkpt>
      <trkpt lat="47.02424" lon="8.94161">
        <ele>851</ele>
        <time>2021-08-02T11:38:06.372Z</time>
      </trkpt>
      <trkpt lat="47.02425" lon="8.94163">
        <ele>852</ele>
        <time>2021-08-02T11:38:07.372Z</time>
      </trkpt>
      <trkpt lat="47.02425" lon="8.94164">
        <ele>852</ele>
        <time>2021-08-02T11:38:08.373Z</time>
      </trkpt>
      <trkpt lat="47.02426" lon="8.94166">
        <ele>853</ele>
        <time>2021-08-02T11:38:09.372Z</time>
      </trkpt>
      <trkpt lat="47.02427" lon="8.94167">
        <ele>853</ele>
        <time>2021-08-02T11:38:10.373Z</time>
      </trkpt>
      <trkpt lat="47.02427" lon="8.94168">
        <ele>853</ele>
        <time>2021-08-02T11:38:11.372Z</time>
      </trkpt>
      <trkpt lat="47.02428" lon="8.9417">
        <ele>853</ele>
        <time>2021-08-02T11:38:12.373Z</time>
      </trkpt>
      <trkpt lat="47.02428" lon="8.94172">
        <ele>853</ele>
        <time>2021-08-02T11:38:13.372Z</time>
      </trkpt>
      <trkpt lat="47.02429" lon="8.94173">
        <ele>853</ele>
        <time>2021-08-02T11:38:14.372Z</time>
      </trkpt>
      <trkpt lat="47.0243" lon="8.94175">
        <ele>853</ele>
        <time>2021-08-02T11:38:15.372Z</time>
      </trkpt>
      <trkpt lat="47.02431" lon="8.94177">
        <ele>853</ele>
        <time>2021-08-02T11:38:16.373Z</time>
      </trkpt>
      <trkpt lat="47.02431" lon="8.94178">
        <ele>853</ele>
        <time>2021-08-02T11:38:17.372Z</time>
      </trkpt>
      <trkpt lat="47.02432" lon="8.9418">
        <ele>854</ele>
        <time>2021-08-02T11:38:18.372Z</time>
      </trkpt>
      <trkpt lat="47.02432" lon="8.94181">
        <ele>854</ele>
        <time>2021-08-02T11:38:19.372Z</time>
      </trkpt>
      <trkpt lat="47.02433" lon="8.94182">
        <ele>854</ele>
        <time>2021-08-02T11:38:20.372Z</time>
      </trkpt>
      <trkpt lat="47.02434" lon="8.94184">
        <ele>854</ele>
        <time>2021-08-02T11:38:21.372Z</time>
      </trkpt>
      <trkpt lat="47.02434" lon="8.94186">
        <ele>855</ele>
        <time>2021-08-02T11:38:22.373Z</time>
      </trkpt>
      <trkpt lat="47.02435" lon="8.94188">
        <ele>855</ele>
        <time>2021-08-02T11:38:23.373Z</time>
      </trkpt>
      <trkpt lat="47.02435" lon="8.94189">
        <ele>855</ele>
        <time>2021-08-02T11:38:24.372Z</time>
      </trkpt>
      <trkpt lat="47.02436" lon="8.94191">
        <ele>856</ele>
        <time>2021-08-02T11:38:25.372Z</time>
      </trkpt>
      <trkpt lat="47.02436" lon="8.94193">
        <ele>856</ele>
        <time>2021-08-02T11:38:26.372Z</time>
      </trkpt>
      <trkpt lat="47.02437" lon="8.94194">
        <ele>856</ele>
        <time>2021-08-02T11:38:27.373Z</time>
      </trkpt>
      <trkpt lat="47.02438" lon="8.94196">
        <ele>856</ele>
        <time>2021-08-02T11:38:28.372Z</time>
      </trkpt>
      <trkpt lat="47.02438" lon="8.94198">
        <ele>856</ele>
        <time>2021-08-02T11:38:29.373Z</time>
      </trkpt>
      <trkpt lat="47.02438" lon="8.942">
        <ele>856</ele>
        <time>2021-08-02T11:38:30.372Z</time>
      </trkpt>
      <trkpt lat="47.02439" lon="8.94202">
        <ele>856</ele>
        <time>2021-08-02T11:38:31.373Z</time>
      </trkpt>
      <trkpt lat="47.02439" lon="8.94204">
        <ele>856</ele>
        <time>2021-08-02T11:38:32.372Z</time>
      </trkpt>
      <trkpt lat="47.0244" lon="8.94205">
        <ele>856</ele>
        <time>2021-08-02T11:38:33.373Z</time>
      </trkpt>
      <trkpt lat="47.02441" lon="8.94207">
        <ele>856</ele>
        <time>2021-08-02T11:38:34.373Z</time>
      </trkpt>
      <trkpt lat="47.02441" lon="8.94209">
        <ele>856</ele>
        <time>2021-08-02T11:38:35.372Z</time>
      </trkpt>
      <trkpt lat="47.02442" lon="8.94211">
        <ele>856</ele>
        <time>2021-08-02T11:38:36.372Z</time>
      </trkpt>
      <trkpt lat="47.02442" lon="8.94212">
        <ele>856</ele>
        <time>2021-08-02T11:38:37.373Z</time>
      </trkpt>
      <trkpt lat="47.02443" lon="8.94214">
        <ele>856</ele>
        <time>2021-08-02T11:38:38.373Z</time>
      </trkpt>
      <trkpt lat="47.02444" lon="8.94216">
        <ele>856</ele>
        <time>2021-08-02T11:38:39.372Z</time>
      </trkpt>
      <trkpt lat="47.02444" lon="8.94217">
        <ele>856</ele>
        <time>2021-08-02T11:38:40.372Z</time>
      </trkpt>
      <trkpt lat="47.02444" lon="8.94219">
        <ele>856</ele>
        <time>2021-08-02T11:38:41.372Z</time>
      </trkpt>
      <trkpt lat="47.02445" lon="8.94221">
        <ele>856</ele>
        <time>2021-08-02T11:38:42.372Z</time>
      </trkpt>
      <trkpt lat="47.02445" lon="8.94223">
        <ele>856</ele>
        <time>2021-08-02T11:38:43.373Z</time>
      </trkpt>
      <trkpt lat="47.02445" lon="8.94225">
        <ele>855</ele>
        <time>2021-08-02T11:38:44.372Z</time>
      </trkpt>
      <trkpt lat="47.02445" lon="8.94227">
        <ele>854</ele>
        <time>2021-08-02T11:38:45.372Z</time>
      </trkpt>
      <trkpt lat="47.02446" lon="8.94228">
        <ele>853</ele>
        <time>2021-08-02T11:38:46.373Z</time>
      </trkpt>
      <trkpt lat="47.02446" lon="8.9423">
        <ele>852</ele>
        <time>2021-08-02T11:38:47.373Z</time>
      </trkpt>
      <trkpt lat="47.02446" lon="8.94231">
        <ele>852</ele>
        <time>2021-08-02T11:38:48.372Z</time>
      </trkpt>
      <trkpt lat="47.02447" lon="8.94233">
        <ele>851</ele>
        <time>2021-08-02T11:38:49.373Z</time>
      </trkpt>
      <trkpt lat="47.02447" lon="8.94235">
        <ele>851</ele>
        <time>2021-08-02T11:38:50.372Z</time>
      </trkpt>
      <trkpt lat="47.02448" lon="8.94236">
        <ele>850</ele>
        <time>2021-08-02T11:38:51.372Z</time>
      </trkpt>
      <trkpt lat="47.02448" lon="8.94238">
        <ele>850</ele>
        <time>2021-08-02T11:38:52.373Z</time>
      </trkpt>
      <trkpt lat="47.02449" lon="8.94239">
        <ele>849</ele>
        <time>2021-08-02T11:38:53.372Z</time>
      </trkpt>
      <trkpt lat="47.0245" lon="8.94241">
        <ele>849</ele>
        <time>2021-08-02T11:38:54.373Z</time>
      </trkpt>
      <trkpt lat="47.0245" lon="8.94243">
        <ele>849</ele>
        <time>2021-08-02T11:38:55.373Z</time>
      </trkpt>
      <trkpt lat="47.0245" lon="8.94245">
        <ele>848</ele>
        <time>2021-08-02T11:38:56.373Z</time>
      </trkpt>
      <trkpt lat="47.0245" lon="8.94246">
        <ele>848</ele>
        <time>2021-08-02T11:38:57.373Z</time>
      </trkpt>
      <trkpt lat="47.02451" lon="8.94249">
        <ele>848</ele>
        <time>2021-08-02T11:38:58.373Z</time>
      </trkpt>
      <trkpt lat="47.02451" lon="8.9425">
        <ele>848</ele>
        <time>2021-08-02T11:38:59.373Z</time>
      </trkpt>
      <trkpt lat="47.02452" lon="8.94251">
        <ele>848</ele>
        <time>2021-08-02T11:39:00.372Z</time>
      </trkpt>
      <trkpt lat="47.02453" lon="8.94252">
        <ele>847</ele>
        <time>2021-08-02T11:39:01.373Z</time>
      </trkpt>
      <trkpt lat="47.02453" lon="8.94253">
        <ele>847</ele>
        <time>2021-08-02T11:39:02.373Z</time>
      </trkpt>
      <trkpt lat="47.02454" lon="8.94255">
        <ele>848</ele>
        <time>2021-08-02T11:39:03.372Z</time>
      </trkpt>
      <trkpt lat="47.02455" lon="8.94256">
        <ele>848</ele>
        <time>2021-08-02T11:39:04.372Z</time>
      </trkpt>
      <trkpt lat="47.02455" lon="8.94257">
        <ele>849</ele>
        <time>2021-08-02T11:39:05.372Z</time>
      </trkpt>
      <trkpt lat="47.02456" lon="8.94258">
        <ele>849</ele>
        <time>2021-08-02T11:39:06.373Z</time>
      </trkpt>
      <trkpt lat="47.02457" lon="8.9426">
        <ele>849</ele>
        <time>2021-08-02T11:39:07.372Z</time>
      </trkpt>
      <trkpt lat="47.02457" lon="8.94261">
        <ele>850</ele>
        <time>2021-08-02T11:39:08.373Z</time>
      </trkpt>
      <trkpt lat="47.02458" lon="8.94262">
        <ele>851</ele>
        <time>2021-08-02T11:39:09.372Z</time>
      </trkpt>
      <trkpt lat="47.02459" lon="8.94263">
        <ele>851</ele>
        <time>2021-08-02T11:39:10.373Z</time>
      </trkpt>
      <trkpt lat="47.02459" lon="8.94264">
        <ele>852</ele>
        <time>2021-08-02T11:39:11.373Z</time>
      </trkpt>
      <trkpt lat="47.0246" lon="8.94264">
        <ele>852</ele>
        <time>2021-08-02T11:39:12.373Z</time>
      </trkpt>
      <trkpt lat="47.02461" lon="8.94266">
        <ele>853</ele>
        <time>2021-08-02T11:39:13.372Z</time>
      </trkpt>
      <trkpt lat="47.02462" lon="8.94266">
        <ele>853</ele>
        <time>2021-08-02T11:39:14.372Z</time>
      </trkpt>
      <trkpt lat="47.02463" lon="8.94268">
        <ele>853</ele>
        <time>2021-08-02T11:39:15.372Z</time>
      </trkpt>
      <trkpt lat="47.02464" lon="8.9427">
        <ele>853</ele>
        <time>2021-08-02T11:39:16.372Z</time>
      </trkpt>
      <trkpt lat="47.02464" lon="8.94272">
        <ele>853</ele>
        <time>2021-08-02T11:39:17.372Z</time>
      </trkpt>
      <trkpt lat="47.02465" lon="8.94274">
        <ele>854</ele>
        <time>2021-08-02T11:39:18.372Z</time>
      </trkpt>
      <trkpt lat="47.02465" lon="8.94277">
        <ele>854</ele>
        <time>2021-08-02T11:39:19.372Z</time>
      </trkpt>
      <trkpt lat="47.02466" lon="8.94279">
        <ele>854</ele>
        <time>2021-08-02T11:39:20.372Z</time>
      </trkpt>
      <trkpt lat="47.02467" lon="8.94281">
        <ele>853</ele>
        <time>2021-08-02T11:39:21.372Z</time>
      </trkpt>
      <trkpt lat="47.02468" lon="8.94281">
        <ele>853</ele>
        <time>2021-08-02T11:39:22.373Z</time>
      </trkpt>
      <trkpt lat="47.02469" lon="8.94282">
        <ele>853</ele>
        <time>2021-08-02T11:39:23.373Z</time>
      </trkpt>
      <trkpt lat="47.0247" lon="8.94283">
        <ele>852</ele>
        <time>2021-08-02T11:39:24.373Z</time>
      </trkpt>
      <trkpt lat="47.0247" lon="8.94284">
        <ele>852</ele>
        <time>2021-08-02T11:39:25.372Z</time>
      </trkpt>
      <trkpt lat="47.0247" lon="8.94286">
        <ele>853</ele>
        <time>2021-08-02T11:39:26.373Z</time>
      </trkpt>
      <trkpt lat="47.02471" lon="8.94288">
        <ele>853</ele>
        <time>2021-08-02T11:39:27.372Z</time>
      </trkpt>
      <trkpt lat="47.02471" lon="8.94289">
        <ele>852</ele>
        <time>2021-08-02T11:39:28.373Z</time>
      </trkpt>
      <trkpt lat="47.02472" lon="8.94291">
        <ele>852</ele>
        <time>2021-08-02T11:39:29.372Z</time>
      </trkpt>
      <trkpt lat="47.02473" lon="8.94292">
        <ele>852</ele>
        <time>2021-08-02T11:39:30.373Z</time>
      </trkpt>
      <trkpt lat="47.02474" lon="8.94293">
        <ele>852</ele>
        <time>2021-08-02T11:39:31.372Z</time>
      </trkpt>
      <trkpt lat="47.02475" lon="8.94295">
        <ele>852</ele>
        <time>2021-08-02T11:39:32.372Z</time>
      </trkpt>
      <trkpt lat="47.02475" lon="8.94296">
        <ele>852</ele>
        <time>2021-08-02T11:39:33.373Z</time>
      </trkpt>
      <trkpt lat="47.02476" lon="8.94297">
        <ele>852</ele>
        <time>2021-08-02T11:39:34.373Z</time>
      </trkpt>
      <trkpt lat="47.02477" lon="8.94299">
        <ele>851</ele>
        <time>2021-08-02T11:39:35.372Z</time>
      </trkpt>
      <trkpt lat="47.02478" lon="8.943">
        <ele>851</ele>
        <time>2021-08-02T11:39:36.373Z</time>
      </trkpt>
      <trkpt lat="47.02478" lon="8.94301">
        <ele>851</ele>
        <time>2021-08-02T11:39:37.373Z</time>
      </trkpt>
      <trkpt lat="47.02479" lon="8.94303">
        <ele>851</ele>
        <time>2021-08-02T11:39:38.372Z</time>
      </trkpt>
      <trkpt lat="47.02479" lon="8.94304">
        <ele>851</ele>
        <time>2021-08-02T11:39:39.373Z</time>
      </trkpt>
      <trkpt lat="47.0248" lon="8.94306">
        <ele>851</ele>
        <time>2021-08-02T11:39:40.373Z</time>
      </trkpt>
      <trkpt lat="47.02481" lon="8.94308">
        <ele>851</ele>
        <time>2021-08-02T11:39:41.372Z</time>
      </trkpt>
      <trkpt lat="47.02482" lon="8.94309">
        <ele>851</ele>
        <time>2021-08-02T11:39:42.372Z</time>
      </trkpt>
      <trkpt lat="47.02482" lon="8.94311">
        <ele>851</ele>
        <time>2021-08-02T11:39:43.372Z</time>
      </trkpt>
      <trkpt lat="47.02482" lon="8.94313">
        <ele>851</ele>
        <time>2021-08-02T11:39:44.372Z</time>
      </trkpt>
      <trkpt lat="47.02483" lon="8.94314">
        <ele>851</ele>
        <time>2021-08-02T11:39:45.373Z</time>
      </trkpt>
      <trkpt lat="47.02484" lon="8.94316">
        <ele>851</ele>
        <time>2021-08-02T11:39:46.372Z</time>
      </trkpt>
      <trkpt lat="47.02484" lon="8.94317">
        <ele>851</ele>
        <time>2021-08-02T11:39:47.373Z</time>
      </trkpt>
      <trkpt lat="47.02485" lon="8.94319">
        <ele>851</ele>
        <time>2021-08-02T11:39:48.372Z</time>
      </trkpt>
      <trkpt lat="47.02486" lon="8.9432">
        <ele>851</ele>
        <time>2021-08-02T11:39:49.373Z</time>
      </trkpt>
      <trkpt lat="47.02486" lon="8.94321">
        <ele>852</ele>
        <time>2021-08-02T11:39:50.372Z</time>
      </trkpt>
      <trkpt lat="47.02487" lon="8.94322">
        <ele>852</ele>
        <time>2021-08-02T11:39:51.372Z</time>
      </trkpt>
      <trkpt lat="47.02488" lon="8.94324">
        <ele>852</ele>
        <time>2021-08-02T11:39:52.372Z</time>
      </trkpt>
      <trkpt lat="47.02488" lon="8.94325">
        <ele>853</ele>
        <time>2021-08-02T11:39:53.372Z</time>
      </trkpt>
      <trkpt lat="47.02489" lon="8.94327">
        <ele>853</ele>
        <time>2021-08-02T11:39:54.372Z</time>
      </trkpt>
      <trkpt lat="47.0249" lon="8.94329">
        <ele>853</ele>
        <time>2021-08-02T11:39:55.372Z</time>
      </trkpt>
      <trkpt lat="47.0249" lon="8.94331">
        <ele>853</ele>
        <time>2021-08-02T11:39:59.410Z</time>
      </trkpt>
      <trkpt lat="47.0249" lon="8.94333">
        <ele>853</ele>
        <time>2021-08-02T11:40:00.410Z</time>
      </trkpt>
      <trkpt lat="47.0249" lon="8.94335">
        <ele>854</ele>
        <time>2021-08-02T11:40:01.411Z</time>
      </trkpt>
      <trkpt lat="47.02491" lon="8.94337">
        <ele>854</ele>
        <time>2021-08-02T11:40:02.410Z</time>
      </trkpt>
      <trkpt lat="47.02492" lon="8.94338">
        <ele>854</ele>
        <time>2021-08-02T11:40:03.410Z</time>
      </trkpt>
      <trkpt lat="47.02493" lon="8.9434">
        <ele>854</ele>
        <time>2021-08-02T11:40:04.410Z</time>
      </trkpt>
      <trkpt lat="47.02493" lon="8.94341">
        <ele>854</ele>
        <time>2021-08-02T11:40:05.411Z</time>
      </trkpt>
      <trkpt lat="47.02495" lon="8.94343">
        <ele>854</ele>
        <time>2021-08-02T11:40:06.410Z</time>
      </trkpt>
      <trkpt lat="47.02496" lon="8.94344">
        <ele>854</ele>
        <time>2021-08-02T11:40:07.410Z</time>
      </trkpt>
      <trkpt lat="47.02496" lon="8.94346">
        <ele>854</ele>
        <time>2021-08-02T11:40:08.411Z</time>
      </trkpt>
      <trkpt lat="47.02497" lon="8.94347">
        <ele>855</ele>
        <time>2021-08-02T11:40:09.410Z</time>
      </trkpt>
      <trkpt lat="47.02498" lon="8.94349">
        <ele>855</ele>
        <time>2021-08-02T11:40:10.410Z</time>
      </trkpt>
      <trkpt lat="47.02499" lon="8.94351">
        <ele>855</ele>
        <time>2021-08-02T11:40:11.411Z</time>
      </trkpt>
      <trkpt lat="47.02499" lon="8.94353">
        <ele>855</ele>
        <time>2021-08-02T11:40:12.410Z</time>
      </trkpt>
      <trkpt lat="47.02499" lon="8.94354">
        <ele>855</ele>
        <time>2021-08-02T11:40:13.410Z</time>
      </trkpt>
      <trkpt lat="47.025" lon="8.94356">
        <ele>855</ele>
        <time>2021-08-02T11:40:14.410Z</time>
      </trkpt>
      <trkpt lat="47.025" lon="8.94358">
        <ele>855</ele>
        <time>2021-08-02T11:40:15.411Z</time>
      </trkpt>
      <trkpt lat="47.02501" lon="8.9436">
        <ele>855</ele>
        <time>2021-08-02T11:40:16.410Z</time>
      </trkpt>
      <trkpt lat="47.02501" lon="8.94362">
        <ele>855</ele>
        <time>2021-08-02T11:40:17.410Z</time>
      </trkpt>
      <trkpt lat="47.02502" lon="8.94363">
        <ele>855</ele>
        <time>2021-08-02T11:40:18.410Z</time>
      </trkpt>
      <trkpt lat="47.02503" lon="8.94365">
        <ele>854</ele>
        <time>2021-08-02T11:40:19.411Z</time>
      </trkpt>
      <trkpt lat="47.02503" lon="8.94367">
        <ele>855</ele>
        <time>2021-08-02T11:40:20.410Z</time>
      </trkpt>
      <trkpt lat="47.02504" lon="8.94369">
        <ele>855</ele>
        <time>2021-08-02T11:40:21.411Z</time>
      </trkpt>
      <trkpt lat="47.02504" lon="8.94371">
        <ele>855</ele>
        <time>2021-08-02T11:40:22.410Z</time>
      </trkpt>
      <trkpt lat="47.02505" lon="8.94372">
        <ele>855</ele>
        <time>2021-08-02T11:40:23.410Z</time>
      </trkpt>
      <trkpt lat="47.02506" lon="8.94374">
        <ele>855</ele>
        <time>2021-08-02T11:40:24.410Z</time>
      </trkpt>
      <trkpt lat="47.02507" lon="8.94376">
        <ele>855</ele>
        <time>2021-08-02T11:40:25.410Z</time>
      </trkpt>
      <trkpt lat="47.02507" lon="8.94378">
        <ele>855</ele>
        <time>2021-08-02T11:40:26.411Z</time>
      </trkpt>
      <trkpt lat="47.02508" lon="8.94379">
        <ele>855</ele>
        <time>2021-08-02T11:40:27.410Z</time>
      </trkpt>
      <trkpt lat="47.02509" lon="8.94381">
        <ele>855</ele>
        <time>2021-08-02T11:40:28.411Z</time>
      </trkpt>
      <trkpt lat="47.02509" lon="8.94383">
        <ele>856</ele>
        <time>2021-08-02T11:40:29.411Z</time>
      </trkpt>
      <trkpt lat="47.0251" lon="8.94385">
        <ele>856</ele>
        <time>2021-08-02T11:40:30.410Z</time>
      </trkpt>
      <trkpt lat="47.02511" lon="8.94386">
        <ele>856</ele>
        <time>2021-08-02T11:40:31.410Z</time>
      </trkpt>
      <trkpt lat="47.02511" lon="8.94387">
        <ele>856</ele>
        <time>2021-08-02T11:40:32.410Z</time>
      </trkpt>
      <trkpt lat="47.02511" lon="8.94388">
        <ele>856</ele>
        <time>2021-08-02T11:40:33.410Z</time>
      </trkpt>
      <trkpt lat="47.02512" lon="8.94389">
        <ele>855</ele>
        <time>2021-08-02T11:40:34.410Z</time>
      </trkpt>
      <trkpt lat="47.02512" lon="8.9439">
        <ele>855</ele>
        <time>2021-08-02T11:40:35.410Z</time>
      </trkpt>
      <trkpt lat="47.02513" lon="8.94392">
        <ele>855</ele>
        <time>2021-08-02T11:40:36.410Z</time>
      </trkpt>
      <trkpt lat="47.02513" lon="8.94394">
        <ele>855</ele>
        <time>2021-08-02T11:40:37.410Z</time>
      </trkpt>
      <trkpt lat="47.02514" lon="8.94395">
        <ele>854</ele>
        <time>2021-08-02T11:40:38.411Z</time>
      </trkpt>
      <trkpt lat="47.02514" lon="8.94397">
        <ele>854</ele>
        <time>2021-08-02T11:40:39.410Z</time>
      </trkpt>
      <trkpt lat="47.02514" lon="8.94399">
        <ele>853</ele>
        <time>2021-08-02T11:40:40.410Z</time>
      </trkpt>
      <trkpt lat="47.02515" lon="8.94401">
        <ele>853</ele>
        <time>2021-08-02T11:40:41.410Z</time>
      </trkpt>
      <trkpt lat="47.02516" lon="8.94403">
        <ele>853</ele>
        <time>2021-08-02T11:40:42.410Z</time>
      </trkpt>
      <trkpt lat="47.02516" lon="8.94404">
        <ele>852</ele>
        <time>2021-08-02T11:40:43.410Z</time>
      </trkpt>
      <trkpt lat="47.02517" lon="8.94406">
        <ele>852</ele>
        <time>2021-08-02T11:40:44.410Z</time>
      </trkpt>
      <trkpt lat="47.02518" lon="8.94407">
        <ele>851</ele>
        <time>2021-08-02T11:40:45.410Z</time>
      </trkpt>
      <trkpt lat="47.02519" lon="8.94408">
        <ele>851</ele>
        <time>2021-08-02T11:40:46.410Z</time>
      </trkpt>
      <trkpt lat="47.02519" lon="8.94411">
        <ele>852</ele>
        <time>2021-08-02T11:40:47.410Z</time>
      </trkpt>
      <trkpt lat="47.0252" lon="8.94413">
        <ele>852</ele>
        <time>2021-08-02T11:40:48.411Z</time>
      </trkpt>
      <trkpt lat="47.02521" lon="8.94415">
        <ele>853</ele>
        <time>2021-08-02T11:40:49.410Z</time>
      </trkpt>
      <trkpt lat="47.02522" lon="8.94417">
        <ele>854</ele>
        <time>2021-08-02T11:40:50.411Z</time>
      </trkpt>
      <trkpt lat="47.02522" lon="8.94418">
        <ele>854</ele>
        <time>2021-08-02T11:40:51.410Z</time>
      </trkpt>
      <trkpt lat="47.02523" lon="8.9442">
        <ele>854</ele>
        <time>2021-08-02T11:40:52.411Z</time>
      </trkpt>
      <trkpt lat="47.02523" lon="8.94421">
        <ele>855</ele>
        <time>2021-08-02T11:40:53.411Z</time>
      </trkpt>
      <trkpt lat="47.02523" lon="8.94423">
        <ele>855</ele>
        <time>2021-08-02T11:40:54.410Z</time>
      </trkpt>
      <trkpt lat="47.02524" lon="8.94424">
        <ele>855</ele>
        <time>2021-08-02T11:40:55.410Z</time>
      </trkpt>
      <trkpt lat="47.02524" lon="8.94425">
        <ele>856</ele>
        <time>2021-08-02T11:40:56.411Z</time>
      </trkpt>
      <trkpt lat="47.02524" lon="8.94427">
        <ele>856</ele>
        <time>2021-08-02T11:40:57.410Z</time>
      </trkpt>
      <trkpt lat="47.02523" lon="8.94428">
        <ele>855</ele>
        <time>2021-08-02T11:40:58.411Z</time>
      </trkpt>
      <trkpt lat="47.02523" lon="8.94429">
        <ele>855</ele>
        <time>2021-08-02T11:40:59.410Z</time>
      </trkpt>
      <trkpt lat="47.02522" lon="8.94431">
        <ele>855</ele>
        <time>2021-08-02T11:41:00.410Z</time>
      </trkpt>
      <trkpt lat="47.02521" lon="8.94432">
        <ele>854</ele>
        <time>2021-08-02T11:41:01.410Z</time>
      </trkpt>
      <trkpt lat="47.0252" lon="8.94433">
        <ele>854</ele>
        <time>2021-08-02T11:41:02.411Z</time>
      </trkpt>
      <trkpt lat="47.02519" lon="8.94434">
        <ele>854</ele>
        <time>2021-08-02T11:41:03.410Z</time>
      </trkpt>
      <trkpt lat="47.02519" lon="8.94436">
        <ele>853</ele>
        <time>2021-08-02T11:41:04.410Z</time>
      </trkpt>
      <trkpt lat="47.02518" lon="8.94437">
        <ele>853</ele>
        <time>2021-08-02T11:41:05.411Z</time>
      </trkpt>
      <trkpt lat="47.02517" lon="8.94438">
        <ele>853</ele>
        <time>2021-08-02T11:41:06.411Z</time>
      </trkpt>
      <trkpt lat="47.02516" lon="8.9444">
        <ele>854</ele>
        <time>2021-08-02T11:41:07.411Z</time>
      </trkpt>
      <trkpt lat="47.02515" lon="8.94441">
        <ele>854</ele>
        <time>2021-08-02T11:41:08.411Z</time>
      </trkpt>
      <trkpt lat="47.02515" lon="8.94443">
        <ele>854</ele>
        <time>2021-08-02T11:41:11.486Z</time>
      </trkpt>
      <trkpt lat="47.02514" lon="8.94444">
        <ele>854</ele>
        <time>2021-08-02T11:41:12.487Z</time>
      </trkpt>
      <trkpt lat="47.02514" lon="8.94446">
        <ele>854</ele>
        <time>2021-08-02T11:41:13.487Z</time>
      </trkpt>
      <trkpt lat="47.02513" lon="8.94447">
        <ele>853</ele>
        <time>2021-08-02T11:41:14.487Z</time>
      </trkpt>
      <trkpt lat="47.02513" lon="8.94448">
        <ele>853</ele>
        <time>2021-08-02T11:41:23.688Z</time>
      </trkpt>
      <trkpt lat="47.02512" lon="8.94449">
        <ele>854</ele>
        <time>2021-08-02T11:41:24.688Z</time>
      </trkpt>
      <trkpt lat="47.02512" lon="8.94451">
        <ele>854</ele>
        <time>2021-08-02T11:41:25.687Z</time>
      </trkpt>
      <trkpt lat="47.02511" lon="8.94453">
        <ele>854</ele>
        <time>2021-08-02T11:41:26.687Z</time>
      </trkpt>
      <trkpt lat="47.02511" lon="8.94454">
        <ele>854</ele>
        <time>2021-08-02T11:41:27.687Z</time>
      </trkpt>
      <trkpt lat="47.0251" lon="8.94455">
        <ele>853</ele>
        <time>2021-08-02T11:41:28.688Z</time>
      </trkpt>
      <trkpt lat="47.02511" lon="8.94457">
        <ele>853</ele>
        <time>2021-08-02T11:41:29.688Z</time>
      </trkpt>
      <trkpt lat="47.02511" lon="8.94459">
        <ele>853</ele>
        <time>2021-08-02T11:41:30.687Z</time>
      </trkpt>
      <trkpt lat="47.02511" lon="8.9446">
        <ele>853</ele>
        <time>2021-08-02T11:41:31.687Z</time>
      </trkpt>
      <trkpt lat="47.02512" lon="8.94461">
        <ele>853</ele>
        <time>2021-08-02T11:41:32.688Z</time>
      </trkpt>
      <trkpt lat="47.02513" lon="8.94462">
        <ele>853</ele>
        <time>2021-08-02T11:41:33.687Z</time>
      </trkpt>
      <trkpt lat="47.02514" lon="8.94463">
        <ele>853</ele>
        <time>2021-08-02T11:41:34.687Z</time>
      </trkpt>
      <trkpt lat="47.02514" lon="8.94464">
        <ele>853</ele>
        <time>2021-08-02T11:41:35.687Z</time>
      </trkpt>
      <trkpt lat="47.02514" lon="8.94466">
        <ele>852</ele>
        <time>2021-08-02T11:41:38.776Z</time>
      </trkpt>
      <trkpt lat="47.02514" lon="8.94467">
        <ele>852</ele>
        <time>2021-08-02T11:41:39.776Z</time>
      </trkpt>
      <trkpt lat="47.02515" lon="8.94468">
        <ele>852</ele>
        <time>2021-08-02T11:41:40.776Z</time>
      </trkpt>
      <trkpt lat="47.02517" lon="8.94471">
        <ele>851</ele>
        <time>2021-08-02T11:41:46.881Z</time>
      </trkpt>
      <trkpt lat="47.02518" lon="8.94473">
        <ele>851</ele>
        <time>2021-08-02T11:41:50.777Z</time>
      </trkpt>
      <trkpt lat="47.02519" lon="8.94473">
        <ele>851</ele>
        <time>2021-08-02T11:42:01.667Z</time>
      </trkpt>
      <trkpt lat="47.02519" lon="8.94474">
        <ele>851</ele>
        <time>2021-08-02T11:42:02.666Z</time>
      </trkpt>
      <trkpt lat="47.02518" lon="8.94474">
        <ele>851</ele>
        <time>2021-08-02T11:42:03.667Z</time>
      </trkpt>
      <trkpt lat="47.02518" lon="8.94474">
        <ele>851</ele>
        <time>2021-08-02T11:42:04.666Z</time>
      </trkpt>
      <trkpt lat="47.02519" lon="8.94474">
        <ele>852</ele>
        <time>2021-08-02T11:42:05.666Z</time>
      </trkpt>
      <trkpt lat="47.02519" lon="8.94475">
        <ele>853</ele>
        <time>2021-08-02T11:42:06.667Z</time>
      </trkpt>
      <trkpt lat="47.02519" lon="8.94476">
        <ele>853</ele>
        <time>2021-08-02T11:42:07.667Z</time>
      </trkpt>
      <trkpt lat="47.02519" lon="8.94477">
        <ele>854</ele>
        <time>2021-08-02T11:42:23.790Z</time>
      </trkpt>
      <trkpt lat="47.02519" lon="8.94479">
        <ele>854</ele>
        <time>2021-08-02T11:42:24.791Z</time>
      </trkpt>
      <trkpt lat="47.02519" lon="8.9448">
        <ele>854</ele>
        <time>2021-08-02T11:42:25.790Z</time>
      </trkpt>
      <trkpt lat="47.02519" lon="8.94479">
        <ele>855</ele>
        <time>2021-08-02T11:42:52.894Z</time>
      </trkpt>
      <trkpt lat="47.02519" lon="8.94478">
        <ele>855</ele>
        <time>2021-08-02T11:42:53.893Z</time>
      </trkpt>
      <trkpt lat="47.02519" lon="8.94477">
        <ele>856</ele>
        <time>2021-08-02T11:42:54.893Z</time>
      </trkpt>
      <trkpt lat="47.02519" lon="8.94476">
        <ele>856</ele>
        <time>2021-08-02T11:42:55.894Z</time>
      </trkpt>
      <trkpt lat="47.02519" lon="8.94476">
        <ele>856</ele>
        <time>2021-08-02T11:42:56.894Z</time>
      </trkpt>
      <trkpt lat="47.02519" lon="8.94475">
        <ele>857</ele>
        <time>2021-08-02T11:42:57.894Z</time>
      </trkpt>
      <trkpt lat="47.02519" lon="8.94475">
        <ele>857</ele>
        <time>2021-08-02T11:42:58.894Z</time>
      </trkpt>
      <trkpt lat="47.02518" lon="8.94475">
        <ele>860</ele>
        <time>2021-08-02T11:43:03.906Z</time>
      </trkpt>
      <trkpt lat="47.02517" lon="8.94475">
        <ele>860</ele>
        <time>2021-08-02T11:43:15.787Z</time>
      </trkpt>
      <trkpt lat="47.02514" lon="8.94471">
        <ele>866</ele>
        <time>2021-08-02T11:43:16.787Z</time>
      </trkpt>
      <trkpt lat="47.02514" lon="8.94471">
        <ele>866</ele>
        <time>2021-08-02T11:43:17.787Z</time>
      </trkpt>
      <trkpt lat="47.02514" lon="8.94472">
        <ele>866</ele>
        <time>2021-08-02T11:43:18.786Z</time>
      </trkpt>
      <trkpt lat="47.02514" lon="8.94473">
        <ele>865</ele>
        <time>2021-08-02T11:43:21.886Z</time>
      </trkpt>
      <trkpt lat="47.02513" lon="8.94473">
        <ele>864</ele>
        <time>2021-08-02T11:43:28.755Z</time>
      </trkpt>
      <trkpt lat="47.02513" lon="8.94473">
        <ele>864</ele>
        <time>2021-08-02T11:43:32.646Z</time>
      </trkpt>
      <trkpt lat="47.02512" lon="8.94473">
        <ele>863</ele>
        <time>2021-08-02T11:43:33.646Z</time>
      </trkpt>
      <trkpt lat="47.02512" lon="8.94474">
        <ele>863</ele>
        <time>2021-08-02T11:43:34.646Z</time>
      </trkpt>
      <trkpt lat="47.02512" lon="8.94475">
        <ele>863</ele>
        <time>2021-08-02T11:43:35.646Z</time>
      </trkpt>
      <trkpt lat="47.02512" lon="8.94476">
        <ele>863</ele>
        <time>2021-08-02T11:43:36.647Z</time>
      </trkpt>
      <trkpt lat="47.02511" lon="8.94476">
        <ele>862</ele>
        <time>2021-08-02T11:43:37.646Z</time>
      </trkpt>
      <trkpt lat="47.02511" lon="8.94476">
        <ele>862</ele>
        <time>2021-08-02T11:43:38.647Z</time>
      </trkpt>
      <trkpt lat="47.02511" lon="8.94477">
        <ele>862</ele>
        <time>2021-08-02T11:43:39.646Z</time>
      </trkpt>
      <trkpt lat="47.02512" lon="8.94476">
        <ele>861</ele>
        <time>2021-08-02T11:43:46.770Z</time>
      </trkpt>
      <trkpt lat="47.02513" lon="8.94476">
        <ele>861</ele>
        <time>2021-08-02T11:43:47.770Z</time>
      </trkpt>
      <trkpt lat="47.02514" lon="8.94476">
        <ele>860</ele>
        <time>2021-08-02T11:43:48.770Z</time>
      </trkpt>
      <trkpt lat="47.02514" lon="8.94476">
        <ele>860</ele>
        <time>2021-08-02T11:43:54.906Z</time>
      </trkpt>
      <trkpt lat="47.02514" lon="8.94477">
        <ele>859</ele>
        <time>2021-08-02T11:43:55.907Z</time>
      </trkpt>
      <trkpt lat="47.02514" lon="8.94477">
        <ele>859</ele>
        <time>2021-08-02T11:43:56.906Z</time>
      </trkpt>
      <trkpt lat="47.02519" lon="8.94471">
        <ele>856</ele>
        <time>2021-08-02T11:43:57.907Z</time>
      </trkpt>
      <trkpt lat="47.02519" lon="8.9447">
        <ele>856</ele>
        <time>2021-08-02T11:43:58.906Z</time>
      </trkpt>
      <trkpt lat="47.02519" lon="8.94469">
        <ele>856</ele>
        <time>2021-08-02T11:43:59.906Z</time>
      </trkpt>
      <trkpt lat="47.02519" lon="8.94468">
        <ele>856</ele>
        <time>2021-08-02T11:44:00.906Z</time>
      </trkpt>
      <trkpt lat="47.02518" lon="8.94468">
        <ele>856</ele>
        <time>2021-08-02T11:44:01.907Z</time>
      </trkpt>
      <trkpt lat="47.02518" lon="8.94467">
        <ele>855</ele>
        <time>2021-08-02T11:44:02.907Z</time>
      </trkpt>
      <trkpt lat="47.02519" lon="8.94467">
        <ele>855</ele>
        <time>2021-08-02T11:44:03.907Z</time>
      </trkpt>
      <trkpt lat="47.02519" lon="8.94468">
        <ele>854</ele>
        <time>2021-08-02T11:44:04.906Z</time>
      </trkpt>
      <trkpt lat="47.02519" lon="8.94469">
        <ele>854</ele>
        <time>2021-08-02T11:44:05.906Z</time>
      </trkpt>
      <trkpt lat="47.0252" lon="8.9447">
        <ele>854</ele>
        <time>2021-08-02T11:44:06.906Z</time>
      </trkpt>
      <trkpt lat="47.0252" lon="8.94471">
        <ele>853</ele>
        <time>2021-08-02T11:44:07.906Z</time>
      </trkpt>
      <trkpt lat="47.02514" lon="8.94471">
        <ele>853</ele>
        <time>2021-08-02T11:46:04.906Z</time>
      </trkpt>
      <trkpt lat="47.0251" lon="8.94477">
        <ele>853</ele>
        <time>2021-08-02T11:46:05.907Z</time>
      </trkpt>
      <trkpt lat="47.02507" lon="8.94482">
        <ele>853</ele>
        <time>2021-08-02T11:46:06.906Z</time>
      </trkpt>
      <trkpt lat="47.02516" lon="8.94477">
        <ele>853</ele>
        <time>2021-08-02T11:46:13.907Z</time>
      </trkpt>
      <trkpt lat="47.02516" lon="8.94476">
        <ele>853</ele>
        <time>2021-08-02T11:46:14.907Z</time>
      </trkpt>
      <trkpt lat="47.02517" lon="8.94475">
        <ele>853</ele>
        <time>2021-08-02T11:46:15.906Z</time>
      </trkpt>
      <trkpt lat="47.02517" lon="8.94475">
        <ele>852</ele>
        <time>2021-08-02T11:46:17.907Z</time>
      </trkpt>
      <trkpt lat="47.02517" lon="8.94477">
        <ele>852</ele>
        <time>2021-08-02T11:46:18.906Z</time>
      </trkpt>
      <trkpt lat="47.02518" lon="8.94478">
        <ele>851</ele>
        <time>2021-08-02T11:46:19.906Z</time>
      </trkpt>
      <trkpt lat="47.02518" lon="8.94479">
        <ele>851</ele>
        <time>2021-08-02T11:46:20.906Z</time>
      </trkpt>
      <trkpt lat="47.02518" lon="8.94482">
        <ele>851</ele>
        <time>2021-08-02T11:46:21.907Z</time>
      </trkpt>
      <trkpt lat="47.02519" lon="8.94481">
        <ele>850</ele>
        <time>2021-08-02T11:46:22.906Z</time>
      </trkpt>
      <trkpt lat="47.02519" lon="8.94481">
        <ele>850</ele>
        <time>2021-08-02T11:46:23.906Z</time>
      </trkpt>
      <trkpt lat="47.02519" lon="8.94481">
        <ele>850</ele>
        <time>2021-08-02T11:46:24.906Z</time>
      </trkpt>
      <trkpt lat="47.02518" lon="8.94483">
        <ele>850</ele>
        <time>2021-08-02T11:46:25.906Z</time>
      </trkpt>
      <trkpt lat="47.02516" lon="8.94485">
        <ele>850</ele>
        <time>2021-08-02T11:46:26.906Z</time>
      </trkpt>
      <trkpt lat="47.02515" lon="8.94486">
        <ele>850</ele>
        <time>2021-08-02T11:46:27.907Z</time>
      </trkpt>
      <trkpt lat="47.02514" lon="8.94489">
        <ele>850</ele>
        <time>2021-08-02T11:46:28.907Z</time>
      </trkpt>
      <trkpt lat="47.02512" lon="8.94491">
        <ele>850</ele>
        <time>2021-08-02T11:46:29.906Z</time>
      </trkpt>
      <trkpt lat="47.02511" lon="8.94494">
        <ele>850</ele>
        <time>2021-08-02T11:46:30.906Z</time>
      </trkpt>
      <trkpt lat="47.0251" lon="8.94495">
        <ele>850</ele>
        <time>2021-08-02T11:46:31.907Z</time>
      </trkpt>
      <trkpt lat="47.02509" lon="8.94496">
        <ele>850</ele>
        <time>2021-08-02T11:46:32.907Z</time>
      </trkpt>
      <trkpt lat="47.0251" lon="8.94495">
        <ele>850</ele>
        <time>2021-08-02T11:46:33.907Z</time>
      </trkpt>
      <trkpt lat="47.02511" lon="8.94492">
        <ele>850</ele>
        <time>2021-08-02T11:46:37.907Z</time>
      </trkpt>
      <trkpt lat="47.02512" lon="8.94493">
        <ele>850</ele>
        <time>2021-08-02T11:46:38.907Z</time>
      </trkpt>
      <trkpt lat="47.02512" lon="8.94493">
        <ele>850</ele>
        <time>2021-08-02T11:46:39.906Z</time>
      </trkpt>
      <trkpt lat="47.02512" lon="8.94493">
        <ele>850</ele>
        <time>2021-08-02T11:46:40.907Z</time>
      </trkpt>
      <trkpt lat="47.02512" lon="8.94494">
        <ele>849</ele>
        <time>2021-08-02T11:46:41.907Z</time>
      </trkpt>
      <trkpt lat="47.02512" lon="8.94495">
        <ele>849</ele>
        <time>2021-08-02T11:46:42.907Z</time>
      </trkpt>
      <trkpt lat="47.02512" lon="8.94495">
        <ele>849</ele>
        <time>2021-08-02T11:46:43.906Z</time>
      </trkpt>
      <trkpt lat="47.02512" lon="8.94495">
        <ele>849</ele>
        <time>2021-08-02T11:46:44.906Z</time>
      </trkpt>
      <trkpt lat="47.02511" lon="8.94499">
        <ele>849</ele>
        <time>2021-08-02T11:46:59.032Z</time>
      </trkpt>
      <trkpt lat="47.02511" lon="8.94499">
        <ele>849</ele>
        <time>2021-08-02T11:47:00.032Z</time>
      </trkpt>
      <trkpt lat="47.02511" lon="8.94499">
        <ele>849</ele>
        <time>2021-08-02T11:47:01.032Z</time>
      </trkpt>
      <trkpt lat="47.02511" lon="8.945">
        <ele>849</ele>
        <time>2021-08-02T11:47:02.032Z</time>
      </trkpt>
      <trkpt lat="47.0251" lon="8.945">
        <ele>849</ele>
        <time>2021-08-02T11:47:03.031Z</time>
      </trkpt>
      <trkpt lat="47.02511" lon="8.945">
        <ele>849</ele>
        <time>2021-08-02T11:47:04.032Z</time>
      </trkpt>
      <trkpt lat="47.02511" lon="8.945">
        <ele>849</ele>
        <time>2021-08-02T11:47:05.032Z</time>
      </trkpt>
      <trkpt lat="47.02511" lon="8.945">
        <ele>849</ele>
        <time>2021-08-02T11:47:06.032Z</time>
      </trkpt>
      <trkpt lat="47.02511" lon="8.945">
        <ele>849</ele>
        <time>2021-08-02T11:47:07.032Z</time>
      </trkpt>
      <trkpt lat="47.02511" lon="8.94499">
        <ele>848</ele>
        <time>2021-08-02T11:47:08.032Z</time>
      </trkpt>
      <trkpt lat="47.02512" lon="8.94497">
        <ele>848</ele>
        <time>2021-08-02T11:47:09.032Z</time>
      </trkpt>
      <trkpt lat="47.02512" lon="8.94495">
        <ele>848</ele>
        <time>2021-08-02T11:47:10.031Z</time>
      </trkpt>
      <trkpt lat="47.02513" lon="8.94492">
        <ele>848</ele>
        <time>2021-08-02T11:47:12.032Z</time>
      </trkpt>
      <trkpt lat="47.02513" lon="8.94492">
        <ele>848</ele>
        <time>2021-08-02T11:47:14.031Z</time>
      </trkpt>
      <trkpt lat="47.02513" lon="8.94493">
        <ele>848</ele>
        <time>2021-08-02T11:47:15.032Z</time>
      </trkpt>
      <trkpt lat="47.02513" lon="8.94493">
        <ele>847</ele>
        <time>2021-08-02T11:47:16.032Z</time>
      </trkpt>
      <trkpt lat="47.02516" lon="8.9449">
        <ele>847</ele>
        <time>2021-08-02T11:47:17.031Z</time>
      </trkpt>
      <trkpt lat="47.02517" lon="8.94487">
        <ele>847</ele>
        <time>2021-08-02T11:47:18.032Z</time>
      </trkpt>
      <trkpt lat="47.02518" lon="8.94485">
        <ele>847</ele>
        <time>2021-08-02T11:47:19.031Z</time>
      </trkpt>
      <trkpt lat="47.02518" lon="8.94485">
        <ele>847</ele>
        <time>2021-08-02T11:47:20.031Z</time>
      </trkpt>
      <trkpt lat="47.0252" lon="8.94483">
        <ele>846</ele>
        <time>2021-08-02T11:47:21.032Z</time>
      </trkpt>
      <trkpt lat="47.02521" lon="8.94482">
        <ele>846</ele>
        <time>2021-08-02T11:47:23.031Z</time>
      </trkpt>
      <trkpt lat="47.0252" lon="8.94485">
        <ele>846</ele>
        <time>2021-08-02T11:47:24.031Z</time>
      </trkpt>
      <trkpt lat="47.0252" lon="8.94486">
        <ele>846</ele>
        <time>2021-08-02T11:47:25.031Z</time>
      </trkpt>
      <trkpt lat="47.0252" lon="8.94486">
        <ele>846</ele>
        <time>2021-08-02T11:47:26.031Z</time>
      </trkpt>
      <trkpt lat="47.0252" lon="8.94484">
        <ele>845</ele>
        <time>2021-08-02T11:47:27.031Z</time>
      </trkpt>
      <trkpt lat="47.0252" lon="8.94482">
        <ele>845</ele>
        <time>2021-08-02T11:47:28.032Z</time>
      </trkpt>
      <trkpt lat="47.0252" lon="8.94479">
        <ele>844</ele>
        <time>2021-08-02T11:47:29.032Z</time>
      </trkpt>
      <trkpt lat="47.0252" lon="8.94476">
        <ele>844</ele>
        <time>2021-08-02T11:47:30.032Z</time>
      </trkpt>
      <trkpt lat="47.0252" lon="8.94472">
        <ele>844</ele>
        <time>2021-08-02T11:47:31.032Z</time>
      </trkpt>
      <trkpt lat="47.02521" lon="8.94469">
        <ele>843</ele>
        <time>2021-08-02T11:47:32.031Z</time>
      </trkpt>
      <trkpt lat="47.02522" lon="8.94466">
        <ele>843</ele>
        <time>2021-08-02T11:47:33.031Z</time>
      </trkpt>
      <trkpt lat="47.02523" lon="8.94465">
        <ele>842</ele>
        <time>2021-08-02T11:47:34.032Z</time>
      </trkpt>
      <trkpt lat="47.02523" lon="8.94465">
        <ele>842</ele>
        <time>2021-08-02T11:47:35.032Z</time>
      </trkpt>
      <trkpt lat="47.02523" lon="8.94464">
        <ele>842</ele>
        <time>2021-08-02T11:47:36.031Z</time>
      </trkpt>
      <trkpt lat="47.02521" lon="8.94471">
        <ele>840</ele>
        <time>2021-08-02T11:47:46.031Z</time>
      </trkpt>
      <trkpt lat="47.02521" lon="8.94471">
        <ele>839</ele>
        <time>2021-08-02T11:47:47.032Z</time>
      </trkpt>
      <trkpt lat="47.02521" lon="8.94471">
        <ele>839</ele>
        <time>2021-08-02T11:47:48.032Z</time>
      </trkpt>
      <trkpt lat="47.02521" lon="8.9447">
        <ele>839</ele>
        <time>2021-08-02T11:47:49.032Z</time>
      </trkpt>
      <trkpt lat="47.02522" lon="8.94471">
        <ele>839</ele>
        <time>2021-08-02T11:47:50.032Z</time>
      </trkpt>
      <trkpt lat="47.02522" lon="8.94468">
        <ele>839</ele>
        <time>2021-08-02T11:47:51.032Z</time>
      </trkpt>
      <trkpt lat="47.02523" lon="8.94465">
        <ele>839</ele>
        <time>2021-08-02T11:47:52.032Z</time>
      </trkpt>
      <trkpt lat="47.02524" lon="8.94465">
        <ele>839</ele>
        <time>2021-08-02T11:47:53.032Z</time>
      </trkpt>
      <trkpt lat="47.02525" lon="8.94463">
        <ele>839</ele>
        <time>2021-08-02T11:47:54.031Z</time>
      </trkpt>
      <trkpt lat="47.02526" lon="8.94462">
        <ele>839</ele>
        <time>2021-08-02T11:47:55.032Z</time>
      </trkpt>
      <trkpt lat="47.02526" lon="8.94462">
        <ele>839</ele>
        <time>2021-08-02T11:47:56.032Z</time>
      </trkpt>
      <trkpt lat="47.02526" lon="8.94463">
        <ele>839</ele>
        <time>2021-08-02T11:47:57.031Z</time>
      </trkpt>
      <trkpt lat="47.02526" lon="8.94465">
        <ele>839</ele>
        <time>2021-08-02T11:48:00.032Z</time>
      </trkpt>
      <trkpt lat="47.02527" lon="8.94464">
        <ele>839</ele>
        <time>2021-08-02T11:48:01.031Z</time>
      </trkpt>
      <trkpt lat="47.02526" lon="8.94464">
        <ele>839</ele>
        <time>2021-08-02T11:48:04.031Z</time>
      </trkpt>
      <trkpt lat="47.02525" lon="8.9446">
        <ele>839</ele>
        <time>2021-08-02T11:48:09.031Z</time>
      </trkpt>
      <trkpt lat="47.02538" lon="8.94436">
        <ele>838</ele>
        <time>2021-08-02T11:48:49.148Z</time>
      </trkpt>
      <trkpt lat="47.02538" lon="8.94436">
        <ele>838</ele>
        <time>2021-08-02T11:48:50.148Z</time>
      </trkpt>
      <trkpt lat="47.02538" lon="8.94432">
        <ele>838</ele>
        <time>2021-08-02T11:48:52.149Z</time>
      </trkpt>
      <trkpt lat="47.02538" lon="8.94433">
        <ele>838</ele>
        <time>2021-08-02T11:48:53.149Z</time>
      </trkpt>
      <trkpt lat="47.02537" lon="8.94432">
        <ele>837</ele>
        <time>2021-08-02T11:48:58.149Z</time>
      </trkpt>
      <trkpt lat="47.02535" lon="8.94427">
        <ele>836</ele>
        <time>2021-08-02T11:49:18.148Z</time>
      </trkpt>
      <trkpt lat="47.02535" lon="8.94427">
        <ele>837</ele>
        <time>2021-08-02T11:49:19.148Z</time>
      </trkpt>
      <trkpt lat="47.02535" lon="8.94428">
        <ele>837</ele>
        <time>2021-08-02T11:49:20.148Z</time>
      </trkpt>
      <trkpt lat="47.02534" lon="8.94429">
        <ele>837</ele>
        <time>2021-08-02T11:49:21.149Z</time>
      </trkpt>
      <trkpt lat="47.02534" lon="8.94429">
        <ele>837</ele>
        <time>2021-08-02T11:49:22.148Z</time>
      </trkpt>
      <trkpt lat="47.02534" lon="8.9443">
        <ele>837</ele>
        <time>2021-08-02T11:49:23.148Z</time>
      </trkpt>
      <trkpt lat="47.02534" lon="8.94431">
        <ele>837</ele>
        <time>2021-08-02T11:49:24.149Z</time>
      </trkpt>
      <trkpt lat="47.02533" lon="8.94432">
        <ele>837</ele>
        <time>2021-08-02T11:49:25.149Z</time>
      </trkpt>
      <trkpt lat="47.02533" lon="8.94433">
        <ele>837</ele>
        <time>2021-08-02T11:49:26.149Z</time>
      </trkpt>
      <trkpt lat="47.02533" lon="8.94434">
        <ele>837</ele>
        <time>2021-08-02T11:49:27.149Z</time>
      </trkpt>
      <trkpt lat="47.02533" lon="8.94435">
        <ele>837</ele>
        <time>2021-08-02T11:49:28.149Z</time>
      </trkpt>
      <trkpt lat="47.02532" lon="8.94436">
        <ele>837</ele>
        <time>2021-08-02T11:49:29.149Z</time>
      </trkpt>
      <trkpt lat="47.02531" lon="8.94443">
        <ele>837</ele>
        <time>2021-08-02T11:49:30.149Z</time>
      </trkpt>
      <trkpt lat="47.02531" lon="8.9445">
        <ele>837</ele>
        <time>2021-08-02T11:49:31.149Z</time>
      </trkpt>
      <trkpt lat="47.02529" lon="8.94457">
        <ele>837</ele>
        <time>2021-08-02T11:49:32.149Z</time>
      </trkpt>
      <trkpt lat="47.0253" lon="8.94462">
        <ele>837</ele>
        <time>2021-08-02T11:49:33.148Z</time>
      </trkpt>
      <trkpt lat="47.02528" lon="8.94468">
        <ele>836</ele>
        <time>2021-08-02T11:49:34.149Z</time>
      </trkpt>
      <trkpt lat="47.02527" lon="8.94471">
        <ele>836</ele>
        <time>2021-08-02T11:49:35.149Z</time>
      </trkpt>
      <trkpt lat="47.02525" lon="8.94473">
        <ele>836</ele>
        <time>2021-08-02T11:49:36.148Z</time>
      </trkpt>
      <trkpt lat="47.02526" lon="8.94475">
        <ele>836</ele>
        <time>2021-08-02T11:49:37.149Z</time>
      </trkpt>
      <trkpt lat="47.02527" lon="8.94478">
        <ele>836</ele>
        <time>2021-08-02T11:49:38.149Z</time>
      </trkpt>
      <trkpt lat="47.02527" lon="8.94479">
        <ele>837</ele>
        <time>2021-08-02T11:49:40.148Z</time>
      </trkpt>
      <trkpt lat="47.02527" lon="8.9448">
        <ele>837</ele>
        <time>2021-08-02T11:49:41.148Z</time>
      </trkpt>
      <trkpt lat="47.02521" lon="8.94495">
        <ele>839</ele>
        <time>2021-08-02T11:53:24.060Z</time>
      </trkpt>
      <trkpt lat="47.0252" lon="8.94489">
        <ele>841</ele>
        <time>2021-08-02T11:53:25.060Z</time>
      </trkpt>
      <trkpt lat="47.02522" lon="8.94492">
        <ele>843</ele>
        <time>2021-08-02T11:53:26.060Z</time>
      </trkpt>
      <trkpt lat="47.0253" lon="8.94491">
        <ele>846</ele>
        <time>2021-08-02T11:53:28.060Z</time>
      </trkpt>
      <trkpt lat="47.02532" lon="8.94489">
        <ele>848</ele>
        <time>2021-08-02T11:53:29.060Z</time>
      </trkpt>
      <trkpt lat="47.02532" lon="8.94487">
        <ele>849</ele>
        <time>2021-08-02T11:53:30.060Z</time>
      </trkpt>
      <trkpt lat="47.02532" lon="8.94483">
        <ele>850</ele>
        <time>2021-08-02T11:53:31.060Z</time>
      </trkpt>
      <trkpt lat="47.02533" lon="8.9448">
        <ele>852</ele>
        <time>2021-08-02T11:53:32.060Z</time>
      </trkpt>
      <trkpt lat="47.02531" lon="8.94477">
        <ele>852</ele>
        <time>2021-08-02T11:53:33.060Z</time>
      </trkpt>
      <trkpt lat="47.0253" lon="8.94475">
        <ele>853</ele>
        <time>2021-08-02T11:53:34.060Z</time>
      </trkpt>
      <trkpt lat="47.02527" lon="8.94475">
        <ele>854</ele>
        <time>2021-08-02T11:53:35.060Z</time>
      </trkpt>
      <trkpt lat="47.02523" lon="8.94475">
        <ele>854</ele>
        <time>2021-08-02T11:53:36.060Z</time>
      </trkpt>
      <trkpt lat="47.02519" lon="8.94478">
        <ele>855</ele>
        <time>2021-08-02T11:53:37.060Z</time>
      </trkpt>
      <trkpt lat="47.02516" lon="8.94479">
        <ele>856</ele>
        <time>2021-08-02T11:53:38.059Z</time>
      </trkpt>
      <trkpt lat="47.02513" lon="8.94481">
        <ele>856</ele>
        <time>2021-08-02T11:53:39.059Z</time>
      </trkpt>
      <trkpt lat="47.02513" lon="8.94482">
        <ele>856</ele>
        <time>2021-08-02T11:53:40.060Z</time>
      </trkpt>
      <trkpt lat="47.02512" lon="8.94483">
        <ele>856</ele>
        <time>2021-08-02T11:53:41.059Z</time>
      </trkpt>
      <trkpt lat="47.02511" lon="8.94484">
        <ele>856</ele>
        <time>2021-08-02T11:53:42.060Z</time>
      </trkpt>
      <trkpt lat="47.02511" lon="8.94485">
        <ele>856</ele>
        <time>2021-08-02T11:53:43.059Z</time>
      </trkpt>
      <trkpt lat="47.0251" lon="8.94485">
        <ele>856</ele>
        <time>2021-08-02T11:53:44.059Z</time>
      </trkpt>
      <trkpt lat="47.02511" lon="8.94485">
        <ele>856</ele>
        <time>2021-08-02T11:53:47.144Z</time>
      </trkpt>
      <trkpt lat="47.02511" lon="8.94485">
        <ele>856</ele>
        <time>2021-08-02T11:53:48.144Z</time>
      </trkpt>
      <trkpt lat="47.02511" lon="8.94485">
        <ele>856</ele>
        <time>2021-08-02T11:53:49.144Z</time>
      </trkpt>
      <trkpt lat="47.02512" lon="8.94485">
        <ele>856</ele>
        <time>2021-08-02T11:53:50.145Z</time>
      </trkpt>
      <trkpt lat="47.02522" lon="8.94472">
        <ele>854</ele>
        <time>2021-08-02T11:53:51.147Z</time>
      </trkpt>
      <trkpt lat="47.02522" lon="8.94472">
        <ele>854</ele>
        <time>2021-08-02T11:53:52.147Z</time>
      </trkpt>
      <trkpt lat="47.02521" lon="8.94471">
        <ele>854</ele>
        <time>2021-08-02T11:53:53.146Z</time>
      </trkpt>
      <trkpt lat="47.02519" lon="8.94472">
        <ele>852</ele>
        <time>2021-08-02T11:53:54.147Z</time>
      </trkpt>
      <trkpt lat="47.02518" lon="8.94472">
        <ele>851</ele>
        <time>2021-08-02T11:53:55.146Z</time>
      </trkpt>
      <trkpt lat="47.02517" lon="8.94473">
        <ele>851</ele>
        <time>2021-08-02T11:53:56.146Z</time>
      </trkpt>
      <trkpt lat="47.02517" lon="8.94473">
        <ele>850</ele>
        <time>2021-08-02T11:53:57.146Z</time>
      </trkpt>
      <trkpt lat="47.02517" lon="8.94473">
        <ele>850</ele>
        <time>2021-08-02T11:53:58.146Z</time>
      </trkpt>
      <trkpt lat="47.02517" lon="8.94473">
        <ele>850</ele>
        <time>2021-08-02T11:53:59.146Z</time>
      </trkpt>
      <trkpt lat="47.02518" lon="8.94472">
        <ele>849</ele>
        <time>2021-08-02T11:54:00.147Z</time>
      </trkpt>
      <trkpt lat="47.02518" lon="8.94472">
        <ele>848</ele>
        <time>2021-08-02T11:54:01.146Z</time>
      </trkpt>
      <trkpt lat="47.02518" lon="8.94472">
        <ele>848</ele>
        <time>2021-08-02T11:54:02.147Z</time>
      </trkpt>
      <trkpt lat="47.02518" lon="8.94472">
        <ele>848</ele>
        <time>2021-08-02T11:54:03.146Z</time>
      </trkpt>
      <trkpt lat="47.02519" lon="8.94472">
        <ele>848</ele>
        <time>2021-08-02T11:54:04.146Z</time>
      </trkpt>
      <trkpt lat="47.02519" lon="8.94471">
        <ele>848</ele>
        <time>2021-08-02T11:54:05.147Z</time>
      </trkpt>
      <trkpt lat="47.02519" lon="8.94472">
        <ele>848</ele>
        <time>2021-08-02T11:54:06.147Z</time>
      </trkpt>
      <trkpt lat="47.0252" lon="8.94477">
        <ele>852</ele>
        <time>2021-08-02T11:54:07.148Z</time>
      </trkpt>
      <trkpt lat="47.0252" lon="8.94478">
        <ele>852</ele>
        <time>2021-08-02T11:54:08.148Z</time>
      </trkpt>
      <trkpt lat="47.02521" lon="8.94478">
        <ele>852</ele>
        <time>2021-08-02T11:54:09.147Z</time>
      </trkpt>
      <trkpt lat="47.02521" lon="8.94476">
        <ele>852</ele>
        <time>2021-08-02T11:54:10.148Z</time>
      </trkpt>
      <trkpt lat="47.02521" lon="8.94475">
        <ele>852</ele>
        <time>2021-08-02T11:54:11.147Z</time>
      </trkpt>
      <trkpt lat="47.02521" lon="8.94473">
        <ele>852</ele>
        <time>2021-08-02T11:54:12.148Z</time>
      </trkpt>
      <trkpt lat="47.02522" lon="8.94472">
        <ele>852</ele>
        <time>2021-08-02T11:54:13.148Z</time>
      </trkpt>
      <trkpt lat="47.02522" lon="8.94471">
        <ele>852</ele>
        <time>2021-08-02T11:54:14.148Z</time>
      </trkpt>
      <trkpt lat="47.02522" lon="8.9447">
        <ele>852</ele>
        <time>2021-08-02T11:54:15.147Z</time>
      </trkpt>
      <trkpt lat="47.02522" lon="8.9447">
        <ele>851</ele>
        <time>2021-08-02T11:54:16.148Z</time>
      </trkpt>
      <trkpt lat="47.02521" lon="8.94469">
        <ele>851</ele>
        <time>2021-08-02T11:54:17.148Z</time>
      </trkpt>
      <trkpt lat="47.0252" lon="8.94468">
        <ele>850</ele>
        <time>2021-08-02T11:54:18.147Z</time>
      </trkpt>
      <trkpt lat="47.02519" lon="8.94467">
        <ele>850</ele>
        <time>2021-08-02T11:54:19.148Z</time>
      </trkpt>
      <trkpt lat="47.02519" lon="8.94466">
        <ele>850</ele>
        <time>2021-08-02T11:54:20.147Z</time>
      </trkpt>
      <trkpt lat="47.02518" lon="8.94465">
        <ele>850</ele>
        <time>2021-08-02T11:54:21.148Z</time>
      </trkpt>
      <trkpt lat="47.02518" lon="8.94463">
        <ele>850</ele>
        <time>2021-08-02T11:54:22.147Z</time>
      </trkpt>
      <trkpt lat="47.02517" lon="8.94462">
        <ele>850</ele>
        <time>2021-08-02T11:54:23.147Z</time>
      </trkpt>
      <trkpt lat="47.02516" lon="8.94462">
        <ele>850</ele>
        <time>2021-08-02T11:54:24.148Z</time>
      </trkpt>
      <trkpt lat="47.02515" lon="8.94461">
        <ele>850</ele>
        <time>2021-08-02T11:54:25.148Z</time>
      </trkpt>
      <trkpt lat="47.02515" lon="8.9446">
        <ele>850</ele>
        <time>2021-08-02T11:54:26.147Z</time>
      </trkpt>
      <trkpt lat="47.02514" lon="8.94459">
        <ele>850</ele>
        <time>2021-08-02T11:54:27.148Z</time>
      </trkpt>
      <trkpt lat="47.02513" lon="8.94458">
        <ele>849</ele>
        <time>2021-08-02T11:54:28.147Z</time>
      </trkpt>
      <trkpt lat="47.02513" lon="8.94456">
        <ele>849</ele>
        <time>2021-08-02T11:54:29.147Z</time>
      </trkpt>
      <trkpt lat="47.02512" lon="8.94456">
        <ele>848</ele>
        <time>2021-08-02T11:54:30.148Z</time>
      </trkpt>
      <trkpt lat="47.02511" lon="8.94455">
        <ele>848</ele>
        <time>2021-08-02T11:54:31.147Z</time>
      </trkpt>
      <trkpt lat="47.02511" lon="8.94454">
        <ele>847</ele>
        <time>2021-08-02T11:54:32.148Z</time>
      </trkpt>
      <trkpt lat="47.02511" lon="8.94452">
        <ele>847</ele>
        <time>2021-08-02T11:54:33.147Z</time>
      </trkpt>
      <trkpt lat="47.02511" lon="8.94451">
        <ele>847</ele>
        <time>2021-08-02T11:54:34.148Z</time>
      </trkpt>
      <trkpt lat="47.02511" lon="8.9445">
        <ele>847</ele>
        <time>2021-08-02T11:54:35.148Z</time>
      </trkpt>
      <trkpt lat="47.02511" lon="8.94449">
        <ele>848</ele>
        <time>2021-08-02T11:54:36.147Z</time>
      </trkpt>
      <trkpt lat="47.02511" lon="8.94449">
        <ele>848</ele>
        <time>2021-08-02T11:54:37.148Z</time>
      </trkpt>
      <trkpt lat="47.02511" lon="8.94449">
        <ele>848</ele>
        <time>2021-08-02T11:54:38.148Z</time>
      </trkpt>
      <trkpt lat="47.02511" lon="8.94451">
        <ele>847</ele>
        <time>2021-08-02T11:54:39.148Z</time>
      </trkpt>
      <trkpt lat="47.02511" lon="8.94453">
        <ele>847</ele>
        <time>2021-08-02T11:54:40.147Z</time>
      </trkpt>
      <trkpt lat="47.02511" lon="8.94454">
        <ele>847</ele>
        <time>2021-08-02T11:54:41.148Z</time>
      </trkpt>
      <trkpt lat="47.02511" lon="8.94455">
        <ele>846</ele>
        <time>2021-08-02T11:54:42.148Z</time>
      </trkpt>
      <trkpt lat="47.02511" lon="8.94456">
        <ele>846</ele>
        <time>2021-08-02T11:54:43.148Z</time>
      </trkpt>
      <trkpt lat="47.02511" lon="8.94457">
        <ele>845</ele>
        <time>2021-08-02T11:54:44.147Z</time>
      </trkpt>
      <trkpt lat="47.02511" lon="8.94459">
        <ele>845</ele>
        <time>2021-08-02T11:54:45.148Z</time>
      </trkpt>
      <trkpt lat="47.0251" lon="8.9446">
        <ele>844</ele>
        <time>2021-08-02T11:54:46.147Z</time>
      </trkpt>
      <trkpt lat="47.02509" lon="8.94461">
        <ele>844</ele>
        <time>2021-08-02T11:54:47.147Z</time>
      </trkpt>
      <trkpt lat="47.02509" lon="8.94463">
        <ele>844</ele>
        <time>2021-08-02T11:54:48.148Z</time>
      </trkpt>
      <trkpt lat="47.02508" lon="8.94464">
        <ele>844</ele>
        <time>2021-08-02T11:54:49.148Z</time>
      </trkpt>
      <trkpt lat="47.02508" lon="8.94465">
        <ele>844</ele>
        <time>2021-08-02T11:54:50.147Z</time>
      </trkpt>
      <trkpt lat="47.02507" lon="8.94467">
        <ele>844</ele>
        <time>2021-08-02T11:54:51.148Z</time>
      </trkpt>
      <trkpt lat="47.02507" lon="8.94468">
        <ele>844</ele>
        <time>2021-08-02T11:54:52.148Z</time>
      </trkpt>
      <trkpt lat="47.02506" lon="8.94469">
        <ele>844</ele>
        <time>2021-08-02T11:54:53.148Z</time>
      </trkpt>
      <trkpt lat="47.02506" lon="8.94469">
        <ele>844</ele>
        <time>2021-08-02T11:54:54.147Z</time>
      </trkpt>
      <trkpt lat="47.02505" lon="8.94471">
        <ele>844</ele>
        <time>2021-08-02T11:54:55.147Z</time>
      </trkpt>
      <trkpt lat="47.02504" lon="8.94474">
        <ele>845</ele>
        <time>2021-08-02T11:54:56.147Z</time>
      </trkpt>
      <trkpt lat="47.02502" lon="8.94477">
        <ele>845</ele>
        <time>2021-08-02T11:54:57.148Z</time>
      </trkpt>
      <trkpt lat="47.02501" lon="8.94478">
        <ele>846</ele>
        <time>2021-08-02T11:54:58.148Z</time>
      </trkpt>
      <trkpt lat="47.02502" lon="8.94479">
        <ele>847</ele>
        <time>2021-08-02T11:54:59.147Z</time>
      </trkpt>
      <trkpt lat="47.02502" lon="8.9448">
        <ele>847</ele>
        <time>2021-08-02T11:55:00.147Z</time>
      </trkpt>
      <trkpt lat="47.02501" lon="8.94481">
        <ele>848</ele>
        <time>2021-08-02T11:55:01.147Z</time>
      </trkpt>
      <trkpt lat="47.025" lon="8.94483">
        <ele>848</ele>
        <time>2021-08-02T11:55:02.147Z</time>
      </trkpt>
      <trkpt lat="47.02499" lon="8.94484">
        <ele>848</ele>
        <time>2021-08-02T11:55:03.148Z</time>
      </trkpt>
      <trkpt lat="47.02498" lon="8.94486">
        <ele>849</ele>
        <time>2021-08-02T11:55:04.147Z</time>
      </trkpt>
      <trkpt lat="47.02498" lon="8.94487">
        <ele>849</ele>
        <time>2021-08-02T11:55:05.147Z</time>
      </trkpt>
      <trkpt lat="47.02498" lon="8.94487">
        <ele>850</ele>
        <time>2021-08-02T11:55:06.147Z</time>
      </trkpt>
      <trkpt lat="47.02497" lon="8.94488">
        <ele>850</ele>
        <time>2021-08-02T11:55:07.148Z</time>
      </trkpt>
      <trkpt lat="47.02496" lon="8.94488">
        <ele>850</ele>
        <time>2021-08-02T11:55:08.147Z</time>
      </trkpt>
      <trkpt lat="47.02495" lon="8.94489">
        <ele>851</ele>
        <time>2021-08-02T11:55:09.147Z</time>
      </trkpt>
      <trkpt lat="47.02494" lon="8.9449">
        <ele>851</ele>
        <time>2021-08-02T11:55:10.147Z</time>
      </trkpt>
      <trkpt lat="47.02493" lon="8.9449">
        <ele>851</ele>
        <time>2021-08-02T11:55:11.147Z</time>
      </trkpt>
      <trkpt lat="47.02492" lon="8.94491">
        <ele>851</ele>
        <time>2021-08-02T11:55:12.147Z</time>
      </trkpt>
      <trkpt lat="47.02491" lon="8.94491">
        <ele>851</ele>
        <time>2021-08-02T11:55:13.148Z</time>
      </trkpt>
      <trkpt lat="47.0249" lon="8.94492">
        <ele>852</ele>
        <time>2021-08-02T11:55:14.147Z</time>
      </trkpt>
      <trkpt lat="47.02489" lon="8.94493">
        <ele>851</ele>
        <time>2021-08-02T11:55:15.148Z</time>
      </trkpt>
      <trkpt lat="47.02488" lon="8.94494">
        <ele>851</ele>
        <time>2021-08-02T11:55:16.147Z</time>
      </trkpt>
      <trkpt lat="47.02487" lon="8.94496">
        <ele>851</ele>
        <time>2021-08-02T11:55:17.148Z</time>
      </trkpt>
      <trkpt lat="47.02486" lon="8.94496">
        <ele>850</ele>
        <time>2021-08-02T11:55:18.148Z</time>
      </trkpt>
      <trkpt lat="47.02486" lon="8.94496">
        <ele>850</ele>
        <time>2021-08-02T11:55:19.147Z</time>
      </trkpt>
      <trkpt lat="47.02486" lon="8.94496">
        <ele>850</ele>
        <time>2021-08-02T11:55:20.147Z</time>
      </trkpt>
      <trkpt lat="47.02485" lon="8.94497">
        <ele>849</ele>
        <time>2021-08-02T11:55:21.147Z</time>
      </trkpt>
      <trkpt lat="47.02485" lon="8.94497">
        <ele>849</ele>
        <time>2021-08-02T11:55:22.148Z</time>
      </trkpt>
      <trkpt lat="47.02484" lon="8.94498">
        <ele>849</ele>
        <time>2021-08-02T11:55:23.147Z</time>
      </trkpt>
      <trkpt lat="47.02483" lon="8.94499">
        <ele>849</ele>
        <time>2021-08-02T11:55:24.147Z</time>
      </trkpt>
      <trkpt lat="47.02482" lon="8.945">
        <ele>849</ele>
        <time>2021-08-02T11:55:25.147Z</time>
      </trkpt>
      <trkpt lat="47.02481" lon="8.945">
        <ele>850</ele>
        <time>2021-08-02T11:55:26.148Z</time>
      </trkpt>
      <trkpt lat="47.0248" lon="8.94501">
        <ele>850</ele>
        <time>2021-08-02T11:55:27.147Z</time>
      </trkpt>
      <trkpt lat="47.02479" lon="8.94502">
        <ele>850</ele>
        <time>2021-08-02T11:55:28.148Z</time>
      </trkpt>
      <trkpt lat="47.02478" lon="8.94502">
        <ele>850</ele>
        <time>2021-08-02T11:55:29.147Z</time>
      </trkpt>
      <trkpt lat="47.02477" lon="8.94503">
        <ele>851</ele>
        <time>2021-08-02T11:55:30.148Z</time>
      </trkpt>
      <trkpt lat="47.02476" lon="8.94504">
        <ele>851</ele>
        <time>2021-08-02T11:55:31.147Z</time>
      </trkpt>
      <trkpt lat="47.02475" lon="8.94504">
        <ele>851</ele>
        <time>2021-08-02T11:55:32.148Z</time>
      </trkpt>
      <trkpt lat="47.02474" lon="8.94505">
        <ele>851</ele>
        <time>2021-08-02T11:55:33.148Z</time>
      </trkpt>
      <trkpt lat="47.02474" lon="8.94505">
        <ele>851</ele>
        <time>2021-08-02T11:55:34.147Z</time>
      </trkpt>
      <trkpt lat="47.02472" lon="8.94505">
        <ele>851</ele>
        <time>2021-08-02T11:55:35.147Z</time>
      </trkpt>
      <trkpt lat="47.02471" lon="8.94506">
        <ele>851</ele>
        <time>2021-08-02T11:55:36.147Z</time>
      </trkpt>
      <trkpt lat="47.0247" lon="8.94507">
        <ele>851</ele>
        <time>2021-08-02T11:55:37.148Z</time>
      </trkpt>
      <trkpt lat="47.02469" lon="8.94508">
        <ele>851</ele>
        <time>2021-08-02T11:55:38.148Z</time>
      </trkpt>
      <trkpt lat="47.02467" lon="8.94509">
        <ele>851</ele>
        <time>2021-08-02T11:55:39.148Z</time>
      </trkpt>
      <trkpt lat="47.02466" lon="8.94509">
        <ele>851</ele>
        <time>2021-08-02T11:55:40.147Z</time>
      </trkpt>
      <trkpt lat="47.02465" lon="8.9451">
        <ele>852</ele>
        <time>2021-08-02T11:55:41.147Z</time>
      </trkpt>
      <trkpt lat="47.02464" lon="8.94511">
        <ele>852</ele>
        <time>2021-08-02T11:55:42.147Z</time>
      </trkpt>
      <trkpt lat="47.02463" lon="8.94511">
        <ele>853</ele>
        <time>2021-08-02T11:55:43.148Z</time>
      </trkpt>
      <trkpt lat="47.02462" lon="8.94512">
        <ele>853</ele>
        <time>2021-08-02T11:55:44.147Z</time>
      </trkpt>
      <trkpt lat="47.0246" lon="8.94513">
        <ele>854</ele>
        <time>2021-08-02T11:55:45.147Z</time>
      </trkpt>
      <trkpt lat="47.02459" lon="8.94513">
        <ele>854</ele>
        <time>2021-08-02T11:55:46.147Z</time>
      </trkpt>
      <trkpt lat="47.02458" lon="8.94514">
        <ele>855</ele>
        <time>2021-08-02T11:55:47.148Z</time>
      </trkpt>
      <trkpt lat="47.02457" lon="8.94515">
        <ele>855</ele>
        <time>2021-08-02T11:55:48.147Z</time>
      </trkpt>
      <trkpt lat="47.02456" lon="8.94515">
        <ele>855</ele>
        <time>2021-08-02T11:55:49.147Z</time>
      </trkpt>
      <trkpt lat="47.02455" lon="8.94516">
        <ele>855</ele>
        <time>2021-08-02T11:55:50.147Z</time>
      </trkpt>
      <trkpt lat="47.02452" lon="8.94519">
        <ele>855</ele>
        <time>2021-08-02T11:55:51.147Z</time>
      </trkpt>
      <trkpt lat="47.0245" lon="8.94521">
        <ele>855</ele>
        <time>2021-08-02T11:55:52.148Z</time>
      </trkpt>
      <trkpt lat="47.02448" lon="8.94522">
        <ele>855</ele>
        <time>2021-08-02T11:55:53.147Z</time>
      </trkpt>
      <trkpt lat="47.02447" lon="8.94524">
        <ele>855</ele>
        <time>2021-08-02T11:55:54.147Z</time>
      </trkpt>
      <trkpt lat="47.02445" lon="8.94526">
        <ele>856</ele>
        <time>2021-08-02T11:55:55.147Z</time>
      </trkpt>
      <trkpt lat="47.02443" lon="8.94527">
        <ele>856</ele>
        <time>2021-08-02T11:55:56.147Z</time>
      </trkpt>
      <trkpt lat="47.02442" lon="8.94528">
        <ele>856</ele>
        <time>2021-08-02T11:55:57.147Z</time>
      </trkpt>
      <trkpt lat="47.0244" lon="8.94529">
        <ele>856</ele>
        <time>2021-08-02T11:55:58.147Z</time>
      </trkpt>
      <trkpt lat="47.02439" lon="8.9453">
        <ele>857</ele>
        <time>2021-08-02T11:55:59.147Z</time>
      </trkpt>
      <trkpt lat="47.02438" lon="8.94531">
        <ele>857</ele>
        <time>2021-08-02T11:56:00.147Z</time>
      </trkpt>
      <trkpt lat="47.02436" lon="8.94531">
        <ele>857</ele>
        <time>2021-08-02T11:56:01.147Z</time>
      </trkpt>
      <trkpt lat="47.02436" lon="8.9453">
        <ele>857</ele>
        <time>2021-08-02T11:56:02.147Z</time>
      </trkpt>
      <trkpt lat="47.02435" lon="8.94529">
        <ele>857</ele>
        <time>2021-08-02T11:56:03.147Z</time>
      </trkpt>
      <trkpt lat="47.02434" lon="8.94529">
        <ele>857</ele>
        <time>2021-08-02T11:56:04.147Z</time>
      </trkpt>
      <trkpt lat="47.02432" lon="8.9453">
        <ele>857</ele>
        <time>2021-08-02T11:56:05.147Z</time>
      </trkpt>
      <trkpt lat="47.02431" lon="8.9453">
        <ele>857</ele>
        <time>2021-08-02T11:56:06.147Z</time>
      </trkpt>
      <trkpt lat="47.0243" lon="8.9453">
        <ele>858</ele>
        <time>2021-08-02T11:56:07.147Z</time>
      </trkpt>
      <trkpt lat="47.02429" lon="8.94529">
        <ele>858</ele>
        <time>2021-08-02T11:56:08.148Z</time>
      </trkpt>
      <trkpt lat="47.02428" lon="8.94529">
        <ele>858</ele>
        <time>2021-08-02T11:56:09.147Z</time>
      </trkpt>
      <trkpt lat="47.02426" lon="8.94529">
        <ele>858</ele>
        <time>2021-08-02T11:56:10.148Z</time>
      </trkpt>
      <trkpt lat="47.02425" lon="8.94528">
        <ele>858</ele>
        <time>2021-08-02T11:56:11.147Z</time>
      </trkpt>
      <trkpt lat="47.02424" lon="8.94529">
        <ele>858</ele>
        <time>2021-08-02T11:56:12.148Z</time>
      </trkpt>
      <trkpt lat="47.02422" lon="8.94529">
        <ele>858</ele>
        <time>2021-08-02T11:56:13.148Z</time>
      </trkpt>
      <trkpt lat="47.02422" lon="8.94528">
        <ele>858</ele>
        <time>2021-08-02T11:56:14.148Z</time>
      </trkpt>
      <trkpt lat="47.02421" lon="8.94528">
        <ele>858</ele>
        <time>2021-08-02T11:56:15.148Z</time>
      </trkpt>
      <trkpt lat="47.0242" lon="8.94528">
        <ele>858</ele>
        <time>2021-08-02T11:56:16.148Z</time>
      </trkpt>
      <trkpt lat="47.02419" lon="8.94528">
        <ele>858</ele>
        <time>2021-08-02T11:56:17.148Z</time>
      </trkpt>
      <trkpt lat="47.02419" lon="8.94528">
        <ele>858</ele>
        <time>2021-08-02T11:56:18.147Z</time>
      </trkpt>
      <trkpt lat="47.02418" lon="8.94528">
        <ele>858</ele>
        <time>2021-08-02T11:56:19.148Z</time>
      </trkpt>
      <trkpt lat="47.02417" lon="8.94528">
        <ele>858</ele>
        <time>2021-08-02T11:56:20.148Z</time>
      </trkpt>
      <trkpt lat="47.02416" lon="8.94528">
        <ele>859</ele>
        <time>2021-08-02T11:56:21.147Z</time>
      </trkpt>
      <trkpt lat="47.02415" lon="8.94529">
        <ele>859</ele>
        <time>2021-08-02T11:56:22.148Z</time>
      </trkpt>
      <trkpt lat="47.02414" lon="8.94528">
        <ele>859</ele>
        <time>2021-08-02T11:56:23.147Z</time>
      </trkpt>
      <trkpt lat="47.02412" lon="8.94527">
        <ele>859</ele>
        <time>2021-08-02T11:56:24.147Z</time>
      </trkpt>
      <trkpt lat="47.02411" lon="8.94527">
        <ele>859</ele>
        <time>2021-08-02T11:56:25.147Z</time>
      </trkpt>
      <trkpt lat="47.0241" lon="8.94527">
        <ele>859</ele>
        <time>2021-08-02T11:56:26.148Z</time>
      </trkpt>
      <trkpt lat="47.02409" lon="8.94528">
        <ele>859</ele>
        <time>2021-08-02T11:56:27.148Z</time>
      </trkpt>
      <trkpt lat="47.02408" lon="8.94528">
        <ele>859</ele>
        <time>2021-08-02T11:56:28.148Z</time>
      </trkpt>
      <trkpt lat="47.02407" lon="8.94528">
        <ele>859</ele>
        <time>2021-08-02T11:56:29.147Z</time>
      </trkpt>
      <trkpt lat="47.02406" lon="8.94527">
        <ele>859</ele>
        <time>2021-08-02T11:56:30.147Z</time>
      </trkpt>
      <trkpt lat="47.02406" lon="8.94526">
        <ele>860</ele>
        <time>2021-08-02T11:56:31.148Z</time>
      </trkpt>
      <trkpt lat="47.02404" lon="8.94525">
        <ele>860</ele>
        <time>2021-08-02T11:56:32.148Z</time>
      </trkpt>
      <trkpt lat="47.02403" lon="8.94525">
        <ele>860</ele>
        <time>2021-08-02T11:56:33.147Z</time>
      </trkpt>
      <trkpt lat="47.02402" lon="8.94523">
        <ele>861</ele>
        <time>2021-08-02T11:56:34.148Z</time>
      </trkpt>
      <trkpt lat="47.02401" lon="8.94522">
        <ele>861</ele>
        <time>2021-08-02T11:56:35.147Z</time>
      </trkpt>
      <trkpt lat="47.02399" lon="8.94521">
        <ele>861</ele>
        <time>2021-08-02T11:56:36.147Z</time>
      </trkpt>
      <trkpt lat="47.02398" lon="8.9452">
        <ele>862</ele>
        <time>2021-08-02T11:56:37.147Z</time>
      </trkpt>
      <trkpt lat="47.02397" lon="8.94519">
        <ele>862</ele>
        <time>2021-08-02T11:56:38.148Z</time>
      </trkpt>
      <trkpt lat="47.02396" lon="8.94519">
        <ele>862</ele>
        <time>2021-08-02T11:56:39.147Z</time>
      </trkpt>
      <trkpt lat="47.02395" lon="8.94518">
        <ele>862</ele>
        <time>2021-08-02T11:56:40.147Z</time>
      </trkpt>
      <trkpt lat="47.02395" lon="8.94518">
        <ele>862</ele>
        <time>2021-08-02T11:56:41.147Z</time>
      </trkpt>
      <trkpt lat="47.02393" lon="8.94518">
        <ele>862</ele>
        <time>2021-08-02T11:56:42.148Z</time>
      </trkpt>
      <trkpt lat="47.02392" lon="8.94518">
        <ele>862</ele>
        <time>2021-08-02T11:56:43.148Z</time>
      </trkpt>
      <trkpt lat="47.0239" lon="8.94518">
        <ele>862</ele>
        <time>2021-08-02T11:56:44.147Z</time>
      </trkpt>
      <trkpt lat="47.02389" lon="8.94518">
        <ele>862</ele>
        <time>2021-08-02T11:56:45.148Z</time>
      </trkpt>
      <trkpt lat="47.02388" lon="8.94518">
        <ele>861</ele>
        <time>2021-08-02T11:56:46.147Z</time>
      </trkpt>
      <trkpt lat="47.02387" lon="8.94519">
        <ele>861</ele>
        <time>2021-08-02T11:56:47.147Z</time>
      </trkpt>
      <trkpt lat="47.02385" lon="8.9452">
        <ele>861</ele>
        <time>2021-08-02T11:56:50.269Z</time>
      </trkpt>
      <trkpt lat="47.02384" lon="8.94521">
        <ele>860</ele>
        <time>2021-08-02T11:56:51.269Z</time>
      </trkpt>
      <trkpt lat="47.02383" lon="8.94522">
        <ele>860</ele>
        <time>2021-08-02T11:56:52.269Z</time>
      </trkpt>
      <trkpt lat="47.02382" lon="8.94523">
        <ele>860</ele>
        <time>2021-08-02T11:56:53.269Z</time>
      </trkpt>
      <trkpt lat="47.02381" lon="8.94524">
        <ele>860</ele>
        <time>2021-08-02T11:56:54.269Z</time>
      </trkpt>
      <trkpt lat="47.0238" lon="8.94525">
        <ele>859</ele>
        <time>2021-08-02T11:56:55.269Z</time>
      </trkpt>
      <trkpt lat="47.02379" lon="8.94527">
        <ele>859</ele>
        <time>2021-08-02T11:56:56.269Z</time>
      </trkpt>
      <trkpt lat="47.02377" lon="8.94528">
        <ele>858</ele>
        <time>2021-08-02T11:56:57.270Z</time>
      </trkpt>
      <trkpt lat="47.02376" lon="8.94529">
        <ele>858</ele>
        <time>2021-08-02T11:57:10.293Z</time>
      </trkpt>
      <trkpt lat="47.02375" lon="8.94531">
        <ele>858</ele>
        <time>2021-08-02T11:57:11.293Z</time>
      </trkpt>
      <trkpt lat="47.02375" lon="8.94532">
        <ele>857</ele>
        <time>2021-08-02T11:57:12.293Z</time>
      </trkpt>
      <trkpt lat="47.02374" lon="8.94533">
        <ele>857</ele>
        <time>2021-08-02T11:57:14.413Z</time>
      </trkpt>
      <trkpt lat="47.02374" lon="8.94534">
        <ele>856</ele>
        <time>2021-08-02T11:57:15.413Z</time>
      </trkpt>
      <trkpt lat="47.02374" lon="8.94535">
        <ele>856</ele>
        <time>2021-08-02T11:57:16.413Z</time>
      </trkpt>
      <trkpt lat="47.02373" lon="8.94536">
        <ele>855</ele>
        <time>2021-08-02T11:57:17.413Z</time>
      </trkpt>
      <trkpt lat="47.02372" lon="8.94537">
        <ele>854</ele>
        <time>2021-08-02T11:57:18.413Z</time>
      </trkpt>
      <trkpt lat="47.02372" lon="8.94538">
        <ele>854</ele>
        <time>2021-08-02T11:57:19.413Z</time>
      </trkpt>
      <trkpt lat="47.02371" lon="8.9454">
        <ele>853</ele>
        <time>2021-08-02T11:57:20.413Z</time>
      </trkpt>
      <trkpt lat="47.02371" lon="8.94542">
        <ele>853</ele>
        <time>2021-08-02T11:57:22.501Z</time>
      </trkpt>
      <trkpt lat="47.0237" lon="8.94543">
        <ele>852</ele>
        <time>2021-08-02T11:57:24.252Z</time>
      </trkpt>
      <trkpt lat="47.02369" lon="8.94545">
        <ele>852</ele>
        <time>2021-08-02T11:57:25.251Z</time>
      </trkpt>
      <trkpt lat="47.02369" lon="8.94546">
        <ele>852</ele>
        <time>2021-08-02T11:57:26.251Z</time>
      </trkpt>
      <trkpt lat="47.02369" lon="8.94548">
        <ele>852</ele>
        <time>2021-08-02T11:57:27.251Z</time>
      </trkpt>
      <trkpt lat="47.02368" lon="8.94549">
        <ele>851</ele>
        <time>2021-08-02T11:57:28.252Z</time>
      </trkpt>
      <trkpt lat="47.02368" lon="8.9455">
        <ele>851</ele>
        <time>2021-08-02T11:57:29.252Z</time>
      </trkpt>
      <trkpt lat="47.02366" lon="8.94552">
        <ele>852</ele>
        <time>2021-08-02T11:57:30.251Z</time>
      </trkpt>
      <trkpt lat="47.02365" lon="8.94554">
        <ele>852</ele>
        <time>2021-08-02T11:57:31.252Z</time>
      </trkpt>
      <trkpt lat="47.02365" lon="8.94556">
        <ele>852</ele>
        <time>2021-08-02T11:57:32.251Z</time>
      </trkpt>
      <trkpt lat="47.02365" lon="8.94558">
        <ele>852</ele>
        <time>2021-08-02T11:57:33.252Z</time>
      </trkpt>
      <trkpt lat="47.02365" lon="8.9456">
        <ele>853</ele>
        <time>2021-08-02T11:57:34.251Z</time>
      </trkpt>
      <trkpt lat="47.02364" lon="8.94562">
        <ele>853</ele>
        <time>2021-08-02T11:57:35.252Z</time>
      </trkpt>
      <trkpt lat="47.02363" lon="8.94563">
        <ele>853</ele>
        <time>2021-08-02T11:57:36.251Z</time>
      </trkpt>
      <trkpt lat="47.02362" lon="8.94564">
        <ele>854</ele>
        <time>2021-08-02T11:57:37.252Z</time>
      </trkpt>
      <trkpt lat="47.02361" lon="8.94564">
        <ele>854</ele>
        <time>2021-08-02T11:57:43.426Z</time>
      </trkpt>
      <trkpt lat="47.0236" lon="8.94566">
        <ele>854</ele>
        <time>2021-08-02T11:57:47.273Z</time>
      </trkpt>
      <trkpt lat="47.02359" lon="8.94567">
        <ele>854</ele>
        <time>2021-08-02T11:58:05.035Z</time>
      </trkpt>
      <trkpt lat="47.02358" lon="8.94568">
        <ele>855</ele>
        <time>2021-08-02T11:58:06.035Z</time>
      </trkpt>
      <trkpt lat="47.02358" lon="8.94569">
        <ele>855</ele>
        <time>2021-08-02T11:58:07.035Z</time>
      </trkpt>
      <trkpt lat="47.02357" lon="8.94571">
        <ele>855</ele>
        <time>2021-08-02T11:58:08.035Z</time>
      </trkpt>
      <trkpt lat="47.02356" lon="8.94573">
        <ele>855</ele>
        <time>2021-08-02T11:58:09.035Z</time>
      </trkpt>
      <trkpt lat="47.02355" lon="8.94574">
        <ele>855</ele>
        <time>2021-08-02T11:58:10.034Z</time>
      </trkpt>
      <trkpt lat="47.02355" lon="8.94575">
        <ele>855</ele>
        <time>2021-08-02T11:58:11.035Z</time>
      </trkpt>
      <trkpt lat="47.02354" lon="8.94577">
        <ele>855</ele>
        <time>2021-08-02T11:58:12.035Z</time>
      </trkpt>
      <trkpt lat="47.02353" lon="8.9458">
        <ele>855</ele>
        <time>2021-08-02T11:58:13.035Z</time>
      </trkpt>
      <trkpt lat="47.02353" lon="8.94583">
        <ele>855</ele>
        <time>2021-08-02T11:58:14.035Z</time>
      </trkpt>
      <trkpt lat="47.02352" lon="8.94585">
        <ele>855</ele>
        <time>2021-08-02T11:58:15.035Z</time>
      </trkpt>
      <trkpt lat="47.02352" lon="8.94586">
        <ele>855</ele>
        <time>2021-08-02T11:58:27.145Z</time>
      </trkpt>
      <trkpt lat="47.02352" lon="8.94587">
        <ele>854</ele>
        <time>2021-08-02T11:58:28.145Z</time>
      </trkpt>
      <trkpt lat="47.02352" lon="8.94588">
        <ele>854</ele>
        <time>2021-08-02T11:58:29.145Z</time>
      </trkpt>
      <trkpt lat="47.02352" lon="8.94589">
        <ele>853</ele>
        <time>2021-08-02T11:58:30.144Z</time>
      </trkpt>
      <trkpt lat="47.02352" lon="8.94589">
        <ele>852</ele>
        <time>2021-08-02T11:58:31.145Z</time>
      </trkpt>
      <trkpt lat="47.02352" lon="8.9459">
        <ele>852</ele>
        <time>2021-08-02T11:58:32.145Z</time>
      </trkpt>
      <trkpt lat="47.02352" lon="8.94591">
        <ele>852</ele>
        <time>2021-08-02T11:58:33.145Z</time>
      </trkpt>
      <trkpt lat="47.02351" lon="8.94591">
        <ele>852</ele>
        <time>2021-08-02T11:58:34.145Z</time>
      </trkpt>
      <trkpt lat="47.02351" lon="8.94592">
        <ele>852</ele>
        <time>2021-08-02T11:58:35.145Z</time>
      </trkpt>
      <trkpt lat="47.0235" lon="8.94592">
        <ele>852</ele>
        <time>2021-08-02T11:58:36.145Z</time>
      </trkpt>
      <trkpt lat="47.02349" lon="8.94593">
        <ele>852</ele>
        <time>2021-08-02T11:58:37.144Z</time>
      </trkpt>
      <trkpt lat="47.02348" lon="8.94594">
        <ele>852</ele>
        <time>2021-08-02T11:58:38.144Z</time>
      </trkpt>
      <trkpt lat="47.02347" lon="8.94595">
        <ele>852</ele>
        <time>2021-08-02T11:58:39.144Z</time>
      </trkpt>
      <trkpt lat="47.02347" lon="8.94596">
        <ele>852</ele>
        <time>2021-08-02T11:58:40.144Z</time>
      </trkpt>
      <trkpt lat="47.02346" lon="8.94597">
        <ele>851</ele>
        <time>2021-08-02T11:58:41.144Z</time>
      </trkpt>
      <trkpt lat="47.02346" lon="8.94598">
        <ele>850</ele>
        <time>2021-08-02T11:58:42.144Z</time>
      </trkpt>
      <trkpt lat="47.02345" lon="8.94599">
        <ele>850</ele>
        <time>2021-08-02T11:58:43.144Z</time>
      </trkpt>
      <trkpt lat="47.02345" lon="8.946">
        <ele>849</ele>
        <time>2021-08-02T11:58:44.144Z</time>
      </trkpt>
      <trkpt lat="47.02344" lon="8.94601">
        <ele>849</ele>
        <time>2021-08-02T11:58:45.144Z</time>
      </trkpt>
      <trkpt lat="47.02344" lon="8.94602">
        <ele>849</ele>
        <time>2021-08-02T11:58:46.145Z</time>
      </trkpt>
      <trkpt lat="47.02344" lon="8.94603">
        <ele>849</ele>
        <time>2021-08-02T11:58:47.145Z</time>
      </trkpt>
      <trkpt lat="47.02344" lon="8.94604">
        <ele>849</ele>
        <time>2021-08-02T11:58:48.145Z</time>
      </trkpt>
      <trkpt lat="47.02345" lon="8.94604">
        <ele>848</ele>
        <time>2021-08-02T11:58:49.145Z</time>
      </trkpt>
      <trkpt lat="47.02346" lon="8.94605">
        <ele>848</ele>
        <time>2021-08-02T11:58:50.144Z</time>
      </trkpt>
      <trkpt lat="47.02349" lon="8.94602">
        <ele>850</ele>
        <time>2021-08-02T11:58:51.145Z</time>
      </trkpt>
      <trkpt lat="47.0235" lon="8.94601">
        <ele>851</ele>
        <time>2021-08-02T11:58:52.145Z</time>
      </trkpt>
      <trkpt lat="47.0235" lon="8.946">
        <ele>851</ele>
        <time>2021-08-02T11:58:53.144Z</time>
      </trkpt>
      <trkpt lat="47.0235" lon="8.94599">
        <ele>851</ele>
        <time>2021-08-02T11:58:54.144Z</time>
      </trkpt>
      <trkpt lat="47.02351" lon="8.94599">
        <ele>851</ele>
        <time>2021-08-02T11:58:55.145Z</time>
      </trkpt>
      <trkpt lat="47.02351" lon="8.94598">
        <ele>850</ele>
        <time>2021-08-02T11:58:56.145Z</time>
      </trkpt>
      <trkpt lat="47.02351" lon="8.94598">
        <ele>850</ele>
        <time>2021-08-02T11:58:57.145Z</time>
      </trkpt>
      <trkpt lat="47.02349" lon="8.94597">
        <ele>847</ele>
        <time>2021-08-02T11:58:58.145Z</time>
      </trkpt>
      <trkpt lat="47.02349" lon="8.94598">
        <ele>848</ele>
        <time>2021-08-02T11:58:59.145Z</time>
      </trkpt>
      <trkpt lat="47.02349" lon="8.94598">
        <ele>848</ele>
        <time>2021-08-02T11:59:00.145Z</time>
      </trkpt>
      <trkpt lat="47.02349" lon="8.94599">
        <ele>848</ele>
        <time>2021-08-02T11:59:01.144Z</time>
      </trkpt>
      <trkpt lat="47.02348" lon="8.946">
        <ele>848</ele>
        <time>2021-08-02T11:59:02.145Z</time>
      </trkpt>
      <trkpt lat="47.02347" lon="8.94603">
        <ele>849</ele>
        <time>2021-08-02T11:59:03.145Z</time>
      </trkpt>
      <trkpt lat="47.02348" lon="8.94602">
        <ele>850</ele>
        <time>2021-08-02T11:59:04.144Z</time>
      </trkpt>
      <trkpt lat="47.0235" lon="8.946">
        <ele>853</ele>
        <time>2021-08-02T11:59:05.144Z</time>
      </trkpt>
      <trkpt lat="47.02351" lon="8.94599">
        <ele>854</ele>
        <time>2021-08-02T11:59:06.145Z</time>
      </trkpt>
      <trkpt lat="47.02351" lon="8.94599">
        <ele>855</ele>
        <time>2021-08-02T11:59:07.144Z</time>
      </trkpt>
      <trkpt lat="47.02352" lon="8.94598">
        <ele>855</ele>
        <time>2021-08-02T11:59:08.144Z</time>
      </trkpt>
      <trkpt lat="47.02352" lon="8.94598">
        <ele>855</ele>
        <time>2021-08-02T11:59:09.145Z</time>
      </trkpt>
      <trkpt lat="47.02353" lon="8.94598">
        <ele>855</ele>
        <time>2021-08-02T11:59:10.145Z</time>
      </trkpt>
      <trkpt lat="47.02354" lon="8.94599">
        <ele>856</ele>
        <time>2021-08-02T11:59:11.145Z</time>
      </trkpt>
      <trkpt lat="47.02356" lon="8.94599">
        <ele>856</ele>
        <time>2021-08-02T11:59:12.144Z</time>
      </trkpt>
      <trkpt lat="47.02358" lon="8.94598">
        <ele>856</ele>
        <time>2021-08-02T11:59:13.144Z</time>
      </trkpt>
      <trkpt lat="47.0236" lon="8.94598">
        <ele>856</ele>
        <time>2021-08-02T11:59:14.145Z</time>
      </trkpt>
      <trkpt lat="47.02361" lon="8.94597">
        <ele>856</ele>
        <time>2021-08-02T11:59:15.145Z</time>
      </trkpt>
      <trkpt lat="47.02361" lon="8.94597">
        <ele>857</ele>
        <time>2021-08-02T11:59:16.145Z</time>
      </trkpt>
      <trkpt lat="47.02362" lon="8.94598">
        <ele>857</ele>
        <time>2021-08-02T11:59:17.145Z</time>
      </trkpt>
      <trkpt lat="47.02365" lon="8.94599">
        <ele>863</ele>
        <time>2021-08-02T11:59:18.146Z</time>
      </trkpt>
      <trkpt lat="47.02367" lon="8.94599">
        <ele>864</ele>
        <time>2021-08-02T11:59:19.146Z</time>
      </trkpt>
      <trkpt lat="47.02367" lon="8.946">
        <ele>865</ele>
        <time>2021-08-02T11:59:20.146Z</time>
      </trkpt>
      <trkpt lat="47.02367" lon="8.946">
        <ele>865</ele>
        <time>2021-08-02T11:59:21.146Z</time>
      </trkpt>
      <trkpt lat="47.02367" lon="8.94601">
        <ele>866</ele>
        <time>2021-08-02T11:59:22.146Z</time>
      </trkpt>
      <trkpt lat="47.02367" lon="8.94602">
        <ele>867</ele>
        <time>2021-08-02T11:59:23.146Z</time>
      </trkpt>
      <trkpt lat="47.02366" lon="8.94602">
        <ele>867</ele>
        <time>2021-08-02T11:59:24.145Z</time>
      </trkpt>
      <trkpt lat="47.02366" lon="8.94603">
        <ele>866</ele>
        <time>2021-08-02T11:59:25.146Z</time>
      </trkpt>
      <trkpt lat="47.02366" lon="8.94604">
        <ele>864</ele>
        <time>2021-08-02T11:59:26.147Z</time>
      </trkpt>
      <trkpt lat="47.02365" lon="8.94604">
        <ele>863</ele>
        <time>2021-08-02T11:59:27.147Z</time>
      </trkpt>
      <trkpt lat="47.02361" lon="8.94605">
        <ele>855</ele>
        <time>2021-08-02T11:59:28.147Z</time>
      </trkpt>
      <trkpt lat="47.0236" lon="8.94603">
        <ele>854</ele>
        <time>2021-08-02T11:59:29.147Z</time>
      </trkpt>
      <trkpt lat="47.0236" lon="8.94601">
        <ele>854</ele>
        <time>2021-08-02T11:59:30.147Z</time>
      </trkpt>
      <trkpt lat="47.02362" lon="8.94598">
        <ele>854</ele>
        <time>2021-08-02T11:59:31.147Z</time>
      </trkpt>
      <trkpt lat="47.02362" lon="8.94596">
        <ele>853</ele>
        <time>2021-08-02T11:59:32.147Z</time>
      </trkpt>
      <trkpt lat="47.02362" lon="8.94594">
        <ele>853</ele>
        <time>2021-08-02T11:59:33.147Z</time>
      </trkpt>
      <trkpt lat="47.02362" lon="8.94593">
        <ele>852</ele>
        <time>2021-08-02T11:59:34.147Z</time>
      </trkpt>
      <trkpt lat="47.02362" lon="8.94592">
        <ele>852</ele>
        <time>2021-08-02T11:59:35.147Z</time>
      </trkpt>
      <trkpt lat="47.02363" lon="8.9459">
        <ele>851</ele>
        <time>2021-08-02T11:59:36.147Z</time>
      </trkpt>
      <trkpt lat="47.02363" lon="8.94589">
        <ele>851</ele>
        <time>2021-08-02T11:59:37.146Z</time>
      </trkpt>
      <trkpt lat="47.02362" lon="8.9459">
        <ele>851</ele>
        <time>2021-08-02T11:59:38.147Z</time>
      </trkpt>
      <trkpt lat="47.02361" lon="8.9459">
        <ele>850</ele>
        <time>2021-08-02T11:59:39.147Z</time>
      </trkpt>
      <trkpt lat="47.0236" lon="8.94591">
        <ele>850</ele>
        <time>2021-08-02T11:59:40.147Z</time>
      </trkpt>
      <trkpt lat="47.0236" lon="8.9459">
        <ele>850</ele>
        <time>2021-08-02T11:59:41.147Z</time>
      </trkpt>
      <trkpt lat="47.02359" lon="8.94591">
        <ele>849</ele>
        <time>2021-08-02T11:59:42.147Z</time>
      </trkpt>
      <trkpt lat="47.02358" lon="8.94591">
        <ele>849</ele>
        <time>2021-08-02T11:59:43.147Z</time>
      </trkpt>
      <trkpt lat="47.02358" lon="8.94591">
        <ele>849</ele>
        <time>2021-08-02T11:59:44.146Z</time>
      </trkpt>
      <trkpt lat="47.02357" lon="8.94591">
        <ele>848</ele>
        <time>2021-08-02T11:59:45.146Z</time>
      </trkpt>
      <trkpt lat="47.02356" lon="8.94592">
        <ele>848</ele>
        <time>2021-08-02T11:59:46.147Z</time>
      </trkpt>
      <trkpt lat="47.02356" lon="8.94592">
        <ele>848</ele>
        <time>2021-08-02T11:59:47.147Z</time>
      </trkpt>
      <trkpt lat="47.02357" lon="8.94592">
        <ele>847</ele>
        <time>2021-08-02T11:59:48.147Z</time>
      </trkpt>
      <trkpt lat="47.02358" lon="8.94592">
        <ele>848</ele>
        <time>2021-08-02T11:59:49.146Z</time>
      </trkpt>
      <trkpt lat="47.02357" lon="8.94592">
        <ele>849</ele>
        <time>2021-08-02T11:59:50.148Z</time>
      </trkpt>
      <trkpt lat="47.02358" lon="8.94592">
        <ele>850</ele>
        <time>2021-08-02T11:59:51.147Z</time>
      </trkpt>
      <trkpt lat="47.02357" lon="8.94592">
        <ele>851</ele>
        <time>2021-08-02T11:59:52.148Z</time>
      </trkpt>
      <trkpt lat="47.02357" lon="8.94592">
        <ele>852</ele>
        <time>2021-08-02T11:59:53.148Z</time>
      </trkpt>
      <trkpt lat="47.02356" lon="8.94592">
        <ele>852</ele>
        <time>2021-08-02T11:59:54.147Z</time>
      </trkpt>
      <trkpt lat="47.02355" lon="8.94592">
        <ele>853</ele>
        <time>2021-08-02T11:59:55.148Z</time>
      </trkpt>
      <trkpt lat="47.02355" lon="8.94592">
        <ele>853</ele>
        <time>2021-08-02T11:59:56.148Z</time>
      </trkpt>
      <trkpt lat="47.02354" lon="8.94592">
        <ele>853</ele>
        <time>2021-08-02T11:59:57.148Z</time>
      </trkpt>
      <trkpt lat="47.02354" lon="8.94593">
        <ele>853</ele>
        <time>2021-08-02T11:59:58.148Z</time>
      </trkpt>
      <trkpt lat="47.02354" lon="8.94593">
        <ele>853</ele>
        <time>2021-08-02T11:59:59.148Z</time>
      </trkpt>
      <trkpt lat="47.02354" lon="8.94592">
        <ele>853</ele>
        <time>2021-08-02T12:00:00.148Z</time>
      </trkpt>
      <trkpt lat="47.02354" lon="8.94592">
        <ele>853</ele>
        <time>2021-08-02T12:00:01.148Z</time>
      </trkpt>
      <trkpt lat="47.02354" lon="8.94591">
        <ele>853</ele>
        <time>2021-08-02T12:00:02.148Z</time>
      </trkpt>
      <trkpt lat="47.02356" lon="8.94588">
        <ele>847</ele>
        <time>2021-08-02T12:00:03.149Z</time>
      </trkpt>
      <trkpt lat="47.02356" lon="8.94588">
        <ele>848</ele>
        <time>2021-08-02T12:00:04.148Z</time>
      </trkpt>
      <trkpt lat="47.02356" lon="8.94588">
        <ele>850</ele>
        <time>2021-08-02T12:00:05.149Z</time>
      </trkpt>
      <trkpt lat="47.02356" lon="8.94588">
        <ele>850</ele>
        <time>2021-08-02T12:00:06.149Z</time>
      </trkpt>
      <trkpt lat="47.02356" lon="8.94588">
        <ele>851</ele>
        <time>2021-08-02T12:00:07.148Z</time>
      </trkpt>
      <trkpt lat="47.02356" lon="8.94588">
        <ele>852</ele>
        <time>2021-08-02T12:00:08.149Z</time>
      </trkpt>
      <trkpt lat="47.02356" lon="8.94588">
        <ele>853</ele>
        <time>2021-08-02T12:00:09.148Z</time>
      </trkpt>
      <trkpt lat="47.02356" lon="8.94588">
        <ele>853</ele>
        <time>2021-08-02T12:00:10.148Z</time>
      </trkpt>
      <trkpt lat="47.02357" lon="8.94588">
        <ele>854</ele>
        <time>2021-08-02T12:00:11.149Z</time>
      </trkpt>
      <trkpt lat="47.02357" lon="8.94587">
        <ele>854</ele>
        <time>2021-08-02T12:00:12.149Z</time>
      </trkpt>
      <trkpt lat="47.02348" lon="8.94596">
        <ele>843</ele>
        <time>2021-08-02T12:00:13.149Z</time>
      </trkpt>
      <trkpt lat="47.02345" lon="8.94598">
        <ele>844</ele>
        <time>2021-08-02T12:00:14.151Z</time>
      </trkpt>
      <trkpt lat="47.02343" lon="8.94599">
        <ele>844</ele>
        <time>2021-08-02T12:00:15.151Z</time>
      </trkpt>
      <trkpt lat="47.02342" lon="8.94599">
        <ele>845</ele>
        <time>2021-08-02T12:00:16.150Z</time>
      </trkpt>
      <trkpt lat="47.02341" lon="8.946">
        <ele>845</ele>
        <time>2021-08-02T12:00:17.151Z</time>
      </trkpt>
      <trkpt lat="47.02341" lon="8.946">
        <ele>846</ele>
        <time>2021-08-02T12:00:18.151Z</time>
      </trkpt>
      <trkpt lat="47.02341" lon="8.94601">
        <ele>846</ele>
        <time>2021-08-02T12:00:19.150Z</time>
      </trkpt>
      <trkpt lat="47.02343" lon="8.946">
        <ele>846</ele>
        <time>2021-08-02T12:00:20.151Z</time>
      </trkpt>
      <trkpt lat="47.02342" lon="8.94601">
        <ele>847</ele>
        <time>2021-08-02T12:00:21.152Z</time>
      </trkpt>
      <trkpt lat="47.02341" lon="8.94601">
        <ele>847</ele>
        <time>2021-08-02T12:00:22.152Z</time>
      </trkpt>
      <trkpt lat="47.02341" lon="8.94601">
        <ele>848</ele>
        <time>2021-08-02T12:00:23.151Z</time>
      </trkpt>
      <trkpt lat="47.02341" lon="8.94601">
        <ele>848</ele>
        <time>2021-08-02T12:00:24.152Z</time>
      </trkpt>
      <trkpt lat="47.02341" lon="8.94601">
        <ele>848</ele>
        <time>2021-08-02T12:00:25.152Z</time>
      </trkpt>
      <trkpt lat="47.02342" lon="8.94601">
        <ele>848</ele>
        <time>2021-08-02T12:00:26.152Z</time>
      </trkpt>
      <trkpt lat="47.02343" lon="8.94601">
        <ele>847</ele>
        <time>2021-08-02T12:00:27.152Z</time>
      </trkpt>
      <trkpt lat="47.02343" lon="8.946">
        <ele>847</ele>
        <time>2021-08-02T12:00:28.151Z</time>
      </trkpt>
      <trkpt lat="47.02343" lon="8.946">
        <ele>846</ele>
        <time>2021-08-02T12:00:29.151Z</time>
      </trkpt>
      <trkpt lat="47.02343" lon="8.94599">
        <ele>846</ele>
        <time>2021-08-02T12:00:30.152Z</time>
      </trkpt>
      <trkpt lat="47.02344" lon="8.94599">
        <ele>846</ele>
        <time>2021-08-02T12:00:31.152Z</time>
      </trkpt>
      <trkpt lat="47.02344" lon="8.94598">
        <ele>845</ele>
        <time>2021-08-02T12:00:32.151Z</time>
      </trkpt>
      <trkpt lat="47.02344" lon="8.94599">
        <ele>845</ele>
        <time>2021-08-02T12:00:33.152Z</time>
      </trkpt>
      <trkpt lat="47.02343" lon="8.94599">
        <ele>845</ele>
        <time>2021-08-02T12:00:34.152Z</time>
      </trkpt>
      <trkpt lat="47.02344" lon="8.94598">
        <ele>841</ele>
        <time>2021-08-02T12:00:35.151Z</time>
      </trkpt>
      <trkpt lat="47.02345" lon="8.94598">
        <ele>841</ele>
        <time>2021-08-02T12:00:36.151Z</time>
      </trkpt>
      <trkpt lat="47.02345" lon="8.94598">
        <ele>840</ele>
        <time>2021-08-02T12:00:37.151Z</time>
      </trkpt>
      <trkpt lat="47.02345" lon="8.94598">
        <ele>840</ele>
        <time>2021-08-02T12:00:38.152Z</time>
      </trkpt>
      <trkpt lat="47.02346" lon="8.94598">
        <ele>840</ele>
        <time>2021-08-02T12:00:39.151Z</time>
      </trkpt>
      <trkpt lat="47.02347" lon="8.94597">
        <ele>841</ele>
        <time>2021-08-02T12:00:40.151Z</time>
      </trkpt>
      <trkpt lat="47.02347" lon="8.94597">
        <ele>841</ele>
        <time>2021-08-02T12:00:41.151Z</time>
      </trkpt>
      <trkpt lat="47.02348" lon="8.94597">
        <ele>842</ele>
        <time>2021-08-02T12:00:42.151Z</time>
      </trkpt>
      <trkpt lat="47.02348" lon="8.94597">
        <ele>842</ele>
        <time>2021-08-02T12:00:43.151Z</time>
      </trkpt>
      <trkpt lat="47.02348" lon="8.94596">
        <ele>843</ele>
        <time>2021-08-02T12:00:44.151Z</time>
      </trkpt>
      <trkpt lat="47.02348" lon="8.94596">
        <ele>843</ele>
        <time>2021-08-02T12:00:45.151Z</time>
      </trkpt>
      <trkpt lat="47.02349" lon="8.94596">
        <ele>844</ele>
        <time>2021-08-02T12:00:46.151Z</time>
      </trkpt>
      <trkpt lat="47.02352" lon="8.94596">
        <ele>849</ele>
        <time>2021-08-02T12:00:47.151Z</time>
      </trkpt>
      <trkpt lat="47.02353" lon="8.94595">
        <ele>850</ele>
        <time>2021-08-02T12:00:48.152Z</time>
      </trkpt>
      <trkpt lat="47.02353" lon="8.94594">
        <ele>852</ele>
        <time>2021-08-02T12:00:49.151Z</time>
      </trkpt>
      <trkpt lat="47.02353" lon="8.94594">
        <ele>852</ele>
        <time>2021-08-02T12:00:50.152Z</time>
      </trkpt>
      <trkpt lat="47.02354" lon="8.94594">
        <ele>853</ele>
        <time>2021-08-02T12:00:51.152Z</time>
      </trkpt>
      <trkpt lat="47.02354" lon="8.94593">
        <ele>854</ele>
        <time>2021-08-02T12:00:52.151Z</time>
      </trkpt>
      <trkpt lat="47.02355" lon="8.94593">
        <ele>855</ele>
        <time>2021-08-02T12:00:53.152Z</time>
      </trkpt>
      <trkpt lat="47.02357" lon="8.94591">
        <ele>855</ele>
        <time>2021-08-02T12:00:54.151Z</time>
      </trkpt>
      <trkpt lat="47.02358" lon="8.9459">
        <ele>856</ele>
        <time>2021-08-02T12:00:55.151Z</time>
      </trkpt>
      <trkpt lat="47.02358" lon="8.9459">
        <ele>855</ele>
        <time>2021-08-02T12:00:56.152Z</time>
      </trkpt>
      <trkpt lat="47.02358" lon="8.94589">
        <ele>855</ele>
        <time>2021-08-02T12:00:57.152Z</time>
      </trkpt>
      <trkpt lat="47.02358" lon="8.94589">
        <ele>854</ele>
        <time>2021-08-02T12:00:58.152Z</time>
      </trkpt>
      <trkpt lat="47.02358" lon="8.94585">
        <ele>846</ele>
        <time>2021-08-02T12:00:59.152Z</time>
      </trkpt>
      <trkpt lat="47.02359" lon="8.94586">
        <ele>845</ele>
        <time>2021-08-02T12:01:00.152Z</time>
      </trkpt>
      <trkpt lat="47.02358" lon="8.94587">
        <ele>847</ele>
        <time>2021-08-02T12:01:01.152Z</time>
      </trkpt>
      <trkpt lat="47.02357" lon="8.94587">
        <ele>848</ele>
        <time>2021-08-02T12:01:02.153Z</time>
      </trkpt>
      <trkpt lat="47.02361" lon="8.94588">
        <ele>855</ele>
        <time>2021-08-02T12:01:03.153Z</time>
      </trkpt>
      <trkpt lat="47.02361" lon="8.94588">
        <ele>856</ele>
        <time>2021-08-02T12:01:04.153Z</time>
      </trkpt>
      <trkpt lat="47.02362" lon="8.94589">
        <ele>857</ele>
        <time>2021-08-02T12:01:05.152Z</time>
      </trkpt>
      <trkpt lat="47.0236" lon="8.94584">
        <ele>850</ele>
        <time>2021-08-02T12:01:06.153Z</time>
      </trkpt>
      <trkpt lat="47.0236" lon="8.94584">
        <ele>850</ele>
        <time>2021-08-02T12:01:07.153Z</time>
      </trkpt>
      <trkpt lat="47.02359" lon="8.94584">
        <ele>849</ele>
        <time>2021-08-02T12:01:08.154Z</time>
      </trkpt>
      <trkpt lat="47.02359" lon="8.94585">
        <ele>848</ele>
        <time>2021-08-02T12:01:09.155Z</time>
      </trkpt>
      <trkpt lat="47.02358" lon="8.94586">
        <ele>847</ele>
        <time>2021-08-02T12:01:10.155Z</time>
      </trkpt>
      <trkpt lat="47.02358" lon="8.94586">
        <ele>847</ele>
        <time>2021-08-02T12:01:11.155Z</time>
      </trkpt>
      <trkpt lat="47.02358" lon="8.94586">
        <ele>847</ele>
        <time>2021-08-02T12:01:12.155Z</time>
      </trkpt>
      <trkpt lat="47.02358" lon="8.94586">
        <ele>847</ele>
        <time>2021-08-02T12:01:13.155Z</time>
      </trkpt>
      <trkpt lat="47.02358" lon="8.94586">
        <ele>847</ele>
        <time>2021-08-02T12:01:14.154Z</time>
      </trkpt>
      <trkpt lat="47.02361" lon="8.94584">
        <ele>849</ele>
        <time>2021-08-02T12:01:15.156Z</time>
      </trkpt>
      <trkpt lat="47.0236" lon="8.94586">
        <ele>852</ele>
        <time>2021-08-02T12:01:16.158Z</time>
      </trkpt>
      <trkpt lat="47.02359" lon="8.94586">
        <ele>853</ele>
        <time>2021-08-02T12:01:17.158Z</time>
      </trkpt>
      <trkpt lat="47.02359" lon="8.94586">
        <ele>854</ele>
        <time>2021-08-02T12:01:18.157Z</time>
      </trkpt>
      <trkpt lat="47.02359" lon="8.94586">
        <ele>854</ele>
        <time>2021-08-02T12:01:19.158Z</time>
      </trkpt>
      <trkpt lat="47.02358" lon="8.94585">
        <ele>855</ele>
        <time>2021-08-02T12:01:20.158Z</time>
      </trkpt>
      <trkpt lat="47.02358" lon="8.94586">
        <ele>856</ele>
        <time>2021-08-02T12:01:21.158Z</time>
      </trkpt>
      <trkpt lat="47.02358" lon="8.94586">
        <ele>856</ele>
        <time>2021-08-02T12:01:22.158Z</time>
      </trkpt>
      <trkpt lat="47.02358" lon="8.94586">
        <ele>857</ele>
        <time>2021-08-02T12:01:23.159Z</time>
      </trkpt>
      <trkpt lat="47.02359" lon="8.94585">
        <ele>857</ele>
        <time>2021-08-02T12:01:24.158Z</time>
      </trkpt>
      <trkpt lat="47.02361" lon="8.94586">
        <ele>854</ele>
        <time>2021-08-02T12:01:25.159Z</time>
      </trkpt>
      <trkpt lat="47.0236" lon="8.94585">
        <ele>853</ele>
        <time>2021-08-02T12:01:26.160Z</time>
      </trkpt>
      <trkpt lat="47.0236" lon="8.94584">
        <ele>853</ele>
        <time>2021-08-02T12:01:27.159Z</time>
      </trkpt>
      <trkpt lat="47.0236" lon="8.94583">
        <ele>853</ele>
        <time>2021-08-02T12:01:28.160Z</time>
      </trkpt>
      <trkpt lat="47.02359" lon="8.94582">
        <ele>853</ele>
        <time>2021-08-02T12:01:29.159Z</time>
      </trkpt>
      <trkpt lat="47.02359" lon="8.94582">
        <ele>853</ele>
        <time>2021-08-02T12:01:30.160Z</time>
      </trkpt>
      <trkpt lat="47.02358" lon="8.94582">
        <ele>853</ele>
        <time>2021-08-02T12:01:31.160Z</time>
      </trkpt>
      <trkpt lat="47.02358" lon="8.94583">
        <ele>853</ele>
        <time>2021-08-02T12:01:32.159Z</time>
      </trkpt>
      <trkpt lat="47.02358" lon="8.94583">
        <ele>853</ele>
        <time>2021-08-02T12:01:33.160Z</time>
      </trkpt>
      <trkpt lat="47.02359" lon="8.94583">
        <ele>853</ele>
        <time>2021-08-02T12:01:34.160Z</time>
      </trkpt>
      <trkpt lat="47.0236" lon="8.94582">
        <ele>852</ele>
        <time>2021-08-02T12:01:35.159Z</time>
      </trkpt>
      <trkpt lat="47.02359" lon="8.94583">
        <ele>852</ele>
        <time>2021-08-02T12:01:36.160Z</time>
      </trkpt>
      <trkpt lat="47.02359" lon="8.94583">
        <ele>852</ele>
        <time>2021-08-02T12:01:37.160Z</time>
      </trkpt>
      <trkpt lat="47.02358" lon="8.94583">
        <ele>851</ele>
        <time>2021-08-02T12:01:38.159Z</time>
      </trkpt>
      <trkpt lat="47.02358" lon="8.94583">
        <ele>851</ele>
        <time>2021-08-02T12:01:39.159Z</time>
      </trkpt>
      <trkpt lat="47.02359" lon="8.94582">
        <ele>851</ele>
        <time>2021-08-02T12:01:40.159Z</time>
      </trkpt>
      <trkpt lat="47.02359" lon="8.94582">
        <ele>850</ele>
        <time>2021-08-02T12:01:41.159Z</time>
      </trkpt>
      <trkpt lat="47.0236" lon="8.94582">
        <ele>850</ele>
        <time>2021-08-02T12:01:42.159Z</time>
      </trkpt>
      <trkpt lat="47.0236" lon="8.94582">
        <ele>850</ele>
        <time>2021-08-02T12:01:43.159Z</time>
      </trkpt>
      <trkpt lat="47.0236" lon="8.94582">
        <ele>850</ele>
        <time>2021-08-02T12:01:44.160Z</time>
      </trkpt>
      <trkpt lat="47.0236" lon="8.94582">
        <ele>850</ele>
        <time>2021-08-02T12:01:45.161Z</time>
      </trkpt>
      <trkpt lat="47.0236" lon="8.94582">
        <ele>850</ele>
        <time>2021-08-02T12:01:46.160Z</time>
      </trkpt>
      <trkpt lat="47.02359" lon="8.94583">
        <ele>848</ele>
        <time>2021-08-02T12:01:47.161Z</time>
      </trkpt>
      <trkpt lat="47.02358" lon="8.94583">
        <ele>847</ele>
        <time>2021-08-02T12:01:48.160Z</time>
      </trkpt>
      <trkpt lat="47.02358" lon="8.94583">
        <ele>847</ele>
        <time>2021-08-02T12:01:49.160Z</time>
      </trkpt>
      <trkpt lat="47.0236" lon="8.94584">
        <ele>849</ele>
        <time>2021-08-02T12:01:50.161Z</time>
      </trkpt>
      <trkpt lat="47.0236" lon="8.94584">
        <ele>849</ele>
        <time>2021-08-02T12:01:51.160Z</time>
      </trkpt>
      <trkpt lat="47.02361" lon="8.94585">
        <ele>849</ele>
        <time>2021-08-02T12:01:52.161Z</time>
      </trkpt>
      <trkpt lat="47.02362" lon="8.94584">
        <ele>849</ele>
        <time>2021-08-02T12:01:53.161Z</time>
      </trkpt>
      <trkpt lat="47.02364" lon="8.94583">
        <ele>849</ele>
        <time>2021-08-02T12:01:54.161Z</time>
      </trkpt>
      <trkpt lat="47.02366" lon="8.94582">
        <ele>849</ele>
        <time>2021-08-02T12:01:55.160Z</time>
      </trkpt>
      <trkpt lat="47.02366" lon="8.94582">
        <ele>849</ele>
        <time>2021-08-02T12:01:56.160Z</time>
      </trkpt>
      <trkpt lat="47.02366" lon="8.94581">
        <ele>849</ele>
        <time>2021-08-02T12:01:57.161Z</time>
      </trkpt>
      <trkpt lat="47.02365" lon="8.94581">
        <ele>849</ele>
        <time>2021-08-02T12:01:58.160Z</time>
      </trkpt>
      <trkpt lat="47.02365" lon="8.94581">
        <ele>849</ele>
        <time>2021-08-02T12:01:59.161Z</time>
      </trkpt>
      <trkpt lat="47.02365" lon="8.94582">
        <ele>849</ele>
        <time>2021-08-02T12:02:00.161Z</time>
      </trkpt>
      <trkpt lat="47.02359" lon="8.94584">
        <ele>847</ele>
        <time>2021-08-02T12:02:01.161Z</time>
      </trkpt>
      <trkpt lat="47.02359" lon="8.94583">
        <ele>846</ele>
        <time>2021-08-02T12:02:02.161Z</time>
      </trkpt>
      <trkpt lat="47.02359" lon="8.94583">
        <ele>846</ele>
        <time>2021-08-02T12:02:03.160Z</time>
      </trkpt>
      <trkpt lat="47.02358" lon="8.94583">
        <ele>846</ele>
        <time>2021-08-02T12:02:04.161Z</time>
      </trkpt>
      <trkpt lat="47.02358" lon="8.94583">
        <ele>846</ele>
        <time>2021-08-02T12:02:05.161Z</time>
      </trkpt>
      <trkpt lat="47.02358" lon="8.94582">
        <ele>846</ele>
        <time>2021-08-02T12:02:06.161Z</time>
      </trkpt>
      <trkpt lat="47.02358" lon="8.94584">
        <ele>842</ele>
        <time>2021-08-02T12:02:07.161Z</time>
      </trkpt>
      <trkpt lat="47.02357" lon="8.94584">
        <ele>841</ele>
        <time>2021-08-02T12:02:08.161Z</time>
      </trkpt>
      <trkpt lat="47.02357" lon="8.94583">
        <ele>841</ele>
        <time>2021-08-02T12:02:09.160Z</time>
      </trkpt>
      <trkpt lat="47.02357" lon="8.94578">
        <ele>838</ele>
        <time>2021-08-02T12:02:10.161Z</time>
      </trkpt>
      <trkpt lat="47.02357" lon="8.94578">
        <ele>839</ele>
        <time>2021-08-02T12:02:11.161Z</time>
      </trkpt>
      <trkpt lat="47.02356" lon="8.94586">
        <ele>846</ele>
        <time>2021-08-02T12:02:12.161Z</time>
      </trkpt>
      <trkpt lat="47.02356" lon="8.94586">
        <ele>846</ele>
        <time>2021-08-02T12:02:13.161Z</time>
      </trkpt>
      <trkpt lat="47.02356" lon="8.94585">
        <ele>847</ele>
        <time>2021-08-02T12:02:14.160Z</time>
      </trkpt>
      <trkpt lat="47.02355" lon="8.94587">
        <ele>849</ele>
        <time>2021-08-02T12:02:15.161Z</time>
      </trkpt>
      <trkpt lat="47.02355" lon="8.94587">
        <ele>849</ele>
        <time>2021-08-02T12:02:16.160Z</time>
      </trkpt>
      <trkpt lat="47.02356" lon="8.94587">
        <ele>850</ele>
        <time>2021-08-02T12:02:17.160Z</time>
      </trkpt>
      <trkpt lat="47.02354" lon="8.94586">
        <ele>852</ele>
        <time>2021-08-02T12:02:18.161Z</time>
      </trkpt>
      <trkpt lat="47.02355" lon="8.94586">
        <ele>852</ele>
        <time>2021-08-02T12:02:19.160Z</time>
      </trkpt>
      <trkpt lat="47.02355" lon="8.94585">
        <ele>852</ele>
        <time>2021-08-02T12:02:20.161Z</time>
      </trkpt>
      <trkpt lat="47.02355" lon="8.94585">
        <ele>852</ele>
        <time>2021-08-02T12:02:21.161Z</time>
      </trkpt>
      <trkpt lat="47.02355" lon="8.94584">
        <ele>851</ele>
        <time>2021-08-02T12:02:22.162Z</time>
      </trkpt>
      <trkpt lat="47.02355" lon="8.94584">
        <ele>852</ele>
        <time>2021-08-02T12:02:23.161Z</time>
      </trkpt>
      <trkpt lat="47.02355" lon="8.94584">
        <ele>852</ele>
        <time>2021-08-02T12:02:24.161Z</time>
      </trkpt>
      <trkpt lat="47.02354" lon="8.94584">
        <ele>852</ele>
        <time>2021-08-02T12:02:25.161Z</time>
      </trkpt>
      <trkpt lat="47.02354" lon="8.94579">
        <ele>851</ele>
        <time>2021-08-02T12:02:26.161Z</time>
      </trkpt>
      <trkpt lat="47.02354" lon="8.9458">
        <ele>852</ele>
        <time>2021-08-02T12:02:27.162Z</time>
      </trkpt>
      <trkpt lat="47.02354" lon="8.94582">
        <ele>852</ele>
        <time>2021-08-02T12:02:28.161Z</time>
      </trkpt>
      <trkpt lat="47.02354" lon="8.94582">
        <ele>852</ele>
        <time>2021-08-02T12:02:29.162Z</time>
      </trkpt>
      <trkpt lat="47.02354" lon="8.94582">
        <ele>852</ele>
        <time>2021-08-02T12:02:30.162Z</time>
      </trkpt>
      <trkpt lat="47.02354" lon="8.94582">
        <ele>852</ele>
        <time>2021-08-02T12:02:31.161Z</time>
      </trkpt>
      <trkpt lat="47.02355" lon="8.94583">
        <ele>851</ele>
        <time>2021-08-02T12:02:32.162Z</time>
      </trkpt>
      <trkpt lat="47.02355" lon="8.94582">
        <ele>851</ele>
        <time>2021-08-02T12:02:33.161Z</time>
      </trkpt>
      <trkpt lat="47.02356" lon="8.94582">
        <ele>850</ele>
        <time>2021-08-02T12:02:34.162Z</time>
      </trkpt>
      <trkpt lat="47.02355" lon="8.9458">
        <ele>849</ele>
        <time>2021-08-02T12:02:35.162Z</time>
      </trkpt>
      <trkpt lat="47.02354" lon="8.94579">
        <ele>849</ele>
        <time>2021-08-02T12:02:36.162Z</time>
      </trkpt>
      <trkpt lat="47.02354" lon="8.94579">
        <ele>848</ele>
        <time>2021-08-02T12:02:37.161Z</time>
      </trkpt>
      <trkpt lat="47.02354" lon="8.94579">
        <ele>847</ele>
        <time>2021-08-02T12:02:38.162Z</time>
      </trkpt>
      <trkpt lat="47.02353" lon="8.94579">
        <ele>846</ele>
        <time>2021-08-02T12:02:39.162Z</time>
      </trkpt>
      <trkpt lat="47.02353" lon="8.9458">
        <ele>845</ele>
        <time>2021-08-02T12:02:40.162Z</time>
      </trkpt>
      <trkpt lat="47.02352" lon="8.9458">
        <ele>844</ele>
        <time>2021-08-02T12:02:41.162Z</time>
      </trkpt>
      <trkpt lat="47.02353" lon="8.9458">
        <ele>844</ele>
        <time>2021-08-02T12:02:42.162Z</time>
      </trkpt>
      <trkpt lat="47.02353" lon="8.9458">
        <ele>844</ele>
        <time>2021-08-02T12:02:43.162Z</time>
      </trkpt>
      <trkpt lat="47.02353" lon="8.94582">
        <ele>844</ele>
        <time>2021-08-02T12:02:44.162Z</time>
      </trkpt>
      <trkpt lat="47.02353" lon="8.94582">
        <ele>844</ele>
        <time>2021-08-02T12:02:45.161Z</time>
      </trkpt>
      <trkpt lat="47.02352" lon="8.94583">
        <ele>847</ele>
        <time>2021-08-02T12:02:46.162Z</time>
      </trkpt>
      <trkpt lat="47.02351" lon="8.94584">
        <ele>848</ele>
        <time>2021-08-02T12:02:47.162Z</time>
      </trkpt>
      <trkpt lat="47.02352" lon="8.94583">
        <ele>845</ele>
        <time>2021-08-02T12:02:48.163Z</time>
      </trkpt>
      <trkpt lat="47.02352" lon="8.94582">
        <ele>846</ele>
        <time>2021-08-02T12:02:49.162Z</time>
      </trkpt>
      <trkpt lat="47.02352" lon="8.94582">
        <ele>847</ele>
        <time>2021-08-02T12:02:50.163Z</time>
      </trkpt>
      <trkpt lat="47.02352" lon="8.94583">
        <ele>847</ele>
        <time>2021-08-02T12:02:51.164Z</time>
      </trkpt>
      <trkpt lat="47.02352" lon="8.94583">
        <ele>845</ele>
        <time>2021-08-02T12:02:52.164Z</time>
      </trkpt>
      <trkpt lat="47.02352" lon="8.94583">
        <ele>845</ele>
        <time>2021-08-02T12:02:53.165Z</time>
      </trkpt>
      <trkpt lat="47.02352" lon="8.94582">
        <ele>844</ele>
        <time>2021-08-02T12:02:54.164Z</time>
      </trkpt>
      <trkpt lat="47.02351" lon="8.94581">
        <ele>844</ele>
        <time>2021-08-02T12:02:55.165Z</time>
      </trkpt>
      <trkpt lat="47.0235" lon="8.94581">
        <ele>844</ele>
        <time>2021-08-02T12:02:56.165Z</time>
      </trkpt>
      <trkpt lat="47.0235" lon="8.94583">
        <ele>844</ele>
        <time>2021-08-02T12:02:57.164Z</time>
      </trkpt>
      <trkpt lat="47.0235" lon="8.94584">
        <ele>843</ele>
        <time>2021-08-02T12:02:58.164Z</time>
      </trkpt>
      <trkpt lat="47.02349" lon="8.94585">
        <ele>843</ele>
        <time>2021-08-02T12:02:59.164Z</time>
      </trkpt>
      <trkpt lat="47.02349" lon="8.94585">
        <ele>843</ele>
        <time>2021-08-02T12:03:00.164Z</time>
      </trkpt>
      <trkpt lat="47.02349" lon="8.94586">
        <ele>844</ele>
        <time>2021-08-02T12:03:01.165Z</time>
      </trkpt>
      <trkpt lat="47.02351" lon="8.94587">
        <ele>844</ele>
        <time>2021-08-02T12:03:02.164Z</time>
      </trkpt>
      <trkpt lat="47.02351" lon="8.94587">
        <ele>844</ele>
        <time>2021-08-02T12:03:03.165Z</time>
      </trkpt>
      <trkpt lat="47.02351" lon="8.94587">
        <ele>843</ele>
        <time>2021-08-02T12:03:04.164Z</time>
      </trkpt>
      <trkpt lat="47.0235" lon="8.94588">
        <ele>843</ele>
        <time>2021-08-02T12:03:05.165Z</time>
      </trkpt>
      <trkpt lat="47.02351" lon="8.94589">
        <ele>845</ele>
        <time>2021-08-02T12:03:06.165Z</time>
      </trkpt>
      <trkpt lat="47.0235" lon="8.94587">
        <ele>845</ele>
        <time>2021-08-02T12:03:07.165Z</time>
      </trkpt>
      <trkpt lat="47.0235" lon="8.94587">
        <ele>845</ele>
        <time>2021-08-02T12:03:08.164Z</time>
      </trkpt>
      <trkpt lat="47.0235" lon="8.94587">
        <ele>845</ele>
        <time>2021-08-02T12:03:09.165Z</time>
      </trkpt>
      <trkpt lat="47.0235" lon="8.94588">
        <ele>845</ele>
        <time>2021-08-02T12:03:10.165Z</time>
      </trkpt>
      <trkpt lat="47.02351" lon="8.94589">
        <ele>845</ele>
        <time>2021-08-02T12:03:11.164Z</time>
      </trkpt>
      <trkpt lat="47.02352" lon="8.94589">
        <ele>845</ele>
        <time>2021-08-02T12:03:12.164Z</time>
      </trkpt>
      <trkpt lat="47.02353" lon="8.94589">
        <ele>845</ele>
        <time>2021-08-02T12:03:13.165Z</time>
      </trkpt>
      <trkpt lat="47.02353" lon="8.94589">
        <ele>846</ele>
        <time>2021-08-02T12:03:14.165Z</time>
      </trkpt>
      <trkpt lat="47.02354" lon="8.94589">
        <ele>847</ele>
        <time>2021-08-02T12:03:15.165Z</time>
      </trkpt>
      <trkpt lat="47.02355" lon="8.94589">
        <ele>847</ele>
        <time>2021-08-02T12:03:16.165Z</time>
      </trkpt>
      <trkpt lat="47.02355" lon="8.94589">
        <ele>848</ele>
        <time>2021-08-02T12:03:17.165Z</time>
      </trkpt>
      <trkpt lat="47.02355" lon="8.94589">
        <ele>849</ele>
        <time>2021-08-02T12:03:18.164Z</time>
      </trkpt>
      <trkpt lat="47.02355" lon="8.94589">
        <ele>849</ele>
        <time>2021-08-02T12:03:19.165Z</time>
      </trkpt>
      <trkpt lat="47.02356" lon="8.94589">
        <ele>850</ele>
        <time>2021-08-02T12:03:20.165Z</time>
      </trkpt>
      <trkpt lat="47.02356" lon="8.94589">
        <ele>850</ele>
        <time>2021-08-02T12:03:21.165Z</time>
      </trkpt>
      <trkpt lat="47.02356" lon="8.94589">
        <ele>850</ele>
        <time>2021-08-02T12:03:22.164Z</time>
      </trkpt>
      <trkpt lat="47.02362" lon="8.9459">
        <ele>853</ele>
        <time>2021-08-02T12:03:23.164Z</time>
      </trkpt>
      <trkpt lat="47.02363" lon="8.94589">
        <ele>854</ele>
        <time>2021-08-02T12:03:24.165Z</time>
      </trkpt>
      <trkpt lat="47.02362" lon="8.94588">
        <ele>854</ele>
        <time>2021-08-02T12:03:25.164Z</time>
      </trkpt>
      <trkpt lat="47.02362" lon="8.94588">
        <ele>855</ele>
        <time>2021-08-02T12:03:26.164Z</time>
      </trkpt>
      <trkpt lat="47.02361" lon="8.94587">
        <ele>855</ele>
        <time>2021-08-02T12:03:27.165Z</time>
      </trkpt>
      <trkpt lat="47.02362" lon="8.94586">
        <ele>856</ele>
        <time>2021-08-02T12:03:28.165Z</time>
      </trkpt>
      <trkpt lat="47.02362" lon="8.94586">
        <ele>856</ele>
        <time>2021-08-02T12:03:29.165Z</time>
      </trkpt>
      <trkpt lat="47.02361" lon="8.94584">
        <ele>856</ele>
        <time>2021-08-02T12:03:30.165Z</time>
      </trkpt>
      <trkpt lat="47.02359" lon="8.94585">
        <ele>849</ele>
        <time>2021-08-02T12:03:31.164Z</time>
      </trkpt>
      <trkpt lat="47.02358" lon="8.94586">
        <ele>849</ele>
        <time>2021-08-02T12:03:32.165Z</time>
      </trkpt>
      <trkpt lat="47.02358" lon="8.94586">
        <ele>848</ele>
        <time>2021-08-02T12:03:33.164Z</time>
      </trkpt>
      <trkpt lat="47.02358" lon="8.94586">
        <ele>847</ele>
        <time>2021-08-02T12:03:34.165Z</time>
      </trkpt>
      <trkpt lat="47.02354" lon="8.94585">
        <ele>840</ele>
        <time>2021-08-02T12:03:35.164Z</time>
      </trkpt>
      <trkpt lat="47.02353" lon="8.94584">
        <ele>840</ele>
        <time>2021-08-02T12:03:36.165Z</time>
      </trkpt>
      <trkpt lat="47.02353" lon="8.94584">
        <ele>840</ele>
        <time>2021-08-02T12:03:37.164Z</time>
      </trkpt>
      <trkpt lat="47.02353" lon="8.94583">
        <ele>840</ele>
        <time>2021-08-02T12:03:38.165Z</time>
      </trkpt>
      <trkpt lat="47.02353" lon="8.94583">
        <ele>840</ele>
        <time>2021-08-02T12:03:39.164Z</time>
      </trkpt>
      <trkpt lat="47.02353" lon="8.94583">
        <ele>841</ele>
        <time>2021-08-02T12:03:40.164Z</time>
      </trkpt>
      <trkpt lat="47.02351" lon="8.94586">
        <ele>846</ele>
        <time>2021-08-02T12:03:41.164Z</time>
      </trkpt>
      <trkpt lat="47.02351" lon="8.94587">
        <ele>847</ele>
        <time>2021-08-02T12:03:42.164Z</time>
      </trkpt>
      <trkpt lat="47.02352" lon="8.94588">
        <ele>847</ele>
        <time>2021-08-02T12:03:43.164Z</time>
      </trkpt>
      <trkpt lat="47.02353" lon="8.94588">
        <ele>848</ele>
        <time>2021-08-02T12:03:44.165Z</time>
      </trkpt>
      <trkpt lat="47.02354" lon="8.94587">
        <ele>848</ele>
        <time>2021-08-02T12:03:45.165Z</time>
      </trkpt>
      <trkpt lat="47.02354" lon="8.94586">
        <ele>848</ele>
        <time>2021-08-02T12:03:46.164Z</time>
      </trkpt>
      <trkpt lat="47.02353" lon="8.94586">
        <ele>847</ele>
        <time>2021-08-02T12:03:47.165Z</time>
      </trkpt>
      <trkpt lat="47.02353" lon="8.94585">
        <ele>847</ele>
        <time>2021-08-02T12:03:48.165Z</time>
      </trkpt>
      <trkpt lat="47.02352" lon="8.94582">
        <ele>848</ele>
        <time>2021-08-02T12:03:49.164Z</time>
      </trkpt>
      <trkpt lat="47.02352" lon="8.94582">
        <ele>848</ele>
        <time>2021-08-02T12:03:50.164Z</time>
      </trkpt>
      <trkpt lat="47.02351" lon="8.94582">
        <ele>848</ele>
        <time>2021-08-02T12:03:51.165Z</time>
      </trkpt>
      <trkpt lat="47.02351" lon="8.94582">
        <ele>848</ele>
        <time>2021-08-02T12:03:52.165Z</time>
      </trkpt>
      <trkpt lat="47.02351" lon="8.94583">
        <ele>848</ele>
        <time>2021-08-02T12:03:53.164Z</time>
      </trkpt>
      <trkpt lat="47.02351" lon="8.94583">
        <ele>848</ele>
        <time>2021-08-02T12:03:54.164Z</time>
      </trkpt>
      <trkpt lat="47.02352" lon="8.94584">
        <ele>850</ele>
        <time>2021-08-02T12:03:55.164Z</time>
      </trkpt>
      <trkpt lat="47.02353" lon="8.94585">
        <ele>850</ele>
        <time>2021-08-02T12:03:56.165Z</time>
      </trkpt>
      <trkpt lat="47.02352" lon="8.94585">
        <ele>850</ele>
        <time>2021-08-02T12:03:57.164Z</time>
      </trkpt>
      <trkpt lat="47.02355" lon="8.94581">
        <ele>851</ele>
        <time>2021-08-02T12:03:58.165Z</time>
      </trkpt>
      <trkpt lat="47.02355" lon="8.9458">
        <ele>851</ele>
        <time>2021-08-02T12:03:59.164Z</time>
      </trkpt>
      <trkpt lat="47.02356" lon="8.94579">
        <ele>851</ele>
        <time>2021-08-02T12:04:00.165Z</time>
      </trkpt>
      <trkpt lat="47.02355" lon="8.9458">
        <ele>851</ele>
        <time>2021-08-02T12:04:01.164Z</time>
      </trkpt>
      <trkpt lat="47.02355" lon="8.9458">
        <ele>851</ele>
        <time>2021-08-02T12:04:02.165Z</time>
      </trkpt>
      <trkpt lat="47.02354" lon="8.94581">
        <ele>850</ele>
        <time>2021-08-02T12:04:03.165Z</time>
      </trkpt>
      <trkpt lat="47.02353" lon="8.94581">
        <ele>850</ele>
        <time>2021-08-02T12:04:04.164Z</time>
      </trkpt>
      <trkpt lat="47.02353" lon="8.94581">
        <ele>850</ele>
        <time>2021-08-02T12:04:05.164Z</time>
      </trkpt>
      <trkpt lat="47.02353" lon="8.94581">
        <ele>850</ele>
        <time>2021-08-02T12:04:06.165Z</time>
      </trkpt>
      <trkpt lat="47.02354" lon="8.9458">
        <ele>850</ele>
        <time>2021-08-02T12:04:07.165Z</time>
      </trkpt>
      <trkpt lat="47.02354" lon="8.94581">
        <ele>850</ele>
        <time>2021-08-02T12:04:08.164Z</time>
      </trkpt>
      <trkpt lat="47.02352" lon="8.94582">
        <ele>846</ele>
        <time>2021-08-02T12:04:09.165Z</time>
      </trkpt>
      <trkpt lat="47.02351" lon="8.94582">
        <ele>845</ele>
        <time>2021-08-02T12:04:10.164Z</time>
      </trkpt>
      <trkpt lat="47.0235" lon="8.94582">
        <ele>845</ele>
        <time>2021-08-02T12:04:11.164Z</time>
      </trkpt>
      <trkpt lat="47.0235" lon="8.94582">
        <ele>844</ele>
        <time>2021-08-02T12:04:12.165Z</time>
      </trkpt>
      <trkpt lat="47.0235" lon="8.94582">
        <ele>844</ele>
        <time>2021-08-02T12:04:13.165Z</time>
      </trkpt>
      <trkpt lat="47.02351" lon="8.94584">
        <ele>846</ele>
        <time>2021-08-02T12:04:14.164Z</time>
      </trkpt>
      <trkpt lat="47.02351" lon="8.94585">
        <ele>846</ele>
        <time>2021-08-02T12:04:15.165Z</time>
      </trkpt>
      <trkpt lat="47.02351" lon="8.94585">
        <ele>846</ele>
        <time>2021-08-02T12:04:16.164Z</time>
      </trkpt>
      <trkpt lat="47.02352" lon="8.94585">
        <ele>847</ele>
        <time>2021-08-02T12:04:17.164Z</time>
      </trkpt>
      <trkpt lat="47.02352" lon="8.94584">
        <ele>847</ele>
        <time>2021-08-02T12:04:18.164Z</time>
      </trkpt>
      <trkpt lat="47.02352" lon="8.94584">
        <ele>848</ele>
        <time>2021-08-02T12:04:19.164Z</time>
      </trkpt>
      <trkpt lat="47.02354" lon="8.94585">
        <ele>851</ele>
        <time>2021-08-02T12:04:20.165Z</time>
      </trkpt>
      <trkpt lat="47.02356" lon="8.94583">
        <ele>854</ele>
        <time>2021-08-02T12:04:21.165Z</time>
      </trkpt>
      <trkpt lat="47.02356" lon="8.94583">
        <ele>854</ele>
        <time>2021-08-02T12:04:22.165Z</time>
      </trkpt>
      <trkpt lat="47.02356" lon="8.94582">
        <ele>855</ele>
        <time>2021-08-02T12:04:23.166Z</time>
      </trkpt>
      <trkpt lat="47.02357" lon="8.94584">
        <ele>852</ele>
        <time>2021-08-02T12:04:24.166Z</time>
      </trkpt>
      <trkpt lat="47.02357" lon="8.94585">
        <ele>853</ele>
        <time>2021-08-02T12:04:25.166Z</time>
      </trkpt>
      <trkpt lat="47.02357" lon="8.94585">
        <ele>853</ele>
        <time>2021-08-02T12:04:26.165Z</time>
      </trkpt>
      <trkpt lat="47.02357" lon="8.94585">
        <ele>853</ele>
        <time>2021-08-02T12:04:27.166Z</time>
      </trkpt>
      <trkpt lat="47.02357" lon="8.94583">
        <ele>856</ele>
        <time>2021-08-02T12:04:28.165Z</time>
      </trkpt>
      <trkpt lat="47.02357" lon="8.94582">
        <ele>857</ele>
        <time>2021-08-02T12:04:29.166Z</time>
      </trkpt>
      <trkpt lat="47.02355" lon="8.94585">
        <ele>856</ele>
        <time>2021-08-02T12:04:30.167Z</time>
      </trkpt>
      <trkpt lat="47.02354" lon="8.94586">
        <ele>849</ele>
        <time>2021-08-02T12:04:31.167Z</time>
      </trkpt>
      <trkpt lat="47.02354" lon="8.94586">
        <ele>848</ele>
        <time>2021-08-02T12:04:32.167Z</time>
      </trkpt>
      <trkpt lat="47.02354" lon="8.94586">
        <ele>847</ele>
        <time>2021-08-02T12:04:33.167Z</time>
      </trkpt>
      <trkpt lat="47.02353" lon="8.94587">
        <ele>846</ele>
        <time>2021-08-02T12:04:34.167Z</time>
      </trkpt>
      <trkpt lat="47.02353" lon="8.94587">
        <ele>845</ele>
        <time>2021-08-02T12:04:35.166Z</time>
      </trkpt>
      <trkpt lat="47.02353" lon="8.94589">
        <ele>846</ele>
        <time>2021-08-02T12:04:36.166Z</time>
      </trkpt>
      <trkpt lat="47.02353" lon="8.94589">
        <ele>846</ele>
        <time>2021-08-02T12:04:37.166Z</time>
      </trkpt>
      <trkpt lat="47.02352" lon="8.94589">
        <ele>846</ele>
        <time>2021-08-02T12:04:38.167Z</time>
      </trkpt>
      <trkpt lat="47.02352" lon="8.94589">
        <ele>845</ele>
        <time>2021-08-02T12:04:39.166Z</time>
      </trkpt>
      <trkpt lat="47.02352" lon="8.94587">
        <ele>843</ele>
        <time>2021-08-02T12:04:40.169Z</time>
      </trkpt>
      <trkpt lat="47.02352" lon="8.94586">
        <ele>843</ele>
        <time>2021-08-02T12:04:41.169Z</time>
      </trkpt>
      <trkpt lat="47.02352" lon="8.94586">
        <ele>842</ele>
        <time>2021-08-02T12:04:42.168Z</time>
      </trkpt>
      <trkpt lat="47.02353" lon="8.94586">
        <ele>842</ele>
        <time>2021-08-02T12:04:43.169Z</time>
      </trkpt>
      <trkpt lat="47.02353" lon="8.94586">
        <ele>842</ele>
        <time>2021-08-02T12:04:44.169Z</time>
      </trkpt>
      <trkpt lat="47.02354" lon="8.94587">
        <ele>842</ele>
        <time>2021-08-02T12:04:45.169Z</time>
      </trkpt>
      <trkpt lat="47.02354" lon="8.94587">
        <ele>842</ele>
        <time>2021-08-02T12:04:46.168Z</time>
      </trkpt>
      <trkpt lat="47.02355" lon="8.94587">
        <ele>842</ele>
        <time>2021-08-02T12:04:47.168Z</time>
      </trkpt>
      <trkpt lat="47.02355" lon="8.94588">
        <ele>844</ele>
        <time>2021-08-02T12:04:48.170Z</time>
      </trkpt>
      <trkpt lat="47.02354" lon="8.94588">
        <ele>844</ele>
        <time>2021-08-02T12:04:49.169Z</time>
      </trkpt>
      <trkpt lat="47.02354" lon="8.94588">
        <ele>844</ele>
        <time>2021-08-02T12:04:50.169Z</time>
      </trkpt>
      <trkpt lat="47.02356" lon="8.94592">
        <ele>847</ele>
        <time>2021-08-02T12:04:51.169Z</time>
      </trkpt>
      <trkpt lat="47.02356" lon="8.94592">
        <ele>848</ele>
        <time>2021-08-02T12:04:52.170Z</time>
      </trkpt>
      <trkpt lat="47.02356" lon="8.94592">
        <ele>849</ele>
        <time>2021-08-02T12:04:53.170Z</time>
      </trkpt>
      <trkpt lat="47.02356" lon="8.94592">
        <ele>850</ele>
        <time>2021-08-02T12:04:54.170Z</time>
      </trkpt>
      <trkpt lat="47.02357" lon="8.94592">
        <ele>851</ele>
        <time>2021-08-02T12:04:55.170Z</time>
      </trkpt>
      <trkpt lat="47.02358" lon="8.94592">
        <ele>852</ele>
        <time>2021-08-02T12:04:56.170Z</time>
      </trkpt>
      <trkpt lat="47.02358" lon="8.94592">
        <ele>853</ele>
        <time>2021-08-02T12:04:57.169Z</time>
      </trkpt>
      <trkpt lat="47.02358" lon="8.94592">
        <ele>854</ele>
        <time>2021-08-02T12:04:58.170Z</time>
      </trkpt>
      <trkpt lat="47.02348" lon="8.9459">
        <ele>839</ele>
        <time>2021-08-02T12:04:59.171Z</time>
      </trkpt>
      <trkpt lat="47.02348" lon="8.9459">
        <ele>839</ele>
        <time>2021-08-02T12:05:00.171Z</time>
      </trkpt>
      <trkpt lat="47.02347" lon="8.94591">
        <ele>839</ele>
        <time>2021-08-02T12:05:01.170Z</time>
      </trkpt>
      <trkpt lat="47.02347" lon="8.94591">
        <ele>839</ele>
        <time>2021-08-02T12:05:02.170Z</time>
      </trkpt>
      <trkpt lat="47.02346" lon="8.9459">
        <ele>839</ele>
        <time>2021-08-02T12:05:03.171Z</time>
      </trkpt>
      <trkpt lat="47.02345" lon="8.9459">
        <ele>839</ele>
        <time>2021-08-02T12:05:04.171Z</time>
      </trkpt>
      <trkpt lat="47.02345" lon="8.94591">
        <ele>839</ele>
        <time>2021-08-02T12:05:05.170Z</time>
      </trkpt>
      <trkpt lat="47.02345" lon="8.94591">
        <ele>838</ele>
        <time>2021-08-02T12:05:06.171Z</time>
      </trkpt>
      <trkpt lat="47.02345" lon="8.94592">
        <ele>838</ele>
        <time>2021-08-02T12:05:07.171Z</time>
      </trkpt>
      <trkpt lat="47.02343" lon="8.94593">
        <ele>835</ele>
        <time>2021-08-02T12:05:10.153Z</time>
      </trkpt>
      <trkpt lat="47.02343" lon="8.94594">
        <ele>834</ele>
        <time>2021-08-02T12:05:11.154Z</time>
      </trkpt>
      <trkpt lat="47.02343" lon="8.94594">
        <ele>834</ele>
        <time>2021-08-02T12:05:12.153Z</time>
      </trkpt>
      <trkpt lat="47.02343" lon="8.94593">
        <ele>833</ele>
        <time>2021-08-02T12:05:13.155Z</time>
      </trkpt>
      <trkpt lat="47.02341" lon="8.94593">
        <ele>833</ele>
        <time>2021-08-02T12:05:31.172Z</time>
      </trkpt>
      <trkpt lat="47.02343" lon="8.94593">
        <ele>834</ele>
        <time>2021-08-02T12:05:32.172Z</time>
      </trkpt>
      <trkpt lat="47.02344" lon="8.94593">
        <ele>836</ele>
        <time>2021-08-02T12:05:33.171Z</time>
      </trkpt>
      <trkpt lat="47.02349" lon="8.94593">
        <ele>847</ele>
        <time>2021-08-02T12:05:43.288Z</time>
      </trkpt>
      <trkpt lat="47.02352" lon="8.94592">
        <ele>848</ele>
        <time>2021-08-02T12:05:44.288Z</time>
      </trkpt>
      <trkpt lat="47.02353" lon="8.94592">
        <ele>848</ele>
        <time>2021-08-02T12:05:45.287Z</time>
      </trkpt>
      <trkpt lat="47.02354" lon="8.94587">
        <ele>847</ele>
        <time>2021-08-02T12:05:46.288Z</time>
      </trkpt>
      <trkpt lat="47.02355" lon="8.94588">
        <ele>847</ele>
        <time>2021-08-02T12:05:47.288Z</time>
      </trkpt>
      <trkpt lat="47.02356" lon="8.94588">
        <ele>848</ele>
        <time>2021-08-02T12:05:48.287Z</time>
      </trkpt>
      <trkpt lat="47.02356" lon="8.94588">
        <ele>848</ele>
        <time>2021-08-02T12:05:49.288Z</time>
      </trkpt>
      <trkpt lat="47.02356" lon="8.94588">
        <ele>849</ele>
        <time>2021-08-02T12:05:50.287Z</time>
      </trkpt>
      <trkpt lat="47.02357" lon="8.94589">
        <ele>849</ele>
        <time>2021-08-02T12:05:51.288Z</time>
      </trkpt>
      <trkpt lat="47.02356" lon="8.94589">
        <ele>849</ele>
        <time>2021-08-02T12:05:52.289Z</time>
      </trkpt>
      <trkpt lat="47.02357" lon="8.94587">
        <ele>850</ele>
        <time>2021-08-02T12:05:53.288Z</time>
      </trkpt>
      <trkpt lat="47.02356" lon="8.94587">
        <ele>850</ele>
        <time>2021-08-02T12:05:54.289Z</time>
      </trkpt>
      <trkpt lat="47.02355" lon="8.94587">
        <ele>849</ele>
        <time>2021-08-02T12:05:55.290Z</time>
      </trkpt>
      <trkpt lat="47.02355" lon="8.94588">
        <ele>849</ele>
        <time>2021-08-02T12:05:56.290Z</time>
      </trkpt>
      <trkpt lat="47.02355" lon="8.94588">
        <ele>849</ele>
        <time>2021-08-02T12:05:57.289Z</time>
      </trkpt>
      <trkpt lat="47.02355" lon="8.94589">
        <ele>850</ele>
        <time>2021-08-02T12:05:58.290Z</time>
      </trkpt>
      <trkpt lat="47.02354" lon="8.94591">
        <ele>850</ele>
        <time>2021-08-02T12:05:59.290Z</time>
      </trkpt>
      <trkpt lat="47.02354" lon="8.94591">
        <ele>850</ele>
        <time>2021-08-02T12:06:00.290Z</time>
      </trkpt>
      <trkpt lat="47.02354" lon="8.94592">
        <ele>849</ele>
        <time>2021-08-02T12:06:01.289Z</time>
      </trkpt>
      <trkpt lat="47.02354" lon="8.94592">
        <ele>849</ele>
        <time>2021-08-02T12:06:02.290Z</time>
      </trkpt>
      <trkpt lat="47.02353" lon="8.94592">
        <ele>849</ele>
        <time>2021-08-02T12:06:03.289Z</time>
      </trkpt>
      <trkpt lat="47.02352" lon="8.94593">
        <ele>849</ele>
        <time>2021-08-02T12:06:04.290Z</time>
      </trkpt>
      <trkpt lat="47.02351" lon="8.94594">
        <ele>848</ele>
        <time>2021-08-02T12:06:05.289Z</time>
      </trkpt>
      <trkpt lat="47.02351" lon="8.94595">
        <ele>847</ele>
        <time>2021-08-02T12:06:06.289Z</time>
      </trkpt>
      <trkpt lat="47.0235" lon="8.94595">
        <ele>847</ele>
        <time>2021-08-02T12:06:07.290Z</time>
      </trkpt>
      <trkpt lat="47.0235" lon="8.94596">
        <ele>847</ele>
        <time>2021-08-02T12:06:08.290Z</time>
      </trkpt>
      <trkpt lat="47.02348" lon="8.94598">
        <ele>845</ele>
        <time>2021-08-02T12:06:09.289Z</time>
      </trkpt>
      <trkpt lat="47.02348" lon="8.94599">
        <ele>844</ele>
        <time>2021-08-02T12:06:10.289Z</time>
      </trkpt>
      <trkpt lat="47.02347" lon="8.94598">
        <ele>844</ele>
        <time>2021-08-02T12:06:11.289Z</time>
      </trkpt>
      <trkpt lat="47.02345" lon="8.94598">
        <ele>842</ele>
        <time>2021-08-02T12:06:12.289Z</time>
      </trkpt>
      <trkpt lat="47.02344" lon="8.94597">
        <ele>841</ele>
        <time>2021-08-02T12:06:13.289Z</time>
      </trkpt>
      <trkpt lat="47.02344" lon="8.94597">
        <ele>840</ele>
        <time>2021-08-02T12:06:14.289Z</time>
      </trkpt>
      <trkpt lat="47.02342" lon="8.94598">
        <ele>838</ele>
        <time>2021-08-02T12:06:15.290Z</time>
      </trkpt>
      <trkpt lat="47.02342" lon="8.94598">
        <ele>838</ele>
        <time>2021-08-02T12:06:16.289Z</time>
      </trkpt>
      <trkpt lat="47.02343" lon="8.94598">
        <ele>838</ele>
        <time>2021-08-02T12:06:17.291Z</time>
      </trkpt>
      <trkpt lat="47.02343" lon="8.94597">
        <ele>838</ele>
        <time>2021-08-02T12:06:18.291Z</time>
      </trkpt>
      <trkpt lat="47.02343" lon="8.94596">
        <ele>838</ele>
        <time>2021-08-02T12:06:19.290Z</time>
      </trkpt>
      <trkpt lat="47.02343" lon="8.94596">
        <ele>838</ele>
        <time>2021-08-02T12:06:20.291Z</time>
      </trkpt>
      <trkpt lat="47.02344" lon="8.94594">
        <ele>839</ele>
        <time>2021-08-02T12:06:21.291Z</time>
      </trkpt>
      <trkpt lat="47.02344" lon="8.94595">
        <ele>840</ele>
        <time>2021-08-02T12:06:22.291Z</time>
      </trkpt>
      <trkpt lat="47.02345" lon="8.94595">
        <ele>840</ele>
        <time>2021-08-02T12:06:23.291Z</time>
      </trkpt>
      <trkpt lat="47.02346" lon="8.94596">
        <ele>841</ele>
        <time>2021-08-02T12:06:24.292Z</time>
      </trkpt>
      <trkpt lat="47.02347" lon="8.94595">
        <ele>842</ele>
        <time>2021-08-02T12:06:25.292Z</time>
      </trkpt>
      <trkpt lat="47.02348" lon="8.94594">
        <ele>842</ele>
        <time>2021-08-02T12:06:26.291Z</time>
      </trkpt>
      <trkpt lat="47.02348" lon="8.94593">
        <ele>841</ele>
        <time>2021-08-02T12:06:27.292Z</time>
      </trkpt>
      <trkpt lat="47.02348" lon="8.94593">
        <ele>841</ele>
        <time>2021-08-02T12:06:28.292Z</time>
      </trkpt>
      <trkpt lat="47.02349" lon="8.94593">
        <ele>841</ele>
        <time>2021-08-02T12:06:29.292Z</time>
      </trkpt>
      <trkpt lat="47.02348" lon="8.94592">
        <ele>841</ele>
        <time>2021-08-02T12:06:30.292Z</time>
      </trkpt>
      <trkpt lat="47.02349" lon="8.94592">
        <ele>841</ele>
        <time>2021-08-02T12:06:31.292Z</time>
      </trkpt>
      <trkpt lat="47.02351" lon="8.9459">
        <ele>840</ele>
        <time>2021-08-02T12:06:32.292Z</time>
      </trkpt>
      <trkpt lat="47.02353" lon="8.94589">
        <ele>840</ele>
        <time>2021-08-02T12:06:33.291Z</time>
      </trkpt>
      <trkpt lat="47.02355" lon="8.94588">
        <ele>840</ele>
        <time>2021-08-02T12:06:34.292Z</time>
      </trkpt>
      <trkpt lat="47.02356" lon="8.94587">
        <ele>841</ele>
        <time>2021-08-02T12:06:35.292Z</time>
      </trkpt>
      <trkpt lat="47.02357" lon="8.94587">
        <ele>841</ele>
        <time>2021-08-02T12:06:36.292Z</time>
      </trkpt>
      <trkpt lat="47.02358" lon="8.94586">
        <ele>841</ele>
        <time>2021-08-02T12:06:37.292Z</time>
      </trkpt>
      <trkpt lat="47.02357" lon="8.94586">
        <ele>841</ele>
        <time>2021-08-02T12:06:38.292Z</time>
      </trkpt>
      <trkpt lat="47.02356" lon="8.94586">
        <ele>841</ele>
        <time>2021-08-02T12:06:39.291Z</time>
      </trkpt>
      <trkpt lat="47.02353" lon="8.94585">
        <ele>836</ele>
        <time>2021-08-02T12:06:40.292Z</time>
      </trkpt>
      <trkpt lat="47.02352" lon="8.94586">
        <ele>836</ele>
        <time>2021-08-02T12:06:41.291Z</time>
      </trkpt>
      <trkpt lat="47.02351" lon="8.94587">
        <ele>837</ele>
        <time>2021-08-02T12:06:42.291Z</time>
      </trkpt>
      <trkpt lat="47.02351" lon="8.94588">
        <ele>837</ele>
        <time>2021-08-02T12:06:43.292Z</time>
      </trkpt>
      <trkpt lat="47.0235" lon="8.94589">
        <ele>838</ele>
        <time>2021-08-02T12:06:44.292Z</time>
      </trkpt>
      <trkpt lat="47.0235" lon="8.94588">
        <ele>838</ele>
        <time>2021-08-02T12:06:45.292Z</time>
      </trkpt>
      <trkpt lat="47.0235" lon="8.94587">
        <ele>839</ele>
        <time>2021-08-02T12:06:46.292Z</time>
      </trkpt>
      <trkpt lat="47.0235" lon="8.94587">
        <ele>839</ele>
        <time>2021-08-02T12:06:47.292Z</time>
      </trkpt>
      <trkpt lat="47.0235" lon="8.94587">
        <ele>840</ele>
        <time>2021-08-02T12:06:48.292Z</time>
      </trkpt>
      <trkpt lat="47.0235" lon="8.9459">
        <ele>841</ele>
        <time>2021-08-02T12:06:49.293Z</time>
      </trkpt>
      <trkpt lat="47.0235" lon="8.94591">
        <ele>841</ele>
        <time>2021-08-02T12:06:50.292Z</time>
      </trkpt>
      <trkpt lat="47.0235" lon="8.94591">
        <ele>842</ele>
        <time>2021-08-02T12:06:51.293Z</time>
      </trkpt>
      <trkpt lat="47.0235" lon="8.9459">
        <ele>842</ele>
        <time>2021-08-02T12:06:52.293Z</time>
      </trkpt>
      <trkpt lat="47.0235" lon="8.9459">
        <ele>843</ele>
        <time>2021-08-02T12:06:53.293Z</time>
      </trkpt>
      <trkpt lat="47.0235" lon="8.9459">
        <ele>843</ele>
        <time>2021-08-02T12:06:54.292Z</time>
      </trkpt>
      <trkpt lat="47.0235" lon="8.9459">
        <ele>846</ele>
        <time>2021-08-02T12:06:55.293Z</time>
      </trkpt>
      <trkpt lat="47.0235" lon="8.9459">
        <ele>847</ele>
        <time>2021-08-02T12:06:56.292Z</time>
      </trkpt>
      <trkpt lat="47.02351" lon="8.94591">
        <ele>847</ele>
        <time>2021-08-02T12:06:57.292Z</time>
      </trkpt>
      <trkpt lat="47.02347" lon="8.94591">
        <ele>847</ele>
        <time>2021-08-02T12:06:58.293Z</time>
      </trkpt>
      <trkpt lat="47.02349" lon="8.94591">
        <ele>847</ele>
        <time>2021-08-02T12:06:59.292Z</time>
      </trkpt>
      <trkpt lat="47.0235" lon="8.9459">
        <ele>847</ele>
        <time>2021-08-02T12:07:00.292Z</time>
      </trkpt>
      <trkpt lat="47.02351" lon="8.9459">
        <ele>848</ele>
        <time>2021-08-02T12:07:01.293Z</time>
      </trkpt>
      <trkpt lat="47.02351" lon="8.94589">
        <ele>848</ele>
        <time>2021-08-02T12:07:02.293Z</time>
      </trkpt>
      <trkpt lat="47.02352" lon="8.94588">
        <ele>849</ele>
        <time>2021-08-02T12:07:03.293Z</time>
      </trkpt>
      <trkpt lat="47.02352" lon="8.94588">
        <ele>849</ele>
        <time>2021-08-02T12:07:04.293Z</time>
      </trkpt>
      <trkpt lat="47.02352" lon="8.94588">
        <ele>849</ele>
        <time>2021-08-02T12:07:05.292Z</time>
      </trkpt>
      <trkpt lat="47.02352" lon="8.94588">
        <ele>849</ele>
        <time>2021-08-02T12:07:06.293Z</time>
      </trkpt>
      <trkpt lat="47.02353" lon="8.94584">
        <ele>850</ele>
        <time>2021-08-02T12:07:10.352Z</time>
      </trkpt>
      <trkpt lat="47.02354" lon="8.94586">
        <ele>850</ele>
        <time>2021-08-02T12:07:11.353Z</time>
      </trkpt>
      <trkpt lat="47.02354" lon="8.94586">
        <ele>849</ele>
        <time>2021-08-02T12:07:12.353Z</time>
      </trkpt>
      <trkpt lat="47.02354" lon="8.94586">
        <ele>849</ele>
        <time>2021-08-02T12:07:13.353Z</time>
      </trkpt>
      <trkpt lat="47.02354" lon="8.94586">
        <ele>849</ele>
        <time>2021-08-02T12:07:14.353Z</time>
      </trkpt>
      <trkpt lat="47.02355" lon="8.94586">
        <ele>849</ele>
        <time>2021-08-02T12:07:15.353Z</time>
      </trkpt>
      <trkpt lat="47.02355" lon="8.94586">
        <ele>848</ele>
        <time>2021-08-02T12:07:16.352Z</time>
      </trkpt>
      <trkpt lat="47.02355" lon="8.94587">
        <ele>848</ele>
        <time>2021-08-02T12:07:17.352Z</time>
      </trkpt>
      <trkpt lat="47.02355" lon="8.94587">
        <ele>848</ele>
        <time>2021-08-02T12:07:18.353Z</time>
      </trkpt>
      <trkpt lat="47.02355" lon="8.94587">
        <ele>849</ele>
        <time>2021-08-02T12:07:19.353Z</time>
      </trkpt>
      <trkpt lat="47.02356" lon="8.94587">
        <ele>849</ele>
        <time>2021-08-02T12:07:20.352Z</time>
      </trkpt>
      <trkpt lat="47.02356" lon="8.94587">
        <ele>849</ele>
        <time>2021-08-02T12:07:21.352Z</time>
      </trkpt>
      <trkpt lat="47.02356" lon="8.94587">
        <ele>848</ele>
        <time>2021-08-02T12:07:22.352Z</time>
      </trkpt>
      <trkpt lat="47.02357" lon="8.94586">
        <ele>846</ele>
        <time>2021-08-02T12:07:23.352Z</time>
      </trkpt>
      <trkpt lat="47.02357" lon="8.94586">
        <ele>846</ele>
        <time>2021-08-02T12:07:24.353Z</time>
      </trkpt>
      <trkpt lat="47.02357" lon="8.94585">
        <ele>847</ele>
        <time>2021-08-02T12:07:25.352Z</time>
      </trkpt>
      <trkpt lat="47.02357" lon="8.94584">
        <ele>847</ele>
        <time>2021-08-02T12:07:26.353Z</time>
      </trkpt>
      <trkpt lat="47.02356" lon="8.94583">
        <ele>848</ele>
        <time>2021-08-02T12:07:27.352Z</time>
      </trkpt>
      <trkpt lat="47.02355" lon="8.94582">
        <ele>848</ele>
        <time>2021-08-02T12:07:28.352Z</time>
      </trkpt>
      <trkpt lat="47.02354" lon="8.94582">
        <ele>849</ele>
        <time>2021-08-02T12:07:29.352Z</time>
      </trkpt>
      <trkpt lat="47.02354" lon="8.94583">
        <ele>849</ele>
        <time>2021-08-02T12:07:30.352Z</time>
      </trkpt>
      <trkpt lat="47.02354" lon="8.94584">
        <ele>850</ele>
        <time>2021-08-02T12:07:31.353Z</time>
      </trkpt>
      <trkpt lat="47.02354" lon="8.94584">
        <ele>850</ele>
        <time>2021-08-02T12:07:32.353Z</time>
      </trkpt>
      <trkpt lat="47.02353" lon="8.94585">
        <ele>851</ele>
        <time>2021-08-02T12:07:33.353Z</time>
      </trkpt>
      <trkpt lat="47.02355" lon="8.94586">
        <ele>852</ele>
        <time>2021-08-02T12:07:34.353Z</time>
      </trkpt>
      <trkpt lat="47.02355" lon="8.94586">
        <ele>852</ele>
        <time>2021-08-02T12:07:35.353Z</time>
      </trkpt>
      <trkpt lat="47.02355" lon="8.94587">
        <ele>849</ele>
        <time>2021-08-02T12:07:36.354Z</time>
      </trkpt>
      <trkpt lat="47.02356" lon="8.94589">
        <ele>849</ele>
        <time>2021-08-02T12:07:37.354Z</time>
      </trkpt>
      <trkpt lat="47.02357" lon="8.94589">
        <ele>849</ele>
        <time>2021-08-02T12:07:38.354Z</time>
      </trkpt>
      <trkpt lat="47.02357" lon="8.94588">
        <ele>849</ele>
        <time>2021-08-02T12:07:39.354Z</time>
      </trkpt>
      <trkpt lat="47.02358" lon="8.94588">
        <ele>849</ele>
        <time>2021-08-02T12:07:40.354Z</time>
      </trkpt>
      <trkpt lat="47.02358" lon="8.94587">
        <ele>849</ele>
        <time>2021-08-02T12:07:41.355Z</time>
      </trkpt>
      <trkpt lat="47.02358" lon="8.94587">
        <ele>849</ele>
        <time>2021-08-02T12:07:42.354Z</time>
      </trkpt>
      <trkpt lat="47.02358" lon="8.94588">
        <ele>849</ele>
        <time>2021-08-02T12:07:43.354Z</time>
      </trkpt>
      <trkpt lat="47.02357" lon="8.94589">
        <ele>849</ele>
        <time>2021-08-02T12:07:44.354Z</time>
      </trkpt>
      <trkpt lat="47.02357" lon="8.94589">
        <ele>849</ele>
        <time>2021-08-02T12:07:45.355Z</time>
      </trkpt>
      <trkpt lat="47.02357" lon="8.94589">
        <ele>849</ele>
        <time>2021-08-02T12:07:46.355Z</time>
      </trkpt>
      <trkpt lat="47.02357" lon="8.9459">
        <ele>849</ele>
        <time>2021-08-02T12:07:47.354Z</time>
      </trkpt>
      <trkpt lat="47.02357" lon="8.9459">
        <ele>849</ele>
        <time>2021-08-02T12:07:48.354Z</time>
      </trkpt>
      <trkpt lat="47.02357" lon="8.9459">
        <ele>849</ele>
        <time>2021-08-02T12:07:49.354Z</time>
      </trkpt>
      <trkpt lat="47.02357" lon="8.9459">
        <ele>849</ele>
        <time>2021-08-02T12:07:54.417Z</time>
      </trkpt>
      <trkpt lat="47.02357" lon="8.9459">
        <ele>849</ele>
        <time>2021-08-02T12:07:55.417Z</time>
      </trkpt>
      <trkpt lat="47.02357" lon="8.94589">
        <ele>848</ele>
        <time>2021-08-02T12:07:56.417Z</time>
      </trkpt>
      <trkpt lat="47.02356" lon="8.94585">
        <ele>850</ele>
        <time>2021-08-02T12:07:57.418Z</time>
      </trkpt>
      <trkpt lat="47.02355" lon="8.94584">
        <ele>850</ele>
        <time>2021-08-02T12:07:58.418Z</time>
      </trkpt>
      <trkpt lat="47.02354" lon="8.94585">
        <ele>851</ele>
        <time>2021-08-02T12:07:59.418Z</time>
      </trkpt>
      <trkpt lat="47.02353" lon="8.94586">
        <ele>851</ele>
        <time>2021-08-02T12:08:00.418Z</time>
      </trkpt>
      <trkpt lat="47.02353" lon="8.94587">
        <ele>851</ele>
        <time>2021-08-02T12:08:01.418Z</time>
      </trkpt>
      <trkpt lat="47.02353" lon="8.94588">
        <ele>852</ele>
        <time>2021-08-02T12:08:02.418Z</time>
      </trkpt>
      <trkpt lat="47.02353" lon="8.94588">
        <ele>852</ele>
        <time>2021-08-02T12:08:03.418Z</time>
      </trkpt>
      <trkpt lat="47.02353" lon="8.94588">
        <ele>852</ele>
        <time>2021-08-02T12:08:04.418Z</time>
      </trkpt>
      <trkpt lat="47.02353" lon="8.94588">
        <ele>852</ele>
        <time>2021-08-02T12:08:05.418Z</time>
      </trkpt>
      <trkpt lat="47.02354" lon="8.94588">
        <ele>852</ele>
        <time>2021-08-02T12:08:06.418Z</time>
      </trkpt>
      <trkpt lat="47.02354" lon="8.94589">
        <ele>852</ele>
        <time>2021-08-02T12:08:07.418Z</time>
      </trkpt>
      <trkpt lat="47.02354" lon="8.94589">
        <ele>852</ele>
        <time>2021-08-02T12:08:08.418Z</time>
      </trkpt>
      <trkpt lat="47.02358" lon="8.94587">
        <ele>847</ele>
        <time>2021-08-02T12:08:09.419Z</time>
      </trkpt>
      <trkpt lat="47.02358" lon="8.94587">
        <ele>846</ele>
        <time>2021-08-02T12:08:10.418Z</time>
      </trkpt>
      <trkpt lat="47.02354" lon="8.9459">
        <ele>846</ele>
        <time>2021-08-02T12:08:11.419Z</time>
      </trkpt>
      <trkpt lat="47.02353" lon="8.94591">
        <ele>846</ele>
        <time>2021-08-02T12:08:12.420Z</time>
      </trkpt>
      <trkpt lat="47.02354" lon="8.94591">
        <ele>846</ele>
        <time>2021-08-02T12:08:13.419Z</time>
      </trkpt>
      <trkpt lat="47.02355" lon="8.94591">
        <ele>846</ele>
        <time>2021-08-02T12:08:14.419Z</time>
      </trkpt>
      <trkpt lat="47.02355" lon="8.9459">
        <ele>846</ele>
        <time>2021-08-02T12:08:15.420Z</time>
      </trkpt>
      <trkpt lat="47.02355" lon="8.9459">
        <ele>846</ele>
        <time>2021-08-02T12:08:16.420Z</time>
      </trkpt>
      <trkpt lat="47.02355" lon="8.9459">
        <ele>846</ele>
        <time>2021-08-02T12:08:17.420Z</time>
      </trkpt>
      <trkpt lat="47.02356" lon="8.9459">
        <ele>845</ele>
        <time>2021-08-02T12:08:18.420Z</time>
      </trkpt>
      <trkpt lat="47.02356" lon="8.94589">
        <ele>845</ele>
        <time>2021-08-02T12:08:19.419Z</time>
      </trkpt>
      <trkpt lat="47.02357" lon="8.94589">
        <ele>843</ele>
        <time>2021-08-02T12:08:20.420Z</time>
      </trkpt>
      <trkpt lat="47.02357" lon="8.94589">
        <ele>843</ele>
        <time>2021-08-02T12:08:21.420Z</time>
      </trkpt>
      <trkpt lat="47.02357" lon="8.94589">
        <ele>843</ele>
        <time>2021-08-02T12:08:22.421Z</time>
      </trkpt>
      <trkpt lat="47.02356" lon="8.94589">
        <ele>843</ele>
        <time>2021-08-02T12:08:23.421Z</time>
      </trkpt>
      <trkpt lat="47.02352" lon="8.94586">
        <ele>839</ele>
        <time>2021-08-02T12:08:24.421Z</time>
      </trkpt>
      <trkpt lat="47.02354" lon="8.94587">
        <ele>842</ele>
        <time>2021-08-02T12:08:25.420Z</time>
      </trkpt>
      <trkpt lat="47.02354" lon="8.94587">
        <ele>842</ele>
        <time>2021-08-02T12:08:26.421Z</time>
      </trkpt>
      <trkpt lat="47.02354" lon="8.94586">
        <ele>843</ele>
        <time>2021-08-02T12:08:27.420Z</time>
      </trkpt>
      <trkpt lat="47.02353" lon="8.94586">
        <ele>843</ele>
        <time>2021-08-02T12:08:28.421Z</time>
      </trkpt>
      <trkpt lat="47.02353" lon="8.94586">
        <ele>844</ele>
        <time>2021-08-02T12:08:29.421Z</time>
      </trkpt>
      <trkpt lat="47.02355" lon="8.94587">
        <ele>849</ele>
        <time>2021-08-02T12:08:30.420Z</time>
      </trkpt>
      <trkpt lat="47.02355" lon="8.94587">
        <ele>849</ele>
        <time>2021-08-02T12:08:31.421Z</time>
      </trkpt>
      <trkpt lat="47.02355" lon="8.94586">
        <ele>850</ele>
        <time>2021-08-02T12:08:32.420Z</time>
      </trkpt>
      <trkpt lat="47.02355" lon="8.94585">
        <ele>849</ele>
        <time>2021-08-02T12:08:33.422Z</time>
      </trkpt>
      <trkpt lat="47.02355" lon="8.94585">
        <ele>849</ele>
        <time>2021-08-02T12:08:34.422Z</time>
      </trkpt>
      <trkpt lat="47.02354" lon="8.94585">
        <ele>848</ele>
        <time>2021-08-02T12:08:35.422Z</time>
      </trkpt>
      <trkpt lat="47.02354" lon="8.94585">
        <ele>848</ele>
        <time>2021-08-02T12:08:36.422Z</time>
      </trkpt>
      <trkpt lat="47.02353" lon="8.94582">
        <ele>847</ele>
        <time>2021-08-02T12:08:37.422Z</time>
      </trkpt>
      <trkpt lat="47.02353" lon="8.94582">
        <ele>847</ele>
        <time>2021-08-02T12:08:38.421Z</time>
      </trkpt>
      <trkpt lat="47.02349" lon="8.94583">
        <ele>845</ele>
        <time>2021-08-02T12:08:39.422Z</time>
      </trkpt>
      <trkpt lat="47.02349" lon="8.94583">
        <ele>845</ele>
        <time>2021-08-02T12:08:40.423Z</time>
      </trkpt>
      <trkpt lat="47.02348" lon="8.94584">
        <ele>845</ele>
        <time>2021-08-02T12:08:41.422Z</time>
      </trkpt>
      <trkpt lat="47.02347" lon="8.94584">
        <ele>845</ele>
        <time>2021-08-02T12:08:42.423Z</time>
      </trkpt>
      <trkpt lat="47.02347" lon="8.94585">
        <ele>845</ele>
        <time>2021-08-02T12:08:43.423Z</time>
      </trkpt>
      <trkpt lat="47.02347" lon="8.94587">
        <ele>844</ele>
        <time>2021-08-02T12:08:44.423Z</time>
      </trkpt>
      <trkpt lat="47.02348" lon="8.94587">
        <ele>844</ele>
        <time>2021-08-02T12:08:45.423Z</time>
      </trkpt>
      <trkpt lat="47.02349" lon="8.94586">
        <ele>844</ele>
        <time>2021-08-02T12:08:46.422Z</time>
      </trkpt>
      <trkpt lat="47.0235" lon="8.94585">
        <ele>844</ele>
        <time>2021-08-02T12:08:47.423Z</time>
      </trkpt>
      <trkpt lat="47.0235" lon="8.94585">
        <ele>844</ele>
        <time>2021-08-02T12:08:48.423Z</time>
      </trkpt>
      <trkpt lat="47.02351" lon="8.94584">
        <ele>844</ele>
        <time>2021-08-02T12:08:49.423Z</time>
      </trkpt>
      <trkpt lat="47.0235" lon="8.94583">
        <ele>844</ele>
        <time>2021-08-02T12:08:50.423Z</time>
      </trkpt>
      <trkpt lat="47.02349" lon="8.94581">
        <ele>845</ele>
        <time>2021-08-02T12:08:51.423Z</time>
      </trkpt>
      <trkpt lat="47.0235" lon="8.94579">
        <ele>846</ele>
        <time>2021-08-02T12:08:52.422Z</time>
      </trkpt>
      <trkpt lat="47.02351" lon="8.94579">
        <ele>846</ele>
        <time>2021-08-02T12:08:53.422Z</time>
      </trkpt>
      <trkpt lat="47.02351" lon="8.94579">
        <ele>847</ele>
        <time>2021-08-02T12:08:54.423Z</time>
      </trkpt>
      <trkpt lat="47.02351" lon="8.94579">
        <ele>848</ele>
        <time>2021-08-02T12:08:55.423Z</time>
      </trkpt>
      <trkpt lat="47.02351" lon="8.94581">
        <ele>849</ele>
        <time>2021-08-02T12:08:56.423Z</time>
      </trkpt>
      <trkpt lat="47.02351" lon="8.94582">
        <ele>849</ele>
        <time>2021-08-02T12:08:57.422Z</time>
      </trkpt>
      <trkpt lat="47.02352" lon="8.94582">
        <ele>850</ele>
        <time>2021-08-02T12:08:58.422Z</time>
      </trkpt>
      <trkpt lat="47.02352" lon="8.94583">
        <ele>850</ele>
        <time>2021-08-02T12:08:59.423Z</time>
      </trkpt>
      <trkpt lat="47.02353" lon="8.94583">
        <ele>851</ele>
        <time>2021-08-02T12:09:00.423Z</time>
      </trkpt>
      <trkpt lat="47.02353" lon="8.94583">
        <ele>851</ele>
        <time>2021-08-02T12:09:01.423Z</time>
      </trkpt>
      <trkpt lat="47.02353" lon="8.94582">
        <ele>851</ele>
        <time>2021-08-02T12:09:02.422Z</time>
      </trkpt>
      <trkpt lat="47.02353" lon="8.94581">
        <ele>850</ele>
        <time>2021-08-02T12:09:03.423Z</time>
      </trkpt>
      <trkpt lat="47.02354" lon="8.9458">
        <ele>850</ele>
        <time>2021-08-02T12:09:04.422Z</time>
      </trkpt>
      <trkpt lat="47.02353" lon="8.94581">
        <ele>850</ele>
        <time>2021-08-02T12:09:05.422Z</time>
      </trkpt>
      <trkpt lat="47.02353" lon="8.94581">
        <ele>849</ele>
        <time>2021-08-02T12:09:06.422Z</time>
      </trkpt>
      <trkpt lat="47.02354" lon="8.94582">
        <ele>849</ele>
        <time>2021-08-02T12:09:07.422Z</time>
      </trkpt>
      <trkpt lat="47.02354" lon="8.94582">
        <ele>849</ele>
        <time>2021-08-02T12:09:08.423Z</time>
      </trkpt>
      <trkpt lat="47.02354" lon="8.94583">
        <ele>849</ele>
        <time>2021-08-02T12:09:09.423Z</time>
      </trkpt>
      <trkpt lat="47.02355" lon="8.94583">
        <ele>849</ele>
        <time>2021-08-02T12:09:10.423Z</time>
      </trkpt>
      <trkpt lat="47.02355" lon="8.94583">
        <ele>849</ele>
        <time>2021-08-02T12:09:11.422Z</time>
      </trkpt>
      <trkpt lat="47.02355" lon="8.94582">
        <ele>849</ele>
        <time>2021-08-02T12:09:12.423Z</time>
      </trkpt>
      <trkpt lat="47.02355" lon="8.94583">
        <ele>849</ele>
        <time>2021-08-02T12:09:13.423Z</time>
      </trkpt>
      <trkpt lat="47.02355" lon="8.94583">
        <ele>849</ele>
        <time>2021-08-02T12:09:14.423Z</time>
      </trkpt>
      <trkpt lat="47.02355" lon="8.94584">
        <ele>847</ele>
        <time>2021-08-02T12:09:15.423Z</time>
      </trkpt>
      <trkpt lat="47.02354" lon="8.94584">
        <ele>846</ele>
        <time>2021-08-02T12:09:16.423Z</time>
      </trkpt>
      <trkpt lat="47.02354" lon="8.94584">
        <ele>846</ele>
        <time>2021-08-02T12:09:17.422Z</time>
      </trkpt>
      <trkpt lat="47.02354" lon="8.94584">
        <ele>846</ele>
        <time>2021-08-02T12:09:18.422Z</time>
      </trkpt>
      <trkpt lat="47.02354" lon="8.94584">
        <ele>846</ele>
        <time>2021-08-02T12:09:19.422Z</time>
      </trkpt>
      <trkpt lat="47.02353" lon="8.94584">
        <ele>845</ele>
        <time>2021-08-02T12:09:20.423Z</time>
      </trkpt>
      <trkpt lat="47.02352" lon="8.94584">
        <ele>845</ele>
        <time>2021-08-02T12:09:21.422Z</time>
      </trkpt>
      <trkpt lat="47.02351" lon="8.94585">
        <ele>844</ele>
        <time>2021-08-02T12:09:22.423Z</time>
      </trkpt>
      <trkpt lat="47.0235" lon="8.94586">
        <ele>844</ele>
        <time>2021-08-02T12:09:23.423Z</time>
      </trkpt>
      <trkpt lat="47.02349" lon="8.94588">
        <ele>844</ele>
        <time>2021-08-02T12:09:24.422Z</time>
      </trkpt>
      <trkpt lat="47.02348" lon="8.94588">
        <ele>843</ele>
        <time>2021-08-02T12:09:25.422Z</time>
      </trkpt>
      <trkpt lat="47.02348" lon="8.94588">
        <ele>843</ele>
        <time>2021-08-02T12:09:26.422Z</time>
      </trkpt>
      <trkpt lat="47.02347" lon="8.94589">
        <ele>843</ele>
        <time>2021-08-02T12:09:27.423Z</time>
      </trkpt>
      <trkpt lat="47.02346" lon="8.94589">
        <ele>843</ele>
        <time>2021-08-02T12:09:28.423Z</time>
      </trkpt>
      <trkpt lat="47.02346" lon="8.9459">
        <ele>842</ele>
        <time>2021-08-02T12:09:29.423Z</time>
      </trkpt>
      <trkpt lat="47.02346" lon="8.9459">
        <ele>842</ele>
        <time>2021-08-02T12:09:30.422Z</time>
      </trkpt>
      <trkpt lat="47.02345" lon="8.9459">
        <ele>842</ele>
        <time>2021-08-02T12:09:31.423Z</time>
      </trkpt>
      <trkpt lat="47.02345" lon="8.9459">
        <ele>841</ele>
        <time>2021-08-02T12:09:32.423Z</time>
      </trkpt>
      <trkpt lat="47.02345" lon="8.94589">
        <ele>841</ele>
        <time>2021-08-02T12:09:33.423Z</time>
      </trkpt>
      <trkpt lat="47.02345" lon="8.94588">
        <ele>841</ele>
        <time>2021-08-02T12:09:34.422Z</time>
      </trkpt>
      <trkpt lat="47.02344" lon="8.94588">
        <ele>840</ele>
        <time>2021-08-02T12:09:35.423Z</time>
      </trkpt>
      <trkpt lat="47.02345" lon="8.94587">
        <ele>841</ele>
        <time>2021-08-02T12:09:39.578Z</time>
      </trkpt>
      <trkpt lat="47.02345" lon="8.94585">
        <ele>841</ele>
        <time>2021-08-02T12:09:40.577Z</time>
      </trkpt>
      <trkpt lat="47.02345" lon="8.94585">
        <ele>841</ele>
        <time>2021-08-02T12:09:41.577Z</time>
      </trkpt>
      <trkpt lat="47.02345" lon="8.94585">
        <ele>847</ele>
        <time>2021-08-02T12:09:42.578Z</time>
      </trkpt>
      <trkpt lat="47.02344" lon="8.94587">
        <ele>847</ele>
        <time>2021-08-02T12:09:43.578Z</time>
      </trkpt>
      <trkpt lat="47.02344" lon="8.94589">
        <ele>847</ele>
        <time>2021-08-02T12:09:44.577Z</time>
      </trkpt>
      <trkpt lat="47.02344" lon="8.94589">
        <ele>848</ele>
        <time>2021-08-02T12:09:45.578Z</time>
      </trkpt>
      <trkpt lat="47.02346" lon="8.94589">
        <ele>849</ele>
        <time>2021-08-02T12:09:46.578Z</time>
      </trkpt>
      <trkpt lat="47.02347" lon="8.94588">
        <ele>849</ele>
        <time>2021-08-02T12:09:47.578Z</time>
      </trkpt>
      <trkpt lat="47.02347" lon="8.94587">
        <ele>850</ele>
        <time>2021-08-02T12:09:48.578Z</time>
      </trkpt>
      <trkpt lat="47.02347" lon="8.94587">
        <ele>850</ele>
        <time>2021-08-02T12:09:49.578Z</time>
      </trkpt>
      <trkpt lat="47.02348" lon="8.94587">
        <ele>851</ele>
        <time>2021-08-02T12:09:50.579Z</time>
      </trkpt>
      <trkpt lat="47.02347" lon="8.94586">
        <ele>852</ele>
        <time>2021-08-02T12:09:51.579Z</time>
      </trkpt>
      <trkpt lat="47.0235" lon="8.94588">
        <ele>852</ele>
        <time>2021-08-02T12:09:52.579Z</time>
      </trkpt>
      <trkpt lat="47.0235" lon="8.94588">
        <ele>853</ele>
        <time>2021-08-02T12:09:53.578Z</time>
      </trkpt>
      <trkpt lat="47.02351" lon="8.94589">
        <ele>853</ele>
        <time>2021-08-02T12:09:54.578Z</time>
      </trkpt>
      <trkpt lat="47.02351" lon="8.94588">
        <ele>853</ele>
        <time>2021-08-02T12:09:55.578Z</time>
      </trkpt>
      <trkpt lat="47.02351" lon="8.94588">
        <ele>854</ele>
        <time>2021-08-02T12:09:56.578Z</time>
      </trkpt>
      <trkpt lat="47.02351" lon="8.94588">
        <ele>854</ele>
        <time>2021-08-02T12:09:57.580Z</time>
      </trkpt>
      <trkpt lat="47.02351" lon="8.94587">
        <ele>854</ele>
        <time>2021-08-02T12:09:58.580Z</time>
      </trkpt>
      <trkpt lat="47.02351" lon="8.94586">
        <ele>854</ele>
        <time>2021-08-02T12:09:59.579Z</time>
      </trkpt>
      <trkpt lat="47.02351" lon="8.94586">
        <ele>855</ele>
        <time>2021-08-02T12:10:00.579Z</time>
      </trkpt>
      <trkpt lat="47.02351" lon="8.94585">
        <ele>855</ele>
        <time>2021-08-02T12:10:01.579Z</time>
      </trkpt>
      <trkpt lat="47.02351" lon="8.94585">
        <ele>855</ele>
        <time>2021-08-02T12:10:02.579Z</time>
      </trkpt>
      <trkpt lat="47.02351" lon="8.94585">
        <ele>856</ele>
        <time>2021-08-02T12:10:03.579Z</time>
      </trkpt>
      <trkpt lat="47.0235" lon="8.94585">
        <ele>856</ele>
        <time>2021-08-02T12:10:04.579Z</time>
      </trkpt>
      <trkpt lat="47.0235" lon="8.94585">
        <ele>857</ele>
        <time>2021-08-02T12:10:05.579Z</time>
      </trkpt>
      <trkpt lat="47.02349" lon="8.94584">
        <ele>857</ele>
        <time>2021-08-02T12:10:06.579Z</time>
      </trkpt>
      <trkpt lat="47.02349" lon="8.94584">
        <ele>857</ele>
        <time>2021-08-02T12:10:08.691Z</time>
      </trkpt>
      <trkpt lat="47.02349" lon="8.94584">
        <ele>857</ele>
        <time>2021-08-02T12:10:09.691Z</time>
      </trkpt>
      <trkpt lat="47.02349" lon="8.94584">
        <ele>857</ele>
        <time>2021-08-02T12:10:10.691Z</time>
      </trkpt>
      <trkpt lat="47.02348" lon="8.94584">
        <ele>857</ele>
        <time>2021-08-02T12:10:11.692Z</time>
      </trkpt>
      <trkpt lat="47.02348" lon="8.94585">
        <ele>857</ele>
        <time>2021-08-02T12:10:12.691Z</time>
      </trkpt>
      <trkpt lat="47.02347" lon="8.94585">
        <ele>859</ele>
        <time>2021-08-02T12:10:13.692Z</time>
      </trkpt>
      <trkpt lat="47.02348" lon="8.94584">
        <ele>857</ele>
        <time>2021-08-02T12:10:14.692Z</time>
      </trkpt>
      <trkpt lat="47.02349" lon="8.94585">
        <ele>856</ele>
        <time>2021-08-02T12:10:15.692Z</time>
      </trkpt>
      <trkpt lat="47.0235" lon="8.94584">
        <ele>856</ele>
        <time>2021-08-02T12:10:16.692Z</time>
      </trkpt>
      <trkpt lat="47.02351" lon="8.94584">
        <ele>856</ele>
        <time>2021-08-02T12:10:17.692Z</time>
      </trkpt>
      <trkpt lat="47.02351" lon="8.94584">
        <ele>855</ele>
        <time>2021-08-02T12:10:18.692Z</time>
      </trkpt>
      <trkpt lat="47.0235" lon="8.94583">
        <ele>855</ele>
        <time>2021-08-02T12:10:19.692Z</time>
      </trkpt>
      <trkpt lat="47.02349" lon="8.94583">
        <ele>855</ele>
        <time>2021-08-02T12:10:20.692Z</time>
      </trkpt>
      <trkpt lat="47.02349" lon="8.94582">
        <ele>856</ele>
        <time>2021-08-02T12:10:21.691Z</time>
      </trkpt>
      <trkpt lat="47.02348" lon="8.94581">
        <ele>856</ele>
        <time>2021-08-02T12:10:22.691Z</time>
      </trkpt>
      <trkpt lat="47.02348" lon="8.94581">
        <ele>856</ele>
        <time>2021-08-02T12:10:23.692Z</time>
      </trkpt>
      <trkpt lat="47.02347" lon="8.9458">
        <ele>857</ele>
        <time>2021-08-02T12:10:24.692Z</time>
      </trkpt>
      <trkpt lat="47.02347" lon="8.94581">
        <ele>857</ele>
        <time>2021-08-02T12:10:25.692Z</time>
      </trkpt>
      <trkpt lat="47.02346" lon="8.94582">
        <ele>857</ele>
        <time>2021-08-02T12:10:26.692Z</time>
      </trkpt>
      <trkpt lat="47.02347" lon="8.94582">
        <ele>857</ele>
        <time>2021-08-02T12:10:27.691Z</time>
      </trkpt>
      <trkpt lat="47.02346" lon="8.94582">
        <ele>857</ele>
        <time>2021-08-02T12:10:28.692Z</time>
      </trkpt>
      <trkpt lat="47.02347" lon="8.94585">
        <ele>850</ele>
        <time>2021-08-02T12:10:29.691Z</time>
      </trkpt>
      <trkpt lat="47.02348" lon="8.94585">
        <ele>849</ele>
        <time>2021-08-02T12:10:30.692Z</time>
      </trkpt>
      <trkpt lat="47.02348" lon="8.94584">
        <ele>849</ele>
        <time>2021-08-02T12:10:31.692Z</time>
      </trkpt>
      <trkpt lat="47.02348" lon="8.94583">
        <ele>849</ele>
        <time>2021-08-02T12:10:32.692Z</time>
      </trkpt>
      <trkpt lat="47.02348" lon="8.94582">
        <ele>849</ele>
        <time>2021-08-02T12:10:33.692Z</time>
      </trkpt>
      <trkpt lat="47.02348" lon="8.94582">
        <ele>848</ele>
        <time>2021-08-02T12:10:34.692Z</time>
      </trkpt>
      <trkpt lat="47.02348" lon="8.94582">
        <ele>848</ele>
        <time>2021-08-02T12:10:35.692Z</time>
      </trkpt>
      <trkpt lat="47.02348" lon="8.94582">
        <ele>842</ele>
        <time>2021-08-02T12:10:36.692Z</time>
      </trkpt>
      <trkpt lat="47.02348" lon="8.94582">
        <ele>842</ele>
        <time>2021-08-02T12:10:37.693Z</time>
      </trkpt>
      <trkpt lat="47.02349" lon="8.94583">
        <ele>842</ele>
        <time>2021-08-02T12:10:38.693Z</time>
      </trkpt>
      <trkpt lat="47.02351" lon="8.94584">
        <ele>843</ele>
        <time>2021-08-02T12:10:39.693Z</time>
      </trkpt>
      <trkpt lat="47.02352" lon="8.94585">
        <ele>844</ele>
        <time>2021-08-02T12:10:40.692Z</time>
      </trkpt>
      <trkpt lat="47.02353" lon="8.94585">
        <ele>845</ele>
        <time>2021-08-02T12:10:41.692Z</time>
      </trkpt>
      <trkpt lat="47.02353" lon="8.94585">
        <ele>846</ele>
        <time>2021-08-02T12:10:42.693Z</time>
      </trkpt>
      <trkpt lat="47.02352" lon="8.94583">
        <ele>849</ele>
        <time>2021-08-02T12:10:43.694Z</time>
      </trkpt>
      <trkpt lat="47.02352" lon="8.94584">
        <ele>849</ele>
        <time>2021-08-02T12:10:44.693Z</time>
      </trkpt>
      <trkpt lat="47.02351" lon="8.94583">
        <ele>849</ele>
        <time>2021-08-02T12:10:45.695Z</time>
      </trkpt>
      <trkpt lat="47.02351" lon="8.94583">
        <ele>849</ele>
        <time>2021-08-02T12:10:52.680Z</time>
      </trkpt>
      <trkpt lat="47.02351" lon="8.94583">
        <ele>849</ele>
        <time>2021-08-02T12:10:53.679Z</time>
      </trkpt>
      <trkpt lat="47.0235" lon="8.94582">
        <ele>846</ele>
        <time>2021-08-02T12:10:54.680Z</time>
      </trkpt>
      <trkpt lat="47.0235" lon="8.94582">
        <ele>842</ele>
        <time>2021-08-02T12:10:55.680Z</time>
      </trkpt>
      <trkpt lat="47.0235" lon="8.94582">
        <ele>842</ele>
        <time>2021-08-02T12:10:56.680Z</time>
      </trkpt>
      <trkpt lat="47.0235" lon="8.94581">
        <ele>842</ele>
        <time>2021-08-02T12:10:57.680Z</time>
      </trkpt>
      <trkpt lat="47.0235" lon="8.94581">
        <ele>843</ele>
        <time>2021-08-02T12:10:58.680Z</time>
      </trkpt>
      <trkpt lat="47.0235" lon="8.9458">
        <ele>844</ele>
        <time>2021-08-02T12:10:59.680Z</time>
      </trkpt>
      <trkpt lat="47.0235" lon="8.9458">
        <ele>845</ele>
        <time>2021-08-02T12:11:00.680Z</time>
      </trkpt>
      <trkpt lat="47.0235" lon="8.9458">
        <ele>844</ele>
        <time>2021-08-02T12:11:01.679Z</time>
      </trkpt>
      <trkpt lat="47.0235" lon="8.9458">
        <ele>844</ele>
        <time>2021-08-02T12:11:02.680Z</time>
      </trkpt>
      <trkpt lat="47.0235" lon="8.9458">
        <ele>844</ele>
        <time>2021-08-02T12:11:03.680Z</time>
      </trkpt>
      <trkpt lat="47.02351" lon="8.94579">
        <ele>844</ele>
        <time>2021-08-02T12:11:04.680Z</time>
      </trkpt>
      <trkpt lat="47.02351" lon="8.94578">
        <ele>845</ele>
        <time>2021-08-02T12:11:05.680Z</time>
      </trkpt>
      <trkpt lat="47.02349" lon="8.94578">
        <ele>846</ele>
        <time>2021-08-02T12:11:06.680Z</time>
      </trkpt>
      <trkpt lat="47.02349" lon="8.94579">
        <ele>845</ele>
        <time>2021-08-02T12:11:07.680Z</time>
      </trkpt>
      <trkpt lat="47.0235" lon="8.94579">
        <ele>845</ele>
        <time>2021-08-02T12:11:08.680Z</time>
      </trkpt>
      <trkpt lat="47.0235" lon="8.9458">
        <ele>845</ele>
        <time>2021-08-02T12:11:09.681Z</time>
      </trkpt>
      <trkpt lat="47.0235" lon="8.94585">
        <ele>849</ele>
        <time>2021-08-02T12:11:10.681Z</time>
      </trkpt>
      <trkpt lat="47.02351" lon="8.94584">
        <ele>849</ele>
        <time>2021-08-02T12:11:11.681Z</time>
      </trkpt>
      <trkpt lat="47.02348" lon="8.94578">
        <ele>845</ele>
        <time>2021-08-02T12:11:12.681Z</time>
      </trkpt>
      <trkpt lat="47.02348" lon="8.94577">
        <ele>845</ele>
        <time>2021-08-02T12:11:13.681Z</time>
      </trkpt>
      <trkpt lat="47.02347" lon="8.94575">
        <ele>845</ele>
        <time>2021-08-02T12:11:14.680Z</time>
      </trkpt>
      <trkpt lat="47.02347" lon="8.94572">
        <ele>847</ele>
        <time>2021-08-02T12:11:15.680Z</time>
      </trkpt>
      <trkpt lat="47.02348" lon="8.94572">
        <ele>847</ele>
        <time>2021-08-02T12:11:16.681Z</time>
      </trkpt>
      <trkpt lat="47.02351" lon="8.94582">
        <ele>848</ele>
        <time>2021-08-02T12:11:20.681Z</time>
      </trkpt>
      <trkpt lat="47.02352" lon="8.94582">
        <ele>847</ele>
        <time>2021-08-02T12:11:21.681Z</time>
      </trkpt>
      <trkpt lat="47.02352" lon="8.94582">
        <ele>847</ele>
        <time>2021-08-02T12:11:22.680Z</time>
      </trkpt>
      <trkpt lat="47.02351" lon="8.94582">
        <ele>847</ele>
        <time>2021-08-02T12:11:23.681Z</time>
      </trkpt>
      <trkpt lat="47.02351" lon="8.94582">
        <ele>846</ele>
        <time>2021-08-02T12:11:24.680Z</time>
      </trkpt>
      <trkpt lat="47.0235" lon="8.94582">
        <ele>846</ele>
        <time>2021-08-02T12:11:25.680Z</time>
      </trkpt>
      <trkpt lat="47.02348" lon="8.94585">
        <ele>845</ele>
        <time>2021-08-02T12:11:26.681Z</time>
      </trkpt>
      <trkpt lat="47.02349" lon="8.94584">
        <ele>845</ele>
        <time>2021-08-02T12:11:27.682Z</time>
      </trkpt>
      <trkpt lat="47.02349" lon="8.94585">
        <ele>846</ele>
        <time>2021-08-02T12:11:28.681Z</time>
      </trkpt>
      <trkpt lat="47.02349" lon="8.94586">
        <ele>846</ele>
        <time>2021-08-02T12:11:29.682Z</time>
      </trkpt>
      <trkpt lat="47.02349" lon="8.94586">
        <ele>847</ele>
        <time>2021-08-02T12:11:30.682Z</time>
      </trkpt>
      <trkpt lat="47.0235" lon="8.94586">
        <ele>847</ele>
        <time>2021-08-02T12:11:31.682Z</time>
      </trkpt>
      <trkpt lat="47.0235" lon="8.94586">
        <ele>848</ele>
        <time>2021-08-02T12:11:32.682Z</time>
      </trkpt>
      <trkpt lat="47.02352" lon="8.94586">
        <ele>849</ele>
        <time>2021-08-02T12:11:33.682Z</time>
      </trkpt>
      <trkpt lat="47.02355" lon="8.94587">
        <ele>854</ele>
        <time>2021-08-02T12:11:37.809Z</time>
      </trkpt>
      <trkpt lat="47.02356" lon="8.94587">
        <ele>854</ele>
        <time>2021-08-02T12:11:47.691Z</time>
      </trkpt>
      <trkpt lat="47.02356" lon="8.94587">
        <ele>854</ele>
        <time>2021-08-02T12:11:51.575Z</time>
      </trkpt>
      <trkpt lat="47.02355" lon="8.94586">
        <ele>853</ele>
        <time>2021-08-02T12:11:52.576Z</time>
      </trkpt>
      <trkpt lat="47.02355" lon="8.94586">
        <ele>852</ele>
        <time>2021-08-02T12:11:53.575Z</time>
      </trkpt>
      <trkpt lat="47.02355" lon="8.94586">
        <ele>852</ele>
        <time>2021-08-02T12:11:54.576Z</time>
      </trkpt>
      <trkpt lat="47.02354" lon="8.94586">
        <ele>851</ele>
        <time>2021-08-02T12:11:55.576Z</time>
      </trkpt>
      <trkpt lat="47.02353" lon="8.94586">
        <ele>850</ele>
        <time>2021-08-02T12:11:56.575Z</time>
      </trkpt>
      <trkpt lat="47.02354" lon="8.94587">
        <ele>848</ele>
        <time>2021-08-02T12:12:06.740Z</time>
      </trkpt>
      <trkpt lat="47.02354" lon="8.94587">
        <ele>848</ele>
        <time>2021-08-02T12:12:07.740Z</time>
      </trkpt>
      <trkpt lat="47.02354" lon="8.94587">
        <ele>848</ele>
        <time>2021-08-02T12:12:15.556Z</time>
      </trkpt>
      <trkpt lat="47.02353" lon="8.94587">
        <ele>847</ele>
        <time>2021-08-02T12:12:16.555Z</time>
      </trkpt>
      <trkpt lat="47.02352" lon="8.94585">
        <ele>846</ele>
        <time>2021-08-02T12:12:28.428Z</time>
      </trkpt>
      <trkpt lat="47.02352" lon="8.94585">
        <ele>846</ele>
        <time>2021-08-02T12:12:29.428Z</time>
      </trkpt>
      <trkpt lat="47.02352" lon="8.94585">
        <ele>846</ele>
        <time>2021-08-02T12:12:30.428Z</time>
      </trkpt>
      <trkpt lat="47.02352" lon="8.94585">
        <ele>846</ele>
        <time>2021-08-02T12:12:31.429Z</time>
      </trkpt>
      <trkpt lat="47.02352" lon="8.94586">
        <ele>845</ele>
        <time>2021-08-02T12:12:32.428Z</time>
      </trkpt>
      <trkpt lat="47.02352" lon="8.94586">
        <ele>845</ele>
        <time>2021-08-02T12:12:33.429Z</time>
      </trkpt>
      <trkpt lat="47.02353" lon="8.94586">
        <ele>847</ele>
        <time>2021-08-02T12:12:38.448Z</time>
      </trkpt>
      <trkpt lat="47.02353" lon="8.94587">
        <ele>847</ele>
        <time>2021-08-02T12:12:40.322Z</time>
      </trkpt>
      <trkpt lat="47.02353" lon="8.94587">
        <ele>847</ele>
        <time>2021-08-02T12:12:41.322Z</time>
      </trkpt>
      <trkpt lat="47.02348" lon="8.94581">
        <ele>859</ele>
        <time>2021-08-02T12:12:51.179Z</time>
      </trkpt>
      <trkpt lat="47.02348" lon="8.94581">
        <ele>859</ele>
        <time>2021-08-02T12:12:52.179Z</time>
      </trkpt>
      <trkpt lat="47.02349" lon="8.94582">
        <ele>855</ele>
        <time>2021-08-02T12:12:53.179Z</time>
      </trkpt>
      <trkpt lat="47.02349" lon="8.94583">
        <ele>855</ele>
        <time>2021-08-02T12:12:58.196Z</time>
      </trkpt>
      <trkpt lat="47.02349" lon="8.94585">
        <ele>855</ele>
        <time>2021-08-02T12:12:59.196Z</time>
      </trkpt>
      <trkpt lat="47.02349" lon="8.94585">
        <ele>855</ele>
        <time>2021-08-02T12:13:00.196Z</time>
      </trkpt>
      <trkpt lat="47.02349" lon="8.94586">
        <ele>855</ele>
        <time>2021-08-02T12:13:08.308Z</time>
      </trkpt>
      <trkpt lat="47.02349" lon="8.94586">
        <ele>855</ele>
        <time>2021-08-02T12:13:09.307Z</time>
      </trkpt>
      <trkpt lat="47.02349" lon="8.94586">
        <ele>855</ele>
        <time>2021-08-02T12:13:10.307Z</time>
      </trkpt>
      <trkpt lat="47.02348" lon="8.94588">
        <ele>850</ele>
        <time>2021-08-02T12:13:11.307Z</time>
      </trkpt>
      <trkpt lat="47.02348" lon="8.94588">
        <ele>850</ele>
        <time>2021-08-02T12:13:12.308Z</time>
      </trkpt>
      <trkpt lat="47.02348" lon="8.94588">
        <ele>850</ele>
        <time>2021-08-02T12:13:13.308Z</time>
      </trkpt>
      <trkpt lat="47.02349" lon="8.94587">
        <ele>850</ele>
        <time>2021-08-02T12:13:14.308Z</time>
      </trkpt>
      <trkpt lat="47.02348" lon="8.94587">
        <ele>850</ele>
        <time>2021-08-02T12:13:15.307Z</time>
      </trkpt>
      <trkpt lat="47.02348" lon="8.94586">
        <ele>850</ele>
        <time>2021-08-02T12:13:16.308Z</time>
      </trkpt>
      <trkpt lat="47.02347" lon="8.94584">
        <ele>850</ele>
        <time>2021-08-02T12:13:17.307Z</time>
      </trkpt>
      <trkpt lat="47.02347" lon="8.94584">
        <ele>850</ele>
        <time>2021-08-02T12:13:18.308Z</time>
      </trkpt>
      <trkpt lat="47.02347" lon="8.94581">
        <ele>852</ele>
        <time>2021-08-02T12:13:19.307Z</time>
      </trkpt>
      <trkpt lat="47.02347" lon="8.9458">
        <ele>853</ele>
        <time>2021-08-02T12:13:21.346Z</time>
      </trkpt>
      <trkpt lat="47.02348" lon="8.94579">
        <ele>853</ele>
        <time>2021-08-02T12:13:22.346Z</time>
      </trkpt>
      <trkpt lat="47.02347" lon="8.94578">
        <ele>853</ele>
        <time>2021-08-02T12:13:23.346Z</time>
      </trkpt>
      <trkpt lat="47.02346" lon="8.94577">
        <ele>853</ele>
        <time>2021-08-02T12:13:26.449Z</time>
      </trkpt>
      <trkpt lat="47.02347" lon="8.94576">
        <ele>853</ele>
        <time>2021-08-02T12:13:27.450Z</time>
      </trkpt>
      <trkpt lat="47.02347" lon="8.94576">
        <ele>853</ele>
        <time>2021-08-02T12:13:28.449Z</time>
      </trkpt>
      <trkpt lat="47.02348" lon="8.94576">
        <ele>853</ele>
        <time>2021-08-02T12:13:29.449Z</time>
      </trkpt>
      <trkpt lat="47.02348" lon="8.94575">
        <ele>853</ele>
        <time>2021-08-02T12:13:30.449Z</time>
      </trkpt>
      <trkpt lat="47.02348" lon="8.94574">
        <ele>853</ele>
        <time>2021-08-02T12:13:32.547Z</time>
      </trkpt>
      <trkpt lat="47.02348" lon="8.94573">
        <ele>853</ele>
        <time>2021-08-02T12:13:33.548Z</time>
      </trkpt>
      <trkpt lat="47.02347" lon="8.94572">
        <ele>853</ele>
        <time>2021-08-02T12:13:41.452Z</time>
      </trkpt>
      <trkpt lat="47.02346" lon="8.94571">
        <ele>853</ele>
        <time>2021-08-02T12:13:42.452Z</time>
      </trkpt>
      <trkpt lat="47.02346" lon="8.94572">
        <ele>853</ele>
        <time>2021-08-02T12:13:43.453Z</time>
      </trkpt>
      <trkpt lat="47.02346" lon="8.94572">
        <ele>853</ele>
        <time>2021-08-02T12:13:51.558Z</time>
      </trkpt>
      <trkpt lat="47.02343" lon="8.94572">
        <ele>854</ele>
        <time>2021-08-02T12:13:52.560Z</time>
      </trkpt>
      <trkpt lat="47.02342" lon="8.94573">
        <ele>854</ele>
        <time>2021-08-02T12:13:53.559Z</time>
      </trkpt>
      <trkpt lat="47.02342" lon="8.94574">
        <ele>854</ele>
        <time>2021-08-02T12:13:54.559Z</time>
      </trkpt>
      <trkpt lat="47.02342" lon="8.94575">
        <ele>855</ele>
        <time>2021-08-02T12:13:55.560Z</time>
      </trkpt>
      <trkpt lat="47.02342" lon="8.94575">
        <ele>855</ele>
        <time>2021-08-02T12:13:56.560Z</time>
      </trkpt>
      <trkpt lat="47.02344" lon="8.94579">
        <ele>853</ele>
        <time>2021-08-02T12:14:01.600Z</time>
      </trkpt>
      <trkpt lat="47.02344" lon="8.94579">
        <ele>853</ele>
        <time>2021-08-02T12:14:02.601Z</time>
      </trkpt>
      <trkpt lat="47.02344" lon="8.9458">
        <ele>852</ele>
        <time>2021-08-02T12:14:03.600Z</time>
      </trkpt>
      <trkpt lat="47.02345" lon="8.94585">
        <ele>848</ele>
        <time>2021-08-02T12:14:04.600Z</time>
      </trkpt>
      <trkpt lat="47.02345" lon="8.94585">
        <ele>849</ele>
        <time>2021-08-02T12:14:05.602Z</time>
      </trkpt>
      <trkpt lat="47.02346" lon="8.94585">
        <ele>849</ele>
        <time>2021-08-02T12:14:06.602Z</time>
      </trkpt>
      <trkpt lat="47.02346" lon="8.94585">
        <ele>849</ele>
        <time>2021-08-02T12:14:07.601Z</time>
      </trkpt>
      <trkpt lat="47.02347" lon="8.94586">
        <ele>850</ele>
        <time>2021-08-02T12:14:08.601Z</time>
      </trkpt>
      <trkpt lat="47.02347" lon="8.94586">
        <ele>850</ele>
        <time>2021-08-02T12:14:09.602Z</time>
      </trkpt>
      <trkpt lat="47.02344" lon="8.94588">
        <ele>854</ele>
        <time>2021-08-02T12:14:10.602Z</time>
      </trkpt>
      <trkpt lat="47.02345" lon="8.94589">
        <ele>855</ele>
        <time>2021-08-02T12:14:11.602Z</time>
      </trkpt>
      <trkpt lat="47.02345" lon="8.94589">
        <ele>856</ele>
        <time>2021-08-02T12:14:12.602Z</time>
      </trkpt>
      <trkpt lat="47.02346" lon="8.94591">
        <ele>858</ele>
        <time>2021-08-02T12:14:13.604Z</time>
      </trkpt>
      <trkpt lat="47.02346" lon="8.94591">
        <ele>859</ele>
        <time>2021-08-02T12:14:17.723Z</time>
      </trkpt>
      <trkpt lat="47.02346" lon="8.94592">
        <ele>860</ele>
        <time>2021-08-02T12:14:18.723Z</time>
      </trkpt>
      <trkpt lat="47.02347" lon="8.94593">
        <ele>860</ele>
        <time>2021-08-02T12:14:19.723Z</time>
      </trkpt>
      <trkpt lat="47.02346" lon="8.94593">
        <ele>860</ele>
        <time>2021-08-02T12:14:20.723Z</time>
      </trkpt>
      <trkpt lat="47.02345" lon="8.94593">
        <ele>861</ele>
        <time>2021-08-02T12:14:21.723Z</time>
      </trkpt>
      <trkpt lat="47.02345" lon="8.94593">
        <ele>861</ele>
        <time>2021-08-02T12:14:22.723Z</time>
      </trkpt>
      <trkpt lat="47.02344" lon="8.94592">
        <ele>861</ele>
        <time>2021-08-02T12:14:23.723Z</time>
      </trkpt>
      <trkpt lat="47.02343" lon="8.94591">
        <ele>861</ele>
        <time>2021-08-02T12:14:24.724Z</time>
      </trkpt>
      <trkpt lat="47.02343" lon="8.9459">
        <ele>861</ele>
        <time>2021-08-02T12:14:25.723Z</time>
      </trkpt>
      <trkpt lat="47.02342" lon="8.9459">
        <ele>861</ele>
        <time>2021-08-02T12:14:26.723Z</time>
      </trkpt>
      <trkpt lat="47.02342" lon="8.9459">
        <ele>861</ele>
        <time>2021-08-02T12:14:27.723Z</time>
      </trkpt>
      <trkpt lat="47.02343" lon="8.94591">
        <ele>861</ele>
        <time>2021-08-02T12:14:28.723Z</time>
      </trkpt>
      <trkpt lat="47.02343" lon="8.9459">
        <ele>854</ele>
        <time>2021-08-02T12:14:31.665Z</time>
      </trkpt>
      <trkpt lat="47.02342" lon="8.9459">
        <ele>853</ele>
        <time>2021-08-02T12:14:32.665Z</time>
      </trkpt>
      <trkpt lat="47.02341" lon="8.9459">
        <ele>853</ele>
        <time>2021-08-02T12:14:33.665Z</time>
      </trkpt>
      <trkpt lat="47.02341" lon="8.9459">
        <ele>852</ele>
        <time>2021-08-02T12:14:34.665Z</time>
      </trkpt>
      <trkpt lat="47.02342" lon="8.9459">
        <ele>852</ele>
        <time>2021-08-02T12:14:35.665Z</time>
      </trkpt>
      <trkpt lat="47.02343" lon="8.9459">
        <ele>852</ele>
        <time>2021-08-02T12:14:36.665Z</time>
      </trkpt>
      <trkpt lat="47.02343" lon="8.9459">
        <ele>851</ele>
        <time>2021-08-02T12:14:40.875Z</time>
      </trkpt>
      <trkpt lat="47.02344" lon="8.94589">
        <ele>851</ele>
        <time>2021-08-02T12:14:41.874Z</time>
      </trkpt>
      <trkpt lat="47.02344" lon="8.94589">
        <ele>852</ele>
        <time>2021-08-02T12:14:42.875Z</time>
      </trkpt>
      <trkpt lat="47.02344" lon="8.9459">
        <ele>852</ele>
        <time>2021-08-02T12:14:43.874Z</time>
      </trkpt>
      <trkpt lat="47.02345" lon="8.9459">
        <ele>852</ele>
        <time>2021-08-02T12:14:44.875Z</time>
      </trkpt>
      <trkpt lat="47.02346" lon="8.9459">
        <ele>852</ele>
        <time>2021-08-02T12:14:45.874Z</time>
      </trkpt>
      <trkpt lat="47.02346" lon="8.9459">
        <ele>852</ele>
        <time>2021-08-02T12:14:46.875Z</time>
      </trkpt>
      <trkpt lat="47.02345" lon="8.9459">
        <ele>852</ele>
        <time>2021-08-02T12:14:47.875Z</time>
      </trkpt>
      <trkpt lat="47.02345" lon="8.94591">
        <ele>851</ele>
        <time>2021-08-02T12:14:48.875Z</time>
      </trkpt>
      <trkpt lat="47.02345" lon="8.9459">
        <ele>851</ele>
        <time>2021-08-02T12:14:49.875Z</time>
      </trkpt>
      <trkpt lat="47.02344" lon="8.94588">
        <ele>851</ele>
        <time>2021-08-02T12:14:50.875Z</time>
      </trkpt>
      <trkpt lat="47.02343" lon="8.94585">
        <ele>851</ele>
        <time>2021-08-02T12:14:51.875Z</time>
      </trkpt>
      <trkpt lat="47.02341" lon="8.94583">
        <ele>851</ele>
        <time>2021-08-02T12:14:52.875Z</time>
      </trkpt>
      <trkpt lat="47.02342" lon="8.94582">
        <ele>851</ele>
        <time>2021-08-02T12:14:53.874Z</time>
      </trkpt>
      <trkpt lat="47.02342" lon="8.94581">
        <ele>851</ele>
        <time>2021-08-02T12:14:54.875Z</time>
      </trkpt>
      <trkpt lat="47.02342" lon="8.9458">
        <ele>851</ele>
        <time>2021-08-02T12:14:55.875Z</time>
      </trkpt>
      <trkpt lat="47.02343" lon="8.9458">
        <ele>851</ele>
        <time>2021-08-02T12:14:56.874Z</time>
      </trkpt>
      <trkpt lat="47.02344" lon="8.94581">
        <ele>851</ele>
        <time>2021-08-02T12:14:57.874Z</time>
      </trkpt>
      <trkpt lat="47.02344" lon="8.94581">
        <ele>851</ele>
        <time>2021-08-02T12:14:58.875Z</time>
      </trkpt>
      <trkpt lat="47.02344" lon="8.94581">
        <ele>852</ele>
        <time>2021-08-02T12:14:59.875Z</time>
      </trkpt>
      <trkpt lat="47.02344" lon="8.9458">
        <ele>852</ele>
        <time>2021-08-02T12:15:00.875Z</time>
      </trkpt>
      <trkpt lat="47.02344" lon="8.9458">
        <ele>852</ele>
        <time>2021-08-02T12:15:01.875Z</time>
      </trkpt>
      <trkpt lat="47.02343" lon="8.9458">
        <ele>852</ele>
        <time>2021-08-02T12:15:02.876Z</time>
      </trkpt>
      <trkpt lat="47.02343" lon="8.94579">
        <ele>852</ele>
        <time>2021-08-02T12:15:03.876Z</time>
      </trkpt>
      <trkpt lat="47.02343" lon="8.9458">
        <ele>852</ele>
        <time>2021-08-02T12:15:04.876Z</time>
      </trkpt>
      <trkpt lat="47.02343" lon="8.94579">
        <ele>852</ele>
        <time>2021-08-02T12:15:05.876Z</time>
      </trkpt>
      <trkpt lat="47.02343" lon="8.94579">
        <ele>852</ele>
        <time>2021-08-02T12:15:06.875Z</time>
      </trkpt>
      <trkpt lat="47.02351" lon="8.94586">
        <ele>855</ele>
        <time>2021-08-02T12:15:07.875Z</time>
      </trkpt>
      <trkpt lat="47.02351" lon="8.94585">
        <ele>856</ele>
        <time>2021-08-02T12:15:08.875Z</time>
      </trkpt>
      <trkpt lat="47.02354" lon="8.94587">
        <ele>857</ele>
        <time>2021-08-02T12:15:09.876Z</time>
      </trkpt>
      <trkpt lat="47.02355" lon="8.94589">
        <ele>858</ele>
        <time>2021-08-02T12:15:10.876Z</time>
      </trkpt>
      <trkpt lat="47.02356" lon="8.94591">
        <ele>858</ele>
        <time>2021-08-02T12:15:11.876Z</time>
      </trkpt>
      <trkpt lat="47.02358" lon="8.94593">
        <ele>859</ele>
        <time>2021-08-02T12:15:12.877Z</time>
      </trkpt>
      <trkpt lat="47.02359" lon="8.94595">
        <ele>861</ele>
        <time>2021-08-02T12:15:13.877Z</time>
      </trkpt>
      <trkpt lat="47.02359" lon="8.94594">
        <ele>861</ele>
        <time>2021-08-02T12:15:14.877Z</time>
      </trkpt>
      <trkpt lat="47.02359" lon="8.94594">
        <ele>862</ele>
        <time>2021-08-02T12:15:15.877Z</time>
      </trkpt>
      <trkpt lat="47.02359" lon="8.94593">
        <ele>862</ele>
        <time>2021-08-02T12:15:16.876Z</time>
      </trkpt>
      <trkpt lat="47.02359" lon="8.94592">
        <ele>862</ele>
        <time>2021-08-02T12:15:17.876Z</time>
      </trkpt>
      <trkpt lat="47.02359" lon="8.94591">
        <ele>862</ele>
        <time>2021-08-02T12:15:18.876Z</time>
      </trkpt>
      <trkpt lat="47.02359" lon="8.9459">
        <ele>861</ele>
        <time>2021-08-02T12:15:20.927Z</time>
      </trkpt>
      <trkpt lat="47.0236" lon="8.94591">
        <ele>861</ele>
        <time>2021-08-02T12:15:21.927Z</time>
      </trkpt>
      <trkpt lat="47.0236" lon="8.94592">
        <ele>861</ele>
        <time>2021-08-02T12:15:22.927Z</time>
      </trkpt>
      <trkpt lat="47.0236" lon="8.94592">
        <ele>861</ele>
        <time>2021-08-02T12:15:23.927Z</time>
      </trkpt>
      <trkpt lat="47.0236" lon="8.94593">
        <ele>860</ele>
        <time>2021-08-02T12:15:24.927Z</time>
      </trkpt>
      <trkpt lat="47.02361" lon="8.94592">
        <ele>859</ele>
        <time>2021-08-02T12:15:25.927Z</time>
      </trkpt>
      <trkpt lat="47.02361" lon="8.94591">
        <ele>858</ele>
        <time>2021-08-02T12:15:30.953Z</time>
      </trkpt>
      <trkpt lat="47.02361" lon="8.94591">
        <ele>858</ele>
        <time>2021-08-02T12:15:31.953Z</time>
      </trkpt>
      <trkpt lat="47.02359" lon="8.9459">
        <ele>858</ele>
        <time>2021-08-02T12:15:32.953Z</time>
      </trkpt>
      <trkpt lat="47.02359" lon="8.94589">
        <ele>858</ele>
        <time>2021-08-02T12:15:33.953Z</time>
      </trkpt>
      <trkpt lat="47.02359" lon="8.94589">
        <ele>858</ele>
        <time>2021-08-02T12:15:38.066Z</time>
      </trkpt>
      <trkpt lat="47.02358" lon="8.94589">
        <ele>858</ele>
        <time>2021-08-02T12:15:39.066Z</time>
      </trkpt>
      <trkpt lat="47.02359" lon="8.94589">
        <ele>859</ele>
        <time>2021-08-02T12:15:40.066Z</time>
      </trkpt>
      <trkpt lat="47.0236" lon="8.9459">
        <ele>859</ele>
        <time>2021-08-02T12:15:42.218Z</time>
      </trkpt>
      <trkpt lat="47.0236" lon="8.9459">
        <ele>859</ele>
        <time>2021-08-02T12:15:43.218Z</time>
      </trkpt>
      <trkpt lat="47.02359" lon="8.94589">
        <ele>860</ele>
        <time>2021-08-02T12:15:44.219Z</time>
      </trkpt>
      <trkpt lat="47.02359" lon="8.94589">
        <ele>860</ele>
        <time>2021-08-02T12:15:45.218Z</time>
      </trkpt>
      <trkpt lat="47.02359" lon="8.94589">
        <ele>860</ele>
        <time>2021-08-02T12:15:46.218Z</time>
      </trkpt>
      <trkpt lat="47.02358" lon="8.94589">
        <ele>860</ele>
        <time>2021-08-02T12:15:47.218Z</time>
      </trkpt>
      <trkpt lat="47.02354" lon="8.94587">
        <ele>854</ele>
        <time>2021-08-02T12:15:51.352Z</time>
      </trkpt>
      <trkpt lat="47.02354" lon="8.94587">
        <ele>854</ele>
        <time>2021-08-02T12:15:52.351Z</time>
      </trkpt>
      <trkpt lat="47.02354" lon="8.94588">
        <ele>854</ele>
        <time>2021-08-02T12:15:53.351Z</time>
      </trkpt>
      <trkpt lat="47.02354" lon="8.94586">
        <ele>851</ele>
        <time>2021-08-02T12:15:54.352Z</time>
      </trkpt>
      <trkpt lat="47.02354" lon="8.94586">
        <ele>851</ele>
        <time>2021-08-02T12:15:55.352Z</time>
      </trkpt>
      <trkpt lat="47.02354" lon="8.94586">
        <ele>853</ele>
        <time>2021-08-02T12:15:56.353Z</time>
      </trkpt>
      <trkpt lat="47.02354" lon="8.94586">
        <ele>854</ele>
        <time>2021-08-02T12:15:57.353Z</time>
      </trkpt>
      <trkpt lat="47.02354" lon="8.94585">
        <ele>854</ele>
        <time>2021-08-02T12:15:58.352Z</time>
      </trkpt>
      <trkpt lat="47.02351" lon="8.94578">
        <ele>856</ele>
        <time>2021-08-02T12:15:59.353Z</time>
      </trkpt>
      <trkpt lat="47.02351" lon="8.94576">
        <ele>856</ele>
        <time>2021-08-02T12:16:00.353Z</time>
      </trkpt>
      <trkpt lat="47.0235" lon="8.94575">
        <ele>856</ele>
        <time>2021-08-02T12:16:01.352Z</time>
      </trkpt>
      <trkpt lat="47.0235" lon="8.94574">
        <ele>857</ele>
        <time>2021-08-02T12:16:02.353Z</time>
      </trkpt>
      <trkpt lat="47.02349" lon="8.94573">
        <ele>854</ele>
        <time>2021-08-02T12:16:03.352Z</time>
      </trkpt>
      <trkpt lat="47.02349" lon="8.94574">
        <ele>854</ele>
        <time>2021-08-02T12:16:04.352Z</time>
      </trkpt>
      <trkpt lat="47.02349" lon="8.94575">
        <ele>854</ele>
        <time>2021-08-02T12:16:05.353Z</time>
      </trkpt>
      <trkpt lat="47.02349" lon="8.94575">
        <ele>855</ele>
        <time>2021-08-02T12:16:06.353Z</time>
      </trkpt>
      <trkpt lat="47.02349" lon="8.94575">
        <ele>855</ele>
        <time>2021-08-02T12:16:07.353Z</time>
      </trkpt>
      <trkpt lat="47.0235" lon="8.94575">
        <ele>855</ele>
        <time>2021-08-02T12:16:08.353Z</time>
      </trkpt>
      <trkpt lat="47.02351" lon="8.94577">
        <ele>855</ele>
        <time>2021-08-02T12:16:09.353Z</time>
      </trkpt>
      <trkpt lat="47.02352" lon="8.94577">
        <ele>856</ele>
        <time>2021-08-02T12:16:10.352Z</time>
      </trkpt>
      <trkpt lat="47.02353" lon="8.94578">
        <ele>856</ele>
        <time>2021-08-02T12:16:11.352Z</time>
      </trkpt>
      <trkpt lat="47.02353" lon="8.94578">
        <ele>856</ele>
        <time>2021-08-02T12:16:12.353Z</time>
      </trkpt>
      <trkpt lat="47.02357" lon="8.94579">
        <ele>859</ele>
        <time>2021-08-02T12:16:13.354Z</time>
      </trkpt>
      <trkpt lat="47.02357" lon="8.94578">
        <ele>859</ele>
        <time>2021-08-02T12:16:14.353Z</time>
      </trkpt>
      <trkpt lat="47.02356" lon="8.94577">
        <ele>860</ele>
        <time>2021-08-02T12:16:15.353Z</time>
      </trkpt>
      <trkpt lat="47.02353" lon="8.94576">
        <ele>866</ele>
        <time>2021-08-02T12:16:16.355Z</time>
      </trkpt>
      <trkpt lat="47.02353" lon="8.94577">
        <ele>866</ele>
        <time>2021-08-02T12:16:17.354Z</time>
      </trkpt>
      <trkpt lat="47.02353" lon="8.94576">
        <ele>867</ele>
        <time>2021-08-02T12:16:18.354Z</time>
      </trkpt>
      <trkpt lat="47.02353" lon="8.94576">
        <ele>868</ele>
        <time>2021-08-02T12:16:19.354Z</time>
      </trkpt>
      <trkpt lat="47.02355" lon="8.94572">
        <ele>873</ele>
        <time>2021-08-02T12:16:20.355Z</time>
      </trkpt>
      <trkpt lat="47.02356" lon="8.94571">
        <ele>874</ele>
        <time>2021-08-02T12:16:21.354Z</time>
      </trkpt>
      <trkpt lat="47.02355" lon="8.94571">
        <ele>875</ele>
        <time>2021-08-02T12:16:24.431Z</time>
      </trkpt>
      <trkpt lat="47.02355" lon="8.94573">
        <ele>875</ele>
        <time>2021-08-02T12:16:25.430Z</time>
      </trkpt>
      <trkpt lat="47.02355" lon="8.94572">
        <ele>876</ele>
        <time>2021-08-02T12:16:26.430Z</time>
      </trkpt>
      <trkpt lat="47.02351" lon="8.94578">
        <ele>876</ele>
        <time>2021-08-02T12:16:27.432Z</time>
      </trkpt>
      <trkpt lat="47.02351" lon="8.94577">
        <ele>876</ele>
        <time>2021-08-02T12:16:28.432Z</time>
      </trkpt>
      <trkpt lat="47.02351" lon="8.94575">
        <ele>876</ele>
        <time>2021-08-02T12:16:29.431Z</time>
      </trkpt>
      <trkpt lat="47.02351" lon="8.9457">
        <ele>871</ele>
        <time>2021-08-02T12:16:30.432Z</time>
      </trkpt>
      <trkpt lat="47.02351" lon="8.9457">
        <ele>871</ele>
        <time>2021-08-02T12:16:31.432Z</time>
      </trkpt>
      <trkpt lat="47.02351" lon="8.9457">
        <ele>870</ele>
        <time>2021-08-02T12:16:32.431Z</time>
      </trkpt>
      <trkpt lat="47.02352" lon="8.9457">
        <ele>870</ele>
        <time>2021-08-02T12:16:33.431Z</time>
      </trkpt>
      <trkpt lat="47.02352" lon="8.94569">
        <ele>869</ele>
        <time>2021-08-02T12:16:34.432Z</time>
      </trkpt>
      <trkpt lat="47.02351" lon="8.94567">
        <ele>869</ele>
        <time>2021-08-02T12:16:35.432Z</time>
      </trkpt>
      <trkpt lat="47.0235" lon="8.94565">
        <ele>869</ele>
        <time>2021-08-02T12:16:36.431Z</time>
      </trkpt>
      <trkpt lat="47.0235" lon="8.94565">
        <ele>869</ele>
        <time>2021-08-02T12:16:37.432Z</time>
      </trkpt>
      <trkpt lat="47.02349" lon="8.94565">
        <ele>869</ele>
        <time>2021-08-02T12:16:38.431Z</time>
      </trkpt>
      <trkpt lat="47.02347" lon="8.94565">
        <ele>868</ele>
        <time>2021-08-02T12:16:39.432Z</time>
      </trkpt>
      <trkpt lat="47.02345" lon="8.94565">
        <ele>868</ele>
        <time>2021-08-02T12:16:40.432Z</time>
      </trkpt>
      <trkpt lat="47.02344" lon="8.94566">
        <ele>868</ele>
        <time>2021-08-02T12:16:41.432Z</time>
      </trkpt>
      <trkpt lat="47.02344" lon="8.94567">
        <ele>867</ele>
        <time>2021-08-02T12:16:42.431Z</time>
      </trkpt>
      <trkpt lat="47.02343" lon="8.94566">
        <ele>867</ele>
        <time>2021-08-02T12:16:43.432Z</time>
      </trkpt>
      <trkpt lat="47.02343" lon="8.94566">
        <ele>867</ele>
        <time>2021-08-02T12:16:44.431Z</time>
      </trkpt>
      <trkpt lat="47.02343" lon="8.94567">
        <ele>866</ele>
        <time>2021-08-02T12:16:45.432Z</time>
      </trkpt>
      <trkpt lat="47.02344" lon="8.94568">
        <ele>866</ele>
        <time>2021-08-02T12:16:46.432Z</time>
      </trkpt>
      <trkpt lat="47.02348" lon="8.94579">
        <ele>860</ele>
        <time>2021-08-02T12:16:47.431Z</time>
      </trkpt>
      <trkpt lat="47.02347" lon="8.9458">
        <ele>860</ele>
        <time>2021-08-02T12:16:48.432Z</time>
      </trkpt>
      <trkpt lat="47.02346" lon="8.9458">
        <ele>860</ele>
        <time>2021-08-02T12:16:49.431Z</time>
      </trkpt>
      <trkpt lat="47.02347" lon="8.94581">
        <ele>861</ele>
        <time>2021-08-02T12:16:50.431Z</time>
      </trkpt>
      <trkpt lat="47.02347" lon="8.94583">
        <ele>861</ele>
        <time>2021-08-02T12:16:51.431Z</time>
      </trkpt>
      <trkpt lat="47.02347" lon="8.94584">
        <ele>862</ele>
        <time>2021-08-02T12:16:52.432Z</time>
      </trkpt>
      <trkpt lat="47.02348" lon="8.94585">
        <ele>862</ele>
        <time>2021-08-02T12:16:53.432Z</time>
      </trkpt>
      <trkpt lat="47.0235" lon="8.94586">
        <ele>862</ele>
        <time>2021-08-02T12:16:54.432Z</time>
      </trkpt>
      <trkpt lat="47.02352" lon="8.94585">
        <ele>862</ele>
        <time>2021-08-02T12:16:55.432Z</time>
      </trkpt>
      <trkpt lat="47.02353" lon="8.94584">
        <ele>863</ele>
        <time>2021-08-02T12:16:56.432Z</time>
      </trkpt>
      <trkpt lat="47.02354" lon="8.94582">
        <ele>863</ele>
        <time>2021-08-02T12:16:57.431Z</time>
      </trkpt>
      <trkpt lat="47.02354" lon="8.9458">
        <ele>864</ele>
        <time>2021-08-02T12:16:58.432Z</time>
      </trkpt>
      <trkpt lat="47.02354" lon="8.94577">
        <ele>867</ele>
        <time>2021-08-02T12:16:59.431Z</time>
      </trkpt>
      <trkpt lat="47.02355" lon="8.94577">
        <ele>867</ele>
        <time>2021-08-02T12:17:00.432Z</time>
      </trkpt>
      <trkpt lat="47.02355" lon="8.94576">
        <ele>867</ele>
        <time>2021-08-02T12:17:01.431Z</time>
      </trkpt>
      <trkpt lat="47.02354" lon="8.94576">
        <ele>866</ele>
        <time>2021-08-02T12:17:02.432Z</time>
      </trkpt>
      <trkpt lat="47.02353" lon="8.94575">
        <ele>867</ele>
        <time>2021-08-02T12:17:03.431Z</time>
      </trkpt>
      <trkpt lat="47.02353" lon="8.94574">
        <ele>867</ele>
        <time>2021-08-02T12:17:04.432Z</time>
      </trkpt>
      <trkpt lat="47.02353" lon="8.94574">
        <ele>867</ele>
        <time>2021-08-02T12:17:05.431Z</time>
      </trkpt>
      <trkpt lat="47.02352" lon="8.94577">
        <ele>865</ele>
        <time>2021-08-02T12:17:06.431Z</time>
      </trkpt>
      <trkpt lat="47.02352" lon="8.94577">
        <ele>864</ele>
        <time>2021-08-02T12:17:07.431Z</time>
      </trkpt>
      <trkpt lat="47.02352" lon="8.94576">
        <ele>864</ele>
        <time>2021-08-02T12:17:08.431Z</time>
      </trkpt>
      <trkpt lat="47.02353" lon="8.94576">
        <ele>864</ele>
        <time>2021-08-02T12:17:09.431Z</time>
      </trkpt>
      <trkpt lat="47.02353" lon="8.94576">
        <ele>864</ele>
        <time>2021-08-02T12:17:10.431Z</time>
      </trkpt>
      <trkpt lat="47.02352" lon="8.94574">
        <ele>862</ele>
        <time>2021-08-02T12:17:11.432Z</time>
      </trkpt>
      <trkpt lat="47.02352" lon="8.94576">
        <ele>862</ele>
        <time>2021-08-02T12:17:12.432Z</time>
      </trkpt>
      <trkpt lat="47.02352" lon="8.94576">
        <ele>863</ele>
        <time>2021-08-02T12:17:13.432Z</time>
      </trkpt>
      <trkpt lat="47.02354" lon="8.94577">
        <ele>869</ele>
        <time>2021-08-02T12:17:14.432Z</time>
      </trkpt>
      <trkpt lat="47.02354" lon="8.94579">
        <ele>869</ele>
        <time>2021-08-02T12:17:15.432Z</time>
      </trkpt>
      <trkpt lat="47.02355" lon="8.94579">
        <ele>869</ele>
        <time>2021-08-02T12:17:16.433Z</time>
      </trkpt>
      <trkpt lat="47.02353" lon="8.94578">
        <ele>868</ele>
        <time>2021-08-02T12:17:17.432Z</time>
      </trkpt>
      <trkpt lat="47.02352" lon="8.94578">
        <ele>868</ele>
        <time>2021-08-02T12:17:18.432Z</time>
      </trkpt>
      <trkpt lat="47.02354" lon="8.94574">
        <ele>869</ele>
        <time>2021-08-02T12:17:19.433Z</time>
      </trkpt>
      <trkpt lat="47.02354" lon="8.94574">
        <ele>869</ele>
        <time>2021-08-02T12:17:20.434Z</time>
      </trkpt>
      <trkpt lat="47.02354" lon="8.94573">
        <ele>869</ele>
        <time>2021-08-02T12:17:21.433Z</time>
      </trkpt>
      <trkpt lat="47.02353" lon="8.94574">
        <ele>869</ele>
        <time>2021-08-02T12:17:22.434Z</time>
      </trkpt>
      <trkpt lat="47.02352" lon="8.94573">
        <ele>869</ele>
        <time>2021-08-02T12:17:23.435Z</time>
      </trkpt>
      <trkpt lat="47.02352" lon="8.94572">
        <ele>867</ele>
        <time>2021-08-02T12:17:24.435Z</time>
      </trkpt>
      <trkpt lat="47.02353" lon="8.94572">
        <ele>867</ele>
        <time>2021-08-02T12:17:25.435Z</time>
      </trkpt>
      <trkpt lat="47.02353" lon="8.94572">
        <ele>867</ele>
        <time>2021-08-02T12:17:26.434Z</time>
      </trkpt>
      <trkpt lat="47.02351" lon="8.94578">
        <ele>851</ele>
        <time>2021-08-02T12:17:27.435Z</time>
      </trkpt>
      <trkpt lat="47.02351" lon="8.94579">
        <ele>850</ele>
        <time>2021-08-02T12:17:28.435Z</time>
      </trkpt>
      <trkpt lat="47.02351" lon="8.94579">
        <ele>850</ele>
        <time>2021-08-02T12:17:29.434Z</time>
      </trkpt>
      <trkpt lat="47.02351" lon="8.94578">
        <ele>850</ele>
        <time>2021-08-02T12:17:30.435Z</time>
      </trkpt>
      <trkpt lat="47.02352" lon="8.94578">
        <ele>849</ele>
        <time>2021-08-02T12:17:31.435Z</time>
      </trkpt>
      <trkpt lat="47.02353" lon="8.94583">
        <ele>848</ele>
        <time>2021-08-02T12:17:32.437Z</time>
      </trkpt>
      <trkpt lat="47.02353" lon="8.94585">
        <ele>848</ele>
        <time>2021-08-02T12:17:33.437Z</time>
      </trkpt>
      <trkpt lat="47.02353" lon="8.94586">
        <ele>848</ele>
        <time>2021-08-02T12:17:34.436Z</time>
      </trkpt>
      <trkpt lat="47.02353" lon="8.94585">
        <ele>848</ele>
        <time>2021-08-02T12:17:35.436Z</time>
      </trkpt>
      <trkpt lat="47.02352" lon="8.94586">
        <ele>848</ele>
        <time>2021-08-02T12:17:36.436Z</time>
      </trkpt>
      <trkpt lat="47.02352" lon="8.94587">
        <ele>849</ele>
        <time>2021-08-02T12:17:37.436Z</time>
      </trkpt>
      <trkpt lat="47.02352" lon="8.94588">
        <ele>849</ele>
        <time>2021-08-02T12:17:38.436Z</time>
      </trkpt>
      <trkpt lat="47.02352" lon="8.9459">
        <ele>850</ele>
        <time>2021-08-02T12:17:39.436Z</time>
      </trkpt>
      <trkpt lat="47.02353" lon="8.94591">
        <ele>850</ele>
        <time>2021-08-02T12:17:40.436Z</time>
      </trkpt>
      <trkpt lat="47.02353" lon="8.94592">
        <ele>850</ele>
        <time>2021-08-02T12:17:41.436Z</time>
      </trkpt>
      <trkpt lat="47.02352" lon="8.9459">
        <ele>850</ele>
        <time>2021-08-02T12:17:42.437Z</time>
      </trkpt>
      <trkpt lat="47.02353" lon="8.9459">
        <ele>850</ele>
        <time>2021-08-02T12:17:43.437Z</time>
      </trkpt>
      <trkpt lat="47.02353" lon="8.9459">
        <ele>850</ele>
        <time>2021-08-02T12:17:44.436Z</time>
      </trkpt>
      <trkpt lat="47.02354" lon="8.9459">
        <ele>850</ele>
        <time>2021-08-02T12:17:45.437Z</time>
      </trkpt>
      <trkpt lat="47.02354" lon="8.94591">
        <ele>850</ele>
        <time>2021-08-02T12:17:46.437Z</time>
      </trkpt>
      <trkpt lat="47.02355" lon="8.94591">
        <ele>850</ele>
        <time>2021-08-02T12:17:47.437Z</time>
      </trkpt>
      <trkpt lat="47.02355" lon="8.94591">
        <ele>850</ele>
        <time>2021-08-02T12:17:48.436Z</time>
      </trkpt>
      <trkpt lat="47.02356" lon="8.94591">
        <ele>851</ele>
        <time>2021-08-02T12:17:49.436Z</time>
      </trkpt>
      <trkpt lat="47.02362" lon="8.9459">
        <ele>868</ele>
        <time>2021-08-02T12:17:50.437Z</time>
      </trkpt>
      <trkpt lat="47.02362" lon="8.94591">
        <ele>869</ele>
        <time>2021-08-02T12:17:51.437Z</time>
      </trkpt>
      <trkpt lat="47.02361" lon="8.94583">
        <ele>874</ele>
        <time>2021-08-02T12:17:52.437Z</time>
      </trkpt>
      <trkpt lat="47.02361" lon="8.94583">
        <ele>874</ele>
        <time>2021-08-02T12:17:53.437Z</time>
      </trkpt>
      <trkpt lat="47.0236" lon="8.94583">
        <ele>875</ele>
        <time>2021-08-02T12:17:54.438Z</time>
      </trkpt>
      <trkpt lat="47.02361" lon="8.94583">
        <ele>875</ele>
        <time>2021-08-02T12:17:55.438Z</time>
      </trkpt>
      <trkpt lat="47.02361" lon="8.94583">
        <ele>876</ele>
        <time>2021-08-02T12:18:02.569Z</time>
      </trkpt>
      <trkpt lat="47.0236" lon="8.94581">
        <ele>878</ele>
        <time>2021-08-02T12:18:03.569Z</time>
      </trkpt>
      <trkpt lat="47.0236" lon="8.9458">
        <ele>879</ele>
        <time>2021-08-02T12:18:04.569Z</time>
      </trkpt>
      <trkpt lat="47.0236" lon="8.9458">
        <ele>879</ele>
        <time>2021-08-02T12:18:05.569Z</time>
      </trkpt>
      <trkpt lat="47.0236" lon="8.9458">
        <ele>880</ele>
        <time>2021-08-02T12:18:06.569Z</time>
      </trkpt>
      <trkpt lat="47.0236" lon="8.94579">
        <ele>880</ele>
        <time>2021-08-02T12:18:07.569Z</time>
      </trkpt>
      <trkpt lat="47.0236" lon="8.94579">
        <ele>880</ele>
        <time>2021-08-02T12:18:08.569Z</time>
      </trkpt>
      <trkpt lat="47.0236" lon="8.94578">
        <ele>881</ele>
        <time>2021-08-02T12:18:09.569Z</time>
      </trkpt>
      <trkpt lat="47.02359" lon="8.94578">
        <ele>881</ele>
        <time>2021-08-02T12:18:10.569Z</time>
      </trkpt>
      <trkpt lat="47.02358" lon="8.94577">
        <ele>882</ele>
        <time>2021-08-02T13:07:33.374Z</time>
      </trkpt>
      <trkpt lat="47.02358" lon="8.94576">
        <ele>883</ele>
        <time>2021-08-02T13:07:34.374Z</time>
      </trkpt>
      <trkpt lat="47.02358" lon="8.94576">
        <ele>883</ele>
        <time>2021-08-02T13:07:35.374Z</time>
      </trkpt>
      <trkpt lat="47.02358" lon="8.94574">
        <ele>884</ele>
        <time>2021-08-02T13:07:36.374Z</time>
      </trkpt>
      <trkpt lat="47.02358" lon="8.94573">
        <ele>885</ele>
        <time>2021-08-02T13:07:37.374Z</time>
      </trkpt>
      <trkpt lat="47.02358" lon="8.94572">
        <ele>885</ele>
        <time>2021-08-02T13:07:38.374Z</time>
      </trkpt>
      <trkpt lat="47.02357" lon="8.94571">
        <ele>886</ele>
        <time>2021-08-02T13:07:39.374Z</time>
      </trkpt>
      <trkpt lat="47.02358" lon="8.9457">
        <ele>886</ele>
        <time>2021-08-02T13:07:40.374Z</time>
      </trkpt>
      <trkpt lat="47.02357" lon="8.94569">
        <ele>887</ele>
        <time>2021-08-02T13:07:41.374Z</time>
      </trkpt>
      <trkpt lat="47.02357" lon="8.94567">
        <ele>887</ele>
        <time>2021-08-02T13:07:42.374Z</time>
      </trkpt>
      <trkpt lat="47.02356" lon="8.94566">
        <ele>888</ele>
        <time>2021-08-02T13:07:43.374Z</time>
      </trkpt>
      <trkpt lat="47.02356" lon="8.94564">
        <ele>888</ele>
        <time>2021-08-02T13:07:44.374Z</time>
      </trkpt>
      <trkpt lat="47.02355" lon="8.94562">
        <ele>889</ele>
        <time>2021-08-02T13:07:45.374Z</time>
      </trkpt>
      <trkpt lat="47.02355" lon="8.94561">
        <ele>889</ele>
        <time>2021-08-02T13:07:46.374Z</time>
      </trkpt>
      <trkpt lat="47.02355" lon="8.9456">
        <ele>890</ele>
        <time>2021-08-02T13:07:47.374Z</time>
      </trkpt>
      <trkpt lat="47.02355" lon="8.94559">
        <ele>890</ele>
        <time>2021-08-02T13:07:48.374Z</time>
      </trkpt>
      <trkpt lat="47.02355" lon="8.94559">
        <ele>891</ele>
        <time>2021-08-02T13:07:49.374Z</time>
      </trkpt>
      <trkpt lat="47.02355" lon="8.94558">
        <ele>893</ele>
        <time>2021-08-02T13:07:50.374Z</time>
      </trkpt>
      <trkpt lat="47.02356" lon="8.94549">
        <ele>901</ele>
        <time>2021-08-02T13:07:51.375Z</time>
      </trkpt>
      <trkpt lat="47.02356" lon="8.94549">
        <ele>901</ele>
        <time>2021-08-02T13:07:52.374Z</time>
      </trkpt>
      <trkpt lat="47.02357" lon="8.94548">
        <ele>901</ele>
        <time>2021-08-02T13:07:53.375Z</time>
      </trkpt>
      <trkpt lat="47.02357" lon="8.94548">
        <ele>901</ele>
        <time>2021-08-02T13:07:54.375Z</time>
      </trkpt>
      <trkpt lat="47.02356" lon="8.94548">
        <ele>901</ele>
        <time>2021-08-02T13:07:55.374Z</time>
      </trkpt>
      <trkpt lat="47.02356" lon="8.94547">
        <ele>901</ele>
        <time>2021-08-02T13:07:56.374Z</time>
      </trkpt>
      <trkpt lat="47.02359" lon="8.94549">
        <ele>902</ele>
        <time>2021-08-02T13:07:57.375Z</time>
      </trkpt>
      <trkpt lat="47.02361" lon="8.9455">
        <ele>903</ele>
        <time>2021-08-02T13:07:58.375Z</time>
      </trkpt>
      <trkpt lat="47.0236" lon="8.94549">
        <ele>904</ele>
        <time>2021-08-02T13:07:59.376Z</time>
      </trkpt>
      <trkpt lat="47.0236" lon="8.94548">
        <ele>904</ele>
        <time>2021-08-02T13:08:00.375Z</time>
      </trkpt>
      <trkpt lat="47.02361" lon="8.94549">
        <ele>904</ele>
        <time>2021-08-02T13:08:01.375Z</time>
      </trkpt>
      <trkpt lat="47.02361" lon="8.94549">
        <ele>904</ele>
        <time>2021-08-02T13:08:02.375Z</time>
      </trkpt>
      <trkpt lat="47.02361" lon="8.94549">
        <ele>904</ele>
        <time>2021-08-02T13:08:03.375Z</time>
      </trkpt>
      <trkpt lat="47.02361" lon="8.94549">
        <ele>905</ele>
        <time>2021-08-02T13:08:04.375Z</time>
      </trkpt>
      <trkpt lat="47.02361" lon="8.94549">
        <ele>905</ele>
        <time>2021-08-02T13:08:05.375Z</time>
      </trkpt>
      <trkpt lat="47.02361" lon="8.94549">
        <ele>906</ele>
        <time>2021-08-02T13:08:06.377Z</time>
      </trkpt>
      <trkpt lat="47.02361" lon="8.94549">
        <ele>907</ele>
        <time>2021-08-02T13:08:07.376Z</time>
      </trkpt>
      <trkpt lat="47.02362" lon="8.94551">
        <ele>907</ele>
        <time>2021-08-02T13:08:10.461Z</time>
      </trkpt>
      <trkpt lat="47.02362" lon="8.94552">
        <ele>906</ele>
        <time>2021-08-02T13:08:11.461Z</time>
      </trkpt>
      <trkpt lat="47.02363" lon="8.94555">
        <ele>902</ele>
        <time>2021-08-02T13:08:12.461Z</time>
      </trkpt>
      <trkpt lat="47.02364" lon="8.94556">
        <ele>901</ele>
        <time>2021-08-02T13:08:20.492Z</time>
      </trkpt>
      <trkpt lat="47.02364" lon="8.94556">
        <ele>900</ele>
        <time>2021-08-02T13:08:21.492Z</time>
      </trkpt>
      <trkpt lat="47.02364" lon="8.94556">
        <ele>899</ele>
        <time>2021-08-02T13:08:22.493Z</time>
      </trkpt>
      <trkpt lat="47.02364" lon="8.94557">
        <ele>898</ele>
        <time>2021-08-02T13:08:23.492Z</time>
      </trkpt>
      <trkpt lat="47.02363" lon="8.94558">
        <ele>896</ele>
        <time>2021-08-02T13:08:24.493Z</time>
      </trkpt>
      <trkpt lat="47.02363" lon="8.94557">
        <ele>895</ele>
        <time>2021-08-02T13:08:25.493Z</time>
      </trkpt>
      <trkpt lat="47.02362" lon="8.94556">
        <ele>895</ele>
        <time>2021-08-02T13:08:29.573Z</time>
      </trkpt>
      <trkpt lat="47.02361" lon="8.94556">
        <ele>894</ele>
        <time>2021-08-02T13:08:30.573Z</time>
      </trkpt>
      <trkpt lat="47.02361" lon="8.94556">
        <ele>894</ele>
        <time>2021-08-02T13:08:31.573Z</time>
      </trkpt>
      <trkpt lat="47.0236" lon="8.94556">
        <ele>893</ele>
        <time>2021-08-02T13:08:32.574Z</time>
      </trkpt>
      <trkpt lat="47.0236" lon="8.9456">
        <ele>893</ele>
        <time>2021-08-02T13:08:33.574Z</time>
      </trkpt>
      <trkpt lat="47.02361" lon="8.94564">
        <ele>893</ele>
        <time>2021-08-02T13:08:34.574Z</time>
      </trkpt>
      <trkpt lat="47.02359" lon="8.94578">
        <ele>890</ele>
        <time>2021-08-02T13:08:35.574Z</time>
      </trkpt>
      <trkpt lat="47.02358" lon="8.94577">
        <ele>889</ele>
        <time>2021-08-02T13:08:36.574Z</time>
      </trkpt>
      <trkpt lat="47.02357" lon="8.94574">
        <ele>888</ele>
        <time>2021-08-02T13:08:37.574Z</time>
      </trkpt>
      <trkpt lat="47.02356" lon="8.94573">
        <ele>887</ele>
        <time>2021-08-02T13:08:38.574Z</time>
      </trkpt>
      <trkpt lat="47.02356" lon="8.94572">
        <ele>885</ele>
        <time>2021-08-02T13:08:39.574Z</time>
      </trkpt>
      <trkpt lat="47.02356" lon="8.94573">
        <ele>880</ele>
        <time>2021-08-02T13:08:40.574Z</time>
      </trkpt>
      <trkpt lat="47.02357" lon="8.94573">
        <ele>872</ele>
        <time>2021-08-02T13:08:41.573Z</time>
      </trkpt>
      <trkpt lat="47.02356" lon="8.94573">
        <ele>872</ele>
        <time>2021-08-02T13:08:42.575Z</time>
      </trkpt>
      <trkpt lat="47.02355" lon="8.94572">
        <ele>872</ele>
        <time>2021-08-02T13:08:43.575Z</time>
      </trkpt>
      <trkpt lat="47.02355" lon="8.94573">
        <ele>872</ele>
        <time>2021-08-02T13:08:44.574Z</time>
      </trkpt>
      <trkpt lat="47.02355" lon="8.94572">
        <ele>872</ele>
        <time>2021-08-02T13:08:45.574Z</time>
      </trkpt>
      <trkpt lat="47.02355" lon="8.94572">
        <ele>872</ele>
        <time>2021-08-02T13:08:46.575Z</time>
      </trkpt>
      <trkpt lat="47.02356" lon="8.94572">
        <ele>872</ele>
        <time>2021-08-02T13:08:47.575Z</time>
      </trkpt>
      <trkpt lat="47.02356" lon="8.94572">
        <ele>872</ele>
        <time>2021-08-02T13:08:48.575Z</time>
      </trkpt>
      <trkpt lat="47.02355" lon="8.9458">
        <ele>855</ele>
        <time>2021-08-02T13:08:49.576Z</time>
      </trkpt>
      <trkpt lat="47.02349" lon="8.94582">
        <ele>850</ele>
        <time>2021-08-02T13:08:50.576Z</time>
      </trkpt>
      <trkpt lat="47.0235" lon="8.94582">
        <ele>851</ele>
        <time>2021-08-02T13:08:51.575Z</time>
      </trkpt>
      <trkpt lat="47.02351" lon="8.9458">
        <ele>851</ele>
        <time>2021-08-02T13:08:52.575Z</time>
      </trkpt>
      <trkpt lat="47.02351" lon="8.94578">
        <ele>852</ele>
        <time>2021-08-02T13:08:53.576Z</time>
      </trkpt>
      <trkpt lat="47.02351" lon="8.94577">
        <ele>853</ele>
        <time>2021-08-02T13:08:58.616Z</time>
      </trkpt>
      <trkpt lat="47.02352" lon="8.94576">
        <ele>854</ele>
        <time>2021-08-02T13:08:59.617Z</time>
      </trkpt>
      <trkpt lat="47.02352" lon="8.94575">
        <ele>855</ele>
        <time>2021-08-02T13:09:00.616Z</time>
      </trkpt>
      <trkpt lat="47.02352" lon="8.94575">
        <ele>856</ele>
        <time>2021-08-02T13:09:01.617Z</time>
      </trkpt>
      <trkpt lat="47.02353" lon="8.94574">
        <ele>857</ele>
        <time>2021-08-02T13:09:02.616Z</time>
      </trkpt>
      <trkpt lat="47.02352" lon="8.94572">
        <ele>857</ele>
        <time>2021-08-02T13:09:03.616Z</time>
      </trkpt>
      <trkpt lat="47.02353" lon="8.94572">
        <ele>858</ele>
        <time>2021-08-02T13:09:04.617Z</time>
      </trkpt>
      <trkpt lat="47.02353" lon="8.94572">
        <ele>859</ele>
        <time>2021-08-02T13:09:05.617Z</time>
      </trkpt>
      <trkpt lat="47.02353" lon="8.94572">
        <ele>859</ele>
        <time>2021-08-02T13:09:06.617Z</time>
      </trkpt>
      <trkpt lat="47.02353" lon="8.94573">
        <ele>860</ele>
        <time>2021-08-02T13:09:07.617Z</time>
      </trkpt>
      <trkpt lat="47.02352" lon="8.94573">
        <ele>861</ele>
        <time>2021-08-02T13:09:08.617Z</time>
      </trkpt>
      <trkpt lat="47.02352" lon="8.94575">
        <ele>860</ele>
        <time>2021-08-02T13:09:09.617Z</time>
      </trkpt>
      <trkpt lat="47.02352" lon="8.94575">
        <ele>860</ele>
        <time>2021-08-02T13:09:10.617Z</time>
      </trkpt>
      <trkpt lat="47.02352" lon="8.94576">
        <ele>860</ele>
        <time>2021-08-02T13:09:11.616Z</time>
      </trkpt>
      <trkpt lat="47.02347" lon="8.94576">
        <ele>859</ele>
        <time>2021-08-02T13:09:12.616Z</time>
      </trkpt>
      <trkpt lat="47.02347" lon="8.94577">
        <ele>859</ele>
        <time>2021-08-02T13:09:13.617Z</time>
      </trkpt>
      <trkpt lat="47.02347" lon="8.94577">
        <ele>859</ele>
        <time>2021-08-02T13:09:14.617Z</time>
      </trkpt>
      <trkpt lat="47.02347" lon="8.94577">
        <ele>859</ele>
        <time>2021-08-02T13:09:15.617Z</time>
      </trkpt>
      <trkpt lat="47.02351" lon="8.94584">
        <ele>863</ele>
        <time>2021-08-02T13:09:16.617Z</time>
      </trkpt>
      <trkpt lat="47.0235" lon="8.94584">
        <ele>863</ele>
        <time>2021-08-02T13:09:17.617Z</time>
      </trkpt>
      <trkpt lat="47.02351" lon="8.94584">
        <ele>863</ele>
        <time>2021-08-02T13:09:18.618Z</time>
      </trkpt>
      <trkpt lat="47.0235" lon="8.9458">
        <ele>861</ele>
        <time>2021-08-02T13:09:19.617Z</time>
      </trkpt>
      <trkpt lat="47.0235" lon="8.9458">
        <ele>860</ele>
        <time>2021-08-02T13:09:20.618Z</time>
      </trkpt>
      <trkpt lat="47.0235" lon="8.9458">
        <ele>859</ele>
        <time>2021-08-02T13:09:21.617Z</time>
      </trkpt>
      <trkpt lat="47.0235" lon="8.94579">
        <ele>859</ele>
        <time>2021-08-02T13:09:22.617Z</time>
      </trkpt>
      <trkpt lat="47.0235" lon="8.94579">
        <ele>859</ele>
        <time>2021-08-02T13:09:23.618Z</time>
      </trkpt>
      <trkpt lat="47.0235" lon="8.9458">
        <ele>858</ele>
        <time>2021-08-02T13:09:24.618Z</time>
      </trkpt>
      <trkpt lat="47.02351" lon="8.9458">
        <ele>857</ele>
        <time>2021-08-02T13:09:35.715Z</time>
      </trkpt>
      <trkpt lat="47.02351" lon="8.94581">
        <ele>856</ele>
        <time>2021-08-02T13:09:36.714Z</time>
      </trkpt>
      <trkpt lat="47.02353" lon="8.94584">
        <ele>852</ele>
        <time>2021-08-02T13:09:58.616Z</time>
      </trkpt>
      <trkpt lat="47.02353" lon="8.94583">
        <ele>852</ele>
        <time>2021-08-02T13:09:59.616Z</time>
      </trkpt>
      <trkpt lat="47.02353" lon="8.94582">
        <ele>853</ele>
        <time>2021-08-02T13:10:00.615Z</time>
      </trkpt>
      <trkpt lat="47.02351" lon="8.94581">
        <ele>853</ele>
        <time>2021-08-02T13:10:01.615Z</time>
      </trkpt>
      <trkpt lat="47.0235" lon="8.94582">
        <ele>853</ele>
        <time>2021-08-02T13:10:02.615Z</time>
      </trkpt>
      <trkpt lat="47.0235" lon="8.94583">
        <ele>853</ele>
        <time>2021-08-02T13:10:03.616Z</time>
      </trkpt>
      <trkpt lat="47.02349" lon="8.94584">
        <ele>853</ele>
        <time>2021-08-02T13:10:04.616Z</time>
      </trkpt>
      <trkpt lat="47.02349" lon="8.94585">
        <ele>853</ele>
        <time>2021-08-02T13:10:05.616Z</time>
      </trkpt>
      <trkpt lat="47.02349" lon="8.94585">
        <ele>854</ele>
        <time>2021-08-02T13:10:06.616Z</time>
      </trkpt>
      <trkpt lat="47.0235" lon="8.94586">
        <ele>854</ele>
        <time>2021-08-02T13:10:07.616Z</time>
      </trkpt>
      <trkpt lat="47.0235" lon="8.94587">
        <ele>854</ele>
        <time>2021-08-02T13:10:08.616Z</time>
      </trkpt>
      <trkpt lat="47.02351" lon="8.94588">
        <ele>854</ele>
        <time>2021-08-02T13:10:09.616Z</time>
      </trkpt>
      <trkpt lat="47.02351" lon="8.94588">
        <ele>855</ele>
        <time>2021-08-02T13:10:10.615Z</time>
      </trkpt>
      <trkpt lat="47.02352" lon="8.94589">
        <ele>855</ele>
        <time>2021-08-02T13:10:11.616Z</time>
      </trkpt>
      <trkpt lat="47.02352" lon="8.94589">
        <ele>855</ele>
        <time>2021-08-02T13:10:12.616Z</time>
      </trkpt>
      <trkpt lat="47.02353" lon="8.94589">
        <ele>856</ele>
        <time>2021-08-02T13:10:13.616Z</time>
      </trkpt>
      <trkpt lat="47.02354" lon="8.94589">
        <ele>860</ele>
        <time>2021-08-02T13:10:14.616Z</time>
      </trkpt>
      <trkpt lat="47.02354" lon="8.94589">
        <ele>860</ele>
        <time>2021-08-02T13:10:15.615Z</time>
      </trkpt>
      <trkpt lat="47.02354" lon="8.94589">
        <ele>861</ele>
        <time>2021-08-02T13:10:16.616Z</time>
      </trkpt>
      <trkpt lat="47.02352" lon="8.94587">
        <ele>861</ele>
        <time>2021-08-02T13:10:17.615Z</time>
      </trkpt>
      <trkpt lat="47.02351" lon="8.94587">
        <ele>862</ele>
        <time>2021-08-02T13:10:18.615Z</time>
      </trkpt>
      <trkpt lat="47.02352" lon="8.94587">
        <ele>862</ele>
        <time>2021-08-02T13:10:19.615Z</time>
      </trkpt>
      <trkpt lat="47.02352" lon="8.94587">
        <ele>862</ele>
        <time>2021-08-02T13:10:20.616Z</time>
      </trkpt>
      <trkpt lat="47.02352" lon="8.94586">
        <ele>863</ele>
        <time>2021-08-02T13:10:21.616Z</time>
      </trkpt>
      <trkpt lat="47.02351" lon="8.94585">
        <ele>864</ele>
        <time>2021-08-02T13:10:22.616Z</time>
      </trkpt>
      <trkpt lat="47.02351" lon="8.94584">
        <ele>865</ele>
        <time>2021-08-02T13:10:23.616Z</time>
      </trkpt>
      <trkpt lat="47.0235" lon="8.94583">
        <ele>866</ele>
        <time>2021-08-02T13:10:24.616Z</time>
      </trkpt>
      <trkpt lat="47.0235" lon="8.94583">
        <ele>867</ele>
        <time>2021-08-02T13:10:25.616Z</time>
      </trkpt>
      <trkpt lat="47.0235" lon="8.94582">
        <ele>867</ele>
        <time>2021-08-02T13:10:26.616Z</time>
      </trkpt>
      <trkpt lat="47.02349" lon="8.9458">
        <ele>869</ele>
        <time>2021-08-02T13:10:27.618Z</time>
      </trkpt>
      <trkpt lat="47.02349" lon="8.94579">
        <ele>869</ele>
        <time>2021-08-02T13:10:28.618Z</time>
      </trkpt>
      <trkpt lat="47.02349" lon="8.94578">
        <ele>870</ele>
        <time>2021-08-02T13:10:29.617Z</time>
      </trkpt>
      <trkpt lat="47.02348" lon="8.94578">
        <ele>871</ele>
        <time>2021-08-02T13:10:30.618Z</time>
      </trkpt>
      <trkpt lat="47.02348" lon="8.94577">
        <ele>872</ele>
        <time>2021-08-02T13:10:31.618Z</time>
      </trkpt>
      <trkpt lat="47.02348" lon="8.94576">
        <ele>872</ele>
        <time>2021-08-02T13:10:32.618Z</time>
      </trkpt>
      <trkpt lat="47.02347" lon="8.94575">
        <ele>873</ele>
        <time>2021-08-02T13:10:33.617Z</time>
      </trkpt>
      <trkpt lat="47.02347" lon="8.94573">
        <ele>873</ele>
        <time>2021-08-02T13:10:34.617Z</time>
      </trkpt>
      <trkpt lat="47.02347" lon="8.94571">
        <ele>874</ele>
        <time>2021-08-02T13:10:35.618Z</time>
      </trkpt>
      <trkpt lat="47.02347" lon="8.9457">
        <ele>874</ele>
        <time>2021-08-02T13:10:36.618Z</time>
      </trkpt>
      <trkpt lat="47.02348" lon="8.94568">
        <ele>874</ele>
        <time>2021-08-02T13:10:37.618Z</time>
      </trkpt>
      <trkpt lat="47.0235" lon="8.94572">
        <ele>873</ele>
        <time>2021-08-02T13:10:38.617Z</time>
      </trkpt>
      <trkpt lat="47.0235" lon="8.94572">
        <ele>872</ele>
        <time>2021-08-02T13:10:39.618Z</time>
      </trkpt>
      <trkpt lat="47.0235" lon="8.94575">
        <ele>861</ele>
        <time>2021-08-02T13:10:40.619Z</time>
      </trkpt>
      <trkpt lat="47.0235" lon="8.94575">
        <ele>860</ele>
        <time>2021-08-02T13:10:41.618Z</time>
      </trkpt>
      <trkpt lat="47.02354" lon="8.94582">
        <ele>858</ele>
        <time>2021-08-02T13:10:42.619Z</time>
      </trkpt>
      <trkpt lat="47.02355" lon="8.94583">
        <ele>858</ele>
        <time>2021-08-02T13:10:43.618Z</time>
      </trkpt>
      <trkpt lat="47.02355" lon="8.94581">
        <ele>857</ele>
        <time>2021-08-02T13:10:44.620Z</time>
      </trkpt>
      <trkpt lat="47.02355" lon="8.9458">
        <ele>857</ele>
        <time>2021-08-02T13:10:45.619Z</time>
      </trkpt>
      <trkpt lat="47.02354" lon="8.9458">
        <ele>857</ele>
        <time>2021-08-02T13:10:46.620Z</time>
      </trkpt>
      <trkpt lat="47.02351" lon="8.94577">
        <ele>866</ele>
        <time>2021-08-02T13:10:54.752Z</time>
      </trkpt>
      <trkpt lat="47.02351" lon="8.94577">
        <ele>866</ele>
        <time>2021-08-02T13:10:55.751Z</time>
      </trkpt>
      <trkpt lat="47.02351" lon="8.94577">
        <ele>866</ele>
        <time>2021-08-02T13:10:56.751Z</time>
      </trkpt>
      <trkpt lat="47.02351" lon="8.94578">
        <ele>865</ele>
        <time>2021-08-02T13:10:57.752Z</time>
      </trkpt>
      <trkpt lat="47.02351" lon="8.94579">
        <ele>864</ele>
        <time>2021-08-02T13:10:58.751Z</time>
      </trkpt>
      <trkpt lat="47.02351" lon="8.94579">
        <ele>864</ele>
        <time>2021-08-02T13:10:59.751Z</time>
      </trkpt>
      <trkpt lat="47.02354" lon="8.94579">
        <ele>866</ele>
        <time>2021-08-02T13:11:00.752Z</time>
      </trkpt>
      <trkpt lat="47.02354" lon="8.94579">
        <ele>867</ele>
        <time>2021-08-02T13:11:01.753Z</time>
      </trkpt>
      <trkpt lat="47.02355" lon="8.94578">
        <ele>869</ele>
        <time>2021-08-02T13:11:02.753Z</time>
      </trkpt>
      <trkpt lat="47.02355" lon="8.94578">
        <ele>870</ele>
        <time>2021-08-02T13:11:03.753Z</time>
      </trkpt>
      <trkpt lat="47.02355" lon="8.94578">
        <ele>870</ele>
        <time>2021-08-02T13:11:04.753Z</time>
      </trkpt>
      <trkpt lat="47.02354" lon="8.94578">
        <ele>870</ele>
        <time>2021-08-02T13:11:05.753Z</time>
      </trkpt>
      <trkpt lat="47.02354" lon="8.94578">
        <ele>871</ele>
        <time>2021-08-02T13:11:06.753Z</time>
      </trkpt>
      <trkpt lat="47.02353" lon="8.94578">
        <ele>871</ele>
        <time>2021-08-02T13:11:07.753Z</time>
      </trkpt>
      <trkpt lat="47.02353" lon="8.94578">
        <ele>871</ele>
        <time>2021-08-02T13:11:08.753Z</time>
      </trkpt>
      <trkpt lat="47.02354" lon="8.94581">
        <ele>869</ele>
        <time>2021-08-02T13:11:10.869Z</time>
      </trkpt>
      <trkpt lat="47.02354" lon="8.94582">
        <ele>867</ele>
        <time>2021-08-02T13:11:11.869Z</time>
      </trkpt>
      <trkpt lat="47.02353" lon="8.94582">
        <ele>867</ele>
        <time>2021-08-02T13:11:12.869Z</time>
      </trkpt>
      <trkpt lat="47.02354" lon="8.94582">
        <ele>866</ele>
        <time>2021-08-02T13:11:13.869Z</time>
      </trkpt>
      <trkpt lat="47.02353" lon="8.94582">
        <ele>866</ele>
        <time>2021-08-02T13:11:14.869Z</time>
      </trkpt>
      <trkpt lat="47.02353" lon="8.94581">
        <ele>865</ele>
        <time>2021-08-02T13:11:15.869Z</time>
      </trkpt>
      <trkpt lat="47.02354" lon="8.94581">
        <ele>865</ele>
        <time>2021-08-02T13:11:16.870Z</time>
      </trkpt>
      <trkpt lat="47.02355" lon="8.94582">
        <ele>864</ele>
        <time>2021-08-02T13:11:17.870Z</time>
      </trkpt>
      <trkpt lat="47.02355" lon="8.94582">
        <ele>864</ele>
        <time>2021-08-02T13:11:18.869Z</time>
      </trkpt>
      <trkpt lat="47.02354" lon="8.9458">
        <ele>864</ele>
        <time>2021-08-02T13:11:19.869Z</time>
      </trkpt>
      <trkpt lat="47.02353" lon="8.9458">
        <ele>864</ele>
        <time>2021-08-02T13:11:20.870Z</time>
      </trkpt>
      <trkpt lat="47.02353" lon="8.94581">
        <ele>863</ele>
        <time>2021-08-02T13:11:21.870Z</time>
      </trkpt>
      <trkpt lat="47.02352" lon="8.94579">
        <ele>861</ele>
        <time>2021-08-02T13:11:22.870Z</time>
      </trkpt>
      <trkpt lat="47.02351" lon="8.94579">
        <ele>860</ele>
        <time>2021-08-02T13:11:23.870Z</time>
      </trkpt>
      <trkpt lat="47.02352" lon="8.9458">
        <ele>860</ele>
        <time>2021-08-02T13:11:24.870Z</time>
      </trkpt>
      <trkpt lat="47.02354" lon="8.9458">
        <ele>855</ele>
        <time>2021-08-02T13:11:25.870Z</time>
      </trkpt>
      <trkpt lat="47.02353" lon="8.94579">
        <ele>854</ele>
        <time>2021-08-02T13:11:26.870Z</time>
      </trkpt>
      <trkpt lat="47.02353" lon="8.94579">
        <ele>853</ele>
        <time>2021-08-02T13:11:27.870Z</time>
      </trkpt>
      <trkpt lat="47.02354" lon="8.94579">
        <ele>852</ele>
        <time>2021-08-02T13:11:28.871Z</time>
      </trkpt>
      <trkpt lat="47.02355" lon="8.9458">
        <ele>851</ele>
        <time>2021-08-02T13:11:29.870Z</time>
      </trkpt>
      <trkpt lat="47.02355" lon="8.9458">
        <ele>850</ele>
        <time>2021-08-02T13:11:30.870Z</time>
      </trkpt>
      <trkpt lat="47.02355" lon="8.94581">
        <ele>850</ele>
        <time>2021-08-02T13:11:31.871Z</time>
      </trkpt>
      <trkpt lat="47.02358" lon="8.94583">
        <ele>847</ele>
        <time>2021-08-02T13:11:32.871Z</time>
      </trkpt>
      <trkpt lat="47.02358" lon="8.94583">
        <ele>847</ele>
        <time>2021-08-02T13:11:33.870Z</time>
      </trkpt>
      <trkpt lat="47.02357" lon="8.94584">
        <ele>846</ele>
        <time>2021-08-02T13:11:34.872Z</time>
      </trkpt>
      <trkpt lat="47.02357" lon="8.94584">
        <ele>846</ele>
        <time>2021-08-02T13:11:35.872Z</time>
      </trkpt>
      <trkpt lat="47.02354" lon="8.94584">
        <ele>846</ele>
        <time>2021-08-02T13:11:36.872Z</time>
      </trkpt>
      <trkpt lat="47.02353" lon="8.94583">
        <ele>846</ele>
        <time>2021-08-02T13:11:37.871Z</time>
      </trkpt>
      <trkpt lat="47.02353" lon="8.94583">
        <ele>846</ele>
        <time>2021-08-02T13:11:38.871Z</time>
      </trkpt>
      <trkpt lat="47.02353" lon="8.94583">
        <ele>846</ele>
        <time>2021-08-02T13:11:39.872Z</time>
      </trkpt>
      <trkpt lat="47.02352" lon="8.94583">
        <ele>846</ele>
        <time>2021-08-02T13:11:40.872Z</time>
      </trkpt>
      <trkpt lat="47.02348" lon="8.94584">
        <ele>853</ele>
        <time>2021-08-02T13:11:41.872Z</time>
      </trkpt>
      <trkpt lat="47.02347" lon="8.94584">
        <ele>854</ele>
        <time>2021-08-02T13:11:42.871Z</time>
      </trkpt>
      <trkpt lat="47.02346" lon="8.94584">
        <ele>855</ele>
        <time>2021-08-02T13:11:43.871Z</time>
      </trkpt>
      <trkpt lat="47.02346" lon="8.94584">
        <ele>855</ele>
        <time>2021-08-02T13:11:44.871Z</time>
      </trkpt>
      <trkpt lat="47.02345" lon="8.94584">
        <ele>854</ele>
        <time>2021-08-02T13:11:45.871Z</time>
      </trkpt>
      <trkpt lat="47.02346" lon="8.94583">
        <ele>854</ele>
        <time>2021-08-02T13:11:46.872Z</time>
      </trkpt>
      <trkpt lat="47.02347" lon="8.94584">
        <ele>854</ele>
        <time>2021-08-02T13:11:47.872Z</time>
      </trkpt>
      <trkpt lat="47.02347" lon="8.94584">
        <ele>854</ele>
        <time>2021-08-02T13:11:48.872Z</time>
      </trkpt>
      <trkpt lat="47.02347" lon="8.94584">
        <ele>854</ele>
        <time>2021-08-02T13:11:49.872Z</time>
      </trkpt>
      <trkpt lat="47.02347" lon="8.94585">
        <ele>853</ele>
        <time>2021-08-02T13:11:50.872Z</time>
      </trkpt>
      <trkpt lat="47.02347" lon="8.94586">
        <ele>853</ele>
        <time>2021-08-02T13:11:51.872Z</time>
      </trkpt>
      <trkpt lat="47.02348" lon="8.94586">
        <ele>852</ele>
        <time>2021-08-02T13:11:52.872Z</time>
      </trkpt>
      <trkpt lat="47.02348" lon="8.94585">
        <ele>850</ele>
        <time>2021-08-02T13:11:53.872Z</time>
      </trkpt>
      <trkpt lat="47.02348" lon="8.94584">
        <ele>850</ele>
        <time>2021-08-02T13:11:54.871Z</time>
      </trkpt>
      <trkpt lat="47.02348" lon="8.94585">
        <ele>850</ele>
        <time>2021-08-02T13:11:55.871Z</time>
      </trkpt>
      <trkpt lat="47.02348" lon="8.94586">
        <ele>849</ele>
        <time>2021-08-02T13:11:56.871Z</time>
      </trkpt>
      <trkpt lat="47.02347" lon="8.94586">
        <ele>849</ele>
        <time>2021-08-02T13:11:57.872Z</time>
      </trkpt>
      <trkpt lat="47.02348" lon="8.94587">
        <ele>849</ele>
        <time>2021-08-02T13:11:58.871Z</time>
      </trkpt>
      <trkpt lat="47.02348" lon="8.94588">
        <ele>849</ele>
        <time>2021-08-02T13:11:59.872Z</time>
      </trkpt>
      <trkpt lat="47.02348" lon="8.94588">
        <ele>849</ele>
        <time>2021-08-02T13:12:00.872Z</time>
      </trkpt>
      <trkpt lat="47.02348" lon="8.94589">
        <ele>849</ele>
        <time>2021-08-02T13:12:01.872Z</time>
      </trkpt>
      <trkpt lat="47.02347" lon="8.94588">
        <ele>849</ele>
        <time>2021-08-02T13:12:02.872Z</time>
      </trkpt>
      <trkpt lat="47.02347" lon="8.94589">
        <ele>849</ele>
        <time>2021-08-02T13:12:03.871Z</time>
      </trkpt>
      <trkpt lat="47.02347" lon="8.94589">
        <ele>849</ele>
        <time>2021-08-02T13:12:04.871Z</time>
      </trkpt>
      <trkpt lat="47.02347" lon="8.94589">
        <ele>849</ele>
        <time>2021-08-02T13:12:05.872Z</time>
      </trkpt>
      <trkpt lat="47.02347" lon="8.94589">
        <ele>848</ele>
        <time>2021-08-02T13:12:06.872Z</time>
      </trkpt>
      <trkpt lat="47.02346" lon="8.94589">
        <ele>848</ele>
        <time>2021-08-02T13:12:07.872Z</time>
      </trkpt>
      <trkpt lat="47.02349" lon="8.94592">
        <ele>842</ele>
        <time>2021-08-02T13:12:08.871Z</time>
      </trkpt>
      <trkpt lat="47.02349" lon="8.94592">
        <ele>842</ele>
        <time>2021-08-02T13:12:09.871Z</time>
      </trkpt>
      <trkpt lat="47.0235" lon="8.94593">
        <ele>842</ele>
        <time>2021-08-02T13:12:10.871Z</time>
      </trkpt>
      <trkpt lat="47.02351" lon="8.94593">
        <ele>842</ele>
        <time>2021-08-02T13:12:11.872Z</time>
      </trkpt>
      <trkpt lat="47.02351" lon="8.94594">
        <ele>842</ele>
        <time>2021-08-02T13:12:12.871Z</time>
      </trkpt>
      <trkpt lat="47.02352" lon="8.94594">
        <ele>843</ele>
        <time>2021-08-02T13:12:13.872Z</time>
      </trkpt>
      <trkpt lat="47.02352" lon="8.94595">
        <ele>843</ele>
        <time>2021-08-02T13:12:14.871Z</time>
      </trkpt>
      <trkpt lat="47.02351" lon="8.94595">
        <ele>843</ele>
        <time>2021-08-02T13:12:15.871Z</time>
      </trkpt>
      <trkpt lat="47.0235" lon="8.94595">
        <ele>844</ele>
        <time>2021-08-02T13:12:16.872Z</time>
      </trkpt>
      <trkpt lat="47.02349" lon="8.94599">
        <ele>850</ele>
        <time>2021-08-02T13:12:17.873Z</time>
      </trkpt>
      <trkpt lat="47.02349" lon="8.94599">
        <ele>851</ele>
        <time>2021-08-02T13:12:18.873Z</time>
      </trkpt>
      <trkpt lat="47.02349" lon="8.94597">
        <ele>851</ele>
        <time>2021-08-02T13:12:19.873Z</time>
      </trkpt>
      <trkpt lat="47.02349" lon="8.94597">
        <ele>851</ele>
        <time>2021-08-02T13:12:20.873Z</time>
      </trkpt>
      <trkpt lat="47.02352" lon="8.94591">
        <ele>853</ele>
        <time>2021-08-02T13:12:21.872Z</time>
      </trkpt>
      <trkpt lat="47.02354" lon="8.94591">
        <ele>853</ele>
        <time>2021-08-02T13:12:22.872Z</time>
      </trkpt>
      <trkpt lat="47.02349" lon="8.94591">
        <ele>854</ele>
        <time>2021-08-02T13:12:23.873Z</time>
      </trkpt>
      <trkpt lat="47.02349" lon="8.94591">
        <ele>854</ele>
        <time>2021-08-02T13:12:24.872Z</time>
      </trkpt>
      <trkpt lat="47.02348" lon="8.94591">
        <ele>854</ele>
        <time>2021-08-02T13:12:25.872Z</time>
      </trkpt>
      <trkpt lat="47.02343" lon="8.94586">
        <ele>850</ele>
        <time>2021-08-02T13:12:26.873Z</time>
      </trkpt>
      <trkpt lat="47.02343" lon="8.94586">
        <ele>850</ele>
        <time>2021-08-02T13:12:27.872Z</time>
      </trkpt>
      <trkpt lat="47.02344" lon="8.94586">
        <ele>850</ele>
        <time>2021-08-02T13:12:28.873Z</time>
      </trkpt>
      <trkpt lat="47.02344" lon="8.94586">
        <ele>850</ele>
        <time>2021-08-02T13:12:29.873Z</time>
      </trkpt>
      <trkpt lat="47.02345" lon="8.94586">
        <ele>849</ele>
        <time>2021-08-02T13:12:30.872Z</time>
      </trkpt>
      <trkpt lat="47.02348" lon="8.94587">
        <ele>848</ele>
        <time>2021-08-02T13:12:31.873Z</time>
      </trkpt>
      <trkpt lat="47.02348" lon="8.94587">
        <ele>848</ele>
        <time>2021-08-02T13:12:32.873Z</time>
      </trkpt>
      <trkpt lat="47.02348" lon="8.94587">
        <ele>848</ele>
        <time>2021-08-02T13:12:33.873Z</time>
      </trkpt>
      <trkpt lat="47.02348" lon="8.94588">
        <ele>847</ele>
        <time>2021-08-02T13:12:34.872Z</time>
      </trkpt>
      <trkpt lat="47.02348" lon="8.94588">
        <ele>847</ele>
        <time>2021-08-02T13:12:35.873Z</time>
      </trkpt>
      <trkpt lat="47.02347" lon="8.94589">
        <ele>841</ele>
        <time>2021-08-02T13:12:36.872Z</time>
      </trkpt>
      <trkpt lat="47.02347" lon="8.94588">
        <ele>841</ele>
        <time>2021-08-02T13:12:37.872Z</time>
      </trkpt>
      <trkpt lat="47.02347" lon="8.94588">
        <ele>841</ele>
        <time>2021-08-02T13:12:38.872Z</time>
      </trkpt>
      <trkpt lat="47.02346" lon="8.94587">
        <ele>841</ele>
        <time>2021-08-02T13:12:39.872Z</time>
      </trkpt>
      <trkpt lat="47.02347" lon="8.94587">
        <ele>841</ele>
        <time>2021-08-02T13:12:40.872Z</time>
      </trkpt>
      <trkpt lat="47.02347" lon="8.94588">
        <ele>841</ele>
        <time>2021-08-02T13:12:41.872Z</time>
      </trkpt>
      <trkpt lat="47.02348" lon="8.94589">
        <ele>841</ele>
        <time>2021-08-02T13:12:42.872Z</time>
      </trkpt>
      <trkpt lat="47.02348" lon="8.94589">
        <ele>841</ele>
        <time>2021-08-02T13:12:43.872Z</time>
      </trkpt>
      <trkpt lat="47.02348" lon="8.94589">
        <ele>841</ele>
        <time>2021-08-02T13:12:44.872Z</time>
      </trkpt>
      <trkpt lat="47.02348" lon="8.94588">
        <ele>841</ele>
        <time>2021-08-02T13:12:45.872Z</time>
      </trkpt>
      <trkpt lat="47.02349" lon="8.94589">
        <ele>841</ele>
        <time>2021-08-02T13:12:46.872Z</time>
      </trkpt>
      <trkpt lat="47.0235" lon="8.9459">
        <ele>842</ele>
        <time>2021-08-02T13:12:47.872Z</time>
      </trkpt>
      <trkpt lat="47.0235" lon="8.94591">
        <ele>842</ele>
        <time>2021-08-02T13:12:48.872Z</time>
      </trkpt>
      <trkpt lat="47.0235" lon="8.94591">
        <ele>842</ele>
        <time>2021-08-02T13:12:49.872Z</time>
      </trkpt>
      <trkpt lat="47.02349" lon="8.9459">
        <ele>843</ele>
        <time>2021-08-02T13:12:50.872Z</time>
      </trkpt>
      <trkpt lat="47.02349" lon="8.9459">
        <ele>843</ele>
        <time>2021-08-02T13:12:51.872Z</time>
      </trkpt>
      <trkpt lat="47.02349" lon="8.94591">
        <ele>843</ele>
        <time>2021-08-02T13:12:52.872Z</time>
      </trkpt>
      <trkpt lat="47.02349" lon="8.94591">
        <ele>843</ele>
        <time>2021-08-02T13:12:53.872Z</time>
      </trkpt>
      <trkpt lat="47.02349" lon="8.9459">
        <ele>843</ele>
        <time>2021-08-02T13:12:54.872Z</time>
      </trkpt>
      <trkpt lat="47.02346" lon="8.94589">
        <ele>851</ele>
        <time>2021-08-02T13:12:55.874Z</time>
      </trkpt>
      <trkpt lat="47.02346" lon="8.94588">
        <ele>851</ele>
        <time>2021-08-02T13:12:56.874Z</time>
      </trkpt>
      <trkpt lat="47.02346" lon="8.94589">
        <ele>851</ele>
        <time>2021-08-02T13:12:57.874Z</time>
      </trkpt>
      <trkpt lat="47.02346" lon="8.94591">
        <ele>851</ele>
        <time>2021-08-02T13:12:58.874Z</time>
      </trkpt>
      <trkpt lat="47.02346" lon="8.9459">
        <ele>852</ele>
        <time>2021-08-02T13:12:59.874Z</time>
      </trkpt>
      <trkpt lat="47.02345" lon="8.94589">
        <ele>852</ele>
        <time>2021-08-02T13:13:00.874Z</time>
      </trkpt>
      <trkpt lat="47.02345" lon="8.94589">
        <ele>851</ele>
        <time>2021-08-02T13:13:01.873Z</time>
      </trkpt>
      <trkpt lat="47.02344" lon="8.94589">
        <ele>851</ele>
        <time>2021-08-02T13:13:02.874Z</time>
      </trkpt>
      <trkpt lat="47.02344" lon="8.94589">
        <ele>851</ele>
        <time>2021-08-02T13:13:03.873Z</time>
      </trkpt>
      <trkpt lat="47.02345" lon="8.9459">
        <ele>851</ele>
        <time>2021-08-02T13:13:04.874Z</time>
      </trkpt>
      <trkpt lat="47.02346" lon="8.94591">
        <ele>851</ele>
        <time>2021-08-02T13:13:05.873Z</time>
      </trkpt>
      <trkpt lat="47.02347" lon="8.94591">
        <ele>852</ele>
        <time>2021-08-02T13:13:06.874Z</time>
      </trkpt>
      <trkpt lat="47.02347" lon="8.9459">
        <ele>852</ele>
        <time>2021-08-02T13:13:07.874Z</time>
      </trkpt>
      <trkpt lat="47.02347" lon="8.9459">
        <ele>852</ele>
        <time>2021-08-02T13:13:08.874Z</time>
      </trkpt>
      <trkpt lat="47.02346" lon="8.94589">
        <ele>852</ele>
        <time>2021-08-02T13:13:09.874Z</time>
      </trkpt>
      <trkpt lat="47.02346" lon="8.9459">
        <ele>851</ele>
        <time>2021-08-02T13:13:10.874Z</time>
      </trkpt>
      <trkpt lat="47.02346" lon="8.94589">
        <ele>851</ele>
        <time>2021-08-02T13:13:11.874Z</time>
      </trkpt>
      <trkpt lat="47.02345" lon="8.94588">
        <ele>851</ele>
        <time>2021-08-02T13:13:12.873Z</time>
      </trkpt>
      <trkpt lat="47.02347" lon="8.94588">
        <ele>845</ele>
        <time>2021-08-02T13:13:13.873Z</time>
      </trkpt>
      <trkpt lat="47.02349" lon="8.9459">
        <ele>845</ele>
        <time>2021-08-02T13:13:14.873Z</time>
      </trkpt>
      <trkpt lat="47.02351" lon="8.94591">
        <ele>845</ele>
        <time>2021-08-02T13:13:15.873Z</time>
      </trkpt>
      <trkpt lat="47.02352" lon="8.94591">
        <ele>845</ele>
        <time>2021-08-02T13:13:16.873Z</time>
      </trkpt>
      <trkpt lat="47.02351" lon="8.9459">
        <ele>845</ele>
        <time>2021-08-02T13:13:17.873Z</time>
      </trkpt>
      <trkpt lat="47.02351" lon="8.9459">
        <ele>845</ele>
        <time>2021-08-02T13:13:18.874Z</time>
      </trkpt>
      <trkpt lat="47.02349" lon="8.9459">
        <ele>851</ele>
        <time>2021-08-02T13:13:19.874Z</time>
      </trkpt>
      <trkpt lat="47.02347" lon="8.94588">
        <ele>854</ele>
        <time>2021-08-02T13:13:20.875Z</time>
      </trkpt>
      <trkpt lat="47.02347" lon="8.94588">
        <ele>854</ele>
        <time>2021-08-02T13:13:21.874Z</time>
      </trkpt>
      <trkpt lat="47.02347" lon="8.94588">
        <ele>853</ele>
        <time>2021-08-02T13:13:22.874Z</time>
      </trkpt>
      <trkpt lat="47.02347" lon="8.94588">
        <ele>852</ele>
        <time>2021-08-02T13:13:23.874Z</time>
      </trkpt>
      <trkpt lat="47.02348" lon="8.94588">
        <ele>852</ele>
        <time>2021-08-02T13:13:24.875Z</time>
      </trkpt>
      <trkpt lat="47.02348" lon="8.94588">
        <ele>851</ele>
        <time>2021-08-02T13:13:25.875Z</time>
      </trkpt>
      <trkpt lat="47.02349" lon="8.94587">
        <ele>855</ele>
        <time>2021-08-02T13:13:26.876Z</time>
      </trkpt>
      <trkpt lat="47.02349" lon="8.94586">
        <ele>855</ele>
        <time>2021-08-02T13:13:27.875Z</time>
      </trkpt>
      <trkpt lat="47.02348" lon="8.94586">
        <ele>856</ele>
        <time>2021-08-02T13:13:28.876Z</time>
      </trkpt>
      <trkpt lat="47.02348" lon="8.94586">
        <ele>856</ele>
        <time>2021-08-02T13:13:29.876Z</time>
      </trkpt>
      <trkpt lat="47.02348" lon="8.94582">
        <ele>856</ele>
        <time>2021-08-02T13:13:30.875Z</time>
      </trkpt>
      <trkpt lat="47.02348" lon="8.94582">
        <ele>856</ele>
        <time>2021-08-02T13:13:31.875Z</time>
      </trkpt>
      <trkpt lat="47.02349" lon="8.94583">
        <ele>856</ele>
        <time>2021-08-02T13:13:32.875Z</time>
      </trkpt>
      <trkpt lat="47.0235" lon="8.94583">
        <ele>856</ele>
        <time>2021-08-02T13:13:33.875Z</time>
      </trkpt>
      <trkpt lat="47.0235" lon="8.94583">
        <ele>856</ele>
        <time>2021-08-02T13:13:34.875Z</time>
      </trkpt>
      <trkpt lat="47.0235" lon="8.94584">
        <ele>856</ele>
        <time>2021-08-02T13:13:35.876Z</time>
      </trkpt>
      <trkpt lat="47.0235" lon="8.94584">
        <ele>856</ele>
        <time>2021-08-02T13:13:36.876Z</time>
      </trkpt>
      <trkpt lat="47.0235" lon="8.94585">
        <ele>855</ele>
        <time>2021-08-02T13:13:37.876Z</time>
      </trkpt>
      <trkpt lat="47.02349" lon="8.94584">
        <ele>855</ele>
        <time>2021-08-02T13:13:38.875Z</time>
      </trkpt>
      <trkpt lat="47.02349" lon="8.94584">
        <ele>855</ele>
        <time>2021-08-02T13:13:39.876Z</time>
      </trkpt>
      <trkpt lat="47.0235" lon="8.94583">
        <ele>853</ele>
        <time>2021-08-02T13:13:40.876Z</time>
      </trkpt>
      <trkpt lat="47.02351" lon="8.94583">
        <ele>853</ele>
        <time>2021-08-02T13:13:41.876Z</time>
      </trkpt>
      <trkpt lat="47.02351" lon="8.94584">
        <ele>853</ele>
        <time>2021-08-02T13:13:42.876Z</time>
      </trkpt>
      <trkpt lat="47.02351" lon="8.94584">
        <ele>853</ele>
        <time>2021-08-02T13:13:43.875Z</time>
      </trkpt>
      <trkpt lat="47.02353" lon="8.94585">
        <ele>853</ele>
        <time>2021-08-02T13:13:44.877Z</time>
      </trkpt>
      <trkpt lat="47.02353" lon="8.94585">
        <ele>853</ele>
        <time>2021-08-02T13:13:45.877Z</time>
      </trkpt>
      <trkpt lat="47.02354" lon="8.94585">
        <ele>854</ele>
        <time>2021-08-02T13:13:46.876Z</time>
      </trkpt>
      <trkpt lat="47.02354" lon="8.94584">
        <ele>854</ele>
        <time>2021-08-02T13:13:47.877Z</time>
      </trkpt>
      <trkpt lat="47.02352" lon="8.94581">
        <ele>852</ele>
        <time>2021-08-02T13:13:48.876Z</time>
      </trkpt>
      <trkpt lat="47.02352" lon="8.94581">
        <ele>852</ele>
        <time>2021-08-02T13:13:49.876Z</time>
      </trkpt>
      <trkpt lat="47.02352" lon="8.94581">
        <ele>852</ele>
        <time>2021-08-02T13:13:50.876Z</time>
      </trkpt>
      <trkpt lat="47.02353" lon="8.9458">
        <ele>852</ele>
        <time>2021-08-02T13:13:51.876Z</time>
      </trkpt>
      <trkpt lat="47.02353" lon="8.9458">
        <ele>852</ele>
        <time>2021-08-02T13:13:52.876Z</time>
      </trkpt>
      <trkpt lat="47.02353" lon="8.9458">
        <ele>852</ele>
        <time>2021-08-02T13:13:53.877Z</time>
      </trkpt>
      <trkpt lat="47.02353" lon="8.9458">
        <ele>852</ele>
        <time>2021-08-02T13:13:54.877Z</time>
      </trkpt>
      <trkpt lat="47.02353" lon="8.9458">
        <ele>851</ele>
        <time>2021-08-02T13:13:55.877Z</time>
      </trkpt>
      <trkpt lat="47.02351" lon="8.9458">
        <ele>849</ele>
        <time>2021-08-02T13:13:56.878Z</time>
      </trkpt>
      <trkpt lat="47.02351" lon="8.9458">
        <ele>849</ele>
        <time>2021-08-02T13:13:57.878Z</time>
      </trkpt>
      <trkpt lat="47.02347" lon="8.9458">
        <ele>848</ele>
        <time>2021-08-02T13:13:58.878Z</time>
      </trkpt>
      <trkpt lat="47.02347" lon="8.94581">
        <ele>848</ele>
        <time>2021-08-02T13:13:59.877Z</time>
      </trkpt>
      <trkpt lat="47.02348" lon="8.94582">
        <ele>849</ele>
        <time>2021-08-02T13:14:00.877Z</time>
      </trkpt>
      <trkpt lat="47.0235" lon="8.94583">
        <ele>849</ele>
        <time>2021-08-02T13:14:01.878Z</time>
      </trkpt>
      <trkpt lat="47.02351" lon="8.94584">
        <ele>849</ele>
        <time>2021-08-02T13:14:02.877Z</time>
      </trkpt>
      <trkpt lat="47.02352" lon="8.94585">
        <ele>850</ele>
        <time>2021-08-02T13:14:03.877Z</time>
      </trkpt>
      <trkpt lat="47.02352" lon="8.94585">
        <ele>851</ele>
        <time>2021-08-02T13:14:04.878Z</time>
      </trkpt>
      <trkpt lat="47.02353" lon="8.94585">
        <ele>851</ele>
        <time>2021-08-02T13:14:05.878Z</time>
      </trkpt>
      <trkpt lat="47.02353" lon="8.94585">
        <ele>852</ele>
        <time>2021-08-02T13:14:06.877Z</time>
      </trkpt>
      <trkpt lat="47.02353" lon="8.94585">
        <ele>853</ele>
        <time>2021-08-02T13:14:07.878Z</time>
      </trkpt>
      <trkpt lat="47.02354" lon="8.94586">
        <ele>854</ele>
        <time>2021-08-02T13:14:08.878Z</time>
      </trkpt>
      <trkpt lat="47.02355" lon="8.94586">
        <ele>855</ele>
        <time>2021-08-02T13:14:09.878Z</time>
      </trkpt>
      <trkpt lat="47.02354" lon="8.94583">
        <ele>855</ele>
        <time>2021-08-02T13:14:10.879Z</time>
      </trkpt>
      <trkpt lat="47.02354" lon="8.94582">
        <ele>855</ele>
        <time>2021-08-02T13:14:11.879Z</time>
      </trkpt>
      <trkpt lat="47.02353" lon="8.94581">
        <ele>855</ele>
        <time>2021-08-02T13:14:12.878Z</time>
      </trkpt>
      <trkpt lat="47.02352" lon="8.9458">
        <ele>855</ele>
        <time>2021-08-02T13:14:13.879Z</time>
      </trkpt>
      <trkpt lat="47.02351" lon="8.94578">
        <ele>855</ele>
        <time>2021-08-02T13:14:14.879Z</time>
      </trkpt>
      <trkpt lat="47.0235" lon="8.94577">
        <ele>856</ele>
        <time>2021-08-02T13:14:15.879Z</time>
      </trkpt>
      <trkpt lat="47.0235" lon="8.94577">
        <ele>856</ele>
        <time>2021-08-02T13:14:16.878Z</time>
      </trkpt>
      <trkpt lat="47.02354" lon="8.9458">
        <ele>852</ele>
        <time>2021-08-02T13:14:17.881Z</time>
      </trkpt>
      <trkpt lat="47.02355" lon="8.9458">
        <ele>851</ele>
        <time>2021-08-02T13:14:18.880Z</time>
      </trkpt>
      <trkpt lat="47.02356" lon="8.94581">
        <ele>851</ele>
        <time>2021-08-02T13:14:19.880Z</time>
      </trkpt>
      <trkpt lat="47.02356" lon="8.94582">
        <ele>850</ele>
        <time>2021-08-02T13:14:20.881Z</time>
      </trkpt>
      <trkpt lat="47.02359" lon="8.94585">
        <ele>847</ele>
        <time>2021-08-02T13:14:21.880Z</time>
      </trkpt>
      <trkpt lat="47.02359" lon="8.94586">
        <ele>846</ele>
        <time>2021-08-02T13:14:22.880Z</time>
      </trkpt>
      <trkpt lat="47.02359" lon="8.94586">
        <ele>845</ele>
        <time>2021-08-02T13:14:23.880Z</time>
      </trkpt>
      <trkpt lat="47.02356" lon="8.94587">
        <ele>843</ele>
        <time>2021-08-02T13:14:24.881Z</time>
      </trkpt>
      <trkpt lat="47.02356" lon="8.94587">
        <ele>843</ele>
        <time>2021-08-02T13:14:25.881Z</time>
      </trkpt>
      <trkpt lat="47.02355" lon="8.94588">
        <ele>844</ele>
        <time>2021-08-02T13:14:26.880Z</time>
      </trkpt>
      <trkpt lat="47.02355" lon="8.94588">
        <ele>844</ele>
        <time>2021-08-02T13:14:27.881Z</time>
      </trkpt>
      <trkpt lat="47.02355" lon="8.94589">
        <ele>844</ele>
        <time>2021-08-02T13:14:28.880Z</time>
      </trkpt>
      <trkpt lat="47.02357" lon="8.94587">
        <ele>845</ele>
        <time>2021-08-02T13:14:29.881Z</time>
      </trkpt>
      <trkpt lat="47.02357" lon="8.94587">
        <ele>845</ele>
        <time>2021-08-02T13:14:33.906Z</time>
      </trkpt>
      <trkpt lat="47.02353" lon="8.94586">
        <ele>851</ele>
        <time>2021-08-02T13:14:34.905Z</time>
      </trkpt>
      <trkpt lat="47.02352" lon="8.94585">
        <ele>851</ele>
        <time>2021-08-02T13:14:35.906Z</time>
      </trkpt>
      <trkpt lat="47.02351" lon="8.94585">
        <ele>851</ele>
        <time>2021-08-02T13:14:36.905Z</time>
      </trkpt>
      <trkpt lat="47.02352" lon="8.94586">
        <ele>851</ele>
        <time>2021-08-02T13:14:37.906Z</time>
      </trkpt>
      <trkpt lat="47.02352" lon="8.94585">
        <ele>851</ele>
        <time>2021-08-02T13:14:38.905Z</time>
      </trkpt>
      <trkpt lat="47.02351" lon="8.94584">
        <ele>851</ele>
        <time>2021-08-02T13:14:39.906Z</time>
      </trkpt>
      <trkpt lat="47.02351" lon="8.94584">
        <ele>852</ele>
        <time>2021-08-02T13:14:40.905Z</time>
      </trkpt>
      <trkpt lat="47.02351" lon="8.94583">
        <ele>851</ele>
        <time>2021-08-02T13:14:41.906Z</time>
      </trkpt>
      <trkpt lat="47.02351" lon="8.94583">
        <ele>851</ele>
        <time>2021-08-02T13:14:42.906Z</time>
      </trkpt>
      <trkpt lat="47.0235" lon="8.94581">
        <ele>852</ele>
        <time>2021-08-02T13:14:43.905Z</time>
      </trkpt>
      <trkpt lat="47.0235" lon="8.94582">
        <ele>851</ele>
        <time>2021-08-02T13:14:44.906Z</time>
      </trkpt>
      <trkpt lat="47.02351" lon="8.94583">
        <ele>850</ele>
        <time>2021-08-02T13:14:45.905Z</time>
      </trkpt>
      <trkpt lat="47.02352" lon="8.94584">
        <ele>849</ele>
        <time>2021-08-02T13:14:46.906Z</time>
      </trkpt>
      <trkpt lat="47.02352" lon="8.94584">
        <ele>849</ele>
        <time>2021-08-02T13:14:47.906Z</time>
      </trkpt>
      <trkpt lat="47.02353" lon="8.94583">
        <ele>848</ele>
        <time>2021-08-02T13:14:48.906Z</time>
      </trkpt>
      <trkpt lat="47.02353" lon="8.94583">
        <ele>848</ele>
        <time>2021-08-02T13:14:49.905Z</time>
      </trkpt>
      <trkpt lat="47.02354" lon="8.94582">
        <ele>848</ele>
        <time>2021-08-02T13:14:50.906Z</time>
      </trkpt>
      <trkpt lat="47.02354" lon="8.94582">
        <ele>848</ele>
        <time>2021-08-02T13:14:51.905Z</time>
      </trkpt>
      <trkpt lat="47.02353" lon="8.94582">
        <ele>848</ele>
        <time>2021-08-02T13:14:52.905Z</time>
      </trkpt>
      <trkpt lat="47.02353" lon="8.9458">
        <ele>848</ele>
        <time>2021-08-02T13:14:53.907Z</time>
      </trkpt>
      <trkpt lat="47.02353" lon="8.94579">
        <ele>848</ele>
        <time>2021-08-02T13:14:54.906Z</time>
      </trkpt>
      <trkpt lat="47.02353" lon="8.9458">
        <ele>847</ele>
        <time>2021-08-02T13:14:55.906Z</time>
      </trkpt>
      <trkpt lat="47.02353" lon="8.9458">
        <ele>847</ele>
        <time>2021-08-02T13:14:56.906Z</time>
      </trkpt>
      <trkpt lat="47.02352" lon="8.94582">
        <ele>849</ele>
        <time>2021-08-02T13:14:57.907Z</time>
      </trkpt>
      <trkpt lat="47.02352" lon="8.94583">
        <ele>849</ele>
        <time>2021-08-02T13:14:58.907Z</time>
      </trkpt>
      <trkpt lat="47.02352" lon="8.94583">
        <ele>850</ele>
        <time>2021-08-02T13:14:59.906Z</time>
      </trkpt>
      <trkpt lat="47.02352" lon="8.94584">
        <ele>850</ele>
        <time>2021-08-02T13:15:00.907Z</time>
      </trkpt>
      <trkpt lat="47.02352" lon="8.94584">
        <ele>850</ele>
        <time>2021-08-02T13:15:01.907Z</time>
      </trkpt>
      <trkpt lat="47.02352" lon="8.94584">
        <ele>850</ele>
        <time>2021-08-02T13:15:02.907Z</time>
      </trkpt>
      <trkpt lat="47.02352" lon="8.94583">
        <ele>850</ele>
        <time>2021-08-02T13:15:03.907Z</time>
      </trkpt>
      <trkpt lat="47.02352" lon="8.94583">
        <ele>850</ele>
        <time>2021-08-02T13:15:04.906Z</time>
      </trkpt>
      <trkpt lat="47.02352" lon="8.94582">
        <ele>850</ele>
        <time>2021-08-02T13:15:05.906Z</time>
      </trkpt>
      <trkpt lat="47.02352" lon="8.94582">
        <ele>850</ele>
        <time>2021-08-02T13:15:06.907Z</time>
      </trkpt>
      <trkpt lat="47.02351" lon="8.94582">
        <ele>851</ele>
        <time>2021-08-02T13:15:07.906Z</time>
      </trkpt>
      <trkpt lat="47.02352" lon="8.94582">
        <ele>851</ele>
        <time>2021-08-02T13:15:08.907Z</time>
      </trkpt>
      <trkpt lat="47.02353" lon="8.94583">
        <ele>853</ele>
        <time>2021-08-02T13:15:09.906Z</time>
      </trkpt>
      <trkpt lat="47.02353" lon="8.94583">
        <ele>853</ele>
        <time>2021-08-02T13:15:10.906Z</time>
      </trkpt>
      <trkpt lat="47.0235" lon="8.94582">
        <ele>857</ele>
        <time>2021-08-02T13:15:11.908Z</time>
      </trkpt>
      <trkpt lat="47.0235" lon="8.94582">
        <ele>858</ele>
        <time>2021-08-02T13:15:12.909Z</time>
      </trkpt>
      <trkpt lat="47.0235" lon="8.94584">
        <ele>858</ele>
        <time>2021-08-02T13:15:13.910Z</time>
      </trkpt>
      <trkpt lat="47.02351" lon="8.94584">
        <ele>858</ele>
        <time>2021-08-02T13:15:14.910Z</time>
      </trkpt>
      <trkpt lat="47.0235" lon="8.94583">
        <ele>858</ele>
        <time>2021-08-02T13:15:15.910Z</time>
      </trkpt>
      <trkpt lat="47.0235" lon="8.94582">
        <ele>858</ele>
        <time>2021-08-02T13:15:16.910Z</time>
      </trkpt>
      <trkpt lat="47.0235" lon="8.94583">
        <ele>858</ele>
        <time>2021-08-02T13:15:17.911Z</time>
      </trkpt>
      <trkpt lat="47.02349" lon="8.94583">
        <ele>858</ele>
        <time>2021-08-02T13:15:18.911Z</time>
      </trkpt>
      <trkpt lat="47.02349" lon="8.94583">
        <ele>858</ele>
        <time>2021-08-02T13:15:19.911Z</time>
      </trkpt>
      <trkpt lat="47.02348" lon="8.94583">
        <ele>858</ele>
        <time>2021-08-02T13:15:20.911Z</time>
      </trkpt>
      <trkpt lat="47.02348" lon="8.94583">
        <ele>858</ele>
        <time>2021-08-02T13:15:21.910Z</time>
      </trkpt>
      <trkpt lat="47.02348" lon="8.94584">
        <ele>858</ele>
        <time>2021-08-02T13:15:22.911Z</time>
      </trkpt>
      <trkpt lat="47.02348" lon="8.94584">
        <ele>858</ele>
        <time>2021-08-02T13:15:23.910Z</time>
      </trkpt>
      <trkpt lat="47.02348" lon="8.94583">
        <ele>859</ele>
        <time>2021-08-02T13:15:24.911Z</time>
      </trkpt>
      <trkpt lat="47.02347" lon="8.94584">
        <ele>859</ele>
        <time>2021-08-02T13:15:25.910Z</time>
      </trkpt>
      <trkpt lat="47.02348" lon="8.94583">
        <ele>859</ele>
        <time>2021-08-02T13:15:26.910Z</time>
      </trkpt>
      <trkpt lat="47.02347" lon="8.94583">
        <ele>859</ele>
        <time>2021-08-02T13:15:27.910Z</time>
      </trkpt>
      <trkpt lat="47.02347" lon="8.94583">
        <ele>860</ele>
        <time>2021-08-02T13:15:28.911Z</time>
      </trkpt>
      <trkpt lat="47.02347" lon="8.94583">
        <ele>860</ele>
        <time>2021-08-02T13:15:29.911Z</time>
      </trkpt>
      <trkpt lat="47.02347" lon="8.94583">
        <ele>860</ele>
        <time>2021-08-02T13:15:30.910Z</time>
      </trkpt>
      <trkpt lat="47.02346" lon="8.94582">
        <ele>860</ele>
        <time>2021-08-02T13:15:31.910Z</time>
      </trkpt>
      <trkpt lat="47.02346" lon="8.94582">
        <ele>861</ele>
        <time>2021-08-02T13:15:32.910Z</time>
      </trkpt>
      <trkpt lat="47.02346" lon="8.94581">
        <ele>861</ele>
        <time>2021-08-02T13:15:33.910Z</time>
      </trkpt>
      <trkpt lat="47.02346" lon="8.9458">
        <ele>861</ele>
        <time>2021-08-02T13:15:34.910Z</time>
      </trkpt>
      <trkpt lat="47.02347" lon="8.9458">
        <ele>861</ele>
        <time>2021-08-02T13:15:35.910Z</time>
      </trkpt>
      <trkpt lat="47.02347" lon="8.9458">
        <ele>861</ele>
        <time>2021-08-02T13:15:36.911Z</time>
      </trkpt>
      <trkpt lat="47.02347" lon="8.94581">
        <ele>861</ele>
        <time>2021-08-02T13:15:37.911Z</time>
      </trkpt>
      <trkpt lat="47.02351" lon="8.94584">
        <ele>864</ele>
        <time>2021-08-02T13:15:38.911Z</time>
      </trkpt>
      <trkpt lat="47.02351" lon="8.94584">
        <ele>864</ele>
        <time>2021-08-02T13:15:39.912Z</time>
      </trkpt>
      <trkpt lat="47.02352" lon="8.94585">
        <ele>864</ele>
        <time>2021-08-02T13:15:40.912Z</time>
      </trkpt>
      <trkpt lat="47.02352" lon="8.94585">
        <ele>864</ele>
        <time>2021-08-02T13:15:41.912Z</time>
      </trkpt>
      <trkpt lat="47.02352" lon="8.94585">
        <ele>864</ele>
        <time>2021-08-02T13:15:42.911Z</time>
      </trkpt>
      <trkpt lat="47.02352" lon="8.94585">
        <ele>864</ele>
        <time>2021-08-02T13:15:43.911Z</time>
      </trkpt>
      <trkpt lat="47.02353" lon="8.94587">
        <ele>864</ele>
        <time>2021-08-02T13:15:44.911Z</time>
      </trkpt>
      <trkpt lat="47.02353" lon="8.94586">
        <ele>864</ele>
        <time>2021-08-02T13:15:45.912Z</time>
      </trkpt>
      <trkpt lat="47.02354" lon="8.94585">
        <ele>864</ele>
        <time>2021-08-02T13:15:46.911Z</time>
      </trkpt>
      <trkpt lat="47.02354" lon="8.94584">
        <ele>864</ele>
        <time>2021-08-02T13:15:47.911Z</time>
      </trkpt>
      <trkpt lat="47.02354" lon="8.94583">
        <ele>864</ele>
        <time>2021-08-02T13:15:48.912Z</time>
      </trkpt>
      <trkpt lat="47.02354" lon="8.94583">
        <ele>864</ele>
        <time>2021-08-02T13:15:49.912Z</time>
      </trkpt>
      <trkpt lat="47.02354" lon="8.94582">
        <ele>864</ele>
        <time>2021-08-02T13:15:50.912Z</time>
      </trkpt>
      <trkpt lat="47.02354" lon="8.94582">
        <ele>864</ele>
        <time>2021-08-02T13:15:51.911Z</time>
      </trkpt>
      <trkpt lat="47.02353" lon="8.94581">
        <ele>864</ele>
        <time>2021-08-02T13:15:52.912Z</time>
      </trkpt>
      <trkpt lat="47.02352" lon="8.94581">
        <ele>864</ele>
        <time>2021-08-02T13:15:53.912Z</time>
      </trkpt>
      <trkpt lat="47.02352" lon="8.94582">
        <ele>863</ele>
        <time>2021-08-02T13:15:54.911Z</time>
      </trkpt>
      <trkpt lat="47.02352" lon="8.94582">
        <ele>862</ele>
        <time>2021-08-02T13:15:55.912Z</time>
      </trkpt>
      <trkpt lat="47.02353" lon="8.94582">
        <ele>862</ele>
        <time>2021-08-02T13:15:56.912Z</time>
      </trkpt>
      <trkpt lat="47.02352" lon="8.94581">
        <ele>861</ele>
        <time>2021-08-02T13:15:57.912Z</time>
      </trkpt>
      <trkpt lat="47.02507" lon="8.94343">
        <ele>817</ele>
        <time>2021-08-03T08:17:10.635Z</time>
      </trkpt>
      <trkpt lat="47.02507" lon="8.94343">
        <ele>817</ele>
        <time>2021-08-03T08:17:10.635Z</time>
      </trkpt>
      <trkpt lat="47.02507" lon="8.94343">
        <ele>817</ele>
        <time>2021-08-03T08:17:10.635Z</time>
      </trkpt>
      <trkpt lat="47.02507" lon="8.94342">
        <ele>817</ele>
        <time>2021-08-03T08:17:11.635Z</time>
      </trkpt>
      <trkpt lat="47.02507" lon="8.94341">
        <ele>818</ele>
        <time>2021-08-03T08:17:12.635Z</time>
      </trkpt>
      <trkpt lat="47.02506" lon="8.9434">
        <ele>819</ele>
        <time>2021-08-03T08:17:13.635Z</time>
      </trkpt>
      <trkpt lat="47.02506" lon="8.94338">
        <ele>820</ele>
        <time>2021-08-03T08:17:14.636Z</time>
      </trkpt>
      <trkpt lat="47.02505" lon="8.94337">
        <ele>820</ele>
        <time>2021-08-03T08:17:15.635Z</time>
      </trkpt>
      <trkpt lat="47.02505" lon="8.94336">
        <ele>821</ele>
        <time>2021-08-03T08:17:16.636Z</time>
      </trkpt>
      <trkpt lat="47.02504" lon="8.94335">
        <ele>821</ele>
        <time>2021-08-03T08:17:17.635Z</time>
      </trkpt>
      <trkpt lat="47.02503" lon="8.94334">
        <ele>822</ele>
        <time>2021-08-03T08:17:18.635Z</time>
      </trkpt>
      <trkpt lat="47.02503" lon="8.94333">
        <ele>823</ele>
        <time>2021-08-03T08:17:19.635Z</time>
      </trkpt>
      <trkpt lat="47.02502" lon="8.94331">
        <ele>823</ele>
        <time>2021-08-03T08:17:20.635Z</time>
      </trkpt>
      <trkpt lat="47.02502" lon="8.94329">
        <ele>824</ele>
        <time>2021-08-03T08:17:21.635Z</time>
      </trkpt>
      <trkpt lat="47.02501" lon="8.94329">
        <ele>824</ele>
        <time>2021-08-03T08:17:22.635Z</time>
      </trkpt>
      <trkpt lat="47.02502" lon="8.94328">
        <ele>824</ele>
        <time>2021-08-03T08:17:23.635Z</time>
      </trkpt>
      <trkpt lat="47.02502" lon="8.94328">
        <ele>825</ele>
        <time>2021-08-03T08:17:24.636Z</time>
      </trkpt>
      <trkpt lat="47.02503" lon="8.94328">
        <ele>825</ele>
        <time>2021-08-03T08:17:25.635Z</time>
      </trkpt>
      <trkpt lat="47.02503" lon="8.94327">
        <ele>825</ele>
        <time>2021-08-03T08:17:26.635Z</time>
      </trkpt>
      <trkpt lat="47.02503" lon="8.94327">
        <ele>826</ele>
        <time>2021-08-03T08:17:27.635Z</time>
      </trkpt>
      <trkpt lat="47.02503" lon="8.94327">
        <ele>826</ele>
        <time>2021-08-03T08:17:28.635Z</time>
      </trkpt>
      <trkpt lat="47.02503" lon="8.94326">
        <ele>826</ele>
        <time>2021-08-03T08:17:29.635Z</time>
      </trkpt>
      <trkpt lat="47.02503" lon="8.94325">
        <ele>827</ele>
        <time>2021-08-03T08:17:30.635Z</time>
      </trkpt>
      <trkpt lat="47.02503" lon="8.94324">
        <ele>827</ele>
        <time>2021-08-03T08:17:31.635Z</time>
      </trkpt>
      <trkpt lat="47.02503" lon="8.94324">
        <ele>827</ele>
        <time>2021-08-03T08:17:32.636Z</time>
      </trkpt>
      <trkpt lat="47.02503" lon="8.94324">
        <ele>827</ele>
        <time>2021-08-03T08:17:33.636Z</time>
      </trkpt>
      <trkpt lat="47.02502" lon="8.94323">
        <ele>828</ele>
        <time>2021-08-03T08:17:34.635Z</time>
      </trkpt>
      <trkpt lat="47.02501" lon="8.94321">
        <ele>828</ele>
        <time>2021-08-03T08:17:35.635Z</time>
      </trkpt>
      <trkpt lat="47.025" lon="8.9432">
        <ele>828</ele>
        <time>2021-08-03T08:17:36.635Z</time>
      </trkpt>
      <trkpt lat="47.025" lon="8.94319">
        <ele>828</ele>
        <time>2021-08-03T08:17:37.635Z</time>
      </trkpt>
      <trkpt lat="47.02499" lon="8.94317">
        <ele>828</ele>
        <time>2021-08-03T08:17:38.635Z</time>
      </trkpt>
      <trkpt lat="47.02499" lon="8.94317">
        <ele>829</ele>
        <time>2021-08-03T08:17:39.636Z</time>
      </trkpt>
      <trkpt lat="47.025" lon="8.94318">
        <ele>829</ele>
        <time>2021-08-03T08:17:40.635Z</time>
      </trkpt>
      <trkpt lat="47.02501" lon="8.94321">
        <ele>829</ele>
        <time>2021-08-03T08:17:41.635Z</time>
      </trkpt>
      <trkpt lat="47.02502" lon="8.94323">
        <ele>829</ele>
        <time>2021-08-03T08:17:42.635Z</time>
      </trkpt>
      <trkpt lat="47.02504" lon="8.94325">
        <ele>830</ele>
        <time>2021-08-03T08:17:43.635Z</time>
      </trkpt>
      <trkpt lat="47.02504" lon="8.94327">
        <ele>830</ele>
        <time>2021-08-03T08:17:44.635Z</time>
      </trkpt>
      <trkpt lat="47.02505" lon="8.94329">
        <ele>830</ele>
        <time>2021-08-03T08:17:45.635Z</time>
      </trkpt>
      <trkpt lat="47.02504" lon="8.94329">
        <ele>830</ele>
        <time>2021-08-03T08:17:46.636Z</time>
      </trkpt>
      <trkpt lat="47.02504" lon="8.9433">
        <ele>830</ele>
        <time>2021-08-03T08:17:47.636Z</time>
      </trkpt>
      <trkpt lat="47.02504" lon="8.9433">
        <ele>830</ele>
        <time>2021-08-03T08:17:48.635Z</time>
      </trkpt>
      <trkpt lat="47.02504" lon="8.94331">
        <ele>830</ele>
        <time>2021-08-03T08:17:49.635Z</time>
      </trkpt>
      <trkpt lat="47.02503" lon="8.94331">
        <ele>830</ele>
        <time>2021-08-03T08:17:50.635Z</time>
      </trkpt>
      <trkpt lat="47.02503" lon="8.94331">
        <ele>830</ele>
        <time>2021-08-03T08:17:51.636Z</time>
      </trkpt>
      <trkpt lat="47.02503" lon="8.9433">
        <ele>831</ele>
        <time>2021-08-03T08:17:52.635Z</time>
      </trkpt>
      <trkpt lat="47.02503" lon="8.94331">
        <ele>831</ele>
        <time>2021-08-03T08:17:53.635Z</time>
      </trkpt>
      <trkpt lat="47.02503" lon="8.94331">
        <ele>831</ele>
        <time>2021-08-03T08:17:54.635Z</time>
      </trkpt>
      <trkpt lat="47.02503" lon="8.94332">
        <ele>832</ele>
        <time>2021-08-03T08:17:55.635Z</time>
      </trkpt>
      <trkpt lat="47.02504" lon="8.94332">
        <ele>832</ele>
        <time>2021-08-03T08:17:56.635Z</time>
      </trkpt>
      <trkpt lat="47.02504" lon="8.94333">
        <ele>832</ele>
        <time>2021-08-03T08:17:57.635Z</time>
      </trkpt>
      <trkpt lat="47.02504" lon="8.94334">
        <ele>832</ele>
        <time>2021-08-03T08:17:58.635Z</time>
      </trkpt>
      <trkpt lat="47.02505" lon="8.94335">
        <ele>833</ele>
        <time>2021-08-03T08:17:59.636Z</time>
      </trkpt>
      <trkpt lat="47.02505" lon="8.94336">
        <ele>833</ele>
        <time>2021-08-03T08:18:00.635Z</time>
      </trkpt>
      <trkpt lat="47.02505" lon="8.94337">
        <ele>833</ele>
        <time>2021-08-03T08:18:01.635Z</time>
      </trkpt>
      <trkpt lat="47.02505" lon="8.94338">
        <ele>833</ele>
        <time>2021-08-03T08:18:02.636Z</time>
      </trkpt>
      <trkpt lat="47.02505" lon="8.94339">
        <ele>834</ele>
        <time>2021-08-03T08:18:03.635Z</time>
      </trkpt>
      <trkpt lat="47.02506" lon="8.94339">
        <ele>834</ele>
        <time>2021-08-03T08:18:04.635Z</time>
      </trkpt>
      <trkpt lat="47.02506" lon="8.9434">
        <ele>834</ele>
        <time>2021-08-03T08:18:05.635Z</time>
      </trkpt>
      <trkpt lat="47.02508" lon="8.9434">
        <ele>834</ele>
        <time>2021-08-03T08:18:06.635Z</time>
      </trkpt>
      <trkpt lat="47.02509" lon="8.9434">
        <ele>835</ele>
        <time>2021-08-03T08:18:07.635Z</time>
      </trkpt>
      <trkpt lat="47.02509" lon="8.94339">
        <ele>835</ele>
        <time>2021-08-03T08:18:08.635Z</time>
      </trkpt>
      <trkpt lat="47.0251" lon="8.94338">
        <ele>835</ele>
        <time>2021-08-03T08:18:09.635Z</time>
      </trkpt>
      <trkpt lat="47.02509" lon="8.94337">
        <ele>835</ele>
        <time>2021-08-03T08:18:10.635Z</time>
      </trkpt>
      <trkpt lat="47.02509" lon="8.94336">
        <ele>835</ele>
        <time>2021-08-03T08:18:11.635Z</time>
      </trkpt>
      <trkpt lat="47.02509" lon="8.94336">
        <ele>835</ele>
        <time>2021-08-03T08:18:12.635Z</time>
      </trkpt>
      <trkpt lat="47.02509" lon="8.94335">
        <ele>835</ele>
        <time>2021-08-03T08:18:13.635Z</time>
      </trkpt>
      <trkpt lat="47.0251" lon="8.94334">
        <ele>836</ele>
        <time>2021-08-03T08:18:14.635Z</time>
      </trkpt>
      <trkpt lat="47.0251" lon="8.94333">
        <ele>836</ele>
        <time>2021-08-03T08:18:15.635Z</time>
      </trkpt>
      <trkpt lat="47.02511" lon="8.94333">
        <ele>836</ele>
        <time>2021-08-03T08:18:16.636Z</time>
      </trkpt>
      <trkpt lat="47.02511" lon="8.94333">
        <ele>836</ele>
        <time>2021-08-03T08:18:17.635Z</time>
      </trkpt>
      <trkpt lat="47.02511" lon="8.94331">
        <ele>836</ele>
        <time>2021-08-03T08:18:18.636Z</time>
      </trkpt>
      <trkpt lat="47.02511" lon="8.9433">
        <ele>836</ele>
        <time>2021-08-03T08:18:19.635Z</time>
      </trkpt>
      <trkpt lat="47.02511" lon="8.94329">
        <ele>836</ele>
        <time>2021-08-03T08:18:20.635Z</time>
      </trkpt>
      <trkpt lat="47.0251" lon="8.94328">
        <ele>836</ele>
        <time>2021-08-03T08:18:21.635Z</time>
      </trkpt>
      <trkpt lat="47.0251" lon="8.94327">
        <ele>836</ele>
        <time>2021-08-03T08:18:22.635Z</time>
      </trkpt>
      <trkpt lat="47.02509" lon="8.94325">
        <ele>836</ele>
        <time>2021-08-03T08:18:23.635Z</time>
      </trkpt>
      <trkpt lat="47.02509" lon="8.94324">
        <ele>837</ele>
        <time>2021-08-03T08:18:24.635Z</time>
      </trkpt>
      <trkpt lat="47.02509" lon="8.94322">
        <ele>837</ele>
        <time>2021-08-03T08:18:25.635Z</time>
      </trkpt>
      <trkpt lat="47.02509" lon="8.94321">
        <ele>837</ele>
        <time>2021-08-03T08:18:26.635Z</time>
      </trkpt>
      <trkpt lat="47.02509" lon="8.94319">
        <ele>837</ele>
        <time>2021-08-03T08:18:27.635Z</time>
      </trkpt>
      <trkpt lat="47.02509" lon="8.94318">
        <ele>837</ele>
        <time>2021-08-03T08:18:28.635Z</time>
      </trkpt>
      <trkpt lat="47.02509" lon="8.94316">
        <ele>837</ele>
        <time>2021-08-03T08:18:29.635Z</time>
      </trkpt>
      <trkpt lat="47.0251" lon="8.94315">
        <ele>837</ele>
        <time>2021-08-03T08:18:30.635Z</time>
      </trkpt>
      <trkpt lat="47.02511" lon="8.94314">
        <ele>837</ele>
        <time>2021-08-03T08:18:31.635Z</time>
      </trkpt>
      <trkpt lat="47.02511" lon="8.94312">
        <ele>837</ele>
        <time>2021-08-03T08:18:32.635Z</time>
      </trkpt>
      <trkpt lat="47.02511" lon="8.94312">
        <ele>837</ele>
        <time>2021-08-03T08:18:33.635Z</time>
      </trkpt>
      <trkpt lat="47.02512" lon="8.94309">
        <ele>838</ele>
        <time>2021-08-03T08:18:34.635Z</time>
      </trkpt>
      <trkpt lat="47.02512" lon="8.94308">
        <ele>838</ele>
        <time>2021-08-03T08:18:35.635Z</time>
      </trkpt>
      <trkpt lat="47.02513" lon="8.94307">
        <ele>838</ele>
        <time>2021-08-03T08:18:36.635Z</time>
      </trkpt>
      <trkpt lat="47.02513" lon="8.94307">
        <ele>838</ele>
        <time>2021-08-03T08:18:37.635Z</time>
      </trkpt>
      <trkpt lat="47.02513" lon="8.94306">
        <ele>838</ele>
        <time>2021-08-03T08:18:38.635Z</time>
      </trkpt>
      <trkpt lat="47.02515" lon="8.94304">
        <ele>838</ele>
        <time>2021-08-03T08:18:39.635Z</time>
      </trkpt>
      <trkpt lat="47.02515" lon="8.94302">
        <ele>838</ele>
        <time>2021-08-03T08:18:40.635Z</time>
      </trkpt>
      <trkpt lat="47.02515" lon="8.94301">
        <ele>839</ele>
        <time>2021-08-03T08:18:41.635Z</time>
      </trkpt>
      <trkpt lat="47.02515" lon="8.943">
        <ele>839</ele>
        <time>2021-08-03T08:18:42.635Z</time>
      </trkpt>
      <trkpt lat="47.02515" lon="8.94299">
        <ele>839</ele>
        <time>2021-08-03T08:18:43.636Z</time>
      </trkpt>
      <trkpt lat="47.02515" lon="8.94298">
        <ele>839</ele>
        <time>2021-08-03T08:18:44.635Z</time>
      </trkpt>
      <trkpt lat="47.02516" lon="8.94297">
        <ele>839</ele>
        <time>2021-08-03T08:18:45.635Z</time>
      </trkpt>
      <trkpt lat="47.02516" lon="8.94295">
        <ele>839</ele>
        <time>2021-08-03T08:18:46.635Z</time>
      </trkpt>
      <trkpt lat="47.02515" lon="8.94293">
        <ele>839</ele>
        <time>2021-08-03T08:18:47.635Z</time>
      </trkpt>
      <trkpt lat="47.02515" lon="8.94293">
        <ele>839</ele>
        <time>2021-08-03T08:18:48.635Z</time>
      </trkpt>
      <trkpt lat="47.02516" lon="8.94292">
        <ele>840</ele>
        <time>2021-08-03T08:18:49.635Z</time>
      </trkpt>
      <trkpt lat="47.02517" lon="8.94292">
        <ele>840</ele>
        <time>2021-08-03T08:18:50.635Z</time>
      </trkpt>
      <trkpt lat="47.02516" lon="8.94292">
        <ele>840</ele>
        <time>2021-08-03T08:18:51.635Z</time>
      </trkpt>
      <trkpt lat="47.02516" lon="8.94291">
        <ele>841</ele>
        <time>2021-08-03T08:18:52.636Z</time>
      </trkpt>
      <trkpt lat="47.02515" lon="8.9429">
        <ele>841</ele>
        <time>2021-08-03T08:18:53.635Z</time>
      </trkpt>
      <trkpt lat="47.02515" lon="8.94288">
        <ele>841</ele>
        <time>2021-08-03T08:18:54.635Z</time>
      </trkpt>
      <trkpt lat="47.02514" lon="8.94286">
        <ele>841</ele>
        <time>2021-08-03T08:18:55.635Z</time>
      </trkpt>
      <trkpt lat="47.02513" lon="8.94284">
        <ele>841</ele>
        <time>2021-08-03T08:18:56.635Z</time>
      </trkpt>
      <trkpt lat="47.02513" lon="8.94281">
        <ele>841</ele>
        <time>2021-08-03T08:18:57.635Z</time>
      </trkpt>
      <trkpt lat="47.02512" lon="8.94279">
        <ele>842</ele>
        <time>2021-08-03T08:18:58.635Z</time>
      </trkpt>
      <trkpt lat="47.02511" lon="8.94277">
        <ele>842</ele>
        <time>2021-08-03T08:18:59.635Z</time>
      </trkpt>
      <trkpt lat="47.02511" lon="8.94275">
        <ele>842</ele>
        <time>2021-08-03T08:19:00.635Z</time>
      </trkpt>
      <trkpt lat="47.02511" lon="8.94273">
        <ele>842</ele>
        <time>2021-08-03T08:19:01.635Z</time>
      </trkpt>
      <trkpt lat="47.02511" lon="8.94273">
        <ele>842</ele>
        <time>2021-08-03T08:19:02.635Z</time>
      </trkpt>
      <trkpt lat="47.02511" lon="8.94272">
        <ele>842</ele>
        <time>2021-08-03T08:19:03.635Z</time>
      </trkpt>
      <trkpt lat="47.02512" lon="8.9427">
        <ele>842</ele>
        <time>2021-08-03T08:19:04.636Z</time>
      </trkpt>
      <trkpt lat="47.02514" lon="8.94271">
        <ele>842</ele>
        <time>2021-08-03T08:19:05.635Z</time>
      </trkpt>
      <trkpt lat="47.02514" lon="8.94271">
        <ele>842</ele>
        <time>2021-08-03T08:19:06.635Z</time>
      </trkpt>
      <trkpt lat="47.02514" lon="8.94271">
        <ele>842</ele>
        <time>2021-08-03T08:19:07.635Z</time>
      </trkpt>
      <trkpt lat="47.02515" lon="8.94271">
        <ele>843</ele>
        <time>2021-08-03T08:19:08.635Z</time>
      </trkpt>
      <trkpt lat="47.02515" lon="8.9427">
        <ele>843</ele>
        <time>2021-08-03T08:19:09.635Z</time>
      </trkpt>
      <trkpt lat="47.02515" lon="8.94268">
        <ele>843</ele>
        <time>2021-08-03T08:19:10.635Z</time>
      </trkpt>
      <trkpt lat="47.02515" lon="8.94265">
        <ele>843</ele>
        <time>2021-08-03T08:19:11.635Z</time>
      </trkpt>
      <trkpt lat="47.02514" lon="8.94263">
        <ele>843</ele>
        <time>2021-08-03T08:19:12.635Z</time>
      </trkpt>
      <trkpt lat="47.02513" lon="8.9426">
        <ele>844</ele>
        <time>2021-08-03T08:19:13.636Z</time>
      </trkpt>
      <trkpt lat="47.02513" lon="8.94257">
        <ele>844</ele>
        <time>2021-08-03T08:19:14.635Z</time>
      </trkpt>
      <trkpt lat="47.02513" lon="8.94253">
        <ele>844</ele>
        <time>2021-08-03T08:19:15.635Z</time>
      </trkpt>
      <trkpt lat="47.02513" lon="8.94253">
        <ele>845</ele>
        <time>2021-08-03T08:19:16.635Z</time>
      </trkpt>
      <trkpt lat="47.02512" lon="8.94251">
        <ele>845</ele>
        <time>2021-08-03T08:19:17.635Z</time>
      </trkpt>
      <trkpt lat="47.02512" lon="8.94248">
        <ele>845</ele>
        <time>2021-08-03T08:19:18.635Z</time>
      </trkpt>
      <trkpt lat="47.02512" lon="8.94246">
        <ele>846</ele>
        <time>2021-08-03T08:19:19.635Z</time>
      </trkpt>
      <trkpt lat="47.02512" lon="8.94243">
        <ele>847</ele>
        <time>2021-08-03T08:19:20.635Z</time>
      </trkpt>
      <trkpt lat="47.02513" lon="8.94239">
        <ele>848</ele>
        <time>2021-08-03T08:19:21.635Z</time>
      </trkpt>
      <trkpt lat="47.02513" lon="8.94239">
        <ele>848</ele>
        <time>2021-08-03T08:19:22.635Z</time>
      </trkpt>
      <trkpt lat="47.02513" lon="8.94238">
        <ele>848</ele>
        <time>2021-08-03T08:19:23.635Z</time>
      </trkpt>
      <trkpt lat="47.02513" lon="8.94236">
        <ele>849</ele>
        <time>2021-08-03T08:19:24.635Z</time>
      </trkpt>
      <trkpt lat="47.02514" lon="8.94233">
        <ele>850</ele>
        <time>2021-08-03T08:19:25.635Z</time>
      </trkpt>
      <trkpt lat="47.02514" lon="8.94233">
        <ele>850</ele>
        <time>2021-08-03T08:19:26.636Z</time>
      </trkpt>
      <trkpt lat="47.02514" lon="8.94231">
        <ele>850</ele>
        <time>2021-08-03T08:19:27.635Z</time>
      </trkpt>
      <trkpt lat="47.02515" lon="8.9423">
        <ele>851</ele>
        <time>2021-08-03T08:19:28.635Z</time>
      </trkpt>
      <trkpt lat="47.02515" lon="8.94226">
        <ele>852</ele>
        <time>2021-08-03T08:19:29.635Z</time>
      </trkpt>
      <trkpt lat="47.02515" lon="8.94224">
        <ele>852</ele>
        <time>2021-08-03T08:19:30.635Z</time>
      </trkpt>
      <trkpt lat="47.02515" lon="8.9422">
        <ele>853</ele>
        <time>2021-08-03T08:19:31.636Z</time>
      </trkpt>
      <trkpt lat="47.02515" lon="8.9422">
        <ele>853</ele>
        <time>2021-08-03T08:19:32.635Z</time>
      </trkpt>
      <trkpt lat="47.02514" lon="8.94214">
        <ele>853</ele>
        <time>2021-08-03T08:19:33.635Z</time>
      </trkpt>
      <trkpt lat="47.02514" lon="8.94214">
        <ele>853</ele>
        <time>2021-08-03T08:19:34.636Z</time>
      </trkpt>
      <trkpt lat="47.02514" lon="8.9421">
        <ele>854</ele>
        <time>2021-08-03T08:19:35.635Z</time>
      </trkpt>
      <trkpt lat="47.02514" lon="8.9421">
        <ele>854</ele>
        <time>2021-08-03T08:19:36.635Z</time>
      </trkpt>
      <trkpt lat="47.02514" lon="8.94207">
        <ele>855</ele>
        <time>2021-08-03T08:19:37.635Z</time>
      </trkpt>
      <trkpt lat="47.02514" lon="8.94207">
        <ele>855</ele>
        <time>2021-08-03T08:19:38.635Z</time>
      </trkpt>
      <trkpt lat="47.02516" lon="8.94206">
        <ele>855</ele>
        <time>2021-08-03T08:19:39.636Z</time>
      </trkpt>
      <trkpt lat="47.02516" lon="8.94206">
        <ele>855</ele>
        <time>2021-08-03T08:19:40.636Z</time>
      </trkpt>
      <trkpt lat="47.02516" lon="8.94203">
        <ele>856</ele>
        <time>2021-08-03T08:19:41.635Z</time>
      </trkpt>
      <trkpt lat="47.02516" lon="8.94203">
        <ele>856</ele>
        <time>2021-08-03T08:19:42.635Z</time>
      </trkpt>
      <trkpt lat="47.02516" lon="8.942">
        <ele>856</ele>
        <time>2021-08-03T08:19:43.635Z</time>
      </trkpt>
      <trkpt lat="47.02516" lon="8.94197">
        <ele>857</ele>
        <time>2021-08-03T08:19:44.636Z</time>
      </trkpt>
      <trkpt lat="47.02515" lon="8.94191">
        <ele>857</ele>
        <time>2021-08-03T08:19:45.635Z</time>
      </trkpt>
      <trkpt lat="47.02515" lon="8.94191">
        <ele>857</ele>
        <time>2021-08-03T08:19:46.635Z</time>
      </trkpt>
      <trkpt lat="47.02515" lon="8.94189">
        <ele>858</ele>
        <time>2021-08-03T08:19:47.635Z</time>
      </trkpt>
      <trkpt lat="47.02515" lon="8.94183">
        <ele>858</ele>
        <time>2021-08-03T08:19:48.635Z</time>
      </trkpt>
      <trkpt lat="47.02515" lon="8.94183">
        <ele>858</ele>
        <time>2021-08-03T08:19:49.635Z</time>
      </trkpt>
      <trkpt lat="47.02517" lon="8.9418">
        <ele>859</ele>
        <time>2021-08-03T08:19:50.635Z</time>
      </trkpt>
      <trkpt lat="47.02517" lon="8.94179">
        <ele>859</ele>
        <time>2021-08-03T08:19:51.635Z</time>
      </trkpt>
      <trkpt lat="47.02518" lon="8.94177">
        <ele>859</ele>
        <time>2021-08-03T08:19:52.635Z</time>
      </trkpt>
      <trkpt lat="47.02518" lon="8.94175">
        <ele>859</ele>
        <time>2021-08-03T08:19:53.635Z</time>
      </trkpt>
      <trkpt lat="47.02518" lon="8.94173">
        <ele>859</ele>
        <time>2021-08-03T08:19:54.635Z</time>
      </trkpt>
      <trkpt lat="47.02518" lon="8.94173">
        <ele>859</ele>
        <time>2021-08-03T08:19:55.635Z</time>
      </trkpt>
      <trkpt lat="47.02517" lon="8.94169">
        <ele>860</ele>
        <time>2021-08-03T08:19:56.635Z</time>
      </trkpt>
      <trkpt lat="47.02517" lon="8.94167">
        <ele>860</ele>
        <time>2021-08-03T08:19:57.635Z</time>
      </trkpt>
      <trkpt lat="47.02517" lon="8.94167">
        <ele>860</ele>
        <time>2021-08-03T08:19:58.636Z</time>
      </trkpt>
      <trkpt lat="47.02517" lon="8.94165">
        <ele>861</ele>
        <time>2021-08-03T08:19:59.636Z</time>
      </trkpt>
      <trkpt lat="47.02517" lon="8.94164">
        <ele>861</ele>
        <time>2021-08-03T08:20:00.635Z</time>
      </trkpt>
      <trkpt lat="47.02517" lon="8.94163">
        <ele>862</ele>
        <time>2021-08-03T08:20:01.635Z</time>
      </trkpt>
      <trkpt lat="47.02517" lon="8.94161">
        <ele>862</ele>
        <time>2021-08-03T08:20:02.635Z</time>
      </trkpt>
      <trkpt lat="47.02516" lon="8.9416">
        <ele>862</ele>
        <time>2021-08-03T08:20:03.635Z</time>
      </trkpt>
      <trkpt lat="47.02518" lon="8.94157">
        <ele>863</ele>
        <time>2021-08-03T08:20:04.635Z</time>
      </trkpt>
      <trkpt lat="47.02518" lon="8.94155">
        <ele>863</ele>
        <time>2021-08-03T08:20:05.635Z</time>
      </trkpt>
      <trkpt lat="47.02518" lon="8.94155">
        <ele>863</ele>
        <time>2021-08-03T08:20:06.635Z</time>
      </trkpt>
      <trkpt lat="47.02519" lon="8.94153">
        <ele>863</ele>
        <time>2021-08-03T08:20:07.635Z</time>
      </trkpt>
      <trkpt lat="47.0252" lon="8.94152">
        <ele>863</ele>
        <time>2021-08-03T08:20:08.635Z</time>
      </trkpt>
      <trkpt lat="47.02522" lon="8.94151">
        <ele>863</ele>
        <time>2021-08-03T08:20:09.636Z</time>
      </trkpt>
      <trkpt lat="47.02523" lon="8.94151">
        <ele>863</ele>
        <time>2021-08-03T08:20:10.636Z</time>
      </trkpt>
      <trkpt lat="47.02524" lon="8.94149">
        <ele>864</ele>
        <time>2021-08-03T08:20:11.635Z</time>
      </trkpt>
      <trkpt lat="47.02524" lon="8.94148">
        <ele>864</ele>
        <time>2021-08-03T08:20:12.635Z</time>
      </trkpt>
      <trkpt lat="47.02524" lon="8.94148">
        <ele>864</ele>
        <time>2021-08-03T08:20:13.636Z</time>
      </trkpt>
      <trkpt lat="47.02525" lon="8.94148">
        <ele>864</ele>
        <time>2021-08-03T08:20:14.636Z</time>
      </trkpt>
      <trkpt lat="47.02526" lon="8.94147">
        <ele>864</ele>
        <time>2021-08-03T08:20:15.635Z</time>
      </trkpt>
      <trkpt lat="47.02527" lon="8.94145">
        <ele>864</ele>
        <time>2021-08-03T08:20:16.635Z</time>
      </trkpt>
      <trkpt lat="47.02527" lon="8.94145">
        <ele>865</ele>
        <time>2021-08-03T08:20:17.635Z</time>
      </trkpt>
      <trkpt lat="47.02527" lon="8.94144">
        <ele>865</ele>
        <time>2021-08-03T08:20:18.635Z</time>
      </trkpt>
      <trkpt lat="47.02528" lon="8.94144">
        <ele>865</ele>
        <time>2021-08-03T08:20:19.635Z</time>
      </trkpt>
      <trkpt lat="47.02529" lon="8.94143">
        <ele>865</ele>
        <time>2021-08-03T08:20:20.635Z</time>
      </trkpt>
      <trkpt lat="47.02529" lon="8.94143">
        <ele>865</ele>
        <time>2021-08-03T08:20:21.635Z</time>
      </trkpt>
      <trkpt lat="47.02531" lon="8.94141">
        <ele>864</ele>
        <time>2021-08-03T08:20:22.635Z</time>
      </trkpt>
      <trkpt lat="47.02531" lon="8.94139">
        <ele>864</ele>
        <time>2021-08-03T08:20:23.635Z</time>
      </trkpt>
      <trkpt lat="47.02531" lon="8.94139">
        <ele>864</ele>
        <time>2021-08-03T08:20:24.635Z</time>
      </trkpt>
      <trkpt lat="47.02531" lon="8.94138">
        <ele>865</ele>
        <time>2021-08-03T08:20:25.635Z</time>
      </trkpt>
      <trkpt lat="47.02531" lon="8.94136">
        <ele>865</ele>
        <time>2021-08-03T08:20:26.635Z</time>
      </trkpt>
      <trkpt lat="47.02531" lon="8.94134">
        <ele>865</ele>
        <time>2021-08-03T08:20:27.635Z</time>
      </trkpt>
      <trkpt lat="47.02531" lon="8.94133">
        <ele>865</ele>
        <time>2021-08-03T08:20:28.636Z</time>
      </trkpt>
      <trkpt lat="47.0253" lon="8.94132">
        <ele>865</ele>
        <time>2021-08-03T08:20:29.635Z</time>
      </trkpt>
      <trkpt lat="47.02531" lon="8.9413">
        <ele>865</ele>
        <time>2021-08-03T08:20:30.635Z</time>
      </trkpt>
      <trkpt lat="47.02532" lon="8.94129">
        <ele>865</ele>
        <time>2021-08-03T08:20:31.635Z</time>
      </trkpt>
      <trkpt lat="47.02533" lon="8.94128">
        <ele>864</ele>
        <time>2021-08-03T08:20:32.635Z</time>
      </trkpt>
      <trkpt lat="47.02534" lon="8.94126">
        <ele>864</ele>
        <time>2021-08-03T08:20:33.635Z</time>
      </trkpt>
      <trkpt lat="47.02534" lon="8.94126">
        <ele>864</ele>
        <time>2021-08-03T08:20:34.635Z</time>
      </trkpt>
      <trkpt lat="47.02536" lon="8.94124">
        <ele>863</ele>
        <time>2021-08-03T08:20:35.635Z</time>
      </trkpt>
      <trkpt lat="47.02536" lon="8.94124">
        <ele>863</ele>
        <time>2021-08-03T08:20:36.635Z</time>
      </trkpt>
      <trkpt lat="47.02536" lon="8.94123">
        <ele>863</ele>
        <time>2021-08-03T08:20:37.635Z</time>
      </trkpt>
      <trkpt lat="47.02538" lon="8.94122">
        <ele>863</ele>
        <time>2021-08-03T08:20:38.635Z</time>
      </trkpt>
      <trkpt lat="47.02539" lon="8.94121">
        <ele>863</ele>
        <time>2021-08-03T08:20:39.635Z</time>
      </trkpt>
      <trkpt lat="47.0254" lon="8.9412">
        <ele>863</ele>
        <time>2021-08-03T08:20:40.635Z</time>
      </trkpt>
      <trkpt lat="47.02541" lon="8.94117">
        <ele>863</ele>
        <time>2021-08-03T08:20:41.635Z</time>
      </trkpt>
      <trkpt lat="47.02541" lon="8.94117">
        <ele>863</ele>
        <time>2021-08-03T08:20:42.635Z</time>
      </trkpt>
      <trkpt lat="47.02541" lon="8.94117">
        <ele>862</ele>
        <time>2021-08-03T08:20:43.635Z</time>
      </trkpt>
      <trkpt lat="47.02542" lon="8.94116">
        <ele>862</ele>
        <time>2021-08-03T08:20:44.636Z</time>
      </trkpt>
      <trkpt lat="47.02543" lon="8.94115">
        <ele>862</ele>
        <time>2021-08-03T08:20:45.635Z</time>
      </trkpt>
      <trkpt lat="47.02543" lon="8.94114">
        <ele>862</ele>
        <time>2021-08-03T08:20:46.635Z</time>
      </trkpt>
      <trkpt lat="47.02544" lon="8.94111">
        <ele>862</ele>
        <time>2021-08-03T08:20:47.636Z</time>
      </trkpt>
      <trkpt lat="47.02544" lon="8.94109">
        <ele>862</ele>
        <time>2021-08-03T08:20:48.636Z</time>
      </trkpt>
      <trkpt lat="47.02543" lon="8.94106">
        <ele>862</ele>
        <time>2021-08-03T08:20:49.635Z</time>
      </trkpt>
      <trkpt lat="47.02543" lon="8.94106">
        <ele>862</ele>
        <time>2021-08-03T08:20:50.636Z</time>
      </trkpt>
      <trkpt lat="47.02544" lon="8.94105">
        <ele>862</ele>
        <time>2021-08-03T08:20:51.635Z</time>
      </trkpt>
      <trkpt lat="47.02544" lon="8.94103">
        <ele>862</ele>
        <time>2021-08-03T08:20:52.635Z</time>
      </trkpt>
      <trkpt lat="47.02544" lon="8.94103">
        <ele>862</ele>
        <time>2021-08-03T08:20:53.635Z</time>
      </trkpt>
      <trkpt lat="47.02545" lon="8.94101">
        <ele>862</ele>
        <time>2021-08-03T08:20:54.635Z</time>
      </trkpt>
      <trkpt lat="47.02545" lon="8.94099">
        <ele>862</ele>
        <time>2021-08-03T08:20:55.635Z</time>
      </trkpt>
      <trkpt lat="47.02545" lon="8.94096">
        <ele>863</ele>
        <time>2021-08-03T08:20:56.636Z</time>
      </trkpt>
      <trkpt lat="47.02545" lon="8.94096">
        <ele>863</ele>
        <time>2021-08-03T08:20:57.636Z</time>
      </trkpt>
      <trkpt lat="47.02546" lon="8.94093">
        <ele>863</ele>
        <time>2021-08-03T08:20:58.635Z</time>
      </trkpt>
      <trkpt lat="47.02546" lon="8.94093">
        <ele>863</ele>
        <time>2021-08-03T08:20:59.635Z</time>
      </trkpt>
      <trkpt lat="47.02546" lon="8.94092">
        <ele>863</ele>
        <time>2021-08-03T08:21:00.635Z</time>
      </trkpt>
      <trkpt lat="47.02546" lon="8.9409">
        <ele>863</ele>
        <time>2021-08-03T08:21:01.635Z</time>
      </trkpt>
      <trkpt lat="47.02545" lon="8.94087">
        <ele>864</ele>
        <time>2021-08-03T08:21:02.636Z</time>
      </trkpt>
      <trkpt lat="47.02545" lon="8.94085">
        <ele>864</ele>
        <time>2021-08-03T08:21:03.635Z</time>
      </trkpt>
      <trkpt lat="47.02545" lon="8.94083">
        <ele>864</ele>
        <time>2021-08-03T08:21:04.635Z</time>
      </trkpt>
      <trkpt lat="47.02546" lon="8.94082">
        <ele>864</ele>
        <time>2021-08-03T08:21:05.635Z</time>
      </trkpt>
      <trkpt lat="47.02546" lon="8.9408">
        <ele>865</ele>
        <time>2021-08-03T08:21:06.635Z</time>
      </trkpt>
      <trkpt lat="47.02547" lon="8.94079">
        <ele>865</ele>
        <time>2021-08-03T08:21:07.636Z</time>
      </trkpt>
      <trkpt lat="47.02547" lon="8.94077">
        <ele>865</ele>
        <time>2021-08-03T08:21:08.636Z</time>
      </trkpt>
      <trkpt lat="47.02547" lon="8.94076">
        <ele>865</ele>
        <time>2021-08-03T08:21:09.636Z</time>
      </trkpt>
      <trkpt lat="47.02548" lon="8.94074">
        <ele>865</ele>
        <time>2021-08-03T08:21:10.635Z</time>
      </trkpt>
      <trkpt lat="47.02548" lon="8.94071">
        <ele>865</ele>
        <time>2021-08-03T08:21:11.635Z</time>
      </trkpt>
      <trkpt lat="47.02548" lon="8.94069">
        <ele>865</ele>
        <time>2021-08-03T08:21:12.635Z</time>
      </trkpt>
      <trkpt lat="47.02548" lon="8.94066">
        <ele>864</ele>
        <time>2021-08-03T08:21:13.635Z</time>
      </trkpt>
      <trkpt lat="47.02548" lon="8.94064">
        <ele>864</ele>
        <time>2021-08-03T08:21:14.635Z</time>
      </trkpt>
      <trkpt lat="47.02549" lon="8.94063">
        <ele>863</ele>
        <time>2021-08-03T08:21:15.636Z</time>
      </trkpt>
      <trkpt lat="47.02549" lon="8.94061">
        <ele>863</ele>
        <time>2021-08-03T08:21:16.635Z</time>
      </trkpt>
      <trkpt lat="47.0255" lon="8.94061">
        <ele>862</ele>
        <time>2021-08-03T08:21:17.635Z</time>
      </trkpt>
      <trkpt lat="47.0255" lon="8.9406">
        <ele>862</ele>
        <time>2021-08-03T08:21:18.635Z</time>
      </trkpt>
      <trkpt lat="47.0255" lon="8.94058">
        <ele>862</ele>
        <time>2021-08-03T08:21:19.635Z</time>
      </trkpt>
      <trkpt lat="47.02551" lon="8.94057">
        <ele>862</ele>
        <time>2021-08-03T08:21:20.635Z</time>
      </trkpt>
      <trkpt lat="47.02551" lon="8.94056">
        <ele>861</ele>
        <time>2021-08-03T08:21:21.635Z</time>
      </trkpt>
      <trkpt lat="47.02551" lon="8.94055">
        <ele>861</ele>
        <time>2021-08-03T08:21:22.636Z</time>
      </trkpt>
      <trkpt lat="47.02552" lon="8.94054">
        <ele>861</ele>
        <time>2021-08-03T08:21:23.636Z</time>
      </trkpt>
      <trkpt lat="47.02552" lon="8.94053">
        <ele>860</ele>
        <time>2021-08-03T08:21:24.635Z</time>
      </trkpt>
      <trkpt lat="47.02553" lon="8.94051">
        <ele>860</ele>
        <time>2021-08-03T08:21:25.635Z</time>
      </trkpt>
      <trkpt lat="47.02553" lon="8.9405">
        <ele>860</ele>
        <time>2021-08-03T08:21:26.636Z</time>
      </trkpt>
      <trkpt lat="47.02554" lon="8.94048">
        <ele>860</ele>
        <time>2021-08-03T08:21:27.635Z</time>
      </trkpt>
      <trkpt lat="47.02554" lon="8.94047">
        <ele>859</ele>
        <time>2021-08-03T08:21:28.635Z</time>
      </trkpt>
      <trkpt lat="47.02555" lon="8.94046">
        <ele>859</ele>
        <time>2021-08-03T08:21:29.635Z</time>
      </trkpt>
      <trkpt lat="47.02555" lon="8.94045">
        <ele>859</ele>
        <time>2021-08-03T08:21:30.635Z</time>
      </trkpt>
      <trkpt lat="47.02555" lon="8.94044">
        <ele>859</ele>
        <time>2021-08-03T08:21:31.636Z</time>
      </trkpt>
      <trkpt lat="47.02555" lon="8.94043">
        <ele>859</ele>
        <time>2021-08-03T08:21:32.635Z</time>
      </trkpt>
      <trkpt lat="47.02556" lon="8.94041">
        <ele>858</ele>
        <time>2021-08-03T08:21:33.635Z</time>
      </trkpt>
      <trkpt lat="47.02556" lon="8.94039">
        <ele>858</ele>
        <time>2021-08-03T08:21:34.635Z</time>
      </trkpt>
      <trkpt lat="47.02556" lon="8.94038">
        <ele>858</ele>
        <time>2021-08-03T08:21:35.636Z</time>
      </trkpt>
      <trkpt lat="47.02556" lon="8.94036">
        <ele>858</ele>
        <time>2021-08-03T08:21:36.636Z</time>
      </trkpt>
      <trkpt lat="47.02556" lon="8.94035">
        <ele>858</ele>
        <time>2021-08-03T08:21:37.635Z</time>
      </trkpt>
      <trkpt lat="47.02556" lon="8.94034">
        <ele>858</ele>
        <time>2021-08-03T08:21:38.636Z</time>
      </trkpt>
      <trkpt lat="47.02556" lon="8.94033">
        <ele>857</ele>
        <time>2021-08-03T08:21:39.635Z</time>
      </trkpt>
      <trkpt lat="47.02557" lon="8.94032">
        <ele>857</ele>
        <time>2021-08-03T08:21:40.635Z</time>
      </trkpt>
      <trkpt lat="47.02557" lon="8.94031">
        <ele>857</ele>
        <time>2021-08-03T08:21:41.636Z</time>
      </trkpt>
      <trkpt lat="47.02557" lon="8.9403">
        <ele>857</ele>
        <time>2021-08-03T08:21:42.635Z</time>
      </trkpt>
      <trkpt lat="47.02558" lon="8.94029">
        <ele>857</ele>
        <time>2021-08-03T08:21:43.635Z</time>
      </trkpt>
      <trkpt lat="47.02558" lon="8.94027">
        <ele>857</ele>
        <time>2021-08-03T08:21:44.636Z</time>
      </trkpt>
      <trkpt lat="47.02559" lon="8.94026">
        <ele>857</ele>
        <time>2021-08-03T08:21:45.635Z</time>
      </trkpt>
      <trkpt lat="47.02559" lon="8.94025">
        <ele>857</ele>
        <time>2021-08-03T08:21:46.635Z</time>
      </trkpt>
      <trkpt lat="47.02559" lon="8.94024">
        <ele>857</ele>
        <time>2021-08-03T08:21:47.636Z</time>
      </trkpt>
      <trkpt lat="47.0256" lon="8.94022">
        <ele>857</ele>
        <time>2021-08-03T08:21:48.635Z</time>
      </trkpt>
      <trkpt lat="47.0256" lon="8.9402">
        <ele>857</ele>
        <time>2021-08-03T08:21:49.635Z</time>
      </trkpt>
      <trkpt lat="47.02561" lon="8.94019">
        <ele>857</ele>
        <time>2021-08-03T08:21:50.635Z</time>
      </trkpt>
      <trkpt lat="47.02562" lon="8.94017">
        <ele>857</ele>
        <time>2021-08-03T08:21:51.636Z</time>
      </trkpt>
      <trkpt lat="47.02562" lon="8.94016">
        <ele>857</ele>
        <time>2021-08-03T08:21:52.635Z</time>
      </trkpt>
      <trkpt lat="47.02562" lon="8.94015">
        <ele>857</ele>
        <time>2021-08-03T08:21:53.635Z</time>
      </trkpt>
      <trkpt lat="47.02563" lon="8.94014">
        <ele>857</ele>
        <time>2021-08-03T08:21:54.635Z</time>
      </trkpt>
      <trkpt lat="47.02563" lon="8.94013">
        <ele>857</ele>
        <time>2021-08-03T08:21:55.636Z</time>
      </trkpt>
      <trkpt lat="47.02564" lon="8.94012">
        <ele>857</ele>
        <time>2021-08-03T08:21:56.636Z</time>
      </trkpt>
      <trkpt lat="47.02564" lon="8.94011">
        <ele>857</ele>
        <time>2021-08-03T08:21:57.635Z</time>
      </trkpt>
      <trkpt lat="47.02565" lon="8.94009">
        <ele>858</ele>
        <time>2021-08-03T08:21:58.636Z</time>
      </trkpt>
      <trkpt lat="47.02566" lon="8.94008">
        <ele>858</ele>
        <time>2021-08-03T08:21:59.636Z</time>
      </trkpt>
      <trkpt lat="47.02566" lon="8.94007">
        <ele>858</ele>
        <time>2021-08-03T08:22:00.636Z</time>
      </trkpt>
      <trkpt lat="47.02567" lon="8.94005">
        <ele>859</ele>
        <time>2021-08-03T08:22:01.635Z</time>
      </trkpt>
      <trkpt lat="47.02567" lon="8.94004">
        <ele>859</ele>
        <time>2021-08-03T08:22:02.635Z</time>
      </trkpt>
      <trkpt lat="47.02567" lon="8.94003">
        <ele>860</ele>
        <time>2021-08-03T08:22:03.635Z</time>
      </trkpt>
      <trkpt lat="47.02567" lon="8.94002">
        <ele>860</ele>
        <time>2021-08-03T08:22:04.635Z</time>
      </trkpt>
      <trkpt lat="47.02568" lon="8.94">
        <ele>860</ele>
        <time>2021-08-03T08:22:05.636Z</time>
      </trkpt>
      <trkpt lat="47.02569" lon="8.93999">
        <ele>861</ele>
        <time>2021-08-03T08:22:06.635Z</time>
      </trkpt>
      <trkpt lat="47.0257" lon="8.93998">
        <ele>861</ele>
        <time>2021-08-03T08:22:07.636Z</time>
      </trkpt>
      <trkpt lat="47.0257" lon="8.93996">
        <ele>861</ele>
        <time>2021-08-03T08:22:08.635Z</time>
      </trkpt>
      <trkpt lat="47.0257" lon="8.93995">
        <ele>862</ele>
        <time>2021-08-03T08:22:09.636Z</time>
      </trkpt>
      <trkpt lat="47.02571" lon="8.93995">
        <ele>862</ele>
        <time>2021-08-03T08:22:10.636Z</time>
      </trkpt>
      <trkpt lat="47.02571" lon="8.93993">
        <ele>862</ele>
        <time>2021-08-03T08:22:11.636Z</time>
      </trkpt>
      <trkpt lat="47.02572" lon="8.93991">
        <ele>863</ele>
        <time>2021-08-03T08:22:12.636Z</time>
      </trkpt>
      <trkpt lat="47.02572" lon="8.93989">
        <ele>863</ele>
        <time>2021-08-03T08:22:13.636Z</time>
      </trkpt>
      <trkpt lat="47.02572" lon="8.93987">
        <ele>863</ele>
        <time>2021-08-03T08:22:14.635Z</time>
      </trkpt>
      <trkpt lat="47.02573" lon="8.93985">
        <ele>863</ele>
        <time>2021-08-03T08:22:15.635Z</time>
      </trkpt>
      <trkpt lat="47.02573" lon="8.93983">
        <ele>863</ele>
        <time>2021-08-03T08:22:16.635Z</time>
      </trkpt>
      <trkpt lat="47.02573" lon="8.93982">
        <ele>864</ele>
        <time>2021-08-03T08:22:17.636Z</time>
      </trkpt>
      <trkpt lat="47.02573" lon="8.93982">
        <ele>864</ele>
        <time>2021-08-03T08:22:18.635Z</time>
      </trkpt>
      <trkpt lat="47.02574" lon="8.93981">
        <ele>864</ele>
        <time>2021-08-03T08:22:19.635Z</time>
      </trkpt>
      <trkpt lat="47.02574" lon="8.9398">
        <ele>865</ele>
        <time>2021-08-03T08:22:20.636Z</time>
      </trkpt>
      <trkpt lat="47.02575" lon="8.93978">
        <ele>865</ele>
        <time>2021-08-03T08:22:21.636Z</time>
      </trkpt>
      <trkpt lat="47.02575" lon="8.93977">
        <ele>865</ele>
        <time>2021-08-03T08:22:22.636Z</time>
      </trkpt>
      <trkpt lat="47.02575" lon="8.93976">
        <ele>865</ele>
        <time>2021-08-03T08:22:23.636Z</time>
      </trkpt>
      <trkpt lat="47.02576" lon="8.93975">
        <ele>866</ele>
        <time>2021-08-03T08:22:24.636Z</time>
      </trkpt>
      <trkpt lat="47.02577" lon="8.93974">
        <ele>866</ele>
        <time>2021-08-03T08:22:25.636Z</time>
      </trkpt>
      <trkpt lat="47.02577" lon="8.93972">
        <ele>866</ele>
        <time>2021-08-03T08:22:26.635Z</time>
      </trkpt>
      <trkpt lat="47.02577" lon="8.93972">
        <ele>866</ele>
        <time>2021-08-03T08:22:27.635Z</time>
      </trkpt>
      <trkpt lat="47.02577" lon="8.93971">
        <ele>866</ele>
        <time>2021-08-03T08:22:28.635Z</time>
      </trkpt>
      <trkpt lat="47.02578" lon="8.9397">
        <ele>867</ele>
        <time>2021-08-03T08:22:29.635Z</time>
      </trkpt>
      <trkpt lat="47.02578" lon="8.93969">
        <ele>867</ele>
        <time>2021-08-03T08:22:30.635Z</time>
      </trkpt>
      <trkpt lat="47.02578" lon="8.93968">
        <ele>867</ele>
        <time>2021-08-03T08:22:31.636Z</time>
      </trkpt>
      <trkpt lat="47.02578" lon="8.93967">
        <ele>867</ele>
        <time>2021-08-03T08:22:32.636Z</time>
      </trkpt>
      <trkpt lat="47.02578" lon="8.93967">
        <ele>867</ele>
        <time>2021-08-03T08:22:33.635Z</time>
      </trkpt>
      <trkpt lat="47.02578" lon="8.93966">
        <ele>867</ele>
        <time>2021-08-03T08:22:34.635Z</time>
      </trkpt>
      <trkpt lat="47.02578" lon="8.93965">
        <ele>867</ele>
        <time>2021-08-03T08:22:35.635Z</time>
      </trkpt>
      <trkpt lat="47.02578" lon="8.93963">
        <ele>867</ele>
        <time>2021-08-03T08:22:36.635Z</time>
      </trkpt>
      <trkpt lat="47.02579" lon="8.93962">
        <ele>867</ele>
        <time>2021-08-03T08:22:37.635Z</time>
      </trkpt>
      <trkpt lat="47.02579" lon="8.93961">
        <ele>867</ele>
        <time>2021-08-03T08:22:38.635Z</time>
      </trkpt>
      <trkpt lat="47.0258" lon="8.93961">
        <ele>866</ele>
        <time>2021-08-03T08:22:39.635Z</time>
      </trkpt>
      <trkpt lat="47.0258" lon="8.9396">
        <ele>866</ele>
        <time>2021-08-03T08:22:40.635Z</time>
      </trkpt>
      <trkpt lat="47.0258" lon="8.93959">
        <ele>866</ele>
        <time>2021-08-03T08:22:41.635Z</time>
      </trkpt>
      <trkpt lat="47.02581" lon="8.93958">
        <ele>866</ele>
        <time>2021-08-03T08:22:42.635Z</time>
      </trkpt>
      <trkpt lat="47.02581" lon="8.93957">
        <ele>866</ele>
        <time>2021-08-03T08:22:43.635Z</time>
      </trkpt>
      <trkpt lat="47.02581" lon="8.93956">
        <ele>866</ele>
        <time>2021-08-03T08:22:44.635Z</time>
      </trkpt>
      <trkpt lat="47.02581" lon="8.93955">
        <ele>866</ele>
        <time>2021-08-03T08:22:45.635Z</time>
      </trkpt>
      <trkpt lat="47.02582" lon="8.93954">
        <ele>866</ele>
        <time>2021-08-03T08:22:46.635Z</time>
      </trkpt>
      <trkpt lat="47.02582" lon="8.93953">
        <ele>866</ele>
        <time>2021-08-03T08:22:47.635Z</time>
      </trkpt>
      <trkpt lat="47.02583" lon="8.93952">
        <ele>866</ele>
        <time>2021-08-03T08:22:48.636Z</time>
      </trkpt>
      <trkpt lat="47.02583" lon="8.93951">
        <ele>865</ele>
        <time>2021-08-03T08:22:49.635Z</time>
      </trkpt>
      <trkpt lat="47.02584" lon="8.9395">
        <ele>865</ele>
        <time>2021-08-03T08:22:50.636Z</time>
      </trkpt>
      <trkpt lat="47.02584" lon="8.93949">
        <ele>865</ele>
        <time>2021-08-03T08:22:51.636Z</time>
      </trkpt>
      <trkpt lat="47.02584" lon="8.93948">
        <ele>864</ele>
        <time>2021-08-03T08:22:52.636Z</time>
      </trkpt>
      <trkpt lat="47.02584" lon="8.93947">
        <ele>864</ele>
        <time>2021-08-03T08:22:53.636Z</time>
      </trkpt>
      <trkpt lat="47.02584" lon="8.93946">
        <ele>864</ele>
        <time>2021-08-03T08:22:54.636Z</time>
      </trkpt>
      <trkpt lat="47.02584" lon="8.93945">
        <ele>864</ele>
        <time>2021-08-03T08:22:55.636Z</time>
      </trkpt>
      <trkpt lat="47.02584" lon="8.93945">
        <ele>863</ele>
        <time>2021-08-03T08:22:56.635Z</time>
      </trkpt>
      <trkpt lat="47.02585" lon="8.93943">
        <ele>863</ele>
        <time>2021-08-03T08:22:57.635Z</time>
      </trkpt>
      <trkpt lat="47.02585" lon="8.93942">
        <ele>863</ele>
        <time>2021-08-03T08:22:58.636Z</time>
      </trkpt>
      <trkpt lat="47.02585" lon="8.93941">
        <ele>863</ele>
        <time>2021-08-03T08:22:59.635Z</time>
      </trkpt>
      <trkpt lat="47.02586" lon="8.9394">
        <ele>863</ele>
        <time>2021-08-03T08:23:00.636Z</time>
      </trkpt>
      <trkpt lat="47.02586" lon="8.93939">
        <ele>863</ele>
        <time>2021-08-03T08:23:01.636Z</time>
      </trkpt>
      <trkpt lat="47.02586" lon="8.93937">
        <ele>863</ele>
        <time>2021-08-03T08:23:02.636Z</time>
      </trkpt>
      <trkpt lat="47.02586" lon="8.93936">
        <ele>863</ele>
        <time>2021-08-03T08:23:03.635Z</time>
      </trkpt>
      <trkpt lat="47.02587" lon="8.93934">
        <ele>864</ele>
        <time>2021-08-03T08:23:04.636Z</time>
      </trkpt>
      <trkpt lat="47.02588" lon="8.93933">
        <ele>864</ele>
        <time>2021-08-03T08:23:05.635Z</time>
      </trkpt>
      <trkpt lat="47.02588" lon="8.93931">
        <ele>864</ele>
        <time>2021-08-03T08:23:06.635Z</time>
      </trkpt>
      <trkpt lat="47.02588" lon="8.9393">
        <ele>865</ele>
        <time>2021-08-03T08:23:07.635Z</time>
      </trkpt>
      <trkpt lat="47.02589" lon="8.93929">
        <ele>865</ele>
        <time>2021-08-03T08:23:08.636Z</time>
      </trkpt>
      <trkpt lat="47.02589" lon="8.93928">
        <ele>865</ele>
        <time>2021-08-03T08:23:09.636Z</time>
      </trkpt>
      <trkpt lat="47.0259" lon="8.93927">
        <ele>865</ele>
        <time>2021-08-03T08:23:10.635Z</time>
      </trkpt>
      <trkpt lat="47.0259" lon="8.93926">
        <ele>865</ele>
        <time>2021-08-03T08:23:11.636Z</time>
      </trkpt>
      <trkpt lat="47.0259" lon="8.93925">
        <ele>865</ele>
        <time>2021-08-03T08:23:12.636Z</time>
      </trkpt>
      <trkpt lat="47.0259" lon="8.93924">
        <ele>866</ele>
        <time>2021-08-03T08:23:13.636Z</time>
      </trkpt>
      <trkpt lat="47.0259" lon="8.93923">
        <ele>866</ele>
        <time>2021-08-03T08:23:14.636Z</time>
      </trkpt>
      <trkpt lat="47.0259" lon="8.93922">
        <ele>866</ele>
        <time>2021-08-03T08:23:15.636Z</time>
      </trkpt>
      <trkpt lat="47.02591" lon="8.93921">
        <ele>866</ele>
        <time>2021-08-03T08:23:16.635Z</time>
      </trkpt>
      <trkpt lat="47.02591" lon="8.93921">
        <ele>866</ele>
        <time>2021-08-03T08:23:17.636Z</time>
      </trkpt>
      <trkpt lat="47.02592" lon="8.9392">
        <ele>866</ele>
        <time>2021-08-03T08:23:18.635Z</time>
      </trkpt>
      <trkpt lat="47.02592" lon="8.93919">
        <ele>867</ele>
        <time>2021-08-03T08:23:19.636Z</time>
      </trkpt>
      <trkpt lat="47.02592" lon="8.93917">
        <ele>867</ele>
        <time>2021-08-03T08:23:20.635Z</time>
      </trkpt>
      <trkpt lat="47.02592" lon="8.93916">
        <ele>867</ele>
        <time>2021-08-03T08:23:21.636Z</time>
      </trkpt>
      <trkpt lat="47.02592" lon="8.93915">
        <ele>867</ele>
        <time>2021-08-03T08:23:22.636Z</time>
      </trkpt>
      <trkpt lat="47.02593" lon="8.93914">
        <ele>867</ele>
        <time>2021-08-03T08:23:23.635Z</time>
      </trkpt>
      <trkpt lat="47.02594" lon="8.93913">
        <ele>867</ele>
        <time>2021-08-03T08:23:24.636Z</time>
      </trkpt>
      <trkpt lat="47.02594" lon="8.93911">
        <ele>867</ele>
        <time>2021-08-03T08:23:25.635Z</time>
      </trkpt>
      <trkpt lat="47.02595" lon="8.9391">
        <ele>867</ele>
        <time>2021-08-03T08:23:26.636Z</time>
      </trkpt>
      <trkpt lat="47.02596" lon="8.93909">
        <ele>868</ele>
        <time>2021-08-03T08:23:27.636Z</time>
      </trkpt>
      <trkpt lat="47.02597" lon="8.93907">
        <ele>868</ele>
        <time>2021-08-03T08:23:28.636Z</time>
      </trkpt>
      <trkpt lat="47.02598" lon="8.93907">
        <ele>868</ele>
        <time>2021-08-03T08:23:29.635Z</time>
      </trkpt>
      <trkpt lat="47.02599" lon="8.93906">
        <ele>868</ele>
        <time>2021-08-03T08:23:30.636Z</time>
      </trkpt>
      <trkpt lat="47.02599" lon="8.93905">
        <ele>868</ele>
        <time>2021-08-03T08:23:31.636Z</time>
      </trkpt>
      <trkpt lat="47.026" lon="8.93904">
        <ele>868</ele>
        <time>2021-08-03T08:23:32.635Z</time>
      </trkpt>
      <trkpt lat="47.026" lon="8.93903">
        <ele>868</ele>
        <time>2021-08-03T08:23:33.635Z</time>
      </trkpt>
      <trkpt lat="47.02601" lon="8.93902">
        <ele>868</ele>
        <time>2021-08-03T08:23:34.636Z</time>
      </trkpt>
      <trkpt lat="47.02601" lon="8.93901">
        <ele>868</ele>
        <time>2021-08-03T08:23:35.636Z</time>
      </trkpt>
      <trkpt lat="47.02601" lon="8.939">
        <ele>869</ele>
        <time>2021-08-03T08:23:36.635Z</time>
      </trkpt>
      <trkpt lat="47.02602" lon="8.93899">
        <ele>869</ele>
        <time>2021-08-03T08:23:37.635Z</time>
      </trkpt>
      <trkpt lat="47.02602" lon="8.93897">
        <ele>869</ele>
        <time>2021-08-03T08:23:38.636Z</time>
      </trkpt>
      <trkpt lat="47.02603" lon="8.93895">
        <ele>869</ele>
        <time>2021-08-03T08:23:39.636Z</time>
      </trkpt>
      <trkpt lat="47.02603" lon="8.93894">
        <ele>869</ele>
        <time>2021-08-03T08:23:40.636Z</time>
      </trkpt>
      <trkpt lat="47.02603" lon="8.93893">
        <ele>869</ele>
        <time>2021-08-03T08:23:41.636Z</time>
      </trkpt>
      <trkpt lat="47.02603" lon="8.93892">
        <ele>869</ele>
        <time>2021-08-03T08:23:42.635Z</time>
      </trkpt>
      <trkpt lat="47.02603" lon="8.93891">
        <ele>869</ele>
        <time>2021-08-03T08:23:43.636Z</time>
      </trkpt>
      <trkpt lat="47.02604" lon="8.9389">
        <ele>870</ele>
        <time>2021-08-03T08:23:44.636Z</time>
      </trkpt>
      <trkpt lat="47.02604" lon="8.93889">
        <ele>870</ele>
        <time>2021-08-03T08:23:45.636Z</time>
      </trkpt>
      <trkpt lat="47.02604" lon="8.93887">
        <ele>869</ele>
        <time>2021-08-03T08:23:46.635Z</time>
      </trkpt>
      <trkpt lat="47.02604" lon="8.93886">
        <ele>869</ele>
        <time>2021-08-03T08:23:47.636Z</time>
      </trkpt>
      <trkpt lat="47.02605" lon="8.93885">
        <ele>869</ele>
        <time>2021-08-03T08:23:48.635Z</time>
      </trkpt>
      <trkpt lat="47.02605" lon="8.93885">
        <ele>869</ele>
        <time>2021-08-03T08:23:49.636Z</time>
      </trkpt>
      <trkpt lat="47.02606" lon="8.93884">
        <ele>869</ele>
        <time>2021-08-03T08:23:50.635Z</time>
      </trkpt>
      <trkpt lat="47.02606" lon="8.93883">
        <ele>869</ele>
        <time>2021-08-03T08:23:51.636Z</time>
      </trkpt>
      <trkpt lat="47.02607" lon="8.93882">
        <ele>869</ele>
        <time>2021-08-03T08:23:52.636Z</time>
      </trkpt>
      <trkpt lat="47.02608" lon="8.93882">
        <ele>870</ele>
        <time>2021-08-03T08:23:53.635Z</time>
      </trkpt>
      <trkpt lat="47.02609" lon="8.93881">
        <ele>870</ele>
        <time>2021-08-03T08:23:54.635Z</time>
      </trkpt>
      <trkpt lat="47.0261" lon="8.9388">
        <ele>870</ele>
        <time>2021-08-03T08:23:55.635Z</time>
      </trkpt>
      <trkpt lat="47.02611" lon="8.9388">
        <ele>870</ele>
        <time>2021-08-03T08:23:56.635Z</time>
      </trkpt>
      <trkpt lat="47.02612" lon="8.9388">
        <ele>870</ele>
        <time>2021-08-03T08:23:57.635Z</time>
      </trkpt>
      <trkpt lat="47.02613" lon="8.9388">
        <ele>871</ele>
        <time>2021-08-03T08:23:58.636Z</time>
      </trkpt>
      <trkpt lat="47.02615" lon="8.93879">
        <ele>872</ele>
        <time>2021-08-03T08:23:59.635Z</time>
      </trkpt>
      <trkpt lat="47.02616" lon="8.93878">
        <ele>872</ele>
        <time>2021-08-03T08:24:00.635Z</time>
      </trkpt>
      <trkpt lat="47.02616" lon="8.93878">
        <ele>873</ele>
        <time>2021-08-03T08:24:01.635Z</time>
      </trkpt>
      <trkpt lat="47.02617" lon="8.93877">
        <ele>874</ele>
        <time>2021-08-03T08:24:02.636Z</time>
      </trkpt>
      <trkpt lat="47.02618" lon="8.93876">
        <ele>875</ele>
        <time>2021-08-03T08:24:03.635Z</time>
      </trkpt>
      <trkpt lat="47.02619" lon="8.93876">
        <ele>875</ele>
        <time>2021-08-03T08:24:04.635Z</time>
      </trkpt>
      <trkpt lat="47.0262" lon="8.93875">
        <ele>876</ele>
        <time>2021-08-03T08:24:05.636Z</time>
      </trkpt>
      <trkpt lat="47.0262" lon="8.93875">
        <ele>877</ele>
        <time>2021-08-03T08:24:06.635Z</time>
      </trkpt>
      <trkpt lat="47.02621" lon="8.93874">
        <ele>877</ele>
        <time>2021-08-03T08:24:07.636Z</time>
      </trkpt>
      <trkpt lat="47.02622" lon="8.93873">
        <ele>878</ele>
        <time>2021-08-03T08:24:08.636Z</time>
      </trkpt>
      <trkpt lat="47.02623" lon="8.93872">
        <ele>878</ele>
        <time>2021-08-03T08:24:09.636Z</time>
      </trkpt>
      <trkpt lat="47.02623" lon="8.93871">
        <ele>878</ele>
        <time>2021-08-03T08:24:10.636Z</time>
      </trkpt>
      <trkpt lat="47.02624" lon="8.9387">
        <ele>878</ele>
        <time>2021-08-03T08:24:11.636Z</time>
      </trkpt>
      <trkpt lat="47.02624" lon="8.9387">
        <ele>879</ele>
        <time>2021-08-03T08:24:12.636Z</time>
      </trkpt>
      <trkpt lat="47.02624" lon="8.93868">
        <ele>880</ele>
        <time>2021-08-03T08:24:13.636Z</time>
      </trkpt>
      <trkpt lat="47.02625" lon="8.93867">
        <ele>881</ele>
        <time>2021-08-03T08:24:14.636Z</time>
      </trkpt>
      <trkpt lat="47.02626" lon="8.93866">
        <ele>881</ele>
        <time>2021-08-03T08:24:15.635Z</time>
      </trkpt>
      <trkpt lat="47.02627" lon="8.93866">
        <ele>882</ele>
        <time>2021-08-03T08:24:16.635Z</time>
      </trkpt>
      <trkpt lat="47.02628" lon="8.93865">
        <ele>882</ele>
        <time>2021-08-03T08:24:17.636Z</time>
      </trkpt>
      <trkpt lat="47.02628" lon="8.93865">
        <ele>882</ele>
        <time>2021-08-03T08:24:18.635Z</time>
      </trkpt>
      <trkpt lat="47.02629" lon="8.93864">
        <ele>883</ele>
        <time>2021-08-03T08:24:19.636Z</time>
      </trkpt>
      <trkpt lat="47.0263" lon="8.93862">
        <ele>883</ele>
        <time>2021-08-03T08:24:20.635Z</time>
      </trkpt>
      <trkpt lat="47.02631" lon="8.93861">
        <ele>883</ele>
        <time>2021-08-03T08:24:21.636Z</time>
      </trkpt>
      <trkpt lat="47.02631" lon="8.93861">
        <ele>883</ele>
        <time>2021-08-03T08:24:22.635Z</time>
      </trkpt>
      <trkpt lat="47.02632" lon="8.9386">
        <ele>883</ele>
        <time>2021-08-03T08:24:23.635Z</time>
      </trkpt>
      <trkpt lat="47.02633" lon="8.93858">
        <ele>883</ele>
        <time>2021-08-03T08:24:24.636Z</time>
      </trkpt>
      <trkpt lat="47.02633" lon="8.93857">
        <ele>883</ele>
        <time>2021-08-03T08:24:25.636Z</time>
      </trkpt>
      <trkpt lat="47.02632" lon="8.93855">
        <ele>883</ele>
        <time>2021-08-03T08:24:26.636Z</time>
      </trkpt>
      <trkpt lat="47.02632" lon="8.93853">
        <ele>883</ele>
        <time>2021-08-03T08:24:27.636Z</time>
      </trkpt>
      <trkpt lat="47.02631" lon="8.93852">
        <ele>883</ele>
        <time>2021-08-03T08:24:28.635Z</time>
      </trkpt>
      <trkpt lat="47.02631" lon="8.93852">
        <ele>883</ele>
        <time>2021-08-03T08:24:29.635Z</time>
      </trkpt>
      <trkpt lat="47.02631" lon="8.9385">
        <ele>883</ele>
        <time>2021-08-03T08:24:30.636Z</time>
      </trkpt>
      <trkpt lat="47.0263" lon="8.93849">
        <ele>883</ele>
        <time>2021-08-03T08:24:31.636Z</time>
      </trkpt>
      <trkpt lat="47.0263" lon="8.93847">
        <ele>884</ele>
        <time>2021-08-03T08:24:32.636Z</time>
      </trkpt>
      <trkpt lat="47.0263" lon="8.93846">
        <ele>884</ele>
        <time>2021-08-03T08:24:33.636Z</time>
      </trkpt>
      <trkpt lat="47.0263" lon="8.93845">
        <ele>884</ele>
        <time>2021-08-03T08:24:34.635Z</time>
      </trkpt>
      <trkpt lat="47.02629" lon="8.93844">
        <ele>884</ele>
        <time>2021-08-03T08:24:35.635Z</time>
      </trkpt>
      <trkpt lat="47.02629" lon="8.93843">
        <ele>885</ele>
        <time>2021-08-03T08:24:36.636Z</time>
      </trkpt>
      <trkpt lat="47.02629" lon="8.93842">
        <ele>885</ele>
        <time>2021-08-03T08:24:37.635Z</time>
      </trkpt>
      <trkpt lat="47.02629" lon="8.93841">
        <ele>885</ele>
        <time>2021-08-03T08:24:38.636Z</time>
      </trkpt>
      <trkpt lat="47.02629" lon="8.9384">
        <ele>884</ele>
        <time>2021-08-03T08:24:39.635Z</time>
      </trkpt>
      <trkpt lat="47.02628" lon="8.9384">
        <ele>884</ele>
        <time>2021-08-03T08:24:40.636Z</time>
      </trkpt>
      <trkpt lat="47.02628" lon="8.9384">
        <ele>884</ele>
        <time>2021-08-03T08:24:41.636Z</time>
      </trkpt>
      <trkpt lat="47.02629" lon="8.93839">
        <ele>883</ele>
        <time>2021-08-03T08:24:42.635Z</time>
      </trkpt>
      <trkpt lat="47.0263" lon="8.93838">
        <ele>882</ele>
        <time>2021-08-03T08:24:43.636Z</time>
      </trkpt>
      <trkpt lat="47.02628" lon="8.93836">
        <ele>881</ele>
        <time>2021-08-03T08:24:44.637Z</time>
      </trkpt>
      <trkpt lat="47.02628" lon="8.93836">
        <ele>881</ele>
        <time>2021-08-03T08:24:45.637Z</time>
      </trkpt>
      <trkpt lat="47.02628" lon="8.93837">
        <ele>881</ele>
        <time>2021-08-03T08:24:46.636Z</time>
      </trkpt>
      <trkpt lat="47.02628" lon="8.93837">
        <ele>881</ele>
        <time>2021-08-03T08:24:47.637Z</time>
      </trkpt>
      <trkpt lat="47.02629" lon="8.93838">
        <ele>881</ele>
        <time>2021-08-03T08:24:48.637Z</time>
      </trkpt>
      <trkpt lat="47.02629" lon="8.93839">
        <ele>881</ele>
        <time>2021-08-03T08:24:49.637Z</time>
      </trkpt>
      <trkpt lat="47.02629" lon="8.93839">
        <ele>881</ele>
        <time>2021-08-03T08:24:50.637Z</time>
      </trkpt>
      <trkpt lat="47.02629" lon="8.93839">
        <ele>880</ele>
        <time>2021-08-03T08:24:51.637Z</time>
      </trkpt>
      <trkpt lat="47.02629" lon="8.93839">
        <ele>880</ele>
        <time>2021-08-03T08:24:52.636Z</time>
      </trkpt>
      <trkpt lat="47.02629" lon="8.93839">
        <ele>880</ele>
        <time>2021-08-03T08:24:53.636Z</time>
      </trkpt>
      <trkpt lat="47.02629" lon="8.93839">
        <ele>880</ele>
        <time>2021-08-03T08:24:54.637Z</time>
      </trkpt>
      <trkpt lat="47.02629" lon="8.93838">
        <ele>880</ele>
        <time>2021-08-03T08:24:55.636Z</time>
      </trkpt>
      <trkpt lat="47.02629" lon="8.93837">
        <ele>880</ele>
        <time>2021-08-03T08:24:56.637Z</time>
      </trkpt>
      <trkpt lat="47.02629" lon="8.93836">
        <ele>880</ele>
        <time>2021-08-03T08:24:57.638Z</time>
      </trkpt>
      <trkpt lat="47.02628" lon="8.93835">
        <ele>881</ele>
        <time>2021-08-03T08:24:58.637Z</time>
      </trkpt>
      <trkpt lat="47.02627" lon="8.93834">
        <ele>881</ele>
        <time>2021-08-03T08:24:59.638Z</time>
      </trkpt>
      <trkpt lat="47.02626" lon="8.93833">
        <ele>882</ele>
        <time>2021-08-03T08:25:00.638Z</time>
      </trkpt>
      <trkpt lat="47.02626" lon="8.93832">
        <ele>882</ele>
        <time>2021-08-03T08:25:01.638Z</time>
      </trkpt>
      <trkpt lat="47.02625" lon="8.93831">
        <ele>883</ele>
        <time>2021-08-03T08:25:02.638Z</time>
      </trkpt>
      <trkpt lat="47.02625" lon="8.93829">
        <ele>884</ele>
        <time>2021-08-03T08:25:03.637Z</time>
      </trkpt>
      <trkpt lat="47.02625" lon="8.93828">
        <ele>884</ele>
        <time>2021-08-03T08:25:04.637Z</time>
      </trkpt>
      <trkpt lat="47.02624" lon="8.93827">
        <ele>884</ele>
        <time>2021-08-03T08:25:05.637Z</time>
      </trkpt>
      <trkpt lat="47.02624" lon="8.93826">
        <ele>885</ele>
        <time>2021-08-03T08:25:06.638Z</time>
      </trkpt>
      <trkpt lat="47.02623" lon="8.93825">
        <ele>885</ele>
        <time>2021-08-03T08:25:07.638Z</time>
      </trkpt>
      <trkpt lat="47.02623" lon="8.93823">
        <ele>885</ele>
        <time>2021-08-03T08:25:08.638Z</time>
      </trkpt>
      <trkpt lat="47.02623" lon="8.93822">
        <ele>886</ele>
        <time>2021-08-03T08:25:09.638Z</time>
      </trkpt>
      <trkpt lat="47.02623" lon="8.93821">
        <ele>886</ele>
        <time>2021-08-03T08:25:10.638Z</time>
      </trkpt>
      <trkpt lat="47.02622" lon="8.9382">
        <ele>886</ele>
        <time>2021-08-03T08:25:11.638Z</time>
      </trkpt>
      <trkpt lat="47.02623" lon="8.93819">
        <ele>886</ele>
        <time>2021-08-03T08:25:12.638Z</time>
      </trkpt>
      <trkpt lat="47.02623" lon="8.93818">
        <ele>886</ele>
        <time>2021-08-03T08:25:13.637Z</time>
      </trkpt>
      <trkpt lat="47.02623" lon="8.93817">
        <ele>887</ele>
        <time>2021-08-03T08:25:14.638Z</time>
      </trkpt>
      <trkpt lat="47.02623" lon="8.93816">
        <ele>887</ele>
        <time>2021-08-03T08:25:15.638Z</time>
      </trkpt>
      <trkpt lat="47.02622" lon="8.93815">
        <ele>887</ele>
        <time>2021-08-03T08:25:16.638Z</time>
      </trkpt>
      <trkpt lat="47.02622" lon="8.93814">
        <ele>886</ele>
        <time>2021-08-03T08:25:17.638Z</time>
      </trkpt>
      <trkpt lat="47.02622" lon="8.93812">
        <ele>886</ele>
        <time>2021-08-03T08:25:18.637Z</time>
      </trkpt>
      <trkpt lat="47.02622" lon="8.93811">
        <ele>886</ele>
        <time>2021-08-03T08:25:19.637Z</time>
      </trkpt>
      <trkpt lat="47.02621" lon="8.9381">
        <ele>885</ele>
        <time>2021-08-03T08:25:20.638Z</time>
      </trkpt>
      <trkpt lat="47.0262" lon="8.93809">
        <ele>885</ele>
        <time>2021-08-03T08:25:21.637Z</time>
      </trkpt>
      <trkpt lat="47.0262" lon="8.93807">
        <ele>885</ele>
        <time>2021-08-03T08:25:22.637Z</time>
      </trkpt>
      <trkpt lat="47.0262" lon="8.93805">
        <ele>885</ele>
        <time>2021-08-03T08:25:23.638Z</time>
      </trkpt>
      <trkpt lat="47.0262" lon="8.93803">
        <ele>885</ele>
        <time>2021-08-03T08:25:24.637Z</time>
      </trkpt>
      <trkpt lat="47.02619" lon="8.93802">
        <ele>885</ele>
        <time>2021-08-03T08:25:25.638Z</time>
      </trkpt>
      <trkpt lat="47.02619" lon="8.93801">
        <ele>886</ele>
        <time>2021-08-03T08:25:26.638Z</time>
      </trkpt>
      <trkpt lat="47.02618" lon="8.93801">
        <ele>886</ele>
        <time>2021-08-03T08:25:27.638Z</time>
      </trkpt>
      <trkpt lat="47.02617" lon="8.93799">
        <ele>886</ele>
        <time>2021-08-03T08:25:28.637Z</time>
      </trkpt>
      <trkpt lat="47.02617" lon="8.93797">
        <ele>886</ele>
        <time>2021-08-03T08:25:29.637Z</time>
      </trkpt>
      <trkpt lat="47.02617" lon="8.93796">
        <ele>886</ele>
        <time>2021-08-03T08:25:30.638Z</time>
      </trkpt>
      <trkpt lat="47.02616" lon="8.93795">
        <ele>886</ele>
        <time>2021-08-03T08:25:31.638Z</time>
      </trkpt>
      <trkpt lat="47.02615" lon="8.93793">
        <ele>886</ele>
        <time>2021-08-03T08:25:32.638Z</time>
      </trkpt>
      <trkpt lat="47.02615" lon="8.93792">
        <ele>886</ele>
        <time>2021-08-03T08:25:33.637Z</time>
      </trkpt>
      <trkpt lat="47.02614" lon="8.9379">
        <ele>886</ele>
        <time>2021-08-03T08:25:34.638Z</time>
      </trkpt>
      <trkpt lat="47.02614" lon="8.93788">
        <ele>886</ele>
        <time>2021-08-03T08:25:35.638Z</time>
      </trkpt>
      <trkpt lat="47.02614" lon="8.93787">
        <ele>887</ele>
        <time>2021-08-03T08:25:36.637Z</time>
      </trkpt>
      <trkpt lat="47.02614" lon="8.93785">
        <ele>887</ele>
        <time>2021-08-03T08:25:37.638Z</time>
      </trkpt>
      <trkpt lat="47.02614" lon="8.93783">
        <ele>886</ele>
        <time>2021-08-03T08:25:38.638Z</time>
      </trkpt>
      <trkpt lat="47.02614" lon="8.93782">
        <ele>886</ele>
        <time>2021-08-03T08:25:39.638Z</time>
      </trkpt>
      <trkpt lat="47.02614" lon="8.9378">
        <ele>886</ele>
        <time>2021-08-03T08:25:40.638Z</time>
      </trkpt>
      <trkpt lat="47.02614" lon="8.93779">
        <ele>886</ele>
        <time>2021-08-03T08:25:41.638Z</time>
      </trkpt>
      <trkpt lat="47.02613" lon="8.93777">
        <ele>886</ele>
        <time>2021-08-03T08:25:42.638Z</time>
      </trkpt>
      <trkpt lat="47.02613" lon="8.93776">
        <ele>887</ele>
        <time>2021-08-03T08:25:43.638Z</time>
      </trkpt>
      <trkpt lat="47.02613" lon="8.93775">
        <ele>887</ele>
        <time>2021-08-03T08:25:44.637Z</time>
      </trkpt>
      <trkpt lat="47.02613" lon="8.93773">
        <ele>887</ele>
        <time>2021-08-03T08:25:45.637Z</time>
      </trkpt>
      <trkpt lat="47.02614" lon="8.93772">
        <ele>887</ele>
        <time>2021-08-03T08:25:46.638Z</time>
      </trkpt>
      <trkpt lat="47.02614" lon="8.93771">
        <ele>887</ele>
        <time>2021-08-03T08:25:47.638Z</time>
      </trkpt>
      <trkpt lat="47.02614" lon="8.93769">
        <ele>887</ele>
        <time>2021-08-03T08:25:48.638Z</time>
      </trkpt>
      <trkpt lat="47.02613" lon="8.93768">
        <ele>888</ele>
        <time>2021-08-03T08:25:49.638Z</time>
      </trkpt>
      <trkpt lat="47.02613" lon="8.93767">
        <ele>888</ele>
        <time>2021-08-03T08:25:50.638Z</time>
      </trkpt>
      <trkpt lat="47.02613" lon="8.93766">
        <ele>888</ele>
        <time>2021-08-03T08:25:51.638Z</time>
      </trkpt>
      <trkpt lat="47.02613" lon="8.93764">
        <ele>888</ele>
        <time>2021-08-03T08:25:52.638Z</time>
      </trkpt>
      <trkpt lat="47.02613" lon="8.93762">
        <ele>888</ele>
        <time>2021-08-03T08:25:53.638Z</time>
      </trkpt>
      <trkpt lat="47.02612" lon="8.9376">
        <ele>888</ele>
        <time>2021-08-03T08:25:54.638Z</time>
      </trkpt>
      <trkpt lat="47.02612" lon="8.93758">
        <ele>888</ele>
        <time>2021-08-03T08:25:55.637Z</time>
      </trkpt>
      <trkpt lat="47.02612" lon="8.93756">
        <ele>889</ele>
        <time>2021-08-03T08:25:56.638Z</time>
      </trkpt>
      <trkpt lat="47.02612" lon="8.93755">
        <ele>889</ele>
        <time>2021-08-03T08:25:57.637Z</time>
      </trkpt>
      <trkpt lat="47.02612" lon="8.93754">
        <ele>889</ele>
        <time>2021-08-03T08:25:58.638Z</time>
      </trkpt>
      <trkpt lat="47.02612" lon="8.93752">
        <ele>889</ele>
        <time>2021-08-03T08:25:59.638Z</time>
      </trkpt>
      <trkpt lat="47.02611" lon="8.93751">
        <ele>889</ele>
        <time>2021-08-03T08:26:00.638Z</time>
      </trkpt>
      <trkpt lat="47.02611" lon="8.93661">
        <ele>899</ele>
        <time>2021-08-03T08:27:28.236Z</time>
      </trkpt>
      <trkpt lat="47.02611" lon="8.93661">
        <ele>899</ele>
        <time>2021-08-03T08:27:28.236Z</time>
      </trkpt>
      <trkpt lat="47.02611" lon="8.93661">
        <ele>899</ele>
        <time>2021-08-03T08:27:28.236Z</time>
      </trkpt>
      <trkpt lat="47.02611" lon="8.93659">
        <ele>899</ele>
        <time>2021-08-03T08:27:29.236Z</time>
      </trkpt>
      <trkpt lat="47.02611" lon="8.93658">
        <ele>899</ele>
        <time>2021-08-03T08:27:30.236Z</time>
      </trkpt>
      <trkpt lat="47.02611" lon="8.93656">
        <ele>899</ele>
        <time>2021-08-03T08:27:31.236Z</time>
      </trkpt>
      <trkpt lat="47.02611" lon="8.93655">
        <ele>899</ele>
        <time>2021-08-03T08:27:32.236Z</time>
      </trkpt>
      <trkpt lat="47.02611" lon="8.93654">
        <ele>899</ele>
        <time>2021-08-03T08:27:33.236Z</time>
      </trkpt>
      <trkpt lat="47.02611" lon="8.93653">
        <ele>899</ele>
        <time>2021-08-03T08:27:34.236Z</time>
      </trkpt>
      <trkpt lat="47.02611" lon="8.93653">
        <ele>899</ele>
        <time>2021-08-03T08:27:35.236Z</time>
      </trkpt>
      <trkpt lat="47.02611" lon="8.93653">
        <ele>898</ele>
        <time>2021-08-03T08:27:36.236Z</time>
      </trkpt>
      <trkpt lat="47.02611" lon="8.93654">
        <ele>898</ele>
        <time>2021-08-03T08:27:37.236Z</time>
      </trkpt>
      <trkpt lat="47.02611" lon="8.93656">
        <ele>898</ele>
        <time>2021-08-03T08:27:38.236Z</time>
      </trkpt>
      <trkpt lat="47.02611" lon="8.93658">
        <ele>898</ele>
        <time>2021-08-03T08:27:39.236Z</time>
      </trkpt>
      <trkpt lat="47.02612" lon="8.93659">
        <ele>899</ele>
        <time>2021-08-03T08:27:40.236Z</time>
      </trkpt>
      <trkpt lat="47.02612" lon="8.93661">
        <ele>899</ele>
        <time>2021-08-03T08:27:41.236Z</time>
      </trkpt>
      <trkpt lat="47.02613" lon="8.93663">
        <ele>899</ele>
        <time>2021-08-03T08:27:42.236Z</time>
      </trkpt>
      <trkpt lat="47.02613" lon="8.93664">
        <ele>900</ele>
        <time>2021-08-03T08:27:43.236Z</time>
      </trkpt>
      <trkpt lat="47.02613" lon="8.93666">
        <ele>900</ele>
        <time>2021-08-03T08:27:44.236Z</time>
      </trkpt>
      <trkpt lat="47.02614" lon="8.93668">
        <ele>900</ele>
        <time>2021-08-03T08:27:45.236Z</time>
      </trkpt>
      <trkpt lat="47.02614" lon="8.93669">
        <ele>901</ele>
        <time>2021-08-03T08:27:46.236Z</time>
      </trkpt>
      <trkpt lat="47.02614" lon="8.93671">
        <ele>901</ele>
        <time>2021-08-03T08:27:47.236Z</time>
      </trkpt>
      <trkpt lat="47.02614" lon="8.93673">
        <ele>901</ele>
        <time>2021-08-03T08:27:48.236Z</time>
      </trkpt>
      <trkpt lat="47.02615" lon="8.93675">
        <ele>901</ele>
        <time>2021-08-03T08:27:49.236Z</time>
      </trkpt>
      <trkpt lat="47.02615" lon="8.93677">
        <ele>901</ele>
        <time>2021-08-03T08:27:50.236Z</time>
      </trkpt>
      <trkpt lat="47.02615" lon="8.93679">
        <ele>901</ele>
        <time>2021-08-03T08:27:51.236Z</time>
      </trkpt>
      <trkpt lat="47.02615" lon="8.93681">
        <ele>901</ele>
        <time>2021-08-03T08:27:52.236Z</time>
      </trkpt>
      <trkpt lat="47.02615" lon="8.93683">
        <ele>900</ele>
        <time>2021-08-03T08:27:53.236Z</time>
      </trkpt>
      <trkpt lat="47.02615" lon="8.93684">
        <ele>900</ele>
        <time>2021-08-03T08:27:54.236Z</time>
      </trkpt>
      <trkpt lat="47.02615" lon="8.93686">
        <ele>900</ele>
        <time>2021-08-03T08:27:55.236Z</time>
      </trkpt>
      <trkpt lat="47.02615" lon="8.93687">
        <ele>900</ele>
        <time>2021-08-03T08:27:56.236Z</time>
      </trkpt>
      <trkpt lat="47.02615" lon="8.93689">
        <ele>900</ele>
        <time>2021-08-03T08:27:57.236Z</time>
      </trkpt>
      <trkpt lat="47.02615" lon="8.9369">
        <ele>900</ele>
        <time>2021-08-03T08:27:58.236Z</time>
      </trkpt>
      <trkpt lat="47.02615" lon="8.93692">
        <ele>899</ele>
        <time>2021-08-03T08:27:59.236Z</time>
      </trkpt>
      <trkpt lat="47.02615" lon="8.93693">
        <ele>899</ele>
        <time>2021-08-03T08:28:00.236Z</time>
      </trkpt>
      <trkpt lat="47.02615" lon="8.93695">
        <ele>899</ele>
        <time>2021-08-03T08:28:01.236Z</time>
      </trkpt>
      <trkpt lat="47.02615" lon="8.93697">
        <ele>898</ele>
        <time>2021-08-03T08:28:02.236Z</time>
      </trkpt>
      <trkpt lat="47.02616" lon="8.93698">
        <ele>898</ele>
        <time>2021-08-03T08:28:03.236Z</time>
      </trkpt>
      <trkpt lat="47.02616" lon="8.937">
        <ele>898</ele>
        <time>2021-08-03T08:28:04.236Z</time>
      </trkpt>
      <trkpt lat="47.02616" lon="8.93702">
        <ele>898</ele>
        <time>2021-08-03T08:28:05.236Z</time>
      </trkpt>
      <trkpt lat="47.02616" lon="8.93703">
        <ele>898</ele>
        <time>2021-08-03T08:28:06.236Z</time>
      </trkpt>
      <trkpt lat="47.02616" lon="8.93705">
        <ele>898</ele>
        <time>2021-08-03T08:28:07.236Z</time>
      </trkpt>
      <trkpt lat="47.02615" lon="8.93706">
        <ele>898</ele>
        <time>2021-08-03T08:28:08.236Z</time>
      </trkpt>
      <trkpt lat="47.02615" lon="8.93708">
        <ele>897</ele>
        <time>2021-08-03T08:28:09.236Z</time>
      </trkpt>
      <trkpt lat="47.02615" lon="8.9371">
        <ele>897</ele>
        <time>2021-08-03T08:28:10.236Z</time>
      </trkpt>
      <trkpt lat="47.02615" lon="8.93712">
        <ele>897</ele>
        <time>2021-08-03T08:28:11.236Z</time>
      </trkpt>
      <trkpt lat="47.02615" lon="8.93714">
        <ele>897</ele>
        <time>2021-08-03T08:28:12.236Z</time>
      </trkpt>
      <trkpt lat="47.02615" lon="8.93716">
        <ele>897</ele>
        <time>2021-08-03T08:28:13.236Z</time>
      </trkpt>
      <trkpt lat="47.02615" lon="8.93717">
        <ele>897</ele>
        <time>2021-08-03T08:28:14.236Z</time>
      </trkpt>
      <trkpt lat="47.02615" lon="8.93719">
        <ele>897</ele>
        <time>2021-08-03T08:28:15.236Z</time>
      </trkpt>
      <trkpt lat="47.02614" lon="8.9372">
        <ele>897</ele>
        <time>2021-08-03T08:28:16.236Z</time>
      </trkpt>
      <trkpt lat="47.02614" lon="8.93722">
        <ele>897</ele>
        <time>2021-08-03T08:28:17.236Z</time>
      </trkpt>
      <trkpt lat="47.02614" lon="8.93725">
        <ele>898</ele>
        <time>2021-08-03T08:28:18.236Z</time>
      </trkpt>
      <trkpt lat="47.02614" lon="8.93726">
        <ele>898</ele>
        <time>2021-08-03T08:28:19.236Z</time>
      </trkpt>
      <trkpt lat="47.02614" lon="8.93728">
        <ele>898</ele>
        <time>2021-08-03T08:28:20.236Z</time>
      </trkpt>
      <trkpt lat="47.02613" lon="8.9373">
        <ele>899</ele>
        <time>2021-08-03T08:28:21.236Z</time>
      </trkpt>
      <trkpt lat="47.02613" lon="8.93732">
        <ele>899</ele>
        <time>2021-08-03T08:28:22.236Z</time>
      </trkpt>
      <trkpt lat="47.02613" lon="8.93734">
        <ele>900</ele>
        <time>2021-08-03T08:28:23.236Z</time>
      </trkpt>
      <trkpt lat="47.02613" lon="8.93736">
        <ele>900</ele>
        <time>2021-08-03T08:28:24.236Z</time>
      </trkpt>
      <trkpt lat="47.02613" lon="8.93737">
        <ele>901</ele>
        <time>2021-08-03T08:28:25.236Z</time>
      </trkpt>
      <trkpt lat="47.02612" lon="8.93739">
        <ele>900</ele>
        <time>2021-08-03T08:28:26.236Z</time>
      </trkpt>
      <trkpt lat="47.02612" lon="8.93741">
        <ele>900</ele>
        <time>2021-08-03T08:28:27.236Z</time>
      </trkpt>
      <trkpt lat="47.02612" lon="8.93743">
        <ele>899</ele>
        <time>2021-08-03T08:28:28.236Z</time>
      </trkpt>
      <trkpt lat="47.02612" lon="8.93745">
        <ele>899</ele>
        <time>2021-08-03T08:28:29.236Z</time>
      </trkpt>
      <trkpt lat="47.02612" lon="8.93746">
        <ele>898</ele>
        <time>2021-08-03T08:28:30.236Z</time>
      </trkpt>
      <trkpt lat="47.02612" lon="8.93748">
        <ele>897</ele>
        <time>2021-08-03T08:28:31.236Z</time>
      </trkpt>
      <trkpt lat="47.02611" lon="8.9375">
        <ele>896</ele>
        <time>2021-08-03T08:28:32.236Z</time>
      </trkpt>
      <trkpt lat="47.02611" lon="8.93751">
        <ele>895</ele>
        <time>2021-08-03T08:28:33.236Z</time>
      </trkpt>
      <trkpt lat="47.02611" lon="8.93752">
        <ele>894</ele>
        <time>2021-08-03T08:28:34.236Z</time>
      </trkpt>
      <trkpt lat="47.02611" lon="8.93751">
        <ele>893</ele>
        <time>2021-08-03T08:28:35.236Z</time>
      </trkpt>
      <trkpt lat="47.02612" lon="8.9375">
        <ele>892</ele>
        <time>2021-08-03T08:28:36.236Z</time>
      </trkpt>
      <trkpt lat="47.02612" lon="8.93748">
        <ele>892</ele>
        <time>2021-08-03T08:28:37.236Z</time>
      </trkpt>
      <trkpt lat="47.02612" lon="8.93746">
        <ele>891</ele>
        <time>2021-08-03T08:28:38.236Z</time>
      </trkpt>
      <trkpt lat="47.02612" lon="8.93744">
        <ele>891</ele>
        <time>2021-08-03T08:28:39.236Z</time>
      </trkpt>
      <trkpt lat="47.02613" lon="8.93742">
        <ele>891</ele>
        <time>2021-08-03T08:28:40.236Z</time>
      </trkpt>
      <trkpt lat="47.02613" lon="8.9374">
        <ele>890</ele>
        <time>2021-08-03T08:28:41.236Z</time>
      </trkpt>
      <trkpt lat="47.02613" lon="8.93738">
        <ele>890</ele>
        <time>2021-08-03T08:28:42.236Z</time>
      </trkpt>
      <trkpt lat="47.02613" lon="8.93736">
        <ele>891</ele>
        <time>2021-08-03T08:28:43.236Z</time>
      </trkpt>
      <trkpt lat="47.02613" lon="8.93734">
        <ele>891</ele>
        <time>2021-08-03T08:28:44.236Z</time>
      </trkpt>
      <trkpt lat="47.02614" lon="8.93732">
        <ele>891</ele>
        <time>2021-08-03T08:28:45.236Z</time>
      </trkpt>
      <trkpt lat="47.02614" lon="8.9373">
        <ele>890</ele>
        <time>2021-08-03T08:28:46.236Z</time>
      </trkpt>
      <trkpt lat="47.02614" lon="8.93728">
        <ele>890</ele>
        <time>2021-08-03T08:28:47.236Z</time>
      </trkpt>
      <trkpt lat="47.02615" lon="8.93726">
        <ele>889</ele>
        <time>2021-08-03T08:28:48.236Z</time>
      </trkpt>
      <trkpt lat="47.02615" lon="8.93724">
        <ele>889</ele>
        <time>2021-08-03T08:28:49.236Z</time>
      </trkpt>
      <trkpt lat="47.02615" lon="8.93722">
        <ele>889</ele>
        <time>2021-08-03T08:28:50.236Z</time>
      </trkpt>
      <trkpt lat="47.02615" lon="8.9372">
        <ele>888</ele>
        <time>2021-08-03T08:28:51.236Z</time>
      </trkpt>
      <trkpt lat="47.02615" lon="8.93718">
        <ele>888</ele>
        <time>2021-08-03T08:28:52.236Z</time>
      </trkpt>
      <trkpt lat="47.02616" lon="8.93716">
        <ele>888</ele>
        <time>2021-08-03T08:28:53.236Z</time>
      </trkpt>
      <trkpt lat="47.02616" lon="8.93714">
        <ele>888</ele>
        <time>2021-08-03T08:28:54.236Z</time>
      </trkpt>
      <trkpt lat="47.02617" lon="8.93713">
        <ele>888</ele>
        <time>2021-08-03T08:28:55.236Z</time>
      </trkpt>
      <trkpt lat="47.02616" lon="8.93711">
        <ele>889</ele>
        <time>2021-08-03T08:28:56.236Z</time>
      </trkpt>
      <trkpt lat="47.02616" lon="8.93709">
        <ele>889</ele>
        <time>2021-08-03T08:28:57.236Z</time>
      </trkpt>
      <trkpt lat="47.02616" lon="8.93707">
        <ele>889</ele>
        <time>2021-08-03T08:28:58.236Z</time>
      </trkpt>
      <trkpt lat="47.02616" lon="8.93706">
        <ele>890</ele>
        <time>2021-08-03T08:28:59.236Z</time>
      </trkpt>
      <trkpt lat="47.02617" lon="8.93704">
        <ele>890</ele>
        <time>2021-08-03T08:29:00.236Z</time>
      </trkpt>
      <trkpt lat="47.02617" lon="8.93702">
        <ele>891</ele>
        <time>2021-08-03T08:29:01.236Z</time>
      </trkpt>
      <trkpt lat="47.02617" lon="8.937">
        <ele>892</ele>
        <time>2021-08-03T08:29:02.236Z</time>
      </trkpt>
      <trkpt lat="47.02617" lon="8.93699">
        <ele>893</ele>
        <time>2021-08-03T08:29:03.236Z</time>
      </trkpt>
      <trkpt lat="47.02618" lon="8.93697">
        <ele>893</ele>
        <time>2021-08-03T08:29:04.236Z</time>
      </trkpt>
      <trkpt lat="47.02618" lon="8.93695">
        <ele>894</ele>
        <time>2021-08-03T08:29:05.236Z</time>
      </trkpt>
      <trkpt lat="47.02619" lon="8.93694">
        <ele>894</ele>
        <time>2021-08-03T08:29:06.236Z</time>
      </trkpt>
      <trkpt lat="47.02619" lon="8.93691">
        <ele>895</ele>
        <time>2021-08-03T08:29:07.236Z</time>
      </trkpt>
      <trkpt lat="47.02619" lon="8.9369">
        <ele>896</ele>
        <time>2021-08-03T08:29:08.236Z</time>
      </trkpt>
      <trkpt lat="47.02619" lon="8.93688">
        <ele>896</ele>
        <time>2021-08-03T08:29:09.236Z</time>
      </trkpt>
      <trkpt lat="47.0262" lon="8.93686">
        <ele>897</ele>
        <time>2021-08-03T08:29:10.236Z</time>
      </trkpt>
      <trkpt lat="47.02619" lon="8.93685">
        <ele>897</ele>
        <time>2021-08-03T08:29:11.236Z</time>
      </trkpt>
      <trkpt lat="47.02619" lon="8.93683">
        <ele>897</ele>
        <time>2021-08-03T08:29:12.236Z</time>
      </trkpt>
      <trkpt lat="47.02619" lon="8.93681">
        <ele>897</ele>
        <time>2021-08-03T08:29:13.236Z</time>
      </trkpt>
      <trkpt lat="47.02619" lon="8.93679">
        <ele>897</ele>
        <time>2021-08-03T08:29:14.236Z</time>
      </trkpt>
      <trkpt lat="47.02619" lon="8.93678">
        <ele>898</ele>
        <time>2021-08-03T08:29:15.236Z</time>
      </trkpt>
      <trkpt lat="47.02619" lon="8.93676">
        <ele>898</ele>
        <time>2021-08-03T08:29:16.236Z</time>
      </trkpt>
      <trkpt lat="47.02619" lon="8.93674">
        <ele>898</ele>
        <time>2021-08-03T08:29:17.236Z</time>
      </trkpt>
      <trkpt lat="47.02619" lon="8.93672">
        <ele>898</ele>
        <time>2021-08-03T08:29:18.236Z</time>
      </trkpt>
      <trkpt lat="47.02619" lon="8.9367">
        <ele>898</ele>
        <time>2021-08-03T08:29:19.236Z</time>
      </trkpt>
      <trkpt lat="47.02619" lon="8.93668">
        <ele>898</ele>
        <time>2021-08-03T08:29:20.236Z</time>
      </trkpt>
      <trkpt lat="47.02619" lon="8.93667">
        <ele>898</ele>
        <time>2021-08-03T08:29:21.236Z</time>
      </trkpt>
      <trkpt lat="47.02618" lon="8.93665">
        <ele>897</ele>
        <time>2021-08-03T08:29:22.236Z</time>
      </trkpt>
      <trkpt lat="47.02618" lon="8.93663">
        <ele>897</ele>
        <time>2021-08-03T08:29:23.236Z</time>
      </trkpt>
      <trkpt lat="47.02617" lon="8.9366">
        <ele>897</ele>
        <time>2021-08-03T08:29:24.236Z</time>
      </trkpt>
      <trkpt lat="47.02617" lon="8.93658">
        <ele>897</ele>
        <time>2021-08-03T08:29:25.236Z</time>
      </trkpt>
      <trkpt lat="47.02616" lon="8.93656">
        <ele>897</ele>
        <time>2021-08-03T08:29:26.236Z</time>
      </trkpt>
      <trkpt lat="47.02616" lon="8.93654">
        <ele>897</ele>
        <time>2021-08-03T08:29:27.236Z</time>
      </trkpt>
      <trkpt lat="47.02615" lon="8.93652">
        <ele>897</ele>
        <time>2021-08-03T08:29:28.236Z</time>
      </trkpt>
      <trkpt lat="47.02615" lon="8.9365">
        <ele>897</ele>
        <time>2021-08-03T08:29:29.236Z</time>
      </trkpt>
      <trkpt lat="47.02615" lon="8.93648">
        <ele>897</ele>
        <time>2021-08-03T08:29:30.236Z</time>
      </trkpt>
      <trkpt lat="47.02614" lon="8.93646">
        <ele>897</ele>
        <time>2021-08-03T08:29:31.236Z</time>
      </trkpt>
      <trkpt lat="47.02614" lon="8.93644">
        <ele>897</ele>
        <time>2021-08-03T08:29:32.236Z</time>
      </trkpt>
      <trkpt lat="47.02614" lon="8.93642">
        <ele>897</ele>
        <time>2021-08-03T08:29:33.236Z</time>
      </trkpt>
      <trkpt lat="47.02613" lon="8.93641">
        <ele>897</ele>
        <time>2021-08-03T08:29:34.236Z</time>
      </trkpt>
      <trkpt lat="47.02613" lon="8.93639">
        <ele>897</ele>
        <time>2021-08-03T08:29:35.236Z</time>
      </trkpt>
      <trkpt lat="47.02613" lon="8.93638">
        <ele>897</ele>
        <time>2021-08-03T08:29:36.236Z</time>
      </trkpt>
      <trkpt lat="47.02613" lon="8.93637">
        <ele>897</ele>
        <time>2021-08-03T08:29:37.236Z</time>
      </trkpt>
      <trkpt lat="47.02612" lon="8.93636">
        <ele>897</ele>
        <time>2021-08-03T08:29:38.236Z</time>
      </trkpt>
      <trkpt lat="47.02612" lon="8.93634">
        <ele>897</ele>
        <time>2021-08-03T08:29:39.236Z</time>
      </trkpt>
      <trkpt lat="47.02613" lon="8.93632">
        <ele>897</ele>
        <time>2021-08-03T08:29:40.236Z</time>
      </trkpt>
      <trkpt lat="47.02613" lon="8.9363">
        <ele>897</ele>
        <time>2021-08-03T08:29:41.236Z</time>
      </trkpt>
      <trkpt lat="47.02613" lon="8.93628">
        <ele>898</ele>
        <time>2021-08-03T08:29:42.236Z</time>
      </trkpt>
      <trkpt lat="47.02613" lon="8.93627">
        <ele>898</ele>
        <time>2021-08-03T08:29:43.236Z</time>
      </trkpt>
      <trkpt lat="47.02613" lon="8.93625">
        <ele>899</ele>
        <time>2021-08-03T08:29:44.236Z</time>
      </trkpt>
      <trkpt lat="47.02613" lon="8.93624">
        <ele>899</ele>
        <time>2021-08-03T08:29:45.236Z</time>
      </trkpt>
      <trkpt lat="47.02613" lon="8.93623">
        <ele>900</ele>
        <time>2021-08-03T08:29:46.236Z</time>
      </trkpt>
      <trkpt lat="47.02613" lon="8.93621">
        <ele>900</ele>
        <time>2021-08-03T08:29:47.236Z</time>
      </trkpt>
      <trkpt lat="47.02612" lon="8.93619">
        <ele>901</ele>
        <time>2021-08-03T08:29:48.236Z</time>
      </trkpt>
      <trkpt lat="47.02612" lon="8.93618">
        <ele>901</ele>
        <time>2021-08-03T08:29:49.236Z</time>
      </trkpt>
      <trkpt lat="47.02612" lon="8.93617">
        <ele>901</ele>
        <time>2021-08-03T08:29:50.236Z</time>
      </trkpt>
      <trkpt lat="47.02612" lon="8.93616">
        <ele>902</ele>
        <time>2021-08-03T08:29:51.236Z</time>
      </trkpt>
      <trkpt lat="47.02612" lon="8.93615">
        <ele>902</ele>
        <time>2021-08-03T08:29:52.236Z</time>
      </trkpt>
      <trkpt lat="47.02611" lon="8.93614">
        <ele>902</ele>
        <time>2021-08-03T08:29:53.236Z</time>
      </trkpt>
      <trkpt lat="47.0261" lon="8.93613">
        <ele>902</ele>
        <time>2021-08-03T08:29:54.236Z</time>
      </trkpt>
      <trkpt lat="47.0261" lon="8.93613">
        <ele>902</ele>
        <time>2021-08-03T08:29:55.236Z</time>
      </trkpt>
      <trkpt lat="47.02609" lon="8.93612">
        <ele>901</ele>
        <time>2021-08-03T08:29:56.236Z</time>
      </trkpt>
      <trkpt lat="47.02609" lon="8.93612">
        <ele>901</ele>
        <time>2021-08-03T08:29:57.236Z</time>
      </trkpt>
      <trkpt lat="47.02609" lon="8.93611">
        <ele>901</ele>
        <time>2021-08-03T08:29:58.236Z</time>
      </trkpt>
      <trkpt lat="47.0261" lon="8.93611">
        <ele>901</ele>
        <time>2021-08-03T08:29:59.236Z</time>
      </trkpt>
      <trkpt lat="47.0261" lon="8.9361">
        <ele>901</ele>
        <time>2021-08-03T08:30:00.236Z</time>
      </trkpt>
      <trkpt lat="47.0261" lon="8.9361">
        <ele>901</ele>
        <time>2021-08-03T08:30:01.236Z</time>
      </trkpt>
      <trkpt lat="47.0261" lon="8.93609">
        <ele>900</ele>
        <time>2021-08-03T08:30:02.236Z</time>
      </trkpt>
      <trkpt lat="47.02611" lon="8.93607">
        <ele>900</ele>
        <time>2021-08-03T08:30:03.236Z</time>
      </trkpt>
      <trkpt lat="47.02611" lon="8.93607">
        <ele>900</ele>
        <time>2021-08-03T08:30:04.236Z</time>
      </trkpt>
      <trkpt lat="47.02611" lon="8.93607">
        <ele>900</ele>
        <time>2021-08-03T08:30:05.236Z</time>
      </trkpt>
      <trkpt lat="47.02611" lon="8.93605">
        <ele>900</ele>
        <time>2021-08-03T08:30:06.236Z</time>
      </trkpt>
      <trkpt lat="47.02611" lon="8.93605">
        <ele>900</ele>
        <time>2021-08-03T08:30:07.236Z</time>
      </trkpt>
      <trkpt lat="47.02611" lon="8.93603">
        <ele>900</ele>
        <time>2021-08-03T08:30:08.236Z</time>
      </trkpt>
      <trkpt lat="47.02612" lon="8.93602">
        <ele>901</ele>
        <time>2021-08-03T08:30:09.236Z</time>
      </trkpt>
      <trkpt lat="47.02612" lon="8.93601">
        <ele>901</ele>
        <time>2021-08-03T08:30:10.236Z</time>
      </trkpt>
      <trkpt lat="47.02612" lon="8.93599">
        <ele>902</ele>
        <time>2021-08-03T08:30:11.236Z</time>
      </trkpt>
      <trkpt lat="47.02612" lon="8.93598">
        <ele>902</ele>
        <time>2021-08-03T08:30:12.236Z</time>
      </trkpt>
      <trkpt lat="47.02612" lon="8.93597">
        <ele>902</ele>
        <time>2021-08-03T08:30:13.236Z</time>
      </trkpt>
      <trkpt lat="47.02612" lon="8.93596">
        <ele>902</ele>
        <time>2021-08-03T08:30:14.236Z</time>
      </trkpt>
      <trkpt lat="47.02613" lon="8.93594">
        <ele>902</ele>
        <time>2021-08-03T08:30:15.236Z</time>
      </trkpt>
      <trkpt lat="47.02612" lon="8.93593">
        <ele>902</ele>
        <time>2021-08-03T08:30:16.236Z</time>
      </trkpt>
      <trkpt lat="47.02613" lon="8.93592">
        <ele>901</ele>
        <time>2021-08-03T08:30:17.236Z</time>
      </trkpt>
      <trkpt lat="47.02613" lon="8.93591">
        <ele>901</ele>
        <time>2021-08-03T08:30:18.236Z</time>
      </trkpt>
      <trkpt lat="47.02614" lon="8.9359">
        <ele>901</ele>
        <time>2021-08-03T08:30:19.236Z</time>
      </trkpt>
      <trkpt lat="47.02614" lon="8.93589">
        <ele>901</ele>
        <time>2021-08-03T08:30:20.236Z</time>
      </trkpt>
      <trkpt lat="47.02615" lon="8.93589">
        <ele>901</ele>
        <time>2021-08-03T08:30:21.236Z</time>
      </trkpt>
      <trkpt lat="47.02616" lon="8.93589">
        <ele>900</ele>
        <time>2021-08-03T08:30:22.236Z</time>
      </trkpt>
      <trkpt lat="47.02616" lon="8.93589">
        <ele>900</ele>
        <time>2021-08-03T08:30:23.236Z</time>
      </trkpt>
      <trkpt lat="47.02616" lon="8.93589">
        <ele>899</ele>
        <time>2021-08-03T08:30:24.236Z</time>
      </trkpt>
      <trkpt lat="47.02616" lon="8.93589">
        <ele>900</ele>
        <time>2021-08-03T08:30:25.237Z</time>
      </trkpt>
      <trkpt lat="47.02616" lon="8.93589">
        <ele>900</ele>
        <time>2021-08-03T08:30:26.237Z</time>
      </trkpt>
      <trkpt lat="47.02616" lon="8.93588">
        <ele>901</ele>
        <time>2021-08-03T08:30:27.237Z</time>
      </trkpt>
      <trkpt lat="47.02617" lon="8.93588">
        <ele>901</ele>
        <time>2021-08-03T08:30:28.238Z</time>
      </trkpt>
      <trkpt lat="47.02617" lon="8.93587">
        <ele>901</ele>
        <time>2021-08-03T08:30:29.238Z</time>
      </trkpt>
      <trkpt lat="47.02616" lon="8.93586">
        <ele>901</ele>
        <time>2021-08-03T08:30:30.238Z</time>
      </trkpt>
      <trkpt lat="47.02616" lon="8.93586">
        <ele>902</ele>
        <time>2021-08-03T08:30:31.237Z</time>
      </trkpt>
      <trkpt lat="47.02615" lon="8.93586">
        <ele>902</ele>
        <time>2021-08-03T08:30:32.237Z</time>
      </trkpt>
      <trkpt lat="47.02615" lon="8.93586">
        <ele>902</ele>
        <time>2021-08-03T08:30:33.238Z</time>
      </trkpt>
      <trkpt lat="47.02615" lon="8.93586">
        <ele>902</ele>
        <time>2021-08-03T08:30:34.238Z</time>
      </trkpt>
      <trkpt lat="47.02615" lon="8.93586">
        <ele>903</ele>
        <time>2021-08-03T08:30:35.238Z</time>
      </trkpt>
      <trkpt lat="47.02615" lon="8.93584">
        <ele>906</ele>
        <time>2021-08-03T08:30:36.238Z</time>
      </trkpt>
      <trkpt lat="47.02615" lon="8.93584">
        <ele>907</ele>
        <time>2021-08-03T08:30:37.239Z</time>
      </trkpt>
      <trkpt lat="47.02616" lon="8.93584">
        <ele>907</ele>
        <time>2021-08-03T08:30:38.238Z</time>
      </trkpt>
      <trkpt lat="47.02616" lon="8.93584">
        <ele>907</ele>
        <time>2021-08-03T08:30:39.239Z</time>
      </trkpt>
      <trkpt lat="47.02617" lon="8.93584">
        <ele>907</ele>
        <time>2021-08-03T08:30:40.239Z</time>
      </trkpt>
      <trkpt lat="47.02617" lon="8.93585">
        <ele>908</ele>
        <time>2021-08-03T08:30:41.238Z</time>
      </trkpt>
      <trkpt lat="47.02617" lon="8.93584">
        <ele>907</ele>
        <time>2021-08-03T08:30:42.238Z</time>
      </trkpt>
      <trkpt lat="47.02617" lon="8.93583">
        <ele>908</ele>
        <time>2021-08-03T08:30:43.238Z</time>
      </trkpt>
      <trkpt lat="47.02617" lon="8.93582">
        <ele>908</ele>
        <time>2021-08-03T08:30:44.238Z</time>
      </trkpt>
      <trkpt lat="47.02618" lon="8.93581">
        <ele>908</ele>
        <time>2021-08-03T08:30:45.239Z</time>
      </trkpt>
      <trkpt lat="47.02618" lon="8.9358">
        <ele>908</ele>
        <time>2021-08-03T08:30:46.238Z</time>
      </trkpt>
      <trkpt lat="47.02617" lon="8.93578">
        <ele>908</ele>
        <time>2021-08-03T08:30:47.238Z</time>
      </trkpt>
      <trkpt lat="47.02618" lon="8.93577">
        <ele>908</ele>
        <time>2021-08-03T08:30:48.238Z</time>
      </trkpt>
      <trkpt lat="47.02618" lon="8.93576">
        <ele>908</ele>
        <time>2021-08-03T08:30:49.238Z</time>
      </trkpt>
      <trkpt lat="47.02618" lon="8.93574">
        <ele>908</ele>
        <time>2021-08-03T08:30:50.238Z</time>
      </trkpt>
      <trkpt lat="47.02618" lon="8.93573">
        <ele>907</ele>
        <time>2021-08-03T08:30:51.238Z</time>
      </trkpt>
      <trkpt lat="47.02618" lon="8.93572">
        <ele>907</ele>
        <time>2021-08-03T08:30:52.238Z</time>
      </trkpt>
      <trkpt lat="47.02618" lon="8.9357">
        <ele>907</ele>
        <time>2021-08-03T08:30:53.238Z</time>
      </trkpt>
      <trkpt lat="47.02619" lon="8.93569">
        <ele>906</ele>
        <time>2021-08-03T08:30:54.238Z</time>
      </trkpt>
      <trkpt lat="47.02619" lon="8.93567">
        <ele>906</ele>
        <time>2021-08-03T08:30:55.239Z</time>
      </trkpt>
      <trkpt lat="47.02619" lon="8.93566">
        <ele>906</ele>
        <time>2021-08-03T08:30:56.239Z</time>
      </trkpt>
      <trkpt lat="47.0262" lon="8.93565">
        <ele>906</ele>
        <time>2021-08-03T08:30:57.239Z</time>
      </trkpt>
      <trkpt lat="47.0262" lon="8.93563">
        <ele>906</ele>
        <time>2021-08-03T08:30:58.238Z</time>
      </trkpt>
      <trkpt lat="47.0262" lon="8.93562">
        <ele>906</ele>
        <time>2021-08-03T08:30:59.239Z</time>
      </trkpt>
      <trkpt lat="47.0262" lon="8.9356">
        <ele>906</ele>
        <time>2021-08-03T08:31:00.239Z</time>
      </trkpt>
      <trkpt lat="47.02621" lon="8.93559">
        <ele>907</ele>
        <time>2021-08-03T08:31:01.239Z</time>
      </trkpt>
      <trkpt lat="47.02621" lon="8.93558">
        <ele>907</ele>
        <time>2021-08-03T08:31:02.239Z</time>
      </trkpt>
      <trkpt lat="47.02621" lon="8.93557">
        <ele>908</ele>
        <time>2021-08-03T08:31:03.239Z</time>
      </trkpt>
      <trkpt lat="47.02621" lon="8.93555">
        <ele>908</ele>
        <time>2021-08-03T08:31:04.239Z</time>
      </trkpt>
      <trkpt lat="47.02622" lon="8.93554">
        <ele>909</ele>
        <time>2021-08-03T08:31:05.239Z</time>
      </trkpt>
      <trkpt lat="47.02622" lon="8.93553">
        <ele>909</ele>
        <time>2021-08-03T08:31:06.239Z</time>
      </trkpt>
      <trkpt lat="47.02622" lon="8.93551">
        <ele>909</ele>
        <time>2021-08-03T08:31:07.239Z</time>
      </trkpt>
      <trkpt lat="47.02622" lon="8.9355">
        <ele>909</ele>
        <time>2021-08-03T08:31:08.238Z</time>
      </trkpt>
      <trkpt lat="47.02623" lon="8.93549">
        <ele>908</ele>
        <time>2021-08-03T08:31:09.239Z</time>
      </trkpt>
      <trkpt lat="47.02623" lon="8.93548">
        <ele>908</ele>
        <time>2021-08-03T08:31:10.239Z</time>
      </trkpt>
      <trkpt lat="47.02624" lon="8.93547">
        <ele>907</ele>
        <time>2021-08-03T08:31:11.239Z</time>
      </trkpt>
      <trkpt lat="47.02624" lon="8.93545">
        <ele>907</ele>
        <time>2021-08-03T08:31:12.239Z</time>
      </trkpt>
      <trkpt lat="47.02625" lon="8.93544">
        <ele>906</ele>
        <time>2021-08-03T08:31:13.239Z</time>
      </trkpt>
      <trkpt lat="47.02625" lon="8.93543">
        <ele>906</ele>
        <time>2021-08-03T08:31:14.238Z</time>
      </trkpt>
      <trkpt lat="47.02626" lon="8.9354">
        <ele>906</ele>
        <time>2021-08-03T08:31:15.239Z</time>
      </trkpt>
      <trkpt lat="47.02625" lon="8.93538">
        <ele>906</ele>
        <time>2021-08-03T08:31:16.238Z</time>
      </trkpt>
      <trkpt lat="47.02625" lon="8.93537">
        <ele>907</ele>
        <time>2021-08-03T08:31:17.238Z</time>
      </trkpt>
      <trkpt lat="47.02625" lon="8.93536">
        <ele>908</ele>
        <time>2021-08-03T08:31:18.238Z</time>
      </trkpt>
      <trkpt lat="47.02625" lon="8.93535">
        <ele>908</ele>
        <time>2021-08-03T08:31:19.238Z</time>
      </trkpt>
      <trkpt lat="47.02625" lon="8.93534">
        <ele>909</ele>
        <time>2021-08-03T08:31:20.238Z</time>
      </trkpt>
      <trkpt lat="47.02626" lon="8.93533">
        <ele>909</ele>
        <time>2021-08-03T08:31:21.238Z</time>
      </trkpt>
      <trkpt lat="47.02626" lon="8.93532">
        <ele>909</ele>
        <time>2021-08-03T08:31:22.239Z</time>
      </trkpt>
      <trkpt lat="47.02627" lon="8.93531">
        <ele>909</ele>
        <time>2021-08-03T08:31:23.238Z</time>
      </trkpt>
      <trkpt lat="47.02627" lon="8.9353">
        <ele>909</ele>
        <time>2021-08-03T08:31:24.239Z</time>
      </trkpt>
      <trkpt lat="47.02628" lon="8.93528">
        <ele>909</ele>
        <time>2021-08-03T08:31:25.239Z</time>
      </trkpt>
      <trkpt lat="47.02628" lon="8.93527">
        <ele>910</ele>
        <time>2021-08-03T08:31:26.238Z</time>
      </trkpt>
      <trkpt lat="47.02628" lon="8.93526">
        <ele>910</ele>
        <time>2021-08-03T08:31:27.238Z</time>
      </trkpt>
      <trkpt lat="47.02629" lon="8.93525">
        <ele>911</ele>
        <time>2021-08-03T08:31:28.238Z</time>
      </trkpt>
      <trkpt lat="47.02629" lon="8.93524">
        <ele>911</ele>
        <time>2021-08-03T08:31:29.239Z</time>
      </trkpt>
      <trkpt lat="47.02629" lon="8.93522">
        <ele>912</ele>
        <time>2021-08-03T08:31:30.239Z</time>
      </trkpt>
      <trkpt lat="47.0263" lon="8.93521">
        <ele>912</ele>
        <time>2021-08-03T08:31:31.239Z</time>
      </trkpt>
      <trkpt lat="47.0263" lon="8.9352">
        <ele>912</ele>
        <time>2021-08-03T08:31:32.238Z</time>
      </trkpt>
      <trkpt lat="47.0263" lon="8.93518">
        <ele>912</ele>
        <time>2021-08-03T08:31:33.238Z</time>
      </trkpt>
      <trkpt lat="47.0263" lon="8.93517">
        <ele>912</ele>
        <time>2021-08-03T08:31:34.239Z</time>
      </trkpt>
      <trkpt lat="47.0263" lon="8.93516">
        <ele>912</ele>
        <time>2021-08-03T08:31:35.239Z</time>
      </trkpt>
      <trkpt lat="47.02631" lon="8.93516">
        <ele>912</ele>
        <time>2021-08-03T08:31:36.238Z</time>
      </trkpt>
      <trkpt lat="47.02631" lon="8.93516">
        <ele>912</ele>
        <time>2021-08-03T08:31:37.238Z</time>
      </trkpt>
      <trkpt lat="47.02631" lon="8.93515">
        <ele>911</ele>
        <time>2021-08-03T08:31:38.239Z</time>
      </trkpt>
      <trkpt lat="47.02631" lon="8.93515">
        <ele>911</ele>
        <time>2021-08-03T08:31:39.238Z</time>
      </trkpt>
      <trkpt lat="47.02632" lon="8.93513">
        <ele>913</ele>
        <time>2021-08-03T08:31:40.239Z</time>
      </trkpt>
      <trkpt lat="47.02632" lon="8.93512">
        <ele>913</ele>
        <time>2021-08-03T08:31:41.240Z</time>
      </trkpt>
      <trkpt lat="47.02633" lon="8.9351">
        <ele>914</ele>
        <time>2021-08-03T08:31:42.239Z</time>
      </trkpt>
      <trkpt lat="47.02633" lon="8.93509">
        <ele>914</ele>
        <time>2021-08-03T08:31:43.239Z</time>
      </trkpt>
      <trkpt lat="47.02633" lon="8.93508">
        <ele>913</ele>
        <time>2021-08-03T08:31:44.240Z</time>
      </trkpt>
      <trkpt lat="47.02633" lon="8.93506">
        <ele>913</ele>
        <time>2021-08-03T08:31:45.240Z</time>
      </trkpt>
      <trkpt lat="47.02632" lon="8.93505">
        <ele>913</ele>
        <time>2021-08-03T08:31:46.240Z</time>
      </trkpt>
      <trkpt lat="47.02632" lon="8.93503">
        <ele>913</ele>
        <time>2021-08-03T08:31:47.239Z</time>
      </trkpt>
      <trkpt lat="47.02632" lon="8.93501">
        <ele>913</ele>
        <time>2021-08-03T08:31:48.240Z</time>
      </trkpt>
      <trkpt lat="47.02632" lon="8.935">
        <ele>913</ele>
        <time>2021-08-03T08:31:49.239Z</time>
      </trkpt>
      <trkpt lat="47.02632" lon="8.93499">
        <ele>913</ele>
        <time>2021-08-03T08:31:50.240Z</time>
      </trkpt>
      <trkpt lat="47.02632" lon="8.93497">
        <ele>913</ele>
        <time>2021-08-03T08:31:51.239Z</time>
      </trkpt>
      <trkpt lat="47.02632" lon="8.93496">
        <ele>913</ele>
        <time>2021-08-03T08:31:52.239Z</time>
      </trkpt>
      <trkpt lat="47.02632" lon="8.93494">
        <ele>912</ele>
        <time>2021-08-03T08:31:53.240Z</time>
      </trkpt>
      <trkpt lat="47.02633" lon="8.93493">
        <ele>913</ele>
        <time>2021-08-03T08:31:54.240Z</time>
      </trkpt>
      <trkpt lat="47.02633" lon="8.93491">
        <ele>913</ele>
        <time>2021-08-03T08:31:55.239Z</time>
      </trkpt>
      <trkpt lat="47.02634" lon="8.93489">
        <ele>913</ele>
        <time>2021-08-03T08:31:56.240Z</time>
      </trkpt>
      <trkpt lat="47.02634" lon="8.93488">
        <ele>914</ele>
        <time>2021-08-03T08:31:57.239Z</time>
      </trkpt>
      <trkpt lat="47.02634" lon="8.93487">
        <ele>914</ele>
        <time>2021-08-03T08:31:58.240Z</time>
      </trkpt>
      <trkpt lat="47.02634" lon="8.93485">
        <ele>914</ele>
        <time>2021-08-03T08:31:59.239Z</time>
      </trkpt>
      <trkpt lat="47.02634" lon="8.93484">
        <ele>914</ele>
        <time>2021-08-03T08:32:00.239Z</time>
      </trkpt>
      <trkpt lat="47.02635" lon="8.93483">
        <ele>914</ele>
        <time>2021-08-03T08:32:01.239Z</time>
      </trkpt>
      <trkpt lat="47.02635" lon="8.93481">
        <ele>914</ele>
        <time>2021-08-03T08:32:02.239Z</time>
      </trkpt>
      <trkpt lat="47.02634" lon="8.9348">
        <ele>914</ele>
        <time>2021-08-03T08:32:03.239Z</time>
      </trkpt>
      <trkpt lat="47.02634" lon="8.93479">
        <ele>914</ele>
        <time>2021-08-03T08:32:04.239Z</time>
      </trkpt>
      <trkpt lat="47.02633" lon="8.93478">
        <ele>914</ele>
        <time>2021-08-03T08:32:05.239Z</time>
      </trkpt>
      <trkpt lat="47.02633" lon="8.93477">
        <ele>914</ele>
        <time>2021-08-03T08:32:06.240Z</time>
      </trkpt>
      <trkpt lat="47.02633" lon="8.93477">
        <ele>914</ele>
        <time>2021-08-03T08:32:07.240Z</time>
      </trkpt>
      <trkpt lat="47.02633" lon="8.93477">
        <ele>914</ele>
        <time>2021-08-03T08:32:08.239Z</time>
      </trkpt>
      <trkpt lat="47.02632" lon="8.93476">
        <ele>915</ele>
        <time>2021-08-03T08:32:09.239Z</time>
      </trkpt>
      <trkpt lat="47.02632" lon="8.93476">
        <ele>915</ele>
        <time>2021-08-03T08:32:10.240Z</time>
      </trkpt>
      <trkpt lat="47.02632" lon="8.93475">
        <ele>915</ele>
        <time>2021-08-03T08:32:11.240Z</time>
      </trkpt>
      <trkpt lat="47.02632" lon="8.93474">
        <ele>915</ele>
        <time>2021-08-03T08:32:12.239Z</time>
      </trkpt>
      <trkpt lat="47.02632" lon="8.93474">
        <ele>915</ele>
        <time>2021-08-03T08:32:13.240Z</time>
      </trkpt>
      <trkpt lat="47.02632" lon="8.93473">
        <ele>915</ele>
        <time>2021-08-03T08:32:14.240Z</time>
      </trkpt>
      <trkpt lat="47.02632" lon="8.93473">
        <ele>915</ele>
        <time>2021-08-03T08:32:15.240Z</time>
      </trkpt>
      <trkpt lat="47.02632" lon="8.93473">
        <ele>915</ele>
        <time>2021-08-03T08:32:16.239Z</time>
      </trkpt>
      <trkpt lat="47.02631" lon="8.93472">
        <ele>915</ele>
        <time>2021-08-03T08:32:17.239Z</time>
      </trkpt>
      <trkpt lat="47.02631" lon="8.9347">
        <ele>915</ele>
        <time>2021-08-03T08:32:18.240Z</time>
      </trkpt>
      <trkpt lat="47.02631" lon="8.93469">
        <ele>915</ele>
        <time>2021-08-03T08:32:19.240Z</time>
      </trkpt>
      <trkpt lat="47.02631" lon="8.93468">
        <ele>915</ele>
        <time>2021-08-03T08:32:20.240Z</time>
      </trkpt>
      <trkpt lat="47.02632" lon="8.93467">
        <ele>915</ele>
        <time>2021-08-03T08:32:21.240Z</time>
      </trkpt>
      <trkpt lat="47.02632" lon="8.93466">
        <ele>914</ele>
        <time>2021-08-03T08:32:22.240Z</time>
      </trkpt>
      <trkpt lat="47.02632" lon="8.93464">
        <ele>914</ele>
        <time>2021-08-03T08:32:23.240Z</time>
      </trkpt>
      <trkpt lat="47.02632" lon="8.93463">
        <ele>914</ele>
        <time>2021-08-03T08:32:24.240Z</time>
      </trkpt>
      <trkpt lat="47.02632" lon="8.93462">
        <ele>914</ele>
        <time>2021-08-03T08:32:25.240Z</time>
      </trkpt>
      <trkpt lat="47.02632" lon="8.93461">
        <ele>914</ele>
        <time>2021-08-03T08:32:26.239Z</time>
      </trkpt>
      <trkpt lat="47.02631" lon="8.93461">
        <ele>914</ele>
        <time>2021-08-03T08:32:27.240Z</time>
      </trkpt>
      <trkpt lat="47.02631" lon="8.93461">
        <ele>913</ele>
        <time>2021-08-03T08:32:28.241Z</time>
      </trkpt>
      <trkpt lat="47.02631" lon="8.93461">
        <ele>913</ele>
        <time>2021-08-03T08:32:29.241Z</time>
      </trkpt>
      <trkpt lat="47.02631" lon="8.93461">
        <ele>913</ele>
        <time>2021-08-03T08:32:30.241Z</time>
      </trkpt>
      <trkpt lat="47.02631" lon="8.9346">
        <ele>914</ele>
        <time>2021-08-03T08:32:31.241Z</time>
      </trkpt>
      <trkpt lat="47.02631" lon="8.9346">
        <ele>914</ele>
        <time>2021-08-03T08:32:32.241Z</time>
      </trkpt>
      <trkpt lat="47.02631" lon="8.9346">
        <ele>914</ele>
        <time>2021-08-03T08:32:33.241Z</time>
      </trkpt>
      <trkpt lat="47.02631" lon="8.9346">
        <ele>914</ele>
        <time>2021-08-03T08:32:34.242Z</time>
      </trkpt>
      <trkpt lat="47.02631" lon="8.9346">
        <ele>914</ele>
        <time>2021-08-03T08:32:35.242Z</time>
      </trkpt>
      <trkpt lat="47.02631" lon="8.93459">
        <ele>914</ele>
        <time>2021-08-03T08:32:36.242Z</time>
      </trkpt>
      <trkpt lat="47.02631" lon="8.93459">
        <ele>914</ele>
        <time>2021-08-03T08:32:37.242Z</time>
      </trkpt>
      <trkpt lat="47.02631" lon="8.93457">
        <ele>914</ele>
        <time>2021-08-03T08:32:38.242Z</time>
      </trkpt>
      <trkpt lat="47.02631" lon="8.93456">
        <ele>913</ele>
        <time>2021-08-03T08:32:39.241Z</time>
      </trkpt>
      <trkpt lat="47.02631" lon="8.93455">
        <ele>914</ele>
        <time>2021-08-03T08:32:40.241Z</time>
      </trkpt>
      <trkpt lat="47.02631" lon="8.93454">
        <ele>914</ele>
        <time>2021-08-03T08:32:41.241Z</time>
      </trkpt>
      <trkpt lat="47.02632" lon="8.93453">
        <ele>914</ele>
        <time>2021-08-03T08:32:42.241Z</time>
      </trkpt>
      <trkpt lat="47.02632" lon="8.93451">
        <ele>914</ele>
        <time>2021-08-03T08:32:43.242Z</time>
      </trkpt>
      <trkpt lat="47.02632" lon="8.9345">
        <ele>913</ele>
        <time>2021-08-03T08:32:44.242Z</time>
      </trkpt>
      <trkpt lat="47.02632" lon="8.93449">
        <ele>913</ele>
        <time>2021-08-03T08:32:45.241Z</time>
      </trkpt>
      <trkpt lat="47.02632" lon="8.93447">
        <ele>913</ele>
        <time>2021-08-03T08:32:46.242Z</time>
      </trkpt>
      <trkpt lat="47.02632" lon="8.93447">
        <ele>914</ele>
        <time>2021-08-03T08:32:47.241Z</time>
      </trkpt>
      <trkpt lat="47.02632" lon="8.93446">
        <ele>914</ele>
        <time>2021-08-03T08:32:48.242Z</time>
      </trkpt>
      <trkpt lat="47.02632" lon="8.93446">
        <ele>914</ele>
        <time>2021-08-03T08:32:49.241Z</time>
      </trkpt>
      <trkpt lat="47.02632" lon="8.93444">
        <ele>914</ele>
        <time>2021-08-03T08:32:50.241Z</time>
      </trkpt>
      <trkpt lat="47.02632" lon="8.93443">
        <ele>915</ele>
        <time>2021-08-03T08:32:51.242Z</time>
      </trkpt>
      <trkpt lat="47.02632" lon="8.93442">
        <ele>916</ele>
        <time>2021-08-03T08:32:52.241Z</time>
      </trkpt>
      <trkpt lat="47.02632" lon="8.93441">
        <ele>916</ele>
        <time>2021-08-03T08:32:53.242Z</time>
      </trkpt>
      <trkpt lat="47.02632" lon="8.9344">
        <ele>916</ele>
        <time>2021-08-03T08:32:54.241Z</time>
      </trkpt>
      <trkpt lat="47.02632" lon="8.93439">
        <ele>916</ele>
        <time>2021-08-03T08:32:55.242Z</time>
      </trkpt>
      <trkpt lat="47.02632" lon="8.93438">
        <ele>917</ele>
        <time>2021-08-03T08:32:56.242Z</time>
      </trkpt>
      <trkpt lat="47.02632" lon="8.93437">
        <ele>917</ele>
        <time>2021-08-03T08:32:57.241Z</time>
      </trkpt>
      <trkpt lat="47.02632" lon="8.93436">
        <ele>917</ele>
        <time>2021-08-03T08:32:58.242Z</time>
      </trkpt>
      <trkpt lat="47.02632" lon="8.93435">
        <ele>916</ele>
        <time>2021-08-03T08:32:59.242Z</time>
      </trkpt>
      <trkpt lat="47.02632" lon="8.93434">
        <ele>916</ele>
        <time>2021-08-03T08:33:00.242Z</time>
      </trkpt>
      <trkpt lat="47.02632" lon="8.93433">
        <ele>916</ele>
        <time>2021-08-03T08:33:01.241Z</time>
      </trkpt>
      <trkpt lat="47.02632" lon="8.93431">
        <ele>916</ele>
        <time>2021-08-03T08:33:02.241Z</time>
      </trkpt>
      <trkpt lat="47.02632" lon="8.9343">
        <ele>916</ele>
        <time>2021-08-03T08:33:03.241Z</time>
      </trkpt>
      <trkpt lat="47.02632" lon="8.93429">
        <ele>915</ele>
        <time>2021-08-03T08:33:04.242Z</time>
      </trkpt>
      <trkpt lat="47.02633" lon="8.93428">
        <ele>915</ele>
        <time>2021-08-03T08:33:05.242Z</time>
      </trkpt>
      <trkpt lat="47.02633" lon="8.93427">
        <ele>914</ele>
        <time>2021-08-03T08:33:06.241Z</time>
      </trkpt>
      <trkpt lat="47.02633" lon="8.93425">
        <ele>914</ele>
        <time>2021-08-03T08:33:07.242Z</time>
      </trkpt>
      <trkpt lat="47.02633" lon="8.93424">
        <ele>914</ele>
        <time>2021-08-03T08:33:08.241Z</time>
      </trkpt>
      <trkpt lat="47.02633" lon="8.93422">
        <ele>914</ele>
        <time>2021-08-03T08:33:09.242Z</time>
      </trkpt>
      <trkpt lat="47.02633" lon="8.93421">
        <ele>914</ele>
        <time>2021-08-03T08:33:10.242Z</time>
      </trkpt>
      <trkpt lat="47.02633" lon="8.9342">
        <ele>914</ele>
        <time>2021-08-03T08:33:11.242Z</time>
      </trkpt>
      <trkpt lat="47.02633" lon="8.93419">
        <ele>914</ele>
        <time>2021-08-03T08:33:12.241Z</time>
      </trkpt>
      <trkpt lat="47.02633" lon="8.93418">
        <ele>914</ele>
        <time>2021-08-03T08:33:13.242Z</time>
      </trkpt>
      <trkpt lat="47.02633" lon="8.93416">
        <ele>914</ele>
        <time>2021-08-03T08:33:14.242Z</time>
      </trkpt>
      <trkpt lat="47.02633" lon="8.93415">
        <ele>915</ele>
        <time>2021-08-03T08:33:15.242Z</time>
      </trkpt>
      <trkpt lat="47.02632" lon="8.93414">
        <ele>915</ele>
        <time>2021-08-03T08:33:16.242Z</time>
      </trkpt>
      <trkpt lat="47.02632" lon="8.93413">
        <ele>915</ele>
        <time>2021-08-03T08:33:17.241Z</time>
      </trkpt>
      <trkpt lat="47.02632" lon="8.93411">
        <ele>916</ele>
        <time>2021-08-03T08:33:18.242Z</time>
      </trkpt>
      <trkpt lat="47.02632" lon="8.9341">
        <ele>916</ele>
        <time>2021-08-03T08:33:19.242Z</time>
      </trkpt>
      <trkpt lat="47.02632" lon="8.93409">
        <ele>917</ele>
        <time>2021-08-03T08:33:20.242Z</time>
      </trkpt>
      <trkpt lat="47.02632" lon="8.93407">
        <ele>917</ele>
        <time>2021-08-03T08:33:21.241Z</time>
      </trkpt>
      <trkpt lat="47.02632" lon="8.93406">
        <ele>918</ele>
        <time>2021-08-03T08:33:22.241Z</time>
      </trkpt>
      <trkpt lat="47.02632" lon="8.93405">
        <ele>918</ele>
        <time>2021-08-03T08:33:23.241Z</time>
      </trkpt>
      <trkpt lat="47.02632" lon="8.93403">
        <ele>919</ele>
        <time>2021-08-03T08:33:24.242Z</time>
      </trkpt>
      <trkpt lat="47.02632" lon="8.93402">
        <ele>919</ele>
        <time>2021-08-03T08:33:25.241Z</time>
      </trkpt>
      <trkpt lat="47.02632" lon="8.934">
        <ele>920</ele>
        <time>2021-08-03T08:33:26.241Z</time>
      </trkpt>
      <trkpt lat="47.02631" lon="8.93398">
        <ele>920</ele>
        <time>2021-08-03T08:33:27.241Z</time>
      </trkpt>
      <trkpt lat="47.02632" lon="8.93397">
        <ele>920</ele>
        <time>2021-08-03T08:33:28.242Z</time>
      </trkpt>
      <trkpt lat="47.02632" lon="8.93396">
        <ele>921</ele>
        <time>2021-08-03T08:33:29.241Z</time>
      </trkpt>
      <trkpt lat="47.02632" lon="8.93395">
        <ele>921</ele>
        <time>2021-08-03T08:33:30.241Z</time>
      </trkpt>
      <trkpt lat="47.02633" lon="8.93394">
        <ele>922</ele>
        <time>2021-08-03T08:33:31.241Z</time>
      </trkpt>
      <trkpt lat="47.02633" lon="8.93393">
        <ele>922</ele>
        <time>2021-08-03T08:33:32.242Z</time>
      </trkpt>
      <trkpt lat="47.02634" lon="8.93392">
        <ele>923</ele>
        <time>2021-08-03T08:33:33.241Z</time>
      </trkpt>
      <trkpt lat="47.02634" lon="8.93392">
        <ele>923</ele>
        <time>2021-08-03T08:33:34.242Z</time>
      </trkpt>
      <trkpt lat="47.02634" lon="8.93392">
        <ele>924</ele>
        <time>2021-08-03T08:33:35.242Z</time>
      </trkpt>
      <trkpt lat="47.02634" lon="8.93393">
        <ele>924</ele>
        <time>2021-08-03T08:33:36.242Z</time>
      </trkpt>
      <trkpt lat="47.02634" lon="8.93392">
        <ele>925</ele>
        <time>2021-08-03T08:33:37.241Z</time>
      </trkpt>
      <trkpt lat="47.02633" lon="8.9339">
        <ele>925</ele>
        <time>2021-08-03T08:33:38.241Z</time>
      </trkpt>
      <trkpt lat="47.02633" lon="8.93389">
        <ele>924</ele>
        <time>2021-08-03T08:33:39.241Z</time>
      </trkpt>
      <trkpt lat="47.02633" lon="8.93387">
        <ele>924</ele>
        <time>2021-08-03T08:33:40.241Z</time>
      </trkpt>
      <trkpt lat="47.02634" lon="8.93386">
        <ele>924</ele>
        <time>2021-08-03T08:33:41.242Z</time>
      </trkpt>
      <trkpt lat="47.02634" lon="8.93384">
        <ele>924</ele>
        <time>2021-08-03T08:33:42.241Z</time>
      </trkpt>
      <trkpt lat="47.02634" lon="8.93383">
        <ele>924</ele>
        <time>2021-08-03T08:33:43.241Z</time>
      </trkpt>
      <trkpt lat="47.02634" lon="8.93382">
        <ele>924</ele>
        <time>2021-08-03T08:33:44.242Z</time>
      </trkpt>
      <trkpt lat="47.02634" lon="8.93381">
        <ele>924</ele>
        <time>2021-08-03T08:33:45.241Z</time>
      </trkpt>
      <trkpt lat="47.02634" lon="8.9338">
        <ele>924</ele>
        <time>2021-08-03T08:33:46.242Z</time>
      </trkpt>
      <trkpt lat="47.02634" lon="8.93378">
        <ele>924</ele>
        <time>2021-08-03T08:33:47.241Z</time>
      </trkpt>
      <trkpt lat="47.02634" lon="8.93377">
        <ele>924</ele>
        <time>2021-08-03T08:33:48.242Z</time>
      </trkpt>
      <trkpt lat="47.02634" lon="8.93375">
        <ele>925</ele>
        <time>2021-08-03T08:33:49.241Z</time>
      </trkpt>
      <trkpt lat="47.02634" lon="8.93374">
        <ele>925</ele>
        <time>2021-08-03T08:33:50.242Z</time>
      </trkpt>
      <trkpt lat="47.02634" lon="8.93372">
        <ele>925</ele>
        <time>2021-08-03T08:33:51.241Z</time>
      </trkpt>
      <trkpt lat="47.02634" lon="8.93371">
        <ele>926</ele>
        <time>2021-08-03T08:33:52.241Z</time>
      </trkpt>
      <trkpt lat="47.02634" lon="8.9337">
        <ele>926</ele>
        <time>2021-08-03T08:33:53.241Z</time>
      </trkpt>
      <trkpt lat="47.02634" lon="8.93368">
        <ele>926</ele>
        <time>2021-08-03T08:33:54.241Z</time>
      </trkpt>
      <trkpt lat="47.02634" lon="8.93366">
        <ele>926</ele>
        <time>2021-08-03T08:33:55.242Z</time>
      </trkpt>
      <trkpt lat="47.02634" lon="8.93364">
        <ele>927</ele>
        <time>2021-08-03T08:33:56.242Z</time>
      </trkpt>
      <trkpt lat="47.02634" lon="8.93363">
        <ele>927</ele>
        <time>2021-08-03T08:33:57.241Z</time>
      </trkpt>
      <trkpt lat="47.02634" lon="8.93361">
        <ele>927</ele>
        <time>2021-08-03T08:33:58.242Z</time>
      </trkpt>
      <trkpt lat="47.02635" lon="8.9336">
        <ele>928</ele>
        <time>2021-08-03T08:33:59.241Z</time>
      </trkpt>
      <trkpt lat="47.02635" lon="8.93358">
        <ele>928</ele>
        <time>2021-08-03T08:34:00.242Z</time>
      </trkpt>
      <trkpt lat="47.02635" lon="8.93357">
        <ele>928</ele>
        <time>2021-08-03T08:34:01.241Z</time>
      </trkpt>
      <trkpt lat="47.02635" lon="8.93355">
        <ele>928</ele>
        <time>2021-08-03T08:34:02.241Z</time>
      </trkpt>
      <trkpt lat="47.02635" lon="8.93354">
        <ele>928</ele>
        <time>2021-08-03T08:34:03.242Z</time>
      </trkpt>
      <trkpt lat="47.02635" lon="8.93352">
        <ele>928</ele>
        <time>2021-08-03T08:34:04.242Z</time>
      </trkpt>
      <trkpt lat="47.02635" lon="8.93351">
        <ele>927</ele>
        <time>2021-08-03T08:34:05.241Z</time>
      </trkpt>
      <trkpt lat="47.02635" lon="8.93349">
        <ele>927</ele>
        <time>2021-08-03T08:34:06.242Z</time>
      </trkpt>
      <trkpt lat="47.02635" lon="8.93348">
        <ele>926</ele>
        <time>2021-08-03T08:34:07.242Z</time>
      </trkpt>
      <trkpt lat="47.02635" lon="8.93346">
        <ele>926</ele>
        <time>2021-08-03T08:34:08.242Z</time>
      </trkpt>
      <trkpt lat="47.02635" lon="8.93345">
        <ele>926</ele>
        <time>2021-08-03T08:34:09.241Z</time>
      </trkpt>
      <trkpt lat="47.02634" lon="8.93343">
        <ele>926</ele>
        <time>2021-08-03T08:34:10.242Z</time>
      </trkpt>
      <trkpt lat="47.02635" lon="8.93341">
        <ele>926</ele>
        <time>2021-08-03T08:34:11.242Z</time>
      </trkpt>
      <trkpt lat="47.02635" lon="8.9334">
        <ele>926</ele>
        <time>2021-08-03T08:34:12.242Z</time>
      </trkpt>
      <trkpt lat="47.02635" lon="8.93338">
        <ele>926</ele>
        <time>2021-08-03T08:34:13.242Z</time>
      </trkpt>
      <trkpt lat="47.02636" lon="8.93337">
        <ele>926</ele>
        <time>2021-08-03T08:34:14.242Z</time>
      </trkpt>
      <trkpt lat="47.02637" lon="8.93336">
        <ele>926</ele>
        <time>2021-08-03T08:34:15.242Z</time>
      </trkpt>
      <trkpt lat="47.02637" lon="8.93335">
        <ele>926</ele>
        <time>2021-08-03T08:34:16.242Z</time>
      </trkpt>
      <trkpt lat="47.02637" lon="8.93333">
        <ele>927</ele>
        <time>2021-08-03T08:34:17.241Z</time>
      </trkpt>
      <trkpt lat="47.02637" lon="8.93331">
        <ele>927</ele>
        <time>2021-08-03T08:34:18.242Z</time>
      </trkpt>
      <trkpt lat="47.02638" lon="8.9333">
        <ele>927</ele>
        <time>2021-08-03T08:34:19.241Z</time>
      </trkpt>
      <trkpt lat="47.02638" lon="8.93328">
        <ele>928</ele>
        <time>2021-08-03T08:34:20.241Z</time>
      </trkpt>
      <trkpt lat="47.02639" lon="8.93327">
        <ele>928</ele>
        <time>2021-08-03T08:34:21.241Z</time>
      </trkpt>
      <trkpt lat="47.02639" lon="8.93325">
        <ele>929</ele>
        <time>2021-08-03T08:34:22.242Z</time>
      </trkpt>
      <trkpt lat="47.02639" lon="8.93324">
        <ele>929</ele>
        <time>2021-08-03T08:34:23.242Z</time>
      </trkpt>
      <trkpt lat="47.02639" lon="8.93322">
        <ele>929</ele>
        <time>2021-08-03T08:34:24.241Z</time>
      </trkpt>
      <trkpt lat="47.02639" lon="8.9332">
        <ele>929</ele>
        <time>2021-08-03T08:34:25.241Z</time>
      </trkpt>
      <trkpt lat="47.02639" lon="8.93318">
        <ele>930</ele>
        <time>2021-08-03T08:34:26.241Z</time>
      </trkpt>
      <trkpt lat="47.02639" lon="8.93316">
        <ele>930</ele>
        <time>2021-08-03T08:34:27.241Z</time>
      </trkpt>
      <trkpt lat="47.02639" lon="8.93315">
        <ele>930</ele>
        <time>2021-08-03T08:34:28.242Z</time>
      </trkpt>
      <trkpt lat="47.02639" lon="8.93314">
        <ele>930</ele>
        <time>2021-08-03T08:34:29.242Z</time>
      </trkpt>
      <trkpt lat="47.02639" lon="8.93312">
        <ele>930</ele>
        <time>2021-08-03T08:34:30.242Z</time>
      </trkpt>
      <trkpt lat="47.0264" lon="8.93311">
        <ele>930</ele>
        <time>2021-08-03T08:34:31.242Z</time>
      </trkpt>
      <trkpt lat="47.02641" lon="8.9331">
        <ele>929</ele>
        <time>2021-08-03T08:34:32.242Z</time>
      </trkpt>
      <trkpt lat="47.02641" lon="8.93309">
        <ele>929</ele>
        <time>2021-08-03T08:34:33.242Z</time>
      </trkpt>
      <trkpt lat="47.02641" lon="8.93307">
        <ele>929</ele>
        <time>2021-08-03T08:34:34.241Z</time>
      </trkpt>
      <trkpt lat="47.02642" lon="8.93306">
        <ele>928</ele>
        <time>2021-08-03T08:34:35.242Z</time>
      </trkpt>
      <trkpt lat="47.02642" lon="8.93305">
        <ele>928</ele>
        <time>2021-08-03T08:34:36.241Z</time>
      </trkpt>
      <trkpt lat="47.02642" lon="8.93304">
        <ele>928</ele>
        <time>2021-08-03T08:34:37.242Z</time>
      </trkpt>
      <trkpt lat="47.02642" lon="8.93302">
        <ele>928</ele>
        <time>2021-08-03T08:34:38.242Z</time>
      </trkpt>
      <trkpt lat="47.02642" lon="8.93301">
        <ele>927</ele>
        <time>2021-08-03T08:34:39.242Z</time>
      </trkpt>
      <trkpt lat="47.02642" lon="8.933">
        <ele>927</ele>
        <time>2021-08-03T08:34:40.241Z</time>
      </trkpt>
      <trkpt lat="47.02642" lon="8.93298">
        <ele>927</ele>
        <time>2021-08-03T08:34:41.241Z</time>
      </trkpt>
      <trkpt lat="47.02642" lon="8.93297">
        <ele>927</ele>
        <time>2021-08-03T08:34:42.241Z</time>
      </trkpt>
      <trkpt lat="47.02642" lon="8.93295">
        <ele>927</ele>
        <time>2021-08-03T08:34:43.242Z</time>
      </trkpt>
      <trkpt lat="47.02642" lon="8.93294">
        <ele>928</ele>
        <time>2021-08-03T08:34:44.242Z</time>
      </trkpt>
      <trkpt lat="47.02642" lon="8.93292">
        <ele>928</ele>
        <time>2021-08-03T08:34:45.242Z</time>
      </trkpt>
      <trkpt lat="47.02642" lon="8.93291">
        <ele>928</ele>
        <time>2021-08-03T08:34:46.242Z</time>
      </trkpt>
      <trkpt lat="47.02642" lon="8.9329">
        <ele>928</ele>
        <time>2021-08-03T08:34:47.242Z</time>
      </trkpt>
      <trkpt lat="47.02642" lon="8.93288">
        <ele>928</ele>
        <time>2021-08-03T08:34:48.242Z</time>
      </trkpt>
      <trkpt lat="47.02642" lon="8.93286">
        <ele>928</ele>
        <time>2021-08-03T08:34:49.242Z</time>
      </trkpt>
      <trkpt lat="47.02643" lon="8.93285">
        <ele>929</ele>
        <time>2021-08-03T08:34:50.242Z</time>
      </trkpt>
      <trkpt lat="47.02643" lon="8.93284">
        <ele>929</ele>
        <time>2021-08-03T08:34:51.242Z</time>
      </trkpt>
      <trkpt lat="47.02643" lon="8.93282">
        <ele>929</ele>
        <time>2021-08-03T08:34:52.241Z</time>
      </trkpt>
      <trkpt lat="47.02643" lon="8.93281">
        <ele>929</ele>
        <time>2021-08-03T08:34:53.242Z</time>
      </trkpt>
      <trkpt lat="47.02644" lon="8.93279">
        <ele>929</ele>
        <time>2021-08-03T08:34:54.242Z</time>
      </trkpt>
      <trkpt lat="47.02644" lon="8.93278">
        <ele>929</ele>
        <time>2021-08-03T08:34:55.241Z</time>
      </trkpt>
      <trkpt lat="47.02644" lon="8.93277">
        <ele>929</ele>
        <time>2021-08-03T08:34:56.241Z</time>
      </trkpt>
      <trkpt lat="47.02644" lon="8.93275">
        <ele>930</ele>
        <time>2021-08-03T08:34:57.242Z</time>
      </trkpt>
      <trkpt lat="47.02644" lon="8.93274">
        <ele>930</ele>
        <time>2021-08-03T08:34:58.241Z</time>
      </trkpt>
      <trkpt lat="47.02644" lon="8.93272">
        <ele>930</ele>
        <time>2021-08-03T08:34:59.242Z</time>
      </trkpt>
      <trkpt lat="47.02644" lon="8.93271">
        <ele>931</ele>
        <time>2021-08-03T08:35:00.242Z</time>
      </trkpt>
      <trkpt lat="47.02644" lon="8.93269">
        <ele>931</ele>
        <time>2021-08-03T08:35:01.242Z</time>
      </trkpt>
      <trkpt lat="47.02644" lon="8.93268">
        <ele>931</ele>
        <time>2021-08-03T08:35:02.242Z</time>
      </trkpt>
      <trkpt lat="47.02644" lon="8.93266">
        <ele>931</ele>
        <time>2021-08-03T08:35:03.242Z</time>
      </trkpt>
      <trkpt lat="47.02644" lon="8.93265">
        <ele>932</ele>
        <time>2021-08-03T08:35:04.242Z</time>
      </trkpt>
      <trkpt lat="47.02644" lon="8.93264">
        <ele>932</ele>
        <time>2021-08-03T08:35:05.242Z</time>
      </trkpt>
      <trkpt lat="47.02644" lon="8.93262">
        <ele>932</ele>
        <time>2021-08-03T08:35:06.242Z</time>
      </trkpt>
      <trkpt lat="47.02643" lon="8.9326">
        <ele>932</ele>
        <time>2021-08-03T08:35:07.242Z</time>
      </trkpt>
      <trkpt lat="47.02642" lon="8.93258">
        <ele>933</ele>
        <time>2021-08-03T08:35:08.242Z</time>
      </trkpt>
      <trkpt lat="47.02641" lon="8.93256">
        <ele>933</ele>
        <time>2021-08-03T08:35:09.242Z</time>
      </trkpt>
      <trkpt lat="47.02641" lon="8.93254">
        <ele>933</ele>
        <time>2021-08-03T08:35:10.242Z</time>
      </trkpt>
      <trkpt lat="47.02641" lon="8.93253">
        <ele>933</ele>
        <time>2021-08-03T08:35:11.241Z</time>
      </trkpt>
      <trkpt lat="47.0264" lon="8.93252">
        <ele>934</ele>
        <time>2021-08-03T08:35:12.242Z</time>
      </trkpt>
      <trkpt lat="47.0264" lon="8.93251">
        <ele>934</ele>
        <time>2021-08-03T08:35:13.242Z</time>
      </trkpt>
      <trkpt lat="47.02641" lon="8.93251">
        <ele>934</ele>
        <time>2021-08-03T08:35:14.242Z</time>
      </trkpt>
      <trkpt lat="47.02641" lon="8.93251">
        <ele>934</ele>
        <time>2021-08-03T08:35:15.242Z</time>
      </trkpt>
      <trkpt lat="47.0264" lon="8.9325">
        <ele>934</ele>
        <time>2021-08-03T08:35:16.241Z</time>
      </trkpt>
      <trkpt lat="47.0264" lon="8.93248">
        <ele>934</ele>
        <time>2021-08-03T08:35:17.242Z</time>
      </trkpt>
      <trkpt lat="47.0264" lon="8.93247">
        <ele>935</ele>
        <time>2021-08-03T08:35:18.241Z</time>
      </trkpt>
      <trkpt lat="47.0264" lon="8.93246">
        <ele>935</ele>
        <time>2021-08-03T08:35:19.241Z</time>
      </trkpt>
      <trkpt lat="47.0264" lon="8.93245">
        <ele>935</ele>
        <time>2021-08-03T08:35:20.241Z</time>
      </trkpt>
      <trkpt lat="47.0264" lon="8.93244">
        <ele>935</ele>
        <time>2021-08-03T08:35:21.241Z</time>
      </trkpt>
      <trkpt lat="47.0264" lon="8.93243">
        <ele>935</ele>
        <time>2021-08-03T08:35:22.241Z</time>
      </trkpt>
      <trkpt lat="47.0264" lon="8.93242">
        <ele>935</ele>
        <time>2021-08-03T08:35:23.242Z</time>
      </trkpt>
      <trkpt lat="47.0264" lon="8.9324">
        <ele>935</ele>
        <time>2021-08-03T08:35:24.242Z</time>
      </trkpt>
      <trkpt lat="47.02639" lon="8.93239">
        <ele>935</ele>
        <time>2021-08-03T08:35:25.242Z</time>
      </trkpt>
      <trkpt lat="47.02639" lon="8.93237">
        <ele>935</ele>
        <time>2021-08-03T08:35:26.241Z</time>
      </trkpt>
      <trkpt lat="47.02638" lon="8.93236">
        <ele>934</ele>
        <time>2021-08-03T08:35:27.242Z</time>
      </trkpt>
      <trkpt lat="47.02638" lon="8.93235">
        <ele>934</ele>
        <time>2021-08-03T08:35:28.241Z</time>
      </trkpt>
      <trkpt lat="47.02638" lon="8.93234">
        <ele>934</ele>
        <time>2021-08-03T08:35:29.241Z</time>
      </trkpt>
      <trkpt lat="47.02638" lon="8.93233">
        <ele>935</ele>
        <time>2021-08-03T08:35:30.241Z</time>
      </trkpt>
      <trkpt lat="47.02637" lon="8.93232">
        <ele>935</ele>
        <time>2021-08-03T08:35:31.242Z</time>
      </trkpt>
      <trkpt lat="47.02637" lon="8.93231">
        <ele>935</ele>
        <time>2021-08-03T08:35:32.241Z</time>
      </trkpt>
      <trkpt lat="47.02637" lon="8.93229">
        <ele>935</ele>
        <time>2021-08-03T08:35:33.242Z</time>
      </trkpt>
      <trkpt lat="47.02636" lon="8.93228">
        <ele>935</ele>
        <time>2021-08-03T08:35:34.242Z</time>
      </trkpt>
      <trkpt lat="47.02636" lon="8.93226">
        <ele>935</ele>
        <time>2021-08-03T08:35:35.242Z</time>
      </trkpt>
      <trkpt lat="47.02635" lon="8.93225">
        <ele>935</ele>
        <time>2021-08-03T08:35:36.242Z</time>
      </trkpt>
      <trkpt lat="47.02635" lon="8.93223">
        <ele>935</ele>
        <time>2021-08-03T08:35:37.242Z</time>
      </trkpt>
      <trkpt lat="47.02634" lon="8.93221">
        <ele>936</ele>
        <time>2021-08-03T08:35:38.242Z</time>
      </trkpt>
      <trkpt lat="47.02634" lon="8.93219">
        <ele>936</ele>
        <time>2021-08-03T08:35:39.241Z</time>
      </trkpt>
      <trkpt lat="47.02633" lon="8.93218">
        <ele>935</ele>
        <time>2021-08-03T08:35:40.242Z</time>
      </trkpt>
      <trkpt lat="47.02633" lon="8.93217">
        <ele>935</ele>
        <time>2021-08-03T08:35:41.241Z</time>
      </trkpt>
      <trkpt lat="47.02633" lon="8.93215">
        <ele>935</ele>
        <time>2021-08-03T08:35:42.241Z</time>
      </trkpt>
      <trkpt lat="47.02633" lon="8.93214">
        <ele>935</ele>
        <time>2021-08-03T08:35:43.242Z</time>
      </trkpt>
      <trkpt lat="47.02633" lon="8.93213">
        <ele>935</ele>
        <time>2021-08-03T08:35:44.242Z</time>
      </trkpt>
      <trkpt lat="47.02632" lon="8.93211">
        <ele>935</ele>
        <time>2021-08-03T08:35:45.242Z</time>
      </trkpt>
      <trkpt lat="47.02632" lon="8.93209">
        <ele>935</ele>
        <time>2021-08-03T08:35:46.242Z</time>
      </trkpt>
      <trkpt lat="47.02631" lon="8.93208">
        <ele>936</ele>
        <time>2021-08-03T08:35:47.241Z</time>
      </trkpt>
      <trkpt lat="47.02631" lon="8.93206">
        <ele>936</ele>
        <time>2021-08-03T08:35:48.241Z</time>
      </trkpt>
      <trkpt lat="47.0263" lon="8.93204">
        <ele>937</ele>
        <time>2021-08-03T08:35:49.242Z</time>
      </trkpt>
      <trkpt lat="47.02629" lon="8.93202">
        <ele>937</ele>
        <time>2021-08-03T08:35:50.241Z</time>
      </trkpt>
      <trkpt lat="47.02629" lon="8.93201">
        <ele>937</ele>
        <time>2021-08-03T08:35:51.242Z</time>
      </trkpt>
      <trkpt lat="47.02629" lon="8.93199">
        <ele>937</ele>
        <time>2021-08-03T08:35:52.242Z</time>
      </trkpt>
      <trkpt lat="47.02628" lon="8.93198">
        <ele>937</ele>
        <time>2021-08-03T08:35:53.242Z</time>
      </trkpt>
      <trkpt lat="47.02628" lon="8.93196">
        <ele>937</ele>
        <time>2021-08-03T08:35:54.242Z</time>
      </trkpt>
      <trkpt lat="47.02628" lon="8.93195">
        <ele>937</ele>
        <time>2021-08-03T08:35:55.242Z</time>
      </trkpt>
      <trkpt lat="47.02627" lon="8.93193">
        <ele>937</ele>
        <time>2021-08-03T08:35:56.241Z</time>
      </trkpt>
      <trkpt lat="47.02626" lon="8.93191">
        <ele>938</ele>
        <time>2021-08-03T08:35:57.242Z</time>
      </trkpt>
      <trkpt lat="47.02626" lon="8.9319">
        <ele>938</ele>
        <time>2021-08-03T08:35:58.241Z</time>
      </trkpt>
      <trkpt lat="47.02625" lon="8.93189">
        <ele>938</ele>
        <time>2021-08-03T08:35:59.242Z</time>
      </trkpt>
      <trkpt lat="47.02625" lon="8.93188">
        <ele>938</ele>
        <time>2021-08-03T08:36:00.241Z</time>
      </trkpt>
      <trkpt lat="47.02625" lon="8.93187">
        <ele>938</ele>
        <time>2021-08-03T08:36:01.242Z</time>
      </trkpt>
      <trkpt lat="47.02624" lon="8.93185">
        <ele>938</ele>
        <time>2021-08-03T08:36:02.241Z</time>
      </trkpt>
      <trkpt lat="47.02623" lon="8.93183">
        <ele>939</ele>
        <time>2021-08-03T08:36:03.241Z</time>
      </trkpt>
      <trkpt lat="47.02623" lon="8.93182">
        <ele>939</ele>
        <time>2021-08-03T08:36:04.242Z</time>
      </trkpt>
      <trkpt lat="47.02622" lon="8.9318">
        <ele>939</ele>
        <time>2021-08-03T08:36:05.242Z</time>
      </trkpt>
      <trkpt lat="47.02622" lon="8.93179">
        <ele>940</ele>
        <time>2021-08-03T08:36:06.241Z</time>
      </trkpt>
      <trkpt lat="47.02622" lon="8.93178">
        <ele>940</ele>
        <time>2021-08-03T08:36:07.242Z</time>
      </trkpt>
      <trkpt lat="47.02622" lon="8.93177">
        <ele>940</ele>
        <time>2021-08-03T08:36:08.241Z</time>
      </trkpt>
      <trkpt lat="47.02622" lon="8.93176">
        <ele>940</ele>
        <time>2021-08-03T08:36:09.242Z</time>
      </trkpt>
      <trkpt lat="47.02622" lon="8.93175">
        <ele>940</ele>
        <time>2021-08-03T08:36:10.242Z</time>
      </trkpt>
      <trkpt lat="47.02621" lon="8.93173">
        <ele>940</ele>
        <time>2021-08-03T08:36:11.242Z</time>
      </trkpt>
      <trkpt lat="47.02621" lon="8.93172">
        <ele>940</ele>
        <time>2021-08-03T08:36:12.241Z</time>
      </trkpt>
      <trkpt lat="47.0262" lon="8.93171">
        <ele>940</ele>
        <time>2021-08-03T08:36:13.241Z</time>
      </trkpt>
      <trkpt lat="47.02621" lon="8.93171">
        <ele>940</ele>
        <time>2021-08-03T08:36:14.241Z</time>
      </trkpt>
      <trkpt lat="47.02621" lon="8.9317">
        <ele>940</ele>
        <time>2021-08-03T08:36:15.242Z</time>
      </trkpt>
      <trkpt lat="47.02621" lon="8.93169">
        <ele>939</ele>
        <time>2021-08-03T08:36:16.242Z</time>
      </trkpt>
      <trkpt lat="47.0262" lon="8.93168">
        <ele>939</ele>
        <time>2021-08-03T08:36:17.242Z</time>
      </trkpt>
      <trkpt lat="47.0262" lon="8.93166">
        <ele>939</ele>
        <time>2021-08-03T08:36:18.242Z</time>
      </trkpt>
      <trkpt lat="47.0262" lon="8.93165">
        <ele>939</ele>
        <time>2021-08-03T08:36:19.242Z</time>
      </trkpt>
      <trkpt lat="47.02619" lon="8.93163">
        <ele>938</ele>
        <time>2021-08-03T08:36:20.242Z</time>
      </trkpt>
      <trkpt lat="47.02618" lon="8.93162">
        <ele>938</ele>
        <time>2021-08-03T08:36:21.241Z</time>
      </trkpt>
      <trkpt lat="47.02618" lon="8.9316">
        <ele>938</ele>
        <time>2021-08-03T08:36:22.242Z</time>
      </trkpt>
      <trkpt lat="47.02617" lon="8.93158">
        <ele>938</ele>
        <time>2021-08-03T08:36:23.241Z</time>
      </trkpt>
      <trkpt lat="47.02617" lon="8.93156">
        <ele>938</ele>
        <time>2021-08-03T08:36:24.242Z</time>
      </trkpt>
      <trkpt lat="47.02617" lon="8.93155">
        <ele>938</ele>
        <time>2021-08-03T08:36:25.242Z</time>
      </trkpt>
      <trkpt lat="47.02617" lon="8.93154">
        <ele>938</ele>
        <time>2021-08-03T08:36:26.242Z</time>
      </trkpt>
      <trkpt lat="47.02617" lon="8.93153">
        <ele>937</ele>
        <time>2021-08-03T08:36:27.242Z</time>
      </trkpt>
      <trkpt lat="47.02617" lon="8.93151">
        <ele>938</ele>
        <time>2021-08-03T08:36:28.242Z</time>
      </trkpt>
      <trkpt lat="47.02617" lon="8.9315">
        <ele>938</ele>
        <time>2021-08-03T08:36:29.242Z</time>
      </trkpt>
      <trkpt lat="47.02617" lon="8.93149">
        <ele>939</ele>
        <time>2021-08-03T08:36:30.242Z</time>
      </trkpt>
      <trkpt lat="47.02617" lon="8.93148">
        <ele>939</ele>
        <time>2021-08-03T08:36:31.242Z</time>
      </trkpt>
      <trkpt lat="47.02617" lon="8.93146">
        <ele>939</ele>
        <time>2021-08-03T08:36:32.242Z</time>
      </trkpt>
      <trkpt lat="47.02617" lon="8.93145">
        <ele>939</ele>
        <time>2021-08-03T08:36:33.241Z</time>
      </trkpt>
      <trkpt lat="47.02617" lon="8.93144">
        <ele>939</ele>
        <time>2021-08-03T08:36:34.241Z</time>
      </trkpt>
      <trkpt lat="47.02617" lon="8.93143">
        <ele>940</ele>
        <time>2021-08-03T08:36:35.241Z</time>
      </trkpt>
      <trkpt lat="47.02616" lon="8.93142">
        <ele>940</ele>
        <time>2021-08-03T08:36:36.242Z</time>
      </trkpt>
      <trkpt lat="47.02616" lon="8.9314">
        <ele>941</ele>
        <time>2021-08-03T08:36:37.242Z</time>
      </trkpt>
      <trkpt lat="47.02616" lon="8.93139">
        <ele>941</ele>
        <time>2021-08-03T08:36:38.241Z</time>
      </trkpt>
      <trkpt lat="47.02615" lon="8.93137">
        <ele>942</ele>
        <time>2021-08-03T08:36:39.242Z</time>
      </trkpt>
      <trkpt lat="47.02615" lon="8.93136">
        <ele>942</ele>
        <time>2021-08-03T08:36:40.242Z</time>
      </trkpt>
      <trkpt lat="47.02614" lon="8.93134">
        <ele>942</ele>
        <time>2021-08-03T08:36:41.242Z</time>
      </trkpt>
      <trkpt lat="47.02614" lon="8.93133">
        <ele>943</ele>
        <time>2021-08-03T08:36:42.241Z</time>
      </trkpt>
      <trkpt lat="47.02615" lon="8.93132">
        <ele>943</ele>
        <time>2021-08-03T08:36:43.242Z</time>
      </trkpt>
      <trkpt lat="47.02615" lon="8.9313">
        <ele>943</ele>
        <time>2021-08-03T08:36:44.241Z</time>
      </trkpt>
      <trkpt lat="47.02615" lon="8.93128">
        <ele>943</ele>
        <time>2021-08-03T08:36:45.242Z</time>
      </trkpt>
      <trkpt lat="47.02615" lon="8.93127">
        <ele>943</ele>
        <time>2021-08-03T08:36:46.241Z</time>
      </trkpt>
      <trkpt lat="47.02615" lon="8.93125">
        <ele>944</ele>
        <time>2021-08-03T08:36:47.242Z</time>
      </trkpt>
      <trkpt lat="47.02615" lon="8.93123">
        <ele>944</ele>
        <time>2021-08-03T08:36:48.241Z</time>
      </trkpt>
      <trkpt lat="47.02615" lon="8.93121">
        <ele>944</ele>
        <time>2021-08-03T08:36:49.242Z</time>
      </trkpt>
      <trkpt lat="47.02615" lon="8.93119">
        <ele>944</ele>
        <time>2021-08-03T08:36:50.242Z</time>
      </trkpt>
      <trkpt lat="47.02615" lon="8.93118">
        <ele>945</ele>
        <time>2021-08-03T08:36:51.242Z</time>
      </trkpt>
      <trkpt lat="47.02614" lon="8.93116">
        <ele>945</ele>
        <time>2021-08-03T08:36:52.241Z</time>
      </trkpt>
      <trkpt lat="47.02614" lon="8.93114">
        <ele>945</ele>
        <time>2021-08-03T08:36:53.242Z</time>
      </trkpt>
      <trkpt lat="47.02614" lon="8.93112">
        <ele>945</ele>
        <time>2021-08-03T08:36:54.242Z</time>
      </trkpt>
      <trkpt lat="47.02614" lon="8.93111">
        <ele>945</ele>
        <time>2021-08-03T08:36:55.241Z</time>
      </trkpt>
      <trkpt lat="47.02614" lon="8.93109">
        <ele>945</ele>
        <time>2021-08-03T08:36:56.242Z</time>
      </trkpt>
      <trkpt lat="47.02614" lon="8.93107">
        <ele>945</ele>
        <time>2021-08-03T08:36:57.241Z</time>
      </trkpt>
      <trkpt lat="47.02614" lon="8.93106">
        <ele>945</ele>
        <time>2021-08-03T08:36:58.242Z</time>
      </trkpt>
      <trkpt lat="47.02615" lon="8.93105">
        <ele>945</ele>
        <time>2021-08-03T08:36:59.242Z</time>
      </trkpt>
      <trkpt lat="47.02615" lon="8.93103">
        <ele>945</ele>
        <time>2021-08-03T08:37:00.241Z</time>
      </trkpt>
      <trkpt lat="47.02616" lon="8.93102">
        <ele>944</ele>
        <time>2021-08-03T08:37:01.242Z</time>
      </trkpt>
      <trkpt lat="47.02616" lon="8.931">
        <ele>944</ele>
        <time>2021-08-03T08:37:02.242Z</time>
      </trkpt>
      <trkpt lat="47.02616" lon="8.93099">
        <ele>944</ele>
        <time>2021-08-03T08:37:03.241Z</time>
      </trkpt>
      <trkpt lat="47.02616" lon="8.93097">
        <ele>944</ele>
        <time>2021-08-03T08:37:04.242Z</time>
      </trkpt>
      <trkpt lat="47.02616" lon="8.93096">
        <ele>943</ele>
        <time>2021-08-03T08:37:05.241Z</time>
      </trkpt>
      <trkpt lat="47.02616" lon="8.93094">
        <ele>943</ele>
        <time>2021-08-03T08:37:06.242Z</time>
      </trkpt>
      <trkpt lat="47.02616" lon="8.93092">
        <ele>944</ele>
        <time>2021-08-03T08:37:07.242Z</time>
      </trkpt>
      <trkpt lat="47.02616" lon="8.93091">
        <ele>944</ele>
        <time>2021-08-03T08:37:08.242Z</time>
      </trkpt>
      <trkpt lat="47.02616" lon="8.9309">
        <ele>944</ele>
        <time>2021-08-03T08:37:09.242Z</time>
      </trkpt>
      <trkpt lat="47.02617" lon="8.93088">
        <ele>945</ele>
        <time>2021-08-03T08:37:10.241Z</time>
      </trkpt>
      <trkpt lat="47.02617" lon="8.93087">
        <ele>945</ele>
        <time>2021-08-03T08:37:11.242Z</time>
      </trkpt>
      <trkpt lat="47.02617" lon="8.93085">
        <ele>945</ele>
        <time>2021-08-03T08:37:12.242Z</time>
      </trkpt>
      <trkpt lat="47.02616" lon="8.93084">
        <ele>946</ele>
        <time>2021-08-03T08:37:13.242Z</time>
      </trkpt>
      <trkpt lat="47.02616" lon="8.93082">
        <ele>946</ele>
        <time>2021-08-03T08:37:14.242Z</time>
      </trkpt>
      <trkpt lat="47.02616" lon="8.93081">
        <ele>946</ele>
        <time>2021-08-03T08:37:15.242Z</time>
      </trkpt>
      <trkpt lat="47.02616" lon="8.9308">
        <ele>945</ele>
        <time>2021-08-03T08:37:16.242Z</time>
      </trkpt>
      <trkpt lat="47.02616" lon="8.93079">
        <ele>945</ele>
        <time>2021-08-03T08:37:17.242Z</time>
      </trkpt>
      <trkpt lat="47.02617" lon="8.93078">
        <ele>946</ele>
        <time>2021-08-03T08:37:18.241Z</time>
      </trkpt>
      <trkpt lat="47.02618" lon="8.93076">
        <ele>946</ele>
        <time>2021-08-03T08:37:19.241Z</time>
      </trkpt>
      <trkpt lat="47.02618" lon="8.93075">
        <ele>946</ele>
        <time>2021-08-03T08:37:20.242Z</time>
      </trkpt>
      <trkpt lat="47.02618" lon="8.93074">
        <ele>946</ele>
        <time>2021-08-03T08:37:21.241Z</time>
      </trkpt>
      <trkpt lat="47.02618" lon="8.93073">
        <ele>946</ele>
        <time>2021-08-03T08:37:22.242Z</time>
      </trkpt>
      <trkpt lat="47.02619" lon="8.93073">
        <ele>946</ele>
        <time>2021-08-03T08:37:23.242Z</time>
      </trkpt>
      <trkpt lat="47.02619" lon="8.93072">
        <ele>946</ele>
        <time>2021-08-03T08:37:24.242Z</time>
      </trkpt>
      <trkpt lat="47.02619" lon="8.93071">
        <ele>945</ele>
        <time>2021-08-03T08:37:25.241Z</time>
      </trkpt>
      <trkpt lat="47.02619" lon="8.9307">
        <ele>945</ele>
        <time>2021-08-03T08:37:26.242Z</time>
      </trkpt>
      <trkpt lat="47.02619" lon="8.93069">
        <ele>945</ele>
        <time>2021-08-03T08:37:27.242Z</time>
      </trkpt>
      <trkpt lat="47.02619" lon="8.93068">
        <ele>945</ele>
        <time>2021-08-03T08:37:28.241Z</time>
      </trkpt>
      <trkpt lat="47.02619" lon="8.93067">
        <ele>946</ele>
        <time>2021-08-03T08:37:29.241Z</time>
      </trkpt>
      <trkpt lat="47.02619" lon="8.93066">
        <ele>946</ele>
        <time>2021-08-03T08:37:30.242Z</time>
      </trkpt>
      <trkpt lat="47.0262" lon="8.93064">
        <ele>947</ele>
        <time>2021-08-03T08:37:31.241Z</time>
      </trkpt>
      <trkpt lat="47.0262" lon="8.93063">
        <ele>947</ele>
        <time>2021-08-03T08:37:32.241Z</time>
      </trkpt>
      <trkpt lat="47.0262" lon="8.93062">
        <ele>947</ele>
        <time>2021-08-03T08:37:33.242Z</time>
      </trkpt>
      <trkpt lat="47.0262" lon="8.9306">
        <ele>947</ele>
        <time>2021-08-03T08:37:34.242Z</time>
      </trkpt>
      <trkpt lat="47.02621" lon="8.93059">
        <ele>947</ele>
        <time>2021-08-03T08:37:35.241Z</time>
      </trkpt>
      <trkpt lat="47.02621" lon="8.93057">
        <ele>947</ele>
        <time>2021-08-03T08:37:36.242Z</time>
      </trkpt>
      <trkpt lat="47.02621" lon="8.93056">
        <ele>947</ele>
        <time>2021-08-03T08:37:37.242Z</time>
      </trkpt>
      <trkpt lat="47.02621" lon="8.93054">
        <ele>947</ele>
        <time>2021-08-03T08:37:38.242Z</time>
      </trkpt>
      <trkpt lat="47.02621" lon="8.93053">
        <ele>947</ele>
        <time>2021-08-03T08:37:39.242Z</time>
      </trkpt>
      <trkpt lat="47.02621" lon="8.93051">
        <ele>947</ele>
        <time>2021-08-03T08:37:40.241Z</time>
      </trkpt>
      <trkpt lat="47.02622" lon="8.9305">
        <ele>947</ele>
        <time>2021-08-03T08:37:41.242Z</time>
      </trkpt>
      <trkpt lat="47.02622" lon="8.93049">
        <ele>947</ele>
        <time>2021-08-03T08:37:42.242Z</time>
      </trkpt>
      <trkpt lat="47.02622" lon="8.93047">
        <ele>947</ele>
        <time>2021-08-03T08:37:43.242Z</time>
      </trkpt>
      <trkpt lat="47.02622" lon="8.93045">
        <ele>947</ele>
        <time>2021-08-03T08:37:44.242Z</time>
      </trkpt>
      <trkpt lat="47.02622" lon="8.93044">
        <ele>947</ele>
        <time>2021-08-03T08:37:45.241Z</time>
      </trkpt>
      <trkpt lat="47.02622" lon="8.93043">
        <ele>947</ele>
        <time>2021-08-03T08:37:46.242Z</time>
      </trkpt>
      <trkpt lat="47.02623" lon="8.93041">
        <ele>947</ele>
        <time>2021-08-03T08:37:47.242Z</time>
      </trkpt>
      <trkpt lat="47.02623" lon="8.9304">
        <ele>948</ele>
        <time>2021-08-03T08:37:48.242Z</time>
      </trkpt>
      <trkpt lat="47.02623" lon="8.93038">
        <ele>948</ele>
        <time>2021-08-03T08:37:49.241Z</time>
      </trkpt>
      <trkpt lat="47.02623" lon="8.93037">
        <ele>948</ele>
        <time>2021-08-03T08:37:50.242Z</time>
      </trkpt>
      <trkpt lat="47.02623" lon="8.93035">
        <ele>949</ele>
        <time>2021-08-03T08:37:51.242Z</time>
      </trkpt>
      <trkpt lat="47.02623" lon="8.93034">
        <ele>949</ele>
        <time>2021-08-03T08:37:52.242Z</time>
      </trkpt>
      <trkpt lat="47.02622" lon="8.93034">
        <ele>949</ele>
        <time>2021-08-03T08:37:53.242Z</time>
      </trkpt>
      <trkpt lat="47.02622" lon="8.93033">
        <ele>950</ele>
        <time>2021-08-03T08:37:54.242Z</time>
      </trkpt>
      <trkpt lat="47.02621" lon="8.93032">
        <ele>950</ele>
        <time>2021-08-03T08:37:55.242Z</time>
      </trkpt>
      <trkpt lat="47.0262" lon="8.9303">
        <ele>950</ele>
        <time>2021-08-03T08:37:56.242Z</time>
      </trkpt>
      <trkpt lat="47.0262" lon="8.93029">
        <ele>951</ele>
        <time>2021-08-03T08:37:57.242Z</time>
      </trkpt>
      <trkpt lat="47.02619" lon="8.93028">
        <ele>951</ele>
        <time>2021-08-03T08:37:58.242Z</time>
      </trkpt>
      <trkpt lat="47.02619" lon="8.93027">
        <ele>951</ele>
        <time>2021-08-03T08:37:59.241Z</time>
      </trkpt>
      <trkpt lat="47.02618" lon="8.93026">
        <ele>951</ele>
        <time>2021-08-03T08:38:00.241Z</time>
      </trkpt>
      <trkpt lat="47.02618" lon="8.93026">
        <ele>951</ele>
        <time>2021-08-03T08:38:01.242Z</time>
      </trkpt>
      <trkpt lat="47.02618" lon="8.93026">
        <ele>951</ele>
        <time>2021-08-03T08:38:02.242Z</time>
      </trkpt>
      <trkpt lat="47.02618" lon="8.93026">
        <ele>951</ele>
        <time>2021-08-03T08:38:03.242Z</time>
      </trkpt>
      <trkpt lat="47.02618" lon="8.93025">
        <ele>955</ele>
        <time>2021-08-03T08:38:04.242Z</time>
      </trkpt>
      <trkpt lat="47.02619" lon="8.93024">
        <ele>954</ele>
        <time>2021-08-03T08:38:05.242Z</time>
      </trkpt>
      <trkpt lat="47.0262" lon="8.93023">
        <ele>954</ele>
        <time>2021-08-03T08:38:06.243Z</time>
      </trkpt>
      <trkpt lat="47.0262" lon="8.93021">
        <ele>954</ele>
        <time>2021-08-03T08:38:07.242Z</time>
      </trkpt>
      <trkpt lat="47.02621" lon="8.9302">
        <ele>953</ele>
        <time>2021-08-03T08:38:08.242Z</time>
      </trkpt>
      <trkpt lat="47.02622" lon="8.93019">
        <ele>952</ele>
        <time>2021-08-03T08:38:09.243Z</time>
      </trkpt>
      <trkpt lat="47.02623" lon="8.93018">
        <ele>952</ele>
        <time>2021-08-03T08:38:10.243Z</time>
      </trkpt>
      <trkpt lat="47.02623" lon="8.93017">
        <ele>952</ele>
        <time>2021-08-03T08:38:11.243Z</time>
      </trkpt>
      <trkpt lat="47.02623" lon="8.93015">
        <ele>952</ele>
        <time>2021-08-03T08:38:12.243Z</time>
      </trkpt>
      <trkpt lat="47.02623" lon="8.93012">
        <ele>952</ele>
        <time>2021-08-03T08:38:13.242Z</time>
      </trkpt>
      <trkpt lat="47.02623" lon="8.9301">
        <ele>952</ele>
        <time>2021-08-03T08:38:14.243Z</time>
      </trkpt>
      <trkpt lat="47.02624" lon="8.93008">
        <ele>952</ele>
        <time>2021-08-03T08:38:15.242Z</time>
      </trkpt>
      <trkpt lat="47.02624" lon="8.93006">
        <ele>951</ele>
        <time>2021-08-03T08:38:16.242Z</time>
      </trkpt>
      <trkpt lat="47.02624" lon="8.93004">
        <ele>952</ele>
        <time>2021-08-03T08:38:17.243Z</time>
      </trkpt>
      <trkpt lat="47.02624" lon="8.93003">
        <ele>952</ele>
        <time>2021-08-03T08:38:18.243Z</time>
      </trkpt>
      <trkpt lat="47.02625" lon="8.93001">
        <ele>952</ele>
        <time>2021-08-03T08:38:19.243Z</time>
      </trkpt>
      <trkpt lat="47.02625" lon="8.92999">
        <ele>952</ele>
        <time>2021-08-03T08:38:20.242Z</time>
      </trkpt>
      <trkpt lat="47.02625" lon="8.92997">
        <ele>953</ele>
        <time>2021-08-03T08:38:21.243Z</time>
      </trkpt>
      <trkpt lat="47.02626" lon="8.92995">
        <ele>953</ele>
        <time>2021-08-03T08:38:22.243Z</time>
      </trkpt>
      <trkpt lat="47.02626" lon="8.92994">
        <ele>953</ele>
        <time>2021-08-03T08:38:23.243Z</time>
      </trkpt>
      <trkpt lat="47.02626" lon="8.92992">
        <ele>953</ele>
        <time>2021-08-03T08:38:24.243Z</time>
      </trkpt>
      <trkpt lat="47.02626" lon="8.9299">
        <ele>953</ele>
        <time>2021-08-03T08:38:25.242Z</time>
      </trkpt>
      <trkpt lat="47.02626" lon="8.92987">
        <ele>953</ele>
        <time>2021-08-03T08:38:26.242Z</time>
      </trkpt>
      <trkpt lat="47.02627" lon="8.92986">
        <ele>952</ele>
        <time>2021-08-03T08:38:27.242Z</time>
      </trkpt>
      <trkpt lat="47.02627" lon="8.92984">
        <ele>952</ele>
        <time>2021-08-03T08:38:28.242Z</time>
      </trkpt>
      <trkpt lat="47.02628" lon="8.92983">
        <ele>952</ele>
        <time>2021-08-03T08:38:29.242Z</time>
      </trkpt>
      <trkpt lat="47.02628" lon="8.92981">
        <ele>952</ele>
        <time>2021-08-03T08:38:30.242Z</time>
      </trkpt>
      <trkpt lat="47.02628" lon="8.9298">
        <ele>952</ele>
        <time>2021-08-03T08:38:31.243Z</time>
      </trkpt>
      <trkpt lat="47.02629" lon="8.92979">
        <ele>952</ele>
        <time>2021-08-03T08:38:32.242Z</time>
      </trkpt>
      <trkpt lat="47.02629" lon="8.92977">
        <ele>952</ele>
        <time>2021-08-03T08:38:33.242Z</time>
      </trkpt>
      <trkpt lat="47.0263" lon="8.92976">
        <ele>953</ele>
        <time>2021-08-03T08:38:34.243Z</time>
      </trkpt>
      <trkpt lat="47.0263" lon="8.92974">
        <ele>953</ele>
        <time>2021-08-03T08:38:35.242Z</time>
      </trkpt>
      <trkpt lat="47.0263" lon="8.92973">
        <ele>953</ele>
        <time>2021-08-03T08:38:36.242Z</time>
      </trkpt>
      <trkpt lat="47.02629" lon="8.92971">
        <ele>953</ele>
        <time>2021-08-03T08:38:37.242Z</time>
      </trkpt>
      <trkpt lat="47.02629" lon="8.92969">
        <ele>954</ele>
        <time>2021-08-03T08:38:38.242Z</time>
      </trkpt>
      <trkpt lat="47.02629" lon="8.92968">
        <ele>954</ele>
        <time>2021-08-03T08:38:39.242Z</time>
      </trkpt>
      <trkpt lat="47.02629" lon="8.92967">
        <ele>955</ele>
        <time>2021-08-03T08:38:40.243Z</time>
      </trkpt>
      <trkpt lat="47.0263" lon="8.92966">
        <ele>955</ele>
        <time>2021-08-03T08:38:41.242Z</time>
      </trkpt>
      <trkpt lat="47.02629" lon="8.92965">
        <ele>955</ele>
        <time>2021-08-03T08:38:42.242Z</time>
      </trkpt>
      <trkpt lat="47.0263" lon="8.92963">
        <ele>956</ele>
        <time>2021-08-03T08:38:43.242Z</time>
      </trkpt>
      <trkpt lat="47.0263" lon="8.92962">
        <ele>956</ele>
        <time>2021-08-03T08:38:44.242Z</time>
      </trkpt>
      <trkpt lat="47.0263" lon="8.92961">
        <ele>956</ele>
        <time>2021-08-03T08:38:45.242Z</time>
      </trkpt>
      <trkpt lat="47.02629" lon="8.92959">
        <ele>957</ele>
        <time>2021-08-03T08:38:46.243Z</time>
      </trkpt>
      <trkpt lat="47.02629" lon="8.92957">
        <ele>957</ele>
        <time>2021-08-03T08:38:47.243Z</time>
      </trkpt>
      <trkpt lat="47.02629" lon="8.92956">
        <ele>957</ele>
        <time>2021-08-03T08:38:48.242Z</time>
      </trkpt>
      <trkpt lat="47.0263" lon="8.92954">
        <ele>957</ele>
        <time>2021-08-03T08:38:49.242Z</time>
      </trkpt>
      <trkpt lat="47.0263" lon="8.92954">
        <ele>957</ele>
        <time>2021-08-03T08:38:50.243Z</time>
      </trkpt>
      <trkpt lat="47.0263" lon="8.92953">
        <ele>957</ele>
        <time>2021-08-03T08:38:51.243Z</time>
      </trkpt>
      <trkpt lat="47.0263" lon="8.92952">
        <ele>957</ele>
        <time>2021-08-03T08:38:52.243Z</time>
      </trkpt>
      <trkpt lat="47.0263" lon="8.92951">
        <ele>957</ele>
        <time>2021-08-03T08:38:53.242Z</time>
      </trkpt>
      <trkpt lat="47.0263" lon="8.92949">
        <ele>957</ele>
        <time>2021-08-03T08:38:54.243Z</time>
      </trkpt>
      <trkpt lat="47.02631" lon="8.92947">
        <ele>957</ele>
        <time>2021-08-03T08:38:55.243Z</time>
      </trkpt>
      <trkpt lat="47.02631" lon="8.92946">
        <ele>957</ele>
        <time>2021-08-03T08:38:56.242Z</time>
      </trkpt>
      <trkpt lat="47.02631" lon="8.92945">
        <ele>957</ele>
        <time>2021-08-03T08:38:57.243Z</time>
      </trkpt>
      <trkpt lat="47.02632" lon="8.92944">
        <ele>957</ele>
        <time>2021-08-03T08:38:58.242Z</time>
      </trkpt>
      <trkpt lat="47.02631" lon="8.92942">
        <ele>957</ele>
        <time>2021-08-03T08:38:59.243Z</time>
      </trkpt>
      <trkpt lat="47.02631" lon="8.92941">
        <ele>957</ele>
        <time>2021-08-03T08:39:00.243Z</time>
      </trkpt>
      <trkpt lat="47.02632" lon="8.9294">
        <ele>957</ele>
        <time>2021-08-03T08:39:01.243Z</time>
      </trkpt>
      <trkpt lat="47.02632" lon="8.92938">
        <ele>958</ele>
        <time>2021-08-03T08:39:02.243Z</time>
      </trkpt>
      <trkpt lat="47.02632" lon="8.92937">
        <ele>958</ele>
        <time>2021-08-03T08:39:03.242Z</time>
      </trkpt>
      <trkpt lat="47.02632" lon="8.92936">
        <ele>958</ele>
        <time>2021-08-03T08:39:04.243Z</time>
      </trkpt>
      <trkpt lat="47.02632" lon="8.92934">
        <ele>957</ele>
        <time>2021-08-03T08:39:05.243Z</time>
      </trkpt>
      <trkpt lat="47.02632" lon="8.92933">
        <ele>957</ele>
        <time>2021-08-03T08:39:06.243Z</time>
      </trkpt>
      <trkpt lat="47.02632" lon="8.92931">
        <ele>956</ele>
        <time>2021-08-03T08:39:07.243Z</time>
      </trkpt>
      <trkpt lat="47.02633" lon="8.9293">
        <ele>956</ele>
        <time>2021-08-03T08:39:08.243Z</time>
      </trkpt>
      <trkpt lat="47.02633" lon="8.92929">
        <ele>956</ele>
        <time>2021-08-03T08:39:09.243Z</time>
      </trkpt>
      <trkpt lat="47.02634" lon="8.92928">
        <ele>956</ele>
        <time>2021-08-03T08:39:10.242Z</time>
      </trkpt>
      <trkpt lat="47.02633" lon="8.92926">
        <ele>957</ele>
        <time>2021-08-03T08:39:11.242Z</time>
      </trkpt>
      <trkpt lat="47.02633" lon="8.92924">
        <ele>957</ele>
        <time>2021-08-03T08:39:12.242Z</time>
      </trkpt>
      <trkpt lat="47.02633" lon="8.92923">
        <ele>957</ele>
        <time>2021-08-03T08:39:13.243Z</time>
      </trkpt>
      <trkpt lat="47.02633" lon="8.92921">
        <ele>957</ele>
        <time>2021-08-03T08:39:14.243Z</time>
      </trkpt>
      <trkpt lat="47.02633" lon="8.9292">
        <ele>957</ele>
        <time>2021-08-03T08:39:15.243Z</time>
      </trkpt>
      <trkpt lat="47.02633" lon="8.92919">
        <ele>957</ele>
        <time>2021-08-03T08:39:16.242Z</time>
      </trkpt>
      <trkpt lat="47.02633" lon="8.92917">
        <ele>957</ele>
        <time>2021-08-03T08:39:17.242Z</time>
      </trkpt>
      <trkpt lat="47.02633" lon="8.92915">
        <ele>957</ele>
        <time>2021-08-03T08:39:18.242Z</time>
      </trkpt>
      <trkpt lat="47.02633" lon="8.92913">
        <ele>957</ele>
        <time>2021-08-03T08:39:19.243Z</time>
      </trkpt>
      <trkpt lat="47.02632" lon="8.92912">
        <ele>958</ele>
        <time>2021-08-03T08:39:20.243Z</time>
      </trkpt>
      <trkpt lat="47.02632" lon="8.9291">
        <ele>958</ele>
        <time>2021-08-03T08:39:21.242Z</time>
      </trkpt>
      <trkpt lat="47.02632" lon="8.92909">
        <ele>957</ele>
        <time>2021-08-03T08:39:22.243Z</time>
      </trkpt>
      <trkpt lat="47.02632" lon="8.92908">
        <ele>957</ele>
        <time>2021-08-03T08:39:23.242Z</time>
      </trkpt>
      <trkpt lat="47.02632" lon="8.92906">
        <ele>957</ele>
        <time>2021-08-03T08:39:24.242Z</time>
      </trkpt>
      <trkpt lat="47.02632" lon="8.92905">
        <ele>957</ele>
        <time>2021-08-03T08:39:25.242Z</time>
      </trkpt>
      <trkpt lat="47.02632" lon="8.92903">
        <ele>957</ele>
        <time>2021-08-03T08:39:26.243Z</time>
      </trkpt>
      <trkpt lat="47.02632" lon="8.92901">
        <ele>957</ele>
        <time>2021-08-03T08:39:27.242Z</time>
      </trkpt>
      <trkpt lat="47.02632" lon="8.929">
        <ele>957</ele>
        <time>2021-08-03T08:39:28.243Z</time>
      </trkpt>
      <trkpt lat="47.02633" lon="8.92899">
        <ele>958</ele>
        <time>2021-08-03T08:39:29.243Z</time>
      </trkpt>
      <trkpt lat="47.02633" lon="8.92897">
        <ele>958</ele>
        <time>2021-08-03T08:39:30.243Z</time>
      </trkpt>
      <trkpt lat="47.02633" lon="8.92896">
        <ele>959</ele>
        <time>2021-08-03T08:39:31.243Z</time>
      </trkpt>
      <trkpt lat="47.02634" lon="8.92895">
        <ele>959</ele>
        <time>2021-08-03T08:39:32.243Z</time>
      </trkpt>
      <trkpt lat="47.02634" lon="8.92893">
        <ele>959</ele>
        <time>2021-08-03T08:39:33.243Z</time>
      </trkpt>
      <trkpt lat="47.02634" lon="8.92892">
        <ele>959</ele>
        <time>2021-08-03T08:39:34.242Z</time>
      </trkpt>
      <trkpt lat="47.02634" lon="8.92891">
        <ele>959</ele>
        <time>2021-08-03T08:39:35.242Z</time>
      </trkpt>
      <trkpt lat="47.02634" lon="8.92889">
        <ele>958</ele>
        <time>2021-08-03T08:39:36.242Z</time>
      </trkpt>
      <trkpt lat="47.02634" lon="8.92888">
        <ele>958</ele>
        <time>2021-08-03T08:39:37.242Z</time>
      </trkpt>
      <trkpt lat="47.02634" lon="8.92887">
        <ele>959</ele>
        <time>2021-08-03T08:39:38.242Z</time>
      </trkpt>
      <trkpt lat="47.02634" lon="8.92885">
        <ele>959</ele>
        <time>2021-08-03T08:39:39.242Z</time>
      </trkpt>
      <trkpt lat="47.02634" lon="8.92884">
        <ele>959</ele>
        <time>2021-08-03T08:39:40.243Z</time>
      </trkpt>
      <trkpt lat="47.02633" lon="8.92884">
        <ele>959</ele>
        <time>2021-08-03T08:39:41.242Z</time>
      </trkpt>
      <trkpt lat="47.02633" lon="8.92884">
        <ele>959</ele>
        <time>2021-08-03T08:39:42.243Z</time>
      </trkpt>
      <trkpt lat="47.02633" lon="8.92885">
        <ele>967</ele>
        <time>2021-08-03T08:39:43.244Z</time>
      </trkpt>
      <trkpt lat="47.02632" lon="8.92887">
        <ele>965</ele>
        <time>2021-08-03T08:39:44.244Z</time>
      </trkpt>
      <trkpt lat="47.02632" lon="8.92887">
        <ele>965</ele>
        <time>2021-08-03T08:39:45.244Z</time>
      </trkpt>
      <trkpt lat="47.02632" lon="8.92887">
        <ele>964</ele>
        <time>2021-08-03T08:39:46.244Z</time>
      </trkpt>
      <trkpt lat="47.0263" lon="8.92891">
        <ele>964</ele>
        <time>2021-08-03T08:39:47.244Z</time>
      </trkpt>
      <trkpt lat="47.0263" lon="8.92893">
        <ele>963</ele>
        <time>2021-08-03T08:39:48.243Z</time>
      </trkpt>
      <trkpt lat="47.02629" lon="8.92895">
        <ele>963</ele>
        <time>2021-08-03T08:39:49.243Z</time>
      </trkpt>
      <trkpt lat="47.02629" lon="8.92896">
        <ele>962</ele>
        <time>2021-08-03T08:39:50.244Z</time>
      </trkpt>
      <trkpt lat="47.02629" lon="8.92898">
        <ele>962</ele>
        <time>2021-08-03T08:39:51.244Z</time>
      </trkpt>
      <trkpt lat="47.02629" lon="8.92899">
        <ele>961</ele>
        <time>2021-08-03T08:39:52.243Z</time>
      </trkpt>
      <trkpt lat="47.02629" lon="8.929">
        <ele>961</ele>
        <time>2021-08-03T08:39:53.243Z</time>
      </trkpt>
      <trkpt lat="47.02629" lon="8.929">
        <ele>961</ele>
        <time>2021-08-03T08:39:54.244Z</time>
      </trkpt>
      <trkpt lat="47.0263" lon="8.92901">
        <ele>961</ele>
        <time>2021-08-03T08:39:55.244Z</time>
      </trkpt>
      <trkpt lat="47.0263" lon="8.92903">
        <ele>961</ele>
        <time>2021-08-03T08:39:56.243Z</time>
      </trkpt>
      <trkpt lat="47.0263" lon="8.92905">
        <ele>961</ele>
        <time>2021-08-03T08:39:57.244Z</time>
      </trkpt>
      <trkpt lat="47.0263" lon="8.92906">
        <ele>961</ele>
        <time>2021-08-03T08:39:58.243Z</time>
      </trkpt>
      <trkpt lat="47.0263" lon="8.92907">
        <ele>961</ele>
        <time>2021-08-03T08:39:59.244Z</time>
      </trkpt>
      <trkpt lat="47.0263" lon="8.92909">
        <ele>961</ele>
        <time>2021-08-03T08:40:00.243Z</time>
      </trkpt>
      <trkpt lat="47.0263" lon="8.9291">
        <ele>961</ele>
        <time>2021-08-03T08:40:01.243Z</time>
      </trkpt>
      <trkpt lat="47.0263" lon="8.92912">
        <ele>961</ele>
        <time>2021-08-03T08:40:02.243Z</time>
      </trkpt>
      <trkpt lat="47.0263" lon="8.92913">
        <ele>961</ele>
        <time>2021-08-03T08:40:03.244Z</time>
      </trkpt>
      <trkpt lat="47.0263" lon="8.92914">
        <ele>961</ele>
        <time>2021-08-03T08:40:04.244Z</time>
      </trkpt>
      <trkpt lat="47.0263" lon="8.92916">
        <ele>962</ele>
        <time>2021-08-03T08:40:05.243Z</time>
      </trkpt>
      <trkpt lat="47.0263" lon="8.92917">
        <ele>962</ele>
        <time>2021-08-03T08:40:06.243Z</time>
      </trkpt>
      <trkpt lat="47.0263" lon="8.92918">
        <ele>962</ele>
        <time>2021-08-03T08:40:07.243Z</time>
      </trkpt>
      <trkpt lat="47.0263" lon="8.9292">
        <ele>962</ele>
        <time>2021-08-03T08:40:08.243Z</time>
      </trkpt>
      <trkpt lat="47.0263" lon="8.92921">
        <ele>962</ele>
        <time>2021-08-03T08:40:09.243Z</time>
      </trkpt>
      <trkpt lat="47.02629" lon="8.92922">
        <ele>961</ele>
        <time>2021-08-03T08:40:10.244Z</time>
      </trkpt>
      <trkpt lat="47.02629" lon="8.92923">
        <ele>961</ele>
        <time>2021-08-03T08:40:11.243Z</time>
      </trkpt>
      <trkpt lat="47.02629" lon="8.92925">
        <ele>961</ele>
        <time>2021-08-03T08:40:12.244Z</time>
      </trkpt>
      <trkpt lat="47.02629" lon="8.92927">
        <ele>961</ele>
        <time>2021-08-03T08:40:13.244Z</time>
      </trkpt>
      <trkpt lat="47.02629" lon="8.92928">
        <ele>961</ele>
        <time>2021-08-03T08:40:14.244Z</time>
      </trkpt>
      <trkpt lat="47.02629" lon="8.9293">
        <ele>960</ele>
        <time>2021-08-03T08:40:15.243Z</time>
      </trkpt>
      <trkpt lat="47.02629" lon="8.92931">
        <ele>960</ele>
        <time>2021-08-03T08:40:16.243Z</time>
      </trkpt>
      <trkpt lat="47.02629" lon="8.92933">
        <ele>959</ele>
        <time>2021-08-03T08:40:17.243Z</time>
      </trkpt>
      <trkpt lat="47.02629" lon="8.92935">
        <ele>958</ele>
        <time>2021-08-03T08:40:18.243Z</time>
      </trkpt>
      <trkpt lat="47.02629" lon="8.92937">
        <ele>957</ele>
        <time>2021-08-03T08:40:19.243Z</time>
      </trkpt>
      <trkpt lat="47.02629" lon="8.92938">
        <ele>957</ele>
        <time>2021-08-03T08:40:20.243Z</time>
      </trkpt>
      <trkpt lat="47.02628" lon="8.92939">
        <ele>956</ele>
        <time>2021-08-03T08:40:21.243Z</time>
      </trkpt>
      <trkpt lat="47.02628" lon="8.92941">
        <ele>955</ele>
        <time>2021-08-03T08:40:22.243Z</time>
      </trkpt>
      <trkpt lat="47.02628" lon="8.92943">
        <ele>955</ele>
        <time>2021-08-03T08:40:23.243Z</time>
      </trkpt>
      <trkpt lat="47.02628" lon="8.92944">
        <ele>955</ele>
        <time>2021-08-03T08:40:24.243Z</time>
      </trkpt>
      <trkpt lat="47.02627" lon="8.92946">
        <ele>955</ele>
        <time>2021-08-03T08:40:25.243Z</time>
      </trkpt>
      <trkpt lat="47.02627" lon="8.92948">
        <ele>955</ele>
        <time>2021-08-03T08:40:26.243Z</time>
      </trkpt>
      <trkpt lat="47.02627" lon="8.9295">
        <ele>955</ele>
        <time>2021-08-03T08:40:27.244Z</time>
      </trkpt>
      <trkpt lat="47.02627" lon="8.92953">
        <ele>956</ele>
        <time>2021-08-03T08:40:28.243Z</time>
      </trkpt>
      <trkpt lat="47.02627" lon="8.92954">
        <ele>956</ele>
        <time>2021-08-03T08:40:29.244Z</time>
      </trkpt>
      <trkpt lat="47.02627" lon="8.92956">
        <ele>956</ele>
        <time>2021-08-03T08:40:30.243Z</time>
      </trkpt>
      <trkpt lat="47.02627" lon="8.92957">
        <ele>956</ele>
        <time>2021-08-03T08:40:31.244Z</time>
      </trkpt>
      <trkpt lat="47.02626" lon="8.92958">
        <ele>955</ele>
        <time>2021-08-03T08:40:32.244Z</time>
      </trkpt>
      <trkpt lat="47.02626" lon="8.9296">
        <ele>955</ele>
        <time>2021-08-03T08:40:33.244Z</time>
      </trkpt>
      <trkpt lat="47.02626" lon="8.92961">
        <ele>955</ele>
        <time>2021-08-03T08:40:34.244Z</time>
      </trkpt>
      <trkpt lat="47.02626" lon="8.92963">
        <ele>955</ele>
        <time>2021-08-03T08:40:35.244Z</time>
      </trkpt>
      <trkpt lat="47.02625" lon="8.92965">
        <ele>955</ele>
        <time>2021-08-03T08:40:36.244Z</time>
      </trkpt>
      <trkpt lat="47.02625" lon="8.92966">
        <ele>954</ele>
        <time>2021-08-03T08:40:37.243Z</time>
      </trkpt>
      <trkpt lat="47.02625" lon="8.92967">
        <ele>954</ele>
        <time>2021-08-03T08:40:38.244Z</time>
      </trkpt>
      <trkpt lat="47.02625" lon="8.92969">
        <ele>953</ele>
        <time>2021-08-03T08:40:39.244Z</time>
      </trkpt>
      <trkpt lat="47.02625" lon="8.92971">
        <ele>952</ele>
        <time>2021-08-03T08:40:40.244Z</time>
      </trkpt>
      <trkpt lat="47.02625" lon="8.92972">
        <ele>951</ele>
        <time>2021-08-03T08:40:41.244Z</time>
      </trkpt>
      <trkpt lat="47.02625" lon="8.92974">
        <ele>951</ele>
        <time>2021-08-03T08:40:42.244Z</time>
      </trkpt>
      <trkpt lat="47.02625" lon="8.92975">
        <ele>950</ele>
        <time>2021-08-03T08:40:43.244Z</time>
      </trkpt>
      <trkpt lat="47.02625" lon="8.92977">
        <ele>949</ele>
        <time>2021-08-03T08:40:44.243Z</time>
      </trkpt>
      <trkpt lat="47.02625" lon="8.92978">
        <ele>949</ele>
        <time>2021-08-03T08:40:45.244Z</time>
      </trkpt>
      <trkpt lat="47.02625" lon="8.9298">
        <ele>948</ele>
        <time>2021-08-03T08:40:46.244Z</time>
      </trkpt>
      <trkpt lat="47.02624" lon="8.92982">
        <ele>948</ele>
        <time>2021-08-03T08:40:47.243Z</time>
      </trkpt>
      <trkpt lat="47.02624" lon="8.92984">
        <ele>948</ele>
        <time>2021-08-03T08:40:48.244Z</time>
      </trkpt>
      <trkpt lat="47.02624" lon="8.92986">
        <ele>948</ele>
        <time>2021-08-03T08:40:49.243Z</time>
      </trkpt>
      <trkpt lat="47.02624" lon="8.92988">
        <ele>948</ele>
        <time>2021-08-03T08:40:50.244Z</time>
      </trkpt>
      <trkpt lat="47.02624" lon="8.9299">
        <ele>948</ele>
        <time>2021-08-03T08:40:51.243Z</time>
      </trkpt>
      <trkpt lat="47.02624" lon="8.92991">
        <ele>948</ele>
        <time>2021-08-03T08:40:52.244Z</time>
      </trkpt>
      <trkpt lat="47.02623" lon="8.92994">
        <ele>947</ele>
        <time>2021-08-03T08:40:53.243Z</time>
      </trkpt>
      <trkpt lat="47.02623" lon="8.92996">
        <ele>947</ele>
        <time>2021-08-03T08:40:54.244Z</time>
      </trkpt>
      <trkpt lat="47.02623" lon="8.92998">
        <ele>947</ele>
        <time>2021-08-03T08:40:55.244Z</time>
      </trkpt>
      <trkpt lat="47.02623" lon="8.93">
        <ele>947</ele>
        <time>2021-08-03T08:40:56.244Z</time>
      </trkpt>
      <trkpt lat="47.02622" lon="8.93002">
        <ele>947</ele>
        <time>2021-08-03T08:40:57.243Z</time>
      </trkpt>
      <trkpt lat="47.02622" lon="8.93003">
        <ele>947</ele>
        <time>2021-08-03T08:40:58.243Z</time>
      </trkpt>
      <trkpt lat="47.02622" lon="8.93005">
        <ele>947</ele>
        <time>2021-08-03T08:40:59.243Z</time>
      </trkpt>
      <trkpt lat="47.02622" lon="8.93008">
        <ele>946</ele>
        <time>2021-08-03T08:41:00.244Z</time>
      </trkpt>
      <trkpt lat="47.02622" lon="8.93009">
        <ele>946</ele>
        <time>2021-08-03T08:41:01.244Z</time>
      </trkpt>
      <trkpt lat="47.02622" lon="8.93011">
        <ele>946</ele>
        <time>2021-08-03T08:41:02.244Z</time>
      </trkpt>
      <trkpt lat="47.02622" lon="8.93013">
        <ele>946</ele>
        <time>2021-08-03T08:41:03.243Z</time>
      </trkpt>
      <trkpt lat="47.02622" lon="8.93015">
        <ele>947</ele>
        <time>2021-08-03T08:41:04.244Z</time>
      </trkpt>
      <trkpt lat="47.02622" lon="8.93016">
        <ele>947</ele>
        <time>2021-08-03T08:41:05.244Z</time>
      </trkpt>
      <trkpt lat="47.02622" lon="8.93018">
        <ele>947</ele>
        <time>2021-08-03T08:41:06.244Z</time>
      </trkpt>
      <trkpt lat="47.02622" lon="8.93019">
        <ele>948</ele>
        <time>2021-08-03T08:41:07.244Z</time>
      </trkpt>
      <trkpt lat="47.02622" lon="8.93021">
        <ele>948</ele>
        <time>2021-08-03T08:41:08.244Z</time>
      </trkpt>
      <trkpt lat="47.02622" lon="8.93023">
        <ele>948</ele>
        <time>2021-08-03T08:41:09.243Z</time>
      </trkpt>
      <trkpt lat="47.02622" lon="8.93025">
        <ele>948</ele>
        <time>2021-08-03T08:41:10.243Z</time>
      </trkpt>
      <trkpt lat="47.02622" lon="8.93026">
        <ele>948</ele>
        <time>2021-08-03T08:41:11.244Z</time>
      </trkpt>
      <trkpt lat="47.02621" lon="8.93028">
        <ele>949</ele>
        <time>2021-08-03T08:41:12.244Z</time>
      </trkpt>
      <trkpt lat="47.02622" lon="8.93029">
        <ele>949</ele>
        <time>2021-08-03T08:41:13.244Z</time>
      </trkpt>
      <trkpt lat="47.02622" lon="8.93031">
        <ele>950</ele>
        <time>2021-08-03T08:41:14.244Z</time>
      </trkpt>
      <trkpt lat="47.02623" lon="8.93032">
        <ele>950</ele>
        <time>2021-08-03T08:41:15.244Z</time>
      </trkpt>
      <trkpt lat="47.02623" lon="8.93034">
        <ele>951</ele>
        <time>2021-08-03T08:41:16.243Z</time>
      </trkpt>
      <trkpt lat="47.02624" lon="8.93035">
        <ele>951</ele>
        <time>2021-08-03T08:41:17.244Z</time>
      </trkpt>
      <trkpt lat="47.02625" lon="8.93036">
        <ele>952</ele>
        <time>2021-08-03T08:41:18.243Z</time>
      </trkpt>
      <trkpt lat="47.02626" lon="8.93037">
        <ele>952</ele>
        <time>2021-08-03T08:41:19.244Z</time>
      </trkpt>
      <trkpt lat="47.02626" lon="8.93038">
        <ele>953</ele>
        <time>2021-08-03T08:41:20.243Z</time>
      </trkpt>
      <trkpt lat="47.02627" lon="8.93038">
        <ele>953</ele>
        <time>2021-08-03T08:41:21.244Z</time>
      </trkpt>
      <trkpt lat="47.02628" lon="8.93038">
        <ele>953</ele>
        <time>2021-08-03T08:41:22.244Z</time>
      </trkpt>
      <trkpt lat="47.02629" lon="8.93038">
        <ele>953</ele>
        <time>2021-08-03T08:41:23.244Z</time>
      </trkpt>
      <trkpt lat="47.0263" lon="8.93038">
        <ele>953</ele>
        <time>2021-08-03T08:41:24.243Z</time>
      </trkpt>
      <trkpt lat="47.02631" lon="8.93039">
        <ele>953</ele>
        <time>2021-08-03T08:41:25.244Z</time>
      </trkpt>
      <trkpt lat="47.02631" lon="8.93039">
        <ele>953</ele>
        <time>2021-08-03T08:41:26.244Z</time>
      </trkpt>
      <trkpt lat="47.02632" lon="8.93039">
        <ele>954</ele>
        <time>2021-08-03T08:41:27.243Z</time>
      </trkpt>
      <trkpt lat="47.02633" lon="8.93038">
        <ele>954</ele>
        <time>2021-08-03T08:41:28.244Z</time>
      </trkpt>
      <trkpt lat="47.02633" lon="8.93036">
        <ele>954</ele>
        <time>2021-08-03T08:41:29.244Z</time>
      </trkpt>
      <trkpt lat="47.02634" lon="8.93036">
        <ele>953</ele>
        <time>2021-08-03T08:41:30.244Z</time>
      </trkpt>
      <trkpt lat="47.02633" lon="8.93035">
        <ele>953</ele>
        <time>2021-08-03T08:41:31.243Z</time>
      </trkpt>
      <trkpt lat="47.02633" lon="8.93034">
        <ele>953</ele>
        <time>2021-08-03T08:41:32.244Z</time>
      </trkpt>
      <trkpt lat="47.02632" lon="8.93032">
        <ele>952</ele>
        <time>2021-08-03T08:41:33.244Z</time>
      </trkpt>
      <trkpt lat="47.02632" lon="8.93032">
        <ele>952</ele>
        <time>2021-08-03T08:41:34.244Z</time>
      </trkpt>
      <trkpt lat="47.02632" lon="8.93032">
        <ele>953</ele>
        <time>2021-08-03T08:41:35.244Z</time>
      </trkpt>
      <trkpt lat="47.02632" lon="8.93031">
        <ele>954</ele>
        <time>2021-08-03T08:41:36.243Z</time>
      </trkpt>
      <trkpt lat="47.02632" lon="8.93031">
        <ele>956</ele>
        <time>2021-08-03T08:41:37.243Z</time>
      </trkpt>
      <trkpt lat="47.02633" lon="8.93031">
        <ele>962</ele>
        <time>2021-08-03T08:41:38.244Z</time>
      </trkpt>
      <trkpt lat="47.02634" lon="8.93031">
        <ele>963</ele>
        <time>2021-08-03T08:41:39.245Z</time>
      </trkpt>
      <trkpt lat="47.02634" lon="8.93031">
        <ele>963</ele>
        <time>2021-08-03T08:41:40.245Z</time>
      </trkpt>
      <trkpt lat="47.02634" lon="8.93031">
        <ele>963</ele>
        <time>2021-08-03T08:41:41.244Z</time>
      </trkpt>
      <trkpt lat="47.02635" lon="8.93032">
        <ele>963</ele>
        <time>2021-08-03T08:41:42.245Z</time>
      </trkpt>
      <trkpt lat="47.02635" lon="8.93032">
        <ele>957</ele>
        <time>2021-08-03T08:41:43.245Z</time>
      </trkpt>
      <trkpt lat="47.02636" lon="8.93033">
        <ele>957</ele>
        <time>2021-08-03T08:41:44.246Z</time>
      </trkpt>
      <trkpt lat="47.02636" lon="8.93032">
        <ele>956</ele>
        <time>2021-08-03T08:41:45.246Z</time>
      </trkpt>
      <trkpt lat="47.02636" lon="8.93031">
        <ele>956</ele>
        <time>2021-08-03T08:41:46.246Z</time>
      </trkpt>
      <trkpt lat="47.02636" lon="8.93031">
        <ele>955</ele>
        <time>2021-08-03T08:41:47.245Z</time>
      </trkpt>
      <trkpt lat="47.02637" lon="8.9303">
        <ele>954</ele>
        <time>2021-08-03T08:41:48.245Z</time>
      </trkpt>
      <trkpt lat="47.02637" lon="8.93029">
        <ele>954</ele>
        <time>2021-08-03T08:41:49.246Z</time>
      </trkpt>
      <trkpt lat="47.02637" lon="8.93028">
        <ele>954</ele>
        <time>2021-08-03T08:41:50.246Z</time>
      </trkpt>
      <trkpt lat="47.02637" lon="8.93027">
        <ele>953</ele>
        <time>2021-08-03T08:41:51.245Z</time>
      </trkpt>
      <trkpt lat="47.02637" lon="8.93026">
        <ele>953</ele>
        <time>2021-08-03T08:41:52.245Z</time>
      </trkpt>
      <trkpt lat="47.02637" lon="8.93026">
        <ele>953</ele>
        <time>2021-08-03T08:41:53.246Z</time>
      </trkpt>
      <trkpt lat="47.02638" lon="8.93024">
        <ele>953</ele>
        <time>2021-08-03T08:41:54.245Z</time>
      </trkpt>
      <trkpt lat="47.02638" lon="8.93024">
        <ele>953</ele>
        <time>2021-08-03T08:41:55.246Z</time>
      </trkpt>
      <trkpt lat="47.02639" lon="8.93023">
        <ele>953</ele>
        <time>2021-08-03T08:41:56.246Z</time>
      </trkpt>
      <trkpt lat="47.02639" lon="8.93022">
        <ele>953</ele>
        <time>2021-08-03T08:41:57.246Z</time>
      </trkpt>
      <trkpt lat="47.02639" lon="8.93021">
        <ele>953</ele>
        <time>2021-08-03T08:41:58.245Z</time>
      </trkpt>
      <trkpt lat="47.02639" lon="8.93021">
        <ele>953</ele>
        <time>2021-08-03T08:41:59.246Z</time>
      </trkpt>
      <trkpt lat="47.02639" lon="8.93021">
        <ele>953</ele>
        <time>2021-08-03T08:42:00.246Z</time>
      </trkpt>
      <trkpt lat="47.02639" lon="8.93019">
        <ele>956</ele>
        <time>2021-08-03T08:42:01.245Z</time>
      </trkpt>
      <trkpt lat="47.0264" lon="8.93018">
        <ele>956</ele>
        <time>2021-08-03T08:42:02.245Z</time>
      </trkpt>
      <trkpt lat="47.0264" lon="8.93019">
        <ele>956</ele>
        <time>2021-08-03T08:42:03.245Z</time>
      </trkpt>
      <trkpt lat="47.0264" lon="8.93019">
        <ele>955</ele>
        <time>2021-08-03T08:42:04.245Z</time>
      </trkpt>
      <trkpt lat="47.0264" lon="8.93019">
        <ele>954</ele>
        <time>2021-08-03T08:42:05.245Z</time>
      </trkpt>
      <trkpt lat="47.0264" lon="8.93018">
        <ele>954</ele>
        <time>2021-08-03T08:42:06.245Z</time>
      </trkpt>
      <trkpt lat="47.0264" lon="8.93017">
        <ele>953</ele>
        <time>2021-08-03T08:42:07.246Z</time>
      </trkpt>
      <trkpt lat="47.0264" lon="8.93016">
        <ele>953</ele>
        <time>2021-08-03T08:42:08.245Z</time>
      </trkpt>
      <trkpt lat="47.0264" lon="8.93015">
        <ele>953</ele>
        <time>2021-08-03T08:42:09.246Z</time>
      </trkpt>
      <trkpt lat="47.0264" lon="8.93014">
        <ele>953</ele>
        <time>2021-08-03T08:42:10.245Z</time>
      </trkpt>
      <trkpt lat="47.02641" lon="8.93012">
        <ele>953</ele>
        <time>2021-08-03T08:42:11.245Z</time>
      </trkpt>
      <trkpt lat="47.02641" lon="8.93011">
        <ele>953</ele>
        <time>2021-08-03T08:42:12.245Z</time>
      </trkpt>
      <trkpt lat="47.02641" lon="8.9301">
        <ele>953</ele>
        <time>2021-08-03T08:42:13.245Z</time>
      </trkpt>
      <trkpt lat="47.02641" lon="8.93009">
        <ele>953</ele>
        <time>2021-08-03T08:42:14.245Z</time>
      </trkpt>
      <trkpt lat="47.02641" lon="8.93008">
        <ele>953</ele>
        <time>2021-08-03T08:42:15.245Z</time>
      </trkpt>
      <trkpt lat="47.02642" lon="8.93007">
        <ele>954</ele>
        <time>2021-08-03T08:42:16.246Z</time>
      </trkpt>
      <trkpt lat="47.02642" lon="8.93005">
        <ele>954</ele>
        <time>2021-08-03T08:42:17.245Z</time>
      </trkpt>
      <trkpt lat="47.02643" lon="8.93004">
        <ele>954</ele>
        <time>2021-08-03T08:42:18.245Z</time>
      </trkpt>
      <trkpt lat="47.02643" lon="8.93003">
        <ele>954</ele>
        <time>2021-08-03T08:42:19.245Z</time>
      </trkpt>
      <trkpt lat="47.02644" lon="8.93002">
        <ele>954</ele>
        <time>2021-08-03T08:42:20.246Z</time>
      </trkpt>
      <trkpt lat="47.02644" lon="8.93001">
        <ele>954</ele>
        <time>2021-08-03T08:42:21.245Z</time>
      </trkpt>
      <trkpt lat="47.02644" lon="8.93">
        <ele>954</ele>
        <time>2021-08-03T08:42:22.245Z</time>
      </trkpt>
      <trkpt lat="47.02644" lon="8.92999">
        <ele>955</ele>
        <time>2021-08-03T08:42:23.245Z</time>
      </trkpt>
      <trkpt lat="47.02644" lon="8.92997">
        <ele>955</ele>
        <time>2021-08-03T08:42:24.245Z</time>
      </trkpt>
      <trkpt lat="47.02644" lon="8.92996">
        <ele>955</ele>
        <time>2021-08-03T08:42:25.245Z</time>
      </trkpt>
      <trkpt lat="47.02644" lon="8.92995">
        <ele>955</ele>
        <time>2021-08-03T08:42:26.245Z</time>
      </trkpt>
      <trkpt lat="47.02644" lon="8.92994">
        <ele>955</ele>
        <time>2021-08-03T08:42:27.245Z</time>
      </trkpt>
      <trkpt lat="47.02644" lon="8.92993">
        <ele>955</ele>
        <time>2021-08-03T08:42:28.245Z</time>
      </trkpt>
      <trkpt lat="47.02644" lon="8.92992">
        <ele>955</ele>
        <time>2021-08-03T08:42:29.245Z</time>
      </trkpt>
      <trkpt lat="47.02644" lon="8.92991">
        <ele>955</ele>
        <time>2021-08-03T08:42:30.245Z</time>
      </trkpt>
      <trkpt lat="47.02645" lon="8.9299">
        <ele>955</ele>
        <time>2021-08-03T08:42:31.246Z</time>
      </trkpt>
      <trkpt lat="47.02645" lon="8.92989">
        <ele>955</ele>
        <time>2021-08-03T08:42:32.246Z</time>
      </trkpt>
      <trkpt lat="47.02645" lon="8.92987">
        <ele>955</ele>
        <time>2021-08-03T08:42:33.245Z</time>
      </trkpt>
      <trkpt lat="47.02645" lon="8.92987">
        <ele>955</ele>
        <time>2021-08-03T08:42:34.245Z</time>
      </trkpt>
      <trkpt lat="47.02645" lon="8.92985">
        <ele>955</ele>
        <time>2021-08-03T08:42:35.245Z</time>
      </trkpt>
      <trkpt lat="47.02646" lon="8.92984">
        <ele>954</ele>
        <time>2021-08-03T08:42:36.245Z</time>
      </trkpt>
      <trkpt lat="47.02646" lon="8.92983">
        <ele>954</ele>
        <time>2021-08-03T08:42:37.245Z</time>
      </trkpt>
      <trkpt lat="47.02647" lon="8.92982">
        <ele>955</ele>
        <time>2021-08-03T08:42:38.245Z</time>
      </trkpt>
      <trkpt lat="47.02647" lon="8.92981">
        <ele>955</ele>
        <time>2021-08-03T08:42:39.245Z</time>
      </trkpt>
      <trkpt lat="47.02647" lon="8.9298">
        <ele>955</ele>
        <time>2021-08-03T08:42:40.245Z</time>
      </trkpt>
      <trkpt lat="47.02647" lon="8.92979">
        <ele>955</ele>
        <time>2021-08-03T08:42:41.245Z</time>
      </trkpt>
      <trkpt lat="47.02648" lon="8.92977">
        <ele>955</ele>
        <time>2021-08-03T08:42:42.246Z</time>
      </trkpt>
      <trkpt lat="47.02648" lon="8.92977">
        <ele>955</ele>
        <time>2021-08-03T08:42:43.246Z</time>
      </trkpt>
      <trkpt lat="47.02649" lon="8.92975">
        <ele>955</ele>
        <time>2021-08-03T08:42:44.245Z</time>
      </trkpt>
      <trkpt lat="47.02649" lon="8.92974">
        <ele>955</ele>
        <time>2021-08-03T08:42:45.245Z</time>
      </trkpt>
      <trkpt lat="47.02649" lon="8.92973">
        <ele>955</ele>
        <time>2021-08-03T08:42:46.245Z</time>
      </trkpt>
      <trkpt lat="47.02649" lon="8.92972">
        <ele>955</ele>
        <time>2021-08-03T08:42:47.245Z</time>
      </trkpt>
      <trkpt lat="47.02649" lon="8.92971">
        <ele>955</ele>
        <time>2021-08-03T08:42:48.245Z</time>
      </trkpt>
      <trkpt lat="47.0265" lon="8.9297">
        <ele>955</ele>
        <time>2021-08-03T08:42:49.245Z</time>
      </trkpt>
      <trkpt lat="47.0265" lon="8.92969">
        <ele>955</ele>
        <time>2021-08-03T08:42:50.245Z</time>
      </trkpt>
      <trkpt lat="47.02651" lon="8.92968">
        <ele>955</ele>
        <time>2021-08-03T08:42:51.245Z</time>
      </trkpt>
      <trkpt lat="47.02651" lon="8.92968">
        <ele>954</ele>
        <time>2021-08-03T08:42:52.245Z</time>
      </trkpt>
      <trkpt lat="47.02652" lon="8.92966">
        <ele>954</ele>
        <time>2021-08-03T08:42:53.246Z</time>
      </trkpt>
      <trkpt lat="47.02652" lon="8.92965">
        <ele>954</ele>
        <time>2021-08-03T08:42:54.245Z</time>
      </trkpt>
      <trkpt lat="47.02652" lon="8.92964">
        <ele>955</ele>
        <time>2021-08-03T08:42:55.245Z</time>
      </trkpt>
      <trkpt lat="47.02653" lon="8.92963">
        <ele>955</ele>
        <time>2021-08-03T08:42:56.246Z</time>
      </trkpt>
      <trkpt lat="47.02653" lon="8.92962">
        <ele>955</ele>
        <time>2021-08-03T08:42:57.245Z</time>
      </trkpt>
      <trkpt lat="47.02654" lon="8.92961">
        <ele>955</ele>
        <time>2021-08-03T08:42:58.245Z</time>
      </trkpt>
      <trkpt lat="47.02655" lon="8.9296">
        <ele>956</ele>
        <time>2021-08-03T08:42:59.246Z</time>
      </trkpt>
      <trkpt lat="47.02655" lon="8.92959">
        <ele>957</ele>
        <time>2021-08-03T08:43:00.245Z</time>
      </trkpt>
      <trkpt lat="47.02656" lon="8.92958">
        <ele>957</ele>
        <time>2021-08-03T08:43:01.245Z</time>
      </trkpt>
      <trkpt lat="47.02657" lon="8.92957">
        <ele>958</ele>
        <time>2021-08-03T08:43:02.245Z</time>
      </trkpt>
      <trkpt lat="47.02657" lon="8.92955">
        <ele>958</ele>
        <time>2021-08-03T08:43:03.245Z</time>
      </trkpt>
      <trkpt lat="47.02657" lon="8.92954">
        <ele>958</ele>
        <time>2021-08-03T08:43:04.245Z</time>
      </trkpt>
      <trkpt lat="47.02658" lon="8.92953">
        <ele>958</ele>
        <time>2021-08-03T08:43:05.245Z</time>
      </trkpt>
      <trkpt lat="47.02658" lon="8.92952">
        <ele>958</ele>
        <time>2021-08-03T08:43:06.245Z</time>
      </trkpt>
      <trkpt lat="47.02658" lon="8.92951">
        <ele>958</ele>
        <time>2021-08-03T08:43:07.246Z</time>
      </trkpt>
      <trkpt lat="47.02659" lon="8.9295">
        <ele>958</ele>
        <time>2021-08-03T08:43:08.245Z</time>
      </trkpt>
      <trkpt lat="47.02659" lon="8.92948">
        <ele>958</ele>
        <time>2021-08-03T08:43:09.245Z</time>
      </trkpt>
      <trkpt lat="47.02659" lon="8.92947">
        <ele>958</ele>
        <time>2021-08-03T08:43:10.245Z</time>
      </trkpt>
      <trkpt lat="47.02659" lon="8.92946">
        <ele>959</ele>
        <time>2021-08-03T08:43:11.245Z</time>
      </trkpt>
      <trkpt lat="47.0266" lon="8.92945">
        <ele>959</ele>
        <time>2021-08-03T08:43:12.246Z</time>
      </trkpt>
      <trkpt lat="47.0266" lon="8.92944">
        <ele>960</ele>
        <time>2021-08-03T08:43:13.245Z</time>
      </trkpt>
      <trkpt lat="47.0266" lon="8.92943">
        <ele>960</ele>
        <time>2021-08-03T08:43:14.246Z</time>
      </trkpt>
      <trkpt lat="47.0266" lon="8.92942">
        <ele>961</ele>
        <time>2021-08-03T08:43:15.245Z</time>
      </trkpt>
      <trkpt lat="47.0266" lon="8.92941">
        <ele>962</ele>
        <time>2021-08-03T08:43:16.246Z</time>
      </trkpt>
      <trkpt lat="47.0266" lon="8.9294">
        <ele>962</ele>
        <time>2021-08-03T08:43:17.245Z</time>
      </trkpt>
      <trkpt lat="47.0266" lon="8.92939">
        <ele>963</ele>
        <time>2021-08-03T08:43:18.245Z</time>
      </trkpt>
      <trkpt lat="47.02659" lon="8.92938">
        <ele>963</ele>
        <time>2021-08-03T08:43:19.246Z</time>
      </trkpt>
      <trkpt lat="47.02659" lon="8.92938">
        <ele>963</ele>
        <time>2021-08-03T08:43:20.245Z</time>
      </trkpt>
      <trkpt lat="47.02659" lon="8.92937">
        <ele>964</ele>
        <time>2021-08-03T08:43:21.245Z</time>
      </trkpt>
      <trkpt lat="47.02659" lon="8.92936">
        <ele>964</ele>
        <time>2021-08-03T08:43:22.245Z</time>
      </trkpt>
      <trkpt lat="47.02659" lon="8.92935">
        <ele>964</ele>
        <time>2021-08-03T08:43:23.245Z</time>
      </trkpt>
      <trkpt lat="47.02659" lon="8.92934">
        <ele>965</ele>
        <time>2021-08-03T08:43:24.245Z</time>
      </trkpt>
      <trkpt lat="47.02659" lon="8.92933">
        <ele>964</ele>
        <time>2021-08-03T08:43:25.245Z</time>
      </trkpt>
      <trkpt lat="47.02659" lon="8.92933">
        <ele>964</ele>
        <time>2021-08-03T08:43:26.245Z</time>
      </trkpt>
      <trkpt lat="47.02659" lon="8.92932">
        <ele>964</ele>
        <time>2021-08-03T08:43:27.245Z</time>
      </trkpt>
      <trkpt lat="47.02659" lon="8.92931">
        <ele>963</ele>
        <time>2021-08-03T08:43:28.245Z</time>
      </trkpt>
      <trkpt lat="47.02659" lon="8.92931">
        <ele>964</ele>
        <time>2021-08-03T08:43:29.245Z</time>
      </trkpt>
      <trkpt lat="47.02659" lon="8.92929">
        <ele>963</ele>
        <time>2021-08-03T08:43:30.245Z</time>
      </trkpt>
      <trkpt lat="47.02658" lon="8.92928">
        <ele>963</ele>
        <time>2021-08-03T08:43:31.246Z</time>
      </trkpt>
      <trkpt lat="47.02658" lon="8.92928">
        <ele>963</ele>
        <time>2021-08-03T08:43:32.245Z</time>
      </trkpt>
      <trkpt lat="47.02658" lon="8.92927">
        <ele>962</ele>
        <time>2021-08-03T08:43:33.245Z</time>
      </trkpt>
      <trkpt lat="47.02658" lon="8.92927">
        <ele>962</ele>
        <time>2021-08-03T08:43:34.246Z</time>
      </trkpt>
      <trkpt lat="47.02658" lon="8.92926">
        <ele>962</ele>
        <time>2021-08-03T08:43:35.245Z</time>
      </trkpt>
      <trkpt lat="47.02658" lon="8.92925">
        <ele>962</ele>
        <time>2021-08-03T08:43:36.246Z</time>
      </trkpt>
      <trkpt lat="47.02658" lon="8.92924">
        <ele>962</ele>
        <time>2021-08-03T08:43:37.246Z</time>
      </trkpt>
      <trkpt lat="47.02657" lon="8.92923">
        <ele>962</ele>
        <time>2021-08-03T08:43:38.246Z</time>
      </trkpt>
      <trkpt lat="47.02657" lon="8.92922">
        <ele>962</ele>
        <time>2021-08-03T08:43:39.246Z</time>
      </trkpt>
      <trkpt lat="47.02657" lon="8.92922">
        <ele>962</ele>
        <time>2021-08-03T08:43:40.245Z</time>
      </trkpt>
      <trkpt lat="47.02658" lon="8.92921">
        <ele>962</ele>
        <time>2021-08-03T08:43:41.246Z</time>
      </trkpt>
      <trkpt lat="47.02658" lon="8.9292">
        <ele>962</ele>
        <time>2021-08-03T08:43:42.245Z</time>
      </trkpt>
      <trkpt lat="47.02658" lon="8.92919">
        <ele>962</ele>
        <time>2021-08-03T08:43:43.245Z</time>
      </trkpt>
      <trkpt lat="47.02657" lon="8.92919">
        <ele>963</ele>
        <time>2021-08-03T08:43:44.245Z</time>
      </trkpt>
      <trkpt lat="47.02657" lon="8.92917">
        <ele>963</ele>
        <time>2021-08-03T08:43:45.245Z</time>
      </trkpt>
      <trkpt lat="47.02657" lon="8.92917">
        <ele>964</ele>
        <time>2021-08-03T08:43:46.245Z</time>
      </trkpt>
      <trkpt lat="47.02657" lon="8.92916">
        <ele>964</ele>
        <time>2021-08-03T08:43:47.245Z</time>
      </trkpt>
      <trkpt lat="47.02657" lon="8.92915">
        <ele>964</ele>
        <time>2021-08-03T08:43:48.245Z</time>
      </trkpt>
      <trkpt lat="47.02656" lon="8.92914">
        <ele>964</ele>
        <time>2021-08-03T08:43:49.245Z</time>
      </trkpt>
      <trkpt lat="47.02656" lon="8.92914">
        <ele>964</ele>
        <time>2021-08-03T08:43:50.245Z</time>
      </trkpt>
      <trkpt lat="47.02656" lon="8.92912">
        <ele>964</ele>
        <time>2021-08-03T08:43:51.245Z</time>
      </trkpt>
      <trkpt lat="47.02657" lon="8.92912">
        <ele>965</ele>
        <time>2021-08-03T08:43:52.245Z</time>
      </trkpt>
      <trkpt lat="47.02657" lon="8.92911">
        <ele>965</ele>
        <time>2021-08-03T08:43:53.245Z</time>
      </trkpt>
      <trkpt lat="47.02657" lon="8.9291">
        <ele>965</ele>
        <time>2021-08-03T08:43:54.245Z</time>
      </trkpt>
      <trkpt lat="47.02657" lon="8.92909">
        <ele>965</ele>
        <time>2021-08-03T08:43:55.246Z</time>
      </trkpt>
      <trkpt lat="47.02657" lon="8.92909">
        <ele>965</ele>
        <time>2021-08-03T08:43:56.245Z</time>
      </trkpt>
      <trkpt lat="47.02657" lon="8.92908">
        <ele>966</ele>
        <time>2021-08-03T08:43:57.245Z</time>
      </trkpt>
      <trkpt lat="47.02657" lon="8.92908">
        <ele>966</ele>
        <time>2021-08-03T08:43:58.245Z</time>
      </trkpt>
      <trkpt lat="47.02657" lon="8.92906">
        <ele>967</ele>
        <time>2021-08-03T08:43:59.247Z</time>
      </trkpt>
      <trkpt lat="47.02657" lon="8.92905">
        <ele>967</ele>
        <time>2021-08-03T08:44:00.246Z</time>
      </trkpt>
      <trkpt lat="47.02657" lon="8.92903">
        <ele>968</ele>
        <time>2021-08-03T08:44:01.247Z</time>
      </trkpt>
      <trkpt lat="47.02658" lon="8.92902">
        <ele>968</ele>
        <time>2021-08-03T08:44:02.246Z</time>
      </trkpt>
      <trkpt lat="47.02658" lon="8.92902">
        <ele>968</ele>
        <time>2021-08-03T08:44:03.246Z</time>
      </trkpt>
      <trkpt lat="47.02659" lon="8.92901">
        <ele>968</ele>
        <time>2021-08-03T08:44:04.247Z</time>
      </trkpt>
      <trkpt lat="47.0266" lon="8.929">
        <ele>969</ele>
        <time>2021-08-03T08:44:05.247Z</time>
      </trkpt>
      <trkpt lat="47.0266" lon="8.92899">
        <ele>969</ele>
        <time>2021-08-03T08:44:06.247Z</time>
      </trkpt>
      <trkpt lat="47.0266" lon="8.92899">
        <ele>969</ele>
        <time>2021-08-03T08:44:07.247Z</time>
      </trkpt>
      <trkpt lat="47.02661" lon="8.92899">
        <ele>970</ele>
        <time>2021-08-03T08:44:08.246Z</time>
      </trkpt>
      <trkpt lat="47.02661" lon="8.92899">
        <ele>970</ele>
        <time>2021-08-03T08:44:09.246Z</time>
      </trkpt>
      <trkpt lat="47.02661" lon="8.92899">
        <ele>970</ele>
        <time>2021-08-03T08:44:10.247Z</time>
      </trkpt>
      <trkpt lat="47.02661" lon="8.92898">
        <ele>970</ele>
        <time>2021-08-03T08:44:11.247Z</time>
      </trkpt>
      <trkpt lat="47.02661" lon="8.92898">
        <ele>970</ele>
        <time>2021-08-03T08:44:12.247Z</time>
      </trkpt>
      <trkpt lat="47.02662" lon="8.92897">
        <ele>970</ele>
        <time>2021-08-03T08:44:13.246Z</time>
      </trkpt>
      <trkpt lat="47.02662" lon="8.92897">
        <ele>970</ele>
        <time>2021-08-03T08:44:14.247Z</time>
      </trkpt>
      <trkpt lat="47.02662" lon="8.92896">
        <ele>970</ele>
        <time>2021-08-03T08:44:15.247Z</time>
      </trkpt>
      <trkpt lat="47.02663" lon="8.92895">
        <ele>969</ele>
        <time>2021-08-03T08:44:16.246Z</time>
      </trkpt>
      <trkpt lat="47.02664" lon="8.92895">
        <ele>969</ele>
        <time>2021-08-03T08:44:17.247Z</time>
      </trkpt>
      <trkpt lat="47.02664" lon="8.92894">
        <ele>968</ele>
        <time>2021-08-03T08:44:18.246Z</time>
      </trkpt>
      <trkpt lat="47.02665" lon="8.92893">
        <ele>968</ele>
        <time>2021-08-03T08:44:19.247Z</time>
      </trkpt>
      <trkpt lat="47.02665" lon="8.92893">
        <ele>968</ele>
        <time>2021-08-03T08:44:20.246Z</time>
      </trkpt>
      <trkpt lat="47.02666" lon="8.92892">
        <ele>967</ele>
        <time>2021-08-03T08:44:21.246Z</time>
      </trkpt>
      <trkpt lat="47.02666" lon="8.92891">
        <ele>968</ele>
        <time>2021-08-03T08:44:22.247Z</time>
      </trkpt>
      <trkpt lat="47.02666" lon="8.92891">
        <ele>967</ele>
        <time>2021-08-03T08:44:23.247Z</time>
      </trkpt>
      <trkpt lat="47.02667" lon="8.92891">
        <ele>967</ele>
        <time>2021-08-03T08:44:24.247Z</time>
      </trkpt>
      <trkpt lat="47.02668" lon="8.9289">
        <ele>968</ele>
        <time>2021-08-03T08:44:25.247Z</time>
      </trkpt>
      <trkpt lat="47.02668" lon="8.92889">
        <ele>968</ele>
        <time>2021-08-03T08:44:26.247Z</time>
      </trkpt>
      <trkpt lat="47.02669" lon="8.92888">
        <ele>969</ele>
        <time>2021-08-03T08:44:27.247Z</time>
      </trkpt>
      <trkpt lat="47.02669" lon="8.92887">
        <ele>969</ele>
        <time>2021-08-03T08:44:28.246Z</time>
      </trkpt>
      <trkpt lat="47.0267" lon="8.92886">
        <ele>969</ele>
        <time>2021-08-03T08:44:29.247Z</time>
      </trkpt>
      <trkpt lat="47.0267" lon="8.92885">
        <ele>969</ele>
        <time>2021-08-03T08:44:30.247Z</time>
      </trkpt>
      <trkpt lat="47.02671" lon="8.92884">
        <ele>969</ele>
        <time>2021-08-03T08:44:31.247Z</time>
      </trkpt>
      <trkpt lat="47.02672" lon="8.92884">
        <ele>970</ele>
        <time>2021-08-03T08:44:32.247Z</time>
      </trkpt>
      <trkpt lat="47.02673" lon="8.92884">
        <ele>970</ele>
        <time>2021-08-03T08:44:33.246Z</time>
      </trkpt>
      <trkpt lat="47.02674" lon="8.92883">
        <ele>971</ele>
        <time>2021-08-03T08:44:34.247Z</time>
      </trkpt>
      <trkpt lat="47.02675" lon="8.92882">
        <ele>972</ele>
        <time>2021-08-03T08:44:35.247Z</time>
      </trkpt>
      <trkpt lat="47.02676" lon="8.92881">
        <ele>972</ele>
        <time>2021-08-03T08:44:36.247Z</time>
      </trkpt>
      <trkpt lat="47.02676" lon="8.9288">
        <ele>973</ele>
        <time>2021-08-03T08:44:37.247Z</time>
      </trkpt>
      <trkpt lat="47.02677" lon="8.92879">
        <ele>973</ele>
        <time>2021-08-03T08:44:38.247Z</time>
      </trkpt>
      <trkpt lat="47.02678" lon="8.92878">
        <ele>973</ele>
        <time>2021-08-03T08:44:39.247Z</time>
      </trkpt>
      <trkpt lat="47.02679" lon="8.92877">
        <ele>974</ele>
        <time>2021-08-03T08:44:40.247Z</time>
      </trkpt>
      <trkpt lat="47.0268" lon="8.92875">
        <ele>974</ele>
        <time>2021-08-03T08:44:41.246Z</time>
      </trkpt>
      <trkpt lat="47.02681" lon="8.92874">
        <ele>975</ele>
        <time>2021-08-03T08:44:42.247Z</time>
      </trkpt>
      <trkpt lat="47.02682" lon="8.92873">
        <ele>975</ele>
        <time>2021-08-03T08:44:43.247Z</time>
      </trkpt>
      <trkpt lat="47.02683" lon="8.92872">
        <ele>975</ele>
        <time>2021-08-03T08:44:44.247Z</time>
      </trkpt>
      <trkpt lat="47.02683" lon="8.92871">
        <ele>975</ele>
        <time>2021-08-03T08:44:45.247Z</time>
      </trkpt>
      <trkpt lat="47.02684" lon="8.9287">
        <ele>975</ele>
        <time>2021-08-03T08:44:46.246Z</time>
      </trkpt>
      <trkpt lat="47.02685" lon="8.92868">
        <ele>975</ele>
        <time>2021-08-03T08:44:47.247Z</time>
      </trkpt>
      <trkpt lat="47.02686" lon="8.92867">
        <ele>975</ele>
        <time>2021-08-03T08:44:48.247Z</time>
      </trkpt>
      <trkpt lat="47.02686" lon="8.92866">
        <ele>976</ele>
        <time>2021-08-03T08:44:49.247Z</time>
      </trkpt>
      <trkpt lat="47.02686" lon="8.92864">
        <ele>976</ele>
        <time>2021-08-03T08:44:50.246Z</time>
      </trkpt>
      <trkpt lat="47.02686" lon="8.92863">
        <ele>976</ele>
        <time>2021-08-03T08:44:51.247Z</time>
      </trkpt>
      <trkpt lat="47.02687" lon="8.92862">
        <ele>976</ele>
        <time>2021-08-03T08:44:52.246Z</time>
      </trkpt>
      <trkpt lat="47.02688" lon="8.92861">
        <ele>976</ele>
        <time>2021-08-03T08:44:53.247Z</time>
      </trkpt>
      <trkpt lat="47.02689" lon="8.9286">
        <ele>976</ele>
        <time>2021-08-03T08:44:54.247Z</time>
      </trkpt>
      <trkpt lat="47.0269" lon="8.92859">
        <ele>976</ele>
        <time>2021-08-03T08:44:55.247Z</time>
      </trkpt>
      <trkpt lat="47.02691" lon="8.92858">
        <ele>976</ele>
        <time>2021-08-03T08:44:56.246Z</time>
      </trkpt>
      <trkpt lat="47.02691" lon="8.92857">
        <ele>976</ele>
        <time>2021-08-03T08:44:57.247Z</time>
      </trkpt>
      <trkpt lat="47.02692" lon="8.92856">
        <ele>977</ele>
        <time>2021-08-03T08:44:58.246Z</time>
      </trkpt>
      <trkpt lat="47.02693" lon="8.92854">
        <ele>977</ele>
        <time>2021-08-03T08:44:59.247Z</time>
      </trkpt>
      <trkpt lat="47.02693" lon="8.92853">
        <ele>977</ele>
        <time>2021-08-03T08:45:00.247Z</time>
      </trkpt>
      <trkpt lat="47.02694" lon="8.92852">
        <ele>976</ele>
        <time>2021-08-03T08:45:01.246Z</time>
      </trkpt>
      <trkpt lat="47.02694" lon="8.92851">
        <ele>976</ele>
        <time>2021-08-03T08:45:02.247Z</time>
      </trkpt>
      <trkpt lat="47.02695" lon="8.9285">
        <ele>976</ele>
        <time>2021-08-03T08:45:03.247Z</time>
      </trkpt>
      <trkpt lat="47.02695" lon="8.92848">
        <ele>976</ele>
        <time>2021-08-03T08:45:04.247Z</time>
      </trkpt>
      <trkpt lat="47.02695" lon="8.92847">
        <ele>976</ele>
        <time>2021-08-03T08:45:05.247Z</time>
      </trkpt>
      <trkpt lat="47.02696" lon="8.92846">
        <ele>976</ele>
        <time>2021-08-03T08:45:06.247Z</time>
      </trkpt>
      <trkpt lat="47.02697" lon="8.92845">
        <ele>976</ele>
        <time>2021-08-03T08:45:07.247Z</time>
      </trkpt>
      <trkpt lat="47.02697" lon="8.92844">
        <ele>977</ele>
        <time>2021-08-03T08:45:08.247Z</time>
      </trkpt>
      <trkpt lat="47.02697" lon="8.92843">
        <ele>977</ele>
        <time>2021-08-03T08:45:09.247Z</time>
      </trkpt>
      <trkpt lat="47.02697" lon="8.92841">
        <ele>977</ele>
        <time>2021-08-03T08:45:10.247Z</time>
      </trkpt>
      <trkpt lat="47.02698" lon="8.9284">
        <ele>977</ele>
        <time>2021-08-03T08:45:11.246Z</time>
      </trkpt>
      <trkpt lat="47.02698" lon="8.92839">
        <ele>977</ele>
        <time>2021-08-03T08:45:12.247Z</time>
      </trkpt>
      <trkpt lat="47.02699" lon="8.92838">
        <ele>976</ele>
        <time>2021-08-03T08:45:13.247Z</time>
      </trkpt>
      <trkpt lat="47.02699" lon="8.92836">
        <ele>976</ele>
        <time>2021-08-03T08:45:14.247Z</time>
      </trkpt>
      <trkpt lat="47.027" lon="8.92835">
        <ele>976</ele>
        <time>2021-08-03T08:45:15.247Z</time>
      </trkpt>
      <trkpt lat="47.02701" lon="8.92834">
        <ele>976</ele>
        <time>2021-08-03T08:45:16.247Z</time>
      </trkpt>
      <trkpt lat="47.02701" lon="8.92833">
        <ele>976</ele>
        <time>2021-08-03T08:45:17.247Z</time>
      </trkpt>
      <trkpt lat="47.02701" lon="8.92831">
        <ele>977</ele>
        <time>2021-08-03T08:45:18.246Z</time>
      </trkpt>
      <trkpt lat="47.02702" lon="8.9283">
        <ele>978</ele>
        <time>2021-08-03T08:45:19.247Z</time>
      </trkpt>
      <trkpt lat="47.02702" lon="8.92829">
        <ele>979</ele>
        <time>2021-08-03T08:45:20.247Z</time>
      </trkpt>
      <trkpt lat="47.02703" lon="8.92828">
        <ele>980</ele>
        <time>2021-08-03T08:45:21.246Z</time>
      </trkpt>
      <trkpt lat="47.02703" lon="8.92827">
        <ele>981</ele>
        <time>2021-08-03T08:45:22.246Z</time>
      </trkpt>
      <trkpt lat="47.02703" lon="8.92826">
        <ele>982</ele>
        <time>2021-08-03T08:45:23.247Z</time>
      </trkpt>
      <trkpt lat="47.02704" lon="8.92825">
        <ele>983</ele>
        <time>2021-08-03T08:45:24.247Z</time>
      </trkpt>
      <trkpt lat="47.02704" lon="8.92824">
        <ele>983</ele>
        <time>2021-08-03T08:45:25.246Z</time>
      </trkpt>
      <trkpt lat="47.02704" lon="8.92823">
        <ele>983</ele>
        <time>2021-08-03T08:45:26.247Z</time>
      </trkpt>
      <trkpt lat="47.02704" lon="8.92822">
        <ele>983</ele>
        <time>2021-08-03T08:45:27.247Z</time>
      </trkpt>
      <trkpt lat="47.02704" lon="8.92821">
        <ele>984</ele>
        <time>2021-08-03T08:45:28.247Z</time>
      </trkpt>
      <trkpt lat="47.02705" lon="8.9282">
        <ele>984</ele>
        <time>2021-08-03T08:45:29.247Z</time>
      </trkpt>
      <trkpt lat="47.02706" lon="8.92819">
        <ele>984</ele>
        <time>2021-08-03T08:45:30.247Z</time>
      </trkpt>
      <trkpt lat="47.02707" lon="8.92818">
        <ele>984</ele>
        <time>2021-08-03T08:45:31.247Z</time>
      </trkpt>
      <trkpt lat="47.02707" lon="8.92817">
        <ele>984</ele>
        <time>2021-08-03T08:45:32.246Z</time>
      </trkpt>
      <trkpt lat="47.02708" lon="8.92816">
        <ele>984</ele>
        <time>2021-08-03T08:45:33.247Z</time>
      </trkpt>
      <trkpt lat="47.02708" lon="8.92815">
        <ele>984</ele>
        <time>2021-08-03T08:45:34.246Z</time>
      </trkpt>
      <trkpt lat="47.02708" lon="8.92814">
        <ele>984</ele>
        <time>2021-08-03T08:45:35.247Z</time>
      </trkpt>
      <trkpt lat="47.02709" lon="8.92813">
        <ele>984</ele>
        <time>2021-08-03T08:45:36.247Z</time>
      </trkpt>
      <trkpt lat="47.02709" lon="8.92813">
        <ele>984</ele>
        <time>2021-08-03T08:45:37.247Z</time>
      </trkpt>
      <trkpt lat="47.0271" lon="8.92812">
        <ele>984</ele>
        <time>2021-08-03T08:45:38.246Z</time>
      </trkpt>
      <trkpt lat="47.02709" lon="8.9281">
        <ele>984</ele>
        <time>2021-08-03T08:45:39.247Z</time>
      </trkpt>
      <trkpt lat="47.02709" lon="8.92809">
        <ele>983</ele>
        <time>2021-08-03T08:45:40.246Z</time>
      </trkpt>
      <trkpt lat="47.02709" lon="8.92808">
        <ele>983</ele>
        <time>2021-08-03T08:45:41.247Z</time>
      </trkpt>
      <trkpt lat="47.0271" lon="8.92807">
        <ele>982</ele>
        <time>2021-08-03T08:45:42.247Z</time>
      </trkpt>
      <trkpt lat="47.0271" lon="8.92806">
        <ele>982</ele>
        <time>2021-08-03T08:45:43.247Z</time>
      </trkpt>
      <trkpt lat="47.02711" lon="8.92804">
        <ele>981</ele>
        <time>2021-08-03T08:45:44.246Z</time>
      </trkpt>
      <trkpt lat="47.02711" lon="8.92803">
        <ele>981</ele>
        <time>2021-08-03T08:45:45.247Z</time>
      </trkpt>
      <trkpt lat="47.02712" lon="8.92802">
        <ele>980</ele>
        <time>2021-08-03T08:45:46.246Z</time>
      </trkpt>
      <trkpt lat="47.02713" lon="8.92802">
        <ele>979</ele>
        <time>2021-08-03T08:45:47.247Z</time>
      </trkpt>
      <trkpt lat="47.02713" lon="8.928">
        <ele>979</ele>
        <time>2021-08-03T08:45:48.246Z</time>
      </trkpt>
      <trkpt lat="47.02714" lon="8.92799">
        <ele>979</ele>
        <time>2021-08-03T08:45:49.246Z</time>
      </trkpt>
      <trkpt lat="47.02714" lon="8.92798">
        <ele>979</ele>
        <time>2021-08-03T08:45:50.246Z</time>
      </trkpt>
      <trkpt lat="47.02714" lon="8.92797">
        <ele>979</ele>
        <time>2021-08-03T08:45:51.246Z</time>
      </trkpt>
      <trkpt lat="47.02714" lon="8.92795">
        <ele>980</ele>
        <time>2021-08-03T08:45:52.247Z</time>
      </trkpt>
      <trkpt lat="47.02714" lon="8.92795">
        <ele>980</ele>
        <time>2021-08-03T08:45:53.246Z</time>
      </trkpt>
      <trkpt lat="47.02714" lon="8.92793">
        <ele>980</ele>
        <time>2021-08-03T08:45:54.246Z</time>
      </trkpt>
      <trkpt lat="47.02715" lon="8.92792">
        <ele>980</ele>
        <time>2021-08-03T08:45:55.247Z</time>
      </trkpt>
      <trkpt lat="47.02715" lon="8.92791">
        <ele>980</ele>
        <time>2021-08-03T08:45:56.247Z</time>
      </trkpt>
      <trkpt lat="47.02716" lon="8.9279">
        <ele>980</ele>
        <time>2021-08-03T08:45:57.246Z</time>
      </trkpt>
      <trkpt lat="47.02717" lon="8.92789">
        <ele>980</ele>
        <time>2021-08-03T08:45:58.247Z</time>
      </trkpt>
      <trkpt lat="47.02718" lon="8.92788">
        <ele>980</ele>
        <time>2021-08-03T08:45:59.247Z</time>
      </trkpt>
      <trkpt lat="47.02718" lon="8.92787">
        <ele>980</ele>
        <time>2021-08-03T08:46:00.247Z</time>
      </trkpt>
      <trkpt lat="47.02719" lon="8.92787">
        <ele>980</ele>
        <time>2021-08-03T08:46:01.246Z</time>
      </trkpt>
      <trkpt lat="47.0272" lon="8.92786">
        <ele>981</ele>
        <time>2021-08-03T08:46:02.246Z</time>
      </trkpt>
      <trkpt lat="47.02721" lon="8.92785">
        <ele>981</ele>
        <time>2021-08-03T08:46:03.246Z</time>
      </trkpt>
      <trkpt lat="47.02722" lon="8.92784">
        <ele>981</ele>
        <time>2021-08-03T08:46:04.246Z</time>
      </trkpt>
      <trkpt lat="47.02723" lon="8.92784">
        <ele>981</ele>
        <time>2021-08-03T08:46:05.246Z</time>
      </trkpt>
      <trkpt lat="47.02723" lon="8.92783">
        <ele>981</ele>
        <time>2021-08-03T08:46:06.246Z</time>
      </trkpt>
      <trkpt lat="47.02724" lon="8.92783">
        <ele>981</ele>
        <time>2021-08-03T08:46:07.247Z</time>
      </trkpt>
      <trkpt lat="47.02725" lon="8.92782">
        <ele>981</ele>
        <time>2021-08-03T08:46:08.247Z</time>
      </trkpt>
      <trkpt lat="47.02726" lon="8.92782">
        <ele>982</ele>
        <time>2021-08-03T08:46:09.246Z</time>
      </trkpt>
      <trkpt lat="47.02726" lon="8.92781">
        <ele>982</ele>
        <time>2021-08-03T08:46:10.246Z</time>
      </trkpt>
      <trkpt lat="47.02727" lon="8.92781">
        <ele>982</ele>
        <time>2021-08-03T08:46:11.246Z</time>
      </trkpt>
      <trkpt lat="47.02727" lon="8.92781">
        <ele>982</ele>
        <time>2021-08-03T08:46:12.247Z</time>
      </trkpt>
      <trkpt lat="47.02727" lon="8.9278">
        <ele>983</ele>
        <time>2021-08-03T08:46:13.246Z</time>
      </trkpt>
      <trkpt lat="47.02728" lon="8.9278">
        <ele>983</ele>
        <time>2021-08-03T08:46:14.247Z</time>
      </trkpt>
      <trkpt lat="47.02728" lon="8.92779">
        <ele>983</ele>
        <time>2021-08-03T08:46:15.247Z</time>
      </trkpt>
      <trkpt lat="47.02729" lon="8.92779">
        <ele>984</ele>
        <time>2021-08-03T08:46:16.247Z</time>
      </trkpt>
      <trkpt lat="47.0273" lon="8.92778">
        <ele>985</ele>
        <time>2021-08-03T08:46:17.247Z</time>
      </trkpt>
      <trkpt lat="47.02731" lon="8.92778">
        <ele>986</ele>
        <time>2021-08-03T08:46:18.247Z</time>
      </trkpt>
      <trkpt lat="47.02732" lon="8.92777">
        <ele>986</ele>
        <time>2021-08-03T08:46:19.246Z</time>
      </trkpt>
      <trkpt lat="47.02732" lon="8.92777">
        <ele>987</ele>
        <time>2021-08-03T08:46:20.247Z</time>
      </trkpt>
      <trkpt lat="47.02733" lon="8.92778">
        <ele>987</ele>
        <time>2021-08-03T08:46:21.247Z</time>
      </trkpt>
      <trkpt lat="47.02734" lon="8.92778">
        <ele>988</ele>
        <time>2021-08-03T08:46:22.247Z</time>
      </trkpt>
      <trkpt lat="47.02734" lon="8.92778">
        <ele>988</ele>
        <time>2021-08-03T08:46:23.246Z</time>
      </trkpt>
      <trkpt lat="47.02735" lon="8.92777">
        <ele>988</ele>
        <time>2021-08-03T08:46:24.247Z</time>
      </trkpt>
      <trkpt lat="47.02736" lon="8.92777">
        <ele>988</ele>
        <time>2021-08-03T08:46:25.247Z</time>
      </trkpt>
      <trkpt lat="47.02737" lon="8.92777">
        <ele>988</ele>
        <time>2021-08-03T08:46:26.246Z</time>
      </trkpt>
      <trkpt lat="47.02738" lon="8.92776">
        <ele>988</ele>
        <time>2021-08-03T08:46:27.246Z</time>
      </trkpt>
      <trkpt lat="47.02739" lon="8.92776">
        <ele>988</ele>
        <time>2021-08-03T08:46:28.247Z</time>
      </trkpt>
      <trkpt lat="47.0274" lon="8.92776">
        <ele>988</ele>
        <time>2021-08-03T08:46:29.247Z</time>
      </trkpt>
      <trkpt lat="47.0274" lon="8.92776">
        <ele>987</ele>
        <time>2021-08-03T08:46:30.247Z</time>
      </trkpt>
      <trkpt lat="47.02741" lon="8.92777">
        <ele>987</ele>
        <time>2021-08-03T08:46:31.246Z</time>
      </trkpt>
      <trkpt lat="47.02742" lon="8.92777">
        <ele>987</ele>
        <time>2021-08-03T08:46:32.247Z</time>
      </trkpt>
      <trkpt lat="47.02743" lon="8.92777">
        <ele>987</ele>
        <time>2021-08-03T08:46:33.246Z</time>
      </trkpt>
      <trkpt lat="47.02743" lon="8.92776">
        <ele>987</ele>
        <time>2021-08-03T08:46:34.247Z</time>
      </trkpt>
      <trkpt lat="47.02743" lon="8.92775">
        <ele>987</ele>
        <time>2021-08-03T08:46:35.246Z</time>
      </trkpt>
      <trkpt lat="47.02743" lon="8.92774">
        <ele>987</ele>
        <time>2021-08-03T08:46:36.246Z</time>
      </trkpt>
      <trkpt lat="47.02744" lon="8.92773">
        <ele>988</ele>
        <time>2021-08-03T08:46:37.247Z</time>
      </trkpt>
      <trkpt lat="47.02744" lon="8.92772">
        <ele>988</ele>
        <time>2021-08-03T08:46:38.246Z</time>
      </trkpt>
      <trkpt lat="47.02744" lon="8.92771">
        <ele>989</ele>
        <time>2021-08-03T08:46:39.247Z</time>
      </trkpt>
      <trkpt lat="47.02744" lon="8.9277">
        <ele>989</ele>
        <time>2021-08-03T08:46:40.247Z</time>
      </trkpt>
      <trkpt lat="47.02744" lon="8.92769">
        <ele>990</ele>
        <time>2021-08-03T08:46:41.247Z</time>
      </trkpt>
      <trkpt lat="47.02745" lon="8.92768">
        <ele>991</ele>
        <time>2021-08-03T08:46:42.246Z</time>
      </trkpt>
      <trkpt lat="47.02746" lon="8.92768">
        <ele>991</ele>
        <time>2021-08-03T08:46:43.247Z</time>
      </trkpt>
      <trkpt lat="47.02747" lon="8.92767">
        <ele>992</ele>
        <time>2021-08-03T08:46:44.247Z</time>
      </trkpt>
      <trkpt lat="47.02747" lon="8.92766">
        <ele>992</ele>
        <time>2021-08-03T08:46:45.246Z</time>
      </trkpt>
      <trkpt lat="47.02747" lon="8.92765">
        <ele>992</ele>
        <time>2021-08-03T08:46:46.247Z</time>
      </trkpt>
      <trkpt lat="47.02748" lon="8.92764">
        <ele>993</ele>
        <time>2021-08-03T08:46:47.247Z</time>
      </trkpt>
      <trkpt lat="47.02748" lon="8.92763">
        <ele>993</ele>
        <time>2021-08-03T08:46:48.247Z</time>
      </trkpt>
      <trkpt lat="47.02748" lon="8.92761">
        <ele>994</ele>
        <time>2021-08-03T08:46:49.247Z</time>
      </trkpt>
      <trkpt lat="47.02747" lon="8.9276">
        <ele>993</ele>
        <time>2021-08-03T08:46:50.246Z</time>
      </trkpt>
      <trkpt lat="47.02747" lon="8.92759">
        <ele>993</ele>
        <time>2021-08-03T08:46:51.246Z</time>
      </trkpt>
      <trkpt lat="47.02747" lon="8.92757">
        <ele>993</ele>
        <time>2021-08-03T08:46:52.247Z</time>
      </trkpt>
      <trkpt lat="47.02748" lon="8.92756">
        <ele>994</ele>
        <time>2021-08-03T08:46:53.247Z</time>
      </trkpt>
      <trkpt lat="47.02748" lon="8.92754">
        <ele>994</ele>
        <time>2021-08-03T08:46:54.246Z</time>
      </trkpt>
      <trkpt lat="47.02748" lon="8.92753">
        <ele>995</ele>
        <time>2021-08-03T08:46:55.247Z</time>
      </trkpt>
      <trkpt lat="47.02748" lon="8.92752">
        <ele>995</ele>
        <time>2021-08-03T08:46:56.247Z</time>
      </trkpt>
      <trkpt lat="47.02749" lon="8.92751">
        <ele>995</ele>
        <time>2021-08-03T08:46:57.246Z</time>
      </trkpt>
      <trkpt lat="47.02749" lon="8.92751">
        <ele>996</ele>
        <time>2021-08-03T08:46:58.247Z</time>
      </trkpt>
      <trkpt lat="47.02749" lon="8.9275">
        <ele>995</ele>
        <time>2021-08-03T08:46:59.247Z</time>
      </trkpt>
      <trkpt lat="47.0275" lon="8.92749">
        <ele>995</ele>
        <time>2021-08-03T08:47:00.246Z</time>
      </trkpt>
      <trkpt lat="47.0275" lon="8.92748">
        <ele>995</ele>
        <time>2021-08-03T08:47:01.247Z</time>
      </trkpt>
      <trkpt lat="47.02751" lon="8.92747">
        <ele>995</ele>
        <time>2021-08-03T08:47:02.246Z</time>
      </trkpt>
      <trkpt lat="47.02751" lon="8.92746">
        <ele>995</ele>
        <time>2021-08-03T08:47:03.247Z</time>
      </trkpt>
      <trkpt lat="47.02751" lon="8.92745">
        <ele>995</ele>
        <time>2021-08-03T08:47:04.246Z</time>
      </trkpt>
      <trkpt lat="47.02752" lon="8.92744">
        <ele>996</ele>
        <time>2021-08-03T08:47:05.247Z</time>
      </trkpt>
      <trkpt lat="47.02753" lon="8.92743">
        <ele>996</ele>
        <time>2021-08-03T08:47:06.246Z</time>
      </trkpt>
      <trkpt lat="47.02753" lon="8.92743">
        <ele>996</ele>
        <time>2021-08-03T08:47:07.247Z</time>
      </trkpt>
      <trkpt lat="47.02754" lon="8.92742">
        <ele>996</ele>
        <time>2021-08-03T08:47:08.247Z</time>
      </trkpt>
      <trkpt lat="47.02755" lon="8.92741">
        <ele>996</ele>
        <time>2021-08-03T08:47:09.247Z</time>
      </trkpt>
      <trkpt lat="47.02755" lon="8.9274">
        <ele>996</ele>
        <time>2021-08-03T08:47:10.247Z</time>
      </trkpt>
      <trkpt lat="47.02756" lon="8.92739">
        <ele>996</ele>
        <time>2021-08-03T08:47:11.247Z</time>
      </trkpt>
      <trkpt lat="47.02757" lon="8.92739">
        <ele>996</ele>
        <time>2021-08-03T08:47:12.247Z</time>
      </trkpt>
      <trkpt lat="47.02758" lon="8.92738">
        <ele>996</ele>
        <time>2021-08-03T08:47:13.247Z</time>
      </trkpt>
      <trkpt lat="47.02758" lon="8.92737">
        <ele>996</ele>
        <time>2021-08-03T08:47:14.246Z</time>
      </trkpt>
      <trkpt lat="47.02759" lon="8.92737">
        <ele>995</ele>
        <time>2021-08-03T08:47:15.246Z</time>
      </trkpt>
      <trkpt lat="47.02759" lon="8.92736">
        <ele>995</ele>
        <time>2021-08-03T08:47:16.246Z</time>
      </trkpt>
      <trkpt lat="47.02761" lon="8.92736">
        <ele>996</ele>
        <time>2021-08-03T08:47:17.246Z</time>
      </trkpt>
      <trkpt lat="47.02761" lon="8.92735">
        <ele>996</ele>
        <time>2021-08-03T08:47:18.246Z</time>
      </trkpt>
      <trkpt lat="47.02762" lon="8.92734">
        <ele>996</ele>
        <time>2021-08-03T08:47:19.247Z</time>
      </trkpt>
      <trkpt lat="47.02763" lon="8.92733">
        <ele>996</ele>
        <time>2021-08-03T08:47:20.247Z</time>
      </trkpt>
      <trkpt lat="47.02763" lon="8.92732">
        <ele>996</ele>
        <time>2021-08-03T08:47:21.246Z</time>
      </trkpt>
      <trkpt lat="47.02764" lon="8.92732">
        <ele>995</ele>
        <time>2021-08-03T08:47:22.247Z</time>
      </trkpt>
      <trkpt lat="47.02765" lon="8.92731">
        <ele>995</ele>
        <time>2021-08-03T08:47:23.247Z</time>
      </trkpt>
      <trkpt lat="47.02766" lon="8.92731">
        <ele>995</ele>
        <time>2021-08-03T08:47:24.247Z</time>
      </trkpt>
      <trkpt lat="47.02766" lon="8.9273">
        <ele>995</ele>
        <time>2021-08-03T08:47:25.247Z</time>
      </trkpt>
      <trkpt lat="47.02767" lon="8.92728">
        <ele>995</ele>
        <time>2021-08-03T08:47:26.246Z</time>
      </trkpt>
      <trkpt lat="47.02767" lon="8.92728">
        <ele>996</ele>
        <time>2021-08-03T08:47:27.246Z</time>
      </trkpt>
      <trkpt lat="47.02768" lon="8.92727">
        <ele>996</ele>
        <time>2021-08-03T08:47:28.247Z</time>
      </trkpt>
      <trkpt lat="47.02768" lon="8.92726">
        <ele>997</ele>
        <time>2021-08-03T08:47:29.247Z</time>
      </trkpt>
      <trkpt lat="47.02769" lon="8.92725">
        <ele>998</ele>
        <time>2021-08-03T08:47:30.247Z</time>
      </trkpt>
      <trkpt lat="47.02769" lon="8.92724">
        <ele>998</ele>
        <time>2021-08-03T08:47:31.246Z</time>
      </trkpt>
      <trkpt lat="47.02768" lon="8.92724">
        <ele>998</ele>
        <time>2021-08-03T08:47:32.246Z</time>
      </trkpt>
      <trkpt lat="47.02766" lon="8.9272">
        <ele>997</ele>
        <time>2021-08-03T08:47:33.246Z</time>
      </trkpt>
      <trkpt lat="47.02765" lon="8.9272">
        <ele>998</ele>
        <time>2021-08-03T08:47:34.247Z</time>
      </trkpt>
      <trkpt lat="47.02765" lon="8.92719">
        <ele>998</ele>
        <time>2021-08-03T08:47:35.246Z</time>
      </trkpt>
      <trkpt lat="47.02765" lon="8.92719">
        <ele>998</ele>
        <time>2021-08-03T08:47:36.247Z</time>
      </trkpt>
      <trkpt lat="47.02766" lon="8.9272">
        <ele>999</ele>
        <time>2021-08-03T08:47:37.247Z</time>
      </trkpt>
      <trkpt lat="47.02766" lon="8.9272">
        <ele>999</ele>
        <time>2021-08-03T08:47:38.246Z</time>
      </trkpt>
      <trkpt lat="47.02766" lon="8.9272">
        <ele>999</ele>
        <time>2021-08-03T08:47:39.247Z</time>
      </trkpt>
      <trkpt lat="47.02767" lon="8.9272">
        <ele>999</ele>
        <time>2021-08-03T08:47:40.246Z</time>
      </trkpt>
      <trkpt lat="47.02768" lon="8.9272">
        <ele>998</ele>
        <time>2021-08-03T08:47:41.247Z</time>
      </trkpt>
      <trkpt lat="47.02769" lon="8.92719">
        <ele>998</ele>
        <time>2021-08-03T08:47:42.246Z</time>
      </trkpt>
      <trkpt lat="47.02769" lon="8.92719">
        <ele>999</ele>
        <time>2021-08-03T08:47:43.247Z</time>
      </trkpt>
      <trkpt lat="47.0277" lon="8.92718">
        <ele>999</ele>
        <time>2021-08-03T08:47:44.247Z</time>
      </trkpt>
      <trkpt lat="47.0277" lon="8.92717">
        <ele>998</ele>
        <time>2021-08-03T08:47:45.247Z</time>
      </trkpt>
      <trkpt lat="47.02771" lon="8.92717">
        <ele>998</ele>
        <time>2021-08-03T08:47:46.246Z</time>
      </trkpt>
      <trkpt lat="47.02772" lon="8.92716">
        <ele>998</ele>
        <time>2021-08-03T08:47:47.247Z</time>
      </trkpt>
      <trkpt lat="47.02772" lon="8.92715">
        <ele>997</ele>
        <time>2021-08-03T08:47:48.246Z</time>
      </trkpt>
      <trkpt lat="47.02773" lon="8.92714">
        <ele>997</ele>
        <time>2021-08-03T08:47:49.247Z</time>
      </trkpt>
      <trkpt lat="47.02774" lon="8.92714">
        <ele>997</ele>
        <time>2021-08-03T08:47:50.246Z</time>
      </trkpt>
      <trkpt lat="47.02775" lon="8.92712">
        <ele>998</ele>
        <time>2021-08-03T08:47:51.246Z</time>
      </trkpt>
      <trkpt lat="47.02776" lon="8.92711">
        <ele>999</ele>
        <time>2021-08-03T08:47:52.247Z</time>
      </trkpt>
      <trkpt lat="47.02776" lon="8.9271">
        <ele>1000</ele>
        <time>2021-08-03T08:47:53.247Z</time>
      </trkpt>
      <trkpt lat="47.02777" lon="8.9271">
        <ele>1000</ele>
        <time>2021-08-03T08:47:54.247Z</time>
      </trkpt>
      <trkpt lat="47.02778" lon="8.92708">
        <ele>1001</ele>
        <time>2021-08-03T08:47:55.247Z</time>
      </trkpt>
      <trkpt lat="47.02779" lon="8.92708">
        <ele>1001</ele>
        <time>2021-08-03T08:47:56.247Z</time>
      </trkpt>
      <trkpt lat="47.02779" lon="8.92707">
        <ele>1002</ele>
        <time>2021-08-03T08:47:57.246Z</time>
      </trkpt>
      <trkpt lat="47.0278" lon="8.92706">
        <ele>1002</ele>
        <time>2021-08-03T08:47:58.247Z</time>
      </trkpt>
      <trkpt lat="47.02781" lon="8.92705">
        <ele>1003</ele>
        <time>2021-08-03T08:47:59.247Z</time>
      </trkpt>
      <trkpt lat="47.02781" lon="8.92704">
        <ele>1003</ele>
        <time>2021-08-03T08:48:00.247Z</time>
      </trkpt>
      <trkpt lat="47.02782" lon="8.92704">
        <ele>1003</ele>
        <time>2021-08-03T08:48:01.246Z</time>
      </trkpt>
      <trkpt lat="47.02782" lon="8.92703">
        <ele>1004</ele>
        <time>2021-08-03T08:48:02.246Z</time>
      </trkpt>
      <trkpt lat="47.02783" lon="8.92702">
        <ele>1004</ele>
        <time>2021-08-03T08:48:03.247Z</time>
      </trkpt>
      <trkpt lat="47.02783" lon="8.92701">
        <ele>1004</ele>
        <time>2021-08-03T08:48:04.247Z</time>
      </trkpt>
      <trkpt lat="47.02784" lon="8.92701">
        <ele>1005</ele>
        <time>2021-08-03T08:48:05.247Z</time>
      </trkpt>
      <trkpt lat="47.02784" lon="8.927">
        <ele>1005</ele>
        <time>2021-08-03T08:48:06.247Z</time>
      </trkpt>
      <trkpt lat="47.02785" lon="8.92699">
        <ele>1005</ele>
        <time>2021-08-03T08:48:07.246Z</time>
      </trkpt>
      <trkpt lat="47.02786" lon="8.92698">
        <ele>1005</ele>
        <time>2021-08-03T08:48:08.247Z</time>
      </trkpt>
      <trkpt lat="47.02786" lon="8.92697">
        <ele>1004</ele>
        <time>2021-08-03T08:48:09.247Z</time>
      </trkpt>
      <trkpt lat="47.02787" lon="8.92696">
        <ele>1004</ele>
        <time>2021-08-03T08:48:10.247Z</time>
      </trkpt>
      <trkpt lat="47.02787" lon="8.92694">
        <ele>1004</ele>
        <time>2021-08-03T08:48:11.247Z</time>
      </trkpt>
      <trkpt lat="47.02788" lon="8.92693">
        <ele>1004</ele>
        <time>2021-08-03T08:48:12.247Z</time>
      </trkpt>
      <trkpt lat="47.02789" lon="8.92692">
        <ele>1004</ele>
        <time>2021-08-03T08:48:13.247Z</time>
      </trkpt>
      <trkpt lat="47.02789" lon="8.92691">
        <ele>1004</ele>
        <time>2021-08-03T08:48:14.247Z</time>
      </trkpt>
      <trkpt lat="47.02789" lon="8.9269">
        <ele>1004</ele>
        <time>2021-08-03T08:48:15.246Z</time>
      </trkpt>
      <trkpt lat="47.02788" lon="8.92688">
        <ele>1003</ele>
        <time>2021-08-03T08:48:16.247Z</time>
      </trkpt>
      <trkpt lat="47.02788" lon="8.92687">
        <ele>1003</ele>
        <time>2021-08-03T08:48:17.247Z</time>
      </trkpt>
      <trkpt lat="47.02789" lon="8.92685">
        <ele>1003</ele>
        <time>2021-08-03T08:48:18.247Z</time>
      </trkpt>
      <trkpt lat="47.0279" lon="8.92683">
        <ele>1003</ele>
        <time>2021-08-03T08:48:19.247Z</time>
      </trkpt>
      <trkpt lat="47.0279" lon="8.92682">
        <ele>1003</ele>
        <time>2021-08-03T08:48:20.247Z</time>
      </trkpt>
      <trkpt lat="47.0279" lon="8.9268">
        <ele>1004</ele>
        <time>2021-08-03T08:48:21.247Z</time>
      </trkpt>
      <trkpt lat="47.0279" lon="8.92679">
        <ele>1004</ele>
        <time>2021-08-03T08:48:22.247Z</time>
      </trkpt>
      <trkpt lat="47.02789" lon="8.92677">
        <ele>1004</ele>
        <time>2021-08-03T08:48:23.247Z</time>
      </trkpt>
      <trkpt lat="47.02789" lon="8.92676">
        <ele>1004</ele>
        <time>2021-08-03T08:48:24.247Z</time>
      </trkpt>
      <trkpt lat="47.0279" lon="8.92674">
        <ele>1004</ele>
        <time>2021-08-03T08:48:25.247Z</time>
      </trkpt>
      <trkpt lat="47.0279" lon="8.92673">
        <ele>1004</ele>
        <time>2021-08-03T08:48:26.246Z</time>
      </trkpt>
      <trkpt lat="47.0279" lon="8.92672">
        <ele>1004</ele>
        <time>2021-08-03T08:48:27.247Z</time>
      </trkpt>
      <trkpt lat="47.0279" lon="8.92671">
        <ele>1004</ele>
        <time>2021-08-03T08:48:28.247Z</time>
      </trkpt>
      <trkpt lat="47.02791" lon="8.9267">
        <ele>1004</ele>
        <time>2021-08-03T08:48:29.246Z</time>
      </trkpt>
      <trkpt lat="47.02791" lon="8.92669">
        <ele>1004</ele>
        <time>2021-08-03T08:48:30.246Z</time>
      </trkpt>
      <trkpt lat="47.02791" lon="8.92669">
        <ele>1004</ele>
        <time>2021-08-03T08:48:31.246Z</time>
      </trkpt>
      <trkpt lat="47.02792" lon="8.92668">
        <ele>1003</ele>
        <time>2021-08-03T08:48:32.247Z</time>
      </trkpt>
      <trkpt lat="47.02791" lon="8.92668">
        <ele>1003</ele>
        <time>2021-08-03T08:48:33.246Z</time>
      </trkpt>
      <trkpt lat="47.0279" lon="8.92667">
        <ele>1002</ele>
        <time>2021-08-03T08:48:34.247Z</time>
      </trkpt>
      <trkpt lat="47.0279" lon="8.92667">
        <ele>1002</ele>
        <time>2021-08-03T08:48:35.247Z</time>
      </trkpt>
      <trkpt lat="47.0279" lon="8.92667">
        <ele>1001</ele>
        <time>2021-08-03T08:48:36.246Z</time>
      </trkpt>
      <trkpt lat="47.02789" lon="8.92667">
        <ele>1001</ele>
        <time>2021-08-03T08:48:37.246Z</time>
      </trkpt>
      <trkpt lat="47.02789" lon="8.92666">
        <ele>1001</ele>
        <time>2021-08-03T08:48:38.247Z</time>
      </trkpt>
      <trkpt lat="47.0279" lon="8.92666">
        <ele>1001</ele>
        <time>2021-08-03T08:48:39.248Z</time>
      </trkpt>
      <trkpt lat="47.02791" lon="8.92665">
        <ele>1001</ele>
        <time>2021-08-03T08:48:40.248Z</time>
      </trkpt>
      <trkpt lat="47.0279" lon="8.92665">
        <ele>1002</ele>
        <time>2021-08-03T08:48:41.248Z</time>
      </trkpt>
      <trkpt lat="47.0279" lon="8.92665">
        <ele>1002</ele>
        <time>2021-08-03T08:48:42.247Z</time>
      </trkpt>
      <trkpt lat="47.02789" lon="8.92666">
        <ele>1005</ele>
        <time>2021-08-03T08:48:43.248Z</time>
      </trkpt>
      <trkpt lat="47.02789" lon="8.92666">
        <ele>1005</ele>
        <time>2021-08-03T08:48:44.247Z</time>
      </trkpt>
      <trkpt lat="47.02789" lon="8.92666">
        <ele>1006</ele>
        <time>2021-08-03T08:48:45.247Z</time>
      </trkpt>
      <trkpt lat="47.02788" lon="8.92665">
        <ele>1014</ele>
        <time>2021-08-03T08:48:46.248Z</time>
      </trkpt>
      <trkpt lat="47.02788" lon="8.92664">
        <ele>1013</ele>
        <time>2021-08-03T08:48:47.249Z</time>
      </trkpt>
      <trkpt lat="47.02787" lon="8.92663">
        <ele>1013</ele>
        <time>2021-08-03T08:48:48.249Z</time>
      </trkpt>
      <trkpt lat="47.02787" lon="8.92662">
        <ele>1013</ele>
        <time>2021-08-03T08:48:49.249Z</time>
      </trkpt>
      <trkpt lat="47.02787" lon="8.92662">
        <ele>1013</ele>
        <time>2021-08-03T08:48:50.248Z</time>
      </trkpt>
      <trkpt lat="47.02787" lon="8.92661">
        <ele>1013</ele>
        <time>2021-08-03T08:48:51.249Z</time>
      </trkpt>
      <trkpt lat="47.02786" lon="8.92659">
        <ele>1007</ele>
        <time>2021-08-03T08:48:52.251Z</time>
      </trkpt>
      <trkpt lat="47.02788" lon="8.9266">
        <ele>1007</ele>
        <time>2021-08-03T08:48:53.251Z</time>
      </trkpt>
      <trkpt lat="47.0279" lon="8.9266">
        <ele>1007</ele>
        <time>2021-08-03T08:48:54.250Z</time>
      </trkpt>
      <trkpt lat="47.02791" lon="8.9266">
        <ele>1007</ele>
        <time>2021-08-03T08:48:55.250Z</time>
      </trkpt>
      <trkpt lat="47.02791" lon="8.92659">
        <ele>1007</ele>
        <time>2021-08-03T08:48:56.250Z</time>
      </trkpt>
      <trkpt lat="47.02791" lon="8.92659">
        <ele>1007</ele>
        <time>2021-08-03T08:48:57.250Z</time>
      </trkpt>
      <trkpt lat="47.02792" lon="8.92657">
        <ele>1006</ele>
        <time>2021-08-03T08:48:58.251Z</time>
      </trkpt>
      <trkpt lat="47.02792" lon="8.92656">
        <ele>1006</ele>
        <time>2021-08-03T08:48:59.251Z</time>
      </trkpt>
      <trkpt lat="47.02791" lon="8.92655">
        <ele>1006</ele>
        <time>2021-08-03T08:49:00.250Z</time>
      </trkpt>
      <trkpt lat="47.02791" lon="8.92654">
        <ele>1007</ele>
        <time>2021-08-03T08:49:01.250Z</time>
      </trkpt>
      <trkpt lat="47.02791" lon="8.92653">
        <ele>1007</ele>
        <time>2021-08-03T08:49:02.251Z</time>
      </trkpt>
      <trkpt lat="47.02791" lon="8.92652">
        <ele>1007</ele>
        <time>2021-08-03T08:49:03.251Z</time>
      </trkpt>
      <trkpt lat="47.0279" lon="8.92651">
        <ele>1008</ele>
        <time>2021-08-03T08:49:04.250Z</time>
      </trkpt>
      <trkpt lat="47.0279" lon="8.92651">
        <ele>1008</ele>
        <time>2021-08-03T08:49:05.250Z</time>
      </trkpt>
      <trkpt lat="47.0279" lon="8.9265">
        <ele>1008</ele>
        <time>2021-08-03T08:49:06.251Z</time>
      </trkpt>
      <trkpt lat="47.02789" lon="8.92649">
        <ele>1009</ele>
        <time>2021-08-03T08:49:07.250Z</time>
      </trkpt>
      <trkpt lat="47.02789" lon="8.92648">
        <ele>1010</ele>
        <time>2021-08-03T08:49:08.250Z</time>
      </trkpt>
      <trkpt lat="47.02789" lon="8.92647">
        <ele>1010</ele>
        <time>2021-08-03T08:49:09.250Z</time>
      </trkpt>
      <trkpt lat="47.02789" lon="8.92647">
        <ele>1011</ele>
        <time>2021-08-03T08:49:10.251Z</time>
      </trkpt>
      <trkpt lat="47.02789" lon="8.92646">
        <ele>1011</ele>
        <time>2021-08-03T08:49:11.250Z</time>
      </trkpt>
      <trkpt lat="47.02789" lon="8.92646">
        <ele>1012</ele>
        <time>2021-08-03T08:49:12.250Z</time>
      </trkpt>
      <trkpt lat="47.02788" lon="8.92646">
        <ele>1012</ele>
        <time>2021-08-03T08:49:13.251Z</time>
      </trkpt>
      <trkpt lat="47.02788" lon="8.92645">
        <ele>1012</ele>
        <time>2021-08-03T08:49:14.251Z</time>
      </trkpt>
      <trkpt lat="47.02788" lon="8.92644">
        <ele>1012</ele>
        <time>2021-08-03T08:49:15.251Z</time>
      </trkpt>
      <trkpt lat="47.02787" lon="8.92643">
        <ele>1013</ele>
        <time>2021-08-03T08:49:16.251Z</time>
      </trkpt>
      <trkpt lat="47.02787" lon="8.92643">
        <ele>1013</ele>
        <time>2021-08-03T08:49:17.251Z</time>
      </trkpt>
      <trkpt lat="47.02787" lon="8.92643">
        <ele>1013</ele>
        <time>2021-08-03T08:49:18.251Z</time>
      </trkpt>
      <trkpt lat="47.02787" lon="8.92641">
        <ele>1015</ele>
        <time>2021-08-03T08:49:19.251Z</time>
      </trkpt>
      <trkpt lat="47.02787" lon="8.9264">
        <ele>1015</ele>
        <time>2021-08-03T08:49:20.251Z</time>
      </trkpt>
      <trkpt lat="47.02786" lon="8.92639">
        <ele>1015</ele>
        <time>2021-08-03T08:49:21.250Z</time>
      </trkpt>
      <trkpt lat="47.02786" lon="8.92639">
        <ele>1015</ele>
        <time>2021-08-03T08:49:22.251Z</time>
      </trkpt>
      <trkpt lat="47.02786" lon="8.92638">
        <ele>1015</ele>
        <time>2021-08-03T08:49:23.251Z</time>
      </trkpt>
      <trkpt lat="47.02785" lon="8.92637">
        <ele>1015</ele>
        <time>2021-08-03T08:49:24.251Z</time>
      </trkpt>
      <trkpt lat="47.02785" lon="8.92637">
        <ele>1015</ele>
        <time>2021-08-03T08:49:25.251Z</time>
      </trkpt>
      <trkpt lat="47.02785" lon="8.92637">
        <ele>1014</ele>
        <time>2021-08-03T08:49:26.251Z</time>
      </trkpt>
      <trkpt lat="47.02785" lon="8.92636">
        <ele>1014</ele>
        <time>2021-08-03T08:49:27.251Z</time>
      </trkpt>
      <trkpt lat="47.02784" lon="8.92635">
        <ele>1013</ele>
        <time>2021-08-03T08:49:28.251Z</time>
      </trkpt>
      <trkpt lat="47.02784" lon="8.92633">
        <ele>1013</ele>
        <time>2021-08-03T08:49:29.251Z</time>
      </trkpt>
      <trkpt lat="47.02783" lon="8.92632">
        <ele>1012</ele>
        <time>2021-08-03T08:49:30.250Z</time>
      </trkpt>
      <trkpt lat="47.02783" lon="8.92631">
        <ele>1011</ele>
        <time>2021-08-03T08:49:31.251Z</time>
      </trkpt>
      <trkpt lat="47.02783" lon="8.9263">
        <ele>1011</ele>
        <time>2021-08-03T08:49:32.251Z</time>
      </trkpt>
      <trkpt lat="47.02782" lon="8.92628">
        <ele>1012</ele>
        <time>2021-08-03T08:49:33.251Z</time>
      </trkpt>
      <trkpt lat="47.02781" lon="8.92627">
        <ele>1012</ele>
        <time>2021-08-03T08:49:34.251Z</time>
      </trkpt>
      <trkpt lat="47.02781" lon="8.92626">
        <ele>1013</ele>
        <time>2021-08-03T08:49:35.251Z</time>
      </trkpt>
      <trkpt lat="47.02781" lon="8.92625">
        <ele>1013</ele>
        <time>2021-08-03T08:49:36.251Z</time>
      </trkpt>
      <trkpt lat="47.02782" lon="8.92624">
        <ele>1013</ele>
        <time>2021-08-03T08:49:37.251Z</time>
      </trkpt>
      <trkpt lat="47.02782" lon="8.92624">
        <ele>1014</ele>
        <time>2021-08-03T08:49:38.251Z</time>
      </trkpt>
      <trkpt lat="47.02782" lon="8.92623">
        <ele>1015</ele>
        <time>2021-08-03T08:49:39.251Z</time>
      </trkpt>
      <trkpt lat="47.02781" lon="8.92622">
        <ele>1015</ele>
        <time>2021-08-03T08:49:40.251Z</time>
      </trkpt>
      <trkpt lat="47.02781" lon="8.92621">
        <ele>1015</ele>
        <time>2021-08-03T08:49:41.251Z</time>
      </trkpt>
      <trkpt lat="47.0278" lon="8.9262">
        <ele>1015</ele>
        <time>2021-08-03T08:49:42.250Z</time>
      </trkpt>
      <trkpt lat="47.0278" lon="8.92619">
        <ele>1015</ele>
        <time>2021-08-03T08:49:43.251Z</time>
      </trkpt>
      <trkpt lat="47.0278" lon="8.92617">
        <ele>1015</ele>
        <time>2021-08-03T08:49:44.251Z</time>
      </trkpt>
      <trkpt lat="47.0278" lon="8.92616">
        <ele>1015</ele>
        <time>2021-08-03T08:49:45.251Z</time>
      </trkpt>
      <trkpt lat="47.02779" lon="8.92617">
        <ele>1015</ele>
        <time>2021-08-03T08:49:46.250Z</time>
      </trkpt>
      <trkpt lat="47.0278" lon="8.92617">
        <ele>1015</ele>
        <time>2021-08-03T08:49:47.250Z</time>
      </trkpt>
      <trkpt lat="47.0278" lon="8.92616">
        <ele>1016</ele>
        <time>2021-08-03T08:49:48.251Z</time>
      </trkpt>
      <trkpt lat="47.0278" lon="8.92616">
        <ele>1016</ele>
        <time>2021-08-03T08:49:49.251Z</time>
      </trkpt>
      <trkpt lat="47.02779" lon="8.92612">
        <ele>1018</ele>
        <time>2021-08-03T08:49:50.250Z</time>
      </trkpt>
      <trkpt lat="47.02779" lon="8.92612">
        <ele>1018</ele>
        <time>2021-08-03T08:49:51.250Z</time>
      </trkpt>
      <trkpt lat="47.02778" lon="8.92611">
        <ele>1018</ele>
        <time>2021-08-03T08:49:52.250Z</time>
      </trkpt>
      <trkpt lat="47.02778" lon="8.9261">
        <ele>1018</ele>
        <time>2021-08-03T08:49:53.251Z</time>
      </trkpt>
      <trkpt lat="47.02778" lon="8.92609">
        <ele>1018</ele>
        <time>2021-08-03T08:49:54.250Z</time>
      </trkpt>
      <trkpt lat="47.02777" lon="8.92608">
        <ele>1019</ele>
        <time>2021-08-03T08:49:55.251Z</time>
      </trkpt>
      <trkpt lat="47.02777" lon="8.92608">
        <ele>1019</ele>
        <time>2021-08-03T08:49:56.251Z</time>
      </trkpt>
      <trkpt lat="47.02777" lon="8.92607">
        <ele>1019</ele>
        <time>2021-08-03T08:49:57.251Z</time>
      </trkpt>
      <trkpt lat="47.02777" lon="8.92606">
        <ele>1019</ele>
        <time>2021-08-03T08:49:58.250Z</time>
      </trkpt>
      <trkpt lat="47.02777" lon="8.92606">
        <ele>1019</ele>
        <time>2021-08-03T08:49:59.251Z</time>
      </trkpt>
      <trkpt lat="47.02777" lon="8.92605">
        <ele>1019</ele>
        <time>2021-08-03T08:50:00.250Z</time>
      </trkpt>
      <trkpt lat="47.02777" lon="8.92604">
        <ele>1020</ele>
        <time>2021-08-03T08:50:01.251Z</time>
      </trkpt>
      <trkpt lat="47.02777" lon="8.92603">
        <ele>1021</ele>
        <time>2021-08-03T08:50:02.250Z</time>
      </trkpt>
      <trkpt lat="47.02778" lon="8.92603">
        <ele>1021</ele>
        <time>2021-08-03T08:50:03.250Z</time>
      </trkpt>
      <trkpt lat="47.02778" lon="8.92602">
        <ele>1021</ele>
        <time>2021-08-03T08:50:04.251Z</time>
      </trkpt>
      <trkpt lat="47.02779" lon="8.92601">
        <ele>1022</ele>
        <time>2021-08-03T08:50:05.251Z</time>
      </trkpt>
      <trkpt lat="47.02779" lon="8.926">
        <ele>1022</ele>
        <time>2021-08-03T08:50:06.251Z</time>
      </trkpt>
      <trkpt lat="47.02779" lon="8.92599">
        <ele>1022</ele>
        <time>2021-08-03T08:50:07.251Z</time>
      </trkpt>
      <trkpt lat="47.02779" lon="8.92599">
        <ele>1023</ele>
        <time>2021-08-03T08:50:08.250Z</time>
      </trkpt>
      <trkpt lat="47.02779" lon="8.92598">
        <ele>1023</ele>
        <time>2021-08-03T08:50:09.251Z</time>
      </trkpt>
      <trkpt lat="47.02779" lon="8.92596">
        <ele>1023</ele>
        <time>2021-08-03T08:50:10.251Z</time>
      </trkpt>
      <trkpt lat="47.02779" lon="8.92595">
        <ele>1023</ele>
        <time>2021-08-03T08:50:11.251Z</time>
      </trkpt>
      <trkpt lat="47.02779" lon="8.92595">
        <ele>1023</ele>
        <time>2021-08-03T08:50:12.251Z</time>
      </trkpt>
      <trkpt lat="47.02779" lon="8.92594">
        <ele>1024</ele>
        <time>2021-08-03T08:50:13.251Z</time>
      </trkpt>
      <trkpt lat="47.02779" lon="8.92593">
        <ele>1024</ele>
        <time>2021-08-03T08:50:14.251Z</time>
      </trkpt>
      <trkpt lat="47.02779" lon="8.92592">
        <ele>1024</ele>
        <time>2021-08-03T08:50:15.251Z</time>
      </trkpt>
      <trkpt lat="47.02778" lon="8.92591">
        <ele>1024</ele>
        <time>2021-08-03T08:50:16.250Z</time>
      </trkpt>
      <trkpt lat="47.02778" lon="8.9259">
        <ele>1025</ele>
        <time>2021-08-03T08:50:17.251Z</time>
      </trkpt>
      <trkpt lat="47.02778" lon="8.92589">
        <ele>1025</ele>
        <time>2021-08-03T08:50:18.250Z</time>
      </trkpt>
      <trkpt lat="47.02778" lon="8.92588">
        <ele>1025</ele>
        <time>2021-08-03T08:50:19.251Z</time>
      </trkpt>
      <trkpt lat="47.02778" lon="8.92587">
        <ele>1025</ele>
        <time>2021-08-03T08:50:20.250Z</time>
      </trkpt>
      <trkpt lat="47.02777" lon="8.92586">
        <ele>1025</ele>
        <time>2021-08-03T08:50:21.251Z</time>
      </trkpt>
      <trkpt lat="47.02777" lon="8.92585">
        <ele>1024</ele>
        <time>2021-08-03T08:50:22.251Z</time>
      </trkpt>
      <trkpt lat="47.02777" lon="8.92584">
        <ele>1024</ele>
        <time>2021-08-03T08:50:23.251Z</time>
      </trkpt>
      <trkpt lat="47.02776" lon="8.92583">
        <ele>1024</ele>
        <time>2021-08-03T08:50:24.251Z</time>
      </trkpt>
      <trkpt lat="47.02775" lon="8.92582">
        <ele>1024</ele>
        <time>2021-08-03T08:50:25.251Z</time>
      </trkpt>
      <trkpt lat="47.02775" lon="8.92581">
        <ele>1024</ele>
        <time>2021-08-03T08:50:26.250Z</time>
      </trkpt>
      <trkpt lat="47.02775" lon="8.9258">
        <ele>1024</ele>
        <time>2021-08-03T08:50:27.251Z</time>
      </trkpt>
      <trkpt lat="47.02775" lon="8.92579">
        <ele>1024</ele>
        <time>2021-08-03T08:50:28.251Z</time>
      </trkpt>
      <trkpt lat="47.02774" lon="8.92578">
        <ele>1023</ele>
        <time>2021-08-03T08:50:29.250Z</time>
      </trkpt>
      <trkpt lat="47.02774" lon="8.92577">
        <ele>1023</ele>
        <time>2021-08-03T08:50:30.251Z</time>
      </trkpt>
      <trkpt lat="47.02774" lon="8.92577">
        <ele>1023</ele>
        <time>2021-08-03T08:50:31.251Z</time>
      </trkpt>
      <trkpt lat="47.02774" lon="8.92576">
        <ele>1023</ele>
        <time>2021-08-03T08:50:32.250Z</time>
      </trkpt>
      <trkpt lat="47.02774" lon="8.92575">
        <ele>1024</ele>
        <time>2021-08-03T08:50:33.251Z</time>
      </trkpt>
      <trkpt lat="47.02773" lon="8.92574">
        <ele>1024</ele>
        <time>2021-08-03T08:50:34.250Z</time>
      </trkpt>
      <trkpt lat="47.02773" lon="8.92573">
        <ele>1024</ele>
        <time>2021-08-03T08:50:35.251Z</time>
      </trkpt>
      <trkpt lat="47.02773" lon="8.92573">
        <ele>1024</ele>
        <time>2021-08-03T08:50:36.250Z</time>
      </trkpt>
      <trkpt lat="47.02772" lon="8.92573">
        <ele>1024</ele>
        <time>2021-08-03T08:50:37.251Z</time>
      </trkpt>
      <trkpt lat="47.02772" lon="8.92572">
        <ele>1024</ele>
        <time>2021-08-03T08:50:38.251Z</time>
      </trkpt>
      <trkpt lat="47.02772" lon="8.92571">
        <ele>1024</ele>
        <time>2021-08-03T08:50:39.251Z</time>
      </trkpt>
      <trkpt lat="47.02772" lon="8.9257">
        <ele>1024</ele>
        <time>2021-08-03T08:50:40.251Z</time>
      </trkpt>
      <trkpt lat="47.02771" lon="8.9257">
        <ele>1024</ele>
        <time>2021-08-03T08:50:41.250Z</time>
      </trkpt>
      <trkpt lat="47.02771" lon="8.92569">
        <ele>1024</ele>
        <time>2021-08-03T08:50:42.250Z</time>
      </trkpt>
      <trkpt lat="47.02771" lon="8.92568">
        <ele>1024</ele>
        <time>2021-08-03T08:50:43.250Z</time>
      </trkpt>
      <trkpt lat="47.02771" lon="8.92567">
        <ele>1024</ele>
        <time>2021-08-03T08:50:44.250Z</time>
      </trkpt>
      <trkpt lat="47.02771" lon="8.92566">
        <ele>1024</ele>
        <time>2021-08-03T08:50:45.251Z</time>
      </trkpt>
      <trkpt lat="47.02771" lon="8.92566">
        <ele>1024</ele>
        <time>2021-08-03T08:50:46.250Z</time>
      </trkpt>
      <trkpt lat="47.0277" lon="8.92565">
        <ele>1024</ele>
        <time>2021-08-03T08:50:47.250Z</time>
      </trkpt>
      <trkpt lat="47.0277" lon="8.92564">
        <ele>1024</ele>
        <time>2021-08-03T08:50:48.250Z</time>
      </trkpt>
      <trkpt lat="47.02769" lon="8.92563">
        <ele>1024</ele>
        <time>2021-08-03T08:50:49.250Z</time>
      </trkpt>
      <trkpt lat="47.02769" lon="8.92562">
        <ele>1025</ele>
        <time>2021-08-03T08:50:50.250Z</time>
      </trkpt>
      <trkpt lat="47.02769" lon="8.92561">
        <ele>1025</ele>
        <time>2021-08-03T08:50:51.251Z</time>
      </trkpt>
      <trkpt lat="47.02769" lon="8.92561">
        <ele>1024</ele>
        <time>2021-08-03T08:50:52.251Z</time>
      </trkpt>
      <trkpt lat="47.02768" lon="8.9256">
        <ele>1024</ele>
        <time>2021-08-03T08:50:53.251Z</time>
      </trkpt>
      <trkpt lat="47.02768" lon="8.92559">
        <ele>1024</ele>
        <time>2021-08-03T08:50:54.251Z</time>
      </trkpt>
      <trkpt lat="47.02768" lon="8.92558">
        <ele>1024</ele>
        <time>2021-08-03T08:50:55.251Z</time>
      </trkpt>
      <trkpt lat="47.02768" lon="8.92557">
        <ele>1024</ele>
        <time>2021-08-03T08:50:56.251Z</time>
      </trkpt>
      <trkpt lat="47.02768" lon="8.92556">
        <ele>1024</ele>
        <time>2021-08-03T08:50:57.250Z</time>
      </trkpt>
      <trkpt lat="47.02768" lon="8.92555">
        <ele>1024</ele>
        <time>2021-08-03T08:50:58.250Z</time>
      </trkpt>
      <trkpt lat="47.02768" lon="8.92555">
        <ele>1024</ele>
        <time>2021-08-03T08:50:59.250Z</time>
      </trkpt>
      <trkpt lat="47.02768" lon="8.92554">
        <ele>1024</ele>
        <time>2021-08-03T08:51:00.251Z</time>
      </trkpt>
      <trkpt lat="47.02767" lon="8.92553">
        <ele>1024</ele>
        <time>2021-08-03T08:51:01.251Z</time>
      </trkpt>
      <trkpt lat="47.02767" lon="8.92552">
        <ele>1024</ele>
        <time>2021-08-03T08:51:02.251Z</time>
      </trkpt>
      <trkpt lat="47.02766" lon="8.92551">
        <ele>1024</ele>
        <time>2021-08-03T08:51:03.251Z</time>
      </trkpt>
      <trkpt lat="47.02766" lon="8.9255">
        <ele>1023</ele>
        <time>2021-08-03T08:51:04.251Z</time>
      </trkpt>
      <trkpt lat="47.02766" lon="8.92548">
        <ele>1024</ele>
        <time>2021-08-03T08:51:05.250Z</time>
      </trkpt>
      <trkpt lat="47.02766" lon="8.92547">
        <ele>1024</ele>
        <time>2021-08-03T08:51:06.250Z</time>
      </trkpt>
      <trkpt lat="47.02766" lon="8.92546">
        <ele>1024</ele>
        <time>2021-08-03T08:51:07.251Z</time>
      </trkpt>
      <trkpt lat="47.02766" lon="8.92546">
        <ele>1025</ele>
        <time>2021-08-03T08:51:08.251Z</time>
      </trkpt>
      <trkpt lat="47.02766" lon="8.92545">
        <ele>1025</ele>
        <time>2021-08-03T08:51:09.251Z</time>
      </trkpt>
      <trkpt lat="47.02766" lon="8.92544">
        <ele>1026</ele>
        <time>2021-08-03T08:51:10.251Z</time>
      </trkpt>
      <trkpt lat="47.02766" lon="8.92542">
        <ele>1026</ele>
        <time>2021-08-03T08:51:11.251Z</time>
      </trkpt>
      <trkpt lat="47.02766" lon="8.92541">
        <ele>1027</ele>
        <time>2021-08-03T08:51:12.250Z</time>
      </trkpt>
      <trkpt lat="47.02767" lon="8.92541">
        <ele>1027</ele>
        <time>2021-08-03T08:51:13.251Z</time>
      </trkpt>
      <trkpt lat="47.02767" lon="8.9254">
        <ele>1028</ele>
        <time>2021-08-03T08:51:14.251Z</time>
      </trkpt>
      <trkpt lat="47.02767" lon="8.9254">
        <ele>1028</ele>
        <time>2021-08-03T08:51:15.251Z</time>
      </trkpt>
      <trkpt lat="47.02767" lon="8.92539">
        <ele>1028</ele>
        <time>2021-08-03T08:51:16.251Z</time>
      </trkpt>
      <trkpt lat="47.02767" lon="8.92538">
        <ele>1028</ele>
        <time>2021-08-03T08:51:17.251Z</time>
      </trkpt>
      <trkpt lat="47.02768" lon="8.92538">
        <ele>1028</ele>
        <time>2021-08-03T08:51:18.251Z</time>
      </trkpt>
      <trkpt lat="47.02768" lon="8.92537">
        <ele>1028</ele>
        <time>2021-08-03T08:51:19.250Z</time>
      </trkpt>
      <trkpt lat="47.02768" lon="8.92537">
        <ele>1028</ele>
        <time>2021-08-03T08:51:20.250Z</time>
      </trkpt>
      <trkpt lat="47.02768" lon="8.92536">
        <ele>1027</ele>
        <time>2021-08-03T08:51:21.250Z</time>
      </trkpt>
      <trkpt lat="47.02769" lon="8.92536">
        <ele>1027</ele>
        <time>2021-08-03T08:51:22.250Z</time>
      </trkpt>
      <trkpt lat="47.02769" lon="8.92535">
        <ele>1026</ele>
        <time>2021-08-03T08:51:23.251Z</time>
      </trkpt>
      <trkpt lat="47.02769" lon="8.92534">
        <ele>1025</ele>
        <time>2021-08-03T08:51:24.251Z</time>
      </trkpt>
      <trkpt lat="47.0277" lon="8.92534">
        <ele>1025</ele>
        <time>2021-08-03T08:51:25.250Z</time>
      </trkpt>
      <trkpt lat="47.0277" lon="8.92533">
        <ele>1025</ele>
        <time>2021-08-03T08:51:26.251Z</time>
      </trkpt>
      <trkpt lat="47.0277" lon="8.92532">
        <ele>1025</ele>
        <time>2021-08-03T08:51:27.251Z</time>
      </trkpt>
      <trkpt lat="47.02771" lon="8.92532">
        <ele>1025</ele>
        <time>2021-08-03T08:51:28.250Z</time>
      </trkpt>
      <trkpt lat="47.02771" lon="8.92532">
        <ele>1025</ele>
        <time>2021-08-03T08:51:29.251Z</time>
      </trkpt>
      <trkpt lat="47.02777" lon="8.92533">
        <ele>1029</ele>
        <time>2021-08-03T08:51:30.251Z</time>
      </trkpt>
      <trkpt lat="47.02777" lon="8.92534">
        <ele>1029</ele>
        <time>2021-08-03T08:51:31.252Z</time>
      </trkpt>
      <trkpt lat="47.02776" lon="8.92534">
        <ele>1035</ele>
        <time>2021-08-03T08:51:32.252Z</time>
      </trkpt>
      <trkpt lat="47.02776" lon="8.92533">
        <ele>1035</ele>
        <time>2021-08-03T08:51:33.252Z</time>
      </trkpt>
      <trkpt lat="47.02776" lon="8.92532">
        <ele>1035</ele>
        <time>2021-08-03T08:51:34.251Z</time>
      </trkpt>
      <trkpt lat="47.02774" lon="8.92531">
        <ele>1035</ele>
        <time>2021-08-03T08:51:35.251Z</time>
      </trkpt>
      <trkpt lat="47.02773" lon="8.92529">
        <ele>1035</ele>
        <time>2021-08-03T08:51:36.251Z</time>
      </trkpt>
      <trkpt lat="47.02773" lon="8.92528">
        <ele>1034</ele>
        <time>2021-08-03T08:51:37.251Z</time>
      </trkpt>
      <trkpt lat="47.02773" lon="8.92527">
        <ele>1034</ele>
        <time>2021-08-03T08:51:38.251Z</time>
      </trkpt>
      <trkpt lat="47.02772" lon="8.92525">
        <ele>1034</ele>
        <time>2021-08-03T08:51:39.252Z</time>
      </trkpt>
      <trkpt lat="47.02772" lon="8.92524">
        <ele>1034</ele>
        <time>2021-08-03T08:51:40.252Z</time>
      </trkpt>
      <trkpt lat="47.02771" lon="8.92522">
        <ele>1034</ele>
        <time>2021-08-03T08:51:41.252Z</time>
      </trkpt>
      <trkpt lat="47.02771" lon="8.92521">
        <ele>1034</ele>
        <time>2021-08-03T08:51:42.252Z</time>
      </trkpt>
      <trkpt lat="47.02771" lon="8.92519">
        <ele>1034</ele>
        <time>2021-08-03T08:51:43.252Z</time>
      </trkpt>
      <trkpt lat="47.02771" lon="8.92518">
        <ele>1034</ele>
        <time>2021-08-03T08:51:44.252Z</time>
      </trkpt>
      <trkpt lat="47.02771" lon="8.92517">
        <ele>1034</ele>
        <time>2021-08-03T08:51:45.252Z</time>
      </trkpt>
      <trkpt lat="47.02771" lon="8.92515">
        <ele>1035</ele>
        <time>2021-08-03T08:51:46.251Z</time>
      </trkpt>
      <trkpt lat="47.02772" lon="8.92513">
        <ele>1035</ele>
        <time>2021-08-03T08:51:47.252Z</time>
      </trkpt>
      <trkpt lat="47.02771" lon="8.92512">
        <ele>1035</ele>
        <time>2021-08-03T08:51:48.251Z</time>
      </trkpt>
      <trkpt lat="47.02771" lon="8.9251">
        <ele>1035</ele>
        <time>2021-08-03T08:51:49.252Z</time>
      </trkpt>
      <trkpt lat="47.02772" lon="8.92509">
        <ele>1035</ele>
        <time>2021-08-03T08:51:50.252Z</time>
      </trkpt>
      <trkpt lat="47.02772" lon="8.92508">
        <ele>1035</ele>
        <time>2021-08-03T08:51:51.251Z</time>
      </trkpt>
      <trkpt lat="47.02772" lon="8.92507">
        <ele>1035</ele>
        <time>2021-08-03T08:51:52.252Z</time>
      </trkpt>
      <trkpt lat="47.02772" lon="8.92505">
        <ele>1036</ele>
        <time>2021-08-03T08:51:53.252Z</time>
      </trkpt>
      <trkpt lat="47.02772" lon="8.92504">
        <ele>1036</ele>
        <time>2021-08-03T08:51:54.251Z</time>
      </trkpt>
      <trkpt lat="47.02772" lon="8.92503">
        <ele>1037</ele>
        <time>2021-08-03T08:51:55.252Z</time>
      </trkpt>
      <trkpt lat="47.02772" lon="8.92503">
        <ele>1037</ele>
        <time>2021-08-03T08:51:56.251Z</time>
      </trkpt>
      <trkpt lat="47.02772" lon="8.92502">
        <ele>1037</ele>
        <time>2021-08-03T08:51:57.252Z</time>
      </trkpt>
      <trkpt lat="47.02772" lon="8.92501">
        <ele>1037</ele>
        <time>2021-08-03T08:51:58.252Z</time>
      </trkpt>
      <trkpt lat="47.02773" lon="8.925">
        <ele>1037</ele>
        <time>2021-08-03T08:51:59.251Z</time>
      </trkpt>
      <trkpt lat="47.02773" lon="8.92499">
        <ele>1037</ele>
        <time>2021-08-03T08:52:00.252Z</time>
      </trkpt>
      <trkpt lat="47.02773" lon="8.92498">
        <ele>1037</ele>
        <time>2021-08-03T08:52:01.252Z</time>
      </trkpt>
      <trkpt lat="47.02773" lon="8.92497">
        <ele>1037</ele>
        <time>2021-08-03T08:52:02.251Z</time>
      </trkpt>
      <trkpt lat="47.02774" lon="8.92496">
        <ele>1037</ele>
        <time>2021-08-03T08:52:03.251Z</time>
      </trkpt>
      <trkpt lat="47.02775" lon="8.92494">
        <ele>1037</ele>
        <time>2021-08-03T08:52:04.252Z</time>
      </trkpt>
      <trkpt lat="47.02775" lon="8.92493">
        <ele>1037</ele>
        <time>2021-08-03T08:52:05.251Z</time>
      </trkpt>
      <trkpt lat="47.02775" lon="8.92492">
        <ele>1037</ele>
        <time>2021-08-03T08:52:06.252Z</time>
      </trkpt>
      <trkpt lat="47.02776" lon="8.92491">
        <ele>1036</ele>
        <time>2021-08-03T08:52:07.252Z</time>
      </trkpt>
      <trkpt lat="47.02776" lon="8.9249">
        <ele>1036</ele>
        <time>2021-08-03T08:52:08.251Z</time>
      </trkpt>
      <trkpt lat="47.02777" lon="8.92489">
        <ele>1035</ele>
        <time>2021-08-03T08:52:09.252Z</time>
      </trkpt>
      <trkpt lat="47.02777" lon="8.92489">
        <ele>1035</ele>
        <time>2021-08-03T08:52:10.252Z</time>
      </trkpt>
      <trkpt lat="47.02777" lon="8.92488">
        <ele>1035</ele>
        <time>2021-08-03T08:52:11.252Z</time>
      </trkpt>
      <trkpt lat="47.02775" lon="8.92494">
        <ele>1033</ele>
        <time>2021-08-03T08:52:12.253Z</time>
      </trkpt>
      <trkpt lat="47.02775" lon="8.92493">
        <ele>1033</ele>
        <time>2021-08-03T08:52:13.255Z</time>
      </trkpt>
      <trkpt lat="47.02775" lon="8.92492">
        <ele>1033</ele>
        <time>2021-08-03T08:52:14.254Z</time>
      </trkpt>
      <trkpt lat="47.02776" lon="8.92492">
        <ele>1033</ele>
        <time>2021-08-03T08:52:15.254Z</time>
      </trkpt>
      <trkpt lat="47.02777" lon="8.9249">
        <ele>1034</ele>
        <time>2021-08-03T08:52:16.255Z</time>
      </trkpt>
      <trkpt lat="47.02781" lon="8.92486">
        <ele>1034</ele>
        <time>2021-08-03T08:52:17.256Z</time>
      </trkpt>
      <trkpt lat="47.02781" lon="8.92486">
        <ele>1034</ele>
        <time>2021-08-03T08:52:18.255Z</time>
      </trkpt>
      <trkpt lat="47.02781" lon="8.92487">
        <ele>1033</ele>
        <time>2021-08-03T08:52:19.255Z</time>
      </trkpt>
      <trkpt lat="47.02782" lon="8.92488">
        <ele>1033</ele>
        <time>2021-08-03T08:52:20.255Z</time>
      </trkpt>
      <trkpt lat="47.02782" lon="8.92489">
        <ele>1032</ele>
        <time>2021-08-03T08:52:21.255Z</time>
      </trkpt>
      <trkpt lat="47.02782" lon="8.9249">
        <ele>1031</ele>
        <time>2021-08-03T08:52:22.256Z</time>
      </trkpt>
      <trkpt lat="47.02783" lon="8.92492">
        <ele>1031</ele>
        <time>2021-08-03T08:52:23.256Z</time>
      </trkpt>
      <trkpt lat="47.02783" lon="8.92494">
        <ele>1030</ele>
        <time>2021-08-03T08:52:24.256Z</time>
      </trkpt>
      <trkpt lat="47.02783" lon="8.92495">
        <ele>1030</ele>
        <time>2021-08-03T08:52:25.255Z</time>
      </trkpt>
      <trkpt lat="47.02784" lon="8.92496">
        <ele>1030</ele>
        <time>2021-08-03T08:52:26.256Z</time>
      </trkpt>
      <trkpt lat="47.02784" lon="8.92497">
        <ele>1029</ele>
        <time>2021-08-03T08:52:27.256Z</time>
      </trkpt>
      <trkpt lat="47.02785" lon="8.92499">
        <ele>1029</ele>
        <time>2021-08-03T08:52:28.255Z</time>
      </trkpt>
      <trkpt lat="47.02785" lon="8.925">
        <ele>1028</ele>
        <time>2021-08-03T08:52:29.256Z</time>
      </trkpt>
      <trkpt lat="47.02786" lon="8.92501">
        <ele>1028</ele>
        <time>2021-08-03T08:52:30.256Z</time>
      </trkpt>
      <trkpt lat="47.02787" lon="8.92502">
        <ele>1028</ele>
        <time>2021-08-03T08:52:31.256Z</time>
      </trkpt>
      <trkpt lat="47.02788" lon="8.92504">
        <ele>1028</ele>
        <time>2021-08-03T08:52:32.256Z</time>
      </trkpt>
      <trkpt lat="47.02788" lon="8.92505">
        <ele>1028</ele>
        <time>2021-08-03T08:52:33.256Z</time>
      </trkpt>
      <trkpt lat="47.02789" lon="8.92505">
        <ele>1028</ele>
        <time>2021-08-03T08:52:34.256Z</time>
      </trkpt>
      <trkpt lat="47.02789" lon="8.92506">
        <ele>1028</ele>
        <time>2021-08-03T08:52:35.256Z</time>
      </trkpt>
      <trkpt lat="47.02789" lon="8.92505">
        <ele>1028</ele>
        <time>2021-08-03T08:52:36.255Z</time>
      </trkpt>
      <trkpt lat="47.02789" lon="8.92501">
        <ele>1031</ele>
        <time>2021-08-03T08:52:37.257Z</time>
      </trkpt>
      <trkpt lat="47.02789" lon="8.92501">
        <ele>1032</ele>
        <time>2021-08-03T08:52:38.256Z</time>
      </trkpt>
      <trkpt lat="47.02789" lon="8.92501">
        <ele>1033</ele>
        <time>2021-08-03T08:52:39.256Z</time>
      </trkpt>
      <trkpt lat="47.02789" lon="8.92501">
        <ele>1033</ele>
        <time>2021-08-03T08:52:40.257Z</time>
      </trkpt>
      <trkpt lat="47.02789" lon="8.925">
        <ele>1034</ele>
        <time>2021-08-03T08:52:41.257Z</time>
      </trkpt>
      <trkpt lat="47.02786" lon="8.92503">
        <ele>1034</ele>
        <time>2021-08-03T08:52:42.258Z</time>
      </trkpt>
      <trkpt lat="47.02786" lon="8.92502">
        <ele>1034</ele>
        <time>2021-08-03T08:52:43.258Z</time>
      </trkpt>
      <trkpt lat="47.02786" lon="8.92502">
        <ele>1035</ele>
        <time>2021-08-03T08:52:44.258Z</time>
      </trkpt>
      <trkpt lat="47.02786" lon="8.92502">
        <ele>1035</ele>
        <time>2021-08-03T08:52:45.257Z</time>
      </trkpt>
      <trkpt lat="47.02786" lon="8.92503">
        <ele>1036</ele>
        <time>2021-08-03T08:52:46.257Z</time>
      </trkpt>
      <trkpt lat="47.02786" lon="8.92503">
        <ele>1037</ele>
        <time>2021-08-03T08:52:47.257Z</time>
      </trkpt>
      <trkpt lat="47.02786" lon="8.92501">
        <ele>1041</ele>
        <time>2021-08-03T08:52:48.259Z</time>
      </trkpt>
      <trkpt lat="47.02786" lon="8.92502">
        <ele>1041</ele>
        <time>2021-08-03T08:52:49.259Z</time>
      </trkpt>
      <trkpt lat="47.02786" lon="8.92503">
        <ele>1041</ele>
        <time>2021-08-03T08:52:50.259Z</time>
      </trkpt>
      <trkpt lat="47.02786" lon="8.92505">
        <ele>1041</ele>
        <time>2021-08-03T08:52:51.259Z</time>
      </trkpt>
      <trkpt lat="47.02786" lon="8.92507">
        <ele>1040</ele>
        <time>2021-08-03T08:52:52.259Z</time>
      </trkpt>
      <trkpt lat="47.02786" lon="8.92509">
        <ele>1040</ele>
        <time>2021-08-03T08:52:53.259Z</time>
      </trkpt>
      <trkpt lat="47.02786" lon="8.9251">
        <ele>1039</ele>
        <time>2021-08-03T08:52:54.258Z</time>
      </trkpt>
      <trkpt lat="47.02787" lon="8.9251">
        <ele>1039</ele>
        <time>2021-08-03T08:52:55.259Z</time>
      </trkpt>
      <trkpt lat="47.02788" lon="8.92511">
        <ele>1038</ele>
        <time>2021-08-03T08:52:56.259Z</time>
      </trkpt>
      <trkpt lat="47.02788" lon="8.92511">
        <ele>1038</ele>
        <time>2021-08-03T08:52:57.258Z</time>
      </trkpt>
      <trkpt lat="47.02788" lon="8.92513">
        <ele>1037</ele>
        <time>2021-08-03T08:52:58.258Z</time>
      </trkpt>
      <trkpt lat="47.02788" lon="8.92515">
        <ele>1037</ele>
        <time>2021-08-03T08:52:59.258Z</time>
      </trkpt>
      <trkpt lat="47.02788" lon="8.92516">
        <ele>1037</ele>
        <time>2021-08-03T08:53:00.259Z</time>
      </trkpt>
      <trkpt lat="47.02788" lon="8.92518">
        <ele>1036</ele>
        <time>2021-08-03T08:53:01.259Z</time>
      </trkpt>
      <trkpt lat="47.02788" lon="8.92519">
        <ele>1036</ele>
        <time>2021-08-03T08:53:02.258Z</time>
      </trkpt>
      <trkpt lat="47.02788" lon="8.9252">
        <ele>1035</ele>
        <time>2021-08-03T08:53:03.258Z</time>
      </trkpt>
      <trkpt lat="47.02789" lon="8.92521">
        <ele>1035</ele>
        <time>2021-08-03T08:53:04.258Z</time>
      </trkpt>
      <trkpt lat="47.02789" lon="8.92523">
        <ele>1035</ele>
        <time>2021-08-03T08:53:05.259Z</time>
      </trkpt>
      <trkpt lat="47.02789" lon="8.92524">
        <ele>1034</ele>
        <time>2021-08-03T08:53:06.259Z</time>
      </trkpt>
      <trkpt lat="47.0279" lon="8.92525">
        <ele>1034</ele>
        <time>2021-08-03T08:53:07.258Z</time>
      </trkpt>
      <trkpt lat="47.0279" lon="8.92526">
        <ele>1034</ele>
        <time>2021-08-03T08:53:08.259Z</time>
      </trkpt>
      <trkpt lat="47.0279" lon="8.92527">
        <ele>1034</ele>
        <time>2021-08-03T08:53:09.259Z</time>
      </trkpt>
      <trkpt lat="47.02791" lon="8.92529">
        <ele>1034</ele>
        <time>2021-08-03T08:53:10.259Z</time>
      </trkpt>
      <trkpt lat="47.02792" lon="8.9253">
        <ele>1034</ele>
        <time>2021-08-03T08:53:11.259Z</time>
      </trkpt>
      <trkpt lat="47.02792" lon="8.9253">
        <ele>1034</ele>
        <time>2021-08-03T08:53:12.259Z</time>
      </trkpt>
      <trkpt lat="47.02793" lon="8.92531">
        <ele>1033</ele>
        <time>2021-08-03T08:53:13.258Z</time>
      </trkpt>
      <trkpt lat="47.02793" lon="8.92532">
        <ele>1033</ele>
        <time>2021-08-03T08:53:14.258Z</time>
      </trkpt>
      <trkpt lat="47.02793" lon="8.92533">
        <ele>1033</ele>
        <time>2021-08-03T08:53:15.259Z</time>
      </trkpt>
      <trkpt lat="47.02794" lon="8.92534">
        <ele>1033</ele>
        <time>2021-08-03T08:53:16.259Z</time>
      </trkpt>
      <trkpt lat="47.02795" lon="8.92534">
        <ele>1034</ele>
        <time>2021-08-03T08:53:17.259Z</time>
      </trkpt>
      <trkpt lat="47.02795" lon="8.92534">
        <ele>1034</ele>
        <time>2021-08-03T08:53:18.259Z</time>
      </trkpt>
      <trkpt lat="47.02795" lon="8.92535">
        <ele>1034</ele>
        <time>2021-08-03T08:53:19.259Z</time>
      </trkpt>
      <trkpt lat="47.02796" lon="8.92536">
        <ele>1034</ele>
        <time>2021-08-03T08:53:20.259Z</time>
      </trkpt>
      <trkpt lat="47.02796" lon="8.92537">
        <ele>1034</ele>
        <time>2021-08-03T08:53:21.259Z</time>
      </trkpt>
      <trkpt lat="47.02797" lon="8.92538">
        <ele>1034</ele>
        <time>2021-08-03T08:53:22.259Z</time>
      </trkpt>
      <trkpt lat="47.02797" lon="8.92538">
        <ele>1034</ele>
        <time>2021-08-03T08:53:23.259Z</time>
      </trkpt>
      <trkpt lat="47.02798" lon="8.92539">
        <ele>1034</ele>
        <time>2021-08-03T08:53:24.258Z</time>
      </trkpt>
      <trkpt lat="47.02798" lon="8.92539">
        <ele>1034</ele>
        <time>2021-08-03T08:53:25.258Z</time>
      </trkpt>
      <trkpt lat="47.02798" lon="8.9254">
        <ele>1034</ele>
        <time>2021-08-03T08:53:26.259Z</time>
      </trkpt>
      <trkpt lat="47.02799" lon="8.92541">
        <ele>1034</ele>
        <time>2021-08-03T08:53:27.258Z</time>
      </trkpt>
      <trkpt lat="47.028" lon="8.92543">
        <ele>1034</ele>
        <time>2021-08-03T08:53:28.259Z</time>
      </trkpt>
      <trkpt lat="47.028" lon="8.92544">
        <ele>1034</ele>
        <time>2021-08-03T08:53:29.258Z</time>
      </trkpt>
      <trkpt lat="47.02801" lon="8.92545">
        <ele>1035</ele>
        <time>2021-08-03T08:53:30.258Z</time>
      </trkpt>
      <trkpt lat="47.02802" lon="8.92546">
        <ele>1035</ele>
        <time>2021-08-03T08:53:31.258Z</time>
      </trkpt>
      <trkpt lat="47.02803" lon="8.92546">
        <ele>1035</ele>
        <time>2021-08-03T08:53:32.258Z</time>
      </trkpt>
      <trkpt lat="47.02804" lon="8.92547">
        <ele>1035</ele>
        <time>2021-08-03T08:53:33.258Z</time>
      </trkpt>
      <trkpt lat="47.02805" lon="8.92548">
        <ele>1036</ele>
        <time>2021-08-03T08:53:34.259Z</time>
      </trkpt>
      <trkpt lat="47.02806" lon="8.92549">
        <ele>1036</ele>
        <time>2021-08-03T08:53:35.258Z</time>
      </trkpt>
      <trkpt lat="47.02806" lon="8.92549">
        <ele>1036</ele>
        <time>2021-08-03T08:53:36.259Z</time>
      </trkpt>
      <trkpt lat="47.02807" lon="8.92551">
        <ele>1036</ele>
        <time>2021-08-03T08:53:37.258Z</time>
      </trkpt>
      <trkpt lat="47.02808" lon="8.92552">
        <ele>1036</ele>
        <time>2021-08-03T08:53:38.258Z</time>
      </trkpt>
      <trkpt lat="47.02808" lon="8.92553">
        <ele>1036</ele>
        <time>2021-08-03T08:53:39.259Z</time>
      </trkpt>
      <trkpt lat="47.02809" lon="8.92554">
        <ele>1036</ele>
        <time>2021-08-03T08:53:40.258Z</time>
      </trkpt>
      <trkpt lat="47.02809" lon="8.92555">
        <ele>1036</ele>
        <time>2021-08-03T08:53:41.258Z</time>
      </trkpt>
      <trkpt lat="47.0281" lon="8.92556">
        <ele>1036</ele>
        <time>2021-08-03T08:53:42.258Z</time>
      </trkpt>
      <trkpt lat="47.02811" lon="8.92557">
        <ele>1035</ele>
        <time>2021-08-03T08:53:43.259Z</time>
      </trkpt>
      <trkpt lat="47.02812" lon="8.92558">
        <ele>1035</ele>
        <time>2021-08-03T08:53:44.258Z</time>
      </trkpt>
      <trkpt lat="47.02812" lon="8.92559">
        <ele>1034</ele>
        <time>2021-08-03T08:53:45.259Z</time>
      </trkpt>
      <trkpt lat="47.02813" lon="8.9256">
        <ele>1035</ele>
        <time>2021-08-03T08:53:46.258Z</time>
      </trkpt>
      <trkpt lat="47.02813" lon="8.92561">
        <ele>1035</ele>
        <time>2021-08-03T08:53:47.258Z</time>
      </trkpt>
      <trkpt lat="47.02813" lon="8.92563">
        <ele>1035</ele>
        <time>2021-08-03T08:53:48.259Z</time>
      </trkpt>
      <trkpt lat="47.02814" lon="8.92564">
        <ele>1035</ele>
        <time>2021-08-03T08:53:49.258Z</time>
      </trkpt>
      <trkpt lat="47.02815" lon="8.92565">
        <ele>1035</ele>
        <time>2021-08-03T08:53:50.258Z</time>
      </trkpt>
      <trkpt lat="47.02816" lon="8.92566">
        <ele>1034</ele>
        <time>2021-08-03T08:53:51.258Z</time>
      </trkpt>
      <trkpt lat="47.02816" lon="8.92567">
        <ele>1034</ele>
        <time>2021-08-03T08:53:52.259Z</time>
      </trkpt>
      <trkpt lat="47.02817" lon="8.92568">
        <ele>1034</ele>
        <time>2021-08-03T08:53:53.259Z</time>
      </trkpt>
      <trkpt lat="47.02818" lon="8.92569">
        <ele>1034</ele>
        <time>2021-08-03T08:53:54.258Z</time>
      </trkpt>
      <trkpt lat="47.02818" lon="8.92569">
        <ele>1035</ele>
        <time>2021-08-03T08:53:55.258Z</time>
      </trkpt>
      <trkpt lat="47.02819" lon="8.9257">
        <ele>1035</ele>
        <time>2021-08-03T08:53:56.258Z</time>
      </trkpt>
      <trkpt lat="47.0282" lon="8.92571">
        <ele>1035</ele>
        <time>2021-08-03T08:53:57.258Z</time>
      </trkpt>
      <trkpt lat="47.0282" lon="8.92571">
        <ele>1035</ele>
        <time>2021-08-03T08:53:58.258Z</time>
      </trkpt>
      <trkpt lat="47.02821" lon="8.92572">
        <ele>1035</ele>
        <time>2021-08-03T08:53:59.258Z</time>
      </trkpt>
      <trkpt lat="47.02822" lon="8.92572">
        <ele>1035</ele>
        <time>2021-08-03T08:54:00.258Z</time>
      </trkpt>
      <trkpt lat="47.02822" lon="8.92573">
        <ele>1035</ele>
        <time>2021-08-03T08:54:01.258Z</time>
      </trkpt>
      <trkpt lat="47.02823" lon="8.92573">
        <ele>1036</ele>
        <time>2021-08-03T08:54:02.258Z</time>
      </trkpt>
      <trkpt lat="47.02824" lon="8.92574">
        <ele>1036</ele>
        <time>2021-08-03T08:54:03.258Z</time>
      </trkpt>
      <trkpt lat="47.02825" lon="8.92575">
        <ele>1036</ele>
        <time>2021-08-03T08:54:04.258Z</time>
      </trkpt>
      <trkpt lat="47.02825" lon="8.92575">
        <ele>1036</ele>
        <time>2021-08-03T08:54:05.258Z</time>
      </trkpt>
      <trkpt lat="47.02826" lon="8.92575">
        <ele>1037</ele>
        <time>2021-08-03T08:54:06.258Z</time>
      </trkpt>
      <trkpt lat="47.02827" lon="8.92575">
        <ele>1038</ele>
        <time>2021-08-03T08:54:07.259Z</time>
      </trkpt>
      <trkpt lat="47.02828" lon="8.92575">
        <ele>1038</ele>
        <time>2021-08-03T08:54:08.259Z</time>
      </trkpt>
      <trkpt lat="47.02829" lon="8.92575">
        <ele>1038</ele>
        <time>2021-08-03T08:54:09.259Z</time>
      </trkpt>
      <trkpt lat="47.0283" lon="8.92574">
        <ele>1038</ele>
        <time>2021-08-03T08:54:10.258Z</time>
      </trkpt>
      <trkpt lat="47.02831" lon="8.92573">
        <ele>1038</ele>
        <time>2021-08-03T08:54:11.259Z</time>
      </trkpt>
      <trkpt lat="47.02832" lon="8.92573">
        <ele>1038</ele>
        <time>2021-08-03T08:54:12.259Z</time>
      </trkpt>
      <trkpt lat="47.02833" lon="8.92572">
        <ele>1038</ele>
        <time>2021-08-03T08:54:13.258Z</time>
      </trkpt>
      <trkpt lat="47.02833" lon="8.92571">
        <ele>1038</ele>
        <time>2021-08-03T08:54:14.259Z</time>
      </trkpt>
      <trkpt lat="47.02833" lon="8.92569">
        <ele>1039</ele>
        <time>2021-08-03T08:54:15.259Z</time>
      </trkpt>
      <trkpt lat="47.02834" lon="8.92568">
        <ele>1039</ele>
        <time>2021-08-03T08:54:16.258Z</time>
      </trkpt>
      <trkpt lat="47.02834" lon="8.92567">
        <ele>1039</ele>
        <time>2021-08-03T08:54:17.258Z</time>
      </trkpt>
      <trkpt lat="47.02835" lon="8.92565">
        <ele>1040</ele>
        <time>2021-08-03T08:54:18.259Z</time>
      </trkpt>
      <trkpt lat="47.02836" lon="8.92564">
        <ele>1040</ele>
        <time>2021-08-03T08:54:19.258Z</time>
      </trkpt>
      <trkpt lat="47.02836" lon="8.92563">
        <ele>1041</ele>
        <time>2021-08-03T08:54:20.258Z</time>
      </trkpt>
      <trkpt lat="47.02836" lon="8.92561">
        <ele>1041</ele>
        <time>2021-08-03T08:54:21.259Z</time>
      </trkpt>
      <trkpt lat="47.02835" lon="8.92559">
        <ele>1041</ele>
        <time>2021-08-03T08:54:22.259Z</time>
      </trkpt>
      <trkpt lat="47.02836" lon="8.92557">
        <ele>1041</ele>
        <time>2021-08-03T08:54:23.259Z</time>
      </trkpt>
      <trkpt lat="47.02835" lon="8.92555">
        <ele>1042</ele>
        <time>2021-08-03T08:54:24.259Z</time>
      </trkpt>
      <trkpt lat="47.02835" lon="8.92553">
        <ele>1042</ele>
        <time>2021-08-03T08:54:25.259Z</time>
      </trkpt>
      <trkpt lat="47.02835" lon="8.92551">
        <ele>1043</ele>
        <time>2021-08-03T08:54:26.259Z</time>
      </trkpt>
      <trkpt lat="47.02834" lon="8.92549">
        <ele>1043</ele>
        <time>2021-08-03T08:54:27.258Z</time>
      </trkpt>
      <trkpt lat="47.02834" lon="8.92547">
        <ele>1043</ele>
        <time>2021-08-03T08:54:28.259Z</time>
      </trkpt>
      <trkpt lat="47.02835" lon="8.92546">
        <ele>1044</ele>
        <time>2021-08-03T08:54:29.259Z</time>
      </trkpt>
      <trkpt lat="47.02834" lon="8.92545">
        <ele>1044</ele>
        <time>2021-08-03T08:54:30.258Z</time>
      </trkpt>
      <trkpt lat="47.02834" lon="8.92544">
        <ele>1045</ele>
        <time>2021-08-03T08:54:31.258Z</time>
      </trkpt>
      <trkpt lat="47.02833" lon="8.92544">
        <ele>1046</ele>
        <time>2021-08-03T08:54:32.258Z</time>
      </trkpt>
      <trkpt lat="47.02833" lon="8.92544">
        <ele>1046</ele>
        <time>2021-08-03T08:54:33.258Z</time>
      </trkpt>
      <trkpt lat="47.02832" lon="8.92544">
        <ele>1046</ele>
        <time>2021-08-03T08:54:34.258Z</time>
      </trkpt>
      <trkpt lat="47.02832" lon="8.92544">
        <ele>1044</ele>
        <time>2021-08-03T08:54:35.258Z</time>
      </trkpt>
      <trkpt lat="47.02832" lon="8.92544">
        <ele>1044</ele>
        <time>2021-08-03T08:54:36.258Z</time>
      </trkpt>
      <trkpt lat="47.02832" lon="8.92543">
        <ele>1044</ele>
        <time>2021-08-03T08:54:37.258Z</time>
      </trkpt>
      <trkpt lat="47.02832" lon="8.92542">
        <ele>1044</ele>
        <time>2021-08-03T08:54:38.259Z</time>
      </trkpt>
      <trkpt lat="47.02832" lon="8.9254">
        <ele>1044</ele>
        <time>2021-08-03T08:54:39.258Z</time>
      </trkpt>
      <trkpt lat="47.02832" lon="8.92539">
        <ele>1044</ele>
        <time>2021-08-03T08:54:40.259Z</time>
      </trkpt>
      <trkpt lat="47.02832" lon="8.92539">
        <ele>1044</ele>
        <time>2021-08-03T08:54:41.259Z</time>
      </trkpt>
      <trkpt lat="47.02832" lon="8.92538">
        <ele>1044</ele>
        <time>2021-08-03T08:54:42.258Z</time>
      </trkpt>
      <trkpt lat="47.02831" lon="8.92538">
        <ele>1044</ele>
        <time>2021-08-03T08:54:43.259Z</time>
      </trkpt>
      <trkpt lat="47.02831" lon="8.92537">
        <ele>1043</ele>
        <time>2021-08-03T08:54:44.259Z</time>
      </trkpt>
      <trkpt lat="47.02831" lon="8.92536">
        <ele>1043</ele>
        <time>2021-08-03T08:54:45.259Z</time>
      </trkpt>
      <trkpt lat="47.02831" lon="8.92535">
        <ele>1043</ele>
        <time>2021-08-03T08:54:46.259Z</time>
      </trkpt>
      <trkpt lat="47.0283" lon="8.92534">
        <ele>1043</ele>
        <time>2021-08-03T08:54:47.258Z</time>
      </trkpt>
      <trkpt lat="47.0283" lon="8.92533">
        <ele>1043</ele>
        <time>2021-08-03T08:54:48.259Z</time>
      </trkpt>
      <trkpt lat="47.0283" lon="8.92532">
        <ele>1043</ele>
        <time>2021-08-03T08:54:49.259Z</time>
      </trkpt>
      <trkpt lat="47.02829" lon="8.92531">
        <ele>1044</ele>
        <time>2021-08-03T08:54:50.259Z</time>
      </trkpt>
      <trkpt lat="47.0283" lon="8.92529">
        <ele>1044</ele>
        <time>2021-08-03T08:54:51.258Z</time>
      </trkpt>
      <trkpt lat="47.0283" lon="8.92528">
        <ele>1045</ele>
        <time>2021-08-03T08:54:52.259Z</time>
      </trkpt>
      <trkpt lat="47.0283" lon="8.92526">
        <ele>1045</ele>
        <time>2021-08-03T08:54:53.259Z</time>
      </trkpt>
      <trkpt lat="47.02831" lon="8.92525">
        <ele>1045</ele>
        <time>2021-08-03T08:54:54.259Z</time>
      </trkpt>
      <trkpt lat="47.0283" lon="8.92523">
        <ele>1045</ele>
        <time>2021-08-03T08:54:55.259Z</time>
      </trkpt>
      <trkpt lat="47.02829" lon="8.92522">
        <ele>1045</ele>
        <time>2021-08-03T08:54:56.259Z</time>
      </trkpt>
      <trkpt lat="47.02829" lon="8.9252">
        <ele>1044</ele>
        <time>2021-08-03T08:54:57.259Z</time>
      </trkpt>
      <trkpt lat="47.02829" lon="8.92519">
        <ele>1044</ele>
        <time>2021-08-03T08:54:58.259Z</time>
      </trkpt>
      <trkpt lat="47.02829" lon="8.92518">
        <ele>1044</ele>
        <time>2021-08-03T08:54:59.259Z</time>
      </trkpt>
      <trkpt lat="47.02829" lon="8.92518">
        <ele>1044</ele>
        <time>2021-08-03T08:55:00.259Z</time>
      </trkpt>
      <trkpt lat="47.02829" lon="8.92517">
        <ele>1044</ele>
        <time>2021-08-03T08:55:01.258Z</time>
      </trkpt>
      <trkpt lat="47.02829" lon="8.92515">
        <ele>1044</ele>
        <time>2021-08-03T08:55:02.259Z</time>
      </trkpt>
      <trkpt lat="47.02829" lon="8.92514">
        <ele>1044</ele>
        <time>2021-08-03T08:55:03.258Z</time>
      </trkpt>
      <trkpt lat="47.02829" lon="8.92513">
        <ele>1044</ele>
        <time>2021-08-03T08:55:04.258Z</time>
      </trkpt>
      <trkpt lat="47.02829" lon="8.92512">
        <ele>1044</ele>
        <time>2021-08-03T08:55:05.259Z</time>
      </trkpt>
      <trkpt lat="47.02829" lon="8.92511">
        <ele>1044</ele>
        <time>2021-08-03T08:55:06.258Z</time>
      </trkpt>
      <trkpt lat="47.02828" lon="8.92511">
        <ele>1045</ele>
        <time>2021-08-03T08:55:07.258Z</time>
      </trkpt>
      <trkpt lat="47.02828" lon="8.9251">
        <ele>1045</ele>
        <time>2021-08-03T08:55:08.258Z</time>
      </trkpt>
      <trkpt lat="47.02827" lon="8.92509">
        <ele>1045</ele>
        <time>2021-08-03T08:55:09.258Z</time>
      </trkpt>
      <trkpt lat="47.02827" lon="8.92507">
        <ele>1045</ele>
        <time>2021-08-03T08:55:10.259Z</time>
      </trkpt>
      <trkpt lat="47.02827" lon="8.92505">
        <ele>1046</ele>
        <time>2021-08-03T08:55:11.259Z</time>
      </trkpt>
      <trkpt lat="47.02827" lon="8.92504">
        <ele>1046</ele>
        <time>2021-08-03T08:55:12.258Z</time>
      </trkpt>
      <trkpt lat="47.02827" lon="8.92502">
        <ele>1046</ele>
        <time>2021-08-03T08:55:13.259Z</time>
      </trkpt>
      <trkpt lat="47.02827" lon="8.925">
        <ele>1046</ele>
        <time>2021-08-03T08:55:14.259Z</time>
      </trkpt>
      <trkpt lat="47.02827" lon="8.92499">
        <ele>1046</ele>
        <time>2021-08-03T08:55:15.259Z</time>
      </trkpt>
      <trkpt lat="47.02827" lon="8.92497">
        <ele>1046</ele>
        <time>2021-08-03T08:55:16.259Z</time>
      </trkpt>
      <trkpt lat="47.02828" lon="8.92495">
        <ele>1046</ele>
        <time>2021-08-03T08:55:17.259Z</time>
      </trkpt>
      <trkpt lat="47.02828" lon="8.92494">
        <ele>1047</ele>
        <time>2021-08-03T08:55:18.259Z</time>
      </trkpt>
      <trkpt lat="47.02828" lon="8.92493">
        <ele>1047</ele>
        <time>2021-08-03T08:55:19.259Z</time>
      </trkpt>
      <trkpt lat="47.02828" lon="8.92491">
        <ele>1048</ele>
        <time>2021-08-03T08:55:20.259Z</time>
      </trkpt>
      <trkpt lat="47.02828" lon="8.9249">
        <ele>1048</ele>
        <time>2021-08-03T08:55:21.259Z</time>
      </trkpt>
      <trkpt lat="47.02827" lon="8.92489">
        <ele>1048</ele>
        <time>2021-08-03T08:55:22.259Z</time>
      </trkpt>
      <trkpt lat="47.02827" lon="8.92489">
        <ele>1049</ele>
        <time>2021-08-03T08:55:23.259Z</time>
      </trkpt>
      <trkpt lat="47.02826" lon="8.92488">
        <ele>1049</ele>
        <time>2021-08-03T08:55:24.259Z</time>
      </trkpt>
      <trkpt lat="47.02826" lon="8.92486">
        <ele>1050</ele>
        <time>2021-08-03T08:55:25.258Z</time>
      </trkpt>
      <trkpt lat="47.02826" lon="8.92485">
        <ele>1050</ele>
        <time>2021-08-03T08:55:26.258Z</time>
      </trkpt>
      <trkpt lat="47.02826" lon="8.92485">
        <ele>1050</ele>
        <time>2021-08-03T08:55:27.258Z</time>
      </trkpt>
      <trkpt lat="47.02826" lon="8.92484">
        <ele>1049</ele>
        <time>2021-08-03T08:55:28.258Z</time>
      </trkpt>
      <trkpt lat="47.02826" lon="8.92483">
        <ele>1049</ele>
        <time>2021-08-03T08:55:29.258Z</time>
      </trkpt>
      <trkpt lat="47.02825" lon="8.92482">
        <ele>1049</ele>
        <time>2021-08-03T08:55:30.259Z</time>
      </trkpt>
      <trkpt lat="47.02825" lon="8.92481">
        <ele>1049</ele>
        <time>2021-08-03T08:55:31.258Z</time>
      </trkpt>
      <trkpt lat="47.02825" lon="8.9248">
        <ele>1048</ele>
        <time>2021-08-03T08:55:32.258Z</time>
      </trkpt>
      <trkpt lat="47.02826" lon="8.92479">
        <ele>1048</ele>
        <time>2021-08-03T08:55:33.259Z</time>
      </trkpt>
      <trkpt lat="47.02826" lon="8.92478">
        <ele>1049</ele>
        <time>2021-08-03T08:55:34.258Z</time>
      </trkpt>
      <trkpt lat="47.02826" lon="8.92478">
        <ele>1049</ele>
        <time>2021-08-03T08:55:35.258Z</time>
      </trkpt>
      <trkpt lat="47.02826" lon="8.92477">
        <ele>1049</ele>
        <time>2021-08-03T08:55:36.259Z</time>
      </trkpt>
      <trkpt lat="47.02825" lon="8.92477">
        <ele>1049</ele>
        <time>2021-08-03T08:55:37.258Z</time>
      </trkpt>
      <trkpt lat="47.02825" lon="8.92477">
        <ele>1049</ele>
        <time>2021-08-03T08:55:38.258Z</time>
      </trkpt>
      <trkpt lat="47.02828" lon="8.9248">
        <ele>1051</ele>
        <time>2021-08-03T08:55:39.259Z</time>
      </trkpt>
      <trkpt lat="47.02829" lon="8.9248">
        <ele>1051</ele>
        <time>2021-08-03T08:55:40.259Z</time>
      </trkpt>
      <trkpt lat="47.02828" lon="8.92479">
        <ele>1051</ele>
        <time>2021-08-03T08:55:41.259Z</time>
      </trkpt>
      <trkpt lat="47.02828" lon="8.92478">
        <ele>1051</ele>
        <time>2021-08-03T08:55:42.260Z</time>
      </trkpt>
      <trkpt lat="47.02827" lon="8.92477">
        <ele>1051</ele>
        <time>2021-08-03T08:55:43.259Z</time>
      </trkpt>
      <trkpt lat="47.02826" lon="8.92475">
        <ele>1051</ele>
        <time>2021-08-03T08:55:44.259Z</time>
      </trkpt>
      <trkpt lat="47.02826" lon="8.92474">
        <ele>1052</ele>
        <time>2021-08-03T08:55:45.259Z</time>
      </trkpt>
      <trkpt lat="47.02826" lon="8.92473">
        <ele>1052</ele>
        <time>2021-08-03T08:55:46.259Z</time>
      </trkpt>
      <trkpt lat="47.02826" lon="8.92473">
        <ele>1051</ele>
        <time>2021-08-03T08:55:47.260Z</time>
      </trkpt>
      <trkpt lat="47.02826" lon="8.92473">
        <ele>1051</ele>
        <time>2021-08-03T08:55:48.260Z</time>
      </trkpt>
      <trkpt lat="47.02825" lon="8.92471">
        <ele>1050</ele>
        <time>2021-08-03T08:55:49.262Z</time>
      </trkpt>
      <trkpt lat="47.02825" lon="8.9247">
        <ele>1050</ele>
        <time>2021-08-03T08:55:50.261Z</time>
      </trkpt>
      <trkpt lat="47.02825" lon="8.92469">
        <ele>1051</ele>
        <time>2021-08-03T08:55:51.262Z</time>
      </trkpt>
      <trkpt lat="47.02825" lon="8.92468">
        <ele>1051</ele>
        <time>2021-08-03T08:55:52.262Z</time>
      </trkpt>
      <trkpt lat="47.02825" lon="8.92467">
        <ele>1052</ele>
        <time>2021-08-03T08:55:53.262Z</time>
      </trkpt>
      <trkpt lat="47.02825" lon="8.92466">
        <ele>1052</ele>
        <time>2021-08-03T08:55:54.262Z</time>
      </trkpt>
      <trkpt lat="47.02825" lon="8.92464">
        <ele>1053</ele>
        <time>2021-08-03T08:55:55.261Z</time>
      </trkpt>
      <trkpt lat="47.02825" lon="8.92464">
        <ele>1053</ele>
        <time>2021-08-03T08:55:56.261Z</time>
      </trkpt>
      <trkpt lat="47.02825" lon="8.92462">
        <ele>1053</ele>
        <time>2021-08-03T08:55:57.262Z</time>
      </trkpt>
      <trkpt lat="47.02824" lon="8.92461">
        <ele>1054</ele>
        <time>2021-08-03T08:55:58.261Z</time>
      </trkpt>
      <trkpt lat="47.02823" lon="8.9246">
        <ele>1054</ele>
        <time>2021-08-03T08:55:59.262Z</time>
      </trkpt>
      <trkpt lat="47.02822" lon="8.92458">
        <ele>1055</ele>
        <time>2021-08-03T08:56:00.261Z</time>
      </trkpt>
      <trkpt lat="47.02822" lon="8.92457">
        <ele>1055</ele>
        <time>2021-08-03T08:56:01.261Z</time>
      </trkpt>
      <trkpt lat="47.02822" lon="8.92456">
        <ele>1056</ele>
        <time>2021-08-03T08:56:02.261Z</time>
      </trkpt>
      <trkpt lat="47.02822" lon="8.92455">
        <ele>1056</ele>
        <time>2021-08-03T08:56:03.261Z</time>
      </trkpt>
      <trkpt lat="47.02822" lon="8.92453">
        <ele>1057</ele>
        <time>2021-08-03T08:56:04.262Z</time>
      </trkpt>
      <trkpt lat="47.02821" lon="8.92452">
        <ele>1057</ele>
        <time>2021-08-03T08:56:05.262Z</time>
      </trkpt>
      <trkpt lat="47.02822" lon="8.92451">
        <ele>1057</ele>
        <time>2021-08-03T08:56:06.261Z</time>
      </trkpt>
      <trkpt lat="47.02822" lon="8.9245">
        <ele>1057</ele>
        <time>2021-08-03T08:56:07.261Z</time>
      </trkpt>
      <trkpt lat="47.02822" lon="8.92449">
        <ele>1056</ele>
        <time>2021-08-03T08:56:08.261Z</time>
      </trkpt>
      <trkpt lat="47.02822" lon="8.92448">
        <ele>1056</ele>
        <time>2021-08-03T08:56:09.261Z</time>
      </trkpt>
      <trkpt lat="47.02822" lon="8.92446">
        <ele>1056</ele>
        <time>2021-08-03T08:56:10.261Z</time>
      </trkpt>
      <trkpt lat="47.02822" lon="8.92444">
        <ele>1056</ele>
        <time>2021-08-03T08:56:11.262Z</time>
      </trkpt>
      <trkpt lat="47.02821" lon="8.92443">
        <ele>1055</ele>
        <time>2021-08-03T08:56:12.261Z</time>
      </trkpt>
      <trkpt lat="47.02821" lon="8.92442">
        <ele>1056</ele>
        <time>2021-08-03T08:56:13.261Z</time>
      </trkpt>
      <trkpt lat="47.02821" lon="8.9244">
        <ele>1056</ele>
        <time>2021-08-03T08:56:14.261Z</time>
      </trkpt>
      <trkpt lat="47.02821" lon="8.92439">
        <ele>1056</ele>
        <time>2021-08-03T08:56:15.261Z</time>
      </trkpt>
      <trkpt lat="47.02821" lon="8.92438">
        <ele>1056</ele>
        <time>2021-08-03T08:56:16.261Z</time>
      </trkpt>
      <trkpt lat="47.02821" lon="8.92437">
        <ele>1056</ele>
        <time>2021-08-03T08:56:17.262Z</time>
      </trkpt>
      <trkpt lat="47.02821" lon="8.92436">
        <ele>1057</ele>
        <time>2021-08-03T08:56:18.261Z</time>
      </trkpt>
      <trkpt lat="47.02821" lon="8.92435">
        <ele>1057</ele>
        <time>2021-08-03T08:56:19.261Z</time>
      </trkpt>
      <trkpt lat="47.02821" lon="8.92435">
        <ele>1057</ele>
        <time>2021-08-03T08:56:20.261Z</time>
      </trkpt>
      <trkpt lat="47.02821" lon="8.92434">
        <ele>1057</ele>
        <time>2021-08-03T08:56:21.261Z</time>
      </trkpt>
      <trkpt lat="47.02821" lon="8.92433">
        <ele>1057</ele>
        <time>2021-08-03T08:56:22.261Z</time>
      </trkpt>
      <trkpt lat="47.0282" lon="8.92433">
        <ele>1057</ele>
        <time>2021-08-03T08:56:23.261Z</time>
      </trkpt>
      <trkpt lat="47.0282" lon="8.92432">
        <ele>1057</ele>
        <time>2021-08-03T08:56:24.261Z</time>
      </trkpt>
      <trkpt lat="47.0282" lon="8.92431">
        <ele>1058</ele>
        <time>2021-08-03T08:56:25.262Z</time>
      </trkpt>
      <trkpt lat="47.0282" lon="8.92431">
        <ele>1057</ele>
        <time>2021-08-03T08:56:26.262Z</time>
      </trkpt>
      <trkpt lat="47.0282" lon="8.9243">
        <ele>1057</ele>
        <time>2021-08-03T08:56:27.262Z</time>
      </trkpt>
      <trkpt lat="47.02821" lon="8.92429">
        <ele>1057</ele>
        <time>2021-08-03T08:56:28.261Z</time>
      </trkpt>
      <trkpt lat="47.02821" lon="8.92428">
        <ele>1057</ele>
        <time>2021-08-03T08:56:29.261Z</time>
      </trkpt>
      <trkpt lat="47.02821" lon="8.92427">
        <ele>1057</ele>
        <time>2021-08-03T08:56:30.262Z</time>
      </trkpt>
      <trkpt lat="47.02821" lon="8.92426">
        <ele>1057</ele>
        <time>2021-08-03T08:56:31.262Z</time>
      </trkpt>
      <trkpt lat="47.0282" lon="8.92425">
        <ele>1056</ele>
        <time>2021-08-03T08:56:32.261Z</time>
      </trkpt>
      <trkpt lat="47.0282" lon="8.92424">
        <ele>1056</ele>
        <time>2021-08-03T08:56:33.261Z</time>
      </trkpt>
      <trkpt lat="47.0282" lon="8.92424">
        <ele>1056</ele>
        <time>2021-08-03T08:56:34.261Z</time>
      </trkpt>
      <trkpt lat="47.02819" lon="8.92423">
        <ele>1056</ele>
        <time>2021-08-03T08:56:35.261Z</time>
      </trkpt>
      <trkpt lat="47.02819" lon="8.92422">
        <ele>1057</ele>
        <time>2021-08-03T08:56:36.262Z</time>
      </trkpt>
      <trkpt lat="47.02819" lon="8.92422">
        <ele>1057</ele>
        <time>2021-08-03T08:56:37.262Z</time>
      </trkpt>
      <trkpt lat="47.02819" lon="8.92421">
        <ele>1057</ele>
        <time>2021-08-03T08:56:38.261Z</time>
      </trkpt>
      <trkpt lat="47.02819" lon="8.92419">
        <ele>1057</ele>
        <time>2021-08-03T08:56:39.261Z</time>
      </trkpt>
      <trkpt lat="47.02819" lon="8.92418">
        <ele>1057</ele>
        <time>2021-08-03T08:56:40.261Z</time>
      </trkpt>
      <trkpt lat="47.02819" lon="8.92418">
        <ele>1057</ele>
        <time>2021-08-03T08:56:41.262Z</time>
      </trkpt>
      <trkpt lat="47.02819" lon="8.92417">
        <ele>1057</ele>
        <time>2021-08-03T08:56:42.262Z</time>
      </trkpt>
      <trkpt lat="47.02819" lon="8.92416">
        <ele>1057</ele>
        <time>2021-08-03T08:56:43.262Z</time>
      </trkpt>
      <trkpt lat="47.02819" lon="8.92415">
        <ele>1056</ele>
        <time>2021-08-03T08:56:44.261Z</time>
      </trkpt>
      <trkpt lat="47.02819" lon="8.92414">
        <ele>1056</ele>
        <time>2021-08-03T08:56:45.261Z</time>
      </trkpt>
      <trkpt lat="47.0282" lon="8.92414">
        <ele>1056</ele>
        <time>2021-08-03T08:56:46.261Z</time>
      </trkpt>
      <trkpt lat="47.0282" lon="8.92413">
        <ele>1056</ele>
        <time>2021-08-03T08:56:47.261Z</time>
      </trkpt>
      <trkpt lat="47.0282" lon="8.92412">
        <ele>1056</ele>
        <time>2021-08-03T08:56:48.261Z</time>
      </trkpt>
      <trkpt lat="47.0282" lon="8.92411">
        <ele>1056</ele>
        <time>2021-08-03T08:56:49.262Z</time>
      </trkpt>
      <trkpt lat="47.0282" lon="8.9241">
        <ele>1056</ele>
        <time>2021-08-03T08:56:50.261Z</time>
      </trkpt>
      <trkpt lat="47.0282" lon="8.92409">
        <ele>1056</ele>
        <time>2021-08-03T08:56:51.261Z</time>
      </trkpt>
      <trkpt lat="47.0282" lon="8.92408">
        <ele>1056</ele>
        <time>2021-08-03T08:56:52.261Z</time>
      </trkpt>
      <trkpt lat="47.0282" lon="8.92406">
        <ele>1057</ele>
        <time>2021-08-03T08:56:53.263Z</time>
      </trkpt>
      <trkpt lat="47.0282" lon="8.92404">
        <ele>1057</ele>
        <time>2021-08-03T08:56:54.262Z</time>
      </trkpt>
      <trkpt lat="47.0282" lon="8.92403">
        <ele>1058</ele>
        <time>2021-08-03T08:56:55.262Z</time>
      </trkpt>
      <trkpt lat="47.0282" lon="8.92402">
        <ele>1059</ele>
        <time>2021-08-03T08:56:56.262Z</time>
      </trkpt>
      <trkpt lat="47.0282" lon="8.92401">
        <ele>1059</ele>
        <time>2021-08-03T08:56:57.262Z</time>
      </trkpt>
      <trkpt lat="47.0282" lon="8.92401">
        <ele>1060</ele>
        <time>2021-08-03T08:56:58.262Z</time>
      </trkpt>
      <trkpt lat="47.02819" lon="8.92402">
        <ele>1060</ele>
        <time>2021-08-03T08:56:59.262Z</time>
      </trkpt>
      <trkpt lat="47.02818" lon="8.92402">
        <ele>1061</ele>
        <time>2021-08-03T08:57:00.262Z</time>
      </trkpt>
      <trkpt lat="47.02818" lon="8.92402">
        <ele>1062</ele>
        <time>2021-08-03T08:57:01.263Z</time>
      </trkpt>
      <trkpt lat="47.02818" lon="8.92401">
        <ele>1062</ele>
        <time>2021-08-03T08:57:02.262Z</time>
      </trkpt>
      <trkpt lat="47.02818" lon="8.92402">
        <ele>1063</ele>
        <time>2021-08-03T08:57:03.263Z</time>
      </trkpt>
      <trkpt lat="47.02819" lon="8.92402">
        <ele>1063</ele>
        <time>2021-08-03T08:57:04.262Z</time>
      </trkpt>
      <trkpt lat="47.0282" lon="8.92401">
        <ele>1063</ele>
        <time>2021-08-03T08:57:05.263Z</time>
      </trkpt>
      <trkpt lat="47.0282" lon="8.924">
        <ele>1063</ele>
        <time>2021-08-03T08:57:06.262Z</time>
      </trkpt>
      <trkpt lat="47.02819" lon="8.92399">
        <ele>1063</ele>
        <time>2021-08-03T08:57:07.263Z</time>
      </trkpt>
      <trkpt lat="47.0282" lon="8.92399">
        <ele>1063</ele>
        <time>2021-08-03T08:57:08.263Z</time>
      </trkpt>
      <trkpt lat="47.0282" lon="8.92398">
        <ele>1063</ele>
        <time>2021-08-03T08:57:09.262Z</time>
      </trkpt>
      <trkpt lat="47.02819" lon="8.92396">
        <ele>1062</ele>
        <time>2021-08-03T08:57:10.262Z</time>
      </trkpt>
      <trkpt lat="47.02819" lon="8.92396">
        <ele>1062</ele>
        <time>2021-08-03T08:57:11.263Z</time>
      </trkpt>
      <trkpt lat="47.02819" lon="8.92394">
        <ele>1062</ele>
        <time>2021-08-03T08:57:12.262Z</time>
      </trkpt>
      <trkpt lat="47.0282" lon="8.92393">
        <ele>1062</ele>
        <time>2021-08-03T08:57:13.263Z</time>
      </trkpt>
      <trkpt lat="47.0282" lon="8.92392">
        <ele>1062</ele>
        <time>2021-08-03T08:57:14.263Z</time>
      </trkpt>
      <trkpt lat="47.0282" lon="8.92391">
        <ele>1062</ele>
        <time>2021-08-03T08:57:15.262Z</time>
      </trkpt>
      <trkpt lat="47.0282" lon="8.92389">
        <ele>1062</ele>
        <time>2021-08-03T08:57:16.262Z</time>
      </trkpt>
      <trkpt lat="47.0282" lon="8.92388">
        <ele>1062</ele>
        <time>2021-08-03T08:57:17.262Z</time>
      </trkpt>
      <trkpt lat="47.0282" lon="8.92387">
        <ele>1062</ele>
        <time>2021-08-03T08:57:18.263Z</time>
      </trkpt>
      <trkpt lat="47.0282" lon="8.92385">
        <ele>1062</ele>
        <time>2021-08-03T08:57:19.262Z</time>
      </trkpt>
      <trkpt lat="47.0282" lon="8.92384">
        <ele>1062</ele>
        <time>2021-08-03T08:57:20.262Z</time>
      </trkpt>
      <trkpt lat="47.0282" lon="8.92384">
        <ele>1062</ele>
        <time>2021-08-03T08:57:21.263Z</time>
      </trkpt>
      <trkpt lat="47.0282" lon="8.92383">
        <ele>1062</ele>
        <time>2021-08-03T08:57:22.262Z</time>
      </trkpt>
      <trkpt lat="47.0282" lon="8.92383">
        <ele>1063</ele>
        <time>2021-08-03T08:57:23.262Z</time>
      </trkpt>
      <trkpt lat="47.0282" lon="8.92382">
        <ele>1063</ele>
        <time>2021-08-03T08:57:24.262Z</time>
      </trkpt>
      <trkpt lat="47.0282" lon="8.92382">
        <ele>1064</ele>
        <time>2021-08-03T08:57:25.262Z</time>
      </trkpt>
      <trkpt lat="47.0282" lon="8.9238">
        <ele>1064</ele>
        <time>2021-08-03T08:57:26.262Z</time>
      </trkpt>
      <trkpt lat="47.0282" lon="8.92378">
        <ele>1065</ele>
        <time>2021-08-03T08:57:27.263Z</time>
      </trkpt>
      <trkpt lat="47.02819" lon="8.92377">
        <ele>1065</ele>
        <time>2021-08-03T08:57:28.262Z</time>
      </trkpt>
      <trkpt lat="47.02818" lon="8.92375">
        <ele>1065</ele>
        <time>2021-08-03T08:57:29.262Z</time>
      </trkpt>
      <trkpt lat="47.02818" lon="8.92375">
        <ele>1066</ele>
        <time>2021-08-03T08:57:30.262Z</time>
      </trkpt>
      <trkpt lat="47.02817" lon="8.92374">
        <ele>1065</ele>
        <time>2021-08-03T08:57:31.262Z</time>
      </trkpt>
      <trkpt lat="47.02817" lon="8.92372">
        <ele>1065</ele>
        <time>2021-08-03T08:57:32.263Z</time>
      </trkpt>
      <trkpt lat="47.02817" lon="8.92372">
        <ele>1065</ele>
        <time>2021-08-03T08:57:33.262Z</time>
      </trkpt>
      <trkpt lat="47.02817" lon="8.92371">
        <ele>1065</ele>
        <time>2021-08-03T08:57:34.263Z</time>
      </trkpt>
      <trkpt lat="47.02817" lon="8.9237">
        <ele>1065</ele>
        <time>2021-08-03T08:57:35.263Z</time>
      </trkpt>
      <trkpt lat="47.02817" lon="8.92369">
        <ele>1066</ele>
        <time>2021-08-03T08:57:36.262Z</time>
      </trkpt>
      <trkpt lat="47.02817" lon="8.92368">
        <ele>1066</ele>
        <time>2021-08-03T08:57:37.262Z</time>
      </trkpt>
      <trkpt lat="47.02816" lon="8.92367">
        <ele>1066</ele>
        <time>2021-08-03T08:57:38.263Z</time>
      </trkpt>
      <trkpt lat="47.02816" lon="8.92367">
        <ele>1066</ele>
        <time>2021-08-03T08:57:39.262Z</time>
      </trkpt>
      <trkpt lat="47.02816" lon="8.92365">
        <ele>1066</ele>
        <time>2021-08-03T08:57:40.263Z</time>
      </trkpt>
      <trkpt lat="47.02816" lon="8.92364">
        <ele>1066</ele>
        <time>2021-08-03T08:57:41.262Z</time>
      </trkpt>
      <trkpt lat="47.02815" lon="8.92363">
        <ele>1066</ele>
        <time>2021-08-03T08:57:42.262Z</time>
      </trkpt>
      <trkpt lat="47.02815" lon="8.92362">
        <ele>1066</ele>
        <time>2021-08-03T08:57:43.262Z</time>
      </trkpt>
      <trkpt lat="47.02815" lon="8.92362">
        <ele>1065</ele>
        <time>2021-08-03T08:57:44.262Z</time>
      </trkpt>
      <trkpt lat="47.02814" lon="8.92361">
        <ele>1065</ele>
        <time>2021-08-03T08:57:45.262Z</time>
      </trkpt>
      <trkpt lat="47.02814" lon="8.92361">
        <ele>1064</ele>
        <time>2021-08-03T08:57:46.263Z</time>
      </trkpt>
      <trkpt lat="47.02813" lon="8.9236">
        <ele>1064</ele>
        <time>2021-08-03T08:57:47.262Z</time>
      </trkpt>
      <trkpt lat="47.02813" lon="8.92358">
        <ele>1064</ele>
        <time>2021-08-03T08:57:48.263Z</time>
      </trkpt>
      <trkpt lat="47.02813" lon="8.92357">
        <ele>1064</ele>
        <time>2021-08-03T08:57:49.262Z</time>
      </trkpt>
      <trkpt lat="47.02813" lon="8.92356">
        <ele>1064</ele>
        <time>2021-08-03T08:57:50.262Z</time>
      </trkpt>
      <trkpt lat="47.02812" lon="8.92355">
        <ele>1064</ele>
        <time>2021-08-03T08:57:51.262Z</time>
      </trkpt>
      <trkpt lat="47.02812" lon="8.92354">
        <ele>1064</ele>
        <time>2021-08-03T08:57:52.262Z</time>
      </trkpt>
      <trkpt lat="47.02812" lon="8.92353">
        <ele>1064</ele>
        <time>2021-08-03T08:57:53.262Z</time>
      </trkpt>
      <trkpt lat="47.02812" lon="8.92352">
        <ele>1064</ele>
        <time>2021-08-03T08:57:54.263Z</time>
      </trkpt>
      <trkpt lat="47.02812" lon="8.92351">
        <ele>1065</ele>
        <time>2021-08-03T08:57:55.263Z</time>
      </trkpt>
      <trkpt lat="47.02812" lon="8.9235">
        <ele>1065</ele>
        <time>2021-08-03T08:57:56.262Z</time>
      </trkpt>
      <trkpt lat="47.02812" lon="8.92349">
        <ele>1066</ele>
        <time>2021-08-03T08:57:57.263Z</time>
      </trkpt>
      <trkpt lat="47.02812" lon="8.92348">
        <ele>1066</ele>
        <time>2021-08-03T08:57:58.262Z</time>
      </trkpt>
      <trkpt lat="47.02812" lon="8.92346">
        <ele>1067</ele>
        <time>2021-08-03T08:57:59.262Z</time>
      </trkpt>
      <trkpt lat="47.02812" lon="8.92345">
        <ele>1067</ele>
        <time>2021-08-03T08:58:00.263Z</time>
      </trkpt>
      <trkpt lat="47.02812" lon="8.92343">
        <ele>1067</ele>
        <time>2021-08-03T08:58:01.262Z</time>
      </trkpt>
      <trkpt lat="47.02812" lon="8.92341">
        <ele>1067</ele>
        <time>2021-08-03T08:58:02.262Z</time>
      </trkpt>
      <trkpt lat="47.02812" lon="8.9234">
        <ele>1067</ele>
        <time>2021-08-03T08:58:03.262Z</time>
      </trkpt>
      <trkpt lat="47.02811" lon="8.92339">
        <ele>1067</ele>
        <time>2021-08-03T08:58:04.262Z</time>
      </trkpt>
      <trkpt lat="47.02811" lon="8.92338">
        <ele>1067</ele>
        <time>2021-08-03T08:58:05.262Z</time>
      </trkpt>
      <trkpt lat="47.02811" lon="8.92337">
        <ele>1067</ele>
        <time>2021-08-03T08:58:06.262Z</time>
      </trkpt>
      <trkpt lat="47.02811" lon="8.92336">
        <ele>1067</ele>
        <time>2021-08-03T08:58:07.263Z</time>
      </trkpt>
      <trkpt lat="47.0281" lon="8.92334">
        <ele>1067</ele>
        <time>2021-08-03T08:58:08.263Z</time>
      </trkpt>
      <trkpt lat="47.0281" lon="8.92332">
        <ele>1068</ele>
        <time>2021-08-03T08:58:09.262Z</time>
      </trkpt>
      <trkpt lat="47.02809" lon="8.92331">
        <ele>1068</ele>
        <time>2021-08-03T08:58:10.263Z</time>
      </trkpt>
      <trkpt lat="47.02808" lon="8.9233">
        <ele>1068</ele>
        <time>2021-08-03T08:58:11.262Z</time>
      </trkpt>
      <trkpt lat="47.02808" lon="8.9233">
        <ele>1069</ele>
        <time>2021-08-03T08:58:12.262Z</time>
      </trkpt>
      <trkpt lat="47.02807" lon="8.92328">
        <ele>1069</ele>
        <time>2021-08-03T08:58:13.262Z</time>
      </trkpt>
      <trkpt lat="47.02807" lon="8.92327">
        <ele>1069</ele>
        <time>2021-08-03T08:58:14.263Z</time>
      </trkpt>
      <trkpt lat="47.02807" lon="8.92326">
        <ele>1069</ele>
        <time>2021-08-03T08:58:15.262Z</time>
      </trkpt>
      <trkpt lat="47.02807" lon="8.92325">
        <ele>1069</ele>
        <time>2021-08-03T08:58:16.263Z</time>
      </trkpt>
      <trkpt lat="47.02806" lon="8.92324">
        <ele>1069</ele>
        <time>2021-08-03T08:58:17.262Z</time>
      </trkpt>
      <trkpt lat="47.02805" lon="8.92323">
        <ele>1069</ele>
        <time>2021-08-03T08:58:18.263Z</time>
      </trkpt>
      <trkpt lat="47.02805" lon="8.92322">
        <ele>1069</ele>
        <time>2021-08-03T08:58:19.262Z</time>
      </trkpt>
      <trkpt lat="47.02805" lon="8.92321">
        <ele>1069</ele>
        <time>2021-08-03T08:58:20.263Z</time>
      </trkpt>
      <trkpt lat="47.02805" lon="8.9232">
        <ele>1069</ele>
        <time>2021-08-03T08:58:21.262Z</time>
      </trkpt>
      <trkpt lat="47.02804" lon="8.92319">
        <ele>1069</ele>
        <time>2021-08-03T08:58:22.262Z</time>
      </trkpt>
      <trkpt lat="47.02804" lon="8.92317">
        <ele>1069</ele>
        <time>2021-08-03T08:58:23.263Z</time>
      </trkpt>
      <trkpt lat="47.02803" lon="8.92316">
        <ele>1069</ele>
        <time>2021-08-03T08:58:24.263Z</time>
      </trkpt>
      <trkpt lat="47.02802" lon="8.92315">
        <ele>1069</ele>
        <time>2021-08-03T08:58:25.262Z</time>
      </trkpt>
      <trkpt lat="47.02802" lon="8.92314">
        <ele>1068</ele>
        <time>2021-08-03T08:58:26.262Z</time>
      </trkpt>
      <trkpt lat="47.02802" lon="8.92313">
        <ele>1068</ele>
        <time>2021-08-03T08:58:27.262Z</time>
      </trkpt>
      <trkpt lat="47.02801" lon="8.92312">
        <ele>1068</ele>
        <time>2021-08-03T08:58:28.262Z</time>
      </trkpt>
      <trkpt lat="47.028" lon="8.92311">
        <ele>1067</ele>
        <time>2021-08-03T08:58:29.262Z</time>
      </trkpt>
      <trkpt lat="47.028" lon="8.9231">
        <ele>1067</ele>
        <time>2021-08-03T08:58:30.263Z</time>
      </trkpt>
      <trkpt lat="47.02799" lon="8.92309">
        <ele>1066</ele>
        <time>2021-08-03T08:58:31.262Z</time>
      </trkpt>
      <trkpt lat="47.02799" lon="8.92308">
        <ele>1066</ele>
        <time>2021-08-03T08:58:32.262Z</time>
      </trkpt>
      <trkpt lat="47.02798" lon="8.92307">
        <ele>1066</ele>
        <time>2021-08-03T08:58:33.263Z</time>
      </trkpt>
      <trkpt lat="47.02798" lon="8.92307">
        <ele>1066</ele>
        <time>2021-08-03T08:58:34.262Z</time>
      </trkpt>
      <trkpt lat="47.02797" lon="8.92306">
        <ele>1066</ele>
        <time>2021-08-03T08:58:35.263Z</time>
      </trkpt>
      <trkpt lat="47.02797" lon="8.92306">
        <ele>1066</ele>
        <time>2021-08-03T08:58:36.262Z</time>
      </trkpt>
      <trkpt lat="47.02797" lon="8.92305">
        <ele>1066</ele>
        <time>2021-08-03T08:58:37.262Z</time>
      </trkpt>
      <trkpt lat="47.02796" lon="8.92304">
        <ele>1067</ele>
        <time>2021-08-03T08:58:38.262Z</time>
      </trkpt>
      <trkpt lat="47.02796" lon="8.92303">
        <ele>1067</ele>
        <time>2021-08-03T08:58:39.263Z</time>
      </trkpt>
      <trkpt lat="47.02795" lon="8.92302">
        <ele>1067</ele>
        <time>2021-08-03T08:58:40.263Z</time>
      </trkpt>
      <trkpt lat="47.02794" lon="8.92301">
        <ele>1068</ele>
        <time>2021-08-03T08:58:41.263Z</time>
      </trkpt>
      <trkpt lat="47.02794" lon="8.923">
        <ele>1068</ele>
        <time>2021-08-03T08:58:42.262Z</time>
      </trkpt>
      <trkpt lat="47.02793" lon="8.92299">
        <ele>1069</ele>
        <time>2021-08-03T08:58:43.262Z</time>
      </trkpt>
      <trkpt lat="47.02792" lon="8.92298">
        <ele>1070</ele>
        <time>2021-08-03T08:58:44.263Z</time>
      </trkpt>
      <trkpt lat="47.02792" lon="8.92297">
        <ele>1070</ele>
        <time>2021-08-03T08:58:45.263Z</time>
      </trkpt>
      <trkpt lat="47.02791" lon="8.92295">
        <ele>1071</ele>
        <time>2021-08-03T08:58:46.262Z</time>
      </trkpt>
      <trkpt lat="47.02791" lon="8.92294">
        <ele>1072</ele>
        <time>2021-08-03T08:58:47.262Z</time>
      </trkpt>
      <trkpt lat="47.0279" lon="8.92293">
        <ele>1072</ele>
        <time>2021-08-03T08:58:48.262Z</time>
      </trkpt>
      <trkpt lat="47.02789" lon="8.92293">
        <ele>1073</ele>
        <time>2021-08-03T08:58:49.263Z</time>
      </trkpt>
      <trkpt lat="47.02789" lon="8.92293">
        <ele>1073</ele>
        <time>2021-08-03T08:58:50.263Z</time>
      </trkpt>
      <trkpt lat="47.02788" lon="8.92293">
        <ele>1074</ele>
        <time>2021-08-03T08:58:51.262Z</time>
      </trkpt>
      <trkpt lat="47.02788" lon="8.92292">
        <ele>1075</ele>
        <time>2021-08-03T08:58:52.262Z</time>
      </trkpt>
      <trkpt lat="47.02787" lon="8.92291">
        <ele>1076</ele>
        <time>2021-08-03T08:58:53.262Z</time>
      </trkpt>
      <trkpt lat="47.02787" lon="8.9229">
        <ele>1076</ele>
        <time>2021-08-03T08:58:54.262Z</time>
      </trkpt>
      <trkpt lat="47.02786" lon="8.92289">
        <ele>1076</ele>
        <time>2021-08-03T08:58:55.263Z</time>
      </trkpt>
      <trkpt lat="47.02784" lon="8.92288">
        <ele>1076</ele>
        <time>2021-08-03T08:58:56.263Z</time>
      </trkpt>
      <trkpt lat="47.02784" lon="8.92288">
        <ele>1076</ele>
        <time>2021-08-03T08:58:57.263Z</time>
      </trkpt>
      <trkpt lat="47.02783" lon="8.92289">
        <ele>1076</ele>
        <time>2021-08-03T08:58:58.262Z</time>
      </trkpt>
      <trkpt lat="47.02783" lon="8.9229">
        <ele>1075</ele>
        <time>2021-08-03T08:58:59.263Z</time>
      </trkpt>
      <trkpt lat="47.02783" lon="8.92288">
        <ele>1075</ele>
        <time>2021-08-03T08:59:00.262Z</time>
      </trkpt>
      <trkpt lat="47.02782" lon="8.92286">
        <ele>1075</ele>
        <time>2021-08-03T08:59:01.262Z</time>
      </trkpt>
      <trkpt lat="47.02781" lon="8.92284">
        <ele>1075</ele>
        <time>2021-08-03T08:59:02.262Z</time>
      </trkpt>
      <trkpt lat="47.02781" lon="8.92283">
        <ele>1075</ele>
        <time>2021-08-03T08:59:03.262Z</time>
      </trkpt>
      <trkpt lat="47.0278" lon="8.92281">
        <ele>1075</ele>
        <time>2021-08-03T08:59:04.262Z</time>
      </trkpt>
      <trkpt lat="47.0278" lon="8.9228">
        <ele>1075</ele>
        <time>2021-08-03T08:59:05.262Z</time>
      </trkpt>
      <trkpt lat="47.0278" lon="8.92278">
        <ele>1075</ele>
        <time>2021-08-03T08:59:06.262Z</time>
      </trkpt>
      <trkpt lat="47.0278" lon="8.92277">
        <ele>1076</ele>
        <time>2021-08-03T08:59:07.262Z</time>
      </trkpt>
      <trkpt lat="47.0278" lon="8.92276">
        <ele>1076</ele>
        <time>2021-08-03T08:59:08.262Z</time>
      </trkpt>
      <trkpt lat="47.02779" lon="8.92275">
        <ele>1076</ele>
        <time>2021-08-03T08:59:09.263Z</time>
      </trkpt>
      <trkpt lat="47.02779" lon="8.92274">
        <ele>1077</ele>
        <time>2021-08-03T08:59:10.262Z</time>
      </trkpt>
      <trkpt lat="47.02778" lon="8.92273">
        <ele>1077</ele>
        <time>2021-08-03T08:59:11.263Z</time>
      </trkpt>
      <trkpt lat="47.02778" lon="8.92272">
        <ele>1077</ele>
        <time>2021-08-03T08:59:12.262Z</time>
      </trkpt>
      <trkpt lat="47.02778" lon="8.9227">
        <ele>1077</ele>
        <time>2021-08-03T08:59:13.262Z</time>
      </trkpt>
      <trkpt lat="47.02778" lon="8.92269">
        <ele>1078</ele>
        <time>2021-08-03T08:59:14.262Z</time>
      </trkpt>
      <trkpt lat="47.02778" lon="8.92268">
        <ele>1078</ele>
        <time>2021-08-03T08:59:15.262Z</time>
      </trkpt>
      <trkpt lat="47.02778" lon="8.92267">
        <ele>1078</ele>
        <time>2021-08-03T08:59:16.262Z</time>
      </trkpt>
      <trkpt lat="47.02778" lon="8.92266">
        <ele>1078</ele>
        <time>2021-08-03T08:59:17.262Z</time>
      </trkpt>
      <trkpt lat="47.02778" lon="8.92265">
        <ele>1078</ele>
        <time>2021-08-03T08:59:18.262Z</time>
      </trkpt>
      <trkpt lat="47.02778" lon="8.92264">
        <ele>1078</ele>
        <time>2021-08-03T08:59:19.263Z</time>
      </trkpt>
      <trkpt lat="47.02779" lon="8.92262">
        <ele>1078</ele>
        <time>2021-08-03T08:59:20.263Z</time>
      </trkpt>
      <trkpt lat="47.02779" lon="8.92261">
        <ele>1078</ele>
        <time>2021-08-03T08:59:21.263Z</time>
      </trkpt>
      <trkpt lat="47.0278" lon="8.92259">
        <ele>1078</ele>
        <time>2021-08-03T08:59:22.262Z</time>
      </trkpt>
      <trkpt lat="47.0278" lon="8.92255">
        <ele>1078</ele>
        <time>2021-08-03T08:59:23.262Z</time>
      </trkpt>
      <trkpt lat="47.0278" lon="8.92254">
        <ele>1077</ele>
        <time>2021-08-03T08:59:24.263Z</time>
      </trkpt>
      <trkpt lat="47.0278" lon="8.92253">
        <ele>1077</ele>
        <time>2021-08-03T08:59:25.263Z</time>
      </trkpt>
      <trkpt lat="47.0278" lon="8.92252">
        <ele>1078</ele>
        <time>2021-08-03T08:59:26.262Z</time>
      </trkpt>
      <trkpt lat="47.0278" lon="8.92251">
        <ele>1078</ele>
        <time>2021-08-03T08:59:27.263Z</time>
      </trkpt>
      <trkpt lat="47.02779" lon="8.92251">
        <ele>1078</ele>
        <time>2021-08-03T08:59:28.262Z</time>
      </trkpt>
      <trkpt lat="47.02779" lon="8.9225">
        <ele>1078</ele>
        <time>2021-08-03T08:59:29.263Z</time>
      </trkpt>
      <trkpt lat="47.02779" lon="8.92249">
        <ele>1078</ele>
        <time>2021-08-03T08:59:30.262Z</time>
      </trkpt>
      <trkpt lat="47.02779" lon="8.92248">
        <ele>1078</ele>
        <time>2021-08-03T08:59:31.262Z</time>
      </trkpt>
      <trkpt lat="47.02779" lon="8.92246">
        <ele>1079</ele>
        <time>2021-08-03T08:59:32.263Z</time>
      </trkpt>
      <trkpt lat="47.02779" lon="8.92245">
        <ele>1079</ele>
        <time>2021-08-03T08:59:33.262Z</time>
      </trkpt>
      <trkpt lat="47.02779" lon="8.92244">
        <ele>1079</ele>
        <time>2021-08-03T08:59:34.262Z</time>
      </trkpt>
      <trkpt lat="47.02779" lon="8.92242">
        <ele>1080</ele>
        <time>2021-08-03T08:59:35.262Z</time>
      </trkpt>
      <trkpt lat="47.02779" lon="8.92241">
        <ele>1080</ele>
        <time>2021-08-03T08:59:36.263Z</time>
      </trkpt>
      <trkpt lat="47.02779" lon="8.9224">
        <ele>1081</ele>
        <time>2021-08-03T08:59:37.263Z</time>
      </trkpt>
      <trkpt lat="47.02779" lon="8.92239">
        <ele>1081</ele>
        <time>2021-08-03T08:59:38.263Z</time>
      </trkpt>
      <trkpt lat="47.0278" lon="8.92238">
        <ele>1082</ele>
        <time>2021-08-03T08:59:39.262Z</time>
      </trkpt>
      <trkpt lat="47.0278" lon="8.92237">
        <ele>1082</ele>
        <time>2021-08-03T08:59:40.262Z</time>
      </trkpt>
      <trkpt lat="47.0278" lon="8.92236">
        <ele>1083</ele>
        <time>2021-08-03T08:59:41.263Z</time>
      </trkpt>
      <trkpt lat="47.0278" lon="8.92235">
        <ele>1083</ele>
        <time>2021-08-03T08:59:42.263Z</time>
      </trkpt>
      <trkpt lat="47.02781" lon="8.92234">
        <ele>1083</ele>
        <time>2021-08-03T08:59:43.262Z</time>
      </trkpt>
      <trkpt lat="47.02782" lon="8.92233">
        <ele>1084</ele>
        <time>2021-08-03T08:59:44.263Z</time>
      </trkpt>
      <trkpt lat="47.02782" lon="8.92232">
        <ele>1084</ele>
        <time>2021-08-03T08:59:45.263Z</time>
      </trkpt>
      <trkpt lat="47.02782" lon="8.92232">
        <ele>1084</ele>
        <time>2021-08-03T08:59:46.262Z</time>
      </trkpt>
      <trkpt lat="47.02782" lon="8.92231">
        <ele>1084</ele>
        <time>2021-08-03T08:59:47.262Z</time>
      </trkpt>
      <trkpt lat="47.02782" lon="8.92231">
        <ele>1083</ele>
        <time>2021-08-03T08:59:48.263Z</time>
      </trkpt>
      <trkpt lat="47.02781" lon="8.9223">
        <ele>1083</ele>
        <time>2021-08-03T08:59:49.263Z</time>
      </trkpt>
      <trkpt lat="47.02782" lon="8.92229">
        <ele>1083</ele>
        <time>2021-08-03T08:59:50.262Z</time>
      </trkpt>
      <trkpt lat="47.02781" lon="8.92227">
        <ele>1083</ele>
        <time>2021-08-03T08:59:51.263Z</time>
      </trkpt>
      <trkpt lat="47.02781" lon="8.92226">
        <ele>1083</ele>
        <time>2021-08-03T08:59:52.263Z</time>
      </trkpt>
      <trkpt lat="47.02781" lon="8.92224">
        <ele>1083</ele>
        <time>2021-08-03T08:59:53.262Z</time>
      </trkpt>
      <trkpt lat="47.02781" lon="8.92224">
        <ele>1083</ele>
        <time>2021-08-03T08:59:54.262Z</time>
      </trkpt>
      <trkpt lat="47.02781" lon="8.92223">
        <ele>1083</ele>
        <time>2021-08-03T08:59:55.263Z</time>
      </trkpt>
      <trkpt lat="47.02781" lon="8.92222">
        <ele>1083</ele>
        <time>2021-08-03T08:59:56.262Z</time>
      </trkpt>
      <trkpt lat="47.02781" lon="8.92221">
        <ele>1083</ele>
        <time>2021-08-03T08:59:57.263Z</time>
      </trkpt>
      <trkpt lat="47.02781" lon="8.92221">
        <ele>1083</ele>
        <time>2021-08-03T08:59:58.263Z</time>
      </trkpt>
      <trkpt lat="47.02782" lon="8.92222">
        <ele>1083</ele>
        <time>2021-08-03T08:59:59.263Z</time>
      </trkpt>
      <trkpt lat="47.02782" lon="8.92222">
        <ele>1083</ele>
        <time>2021-08-03T09:00:00.262Z</time>
      </trkpt>
      <trkpt lat="47.02781" lon="8.92221">
        <ele>1083</ele>
        <time>2021-08-03T09:00:01.263Z</time>
      </trkpt>
      <trkpt lat="47.02781" lon="8.9222">
        <ele>1083</ele>
        <time>2021-08-03T09:00:02.263Z</time>
      </trkpt>
      <trkpt lat="47.02781" lon="8.92219">
        <ele>1082</ele>
        <time>2021-08-03T09:00:03.262Z</time>
      </trkpt>
      <trkpt lat="47.02781" lon="8.92217">
        <ele>1082</ele>
        <time>2021-08-03T09:00:04.262Z</time>
      </trkpt>
      <trkpt lat="47.0278" lon="8.92216">
        <ele>1081</ele>
        <time>2021-08-03T09:00:05.263Z</time>
      </trkpt>
      <trkpt lat="47.0278" lon="8.92215">
        <ele>1081</ele>
        <time>2021-08-03T09:00:06.263Z</time>
      </trkpt>
      <trkpt lat="47.0278" lon="8.92214">
        <ele>1081</ele>
        <time>2021-08-03T09:00:07.262Z</time>
      </trkpt>
      <trkpt lat="47.0278" lon="8.92213">
        <ele>1081</ele>
        <time>2021-08-03T09:00:08.262Z</time>
      </trkpt>
      <trkpt lat="47.0278" lon="8.92212">
        <ele>1081</ele>
        <time>2021-08-03T09:00:09.263Z</time>
      </trkpt>
      <trkpt lat="47.0278" lon="8.92211">
        <ele>1081</ele>
        <time>2021-08-03T09:00:10.262Z</time>
      </trkpt>
      <trkpt lat="47.02779" lon="8.9221">
        <ele>1081</ele>
        <time>2021-08-03T09:00:11.263Z</time>
      </trkpt>
      <trkpt lat="47.02779" lon="8.92208">
        <ele>1081</ele>
        <time>2021-08-03T09:00:12.262Z</time>
      </trkpt>
      <trkpt lat="47.02778" lon="8.92206">
        <ele>1081</ele>
        <time>2021-08-03T09:00:13.262Z</time>
      </trkpt>
      <trkpt lat="47.02777" lon="8.92205">
        <ele>1080</ele>
        <time>2021-08-03T09:00:14.263Z</time>
      </trkpt>
      <trkpt lat="47.02777" lon="8.92204">
        <ele>1080</ele>
        <time>2021-08-03T09:00:15.262Z</time>
      </trkpt>
      <trkpt lat="47.02777" lon="8.92203">
        <ele>1079</ele>
        <time>2021-08-03T09:00:16.262Z</time>
      </trkpt>
      <trkpt lat="47.02776" lon="8.92203">
        <ele>1079</ele>
        <time>2021-08-03T09:00:17.263Z</time>
      </trkpt>
      <trkpt lat="47.02776" lon="8.92203">
        <ele>1079</ele>
        <time>2021-08-03T09:00:18.263Z</time>
      </trkpt>
      <trkpt lat="47.02776" lon="8.92203">
        <ele>1079</ele>
        <time>2021-08-03T09:00:19.263Z</time>
      </trkpt>
      <trkpt lat="47.02776" lon="8.92203">
        <ele>1079</ele>
        <time>2021-08-03T09:00:20.262Z</time>
      </trkpt>
      <trkpt lat="47.02775" lon="8.92201">
        <ele>1080</ele>
        <time>2021-08-03T09:00:21.262Z</time>
      </trkpt>
      <trkpt lat="47.02775" lon="8.922">
        <ele>1080</ele>
        <time>2021-08-03T09:00:22.262Z</time>
      </trkpt>
      <trkpt lat="47.02775" lon="8.92198">
        <ele>1080</ele>
        <time>2021-08-03T09:00:23.263Z</time>
      </trkpt>
      <trkpt lat="47.02774" lon="8.92197">
        <ele>1080</ele>
        <time>2021-08-03T09:00:24.262Z</time>
      </trkpt>
      <trkpt lat="47.02774" lon="8.92197">
        <ele>1080</ele>
        <time>2021-08-03T09:00:25.262Z</time>
      </trkpt>
      <trkpt lat="47.02772" lon="8.92196">
        <ele>1080</ele>
        <time>2021-08-03T09:00:26.262Z</time>
      </trkpt>
      <trkpt lat="47.02771" lon="8.92196">
        <ele>1080</ele>
        <time>2021-08-03T09:00:27.262Z</time>
      </trkpt>
      <trkpt lat="47.0277" lon="8.92195">
        <ele>1080</ele>
        <time>2021-08-03T09:00:28.262Z</time>
      </trkpt>
      <trkpt lat="47.0277" lon="8.92194">
        <ele>1079</ele>
        <time>2021-08-03T09:00:29.263Z</time>
      </trkpt>
      <trkpt lat="47.02769" lon="8.92194">
        <ele>1079</ele>
        <time>2021-08-03T09:00:30.262Z</time>
      </trkpt>
      <trkpt lat="47.02768" lon="8.92193">
        <ele>1078</ele>
        <time>2021-08-03T09:00:31.263Z</time>
      </trkpt>
      <trkpt lat="47.02767" lon="8.92192">
        <ele>1078</ele>
        <time>2021-08-03T09:00:32.262Z</time>
      </trkpt>
      <trkpt lat="47.02766" lon="8.92191">
        <ele>1077</ele>
        <time>2021-08-03T09:00:33.262Z</time>
      </trkpt>
      <trkpt lat="47.02765" lon="8.9219">
        <ele>1077</ele>
        <time>2021-08-03T09:00:34.263Z</time>
      </trkpt>
      <trkpt lat="47.02764" lon="8.92189">
        <ele>1077</ele>
        <time>2021-08-03T09:00:35.263Z</time>
      </trkpt>
      <trkpt lat="47.02763" lon="8.92188">
        <ele>1076</ele>
        <time>2021-08-03T09:00:36.263Z</time>
      </trkpt>
      <trkpt lat="47.02762" lon="8.92188">
        <ele>1076</ele>
        <time>2021-08-03T09:00:37.262Z</time>
      </trkpt>
      <trkpt lat="47.02762" lon="8.92187">
        <ele>1076</ele>
        <time>2021-08-03T09:00:38.263Z</time>
      </trkpt>
      <trkpt lat="47.02761" lon="8.92185">
        <ele>1076</ele>
        <time>2021-08-03T09:00:39.263Z</time>
      </trkpt>
      <trkpt lat="47.02761" lon="8.92183">
        <ele>1075</ele>
        <time>2021-08-03T09:00:40.262Z</time>
      </trkpt>
      <trkpt lat="47.02761" lon="8.92182">
        <ele>1075</ele>
        <time>2021-08-03T09:00:41.263Z</time>
      </trkpt>
      <trkpt lat="47.0276" lon="8.92181">
        <ele>1076</ele>
        <time>2021-08-03T09:00:42.263Z</time>
      </trkpt>
      <trkpt lat="47.0276" lon="8.92179">
        <ele>1076</ele>
        <time>2021-08-03T09:00:43.262Z</time>
      </trkpt>
      <trkpt lat="47.0276" lon="8.92178">
        <ele>1076</ele>
        <time>2021-08-03T09:00:44.262Z</time>
      </trkpt>
      <trkpt lat="47.02759" lon="8.92176">
        <ele>1076</ele>
        <time>2021-08-03T09:00:45.263Z</time>
      </trkpt>
      <trkpt lat="47.02759" lon="8.92175">
        <ele>1076</ele>
        <time>2021-08-03T09:00:46.262Z</time>
      </trkpt>
      <trkpt lat="47.02759" lon="8.92174">
        <ele>1076</ele>
        <time>2021-08-03T09:00:47.262Z</time>
      </trkpt>
      <trkpt lat="47.02759" lon="8.92173">
        <ele>1076</ele>
        <time>2021-08-03T09:00:48.262Z</time>
      </trkpt>
      <trkpt lat="47.02759" lon="8.92173">
        <ele>1077</ele>
        <time>2021-08-03T09:00:49.263Z</time>
      </trkpt>
      <trkpt lat="47.02758" lon="8.92172">
        <ele>1077</ele>
        <time>2021-08-03T09:00:50.263Z</time>
      </trkpt>
      <trkpt lat="47.02758" lon="8.9217">
        <ele>1078</ele>
        <time>2021-08-03T09:00:51.262Z</time>
      </trkpt>
      <trkpt lat="47.02758" lon="8.92169">
        <ele>1078</ele>
        <time>2021-08-03T09:00:52.262Z</time>
      </trkpt>
      <trkpt lat="47.02758" lon="8.92167">
        <ele>1079</ele>
        <time>2021-08-03T09:00:53.262Z</time>
      </trkpt>
      <trkpt lat="47.02758" lon="8.92165">
        <ele>1079</ele>
        <time>2021-08-03T09:00:54.263Z</time>
      </trkpt>
      <trkpt lat="47.02758" lon="8.92164">
        <ele>1080</ele>
        <time>2021-08-03T09:00:55.262Z</time>
      </trkpt>
      <trkpt lat="47.02757" lon="8.92163">
        <ele>1081</ele>
        <time>2021-08-03T09:00:56.263Z</time>
      </trkpt>
      <trkpt lat="47.02757" lon="8.92162">
        <ele>1081</ele>
        <time>2021-08-03T09:00:57.263Z</time>
      </trkpt>
      <trkpt lat="47.02757" lon="8.92162">
        <ele>1082</ele>
        <time>2021-08-03T09:00:58.263Z</time>
      </trkpt>
      <trkpt lat="47.02756" lon="8.92161">
        <ele>1082</ele>
        <time>2021-08-03T09:00:59.263Z</time>
      </trkpt>
      <trkpt lat="47.02756" lon="8.92161">
        <ele>1083</ele>
        <time>2021-08-03T09:01:00.263Z</time>
      </trkpt>
      <trkpt lat="47.02756" lon="8.92161">
        <ele>1083</ele>
        <time>2021-08-03T09:01:01.263Z</time>
      </trkpt>
      <trkpt lat="47.02755" lon="8.9216">
        <ele>1084</ele>
        <time>2021-08-03T09:01:02.262Z</time>
      </trkpt>
      <trkpt lat="47.02754" lon="8.92159">
        <ele>1085</ele>
        <time>2021-08-03T09:01:03.263Z</time>
      </trkpt>
      <trkpt lat="47.02753" lon="8.92159">
        <ele>1085</ele>
        <time>2021-08-03T09:01:04.263Z</time>
      </trkpt>
      <trkpt lat="47.02752" lon="8.92157">
        <ele>1086</ele>
        <time>2021-08-03T09:01:05.262Z</time>
      </trkpt>
      <trkpt lat="47.02752" lon="8.92156">
        <ele>1087</ele>
        <time>2021-08-03T09:01:06.262Z</time>
      </trkpt>
      <trkpt lat="47.02752" lon="8.92154">
        <ele>1088</ele>
        <time>2021-08-03T09:01:07.263Z</time>
      </trkpt>
      <trkpt lat="47.02751" lon="8.92153">
        <ele>1089</ele>
        <time>2021-08-03T09:01:08.262Z</time>
      </trkpt>
      <trkpt lat="47.0275" lon="8.92152">
        <ele>1090</ele>
        <time>2021-08-03T09:01:09.263Z</time>
      </trkpt>
      <trkpt lat="47.02749" lon="8.92151">
        <ele>1090</ele>
        <time>2021-08-03T09:01:10.263Z</time>
      </trkpt>
      <trkpt lat="47.02748" lon="8.9215">
        <ele>1091</ele>
        <time>2021-08-03T09:01:11.263Z</time>
      </trkpt>
      <trkpt lat="47.02748" lon="8.92149">
        <ele>1091</ele>
        <time>2021-08-03T09:01:12.262Z</time>
      </trkpt>
      <trkpt lat="47.02748" lon="8.92148">
        <ele>1091</ele>
        <time>2021-08-03T09:01:13.263Z</time>
      </trkpt>
      <trkpt lat="47.02748" lon="8.92147">
        <ele>1091</ele>
        <time>2021-08-03T09:01:14.262Z</time>
      </trkpt>
      <trkpt lat="47.02747" lon="8.92147">
        <ele>1091</ele>
        <time>2021-08-03T09:01:15.263Z</time>
      </trkpt>
      <trkpt lat="47.02745" lon="8.92146">
        <ele>1092</ele>
        <time>2021-08-03T09:01:16.263Z</time>
      </trkpt>
      <trkpt lat="47.02744" lon="8.92146">
        <ele>1093</ele>
        <time>2021-08-03T09:01:17.263Z</time>
      </trkpt>
      <trkpt lat="47.02743" lon="8.92145">
        <ele>1093</ele>
        <time>2021-08-03T09:01:18.263Z</time>
      </trkpt>
      <trkpt lat="47.02742" lon="8.92145">
        <ele>1094</ele>
        <time>2021-08-03T09:01:19.263Z</time>
      </trkpt>
      <trkpt lat="47.0274" lon="8.92144">
        <ele>1094</ele>
        <time>2021-08-03T09:01:20.263Z</time>
      </trkpt>
      <trkpt lat="47.02739" lon="8.92143">
        <ele>1095</ele>
        <time>2021-08-03T09:01:21.263Z</time>
      </trkpt>
      <trkpt lat="47.02737" lon="8.92144">
        <ele>1095</ele>
        <time>2021-08-03T09:01:22.263Z</time>
      </trkpt>
      <trkpt lat="47.02736" lon="8.92143">
        <ele>1096</ele>
        <time>2021-08-03T09:01:23.262Z</time>
      </trkpt>
      <trkpt lat="47.02735" lon="8.92143">
        <ele>1096</ele>
        <time>2021-08-03T09:01:24.263Z</time>
      </trkpt>
      <trkpt lat="47.02734" lon="8.92142">
        <ele>1096</ele>
        <time>2021-08-03T09:01:25.262Z</time>
      </trkpt>
      <trkpt lat="47.02733" lon="8.9214">
        <ele>1096</ele>
        <time>2021-08-03T09:01:26.263Z</time>
      </trkpt>
      <trkpt lat="47.02732" lon="8.92139">
        <ele>1096</ele>
        <time>2021-08-03T09:01:27.263Z</time>
      </trkpt>
      <trkpt lat="47.02732" lon="8.92138">
        <ele>1096</ele>
        <time>2021-08-03T09:01:28.262Z</time>
      </trkpt>
      <trkpt lat="47.02731" lon="8.92137">
        <ele>1097</ele>
        <time>2021-08-03T09:01:29.262Z</time>
      </trkpt>
      <trkpt lat="47.02731" lon="8.92135">
        <ele>1097</ele>
        <time>2021-08-03T09:01:30.262Z</time>
      </trkpt>
      <trkpt lat="47.0273" lon="8.92133">
        <ele>1097</ele>
        <time>2021-08-03T09:01:31.263Z</time>
      </trkpt>
      <trkpt lat="47.02729" lon="8.92131">
        <ele>1097</ele>
        <time>2021-08-03T09:01:32.263Z</time>
      </trkpt>
      <trkpt lat="47.02728" lon="8.92129">
        <ele>1097</ele>
        <time>2021-08-03T09:01:33.263Z</time>
      </trkpt>
      <trkpt lat="47.02728" lon="8.92128">
        <ele>1098</ele>
        <time>2021-08-03T09:01:34.263Z</time>
      </trkpt>
      <trkpt lat="47.02728" lon="8.92126">
        <ele>1098</ele>
        <time>2021-08-03T09:01:35.263Z</time>
      </trkpt>
      <trkpt lat="47.02728" lon="8.92124">
        <ele>1098</ele>
        <time>2021-08-03T09:01:36.263Z</time>
      </trkpt>
      <trkpt lat="47.02728" lon="8.92124">
        <ele>1098</ele>
        <time>2021-08-03T09:01:37.263Z</time>
      </trkpt>
      <trkpt lat="47.02728" lon="8.92124">
        <ele>1098</ele>
        <time>2021-08-03T09:01:38.263Z</time>
      </trkpt>
      <trkpt lat="47.02727" lon="8.92124">
        <ele>1098</ele>
        <time>2021-08-03T09:01:39.263Z</time>
      </trkpt>
      <trkpt lat="47.02727" lon="8.92125">
        <ele>1098</ele>
        <time>2021-08-03T09:01:40.262Z</time>
      </trkpt>
      <trkpt lat="47.02727" lon="8.92124">
        <ele>1099</ele>
        <time>2021-08-03T09:01:41.263Z</time>
      </trkpt>
      <trkpt lat="47.02727" lon="8.92124">
        <ele>1099</ele>
        <time>2021-08-03T09:01:42.263Z</time>
      </trkpt>
      <trkpt lat="47.02728" lon="8.92124">
        <ele>1099</ele>
        <time>2021-08-03T09:01:43.263Z</time>
      </trkpt>
      <trkpt lat="47.02728" lon="8.92125">
        <ele>1099</ele>
        <time>2021-08-03T09:01:44.262Z</time>
      </trkpt>
      <trkpt lat="47.02726" lon="8.92124">
        <ele>1098</ele>
        <time>2021-08-03T09:01:45.262Z</time>
      </trkpt>
      <trkpt lat="47.02725" lon="8.92124">
        <ele>1098</ele>
        <time>2021-08-03T09:01:46.262Z</time>
      </trkpt>
      <trkpt lat="47.02724" lon="8.92124">
        <ele>1098</ele>
        <time>2021-08-03T09:01:47.262Z</time>
      </trkpt>
      <trkpt lat="47.02723" lon="8.92123">
        <ele>1098</ele>
        <time>2021-08-03T09:01:48.263Z</time>
      </trkpt>
      <trkpt lat="47.02723" lon="8.92123">
        <ele>1097</ele>
        <time>2021-08-03T09:01:49.263Z</time>
      </trkpt>
      <trkpt lat="47.02722" lon="8.92123">
        <ele>1097</ele>
        <time>2021-08-03T09:01:50.262Z</time>
      </trkpt>
      <trkpt lat="47.0272" lon="8.92124">
        <ele>1101</ele>
        <time>2021-08-03T09:01:51.262Z</time>
      </trkpt>
      <trkpt lat="47.0272" lon="8.92124">
        <ele>1102</ele>
        <time>2021-08-03T09:01:52.263Z</time>
      </trkpt>
      <trkpt lat="47.0272" lon="8.92123">
        <ele>1102</ele>
        <time>2021-08-03T09:01:53.262Z</time>
      </trkpt>
      <trkpt lat="47.0272" lon="8.92122">
        <ele>1102</ele>
        <time>2021-08-03T09:01:54.263Z</time>
      </trkpt>
      <trkpt lat="47.0272" lon="8.92121">
        <ele>1102</ele>
        <time>2021-08-03T09:01:55.263Z</time>
      </trkpt>
      <trkpt lat="47.0272" lon="8.9212">
        <ele>1102</ele>
        <time>2021-08-03T09:01:56.263Z</time>
      </trkpt>
      <trkpt lat="47.0272" lon="8.9212">
        <ele>1101</ele>
        <time>2021-08-03T09:01:57.263Z</time>
      </trkpt>
      <trkpt lat="47.0272" lon="8.9212">
        <ele>1101</ele>
        <time>2021-08-03T09:01:58.263Z</time>
      </trkpt>
      <trkpt lat="47.0272" lon="8.92118">
        <ele>1100</ele>
        <time>2021-08-03T09:01:59.263Z</time>
      </trkpt>
      <trkpt lat="47.02719" lon="8.92116">
        <ele>1100</ele>
        <time>2021-08-03T09:02:00.263Z</time>
      </trkpt>
      <trkpt lat="47.02719" lon="8.92114">
        <ele>1100</ele>
        <time>2021-08-03T09:02:01.262Z</time>
      </trkpt>
      <trkpt lat="47.02718" lon="8.92113">
        <ele>1100</ele>
        <time>2021-08-03T09:02:02.262Z</time>
      </trkpt>
      <trkpt lat="47.02717" lon="8.92111">
        <ele>1100</ele>
        <time>2021-08-03T09:02:03.262Z</time>
      </trkpt>
      <trkpt lat="47.02716" lon="8.92111">
        <ele>1100</ele>
        <time>2021-08-03T09:02:04.262Z</time>
      </trkpt>
      <trkpt lat="47.02715" lon="8.9211">
        <ele>1100</ele>
        <time>2021-08-03T09:02:05.263Z</time>
      </trkpt>
      <trkpt lat="47.02715" lon="8.92111">
        <ele>1099</ele>
        <time>2021-08-03T09:02:06.263Z</time>
      </trkpt>
      <trkpt lat="47.02714" lon="8.92111">
        <ele>1099</ele>
        <time>2021-08-03T09:02:07.262Z</time>
      </trkpt>
      <trkpt lat="47.02714" lon="8.92111">
        <ele>1099</ele>
        <time>2021-08-03T09:02:08.262Z</time>
      </trkpt>
      <trkpt lat="47.02713" lon="8.92111">
        <ele>1099</ele>
        <time>2021-08-03T09:02:09.262Z</time>
      </trkpt>
      <trkpt lat="47.02713" lon="8.92111">
        <ele>1099</ele>
        <time>2021-08-03T09:02:10.262Z</time>
      </trkpt>
      <trkpt lat="47.02713" lon="8.92111">
        <ele>1099</ele>
        <time>2021-08-03T09:02:11.263Z</time>
      </trkpt>
      <trkpt lat="47.02713" lon="8.9211">
        <ele>1099</ele>
        <time>2021-08-03T09:02:12.265Z</time>
      </trkpt>
      <trkpt lat="47.02714" lon="8.92109">
        <ele>1099</ele>
        <time>2021-08-03T09:02:13.265Z</time>
      </trkpt>
      <trkpt lat="47.02714" lon="8.92107">
        <ele>1099</ele>
        <time>2021-08-03T09:02:14.264Z</time>
      </trkpt>
      <trkpt lat="47.02714" lon="8.92106">
        <ele>1098</ele>
        <time>2021-08-03T09:02:15.265Z</time>
      </trkpt>
      <trkpt lat="47.02711" lon="8.92099">
        <ele>1097</ele>
        <time>2021-08-03T09:02:16.265Z</time>
      </trkpt>
      <trkpt lat="47.02711" lon="8.92098">
        <ele>1097</ele>
        <time>2021-08-03T09:02:17.264Z</time>
      </trkpt>
      <trkpt lat="47.0271" lon="8.92097">
        <ele>1097</ele>
        <time>2021-08-03T09:02:18.264Z</time>
      </trkpt>
      <trkpt lat="47.0271" lon="8.92097">
        <ele>1097</ele>
        <time>2021-08-03T09:02:19.265Z</time>
      </trkpt>
      <trkpt lat="47.02709" lon="8.92096">
        <ele>1096</ele>
        <time>2021-08-03T09:02:20.265Z</time>
      </trkpt>
      <trkpt lat="47.02708" lon="8.92095">
        <ele>1096</ele>
        <time>2021-08-03T09:02:21.266Z</time>
      </trkpt>
      <trkpt lat="47.02707" lon="8.92095">
        <ele>1096</ele>
        <time>2021-08-03T09:02:22.266Z</time>
      </trkpt>
      <trkpt lat="47.02706" lon="8.92095">
        <ele>1096</ele>
        <time>2021-08-03T09:02:23.265Z</time>
      </trkpt>
      <trkpt lat="47.02705" lon="8.92094">
        <ele>1096</ele>
        <time>2021-08-03T09:02:24.266Z</time>
      </trkpt>
      <trkpt lat="47.02705" lon="8.92094">
        <ele>1096</ele>
        <time>2021-08-03T09:02:25.266Z</time>
      </trkpt>
      <trkpt lat="47.02705" lon="8.92093">
        <ele>1096</ele>
        <time>2021-08-03T09:02:26.265Z</time>
      </trkpt>
      <trkpt lat="47.02705" lon="8.92092">
        <ele>1096</ele>
        <time>2021-08-03T09:02:27.266Z</time>
      </trkpt>
      <trkpt lat="47.02704" lon="8.92091">
        <ele>1096</ele>
        <time>2021-08-03T09:02:28.266Z</time>
      </trkpt>
      <trkpt lat="47.02704" lon="8.9209">
        <ele>1096</ele>
        <time>2021-08-03T09:02:29.266Z</time>
      </trkpt>
      <trkpt lat="47.02704" lon="8.9209">
        <ele>1096</ele>
        <time>2021-08-03T09:02:30.265Z</time>
      </trkpt>
      <trkpt lat="47.02703" lon="8.9209">
        <ele>1096</ele>
        <time>2021-08-03T09:02:31.266Z</time>
      </trkpt>
      <trkpt lat="47.02702" lon="8.92089">
        <ele>1096</ele>
        <time>2021-08-03T09:02:32.266Z</time>
      </trkpt>
      <trkpt lat="47.02701" lon="8.92088">
        <ele>1097</ele>
        <time>2021-08-03T09:02:33.266Z</time>
      </trkpt>
      <trkpt lat="47.02701" lon="8.92087">
        <ele>1097</ele>
        <time>2021-08-03T09:02:34.266Z</time>
      </trkpt>
      <trkpt lat="47.027" lon="8.92086">
        <ele>1098</ele>
        <time>2021-08-03T09:02:35.265Z</time>
      </trkpt>
      <trkpt lat="47.027" lon="8.92085">
        <ele>1098</ele>
        <time>2021-08-03T09:02:36.265Z</time>
      </trkpt>
      <trkpt lat="47.027" lon="8.92085">
        <ele>1098</ele>
        <time>2021-08-03T09:02:37.265Z</time>
      </trkpt>
      <trkpt lat="47.02699" lon="8.92085">
        <ele>1099</ele>
        <time>2021-08-03T09:02:38.266Z</time>
      </trkpt>
      <trkpt lat="47.02699" lon="8.92085">
        <ele>1099</ele>
        <time>2021-08-03T09:02:39.266Z</time>
      </trkpt>
      <trkpt lat="47.02699" lon="8.92084">
        <ele>1100</ele>
        <time>2021-08-03T09:02:40.265Z</time>
      </trkpt>
      <trkpt lat="47.02699" lon="8.92083">
        <ele>1100</ele>
        <time>2021-08-03T09:02:41.266Z</time>
      </trkpt>
      <trkpt lat="47.02698" lon="8.92081">
        <ele>1100</ele>
        <time>2021-08-03T09:02:42.266Z</time>
      </trkpt>
      <trkpt lat="47.02698" lon="8.92079">
        <ele>1101</ele>
        <time>2021-08-03T09:02:43.266Z</time>
      </trkpt>
      <trkpt lat="47.02699" lon="8.92079">
        <ele>1101</ele>
        <time>2021-08-03T09:02:44.266Z</time>
      </trkpt>
      <trkpt lat="47.02698" lon="8.92079">
        <ele>1101</ele>
        <time>2021-08-03T09:02:45.266Z</time>
      </trkpt>
      <trkpt lat="47.02697" lon="8.92078">
        <ele>1101</ele>
        <time>2021-08-03T09:02:46.266Z</time>
      </trkpt>
      <trkpt lat="47.02696" lon="8.92078">
        <ele>1101</ele>
        <time>2021-08-03T09:02:47.265Z</time>
      </trkpt>
      <trkpt lat="47.02695" lon="8.92077">
        <ele>1101</ele>
        <time>2021-08-03T09:02:48.266Z</time>
      </trkpt>
      <trkpt lat="47.02695" lon="8.92076">
        <ele>1101</ele>
        <time>2021-08-03T09:02:49.265Z</time>
      </trkpt>
      <trkpt lat="47.02695" lon="8.92075">
        <ele>1101</ele>
        <time>2021-08-03T09:02:50.265Z</time>
      </trkpt>
      <trkpt lat="47.02695" lon="8.92074">
        <ele>1102</ele>
        <time>2021-08-03T09:02:51.265Z</time>
      </trkpt>
      <trkpt lat="47.02694" lon="8.92073">
        <ele>1102</ele>
        <time>2021-08-03T09:02:52.266Z</time>
      </trkpt>
      <trkpt lat="47.02694" lon="8.92072">
        <ele>1102</ele>
        <time>2021-08-03T09:02:53.266Z</time>
      </trkpt>
      <trkpt lat="47.02693" lon="8.92072">
        <ele>1103</ele>
        <time>2021-08-03T09:02:54.265Z</time>
      </trkpt>
      <trkpt lat="47.02693" lon="8.92071">
        <ele>1103</ele>
        <time>2021-08-03T09:02:55.266Z</time>
      </trkpt>
      <trkpt lat="47.02692" lon="8.9207">
        <ele>1104</ele>
        <time>2021-08-03T09:02:56.265Z</time>
      </trkpt>
      <trkpt lat="47.02691" lon="8.92069">
        <ele>1104</ele>
        <time>2021-08-03T09:02:57.266Z</time>
      </trkpt>
      <trkpt lat="47.02691" lon="8.92069">
        <ele>1105</ele>
        <time>2021-08-03T09:02:58.266Z</time>
      </trkpt>
      <trkpt lat="47.02689" lon="8.92068">
        <ele>1105</ele>
        <time>2021-08-03T09:02:59.266Z</time>
      </trkpt>
      <trkpt lat="47.02688" lon="8.92068">
        <ele>1105</ele>
        <time>2021-08-03T09:03:00.265Z</time>
      </trkpt>
      <trkpt lat="47.02688" lon="8.92069">
        <ele>1105</ele>
        <time>2021-08-03T09:03:01.266Z</time>
      </trkpt>
      <trkpt lat="47.02687" lon="8.92068">
        <ele>1105</ele>
        <time>2021-08-03T09:03:02.265Z</time>
      </trkpt>
      <trkpt lat="47.02686" lon="8.92067">
        <ele>1105</ele>
        <time>2021-08-03T09:03:03.266Z</time>
      </trkpt>
      <trkpt lat="47.02686" lon="8.92066">
        <ele>1105</ele>
        <time>2021-08-03T09:03:04.265Z</time>
      </trkpt>
      <trkpt lat="47.02685" lon="8.92065">
        <ele>1106</ele>
        <time>2021-08-03T09:03:05.266Z</time>
      </trkpt>
      <trkpt lat="47.02684" lon="8.92065">
        <ele>1106</ele>
        <time>2021-08-03T09:03:06.265Z</time>
      </trkpt>
      <trkpt lat="47.02684" lon="8.92064">
        <ele>1107</ele>
        <time>2021-08-03T09:03:07.266Z</time>
      </trkpt>
      <trkpt lat="47.02684" lon="8.92063">
        <ele>1107</ele>
        <time>2021-08-03T09:03:08.266Z</time>
      </trkpt>
      <trkpt lat="47.02684" lon="8.92061">
        <ele>1107</ele>
        <time>2021-08-03T09:03:09.265Z</time>
      </trkpt>
      <trkpt lat="47.02683" lon="8.9206">
        <ele>1108</ele>
        <time>2021-08-03T09:03:10.266Z</time>
      </trkpt>
      <trkpt lat="47.02683" lon="8.9206">
        <ele>1108</ele>
        <time>2021-08-03T09:03:11.265Z</time>
      </trkpt>
      <trkpt lat="47.02682" lon="8.92059">
        <ele>1108</ele>
        <time>2021-08-03T09:03:12.266Z</time>
      </trkpt>
      <trkpt lat="47.02682" lon="8.92058">
        <ele>1108</ele>
        <time>2021-08-03T09:03:13.266Z</time>
      </trkpt>
      <trkpt lat="47.02682" lon="8.92058">
        <ele>1108</ele>
        <time>2021-08-03T09:03:14.265Z</time>
      </trkpt>
      <trkpt lat="47.02682" lon="8.92056">
        <ele>1108</ele>
        <time>2021-08-03T09:03:15.266Z</time>
      </trkpt>
      <trkpt lat="47.02683" lon="8.92055">
        <ele>1108</ele>
        <time>2021-08-03T09:03:16.266Z</time>
      </trkpt>
      <trkpt lat="47.02684" lon="8.92053">
        <ele>1108</ele>
        <time>2021-08-03T09:03:17.265Z</time>
      </trkpt>
      <trkpt lat="47.02684" lon="8.92052">
        <ele>1108</ele>
        <time>2021-08-03T09:03:18.266Z</time>
      </trkpt>
      <trkpt lat="47.02684" lon="8.92051">
        <ele>1108</ele>
        <time>2021-08-03T09:03:19.266Z</time>
      </trkpt>
      <trkpt lat="47.02685" lon="8.92051">
        <ele>1108</ele>
        <time>2021-08-03T09:03:20.266Z</time>
      </trkpt>
      <trkpt lat="47.02685" lon="8.92051">
        <ele>1108</ele>
        <time>2021-08-03T09:03:21.265Z</time>
      </trkpt>
      <trkpt lat="47.02684" lon="8.92051">
        <ele>1108</ele>
        <time>2021-08-03T09:03:22.266Z</time>
      </trkpt>
      <trkpt lat="47.02683" lon="8.9205">
        <ele>1109</ele>
        <time>2021-08-03T09:03:23.265Z</time>
      </trkpt>
      <trkpt lat="47.02683" lon="8.92049">
        <ele>1109</ele>
        <time>2021-08-03T09:03:24.265Z</time>
      </trkpt>
      <trkpt lat="47.02682" lon="8.92047">
        <ele>1108</ele>
        <time>2021-08-03T09:03:25.266Z</time>
      </trkpt>
      <trkpt lat="47.02681" lon="8.92046">
        <ele>1108</ele>
        <time>2021-08-03T09:03:26.266Z</time>
      </trkpt>
      <trkpt lat="47.02681" lon="8.92045">
        <ele>1108</ele>
        <time>2021-08-03T09:03:27.266Z</time>
      </trkpt>
      <trkpt lat="47.0268" lon="8.92044">
        <ele>1107</ele>
        <time>2021-08-03T09:03:28.265Z</time>
      </trkpt>
      <trkpt lat="47.0268" lon="8.92043">
        <ele>1107</ele>
        <time>2021-08-03T09:03:29.266Z</time>
      </trkpt>
      <trkpt lat="47.02679" lon="8.92043">
        <ele>1107</ele>
        <time>2021-08-03T09:03:30.265Z</time>
      </trkpt>
      <trkpt lat="47.02678" lon="8.92042">
        <ele>1107</ele>
        <time>2021-08-03T09:03:31.266Z</time>
      </trkpt>
      <trkpt lat="47.02678" lon="8.92042">
        <ele>1106</ele>
        <time>2021-08-03T09:03:32.266Z</time>
      </trkpt>
      <trkpt lat="47.02677" lon="8.92041">
        <ele>1106</ele>
        <time>2021-08-03T09:03:33.266Z</time>
      </trkpt>
      <trkpt lat="47.02676" lon="8.92041">
        <ele>1106</ele>
        <time>2021-08-03T09:03:34.266Z</time>
      </trkpt>
      <trkpt lat="47.02676" lon="8.9204">
        <ele>1106</ele>
        <time>2021-08-03T09:03:35.265Z</time>
      </trkpt>
      <trkpt lat="47.02675" lon="8.92038">
        <ele>1106</ele>
        <time>2021-08-03T09:03:36.265Z</time>
      </trkpt>
      <trkpt lat="47.02675" lon="8.92036">
        <ele>1106</ele>
        <time>2021-08-03T09:03:37.266Z</time>
      </trkpt>
      <trkpt lat="47.02674" lon="8.92034">
        <ele>1105</ele>
        <time>2021-08-03T09:03:38.266Z</time>
      </trkpt>
      <trkpt lat="47.02674" lon="8.92033">
        <ele>1105</ele>
        <time>2021-08-03T09:03:39.266Z</time>
      </trkpt>
      <trkpt lat="47.02674" lon="8.92032">
        <ele>1104</ele>
        <time>2021-08-03T09:03:40.266Z</time>
      </trkpt>
      <trkpt lat="47.02673" lon="8.92028">
        <ele>1101</ele>
        <time>2021-08-03T09:03:41.266Z</time>
      </trkpt>
      <trkpt lat="47.02673" lon="8.92028">
        <ele>1101</ele>
        <time>2021-08-03T09:03:42.266Z</time>
      </trkpt>
      <trkpt lat="47.02673" lon="8.92026">
        <ele>1100</ele>
        <time>2021-08-03T09:03:43.266Z</time>
      </trkpt>
      <trkpt lat="47.02673" lon="8.92025">
        <ele>1099</ele>
        <time>2021-08-03T09:03:44.266Z</time>
      </trkpt>
      <trkpt lat="47.02673" lon="8.92023">
        <ele>1099</ele>
        <time>2021-08-03T09:03:45.266Z</time>
      </trkpt>
      <trkpt lat="47.02672" lon="8.92021">
        <ele>1098</ele>
        <time>2021-08-03T09:03:46.266Z</time>
      </trkpt>
      <trkpt lat="47.02672" lon="8.92019">
        <ele>1098</ele>
        <time>2021-08-03T09:03:47.266Z</time>
      </trkpt>
      <trkpt lat="47.02671" lon="8.92018">
        <ele>1098</ele>
        <time>2021-08-03T09:03:48.266Z</time>
      </trkpt>
      <trkpt lat="47.02671" lon="8.92018">
        <ele>1097</ele>
        <time>2021-08-03T09:03:49.266Z</time>
      </trkpt>
      <trkpt lat="47.0267" lon="8.92018">
        <ele>1098</ele>
        <time>2021-08-03T09:03:50.266Z</time>
      </trkpt>
      <trkpt lat="47.0267" lon="8.92017">
        <ele>1098</ele>
        <time>2021-08-03T09:03:51.266Z</time>
      </trkpt>
      <trkpt lat="47.02671" lon="8.92017">
        <ele>1098</ele>
        <time>2021-08-03T09:03:52.266Z</time>
      </trkpt>
      <trkpt lat="47.02671" lon="8.92017">
        <ele>1098</ele>
        <time>2021-08-03T09:03:53.266Z</time>
      </trkpt>
      <trkpt lat="47.02671" lon="8.92016">
        <ele>1099</ele>
        <time>2021-08-03T09:03:54.266Z</time>
      </trkpt>
      <trkpt lat="47.02672" lon="8.92015">
        <ele>1100</ele>
        <time>2021-08-03T09:03:55.266Z</time>
      </trkpt>
      <trkpt lat="47.02671" lon="8.92014">
        <ele>1100</ele>
        <time>2021-08-03T09:03:56.267Z</time>
      </trkpt>
      <trkpt lat="47.0267" lon="8.92013">
        <ele>1100</ele>
        <time>2021-08-03T09:03:57.267Z</time>
      </trkpt>
      <trkpt lat="47.0267" lon="8.92012">
        <ele>1100</ele>
        <time>2021-08-03T09:03:58.267Z</time>
      </trkpt>
      <trkpt lat="47.0267" lon="8.92011">
        <ele>1100</ele>
        <time>2021-08-03T09:03:59.267Z</time>
      </trkpt>
      <trkpt lat="47.0267" lon="8.92011">
        <ele>1100</ele>
        <time>2021-08-03T09:04:00.266Z</time>
      </trkpt>
      <trkpt lat="47.02669" lon="8.92009">
        <ele>1100</ele>
        <time>2021-08-03T09:04:01.266Z</time>
      </trkpt>
      <trkpt lat="47.02669" lon="8.92007">
        <ele>1100</ele>
        <time>2021-08-03T09:04:02.266Z</time>
      </trkpt>
      <trkpt lat="47.02669" lon="8.92005">
        <ele>1100</ele>
        <time>2021-08-03T09:04:03.266Z</time>
      </trkpt>
      <trkpt lat="47.02669" lon="8.92004">
        <ele>1100</ele>
        <time>2021-08-03T09:04:04.266Z</time>
      </trkpt>
      <trkpt lat="47.02669" lon="8.92003">
        <ele>1101</ele>
        <time>2021-08-03T09:04:05.266Z</time>
      </trkpt>
      <trkpt lat="47.0267" lon="8.92002">
        <ele>1101</ele>
        <time>2021-08-03T09:04:06.266Z</time>
      </trkpt>
      <trkpt lat="47.0267" lon="8.92">
        <ele>1101</ele>
        <time>2021-08-03T09:04:07.267Z</time>
      </trkpt>
      <trkpt lat="47.02671" lon="8.91999">
        <ele>1101</ele>
        <time>2021-08-03T09:04:08.267Z</time>
      </trkpt>
      <trkpt lat="47.02671" lon="8.91998">
        <ele>1101</ele>
        <time>2021-08-03T09:04:09.266Z</time>
      </trkpt>
      <trkpt lat="47.02671" lon="8.91997">
        <ele>1101</ele>
        <time>2021-08-03T09:04:10.267Z</time>
      </trkpt>
      <trkpt lat="47.02671" lon="8.91997">
        <ele>1101</ele>
        <time>2021-08-03T09:04:11.267Z</time>
      </trkpt>
      <trkpt lat="47.0267" lon="8.91996">
        <ele>1101</ele>
        <time>2021-08-03T09:04:12.267Z</time>
      </trkpt>
      <trkpt lat="47.0267" lon="8.91994">
        <ele>1101</ele>
        <time>2021-08-03T09:04:13.266Z</time>
      </trkpt>
      <trkpt lat="47.0267" lon="8.91993">
        <ele>1101</ele>
        <time>2021-08-03T09:04:14.267Z</time>
      </trkpt>
      <trkpt lat="47.0267" lon="8.91992">
        <ele>1102</ele>
        <time>2021-08-03T09:04:15.266Z</time>
      </trkpt>
      <trkpt lat="47.0267" lon="8.91991">
        <ele>1102</ele>
        <time>2021-08-03T09:04:16.266Z</time>
      </trkpt>
      <trkpt lat="47.02669" lon="8.9199">
        <ele>1102</ele>
        <time>2021-08-03T09:04:17.267Z</time>
      </trkpt>
      <trkpt lat="47.02669" lon="8.91989">
        <ele>1103</ele>
        <time>2021-08-03T09:04:18.266Z</time>
      </trkpt>
      <trkpt lat="47.02669" lon="8.91988">
        <ele>1103</ele>
        <time>2021-08-03T09:04:19.267Z</time>
      </trkpt>
      <trkpt lat="47.0267" lon="8.91988">
        <ele>1104</ele>
        <time>2021-08-03T09:04:20.266Z</time>
      </trkpt>
      <trkpt lat="47.0267" lon="8.91987">
        <ele>1104</ele>
        <time>2021-08-03T09:04:21.267Z</time>
      </trkpt>
      <trkpt lat="47.02671" lon="8.91986">
        <ele>1105</ele>
        <time>2021-08-03T09:04:22.267Z</time>
      </trkpt>
      <trkpt lat="47.02671" lon="8.91985">
        <ele>1105</ele>
        <time>2021-08-03T09:04:23.267Z</time>
      </trkpt>
      <trkpt lat="47.02671" lon="8.91985">
        <ele>1106</ele>
        <time>2021-08-03T09:04:24.266Z</time>
      </trkpt>
      <trkpt lat="47.02669" lon="8.91983">
        <ele>1108</ele>
        <time>2021-08-03T09:04:25.268Z</time>
      </trkpt>
      <trkpt lat="47.02669" lon="8.91982">
        <ele>1109</ele>
        <time>2021-08-03T09:04:26.267Z</time>
      </trkpt>
      <trkpt lat="47.02669" lon="8.91982">
        <ele>1110</ele>
        <time>2021-08-03T09:04:27.268Z</time>
      </trkpt>
      <trkpt lat="47.02668" lon="8.91981">
        <ele>1110</ele>
        <time>2021-08-03T09:04:28.268Z</time>
      </trkpt>
      <trkpt lat="47.02666" lon="8.9198">
        <ele>1112</ele>
        <time>2021-08-03T09:04:29.269Z</time>
      </trkpt>
      <trkpt lat="47.02665" lon="8.91981">
        <ele>1112</ele>
        <time>2021-08-03T09:04:30.268Z</time>
      </trkpt>
      <trkpt lat="47.02665" lon="8.91979">
        <ele>1113</ele>
        <time>2021-08-03T09:04:31.269Z</time>
      </trkpt>
      <trkpt lat="47.02664" lon="8.91978">
        <ele>1113</ele>
        <time>2021-08-03T09:04:32.268Z</time>
      </trkpt>
      <trkpt lat="47.02664" lon="8.91975">
        <ele>1113</ele>
        <time>2021-08-03T09:04:33.268Z</time>
      </trkpt>
      <trkpt lat="47.02664" lon="8.91974">
        <ele>1113</ele>
        <time>2021-08-03T09:04:34.269Z</time>
      </trkpt>
      <trkpt lat="47.02665" lon="8.91973">
        <ele>1113</ele>
        <time>2021-08-03T09:04:35.269Z</time>
      </trkpt>
      <trkpt lat="47.02666" lon="8.91972">
        <ele>1113</ele>
        <time>2021-08-03T09:04:36.268Z</time>
      </trkpt>
      <trkpt lat="47.02666" lon="8.91972">
        <ele>1113</ele>
        <time>2021-08-03T09:04:37.269Z</time>
      </trkpt>
      <trkpt lat="47.02667" lon="8.91971">
        <ele>1113</ele>
        <time>2021-08-03T09:04:38.269Z</time>
      </trkpt>
      <trkpt lat="47.02667" lon="8.91967">
        <ele>1113</ele>
        <time>2021-08-03T09:04:39.269Z</time>
      </trkpt>
      <trkpt lat="47.02668" lon="8.91966">
        <ele>1113</ele>
        <time>2021-08-03T09:04:40.268Z</time>
      </trkpt>
      <trkpt lat="47.02668" lon="8.91965">
        <ele>1114</ele>
        <time>2021-08-03T09:04:41.268Z</time>
      </trkpt>
      <trkpt lat="47.02667" lon="8.91964">
        <ele>1114</ele>
        <time>2021-08-03T09:04:42.268Z</time>
      </trkpt>
      <trkpt lat="47.02667" lon="8.91963">
        <ele>1114</ele>
        <time>2021-08-03T09:04:43.269Z</time>
      </trkpt>
      <trkpt lat="47.02666" lon="8.91962">
        <ele>1115</ele>
        <time>2021-08-03T09:04:44.268Z</time>
      </trkpt>
      <trkpt lat="47.02665" lon="8.91961">
        <ele>1115</ele>
        <time>2021-08-03T09:04:45.268Z</time>
      </trkpt>
      <trkpt lat="47.02664" lon="8.91959">
        <ele>1115</ele>
        <time>2021-08-03T09:04:46.268Z</time>
      </trkpt>
      <trkpt lat="47.02663" lon="8.91957">
        <ele>1114</ele>
        <time>2021-08-03T09:04:47.268Z</time>
      </trkpt>
      <trkpt lat="47.02662" lon="8.91956">
        <ele>1114</ele>
        <time>2021-08-03T09:04:48.269Z</time>
      </trkpt>
      <trkpt lat="47.0266" lon="8.91954">
        <ele>1114</ele>
        <time>2021-08-03T09:04:49.268Z</time>
      </trkpt>
      <trkpt lat="47.02659" lon="8.91952">
        <ele>1113</ele>
        <time>2021-08-03T09:04:50.268Z</time>
      </trkpt>
      <trkpt lat="47.02658" lon="8.91951">
        <ele>1112</ele>
        <time>2021-08-03T09:04:51.268Z</time>
      </trkpt>
      <trkpt lat="47.02658" lon="8.9195">
        <ele>1111</ele>
        <time>2021-08-03T09:04:52.268Z</time>
      </trkpt>
      <trkpt lat="47.02658" lon="8.91948">
        <ele>1111</ele>
        <time>2021-08-03T09:04:53.268Z</time>
      </trkpt>
      <trkpt lat="47.02658" lon="8.91947">
        <ele>1110</ele>
        <time>2021-08-03T09:04:54.268Z</time>
      </trkpt>
      <trkpt lat="47.02657" lon="8.91946">
        <ele>1110</ele>
        <time>2021-08-03T09:04:55.268Z</time>
      </trkpt>
      <trkpt lat="47.02657" lon="8.91945">
        <ele>1109</ele>
        <time>2021-08-03T09:04:56.269Z</time>
      </trkpt>
      <trkpt lat="47.02656" lon="8.91943">
        <ele>1109</ele>
        <time>2021-08-03T09:04:57.268Z</time>
      </trkpt>
      <trkpt lat="47.02656" lon="8.91942">
        <ele>1108</ele>
        <time>2021-08-03T09:04:58.268Z</time>
      </trkpt>
      <trkpt lat="47.02657" lon="8.9194">
        <ele>1107</ele>
        <time>2021-08-03T09:04:59.268Z</time>
      </trkpt>
      <trkpt lat="47.02657" lon="8.91938">
        <ele>1106</ele>
        <time>2021-08-03T09:05:00.269Z</time>
      </trkpt>
      <trkpt lat="47.02657" lon="8.91936">
        <ele>1106</ele>
        <time>2021-08-03T09:05:01.269Z</time>
      </trkpt>
      <trkpt lat="47.02658" lon="8.91934">
        <ele>1106</ele>
        <time>2021-08-03T09:05:02.269Z</time>
      </trkpt>
      <trkpt lat="47.02658" lon="8.91933">
        <ele>1106</ele>
        <time>2021-08-03T09:05:03.268Z</time>
      </trkpt>
      <trkpt lat="47.02658" lon="8.9193">
        <ele>1105</ele>
        <time>2021-08-03T09:05:04.268Z</time>
      </trkpt>
      <trkpt lat="47.02658" lon="8.91929">
        <ele>1105</ele>
        <time>2021-08-03T09:05:05.268Z</time>
      </trkpt>
      <trkpt lat="47.02659" lon="8.91926">
        <ele>1105</ele>
        <time>2021-08-03T09:05:06.269Z</time>
      </trkpt>
      <trkpt lat="47.02659" lon="8.91924">
        <ele>1105</ele>
        <time>2021-08-03T09:05:07.268Z</time>
      </trkpt>
      <trkpt lat="47.02659" lon="8.91923">
        <ele>1104</ele>
        <time>2021-08-03T09:05:08.268Z</time>
      </trkpt>
      <trkpt lat="47.0266" lon="8.91922">
        <ele>1104</ele>
        <time>2021-08-03T09:05:09.268Z</time>
      </trkpt>
      <trkpt lat="47.0266" lon="8.9192">
        <ele>1104</ele>
        <time>2021-08-03T09:05:10.269Z</time>
      </trkpt>
      <trkpt lat="47.02663" lon="8.91912">
        <ele>1103</ele>
        <time>2021-08-03T09:05:11.270Z</time>
      </trkpt>
      <trkpt lat="47.02662" lon="8.91912">
        <ele>1104</ele>
        <time>2021-08-03T09:05:12.269Z</time>
      </trkpt>
      <trkpt lat="47.02662" lon="8.91911">
        <ele>1104</ele>
        <time>2021-08-03T09:05:13.269Z</time>
      </trkpt>
      <trkpt lat="47.02662" lon="8.91907">
        <ele>1105</ele>
        <time>2021-08-03T09:05:14.271Z</time>
      </trkpt>
      <trkpt lat="47.02662" lon="8.91906">
        <ele>1106</ele>
        <time>2021-08-03T09:05:15.270Z</time>
      </trkpt>
      <trkpt lat="47.02661" lon="8.91905">
        <ele>1107</ele>
        <time>2021-08-03T09:05:16.271Z</time>
      </trkpt>
      <trkpt lat="47.0266" lon="8.91904">
        <ele>1107</ele>
        <time>2021-08-03T09:05:17.271Z</time>
      </trkpt>
      <trkpt lat="47.0266" lon="8.91903">
        <ele>1108</ele>
        <time>2021-08-03T09:05:18.271Z</time>
      </trkpt>
      <trkpt lat="47.0266" lon="8.91902">
        <ele>1109</ele>
        <time>2021-08-03T09:05:19.271Z</time>
      </trkpt>
      <trkpt lat="47.02661" lon="8.91901">
        <ele>1109</ele>
        <time>2021-08-03T09:05:20.271Z</time>
      </trkpt>
      <trkpt lat="47.02661" lon="8.919">
        <ele>1109</ele>
        <time>2021-08-03T09:05:21.270Z</time>
      </trkpt>
      <trkpt lat="47.02661" lon="8.91899">
        <ele>1109</ele>
        <time>2021-08-03T09:05:22.271Z</time>
      </trkpt>
      <trkpt lat="47.02661" lon="8.91898">
        <ele>1109</ele>
        <time>2021-08-03T09:05:23.270Z</time>
      </trkpt>
      <trkpt lat="47.02661" lon="8.91898">
        <ele>1110</ele>
        <time>2021-08-03T09:05:24.271Z</time>
      </trkpt>
      <trkpt lat="47.02662" lon="8.91899">
        <ele>1110</ele>
        <time>2021-08-03T09:05:25.270Z</time>
      </trkpt>
      <trkpt lat="47.02662" lon="8.919">
        <ele>1110</ele>
        <time>2021-08-03T09:05:26.271Z</time>
      </trkpt>
      <trkpt lat="47.02663" lon="8.919">
        <ele>1114</ele>
        <time>2021-08-03T09:05:27.272Z</time>
      </trkpt>
      <trkpt lat="47.02663" lon="8.91899">
        <ele>1115</ele>
        <time>2021-08-03T09:05:28.272Z</time>
      </trkpt>
      <trkpt lat="47.02662" lon="8.91898">
        <ele>1116</ele>
        <time>2021-08-03T09:05:29.271Z</time>
      </trkpt>
      <trkpt lat="47.02656" lon="8.91898">
        <ele>1117</ele>
        <time>2021-08-03T09:05:30.273Z</time>
      </trkpt>
      <trkpt lat="47.02656" lon="8.91898">
        <ele>1117</ele>
        <time>2021-08-03T09:05:31.272Z</time>
      </trkpt>
      <trkpt lat="47.02655" lon="8.91898">
        <ele>1117</ele>
        <time>2021-08-03T09:05:32.272Z</time>
      </trkpt>
      <trkpt lat="47.02655" lon="8.91897">
        <ele>1117</ele>
        <time>2021-08-03T09:05:33.272Z</time>
      </trkpt>
      <trkpt lat="47.02655" lon="8.91896">
        <ele>1117</ele>
        <time>2021-08-03T09:05:34.272Z</time>
      </trkpt>
      <trkpt lat="47.02655" lon="8.91895">
        <ele>1116</ele>
        <time>2021-08-03T09:05:35.273Z</time>
      </trkpt>
      <trkpt lat="47.02654" lon="8.91893">
        <ele>1116</ele>
        <time>2021-08-03T09:05:36.273Z</time>
      </trkpt>
      <trkpt lat="47.02654" lon="8.91892">
        <ele>1115</ele>
        <time>2021-08-03T09:05:37.272Z</time>
      </trkpt>
      <trkpt lat="47.02653" lon="8.91891">
        <ele>1115</ele>
        <time>2021-08-03T09:05:38.272Z</time>
      </trkpt>
      <trkpt lat="47.02652" lon="8.91891">
        <ele>1114</ele>
        <time>2021-08-03T09:05:39.272Z</time>
      </trkpt>
      <trkpt lat="47.02653" lon="8.91891">
        <ele>1114</ele>
        <time>2021-08-03T09:05:40.273Z</time>
      </trkpt>
      <trkpt lat="47.02654" lon="8.9189">
        <ele>1114</ele>
        <time>2021-08-03T09:05:41.272Z</time>
      </trkpt>
      <trkpt lat="47.02654" lon="8.91889">
        <ele>1113</ele>
        <time>2021-08-03T09:05:42.272Z</time>
      </trkpt>
      <trkpt lat="47.02655" lon="8.91888">
        <ele>1113</ele>
        <time>2021-08-03T09:05:43.272Z</time>
      </trkpt>
      <trkpt lat="47.02654" lon="8.91887">
        <ele>1113</ele>
        <time>2021-08-03T09:05:44.272Z</time>
      </trkpt>
      <trkpt lat="47.02654" lon="8.91886">
        <ele>1113</ele>
        <time>2021-08-03T09:05:45.272Z</time>
      </trkpt>
      <trkpt lat="47.02653" lon="8.91886">
        <ele>1113</ele>
        <time>2021-08-03T09:05:46.273Z</time>
      </trkpt>
      <trkpt lat="47.02653" lon="8.91885">
        <ele>1113</ele>
        <time>2021-08-03T09:05:47.272Z</time>
      </trkpt>
      <trkpt lat="47.02653" lon="8.91885">
        <ele>1113</ele>
        <time>2021-08-03T09:05:48.273Z</time>
      </trkpt>
      <trkpt lat="47.02652" lon="8.91885">
        <ele>1113</ele>
        <time>2021-08-03T09:05:49.272Z</time>
      </trkpt>
      <trkpt lat="47.02652" lon="8.91884">
        <ele>1112</ele>
        <time>2021-08-03T09:05:50.273Z</time>
      </trkpt>
      <trkpt lat="47.02652" lon="8.91884">
        <ele>1111</ele>
        <time>2021-08-03T09:05:51.273Z</time>
      </trkpt>
      <trkpt lat="47.02652" lon="8.91883">
        <ele>1111</ele>
        <time>2021-08-03T09:05:52.273Z</time>
      </trkpt>
      <trkpt lat="47.02652" lon="8.91882">
        <ele>1111</ele>
        <time>2021-08-03T09:05:53.272Z</time>
      </trkpt>
      <trkpt lat="47.02652" lon="8.91881">
        <ele>1111</ele>
        <time>2021-08-03T09:05:54.272Z</time>
      </trkpt>
      <trkpt lat="47.02653" lon="8.9188">
        <ele>1112</ele>
        <time>2021-08-03T09:05:55.273Z</time>
      </trkpt>
      <trkpt lat="47.02652" lon="8.9188">
        <ele>1112</ele>
        <time>2021-08-03T09:05:56.273Z</time>
      </trkpt>
      <trkpt lat="47.02652" lon="8.91879">
        <ele>1112</ele>
        <time>2021-08-03T09:05:57.273Z</time>
      </trkpt>
      <trkpt lat="47.0265" lon="8.91878">
        <ele>1112</ele>
        <time>2021-08-03T09:05:58.272Z</time>
      </trkpt>
      <trkpt lat="47.02649" lon="8.91877">
        <ele>1112</ele>
        <time>2021-08-03T09:05:59.273Z</time>
      </trkpt>
      <trkpt lat="47.02648" lon="8.91877">
        <ele>1112</ele>
        <time>2021-08-03T09:06:00.272Z</time>
      </trkpt>
      <trkpt lat="47.02648" lon="8.91877">
        <ele>1105</ele>
        <time>2021-08-03T09:06:01.272Z</time>
      </trkpt>
      <trkpt lat="47.02648" lon="8.91876">
        <ele>1104</ele>
        <time>2021-08-03T09:06:02.272Z</time>
      </trkpt>
      <trkpt lat="47.02649" lon="8.91875">
        <ele>1104</ele>
        <time>2021-08-03T09:06:03.272Z</time>
      </trkpt>
      <trkpt lat="47.02649" lon="8.91874">
        <ele>1104</ele>
        <time>2021-08-03T09:06:04.273Z</time>
      </trkpt>
      <trkpt lat="47.02649" lon="8.91873">
        <ele>1104</ele>
        <time>2021-08-03T09:06:05.273Z</time>
      </trkpt>
      <trkpt lat="47.02649" lon="8.91872">
        <ele>1104</ele>
        <time>2021-08-03T09:06:06.273Z</time>
      </trkpt>
      <trkpt lat="47.02649" lon="8.91871">
        <ele>1104</ele>
        <time>2021-08-03T09:06:07.273Z</time>
      </trkpt>
      <trkpt lat="47.0265" lon="8.9187">
        <ele>1105</ele>
        <time>2021-08-03T09:06:08.273Z</time>
      </trkpt>
      <trkpt lat="47.0265" lon="8.91869">
        <ele>1105</ele>
        <time>2021-08-03T09:06:09.273Z</time>
      </trkpt>
      <trkpt lat="47.02651" lon="8.91868">
        <ele>1105</ele>
        <time>2021-08-03T09:06:10.273Z</time>
      </trkpt>
      <trkpt lat="47.02651" lon="8.91867">
        <ele>1105</ele>
        <time>2021-08-03T09:06:11.273Z</time>
      </trkpt>
      <trkpt lat="47.02651" lon="8.91866">
        <ele>1106</ele>
        <time>2021-08-03T09:06:12.273Z</time>
      </trkpt>
      <trkpt lat="47.02652" lon="8.91864">
        <ele>1106</ele>
        <time>2021-08-03T09:06:13.273Z</time>
      </trkpt>
      <trkpt lat="47.02652" lon="8.91863">
        <ele>1106</ele>
        <time>2021-08-03T09:06:14.273Z</time>
      </trkpt>
      <trkpt lat="47.02652" lon="8.91863">
        <ele>1107</ele>
        <time>2021-08-03T09:06:15.273Z</time>
      </trkpt>
      <trkpt lat="47.02653" lon="8.91863">
        <ele>1107</ele>
        <time>2021-08-03T09:06:16.273Z</time>
      </trkpt>
      <trkpt lat="47.02653" lon="8.91864">
        <ele>1108</ele>
        <time>2021-08-03T09:06:17.273Z</time>
      </trkpt>
      <trkpt lat="47.02654" lon="8.91864">
        <ele>1108</ele>
        <time>2021-08-03T09:06:18.273Z</time>
      </trkpt>
      <trkpt lat="47.02654" lon="8.91864">
        <ele>1109</ele>
        <time>2021-08-03T09:06:19.272Z</time>
      </trkpt>
      <trkpt lat="47.02655" lon="8.91863">
        <ele>1109</ele>
        <time>2021-08-03T09:06:20.273Z</time>
      </trkpt>
      <trkpt lat="47.02655" lon="8.91863">
        <ele>1109</ele>
        <time>2021-08-03T09:06:21.272Z</time>
      </trkpt>
      <trkpt lat="47.02655" lon="8.91862">
        <ele>1109</ele>
        <time>2021-08-03T09:06:22.273Z</time>
      </trkpt>
      <trkpt lat="47.02655" lon="8.91862">
        <ele>1109</ele>
        <time>2021-08-03T09:06:23.272Z</time>
      </trkpt>
      <trkpt lat="47.02656" lon="8.91861">
        <ele>1109</ele>
        <time>2021-08-03T09:06:24.273Z</time>
      </trkpt>
      <trkpt lat="47.02656" lon="8.9186">
        <ele>1109</ele>
        <time>2021-08-03T09:06:25.272Z</time>
      </trkpt>
      <trkpt lat="47.02657" lon="8.91859">
        <ele>1109</ele>
        <time>2021-08-03T09:06:26.273Z</time>
      </trkpt>
      <trkpt lat="47.02657" lon="8.91859">
        <ele>1109</ele>
        <time>2021-08-03T09:06:27.273Z</time>
      </trkpt>
      <trkpt lat="47.02658" lon="8.91858">
        <ele>1110</ele>
        <time>2021-08-03T09:06:28.273Z</time>
      </trkpt>
      <trkpt lat="47.02658" lon="8.91857">
        <ele>1110</ele>
        <time>2021-08-03T09:06:29.273Z</time>
      </trkpt>
      <trkpt lat="47.02658" lon="8.91856">
        <ele>1110</ele>
        <time>2021-08-03T09:06:30.272Z</time>
      </trkpt>
      <trkpt lat="47.02658" lon="8.91854">
        <ele>1110</ele>
        <time>2021-08-03T09:06:31.272Z</time>
      </trkpt>
      <trkpt lat="47.02658" lon="8.91853">
        <ele>1110</ele>
        <time>2021-08-03T09:06:32.273Z</time>
      </trkpt>
      <trkpt lat="47.02659" lon="8.91852">
        <ele>1110</ele>
        <time>2021-08-03T09:06:33.273Z</time>
      </trkpt>
      <trkpt lat="47.02659" lon="8.91851">
        <ele>1110</ele>
        <time>2021-08-03T09:06:34.273Z</time>
      </trkpt>
      <trkpt lat="47.0266" lon="8.9185">
        <ele>1110</ele>
        <time>2021-08-03T09:06:35.273Z</time>
      </trkpt>
      <trkpt lat="47.0266" lon="8.91849">
        <ele>1111</ele>
        <time>2021-08-03T09:06:36.273Z</time>
      </trkpt>
      <trkpt lat="47.02661" lon="8.91849">
        <ele>1111</ele>
        <time>2021-08-03T09:06:37.272Z</time>
      </trkpt>
      <trkpt lat="47.02661" lon="8.91848">
        <ele>1111</ele>
        <time>2021-08-03T09:06:38.273Z</time>
      </trkpt>
      <trkpt lat="47.02662" lon="8.91847">
        <ele>1111</ele>
        <time>2021-08-03T09:06:39.273Z</time>
      </trkpt>
      <trkpt lat="47.02663" lon="8.91847">
        <ele>1112</ele>
        <time>2021-08-03T09:06:40.272Z</time>
      </trkpt>
      <trkpt lat="47.02663" lon="8.91846">
        <ele>1112</ele>
        <time>2021-08-03T09:06:41.273Z</time>
      </trkpt>
      <trkpt lat="47.02665" lon="8.91845">
        <ele>1112</ele>
        <time>2021-08-03T09:06:42.272Z</time>
      </trkpt>
      <trkpt lat="47.02666" lon="8.91844">
        <ele>1112</ele>
        <time>2021-08-03T09:06:43.272Z</time>
      </trkpt>
      <trkpt lat="47.02666" lon="8.91844">
        <ele>1113</ele>
        <time>2021-08-03T09:06:44.273Z</time>
      </trkpt>
      <trkpt lat="47.02666" lon="8.91842">
        <ele>1114</ele>
        <time>2021-08-03T09:06:45.273Z</time>
      </trkpt>
      <trkpt lat="47.02666" lon="8.91842">
        <ele>1115</ele>
        <time>2021-08-03T09:06:46.273Z</time>
      </trkpt>
      <trkpt lat="47.02666" lon="8.91842">
        <ele>1116</ele>
        <time>2021-08-03T09:06:47.272Z</time>
      </trkpt>
      <trkpt lat="47.02667" lon="8.91842">
        <ele>1117</ele>
        <time>2021-08-03T09:06:48.273Z</time>
      </trkpt>
      <trkpt lat="47.02667" lon="8.91842">
        <ele>1118</ele>
        <time>2021-08-03T09:06:49.273Z</time>
      </trkpt>
      <trkpt lat="47.02668" lon="8.91842">
        <ele>1118</ele>
        <time>2021-08-03T09:06:50.273Z</time>
      </trkpt>
      <trkpt lat="47.02668" lon="8.91842">
        <ele>1119</ele>
        <time>2021-08-03T09:06:51.273Z</time>
      </trkpt>
      <trkpt lat="47.02668" lon="8.91841">
        <ele>1120</ele>
        <time>2021-08-03T09:06:52.272Z</time>
      </trkpt>
      <trkpt lat="47.02668" lon="8.91841">
        <ele>1121</ele>
        <time>2021-08-03T09:06:53.272Z</time>
      </trkpt>
      <trkpt lat="47.02669" lon="8.91841">
        <ele>1121</ele>
        <time>2021-08-03T09:06:54.273Z</time>
      </trkpt>
      <trkpt lat="47.02669" lon="8.91841">
        <ele>1121</ele>
        <time>2021-08-03T09:06:55.272Z</time>
      </trkpt>
      <trkpt lat="47.0267" lon="8.91841">
        <ele>1122</ele>
        <time>2021-08-03T09:06:56.273Z</time>
      </trkpt>
      <trkpt lat="47.02671" lon="8.91841">
        <ele>1121</ele>
        <time>2021-08-03T09:06:57.273Z</time>
      </trkpt>
      <trkpt lat="47.02672" lon="8.91841">
        <ele>1121</ele>
        <time>2021-08-03T09:06:58.272Z</time>
      </trkpt>
      <trkpt lat="47.02673" lon="8.91841">
        <ele>1121</ele>
        <time>2021-08-03T09:06:59.273Z</time>
      </trkpt>
      <trkpt lat="47.02673" lon="8.91841">
        <ele>1120</ele>
        <time>2021-08-03T09:07:00.273Z</time>
      </trkpt>
      <trkpt lat="47.02674" lon="8.9184">
        <ele>1120</ele>
        <time>2021-08-03T09:07:01.273Z</time>
      </trkpt>
      <trkpt lat="47.02674" lon="8.91839">
        <ele>1120</ele>
        <time>2021-08-03T09:07:02.273Z</time>
      </trkpt>
      <trkpt lat="47.02675" lon="8.91838">
        <ele>1120</ele>
        <time>2021-08-03T09:07:03.273Z</time>
      </trkpt>
      <trkpt lat="47.02675" lon="8.91837">
        <ele>1119</ele>
        <time>2021-08-03T09:07:04.272Z</time>
      </trkpt>
      <trkpt lat="47.02676" lon="8.91837">
        <ele>1119</ele>
        <time>2021-08-03T09:07:05.273Z</time>
      </trkpt>
      <trkpt lat="47.02676" lon="8.91837">
        <ele>1119</ele>
        <time>2021-08-03T09:07:06.272Z</time>
      </trkpt>
      <trkpt lat="47.02677" lon="8.91837">
        <ele>1119</ele>
        <time>2021-08-03T09:07:07.272Z</time>
      </trkpt>
      <trkpt lat="47.02678" lon="8.91837">
        <ele>1118</ele>
        <time>2021-08-03T09:07:08.273Z</time>
      </trkpt>
      <trkpt lat="47.02678" lon="8.91836">
        <ele>1118</ele>
        <time>2021-08-03T09:07:09.272Z</time>
      </trkpt>
      <trkpt lat="47.02679" lon="8.91834">
        <ele>1118</ele>
        <time>2021-08-03T09:07:10.272Z</time>
      </trkpt>
      <trkpt lat="47.02679" lon="8.91833">
        <ele>1118</ele>
        <time>2021-08-03T09:07:11.273Z</time>
      </trkpt>
      <trkpt lat="47.02679" lon="8.91832">
        <ele>1118</ele>
        <time>2021-08-03T09:07:12.273Z</time>
      </trkpt>
      <trkpt lat="47.0268" lon="8.91831">
        <ele>1118</ele>
        <time>2021-08-03T09:07:13.273Z</time>
      </trkpt>
      <trkpt lat="47.0268" lon="8.91829">
        <ele>1118</ele>
        <time>2021-08-03T09:07:14.273Z</time>
      </trkpt>
      <trkpt lat="47.02681" lon="8.91827">
        <ele>1118</ele>
        <time>2021-08-03T09:07:15.273Z</time>
      </trkpt>
      <trkpt lat="47.02681" lon="8.91826">
        <ele>1118</ele>
        <time>2021-08-03T09:07:16.272Z</time>
      </trkpt>
      <trkpt lat="47.02682" lon="8.91826">
        <ele>1118</ele>
        <time>2021-08-03T09:07:17.272Z</time>
      </trkpt>
      <trkpt lat="47.02682" lon="8.91827">
        <ele>1119</ele>
        <time>2021-08-03T09:07:18.273Z</time>
      </trkpt>
      <trkpt lat="47.02683" lon="8.91827">
        <ele>1119</ele>
        <time>2021-08-03T09:07:19.273Z</time>
      </trkpt>
      <trkpt lat="47.02683" lon="8.91827">
        <ele>1119</ele>
        <time>2021-08-03T09:07:20.272Z</time>
      </trkpt>
      <trkpt lat="47.02683" lon="8.91828">
        <ele>1119</ele>
        <time>2021-08-03T09:07:21.273Z</time>
      </trkpt>
      <trkpt lat="47.02683" lon="8.91828">
        <ele>1119</ele>
        <time>2021-08-03T09:07:22.272Z</time>
      </trkpt>
      <trkpt lat="47.02684" lon="8.91827">
        <ele>1120</ele>
        <time>2021-08-03T09:07:23.273Z</time>
      </trkpt>
      <trkpt lat="47.02684" lon="8.91827">
        <ele>1120</ele>
        <time>2021-08-03T09:07:24.273Z</time>
      </trkpt>
      <trkpt lat="47.02685" lon="8.91826">
        <ele>1120</ele>
        <time>2021-08-03T09:07:25.272Z</time>
      </trkpt>
      <trkpt lat="47.02685" lon="8.91827">
        <ele>1120</ele>
        <time>2021-08-03T09:07:26.273Z</time>
      </trkpt>
      <trkpt lat="47.02686" lon="8.91827">
        <ele>1121</ele>
        <time>2021-08-03T09:07:27.273Z</time>
      </trkpt>
      <trkpt lat="47.02686" lon="8.91828">
        <ele>1121</ele>
        <time>2021-08-03T09:07:28.272Z</time>
      </trkpt>
      <trkpt lat="47.02686" lon="8.91828">
        <ele>1122</ele>
        <time>2021-08-03T09:07:29.273Z</time>
      </trkpt>
      <trkpt lat="47.02687" lon="8.91828">
        <ele>1122</ele>
        <time>2021-08-03T09:07:30.273Z</time>
      </trkpt>
      <trkpt lat="47.02687" lon="8.91828">
        <ele>1123</ele>
        <time>2021-08-03T09:07:31.273Z</time>
      </trkpt>
      <trkpt lat="47.02688" lon="8.91828">
        <ele>1123</ele>
        <time>2021-08-03T09:07:32.272Z</time>
      </trkpt>
      <trkpt lat="47.02689" lon="8.91829">
        <ele>1123</ele>
        <time>2021-08-03T09:07:33.273Z</time>
      </trkpt>
      <trkpt lat="47.0269" lon="8.9183">
        <ele>1123</ele>
        <time>2021-08-03T09:07:34.273Z</time>
      </trkpt>
      <trkpt lat="47.0269" lon="8.9183">
        <ele>1124</ele>
        <time>2021-08-03T09:07:35.273Z</time>
      </trkpt>
      <trkpt lat="47.0269" lon="8.91831">
        <ele>1124</ele>
        <time>2021-08-03T09:07:36.273Z</time>
      </trkpt>
      <trkpt lat="47.0269" lon="8.91832">
        <ele>1124</ele>
        <time>2021-08-03T09:07:37.273Z</time>
      </trkpt>
      <trkpt lat="47.02691" lon="8.91833">
        <ele>1124</ele>
        <time>2021-08-03T09:07:38.273Z</time>
      </trkpt>
      <trkpt lat="47.02692" lon="8.91833">
        <ele>1125</ele>
        <time>2021-08-03T09:07:39.273Z</time>
      </trkpt>
      <trkpt lat="47.02692" lon="8.91834">
        <ele>1125</ele>
        <time>2021-08-03T09:07:40.273Z</time>
      </trkpt>
      <trkpt lat="47.02693" lon="8.91835">
        <ele>1125</ele>
        <time>2021-08-03T09:07:41.272Z</time>
      </trkpt>
      <trkpt lat="47.02693" lon="8.91836">
        <ele>1126</ele>
        <time>2021-08-03T09:07:42.273Z</time>
      </trkpt>
      <trkpt lat="47.02694" lon="8.91837">
        <ele>1126</ele>
        <time>2021-08-03T09:07:43.273Z</time>
      </trkpt>
      <trkpt lat="47.02694" lon="8.91837">
        <ele>1127</ele>
        <time>2021-08-03T09:07:44.273Z</time>
      </trkpt>
      <trkpt lat="47.02695" lon="8.91837">
        <ele>1127</ele>
        <time>2021-08-03T09:07:45.273Z</time>
      </trkpt>
      <trkpt lat="47.02696" lon="8.91837">
        <ele>1127</ele>
        <time>2021-08-03T09:07:46.273Z</time>
      </trkpt>
      <trkpt lat="47.02697" lon="8.91837">
        <ele>1128</ele>
        <time>2021-08-03T09:07:47.273Z</time>
      </trkpt>
      <trkpt lat="47.02698" lon="8.91838">
        <ele>1128</ele>
        <time>2021-08-03T09:07:48.272Z</time>
      </trkpt>
      <trkpt lat="47.02699" lon="8.91838">
        <ele>1129</ele>
        <time>2021-08-03T09:07:49.273Z</time>
      </trkpt>
      <trkpt lat="47.027" lon="8.91838">
        <ele>1129</ele>
        <time>2021-08-03T09:07:50.272Z</time>
      </trkpt>
      <trkpt lat="47.02701" lon="8.91839">
        <ele>1129</ele>
        <time>2021-08-03T09:07:51.273Z</time>
      </trkpt>
      <trkpt lat="47.02701" lon="8.91838">
        <ele>1129</ele>
        <time>2021-08-03T09:07:52.273Z</time>
      </trkpt>
      <trkpt lat="47.02703" lon="8.91838">
        <ele>1129</ele>
        <time>2021-08-03T09:07:53.273Z</time>
      </trkpt>
      <trkpt lat="47.02703" lon="8.91837">
        <ele>1129</ele>
        <time>2021-08-03T09:07:54.273Z</time>
      </trkpt>
      <trkpt lat="47.02704" lon="8.91837">
        <ele>1129</ele>
        <time>2021-08-03T09:07:55.272Z</time>
      </trkpt>
      <trkpt lat="47.02705" lon="8.91836">
        <ele>1129</ele>
        <time>2021-08-03T09:07:56.272Z</time>
      </trkpt>
      <trkpt lat="47.02706" lon="8.91835">
        <ele>1128</ele>
        <time>2021-08-03T09:07:57.272Z</time>
      </trkpt>
      <trkpt lat="47.02706" lon="8.91834">
        <ele>1128</ele>
        <time>2021-08-03T09:07:58.273Z</time>
      </trkpt>
      <trkpt lat="47.02706" lon="8.91833">
        <ele>1128</ele>
        <time>2021-08-03T09:07:59.273Z</time>
      </trkpt>
      <trkpt lat="47.02706" lon="8.91832">
        <ele>1128</ele>
        <time>2021-08-03T09:08:00.273Z</time>
      </trkpt>
      <trkpt lat="47.02706" lon="8.91831">
        <ele>1129</ele>
        <time>2021-08-03T09:08:01.273Z</time>
      </trkpt>
      <trkpt lat="47.02706" lon="8.91831">
        <ele>1129</ele>
        <time>2021-08-03T09:08:02.273Z</time>
      </trkpt>
      <trkpt lat="47.02706" lon="8.9183">
        <ele>1130</ele>
        <time>2021-08-03T09:08:03.272Z</time>
      </trkpt>
      <trkpt lat="47.02706" lon="8.91829">
        <ele>1130</ele>
        <time>2021-08-03T09:08:04.272Z</time>
      </trkpt>
      <trkpt lat="47.02706" lon="8.91828">
        <ele>1130</ele>
        <time>2021-08-03T09:08:05.272Z</time>
      </trkpt>
      <trkpt lat="47.02706" lon="8.91826">
        <ele>1130</ele>
        <time>2021-08-03T09:08:06.272Z</time>
      </trkpt>
      <trkpt lat="47.02706" lon="8.91825">
        <ele>1130</ele>
        <time>2021-08-03T09:08:07.272Z</time>
      </trkpt>
      <trkpt lat="47.02706" lon="8.91824">
        <ele>1130</ele>
        <time>2021-08-03T09:08:08.273Z</time>
      </trkpt>
      <trkpt lat="47.02707" lon="8.91822">
        <ele>1130</ele>
        <time>2021-08-03T09:08:09.272Z</time>
      </trkpt>
      <trkpt lat="47.02707" lon="8.91821">
        <ele>1130</ele>
        <time>2021-08-03T09:08:10.272Z</time>
      </trkpt>
      <trkpt lat="47.02708" lon="8.91819">
        <ele>1130</ele>
        <time>2021-08-03T09:08:11.272Z</time>
      </trkpt>
      <trkpt lat="47.02709" lon="8.91818">
        <ele>1130</ele>
        <time>2021-08-03T09:08:12.272Z</time>
      </trkpt>
      <trkpt lat="47.0271" lon="8.91817">
        <ele>1131</ele>
        <time>2021-08-03T09:08:13.272Z</time>
      </trkpt>
      <trkpt lat="47.0271" lon="8.91817">
        <ele>1131</ele>
        <time>2021-08-03T09:08:14.273Z</time>
      </trkpt>
      <trkpt lat="47.0271" lon="8.91816">
        <ele>1131</ele>
        <time>2021-08-03T09:08:15.273Z</time>
      </trkpt>
      <trkpt lat="47.0271" lon="8.91815">
        <ele>1131</ele>
        <time>2021-08-03T09:08:16.273Z</time>
      </trkpt>
      <trkpt lat="47.0271" lon="8.91814">
        <ele>1131</ele>
        <time>2021-08-03T09:08:17.273Z</time>
      </trkpt>
      <trkpt lat="47.02711" lon="8.91812">
        <ele>1131</ele>
        <time>2021-08-03T09:08:18.272Z</time>
      </trkpt>
      <trkpt lat="47.02711" lon="8.91811">
        <ele>1132</ele>
        <time>2021-08-03T09:08:19.273Z</time>
      </trkpt>
      <trkpt lat="47.02711" lon="8.91811">
        <ele>1132</ele>
        <time>2021-08-03T09:08:20.273Z</time>
      </trkpt>
      <trkpt lat="47.02712" lon="8.9181">
        <ele>1132</ele>
        <time>2021-08-03T09:08:21.273Z</time>
      </trkpt>
      <trkpt lat="47.02712" lon="8.91809">
        <ele>1133</ele>
        <time>2021-08-03T09:08:22.273Z</time>
      </trkpt>
      <trkpt lat="47.02713" lon="8.91808">
        <ele>1133</ele>
        <time>2021-08-03T09:08:23.273Z</time>
      </trkpt>
      <trkpt lat="47.02714" lon="8.91807">
        <ele>1133</ele>
        <time>2021-08-03T09:08:24.273Z</time>
      </trkpt>
      <trkpt lat="47.02715" lon="8.91807">
        <ele>1134</ele>
        <time>2021-08-03T09:08:25.273Z</time>
      </trkpt>
      <trkpt lat="47.02715" lon="8.91807">
        <ele>1134</ele>
        <time>2021-08-03T09:08:26.273Z</time>
      </trkpt>
      <trkpt lat="47.02716" lon="8.91807">
        <ele>1134</ele>
        <time>2021-08-03T09:08:27.272Z</time>
      </trkpt>
      <trkpt lat="47.02717" lon="8.91808">
        <ele>1134</ele>
        <time>2021-08-03T09:08:28.272Z</time>
      </trkpt>
      <trkpt lat="47.02718" lon="8.91808">
        <ele>1133</ele>
        <time>2021-08-03T09:08:29.273Z</time>
      </trkpt>
      <trkpt lat="47.02719" lon="8.91807">
        <ele>1133</ele>
        <time>2021-08-03T09:08:30.273Z</time>
      </trkpt>
      <trkpt lat="47.02719" lon="8.91807">
        <ele>1133</ele>
        <time>2021-08-03T09:08:31.272Z</time>
      </trkpt>
      <trkpt lat="47.0272" lon="8.91806">
        <ele>1133</ele>
        <time>2021-08-03T09:08:32.273Z</time>
      </trkpt>
      <trkpt lat="47.0272" lon="8.91805">
        <ele>1133</ele>
        <time>2021-08-03T09:08:33.273Z</time>
      </trkpt>
      <trkpt lat="47.02721" lon="8.91806">
        <ele>1132</ele>
        <time>2021-08-03T09:08:34.273Z</time>
      </trkpt>
      <trkpt lat="47.02721" lon="8.91806">
        <ele>1132</ele>
        <time>2021-08-03T09:08:35.273Z</time>
      </trkpt>
      <trkpt lat="47.02721" lon="8.91806">
        <ele>1132</ele>
        <time>2021-08-03T09:08:36.273Z</time>
      </trkpt>
      <trkpt lat="47.0272" lon="8.91806">
        <ele>1132</ele>
        <time>2021-08-03T09:08:37.273Z</time>
      </trkpt>
      <trkpt lat="47.02719" lon="8.91807">
        <ele>1132</ele>
        <time>2021-08-03T09:08:38.272Z</time>
      </trkpt>
      <trkpt lat="47.02719" lon="8.91806">
        <ele>1131</ele>
        <time>2021-08-03T09:08:39.273Z</time>
      </trkpt>
      <trkpt lat="47.02719" lon="8.91806">
        <ele>1131</ele>
        <time>2021-08-03T09:08:40.273Z</time>
      </trkpt>
      <trkpt lat="47.02719" lon="8.91805">
        <ele>1131</ele>
        <time>2021-08-03T09:08:41.272Z</time>
      </trkpt>
      <trkpt lat="47.02719" lon="8.91804">
        <ele>1130</ele>
        <time>2021-08-03T09:08:42.273Z</time>
      </trkpt>
      <trkpt lat="47.0272" lon="8.91805">
        <ele>1130</ele>
        <time>2021-08-03T09:08:43.274Z</time>
      </trkpt>
      <trkpt lat="47.0272" lon="8.91805">
        <ele>1129</ele>
        <time>2021-08-03T09:08:44.274Z</time>
      </trkpt>
      <trkpt lat="47.0272" lon="8.91806">
        <ele>1129</ele>
        <time>2021-08-03T09:08:45.273Z</time>
      </trkpt>
      <trkpt lat="47.0272" lon="8.91806">
        <ele>1128</ele>
        <time>2021-08-03T09:08:46.274Z</time>
      </trkpt>
      <trkpt lat="47.02722" lon="8.91806">
        <ele>1124</ele>
        <time>2021-08-03T09:08:47.275Z</time>
      </trkpt>
      <trkpt lat="47.02722" lon="8.91805">
        <ele>1124</ele>
        <time>2021-08-03T09:08:48.274Z</time>
      </trkpt>
      <trkpt lat="47.02722" lon="8.91805">
        <ele>1124</ele>
        <time>2021-08-03T09:08:49.274Z</time>
      </trkpt>
      <trkpt lat="47.02722" lon="8.91805">
        <ele>1124</ele>
        <time>2021-08-03T09:08:50.275Z</time>
      </trkpt>
      <trkpt lat="47.02722" lon="8.91804">
        <ele>1124</ele>
        <time>2021-08-03T09:08:51.275Z</time>
      </trkpt>
      <trkpt lat="47.02722" lon="8.91804">
        <ele>1124</ele>
        <time>2021-08-03T09:08:52.274Z</time>
      </trkpt>
      <trkpt lat="47.02724" lon="8.91806">
        <ele>1124</ele>
        <time>2021-08-03T09:08:53.274Z</time>
      </trkpt>
      <trkpt lat="47.02725" lon="8.91808">
        <ele>1124</ele>
        <time>2021-08-03T09:08:54.275Z</time>
      </trkpt>
      <trkpt lat="47.02726" lon="8.91809">
        <ele>1123</ele>
        <time>2021-08-03T09:08:55.274Z</time>
      </trkpt>
      <trkpt lat="47.02726" lon="8.91811">
        <ele>1123</ele>
        <time>2021-08-03T09:08:56.274Z</time>
      </trkpt>
      <trkpt lat="47.02726" lon="8.91812">
        <ele>1123</ele>
        <time>2021-08-03T09:08:57.275Z</time>
      </trkpt>
      <trkpt lat="47.02725" lon="8.91813">
        <ele>1122</ele>
        <time>2021-08-03T09:08:58.274Z</time>
      </trkpt>
      <trkpt lat="47.02725" lon="8.91813">
        <ele>1122</ele>
        <time>2021-08-03T09:08:59.274Z</time>
      </trkpt>
      <trkpt lat="47.02724" lon="8.91814">
        <ele>1122</ele>
        <time>2021-08-03T09:09:00.274Z</time>
      </trkpt>
      <trkpt lat="47.02725" lon="8.91814">
        <ele>1122</ele>
        <time>2021-08-03T09:09:01.274Z</time>
      </trkpt>
      <trkpt lat="47.02726" lon="8.91814">
        <ele>1122</ele>
        <time>2021-08-03T09:09:02.274Z</time>
      </trkpt>
      <trkpt lat="47.02727" lon="8.91814">
        <ele>1122</ele>
        <time>2021-08-03T09:09:03.274Z</time>
      </trkpt>
      <trkpt lat="47.02728" lon="8.91813">
        <ele>1123</ele>
        <time>2021-08-03T09:09:04.274Z</time>
      </trkpt>
      <trkpt lat="47.02728" lon="8.91811">
        <ele>1123</ele>
        <time>2021-08-03T09:09:05.274Z</time>
      </trkpt>
      <trkpt lat="47.02728" lon="8.91811">
        <ele>1124</ele>
        <time>2021-08-03T09:09:06.274Z</time>
      </trkpt>
      <trkpt lat="47.02728" lon="8.9181">
        <ele>1125</ele>
        <time>2021-08-03T09:09:07.275Z</time>
      </trkpt>
      <trkpt lat="47.02729" lon="8.91809">
        <ele>1125</ele>
        <time>2021-08-03T09:09:08.274Z</time>
      </trkpt>
      <trkpt lat="47.02729" lon="8.91809">
        <ele>1126</ele>
        <time>2021-08-03T09:09:09.274Z</time>
      </trkpt>
      <trkpt lat="47.02729" lon="8.91809">
        <ele>1127</ele>
        <time>2021-08-03T09:09:10.274Z</time>
      </trkpt>
      <trkpt lat="47.02729" lon="8.91808">
        <ele>1128</ele>
        <time>2021-08-03T09:09:11.274Z</time>
      </trkpt>
      <trkpt lat="47.0273" lon="8.91807">
        <ele>1128</ele>
        <time>2021-08-03T09:09:12.275Z</time>
      </trkpt>
      <trkpt lat="47.02731" lon="8.91806">
        <ele>1128</ele>
        <time>2021-08-03T09:09:13.274Z</time>
      </trkpt>
      <trkpt lat="47.02731" lon="8.91805">
        <ele>1129</ele>
        <time>2021-08-03T09:09:14.274Z</time>
      </trkpt>
      <trkpt lat="47.02732" lon="8.91804">
        <ele>1129</ele>
        <time>2021-08-03T09:09:15.274Z</time>
      </trkpt>
      <trkpt lat="47.02732" lon="8.91804">
        <ele>1129</ele>
        <time>2021-08-03T09:09:16.275Z</time>
      </trkpt>
      <trkpt lat="47.02732" lon="8.91804">
        <ele>1130</ele>
        <time>2021-08-03T09:09:17.274Z</time>
      </trkpt>
      <trkpt lat="47.02733" lon="8.91804">
        <ele>1130</ele>
        <time>2021-08-03T09:09:18.274Z</time>
      </trkpt>
      <trkpt lat="47.02733" lon="8.91805">
        <ele>1130</ele>
        <time>2021-08-03T09:09:19.274Z</time>
      </trkpt>
      <trkpt lat="47.02733" lon="8.91806">
        <ele>1130</ele>
        <time>2021-08-03T09:09:20.274Z</time>
      </trkpt>
      <trkpt lat="47.02734" lon="8.91807">
        <ele>1130</ele>
        <time>2021-08-03T09:09:21.274Z</time>
      </trkpt>
      <trkpt lat="47.02734" lon="8.91807">
        <ele>1130</ele>
        <time>2021-08-03T09:09:22.274Z</time>
      </trkpt>
      <trkpt lat="47.02735" lon="8.91806">
        <ele>1130</ele>
        <time>2021-08-03T09:09:23.274Z</time>
      </trkpt>
      <trkpt lat="47.02736" lon="8.91805">
        <ele>1130</ele>
        <time>2021-08-03T09:09:24.274Z</time>
      </trkpt>
      <trkpt lat="47.02736" lon="8.91805">
        <ele>1131</ele>
        <time>2021-08-03T09:09:25.274Z</time>
      </trkpt>
      <trkpt lat="47.02737" lon="8.91804">
        <ele>1131</ele>
        <time>2021-08-03T09:09:26.274Z</time>
      </trkpt>
      <trkpt lat="47.02738" lon="8.91803">
        <ele>1131</ele>
        <time>2021-08-03T09:09:27.274Z</time>
      </trkpt>
      <trkpt lat="47.02738" lon="8.91802">
        <ele>1132</ele>
        <time>2021-08-03T09:09:28.274Z</time>
      </trkpt>
      <trkpt lat="47.02739" lon="8.91802">
        <ele>1132</ele>
        <time>2021-08-03T09:09:29.274Z</time>
      </trkpt>
      <trkpt lat="47.0274" lon="8.91803">
        <ele>1132</ele>
        <time>2021-08-03T09:09:30.275Z</time>
      </trkpt>
      <trkpt lat="47.02741" lon="8.91803">
        <ele>1132</ele>
        <time>2021-08-03T09:09:31.275Z</time>
      </trkpt>
      <trkpt lat="47.02741" lon="8.91803">
        <ele>1132</ele>
        <time>2021-08-03T09:09:32.274Z</time>
      </trkpt>
      <trkpt lat="47.02741" lon="8.91803">
        <ele>1132</ele>
        <time>2021-08-03T09:09:33.274Z</time>
      </trkpt>
      <trkpt lat="47.02742" lon="8.91801">
        <ele>1133</ele>
        <time>2021-08-03T09:09:34.274Z</time>
      </trkpt>
      <trkpt lat="47.02742" lon="8.91801">
        <ele>1133</ele>
        <time>2021-08-03T09:09:35.274Z</time>
      </trkpt>
      <trkpt lat="47.02742" lon="8.918">
        <ele>1133</ele>
        <time>2021-08-03T09:09:36.275Z</time>
      </trkpt>
      <trkpt lat="47.02742" lon="8.91799">
        <ele>1134</ele>
        <time>2021-08-03T09:09:37.275Z</time>
      </trkpt>
      <trkpt lat="47.02742" lon="8.91797">
        <ele>1134</ele>
        <time>2021-08-03T09:09:38.274Z</time>
      </trkpt>
      <trkpt lat="47.02742" lon="8.91795">
        <ele>1134</ele>
        <time>2021-08-03T09:09:39.274Z</time>
      </trkpt>
      <trkpt lat="47.02741" lon="8.91794">
        <ele>1134</ele>
        <time>2021-08-03T09:09:40.275Z</time>
      </trkpt>
      <trkpt lat="47.02742" lon="8.91793">
        <ele>1135</ele>
        <time>2021-08-03T09:09:41.275Z</time>
      </trkpt>
      <trkpt lat="47.02742" lon="8.91792">
        <ele>1135</ele>
        <time>2021-08-03T09:09:42.274Z</time>
      </trkpt>
      <trkpt lat="47.02741" lon="8.91791">
        <ele>1135</ele>
        <time>2021-08-03T09:09:43.275Z</time>
      </trkpt>
      <trkpt lat="47.02741" lon="8.9179">
        <ele>1135</ele>
        <time>2021-08-03T09:09:44.275Z</time>
      </trkpt>
      <trkpt lat="47.02741" lon="8.91788">
        <ele>1135</ele>
        <time>2021-08-03T09:09:45.275Z</time>
      </trkpt>
      <trkpt lat="47.02741" lon="8.91786">
        <ele>1136</ele>
        <time>2021-08-03T09:09:46.275Z</time>
      </trkpt>
      <trkpt lat="47.02741" lon="8.91784">
        <ele>1136</ele>
        <time>2021-08-03T09:09:47.274Z</time>
      </trkpt>
      <trkpt lat="47.0274" lon="8.91782">
        <ele>1136</ele>
        <time>2021-08-03T09:09:48.274Z</time>
      </trkpt>
      <trkpt lat="47.0274" lon="8.91781">
        <ele>1137</ele>
        <time>2021-08-03T09:09:49.275Z</time>
      </trkpt>
      <trkpt lat="47.0274" lon="8.9178">
        <ele>1137</ele>
        <time>2021-08-03T09:09:50.275Z</time>
      </trkpt>
      <trkpt lat="47.02741" lon="8.91778">
        <ele>1137</ele>
        <time>2021-08-03T09:09:51.275Z</time>
      </trkpt>
      <trkpt lat="47.02742" lon="8.91776">
        <ele>1138</ele>
        <time>2021-08-03T09:09:52.274Z</time>
      </trkpt>
      <trkpt lat="47.02743" lon="8.91775">
        <ele>1139</ele>
        <time>2021-08-03T09:09:53.275Z</time>
      </trkpt>
      <trkpt lat="47.02744" lon="8.91774">
        <ele>1139</ele>
        <time>2021-08-03T09:09:54.275Z</time>
      </trkpt>
      <trkpt lat="47.02745" lon="8.91772">
        <ele>1140</ele>
        <time>2021-08-03T09:09:55.274Z</time>
      </trkpt>
      <trkpt lat="47.02747" lon="8.91771">
        <ele>1141</ele>
        <time>2021-08-03T09:09:56.274Z</time>
      </trkpt>
      <trkpt lat="47.02748" lon="8.9177">
        <ele>1141</ele>
        <time>2021-08-03T09:09:57.274Z</time>
      </trkpt>
      <trkpt lat="47.02748" lon="8.91768">
        <ele>1141</ele>
        <time>2021-08-03T09:09:58.274Z</time>
      </trkpt>
      <trkpt lat="47.02749" lon="8.91767">
        <ele>1142</ele>
        <time>2021-08-03T09:09:59.275Z</time>
      </trkpt>
      <trkpt lat="47.02749" lon="8.91767">
        <ele>1142</ele>
        <time>2021-08-03T09:10:00.275Z</time>
      </trkpt>
      <trkpt lat="47.02749" lon="8.91766">
        <ele>1142</ele>
        <time>2021-08-03T09:10:01.274Z</time>
      </trkpt>
      <trkpt lat="47.02749" lon="8.91765">
        <ele>1142</ele>
        <time>2021-08-03T09:10:02.275Z</time>
      </trkpt>
      <trkpt lat="47.02749" lon="8.91763">
        <ele>1143</ele>
        <time>2021-08-03T09:10:03.274Z</time>
      </trkpt>
      <trkpt lat="47.02749" lon="8.91762">
        <ele>1143</ele>
        <time>2021-08-03T09:10:04.274Z</time>
      </trkpt>
      <trkpt lat="47.0275" lon="8.91761">
        <ele>1143</ele>
        <time>2021-08-03T09:10:05.275Z</time>
      </trkpt>
      <trkpt lat="47.02751" lon="8.9176">
        <ele>1143</ele>
        <time>2021-08-03T09:10:06.274Z</time>
      </trkpt>
      <trkpt lat="47.02752" lon="8.9176">
        <ele>1144</ele>
        <time>2021-08-03T09:10:07.274Z</time>
      </trkpt>
      <trkpt lat="47.02753" lon="8.91763">
        <ele>1144</ele>
        <time>2021-08-03T09:10:08.274Z</time>
      </trkpt>
      <trkpt lat="47.02753" lon="8.91764">
        <ele>1145</ele>
        <time>2021-08-03T09:10:09.274Z</time>
      </trkpt>
      <trkpt lat="47.02753" lon="8.91765">
        <ele>1145</ele>
        <time>2021-08-03T09:10:10.275Z</time>
      </trkpt>
      <trkpt lat="47.02753" lon="8.91765">
        <ele>1146</ele>
        <time>2021-08-03T09:10:11.274Z</time>
      </trkpt>
      <trkpt lat="47.02753" lon="8.91766">
        <ele>1146</ele>
        <time>2021-08-03T09:10:12.274Z</time>
      </trkpt>
      <trkpt lat="47.02753" lon="8.91765">
        <ele>1146</ele>
        <time>2021-08-03T09:10:13.275Z</time>
      </trkpt>
      <trkpt lat="47.02754" lon="8.91763">
        <ele>1147</ele>
        <time>2021-08-03T09:10:14.274Z</time>
      </trkpt>
      <trkpt lat="47.02754" lon="8.91762">
        <ele>1147</ele>
        <time>2021-08-03T09:10:15.274Z</time>
      </trkpt>
      <trkpt lat="47.02754" lon="8.91761">
        <ele>1147</ele>
        <time>2021-08-03T09:10:16.275Z</time>
      </trkpt>
      <trkpt lat="47.02754" lon="8.9176">
        <ele>1147</ele>
        <time>2021-08-03T09:10:17.274Z</time>
      </trkpt>
      <trkpt lat="47.02753" lon="8.9176">
        <ele>1147</ele>
        <time>2021-08-03T09:10:18.275Z</time>
      </trkpt>
      <trkpt lat="47.02753" lon="8.9176">
        <ele>1147</ele>
        <time>2021-08-03T09:10:19.274Z</time>
      </trkpt>
      <trkpt lat="47.02752" lon="8.9176">
        <ele>1147</ele>
        <time>2021-08-03T09:10:20.275Z</time>
      </trkpt>
      <trkpt lat="47.02752" lon="8.9176">
        <ele>1146</ele>
        <time>2021-08-03T09:10:21.274Z</time>
      </trkpt>
      <trkpt lat="47.02752" lon="8.9176">
        <ele>1146</ele>
        <time>2021-08-03T09:10:22.274Z</time>
      </trkpt>
      <trkpt lat="47.02751" lon="8.9176">
        <ele>1146</ele>
        <time>2021-08-03T09:10:23.274Z</time>
      </trkpt>
      <trkpt lat="47.0275" lon="8.91761">
        <ele>1146</ele>
        <time>2021-08-03T09:10:24.275Z</time>
      </trkpt>
      <trkpt lat="47.02749" lon="8.91761">
        <ele>1145</ele>
        <time>2021-08-03T09:10:25.274Z</time>
      </trkpt>
      <trkpt lat="47.02749" lon="8.91762">
        <ele>1145</ele>
        <time>2021-08-03T09:10:26.275Z</time>
      </trkpt>
      <trkpt lat="47.02748" lon="8.91763">
        <ele>1144</ele>
        <time>2021-08-03T09:10:27.274Z</time>
      </trkpt>
      <trkpt lat="47.02749" lon="8.91764">
        <ele>1144</ele>
        <time>2021-08-03T09:10:28.274Z</time>
      </trkpt>
      <trkpt lat="47.0275" lon="8.91766">
        <ele>1143</ele>
        <time>2021-08-03T09:10:29.274Z</time>
      </trkpt>
      <trkpt lat="47.02751" lon="8.91767">
        <ele>1140</ele>
        <time>2021-08-03T09:10:30.276Z</time>
      </trkpt>
      <trkpt lat="47.0275" lon="8.91767">
        <ele>1140</ele>
        <time>2021-08-03T09:10:31.275Z</time>
      </trkpt>
      <trkpt lat="47.0275" lon="8.91767">
        <ele>1140</ele>
        <time>2021-08-03T09:10:32.276Z</time>
      </trkpt>
      <trkpt lat="47.0275" lon="8.91766">
        <ele>1139</ele>
        <time>2021-08-03T09:10:33.276Z</time>
      </trkpt>
      <trkpt lat="47.0275" lon="8.91766">
        <ele>1139</ele>
        <time>2021-08-03T09:10:34.275Z</time>
      </trkpt>
      <trkpt lat="47.0275" lon="8.91768">
        <ele>1138</ele>
        <time>2021-08-03T09:10:35.278Z</time>
      </trkpt>
      <trkpt lat="47.0275" lon="8.9177">
        <ele>1137</ele>
        <time>2021-08-03T09:10:36.278Z</time>
      </trkpt>
      <trkpt lat="47.0275" lon="8.91771">
        <ele>1136</ele>
        <time>2021-08-03T09:10:37.277Z</time>
      </trkpt>
      <trkpt lat="47.0275" lon="8.91771">
        <ele>1135</ele>
        <time>2021-08-03T09:10:38.277Z</time>
      </trkpt>
      <trkpt lat="47.02751" lon="8.91771">
        <ele>1136</ele>
        <time>2021-08-03T09:10:39.278Z</time>
      </trkpt>
      <trkpt lat="47.02752" lon="8.9177">
        <ele>1137</ele>
        <time>2021-08-03T09:10:40.278Z</time>
      </trkpt>
      <trkpt lat="47.02752" lon="8.9177">
        <ele>1137</ele>
        <time>2021-08-03T09:10:41.278Z</time>
      </trkpt>
      <trkpt lat="47.02753" lon="8.9177">
        <ele>1138</ele>
        <time>2021-08-03T09:10:42.278Z</time>
      </trkpt>
      <trkpt lat="47.02753" lon="8.91771">
        <ele>1138</ele>
        <time>2021-08-03T09:10:43.278Z</time>
      </trkpt>
      <trkpt lat="47.02753" lon="8.91771">
        <ele>1139</ele>
        <time>2021-08-03T09:10:44.277Z</time>
      </trkpt>
      <trkpt lat="47.02753" lon="8.91771">
        <ele>1139</ele>
        <time>2021-08-03T09:10:45.278Z</time>
      </trkpt>
      <trkpt lat="47.02752" lon="8.9177">
        <ele>1139</ele>
        <time>2021-08-03T09:10:46.280Z</time>
      </trkpt>
      <trkpt lat="47.02753" lon="8.91771">
        <ele>1139</ele>
        <time>2021-08-03T09:10:47.280Z</time>
      </trkpt>
      <trkpt lat="47.02753" lon="8.91771">
        <ele>1139</ele>
        <time>2021-08-03T09:10:48.280Z</time>
      </trkpt>
      <trkpt lat="47.02752" lon="8.91772">
        <ele>1139</ele>
        <time>2021-08-03T09:10:49.279Z</time>
      </trkpt>
      <trkpt lat="47.02752" lon="8.91772">
        <ele>1139</ele>
        <time>2021-08-03T09:10:50.280Z</time>
      </trkpt>
      <trkpt lat="47.02751" lon="8.91772">
        <ele>1140</ele>
        <time>2021-08-03T09:10:51.279Z</time>
      </trkpt>
      <trkpt lat="47.02751" lon="8.91772">
        <ele>1140</ele>
        <time>2021-08-03T09:10:52.280Z</time>
      </trkpt>
      <trkpt lat="47.0275" lon="8.91771">
        <ele>1139</ele>
        <time>2021-08-03T09:10:53.281Z</time>
      </trkpt>
      <trkpt lat="47.02749" lon="8.91771">
        <ele>1139</ele>
        <time>2021-08-03T09:10:54.281Z</time>
      </trkpt>
      <trkpt lat="47.02749" lon="8.9177">
        <ele>1139</ele>
        <time>2021-08-03T09:10:55.281Z</time>
      </trkpt>
      <trkpt lat="47.02748" lon="8.9177">
        <ele>1139</ele>
        <time>2021-08-03T09:10:56.280Z</time>
      </trkpt>
      <trkpt lat="47.02747" lon="8.9177">
        <ele>1139</ele>
        <time>2021-08-03T09:10:57.280Z</time>
      </trkpt>
      <trkpt lat="47.02746" lon="8.9177">
        <ele>1139</ele>
        <time>2021-08-03T09:10:58.281Z</time>
      </trkpt>
      <trkpt lat="47.02745" lon="8.91769">
        <ele>1138</ele>
        <time>2021-08-03T09:10:59.281Z</time>
      </trkpt>
      <trkpt lat="47.02745" lon="8.91769">
        <ele>1138</ele>
        <time>2021-08-03T09:11:00.280Z</time>
      </trkpt>
      <trkpt lat="47.02744" lon="8.91767">
        <ele>1139</ele>
        <time>2021-08-03T09:11:01.281Z</time>
      </trkpt>
      <trkpt lat="47.02743" lon="8.91766">
        <ele>1139</ele>
        <time>2021-08-03T09:11:02.280Z</time>
      </trkpt>
      <trkpt lat="47.02742" lon="8.91765">
        <ele>1140</ele>
        <time>2021-08-03T09:11:03.281Z</time>
      </trkpt>
      <trkpt lat="47.0274" lon="8.91765">
        <ele>1140</ele>
        <time>2021-08-03T09:11:04.281Z</time>
      </trkpt>
      <trkpt lat="47.0274" lon="8.91764">
        <ele>1140</ele>
        <time>2021-08-03T09:11:05.281Z</time>
      </trkpt>
      <trkpt lat="47.02739" lon="8.91763">
        <ele>1140</ele>
        <time>2021-08-03T09:11:06.280Z</time>
      </trkpt>
      <trkpt lat="47.02738" lon="8.91763">
        <ele>1140</ele>
        <time>2021-08-03T09:11:07.281Z</time>
      </trkpt>
      <trkpt lat="47.02738" lon="8.91762">
        <ele>1140</ele>
        <time>2021-08-03T09:11:08.281Z</time>
      </trkpt>
      <trkpt lat="47.02737" lon="8.91763">
        <ele>1139</ele>
        <time>2021-08-03T09:11:09.280Z</time>
      </trkpt>
      <trkpt lat="47.02737" lon="8.91763">
        <ele>1139</ele>
        <time>2021-08-03T09:11:10.280Z</time>
      </trkpt>
      <trkpt lat="47.02736" lon="8.91763">
        <ele>1137</ele>
        <time>2021-08-03T09:11:11.281Z</time>
      </trkpt>
      <trkpt lat="47.02735" lon="8.91763">
        <ele>1137</ele>
        <time>2021-08-03T09:11:12.281Z</time>
      </trkpt>
      <trkpt lat="47.02735" lon="8.91762">
        <ele>1136</ele>
        <time>2021-08-03T09:11:13.281Z</time>
      </trkpt>
      <trkpt lat="47.02734" lon="8.91761">
        <ele>1136</ele>
        <time>2021-08-03T09:11:14.281Z</time>
      </trkpt>
      <trkpt lat="47.02733" lon="8.9176">
        <ele>1137</ele>
        <time>2021-08-03T09:11:15.280Z</time>
      </trkpt>
      <trkpt lat="47.02731" lon="8.9176">
        <ele>1137</ele>
        <time>2021-08-03T09:11:16.281Z</time>
      </trkpt>
      <trkpt lat="47.02729" lon="8.9176">
        <ele>1137</ele>
        <time>2021-08-03T09:11:17.281Z</time>
      </trkpt>
      <trkpt lat="47.02727" lon="8.91759">
        <ele>1137</ele>
        <time>2021-08-03T09:11:18.281Z</time>
      </trkpt>
      <trkpt lat="47.02726" lon="8.91759">
        <ele>1137</ele>
        <time>2021-08-03T09:11:19.280Z</time>
      </trkpt>
      <trkpt lat="47.02726" lon="8.91759">
        <ele>1137</ele>
        <time>2021-08-03T09:11:20.281Z</time>
      </trkpt>
      <trkpt lat="47.02725" lon="8.9176">
        <ele>1136</ele>
        <time>2021-08-03T09:11:21.281Z</time>
      </trkpt>
      <trkpt lat="47.02725" lon="8.91759">
        <ele>1136</ele>
        <time>2021-08-03T09:11:22.281Z</time>
      </trkpt>
      <trkpt lat="47.02725" lon="8.91759">
        <ele>1136</ele>
        <time>2021-08-03T09:11:23.281Z</time>
      </trkpt>
      <trkpt lat="47.02724" lon="8.91759">
        <ele>1135</ele>
        <time>2021-08-03T09:11:24.280Z</time>
      </trkpt>
      <trkpt lat="47.02723" lon="8.91759">
        <ele>1135</ele>
        <time>2021-08-03T09:11:25.280Z</time>
      </trkpt>
      <trkpt lat="47.02722" lon="8.91759">
        <ele>1134</ele>
        <time>2021-08-03T09:11:26.280Z</time>
      </trkpt>
      <trkpt lat="47.02722" lon="8.91759">
        <ele>1134</ele>
        <time>2021-08-03T09:11:27.280Z</time>
      </trkpt>
      <trkpt lat="47.0272" lon="8.9176">
        <ele>1134</ele>
        <time>2021-08-03T09:11:28.281Z</time>
      </trkpt>
      <trkpt lat="47.0272" lon="8.91759">
        <ele>1133</ele>
        <time>2021-08-03T09:11:29.281Z</time>
      </trkpt>
      <trkpt lat="47.02719" lon="8.91758">
        <ele>1133</ele>
        <time>2021-08-03T09:11:30.281Z</time>
      </trkpt>
      <trkpt lat="47.02718" lon="8.91757">
        <ele>1132</ele>
        <time>2021-08-03T09:11:31.281Z</time>
      </trkpt>
      <trkpt lat="47.02718" lon="8.91757">
        <ele>1132</ele>
        <time>2021-08-03T09:11:32.281Z</time>
      </trkpt>
      <trkpt lat="47.02717" lon="8.91755">
        <ele>1132</ele>
        <time>2021-08-03T09:11:33.280Z</time>
      </trkpt>
      <trkpt lat="47.02717" lon="8.91754">
        <ele>1131</ele>
        <time>2021-08-03T09:11:34.280Z</time>
      </trkpt>
      <trkpt lat="47.02716" lon="8.91753">
        <ele>1131</ele>
        <time>2021-08-03T09:11:35.281Z</time>
      </trkpt>
      <trkpt lat="47.02716" lon="8.91751">
        <ele>1131</ele>
        <time>2021-08-03T09:11:36.281Z</time>
      </trkpt>
      <trkpt lat="47.02716" lon="8.91749">
        <ele>1130</ele>
        <time>2021-08-03T09:11:37.280Z</time>
      </trkpt>
      <trkpt lat="47.02716" lon="8.91747">
        <ele>1130</ele>
        <time>2021-08-03T09:11:38.281Z</time>
      </trkpt>
      <trkpt lat="47.02716" lon="8.91747">
        <ele>1130</ele>
        <time>2021-08-03T09:11:39.281Z</time>
      </trkpt>
      <trkpt lat="47.02715" lon="8.91746">
        <ele>1130</ele>
        <time>2021-08-03T09:11:40.280Z</time>
      </trkpt>
      <trkpt lat="47.02715" lon="8.91745">
        <ele>1130</ele>
        <time>2021-08-03T09:11:41.281Z</time>
      </trkpt>
      <trkpt lat="47.02714" lon="8.91745">
        <ele>1130</ele>
        <time>2021-08-03T09:11:42.281Z</time>
      </trkpt>
      <trkpt lat="47.02712" lon="8.91746">
        <ele>1130</ele>
        <time>2021-08-03T09:11:43.280Z</time>
      </trkpt>
      <trkpt lat="47.02712" lon="8.91744">
        <ele>1131</ele>
        <time>2021-08-03T09:11:44.280Z</time>
      </trkpt>
      <trkpt lat="47.0271" lon="8.91744">
        <ele>1132</ele>
        <time>2021-08-03T09:11:45.281Z</time>
      </trkpt>
      <trkpt lat="47.02709" lon="8.91742">
        <ele>1132</ele>
        <time>2021-08-03T09:11:46.281Z</time>
      </trkpt>
      <trkpt lat="47.02708" lon="8.91742">
        <ele>1133</ele>
        <time>2021-08-03T09:11:47.280Z</time>
      </trkpt>
      <trkpt lat="47.02707" lon="8.91742">
        <ele>1133</ele>
        <time>2021-08-03T09:11:48.281Z</time>
      </trkpt>
      <trkpt lat="47.02707" lon="8.91742">
        <ele>1134</ele>
        <time>2021-08-03T09:11:49.281Z</time>
      </trkpt>
      <trkpt lat="47.02707" lon="8.91742">
        <ele>1134</ele>
        <time>2021-08-03T09:11:50.281Z</time>
      </trkpt>
      <trkpt lat="47.02707" lon="8.91742">
        <ele>1135</ele>
        <time>2021-08-03T09:11:51.281Z</time>
      </trkpt>
      <trkpt lat="47.02707" lon="8.91743">
        <ele>1135</ele>
        <time>2021-08-03T09:11:52.281Z</time>
      </trkpt>
      <trkpt lat="47.02707" lon="8.91743">
        <ele>1136</ele>
        <time>2021-08-03T09:11:53.280Z</time>
      </trkpt>
      <trkpt lat="47.02708" lon="8.91743">
        <ele>1136</ele>
        <time>2021-08-03T09:11:54.281Z</time>
      </trkpt>
      <trkpt lat="47.02708" lon="8.91741">
        <ele>1137</ele>
        <time>2021-08-03T09:11:55.281Z</time>
      </trkpt>
      <trkpt lat="47.02708" lon="8.91741">
        <ele>1137</ele>
        <time>2021-08-03T09:11:56.282Z</time>
      </trkpt>
      <trkpt lat="47.02708" lon="8.91741">
        <ele>1136</ele>
        <time>2021-08-03T09:11:57.281Z</time>
      </trkpt>
      <trkpt lat="47.02708" lon="8.9174">
        <ele>1136</ele>
        <time>2021-08-03T09:11:58.281Z</time>
      </trkpt>
      <trkpt lat="47.02709" lon="8.9174">
        <ele>1135</ele>
        <time>2021-08-03T09:11:59.282Z</time>
      </trkpt>
      <trkpt lat="47.02709" lon="8.91742">
        <ele>1133</ele>
        <time>2021-08-03T09:12:00.282Z</time>
      </trkpt>
      <trkpt lat="47.02709" lon="8.91742">
        <ele>1133</ele>
        <time>2021-08-03T09:12:01.282Z</time>
      </trkpt>
      <trkpt lat="47.02709" lon="8.9174">
        <ele>1132</ele>
        <time>2021-08-03T09:12:02.281Z</time>
      </trkpt>
      <trkpt lat="47.02708" lon="8.91739">
        <ele>1132</ele>
        <time>2021-08-03T09:12:03.281Z</time>
      </trkpt>
      <trkpt lat="47.02708" lon="8.9174">
        <ele>1131</ele>
        <time>2021-08-03T09:12:04.281Z</time>
      </trkpt>
      <trkpt lat="47.02708" lon="8.9174">
        <ele>1131</ele>
        <time>2021-08-03T09:12:05.282Z</time>
      </trkpt>
      <trkpt lat="47.02708" lon="8.9174">
        <ele>1131</ele>
        <time>2021-08-03T09:12:06.282Z</time>
      </trkpt>
      <trkpt lat="47.02707" lon="8.9174">
        <ele>1132</ele>
        <time>2021-08-03T09:12:07.282Z</time>
      </trkpt>
      <trkpt lat="47.02706" lon="8.91745">
        <ele>1133</ele>
        <time>2021-08-03T09:12:08.282Z</time>
      </trkpt>
      <trkpt lat="47.02705" lon="8.91746">
        <ele>1133</ele>
        <time>2021-08-03T09:12:09.282Z</time>
      </trkpt>
      <trkpt lat="47.02705" lon="8.91746">
        <ele>1133</ele>
        <time>2021-08-03T09:12:10.282Z</time>
      </trkpt>
      <trkpt lat="47.02704" lon="8.91747">
        <ele>1133</ele>
        <time>2021-08-03T09:12:11.282Z</time>
      </trkpt>
      <trkpt lat="47.02704" lon="8.91748">
        <ele>1133</ele>
        <time>2021-08-03T09:12:12.282Z</time>
      </trkpt>
      <trkpt lat="47.02704" lon="8.91747">
        <ele>1132</ele>
        <time>2021-08-03T09:12:13.282Z</time>
      </trkpt>
      <trkpt lat="47.02704" lon="8.91747">
        <ele>1132</ele>
        <time>2021-08-03T09:12:14.282Z</time>
      </trkpt>
      <trkpt lat="47.02704" lon="8.91746">
        <ele>1132</ele>
        <time>2021-08-03T09:12:15.283Z</time>
      </trkpt>
      <trkpt lat="47.02705" lon="8.91745">
        <ele>1131</ele>
        <time>2021-08-03T09:12:16.282Z</time>
      </trkpt>
      <trkpt lat="47.02705" lon="8.91745">
        <ele>1131</ele>
        <time>2021-08-03T09:12:17.282Z</time>
      </trkpt>
      <trkpt lat="47.02704" lon="8.91745">
        <ele>1131</ele>
        <time>2021-08-03T09:12:18.282Z</time>
      </trkpt>
      <trkpt lat="47.02704" lon="8.91745">
        <ele>1131</ele>
        <time>2021-08-03T09:12:19.282Z</time>
      </trkpt>
      <trkpt lat="47.02703" lon="8.91746">
        <ele>1131</ele>
        <time>2021-08-03T09:12:20.282Z</time>
      </trkpt>
      <trkpt lat="47.02703" lon="8.91747">
        <ele>1131</ele>
        <time>2021-08-03T09:12:21.282Z</time>
      </trkpt>
      <trkpt lat="47.02702" lon="8.91746">
        <ele>1131</ele>
        <time>2021-08-03T09:12:22.282Z</time>
      </trkpt>
      <trkpt lat="47.02701" lon="8.91745">
        <ele>1131</ele>
        <time>2021-08-03T09:12:23.282Z</time>
      </trkpt>
      <trkpt lat="47.027" lon="8.91744">
        <ele>1131</ele>
        <time>2021-08-03T09:12:24.283Z</time>
      </trkpt>
      <trkpt lat="47.027" lon="8.91742">
        <ele>1130</ele>
        <time>2021-08-03T09:12:25.282Z</time>
      </trkpt>
      <trkpt lat="47.02699" lon="8.91741">
        <ele>1130</ele>
        <time>2021-08-03T09:12:26.282Z</time>
      </trkpt>
      <trkpt lat="47.02699" lon="8.9174">
        <ele>1130</ele>
        <time>2021-08-03T09:12:27.282Z</time>
      </trkpt>
      <trkpt lat="47.02699" lon="8.91739">
        <ele>1129</ele>
        <time>2021-08-03T09:12:28.283Z</time>
      </trkpt>
      <trkpt lat="47.02699" lon="8.91738">
        <ele>1129</ele>
        <time>2021-08-03T09:12:29.282Z</time>
      </trkpt>
      <trkpt lat="47.02699" lon="8.91737">
        <ele>1129</ele>
        <time>2021-08-03T09:12:30.282Z</time>
      </trkpt>
      <trkpt lat="47.02698" lon="8.91737">
        <ele>1130</ele>
        <time>2021-08-03T09:12:31.282Z</time>
      </trkpt>
      <trkpt lat="47.02698" lon="8.91736">
        <ele>1130</ele>
        <time>2021-08-03T09:12:32.282Z</time>
      </trkpt>
      <trkpt lat="47.02699" lon="8.91734">
        <ele>1129</ele>
        <time>2021-08-03T09:12:33.283Z</time>
      </trkpt>
      <trkpt lat="47.02698" lon="8.91733">
        <ele>1129</ele>
        <time>2021-08-03T09:12:34.282Z</time>
      </trkpt>
      <trkpt lat="47.02698" lon="8.91733">
        <ele>1128</ele>
        <time>2021-08-03T09:12:35.283Z</time>
      </trkpt>
      <trkpt lat="47.02698" lon="8.91732">
        <ele>1128</ele>
        <time>2021-08-03T09:12:36.282Z</time>
      </trkpt>
      <trkpt lat="47.02699" lon="8.91731">
        <ele>1128</ele>
        <time>2021-08-03T09:12:37.282Z</time>
      </trkpt>
      <trkpt lat="47.02699" lon="8.9173">
        <ele>1128</ele>
        <time>2021-08-03T09:12:38.282Z</time>
      </trkpt>
      <trkpt lat="47.02699" lon="8.9173">
        <ele>1128</ele>
        <time>2021-08-03T09:12:39.283Z</time>
      </trkpt>
      <trkpt lat="47.02699" lon="8.91734">
        <ele>1128</ele>
        <time>2021-08-03T09:12:40.283Z</time>
      </trkpt>
      <trkpt lat="47.02699" lon="8.91734">
        <ele>1127</ele>
        <time>2021-08-03T09:12:41.283Z</time>
      </trkpt>
      <trkpt lat="47.02695" lon="8.91736">
        <ele>1127</ele>
        <time>2021-08-03T09:12:42.283Z</time>
      </trkpt>
      <trkpt lat="47.02694" lon="8.91736">
        <ele>1127</ele>
        <time>2021-08-03T09:12:43.284Z</time>
      </trkpt>
      <trkpt lat="47.02694" lon="8.91735">
        <ele>1127</ele>
        <time>2021-08-03T09:12:44.283Z</time>
      </trkpt>
      <trkpt lat="47.02693" lon="8.91733">
        <ele>1127</ele>
        <time>2021-08-03T09:12:45.283Z</time>
      </trkpt>
      <trkpt lat="47.02692" lon="8.91733">
        <ele>1127</ele>
        <time>2021-08-03T09:12:46.283Z</time>
      </trkpt>
      <trkpt lat="47.02691" lon="8.91733">
        <ele>1127</ele>
        <time>2021-08-03T09:12:47.283Z</time>
      </trkpt>
      <trkpt lat="47.0269" lon="8.91734">
        <ele>1126</ele>
        <time>2021-08-03T09:12:48.284Z</time>
      </trkpt>
      <trkpt lat="47.02689" lon="8.91733">
        <ele>1126</ele>
        <time>2021-08-03T09:12:49.283Z</time>
      </trkpt>
      <trkpt lat="47.02688" lon="8.91732">
        <ele>1126</ele>
        <time>2021-08-03T09:12:50.283Z</time>
      </trkpt>
      <trkpt lat="47.02687" lon="8.91731">
        <ele>1126</ele>
        <time>2021-08-03T09:12:51.283Z</time>
      </trkpt>
      <trkpt lat="47.02686" lon="8.9173">
        <ele>1126</ele>
        <time>2021-08-03T09:12:52.283Z</time>
      </trkpt>
      <trkpt lat="47.02685" lon="8.91729">
        <ele>1126</ele>
        <time>2021-08-03T09:12:53.283Z</time>
      </trkpt>
      <trkpt lat="47.02684" lon="8.91728">
        <ele>1126</ele>
        <time>2021-08-03T09:12:54.283Z</time>
      </trkpt>
      <trkpt lat="47.02683" lon="8.91726">
        <ele>1125</ele>
        <time>2021-08-03T09:12:55.283Z</time>
      </trkpt>
      <trkpt lat="47.02683" lon="8.91725">
        <ele>1125</ele>
        <time>2021-08-03T09:12:56.283Z</time>
      </trkpt>
      <trkpt lat="47.02682" lon="8.91723">
        <ele>1126</ele>
        <time>2021-08-03T09:12:57.283Z</time>
      </trkpt>
      <trkpt lat="47.02682" lon="8.91722">
        <ele>1126</ele>
        <time>2021-08-03T09:12:58.283Z</time>
      </trkpt>
      <trkpt lat="47.02681" lon="8.91722">
        <ele>1126</ele>
        <time>2021-08-03T09:12:59.283Z</time>
      </trkpt>
      <trkpt lat="47.02682" lon="8.91721">
        <ele>1126</ele>
        <time>2021-08-03T09:13:00.283Z</time>
      </trkpt>
      <trkpt lat="47.02682" lon="8.91719">
        <ele>1126</ele>
        <time>2021-08-03T09:13:01.283Z</time>
      </trkpt>
      <trkpt lat="47.02681" lon="8.91719">
        <ele>1126</ele>
        <time>2021-08-03T09:13:02.283Z</time>
      </trkpt>
      <trkpt lat="47.02681" lon="8.91719">
        <ele>1126</ele>
        <time>2021-08-03T09:13:03.283Z</time>
      </trkpt>
      <trkpt lat="47.0268" lon="8.91718">
        <ele>1125</ele>
        <time>2021-08-03T09:13:04.283Z</time>
      </trkpt>
      <trkpt lat="47.0268" lon="8.91718">
        <ele>1125</ele>
        <time>2021-08-03T09:13:05.283Z</time>
      </trkpt>
      <trkpt lat="47.02679" lon="8.91718">
        <ele>1124</ele>
        <time>2021-08-03T09:13:06.283Z</time>
      </trkpt>
      <trkpt lat="47.02679" lon="8.91719">
        <ele>1124</ele>
        <time>2021-08-03T09:13:07.283Z</time>
      </trkpt>
      <trkpt lat="47.02679" lon="8.91719">
        <ele>1123</ele>
        <time>2021-08-03T09:13:08.283Z</time>
      </trkpt>
      <trkpt lat="47.02678" lon="8.9172">
        <ele>1123</ele>
        <time>2021-08-03T09:13:09.284Z</time>
      </trkpt>
      <trkpt lat="47.02678" lon="8.9172">
        <ele>1122</ele>
        <time>2021-08-03T09:13:10.284Z</time>
      </trkpt>
      <trkpt lat="47.02678" lon="8.9172">
        <ele>1122</ele>
        <time>2021-08-03T09:13:11.283Z</time>
      </trkpt>
      <trkpt lat="47.02678" lon="8.9172">
        <ele>1122</ele>
        <time>2021-08-03T09:13:12.284Z</time>
      </trkpt>
      <trkpt lat="47.02678" lon="8.91719">
        <ele>1121</ele>
        <time>2021-08-03T09:13:13.285Z</time>
      </trkpt>
      <trkpt lat="47.02677" lon="8.91718">
        <ele>1121</ele>
        <time>2021-08-03T09:13:14.285Z</time>
      </trkpt>
      <trkpt lat="47.02676" lon="8.91717">
        <ele>1120</ele>
        <time>2021-08-03T09:13:15.284Z</time>
      </trkpt>
      <trkpt lat="47.02675" lon="8.91717">
        <ele>1120</ele>
        <time>2021-08-03T09:13:16.285Z</time>
      </trkpt>
      <trkpt lat="47.02674" lon="8.91717">
        <ele>1120</ele>
        <time>2021-08-03T09:13:17.284Z</time>
      </trkpt>
      <trkpt lat="47.02674" lon="8.91717">
        <ele>1120</ele>
        <time>2021-08-03T09:13:18.284Z</time>
      </trkpt>
      <trkpt lat="47.02673" lon="8.91716">
        <ele>1120</ele>
        <time>2021-08-03T09:13:19.284Z</time>
      </trkpt>
      <trkpt lat="47.02673" lon="8.91716">
        <ele>1120</ele>
        <time>2021-08-03T09:13:20.284Z</time>
      </trkpt>
      <trkpt lat="47.02672" lon="8.91715">
        <ele>1120</ele>
        <time>2021-08-03T09:13:21.284Z</time>
      </trkpt>
      <trkpt lat="47.02671" lon="8.91714">
        <ele>1120</ele>
        <time>2021-08-03T09:13:22.284Z</time>
      </trkpt>
      <trkpt lat="47.0267" lon="8.91714">
        <ele>1120</ele>
        <time>2021-08-03T09:13:23.284Z</time>
      </trkpt>
      <trkpt lat="47.0267" lon="8.91714">
        <ele>1121</ele>
        <time>2021-08-03T09:13:24.284Z</time>
      </trkpt>
      <trkpt lat="47.02669" lon="8.91713">
        <ele>1121</ele>
        <time>2021-08-03T09:13:25.284Z</time>
      </trkpt>
      <trkpt lat="47.0267" lon="8.91711">
        <ele>1121</ele>
        <time>2021-08-03T09:13:26.284Z</time>
      </trkpt>
      <trkpt lat="47.0267" lon="8.9171">
        <ele>1121</ele>
        <time>2021-08-03T09:13:27.285Z</time>
      </trkpt>
      <trkpt lat="47.02669" lon="8.9171">
        <ele>1120</ele>
        <time>2021-08-03T09:13:28.284Z</time>
      </trkpt>
      <trkpt lat="47.02668" lon="8.91711">
        <ele>1120</ele>
        <time>2021-08-03T09:13:29.284Z</time>
      </trkpt>
      <trkpt lat="47.02667" lon="8.91713">
        <ele>1120</ele>
        <time>2021-08-03T09:13:30.285Z</time>
      </trkpt>
      <trkpt lat="47.02667" lon="8.91713">
        <ele>1120</ele>
        <time>2021-08-03T09:13:31.285Z</time>
      </trkpt>
      <trkpt lat="47.02665" lon="8.91713">
        <ele>1121</ele>
        <time>2021-08-03T09:13:32.284Z</time>
      </trkpt>
      <trkpt lat="47.02664" lon="8.91713">
        <ele>1121</ele>
        <time>2021-08-03T09:13:33.285Z</time>
      </trkpt>
      <trkpt lat="47.02663" lon="8.91714">
        <ele>1121</ele>
        <time>2021-08-03T09:13:34.285Z</time>
      </trkpt>
      <trkpt lat="47.02662" lon="8.91714">
        <ele>1122</ele>
        <time>2021-08-03T09:13:35.285Z</time>
      </trkpt>
      <trkpt lat="47.02662" lon="8.91715">
        <ele>1122</ele>
        <time>2021-08-03T09:13:36.285Z</time>
      </trkpt>
      <trkpt lat="47.02664" lon="8.91716">
        <ele>1122</ele>
        <time>2021-08-03T09:13:37.285Z</time>
      </trkpt>
      <trkpt lat="47.02664" lon="8.91717">
        <ele>1122</ele>
        <time>2021-08-03T09:13:38.285Z</time>
      </trkpt>
      <trkpt lat="47.02662" lon="8.91718">
        <ele>1123</ele>
        <time>2021-08-03T09:13:39.285Z</time>
      </trkpt>
      <trkpt lat="47.02662" lon="8.91718">
        <ele>1123</ele>
        <time>2021-08-03T09:13:40.284Z</time>
      </trkpt>
      <trkpt lat="47.02661" lon="8.91718">
        <ele>1123</ele>
        <time>2021-08-03T09:13:41.285Z</time>
      </trkpt>
      <trkpt lat="47.0266" lon="8.91717">
        <ele>1124</ele>
        <time>2021-08-03T09:13:42.284Z</time>
      </trkpt>
      <trkpt lat="47.0266" lon="8.91717">
        <ele>1124</ele>
        <time>2021-08-03T09:13:43.285Z</time>
      </trkpt>
      <trkpt lat="47.02659" lon="8.91716">
        <ele>1124</ele>
        <time>2021-08-03T09:13:44.285Z</time>
      </trkpt>
      <trkpt lat="47.02657" lon="8.91715">
        <ele>1124</ele>
        <time>2021-08-03T09:13:45.285Z</time>
      </trkpt>
      <trkpt lat="47.02657" lon="8.91715">
        <ele>1125</ele>
        <time>2021-08-03T09:13:46.285Z</time>
      </trkpt>
      <trkpt lat="47.02657" lon="8.91714">
        <ele>1125</ele>
        <time>2021-08-03T09:13:47.285Z</time>
      </trkpt>
      <trkpt lat="47.02657" lon="8.91714">
        <ele>1125</ele>
        <time>2021-08-03T09:13:48.285Z</time>
      </trkpt>
      <trkpt lat="47.02657" lon="8.91713">
        <ele>1125</ele>
        <time>2021-08-03T09:13:49.285Z</time>
      </trkpt>
      <trkpt lat="47.02657" lon="8.91712">
        <ele>1125</ele>
        <time>2021-08-03T09:13:50.284Z</time>
      </trkpt>
      <trkpt lat="47.02657" lon="8.91712">
        <ele>1126</ele>
        <time>2021-08-03T09:13:51.285Z</time>
      </trkpt>
      <trkpt lat="47.02656" lon="8.91712">
        <ele>1126</ele>
        <time>2021-08-03T09:13:52.285Z</time>
      </trkpt>
      <trkpt lat="47.02655" lon="8.91708">
        <ele>1126</ele>
        <time>2021-08-03T09:13:53.285Z</time>
      </trkpt>
      <trkpt lat="47.02654" lon="8.91706">
        <ele>1125</ele>
        <time>2021-08-03T09:13:54.285Z</time>
      </trkpt>
      <trkpt lat="47.02652" lon="8.91705">
        <ele>1125</ele>
        <time>2021-08-03T09:13:55.285Z</time>
      </trkpt>
      <trkpt lat="47.02651" lon="8.91704">
        <ele>1125</ele>
        <time>2021-08-03T09:13:56.284Z</time>
      </trkpt>
      <trkpt lat="47.02651" lon="8.91704">
        <ele>1125</ele>
        <time>2021-08-03T09:13:57.285Z</time>
      </trkpt>
      <trkpt lat="47.02651" lon="8.91703">
        <ele>1124</ele>
        <time>2021-08-03T09:13:58.284Z</time>
      </trkpt>
      <trkpt lat="47.0265" lon="8.91702">
        <ele>1124</ele>
        <time>2021-08-03T09:13:59.285Z</time>
      </trkpt>
      <trkpt lat="47.02648" lon="8.91702">
        <ele>1123</ele>
        <time>2021-08-03T09:14:00.284Z</time>
      </trkpt>
      <trkpt lat="47.02647" lon="8.91701">
        <ele>1123</ele>
        <time>2021-08-03T09:14:01.284Z</time>
      </trkpt>
      <trkpt lat="47.02647" lon="8.917">
        <ele>1123</ele>
        <time>2021-08-03T09:14:02.284Z</time>
      </trkpt>
      <trkpt lat="47.02646" lon="8.91699">
        <ele>1122</ele>
        <time>2021-08-03T09:14:03.284Z</time>
      </trkpt>
      <trkpt lat="47.02645" lon="8.91697">
        <ele>1122</ele>
        <time>2021-08-03T09:14:04.284Z</time>
      </trkpt>
      <trkpt lat="47.02645" lon="8.91695">
        <ele>1121</ele>
        <time>2021-08-03T09:14:05.284Z</time>
      </trkpt>
      <trkpt lat="47.02645" lon="8.91693">
        <ele>1121</ele>
        <time>2021-08-03T09:14:06.284Z</time>
      </trkpt>
      <trkpt lat="47.02644" lon="8.91692">
        <ele>1120</ele>
        <time>2021-08-03T09:14:07.284Z</time>
      </trkpt>
      <trkpt lat="47.02642" lon="8.91692">
        <ele>1120</ele>
        <time>2021-08-03T09:14:08.284Z</time>
      </trkpt>
      <trkpt lat="47.02641" lon="8.91692">
        <ele>1119</ele>
        <time>2021-08-03T09:14:09.284Z</time>
      </trkpt>
      <trkpt lat="47.0264" lon="8.91692">
        <ele>1119</ele>
        <time>2021-08-03T09:14:10.284Z</time>
      </trkpt>
      <trkpt lat="47.02639" lon="8.91693">
        <ele>1119</ele>
        <time>2021-08-03T09:14:11.284Z</time>
      </trkpt>
      <trkpt lat="47.02638" lon="8.91694">
        <ele>1119</ele>
        <time>2021-08-03T09:14:12.284Z</time>
      </trkpt>
      <trkpt lat="47.02639" lon="8.91694">
        <ele>1118</ele>
        <time>2021-08-03T09:14:13.284Z</time>
      </trkpt>
      <trkpt lat="47.0264" lon="8.91693">
        <ele>1118</ele>
        <time>2021-08-03T09:14:14.284Z</time>
      </trkpt>
      <trkpt lat="47.0264" lon="8.91691">
        <ele>1118</ele>
        <time>2021-08-03T09:14:15.284Z</time>
      </trkpt>
      <trkpt lat="47.02641" lon="8.91689">
        <ele>1118</ele>
        <time>2021-08-03T09:14:16.284Z</time>
      </trkpt>
      <trkpt lat="47.02641" lon="8.91688">
        <ele>1118</ele>
        <time>2021-08-03T09:14:17.284Z</time>
      </trkpt>
      <trkpt lat="47.02642" lon="8.91685">
        <ele>1117</ele>
        <time>2021-08-03T09:14:18.284Z</time>
      </trkpt>
      <trkpt lat="47.02642" lon="8.91683">
        <ele>1117</ele>
        <time>2021-08-03T09:14:19.284Z</time>
      </trkpt>
      <trkpt lat="47.02642" lon="8.91683">
        <ele>1117</ele>
        <time>2021-08-03T09:14:20.285Z</time>
      </trkpt>
      <trkpt lat="47.02643" lon="8.91683">
        <ele>1116</ele>
        <time>2021-08-03T09:14:21.284Z</time>
      </trkpt>
      <trkpt lat="47.02643" lon="8.91683">
        <ele>1116</ele>
        <time>2021-08-03T09:14:22.285Z</time>
      </trkpt>
      <trkpt lat="47.02643" lon="8.91683">
        <ele>1116</ele>
        <time>2021-08-03T09:14:23.285Z</time>
      </trkpt>
      <trkpt lat="47.02643" lon="8.91682">
        <ele>1115</ele>
        <time>2021-08-03T09:14:24.286Z</time>
      </trkpt>
      <trkpt lat="47.02643" lon="8.91681">
        <ele>1114</ele>
        <time>2021-08-03T09:14:25.286Z</time>
      </trkpt>
      <trkpt lat="47.02642" lon="8.91682">
        <ele>1114</ele>
        <time>2021-08-03T09:14:26.285Z</time>
      </trkpt>
      <trkpt lat="47.0264" lon="8.91682">
        <ele>1114</ele>
        <time>2021-08-03T09:14:27.286Z</time>
      </trkpt>
      <trkpt lat="47.02638" lon="8.91683">
        <ele>1113</ele>
        <time>2021-08-03T09:14:28.286Z</time>
      </trkpt>
      <trkpt lat="47.02637" lon="8.91684">
        <ele>1113</ele>
        <time>2021-08-03T09:14:29.286Z</time>
      </trkpt>
      <trkpt lat="47.02635" lon="8.91684">
        <ele>1113</ele>
        <time>2021-08-03T09:14:30.286Z</time>
      </trkpt>
      <trkpt lat="47.02634" lon="8.91683">
        <ele>1112</ele>
        <time>2021-08-03T09:14:31.285Z</time>
      </trkpt>
      <trkpt lat="47.02633" lon="8.91682">
        <ele>1112</ele>
        <time>2021-08-03T09:14:32.286Z</time>
      </trkpt>
      <trkpt lat="47.02633" lon="8.91681">
        <ele>1112</ele>
        <time>2021-08-03T09:14:33.286Z</time>
      </trkpt>
      <trkpt lat="47.02631" lon="8.91679">
        <ele>1112</ele>
        <time>2021-08-03T09:14:34.286Z</time>
      </trkpt>
      <trkpt lat="47.0263" lon="8.91678">
        <ele>1112</ele>
        <time>2021-08-03T09:14:35.285Z</time>
      </trkpt>
      <trkpt lat="47.02629" lon="8.91677">
        <ele>1112</ele>
        <time>2021-08-03T09:14:36.285Z</time>
      </trkpt>
      <trkpt lat="47.02629" lon="8.91677">
        <ele>1112</ele>
        <time>2021-08-03T09:14:37.285Z</time>
      </trkpt>
      <trkpt lat="47.02628" lon="8.91675">
        <ele>1112</ele>
        <time>2021-08-03T09:14:38.286Z</time>
      </trkpt>
      <trkpt lat="47.02628" lon="8.91674">
        <ele>1112</ele>
        <time>2021-08-03T09:14:39.286Z</time>
      </trkpt>
      <trkpt lat="47.02627" lon="8.91674">
        <ele>1112</ele>
        <time>2021-08-03T09:14:40.286Z</time>
      </trkpt>
      <trkpt lat="47.02626" lon="8.91675">
        <ele>1112</ele>
        <time>2021-08-03T09:14:41.286Z</time>
      </trkpt>
      <trkpt lat="47.02625" lon="8.91676">
        <ele>1112</ele>
        <time>2021-08-03T09:14:42.286Z</time>
      </trkpt>
      <trkpt lat="47.02624" lon="8.91676">
        <ele>1111</ele>
        <time>2021-08-03T09:14:43.286Z</time>
      </trkpt>
      <trkpt lat="47.02623" lon="8.91677">
        <ele>1111</ele>
        <time>2021-08-03T09:14:44.286Z</time>
      </trkpt>
      <trkpt lat="47.02623" lon="8.91678">
        <ele>1110</ele>
        <time>2021-08-03T09:14:45.286Z</time>
      </trkpt>
      <trkpt lat="47.02622" lon="8.91679">
        <ele>1110</ele>
        <time>2021-08-03T09:14:46.286Z</time>
      </trkpt>
      <trkpt lat="47.02622" lon="8.9168">
        <ele>1109</ele>
        <time>2021-08-03T09:14:47.285Z</time>
      </trkpt>
      <trkpt lat="47.02622" lon="8.91681">
        <ele>1109</ele>
        <time>2021-08-03T09:14:48.286Z</time>
      </trkpt>
      <trkpt lat="47.02622" lon="8.91681">
        <ele>1109</ele>
        <time>2021-08-03T09:14:49.285Z</time>
      </trkpt>
      <trkpt lat="47.02622" lon="8.91681">
        <ele>1108</ele>
        <time>2021-08-03T09:14:50.286Z</time>
      </trkpt>
      <trkpt lat="47.02622" lon="8.91681">
        <ele>1108</ele>
        <time>2021-08-03T09:14:51.287Z</time>
      </trkpt>
      <trkpt lat="47.02622" lon="8.9168">
        <ele>1108</ele>
        <time>2021-08-03T09:14:52.286Z</time>
      </trkpt>
      <trkpt lat="47.02621" lon="8.9168">
        <ele>1108</ele>
        <time>2021-08-03T09:14:53.286Z</time>
      </trkpt>
      <trkpt lat="47.02621" lon="8.9168">
        <ele>1108</ele>
        <time>2021-08-03T09:14:54.287Z</time>
      </trkpt>
      <trkpt lat="47.02621" lon="8.9168">
        <ele>1108</ele>
        <time>2021-08-03T09:14:55.287Z</time>
      </trkpt>
      <trkpt lat="47.02621" lon="8.9168">
        <ele>1108</ele>
        <time>2021-08-03T09:14:56.287Z</time>
      </trkpt>
      <trkpt lat="47.0262" lon="8.91678">
        <ele>1108</ele>
        <time>2021-08-03T09:14:57.287Z</time>
      </trkpt>
      <trkpt lat="47.02618" lon="8.91677">
        <ele>1107</ele>
        <time>2021-08-03T09:14:58.287Z</time>
      </trkpt>
      <trkpt lat="47.02618" lon="8.91677">
        <ele>1107</ele>
        <time>2021-08-03T09:14:59.287Z</time>
      </trkpt>
      <trkpt lat="47.02617" lon="8.91677">
        <ele>1107</ele>
        <time>2021-08-03T09:15:00.288Z</time>
      </trkpt>
      <trkpt lat="47.02617" lon="8.91677">
        <ele>1107</ele>
        <time>2021-08-03T09:15:01.288Z</time>
      </trkpt>
      <trkpt lat="47.02617" lon="8.91677">
        <ele>1108</ele>
        <time>2021-08-03T09:15:02.287Z</time>
      </trkpt>
      <trkpt lat="47.02617" lon="8.91677">
        <ele>1108</ele>
        <time>2021-08-03T09:15:03.288Z</time>
      </trkpt>
      <trkpt lat="47.02615" lon="8.91676">
        <ele>1108</ele>
        <time>2021-08-03T09:15:04.289Z</time>
      </trkpt>
      <trkpt lat="47.02612" lon="8.91674">
        <ele>1109</ele>
        <time>2021-08-03T09:15:05.288Z</time>
      </trkpt>
      <trkpt lat="47.02611" lon="8.91673">
        <ele>1109</ele>
        <time>2021-08-03T09:15:06.288Z</time>
      </trkpt>
      <trkpt lat="47.0261" lon="8.91672">
        <ele>1109</ele>
        <time>2021-08-03T09:15:07.288Z</time>
      </trkpt>
      <trkpt lat="47.02609" lon="8.91671">
        <ele>1109</ele>
        <time>2021-08-03T09:15:08.289Z</time>
      </trkpt>
      <trkpt lat="47.02609" lon="8.9167">
        <ele>1109</ele>
        <time>2021-08-03T09:15:09.288Z</time>
      </trkpt>
      <trkpt lat="47.02609" lon="8.9167">
        <ele>1109</ele>
        <time>2021-08-03T09:15:10.288Z</time>
      </trkpt>
      <trkpt lat="47.02608" lon="8.91668">
        <ele>1109</ele>
        <time>2021-08-03T09:15:11.289Z</time>
      </trkpt>
      <trkpt lat="47.02608" lon="8.91668">
        <ele>1109</ele>
        <time>2021-08-03T09:15:12.288Z</time>
      </trkpt>
      <trkpt lat="47.02608" lon="8.91667">
        <ele>1109</ele>
        <time>2021-08-03T09:15:13.289Z</time>
      </trkpt>
      <trkpt lat="47.02608" lon="8.91666">
        <ele>1109</ele>
        <time>2021-08-03T09:15:14.289Z</time>
      </trkpt>
      <trkpt lat="47.02607" lon="8.91665">
        <ele>1110</ele>
        <time>2021-08-03T09:15:15.288Z</time>
      </trkpt>
      <trkpt lat="47.02606" lon="8.91663">
        <ele>1110</ele>
        <time>2021-08-03T09:15:16.289Z</time>
      </trkpt>
      <trkpt lat="47.02606" lon="8.91662">
        <ele>1110</ele>
        <time>2021-08-03T09:15:17.289Z</time>
      </trkpt>
      <trkpt lat="47.02605" lon="8.91661">
        <ele>1111</ele>
        <time>2021-08-03T09:15:18.289Z</time>
      </trkpt>
      <trkpt lat="47.02607" lon="8.9166">
        <ele>1111</ele>
        <time>2021-08-03T09:15:19.289Z</time>
      </trkpt>
      <trkpt lat="47.02607" lon="8.91659">
        <ele>1111</ele>
        <time>2021-08-03T09:15:20.288Z</time>
      </trkpt>
      <trkpt lat="47.02607" lon="8.91659">
        <ele>1111</ele>
        <time>2021-08-03T09:15:21.288Z</time>
      </trkpt>
      <trkpt lat="47.02606" lon="8.91658">
        <ele>1111</ele>
        <time>2021-08-03T09:15:22.288Z</time>
      </trkpt>
      <trkpt lat="47.02605" lon="8.91658">
        <ele>1111</ele>
        <time>2021-08-03T09:15:23.288Z</time>
      </trkpt>
      <trkpt lat="47.02603" lon="8.91657">
        <ele>1111</ele>
        <time>2021-08-03T09:15:24.289Z</time>
      </trkpt>
      <trkpt lat="47.02602" lon="8.91657">
        <ele>1111</ele>
        <time>2021-08-03T09:15:25.289Z</time>
      </trkpt>
      <trkpt lat="47.02603" lon="8.91658">
        <ele>1111</ele>
        <time>2021-08-03T09:15:26.289Z</time>
      </trkpt>
      <trkpt lat="47.02605" lon="8.91659">
        <ele>1111</ele>
        <time>2021-08-03T09:15:27.289Z</time>
      </trkpt>
      <trkpt lat="47.02607" lon="8.91661">
        <ele>1111</ele>
        <time>2021-08-03T09:15:28.289Z</time>
      </trkpt>
      <trkpt lat="47.02608" lon="8.91661">
        <ele>1111</ele>
        <time>2021-08-03T09:15:29.289Z</time>
      </trkpt>
      <trkpt lat="47.02609" lon="8.9166">
        <ele>1111</ele>
        <time>2021-08-03T09:15:30.289Z</time>
      </trkpt>
      <trkpt lat="47.02611" lon="8.9166">
        <ele>1111</ele>
        <time>2021-08-03T09:15:31.289Z</time>
      </trkpt>
      <trkpt lat="47.02611" lon="8.91658">
        <ele>1111</ele>
        <time>2021-08-03T09:15:32.289Z</time>
      </trkpt>
      <trkpt lat="47.02611" lon="8.91658">
        <ele>1111</ele>
        <time>2021-08-03T09:15:33.289Z</time>
      </trkpt>
      <trkpt lat="47.0261" lon="8.91658">
        <ele>1112</ele>
        <time>2021-08-03T09:15:34.289Z</time>
      </trkpt>
      <trkpt lat="47.02609" lon="8.91658">
        <ele>1112</ele>
        <time>2021-08-03T09:15:35.288Z</time>
      </trkpt>
      <trkpt lat="47.02608" lon="8.91657">
        <ele>1112</ele>
        <time>2021-08-03T09:15:36.289Z</time>
      </trkpt>
      <trkpt lat="47.02607" lon="8.91656">
        <ele>1112</ele>
        <time>2021-08-03T09:15:37.289Z</time>
      </trkpt>
      <trkpt lat="47.02605" lon="8.91654">
        <ele>1112</ele>
        <time>2021-08-03T09:15:38.289Z</time>
      </trkpt>
      <trkpt lat="47.02603" lon="8.91653">
        <ele>1112</ele>
        <time>2021-08-03T09:15:39.288Z</time>
      </trkpt>
      <trkpt lat="47.02601" lon="8.91652">
        <ele>1112</ele>
        <time>2021-08-03T09:15:40.288Z</time>
      </trkpt>
      <trkpt lat="47.02599" lon="8.91652">
        <ele>1112</ele>
        <time>2021-08-03T09:15:41.288Z</time>
      </trkpt>
      <trkpt lat="47.02596" lon="8.91652">
        <ele>1111</ele>
        <time>2021-08-03T09:15:42.288Z</time>
      </trkpt>
      <trkpt lat="47.02594" lon="8.91652">
        <ele>1111</ele>
        <time>2021-08-03T09:15:43.289Z</time>
      </trkpt>
      <trkpt lat="47.02592" lon="8.9165">
        <ele>1111</ele>
        <time>2021-08-03T09:15:44.288Z</time>
      </trkpt>
      <trkpt lat="47.02591" lon="8.91647">
        <ele>1111</ele>
        <time>2021-08-03T09:15:45.288Z</time>
      </trkpt>
      <trkpt lat="47.0259" lon="8.91644">
        <ele>1111</ele>
        <time>2021-08-03T09:15:46.289Z</time>
      </trkpt>
      <trkpt lat="47.0259" lon="8.91641">
        <ele>1111</ele>
        <time>2021-08-03T09:15:47.289Z</time>
      </trkpt>
      <trkpt lat="47.0259" lon="8.91639">
        <ele>1111</ele>
        <time>2021-08-03T09:15:48.289Z</time>
      </trkpt>
      <trkpt lat="47.02591" lon="8.91638">
        <ele>1112</ele>
        <time>2021-08-03T09:15:49.289Z</time>
      </trkpt>
      <trkpt lat="47.02592" lon="8.91637">
        <ele>1112</ele>
        <time>2021-08-03T09:15:50.289Z</time>
      </trkpt>
      <trkpt lat="47.02591" lon="8.91636">
        <ele>1112</ele>
        <time>2021-08-03T09:15:51.289Z</time>
      </trkpt>
      <trkpt lat="47.02591" lon="8.91636">
        <ele>1111</ele>
        <time>2021-08-03T09:15:52.288Z</time>
      </trkpt>
      <trkpt lat="47.02591" lon="8.91637">
        <ele>1111</ele>
        <time>2021-08-03T09:15:53.289Z</time>
      </trkpt>
      <trkpt lat="47.02591" lon="8.91637">
        <ele>1111</ele>
        <time>2021-08-03T09:15:54.289Z</time>
      </trkpt>
      <trkpt lat="47.02591" lon="8.91636">
        <ele>1111</ele>
        <time>2021-08-03T09:15:55.289Z</time>
      </trkpt>
      <trkpt lat="47.02591" lon="8.91635">
        <ele>1111</ele>
        <time>2021-08-03T09:15:56.289Z</time>
      </trkpt>
      <trkpt lat="47.0259" lon="8.91633">
        <ele>1111</ele>
        <time>2021-08-03T09:15:57.288Z</time>
      </trkpt>
      <trkpt lat="47.02589" lon="8.91631">
        <ele>1112</ele>
        <time>2021-08-03T09:15:58.289Z</time>
      </trkpt>
      <trkpt lat="47.02588" lon="8.91631">
        <ele>1112</ele>
        <time>2021-08-03T09:15:59.288Z</time>
      </trkpt>
      <trkpt lat="47.02588" lon="8.91631">
        <ele>1112</ele>
        <time>2021-08-03T09:16:00.289Z</time>
      </trkpt>
      <trkpt lat="47.02588" lon="8.91631">
        <ele>1112</ele>
        <time>2021-08-03T09:16:01.288Z</time>
      </trkpt>
      <trkpt lat="47.02589" lon="8.91632">
        <ele>1113</ele>
        <time>2021-08-03T09:16:02.289Z</time>
      </trkpt>
      <trkpt lat="47.02588" lon="8.91631">
        <ele>1113</ele>
        <time>2021-08-03T09:16:03.289Z</time>
      </trkpt>
      <trkpt lat="47.02588" lon="8.9163">
        <ele>1113</ele>
        <time>2021-08-03T09:16:04.289Z</time>
      </trkpt>
      <trkpt lat="47.02586" lon="8.91629">
        <ele>1113</ele>
        <time>2021-08-03T09:16:05.288Z</time>
      </trkpt>
      <trkpt lat="47.02583" lon="8.91628">
        <ele>1113</ele>
        <time>2021-08-03T09:16:06.288Z</time>
      </trkpt>
      <trkpt lat="47.02581" lon="8.91628">
        <ele>1112</ele>
        <time>2021-08-03T09:16:07.289Z</time>
      </trkpt>
      <trkpt lat="47.0258" lon="8.91628">
        <ele>1112</ele>
        <time>2021-08-03T09:16:08.289Z</time>
      </trkpt>
      <trkpt lat="47.02579" lon="8.91628">
        <ele>1112</ele>
        <time>2021-08-03T09:16:09.289Z</time>
      </trkpt>
      <trkpt lat="47.0258" lon="8.91627">
        <ele>1112</ele>
        <time>2021-08-03T09:16:10.289Z</time>
      </trkpt>
      <trkpt lat="47.0258" lon="8.91627">
        <ele>1112</ele>
        <time>2021-08-03T09:16:11.289Z</time>
      </trkpt>
      <trkpt lat="47.0258" lon="8.91626">
        <ele>1112</ele>
        <time>2021-08-03T09:16:12.289Z</time>
      </trkpt>
      <trkpt lat="47.02579" lon="8.91625">
        <ele>1112</ele>
        <time>2021-08-03T09:16:13.289Z</time>
      </trkpt>
      <trkpt lat="47.0258" lon="8.91625">
        <ele>1112</ele>
        <time>2021-08-03T09:16:14.289Z</time>
      </trkpt>
      <trkpt lat="47.0258" lon="8.91624">
        <ele>1112</ele>
        <time>2021-08-03T09:16:15.288Z</time>
      </trkpt>
      <trkpt lat="47.02578" lon="8.91625">
        <ele>1112</ele>
        <time>2021-08-03T09:16:16.289Z</time>
      </trkpt>
      <trkpt lat="47.02575" lon="8.91626">
        <ele>1112</ele>
        <time>2021-08-03T09:16:17.289Z</time>
      </trkpt>
      <trkpt lat="47.02574" lon="8.91624">
        <ele>1112</ele>
        <time>2021-08-03T09:16:18.288Z</time>
      </trkpt>
      <trkpt lat="47.02574" lon="8.91623">
        <ele>1112</ele>
        <time>2021-08-03T09:16:19.289Z</time>
      </trkpt>
      <trkpt lat="47.02574" lon="8.91621">
        <ele>1112</ele>
        <time>2021-08-03T09:16:20.289Z</time>
      </trkpt>
      <trkpt lat="47.02573" lon="8.91619">
        <ele>1111</ele>
        <time>2021-08-03T09:16:21.288Z</time>
      </trkpt>
      <trkpt lat="47.02573" lon="8.91618">
        <ele>1111</ele>
        <time>2021-08-03T09:16:22.288Z</time>
      </trkpt>
      <trkpt lat="47.02574" lon="8.91616">
        <ele>1111</ele>
        <time>2021-08-03T09:16:23.289Z</time>
      </trkpt>
      <trkpt lat="47.02575" lon="8.91614">
        <ele>1111</ele>
        <time>2021-08-03T09:16:24.289Z</time>
      </trkpt>
      <trkpt lat="47.02574" lon="8.91614">
        <ele>1111</ele>
        <time>2021-08-03T09:16:25.289Z</time>
      </trkpt>
      <trkpt lat="47.02573" lon="8.91616">
        <ele>1112</ele>
        <time>2021-08-03T09:16:26.289Z</time>
      </trkpt>
      <trkpt lat="47.02573" lon="8.91615">
        <ele>1112</ele>
        <time>2021-08-03T09:16:27.288Z</time>
      </trkpt>
      <trkpt lat="47.02573" lon="8.91616">
        <ele>1112</ele>
        <time>2021-08-03T09:16:28.289Z</time>
      </trkpt>
      <trkpt lat="47.02572" lon="8.91615">
        <ele>1112</ele>
        <time>2021-08-03T09:16:29.289Z</time>
      </trkpt>
      <trkpt lat="47.02572" lon="8.91613">
        <ele>1112</ele>
        <time>2021-08-03T09:16:30.289Z</time>
      </trkpt>
      <trkpt lat="47.02572" lon="8.91613">
        <ele>1112</ele>
        <time>2021-08-03T09:16:31.289Z</time>
      </trkpt>
      <trkpt lat="47.02571" lon="8.91612">
        <ele>1112</ele>
        <time>2021-08-03T09:16:32.289Z</time>
      </trkpt>
      <trkpt lat="47.02571" lon="8.91612">
        <ele>1112</ele>
        <time>2021-08-03T09:16:33.289Z</time>
      </trkpt>
      <trkpt lat="47.0257" lon="8.91611">
        <ele>1112</ele>
        <time>2021-08-03T09:16:34.289Z</time>
      </trkpt>
      <trkpt lat="47.0257" lon="8.91611">
        <ele>1112</ele>
        <time>2021-08-03T09:16:35.288Z</time>
      </trkpt>
      <trkpt lat="47.02571" lon="8.91609">
        <ele>1112</ele>
        <time>2021-08-03T09:16:36.289Z</time>
      </trkpt>
      <trkpt lat="47.02571" lon="8.91607">
        <ele>1113</ele>
        <time>2021-08-03T09:16:37.288Z</time>
      </trkpt>
      <trkpt lat="47.02572" lon="8.91605">
        <ele>1113</ele>
        <time>2021-08-03T09:16:38.288Z</time>
      </trkpt>
      <trkpt lat="47.02571" lon="8.91603">
        <ele>1113</ele>
        <time>2021-08-03T09:16:39.288Z</time>
      </trkpt>
      <trkpt lat="47.0257" lon="8.91601">
        <ele>1113</ele>
        <time>2021-08-03T09:16:40.289Z</time>
      </trkpt>
      <trkpt lat="47.02568" lon="8.91599">
        <ele>1113</ele>
        <time>2021-08-03T09:16:41.289Z</time>
      </trkpt>
      <trkpt lat="47.02568" lon="8.91597">
        <ele>1113</ele>
        <time>2021-08-03T09:16:42.289Z</time>
      </trkpt>
      <trkpt lat="47.02567" lon="8.91597">
        <ele>1113</ele>
        <time>2021-08-03T09:16:43.289Z</time>
      </trkpt>
      <trkpt lat="47.02567" lon="8.91598">
        <ele>1113</ele>
        <time>2021-08-03T09:16:44.289Z</time>
      </trkpt>
      <trkpt lat="47.02566" lon="8.91599">
        <ele>1113</ele>
        <time>2021-08-03T09:16:45.289Z</time>
      </trkpt>
      <trkpt lat="47.02566" lon="8.91599">
        <ele>1113</ele>
        <time>2021-08-03T09:16:46.289Z</time>
      </trkpt>
      <trkpt lat="47.02567" lon="8.91599">
        <ele>1113</ele>
        <time>2021-08-03T09:16:47.288Z</time>
      </trkpt>
      <trkpt lat="47.02567" lon="8.91599">
        <ele>1112</ele>
        <time>2021-08-03T09:16:48.288Z</time>
      </trkpt>
      <trkpt lat="47.02567" lon="8.91599">
        <ele>1112</ele>
        <time>2021-08-03T09:16:49.289Z</time>
      </trkpt>
      <trkpt lat="47.02566" lon="8.91599">
        <ele>1112</ele>
        <time>2021-08-03T09:16:50.288Z</time>
      </trkpt>
      <trkpt lat="47.02566" lon="8.91598">
        <ele>1112</ele>
        <time>2021-08-03T09:16:51.289Z</time>
      </trkpt>
      <trkpt lat="47.02566" lon="8.91597">
        <ele>1111</ele>
        <time>2021-08-03T09:16:52.289Z</time>
      </trkpt>
      <trkpt lat="47.02565" lon="8.91596">
        <ele>1111</ele>
        <time>2021-08-03T09:16:53.289Z</time>
      </trkpt>
      <trkpt lat="47.02564" lon="8.91596">
        <ele>1111</ele>
        <time>2021-08-03T09:16:54.288Z</time>
      </trkpt>
      <trkpt lat="47.02564" lon="8.91596">
        <ele>1111</ele>
        <time>2021-08-03T09:16:55.289Z</time>
      </trkpt>
      <trkpt lat="47.02559" lon="8.91593">
        <ele>1113</ele>
        <time>2021-08-03T09:16:56.290Z</time>
      </trkpt>
      <trkpt lat="47.02559" lon="8.91593">
        <ele>1113</ele>
        <time>2021-08-03T09:16:57.289Z</time>
      </trkpt>
      <trkpt lat="47.02558" lon="8.91593">
        <ele>1113</ele>
        <time>2021-08-03T09:16:58.289Z</time>
      </trkpt>
      <trkpt lat="47.02558" lon="8.91591">
        <ele>1112</ele>
        <time>2021-08-03T09:16:59.290Z</time>
      </trkpt>
      <trkpt lat="47.02558" lon="8.9159">
        <ele>1112</ele>
        <time>2021-08-03T09:17:00.290Z</time>
      </trkpt>
      <trkpt lat="47.02559" lon="8.91589">
        <ele>1112</ele>
        <time>2021-08-03T09:17:01.290Z</time>
      </trkpt>
      <trkpt lat="47.0256" lon="8.91591">
        <ele>1118</ele>
        <time>2021-08-03T09:17:02.291Z</time>
      </trkpt>
      <trkpt lat="47.02559" lon="8.91589">
        <ele>1119</ele>
        <time>2021-08-03T09:17:03.291Z</time>
      </trkpt>
      <trkpt lat="47.02558" lon="8.91587">
        <ele>1120</ele>
        <time>2021-08-03T09:17:04.291Z</time>
      </trkpt>
      <trkpt lat="47.02557" lon="8.91586">
        <ele>1123</ele>
        <time>2021-08-03T09:17:05.291Z</time>
      </trkpt>
      <trkpt lat="47.02557" lon="8.91586">
        <ele>1123</ele>
        <time>2021-08-03T09:17:06.291Z</time>
      </trkpt>
      <trkpt lat="47.02558" lon="8.91586">
        <ele>1124</ele>
        <time>2021-08-03T09:17:07.291Z</time>
      </trkpt>
      <trkpt lat="47.02557" lon="8.91587">
        <ele>1125</ele>
        <time>2021-08-03T09:17:08.292Z</time>
      </trkpt>
      <trkpt lat="47.02557" lon="8.91587">
        <ele>1125</ele>
        <time>2021-08-03T09:17:09.292Z</time>
      </trkpt>
      <trkpt lat="47.02557" lon="8.91589">
        <ele>1126</ele>
        <time>2021-08-03T09:17:10.291Z</time>
      </trkpt>
      <trkpt lat="47.02558" lon="8.91588">
        <ele>1126</ele>
        <time>2021-08-03T09:17:11.291Z</time>
      </trkpt>
      <trkpt lat="47.02558" lon="8.91588">
        <ele>1127</ele>
        <time>2021-08-03T09:17:12.292Z</time>
      </trkpt>
      <trkpt lat="47.02558" lon="8.91589">
        <ele>1127</ele>
        <time>2021-08-03T09:17:13.292Z</time>
      </trkpt>
      <trkpt lat="47.02558" lon="8.91588">
        <ele>1127</ele>
        <time>2021-08-03T09:17:14.292Z</time>
      </trkpt>
      <trkpt lat="47.02558" lon="8.91588">
        <ele>1127</ele>
        <time>2021-08-03T09:17:15.292Z</time>
      </trkpt>
      <trkpt lat="47.02557" lon="8.91588">
        <ele>1126</ele>
        <time>2021-08-03T09:17:16.293Z</time>
      </trkpt>
      <trkpt lat="47.02557" lon="8.91588">
        <ele>1126</ele>
        <time>2021-08-03T09:17:17.292Z</time>
      </trkpt>
      <trkpt lat="47.02556" lon="8.91584">
        <ele>1123</ele>
        <time>2021-08-03T09:17:18.292Z</time>
      </trkpt>
      <trkpt lat="47.02556" lon="8.91584">
        <ele>1123</ele>
        <time>2021-08-03T09:17:19.292Z</time>
      </trkpt>
      <trkpt lat="47.02555" lon="8.91584">
        <ele>1123</ele>
        <time>2021-08-03T09:17:20.293Z</time>
      </trkpt>
      <trkpt lat="47.02555" lon="8.91585">
        <ele>1123</ele>
        <time>2021-08-03T09:17:21.293Z</time>
      </trkpt>
      <trkpt lat="47.02555" lon="8.91585">
        <ele>1123</ele>
        <time>2021-08-03T09:17:22.292Z</time>
      </trkpt>
      <trkpt lat="47.02555" lon="8.91586">
        <ele>1123</ele>
        <time>2021-08-03T09:17:23.292Z</time>
      </trkpt>
      <trkpt lat="47.02555" lon="8.9159">
        <ele>1123</ele>
        <time>2021-08-03T09:17:24.292Z</time>
      </trkpt>
      <trkpt lat="47.02556" lon="8.9159">
        <ele>1123</ele>
        <time>2021-08-03T09:17:25.292Z</time>
      </trkpt>
      <trkpt lat="47.02555" lon="8.91591">
        <ele>1123</ele>
        <time>2021-08-03T09:17:26.293Z</time>
      </trkpt>
      <trkpt lat="47.02555" lon="8.91591">
        <ele>1122</ele>
        <time>2021-08-03T09:17:27.292Z</time>
      </trkpt>
      <trkpt lat="47.02555" lon="8.91591">
        <ele>1122</ele>
        <time>2021-08-03T09:17:28.293Z</time>
      </trkpt>
      <trkpt lat="47.02555" lon="8.9159">
        <ele>1121</ele>
        <time>2021-08-03T09:17:29.293Z</time>
      </trkpt>
      <trkpt lat="47.02554" lon="8.9159">
        <ele>1121</ele>
        <time>2021-08-03T09:17:30.293Z</time>
      </trkpt>
      <trkpt lat="47.02558" lon="8.91588">
        <ele>1121</ele>
        <time>2021-08-03T09:17:31.293Z</time>
      </trkpt>
      <trkpt lat="47.02558" lon="8.91588">
        <ele>1121</ele>
        <time>2021-08-03T09:17:32.294Z</time>
      </trkpt>
      <trkpt lat="47.02558" lon="8.91588">
        <ele>1121</ele>
        <time>2021-08-03T09:17:33.293Z</time>
      </trkpt>
      <trkpt lat="47.02558" lon="8.91588">
        <ele>1121</ele>
        <time>2021-08-03T09:17:34.295Z</time>
      </trkpt>
      <trkpt lat="47.02557" lon="8.91587">
        <ele>1121</ele>
        <time>2021-08-03T09:17:35.294Z</time>
      </trkpt>
      <trkpt lat="47.02557" lon="8.91586">
        <ele>1121</ele>
        <time>2021-08-03T09:17:36.294Z</time>
      </trkpt>
      <trkpt lat="47.02556" lon="8.91586">
        <ele>1121</ele>
        <time>2021-08-03T09:17:37.296Z</time>
      </trkpt>
      <trkpt lat="47.02555" lon="8.91586">
        <ele>1121</ele>
        <time>2021-08-03T09:17:38.295Z</time>
      </trkpt>
      <trkpt lat="47.02554" lon="8.91586">
        <ele>1121</ele>
        <time>2021-08-03T09:17:39.295Z</time>
      </trkpt>
      <trkpt lat="47.02554" lon="8.91587">
        <ele>1121</ele>
        <time>2021-08-03T09:17:40.296Z</time>
      </trkpt>
      <trkpt lat="47.02553" lon="8.91587">
        <ele>1121</ele>
        <time>2021-08-03T09:17:41.295Z</time>
      </trkpt>
      <trkpt lat="47.02553" lon="8.91587">
        <ele>1121</ele>
        <time>2021-08-03T09:17:42.295Z</time>
      </trkpt>
      <trkpt lat="47.02553" lon="8.91586">
        <ele>1120</ele>
        <time>2021-08-03T09:17:43.295Z</time>
      </trkpt>
      <trkpt lat="47.02553" lon="8.91586">
        <ele>1120</ele>
        <time>2021-08-03T09:17:44.295Z</time>
      </trkpt>
      <trkpt lat="47.02553" lon="8.91585">
        <ele>1120</ele>
        <time>2021-08-03T09:17:45.295Z</time>
      </trkpt>
      <trkpt lat="47.02553" lon="8.91585">
        <ele>1121</ele>
        <time>2021-08-03T09:17:46.296Z</time>
      </trkpt>
      <trkpt lat="47.02553" lon="8.91583">
        <ele>1121</ele>
        <time>2021-08-03T09:17:47.296Z</time>
      </trkpt>
      <trkpt lat="47.02552" lon="8.91582">
        <ele>1121</ele>
        <time>2021-08-03T09:17:48.296Z</time>
      </trkpt>
      <trkpt lat="47.02552" lon="8.91582">
        <ele>1122</ele>
        <time>2021-08-03T09:17:49.296Z</time>
      </trkpt>
      <trkpt lat="47.02551" lon="8.91581">
        <ele>1122</ele>
        <time>2021-08-03T09:17:50.296Z</time>
      </trkpt>
      <trkpt lat="47.0255" lon="8.91581">
        <ele>1122</ele>
        <time>2021-08-03T09:17:51.296Z</time>
      </trkpt>
      <trkpt lat="47.02549" lon="8.9158">
        <ele>1123</ele>
        <time>2021-08-03T09:17:52.296Z</time>
      </trkpt>
      <trkpt lat="47.02549" lon="8.9158">
        <ele>1123</ele>
        <time>2021-08-03T09:17:53.296Z</time>
      </trkpt>
      <trkpt lat="47.02549" lon="8.91579">
        <ele>1123</ele>
        <time>2021-08-03T09:17:54.296Z</time>
      </trkpt>
      <trkpt lat="47.02549" lon="8.91579">
        <ele>1122</ele>
        <time>2021-08-03T09:17:55.295Z</time>
      </trkpt>
      <trkpt lat="47.02549" lon="8.91579">
        <ele>1121</ele>
        <time>2021-08-03T09:17:56.296Z</time>
      </trkpt>
      <trkpt lat="47.02548" lon="8.91579">
        <ele>1120</ele>
        <time>2021-08-03T09:17:57.296Z</time>
      </trkpt>
      <trkpt lat="47.02547" lon="8.91579">
        <ele>1120</ele>
        <time>2021-08-03T09:17:58.296Z</time>
      </trkpt>
      <trkpt lat="47.02546" lon="8.9158">
        <ele>1119</ele>
        <time>2021-08-03T09:17:59.295Z</time>
      </trkpt>
      <trkpt lat="47.02545" lon="8.9158">
        <ele>1118</ele>
        <time>2021-08-03T09:18:00.295Z</time>
      </trkpt>
      <trkpt lat="47.02544" lon="8.9158">
        <ele>1118</ele>
        <time>2021-08-03T09:18:01.296Z</time>
      </trkpt>
      <trkpt lat="47.02543" lon="8.91581">
        <ele>1118</ele>
        <time>2021-08-03T09:18:02.296Z</time>
      </trkpt>
      <trkpt lat="47.02541" lon="8.9158">
        <ele>1117</ele>
        <time>2021-08-03T09:18:03.296Z</time>
      </trkpt>
      <trkpt lat="47.0254" lon="8.91579">
        <ele>1117</ele>
        <time>2021-08-03T09:18:04.295Z</time>
      </trkpt>
      <trkpt lat="47.02539" lon="8.91577">
        <ele>1116</ele>
        <time>2021-08-03T09:18:05.296Z</time>
      </trkpt>
      <trkpt lat="47.02537" lon="8.91577">
        <ele>1116</ele>
        <time>2021-08-03T09:18:06.295Z</time>
      </trkpt>
      <trkpt lat="47.02536" lon="8.91577">
        <ele>1116</ele>
        <time>2021-08-03T09:18:07.296Z</time>
      </trkpt>
      <trkpt lat="47.02535" lon="8.91576">
        <ele>1116</ele>
        <time>2021-08-03T09:18:08.295Z</time>
      </trkpt>
      <trkpt lat="47.02534" lon="8.91575">
        <ele>1115</ele>
        <time>2021-08-03T09:18:09.296Z</time>
      </trkpt>
      <trkpt lat="47.02532" lon="8.91574">
        <ele>1115</ele>
        <time>2021-08-03T09:18:10.295Z</time>
      </trkpt>
      <trkpt lat="47.02531" lon="8.91574">
        <ele>1114</ele>
        <time>2021-08-03T09:18:11.295Z</time>
      </trkpt>
      <trkpt lat="47.02531" lon="8.91574">
        <ele>1114</ele>
        <time>2021-08-03T09:18:12.295Z</time>
      </trkpt>
      <trkpt lat="47.0253" lon="8.91573">
        <ele>1113</ele>
        <time>2021-08-03T09:18:13.296Z</time>
      </trkpt>
      <trkpt lat="47.02529" lon="8.91573">
        <ele>1113</ele>
        <time>2021-08-03T09:18:14.296Z</time>
      </trkpt>
      <trkpt lat="47.02528" lon="8.91573">
        <ele>1112</ele>
        <time>2021-08-03T09:18:15.296Z</time>
      </trkpt>
      <trkpt lat="47.02527" lon="8.91572">
        <ele>1112</ele>
        <time>2021-08-03T09:18:16.296Z</time>
      </trkpt>
      <trkpt lat="47.02527" lon="8.91571">
        <ele>1111</ele>
        <time>2021-08-03T09:18:17.296Z</time>
      </trkpt>
      <trkpt lat="47.02527" lon="8.91571">
        <ele>1111</ele>
        <time>2021-08-03T09:18:18.296Z</time>
      </trkpt>
      <trkpt lat="47.02526" lon="8.91571">
        <ele>1111</ele>
        <time>2021-08-03T09:18:19.296Z</time>
      </trkpt>
      <trkpt lat="47.02525" lon="8.91573">
        <ele>1111</ele>
        <time>2021-08-03T09:18:20.295Z</time>
      </trkpt>
      <trkpt lat="47.02524" lon="8.91574">
        <ele>1111</ele>
        <time>2021-08-03T09:18:21.296Z</time>
      </trkpt>
      <trkpt lat="47.02523" lon="8.91574">
        <ele>1112</ele>
        <time>2021-08-03T09:18:22.296Z</time>
      </trkpt>
      <trkpt lat="47.02522" lon="8.91574">
        <ele>1112</ele>
        <time>2021-08-03T09:18:23.295Z</time>
      </trkpt>
      <trkpt lat="47.02521" lon="8.91575">
        <ele>1112</ele>
        <time>2021-08-03T09:18:24.296Z</time>
      </trkpt>
      <trkpt lat="47.0252" lon="8.91576">
        <ele>1112</ele>
        <time>2021-08-03T09:18:25.296Z</time>
      </trkpt>
      <trkpt lat="47.02519" lon="8.91576">
        <ele>1111</ele>
        <time>2021-08-03T09:18:26.296Z</time>
      </trkpt>
      <trkpt lat="47.02518" lon="8.91576">
        <ele>1111</ele>
        <time>2021-08-03T09:18:27.296Z</time>
      </trkpt>
      <trkpt lat="47.02518" lon="8.91576">
        <ele>1111</ele>
        <time>2021-08-03T09:18:28.296Z</time>
      </trkpt>
      <trkpt lat="47.02517" lon="8.91576">
        <ele>1111</ele>
        <time>2021-08-03T09:18:29.296Z</time>
      </trkpt>
      <trkpt lat="47.02517" lon="8.91576">
        <ele>1111</ele>
        <time>2021-08-03T09:18:30.295Z</time>
      </trkpt>
      <trkpt lat="47.02517" lon="8.91576">
        <ele>1111</ele>
        <time>2021-08-03T09:18:31.296Z</time>
      </trkpt>
      <trkpt lat="47.02515" lon="8.91574">
        <ele>1111</ele>
        <time>2021-08-03T09:18:32.296Z</time>
      </trkpt>
      <trkpt lat="47.02515" lon="8.91573">
        <ele>1111</ele>
        <time>2021-08-03T09:18:33.297Z</time>
      </trkpt>
      <trkpt lat="47.02516" lon="8.91572">
        <ele>1111</ele>
        <time>2021-08-03T09:18:34.297Z</time>
      </trkpt>
      <trkpt lat="47.02516" lon="8.91572">
        <ele>1111</ele>
        <time>2021-08-03T09:18:35.296Z</time>
      </trkpt>
      <trkpt lat="47.02516" lon="8.91572">
        <ele>1111</ele>
        <time>2021-08-03T09:18:36.296Z</time>
      </trkpt>
      <trkpt lat="47.02516" lon="8.91573">
        <ele>1111</ele>
        <time>2021-08-03T09:18:37.296Z</time>
      </trkpt>
      <trkpt lat="47.02517" lon="8.91572">
        <ele>1112</ele>
        <time>2021-08-03T09:18:38.297Z</time>
      </trkpt>
      <trkpt lat="47.02516" lon="8.91572">
        <ele>1112</ele>
        <time>2021-08-03T09:18:39.297Z</time>
      </trkpt>
      <trkpt lat="47.02515" lon="8.91571">
        <ele>1112</ele>
        <time>2021-08-03T09:18:40.297Z</time>
      </trkpt>
      <trkpt lat="47.02515" lon="8.91571">
        <ele>1112</ele>
        <time>2021-08-03T09:18:41.297Z</time>
      </trkpt>
      <trkpt lat="47.02514" lon="8.91571">
        <ele>1112</ele>
        <time>2021-08-03T09:18:42.297Z</time>
      </trkpt>
      <trkpt lat="47.02514" lon="8.91571">
        <ele>1112</ele>
        <time>2021-08-03T09:18:43.298Z</time>
      </trkpt>
      <trkpt lat="47.02513" lon="8.91571">
        <ele>1112</ele>
        <time>2021-08-03T09:18:44.297Z</time>
      </trkpt>
      <trkpt lat="47.02513" lon="8.91572">
        <ele>1113</ele>
        <time>2021-08-03T09:18:45.297Z</time>
      </trkpt>
      <trkpt lat="47.02512" lon="8.91572">
        <ele>1113</ele>
        <time>2021-08-03T09:18:46.298Z</time>
      </trkpt>
      <trkpt lat="47.0251" lon="8.91572">
        <ele>1113</ele>
        <time>2021-08-03T09:18:47.298Z</time>
      </trkpt>
      <trkpt lat="47.02509" lon="8.91572">
        <ele>1113</ele>
        <time>2021-08-03T09:18:48.298Z</time>
      </trkpt>
      <trkpt lat="47.02504" lon="8.91571">
        <ele>1114</ele>
        <time>2021-08-03T09:18:49.299Z</time>
      </trkpt>
      <trkpt lat="47.02504" lon="8.9157">
        <ele>1115</ele>
        <time>2021-08-03T09:18:50.299Z</time>
      </trkpt>
      <trkpt lat="47.02504" lon="8.91568">
        <ele>1115</ele>
        <time>2021-08-03T09:18:51.299Z</time>
      </trkpt>
      <trkpt lat="47.02504" lon="8.91567">
        <ele>1115</ele>
        <time>2021-08-03T09:18:52.299Z</time>
      </trkpt>
      <trkpt lat="47.02503" lon="8.91567">
        <ele>1116</ele>
        <time>2021-08-03T09:18:53.299Z</time>
      </trkpt>
      <trkpt lat="47.02502" lon="8.91567">
        <ele>1116</ele>
        <time>2021-08-03T09:18:54.299Z</time>
      </trkpt>
      <trkpt lat="47.02502" lon="8.91566">
        <ele>1117</ele>
        <time>2021-08-03T09:18:55.299Z</time>
      </trkpt>
      <trkpt lat="47.02501" lon="8.91565">
        <ele>1117</ele>
        <time>2021-08-03T09:18:56.298Z</time>
      </trkpt>
      <trkpt lat="47.02501" lon="8.91565">
        <ele>1117</ele>
        <time>2021-08-03T09:18:57.299Z</time>
      </trkpt>
      <trkpt lat="47.02501" lon="8.91564">
        <ele>1117</ele>
        <time>2021-08-03T09:18:58.299Z</time>
      </trkpt>
      <trkpt lat="47.025" lon="8.91563">
        <ele>1117</ele>
        <time>2021-08-03T09:18:59.299Z</time>
      </trkpt>
      <trkpt lat="47.025" lon="8.91563">
        <ele>1117</ele>
        <time>2021-08-03T09:19:00.298Z</time>
      </trkpt>
      <trkpt lat="47.025" lon="8.91562">
        <ele>1117</ele>
        <time>2021-08-03T09:19:01.299Z</time>
      </trkpt>
      <trkpt lat="47.025" lon="8.91561">
        <ele>1117</ele>
        <time>2021-08-03T09:19:02.298Z</time>
      </trkpt>
      <trkpt lat="47.02499" lon="8.9156">
        <ele>1117</ele>
        <time>2021-08-03T09:19:03.298Z</time>
      </trkpt>
      <trkpt lat="47.02498" lon="8.9156">
        <ele>1116</ele>
        <time>2021-08-03T09:19:04.299Z</time>
      </trkpt>
      <trkpt lat="47.02498" lon="8.91558">
        <ele>1116</ele>
        <time>2021-08-03T09:19:05.299Z</time>
      </trkpt>
      <trkpt lat="47.02497" lon="8.91557">
        <ele>1115</ele>
        <time>2021-08-03T09:19:06.299Z</time>
      </trkpt>
      <trkpt lat="47.02497" lon="8.91556">
        <ele>1115</ele>
        <time>2021-08-03T09:19:07.299Z</time>
      </trkpt>
      <trkpt lat="47.02496" lon="8.91555">
        <ele>1114</ele>
        <time>2021-08-03T09:19:08.298Z</time>
      </trkpt>
      <trkpt lat="47.02495" lon="8.91555">
        <ele>1114</ele>
        <time>2021-08-03T09:19:09.299Z</time>
      </trkpt>
      <trkpt lat="47.02495" lon="8.91554">
        <ele>1114</ele>
        <time>2021-08-03T09:19:10.299Z</time>
      </trkpt>
      <trkpt lat="47.02495" lon="8.91553">
        <ele>1113</ele>
        <time>2021-08-03T09:19:11.299Z</time>
      </trkpt>
      <trkpt lat="47.02495" lon="8.91552">
        <ele>1113</ele>
        <time>2021-08-03T09:19:12.299Z</time>
      </trkpt>
      <trkpt lat="47.02494" lon="8.91551">
        <ele>1113</ele>
        <time>2021-08-03T09:19:13.299Z</time>
      </trkpt>
      <trkpt lat="47.02494" lon="8.9155">
        <ele>1113</ele>
        <time>2021-08-03T09:19:14.299Z</time>
      </trkpt>
      <trkpt lat="47.02494" lon="8.91549">
        <ele>1112</ele>
        <time>2021-08-03T09:19:15.299Z</time>
      </trkpt>
      <trkpt lat="47.02493" lon="8.91548">
        <ele>1112</ele>
        <time>2021-08-03T09:19:16.299Z</time>
      </trkpt>
      <trkpt lat="47.02492" lon="8.91548">
        <ele>1111</ele>
        <time>2021-08-03T09:19:17.299Z</time>
      </trkpt>
      <trkpt lat="47.02491" lon="8.91548">
        <ele>1110</ele>
        <time>2021-08-03T09:19:18.298Z</time>
      </trkpt>
      <trkpt lat="47.02491" lon="8.91548">
        <ele>1110</ele>
        <time>2021-08-03T09:19:19.299Z</time>
      </trkpt>
      <trkpt lat="47.0249" lon="8.91547">
        <ele>1109</ele>
        <time>2021-08-03T09:19:20.299Z</time>
      </trkpt>
      <trkpt lat="47.02489" lon="8.91546">
        <ele>1108</ele>
        <time>2021-08-03T09:19:21.299Z</time>
      </trkpt>
      <trkpt lat="47.02489" lon="8.91546">
        <ele>1108</ele>
        <time>2021-08-03T09:19:22.298Z</time>
      </trkpt>
      <trkpt lat="47.02489" lon="8.91545">
        <ele>1107</ele>
        <time>2021-08-03T09:19:23.298Z</time>
      </trkpt>
      <trkpt lat="47.02488" lon="8.91545">
        <ele>1107</ele>
        <time>2021-08-03T09:19:24.298Z</time>
      </trkpt>
      <trkpt lat="47.02488" lon="8.91544">
        <ele>1106</ele>
        <time>2021-08-03T09:19:25.298Z</time>
      </trkpt>
      <trkpt lat="47.02487" lon="8.91544">
        <ele>1106</ele>
        <time>2021-08-03T09:19:26.298Z</time>
      </trkpt>
      <trkpt lat="47.02487" lon="8.91544">
        <ele>1106</ele>
        <time>2021-08-03T09:19:27.298Z</time>
      </trkpt>
      <trkpt lat="47.02486" lon="8.91543">
        <ele>1105</ele>
        <time>2021-08-03T09:19:28.299Z</time>
      </trkpt>
      <trkpt lat="47.02485" lon="8.91542">
        <ele>1105</ele>
        <time>2021-08-03T09:19:29.298Z</time>
      </trkpt>
      <trkpt lat="47.02484" lon="8.91541">
        <ele>1105</ele>
        <time>2021-08-03T09:19:30.298Z</time>
      </trkpt>
      <trkpt lat="47.02483" lon="8.9154">
        <ele>1104</ele>
        <time>2021-08-03T09:19:31.298Z</time>
      </trkpt>
      <trkpt lat="47.02483" lon="8.9154">
        <ele>1104</ele>
        <time>2021-08-03T09:19:32.298Z</time>
      </trkpt>
      <trkpt lat="47.02483" lon="8.91539">
        <ele>1104</ele>
        <time>2021-08-03T09:19:33.298Z</time>
      </trkpt>
      <trkpt lat="47.02483" lon="8.91539">
        <ele>1104</ele>
        <time>2021-08-03T09:19:34.299Z</time>
      </trkpt>
      <trkpt lat="47.02482" lon="8.91539">
        <ele>1104</ele>
        <time>2021-08-03T09:19:35.299Z</time>
      </trkpt>
      <trkpt lat="47.02481" lon="8.91539">
        <ele>1104</ele>
        <time>2021-08-03T09:19:36.299Z</time>
      </trkpt>
      <trkpt lat="47.02481" lon="8.91539">
        <ele>1104</ele>
        <time>2021-08-03T09:19:37.298Z</time>
      </trkpt>
      <trkpt lat="47.02481" lon="8.91538">
        <ele>1104</ele>
        <time>2021-08-03T09:19:38.298Z</time>
      </trkpt>
      <trkpt lat="47.02481" lon="8.91537">
        <ele>1104</ele>
        <time>2021-08-03T09:19:39.298Z</time>
      </trkpt>
      <trkpt lat="47.02481" lon="8.91536">
        <ele>1104</ele>
        <time>2021-08-03T09:19:40.299Z</time>
      </trkpt>
      <trkpt lat="47.0248" lon="8.91534">
        <ele>1104</ele>
        <time>2021-08-03T09:19:41.298Z</time>
      </trkpt>
      <trkpt lat="47.0248" lon="8.91533">
        <ele>1103</ele>
        <time>2021-08-03T09:19:42.299Z</time>
      </trkpt>
      <trkpt lat="47.02479" lon="8.91532">
        <ele>1103</ele>
        <time>2021-08-03T09:19:43.299Z</time>
      </trkpt>
      <trkpt lat="47.02479" lon="8.91531">
        <ele>1103</ele>
        <time>2021-08-03T09:19:44.298Z</time>
      </trkpt>
      <trkpt lat="47.02478" lon="8.9153">
        <ele>1103</ele>
        <time>2021-08-03T09:19:45.299Z</time>
      </trkpt>
      <trkpt lat="47.02478" lon="8.91529">
        <ele>1103</ele>
        <time>2021-08-03T09:19:46.298Z</time>
      </trkpt>
      <trkpt lat="47.02478" lon="8.91527">
        <ele>1102</ele>
        <time>2021-08-03T09:19:47.298Z</time>
      </trkpt>
      <trkpt lat="47.02478" lon="8.91525">
        <ele>1102</ele>
        <time>2021-08-03T09:19:48.299Z</time>
      </trkpt>
      <trkpt lat="47.02478" lon="8.91524">
        <ele>1102</ele>
        <time>2021-08-03T09:19:49.299Z</time>
      </trkpt>
      <trkpt lat="47.02478" lon="8.91523">
        <ele>1102</ele>
        <time>2021-08-03T09:19:50.298Z</time>
      </trkpt>
      <trkpt lat="47.02478" lon="8.91522">
        <ele>1102</ele>
        <time>2021-08-03T09:19:51.298Z</time>
      </trkpt>
      <trkpt lat="47.02478" lon="8.91521">
        <ele>1102</ele>
        <time>2021-08-03T09:19:52.298Z</time>
      </trkpt>
      <trkpt lat="47.02477" lon="8.9152">
        <ele>1101</ele>
        <time>2021-08-03T09:19:53.298Z</time>
      </trkpt>
      <trkpt lat="47.02476" lon="8.91518">
        <ele>1101</ele>
        <time>2021-08-03T09:19:54.298Z</time>
      </trkpt>
      <trkpt lat="47.02475" lon="8.91518">
        <ele>1101</ele>
        <time>2021-08-03T09:19:55.299Z</time>
      </trkpt>
      <trkpt lat="47.02474" lon="8.91517">
        <ele>1100</ele>
        <time>2021-08-03T09:19:56.299Z</time>
      </trkpt>
      <trkpt lat="47.02474" lon="8.91516">
        <ele>1100</ele>
        <time>2021-08-03T09:19:57.299Z</time>
      </trkpt>
      <trkpt lat="47.02474" lon="8.91516">
        <ele>1099</ele>
        <time>2021-08-03T09:19:58.298Z</time>
      </trkpt>
      <trkpt lat="47.02473" lon="8.91515">
        <ele>1099</ele>
        <time>2021-08-03T09:19:59.298Z</time>
      </trkpt>
      <trkpt lat="47.02473" lon="8.91514">
        <ele>1098</ele>
        <time>2021-08-03T09:20:00.299Z</time>
      </trkpt>
      <trkpt lat="47.02473" lon="8.91514">
        <ele>1098</ele>
        <time>2021-08-03T09:20:01.299Z</time>
      </trkpt>
      <trkpt lat="47.02473" lon="8.91512">
        <ele>1098</ele>
        <time>2021-08-03T09:20:02.299Z</time>
      </trkpt>
      <trkpt lat="47.02472" lon="8.91511">
        <ele>1097</ele>
        <time>2021-08-03T09:20:03.298Z</time>
      </trkpt>
      <trkpt lat="47.02471" lon="8.9151">
        <ele>1097</ele>
        <time>2021-08-03T09:20:04.299Z</time>
      </trkpt>
      <trkpt lat="47.02471" lon="8.91509">
        <ele>1097</ele>
        <time>2021-08-03T09:20:05.298Z</time>
      </trkpt>
      <trkpt lat="47.02471" lon="8.91509">
        <ele>1097</ele>
        <time>2021-08-03T09:20:06.298Z</time>
      </trkpt>
      <trkpt lat="47.02471" lon="8.91508">
        <ele>1096</ele>
        <time>2021-08-03T09:20:07.299Z</time>
      </trkpt>
      <trkpt lat="47.0247" lon="8.91507">
        <ele>1096</ele>
        <time>2021-08-03T09:20:08.299Z</time>
      </trkpt>
      <trkpt lat="47.0247" lon="8.91506">
        <ele>1096</ele>
        <time>2021-08-03T09:20:09.298Z</time>
      </trkpt>
      <trkpt lat="47.02469" lon="8.91506">
        <ele>1096</ele>
        <time>2021-08-03T09:20:10.298Z</time>
      </trkpt>
      <trkpt lat="47.02468" lon="8.91507">
        <ele>1096</ele>
        <time>2021-08-03T09:20:11.298Z</time>
      </trkpt>
      <trkpt lat="47.02467" lon="8.91506">
        <ele>1095</ele>
        <time>2021-08-03T09:20:12.298Z</time>
      </trkpt>
      <trkpt lat="47.02467" lon="8.91505">
        <ele>1095</ele>
        <time>2021-08-03T09:20:13.298Z</time>
      </trkpt>
      <trkpt lat="47.02465" lon="8.91504">
        <ele>1095</ele>
        <time>2021-08-03T09:20:14.298Z</time>
      </trkpt>
      <trkpt lat="47.02464" lon="8.91504">
        <ele>1095</ele>
        <time>2021-08-03T09:20:15.298Z</time>
      </trkpt>
      <trkpt lat="47.02463" lon="8.91504">
        <ele>1095</ele>
        <time>2021-08-03T09:20:16.299Z</time>
      </trkpt>
      <trkpt lat="47.02462" lon="8.91504">
        <ele>1095</ele>
        <time>2021-08-03T09:20:17.298Z</time>
      </trkpt>
      <trkpt lat="47.02461" lon="8.91503">
        <ele>1096</ele>
        <time>2021-08-03T09:20:18.298Z</time>
      </trkpt>
      <trkpt lat="47.0246" lon="8.91503">
        <ele>1096</ele>
        <time>2021-08-03T09:20:19.299Z</time>
      </trkpt>
      <trkpt lat="47.0246" lon="8.91501">
        <ele>1096</ele>
        <time>2021-08-03T09:20:20.298Z</time>
      </trkpt>
      <trkpt lat="47.02459" lon="8.91499">
        <ele>1097</ele>
        <time>2021-08-03T09:20:21.298Z</time>
      </trkpt>
      <trkpt lat="47.02458" lon="8.91497">
        <ele>1097</ele>
        <time>2021-08-03T09:20:22.298Z</time>
      </trkpt>
      <trkpt lat="47.02456" lon="8.91496">
        <ele>1098</ele>
        <time>2021-08-03T09:20:23.299Z</time>
      </trkpt>
      <trkpt lat="47.02455" lon="8.91496">
        <ele>1098</ele>
        <time>2021-08-03T09:20:24.298Z</time>
      </trkpt>
      <trkpt lat="47.02455" lon="8.91495">
        <ele>1099</ele>
        <time>2021-08-03T09:20:25.298Z</time>
      </trkpt>
      <trkpt lat="47.02454" lon="8.91496">
        <ele>1099</ele>
        <time>2021-08-03T09:20:26.299Z</time>
      </trkpt>
      <trkpt lat="47.02453" lon="8.91496">
        <ele>1099</ele>
        <time>2021-08-03T09:20:27.299Z</time>
      </trkpt>
      <trkpt lat="47.02452" lon="8.91496">
        <ele>1099</ele>
        <time>2021-08-03T09:20:28.298Z</time>
      </trkpt>
      <trkpt lat="47.02451" lon="8.91495">
        <ele>1099</ele>
        <time>2021-08-03T09:20:29.299Z</time>
      </trkpt>
      <trkpt lat="47.0245" lon="8.91493">
        <ele>1100</ele>
        <time>2021-08-03T09:20:30.298Z</time>
      </trkpt>
      <trkpt lat="47.0245" lon="8.91492">
        <ele>1100</ele>
        <time>2021-08-03T09:20:31.298Z</time>
      </trkpt>
      <trkpt lat="47.0245" lon="8.9149">
        <ele>1100</ele>
        <time>2021-08-03T09:20:32.298Z</time>
      </trkpt>
      <trkpt lat="47.0245" lon="8.91489">
        <ele>1100</ele>
        <time>2021-08-03T09:20:33.299Z</time>
      </trkpt>
      <trkpt lat="47.0245" lon="8.91489">
        <ele>1100</ele>
        <time>2021-08-03T09:20:34.298Z</time>
      </trkpt>
      <trkpt lat="47.02449" lon="8.91489">
        <ele>1100</ele>
        <time>2021-08-03T09:20:35.299Z</time>
      </trkpt>
      <trkpt lat="47.02449" lon="8.91489">
        <ele>1101</ele>
        <time>2021-08-03T09:20:36.298Z</time>
      </trkpt>
      <trkpt lat="47.02448" lon="8.91489">
        <ele>1101</ele>
        <time>2021-08-03T09:20:37.298Z</time>
      </trkpt>
      <trkpt lat="47.02448" lon="8.91488">
        <ele>1101</ele>
        <time>2021-08-03T09:20:38.298Z</time>
      </trkpt>
      <trkpt lat="47.02448" lon="8.91487">
        <ele>1101</ele>
        <time>2021-08-03T09:20:39.298Z</time>
      </trkpt>
      <trkpt lat="47.02448" lon="8.91487">
        <ele>1101</ele>
        <time>2021-08-03T09:20:40.298Z</time>
      </trkpt>
      <trkpt lat="47.02448" lon="8.91486">
        <ele>1101</ele>
        <time>2021-08-03T09:20:41.298Z</time>
      </trkpt>
      <trkpt lat="47.02448" lon="8.91484">
        <ele>1101</ele>
        <time>2021-08-03T09:20:42.298Z</time>
      </trkpt>
      <trkpt lat="47.02448" lon="8.91483">
        <ele>1101</ele>
        <time>2021-08-03T09:20:43.298Z</time>
      </trkpt>
      <trkpt lat="47.02448" lon="8.91482">
        <ele>1101</ele>
        <time>2021-08-03T09:20:44.298Z</time>
      </trkpt>
      <trkpt lat="47.02447" lon="8.91481">
        <ele>1100</ele>
        <time>2021-08-03T09:20:45.298Z</time>
      </trkpt>
      <trkpt lat="47.02447" lon="8.91481">
        <ele>1100</ele>
        <time>2021-08-03T09:20:46.298Z</time>
      </trkpt>
      <trkpt lat="47.02447" lon="8.9148">
        <ele>1099</ele>
        <time>2021-08-03T09:20:47.299Z</time>
      </trkpt>
      <trkpt lat="47.02446" lon="8.91479">
        <ele>1099</ele>
        <time>2021-08-03T09:20:48.298Z</time>
      </trkpt>
      <trkpt lat="47.02445" lon="8.91478">
        <ele>1099</ele>
        <time>2021-08-03T09:20:49.299Z</time>
      </trkpt>
      <trkpt lat="47.02445" lon="8.91478">
        <ele>1098</ele>
        <time>2021-08-03T09:20:50.298Z</time>
      </trkpt>
      <trkpt lat="47.02444" lon="8.91476">
        <ele>1098</ele>
        <time>2021-08-03T09:20:51.298Z</time>
      </trkpt>
      <trkpt lat="47.02444" lon="8.91475">
        <ele>1098</ele>
        <time>2021-08-03T09:20:52.298Z</time>
      </trkpt>
      <trkpt lat="47.02443" lon="8.91474">
        <ele>1097</ele>
        <time>2021-08-03T09:20:53.299Z</time>
      </trkpt>
      <trkpt lat="47.02442" lon="8.91472">
        <ele>1097</ele>
        <time>2021-08-03T09:20:54.298Z</time>
      </trkpt>
      <trkpt lat="47.0244" lon="8.91471">
        <ele>1097</ele>
        <time>2021-08-03T09:20:55.298Z</time>
      </trkpt>
      <trkpt lat="47.02438" lon="8.91469">
        <ele>1097</ele>
        <time>2021-08-03T09:20:56.298Z</time>
      </trkpt>
      <trkpt lat="47.02437" lon="8.91469">
        <ele>1097</ele>
        <time>2021-08-03T09:20:57.299Z</time>
      </trkpt>
      <trkpt lat="47.02437" lon="8.91468">
        <ele>1096</ele>
        <time>2021-08-03T09:20:58.298Z</time>
      </trkpt>
      <trkpt lat="47.02437" lon="8.91467">
        <ele>1096</ele>
        <time>2021-08-03T09:20:59.298Z</time>
      </trkpt>
      <trkpt lat="47.02436" lon="8.91466">
        <ele>1096</ele>
        <time>2021-08-03T09:21:00.299Z</time>
      </trkpt>
      <trkpt lat="47.02436" lon="8.91465">
        <ele>1095</ele>
        <time>2021-08-03T09:21:01.298Z</time>
      </trkpt>
      <trkpt lat="47.02434" lon="8.91464">
        <ele>1095</ele>
        <time>2021-08-03T09:21:02.299Z</time>
      </trkpt>
      <trkpt lat="47.02433" lon="8.91462">
        <ele>1095</ele>
        <time>2021-08-03T09:21:03.298Z</time>
      </trkpt>
      <trkpt lat="47.02432" lon="8.91461">
        <ele>1095</ele>
        <time>2021-08-03T09:21:04.298Z</time>
      </trkpt>
      <trkpt lat="47.02431" lon="8.9146">
        <ele>1095</ele>
        <time>2021-08-03T09:21:05.298Z</time>
      </trkpt>
      <trkpt lat="47.02431" lon="8.91459">
        <ele>1095</ele>
        <time>2021-08-03T09:21:06.298Z</time>
      </trkpt>
      <trkpt lat="47.02429" lon="8.91458">
        <ele>1095</ele>
        <time>2021-08-03T09:21:07.298Z</time>
      </trkpt>
      <trkpt lat="47.02429" lon="8.91457">
        <ele>1095</ele>
        <time>2021-08-03T09:21:08.298Z</time>
      </trkpt>
      <trkpt lat="47.02429" lon="8.91456">
        <ele>1094</ele>
        <time>2021-08-03T09:21:09.298Z</time>
      </trkpt>
      <trkpt lat="47.02428" lon="8.91456">
        <ele>1094</ele>
        <time>2021-08-03T09:21:10.298Z</time>
      </trkpt>
      <trkpt lat="47.02427" lon="8.91456">
        <ele>1094</ele>
        <time>2021-08-03T09:21:11.299Z</time>
      </trkpt>
      <trkpt lat="47.02427" lon="8.91456">
        <ele>1094</ele>
        <time>2021-08-03T09:21:12.298Z</time>
      </trkpt>
      <trkpt lat="47.02426" lon="8.91455">
        <ele>1094</ele>
        <time>2021-08-03T09:21:13.298Z</time>
      </trkpt>
      <trkpt lat="47.02426" lon="8.91456">
        <ele>1094</ele>
        <time>2021-08-03T09:21:14.299Z</time>
      </trkpt>
      <trkpt lat="47.02426" lon="8.91456">
        <ele>1094</ele>
        <time>2021-08-03T09:21:15.298Z</time>
      </trkpt>
      <trkpt lat="47.02426" lon="8.91455">
        <ele>1094</ele>
        <time>2021-08-03T09:21:16.298Z</time>
      </trkpt>
      <trkpt lat="47.02426" lon="8.91454">
        <ele>1094</ele>
        <time>2021-08-03T09:21:17.298Z</time>
      </trkpt>
      <trkpt lat="47.02425" lon="8.91452">
        <ele>1093</ele>
        <time>2021-08-03T09:21:18.298Z</time>
      </trkpt>
      <trkpt lat="47.02424" lon="8.91451">
        <ele>1093</ele>
        <time>2021-08-03T09:21:19.299Z</time>
      </trkpt>
      <trkpt lat="47.02424" lon="8.91449">
        <ele>1093</ele>
        <time>2021-08-03T09:21:20.298Z</time>
      </trkpt>
      <trkpt lat="47.02423" lon="8.91448">
        <ele>1093</ele>
        <time>2021-08-03T09:21:21.298Z</time>
      </trkpt>
      <trkpt lat="47.02422" lon="8.91447">
        <ele>1093</ele>
        <time>2021-08-03T09:21:22.299Z</time>
      </trkpt>
      <trkpt lat="47.02421" lon="8.91446">
        <ele>1093</ele>
        <time>2021-08-03T09:21:23.298Z</time>
      </trkpt>
      <trkpt lat="47.0242" lon="8.91445">
        <ele>1093</ele>
        <time>2021-08-03T09:21:24.298Z</time>
      </trkpt>
      <trkpt lat="47.02419" lon="8.91444">
        <ele>1093</ele>
        <time>2021-08-03T09:21:25.299Z</time>
      </trkpt>
      <trkpt lat="47.02418" lon="8.91443">
        <ele>1093</ele>
        <time>2021-08-03T09:21:26.298Z</time>
      </trkpt>
      <trkpt lat="47.02417" lon="8.91442">
        <ele>1093</ele>
        <time>2021-08-03T09:21:27.298Z</time>
      </trkpt>
      <trkpt lat="47.02417" lon="8.91442">
        <ele>1094</ele>
        <time>2021-08-03T09:21:28.298Z</time>
      </trkpt>
      <trkpt lat="47.02417" lon="8.9144">
        <ele>1093</ele>
        <time>2021-08-03T09:21:29.298Z</time>
      </trkpt>
      <trkpt lat="47.02415" lon="8.9144">
        <ele>1093</ele>
        <time>2021-08-03T09:21:30.299Z</time>
      </trkpt>
      <trkpt lat="47.02413" lon="8.91438">
        <ele>1093</ele>
        <time>2021-08-03T09:21:31.298Z</time>
      </trkpt>
      <trkpt lat="47.02412" lon="8.91437">
        <ele>1094</ele>
        <time>2021-08-03T09:21:32.298Z</time>
      </trkpt>
      <trkpt lat="47.02411" lon="8.91437">
        <ele>1094</ele>
        <time>2021-08-03T09:21:33.298Z</time>
      </trkpt>
      <trkpt lat="47.0241" lon="8.91436">
        <ele>1095</ele>
        <time>2021-08-03T09:21:34.298Z</time>
      </trkpt>
      <trkpt lat="47.02408" lon="8.91434">
        <ele>1095</ele>
        <time>2021-08-03T09:21:35.299Z</time>
      </trkpt>
      <trkpt lat="47.02407" lon="8.91432">
        <ele>1096</ele>
        <time>2021-08-03T09:21:36.298Z</time>
      </trkpt>
      <trkpt lat="47.02406" lon="8.91431">
        <ele>1097</ele>
        <time>2021-08-03T09:21:37.299Z</time>
      </trkpt>
      <trkpt lat="47.02405" lon="8.9143">
        <ele>1098</ele>
        <time>2021-08-03T09:21:38.298Z</time>
      </trkpt>
      <trkpt lat="47.02404" lon="8.91429">
        <ele>1098</ele>
        <time>2021-08-03T09:21:39.299Z</time>
      </trkpt>
      <trkpt lat="47.02403" lon="8.91428">
        <ele>1099</ele>
        <time>2021-08-03T09:21:40.298Z</time>
      </trkpt>
      <trkpt lat="47.02402" lon="8.91427">
        <ele>1099</ele>
        <time>2021-08-03T09:21:41.298Z</time>
      </trkpt>
      <trkpt lat="47.02401" lon="8.91425">
        <ele>1099</ele>
        <time>2021-08-03T09:21:42.298Z</time>
      </trkpt>
      <trkpt lat="47.024" lon="8.91424">
        <ele>1099</ele>
        <time>2021-08-03T09:21:43.298Z</time>
      </trkpt>
      <trkpt lat="47.02399" lon="8.91424">
        <ele>1099</ele>
        <time>2021-08-03T09:21:44.299Z</time>
      </trkpt>
      <trkpt lat="47.02397" lon="8.91423">
        <ele>1098</ele>
        <time>2021-08-03T09:21:45.298Z</time>
      </trkpt>
      <trkpt lat="47.02396" lon="8.91422">
        <ele>1098</ele>
        <time>2021-08-03T09:21:46.299Z</time>
      </trkpt>
      <trkpt lat="47.02396" lon="8.91422">
        <ele>1098</ele>
        <time>2021-08-03T09:21:47.298Z</time>
      </trkpt>
      <trkpt lat="47.02395" lon="8.91422">
        <ele>1098</ele>
        <time>2021-08-03T09:21:48.298Z</time>
      </trkpt>
      <trkpt lat="47.02394" lon="8.91421">
        <ele>1098</ele>
        <time>2021-08-03T09:21:49.298Z</time>
      </trkpt>
      <trkpt lat="47.02393" lon="8.9142">
        <ele>1098</ele>
        <time>2021-08-03T09:21:50.298Z</time>
      </trkpt>
      <trkpt lat="47.02392" lon="8.91419">
        <ele>1097</ele>
        <time>2021-08-03T09:21:51.298Z</time>
      </trkpt>
      <trkpt lat="47.0239" lon="8.91417">
        <ele>1097</ele>
        <time>2021-08-03T09:21:52.298Z</time>
      </trkpt>
      <trkpt lat="47.02389" lon="8.91416">
        <ele>1097</ele>
        <time>2021-08-03T09:21:53.298Z</time>
      </trkpt>
      <trkpt lat="47.02388" lon="8.91415">
        <ele>1097</ele>
        <time>2021-08-03T09:21:54.298Z</time>
      </trkpt>
      <trkpt lat="47.02388" lon="8.91414">
        <ele>1097</ele>
        <time>2021-08-03T09:21:55.299Z</time>
      </trkpt>
      <trkpt lat="47.02387" lon="8.91413">
        <ele>1096</ele>
        <time>2021-08-03T09:21:56.298Z</time>
      </trkpt>
      <trkpt lat="47.02387" lon="8.91413">
        <ele>1096</ele>
        <time>2021-08-03T09:21:57.299Z</time>
      </trkpt>
      <trkpt lat="47.02387" lon="8.91412">
        <ele>1096</ele>
        <time>2021-08-03T09:21:58.298Z</time>
      </trkpt>
      <trkpt lat="47.02385" lon="8.91411">
        <ele>1096</ele>
        <time>2021-08-03T09:21:59.299Z</time>
      </trkpt>
      <trkpt lat="47.02384" lon="8.91411">
        <ele>1095</ele>
        <time>2021-08-03T09:22:00.298Z</time>
      </trkpt>
      <trkpt lat="47.02383" lon="8.9141">
        <ele>1095</ele>
        <time>2021-08-03T09:22:01.298Z</time>
      </trkpt>
      <trkpt lat="47.02383" lon="8.9141">
        <ele>1095</ele>
        <time>2021-08-03T09:22:02.298Z</time>
      </trkpt>
      <trkpt lat="47.02382" lon="8.9141">
        <ele>1094</ele>
        <time>2021-08-03T09:22:03.298Z</time>
      </trkpt>
      <trkpt lat="47.02381" lon="8.9141">
        <ele>1093</ele>
        <time>2021-08-03T09:22:04.298Z</time>
      </trkpt>
      <trkpt lat="47.0238" lon="8.91409">
        <ele>1093</ele>
        <time>2021-08-03T09:22:05.298Z</time>
      </trkpt>
      <trkpt lat="47.0238" lon="8.91408">
        <ele>1092</ele>
        <time>2021-08-03T09:22:06.298Z</time>
      </trkpt>
      <trkpt lat="47.02379" lon="8.91407">
        <ele>1092</ele>
        <time>2021-08-03T09:22:07.298Z</time>
      </trkpt>
      <trkpt lat="47.02378" lon="8.91407">
        <ele>1092</ele>
        <time>2021-08-03T09:22:08.299Z</time>
      </trkpt>
      <trkpt lat="47.02377" lon="8.91406">
        <ele>1092</ele>
        <time>2021-08-03T09:22:09.299Z</time>
      </trkpt>
      <trkpt lat="47.02376" lon="8.91405">
        <ele>1092</ele>
        <time>2021-08-03T09:22:10.298Z</time>
      </trkpt>
      <trkpt lat="47.02375" lon="8.91405">
        <ele>1091</ele>
        <time>2021-08-03T09:22:11.298Z</time>
      </trkpt>
      <trkpt lat="47.02374" lon="8.91403">
        <ele>1091</ele>
        <time>2021-08-03T09:22:12.298Z</time>
      </trkpt>
      <trkpt lat="47.02372" lon="8.91402">
        <ele>1091</ele>
        <time>2021-08-03T09:22:13.299Z</time>
      </trkpt>
      <trkpt lat="47.02371" lon="8.914">
        <ele>1091</ele>
        <time>2021-08-03T09:22:14.298Z</time>
      </trkpt>
      <trkpt lat="47.0237" lon="8.91398">
        <ele>1091</ele>
        <time>2021-08-03T09:22:15.298Z</time>
      </trkpt>
      <trkpt lat="47.02369" lon="8.91398">
        <ele>1091</ele>
        <time>2021-08-03T09:22:16.298Z</time>
      </trkpt>
      <trkpt lat="47.02368" lon="8.91397">
        <ele>1091</ele>
        <time>2021-08-03T09:22:17.299Z</time>
      </trkpt>
      <trkpt lat="47.02367" lon="8.91395">
        <ele>1091</ele>
        <time>2021-08-03T09:22:18.298Z</time>
      </trkpt>
      <trkpt lat="47.02366" lon="8.91394">
        <ele>1092</ele>
        <time>2021-08-03T09:22:19.298Z</time>
      </trkpt>
      <trkpt lat="47.02365" lon="8.91393">
        <ele>1092</ele>
        <time>2021-08-03T09:22:20.298Z</time>
      </trkpt>
      <trkpt lat="47.02364" lon="8.91393">
        <ele>1092</ele>
        <time>2021-08-03T09:22:21.299Z</time>
      </trkpt>
      <trkpt lat="47.02363" lon="8.91392">
        <ele>1093</ele>
        <time>2021-08-03T09:22:22.298Z</time>
      </trkpt>
      <trkpt lat="47.02362" lon="8.91391">
        <ele>1093</ele>
        <time>2021-08-03T09:22:23.298Z</time>
      </trkpt>
      <trkpt lat="47.02361" lon="8.9139">
        <ele>1093</ele>
        <time>2021-08-03T09:22:24.299Z</time>
      </trkpt>
      <trkpt lat="47.0236" lon="8.91389">
        <ele>1093</ele>
        <time>2021-08-03T09:22:25.298Z</time>
      </trkpt>
      <trkpt lat="47.02359" lon="8.91389">
        <ele>1093</ele>
        <time>2021-08-03T09:22:26.298Z</time>
      </trkpt>
      <trkpt lat="47.02358" lon="8.91388">
        <ele>1093</ele>
        <time>2021-08-03T09:22:27.298Z</time>
      </trkpt>
      <trkpt lat="47.02358" lon="8.91387">
        <ele>1094</ele>
        <time>2021-08-03T09:22:28.298Z</time>
      </trkpt>
      <trkpt lat="47.02358" lon="8.91386">
        <ele>1094</ele>
        <time>2021-08-03T09:22:29.298Z</time>
      </trkpt>
      <trkpt lat="47.02357" lon="8.91385">
        <ele>1094</ele>
        <time>2021-08-03T09:22:30.298Z</time>
      </trkpt>
      <trkpt lat="47.02356" lon="8.91385">
        <ele>1094</ele>
        <time>2021-08-03T09:22:31.298Z</time>
      </trkpt>
      <trkpt lat="47.02355" lon="8.91384">
        <ele>1095</ele>
        <time>2021-08-03T09:22:32.299Z</time>
      </trkpt>
      <trkpt lat="47.02354" lon="8.91384">
        <ele>1095</ele>
        <time>2021-08-03T09:22:33.299Z</time>
      </trkpt>
      <trkpt lat="47.02353" lon="8.91383">
        <ele>1095</ele>
        <time>2021-08-03T09:22:34.298Z</time>
      </trkpt>
      <trkpt lat="47.02353" lon="8.91382">
        <ele>1096</ele>
        <time>2021-08-03T09:22:35.298Z</time>
      </trkpt>
      <trkpt lat="47.02352" lon="8.91381">
        <ele>1096</ele>
        <time>2021-08-03T09:22:36.298Z</time>
      </trkpt>
      <trkpt lat="47.02351" lon="8.91379">
        <ele>1096</ele>
        <time>2021-08-03T09:22:37.298Z</time>
      </trkpt>
      <trkpt lat="47.0235" lon="8.91377">
        <ele>1097</ele>
        <time>2021-08-03T09:22:38.299Z</time>
      </trkpt>
      <trkpt lat="47.02349" lon="8.91376">
        <ele>1097</ele>
        <time>2021-08-03T09:22:39.299Z</time>
      </trkpt>
      <trkpt lat="47.02349" lon="8.91375">
        <ele>1098</ele>
        <time>2021-08-03T09:22:40.298Z</time>
      </trkpt>
      <trkpt lat="47.02348" lon="8.91374">
        <ele>1098</ele>
        <time>2021-08-03T09:22:41.298Z</time>
      </trkpt>
      <trkpt lat="47.02347" lon="8.91372">
        <ele>1098</ele>
        <time>2021-08-03T09:22:42.298Z</time>
      </trkpt>
      <trkpt lat="47.02346" lon="8.91371">
        <ele>1099</ele>
        <time>2021-08-03T09:22:43.298Z</time>
      </trkpt>
      <trkpt lat="47.02345" lon="8.9137">
        <ele>1099</ele>
        <time>2021-08-03T09:22:44.299Z</time>
      </trkpt>
      <trkpt lat="47.02344" lon="8.91368">
        <ele>1100</ele>
        <time>2021-08-03T09:22:45.298Z</time>
      </trkpt>
      <trkpt lat="47.02343" lon="8.91367">
        <ele>1101</ele>
        <time>2021-08-03T09:22:46.298Z</time>
      </trkpt>
      <trkpt lat="47.02342" lon="8.91366">
        <ele>1102</ele>
        <time>2021-08-03T09:22:47.299Z</time>
      </trkpt>
      <trkpt lat="47.02341" lon="8.91364">
        <ele>1103</ele>
        <time>2021-08-03T09:22:48.298Z</time>
      </trkpt>
      <trkpt lat="47.0234" lon="8.91364">
        <ele>1104</ele>
        <time>2021-08-03T09:22:49.298Z</time>
      </trkpt>
      <trkpt lat="47.02339" lon="8.91363">
        <ele>1104</ele>
        <time>2021-08-03T09:22:50.298Z</time>
      </trkpt>
      <trkpt lat="47.02337" lon="8.91362">
        <ele>1105</ele>
        <time>2021-08-03T09:22:51.298Z</time>
      </trkpt>
      <trkpt lat="47.02336" lon="8.9136">
        <ele>1105</ele>
        <time>2021-08-03T09:22:52.298Z</time>
      </trkpt>
      <trkpt lat="47.02336" lon="8.91359">
        <ele>1106</ele>
        <time>2021-08-03T09:22:53.298Z</time>
      </trkpt>
      <trkpt lat="47.02335" lon="8.91358">
        <ele>1106</ele>
        <time>2021-08-03T09:22:54.298Z</time>
      </trkpt>
      <trkpt lat="47.02334" lon="8.91357">
        <ele>1106</ele>
        <time>2021-08-03T09:22:55.299Z</time>
      </trkpt>
      <trkpt lat="47.02333" lon="8.91356">
        <ele>1106</ele>
        <time>2021-08-03T09:22:56.298Z</time>
      </trkpt>
      <trkpt lat="47.02332" lon="8.91355">
        <ele>1106</ele>
        <time>2021-08-03T09:22:57.298Z</time>
      </trkpt>
      <trkpt lat="47.02332" lon="8.91354">
        <ele>1106</ele>
        <time>2021-08-03T09:22:58.299Z</time>
      </trkpt>
      <trkpt lat="47.02331" lon="8.91353">
        <ele>1106</ele>
        <time>2021-08-03T09:22:59.298Z</time>
      </trkpt>
      <trkpt lat="47.02331" lon="8.91351">
        <ele>1105</ele>
        <time>2021-08-03T09:23:00.298Z</time>
      </trkpt>
      <trkpt lat="47.02331" lon="8.9135">
        <ele>1105</ele>
        <time>2021-08-03T09:23:01.299Z</time>
      </trkpt>
      <trkpt lat="47.0233" lon="8.91349">
        <ele>1105</ele>
        <time>2021-08-03T09:23:02.298Z</time>
      </trkpt>
      <trkpt lat="47.02329" lon="8.91347">
        <ele>1105</ele>
        <time>2021-08-03T09:23:03.298Z</time>
      </trkpt>
      <trkpt lat="47.02328" lon="8.91346">
        <ele>1105</ele>
        <time>2021-08-03T09:23:04.299Z</time>
      </trkpt>
      <trkpt lat="47.02328" lon="8.91345">
        <ele>1105</ele>
        <time>2021-08-03T09:23:05.299Z</time>
      </trkpt>
      <trkpt lat="47.02327" lon="8.91343">
        <ele>1104</ele>
        <time>2021-08-03T09:23:06.299Z</time>
      </trkpt>
      <trkpt lat="47.02327" lon="8.91342">
        <ele>1104</ele>
        <time>2021-08-03T09:23:07.298Z</time>
      </trkpt>
      <trkpt lat="47.02327" lon="8.91341">
        <ele>1103</ele>
        <time>2021-08-03T09:23:08.298Z</time>
      </trkpt>
      <trkpt lat="47.02326" lon="8.91339">
        <ele>1103</ele>
        <time>2021-08-03T09:23:09.298Z</time>
      </trkpt>
      <trkpt lat="47.02327" lon="8.91337">
        <ele>1103</ele>
        <time>2021-08-03T09:23:10.298Z</time>
      </trkpt>
      <trkpt lat="47.02326" lon="8.91335">
        <ele>1103</ele>
        <time>2021-08-03T09:23:11.298Z</time>
      </trkpt>
      <trkpt lat="47.02326" lon="8.91334">
        <ele>1103</ele>
        <time>2021-08-03T09:23:12.298Z</time>
      </trkpt>
      <trkpt lat="47.02325" lon="8.91332">
        <ele>1103</ele>
        <time>2021-08-03T09:23:13.299Z</time>
      </trkpt>
      <trkpt lat="47.02324" lon="8.9133">
        <ele>1103</ele>
        <time>2021-08-03T09:23:14.298Z</time>
      </trkpt>
      <trkpt lat="47.02323" lon="8.91329">
        <ele>1104</ele>
        <time>2021-08-03T09:23:15.299Z</time>
      </trkpt>
      <trkpt lat="47.02323" lon="8.91329">
        <ele>1104</ele>
        <time>2021-08-03T09:23:16.298Z</time>
      </trkpt>
      <trkpt lat="47.02321" lon="8.91327">
        <ele>1104</ele>
        <time>2021-08-03T09:23:17.298Z</time>
      </trkpt>
      <trkpt lat="47.0232" lon="8.91326">
        <ele>1105</ele>
        <time>2021-08-03T09:23:18.298Z</time>
      </trkpt>
      <trkpt lat="47.02319" lon="8.91325">
        <ele>1105</ele>
        <time>2021-08-03T09:23:19.298Z</time>
      </trkpt>
      <trkpt lat="47.02319" lon="8.91323">
        <ele>1105</ele>
        <time>2021-08-03T09:23:20.299Z</time>
      </trkpt>
      <trkpt lat="47.02318" lon="8.91321">
        <ele>1105</ele>
        <time>2021-08-03T09:23:21.299Z</time>
      </trkpt>
      <trkpt lat="47.02318" lon="8.9132">
        <ele>1106</ele>
        <time>2021-08-03T09:23:22.299Z</time>
      </trkpt>
      <trkpt lat="47.02317" lon="8.91319">
        <ele>1106</ele>
        <time>2021-08-03T09:23:23.299Z</time>
      </trkpt>
      <trkpt lat="47.02316" lon="8.91317">
        <ele>1107</ele>
        <time>2021-08-03T09:23:24.299Z</time>
      </trkpt>
      <trkpt lat="47.02316" lon="8.91316">
        <ele>1107</ele>
        <time>2021-08-03T09:23:25.298Z</time>
      </trkpt>
      <trkpt lat="47.02315" lon="8.91315">
        <ele>1107</ele>
        <time>2021-08-03T09:23:26.299Z</time>
      </trkpt>
      <trkpt lat="47.02315" lon="8.91313">
        <ele>1107</ele>
        <time>2021-08-03T09:23:27.298Z</time>
      </trkpt>
      <trkpt lat="47.02315" lon="8.91313">
        <ele>1107</ele>
        <time>2021-08-03T09:23:28.299Z</time>
      </trkpt>
      <trkpt lat="47.02315" lon="8.91311">
        <ele>1106</ele>
        <time>2021-08-03T09:23:29.298Z</time>
      </trkpt>
      <trkpt lat="47.02316" lon="8.9131">
        <ele>1106</ele>
        <time>2021-08-03T09:23:30.298Z</time>
      </trkpt>
      <trkpt lat="47.02315" lon="8.91309">
        <ele>1105</ele>
        <time>2021-08-03T09:23:31.299Z</time>
      </trkpt>
      <trkpt lat="47.02315" lon="8.91307">
        <ele>1105</ele>
        <time>2021-08-03T09:23:32.298Z</time>
      </trkpt>
      <trkpt lat="47.02314" lon="8.91304">
        <ele>1105</ele>
        <time>2021-08-03T09:23:33.299Z</time>
      </trkpt>
      <trkpt lat="47.02313" lon="8.91303">
        <ele>1105</ele>
        <time>2021-08-03T09:23:34.298Z</time>
      </trkpt>
      <trkpt lat="47.02313" lon="8.91302">
        <ele>1104</ele>
        <time>2021-08-03T09:23:35.298Z</time>
      </trkpt>
      <trkpt lat="47.02312" lon="8.913">
        <ele>1104</ele>
        <time>2021-08-03T09:23:36.298Z</time>
      </trkpt>
      <trkpt lat="47.02312" lon="8.91299">
        <ele>1103</ele>
        <time>2021-08-03T09:23:37.298Z</time>
      </trkpt>
      <trkpt lat="47.02312" lon="8.91298">
        <ele>1103</ele>
        <time>2021-08-03T09:23:38.298Z</time>
      </trkpt>
      <trkpt lat="47.02312" lon="8.91296">
        <ele>1102</ele>
        <time>2021-08-03T09:23:39.298Z</time>
      </trkpt>
      <trkpt lat="47.02311" lon="8.91295">
        <ele>1101</ele>
        <time>2021-08-03T09:23:40.299Z</time>
      </trkpt>
      <trkpt lat="47.02311" lon="8.91293">
        <ele>1101</ele>
        <time>2021-08-03T09:23:41.298Z</time>
      </trkpt>
      <trkpt lat="47.02311" lon="8.91292">
        <ele>1100</ele>
        <time>2021-08-03T09:23:42.298Z</time>
      </trkpt>
      <trkpt lat="47.0231" lon="8.91291">
        <ele>1100</ele>
        <time>2021-08-03T09:23:43.298Z</time>
      </trkpt>
      <trkpt lat="47.0231" lon="8.9129">
        <ele>1099</ele>
        <time>2021-08-03T09:23:44.298Z</time>
      </trkpt>
      <trkpt lat="47.02309" lon="8.91288">
        <ele>1100</ele>
        <time>2021-08-03T09:23:45.298Z</time>
      </trkpt>
      <trkpt lat="47.02308" lon="8.91287">
        <ele>1100</ele>
        <time>2021-08-03T09:23:46.298Z</time>
      </trkpt>
      <trkpt lat="47.02307" lon="8.91286">
        <ele>1100</ele>
        <time>2021-08-03T09:23:47.298Z</time>
      </trkpt>
      <trkpt lat="47.02306" lon="8.91284">
        <ele>1100</ele>
        <time>2021-08-03T09:23:48.298Z</time>
      </trkpt>
      <trkpt lat="47.02306" lon="8.91283">
        <ele>1100</ele>
        <time>2021-08-03T09:23:49.299Z</time>
      </trkpt>
      <trkpt lat="47.02306" lon="8.91281">
        <ele>1100</ele>
        <time>2021-08-03T09:23:50.299Z</time>
      </trkpt>
      <trkpt lat="47.02306" lon="8.9128">
        <ele>1100</ele>
        <time>2021-08-03T09:23:51.298Z</time>
      </trkpt>
      <trkpt lat="47.02306" lon="8.91278">
        <ele>1099</ele>
        <time>2021-08-03T09:23:52.298Z</time>
      </trkpt>
      <trkpt lat="47.02305" lon="8.91277">
        <ele>1099</ele>
        <time>2021-08-03T09:23:53.298Z</time>
      </trkpt>
      <trkpt lat="47.02305" lon="8.91275">
        <ele>1100</ele>
        <time>2021-08-03T09:23:54.299Z</time>
      </trkpt>
      <trkpt lat="47.02305" lon="8.91274">
        <ele>1100</ele>
        <time>2021-08-03T09:23:55.298Z</time>
      </trkpt>
      <trkpt lat="47.02304" lon="8.91272">
        <ele>1101</ele>
        <time>2021-08-03T09:23:56.299Z</time>
      </trkpt>
      <trkpt lat="47.02303" lon="8.91271">
        <ele>1101</ele>
        <time>2021-08-03T09:23:57.298Z</time>
      </trkpt>
      <trkpt lat="47.02302" lon="8.9127">
        <ele>1101</ele>
        <time>2021-08-03T09:23:58.298Z</time>
      </trkpt>
      <trkpt lat="47.02302" lon="8.91269">
        <ele>1102</ele>
        <time>2021-08-03T09:23:59.299Z</time>
      </trkpt>
      <trkpt lat="47.02301" lon="8.91267">
        <ele>1102</ele>
        <time>2021-08-03T09:24:00.298Z</time>
      </trkpt>
      <trkpt lat="47.02301" lon="8.91265">
        <ele>1103</ele>
        <time>2021-08-03T09:24:01.299Z</time>
      </trkpt>
      <trkpt lat="47.023" lon="8.91263">
        <ele>1103</ele>
        <time>2021-08-03T09:24:02.299Z</time>
      </trkpt>
      <trkpt lat="47.023" lon="8.91261">
        <ele>1104</ele>
        <time>2021-08-03T09:24:03.299Z</time>
      </trkpt>
      <trkpt lat="47.023" lon="8.91259">
        <ele>1104</ele>
        <time>2021-08-03T09:24:04.298Z</time>
      </trkpt>
      <trkpt lat="47.023" lon="8.91257">
        <ele>1105</ele>
        <time>2021-08-03T09:24:05.299Z</time>
      </trkpt>
      <trkpt lat="47.023" lon="8.91256">
        <ele>1105</ele>
        <time>2021-08-03T09:24:06.299Z</time>
      </trkpt>
      <trkpt lat="47.02299" lon="8.91253">
        <ele>1105</ele>
        <time>2021-08-03T09:24:07.299Z</time>
      </trkpt>
      <trkpt lat="47.02299" lon="8.91252">
        <ele>1105</ele>
        <time>2021-08-03T09:24:08.298Z</time>
      </trkpt>
      <trkpt lat="47.02298" lon="8.9125">
        <ele>1104</ele>
        <time>2021-08-03T09:24:09.298Z</time>
      </trkpt>
      <trkpt lat="47.02297" lon="8.91249">
        <ele>1104</ele>
        <time>2021-08-03T09:24:10.298Z</time>
      </trkpt>
      <trkpt lat="47.02296" lon="8.91247">
        <ele>1103</ele>
        <time>2021-08-03T09:24:11.298Z</time>
      </trkpt>
      <trkpt lat="47.02294" lon="8.91245">
        <ele>1103</ele>
        <time>2021-08-03T09:24:12.298Z</time>
      </trkpt>
      <trkpt lat="47.02294" lon="8.91243">
        <ele>1102</ele>
        <time>2021-08-03T09:24:13.298Z</time>
      </trkpt>
      <trkpt lat="47.02294" lon="8.91241">
        <ele>1102</ele>
        <time>2021-08-03T09:24:14.298Z</time>
      </trkpt>
      <trkpt lat="47.02294" lon="8.91239">
        <ele>1102</ele>
        <time>2021-08-03T09:24:15.299Z</time>
      </trkpt>
      <trkpt lat="47.02294" lon="8.91237">
        <ele>1102</ele>
        <time>2021-08-03T09:24:16.298Z</time>
      </trkpt>
      <trkpt lat="47.02294" lon="8.91237">
        <ele>1102</ele>
        <time>2021-08-03T09:24:17.299Z</time>
      </trkpt>
      <trkpt lat="47.02294" lon="8.91235">
        <ele>1103</ele>
        <time>2021-08-03T09:24:18.298Z</time>
      </trkpt>
      <trkpt lat="47.02294" lon="8.91233">
        <ele>1103</ele>
        <time>2021-08-03T09:24:19.298Z</time>
      </trkpt>
      <trkpt lat="47.02294" lon="8.91232">
        <ele>1104</ele>
        <time>2021-08-03T09:24:20.298Z</time>
      </trkpt>
      <trkpt lat="47.02294" lon="8.9123">
        <ele>1105</ele>
        <time>2021-08-03T09:24:21.298Z</time>
      </trkpt>
      <trkpt lat="47.02294" lon="8.91227">
        <ele>1105</ele>
        <time>2021-08-03T09:24:22.298Z</time>
      </trkpt>
      <trkpt lat="47.02295" lon="8.91225">
        <ele>1106</ele>
        <time>2021-08-03T09:24:23.298Z</time>
      </trkpt>
      <trkpt lat="47.02295" lon="8.91223">
        <ele>1106</ele>
        <time>2021-08-03T09:24:24.298Z</time>
      </trkpt>
      <trkpt lat="47.02296" lon="8.91222">
        <ele>1107</ele>
        <time>2021-08-03T09:24:25.298Z</time>
      </trkpt>
      <trkpt lat="47.02296" lon="8.9122">
        <ele>1107</ele>
        <time>2021-08-03T09:24:26.298Z</time>
      </trkpt>
      <trkpt lat="47.02295" lon="8.91218">
        <ele>1107</ele>
        <time>2021-08-03T09:24:27.299Z</time>
      </trkpt>
      <trkpt lat="47.02293" lon="8.91215">
        <ele>1107</ele>
        <time>2021-08-03T09:24:28.299Z</time>
      </trkpt>
      <trkpt lat="47.02292" lon="8.91213">
        <ele>1107</ele>
        <time>2021-08-03T09:24:29.298Z</time>
      </trkpt>
      <trkpt lat="47.02292" lon="8.91211">
        <ele>1107</ele>
        <time>2021-08-03T09:24:30.298Z</time>
      </trkpt>
      <trkpt lat="47.02291" lon="8.9121">
        <ele>1107</ele>
        <time>2021-08-03T09:24:31.299Z</time>
      </trkpt>
      <trkpt lat="47.0229" lon="8.91208">
        <ele>1108</ele>
        <time>2021-08-03T09:24:32.299Z</time>
      </trkpt>
      <trkpt lat="47.02289" lon="8.91207">
        <ele>1108</ele>
        <time>2021-08-03T09:24:33.298Z</time>
      </trkpt>
      <trkpt lat="47.02289" lon="8.91205">
        <ele>1108</ele>
        <time>2021-08-03T09:24:34.298Z</time>
      </trkpt>
      <trkpt lat="47.02289" lon="8.91203">
        <ele>1108</ele>
        <time>2021-08-03T09:24:35.299Z</time>
      </trkpt>
      <trkpt lat="47.02289" lon="8.91201">
        <ele>1107</ele>
        <time>2021-08-03T09:24:36.298Z</time>
      </trkpt>
      <trkpt lat="47.02289" lon="8.91199">
        <ele>1108</ele>
        <time>2021-08-03T09:24:37.298Z</time>
      </trkpt>
      <trkpt lat="47.02288" lon="8.91197">
        <ele>1108</ele>
        <time>2021-08-03T09:24:38.299Z</time>
      </trkpt>
      <trkpt lat="47.02288" lon="8.91195">
        <ele>1108</ele>
        <time>2021-08-03T09:24:39.298Z</time>
      </trkpt>
      <trkpt lat="47.02288" lon="8.91193">
        <ele>1108</ele>
        <time>2021-08-03T09:24:40.299Z</time>
      </trkpt>
      <trkpt lat="47.02287" lon="8.9119">
        <ele>1107</ele>
        <time>2021-08-03T09:24:41.298Z</time>
      </trkpt>
      <trkpt lat="47.02286" lon="8.91187">
        <ele>1107</ele>
        <time>2021-08-03T09:24:42.298Z</time>
      </trkpt>
      <trkpt lat="47.02284" lon="8.91185">
        <ele>1107</ele>
        <time>2021-08-03T09:24:43.299Z</time>
      </trkpt>
      <trkpt lat="47.02283" lon="8.91182">
        <ele>1107</ele>
        <time>2021-08-03T09:24:44.298Z</time>
      </trkpt>
      <trkpt lat="47.02283" lon="8.9118">
        <ele>1107</ele>
        <time>2021-08-03T09:24:45.299Z</time>
      </trkpt>
      <trkpt lat="47.02283" lon="8.91179">
        <ele>1108</ele>
        <time>2021-08-03T09:24:46.298Z</time>
      </trkpt>
      <trkpt lat="47.02283" lon="8.91177">
        <ele>1108</ele>
        <time>2021-08-03T09:24:47.298Z</time>
      </trkpt>
      <trkpt lat="47.02284" lon="8.91176">
        <ele>1108</ele>
        <time>2021-08-03T09:24:48.298Z</time>
      </trkpt>
      <trkpt lat="47.02284" lon="8.91175">
        <ele>1109</ele>
        <time>2021-08-03T09:24:49.298Z</time>
      </trkpt>
      <trkpt lat="47.02284" lon="8.91173">
        <ele>1109</ele>
        <time>2021-08-03T09:24:50.298Z</time>
      </trkpt>
      <trkpt lat="47.02284" lon="8.91172">
        <ele>1109</ele>
        <time>2021-08-03T09:24:51.299Z</time>
      </trkpt>
      <trkpt lat="47.02284" lon="8.91172">
        <ele>1109</ele>
        <time>2021-08-03T09:24:52.298Z</time>
      </trkpt>
      <trkpt lat="47.02284" lon="8.91171">
        <ele>1109</ele>
        <time>2021-08-03T09:24:53.298Z</time>
      </trkpt>
      <trkpt lat="47.02284" lon="8.91171">
        <ele>1109</ele>
        <time>2021-08-03T09:24:54.298Z</time>
      </trkpt>
      <trkpt lat="47.02284" lon="8.9117">
        <ele>1109</ele>
        <time>2021-08-03T09:24:55.298Z</time>
      </trkpt>
      <trkpt lat="47.02284" lon="8.9117">
        <ele>1109</ele>
        <time>2021-08-03T09:24:56.299Z</time>
      </trkpt>
      <trkpt lat="47.02284" lon="8.91169">
        <ele>1110</ele>
        <time>2021-08-03T09:24:57.298Z</time>
      </trkpt>
      <trkpt lat="47.02284" lon="8.91168">
        <ele>1110</ele>
        <time>2021-08-03T09:24:58.298Z</time>
      </trkpt>
      <trkpt lat="47.0228" lon="8.91167">
        <ele>1111</ele>
        <time>2021-08-03T09:24:59.298Z</time>
      </trkpt>
      <trkpt lat="47.02278" lon="8.91167">
        <ele>1111</ele>
        <time>2021-08-03T09:25:00.298Z</time>
      </trkpt>
      <trkpt lat="47.02277" lon="8.91167">
        <ele>1112</ele>
        <time>2021-08-03T09:25:01.298Z</time>
      </trkpt>
      <trkpt lat="47.02279" lon="8.91158">
        <ele>1099</ele>
        <time>2021-08-03T09:25:02.298Z</time>
      </trkpt>
      <trkpt lat="47.02267" lon="8.91158">
        <ele>1090</ele>
        <time>2021-08-03T09:25:03.300Z</time>
      </trkpt>
      <trkpt lat="47.02267" lon="8.91158">
        <ele>1090</ele>
        <time>2021-08-03T09:25:04.299Z</time>
      </trkpt>
      <trkpt lat="47.0227" lon="8.91159">
        <ele>1094</ele>
        <time>2021-08-03T09:25:05.301Z</time>
      </trkpt>
      <trkpt lat="47.02269" lon="8.9116">
        <ele>1094</ele>
        <time>2021-08-03T09:25:06.301Z</time>
      </trkpt>
      <trkpt lat="47.02269" lon="8.9116">
        <ele>1093</ele>
        <time>2021-08-03T09:25:07.301Z</time>
      </trkpt>
      <trkpt lat="47.02269" lon="8.9116">
        <ele>1093</ele>
        <time>2021-08-03T09:25:08.301Z</time>
      </trkpt>
      <trkpt lat="47.02269" lon="8.9116">
        <ele>1092</ele>
        <time>2021-08-03T09:25:09.301Z</time>
      </trkpt>
      <trkpt lat="47.02269" lon="8.91161">
        <ele>1092</ele>
        <time>2021-08-03T09:25:10.300Z</time>
      </trkpt>
      <trkpt lat="47.0227" lon="8.91161">
        <ele>1091</ele>
        <time>2021-08-03T09:25:11.300Z</time>
      </trkpt>
      <trkpt lat="47.02271" lon="8.91163">
        <ele>1088</ele>
        <time>2021-08-03T09:25:12.301Z</time>
      </trkpt>
      <trkpt lat="47.02271" lon="8.91164">
        <ele>1088</ele>
        <time>2021-08-03T09:25:13.301Z</time>
      </trkpt>
      <trkpt lat="47.02271" lon="8.91164">
        <ele>1087</ele>
        <time>2021-08-03T09:25:14.301Z</time>
      </trkpt>
      <trkpt lat="47.02271" lon="8.91165">
        <ele>1087</ele>
        <time>2021-08-03T09:25:15.301Z</time>
      </trkpt>
      <trkpt lat="47.02271" lon="8.91167">
        <ele>1087</ele>
        <time>2021-08-03T09:25:16.300Z</time>
      </trkpt>
      <trkpt lat="47.02272" lon="8.91168">
        <ele>1086</ele>
        <time>2021-08-03T09:25:17.301Z</time>
      </trkpt>
      <trkpt lat="47.02272" lon="8.91169">
        <ele>1086</ele>
        <time>2021-08-03T09:25:18.301Z</time>
      </trkpt>
      <trkpt lat="47.02271" lon="8.91169">
        <ele>1087</ele>
        <time>2021-08-03T09:25:19.301Z</time>
      </trkpt>
      <trkpt lat="47.02273" lon="8.91165">
        <ele>1093</ele>
        <time>2021-08-03T09:25:20.301Z</time>
      </trkpt>
      <trkpt lat="47.02273" lon="8.91165">
        <ele>1093</ele>
        <time>2021-08-03T09:25:21.301Z</time>
      </trkpt>
      <trkpt lat="47.02273" lon="8.91165">
        <ele>1094</ele>
        <time>2021-08-03T09:25:22.301Z</time>
      </trkpt>
      <trkpt lat="47.02273" lon="8.91164">
        <ele>1095</ele>
        <time>2021-08-03T09:25:23.302Z</time>
      </trkpt>
      <trkpt lat="47.02273" lon="8.91163">
        <ele>1095</ele>
        <time>2021-08-03T09:25:24.302Z</time>
      </trkpt>
      <trkpt lat="47.02272" lon="8.91162">
        <ele>1095</ele>
        <time>2021-08-03T09:25:25.303Z</time>
      </trkpt>
      <trkpt lat="47.02272" lon="8.9116">
        <ele>1096</ele>
        <time>2021-08-03T09:25:26.302Z</time>
      </trkpt>
      <trkpt lat="47.02272" lon="8.91158">
        <ele>1096</ele>
        <time>2021-08-03T09:25:27.302Z</time>
      </trkpt>
      <trkpt lat="47.02272" lon="8.91156">
        <ele>1096</ele>
        <time>2021-08-03T09:25:28.303Z</time>
      </trkpt>
      <trkpt lat="47.02273" lon="8.91155">
        <ele>1096</ele>
        <time>2021-08-03T09:25:29.302Z</time>
      </trkpt>
      <trkpt lat="47.02273" lon="8.91153">
        <ele>1096</ele>
        <time>2021-08-03T09:25:30.302Z</time>
      </trkpt>
      <trkpt lat="47.02273" lon="8.91152">
        <ele>1096</ele>
        <time>2021-08-03T09:25:31.302Z</time>
      </trkpt>
      <trkpt lat="47.02274" lon="8.9115">
        <ele>1096</ele>
        <time>2021-08-03T09:25:32.303Z</time>
      </trkpt>
      <trkpt lat="47.02274" lon="8.91149">
        <ele>1096</ele>
        <time>2021-08-03T09:25:33.302Z</time>
      </trkpt>
      <trkpt lat="47.02274" lon="8.91147">
        <ele>1095</ele>
        <time>2021-08-03T09:25:34.302Z</time>
      </trkpt>
      <trkpt lat="47.02273" lon="8.91145">
        <ele>1095</ele>
        <time>2021-08-03T09:25:35.302Z</time>
      </trkpt>
      <trkpt lat="47.02274" lon="8.91144">
        <ele>1095</ele>
        <time>2021-08-03T09:25:36.302Z</time>
      </trkpt>
      <trkpt lat="47.02275" lon="8.91143">
        <ele>1095</ele>
        <time>2021-08-03T09:25:37.303Z</time>
      </trkpt>
      <trkpt lat="47.02275" lon="8.91142">
        <ele>1095</ele>
        <time>2021-08-03T09:25:38.302Z</time>
      </trkpt>
      <trkpt lat="47.02276" lon="8.9114">
        <ele>1095</ele>
        <time>2021-08-03T09:25:39.302Z</time>
      </trkpt>
      <trkpt lat="47.02277" lon="8.91138">
        <ele>1095</ele>
        <time>2021-08-03T09:25:40.302Z</time>
      </trkpt>
      <trkpt lat="47.02276" lon="8.91136">
        <ele>1094</ele>
        <time>2021-08-03T09:25:41.303Z</time>
      </trkpt>
      <trkpt lat="47.02276" lon="8.91133">
        <ele>1094</ele>
        <time>2021-08-03T09:25:42.302Z</time>
      </trkpt>
      <trkpt lat="47.02276" lon="8.91131">
        <ele>1094</ele>
        <time>2021-08-03T09:25:43.302Z</time>
      </trkpt>
      <trkpt lat="47.02277" lon="8.91129">
        <ele>1093</ele>
        <time>2021-08-03T09:25:44.302Z</time>
      </trkpt>
      <trkpt lat="47.02278" lon="8.91127">
        <ele>1093</ele>
        <time>2021-08-03T09:25:45.302Z</time>
      </trkpt>
      <trkpt lat="47.02278" lon="8.91126">
        <ele>1093</ele>
        <time>2021-08-03T09:25:46.302Z</time>
      </trkpt>
      <trkpt lat="47.02278" lon="8.91126">
        <ele>1093</ele>
        <time>2021-08-03T09:25:47.302Z</time>
      </trkpt>
      <trkpt lat="47.02279" lon="8.91124">
        <ele>1094</ele>
        <time>2021-08-03T09:25:48.302Z</time>
      </trkpt>
      <trkpt lat="47.02279" lon="8.91123">
        <ele>1094</ele>
        <time>2021-08-03T09:25:49.302Z</time>
      </trkpt>
      <trkpt lat="47.0228" lon="8.91122">
        <ele>1094</ele>
        <time>2021-08-03T09:25:50.302Z</time>
      </trkpt>
      <trkpt lat="47.02281" lon="8.91121">
        <ele>1094</ele>
        <time>2021-08-03T09:25:51.302Z</time>
      </trkpt>
      <trkpt lat="47.02282" lon="8.91119">
        <ele>1094</ele>
        <time>2021-08-03T09:25:52.302Z</time>
      </trkpt>
      <trkpt lat="47.02283" lon="8.91118">
        <ele>1094</ele>
        <time>2021-08-03T09:25:53.302Z</time>
      </trkpt>
      <trkpt lat="47.02283" lon="8.91116">
        <ele>1094</ele>
        <time>2021-08-03T09:25:54.302Z</time>
      </trkpt>
      <trkpt lat="47.02284" lon="8.91115">
        <ele>1093</ele>
        <time>2021-08-03T09:25:55.302Z</time>
      </trkpt>
      <trkpt lat="47.02284" lon="8.91114">
        <ele>1093</ele>
        <time>2021-08-03T09:25:56.302Z</time>
      </trkpt>
      <trkpt lat="47.02284" lon="8.91113">
        <ele>1092</ele>
        <time>2021-08-03T09:25:57.302Z</time>
      </trkpt>
      <trkpt lat="47.02283" lon="8.91112">
        <ele>1092</ele>
        <time>2021-08-03T09:25:58.302Z</time>
      </trkpt>
      <trkpt lat="47.02283" lon="8.91111">
        <ele>1093</ele>
        <time>2021-08-03T09:25:59.302Z</time>
      </trkpt>
      <trkpt lat="47.02283" lon="8.91111">
        <ele>1093</ele>
        <time>2021-08-03T09:26:00.302Z</time>
      </trkpt>
      <trkpt lat="47.02281" lon="8.9111">
        <ele>1093</ele>
        <time>2021-08-03T09:26:01.302Z</time>
      </trkpt>
      <trkpt lat="47.02281" lon="8.9111">
        <ele>1094</ele>
        <time>2021-08-03T09:26:02.302Z</time>
      </trkpt>
      <trkpt lat="47.02282" lon="8.91108">
        <ele>1096</ele>
        <time>2021-08-03T09:26:03.303Z</time>
      </trkpt>
      <trkpt lat="47.02282" lon="8.91108">
        <ele>1096</ele>
        <time>2021-08-03T09:26:04.303Z</time>
      </trkpt>
      <trkpt lat="47.02282" lon="8.91108">
        <ele>1096</ele>
        <time>2021-08-03T09:26:05.302Z</time>
      </trkpt>
      <trkpt lat="47.02281" lon="8.9111">
        <ele>1099</ele>
        <time>2021-08-03T09:26:06.302Z</time>
      </trkpt>
      <trkpt lat="47.02281" lon="8.9111">
        <ele>1100</ele>
        <time>2021-08-03T09:26:07.302Z</time>
      </trkpt>
      <trkpt lat="47.02281" lon="8.9111">
        <ele>1100</ele>
        <time>2021-08-03T09:26:08.302Z</time>
      </trkpt>
      <trkpt lat="47.02283" lon="8.91109">
        <ele>1101</ele>
        <time>2021-08-03T09:26:09.303Z</time>
      </trkpt>
      <trkpt lat="47.02284" lon="8.91108">
        <ele>1101</ele>
        <time>2021-08-03T09:26:10.302Z</time>
      </trkpt>
      <trkpt lat="47.02285" lon="8.91108">
        <ele>1101</ele>
        <time>2021-08-03T09:26:11.303Z</time>
      </trkpt>
      <trkpt lat="47.02285" lon="8.91107">
        <ele>1102</ele>
        <time>2021-08-03T09:26:12.302Z</time>
      </trkpt>
      <trkpt lat="47.02286" lon="8.91107">
        <ele>1103</ele>
        <time>2021-08-03T09:26:13.302Z</time>
      </trkpt>
      <trkpt lat="47.02287" lon="8.91106">
        <ele>1104</ele>
        <time>2021-08-03T09:26:14.302Z</time>
      </trkpt>
      <trkpt lat="47.02287" lon="8.91106">
        <ele>1105</ele>
        <time>2021-08-03T09:26:15.302Z</time>
      </trkpt>
      <trkpt lat="47.02288" lon="8.91105">
        <ele>1106</ele>
        <time>2021-08-03T09:26:16.302Z</time>
      </trkpt>
      <trkpt lat="47.02289" lon="8.91104">
        <ele>1106</ele>
        <time>2021-08-03T09:26:17.302Z</time>
      </trkpt>
      <trkpt lat="47.02289" lon="8.91103">
        <ele>1107</ele>
        <time>2021-08-03T09:26:18.302Z</time>
      </trkpt>
      <trkpt lat="47.0229" lon="8.91103">
        <ele>1107</ele>
        <time>2021-08-03T09:26:19.302Z</time>
      </trkpt>
      <trkpt lat="47.0229" lon="8.91103">
        <ele>1108</ele>
        <time>2021-08-03T09:26:20.303Z</time>
      </trkpt>
      <trkpt lat="47.02291" lon="8.91103">
        <ele>1108</ele>
        <time>2021-08-03T09:26:21.303Z</time>
      </trkpt>
      <trkpt lat="47.02292" lon="8.91103">
        <ele>1109</ele>
        <time>2021-08-03T09:26:22.303Z</time>
      </trkpt>
      <trkpt lat="47.02292" lon="8.91104">
        <ele>1110</ele>
        <time>2021-08-03T09:26:23.302Z</time>
      </trkpt>
      <trkpt lat="47.02292" lon="8.91104">
        <ele>1111</ele>
        <time>2021-08-03T09:26:24.302Z</time>
      </trkpt>
      <trkpt lat="47.02289" lon="8.911">
        <ele>1116</ele>
        <time>2021-08-03T09:26:25.303Z</time>
      </trkpt>
      <trkpt lat="47.02289" lon="8.91099">
        <ele>1116</ele>
        <time>2021-08-03T09:26:26.302Z</time>
      </trkpt>
      <trkpt lat="47.02289" lon="8.91099">
        <ele>1116</ele>
        <time>2021-08-03T09:26:27.302Z</time>
      </trkpt>
      <trkpt lat="47.02289" lon="8.911">
        <ele>1116</ele>
        <time>2021-08-03T09:26:28.303Z</time>
      </trkpt>
      <trkpt lat="47.02288" lon="8.911">
        <ele>1117</ele>
        <time>2021-08-03T09:26:29.303Z</time>
      </trkpt>
      <trkpt lat="47.02286" lon="8.911">
        <ele>1117</ele>
        <time>2021-08-03T09:26:30.304Z</time>
      </trkpt>
      <trkpt lat="47.02286" lon="8.911">
        <ele>1117</ele>
        <time>2021-08-03T09:26:31.303Z</time>
      </trkpt>
      <trkpt lat="47.02287" lon="8.91102">
        <ele>1117</ele>
        <time>2021-08-03T09:26:32.303Z</time>
      </trkpt>
      <trkpt lat="47.02285" lon="8.91102">
        <ele>1118</ele>
        <time>2021-08-03T09:26:33.303Z</time>
      </trkpt>
      <trkpt lat="47.02285" lon="8.91102">
        <ele>1118</ele>
        <time>2021-08-03T09:26:34.303Z</time>
      </trkpt>
      <trkpt lat="47.02285" lon="8.91102">
        <ele>1118</ele>
        <time>2021-08-03T09:26:35.303Z</time>
      </trkpt>
      <trkpt lat="47.02286" lon="8.91102">
        <ele>1118</ele>
        <time>2021-08-03T09:26:36.304Z</time>
      </trkpt>
      <trkpt lat="47.02286" lon="8.91102">
        <ele>1117</ele>
        <time>2021-08-03T09:26:37.304Z</time>
      </trkpt>
      <trkpt lat="47.02287" lon="8.91103">
        <ele>1116</ele>
        <time>2021-08-03T09:26:38.304Z</time>
      </trkpt>
      <trkpt lat="47.02287" lon="8.91104">
        <ele>1116</ele>
        <time>2021-08-03T09:26:39.304Z</time>
      </trkpt>
      <trkpt lat="47.02288" lon="8.91103">
        <ele>1116</ele>
        <time>2021-08-03T09:26:40.303Z</time>
      </trkpt>
      <trkpt lat="47.02288" lon="8.91103">
        <ele>1115</ele>
        <time>2021-08-03T09:26:41.304Z</time>
      </trkpt>
      <trkpt lat="47.02288" lon="8.91104">
        <ele>1114</ele>
        <time>2021-08-03T09:26:42.304Z</time>
      </trkpt>
      <trkpt lat="47.02288" lon="8.91104">
        <ele>1114</ele>
        <time>2021-08-03T09:26:43.303Z</time>
      </trkpt>
      <trkpt lat="47.02289" lon="8.91104">
        <ele>1113</ele>
        <time>2021-08-03T09:26:44.304Z</time>
      </trkpt>
      <trkpt lat="47.0229" lon="8.91104">
        <ele>1113</ele>
        <time>2021-08-03T09:26:45.304Z</time>
      </trkpt>
      <trkpt lat="47.02291" lon="8.91103">
        <ele>1112</ele>
        <time>2021-08-03T09:26:46.304Z</time>
      </trkpt>
      <trkpt lat="47.0229" lon="8.91104">
        <ele>1112</ele>
        <time>2021-08-03T09:26:47.305Z</time>
      </trkpt>
      <trkpt lat="47.02289" lon="8.91104">
        <ele>1112</ele>
        <time>2021-08-03T09:26:48.305Z</time>
      </trkpt>
      <trkpt lat="47.02288" lon="8.91104">
        <ele>1112</ele>
        <time>2021-08-03T09:26:49.304Z</time>
      </trkpt>
      <trkpt lat="47.02288" lon="8.91104">
        <ele>1112</ele>
        <time>2021-08-03T09:26:50.305Z</time>
      </trkpt>
      <trkpt lat="47.02287" lon="8.91104">
        <ele>1112</ele>
        <time>2021-08-03T09:26:51.305Z</time>
      </trkpt>
      <trkpt lat="47.02287" lon="8.91104">
        <ele>1112</ele>
        <time>2021-08-03T09:26:52.304Z</time>
      </trkpt>
      <trkpt lat="47.02287" lon="8.91105">
        <ele>1112</ele>
        <time>2021-08-03T09:26:53.305Z</time>
      </trkpt>
      <trkpt lat="47.02287" lon="8.91105">
        <ele>1112</ele>
        <time>2021-08-03T09:26:54.305Z</time>
      </trkpt>
      <trkpt lat="47.02287" lon="8.91105">
        <ele>1112</ele>
        <time>2021-08-03T09:26:55.304Z</time>
      </trkpt>
      <trkpt lat="47.02288" lon="8.91105">
        <ele>1112</ele>
        <time>2021-08-03T09:26:56.305Z</time>
      </trkpt>
      <trkpt lat="47.02289" lon="8.91105">
        <ele>1112</ele>
        <time>2021-08-03T09:26:57.305Z</time>
      </trkpt>
      <trkpt lat="47.02289" lon="8.91105">
        <ele>1112</ele>
        <time>2021-08-03T09:26:58.305Z</time>
      </trkpt>
      <trkpt lat="47.0229" lon="8.91103">
        <ele>1112</ele>
        <time>2021-08-03T09:26:59.305Z</time>
      </trkpt>
      <trkpt lat="47.02289" lon="8.91103">
        <ele>1112</ele>
        <time>2021-08-03T09:27:00.305Z</time>
      </trkpt>
      <trkpt lat="47.02289" lon="8.91104">
        <ele>1112</ele>
        <time>2021-08-03T09:27:01.304Z</time>
      </trkpt>
      <trkpt lat="47.02289" lon="8.91103">
        <ele>1112</ele>
        <time>2021-08-03T09:27:02.304Z</time>
      </trkpt>
      <trkpt lat="47.0229" lon="8.91103">
        <ele>1111</ele>
        <time>2021-08-03T09:27:03.304Z</time>
      </trkpt>
      <trkpt lat="47.0229" lon="8.91102">
        <ele>1111</ele>
        <time>2021-08-03T09:27:04.304Z</time>
      </trkpt>
      <trkpt lat="47.0229" lon="8.91102">
        <ele>1111</ele>
        <time>2021-08-03T09:27:05.305Z</time>
      </trkpt>
      <trkpt lat="47.02287" lon="8.91107">
        <ele>1110</ele>
        <time>2021-08-03T09:27:06.305Z</time>
      </trkpt>
      <trkpt lat="47.02287" lon="8.91107">
        <ele>1110</ele>
        <time>2021-08-03T09:27:07.305Z</time>
      </trkpt>
      <trkpt lat="47.02286" lon="8.91108">
        <ele>1110</ele>
        <time>2021-08-03T09:27:08.304Z</time>
      </trkpt>
      <trkpt lat="47.02287" lon="8.91109">
        <ele>1099</ele>
        <time>2021-08-03T09:27:09.305Z</time>
      </trkpt>
      <trkpt lat="47.02289" lon="8.91109">
        <ele>1096</ele>
        <time>2021-08-03T09:27:10.306Z</time>
      </trkpt>
      <trkpt lat="47.0229" lon="8.91108">
        <ele>1096</ele>
        <time>2021-08-03T09:27:11.305Z</time>
      </trkpt>
      <trkpt lat="47.0229" lon="8.91108">
        <ele>1096</ele>
        <time>2021-08-03T09:27:12.306Z</time>
      </trkpt>
      <trkpt lat="47.0229" lon="8.91108">
        <ele>1096</ele>
        <time>2021-08-03T09:27:13.306Z</time>
      </trkpt>
      <trkpt lat="47.02291" lon="8.91106">
        <ele>1097</ele>
        <time>2021-08-03T09:27:14.306Z</time>
      </trkpt>
      <trkpt lat="47.02291" lon="8.91106">
        <ele>1097</ele>
        <time>2021-08-03T09:27:15.306Z</time>
      </trkpt>
      <trkpt lat="47.02291" lon="8.91107">
        <ele>1097</ele>
        <time>2021-08-03T09:27:16.307Z</time>
      </trkpt>
      <trkpt lat="47.02291" lon="8.91109">
        <ele>1100</ele>
        <time>2021-08-03T09:27:17.309Z</time>
      </trkpt>
      <trkpt lat="47.02291" lon="8.9111">
        <ele>1101</ele>
        <time>2021-08-03T09:27:18.309Z</time>
      </trkpt>
      <trkpt lat="47.0229" lon="8.9111">
        <ele>1102</ele>
        <time>2021-08-03T09:27:19.308Z</time>
      </trkpt>
      <trkpt lat="47.0229" lon="8.9111">
        <ele>1103</ele>
        <time>2021-08-03T09:27:20.308Z</time>
      </trkpt>
      <trkpt lat="47.02288" lon="8.9111">
        <ele>1104</ele>
        <time>2021-08-03T09:27:21.308Z</time>
      </trkpt>
      <trkpt lat="47.02288" lon="8.91111">
        <ele>1104</ele>
        <time>2021-08-03T09:27:22.308Z</time>
      </trkpt>
      <trkpt lat="47.02287" lon="8.91112">
        <ele>1100</ele>
        <time>2021-08-03T09:27:23.308Z</time>
      </trkpt>
      <trkpt lat="47.02289" lon="8.91108">
        <ele>1105</ele>
        <time>2021-08-03T09:27:24.309Z</time>
      </trkpt>
      <trkpt lat="47.02288" lon="8.91108">
        <ele>1105</ele>
        <time>2021-08-03T09:27:25.309Z</time>
      </trkpt>
      <trkpt lat="47.02288" lon="8.91108">
        <ele>1105</ele>
        <time>2021-08-03T09:27:26.308Z</time>
      </trkpt>
      <trkpt lat="47.02288" lon="8.91107">
        <ele>1104</ele>
        <time>2021-08-03T09:27:27.309Z</time>
      </trkpt>
      <trkpt lat="47.02288" lon="8.91107">
        <ele>1104</ele>
        <time>2021-08-03T09:27:28.309Z</time>
      </trkpt>
      <trkpt lat="47.0229" lon="8.91099">
        <ele>1100</ele>
        <time>2021-08-03T09:27:29.308Z</time>
      </trkpt>
      <trkpt lat="47.02289" lon="8.91099">
        <ele>1100</ele>
        <time>2021-08-03T09:27:30.309Z</time>
      </trkpt>
      <trkpt lat="47.02284" lon="8.91097">
        <ele>1104</ele>
        <time>2021-08-03T09:27:31.310Z</time>
      </trkpt>
      <trkpt lat="47.02284" lon="8.91097">
        <ele>1104</ele>
        <time>2021-08-03T09:27:32.309Z</time>
      </trkpt>
      <trkpt lat="47.02284" lon="8.91097">
        <ele>1103</ele>
        <time>2021-08-03T09:27:33.309Z</time>
      </trkpt>
      <trkpt lat="47.02283" lon="8.91097">
        <ele>1103</ele>
        <time>2021-08-03T09:27:34.309Z</time>
      </trkpt>
      <trkpt lat="47.02279" lon="8.91095">
        <ele>1113</ele>
        <time>2021-08-03T09:27:35.310Z</time>
      </trkpt>
      <trkpt lat="47.02279" lon="8.91094">
        <ele>1114</ele>
        <time>2021-08-03T09:27:36.310Z</time>
      </trkpt>
      <trkpt lat="47.02279" lon="8.91095">
        <ele>1114</ele>
        <time>2021-08-03T09:27:37.309Z</time>
      </trkpt>
      <trkpt lat="47.02279" lon="8.91096">
        <ele>1115</ele>
        <time>2021-08-03T09:27:38.310Z</time>
      </trkpt>
      <trkpt lat="47.02279" lon="8.91095">
        <ele>1110</ele>
        <time>2021-08-03T09:27:39.310Z</time>
      </trkpt>
      <trkpt lat="47.02279" lon="8.91096">
        <ele>1110</ele>
        <time>2021-08-03T09:27:40.309Z</time>
      </trkpt>
      <trkpt lat="47.02279" lon="8.91095">
        <ele>1109</ele>
        <time>2021-08-03T09:27:41.310Z</time>
      </trkpt>
      <trkpt lat="47.02279" lon="8.91095">
        <ele>1107</ele>
        <time>2021-08-03T09:27:42.309Z</time>
      </trkpt>
      <trkpt lat="47.02279" lon="8.91096">
        <ele>1107</ele>
        <time>2021-08-03T09:27:43.309Z</time>
      </trkpt>
      <trkpt lat="47.02279" lon="8.91096">
        <ele>1107</ele>
        <time>2021-08-03T09:27:44.309Z</time>
      </trkpt>
      <trkpt lat="47.02279" lon="8.91095">
        <ele>1107</ele>
        <time>2021-08-03T09:27:45.310Z</time>
      </trkpt>
      <trkpt lat="47.02279" lon="8.91094">
        <ele>1107</ele>
        <time>2021-08-03T09:27:46.309Z</time>
      </trkpt>
      <trkpt lat="47.02279" lon="8.91094">
        <ele>1107</ele>
        <time>2021-08-03T09:27:47.309Z</time>
      </trkpt>
      <trkpt lat="47.02279" lon="8.91094">
        <ele>1107</ele>
        <time>2021-08-03T09:27:48.309Z</time>
      </trkpt>
      <trkpt lat="47.0228" lon="8.91094">
        <ele>1107</ele>
        <time>2021-08-03T09:27:49.309Z</time>
      </trkpt>
      <trkpt lat="47.0228" lon="8.91094">
        <ele>1106</ele>
        <time>2021-08-03T09:27:50.309Z</time>
      </trkpt>
      <trkpt lat="47.02281" lon="8.91096">
        <ele>1105</ele>
        <time>2021-08-03T09:27:51.310Z</time>
      </trkpt>
      <trkpt lat="47.02282" lon="8.91098">
        <ele>1104</ele>
        <time>2021-08-03T09:27:52.309Z</time>
      </trkpt>
      <trkpt lat="47.02282" lon="8.911">
        <ele>1104</ele>
        <time>2021-08-03T09:27:53.310Z</time>
      </trkpt>
      <trkpt lat="47.02283" lon="8.91101">
        <ele>1103</ele>
        <time>2021-08-03T09:27:54.310Z</time>
      </trkpt>
      <trkpt lat="47.02283" lon="8.91103">
        <ele>1103</ele>
        <time>2021-08-03T09:27:55.309Z</time>
      </trkpt>
      <trkpt lat="47.02283" lon="8.91104">
        <ele>1102</ele>
        <time>2021-08-03T09:27:56.310Z</time>
      </trkpt>
      <trkpt lat="47.02283" lon="8.91103">
        <ele>1101</ele>
        <time>2021-08-03T09:27:57.310Z</time>
      </trkpt>
      <trkpt lat="47.02284" lon="8.91104">
        <ele>1101</ele>
        <time>2021-08-03T09:27:58.309Z</time>
      </trkpt>
      <trkpt lat="47.02284" lon="8.91104">
        <ele>1100</ele>
        <time>2021-08-03T09:27:59.310Z</time>
      </trkpt>
      <trkpt lat="47.02285" lon="8.91104">
        <ele>1099</ele>
        <time>2021-08-03T09:28:00.309Z</time>
      </trkpt>
      <trkpt lat="47.02285" lon="8.91104">
        <ele>1098</ele>
        <time>2021-08-03T09:28:01.311Z</time>
      </trkpt>
      <trkpt lat="47.02285" lon="8.91104">
        <ele>1098</ele>
        <time>2021-08-03T09:28:02.312Z</time>
      </trkpt>
      <trkpt lat="47.02285" lon="8.91104">
        <ele>1098</ele>
        <time>2021-08-03T09:28:03.312Z</time>
      </trkpt>
      <trkpt lat="47.02286" lon="8.91104">
        <ele>1098</ele>
        <time>2021-08-03T09:28:04.312Z</time>
      </trkpt>
      <trkpt lat="47.02286" lon="8.91104">
        <ele>1098</ele>
        <time>2021-08-03T09:28:05.312Z</time>
      </trkpt>
      <trkpt lat="47.02286" lon="8.91097">
        <ele>1101</ele>
        <time>2021-08-03T09:28:06.312Z</time>
      </trkpt>
      <trkpt lat="47.02286" lon="8.91097">
        <ele>1101</ele>
        <time>2021-08-03T09:28:07.312Z</time>
      </trkpt>
      <trkpt lat="47.02286" lon="8.91097">
        <ele>1102</ele>
        <time>2021-08-03T09:28:08.312Z</time>
      </trkpt>
      <trkpt lat="47.02286" lon="8.91096">
        <ele>1102</ele>
        <time>2021-08-03T09:28:09.312Z</time>
      </trkpt>
      <trkpt lat="47.02286" lon="8.91095">
        <ele>1106</ele>
        <time>2021-08-03T09:28:10.312Z</time>
      </trkpt>
      <trkpt lat="47.02286" lon="8.91097">
        <ele>1102</ele>
        <time>2021-08-03T09:28:11.313Z</time>
      </trkpt>
      <trkpt lat="47.02286" lon="8.91098">
        <ele>1101</ele>
        <time>2021-08-03T09:28:12.312Z</time>
      </trkpt>
      <trkpt lat="47.02285" lon="8.91099">
        <ele>1099</ele>
        <time>2021-08-03T09:28:13.312Z</time>
      </trkpt>
      <trkpt lat="47.02287" lon="8.91103">
        <ele>1101</ele>
        <time>2021-08-03T09:28:14.313Z</time>
      </trkpt>
      <trkpt lat="47.02287" lon="8.91106">
        <ele>1102</ele>
        <time>2021-08-03T09:28:15.313Z</time>
      </trkpt>
      <trkpt lat="47.02286" lon="8.91109">
        <ele>1103</ele>
        <time>2021-08-03T09:28:16.313Z</time>
      </trkpt>
      <trkpt lat="47.02289" lon="8.91102">
        <ele>1100</ele>
        <time>2021-08-03T09:28:17.315Z</time>
      </trkpt>
      <trkpt lat="47.02289" lon="8.91103">
        <ele>1100</ele>
        <time>2021-08-03T09:28:18.316Z</time>
      </trkpt>
      <trkpt lat="47.02284" lon="8.911">
        <ele>1097</ele>
        <time>2021-08-03T09:28:19.316Z</time>
      </trkpt>
      <trkpt lat="47.02284" lon="8.911">
        <ele>1097</ele>
        <time>2021-08-03T09:28:20.316Z</time>
      </trkpt>
      <trkpt lat="47.02285" lon="8.91099">
        <ele>1098</ele>
        <time>2021-08-03T09:28:21.315Z</time>
      </trkpt>
      <trkpt lat="47.02285" lon="8.91098">
        <ele>1098</ele>
        <time>2021-08-03T09:28:22.315Z</time>
      </trkpt>
      <trkpt lat="47.02284" lon="8.91098">
        <ele>1099</ele>
        <time>2021-08-03T09:28:23.315Z</time>
      </trkpt>
      <trkpt lat="47.02287" lon="8.91098">
        <ele>1098</ele>
        <time>2021-08-03T09:28:24.315Z</time>
      </trkpt>
      <trkpt lat="47.0229" lon="8.91096">
        <ele>1106</ele>
        <time>2021-08-03T09:28:25.316Z</time>
      </trkpt>
      <trkpt lat="47.02291" lon="8.91095">
        <ele>1107</ele>
        <time>2021-08-03T09:28:26.316Z</time>
      </trkpt>
      <trkpt lat="47.02292" lon="8.91095">
        <ele>1107</ele>
        <time>2021-08-03T09:28:27.315Z</time>
      </trkpt>
      <trkpt lat="47.02293" lon="8.91095">
        <ele>1108</ele>
        <time>2021-08-03T09:28:28.316Z</time>
      </trkpt>
      <trkpt lat="47.02294" lon="8.91094">
        <ele>1108</ele>
        <time>2021-08-03T09:28:29.315Z</time>
      </trkpt>
      <trkpt lat="47.02295" lon="8.91093">
        <ele>1108</ele>
        <time>2021-08-03T09:28:30.315Z</time>
      </trkpt>
      <trkpt lat="47.02295" lon="8.91092">
        <ele>1109</ele>
        <time>2021-08-03T09:28:31.315Z</time>
      </trkpt>
      <trkpt lat="47.02296" lon="8.91091">
        <ele>1109</ele>
        <time>2021-08-03T09:28:32.315Z</time>
      </trkpt>
      <trkpt lat="47.02296" lon="8.9109">
        <ele>1109</ele>
        <time>2021-08-03T09:28:33.316Z</time>
      </trkpt>
      <trkpt lat="47.02296" lon="8.91089">
        <ele>1110</ele>
        <time>2021-08-03T09:28:34.315Z</time>
      </trkpt>
      <trkpt lat="47.02297" lon="8.91088">
        <ele>1110</ele>
        <time>2021-08-03T09:28:35.316Z</time>
      </trkpt>
      <trkpt lat="47.02297" lon="8.91087">
        <ele>1110</ele>
        <time>2021-08-03T09:28:36.316Z</time>
      </trkpt>
      <trkpt lat="47.02297" lon="8.91085">
        <ele>1110</ele>
        <time>2021-08-03T09:28:37.316Z</time>
      </trkpt>
      <trkpt lat="47.02297" lon="8.91084">
        <ele>1110</ele>
        <time>2021-08-03T09:28:38.315Z</time>
      </trkpt>
      <trkpt lat="47.02297" lon="8.91083">
        <ele>1110</ele>
        <time>2021-08-03T09:28:39.315Z</time>
      </trkpt>
      <trkpt lat="47.02298" lon="8.91082">
        <ele>1111</ele>
        <time>2021-08-03T09:28:40.316Z</time>
      </trkpt>
      <trkpt lat="47.02299" lon="8.91081">
        <ele>1111</ele>
        <time>2021-08-03T09:28:41.316Z</time>
      </trkpt>
      <trkpt lat="47.023" lon="8.9108">
        <ele>1111</ele>
        <time>2021-08-03T09:28:42.315Z</time>
      </trkpt>
      <trkpt lat="47.02301" lon="8.91079">
        <ele>1112</ele>
        <time>2021-08-03T09:28:43.315Z</time>
      </trkpt>
      <trkpt lat="47.02302" lon="8.91079">
        <ele>1112</ele>
        <time>2021-08-03T09:28:44.316Z</time>
      </trkpt>
      <trkpt lat="47.02302" lon="8.91078">
        <ele>1112</ele>
        <time>2021-08-03T09:28:45.316Z</time>
      </trkpt>
      <trkpt lat="47.02302" lon="8.91078">
        <ele>1112</ele>
        <time>2021-08-03T09:28:46.316Z</time>
      </trkpt>
      <trkpt lat="47.02302" lon="8.91077">
        <ele>1112</ele>
        <time>2021-08-03T09:28:47.315Z</time>
      </trkpt>
      <trkpt lat="47.02302" lon="8.91077">
        <ele>1112</ele>
        <time>2021-08-03T09:28:48.316Z</time>
      </trkpt>
      <trkpt lat="47.02303" lon="8.91077">
        <ele>1112</ele>
        <time>2021-08-03T09:28:49.315Z</time>
      </trkpt>
      <trkpt lat="47.02303" lon="8.91077">
        <ele>1112</ele>
        <time>2021-08-03T09:28:50.316Z</time>
      </trkpt>
      <trkpt lat="47.02304" lon="8.91076">
        <ele>1112</ele>
        <time>2021-08-03T09:28:51.316Z</time>
      </trkpt>
      <trkpt lat="47.02304" lon="8.91076">
        <ele>1113</ele>
        <time>2021-08-03T09:28:52.316Z</time>
      </trkpt>
      <trkpt lat="47.02305" lon="8.91076">
        <ele>1113</ele>
        <time>2021-08-03T09:28:53.316Z</time>
      </trkpt>
      <trkpt lat="47.02307" lon="8.91075">
        <ele>1114</ele>
        <time>2021-08-03T09:28:54.315Z</time>
      </trkpt>
      <trkpt lat="47.02309" lon="8.91076">
        <ele>1114</ele>
        <time>2021-08-03T09:28:55.315Z</time>
      </trkpt>
      <trkpt lat="47.0231" lon="8.91076">
        <ele>1115</ele>
        <time>2021-08-03T09:28:56.316Z</time>
      </trkpt>
      <trkpt lat="47.0231" lon="8.91075">
        <ele>1116</ele>
        <time>2021-08-03T09:28:57.315Z</time>
      </trkpt>
      <trkpt lat="47.02311" lon="8.91074">
        <ele>1117</ele>
        <time>2021-08-03T09:28:58.315Z</time>
      </trkpt>
      <trkpt lat="47.02312" lon="8.91073">
        <ele>1118</ele>
        <time>2021-08-03T09:28:59.315Z</time>
      </trkpt>
      <trkpt lat="47.02313" lon="8.91071">
        <ele>1118</ele>
        <time>2021-08-03T09:29:00.316Z</time>
      </trkpt>
      <trkpt lat="47.02313" lon="8.9107">
        <ele>1119</ele>
        <time>2021-08-03T09:29:01.316Z</time>
      </trkpt>
      <trkpt lat="47.02313" lon="8.91069">
        <ele>1119</ele>
        <time>2021-08-03T09:29:02.316Z</time>
      </trkpt>
      <trkpt lat="47.02314" lon="8.91068">
        <ele>1119</ele>
        <time>2021-08-03T09:29:03.315Z</time>
      </trkpt>
      <trkpt lat="47.02315" lon="8.91066">
        <ele>1119</ele>
        <time>2021-08-03T09:29:04.315Z</time>
      </trkpt>
      <trkpt lat="47.02316" lon="8.91065">
        <ele>1119</ele>
        <time>2021-08-03T09:29:05.315Z</time>
      </trkpt>
      <trkpt lat="47.02316" lon="8.91064">
        <ele>1119</ele>
        <time>2021-08-03T09:29:06.316Z</time>
      </trkpt>
      <trkpt lat="47.02317" lon="8.91063">
        <ele>1119</ele>
        <time>2021-08-03T09:29:07.316Z</time>
      </trkpt>
      <trkpt lat="47.02318" lon="8.91062">
        <ele>1118</ele>
        <time>2021-08-03T09:29:08.316Z</time>
      </trkpt>
      <trkpt lat="47.02318" lon="8.91061">
        <ele>1118</ele>
        <time>2021-08-03T09:29:09.315Z</time>
      </trkpt>
      <trkpt lat="47.02318" lon="8.91061">
        <ele>1118</ele>
        <time>2021-08-03T09:29:10.316Z</time>
      </trkpt>
      <trkpt lat="47.02319" lon="8.9106">
        <ele>1119</ele>
        <time>2021-08-03T09:29:11.315Z</time>
      </trkpt>
      <trkpt lat="47.0232" lon="8.9106">
        <ele>1119</ele>
        <time>2021-08-03T09:29:12.315Z</time>
      </trkpt>
      <trkpt lat="47.02321" lon="8.91059">
        <ele>1119</ele>
        <time>2021-08-03T09:29:13.315Z</time>
      </trkpt>
      <trkpt lat="47.02323" lon="8.91059">
        <ele>1119</ele>
        <time>2021-08-03T09:29:14.316Z</time>
      </trkpt>
      <trkpt lat="47.02324" lon="8.91059">
        <ele>1119</ele>
        <time>2021-08-03T09:29:15.315Z</time>
      </trkpt>
      <trkpt lat="47.02325" lon="8.91058">
        <ele>1120</ele>
        <time>2021-08-03T09:29:16.315Z</time>
      </trkpt>
      <trkpt lat="47.02326" lon="8.91056">
        <ele>1120</ele>
        <time>2021-08-03T09:29:17.315Z</time>
      </trkpt>
      <trkpt lat="47.02326" lon="8.91055">
        <ele>1120</ele>
        <time>2021-08-03T09:29:18.316Z</time>
      </trkpt>
      <trkpt lat="47.02326" lon="8.91055">
        <ele>1120</ele>
        <time>2021-08-03T09:29:19.316Z</time>
      </trkpt>
      <trkpt lat="47.02327" lon="8.91053">
        <ele>1119</ele>
        <time>2021-08-03T09:29:20.316Z</time>
      </trkpt>
      <trkpt lat="47.02327" lon="8.91052">
        <ele>1119</ele>
        <time>2021-08-03T09:29:21.316Z</time>
      </trkpt>
      <trkpt lat="47.02327" lon="8.91051">
        <ele>1119</ele>
        <time>2021-08-03T09:29:22.316Z</time>
      </trkpt>
      <trkpt lat="47.02327" lon="8.91051">
        <ele>1118</ele>
        <time>2021-08-03T09:29:23.316Z</time>
      </trkpt>
      <trkpt lat="47.02328" lon="8.9105">
        <ele>1117</ele>
        <time>2021-08-03T09:29:24.315Z</time>
      </trkpt>
      <trkpt lat="47.02328" lon="8.91048">
        <ele>1117</ele>
        <time>2021-08-03T09:29:25.316Z</time>
      </trkpt>
      <trkpt lat="47.02328" lon="8.91047">
        <ele>1117</ele>
        <time>2021-08-03T09:29:26.316Z</time>
      </trkpt>
      <trkpt lat="47.02328" lon="8.91045">
        <ele>1116</ele>
        <time>2021-08-03T09:29:27.316Z</time>
      </trkpt>
      <trkpt lat="47.02327" lon="8.91044">
        <ele>1116</ele>
        <time>2021-08-03T09:29:28.315Z</time>
      </trkpt>
      <trkpt lat="47.02328" lon="8.91043">
        <ele>1115</ele>
        <time>2021-08-03T09:29:29.316Z</time>
      </trkpt>
      <trkpt lat="47.02328" lon="8.91043">
        <ele>1115</ele>
        <time>2021-08-03T09:29:30.315Z</time>
      </trkpt>
      <trkpt lat="47.02328" lon="8.91043">
        <ele>1114</ele>
        <time>2021-08-03T09:29:31.316Z</time>
      </trkpt>
      <trkpt lat="47.02328" lon="8.91042">
        <ele>1114</ele>
        <time>2021-08-03T09:29:32.316Z</time>
      </trkpt>
      <trkpt lat="47.02327" lon="8.91041">
        <ele>1113</ele>
        <time>2021-08-03T09:29:33.315Z</time>
      </trkpt>
      <trkpt lat="47.0233" lon="8.91042">
        <ele>1108</ele>
        <time>2021-08-03T09:29:34.315Z</time>
      </trkpt>
      <trkpt lat="47.02331" lon="8.91041">
        <ele>1107</ele>
        <time>2021-08-03T09:29:35.315Z</time>
      </trkpt>
      <trkpt lat="47.02332" lon="8.91043">
        <ele>1105</ele>
        <time>2021-08-03T09:29:36.315Z</time>
      </trkpt>
      <trkpt lat="47.02333" lon="8.91042">
        <ele>1105</ele>
        <time>2021-08-03T09:29:37.316Z</time>
      </trkpt>
      <trkpt lat="47.02334" lon="8.91042">
        <ele>1105</ele>
        <time>2021-08-03T09:29:38.315Z</time>
      </trkpt>
      <trkpt lat="47.02334" lon="8.9104">
        <ele>1105</ele>
        <time>2021-08-03T09:29:39.316Z</time>
      </trkpt>
      <trkpt lat="47.02335" lon="8.91039">
        <ele>1105</ele>
        <time>2021-08-03T09:29:40.316Z</time>
      </trkpt>
      <trkpt lat="47.02335" lon="8.91039">
        <ele>1105</ele>
        <time>2021-08-03T09:29:41.315Z</time>
      </trkpt>
      <trkpt lat="47.02335" lon="8.91038">
        <ele>1105</ele>
        <time>2021-08-03T09:29:42.316Z</time>
      </trkpt>
      <trkpt lat="47.02336" lon="8.91037">
        <ele>1105</ele>
        <time>2021-08-03T09:29:43.315Z</time>
      </trkpt>
      <trkpt lat="47.02337" lon="8.91037">
        <ele>1105</ele>
        <time>2021-08-03T09:29:44.315Z</time>
      </trkpt>
      <trkpt lat="47.02338" lon="8.91035">
        <ele>1105</ele>
        <time>2021-08-03T09:29:45.316Z</time>
      </trkpt>
      <trkpt lat="47.02338" lon="8.91034">
        <ele>1104</ele>
        <time>2021-08-03T09:29:46.315Z</time>
      </trkpt>
      <trkpt lat="47.02339" lon="8.91033">
        <ele>1104</ele>
        <time>2021-08-03T09:29:47.316Z</time>
      </trkpt>
      <trkpt lat="47.0234" lon="8.91032">
        <ele>1104</ele>
        <time>2021-08-03T09:29:48.316Z</time>
      </trkpt>
      <trkpt lat="47.0234" lon="8.91032">
        <ele>1104</ele>
        <time>2021-08-03T09:29:49.315Z</time>
      </trkpt>
      <trkpt lat="47.02341" lon="8.9103">
        <ele>1104</ele>
        <time>2021-08-03T09:29:50.316Z</time>
      </trkpt>
      <trkpt lat="47.02341" lon="8.91029">
        <ele>1104</ele>
        <time>2021-08-03T09:29:51.316Z</time>
      </trkpt>
      <trkpt lat="47.02342" lon="8.91028">
        <ele>1103</ele>
        <time>2021-08-03T09:29:52.316Z</time>
      </trkpt>
      <trkpt lat="47.02343" lon="8.91026">
        <ele>1103</ele>
        <time>2021-08-03T09:29:53.315Z</time>
      </trkpt>
      <trkpt lat="47.02343" lon="8.91025">
        <ele>1102</ele>
        <time>2021-08-03T09:29:54.316Z</time>
      </trkpt>
      <trkpt lat="47.02344" lon="8.91024">
        <ele>1102</ele>
        <time>2021-08-03T09:29:55.316Z</time>
      </trkpt>
      <trkpt lat="47.02344" lon="8.91023">
        <ele>1101</ele>
        <time>2021-08-03T09:29:56.316Z</time>
      </trkpt>
      <trkpt lat="47.02345" lon="8.91022">
        <ele>1100</ele>
        <time>2021-08-03T09:29:57.316Z</time>
      </trkpt>
      <trkpt lat="47.02345" lon="8.91021">
        <ele>1100</ele>
        <time>2021-08-03T09:29:58.316Z</time>
      </trkpt>
      <trkpt lat="47.02346" lon="8.9102">
        <ele>1099</ele>
        <time>2021-08-03T09:29:59.315Z</time>
      </trkpt>
      <trkpt lat="47.02347" lon="8.91019">
        <ele>1099</ele>
        <time>2021-08-03T09:30:00.316Z</time>
      </trkpt>
      <trkpt lat="47.02347" lon="8.91018">
        <ele>1099</ele>
        <time>2021-08-03T09:30:01.315Z</time>
      </trkpt>
      <trkpt lat="47.02348" lon="8.91017">
        <ele>1099</ele>
        <time>2021-08-03T09:30:02.316Z</time>
      </trkpt>
      <trkpt lat="47.02348" lon="8.91016">
        <ele>1100</ele>
        <time>2021-08-03T09:30:03.316Z</time>
      </trkpt>
      <trkpt lat="47.02349" lon="8.91016">
        <ele>1100</ele>
        <time>2021-08-03T09:30:04.316Z</time>
      </trkpt>
      <trkpt lat="47.02349" lon="8.91015">
        <ele>1100</ele>
        <time>2021-08-03T09:30:05.315Z</time>
      </trkpt>
      <trkpt lat="47.02349" lon="8.91014">
        <ele>1100</ele>
        <time>2021-08-03T09:30:06.316Z</time>
      </trkpt>
      <trkpt lat="47.02348" lon="8.91012">
        <ele>1100</ele>
        <time>2021-08-03T09:30:07.316Z</time>
      </trkpt>
      <trkpt lat="47.02348" lon="8.91011">
        <ele>1100</ele>
        <time>2021-08-03T09:30:08.316Z</time>
      </trkpt>
      <trkpt lat="47.02349" lon="8.91011">
        <ele>1100</ele>
        <time>2021-08-03T09:30:09.315Z</time>
      </trkpt>
      <trkpt lat="47.02349" lon="8.9101">
        <ele>1100</ele>
        <time>2021-08-03T09:30:10.315Z</time>
      </trkpt>
      <trkpt lat="47.02349" lon="8.91009">
        <ele>1100</ele>
        <time>2021-08-03T09:30:11.316Z</time>
      </trkpt>
      <trkpt lat="47.0235" lon="8.91009">
        <ele>1101</ele>
        <time>2021-08-03T09:30:12.315Z</time>
      </trkpt>
      <trkpt lat="47.0235" lon="8.91009">
        <ele>1101</ele>
        <time>2021-08-03T09:30:13.315Z</time>
      </trkpt>
      <trkpt lat="47.02351" lon="8.91008">
        <ele>1102</ele>
        <time>2021-08-03T09:30:14.316Z</time>
      </trkpt>
      <trkpt lat="47.02352" lon="8.91008">
        <ele>1103</ele>
        <time>2021-08-03T09:30:15.315Z</time>
      </trkpt>
      <trkpt lat="47.02352" lon="8.91007">
        <ele>1104</ele>
        <time>2021-08-03T09:30:16.315Z</time>
      </trkpt>
      <trkpt lat="47.02352" lon="8.91007">
        <ele>1105</ele>
        <time>2021-08-03T09:30:17.315Z</time>
      </trkpt>
      <trkpt lat="47.02353" lon="8.91005">
        <ele>1106</ele>
        <time>2021-08-03T09:30:18.316Z</time>
      </trkpt>
      <trkpt lat="47.02353" lon="8.91005">
        <ele>1107</ele>
        <time>2021-08-03T09:30:19.315Z</time>
      </trkpt>
      <trkpt lat="47.02353" lon="8.91004">
        <ele>1107</ele>
        <time>2021-08-03T09:30:20.316Z</time>
      </trkpt>
      <trkpt lat="47.02355" lon="8.91003">
        <ele>1107</ele>
        <time>2021-08-03T09:30:21.316Z</time>
      </trkpt>
      <trkpt lat="47.02355" lon="8.91001">
        <ele>1108</ele>
        <time>2021-08-03T09:30:22.316Z</time>
      </trkpt>
      <trkpt lat="47.02356" lon="8.91">
        <ele>1108</ele>
        <time>2021-08-03T09:30:23.316Z</time>
      </trkpt>
      <trkpt lat="47.02356" lon="8.90998">
        <ele>1108</ele>
        <time>2021-08-03T09:30:24.315Z</time>
      </trkpt>
      <trkpt lat="47.02357" lon="8.90997">
        <ele>1109</ele>
        <time>2021-08-03T09:30:25.316Z</time>
      </trkpt>
      <trkpt lat="47.02357" lon="8.90996">
        <ele>1109</ele>
        <time>2021-08-03T09:30:26.316Z</time>
      </trkpt>
      <trkpt lat="47.02358" lon="8.90995">
        <ele>1110</ele>
        <time>2021-08-03T09:30:27.316Z</time>
      </trkpt>
      <trkpt lat="47.02358" lon="8.90994">
        <ele>1110</ele>
        <time>2021-08-03T09:30:28.316Z</time>
      </trkpt>
      <trkpt lat="47.02358" lon="8.90992">
        <ele>1109</ele>
        <time>2021-08-03T09:30:29.315Z</time>
      </trkpt>
      <trkpt lat="47.02359" lon="8.90991">
        <ele>1109</ele>
        <time>2021-08-03T09:30:30.316Z</time>
      </trkpt>
      <trkpt lat="47.02359" lon="8.90989">
        <ele>1109</ele>
        <time>2021-08-03T09:30:31.315Z</time>
      </trkpt>
      <trkpt lat="47.02359" lon="8.90988">
        <ele>1109</ele>
        <time>2021-08-03T09:30:32.316Z</time>
      </trkpt>
      <trkpt lat="47.0236" lon="8.90987">
        <ele>1109</ele>
        <time>2021-08-03T09:30:33.315Z</time>
      </trkpt>
      <trkpt lat="47.02359" lon="8.90985">
        <ele>1108</ele>
        <time>2021-08-03T09:30:34.315Z</time>
      </trkpt>
      <trkpt lat="47.02359" lon="8.90984">
        <ele>1108</ele>
        <time>2021-08-03T09:30:35.315Z</time>
      </trkpt>
      <trkpt lat="47.02359" lon="8.90983">
        <ele>1108</ele>
        <time>2021-08-03T09:30:36.315Z</time>
      </trkpt>
      <trkpt lat="47.02359" lon="8.90982">
        <ele>1109</ele>
        <time>2021-08-03T09:30:37.316Z</time>
      </trkpt>
      <trkpt lat="47.0236" lon="8.90982">
        <ele>1109</ele>
        <time>2021-08-03T09:30:38.315Z</time>
      </trkpt>
      <trkpt lat="47.02359" lon="8.90981">
        <ele>1109</ele>
        <time>2021-08-03T09:30:39.315Z</time>
      </trkpt>
      <trkpt lat="47.02359" lon="8.90981">
        <ele>1109</ele>
        <time>2021-08-03T09:30:40.316Z</time>
      </trkpt>
      <trkpt lat="47.02359" lon="8.9098">
        <ele>1110</ele>
        <time>2021-08-03T09:30:41.316Z</time>
      </trkpt>
      <trkpt lat="47.0236" lon="8.90979">
        <ele>1110</ele>
        <time>2021-08-03T09:30:42.316Z</time>
      </trkpt>
      <trkpt lat="47.0236" lon="8.90978">
        <ele>1110</ele>
        <time>2021-08-03T09:30:43.316Z</time>
      </trkpt>
      <trkpt lat="47.0236" lon="8.90977">
        <ele>1111</ele>
        <time>2021-08-03T09:30:44.316Z</time>
      </trkpt>
      <trkpt lat="47.0236" lon="8.90976">
        <ele>1111</ele>
        <time>2021-08-03T09:30:45.315Z</time>
      </trkpt>
      <trkpt lat="47.02361" lon="8.90975">
        <ele>1111</ele>
        <time>2021-08-03T09:30:46.315Z</time>
      </trkpt>
      <trkpt lat="47.02361" lon="8.90973">
        <ele>1112</ele>
        <time>2021-08-03T09:30:47.315Z</time>
      </trkpt>
      <trkpt lat="47.02362" lon="8.90972">
        <ele>1111</ele>
        <time>2021-08-03T09:30:48.316Z</time>
      </trkpt>
      <trkpt lat="47.02362" lon="8.9097">
        <ele>1111</ele>
        <time>2021-08-03T09:30:49.316Z</time>
      </trkpt>
      <trkpt lat="47.02362" lon="8.90969">
        <ele>1111</ele>
        <time>2021-08-03T09:30:50.316Z</time>
      </trkpt>
      <trkpt lat="47.02363" lon="8.90967">
        <ele>1110</ele>
        <time>2021-08-03T09:30:51.316Z</time>
      </trkpt>
      <trkpt lat="47.02363" lon="8.90965">
        <ele>1110</ele>
        <time>2021-08-03T09:30:52.316Z</time>
      </trkpt>
      <trkpt lat="47.02363" lon="8.90963">
        <ele>1109</ele>
        <time>2021-08-03T09:30:53.316Z</time>
      </trkpt>
      <trkpt lat="47.02362" lon="8.90961">
        <ele>1109</ele>
        <time>2021-08-03T09:30:54.316Z</time>
      </trkpt>
      <trkpt lat="47.02362" lon="8.9096">
        <ele>1109</ele>
        <time>2021-08-03T09:30:55.315Z</time>
      </trkpt>
      <trkpt lat="47.02362" lon="8.90958">
        <ele>1108</ele>
        <time>2021-08-03T09:30:56.316Z</time>
      </trkpt>
      <trkpt lat="47.02362" lon="8.90956">
        <ele>1107</ele>
        <time>2021-08-03T09:30:57.315Z</time>
      </trkpt>
      <trkpt lat="47.02362" lon="8.90955">
        <ele>1106</ele>
        <time>2021-08-03T09:30:58.316Z</time>
      </trkpt>
      <trkpt lat="47.02362" lon="8.90953">
        <ele>1106</ele>
        <time>2021-08-03T09:30:59.316Z</time>
      </trkpt>
      <trkpt lat="47.02362" lon="8.90952">
        <ele>1106</ele>
        <time>2021-08-03T09:31:00.316Z</time>
      </trkpt>
      <trkpt lat="47.02362" lon="8.9095">
        <ele>1106</ele>
        <time>2021-08-03T09:31:01.316Z</time>
      </trkpt>
      <trkpt lat="47.02362" lon="8.90949">
        <ele>1106</ele>
        <time>2021-08-03T09:31:02.316Z</time>
      </trkpt>
      <trkpt lat="47.02362" lon="8.90947">
        <ele>1106</ele>
        <time>2021-08-03T09:31:03.315Z</time>
      </trkpt>
      <trkpt lat="47.02362" lon="8.90946">
        <ele>1106</ele>
        <time>2021-08-03T09:31:04.316Z</time>
      </trkpt>
      <trkpt lat="47.02362" lon="8.90945">
        <ele>1106</ele>
        <time>2021-08-03T09:31:05.316Z</time>
      </trkpt>
      <trkpt lat="47.02362" lon="8.90943">
        <ele>1106</ele>
        <time>2021-08-03T09:31:06.316Z</time>
      </trkpt>
      <trkpt lat="47.02362" lon="8.90941">
        <ele>1107</ele>
        <time>2021-08-03T09:31:07.315Z</time>
      </trkpt>
      <trkpt lat="47.02362" lon="8.9094">
        <ele>1107</ele>
        <time>2021-08-03T09:31:08.315Z</time>
      </trkpt>
      <trkpt lat="47.02362" lon="8.90939">
        <ele>1107</ele>
        <time>2021-08-03T09:31:09.316Z</time>
      </trkpt>
      <trkpt lat="47.02362" lon="8.90937">
        <ele>1107</ele>
        <time>2021-08-03T09:31:10.315Z</time>
      </trkpt>
      <trkpt lat="47.02363" lon="8.90934">
        <ele>1107</ele>
        <time>2021-08-03T09:31:11.316Z</time>
      </trkpt>
      <trkpt lat="47.02363" lon="8.90933">
        <ele>1107</ele>
        <time>2021-08-03T09:31:12.316Z</time>
      </trkpt>
      <trkpt lat="47.02363" lon="8.90931">
        <ele>1108</ele>
        <time>2021-08-03T09:31:13.315Z</time>
      </trkpt>
      <trkpt lat="47.02363" lon="8.9093">
        <ele>1108</ele>
        <time>2021-08-03T09:31:14.315Z</time>
      </trkpt>
      <trkpt lat="47.02363" lon="8.90929">
        <ele>1108</ele>
        <time>2021-08-03T09:31:15.316Z</time>
      </trkpt>
      <trkpt lat="47.02363" lon="8.90927">
        <ele>1107</ele>
        <time>2021-08-03T09:31:16.315Z</time>
      </trkpt>
      <trkpt lat="47.02363" lon="8.90925">
        <ele>1107</ele>
        <time>2021-08-03T09:31:17.316Z</time>
      </trkpt>
      <trkpt lat="47.02363" lon="8.90923">
        <ele>1106</ele>
        <time>2021-08-03T09:31:18.316Z</time>
      </trkpt>
      <trkpt lat="47.02363" lon="8.90921">
        <ele>1106</ele>
        <time>2021-08-03T09:31:19.316Z</time>
      </trkpt>
      <trkpt lat="47.02363" lon="8.9092">
        <ele>1106</ele>
        <time>2021-08-03T09:31:20.316Z</time>
      </trkpt>
      <trkpt lat="47.02363" lon="8.90919">
        <ele>1106</ele>
        <time>2021-08-03T09:31:21.316Z</time>
      </trkpt>
      <trkpt lat="47.02363" lon="8.90917">
        <ele>1105</ele>
        <time>2021-08-03T09:31:22.316Z</time>
      </trkpt>
      <trkpt lat="47.02363" lon="8.90916">
        <ele>1106</ele>
        <time>2021-08-03T09:31:23.316Z</time>
      </trkpt>
      <trkpt lat="47.02363" lon="8.90914">
        <ele>1106</ele>
        <time>2021-08-03T09:31:24.316Z</time>
      </trkpt>
      <trkpt lat="47.02363" lon="8.90913">
        <ele>1106</ele>
        <time>2021-08-03T09:31:25.316Z</time>
      </trkpt>
      <trkpt lat="47.02363" lon="8.90911">
        <ele>1106</ele>
        <time>2021-08-03T09:31:26.316Z</time>
      </trkpt>
      <trkpt lat="47.02363" lon="8.90909">
        <ele>1106</ele>
        <time>2021-08-03T09:31:27.315Z</time>
      </trkpt>
      <trkpt lat="47.02363" lon="8.90907">
        <ele>1106</ele>
        <time>2021-08-03T09:31:28.315Z</time>
      </trkpt>
      <trkpt lat="47.02364" lon="8.90905">
        <ele>1106</ele>
        <time>2021-08-03T09:31:29.316Z</time>
      </trkpt>
      <trkpt lat="47.02364" lon="8.90903">
        <ele>1106</ele>
        <time>2021-08-03T09:31:30.316Z</time>
      </trkpt>
      <trkpt lat="47.02362" lon="8.90902">
        <ele>1106</ele>
        <time>2021-08-03T09:31:31.316Z</time>
      </trkpt>
      <trkpt lat="47.02362" lon="8.909">
        <ele>1106</ele>
        <time>2021-08-03T09:31:32.316Z</time>
      </trkpt>
      <trkpt lat="47.02362" lon="8.90898">
        <ele>1106</ele>
        <time>2021-08-03T09:31:33.316Z</time>
      </trkpt>
      <trkpt lat="47.02362" lon="8.90897">
        <ele>1106</ele>
        <time>2021-08-03T09:31:34.316Z</time>
      </trkpt>
      <trkpt lat="47.02361" lon="8.90895">
        <ele>1107</ele>
        <time>2021-08-03T09:31:35.315Z</time>
      </trkpt>
      <trkpt lat="47.02361" lon="8.90894">
        <ele>1107</ele>
        <time>2021-08-03T09:31:36.315Z</time>
      </trkpt>
      <trkpt lat="47.02361" lon="8.90892">
        <ele>1107</ele>
        <time>2021-08-03T09:31:37.316Z</time>
      </trkpt>
      <trkpt lat="47.02361" lon="8.9089">
        <ele>1107</ele>
        <time>2021-08-03T09:31:38.316Z</time>
      </trkpt>
      <trkpt lat="47.02361" lon="8.90888">
        <ele>1108</ele>
        <time>2021-08-03T09:31:39.316Z</time>
      </trkpt>
      <trkpt lat="47.02361" lon="8.90886">
        <ele>1108</ele>
        <time>2021-08-03T09:31:40.316Z</time>
      </trkpt>
      <trkpt lat="47.02361" lon="8.90884">
        <ele>1109</ele>
        <time>2021-08-03T09:31:41.315Z</time>
      </trkpt>
      <trkpt lat="47.02361" lon="8.90883">
        <ele>1109</ele>
        <time>2021-08-03T09:31:42.316Z</time>
      </trkpt>
      <trkpt lat="47.02361" lon="8.90881">
        <ele>1109</ele>
        <time>2021-08-03T09:31:43.316Z</time>
      </trkpt>
      <trkpt lat="47.02361" lon="8.9088">
        <ele>1109</ele>
        <time>2021-08-03T09:31:44.315Z</time>
      </trkpt>
      <trkpt lat="47.02361" lon="8.90879">
        <ele>1109</ele>
        <time>2021-08-03T09:31:45.316Z</time>
      </trkpt>
      <trkpt lat="47.02361" lon="8.90877">
        <ele>1109</ele>
        <time>2021-08-03T09:31:46.315Z</time>
      </trkpt>
      <trkpt lat="47.02361" lon="8.90876">
        <ele>1109</ele>
        <time>2021-08-03T09:31:47.315Z</time>
      </trkpt>
      <trkpt lat="47.0236" lon="8.90874">
        <ele>1109</ele>
        <time>2021-08-03T09:31:48.315Z</time>
      </trkpt>
      <trkpt lat="47.0236" lon="8.90873">
        <ele>1109</ele>
        <time>2021-08-03T09:31:49.316Z</time>
      </trkpt>
      <trkpt lat="47.0236" lon="8.90871">
        <ele>1109</ele>
        <time>2021-08-03T09:31:50.315Z</time>
      </trkpt>
      <trkpt lat="47.02359" lon="8.90869">
        <ele>1110</ele>
        <time>2021-08-03T09:31:51.316Z</time>
      </trkpt>
      <trkpt lat="47.02359" lon="8.90867">
        <ele>1111</ele>
        <time>2021-08-03T09:31:52.316Z</time>
      </trkpt>
      <trkpt lat="47.02359" lon="8.90866">
        <ele>1111</ele>
        <time>2021-08-03T09:31:53.316Z</time>
      </trkpt>
      <trkpt lat="47.02359" lon="8.90864">
        <ele>1112</ele>
        <time>2021-08-03T09:31:54.316Z</time>
      </trkpt>
      <trkpt lat="47.02358" lon="8.90863">
        <ele>1112</ele>
        <time>2021-08-03T09:31:55.315Z</time>
      </trkpt>
      <trkpt lat="47.02359" lon="8.90862">
        <ele>1112</ele>
        <time>2021-08-03T09:31:56.316Z</time>
      </trkpt>
      <trkpt lat="47.02359" lon="8.9086">
        <ele>1112</ele>
        <time>2021-08-03T09:31:57.316Z</time>
      </trkpt>
      <trkpt lat="47.0236" lon="8.90859">
        <ele>1112</ele>
        <time>2021-08-03T09:31:58.315Z</time>
      </trkpt>
      <trkpt lat="47.0236" lon="8.90857">
        <ele>1111</ele>
        <time>2021-08-03T09:31:59.316Z</time>
      </trkpt>
      <trkpt lat="47.0236" lon="8.90856">
        <ele>1111</ele>
        <time>2021-08-03T09:32:00.315Z</time>
      </trkpt>
      <trkpt lat="47.0236" lon="8.90855">
        <ele>1111</ele>
        <time>2021-08-03T09:32:01.316Z</time>
      </trkpt>
      <trkpt lat="47.0236" lon="8.90854">
        <ele>1111</ele>
        <time>2021-08-03T09:32:02.316Z</time>
      </trkpt>
      <trkpt lat="47.0236" lon="8.90854">
        <ele>1111</ele>
        <time>2021-08-03T09:32:03.316Z</time>
      </trkpt>
      <trkpt lat="47.02359" lon="8.90853">
        <ele>1111</ele>
        <time>2021-08-03T09:32:04.316Z</time>
      </trkpt>
      <trkpt lat="47.02359" lon="8.90853">
        <ele>1111</ele>
        <time>2021-08-03T09:32:05.315Z</time>
      </trkpt>
      <trkpt lat="47.02358" lon="8.90853">
        <ele>1110</ele>
        <time>2021-08-03T09:32:06.315Z</time>
      </trkpt>
      <trkpt lat="47.02359" lon="8.90852">
        <ele>1110</ele>
        <time>2021-08-03T09:32:07.315Z</time>
      </trkpt>
      <trkpt lat="47.02359" lon="8.90851">
        <ele>1110</ele>
        <time>2021-08-03T09:32:08.316Z</time>
      </trkpt>
      <trkpt lat="47.02359" lon="8.90849">
        <ele>1110</ele>
        <time>2021-08-03T09:32:09.316Z</time>
      </trkpt>
      <trkpt lat="47.02359" lon="8.90848">
        <ele>1111</ele>
        <time>2021-08-03T09:32:10.315Z</time>
      </trkpt>
      <trkpt lat="47.02359" lon="8.90847">
        <ele>1111</ele>
        <time>2021-08-03T09:32:11.316Z</time>
      </trkpt>
      <trkpt lat="47.02359" lon="8.90845">
        <ele>1111</ele>
        <time>2021-08-03T09:32:12.316Z</time>
      </trkpt>
      <trkpt lat="47.02359" lon="8.90844">
        <ele>1112</ele>
        <time>2021-08-03T09:32:13.315Z</time>
      </trkpt>
      <trkpt lat="47.02359" lon="8.90843">
        <ele>1113</ele>
        <time>2021-08-03T09:32:14.316Z</time>
      </trkpt>
      <trkpt lat="47.02358" lon="8.90842">
        <ele>1113</ele>
        <time>2021-08-03T09:32:15.316Z</time>
      </trkpt>
      <trkpt lat="47.02358" lon="8.90841">
        <ele>1114</ele>
        <time>2021-08-03T09:32:16.316Z</time>
      </trkpt>
      <trkpt lat="47.02358" lon="8.9084">
        <ele>1114</ele>
        <time>2021-08-03T09:32:17.315Z</time>
      </trkpt>
      <trkpt lat="47.02358" lon="8.90838">
        <ele>1114</ele>
        <time>2021-08-03T09:32:18.315Z</time>
      </trkpt>
      <trkpt lat="47.02358" lon="8.90836">
        <ele>1115</ele>
        <time>2021-08-03T09:32:19.315Z</time>
      </trkpt>
      <trkpt lat="47.02358" lon="8.90835">
        <ele>1115</ele>
        <time>2021-08-03T09:32:20.316Z</time>
      </trkpt>
      <trkpt lat="47.02358" lon="8.90833">
        <ele>1114</ele>
        <time>2021-08-03T09:32:21.315Z</time>
      </trkpt>
      <trkpt lat="47.02358" lon="8.90832">
        <ele>1114</ele>
        <time>2021-08-03T09:32:22.316Z</time>
      </trkpt>
      <trkpt lat="47.02357" lon="8.90831">
        <ele>1114</ele>
        <time>2021-08-03T09:32:23.316Z</time>
      </trkpt>
      <trkpt lat="47.02357" lon="8.9083">
        <ele>1114</ele>
        <time>2021-08-03T09:32:24.315Z</time>
      </trkpt>
      <trkpt lat="47.02357" lon="8.90829">
        <ele>1114</ele>
        <time>2021-08-03T09:32:25.315Z</time>
      </trkpt>
      <trkpt lat="47.02356" lon="8.90827">
        <ele>1114</ele>
        <time>2021-08-03T09:32:26.315Z</time>
      </trkpt>
      <trkpt lat="47.02356" lon="8.90826">
        <ele>1114</ele>
        <time>2021-08-03T09:32:27.315Z</time>
      </trkpt>
      <trkpt lat="47.02356" lon="8.90826">
        <ele>1113</ele>
        <time>2021-08-03T09:32:28.316Z</time>
      </trkpt>
      <trkpt lat="47.02356" lon="8.90824">
        <ele>1113</ele>
        <time>2021-08-03T09:32:29.316Z</time>
      </trkpt>
      <trkpt lat="47.02355" lon="8.90823">
        <ele>1112</ele>
        <time>2021-08-03T09:32:30.315Z</time>
      </trkpt>
      <trkpt lat="47.02355" lon="8.90822">
        <ele>1111</ele>
        <time>2021-08-03T09:32:31.315Z</time>
      </trkpt>
      <trkpt lat="47.02354" lon="8.9082">
        <ele>1111</ele>
        <time>2021-08-03T09:32:32.315Z</time>
      </trkpt>
      <trkpt lat="47.02354" lon="8.90819">
        <ele>1111</ele>
        <time>2021-08-03T09:32:33.315Z</time>
      </trkpt>
      <trkpt lat="47.02353" lon="8.90817">
        <ele>1111</ele>
        <time>2021-08-03T09:32:34.315Z</time>
      </trkpt>
      <trkpt lat="47.02352" lon="8.90814">
        <ele>1112</ele>
        <time>2021-08-03T09:32:35.316Z</time>
      </trkpt>
      <trkpt lat="47.02351" lon="8.90812">
        <ele>1112</ele>
        <time>2021-08-03T09:32:36.315Z</time>
      </trkpt>
      <trkpt lat="47.02351" lon="8.90811">
        <ele>1113</ele>
        <time>2021-08-03T09:32:37.315Z</time>
      </trkpt>
      <trkpt lat="47.0235" lon="8.9081">
        <ele>1114</ele>
        <time>2021-08-03T09:32:38.315Z</time>
      </trkpt>
      <trkpt lat="47.0235" lon="8.90809">
        <ele>1115</ele>
        <time>2021-08-03T09:32:39.316Z</time>
      </trkpt>
      <trkpt lat="47.0235" lon="8.90807">
        <ele>1116</ele>
        <time>2021-08-03T09:32:40.316Z</time>
      </trkpt>
      <trkpt lat="47.02349" lon="8.90806">
        <ele>1116</ele>
        <time>2021-08-03T09:32:41.316Z</time>
      </trkpt>
      <trkpt lat="47.02349" lon="8.90804">
        <ele>1116</ele>
        <time>2021-08-03T09:32:42.315Z</time>
      </trkpt>
      <trkpt lat="47.02348" lon="8.90803">
        <ele>1116</ele>
        <time>2021-08-03T09:32:43.315Z</time>
      </trkpt>
      <trkpt lat="47.02348" lon="8.90801">
        <ele>1116</ele>
        <time>2021-08-03T09:32:44.316Z</time>
      </trkpt>
      <trkpt lat="47.02348" lon="8.908">
        <ele>1115</ele>
        <time>2021-08-03T09:32:45.315Z</time>
      </trkpt>
      <trkpt lat="47.02347" lon="8.90799">
        <ele>1114</ele>
        <time>2021-08-03T09:32:46.315Z</time>
      </trkpt>
      <trkpt lat="47.02347" lon="8.90797">
        <ele>1114</ele>
        <time>2021-08-03T09:32:47.315Z</time>
      </trkpt>
      <trkpt lat="47.02347" lon="8.90796">
        <ele>1114</ele>
        <time>2021-08-03T09:32:48.315Z</time>
      </trkpt>
      <trkpt lat="47.02346" lon="8.90795">
        <ele>1114</ele>
        <time>2021-08-03T09:32:49.316Z</time>
      </trkpt>
      <trkpt lat="47.02345" lon="8.90794">
        <ele>1114</ele>
        <time>2021-08-03T09:32:50.316Z</time>
      </trkpt>
      <trkpt lat="47.02345" lon="8.90792">
        <ele>1114</ele>
        <time>2021-08-03T09:32:51.315Z</time>
      </trkpt>
      <trkpt lat="47.02345" lon="8.9079">
        <ele>1114</ele>
        <time>2021-08-03T09:32:52.315Z</time>
      </trkpt>
      <trkpt lat="47.02344" lon="8.90788">
        <ele>1115</ele>
        <time>2021-08-03T09:32:53.315Z</time>
      </trkpt>
      <trkpt lat="47.02344" lon="8.90786">
        <ele>1115</ele>
        <time>2021-08-03T09:32:54.316Z</time>
      </trkpt>
      <trkpt lat="47.02343" lon="8.90785">
        <ele>1115</ele>
        <time>2021-08-03T09:32:55.315Z</time>
      </trkpt>
      <trkpt lat="47.02343" lon="8.90783">
        <ele>1116</ele>
        <time>2021-08-03T09:32:56.316Z</time>
      </trkpt>
      <trkpt lat="47.02342" lon="8.90782">
        <ele>1116</ele>
        <time>2021-08-03T09:32:57.316Z</time>
      </trkpt>
      <trkpt lat="47.02342" lon="8.9078">
        <ele>1116</ele>
        <time>2021-08-03T09:32:58.316Z</time>
      </trkpt>
      <trkpt lat="47.02341" lon="8.90779">
        <ele>1116</ele>
        <time>2021-08-03T09:32:59.315Z</time>
      </trkpt>
      <trkpt lat="47.0234" lon="8.90778">
        <ele>1117</ele>
        <time>2021-08-03T09:33:00.316Z</time>
      </trkpt>
      <trkpt lat="47.0234" lon="8.90776">
        <ele>1117</ele>
        <time>2021-08-03T09:33:01.316Z</time>
      </trkpt>
      <trkpt lat="47.02339" lon="8.90775">
        <ele>1118</ele>
        <time>2021-08-03T09:33:02.316Z</time>
      </trkpt>
      <trkpt lat="47.02338" lon="8.90774">
        <ele>1118</ele>
        <time>2021-08-03T09:33:03.315Z</time>
      </trkpt>
      <trkpt lat="47.02337" lon="8.90773">
        <ele>1119</ele>
        <time>2021-08-03T09:33:04.316Z</time>
      </trkpt>
      <trkpt lat="47.02337" lon="8.90772">
        <ele>1119</ele>
        <time>2021-08-03T09:33:05.316Z</time>
      </trkpt>
      <trkpt lat="47.02336" lon="8.9077">
        <ele>1120</ele>
        <time>2021-08-03T09:33:06.316Z</time>
      </trkpt>
      <trkpt lat="47.02335" lon="8.90769">
        <ele>1120</ele>
        <time>2021-08-03T09:33:07.316Z</time>
      </trkpt>
      <trkpt lat="47.02333" lon="8.90767">
        <ele>1121</ele>
        <time>2021-08-03T09:33:08.316Z</time>
      </trkpt>
      <trkpt lat="47.02332" lon="8.90766">
        <ele>1121</ele>
        <time>2021-08-03T09:33:09.315Z</time>
      </trkpt>
      <trkpt lat="47.02332" lon="8.90766">
        <ele>1121</ele>
        <time>2021-08-03T09:33:10.316Z</time>
      </trkpt>
      <trkpt lat="47.02331" lon="8.90765">
        <ele>1122</ele>
        <time>2021-08-03T09:33:11.316Z</time>
      </trkpt>
      <trkpt lat="47.0233" lon="8.90764">
        <ele>1122</ele>
        <time>2021-08-03T09:33:12.315Z</time>
      </trkpt>
      <trkpt lat="47.02329" lon="8.90763">
        <ele>1123</ele>
        <time>2021-08-03T09:33:13.316Z</time>
      </trkpt>
      <trkpt lat="47.02329" lon="8.90762">
        <ele>1122</ele>
        <time>2021-08-03T09:33:14.316Z</time>
      </trkpt>
      <trkpt lat="47.02329" lon="8.90761">
        <ele>1122</ele>
        <time>2021-08-03T09:33:15.316Z</time>
      </trkpt>
      <trkpt lat="47.02328" lon="8.9076">
        <ele>1122</ele>
        <time>2021-08-03T09:33:16.315Z</time>
      </trkpt>
      <trkpt lat="47.02327" lon="8.90759">
        <ele>1123</ele>
        <time>2021-08-03T09:33:17.315Z</time>
      </trkpt>
      <trkpt lat="47.02326" lon="8.90758">
        <ele>1123</ele>
        <time>2021-08-03T09:33:18.315Z</time>
      </trkpt>
      <trkpt lat="47.02324" lon="8.90756">
        <ele>1122</ele>
        <time>2021-08-03T09:33:19.316Z</time>
      </trkpt>
      <trkpt lat="47.02324" lon="8.90755">
        <ele>1121</ele>
        <time>2021-08-03T09:33:20.316Z</time>
      </trkpt>
      <trkpt lat="47.02323" lon="8.90754">
        <ele>1120</ele>
        <time>2021-08-03T09:33:21.315Z</time>
      </trkpt>
      <trkpt lat="47.02323" lon="8.90754">
        <ele>1119</ele>
        <time>2021-08-03T09:33:22.315Z</time>
      </trkpt>
      <trkpt lat="47.02322" lon="8.90753">
        <ele>1119</ele>
        <time>2021-08-03T09:33:23.316Z</time>
      </trkpt>
      <trkpt lat="47.02322" lon="8.90751">
        <ele>1119</ele>
        <time>2021-08-03T09:33:24.316Z</time>
      </trkpt>
      <trkpt lat="47.02322" lon="8.9075">
        <ele>1119</ele>
        <time>2021-08-03T09:33:25.315Z</time>
      </trkpt>
      <trkpt lat="47.02321" lon="8.90748">
        <ele>1119</ele>
        <time>2021-08-03T09:33:26.316Z</time>
      </trkpt>
      <trkpt lat="47.0232" lon="8.90747">
        <ele>1119</ele>
        <time>2021-08-03T09:33:27.315Z</time>
      </trkpt>
      <trkpt lat="47.02319" lon="8.90746">
        <ele>1119</ele>
        <time>2021-08-03T09:33:28.315Z</time>
      </trkpt>
      <trkpt lat="47.02317" lon="8.90744">
        <ele>1119</ele>
        <time>2021-08-03T09:33:29.316Z</time>
      </trkpt>
      <trkpt lat="47.02316" lon="8.90741">
        <ele>1120</ele>
        <time>2021-08-03T09:33:30.316Z</time>
      </trkpt>
      <trkpt lat="47.02316" lon="8.90739">
        <ele>1120</ele>
        <time>2021-08-03T09:33:31.316Z</time>
      </trkpt>
      <trkpt lat="47.02315" lon="8.90737">
        <ele>1120</ele>
        <time>2021-08-03T09:33:32.316Z</time>
      </trkpt>
      <trkpt lat="47.02314" lon="8.90735">
        <ele>1120</ele>
        <time>2021-08-03T09:33:33.316Z</time>
      </trkpt>
      <trkpt lat="47.02313" lon="8.90734">
        <ele>1121</ele>
        <time>2021-08-03T09:33:34.316Z</time>
      </trkpt>
      <trkpt lat="47.02313" lon="8.90733">
        <ele>1121</ele>
        <time>2021-08-03T09:33:35.316Z</time>
      </trkpt>
      <trkpt lat="47.02312" lon="8.90731">
        <ele>1122</ele>
        <time>2021-08-03T09:33:36.316Z</time>
      </trkpt>
      <trkpt lat="47.02311" lon="8.9073">
        <ele>1122</ele>
        <time>2021-08-03T09:33:37.316Z</time>
      </trkpt>
      <trkpt lat="47.0231" lon="8.90729">
        <ele>1122</ele>
        <time>2021-08-03T09:33:38.316Z</time>
      </trkpt>
      <trkpt lat="47.02309" lon="8.90728">
        <ele>1122</ele>
        <time>2021-08-03T09:33:39.315Z</time>
      </trkpt>
      <trkpt lat="47.02309" lon="8.90727">
        <ele>1121</ele>
        <time>2021-08-03T09:33:40.316Z</time>
      </trkpt>
      <trkpt lat="47.02308" lon="8.90726">
        <ele>1121</ele>
        <time>2021-08-03T09:33:41.316Z</time>
      </trkpt>
      <trkpt lat="47.02308" lon="8.90725">
        <ele>1120</ele>
        <time>2021-08-03T09:33:42.316Z</time>
      </trkpt>
      <trkpt lat="47.02307" lon="8.90724">
        <ele>1120</ele>
        <time>2021-08-03T09:33:43.315Z</time>
      </trkpt>
      <trkpt lat="47.02306" lon="8.90723">
        <ele>1120</ele>
        <time>2021-08-03T09:33:44.315Z</time>
      </trkpt>
      <trkpt lat="47.02306" lon="8.90721">
        <ele>1121</ele>
        <time>2021-08-03T09:33:45.315Z</time>
      </trkpt>
      <trkpt lat="47.02305" lon="8.9072">
        <ele>1121</ele>
        <time>2021-08-03T09:33:46.315Z</time>
      </trkpt>
      <trkpt lat="47.02304" lon="8.90719">
        <ele>1122</ele>
        <time>2021-08-03T09:33:47.316Z</time>
      </trkpt>
      <trkpt lat="47.02303" lon="8.90718">
        <ele>1122</ele>
        <time>2021-08-03T09:33:48.316Z</time>
      </trkpt>
      <trkpt lat="47.02302" lon="8.90717">
        <ele>1122</ele>
        <time>2021-08-03T09:33:49.316Z</time>
      </trkpt>
      <trkpt lat="47.02301" lon="8.90717">
        <ele>1122</ele>
        <time>2021-08-03T09:33:50.316Z</time>
      </trkpt>
      <trkpt lat="47.02301" lon="8.90716">
        <ele>1122</ele>
        <time>2021-08-03T09:33:51.316Z</time>
      </trkpt>
      <trkpt lat="47.023" lon="8.90715">
        <ele>1123</ele>
        <time>2021-08-03T09:33:52.315Z</time>
      </trkpt>
      <trkpt lat="47.02299" lon="8.90715">
        <ele>1123</ele>
        <time>2021-08-03T09:33:53.316Z</time>
      </trkpt>
      <trkpt lat="47.02299" lon="8.90714">
        <ele>1124</ele>
        <time>2021-08-03T09:33:54.316Z</time>
      </trkpt>
      <trkpt lat="47.02299" lon="8.90713">
        <ele>1125</ele>
        <time>2021-08-03T09:33:55.315Z</time>
      </trkpt>
      <trkpt lat="47.02298" lon="8.90713">
        <ele>1125</ele>
        <time>2021-08-03T09:33:56.316Z</time>
      </trkpt>
      <trkpt lat="47.02297" lon="8.90711">
        <ele>1125</ele>
        <time>2021-08-03T09:33:57.315Z</time>
      </trkpt>
      <trkpt lat="47.02296" lon="8.90711">
        <ele>1126</ele>
        <time>2021-08-03T09:33:58.315Z</time>
      </trkpt>
      <trkpt lat="47.02296" lon="8.90712">
        <ele>1126</ele>
        <time>2021-08-03T09:33:59.315Z</time>
      </trkpt>
      <trkpt lat="47.02295" lon="8.90713">
        <ele>1126</ele>
        <time>2021-08-03T09:34:00.316Z</time>
      </trkpt>
      <trkpt lat="47.0229" lon="8.90721">
        <ele>1121</ele>
        <time>2021-08-03T09:34:01.317Z</time>
      </trkpt>
      <trkpt lat="47.0229" lon="8.90718">
        <ele>1121</ele>
        <time>2021-08-03T09:34:02.317Z</time>
      </trkpt>
      <trkpt lat="47.0229" lon="8.90716">
        <ele>1121</ele>
        <time>2021-08-03T09:34:03.318Z</time>
      </trkpt>
      <trkpt lat="47.0229" lon="8.90714">
        <ele>1120</ele>
        <time>2021-08-03T09:34:04.317Z</time>
      </trkpt>
      <trkpt lat="47.02289" lon="8.90713">
        <ele>1120</ele>
        <time>2021-08-03T09:34:05.318Z</time>
      </trkpt>
      <trkpt lat="47.02289" lon="8.90711">
        <ele>1120</ele>
        <time>2021-08-03T09:34:06.317Z</time>
      </trkpt>
      <trkpt lat="47.02288" lon="8.9071">
        <ele>1120</ele>
        <time>2021-08-03T09:34:07.317Z</time>
      </trkpt>
      <trkpt lat="47.02288" lon="8.90709">
        <ele>1120</ele>
        <time>2021-08-03T09:34:08.317Z</time>
      </trkpt>
      <trkpt lat="47.02288" lon="8.90707">
        <ele>1119</ele>
        <time>2021-08-03T09:34:09.318Z</time>
      </trkpt>
      <trkpt lat="47.02288" lon="8.90706">
        <ele>1119</ele>
        <time>2021-08-03T09:34:10.317Z</time>
      </trkpt>
      <trkpt lat="47.02287" lon="8.90705">
        <ele>1118</ele>
        <time>2021-08-03T09:34:11.318Z</time>
      </trkpt>
      <trkpt lat="47.02287" lon="8.90704">
        <ele>1118</ele>
        <time>2021-08-03T09:34:12.318Z</time>
      </trkpt>
      <trkpt lat="47.02286" lon="8.90702">
        <ele>1118</ele>
        <time>2021-08-03T09:34:13.318Z</time>
      </trkpt>
      <trkpt lat="47.02286" lon="8.90701">
        <ele>1118</ele>
        <time>2021-08-03T09:34:14.317Z</time>
      </trkpt>
      <trkpt lat="47.02285" lon="8.90699">
        <ele>1118</ele>
        <time>2021-08-03T09:34:15.317Z</time>
      </trkpt>
      <trkpt lat="47.02284" lon="8.90697">
        <ele>1118</ele>
        <time>2021-08-03T09:34:16.318Z</time>
      </trkpt>
      <trkpt lat="47.02284" lon="8.90694">
        <ele>1117</ele>
        <time>2021-08-03T09:34:17.318Z</time>
      </trkpt>
      <trkpt lat="47.02284" lon="8.90692">
        <ele>1117</ele>
        <time>2021-08-03T09:34:18.318Z</time>
      </trkpt>
      <trkpt lat="47.02284" lon="8.9069">
        <ele>1116</ele>
        <time>2021-08-03T09:34:19.317Z</time>
      </trkpt>
      <trkpt lat="47.02285" lon="8.90687">
        <ele>1116</ele>
        <time>2021-08-03T09:34:20.317Z</time>
      </trkpt>
      <trkpt lat="47.02285" lon="8.90685">
        <ele>1116</ele>
        <time>2021-08-03T09:34:21.318Z</time>
      </trkpt>
      <trkpt lat="47.02284" lon="8.90683">
        <ele>1117</ele>
        <time>2021-08-03T09:34:22.318Z</time>
      </trkpt>
      <trkpt lat="47.02284" lon="8.90682">
        <ele>1117</ele>
        <time>2021-08-03T09:34:23.317Z</time>
      </trkpt>
      <trkpt lat="47.02284" lon="8.9068">
        <ele>1118</ele>
        <time>2021-08-03T09:34:24.318Z</time>
      </trkpt>
      <trkpt lat="47.02284" lon="8.90678">
        <ele>1118</ele>
        <time>2021-08-03T09:34:25.317Z</time>
      </trkpt>
      <trkpt lat="47.02283" lon="8.90676">
        <ele>1119</ele>
        <time>2021-08-03T09:34:26.317Z</time>
      </trkpt>
      <trkpt lat="47.02283" lon="8.90674">
        <ele>1119</ele>
        <time>2021-08-03T09:34:27.318Z</time>
      </trkpt>
      <trkpt lat="47.02283" lon="8.90672">
        <ele>1120</ele>
        <time>2021-08-03T09:34:28.318Z</time>
      </trkpt>
      <trkpt lat="47.02283" lon="8.90669">
        <ele>1120</ele>
        <time>2021-08-03T09:34:29.318Z</time>
      </trkpt>
      <trkpt lat="47.02283" lon="8.90665">
        <ele>1121</ele>
        <time>2021-08-03T09:34:30.318Z</time>
      </trkpt>
      <trkpt lat="47.02283" lon="8.90663">
        <ele>1122</ele>
        <time>2021-08-03T09:34:31.318Z</time>
      </trkpt>
      <trkpt lat="47.02283" lon="8.90661">
        <ele>1122</ele>
        <time>2021-08-03T09:34:32.318Z</time>
      </trkpt>
      <trkpt lat="47.02283" lon="8.9066">
        <ele>1123</ele>
        <time>2021-08-03T09:34:33.317Z</time>
      </trkpt>
      <trkpt lat="47.02284" lon="8.90657">
        <ele>1123</ele>
        <time>2021-08-03T09:34:34.317Z</time>
      </trkpt>
      <trkpt lat="47.02285" lon="8.90655">
        <ele>1123</ele>
        <time>2021-08-03T09:34:35.317Z</time>
      </trkpt>
      <trkpt lat="47.02285" lon="8.90653">
        <ele>1123</ele>
        <time>2021-08-03T09:34:36.318Z</time>
      </trkpt>
      <trkpt lat="47.02285" lon="8.90652">
        <ele>1123</ele>
        <time>2021-08-03T09:34:37.318Z</time>
      </trkpt>
      <trkpt lat="47.02285" lon="8.9065">
        <ele>1123</ele>
        <time>2021-08-03T09:34:38.318Z</time>
      </trkpt>
      <trkpt lat="47.02285" lon="8.90649">
        <ele>1122</ele>
        <time>2021-08-03T09:34:39.317Z</time>
      </trkpt>
      <trkpt lat="47.02286" lon="8.90648">
        <ele>1122</ele>
        <time>2021-08-03T09:34:40.317Z</time>
      </trkpt>
      <trkpt lat="47.02286" lon="8.90646">
        <ele>1121</ele>
        <time>2021-08-03T09:34:41.318Z</time>
      </trkpt>
      <trkpt lat="47.02286" lon="8.90645">
        <ele>1121</ele>
        <time>2021-08-03T09:34:42.318Z</time>
      </trkpt>
      <trkpt lat="47.02286" lon="8.90644">
        <ele>1121</ele>
        <time>2021-08-03T09:34:43.317Z</time>
      </trkpt>
      <trkpt lat="47.02286" lon="8.90642">
        <ele>1120</ele>
        <time>2021-08-03T09:34:44.318Z</time>
      </trkpt>
      <trkpt lat="47.02287" lon="8.90641">
        <ele>1120</ele>
        <time>2021-08-03T09:34:45.317Z</time>
      </trkpt>
      <trkpt lat="47.02287" lon="8.90639">
        <ele>1119</ele>
        <time>2021-08-03T09:34:46.317Z</time>
      </trkpt>
      <trkpt lat="47.02288" lon="8.90637">
        <ele>1119</ele>
        <time>2021-08-03T09:34:47.318Z</time>
      </trkpt>
      <trkpt lat="47.02288" lon="8.90635">
        <ele>1119</ele>
        <time>2021-08-03T09:34:48.317Z</time>
      </trkpt>
      <trkpt lat="47.02289" lon="8.90633">
        <ele>1118</ele>
        <time>2021-08-03T09:34:49.317Z</time>
      </trkpt>
      <trkpt lat="47.02289" lon="8.90632">
        <ele>1117</ele>
        <time>2021-08-03T09:34:50.317Z</time>
      </trkpt>
      <trkpt lat="47.0229" lon="8.90631">
        <ele>1117</ele>
        <time>2021-08-03T09:34:51.317Z</time>
      </trkpt>
      <trkpt lat="47.0229" lon="8.90629">
        <ele>1117</ele>
        <time>2021-08-03T09:34:52.317Z</time>
      </trkpt>
      <trkpt lat="47.0229" lon="8.90627">
        <ele>1117</ele>
        <time>2021-08-03T09:34:53.317Z</time>
      </trkpt>
      <trkpt lat="47.0229" lon="8.90626">
        <ele>1117</ele>
        <time>2021-08-03T09:34:54.317Z</time>
      </trkpt>
      <trkpt lat="47.02292" lon="8.90624">
        <ele>1117</ele>
        <time>2021-08-03T09:34:55.317Z</time>
      </trkpt>
      <trkpt lat="47.02292" lon="8.90622">
        <ele>1117</ele>
        <time>2021-08-03T09:34:56.317Z</time>
      </trkpt>
      <trkpt lat="47.02292" lon="8.90621">
        <ele>1117</ele>
        <time>2021-08-03T09:34:57.317Z</time>
      </trkpt>
      <trkpt lat="47.02291" lon="8.9062">
        <ele>1118</ele>
        <time>2021-08-03T09:34:58.317Z</time>
      </trkpt>
      <trkpt lat="47.02291" lon="8.90618">
        <ele>1118</ele>
        <time>2021-08-03T09:34:59.317Z</time>
      </trkpt>
      <trkpt lat="47.02292" lon="8.90617">
        <ele>1117</ele>
        <time>2021-08-03T09:35:00.317Z</time>
      </trkpt>
      <trkpt lat="47.02292" lon="8.90616">
        <ele>1117</ele>
        <time>2021-08-03T09:35:01.317Z</time>
      </trkpt>
      <trkpt lat="47.02293" lon="8.90614">
        <ele>1117</ele>
        <time>2021-08-03T09:35:02.317Z</time>
      </trkpt>
      <trkpt lat="47.02293" lon="8.90612">
        <ele>1118</ele>
        <time>2021-08-03T09:35:03.317Z</time>
      </trkpt>
      <trkpt lat="47.02294" lon="8.9061">
        <ele>1118</ele>
        <time>2021-08-03T09:35:04.317Z</time>
      </trkpt>
      <trkpt lat="47.02294" lon="8.90608">
        <ele>1119</ele>
        <time>2021-08-03T09:35:05.317Z</time>
      </trkpt>
      <trkpt lat="47.02295" lon="8.90607">
        <ele>1119</ele>
        <time>2021-08-03T09:35:06.317Z</time>
      </trkpt>
      <trkpt lat="47.02295" lon="8.90605">
        <ele>1119</ele>
        <time>2021-08-03T09:35:07.317Z</time>
      </trkpt>
      <trkpt lat="47.02296" lon="8.90604">
        <ele>1119</ele>
        <time>2021-08-03T09:35:08.318Z</time>
      </trkpt>
      <trkpt lat="47.02296" lon="8.90602">
        <ele>1119</ele>
        <time>2021-08-03T09:35:09.317Z</time>
      </trkpt>
      <trkpt lat="47.02297" lon="8.90601">
        <ele>1118</ele>
        <time>2021-08-03T09:35:10.318Z</time>
      </trkpt>
      <trkpt lat="47.02297" lon="8.90599">
        <ele>1118</ele>
        <time>2021-08-03T09:35:11.317Z</time>
      </trkpt>
      <trkpt lat="47.02298" lon="8.90597">
        <ele>1118</ele>
        <time>2021-08-03T09:35:12.318Z</time>
      </trkpt>
      <trkpt lat="47.02298" lon="8.90596">
        <ele>1118</ele>
        <time>2021-08-03T09:35:13.318Z</time>
      </trkpt>
      <trkpt lat="47.02298" lon="8.90594">
        <ele>1119</ele>
        <time>2021-08-03T09:35:14.318Z</time>
      </trkpt>
      <trkpt lat="47.02298" lon="8.90593">
        <ele>1119</ele>
        <time>2021-08-03T09:35:15.318Z</time>
      </trkpt>
      <trkpt lat="47.02297" lon="8.90592">
        <ele>1119</ele>
        <time>2021-08-03T09:35:16.317Z</time>
      </trkpt>
      <trkpt lat="47.02297" lon="8.90591">
        <ele>1119</ele>
        <time>2021-08-03T09:35:17.317Z</time>
      </trkpt>
      <trkpt lat="47.02297" lon="8.90589">
        <ele>1119</ele>
        <time>2021-08-03T09:35:18.318Z</time>
      </trkpt>
      <trkpt lat="47.02297" lon="8.90587">
        <ele>1119</ele>
        <time>2021-08-03T09:35:19.318Z</time>
      </trkpt>
      <trkpt lat="47.02297" lon="8.90585">
        <ele>1119</ele>
        <time>2021-08-03T09:35:20.317Z</time>
      </trkpt>
      <trkpt lat="47.02297" lon="8.90584">
        <ele>1118</ele>
        <time>2021-08-03T09:35:21.317Z</time>
      </trkpt>
      <trkpt lat="47.02297" lon="8.90582">
        <ele>1119</ele>
        <time>2021-08-03T09:35:22.318Z</time>
      </trkpt>
      <trkpt lat="47.02298" lon="8.9058">
        <ele>1119</ele>
        <time>2021-08-03T09:35:23.317Z</time>
      </trkpt>
      <trkpt lat="47.02298" lon="8.90579">
        <ele>1119</ele>
        <time>2021-08-03T09:35:24.318Z</time>
      </trkpt>
      <trkpt lat="47.02298" lon="8.90578">
        <ele>1118</ele>
        <time>2021-08-03T09:35:25.318Z</time>
      </trkpt>
      <trkpt lat="47.02298" lon="8.90576">
        <ele>1118</ele>
        <time>2021-08-03T09:35:26.318Z</time>
      </trkpt>
      <trkpt lat="47.02298" lon="8.90574">
        <ele>1118</ele>
        <time>2021-08-03T09:35:27.317Z</time>
      </trkpt>
      <trkpt lat="47.02298" lon="8.90572">
        <ele>1117</ele>
        <time>2021-08-03T09:35:28.318Z</time>
      </trkpt>
      <trkpt lat="47.02298" lon="8.90571">
        <ele>1117</ele>
        <time>2021-08-03T09:35:29.317Z</time>
      </trkpt>
      <trkpt lat="47.02298" lon="8.90568">
        <ele>1117</ele>
        <time>2021-08-03T09:35:30.318Z</time>
      </trkpt>
      <trkpt lat="47.02298" lon="8.90566">
        <ele>1117</ele>
        <time>2021-08-03T09:35:31.318Z</time>
      </trkpt>
      <trkpt lat="47.02298" lon="8.90565">
        <ele>1118</ele>
        <time>2021-08-03T09:35:32.317Z</time>
      </trkpt>
      <trkpt lat="47.02298" lon="8.90563">
        <ele>1118</ele>
        <time>2021-08-03T09:35:33.318Z</time>
      </trkpt>
      <trkpt lat="47.02298" lon="8.90561">
        <ele>1119</ele>
        <time>2021-08-03T09:35:34.318Z</time>
      </trkpt>
      <trkpt lat="47.02298" lon="8.9056">
        <ele>1119</ele>
        <time>2021-08-03T09:35:35.318Z</time>
      </trkpt>
      <trkpt lat="47.02298" lon="8.90558">
        <ele>1119</ele>
        <time>2021-08-03T09:35:36.318Z</time>
      </trkpt>
      <trkpt lat="47.02298" lon="8.90557">
        <ele>1119</ele>
        <time>2021-08-03T09:35:37.318Z</time>
      </trkpt>
      <trkpt lat="47.02298" lon="8.90555">
        <ele>1119</ele>
        <time>2021-08-03T09:35:38.318Z</time>
      </trkpt>
      <trkpt lat="47.02298" lon="8.90554">
        <ele>1119</ele>
        <time>2021-08-03T09:35:39.318Z</time>
      </trkpt>
      <trkpt lat="47.02298" lon="8.90552">
        <ele>1119</ele>
        <time>2021-08-03T09:35:40.317Z</time>
      </trkpt>
      <trkpt lat="47.02298" lon="8.9055">
        <ele>1119</ele>
        <time>2021-08-03T09:35:41.318Z</time>
      </trkpt>
      <trkpt lat="47.02298" lon="8.90549">
        <ele>1120</ele>
        <time>2021-08-03T09:35:42.318Z</time>
      </trkpt>
      <trkpt lat="47.02298" lon="8.90547">
        <ele>1120</ele>
        <time>2021-08-03T09:35:43.317Z</time>
      </trkpt>
      <trkpt lat="47.02298" lon="8.90545">
        <ele>1121</ele>
        <time>2021-08-03T09:35:44.318Z</time>
      </trkpt>
      <trkpt lat="47.02298" lon="8.90543">
        <ele>1121</ele>
        <time>2021-08-03T09:35:45.318Z</time>
      </trkpt>
      <trkpt lat="47.02298" lon="8.90541">
        <ele>1122</ele>
        <time>2021-08-03T09:35:46.318Z</time>
      </trkpt>
      <trkpt lat="47.02297" lon="8.90539">
        <ele>1122</ele>
        <time>2021-08-03T09:35:47.318Z</time>
      </trkpt>
      <trkpt lat="47.02297" lon="8.90537">
        <ele>1122</ele>
        <time>2021-08-03T09:35:48.318Z</time>
      </trkpt>
      <trkpt lat="47.02297" lon="8.90536">
        <ele>1122</ele>
        <time>2021-08-03T09:35:49.318Z</time>
      </trkpt>
      <trkpt lat="47.02297" lon="8.90535">
        <ele>1122</ele>
        <time>2021-08-03T09:35:50.318Z</time>
      </trkpt>
      <trkpt lat="47.02297" lon="8.90533">
        <ele>1122</ele>
        <time>2021-08-03T09:35:51.317Z</time>
      </trkpt>
      <trkpt lat="47.02297" lon="8.90531">
        <ele>1122</ele>
        <time>2021-08-03T09:35:52.317Z</time>
      </trkpt>
      <trkpt lat="47.02296" lon="8.9053">
        <ele>1122</ele>
        <time>2021-08-03T09:35:53.318Z</time>
      </trkpt>
      <trkpt lat="47.02296" lon="8.90528">
        <ele>1122</ele>
        <time>2021-08-03T09:35:54.318Z</time>
      </trkpt>
      <trkpt lat="47.02296" lon="8.90526">
        <ele>1122</ele>
        <time>2021-08-03T09:35:55.318Z</time>
      </trkpt>
      <trkpt lat="47.02295" lon="8.90525">
        <ele>1122</ele>
        <time>2021-08-03T09:35:56.317Z</time>
      </trkpt>
      <trkpt lat="47.02295" lon="8.90523">
        <ele>1123</ele>
        <time>2021-08-03T09:35:57.317Z</time>
      </trkpt>
      <trkpt lat="47.02294" lon="8.90522">
        <ele>1123</ele>
        <time>2021-08-03T09:35:58.318Z</time>
      </trkpt>
      <trkpt lat="47.02294" lon="8.9052">
        <ele>1123</ele>
        <time>2021-08-03T09:35:59.318Z</time>
      </trkpt>
      <trkpt lat="47.02294" lon="8.90518">
        <ele>1124</ele>
        <time>2021-08-03T09:36:00.317Z</time>
      </trkpt>
      <trkpt lat="47.02293" lon="8.90516">
        <ele>1124</ele>
        <time>2021-08-03T09:36:01.318Z</time>
      </trkpt>
      <trkpt lat="47.02293" lon="8.90514">
        <ele>1124</ele>
        <time>2021-08-03T09:36:02.317Z</time>
      </trkpt>
      <trkpt lat="47.02293" lon="8.90513">
        <ele>1124</ele>
        <time>2021-08-03T09:36:03.317Z</time>
      </trkpt>
      <trkpt lat="47.02293" lon="8.90511">
        <ele>1124</ele>
        <time>2021-08-03T09:36:04.318Z</time>
      </trkpt>
      <trkpt lat="47.02293" lon="8.9051">
        <ele>1124</ele>
        <time>2021-08-03T09:36:05.318Z</time>
      </trkpt>
      <trkpt lat="47.02293" lon="8.90508">
        <ele>1124</ele>
        <time>2021-08-03T09:36:06.317Z</time>
      </trkpt>
      <trkpt lat="47.02292" lon="8.90506">
        <ele>1123</ele>
        <time>2021-08-03T09:36:07.318Z</time>
      </trkpt>
      <trkpt lat="47.02292" lon="8.90505">
        <ele>1123</ele>
        <time>2021-08-03T09:36:08.318Z</time>
      </trkpt>
      <trkpt lat="47.02291" lon="8.90503">
        <ele>1122</ele>
        <time>2021-08-03T09:36:09.318Z</time>
      </trkpt>
      <trkpt lat="47.02291" lon="8.90502">
        <ele>1122</ele>
        <time>2021-08-03T09:36:10.317Z</time>
      </trkpt>
      <trkpt lat="47.02291" lon="8.905">
        <ele>1122</ele>
        <time>2021-08-03T09:36:11.317Z</time>
      </trkpt>
      <trkpt lat="47.02291" lon="8.90499">
        <ele>1122</ele>
        <time>2021-08-03T09:36:12.317Z</time>
      </trkpt>
      <trkpt lat="47.0229" lon="8.90498">
        <ele>1122</ele>
        <time>2021-08-03T09:36:13.318Z</time>
      </trkpt>
      <trkpt lat="47.0229" lon="8.90496">
        <ele>1122</ele>
        <time>2021-08-03T09:36:14.318Z</time>
      </trkpt>
      <trkpt lat="47.02289" lon="8.90494">
        <ele>1122</ele>
        <time>2021-08-03T09:36:15.318Z</time>
      </trkpt>
      <trkpt lat="47.02289" lon="8.90492">
        <ele>1122</ele>
        <time>2021-08-03T09:36:16.318Z</time>
      </trkpt>
      <trkpt lat="47.02289" lon="8.90491">
        <ele>1123</ele>
        <time>2021-08-03T09:36:17.318Z</time>
      </trkpt>
      <trkpt lat="47.02289" lon="8.90489">
        <ele>1122</ele>
        <time>2021-08-03T09:36:18.318Z</time>
      </trkpt>
      <trkpt lat="47.02289" lon="8.90488">
        <ele>1122</ele>
        <time>2021-08-03T09:36:19.318Z</time>
      </trkpt>
      <trkpt lat="47.02289" lon="8.90486">
        <ele>1123</ele>
        <time>2021-08-03T09:36:20.318Z</time>
      </trkpt>
      <trkpt lat="47.02288" lon="8.90485">
        <ele>1123</ele>
        <time>2021-08-03T09:36:21.318Z</time>
      </trkpt>
      <trkpt lat="47.02288" lon="8.90483">
        <ele>1123</ele>
        <time>2021-08-03T09:36:22.318Z</time>
      </trkpt>
      <trkpt lat="47.02288" lon="8.90482">
        <ele>1122</ele>
        <time>2021-08-03T09:36:23.318Z</time>
      </trkpt>
      <trkpt lat="47.02288" lon="8.9048">
        <ele>1122</ele>
        <time>2021-08-03T09:36:24.318Z</time>
      </trkpt>
      <trkpt lat="47.02288" lon="8.90478">
        <ele>1122</ele>
        <time>2021-08-03T09:36:25.317Z</time>
      </trkpt>
      <trkpt lat="47.02288" lon="8.90477">
        <ele>1122</ele>
        <time>2021-08-03T09:36:26.318Z</time>
      </trkpt>
      <trkpt lat="47.02287" lon="8.90475">
        <ele>1122</ele>
        <time>2021-08-03T09:36:27.318Z</time>
      </trkpt>
      <trkpt lat="47.02286" lon="8.90474">
        <ele>1121</ele>
        <time>2021-08-03T09:36:28.318Z</time>
      </trkpt>
      <trkpt lat="47.02286" lon="8.90473">
        <ele>1121</ele>
        <time>2021-08-03T09:36:29.318Z</time>
      </trkpt>
      <trkpt lat="47.02285" lon="8.90471">
        <ele>1121</ele>
        <time>2021-08-03T09:36:30.318Z</time>
      </trkpt>
      <trkpt lat="47.02284" lon="8.9047">
        <ele>1121</ele>
        <time>2021-08-03T09:36:31.318Z</time>
      </trkpt>
      <trkpt lat="47.02284" lon="8.90468">
        <ele>1122</ele>
        <time>2021-08-03T09:36:32.318Z</time>
      </trkpt>
      <trkpt lat="47.02284" lon="8.90467">
        <ele>1122</ele>
        <time>2021-08-03T09:36:33.318Z</time>
      </trkpt>
      <trkpt lat="47.02283" lon="8.90466">
        <ele>1122</ele>
        <time>2021-08-03T09:36:34.317Z</time>
      </trkpt>
      <trkpt lat="47.02282" lon="8.90464">
        <ele>1123</ele>
        <time>2021-08-03T09:36:35.318Z</time>
      </trkpt>
      <trkpt lat="47.02282" lon="8.90463">
        <ele>1123</ele>
        <time>2021-08-03T09:36:36.318Z</time>
      </trkpt>
      <trkpt lat="47.02281" lon="8.90462">
        <ele>1124</ele>
        <time>2021-08-03T09:36:37.318Z</time>
      </trkpt>
      <trkpt lat="47.0228" lon="8.90461">
        <ele>1123</ele>
        <time>2021-08-03T09:36:38.317Z</time>
      </trkpt>
      <trkpt lat="47.02279" lon="8.90459">
        <ele>1123</ele>
        <time>2021-08-03T09:36:39.317Z</time>
      </trkpt>
      <trkpt lat="47.02279" lon="8.90458">
        <ele>1123</ele>
        <time>2021-08-03T09:36:40.318Z</time>
      </trkpt>
      <trkpt lat="47.02278" lon="8.90457">
        <ele>1123</ele>
        <time>2021-08-03T09:36:41.317Z</time>
      </trkpt>
      <trkpt lat="47.02277" lon="8.90456">
        <ele>1124</ele>
        <time>2021-08-03T09:36:42.317Z</time>
      </trkpt>
      <trkpt lat="47.02277" lon="8.90454">
        <ele>1124</ele>
        <time>2021-08-03T09:36:43.318Z</time>
      </trkpt>
      <trkpt lat="47.02276" lon="8.90452">
        <ele>1125</ele>
        <time>2021-08-03T09:36:44.318Z</time>
      </trkpt>
      <trkpt lat="47.02275" lon="8.90451">
        <ele>1126</ele>
        <time>2021-08-03T09:36:45.318Z</time>
      </trkpt>
      <trkpt lat="47.02274" lon="8.90449">
        <ele>1127</ele>
        <time>2021-08-03T09:36:46.318Z</time>
      </trkpt>
      <trkpt lat="47.02273" lon="8.90447">
        <ele>1128</ele>
        <time>2021-08-03T09:36:47.318Z</time>
      </trkpt>
      <trkpt lat="47.02273" lon="8.90446">
        <ele>1129</ele>
        <time>2021-08-03T09:36:48.318Z</time>
      </trkpt>
      <trkpt lat="47.02272" lon="8.90444">
        <ele>1130</ele>
        <time>2021-08-03T09:36:49.318Z</time>
      </trkpt>
      <trkpt lat="47.02272" lon="8.90443">
        <ele>1130</ele>
        <time>2021-08-03T09:36:50.318Z</time>
      </trkpt>
      <trkpt lat="47.02272" lon="8.90441">
        <ele>1131</ele>
        <time>2021-08-03T09:36:51.318Z</time>
      </trkpt>
      <trkpt lat="47.02272" lon="8.90438">
        <ele>1131</ele>
        <time>2021-08-03T09:36:52.317Z</time>
      </trkpt>
      <trkpt lat="47.02272" lon="8.90436">
        <ele>1131</ele>
        <time>2021-08-03T09:36:53.317Z</time>
      </trkpt>
      <trkpt lat="47.02271" lon="8.90434">
        <ele>1131</ele>
        <time>2021-08-03T09:36:54.318Z</time>
      </trkpt>
      <trkpt lat="47.0227" lon="8.90433">
        <ele>1131</ele>
        <time>2021-08-03T09:36:55.317Z</time>
      </trkpt>
      <trkpt lat="47.0227" lon="8.90432">
        <ele>1131</ele>
        <time>2021-08-03T09:36:56.317Z</time>
      </trkpt>
      <trkpt lat="47.02269" lon="8.9043">
        <ele>1132</ele>
        <time>2021-08-03T09:36:57.317Z</time>
      </trkpt>
      <trkpt lat="47.02269" lon="8.90429">
        <ele>1132</ele>
        <time>2021-08-03T09:36:58.317Z</time>
      </trkpt>
      <trkpt lat="47.02268" lon="8.90427">
        <ele>1133</ele>
        <time>2021-08-03T09:36:59.317Z</time>
      </trkpt>
      <trkpt lat="47.02267" lon="8.90426">
        <ele>1133</ele>
        <time>2021-08-03T09:37:00.317Z</time>
      </trkpt>
      <trkpt lat="47.02267" lon="8.90425">
        <ele>1133</ele>
        <time>2021-08-03T09:37:01.318Z</time>
      </trkpt>
      <trkpt lat="47.02266" lon="8.90425">
        <ele>1133</ele>
        <time>2021-08-03T09:37:02.318Z</time>
      </trkpt>
      <trkpt lat="47.02266" lon="8.90424">
        <ele>1133</ele>
        <time>2021-08-03T09:37:03.317Z</time>
      </trkpt>
      <trkpt lat="47.02265" lon="8.90423">
        <ele>1133</ele>
        <time>2021-08-03T09:37:04.318Z</time>
      </trkpt>
      <trkpt lat="47.02265" lon="8.90423">
        <ele>1134</ele>
        <time>2021-08-03T09:37:05.318Z</time>
      </trkpt>
      <trkpt lat="47.02265" lon="8.90422">
        <ele>1134</ele>
        <time>2021-08-03T09:37:06.318Z</time>
      </trkpt>
      <trkpt lat="47.02264" lon="8.90421">
        <ele>1134</ele>
        <time>2021-08-03T09:37:07.317Z</time>
      </trkpt>
      <trkpt lat="47.02263" lon="8.9042">
        <ele>1134</ele>
        <time>2021-08-03T09:37:08.318Z</time>
      </trkpt>
      <trkpt lat="47.02263" lon="8.90419">
        <ele>1134</ele>
        <time>2021-08-03T09:37:09.318Z</time>
      </trkpt>
      <trkpt lat="47.02263" lon="8.90418">
        <ele>1134</ele>
        <time>2021-08-03T09:37:10.318Z</time>
      </trkpt>
      <trkpt lat="47.02263" lon="8.90417">
        <ele>1133</ele>
        <time>2021-08-03T09:37:11.317Z</time>
      </trkpt>
      <trkpt lat="47.02263" lon="8.90416">
        <ele>1133</ele>
        <time>2021-08-03T09:37:12.318Z</time>
      </trkpt>
      <trkpt lat="47.02262" lon="8.90416">
        <ele>1133</ele>
        <time>2021-08-03T09:37:13.318Z</time>
      </trkpt>
      <trkpt lat="47.02262" lon="8.90415">
        <ele>1133</ele>
        <time>2021-08-03T09:37:14.318Z</time>
      </trkpt>
      <trkpt lat="47.02261" lon="8.90414">
        <ele>1133</ele>
        <time>2021-08-03T09:37:15.317Z</time>
      </trkpt>
      <trkpt lat="47.02261" lon="8.90412">
        <ele>1133</ele>
        <time>2021-08-03T09:37:16.318Z</time>
      </trkpt>
      <trkpt lat="47.0226" lon="8.90411">
        <ele>1133</ele>
        <time>2021-08-03T09:37:17.318Z</time>
      </trkpt>
      <trkpt lat="47.0226" lon="8.9041">
        <ele>1133</ele>
        <time>2021-08-03T09:37:18.317Z</time>
      </trkpt>
      <trkpt lat="47.0226" lon="8.90407">
        <ele>1133</ele>
        <time>2021-08-03T09:37:19.317Z</time>
      </trkpt>
      <trkpt lat="47.02259" lon="8.90406">
        <ele>1133</ele>
        <time>2021-08-03T09:37:20.317Z</time>
      </trkpt>
      <trkpt lat="47.02259" lon="8.90405">
        <ele>1133</ele>
        <time>2021-08-03T09:37:21.317Z</time>
      </trkpt>
      <trkpt lat="47.02258" lon="8.90404">
        <ele>1133</ele>
        <time>2021-08-03T09:37:22.318Z</time>
      </trkpt>
      <trkpt lat="47.02257" lon="8.90403">
        <ele>1133</ele>
        <time>2021-08-03T09:37:23.317Z</time>
      </trkpt>
      <trkpt lat="47.02257" lon="8.90402">
        <ele>1133</ele>
        <time>2021-08-03T09:37:24.318Z</time>
      </trkpt>
      <trkpt lat="47.02256" lon="8.90401">
        <ele>1133</ele>
        <time>2021-08-03T09:37:25.317Z</time>
      </trkpt>
      <trkpt lat="47.02256" lon="8.904">
        <ele>1133</ele>
        <time>2021-08-03T09:37:26.318Z</time>
      </trkpt>
      <trkpt lat="47.02256" lon="8.90398">
        <ele>1132</ele>
        <time>2021-08-03T09:37:27.318Z</time>
      </trkpt>
      <trkpt lat="47.02255" lon="8.90397">
        <ele>1132</ele>
        <time>2021-08-03T09:37:28.318Z</time>
      </trkpt>
      <trkpt lat="47.02255" lon="8.90395">
        <ele>1131</ele>
        <time>2021-08-03T09:37:29.318Z</time>
      </trkpt>
      <trkpt lat="47.02255" lon="8.90394">
        <ele>1131</ele>
        <time>2021-08-03T09:37:30.318Z</time>
      </trkpt>
      <trkpt lat="47.02254" lon="8.90392">
        <ele>1131</ele>
        <time>2021-08-03T09:37:31.317Z</time>
      </trkpt>
      <trkpt lat="47.02254" lon="8.90391">
        <ele>1131</ele>
        <time>2021-08-03T09:37:32.318Z</time>
      </trkpt>
      <trkpt lat="47.02254" lon="8.90389">
        <ele>1131</ele>
        <time>2021-08-03T09:37:33.318Z</time>
      </trkpt>
      <trkpt lat="47.02254" lon="8.90388">
        <ele>1130</ele>
        <time>2021-08-03T09:37:34.317Z</time>
      </trkpt>
      <trkpt lat="47.02254" lon="8.90387">
        <ele>1130</ele>
        <time>2021-08-03T09:37:35.317Z</time>
      </trkpt>
      <trkpt lat="47.02253" lon="8.90385">
        <ele>1130</ele>
        <time>2021-08-03T09:37:36.318Z</time>
      </trkpt>
      <trkpt lat="47.02253" lon="8.90384">
        <ele>1130</ele>
        <time>2021-08-03T09:37:37.317Z</time>
      </trkpt>
      <trkpt lat="47.02252" lon="8.90383">
        <ele>1131</ele>
        <time>2021-08-03T09:37:38.317Z</time>
      </trkpt>
      <trkpt lat="47.02251" lon="8.90379">
        <ele>1130</ele>
        <time>2021-08-03T09:37:39.317Z</time>
      </trkpt>
      <trkpt lat="47.02249" lon="8.90378">
        <ele>1131</ele>
        <time>2021-08-03T09:37:40.318Z</time>
      </trkpt>
      <trkpt lat="47.02248" lon="8.90377">
        <ele>1131</ele>
        <time>2021-08-03T09:37:41.318Z</time>
      </trkpt>
      <trkpt lat="47.02248" lon="8.90375">
        <ele>1131</ele>
        <time>2021-08-03T09:37:42.317Z</time>
      </trkpt>
      <trkpt lat="47.02248" lon="8.90373">
        <ele>1131</ele>
        <time>2021-08-03T09:37:43.317Z</time>
      </trkpt>
      <trkpt lat="47.02248" lon="8.90371">
        <ele>1131</ele>
        <time>2021-08-03T09:37:44.318Z</time>
      </trkpt>
      <trkpt lat="47.02247" lon="8.90369">
        <ele>1131</ele>
        <time>2021-08-03T09:37:45.317Z</time>
      </trkpt>
      <trkpt lat="47.02247" lon="8.90368">
        <ele>1131</ele>
        <time>2021-08-03T09:37:46.318Z</time>
      </trkpt>
      <trkpt lat="47.02246" lon="8.90366">
        <ele>1132</ele>
        <time>2021-08-03T09:37:47.318Z</time>
      </trkpt>
      <trkpt lat="47.02245" lon="8.90365">
        <ele>1132</ele>
        <time>2021-08-03T09:37:48.318Z</time>
      </trkpt>
      <trkpt lat="47.02244" lon="8.90364">
        <ele>1133</ele>
        <time>2021-08-03T09:37:49.318Z</time>
      </trkpt>
      <trkpt lat="47.02244" lon="8.90363">
        <ele>1133</ele>
        <time>2021-08-03T09:37:50.318Z</time>
      </trkpt>
      <trkpt lat="47.02243" lon="8.90363">
        <ele>1133</ele>
        <time>2021-08-03T09:37:51.318Z</time>
      </trkpt>
      <trkpt lat="47.02243" lon="8.90362">
        <ele>1133</ele>
        <time>2021-08-03T09:37:52.318Z</time>
      </trkpt>
      <trkpt lat="47.02242" lon="8.9036">
        <ele>1133</ele>
        <time>2021-08-03T09:37:53.318Z</time>
      </trkpt>
      <trkpt lat="47.02242" lon="8.90359">
        <ele>1134</ele>
        <time>2021-08-03T09:37:54.317Z</time>
      </trkpt>
      <trkpt lat="47.02241" lon="8.90357">
        <ele>1134</ele>
        <time>2021-08-03T09:37:55.318Z</time>
      </trkpt>
      <trkpt lat="47.02241" lon="8.90356">
        <ele>1134</ele>
        <time>2021-08-03T09:37:56.318Z</time>
      </trkpt>
      <trkpt lat="47.0224" lon="8.90355">
        <ele>1134</ele>
        <time>2021-08-03T09:37:57.318Z</time>
      </trkpt>
      <trkpt lat="47.02239" lon="8.90353">
        <ele>1134</ele>
        <time>2021-08-03T09:37:58.318Z</time>
      </trkpt>
      <trkpt lat="47.02239" lon="8.90352">
        <ele>1134</ele>
        <time>2021-08-03T09:37:59.318Z</time>
      </trkpt>
      <trkpt lat="47.02238" lon="8.90351">
        <ele>1133</ele>
        <time>2021-08-03T09:38:00.318Z</time>
      </trkpt>
      <trkpt lat="47.02238" lon="8.9035">
        <ele>1133</ele>
        <time>2021-08-03T09:38:01.317Z</time>
      </trkpt>
      <trkpt lat="47.02237" lon="8.90348">
        <ele>1132</ele>
        <time>2021-08-03T09:38:02.317Z</time>
      </trkpt>
      <trkpt lat="47.02236" lon="8.90346">
        <ele>1132</ele>
        <time>2021-08-03T09:38:03.317Z</time>
      </trkpt>
      <trkpt lat="47.02235" lon="8.90344">
        <ele>1132</ele>
        <time>2021-08-03T09:38:04.318Z</time>
      </trkpt>
      <trkpt lat="47.02235" lon="8.90342">
        <ele>1133</ele>
        <time>2021-08-03T09:38:05.318Z</time>
      </trkpt>
      <trkpt lat="47.02234" lon="8.9034">
        <ele>1133</ele>
        <time>2021-08-03T09:38:06.318Z</time>
      </trkpt>
      <trkpt lat="47.02234" lon="8.90339">
        <ele>1134</ele>
        <time>2021-08-03T09:38:07.318Z</time>
      </trkpt>
      <trkpt lat="47.02233" lon="8.90337">
        <ele>1134</ele>
        <time>2021-08-03T09:38:08.318Z</time>
      </trkpt>
      <trkpt lat="47.02233" lon="8.90336">
        <ele>1133</ele>
        <time>2021-08-03T09:38:09.318Z</time>
      </trkpt>
      <trkpt lat="47.02233" lon="8.90335">
        <ele>1132</ele>
        <time>2021-08-03T09:38:10.318Z</time>
      </trkpt>
      <trkpt lat="47.02233" lon="8.90334">
        <ele>1131</ele>
        <time>2021-08-03T09:38:11.317Z</time>
      </trkpt>
      <trkpt lat="47.02233" lon="8.90332">
        <ele>1130</ele>
        <time>2021-08-03T09:38:12.318Z</time>
      </trkpt>
      <trkpt lat="47.02234" lon="8.9033">
        <ele>1130</ele>
        <time>2021-08-03T09:38:13.318Z</time>
      </trkpt>
      <trkpt lat="47.02234" lon="8.90328">
        <ele>1130</ele>
        <time>2021-08-03T09:38:14.318Z</time>
      </trkpt>
      <trkpt lat="47.02234" lon="8.90327">
        <ele>1130</ele>
        <time>2021-08-03T09:38:15.318Z</time>
      </trkpt>
      <trkpt lat="47.02234" lon="8.90325">
        <ele>1130</ele>
        <time>2021-08-03T09:38:16.318Z</time>
      </trkpt>
      <trkpt lat="47.02234" lon="8.90324">
        <ele>1130</ele>
        <time>2021-08-03T09:38:17.318Z</time>
      </trkpt>
      <trkpt lat="47.02233" lon="8.90323">
        <ele>1130</ele>
        <time>2021-08-03T09:38:18.318Z</time>
      </trkpt>
      <trkpt lat="47.02233" lon="8.90321">
        <ele>1130</ele>
        <time>2021-08-03T09:38:19.318Z</time>
      </trkpt>
      <trkpt lat="47.02233" lon="8.9032">
        <ele>1130</ele>
        <time>2021-08-03T09:38:20.317Z</time>
      </trkpt>
      <trkpt lat="47.02233" lon="8.90318">
        <ele>1130</ele>
        <time>2021-08-03T09:38:21.317Z</time>
      </trkpt>
      <trkpt lat="47.02232" lon="8.90317">
        <ele>1130</ele>
        <time>2021-08-03T09:38:22.317Z</time>
      </trkpt>
      <trkpt lat="47.02231" lon="8.90318">
        <ele>1131</ele>
        <time>2021-08-03T09:38:23.318Z</time>
      </trkpt>
      <trkpt lat="47.02231" lon="8.90317">
        <ele>1131</ele>
        <time>2021-08-03T09:38:24.318Z</time>
      </trkpt>
      <trkpt lat="47.02231" lon="8.90315">
        <ele>1131</ele>
        <time>2021-08-03T09:38:25.318Z</time>
      </trkpt>
      <trkpt lat="47.02231" lon="8.90314">
        <ele>1131</ele>
        <time>2021-08-03T09:38:26.317Z</time>
      </trkpt>
      <trkpt lat="47.02231" lon="8.90312">
        <ele>1131</ele>
        <time>2021-08-03T09:38:27.318Z</time>
      </trkpt>
      <trkpt lat="47.02231" lon="8.9031">
        <ele>1130</ele>
        <time>2021-08-03T09:38:28.318Z</time>
      </trkpt>
      <trkpt lat="47.02231" lon="8.9031">
        <ele>1130</ele>
        <time>2021-08-03T09:38:29.318Z</time>
      </trkpt>
      <trkpt lat="47.02231" lon="8.9031">
        <ele>1129</ele>
        <time>2021-08-03T09:38:30.317Z</time>
      </trkpt>
      <trkpt lat="47.02231" lon="8.90309">
        <ele>1129</ele>
        <time>2021-08-03T09:38:31.318Z</time>
      </trkpt>
      <trkpt lat="47.02231" lon="8.90309">
        <ele>1128</ele>
        <time>2021-08-03T09:38:32.318Z</time>
      </trkpt>
      <trkpt lat="47.02229" lon="8.90306">
        <ele>1128</ele>
        <time>2021-08-03T09:38:33.317Z</time>
      </trkpt>
      <trkpt lat="47.02229" lon="8.90304">
        <ele>1128</ele>
        <time>2021-08-03T09:38:34.317Z</time>
      </trkpt>
      <trkpt lat="47.02229" lon="8.90303">
        <ele>1127</ele>
        <time>2021-08-03T09:38:35.317Z</time>
      </trkpt>
      <trkpt lat="47.02229" lon="8.90301">
        <ele>1127</ele>
        <time>2021-08-03T09:38:36.318Z</time>
      </trkpt>
      <trkpt lat="47.02229" lon="8.90299">
        <ele>1127</ele>
        <time>2021-08-03T09:38:37.317Z</time>
      </trkpt>
      <trkpt lat="47.02229" lon="8.90298">
        <ele>1126</ele>
        <time>2021-08-03T09:38:38.317Z</time>
      </trkpt>
      <trkpt lat="47.02229" lon="8.90296">
        <ele>1126</ele>
        <time>2021-08-03T09:38:39.317Z</time>
      </trkpt>
      <trkpt lat="47.02229" lon="8.90294">
        <ele>1126</ele>
        <time>2021-08-03T09:38:40.317Z</time>
      </trkpt>
      <trkpt lat="47.02229" lon="8.90293">
        <ele>1126</ele>
        <time>2021-08-03T09:38:41.317Z</time>
      </trkpt>
      <trkpt lat="47.02229" lon="8.90291">
        <ele>1125</ele>
        <time>2021-08-03T09:38:42.317Z</time>
      </trkpt>
      <trkpt lat="47.02228" lon="8.9029">
        <ele>1125</ele>
        <time>2021-08-03T09:38:43.318Z</time>
      </trkpt>
      <trkpt lat="47.02227" lon="8.90289">
        <ele>1125</ele>
        <time>2021-08-03T09:38:44.317Z</time>
      </trkpt>
      <trkpt lat="47.02227" lon="8.90287">
        <ele>1125</ele>
        <time>2021-08-03T09:38:45.318Z</time>
      </trkpt>
      <trkpt lat="47.02227" lon="8.90285">
        <ele>1125</ele>
        <time>2021-08-03T09:38:46.317Z</time>
      </trkpt>
      <trkpt lat="47.02227" lon="8.90283">
        <ele>1126</ele>
        <time>2021-08-03T09:38:47.317Z</time>
      </trkpt>
      <trkpt lat="47.02227" lon="8.90281">
        <ele>1126</ele>
        <time>2021-08-03T09:38:48.317Z</time>
      </trkpt>
      <trkpt lat="47.02226" lon="8.9028">
        <ele>1127</ele>
        <time>2021-08-03T09:38:49.317Z</time>
      </trkpt>
      <trkpt lat="47.02226" lon="8.90278">
        <ele>1127</ele>
        <time>2021-08-03T09:38:50.317Z</time>
      </trkpt>
      <trkpt lat="47.02226" lon="8.90277">
        <ele>1127</ele>
        <time>2021-08-03T09:38:51.318Z</time>
      </trkpt>
      <trkpt lat="47.02226" lon="8.90275">
        <ele>1127</ele>
        <time>2021-08-03T09:38:52.318Z</time>
      </trkpt>
      <trkpt lat="47.02226" lon="8.90273">
        <ele>1127</ele>
        <time>2021-08-03T09:38:53.317Z</time>
      </trkpt>
      <trkpt lat="47.02226" lon="8.90271">
        <ele>1127</ele>
        <time>2021-08-03T09:38:54.318Z</time>
      </trkpt>
      <trkpt lat="47.02226" lon="8.90269">
        <ele>1127</ele>
        <time>2021-08-03T09:38:55.318Z</time>
      </trkpt>
      <trkpt lat="47.02226" lon="8.90267">
        <ele>1126</ele>
        <time>2021-08-03T09:38:56.317Z</time>
      </trkpt>
      <trkpt lat="47.02226" lon="8.90265">
        <ele>1126</ele>
        <time>2021-08-03T09:38:57.318Z</time>
      </trkpt>
      <trkpt lat="47.02226" lon="8.90263">
        <ele>1126</ele>
        <time>2021-08-03T09:38:58.317Z</time>
      </trkpt>
      <trkpt lat="47.02226" lon="8.90261">
        <ele>1126</ele>
        <time>2021-08-03T09:38:59.317Z</time>
      </trkpt>
      <trkpt lat="47.02226" lon="8.9026">
        <ele>1126</ele>
        <time>2021-08-03T09:39:00.317Z</time>
      </trkpt>
      <trkpt lat="47.02226" lon="8.90258">
        <ele>1126</ele>
        <time>2021-08-03T09:39:01.317Z</time>
      </trkpt>
      <trkpt lat="47.02227" lon="8.90257">
        <ele>1126</ele>
        <time>2021-08-03T09:39:02.317Z</time>
      </trkpt>
      <trkpt lat="47.02226" lon="8.90255">
        <ele>1126</ele>
        <time>2021-08-03T09:39:03.317Z</time>
      </trkpt>
      <trkpt lat="47.02226" lon="8.90253">
        <ele>1126</ele>
        <time>2021-08-03T09:39:04.317Z</time>
      </trkpt>
      <trkpt lat="47.02226" lon="8.90251">
        <ele>1126</ele>
        <time>2021-08-03T09:39:05.317Z</time>
      </trkpt>
      <trkpt lat="47.02226" lon="8.9025">
        <ele>1126</ele>
        <time>2021-08-03T09:39:06.317Z</time>
      </trkpt>
      <trkpt lat="47.02225" lon="8.90248">
        <ele>1126</ele>
        <time>2021-08-03T09:39:07.317Z</time>
      </trkpt>
      <trkpt lat="47.02225" lon="8.90246">
        <ele>1126</ele>
        <time>2021-08-03T09:39:08.318Z</time>
      </trkpt>
      <trkpt lat="47.02225" lon="8.90244">
        <ele>1126</ele>
        <time>2021-08-03T09:39:09.318Z</time>
      </trkpt>
      <trkpt lat="47.02224" lon="8.90242">
        <ele>1126</ele>
        <time>2021-08-03T09:39:10.318Z</time>
      </trkpt>
      <trkpt lat="47.02224" lon="8.9024">
        <ele>1126</ele>
        <time>2021-08-03T09:39:11.317Z</time>
      </trkpt>
      <trkpt lat="47.02224" lon="8.90239">
        <ele>1126</ele>
        <time>2021-08-03T09:39:12.317Z</time>
      </trkpt>
      <trkpt lat="47.02223" lon="8.90237">
        <ele>1126</ele>
        <time>2021-08-03T09:39:13.317Z</time>
      </trkpt>
      <trkpt lat="47.02223" lon="8.90236">
        <ele>1126</ele>
        <time>2021-08-03T09:39:14.317Z</time>
      </trkpt>
      <trkpt lat="47.02223" lon="8.90234">
        <ele>1126</ele>
        <time>2021-08-03T09:39:15.317Z</time>
      </trkpt>
      <trkpt lat="47.02223" lon="8.90232">
        <ele>1126</ele>
        <time>2021-08-03T09:39:16.318Z</time>
      </trkpt>
      <trkpt lat="47.02222" lon="8.90231">
        <ele>1125</ele>
        <time>2021-08-03T09:39:17.318Z</time>
      </trkpt>
      <trkpt lat="47.02222" lon="8.90229">
        <ele>1125</ele>
        <time>2021-08-03T09:39:18.318Z</time>
      </trkpt>
      <trkpt lat="47.02222" lon="8.90227">
        <ele>1125</ele>
        <time>2021-08-03T09:39:19.317Z</time>
      </trkpt>
      <trkpt lat="47.02222" lon="8.90225">
        <ele>1126</ele>
        <time>2021-08-03T09:39:20.317Z</time>
      </trkpt>
      <trkpt lat="47.02222" lon="8.90224">
        <ele>1126</ele>
        <time>2021-08-03T09:39:21.318Z</time>
      </trkpt>
      <trkpt lat="47.02221" lon="8.90222">
        <ele>1126</ele>
        <time>2021-08-03T09:39:22.317Z</time>
      </trkpt>
      <trkpt lat="47.02221" lon="8.9022">
        <ele>1126</ele>
        <time>2021-08-03T09:39:23.317Z</time>
      </trkpt>
      <trkpt lat="47.02221" lon="8.90219">
        <ele>1126</ele>
        <time>2021-08-03T09:39:24.317Z</time>
      </trkpt>
      <trkpt lat="47.02221" lon="8.90217">
        <ele>1126</ele>
        <time>2021-08-03T09:39:25.317Z</time>
      </trkpt>
      <trkpt lat="47.02221" lon="8.90216">
        <ele>1126</ele>
        <time>2021-08-03T09:39:26.317Z</time>
      </trkpt>
      <trkpt lat="47.02221" lon="8.90214">
        <ele>1125</ele>
        <time>2021-08-03T09:39:27.317Z</time>
      </trkpt>
      <trkpt lat="47.02221" lon="8.90212">
        <ele>1126</ele>
        <time>2021-08-03T09:39:28.317Z</time>
      </trkpt>
      <trkpt lat="47.0222" lon="8.9021">
        <ele>1126</ele>
        <time>2021-08-03T09:39:29.318Z</time>
      </trkpt>
      <trkpt lat="47.0222" lon="8.90209">
        <ele>1126</ele>
        <time>2021-08-03T09:39:30.317Z</time>
      </trkpt>
      <trkpt lat="47.0222" lon="8.90208">
        <ele>1125</ele>
        <time>2021-08-03T09:39:31.317Z</time>
      </trkpt>
      <trkpt lat="47.0222" lon="8.90206">
        <ele>1125</ele>
        <time>2021-08-03T09:39:32.318Z</time>
      </trkpt>
      <trkpt lat="47.0222" lon="8.90204">
        <ele>1124</ele>
        <time>2021-08-03T09:39:33.317Z</time>
      </trkpt>
      <trkpt lat="47.0222" lon="8.90202">
        <ele>1124</ele>
        <time>2021-08-03T09:39:34.317Z</time>
      </trkpt>
      <trkpt lat="47.02219" lon="8.90201">
        <ele>1124</ele>
        <time>2021-08-03T09:39:35.317Z</time>
      </trkpt>
      <trkpt lat="47.02218" lon="8.90199">
        <ele>1124</ele>
        <time>2021-08-03T09:39:36.317Z</time>
      </trkpt>
      <trkpt lat="47.02217" lon="8.90198">
        <ele>1124</ele>
        <time>2021-08-03T09:39:37.317Z</time>
      </trkpt>
      <trkpt lat="47.02216" lon="8.90196">
        <ele>1124</ele>
        <time>2021-08-03T09:39:38.317Z</time>
      </trkpt>
      <trkpt lat="47.02216" lon="8.90195">
        <ele>1125</ele>
        <time>2021-08-03T09:39:39.318Z</time>
      </trkpt>
      <trkpt lat="47.02215" lon="8.90192">
        <ele>1125</ele>
        <time>2021-08-03T09:39:40.317Z</time>
      </trkpt>
      <trkpt lat="47.02214" lon="8.90191">
        <ele>1125</ele>
        <time>2021-08-03T09:39:41.317Z</time>
      </trkpt>
      <trkpt lat="47.02213" lon="8.9019">
        <ele>1126</ele>
        <time>2021-08-03T09:39:42.317Z</time>
      </trkpt>
      <trkpt lat="47.02212" lon="8.90188">
        <ele>1126</ele>
        <time>2021-08-03T09:39:43.317Z</time>
      </trkpt>
      <trkpt lat="47.02211" lon="8.90186">
        <ele>1127</ele>
        <time>2021-08-03T09:39:44.318Z</time>
      </trkpt>
      <trkpt lat="47.0221" lon="8.90184">
        <ele>1128</ele>
        <time>2021-08-03T09:39:45.317Z</time>
      </trkpt>
      <trkpt lat="47.02209" lon="8.90182">
        <ele>1128</ele>
        <time>2021-08-03T09:39:46.318Z</time>
      </trkpt>
      <trkpt lat="47.02209" lon="8.90181">
        <ele>1129</ele>
        <time>2021-08-03T09:39:47.317Z</time>
      </trkpt>
      <trkpt lat="47.02209" lon="8.9018">
        <ele>1128</ele>
        <time>2021-08-03T09:39:48.317Z</time>
      </trkpt>
      <trkpt lat="47.02208" lon="8.90178">
        <ele>1128</ele>
        <time>2021-08-03T09:39:49.317Z</time>
      </trkpt>
      <trkpt lat="47.02207" lon="8.90177">
        <ele>1128</ele>
        <time>2021-08-03T09:39:50.318Z</time>
      </trkpt>
      <trkpt lat="47.02206" lon="8.90176">
        <ele>1128</ele>
        <time>2021-08-03T09:39:51.317Z</time>
      </trkpt>
      <trkpt lat="47.02205" lon="8.90175">
        <ele>1129</ele>
        <time>2021-08-03T09:39:52.317Z</time>
      </trkpt>
      <trkpt lat="47.02204" lon="8.90173">
        <ele>1129</ele>
        <time>2021-08-03T09:39:53.318Z</time>
      </trkpt>
      <trkpt lat="47.02203" lon="8.90172">
        <ele>1129</ele>
        <time>2021-08-03T09:39:54.317Z</time>
      </trkpt>
      <trkpt lat="47.02202" lon="8.9017">
        <ele>1129</ele>
        <time>2021-08-03T09:39:55.317Z</time>
      </trkpt>
      <trkpt lat="47.02201" lon="8.90169">
        <ele>1129</ele>
        <time>2021-08-03T09:39:56.317Z</time>
      </trkpt>
      <trkpt lat="47.02199" lon="8.90168">
        <ele>1129</ele>
        <time>2021-08-03T09:39:57.318Z</time>
      </trkpt>
      <trkpt lat="47.02198" lon="8.90166">
        <ele>1129</ele>
        <time>2021-08-03T09:39:58.318Z</time>
      </trkpt>
      <trkpt lat="47.02197" lon="8.90164">
        <ele>1129</ele>
        <time>2021-08-03T09:39:59.318Z</time>
      </trkpt>
      <trkpt lat="47.02196" lon="8.90163">
        <ele>1129</ele>
        <time>2021-08-03T09:40:00.317Z</time>
      </trkpt>
      <trkpt lat="47.02195" lon="8.90162">
        <ele>1129</ele>
        <time>2021-08-03T09:40:01.317Z</time>
      </trkpt>
      <trkpt lat="47.02194" lon="8.9016">
        <ele>1130</ele>
        <time>2021-08-03T09:40:02.318Z</time>
      </trkpt>
      <trkpt lat="47.02193" lon="8.90159">
        <ele>1130</ele>
        <time>2021-08-03T09:40:03.317Z</time>
      </trkpt>
      <trkpt lat="47.02192" lon="8.90158">
        <ele>1131</ele>
        <time>2021-08-03T09:40:04.317Z</time>
      </trkpt>
      <trkpt lat="47.0219" lon="8.90157">
        <ele>1132</ele>
        <time>2021-08-03T09:40:05.318Z</time>
      </trkpt>
      <trkpt lat="47.02189" lon="8.90156">
        <ele>1133</ele>
        <time>2021-08-03T09:40:06.318Z</time>
      </trkpt>
      <trkpt lat="47.02188" lon="8.90155">
        <ele>1133</ele>
        <time>2021-08-03T09:40:07.317Z</time>
      </trkpt>
      <trkpt lat="47.02188" lon="8.90154">
        <ele>1134</ele>
        <time>2021-08-03T09:40:08.317Z</time>
      </trkpt>
      <trkpt lat="47.02187" lon="8.90153">
        <ele>1135</ele>
        <time>2021-08-03T09:40:09.317Z</time>
      </trkpt>
      <trkpt lat="47.02186" lon="8.90152">
        <ele>1136</ele>
        <time>2021-08-03T09:40:10.318Z</time>
      </trkpt>
      <trkpt lat="47.02184" lon="8.90151">
        <ele>1138</ele>
        <time>2021-08-03T09:40:11.318Z</time>
      </trkpt>
      <trkpt lat="47.02183" lon="8.9015">
        <ele>1139</ele>
        <time>2021-08-03T09:40:12.317Z</time>
      </trkpt>
      <trkpt lat="47.02182" lon="8.90149">
        <ele>1140</ele>
        <time>2021-08-03T09:40:13.317Z</time>
      </trkpt>
      <trkpt lat="47.02181" lon="8.90148">
        <ele>1140</ele>
        <time>2021-08-03T09:40:14.317Z</time>
      </trkpt>
      <trkpt lat="47.0218" lon="8.90147">
        <ele>1140</ele>
        <time>2021-08-03T09:40:15.318Z</time>
      </trkpt>
      <trkpt lat="47.02179" lon="8.90147">
        <ele>1140</ele>
        <time>2021-08-03T09:40:16.317Z</time>
      </trkpt>
      <trkpt lat="47.02178" lon="8.90146">
        <ele>1140</ele>
        <time>2021-08-03T09:40:17.318Z</time>
      </trkpt>
      <trkpt lat="47.02177" lon="8.90145">
        <ele>1140</ele>
        <time>2021-08-03T09:40:18.318Z</time>
      </trkpt>
      <trkpt lat="47.02175" lon="8.90144">
        <ele>1140</ele>
        <time>2021-08-03T09:40:19.318Z</time>
      </trkpt>
      <trkpt lat="47.02173" lon="8.90143">
        <ele>1140</ele>
        <time>2021-08-03T09:40:20.318Z</time>
      </trkpt>
      <trkpt lat="47.02172" lon="8.90142">
        <ele>1140</ele>
        <time>2021-08-03T09:40:21.317Z</time>
      </trkpt>
      <trkpt lat="47.0217" lon="8.90141">
        <ele>1140</ele>
        <time>2021-08-03T09:40:22.317Z</time>
      </trkpt>
      <trkpt lat="47.02169" lon="8.9014">
        <ele>1140</ele>
        <time>2021-08-03T09:40:23.318Z</time>
      </trkpt>
      <trkpt lat="47.02168" lon="8.90139">
        <ele>1141</ele>
        <time>2021-08-03T09:40:24.317Z</time>
      </trkpt>
      <trkpt lat="47.02166" lon="8.90138">
        <ele>1141</ele>
        <time>2021-08-03T09:40:25.317Z</time>
      </trkpt>
      <trkpt lat="47.02165" lon="8.90138">
        <ele>1141</ele>
        <time>2021-08-03T09:40:26.317Z</time>
      </trkpt>
      <trkpt lat="47.02164" lon="8.90137">
        <ele>1141</ele>
        <time>2021-08-03T09:40:27.317Z</time>
      </trkpt>
      <trkpt lat="47.02163" lon="8.90137">
        <ele>1140</ele>
        <time>2021-08-03T09:40:28.317Z</time>
      </trkpt>
      <trkpt lat="47.02162" lon="8.90136">
        <ele>1140</ele>
        <time>2021-08-03T09:40:29.318Z</time>
      </trkpt>
      <trkpt lat="47.02161" lon="8.90135">
        <ele>1139</ele>
        <time>2021-08-03T09:40:30.317Z</time>
      </trkpt>
      <trkpt lat="47.0216" lon="8.90134">
        <ele>1139</ele>
        <time>2021-08-03T09:40:31.317Z</time>
      </trkpt>
      <trkpt lat="47.02158" lon="8.90133">
        <ele>1140</ele>
        <time>2021-08-03T09:40:32.317Z</time>
      </trkpt>
      <trkpt lat="47.02156" lon="8.90132">
        <ele>1140</ele>
        <time>2021-08-03T09:40:33.317Z</time>
      </trkpt>
      <trkpt lat="47.02155" lon="8.90131">
        <ele>1141</ele>
        <time>2021-08-03T09:40:34.317Z</time>
      </trkpt>
      <trkpt lat="47.02153" lon="8.9013">
        <ele>1142</ele>
        <time>2021-08-03T09:40:35.317Z</time>
      </trkpt>
      <trkpt lat="47.02151" lon="8.90129">
        <ele>1142</ele>
        <time>2021-08-03T09:40:36.318Z</time>
      </trkpt>
      <trkpt lat="47.02149" lon="8.90128">
        <ele>1143</ele>
        <time>2021-08-03T09:40:37.317Z</time>
      </trkpt>
      <trkpt lat="47.02148" lon="8.90127">
        <ele>1142</ele>
        <time>2021-08-03T09:40:38.317Z</time>
      </trkpt>
      <trkpt lat="47.02147" lon="8.90127">
        <ele>1142</ele>
        <time>2021-08-03T09:40:39.317Z</time>
      </trkpt>
      <trkpt lat="47.02146" lon="8.90127">
        <ele>1141</ele>
        <time>2021-08-03T09:40:40.317Z</time>
      </trkpt>
      <trkpt lat="47.02145" lon="8.90126">
        <ele>1140</ele>
        <time>2021-08-03T09:40:41.317Z</time>
      </trkpt>
      <trkpt lat="47.02143" lon="8.90126">
        <ele>1140</ele>
        <time>2021-08-03T09:40:42.317Z</time>
      </trkpt>
      <trkpt lat="47.02143" lon="8.90125">
        <ele>1140</ele>
        <time>2021-08-03T09:40:43.317Z</time>
      </trkpt>
      <trkpt lat="47.02142" lon="8.90124">
        <ele>1139</ele>
        <time>2021-08-03T09:40:44.317Z</time>
      </trkpt>
      <trkpt lat="47.02141" lon="8.90124">
        <ele>1139</ele>
        <time>2021-08-03T09:40:45.317Z</time>
      </trkpt>
      <trkpt lat="47.0214" lon="8.90123">
        <ele>1140</ele>
        <time>2021-08-03T09:40:46.318Z</time>
      </trkpt>
      <trkpt lat="47.02139" lon="8.90123">
        <ele>1140</ele>
        <time>2021-08-03T09:40:47.317Z</time>
      </trkpt>
      <trkpt lat="47.02138" lon="8.90122">
        <ele>1140</ele>
        <time>2021-08-03T09:40:48.317Z</time>
      </trkpt>
      <trkpt lat="47.02137" lon="8.90121">
        <ele>1140</ele>
        <time>2021-08-03T09:40:49.317Z</time>
      </trkpt>
      <trkpt lat="47.02136" lon="8.90121">
        <ele>1140</ele>
        <time>2021-08-03T09:40:50.318Z</time>
      </trkpt>
      <trkpt lat="47.02134" lon="8.9012">
        <ele>1140</ele>
        <time>2021-08-03T09:40:51.318Z</time>
      </trkpt>
      <trkpt lat="47.02133" lon="8.9012">
        <ele>1141</ele>
        <time>2021-08-03T09:40:52.317Z</time>
      </trkpt>
      <trkpt lat="47.02132" lon="8.9012">
        <ele>1141</ele>
        <time>2021-08-03T09:40:53.317Z</time>
      </trkpt>
      <trkpt lat="47.02131" lon="8.90119">
        <ele>1141</ele>
        <time>2021-08-03T09:40:54.317Z</time>
      </trkpt>
      <trkpt lat="47.02129" lon="8.90118">
        <ele>1142</ele>
        <time>2021-08-03T09:40:55.317Z</time>
      </trkpt>
      <trkpt lat="47.02129" lon="8.90118">
        <ele>1142</ele>
        <time>2021-08-03T09:40:56.317Z</time>
      </trkpt>
      <trkpt lat="47.02127" lon="8.90118">
        <ele>1142</ele>
        <time>2021-08-03T09:40:57.317Z</time>
      </trkpt>
      <trkpt lat="47.02126" lon="8.90117">
        <ele>1142</ele>
        <time>2021-08-03T09:40:58.317Z</time>
      </trkpt>
      <trkpt lat="47.02126" lon="8.90117">
        <ele>1142</ele>
        <time>2021-08-03T09:40:59.318Z</time>
      </trkpt>
      <trkpt lat="47.02125" lon="8.90117">
        <ele>1142</ele>
        <time>2021-08-03T09:41:00.317Z</time>
      </trkpt>
      <trkpt lat="47.02124" lon="8.90117">
        <ele>1142</ele>
        <time>2021-08-03T09:41:01.317Z</time>
      </trkpt>
      <trkpt lat="47.02123" lon="8.90118">
        <ele>1141</ele>
        <time>2021-08-03T09:41:02.317Z</time>
      </trkpt>
      <trkpt lat="47.02122" lon="8.90118">
        <ele>1141</ele>
        <time>2021-08-03T09:41:03.317Z</time>
      </trkpt>
      <trkpt lat="47.02121" lon="8.90118">
        <ele>1141</ele>
        <time>2021-08-03T09:41:04.317Z</time>
      </trkpt>
      <trkpt lat="47.02119" lon="8.90117">
        <ele>1140</ele>
        <time>2021-08-03T09:41:05.317Z</time>
      </trkpt>
      <trkpt lat="47.02118" lon="8.90117">
        <ele>1140</ele>
        <time>2021-08-03T09:41:06.317Z</time>
      </trkpt>
      <trkpt lat="47.02117" lon="8.90117">
        <ele>1141</ele>
        <time>2021-08-03T09:41:07.317Z</time>
      </trkpt>
      <trkpt lat="47.02116" lon="8.90116">
        <ele>1141</ele>
        <time>2021-08-03T09:41:08.317Z</time>
      </trkpt>
      <trkpt lat="47.02115" lon="8.90115">
        <ele>1141</ele>
        <time>2021-08-03T09:41:09.317Z</time>
      </trkpt>
      <trkpt lat="47.02114" lon="8.90114">
        <ele>1142</ele>
        <time>2021-08-03T09:41:10.317Z</time>
      </trkpt>
      <trkpt lat="47.02113" lon="8.90113">
        <ele>1143</ele>
        <time>2021-08-03T09:41:11.317Z</time>
      </trkpt>
      <trkpt lat="47.02112" lon="8.90112">
        <ele>1144</ele>
        <time>2021-08-03T09:41:12.317Z</time>
      </trkpt>
      <trkpt lat="47.02111" lon="8.90112">
        <ele>1144</ele>
        <time>2021-08-03T09:41:13.317Z</time>
      </trkpt>
      <trkpt lat="47.02109" lon="8.90111">
        <ele>1145</ele>
        <time>2021-08-03T09:41:14.317Z</time>
      </trkpt>
      <trkpt lat="47.02108" lon="8.9011">
        <ele>1145</ele>
        <time>2021-08-03T09:41:15.317Z</time>
      </trkpt>
      <trkpt lat="47.02107" lon="8.9011">
        <ele>1146</ele>
        <time>2021-08-03T09:41:16.317Z</time>
      </trkpt>
      <trkpt lat="47.02106" lon="8.9011">
        <ele>1146</ele>
        <time>2021-08-03T09:41:17.317Z</time>
      </trkpt>
      <trkpt lat="47.02105" lon="8.90109">
        <ele>1146</ele>
        <time>2021-08-03T09:41:18.317Z</time>
      </trkpt>
      <trkpt lat="47.02104" lon="8.90108">
        <ele>1146</ele>
        <time>2021-08-03T09:41:19.317Z</time>
      </trkpt>
      <trkpt lat="47.02103" lon="8.90107">
        <ele>1146</ele>
        <time>2021-08-03T09:41:20.317Z</time>
      </trkpt>
      <trkpt lat="47.02102" lon="8.90106">
        <ele>1146</ele>
        <time>2021-08-03T09:41:21.317Z</time>
      </trkpt>
      <trkpt lat="47.02101" lon="8.90106">
        <ele>1146</ele>
        <time>2021-08-03T09:41:22.317Z</time>
      </trkpt>
      <trkpt lat="47.02101" lon="8.90106">
        <ele>1146</ele>
        <time>2021-08-03T09:41:23.317Z</time>
      </trkpt>
      <trkpt lat="47.02102" lon="8.90107">
        <ele>1146</ele>
        <time>2021-08-03T09:41:24.318Z</time>
      </trkpt>
      <trkpt lat="47.02101" lon="8.90105">
        <ele>1146</ele>
        <time>2021-08-03T09:41:25.318Z</time>
      </trkpt>
      <trkpt lat="47.02101" lon="8.90106">
        <ele>1144</ele>
        <time>2021-08-03T09:41:26.320Z</time>
      </trkpt>
      <trkpt lat="47.02102" lon="8.90107">
        <ele>1140</ele>
        <time>2021-08-03T09:41:27.319Z</time>
      </trkpt>
      <trkpt lat="47.02102" lon="8.90108">
        <ele>1139</ele>
        <time>2021-08-03T09:41:28.319Z</time>
      </trkpt>
      <trkpt lat="47.02102" lon="8.90109">
        <ele>1139</ele>
        <time>2021-08-03T09:41:29.319Z</time>
      </trkpt>
      <trkpt lat="47.02102" lon="8.9011">
        <ele>1138</ele>
        <time>2021-08-03T09:41:30.320Z</time>
      </trkpt>
      <trkpt lat="47.02102" lon="8.90111">
        <ele>1137</ele>
        <time>2021-08-03T09:41:31.320Z</time>
      </trkpt>
      <trkpt lat="47.02101" lon="8.90112">
        <ele>1137</ele>
        <time>2021-08-03T09:41:32.320Z</time>
      </trkpt>
      <trkpt lat="47.02101" lon="8.90113">
        <ele>1137</ele>
        <time>2021-08-03T09:41:33.320Z</time>
      </trkpt>
      <trkpt lat="47.02101" lon="8.90114">
        <ele>1137</ele>
        <time>2021-08-03T09:41:34.319Z</time>
      </trkpt>
      <trkpt lat="47.021" lon="8.90115">
        <ele>1136</ele>
        <time>2021-08-03T09:41:35.319Z</time>
      </trkpt>
      <trkpt lat="47.02101" lon="8.90116">
        <ele>1136</ele>
        <time>2021-08-03T09:41:36.319Z</time>
      </trkpt>
      <trkpt lat="47.02101" lon="8.90117">
        <ele>1136</ele>
        <time>2021-08-03T09:41:37.319Z</time>
      </trkpt>
      <trkpt lat="47.02101" lon="8.90118">
        <ele>1136</ele>
        <time>2021-08-03T09:41:38.319Z</time>
      </trkpt>
      <trkpt lat="47.02101" lon="8.90119">
        <ele>1136</ele>
        <time>2021-08-03T09:41:39.319Z</time>
      </trkpt>
      <trkpt lat="47.02101" lon="8.90119">
        <ele>1136</ele>
        <time>2021-08-03T09:41:40.320Z</time>
      </trkpt>
      <trkpt lat="47.02101" lon="8.9012">
        <ele>1137</ele>
        <time>2021-08-03T09:41:41.319Z</time>
      </trkpt>
      <trkpt lat="47.021" lon="8.9012">
        <ele>1137</ele>
        <time>2021-08-03T09:41:42.320Z</time>
      </trkpt>
      <trkpt lat="47.021" lon="8.90119">
        <ele>1137</ele>
        <time>2021-08-03T09:41:43.320Z</time>
      </trkpt>
      <trkpt lat="47.021" lon="8.90118">
        <ele>1137</ele>
        <time>2021-08-03T09:41:44.320Z</time>
      </trkpt>
      <trkpt lat="47.02101" lon="8.90117">
        <ele>1137</ele>
        <time>2021-08-03T09:41:45.320Z</time>
      </trkpt>
      <trkpt lat="47.02101" lon="8.90116">
        <ele>1136</ele>
        <time>2021-08-03T09:41:46.320Z</time>
      </trkpt>
      <trkpt lat="47.02101" lon="8.90116">
        <ele>1136</ele>
        <time>2021-08-03T09:41:47.319Z</time>
      </trkpt>
      <trkpt lat="47.021" lon="8.90111">
        <ele>1133</ele>
        <time>2021-08-03T09:41:48.321Z</time>
      </trkpt>
      <trkpt lat="47.02099" lon="8.90111">
        <ele>1133</ele>
        <time>2021-08-03T09:41:49.320Z</time>
      </trkpt>
      <trkpt lat="47.02098" lon="8.90111">
        <ele>1134</ele>
        <time>2021-08-03T09:41:50.320Z</time>
      </trkpt>
      <trkpt lat="47.02097" lon="8.90111">
        <ele>1134</ele>
        <time>2021-08-03T09:41:51.320Z</time>
      </trkpt>
      <trkpt lat="47.02096" lon="8.90111">
        <ele>1135</ele>
        <time>2021-08-03T09:41:52.321Z</time>
      </trkpt>
      <trkpt lat="47.02094" lon="8.90111">
        <ele>1135</ele>
        <time>2021-08-03T09:41:53.320Z</time>
      </trkpt>
      <trkpt lat="47.02092" lon="8.9011">
        <ele>1136</ele>
        <time>2021-08-03T09:41:54.320Z</time>
      </trkpt>
      <trkpt lat="47.02091" lon="8.90109">
        <ele>1136</ele>
        <time>2021-08-03T09:41:55.320Z</time>
      </trkpt>
      <trkpt lat="47.0209" lon="8.90108">
        <ele>1137</ele>
        <time>2021-08-03T09:41:56.320Z</time>
      </trkpt>
      <trkpt lat="47.02089" lon="8.90107">
        <ele>1138</ele>
        <time>2021-08-03T09:41:57.320Z</time>
      </trkpt>
      <trkpt lat="47.02088" lon="8.90107">
        <ele>1138</ele>
        <time>2021-08-03T09:41:58.320Z</time>
      </trkpt>
      <trkpt lat="47.02086" lon="8.90107">
        <ele>1139</ele>
        <time>2021-08-03T09:41:59.320Z</time>
      </trkpt>
      <trkpt lat="47.02084" lon="8.90106">
        <ele>1139</ele>
        <time>2021-08-03T09:42:00.320Z</time>
      </trkpt>
      <trkpt lat="47.02083" lon="8.90106">
        <ele>1140</ele>
        <time>2021-08-03T09:42:01.320Z</time>
      </trkpt>
      <trkpt lat="47.02082" lon="8.90105">
        <ele>1141</ele>
        <time>2021-08-03T09:42:02.321Z</time>
      </trkpt>
      <trkpt lat="47.02081" lon="8.90105">
        <ele>1141</ele>
        <time>2021-08-03T09:42:03.320Z</time>
      </trkpt>
      <trkpt lat="47.0208" lon="8.90106">
        <ele>1142</ele>
        <time>2021-08-03T09:42:04.321Z</time>
      </trkpt>
      <trkpt lat="47.02079" lon="8.90106">
        <ele>1144</ele>
        <time>2021-08-03T09:42:05.320Z</time>
      </trkpt>
      <trkpt lat="47.02078" lon="8.90106">
        <ele>1144</ele>
        <time>2021-08-03T09:42:06.320Z</time>
      </trkpt>
      <trkpt lat="47.02077" lon="8.90106">
        <ele>1144</ele>
        <time>2021-08-03T09:42:07.321Z</time>
      </trkpt>
      <trkpt lat="47.02076" lon="8.90107">
        <ele>1144</ele>
        <time>2021-08-03T09:42:08.320Z</time>
      </trkpt>
      <trkpt lat="47.02075" lon="8.90107">
        <ele>1145</ele>
        <time>2021-08-03T09:42:09.320Z</time>
      </trkpt>
      <trkpt lat="47.02074" lon="8.90107">
        <ele>1144</ele>
        <time>2021-08-03T09:42:10.320Z</time>
      </trkpt>
      <trkpt lat="47.02073" lon="8.90107">
        <ele>1144</ele>
        <time>2021-08-03T09:42:11.320Z</time>
      </trkpt>
      <trkpt lat="47.02072" lon="8.90108">
        <ele>1144</ele>
        <time>2021-08-03T09:42:12.320Z</time>
      </trkpt>
      <trkpt lat="47.02071" lon="8.90108">
        <ele>1144</ele>
        <time>2021-08-03T09:42:13.320Z</time>
      </trkpt>
      <trkpt lat="47.0207" lon="8.90108">
        <ele>1143</ele>
        <time>2021-08-03T09:42:14.321Z</time>
      </trkpt>
      <trkpt lat="47.02069" lon="8.90108">
        <ele>1143</ele>
        <time>2021-08-03T09:42:15.321Z</time>
      </trkpt>
      <trkpt lat="47.02068" lon="8.90108">
        <ele>1143</ele>
        <time>2021-08-03T09:42:16.321Z</time>
      </trkpt>
      <trkpt lat="47.02066" lon="8.90109">
        <ele>1143</ele>
        <time>2021-08-03T09:42:17.320Z</time>
      </trkpt>
      <trkpt lat="47.02065" lon="8.9011">
        <ele>1143</ele>
        <time>2021-08-03T09:42:18.321Z</time>
      </trkpt>
      <trkpt lat="47.02065" lon="8.90111">
        <ele>1143</ele>
        <time>2021-08-03T09:42:19.321Z</time>
      </trkpt>
      <trkpt lat="47.02064" lon="8.90111">
        <ele>1142</ele>
        <time>2021-08-03T09:42:20.320Z</time>
      </trkpt>
      <trkpt lat="47.02064" lon="8.90112">
        <ele>1142</ele>
        <time>2021-08-03T09:42:21.321Z</time>
      </trkpt>
      <trkpt lat="47.02063" lon="8.90112">
        <ele>1141</ele>
        <time>2021-08-03T09:42:22.320Z</time>
      </trkpt>
      <trkpt lat="47.02062" lon="8.90112">
        <ele>1140</ele>
        <time>2021-08-03T09:42:23.321Z</time>
      </trkpt>
      <trkpt lat="47.02061" lon="8.90112">
        <ele>1140</ele>
        <time>2021-08-03T09:42:24.320Z</time>
      </trkpt>
      <trkpt lat="47.0206" lon="8.90111">
        <ele>1139</ele>
        <time>2021-08-03T09:42:25.320Z</time>
      </trkpt>
      <trkpt lat="47.02058" lon="8.90111">
        <ele>1139</ele>
        <time>2021-08-03T09:42:26.320Z</time>
      </trkpt>
      <trkpt lat="47.02057" lon="8.90112">
        <ele>1139</ele>
        <time>2021-08-03T09:42:27.320Z</time>
      </trkpt>
      <trkpt lat="47.02056" lon="8.90112">
        <ele>1138</ele>
        <time>2021-08-03T09:42:28.321Z</time>
      </trkpt>
      <trkpt lat="47.02055" lon="8.90113">
        <ele>1138</ele>
        <time>2021-08-03T09:42:29.320Z</time>
      </trkpt>
      <trkpt lat="47.02055" lon="8.90113">
        <ele>1137</ele>
        <time>2021-08-03T09:42:30.321Z</time>
      </trkpt>
      <trkpt lat="47.02054" lon="8.90113">
        <ele>1137</ele>
        <time>2021-08-03T09:42:31.320Z</time>
      </trkpt>
      <trkpt lat="47.02053" lon="8.90113">
        <ele>1136</ele>
        <time>2021-08-03T09:42:32.321Z</time>
      </trkpt>
      <trkpt lat="47.02052" lon="8.90113">
        <ele>1136</ele>
        <time>2021-08-03T09:42:33.321Z</time>
      </trkpt>
      <trkpt lat="47.02051" lon="8.90113">
        <ele>1135</ele>
        <time>2021-08-03T09:42:34.320Z</time>
      </trkpt>
      <trkpt lat="47.0205" lon="8.90113">
        <ele>1135</ele>
        <time>2021-08-03T09:42:35.320Z</time>
      </trkpt>
      <trkpt lat="47.0205" lon="8.90113">
        <ele>1135</ele>
        <time>2021-08-03T09:42:36.320Z</time>
      </trkpt>
      <trkpt lat="47.0205" lon="8.90113">
        <ele>1135</ele>
        <time>2021-08-03T09:42:37.321Z</time>
      </trkpt>
      <trkpt lat="47.02049" lon="8.90114">
        <ele>1134</ele>
        <time>2021-08-03T09:42:38.321Z</time>
      </trkpt>
      <trkpt lat="47.02049" lon="8.90113">
        <ele>1134</ele>
        <time>2021-08-03T09:42:39.320Z</time>
      </trkpt>
      <trkpt lat="47.02049" lon="8.90112">
        <ele>1134</ele>
        <time>2021-08-03T09:42:40.320Z</time>
      </trkpt>
      <trkpt lat="47.02048" lon="8.90112">
        <ele>1134</ele>
        <time>2021-08-03T09:42:41.321Z</time>
      </trkpt>
      <trkpt lat="47.02047" lon="8.90111">
        <ele>1134</ele>
        <time>2021-08-03T09:42:42.320Z</time>
      </trkpt>
      <trkpt lat="47.02047" lon="8.9011">
        <ele>1134</ele>
        <time>2021-08-03T09:42:43.320Z</time>
      </trkpt>
      <trkpt lat="47.02046" lon="8.9011">
        <ele>1135</ele>
        <time>2021-08-03T09:42:44.321Z</time>
      </trkpt>
      <trkpt lat="47.02046" lon="8.90109">
        <ele>1135</ele>
        <time>2021-08-03T09:42:45.320Z</time>
      </trkpt>
      <trkpt lat="47.02046" lon="8.90108">
        <ele>1135</ele>
        <time>2021-08-03T09:42:46.321Z</time>
      </trkpt>
      <trkpt lat="47.02045" lon="8.90107">
        <ele>1136</ele>
        <time>2021-08-03T09:42:47.320Z</time>
      </trkpt>
      <trkpt lat="47.02045" lon="8.90107">
        <ele>1136</ele>
        <time>2021-08-03T09:42:48.320Z</time>
      </trkpt>
      <trkpt lat="47.02044" lon="8.90107">
        <ele>1136</ele>
        <time>2021-08-03T09:42:49.321Z</time>
      </trkpt>
      <trkpt lat="47.02044" lon="8.90107">
        <ele>1136</ele>
        <time>2021-08-03T09:42:50.320Z</time>
      </trkpt>
      <trkpt lat="47.02043" lon="8.90112">
        <ele>1136</ele>
        <time>2021-08-03T09:42:51.320Z</time>
      </trkpt>
      <trkpt lat="47.02042" lon="8.90113">
        <ele>1137</ele>
        <time>2021-08-03T09:42:52.320Z</time>
      </trkpt>
      <trkpt lat="47.02042" lon="8.90113">
        <ele>1137</ele>
        <time>2021-08-03T09:42:53.321Z</time>
      </trkpt>
      <trkpt lat="47.02042" lon="8.90114">
        <ele>1137</ele>
        <time>2021-08-03T09:42:54.320Z</time>
      </trkpt>
      <trkpt lat="47.02041" lon="8.90115">
        <ele>1137</ele>
        <time>2021-08-03T09:42:55.321Z</time>
      </trkpt>
      <trkpt lat="47.02041" lon="8.90115">
        <ele>1137</ele>
        <time>2021-08-03T09:42:56.321Z</time>
      </trkpt>
      <trkpt lat="47.02041" lon="8.90115">
        <ele>1137</ele>
        <time>2021-08-03T09:42:57.321Z</time>
      </trkpt>
      <trkpt lat="47.02041" lon="8.90117">
        <ele>1137</ele>
        <time>2021-08-03T09:42:58.322Z</time>
      </trkpt>
      <trkpt lat="47.02041" lon="8.90116">
        <ele>1137</ele>
        <time>2021-08-03T09:42:59.321Z</time>
      </trkpt>
      <trkpt lat="47.02041" lon="8.90115">
        <ele>1137</ele>
        <time>2021-08-03T09:43:00.321Z</time>
      </trkpt>
      <trkpt lat="47.02041" lon="8.90114">
        <ele>1137</ele>
        <time>2021-08-03T09:43:01.322Z</time>
      </trkpt>
      <trkpt lat="47.0204" lon="8.90113">
        <ele>1138</ele>
        <time>2021-08-03T09:43:02.321Z</time>
      </trkpt>
      <trkpt lat="47.0204" lon="8.90112">
        <ele>1138</ele>
        <time>2021-08-03T09:43:03.321Z</time>
      </trkpt>
      <trkpt lat="47.02039" lon="8.90111">
        <ele>1138</ele>
        <time>2021-08-03T09:43:04.322Z</time>
      </trkpt>
      <trkpt lat="47.0204" lon="8.9011">
        <ele>1139</ele>
        <time>2021-08-03T09:43:05.322Z</time>
      </trkpt>
      <trkpt lat="47.0204" lon="8.9011">
        <ele>1139</ele>
        <time>2021-08-03T09:43:06.322Z</time>
      </trkpt>
      <trkpt lat="47.0204" lon="8.90109">
        <ele>1139</ele>
        <time>2021-08-03T09:43:07.321Z</time>
      </trkpt>
      <trkpt lat="47.02039" lon="8.90108">
        <ele>1139</ele>
        <time>2021-08-03T09:43:08.321Z</time>
      </trkpt>
      <trkpt lat="47.02039" lon="8.90108">
        <ele>1139</ele>
        <time>2021-08-03T09:43:09.322Z</time>
      </trkpt>
      <trkpt lat="47.02039" lon="8.90108">
        <ele>1139</ele>
        <time>2021-08-03T09:43:10.322Z</time>
      </trkpt>
      <trkpt lat="47.0204" lon="8.90107">
        <ele>1140</ele>
        <time>2021-08-03T09:43:11.321Z</time>
      </trkpt>
      <trkpt lat="47.02041" lon="8.90105">
        <ele>1140</ele>
        <time>2021-08-03T09:43:12.322Z</time>
      </trkpt>
      <trkpt lat="47.02042" lon="8.90104">
        <ele>1140</ele>
        <time>2021-08-03T09:43:13.322Z</time>
      </trkpt>
      <trkpt lat="47.02042" lon="8.90102">
        <ele>1140</ele>
        <time>2021-08-03T09:43:14.322Z</time>
      </trkpt>
      <trkpt lat="47.02042" lon="8.901">
        <ele>1139</ele>
        <time>2021-08-03T09:43:15.321Z</time>
      </trkpt>
      <trkpt lat="47.02041" lon="8.90098">
        <ele>1139</ele>
        <time>2021-08-03T09:43:16.321Z</time>
      </trkpt>
      <trkpt lat="47.02041" lon="8.90097">
        <ele>1139</ele>
        <time>2021-08-03T09:43:17.321Z</time>
      </trkpt>
      <trkpt lat="47.02041" lon="8.90095">
        <ele>1138</ele>
        <time>2021-08-03T09:43:18.321Z</time>
      </trkpt>
      <trkpt lat="47.0204" lon="8.90094">
        <ele>1138</ele>
        <time>2021-08-03T09:43:19.321Z</time>
      </trkpt>
      <trkpt lat="47.02039" lon="8.90094">
        <ele>1138</ele>
        <time>2021-08-03T09:43:20.321Z</time>
      </trkpt>
      <trkpt lat="47.02039" lon="8.90094">
        <ele>1138</ele>
        <time>2021-08-03T09:43:21.321Z</time>
      </trkpt>
      <trkpt lat="47.02039" lon="8.90091">
        <ele>1138</ele>
        <time>2021-08-03T09:43:22.321Z</time>
      </trkpt>
      <trkpt lat="47.02039" lon="8.90089">
        <ele>1138</ele>
        <time>2021-08-03T09:43:23.321Z</time>
      </trkpt>
      <trkpt lat="47.02039" lon="8.90088">
        <ele>1138</ele>
        <time>2021-08-03T09:43:24.322Z</time>
      </trkpt>
      <trkpt lat="47.02039" lon="8.90087">
        <ele>1138</ele>
        <time>2021-08-03T09:43:25.322Z</time>
      </trkpt>
      <trkpt lat="47.02038" lon="8.90087">
        <ele>1138</ele>
        <time>2021-08-03T09:43:26.322Z</time>
      </trkpt>
      <trkpt lat="47.02038" lon="8.90086">
        <ele>1138</ele>
        <time>2021-08-03T09:43:27.321Z</time>
      </trkpt>
      <trkpt lat="47.02037" lon="8.90086">
        <ele>1138</ele>
        <time>2021-08-03T09:43:28.321Z</time>
      </trkpt>
      <trkpt lat="47.02037" lon="8.90086">
        <ele>1139</ele>
        <time>2021-08-03T09:43:29.321Z</time>
      </trkpt>
      <trkpt lat="47.02036" lon="8.90085">
        <ele>1140</ele>
        <time>2021-08-03T09:43:30.322Z</time>
      </trkpt>
      <trkpt lat="47.02036" lon="8.90083">
        <ele>1140</ele>
        <time>2021-08-03T09:43:31.321Z</time>
      </trkpt>
      <trkpt lat="47.02037" lon="8.90082">
        <ele>1141</ele>
        <time>2021-08-03T09:43:32.321Z</time>
      </trkpt>
      <trkpt lat="47.02037" lon="8.90081">
        <ele>1142</ele>
        <time>2021-08-03T09:43:33.321Z</time>
      </trkpt>
      <trkpt lat="47.02038" lon="8.9008">
        <ele>1142</ele>
        <time>2021-08-03T09:43:34.321Z</time>
      </trkpt>
      <trkpt lat="47.0204" lon="8.90079">
        <ele>1143</ele>
        <time>2021-08-03T09:43:35.322Z</time>
      </trkpt>
      <trkpt lat="47.02041" lon="8.90079">
        <ele>1143</ele>
        <time>2021-08-03T09:43:36.322Z</time>
      </trkpt>
      <trkpt lat="47.02041" lon="8.90078">
        <ele>1143</ele>
        <time>2021-08-03T09:43:37.321Z</time>
      </trkpt>
      <trkpt lat="47.02041" lon="8.90077">
        <ele>1144</ele>
        <time>2021-08-03T09:43:38.322Z</time>
      </trkpt>
      <trkpt lat="47.02041" lon="8.90077">
        <ele>1144</ele>
        <time>2021-08-03T09:43:39.321Z</time>
      </trkpt>
      <trkpt lat="47.0204" lon="8.90076">
        <ele>1145</ele>
        <time>2021-08-03T09:43:40.322Z</time>
      </trkpt>
      <trkpt lat="47.02039" lon="8.90074">
        <ele>1146</ele>
        <time>2021-08-03T09:43:41.322Z</time>
      </trkpt>
      <trkpt lat="47.02039" lon="8.90072">
        <ele>1146</ele>
        <time>2021-08-03T09:43:42.322Z</time>
      </trkpt>
      <trkpt lat="47.02039" lon="8.90071">
        <ele>1147</ele>
        <time>2021-08-03T09:43:43.321Z</time>
      </trkpt>
      <trkpt lat="47.0204" lon="8.90069">
        <ele>1147</ele>
        <time>2021-08-03T09:43:44.321Z</time>
      </trkpt>
      <trkpt lat="47.0204" lon="8.90068">
        <ele>1148</ele>
        <time>2021-08-03T09:43:45.321Z</time>
      </trkpt>
      <trkpt lat="47.0204" lon="8.90067">
        <ele>1148</ele>
        <time>2021-08-03T09:43:46.321Z</time>
      </trkpt>
      <trkpt lat="47.0204" lon="8.90065">
        <ele>1149</ele>
        <time>2021-08-03T09:43:47.321Z</time>
      </trkpt>
      <trkpt lat="47.02039" lon="8.90065">
        <ele>1149</ele>
        <time>2021-08-03T09:43:48.321Z</time>
      </trkpt>
      <trkpt lat="47.02039" lon="8.90064">
        <ele>1148</ele>
        <time>2021-08-03T09:43:49.321Z</time>
      </trkpt>
      <trkpt lat="47.02039" lon="8.90062">
        <ele>1148</ele>
        <time>2021-08-03T09:43:50.322Z</time>
      </trkpt>
      <trkpt lat="47.02039" lon="8.90061">
        <ele>1148</ele>
        <time>2021-08-03T09:43:51.321Z</time>
      </trkpt>
      <trkpt lat="47.0204" lon="8.9006">
        <ele>1148</ele>
        <time>2021-08-03T09:43:52.321Z</time>
      </trkpt>
      <trkpt lat="47.02041" lon="8.90059">
        <ele>1148</ele>
        <time>2021-08-03T09:43:53.322Z</time>
      </trkpt>
      <trkpt lat="47.02041" lon="8.90057">
        <ele>1148</ele>
        <time>2021-08-03T09:43:54.321Z</time>
      </trkpt>
      <trkpt lat="47.02042" lon="8.90055">
        <ele>1148</ele>
        <time>2021-08-03T09:43:55.321Z</time>
      </trkpt>
      <trkpt lat="47.02044" lon="8.90054">
        <ele>1148</ele>
        <time>2021-08-03T09:43:56.322Z</time>
      </trkpt>
      <trkpt lat="47.02046" lon="8.90053">
        <ele>1148</ele>
        <time>2021-08-03T09:43:57.322Z</time>
      </trkpt>
      <trkpt lat="47.02047" lon="8.90052">
        <ele>1148</ele>
        <time>2021-08-03T09:43:58.322Z</time>
      </trkpt>
      <trkpt lat="47.02046" lon="8.90052">
        <ele>1149</ele>
        <time>2021-08-03T09:43:59.322Z</time>
      </trkpt>
      <trkpt lat="47.02044" lon="8.90052">
        <ele>1149</ele>
        <time>2021-08-03T09:44:00.321Z</time>
      </trkpt>
      <trkpt lat="47.02043" lon="8.90052">
        <ele>1149</ele>
        <time>2021-08-03T09:44:01.322Z</time>
      </trkpt>
      <trkpt lat="47.02043" lon="8.90051">
        <ele>1149</ele>
        <time>2021-08-03T09:44:02.322Z</time>
      </trkpt>
      <trkpt lat="47.02043" lon="8.9005">
        <ele>1150</ele>
        <time>2021-08-03T09:44:03.322Z</time>
      </trkpt>
      <trkpt lat="47.02043" lon="8.90049">
        <ele>1150</ele>
        <time>2021-08-03T09:44:04.322Z</time>
      </trkpt>
      <trkpt lat="47.02043" lon="8.90048">
        <ele>1150</ele>
        <time>2021-08-03T09:44:05.322Z</time>
      </trkpt>
      <trkpt lat="47.02042" lon="8.90048">
        <ele>1150</ele>
        <time>2021-08-03T09:44:06.322Z</time>
      </trkpt>
      <trkpt lat="47.02042" lon="8.90047">
        <ele>1150</ele>
        <time>2021-08-03T09:44:07.322Z</time>
      </trkpt>
      <trkpt lat="47.02042" lon="8.90046">
        <ele>1150</ele>
        <time>2021-08-03T09:44:08.321Z</time>
      </trkpt>
      <trkpt lat="47.02041" lon="8.90046">
        <ele>1151</ele>
        <time>2021-08-03T09:44:09.322Z</time>
      </trkpt>
      <trkpt lat="47.0204" lon="8.90046">
        <ele>1151</ele>
        <time>2021-08-03T09:44:10.322Z</time>
      </trkpt>
      <trkpt lat="47.02039" lon="8.90045">
        <ele>1151</ele>
        <time>2021-08-03T09:44:11.322Z</time>
      </trkpt>
      <trkpt lat="47.02038" lon="8.90045">
        <ele>1151</ele>
        <time>2021-08-03T09:44:12.322Z</time>
      </trkpt>
      <trkpt lat="47.02037" lon="8.90045">
        <ele>1151</ele>
        <time>2021-08-03T09:44:13.321Z</time>
      </trkpt>
      <trkpt lat="47.02037" lon="8.90044">
        <ele>1151</ele>
        <time>2021-08-03T09:44:14.322Z</time>
      </trkpt>
      <trkpt lat="47.02036" lon="8.90044">
        <ele>1151</ele>
        <time>2021-08-03T09:44:15.321Z</time>
      </trkpt>
      <trkpt lat="47.02036" lon="8.90043">
        <ele>1151</ele>
        <time>2021-08-03T09:44:16.322Z</time>
      </trkpt>
      <trkpt lat="47.02035" lon="8.90043">
        <ele>1151</ele>
        <time>2021-08-03T09:44:17.322Z</time>
      </trkpt>
      <trkpt lat="47.02034" lon="8.90043">
        <ele>1151</ele>
        <time>2021-08-03T09:44:18.321Z</time>
      </trkpt>
      <trkpt lat="47.02034" lon="8.90042">
        <ele>1151</ele>
        <time>2021-08-03T09:44:19.321Z</time>
      </trkpt>
      <trkpt lat="47.02033" lon="8.90041">
        <ele>1151</ele>
        <time>2021-08-03T09:44:20.322Z</time>
      </trkpt>
      <trkpt lat="47.02032" lon="8.90041">
        <ele>1151</ele>
        <time>2021-08-03T09:44:21.322Z</time>
      </trkpt>
      <trkpt lat="47.02032" lon="8.90039">
        <ele>1151</ele>
        <time>2021-08-03T09:44:22.322Z</time>
      </trkpt>
      <trkpt lat="47.02032" lon="8.90038">
        <ele>1151</ele>
        <time>2021-08-03T09:44:23.322Z</time>
      </trkpt>
      <trkpt lat="47.02032" lon="8.90036">
        <ele>1151</ele>
        <time>2021-08-03T09:44:24.322Z</time>
      </trkpt>
      <trkpt lat="47.02032" lon="8.90035">
        <ele>1151</ele>
        <time>2021-08-03T09:44:25.321Z</time>
      </trkpt>
      <trkpt lat="47.02032" lon="8.90033">
        <ele>1150</ele>
        <time>2021-08-03T09:44:26.322Z</time>
      </trkpt>
      <trkpt lat="47.02032" lon="8.90032">
        <ele>1150</ele>
        <time>2021-08-03T09:44:27.321Z</time>
      </trkpt>
      <trkpt lat="47.02032" lon="8.9003">
        <ele>1150</ele>
        <time>2021-08-03T09:44:28.322Z</time>
      </trkpt>
      <trkpt lat="47.02032" lon="8.90029">
        <ele>1150</ele>
        <time>2021-08-03T09:44:29.322Z</time>
      </trkpt>
      <trkpt lat="47.02031" lon="8.90028">
        <ele>1150</ele>
        <time>2021-08-03T09:44:30.321Z</time>
      </trkpt>
      <trkpt lat="47.02031" lon="8.90025">
        <ele>1151</ele>
        <time>2021-08-03T09:44:31.322Z</time>
      </trkpt>
      <trkpt lat="47.02031" lon="8.90024">
        <ele>1151</ele>
        <time>2021-08-03T09:44:32.321Z</time>
      </trkpt>
      <trkpt lat="47.02031" lon="8.90023">
        <ele>1151</ele>
        <time>2021-08-03T09:44:33.322Z</time>
      </trkpt>
      <trkpt lat="47.0203" lon="8.90021">
        <ele>1152</ele>
        <time>2021-08-03T09:44:34.322Z</time>
      </trkpt>
      <trkpt lat="47.0203" lon="8.9002">
        <ele>1152</ele>
        <time>2021-08-03T09:44:35.322Z</time>
      </trkpt>
      <trkpt lat="47.02029" lon="8.90019">
        <ele>1153</ele>
        <time>2021-08-03T09:44:36.321Z</time>
      </trkpt>
      <trkpt lat="47.02029" lon="8.90019">
        <ele>1154</ele>
        <time>2021-08-03T09:44:37.322Z</time>
      </trkpt>
      <trkpt lat="47.02029" lon="8.90019">
        <ele>1155</ele>
        <time>2021-08-03T09:44:38.322Z</time>
      </trkpt>
      <trkpt lat="47.0203" lon="8.90019">
        <ele>1155</ele>
        <time>2021-08-03T09:44:39.322Z</time>
      </trkpt>
      <trkpt lat="47.0203" lon="8.90018">
        <ele>1156</ele>
        <time>2021-08-03T09:44:40.322Z</time>
      </trkpt>
      <trkpt lat="47.02031" lon="8.90017">
        <ele>1156</ele>
        <time>2021-08-03T09:44:41.321Z</time>
      </trkpt>
      <trkpt lat="47.02032" lon="8.90016">
        <ele>1157</ele>
        <time>2021-08-03T09:44:42.321Z</time>
      </trkpt>
      <trkpt lat="47.02032" lon="8.90016">
        <ele>1158</ele>
        <time>2021-08-03T09:44:43.321Z</time>
      </trkpt>
      <trkpt lat="47.02031" lon="8.90015">
        <ele>1159</ele>
        <time>2021-08-03T09:44:44.322Z</time>
      </trkpt>
      <trkpt lat="47.02031" lon="8.90016">
        <ele>1160</ele>
        <time>2021-08-03T09:44:45.322Z</time>
      </trkpt>
      <trkpt lat="47.02032" lon="8.90015">
        <ele>1161</ele>
        <time>2021-08-03T09:44:46.322Z</time>
      </trkpt>
      <trkpt lat="47.02032" lon="8.90015">
        <ele>1161</ele>
        <time>2021-08-03T09:44:47.322Z</time>
      </trkpt>
      <trkpt lat="47.02033" lon="8.90015">
        <ele>1162</ele>
        <time>2021-08-03T09:44:48.322Z</time>
      </trkpt>
      <trkpt lat="47.02033" lon="8.90014">
        <ele>1163</ele>
        <time>2021-08-03T09:44:49.322Z</time>
      </trkpt>
      <trkpt lat="47.02033" lon="8.90014">
        <ele>1163</ele>
        <time>2021-08-03T09:44:50.322Z</time>
      </trkpt>
      <trkpt lat="47.02033" lon="8.90013">
        <ele>1163</ele>
        <time>2021-08-03T09:44:51.322Z</time>
      </trkpt>
      <trkpt lat="47.02033" lon="8.90012">
        <ele>1163</ele>
        <time>2021-08-03T09:44:52.321Z</time>
      </trkpt>
      <trkpt lat="47.02033" lon="8.90011">
        <ele>1163</ele>
        <time>2021-08-03T09:44:53.321Z</time>
      </trkpt>
      <trkpt lat="47.02033" lon="8.9001">
        <ele>1164</ele>
        <time>2021-08-03T09:44:54.322Z</time>
      </trkpt>
      <trkpt lat="47.02034" lon="8.9001">
        <ele>1164</ele>
        <time>2021-08-03T09:44:55.321Z</time>
      </trkpt>
      <trkpt lat="47.02034" lon="8.90009">
        <ele>1165</ele>
        <time>2021-08-03T09:44:56.322Z</time>
      </trkpt>
      <trkpt lat="47.02034" lon="8.90008">
        <ele>1165</ele>
        <time>2021-08-03T09:44:57.321Z</time>
      </trkpt>
      <trkpt lat="47.02033" lon="8.90007">
        <ele>1166</ele>
        <time>2021-08-03T09:44:58.321Z</time>
      </trkpt>
      <trkpt lat="47.02032" lon="8.90007">
        <ele>1166</ele>
        <time>2021-08-03T09:44:59.322Z</time>
      </trkpt>
      <trkpt lat="47.02031" lon="8.90006">
        <ele>1166</ele>
        <time>2021-08-03T09:45:00.321Z</time>
      </trkpt>
      <trkpt lat="47.0203" lon="8.90004">
        <ele>1167</ele>
        <time>2021-08-03T09:45:01.321Z</time>
      </trkpt>
      <trkpt lat="47.02029" lon="8.90004">
        <ele>1168</ele>
        <time>2021-08-03T09:45:02.321Z</time>
      </trkpt>
      <trkpt lat="47.02029" lon="8.90004">
        <ele>1168</ele>
        <time>2021-08-03T09:45:03.322Z</time>
      </trkpt>
      <trkpt lat="47.02029" lon="8.90005">
        <ele>1169</ele>
        <time>2021-08-03T09:45:04.322Z</time>
      </trkpt>
      <trkpt lat="47.02027" lon="8.90008">
        <ele>1169</ele>
        <time>2021-08-03T09:45:05.322Z</time>
      </trkpt>
      <trkpt lat="47.02026" lon="8.90007">
        <ele>1169</ele>
        <time>2021-08-03T09:45:06.322Z</time>
      </trkpt>
      <trkpt lat="47.02026" lon="8.90008">
        <ele>1169</ele>
        <time>2021-08-03T09:45:07.322Z</time>
      </trkpt>
      <trkpt lat="47.02025" lon="8.90009">
        <ele>1169</ele>
        <time>2021-08-03T09:45:08.321Z</time>
      </trkpt>
      <trkpt lat="47.02024" lon="8.9001">
        <ele>1173</ele>
        <time>2021-08-03T09:45:09.321Z</time>
      </trkpt>
      <trkpt lat="47.02024" lon="8.90009">
        <ele>1175</ele>
        <time>2021-08-03T09:45:10.322Z</time>
      </trkpt>
      <trkpt lat="47.02024" lon="8.90009">
        <ele>1176</ele>
        <time>2021-08-03T09:45:11.322Z</time>
      </trkpt>
      <trkpt lat="47.02024" lon="8.90008">
        <ele>1178</ele>
        <time>2021-08-03T09:45:12.322Z</time>
      </trkpt>
      <trkpt lat="47.02024" lon="8.90007">
        <ele>1179</ele>
        <time>2021-08-03T09:45:13.321Z</time>
      </trkpt>
      <trkpt lat="47.02024" lon="8.90007">
        <ele>1180</ele>
        <time>2021-08-03T09:45:14.322Z</time>
      </trkpt>
      <trkpt lat="47.02024" lon="8.90006">
        <ele>1181</ele>
        <time>2021-08-03T09:45:15.322Z</time>
      </trkpt>
      <trkpt lat="47.02024" lon="8.90005">
        <ele>1182</ele>
        <time>2021-08-03T09:45:16.322Z</time>
      </trkpt>
      <trkpt lat="47.02023" lon="8.90004">
        <ele>1182</ele>
        <time>2021-08-03T09:45:17.321Z</time>
      </trkpt>
      <trkpt lat="47.02023" lon="8.90003">
        <ele>1183</ele>
        <time>2021-08-03T09:45:18.322Z</time>
      </trkpt>
      <trkpt lat="47.02023" lon="8.90003">
        <ele>1183</ele>
        <time>2021-08-03T09:45:19.322Z</time>
      </trkpt>
      <trkpt lat="47.02023" lon="8.90002">
        <ele>1184</ele>
        <time>2021-08-03T09:45:20.322Z</time>
      </trkpt>
      <trkpt lat="47.02024" lon="8.90002">
        <ele>1184</ele>
        <time>2021-08-03T09:45:21.321Z</time>
      </trkpt>
      <trkpt lat="47.02024" lon="8.90001">
        <ele>1184</ele>
        <time>2021-08-03T09:45:22.322Z</time>
      </trkpt>
      <trkpt lat="47.02024" lon="8.9">
        <ele>1183</ele>
        <time>2021-08-03T09:45:23.322Z</time>
      </trkpt>
      <trkpt lat="47.02024" lon="8.89998">
        <ele>1183</ele>
        <time>2021-08-03T09:45:24.322Z</time>
      </trkpt>
      <trkpt lat="47.02023" lon="8.89997">
        <ele>1182</ele>
        <time>2021-08-03T09:45:25.322Z</time>
      </trkpt>
      <trkpt lat="47.02023" lon="8.89996">
        <ele>1182</ele>
        <time>2021-08-03T09:45:26.322Z</time>
      </trkpt>
      <trkpt lat="47.02022" lon="8.89995">
        <ele>1181</ele>
        <time>2021-08-03T09:45:27.323Z</time>
      </trkpt>
      <trkpt lat="47.02022" lon="8.89995">
        <ele>1181</ele>
        <time>2021-08-03T09:45:28.323Z</time>
      </trkpt>
      <trkpt lat="47.02021" lon="8.89994">
        <ele>1180</ele>
        <time>2021-08-03T09:45:29.323Z</time>
      </trkpt>
      <trkpt lat="47.02021" lon="8.89993">
        <ele>1180</ele>
        <time>2021-08-03T09:45:30.323Z</time>
      </trkpt>
      <trkpt lat="47.0202" lon="8.89993">
        <ele>1179</ele>
        <time>2021-08-03T09:45:31.322Z</time>
      </trkpt>
      <trkpt lat="47.02019" lon="8.89994">
        <ele>1179</ele>
        <time>2021-08-03T09:45:32.322Z</time>
      </trkpt>
      <trkpt lat="47.0202" lon="8.89993">
        <ele>1179</ele>
        <time>2021-08-03T09:45:33.323Z</time>
      </trkpt>
      <trkpt lat="47.02019" lon="8.89993">
        <ele>1178</ele>
        <time>2021-08-03T09:45:34.323Z</time>
      </trkpt>
      <trkpt lat="47.02019" lon="8.89992">
        <ele>1178</ele>
        <time>2021-08-03T09:45:35.323Z</time>
      </trkpt>
      <trkpt lat="47.02019" lon="8.89991">
        <ele>1177</ele>
        <time>2021-08-03T09:45:36.322Z</time>
      </trkpt>
      <trkpt lat="47.02019" lon="8.8999">
        <ele>1177</ele>
        <time>2021-08-03T09:45:37.323Z</time>
      </trkpt>
      <trkpt lat="47.02019" lon="8.89989">
        <ele>1177</ele>
        <time>2021-08-03T09:45:38.323Z</time>
      </trkpt>
      <trkpt lat="47.02019" lon="8.89988">
        <ele>1177</ele>
        <time>2021-08-03T09:45:39.323Z</time>
      </trkpt>
      <trkpt lat="47.02019" lon="8.89987">
        <ele>1176</ele>
        <time>2021-08-03T09:45:40.323Z</time>
      </trkpt>
      <trkpt lat="47.02019" lon="8.89986">
        <ele>1176</ele>
        <time>2021-08-03T09:45:41.322Z</time>
      </trkpt>
      <trkpt lat="47.02019" lon="8.89985">
        <ele>1176</ele>
        <time>2021-08-03T09:45:42.323Z</time>
      </trkpt>
      <trkpt lat="47.02018" lon="8.89985">
        <ele>1176</ele>
        <time>2021-08-03T09:45:43.323Z</time>
      </trkpt>
      <trkpt lat="47.02018" lon="8.89985">
        <ele>1175</ele>
        <time>2021-08-03T09:45:44.323Z</time>
      </trkpt>
      <trkpt lat="47.02018" lon="8.89985">
        <ele>1174</ele>
        <time>2021-08-03T09:45:45.323Z</time>
      </trkpt>
      <trkpt lat="47.02017" lon="8.89984">
        <ele>1174</ele>
        <time>2021-08-03T09:45:46.323Z</time>
      </trkpt>
      <trkpt lat="47.02017" lon="8.89983">
        <ele>1173</ele>
        <time>2021-08-03T09:45:47.323Z</time>
      </trkpt>
      <trkpt lat="47.02016" lon="8.89982">
        <ele>1172</ele>
        <time>2021-08-03T09:45:48.323Z</time>
      </trkpt>
      <trkpt lat="47.02016" lon="8.89981">
        <ele>1171</ele>
        <time>2021-08-03T09:45:49.323Z</time>
      </trkpt>
      <trkpt lat="47.02016" lon="8.89981">
        <ele>1171</ele>
        <time>2021-08-03T09:45:50.323Z</time>
      </trkpt>
      <trkpt lat="47.02015" lon="8.8998">
        <ele>1170</ele>
        <time>2021-08-03T09:45:51.323Z</time>
      </trkpt>
      <trkpt lat="47.02015" lon="8.89978">
        <ele>1170</ele>
        <time>2021-08-03T09:45:52.323Z</time>
      </trkpt>
      <trkpt lat="47.02015" lon="8.89977">
        <ele>1170</ele>
        <time>2021-08-03T09:45:53.323Z</time>
      </trkpt>
      <trkpt lat="47.02014" lon="8.89976">
        <ele>1169</ele>
        <time>2021-08-03T09:45:54.323Z</time>
      </trkpt>
      <trkpt lat="47.02014" lon="8.89975">
        <ele>1169</ele>
        <time>2021-08-03T09:45:55.323Z</time>
      </trkpt>
      <trkpt lat="47.02014" lon="8.89973">
        <ele>1169</ele>
        <time>2021-08-03T09:45:56.323Z</time>
      </trkpt>
      <trkpt lat="47.02014" lon="8.89972">
        <ele>1169</ele>
        <time>2021-08-03T09:45:57.323Z</time>
      </trkpt>
      <trkpt lat="47.02014" lon="8.8997">
        <ele>1169</ele>
        <time>2021-08-03T09:45:58.323Z</time>
      </trkpt>
      <trkpt lat="47.02014" lon="8.89968">
        <ele>1169</ele>
        <time>2021-08-03T09:45:59.323Z</time>
      </trkpt>
      <trkpt lat="47.02015" lon="8.89967">
        <ele>1169</ele>
        <time>2021-08-03T09:46:00.323Z</time>
      </trkpt>
      <trkpt lat="47.02015" lon="8.89966">
        <ele>1169</ele>
        <time>2021-08-03T09:46:01.323Z</time>
      </trkpt>
      <trkpt lat="47.02014" lon="8.89966">
        <ele>1169</ele>
        <time>2021-08-03T09:46:02.323Z</time>
      </trkpt>
      <trkpt lat="47.02014" lon="8.89964">
        <ele>1169</ele>
        <time>2021-08-03T09:46:03.323Z</time>
      </trkpt>
      <trkpt lat="47.02013" lon="8.89963">
        <ele>1169</ele>
        <time>2021-08-03T09:46:04.323Z</time>
      </trkpt>
      <trkpt lat="47.02012" lon="8.89963">
        <ele>1169</ele>
        <time>2021-08-03T09:46:05.323Z</time>
      </trkpt>
      <trkpt lat="47.02012" lon="8.89962">
        <ele>1169</ele>
        <time>2021-08-03T09:46:06.322Z</time>
      </trkpt>
      <trkpt lat="47.02012" lon="8.8996">
        <ele>1168</ele>
        <time>2021-08-03T09:46:07.322Z</time>
      </trkpt>
      <trkpt lat="47.02012" lon="8.89959">
        <ele>1168</ele>
        <time>2021-08-03T09:46:08.323Z</time>
      </trkpt>
      <trkpt lat="47.02012" lon="8.89958">
        <ele>1168</ele>
        <time>2021-08-03T09:46:09.322Z</time>
      </trkpt>
      <trkpt lat="47.02012" lon="8.89957">
        <ele>1168</ele>
        <time>2021-08-03T09:46:10.323Z</time>
      </trkpt>
      <trkpt lat="47.02012" lon="8.89956">
        <ele>1168</ele>
        <time>2021-08-03T09:46:11.322Z</time>
      </trkpt>
      <trkpt lat="47.02012" lon="8.89955">
        <ele>1168</ele>
        <time>2021-08-03T09:46:12.323Z</time>
      </trkpt>
      <trkpt lat="47.02011" lon="8.89954">
        <ele>1168</ele>
        <time>2021-08-03T09:46:13.322Z</time>
      </trkpt>
      <trkpt lat="47.02011" lon="8.89952">
        <ele>1168</ele>
        <time>2021-08-03T09:46:14.323Z</time>
      </trkpt>
      <trkpt lat="47.0201" lon="8.89951">
        <ele>1168</ele>
        <time>2021-08-03T09:46:15.322Z</time>
      </trkpt>
      <trkpt lat="47.0201" lon="8.89949">
        <ele>1167</ele>
        <time>2021-08-03T09:46:16.322Z</time>
      </trkpt>
      <trkpt lat="47.0201" lon="8.89948">
        <ele>1166</ele>
        <time>2021-08-03T09:46:17.323Z</time>
      </trkpt>
      <trkpt lat="47.0201" lon="8.89946">
        <ele>1166</ele>
        <time>2021-08-03T09:46:18.323Z</time>
      </trkpt>
      <trkpt lat="47.0201" lon="8.89944">
        <ele>1165</ele>
        <time>2021-08-03T09:46:19.322Z</time>
      </trkpt>
      <trkpt lat="47.02011" lon="8.89943">
        <ele>1165</ele>
        <time>2021-08-03T09:46:20.322Z</time>
      </trkpt>
      <trkpt lat="47.02012" lon="8.89941">
        <ele>1165</ele>
        <time>2021-08-03T09:46:21.323Z</time>
      </trkpt>
      <trkpt lat="47.02012" lon="8.8994">
        <ele>1165</ele>
        <time>2021-08-03T09:46:22.323Z</time>
      </trkpt>
      <trkpt lat="47.02012" lon="8.89938">
        <ele>1166</ele>
        <time>2021-08-03T09:46:23.323Z</time>
      </trkpt>
      <trkpt lat="47.02012" lon="8.89937">
        <ele>1166</ele>
        <time>2021-08-03T09:46:24.323Z</time>
      </trkpt>
      <trkpt lat="47.02012" lon="8.89935">
        <ele>1167</ele>
        <time>2021-08-03T09:46:25.322Z</time>
      </trkpt>
      <trkpt lat="47.02012" lon="8.89934">
        <ele>1168</ele>
        <time>2021-08-03T09:46:26.322Z</time>
      </trkpt>
      <trkpt lat="47.02012" lon="8.89934">
        <ele>1168</ele>
        <time>2021-08-03T09:46:27.323Z</time>
      </trkpt>
      <trkpt lat="47.02012" lon="8.89933">
        <ele>1169</ele>
        <time>2021-08-03T09:46:28.323Z</time>
      </trkpt>
      <trkpt lat="47.02013" lon="8.89933">
        <ele>1170</ele>
        <time>2021-08-03T09:46:29.322Z</time>
      </trkpt>
      <trkpt lat="47.02013" lon="8.89932">
        <ele>1170</ele>
        <time>2021-08-03T09:46:30.323Z</time>
      </trkpt>
      <trkpt lat="47.02014" lon="8.89931">
        <ele>1171</ele>
        <time>2021-08-03T09:46:31.322Z</time>
      </trkpt>
      <trkpt lat="47.02014" lon="8.89931">
        <ele>1172</ele>
        <time>2021-08-03T09:46:32.322Z</time>
      </trkpt>
      <trkpt lat="47.02013" lon="8.89931">
        <ele>1173</ele>
        <time>2021-08-03T09:46:33.323Z</time>
      </trkpt>
      <trkpt lat="47.02014" lon="8.8993">
        <ele>1174</ele>
        <time>2021-08-03T09:46:34.322Z</time>
      </trkpt>
      <trkpt lat="47.02014" lon="8.89929">
        <ele>1174</ele>
        <time>2021-08-03T09:46:35.323Z</time>
      </trkpt>
      <trkpt lat="47.02013" lon="8.89926">
        <ele>1175</ele>
        <time>2021-08-03T09:46:36.323Z</time>
      </trkpt>
      <trkpt lat="47.02013" lon="8.89924">
        <ele>1175</ele>
        <time>2021-08-03T09:46:37.323Z</time>
      </trkpt>
      <trkpt lat="47.02013" lon="8.89923">
        <ele>1174</ele>
        <time>2021-08-03T09:46:38.323Z</time>
      </trkpt>
      <trkpt lat="47.02013" lon="8.89922">
        <ele>1173</ele>
        <time>2021-08-03T09:46:39.323Z</time>
      </trkpt>
      <trkpt lat="47.02013" lon="8.89921">
        <ele>1173</ele>
        <time>2021-08-03T09:46:40.323Z</time>
      </trkpt>
      <trkpt lat="47.02013" lon="8.89919">
        <ele>1172</ele>
        <time>2021-08-03T09:46:41.323Z</time>
      </trkpt>
      <trkpt lat="47.02012" lon="8.89918">
        <ele>1172</ele>
        <time>2021-08-03T09:46:42.322Z</time>
      </trkpt>
      <trkpt lat="47.02012" lon="8.89916">
        <ele>1171</ele>
        <time>2021-08-03T09:46:43.322Z</time>
      </trkpt>
      <trkpt lat="47.02012" lon="8.89914">
        <ele>1170</ele>
        <time>2021-08-03T09:46:44.322Z</time>
      </trkpt>
      <trkpt lat="47.02012" lon="8.89913">
        <ele>1169</ele>
        <time>2021-08-03T09:46:45.323Z</time>
      </trkpt>
      <trkpt lat="47.02012" lon="8.8991">
        <ele>1168</ele>
        <time>2021-08-03T09:46:46.323Z</time>
      </trkpt>
      <trkpt lat="47.02011" lon="8.89908">
        <ele>1167</ele>
        <time>2021-08-03T09:46:47.323Z</time>
      </trkpt>
      <trkpt lat="47.0201" lon="8.89907">
        <ele>1167</ele>
        <time>2021-08-03T09:46:48.323Z</time>
      </trkpt>
      <trkpt lat="47.0201" lon="8.89904">
        <ele>1167</ele>
        <time>2021-08-03T09:46:49.323Z</time>
      </trkpt>
      <trkpt lat="47.02009" lon="8.89902">
        <ele>1167</ele>
        <time>2021-08-03T09:46:50.323Z</time>
      </trkpt>
      <trkpt lat="47.02008" lon="8.899">
        <ele>1167</ele>
        <time>2021-08-03T09:46:51.323Z</time>
      </trkpt>
      <trkpt lat="47.02008" lon="8.89898">
        <ele>1167</ele>
        <time>2021-08-03T09:46:52.322Z</time>
      </trkpt>
      <trkpt lat="47.02008" lon="8.89896">
        <ele>1167</ele>
        <time>2021-08-03T09:46:53.322Z</time>
      </trkpt>
      <trkpt lat="47.02008" lon="8.89893">
        <ele>1168</ele>
        <time>2021-08-03T09:46:54.322Z</time>
      </trkpt>
      <trkpt lat="47.02009" lon="8.89891">
        <ele>1168</ele>
        <time>2021-08-03T09:46:55.323Z</time>
      </trkpt>
      <trkpt lat="47.02009" lon="8.89889">
        <ele>1168</ele>
        <time>2021-08-03T09:46:56.323Z</time>
      </trkpt>
      <trkpt lat="47.02009" lon="8.89888">
        <ele>1169</ele>
        <time>2021-08-03T09:46:57.322Z</time>
      </trkpt>
      <trkpt lat="47.02009" lon="8.89887">
        <ele>1169</ele>
        <time>2021-08-03T09:46:58.323Z</time>
      </trkpt>
      <trkpt lat="47.02009" lon="8.89884">
        <ele>1169</ele>
        <time>2021-08-03T09:46:59.323Z</time>
      </trkpt>
      <trkpt lat="47.02009" lon="8.89882">
        <ele>1169</ele>
        <time>2021-08-03T09:47:00.323Z</time>
      </trkpt>
      <trkpt lat="47.02009" lon="8.8988">
        <ele>1170</ele>
        <time>2021-08-03T09:47:01.323Z</time>
      </trkpt>
      <trkpt lat="47.02009" lon="8.89878">
        <ele>1170</ele>
        <time>2021-08-03T09:47:02.322Z</time>
      </trkpt>
      <trkpt lat="47.02008" lon="8.89877">
        <ele>1170</ele>
        <time>2021-08-03T09:47:03.323Z</time>
      </trkpt>
      <trkpt lat="47.02008" lon="8.89875">
        <ele>1170</ele>
        <time>2021-08-03T09:47:04.323Z</time>
      </trkpt>
      <trkpt lat="47.02008" lon="8.89874">
        <ele>1170</ele>
        <time>2021-08-03T09:47:05.322Z</time>
      </trkpt>
      <trkpt lat="47.02009" lon="8.89873">
        <ele>1169</ele>
        <time>2021-08-03T09:47:06.323Z</time>
      </trkpt>
      <trkpt lat="47.02009" lon="8.89872">
        <ele>1168</ele>
        <time>2021-08-03T09:47:07.323Z</time>
      </trkpt>
      <trkpt lat="47.02008" lon="8.89872">
        <ele>1167</ele>
        <time>2021-08-03T09:47:08.322Z</time>
      </trkpt>
      <trkpt lat="47.02006" lon="8.89871">
        <ele>1162</ele>
        <time>2021-08-03T09:47:09.322Z</time>
      </trkpt>
      <trkpt lat="47.02006" lon="8.89871">
        <ele>1162</ele>
        <time>2021-08-03T09:47:10.323Z</time>
      </trkpt>
      <trkpt lat="47.02006" lon="8.89872">
        <ele>1161</ele>
        <time>2021-08-03T09:47:11.322Z</time>
      </trkpt>
      <trkpt lat="47.02004" lon="8.89875">
        <ele>1160</ele>
        <time>2021-08-03T09:47:12.322Z</time>
      </trkpt>
      <trkpt lat="47.02004" lon="8.89874">
        <ele>1160</ele>
        <time>2021-08-03T09:47:13.323Z</time>
      </trkpt>
      <trkpt lat="47.02003" lon="8.89874">
        <ele>1159</ele>
        <time>2021-08-03T09:47:14.322Z</time>
      </trkpt>
      <trkpt lat="47.02003" lon="8.89873">
        <ele>1159</ele>
        <time>2021-08-03T09:47:15.323Z</time>
      </trkpt>
      <trkpt lat="47.02004" lon="8.89871">
        <ele>1158</ele>
        <time>2021-08-03T09:47:19.323Z</time>
      </trkpt>
      <trkpt lat="47.02003" lon="8.89871">
        <ele>1158</ele>
        <time>2021-08-03T09:47:20.323Z</time>
      </trkpt>
      <trkpt lat="47.02004" lon="8.89872">
        <ele>1157</ele>
        <time>2021-08-03T09:47:21.322Z</time>
      </trkpt>
      <trkpt lat="47.02003" lon="8.89873">
        <ele>1157</ele>
        <time>2021-08-03T09:47:22.323Z</time>
      </trkpt>
      <trkpt lat="47.02003" lon="8.89873">
        <ele>1157</ele>
        <time>2021-08-03T09:47:23.323Z</time>
      </trkpt>
      <trkpt lat="47.02003" lon="8.89875">
        <ele>1157</ele>
        <time>2021-08-03T09:47:24.324Z</time>
      </trkpt>
      <trkpt lat="47.02003" lon="8.89876">
        <ele>1157</ele>
        <time>2021-08-03T09:47:25.324Z</time>
      </trkpt>
      <trkpt lat="47.02002" lon="8.89877">
        <ele>1158</ele>
        <time>2021-08-03T09:47:26.323Z</time>
      </trkpt>
      <trkpt lat="47.02002" lon="8.89878">
        <ele>1158</ele>
        <time>2021-08-03T09:47:27.324Z</time>
      </trkpt>
      <trkpt lat="47.02003" lon="8.89877">
        <ele>1158</ele>
        <time>2021-08-03T09:47:28.323Z</time>
      </trkpt>
      <trkpt lat="47.02003" lon="8.89875">
        <ele>1158</ele>
        <time>2021-08-03T09:47:29.324Z</time>
      </trkpt>
      <trkpt lat="47.02004" lon="8.89874">
        <ele>1158</ele>
        <time>2021-08-03T09:47:30.324Z</time>
      </trkpt>
      <trkpt lat="47.02004" lon="8.89874">
        <ele>1159</ele>
        <time>2021-08-03T09:47:31.323Z</time>
      </trkpt>
      <trkpt lat="47.02003" lon="8.89872">
        <ele>1158</ele>
        <time>2021-08-03T09:47:32.323Z</time>
      </trkpt>
      <trkpt lat="47.02003" lon="8.89871">
        <ele>1158</ele>
        <time>2021-08-03T09:47:33.324Z</time>
      </trkpt>
      <trkpt lat="47.02007" lon="8.89864">
        <ele>1162</ele>
        <time>2021-08-03T09:47:34.325Z</time>
      </trkpt>
      <trkpt lat="47.02008" lon="8.89863">
        <ele>1163</ele>
        <time>2021-08-03T09:47:35.326Z</time>
      </trkpt>
      <trkpt lat="47.02005" lon="8.89859">
        <ele>1168</ele>
        <time>2021-08-03T09:47:36.326Z</time>
      </trkpt>
      <trkpt lat="47.02005" lon="8.89858">
        <ele>1168</ele>
        <time>2021-08-03T09:47:37.326Z</time>
      </trkpt>
      <trkpt lat="47.02005" lon="8.89857">
        <ele>1169</ele>
        <time>2021-08-03T09:47:38.325Z</time>
      </trkpt>
      <trkpt lat="47.02002" lon="8.89847">
        <ele>1176</ele>
        <time>2021-08-03T09:47:39.326Z</time>
      </trkpt>
      <trkpt lat="47.02002" lon="8.89846">
        <ele>1177</ele>
        <time>2021-08-03T09:47:40.327Z</time>
      </trkpt>
      <trkpt lat="47.02003" lon="8.89847">
        <ele>1177</ele>
        <time>2021-08-03T09:47:41.326Z</time>
      </trkpt>
      <trkpt lat="47.02004" lon="8.89847">
        <ele>1176</ele>
        <time>2021-08-03T09:47:42.326Z</time>
      </trkpt>
      <trkpt lat="47.02005" lon="8.89848">
        <ele>1176</ele>
        <time>2021-08-03T09:47:43.327Z</time>
      </trkpt>
      <trkpt lat="47.02005" lon="8.89848">
        <ele>1175</ele>
        <time>2021-08-03T09:47:44.326Z</time>
      </trkpt>
      <trkpt lat="47.02005" lon="8.89848">
        <ele>1175</ele>
        <time>2021-08-03T09:47:45.326Z</time>
      </trkpt>
      <trkpt lat="47.02005" lon="8.89847">
        <ele>1174</ele>
        <time>2021-08-03T09:47:46.326Z</time>
      </trkpt>
      <trkpt lat="47.02005" lon="8.89847">
        <ele>1174</ele>
        <time>2021-08-03T09:47:47.326Z</time>
      </trkpt>
      <trkpt lat="47.02005" lon="8.89846">
        <ele>1174</ele>
        <time>2021-08-03T09:47:48.326Z</time>
      </trkpt>
      <trkpt lat="47.02005" lon="8.89845">
        <ele>1173</ele>
        <time>2021-08-03T09:47:49.327Z</time>
      </trkpt>
      <trkpt lat="47.02006" lon="8.89844">
        <ele>1173</ele>
        <time>2021-08-03T09:47:50.326Z</time>
      </trkpt>
      <trkpt lat="47.02007" lon="8.89843">
        <ele>1173</ele>
        <time>2021-08-03T09:47:51.326Z</time>
      </trkpt>
      <trkpt lat="47.02007" lon="8.89843">
        <ele>1173</ele>
        <time>2021-08-03T09:47:52.326Z</time>
      </trkpt>
      <trkpt lat="47.02007" lon="8.89843">
        <ele>1173</ele>
        <time>2021-08-03T09:47:53.326Z</time>
      </trkpt>
      <trkpt lat="47.02007" lon="8.89843">
        <ele>1173</ele>
        <time>2021-08-03T09:47:54.326Z</time>
      </trkpt>
      <trkpt lat="47.02007" lon="8.89843">
        <ele>1173</ele>
        <time>2021-08-03T09:47:55.327Z</time>
      </trkpt>
      <trkpt lat="47.02006" lon="8.89843">
        <ele>1173</ele>
        <time>2021-08-03T09:47:56.326Z</time>
      </trkpt>
      <trkpt lat="47.02006" lon="8.89844">
        <ele>1173</ele>
        <time>2021-08-03T09:47:57.327Z</time>
      </trkpt>
      <trkpt lat="47.02006" lon="8.89844">
        <ele>1173</ele>
        <time>2021-08-03T09:47:58.326Z</time>
      </trkpt>
      <trkpt lat="47.02005" lon="8.89843">
        <ele>1173</ele>
        <time>2021-08-03T09:47:59.327Z</time>
      </trkpt>
      <trkpt lat="47.02005" lon="8.89842">
        <ele>1173</ele>
        <time>2021-08-03T09:48:00.327Z</time>
      </trkpt>
      <trkpt lat="47.02005" lon="8.8984">
        <ele>1172</ele>
        <time>2021-08-03T09:48:01.327Z</time>
      </trkpt>
      <trkpt lat="47.02005" lon="8.8984">
        <ele>1172</ele>
        <time>2021-08-03T09:48:02.326Z</time>
      </trkpt>
      <trkpt lat="47.02005" lon="8.89839">
        <ele>1172</ele>
        <time>2021-08-03T09:48:03.326Z</time>
      </trkpt>
      <trkpt lat="47.02004" lon="8.89839">
        <ele>1171</ele>
        <time>2021-08-03T09:48:04.327Z</time>
      </trkpt>
      <trkpt lat="47.02004" lon="8.89838">
        <ele>1171</ele>
        <time>2021-08-03T09:48:05.327Z</time>
      </trkpt>
      <trkpt lat="47.02004" lon="8.89838">
        <ele>1171</ele>
        <time>2021-08-03T09:48:06.327Z</time>
      </trkpt>
      <trkpt lat="47.02003" lon="8.89838">
        <ele>1171</ele>
        <time>2021-08-03T09:48:07.326Z</time>
      </trkpt>
      <trkpt lat="47.02002" lon="8.89838">
        <ele>1172</ele>
        <time>2021-08-03T09:48:08.327Z</time>
      </trkpt>
      <trkpt lat="47.02002" lon="8.89838">
        <ele>1172</ele>
        <time>2021-08-03T09:48:09.326Z</time>
      </trkpt>
      <trkpt lat="47.02002" lon="8.89837">
        <ele>1172</ele>
        <time>2021-08-03T09:48:10.327Z</time>
      </trkpt>
      <trkpt lat="47.02002" lon="8.89837">
        <ele>1172</ele>
        <time>2021-08-03T09:48:11.327Z</time>
      </trkpt>
      <trkpt lat="47.02002" lon="8.89837">
        <ele>1173</ele>
        <time>2021-08-03T09:48:12.326Z</time>
      </trkpt>
      <trkpt lat="47.02002" lon="8.89836">
        <ele>1173</ele>
        <time>2021-08-03T09:48:13.326Z</time>
      </trkpt>
      <trkpt lat="47.02002" lon="8.89836">
        <ele>1173</ele>
        <time>2021-08-03T09:48:14.326Z</time>
      </trkpt>
      <trkpt lat="47.02001" lon="8.89835">
        <ele>1173</ele>
        <time>2021-08-03T09:48:15.326Z</time>
      </trkpt>
      <trkpt lat="47.02001" lon="8.89835">
        <ele>1174</ele>
        <time>2021-08-03T09:48:16.327Z</time>
      </trkpt>
      <trkpt lat="47.02001" lon="8.89835">
        <ele>1174</ele>
        <time>2021-08-03T09:48:17.326Z</time>
      </trkpt>
      <trkpt lat="47.02" lon="8.89834">
        <ele>1174</ele>
        <time>2021-08-03T09:48:18.327Z</time>
      </trkpt>
      <trkpt lat="47.02001" lon="8.89833">
        <ele>1174</ele>
        <time>2021-08-03T09:48:19.326Z</time>
      </trkpt>
      <trkpt lat="47.02001" lon="8.89832">
        <ele>1174</ele>
        <time>2021-08-03T09:48:20.327Z</time>
      </trkpt>
      <trkpt lat="47.02002" lon="8.89831">
        <ele>1175</ele>
        <time>2021-08-03T09:48:21.326Z</time>
      </trkpt>
      <trkpt lat="47.02002" lon="8.8983">
        <ele>1175</ele>
        <time>2021-08-03T09:48:22.327Z</time>
      </trkpt>
      <trkpt lat="47.02003" lon="8.89828">
        <ele>1175</ele>
        <time>2021-08-03T09:48:23.326Z</time>
      </trkpt>
      <trkpt lat="47.02003" lon="8.89826">
        <ele>1176</ele>
        <time>2021-08-03T09:48:24.327Z</time>
      </trkpt>
      <trkpt lat="47.02003" lon="8.89824">
        <ele>1176</ele>
        <time>2021-08-03T09:48:25.327Z</time>
      </trkpt>
      <trkpt lat="47.02003" lon="8.89823">
        <ele>1177</ele>
        <time>2021-08-03T09:48:26.327Z</time>
      </trkpt>
      <trkpt lat="47.02003" lon="8.89822">
        <ele>1178</ele>
        <time>2021-08-03T09:48:27.327Z</time>
      </trkpt>
      <trkpt lat="47.02003" lon="8.89822">
        <ele>1179</ele>
        <time>2021-08-03T09:48:28.326Z</time>
      </trkpt>
      <trkpt lat="47.02003" lon="8.8982">
        <ele>1179</ele>
        <time>2021-08-03T09:48:29.326Z</time>
      </trkpt>
      <trkpt lat="47.02002" lon="8.89818">
        <ele>1179</ele>
        <time>2021-08-03T09:48:30.327Z</time>
      </trkpt>
      <trkpt lat="47.02002" lon="8.89816">
        <ele>1180</ele>
        <time>2021-08-03T09:48:31.327Z</time>
      </trkpt>
      <trkpt lat="47.02002" lon="8.89814">
        <ele>1180</ele>
        <time>2021-08-03T09:48:32.327Z</time>
      </trkpt>
      <trkpt lat="47.02002" lon="8.89813">
        <ele>1179</ele>
        <time>2021-08-03T09:48:33.327Z</time>
      </trkpt>
      <trkpt lat="47.02003" lon="8.89811">
        <ele>1179</ele>
        <time>2021-08-03T09:48:34.327Z</time>
      </trkpt>
      <trkpt lat="47.02002" lon="8.8981">
        <ele>1178</ele>
        <time>2021-08-03T09:48:35.327Z</time>
      </trkpt>
      <trkpt lat="47.02003" lon="8.89808">
        <ele>1178</ele>
        <time>2021-08-03T09:48:36.327Z</time>
      </trkpt>
      <trkpt lat="47.02003" lon="8.89807">
        <ele>1178</ele>
        <time>2021-08-03T09:48:37.327Z</time>
      </trkpt>
      <trkpt lat="47.02003" lon="8.89806">
        <ele>1178</ele>
        <time>2021-08-03T09:48:38.327Z</time>
      </trkpt>
      <trkpt lat="47.02003" lon="8.89805">
        <ele>1178</ele>
        <time>2021-08-03T09:48:39.327Z</time>
      </trkpt>
      <trkpt lat="47.01998" lon="8.89796">
        <ele>1183</ele>
        <time>2021-08-03T09:48:40.327Z</time>
      </trkpt>
      <trkpt lat="47.01998" lon="8.89794">
        <ele>1183</ele>
        <time>2021-08-03T09:48:41.326Z</time>
      </trkpt>
      <trkpt lat="47.01999" lon="8.89792">
        <ele>1183</ele>
        <time>2021-08-03T09:48:42.326Z</time>
      </trkpt>
      <trkpt lat="47.01999" lon="8.89791">
        <ele>1183</ele>
        <time>2021-08-03T09:48:43.327Z</time>
      </trkpt>
      <trkpt lat="47.01999" lon="8.8979">
        <ele>1183</ele>
        <time>2021-08-03T09:48:44.327Z</time>
      </trkpt>
      <trkpt lat="47.01999" lon="8.89789">
        <ele>1183</ele>
        <time>2021-08-03T09:48:45.326Z</time>
      </trkpt>
      <trkpt lat="47.01999" lon="8.89788">
        <ele>1182</ele>
        <time>2021-08-03T09:48:46.326Z</time>
      </trkpt>
      <trkpt lat="47.01999" lon="8.89787">
        <ele>1182</ele>
        <time>2021-08-03T09:48:47.327Z</time>
      </trkpt>
      <trkpt lat="47.01999" lon="8.89786">
        <ele>1182</ele>
        <time>2021-08-03T09:48:48.327Z</time>
      </trkpt>
      <trkpt lat="47.01999" lon="8.89785">
        <ele>1181</ele>
        <time>2021-08-03T09:48:49.326Z</time>
      </trkpt>
      <trkpt lat="47.01998" lon="8.89783">
        <ele>1181</ele>
        <time>2021-08-03T09:48:50.327Z</time>
      </trkpt>
      <trkpt lat="47.01999" lon="8.89782">
        <ele>1180</ele>
        <time>2021-08-03T09:48:51.326Z</time>
      </trkpt>
      <trkpt lat="47.01999" lon="8.89781">
        <ele>1180</ele>
        <time>2021-08-03T09:48:52.327Z</time>
      </trkpt>
      <trkpt lat="47.01999" lon="8.8978">
        <ele>1179</ele>
        <time>2021-08-03T09:48:53.327Z</time>
      </trkpt>
      <trkpt lat="47.01999" lon="8.89779">
        <ele>1179</ele>
        <time>2021-08-03T09:48:54.327Z</time>
      </trkpt>
      <trkpt lat="47.01999" lon="8.89778">
        <ele>1179</ele>
        <time>2021-08-03T09:48:55.326Z</time>
      </trkpt>
      <trkpt lat="47.01999" lon="8.89777">
        <ele>1178</ele>
        <time>2021-08-03T09:48:56.326Z</time>
      </trkpt>
      <trkpt lat="47.01999" lon="8.89776">
        <ele>1178</ele>
        <time>2021-08-03T09:48:57.327Z</time>
      </trkpt>
      <trkpt lat="47.01999" lon="8.89774">
        <ele>1178</ele>
        <time>2021-08-03T09:48:58.326Z</time>
      </trkpt>
      <trkpt lat="47.01999" lon="8.89773">
        <ele>1178</ele>
        <time>2021-08-03T09:48:59.326Z</time>
      </trkpt>
      <trkpt lat="47.01999" lon="8.89771">
        <ele>1177</ele>
        <time>2021-08-03T09:49:00.327Z</time>
      </trkpt>
      <trkpt lat="47.01999" lon="8.8977">
        <ele>1177</ele>
        <time>2021-08-03T09:49:01.326Z</time>
      </trkpt>
      <trkpt lat="47.02" lon="8.89769">
        <ele>1177</ele>
        <time>2021-08-03T09:49:02.327Z</time>
      </trkpt>
      <trkpt lat="47.02" lon="8.89767">
        <ele>1178</ele>
        <time>2021-08-03T09:49:03.326Z</time>
      </trkpt>
      <trkpt lat="47.02" lon="8.89766">
        <ele>1178</ele>
        <time>2021-08-03T09:49:04.326Z</time>
      </trkpt>
      <trkpt lat="47.02001" lon="8.89764">
        <ele>1178</ele>
        <time>2021-08-03T09:49:05.326Z</time>
      </trkpt>
      <trkpt lat="47.02001" lon="8.89762">
        <ele>1178</ele>
        <time>2021-08-03T09:49:06.326Z</time>
      </trkpt>
      <trkpt lat="47.02001" lon="8.89761">
        <ele>1178</ele>
        <time>2021-08-03T09:49:07.327Z</time>
      </trkpt>
      <trkpt lat="47.02002" lon="8.8976">
        <ele>1178</ele>
        <time>2021-08-03T09:49:08.326Z</time>
      </trkpt>
      <trkpt lat="47.02002" lon="8.89759">
        <ele>1178</ele>
        <time>2021-08-03T09:49:09.326Z</time>
      </trkpt>
      <trkpt lat="47.02002" lon="8.89757">
        <ele>1178</ele>
        <time>2021-08-03T09:49:10.326Z</time>
      </trkpt>
      <trkpt lat="47.02002" lon="8.89756">
        <ele>1178</ele>
        <time>2021-08-03T09:49:11.326Z</time>
      </trkpt>
      <trkpt lat="47.02002" lon="8.89755">
        <ele>1177</ele>
        <time>2021-08-03T09:49:12.326Z</time>
      </trkpt>
      <trkpt lat="47.02001" lon="8.89754">
        <ele>1177</ele>
        <time>2021-08-03T09:49:13.326Z</time>
      </trkpt>
      <trkpt lat="47.02" lon="8.89753">
        <ele>1177</ele>
        <time>2021-08-03T09:49:14.326Z</time>
      </trkpt>
      <trkpt lat="47.02" lon="8.89752">
        <ele>1177</ele>
        <time>2021-08-03T09:49:15.326Z</time>
      </trkpt>
      <trkpt lat="47.01999" lon="8.89751">
        <ele>1176</ele>
        <time>2021-08-03T09:49:16.326Z</time>
      </trkpt>
      <trkpt lat="47.01999" lon="8.89749">
        <ele>1176</ele>
        <time>2021-08-03T09:49:17.326Z</time>
      </trkpt>
      <trkpt lat="47.01999" lon="8.89746">
        <ele>1176</ele>
        <time>2021-08-03T09:49:18.326Z</time>
      </trkpt>
      <trkpt lat="47.02" lon="8.89744">
        <ele>1176</ele>
        <time>2021-08-03T09:49:19.327Z</time>
      </trkpt>
      <trkpt lat="47.02" lon="8.89743">
        <ele>1177</ele>
        <time>2021-08-03T09:49:20.326Z</time>
      </trkpt>
      <trkpt lat="47.02" lon="8.89742">
        <ele>1177</ele>
        <time>2021-08-03T09:49:21.326Z</time>
      </trkpt>
      <trkpt lat="47.02" lon="8.89741">
        <ele>1177</ele>
        <time>2021-08-03T09:49:22.326Z</time>
      </trkpt>
      <trkpt lat="47.02001" lon="8.8974">
        <ele>1177</ele>
        <time>2021-08-03T09:49:23.326Z</time>
      </trkpt>
      <trkpt lat="47.02001" lon="8.89739">
        <ele>1177</ele>
        <time>2021-08-03T09:49:24.326Z</time>
      </trkpt>
      <trkpt lat="47.02001" lon="8.89738">
        <ele>1177</ele>
        <time>2021-08-03T09:49:25.326Z</time>
      </trkpt>
      <trkpt lat="47.02" lon="8.89736">
        <ele>1178</ele>
        <time>2021-08-03T09:49:26.327Z</time>
      </trkpt>
      <trkpt lat="47.02" lon="8.89735">
        <ele>1179</ele>
        <time>2021-08-03T09:49:27.327Z</time>
      </trkpt>
      <trkpt lat="47.01999" lon="8.89734">
        <ele>1180</ele>
        <time>2021-08-03T09:49:28.327Z</time>
      </trkpt>
      <trkpt lat="47.01999" lon="8.89733">
        <ele>1181</ele>
        <time>2021-08-03T09:49:29.327Z</time>
      </trkpt>
      <trkpt lat="47.01999" lon="8.89732">
        <ele>1182</ele>
        <time>2021-08-03T09:49:30.327Z</time>
      </trkpt>
      <trkpt lat="47.01998" lon="8.89732">
        <ele>1183</ele>
        <time>2021-08-03T09:49:31.326Z</time>
      </trkpt>
      <trkpt lat="47.01998" lon="8.89731">
        <ele>1184</ele>
        <time>2021-08-03T09:49:32.326Z</time>
      </trkpt>
      <trkpt lat="47.01998" lon="8.8973">
        <ele>1185</ele>
        <time>2021-08-03T09:49:33.326Z</time>
      </trkpt>
      <trkpt lat="47.01998" lon="8.8973">
        <ele>1186</ele>
        <time>2021-08-03T09:49:34.327Z</time>
      </trkpt>
      <trkpt lat="47.01997" lon="8.89729">
        <ele>1186</ele>
        <time>2021-08-03T09:49:35.327Z</time>
      </trkpt>
      <trkpt lat="47.01997" lon="8.89728">
        <ele>1186</ele>
        <time>2021-08-03T09:49:36.326Z</time>
      </trkpt>
      <trkpt lat="47.01997" lon="8.89727">
        <ele>1185</ele>
        <time>2021-08-03T09:49:37.326Z</time>
      </trkpt>
      <trkpt lat="47.01997" lon="8.89727">
        <ele>1185</ele>
        <time>2021-08-03T09:49:38.326Z</time>
      </trkpt>
      <trkpt lat="47.01997" lon="8.89726">
        <ele>1185</ele>
        <time>2021-08-03T09:49:39.326Z</time>
      </trkpt>
      <trkpt lat="47.01997" lon="8.89725">
        <ele>1185</ele>
        <time>2021-08-03T09:49:40.327Z</time>
      </trkpt>
      <trkpt lat="47.01998" lon="8.89724">
        <ele>1186</ele>
        <time>2021-08-03T09:49:41.327Z</time>
      </trkpt>
      <trkpt lat="47.01998" lon="8.89723">
        <ele>1185</ele>
        <time>2021-08-03T09:49:42.326Z</time>
      </trkpt>
      <trkpt lat="47.01998" lon="8.89721">
        <ele>1185</ele>
        <time>2021-08-03T09:49:43.327Z</time>
      </trkpt>
      <trkpt lat="47.01998" lon="8.8972">
        <ele>1185</ele>
        <time>2021-08-03T09:49:44.327Z</time>
      </trkpt>
      <trkpt lat="47.01998" lon="8.8972">
        <ele>1185</ele>
        <time>2021-08-03T09:49:45.327Z</time>
      </trkpt>
      <trkpt lat="47.01997" lon="8.89718">
        <ele>1185</ele>
        <time>2021-08-03T09:49:46.327Z</time>
      </trkpt>
      <trkpt lat="47.01997" lon="8.89717">
        <ele>1185</ele>
        <time>2021-08-03T09:49:47.326Z</time>
      </trkpt>
      <trkpt lat="47.01997" lon="8.89716">
        <ele>1184</ele>
        <time>2021-08-03T09:49:48.327Z</time>
      </trkpt>
      <trkpt lat="47.01997" lon="8.89715">
        <ele>1184</ele>
        <time>2021-08-03T09:49:49.327Z</time>
      </trkpt>
      <trkpt lat="47.01997" lon="8.89714">
        <ele>1184</ele>
        <time>2021-08-03T09:49:50.327Z</time>
      </trkpt>
      <trkpt lat="47.01997" lon="8.89713">
        <ele>1184</ele>
        <time>2021-08-03T09:49:51.327Z</time>
      </trkpt>
      <trkpt lat="47.01997" lon="8.89712">
        <ele>1183</ele>
        <time>2021-08-03T09:49:52.327Z</time>
      </trkpt>
      <trkpt lat="47.01997" lon="8.89711">
        <ele>1183</ele>
        <time>2021-08-03T09:49:53.327Z</time>
      </trkpt>
      <trkpt lat="47.01997" lon="8.89711">
        <ele>1183</ele>
        <time>2021-08-03T09:49:54.327Z</time>
      </trkpt>
      <trkpt lat="47.01997" lon="8.89709">
        <ele>1182</ele>
        <time>2021-08-03T09:49:55.327Z</time>
      </trkpt>
      <trkpt lat="47.01997" lon="8.89707">
        <ele>1182</ele>
        <time>2021-08-03T09:49:56.326Z</time>
      </trkpt>
      <trkpt lat="47.01997" lon="8.89706">
        <ele>1182</ele>
        <time>2021-08-03T09:49:57.327Z</time>
      </trkpt>
      <trkpt lat="47.01996" lon="8.89705">
        <ele>1182</ele>
        <time>2021-08-03T09:49:58.327Z</time>
      </trkpt>
      <trkpt lat="47.01996" lon="8.89705">
        <ele>1182</ele>
        <time>2021-08-03T09:49:59.327Z</time>
      </trkpt>
      <trkpt lat="47.01996" lon="8.89704">
        <ele>1182</ele>
        <time>2021-08-03T09:50:00.327Z</time>
      </trkpt>
      <trkpt lat="47.01995" lon="8.89703">
        <ele>1183</ele>
        <time>2021-08-03T09:50:01.327Z</time>
      </trkpt>
      <trkpt lat="47.01995" lon="8.89702">
        <ele>1183</ele>
        <time>2021-08-03T09:50:02.327Z</time>
      </trkpt>
      <trkpt lat="47.01995" lon="8.897">
        <ele>1184</ele>
        <time>2021-08-03T09:50:03.326Z</time>
      </trkpt>
      <trkpt lat="47.01994" lon="8.89699">
        <ele>1184</ele>
        <time>2021-08-03T09:50:04.327Z</time>
      </trkpt>
      <trkpt lat="47.01994" lon="8.89698">
        <ele>1184</ele>
        <time>2021-08-03T09:50:05.327Z</time>
      </trkpt>
      <trkpt lat="47.01993" lon="8.89697">
        <ele>1184</ele>
        <time>2021-08-03T09:50:06.327Z</time>
      </trkpt>
      <trkpt lat="47.01992" lon="8.89697">
        <ele>1184</ele>
        <time>2021-08-03T09:50:07.327Z</time>
      </trkpt>
      <trkpt lat="47.01992" lon="8.89696">
        <ele>1184</ele>
        <time>2021-08-03T09:50:08.327Z</time>
      </trkpt>
      <trkpt lat="47.01992" lon="8.89695">
        <ele>1184</ele>
        <time>2021-08-03T09:50:09.327Z</time>
      </trkpt>
      <trkpt lat="47.01992" lon="8.89695">
        <ele>1185</ele>
        <time>2021-08-03T09:50:10.327Z</time>
      </trkpt>
      <trkpt lat="47.01992" lon="8.89694">
        <ele>1185</ele>
        <time>2021-08-03T09:50:11.326Z</time>
      </trkpt>
      <trkpt lat="47.01993" lon="8.89692">
        <ele>1185</ele>
        <time>2021-08-03T09:50:12.327Z</time>
      </trkpt>
      <trkpt lat="47.01993" lon="8.89691">
        <ele>1185</ele>
        <time>2021-08-03T09:50:13.327Z</time>
      </trkpt>
      <trkpt lat="47.01993" lon="8.89691">
        <ele>1184</ele>
        <time>2021-08-03T09:50:14.327Z</time>
      </trkpt>
      <trkpt lat="47.01994" lon="8.8969">
        <ele>1184</ele>
        <time>2021-08-03T09:50:15.327Z</time>
      </trkpt>
      <trkpt lat="47.01993" lon="8.89689">
        <ele>1184</ele>
        <time>2021-08-03T09:50:16.327Z</time>
      </trkpt>
      <trkpt lat="47.01993" lon="8.89688">
        <ele>1183</ele>
        <time>2021-08-03T09:50:17.327Z</time>
      </trkpt>
      <trkpt lat="47.01992" lon="8.89688">
        <ele>1183</ele>
        <time>2021-08-03T09:50:18.327Z</time>
      </trkpt>
      <trkpt lat="47.01993" lon="8.89687">
        <ele>1183</ele>
        <time>2021-08-03T09:50:19.327Z</time>
      </trkpt>
      <trkpt lat="47.01993" lon="8.89686">
        <ele>1183</ele>
        <time>2021-08-03T09:50:20.327Z</time>
      </trkpt>
      <trkpt lat="47.01994" lon="8.89685">
        <ele>1182</ele>
        <time>2021-08-03T09:50:21.326Z</time>
      </trkpt>
      <trkpt lat="47.01995" lon="8.89683">
        <ele>1181</ele>
        <time>2021-08-03T09:50:22.326Z</time>
      </trkpt>
      <trkpt lat="47.01995" lon="8.89681">
        <ele>1180</ele>
        <time>2021-08-03T09:50:23.327Z</time>
      </trkpt>
      <trkpt lat="47.01996" lon="8.8968">
        <ele>1180</ele>
        <time>2021-08-03T09:50:24.327Z</time>
      </trkpt>
      <trkpt lat="47.01995" lon="8.89679">
        <ele>1179</ele>
        <time>2021-08-03T09:50:25.327Z</time>
      </trkpt>
      <trkpt lat="47.01995" lon="8.89678">
        <ele>1178</ele>
        <time>2021-08-03T09:50:26.326Z</time>
      </trkpt>
      <trkpt lat="47.01995" lon="8.89677">
        <ele>1177</ele>
        <time>2021-08-03T09:50:27.327Z</time>
      </trkpt>
      <trkpt lat="47.01996" lon="8.89674">
        <ele>1177</ele>
        <time>2021-08-03T09:50:28.327Z</time>
      </trkpt>
      <trkpt lat="47.01997" lon="8.89671">
        <ele>1176</ele>
        <time>2021-08-03T09:50:29.327Z</time>
      </trkpt>
      <trkpt lat="47.01998" lon="8.8967">
        <ele>1175</ele>
        <time>2021-08-03T09:50:30.326Z</time>
      </trkpt>
      <trkpt lat="47.01998" lon="8.89668">
        <ele>1175</ele>
        <time>2021-08-03T09:50:31.326Z</time>
      </trkpt>
      <trkpt lat="47.01998" lon="8.89667">
        <ele>1175</ele>
        <time>2021-08-03T09:50:32.327Z</time>
      </trkpt>
      <trkpt lat="47.01998" lon="8.89666">
        <ele>1175</ele>
        <time>2021-08-03T09:50:33.327Z</time>
      </trkpt>
      <trkpt lat="47.01998" lon="8.89665">
        <ele>1175</ele>
        <time>2021-08-03T09:50:34.327Z</time>
      </trkpt>
      <trkpt lat="47.01998" lon="8.89664">
        <ele>1175</ele>
        <time>2021-08-03T09:50:35.326Z</time>
      </trkpt>
      <trkpt lat="47.01998" lon="8.89663">
        <ele>1175</ele>
        <time>2021-08-03T09:50:36.326Z</time>
      </trkpt>
      <trkpt lat="47.01998" lon="8.89662">
        <ele>1175</ele>
        <time>2021-08-03T09:50:37.326Z</time>
      </trkpt>
      <trkpt lat="47.01998" lon="8.89661">
        <ele>1176</ele>
        <time>2021-08-03T09:50:38.326Z</time>
      </trkpt>
      <trkpt lat="47.01998" lon="8.8966">
        <ele>1176</ele>
        <time>2021-08-03T09:50:39.326Z</time>
      </trkpt>
      <trkpt lat="47.01997" lon="8.89659">
        <ele>1177</ele>
        <time>2021-08-03T09:50:40.326Z</time>
      </trkpt>
      <trkpt lat="47.01997" lon="8.89658">
        <ele>1178</ele>
        <time>2021-08-03T09:50:41.327Z</time>
      </trkpt>
      <trkpt lat="47.01996" lon="8.89658">
        <ele>1179</ele>
        <time>2021-08-03T09:50:42.327Z</time>
      </trkpt>
      <trkpt lat="47.01995" lon="8.89656">
        <ele>1180</ele>
        <time>2021-08-03T09:50:43.326Z</time>
      </trkpt>
      <trkpt lat="47.01994" lon="8.89656">
        <ele>1181</ele>
        <time>2021-08-03T09:50:44.326Z</time>
      </trkpt>
      <trkpt lat="47.01994" lon="8.89655">
        <ele>1182</ele>
        <time>2021-08-03T09:50:45.327Z</time>
      </trkpt>
      <trkpt lat="47.01994" lon="8.89655">
        <ele>1182</ele>
        <time>2021-08-03T09:50:46.327Z</time>
      </trkpt>
      <trkpt lat="47.01994" lon="8.89654">
        <ele>1182</ele>
        <time>2021-08-03T09:50:47.327Z</time>
      </trkpt>
      <trkpt lat="47.01993" lon="8.89653">
        <ele>1182</ele>
        <time>2021-08-03T09:50:48.327Z</time>
      </trkpt>
      <trkpt lat="47.01992" lon="8.89653">
        <ele>1182</ele>
        <time>2021-08-03T09:50:49.327Z</time>
      </trkpt>
      <trkpt lat="47.01991" lon="8.89652">
        <ele>1182</ele>
        <time>2021-08-03T09:50:50.327Z</time>
      </trkpt>
      <trkpt lat="47.01991" lon="8.8965">
        <ele>1183</ele>
        <time>2021-08-03T09:50:51.326Z</time>
      </trkpt>
      <trkpt lat="47.01992" lon="8.89649">
        <ele>1183</ele>
        <time>2021-08-03T09:50:52.327Z</time>
      </trkpt>
      <trkpt lat="47.01993" lon="8.89647">
        <ele>1183</ele>
        <time>2021-08-03T09:50:53.327Z</time>
      </trkpt>
      <trkpt lat="47.01993" lon="8.89646">
        <ele>1183</ele>
        <time>2021-08-03T09:50:54.327Z</time>
      </trkpt>
      <trkpt lat="47.01994" lon="8.89645">
        <ele>1183</ele>
        <time>2021-08-03T09:50:55.326Z</time>
      </trkpt>
      <trkpt lat="47.01994" lon="8.89644">
        <ele>1183</ele>
        <time>2021-08-03T09:50:56.326Z</time>
      </trkpt>
      <trkpt lat="47.01993" lon="8.89643">
        <ele>1184</ele>
        <time>2021-08-03T09:50:57.326Z</time>
      </trkpt>
      <trkpt lat="47.01993" lon="8.89642">
        <ele>1184</ele>
        <time>2021-08-03T09:50:58.326Z</time>
      </trkpt>
      <trkpt lat="47.01993" lon="8.89641">
        <ele>1185</ele>
        <time>2021-08-03T09:50:59.326Z</time>
      </trkpt>
      <trkpt lat="47.01993" lon="8.8964">
        <ele>1186</ele>
        <time>2021-08-03T09:51:00.327Z</time>
      </trkpt>
      <trkpt lat="47.01992" lon="8.89639">
        <ele>1186</ele>
        <time>2021-08-03T09:51:01.326Z</time>
      </trkpt>
      <trkpt lat="47.01992" lon="8.89638">
        <ele>1186</ele>
        <time>2021-08-03T09:51:02.327Z</time>
      </trkpt>
      <trkpt lat="47.01992" lon="8.89637">
        <ele>1186</ele>
        <time>2021-08-03T09:51:03.326Z</time>
      </trkpt>
      <trkpt lat="47.01992" lon="8.89636">
        <ele>1186</ele>
        <time>2021-08-03T09:51:04.327Z</time>
      </trkpt>
      <trkpt lat="47.01992" lon="8.89635">
        <ele>1187</ele>
        <time>2021-08-03T09:51:05.326Z</time>
      </trkpt>
      <trkpt lat="47.01992" lon="8.89634">
        <ele>1187</ele>
        <time>2021-08-03T09:51:06.327Z</time>
      </trkpt>
      <trkpt lat="47.01992" lon="8.89633">
        <ele>1188</ele>
        <time>2021-08-03T09:51:07.327Z</time>
      </trkpt>
      <trkpt lat="47.01992" lon="8.89631">
        <ele>1188</ele>
        <time>2021-08-03T09:51:08.326Z</time>
      </trkpt>
      <trkpt lat="47.01991" lon="8.8963">
        <ele>1188</ele>
        <time>2021-08-03T09:51:09.327Z</time>
      </trkpt>
      <trkpt lat="47.01991" lon="8.89628">
        <ele>1189</ele>
        <time>2021-08-03T09:51:10.327Z</time>
      </trkpt>
      <trkpt lat="47.01991" lon="8.89628">
        <ele>1189</ele>
        <time>2021-08-03T09:51:11.327Z</time>
      </trkpt>
      <trkpt lat="47.01991" lon="8.89626">
        <ele>1190</ele>
        <time>2021-08-03T09:51:12.327Z</time>
      </trkpt>
      <trkpt lat="47.0199" lon="8.89625">
        <ele>1190</ele>
        <time>2021-08-03T09:51:13.327Z</time>
      </trkpt>
      <trkpt lat="47.0199" lon="8.89624">
        <ele>1191</ele>
        <time>2021-08-03T09:51:14.326Z</time>
      </trkpt>
      <trkpt lat="47.01991" lon="8.89621">
        <ele>1191</ele>
        <time>2021-08-03T09:51:15.327Z</time>
      </trkpt>
      <trkpt lat="47.01991" lon="8.89619">
        <ele>1192</ele>
        <time>2021-08-03T09:51:16.327Z</time>
      </trkpt>
      <trkpt lat="47.01991" lon="8.89618">
        <ele>1192</ele>
        <time>2021-08-03T09:51:17.327Z</time>
      </trkpt>
      <trkpt lat="47.01991" lon="8.89617">
        <ele>1193</ele>
        <time>2021-08-03T09:51:18.326Z</time>
      </trkpt>
      <trkpt lat="47.0199" lon="8.89615">
        <ele>1193</ele>
        <time>2021-08-03T09:51:19.326Z</time>
      </trkpt>
      <trkpt lat="47.0199" lon="8.89614">
        <ele>1194</ele>
        <time>2021-08-03T09:51:20.327Z</time>
      </trkpt>
      <trkpt lat="47.0199" lon="8.89613">
        <ele>1195</ele>
        <time>2021-08-03T09:51:21.326Z</time>
      </trkpt>
      <trkpt lat="47.01989" lon="8.89612">
        <ele>1195</ele>
        <time>2021-08-03T09:51:22.326Z</time>
      </trkpt>
      <trkpt lat="47.01989" lon="8.89611">
        <ele>1196</ele>
        <time>2021-08-03T09:51:23.327Z</time>
      </trkpt>
      <trkpt lat="47.01988" lon="8.89609">
        <ele>1197</ele>
        <time>2021-08-03T09:51:24.327Z</time>
      </trkpt>
      <trkpt lat="47.01988" lon="8.89607">
        <ele>1197</ele>
        <time>2021-08-03T09:51:25.326Z</time>
      </trkpt>
      <trkpt lat="47.01987" lon="8.89607">
        <ele>1198</ele>
        <time>2021-08-03T09:51:26.326Z</time>
      </trkpt>
      <trkpt lat="47.01987" lon="8.89605">
        <ele>1199</ele>
        <time>2021-08-03T09:51:27.327Z</time>
      </trkpt>
      <trkpt lat="47.01987" lon="8.89603">
        <ele>1199</ele>
        <time>2021-08-03T09:51:28.327Z</time>
      </trkpt>
      <trkpt lat="47.01987" lon="8.89602">
        <ele>1200</ele>
        <time>2021-08-03T09:51:29.327Z</time>
      </trkpt>
      <trkpt lat="47.01986" lon="8.89601">
        <ele>1200</ele>
        <time>2021-08-03T09:51:30.327Z</time>
      </trkpt>
      <trkpt lat="47.01986" lon="8.896">
        <ele>1201</ele>
        <time>2021-08-03T09:51:31.326Z</time>
      </trkpt>
      <trkpt lat="47.01985" lon="8.89598">
        <ele>1201</ele>
        <time>2021-08-03T09:51:32.327Z</time>
      </trkpt>
      <trkpt lat="47.01984" lon="8.89598">
        <ele>1200</ele>
        <time>2021-08-03T09:51:33.327Z</time>
      </trkpt>
      <trkpt lat="47.01984" lon="8.89598">
        <ele>1200</ele>
        <time>2021-08-03T09:51:34.327Z</time>
      </trkpt>
      <trkpt lat="47.01985" lon="8.89597">
        <ele>1200</ele>
        <time>2021-08-03T09:51:35.326Z</time>
      </trkpt>
      <trkpt lat="47.01985" lon="8.89597">
        <ele>1199</ele>
        <time>2021-08-03T09:51:36.327Z</time>
      </trkpt>
      <trkpt lat="47.01985" lon="8.89596">
        <ele>1199</ele>
        <time>2021-08-03T09:51:37.327Z</time>
      </trkpt>
      <trkpt lat="47.01985" lon="8.89594">
        <ele>1199</ele>
        <time>2021-08-03T09:51:38.327Z</time>
      </trkpt>
      <trkpt lat="47.01985" lon="8.89593">
        <ele>1198</ele>
        <time>2021-08-03T09:51:39.327Z</time>
      </trkpt>
      <trkpt lat="47.01985" lon="8.89592">
        <ele>1198</ele>
        <time>2021-08-03T09:51:40.326Z</time>
      </trkpt>
      <trkpt lat="47.01985" lon="8.89592">
        <ele>1197</ele>
        <time>2021-08-03T09:51:41.326Z</time>
      </trkpt>
      <trkpt lat="47.01984" lon="8.89591">
        <ele>1197</ele>
        <time>2021-08-03T09:51:42.326Z</time>
      </trkpt>
      <trkpt lat="47.01984" lon="8.8959">
        <ele>1196</ele>
        <time>2021-08-03T09:51:43.326Z</time>
      </trkpt>
      <trkpt lat="47.01983" lon="8.89589">
        <ele>1195</ele>
        <time>2021-08-03T09:51:44.327Z</time>
      </trkpt>
      <trkpt lat="47.01983" lon="8.89588">
        <ele>1195</ele>
        <time>2021-08-03T09:51:45.327Z</time>
      </trkpt>
      <trkpt lat="47.01982" lon="8.89587">
        <ele>1195</ele>
        <time>2021-08-03T09:51:46.327Z</time>
      </trkpt>
      <trkpt lat="47.01982" lon="8.89586">
        <ele>1195</ele>
        <time>2021-08-03T09:51:47.327Z</time>
      </trkpt>
      <trkpt lat="47.01982" lon="8.89585">
        <ele>1195</ele>
        <time>2021-08-03T09:51:48.327Z</time>
      </trkpt>
      <trkpt lat="47.01981" lon="8.89583">
        <ele>1195</ele>
        <time>2021-08-03T09:51:49.326Z</time>
      </trkpt>
      <trkpt lat="47.01981" lon="8.89581">
        <ele>1195</ele>
        <time>2021-08-03T09:51:50.327Z</time>
      </trkpt>
      <trkpt lat="47.01981" lon="8.89581">
        <ele>1195</ele>
        <time>2021-08-03T09:51:51.327Z</time>
      </trkpt>
      <trkpt lat="47.0198" lon="8.8958">
        <ele>1195</ele>
        <time>2021-08-03T09:51:52.327Z</time>
      </trkpt>
      <trkpt lat="47.0198" lon="8.89579">
        <ele>1195</ele>
        <time>2021-08-03T09:51:53.327Z</time>
      </trkpt>
      <trkpt lat="47.0198" lon="8.89579">
        <ele>1195</ele>
        <time>2021-08-03T09:51:54.327Z</time>
      </trkpt>
      <trkpt lat="47.01979" lon="8.89579">
        <ele>1195</ele>
        <time>2021-08-03T09:51:55.327Z</time>
      </trkpt>
      <trkpt lat="47.01979" lon="8.89579">
        <ele>1196</ele>
        <time>2021-08-03T09:51:56.326Z</time>
      </trkpt>
      <trkpt lat="47.01979" lon="8.8958">
        <ele>1196</ele>
        <time>2021-08-03T09:51:57.327Z</time>
      </trkpt>
      <trkpt lat="47.01977" lon="8.89582">
        <ele>1197</ele>
        <time>2021-08-03T09:51:58.326Z</time>
      </trkpt>
      <trkpt lat="47.01976" lon="8.89584">
        <ele>1197</ele>
        <time>2021-08-03T09:51:59.326Z</time>
      </trkpt>
      <trkpt lat="47.01975" lon="8.89586">
        <ele>1197</ele>
        <time>2021-08-03T09:52:00.326Z</time>
      </trkpt>
      <trkpt lat="47.01974" lon="8.8959">
        <ele>1198</ele>
        <time>2021-08-03T09:52:01.328Z</time>
      </trkpt>
      <trkpt lat="47.01973" lon="8.89591">
        <ele>1200</ele>
        <time>2021-08-03T09:52:02.327Z</time>
      </trkpt>
      <trkpt lat="47.01975" lon="8.89591">
        <ele>1201</ele>
        <time>2021-08-03T09:52:03.328Z</time>
      </trkpt>
      <trkpt lat="47.01975" lon="8.89591">
        <ele>1202</ele>
        <time>2021-08-03T09:52:04.327Z</time>
      </trkpt>
      <trkpt lat="47.01975" lon="8.89592">
        <ele>1202</ele>
        <time>2021-08-03T09:52:05.328Z</time>
      </trkpt>
      <trkpt lat="47.01975" lon="8.89592">
        <ele>1202</ele>
        <time>2021-08-03T09:52:06.328Z</time>
      </trkpt>
      <trkpt lat="47.01975" lon="8.89591">
        <ele>1203</ele>
        <time>2021-08-03T09:52:07.327Z</time>
      </trkpt>
      <trkpt lat="47.01975" lon="8.8959">
        <ele>1203</ele>
        <time>2021-08-03T09:52:08.327Z</time>
      </trkpt>
      <trkpt lat="47.01975" lon="8.8959">
        <ele>1204</ele>
        <time>2021-08-03T09:52:09.328Z</time>
      </trkpt>
      <trkpt lat="47.01975" lon="8.89591">
        <ele>1204</ele>
        <time>2021-08-03T09:52:10.328Z</time>
      </trkpt>
      <trkpt lat="47.01975" lon="8.89592">
        <ele>1204</ele>
        <time>2021-08-03T09:52:11.327Z</time>
      </trkpt>
      <trkpt lat="47.01976" lon="8.89591">
        <ele>1205</ele>
        <time>2021-08-03T09:52:12.328Z</time>
      </trkpt>
      <trkpt lat="47.01976" lon="8.89591">
        <ele>1205</ele>
        <time>2021-08-03T09:52:13.328Z</time>
      </trkpt>
      <trkpt lat="47.01976" lon="8.8959">
        <ele>1206</ele>
        <time>2021-08-03T09:52:14.328Z</time>
      </trkpt>
      <trkpt lat="47.01976" lon="8.89588">
        <ele>1206</ele>
        <time>2021-08-03T09:52:15.328Z</time>
      </trkpt>
      <trkpt lat="47.01976" lon="8.89586">
        <ele>1206</ele>
        <time>2021-08-03T09:52:16.327Z</time>
      </trkpt>
      <trkpt lat="47.01976" lon="8.89585">
        <ele>1207</ele>
        <time>2021-08-03T09:52:17.327Z</time>
      </trkpt>
      <trkpt lat="47.01976" lon="8.89585">
        <ele>1207</ele>
        <time>2021-08-03T09:52:18.328Z</time>
      </trkpt>
      <trkpt lat="47.01976" lon="8.89584">
        <ele>1208</ele>
        <time>2021-08-03T09:52:19.328Z</time>
      </trkpt>
      <trkpt lat="47.01976" lon="8.89582">
        <ele>1208</ele>
        <time>2021-08-03T09:52:20.328Z</time>
      </trkpt>
      <trkpt lat="47.01975" lon="8.89581">
        <ele>1208</ele>
        <time>2021-08-03T09:52:21.327Z</time>
      </trkpt>
      <trkpt lat="47.01974" lon="8.8958">
        <ele>1208</ele>
        <time>2021-08-03T09:52:22.327Z</time>
      </trkpt>
      <trkpt lat="47.01973" lon="8.8958">
        <ele>1208</ele>
        <time>2021-08-03T09:52:23.328Z</time>
      </trkpt>
      <trkpt lat="47.01973" lon="8.89578">
        <ele>1208</ele>
        <time>2021-08-03T09:52:24.327Z</time>
      </trkpt>
      <trkpt lat="47.01972" lon="8.89577">
        <ele>1208</ele>
        <time>2021-08-03T09:52:25.328Z</time>
      </trkpt>
      <trkpt lat="47.01972" lon="8.89576">
        <ele>1209</ele>
        <time>2021-08-03T09:52:26.328Z</time>
      </trkpt>
      <trkpt lat="47.01973" lon="8.89577">
        <ele>1209</ele>
        <time>2021-08-03T09:52:27.328Z</time>
      </trkpt>
      <trkpt lat="47.01973" lon="8.89577">
        <ele>1210</ele>
        <time>2021-08-03T09:52:28.328Z</time>
      </trkpt>
      <trkpt lat="47.01973" lon="8.89578">
        <ele>1210</ele>
        <time>2021-08-03T09:52:29.328Z</time>
      </trkpt>
      <trkpt lat="47.01973" lon="8.89578">
        <ele>1211</ele>
        <time>2021-08-03T09:52:30.328Z</time>
      </trkpt>
      <trkpt lat="47.01974" lon="8.89579">
        <ele>1212</ele>
        <time>2021-08-03T09:52:31.328Z</time>
      </trkpt>
      <trkpt lat="47.01973" lon="8.8958">
        <ele>1213</ele>
        <time>2021-08-03T09:52:32.328Z</time>
      </trkpt>
      <trkpt lat="47.01973" lon="8.8958">
        <ele>1214</ele>
        <time>2021-08-03T09:52:33.327Z</time>
      </trkpt>
      <trkpt lat="47.01973" lon="8.89581">
        <ele>1214</ele>
        <time>2021-08-03T09:52:34.328Z</time>
      </trkpt>
      <trkpt lat="47.01972" lon="8.89581">
        <ele>1215</ele>
        <time>2021-08-03T09:52:35.327Z</time>
      </trkpt>
      <trkpt lat="47.01972" lon="8.89581">
        <ele>1216</ele>
        <time>2021-08-03T09:52:36.327Z</time>
      </trkpt>
      <trkpt lat="47.01972" lon="8.89581">
        <ele>1216</ele>
        <time>2021-08-03T09:52:37.328Z</time>
      </trkpt>
      <trkpt lat="47.01971" lon="8.89581">
        <ele>1217</ele>
        <time>2021-08-03T09:52:38.327Z</time>
      </trkpt>
      <trkpt lat="47.01971" lon="8.89581">
        <ele>1218</ele>
        <time>2021-08-03T09:52:39.328Z</time>
      </trkpt>
      <trkpt lat="47.0197" lon="8.89582">
        <ele>1219</ele>
        <time>2021-08-03T09:52:40.328Z</time>
      </trkpt>
      <trkpt lat="47.0197" lon="8.89583">
        <ele>1219</ele>
        <time>2021-08-03T09:52:41.328Z</time>
      </trkpt>
      <trkpt lat="47.0197" lon="8.89584">
        <ele>1220</ele>
        <time>2021-08-03T09:52:42.328Z</time>
      </trkpt>
      <trkpt lat="47.01971" lon="8.89584">
        <ele>1220</ele>
        <time>2021-08-03T09:52:43.328Z</time>
      </trkpt>
      <trkpt lat="47.01971" lon="8.89584">
        <ele>1220</ele>
        <time>2021-08-03T09:52:44.328Z</time>
      </trkpt>
      <trkpt lat="47.01971" lon="8.89584">
        <ele>1220</ele>
        <time>2021-08-03T09:52:45.328Z</time>
      </trkpt>
      <trkpt lat="47.01971" lon="8.89584">
        <ele>1220</ele>
        <time>2021-08-03T09:52:46.328Z</time>
      </trkpt>
      <trkpt lat="47.01972" lon="8.89583">
        <ele>1220</ele>
        <time>2021-08-03T09:52:47.327Z</time>
      </trkpt>
      <trkpt lat="47.01972" lon="8.89582">
        <ele>1220</ele>
        <time>2021-08-03T09:52:48.328Z</time>
      </trkpt>
      <trkpt lat="47.01972" lon="8.89582">
        <ele>1220</ele>
        <time>2021-08-03T09:52:49.327Z</time>
      </trkpt>
      <trkpt lat="47.01971" lon="8.89582">
        <ele>1220</ele>
        <time>2021-08-03T09:52:50.327Z</time>
      </trkpt>
      <trkpt lat="47.01971" lon="8.89582">
        <ele>1220</ele>
        <time>2021-08-03T09:52:51.327Z</time>
      </trkpt>
      <trkpt lat="47.01971" lon="8.89581">
        <ele>1220</ele>
        <time>2021-08-03T09:52:52.328Z</time>
      </trkpt>
      <trkpt lat="47.0197" lon="8.8958">
        <ele>1220</ele>
        <time>2021-08-03T09:52:53.327Z</time>
      </trkpt>
      <trkpt lat="47.0197" lon="8.8958">
        <ele>1220</ele>
        <time>2021-08-03T09:52:54.328Z</time>
      </trkpt>
      <trkpt lat="47.0197" lon="8.8958">
        <ele>1219</ele>
        <time>2021-08-03T09:52:55.327Z</time>
      </trkpt>
      <trkpt lat="47.01969" lon="8.89581">
        <ele>1219</ele>
        <time>2021-08-03T09:52:56.328Z</time>
      </trkpt>
      <trkpt lat="47.01968" lon="8.89581">
        <ele>1219</ele>
        <time>2021-08-03T09:52:57.327Z</time>
      </trkpt>
      <trkpt lat="47.01968" lon="8.89581">
        <ele>1219</ele>
        <time>2021-08-03T09:52:58.327Z</time>
      </trkpt>
      <trkpt lat="47.01967" lon="8.8958">
        <ele>1220</ele>
        <time>2021-08-03T09:52:59.328Z</time>
      </trkpt>
      <trkpt lat="47.01967" lon="8.8958">
        <ele>1220</ele>
        <time>2021-08-03T09:53:00.327Z</time>
      </trkpt>
      <trkpt lat="47.01967" lon="8.89579">
        <ele>1219</ele>
        <time>2021-08-03T09:53:01.327Z</time>
      </trkpt>
      <trkpt lat="47.01967" lon="8.89579">
        <ele>1219</ele>
        <time>2021-08-03T09:53:02.327Z</time>
      </trkpt>
      <trkpt lat="47.01967" lon="8.89578">
        <ele>1219</ele>
        <time>2021-08-03T09:53:03.328Z</time>
      </trkpt>
      <trkpt lat="47.01967" lon="8.89578">
        <ele>1218</ele>
        <time>2021-08-03T09:53:04.328Z</time>
      </trkpt>
      <trkpt lat="47.01967" lon="8.89577">
        <ele>1216</ele>
        <time>2021-08-03T09:53:05.328Z</time>
      </trkpt>
      <trkpt lat="47.01967" lon="8.89577">
        <ele>1216</ele>
        <time>2021-08-03T09:53:06.328Z</time>
      </trkpt>
      <trkpt lat="47.01968" lon="8.89578">
        <ele>1215</ele>
        <time>2021-08-03T09:53:07.328Z</time>
      </trkpt>
      <trkpt lat="47.01969" lon="8.89579">
        <ele>1215</ele>
        <time>2021-08-03T09:53:08.328Z</time>
      </trkpt>
      <trkpt lat="47.0197" lon="8.89578">
        <ele>1214</ele>
        <time>2021-08-03T09:53:09.328Z</time>
      </trkpt>
      <trkpt lat="47.0197" lon="8.89579">
        <ele>1214</ele>
        <time>2021-08-03T09:53:10.328Z</time>
      </trkpt>
      <trkpt lat="47.0197" lon="8.8958">
        <ele>1214</ele>
        <time>2021-08-03T09:53:11.327Z</time>
      </trkpt>
      <trkpt lat="47.0197" lon="8.89581">
        <ele>1213</ele>
        <time>2021-08-03T09:53:12.327Z</time>
      </trkpt>
      <trkpt lat="47.0197" lon="8.89582">
        <ele>1213</ele>
        <time>2021-08-03T09:53:13.328Z</time>
      </trkpt>
      <trkpt lat="47.0197" lon="8.89583">
        <ele>1212</ele>
        <time>2021-08-03T09:53:14.328Z</time>
      </trkpt>
      <trkpt lat="47.01971" lon="8.89583">
        <ele>1212</ele>
        <time>2021-08-03T09:53:15.327Z</time>
      </trkpt>
      <trkpt lat="47.01971" lon="8.89583">
        <ele>1211</ele>
        <time>2021-08-03T09:53:16.328Z</time>
      </trkpt>
      <trkpt lat="47.01971" lon="8.89582">
        <ele>1210</ele>
        <time>2021-08-03T09:53:17.328Z</time>
      </trkpt>
      <trkpt lat="47.0197" lon="8.89583">
        <ele>1209</ele>
        <time>2021-08-03T09:53:18.327Z</time>
      </trkpt>
      <trkpt lat="47.0197" lon="8.89583">
        <ele>1208</ele>
        <time>2021-08-03T09:53:19.327Z</time>
      </trkpt>
      <trkpt lat="47.0197" lon="8.89582">
        <ele>1208</ele>
        <time>2021-08-03T09:53:20.328Z</time>
      </trkpt>
      <trkpt lat="47.01971" lon="8.89582">
        <ele>1207</ele>
        <time>2021-08-03T09:53:21.327Z</time>
      </trkpt>
      <trkpt lat="47.01972" lon="8.89582">
        <ele>1206</ele>
        <time>2021-08-03T09:53:22.327Z</time>
      </trkpt>
      <trkpt lat="47.01975" lon="8.89579">
        <ele>1204</ele>
        <time>2021-08-03T09:53:23.329Z</time>
      </trkpt>
      <trkpt lat="47.01976" lon="8.89579">
        <ele>1205</ele>
        <time>2021-08-03T09:53:24.328Z</time>
      </trkpt>
      <trkpt lat="47.01977" lon="8.89579">
        <ele>1205</ele>
        <time>2021-08-03T09:53:25.329Z</time>
      </trkpt>
      <trkpt lat="47.01976" lon="8.89579">
        <ele>1206</ele>
        <time>2021-08-03T09:53:26.329Z</time>
      </trkpt>
      <trkpt lat="47.01976" lon="8.89578">
        <ele>1206</ele>
        <time>2021-08-03T09:53:27.329Z</time>
      </trkpt>
      <trkpt lat="47.01975" lon="8.89578">
        <ele>1206</ele>
        <time>2021-08-03T09:53:28.328Z</time>
      </trkpt>
      <trkpt lat="47.01974" lon="8.89578">
        <ele>1207</ele>
        <time>2021-08-03T09:53:29.329Z</time>
      </trkpt>
      <trkpt lat="47.01974" lon="8.89579">
        <ele>1206</ele>
        <time>2021-08-03T09:53:30.330Z</time>
      </trkpt>
      <trkpt lat="47.01975" lon="8.89576">
        <ele>1203</ele>
        <time>2021-08-03T09:53:31.330Z</time>
      </trkpt>
      <trkpt lat="47.01976" lon="8.89575">
        <ele>1202</ele>
        <time>2021-08-03T09:53:32.330Z</time>
      </trkpt>
      <trkpt lat="47.01976" lon="8.89574">
        <ele>1202</ele>
        <time>2021-08-03T09:53:33.330Z</time>
      </trkpt>
      <trkpt lat="47.01977" lon="8.89573">
        <ele>1202</ele>
        <time>2021-08-03T09:53:34.329Z</time>
      </trkpt>
      <trkpt lat="47.01977" lon="8.89572">
        <ele>1202</ele>
        <time>2021-08-03T09:53:35.330Z</time>
      </trkpt>
      <trkpt lat="47.01977" lon="8.89571">
        <ele>1202</ele>
        <time>2021-08-03T09:53:36.329Z</time>
      </trkpt>
      <trkpt lat="47.01976" lon="8.8957">
        <ele>1202</ele>
        <time>2021-08-03T09:53:37.330Z</time>
      </trkpt>
      <trkpt lat="47.01976" lon="8.89569">
        <ele>1202</ele>
        <time>2021-08-03T09:53:38.330Z</time>
      </trkpt>
      <trkpt lat="47.01977" lon="8.89568">
        <ele>1202</ele>
        <time>2021-08-03T09:53:39.329Z</time>
      </trkpt>
      <trkpt lat="47.01976" lon="8.89568">
        <ele>1202</ele>
        <time>2021-08-03T09:53:40.329Z</time>
      </trkpt>
      <trkpt lat="47.01976" lon="8.89568">
        <ele>1203</ele>
        <time>2021-08-03T09:53:41.330Z</time>
      </trkpt>
      <trkpt lat="47.01977" lon="8.89566">
        <ele>1203</ele>
        <time>2021-08-03T09:53:42.331Z</time>
      </trkpt>
      <trkpt lat="47.01977" lon="8.89565">
        <ele>1204</ele>
        <time>2021-08-03T09:53:43.331Z</time>
      </trkpt>
      <trkpt lat="47.01977" lon="8.89564">
        <ele>1204</ele>
        <time>2021-08-03T09:53:44.330Z</time>
      </trkpt>
      <trkpt lat="47.01976" lon="8.89562">
        <ele>1204</ele>
        <time>2021-08-03T09:53:45.330Z</time>
      </trkpt>
      <trkpt lat="47.01976" lon="8.89561">
        <ele>1204</ele>
        <time>2021-08-03T09:53:46.331Z</time>
      </trkpt>
      <trkpt lat="47.01977" lon="8.89559">
        <ele>1204</ele>
        <time>2021-08-03T09:53:47.330Z</time>
      </trkpt>
      <trkpt lat="47.01977" lon="8.89558">
        <ele>1205</ele>
        <time>2021-08-03T09:53:48.331Z</time>
      </trkpt>
      <trkpt lat="47.01976" lon="8.89556">
        <ele>1205</ele>
        <time>2021-08-03T09:53:49.330Z</time>
      </trkpt>
      <trkpt lat="47.01976" lon="8.89555">
        <ele>1205</ele>
        <time>2021-08-03T09:53:50.331Z</time>
      </trkpt>
      <trkpt lat="47.01975" lon="8.89553">
        <ele>1206</ele>
        <time>2021-08-03T09:53:51.331Z</time>
      </trkpt>
      <trkpt lat="47.01975" lon="8.89552">
        <ele>1206</ele>
        <time>2021-08-03T09:53:52.331Z</time>
      </trkpt>
      <trkpt lat="47.01974" lon="8.8955">
        <ele>1207</ele>
        <time>2021-08-03T09:53:53.330Z</time>
      </trkpt>
      <trkpt lat="47.01975" lon="8.89549">
        <ele>1207</ele>
        <time>2021-08-03T09:53:54.330Z</time>
      </trkpt>
      <trkpt lat="47.01974" lon="8.89548">
        <ele>1207</ele>
        <time>2021-08-03T09:53:55.331Z</time>
      </trkpt>
      <trkpt lat="47.01974" lon="8.89547">
        <ele>1207</ele>
        <time>2021-08-03T09:53:56.331Z</time>
      </trkpt>
      <trkpt lat="47.01974" lon="8.89547">
        <ele>1207</ele>
        <time>2021-08-03T09:53:57.330Z</time>
      </trkpt>
      <trkpt lat="47.01969" lon="8.8954">
        <ele>1206</ele>
        <time>2021-08-03T09:53:58.331Z</time>
      </trkpt>
      <trkpt lat="47.0197" lon="8.8954">
        <ele>1205</ele>
        <time>2021-08-03T09:53:59.330Z</time>
      </trkpt>
      <trkpt lat="47.01969" lon="8.8954">
        <ele>1205</ele>
        <time>2021-08-03T09:54:00.330Z</time>
      </trkpt>
      <trkpt lat="47.01968" lon="8.89539">
        <ele>1205</ele>
        <time>2021-08-03T09:54:01.333Z</time>
      </trkpt>
      <trkpt lat="47.01967" lon="8.89538">
        <ele>1206</ele>
        <time>2021-08-03T09:54:02.333Z</time>
      </trkpt>
      <trkpt lat="47.01967" lon="8.89538">
        <ele>1206</ele>
        <time>2021-08-03T09:54:03.333Z</time>
      </trkpt>
      <trkpt lat="47.01967" lon="8.89538">
        <ele>1206</ele>
        <time>2021-08-03T09:54:04.333Z</time>
      </trkpt>
      <trkpt lat="47.01966" lon="8.89539">
        <ele>1207</ele>
        <time>2021-08-03T09:54:05.334Z</time>
      </trkpt>
      <trkpt lat="47.01966" lon="8.89538">
        <ele>1207</ele>
        <time>2021-08-03T09:54:06.335Z</time>
      </trkpt>
      <trkpt lat="47.01966" lon="8.89538">
        <ele>1206</ele>
        <time>2021-08-03T09:54:07.335Z</time>
      </trkpt>
      <trkpt lat="47.01967" lon="8.89537">
        <ele>1206</ele>
        <time>2021-08-03T09:54:08.336Z</time>
      </trkpt>
      <trkpt lat="47.01967" lon="8.89536">
        <ele>1206</ele>
        <time>2021-08-03T09:54:09.336Z</time>
      </trkpt>
      <trkpt lat="47.01966" lon="8.89536">
        <ele>1206</ele>
        <time>2021-08-03T09:54:10.335Z</time>
      </trkpt>
      <trkpt lat="47.01966" lon="8.89535">
        <ele>1207</ele>
        <time>2021-08-03T09:54:11.336Z</time>
      </trkpt>
      <trkpt lat="47.01967" lon="8.89534">
        <ele>1207</ele>
        <time>2021-08-03T09:54:12.336Z</time>
      </trkpt>
      <trkpt lat="47.01967" lon="8.89532">
        <ele>1208</ele>
        <time>2021-08-03T09:54:13.336Z</time>
      </trkpt>
      <trkpt lat="47.01967" lon="8.89531">
        <ele>1208</ele>
        <time>2021-08-03T09:54:14.335Z</time>
      </trkpt>
      <trkpt lat="47.01967" lon="8.8953">
        <ele>1208</ele>
        <time>2021-08-03T09:54:15.335Z</time>
      </trkpt>
      <trkpt lat="47.01966" lon="8.89529">
        <ele>1209</ele>
        <time>2021-08-03T09:54:16.336Z</time>
      </trkpt>
      <trkpt lat="47.01966" lon="8.89528">
        <ele>1209</ele>
        <time>2021-08-03T09:54:17.335Z</time>
      </trkpt>
      <trkpt lat="47.01965" lon="8.89527">
        <ele>1210</ele>
        <time>2021-08-03T09:54:18.335Z</time>
      </trkpt>
      <trkpt lat="47.01965" lon="8.89527">
        <ele>1210</ele>
        <time>2021-08-03T09:54:19.335Z</time>
      </trkpt>
      <trkpt lat="47.01965" lon="8.89525">
        <ele>1211</ele>
        <time>2021-08-03T09:54:20.335Z</time>
      </trkpt>
      <trkpt lat="47.01964" lon="8.89524">
        <ele>1211</ele>
        <time>2021-08-03T09:54:21.335Z</time>
      </trkpt>
      <trkpt lat="47.01964" lon="8.89523">
        <ele>1211</ele>
        <time>2021-08-03T09:54:22.335Z</time>
      </trkpt>
      <trkpt lat="47.01964" lon="8.89522">
        <ele>1211</ele>
        <time>2021-08-03T09:54:23.335Z</time>
      </trkpt>
      <trkpt lat="47.01964" lon="8.89521">
        <ele>1211</ele>
        <time>2021-08-03T09:54:24.335Z</time>
      </trkpt>
      <trkpt lat="47.01964" lon="8.8952">
        <ele>1210</ele>
        <time>2021-08-03T09:54:25.336Z</time>
      </trkpt>
      <trkpt lat="47.01964" lon="8.89519">
        <ele>1210</ele>
        <time>2021-08-03T09:54:26.335Z</time>
      </trkpt>
      <trkpt lat="47.01964" lon="8.89517">
        <ele>1210</ele>
        <time>2021-08-03T09:54:27.336Z</time>
      </trkpt>
      <trkpt lat="47.01964" lon="8.89516">
        <ele>1210</ele>
        <time>2021-08-03T09:54:28.335Z</time>
      </trkpt>
      <trkpt lat="47.01963" lon="8.89515">
        <ele>1209</ele>
        <time>2021-08-03T09:54:29.335Z</time>
      </trkpt>
      <trkpt lat="47.01963" lon="8.89513">
        <ele>1209</ele>
        <time>2021-08-03T09:54:30.336Z</time>
      </trkpt>
      <trkpt lat="47.01962" lon="8.89512">
        <ele>1209</ele>
        <time>2021-08-03T09:54:31.335Z</time>
      </trkpt>
      <trkpt lat="47.01963" lon="8.89512">
        <ele>1208</ele>
        <time>2021-08-03T09:54:32.336Z</time>
      </trkpt>
      <trkpt lat="47.01963" lon="8.89511">
        <ele>1208</ele>
        <time>2021-08-03T09:54:33.335Z</time>
      </trkpt>
      <trkpt lat="47.01963" lon="8.8951">
        <ele>1208</ele>
        <time>2021-08-03T09:54:34.335Z</time>
      </trkpt>
      <trkpt lat="47.01963" lon="8.89509">
        <ele>1207</ele>
        <time>2021-08-03T09:54:35.335Z</time>
      </trkpt>
      <trkpt lat="47.01963" lon="8.89507">
        <ele>1207</ele>
        <time>2021-08-03T09:54:36.335Z</time>
      </trkpt>
      <trkpt lat="47.01963" lon="8.89506">
        <ele>1207</ele>
        <time>2021-08-03T09:54:37.336Z</time>
      </trkpt>
      <trkpt lat="47.01963" lon="8.89504">
        <ele>1206</ele>
        <time>2021-08-03T09:54:38.336Z</time>
      </trkpt>
      <trkpt lat="47.01963" lon="8.89503">
        <ele>1206</ele>
        <time>2021-08-03T09:54:39.336Z</time>
      </trkpt>
      <trkpt lat="47.01963" lon="8.89502">
        <ele>1205</ele>
        <time>2021-08-03T09:54:40.336Z</time>
      </trkpt>
      <trkpt lat="47.01963" lon="8.895">
        <ele>1205</ele>
        <time>2021-08-03T09:54:41.335Z</time>
      </trkpt>
      <trkpt lat="47.01963" lon="8.89498">
        <ele>1205</ele>
        <time>2021-08-03T09:54:42.335Z</time>
      </trkpt>
      <trkpt lat="47.01963" lon="8.89496">
        <ele>1205</ele>
        <time>2021-08-03T09:54:43.336Z</time>
      </trkpt>
      <trkpt lat="47.01963" lon="8.89495">
        <ele>1205</ele>
        <time>2021-08-03T09:54:44.336Z</time>
      </trkpt>
      <trkpt lat="47.01962" lon="8.89493">
        <ele>1205</ele>
        <time>2021-08-03T09:54:45.335Z</time>
      </trkpt>
      <trkpt lat="47.01961" lon="8.89491">
        <ele>1205</ele>
        <time>2021-08-03T09:54:46.336Z</time>
      </trkpt>
      <trkpt lat="47.01961" lon="8.8949">
        <ele>1205</ele>
        <time>2021-08-03T09:54:47.336Z</time>
      </trkpt>
      <trkpt lat="47.01961" lon="8.8949">
        <ele>1204</ele>
        <time>2021-08-03T09:54:48.336Z</time>
      </trkpt>
      <trkpt lat="47.0196" lon="8.89489">
        <ele>1204</ele>
        <time>2021-08-03T09:54:49.335Z</time>
      </trkpt>
      <trkpt lat="47.0196" lon="8.89488">
        <ele>1203</ele>
        <time>2021-08-03T09:54:50.335Z</time>
      </trkpt>
      <trkpt lat="47.0196" lon="8.89486">
        <ele>1203</ele>
        <time>2021-08-03T09:54:51.336Z</time>
      </trkpt>
      <trkpt lat="47.0196" lon="8.89485">
        <ele>1202</ele>
        <time>2021-08-03T09:54:52.335Z</time>
      </trkpt>
      <trkpt lat="47.0196" lon="8.89484">
        <ele>1202</ele>
        <time>2021-08-03T09:54:53.336Z</time>
      </trkpt>
      <trkpt lat="47.01959" lon="8.89482">
        <ele>1202</ele>
        <time>2021-08-03T09:54:54.335Z</time>
      </trkpt>
      <trkpt lat="47.01959" lon="8.89482">
        <ele>1201</ele>
        <time>2021-08-03T09:54:55.336Z</time>
      </trkpt>
      <trkpt lat="47.01959" lon="8.8948">
        <ele>1201</ele>
        <time>2021-08-03T09:54:56.336Z</time>
      </trkpt>
      <trkpt lat="47.01959" lon="8.89478">
        <ele>1201</ele>
        <time>2021-08-03T09:54:57.336Z</time>
      </trkpt>
      <trkpt lat="47.01959" lon="8.89477">
        <ele>1201</ele>
        <time>2021-08-03T09:54:58.336Z</time>
      </trkpt>
      <trkpt lat="47.01959" lon="8.89476">
        <ele>1201</ele>
        <time>2021-08-03T09:54:59.336Z</time>
      </trkpt>
      <trkpt lat="47.01958" lon="8.89475">
        <ele>1201</ele>
        <time>2021-08-03T09:55:00.336Z</time>
      </trkpt>
      <trkpt lat="47.01959" lon="8.89473">
        <ele>1201</ele>
        <time>2021-08-03T09:55:01.336Z</time>
      </trkpt>
      <trkpt lat="47.01959" lon="8.89472">
        <ele>1201</ele>
        <time>2021-08-03T09:55:02.335Z</time>
      </trkpt>
      <trkpt lat="47.01959" lon="8.8947">
        <ele>1201</ele>
        <time>2021-08-03T09:55:03.335Z</time>
      </trkpt>
      <trkpt lat="47.01959" lon="8.89468">
        <ele>1201</ele>
        <time>2021-08-03T09:55:04.335Z</time>
      </trkpt>
      <trkpt lat="47.01959" lon="8.89467">
        <ele>1201</ele>
        <time>2021-08-03T09:55:05.335Z</time>
      </trkpt>
      <trkpt lat="47.01959" lon="8.89465">
        <ele>1201</ele>
        <time>2021-08-03T09:55:06.336Z</time>
      </trkpt>
      <trkpt lat="47.01959" lon="8.89463">
        <ele>1201</ele>
        <time>2021-08-03T09:55:07.336Z</time>
      </trkpt>
      <trkpt lat="47.0196" lon="8.89461">
        <ele>1201</ele>
        <time>2021-08-03T09:55:08.335Z</time>
      </trkpt>
      <trkpt lat="47.0196" lon="8.8946">
        <ele>1201</ele>
        <time>2021-08-03T09:55:09.335Z</time>
      </trkpt>
      <trkpt lat="47.0196" lon="8.89458">
        <ele>1201</ele>
        <time>2021-08-03T09:55:10.336Z</time>
      </trkpt>
      <trkpt lat="47.01959" lon="8.89457">
        <ele>1201</ele>
        <time>2021-08-03T09:55:11.336Z</time>
      </trkpt>
      <trkpt lat="47.01958" lon="8.89457">
        <ele>1201</ele>
        <time>2021-08-03T09:55:12.336Z</time>
      </trkpt>
      <trkpt lat="47.01958" lon="8.89456">
        <ele>1201</ele>
        <time>2021-08-03T09:55:13.335Z</time>
      </trkpt>
      <trkpt lat="47.01959" lon="8.89457">
        <ele>1201</ele>
        <time>2021-08-03T09:55:14.336Z</time>
      </trkpt>
      <trkpt lat="47.01959" lon="8.89456">
        <ele>1202</ele>
        <time>2021-08-03T09:55:15.336Z</time>
      </trkpt>
      <trkpt lat="47.01961" lon="8.89454">
        <ele>1202</ele>
        <time>2021-08-03T09:55:16.337Z</time>
      </trkpt>
      <trkpt lat="47.01961" lon="8.89454">
        <ele>1201</ele>
        <time>2021-08-03T09:55:17.336Z</time>
      </trkpt>
      <trkpt lat="47.0196" lon="8.89455">
        <ele>1201</ele>
        <time>2021-08-03T09:55:18.337Z</time>
      </trkpt>
      <trkpt lat="47.0196" lon="8.89456">
        <ele>1201</ele>
        <time>2021-08-03T09:55:19.336Z</time>
      </trkpt>
      <trkpt lat="47.01961" lon="8.89455">
        <ele>1203</ele>
        <time>2021-08-03T09:55:20.339Z</time>
      </trkpt>
      <trkpt lat="47.01961" lon="8.89455">
        <ele>1203</ele>
        <time>2021-08-03T09:55:21.338Z</time>
      </trkpt>
      <trkpt lat="47.01961" lon="8.89454">
        <ele>1203</ele>
        <time>2021-08-03T09:55:22.338Z</time>
      </trkpt>
      <trkpt lat="47.01961" lon="8.89453">
        <ele>1204</ele>
        <time>2021-08-03T09:55:23.339Z</time>
      </trkpt>
      <trkpt lat="47.01961" lon="8.89452">
        <ele>1204</ele>
        <time>2021-08-03T09:55:24.338Z</time>
      </trkpt>
      <trkpt lat="47.01961" lon="8.8945">
        <ele>1203</ele>
        <time>2021-08-03T09:55:25.338Z</time>
      </trkpt>
      <trkpt lat="47.01961" lon="8.89449">
        <ele>1203</ele>
        <time>2021-08-03T09:55:26.339Z</time>
      </trkpt>
      <trkpt lat="47.01962" lon="8.89448">
        <ele>1203</ele>
        <time>2021-08-03T09:55:27.339Z</time>
      </trkpt>
      <trkpt lat="47.01961" lon="8.89448">
        <ele>1203</ele>
        <time>2021-08-03T09:55:28.338Z</time>
      </trkpt>
      <trkpt lat="47.0196" lon="8.89447">
        <ele>1203</ele>
        <time>2021-08-03T09:55:29.338Z</time>
      </trkpt>
      <trkpt lat="47.0196" lon="8.89446">
        <ele>1204</ele>
        <time>2021-08-03T09:55:30.338Z</time>
      </trkpt>
      <trkpt lat="47.01961" lon="8.89444">
        <ele>1204</ele>
        <time>2021-08-03T09:55:31.338Z</time>
      </trkpt>
      <trkpt lat="47.01961" lon="8.89443">
        <ele>1204</ele>
        <time>2021-08-03T09:55:32.339Z</time>
      </trkpt>
      <trkpt lat="47.0196" lon="8.89442">
        <ele>1204</ele>
        <time>2021-08-03T09:55:33.339Z</time>
      </trkpt>
      <trkpt lat="47.0196" lon="8.89441">
        <ele>1204</ele>
        <time>2021-08-03T09:55:34.338Z</time>
      </trkpt>
      <trkpt lat="47.01959" lon="8.8944">
        <ele>1205</ele>
        <time>2021-08-03T09:55:35.339Z</time>
      </trkpt>
      <trkpt lat="47.01959" lon="8.89439">
        <ele>1205</ele>
        <time>2021-08-03T09:55:36.339Z</time>
      </trkpt>
      <trkpt lat="47.01959" lon="8.89437">
        <ele>1205</ele>
        <time>2021-08-03T09:55:37.338Z</time>
      </trkpt>
      <trkpt lat="47.01959" lon="8.89436">
        <ele>1205</ele>
        <time>2021-08-03T09:55:38.338Z</time>
      </trkpt>
      <trkpt lat="47.01959" lon="8.89435">
        <ele>1204</ele>
        <time>2021-08-03T09:55:39.339Z</time>
      </trkpt>
      <trkpt lat="47.01959" lon="8.89434">
        <ele>1204</ele>
        <time>2021-08-03T09:55:40.339Z</time>
      </trkpt>
      <trkpt lat="47.01958" lon="8.89433">
        <ele>1204</ele>
        <time>2021-08-03T09:55:41.338Z</time>
      </trkpt>
      <trkpt lat="47.01958" lon="8.89432">
        <ele>1204</ele>
        <time>2021-08-03T09:55:42.339Z</time>
      </trkpt>
      <trkpt lat="47.01958" lon="8.8943">
        <ele>1205</ele>
        <time>2021-08-03T09:55:43.338Z</time>
      </trkpt>
      <trkpt lat="47.01958" lon="8.89428">
        <ele>1205</ele>
        <time>2021-08-03T09:55:44.339Z</time>
      </trkpt>
      <trkpt lat="47.0196" lon="8.89428">
        <ele>1205</ele>
        <time>2021-08-03T09:55:45.339Z</time>
      </trkpt>
      <trkpt lat="47.0196" lon="8.89427">
        <ele>1205</ele>
        <time>2021-08-03T09:55:46.339Z</time>
      </trkpt>
      <trkpt lat="47.0196" lon="8.89425">
        <ele>1205</ele>
        <time>2021-08-03T09:55:47.339Z</time>
      </trkpt>
      <trkpt lat="47.01959" lon="8.89424">
        <ele>1205</ele>
        <time>2021-08-03T09:55:48.339Z</time>
      </trkpt>
      <trkpt lat="47.01959" lon="8.89423">
        <ele>1206</ele>
        <time>2021-08-03T09:55:49.338Z</time>
      </trkpt>
      <trkpt lat="47.01958" lon="8.89422">
        <ele>1206</ele>
        <time>2021-08-03T09:55:50.339Z</time>
      </trkpt>
      <trkpt lat="47.01958" lon="8.89421">
        <ele>1206</ele>
        <time>2021-08-03T09:55:51.339Z</time>
      </trkpt>
      <trkpt lat="47.01959" lon="8.8942">
        <ele>1206</ele>
        <time>2021-08-03T09:55:52.339Z</time>
      </trkpt>
      <trkpt lat="47.01959" lon="8.89419">
        <ele>1207</ele>
        <time>2021-08-03T09:55:53.339Z</time>
      </trkpt>
      <trkpt lat="47.01959" lon="8.89418">
        <ele>1207</ele>
        <time>2021-08-03T09:55:54.338Z</time>
      </trkpt>
      <trkpt lat="47.0196" lon="8.89417">
        <ele>1207</ele>
        <time>2021-08-03T09:55:55.339Z</time>
      </trkpt>
      <trkpt lat="47.0196" lon="8.89415">
        <ele>1207</ele>
        <time>2021-08-03T09:55:56.338Z</time>
      </trkpt>
      <trkpt lat="47.0196" lon="8.89414">
        <ele>1207</ele>
        <time>2021-08-03T09:55:57.339Z</time>
      </trkpt>
      <trkpt lat="47.0196" lon="8.89413">
        <ele>1206</ele>
        <time>2021-08-03T09:55:58.338Z</time>
      </trkpt>
      <trkpt lat="47.0196" lon="8.89411">
        <ele>1206</ele>
        <time>2021-08-03T09:55:59.339Z</time>
      </trkpt>
      <trkpt lat="47.0196" lon="8.8941">
        <ele>1207</ele>
        <time>2021-08-03T09:56:00.339Z</time>
      </trkpt>
      <trkpt lat="47.01959" lon="8.89408">
        <ele>1207</ele>
        <time>2021-08-03T09:56:01.338Z</time>
      </trkpt>
      <trkpt lat="47.01959" lon="8.89407">
        <ele>1207</ele>
        <time>2021-08-03T09:56:02.339Z</time>
      </trkpt>
      <trkpt lat="47.0196" lon="8.89405">
        <ele>1207</ele>
        <time>2021-08-03T09:56:03.338Z</time>
      </trkpt>
      <trkpt lat="47.0196" lon="8.89404">
        <ele>1208</ele>
        <time>2021-08-03T09:56:04.339Z</time>
      </trkpt>
      <trkpt lat="47.01959" lon="8.89404">
        <ele>1208</ele>
        <time>2021-08-03T09:56:05.338Z</time>
      </trkpt>
      <trkpt lat="47.01959" lon="8.89402">
        <ele>1208</ele>
        <time>2021-08-03T09:56:06.339Z</time>
      </trkpt>
      <trkpt lat="47.0196" lon="8.89401">
        <ele>1208</ele>
        <time>2021-08-03T09:56:07.339Z</time>
      </trkpt>
      <trkpt lat="47.01959" lon="8.89401">
        <ele>1209</ele>
        <time>2021-08-03T09:56:08.339Z</time>
      </trkpt>
      <trkpt lat="47.0196" lon="8.89402">
        <ele>1209</ele>
        <time>2021-08-03T09:56:09.339Z</time>
      </trkpt>
      <trkpt lat="47.0196" lon="8.89402">
        <ele>1210</ele>
        <time>2021-08-03T09:56:10.339Z</time>
      </trkpt>
      <trkpt lat="47.01961" lon="8.89402">
        <ele>1210</ele>
        <time>2021-08-03T09:56:11.339Z</time>
      </trkpt>
      <trkpt lat="47.01961" lon="8.89401">
        <ele>1211</ele>
        <time>2021-08-03T09:56:12.340Z</time>
      </trkpt>
      <trkpt lat="47.0196" lon="8.89401">
        <ele>1212</ele>
        <time>2021-08-03T09:56:13.339Z</time>
      </trkpt>
      <trkpt lat="47.01957" lon="8.89394">
        <ele>1218</ele>
        <time>2021-08-03T09:56:14.340Z</time>
      </trkpt>
      <trkpt lat="47.01957" lon="8.89393">
        <ele>1218</ele>
        <time>2021-08-03T09:56:15.339Z</time>
      </trkpt>
      <trkpt lat="47.01958" lon="8.89392">
        <ele>1217</ele>
        <time>2021-08-03T09:56:16.339Z</time>
      </trkpt>
      <trkpt lat="47.01958" lon="8.8939">
        <ele>1216</ele>
        <time>2021-08-03T09:56:17.340Z</time>
      </trkpt>
      <trkpt lat="47.01958" lon="8.89389">
        <ele>1215</ele>
        <time>2021-08-03T09:56:18.339Z</time>
      </trkpt>
      <trkpt lat="47.01957" lon="8.89388">
        <ele>1215</ele>
        <time>2021-08-03T09:56:19.339Z</time>
      </trkpt>
      <trkpt lat="47.01957" lon="8.89387">
        <ele>1214</ele>
        <time>2021-08-03T09:56:20.339Z</time>
      </trkpt>
      <trkpt lat="47.01957" lon="8.89386">
        <ele>1214</ele>
        <time>2021-08-03T09:56:21.340Z</time>
      </trkpt>
      <trkpt lat="47.01956" lon="8.89385">
        <ele>1213</ele>
        <time>2021-08-03T09:56:22.339Z</time>
      </trkpt>
      <trkpt lat="47.01956" lon="8.89384">
        <ele>1213</ele>
        <time>2021-08-03T09:56:23.339Z</time>
      </trkpt>
      <trkpt lat="47.01956" lon="8.89383">
        <ele>1213</ele>
        <time>2021-08-03T09:56:24.339Z</time>
      </trkpt>
      <trkpt lat="47.01955" lon="8.89382">
        <ele>1212</ele>
        <time>2021-08-03T09:56:25.339Z</time>
      </trkpt>
      <trkpt lat="47.01955" lon="8.89382">
        <ele>1212</ele>
        <time>2021-08-03T09:56:26.340Z</time>
      </trkpt>
      <trkpt lat="47.01955" lon="8.89381">
        <ele>1211</ele>
        <time>2021-08-03T09:56:27.339Z</time>
      </trkpt>
      <trkpt lat="47.01955" lon="8.8938">
        <ele>1210</ele>
        <time>2021-08-03T09:56:28.339Z</time>
      </trkpt>
      <trkpt lat="47.01954" lon="8.89379">
        <ele>1210</ele>
        <time>2021-08-03T09:56:29.339Z</time>
      </trkpt>
      <trkpt lat="47.01954" lon="8.89378">
        <ele>1209</ele>
        <time>2021-08-03T09:56:30.339Z</time>
      </trkpt>
      <trkpt lat="47.01953" lon="8.89376">
        <ele>1209</ele>
        <time>2021-08-03T09:56:31.339Z</time>
      </trkpt>
      <trkpt lat="47.01952" lon="8.89375">
        <ele>1209</ele>
        <time>2021-08-03T09:56:32.339Z</time>
      </trkpt>
      <trkpt lat="47.01951" lon="8.89373">
        <ele>1209</ele>
        <time>2021-08-03T09:56:33.339Z</time>
      </trkpt>
      <trkpt lat="47.01951" lon="8.89372">
        <ele>1209</ele>
        <time>2021-08-03T09:56:34.339Z</time>
      </trkpt>
      <trkpt lat="47.0195" lon="8.8937">
        <ele>1209</ele>
        <time>2021-08-03T09:56:35.339Z</time>
      </trkpt>
      <trkpt lat="47.0195" lon="8.89369">
        <ele>1209</ele>
        <time>2021-08-03T09:56:36.339Z</time>
      </trkpt>
      <trkpt lat="47.01949" lon="8.89368">
        <ele>1209</ele>
        <time>2021-08-03T09:56:37.339Z</time>
      </trkpt>
      <trkpt lat="47.01949" lon="8.89367">
        <ele>1209</ele>
        <time>2021-08-03T09:56:38.339Z</time>
      </trkpt>
      <trkpt lat="47.01949" lon="8.89366">
        <ele>1209</ele>
        <time>2021-08-03T09:56:39.339Z</time>
      </trkpt>
      <trkpt lat="47.01949" lon="8.89366">
        <ele>1208</ele>
        <time>2021-08-03T09:56:40.339Z</time>
      </trkpt>
      <trkpt lat="47.01949" lon="8.89365">
        <ele>1207</ele>
        <time>2021-08-03T09:56:41.339Z</time>
      </trkpt>
      <trkpt lat="47.01949" lon="8.89363">
        <ele>1207</ele>
        <time>2021-08-03T09:56:42.339Z</time>
      </trkpt>
      <trkpt lat="47.01949" lon="8.89363">
        <ele>1206</ele>
        <time>2021-08-03T09:56:43.340Z</time>
      </trkpt>
      <trkpt lat="47.01949" lon="8.89362">
        <ele>1205</ele>
        <time>2021-08-03T09:56:44.340Z</time>
      </trkpt>
      <trkpt lat="47.01948" lon="8.8936">
        <ele>1205</ele>
        <time>2021-08-03T09:56:45.339Z</time>
      </trkpt>
      <trkpt lat="47.01948" lon="8.89359">
        <ele>1205</ele>
        <time>2021-08-03T09:56:46.339Z</time>
      </trkpt>
      <trkpt lat="47.01948" lon="8.89358">
        <ele>1204</ele>
        <time>2021-08-03T09:56:47.340Z</time>
      </trkpt>
      <trkpt lat="47.01947" lon="8.89357">
        <ele>1203</ele>
        <time>2021-08-03T09:56:48.339Z</time>
      </trkpt>
      <trkpt lat="47.01947" lon="8.89356">
        <ele>1202</ele>
        <time>2021-08-03T09:56:49.339Z</time>
      </trkpt>
      <trkpt lat="47.01946" lon="8.89354">
        <ele>1202</ele>
        <time>2021-08-03T09:56:50.339Z</time>
      </trkpt>
      <trkpt lat="47.01946" lon="8.89353">
        <ele>1202</ele>
        <time>2021-08-03T09:56:51.340Z</time>
      </trkpt>
      <trkpt lat="47.01945" lon="8.89352">
        <ele>1202</ele>
        <time>2021-08-03T09:56:52.339Z</time>
      </trkpt>
      <trkpt lat="47.01945" lon="8.89351">
        <ele>1202</ele>
        <time>2021-08-03T09:56:53.339Z</time>
      </trkpt>
      <trkpt lat="47.01945" lon="8.8935">
        <ele>1203</ele>
        <time>2021-08-03T09:56:54.339Z</time>
      </trkpt>
      <trkpt lat="47.01945" lon="8.89349">
        <ele>1203</ele>
        <time>2021-08-03T09:56:55.339Z</time>
      </trkpt>
      <trkpt lat="47.01944" lon="8.89347">
        <ele>1204</ele>
        <time>2021-08-03T09:56:56.339Z</time>
      </trkpt>
      <trkpt lat="47.01943" lon="8.89346">
        <ele>1204</ele>
        <time>2021-08-03T09:56:57.339Z</time>
      </trkpt>
      <trkpt lat="47.01943" lon="8.89345">
        <ele>1204</ele>
        <time>2021-08-03T09:56:58.339Z</time>
      </trkpt>
      <trkpt lat="47.01942" lon="8.89344">
        <ele>1204</ele>
        <time>2021-08-03T09:56:59.339Z</time>
      </trkpt>
      <trkpt lat="47.01942" lon="8.89343">
        <ele>1203</ele>
        <time>2021-08-03T09:57:00.340Z</time>
      </trkpt>
      <trkpt lat="47.01942" lon="8.89342">
        <ele>1202</ele>
        <time>2021-08-03T09:57:01.339Z</time>
      </trkpt>
      <trkpt lat="47.01942" lon="8.8934">
        <ele>1202</ele>
        <time>2021-08-03T09:57:02.339Z</time>
      </trkpt>
      <trkpt lat="47.01941" lon="8.89339">
        <ele>1201</ele>
        <time>2021-08-03T09:57:03.339Z</time>
      </trkpt>
      <trkpt lat="47.01941" lon="8.89338">
        <ele>1201</ele>
        <time>2021-08-03T09:57:04.339Z</time>
      </trkpt>
      <trkpt lat="47.0194" lon="8.89336">
        <ele>1201</ele>
        <time>2021-08-03T09:57:05.339Z</time>
      </trkpt>
      <trkpt lat="47.01939" lon="8.89336">
        <ele>1201</ele>
        <time>2021-08-03T09:57:06.339Z</time>
      </trkpt>
      <trkpt lat="47.01939" lon="8.89334">
        <ele>1201</ele>
        <time>2021-08-03T09:57:07.339Z</time>
      </trkpt>
      <trkpt lat="47.01939" lon="8.89333">
        <ele>1201</ele>
        <time>2021-08-03T09:57:08.339Z</time>
      </trkpt>
      <trkpt lat="47.01939" lon="8.89332">
        <ele>1201</ele>
        <time>2021-08-03T09:57:09.339Z</time>
      </trkpt>
      <trkpt lat="47.01938" lon="8.89331">
        <ele>1201</ele>
        <time>2021-08-03T09:57:10.339Z</time>
      </trkpt>
      <trkpt lat="47.01938" lon="8.8933">
        <ele>1201</ele>
        <time>2021-08-03T09:57:11.339Z</time>
      </trkpt>
      <trkpt lat="47.01938" lon="8.89328">
        <ele>1201</ele>
        <time>2021-08-03T09:57:12.340Z</time>
      </trkpt>
      <trkpt lat="47.01938" lon="8.89327">
        <ele>1201</ele>
        <time>2021-08-03T09:57:13.339Z</time>
      </trkpt>
      <trkpt lat="47.01938" lon="8.89325">
        <ele>1201</ele>
        <time>2021-08-03T09:57:14.339Z</time>
      </trkpt>
      <trkpt lat="47.01937" lon="8.89324">
        <ele>1201</ele>
        <time>2021-08-03T09:57:15.339Z</time>
      </trkpt>
      <trkpt lat="47.01936" lon="8.89323">
        <ele>1201</ele>
        <time>2021-08-03T09:57:16.339Z</time>
      </trkpt>
      <trkpt lat="47.01936" lon="8.89323">
        <ele>1201</ele>
        <time>2021-08-03T09:57:17.340Z</time>
      </trkpt>
      <trkpt lat="47.01935" lon="8.89322">
        <ele>1201</ele>
        <time>2021-08-03T09:57:18.339Z</time>
      </trkpt>
      <trkpt lat="47.01935" lon="8.89321">
        <ele>1201</ele>
        <time>2021-08-03T09:57:19.339Z</time>
      </trkpt>
      <trkpt lat="47.01935" lon="8.8932">
        <ele>1201</ele>
        <time>2021-08-03T09:57:20.339Z</time>
      </trkpt>
      <trkpt lat="47.01934" lon="8.89319">
        <ele>1201</ele>
        <time>2021-08-03T09:57:21.339Z</time>
      </trkpt>
      <trkpt lat="47.01934" lon="8.89318">
        <ele>1201</ele>
        <time>2021-08-03T09:57:22.339Z</time>
      </trkpt>
      <trkpt lat="47.01934" lon="8.89317">
        <ele>1200</ele>
        <time>2021-08-03T09:57:23.340Z</time>
      </trkpt>
      <trkpt lat="47.01934" lon="8.89315">
        <ele>1200</ele>
        <time>2021-08-03T09:57:24.339Z</time>
      </trkpt>
      <trkpt lat="47.01934" lon="8.89314">
        <ele>1200</ele>
        <time>2021-08-03T09:57:25.339Z</time>
      </trkpt>
      <trkpt lat="47.01933" lon="8.89313">
        <ele>1200</ele>
        <time>2021-08-03T09:57:26.339Z</time>
      </trkpt>
      <trkpt lat="47.01932" lon="8.89312">
        <ele>1200</ele>
        <time>2021-08-03T09:57:27.340Z</time>
      </trkpt>
      <trkpt lat="47.01932" lon="8.89311">
        <ele>1200</ele>
        <time>2021-08-03T09:57:28.339Z</time>
      </trkpt>
      <trkpt lat="47.01932" lon="8.8931">
        <ele>1201</ele>
        <time>2021-08-03T09:57:29.339Z</time>
      </trkpt>
      <trkpt lat="47.01932" lon="8.89308">
        <ele>1201</ele>
        <time>2021-08-03T09:57:30.339Z</time>
      </trkpt>
      <trkpt lat="47.01931" lon="8.89306">
        <ele>1202</ele>
        <time>2021-08-03T09:57:31.339Z</time>
      </trkpt>
      <trkpt lat="47.01931" lon="8.89304">
        <ele>1203</ele>
        <time>2021-08-03T09:57:32.339Z</time>
      </trkpt>
      <trkpt lat="47.01932" lon="8.89302">
        <ele>1203</ele>
        <time>2021-08-03T09:57:33.339Z</time>
      </trkpt>
      <trkpt lat="47.01931" lon="8.893">
        <ele>1203</ele>
        <time>2021-08-03T09:57:34.339Z</time>
      </trkpt>
      <trkpt lat="47.01931" lon="8.89299">
        <ele>1203</ele>
        <time>2021-08-03T09:57:35.339Z</time>
      </trkpt>
      <trkpt lat="47.01931" lon="8.89298">
        <ele>1203</ele>
        <time>2021-08-03T09:57:36.339Z</time>
      </trkpt>
      <trkpt lat="47.0193" lon="8.89297">
        <ele>1204</ele>
        <time>2021-08-03T09:57:37.340Z</time>
      </trkpt>
      <trkpt lat="47.0193" lon="8.89296">
        <ele>1205</ele>
        <time>2021-08-03T09:57:38.340Z</time>
      </trkpt>
      <trkpt lat="47.01929" lon="8.89295">
        <ele>1205</ele>
        <time>2021-08-03T09:57:39.339Z</time>
      </trkpt>
      <trkpt lat="47.01928" lon="8.89294">
        <ele>1206</ele>
        <time>2021-08-03T09:57:40.339Z</time>
      </trkpt>
      <trkpt lat="47.01927" lon="8.89293">
        <ele>1206</ele>
        <time>2021-08-03T09:57:41.339Z</time>
      </trkpt>
      <trkpt lat="47.01926" lon="8.89292">
        <ele>1207</ele>
        <time>2021-08-03T09:57:42.339Z</time>
      </trkpt>
      <trkpt lat="47.01926" lon="8.8929">
        <ele>1207</ele>
        <time>2021-08-03T09:57:43.339Z</time>
      </trkpt>
      <trkpt lat="47.01926" lon="8.89289">
        <ele>1208</ele>
        <time>2021-08-03T09:57:44.339Z</time>
      </trkpt>
      <trkpt lat="47.01925" lon="8.89288">
        <ele>1209</ele>
        <time>2021-08-03T09:57:45.339Z</time>
      </trkpt>
      <trkpt lat="47.01925" lon="8.89287">
        <ele>1209</ele>
        <time>2021-08-03T09:57:46.339Z</time>
      </trkpt>
      <trkpt lat="47.01925" lon="8.89286">
        <ele>1209</ele>
        <time>2021-08-03T09:57:47.340Z</time>
      </trkpt>
      <trkpt lat="47.01925" lon="8.89285">
        <ele>1210</ele>
        <time>2021-08-03T09:57:48.339Z</time>
      </trkpt>
      <trkpt lat="47.01925" lon="8.89284">
        <ele>1210</ele>
        <time>2021-08-03T09:57:49.339Z</time>
      </trkpt>
      <trkpt lat="47.01924" lon="8.89283">
        <ele>1211</ele>
        <time>2021-08-03T09:57:50.340Z</time>
      </trkpt>
      <trkpt lat="47.01924" lon="8.89282">
        <ele>1211</ele>
        <time>2021-08-03T09:57:51.339Z</time>
      </trkpt>
      <trkpt lat="47.01924" lon="8.89281">
        <ele>1211</ele>
        <time>2021-08-03T09:57:52.339Z</time>
      </trkpt>
      <trkpt lat="47.01923" lon="8.89279">
        <ele>1211</ele>
        <time>2021-08-03T09:57:53.339Z</time>
      </trkpt>
      <trkpt lat="47.01923" lon="8.89278">
        <ele>1211</ele>
        <time>2021-08-03T09:57:54.340Z</time>
      </trkpt>
      <trkpt lat="47.01923" lon="8.89277">
        <ele>1211</ele>
        <time>2021-08-03T09:57:55.340Z</time>
      </trkpt>
      <trkpt lat="47.01922" lon="8.89277">
        <ele>1211</ele>
        <time>2021-08-03T09:57:56.339Z</time>
      </trkpt>
      <trkpt lat="47.01922" lon="8.89276">
        <ele>1211</ele>
        <time>2021-08-03T09:57:57.340Z</time>
      </trkpt>
      <trkpt lat="47.01922" lon="8.89276">
        <ele>1211</ele>
        <time>2021-08-03T09:57:58.339Z</time>
      </trkpt>
      <trkpt lat="47.01922" lon="8.89275">
        <ele>1210</ele>
        <time>2021-08-03T09:57:59.340Z</time>
      </trkpt>
      <trkpt lat="47.01922" lon="8.89275">
        <ele>1210</ele>
        <time>2021-08-03T09:58:00.340Z</time>
      </trkpt>
      <trkpt lat="47.01922" lon="8.89274">
        <ele>1210</ele>
        <time>2021-08-03T09:58:01.339Z</time>
      </trkpt>
      <trkpt lat="47.01922" lon="8.89273">
        <ele>1210</ele>
        <time>2021-08-03T09:58:02.340Z</time>
      </trkpt>
      <trkpt lat="47.01922" lon="8.89272">
        <ele>1209</ele>
        <time>2021-08-03T09:58:03.339Z</time>
      </trkpt>
      <trkpt lat="47.01922" lon="8.89271">
        <ele>1209</ele>
        <time>2021-08-03T09:58:04.339Z</time>
      </trkpt>
      <trkpt lat="47.01922" lon="8.8927">
        <ele>1210</ele>
        <time>2021-08-03T09:58:05.339Z</time>
      </trkpt>
      <trkpt lat="47.01922" lon="8.89269">
        <ele>1210</ele>
        <time>2021-08-03T09:58:06.339Z</time>
      </trkpt>
      <trkpt lat="47.01922" lon="8.89268">
        <ele>1210</ele>
        <time>2021-08-03T09:58:07.339Z</time>
      </trkpt>
      <trkpt lat="47.01922" lon="8.89265">
        <ele>1210</ele>
        <time>2021-08-03T09:58:08.339Z</time>
      </trkpt>
      <trkpt lat="47.01922" lon="8.89263">
        <ele>1210</ele>
        <time>2021-08-03T09:58:09.340Z</time>
      </trkpt>
      <trkpt lat="47.01922" lon="8.89263">
        <ele>1210</ele>
        <time>2021-08-03T09:58:10.339Z</time>
      </trkpt>
      <trkpt lat="47.01922" lon="8.89262">
        <ele>1210</ele>
        <time>2021-08-03T09:58:11.340Z</time>
      </trkpt>
      <trkpt lat="47.01921" lon="8.89261">
        <ele>1210</ele>
        <time>2021-08-03T09:58:12.339Z</time>
      </trkpt>
      <trkpt lat="47.01922" lon="8.89261">
        <ele>1209</ele>
        <time>2021-08-03T09:58:13.339Z</time>
      </trkpt>
      <trkpt lat="47.01922" lon="8.89261">
        <ele>1209</ele>
        <time>2021-08-03T09:58:14.339Z</time>
      </trkpt>
      <trkpt lat="47.01923" lon="8.8926">
        <ele>1209</ele>
        <time>2021-08-03T09:58:15.339Z</time>
      </trkpt>
      <trkpt lat="47.01923" lon="8.89259">
        <ele>1209</ele>
        <time>2021-08-03T09:58:16.340Z</time>
      </trkpt>
      <trkpt lat="47.01923" lon="8.89258">
        <ele>1209</ele>
        <time>2021-08-03T09:58:17.340Z</time>
      </trkpt>
      <trkpt lat="47.01923" lon="8.89257">
        <ele>1210</ele>
        <time>2021-08-03T09:58:18.339Z</time>
      </trkpt>
      <trkpt lat="47.01923" lon="8.89256">
        <ele>1210</ele>
        <time>2021-08-03T09:58:19.339Z</time>
      </trkpt>
      <trkpt lat="47.01923" lon="8.89255">
        <ele>1210</ele>
        <time>2021-08-03T09:58:20.340Z</time>
      </trkpt>
      <trkpt lat="47.01922" lon="8.89254">
        <ele>1210</ele>
        <time>2021-08-03T09:58:21.339Z</time>
      </trkpt>
      <trkpt lat="47.01922" lon="8.89254">
        <ele>1209</ele>
        <time>2021-08-03T09:58:22.339Z</time>
      </trkpt>
      <trkpt lat="47.01923" lon="8.89253">
        <ele>1209</ele>
        <time>2021-08-03T09:58:23.339Z</time>
      </trkpt>
      <trkpt lat="47.01923" lon="8.89253">
        <ele>1209</ele>
        <time>2021-08-03T09:58:24.340Z</time>
      </trkpt>
      <trkpt lat="47.01924" lon="8.89252">
        <ele>1209</ele>
        <time>2021-08-03T09:58:25.339Z</time>
      </trkpt>
      <trkpt lat="47.01923" lon="8.89251">
        <ele>1209</ele>
        <time>2021-08-03T09:58:26.340Z</time>
      </trkpt>
      <trkpt lat="47.01924" lon="8.8925">
        <ele>1209</ele>
        <time>2021-08-03T09:58:27.339Z</time>
      </trkpt>
      <trkpt lat="47.01923" lon="8.89249">
        <ele>1210</ele>
        <time>2021-08-03T09:58:28.339Z</time>
      </trkpt>
      <trkpt lat="47.01923" lon="8.89248">
        <ele>1210</ele>
        <time>2021-08-03T09:58:29.339Z</time>
      </trkpt>
      <trkpt lat="47.01924" lon="8.89247">
        <ele>1210</ele>
        <time>2021-08-03T09:58:30.340Z</time>
      </trkpt>
      <trkpt lat="47.01924" lon="8.89246">
        <ele>1210</ele>
        <time>2021-08-03T09:58:31.339Z</time>
      </trkpt>
      <trkpt lat="47.01924" lon="8.89245">
        <ele>1210</ele>
        <time>2021-08-03T09:58:32.339Z</time>
      </trkpt>
      <trkpt lat="47.01924" lon="8.89244">
        <ele>1210</ele>
        <time>2021-08-03T09:58:33.339Z</time>
      </trkpt>
      <trkpt lat="47.01925" lon="8.89243">
        <ele>1210</ele>
        <time>2021-08-03T09:58:34.340Z</time>
      </trkpt>
      <trkpt lat="47.01925" lon="8.89242">
        <ele>1210</ele>
        <time>2021-08-03T09:58:35.339Z</time>
      </trkpt>
      <trkpt lat="47.01925" lon="8.89242">
        <ele>1210</ele>
        <time>2021-08-03T09:58:36.339Z</time>
      </trkpt>
      <trkpt lat="47.01925" lon="8.89241">
        <ele>1210</ele>
        <time>2021-08-03T09:58:37.339Z</time>
      </trkpt>
      <trkpt lat="47.01924" lon="8.89241">
        <ele>1210</ele>
        <time>2021-08-03T09:58:38.339Z</time>
      </trkpt>
      <trkpt lat="47.01924" lon="8.8924">
        <ele>1210</ele>
        <time>2021-08-03T09:58:39.340Z</time>
      </trkpt>
      <trkpt lat="47.01923" lon="8.8924">
        <ele>1210</ele>
        <time>2021-08-03T09:58:40.339Z</time>
      </trkpt>
      <trkpt lat="47.01923" lon="8.89239">
        <ele>1211</ele>
        <time>2021-08-03T09:58:41.339Z</time>
      </trkpt>
      <trkpt lat="47.01923" lon="8.89238">
        <ele>1211</ele>
        <time>2021-08-03T09:58:42.340Z</time>
      </trkpt>
      <trkpt lat="47.01924" lon="8.89237">
        <ele>1211</ele>
        <time>2021-08-03T09:58:43.339Z</time>
      </trkpt>
      <trkpt lat="47.01924" lon="8.89235">
        <ele>1212</ele>
        <time>2021-08-03T09:58:44.339Z</time>
      </trkpt>
      <trkpt lat="47.01924" lon="8.89234">
        <ele>1213</ele>
        <time>2021-08-03T09:58:45.339Z</time>
      </trkpt>
      <trkpt lat="47.01924" lon="8.89233">
        <ele>1213</ele>
        <time>2021-08-03T09:58:46.339Z</time>
      </trkpt>
      <trkpt lat="47.01923" lon="8.89232">
        <ele>1214</ele>
        <time>2021-08-03T09:58:47.339Z</time>
      </trkpt>
      <trkpt lat="47.01923" lon="8.8923">
        <ele>1214</ele>
        <time>2021-08-03T09:58:48.339Z</time>
      </trkpt>
      <trkpt lat="47.01923" lon="8.89228">
        <ele>1215</ele>
        <time>2021-08-03T09:58:49.339Z</time>
      </trkpt>
      <trkpt lat="47.01922" lon="8.89227">
        <ele>1215</ele>
        <time>2021-08-03T09:58:50.339Z</time>
      </trkpt>
      <trkpt lat="47.01923" lon="8.89225">
        <ele>1216</ele>
        <time>2021-08-03T09:58:51.340Z</time>
      </trkpt>
      <trkpt lat="47.01923" lon="8.89223">
        <ele>1217</ele>
        <time>2021-08-03T09:58:52.339Z</time>
      </trkpt>
      <trkpt lat="47.01923" lon="8.89221">
        <ele>1217</ele>
        <time>2021-08-03T09:58:53.339Z</time>
      </trkpt>
      <trkpt lat="47.01922" lon="8.8922">
        <ele>1218</ele>
        <time>2021-08-03T09:58:54.339Z</time>
      </trkpt>
      <trkpt lat="47.01922" lon="8.89218">
        <ele>1218</ele>
        <time>2021-08-03T09:58:55.339Z</time>
      </trkpt>
      <trkpt lat="47.01923" lon="8.89217">
        <ele>1219</ele>
        <time>2021-08-03T09:58:56.339Z</time>
      </trkpt>
      <trkpt lat="47.01923" lon="8.89216">
        <ele>1219</ele>
        <time>2021-08-03T09:58:57.339Z</time>
      </trkpt>
      <trkpt lat="47.01924" lon="8.89215">
        <ele>1220</ele>
        <time>2021-08-03T09:58:58.339Z</time>
      </trkpt>
      <trkpt lat="47.01925" lon="8.89213">
        <ele>1220</ele>
        <time>2021-08-03T09:58:59.339Z</time>
      </trkpt>
      <trkpt lat="47.01925" lon="8.8921">
        <ele>1221</ele>
        <time>2021-08-03T09:59:00.339Z</time>
      </trkpt>
      <trkpt lat="47.01926" lon="8.89208">
        <ele>1221</ele>
        <time>2021-08-03T09:59:01.339Z</time>
      </trkpt>
      <trkpt lat="47.01926" lon="8.89206">
        <ele>1222</ele>
        <time>2021-08-03T09:59:02.339Z</time>
      </trkpt>
      <trkpt lat="47.01926" lon="8.89204">
        <ele>1223</ele>
        <time>2021-08-03T09:59:03.339Z</time>
      </trkpt>
      <trkpt lat="47.01926" lon="8.89202">
        <ele>1223</ele>
        <time>2021-08-03T09:59:04.340Z</time>
      </trkpt>
      <trkpt lat="47.01926" lon="8.89201">
        <ele>1224</ele>
        <time>2021-08-03T09:59:05.340Z</time>
      </trkpt>
      <trkpt lat="47.01926" lon="8.892">
        <ele>1224</ele>
        <time>2021-08-03T09:59:06.339Z</time>
      </trkpt>
      <trkpt lat="47.01925" lon="8.89199">
        <ele>1224</ele>
        <time>2021-08-03T09:59:07.339Z</time>
      </trkpt>
      <trkpt lat="47.01925" lon="8.89198">
        <ele>1225</ele>
        <time>2021-08-03T09:59:08.340Z</time>
      </trkpt>
      <trkpt lat="47.01925" lon="8.89197">
        <ele>1225</ele>
        <time>2021-08-03T09:59:09.339Z</time>
      </trkpt>
      <trkpt lat="47.01925" lon="8.89196">
        <ele>1225</ele>
        <time>2021-08-03T09:59:10.339Z</time>
      </trkpt>
      <trkpt lat="47.01926" lon="8.89196">
        <ele>1225</ele>
        <time>2021-08-03T09:59:11.339Z</time>
      </trkpt>
      <trkpt lat="47.01927" lon="8.89196">
        <ele>1225</ele>
        <time>2021-08-03T09:59:12.339Z</time>
      </trkpt>
      <trkpt lat="47.01928" lon="8.89195">
        <ele>1224</ele>
        <time>2021-08-03T09:59:13.339Z</time>
      </trkpt>
      <trkpt lat="47.01928" lon="8.89194">
        <ele>1224</ele>
        <time>2021-08-03T09:59:14.339Z</time>
      </trkpt>
      <trkpt lat="47.01929" lon="8.89193">
        <ele>1223</ele>
        <time>2021-08-03T09:59:15.339Z</time>
      </trkpt>
      <trkpt lat="47.01929" lon="8.89192">
        <ele>1222</ele>
        <time>2021-08-03T09:59:16.339Z</time>
      </trkpt>
      <trkpt lat="47.01929" lon="8.89191">
        <ele>1222</ele>
        <time>2021-08-03T09:59:17.339Z</time>
      </trkpt>
      <trkpt lat="47.01929" lon="8.8919">
        <ele>1221</ele>
        <time>2021-08-03T09:59:18.339Z</time>
      </trkpt>
      <trkpt lat="47.01929" lon="8.89189">
        <ele>1221</ele>
        <time>2021-08-03T09:59:19.339Z</time>
      </trkpt>
      <trkpt lat="47.01929" lon="8.89188">
        <ele>1220</ele>
        <time>2021-08-03T09:59:20.340Z</time>
      </trkpt>
      <trkpt lat="47.01929" lon="8.89187">
        <ele>1220</ele>
        <time>2021-08-03T09:59:21.339Z</time>
      </trkpt>
      <trkpt lat="47.01929" lon="8.89186">
        <ele>1220</ele>
        <time>2021-08-03T09:59:22.339Z</time>
      </trkpt>
      <trkpt lat="47.0193" lon="8.89185">
        <ele>1220</ele>
        <time>2021-08-03T09:59:23.339Z</time>
      </trkpt>
      <trkpt lat="47.0193" lon="8.89184">
        <ele>1219</ele>
        <time>2021-08-03T09:59:24.340Z</time>
      </trkpt>
      <trkpt lat="47.0193" lon="8.89183">
        <ele>1219</ele>
        <time>2021-08-03T09:59:25.339Z</time>
      </trkpt>
      <trkpt lat="47.0193" lon="8.89182">
        <ele>1218</ele>
        <time>2021-08-03T09:59:26.339Z</time>
      </trkpt>
      <trkpt lat="47.01931" lon="8.89181">
        <ele>1218</ele>
        <time>2021-08-03T09:59:27.340Z</time>
      </trkpt>
      <trkpt lat="47.01931" lon="8.89179">
        <ele>1218</ele>
        <time>2021-08-03T09:59:28.339Z</time>
      </trkpt>
      <trkpt lat="47.01932" lon="8.89178">
        <ele>1218</ele>
        <time>2021-08-03T09:59:29.339Z</time>
      </trkpt>
      <trkpt lat="47.01933" lon="8.89177">
        <ele>1218</ele>
        <time>2021-08-03T09:59:30.339Z</time>
      </trkpt>
      <trkpt lat="47.01933" lon="8.89175">
        <ele>1218</ele>
        <time>2021-08-03T09:59:31.340Z</time>
      </trkpt>
      <trkpt lat="47.01933" lon="8.89174">
        <ele>1218</ele>
        <time>2021-08-03T09:59:32.340Z</time>
      </trkpt>
      <trkpt lat="47.01934" lon="8.89172">
        <ele>1218</ele>
        <time>2021-08-03T09:59:33.339Z</time>
      </trkpt>
      <trkpt lat="47.01934" lon="8.89171">
        <ele>1217</ele>
        <time>2021-08-03T09:59:34.339Z</time>
      </trkpt>
      <trkpt lat="47.01933" lon="8.8917">
        <ele>1216</ele>
        <time>2021-08-03T09:59:35.339Z</time>
      </trkpt>
      <trkpt lat="47.01933" lon="8.89168">
        <ele>1216</ele>
        <time>2021-08-03T09:59:36.339Z</time>
      </trkpt>
      <trkpt lat="47.01932" lon="8.89167">
        <ele>1215</ele>
        <time>2021-08-03T09:59:37.339Z</time>
      </trkpt>
      <trkpt lat="47.01931" lon="8.89165">
        <ele>1216</ele>
        <time>2021-08-03T09:59:38.340Z</time>
      </trkpt>
      <trkpt lat="47.01931" lon="8.89164">
        <ele>1216</ele>
        <time>2021-08-03T09:59:39.339Z</time>
      </trkpt>
      <trkpt lat="47.01931" lon="8.89162">
        <ele>1216</ele>
        <time>2021-08-03T09:59:40.339Z</time>
      </trkpt>
      <trkpt lat="47.01931" lon="8.89161">
        <ele>1216</ele>
        <time>2021-08-03T09:59:41.339Z</time>
      </trkpt>
      <trkpt lat="47.01932" lon="8.8916">
        <ele>1216</ele>
        <time>2021-08-03T09:59:42.339Z</time>
      </trkpt>
      <trkpt lat="47.01932" lon="8.89159">
        <ele>1216</ele>
        <time>2021-08-03T09:59:43.339Z</time>
      </trkpt>
      <trkpt lat="47.01931" lon="8.89158">
        <ele>1216</ele>
        <time>2021-08-03T09:59:44.339Z</time>
      </trkpt>
      <trkpt lat="47.01931" lon="8.89157">
        <ele>1216</ele>
        <time>2021-08-03T09:59:45.339Z</time>
      </trkpt>
      <trkpt lat="47.0193" lon="8.89156">
        <ele>1216</ele>
        <time>2021-08-03T09:59:46.339Z</time>
      </trkpt>
      <trkpt lat="47.01929" lon="8.89155">
        <ele>1217</ele>
        <time>2021-08-03T09:59:47.339Z</time>
      </trkpt>
      <trkpt lat="47.01929" lon="8.89154">
        <ele>1217</ele>
        <time>2021-08-03T09:59:48.339Z</time>
      </trkpt>
      <trkpt lat="47.01929" lon="8.89153">
        <ele>1218</ele>
        <time>2021-08-03T09:59:49.339Z</time>
      </trkpt>
      <trkpt lat="47.01929" lon="8.89152">
        <ele>1218</ele>
        <time>2021-08-03T09:59:50.339Z</time>
      </trkpt>
      <trkpt lat="47.01928" lon="8.8915">
        <ele>1218</ele>
        <time>2021-08-03T09:59:51.339Z</time>
      </trkpt>
      <trkpt lat="47.01928" lon="8.89149">
        <ele>1218</ele>
        <time>2021-08-03T09:59:52.339Z</time>
      </trkpt>
      <trkpt lat="47.01928" lon="8.89147">
        <ele>1218</ele>
        <time>2021-08-03T09:59:53.339Z</time>
      </trkpt>
      <trkpt lat="47.01928" lon="8.89146">
        <ele>1218</ele>
        <time>2021-08-03T09:59:54.339Z</time>
      </trkpt>
      <trkpt lat="47.01928" lon="8.89145">
        <ele>1218</ele>
        <time>2021-08-03T09:59:55.339Z</time>
      </trkpt>
      <trkpt lat="47.01927" lon="8.89144">
        <ele>1218</ele>
        <time>2021-08-03T09:59:56.340Z</time>
      </trkpt>
      <trkpt lat="47.01927" lon="8.89143">
        <ele>1218</ele>
        <time>2021-08-03T09:59:57.339Z</time>
      </trkpt>
      <trkpt lat="47.01926" lon="8.89142">
        <ele>1218</ele>
        <time>2021-08-03T09:59:58.339Z</time>
      </trkpt>
      <trkpt lat="47.01926" lon="8.89141">
        <ele>1217</ele>
        <time>2021-08-03T09:59:59.340Z</time>
      </trkpt>
      <trkpt lat="47.01926" lon="8.8914">
        <ele>1217</ele>
        <time>2021-08-03T10:00:00.339Z</time>
      </trkpt>
      <trkpt lat="47.01926" lon="8.89139">
        <ele>1217</ele>
        <time>2021-08-03T10:00:01.339Z</time>
      </trkpt>
      <trkpt lat="47.01925" lon="8.89138">
        <ele>1217</ele>
        <time>2021-08-03T10:00:02.339Z</time>
      </trkpt>
      <trkpt lat="47.01925" lon="8.89136">
        <ele>1217</ele>
        <time>2021-08-03T10:00:03.339Z</time>
      </trkpt>
      <trkpt lat="47.01925" lon="8.89135">
        <ele>1217</ele>
        <time>2021-08-03T10:00:04.340Z</time>
      </trkpt>
      <trkpt lat="47.01925" lon="8.89134">
        <ele>1216</ele>
        <time>2021-08-03T10:00:05.339Z</time>
      </trkpt>
      <trkpt lat="47.01925" lon="8.89133">
        <ele>1216</ele>
        <time>2021-08-03T10:00:06.339Z</time>
      </trkpt>
      <trkpt lat="47.01924" lon="8.89132">
        <ele>1216</ele>
        <time>2021-08-03T10:00:07.340Z</time>
      </trkpt>
      <trkpt lat="47.01923" lon="8.89131">
        <ele>1216</ele>
        <time>2021-08-03T10:00:08.339Z</time>
      </trkpt>
      <trkpt lat="47.01923" lon="8.89129">
        <ele>1216</ele>
        <time>2021-08-03T10:00:09.339Z</time>
      </trkpt>
      <trkpt lat="47.01923" lon="8.89128">
        <ele>1216</ele>
        <time>2021-08-03T10:00:10.339Z</time>
      </trkpt>
      <trkpt lat="47.01923" lon="8.89127">
        <ele>1216</ele>
        <time>2021-08-03T10:00:11.340Z</time>
      </trkpt>
      <trkpt lat="47.01923" lon="8.89126">
        <ele>1216</ele>
        <time>2021-08-03T10:00:12.340Z</time>
      </trkpt>
      <trkpt lat="47.01923" lon="8.89125">
        <ele>1217</ele>
        <time>2021-08-03T10:00:13.339Z</time>
      </trkpt>
      <trkpt lat="47.01923" lon="8.89123">
        <ele>1217</ele>
        <time>2021-08-03T10:00:14.339Z</time>
      </trkpt>
      <trkpt lat="47.01923" lon="8.89123">
        <ele>1218</ele>
        <time>2021-08-03T10:00:15.340Z</time>
      </trkpt>
      <trkpt lat="47.01923" lon="8.89122">
        <ele>1218</ele>
        <time>2021-08-03T10:00:16.339Z</time>
      </trkpt>
      <trkpt lat="47.01923" lon="8.8912">
        <ele>1219</ele>
        <time>2021-08-03T10:00:17.339Z</time>
      </trkpt>
      <trkpt lat="47.01922" lon="8.89118">
        <ele>1220</ele>
        <time>2021-08-03T10:00:18.339Z</time>
      </trkpt>
      <trkpt lat="47.01921" lon="8.89117">
        <ele>1221</ele>
        <time>2021-08-03T10:00:19.339Z</time>
      </trkpt>
      <trkpt lat="47.0192" lon="8.89115">
        <ele>1221</ele>
        <time>2021-08-03T10:00:20.339Z</time>
      </trkpt>
      <trkpt lat="47.0192" lon="8.89114">
        <ele>1222</ele>
        <time>2021-08-03T10:00:21.339Z</time>
      </trkpt>
      <trkpt lat="47.0192" lon="8.89113">
        <ele>1223</ele>
        <time>2021-08-03T10:00:22.339Z</time>
      </trkpt>
      <trkpt lat="47.01921" lon="8.89112">
        <ele>1223</ele>
        <time>2021-08-03T10:00:23.340Z</time>
      </trkpt>
      <trkpt lat="47.01922" lon="8.89112">
        <ele>1223</ele>
        <time>2021-08-03T10:00:24.339Z</time>
      </trkpt>
      <trkpt lat="47.01922" lon="8.89111">
        <ele>1223</ele>
        <time>2021-08-03T10:00:25.340Z</time>
      </trkpt>
      <trkpt lat="47.01922" lon="8.89111">
        <ele>1223</ele>
        <time>2021-08-03T10:00:26.340Z</time>
      </trkpt>
      <trkpt lat="47.01921" lon="8.8911">
        <ele>1222</ele>
        <time>2021-08-03T10:00:27.340Z</time>
      </trkpt>
      <trkpt lat="47.01921" lon="8.89109">
        <ele>1223</ele>
        <time>2021-08-03T10:00:28.339Z</time>
      </trkpt>
      <trkpt lat="47.01921" lon="8.89108">
        <ele>1223</ele>
        <time>2021-08-03T10:00:29.339Z</time>
      </trkpt>
      <trkpt lat="47.01921" lon="8.89107">
        <ele>1223</ele>
        <time>2021-08-03T10:00:30.339Z</time>
      </trkpt>
      <trkpt lat="47.01921" lon="8.89106">
        <ele>1223</ele>
        <time>2021-08-03T10:00:31.339Z</time>
      </trkpt>
      <trkpt lat="47.01921" lon="8.89105">
        <ele>1223</ele>
        <time>2021-08-03T10:00:32.339Z</time>
      </trkpt>
      <trkpt lat="47.0192" lon="8.89104">
        <ele>1223</ele>
        <time>2021-08-03T10:00:33.339Z</time>
      </trkpt>
      <trkpt lat="47.0192" lon="8.89104">
        <ele>1223</ele>
        <time>2021-08-03T10:00:34.339Z</time>
      </trkpt>
      <trkpt lat="47.0192" lon="8.89103">
        <ele>1223</ele>
        <time>2021-08-03T10:00:35.339Z</time>
      </trkpt>
      <trkpt lat="47.0192" lon="8.89102">
        <ele>1224</ele>
        <time>2021-08-03T10:00:36.340Z</time>
      </trkpt>
      <trkpt lat="47.01919" lon="8.89101">
        <ele>1224</ele>
        <time>2021-08-03T10:00:37.339Z</time>
      </trkpt>
      <trkpt lat="47.01919" lon="8.891">
        <ele>1225</ele>
        <time>2021-08-03T10:00:38.340Z</time>
      </trkpt>
      <trkpt lat="47.01918" lon="8.89099">
        <ele>1226</ele>
        <time>2021-08-03T10:00:39.340Z</time>
      </trkpt>
      <trkpt lat="47.01918" lon="8.89099">
        <ele>1227</ele>
        <time>2021-08-03T10:00:40.339Z</time>
      </trkpt>
      <trkpt lat="47.01918" lon="8.89098">
        <ele>1227</ele>
        <time>2021-08-03T10:00:41.339Z</time>
      </trkpt>
      <trkpt lat="47.01918" lon="8.89096">
        <ele>1228</ele>
        <time>2021-08-03T10:00:42.339Z</time>
      </trkpt>
      <trkpt lat="47.01917" lon="8.89095">
        <ele>1228</ele>
        <time>2021-08-03T10:00:43.339Z</time>
      </trkpt>
      <trkpt lat="47.01917" lon="8.89094">
        <ele>1229</ele>
        <time>2021-08-03T10:00:44.340Z</time>
      </trkpt>
      <trkpt lat="47.01917" lon="8.89093">
        <ele>1229</ele>
        <time>2021-08-03T10:00:45.339Z</time>
      </trkpt>
      <trkpt lat="47.01916" lon="8.89092">
        <ele>1229</ele>
        <time>2021-08-03T10:00:46.339Z</time>
      </trkpt>
      <trkpt lat="47.01915" lon="8.89092">
        <ele>1230</ele>
        <time>2021-08-03T10:00:47.339Z</time>
      </trkpt>
      <trkpt lat="47.01914" lon="8.89091">
        <ele>1231</ele>
        <time>2021-08-03T10:00:48.340Z</time>
      </trkpt>
      <trkpt lat="47.01913" lon="8.89089">
        <ele>1232</ele>
        <time>2021-08-03T10:00:49.339Z</time>
      </trkpt>
      <trkpt lat="47.01912" lon="8.89087">
        <ele>1232</ele>
        <time>2021-08-03T10:00:50.339Z</time>
      </trkpt>
      <trkpt lat="47.01912" lon="8.89085">
        <ele>1233</ele>
        <time>2021-08-03T10:00:51.340Z</time>
      </trkpt>
      <trkpt lat="47.01912" lon="8.89084">
        <ele>1234</ele>
        <time>2021-08-03T10:00:52.339Z</time>
      </trkpt>
      <trkpt lat="47.01912" lon="8.89083">
        <ele>1234</ele>
        <time>2021-08-03T10:00:53.339Z</time>
      </trkpt>
      <trkpt lat="47.01912" lon="8.89082">
        <ele>1234</ele>
        <time>2021-08-03T10:00:54.340Z</time>
      </trkpt>
      <trkpt lat="47.01911" lon="8.89082">
        <ele>1234</ele>
        <time>2021-08-03T10:00:55.339Z</time>
      </trkpt>
      <trkpt lat="47.01911" lon="8.89082">
        <ele>1234</ele>
        <time>2021-08-03T10:00:56.339Z</time>
      </trkpt>
      <trkpt lat="47.0191" lon="8.89082">
        <ele>1234</ele>
        <time>2021-08-03T10:00:57.339Z</time>
      </trkpt>
      <trkpt lat="47.0191" lon="8.8908">
        <ele>1234</ele>
        <time>2021-08-03T10:00:58.339Z</time>
      </trkpt>
      <trkpt lat="47.01909" lon="8.89079">
        <ele>1234</ele>
        <time>2021-08-03T10:00:59.339Z</time>
      </trkpt>
      <trkpt lat="47.01909" lon="8.89077">
        <ele>1234</ele>
        <time>2021-08-03T10:01:00.339Z</time>
      </trkpt>
      <trkpt lat="47.01909" lon="8.89076">
        <ele>1234</ele>
        <time>2021-08-03T10:01:01.339Z</time>
      </trkpt>
      <trkpt lat="47.01908" lon="8.89074">
        <ele>1234</ele>
        <time>2021-08-03T10:01:02.339Z</time>
      </trkpt>
      <trkpt lat="47.01909" lon="8.89074">
        <ele>1233</ele>
        <time>2021-08-03T10:01:03.339Z</time>
      </trkpt>
      <trkpt lat="47.01909" lon="8.89074">
        <ele>1233</ele>
        <time>2021-08-03T10:01:04.339Z</time>
      </trkpt>
      <trkpt lat="47.01909" lon="8.89073">
        <ele>1233</ele>
        <time>2021-08-03T10:01:05.340Z</time>
      </trkpt>
      <trkpt lat="47.0191" lon="8.89073">
        <ele>1233</ele>
        <time>2021-08-03T10:01:06.339Z</time>
      </trkpt>
      <trkpt lat="47.0191" lon="8.89072">
        <ele>1233</ele>
        <time>2021-08-03T10:01:07.340Z</time>
      </trkpt>
      <trkpt lat="47.0191" lon="8.89071">
        <ele>1233</ele>
        <time>2021-08-03T10:01:08.340Z</time>
      </trkpt>
      <trkpt lat="47.0191" lon="8.8907">
        <ele>1233</ele>
        <time>2021-08-03T10:01:09.339Z</time>
      </trkpt>
      <trkpt lat="47.0191" lon="8.89069">
        <ele>1234</ele>
        <time>2021-08-03T10:01:10.339Z</time>
      </trkpt>
      <trkpt lat="47.01911" lon="8.89068">
        <ele>1234</ele>
        <time>2021-08-03T10:01:11.339Z</time>
      </trkpt>
      <trkpt lat="47.01911" lon="8.89067">
        <ele>1234</ele>
        <time>2021-08-03T10:01:12.339Z</time>
      </trkpt>
      <trkpt lat="47.01911" lon="8.89066">
        <ele>1234</ele>
        <time>2021-08-03T10:01:13.339Z</time>
      </trkpt>
      <trkpt lat="47.01911" lon="8.89066">
        <ele>1234</ele>
        <time>2021-08-03T10:01:14.340Z</time>
      </trkpt>
      <trkpt lat="47.0191" lon="8.89065">
        <ele>1234</ele>
        <time>2021-08-03T10:01:15.340Z</time>
      </trkpt>
      <trkpt lat="47.0191" lon="8.89065">
        <ele>1234</ele>
        <time>2021-08-03T10:01:16.339Z</time>
      </trkpt>
      <trkpt lat="47.0191" lon="8.89064">
        <ele>1234</ele>
        <time>2021-08-03T10:01:17.339Z</time>
      </trkpt>
      <trkpt lat="47.01911" lon="8.89062">
        <ele>1234</ele>
        <time>2021-08-03T10:01:18.339Z</time>
      </trkpt>
      <trkpt lat="47.01911" lon="8.89061">
        <ele>1234</ele>
        <time>2021-08-03T10:01:19.340Z</time>
      </trkpt>
      <trkpt lat="47.01912" lon="8.8906">
        <ele>1235</ele>
        <time>2021-08-03T10:01:20.340Z</time>
      </trkpt>
      <trkpt lat="47.01912" lon="8.89059">
        <ele>1235</ele>
        <time>2021-08-03T10:01:21.339Z</time>
      </trkpt>
      <trkpt lat="47.01912" lon="8.89058">
        <ele>1236</ele>
        <time>2021-08-03T10:01:22.339Z</time>
      </trkpt>
      <trkpt lat="47.01912" lon="8.89057">
        <ele>1236</ele>
        <time>2021-08-03T10:01:23.339Z</time>
      </trkpt>
      <trkpt lat="47.01912" lon="8.89056">
        <ele>1237</ele>
        <time>2021-08-03T10:01:24.339Z</time>
      </trkpt>
      <trkpt lat="47.01913" lon="8.89056">
        <ele>1237</ele>
        <time>2021-08-03T10:01:25.339Z</time>
      </trkpt>
      <trkpt lat="47.01913" lon="8.89056">
        <ele>1238</ele>
        <time>2021-08-03T10:01:26.339Z</time>
      </trkpt>
      <trkpt lat="47.01914" lon="8.89055">
        <ele>1238</ele>
        <time>2021-08-03T10:01:27.339Z</time>
      </trkpt>
      <trkpt lat="47.01915" lon="8.89052">
        <ele>1240</ele>
        <time>2021-08-03T10:01:28.339Z</time>
      </trkpt>
      <trkpt lat="47.01915" lon="8.89051">
        <ele>1241</ele>
        <time>2021-08-03T10:01:29.339Z</time>
      </trkpt>
      <trkpt lat="47.01915" lon="8.8905">
        <ele>1242</ele>
        <time>2021-08-03T10:01:30.340Z</time>
      </trkpt>
      <trkpt lat="47.01916" lon="8.89049">
        <ele>1243</ele>
        <time>2021-08-03T10:01:31.339Z</time>
      </trkpt>
      <trkpt lat="47.01916" lon="8.89048">
        <ele>1244</ele>
        <time>2021-08-03T10:01:32.339Z</time>
      </trkpt>
      <trkpt lat="47.01916" lon="8.89047">
        <ele>1245</ele>
        <time>2021-08-03T10:01:33.339Z</time>
      </trkpt>
      <trkpt lat="47.01917" lon="8.89046">
        <ele>1246</ele>
        <time>2021-08-03T10:01:34.339Z</time>
      </trkpt>
      <trkpt lat="47.01917" lon="8.89044">
        <ele>1247</ele>
        <time>2021-08-03T10:01:35.339Z</time>
      </trkpt>
      <trkpt lat="47.01917" lon="8.89043">
        <ele>1248</ele>
        <time>2021-08-03T10:01:36.340Z</time>
      </trkpt>
      <trkpt lat="47.01918" lon="8.89042">
        <ele>1249</ele>
        <time>2021-08-03T10:01:37.339Z</time>
      </trkpt>
      <trkpt lat="47.01918" lon="8.89041">
        <ele>1249</ele>
        <time>2021-08-03T10:01:38.339Z</time>
      </trkpt>
      <trkpt lat="47.01918" lon="8.8904">
        <ele>1250</ele>
        <time>2021-08-03T10:01:39.339Z</time>
      </trkpt>
      <trkpt lat="47.01918" lon="8.89039">
        <ele>1250</ele>
        <time>2021-08-03T10:01:40.339Z</time>
      </trkpt>
      <trkpt lat="47.01918" lon="8.89037">
        <ele>1250</ele>
        <time>2021-08-03T10:01:41.339Z</time>
      </trkpt>
      <trkpt lat="47.01918" lon="8.89036">
        <ele>1251</ele>
        <time>2021-08-03T10:01:42.339Z</time>
      </trkpt>
      <trkpt lat="47.01918" lon="8.89036">
        <ele>1251</ele>
        <time>2021-08-03T10:01:43.340Z</time>
      </trkpt>
      <trkpt lat="47.01917" lon="8.89035">
        <ele>1251</ele>
        <time>2021-08-03T10:01:44.339Z</time>
      </trkpt>
      <trkpt lat="47.01917" lon="8.89034">
        <ele>1252</ele>
        <time>2021-08-03T10:01:45.339Z</time>
      </trkpt>
      <trkpt lat="47.01916" lon="8.89032">
        <ele>1252</ele>
        <time>2021-08-03T10:01:46.339Z</time>
      </trkpt>
      <trkpt lat="47.01916" lon="8.89032">
        <ele>1253</ele>
        <time>2021-08-03T10:01:47.340Z</time>
      </trkpt>
      <trkpt lat="47.01916" lon="8.89031">
        <ele>1253</ele>
        <time>2021-08-03T10:01:48.339Z</time>
      </trkpt>
      <trkpt lat="47.01917" lon="8.8903">
        <ele>1254</ele>
        <time>2021-08-03T10:01:49.339Z</time>
      </trkpt>
      <trkpt lat="47.01917" lon="8.89029">
        <ele>1254</ele>
        <time>2021-08-03T10:01:50.339Z</time>
      </trkpt>
      <trkpt lat="47.01919" lon="8.89027">
        <ele>1255</ele>
        <time>2021-08-03T10:01:51.339Z</time>
      </trkpt>
      <trkpt lat="47.01919" lon="8.89026">
        <ele>1255</ele>
        <time>2021-08-03T10:01:52.339Z</time>
      </trkpt>
      <trkpt lat="47.0192" lon="8.89024">
        <ele>1255</ele>
        <time>2021-08-03T10:01:53.339Z</time>
      </trkpt>
      <trkpt lat="47.01921" lon="8.89023">
        <ele>1255</ele>
        <time>2021-08-03T10:01:54.339Z</time>
      </trkpt>
      <trkpt lat="47.01921" lon="8.89022">
        <ele>1255</ele>
        <time>2021-08-03T10:01:55.339Z</time>
      </trkpt>
      <trkpt lat="47.01921" lon="8.89021">
        <ele>1255</ele>
        <time>2021-08-03T10:01:56.339Z</time>
      </trkpt>
      <trkpt lat="47.01921" lon="8.8902">
        <ele>1254</ele>
        <time>2021-08-03T10:01:57.340Z</time>
      </trkpt>
      <trkpt lat="47.01921" lon="8.89019">
        <ele>1254</ele>
        <time>2021-08-03T10:01:58.339Z</time>
      </trkpt>
      <trkpt lat="47.01921" lon="8.89018">
        <ele>1254</ele>
        <time>2021-08-03T10:01:59.339Z</time>
      </trkpt>
      <trkpt lat="47.01921" lon="8.89017">
        <ele>1253</ele>
        <time>2021-08-03T10:02:00.339Z</time>
      </trkpt>
      <trkpt lat="47.01921" lon="8.89016">
        <ele>1253</ele>
        <time>2021-08-03T10:02:01.340Z</time>
      </trkpt>
      <trkpt lat="47.01921" lon="8.89016">
        <ele>1252</ele>
        <time>2021-08-03T10:02:02.340Z</time>
      </trkpt>
      <trkpt lat="47.0192" lon="8.89015">
        <ele>1252</ele>
        <time>2021-08-03T10:02:03.339Z</time>
      </trkpt>
      <trkpt lat="47.0192" lon="8.89014">
        <ele>1251</ele>
        <time>2021-08-03T10:02:04.339Z</time>
      </trkpt>
      <trkpt lat="47.0192" lon="8.89014">
        <ele>1251</ele>
        <time>2021-08-03T10:02:05.339Z</time>
      </trkpt>
      <trkpt lat="47.0192" lon="8.89013">
        <ele>1251</ele>
        <time>2021-08-03T10:02:06.339Z</time>
      </trkpt>
      <trkpt lat="47.0192" lon="8.89012">
        <ele>1251</ele>
        <time>2021-08-03T10:02:07.339Z</time>
      </trkpt>
      <trkpt lat="47.0192" lon="8.89011">
        <ele>1250</ele>
        <time>2021-08-03T10:02:08.340Z</time>
      </trkpt>
      <trkpt lat="47.0192" lon="8.89011">
        <ele>1250</ele>
        <time>2021-08-03T10:02:09.339Z</time>
      </trkpt>
      <trkpt lat="47.01921" lon="8.8901">
        <ele>1250</ele>
        <time>2021-08-03T10:02:10.339Z</time>
      </trkpt>
      <trkpt lat="47.01922" lon="8.89009">
        <ele>1250</ele>
        <time>2021-08-03T10:02:11.339Z</time>
      </trkpt>
      <trkpt lat="47.01923" lon="8.89009">
        <ele>1250</ele>
        <time>2021-08-03T10:02:12.340Z</time>
      </trkpt>
      <trkpt lat="47.01923" lon="8.89008">
        <ele>1250</ele>
        <time>2021-08-03T10:02:13.339Z</time>
      </trkpt>
      <trkpt lat="47.01923" lon="8.89007">
        <ele>1250</ele>
        <time>2021-08-03T10:02:14.340Z</time>
      </trkpt>
      <trkpt lat="47.01923" lon="8.89007">
        <ele>1250</ele>
        <time>2021-08-03T10:02:15.339Z</time>
      </trkpt>
      <trkpt lat="47.01924" lon="8.89006">
        <ele>1250</ele>
        <time>2021-08-03T10:02:16.339Z</time>
      </trkpt>
      <trkpt lat="47.01924" lon="8.89006">
        <ele>1251</ele>
        <time>2021-08-03T10:02:17.339Z</time>
      </trkpt>
      <trkpt lat="47.01924" lon="8.89005">
        <ele>1251</ele>
        <time>2021-08-03T10:02:18.340Z</time>
      </trkpt>
      <trkpt lat="47.01924" lon="8.89005">
        <ele>1251</ele>
        <time>2021-08-03T10:02:19.339Z</time>
      </trkpt>
      <trkpt lat="47.01924" lon="8.89005">
        <ele>1251</ele>
        <time>2021-08-03T10:02:20.340Z</time>
      </trkpt>
      <trkpt lat="47.01924" lon="8.89004">
        <ele>1251</ele>
        <time>2021-08-03T10:02:21.339Z</time>
      </trkpt>
      <trkpt lat="47.01924" lon="8.89003">
        <ele>1251</ele>
        <time>2021-08-03T10:02:22.339Z</time>
      </trkpt>
      <trkpt lat="47.01925" lon="8.89001">
        <ele>1251</ele>
        <time>2021-08-03T10:02:23.339Z</time>
      </trkpt>
      <trkpt lat="47.01926" lon="8.88999">
        <ele>1250</ele>
        <time>2021-08-03T10:02:24.339Z</time>
      </trkpt>
      <trkpt lat="47.01925" lon="8.88997">
        <ele>1250</ele>
        <time>2021-08-03T10:02:25.339Z</time>
      </trkpt>
      <trkpt lat="47.01925" lon="8.88996">
        <ele>1250</ele>
        <time>2021-08-03T10:02:26.339Z</time>
      </trkpt>
      <trkpt lat="47.01924" lon="8.88995">
        <ele>1250</ele>
        <time>2021-08-03T10:02:27.340Z</time>
      </trkpt>
      <trkpt lat="47.01924" lon="8.88994">
        <ele>1249</ele>
        <time>2021-08-03T10:02:28.339Z</time>
      </trkpt>
      <trkpt lat="47.01924" lon="8.88993">
        <ele>1248</ele>
        <time>2021-08-03T10:02:29.339Z</time>
      </trkpt>
      <trkpt lat="47.01923" lon="8.88993">
        <ele>1247</ele>
        <time>2021-08-03T10:02:30.339Z</time>
      </trkpt>
      <trkpt lat="47.01923" lon="8.88992">
        <ele>1247</ele>
        <time>2021-08-03T10:02:31.340Z</time>
      </trkpt>
      <trkpt lat="47.01922" lon="8.88991">
        <ele>1246</ele>
        <time>2021-08-03T10:02:32.339Z</time>
      </trkpt>
      <trkpt lat="47.01922" lon="8.8899">
        <ele>1246</ele>
        <time>2021-08-03T10:02:33.339Z</time>
      </trkpt>
      <trkpt lat="47.01922" lon="8.8899">
        <ele>1246</ele>
        <time>2021-08-03T10:02:34.339Z</time>
      </trkpt>
      <trkpt lat="47.01922" lon="8.88989">
        <ele>1246</ele>
        <time>2021-08-03T10:02:35.340Z</time>
      </trkpt>
      <trkpt lat="47.01922" lon="8.88989">
        <ele>1247</ele>
        <time>2021-08-03T10:02:36.340Z</time>
      </trkpt>
      <trkpt lat="47.01922" lon="8.88989">
        <ele>1247</ele>
        <time>2021-08-03T10:02:37.339Z</time>
      </trkpt>
      <trkpt lat="47.01923" lon="8.88986">
        <ele>1250</ele>
        <time>2021-08-03T10:02:38.341Z</time>
      </trkpt>
      <trkpt lat="47.01923" lon="8.88986">
        <ele>1250</ele>
        <time>2021-08-03T10:02:39.340Z</time>
      </trkpt>
      <trkpt lat="47.01922" lon="8.88986">
        <ele>1250</ele>
        <time>2021-08-03T10:02:40.340Z</time>
      </trkpt>
      <trkpt lat="47.01922" lon="8.88986">
        <ele>1250</ele>
        <time>2021-08-03T10:02:41.341Z</time>
      </trkpt>
      <trkpt lat="47.01921" lon="8.88985">
        <ele>1251</ele>
        <time>2021-08-03T10:02:42.341Z</time>
      </trkpt>
      <trkpt lat="47.01921" lon="8.88986">
        <ele>1251</ele>
        <time>2021-08-03T10:02:43.341Z</time>
      </trkpt>
      <trkpt lat="47.01921" lon="8.88986">
        <ele>1251</ele>
        <time>2021-08-03T10:02:44.341Z</time>
      </trkpt>
      <trkpt lat="47.01921" lon="8.88986">
        <ele>1252</ele>
        <time>2021-08-03T10:02:45.340Z</time>
      </trkpt>
      <trkpt lat="47.01921" lon="8.88986">
        <ele>1252</ele>
        <time>2021-08-03T10:02:46.340Z</time>
      </trkpt>
      <trkpt lat="47.01917" lon="8.88988">
        <ele>1252</ele>
        <time>2021-08-03T10:02:47.341Z</time>
      </trkpt>
      <trkpt lat="47.01918" lon="8.88987">
        <ele>1253</ele>
        <time>2021-08-03T10:02:48.341Z</time>
      </trkpt>
      <trkpt lat="47.01918" lon="8.88987">
        <ele>1253</ele>
        <time>2021-08-03T10:02:49.340Z</time>
      </trkpt>
      <trkpt lat="47.01919" lon="8.88985">
        <ele>1254</ele>
        <time>2021-08-03T10:02:50.341Z</time>
      </trkpt>
      <trkpt lat="47.0192" lon="8.88983">
        <ele>1255</ele>
        <time>2021-08-03T10:02:51.341Z</time>
      </trkpt>
      <trkpt lat="47.01921" lon="8.88982">
        <ele>1256</ele>
        <time>2021-08-03T10:02:52.341Z</time>
      </trkpt>
      <trkpt lat="47.01922" lon="8.8898">
        <ele>1257</ele>
        <time>2021-08-03T10:02:53.341Z</time>
      </trkpt>
      <trkpt lat="47.01922" lon="8.8898">
        <ele>1257</ele>
        <time>2021-08-03T10:02:54.340Z</time>
      </trkpt>
      <trkpt lat="47.01922" lon="8.88979">
        <ele>1258</ele>
        <time>2021-08-03T10:02:55.341Z</time>
      </trkpt>
      <trkpt lat="47.01922" lon="8.88979">
        <ele>1258</ele>
        <time>2021-08-03T10:02:56.341Z</time>
      </trkpt>
      <trkpt lat="47.01922" lon="8.88978">
        <ele>1259</ele>
        <time>2021-08-03T10:02:57.341Z</time>
      </trkpt>
      <trkpt lat="47.01922" lon="8.88978">
        <ele>1259</ele>
        <time>2021-08-03T10:02:58.340Z</time>
      </trkpt>
      <trkpt lat="47.01922" lon="8.88977">
        <ele>1260</ele>
        <time>2021-08-03T10:02:59.340Z</time>
      </trkpt>
      <trkpt lat="47.01922" lon="8.88975">
        <ele>1260</ele>
        <time>2021-08-03T10:03:00.342Z</time>
      </trkpt>
      <trkpt lat="47.01922" lon="8.88974">
        <ele>1260</ele>
        <time>2021-08-03T10:03:01.342Z</time>
      </trkpt>
      <trkpt lat="47.01922" lon="8.88974">
        <ele>1261</ele>
        <time>2021-08-03T10:03:02.341Z</time>
      </trkpt>
      <trkpt lat="47.01923" lon="8.88972">
        <ele>1261</ele>
        <time>2021-08-03T10:03:03.341Z</time>
      </trkpt>
      <trkpt lat="47.01924" lon="8.88971">
        <ele>1261</ele>
        <time>2021-08-03T10:03:04.342Z</time>
      </trkpt>
      <trkpt lat="47.01925" lon="8.88969">
        <ele>1261</ele>
        <time>2021-08-03T10:03:05.341Z</time>
      </trkpt>
      <trkpt lat="47.01925" lon="8.88966">
        <ele>1262</ele>
        <time>2021-08-03T10:03:06.342Z</time>
      </trkpt>
      <trkpt lat="47.01925" lon="8.88964">
        <ele>1262</ele>
        <time>2021-08-03T10:03:07.342Z</time>
      </trkpt>
      <trkpt lat="47.01926" lon="8.88962">
        <ele>1262</ele>
        <time>2021-08-03T10:03:08.341Z</time>
      </trkpt>
      <trkpt lat="47.01926" lon="8.88961">
        <ele>1262</ele>
        <time>2021-08-03T10:03:09.342Z</time>
      </trkpt>
      <trkpt lat="47.01925" lon="8.8896">
        <ele>1262</ele>
        <time>2021-08-03T10:03:10.341Z</time>
      </trkpt>
      <trkpt lat="47.01925" lon="8.88958">
        <ele>1262</ele>
        <time>2021-08-03T10:03:11.341Z</time>
      </trkpt>
      <trkpt lat="47.01924" lon="8.88956">
        <ele>1262</ele>
        <time>2021-08-03T10:03:12.341Z</time>
      </trkpt>
      <trkpt lat="47.01924" lon="8.88954">
        <ele>1261</ele>
        <time>2021-08-03T10:03:13.341Z</time>
      </trkpt>
      <trkpt lat="47.01924" lon="8.88952">
        <ele>1261</ele>
        <time>2021-08-03T10:03:14.342Z</time>
      </trkpt>
      <trkpt lat="47.01924" lon="8.88949">
        <ele>1261</ele>
        <time>2021-08-03T10:03:15.341Z</time>
      </trkpt>
      <trkpt lat="47.01925" lon="8.88947">
        <ele>1260</ele>
        <time>2021-08-03T10:03:16.342Z</time>
      </trkpt>
      <trkpt lat="47.01925" lon="8.88946">
        <ele>1260</ele>
        <time>2021-08-03T10:03:17.342Z</time>
      </trkpt>
      <trkpt lat="47.01925" lon="8.88945">
        <ele>1260</ele>
        <time>2021-08-03T10:03:18.342Z</time>
      </trkpt>
      <trkpt lat="47.01925" lon="8.88943">
        <ele>1260</ele>
        <time>2021-08-03T10:03:19.342Z</time>
      </trkpt>
      <trkpt lat="47.01925" lon="8.88942">
        <ele>1260</ele>
        <time>2021-08-03T10:03:20.342Z</time>
      </trkpt>
      <trkpt lat="47.01925" lon="8.88941">
        <ele>1260</ele>
        <time>2021-08-03T10:03:21.342Z</time>
      </trkpt>
      <trkpt lat="47.01925" lon="8.88939">
        <ele>1260</ele>
        <time>2021-08-03T10:03:22.342Z</time>
      </trkpt>
      <trkpt lat="47.01926" lon="8.88937">
        <ele>1259</ele>
        <time>2021-08-03T10:03:23.342Z</time>
      </trkpt>
      <trkpt lat="47.01927" lon="8.88935">
        <ele>1259</ele>
        <time>2021-08-03T10:03:24.342Z</time>
      </trkpt>
      <trkpt lat="47.01928" lon="8.88933">
        <ele>1259</ele>
        <time>2021-08-03T10:03:25.342Z</time>
      </trkpt>
      <trkpt lat="47.0193" lon="8.88931">
        <ele>1259</ele>
        <time>2021-08-03T10:03:26.342Z</time>
      </trkpt>
      <trkpt lat="47.0193" lon="8.88929">
        <ele>1259</ele>
        <time>2021-08-03T10:03:27.342Z</time>
      </trkpt>
      <trkpt lat="47.01931" lon="8.88928">
        <ele>1259</ele>
        <time>2021-08-03T10:03:28.341Z</time>
      </trkpt>
      <trkpt lat="47.01931" lon="8.88926">
        <ele>1259</ele>
        <time>2021-08-03T10:03:29.342Z</time>
      </trkpt>
      <trkpt lat="47.01931" lon="8.88925">
        <ele>1259</ele>
        <time>2021-08-03T10:03:30.342Z</time>
      </trkpt>
      <trkpt lat="47.01931" lon="8.88923">
        <ele>1258</ele>
        <time>2021-08-03T10:03:31.342Z</time>
      </trkpt>
      <trkpt lat="47.01931" lon="8.88922">
        <ele>1258</ele>
        <time>2021-08-03T10:03:32.342Z</time>
      </trkpt>
      <trkpt lat="47.01932" lon="8.88921">
        <ele>1257</ele>
        <time>2021-08-03T10:03:33.342Z</time>
      </trkpt>
      <trkpt lat="47.01932" lon="8.8892">
        <ele>1257</ele>
        <time>2021-08-03T10:03:34.342Z</time>
      </trkpt>
      <trkpt lat="47.01933" lon="8.88919">
        <ele>1256</ele>
        <time>2021-08-03T10:03:35.342Z</time>
      </trkpt>
      <trkpt lat="47.01934" lon="8.88918">
        <ele>1256</ele>
        <time>2021-08-03T10:03:36.342Z</time>
      </trkpt>
      <trkpt lat="47.01935" lon="8.88917">
        <ele>1256</ele>
        <time>2021-08-03T10:03:37.341Z</time>
      </trkpt>
      <trkpt lat="47.01936" lon="8.88915">
        <ele>1256</ele>
        <time>2021-08-03T10:03:38.341Z</time>
      </trkpt>
      <trkpt lat="47.01937" lon="8.88913">
        <ele>1255</ele>
        <time>2021-08-03T10:03:39.341Z</time>
      </trkpt>
      <trkpt lat="47.01937" lon="8.88912">
        <ele>1255</ele>
        <time>2021-08-03T10:03:40.341Z</time>
      </trkpt>
      <trkpt lat="47.01937" lon="8.8891">
        <ele>1254</ele>
        <time>2021-08-03T10:03:41.341Z</time>
      </trkpt>
      <trkpt lat="47.01937" lon="8.88909">
        <ele>1253</ele>
        <time>2021-08-03T10:03:42.341Z</time>
      </trkpt>
      <trkpt lat="47.01937" lon="8.88907">
        <ele>1253</ele>
        <time>2021-08-03T10:03:43.341Z</time>
      </trkpt>
      <trkpt lat="47.01938" lon="8.88906">
        <ele>1252</ele>
        <time>2021-08-03T10:03:44.341Z</time>
      </trkpt>
      <trkpt lat="47.01939" lon="8.88905">
        <ele>1252</ele>
        <time>2021-08-03T10:03:45.341Z</time>
      </trkpt>
      <trkpt lat="47.0194" lon="8.88904">
        <ele>1252</ele>
        <time>2021-08-03T10:03:46.341Z</time>
      </trkpt>
      <trkpt lat="47.0194" lon="8.88902">
        <ele>1252</ele>
        <time>2021-08-03T10:03:47.342Z</time>
      </trkpt>
      <trkpt lat="47.0194" lon="8.889">
        <ele>1252</ele>
        <time>2021-08-03T10:03:48.341Z</time>
      </trkpt>
      <trkpt lat="47.01941" lon="8.88898">
        <ele>1251</ele>
        <time>2021-08-03T10:03:49.341Z</time>
      </trkpt>
      <trkpt lat="47.01941" lon="8.88897">
        <ele>1251</ele>
        <time>2021-08-03T10:03:50.341Z</time>
      </trkpt>
      <trkpt lat="47.01941" lon="8.88896">
        <ele>1251</ele>
        <time>2021-08-03T10:03:51.341Z</time>
      </trkpt>
      <trkpt lat="47.0194" lon="8.88895">
        <ele>1251</ele>
        <time>2021-08-03T10:03:52.341Z</time>
      </trkpt>
      <trkpt lat="47.0194" lon="8.88893">
        <ele>1251</ele>
        <time>2021-08-03T10:03:53.341Z</time>
      </trkpt>
      <trkpt lat="47.0194" lon="8.88892">
        <ele>1251</ele>
        <time>2021-08-03T10:03:54.341Z</time>
      </trkpt>
      <trkpt lat="47.0194" lon="8.88891">
        <ele>1251</ele>
        <time>2021-08-03T10:03:55.341Z</time>
      </trkpt>
      <trkpt lat="47.0194" lon="8.88889">
        <ele>1251</ele>
        <time>2021-08-03T10:03:56.341Z</time>
      </trkpt>
      <trkpt lat="47.01939" lon="8.88888">
        <ele>1251</ele>
        <time>2021-08-03T10:03:57.341Z</time>
      </trkpt>
      <trkpt lat="47.01939" lon="8.88887">
        <ele>1251</ele>
        <time>2021-08-03T10:03:58.342Z</time>
      </trkpt>
      <trkpt lat="47.0194" lon="8.88886">
        <ele>1251</ele>
        <time>2021-08-03T10:03:59.342Z</time>
      </trkpt>
      <trkpt lat="47.01941" lon="8.88884">
        <ele>1251</ele>
        <time>2021-08-03T10:04:00.342Z</time>
      </trkpt>
      <trkpt lat="47.01941" lon="8.88882">
        <ele>1251</ele>
        <time>2021-08-03T10:04:01.342Z</time>
      </trkpt>
      <trkpt lat="47.01942" lon="8.88881">
        <ele>1251</ele>
        <time>2021-08-03T10:04:02.341Z</time>
      </trkpt>
      <trkpt lat="47.01942" lon="8.88879">
        <ele>1251</ele>
        <time>2021-08-03T10:04:03.342Z</time>
      </trkpt>
      <trkpt lat="47.01943" lon="8.88877">
        <ele>1251</ele>
        <time>2021-08-03T10:04:04.341Z</time>
      </trkpt>
      <trkpt lat="47.01944" lon="8.88876">
        <ele>1251</ele>
        <time>2021-08-03T10:04:05.341Z</time>
      </trkpt>
      <trkpt lat="47.01945" lon="8.88874">
        <ele>1252</ele>
        <time>2021-08-03T10:04:06.342Z</time>
      </trkpt>
      <trkpt lat="47.01945" lon="8.88873">
        <ele>1252</ele>
        <time>2021-08-03T10:04:07.342Z</time>
      </trkpt>
      <trkpt lat="47.01946" lon="8.88872">
        <ele>1252</ele>
        <time>2021-08-03T10:04:08.342Z</time>
      </trkpt>
      <trkpt lat="47.01946" lon="8.88871">
        <ele>1252</ele>
        <time>2021-08-03T10:04:09.342Z</time>
      </trkpt>
      <trkpt lat="47.01947" lon="8.8887">
        <ele>1252</ele>
        <time>2021-08-03T10:04:10.341Z</time>
      </trkpt>
      <trkpt lat="47.01946" lon="8.88869">
        <ele>1252</ele>
        <time>2021-08-03T10:04:11.341Z</time>
      </trkpt>
      <trkpt lat="47.01946" lon="8.88867">
        <ele>1252</ele>
        <time>2021-08-03T10:04:12.341Z</time>
      </trkpt>
      <trkpt lat="47.01946" lon="8.88866">
        <ele>1252</ele>
        <time>2021-08-03T10:04:13.342Z</time>
      </trkpt>
      <trkpt lat="47.01946" lon="8.88866">
        <ele>1253</ele>
        <time>2021-08-03T10:04:14.342Z</time>
      </trkpt>
      <trkpt lat="47.01947" lon="8.88865">
        <ele>1254</ele>
        <time>2021-08-03T10:04:15.341Z</time>
      </trkpt>
      <trkpt lat="47.01947" lon="8.88864">
        <ele>1254</ele>
        <time>2021-08-03T10:04:16.342Z</time>
      </trkpt>
      <trkpt lat="47.01948" lon="8.88863">
        <ele>1255</ele>
        <time>2021-08-03T10:04:17.341Z</time>
      </trkpt>
      <trkpt lat="47.01949" lon="8.88861">
        <ele>1255</ele>
        <time>2021-08-03T10:04:18.342Z</time>
      </trkpt>
      <trkpt lat="47.01949" lon="8.8886">
        <ele>1256</ele>
        <time>2021-08-03T10:04:19.342Z</time>
      </trkpt>
      <trkpt lat="47.01949" lon="8.88859">
        <ele>1256</ele>
        <time>2021-08-03T10:04:20.342Z</time>
      </trkpt>
      <trkpt lat="47.01949" lon="8.88858">
        <ele>1256</ele>
        <time>2021-08-03T10:04:21.342Z</time>
      </trkpt>
      <trkpt lat="47.01949" lon="8.88857">
        <ele>1257</ele>
        <time>2021-08-03T10:04:22.341Z</time>
      </trkpt>
      <trkpt lat="47.01949" lon="8.88857">
        <ele>1257</ele>
        <time>2021-08-03T10:04:23.342Z</time>
      </trkpt>
      <trkpt lat="47.01949" lon="8.88856">
        <ele>1257</ele>
        <time>2021-08-03T10:04:24.342Z</time>
      </trkpt>
      <trkpt lat="47.01949" lon="8.88856">
        <ele>1258</ele>
        <time>2021-08-03T10:04:25.341Z</time>
      </trkpt>
      <trkpt lat="47.01949" lon="8.88855">
        <ele>1258</ele>
        <time>2021-08-03T10:04:26.342Z</time>
      </trkpt>
      <trkpt lat="47.0195" lon="8.88854">
        <ele>1258</ele>
        <time>2021-08-03T10:04:27.342Z</time>
      </trkpt>
      <trkpt lat="47.0195" lon="8.88853">
        <ele>1258</ele>
        <time>2021-08-03T10:04:28.342Z</time>
      </trkpt>
      <trkpt lat="47.01951" lon="8.88852">
        <ele>1258</ele>
        <time>2021-08-03T10:04:29.342Z</time>
      </trkpt>
      <trkpt lat="47.01951" lon="8.8885">
        <ele>1258</ele>
        <time>2021-08-03T10:04:30.341Z</time>
      </trkpt>
      <trkpt lat="47.01952" lon="8.88848">
        <ele>1258</ele>
        <time>2021-08-03T10:04:31.341Z</time>
      </trkpt>
      <trkpt lat="47.01952" lon="8.88847">
        <ele>1258</ele>
        <time>2021-08-03T10:04:32.342Z</time>
      </trkpt>
      <trkpt lat="47.01952" lon="8.88846">
        <ele>1258</ele>
        <time>2021-08-03T10:04:33.341Z</time>
      </trkpt>
      <trkpt lat="47.01952" lon="8.88846">
        <ele>1258</ele>
        <time>2021-08-03T10:04:34.342Z</time>
      </trkpt>
      <trkpt lat="47.01952" lon="8.88845">
        <ele>1258</ele>
        <time>2021-08-03T10:04:35.341Z</time>
      </trkpt>
      <trkpt lat="47.01953" lon="8.88844">
        <ele>1258</ele>
        <time>2021-08-03T10:04:36.341Z</time>
      </trkpt>
      <trkpt lat="47.01953" lon="8.88843">
        <ele>1258</ele>
        <time>2021-08-03T10:04:37.342Z</time>
      </trkpt>
      <trkpt lat="47.01954" lon="8.88842">
        <ele>1258</ele>
        <time>2021-08-03T10:04:38.341Z</time>
      </trkpt>
      <trkpt lat="47.01954" lon="8.88841">
        <ele>1258</ele>
        <time>2021-08-03T10:04:39.341Z</time>
      </trkpt>
      <trkpt lat="47.01953" lon="8.88841">
        <ele>1258</ele>
        <time>2021-08-03T10:04:40.342Z</time>
      </trkpt>
      <trkpt lat="47.01953" lon="8.8884">
        <ele>1258</ele>
        <time>2021-08-03T10:04:41.341Z</time>
      </trkpt>
      <trkpt lat="47.01953" lon="8.88839">
        <ele>1258</ele>
        <time>2021-08-03T10:04:42.341Z</time>
      </trkpt>
      <trkpt lat="47.01954" lon="8.88838">
        <ele>1258</ele>
        <time>2021-08-03T10:04:43.342Z</time>
      </trkpt>
      <trkpt lat="47.01954" lon="8.88837">
        <ele>1257</ele>
        <time>2021-08-03T10:04:44.342Z</time>
      </trkpt>
      <trkpt lat="47.01954" lon="8.88837">
        <ele>1257</ele>
        <time>2021-08-03T10:04:45.342Z</time>
      </trkpt>
      <trkpt lat="47.01955" lon="8.88836">
        <ele>1257</ele>
        <time>2021-08-03T10:04:46.342Z</time>
      </trkpt>
      <trkpt lat="47.01955" lon="8.88835">
        <ele>1257</ele>
        <time>2021-08-03T10:04:47.341Z</time>
      </trkpt>
      <trkpt lat="47.01956" lon="8.88833">
        <ele>1257</ele>
        <time>2021-08-03T10:04:48.342Z</time>
      </trkpt>
      <trkpt lat="47.01956" lon="8.88832">
        <ele>1257</ele>
        <time>2021-08-03T10:04:49.342Z</time>
      </trkpt>
      <trkpt lat="47.01956" lon="8.88832">
        <ele>1257</ele>
        <time>2021-08-03T10:04:50.342Z</time>
      </trkpt>
      <trkpt lat="47.01956" lon="8.88831">
        <ele>1257</ele>
        <time>2021-08-03T10:04:51.342Z</time>
      </trkpt>
      <trkpt lat="47.01956" lon="8.8883">
        <ele>1257</ele>
        <time>2021-08-03T10:04:52.341Z</time>
      </trkpt>
      <trkpt lat="47.01957" lon="8.8883">
        <ele>1258</ele>
        <time>2021-08-03T10:04:53.342Z</time>
      </trkpt>
      <trkpt lat="47.01957" lon="8.88828">
        <ele>1258</ele>
        <time>2021-08-03T10:04:54.342Z</time>
      </trkpt>
      <trkpt lat="47.01958" lon="8.88827">
        <ele>1258</ele>
        <time>2021-08-03T10:04:55.341Z</time>
      </trkpt>
      <trkpt lat="47.01958" lon="8.88826">
        <ele>1259</ele>
        <time>2021-08-03T10:04:56.342Z</time>
      </trkpt>
      <trkpt lat="47.01958" lon="8.88825">
        <ele>1259</ele>
        <time>2021-08-03T10:04:57.342Z</time>
      </trkpt>
      <trkpt lat="47.01959" lon="8.88823">
        <ele>1259</ele>
        <time>2021-08-03T10:04:58.342Z</time>
      </trkpt>
      <trkpt lat="47.01959" lon="8.88823">
        <ele>1259</ele>
        <time>2021-08-03T10:04:59.342Z</time>
      </trkpt>
      <trkpt lat="47.01959" lon="8.88822">
        <ele>1259</ele>
        <time>2021-08-03T10:05:00.341Z</time>
      </trkpt>
      <trkpt lat="47.0196" lon="8.88821">
        <ele>1259</ele>
        <time>2021-08-03T10:05:01.342Z</time>
      </trkpt>
      <trkpt lat="47.0196" lon="8.88821">
        <ele>1259</ele>
        <time>2021-08-03T10:05:02.341Z</time>
      </trkpt>
      <trkpt lat="47.01959" lon="8.8882">
        <ele>1259</ele>
        <time>2021-08-03T10:05:03.343Z</time>
      </trkpt>
      <trkpt lat="47.01958" lon="8.8882">
        <ele>1259</ele>
        <time>2021-08-03T10:05:04.343Z</time>
      </trkpt>
      <trkpt lat="47.01958" lon="8.8882">
        <ele>1259</ele>
        <time>2021-08-03T10:05:05.343Z</time>
      </trkpt>
      <trkpt lat="47.01958" lon="8.8882">
        <ele>1259</ele>
        <time>2021-08-03T10:05:06.343Z</time>
      </trkpt>
      <trkpt lat="47.01958" lon="8.8882">
        <ele>1257</ele>
        <time>2021-08-03T10:05:07.344Z</time>
      </trkpt>
      <trkpt lat="47.01958" lon="8.8882">
        <ele>1258</ele>
        <time>2021-08-03T10:05:08.344Z</time>
      </trkpt>
      <trkpt lat="47.01958" lon="8.8882">
        <ele>1260</ele>
        <time>2021-08-03T10:05:09.343Z</time>
      </trkpt>
      <trkpt lat="47.01957" lon="8.8882">
        <ele>1260</ele>
        <time>2021-08-03T10:05:10.343Z</time>
      </trkpt>
      <trkpt lat="47.01957" lon="8.88823">
        <ele>1256</ele>
        <time>2021-08-03T10:05:11.343Z</time>
      </trkpt>
      <trkpt lat="47.01957" lon="8.88822">
        <ele>1255</ele>
        <time>2021-08-03T10:05:12.344Z</time>
      </trkpt>
      <trkpt lat="47.01957" lon="8.88821">
        <ele>1255</ele>
        <time>2021-08-03T10:05:13.343Z</time>
      </trkpt>
      <trkpt lat="47.01957" lon="8.88821">
        <ele>1255</ele>
        <time>2021-08-03T10:05:14.344Z</time>
      </trkpt>
      <trkpt lat="47.01958" lon="8.8882">
        <ele>1255</ele>
        <time>2021-08-03T10:05:15.343Z</time>
      </trkpt>
      <trkpt lat="47.01959" lon="8.88819">
        <ele>1255</ele>
        <time>2021-08-03T10:05:16.344Z</time>
      </trkpt>
      <trkpt lat="47.01959" lon="8.88817">
        <ele>1255</ele>
        <time>2021-08-03T10:05:17.343Z</time>
      </trkpt>
      <trkpt lat="47.01959" lon="8.88816">
        <ele>1255</ele>
        <time>2021-08-03T10:05:18.343Z</time>
      </trkpt>
      <trkpt lat="47.01959" lon="8.88815">
        <ele>1255</ele>
        <time>2021-08-03T10:05:19.343Z</time>
      </trkpt>
      <trkpt lat="47.01959" lon="8.88815">
        <ele>1255</ele>
        <time>2021-08-03T10:05:20.343Z</time>
      </trkpt>
      <trkpt lat="47.0196" lon="8.88814">
        <ele>1255</ele>
        <time>2021-08-03T10:05:21.343Z</time>
      </trkpt>
      <trkpt lat="47.01961" lon="8.88813">
        <ele>1256</ele>
        <time>2021-08-03T10:05:22.344Z</time>
      </trkpt>
      <trkpt lat="47.01962" lon="8.88812">
        <ele>1256</ele>
        <time>2021-08-03T10:05:23.343Z</time>
      </trkpt>
      <trkpt lat="47.01962" lon="8.88811">
        <ele>1256</ele>
        <time>2021-08-03T10:05:24.343Z</time>
      </trkpt>
      <trkpt lat="47.01963" lon="8.8881">
        <ele>1257</ele>
        <time>2021-08-03T10:05:25.343Z</time>
      </trkpt>
      <trkpt lat="47.01963" lon="8.88809">
        <ele>1258</ele>
        <time>2021-08-03T10:05:26.343Z</time>
      </trkpt>
      <trkpt lat="47.01963" lon="8.88808">
        <ele>1258</ele>
        <time>2021-08-03T10:05:27.344Z</time>
      </trkpt>
      <trkpt lat="47.01963" lon="8.88808">
        <ele>1259</ele>
        <time>2021-08-03T10:05:28.344Z</time>
      </trkpt>
      <trkpt lat="47.01964" lon="8.88807">
        <ele>1261</ele>
        <time>2021-08-03T10:05:29.343Z</time>
      </trkpt>
      <trkpt lat="47.01964" lon="8.88806">
        <ele>1262</ele>
        <time>2021-08-03T10:05:30.343Z</time>
      </trkpt>
      <trkpt lat="47.01964" lon="8.88805">
        <ele>1264</ele>
        <time>2021-08-03T10:05:31.344Z</time>
      </trkpt>
      <trkpt lat="47.01965" lon="8.88804">
        <ele>1265</ele>
        <time>2021-08-03T10:05:32.343Z</time>
      </trkpt>
      <trkpt lat="47.01966" lon="8.88804">
        <ele>1266</ele>
        <time>2021-08-03T10:05:33.344Z</time>
      </trkpt>
      <trkpt lat="47.01966" lon="8.88804">
        <ele>1267</ele>
        <time>2021-08-03T10:05:34.344Z</time>
      </trkpt>
      <trkpt lat="47.01967" lon="8.88803">
        <ele>1268</ele>
        <time>2021-08-03T10:05:35.344Z</time>
      </trkpt>
      <trkpt lat="47.01967" lon="8.88803">
        <ele>1270</ele>
        <time>2021-08-03T10:05:36.344Z</time>
      </trkpt>
      <trkpt lat="47.01968" lon="8.88804">
        <ele>1271</ele>
        <time>2021-08-03T10:05:37.343Z</time>
      </trkpt>
      <trkpt lat="47.01968" lon="8.88803">
        <ele>1272</ele>
        <time>2021-08-03T10:05:38.344Z</time>
      </trkpt>
      <trkpt lat="47.01969" lon="8.88802">
        <ele>1273</ele>
        <time>2021-08-03T10:05:39.344Z</time>
      </trkpt>
      <trkpt lat="47.01969" lon="8.88801">
        <ele>1274</ele>
        <time>2021-08-03T10:05:40.343Z</time>
      </trkpt>
      <trkpt lat="47.01969" lon="8.888">
        <ele>1274</ele>
        <time>2021-08-03T10:05:41.343Z</time>
      </trkpt>
      <trkpt lat="47.01969" lon="8.88799">
        <ele>1274</ele>
        <time>2021-08-03T10:05:42.344Z</time>
      </trkpt>
      <trkpt lat="47.0197" lon="8.88799">
        <ele>1274</ele>
        <time>2021-08-03T10:05:43.344Z</time>
      </trkpt>
      <trkpt lat="47.01971" lon="8.88799">
        <ele>1273</ele>
        <time>2021-08-03T10:05:44.344Z</time>
      </trkpt>
      <trkpt lat="47.01972" lon="8.88799">
        <ele>1273</ele>
        <time>2021-08-03T10:05:45.344Z</time>
      </trkpt>
      <trkpt lat="47.01972" lon="8.88798">
        <ele>1273</ele>
        <time>2021-08-03T10:05:46.344Z</time>
      </trkpt>
      <trkpt lat="47.01973" lon="8.88797">
        <ele>1272</ele>
        <time>2021-08-03T10:05:47.345Z</time>
      </trkpt>
      <trkpt lat="47.01973" lon="8.88797">
        <ele>1272</ele>
        <time>2021-08-03T10:05:48.345Z</time>
      </trkpt>
      <trkpt lat="47.01974" lon="8.88797">
        <ele>1271</ele>
        <time>2021-08-03T10:05:49.345Z</time>
      </trkpt>
      <trkpt lat="47.01974" lon="8.88796">
        <ele>1271</ele>
        <time>2021-08-03T10:05:50.344Z</time>
      </trkpt>
      <trkpt lat="47.01975" lon="8.88796">
        <ele>1270</ele>
        <time>2021-08-03T10:05:51.345Z</time>
      </trkpt>
      <trkpt lat="47.01975" lon="8.88795">
        <ele>1270</ele>
        <time>2021-08-03T10:05:52.344Z</time>
      </trkpt>
      <trkpt lat="47.01976" lon="8.88794">
        <ele>1270</ele>
        <time>2021-08-03T10:05:53.345Z</time>
      </trkpt>
      <trkpt lat="47.01977" lon="8.88793">
        <ele>1270</ele>
        <time>2021-08-03T10:05:54.344Z</time>
      </trkpt>
      <trkpt lat="47.01977" lon="8.88792">
        <ele>1270</ele>
        <time>2021-08-03T10:05:55.345Z</time>
      </trkpt>
      <trkpt lat="47.01977" lon="8.88791">
        <ele>1270</ele>
        <time>2021-08-03T10:05:56.344Z</time>
      </trkpt>
      <trkpt lat="47.01978" lon="8.8879">
        <ele>1270</ele>
        <time>2021-08-03T10:05:57.345Z</time>
      </trkpt>
      <trkpt lat="47.01978" lon="8.88789">
        <ele>1270</ele>
        <time>2021-08-03T10:05:58.344Z</time>
      </trkpt>
      <trkpt lat="47.01979" lon="8.88788">
        <ele>1270</ele>
        <time>2021-08-03T10:05:59.344Z</time>
      </trkpt>
      <trkpt lat="47.01979" lon="8.88786">
        <ele>1270</ele>
        <time>2021-08-03T10:06:00.344Z</time>
      </trkpt>
      <trkpt lat="47.0198" lon="8.88785">
        <ele>1271</ele>
        <time>2021-08-03T10:06:01.345Z</time>
      </trkpt>
      <trkpt lat="47.01981" lon="8.88783">
        <ele>1271</ele>
        <time>2021-08-03T10:06:02.344Z</time>
      </trkpt>
      <trkpt lat="47.01982" lon="8.88781">
        <ele>1271</ele>
        <time>2021-08-03T10:06:03.345Z</time>
      </trkpt>
      <trkpt lat="47.01983" lon="8.8878">
        <ele>1272</ele>
        <time>2021-08-03T10:06:04.345Z</time>
      </trkpt>
      <trkpt lat="47.01984" lon="8.8878">
        <ele>1272</ele>
        <time>2021-08-03T10:06:05.345Z</time>
      </trkpt>
      <trkpt lat="47.01985" lon="8.8878">
        <ele>1272</ele>
        <time>2021-08-03T10:06:06.344Z</time>
      </trkpt>
      <trkpt lat="47.01986" lon="8.88779">
        <ele>1273</ele>
        <time>2021-08-03T10:06:07.345Z</time>
      </trkpt>
      <trkpt lat="47.01987" lon="8.88778">
        <ele>1273</ele>
        <time>2021-08-03T10:06:08.345Z</time>
      </trkpt>
      <trkpt lat="47.01988" lon="8.88778">
        <ele>1274</ele>
        <time>2021-08-03T10:06:09.344Z</time>
      </trkpt>
      <trkpt lat="47.01989" lon="8.88777">
        <ele>1275</ele>
        <time>2021-08-03T10:06:10.345Z</time>
      </trkpt>
      <trkpt lat="47.01989" lon="8.88777">
        <ele>1275</ele>
        <time>2021-08-03T10:06:11.344Z</time>
      </trkpt>
      <trkpt lat="47.01989" lon="8.88776">
        <ele>1276</ele>
        <time>2021-08-03T10:06:12.344Z</time>
      </trkpt>
      <trkpt lat="47.01989" lon="8.88775">
        <ele>1276</ele>
        <time>2021-08-03T10:06:13.344Z</time>
      </trkpt>
      <trkpt lat="47.0199" lon="8.88774">
        <ele>1276</ele>
        <time>2021-08-03T10:06:14.344Z</time>
      </trkpt>
      <trkpt lat="47.01991" lon="8.88773">
        <ele>1276</ele>
        <time>2021-08-03T10:06:15.345Z</time>
      </trkpt>
      <trkpt lat="47.01991" lon="8.88772">
        <ele>1276</ele>
        <time>2021-08-03T10:06:16.345Z</time>
      </trkpt>
      <trkpt lat="47.01992" lon="8.88771">
        <ele>1276</ele>
        <time>2021-08-03T10:06:17.345Z</time>
      </trkpt>
      <trkpt lat="47.01993" lon="8.88771">
        <ele>1277</ele>
        <time>2021-08-03T10:06:18.344Z</time>
      </trkpt>
      <trkpt lat="47.01994" lon="8.88771">
        <ele>1277</ele>
        <time>2021-08-03T10:06:19.344Z</time>
      </trkpt>
      <trkpt lat="47.01994" lon="8.8877">
        <ele>1278</ele>
        <time>2021-08-03T10:06:20.344Z</time>
      </trkpt>
      <trkpt lat="47.01994" lon="8.88769">
        <ele>1278</ele>
        <time>2021-08-03T10:06:21.344Z</time>
      </trkpt>
      <trkpt lat="47.01994" lon="8.88767">
        <ele>1278</ele>
        <time>2021-08-03T10:06:22.344Z</time>
      </trkpt>
      <trkpt lat="47.01994" lon="8.88765">
        <ele>1278</ele>
        <time>2021-08-03T10:06:23.344Z</time>
      </trkpt>
      <trkpt lat="47.01993" lon="8.88764">
        <ele>1278</ele>
        <time>2021-08-03T10:06:24.344Z</time>
      </trkpt>
      <trkpt lat="47.01994" lon="8.88763">
        <ele>1278</ele>
        <time>2021-08-03T10:06:25.345Z</time>
      </trkpt>
      <trkpt lat="47.01994" lon="8.88762">
        <ele>1278</ele>
        <time>2021-08-03T10:06:26.344Z</time>
      </trkpt>
      <trkpt lat="47.01993" lon="8.88761">
        <ele>1278</ele>
        <time>2021-08-03T10:06:27.344Z</time>
      </trkpt>
      <trkpt lat="47.01993" lon="8.8876">
        <ele>1277</ele>
        <time>2021-08-03T10:06:28.344Z</time>
      </trkpt>
      <trkpt lat="47.01993" lon="8.88759">
        <ele>1277</ele>
        <time>2021-08-03T10:06:29.344Z</time>
      </trkpt>
      <trkpt lat="47.01992" lon="8.88759">
        <ele>1277</ele>
        <time>2021-08-03T10:06:30.344Z</time>
      </trkpt>
      <trkpt lat="47.01993" lon="8.88758">
        <ele>1277</ele>
        <time>2021-08-03T10:06:31.344Z</time>
      </trkpt>
      <trkpt lat="47.01994" lon="8.88757">
        <ele>1276</ele>
        <time>2021-08-03T10:06:32.344Z</time>
      </trkpt>
      <trkpt lat="47.01994" lon="8.88756">
        <ele>1276</ele>
        <time>2021-08-03T10:06:33.344Z</time>
      </trkpt>
      <trkpt lat="47.01994" lon="8.88755">
        <ele>1276</ele>
        <time>2021-08-03T10:06:34.345Z</time>
      </trkpt>
      <trkpt lat="47.01994" lon="8.88754">
        <ele>1276</ele>
        <time>2021-08-03T10:06:35.344Z</time>
      </trkpt>
      <trkpt lat="47.01994" lon="8.88753">
        <ele>1276</ele>
        <time>2021-08-03T10:06:36.344Z</time>
      </trkpt>
      <trkpt lat="47.01994" lon="8.88753">
        <ele>1276</ele>
        <time>2021-08-03T10:06:37.344Z</time>
      </trkpt>
      <trkpt lat="47.01994" lon="8.88752">
        <ele>1277</ele>
        <time>2021-08-03T10:06:38.345Z</time>
      </trkpt>
      <trkpt lat="47.01994" lon="8.88751">
        <ele>1277</ele>
        <time>2021-08-03T10:06:39.344Z</time>
      </trkpt>
      <trkpt lat="47.01994" lon="8.8875">
        <ele>1277</ele>
        <time>2021-08-03T10:06:40.345Z</time>
      </trkpt>
      <trkpt lat="47.01994" lon="8.88749">
        <ele>1277</ele>
        <time>2021-08-03T10:06:41.344Z</time>
      </trkpt>
      <trkpt lat="47.01994" lon="8.88747">
        <ele>1277</ele>
        <time>2021-08-03T10:06:42.345Z</time>
      </trkpt>
      <trkpt lat="47.01994" lon="8.88747">
        <ele>1277</ele>
        <time>2021-08-03T10:06:43.344Z</time>
      </trkpt>
      <trkpt lat="47.01994" lon="8.88746">
        <ele>1277</ele>
        <time>2021-08-03T10:06:44.345Z</time>
      </trkpt>
      <trkpt lat="47.01993" lon="8.88745">
        <ele>1277</ele>
        <time>2021-08-03T10:06:45.345Z</time>
      </trkpt>
      <trkpt lat="47.01992" lon="8.88743">
        <ele>1278</ele>
        <time>2021-08-03T10:06:46.344Z</time>
      </trkpt>
      <trkpt lat="47.01992" lon="8.88742">
        <ele>1278</ele>
        <time>2021-08-03T10:06:47.344Z</time>
      </trkpt>
      <trkpt lat="47.01992" lon="8.88741">
        <ele>1278</ele>
        <time>2021-08-03T10:06:48.345Z</time>
      </trkpt>
      <trkpt lat="47.01992" lon="8.88741">
        <ele>1278</ele>
        <time>2021-08-03T10:06:49.345Z</time>
      </trkpt>
      <trkpt lat="47.01992" lon="8.8874">
        <ele>1277</ele>
        <time>2021-08-03T10:06:50.344Z</time>
      </trkpt>
      <trkpt lat="47.01992" lon="8.88739">
        <ele>1277</ele>
        <time>2021-08-03T10:06:51.344Z</time>
      </trkpt>
      <trkpt lat="47.01992" lon="8.88739">
        <ele>1277</ele>
        <time>2021-08-03T10:06:52.345Z</time>
      </trkpt>
      <trkpt lat="47.01991" lon="8.88738">
        <ele>1277</ele>
        <time>2021-08-03T10:06:53.344Z</time>
      </trkpt>
      <trkpt lat="47.01991" lon="8.88738">
        <ele>1276</ele>
        <time>2021-08-03T10:06:54.344Z</time>
      </trkpt>
      <trkpt lat="47.01991" lon="8.88737">
        <ele>1277</ele>
        <time>2021-08-03T10:06:55.345Z</time>
      </trkpt>
      <trkpt lat="47.0199" lon="8.88737">
        <ele>1277</ele>
        <time>2021-08-03T10:06:56.344Z</time>
      </trkpt>
      <trkpt lat="47.0199" lon="8.88736">
        <ele>1277</ele>
        <time>2021-08-03T10:06:57.345Z</time>
      </trkpt>
      <trkpt lat="47.01991" lon="8.88735">
        <ele>1277</ele>
        <time>2021-08-03T10:06:58.344Z</time>
      </trkpt>
      <trkpt lat="47.01991" lon="8.88734">
        <ele>1277</ele>
        <time>2021-08-03T10:06:59.344Z</time>
      </trkpt>
      <trkpt lat="47.01991" lon="8.88733">
        <ele>1277</ele>
        <time>2021-08-03T10:07:00.344Z</time>
      </trkpt>
      <trkpt lat="47.01991" lon="8.88732">
        <ele>1277</ele>
        <time>2021-08-03T10:07:01.345Z</time>
      </trkpt>
      <trkpt lat="47.01991" lon="8.88732">
        <ele>1276</ele>
        <time>2021-08-03T10:07:02.345Z</time>
      </trkpt>
      <trkpt lat="47.01991" lon="8.88732">
        <ele>1276</ele>
        <time>2021-08-03T10:07:03.344Z</time>
      </trkpt>
      <trkpt lat="47.01992" lon="8.88732">
        <ele>1275</ele>
        <time>2021-08-03T10:07:04.344Z</time>
      </trkpt>
      <trkpt lat="47.01992" lon="8.88731">
        <ele>1275</ele>
        <time>2021-08-03T10:07:05.345Z</time>
      </trkpt>
      <trkpt lat="47.01993" lon="8.88731">
        <ele>1275</ele>
        <time>2021-08-03T10:07:06.344Z</time>
      </trkpt>
      <trkpt lat="47.01993" lon="8.8873">
        <ele>1275</ele>
        <time>2021-08-03T10:07:07.345Z</time>
      </trkpt>
      <trkpt lat="47.01993" lon="8.8873">
        <ele>1276</ele>
        <time>2021-08-03T10:07:08.345Z</time>
      </trkpt>
      <trkpt lat="47.01993" lon="8.88729">
        <ele>1276</ele>
        <time>2021-08-03T10:07:09.345Z</time>
      </trkpt>
      <trkpt lat="47.01994" lon="8.88728">
        <ele>1276</ele>
        <time>2021-08-03T10:07:10.344Z</time>
      </trkpt>
      <trkpt lat="47.01994" lon="8.88727">
        <ele>1276</ele>
        <time>2021-08-03T10:07:11.344Z</time>
      </trkpt>
      <trkpt lat="47.01994" lon="8.88726">
        <ele>1276</ele>
        <time>2021-08-03T10:07:12.344Z</time>
      </trkpt>
      <trkpt lat="47.01994" lon="8.88725">
        <ele>1276</ele>
        <time>2021-08-03T10:07:13.345Z</time>
      </trkpt>
      <trkpt lat="47.01994" lon="8.88724">
        <ele>1276</ele>
        <time>2021-08-03T10:07:14.345Z</time>
      </trkpt>
      <trkpt lat="47.01995" lon="8.88722">
        <ele>1276</ele>
        <time>2021-08-03T10:07:15.344Z</time>
      </trkpt>
      <trkpt lat="47.01994" lon="8.88721">
        <ele>1276</ele>
        <time>2021-08-03T10:07:16.345Z</time>
      </trkpt>
      <trkpt lat="47.01995" lon="8.88721">
        <ele>1276</ele>
        <time>2021-08-03T10:07:17.345Z</time>
      </trkpt>
      <trkpt lat="47.01995" lon="8.88719">
        <ele>1276</ele>
        <time>2021-08-03T10:07:18.344Z</time>
      </trkpt>
      <trkpt lat="47.01996" lon="8.88718">
        <ele>1276</ele>
        <time>2021-08-03T10:07:19.344Z</time>
      </trkpt>
      <trkpt lat="47.01996" lon="8.88716">
        <ele>1276</ele>
        <time>2021-08-03T10:07:20.345Z</time>
      </trkpt>
      <trkpt lat="47.01996" lon="8.88714">
        <ele>1277</ele>
        <time>2021-08-03T10:07:21.344Z</time>
      </trkpt>
      <trkpt lat="47.01996" lon="8.88712">
        <ele>1277</ele>
        <time>2021-08-03T10:07:22.345Z</time>
      </trkpt>
      <trkpt lat="47.01996" lon="8.8871">
        <ele>1277</ele>
        <time>2021-08-03T10:07:23.344Z</time>
      </trkpt>
      <trkpt lat="47.01997" lon="8.8871">
        <ele>1277</ele>
        <time>2021-08-03T10:07:24.344Z</time>
      </trkpt>
      <trkpt lat="47.01996" lon="8.88709">
        <ele>1277</ele>
        <time>2021-08-03T10:07:25.344Z</time>
      </trkpt>
      <trkpt lat="47.01999" lon="8.88705">
        <ele>1298</ele>
        <time>2021-08-03T10:07:26.347Z</time>
      </trkpt>
      <trkpt lat="47.01999" lon="8.88705">
        <ele>1299</ele>
        <time>2021-08-03T10:07:27.346Z</time>
      </trkpt>
      <trkpt lat="47.01999" lon="8.88705">
        <ele>1299</ele>
        <time>2021-08-03T10:07:28.347Z</time>
      </trkpt>
      <trkpt lat="47.01999" lon="8.88705">
        <ele>1300</ele>
        <time>2021-08-03T10:07:29.346Z</time>
      </trkpt>
      <trkpt lat="47.01999" lon="8.88705">
        <ele>1300</ele>
        <time>2021-08-03T10:07:30.347Z</time>
      </trkpt>
      <trkpt lat="47.01999" lon="8.88705">
        <ele>1301</ele>
        <time>2021-08-03T10:07:31.347Z</time>
      </trkpt>
      <trkpt lat="47.01999" lon="8.88705">
        <ele>1301</ele>
        <time>2021-08-03T10:07:32.347Z</time>
      </trkpt>
      <trkpt lat="47.01998" lon="8.88705">
        <ele>1302</ele>
        <time>2021-08-03T10:07:33.346Z</time>
      </trkpt>
      <trkpt lat="47.01995" lon="8.88706">
        <ele>1295</ele>
        <time>2021-08-03T10:07:34.348Z</time>
      </trkpt>
      <trkpt lat="47.01995" lon="8.88706">
        <ele>1294</ele>
        <time>2021-08-03T10:07:35.347Z</time>
      </trkpt>
      <trkpt lat="47.01995" lon="8.88706">
        <ele>1293</ele>
        <time>2021-08-03T10:07:36.348Z</time>
      </trkpt>
      <trkpt lat="47.01996" lon="8.88705">
        <ele>1290</ele>
        <time>2021-08-03T10:07:37.349Z</time>
      </trkpt>
      <trkpt lat="47.01992" lon="8.88702">
        <ele>1294</ele>
        <time>2021-08-03T10:07:38.349Z</time>
      </trkpt>
      <trkpt lat="47.01991" lon="8.88701">
        <ele>1294</ele>
        <time>2021-08-03T10:07:39.349Z</time>
      </trkpt>
      <trkpt lat="47.01991" lon="8.88701">
        <ele>1295</ele>
        <time>2021-08-03T10:07:40.348Z</time>
      </trkpt>
      <trkpt lat="47.01992" lon="8.88701">
        <ele>1295</ele>
        <time>2021-08-03T10:07:41.348Z</time>
      </trkpt>
      <trkpt lat="47.01992" lon="8.887">
        <ele>1295</ele>
        <time>2021-08-03T10:07:42.349Z</time>
      </trkpt>
      <trkpt lat="47.01992" lon="8.887">
        <ele>1295</ele>
        <time>2021-08-03T10:07:43.349Z</time>
      </trkpt>
      <trkpt lat="47.01992" lon="8.88699">
        <ele>1294</ele>
        <time>2021-08-03T10:07:44.348Z</time>
      </trkpt>
      <trkpt lat="47.01992" lon="8.88699">
        <ele>1294</ele>
        <time>2021-08-03T10:07:45.349Z</time>
      </trkpt>
      <trkpt lat="47.01992" lon="8.88699">
        <ele>1294</ele>
        <time>2021-08-03T10:07:46.349Z</time>
      </trkpt>
      <trkpt lat="47.01992" lon="8.88698">
        <ele>1294</ele>
        <time>2021-08-03T10:07:47.349Z</time>
      </trkpt>
      <trkpt lat="47.01992" lon="8.88698">
        <ele>1295</ele>
        <time>2021-08-03T10:07:48.348Z</time>
      </trkpt>
      <trkpt lat="47.01993" lon="8.88698">
        <ele>1295</ele>
        <time>2021-08-03T10:07:49.348Z</time>
      </trkpt>
      <trkpt lat="47.01993" lon="8.88697">
        <ele>1295</ele>
        <time>2021-08-03T10:07:50.348Z</time>
      </trkpt>
      <trkpt lat="47.01994" lon="8.88696">
        <ele>1296</ele>
        <time>2021-08-03T10:07:51.349Z</time>
      </trkpt>
      <trkpt lat="47.01995" lon="8.88696">
        <ele>1296</ele>
        <time>2021-08-03T10:07:52.348Z</time>
      </trkpt>
      <trkpt lat="47.01995" lon="8.88696">
        <ele>1296</ele>
        <time>2021-08-03T10:07:53.349Z</time>
      </trkpt>
      <trkpt lat="47.01995" lon="8.88696">
        <ele>1296</ele>
        <time>2021-08-03T10:07:54.349Z</time>
      </trkpt>
      <trkpt lat="47.01996" lon="8.88697">
        <ele>1296</ele>
        <time>2021-08-03T10:07:55.349Z</time>
      </trkpt>
      <trkpt lat="47.01996" lon="8.88698">
        <ele>1297</ele>
        <time>2021-08-03T10:07:56.349Z</time>
      </trkpt>
      <trkpt lat="47.01997" lon="8.88699">
        <ele>1297</ele>
        <time>2021-08-03T10:07:57.349Z</time>
      </trkpt>
      <trkpt lat="47.01998" lon="8.88698">
        <ele>1297</ele>
        <time>2021-08-03T10:07:58.349Z</time>
      </trkpt>
      <trkpt lat="47.02" lon="8.88697">
        <ele>1298</ele>
        <time>2021-08-03T10:07:59.348Z</time>
      </trkpt>
      <trkpt lat="47.02" lon="8.88695">
        <ele>1298</ele>
        <time>2021-08-03T10:08:00.348Z</time>
      </trkpt>
      <trkpt lat="47.02001" lon="8.88694">
        <ele>1298</ele>
        <time>2021-08-03T10:08:01.348Z</time>
      </trkpt>
      <trkpt lat="47.02001" lon="8.88692">
        <ele>1298</ele>
        <time>2021-08-03T10:08:02.349Z</time>
      </trkpt>
      <trkpt lat="47.02002" lon="8.8869">
        <ele>1298</ele>
        <time>2021-08-03T10:08:03.349Z</time>
      </trkpt>
      <trkpt lat="47.02003" lon="8.88689">
        <ele>1297</ele>
        <time>2021-08-03T10:08:04.349Z</time>
      </trkpt>
      <trkpt lat="47.02003" lon="8.88688">
        <ele>1297</ele>
        <time>2021-08-03T10:08:05.348Z</time>
      </trkpt>
      <trkpt lat="47.02004" lon="8.88687">
        <ele>1297</ele>
        <time>2021-08-03T10:08:06.349Z</time>
      </trkpt>
      <trkpt lat="47.02004" lon="8.88686">
        <ele>1297</ele>
        <time>2021-08-03T10:08:07.348Z</time>
      </trkpt>
      <trkpt lat="47.02005" lon="8.88686">
        <ele>1297</ele>
        <time>2021-08-03T10:08:08.349Z</time>
      </trkpt>
      <trkpt lat="47.02005" lon="8.88685">
        <ele>1297</ele>
        <time>2021-08-03T10:08:09.348Z</time>
      </trkpt>
      <trkpt lat="47.02005" lon="8.88684">
        <ele>1297</ele>
        <time>2021-08-03T10:08:10.349Z</time>
      </trkpt>
      <trkpt lat="47.02006" lon="8.88683">
        <ele>1297</ele>
        <time>2021-08-03T10:08:11.349Z</time>
      </trkpt>
      <trkpt lat="47.02006" lon="8.88682">
        <ele>1296</ele>
        <time>2021-08-03T10:08:12.348Z</time>
      </trkpt>
      <trkpt lat="47.02006" lon="8.88681">
        <ele>1296</ele>
        <time>2021-08-03T10:08:13.349Z</time>
      </trkpt>
      <trkpt lat="47.02006" lon="8.8868">
        <ele>1295</ele>
        <time>2021-08-03T10:08:14.349Z</time>
      </trkpt>
      <trkpt lat="47.02007" lon="8.88679">
        <ele>1294</ele>
        <time>2021-08-03T10:08:15.349Z</time>
      </trkpt>
      <trkpt lat="47.02008" lon="8.88678">
        <ele>1294</ele>
        <time>2021-08-03T10:08:16.348Z</time>
      </trkpt>
      <trkpt lat="47.02008" lon="8.88677">
        <ele>1293</ele>
        <time>2021-08-03T10:08:17.349Z</time>
      </trkpt>
      <trkpt lat="47.0201" lon="8.88676">
        <ele>1292</ele>
        <time>2021-08-03T10:08:18.349Z</time>
      </trkpt>
      <trkpt lat="47.02011" lon="8.88675">
        <ele>1292</ele>
        <time>2021-08-03T10:08:19.349Z</time>
      </trkpt>
      <trkpt lat="47.02013" lon="8.88674">
        <ele>1292</ele>
        <time>2021-08-03T10:08:20.349Z</time>
      </trkpt>
      <trkpt lat="47.02014" lon="8.88673">
        <ele>1292</ele>
        <time>2021-08-03T10:08:21.349Z</time>
      </trkpt>
      <trkpt lat="47.02016" lon="8.88673">
        <ele>1292</ele>
        <time>2021-08-03T10:08:22.348Z</time>
      </trkpt>
      <trkpt lat="47.02016" lon="8.88673">
        <ele>1292</ele>
        <time>2021-08-03T10:08:23.349Z</time>
      </trkpt>
      <trkpt lat="47.02017" lon="8.88673">
        <ele>1292</ele>
        <time>2021-08-03T10:08:24.349Z</time>
      </trkpt>
      <trkpt lat="47.02019" lon="8.88673">
        <ele>1292</ele>
        <time>2021-08-03T10:08:25.349Z</time>
      </trkpt>
      <trkpt lat="47.02019" lon="8.88673">
        <ele>1292</ele>
        <time>2021-08-03T10:08:26.349Z</time>
      </trkpt>
      <trkpt lat="47.0202" lon="8.88671">
        <ele>1293</ele>
        <time>2021-08-03T10:08:27.348Z</time>
      </trkpt>
      <trkpt lat="47.02021" lon="8.8867">
        <ele>1293</ele>
        <time>2021-08-03T10:08:28.348Z</time>
      </trkpt>
      <trkpt lat="47.02022" lon="8.88668">
        <ele>1293</ele>
        <time>2021-08-03T10:08:29.348Z</time>
      </trkpt>
      <trkpt lat="47.02022" lon="8.88667">
        <ele>1293</ele>
        <time>2021-08-03T10:08:30.348Z</time>
      </trkpt>
      <trkpt lat="47.02022" lon="8.88666">
        <ele>1292</ele>
        <time>2021-08-03T10:08:31.349Z</time>
      </trkpt>
      <trkpt lat="47.02023" lon="8.88664">
        <ele>1292</ele>
        <time>2021-08-03T10:08:32.349Z</time>
      </trkpt>
      <trkpt lat="47.02024" lon="8.88663">
        <ele>1292</ele>
        <time>2021-08-03T10:08:33.348Z</time>
      </trkpt>
      <trkpt lat="47.02025" lon="8.88662">
        <ele>1291</ele>
        <time>2021-08-03T10:08:34.349Z</time>
      </trkpt>
      <trkpt lat="47.02026" lon="8.88661">
        <ele>1291</ele>
        <time>2021-08-03T10:08:35.349Z</time>
      </trkpt>
      <trkpt lat="47.02027" lon="8.88659">
        <ele>1291</ele>
        <time>2021-08-03T10:08:36.349Z</time>
      </trkpt>
      <trkpt lat="47.02027" lon="8.88658">
        <ele>1290</ele>
        <time>2021-08-03T10:08:37.349Z</time>
      </trkpt>
      <trkpt lat="47.02028" lon="8.88657">
        <ele>1290</ele>
        <time>2021-08-03T10:08:38.349Z</time>
      </trkpt>
      <trkpt lat="47.02028" lon="8.88656">
        <ele>1289</ele>
        <time>2021-08-03T10:08:39.349Z</time>
      </trkpt>
      <trkpt lat="47.02029" lon="8.88655">
        <ele>1289</ele>
        <time>2021-08-03T10:08:40.348Z</time>
      </trkpt>
      <trkpt lat="47.02029" lon="8.88654">
        <ele>1289</ele>
        <time>2021-08-03T10:08:41.349Z</time>
      </trkpt>
      <trkpt lat="47.02031" lon="8.88652">
        <ele>1289</ele>
        <time>2021-08-03T10:08:42.349Z</time>
      </trkpt>
      <trkpt lat="47.02032" lon="8.8865">
        <ele>1289</ele>
        <time>2021-08-03T10:08:43.349Z</time>
      </trkpt>
      <trkpt lat="47.02032" lon="8.8865">
        <ele>1289</ele>
        <time>2021-08-03T10:08:44.348Z</time>
      </trkpt>
      <trkpt lat="47.02033" lon="8.88649">
        <ele>1289</ele>
        <time>2021-08-03T10:08:45.349Z</time>
      </trkpt>
      <trkpt lat="47.02034" lon="8.88649">
        <ele>1290</ele>
        <time>2021-08-03T10:08:46.349Z</time>
      </trkpt>
      <trkpt lat="47.02034" lon="8.88649">
        <ele>1290</ele>
        <time>2021-08-03T10:08:47.349Z</time>
      </trkpt>
      <trkpt lat="47.02034" lon="8.88648">
        <ele>1290</ele>
        <time>2021-08-03T10:08:48.348Z</time>
      </trkpt>
      <trkpt lat="47.02035" lon="8.88647">
        <ele>1290</ele>
        <time>2021-08-03T10:08:49.348Z</time>
      </trkpt>
      <trkpt lat="47.02036" lon="8.88645">
        <ele>1290</ele>
        <time>2021-08-03T10:08:50.348Z</time>
      </trkpt>
      <trkpt lat="47.02037" lon="8.88645">
        <ele>1290</ele>
        <time>2021-08-03T10:08:51.348Z</time>
      </trkpt>
      <trkpt lat="47.02037" lon="8.88645">
        <ele>1290</ele>
        <time>2021-08-03T10:08:52.348Z</time>
      </trkpt>
      <trkpt lat="47.02037" lon="8.88646">
        <ele>1291</ele>
        <time>2021-08-03T10:08:53.349Z</time>
      </trkpt>
      <trkpt lat="47.02038" lon="8.88647">
        <ele>1291</ele>
        <time>2021-08-03T10:08:54.348Z</time>
      </trkpt>
      <trkpt lat="47.02038" lon="8.88647">
        <ele>1291</ele>
        <time>2021-08-03T10:08:55.349Z</time>
      </trkpt>
      <trkpt lat="47.02039" lon="8.88646">
        <ele>1291</ele>
        <time>2021-08-03T10:08:56.349Z</time>
      </trkpt>
      <trkpt lat="47.0204" lon="8.88645">
        <ele>1291</ele>
        <time>2021-08-03T10:08:57.349Z</time>
      </trkpt>
      <trkpt lat="47.02041" lon="8.88645">
        <ele>1292</ele>
        <time>2021-08-03T10:08:58.349Z</time>
      </trkpt>
      <trkpt lat="47.02042" lon="8.88644">
        <ele>1292</ele>
        <time>2021-08-03T10:08:59.349Z</time>
      </trkpt>
      <trkpt lat="47.02042" lon="8.88643">
        <ele>1292</ele>
        <time>2021-08-03T10:09:00.349Z</time>
      </trkpt>
      <trkpt lat="47.02043" lon="8.88641">
        <ele>1291</ele>
        <time>2021-08-03T10:09:01.349Z</time>
      </trkpt>
      <trkpt lat="47.02043" lon="8.88641">
        <ele>1291</ele>
        <time>2021-08-03T10:09:02.348Z</time>
      </trkpt>
      <trkpt lat="47.02044" lon="8.8864">
        <ele>1292</ele>
        <time>2021-08-03T10:09:03.349Z</time>
      </trkpt>
      <trkpt lat="47.02045" lon="8.88639">
        <ele>1292</ele>
        <time>2021-08-03T10:09:04.349Z</time>
      </trkpt>
      <trkpt lat="47.02045" lon="8.88638">
        <ele>1292</ele>
        <time>2021-08-03T10:09:05.348Z</time>
      </trkpt>
      <trkpt lat="47.02046" lon="8.88637">
        <ele>1292</ele>
        <time>2021-08-03T10:09:06.349Z</time>
      </trkpt>
      <trkpt lat="47.02046" lon="8.88636">
        <ele>1293</ele>
        <time>2021-08-03T10:09:07.349Z</time>
      </trkpt>
      <trkpt lat="47.02047" lon="8.88634">
        <ele>1293</ele>
        <time>2021-08-03T10:09:08.349Z</time>
      </trkpt>
      <trkpt lat="47.02047" lon="8.88633">
        <ele>1293</ele>
        <time>2021-08-03T10:09:09.349Z</time>
      </trkpt>
      <trkpt lat="47.02047" lon="8.88632">
        <ele>1294</ele>
        <time>2021-08-03T10:09:10.349Z</time>
      </trkpt>
      <trkpt lat="47.02048" lon="8.88632">
        <ele>1294</ele>
        <time>2021-08-03T10:09:11.349Z</time>
      </trkpt>
      <trkpt lat="47.02048" lon="8.8863">
        <ele>1294</ele>
        <time>2021-08-03T10:09:12.349Z</time>
      </trkpt>
      <trkpt lat="47.02048" lon="8.88628">
        <ele>1293</ele>
        <time>2021-08-03T10:09:13.348Z</time>
      </trkpt>
      <trkpt lat="47.02048" lon="8.88626">
        <ele>1292</ele>
        <time>2021-08-03T10:09:14.348Z</time>
      </trkpt>
      <trkpt lat="47.02048" lon="8.88625">
        <ele>1291</ele>
        <time>2021-08-03T10:09:15.348Z</time>
      </trkpt>
      <trkpt lat="47.02048" lon="8.88625">
        <ele>1291</ele>
        <time>2021-08-03T10:09:16.348Z</time>
      </trkpt>
      <trkpt lat="47.02047" lon="8.88624">
        <ele>1290</ele>
        <time>2021-08-03T10:09:17.348Z</time>
      </trkpt>
      <trkpt lat="47.02048" lon="8.88623">
        <ele>1289</ele>
        <time>2021-08-03T10:09:18.348Z</time>
      </trkpt>
      <trkpt lat="47.02048" lon="8.88622">
        <ele>1289</ele>
        <time>2021-08-03T10:09:19.348Z</time>
      </trkpt>
      <trkpt lat="47.02049" lon="8.88621">
        <ele>1290</ele>
        <time>2021-08-03T10:09:20.348Z</time>
      </trkpt>
      <trkpt lat="47.02049" lon="8.88621">
        <ele>1290</ele>
        <time>2021-08-03T10:09:21.348Z</time>
      </trkpt>
      <trkpt lat="47.0205" lon="8.8862">
        <ele>1291</ele>
        <time>2021-08-03T10:09:22.349Z</time>
      </trkpt>
      <trkpt lat="47.0205" lon="8.88619">
        <ele>1291</ele>
        <time>2021-08-03T10:09:23.348Z</time>
      </trkpt>
      <trkpt lat="47.0205" lon="8.88619">
        <ele>1291</ele>
        <time>2021-08-03T10:09:24.348Z</time>
      </trkpt>
      <trkpt lat="47.0205" lon="8.88618">
        <ele>1291</ele>
        <time>2021-08-03T10:09:25.349Z</time>
      </trkpt>
      <trkpt lat="47.02051" lon="8.88617">
        <ele>1290</ele>
        <time>2021-08-03T10:09:26.348Z</time>
      </trkpt>
      <trkpt lat="47.02051" lon="8.88616">
        <ele>1290</ele>
        <time>2021-08-03T10:09:27.349Z</time>
      </trkpt>
      <trkpt lat="47.02051" lon="8.88616">
        <ele>1290</ele>
        <time>2021-08-03T10:09:28.349Z</time>
      </trkpt>
      <trkpt lat="47.02051" lon="8.88614">
        <ele>1290</ele>
        <time>2021-08-03T10:09:29.349Z</time>
      </trkpt>
      <trkpt lat="47.02051" lon="8.88613">
        <ele>1289</ele>
        <time>2021-08-03T10:09:30.348Z</time>
      </trkpt>
      <trkpt lat="47.0205" lon="8.88612">
        <ele>1289</ele>
        <time>2021-08-03T10:09:31.348Z</time>
      </trkpt>
      <trkpt lat="47.0205" lon="8.88611">
        <ele>1289</ele>
        <time>2021-08-03T10:09:32.349Z</time>
      </trkpt>
      <trkpt lat="47.0205" lon="8.88608">
        <ele>1289</ele>
        <time>2021-08-03T10:09:33.349Z</time>
      </trkpt>
      <trkpt lat="47.02051" lon="8.88606">
        <ele>1289</ele>
        <time>2021-08-03T10:09:34.349Z</time>
      </trkpt>
      <trkpt lat="47.0205" lon="8.88605">
        <ele>1289</ele>
        <time>2021-08-03T10:09:35.349Z</time>
      </trkpt>
      <trkpt lat="47.0205" lon="8.88603">
        <ele>1289</ele>
        <time>2021-08-03T10:09:36.348Z</time>
      </trkpt>
      <trkpt lat="47.02049" lon="8.88602">
        <ele>1289</ele>
        <time>2021-08-03T10:09:37.348Z</time>
      </trkpt>
      <trkpt lat="47.0205" lon="8.886">
        <ele>1289</ele>
        <time>2021-08-03T10:09:38.349Z</time>
      </trkpt>
      <trkpt lat="47.0205" lon="8.88598">
        <ele>1289</ele>
        <time>2021-08-03T10:09:39.349Z</time>
      </trkpt>
      <trkpt lat="47.02049" lon="8.88597">
        <ele>1289</ele>
        <time>2021-08-03T10:09:40.348Z</time>
      </trkpt>
      <trkpt lat="47.02049" lon="8.88596">
        <ele>1289</ele>
        <time>2021-08-03T10:09:41.349Z</time>
      </trkpt>
      <trkpt lat="47.02048" lon="8.88595">
        <ele>1288</ele>
        <time>2021-08-03T10:09:42.349Z</time>
      </trkpt>
      <trkpt lat="47.02048" lon="8.88594">
        <ele>1288</ele>
        <time>2021-08-03T10:09:43.349Z</time>
      </trkpt>
      <trkpt lat="47.02048" lon="8.88593">
        <ele>1288</ele>
        <time>2021-08-03T10:09:44.349Z</time>
      </trkpt>
      <trkpt lat="47.02048" lon="8.88592">
        <ele>1287</ele>
        <time>2021-08-03T10:09:45.349Z</time>
      </trkpt>
      <trkpt lat="47.02048" lon="8.88591">
        <ele>1287</ele>
        <time>2021-08-03T10:09:46.349Z</time>
      </trkpt>
      <trkpt lat="47.02048" lon="8.8859">
        <ele>1287</ele>
        <time>2021-08-03T10:09:47.348Z</time>
      </trkpt>
      <trkpt lat="47.02048" lon="8.8859">
        <ele>1287</ele>
        <time>2021-08-03T10:09:48.349Z</time>
      </trkpt>
      <trkpt lat="47.02047" lon="8.8859">
        <ele>1287</ele>
        <time>2021-08-03T10:09:49.348Z</time>
      </trkpt>
      <trkpt lat="47.02046" lon="8.88589">
        <ele>1287</ele>
        <time>2021-08-03T10:09:50.349Z</time>
      </trkpt>
      <trkpt lat="47.02045" lon="8.88589">
        <ele>1288</ele>
        <time>2021-08-03T10:09:51.349Z</time>
      </trkpt>
      <trkpt lat="47.02044" lon="8.88587">
        <ele>1289</ele>
        <time>2021-08-03T10:09:52.349Z</time>
      </trkpt>
      <trkpt lat="47.02044" lon="8.88587">
        <ele>1289</ele>
        <time>2021-08-03T10:09:53.349Z</time>
      </trkpt>
      <trkpt lat="47.02044" lon="8.88586">
        <ele>1289</ele>
        <time>2021-08-03T10:09:54.349Z</time>
      </trkpt>
      <trkpt lat="47.02044" lon="8.88585">
        <ele>1289</ele>
        <time>2021-08-03T10:09:55.349Z</time>
      </trkpt>
      <trkpt lat="47.02044" lon="8.88584">
        <ele>1289</ele>
        <time>2021-08-03T10:09:56.350Z</time>
      </trkpt>
      <trkpt lat="47.02044" lon="8.88583">
        <ele>1290</ele>
        <time>2021-08-03T10:09:57.349Z</time>
      </trkpt>
      <trkpt lat="47.02044" lon="8.88582">
        <ele>1290</ele>
        <time>2021-08-03T10:09:58.349Z</time>
      </trkpt>
      <trkpt lat="47.02043" lon="8.88582">
        <ele>1290</ele>
        <time>2021-08-03T10:09:59.349Z</time>
      </trkpt>
      <trkpt lat="47.02043" lon="8.88581">
        <ele>1290</ele>
        <time>2021-08-03T10:10:00.349Z</time>
      </trkpt>
      <trkpt lat="47.02043" lon="8.8858">
        <ele>1290</ele>
        <time>2021-08-03T10:10:01.349Z</time>
      </trkpt>
      <trkpt lat="47.02042" lon="8.88579">
        <ele>1290</ele>
        <time>2021-08-03T10:10:02.350Z</time>
      </trkpt>
      <trkpt lat="47.02042" lon="8.88578">
        <ele>1291</ele>
        <time>2021-08-03T10:10:03.350Z</time>
      </trkpt>
      <trkpt lat="47.02041" lon="8.88578">
        <ele>1291</ele>
        <time>2021-08-03T10:10:04.349Z</time>
      </trkpt>
      <trkpt lat="47.02041" lon="8.88577">
        <ele>1291</ele>
        <time>2021-08-03T10:10:05.349Z</time>
      </trkpt>
      <trkpt lat="47.02041" lon="8.88576">
        <ele>1292</ele>
        <time>2021-08-03T10:10:06.349Z</time>
      </trkpt>
      <trkpt lat="47.0204" lon="8.88575">
        <ele>1292</ele>
        <time>2021-08-03T10:10:07.349Z</time>
      </trkpt>
      <trkpt lat="47.0204" lon="8.88573">
        <ele>1292</ele>
        <time>2021-08-03T10:10:08.349Z</time>
      </trkpt>
      <trkpt lat="47.02041" lon="8.88572">
        <ele>1292</ele>
        <time>2021-08-03T10:10:09.350Z</time>
      </trkpt>
      <trkpt lat="47.0204" lon="8.88571">
        <ele>1293</ele>
        <time>2021-08-03T10:10:10.349Z</time>
      </trkpt>
      <trkpt lat="47.0204" lon="8.8857">
        <ele>1293</ele>
        <time>2021-08-03T10:10:11.350Z</time>
      </trkpt>
      <trkpt lat="47.02039" lon="8.88569">
        <ele>1293</ele>
        <time>2021-08-03T10:10:12.349Z</time>
      </trkpt>
      <trkpt lat="47.02039" lon="8.88567">
        <ele>1293</ele>
        <time>2021-08-03T10:10:13.350Z</time>
      </trkpt>
      <trkpt lat="47.0204" lon="8.88565">
        <ele>1293</ele>
        <time>2021-08-03T10:10:14.350Z</time>
      </trkpt>
      <trkpt lat="47.0204" lon="8.88564">
        <ele>1293</ele>
        <time>2021-08-03T10:10:15.350Z</time>
      </trkpt>
      <trkpt lat="47.0204" lon="8.88564">
        <ele>1293</ele>
        <time>2021-08-03T10:10:16.350Z</time>
      </trkpt>
      <trkpt lat="47.02041" lon="8.88563">
        <ele>1293</ele>
        <time>2021-08-03T10:10:17.350Z</time>
      </trkpt>
      <trkpt lat="47.02039" lon="8.88563">
        <ele>1293</ele>
        <time>2021-08-03T10:10:18.350Z</time>
      </trkpt>
      <trkpt lat="47.02038" lon="8.88562">
        <ele>1294</ele>
        <time>2021-08-03T10:10:19.350Z</time>
      </trkpt>
      <trkpt lat="47.02036" lon="8.88561">
        <ele>1295</ele>
        <time>2021-08-03T10:10:20.350Z</time>
      </trkpt>
      <trkpt lat="47.02034" lon="8.88561">
        <ele>1295</ele>
        <time>2021-08-03T10:10:21.350Z</time>
      </trkpt>
      <trkpt lat="47.02034" lon="8.88561">
        <ele>1295</ele>
        <time>2021-08-03T10:10:22.349Z</time>
      </trkpt>
      <trkpt lat="47.02033" lon="8.88561">
        <ele>1295</ele>
        <time>2021-08-03T10:10:23.349Z</time>
      </trkpt>
      <trkpt lat="47.02032" lon="8.88562">
        <ele>1296</ele>
        <time>2021-08-03T10:10:24.350Z</time>
      </trkpt>
      <trkpt lat="47.02031" lon="8.88563">
        <ele>1296</ele>
        <time>2021-08-03T10:10:25.350Z</time>
      </trkpt>
      <trkpt lat="47.0203" lon="8.88564">
        <ele>1296</ele>
        <time>2021-08-03T10:10:26.349Z</time>
      </trkpt>
      <trkpt lat="47.0203" lon="8.88564">
        <ele>1296</ele>
        <time>2021-08-03T10:10:27.350Z</time>
      </trkpt>
      <trkpt lat="47.02029" lon="8.88565">
        <ele>1297</ele>
        <time>2021-08-03T10:10:28.350Z</time>
      </trkpt>
      <trkpt lat="47.02028" lon="8.88566">
        <ele>1297</ele>
        <time>2021-08-03T10:10:29.349Z</time>
      </trkpt>
      <trkpt lat="47.02028" lon="8.88566">
        <ele>1297</ele>
        <time>2021-08-03T10:10:30.349Z</time>
      </trkpt>
      <trkpt lat="47.02027" lon="8.88567">
        <ele>1297</ele>
        <time>2021-08-03T10:10:31.349Z</time>
      </trkpt>
      <trkpt lat="47.02026" lon="8.88568">
        <ele>1298</ele>
        <time>2021-08-03T10:10:32.350Z</time>
      </trkpt>
      <trkpt lat="47.02025" lon="8.88569">
        <ele>1297</ele>
        <time>2021-08-03T10:10:33.350Z</time>
      </trkpt>
      <trkpt lat="47.02024" lon="8.8857">
        <ele>1297</ele>
        <time>2021-08-03T10:10:34.349Z</time>
      </trkpt>
      <trkpt lat="47.02022" lon="8.88568">
        <ele>1297</ele>
        <time>2021-08-03T10:10:35.349Z</time>
      </trkpt>
      <trkpt lat="47.02022" lon="8.88568">
        <ele>1297</ele>
        <time>2021-08-03T10:10:36.350Z</time>
      </trkpt>
      <trkpt lat="47.02022" lon="8.88569">
        <ele>1297</ele>
        <time>2021-08-03T10:10:37.350Z</time>
      </trkpt>
      <trkpt lat="47.02022" lon="8.88569">
        <ele>1297</ele>
        <time>2021-08-03T10:10:38.349Z</time>
      </trkpt>
      <trkpt lat="47.02021" lon="8.88569">
        <ele>1297</ele>
        <time>2021-08-03T10:10:39.350Z</time>
      </trkpt>
      <trkpt lat="47.0202" lon="8.8857">
        <ele>1297</ele>
        <time>2021-08-03T10:10:40.349Z</time>
      </trkpt>
      <trkpt lat="47.02019" lon="8.88571">
        <ele>1297</ele>
        <time>2021-08-03T10:10:41.350Z</time>
      </trkpt>
      <trkpt lat="47.02018" lon="8.88571">
        <ele>1297</ele>
        <time>2021-08-03T10:10:42.350Z</time>
      </trkpt>
      <trkpt lat="47.02017" lon="8.88571">
        <ele>1297</ele>
        <time>2021-08-03T10:10:43.349Z</time>
      </trkpt>
      <trkpt lat="47.02015" lon="8.88571">
        <ele>1297</ele>
        <time>2021-08-03T10:10:44.350Z</time>
      </trkpt>
      <trkpt lat="47.02015" lon="8.88571">
        <ele>1298</ele>
        <time>2021-08-03T10:10:45.349Z</time>
      </trkpt>
      <trkpt lat="47.02015" lon="8.88571">
        <ele>1298</ele>
        <time>2021-08-03T10:10:46.349Z</time>
      </trkpt>
      <trkpt lat="47.02014" lon="8.88571">
        <ele>1299</ele>
        <time>2021-08-03T10:10:47.349Z</time>
      </trkpt>
      <trkpt lat="47.02013" lon="8.88571">
        <ele>1299</ele>
        <time>2021-08-03T10:10:48.350Z</time>
      </trkpt>
      <trkpt lat="47.02012" lon="8.88571">
        <ele>1300</ele>
        <time>2021-08-03T10:10:49.350Z</time>
      </trkpt>
      <trkpt lat="47.02012" lon="8.88571">
        <ele>1300</ele>
        <time>2021-08-03T10:10:50.349Z</time>
      </trkpt>
      <trkpt lat="47.02013" lon="8.88571">
        <ele>1300</ele>
        <time>2021-08-03T10:10:51.349Z</time>
      </trkpt>
      <trkpt lat="47.02014" lon="8.88571">
        <ele>1300</ele>
        <time>2021-08-03T10:10:52.350Z</time>
      </trkpt>
      <trkpt lat="47.02014" lon="8.88571">
        <ele>1300</ele>
        <time>2021-08-03T10:10:53.349Z</time>
      </trkpt>
      <trkpt lat="47.02014" lon="8.88571">
        <ele>1300</ele>
        <time>2021-08-03T10:10:54.350Z</time>
      </trkpt>
      <trkpt lat="47.02013" lon="8.88571">
        <ele>1300</ele>
        <time>2021-08-03T10:10:55.350Z</time>
      </trkpt>
      <trkpt lat="47.02012" lon="8.8857">
        <ele>1300</ele>
        <time>2021-08-03T10:10:56.350Z</time>
      </trkpt>
      <trkpt lat="47.02012" lon="8.88571">
        <ele>1300</ele>
        <time>2021-08-03T10:10:57.349Z</time>
      </trkpt>
      <trkpt lat="47.02011" lon="8.88571">
        <ele>1300</ele>
        <time>2021-08-03T10:10:58.350Z</time>
      </trkpt>
      <trkpt lat="47.0201" lon="8.88572">
        <ele>1300</ele>
        <time>2021-08-03T10:10:59.350Z</time>
      </trkpt>
      <trkpt lat="47.02009" lon="8.88572">
        <ele>1300</ele>
        <time>2021-08-03T10:11:00.350Z</time>
      </trkpt>
      <trkpt lat="47.02008" lon="8.88572">
        <ele>1301</ele>
        <time>2021-08-03T10:11:01.350Z</time>
      </trkpt>
      <trkpt lat="47.02008" lon="8.88572">
        <ele>1301</ele>
        <time>2021-08-03T10:11:02.350Z</time>
      </trkpt>
      <trkpt lat="47.02007" lon="8.88572">
        <ele>1302</ele>
        <time>2021-08-03T10:11:03.350Z</time>
      </trkpt>
      <trkpt lat="47.02007" lon="8.88573">
        <ele>1302</ele>
        <time>2021-08-03T10:11:04.349Z</time>
      </trkpt>
      <trkpt lat="47.02007" lon="8.88574">
        <ele>1303</ele>
        <time>2021-08-03T10:11:05.349Z</time>
      </trkpt>
      <trkpt lat="47.02007" lon="8.88575">
        <ele>1303</ele>
        <time>2021-08-03T10:11:06.350Z</time>
      </trkpt>
      <trkpt lat="47.02007" lon="8.88575">
        <ele>1304</ele>
        <time>2021-08-03T10:11:07.350Z</time>
      </trkpt>
      <trkpt lat="47.02007" lon="8.88576">
        <ele>1304</ele>
        <time>2021-08-03T10:11:08.350Z</time>
      </trkpt>
      <trkpt lat="47.02006" lon="8.88576">
        <ele>1305</ele>
        <time>2021-08-03T10:11:09.350Z</time>
      </trkpt>
      <trkpt lat="47.02006" lon="8.88577">
        <ele>1306</ele>
        <time>2021-08-03T10:11:10.349Z</time>
      </trkpt>
      <trkpt lat="47.02005" lon="8.88578">
        <ele>1307</ele>
        <time>2021-08-03T10:11:11.350Z</time>
      </trkpt>
      <trkpt lat="47.02005" lon="8.88579">
        <ele>1307</ele>
        <time>2021-08-03T10:11:12.350Z</time>
      </trkpt>
      <trkpt lat="47.02004" lon="8.8858">
        <ele>1307</ele>
        <time>2021-08-03T10:11:13.349Z</time>
      </trkpt>
      <trkpt lat="47.02003" lon="8.88581">
        <ele>1307</ele>
        <time>2021-08-03T10:11:14.349Z</time>
      </trkpt>
      <trkpt lat="47.02002" lon="8.88582">
        <ele>1307</ele>
        <time>2021-08-03T10:11:15.349Z</time>
      </trkpt>
      <trkpt lat="47.02003" lon="8.88583">
        <ele>1308</ele>
        <time>2021-08-03T10:11:16.350Z</time>
      </trkpt>
      <trkpt lat="47.02002" lon="8.88584">
        <ele>1308</ele>
        <time>2021-08-03T10:11:17.350Z</time>
      </trkpt>
      <trkpt lat="47.02001" lon="8.88584">
        <ele>1309</ele>
        <time>2021-08-03T10:11:18.349Z</time>
      </trkpt>
      <trkpt lat="47.02001" lon="8.88584">
        <ele>1309</ele>
        <time>2021-08-03T10:11:19.349Z</time>
      </trkpt>
      <trkpt lat="47.02" lon="8.88584">
        <ele>1309</ele>
        <time>2021-08-03T10:11:20.349Z</time>
      </trkpt>
      <trkpt lat="47.01999" lon="8.88584">
        <ele>1310</ele>
        <time>2021-08-03T10:11:21.349Z</time>
      </trkpt>
      <trkpt lat="47.01999" lon="8.88584">
        <ele>1311</ele>
        <time>2021-08-03T10:11:22.349Z</time>
      </trkpt>
      <trkpt lat="47.02" lon="8.88582">
        <ele>1311</ele>
        <time>2021-08-03T10:11:23.351Z</time>
      </trkpt>
      <trkpt lat="47.02" lon="8.88582">
        <ele>1312</ele>
        <time>2021-08-03T10:11:24.351Z</time>
      </trkpt>
      <trkpt lat="47.02" lon="8.88582">
        <ele>1312</ele>
        <time>2021-08-03T10:11:25.350Z</time>
      </trkpt>
      <trkpt lat="47.01999" lon="8.88581">
        <ele>1312</ele>
        <time>2021-08-03T10:11:26.351Z</time>
      </trkpt>
      <trkpt lat="47.01995" lon="8.88577">
        <ele>1307</ele>
        <time>2021-08-03T10:11:27.350Z</time>
      </trkpt>
      <trkpt lat="47.01996" lon="8.88577">
        <ele>1307</ele>
        <time>2021-08-03T10:11:28.351Z</time>
      </trkpt>
      <trkpt lat="47.01996" lon="8.88577">
        <ele>1307</ele>
        <time>2021-08-03T10:11:29.351Z</time>
      </trkpt>
      <trkpt lat="47.01997" lon="8.88577">
        <ele>1307</ele>
        <time>2021-08-03T10:11:30.350Z</time>
      </trkpt>
      <trkpt lat="47.02002" lon="8.88582">
        <ele>1315</ele>
        <time>2021-08-03T10:11:31.352Z</time>
      </trkpt>
      <trkpt lat="47.02002" lon="8.88582">
        <ele>1316</ele>
        <time>2021-08-03T10:11:32.351Z</time>
      </trkpt>
      <trkpt lat="47.02002" lon="8.88582">
        <ele>1317</ele>
        <time>2021-08-03T10:11:33.351Z</time>
      </trkpt>
      <trkpt lat="47.01996" lon="8.88572">
        <ele>1317</ele>
        <time>2021-08-03T10:11:34.353Z</time>
      </trkpt>
      <trkpt lat="47.01996" lon="8.88571">
        <ele>1317</ele>
        <time>2021-08-03T10:11:35.353Z</time>
      </trkpt>
      <trkpt lat="47.01995" lon="8.88573">
        <ele>1316</ele>
        <time>2021-08-03T10:11:36.354Z</time>
      </trkpt>
      <trkpt lat="47.01995" lon="8.88573">
        <ele>1316</ele>
        <time>2021-08-03T10:11:37.354Z</time>
      </trkpt>
      <trkpt lat="47.01997" lon="8.88575">
        <ele>1319</ele>
        <time>2021-08-03T10:11:38.353Z</time>
      </trkpt>
      <trkpt lat="47.01997" lon="8.88575">
        <ele>1319</ele>
        <time>2021-08-03T10:11:39.354Z</time>
      </trkpt>
      <trkpt lat="47.01997" lon="8.88574">
        <ele>1319</ele>
        <time>2021-08-03T10:11:40.353Z</time>
      </trkpt>
      <trkpt lat="47.01997" lon="8.88573">
        <ele>1319</ele>
        <time>2021-08-03T10:11:41.354Z</time>
      </trkpt>
      <trkpt lat="47.01998" lon="8.88573">
        <ele>1320</ele>
        <time>2021-08-03T10:11:42.354Z</time>
      </trkpt>
      <trkpt lat="47.01998" lon="8.88573">
        <ele>1320</ele>
        <time>2021-08-03T10:11:43.353Z</time>
      </trkpt>
      <trkpt lat="47.01997" lon="8.88572">
        <ele>1321</ele>
        <time>2021-08-03T10:11:44.354Z</time>
      </trkpt>
      <trkpt lat="47.01996" lon="8.88571">
        <ele>1321</ele>
        <time>2021-08-03T10:11:45.354Z</time>
      </trkpt>
      <trkpt lat="47.01995" lon="8.8857">
        <ele>1321</ele>
        <time>2021-08-03T10:11:46.353Z</time>
      </trkpt>
      <trkpt lat="47.01993" lon="8.8857">
        <ele>1321</ele>
        <time>2021-08-03T10:11:47.354Z</time>
      </trkpt>
      <trkpt lat="47.01992" lon="8.8857">
        <ele>1321</ele>
        <time>2021-08-03T10:11:48.353Z</time>
      </trkpt>
      <trkpt lat="47.01991" lon="8.88569">
        <ele>1322</ele>
        <time>2021-08-03T10:11:49.354Z</time>
      </trkpt>
      <trkpt lat="47.0199" lon="8.88569">
        <ele>1322</ele>
        <time>2021-08-03T10:11:50.353Z</time>
      </trkpt>
      <trkpt lat="47.0199" lon="8.88569">
        <ele>1322</ele>
        <time>2021-08-03T10:11:51.354Z</time>
      </trkpt>
      <trkpt lat="47.01989" lon="8.88568">
        <ele>1322</ele>
        <time>2021-08-03T10:11:52.353Z</time>
      </trkpt>
      <trkpt lat="47.01988" lon="8.88568">
        <ele>1323</ele>
        <time>2021-08-03T10:11:53.354Z</time>
      </trkpt>
      <trkpt lat="47.01986" lon="8.88567">
        <ele>1323</ele>
        <time>2021-08-03T10:11:54.354Z</time>
      </trkpt>
      <trkpt lat="47.01985" lon="8.88567">
        <ele>1323</ele>
        <time>2021-08-03T10:11:55.354Z</time>
      </trkpt>
      <trkpt lat="47.01984" lon="8.88567">
        <ele>1323</ele>
        <time>2021-08-03T10:11:56.354Z</time>
      </trkpt>
      <trkpt lat="47.01984" lon="8.88567">
        <ele>1323</ele>
        <time>2021-08-03T10:11:57.353Z</time>
      </trkpt>
      <trkpt lat="47.01982" lon="8.88567">
        <ele>1323</ele>
        <time>2021-08-03T10:11:58.354Z</time>
      </trkpt>
      <trkpt lat="47.01981" lon="8.88568">
        <ele>1324</ele>
        <time>2021-08-03T10:11:59.354Z</time>
      </trkpt>
      <trkpt lat="47.01979" lon="8.88568">
        <ele>1324</ele>
        <time>2021-08-03T10:12:00.354Z</time>
      </trkpt>
      <trkpt lat="47.01979" lon="8.88567">
        <ele>1324</ele>
        <time>2021-08-03T10:12:01.353Z</time>
      </trkpt>
      <trkpt lat="47.01979" lon="8.88567">
        <ele>1325</ele>
        <time>2021-08-03T10:12:02.354Z</time>
      </trkpt>
      <trkpt lat="47.01978" lon="8.88566">
        <ele>1325</ele>
        <time>2021-08-03T10:12:03.353Z</time>
      </trkpt>
      <trkpt lat="47.01977" lon="8.88566">
        <ele>1326</ele>
        <time>2021-08-03T10:12:04.354Z</time>
      </trkpt>
      <trkpt lat="47.01976" lon="8.88567">
        <ele>1326</ele>
        <time>2021-08-03T10:12:05.354Z</time>
      </trkpt>
      <trkpt lat="47.01976" lon="8.88568">
        <ele>1327</ele>
        <time>2021-08-03T10:12:06.353Z</time>
      </trkpt>
      <trkpt lat="47.01975" lon="8.88568">
        <ele>1327</ele>
        <time>2021-08-03T10:12:07.354Z</time>
      </trkpt>
      <trkpt lat="47.01974" lon="8.88568">
        <ele>1328</ele>
        <time>2021-08-03T10:12:08.354Z</time>
      </trkpt>
      <trkpt lat="47.01973" lon="8.88569">
        <ele>1328</ele>
        <time>2021-08-03T10:12:09.354Z</time>
      </trkpt>
      <trkpt lat="47.01973" lon="8.8857">
        <ele>1329</ele>
        <time>2021-08-03T10:12:10.354Z</time>
      </trkpt>
      <trkpt lat="47.01972" lon="8.88571">
        <ele>1330</ele>
        <time>2021-08-03T10:12:11.354Z</time>
      </trkpt>
      <trkpt lat="47.01972" lon="8.88572">
        <ele>1330</ele>
        <time>2021-08-03T10:12:12.353Z</time>
      </trkpt>
      <trkpt lat="47.01972" lon="8.88573">
        <ele>1331</ele>
        <time>2021-08-03T10:12:13.354Z</time>
      </trkpt>
      <trkpt lat="47.01972" lon="8.88574">
        <ele>1332</ele>
        <time>2021-08-03T10:12:14.354Z</time>
      </trkpt>
      <trkpt lat="47.01971" lon="8.88575">
        <ele>1332</ele>
        <time>2021-08-03T10:12:15.353Z</time>
      </trkpt>
      <trkpt lat="47.01969" lon="8.88575">
        <ele>1333</ele>
        <time>2021-08-03T10:12:16.353Z</time>
      </trkpt>
      <trkpt lat="47.01968" lon="8.88576">
        <ele>1333</ele>
        <time>2021-08-03T10:12:17.354Z</time>
      </trkpt>
      <trkpt lat="47.01967" lon="8.88577">
        <ele>1333</ele>
        <time>2021-08-03T10:12:18.354Z</time>
      </trkpt>
      <trkpt lat="47.01966" lon="8.88578">
        <ele>1332</ele>
        <time>2021-08-03T10:12:19.354Z</time>
      </trkpt>
      <trkpt lat="47.01966" lon="8.88576">
        <ele>1332</ele>
        <time>2021-08-03T10:12:20.353Z</time>
      </trkpt>
      <trkpt lat="47.01966" lon="8.88574">
        <ele>1332</ele>
        <time>2021-08-03T10:12:21.354Z</time>
      </trkpt>
      <trkpt lat="47.01961" lon="8.88573">
        <ele>1333</ele>
        <time>2021-08-03T10:12:22.355Z</time>
      </trkpt>
      <trkpt lat="47.0196" lon="8.88574">
        <ele>1333</ele>
        <time>2021-08-03T10:12:23.356Z</time>
      </trkpt>
      <trkpt lat="47.01959" lon="8.88575">
        <ele>1334</ele>
        <time>2021-08-03T10:12:24.355Z</time>
      </trkpt>
      <trkpt lat="47.01958" lon="8.88576">
        <ele>1334</ele>
        <time>2021-08-03T10:12:25.356Z</time>
      </trkpt>
      <trkpt lat="47.01954" lon="8.88577">
        <ele>1336</ele>
        <time>2021-08-03T10:12:26.355Z</time>
      </trkpt>
      <trkpt lat="47.01954" lon="8.88576">
        <ele>1336</ele>
        <time>2021-08-03T10:12:27.356Z</time>
      </trkpt>
      <trkpt lat="47.01952" lon="8.88576">
        <ele>1335</ele>
        <time>2021-08-03T10:12:28.356Z</time>
      </trkpt>
      <trkpt lat="47.01951" lon="8.88577">
        <ele>1334</ele>
        <time>2021-08-03T10:12:29.355Z</time>
      </trkpt>
      <trkpt lat="47.01951" lon="8.88577">
        <ele>1334</ele>
        <time>2021-08-03T10:12:30.355Z</time>
      </trkpt>
      <trkpt lat="47.01951" lon="8.88577">
        <ele>1334</ele>
        <time>2021-08-03T10:12:31.356Z</time>
      </trkpt>
      <trkpt lat="47.0195" lon="8.88577">
        <ele>1335</ele>
        <time>2021-08-03T10:12:32.356Z</time>
      </trkpt>
      <trkpt lat="47.01949" lon="8.88577">
        <ele>1335</ele>
        <time>2021-08-03T10:12:33.356Z</time>
      </trkpt>
      <trkpt lat="47.01948" lon="8.88576">
        <ele>1335</ele>
        <time>2021-08-03T10:12:34.355Z</time>
      </trkpt>
      <trkpt lat="47.01948" lon="8.88576">
        <ele>1335</ele>
        <time>2021-08-03T10:12:35.356Z</time>
      </trkpt>
      <trkpt lat="47.01947" lon="8.88576">
        <ele>1335</ele>
        <time>2021-08-03T10:12:36.356Z</time>
      </trkpt>
      <trkpt lat="47.01945" lon="8.88576">
        <ele>1335</ele>
        <time>2021-08-03T10:12:37.356Z</time>
      </trkpt>
      <trkpt lat="47.01943" lon="8.88576">
        <ele>1335</ele>
        <time>2021-08-03T10:12:38.356Z</time>
      </trkpt>
      <trkpt lat="47.01941" lon="8.88575">
        <ele>1335</ele>
        <time>2021-08-03T10:12:39.355Z</time>
      </trkpt>
      <trkpt lat="47.01939" lon="8.88575">
        <ele>1335</ele>
        <time>2021-08-03T10:12:40.356Z</time>
      </trkpt>
      <trkpt lat="47.01938" lon="8.88575">
        <ele>1335</ele>
        <time>2021-08-03T10:12:41.355Z</time>
      </trkpt>
      <trkpt lat="47.01938" lon="8.88574">
        <ele>1335</ele>
        <time>2021-08-03T10:12:42.356Z</time>
      </trkpt>
      <trkpt lat="47.01938" lon="8.88574">
        <ele>1334</ele>
        <time>2021-08-03T10:12:43.355Z</time>
      </trkpt>
      <trkpt lat="47.01938" lon="8.88573">
        <ele>1334</ele>
        <time>2021-08-03T10:12:44.356Z</time>
      </trkpt>
      <trkpt lat="47.01937" lon="8.88573">
        <ele>1334</ele>
        <time>2021-08-03T10:12:45.355Z</time>
      </trkpt>
      <trkpt lat="47.01937" lon="8.88574">
        <ele>1333</ele>
        <time>2021-08-03T10:12:46.355Z</time>
      </trkpt>
      <trkpt lat="47.01937" lon="8.88574">
        <ele>1333</ele>
        <time>2021-08-03T10:12:47.356Z</time>
      </trkpt>
      <trkpt lat="47.01936" lon="8.88573">
        <ele>1332</ele>
        <time>2021-08-03T10:12:48.355Z</time>
      </trkpt>
      <trkpt lat="47.01936" lon="8.88574">
        <ele>1330</ele>
        <time>2021-08-03T10:12:49.355Z</time>
      </trkpt>
      <trkpt lat="47.01936" lon="8.88574">
        <ele>1330</ele>
        <time>2021-08-03T10:12:50.356Z</time>
      </trkpt>
      <trkpt lat="47.01935" lon="8.88573">
        <ele>1329</ele>
        <time>2021-08-03T10:12:51.356Z</time>
      </trkpt>
      <trkpt lat="47.01935" lon="8.88572">
        <ele>1328</ele>
        <time>2021-08-03T10:12:52.356Z</time>
      </trkpt>
      <trkpt lat="47.01935" lon="8.88571">
        <ele>1327</ele>
        <time>2021-08-03T10:12:53.356Z</time>
      </trkpt>
      <trkpt lat="47.01935" lon="8.88571">
        <ele>1326</ele>
        <time>2021-08-03T10:12:54.356Z</time>
      </trkpt>
      <trkpt lat="47.01936" lon="8.88571">
        <ele>1326</ele>
        <time>2021-08-03T10:12:55.355Z</time>
      </trkpt>
      <trkpt lat="47.01935" lon="8.88571">
        <ele>1325</ele>
        <time>2021-08-03T10:12:56.356Z</time>
      </trkpt>
      <trkpt lat="47.01935" lon="8.88572">
        <ele>1324</ele>
        <time>2021-08-03T10:12:57.355Z</time>
      </trkpt>
      <trkpt lat="47.01935" lon="8.88572">
        <ele>1324</ele>
        <time>2021-08-03T10:12:58.356Z</time>
      </trkpt>
      <trkpt lat="47.01936" lon="8.88572">
        <ele>1322</ele>
        <time>2021-08-03T10:12:59.356Z</time>
      </trkpt>
      <trkpt lat="47.01936" lon="8.88572">
        <ele>1322</ele>
        <time>2021-08-03T10:13:00.357Z</time>
      </trkpt>
      <trkpt lat="47.01936" lon="8.88571">
        <ele>1321</ele>
        <time>2021-08-03T10:13:01.357Z</time>
      </trkpt>
      <trkpt lat="47.01935" lon="8.88571">
        <ele>1321</ele>
        <time>2021-08-03T10:13:02.357Z</time>
      </trkpt>
      <trkpt lat="47.01934" lon="8.8857">
        <ele>1320</ele>
        <time>2021-08-03T10:13:03.357Z</time>
      </trkpt>
      <trkpt lat="47.01932" lon="8.8857">
        <ele>1320</ele>
        <time>2021-08-03T10:13:04.357Z</time>
      </trkpt>
      <trkpt lat="47.01932" lon="8.8857">
        <ele>1320</ele>
        <time>2021-08-03T10:13:05.357Z</time>
      </trkpt>
      <trkpt lat="47.01931" lon="8.8857">
        <ele>1320</ele>
        <time>2021-08-03T10:13:06.356Z</time>
      </trkpt>
      <trkpt lat="47.0193" lon="8.8857">
        <ele>1320</ele>
        <time>2021-08-03T10:13:07.357Z</time>
      </trkpt>
      <trkpt lat="47.0193" lon="8.8857">
        <ele>1321</ele>
        <time>2021-08-03T10:13:08.357Z</time>
      </trkpt>
      <trkpt lat="47.0193" lon="8.88569">
        <ele>1321</ele>
        <time>2021-08-03T10:13:09.357Z</time>
      </trkpt>
      <trkpt lat="47.01928" lon="8.88568">
        <ele>1322</ele>
        <time>2021-08-03T10:13:10.357Z</time>
      </trkpt>
      <trkpt lat="47.01927" lon="8.88567">
        <ele>1322</ele>
        <time>2021-08-03T10:13:11.357Z</time>
      </trkpt>
      <trkpt lat="47.01927" lon="8.88567">
        <ele>1323</ele>
        <time>2021-08-03T10:13:12.357Z</time>
      </trkpt>
      <trkpt lat="47.01927" lon="8.88566">
        <ele>1323</ele>
        <time>2021-08-03T10:13:13.356Z</time>
      </trkpt>
      <trkpt lat="47.01927" lon="8.88566">
        <ele>1323</ele>
        <time>2021-08-03T10:13:14.356Z</time>
      </trkpt>
      <trkpt lat="47.01928" lon="8.88568">
        <ele>1324</ele>
        <time>2021-08-03T10:13:15.357Z</time>
      </trkpt>
      <trkpt lat="47.01928" lon="8.88568">
        <ele>1324</ele>
        <time>2021-08-03T10:13:16.357Z</time>
      </trkpt>
      <trkpt lat="47.01929" lon="8.88566">
        <ele>1324</ele>
        <time>2021-08-03T10:13:17.357Z</time>
      </trkpt>
      <trkpt lat="47.01929" lon="8.88565">
        <ele>1325</ele>
        <time>2021-08-03T10:13:18.357Z</time>
      </trkpt>
      <trkpt lat="47.01928" lon="8.88564">
        <ele>1325</ele>
        <time>2021-08-03T10:13:19.357Z</time>
      </trkpt>
      <trkpt lat="47.01928" lon="8.88563">
        <ele>1325</ele>
        <time>2021-08-03T10:13:20.357Z</time>
      </trkpt>
      <trkpt lat="47.01927" lon="8.88563">
        <ele>1326</ele>
        <time>2021-08-03T10:13:21.357Z</time>
      </trkpt>
      <trkpt lat="47.01927" lon="8.88563">
        <ele>1326</ele>
        <time>2021-08-03T10:13:22.357Z</time>
      </trkpt>
      <trkpt lat="47.01926" lon="8.88563">
        <ele>1326</ele>
        <time>2021-08-03T10:13:23.356Z</time>
      </trkpt>
      <trkpt lat="47.01925" lon="8.88564">
        <ele>1327</ele>
        <time>2021-08-03T10:13:24.357Z</time>
      </trkpt>
      <trkpt lat="47.01925" lon="8.88565">
        <ele>1327</ele>
        <time>2021-08-03T10:13:25.357Z</time>
      </trkpt>
      <trkpt lat="47.01924" lon="8.88566">
        <ele>1327</ele>
        <time>2021-08-03T10:13:26.356Z</time>
      </trkpt>
      <trkpt lat="47.01924" lon="8.88567">
        <ele>1328</ele>
        <time>2021-08-03T10:13:27.357Z</time>
      </trkpt>
      <trkpt lat="47.01925" lon="8.88568">
        <ele>1328</ele>
        <time>2021-08-03T10:13:28.356Z</time>
      </trkpt>
      <trkpt lat="47.01926" lon="8.88569">
        <ele>1328</ele>
        <time>2021-08-03T10:13:29.357Z</time>
      </trkpt>
      <trkpt lat="47.01926" lon="8.8857">
        <ele>1328</ele>
        <time>2021-08-03T10:13:30.357Z</time>
      </trkpt>
      <trkpt lat="47.01927" lon="8.88571">
        <ele>1329</ele>
        <time>2021-08-03T10:13:31.357Z</time>
      </trkpt>
      <trkpt lat="47.01928" lon="8.88572">
        <ele>1329</ele>
        <time>2021-08-03T10:13:32.356Z</time>
      </trkpt>
      <trkpt lat="47.01929" lon="8.88574">
        <ele>1330</ele>
        <time>2021-08-03T10:13:33.357Z</time>
      </trkpt>
      <trkpt lat="47.01929" lon="8.88575">
        <ele>1330</ele>
        <time>2021-08-03T10:13:34.356Z</time>
      </trkpt>
      <trkpt lat="47.01929" lon="8.88576">
        <ele>1331</ele>
        <time>2021-08-03T10:13:35.357Z</time>
      </trkpt>
      <trkpt lat="47.01928" lon="8.88577">
        <ele>1331</ele>
        <time>2021-08-03T10:13:36.357Z</time>
      </trkpt>
      <trkpt lat="47.01928" lon="8.88579">
        <ele>1331</ele>
        <time>2021-08-03T10:13:37.357Z</time>
      </trkpt>
      <trkpt lat="47.01927" lon="8.8858">
        <ele>1332</ele>
        <time>2021-08-03T10:13:38.357Z</time>
      </trkpt>
      <trkpt lat="47.01926" lon="8.88582">
        <ele>1332</ele>
        <time>2021-08-03T10:13:39.357Z</time>
      </trkpt>
      <trkpt lat="47.01926" lon="8.88588">
        <ele>1332</ele>
        <time>2021-08-03T10:13:40.357Z</time>
      </trkpt>
      <trkpt lat="47.01932" lon="8.88599">
        <ele>1336</ele>
        <time>2021-08-03T10:13:41.359Z</time>
      </trkpt>
      <trkpt lat="47.01932" lon="8.886">
        <ele>1336</ele>
        <time>2021-08-03T10:13:42.358Z</time>
      </trkpt>
      <trkpt lat="47.01932" lon="8.88601">
        <ele>1336</ele>
        <time>2021-08-03T10:13:43.358Z</time>
      </trkpt>
      <trkpt lat="47.01932" lon="8.88599">
        <ele>1337</ele>
        <time>2021-08-03T10:13:44.359Z</time>
      </trkpt>
      <trkpt lat="47.01932" lon="8.88596">
        <ele>1337</ele>
        <time>2021-08-03T10:13:45.359Z</time>
      </trkpt>
      <trkpt lat="47.01931" lon="8.88595">
        <ele>1337</ele>
        <time>2021-08-03T10:13:46.359Z</time>
      </trkpt>
      <trkpt lat="47.01931" lon="8.88594">
        <ele>1337</ele>
        <time>2021-08-03T10:13:47.359Z</time>
      </trkpt>
      <trkpt lat="47.01931" lon="8.88593">
        <ele>1336</ele>
        <time>2021-08-03T10:13:48.359Z</time>
      </trkpt>
      <trkpt lat="47.0193" lon="8.88592">
        <ele>1336</ele>
        <time>2021-08-03T10:13:49.358Z</time>
      </trkpt>
      <trkpt lat="47.01929" lon="8.88592">
        <ele>1335</ele>
        <time>2021-08-03T10:13:50.359Z</time>
      </trkpt>
      <trkpt lat="47.01929" lon="8.88591">
        <ele>1335</ele>
        <time>2021-08-03T10:13:51.359Z</time>
      </trkpt>
      <trkpt lat="47.01928" lon="8.88592">
        <ele>1334</ele>
        <time>2021-08-03T10:13:52.358Z</time>
      </trkpt>
      <trkpt lat="47.01928" lon="8.88592">
        <ele>1333</ele>
        <time>2021-08-03T10:13:53.359Z</time>
      </trkpt>
      <trkpt lat="47.01927" lon="8.88592">
        <ele>1333</ele>
        <time>2021-08-03T10:13:54.359Z</time>
      </trkpt>
      <trkpt lat="47.01927" lon="8.88592">
        <ele>1333</ele>
        <time>2021-08-03T10:13:55.359Z</time>
      </trkpt>
      <trkpt lat="47.01926" lon="8.88591">
        <ele>1332</ele>
        <time>2021-08-03T10:13:56.359Z</time>
      </trkpt>
      <trkpt lat="47.01926" lon="8.88589">
        <ele>1332</ele>
        <time>2021-08-03T10:13:57.359Z</time>
      </trkpt>
      <trkpt lat="47.01925" lon="8.88588">
        <ele>1331</ele>
        <time>2021-08-03T10:13:58.359Z</time>
      </trkpt>
      <trkpt lat="47.01925" lon="8.88586">
        <ele>1331</ele>
        <time>2021-08-03T10:13:59.358Z</time>
      </trkpt>
      <trkpt lat="47.01924" lon="8.88585">
        <ele>1330</ele>
        <time>2021-08-03T10:14:00.359Z</time>
      </trkpt>
      <trkpt lat="47.01923" lon="8.88583">
        <ele>1329</ele>
        <time>2021-08-03T10:14:01.358Z</time>
      </trkpt>
      <trkpt lat="47.01923" lon="8.88582">
        <ele>1329</ele>
        <time>2021-08-03T10:14:02.358Z</time>
      </trkpt>
      <trkpt lat="47.01922" lon="8.8858">
        <ele>1329</ele>
        <time>2021-08-03T10:14:03.358Z</time>
      </trkpt>
      <trkpt lat="47.01921" lon="8.88578">
        <ele>1328</ele>
        <time>2021-08-03T10:14:04.358Z</time>
      </trkpt>
      <trkpt lat="47.01919" lon="8.88575">
        <ele>1328</ele>
        <time>2021-08-03T10:14:05.359Z</time>
      </trkpt>
      <trkpt lat="47.01919" lon="8.88573">
        <ele>1328</ele>
        <time>2021-08-03T10:14:06.358Z</time>
      </trkpt>
      <trkpt lat="47.0192" lon="8.88571">
        <ele>1328</ele>
        <time>2021-08-03T10:14:07.359Z</time>
      </trkpt>
      <trkpt lat="47.0192" lon="8.8857">
        <ele>1327</ele>
        <time>2021-08-03T10:14:08.358Z</time>
      </trkpt>
      <trkpt lat="47.0192" lon="8.88569">
        <ele>1327</ele>
        <time>2021-08-03T10:14:09.358Z</time>
      </trkpt>
      <trkpt lat="47.01919" lon="8.88569">
        <ele>1327</ele>
        <time>2021-08-03T10:14:10.358Z</time>
      </trkpt>
      <trkpt lat="47.01919" lon="8.88568">
        <ele>1327</ele>
        <time>2021-08-03T10:14:11.358Z</time>
      </trkpt>
      <trkpt lat="47.01919" lon="8.88566">
        <ele>1327</ele>
        <time>2021-08-03T10:14:12.359Z</time>
      </trkpt>
      <trkpt lat="47.01919" lon="8.88565">
        <ele>1327</ele>
        <time>2021-08-03T10:14:13.359Z</time>
      </trkpt>
      <trkpt lat="47.01919" lon="8.88563">
        <ele>1327</ele>
        <time>2021-08-03T10:14:14.359Z</time>
      </trkpt>
      <trkpt lat="47.01919" lon="8.88562">
        <ele>1327</ele>
        <time>2021-08-03T10:14:15.359Z</time>
      </trkpt>
      <trkpt lat="47.01918" lon="8.88561">
        <ele>1326</ele>
        <time>2021-08-03T10:14:16.359Z</time>
      </trkpt>
      <trkpt lat="47.01918" lon="8.8856">
        <ele>1326</ele>
        <time>2021-08-03T10:14:17.358Z</time>
      </trkpt>
      <trkpt lat="47.01917" lon="8.88558">
        <ele>1325</ele>
        <time>2021-08-03T10:14:18.359Z</time>
      </trkpt>
      <trkpt lat="47.01917" lon="8.88557">
        <ele>1325</ele>
        <time>2021-08-03T10:14:19.359Z</time>
      </trkpt>
      <trkpt lat="47.01916" lon="8.88555">
        <ele>1325</ele>
        <time>2021-08-03T10:14:20.359Z</time>
      </trkpt>
      <trkpt lat="47.01915" lon="8.88554">
        <ele>1325</ele>
        <time>2021-08-03T10:14:21.358Z</time>
      </trkpt>
      <trkpt lat="47.01913" lon="8.88553">
        <ele>1325</ele>
        <time>2021-08-03T10:14:22.358Z</time>
      </trkpt>
      <trkpt lat="47.01912" lon="8.88553">
        <ele>1325</ele>
        <time>2021-08-03T10:14:23.358Z</time>
      </trkpt>
      <trkpt lat="47.01912" lon="8.88552">
        <ele>1325</ele>
        <time>2021-08-03T10:14:24.359Z</time>
      </trkpt>
      <trkpt lat="47.01911" lon="8.88551">
        <ele>1326</ele>
        <time>2021-08-03T10:14:25.359Z</time>
      </trkpt>
      <trkpt lat="47.01911" lon="8.88551">
        <ele>1326</ele>
        <time>2021-08-03T10:14:26.359Z</time>
      </trkpt>
      <trkpt lat="47.01911" lon="8.8855">
        <ele>1327</ele>
        <time>2021-08-03T10:14:27.359Z</time>
      </trkpt>
      <trkpt lat="47.01909" lon="8.88551">
        <ele>1327</ele>
        <time>2021-08-03T10:14:28.359Z</time>
      </trkpt>
      <trkpt lat="47.01909" lon="8.88551">
        <ele>1327</ele>
        <time>2021-08-03T10:14:29.359Z</time>
      </trkpt>
      <trkpt lat="47.01908" lon="8.8855">
        <ele>1327</ele>
        <time>2021-08-03T10:14:30.358Z</time>
      </trkpt>
      <trkpt lat="47.01908" lon="8.88549">
        <ele>1326</ele>
        <time>2021-08-03T10:14:31.358Z</time>
      </trkpt>
      <trkpt lat="47.01908" lon="8.88549">
        <ele>1326</ele>
        <time>2021-08-03T10:14:32.358Z</time>
      </trkpt>
      <trkpt lat="47.01907" lon="8.88548">
        <ele>1326</ele>
        <time>2021-08-03T10:14:33.359Z</time>
      </trkpt>
      <trkpt lat="47.01907" lon="8.88547">
        <ele>1326</ele>
        <time>2021-08-03T10:14:34.359Z</time>
      </trkpt>
      <trkpt lat="47.01906" lon="8.88546">
        <ele>1326</ele>
        <time>2021-08-03T10:14:35.359Z</time>
      </trkpt>
      <trkpt lat="47.01906" lon="8.88545">
        <ele>1326</ele>
        <time>2021-08-03T10:14:36.359Z</time>
      </trkpt>
      <trkpt lat="47.01905" lon="8.88544">
        <ele>1325</ele>
        <time>2021-08-03T10:14:37.359Z</time>
      </trkpt>
      <trkpt lat="47.01905" lon="8.88543">
        <ele>1325</ele>
        <time>2021-08-03T10:14:38.359Z</time>
      </trkpt>
      <trkpt lat="47.01905" lon="8.88543">
        <ele>1325</ele>
        <time>2021-08-03T10:14:39.359Z</time>
      </trkpt>
      <trkpt lat="47.01904" lon="8.88542">
        <ele>1325</ele>
        <time>2021-08-03T10:14:40.359Z</time>
      </trkpt>
      <trkpt lat="47.01904" lon="8.88542">
        <ele>1325</ele>
        <time>2021-08-03T10:14:41.359Z</time>
      </trkpt>
      <trkpt lat="47.01903" lon="8.88541">
        <ele>1325</ele>
        <time>2021-08-03T10:14:42.359Z</time>
      </trkpt>
      <trkpt lat="47.01902" lon="8.8854">
        <ele>1325</ele>
        <time>2021-08-03T10:14:43.359Z</time>
      </trkpt>
      <trkpt lat="47.01902" lon="8.8854">
        <ele>1325</ele>
        <time>2021-08-03T10:14:44.359Z</time>
      </trkpt>
      <trkpt lat="47.01901" lon="8.88539">
        <ele>1325</ele>
        <time>2021-08-03T10:14:45.359Z</time>
      </trkpt>
      <trkpt lat="47.019" lon="8.88539">
        <ele>1325</ele>
        <time>2021-08-03T10:14:46.358Z</time>
      </trkpt>
      <trkpt lat="47.019" lon="8.88539">
        <ele>1325</ele>
        <time>2021-08-03T10:14:47.359Z</time>
      </trkpt>
      <trkpt lat="47.01899" lon="8.88538">
        <ele>1325</ele>
        <time>2021-08-03T10:14:48.358Z</time>
      </trkpt>
      <trkpt lat="47.01898" lon="8.88538">
        <ele>1325</ele>
        <time>2021-08-03T10:14:49.358Z</time>
      </trkpt>
      <trkpt lat="47.01896" lon="8.88537">
        <ele>1325</ele>
        <time>2021-08-03T10:14:50.359Z</time>
      </trkpt>
      <trkpt lat="47.01896" lon="8.88537">
        <ele>1325</ele>
        <time>2021-08-03T10:14:51.358Z</time>
      </trkpt>
      <trkpt lat="47.01895" lon="8.88537">
        <ele>1325</ele>
        <time>2021-08-03T10:14:52.359Z</time>
      </trkpt>
      <trkpt lat="47.01894" lon="8.88536">
        <ele>1325</ele>
        <time>2021-08-03T10:14:53.359Z</time>
      </trkpt>
      <trkpt lat="47.01893" lon="8.88536">
        <ele>1325</ele>
        <time>2021-08-03T10:14:54.358Z</time>
      </trkpt>
      <trkpt lat="47.01892" lon="8.88536">
        <ele>1325</ele>
        <time>2021-08-03T10:14:55.358Z</time>
      </trkpt>
      <trkpt lat="47.01891" lon="8.88536">
        <ele>1325</ele>
        <time>2021-08-03T10:14:56.358Z</time>
      </trkpt>
      <trkpt lat="47.01891" lon="8.88535">
        <ele>1325</ele>
        <time>2021-08-03T10:14:57.358Z</time>
      </trkpt>
      <trkpt lat="47.01891" lon="8.88534">
        <ele>1326</ele>
        <time>2021-08-03T10:14:58.358Z</time>
      </trkpt>
      <trkpt lat="47.01891" lon="8.88534">
        <ele>1326</ele>
        <time>2021-08-03T10:14:59.358Z</time>
      </trkpt>
      <trkpt lat="47.0189" lon="8.88533">
        <ele>1326</ele>
        <time>2021-08-03T10:15:00.358Z</time>
      </trkpt>
      <trkpt lat="47.0189" lon="8.88532">
        <ele>1326</ele>
        <time>2021-08-03T10:15:01.358Z</time>
      </trkpt>
      <trkpt lat="47.01889" lon="8.88532">
        <ele>1326</ele>
        <time>2021-08-03T10:15:02.358Z</time>
      </trkpt>
      <trkpt lat="47.01889" lon="8.88532">
        <ele>1326</ele>
        <time>2021-08-03T10:15:03.358Z</time>
      </trkpt>
      <trkpt lat="47.01888" lon="8.88531">
        <ele>1327</ele>
        <time>2021-08-03T10:15:04.358Z</time>
      </trkpt>
      <trkpt lat="47.01888" lon="8.88532">
        <ele>1327</ele>
        <time>2021-08-03T10:15:05.358Z</time>
      </trkpt>
      <trkpt lat="47.01888" lon="8.88532">
        <ele>1327</ele>
        <time>2021-08-03T10:15:06.358Z</time>
      </trkpt>
      <trkpt lat="47.01888" lon="8.88531">
        <ele>1327</ele>
        <time>2021-08-03T10:15:07.358Z</time>
      </trkpt>
      <trkpt lat="47.01889" lon="8.88532">
        <ele>1328</ele>
        <time>2021-08-03T10:15:08.359Z</time>
      </trkpt>
      <trkpt lat="47.01885" lon="8.88528">
        <ele>1329</ele>
        <time>2021-08-03T10:15:09.358Z</time>
      </trkpt>
      <trkpt lat="47.01884" lon="8.88528">
        <ele>1328</ele>
        <time>2021-08-03T10:15:10.358Z</time>
      </trkpt>
      <trkpt lat="47.01884" lon="8.88528">
        <ele>1328</ele>
        <time>2021-08-03T10:15:11.358Z</time>
      </trkpt>
      <trkpt lat="47.01883" lon="8.88527">
        <ele>1328</ele>
        <time>2021-08-03T10:15:12.359Z</time>
      </trkpt>
      <trkpt lat="47.01883" lon="8.88528">
        <ele>1328</ele>
        <time>2021-08-03T10:15:13.358Z</time>
      </trkpt>
      <trkpt lat="47.01882" lon="8.88528">
        <ele>1328</ele>
        <time>2021-08-03T10:15:14.358Z</time>
      </trkpt>
      <trkpt lat="47.01882" lon="8.88527">
        <ele>1328</ele>
        <time>2021-08-03T10:15:15.359Z</time>
      </trkpt>
      <trkpt lat="47.01882" lon="8.88527">
        <ele>1329</ele>
        <time>2021-08-03T10:15:16.359Z</time>
      </trkpt>
      <trkpt lat="47.01881" lon="8.88527">
        <ele>1329</ele>
        <time>2021-08-03T10:15:17.359Z</time>
      </trkpt>
      <trkpt lat="47.01881" lon="8.88527">
        <ele>1329</ele>
        <time>2021-08-03T10:15:18.358Z</time>
      </trkpt>
      <trkpt lat="47.0188" lon="8.88526">
        <ele>1329</ele>
        <time>2021-08-03T10:15:19.359Z</time>
      </trkpt>
      <trkpt lat="47.01879" lon="8.88525">
        <ele>1329</ele>
        <time>2021-08-03T10:15:20.358Z</time>
      </trkpt>
      <trkpt lat="47.01879" lon="8.88525">
        <ele>1330</ele>
        <time>2021-08-03T10:15:21.359Z</time>
      </trkpt>
      <trkpt lat="47.01878" lon="8.88523">
        <ele>1330</ele>
        <time>2021-08-03T10:15:22.359Z</time>
      </trkpt>
      <trkpt lat="47.01877" lon="8.88523">
        <ele>1331</ele>
        <time>2021-08-03T10:15:23.359Z</time>
      </trkpt>
      <trkpt lat="47.01877" lon="8.88523">
        <ele>1332</ele>
        <time>2021-08-03T10:15:24.359Z</time>
      </trkpt>
      <trkpt lat="47.01876" lon="8.88522">
        <ele>1333</ele>
        <time>2021-08-03T10:15:25.358Z</time>
      </trkpt>
      <trkpt lat="47.01875" lon="8.88522">
        <ele>1334</ele>
        <time>2021-08-03T10:15:26.358Z</time>
      </trkpt>
      <trkpt lat="47.01875" lon="8.88522">
        <ele>1334</ele>
        <time>2021-08-03T10:15:27.359Z</time>
      </trkpt>
      <trkpt lat="47.01874" lon="8.88521">
        <ele>1335</ele>
        <time>2021-08-03T10:15:28.359Z</time>
      </trkpt>
      <trkpt lat="47.01873" lon="8.88521">
        <ele>1336</ele>
        <time>2021-08-03T10:15:29.359Z</time>
      </trkpt>
      <trkpt lat="47.01873" lon="8.88521">
        <ele>1336</ele>
        <time>2021-08-03T10:15:30.358Z</time>
      </trkpt>
      <trkpt lat="47.01872" lon="8.88521">
        <ele>1337</ele>
        <time>2021-08-03T10:15:31.359Z</time>
      </trkpt>
      <trkpt lat="47.01871" lon="8.88521">
        <ele>1337</ele>
        <time>2021-08-03T10:15:32.358Z</time>
      </trkpt>
      <trkpt lat="47.01871" lon="8.8852">
        <ele>1337</ele>
        <time>2021-08-03T10:15:33.358Z</time>
      </trkpt>
      <trkpt lat="47.0187" lon="8.88519">
        <ele>1337</ele>
        <time>2021-08-03T10:15:34.359Z</time>
      </trkpt>
      <trkpt lat="47.01869" lon="8.8852">
        <ele>1338</ele>
        <time>2021-08-03T10:15:35.359Z</time>
      </trkpt>
      <trkpt lat="47.01868" lon="8.8852">
        <ele>1338</ele>
        <time>2021-08-03T10:15:36.359Z</time>
      </trkpt>
      <trkpt lat="47.01868" lon="8.88519">
        <ele>1338</ele>
        <time>2021-08-03T10:15:37.359Z</time>
      </trkpt>
      <trkpt lat="47.01867" lon="8.88519">
        <ele>1338</ele>
        <time>2021-08-03T10:15:38.359Z</time>
      </trkpt>
      <trkpt lat="47.01865" lon="8.88519">
        <ele>1338</ele>
        <time>2021-08-03T10:15:39.235Z</time>
      </trkpt>
      <trkpt lat="47.01865" lon="8.88519">
        <ele>1338</ele>
        <time>2021-08-03T10:15:40.235Z</time>
      </trkpt>
      <trkpt lat="47.01864" lon="8.88518">
        <ele>1338</ele>
        <time>2021-08-03T10:15:41.359Z</time>
      </trkpt>
      <trkpt lat="47.01862" lon="8.88517">
        <ele>1337</ele>
        <time>2021-08-03T10:15:42.359Z</time>
      </trkpt>
      <trkpt lat="47.01861" lon="8.88517">
        <ele>1337</ele>
        <time>2021-08-03T10:15:43.235Z</time>
      </trkpt>
      <trkpt lat="47.01861" lon="8.88516">
        <ele>1337</ele>
        <time>2021-08-03T10:15:44.360Z</time>
      </trkpt>
      <trkpt lat="47.0186" lon="8.88515">
        <ele>1337</ele>
        <time>2021-08-03T10:15:45.360Z</time>
      </trkpt>
      <trkpt lat="47.01859" lon="8.88516">
        <ele>1337</ele>
        <time>2021-08-03T10:15:46.359Z</time>
      </trkpt>
      <trkpt lat="47.01856" lon="8.88515">
        <ele>1336</ele>
        <time>2021-08-03T10:15:47.236Z</time>
      </trkpt>
      <trkpt lat="47.01855" lon="8.88515">
        <ele>1336</ele>
        <time>2021-08-03T10:15:48.236Z</time>
      </trkpt>
      <trkpt lat="47.01854" lon="8.88514">
        <ele>1336</ele>
        <time>2021-08-03T10:15:49.236Z</time>
      </trkpt>
      <trkpt lat="47.01854" lon="8.88514">
        <ele>1336</ele>
        <time>2021-08-03T10:15:50.236Z</time>
      </trkpt>
      <trkpt lat="47.01853" lon="8.88514">
        <ele>1336</ele>
        <time>2021-08-03T10:15:51.235Z</time>
      </trkpt>
      <trkpt lat="47.01852" lon="8.88514">
        <ele>1336</ele>
        <time>2021-08-03T10:15:52.236Z</time>
      </trkpt>
      <trkpt lat="47.01852" lon="8.88514">
        <ele>1336</ele>
        <time>2021-08-03T10:15:53.236Z</time>
      </trkpt>
      <trkpt lat="47.01851" lon="8.88513">
        <ele>1335</ele>
        <time>2021-08-03T10:15:54.236Z</time>
      </trkpt>
      <trkpt lat="47.0185" lon="8.88513">
        <ele>1335</ele>
        <time>2021-08-03T10:15:55.236Z</time>
      </trkpt>
      <trkpt lat="47.0185" lon="8.88513">
        <ele>1335</ele>
        <time>2021-08-03T10:15:56.236Z</time>
      </trkpt>
      <trkpt lat="47.01849" lon="8.88512">
        <ele>1335</ele>
        <time>2021-08-03T10:15:57.236Z</time>
      </trkpt>
      <trkpt lat="47.01848" lon="8.88512">
        <ele>1336</ele>
        <time>2021-08-03T10:15:58.236Z</time>
      </trkpt>
      <trkpt lat="47.01847" lon="8.88512">
        <ele>1336</ele>
        <time>2021-08-03T10:15:59.236Z</time>
      </trkpt>
      <trkpt lat="47.01846" lon="8.88511">
        <ele>1336</ele>
        <time>2021-08-03T10:16:00.236Z</time>
      </trkpt>
      <trkpt lat="47.01846" lon="8.88511">
        <ele>1336</ele>
        <time>2021-08-03T10:16:01.236Z</time>
      </trkpt>
      <trkpt lat="47.01846" lon="8.8851">
        <ele>1337</ele>
        <time>2021-08-03T10:16:02.235Z</time>
      </trkpt>
      <trkpt lat="47.01845" lon="8.88508">
        <ele>1338</ele>
        <time>2021-08-03T10:16:03.236Z</time>
      </trkpt>
      <trkpt lat="47.01844" lon="8.88507">
        <ele>1338</ele>
        <time>2021-08-03T10:16:04.236Z</time>
      </trkpt>
      <trkpt lat="47.01842" lon="8.88506">
        <ele>1339</ele>
        <time>2021-08-03T10:16:05.235Z</time>
      </trkpt>
      <trkpt lat="47.01842" lon="8.88505">
        <ele>1339</ele>
        <time>2021-08-03T10:16:06.235Z</time>
      </trkpt>
      <trkpt lat="47.01841" lon="8.88504">
        <ele>1340</ele>
        <time>2021-08-03T10:16:07.236Z</time>
      </trkpt>
      <trkpt lat="47.0184" lon="8.88504">
        <ele>1340</ele>
        <time>2021-08-03T10:16:08.236Z</time>
      </trkpt>
      <trkpt lat="47.01839" lon="8.88502">
        <ele>1341</ele>
        <time>2021-08-03T10:16:09.235Z</time>
      </trkpt>
      <trkpt lat="47.01838" lon="8.88502">
        <ele>1341</ele>
        <time>2021-08-03T10:16:10.235Z</time>
      </trkpt>
      <trkpt lat="47.01837" lon="8.88501">
        <ele>1342</ele>
        <time>2021-08-03T10:16:11.235Z</time>
      </trkpt>
      <trkpt lat="47.01836" lon="8.88502">
        <ele>1342</ele>
        <time>2021-08-03T10:16:12.236Z</time>
      </trkpt>
      <trkpt lat="47.01835" lon="8.88502">
        <ele>1342</ele>
        <time>2021-08-03T10:16:13.235Z</time>
      </trkpt>
      <trkpt lat="47.01834" lon="8.88502">
        <ele>1342</ele>
        <time>2021-08-03T10:16:14.235Z</time>
      </trkpt>
      <trkpt lat="47.01832" lon="8.88501">
        <ele>1342</ele>
        <time>2021-08-03T10:16:15.236Z</time>
      </trkpt>
      <trkpt lat="47.01831" lon="8.88501">
        <ele>1342</ele>
        <time>2021-08-03T10:16:16.236Z</time>
      </trkpt>
      <trkpt lat="47.01829" lon="8.88499">
        <ele>1344</ele>
        <time>2021-08-03T10:16:17.237Z</time>
      </trkpt>
      <trkpt lat="47.01828" lon="8.88498">
        <ele>1345</ele>
        <time>2021-08-03T10:16:18.237Z</time>
      </trkpt>
      <trkpt lat="47.01827" lon="8.88498">
        <ele>1345</ele>
        <time>2021-08-03T10:16:19.237Z</time>
      </trkpt>
      <trkpt lat="47.01827" lon="8.88496">
        <ele>1346</ele>
        <time>2021-08-03T10:16:20.237Z</time>
      </trkpt>
      <trkpt lat="47.01827" lon="8.88496">
        <ele>1346</ele>
        <time>2021-08-03T10:16:21.237Z</time>
      </trkpt>
      <trkpt lat="47.01827" lon="8.88495">
        <ele>1346</ele>
        <time>2021-08-03T10:16:22.236Z</time>
      </trkpt>
      <trkpt lat="47.01826" lon="8.88495">
        <ele>1347</ele>
        <time>2021-08-03T10:16:23.236Z</time>
      </trkpt>
      <trkpt lat="47.01826" lon="8.88495">
        <ele>1347</ele>
        <time>2021-08-03T10:16:24.237Z</time>
      </trkpt>
      <trkpt lat="47.01825" lon="8.88494">
        <ele>1347</ele>
        <time>2021-08-03T10:16:25.237Z</time>
      </trkpt>
      <trkpt lat="47.01825" lon="8.88493">
        <ele>1347</ele>
        <time>2021-08-03T10:16:26.237Z</time>
      </trkpt>
      <trkpt lat="47.01825" lon="8.88493">
        <ele>1347</ele>
        <time>2021-08-03T10:16:27.236Z</time>
      </trkpt>
      <trkpt lat="47.01825" lon="8.88492">
        <ele>1347</ele>
        <time>2021-08-03T10:16:28.237Z</time>
      </trkpt>
      <trkpt lat="47.01824" lon="8.88491">
        <ele>1346</ele>
        <time>2021-08-03T10:16:29.237Z</time>
      </trkpt>
      <trkpt lat="47.01824" lon="8.8849">
        <ele>1346</ele>
        <time>2021-08-03T10:16:30.237Z</time>
      </trkpt>
      <trkpt lat="47.01823" lon="8.8849">
        <ele>1346</ele>
        <time>2021-08-03T10:16:31.236Z</time>
      </trkpt>
      <trkpt lat="47.01823" lon="8.88489">
        <ele>1346</ele>
        <time>2021-08-03T10:16:32.237Z</time>
      </trkpt>
      <trkpt lat="47.01823" lon="8.88489">
        <ele>1346</ele>
        <time>2021-08-03T10:16:33.237Z</time>
      </trkpt>
      <trkpt lat="47.01822" lon="8.88488">
        <ele>1346</ele>
        <time>2021-08-03T10:16:34.237Z</time>
      </trkpt>
      <trkpt lat="47.01822" lon="8.88487">
        <ele>1346</ele>
        <time>2021-08-03T10:16:35.237Z</time>
      </trkpt>
      <trkpt lat="47.01821" lon="8.88485">
        <ele>1347</ele>
        <time>2021-08-03T10:16:36.237Z</time>
      </trkpt>
      <trkpt lat="47.0182" lon="8.88483">
        <ele>1347</ele>
        <time>2021-08-03T10:16:37.237Z</time>
      </trkpt>
      <trkpt lat="47.01819" lon="8.88481">
        <ele>1347</ele>
        <time>2021-08-03T10:16:38.237Z</time>
      </trkpt>
      <trkpt lat="47.01818" lon="8.8848">
        <ele>1347</ele>
        <time>2021-08-03T10:16:39.236Z</time>
      </trkpt>
      <trkpt lat="47.01817" lon="8.88478">
        <ele>1347</ele>
        <time>2021-08-03T10:16:40.236Z</time>
      </trkpt>
      <trkpt lat="47.01816" lon="8.88477">
        <ele>1347</ele>
        <time>2021-08-03T10:16:41.237Z</time>
      </trkpt>
      <trkpt lat="47.01815" lon="8.88475">
        <ele>1347</ele>
        <time>2021-08-03T10:16:42.237Z</time>
      </trkpt>
      <trkpt lat="47.01814" lon="8.88474">
        <ele>1348</ele>
        <time>2021-08-03T10:16:43.237Z</time>
      </trkpt>
      <trkpt lat="47.01813" lon="8.88473">
        <ele>1348</ele>
        <time>2021-08-03T10:16:44.237Z</time>
      </trkpt>
      <trkpt lat="47.01813" lon="8.88471">
        <ele>1348</ele>
        <time>2021-08-03T10:16:45.236Z</time>
      </trkpt>
      <trkpt lat="47.01812" lon="8.8847">
        <ele>1349</ele>
        <time>2021-08-03T10:16:46.237Z</time>
      </trkpt>
      <trkpt lat="47.01812" lon="8.88469">
        <ele>1349</ele>
        <time>2021-08-03T10:16:47.236Z</time>
      </trkpt>
      <trkpt lat="47.01811" lon="8.88469">
        <ele>1349</ele>
        <time>2021-08-03T10:16:48.237Z</time>
      </trkpt>
      <trkpt lat="47.0181" lon="8.88468">
        <ele>1349</ele>
        <time>2021-08-03T10:16:49.236Z</time>
      </trkpt>
      <trkpt lat="47.01809" lon="8.88468">
        <ele>1349</ele>
        <time>2021-08-03T10:16:50.237Z</time>
      </trkpt>
      <trkpt lat="47.01807" lon="8.88468">
        <ele>1350</ele>
        <time>2021-08-03T10:16:51.237Z</time>
      </trkpt>
      <trkpt lat="47.01806" lon="8.88468">
        <ele>1350</ele>
        <time>2021-08-03T10:16:52.236Z</time>
      </trkpt>
      <trkpt lat="47.01805" lon="8.88468">
        <ele>1350</ele>
        <time>2021-08-03T10:16:53.236Z</time>
      </trkpt>
      <trkpt lat="47.01804" lon="8.88469">
        <ele>1351</ele>
        <time>2021-08-03T10:16:54.236Z</time>
      </trkpt>
      <trkpt lat="47.01803" lon="8.88469">
        <ele>1351</ele>
        <time>2021-08-03T10:16:55.236Z</time>
      </trkpt>
      <trkpt lat="47.01802" lon="8.88469">
        <ele>1352</ele>
        <time>2021-08-03T10:16:56.236Z</time>
      </trkpt>
      <trkpt lat="47.018" lon="8.88469">
        <ele>1352</ele>
        <time>2021-08-03T10:16:57.236Z</time>
      </trkpt>
      <trkpt lat="47.01799" lon="8.88468">
        <ele>1353</ele>
        <time>2021-08-03T10:16:58.237Z</time>
      </trkpt>
      <trkpt lat="47.01798" lon="8.88468">
        <ele>1353</ele>
        <time>2021-08-03T10:16:59.236Z</time>
      </trkpt>
      <trkpt lat="47.01797" lon="8.88468">
        <ele>1354</ele>
        <time>2021-08-03T10:17:00.236Z</time>
      </trkpt>
      <trkpt lat="47.01796" lon="8.88467">
        <ele>1354</ele>
        <time>2021-08-03T10:17:01.236Z</time>
      </trkpt>
      <trkpt lat="47.01796" lon="8.88467">
        <ele>1355</ele>
        <time>2021-08-03T10:17:02.236Z</time>
      </trkpt>
      <trkpt lat="47.01793" lon="8.88465">
        <ele>1357</ele>
        <time>2021-08-03T10:17:03.238Z</time>
      </trkpt>
      <trkpt lat="47.01794" lon="8.88465">
        <ele>1357</ele>
        <time>2021-08-03T10:17:04.237Z</time>
      </trkpt>
      <trkpt lat="47.01794" lon="8.88464">
        <ele>1357</ele>
        <time>2021-08-03T10:17:05.238Z</time>
      </trkpt>
      <trkpt lat="47.01794" lon="8.88464">
        <ele>1357</ele>
        <time>2021-08-03T10:17:06.238Z</time>
      </trkpt>
      <trkpt lat="47.01793" lon="8.88463">
        <ele>1357</ele>
        <time>2021-08-03T10:17:07.238Z</time>
      </trkpt>
      <trkpt lat="47.01792" lon="8.88461">
        <ele>1357</ele>
        <time>2021-08-03T10:17:08.238Z</time>
      </trkpt>
      <trkpt lat="47.0179" lon="8.8846">
        <ele>1357</ele>
        <time>2021-08-03T10:17:09.238Z</time>
      </trkpt>
      <trkpt lat="47.01788" lon="8.88459">
        <ele>1356</ele>
        <time>2021-08-03T10:17:10.238Z</time>
      </trkpt>
      <trkpt lat="47.01785" lon="8.88458">
        <ele>1356</ele>
        <time>2021-08-03T10:17:11.237Z</time>
      </trkpt>
      <trkpt lat="47.01784" lon="8.88456">
        <ele>1354</ele>
        <time>2021-08-03T10:17:12.238Z</time>
      </trkpt>
      <trkpt lat="47.01784" lon="8.88454">
        <ele>1354</ele>
        <time>2021-08-03T10:17:13.237Z</time>
      </trkpt>
      <trkpt lat="47.01784" lon="8.88453">
        <ele>1354</ele>
        <time>2021-08-03T10:17:14.237Z</time>
      </trkpt>
      <trkpt lat="47.01783" lon="8.88453">
        <ele>1354</ele>
        <time>2021-08-03T10:17:15.237Z</time>
      </trkpt>
      <trkpt lat="47.01783" lon="8.88452">
        <ele>1354</ele>
        <time>2021-08-03T10:17:16.237Z</time>
      </trkpt>
      <trkpt lat="47.01782" lon="8.88451">
        <ele>1354</ele>
        <time>2021-08-03T10:17:17.238Z</time>
      </trkpt>
      <trkpt lat="47.01782" lon="8.88451">
        <ele>1354</ele>
        <time>2021-08-03T10:17:18.237Z</time>
      </trkpt>
      <trkpt lat="47.01781" lon="8.8845">
        <ele>1355</ele>
        <time>2021-08-03T10:17:19.237Z</time>
      </trkpt>
      <trkpt lat="47.01781" lon="8.8845">
        <ele>1356</ele>
        <time>2021-08-03T10:17:20.238Z</time>
      </trkpt>
      <trkpt lat="47.0178" lon="8.88449">
        <ele>1356</ele>
        <time>2021-08-03T10:17:21.238Z</time>
      </trkpt>
      <trkpt lat="47.01779" lon="8.88449">
        <ele>1357</ele>
        <time>2021-08-03T10:17:22.237Z</time>
      </trkpt>
      <trkpt lat="47.01777" lon="8.88448">
        <ele>1358</ele>
        <time>2021-08-03T10:17:23.238Z</time>
      </trkpt>
      <trkpt lat="47.01776" lon="8.88448">
        <ele>1359</ele>
        <time>2021-08-03T10:17:24.238Z</time>
      </trkpt>
      <trkpt lat="47.01775" lon="8.88448">
        <ele>1359</ele>
        <time>2021-08-03T10:17:25.237Z</time>
      </trkpt>
      <trkpt lat="47.01774" lon="8.88448">
        <ele>1360</ele>
        <time>2021-08-03T10:17:26.238Z</time>
      </trkpt>
      <trkpt lat="47.01774" lon="8.88447">
        <ele>1360</ele>
        <time>2021-08-03T10:17:27.238Z</time>
      </trkpt>
      <trkpt lat="47.01774" lon="8.88446">
        <ele>1361</ele>
        <time>2021-08-03T10:17:28.238Z</time>
      </trkpt>
      <trkpt lat="47.01773" lon="8.88445">
        <ele>1362</ele>
        <time>2021-08-03T10:17:29.237Z</time>
      </trkpt>
      <trkpt lat="47.01772" lon="8.88444">
        <ele>1362</ele>
        <time>2021-08-03T10:17:30.238Z</time>
      </trkpt>
      <trkpt lat="47.01771" lon="8.88443">
        <ele>1362</ele>
        <time>2021-08-03T10:17:31.237Z</time>
      </trkpt>
      <trkpt lat="47.0177" lon="8.88442">
        <ele>1363</ele>
        <time>2021-08-03T10:17:32.238Z</time>
      </trkpt>
      <trkpt lat="47.01769" lon="8.88441">
        <ele>1363</ele>
        <time>2021-08-03T10:17:33.238Z</time>
      </trkpt>
      <trkpt lat="47.01768" lon="8.88441">
        <ele>1364</ele>
        <time>2021-08-03T10:17:34.238Z</time>
      </trkpt>
      <trkpt lat="47.01768" lon="8.8844">
        <ele>1364</ele>
        <time>2021-08-03T10:17:35.238Z</time>
      </trkpt>
      <trkpt lat="47.01767" lon="8.88439">
        <ele>1364</ele>
        <time>2021-08-03T10:17:36.237Z</time>
      </trkpt>
      <trkpt lat="47.01766" lon="8.88439">
        <ele>1365</ele>
        <time>2021-08-03T10:17:37.238Z</time>
      </trkpt>
      <trkpt lat="47.01766" lon="8.88438">
        <ele>1365</ele>
        <time>2021-08-03T10:17:38.238Z</time>
      </trkpt>
      <trkpt lat="47.01765" lon="8.88438">
        <ele>1365</ele>
        <time>2021-08-03T10:17:39.238Z</time>
      </trkpt>
      <trkpt lat="47.01765" lon="8.88437">
        <ele>1365</ele>
        <time>2021-08-03T10:17:40.237Z</time>
      </trkpt>
      <trkpt lat="47.01765" lon="8.88437">
        <ele>1365</ele>
        <time>2021-08-03T10:17:41.237Z</time>
      </trkpt>
      <trkpt lat="47.01764" lon="8.88436">
        <ele>1365</ele>
        <time>2021-08-03T10:17:42.237Z</time>
      </trkpt>
      <trkpt lat="47.01764" lon="8.88435">
        <ele>1364</ele>
        <time>2021-08-03T10:17:43.238Z</time>
      </trkpt>
      <trkpt lat="47.01761" lon="8.88433">
        <ele>1363</ele>
        <time>2021-08-03T10:17:44.240Z</time>
      </trkpt>
      <trkpt lat="47.0176" lon="8.88432">
        <ele>1363</ele>
        <time>2021-08-03T10:17:45.240Z</time>
      </trkpt>
      <trkpt lat="47.01759" lon="8.88431">
        <ele>1362</ele>
        <time>2021-08-03T10:17:46.239Z</time>
      </trkpt>
      <trkpt lat="47.01758" lon="8.88432">
        <ele>1362</ele>
        <time>2021-08-03T10:17:47.239Z</time>
      </trkpt>
      <trkpt lat="47.01757" lon="8.88432">
        <ele>1362</ele>
        <time>2021-08-03T10:17:48.240Z</time>
      </trkpt>
      <trkpt lat="47.01756" lon="8.88433">
        <ele>1361</ele>
        <time>2021-08-03T10:17:49.240Z</time>
      </trkpt>
      <trkpt lat="47.01755" lon="8.88433">
        <ele>1361</ele>
        <time>2021-08-03T10:17:50.239Z</time>
      </trkpt>
      <trkpt lat="47.01754" lon="8.88432">
        <ele>1361</ele>
        <time>2021-08-03T10:17:51.240Z</time>
      </trkpt>
      <trkpt lat="47.01755" lon="8.88432">
        <ele>1361</ele>
        <time>2021-08-03T10:17:52.239Z</time>
      </trkpt>
      <trkpt lat="47.01753" lon="8.88431">
        <ele>1360</ele>
        <time>2021-08-03T10:17:53.240Z</time>
      </trkpt>
      <trkpt lat="47.01753" lon="8.88431">
        <ele>1359</ele>
        <time>2021-08-03T10:17:54.241Z</time>
      </trkpt>
      <trkpt lat="47.01752" lon="8.88431">
        <ele>1359</ele>
        <time>2021-08-03T10:17:55.240Z</time>
      </trkpt>
      <trkpt lat="47.01751" lon="8.8843">
        <ele>1359</ele>
        <time>2021-08-03T10:17:56.240Z</time>
      </trkpt>
      <trkpt lat="47.01751" lon="8.8843">
        <ele>1358</ele>
        <time>2021-08-03T10:17:57.241Z</time>
      </trkpt>
      <trkpt lat="47.01751" lon="8.88429">
        <ele>1358</ele>
        <time>2021-08-03T10:17:58.241Z</time>
      </trkpt>
      <trkpt lat="47.0175" lon="8.88429">
        <ele>1358</ele>
        <time>2021-08-03T10:17:59.240Z</time>
      </trkpt>
      <trkpt lat="47.0175" lon="8.8843">
        <ele>1357</ele>
        <time>2021-08-03T10:18:00.241Z</time>
      </trkpt>
      <trkpt lat="47.01749" lon="8.8843">
        <ele>1357</ele>
        <time>2021-08-03T10:18:01.240Z</time>
      </trkpt>
      <trkpt lat="47.01749" lon="8.88429">
        <ele>1358</ele>
        <time>2021-08-03T10:18:02.240Z</time>
      </trkpt>
      <trkpt lat="47.0175" lon="8.88428">
        <ele>1358</ele>
        <time>2021-08-03T10:18:03.241Z</time>
      </trkpt>
      <trkpt lat="47.0175" lon="8.88427">
        <ele>1358</ele>
        <time>2021-08-03T10:18:04.241Z</time>
      </trkpt>
      <trkpt lat="47.01749" lon="8.88426">
        <ele>1358</ele>
        <time>2021-08-03T10:18:05.241Z</time>
      </trkpt>
      <trkpt lat="47.01749" lon="8.88425">
        <ele>1358</ele>
        <time>2021-08-03T10:18:06.241Z</time>
      </trkpt>
      <trkpt lat="47.01749" lon="8.88425">
        <ele>1358</ele>
        <time>2021-08-03T10:18:07.241Z</time>
      </trkpt>
      <trkpt lat="47.01749" lon="8.88424">
        <ele>1358</ele>
        <time>2021-08-03T10:18:08.241Z</time>
      </trkpt>
      <trkpt lat="47.0175" lon="8.88424">
        <ele>1359</ele>
        <time>2021-08-03T10:18:09.240Z</time>
      </trkpt>
      <trkpt lat="47.01749" lon="8.88423">
        <ele>1359</ele>
        <time>2021-08-03T10:18:10.240Z</time>
      </trkpt>
      <trkpt lat="47.01747" lon="8.88423">
        <ele>1358</ele>
        <time>2021-08-03T10:18:11.240Z</time>
      </trkpt>
      <trkpt lat="47.01746" lon="8.88423">
        <ele>1358</ele>
        <time>2021-08-03T10:18:12.240Z</time>
      </trkpt>
      <trkpt lat="47.01744" lon="8.88423">
        <ele>1358</ele>
        <time>2021-08-03T10:18:13.241Z</time>
      </trkpt>
      <trkpt lat="47.01744" lon="8.88423">
        <ele>1358</ele>
        <time>2021-08-03T10:18:14.240Z</time>
      </trkpt>
      <trkpt lat="47.01743" lon="8.88424">
        <ele>1358</ele>
        <time>2021-08-03T10:18:15.240Z</time>
      </trkpt>
      <trkpt lat="47.01741" lon="8.88424">
        <ele>1359</ele>
        <time>2021-08-03T10:18:16.242Z</time>
      </trkpt>
      <trkpt lat="47.0174" lon="8.88424">
        <ele>1359</ele>
        <time>2021-08-03T10:18:17.242Z</time>
      </trkpt>
      <trkpt lat="47.01738" lon="8.88424">
        <ele>1360</ele>
        <time>2021-08-03T10:18:18.241Z</time>
      </trkpt>
      <trkpt lat="47.01737" lon="8.88423">
        <ele>1360</ele>
        <time>2021-08-03T10:18:19.241Z</time>
      </trkpt>
      <trkpt lat="47.01735" lon="8.88423">
        <ele>1360</ele>
        <time>2021-08-03T10:18:20.241Z</time>
      </trkpt>
      <trkpt lat="47.01734" lon="8.88424">
        <ele>1360</ele>
        <time>2021-08-03T10:18:21.242Z</time>
      </trkpt>
      <trkpt lat="47.0173" lon="8.88429">
        <ele>1356</ele>
        <time>2021-08-03T10:18:22.242Z</time>
      </trkpt>
      <trkpt lat="47.0173" lon="8.88428">
        <ele>1356</ele>
        <time>2021-08-03T10:18:23.242Z</time>
      </trkpt>
      <trkpt lat="47.01731" lon="8.88427">
        <ele>1356</ele>
        <time>2021-08-03T10:18:24.242Z</time>
      </trkpt>
      <trkpt lat="47.01731" lon="8.88428">
        <ele>1356</ele>
        <time>2021-08-03T10:18:25.241Z</time>
      </trkpt>
      <trkpt lat="47.01731" lon="8.88428">
        <ele>1356</ele>
        <time>2021-08-03T10:18:26.241Z</time>
      </trkpt>
      <trkpt lat="47.0173" lon="8.88429">
        <ele>1356</ele>
        <time>2021-08-03T10:18:27.242Z</time>
      </trkpt>
      <trkpt lat="47.01729" lon="8.88429">
        <ele>1356</ele>
        <time>2021-08-03T10:18:28.241Z</time>
      </trkpt>
      <trkpt lat="47.01726" lon="8.8843">
        <ele>1356</ele>
        <time>2021-08-03T10:18:29.242Z</time>
      </trkpt>
      <trkpt lat="47.01724" lon="8.88432">
        <ele>1356</ele>
        <time>2021-08-03T10:18:30.242Z</time>
      </trkpt>
      <trkpt lat="47.01722" lon="8.88433">
        <ele>1356</ele>
        <time>2021-08-03T10:18:31.241Z</time>
      </trkpt>
      <trkpt lat="47.01721" lon="8.88434">
        <ele>1357</ele>
        <time>2021-08-03T10:18:32.242Z</time>
      </trkpt>
      <trkpt lat="47.0172" lon="8.88433">
        <ele>1357</ele>
        <time>2021-08-03T10:18:33.242Z</time>
      </trkpt>
      <trkpt lat="47.01719" lon="8.88432">
        <ele>1357</ele>
        <time>2021-08-03T10:18:34.242Z</time>
      </trkpt>
      <trkpt lat="47.01718" lon="8.88431">
        <ele>1357</ele>
        <time>2021-08-03T10:18:35.241Z</time>
      </trkpt>
      <trkpt lat="47.01717" lon="8.88428">
        <ele>1357</ele>
        <time>2021-08-03T10:18:36.241Z</time>
      </trkpt>
      <trkpt lat="47.01716" lon="8.88426">
        <ele>1358</ele>
        <time>2021-08-03T10:18:37.241Z</time>
      </trkpt>
      <trkpt lat="47.01715" lon="8.88424">
        <ele>1358</ele>
        <time>2021-08-03T10:18:38.241Z</time>
      </trkpt>
      <trkpt lat="47.01714" lon="8.8842">
        <ele>1358</ele>
        <time>2021-08-03T10:18:39.242Z</time>
      </trkpt>
      <trkpt lat="47.01714" lon="8.88418">
        <ele>1358</ele>
        <time>2021-08-03T10:18:40.242Z</time>
      </trkpt>
      <trkpt lat="47.01713" lon="8.88416">
        <ele>1359</ele>
        <time>2021-08-03T10:18:41.242Z</time>
      </trkpt>
      <trkpt lat="47.01712" lon="8.88414">
        <ele>1359</ele>
        <time>2021-08-03T10:18:42.242Z</time>
      </trkpt>
      <trkpt lat="47.01711" lon="8.88413">
        <ele>1359</ele>
        <time>2021-08-03T10:18:43.241Z</time>
      </trkpt>
      <trkpt lat="47.0171" lon="8.88413">
        <ele>1359</ele>
        <time>2021-08-03T10:18:44.241Z</time>
      </trkpt>
      <trkpt lat="47.0171" lon="8.88414">
        <ele>1359</ele>
        <time>2021-08-03T10:18:45.241Z</time>
      </trkpt>
      <trkpt lat="47.01711" lon="8.88414">
        <ele>1359</ele>
        <time>2021-08-03T10:18:46.242Z</time>
      </trkpt>
      <trkpt lat="47.01711" lon="8.88416">
        <ele>1359</ele>
        <time>2021-08-03T10:18:47.241Z</time>
      </trkpt>
      <trkpt lat="47.01711" lon="8.88415">
        <ele>1359</ele>
        <time>2021-08-03T10:18:48.241Z</time>
      </trkpt>
      <trkpt lat="47.01711" lon="8.88414">
        <ele>1358</ele>
        <time>2021-08-03T10:18:49.242Z</time>
      </trkpt>
      <trkpt lat="47.0171" lon="8.88413">
        <ele>1358</ele>
        <time>2021-08-03T10:18:50.241Z</time>
      </trkpt>
      <trkpt lat="47.0171" lon="8.88411">
        <ele>1357</ele>
        <time>2021-08-03T10:18:51.242Z</time>
      </trkpt>
      <trkpt lat="47.01709" lon="8.88408">
        <ele>1357</ele>
        <time>2021-08-03T10:18:52.242Z</time>
      </trkpt>
      <trkpt lat="47.01709" lon="8.88407">
        <ele>1356</ele>
        <time>2021-08-03T10:18:53.242Z</time>
      </trkpt>
      <trkpt lat="47.01708" lon="8.88405">
        <ele>1356</ele>
        <time>2021-08-03T10:18:54.242Z</time>
      </trkpt>
      <trkpt lat="47.01709" lon="8.88404">
        <ele>1355</ele>
        <time>2021-08-03T10:18:55.242Z</time>
      </trkpt>
      <trkpt lat="47.01709" lon="8.88403">
        <ele>1355</ele>
        <time>2021-08-03T10:18:56.241Z</time>
      </trkpt>
      <trkpt lat="47.01709" lon="8.88403">
        <ele>1354</ele>
        <time>2021-08-03T10:18:57.241Z</time>
      </trkpt>
      <trkpt lat="47.01708" lon="8.88402">
        <ele>1354</ele>
        <time>2021-08-03T10:18:58.242Z</time>
      </trkpt>
      <trkpt lat="47.01706" lon="8.88403">
        <ele>1354</ele>
        <time>2021-08-03T10:18:59.241Z</time>
      </trkpt>
      <trkpt lat="47.01704" lon="8.88404">
        <ele>1353</ele>
        <time>2021-08-03T10:19:00.242Z</time>
      </trkpt>
      <trkpt lat="47.01702" lon="8.88404">
        <ele>1353</ele>
        <time>2021-08-03T10:19:01.242Z</time>
      </trkpt>
      <trkpt lat="47.01701" lon="8.88404">
        <ele>1353</ele>
        <time>2021-08-03T10:19:02.242Z</time>
      </trkpt>
      <trkpt lat="47.017" lon="8.88402">
        <ele>1353</ele>
        <time>2021-08-03T10:19:03.241Z</time>
      </trkpt>
      <trkpt lat="47.01698" lon="8.884">
        <ele>1353</ele>
        <time>2021-08-03T10:19:04.241Z</time>
      </trkpt>
      <trkpt lat="47.01697" lon="8.88399">
        <ele>1353</ele>
        <time>2021-08-03T10:19:05.242Z</time>
      </trkpt>
      <trkpt lat="47.01696" lon="8.88398">
        <ele>1353</ele>
        <time>2021-08-03T10:19:06.242Z</time>
      </trkpt>
      <trkpt lat="47.01695" lon="8.88397">
        <ele>1353</ele>
        <time>2021-08-03T10:19:07.242Z</time>
      </trkpt>
      <trkpt lat="47.01694" lon="8.88397">
        <ele>1353</ele>
        <time>2021-08-03T10:19:08.242Z</time>
      </trkpt>
      <trkpt lat="47.01694" lon="8.88397">
        <ele>1353</ele>
        <time>2021-08-03T10:19:09.242Z</time>
      </trkpt>
      <trkpt lat="47.01694" lon="8.88397">
        <ele>1353</ele>
        <time>2021-08-03T10:19:10.242Z</time>
      </trkpt>
      <trkpt lat="47.01695" lon="8.88397">
        <ele>1353</ele>
        <time>2021-08-03T10:19:11.241Z</time>
      </trkpt>
      <trkpt lat="47.01695" lon="8.88395">
        <ele>1353</ele>
        <time>2021-08-03T10:19:12.242Z</time>
      </trkpt>
      <trkpt lat="47.01696" lon="8.88395">
        <ele>1353</ele>
        <time>2021-08-03T10:19:13.242Z</time>
      </trkpt>
      <trkpt lat="47.01695" lon="8.88394">
        <ele>1353</ele>
        <time>2021-08-03T10:19:14.242Z</time>
      </trkpt>
      <trkpt lat="47.01694" lon="8.88394">
        <ele>1353</ele>
        <time>2021-08-03T10:19:15.242Z</time>
      </trkpt>
      <trkpt lat="47.01693" lon="8.88394">
        <ele>1353</ele>
        <time>2021-08-03T10:19:16.242Z</time>
      </trkpt>
      <trkpt lat="47.01692" lon="8.88393">
        <ele>1354</ele>
        <time>2021-08-03T10:19:17.242Z</time>
      </trkpt>
      <trkpt lat="47.01693" lon="8.88392">
        <ele>1354</ele>
        <time>2021-08-03T10:19:18.241Z</time>
      </trkpt>
      <trkpt lat="47.01694" lon="8.88391">
        <ele>1354</ele>
        <time>2021-08-03T10:19:19.242Z</time>
      </trkpt>
      <trkpt lat="47.01694" lon="8.88391">
        <ele>1354</ele>
        <time>2021-08-03T10:19:20.242Z</time>
      </trkpt>
      <trkpt lat="47.01694" lon="8.8839">
        <ele>1355</ele>
        <time>2021-08-03T10:19:21.242Z</time>
      </trkpt>
      <trkpt lat="47.01695" lon="8.88388">
        <ele>1355</ele>
        <time>2021-08-03T10:19:22.242Z</time>
      </trkpt>
      <trkpt lat="47.01694" lon="8.88387">
        <ele>1355</ele>
        <time>2021-08-03T10:19:23.242Z</time>
      </trkpt>
      <trkpt lat="47.01693" lon="8.88385">
        <ele>1356</ele>
        <time>2021-08-03T10:19:24.242Z</time>
      </trkpt>
      <trkpt lat="47.01692" lon="8.88384">
        <ele>1356</ele>
        <time>2021-08-03T10:19:25.241Z</time>
      </trkpt>
      <trkpt lat="47.0169" lon="8.88383">
        <ele>1356</ele>
        <time>2021-08-03T10:19:26.242Z</time>
      </trkpt>
      <trkpt lat="47.01689" lon="8.88382">
        <ele>1356</ele>
        <time>2021-08-03T10:19:27.241Z</time>
      </trkpt>
      <trkpt lat="47.01688" lon="8.8838">
        <ele>1356</ele>
        <time>2021-08-03T10:19:28.242Z</time>
      </trkpt>
      <trkpt lat="47.01687" lon="8.88379">
        <ele>1355</ele>
        <time>2021-08-03T10:19:29.241Z</time>
      </trkpt>
      <trkpt lat="47.01686" lon="8.88378">
        <ele>1355</ele>
        <time>2021-08-03T10:19:30.241Z</time>
      </trkpt>
      <trkpt lat="47.01685" lon="8.88377">
        <ele>1355</ele>
        <time>2021-08-03T10:19:31.242Z</time>
      </trkpt>
      <trkpt lat="47.01684" lon="8.88377">
        <ele>1355</ele>
        <time>2021-08-03T10:19:32.242Z</time>
      </trkpt>
      <trkpt lat="47.01684" lon="8.88377">
        <ele>1355</ele>
        <time>2021-08-03T10:19:33.242Z</time>
      </trkpt>
      <trkpt lat="47.01684" lon="8.88378">
        <ele>1354</ele>
        <time>2021-08-03T10:19:34.242Z</time>
      </trkpt>
      <trkpt lat="47.01684" lon="8.88378">
        <ele>1354</ele>
        <time>2021-08-03T10:19:35.242Z</time>
      </trkpt>
      <trkpt lat="47.01683" lon="8.88379">
        <ele>1354</ele>
        <time>2021-08-03T10:19:36.241Z</time>
      </trkpt>
      <trkpt lat="47.01682" lon="8.88378">
        <ele>1353</ele>
        <time>2021-08-03T10:19:37.241Z</time>
      </trkpt>
      <trkpt lat="47.01678" lon="8.88376">
        <ele>1352</ele>
        <time>2021-08-03T10:19:38.242Z</time>
      </trkpt>
      <trkpt lat="47.01677" lon="8.88375">
        <ele>1352</ele>
        <time>2021-08-03T10:19:39.242Z</time>
      </trkpt>
      <trkpt lat="47.01676" lon="8.88373">
        <ele>1351</ele>
        <time>2021-08-03T10:19:40.241Z</time>
      </trkpt>
      <trkpt lat="47.01675" lon="8.88371">
        <ele>1351</ele>
        <time>2021-08-03T10:19:41.242Z</time>
      </trkpt>
      <trkpt lat="47.01675" lon="8.88369">
        <ele>1350</ele>
        <time>2021-08-03T10:19:42.241Z</time>
      </trkpt>
      <trkpt lat="47.01674" lon="8.88367">
        <ele>1350</ele>
        <time>2021-08-03T10:19:43.242Z</time>
      </trkpt>
      <trkpt lat="47.01674" lon="8.88366">
        <ele>1349</ele>
        <time>2021-08-03T10:19:44.241Z</time>
      </trkpt>
      <trkpt lat="47.01674" lon="8.88366">
        <ele>1349</ele>
        <time>2021-08-03T10:19:45.242Z</time>
      </trkpt>
      <trkpt lat="47.01674" lon="8.88366">
        <ele>1348</ele>
        <time>2021-08-03T10:19:46.242Z</time>
      </trkpt>
      <trkpt lat="47.01674" lon="8.88367">
        <ele>1347</ele>
        <time>2021-08-03T10:19:47.242Z</time>
      </trkpt>
      <trkpt lat="47.01673" lon="8.88367">
        <ele>1347</ele>
        <time>2021-08-03T10:19:48.242Z</time>
      </trkpt>
      <trkpt lat="47.01672" lon="8.88368">
        <ele>1346</ele>
        <time>2021-08-03T10:19:49.242Z</time>
      </trkpt>
      <trkpt lat="47.01673" lon="8.88368">
        <ele>1346</ele>
        <time>2021-08-03T10:19:50.242Z</time>
      </trkpt>
      <trkpt lat="47.01674" lon="8.88367">
        <ele>1346</ele>
        <time>2021-08-03T10:19:51.242Z</time>
      </trkpt>
      <trkpt lat="47.01675" lon="8.88366">
        <ele>1345</ele>
        <time>2021-08-03T10:19:52.241Z</time>
      </trkpt>
      <trkpt lat="47.01676" lon="8.88364">
        <ele>1345</ele>
        <time>2021-08-03T10:19:53.241Z</time>
      </trkpt>
      <trkpt lat="47.01676" lon="8.88363">
        <ele>1345</ele>
        <time>2021-08-03T10:19:54.241Z</time>
      </trkpt>
      <trkpt lat="47.01675" lon="8.88363">
        <ele>1344</ele>
        <time>2021-08-03T10:19:55.241Z</time>
      </trkpt>
      <trkpt lat="47.01675" lon="8.88363">
        <ele>1344</ele>
        <time>2021-08-03T10:19:56.242Z</time>
      </trkpt>
      <trkpt lat="47.01674" lon="8.88362">
        <ele>1344</ele>
        <time>2021-08-03T10:19:57.242Z</time>
      </trkpt>
      <trkpt lat="47.01673" lon="8.88361">
        <ele>1344</ele>
        <time>2021-08-03T10:19:58.241Z</time>
      </trkpt>
      <trkpt lat="47.01669" lon="8.88359">
        <ele>1343</ele>
        <time>2021-08-03T10:19:59.242Z</time>
      </trkpt>
      <trkpt lat="47.01666" lon="8.88357">
        <ele>1343</ele>
        <time>2021-08-03T10:20:00.242Z</time>
      </trkpt>
      <trkpt lat="47.01663" lon="8.88355">
        <ele>1343</ele>
        <time>2021-08-03T10:20:01.242Z</time>
      </trkpt>
      <trkpt lat="47.01661" lon="8.88354">
        <ele>1343</ele>
        <time>2021-08-03T10:20:02.242Z</time>
      </trkpt>
      <trkpt lat="47.01659" lon="8.88353">
        <ele>1342</ele>
        <time>2021-08-03T10:20:03.241Z</time>
      </trkpt>
      <trkpt lat="47.01658" lon="8.88351">
        <ele>1342</ele>
        <time>2021-08-03T10:20:04.241Z</time>
      </trkpt>
      <trkpt lat="47.01656" lon="8.8835">
        <ele>1342</ele>
        <time>2021-08-03T10:20:05.242Z</time>
      </trkpt>
      <trkpt lat="47.01654" lon="8.88349">
        <ele>1342</ele>
        <time>2021-08-03T10:20:06.242Z</time>
      </trkpt>
      <trkpt lat="47.01652" lon="8.88348">
        <ele>1342</ele>
        <time>2021-08-03T10:20:07.242Z</time>
      </trkpt>
      <trkpt lat="47.01651" lon="8.88347">
        <ele>1343</ele>
        <time>2021-08-03T10:20:08.241Z</time>
      </trkpt>
      <trkpt lat="47.0165" lon="8.88346">
        <ele>1343</ele>
        <time>2021-08-03T10:20:09.242Z</time>
      </trkpt>
      <trkpt lat="47.0165" lon="8.88346">
        <ele>1343</ele>
        <time>2021-08-03T10:20:10.242Z</time>
      </trkpt>
      <trkpt lat="47.01649" lon="8.88345">
        <ele>1344</ele>
        <time>2021-08-03T10:20:11.242Z</time>
      </trkpt>
      <trkpt lat="47.01648" lon="8.88344">
        <ele>1344</ele>
        <time>2021-08-03T10:20:12.241Z</time>
      </trkpt>
      <trkpt lat="47.01642" lon="8.88341">
        <ele>1347</ele>
        <time>2021-08-03T10:20:13.241Z</time>
      </trkpt>
      <trkpt lat="47.01643" lon="8.88342">
        <ele>1347</ele>
        <time>2021-08-03T10:20:14.242Z</time>
      </trkpt>
      <trkpt lat="47.01643" lon="8.88343">
        <ele>1348</ele>
        <time>2021-08-03T10:20:15.241Z</time>
      </trkpt>
      <trkpt lat="47.01644" lon="8.88344">
        <ele>1349</ele>
        <time>2021-08-03T10:20:16.242Z</time>
      </trkpt>
      <trkpt lat="47.01643" lon="8.88344">
        <ele>1349</ele>
        <time>2021-08-03T10:20:17.242Z</time>
      </trkpt>
      <trkpt lat="47.01642" lon="8.88344">
        <ele>1349</ele>
        <time>2021-08-03T10:20:18.241Z</time>
      </trkpt>
      <trkpt lat="47.01642" lon="8.88344">
        <ele>1350</ele>
        <time>2021-08-03T10:20:19.242Z</time>
      </trkpt>
      <trkpt lat="47.01642" lon="8.88344">
        <ele>1350</ele>
        <time>2021-08-03T10:20:20.242Z</time>
      </trkpt>
      <trkpt lat="47.01642" lon="8.88344">
        <ele>1350</ele>
        <time>2021-08-03T10:20:21.242Z</time>
      </trkpt>
      <trkpt lat="47.01641" lon="8.88345">
        <ele>1350</ele>
        <time>2021-08-03T10:20:22.242Z</time>
      </trkpt>
      <trkpt lat="47.0164" lon="8.88344">
        <ele>1350</ele>
        <time>2021-08-03T10:20:23.241Z</time>
      </trkpt>
      <trkpt lat="47.0164" lon="8.88343">
        <ele>1350</ele>
        <time>2021-08-03T10:20:24.242Z</time>
      </trkpt>
      <trkpt lat="47.01641" lon="8.88343">
        <ele>1350</ele>
        <time>2021-08-03T10:20:25.242Z</time>
      </trkpt>
      <trkpt lat="47.01641" lon="8.88342">
        <ele>1350</ele>
        <time>2021-08-03T10:20:26.242Z</time>
      </trkpt>
      <trkpt lat="47.01641" lon="8.88342">
        <ele>1349</ele>
        <time>2021-08-03T10:20:27.241Z</time>
      </trkpt>
      <trkpt lat="47.0164" lon="8.88341">
        <ele>1349</ele>
        <time>2021-08-03T10:20:28.241Z</time>
      </trkpt>
      <trkpt lat="47.0164" lon="8.8834">
        <ele>1348</ele>
        <time>2021-08-03T10:20:29.242Z</time>
      </trkpt>
      <trkpt lat="47.0164" lon="8.88339">
        <ele>1347</ele>
        <time>2021-08-03T10:20:30.242Z</time>
      </trkpt>
      <trkpt lat="47.0164" lon="8.88339">
        <ele>1346</ele>
        <time>2021-08-03T10:20:31.242Z</time>
      </trkpt>
      <trkpt lat="47.0164" lon="8.88338">
        <ele>1346</ele>
        <time>2021-08-03T10:20:32.242Z</time>
      </trkpt>
      <trkpt lat="47.0164" lon="8.88337">
        <ele>1345</ele>
        <time>2021-08-03T10:20:33.242Z</time>
      </trkpt>
      <trkpt lat="47.01639" lon="8.88336">
        <ele>1345</ele>
        <time>2021-08-03T10:20:34.242Z</time>
      </trkpt>
      <trkpt lat="47.01639" lon="8.88335">
        <ele>1345</ele>
        <time>2021-08-03T10:20:35.242Z</time>
      </trkpt>
      <trkpt lat="47.01638" lon="8.88335">
        <ele>1344</ele>
        <time>2021-08-03T10:20:36.241Z</time>
      </trkpt>
      <trkpt lat="47.01637" lon="8.88335">
        <ele>1344</ele>
        <time>2021-08-03T10:20:37.242Z</time>
      </trkpt>
      <trkpt lat="47.01636" lon="8.88336">
        <ele>1344</ele>
        <time>2021-08-03T10:20:38.241Z</time>
      </trkpt>
      <trkpt lat="47.01635" lon="8.88336">
        <ele>1343</ele>
        <time>2021-08-03T10:20:39.242Z</time>
      </trkpt>
      <trkpt lat="47.01634" lon="8.88336">
        <ele>1343</ele>
        <time>2021-08-03T10:20:40.242Z</time>
      </trkpt>
      <trkpt lat="47.01634" lon="8.88335">
        <ele>1342</ele>
        <time>2021-08-03T10:20:41.241Z</time>
      </trkpt>
      <trkpt lat="47.01632" lon="8.88336">
        <ele>1342</ele>
        <time>2021-08-03T10:20:42.242Z</time>
      </trkpt>
      <trkpt lat="47.01632" lon="8.88336">
        <ele>1342</ele>
        <time>2021-08-03T10:20:43.241Z</time>
      </trkpt>
      <trkpt lat="47.01632" lon="8.88335">
        <ele>1342</ele>
        <time>2021-08-03T10:20:44.242Z</time>
      </trkpt>
      <trkpt lat="47.01631" lon="8.88334">
        <ele>1341</ele>
        <time>2021-08-03T10:20:45.241Z</time>
      </trkpt>
      <trkpt lat="47.0163" lon="8.88335">
        <ele>1341</ele>
        <time>2021-08-03T10:20:46.242Z</time>
      </trkpt>
      <trkpt lat="47.0163" lon="8.88335">
        <ele>1341</ele>
        <time>2021-08-03T10:20:47.242Z</time>
      </trkpt>
      <trkpt lat="47.01628" lon="8.88336">
        <ele>1341</ele>
        <time>2021-08-03T10:20:48.242Z</time>
      </trkpt>
      <trkpt lat="47.01627" lon="8.88337">
        <ele>1340</ele>
        <time>2021-08-03T10:20:49.242Z</time>
      </trkpt>
      <trkpt lat="47.01627" lon="8.88338">
        <ele>1340</ele>
        <time>2021-08-03T10:20:50.242Z</time>
      </trkpt>
      <trkpt lat="47.01626" lon="8.88339">
        <ele>1339</ele>
        <time>2021-08-03T10:20:51.242Z</time>
      </trkpt>
      <trkpt lat="47.01625" lon="8.88339">
        <ele>1339</ele>
        <time>2021-08-03T10:20:52.242Z</time>
      </trkpt>
      <trkpt lat="47.01624" lon="8.88339">
        <ele>1338</ele>
        <time>2021-08-03T10:20:53.241Z</time>
      </trkpt>
      <trkpt lat="47.01624" lon="8.88339">
        <ele>1338</ele>
        <time>2021-08-03T10:20:54.242Z</time>
      </trkpt>
      <trkpt lat="47.01623" lon="8.88338">
        <ele>1338</ele>
        <time>2021-08-03T10:20:55.242Z</time>
      </trkpt>
      <trkpt lat="47.01621" lon="8.88337">
        <ele>1338</ele>
        <time>2021-08-03T10:20:56.241Z</time>
      </trkpt>
      <trkpt lat="47.01619" lon="8.88336">
        <ele>1338</ele>
        <time>2021-08-03T10:20:57.242Z</time>
      </trkpt>
      <trkpt lat="47.01617" lon="8.88335">
        <ele>1337</ele>
        <time>2021-08-03T10:20:58.242Z</time>
      </trkpt>
      <trkpt lat="47.01617" lon="8.88335">
        <ele>1337</ele>
        <time>2021-08-03T10:20:59.241Z</time>
      </trkpt>
      <trkpt lat="47.01617" lon="8.88335">
        <ele>1337</ele>
        <time>2021-08-03T10:21:00.242Z</time>
      </trkpt>
      <trkpt lat="47.01616" lon="8.88335">
        <ele>1337</ele>
        <time>2021-08-03T10:21:01.242Z</time>
      </trkpt>
      <trkpt lat="47.01616" lon="8.88334">
        <ele>1337</ele>
        <time>2021-08-03T10:21:02.242Z</time>
      </trkpt>
      <trkpt lat="47.01617" lon="8.88333">
        <ele>1337</ele>
        <time>2021-08-03T10:21:03.241Z</time>
      </trkpt>
      <trkpt lat="47.01617" lon="8.88332">
        <ele>1337</ele>
        <time>2021-08-03T10:21:04.241Z</time>
      </trkpt>
      <trkpt lat="47.01617" lon="8.88331">
        <ele>1337</ele>
        <time>2021-08-03T10:21:05.241Z</time>
      </trkpt>
      <trkpt lat="47.01616" lon="8.88331">
        <ele>1337</ele>
        <time>2021-08-03T10:21:06.242Z</time>
      </trkpt>
      <trkpt lat="47.01616" lon="8.88331">
        <ele>1336</ele>
        <time>2021-08-03T10:21:07.242Z</time>
      </trkpt>
      <trkpt lat="47.01616" lon="8.8833">
        <ele>1336</ele>
        <time>2021-08-03T10:21:08.242Z</time>
      </trkpt>
      <trkpt lat="47.01617" lon="8.88329">
        <ele>1335</ele>
        <time>2021-08-03T10:21:09.242Z</time>
      </trkpt>
      <trkpt lat="47.01618" lon="8.88329">
        <ele>1335</ele>
        <time>2021-08-03T10:21:10.242Z</time>
      </trkpt>
      <trkpt lat="47.0162" lon="8.88328">
        <ele>1334</ele>
        <time>2021-08-03T10:21:11.242Z</time>
      </trkpt>
      <trkpt lat="47.0162" lon="8.88327">
        <ele>1334</ele>
        <time>2021-08-03T10:21:12.242Z</time>
      </trkpt>
      <trkpt lat="47.01622" lon="8.88326">
        <ele>1334</ele>
        <time>2021-08-03T10:21:13.242Z</time>
      </trkpt>
      <trkpt lat="47.01623" lon="8.88325">
        <ele>1333</ele>
        <time>2021-08-03T10:21:14.241Z</time>
      </trkpt>
      <trkpt lat="47.01623" lon="8.88325">
        <ele>1333</ele>
        <time>2021-08-03T10:21:15.241Z</time>
      </trkpt>
      <trkpt lat="47.01622" lon="8.88325">
        <ele>1333</ele>
        <time>2021-08-03T10:21:16.242Z</time>
      </trkpt>
      <trkpt lat="47.01622" lon="8.88324">
        <ele>1332</ele>
        <time>2021-08-03T10:21:17.242Z</time>
      </trkpt>
      <trkpt lat="47.01621" lon="8.88324">
        <ele>1332</ele>
        <time>2021-08-03T10:21:18.241Z</time>
      </trkpt>
      <trkpt lat="47.01619" lon="8.88324">
        <ele>1331</ele>
        <time>2021-08-03T10:21:19.241Z</time>
      </trkpt>
      <trkpt lat="47.01617" lon="8.88324">
        <ele>1331</ele>
        <time>2021-08-03T10:21:20.241Z</time>
      </trkpt>
      <trkpt lat="47.01616" lon="8.88324">
        <ele>1331</ele>
        <time>2021-08-03T10:21:21.242Z</time>
      </trkpt>
      <trkpt lat="47.01615" lon="8.88324">
        <ele>1331</ele>
        <time>2021-08-03T10:21:22.242Z</time>
      </trkpt>
      <trkpt lat="47.01614" lon="8.88324">
        <ele>1331</ele>
        <time>2021-08-03T10:21:23.241Z</time>
      </trkpt>
      <trkpt lat="47.01613" lon="8.88324">
        <ele>1331</ele>
        <time>2021-08-03T10:21:24.241Z</time>
      </trkpt>
      <trkpt lat="47.01611" lon="8.88324">
        <ele>1332</ele>
        <time>2021-08-03T10:21:25.241Z</time>
      </trkpt>
      <trkpt lat="47.0161" lon="8.88324">
        <ele>1332</ele>
        <time>2021-08-03T10:21:26.242Z</time>
      </trkpt>
      <trkpt lat="47.01608" lon="8.88324">
        <ele>1332</ele>
        <time>2021-08-03T10:21:27.242Z</time>
      </trkpt>
      <trkpt lat="47.01607" lon="8.88325">
        <ele>1333</ele>
        <time>2021-08-03T10:21:28.242Z</time>
      </trkpt>
      <trkpt lat="47.01606" lon="8.88325">
        <ele>1333</ele>
        <time>2021-08-03T10:21:29.241Z</time>
      </trkpt>
      <trkpt lat="47.01605" lon="8.88325">
        <ele>1333</ele>
        <time>2021-08-03T10:21:30.241Z</time>
      </trkpt>
      <trkpt lat="47.01604" lon="8.88325">
        <ele>1334</ele>
        <time>2021-08-03T10:21:31.241Z</time>
      </trkpt>
      <trkpt lat="47.01604" lon="8.88325">
        <ele>1335</ele>
        <time>2021-08-03T10:21:32.241Z</time>
      </trkpt>
      <trkpt lat="47.01603" lon="8.88324">
        <ele>1335</ele>
        <time>2021-08-03T10:21:33.242Z</time>
      </trkpt>
      <trkpt lat="47.01602" lon="8.88322">
        <ele>1336</ele>
        <time>2021-08-03T10:21:34.242Z</time>
      </trkpt>
      <trkpt lat="47.01601" lon="8.88321">
        <ele>1336</ele>
        <time>2021-08-03T10:21:35.242Z</time>
      </trkpt>
      <trkpt lat="47.016" lon="8.88321">
        <ele>1336</ele>
        <time>2021-08-03T10:21:36.241Z</time>
      </trkpt>
      <trkpt lat="47.01599" lon="8.8832">
        <ele>1337</ele>
        <time>2021-08-03T10:21:37.242Z</time>
      </trkpt>
      <trkpt lat="47.01598" lon="8.8832">
        <ele>1338</ele>
        <time>2021-08-03T10:21:38.242Z</time>
      </trkpt>
      <trkpt lat="47.01597" lon="8.88319">
        <ele>1338</ele>
        <time>2021-08-03T10:21:39.242Z</time>
      </trkpt>
      <trkpt lat="47.01596" lon="8.88318">
        <ele>1339</ele>
        <time>2021-08-03T10:21:40.241Z</time>
      </trkpt>
      <trkpt lat="47.01595" lon="8.88317">
        <ele>1339</ele>
        <time>2021-08-03T10:21:41.241Z</time>
      </trkpt>
      <trkpt lat="47.01594" lon="8.88316">
        <ele>1340</ele>
        <time>2021-08-03T10:21:42.242Z</time>
      </trkpt>
      <trkpt lat="47.01593" lon="8.88316">
        <ele>1340</ele>
        <time>2021-08-03T10:21:43.242Z</time>
      </trkpt>
      <trkpt lat="47.01591" lon="8.88315">
        <ele>1340</ele>
        <time>2021-08-03T10:21:44.242Z</time>
      </trkpt>
      <trkpt lat="47.0159" lon="8.88313">
        <ele>1340</ele>
        <time>2021-08-03T10:21:45.242Z</time>
      </trkpt>
      <trkpt lat="47.01589" lon="8.88312">
        <ele>1340</ele>
        <time>2021-08-03T10:21:46.242Z</time>
      </trkpt>
      <trkpt lat="47.01588" lon="8.8831">
        <ele>1340</ele>
        <time>2021-08-03T10:21:47.241Z</time>
      </trkpt>
      <trkpt lat="47.01587" lon="8.88309">
        <ele>1340</ele>
        <time>2021-08-03T10:21:48.241Z</time>
      </trkpt>
      <trkpt lat="47.01586" lon="8.88308">
        <ele>1340</ele>
        <time>2021-08-03T10:21:49.242Z</time>
      </trkpt>
      <trkpt lat="47.01586" lon="8.88307">
        <ele>1340</ele>
        <time>2021-08-03T10:21:50.242Z</time>
      </trkpt>
      <trkpt lat="47.01586" lon="8.88306">
        <ele>1340</ele>
        <time>2021-08-03T10:21:51.242Z</time>
      </trkpt>
      <trkpt lat="47.01587" lon="8.88305">
        <ele>1340</ele>
        <time>2021-08-03T10:21:52.242Z</time>
      </trkpt>
      <trkpt lat="47.01588" lon="8.88304">
        <ele>1340</ele>
        <time>2021-08-03T10:21:53.241Z</time>
      </trkpt>
      <trkpt lat="47.01588" lon="8.88304">
        <ele>1340</ele>
        <time>2021-08-03T10:21:54.242Z</time>
      </trkpt>
      <trkpt lat="47.01588" lon="8.88304">
        <ele>1340</ele>
        <time>2021-08-03T10:21:55.241Z</time>
      </trkpt>
      <trkpt lat="47.01587" lon="8.88303">
        <ele>1339</ele>
        <time>2021-08-03T10:21:56.241Z</time>
      </trkpt>
      <trkpt lat="47.01587" lon="8.88302">
        <ele>1338</ele>
        <time>2021-08-03T10:21:57.242Z</time>
      </trkpt>
      <trkpt lat="47.01586" lon="8.88301">
        <ele>1338</ele>
        <time>2021-08-03T10:21:58.242Z</time>
      </trkpt>
      <trkpt lat="47.01585" lon="8.88301">
        <ele>1337</ele>
        <time>2021-08-03T10:21:59.242Z</time>
      </trkpt>
      <trkpt lat="47.01584" lon="8.883">
        <ele>1337</ele>
        <time>2021-08-03T10:22:00.242Z</time>
      </trkpt>
      <trkpt lat="47.01583" lon="8.883">
        <ele>1336</ele>
        <time>2021-08-03T10:22:01.242Z</time>
      </trkpt>
      <trkpt lat="47.01582" lon="8.88299">
        <ele>1336</ele>
        <time>2021-08-03T10:22:02.242Z</time>
      </trkpt>
      <trkpt lat="47.01581" lon="8.88299">
        <ele>1336</ele>
        <time>2021-08-03T10:22:03.241Z</time>
      </trkpt>
      <trkpt lat="47.0158" lon="8.88298">
        <ele>1336</ele>
        <time>2021-08-03T10:22:04.242Z</time>
      </trkpt>
      <trkpt lat="47.01579" lon="8.88297">
        <ele>1336</ele>
        <time>2021-08-03T10:22:05.242Z</time>
      </trkpt>
      <trkpt lat="47.01577" lon="8.88297">
        <ele>1336</ele>
        <time>2021-08-03T10:22:06.241Z</time>
      </trkpt>
      <trkpt lat="47.01575" lon="8.88297">
        <ele>1336</ele>
        <time>2021-08-03T10:22:07.242Z</time>
      </trkpt>
      <trkpt lat="47.01574" lon="8.88297">
        <ele>1336</ele>
        <time>2021-08-03T10:22:08.241Z</time>
      </trkpt>
      <trkpt lat="47.01572" lon="8.88296">
        <ele>1336</ele>
        <time>2021-08-03T10:22:09.242Z</time>
      </trkpt>
      <trkpt lat="47.0157" lon="8.88296">
        <ele>1336</ele>
        <time>2021-08-03T10:22:10.242Z</time>
      </trkpt>
      <trkpt lat="47.01569" lon="8.88295">
        <ele>1336</ele>
        <time>2021-08-03T10:22:11.242Z</time>
      </trkpt>
      <trkpt lat="47.01569" lon="8.88294">
        <ele>1335</ele>
        <time>2021-08-03T10:22:12.242Z</time>
      </trkpt>
      <trkpt lat="47.01568" lon="8.88294">
        <ele>1335</ele>
        <time>2021-08-03T10:22:13.242Z</time>
      </trkpt>
      <trkpt lat="47.01568" lon="8.88293">
        <ele>1335</ele>
        <time>2021-08-03T10:22:14.242Z</time>
      </trkpt>
      <trkpt lat="47.01567" lon="8.88292">
        <ele>1335</ele>
        <time>2021-08-03T10:22:15.242Z</time>
      </trkpt>
      <trkpt lat="47.01566" lon="8.88291">
        <ele>1334</ele>
        <time>2021-08-03T10:22:16.241Z</time>
      </trkpt>
      <trkpt lat="47.01565" lon="8.88291">
        <ele>1334</ele>
        <time>2021-08-03T10:22:17.242Z</time>
      </trkpt>
      <trkpt lat="47.01564" lon="8.8829">
        <ele>1334</ele>
        <time>2021-08-03T10:22:18.241Z</time>
      </trkpt>
      <trkpt lat="47.01563" lon="8.8829">
        <ele>1335</ele>
        <time>2021-08-03T10:22:19.241Z</time>
      </trkpt>
      <trkpt lat="47.01561" lon="8.88289">
        <ele>1335</ele>
        <time>2021-08-03T10:22:20.242Z</time>
      </trkpt>
      <trkpt lat="47.0156" lon="8.88289">
        <ele>1335</ele>
        <time>2021-08-03T10:22:21.242Z</time>
      </trkpt>
      <trkpt lat="47.0156" lon="8.88288">
        <ele>1335</ele>
        <time>2021-08-03T10:22:22.242Z</time>
      </trkpt>
      <trkpt lat="47.01559" lon="8.88287">
        <ele>1336</ele>
        <time>2021-08-03T10:22:23.241Z</time>
      </trkpt>
      <trkpt lat="47.01559" lon="8.88286">
        <ele>1335</ele>
        <time>2021-08-03T10:22:24.242Z</time>
      </trkpt>
      <trkpt lat="47.01559" lon="8.88285">
        <ele>1335</ele>
        <time>2021-08-03T10:22:25.241Z</time>
      </trkpt>
      <trkpt lat="47.01557" lon="8.88284">
        <ele>1335</ele>
        <time>2021-08-03T10:22:26.242Z</time>
      </trkpt>
      <trkpt lat="47.01556" lon="8.88284">
        <ele>1335</ele>
        <time>2021-08-03T10:22:27.242Z</time>
      </trkpt>
      <trkpt lat="47.01555" lon="8.88283">
        <ele>1334</ele>
        <time>2021-08-03T10:22:28.242Z</time>
      </trkpt>
      <trkpt lat="47.01555" lon="8.88282">
        <ele>1334</ele>
        <time>2021-08-03T10:22:29.242Z</time>
      </trkpt>
      <trkpt lat="47.01555" lon="8.88282">
        <ele>1334</ele>
        <time>2021-08-03T10:22:30.242Z</time>
      </trkpt>
      <trkpt lat="47.01555" lon="8.88281">
        <ele>1333</ele>
        <time>2021-08-03T10:22:31.242Z</time>
      </trkpt>
      <trkpt lat="47.01555" lon="8.8828">
        <ele>1333</ele>
        <time>2021-08-03T10:22:32.242Z</time>
      </trkpt>
      <trkpt lat="47.01555" lon="8.8828">
        <ele>1333</ele>
        <time>2021-08-03T10:22:33.242Z</time>
      </trkpt>
      <trkpt lat="47.01555" lon="8.88279">
        <ele>1333</ele>
        <time>2021-08-03T10:22:34.242Z</time>
      </trkpt>
      <trkpt lat="47.01555" lon="8.88278">
        <ele>1333</ele>
        <time>2021-08-03T10:22:35.241Z</time>
      </trkpt>
      <trkpt lat="47.01554" lon="8.88277">
        <ele>1333</ele>
        <time>2021-08-03T10:22:36.242Z</time>
      </trkpt>
      <trkpt lat="47.01553" lon="8.88276">
        <ele>1333</ele>
        <time>2021-08-03T10:22:37.242Z</time>
      </trkpt>
      <trkpt lat="47.01553" lon="8.88275">
        <ele>1333</ele>
        <time>2021-08-03T10:22:38.242Z</time>
      </trkpt>
      <trkpt lat="47.01552" lon="8.88274">
        <ele>1333</ele>
        <time>2021-08-03T10:22:39.242Z</time>
      </trkpt>
      <trkpt lat="47.01551" lon="8.88273">
        <ele>1333</ele>
        <time>2021-08-03T10:22:40.241Z</time>
      </trkpt>
      <trkpt lat="47.0155" lon="8.88273">
        <ele>1333</ele>
        <time>2021-08-03T10:22:41.242Z</time>
      </trkpt>
      <trkpt lat="47.01549" lon="8.88272">
        <ele>1333</ele>
        <time>2021-08-03T10:22:42.241Z</time>
      </trkpt>
      <trkpt lat="47.01549" lon="8.88271">
        <ele>1333</ele>
        <time>2021-08-03T10:22:43.242Z</time>
      </trkpt>
      <trkpt lat="47.01548" lon="8.8827">
        <ele>1334</ele>
        <time>2021-08-03T10:22:44.241Z</time>
      </trkpt>
      <trkpt lat="47.01547" lon="8.88269">
        <ele>1334</ele>
        <time>2021-08-03T10:22:45.242Z</time>
      </trkpt>
      <trkpt lat="47.01548" lon="8.88269">
        <ele>1334</ele>
        <time>2021-08-03T10:22:46.242Z</time>
      </trkpt>
      <trkpt lat="47.01547" lon="8.88268">
        <ele>1333</ele>
        <time>2021-08-03T10:22:47.242Z</time>
      </trkpt>
      <trkpt lat="47.01546" lon="8.88267">
        <ele>1333</ele>
        <time>2021-08-03T10:22:48.242Z</time>
      </trkpt>
      <trkpt lat="47.01545" lon="8.88267">
        <ele>1333</ele>
        <time>2021-08-03T10:22:49.242Z</time>
      </trkpt>
      <trkpt lat="47.01545" lon="8.88266">
        <ele>1334</ele>
        <time>2021-08-03T10:22:50.242Z</time>
      </trkpt>
      <trkpt lat="47.01545" lon="8.88265">
        <ele>1334</ele>
        <time>2021-08-03T10:22:51.241Z</time>
      </trkpt>
      <trkpt lat="47.01544" lon="8.88265">
        <ele>1334</ele>
        <time>2021-08-03T10:22:52.241Z</time>
      </trkpt>
      <trkpt lat="47.01544" lon="8.88264">
        <ele>1335</ele>
        <time>2021-08-03T10:22:53.241Z</time>
      </trkpt>
      <trkpt lat="47.01543" lon="8.88263">
        <ele>1335</ele>
        <time>2021-08-03T10:22:54.241Z</time>
      </trkpt>
      <trkpt lat="47.01542" lon="8.88263">
        <ele>1335</ele>
        <time>2021-08-03T10:22:55.242Z</time>
      </trkpt>
      <trkpt lat="47.01542" lon="8.88263">
        <ele>1336</ele>
        <time>2021-08-03T10:22:56.242Z</time>
      </trkpt>
      <trkpt lat="47.01541" lon="8.88262">
        <ele>1336</ele>
        <time>2021-08-03T10:22:57.242Z</time>
      </trkpt>
      <trkpt lat="47.0154" lon="8.88262">
        <ele>1336</ele>
        <time>2021-08-03T10:22:58.241Z</time>
      </trkpt>
      <trkpt lat="47.0154" lon="8.88261">
        <ele>1335</ele>
        <time>2021-08-03T10:22:59.242Z</time>
      </trkpt>
      <trkpt lat="47.01539" lon="8.88261">
        <ele>1335</ele>
        <time>2021-08-03T10:23:00.242Z</time>
      </trkpt>
      <trkpt lat="47.01538" lon="8.88261">
        <ele>1335</ele>
        <time>2021-08-03T10:23:01.242Z</time>
      </trkpt>
      <trkpt lat="47.01538" lon="8.88261">
        <ele>1334</ele>
        <time>2021-08-03T10:23:02.241Z</time>
      </trkpt>
      <trkpt lat="47.01539" lon="8.88261">
        <ele>1334</ele>
        <time>2021-08-03T10:23:03.241Z</time>
      </trkpt>
      <trkpt lat="47.01539" lon="8.88261">
        <ele>1334</ele>
        <time>2021-08-03T10:23:04.242Z</time>
      </trkpt>
      <trkpt lat="47.01538" lon="8.88261">
        <ele>1334</ele>
        <time>2021-08-03T10:23:05.242Z</time>
      </trkpt>
      <trkpt lat="47.01537" lon="8.88259">
        <ele>1336</ele>
        <time>2021-08-03T10:23:06.243Z</time>
      </trkpt>
      <trkpt lat="47.01536" lon="8.88259">
        <ele>1336</ele>
        <time>2021-08-03T10:23:07.242Z</time>
      </trkpt>
      <trkpt lat="47.01535" lon="8.88259">
        <ele>1337</ele>
        <time>2021-08-03T10:23:08.242Z</time>
      </trkpt>
      <trkpt lat="47.01534" lon="8.8826">
        <ele>1337</ele>
        <time>2021-08-03T10:23:09.242Z</time>
      </trkpt>
      <trkpt lat="47.01534" lon="8.88259">
        <ele>1337</ele>
        <time>2021-08-03T10:23:10.243Z</time>
      </trkpt>
      <trkpt lat="47.01533" lon="8.88259">
        <ele>1337</ele>
        <time>2021-08-03T10:23:11.243Z</time>
      </trkpt>
      <trkpt lat="47.01533" lon="8.88258">
        <ele>1337</ele>
        <time>2021-08-03T10:23:12.243Z</time>
      </trkpt>
      <trkpt lat="47.01532" lon="8.88258">
        <ele>1337</ele>
        <time>2021-08-03T10:23:13.242Z</time>
      </trkpt>
      <trkpt lat="47.01531" lon="8.88258">
        <ele>1337</ele>
        <time>2021-08-03T10:23:14.243Z</time>
      </trkpt>
      <trkpt lat="47.01531" lon="8.88257">
        <ele>1337</ele>
        <time>2021-08-03T10:23:15.243Z</time>
      </trkpt>
      <trkpt lat="47.0153" lon="8.88257">
        <ele>1336</ele>
        <time>2021-08-03T10:23:16.243Z</time>
      </trkpt>
      <trkpt lat="47.01529" lon="8.88257">
        <ele>1336</ele>
        <time>2021-08-03T10:23:17.243Z</time>
      </trkpt>
      <trkpt lat="47.01529" lon="8.88257">
        <ele>1336</ele>
        <time>2021-08-03T10:23:18.243Z</time>
      </trkpt>
      <trkpt lat="47.01528" lon="8.88257">
        <ele>1336</ele>
        <time>2021-08-03T10:23:19.242Z</time>
      </trkpt>
      <trkpt lat="47.01528" lon="8.88256">
        <ele>1336</ele>
        <time>2021-08-03T10:23:20.243Z</time>
      </trkpt>
      <trkpt lat="47.01527" lon="8.88256">
        <ele>1337</ele>
        <time>2021-08-03T10:23:21.243Z</time>
      </trkpt>
      <trkpt lat="47.01526" lon="8.88255">
        <ele>1337</ele>
        <time>2021-08-03T10:23:22.243Z</time>
      </trkpt>
      <trkpt lat="47.01525" lon="8.88255">
        <ele>1337</ele>
        <time>2021-08-03T10:23:23.243Z</time>
      </trkpt>
      <trkpt lat="47.01525" lon="8.88254">
        <ele>1336</ele>
        <time>2021-08-03T10:23:24.242Z</time>
      </trkpt>
      <trkpt lat="47.01524" lon="8.88254">
        <ele>1336</ele>
        <time>2021-08-03T10:23:25.243Z</time>
      </trkpt>
      <trkpt lat="47.01523" lon="8.88253">
        <ele>1336</ele>
        <time>2021-08-03T10:23:26.242Z</time>
      </trkpt>
      <trkpt lat="47.01523" lon="8.88252">
        <ele>1336</ele>
        <time>2021-08-03T10:23:27.243Z</time>
      </trkpt>
      <trkpt lat="47.01522" lon="8.88252">
        <ele>1336</ele>
        <time>2021-08-03T10:23:28.243Z</time>
      </trkpt>
      <trkpt lat="47.01522" lon="8.88251">
        <ele>1336</ele>
        <time>2021-08-03T10:23:29.242Z</time>
      </trkpt>
      <trkpt lat="47.01521" lon="8.8825">
        <ele>1336</ele>
        <time>2021-08-03T10:23:30.243Z</time>
      </trkpt>
      <trkpt lat="47.0152" lon="8.88249">
        <ele>1335</ele>
        <time>2021-08-03T10:23:31.242Z</time>
      </trkpt>
      <trkpt lat="47.0152" lon="8.88248">
        <ele>1335</ele>
        <time>2021-08-03T10:23:32.242Z</time>
      </trkpt>
      <trkpt lat="47.01519" lon="8.88247">
        <ele>1335</ele>
        <time>2021-08-03T10:23:33.243Z</time>
      </trkpt>
      <trkpt lat="47.01518" lon="8.88246">
        <ele>1335</ele>
        <time>2021-08-03T10:23:34.243Z</time>
      </trkpt>
      <trkpt lat="47.01518" lon="8.88245">
        <ele>1335</ele>
        <time>2021-08-03T10:23:35.243Z</time>
      </trkpt>
      <trkpt lat="47.01517" lon="8.88243">
        <ele>1335</ele>
        <time>2021-08-03T10:23:36.243Z</time>
      </trkpt>
      <trkpt lat="47.01517" lon="8.88241">
        <ele>1335</ele>
        <time>2021-08-03T10:23:37.242Z</time>
      </trkpt>
      <trkpt lat="47.01517" lon="8.8824">
        <ele>1335</ele>
        <time>2021-08-03T10:23:38.243Z</time>
      </trkpt>
      <trkpt lat="47.01516" lon="8.88239">
        <ele>1335</ele>
        <time>2021-08-03T10:23:39.242Z</time>
      </trkpt>
      <trkpt lat="47.01516" lon="8.88238">
        <ele>1334</ele>
        <time>2021-08-03T10:23:40.243Z</time>
      </trkpt>
      <trkpt lat="47.01515" lon="8.88237">
        <ele>1334</ele>
        <time>2021-08-03T10:23:41.243Z</time>
      </trkpt>
      <trkpt lat="47.01515" lon="8.88236">
        <ele>1333</ele>
        <time>2021-08-03T10:23:42.243Z</time>
      </trkpt>
      <trkpt lat="47.01514" lon="8.88235">
        <ele>1333</ele>
        <time>2021-08-03T10:23:43.242Z</time>
      </trkpt>
      <trkpt lat="47.01514" lon="8.88234">
        <ele>1333</ele>
        <time>2021-08-03T10:23:44.242Z</time>
      </trkpt>
      <trkpt lat="47.01513" lon="8.88233">
        <ele>1333</ele>
        <time>2021-08-03T10:23:45.243Z</time>
      </trkpt>
      <trkpt lat="47.01513" lon="8.88232">
        <ele>1333</ele>
        <time>2021-08-03T10:23:46.243Z</time>
      </trkpt>
      <trkpt lat="47.01512" lon="8.88231">
        <ele>1333</ele>
        <time>2021-08-03T10:23:47.243Z</time>
      </trkpt>
      <trkpt lat="47.01511" lon="8.8823">
        <ele>1333</ele>
        <time>2021-08-03T10:23:48.243Z</time>
      </trkpt>
      <trkpt lat="47.0151" lon="8.88228">
        <ele>1334</ele>
        <time>2021-08-03T10:23:49.243Z</time>
      </trkpt>
      <trkpt lat="47.01509" lon="8.88226">
        <ele>1334</ele>
        <time>2021-08-03T10:23:50.242Z</time>
      </trkpt>
      <trkpt lat="47.01509" lon="8.88225">
        <ele>1334</ele>
        <time>2021-08-03T10:23:51.243Z</time>
      </trkpt>
      <trkpt lat="47.01508" lon="8.88224">
        <ele>1334</ele>
        <time>2021-08-03T10:23:52.243Z</time>
      </trkpt>
      <trkpt lat="47.01508" lon="8.88223">
        <ele>1334</ele>
        <time>2021-08-03T10:23:53.242Z</time>
      </trkpt>
      <trkpt lat="47.01508" lon="8.88221">
        <ele>1334</ele>
        <time>2021-08-03T10:23:54.243Z</time>
      </trkpt>
      <trkpt lat="47.01507" lon="8.8822">
        <ele>1335</ele>
        <time>2021-08-03T10:23:55.243Z</time>
      </trkpt>
      <trkpt lat="47.01506" lon="8.88219">
        <ele>1335</ele>
        <time>2021-08-03T10:23:56.243Z</time>
      </trkpt>
      <trkpt lat="47.01506" lon="8.88218">
        <ele>1336</ele>
        <time>2021-08-03T10:23:57.243Z</time>
      </trkpt>
      <trkpt lat="47.01505" lon="8.88217">
        <ele>1336</ele>
        <time>2021-08-03T10:23:58.242Z</time>
      </trkpt>
      <trkpt lat="47.01504" lon="8.88216">
        <ele>1337</ele>
        <time>2021-08-03T10:23:59.242Z</time>
      </trkpt>
      <trkpt lat="47.01503" lon="8.88215">
        <ele>1337</ele>
        <time>2021-08-03T10:24:00.243Z</time>
      </trkpt>
      <trkpt lat="47.01503" lon="8.88214">
        <ele>1338</ele>
        <time>2021-08-03T10:24:01.242Z</time>
      </trkpt>
      <trkpt lat="47.01501" lon="8.88213">
        <ele>1338</ele>
        <time>2021-08-03T10:24:02.243Z</time>
      </trkpt>
      <trkpt lat="47.01501" lon="8.88212">
        <ele>1339</ele>
        <time>2021-08-03T10:24:03.242Z</time>
      </trkpt>
      <trkpt lat="47.015" lon="8.88211">
        <ele>1339</ele>
        <time>2021-08-03T10:24:04.243Z</time>
      </trkpt>
      <trkpt lat="47.01499" lon="8.8821">
        <ele>1340</ele>
        <time>2021-08-03T10:24:05.243Z</time>
      </trkpt>
      <trkpt lat="47.01499" lon="8.88209">
        <ele>1341</ele>
        <time>2021-08-03T10:24:06.242Z</time>
      </trkpt>
      <trkpt lat="47.01498" lon="8.88207">
        <ele>1341</ele>
        <time>2021-08-03T10:24:07.242Z</time>
      </trkpt>
      <trkpt lat="47.01497" lon="8.88206">
        <ele>1341</ele>
        <time>2021-08-03T10:24:08.242Z</time>
      </trkpt>
      <trkpt lat="47.01497" lon="8.88206">
        <ele>1341</ele>
        <time>2021-08-03T10:24:09.243Z</time>
      </trkpt>
      <trkpt lat="47.01496" lon="8.88206">
        <ele>1341</ele>
        <time>2021-08-03T10:24:10.242Z</time>
      </trkpt>
      <trkpt lat="47.01495" lon="8.88205">
        <ele>1341</ele>
        <time>2021-08-03T10:24:11.242Z</time>
      </trkpt>
      <trkpt lat="47.01494" lon="8.88205">
        <ele>1340</ele>
        <time>2021-08-03T10:24:12.243Z</time>
      </trkpt>
      <trkpt lat="47.01494" lon="8.88204">
        <ele>1340</ele>
        <time>2021-08-03T10:24:13.243Z</time>
      </trkpt>
      <trkpt lat="47.01493" lon="8.88203">
        <ele>1340</ele>
        <time>2021-08-03T10:24:14.242Z</time>
      </trkpt>
      <trkpt lat="47.01492" lon="8.88202">
        <ele>1340</ele>
        <time>2021-08-03T10:24:15.242Z</time>
      </trkpt>
      <trkpt lat="47.01492" lon="8.88202">
        <ele>1339</ele>
        <time>2021-08-03T10:24:16.243Z</time>
      </trkpt>
      <trkpt lat="47.01491" lon="8.88201">
        <ele>1339</ele>
        <time>2021-08-03T10:24:17.243Z</time>
      </trkpt>
      <trkpt lat="47.0149" lon="8.882">
        <ele>1339</ele>
        <time>2021-08-03T10:24:18.242Z</time>
      </trkpt>
      <trkpt lat="47.0149" lon="8.882">
        <ele>1338</ele>
        <time>2021-08-03T10:24:19.242Z</time>
      </trkpt>
      <trkpt lat="47.01489" lon="8.882">
        <ele>1338</ele>
        <time>2021-08-03T10:24:20.243Z</time>
      </trkpt>
      <trkpt lat="47.01488" lon="8.882">
        <ele>1337</ele>
        <time>2021-08-03T10:24:21.242Z</time>
      </trkpt>
      <trkpt lat="47.01488" lon="8.882">
        <ele>1337</ele>
        <time>2021-08-03T10:24:22.243Z</time>
      </trkpt>
      <trkpt lat="47.01487" lon="8.88199">
        <ele>1337</ele>
        <time>2021-08-03T10:24:23.243Z</time>
      </trkpt>
      <trkpt lat="47.01486" lon="8.88199">
        <ele>1337</ele>
        <time>2021-08-03T10:24:24.243Z</time>
      </trkpt>
      <trkpt lat="47.01485" lon="8.88198">
        <ele>1338</ele>
        <time>2021-08-03T10:24:25.242Z</time>
      </trkpt>
      <trkpt lat="47.01485" lon="8.88197">
        <ele>1338</ele>
        <time>2021-08-03T10:24:26.242Z</time>
      </trkpt>
      <trkpt lat="47.01484" lon="8.88196">
        <ele>1338</ele>
        <time>2021-08-03T10:24:27.242Z</time>
      </trkpt>
      <trkpt lat="47.01483" lon="8.88196">
        <ele>1338</ele>
        <time>2021-08-03T10:24:28.242Z</time>
      </trkpt>
      <trkpt lat="47.01483" lon="8.88196">
        <ele>1338</ele>
        <time>2021-08-03T10:24:29.243Z</time>
      </trkpt>
      <trkpt lat="47.01483" lon="8.88195">
        <ele>1339</ele>
        <time>2021-08-03T10:24:30.243Z</time>
      </trkpt>
      <trkpt lat="47.01482" lon="8.88195">
        <ele>1338</ele>
        <time>2021-08-03T10:24:31.243Z</time>
      </trkpt>
      <trkpt lat="47.01482" lon="8.88194">
        <ele>1338</ele>
        <time>2021-08-03T10:24:32.242Z</time>
      </trkpt>
      <trkpt lat="47.0148" lon="8.88193">
        <ele>1338</ele>
        <time>2021-08-03T10:24:33.243Z</time>
      </trkpt>
      <trkpt lat="47.01479" lon="8.88193">
        <ele>1338</ele>
        <time>2021-08-03T10:24:34.243Z</time>
      </trkpt>
      <trkpt lat="47.01477" lon="8.88193">
        <ele>1339</ele>
        <time>2021-08-03T10:24:35.243Z</time>
      </trkpt>
      <trkpt lat="47.01476" lon="8.88193">
        <ele>1340</ele>
        <time>2021-08-03T10:24:36.243Z</time>
      </trkpt>
      <trkpt lat="47.01476" lon="8.88191">
        <ele>1341</ele>
        <time>2021-08-03T10:24:37.243Z</time>
      </trkpt>
      <trkpt lat="47.01476" lon="8.88191">
        <ele>1341</ele>
        <time>2021-08-03T10:24:38.243Z</time>
      </trkpt>
      <trkpt lat="47.01475" lon="8.8819">
        <ele>1342</ele>
        <time>2021-08-03T10:24:39.242Z</time>
      </trkpt>
      <trkpt lat="47.01474" lon="8.88189">
        <ele>1343</ele>
        <time>2021-08-03T10:24:40.243Z</time>
      </trkpt>
      <trkpt lat="47.01473" lon="8.88188">
        <ele>1343</ele>
        <time>2021-08-03T10:24:41.242Z</time>
      </trkpt>
      <trkpt lat="47.01472" lon="8.88187">
        <ele>1343</ele>
        <time>2021-08-03T10:24:42.243Z</time>
      </trkpt>
      <trkpt lat="47.01472" lon="8.88185">
        <ele>1344</ele>
        <time>2021-08-03T10:24:43.243Z</time>
      </trkpt>
      <trkpt lat="47.01471" lon="8.88184">
        <ele>1344</ele>
        <time>2021-08-03T10:24:44.242Z</time>
      </trkpt>
      <trkpt lat="47.01471" lon="8.88183">
        <ele>1344</ele>
        <time>2021-08-03T10:24:45.243Z</time>
      </trkpt>
      <trkpt lat="47.0147" lon="8.88183">
        <ele>1345</ele>
        <time>2021-08-03T10:24:46.242Z</time>
      </trkpt>
      <trkpt lat="47.0147" lon="8.88183">
        <ele>1345</ele>
        <time>2021-08-03T10:24:47.242Z</time>
      </trkpt>
      <trkpt lat="47.01469" lon="8.88183">
        <ele>1345</ele>
        <time>2021-08-03T10:24:48.243Z</time>
      </trkpt>
      <trkpt lat="47.01468" lon="8.88182">
        <ele>1345</ele>
        <time>2021-08-03T10:24:49.242Z</time>
      </trkpt>
      <trkpt lat="47.01468" lon="8.88182">
        <ele>1345</ele>
        <time>2021-08-03T10:24:50.242Z</time>
      </trkpt>
      <trkpt lat="47.01467" lon="8.88182">
        <ele>1344</ele>
        <time>2021-08-03T10:24:51.243Z</time>
      </trkpt>
      <trkpt lat="47.01467" lon="8.88181">
        <ele>1344</ele>
        <time>2021-08-03T10:24:52.242Z</time>
      </trkpt>
      <trkpt lat="47.01467" lon="8.8818">
        <ele>1343</ele>
        <time>2021-08-03T10:24:53.243Z</time>
      </trkpt>
      <trkpt lat="47.01466" lon="8.88179">
        <ele>1343</ele>
        <time>2021-08-03T10:24:54.242Z</time>
      </trkpt>
      <trkpt lat="47.01466" lon="8.88179">
        <ele>1342</ele>
        <time>2021-08-03T10:24:55.242Z</time>
      </trkpt>
      <trkpt lat="47.01466" lon="8.88178">
        <ele>1341</ele>
        <time>2021-08-03T10:24:56.242Z</time>
      </trkpt>
      <trkpt lat="47.01465" lon="8.88177">
        <ele>1341</ele>
        <time>2021-08-03T10:24:57.243Z</time>
      </trkpt>
      <trkpt lat="47.01465" lon="8.88177">
        <ele>1341</ele>
        <time>2021-08-03T10:24:58.242Z</time>
      </trkpt>
      <trkpt lat="47.01464" lon="8.88176">
        <ele>1341</ele>
        <time>2021-08-03T10:24:59.243Z</time>
      </trkpt>
      <trkpt lat="47.01464" lon="8.88176">
        <ele>1341</ele>
        <time>2021-08-03T10:25:00.243Z</time>
      </trkpt>
      <trkpt lat="47.01463" lon="8.88175">
        <ele>1341</ele>
        <time>2021-08-03T10:25:01.243Z</time>
      </trkpt>
      <trkpt lat="47.01463" lon="8.88175">
        <ele>1341</ele>
        <time>2021-08-03T10:25:02.243Z</time>
      </trkpt>
      <trkpt lat="47.01462" lon="8.88175">
        <ele>1341</ele>
        <time>2021-08-03T10:25:03.242Z</time>
      </trkpt>
      <trkpt lat="47.01462" lon="8.88175">
        <ele>1342</ele>
        <time>2021-08-03T10:25:04.243Z</time>
      </trkpt>
      <trkpt lat="47.01461" lon="8.88175">
        <ele>1342</ele>
        <time>2021-08-03T10:25:05.243Z</time>
      </trkpt>
      <trkpt lat="47.01461" lon="8.88175">
        <ele>1342</ele>
        <time>2021-08-03T10:25:06.243Z</time>
      </trkpt>
      <trkpt lat="47.01461" lon="8.88175">
        <ele>1342</ele>
        <time>2021-08-03T10:25:07.243Z</time>
      </trkpt>
      <trkpt lat="47.0146" lon="8.88175">
        <ele>1342</ele>
        <time>2021-08-03T10:25:08.242Z</time>
      </trkpt>
      <trkpt lat="47.01459" lon="8.88175">
        <ele>1342</ele>
        <time>2021-08-03T10:25:09.243Z</time>
      </trkpt>
      <trkpt lat="47.01459" lon="8.88175">
        <ele>1341</ele>
        <time>2021-08-03T10:25:10.243Z</time>
      </trkpt>
      <trkpt lat="47.01458" lon="8.88175">
        <ele>1341</ele>
        <time>2021-08-03T10:25:11.243Z</time>
      </trkpt>
      <trkpt lat="47.01458" lon="8.88175">
        <ele>1341</ele>
        <time>2021-08-03T10:25:12.243Z</time>
      </trkpt>
      <trkpt lat="47.01457" lon="8.88174">
        <ele>1341</ele>
        <time>2021-08-03T10:25:13.243Z</time>
      </trkpt>
      <trkpt lat="47.01455" lon="8.88174">
        <ele>1341</ele>
        <time>2021-08-03T10:25:14.243Z</time>
      </trkpt>
      <trkpt lat="47.01454" lon="8.88174">
        <ele>1340</ele>
        <time>2021-08-03T10:25:15.243Z</time>
      </trkpt>
      <trkpt lat="47.01453" lon="8.88174">
        <ele>1341</ele>
        <time>2021-08-03T10:25:16.242Z</time>
      </trkpt>
      <trkpt lat="47.01453" lon="8.88174">
        <ele>1341</ele>
        <time>2021-08-03T10:25:17.242Z</time>
      </trkpt>
      <trkpt lat="47.01453" lon="8.88173">
        <ele>1341</ele>
        <time>2021-08-03T10:25:18.242Z</time>
      </trkpt>
      <trkpt lat="47.01453" lon="8.88173">
        <ele>1342</ele>
        <time>2021-08-03T10:25:19.243Z</time>
      </trkpt>
      <trkpt lat="47.01453" lon="8.88172">
        <ele>1342</ele>
        <time>2021-08-03T10:25:20.243Z</time>
      </trkpt>
      <trkpt lat="47.01454" lon="8.88172">
        <ele>1343</ele>
        <time>2021-08-03T10:25:21.243Z</time>
      </trkpt>
      <trkpt lat="47.01453" lon="8.88172">
        <ele>1342</ele>
        <time>2021-08-03T10:25:22.243Z</time>
      </trkpt>
      <trkpt lat="47.01453" lon="8.88171">
        <ele>1341</ele>
        <time>2021-08-03T10:25:23.243Z</time>
      </trkpt>
      <trkpt lat="47.01452" lon="8.8817">
        <ele>1339</ele>
        <time>2021-08-03T10:25:24.244Z</time>
      </trkpt>
      <trkpt lat="47.01451" lon="8.88169">
        <ele>1338</ele>
        <time>2021-08-03T10:25:25.244Z</time>
      </trkpt>
      <trkpt lat="47.01451" lon="8.88169">
        <ele>1338</ele>
        <time>2021-08-03T10:25:26.244Z</time>
      </trkpt>
      <trkpt lat="47.01449" lon="8.88167">
        <ele>1337</ele>
        <time>2021-08-03T10:25:27.244Z</time>
      </trkpt>
      <trkpt lat="47.01448" lon="8.88167">
        <ele>1337</ele>
        <time>2021-08-03T10:25:28.243Z</time>
      </trkpt>
      <trkpt lat="47.01447" lon="8.88167">
        <ele>1337</ele>
        <time>2021-08-03T10:25:29.244Z</time>
      </trkpt>
      <trkpt lat="47.01446" lon="8.88166">
        <ele>1337</ele>
        <time>2021-08-03T10:25:30.243Z</time>
      </trkpt>
      <trkpt lat="47.01445" lon="8.88166">
        <ele>1338</ele>
        <time>2021-08-03T10:25:31.243Z</time>
      </trkpt>
      <trkpt lat="47.01443" lon="8.88165">
        <ele>1338</ele>
        <time>2021-08-03T10:25:32.244Z</time>
      </trkpt>
      <trkpt lat="47.01442" lon="8.88165">
        <ele>1338</ele>
        <time>2021-08-03T10:25:33.244Z</time>
      </trkpt>
      <trkpt lat="47.01441" lon="8.88165">
        <ele>1339</ele>
        <time>2021-08-03T10:25:34.244Z</time>
      </trkpt>
      <trkpt lat="47.0144" lon="8.88164">
        <ele>1339</ele>
        <time>2021-08-03T10:25:35.244Z</time>
      </trkpt>
      <trkpt lat="47.01439" lon="8.88164">
        <ele>1339</ele>
        <time>2021-08-03T10:25:36.243Z</time>
      </trkpt>
      <trkpt lat="47.01438" lon="8.88163">
        <ele>1340</ele>
        <time>2021-08-03T10:25:37.243Z</time>
      </trkpt>
      <trkpt lat="47.01437" lon="8.88162">
        <ele>1340</ele>
        <time>2021-08-03T10:25:38.243Z</time>
      </trkpt>
      <trkpt lat="47.01436" lon="8.88161">
        <ele>1340</ele>
        <time>2021-08-03T10:25:39.243Z</time>
      </trkpt>
      <trkpt lat="47.01435" lon="8.88161">
        <ele>1340</ele>
        <time>2021-08-03T10:25:40.244Z</time>
      </trkpt>
      <trkpt lat="47.01435" lon="8.88159">
        <ele>1340</ele>
        <time>2021-08-03T10:25:41.243Z</time>
      </trkpt>
      <trkpt lat="47.01434" lon="8.88159">
        <ele>1340</ele>
        <time>2021-08-03T10:25:42.244Z</time>
      </trkpt>
      <trkpt lat="47.01433" lon="8.88157">
        <ele>1340</ele>
        <time>2021-08-03T10:25:43.243Z</time>
      </trkpt>
      <trkpt lat="47.01433" lon="8.88156">
        <ele>1340</ele>
        <time>2021-08-03T10:25:44.244Z</time>
      </trkpt>
      <trkpt lat="47.01432" lon="8.88155">
        <ele>1341</ele>
        <time>2021-08-03T10:25:45.244Z</time>
      </trkpt>
      <trkpt lat="47.01432" lon="8.88154">
        <ele>1341</ele>
        <time>2021-08-03T10:25:46.243Z</time>
      </trkpt>
      <trkpt lat="47.01431" lon="8.88153">
        <ele>1341</ele>
        <time>2021-08-03T10:25:47.244Z</time>
      </trkpt>
      <trkpt lat="47.0143" lon="8.88152">
        <ele>1342</ele>
        <time>2021-08-03T10:25:48.244Z</time>
      </trkpt>
      <trkpt lat="47.01429" lon="8.88151">
        <ele>1342</ele>
        <time>2021-08-03T10:25:49.244Z</time>
      </trkpt>
      <trkpt lat="47.01427" lon="8.88151">
        <ele>1343</ele>
        <time>2021-08-03T10:25:50.244Z</time>
      </trkpt>
      <trkpt lat="47.01426" lon="8.8815">
        <ele>1344</ele>
        <time>2021-08-03T10:25:51.243Z</time>
      </trkpt>
      <trkpt lat="47.01426" lon="8.88149">
        <ele>1344</ele>
        <time>2021-08-03T10:25:52.243Z</time>
      </trkpt>
      <trkpt lat="47.01425" lon="8.88148">
        <ele>1344</ele>
        <time>2021-08-03T10:25:53.244Z</time>
      </trkpt>
      <trkpt lat="47.01424" lon="8.88147">
        <ele>1344</ele>
        <time>2021-08-03T10:25:54.244Z</time>
      </trkpt>
      <trkpt lat="47.01423" lon="8.88146">
        <ele>1344</ele>
        <time>2021-08-03T10:25:55.244Z</time>
      </trkpt>
      <trkpt lat="47.01422" lon="8.88145">
        <ele>1344</ele>
        <time>2021-08-03T10:25:56.243Z</time>
      </trkpt>
      <trkpt lat="47.01422" lon="8.88145">
        <ele>1343</ele>
        <time>2021-08-03T10:25:57.243Z</time>
      </trkpt>
      <trkpt lat="47.01421" lon="8.88144">
        <ele>1343</ele>
        <time>2021-08-03T10:25:58.244Z</time>
      </trkpt>
      <trkpt lat="47.0142" lon="8.88143">
        <ele>1344</ele>
        <time>2021-08-03T10:25:59.244Z</time>
      </trkpt>
      <trkpt lat="47.01419" lon="8.88142">
        <ele>1344</ele>
        <time>2021-08-03T10:26:00.244Z</time>
      </trkpt>
      <trkpt lat="47.01419" lon="8.8814">
        <ele>1344</ele>
        <time>2021-08-03T10:26:01.244Z</time>
      </trkpt>
      <trkpt lat="47.01418" lon="8.88139">
        <ele>1344</ele>
        <time>2021-08-03T10:26:02.244Z</time>
      </trkpt>
      <trkpt lat="47.01417" lon="8.88138">
        <ele>1344</ele>
        <time>2021-08-03T10:26:03.243Z</time>
      </trkpt>
      <trkpt lat="47.01416" lon="8.88137">
        <ele>1344</ele>
        <time>2021-08-03T10:26:04.243Z</time>
      </trkpt>
      <trkpt lat="47.01415" lon="8.88136">
        <ele>1345</ele>
        <time>2021-08-03T10:26:05.244Z</time>
      </trkpt>
      <trkpt lat="47.01413" lon="8.88135">
        <ele>1345</ele>
        <time>2021-08-03T10:26:06.243Z</time>
      </trkpt>
      <trkpt lat="47.01412" lon="8.88135">
        <ele>1345</ele>
        <time>2021-08-03T10:26:07.243Z</time>
      </trkpt>
      <trkpt lat="47.01411" lon="8.88134">
        <ele>1345</ele>
        <time>2021-08-03T10:26:08.244Z</time>
      </trkpt>
      <trkpt lat="47.0141" lon="8.88134">
        <ele>1344</ele>
        <time>2021-08-03T10:26:09.243Z</time>
      </trkpt>
      <trkpt lat="47.01409" lon="8.88133">
        <ele>1344</ele>
        <time>2021-08-03T10:26:10.244Z</time>
      </trkpt>
      <trkpt lat="47.01409" lon="8.88132">
        <ele>1344</ele>
        <time>2021-08-03T10:26:11.244Z</time>
      </trkpt>
      <trkpt lat="47.01407" lon="8.88131">
        <ele>1344</ele>
        <time>2021-08-03T10:26:12.244Z</time>
      </trkpt>
      <trkpt lat="47.01406" lon="8.88131">
        <ele>1344</ele>
        <time>2021-08-03T10:26:13.244Z</time>
      </trkpt>
      <trkpt lat="47.01405" lon="8.8813">
        <ele>1344</ele>
        <time>2021-08-03T10:26:14.243Z</time>
      </trkpt>
      <trkpt lat="47.01405" lon="8.88129">
        <ele>1344</ele>
        <time>2021-08-03T10:26:15.244Z</time>
      </trkpt>
      <trkpt lat="47.01404" lon="8.88128">
        <ele>1344</ele>
        <time>2021-08-03T10:26:16.243Z</time>
      </trkpt>
      <trkpt lat="47.01403" lon="8.88128">
        <ele>1345</ele>
        <time>2021-08-03T10:26:17.244Z</time>
      </trkpt>
      <trkpt lat="47.01402" lon="8.88127">
        <ele>1345</ele>
        <time>2021-08-03T10:26:18.243Z</time>
      </trkpt>
      <trkpt lat="47.01401" lon="8.88127">
        <ele>1345</ele>
        <time>2021-08-03T10:26:19.244Z</time>
      </trkpt>
      <trkpt lat="47.014" lon="8.88126">
        <ele>1345</ele>
        <time>2021-08-03T10:26:20.244Z</time>
      </trkpt>
      <trkpt lat="47.01399" lon="8.88126">
        <ele>1345</ele>
        <time>2021-08-03T10:26:21.243Z</time>
      </trkpt>
      <trkpt lat="47.01398" lon="8.88125">
        <ele>1345</ele>
        <time>2021-08-03T10:26:22.243Z</time>
      </trkpt>
      <trkpt lat="47.01397" lon="8.88125">
        <ele>1344</ele>
        <time>2021-08-03T10:26:23.243Z</time>
      </trkpt>
      <trkpt lat="47.01396" lon="8.88124">
        <ele>1344</ele>
        <time>2021-08-03T10:26:24.243Z</time>
      </trkpt>
      <trkpt lat="47.01395" lon="8.88123">
        <ele>1344</ele>
        <time>2021-08-03T10:26:25.244Z</time>
      </trkpt>
      <trkpt lat="47.01394" lon="8.88122">
        <ele>1344</ele>
        <time>2021-08-03T10:26:26.244Z</time>
      </trkpt>
      <trkpt lat="47.01393" lon="8.88121">
        <ele>1344</ele>
        <time>2021-08-03T10:26:27.243Z</time>
      </trkpt>
      <trkpt lat="47.01392" lon="8.8812">
        <ele>1344</ele>
        <time>2021-08-03T10:26:28.244Z</time>
      </trkpt>
      <trkpt lat="47.01391" lon="8.8812">
        <ele>1344</ele>
        <time>2021-08-03T10:26:29.244Z</time>
      </trkpt>
      <trkpt lat="47.0139" lon="8.8812">
        <ele>1345</ele>
        <time>2021-08-03T10:26:30.244Z</time>
      </trkpt>
      <trkpt lat="47.01389" lon="8.8812">
        <ele>1345</ele>
        <time>2021-08-03T10:26:31.244Z</time>
      </trkpt>
      <trkpt lat="47.01388" lon="8.88119">
        <ele>1345</ele>
        <time>2021-08-03T10:26:32.244Z</time>
      </trkpt>
      <trkpt lat="47.01387" lon="8.88119">
        <ele>1346</ele>
        <time>2021-08-03T10:26:33.244Z</time>
      </trkpt>
      <trkpt lat="47.01386" lon="8.88118">
        <ele>1346</ele>
        <time>2021-08-03T10:26:34.243Z</time>
      </trkpt>
      <trkpt lat="47.01385" lon="8.88118">
        <ele>1346</ele>
        <time>2021-08-03T10:26:35.243Z</time>
      </trkpt>
      <trkpt lat="47.01384" lon="8.88117">
        <ele>1346</ele>
        <time>2021-08-03T10:26:36.243Z</time>
      </trkpt>
      <trkpt lat="47.01383" lon="8.88117">
        <ele>1346</ele>
        <time>2021-08-03T10:26:37.244Z</time>
      </trkpt>
      <trkpt lat="47.01382" lon="8.88116">
        <ele>1345</ele>
        <time>2021-08-03T10:26:38.243Z</time>
      </trkpt>
      <trkpt lat="47.01382" lon="8.88115">
        <ele>1345</ele>
        <time>2021-08-03T10:26:39.243Z</time>
      </trkpt>
      <trkpt lat="47.01381" lon="8.88114">
        <ele>1345</ele>
        <time>2021-08-03T10:26:40.244Z</time>
      </trkpt>
      <trkpt lat="47.0138" lon="8.88113">
        <ele>1345</ele>
        <time>2021-08-03T10:26:41.244Z</time>
      </trkpt>
      <trkpt lat="47.01379" lon="8.88112">
        <ele>1345</ele>
        <time>2021-08-03T10:26:42.243Z</time>
      </trkpt>
      <trkpt lat="47.01378" lon="8.88111">
        <ele>1344</ele>
        <time>2021-08-03T10:26:43.243Z</time>
      </trkpt>
      <trkpt lat="47.01377" lon="8.88111">
        <ele>1344</ele>
        <time>2021-08-03T10:26:44.243Z</time>
      </trkpt>
      <trkpt lat="47.01376" lon="8.8811">
        <ele>1343</ele>
        <time>2021-08-03T10:26:45.243Z</time>
      </trkpt>
      <trkpt lat="47.01375" lon="8.8811">
        <ele>1343</ele>
        <time>2021-08-03T10:26:46.243Z</time>
      </trkpt>
      <trkpt lat="47.01374" lon="8.88109">
        <ele>1343</ele>
        <time>2021-08-03T10:26:47.244Z</time>
      </trkpt>
      <trkpt lat="47.01373" lon="8.88108">
        <ele>1343</ele>
        <time>2021-08-03T10:26:48.244Z</time>
      </trkpt>
      <trkpt lat="47.01372" lon="8.88107">
        <ele>1344</ele>
        <time>2021-08-03T10:26:49.244Z</time>
      </trkpt>
      <trkpt lat="47.0137" lon="8.88106">
        <ele>1344</ele>
        <time>2021-08-03T10:26:50.244Z</time>
      </trkpt>
      <trkpt lat="47.0137" lon="8.88105">
        <ele>1344</ele>
        <time>2021-08-03T10:26:51.244Z</time>
      </trkpt>
      <trkpt lat="47.01369" lon="8.88104">
        <ele>1344</ele>
        <time>2021-08-03T10:26:52.243Z</time>
      </trkpt>
      <trkpt lat="47.01368" lon="8.88102">
        <ele>1344</ele>
        <time>2021-08-03T10:26:53.243Z</time>
      </trkpt>
      <trkpt lat="47.01368" lon="8.881">
        <ele>1344</ele>
        <time>2021-08-03T10:26:54.244Z</time>
      </trkpt>
      <trkpt lat="47.01367" lon="8.88098">
        <ele>1344</ele>
        <time>2021-08-03T10:26:55.244Z</time>
      </trkpt>
      <trkpt lat="47.01367" lon="8.88097">
        <ele>1344</ele>
        <time>2021-08-03T10:26:56.244Z</time>
      </trkpt>
      <trkpt lat="47.01367" lon="8.88095">
        <ele>1344</ele>
        <time>2021-08-03T10:26:57.243Z</time>
      </trkpt>
      <trkpt lat="47.01366" lon="8.88093">
        <ele>1344</ele>
        <time>2021-08-03T10:26:58.244Z</time>
      </trkpt>
      <trkpt lat="47.01366" lon="8.88092">
        <ele>1344</ele>
        <time>2021-08-03T10:26:59.244Z</time>
      </trkpt>
      <trkpt lat="47.01365" lon="8.8809">
        <ele>1344</ele>
        <time>2021-08-03T10:27:00.243Z</time>
      </trkpt>
      <trkpt lat="47.01364" lon="8.88089">
        <ele>1344</ele>
        <time>2021-08-03T10:27:01.244Z</time>
      </trkpt>
      <trkpt lat="47.01363" lon="8.88088">
        <ele>1344</ele>
        <time>2021-08-03T10:27:02.243Z</time>
      </trkpt>
      <trkpt lat="47.01362" lon="8.88087">
        <ele>1344</ele>
        <time>2021-08-03T10:27:03.243Z</time>
      </trkpt>
      <trkpt lat="47.01361" lon="8.88086">
        <ele>1344</ele>
        <time>2021-08-03T10:27:04.244Z</time>
      </trkpt>
      <trkpt lat="47.01361" lon="8.88085">
        <ele>1345</ele>
        <time>2021-08-03T10:27:05.244Z</time>
      </trkpt>
      <trkpt lat="47.0136" lon="8.88084">
        <ele>1345</ele>
        <time>2021-08-03T10:27:06.244Z</time>
      </trkpt>
      <trkpt lat="47.01359" lon="8.88083">
        <ele>1345</ele>
        <time>2021-08-03T10:27:07.244Z</time>
      </trkpt>
      <trkpt lat="47.01358" lon="8.88083">
        <ele>1346</ele>
        <time>2021-08-03T10:27:08.243Z</time>
      </trkpt>
      <trkpt lat="47.01357" lon="8.88082">
        <ele>1346</ele>
        <time>2021-08-03T10:27:09.244Z</time>
      </trkpt>
      <trkpt lat="47.01356" lon="8.88082">
        <ele>1346</ele>
        <time>2021-08-03T10:27:10.244Z</time>
      </trkpt>
      <trkpt lat="47.01355" lon="8.88082">
        <ele>1347</ele>
        <time>2021-08-03T10:27:11.243Z</time>
      </trkpt>
      <trkpt lat="47.01354" lon="8.88082">
        <ele>1347</ele>
        <time>2021-08-03T10:27:12.244Z</time>
      </trkpt>
      <trkpt lat="47.01353" lon="8.88082">
        <ele>1347</ele>
        <time>2021-08-03T10:27:13.244Z</time>
      </trkpt>
      <trkpt lat="47.01352" lon="8.88082">
        <ele>1347</ele>
        <time>2021-08-03T10:27:14.244Z</time>
      </trkpt>
      <trkpt lat="47.01352" lon="8.88082">
        <ele>1347</ele>
        <time>2021-08-03T10:27:15.243Z</time>
      </trkpt>
      <trkpt lat="47.01351" lon="8.88082">
        <ele>1347</ele>
        <time>2021-08-03T10:27:16.244Z</time>
      </trkpt>
      <trkpt lat="47.0135" lon="8.88081">
        <ele>1347</ele>
        <time>2021-08-03T10:27:17.244Z</time>
      </trkpt>
      <trkpt lat="47.01349" lon="8.88081">
        <ele>1347</ele>
        <time>2021-08-03T10:27:18.244Z</time>
      </trkpt>
      <trkpt lat="47.01348" lon="8.8808">
        <ele>1347</ele>
        <time>2021-08-03T10:27:19.243Z</time>
      </trkpt>
      <trkpt lat="47.01347" lon="8.8808">
        <ele>1347</ele>
        <time>2021-08-03T10:27:20.244Z</time>
      </trkpt>
      <trkpt lat="47.01347" lon="8.8808">
        <ele>1346</ele>
        <time>2021-08-03T10:27:21.244Z</time>
      </trkpt>
      <trkpt lat="47.01346" lon="8.88079">
        <ele>1346</ele>
        <time>2021-08-03T10:27:22.244Z</time>
      </trkpt>
      <trkpt lat="47.01345" lon="8.88079">
        <ele>1345</ele>
        <time>2021-08-03T10:27:23.244Z</time>
      </trkpt>
      <trkpt lat="47.01344" lon="8.88079">
        <ele>1344</ele>
        <time>2021-08-03T10:27:24.243Z</time>
      </trkpt>
      <trkpt lat="47.01343" lon="8.88079">
        <ele>1344</ele>
        <time>2021-08-03T10:27:25.244Z</time>
      </trkpt>
      <trkpt lat="47.01342" lon="8.88078">
        <ele>1344</ele>
        <time>2021-08-03T10:27:26.244Z</time>
      </trkpt>
      <trkpt lat="47.01341" lon="8.88078">
        <ele>1344</ele>
        <time>2021-08-03T10:27:27.243Z</time>
      </trkpt>
      <trkpt lat="47.0134" lon="8.88079">
        <ele>1344</ele>
        <time>2021-08-03T10:27:28.244Z</time>
      </trkpt>
      <trkpt lat="47.01339" lon="8.88079">
        <ele>1343</ele>
        <time>2021-08-03T10:27:29.244Z</time>
      </trkpt>
      <trkpt lat="47.01338" lon="8.88079">
        <ele>1344</ele>
        <time>2021-08-03T10:27:30.244Z</time>
      </trkpt>
      <trkpt lat="47.01337" lon="8.88079">
        <ele>1344</ele>
        <time>2021-08-03T10:27:31.244Z</time>
      </trkpt>
      <trkpt lat="47.01336" lon="8.88079">
        <ele>1344</ele>
        <time>2021-08-03T10:27:32.244Z</time>
      </trkpt>
      <trkpt lat="47.01334" lon="8.8808">
        <ele>1345</ele>
        <time>2021-08-03T10:27:33.243Z</time>
      </trkpt>
      <trkpt lat="47.01333" lon="8.8808">
        <ele>1345</ele>
        <time>2021-08-03T10:27:34.244Z</time>
      </trkpt>
      <trkpt lat="47.01332" lon="8.8808">
        <ele>1345</ele>
        <time>2021-08-03T10:27:35.243Z</time>
      </trkpt>
      <trkpt lat="47.01331" lon="8.8808">
        <ele>1345</ele>
        <time>2021-08-03T10:27:36.244Z</time>
      </trkpt>
      <trkpt lat="47.0133" lon="8.8808">
        <ele>1345</ele>
        <time>2021-08-03T10:27:37.244Z</time>
      </trkpt>
      <trkpt lat="47.01329" lon="8.8808">
        <ele>1345</ele>
        <time>2021-08-03T10:27:38.244Z</time>
      </trkpt>
      <trkpt lat="47.01328" lon="8.88081">
        <ele>1345</ele>
        <time>2021-08-03T10:27:39.244Z</time>
      </trkpt>
      <trkpt lat="47.01326" lon="8.88082">
        <ele>1346</ele>
        <time>2021-08-03T10:27:40.244Z</time>
      </trkpt>
      <trkpt lat="47.01325" lon="8.88083">
        <ele>1346</ele>
        <time>2021-08-03T10:27:41.244Z</time>
      </trkpt>
      <trkpt lat="47.01324" lon="8.88083">
        <ele>1347</ele>
        <time>2021-08-03T10:27:42.244Z</time>
      </trkpt>
      <trkpt lat="47.01324" lon="8.88084">
        <ele>1347</ele>
        <time>2021-08-03T10:27:43.244Z</time>
      </trkpt>
      <trkpt lat="47.01324" lon="8.88084">
        <ele>1347</ele>
        <time>2021-08-03T10:27:44.244Z</time>
      </trkpt>
      <trkpt lat="47.01322" lon="8.88086">
        <ele>1347</ele>
        <time>2021-08-03T10:27:45.243Z</time>
      </trkpt>
      <trkpt lat="47.01321" lon="8.88087">
        <ele>1347</ele>
        <time>2021-08-03T10:27:46.244Z</time>
      </trkpt>
      <trkpt lat="47.01321" lon="8.88083">
        <ele>1349</ele>
        <time>2021-08-03T10:27:47.244Z</time>
      </trkpt>
      <trkpt lat="47.0132" lon="8.88082">
        <ele>1349</ele>
        <time>2021-08-03T10:27:48.244Z</time>
      </trkpt>
      <trkpt lat="47.01319" lon="8.88081">
        <ele>1349</ele>
        <time>2021-08-03T10:27:49.244Z</time>
      </trkpt>
      <trkpt lat="47.01319" lon="8.88081">
        <ele>1349</ele>
        <time>2021-08-03T10:27:50.245Z</time>
      </trkpt>
      <trkpt lat="47.01318" lon="8.8808">
        <ele>1349</ele>
        <time>2021-08-03T10:27:51.244Z</time>
      </trkpt>
      <trkpt lat="47.01318" lon="8.88081">
        <ele>1350</ele>
        <time>2021-08-03T10:27:52.244Z</time>
      </trkpt>
      <trkpt lat="47.01319" lon="8.88082">
        <ele>1350</ele>
        <time>2021-08-03T10:27:53.245Z</time>
      </trkpt>
      <trkpt lat="47.0132" lon="8.88082">
        <ele>1350</ele>
        <time>2021-08-03T10:27:54.245Z</time>
      </trkpt>
      <trkpt lat="47.01319" lon="8.88082">
        <ele>1350</ele>
        <time>2021-08-03T10:27:55.245Z</time>
      </trkpt>
      <trkpt lat="47.01319" lon="8.88083">
        <ele>1350</ele>
        <time>2021-08-03T10:27:56.246Z</time>
      </trkpt>
      <trkpt lat="47.0132" lon="8.88083">
        <ele>1351</ele>
        <time>2021-08-03T10:27:57.245Z</time>
      </trkpt>
      <trkpt lat="47.01319" lon="8.88084">
        <ele>1350</ele>
        <time>2021-08-03T10:27:58.247Z</time>
      </trkpt>
      <trkpt lat="47.01319" lon="8.88083">
        <ele>1350</ele>
        <time>2021-08-03T10:27:59.247Z</time>
      </trkpt>
      <trkpt lat="47.01319" lon="8.88083">
        <ele>1349</ele>
        <time>2021-08-03T10:28:00.246Z</time>
      </trkpt>
      <trkpt lat="47.01319" lon="8.88082">
        <ele>1348</ele>
        <time>2021-08-03T10:28:01.247Z</time>
      </trkpt>
      <trkpt lat="47.0132" lon="8.88082">
        <ele>1347</ele>
        <time>2021-08-03T10:28:02.246Z</time>
      </trkpt>
      <trkpt lat="47.0132" lon="8.88082">
        <ele>1347</ele>
        <time>2021-08-03T10:28:03.246Z</time>
      </trkpt>
      <trkpt lat="47.01321" lon="8.88083">
        <ele>1346</ele>
        <time>2021-08-03T10:28:04.249Z</time>
      </trkpt>
      <trkpt lat="47.0132" lon="8.88083">
        <ele>1347</ele>
        <time>2021-08-03T10:28:05.248Z</time>
      </trkpt>
      <trkpt lat="47.0132" lon="8.88082">
        <ele>1347</ele>
        <time>2021-08-03T10:28:06.249Z</time>
      </trkpt>
      <trkpt lat="47.01321" lon="8.88082">
        <ele>1352</ele>
        <time>2021-08-03T10:28:07.250Z</time>
      </trkpt>
      <trkpt lat="47.01321" lon="8.88083">
        <ele>1345</ele>
        <time>2021-08-03T10:28:08.250Z</time>
      </trkpt>
      <trkpt lat="47.01321" lon="8.88082">
        <ele>1344</ele>
        <time>2021-08-03T10:28:09.251Z</time>
      </trkpt>
      <trkpt lat="47.01321" lon="8.88081">
        <ele>1343</ele>
        <time>2021-08-03T10:28:10.251Z</time>
      </trkpt>
      <trkpt lat="47.01321" lon="8.88081">
        <ele>1342</ele>
        <time>2021-08-03T10:28:11.251Z</time>
      </trkpt>
      <trkpt lat="47.0132" lon="8.8808">
        <ele>1342</ele>
        <time>2021-08-03T10:28:12.251Z</time>
      </trkpt>
      <trkpt lat="47.0132" lon="8.8808">
        <ele>1341</ele>
        <time>2021-08-03T10:28:13.251Z</time>
      </trkpt>
      <trkpt lat="47.0132" lon="8.8808">
        <ele>1341</ele>
        <time>2021-08-03T10:28:14.251Z</time>
      </trkpt>
      <trkpt lat="47.0132" lon="8.88081">
        <ele>1340</ele>
        <time>2021-08-03T10:28:15.251Z</time>
      </trkpt>
      <trkpt lat="47.01319" lon="8.88082">
        <ele>1340</ele>
        <time>2021-08-03T10:28:16.251Z</time>
      </trkpt>
      <trkpt lat="47.0132" lon="8.88083">
        <ele>1340</ele>
        <time>2021-08-03T10:28:17.251Z</time>
      </trkpt>
      <trkpt lat="47.0132" lon="8.88084">
        <ele>1340</ele>
        <time>2021-08-03T10:28:18.251Z</time>
      </trkpt>
      <trkpt lat="47.0132" lon="8.88084">
        <ele>1340</ele>
        <time>2021-08-03T10:28:19.251Z</time>
      </trkpt>
      <trkpt lat="47.01319" lon="8.88082">
        <ele>1341</ele>
        <time>2021-08-03T10:28:20.252Z</time>
      </trkpt>
      <trkpt lat="47.01319" lon="8.88082">
        <ele>1341</ele>
        <time>2021-08-03T10:28:21.252Z</time>
      </trkpt>
      <trkpt lat="47.01319" lon="8.88081">
        <ele>1341</ele>
        <time>2021-08-03T10:28:22.251Z</time>
      </trkpt>
      <trkpt lat="47.01321" lon="8.88083">
        <ele>1353</ele>
        <time>2021-08-03T10:28:23.252Z</time>
      </trkpt>
      <trkpt lat="47.01321" lon="8.88082">
        <ele>1354</ele>
        <time>2021-08-03T10:28:24.252Z</time>
      </trkpt>
      <trkpt lat="47.0132" lon="8.88081">
        <ele>1354</ele>
        <time>2021-08-03T10:28:25.251Z</time>
      </trkpt>
      <trkpt lat="47.0132" lon="8.88079">
        <ele>1354</ele>
        <time>2021-08-03T10:28:26.252Z</time>
      </trkpt>
      <trkpt lat="47.0132" lon="8.88078">
        <ele>1354</ele>
        <time>2021-08-03T10:28:27.252Z</time>
      </trkpt>
      <trkpt lat="47.0132" lon="8.88076">
        <ele>1353</ele>
        <time>2021-08-03T10:28:28.252Z</time>
      </trkpt>
      <trkpt lat="47.0132" lon="8.88076">
        <ele>1353</ele>
        <time>2021-08-03T10:28:29.252Z</time>
      </trkpt>
      <trkpt lat="47.0132" lon="8.88076">
        <ele>1352</ele>
        <time>2021-08-03T10:28:30.252Z</time>
      </trkpt>
      <trkpt lat="47.0132" lon="8.88076">
        <ele>1352</ele>
        <time>2021-08-03T10:28:31.252Z</time>
      </trkpt>
      <trkpt lat="47.01324" lon="8.88069">
        <ele>1348</ele>
        <time>2021-08-03T10:28:32.253Z</time>
      </trkpt>
      <trkpt lat="47.01324" lon="8.88069">
        <ele>1347</ele>
        <time>2021-08-03T10:28:33.253Z</time>
      </trkpt>
      <trkpt lat="47.01324" lon="8.88069">
        <ele>1347</ele>
        <time>2021-08-03T10:28:34.252Z</time>
      </trkpt>
      <trkpt lat="47.01324" lon="8.88069">
        <ele>1345</ele>
        <time>2021-08-03T10:28:35.253Z</time>
      </trkpt>
      <trkpt lat="47.01325" lon="8.88068">
        <ele>1345</ele>
        <time>2021-08-03T10:28:36.254Z</time>
      </trkpt>
      <trkpt lat="47.01325" lon="8.88068">
        <ele>1345</ele>
        <time>2021-08-03T10:28:37.253Z</time>
      </trkpt>
      <trkpt lat="47.01325" lon="8.88068">
        <ele>1346</ele>
        <time>2021-08-03T10:28:38.254Z</time>
      </trkpt>
      <trkpt lat="47.01324" lon="8.88069">
        <ele>1346</ele>
        <time>2021-08-03T10:28:39.254Z</time>
      </trkpt>
      <trkpt lat="47.01323" lon="8.88068">
        <ele>1351</ele>
        <time>2021-08-03T10:28:40.254Z</time>
      </trkpt>
      <trkpt lat="47.01323" lon="8.88068">
        <ele>1352</ele>
        <time>2021-08-03T10:28:41.255Z</time>
      </trkpt>
      <trkpt lat="47.01323" lon="8.88067">
        <ele>1352</ele>
        <time>2021-08-03T10:28:42.254Z</time>
      </trkpt>
      <trkpt lat="47.01323" lon="8.88066">
        <ele>1353</ele>
        <time>2021-08-03T10:28:43.254Z</time>
      </trkpt>
      <trkpt lat="47.01323" lon="8.88065">
        <ele>1353</ele>
        <time>2021-08-03T10:28:44.255Z</time>
      </trkpt>
      <trkpt lat="47.01323" lon="8.88064">
        <ele>1353</ele>
        <time>2021-08-03T10:28:45.255Z</time>
      </trkpt>
      <trkpt lat="47.01323" lon="8.88063">
        <ele>1353</ele>
        <time>2021-08-03T10:28:46.255Z</time>
      </trkpt>
      <trkpt lat="47.01322" lon="8.88061">
        <ele>1352</ele>
        <time>2021-08-03T10:28:47.254Z</time>
      </trkpt>
      <trkpt lat="47.01322" lon="8.8806">
        <ele>1352</ele>
        <time>2021-08-03T10:28:48.255Z</time>
      </trkpt>
      <trkpt lat="47.01322" lon="8.88059">
        <ele>1352</ele>
        <time>2021-08-03T10:28:49.255Z</time>
      </trkpt>
      <trkpt lat="47.01322" lon="8.88059">
        <ele>1353</ele>
        <time>2021-08-03T10:28:50.255Z</time>
      </trkpt>
      <trkpt lat="47.01322" lon="8.88058">
        <ele>1353</ele>
        <time>2021-08-03T10:28:51.254Z</time>
      </trkpt>
      <trkpt lat="47.01319" lon="8.88057">
        <ele>1356</ele>
        <time>2021-08-03T10:28:52.255Z</time>
      </trkpt>
      <trkpt lat="47.01318" lon="8.88059">
        <ele>1356</ele>
        <time>2021-08-03T10:28:53.255Z</time>
      </trkpt>
      <trkpt lat="47.01318" lon="8.8806">
        <ele>1357</ele>
        <time>2021-08-03T10:28:54.255Z</time>
      </trkpt>
      <trkpt lat="47.01322" lon="8.8806">
        <ele>1353</ele>
        <time>2021-08-03T10:28:55.254Z</time>
      </trkpt>
      <trkpt lat="47.01321" lon="8.88059">
        <ele>1353</ele>
        <time>2021-08-03T10:28:56.254Z</time>
      </trkpt>
      <trkpt lat="47.01321" lon="8.88058">
        <ele>1352</ele>
        <time>2021-08-03T10:28:57.254Z</time>
      </trkpt>
      <trkpt lat="47.01321" lon="8.88058">
        <ele>1352</ele>
        <time>2021-08-03T10:28:58.255Z</time>
      </trkpt>
      <trkpt lat="47.01321" lon="8.88057">
        <ele>1351</ele>
        <time>2021-08-03T10:28:59.255Z</time>
      </trkpt>
      <trkpt lat="47.01321" lon="8.88058">
        <ele>1351</ele>
        <time>2021-08-03T10:29:00.254Z</time>
      </trkpt>
      <trkpt lat="47.01318" lon="8.88058">
        <ele>1352</ele>
        <time>2021-08-03T10:29:01.256Z</time>
      </trkpt>
      <trkpt lat="47.01318" lon="8.88058">
        <ele>1353</ele>
        <time>2021-08-03T10:29:02.256Z</time>
      </trkpt>
      <trkpt lat="47.01319" lon="8.88059">
        <ele>1354</ele>
        <time>2021-08-03T10:29:03.255Z</time>
      </trkpt>
      <trkpt lat="47.01317" lon="8.88057">
        <ele>1355</ele>
        <time>2021-08-03T10:29:04.255Z</time>
      </trkpt>
      <trkpt lat="47.01317" lon="8.88055">
        <ele>1354</ele>
        <time>2021-08-03T10:29:05.256Z</time>
      </trkpt>
      <trkpt lat="47.01317" lon="8.88053">
        <ele>1354</ele>
        <time>2021-08-03T10:29:06.256Z</time>
      </trkpt>
      <trkpt lat="47.01317" lon="8.88051">
        <ele>1353</ele>
        <time>2021-08-03T10:29:07.255Z</time>
      </trkpt>
      <trkpt lat="47.01316" lon="8.88049">
        <ele>1353</ele>
        <time>2021-08-03T10:29:08.256Z</time>
      </trkpt>
      <trkpt lat="47.01316" lon="8.88048">
        <ele>1353</ele>
        <time>2021-08-03T10:29:09.255Z</time>
      </trkpt>
      <trkpt lat="47.01316" lon="8.88046">
        <ele>1352</ele>
        <time>2021-08-03T10:29:10.256Z</time>
      </trkpt>
      <trkpt lat="47.01315" lon="8.88044">
        <ele>1351</ele>
        <time>2021-08-03T10:29:11.256Z</time>
      </trkpt>
      <trkpt lat="47.01316" lon="8.88042">
        <ele>1351</ele>
        <time>2021-08-03T10:29:12.255Z</time>
      </trkpt>
      <trkpt lat="47.01316" lon="8.88041">
        <ele>1350</ele>
        <time>2021-08-03T10:29:13.256Z</time>
      </trkpt>
      <trkpt lat="47.01315" lon="8.88039">
        <ele>1349</ele>
        <time>2021-08-03T10:29:14.256Z</time>
      </trkpt>
      <trkpt lat="47.01314" lon="8.88038">
        <ele>1349</ele>
        <time>2021-08-03T10:29:15.256Z</time>
      </trkpt>
      <trkpt lat="47.01314" lon="8.88036">
        <ele>1348</ele>
        <time>2021-08-03T10:29:16.256Z</time>
      </trkpt>
      <trkpt lat="47.01314" lon="8.88035">
        <ele>1348</ele>
        <time>2021-08-03T10:29:17.256Z</time>
      </trkpt>
      <trkpt lat="47.01313" lon="8.88033">
        <ele>1347</ele>
        <time>2021-08-03T10:29:18.255Z</time>
      </trkpt>
      <trkpt lat="47.01313" lon="8.88032">
        <ele>1347</ele>
        <time>2021-08-03T10:29:19.255Z</time>
      </trkpt>
      <trkpt lat="47.01312" lon="8.88031">
        <ele>1347</ele>
        <time>2021-08-03T10:29:20.256Z</time>
      </trkpt>
      <trkpt lat="47.01312" lon="8.88031">
        <ele>1348</ele>
        <time>2021-08-03T10:29:21.256Z</time>
      </trkpt>
      <trkpt lat="47.01312" lon="8.88031">
        <ele>1349</ele>
        <time>2021-08-03T10:29:22.256Z</time>
      </trkpt>
      <trkpt lat="47.01311" lon="8.88027">
        <ele>1350</ele>
        <time>2021-08-03T10:29:23.256Z</time>
      </trkpt>
      <trkpt lat="47.01311" lon="8.88026">
        <ele>1350</ele>
        <time>2021-08-03T10:29:24.256Z</time>
      </trkpt>
      <trkpt lat="47.01311" lon="8.88025">
        <ele>1350</ele>
        <time>2021-08-03T10:29:25.256Z</time>
      </trkpt>
      <trkpt lat="47.01311" lon="8.88024">
        <ele>1350</ele>
        <time>2021-08-03T10:29:26.256Z</time>
      </trkpt>
      <trkpt lat="47.01311" lon="8.88023">
        <ele>1350</ele>
        <time>2021-08-03T10:29:27.256Z</time>
      </trkpt>
      <trkpt lat="47.01311" lon="8.88022">
        <ele>1350</ele>
        <time>2021-08-03T10:29:28.256Z</time>
      </trkpt>
      <trkpt lat="47.01311" lon="8.8802">
        <ele>1349</ele>
        <time>2021-08-03T10:29:29.256Z</time>
      </trkpt>
      <trkpt lat="47.0131" lon="8.88019">
        <ele>1349</ele>
        <time>2021-08-03T10:29:30.256Z</time>
      </trkpt>
      <trkpt lat="47.0131" lon="8.88019">
        <ele>1349</ele>
        <time>2021-08-03T10:29:31.256Z</time>
      </trkpt>
      <trkpt lat="47.0131" lon="8.8802">
        <ele>1349</ele>
        <time>2021-08-03T10:29:32.256Z</time>
      </trkpt>
      <trkpt lat="47.01309" lon="8.8802">
        <ele>1349</ele>
        <time>2021-08-03T10:29:33.256Z</time>
      </trkpt>
      <trkpt lat="47.01309" lon="8.88019">
        <ele>1350</ele>
        <time>2021-08-03T10:29:34.257Z</time>
      </trkpt>
      <trkpt lat="47.01309" lon="8.88018">
        <ele>1350</ele>
        <time>2021-08-03T10:29:35.257Z</time>
      </trkpt>
      <trkpt lat="47.01309" lon="8.88017">
        <ele>1350</ele>
        <time>2021-08-03T10:29:36.257Z</time>
      </trkpt>
      <trkpt lat="47.01309" lon="8.88016">
        <ele>1350</ele>
        <time>2021-08-03T10:29:37.256Z</time>
      </trkpt>
      <trkpt lat="47.01309" lon="8.88015">
        <ele>1349</ele>
        <time>2021-08-03T10:29:38.256Z</time>
      </trkpt>
      <trkpt lat="47.01308" lon="8.88014">
        <ele>1349</ele>
        <time>2021-08-03T10:29:39.257Z</time>
      </trkpt>
      <trkpt lat="47.01308" lon="8.88012">
        <ele>1348</ele>
        <time>2021-08-03T10:29:40.257Z</time>
      </trkpt>
      <trkpt lat="47.01307" lon="8.88011">
        <ele>1348</ele>
        <time>2021-08-03T10:29:41.256Z</time>
      </trkpt>
      <trkpt lat="47.01307" lon="8.8801">
        <ele>1347</ele>
        <time>2021-08-03T10:29:42.257Z</time>
      </trkpt>
      <trkpt lat="47.01306" lon="8.88009">
        <ele>1347</ele>
        <time>2021-08-03T10:29:43.257Z</time>
      </trkpt>
      <trkpt lat="47.01305" lon="8.88008">
        <ele>1346</ele>
        <time>2021-08-03T10:29:44.257Z</time>
      </trkpt>
      <trkpt lat="47.01305" lon="8.88007">
        <ele>1346</ele>
        <time>2021-08-03T10:29:45.257Z</time>
      </trkpt>
      <trkpt lat="47.01305" lon="8.88005">
        <ele>1345</ele>
        <time>2021-08-03T10:29:46.256Z</time>
      </trkpt>
      <trkpt lat="47.01304" lon="8.88005">
        <ele>1345</ele>
        <time>2021-08-03T10:29:47.257Z</time>
      </trkpt>
      <trkpt lat="47.01304" lon="8.88004">
        <ele>1345</ele>
        <time>2021-08-03T10:29:48.257Z</time>
      </trkpt>
      <trkpt lat="47.01304" lon="8.88003">
        <ele>1345</ele>
        <time>2021-08-03T10:29:49.257Z</time>
      </trkpt>
      <trkpt lat="47.01303" lon="8.88001">
        <ele>1345</ele>
        <time>2021-08-03T10:29:50.256Z</time>
      </trkpt>
      <trkpt lat="47.01303" lon="8.88">
        <ele>1345</ele>
        <time>2021-08-03T10:29:51.256Z</time>
      </trkpt>
      <trkpt lat="47.01303" lon="8.87999">
        <ele>1345</ele>
        <time>2021-08-03T10:29:52.257Z</time>
      </trkpt>
      <trkpt lat="47.01302" lon="8.87997">
        <ele>1345</ele>
        <time>2021-08-03T10:29:53.257Z</time>
      </trkpt>
      <trkpt lat="47.01302" lon="8.87995">
        <ele>1345</ele>
        <time>2021-08-03T10:29:54.257Z</time>
      </trkpt>
      <trkpt lat="47.01301" lon="8.87993">
        <ele>1346</ele>
        <time>2021-08-03T10:29:55.257Z</time>
      </trkpt>
      <trkpt lat="47.01301" lon="8.87992">
        <ele>1346</ele>
        <time>2021-08-03T10:29:56.257Z</time>
      </trkpt>
      <trkpt lat="47.01301" lon="8.8799">
        <ele>1346</ele>
        <time>2021-08-03T10:29:57.257Z</time>
      </trkpt>
      <trkpt lat="47.01301" lon="8.87988">
        <ele>1346</ele>
        <time>2021-08-03T10:29:58.256Z</time>
      </trkpt>
      <trkpt lat="47.013" lon="8.87986">
        <ele>1346</ele>
        <time>2021-08-03T10:29:59.257Z</time>
      </trkpt>
      <trkpt lat="47.013" lon="8.87984">
        <ele>1346</ele>
        <time>2021-08-03T10:30:00.257Z</time>
      </trkpt>
      <trkpt lat="47.013" lon="8.87983">
        <ele>1345</ele>
        <time>2021-08-03T10:30:01.257Z</time>
      </trkpt>
      <trkpt lat="47.013" lon="8.87982">
        <ele>1345</ele>
        <time>2021-08-03T10:30:02.256Z</time>
      </trkpt>
      <trkpt lat="47.013" lon="8.87981">
        <ele>1345</ele>
        <time>2021-08-03T10:30:03.256Z</time>
      </trkpt>
      <trkpt lat="47.013" lon="8.8798">
        <ele>1345</ele>
        <time>2021-08-03T10:30:04.257Z</time>
      </trkpt>
      <trkpt lat="47.01299" lon="8.87979">
        <ele>1345</ele>
        <time>2021-08-03T10:30:05.257Z</time>
      </trkpt>
      <trkpt lat="47.01299" lon="8.87977">
        <ele>1346</ele>
        <time>2021-08-03T10:30:06.257Z</time>
      </trkpt>
      <trkpt lat="47.01299" lon="8.87975">
        <ele>1346</ele>
        <time>2021-08-03T10:30:07.257Z</time>
      </trkpt>
      <trkpt lat="47.01299" lon="8.87973">
        <ele>1346</ele>
        <time>2021-08-03T10:30:08.257Z</time>
      </trkpt>
      <trkpt lat="47.01298" lon="8.87971">
        <ele>1345</ele>
        <time>2021-08-03T10:30:09.257Z</time>
      </trkpt>
      <trkpt lat="47.01298" lon="8.87969">
        <ele>1345</ele>
        <time>2021-08-03T10:30:10.256Z</time>
      </trkpt>
      <trkpt lat="47.01298" lon="8.87968">
        <ele>1345</ele>
        <time>2021-08-03T10:30:11.257Z</time>
      </trkpt>
      <trkpt lat="47.01298" lon="8.87967">
        <ele>1345</ele>
        <time>2021-08-03T10:30:12.257Z</time>
      </trkpt>
      <trkpt lat="47.01298" lon="8.87964">
        <ele>1345</ele>
        <time>2021-08-03T10:30:13.256Z</time>
      </trkpt>
      <trkpt lat="47.01298" lon="8.87962">
        <ele>1345</ele>
        <time>2021-08-03T10:30:14.256Z</time>
      </trkpt>
      <trkpt lat="47.01298" lon="8.8796">
        <ele>1345</ele>
        <time>2021-08-03T10:30:15.257Z</time>
      </trkpt>
      <trkpt lat="47.01298" lon="8.87959">
        <ele>1345</ele>
        <time>2021-08-03T10:30:16.256Z</time>
      </trkpt>
      <trkpt lat="47.01298" lon="8.87958">
        <ele>1345</ele>
        <time>2021-08-03T10:30:17.256Z</time>
      </trkpt>
      <trkpt lat="47.01298" lon="8.87957">
        <ele>1345</ele>
        <time>2021-08-03T10:30:18.256Z</time>
      </trkpt>
      <trkpt lat="47.01298" lon="8.87955">
        <ele>1344</ele>
        <time>2021-08-03T10:30:19.257Z</time>
      </trkpt>
      <trkpt lat="47.01298" lon="8.87954">
        <ele>1344</ele>
        <time>2021-08-03T10:30:20.257Z</time>
      </trkpt>
      <trkpt lat="47.01298" lon="8.87953">
        <ele>1344</ele>
        <time>2021-08-03T10:30:21.256Z</time>
      </trkpt>
      <trkpt lat="47.01298" lon="8.87951">
        <ele>1344</ele>
        <time>2021-08-03T10:30:22.257Z</time>
      </trkpt>
      <trkpt lat="47.01299" lon="8.87949">
        <ele>1343</ele>
        <time>2021-08-03T10:30:23.257Z</time>
      </trkpt>
      <trkpt lat="47.01299" lon="8.87947">
        <ele>1343</ele>
        <time>2021-08-03T10:30:24.256Z</time>
      </trkpt>
      <trkpt lat="47.013" lon="8.87946">
        <ele>1343</ele>
        <time>2021-08-03T10:30:36.332Z</time>
      </trkpt>
      <trkpt lat="47.013" lon="8.87945">
        <ele>1343</ele>
        <time>2021-08-03T10:30:37.332Z</time>
      </trkpt>
      <trkpt lat="47.01301" lon="8.87942">
        <ele>1343</ele>
        <time>2021-08-03T10:30:38.331Z</time>
      </trkpt>
      <trkpt lat="47.01301" lon="8.87941">
        <ele>1343</ele>
        <time>2021-08-03T10:30:39.331Z</time>
      </trkpt>
      <trkpt lat="47.01302" lon="8.87939">
        <ele>1343</ele>
        <time>2021-08-03T10:30:40.332Z</time>
      </trkpt>
      <trkpt lat="47.01302" lon="8.87937">
        <ele>1343</ele>
        <time>2021-08-03T10:30:41.331Z</time>
      </trkpt>
      <trkpt lat="47.01302" lon="8.87936">
        <ele>1343</ele>
        <time>2021-08-03T10:30:42.332Z</time>
      </trkpt>
      <trkpt lat="47.01302" lon="8.87934">
        <ele>1343</ele>
        <time>2021-08-03T10:30:43.332Z</time>
      </trkpt>
      <trkpt lat="47.01303" lon="8.87933">
        <ele>1343</ele>
        <time>2021-08-03T10:30:44.332Z</time>
      </trkpt>
      <trkpt lat="47.01303" lon="8.87931">
        <ele>1343</ele>
        <time>2021-08-03T10:30:45.331Z</time>
      </trkpt>
      <trkpt lat="47.01303" lon="8.8793">
        <ele>1343</ele>
        <time>2021-08-03T10:30:46.332Z</time>
      </trkpt>
      <trkpt lat="47.01304" lon="8.87929">
        <ele>1342</ele>
        <time>2021-08-03T10:30:57.483Z</time>
      </trkpt>
      <trkpt lat="47.01304" lon="8.87928">
        <ele>1343</ele>
        <time>2021-08-03T10:30:58.483Z</time>
      </trkpt>
      <trkpt lat="47.01305" lon="8.87926">
        <ele>1343</ele>
        <time>2021-08-03T10:30:59.483Z</time>
      </trkpt>
      <trkpt lat="47.01305" lon="8.87925">
        <ele>1343</ele>
        <time>2021-08-03T10:31:00.482Z</time>
      </trkpt>
      <trkpt lat="47.01305" lon="8.87923">
        <ele>1344</ele>
        <time>2021-08-03T10:31:01.483Z</time>
      </trkpt>
      <trkpt lat="47.01305" lon="8.87921">
        <ele>1345</ele>
        <time>2021-08-03T10:31:02.483Z</time>
      </trkpt>
      <trkpt lat="47.01305" lon="8.87918">
        <ele>1345</ele>
        <time>2021-08-03T10:31:07.565Z</time>
      </trkpt>
      <trkpt lat="47.01306" lon="8.87916">
        <ele>1346</ele>
        <time>2021-08-03T10:31:08.565Z</time>
      </trkpt>
      <trkpt lat="47.01306" lon="8.87915">
        <ele>1346</ele>
        <time>2021-08-03T10:31:09.565Z</time>
      </trkpt>
      <trkpt lat="47.01306" lon="8.87914">
        <ele>1346</ele>
        <time>2021-08-03T10:31:10.566Z</time>
      </trkpt>
      <trkpt lat="47.01306" lon="8.87913">
        <ele>1346</ele>
        <time>2021-08-03T10:31:11.566Z</time>
      </trkpt>
      <trkpt lat="47.01306" lon="8.87912">
        <ele>1346</ele>
        <time>2021-08-03T10:31:12.565Z</time>
      </trkpt>
      <trkpt lat="47.01306" lon="8.8791">
        <ele>1345</ele>
        <time>2021-08-03T10:31:13.565Z</time>
      </trkpt>
      <trkpt lat="47.01305" lon="8.87909">
        <ele>1345</ele>
        <time>2021-08-03T10:31:14.565Z</time>
      </trkpt>
      <trkpt lat="47.01305" lon="8.87907">
        <ele>1345</ele>
        <time>2021-08-03T10:31:15.566Z</time>
      </trkpt>
      <trkpt lat="47.01305" lon="8.87905">
        <ele>1345</ele>
        <time>2021-08-03T10:31:16.566Z</time>
      </trkpt>
      <trkpt lat="47.01305" lon="8.87904">
        <ele>1345</ele>
        <time>2021-08-03T10:31:17.565Z</time>
      </trkpt>
      <trkpt lat="47.01304" lon="8.87903">
        <ele>1345</ele>
        <time>2021-08-03T10:31:18.565Z</time>
      </trkpt>
      <trkpt lat="47.01304" lon="8.87902">
        <ele>1345</ele>
        <time>2021-08-03T10:31:19.565Z</time>
      </trkpt>
      <trkpt lat="47.01303" lon="8.879">
        <ele>1346</ele>
        <time>2021-08-03T10:31:20.566Z</time>
      </trkpt>
      <trkpt lat="47.01302" lon="8.87899">
        <ele>1346</ele>
        <time>2021-08-03T10:31:21.565Z</time>
      </trkpt>
      <trkpt lat="47.01302" lon="8.87897">
        <ele>1347</ele>
        <time>2021-08-03T10:31:22.565Z</time>
      </trkpt>
      <trkpt lat="47.01302" lon="8.87894">
        <ele>1347</ele>
        <time>2021-08-03T10:31:23.565Z</time>
      </trkpt>
      <trkpt lat="47.01301" lon="8.87892">
        <ele>1348</ele>
        <time>2021-08-03T10:31:24.565Z</time>
      </trkpt>
      <trkpt lat="47.01301" lon="8.87891">
        <ele>1348</ele>
        <time>2021-08-03T10:31:25.566Z</time>
      </trkpt>
      <trkpt lat="47.01301" lon="8.8789">
        <ele>1348</ele>
        <time>2021-08-03T10:31:26.566Z</time>
      </trkpt>
      <trkpt lat="47.01302" lon="8.87888">
        <ele>1348</ele>
        <time>2021-08-03T10:31:27.565Z</time>
      </trkpt>
      <trkpt lat="47.01302" lon="8.87887">
        <ele>1348</ele>
        <time>2021-08-03T10:31:28.565Z</time>
      </trkpt>
      <trkpt lat="47.01301" lon="8.87885">
        <ele>1348</ele>
        <time>2021-08-03T10:31:29.565Z</time>
      </trkpt>
      <trkpt lat="47.01301" lon="8.87883">
        <ele>1349</ele>
        <time>2021-08-03T10:31:30.565Z</time>
      </trkpt>
      <trkpt lat="47.01301" lon="8.87882">
        <ele>1349</ele>
        <time>2021-08-03T10:31:31.566Z</time>
      </trkpt>
      <trkpt lat="47.013" lon="8.87881">
        <ele>1350</ele>
        <time>2021-08-03T10:31:32.565Z</time>
      </trkpt>
      <trkpt lat="47.013" lon="8.8788">
        <ele>1351</ele>
        <time>2021-08-03T10:31:33.565Z</time>
      </trkpt>
      <trkpt lat="47.013" lon="8.87879">
        <ele>1351</ele>
        <time>2021-08-03T10:31:34.565Z</time>
      </trkpt>
      <trkpt lat="47.01299" lon="8.87878">
        <ele>1352</ele>
        <time>2021-08-03T10:31:35.566Z</time>
      </trkpt>
      <trkpt lat="47.01298" lon="8.87877">
        <ele>1352</ele>
        <time>2021-08-03T10:31:36.565Z</time>
      </trkpt>
      <trkpt lat="47.01297" lon="8.87876">
        <ele>1352</ele>
        <time>2021-08-03T10:31:37.565Z</time>
      </trkpt>
      <trkpt lat="47.01296" lon="8.87875">
        <ele>1353</ele>
        <time>2021-08-03T10:31:38.565Z</time>
      </trkpt>
      <trkpt lat="47.01296" lon="8.87874">
        <ele>1353</ele>
        <time>2021-08-03T10:31:39.565Z</time>
      </trkpt>
      <trkpt lat="47.01295" lon="8.87873">
        <ele>1353</ele>
        <time>2021-08-03T10:31:40.566Z</time>
      </trkpt>
      <trkpt lat="47.01295" lon="8.87871">
        <ele>1353</ele>
        <time>2021-08-03T10:31:41.565Z</time>
      </trkpt>
      <trkpt lat="47.01294" lon="8.8787">
        <ele>1353</ele>
        <time>2021-08-03T10:31:42.566Z</time>
      </trkpt>
      <trkpt lat="47.01293" lon="8.87869">
        <ele>1354</ele>
        <time>2021-08-03T10:31:43.565Z</time>
      </trkpt>
      <trkpt lat="47.01292" lon="8.87868">
        <ele>1354</ele>
        <time>2021-08-03T10:31:44.565Z</time>
      </trkpt>
      <trkpt lat="47.01291" lon="8.87868">
        <ele>1354</ele>
        <time>2021-08-03T10:31:45.565Z</time>
      </trkpt>
      <trkpt lat="47.0129" lon="8.87868">
        <ele>1355</ele>
        <time>2021-08-03T10:31:46.565Z</time>
      </trkpt>
      <trkpt lat="47.01289" lon="8.87867">
        <ele>1355</ele>
        <time>2021-08-03T10:31:47.565Z</time>
      </trkpt>
      <trkpt lat="47.01289" lon="8.87866">
        <ele>1355</ele>
        <time>2021-08-03T10:31:48.565Z</time>
      </trkpt>
      <trkpt lat="47.01288" lon="8.87865">
        <ele>1356</ele>
        <time>2021-08-03T10:31:49.565Z</time>
      </trkpt>
      <trkpt lat="47.01288" lon="8.87865">
        <ele>1356</ele>
        <time>2021-08-03T10:31:50.565Z</time>
      </trkpt>
      <trkpt lat="47.01287" lon="8.87865">
        <ele>1356</ele>
        <time>2021-08-03T10:31:51.565Z</time>
      </trkpt>
      <trkpt lat="47.01287" lon="8.87866">
        <ele>1356</ele>
        <time>2021-08-03T10:31:52.565Z</time>
      </trkpt>
      <trkpt lat="47.01286" lon="8.87867">
        <ele>1355</ele>
        <time>2021-08-03T10:31:53.565Z</time>
      </trkpt>
      <trkpt lat="47.01284" lon="8.87868">
        <ele>1361</ele>
        <time>2021-08-03T10:31:54.566Z</time>
      </trkpt>
      <trkpt lat="47.01283" lon="8.87868">
        <ele>1362</ele>
        <time>2021-08-03T10:31:55.566Z</time>
      </trkpt>
      <trkpt lat="47.01282" lon="8.87867">
        <ele>1363</ele>
        <time>2021-08-03T10:31:56.566Z</time>
      </trkpt>
      <trkpt lat="47.01281" lon="8.87866">
        <ele>1364</ele>
        <time>2021-08-03T10:31:57.566Z</time>
      </trkpt>
      <trkpt lat="47.0128" lon="8.87863">
        <ele>1364</ele>
        <time>2021-08-03T10:31:58.566Z</time>
      </trkpt>
      <trkpt lat="47.01281" lon="8.87859">
        <ele>1365</ele>
        <time>2021-08-03T10:31:59.566Z</time>
      </trkpt>
      <trkpt lat="47.01281" lon="8.87856">
        <ele>1366</ele>
        <time>2021-08-03T10:32:00.567Z</time>
      </trkpt>
      <trkpt lat="47.01281" lon="8.87854">
        <ele>1366</ele>
        <time>2021-08-03T10:32:01.566Z</time>
      </trkpt>
      <trkpt lat="47.0128" lon="8.87853">
        <ele>1366</ele>
        <time>2021-08-03T10:32:02.566Z</time>
      </trkpt>
      <trkpt lat="47.01279" lon="8.87852">
        <ele>1365</ele>
        <time>2021-08-03T10:32:03.566Z</time>
      </trkpt>
      <trkpt lat="47.01279" lon="8.87852">
        <ele>1365</ele>
        <time>2021-08-03T10:32:04.566Z</time>
      </trkpt>
      <trkpt lat="47.01277" lon="8.87851">
        <ele>1365</ele>
        <time>2021-08-03T10:32:09.599Z</time>
      </trkpt>
      <trkpt lat="47.01277" lon="8.87851">
        <ele>1364</ele>
        <time>2021-08-03T10:32:10.599Z</time>
      </trkpt>
      <trkpt lat="47.01276" lon="8.8785">
        <ele>1364</ele>
        <time>2021-08-03T10:32:11.599Z</time>
      </trkpt>
      <trkpt lat="47.01275" lon="8.87849">
        <ele>1363</ele>
        <time>2021-08-03T10:32:12.600Z</time>
      </trkpt>
      <trkpt lat="47.01274" lon="8.87848">
        <ele>1363</ele>
        <time>2021-08-03T10:32:13.599Z</time>
      </trkpt>
      <trkpt lat="47.01273" lon="8.87848">
        <ele>1363</ele>
        <time>2021-08-03T10:32:14.600Z</time>
      </trkpt>
      <trkpt lat="47.01272" lon="8.87847">
        <ele>1362</ele>
        <time>2021-08-03T10:32:15.600Z</time>
      </trkpt>
      <trkpt lat="47.01271" lon="8.87847">
        <ele>1362</ele>
        <time>2021-08-03T10:32:16.599Z</time>
      </trkpt>
      <trkpt lat="47.01271" lon="8.87847">
        <ele>1362</ele>
        <time>2021-08-03T10:32:17.600Z</time>
      </trkpt>
      <trkpt lat="47.0127" lon="8.87846">
        <ele>1362</ele>
        <time>2021-08-03T10:32:18.599Z</time>
      </trkpt>
      <trkpt lat="47.01269" lon="8.87845">
        <ele>1362</ele>
        <time>2021-08-03T10:32:19.600Z</time>
      </trkpt>
      <trkpt lat="47.01269" lon="8.87844">
        <ele>1362</ele>
        <time>2021-08-03T10:32:20.600Z</time>
      </trkpt>
      <trkpt lat="47.01268" lon="8.87843">
        <ele>1363</ele>
        <time>2021-08-03T10:32:21.599Z</time>
      </trkpt>
      <trkpt lat="47.01268" lon="8.87842">
        <ele>1363</ele>
        <time>2021-08-03T10:32:22.599Z</time>
      </trkpt>
      <trkpt lat="47.01267" lon="8.87841">
        <ele>1363</ele>
        <time>2021-08-03T10:32:23.599Z</time>
      </trkpt>
      <trkpt lat="47.01266" lon="8.87839">
        <ele>1363</ele>
        <time>2021-08-03T10:32:24.600Z</time>
      </trkpt>
      <trkpt lat="47.01266" lon="8.87838">
        <ele>1363</ele>
        <time>2021-08-03T10:32:25.600Z</time>
      </trkpt>
      <trkpt lat="47.01265" lon="8.87837">
        <ele>1362</ele>
        <time>2021-08-03T10:32:26.599Z</time>
      </trkpt>
      <trkpt lat="47.01264" lon="8.87834">
        <ele>1362</ele>
        <time>2021-08-03T10:32:27.600Z</time>
      </trkpt>
      <trkpt lat="47.01263" lon="8.87832">
        <ele>1361</ele>
        <time>2021-08-03T10:32:28.600Z</time>
      </trkpt>
      <trkpt lat="47.01263" lon="8.87831">
        <ele>1361</ele>
        <time>2021-08-03T10:32:29.600Z</time>
      </trkpt>
      <trkpt lat="47.01263" lon="8.8783">
        <ele>1361</ele>
        <time>2021-08-03T10:32:30.600Z</time>
      </trkpt>
      <trkpt lat="47.01262" lon="8.87828">
        <ele>1360</ele>
        <time>2021-08-03T10:32:31.599Z</time>
      </trkpt>
      <trkpt lat="47.01262" lon="8.87826">
        <ele>1360</ele>
        <time>2021-08-03T10:32:32.600Z</time>
      </trkpt>
      <trkpt lat="47.01263" lon="8.87825">
        <ele>1359</ele>
        <time>2021-08-03T10:32:33.599Z</time>
      </trkpt>
      <trkpt lat="47.01262" lon="8.87823">
        <ele>1359</ele>
        <time>2021-08-03T10:32:34.600Z</time>
      </trkpt>
      <trkpt lat="47.01262" lon="8.8782">
        <ele>1358</ele>
        <time>2021-08-03T10:32:35.600Z</time>
      </trkpt>
      <trkpt lat="47.01262" lon="8.87818">
        <ele>1358</ele>
        <time>2021-08-03T10:32:36.600Z</time>
      </trkpt>
      <trkpt lat="47.01262" lon="8.87816">
        <ele>1357</ele>
        <time>2021-08-03T10:32:37.599Z</time>
      </trkpt>
      <trkpt lat="47.01261" lon="8.87815">
        <ele>1357</ele>
        <time>2021-08-03T10:32:38.600Z</time>
      </trkpt>
      <trkpt lat="47.0126" lon="8.87814">
        <ele>1356</ele>
        <time>2021-08-03T10:32:39.599Z</time>
      </trkpt>
      <trkpt lat="47.0126" lon="8.87812">
        <ele>1356</ele>
        <time>2021-08-03T10:32:40.599Z</time>
      </trkpt>
      <trkpt lat="47.01259" lon="8.87811">
        <ele>1355</ele>
        <time>2021-08-03T10:32:41.599Z</time>
      </trkpt>
      <trkpt lat="47.01258" lon="8.8781">
        <ele>1354</ele>
        <time>2021-08-03T10:32:42.600Z</time>
      </trkpt>
      <trkpt lat="47.01258" lon="8.87808">
        <ele>1354</ele>
        <time>2021-08-03T10:32:43.600Z</time>
      </trkpt>
      <trkpt lat="47.01257" lon="8.87807">
        <ele>1353</ele>
        <time>2021-08-03T10:32:44.600Z</time>
      </trkpt>
      <trkpt lat="47.01257" lon="8.87806">
        <ele>1353</ele>
        <time>2021-08-03T10:32:45.600Z</time>
      </trkpt>
      <trkpt lat="47.01256" lon="8.87804">
        <ele>1353</ele>
        <time>2021-08-03T10:32:46.600Z</time>
      </trkpt>
      <trkpt lat="47.01255" lon="8.87803">
        <ele>1353</ele>
        <time>2021-08-03T10:32:47.600Z</time>
      </trkpt>
      <trkpt lat="47.01255" lon="8.87802">
        <ele>1353</ele>
        <time>2021-08-03T10:32:48.600Z</time>
      </trkpt>
      <trkpt lat="47.01255" lon="8.878">
        <ele>1353</ele>
        <time>2021-08-03T10:32:49.600Z</time>
      </trkpt>
      <trkpt lat="47.01254" lon="8.87799">
        <ele>1353</ele>
        <time>2021-08-03T10:32:50.600Z</time>
      </trkpt>
      <trkpt lat="47.01253" lon="8.87798">
        <ele>1353</ele>
        <time>2021-08-03T10:32:51.600Z</time>
      </trkpt>
      <trkpt lat="47.01253" lon="8.87797">
        <ele>1353</ele>
        <time>2021-08-03T10:32:52.600Z</time>
      </trkpt>
      <trkpt lat="47.01253" lon="8.87796">
        <ele>1353</ele>
        <time>2021-08-03T10:32:53.600Z</time>
      </trkpt>
      <trkpt lat="47.01252" lon="8.87794">
        <ele>1353</ele>
        <time>2021-08-03T10:32:54.600Z</time>
      </trkpt>
      <trkpt lat="47.01252" lon="8.87793">
        <ele>1353</ele>
        <time>2021-08-03T10:32:55.599Z</time>
      </trkpt>
      <trkpt lat="47.01251" lon="8.87793">
        <ele>1353</ele>
        <time>2021-08-03T10:32:56.600Z</time>
      </trkpt>
      <trkpt lat="47.01251" lon="8.87793">
        <ele>1353</ele>
        <time>2021-08-03T10:33:05.692Z</time>
      </trkpt>
      <trkpt lat="47.0125" lon="8.87793">
        <ele>1354</ele>
        <time>2021-08-03T10:33:06.691Z</time>
      </trkpt>
      <trkpt lat="47.01249" lon="8.87793">
        <ele>1354</ele>
        <time>2021-08-03T10:33:08.552Z</time>
      </trkpt>
      <trkpt lat="47.01249" lon="8.87795">
        <ele>1354</ele>
        <time>2021-08-03T10:33:09.551Z</time>
      </trkpt>
      <trkpt lat="47.01248" lon="8.87793">
        <ele>1356</ele>
        <time>2021-08-03T10:33:10.551Z</time>
      </trkpt>
      <trkpt lat="47.01248" lon="8.87791">
        <ele>1356</ele>
        <time>2021-08-03T10:33:11.551Z</time>
      </trkpt>
      <trkpt lat="47.01248" lon="8.8779">
        <ele>1355</ele>
        <time>2021-08-03T10:33:12.551Z</time>
      </trkpt>
      <trkpt lat="47.01248" lon="8.87788">
        <ele>1354</ele>
        <time>2021-08-03T10:33:13.551Z</time>
      </trkpt>
      <trkpt lat="47.01248" lon="8.87787">
        <ele>1353</ele>
        <time>2021-08-03T10:33:14.552Z</time>
      </trkpt>
      <trkpt lat="47.01247" lon="8.87786">
        <ele>1352</ele>
        <time>2021-08-03T10:33:15.552Z</time>
      </trkpt>
      <trkpt lat="47.01247" lon="8.87784">
        <ele>1351</ele>
        <time>2021-08-03T10:33:16.552Z</time>
      </trkpt>
      <trkpt lat="47.01247" lon="8.87783">
        <ele>1350</ele>
        <time>2021-08-03T10:33:17.551Z</time>
      </trkpt>
      <trkpt lat="47.01247" lon="8.87782">
        <ele>1349</ele>
        <time>2021-08-03T10:33:18.552Z</time>
      </trkpt>
      <trkpt lat="47.01246" lon="8.87781">
        <ele>1348</ele>
        <time>2021-08-03T10:33:19.552Z</time>
      </trkpt>
      <trkpt lat="47.01245" lon="8.87779">
        <ele>1348</ele>
        <time>2021-08-03T10:33:20.552Z</time>
      </trkpt>
      <trkpt lat="47.01245" lon="8.87777">
        <ele>1348</ele>
        <time>2021-08-03T10:33:21.551Z</time>
      </trkpt>
      <trkpt lat="47.01244" lon="8.87776">
        <ele>1348</ele>
        <time>2021-08-03T10:33:22.551Z</time>
      </trkpt>
      <trkpt lat="47.01244" lon="8.87774">
        <ele>1349</ele>
        <time>2021-08-03T10:33:23.551Z</time>
      </trkpt>
      <trkpt lat="47.01244" lon="8.87772">
        <ele>1349</ele>
        <time>2021-08-03T10:33:24.552Z</time>
      </trkpt>
      <trkpt lat="47.01244" lon="8.8777">
        <ele>1350</ele>
        <time>2021-08-03T10:33:25.552Z</time>
      </trkpt>
      <trkpt lat="47.01244" lon="8.87769">
        <ele>1350</ele>
        <time>2021-08-03T10:33:26.552Z</time>
      </trkpt>
      <trkpt lat="47.01243" lon="8.87767">
        <ele>1350</ele>
        <time>2021-08-03T10:33:27.551Z</time>
      </trkpt>
      <trkpt lat="47.01243" lon="8.87766">
        <ele>1350</ele>
        <time>2021-08-03T10:33:31.723Z</time>
      </trkpt>
      <trkpt lat="47.01242" lon="8.87764">
        <ele>1350</ele>
        <time>2021-08-03T10:33:32.722Z</time>
      </trkpt>
      <trkpt lat="47.01242" lon="8.87763">
        <ele>1350</ele>
        <time>2021-08-03T10:33:33.722Z</time>
      </trkpt>
      <trkpt lat="47.01242" lon="8.87761">
        <ele>1349</ele>
        <time>2021-08-03T10:33:34.722Z</time>
      </trkpt>
      <trkpt lat="47.01241" lon="8.8776">
        <ele>1349</ele>
        <time>2021-08-03T10:33:35.723Z</time>
      </trkpt>
      <trkpt lat="47.01241" lon="8.87759">
        <ele>1349</ele>
        <time>2021-08-03T10:33:36.722Z</time>
      </trkpt>
      <trkpt lat="47.0124" lon="8.87757">
        <ele>1349</ele>
        <time>2021-08-03T10:33:37.723Z</time>
      </trkpt>
      <trkpt lat="47.0124" lon="8.87756">
        <ele>1348</ele>
        <time>2021-08-03T10:33:38.723Z</time>
      </trkpt>
      <trkpt lat="47.0124" lon="8.87755">
        <ele>1348</ele>
        <time>2021-08-03T10:33:39.723Z</time>
      </trkpt>
      <trkpt lat="47.0124" lon="8.87754">
        <ele>1348</ele>
        <time>2021-08-03T10:33:40.723Z</time>
      </trkpt>
      <trkpt lat="47.01239" lon="8.87753">
        <ele>1348</ele>
        <time>2021-08-03T10:33:41.722Z</time>
      </trkpt>
      <trkpt lat="47.01239" lon="8.87752">
        <ele>1348</ele>
        <time>2021-08-03T10:33:42.723Z</time>
      </trkpt>
      <trkpt lat="47.01239" lon="8.87751">
        <ele>1348</ele>
        <time>2021-08-03T10:33:43.722Z</time>
      </trkpt>
      <trkpt lat="47.01238" lon="8.87749">
        <ele>1348</ele>
        <time>2021-08-03T10:33:44.723Z</time>
      </trkpt>
      <trkpt lat="47.01238" lon="8.87748">
        <ele>1348</ele>
        <time>2021-08-03T10:33:45.722Z</time>
      </trkpt>
      <trkpt lat="47.01237" lon="8.87747">
        <ele>1348</ele>
        <time>2021-08-03T10:33:46.723Z</time>
      </trkpt>
      <trkpt lat="47.01236" lon="8.87745">
        <ele>1348</ele>
        <time>2021-08-03T10:33:47.723Z</time>
      </trkpt>
      <trkpt lat="47.01236" lon="8.87744">
        <ele>1348</ele>
        <time>2021-08-03T10:33:48.723Z</time>
      </trkpt>
      <trkpt lat="47.01236" lon="8.87744">
        <ele>1348</ele>
        <time>2021-08-03T10:33:49.723Z</time>
      </trkpt>
      <trkpt lat="47.01235" lon="8.87743">
        <ele>1348</ele>
        <time>2021-08-03T10:33:50.723Z</time>
      </trkpt>
      <trkpt lat="47.01235" lon="8.87741">
        <ele>1348</ele>
        <time>2021-08-03T10:33:51.723Z</time>
      </trkpt>
      <trkpt lat="47.01235" lon="8.8774">
        <ele>1348</ele>
        <time>2021-08-03T10:33:52.722Z</time>
      </trkpt>
      <trkpt lat="47.01234" lon="8.87738">
        <ele>1347</ele>
        <time>2021-08-03T10:33:53.723Z</time>
      </trkpt>
      <trkpt lat="47.01233" lon="8.87735">
        <ele>1347</ele>
        <time>2021-08-03T10:33:54.722Z</time>
      </trkpt>
      <trkpt lat="47.01232" lon="8.87733">
        <ele>1348</ele>
        <time>2021-08-03T10:33:55.722Z</time>
      </trkpt>
      <trkpt lat="47.01232" lon="8.87732">
        <ele>1348</ele>
        <time>2021-08-03T10:33:56.722Z</time>
      </trkpt>
      <trkpt lat="47.01232" lon="8.87731">
        <ele>1348</ele>
        <time>2021-08-03T10:33:57.722Z</time>
      </trkpt>
      <trkpt lat="47.01232" lon="8.8773">
        <ele>1349</ele>
        <time>2021-08-03T10:33:58.723Z</time>
      </trkpt>
      <trkpt lat="47.01231" lon="8.87729">
        <ele>1349</ele>
        <time>2021-08-03T10:33:59.722Z</time>
      </trkpt>
      <trkpt lat="47.01231" lon="8.87727">
        <ele>1350</ele>
        <time>2021-08-03T10:34:00.723Z</time>
      </trkpt>
      <trkpt lat="47.0123" lon="8.87725">
        <ele>1350</ele>
        <time>2021-08-03T10:34:01.723Z</time>
      </trkpt>
      <trkpt lat="47.0123" lon="8.87725">
        <ele>1351</ele>
        <time>2021-08-03T10:34:02.722Z</time>
      </trkpt>
      <trkpt lat="47.0123" lon="8.87724">
        <ele>1351</ele>
        <time>2021-08-03T10:34:03.723Z</time>
      </trkpt>
      <trkpt lat="47.01229" lon="8.87723">
        <ele>1352</ele>
        <time>2021-08-03T10:34:04.722Z</time>
      </trkpt>
      <trkpt lat="47.01229" lon="8.87722">
        <ele>1353</ele>
        <time>2021-08-03T10:34:05.722Z</time>
      </trkpt>
      <trkpt lat="47.01228" lon="8.87722">
        <ele>1354</ele>
        <time>2021-08-03T10:34:06.722Z</time>
      </trkpt>
      <trkpt lat="47.01228" lon="8.87721">
        <ele>1355</ele>
        <time>2021-08-03T10:34:07.723Z</time>
      </trkpt>
      <trkpt lat="47.01228" lon="8.8772">
        <ele>1356</ele>
        <time>2021-08-03T10:34:08.723Z</time>
      </trkpt>
      <trkpt lat="47.01227" lon="8.87718">
        <ele>1357</ele>
        <time>2021-08-03T10:34:09.722Z</time>
      </trkpt>
      <trkpt lat="47.01227" lon="8.87717">
        <ele>1358</ele>
        <time>2021-08-03T10:34:10.723Z</time>
      </trkpt>
      <trkpt lat="47.01226" lon="8.87716">
        <ele>1358</ele>
        <time>2021-08-03T10:34:11.723Z</time>
      </trkpt>
      <trkpt lat="47.01226" lon="8.87715">
        <ele>1358</ele>
        <time>2021-08-03T10:34:12.723Z</time>
      </trkpt>
      <trkpt lat="47.01225" lon="8.87713">
        <ele>1358</ele>
        <time>2021-08-03T10:34:13.723Z</time>
      </trkpt>
      <trkpt lat="47.01225" lon="8.87712">
        <ele>1358</ele>
        <time>2021-08-03T10:34:14.723Z</time>
      </trkpt>
      <trkpt lat="47.01224" lon="8.87711">
        <ele>1357</ele>
        <time>2021-08-03T10:34:15.722Z</time>
      </trkpt>
      <trkpt lat="47.01224" lon="8.87711">
        <ele>1358</ele>
        <time>2021-08-03T10:34:16.722Z</time>
      </trkpt>
      <trkpt lat="47.01223" lon="8.8771">
        <ele>1358</ele>
        <time>2021-08-03T10:34:17.722Z</time>
      </trkpt>
      <trkpt lat="47.01222" lon="8.87709">
        <ele>1358</ele>
        <time>2021-08-03T10:34:18.722Z</time>
      </trkpt>
      <trkpt lat="47.01221" lon="8.87708">
        <ele>1358</ele>
        <time>2021-08-03T10:34:19.722Z</time>
      </trkpt>
      <trkpt lat="47.0122" lon="8.87707">
        <ele>1359</ele>
        <time>2021-08-03T10:34:20.722Z</time>
      </trkpt>
      <trkpt lat="47.01219" lon="8.87706">
        <ele>1359</ele>
        <time>2021-08-03T10:34:21.722Z</time>
      </trkpt>
      <trkpt lat="47.01219" lon="8.87705">
        <ele>1359</ele>
        <time>2021-08-03T10:34:22.723Z</time>
      </trkpt>
      <trkpt lat="47.01218" lon="8.87704">
        <ele>1359</ele>
        <time>2021-08-03T10:34:23.723Z</time>
      </trkpt>
      <trkpt lat="47.01217" lon="8.87704">
        <ele>1359</ele>
        <time>2021-08-03T10:34:24.723Z</time>
      </trkpt>
      <trkpt lat="47.01217" lon="8.87703">
        <ele>1359</ele>
        <time>2021-08-03T10:34:25.722Z</time>
      </trkpt>
      <trkpt lat="47.01216" lon="8.87702">
        <ele>1359</ele>
        <time>2021-08-03T10:34:26.723Z</time>
      </trkpt>
      <trkpt lat="47.01215" lon="8.87701">
        <ele>1359</ele>
        <time>2021-08-03T10:34:27.723Z</time>
      </trkpt>
      <trkpt lat="47.01215" lon="8.87699">
        <ele>1359</ele>
        <time>2021-08-03T10:34:28.723Z</time>
      </trkpt>
      <trkpt lat="47.01215" lon="8.87698">
        <ele>1359</ele>
        <time>2021-08-03T10:34:29.723Z</time>
      </trkpt>
      <trkpt lat="47.01214" lon="8.87697">
        <ele>1359</ele>
        <time>2021-08-03T10:34:30.723Z</time>
      </trkpt>
      <trkpt lat="47.01214" lon="8.87696">
        <ele>1358</ele>
        <time>2021-08-03T10:34:31.723Z</time>
      </trkpt>
      <trkpt lat="47.01214" lon="8.87695">
        <ele>1358</ele>
        <time>2021-08-03T10:34:32.722Z</time>
      </trkpt>
      <trkpt lat="47.01214" lon="8.87694">
        <ele>1357</ele>
        <time>2021-08-03T10:34:33.722Z</time>
      </trkpt>
      <trkpt lat="47.01214" lon="8.87693">
        <ele>1356</ele>
        <time>2021-08-03T10:34:34.722Z</time>
      </trkpt>
      <trkpt lat="47.01214" lon="8.8769">
        <ele>1355</ele>
        <time>2021-08-03T10:34:35.722Z</time>
      </trkpt>
      <trkpt lat="47.01213" lon="8.87689">
        <ele>1354</ele>
        <time>2021-08-03T10:34:36.722Z</time>
      </trkpt>
      <trkpt lat="47.01212" lon="8.87688">
        <ele>1354</ele>
        <time>2021-08-03T10:34:37.723Z</time>
      </trkpt>
      <trkpt lat="47.01212" lon="8.87687">
        <ele>1354</ele>
        <time>2021-08-03T10:34:38.723Z</time>
      </trkpt>
      <trkpt lat="47.01211" lon="8.87685">
        <ele>1354</ele>
        <time>2021-08-03T10:34:39.723Z</time>
      </trkpt>
      <trkpt lat="47.0121" lon="8.87684">
        <ele>1354</ele>
        <time>2021-08-03T10:34:40.722Z</time>
      </trkpt>
      <trkpt lat="47.0121" lon="8.87682">
        <ele>1354</ele>
        <time>2021-08-03T10:34:41.722Z</time>
      </trkpt>
      <trkpt lat="47.0121" lon="8.8768">
        <ele>1353</ele>
        <time>2021-08-03T10:34:42.723Z</time>
      </trkpt>
      <trkpt lat="47.01209" lon="8.87678">
        <ele>1353</ele>
        <time>2021-08-03T10:34:43.723Z</time>
      </trkpt>
      <trkpt lat="47.01209" lon="8.87677">
        <ele>1353</ele>
        <time>2021-08-03T10:34:44.723Z</time>
      </trkpt>
      <trkpt lat="47.01208" lon="8.87676">
        <ele>1352</ele>
        <time>2021-08-03T10:34:45.722Z</time>
      </trkpt>
      <trkpt lat="47.01207" lon="8.87675">
        <ele>1352</ele>
        <time>2021-08-03T10:34:46.723Z</time>
      </trkpt>
      <trkpt lat="47.01206" lon="8.87674">
        <ele>1352</ele>
        <time>2021-08-03T10:34:47.723Z</time>
      </trkpt>
      <trkpt lat="47.01205" lon="8.87673">
        <ele>1352</ele>
        <time>2021-08-03T10:34:48.723Z</time>
      </trkpt>
      <trkpt lat="47.01204" lon="8.87673">
        <ele>1352</ele>
        <time>2021-08-03T10:34:49.723Z</time>
      </trkpt>
      <trkpt lat="47.01203" lon="8.87671">
        <ele>1353</ele>
        <time>2021-08-03T10:34:50.723Z</time>
      </trkpt>
      <trkpt lat="47.01201" lon="8.8767">
        <ele>1353</ele>
        <time>2021-08-03T10:34:51.723Z</time>
      </trkpt>
      <trkpt lat="47.012" lon="8.87669">
        <ele>1354</ele>
        <time>2021-08-03T10:34:52.723Z</time>
      </trkpt>
      <trkpt lat="47.01199" lon="8.87668">
        <ele>1355</ele>
        <time>2021-08-03T10:34:53.723Z</time>
      </trkpt>
      <trkpt lat="47.01198" lon="8.87667">
        <ele>1355</ele>
        <time>2021-08-03T10:34:54.722Z</time>
      </trkpt>
      <trkpt lat="47.01198" lon="8.87665">
        <ele>1356</ele>
        <time>2021-08-03T10:34:55.723Z</time>
      </trkpt>
      <trkpt lat="47.01197" lon="8.87665">
        <ele>1357</ele>
        <time>2021-08-03T10:34:56.723Z</time>
      </trkpt>
      <trkpt lat="47.01196" lon="8.87664">
        <ele>1359</ele>
        <time>2021-08-03T10:34:57.722Z</time>
      </trkpt>
      <trkpt lat="47.01196" lon="8.87663">
        <ele>1359</ele>
        <time>2021-08-03T10:34:58.723Z</time>
      </trkpt>
      <trkpt lat="47.01195" lon="8.87662">
        <ele>1360</ele>
        <time>2021-08-03T10:34:59.723Z</time>
      </trkpt>
      <trkpt lat="47.01194" lon="8.8766">
        <ele>1360</ele>
        <time>2021-08-03T10:35:00.723Z</time>
      </trkpt>
      <trkpt lat="47.01194" lon="8.87659">
        <ele>1361</ele>
        <time>2021-08-03T10:35:01.722Z</time>
      </trkpt>
      <trkpt lat="47.01193" lon="8.87658">
        <ele>1362</ele>
        <time>2021-08-03T10:35:02.723Z</time>
      </trkpt>
      <trkpt lat="47.01192" lon="8.87656">
        <ele>1363</ele>
        <time>2021-08-03T10:35:03.722Z</time>
      </trkpt>
      <trkpt lat="47.01191" lon="8.87654">
        <ele>1363</ele>
        <time>2021-08-03T10:35:04.723Z</time>
      </trkpt>
      <trkpt lat="47.0119" lon="8.87653">
        <ele>1364</ele>
        <time>2021-08-03T10:35:05.722Z</time>
      </trkpt>
      <trkpt lat="47.01189" lon="8.87653">
        <ele>1364</ele>
        <time>2021-08-03T10:35:06.722Z</time>
      </trkpt>
      <trkpt lat="47.01189" lon="8.87651">
        <ele>1365</ele>
        <time>2021-08-03T10:35:07.722Z</time>
      </trkpt>
      <trkpt lat="47.01188" lon="8.8765">
        <ele>1365</ele>
        <time>2021-08-03T10:35:08.722Z</time>
      </trkpt>
      <trkpt lat="47.01187" lon="8.87649">
        <ele>1365</ele>
        <time>2021-08-03T10:35:09.723Z</time>
      </trkpt>
      <trkpt lat="47.01186" lon="8.87648">
        <ele>1366</ele>
        <time>2021-08-03T10:35:10.722Z</time>
      </trkpt>
      <trkpt lat="47.01185" lon="8.87646">
        <ele>1366</ele>
        <time>2021-08-03T10:35:11.723Z</time>
      </trkpt>
      <trkpt lat="47.01184" lon="8.87645">
        <ele>1366</ele>
        <time>2021-08-03T10:35:12.722Z</time>
      </trkpt>
      <trkpt lat="47.01184" lon="8.87644">
        <ele>1366</ele>
        <time>2021-08-03T10:35:13.723Z</time>
      </trkpt>
      <trkpt lat="47.01183" lon="8.87644">
        <ele>1366</ele>
        <time>2021-08-03T10:35:14.722Z</time>
      </trkpt>
      <trkpt lat="47.01182" lon="8.87643">
        <ele>1366</ele>
        <time>2021-08-03T10:35:15.722Z</time>
      </trkpt>
      <trkpt lat="47.01182" lon="8.87642">
        <ele>1365</ele>
        <time>2021-08-03T10:35:16.723Z</time>
      </trkpt>
      <trkpt lat="47.01182" lon="8.87641">
        <ele>1365</ele>
        <time>2021-08-03T10:35:17.722Z</time>
      </trkpt>
      <trkpt lat="47.01182" lon="8.87639">
        <ele>1364</ele>
        <time>2021-08-03T10:35:18.722Z</time>
      </trkpt>
      <trkpt lat="47.01181" lon="8.87638">
        <ele>1364</ele>
        <time>2021-08-03T10:35:19.722Z</time>
      </trkpt>
      <trkpt lat="47.0118" lon="8.87637">
        <ele>1363</ele>
        <time>2021-08-03T10:35:20.722Z</time>
      </trkpt>
      <trkpt lat="47.0118" lon="8.87636">
        <ele>1363</ele>
        <time>2021-08-03T10:35:21.722Z</time>
      </trkpt>
      <trkpt lat="47.01179" lon="8.87635">
        <ele>1363</ele>
        <time>2021-08-03T10:35:22.722Z</time>
      </trkpt>
      <trkpt lat="47.01179" lon="8.87634">
        <ele>1362</ele>
        <time>2021-08-03T10:35:23.722Z</time>
      </trkpt>
      <trkpt lat="47.01178" lon="8.87633">
        <ele>1362</ele>
        <time>2021-08-03T10:35:24.723Z</time>
      </trkpt>
      <trkpt lat="47.01177" lon="8.87632">
        <ele>1362</ele>
        <time>2021-08-03T10:35:25.722Z</time>
      </trkpt>
      <trkpt lat="47.01177" lon="8.87631">
        <ele>1361</ele>
        <time>2021-08-03T10:35:26.722Z</time>
      </trkpt>
      <trkpt lat="47.01177" lon="8.87629">
        <ele>1361</ele>
        <time>2021-08-03T10:35:27.722Z</time>
      </trkpt>
      <trkpt lat="47.01177" lon="8.87628">
        <ele>1360</ele>
        <time>2021-08-03T10:35:28.722Z</time>
      </trkpt>
      <trkpt lat="47.01176" lon="8.87627">
        <ele>1359</ele>
        <time>2021-08-03T10:35:29.723Z</time>
      </trkpt>
      <trkpt lat="47.01176" lon="8.87626">
        <ele>1360</ele>
        <time>2021-08-03T10:35:30.722Z</time>
      </trkpt>
      <trkpt lat="47.01175" lon="8.87625">
        <ele>1360</ele>
        <time>2021-08-03T10:35:31.722Z</time>
      </trkpt>
      <trkpt lat="47.01175" lon="8.87624">
        <ele>1360</ele>
        <time>2021-08-03T10:35:32.722Z</time>
      </trkpt>
      <trkpt lat="47.01175" lon="8.87623">
        <ele>1360</ele>
        <time>2021-08-03T10:35:33.722Z</time>
      </trkpt>
      <trkpt lat="47.01174" lon="8.87622">
        <ele>1360</ele>
        <time>2021-08-03T10:35:34.722Z</time>
      </trkpt>
      <trkpt lat="47.01174" lon="8.87621">
        <ele>1360</ele>
        <time>2021-08-03T10:35:35.722Z</time>
      </trkpt>
      <trkpt lat="47.01172" lon="8.87621">
        <ele>1361</ele>
        <time>2021-08-03T10:35:36.722Z</time>
      </trkpt>
      <trkpt lat="47.01172" lon="8.8762">
        <ele>1362</ele>
        <time>2021-08-03T10:35:37.723Z</time>
      </trkpt>
      <trkpt lat="47.01171" lon="8.87619">
        <ele>1362</ele>
        <time>2021-08-03T10:35:38.723Z</time>
      </trkpt>
      <trkpt lat="47.0117" lon="8.87618">
        <ele>1363</ele>
        <time>2021-08-03T10:35:39.723Z</time>
      </trkpt>
      <trkpt lat="47.01169" lon="8.87617">
        <ele>1364</ele>
        <time>2021-08-03T10:35:40.722Z</time>
      </trkpt>
      <trkpt lat="47.01169" lon="8.87616">
        <ele>1364</ele>
        <time>2021-08-03T10:35:41.722Z</time>
      </trkpt>
      <trkpt lat="47.01169" lon="8.87615">
        <ele>1365</ele>
        <time>2021-08-03T10:35:42.722Z</time>
      </trkpt>
      <trkpt lat="47.01169" lon="8.87614">
        <ele>1365</ele>
        <time>2021-08-03T10:35:43.723Z</time>
      </trkpt>
      <trkpt lat="47.01168" lon="8.87613">
        <ele>1365</ele>
        <time>2021-08-03T10:35:44.723Z</time>
      </trkpt>
      <trkpt lat="47.01168" lon="8.87612">
        <ele>1366</ele>
        <time>2021-08-03T10:35:45.723Z</time>
      </trkpt>
      <trkpt lat="47.01167" lon="8.87611">
        <ele>1366</ele>
        <time>2021-08-03T10:35:46.723Z</time>
      </trkpt>
      <trkpt lat="47.01167" lon="8.8761">
        <ele>1366</ele>
        <time>2021-08-03T10:35:47.722Z</time>
      </trkpt>
      <trkpt lat="47.01167" lon="8.8761">
        <ele>1366</ele>
        <time>2021-08-03T10:35:48.722Z</time>
      </trkpt>
      <trkpt lat="47.01166" lon="8.87609">
        <ele>1366</ele>
        <time>2021-08-03T10:35:49.723Z</time>
      </trkpt>
      <trkpt lat="47.01166" lon="8.87609">
        <ele>1367</ele>
        <time>2021-08-03T10:35:50.723Z</time>
      </trkpt>
      <trkpt lat="47.01165" lon="8.87608">
        <ele>1367</ele>
        <time>2021-08-03T10:35:51.723Z</time>
      </trkpt>
      <trkpt lat="47.01164" lon="8.87607">
        <ele>1367</ele>
        <time>2021-08-03T10:35:52.723Z</time>
      </trkpt>
      <trkpt lat="47.01163" lon="8.87607">
        <ele>1367</ele>
        <time>2021-08-03T10:35:53.723Z</time>
      </trkpt>
      <trkpt lat="47.01162" lon="8.87606">
        <ele>1367</ele>
        <time>2021-08-03T10:35:54.723Z</time>
      </trkpt>
      <trkpt lat="47.01161" lon="8.87606">
        <ele>1367</ele>
        <time>2021-08-03T10:35:55.723Z</time>
      </trkpt>
      <trkpt lat="47.0116" lon="8.87605">
        <ele>1368</ele>
        <time>2021-08-03T10:35:56.722Z</time>
      </trkpt>
      <trkpt lat="47.0116" lon="8.87605">
        <ele>1368</ele>
        <time>2021-08-03T10:35:57.723Z</time>
      </trkpt>
      <trkpt lat="47.01159" lon="8.87603">
        <ele>1368</ele>
        <time>2021-08-03T10:35:58.723Z</time>
      </trkpt>
      <trkpt lat="47.01158" lon="8.87603">
        <ele>1367</ele>
        <time>2021-08-03T10:35:59.722Z</time>
      </trkpt>
      <trkpt lat="47.01157" lon="8.87601">
        <ele>1367</ele>
        <time>2021-08-03T10:36:00.722Z</time>
      </trkpt>
      <trkpt lat="47.01157" lon="8.876">
        <ele>1367</ele>
        <time>2021-08-03T10:36:01.722Z</time>
      </trkpt>
      <trkpt lat="47.01156" lon="8.87599">
        <ele>1367</ele>
        <time>2021-08-03T10:36:02.723Z</time>
      </trkpt>
      <trkpt lat="47.01156" lon="8.87598">
        <ele>1367</ele>
        <time>2021-08-03T10:36:03.722Z</time>
      </trkpt>
      <trkpt lat="47.01155" lon="8.87597">
        <ele>1368</ele>
        <time>2021-08-03T10:36:04.723Z</time>
      </trkpt>
      <trkpt lat="47.01155" lon="8.87596">
        <ele>1368</ele>
        <time>2021-08-03T10:36:05.722Z</time>
      </trkpt>
      <trkpt lat="47.01154" lon="8.87595">
        <ele>1369</ele>
        <time>2021-08-03T10:36:06.722Z</time>
      </trkpt>
      <trkpt lat="47.01153" lon="8.87595">
        <ele>1370</ele>
        <time>2021-08-03T10:36:07.722Z</time>
      </trkpt>
      <trkpt lat="47.01152" lon="8.87594">
        <ele>1370</ele>
        <time>2021-08-03T10:36:08.722Z</time>
      </trkpt>
      <trkpt lat="47.01151" lon="8.87593">
        <ele>1371</ele>
        <time>2021-08-03T10:36:09.723Z</time>
      </trkpt>
      <trkpt lat="47.0115" lon="8.87592">
        <ele>1372</ele>
        <time>2021-08-03T10:36:10.722Z</time>
      </trkpt>
      <trkpt lat="47.01149" lon="8.87591">
        <ele>1372</ele>
        <time>2021-08-03T10:36:11.722Z</time>
      </trkpt>
      <trkpt lat="47.01148" lon="8.8759">
        <ele>1373</ele>
        <time>2021-08-03T10:36:12.722Z</time>
      </trkpt>
      <trkpt lat="47.01148" lon="8.87589">
        <ele>1374</ele>
        <time>2021-08-03T10:36:13.723Z</time>
      </trkpt>
      <trkpt lat="47.01148" lon="8.87588">
        <ele>1374</ele>
        <time>2021-08-03T10:36:14.723Z</time>
      </trkpt>
      <trkpt lat="47.01147" lon="8.87586">
        <ele>1375</ele>
        <time>2021-08-03T10:36:15.723Z</time>
      </trkpt>
      <trkpt lat="47.01147" lon="8.87585">
        <ele>1375</ele>
        <time>2021-08-03T10:36:16.722Z</time>
      </trkpt>
      <trkpt lat="47.01147" lon="8.87584">
        <ele>1375</ele>
        <time>2021-08-03T10:36:17.722Z</time>
      </trkpt>
      <trkpt lat="47.01147" lon="8.87583">
        <ele>1374</ele>
        <time>2021-08-03T10:36:18.723Z</time>
      </trkpt>
      <trkpt lat="47.01146" lon="8.87582">
        <ele>1374</ele>
        <time>2021-08-03T10:36:19.723Z</time>
      </trkpt>
      <trkpt lat="47.01146" lon="8.87581">
        <ele>1373</ele>
        <time>2021-08-03T10:36:20.722Z</time>
      </trkpt>
      <trkpt lat="47.01145" lon="8.87578">
        <ele>1373</ele>
        <time>2021-08-03T10:36:21.722Z</time>
      </trkpt>
      <trkpt lat="47.01144" lon="8.87576">
        <ele>1374</ele>
        <time>2021-08-03T10:36:22.723Z</time>
      </trkpt>
      <trkpt lat="47.01143" lon="8.87575">
        <ele>1374</ele>
        <time>2021-08-03T10:36:23.723Z</time>
      </trkpt>
      <trkpt lat="47.01142" lon="8.87574">
        <ele>1374</ele>
        <time>2021-08-03T10:36:24.722Z</time>
      </trkpt>
      <trkpt lat="47.01141" lon="8.87573">
        <ele>1374</ele>
        <time>2021-08-03T10:36:25.723Z</time>
      </trkpt>
      <trkpt lat="47.01141" lon="8.87571">
        <ele>1374</ele>
        <time>2021-08-03T10:36:26.722Z</time>
      </trkpt>
      <trkpt lat="47.0114" lon="8.8757">
        <ele>1374</ele>
        <time>2021-08-03T10:36:27.723Z</time>
      </trkpt>
      <trkpt lat="47.01139" lon="8.87569">
        <ele>1374</ele>
        <time>2021-08-03T10:36:28.723Z</time>
      </trkpt>
      <trkpt lat="47.01139" lon="8.87568">
        <ele>1374</ele>
        <time>2021-08-03T10:36:29.723Z</time>
      </trkpt>
      <trkpt lat="47.01138" lon="8.87567">
        <ele>1374</ele>
        <time>2021-08-03T10:36:30.723Z</time>
      </trkpt>
      <trkpt lat="47.01138" lon="8.87566">
        <ele>1374</ele>
        <time>2021-08-03T10:36:31.723Z</time>
      </trkpt>
      <trkpt lat="47.01137" lon="8.87565">
        <ele>1374</ele>
        <time>2021-08-03T10:36:32.723Z</time>
      </trkpt>
      <trkpt lat="47.01137" lon="8.87564">
        <ele>1374</ele>
        <time>2021-08-03T10:36:33.723Z</time>
      </trkpt>
      <trkpt lat="47.01136" lon="8.87563">
        <ele>1373</ele>
        <time>2021-08-03T10:36:34.722Z</time>
      </trkpt>
      <trkpt lat="47.01135" lon="8.87563">
        <ele>1373</ele>
        <time>2021-08-03T10:36:35.723Z</time>
      </trkpt>
      <trkpt lat="47.01134" lon="8.87562">
        <ele>1373</ele>
        <time>2021-08-03T10:36:36.723Z</time>
      </trkpt>
      <trkpt lat="47.01134" lon="8.8756">
        <ele>1373</ele>
        <time>2021-08-03T10:36:37.723Z</time>
      </trkpt>
      <trkpt lat="47.01133" lon="8.87559">
        <ele>1373</ele>
        <time>2021-08-03T10:36:38.723Z</time>
      </trkpt>
      <trkpt lat="47.01132" lon="8.87559">
        <ele>1373</ele>
        <time>2021-08-03T10:36:39.722Z</time>
      </trkpt>
      <trkpt lat="47.01131" lon="8.87557">
        <ele>1373</ele>
        <time>2021-08-03T10:36:40.723Z</time>
      </trkpt>
      <trkpt lat="47.0113" lon="8.87556">
        <ele>1373</ele>
        <time>2021-08-03T10:36:41.722Z</time>
      </trkpt>
      <trkpt lat="47.01129" lon="8.87555">
        <ele>1372</ele>
        <time>2021-08-03T10:36:42.723Z</time>
      </trkpt>
      <trkpt lat="47.01129" lon="8.87555">
        <ele>1372</ele>
        <time>2021-08-03T10:36:43.722Z</time>
      </trkpt>
      <trkpt lat="47.01128" lon="8.87554">
        <ele>1372</ele>
        <time>2021-08-03T10:36:44.723Z</time>
      </trkpt>
      <trkpt lat="47.01127" lon="8.87553">
        <ele>1373</ele>
        <time>2021-08-03T10:36:45.723Z</time>
      </trkpt>
      <trkpt lat="47.01126" lon="8.87552">
        <ele>1373</ele>
        <time>2021-08-03T10:36:46.722Z</time>
      </trkpt>
      <trkpt lat="47.01125" lon="8.87549">
        <ele>1374</ele>
        <time>2021-08-03T10:36:47.722Z</time>
      </trkpt>
      <trkpt lat="47.01125" lon="8.87548">
        <ele>1374</ele>
        <time>2021-08-03T10:36:48.722Z</time>
      </trkpt>
      <trkpt lat="47.01125" lon="8.87547">
        <ele>1374</ele>
        <time>2021-08-03T10:36:49.722Z</time>
      </trkpt>
      <trkpt lat="47.01125" lon="8.87546">
        <ele>1373</ele>
        <time>2021-08-03T10:36:50.722Z</time>
      </trkpt>
      <trkpt lat="47.01124" lon="8.87545">
        <ele>1373</ele>
        <time>2021-08-03T10:36:51.723Z</time>
      </trkpt>
      <trkpt lat="47.01123" lon="8.87545">
        <ele>1373</ele>
        <time>2021-08-03T10:36:52.723Z</time>
      </trkpt>
      <trkpt lat="47.01122" lon="8.87545">
        <ele>1373</ele>
        <time>2021-08-03T10:36:53.722Z</time>
      </trkpt>
      <trkpt lat="47.01121" lon="8.87544">
        <ele>1373</ele>
        <time>2021-08-03T10:36:54.723Z</time>
      </trkpt>
      <trkpt lat="47.0112" lon="8.87542">
        <ele>1373</ele>
        <time>2021-08-03T10:36:55.723Z</time>
      </trkpt>
      <trkpt lat="47.01119" lon="8.87541">
        <ele>1374</ele>
        <time>2021-08-03T10:36:56.722Z</time>
      </trkpt>
      <trkpt lat="47.01118" lon="8.8754">
        <ele>1374</ele>
        <time>2021-08-03T10:36:57.722Z</time>
      </trkpt>
      <trkpt lat="47.01117" lon="8.87538">
        <ele>1374</ele>
        <time>2021-08-03T10:36:58.723Z</time>
      </trkpt>
      <trkpt lat="47.01116" lon="8.87537">
        <ele>1375</ele>
        <time>2021-08-03T10:36:59.723Z</time>
      </trkpt>
      <trkpt lat="47.01115" lon="8.87535">
        <ele>1375</ele>
        <time>2021-08-03T10:37:00.723Z</time>
      </trkpt>
      <trkpt lat="47.01114" lon="8.87533">
        <ele>1375</ele>
        <time>2021-08-03T10:37:01.723Z</time>
      </trkpt>
      <trkpt lat="47.01113" lon="8.87532">
        <ele>1376</ele>
        <time>2021-08-03T10:37:02.723Z</time>
      </trkpt>
      <trkpt lat="47.01113" lon="8.87531">
        <ele>1376</ele>
        <time>2021-08-03T10:37:03.723Z</time>
      </trkpt>
      <trkpt lat="47.01112" lon="8.87529">
        <ele>1377</ele>
        <time>2021-08-03T10:37:04.723Z</time>
      </trkpt>
      <trkpt lat="47.01111" lon="8.87528">
        <ele>1377</ele>
        <time>2021-08-03T10:37:05.722Z</time>
      </trkpt>
      <trkpt lat="47.0111" lon="8.87527">
        <ele>1378</ele>
        <time>2021-08-03T10:37:06.722Z</time>
      </trkpt>
      <trkpt lat="47.0111" lon="8.87526">
        <ele>1378</ele>
        <time>2021-08-03T10:37:07.723Z</time>
      </trkpt>
      <trkpt lat="47.01109" lon="8.87525">
        <ele>1378</ele>
        <time>2021-08-03T10:37:08.722Z</time>
      </trkpt>
      <trkpt lat="47.01109" lon="8.87523">
        <ele>1377</ele>
        <time>2021-08-03T10:37:09.723Z</time>
      </trkpt>
      <trkpt lat="47.01108" lon="8.87522">
        <ele>1376</ele>
        <time>2021-08-03T10:37:10.723Z</time>
      </trkpt>
      <trkpt lat="47.01107" lon="8.87521">
        <ele>1376</ele>
        <time>2021-08-03T10:37:11.723Z</time>
      </trkpt>
      <trkpt lat="47.01107" lon="8.8752">
        <ele>1376</ele>
        <time>2021-08-03T10:37:12.722Z</time>
      </trkpt>
      <trkpt lat="47.01106" lon="8.87519">
        <ele>1375</ele>
        <time>2021-08-03T10:37:13.723Z</time>
      </trkpt>
      <trkpt lat="47.01106" lon="8.87517">
        <ele>1375</ele>
        <time>2021-08-03T10:37:14.722Z</time>
      </trkpt>
      <trkpt lat="47.01105" lon="8.87515">
        <ele>1375</ele>
        <time>2021-08-03T10:37:15.723Z</time>
      </trkpt>
      <trkpt lat="47.01104" lon="8.87513">
        <ele>1375</ele>
        <time>2021-08-03T10:37:16.723Z</time>
      </trkpt>
      <trkpt lat="47.01103" lon="8.87512">
        <ele>1376</ele>
        <time>2021-08-03T10:37:17.723Z</time>
      </trkpt>
      <trkpt lat="47.01103" lon="8.87511">
        <ele>1376</ele>
        <time>2021-08-03T10:37:18.723Z</time>
      </trkpt>
      <trkpt lat="47.01102" lon="8.8751">
        <ele>1376</ele>
        <time>2021-08-03T10:37:19.723Z</time>
      </trkpt>
      <trkpt lat="47.01101" lon="8.87509">
        <ele>1377</ele>
        <time>2021-08-03T10:37:20.722Z</time>
      </trkpt>
      <trkpt lat="47.01101" lon="8.87509">
        <ele>1377</ele>
        <time>2021-08-03T10:37:21.723Z</time>
      </trkpt>
      <trkpt lat="47.011" lon="8.87508">
        <ele>1377</ele>
        <time>2021-08-03T10:37:22.723Z</time>
      </trkpt>
      <trkpt lat="47.01099" lon="8.87507">
        <ele>1378</ele>
        <time>2021-08-03T10:37:23.723Z</time>
      </trkpt>
      <trkpt lat="47.01098" lon="8.87506">
        <ele>1378</ele>
        <time>2021-08-03T10:37:24.723Z</time>
      </trkpt>
      <trkpt lat="47.01097" lon="8.87506">
        <ele>1379</ele>
        <time>2021-08-03T10:37:25.722Z</time>
      </trkpt>
      <trkpt lat="47.01096" lon="8.87506">
        <ele>1379</ele>
        <time>2021-08-03T10:37:26.723Z</time>
      </trkpt>
      <trkpt lat="47.01095" lon="8.87505">
        <ele>1379</ele>
        <time>2021-08-03T10:37:27.723Z</time>
      </trkpt>
      <trkpt lat="47.01094" lon="8.87505">
        <ele>1380</ele>
        <time>2021-08-03T10:37:28.723Z</time>
      </trkpt>
      <trkpt lat="47.01093" lon="8.87504">
        <ele>1380</ele>
        <time>2021-08-03T10:37:29.722Z</time>
      </trkpt>
      <trkpt lat="47.01092" lon="8.87503">
        <ele>1380</ele>
        <time>2021-08-03T10:37:30.723Z</time>
      </trkpt>
      <trkpt lat="47.01091" lon="8.87503">
        <ele>1380</ele>
        <time>2021-08-03T10:37:31.723Z</time>
      </trkpt>
      <trkpt lat="47.01089" lon="8.87502">
        <ele>1380</ele>
        <time>2021-08-03T10:37:32.723Z</time>
      </trkpt>
      <trkpt lat="47.01088" lon="8.87502">
        <ele>1380</ele>
        <time>2021-08-03T10:37:33.723Z</time>
      </trkpt>
      <trkpt lat="47.01087" lon="8.87501">
        <ele>1380</ele>
        <time>2021-08-03T10:37:34.723Z</time>
      </trkpt>
      <trkpt lat="47.01086" lon="8.87501">
        <ele>1380</ele>
        <time>2021-08-03T10:37:35.723Z</time>
      </trkpt>
      <trkpt lat="47.01085" lon="8.87501">
        <ele>1381</ele>
        <time>2021-08-03T10:37:36.722Z</time>
      </trkpt>
      <trkpt lat="47.01084" lon="8.875">
        <ele>1381</ele>
        <time>2021-08-03T10:37:37.723Z</time>
      </trkpt>
      <trkpt lat="47.01083" lon="8.87499">
        <ele>1381</ele>
        <time>2021-08-03T10:37:38.723Z</time>
      </trkpt>
      <trkpt lat="47.01082" lon="8.87499">
        <ele>1381</ele>
        <time>2021-08-03T10:37:39.723Z</time>
      </trkpt>
      <trkpt lat="47.01081" lon="8.87499">
        <ele>1381</ele>
        <time>2021-08-03T10:37:40.722Z</time>
      </trkpt>
      <trkpt lat="47.0108" lon="8.87499">
        <ele>1381</ele>
        <time>2021-08-03T10:37:41.723Z</time>
      </trkpt>
      <trkpt lat="47.01079" lon="8.87499">
        <ele>1380</ele>
        <time>2021-08-03T10:37:42.723Z</time>
      </trkpt>
      <trkpt lat="47.01077" lon="8.87499">
        <ele>1380</ele>
        <time>2021-08-03T10:37:43.723Z</time>
      </trkpt>
      <trkpt lat="47.01076" lon="8.87499">
        <ele>1380</ele>
        <time>2021-08-03T10:37:44.722Z</time>
      </trkpt>
      <trkpt lat="47.01075" lon="8.87499">
        <ele>1380</ele>
        <time>2021-08-03T10:37:45.723Z</time>
      </trkpt>
      <trkpt lat="47.01074" lon="8.87499">
        <ele>1380</ele>
        <time>2021-08-03T10:37:46.723Z</time>
      </trkpt>
      <trkpt lat="47.01073" lon="8.87498">
        <ele>1380</ele>
        <time>2021-08-03T10:37:47.722Z</time>
      </trkpt>
      <trkpt lat="47.01072" lon="8.87499">
        <ele>1381</ele>
        <time>2021-08-03T10:37:48.722Z</time>
      </trkpt>
      <trkpt lat="47.0107" lon="8.87499">
        <ele>1381</ele>
        <time>2021-08-03T10:37:49.722Z</time>
      </trkpt>
      <trkpt lat="47.0107" lon="8.87499">
        <ele>1382</ele>
        <time>2021-08-03T10:37:50.722Z</time>
      </trkpt>
      <trkpt lat="47.01069" lon="8.87498">
        <ele>1382</ele>
        <time>2021-08-03T10:37:51.723Z</time>
      </trkpt>
      <trkpt lat="47.01068" lon="8.87498">
        <ele>1383</ele>
        <time>2021-08-03T10:37:52.722Z</time>
      </trkpt>
      <trkpt lat="47.01067" lon="8.87497">
        <ele>1383</ele>
        <time>2021-08-03T10:37:53.723Z</time>
      </trkpt>
      <trkpt lat="47.01066" lon="8.87496">
        <ele>1383</ele>
        <time>2021-08-03T10:37:54.722Z</time>
      </trkpt>
      <trkpt lat="47.01065" lon="8.87496">
        <ele>1383</ele>
        <time>2021-08-03T10:37:55.722Z</time>
      </trkpt>
      <trkpt lat="47.01064" lon="8.87495">
        <ele>1383</ele>
        <time>2021-08-03T10:37:56.722Z</time>
      </trkpt>
      <trkpt lat="47.01063" lon="8.87494">
        <ele>1383</ele>
        <time>2021-08-03T10:37:57.723Z</time>
      </trkpt>
      <trkpt lat="47.01062" lon="8.87493">
        <ele>1383</ele>
        <time>2021-08-03T10:37:58.723Z</time>
      </trkpt>
      <trkpt lat="47.01061" lon="8.87492">
        <ele>1383</ele>
        <time>2021-08-03T10:37:59.722Z</time>
      </trkpt>
      <trkpt lat="47.0106" lon="8.87491">
        <ele>1382</ele>
        <time>2021-08-03T10:38:00.723Z</time>
      </trkpt>
      <trkpt lat="47.01059" lon="8.8749">
        <ele>1382</ele>
        <time>2021-08-03T10:38:01.723Z</time>
      </trkpt>
      <trkpt lat="47.01059" lon="8.87489">
        <ele>1382</ele>
        <time>2021-08-03T10:38:02.722Z</time>
      </trkpt>
      <trkpt lat="47.01058" lon="8.87488">
        <ele>1382</ele>
        <time>2021-08-03T10:38:03.723Z</time>
      </trkpt>
      <trkpt lat="47.01057" lon="8.87487">
        <ele>1381</ele>
        <time>2021-08-03T10:38:04.723Z</time>
      </trkpt>
      <trkpt lat="47.01057" lon="8.87485">
        <ele>1381</ele>
        <time>2021-08-03T10:38:05.723Z</time>
      </trkpt>
      <trkpt lat="47.01056" lon="8.87484">
        <ele>1381</ele>
        <time>2021-08-03T10:38:06.723Z</time>
      </trkpt>
      <trkpt lat="47.01055" lon="8.87483">
        <ele>1381</ele>
        <time>2021-08-03T10:38:07.723Z</time>
      </trkpt>
      <trkpt lat="47.01054" lon="8.87481">
        <ele>1381</ele>
        <time>2021-08-03T10:38:08.722Z</time>
      </trkpt>
      <trkpt lat="47.01053" lon="8.8748">
        <ele>1381</ele>
        <time>2021-08-03T10:38:09.722Z</time>
      </trkpt>
      <trkpt lat="47.01052" lon="8.87478">
        <ele>1381</ele>
        <time>2021-08-03T10:38:10.723Z</time>
      </trkpt>
      <trkpt lat="47.01051" lon="8.87475">
        <ele>1381</ele>
        <time>2021-08-03T10:38:11.723Z</time>
      </trkpt>
      <trkpt lat="47.01051" lon="8.87474">
        <ele>1381</ele>
        <time>2021-08-03T10:38:12.722Z</time>
      </trkpt>
      <trkpt lat="47.0105" lon="8.87473">
        <ele>1381</ele>
        <time>2021-08-03T10:38:13.723Z</time>
      </trkpt>
      <trkpt lat="47.01049" lon="8.87472">
        <ele>1381</ele>
        <time>2021-08-03T10:38:14.723Z</time>
      </trkpt>
      <trkpt lat="47.01049" lon="8.8747">
        <ele>1381</ele>
        <time>2021-08-03T10:38:15.722Z</time>
      </trkpt>
      <trkpt lat="47.01048" lon="8.87469">
        <ele>1382</ele>
        <time>2021-08-03T10:38:16.723Z</time>
      </trkpt>
      <trkpt lat="47.01048" lon="8.87467">
        <ele>1382</ele>
        <time>2021-08-03T10:38:17.723Z</time>
      </trkpt>
      <trkpt lat="47.01047" lon="8.87466">
        <ele>1382</ele>
        <time>2021-08-03T10:38:18.723Z</time>
      </trkpt>
      <trkpt lat="47.01047" lon="8.87464">
        <ele>1382</ele>
        <time>2021-08-03T10:38:19.723Z</time>
      </trkpt>
      <trkpt lat="47.01047" lon="8.87463">
        <ele>1382</ele>
        <time>2021-08-03T10:38:20.723Z</time>
      </trkpt>
      <trkpt lat="47.01046" lon="8.87461">
        <ele>1381</ele>
        <time>2021-08-03T10:38:21.723Z</time>
      </trkpt>
      <trkpt lat="47.01046" lon="8.87459">
        <ele>1381</ele>
        <time>2021-08-03T10:38:22.723Z</time>
      </trkpt>
      <trkpt lat="47.01046" lon="8.87457">
        <ele>1380</ele>
        <time>2021-08-03T10:38:23.723Z</time>
      </trkpt>
      <trkpt lat="47.01045" lon="8.87456">
        <ele>1381</ele>
        <time>2021-08-03T10:38:24.723Z</time>
      </trkpt>
      <trkpt lat="47.01044" lon="8.87454">
        <ele>1380</ele>
        <time>2021-08-03T10:38:25.723Z</time>
      </trkpt>
      <trkpt lat="47.01044" lon="8.87453">
        <ele>1380</ele>
        <time>2021-08-03T10:38:26.723Z</time>
      </trkpt>
      <trkpt lat="47.01043" lon="8.87451">
        <ele>1380</ele>
        <time>2021-08-03T10:38:27.722Z</time>
      </trkpt>
      <trkpt lat="47.01043" lon="8.87449">
        <ele>1380</ele>
        <time>2021-08-03T10:38:28.723Z</time>
      </trkpt>
      <trkpt lat="47.01042" lon="8.87447">
        <ele>1380</ele>
        <time>2021-08-03T10:38:29.722Z</time>
      </trkpt>
      <trkpt lat="47.01041" lon="8.87446">
        <ele>1380</ele>
        <time>2021-08-03T10:38:30.723Z</time>
      </trkpt>
      <trkpt lat="47.0104" lon="8.87445">
        <ele>1379</ele>
        <time>2021-08-03T10:38:31.723Z</time>
      </trkpt>
      <trkpt lat="47.0104" lon="8.87443">
        <ele>1379</ele>
        <time>2021-08-03T10:38:32.722Z</time>
      </trkpt>
      <trkpt lat="47.01039" lon="8.87442">
        <ele>1379</ele>
        <time>2021-08-03T10:38:33.723Z</time>
      </trkpt>
      <trkpt lat="47.01038" lon="8.87441">
        <ele>1379</ele>
        <time>2021-08-03T10:38:34.723Z</time>
      </trkpt>
      <trkpt lat="47.01038" lon="8.8744">
        <ele>1379</ele>
        <time>2021-08-03T10:38:35.722Z</time>
      </trkpt>
      <trkpt lat="47.01038" lon="8.87439">
        <ele>1379</ele>
        <time>2021-08-03T10:38:36.723Z</time>
      </trkpt>
      <trkpt lat="47.01037" lon="8.87438">
        <ele>1378</ele>
        <time>2021-08-03T10:38:37.723Z</time>
      </trkpt>
      <trkpt lat="47.01037" lon="8.87436">
        <ele>1378</ele>
        <time>2021-08-03T10:38:38.723Z</time>
      </trkpt>
      <trkpt lat="47.01038" lon="8.87435">
        <ele>1377</ele>
        <time>2021-08-03T10:38:39.723Z</time>
      </trkpt>
      <trkpt lat="47.01038" lon="8.87434">
        <ele>1377</ele>
        <time>2021-08-03T10:38:40.723Z</time>
      </trkpt>
      <trkpt lat="47.01038" lon="8.87434">
        <ele>1377</ele>
        <time>2021-08-03T10:38:41.723Z</time>
      </trkpt>
      <trkpt lat="47.01038" lon="8.87435">
        <ele>1378</ele>
        <time>2021-08-03T10:38:42.723Z</time>
      </trkpt>
      <trkpt lat="47.01038" lon="8.87436">
        <ele>1378</ele>
        <time>2021-08-03T10:38:43.722Z</time>
      </trkpt>
      <trkpt lat="47.01037" lon="8.87436">
        <ele>1378</ele>
        <time>2021-08-03T10:38:44.723Z</time>
      </trkpt>
      <trkpt lat="47.01037" lon="8.87435">
        <ele>1378</ele>
        <time>2021-08-03T10:38:58.824Z</time>
      </trkpt>
      <trkpt lat="47.01037" lon="8.87433">
        <ele>1379</ele>
        <time>2021-08-03T10:38:59.825Z</time>
      </trkpt>
      <trkpt lat="47.01037" lon="8.87433">
        <ele>1379</ele>
        <time>2021-08-03T10:39:00.824Z</time>
      </trkpt>
      <trkpt lat="47.01038" lon="8.87432">
        <ele>1378</ele>
        <time>2021-08-03T10:39:01.825Z</time>
      </trkpt>
      <trkpt lat="47.01038" lon="8.87431">
        <ele>1378</ele>
        <time>2021-08-03T10:39:02.824Z</time>
      </trkpt>
      <trkpt lat="47.01039" lon="8.87429">
        <ele>1377</ele>
        <time>2021-08-03T10:39:03.824Z</time>
      </trkpt>
      <trkpt lat="47.0104" lon="8.87427">
        <ele>1377</ele>
        <time>2021-08-03T10:39:04.825Z</time>
      </trkpt>
      <trkpt lat="47.0104" lon="8.87426">
        <ele>1376</ele>
        <time>2021-08-03T10:39:05.825Z</time>
      </trkpt>
      <trkpt lat="47.0104" lon="8.87425">
        <ele>1376</ele>
        <time>2021-08-03T10:39:06.824Z</time>
      </trkpt>
      <trkpt lat="47.0104" lon="8.87424">
        <ele>1376</ele>
        <time>2021-08-03T10:39:07.824Z</time>
      </trkpt>
      <trkpt lat="47.0104" lon="8.87423">
        <ele>1376</ele>
        <time>2021-08-03T10:39:08.825Z</time>
      </trkpt>
      <trkpt lat="47.0104" lon="8.87422">
        <ele>1376</ele>
        <time>2021-08-03T10:39:09.825Z</time>
      </trkpt>
      <trkpt lat="47.0104" lon="8.8742">
        <ele>1377</ele>
        <time>2021-08-03T10:39:10.824Z</time>
      </trkpt>
      <trkpt lat="47.01039" lon="8.87419">
        <ele>1378</ele>
        <time>2021-08-03T10:39:11.825Z</time>
      </trkpt>
      <trkpt lat="47.01039" lon="8.87418">
        <ele>1379</ele>
        <time>2021-08-03T10:39:12.825Z</time>
      </trkpt>
      <trkpt lat="47.01039" lon="8.87417">
        <ele>1379</ele>
        <time>2021-08-03T10:39:13.824Z</time>
      </trkpt>
      <trkpt lat="47.01039" lon="8.87416">
        <ele>1380</ele>
        <time>2021-08-03T10:39:14.825Z</time>
      </trkpt>
      <trkpt lat="47.01039" lon="8.87415">
        <ele>1380</ele>
        <time>2021-08-03T10:39:15.824Z</time>
      </trkpt>
      <trkpt lat="47.01039" lon="8.87414">
        <ele>1380</ele>
        <time>2021-08-03T10:39:16.825Z</time>
      </trkpt>
      <trkpt lat="47.01038" lon="8.87413">
        <ele>1380</ele>
        <time>2021-08-03T10:39:17.824Z</time>
      </trkpt>
      <trkpt lat="47.01038" lon="8.87413">
        <ele>1380</ele>
        <time>2021-08-03T10:39:18.824Z</time>
      </trkpt>
      <trkpt lat="47.01037" lon="8.87412">
        <ele>1381</ele>
        <time>2021-08-03T10:39:19.824Z</time>
      </trkpt>
      <trkpt lat="47.01036" lon="8.87411">
        <ele>1381</ele>
        <time>2021-08-03T10:39:20.824Z</time>
      </trkpt>
      <trkpt lat="47.01035" lon="8.8741">
        <ele>1381</ele>
        <time>2021-08-03T10:39:21.825Z</time>
      </trkpt>
      <trkpt lat="47.01035" lon="8.87409">
        <ele>1382</ele>
        <time>2021-08-03T10:39:22.825Z</time>
      </trkpt>
      <trkpt lat="47.01034" lon="8.87408">
        <ele>1382</ele>
        <time>2021-08-03T10:39:23.825Z</time>
      </trkpt>
      <trkpt lat="47.01033" lon="8.87407">
        <ele>1383</ele>
        <time>2021-08-03T10:39:24.824Z</time>
      </trkpt>
      <trkpt lat="47.01032" lon="8.87406">
        <ele>1383</ele>
        <time>2021-08-03T10:39:25.825Z</time>
      </trkpt>
      <trkpt lat="47.01032" lon="8.87406">
        <ele>1384</ele>
        <time>2021-08-03T10:39:26.824Z</time>
      </trkpt>
      <trkpt lat="47.01031" lon="8.87406">
        <ele>1384</ele>
        <time>2021-08-03T10:39:27.825Z</time>
      </trkpt>
      <trkpt lat="47.01031" lon="8.87405">
        <ele>1384</ele>
        <time>2021-08-03T10:39:28.824Z</time>
      </trkpt>
      <trkpt lat="47.0103" lon="8.87404">
        <ele>1384</ele>
        <time>2021-08-03T10:39:29.825Z</time>
      </trkpt>
      <trkpt lat="47.0103" lon="8.87404">
        <ele>1384</ele>
        <time>2021-08-03T10:39:30.824Z</time>
      </trkpt>
      <trkpt lat="47.01029" lon="8.87403">
        <ele>1385</ele>
        <time>2021-08-03T10:39:31.825Z</time>
      </trkpt>
      <trkpt lat="47.01029" lon="8.87402">
        <ele>1385</ele>
        <time>2021-08-03T10:39:32.824Z</time>
      </trkpt>
      <trkpt lat="47.01029" lon="8.87401">
        <ele>1385</ele>
        <time>2021-08-03T10:39:33.824Z</time>
      </trkpt>
      <trkpt lat="47.01029" lon="8.87401">
        <ele>1385</ele>
        <time>2021-08-03T10:39:34.825Z</time>
      </trkpt>
      <trkpt lat="47.01029" lon="8.87401">
        <ele>1385</ele>
        <time>2021-08-03T10:39:35.824Z</time>
      </trkpt>
      <trkpt lat="47.0103" lon="8.874">
        <ele>1385</ele>
        <time>2021-08-03T10:39:36.825Z</time>
      </trkpt>
      <trkpt lat="47.0103" lon="8.87401">
        <ele>1386</ele>
        <time>2021-08-03T10:39:37.824Z</time>
      </trkpt>
      <trkpt lat="47.0103" lon="8.87401">
        <ele>1386</ele>
        <time>2021-08-03T10:39:38.824Z</time>
      </trkpt>
      <trkpt lat="47.01031" lon="8.874">
        <ele>1386</ele>
        <time>2021-08-03T10:39:39.825Z</time>
      </trkpt>
      <trkpt lat="47.01031" lon="8.874">
        <ele>1387</ele>
        <time>2021-08-03T10:39:40.824Z</time>
      </trkpt>
      <trkpt lat="47.01031" lon="8.87399">
        <ele>1388</ele>
        <time>2021-08-03T10:39:41.824Z</time>
      </trkpt>
      <trkpt lat="47.0103" lon="8.87403">
        <ele>1401</ele>
        <time>2021-08-03T10:39:42.824Z</time>
      </trkpt>
      <trkpt lat="47.0103" lon="8.87403">
        <ele>1402</ele>
        <time>2021-08-03T10:39:43.824Z</time>
      </trkpt>
      <trkpt lat="47.01032" lon="8.87403">
        <ele>1403</ele>
        <time>2021-08-03T10:39:44.824Z</time>
      </trkpt>
      <trkpt lat="47.01034" lon="8.87404">
        <ele>1405</ele>
        <time>2021-08-03T10:39:45.825Z</time>
      </trkpt>
      <trkpt lat="47.01036" lon="8.87407">
        <ele>1414</ele>
        <time>2021-08-03T10:39:46.827Z</time>
      </trkpt>
      <trkpt lat="47.01035" lon="8.87407">
        <ele>1415</ele>
        <time>2021-08-03T10:39:47.827Z</time>
      </trkpt>
      <trkpt lat="47.01035" lon="8.87408">
        <ele>1416</ele>
        <time>2021-08-03T10:39:48.826Z</time>
      </trkpt>
      <trkpt lat="47.01035" lon="8.87408">
        <ele>1417</ele>
        <time>2021-08-03T10:39:49.826Z</time>
      </trkpt>
      <trkpt lat="47.01034" lon="8.87406">
        <ele>1410</ele>
        <time>2021-08-03T10:39:50.827Z</time>
      </trkpt>
      <trkpt lat="47.01034" lon="8.87405">
        <ele>1409</ele>
        <time>2021-08-03T10:39:51.826Z</time>
      </trkpt>
      <trkpt lat="47.01034" lon="8.87405">
        <ele>1408</ele>
        <time>2021-08-03T10:39:52.826Z</time>
      </trkpt>
      <trkpt lat="47.01034" lon="8.87406">
        <ele>1406</ele>
        <time>2021-08-03T10:39:53.826Z</time>
      </trkpt>
      <trkpt lat="47.01034" lon="8.87406">
        <ele>1405</ele>
        <time>2021-08-03T10:39:54.827Z</time>
      </trkpt>
      <trkpt lat="47.01033" lon="8.87407">
        <ele>1405</ele>
        <time>2021-08-03T10:39:55.826Z</time>
      </trkpt>
      <trkpt lat="47.01033" lon="8.87407">
        <ele>1404</ele>
        <time>2021-08-03T10:39:56.826Z</time>
      </trkpt>
      <trkpt lat="47.01033" lon="8.87407">
        <ele>1404</ele>
        <time>2021-08-03T10:39:57.827Z</time>
      </trkpt>
      <trkpt lat="47.0103" lon="8.8741">
        <ele>1401</ele>
        <time>2021-08-03T10:39:58.828Z</time>
      </trkpt>
      <trkpt lat="47.0103" lon="8.8741">
        <ele>1401</ele>
        <time>2021-08-03T10:39:59.828Z</time>
      </trkpt>
      <trkpt lat="47.01029" lon="8.87409">
        <ele>1406</ele>
        <time>2021-08-03T10:40:00.828Z</time>
      </trkpt>
      <trkpt lat="47.01029" lon="8.87409">
        <ele>1406</ele>
        <time>2021-08-03T10:40:01.828Z</time>
      </trkpt>
      <trkpt lat="47.0103" lon="8.87409">
        <ele>1407</ele>
        <time>2021-08-03T10:40:02.827Z</time>
      </trkpt>
      <trkpt lat="47.0103" lon="8.8741">
        <ele>1408</ele>
        <time>2021-08-03T10:40:03.828Z</time>
      </trkpt>
      <trkpt lat="47.0103" lon="8.87411">
        <ele>1408</ele>
        <time>2021-08-03T10:40:04.828Z</time>
      </trkpt>
      <trkpt lat="47.0103" lon="8.87411">
        <ele>1409</ele>
        <time>2021-08-03T10:40:05.828Z</time>
      </trkpt>
      <trkpt lat="47.0103" lon="8.87412">
        <ele>1409</ele>
        <time>2021-08-03T10:40:06.827Z</time>
      </trkpt>
      <trkpt lat="47.01028" lon="8.87411">
        <ele>1401</ele>
        <time>2021-08-03T10:40:07.828Z</time>
      </trkpt>
      <trkpt lat="47.01028" lon="8.87411">
        <ele>1400</ele>
        <time>2021-08-03T10:40:08.828Z</time>
      </trkpt>
      <trkpt lat="47.01027" lon="8.87406">
        <ele>1393</ele>
        <time>2021-08-03T10:40:09.828Z</time>
      </trkpt>
      <trkpt lat="47.01027" lon="8.87407">
        <ele>1393</ele>
        <time>2021-08-03T10:40:10.828Z</time>
      </trkpt>
      <trkpt lat="47.01026" lon="8.87408">
        <ele>1392</ele>
        <time>2021-08-03T10:40:11.828Z</time>
      </trkpt>
      <trkpt lat="47.01026" lon="8.87403">
        <ele>1402</ele>
        <time>2021-08-03T10:40:12.830Z</time>
      </trkpt>
      <trkpt lat="47.01026" lon="8.87402">
        <ele>1402</ele>
        <time>2021-08-03T10:40:13.830Z</time>
      </trkpt>
      <trkpt lat="47.01026" lon="8.87403">
        <ele>1402</ele>
        <time>2021-08-03T10:40:14.829Z</time>
      </trkpt>
      <trkpt lat="47.01026" lon="8.87403">
        <ele>1402</ele>
        <time>2021-08-03T10:40:15.830Z</time>
      </trkpt>
      <trkpt lat="47.01026" lon="8.87402">
        <ele>1402</ele>
        <time>2021-08-03T10:40:16.830Z</time>
      </trkpt>
      <trkpt lat="47.01027" lon="8.87402">
        <ele>1401</ele>
        <time>2021-08-03T10:40:17.830Z</time>
      </trkpt>
      <trkpt lat="47.01027" lon="8.87402">
        <ele>1400</ele>
        <time>2021-08-03T10:40:18.830Z</time>
      </trkpt>
      <trkpt lat="47.01026" lon="8.87401">
        <ele>1400</ele>
        <time>2021-08-03T10:40:19.830Z</time>
      </trkpt>
      <trkpt lat="47.01026" lon="8.874">
        <ele>1399</ele>
        <time>2021-08-03T10:40:20.829Z</time>
      </trkpt>
      <trkpt lat="47.01026" lon="8.874">
        <ele>1398</ele>
        <time>2021-08-03T10:40:21.829Z</time>
      </trkpt>
      <trkpt lat="47.01027" lon="8.874">
        <ele>1398</ele>
        <time>2021-08-03T10:40:22.830Z</time>
      </trkpt>
      <trkpt lat="47.01027" lon="8.874">
        <ele>1397</ele>
        <time>2021-08-03T10:40:23.830Z</time>
      </trkpt>
      <trkpt lat="47.01027" lon="8.874">
        <ele>1397</ele>
        <time>2021-08-03T10:40:24.830Z</time>
      </trkpt>
      <trkpt lat="47.01028" lon="8.87401">
        <ele>1396</ele>
        <time>2021-08-03T10:40:25.830Z</time>
      </trkpt>
      <trkpt lat="47.01028" lon="8.87401">
        <ele>1394</ele>
        <time>2021-08-03T10:40:26.832Z</time>
      </trkpt>
      <trkpt lat="47.0103" lon="8.87401">
        <ele>1393</ele>
        <time>2021-08-03T10:40:27.832Z</time>
      </trkpt>
      <trkpt lat="47.0103" lon="8.87402">
        <ele>1392</ele>
        <time>2021-08-03T10:40:28.831Z</time>
      </trkpt>
      <trkpt lat="47.01029" lon="8.87401">
        <ele>1398</ele>
        <time>2021-08-03T10:40:29.832Z</time>
      </trkpt>
      <trkpt lat="47.01029" lon="8.87402">
        <ele>1399</ele>
        <time>2021-08-03T10:40:30.831Z</time>
      </trkpt>
      <trkpt lat="47.01028" lon="8.874">
        <ele>1398</ele>
        <time>2021-08-03T10:40:31.831Z</time>
      </trkpt>
      <trkpt lat="47.01028" lon="8.87402">
        <ele>1401</ele>
        <time>2021-08-03T10:40:32.832Z</time>
      </trkpt>
      <trkpt lat="47.01028" lon="8.87404">
        <ele>1401</ele>
        <time>2021-08-03T10:40:33.831Z</time>
      </trkpt>
      <trkpt lat="47.01029" lon="8.87405">
        <ele>1402</ele>
        <time>2021-08-03T10:40:34.831Z</time>
      </trkpt>
      <trkpt lat="47.01029" lon="8.87406">
        <ele>1402</ele>
        <time>2021-08-03T10:40:35.832Z</time>
      </trkpt>
      <trkpt lat="47.01029" lon="8.87415">
        <ele>1405</ele>
        <time>2021-08-03T10:40:36.832Z</time>
      </trkpt>
      <trkpt lat="47.01029" lon="8.87417">
        <ele>1405</ele>
        <time>2021-08-03T10:40:54.834Z</time>
      </trkpt>
      <trkpt lat="47.01028" lon="8.87417">
        <ele>1406</ele>
        <time>2021-08-03T10:41:01.734Z</time>
      </trkpt>
      <trkpt lat="47.01028" lon="8.87418">
        <ele>1411</ele>
        <time>2021-08-03T10:41:02.735Z</time>
      </trkpt>
      <trkpt lat="47.01028" lon="8.87418">
        <ele>1411</ele>
        <time>2021-08-03T10:41:03.735Z</time>
      </trkpt>
      <trkpt lat="47.01028" lon="8.87418">
        <ele>1411</ele>
        <time>2021-08-03T10:41:07.863Z</time>
      </trkpt>
      <trkpt lat="47.01028" lon="8.87414">
        <ele>1412</ele>
        <time>2021-08-03T10:41:08.862Z</time>
      </trkpt>
      <trkpt lat="47.01028" lon="8.87415">
        <ele>1412</ele>
        <time>2021-08-03T10:41:09.863Z</time>
      </trkpt>
      <trkpt lat="47.01027" lon="8.87416">
        <ele>1413</ele>
        <time>2021-08-03T10:41:10.863Z</time>
      </trkpt>
      <trkpt lat="47.01027" lon="8.87415">
        <ele>1413</ele>
        <time>2021-08-03T10:41:11.863Z</time>
      </trkpt>
      <trkpt lat="47.01027" lon="8.87414">
        <ele>1411</ele>
        <time>2021-08-03T10:41:12.862Z</time>
      </trkpt>
      <trkpt lat="47.01027" lon="8.87413">
        <ele>1410</ele>
        <time>2021-08-03T10:41:13.862Z</time>
      </trkpt>
      <trkpt lat="47.01028" lon="8.87412">
        <ele>1404</ele>
        <time>2021-08-03T10:41:14.862Z</time>
      </trkpt>
      <trkpt lat="47.01028" lon="8.87413">
        <ele>1403</ele>
        <time>2021-08-03T10:41:15.862Z</time>
      </trkpt>
      <trkpt lat="47.01028" lon="8.87413">
        <ele>1403</ele>
        <time>2021-08-03T10:41:16.863Z</time>
      </trkpt>
      <trkpt lat="47.01028" lon="8.87414">
        <ele>1403</ele>
        <time>2021-08-03T10:41:17.863Z</time>
      </trkpt>
      <trkpt lat="47.01028" lon="8.87414">
        <ele>1402</ele>
        <time>2021-08-03T10:41:18.863Z</time>
      </trkpt>
      <trkpt lat="47.01027" lon="8.87415">
        <ele>1402</ele>
        <time>2021-08-03T10:41:19.862Z</time>
      </trkpt>
      <trkpt lat="47.01027" lon="8.87416">
        <ele>1402</ele>
        <time>2021-08-03T10:41:20.862Z</time>
      </trkpt>
      <trkpt lat="47.01026" lon="8.87417">
        <ele>1402</ele>
        <time>2021-08-03T10:41:21.863Z</time>
      </trkpt>
      <trkpt lat="47.01025" lon="8.87418">
        <ele>1404</ele>
        <time>2021-08-03T10:41:22.864Z</time>
      </trkpt>
      <trkpt lat="47.01026" lon="8.87417">
        <ele>1403</ele>
        <time>2021-08-03T10:41:23.864Z</time>
      </trkpt>
      <trkpt lat="47.01026" lon="8.87417">
        <ele>1403</ele>
        <time>2021-08-03T10:41:24.863Z</time>
      </trkpt>
      <trkpt lat="47.01026" lon="8.8741">
        <ele>1397</ele>
        <time>2021-08-03T10:41:25.864Z</time>
      </trkpt>
      <trkpt lat="47.01025" lon="8.87409">
        <ele>1397</ele>
        <time>2021-08-03T10:41:26.863Z</time>
      </trkpt>
      <trkpt lat="47.01025" lon="8.87406">
        <ele>1398</ele>
        <time>2021-08-03T10:41:27.864Z</time>
      </trkpt>
      <trkpt lat="47.01027" lon="8.87407">
        <ele>1398</ele>
        <time>2021-08-03T10:41:28.864Z</time>
      </trkpt>
      <trkpt lat="47.01026" lon="8.87404">
        <ele>1407</ele>
        <time>2021-08-03T10:41:29.864Z</time>
      </trkpt>
      <trkpt lat="47.01022" lon="8.87405">
        <ele>1400</ele>
        <time>2021-08-03T10:41:30.864Z</time>
      </trkpt>
      <trkpt lat="47.01022" lon="8.87405">
        <ele>1399</ele>
        <time>2021-08-03T10:41:31.864Z</time>
      </trkpt>
      <trkpt lat="47.01023" lon="8.87404">
        <ele>1399</ele>
        <time>2021-08-03T10:41:32.863Z</time>
      </trkpt>
      <trkpt lat="47.01024" lon="8.87404">
        <ele>1399</ele>
        <time>2021-08-03T10:41:33.863Z</time>
      </trkpt>
      <trkpt lat="47.01024" lon="8.87404">
        <ele>1400</ele>
        <time>2021-08-03T10:41:34.864Z</time>
      </trkpt>
      <trkpt lat="47.01025" lon="8.87404">
        <ele>1400</ele>
        <time>2021-08-03T10:41:35.863Z</time>
      </trkpt>
      <trkpt lat="47.01025" lon="8.87403">
        <ele>1400</ele>
        <time>2021-08-03T10:41:36.863Z</time>
      </trkpt>
      <trkpt lat="47.01024" lon="8.87403">
        <ele>1402</ele>
        <time>2021-08-03T10:41:37.865Z</time>
      </trkpt>
      <trkpt lat="47.01025" lon="8.87403">
        <ele>1402</ele>
        <time>2021-08-03T10:41:38.865Z</time>
      </trkpt>
      <trkpt lat="47.01025" lon="8.87402">
        <ele>1402</ele>
        <time>2021-08-03T10:41:39.865Z</time>
      </trkpt>
      <trkpt lat="47.01027" lon="8.87406">
        <ele>1401</ele>
        <time>2021-08-03T10:41:40.866Z</time>
      </trkpt>
      <trkpt lat="47.01026" lon="8.87407">
        <ele>1401</ele>
        <time>2021-08-03T10:41:41.866Z</time>
      </trkpt>
      <trkpt lat="47.01026" lon="8.87406">
        <ele>1402</ele>
        <time>2021-08-03T10:41:42.866Z</time>
      </trkpt>
      <trkpt lat="47.01025" lon="8.87406">
        <ele>1402</ele>
        <time>2021-08-03T10:41:43.866Z</time>
      </trkpt>
      <trkpt lat="47.01024" lon="8.87409">
        <ele>1411</ele>
        <time>2021-08-03T10:41:44.866Z</time>
      </trkpt>
      <trkpt lat="47.01024" lon="8.87409">
        <ele>1414</ele>
        <time>2021-08-03T10:41:45.866Z</time>
      </trkpt>
      <trkpt lat="47.01024" lon="8.8741">
        <ele>1416</ele>
        <time>2021-08-03T10:41:46.867Z</time>
      </trkpt>
      <trkpt lat="47.01024" lon="8.8741">
        <ele>1415</ele>
        <time>2021-08-03T10:41:47.867Z</time>
      </trkpt>
      <trkpt lat="47.01024" lon="8.87411">
        <ele>1415</ele>
        <time>2021-08-03T10:41:48.866Z</time>
      </trkpt>
      <trkpt lat="47.01024" lon="8.87411">
        <ele>1414</ele>
        <time>2021-08-03T10:41:49.867Z</time>
      </trkpt>
      <trkpt lat="47.01023" lon="8.87412">
        <ele>1414</ele>
        <time>2021-08-03T10:41:50.866Z</time>
      </trkpt>
      <trkpt lat="47.01022" lon="8.87413">
        <ele>1413</ele>
        <time>2021-08-03T10:41:51.867Z</time>
      </trkpt>
      <trkpt lat="47.01022" lon="8.87413">
        <ele>1412</ele>
        <time>2021-08-03T10:41:52.867Z</time>
      </trkpt>
      <trkpt lat="47.01023" lon="8.87412">
        <ele>1412</ele>
        <time>2021-08-03T10:41:53.866Z</time>
      </trkpt>
      <trkpt lat="47.01023" lon="8.87411">
        <ele>1411</ele>
        <time>2021-08-03T10:41:54.866Z</time>
      </trkpt>
      <trkpt lat="47.01023" lon="8.87409">
        <ele>1410</ele>
        <time>2021-08-03T10:41:55.867Z</time>
      </trkpt>
      <trkpt lat="47.01023" lon="8.87408">
        <ele>1410</ele>
        <time>2021-08-03T10:41:56.866Z</time>
      </trkpt>
      <trkpt lat="47.01024" lon="8.87408">
        <ele>1409</ele>
        <time>2021-08-03T10:41:57.866Z</time>
      </trkpt>
      <trkpt lat="47.01024" lon="8.87404">
        <ele>1395</ele>
        <time>2021-08-03T10:41:58.867Z</time>
      </trkpt>
      <trkpt lat="47.01023" lon="8.87404">
        <ele>1394</ele>
        <time>2021-08-03T10:41:59.866Z</time>
      </trkpt>
      <trkpt lat="47.01027" lon="8.87408">
        <ele>1407</ele>
        <time>2021-08-03T10:42:00.866Z</time>
      </trkpt>
      <trkpt lat="47.01026" lon="8.87408">
        <ele>1407</ele>
        <time>2021-08-03T10:42:01.866Z</time>
      </trkpt>
      <trkpt lat="47.01025" lon="8.87409">
        <ele>1406</ele>
        <time>2021-08-03T10:42:02.867Z</time>
      </trkpt>
      <trkpt lat="47.01025" lon="8.87409">
        <ele>1406</ele>
        <time>2021-08-03T10:42:03.867Z</time>
      </trkpt>
      <trkpt lat="47.01026" lon="8.87409">
        <ele>1406</ele>
        <time>2021-08-03T10:42:04.867Z</time>
      </trkpt>
      <trkpt lat="47.01026" lon="8.87402">
        <ele>1393</ele>
        <time>2021-08-03T10:42:05.868Z</time>
      </trkpt>
      <trkpt lat="47.01025" lon="8.87403">
        <ele>1393</ele>
        <time>2021-08-03T10:42:06.867Z</time>
      </trkpt>
      <trkpt lat="47.01026" lon="8.87404">
        <ele>1393</ele>
        <time>2021-08-03T10:42:07.868Z</time>
      </trkpt>
      <trkpt lat="47.01026" lon="8.87403">
        <ele>1393</ele>
        <time>2021-08-03T10:42:08.867Z</time>
      </trkpt>
      <trkpt lat="47.01029" lon="8.87398">
        <ele>1400</ele>
        <time>2021-08-03T10:42:09.868Z</time>
      </trkpt>
      <trkpt lat="47.01029" lon="8.87397">
        <ele>1397</ele>
        <time>2021-08-03T10:42:10.867Z</time>
      </trkpt>
      <trkpt lat="47.0103" lon="8.87398">
        <ele>1397</ele>
        <time>2021-08-03T10:42:11.867Z</time>
      </trkpt>
      <trkpt lat="47.01031" lon="8.874">
        <ele>1392</ele>
        <time>2021-08-03T10:42:12.867Z</time>
      </trkpt>
      <trkpt lat="47.01031" lon="8.874">
        <ele>1392</ele>
        <time>2021-08-03T10:42:13.868Z</time>
      </trkpt>
      <trkpt lat="47.0103" lon="8.874">
        <ele>1392</ele>
        <time>2021-08-03T10:42:14.868Z</time>
      </trkpt>
      <trkpt lat="47.01031" lon="8.87401">
        <ele>1392</ele>
        <time>2021-08-03T10:42:15.868Z</time>
      </trkpt>
      <trkpt lat="47.01031" lon="8.87402">
        <ele>1393</ele>
        <time>2021-08-03T10:42:16.868Z</time>
      </trkpt>
      <trkpt lat="47.01029" lon="8.87402">
        <ele>1394</ele>
        <time>2021-08-03T10:42:17.869Z</time>
      </trkpt>
      <trkpt lat="47.01029" lon="8.874">
        <ele>1398</ele>
        <time>2021-08-03T10:42:18.870Z</time>
      </trkpt>
      <trkpt lat="47.01028" lon="8.87398">
        <ele>1396</ele>
        <time>2021-08-03T10:42:19.871Z</time>
      </trkpt>
      <trkpt lat="47.01028" lon="8.87398">
        <ele>1396</ele>
        <time>2021-08-03T10:42:20.870Z</time>
      </trkpt>
      <trkpt lat="47.01028" lon="8.87397">
        <ele>1397</ele>
        <time>2021-08-03T10:42:21.870Z</time>
      </trkpt>
      <trkpt lat="47.01027" lon="8.87396">
        <ele>1398</ele>
        <time>2021-08-03T10:42:22.871Z</time>
      </trkpt>
      <trkpt lat="47.01027" lon="8.87396">
        <ele>1399</ele>
        <time>2021-08-03T10:42:23.872Z</time>
      </trkpt>
      <trkpt lat="47.01027" lon="8.87397">
        <ele>1400</ele>
        <time>2021-08-03T10:42:24.871Z</time>
      </trkpt>
      <trkpt lat="47.01027" lon="8.87397">
        <ele>1400</ele>
        <time>2021-08-03T10:42:25.871Z</time>
      </trkpt>
      <trkpt lat="47.01027" lon="8.87397">
        <ele>1401</ele>
        <time>2021-08-03T10:42:26.871Z</time>
      </trkpt>
      <trkpt lat="47.01026" lon="8.87397">
        <ele>1401</ele>
        <time>2021-08-03T10:42:27.872Z</time>
      </trkpt>
      <trkpt lat="47.01027" lon="8.87397">
        <ele>1400</ele>
        <time>2021-08-03T10:42:28.871Z</time>
      </trkpt>
      <trkpt lat="47.01026" lon="8.87397">
        <ele>1400</ele>
        <time>2021-08-03T10:42:29.872Z</time>
      </trkpt>
      <trkpt lat="47.01026" lon="8.87397">
        <ele>1400</ele>
        <time>2021-08-03T10:42:30.871Z</time>
      </trkpt>
      <trkpt lat="47.01026" lon="8.87398">
        <ele>1400</ele>
        <time>2021-08-03T10:42:31.872Z</time>
      </trkpt>
      <trkpt lat="47.01026" lon="8.87398">
        <ele>1400</ele>
        <time>2021-08-03T10:42:32.871Z</time>
      </trkpt>
      <trkpt lat="47.01026" lon="8.87398">
        <ele>1400</ele>
        <time>2021-08-03T10:42:33.872Z</time>
      </trkpt>
      <trkpt lat="47.01028" lon="8.87394">
        <ele>1397</ele>
        <time>2021-08-03T10:42:34.871Z</time>
      </trkpt>
      <trkpt lat="47.01028" lon="8.87395">
        <ele>1396</ele>
        <time>2021-08-03T10:42:35.871Z</time>
      </trkpt>
      <trkpt lat="47.01029" lon="8.87395">
        <ele>1396</ele>
        <time>2021-08-03T10:42:36.872Z</time>
      </trkpt>
      <trkpt lat="47.01029" lon="8.87396">
        <ele>1395</ele>
        <time>2021-08-03T10:42:37.871Z</time>
      </trkpt>
      <trkpt lat="47.0103" lon="8.87396">
        <ele>1395</ele>
        <time>2021-08-03T10:42:38.872Z</time>
      </trkpt>
      <trkpt lat="47.0103" lon="8.87396">
        <ele>1394</ele>
        <time>2021-08-03T10:42:39.871Z</time>
      </trkpt>
      <trkpt lat="47.01031" lon="8.87397">
        <ele>1393</ele>
        <time>2021-08-03T10:42:40.872Z</time>
      </trkpt>
      <trkpt lat="47.01031" lon="8.87397">
        <ele>1393</ele>
        <time>2021-08-03T10:42:41.872Z</time>
      </trkpt>
      <trkpt lat="47.0103" lon="8.87396">
        <ele>1392</ele>
        <time>2021-08-03T10:42:42.872Z</time>
      </trkpt>
      <trkpt lat="47.0103" lon="8.87396">
        <ele>1392</ele>
        <time>2021-08-03T10:42:43.871Z</time>
      </trkpt>
      <trkpt lat="47.01033" lon="8.874">
        <ele>1398</ele>
        <time>2021-08-03T10:42:44.871Z</time>
      </trkpt>
      <trkpt lat="47.01034" lon="8.87401">
        <ele>1400</ele>
        <time>2021-08-03T10:42:45.871Z</time>
      </trkpt>
      <trkpt lat="47.01035" lon="8.87401">
        <ele>1402</ele>
        <time>2021-08-03T10:42:46.871Z</time>
      </trkpt>
      <trkpt lat="47.01034" lon="8.87401">
        <ele>1404</ele>
        <time>2021-08-03T10:42:47.871Z</time>
      </trkpt>
      <trkpt lat="47.01034" lon="8.87401">
        <ele>1406</ele>
        <time>2021-08-03T10:42:48.871Z</time>
      </trkpt>
      <trkpt lat="47.01035" lon="8.87402">
        <ele>1413</ele>
        <time>2021-08-03T10:42:49.872Z</time>
      </trkpt>
      <trkpt lat="47.01035" lon="8.87402">
        <ele>1413</ele>
        <time>2021-08-03T10:42:50.871Z</time>
      </trkpt>
      <trkpt lat="47.01034" lon="8.87402">
        <ele>1413</ele>
        <time>2021-08-03T10:42:51.872Z</time>
      </trkpt>
      <trkpt lat="47.01029" lon="8.87402">
        <ele>1403</ele>
        <time>2021-08-03T10:42:52.871Z</time>
      </trkpt>
      <trkpt lat="47.01027" lon="8.87402">
        <ele>1403</ele>
        <time>2021-08-03T10:43:13.960Z</time>
      </trkpt>
      <trkpt lat="47.01026" lon="8.87401">
        <ele>1403</ele>
        <time>2021-08-03T10:43:14.959Z</time>
      </trkpt>
      <trkpt lat="47.01026" lon="8.87401">
        <ele>1403</ele>
        <time>2021-08-03T10:43:20.838Z</time>
      </trkpt>
      <trkpt lat="47.01025" lon="8.87401">
        <ele>1403</ele>
        <time>2021-08-03T10:43:21.839Z</time>
      </trkpt>
      <trkpt lat="47.01025" lon="8.87401">
        <ele>1402</ele>
        <time>2021-08-03T10:43:22.838Z</time>
      </trkpt>
      <trkpt lat="47.01024" lon="8.87402">
        <ele>1402</ele>
        <time>2021-08-03T10:43:27.989Z</time>
      </trkpt>
      <trkpt lat="47.01024" lon="8.87403">
        <ele>1402</ele>
        <time>2021-08-03T10:43:28.990Z</time>
      </trkpt>
      <trkpt lat="47.01021" lon="8.87401">
        <ele>1400</ele>
        <time>2021-08-03T10:43:29.990Z</time>
      </trkpt>
      <trkpt lat="47.01021" lon="8.874">
        <ele>1399</ele>
        <time>2021-08-03T10:43:30.990Z</time>
      </trkpt>
      <trkpt lat="47.0102" lon="8.874">
        <ele>1397</ele>
        <time>2021-08-03T10:43:43.117Z</time>
      </trkpt>
      <trkpt lat="47.0102" lon="8.87399">
        <ele>1397</ele>
        <time>2021-08-03T10:43:53.969Z</time>
      </trkpt>
      <trkpt lat="47.0102" lon="8.87398">
        <ele>1396</ele>
        <time>2021-08-03T10:43:54.968Z</time>
      </trkpt>
      <trkpt lat="47.0102" lon="8.87398">
        <ele>1395</ele>
        <time>2021-08-03T10:43:55.969Z</time>
      </trkpt>
      <trkpt lat="47.0102" lon="8.87397">
        <ele>1395</ele>
        <time>2021-08-03T10:43:56.969Z</time>
      </trkpt>
      <trkpt lat="47.0102" lon="8.87396">
        <ele>1394</ele>
        <time>2021-08-03T10:43:57.968Z</time>
      </trkpt>
      <trkpt lat="47.0102" lon="8.87396">
        <ele>1394</ele>
        <time>2021-08-03T10:44:02.989Z</time>
      </trkpt>
      <trkpt lat="47.0102" lon="8.87395">
        <ele>1393</ele>
        <time>2021-08-03T10:44:03.989Z</time>
      </trkpt>
      <trkpt lat="47.0102" lon="8.87394">
        <ele>1392</ele>
        <time>2021-08-03T10:44:04.989Z</time>
      </trkpt>
      <trkpt lat="47.0102" lon="8.87393">
        <ele>1392</ele>
        <time>2021-08-03T10:44:05.989Z</time>
      </trkpt>
      <trkpt lat="47.0102" lon="8.87392">
        <ele>1391</ele>
        <time>2021-08-03T10:44:06.989Z</time>
      </trkpt>
      <trkpt lat="47.0102" lon="8.87392">
        <ele>1391</ele>
        <time>2021-08-03T10:44:07.989Z</time>
      </trkpt>
      <trkpt lat="47.01019" lon="8.87391">
        <ele>1391</ele>
        <time>2021-08-03T10:44:08.990Z</time>
      </trkpt>
      <trkpt lat="47.01019" lon="8.87391">
        <ele>1391</ele>
        <time>2021-08-03T10:44:09.989Z</time>
      </trkpt>
      <trkpt lat="47.01018" lon="8.8739">
        <ele>1391</ele>
        <time>2021-08-03T10:44:10.990Z</time>
      </trkpt>
      <trkpt lat="47.01018" lon="8.8739">
        <ele>1390</ele>
        <time>2021-08-03T10:44:11.990Z</time>
      </trkpt>
      <trkpt lat="47.01017" lon="8.8739">
        <ele>1391</ele>
        <time>2021-08-03T10:44:12.990Z</time>
      </trkpt>
      <trkpt lat="47.01017" lon="8.87389">
        <ele>1391</ele>
        <time>2021-08-03T10:44:13.990Z</time>
      </trkpt>
      <trkpt lat="47.01016" lon="8.87389">
        <ele>1390</ele>
        <time>2021-08-03T10:44:14.990Z</time>
      </trkpt>
      <trkpt lat="47.01016" lon="8.87388">
        <ele>1390</ele>
        <time>2021-08-03T10:44:31.130Z</time>
      </trkpt>
      <trkpt lat="47.01016" lon="8.87388">
        <ele>1390</ele>
        <time>2021-08-03T10:44:32.130Z</time>
      </trkpt>
      <trkpt lat="47.01015" lon="8.87387">
        <ele>1391</ele>
        <time>2021-08-03T10:44:33.130Z</time>
      </trkpt>
      <trkpt lat="47.01015" lon="8.87386">
        <ele>1391</ele>
        <time>2021-08-03T10:44:34.130Z</time>
      </trkpt>
      <trkpt lat="47.01014" lon="8.87385">
        <ele>1391</ele>
        <time>2021-08-03T10:44:35.130Z</time>
      </trkpt>
      <trkpt lat="47.01013" lon="8.87384">
        <ele>1391</ele>
        <time>2021-08-03T10:44:36.130Z</time>
      </trkpt>
      <trkpt lat="47.01012" lon="8.87384">
        <ele>1392</ele>
        <time>2021-08-03T10:44:37.129Z</time>
      </trkpt>
      <trkpt lat="47.01011" lon="8.87384">
        <ele>1392</ele>
        <time>2021-08-03T10:44:38.129Z</time>
      </trkpt>
      <trkpt lat="47.01011" lon="8.87384">
        <ele>1392</ele>
        <time>2021-08-03T10:44:39.130Z</time>
      </trkpt>
      <trkpt lat="47.0101" lon="8.87384">
        <ele>1392</ele>
        <time>2021-08-03T10:44:40.129Z</time>
      </trkpt>
      <trkpt lat="47.0101" lon="8.87384">
        <ele>1393</ele>
        <time>2021-08-03T10:44:41.130Z</time>
      </trkpt>
      <trkpt lat="47.01009" lon="8.87383">
        <ele>1393</ele>
        <time>2021-08-03T10:44:42.130Z</time>
      </trkpt>
      <trkpt lat="47.01009" lon="8.87383">
        <ele>1393</ele>
        <time>2021-08-03T10:44:43.130Z</time>
      </trkpt>
      <trkpt lat="47.01009" lon="8.87383">
        <ele>1394</ele>
        <time>2021-08-03T10:44:44.129Z</time>
      </trkpt>
      <trkpt lat="47.01008" lon="8.87382">
        <ele>1394</ele>
        <time>2021-08-03T10:44:45.130Z</time>
      </trkpt>
      <trkpt lat="47.01008" lon="8.87381">
        <ele>1394</ele>
        <time>2021-08-03T10:44:46.130Z</time>
      </trkpt>
      <trkpt lat="47.01007" lon="8.87381">
        <ele>1394</ele>
        <time>2021-08-03T10:44:47.129Z</time>
      </trkpt>
      <trkpt lat="47.01007" lon="8.87381">
        <ele>1394</ele>
        <time>2021-08-03T10:44:48.130Z</time>
      </trkpt>
      <trkpt lat="47.01007" lon="8.87381">
        <ele>1394</ele>
        <time>2021-08-03T10:44:49.129Z</time>
      </trkpt>
      <trkpt lat="47.01006" lon="8.87381">
        <ele>1394</ele>
        <time>2021-08-03T10:44:50.130Z</time>
      </trkpt>
      <trkpt lat="47.01005" lon="8.87381">
        <ele>1394</ele>
        <time>2021-08-03T10:44:51.130Z</time>
      </trkpt>
      <trkpt lat="47.01005" lon="8.87381">
        <ele>1394</ele>
        <time>2021-08-03T10:44:52.130Z</time>
      </trkpt>
      <trkpt lat="47.01005" lon="8.87381">
        <ele>1395</ele>
        <time>2021-08-03T10:44:53.129Z</time>
      </trkpt>
      <trkpt lat="47.01005" lon="8.87381">
        <ele>1395</ele>
        <time>2021-08-03T10:44:54.130Z</time>
      </trkpt>
      <trkpt lat="47.01005" lon="8.87385">
        <ele>1394</ele>
        <time>2021-08-03T10:44:55.131Z</time>
      </trkpt>
      <trkpt lat="47.01005" lon="8.87384">
        <ele>1394</ele>
        <time>2021-08-03T10:44:56.130Z</time>
      </trkpt>
      <trkpt lat="47.01004" lon="8.87383">
        <ele>1395</ele>
        <time>2021-08-03T10:44:57.131Z</time>
      </trkpt>
      <trkpt lat="47.01004" lon="8.87383">
        <ele>1395</ele>
        <time>2021-08-03T10:44:58.131Z</time>
      </trkpt>
      <trkpt lat="47.01003" lon="8.87383">
        <ele>1396</ele>
        <time>2021-08-03T10:44:59.131Z</time>
      </trkpt>
      <trkpt lat="47.01003" lon="8.87382">
        <ele>1396</ele>
        <time>2021-08-03T10:45:00.131Z</time>
      </trkpt>
      <trkpt lat="47.01002" lon="8.87382">
        <ele>1396</ele>
        <time>2021-08-03T10:45:01.130Z</time>
      </trkpt>
      <trkpt lat="47.01002" lon="8.87381">
        <ele>1396</ele>
        <time>2021-08-03T10:45:02.130Z</time>
      </trkpt>
      <trkpt lat="47.01001" lon="8.8738">
        <ele>1397</ele>
        <time>2021-08-03T10:45:03.130Z</time>
      </trkpt>
      <trkpt lat="47.01" lon="8.8738">
        <ele>1397</ele>
        <time>2021-08-03T10:45:04.130Z</time>
      </trkpt>
      <trkpt lat="47.01" lon="8.8738">
        <ele>1398</ele>
        <time>2021-08-03T10:45:05.130Z</time>
      </trkpt>
      <trkpt lat="47.00999" lon="8.87379">
        <ele>1398</ele>
        <time>2021-08-03T10:45:06.130Z</time>
      </trkpt>
      <trkpt lat="47.00999" lon="8.87379">
        <ele>1399</ele>
        <time>2021-08-03T10:45:07.130Z</time>
      </trkpt>
      <trkpt lat="47.00998" lon="8.87378">
        <ele>1399</ele>
        <time>2021-08-03T10:45:08.130Z</time>
      </trkpt>
      <trkpt lat="47.00998" lon="8.87378">
        <ele>1399</ele>
        <time>2021-08-03T10:45:09.130Z</time>
      </trkpt>
      <trkpt lat="47.00997" lon="8.87378">
        <ele>1399</ele>
        <time>2021-08-03T10:45:10.130Z</time>
      </trkpt>
      <trkpt lat="47.00996" lon="8.87378">
        <ele>1399</ele>
        <time>2021-08-03T10:45:11.130Z</time>
      </trkpt>
      <trkpt lat="47.00996" lon="8.87378">
        <ele>1399</ele>
        <time>2021-08-03T10:45:12.131Z</time>
      </trkpt>
      <trkpt lat="47.00996" lon="8.87378">
        <ele>1399</ele>
        <time>2021-08-03T10:45:13.130Z</time>
      </trkpt>
      <trkpt lat="47.00995" lon="8.87376">
        <ele>1398</ele>
        <time>2021-08-03T10:45:14.131Z</time>
      </trkpt>
      <trkpt lat="47.00996" lon="8.87376">
        <ele>1397</ele>
        <time>2021-08-03T10:45:15.130Z</time>
      </trkpt>
      <trkpt lat="47.00997" lon="8.87375">
        <ele>1397</ele>
        <time>2021-08-03T10:45:16.130Z</time>
      </trkpt>
      <trkpt lat="47.00997" lon="8.87375">
        <ele>1396</ele>
        <time>2021-08-03T10:45:17.130Z</time>
      </trkpt>
      <trkpt lat="47.00997" lon="8.87375">
        <ele>1396</ele>
        <time>2021-08-03T10:45:18.131Z</time>
      </trkpt>
      <trkpt lat="47.00997" lon="8.87374">
        <ele>1395</ele>
        <time>2021-08-03T10:45:19.131Z</time>
      </trkpt>
      <trkpt lat="47.00997" lon="8.87372">
        <ele>1395</ele>
        <time>2021-08-03T10:45:20.131Z</time>
      </trkpt>
      <trkpt lat="47.00997" lon="8.87371">
        <ele>1394</ele>
        <time>2021-08-03T10:45:21.131Z</time>
      </trkpt>
      <trkpt lat="47.00997" lon="8.8737">
        <ele>1394</ele>
        <time>2021-08-03T10:45:22.131Z</time>
      </trkpt>
      <trkpt lat="47.00997" lon="8.87369">
        <ele>1394</ele>
        <time>2021-08-03T10:45:23.130Z</time>
      </trkpt>
      <trkpt lat="47.00996" lon="8.87369">
        <ele>1394</ele>
        <time>2021-08-03T10:45:24.131Z</time>
      </trkpt>
      <trkpt lat="47.00995" lon="8.87369">
        <ele>1395</ele>
        <time>2021-08-03T10:45:25.131Z</time>
      </trkpt>
      <trkpt lat="47.00994" lon="8.87369">
        <ele>1396</ele>
        <time>2021-08-03T10:45:26.131Z</time>
      </trkpt>
      <trkpt lat="47.00993" lon="8.87369">
        <ele>1396</ele>
        <time>2021-08-03T10:45:27.131Z</time>
      </trkpt>
      <trkpt lat="47.00992" lon="8.87369">
        <ele>1397</ele>
        <time>2021-08-03T10:45:28.130Z</time>
      </trkpt>
      <trkpt lat="47.00991" lon="8.87368">
        <ele>1398</ele>
        <time>2021-08-03T10:45:29.131Z</time>
      </trkpt>
      <trkpt lat="47.00991" lon="8.87367">
        <ele>1398</ele>
        <time>2021-08-03T10:45:30.130Z</time>
      </trkpt>
      <trkpt lat="47.00991" lon="8.87366">
        <ele>1398</ele>
        <time>2021-08-03T10:45:31.131Z</time>
      </trkpt>
      <trkpt lat="47.00991" lon="8.87366">
        <ele>1397</ele>
        <time>2021-08-03T10:45:32.130Z</time>
      </trkpt>
      <trkpt lat="47.0099" lon="8.87365">
        <ele>1397</ele>
        <time>2021-08-03T10:45:33.131Z</time>
      </trkpt>
      <trkpt lat="47.0099" lon="8.87364">
        <ele>1396</ele>
        <time>2021-08-03T10:45:34.131Z</time>
      </trkpt>
      <trkpt lat="47.0099" lon="8.87363">
        <ele>1396</ele>
        <time>2021-08-03T10:45:35.130Z</time>
      </trkpt>
      <trkpt lat="47.0099" lon="8.87362">
        <ele>1395</ele>
        <time>2021-08-03T10:45:36.130Z</time>
      </trkpt>
      <trkpt lat="47.0099" lon="8.87362">
        <ele>1394</ele>
        <time>2021-08-03T10:45:37.130Z</time>
      </trkpt>
      <trkpt lat="47.00989" lon="8.87361">
        <ele>1394</ele>
        <time>2021-08-03T10:45:38.131Z</time>
      </trkpt>
      <trkpt lat="47.00989" lon="8.8736">
        <ele>1394</ele>
        <time>2021-08-03T10:45:39.131Z</time>
      </trkpt>
      <trkpt lat="47.00988" lon="8.87359">
        <ele>1394</ele>
        <time>2021-08-03T10:45:40.131Z</time>
      </trkpt>
      <trkpt lat="47.00988" lon="8.87358">
        <ele>1394</ele>
        <time>2021-08-03T10:45:41.130Z</time>
      </trkpt>
      <trkpt lat="47.00987" lon="8.87357">
        <ele>1394</ele>
        <time>2021-08-03T10:45:42.131Z</time>
      </trkpt>
      <trkpt lat="47.00986" lon="8.87356">
        <ele>1394</ele>
        <time>2021-08-03T10:45:43.131Z</time>
      </trkpt>
      <trkpt lat="47.00985" lon="8.87356">
        <ele>1395</ele>
        <time>2021-08-03T10:45:44.131Z</time>
      </trkpt>
      <trkpt lat="47.00984" lon="8.87355">
        <ele>1395</ele>
        <time>2021-08-03T10:45:45.130Z</time>
      </trkpt>
      <trkpt lat="47.00984" lon="8.87355">
        <ele>1396</ele>
        <time>2021-08-03T10:45:46.131Z</time>
      </trkpt>
      <trkpt lat="47.00983" lon="8.87355">
        <ele>1397</ele>
        <time>2021-08-03T10:45:47.130Z</time>
      </trkpt>
      <trkpt lat="47.00982" lon="8.87355">
        <ele>1399</ele>
        <time>2021-08-03T10:45:48.130Z</time>
      </trkpt>
      <trkpt lat="47.00981" lon="8.87356">
        <ele>1400</ele>
        <time>2021-08-03T10:45:49.131Z</time>
      </trkpt>
      <trkpt lat="47.00981" lon="8.87356">
        <ele>1402</ele>
        <time>2021-08-03T10:45:50.131Z</time>
      </trkpt>
      <trkpt lat="47.00981" lon="8.87356">
        <ele>1403</ele>
        <time>2021-08-03T10:45:51.131Z</time>
      </trkpt>
      <trkpt lat="47.00981" lon="8.87355">
        <ele>1404</ele>
        <time>2021-08-03T10:45:52.131Z</time>
      </trkpt>
      <trkpt lat="47.00982" lon="8.87355">
        <ele>1405</ele>
        <time>2021-08-03T10:45:53.131Z</time>
      </trkpt>
      <trkpt lat="47.00982" lon="8.87355">
        <ele>1406</ele>
        <time>2021-08-03T10:45:54.131Z</time>
      </trkpt>
      <trkpt lat="47.00981" lon="8.87354">
        <ele>1406</ele>
        <time>2021-08-03T10:45:55.131Z</time>
      </trkpt>
      <trkpt lat="47.00981" lon="8.87353">
        <ele>1406</ele>
        <time>2021-08-03T10:45:56.130Z</time>
      </trkpt>
      <trkpt lat="47.00981" lon="8.87353">
        <ele>1406</ele>
        <time>2021-08-03T10:45:57.131Z</time>
      </trkpt>
      <trkpt lat="47.00981" lon="8.87353">
        <ele>1406</ele>
        <time>2021-08-03T10:45:58.131Z</time>
      </trkpt>
      <trkpt lat="47.00981" lon="8.87353">
        <ele>1406</ele>
        <time>2021-08-03T10:45:59.131Z</time>
      </trkpt>
      <trkpt lat="47.0098" lon="8.8735">
        <ele>1407</ele>
        <time>2021-08-03T10:46:00.132Z</time>
      </trkpt>
      <trkpt lat="47.00981" lon="8.8735">
        <ele>1408</ele>
        <time>2021-08-03T10:46:01.131Z</time>
      </trkpt>
      <trkpt lat="47.00981" lon="8.87349">
        <ele>1408</ele>
        <time>2021-08-03T10:46:02.132Z</time>
      </trkpt>
      <trkpt lat="47.00982" lon="8.87349">
        <ele>1407</ele>
        <time>2021-08-03T10:46:03.132Z</time>
      </trkpt>
      <trkpt lat="47.00982" lon="8.87348">
        <ele>1406</ele>
        <time>2021-08-03T10:46:04.132Z</time>
      </trkpt>
      <trkpt lat="47.00983" lon="8.87347">
        <ele>1405</ele>
        <time>2021-08-03T10:46:05.132Z</time>
      </trkpt>
      <trkpt lat="47.00982" lon="8.87346">
        <ele>1405</ele>
        <time>2021-08-03T10:46:06.132Z</time>
      </trkpt>
      <trkpt lat="47.00982" lon="8.87345">
        <ele>1404</ele>
        <time>2021-08-03T10:46:07.132Z</time>
      </trkpt>
      <trkpt lat="47.00982" lon="8.87345">
        <ele>1404</ele>
        <time>2021-08-03T10:46:08.132Z</time>
      </trkpt>
      <trkpt lat="47.00982" lon="8.87344">
        <ele>1403</ele>
        <time>2021-08-03T10:46:09.132Z</time>
      </trkpt>
      <trkpt lat="47.00981" lon="8.87343">
        <ele>1403</ele>
        <time>2021-08-03T10:46:10.131Z</time>
      </trkpt>
      <trkpt lat="47.0098" lon="8.87342">
        <ele>1403</ele>
        <time>2021-08-03T10:46:11.132Z</time>
      </trkpt>
      <trkpt lat="47.00979" lon="8.87342">
        <ele>1403</ele>
        <time>2021-08-03T10:46:12.132Z</time>
      </trkpt>
      <trkpt lat="47.00978" lon="8.87341">
        <ele>1404</ele>
        <time>2021-08-03T10:46:13.131Z</time>
      </trkpt>
      <trkpt lat="47.00977" lon="8.8734">
        <ele>1404</ele>
        <time>2021-08-03T10:46:14.132Z</time>
      </trkpt>
      <trkpt lat="47.00977" lon="8.8734">
        <ele>1405</ele>
        <time>2021-08-03T10:46:15.132Z</time>
      </trkpt>
      <trkpt lat="47.00977" lon="8.87339">
        <ele>1406</ele>
        <time>2021-08-03T10:46:16.132Z</time>
      </trkpt>
      <trkpt lat="47.00979" lon="8.87338">
        <ele>1410</ele>
        <time>2021-08-03T10:46:17.133Z</time>
      </trkpt>
      <trkpt lat="47.00976" lon="8.87338">
        <ele>1409</ele>
        <time>2021-08-03T10:46:18.133Z</time>
      </trkpt>
      <trkpt lat="47.00975" lon="8.87339">
        <ele>1409</ele>
        <time>2021-08-03T10:46:19.133Z</time>
      </trkpt>
      <trkpt lat="47.00974" lon="8.87338">
        <ele>1410</ele>
        <time>2021-08-03T10:46:21.134Z</time>
      </trkpt>
      <trkpt lat="47.00974" lon="8.87337">
        <ele>1411</ele>
        <time>2021-08-03T10:46:22.135Z</time>
      </trkpt>
      <trkpt lat="47.00974" lon="8.87336">
        <ele>1411</ele>
        <time>2021-08-03T10:46:23.134Z</time>
      </trkpt>
      <trkpt lat="47.00974" lon="8.87335">
        <ele>1412</ele>
        <time>2021-08-03T10:46:24.135Z</time>
      </trkpt>
      <trkpt lat="47.00973" lon="8.87334">
        <ele>1413</ele>
        <time>2021-08-03T10:46:25.135Z</time>
      </trkpt>
      <trkpt lat="47.00973" lon="8.87333">
        <ele>1413</ele>
        <time>2021-08-03T10:46:26.134Z</time>
      </trkpt>
      <trkpt lat="47.00973" lon="8.87332">
        <ele>1414</ele>
        <time>2021-08-03T10:46:27.135Z</time>
      </trkpt>
      <trkpt lat="47.00973" lon="8.87332">
        <ele>1414</ele>
        <time>2021-08-03T10:46:32.245Z</time>
      </trkpt>
      <trkpt lat="47.00973" lon="8.87332">
        <ele>1414</ele>
        <time>2021-08-03T10:46:33.245Z</time>
      </trkpt>
      <trkpt lat="47.00972" lon="8.87332">
        <ele>1413</ele>
        <time>2021-08-03T10:46:34.244Z</time>
      </trkpt>
      <trkpt lat="47.00972" lon="8.87331">
        <ele>1413</ele>
        <time>2021-08-03T10:46:43.376Z</time>
      </trkpt>
      <trkpt lat="47.00972" lon="8.87331">
        <ele>1413</ele>
        <time>2021-08-03T10:46:44.375Z</time>
      </trkpt>
      <trkpt lat="47.00972" lon="8.8733">
        <ele>1413</ele>
        <time>2021-08-03T10:46:45.376Z</time>
      </trkpt>
      <trkpt lat="47.00972" lon="8.8733">
        <ele>1413</ele>
        <time>2021-08-03T10:46:46.376Z</time>
      </trkpt>
      <trkpt lat="47.00972" lon="8.87329">
        <ele>1413</ele>
        <time>2021-08-03T10:46:47.376Z</time>
      </trkpt>
      <trkpt lat="47.00972" lon="8.87329">
        <ele>1413</ele>
        <time>2021-08-03T10:46:48.376Z</time>
      </trkpt>
      <trkpt lat="47.00971" lon="8.87328">
        <ele>1413</ele>
        <time>2021-08-03T10:46:49.376Z</time>
      </trkpt>
      <trkpt lat="47.00971" lon="8.87328">
        <ele>1413</ele>
        <time>2021-08-03T10:46:50.375Z</time>
      </trkpt>
      <trkpt lat="47.00971" lon="8.87328">
        <ele>1413</ele>
        <time>2021-08-03T10:46:51.375Z</time>
      </trkpt>
      <trkpt lat="47.00971" lon="8.87327">
        <ele>1412</ele>
        <time>2021-08-03T10:46:52.376Z</time>
      </trkpt>
      <trkpt lat="47.0097" lon="8.87327">
        <ele>1412</ele>
        <time>2021-08-03T10:46:53.376Z</time>
      </trkpt>
      <trkpt lat="47.0097" lon="8.87326">
        <ele>1412</ele>
        <time>2021-08-03T10:46:54.375Z</time>
      </trkpt>
      <trkpt lat="47.00969" lon="8.87326">
        <ele>1412</ele>
        <time>2021-08-03T10:46:55.376Z</time>
      </trkpt>
      <trkpt lat="47.00969" lon="8.87326">
        <ele>1411</ele>
        <time>2021-08-03T10:46:56.376Z</time>
      </trkpt>
      <trkpt lat="47.00969" lon="8.87325">
        <ele>1411</ele>
        <time>2021-08-03T10:46:57.375Z</time>
      </trkpt>
      <trkpt lat="47.00968" lon="8.87325">
        <ele>1411</ele>
        <time>2021-08-03T10:46:58.376Z</time>
      </trkpt>
      <trkpt lat="47.00968" lon="8.87324">
        <ele>1411</ele>
        <time>2021-08-03T10:46:59.375Z</time>
      </trkpt>
      <trkpt lat="47.00968" lon="8.87324">
        <ele>1412</ele>
        <time>2021-08-03T10:47:00.375Z</time>
      </trkpt>
      <trkpt lat="47.00968" lon="8.87324">
        <ele>1412</ele>
        <time>2021-08-03T10:47:01.376Z</time>
      </trkpt>
      <trkpt lat="47.00967" lon="8.87323">
        <ele>1411</ele>
        <time>2021-08-03T10:47:02.376Z</time>
      </trkpt>
      <trkpt lat="47.00967" lon="8.87322">
        <ele>1411</ele>
        <time>2021-08-03T10:47:03.376Z</time>
      </trkpt>
      <trkpt lat="47.00966" lon="8.87322">
        <ele>1411</ele>
        <time>2021-08-03T10:47:04.376Z</time>
      </trkpt>
      <trkpt lat="47.00966" lon="8.87321">
        <ele>1411</ele>
        <time>2021-08-03T10:47:05.376Z</time>
      </trkpt>
      <trkpt lat="47.00965" lon="8.87321">
        <ele>1410</ele>
        <time>2021-08-03T10:47:06.376Z</time>
      </trkpt>
      <trkpt lat="47.00965" lon="8.8732">
        <ele>1410</ele>
        <time>2021-08-03T10:47:07.376Z</time>
      </trkpt>
      <trkpt lat="47.00964" lon="8.8732">
        <ele>1410</ele>
        <time>2021-08-03T10:47:08.376Z</time>
      </trkpt>
      <trkpt lat="47.00963" lon="8.87319">
        <ele>1410</ele>
        <time>2021-08-03T10:47:09.375Z</time>
      </trkpt>
      <trkpt lat="47.00963" lon="8.87319">
        <ele>1411</ele>
        <time>2021-08-03T10:47:10.375Z</time>
      </trkpt>
      <trkpt lat="47.00962" lon="8.87318">
        <ele>1411</ele>
        <time>2021-08-03T10:47:11.375Z</time>
      </trkpt>
      <trkpt lat="47.00962" lon="8.87318">
        <ele>1411</ele>
        <time>2021-08-03T10:47:12.375Z</time>
      </trkpt>
      <trkpt lat="47.00961" lon="8.87317">
        <ele>1412</ele>
        <time>2021-08-03T10:47:13.375Z</time>
      </trkpt>
      <trkpt lat="47.00961" lon="8.87316">
        <ele>1412</ele>
        <time>2021-08-03T10:47:14.376Z</time>
      </trkpt>
      <trkpt lat="47.00961" lon="8.87316">
        <ele>1413</ele>
        <time>2021-08-03T10:47:15.376Z</time>
      </trkpt>
      <trkpt lat="47.00961" lon="8.87315">
        <ele>1413</ele>
        <time>2021-08-03T10:47:16.376Z</time>
      </trkpt>
      <trkpt lat="47.0096" lon="8.87315">
        <ele>1414</ele>
        <time>2021-08-03T10:47:17.376Z</time>
      </trkpt>
      <trkpt lat="47.0096" lon="8.87315">
        <ele>1414</ele>
        <time>2021-08-03T10:47:18.376Z</time>
      </trkpt>
      <trkpt lat="47.0096" lon="8.87314">
        <ele>1415</ele>
        <time>2021-08-03T10:47:19.376Z</time>
      </trkpt>
      <trkpt lat="47.00959" lon="8.87314">
        <ele>1415</ele>
        <time>2021-08-03T10:47:20.376Z</time>
      </trkpt>
      <trkpt lat="47.00959" lon="8.87314">
        <ele>1415</ele>
        <time>2021-08-03T10:47:21.376Z</time>
      </trkpt>
      <trkpt lat="47.00958" lon="8.87313">
        <ele>1414</ele>
        <time>2021-08-03T10:47:22.376Z</time>
      </trkpt>
      <trkpt lat="47.00958" lon="8.87313">
        <ele>1414</ele>
        <time>2021-08-03T10:47:23.376Z</time>
      </trkpt>
      <trkpt lat="47.00957" lon="8.87313">
        <ele>1413</ele>
        <time>2021-08-03T10:47:24.376Z</time>
      </trkpt>
      <trkpt lat="47.00957" lon="8.87312">
        <ele>1413</ele>
        <time>2021-08-03T10:47:25.376Z</time>
      </trkpt>
      <trkpt lat="47.00957" lon="8.87311">
        <ele>1412</ele>
        <time>2021-08-03T10:47:26.376Z</time>
      </trkpt>
      <trkpt lat="47.00956" lon="8.87311">
        <ele>1412</ele>
        <time>2021-08-03T10:47:27.376Z</time>
      </trkpt>
      <trkpt lat="47.00956" lon="8.8731">
        <ele>1412</ele>
        <time>2021-08-03T10:47:28.376Z</time>
      </trkpt>
      <trkpt lat="47.00956" lon="8.8731">
        <ele>1412</ele>
        <time>2021-08-03T10:47:29.376Z</time>
      </trkpt>
      <trkpt lat="47.00955" lon="8.8731">
        <ele>1412</ele>
        <time>2021-08-03T10:47:30.376Z</time>
      </trkpt>
      <trkpt lat="47.00955" lon="8.87309">
        <ele>1413</ele>
        <time>2021-08-03T10:47:31.376Z</time>
      </trkpt>
      <trkpt lat="47.00955" lon="8.87309">
        <ele>1413</ele>
        <time>2021-08-03T10:47:32.375Z</time>
      </trkpt>
      <trkpt lat="47.00955" lon="8.87309">
        <ele>1413</ele>
        <time>2021-08-03T10:47:33.376Z</time>
      </trkpt>
      <trkpt lat="47.00955" lon="8.87308">
        <ele>1413</ele>
        <time>2021-08-03T10:47:34.376Z</time>
      </trkpt>
      <trkpt lat="47.00954" lon="8.87308">
        <ele>1413</ele>
        <time>2021-08-03T10:47:35.376Z</time>
      </trkpt>
      <trkpt lat="47.00954" lon="8.87307">
        <ele>1415</ele>
        <time>2021-08-03T10:47:36.377Z</time>
      </trkpt>
      <trkpt lat="47.00953" lon="8.87307">
        <ele>1415</ele>
        <time>2021-08-03T10:47:37.376Z</time>
      </trkpt>
      <trkpt lat="47.00953" lon="8.87306">
        <ele>1416</ele>
        <time>2021-08-03T10:47:38.376Z</time>
      </trkpt>
      <trkpt lat="47.00953" lon="8.87306">
        <ele>1416</ele>
        <time>2021-08-03T10:47:39.377Z</time>
      </trkpt>
      <trkpt lat="47.00954" lon="8.87305">
        <ele>1416</ele>
        <time>2021-08-03T10:47:40.377Z</time>
      </trkpt>
      <trkpt lat="47.00954" lon="8.87304">
        <ele>1416</ele>
        <time>2021-08-03T10:47:41.377Z</time>
      </trkpt>
      <trkpt lat="47.00954" lon="8.87303">
        <ele>1416</ele>
        <time>2021-08-03T10:47:42.377Z</time>
      </trkpt>
      <trkpt lat="47.00954" lon="8.87302">
        <ele>1416</ele>
        <time>2021-08-03T10:47:43.377Z</time>
      </trkpt>
      <trkpt lat="47.00954" lon="8.87302">
        <ele>1417</ele>
        <time>2021-08-03T10:47:44.377Z</time>
      </trkpt>
      <trkpt lat="47.00953" lon="8.87302">
        <ele>1417</ele>
        <time>2021-08-03T10:47:45.376Z</time>
      </trkpt>
      <trkpt lat="47.00953" lon="8.87301">
        <ele>1418</ele>
        <time>2021-08-03T10:47:46.377Z</time>
      </trkpt>
      <trkpt lat="47.00953" lon="8.87301">
        <ele>1418</ele>
        <time>2021-08-03T10:47:47.377Z</time>
      </trkpt>
      <trkpt lat="47.00952" lon="8.873">
        <ele>1419</ele>
        <time>2021-08-03T10:47:48.377Z</time>
      </trkpt>
      <trkpt lat="47.00952" lon="8.873">
        <ele>1419</ele>
        <time>2021-08-03T10:47:49.376Z</time>
      </trkpt>
      <trkpt lat="47.00951" lon="8.87299">
        <ele>1419</ele>
        <time>2021-08-03T10:47:50.377Z</time>
      </trkpt>
      <trkpt lat="47.00951" lon="8.87298">
        <ele>1420</ele>
        <time>2021-08-03T10:47:51.376Z</time>
      </trkpt>
      <trkpt lat="47.0095" lon="8.87298">
        <ele>1420</ele>
        <time>2021-08-03T10:47:52.376Z</time>
      </trkpt>
      <trkpt lat="47.00949" lon="8.87298">
        <ele>1420</ele>
        <time>2021-08-03T10:47:53.377Z</time>
      </trkpt>
      <trkpt lat="47.00949" lon="8.87297">
        <ele>1421</ele>
        <time>2021-08-03T10:47:54.377Z</time>
      </trkpt>
      <trkpt lat="47.00948" lon="8.87297">
        <ele>1421</ele>
        <time>2021-08-03T10:47:55.377Z</time>
      </trkpt>
      <trkpt lat="47.00948" lon="8.87297">
        <ele>1422</ele>
        <time>2021-08-03T10:47:56.377Z</time>
      </trkpt>
      <trkpt lat="47.00947" lon="8.87297">
        <ele>1422</ele>
        <time>2021-08-03T10:47:57.377Z</time>
      </trkpt>
      <trkpt lat="47.00947" lon="8.87296">
        <ele>1423</ele>
        <time>2021-08-03T10:47:58.377Z</time>
      </trkpt>
      <trkpt lat="47.00946" lon="8.87296">
        <ele>1424</ele>
        <time>2021-08-03T10:47:59.376Z</time>
      </trkpt>
      <trkpt lat="47.00946" lon="8.87296">
        <ele>1424</ele>
        <time>2021-08-03T10:48:00.376Z</time>
      </trkpt>
      <trkpt lat="47.00946" lon="8.87295">
        <ele>1425</ele>
        <time>2021-08-03T10:48:01.377Z</time>
      </trkpt>
      <trkpt lat="47.00945" lon="8.87295">
        <ele>1425</ele>
        <time>2021-08-03T10:48:02.377Z</time>
      </trkpt>
      <trkpt lat="47.00945" lon="8.87294">
        <ele>1425</ele>
        <time>2021-08-03T10:48:03.377Z</time>
      </trkpt>
      <trkpt lat="47.00945" lon="8.87294">
        <ele>1426</ele>
        <time>2021-08-03T10:48:04.377Z</time>
      </trkpt>
      <trkpt lat="47.00945" lon="8.87294">
        <ele>1426</ele>
        <time>2021-08-03T10:48:05.377Z</time>
      </trkpt>
      <trkpt lat="47.00944" lon="8.87293">
        <ele>1426</ele>
        <time>2021-08-03T10:48:06.377Z</time>
      </trkpt>
      <trkpt lat="47.00944" lon="8.87292">
        <ele>1427</ele>
        <time>2021-08-03T10:48:07.376Z</time>
      </trkpt>
      <trkpt lat="47.00944" lon="8.87291">
        <ele>1426</ele>
        <time>2021-08-03T10:48:08.377Z</time>
      </trkpt>
      <trkpt lat="47.00944" lon="8.87291">
        <ele>1425</ele>
        <time>2021-08-03T10:48:09.377Z</time>
      </trkpt>
      <trkpt lat="47.00943" lon="8.8729">
        <ele>1425</ele>
        <time>2021-08-03T10:48:10.377Z</time>
      </trkpt>
      <trkpt lat="47.00942" lon="8.87289">
        <ele>1424</ele>
        <time>2021-08-03T10:48:11.376Z</time>
      </trkpt>
      <trkpt lat="47.00941" lon="8.87289">
        <ele>1424</ele>
        <time>2021-08-03T10:48:12.376Z</time>
      </trkpt>
      <trkpt lat="47.00941" lon="8.87288">
        <ele>1423</ele>
        <time>2021-08-03T10:48:13.377Z</time>
      </trkpt>
      <trkpt lat="47.00939" lon="8.87286">
        <ele>1423</ele>
        <time>2021-08-03T10:48:14.377Z</time>
      </trkpt>
      <trkpt lat="47.00938" lon="8.87285">
        <ele>1423</ele>
        <time>2021-08-03T10:48:15.376Z</time>
      </trkpt>
      <trkpt lat="47.00937" lon="8.87284">
        <ele>1423</ele>
        <time>2021-08-03T10:48:16.377Z</time>
      </trkpt>
      <trkpt lat="47.00937" lon="8.87284">
        <ele>1423</ele>
        <time>2021-08-03T10:48:17.376Z</time>
      </trkpt>
      <trkpt lat="47.00937" lon="8.87283">
        <ele>1423</ele>
        <time>2021-08-03T10:48:18.376Z</time>
      </trkpt>
      <trkpt lat="47.00937" lon="8.87282">
        <ele>1423</ele>
        <time>2021-08-03T10:48:19.377Z</time>
      </trkpt>
      <trkpt lat="47.00937" lon="8.87281">
        <ele>1424</ele>
        <time>2021-08-03T10:48:20.377Z</time>
      </trkpt>
      <trkpt lat="47.00936" lon="8.8728">
        <ele>1424</ele>
        <time>2021-08-03T10:48:21.377Z</time>
      </trkpt>
      <trkpt lat="47.00935" lon="8.8728">
        <ele>1425</ele>
        <time>2021-08-03T10:48:22.376Z</time>
      </trkpt>
      <trkpt lat="47.00935" lon="8.87279">
        <ele>1425</ele>
        <time>2021-08-03T10:48:23.377Z</time>
      </trkpt>
      <trkpt lat="47.00935" lon="8.87279">
        <ele>1426</ele>
        <time>2021-08-03T10:48:24.377Z</time>
      </trkpt>
      <trkpt lat="47.00934" lon="8.87279">
        <ele>1426</ele>
        <time>2021-08-03T10:48:25.377Z</time>
      </trkpt>
      <trkpt lat="47.00934" lon="8.87279">
        <ele>1426</ele>
        <time>2021-08-03T10:48:26.377Z</time>
      </trkpt>
      <trkpt lat="47.00934" lon="8.87279">
        <ele>1427</ele>
        <time>2021-08-03T10:48:27.377Z</time>
      </trkpt>
      <trkpt lat="47.00933" lon="8.87279">
        <ele>1427</ele>
        <time>2021-08-03T10:48:28.376Z</time>
      </trkpt>
      <trkpt lat="47.00933" lon="8.87278">
        <ele>1428</ele>
        <time>2021-08-03T10:48:29.377Z</time>
      </trkpt>
      <trkpt lat="47.00932" lon="8.87278">
        <ele>1428</ele>
        <time>2021-08-03T10:48:30.376Z</time>
      </trkpt>
      <trkpt lat="47.00932" lon="8.87277">
        <ele>1429</ele>
        <time>2021-08-03T10:48:31.377Z</time>
      </trkpt>
      <trkpt lat="47.00932" lon="8.87277">
        <ele>1429</ele>
        <time>2021-08-03T10:48:32.377Z</time>
      </trkpt>
      <trkpt lat="47.00931" lon="8.87276">
        <ele>1430</ele>
        <time>2021-08-03T10:48:33.376Z</time>
      </trkpt>
      <trkpt lat="47.00931" lon="8.87276">
        <ele>1430</ele>
        <time>2021-08-03T10:48:34.377Z</time>
      </trkpt>
      <trkpt lat="47.00931" lon="8.87276">
        <ele>1430</ele>
        <time>2021-08-03T10:48:35.377Z</time>
      </trkpt>
      <trkpt lat="47.0093" lon="8.87275">
        <ele>1431</ele>
        <time>2021-08-03T10:48:36.377Z</time>
      </trkpt>
      <trkpt lat="47.0093" lon="8.87275">
        <ele>1430</ele>
        <time>2021-08-03T10:48:37.376Z</time>
      </trkpt>
      <trkpt lat="47.0093" lon="8.87274">
        <ele>1430</ele>
        <time>2021-08-03T10:48:38.377Z</time>
      </trkpt>
      <trkpt lat="47.0093" lon="8.87273">
        <ele>1430</ele>
        <time>2021-08-03T10:48:39.377Z</time>
      </trkpt>
      <trkpt lat="47.00929" lon="8.87273">
        <ele>1431</ele>
        <time>2021-08-03T10:48:40.377Z</time>
      </trkpt>
      <trkpt lat="47.00929" lon="8.87272">
        <ele>1431</ele>
        <time>2021-08-03T10:48:41.377Z</time>
      </trkpt>
      <trkpt lat="47.00929" lon="8.87271">
        <ele>1431</ele>
        <time>2021-08-03T10:48:42.377Z</time>
      </trkpt>
      <trkpt lat="47.00928" lon="8.87271">
        <ele>1431</ele>
        <time>2021-08-03T10:48:43.377Z</time>
      </trkpt>
      <trkpt lat="47.00928" lon="8.8727">
        <ele>1432</ele>
        <time>2021-08-03T10:48:44.377Z</time>
      </trkpt>
      <trkpt lat="47.00928" lon="8.87269">
        <ele>1432</ele>
        <time>2021-08-03T10:48:45.377Z</time>
      </trkpt>
      <trkpt lat="47.00927" lon="8.87269">
        <ele>1432</ele>
        <time>2021-08-03T10:48:46.376Z</time>
      </trkpt>
      <trkpt lat="47.00927" lon="8.87268">
        <ele>1433</ele>
        <time>2021-08-03T10:48:47.376Z</time>
      </trkpt>
      <trkpt lat="47.00927" lon="8.87267">
        <ele>1433</ele>
        <time>2021-08-03T10:48:48.376Z</time>
      </trkpt>
      <trkpt lat="47.00927" lon="8.87267">
        <ele>1433</ele>
        <time>2021-08-03T10:48:49.376Z</time>
      </trkpt>
      <trkpt lat="47.00927" lon="8.87266">
        <ele>1434</ele>
        <time>2021-08-03T10:48:50.377Z</time>
      </trkpt>
      <trkpt lat="47.00926" lon="8.87266">
        <ele>1434</ele>
        <time>2021-08-03T10:48:51.377Z</time>
      </trkpt>
      <trkpt lat="47.00926" lon="8.87265">
        <ele>1434</ele>
        <time>2021-08-03T10:48:52.377Z</time>
      </trkpt>
      <trkpt lat="47.00926" lon="8.87264">
        <ele>1434</ele>
        <time>2021-08-03T10:48:53.377Z</time>
      </trkpt>
      <trkpt lat="47.00925" lon="8.87264">
        <ele>1433</ele>
        <time>2021-08-03T10:48:54.377Z</time>
      </trkpt>
      <trkpt lat="47.00925" lon="8.87263">
        <ele>1433</ele>
        <time>2021-08-03T10:48:55.376Z</time>
      </trkpt>
      <trkpt lat="47.00925" lon="8.87262">
        <ele>1433</ele>
        <time>2021-08-03T10:48:56.377Z</time>
      </trkpt>
      <trkpt lat="47.00924" lon="8.87262">
        <ele>1433</ele>
        <time>2021-08-03T10:48:57.377Z</time>
      </trkpt>
      <trkpt lat="47.00924" lon="8.87262">
        <ele>1433</ele>
        <time>2021-08-03T10:48:58.376Z</time>
      </trkpt>
      <trkpt lat="47.00924" lon="8.87261">
        <ele>1432</ele>
        <time>2021-08-03T10:48:59.377Z</time>
      </trkpt>
      <trkpt lat="47.00923" lon="8.8726">
        <ele>1432</ele>
        <time>2021-08-03T10:49:00.377Z</time>
      </trkpt>
      <trkpt lat="47.00922" lon="8.8726">
        <ele>1432</ele>
        <time>2021-08-03T10:49:01.377Z</time>
      </trkpt>
      <trkpt lat="47.00922" lon="8.87259">
        <ele>1432</ele>
        <time>2021-08-03T10:49:02.377Z</time>
      </trkpt>
      <trkpt lat="47.00921" lon="8.87257">
        <ele>1432</ele>
        <time>2021-08-03T10:49:03.376Z</time>
      </trkpt>
      <trkpt lat="47.0092" lon="8.87256">
        <ele>1432</ele>
        <time>2021-08-03T10:49:04.377Z</time>
      </trkpt>
      <trkpt lat="47.0092" lon="8.87255">
        <ele>1432</ele>
        <time>2021-08-03T10:49:05.377Z</time>
      </trkpt>
      <trkpt lat="47.00919" lon="8.87255">
        <ele>1432</ele>
        <time>2021-08-03T10:49:06.377Z</time>
      </trkpt>
      <trkpt lat="47.00919" lon="8.87254">
        <ele>1432</ele>
        <time>2021-08-03T10:49:07.377Z</time>
      </trkpt>
      <trkpt lat="47.00918" lon="8.87253">
        <ele>1432</ele>
        <time>2021-08-03T10:49:08.377Z</time>
      </trkpt>
      <trkpt lat="47.00918" lon="8.87252">
        <ele>1433</ele>
        <time>2021-08-03T10:49:09.377Z</time>
      </trkpt>
      <trkpt lat="47.00917" lon="8.87251">
        <ele>1433</ele>
        <time>2021-08-03T10:49:10.376Z</time>
      </trkpt>
      <trkpt lat="47.00916" lon="8.8725">
        <ele>1434</ele>
        <time>2021-08-03T10:49:11.376Z</time>
      </trkpt>
      <trkpt lat="47.00916" lon="8.8725">
        <ele>1434</ele>
        <time>2021-08-03T10:49:12.377Z</time>
      </trkpt>
      <trkpt lat="47.00916" lon="8.87248">
        <ele>1434</ele>
        <time>2021-08-03T10:49:13.377Z</time>
      </trkpt>
      <trkpt lat="47.00916" lon="8.87247">
        <ele>1435</ele>
        <time>2021-08-03T10:49:14.376Z</time>
      </trkpt>
      <trkpt lat="47.00915" lon="8.87246">
        <ele>1435</ele>
        <time>2021-08-03T10:49:15.377Z</time>
      </trkpt>
      <trkpt lat="47.00915" lon="8.87245">
        <ele>1436</ele>
        <time>2021-08-03T10:49:16.377Z</time>
      </trkpt>
      <trkpt lat="47.00914" lon="8.87244">
        <ele>1436</ele>
        <time>2021-08-03T10:49:17.377Z</time>
      </trkpt>
      <trkpt lat="47.00914" lon="8.87244">
        <ele>1436</ele>
        <time>2021-08-03T10:49:18.377Z</time>
      </trkpt>
      <trkpt lat="47.00913" lon="8.87244">
        <ele>1436</ele>
        <time>2021-08-03T10:49:19.376Z</time>
      </trkpt>
      <trkpt lat="47.00912" lon="8.87243">
        <ele>1436</ele>
        <time>2021-08-03T10:49:20.377Z</time>
      </trkpt>
      <trkpt lat="47.00911" lon="8.87242">
        <ele>1436</ele>
        <time>2021-08-03T10:49:21.377Z</time>
      </trkpt>
      <trkpt lat="47.0091" lon="8.87241">
        <ele>1436</ele>
        <time>2021-08-03T10:49:22.376Z</time>
      </trkpt>
      <trkpt lat="47.0091" lon="8.87241">
        <ele>1437</ele>
        <time>2021-08-03T10:49:23.377Z</time>
      </trkpt>
      <trkpt lat="47.0091" lon="8.8724">
        <ele>1437</ele>
        <time>2021-08-03T10:49:24.377Z</time>
      </trkpt>
      <trkpt lat="47.00909" lon="8.8724">
        <ele>1437</ele>
        <time>2021-08-03T10:49:25.377Z</time>
      </trkpt>
      <trkpt lat="47.00909" lon="8.8724">
        <ele>1437</ele>
        <time>2021-08-03T10:49:26.377Z</time>
      </trkpt>
      <trkpt lat="47.00909" lon="8.8724">
        <ele>1437</ele>
        <time>2021-08-03T10:49:27.377Z</time>
      </trkpt>
      <trkpt lat="47.00908" lon="8.87241">
        <ele>1437</ele>
        <time>2021-08-03T10:49:28.376Z</time>
      </trkpt>
      <trkpt lat="47.00908" lon="8.8724">
        <ele>1437</ele>
        <time>2021-08-03T10:49:29.377Z</time>
      </trkpt>
      <trkpt lat="47.00907" lon="8.87239">
        <ele>1437</ele>
        <time>2021-08-03T10:49:30.377Z</time>
      </trkpt>
      <trkpt lat="47.00907" lon="8.87238">
        <ele>1437</ele>
        <time>2021-08-03T10:49:31.377Z</time>
      </trkpt>
      <trkpt lat="47.00906" lon="8.87238">
        <ele>1437</ele>
        <time>2021-08-03T10:49:32.376Z</time>
      </trkpt>
      <trkpt lat="47.00906" lon="8.87238">
        <ele>1437</ele>
        <time>2021-08-03T10:49:33.376Z</time>
      </trkpt>
      <trkpt lat="47.00903" lon="8.87237">
        <ele>1438</ele>
        <time>2021-08-03T10:49:34.377Z</time>
      </trkpt>
      <trkpt lat="47.00903" lon="8.87237">
        <ele>1438</ele>
        <time>2021-08-03T10:49:35.376Z</time>
      </trkpt>
      <trkpt lat="47.00903" lon="8.87237">
        <ele>1437</ele>
        <time>2021-08-03T10:49:36.376Z</time>
      </trkpt>
      <trkpt lat="47.00902" lon="8.87237">
        <ele>1437</ele>
        <time>2021-08-03T10:49:37.377Z</time>
      </trkpt>
      <trkpt lat="47.00901" lon="8.87237">
        <ele>1437</ele>
        <time>2021-08-03T10:49:38.376Z</time>
      </trkpt>
      <trkpt lat="47.009" lon="8.87236">
        <ele>1437</ele>
        <time>2021-08-03T10:49:39.376Z</time>
      </trkpt>
      <trkpt lat="47.009" lon="8.87236">
        <ele>1437</ele>
        <time>2021-08-03T10:49:40.377Z</time>
      </trkpt>
      <trkpt lat="47.009" lon="8.87235">
        <ele>1437</ele>
        <time>2021-08-03T10:49:41.377Z</time>
      </trkpt>
      <trkpt lat="47.00899" lon="8.87235">
        <ele>1437</ele>
        <time>2021-08-03T10:49:42.377Z</time>
      </trkpt>
      <trkpt lat="47.00899" lon="8.87234">
        <ele>1438</ele>
        <time>2021-08-03T10:49:43.376Z</time>
      </trkpt>
      <trkpt lat="47.00898" lon="8.87233">
        <ele>1438</ele>
        <time>2021-08-03T10:49:44.376Z</time>
      </trkpt>
      <trkpt lat="47.00898" lon="8.87233">
        <ele>1438</ele>
        <time>2021-08-03T10:49:45.377Z</time>
      </trkpt>
      <trkpt lat="47.00897" lon="8.87232">
        <ele>1439</ele>
        <time>2021-08-03T10:49:46.376Z</time>
      </trkpt>
      <trkpt lat="47.00897" lon="8.87231">
        <ele>1439</ele>
        <time>2021-08-03T10:49:47.377Z</time>
      </trkpt>
      <trkpt lat="47.00897" lon="8.87231">
        <ele>1439</ele>
        <time>2021-08-03T10:49:48.377Z</time>
      </trkpt>
      <trkpt lat="47.00897" lon="8.8723">
        <ele>1439</ele>
        <time>2021-08-03T10:49:49.377Z</time>
      </trkpt>
      <trkpt lat="47.00896" lon="8.87229">
        <ele>1439</ele>
        <time>2021-08-03T10:49:50.377Z</time>
      </trkpt>
      <trkpt lat="47.00896" lon="8.87228">
        <ele>1439</ele>
        <time>2021-08-03T10:49:51.376Z</time>
      </trkpt>
      <trkpt lat="47.00895" lon="8.87228">
        <ele>1439</ele>
        <time>2021-08-03T10:49:52.376Z</time>
      </trkpt>
      <trkpt lat="47.00895" lon="8.87227">
        <ele>1439</ele>
        <time>2021-08-03T10:49:53.377Z</time>
      </trkpt>
      <trkpt lat="47.00894" lon="8.87226">
        <ele>1438</ele>
        <time>2021-08-03T10:49:54.377Z</time>
      </trkpt>
      <trkpt lat="47.00894" lon="8.87226">
        <ele>1438</ele>
        <time>2021-08-03T10:49:55.376Z</time>
      </trkpt>
      <trkpt lat="47.00893" lon="8.87225">
        <ele>1437</ele>
        <time>2021-08-03T10:49:56.377Z</time>
      </trkpt>
      <trkpt lat="47.00892" lon="8.87225">
        <ele>1437</ele>
        <time>2021-08-03T10:49:57.376Z</time>
      </trkpt>
      <trkpt lat="47.00892" lon="8.87224">
        <ele>1436</ele>
        <time>2021-08-03T10:49:58.377Z</time>
      </trkpt>
      <trkpt lat="47.00891" lon="8.87224">
        <ele>1435</ele>
        <time>2021-08-03T10:49:59.377Z</time>
      </trkpt>
      <trkpt lat="47.00891" lon="8.87223">
        <ele>1435</ele>
        <time>2021-08-03T10:50:00.377Z</time>
      </trkpt>
      <trkpt lat="47.0089" lon="8.87223">
        <ele>1434</ele>
        <time>2021-08-03T10:50:01.377Z</time>
      </trkpt>
      <trkpt lat="47.0089" lon="8.87222">
        <ele>1433</ele>
        <time>2021-08-03T10:50:02.376Z</time>
      </trkpt>
      <trkpt lat="47.0089" lon="8.8722">
        <ele>1432</ele>
        <time>2021-08-03T10:50:03.377Z</time>
      </trkpt>
      <trkpt lat="47.00889" lon="8.87219">
        <ele>1432</ele>
        <time>2021-08-03T10:50:04.376Z</time>
      </trkpt>
      <trkpt lat="47.00889" lon="8.87218">
        <ele>1431</ele>
        <time>2021-08-03T10:50:05.377Z</time>
      </trkpt>
      <trkpt lat="47.00888" lon="8.87217">
        <ele>1431</ele>
        <time>2021-08-03T10:50:06.376Z</time>
      </trkpt>
      <trkpt lat="47.00888" lon="8.87216">
        <ele>1431</ele>
        <time>2021-08-03T10:50:07.376Z</time>
      </trkpt>
      <trkpt lat="47.00887" lon="8.87216">
        <ele>1431</ele>
        <time>2021-08-03T10:50:08.377Z</time>
      </trkpt>
      <trkpt lat="47.00887" lon="8.87215">
        <ele>1430</ele>
        <time>2021-08-03T10:50:09.376Z</time>
      </trkpt>
      <trkpt lat="47.00886" lon="8.87214">
        <ele>1430</ele>
        <time>2021-08-03T10:50:10.377Z</time>
      </trkpt>
      <trkpt lat="47.00886" lon="8.87214">
        <ele>1429</ele>
        <time>2021-08-03T10:50:11.376Z</time>
      </trkpt>
      <trkpt lat="47.00885" lon="8.87213">
        <ele>1429</ele>
        <time>2021-08-03T10:50:12.377Z</time>
      </trkpt>
      <trkpt lat="47.00885" lon="8.87213">
        <ele>1429</ele>
        <time>2021-08-03T10:50:13.377Z</time>
      </trkpt>
      <trkpt lat="47.00884" lon="8.87213">
        <ele>1428</ele>
        <time>2021-08-03T10:50:14.377Z</time>
      </trkpt>
      <trkpt lat="47.00883" lon="8.87213">
        <ele>1428</ele>
        <time>2021-08-03T10:50:21.479Z</time>
      </trkpt>
      <trkpt lat="47.00883" lon="8.87212">
        <ele>1428</ele>
        <time>2021-08-03T10:50:22.480Z</time>
      </trkpt>
      <trkpt lat="47.00882" lon="8.87212">
        <ele>1428</ele>
        <time>2021-08-03T10:50:23.480Z</time>
      </trkpt>
      <trkpt lat="47.00882" lon="8.87211">
        <ele>1428</ele>
        <time>2021-08-03T10:50:24.479Z</time>
      </trkpt>
      <trkpt lat="47.00881" lon="8.8721">
        <ele>1427</ele>
        <time>2021-08-03T10:50:25.480Z</time>
      </trkpt>
      <trkpt lat="47.0088" lon="8.87209">
        <ele>1428</ele>
        <time>2021-08-03T10:50:26.479Z</time>
      </trkpt>
      <trkpt lat="47.0088" lon="8.87208">
        <ele>1429</ele>
        <time>2021-08-03T10:50:27.480Z</time>
      </trkpt>
      <trkpt lat="47.0088" lon="8.87207">
        <ele>1429</ele>
        <time>2021-08-03T10:50:28.480Z</time>
      </trkpt>
      <trkpt lat="47.00879" lon="8.87207">
        <ele>1430</ele>
        <time>2021-08-03T10:50:29.480Z</time>
      </trkpt>
      <trkpt lat="47.00878" lon="8.87206">
        <ele>1431</ele>
        <time>2021-08-03T10:50:30.480Z</time>
      </trkpt>
      <trkpt lat="47.00877" lon="8.87206">
        <ele>1431</ele>
        <time>2021-08-03T10:50:31.480Z</time>
      </trkpt>
      <trkpt lat="47.00876" lon="8.87206">
        <ele>1432</ele>
        <time>2021-08-03T10:50:32.480Z</time>
      </trkpt>
      <trkpt lat="47.00876" lon="8.87205">
        <ele>1432</ele>
        <time>2021-08-03T10:50:33.480Z</time>
      </trkpt>
      <trkpt lat="47.00875" lon="8.87205">
        <ele>1433</ele>
        <time>2021-08-03T10:50:34.480Z</time>
      </trkpt>
      <trkpt lat="47.00874" lon="8.87205">
        <ele>1434</ele>
        <time>2021-08-03T10:50:35.480Z</time>
      </trkpt>
      <trkpt lat="47.00874" lon="8.87205">
        <ele>1434</ele>
        <time>2021-08-03T10:50:36.480Z</time>
      </trkpt>
      <trkpt lat="47.00873" lon="8.87204">
        <ele>1435</ele>
        <time>2021-08-03T10:50:37.480Z</time>
      </trkpt>
      <trkpt lat="47.00873" lon="8.87204">
        <ele>1436</ele>
        <time>2021-08-03T10:50:38.480Z</time>
      </trkpt>
      <trkpt lat="47.00872" lon="8.87203">
        <ele>1436</ele>
        <time>2021-08-03T10:50:39.480Z</time>
      </trkpt>
      <trkpt lat="47.00871" lon="8.87203">
        <ele>1436</ele>
        <time>2021-08-03T10:50:40.480Z</time>
      </trkpt>
      <trkpt lat="47.00871" lon="8.87202">
        <ele>1436</ele>
        <time>2021-08-03T10:50:41.480Z</time>
      </trkpt>
      <trkpt lat="47.00871" lon="8.87201">
        <ele>1436</ele>
        <time>2021-08-03T10:50:42.479Z</time>
      </trkpt>
      <trkpt lat="47.0087" lon="8.872">
        <ele>1436</ele>
        <time>2021-08-03T10:50:43.479Z</time>
      </trkpt>
      <trkpt lat="47.0087" lon="8.872">
        <ele>1436</ele>
        <time>2021-08-03T10:50:44.480Z</time>
      </trkpt>
      <trkpt lat="47.00869" lon="8.87199">
        <ele>1436</ele>
        <time>2021-08-03T10:50:45.480Z</time>
      </trkpt>
      <trkpt lat="47.00869" lon="8.87198">
        <ele>1436</ele>
        <time>2021-08-03T10:50:46.480Z</time>
      </trkpt>
      <trkpt lat="47.00868" lon="8.87198">
        <ele>1437</ele>
        <time>2021-08-03T10:50:47.480Z</time>
      </trkpt>
      <trkpt lat="47.00867" lon="8.87197">
        <ele>1437</ele>
        <time>2021-08-03T10:50:48.480Z</time>
      </trkpt>
      <trkpt lat="47.00867" lon="8.87196">
        <ele>1437</ele>
        <time>2021-08-03T10:50:49.479Z</time>
      </trkpt>
      <trkpt lat="47.00867" lon="8.87196">
        <ele>1438</ele>
        <time>2021-08-03T10:50:50.479Z</time>
      </trkpt>
      <trkpt lat="47.00866" lon="8.87196">
        <ele>1437</ele>
        <time>2021-08-03T10:50:51.479Z</time>
      </trkpt>
      <trkpt lat="47.00866" lon="8.87195">
        <ele>1437</ele>
        <time>2021-08-03T10:50:52.480Z</time>
      </trkpt>
      <trkpt lat="47.00866" lon="8.87195">
        <ele>1437</ele>
        <time>2021-08-03T10:50:53.479Z</time>
      </trkpt>
      <trkpt lat="47.00865" lon="8.87194">
        <ele>1437</ele>
        <time>2021-08-03T10:50:54.480Z</time>
      </trkpt>
      <trkpt lat="47.00865" lon="8.87194">
        <ele>1437</ele>
        <time>2021-08-03T10:50:55.480Z</time>
      </trkpt>
      <trkpt lat="47.00865" lon="8.87194">
        <ele>1437</ele>
        <time>2021-08-03T10:50:56.479Z</time>
      </trkpt>
      <trkpt lat="47.00864" lon="8.87194">
        <ele>1437</ele>
        <time>2021-08-03T10:50:57.480Z</time>
      </trkpt>
      <trkpt lat="47.00863" lon="8.87193">
        <ele>1444</ele>
        <time>2021-08-03T10:50:58.481Z</time>
      </trkpt>
      <trkpt lat="47.00859" lon="8.87194">
        <ele>1448</ele>
        <time>2021-08-03T10:50:59.480Z</time>
      </trkpt>
      <trkpt lat="47.00859" lon="8.87194">
        <ele>1448</ele>
        <time>2021-08-03T10:51:00.481Z</time>
      </trkpt>
      <trkpt lat="47.0086" lon="8.87196">
        <ele>1447</ele>
        <time>2021-08-03T10:51:01.480Z</time>
      </trkpt>
      <trkpt lat="47.00861" lon="8.87196">
        <ele>1447</ele>
        <time>2021-08-03T10:51:02.481Z</time>
      </trkpt>
      <trkpt lat="47.0086" lon="8.87197">
        <ele>1448</ele>
        <time>2021-08-03T10:51:03.481Z</time>
      </trkpt>
      <trkpt lat="47.00864" lon="8.87193">
        <ele>1444</ele>
        <time>2021-08-03T10:51:04.481Z</time>
      </trkpt>
      <trkpt lat="47.00863" lon="8.87193">
        <ele>1443</ele>
        <time>2021-08-03T10:51:05.481Z</time>
      </trkpt>
      <trkpt lat="47.00862" lon="8.87192">
        <ele>1441</ele>
        <time>2021-08-03T10:51:06.481Z</time>
      </trkpt>
      <trkpt lat="47.00862" lon="8.87193">
        <ele>1440</ele>
        <time>2021-08-03T10:51:07.482Z</time>
      </trkpt>
      <trkpt lat="47.00862" lon="8.87193">
        <ele>1440</ele>
        <time>2021-08-03T10:51:08.482Z</time>
      </trkpt>
      <trkpt lat="47.00859" lon="8.87194">
        <ele>1433</ele>
        <time>2021-08-03T10:51:09.481Z</time>
      </trkpt>
      <trkpt lat="47.0086" lon="8.87193">
        <ele>1434</ele>
        <time>2021-08-03T10:51:10.482Z</time>
      </trkpt>
      <trkpt lat="47.00861" lon="8.87192">
        <ele>1435</ele>
        <time>2021-08-03T10:51:11.481Z</time>
      </trkpt>
      <trkpt lat="47.00861" lon="8.87191">
        <ele>1435</ele>
        <time>2021-08-03T10:51:12.482Z</time>
      </trkpt>
      <trkpt lat="47.00861" lon="8.8719">
        <ele>1436</ele>
        <time>2021-08-03T10:51:13.482Z</time>
      </trkpt>
      <trkpt lat="47.00861" lon="8.87189">
        <ele>1437</ele>
        <time>2021-08-03T10:51:14.482Z</time>
      </trkpt>
      <trkpt lat="47.00861" lon="8.87188">
        <ele>1437</ele>
        <time>2021-08-03T10:51:15.481Z</time>
      </trkpt>
      <trkpt lat="47.0086" lon="8.87188">
        <ele>1437</ele>
        <time>2021-08-03T10:51:16.481Z</time>
      </trkpt>
      <trkpt lat="47.0086" lon="8.87187">
        <ele>1438</ele>
        <time>2021-08-03T10:51:17.482Z</time>
      </trkpt>
      <trkpt lat="47.00859" lon="8.87187">
        <ele>1438</ele>
        <time>2021-08-03T10:51:18.482Z</time>
      </trkpt>
      <trkpt lat="47.00859" lon="8.87186">
        <ele>1439</ele>
        <time>2021-08-03T10:51:19.481Z</time>
      </trkpt>
      <trkpt lat="47.00859" lon="8.87186">
        <ele>1439</ele>
        <time>2021-08-03T10:51:20.481Z</time>
      </trkpt>
      <trkpt lat="47.00858" lon="8.87185">
        <ele>1440</ele>
        <time>2021-08-03T10:51:21.481Z</time>
      </trkpt>
      <trkpt lat="47.00858" lon="8.87184">
        <ele>1440</ele>
        <time>2021-08-03T10:51:22.481Z</time>
      </trkpt>
      <trkpt lat="47.00857" lon="8.87184">
        <ele>1441</ele>
        <time>2021-08-03T10:51:23.482Z</time>
      </trkpt>
      <trkpt lat="47.00857" lon="8.87184">
        <ele>1441</ele>
        <time>2021-08-03T10:51:24.482Z</time>
      </trkpt>
      <trkpt lat="47.00856" lon="8.87186">
        <ele>1443</ele>
        <time>2021-08-03T10:51:25.483Z</time>
      </trkpt>
      <trkpt lat="47.00856" lon="8.87186">
        <ele>1443</ele>
        <time>2021-08-03T10:51:27.446Z</time>
      </trkpt>
      <trkpt lat="47.00856" lon="8.87185">
        <ele>1443</ele>
        <time>2021-08-03T10:51:28.445Z</time>
      </trkpt>
      <trkpt lat="47.00856" lon="8.87185">
        <ele>1443</ele>
        <time>2021-08-03T10:51:29.445Z</time>
      </trkpt>
      <trkpt lat="47.00856" lon="8.87185">
        <ele>1442</ele>
        <time>2021-08-03T10:51:30.445Z</time>
      </trkpt>
      <trkpt lat="47.00856" lon="8.87185">
        <ele>1442</ele>
        <time>2021-08-03T10:51:31.445Z</time>
      </trkpt>
      <trkpt lat="47.00857" lon="8.87185">
        <ele>1442</ele>
        <time>2021-08-03T10:51:45.505Z</time>
      </trkpt>
      <trkpt lat="47.00855" lon="8.87185">
        <ele>1446</ele>
        <time>2021-08-03T10:51:46.506Z</time>
      </trkpt>
      <trkpt lat="47.00855" lon="8.87185">
        <ele>1446</ele>
        <time>2021-08-03T10:51:47.506Z</time>
      </trkpt>
      <trkpt lat="47.00855" lon="8.87185">
        <ele>1446</ele>
        <time>2021-08-03T10:52:15.622Z</time>
      </trkpt>
      <trkpt lat="47.00855" lon="8.87185">
        <ele>1445</ele>
        <time>2021-08-03T10:52:18.475Z</time>
      </trkpt>
      <trkpt lat="47.00854" lon="8.87185">
        <ele>1445</ele>
        <time>2021-08-03T10:52:19.474Z</time>
      </trkpt>
      <trkpt lat="47.00854" lon="8.87184">
        <ele>1444</ele>
        <time>2021-08-03T10:52:20.476Z</time>
      </trkpt>
      <trkpt lat="47.00853" lon="8.87185">
        <ele>1443</ele>
        <time>2021-08-03T10:52:21.476Z</time>
      </trkpt>
      <trkpt lat="47.00852" lon="8.87186">
        <ele>1443</ele>
        <time>2021-08-03T10:52:22.476Z</time>
      </trkpt>
      <trkpt lat="47.00852" lon="8.87186">
        <ele>1443</ele>
        <time>2021-08-03T10:52:47.608Z</time>
      </trkpt>
      <trkpt lat="47.00851" lon="8.87187">
        <ele>1442</ele>
        <time>2021-08-03T10:53:14.520Z</time>
      </trkpt>
      <trkpt lat="47.00851" lon="8.87187">
        <ele>1441</ele>
        <time>2021-08-03T10:53:17.355Z</time>
      </trkpt>
      <trkpt lat="47.0085" lon="8.87187">
        <ele>1441</ele>
        <time>2021-08-03T10:53:18.355Z</time>
      </trkpt>
      <trkpt lat="47.00849" lon="8.87187">
        <ele>1440</ele>
        <time>2021-08-03T10:53:19.355Z</time>
      </trkpt>
      <trkpt lat="47.00849" lon="8.87188">
        <ele>1439</ele>
        <time>2021-08-03T10:53:20.355Z</time>
      </trkpt>
      <trkpt lat="47.00849" lon="8.87188">
        <ele>1439</ele>
        <time>2021-08-03T10:53:28.503Z</time>
      </trkpt>
      <trkpt lat="47.00848" lon="8.87189">
        <ele>1438</ele>
        <time>2021-08-03T10:53:29.503Z</time>
      </trkpt>
      <trkpt lat="47.00848" lon="8.8719">
        <ele>1437</ele>
        <time>2021-08-03T10:53:30.503Z</time>
      </trkpt>
      <trkpt lat="47.00847" lon="8.8719">
        <ele>1437</ele>
        <time>2021-08-03T10:53:31.503Z</time>
      </trkpt>
      <trkpt lat="47.00847" lon="8.8719">
        <ele>1437</ele>
        <time>2021-08-03T10:53:32.503Z</time>
      </trkpt>
      <trkpt lat="47.00846" lon="8.8719">
        <ele>1437</ele>
        <time>2021-08-03T10:53:33.502Z</time>
      </trkpt>
      <trkpt lat="47.00846" lon="8.8719">
        <ele>1437</ele>
        <time>2021-08-03T10:53:34.502Z</time>
      </trkpt>
      <trkpt lat="47.00845" lon="8.8719">
        <ele>1438</ele>
        <time>2021-08-03T10:53:35.503Z</time>
      </trkpt>
      <trkpt lat="47.00844" lon="8.8719">
        <ele>1438</ele>
        <time>2021-08-03T10:53:36.503Z</time>
      </trkpt>
      <trkpt lat="47.00843" lon="8.87191">
        <ele>1438</ele>
        <time>2021-08-03T10:53:37.503Z</time>
      </trkpt>
      <trkpt lat="47.00842" lon="8.87191">
        <ele>1438</ele>
        <time>2021-08-03T10:53:38.503Z</time>
      </trkpt>
      <trkpt lat="47.00841" lon="8.87191">
        <ele>1439</ele>
        <time>2021-08-03T10:53:39.503Z</time>
      </trkpt>
      <trkpt lat="47.00839" lon="8.87192">
        <ele>1439</ele>
        <time>2021-08-03T10:53:40.502Z</time>
      </trkpt>
      <trkpt lat="47.00838" lon="8.87192">
        <ele>1439</ele>
        <time>2021-08-03T10:53:41.502Z</time>
      </trkpt>
      <trkpt lat="47.00837" lon="8.87192">
        <ele>1439</ele>
        <time>2021-08-03T10:53:42.502Z</time>
      </trkpt>
      <trkpt lat="47.00836" lon="8.87192">
        <ele>1440</ele>
        <time>2021-08-03T10:53:43.502Z</time>
      </trkpt>
      <trkpt lat="47.00835" lon="8.87192">
        <ele>1440</ele>
        <time>2021-08-03T10:53:44.503Z</time>
      </trkpt>
      <trkpt lat="47.00834" lon="8.87192">
        <ele>1440</ele>
        <time>2021-08-03T10:53:45.503Z</time>
      </trkpt>
      <trkpt lat="47.00834" lon="8.87192">
        <ele>1441</ele>
        <time>2021-08-03T10:53:46.503Z</time>
      </trkpt>
      <trkpt lat="47.00833" lon="8.87192">
        <ele>1441</ele>
        <time>2021-08-03T10:53:47.503Z</time>
      </trkpt>
      <trkpt lat="47.00832" lon="8.87192">
        <ele>1441</ele>
        <time>2021-08-03T10:53:48.503Z</time>
      </trkpt>
      <trkpt lat="47.00832" lon="8.87192">
        <ele>1441</ele>
        <time>2021-08-03T10:53:53.628Z</time>
      </trkpt>
      <trkpt lat="47.00831" lon="8.87192">
        <ele>1441</ele>
        <time>2021-08-03T10:53:54.628Z</time>
      </trkpt>
      <trkpt lat="47.0083" lon="8.87193">
        <ele>1441</ele>
        <time>2021-08-03T10:53:55.628Z</time>
      </trkpt>
      <trkpt lat="47.00829" lon="8.87193">
        <ele>1441</ele>
        <time>2021-08-03T10:53:56.628Z</time>
      </trkpt>
      <trkpt lat="47.00829" lon="8.87193">
        <ele>1442</ele>
        <time>2021-08-03T10:53:57.628Z</time>
      </trkpt>
      <trkpt lat="47.00828" lon="8.87194">
        <ele>1442</ele>
        <time>2021-08-03T10:53:58.628Z</time>
      </trkpt>
      <trkpt lat="47.00827" lon="8.87194">
        <ele>1443</ele>
        <time>2021-08-03T10:53:59.628Z</time>
      </trkpt>
      <trkpt lat="47.00827" lon="8.87194">
        <ele>1443</ele>
        <time>2021-08-03T10:54:00.628Z</time>
      </trkpt>
      <trkpt lat="47.00826" lon="8.87193">
        <ele>1444</ele>
        <time>2021-08-03T10:54:01.628Z</time>
      </trkpt>
      <trkpt lat="47.00825" lon="8.87193">
        <ele>1444</ele>
        <time>2021-08-03T10:54:02.628Z</time>
      </trkpt>
      <trkpt lat="47.00825" lon="8.87192">
        <ele>1444</ele>
        <time>2021-08-03T10:54:03.627Z</time>
      </trkpt>
      <trkpt lat="47.00824" lon="8.87192">
        <ele>1444</ele>
        <time>2021-08-03T10:54:04.628Z</time>
      </trkpt>
      <trkpt lat="47.00823" lon="8.87192">
        <ele>1443</ele>
        <time>2021-08-03T10:54:05.628Z</time>
      </trkpt>
      <trkpt lat="47.00822" lon="8.87192">
        <ele>1443</ele>
        <time>2021-08-03T10:54:06.628Z</time>
      </trkpt>
      <trkpt lat="47.00821" lon="8.87192">
        <ele>1443</ele>
        <time>2021-08-03T10:54:07.628Z</time>
      </trkpt>
      <trkpt lat="47.0082" lon="8.87191">
        <ele>1443</ele>
        <time>2021-08-03T10:54:08.627Z</time>
      </trkpt>
      <trkpt lat="47.00819" lon="8.87191">
        <ele>1443</ele>
        <time>2021-08-03T10:54:09.628Z</time>
      </trkpt>
      <trkpt lat="47.00818" lon="8.87191">
        <ele>1443</ele>
        <time>2021-08-03T10:54:10.628Z</time>
      </trkpt>
      <trkpt lat="47.00817" lon="8.87192">
        <ele>1443</ele>
        <time>2021-08-03T10:54:11.627Z</time>
      </trkpt>
      <trkpt lat="47.00816" lon="8.87192">
        <ele>1443</ele>
        <time>2021-08-03T10:54:12.627Z</time>
      </trkpt>
      <trkpt lat="47.00815" lon="8.87192">
        <ele>1443</ele>
        <time>2021-08-03T10:54:13.627Z</time>
      </trkpt>
      <trkpt lat="47.00814" lon="8.87193">
        <ele>1443</ele>
        <time>2021-08-03T10:54:14.627Z</time>
      </trkpt>
      <trkpt lat="47.00813" lon="8.87193">
        <ele>1443</ele>
        <time>2021-08-03T10:54:15.627Z</time>
      </trkpt>
      <trkpt lat="47.00812" lon="8.87193">
        <ele>1444</ele>
        <time>2021-08-03T10:54:16.627Z</time>
      </trkpt>
      <trkpt lat="47.00812" lon="8.87194">
        <ele>1444</ele>
        <time>2021-08-03T10:54:17.628Z</time>
      </trkpt>
      <trkpt lat="47.00811" lon="8.87194">
        <ele>1444</ele>
        <time>2021-08-03T10:54:18.627Z</time>
      </trkpt>
      <trkpt lat="47.0081" lon="8.87194">
        <ele>1444</ele>
        <time>2021-08-03T10:54:19.627Z</time>
      </trkpt>
      <trkpt lat="47.00809" lon="8.87195">
        <ele>1444</ele>
        <time>2021-08-03T10:54:20.628Z</time>
      </trkpt>
      <trkpt lat="47.00809" lon="8.87195">
        <ele>1445</ele>
        <time>2021-08-03T10:54:21.628Z</time>
      </trkpt>
      <trkpt lat="47.00808" lon="8.87195">
        <ele>1446</ele>
        <time>2021-08-03T10:54:23.719Z</time>
      </trkpt>
      <trkpt lat="47.00807" lon="8.87196">
        <ele>1446</ele>
        <time>2021-08-03T10:54:24.718Z</time>
      </trkpt>
      <trkpt lat="47.00806" lon="8.87196">
        <ele>1446</ele>
        <time>2021-08-03T10:54:33.614Z</time>
      </trkpt>
      <trkpt lat="47.00806" lon="8.87196">
        <ele>1446</ele>
        <time>2021-08-03T10:54:34.614Z</time>
      </trkpt>
      <trkpt lat="47.00805" lon="8.87197">
        <ele>1447</ele>
        <time>2021-08-03T10:54:35.614Z</time>
      </trkpt>
      <trkpt lat="47.00804" lon="8.87198">
        <ele>1447</ele>
        <time>2021-08-03T10:54:36.614Z</time>
      </trkpt>
      <trkpt lat="47.00804" lon="8.87199">
        <ele>1447</ele>
        <time>2021-08-03T10:54:37.614Z</time>
      </trkpt>
      <trkpt lat="47.00803" lon="8.87199">
        <ele>1447</ele>
        <time>2021-08-03T10:54:38.614Z</time>
      </trkpt>
      <trkpt lat="47.00802" lon="8.872">
        <ele>1447</ele>
        <time>2021-08-03T10:54:39.613Z</time>
      </trkpt>
      <trkpt lat="47.00801" lon="8.872">
        <ele>1446</ele>
        <time>2021-08-03T10:54:40.614Z</time>
      </trkpt>
      <trkpt lat="47.008" lon="8.872">
        <ele>1446</ele>
        <time>2021-08-03T10:54:41.614Z</time>
      </trkpt>
      <trkpt lat="47.008" lon="8.87201">
        <ele>1447</ele>
        <time>2021-08-03T10:54:42.614Z</time>
      </trkpt>
      <trkpt lat="47.00799" lon="8.87201">
        <ele>1447</ele>
        <time>2021-08-03T10:54:43.614Z</time>
      </trkpt>
      <trkpt lat="47.00798" lon="8.872">
        <ele>1447</ele>
        <time>2021-08-03T10:54:44.613Z</time>
      </trkpt>
      <trkpt lat="47.00797" lon="8.872">
        <ele>1448</ele>
        <time>2021-08-03T10:54:45.613Z</time>
      </trkpt>
      <trkpt lat="47.00796" lon="8.872">
        <ele>1448</ele>
        <time>2021-08-03T10:54:46.614Z</time>
      </trkpt>
      <trkpt lat="47.00795" lon="8.872">
        <ele>1448</ele>
        <time>2021-08-03T10:54:47.614Z</time>
      </trkpt>
      <trkpt lat="47.00794" lon="8.872">
        <ele>1448</ele>
        <time>2021-08-03T10:54:48.614Z</time>
      </trkpt>
      <trkpt lat="47.00794" lon="8.872">
        <ele>1448</ele>
        <time>2021-08-03T10:54:49.614Z</time>
      </trkpt>
      <trkpt lat="47.00793" lon="8.872">
        <ele>1448</ele>
        <time>2021-08-03T10:54:50.614Z</time>
      </trkpt>
      <trkpt lat="47.00792" lon="8.872">
        <ele>1449</ele>
        <time>2021-08-03T10:54:51.614Z</time>
      </trkpt>
      <trkpt lat="47.00791" lon="8.872">
        <ele>1449</ele>
        <time>2021-08-03T10:54:52.614Z</time>
      </trkpt>
      <trkpt lat="47.00791" lon="8.872">
        <ele>1450</ele>
        <time>2021-08-03T10:54:53.613Z</time>
      </trkpt>
      <trkpt lat="47.0079" lon="8.872">
        <ele>1450</ele>
        <time>2021-08-03T10:54:54.614Z</time>
      </trkpt>
      <trkpt lat="47.00789" lon="8.872">
        <ele>1451</ele>
        <time>2021-08-03T10:54:55.613Z</time>
      </trkpt>
      <trkpt lat="47.00788" lon="8.87199">
        <ele>1451</ele>
        <time>2021-08-03T10:54:56.614Z</time>
      </trkpt>
      <trkpt lat="47.00787" lon="8.872">
        <ele>1451</ele>
        <time>2021-08-03T10:54:57.614Z</time>
      </trkpt>
      <trkpt lat="47.00786" lon="8.872">
        <ele>1451</ele>
        <time>2021-08-03T10:54:58.613Z</time>
      </trkpt>
      <trkpt lat="47.00785" lon="8.87201">
        <ele>1451</ele>
        <time>2021-08-03T10:54:59.614Z</time>
      </trkpt>
      <trkpt lat="47.00784" lon="8.87202">
        <ele>1451</ele>
        <time>2021-08-03T10:55:00.614Z</time>
      </trkpt>
      <trkpt lat="47.00784" lon="8.87203">
        <ele>1451</ele>
        <time>2021-08-03T10:55:01.614Z</time>
      </trkpt>
      <trkpt lat="47.00783" lon="8.87203">
        <ele>1451</ele>
        <time>2021-08-03T10:55:02.614Z</time>
      </trkpt>
      <trkpt lat="47.00782" lon="8.87204">
        <ele>1451</ele>
        <time>2021-08-03T10:55:03.614Z</time>
      </trkpt>
      <trkpt lat="47.00781" lon="8.87205">
        <ele>1451</ele>
        <time>2021-08-03T10:55:04.613Z</time>
      </trkpt>
      <trkpt lat="47.0078" lon="8.87205">
        <ele>1450</ele>
        <time>2021-08-03T10:55:05.613Z</time>
      </trkpt>
      <trkpt lat="47.00779" lon="8.87206">
        <ele>1450</ele>
        <time>2021-08-03T10:55:06.613Z</time>
      </trkpt>
      <trkpt lat="47.00778" lon="8.87206">
        <ele>1450</ele>
        <time>2021-08-03T10:55:07.614Z</time>
      </trkpt>
      <trkpt lat="47.00777" lon="8.87207">
        <ele>1450</ele>
        <time>2021-08-03T10:55:08.614Z</time>
      </trkpt>
      <trkpt lat="47.00776" lon="8.87207">
        <ele>1449</ele>
        <time>2021-08-03T10:55:09.613Z</time>
      </trkpt>
      <trkpt lat="47.00775" lon="8.87208">
        <ele>1449</ele>
        <time>2021-08-03T10:55:10.614Z</time>
      </trkpt>
      <trkpt lat="47.00774" lon="8.87208">
        <ele>1449</ele>
        <time>2021-08-03T10:55:11.614Z</time>
      </trkpt>
      <trkpt lat="47.00773" lon="8.87208">
        <ele>1449</ele>
        <time>2021-08-03T10:55:12.613Z</time>
      </trkpt>
      <trkpt lat="47.00772" lon="8.87208">
        <ele>1449</ele>
        <time>2021-08-03T10:55:13.614Z</time>
      </trkpt>
      <trkpt lat="47.00772" lon="8.87208">
        <ele>1449</ele>
        <time>2021-08-03T10:55:14.614Z</time>
      </trkpt>
      <trkpt lat="47.00771" lon="8.87208">
        <ele>1449</ele>
        <time>2021-08-03T10:55:15.614Z</time>
      </trkpt>
      <trkpt lat="47.0077" lon="8.87208">
        <ele>1449</ele>
        <time>2021-08-03T10:55:16.614Z</time>
      </trkpt>
      <trkpt lat="47.00769" lon="8.87208">
        <ele>1449</ele>
        <time>2021-08-03T10:55:17.614Z</time>
      </trkpt>
      <trkpt lat="47.00769" lon="8.87208">
        <ele>1449</ele>
        <time>2021-08-03T10:55:18.613Z</time>
      </trkpt>
      <trkpt lat="47.00768" lon="8.87209">
        <ele>1449</ele>
        <time>2021-08-03T10:55:19.614Z</time>
      </trkpt>
      <trkpt lat="47.00767" lon="8.87209">
        <ele>1450</ele>
        <time>2021-08-03T10:55:20.613Z</time>
      </trkpt>
      <trkpt lat="47.00766" lon="8.87209">
        <ele>1450</ele>
        <time>2021-08-03T10:55:21.614Z</time>
      </trkpt>
      <trkpt lat="47.00765" lon="8.87209">
        <ele>1450</ele>
        <time>2021-08-03T10:55:22.614Z</time>
      </trkpt>
      <trkpt lat="47.00764" lon="8.87209">
        <ele>1450</ele>
        <time>2021-08-03T10:55:23.614Z</time>
      </trkpt>
      <trkpt lat="47.00763" lon="8.87209">
        <ele>1450</ele>
        <time>2021-08-03T10:55:24.614Z</time>
      </trkpt>
      <trkpt lat="47.00762" lon="8.87209">
        <ele>1450</ele>
        <time>2021-08-03T10:55:25.613Z</time>
      </trkpt>
      <trkpt lat="47.00761" lon="8.87209">
        <ele>1450</ele>
        <time>2021-08-03T10:55:26.614Z</time>
      </trkpt>
      <trkpt lat="47.0076" lon="8.87209">
        <ele>1451</ele>
        <time>2021-08-03T10:55:27.614Z</time>
      </trkpt>
      <trkpt lat="47.00759" lon="8.8721">
        <ele>1451</ele>
        <time>2021-08-03T10:55:28.613Z</time>
      </trkpt>
      <trkpt lat="47.00758" lon="8.8721">
        <ele>1451</ele>
        <time>2021-08-03T10:55:29.614Z</time>
      </trkpt>
      <trkpt lat="47.00758" lon="8.87209">
        <ele>1451</ele>
        <time>2021-08-03T10:55:30.613Z</time>
      </trkpt>
      <trkpt lat="47.00757" lon="8.87209">
        <ele>1451</ele>
        <time>2021-08-03T10:55:31.614Z</time>
      </trkpt>
      <trkpt lat="47.00757" lon="8.87208">
        <ele>1451</ele>
        <time>2021-08-03T10:55:32.614Z</time>
      </trkpt>
      <trkpt lat="47.00756" lon="8.87208">
        <ele>1451</ele>
        <time>2021-08-03T10:55:33.614Z</time>
      </trkpt>
      <trkpt lat="47.00755" lon="8.87208">
        <ele>1450</ele>
        <time>2021-08-03T10:55:34.614Z</time>
      </trkpt>
      <trkpt lat="47.00755" lon="8.87208">
        <ele>1450</ele>
        <time>2021-08-03T10:55:35.614Z</time>
      </trkpt>
      <trkpt lat="47.00754" lon="8.87208">
        <ele>1449</ele>
        <time>2021-08-03T10:55:36.613Z</time>
      </trkpt>
      <trkpt lat="47.00753" lon="8.87208">
        <ele>1449</ele>
        <time>2021-08-03T10:55:37.613Z</time>
      </trkpt>
      <trkpt lat="47.00753" lon="8.87208">
        <ele>1449</ele>
        <time>2021-08-03T10:55:38.614Z</time>
      </trkpt>
      <trkpt lat="47.00752" lon="8.87207">
        <ele>1449</ele>
        <time>2021-08-03T10:55:39.614Z</time>
      </trkpt>
      <trkpt lat="47.00752" lon="8.87207">
        <ele>1449</ele>
        <time>2021-08-03T10:55:40.614Z</time>
      </trkpt>
      <trkpt lat="47.00751" lon="8.87207">
        <ele>1449</ele>
        <time>2021-08-03T10:55:41.614Z</time>
      </trkpt>
      <trkpt lat="47.0075" lon="8.87207">
        <ele>1449</ele>
        <time>2021-08-03T10:55:42.614Z</time>
      </trkpt>
      <trkpt lat="47.0075" lon="8.87207">
        <ele>1449</ele>
        <time>2021-08-03T10:55:43.614Z</time>
      </trkpt>
      <trkpt lat="47.00749" lon="8.87207">
        <ele>1449</ele>
        <time>2021-08-03T10:55:44.614Z</time>
      </trkpt>
      <trkpt lat="47.00748" lon="8.87207">
        <ele>1449</ele>
        <time>2021-08-03T10:55:45.614Z</time>
      </trkpt>
      <trkpt lat="47.00748" lon="8.87206">
        <ele>1449</ele>
        <time>2021-08-03T10:55:46.614Z</time>
      </trkpt>
      <trkpt lat="47.00747" lon="8.87206">
        <ele>1450</ele>
        <time>2021-08-03T10:55:50.729Z</time>
      </trkpt>
      <trkpt lat="47.00746" lon="8.87206">
        <ele>1451</ele>
        <time>2021-08-03T10:55:51.730Z</time>
      </trkpt>
      <trkpt lat="47.00746" lon="8.87206">
        <ele>1451</ele>
        <time>2021-08-03T10:55:52.729Z</time>
      </trkpt>
      <trkpt lat="47.00745" lon="8.87206">
        <ele>1452</ele>
        <time>2021-08-03T10:55:53.729Z</time>
      </trkpt>
      <trkpt lat="47.00744" lon="8.87206">
        <ele>1452</ele>
        <time>2021-08-03T10:55:54.729Z</time>
      </trkpt>
      <trkpt lat="47.00743" lon="8.87206">
        <ele>1452</ele>
        <time>2021-08-03T10:55:55.730Z</time>
      </trkpt>
      <trkpt lat="47.00743" lon="8.87206">
        <ele>1453</ele>
        <time>2021-08-03T10:55:56.730Z</time>
      </trkpt>
      <trkpt lat="47.00742" lon="8.87206">
        <ele>1453</ele>
        <time>2021-08-03T10:55:57.730Z</time>
      </trkpt>
      <trkpt lat="47.00741" lon="8.87206">
        <ele>1454</ele>
        <time>2021-08-03T10:55:58.730Z</time>
      </trkpt>
      <trkpt lat="47.00741" lon="8.87205">
        <ele>1454</ele>
        <time>2021-08-03T10:55:59.729Z</time>
      </trkpt>
      <trkpt lat="47.0074" lon="8.87205">
        <ele>1455</ele>
        <time>2021-08-03T10:56:00.729Z</time>
      </trkpt>
      <trkpt lat="47.00739" lon="8.87205">
        <ele>1455</ele>
        <time>2021-08-03T10:56:01.730Z</time>
      </trkpt>
      <trkpt lat="47.00738" lon="8.87205">
        <ele>1455</ele>
        <time>2021-08-03T10:56:02.730Z</time>
      </trkpt>
      <trkpt lat="47.00737" lon="8.87205">
        <ele>1455</ele>
        <time>2021-08-03T10:56:03.730Z</time>
      </trkpt>
      <trkpt lat="47.00736" lon="8.87205">
        <ele>1456</ele>
        <time>2021-08-03T10:56:04.730Z</time>
      </trkpt>
      <trkpt lat="47.00736" lon="8.87205">
        <ele>1456</ele>
        <time>2021-08-03T10:56:05.729Z</time>
      </trkpt>
      <trkpt lat="47.00735" lon="8.87205">
        <ele>1456</ele>
        <time>2021-08-03T10:56:06.730Z</time>
      </trkpt>
      <trkpt lat="47.00734" lon="8.87204">
        <ele>1456</ele>
        <time>2021-08-03T10:56:07.730Z</time>
      </trkpt>
      <trkpt lat="47.00734" lon="8.87204">
        <ele>1456</ele>
        <time>2021-08-03T10:56:08.730Z</time>
      </trkpt>
      <trkpt lat="47.00733" lon="8.87204">
        <ele>1457</ele>
        <time>2021-08-03T10:56:09.730Z</time>
      </trkpt>
      <trkpt lat="47.00732" lon="8.87204">
        <ele>1457</ele>
        <time>2021-08-03T10:56:10.730Z</time>
      </trkpt>
      <trkpt lat="47.00732" lon="8.87203">
        <ele>1457</ele>
        <time>2021-08-03T10:56:11.730Z</time>
      </trkpt>
      <trkpt lat="47.00731" lon="8.87203">
        <ele>1458</ele>
        <time>2021-08-03T10:56:12.730Z</time>
      </trkpt>
      <trkpt lat="47.0073" lon="8.87202">
        <ele>1458</ele>
        <time>2021-08-03T10:56:13.730Z</time>
      </trkpt>
      <trkpt lat="47.00729" lon="8.87202">
        <ele>1458</ele>
        <time>2021-08-03T10:56:14.730Z</time>
      </trkpt>
      <trkpt lat="47.00729" lon="8.87202">
        <ele>1458</ele>
        <time>2021-08-03T10:56:15.730Z</time>
      </trkpt>
      <trkpt lat="47.00728" lon="8.87202">
        <ele>1458</ele>
        <time>2021-08-03T10:56:46.834Z</time>
      </trkpt>
      <trkpt lat="47.00728" lon="8.87201">
        <ele>1459</ele>
        <time>2021-08-03T10:56:47.834Z</time>
      </trkpt>
      <trkpt lat="47.00727" lon="8.87201">
        <ele>1460</ele>
        <time>2021-08-03T10:56:58.628Z</time>
      </trkpt>
      <trkpt lat="47.00727" lon="8.872">
        <ele>1460</ele>
        <time>2021-08-03T10:56:59.629Z</time>
      </trkpt>
      <trkpt lat="47.00727" lon="8.87199">
        <ele>1461</ele>
        <time>2021-08-03T10:57:00.629Z</time>
      </trkpt>
      <trkpt lat="47.00726" lon="8.87198">
        <ele>1462</ele>
        <time>2021-08-03T10:57:01.629Z</time>
      </trkpt>
      <trkpt lat="47.00725" lon="8.87197">
        <ele>1462</ele>
        <time>2021-08-03T10:57:02.629Z</time>
      </trkpt>
      <trkpt lat="47.00725" lon="8.87196">
        <ele>1463</ele>
        <time>2021-08-03T10:57:03.628Z</time>
      </trkpt>
      <trkpt lat="47.00724" lon="8.87195">
        <ele>1463</ele>
        <time>2021-08-03T10:57:04.629Z</time>
      </trkpt>
      <trkpt lat="47.00724" lon="8.87194">
        <ele>1462</ele>
        <time>2021-08-03T10:57:05.628Z</time>
      </trkpt>
      <trkpt lat="47.00724" lon="8.87194">
        <ele>1462</ele>
        <time>2021-08-03T10:57:06.629Z</time>
      </trkpt>
      <trkpt lat="47.00724" lon="8.87193">
        <ele>1461</ele>
        <time>2021-08-03T10:57:07.629Z</time>
      </trkpt>
      <trkpt lat="47.00724" lon="8.87192">
        <ele>1461</ele>
        <time>2021-08-03T10:57:08.629Z</time>
      </trkpt>
      <trkpt lat="47.00723" lon="8.87192">
        <ele>1461</ele>
        <time>2021-08-03T10:57:09.628Z</time>
      </trkpt>
      <trkpt lat="47.00723" lon="8.87191">
        <ele>1461</ele>
        <time>2021-08-03T10:57:10.629Z</time>
      </trkpt>
      <trkpt lat="47.00722" lon="8.87191">
        <ele>1460</ele>
        <time>2021-08-03T10:57:11.629Z</time>
      </trkpt>
      <trkpt lat="47.00722" lon="8.8719">
        <ele>1460</ele>
        <time>2021-08-03T10:57:12.628Z</time>
      </trkpt>
      <trkpt lat="47.00722" lon="8.8719">
        <ele>1459</ele>
        <time>2021-08-03T10:57:13.628Z</time>
      </trkpt>
      <trkpt lat="47.00721" lon="8.8719">
        <ele>1459</ele>
        <time>2021-08-03T10:57:14.629Z</time>
      </trkpt>
      <trkpt lat="47.0072" lon="8.8719">
        <ele>1458</ele>
        <time>2021-08-03T10:57:15.629Z</time>
      </trkpt>
      <trkpt lat="47.00719" lon="8.87189">
        <ele>1458</ele>
        <time>2021-08-03T10:57:16.629Z</time>
      </trkpt>
      <trkpt lat="47.00718" lon="8.87189">
        <ele>1457</ele>
        <time>2021-08-03T10:57:17.628Z</time>
      </trkpt>
      <trkpt lat="47.00718" lon="8.87189">
        <ele>1456</ele>
        <time>2021-08-03T10:57:18.629Z</time>
      </trkpt>
      <trkpt lat="47.00717" lon="8.87189">
        <ele>1456</ele>
        <time>2021-08-03T10:57:19.629Z</time>
      </trkpt>
      <trkpt lat="47.00716" lon="8.87189">
        <ele>1455</ele>
        <time>2021-08-03T10:57:20.629Z</time>
      </trkpt>
      <trkpt lat="47.00715" lon="8.87189">
        <ele>1455</ele>
        <time>2021-08-03T10:57:21.628Z</time>
      </trkpt>
      <trkpt lat="47.00714" lon="8.87189">
        <ele>1455</ele>
        <time>2021-08-03T10:57:22.628Z</time>
      </trkpt>
      <trkpt lat="47.00713" lon="8.8719">
        <ele>1455</ele>
        <time>2021-08-03T10:57:23.629Z</time>
      </trkpt>
      <trkpt lat="47.00712" lon="8.8719">
        <ele>1455</ele>
        <time>2021-08-03T10:57:24.629Z</time>
      </trkpt>
      <trkpt lat="47.00712" lon="8.8719">
        <ele>1455</ele>
        <time>2021-08-03T10:57:25.628Z</time>
      </trkpt>
      <trkpt lat="47.00711" lon="8.8719">
        <ele>1455</ele>
        <time>2021-08-03T10:57:26.629Z</time>
      </trkpt>
      <trkpt lat="47.00711" lon="8.87191">
        <ele>1455</ele>
        <time>2021-08-03T10:57:27.628Z</time>
      </trkpt>
      <trkpt lat="47.0071" lon="8.87191">
        <ele>1455</ele>
        <time>2021-08-03T10:57:28.629Z</time>
      </trkpt>
      <trkpt lat="47.0071" lon="8.87191">
        <ele>1455</ele>
        <time>2021-08-03T10:57:29.628Z</time>
      </trkpt>
      <trkpt lat="47.00709" lon="8.87191">
        <ele>1455</ele>
        <time>2021-08-03T10:57:30.629Z</time>
      </trkpt>
      <trkpt lat="47.00708" lon="8.87191">
        <ele>1455</ele>
        <time>2021-08-03T10:57:31.629Z</time>
      </trkpt>
      <trkpt lat="47.00708" lon="8.87191">
        <ele>1455</ele>
        <time>2021-08-03T10:57:32.628Z</time>
      </trkpt>
      <trkpt lat="47.00707" lon="8.87192">
        <ele>1456</ele>
        <time>2021-08-03T10:57:33.629Z</time>
      </trkpt>
      <trkpt lat="47.00706" lon="8.87192">
        <ele>1456</ele>
        <time>2021-08-03T10:57:34.628Z</time>
      </trkpt>
      <trkpt lat="47.00706" lon="8.87192">
        <ele>1456</ele>
        <time>2021-08-03T10:57:35.628Z</time>
      </trkpt>
      <trkpt lat="47.00705" lon="8.87192">
        <ele>1456</ele>
        <time>2021-08-03T10:57:36.629Z</time>
      </trkpt>
      <trkpt lat="47.00704" lon="8.87193">
        <ele>1456</ele>
        <time>2021-08-03T10:57:37.628Z</time>
      </trkpt>
      <trkpt lat="47.00704" lon="8.87193">
        <ele>1455</ele>
        <time>2021-08-03T10:57:49.750Z</time>
      </trkpt>
      <trkpt lat="47.00703" lon="8.87193">
        <ele>1455</ele>
        <time>2021-08-03T10:57:52.582Z</time>
      </trkpt>
      <trkpt lat="47.00703" lon="8.87193">
        <ele>1455</ele>
        <time>2021-08-03T10:57:53.582Z</time>
      </trkpt>
      <trkpt lat="47.00702" lon="8.87193">
        <ele>1455</ele>
        <time>2021-08-03T10:57:54.582Z</time>
      </trkpt>
      <trkpt lat="47.00701" lon="8.87193">
        <ele>1455</ele>
        <time>2021-08-03T10:57:59.712Z</time>
      </trkpt>
      <trkpt lat="47.00701" lon="8.87193">
        <ele>1455</ele>
        <time>2021-08-03T10:58:13.599Z</time>
      </trkpt>
      <trkpt lat="47.007" lon="8.87193">
        <ele>1456</ele>
        <time>2021-08-03T10:58:14.599Z</time>
      </trkpt>
      <trkpt lat="47.007" lon="8.87192">
        <ele>1457</ele>
        <time>2021-08-03T10:58:15.599Z</time>
      </trkpt>
      <trkpt lat="47.007" lon="8.87192">
        <ele>1458</ele>
        <time>2021-08-03T10:58:16.599Z</time>
      </trkpt>
      <trkpt lat="47.00699" lon="8.87192">
        <ele>1459</ele>
        <time>2021-08-03T10:58:17.599Z</time>
      </trkpt>
      <trkpt lat="47.00698" lon="8.87191">
        <ele>1460</ele>
        <time>2021-08-03T10:58:18.600Z</time>
      </trkpt>
      <trkpt lat="47.00698" lon="8.8719">
        <ele>1461</ele>
        <time>2021-08-03T10:58:19.599Z</time>
      </trkpt>
      <trkpt lat="47.00698" lon="8.8719">
        <ele>1461</ele>
        <time>2021-08-03T10:58:20.599Z</time>
      </trkpt>
      <trkpt lat="47.00697" lon="8.8719">
        <ele>1461</ele>
        <time>2021-08-03T10:58:21.599Z</time>
      </trkpt>
      <trkpt lat="47.00696" lon="8.8719">
        <ele>1461</ele>
        <time>2021-08-03T10:58:22.600Z</time>
      </trkpt>
      <trkpt lat="47.00696" lon="8.8719">
        <ele>1461</ele>
        <time>2021-08-03T10:58:23.600Z</time>
      </trkpt>
      <trkpt lat="47.00695" lon="8.8719">
        <ele>1461</ele>
        <time>2021-08-03T10:58:24.599Z</time>
      </trkpt>
      <trkpt lat="47.00695" lon="8.8719">
        <ele>1461</ele>
        <time>2021-08-03T10:58:25.600Z</time>
      </trkpt>
      <trkpt lat="47.00694" lon="8.8719">
        <ele>1461</ele>
        <time>2021-08-03T10:58:26.600Z</time>
      </trkpt>
      <trkpt lat="47.00694" lon="8.8719">
        <ele>1461</ele>
        <time>2021-08-03T10:58:27.600Z</time>
      </trkpt>
      <trkpt lat="47.00693" lon="8.8719">
        <ele>1461</ele>
        <time>2021-08-03T10:58:28.600Z</time>
      </trkpt>
      <trkpt lat="47.00693" lon="8.8719">
        <ele>1461</ele>
        <time>2021-08-03T10:58:29.600Z</time>
      </trkpt>
      <trkpt lat="47.00692" lon="8.87191">
        <ele>1461</ele>
        <time>2021-08-03T10:58:30.600Z</time>
      </trkpt>
      <trkpt lat="47.00692" lon="8.87191">
        <ele>1461</ele>
        <time>2021-08-03T10:58:31.600Z</time>
      </trkpt>
      <trkpt lat="47.00691" lon="8.87191">
        <ele>1461</ele>
        <time>2021-08-03T10:58:32.599Z</time>
      </trkpt>
      <trkpt lat="47.0069" lon="8.87191">
        <ele>1461</ele>
        <time>2021-08-03T10:58:40.743Z</time>
      </trkpt>
      <trkpt lat="47.0069" lon="8.87191">
        <ele>1462</ele>
        <time>2021-08-03T10:58:41.743Z</time>
      </trkpt>
      <trkpt lat="47.00689" lon="8.87191">
        <ele>1462</ele>
        <time>2021-08-03T10:58:42.743Z</time>
      </trkpt>
      <trkpt lat="47.00689" lon="8.87191">
        <ele>1463</ele>
        <time>2021-08-03T10:58:43.743Z</time>
      </trkpt>
      <trkpt lat="47.00688" lon="8.87191">
        <ele>1464</ele>
        <time>2021-08-03T10:58:44.743Z</time>
      </trkpt>
      <trkpt lat="47.00687" lon="8.87191">
        <ele>1465</ele>
        <time>2021-08-03T10:59:01.845Z</time>
      </trkpt>
      <trkpt lat="47.00686" lon="8.87191">
        <ele>1465</ele>
        <time>2021-08-03T10:59:02.846Z</time>
      </trkpt>
      <trkpt lat="47.00685" lon="8.87191">
        <ele>1466</ele>
        <time>2021-08-03T10:59:03.846Z</time>
      </trkpt>
      <trkpt lat="47.00685" lon="8.8719">
        <ele>1466</ele>
        <time>2021-08-03T10:59:04.846Z</time>
      </trkpt>
      <trkpt lat="47.00684" lon="8.8719">
        <ele>1467</ele>
        <time>2021-08-03T10:59:05.846Z</time>
      </trkpt>
      <trkpt lat="47.00683" lon="8.8719">
        <ele>1467</ele>
        <time>2021-08-03T10:59:06.845Z</time>
      </trkpt>
      <trkpt lat="47.00683" lon="8.87189">
        <ele>1466</ele>
        <time>2021-08-03T10:59:23.952Z</time>
      </trkpt>
      <trkpt lat="47.00682" lon="8.87189">
        <ele>1466</ele>
        <time>2021-08-03T10:59:24.952Z</time>
      </trkpt>
      <trkpt lat="47.00682" lon="8.87189">
        <ele>1465</ele>
        <time>2021-08-03T10:59:25.953Z</time>
      </trkpt>
      <trkpt lat="47.00681" lon="8.87189">
        <ele>1465</ele>
        <time>2021-08-03T10:59:26.952Z</time>
      </trkpt>
      <trkpt lat="47.00681" lon="8.87188">
        <ele>1465</ele>
        <time>2021-08-03T10:59:27.952Z</time>
      </trkpt>
      <trkpt lat="47.0068" lon="8.87188">
        <ele>1465</ele>
        <time>2021-08-03T10:59:28.953Z</time>
      </trkpt>
      <trkpt lat="47.0068" lon="8.87187">
        <ele>1464</ele>
        <time>2021-08-03T10:59:29.953Z</time>
      </trkpt>
      <trkpt lat="47.00679" lon="8.87187">
        <ele>1464</ele>
        <time>2021-08-03T10:59:30.953Z</time>
      </trkpt>
      <trkpt lat="47.00678" lon="8.87187">
        <ele>1464</ele>
        <time>2021-08-03T10:59:31.953Z</time>
      </trkpt>
      <trkpt lat="47.00678" lon="8.87188">
        <ele>1465</ele>
        <time>2021-08-03T10:59:32.952Z</time>
      </trkpt>
      <trkpt lat="47.00677" lon="8.87188">
        <ele>1465</ele>
        <time>2021-08-03T10:59:33.953Z</time>
      </trkpt>
      <trkpt lat="47.00677" lon="8.87188">
        <ele>1465</ele>
        <time>2021-08-03T10:59:34.953Z</time>
      </trkpt>
      <trkpt lat="47.00677" lon="8.87188">
        <ele>1465</ele>
        <time>2021-08-03T10:59:35.953Z</time>
      </trkpt>
      <trkpt lat="47.00676" lon="8.87189">
        <ele>1466</ele>
        <time>2021-08-03T10:59:36.952Z</time>
      </trkpt>
      <trkpt lat="47.00676" lon="8.8719">
        <ele>1466</ele>
        <time>2021-08-03T10:59:37.952Z</time>
      </trkpt>
      <trkpt lat="47.00675" lon="8.87189">
        <ele>1475</ele>
        <time>2021-08-03T10:59:38.953Z</time>
      </trkpt>
      <trkpt lat="47.00674" lon="8.87188">
        <ele>1476</ele>
        <time>2021-08-03T10:59:39.953Z</time>
      </trkpt>
      <trkpt lat="47.00674" lon="8.87188">
        <ele>1476</ele>
        <time>2021-08-03T10:59:40.952Z</time>
      </trkpt>
      <trkpt lat="47.00673" lon="8.87187">
        <ele>1476</ele>
        <time>2021-08-03T10:59:41.952Z</time>
      </trkpt>
      <trkpt lat="47.00673" lon="8.87187">
        <ele>1476</ele>
        <time>2021-08-03T10:59:42.952Z</time>
      </trkpt>
      <trkpt lat="47.00672" lon="8.87186">
        <ele>1477</ele>
        <time>2021-08-03T10:59:43.953Z</time>
      </trkpt>
      <trkpt lat="47.00671" lon="8.87185">
        <ele>1477</ele>
        <time>2021-08-03T10:59:44.953Z</time>
      </trkpt>
      <trkpt lat="47.00671" lon="8.87184">
        <ele>1477</ele>
        <time>2021-08-03T10:59:45.953Z</time>
      </trkpt>
      <trkpt lat="47.0067" lon="8.87183">
        <ele>1477</ele>
        <time>2021-08-03T10:59:46.952Z</time>
      </trkpt>
      <trkpt lat="47.00669" lon="8.87182">
        <ele>1477</ele>
        <time>2021-08-03T10:59:47.952Z</time>
      </trkpt>
      <trkpt lat="47.00669" lon="8.87181">
        <ele>1477</ele>
        <time>2021-08-03T10:59:48.953Z</time>
      </trkpt>
      <trkpt lat="47.00668" lon="8.87181">
        <ele>1477</ele>
        <time>2021-08-03T10:59:49.952Z</time>
      </trkpt>
      <trkpt lat="47.00667" lon="8.87181">
        <ele>1477</ele>
        <time>2021-08-03T10:59:50.953Z</time>
      </trkpt>
      <trkpt lat="47.00667" lon="8.8718">
        <ele>1476</ele>
        <time>2021-08-03T10:59:51.952Z</time>
      </trkpt>
      <trkpt lat="47.00666" lon="8.8718">
        <ele>1475</ele>
        <time>2021-08-03T10:59:52.953Z</time>
      </trkpt>
      <trkpt lat="47.00666" lon="8.87179">
        <ele>1474</ele>
        <time>2021-08-03T10:59:53.952Z</time>
      </trkpt>
      <trkpt lat="47.00665" lon="8.87179">
        <ele>1474</ele>
        <time>2021-08-03T10:59:54.953Z</time>
      </trkpt>
      <trkpt lat="47.00665" lon="8.87179">
        <ele>1474</ele>
        <time>2021-08-03T10:59:55.953Z</time>
      </trkpt>
      <trkpt lat="47.00665" lon="8.87178">
        <ele>1474</ele>
        <time>2021-08-03T10:59:56.953Z</time>
      </trkpt>
      <trkpt lat="47.00664" lon="8.87178">
        <ele>1474</ele>
        <time>2021-08-03T10:59:57.952Z</time>
      </trkpt>
      <trkpt lat="47.00664" lon="8.87177">
        <ele>1474</ele>
        <time>2021-08-03T10:59:58.953Z</time>
      </trkpt>
      <trkpt lat="47.00664" lon="8.87177">
        <ele>1475</ele>
        <time>2021-08-03T10:59:59.953Z</time>
      </trkpt>
      <trkpt lat="47.00665" lon="8.87178">
        <ele>1468</ele>
        <time>2021-08-03T11:00:00.952Z</time>
      </trkpt>
      <trkpt lat="47.00665" lon="8.87178">
        <ele>1467</ele>
        <time>2021-08-03T11:00:01.952Z</time>
      </trkpt>
      <trkpt lat="47.00665" lon="8.87178">
        <ele>1467</ele>
        <time>2021-08-03T11:00:02.952Z</time>
      </trkpt>
      <trkpt lat="47.00665" lon="8.87178">
        <ele>1466</ele>
        <time>2021-08-03T11:00:03.952Z</time>
      </trkpt>
      <trkpt lat="47.00665" lon="8.87178">
        <ele>1466</ele>
        <time>2021-08-03T11:00:04.952Z</time>
      </trkpt>
      <trkpt lat="47.00665" lon="8.87177">
        <ele>1465</ele>
        <time>2021-08-03T11:00:05.953Z</time>
      </trkpt>
      <trkpt lat="47.00665" lon="8.87176">
        <ele>1464</ele>
        <time>2021-08-03T11:00:06.952Z</time>
      </trkpt>
      <trkpt lat="47.00665" lon="8.87176">
        <ele>1464</ele>
        <time>2021-08-03T11:00:07.952Z</time>
      </trkpt>
      <trkpt lat="47.00665" lon="8.87176">
        <ele>1464</ele>
        <time>2021-08-03T11:00:08.952Z</time>
      </trkpt>
      <trkpt lat="47.00665" lon="8.87175">
        <ele>1464</ele>
        <time>2021-08-03T11:00:09.953Z</time>
      </trkpt>
      <trkpt lat="47.00665" lon="8.87175">
        <ele>1465</ele>
        <time>2021-08-03T11:00:10.952Z</time>
      </trkpt>
      <trkpt lat="47.00665" lon="8.87175">
        <ele>1466</ele>
        <time>2021-08-03T11:00:11.952Z</time>
      </trkpt>
      <trkpt lat="47.00664" lon="8.87175">
        <ele>1468</ele>
        <time>2021-08-03T11:00:12.954Z</time>
      </trkpt>
      <trkpt lat="47.00663" lon="8.87176">
        <ele>1468</ele>
        <time>2021-08-03T11:00:13.955Z</time>
      </trkpt>
      <trkpt lat="47.00662" lon="8.87176">
        <ele>1469</ele>
        <time>2021-08-03T11:00:14.955Z</time>
      </trkpt>
      <trkpt lat="47.00664" lon="8.87174">
        <ele>1475</ele>
        <time>2021-08-03T11:00:15.954Z</time>
      </trkpt>
      <trkpt lat="47.00664" lon="8.87176">
        <ele>1472</ele>
        <time>2021-08-03T11:00:16.955Z</time>
      </trkpt>
      <trkpt lat="47.00664" lon="8.87177">
        <ele>1472</ele>
        <time>2021-08-03T11:00:17.955Z</time>
      </trkpt>
      <trkpt lat="47.00664" lon="8.87178">
        <ele>1472</ele>
        <time>2021-08-03T11:00:18.956Z</time>
      </trkpt>
      <trkpt lat="47.00664" lon="8.87179">
        <ele>1473</ele>
        <time>2021-08-03T11:00:19.955Z</time>
      </trkpt>
      <trkpt lat="47.00663" lon="8.87177">
        <ele>1475</ele>
        <time>2021-08-03T11:00:20.955Z</time>
      </trkpt>
      <trkpt lat="47.00663" lon="8.87176">
        <ele>1475</ele>
        <time>2021-08-03T11:00:21.955Z</time>
      </trkpt>
      <trkpt lat="47.00663" lon="8.87175">
        <ele>1476</ele>
        <time>2021-08-03T11:00:22.955Z</time>
      </trkpt>
      <trkpt lat="47.00663" lon="8.87173">
        <ele>1475</ele>
        <time>2021-08-03T11:00:23.955Z</time>
      </trkpt>
      <trkpt lat="47.00663" lon="8.87173">
        <ele>1475</ele>
        <time>2021-08-03T11:00:24.955Z</time>
      </trkpt>
      <trkpt lat="47.00662" lon="8.87172">
        <ele>1475</ele>
        <time>2021-08-03T11:00:25.955Z</time>
      </trkpt>
      <trkpt lat="47.00662" lon="8.87171">
        <ele>1474</ele>
        <time>2021-08-03T11:00:26.955Z</time>
      </trkpt>
      <trkpt lat="47.00662" lon="8.87171">
        <ele>1474</ele>
        <time>2021-08-03T11:00:27.955Z</time>
      </trkpt>
      <trkpt lat="47.00661" lon="8.8717">
        <ele>1474</ele>
        <time>2021-08-03T11:00:28.955Z</time>
      </trkpt>
      <trkpt lat="47.0066" lon="8.87169">
        <ele>1474</ele>
        <time>2021-08-03T11:00:29.955Z</time>
      </trkpt>
      <trkpt lat="47.00659" lon="8.87168">
        <ele>1475</ele>
        <time>2021-08-03T11:00:30.955Z</time>
      </trkpt>
      <trkpt lat="47.00658" lon="8.87168">
        <ele>1475</ele>
        <time>2021-08-03T11:00:31.955Z</time>
      </trkpt>
      <trkpt lat="47.00657" lon="8.87167">
        <ele>1475</ele>
        <time>2021-08-03T11:00:32.955Z</time>
      </trkpt>
      <trkpt lat="47.00657" lon="8.87167">
        <ele>1476</ele>
        <time>2021-08-03T11:00:33.955Z</time>
      </trkpt>
      <trkpt lat="47.00656" lon="8.87166">
        <ele>1476</ele>
        <time>2021-08-03T11:00:34.955Z</time>
      </trkpt>
      <trkpt lat="47.00655" lon="8.87165">
        <ele>1477</ele>
        <time>2021-08-03T11:00:35.955Z</time>
      </trkpt>
      <trkpt lat="47.00654" lon="8.87164">
        <ele>1478</ele>
        <time>2021-08-03T11:00:36.955Z</time>
      </trkpt>
      <trkpt lat="47.00654" lon="8.87164">
        <ele>1478</ele>
        <time>2021-08-03T11:00:37.955Z</time>
      </trkpt>
      <trkpt lat="47.00653" lon="8.87163">
        <ele>1478</ele>
        <time>2021-08-03T11:00:38.955Z</time>
      </trkpt>
      <trkpt lat="47.00652" lon="8.87163">
        <ele>1478</ele>
        <time>2021-08-03T11:00:39.955Z</time>
      </trkpt>
      <trkpt lat="47.00652" lon="8.87162">
        <ele>1479</ele>
        <time>2021-08-03T11:00:40.955Z</time>
      </trkpt>
      <trkpt lat="47.00651" lon="8.87162">
        <ele>1479</ele>
        <time>2021-08-03T11:00:41.955Z</time>
      </trkpt>
      <trkpt lat="47.00651" lon="8.87161">
        <ele>1479</ele>
        <time>2021-08-03T11:00:42.955Z</time>
      </trkpt>
      <trkpt lat="47.0065" lon="8.87161">
        <ele>1480</ele>
        <time>2021-08-03T11:00:43.955Z</time>
      </trkpt>
      <trkpt lat="47.0065" lon="8.87161">
        <ele>1480</ele>
        <time>2021-08-03T11:00:44.955Z</time>
      </trkpt>
      <trkpt lat="47.0065" lon="8.8716">
        <ele>1480</ele>
        <time>2021-08-03T11:00:45.955Z</time>
      </trkpt>
      <trkpt lat="47.0065" lon="8.8716">
        <ele>1480</ele>
        <time>2021-08-03T11:00:46.955Z</time>
      </trkpt>
      <trkpt lat="47.0065" lon="8.87159">
        <ele>1480</ele>
        <time>2021-08-03T11:00:47.955Z</time>
      </trkpt>
      <trkpt lat="47.0065" lon="8.87159">
        <ele>1480</ele>
        <time>2021-08-03T11:00:48.955Z</time>
      </trkpt>
      <trkpt lat="47.00649" lon="8.87159">
        <ele>1480</ele>
        <time>2021-08-03T11:00:49.955Z</time>
      </trkpt>
      <trkpt lat="47.00649" lon="8.87158">
        <ele>1480</ele>
        <time>2021-08-03T11:00:50.955Z</time>
      </trkpt>
      <trkpt lat="47.00649" lon="8.87158">
        <ele>1480</ele>
        <time>2021-08-03T11:00:51.955Z</time>
      </trkpt>
      <trkpt lat="47.00648" lon="8.87157">
        <ele>1480</ele>
        <time>2021-08-03T11:00:52.955Z</time>
      </trkpt>
      <trkpt lat="47.00648" lon="8.87157">
        <ele>1480</ele>
        <time>2021-08-03T11:00:53.955Z</time>
      </trkpt>
      <trkpt lat="47.00647" lon="8.87157">
        <ele>1479</ele>
        <time>2021-08-03T11:00:54.955Z</time>
      </trkpt>
      <trkpt lat="47.00646" lon="8.87157">
        <ele>1478</ele>
        <time>2021-08-03T11:00:55.955Z</time>
      </trkpt>
      <trkpt lat="47.00645" lon="8.87157">
        <ele>1478</ele>
        <time>2021-08-03T11:00:56.955Z</time>
      </trkpt>
      <trkpt lat="47.00645" lon="8.87157">
        <ele>1477</ele>
        <time>2021-08-03T11:00:57.955Z</time>
      </trkpt>
      <trkpt lat="47.00645" lon="8.87156">
        <ele>1476</ele>
        <time>2021-08-03T11:00:58.955Z</time>
      </trkpt>
      <trkpt lat="47.00645" lon="8.87156">
        <ele>1476</ele>
        <time>2021-08-03T11:00:59.955Z</time>
      </trkpt>
      <trkpt lat="47.00644" lon="8.87155">
        <ele>1476</ele>
        <time>2021-08-03T11:01:00.955Z</time>
      </trkpt>
      <trkpt lat="47.00644" lon="8.87154">
        <ele>1476</ele>
        <time>2021-08-03T11:01:01.955Z</time>
      </trkpt>
      <trkpt lat="47.00643" lon="8.87153">
        <ele>1476</ele>
        <time>2021-08-03T11:01:02.955Z</time>
      </trkpt>
      <trkpt lat="47.00642" lon="8.87152">
        <ele>1476</ele>
        <time>2021-08-03T11:01:03.955Z</time>
      </trkpt>
      <trkpt lat="47.00641" lon="8.87152">
        <ele>1475</ele>
        <time>2021-08-03T11:01:04.955Z</time>
      </trkpt>
      <trkpt lat="47.0064" lon="8.87152">
        <ele>1475</ele>
        <time>2021-08-03T11:01:05.955Z</time>
      </trkpt>
      <trkpt lat="47.00639" lon="8.87152">
        <ele>1475</ele>
        <time>2021-08-03T11:01:06.955Z</time>
      </trkpt>
      <trkpt lat="47.00637" lon="8.87152">
        <ele>1474</ele>
        <time>2021-08-03T11:01:07.955Z</time>
      </trkpt>
      <trkpt lat="47.00636" lon="8.87152">
        <ele>1474</ele>
        <time>2021-08-03T11:01:08.955Z</time>
      </trkpt>
      <trkpt lat="47.00636" lon="8.87152">
        <ele>1474</ele>
        <time>2021-08-03T11:01:09.955Z</time>
      </trkpt>
      <trkpt lat="47.00635" lon="8.87151">
        <ele>1474</ele>
        <time>2021-08-03T11:01:32.976Z</time>
      </trkpt>
      <trkpt lat="47.00634" lon="8.87151">
        <ele>1474</ele>
        <time>2021-08-03T11:01:33.976Z</time>
      </trkpt>
      <trkpt lat="47.00633" lon="8.8715">
        <ele>1473</ele>
        <time>2021-08-03T11:01:34.976Z</time>
      </trkpt>
      <trkpt lat="47.00632" lon="8.87149">
        <ele>1473</ele>
        <time>2021-08-03T11:01:35.976Z</time>
      </trkpt>
      <trkpt lat="47.00631" lon="8.87149">
        <ele>1474</ele>
        <time>2021-08-03T11:01:36.976Z</time>
      </trkpt>
      <trkpt lat="47.0063" lon="8.87148">
        <ele>1475</ele>
        <time>2021-08-03T11:01:37.976Z</time>
      </trkpt>
      <trkpt lat="47.0063" lon="8.87148">
        <ele>1476</ele>
        <time>2021-08-03T11:01:38.976Z</time>
      </trkpt>
      <trkpt lat="47.00629" lon="8.87147">
        <ele>1477</ele>
        <time>2021-08-03T11:01:39.976Z</time>
      </trkpt>
      <trkpt lat="47.00628" lon="8.87147">
        <ele>1477</ele>
        <time>2021-08-03T11:01:40.976Z</time>
      </trkpt>
      <trkpt lat="47.00627" lon="8.87147">
        <ele>1478</ele>
        <time>2021-08-03T11:01:41.976Z</time>
      </trkpt>
      <trkpt lat="47.00626" lon="8.87147">
        <ele>1478</ele>
        <time>2021-08-03T11:01:42.976Z</time>
      </trkpt>
      <trkpt lat="47.00625" lon="8.87146">
        <ele>1478</ele>
        <time>2021-08-03T11:01:43.976Z</time>
      </trkpt>
      <trkpt lat="47.00624" lon="8.87146">
        <ele>1478</ele>
        <time>2021-08-03T11:01:44.976Z</time>
      </trkpt>
      <trkpt lat="47.00623" lon="8.87145">
        <ele>1478</ele>
        <time>2021-08-03T11:01:45.976Z</time>
      </trkpt>
      <trkpt lat="47.00622" lon="8.87145">
        <ele>1478</ele>
        <time>2021-08-03T11:01:46.976Z</time>
      </trkpt>
      <trkpt lat="47.00621" lon="8.87144">
        <ele>1478</ele>
        <time>2021-08-03T11:01:47.976Z</time>
      </trkpt>
      <trkpt lat="47.00621" lon="8.87143">
        <ele>1478</ele>
        <time>2021-08-03T11:01:48.976Z</time>
      </trkpt>
      <trkpt lat="47.0062" lon="8.87143">
        <ele>1478</ele>
        <time>2021-08-03T11:01:49.976Z</time>
      </trkpt>
      <trkpt lat="47.0062" lon="8.87142">
        <ele>1478</ele>
        <time>2021-08-03T11:01:50.976Z</time>
      </trkpt>
      <trkpt lat="47.0062" lon="8.87142">
        <ele>1478</ele>
        <time>2021-08-03T11:01:51.976Z</time>
      </trkpt>
      <trkpt lat="47.0062" lon="8.87142">
        <ele>1478</ele>
        <time>2021-08-03T11:01:52.976Z</time>
      </trkpt>
      <trkpt lat="47.00621" lon="8.8714">
        <ele>1480</ele>
        <time>2021-08-03T11:01:53.976Z</time>
      </trkpt>
      <trkpt lat="47.00621" lon="8.8714">
        <ele>1480</ele>
        <time>2021-08-03T11:01:54.977Z</time>
      </trkpt>
      <trkpt lat="47.00622" lon="8.87141">
        <ele>1480</ele>
        <time>2021-08-03T11:01:55.977Z</time>
      </trkpt>
      <trkpt lat="47.0062" lon="8.87141">
        <ele>1478</ele>
        <time>2021-08-03T11:01:56.978Z</time>
      </trkpt>
      <trkpt lat="47.00619" lon="8.8714">
        <ele>1478</ele>
        <time>2021-08-03T11:01:57.977Z</time>
      </trkpt>
      <trkpt lat="47.00618" lon="8.8714">
        <ele>1478</ele>
        <time>2021-08-03T11:01:58.977Z</time>
      </trkpt>
      <trkpt lat="47.00617" lon="8.8714">
        <ele>1477</ele>
        <time>2021-08-03T11:01:59.978Z</time>
      </trkpt>
      <trkpt lat="47.00616" lon="8.8714">
        <ele>1477</ele>
        <time>2021-08-03T11:02:00.978Z</time>
      </trkpt>
      <trkpt lat="47.00616" lon="8.8714">
        <ele>1477</ele>
        <time>2021-08-03T11:02:01.978Z</time>
      </trkpt>
      <trkpt lat="47.00615" lon="8.8714">
        <ele>1476</ele>
        <time>2021-08-03T11:02:02.977Z</time>
      </trkpt>
      <trkpt lat="47.00615" lon="8.8714">
        <ele>1476</ele>
        <time>2021-08-03T11:02:03.978Z</time>
      </trkpt>
      <trkpt lat="47.00614" lon="8.8714">
        <ele>1475</ele>
        <time>2021-08-03T11:02:04.978Z</time>
      </trkpt>
      <trkpt lat="47.00613" lon="8.87141">
        <ele>1475</ele>
        <time>2021-08-03T11:02:05.978Z</time>
      </trkpt>
      <trkpt lat="47.00612" lon="8.8714">
        <ele>1474</ele>
        <time>2021-08-03T11:02:06.977Z</time>
      </trkpt>
      <trkpt lat="47.00611" lon="8.8714">
        <ele>1474</ele>
        <time>2021-08-03T11:02:07.977Z</time>
      </trkpt>
      <trkpt lat="47.0061" lon="8.8714">
        <ele>1474</ele>
        <time>2021-08-03T11:02:08.978Z</time>
      </trkpt>
      <trkpt lat="47.0061" lon="8.8714">
        <ele>1475</ele>
        <time>2021-08-03T11:02:09.978Z</time>
      </trkpt>
      <trkpt lat="47.00609" lon="8.8714">
        <ele>1475</ele>
        <time>2021-08-03T11:02:10.978Z</time>
      </trkpt>
      <trkpt lat="47.00609" lon="8.8714">
        <ele>1476</ele>
        <time>2021-08-03T11:02:11.978Z</time>
      </trkpt>
      <trkpt lat="47.00608" lon="8.87139">
        <ele>1476</ele>
        <time>2021-08-03T11:02:12.978Z</time>
      </trkpt>
      <trkpt lat="47.00607" lon="8.87139">
        <ele>1476</ele>
        <time>2021-08-03T11:02:13.978Z</time>
      </trkpt>
      <trkpt lat="47.00606" lon="8.87139">
        <ele>1476</ele>
        <time>2021-08-03T11:02:14.977Z</time>
      </trkpt>
      <trkpt lat="47.00606" lon="8.87139">
        <ele>1476</ele>
        <time>2021-08-03T11:02:15.977Z</time>
      </trkpt>
      <trkpt lat="47.00605" lon="8.87138">
        <ele>1476</ele>
        <time>2021-08-03T11:02:16.978Z</time>
      </trkpt>
      <trkpt lat="47.00604" lon="8.87138">
        <ele>1475</ele>
        <time>2021-08-03T11:02:17.978Z</time>
      </trkpt>
      <trkpt lat="47.00604" lon="8.87137">
        <ele>1476</ele>
        <time>2021-08-03T11:02:18.977Z</time>
      </trkpt>
      <trkpt lat="47.00603" lon="8.87137">
        <ele>1476</ele>
        <time>2021-08-03T11:02:19.977Z</time>
      </trkpt>
      <trkpt lat="47.00602" lon="8.87137">
        <ele>1476</ele>
        <time>2021-08-03T11:02:20.978Z</time>
      </trkpt>
      <trkpt lat="47.00602" lon="8.87137">
        <ele>1476</ele>
        <time>2021-08-03T11:02:21.977Z</time>
      </trkpt>
      <trkpt lat="47.00601" lon="8.87136">
        <ele>1476</ele>
        <time>2021-08-03T11:02:22.978Z</time>
      </trkpt>
      <trkpt lat="47.006" lon="8.87136">
        <ele>1475</ele>
        <time>2021-08-03T11:02:23.978Z</time>
      </trkpt>
      <trkpt lat="47.00599" lon="8.87136">
        <ele>1475</ele>
        <time>2021-08-03T11:02:24.978Z</time>
      </trkpt>
      <trkpt lat="47.00599" lon="8.87135">
        <ele>1475</ele>
        <time>2021-08-03T11:02:25.978Z</time>
      </trkpt>
      <trkpt lat="47.00598" lon="8.87135">
        <ele>1475</ele>
        <time>2021-08-03T11:02:26.978Z</time>
      </trkpt>
      <trkpt lat="47.00597" lon="8.87135">
        <ele>1475</ele>
        <time>2021-08-03T11:02:27.977Z</time>
      </trkpt>
      <trkpt lat="47.00596" lon="8.87135">
        <ele>1476</ele>
        <time>2021-08-03T11:02:28.978Z</time>
      </trkpt>
      <trkpt lat="47.00595" lon="8.87135">
        <ele>1477</ele>
        <time>2021-08-03T11:02:29.978Z</time>
      </trkpt>
      <trkpt lat="47.00594" lon="8.87135">
        <ele>1478</ele>
        <time>2021-08-03T11:02:30.978Z</time>
      </trkpt>
      <trkpt lat="47.00593" lon="8.87135">
        <ele>1479</ele>
        <time>2021-08-03T11:02:31.977Z</time>
      </trkpt>
      <trkpt lat="47.00593" lon="8.87135">
        <ele>1479</ele>
        <time>2021-08-03T11:02:32.977Z</time>
      </trkpt>
      <trkpt lat="47.00592" lon="8.87134">
        <ele>1480</ele>
        <time>2021-08-03T11:02:33.977Z</time>
      </trkpt>
      <trkpt lat="47.00591" lon="8.87134">
        <ele>1480</ele>
        <time>2021-08-03T11:02:34.978Z</time>
      </trkpt>
      <trkpt lat="47.00591" lon="8.87134">
        <ele>1480</ele>
        <time>2021-08-03T11:02:35.978Z</time>
      </trkpt>
      <trkpt lat="47.0059" lon="8.87134">
        <ele>1480</ele>
        <time>2021-08-03T11:02:45.127Z</time>
      </trkpt>
      <trkpt lat="47.0059" lon="8.87134">
        <ele>1480</ele>
        <time>2021-08-03T11:02:46.126Z</time>
      </trkpt>
      <trkpt lat="47.00589" lon="8.87134">
        <ele>1480</ele>
        <time>2021-08-03T11:02:47.126Z</time>
      </trkpt>
      <trkpt lat="47.00589" lon="8.87134">
        <ele>1480</ele>
        <time>2021-08-03T11:02:48.126Z</time>
      </trkpt>
      <trkpt lat="47.00588" lon="8.87133">
        <ele>1481</ele>
        <time>2021-08-03T11:02:49.127Z</time>
      </trkpt>
      <trkpt lat="47.00587" lon="8.87133">
        <ele>1482</ele>
        <time>2021-08-03T11:02:50.126Z</time>
      </trkpt>
      <trkpt lat="47.00586" lon="8.87132">
        <ele>1482</ele>
        <time>2021-08-03T11:02:51.127Z</time>
      </trkpt>
      <trkpt lat="47.00585" lon="8.87131">
        <ele>1482</ele>
        <time>2021-08-03T11:02:52.127Z</time>
      </trkpt>
      <trkpt lat="47.00583" lon="8.87131">
        <ele>1482</ele>
        <time>2021-08-03T11:02:53.127Z</time>
      </trkpt>
      <trkpt lat="47.00583" lon="8.87131">
        <ele>1481</ele>
        <time>2021-08-03T11:02:57.250Z</time>
      </trkpt>
      <trkpt lat="47.00582" lon="8.87131">
        <ele>1481</ele>
        <time>2021-08-03T11:02:58.249Z</time>
      </trkpt>
      <trkpt lat="47.00581" lon="8.87131">
        <ele>1481</ele>
        <time>2021-08-03T11:02:59.250Z</time>
      </trkpt>
      <trkpt lat="47.0058" lon="8.87131">
        <ele>1481</ele>
        <time>2021-08-03T11:03:00.250Z</time>
      </trkpt>
      <trkpt lat="47.00579" lon="8.8713">
        <ele>1481</ele>
        <time>2021-08-03T11:03:01.250Z</time>
      </trkpt>
      <trkpt lat="47.00578" lon="8.8713">
        <ele>1480</ele>
        <time>2021-08-03T11:03:02.250Z</time>
      </trkpt>
      <trkpt lat="47.00577" lon="8.87129">
        <ele>1480</ele>
        <time>2021-08-03T11:03:03.249Z</time>
      </trkpt>
      <trkpt lat="47.00576" lon="8.87129">
        <ele>1480</ele>
        <time>2021-08-03T11:03:04.249Z</time>
      </trkpt>
      <trkpt lat="47.00575" lon="8.87129">
        <ele>1480</ele>
        <time>2021-08-03T11:03:05.250Z</time>
      </trkpt>
      <trkpt lat="47.00574" lon="8.87129">
        <ele>1480</ele>
        <time>2021-08-03T11:03:06.249Z</time>
      </trkpt>
      <trkpt lat="47.00573" lon="8.87128">
        <ele>1480</ele>
        <time>2021-08-03T11:03:07.249Z</time>
      </trkpt>
      <trkpt lat="47.00572" lon="8.87128">
        <ele>1480</ele>
        <time>2021-08-03T11:03:08.250Z</time>
      </trkpt>
      <trkpt lat="47.00571" lon="8.87128">
        <ele>1479</ele>
        <time>2021-08-03T11:03:09.249Z</time>
      </trkpt>
      <trkpt lat="47.0057" lon="8.87128">
        <ele>1479</ele>
        <time>2021-08-03T11:03:10.250Z</time>
      </trkpt>
      <trkpt lat="47.00569" lon="8.87127">
        <ele>1479</ele>
        <time>2021-08-03T11:03:11.250Z</time>
      </trkpt>
      <trkpt lat="47.00568" lon="8.87127">
        <ele>1479</ele>
        <time>2021-08-03T11:03:12.249Z</time>
      </trkpt>
      <trkpt lat="47.00567" lon="8.87127">
        <ele>1479</ele>
        <time>2021-08-03T11:03:13.250Z</time>
      </trkpt>
      <trkpt lat="47.00565" lon="8.87127">
        <ele>1480</ele>
        <time>2021-08-03T11:03:14.250Z</time>
      </trkpt>
      <trkpt lat="47.00565" lon="8.87127">
        <ele>1480</ele>
        <time>2021-08-03T11:03:15.249Z</time>
      </trkpt>
      <trkpt lat="47.00564" lon="8.87126">
        <ele>1480</ele>
        <time>2021-08-03T11:03:16.250Z</time>
      </trkpt>
      <trkpt lat="47.00563" lon="8.87127">
        <ele>1480</ele>
        <time>2021-08-03T11:03:17.250Z</time>
      </trkpt>
      <trkpt lat="47.00562" lon="8.87127">
        <ele>1480</ele>
        <time>2021-08-03T11:03:18.250Z</time>
      </trkpt>
      <trkpt lat="47.00561" lon="8.87127">
        <ele>1481</ele>
        <time>2021-08-03T11:03:19.250Z</time>
      </trkpt>
      <trkpt lat="47.0056" lon="8.87127">
        <ele>1481</ele>
        <time>2021-08-03T11:03:20.249Z</time>
      </trkpt>
      <trkpt lat="47.00559" lon="8.87128">
        <ele>1481</ele>
        <time>2021-08-03T11:03:21.250Z</time>
      </trkpt>
      <trkpt lat="47.00559" lon="8.87128">
        <ele>1481</ele>
        <time>2021-08-03T11:03:22.250Z</time>
      </trkpt>
      <trkpt lat="47.00558" lon="8.87128">
        <ele>1480</ele>
        <time>2021-08-03T11:03:23.249Z</time>
      </trkpt>
      <trkpt lat="47.00558" lon="8.87128">
        <ele>1480</ele>
        <time>2021-08-03T11:03:24.250Z</time>
      </trkpt>
      <trkpt lat="47.00557" lon="8.87128">
        <ele>1480</ele>
        <time>2021-08-03T11:03:25.249Z</time>
      </trkpt>
      <trkpt lat="47.00557" lon="8.87128">
        <ele>1481</ele>
        <time>2021-08-03T11:03:26.250Z</time>
      </trkpt>
      <trkpt lat="47.00556" lon="8.87128">
        <ele>1482</ele>
        <time>2021-08-03T11:03:27.249Z</time>
      </trkpt>
      <trkpt lat="47.00555" lon="8.87128">
        <ele>1482</ele>
        <time>2021-08-03T11:03:28.250Z</time>
      </trkpt>
      <trkpt lat="47.00554" lon="8.87127">
        <ele>1483</ele>
        <time>2021-08-03T11:03:29.250Z</time>
      </trkpt>
      <trkpt lat="47.00554" lon="8.87127">
        <ele>1483</ele>
        <time>2021-08-03T11:03:30.249Z</time>
      </trkpt>
      <trkpt lat="47.00553" lon="8.87126">
        <ele>1483</ele>
        <time>2021-08-03T11:03:31.249Z</time>
      </trkpt>
      <trkpt lat="47.00552" lon="8.87126">
        <ele>1483</ele>
        <time>2021-08-03T11:03:32.249Z</time>
      </trkpt>
      <trkpt lat="47.00552" lon="8.87126">
        <ele>1483</ele>
        <time>2021-08-03T11:03:33.250Z</time>
      </trkpt>
      <trkpt lat="47.00551" lon="8.87126">
        <ele>1482</ele>
        <time>2021-08-03T11:03:34.249Z</time>
      </trkpt>
      <trkpt lat="47.0055" lon="8.87125">
        <ele>1482</ele>
        <time>2021-08-03T11:03:35.250Z</time>
      </trkpt>
      <trkpt lat="47.00549" lon="8.87125">
        <ele>1482</ele>
        <time>2021-08-03T11:03:36.250Z</time>
      </trkpt>
      <trkpt lat="47.00549" lon="8.87124">
        <ele>1482</ele>
        <time>2021-08-03T11:03:37.249Z</time>
      </trkpt>
      <trkpt lat="47.00548" lon="8.87124">
        <ele>1482</ele>
        <time>2021-08-03T11:03:38.250Z</time>
      </trkpt>
      <trkpt lat="47.00547" lon="8.87124">
        <ele>1481</ele>
        <time>2021-08-03T11:03:39.249Z</time>
      </trkpt>
      <trkpt lat="47.00546" lon="8.87124">
        <ele>1482</ele>
        <time>2021-08-03T11:03:40.249Z</time>
      </trkpt>
      <trkpt lat="47.00545" lon="8.87123">
        <ele>1482</ele>
        <time>2021-08-03T11:03:41.250Z</time>
      </trkpt>
      <trkpt lat="47.00544" lon="8.87124">
        <ele>1481</ele>
        <time>2021-08-03T11:03:42.249Z</time>
      </trkpt>
      <trkpt lat="47.00543" lon="8.87124">
        <ele>1481</ele>
        <time>2021-08-03T11:03:43.249Z</time>
      </trkpt>
      <trkpt lat="47.00542" lon="8.87124">
        <ele>1480</ele>
        <time>2021-08-03T11:03:44.250Z</time>
      </trkpt>
      <trkpt lat="47.00541" lon="8.87124">
        <ele>1480</ele>
        <time>2021-08-03T11:03:45.249Z</time>
      </trkpt>
      <trkpt lat="47.0054" lon="8.87124">
        <ele>1480</ele>
        <time>2021-08-03T11:03:46.249Z</time>
      </trkpt>
      <trkpt lat="47.00539" lon="8.87124">
        <ele>1480</ele>
        <time>2021-08-03T11:03:47.249Z</time>
      </trkpt>
      <trkpt lat="47.00538" lon="8.87124">
        <ele>1480</ele>
        <time>2021-08-03T11:03:48.250Z</time>
      </trkpt>
      <trkpt lat="47.00537" lon="8.87124">
        <ele>1479</ele>
        <time>2021-08-03T11:03:49.249Z</time>
      </trkpt>
      <trkpt lat="47.00537" lon="8.87124">
        <ele>1479</ele>
        <time>2021-08-03T11:03:50.250Z</time>
      </trkpt>
      <trkpt lat="47.00536" lon="8.87124">
        <ele>1479</ele>
        <time>2021-08-03T11:03:51.250Z</time>
      </trkpt>
      <trkpt lat="47.00536" lon="8.87124">
        <ele>1479</ele>
        <time>2021-08-03T11:03:52.249Z</time>
      </trkpt>
      <trkpt lat="47.00535" lon="8.87124">
        <ele>1479</ele>
        <time>2021-08-03T11:03:53.250Z</time>
      </trkpt>
      <trkpt lat="47.00534" lon="8.87124">
        <ele>1478</ele>
        <time>2021-08-03T11:03:54.249Z</time>
      </trkpt>
      <trkpt lat="47.00534" lon="8.87124">
        <ele>1478</ele>
        <time>2021-08-03T11:03:55.249Z</time>
      </trkpt>
      <trkpt lat="47.00533" lon="8.87123">
        <ele>1479</ele>
        <time>2021-08-03T11:03:56.249Z</time>
      </trkpt>
      <trkpt lat="47.00532" lon="8.87123">
        <ele>1479</ele>
        <time>2021-08-03T11:03:57.250Z</time>
      </trkpt>
      <trkpt lat="47.00531" lon="8.87122">
        <ele>1480</ele>
        <time>2021-08-03T11:03:58.249Z</time>
      </trkpt>
      <trkpt lat="47.00531" lon="8.87122">
        <ele>1481</ele>
        <time>2021-08-03T11:03:59.250Z</time>
      </trkpt>
      <trkpt lat="47.0053" lon="8.87122">
        <ele>1481</ele>
        <time>2021-08-03T11:04:00.249Z</time>
      </trkpt>
      <trkpt lat="47.00529" lon="8.87122">
        <ele>1481</ele>
        <time>2021-08-03T11:04:02.227Z</time>
      </trkpt>
      <trkpt lat="47.00528" lon="8.87122">
        <ele>1482</ele>
        <time>2021-08-03T11:04:03.226Z</time>
      </trkpt>
      <trkpt lat="47.00527" lon="8.87122">
        <ele>1482</ele>
        <time>2021-08-03T11:04:04.226Z</time>
      </trkpt>
      <trkpt lat="47.00526" lon="8.87121">
        <ele>1481</ele>
        <time>2021-08-03T11:04:05.227Z</time>
      </trkpt>
      <trkpt lat="47.00525" lon="8.87121">
        <ele>1481</ele>
        <time>2021-08-03T11:04:06.226Z</time>
      </trkpt>
      <trkpt lat="47.00524" lon="8.8712">
        <ele>1481</ele>
        <time>2021-08-03T11:04:07.226Z</time>
      </trkpt>
      <trkpt lat="47.00523" lon="8.8712">
        <ele>1481</ele>
        <time>2021-08-03T11:04:08.227Z</time>
      </trkpt>
      <trkpt lat="47.00522" lon="8.8712">
        <ele>1481</ele>
        <time>2021-08-03T11:04:09.226Z</time>
      </trkpt>
      <trkpt lat="47.00522" lon="8.87119">
        <ele>1480</ele>
        <time>2021-08-03T11:04:10.227Z</time>
      </trkpt>
      <trkpt lat="47.0052" lon="8.87118">
        <ele>1480</ele>
        <time>2021-08-03T11:04:11.226Z</time>
      </trkpt>
      <trkpt lat="47.0052" lon="8.87118">
        <ele>1480</ele>
        <time>2021-08-03T11:04:12.226Z</time>
      </trkpt>
      <trkpt lat="47.00519" lon="8.87117">
        <ele>1479</ele>
        <time>2021-08-03T11:04:13.226Z</time>
      </trkpt>
      <trkpt lat="47.00518" lon="8.87116">
        <ele>1479</ele>
        <time>2021-08-03T11:04:14.227Z</time>
      </trkpt>
      <trkpt lat="47.00517" lon="8.87116">
        <ele>1479</ele>
        <time>2021-08-03T11:04:15.226Z</time>
      </trkpt>
      <trkpt lat="47.00516" lon="8.87115">
        <ele>1479</ele>
        <time>2021-08-03T11:04:16.226Z</time>
      </trkpt>
      <trkpt lat="47.00515" lon="8.87115">
        <ele>1479</ele>
        <time>2021-08-03T11:04:17.227Z</time>
      </trkpt>
      <trkpt lat="47.00514" lon="8.87115">
        <ele>1479</ele>
        <time>2021-08-03T11:04:18.227Z</time>
      </trkpt>
      <trkpt lat="47.00513" lon="8.87114">
        <ele>1479</ele>
        <time>2021-08-03T11:04:19.227Z</time>
      </trkpt>
      <trkpt lat="47.00512" lon="8.87114">
        <ele>1478</ele>
        <time>2021-08-03T11:04:20.226Z</time>
      </trkpt>
      <trkpt lat="47.00512" lon="8.87113">
        <ele>1479</ele>
        <time>2021-08-03T11:04:21.226Z</time>
      </trkpt>
      <trkpt lat="47.00511" lon="8.87113">
        <ele>1479</ele>
        <time>2021-08-03T11:04:22.226Z</time>
      </trkpt>
      <trkpt lat="47.00511" lon="8.87113">
        <ele>1480</ele>
        <time>2021-08-03T11:04:23.227Z</time>
      </trkpt>
      <trkpt lat="47.00511" lon="8.87113">
        <ele>1481</ele>
        <time>2021-08-03T11:04:24.227Z</time>
      </trkpt>
      <trkpt lat="47.0051" lon="8.87112">
        <ele>1482</ele>
        <time>2021-08-03T11:04:25.226Z</time>
      </trkpt>
      <trkpt lat="47.00509" lon="8.87112">
        <ele>1482</ele>
        <time>2021-08-03T11:04:26.226Z</time>
      </trkpt>
      <trkpt lat="47.00508" lon="8.87112">
        <ele>1481</ele>
        <time>2021-08-03T11:04:27.226Z</time>
      </trkpt>
      <trkpt lat="47.00508" lon="8.87112">
        <ele>1481</ele>
        <time>2021-08-03T11:04:28.227Z</time>
      </trkpt>
      <trkpt lat="47.00507" lon="8.87112">
        <ele>1480</ele>
        <time>2021-08-03T11:04:29.227Z</time>
      </trkpt>
      <trkpt lat="47.00507" lon="8.87112">
        <ele>1479</ele>
        <time>2021-08-03T11:04:30.227Z</time>
      </trkpt>
      <trkpt lat="47.00505" lon="8.87112">
        <ele>1479</ele>
        <time>2021-08-03T11:04:31.227Z</time>
      </trkpt>
      <trkpt lat="47.00504" lon="8.87113">
        <ele>1478</ele>
        <time>2021-08-03T11:04:32.227Z</time>
      </trkpt>
      <trkpt lat="47.00504" lon="8.87114">
        <ele>1478</ele>
        <time>2021-08-03T11:04:33.227Z</time>
      </trkpt>
      <trkpt lat="47.00503" lon="8.87115">
        <ele>1478</ele>
        <time>2021-08-03T11:04:34.226Z</time>
      </trkpt>
      <trkpt lat="47.00502" lon="8.87116">
        <ele>1478</ele>
        <time>2021-08-03T11:04:35.227Z</time>
      </trkpt>
      <trkpt lat="47.00501" lon="8.87116">
        <ele>1478</ele>
        <time>2021-08-03T11:04:36.226Z</time>
      </trkpt>
      <trkpt lat="47.005" lon="8.87117">
        <ele>1478</ele>
        <time>2021-08-03T11:04:37.227Z</time>
      </trkpt>
      <trkpt lat="47.00499" lon="8.87117">
        <ele>1478</ele>
        <time>2021-08-03T11:04:38.226Z</time>
      </trkpt>
      <trkpt lat="47.00498" lon="8.87117">
        <ele>1478</ele>
        <time>2021-08-03T11:04:39.227Z</time>
      </trkpt>
      <trkpt lat="47.00496" lon="8.87117">
        <ele>1478</ele>
        <time>2021-08-03T11:04:40.226Z</time>
      </trkpt>
      <trkpt lat="47.00495" lon="8.87117">
        <ele>1478</ele>
        <time>2021-08-03T11:04:41.226Z</time>
      </trkpt>
      <trkpt lat="47.00494" lon="8.87117">
        <ele>1478</ele>
        <time>2021-08-03T11:04:42.227Z</time>
      </trkpt>
      <trkpt lat="47.00493" lon="8.87117">
        <ele>1478</ele>
        <time>2021-08-03T11:04:43.227Z</time>
      </trkpt>
      <trkpt lat="47.00492" lon="8.87118">
        <ele>1478</ele>
        <time>2021-08-03T11:04:44.226Z</time>
      </trkpt>
      <trkpt lat="47.00491" lon="8.87118">
        <ele>1478</ele>
        <time>2021-08-03T11:04:45.226Z</time>
      </trkpt>
      <trkpt lat="47.0049" lon="8.87118">
        <ele>1477</ele>
        <time>2021-08-03T11:04:46.227Z</time>
      </trkpt>
      <trkpt lat="47.00489" lon="8.87118">
        <ele>1477</ele>
        <time>2021-08-03T11:04:47.226Z</time>
      </trkpt>
      <trkpt lat="47.00488" lon="8.87118">
        <ele>1477</ele>
        <time>2021-08-03T11:04:48.226Z</time>
      </trkpt>
      <trkpt lat="47.00488" lon="8.87118">
        <ele>1477</ele>
        <time>2021-08-03T11:04:49.226Z</time>
      </trkpt>
      <trkpt lat="47.00487" lon="8.87118">
        <ele>1476</ele>
        <time>2021-08-03T11:04:50.226Z</time>
      </trkpt>
      <trkpt lat="47.00486" lon="8.87118">
        <ele>1476</ele>
        <time>2021-08-03T11:04:51.227Z</time>
      </trkpt>
      <trkpt lat="47.00486" lon="8.87118">
        <ele>1476</ele>
        <time>2021-08-03T11:04:52.227Z</time>
      </trkpt>
      <trkpt lat="47.00485" lon="8.87117">
        <ele>1476</ele>
        <time>2021-08-03T11:04:53.227Z</time>
      </trkpt>
      <trkpt lat="47.00484" lon="8.87117">
        <ele>1476</ele>
        <time>2021-08-03T11:04:54.227Z</time>
      </trkpt>
      <trkpt lat="47.00483" lon="8.87117">
        <ele>1476</ele>
        <time>2021-08-03T11:04:55.227Z</time>
      </trkpt>
      <trkpt lat="47.00482" lon="8.87117">
        <ele>1476</ele>
        <time>2021-08-03T11:04:56.227Z</time>
      </trkpt>
      <trkpt lat="47.00482" lon="8.87117">
        <ele>1476</ele>
        <time>2021-08-03T11:04:57.226Z</time>
      </trkpt>
      <trkpt lat="47.00481" lon="8.87117">
        <ele>1476</ele>
        <time>2021-08-03T11:04:58.227Z</time>
      </trkpt>
      <trkpt lat="47.00481" lon="8.87117">
        <ele>1476</ele>
        <time>2021-08-03T11:04:59.226Z</time>
      </trkpt>
      <trkpt lat="47.0048" lon="8.87117">
        <ele>1476</ele>
        <time>2021-08-03T11:05:00.227Z</time>
      </trkpt>
      <trkpt lat="47.00479" lon="8.87117">
        <ele>1476</ele>
        <time>2021-08-03T11:05:01.226Z</time>
      </trkpt>
      <trkpt lat="47.00479" lon="8.87116">
        <ele>1476</ele>
        <time>2021-08-03T11:05:02.227Z</time>
      </trkpt>
      <trkpt lat="47.00478" lon="8.87116">
        <ele>1476</ele>
        <time>2021-08-03T11:05:03.227Z</time>
      </trkpt>
      <trkpt lat="47.00477" lon="8.87116">
        <ele>1477</ele>
        <time>2021-08-03T11:05:04.227Z</time>
      </trkpt>
      <trkpt lat="47.00477" lon="8.87116">
        <ele>1478</ele>
        <time>2021-08-03T11:05:05.227Z</time>
      </trkpt>
      <trkpt lat="47.00476" lon="8.87116">
        <ele>1478</ele>
        <time>2021-08-03T11:05:06.226Z</time>
      </trkpt>
      <trkpt lat="47.00475" lon="8.87116">
        <ele>1478</ele>
        <time>2021-08-03T11:05:07.227Z</time>
      </trkpt>
      <trkpt lat="47.00474" lon="8.87116">
        <ele>1478</ele>
        <time>2021-08-03T11:05:08.226Z</time>
      </trkpt>
      <trkpt lat="47.00474" lon="8.87116">
        <ele>1478</ele>
        <time>2021-08-03T11:05:09.226Z</time>
      </trkpt>
      <trkpt lat="47.00473" lon="8.87116">
        <ele>1478</ele>
        <time>2021-08-03T11:05:10.227Z</time>
      </trkpt>
      <trkpt lat="47.00473" lon="8.87115">
        <ele>1478</ele>
        <time>2021-08-03T11:05:11.226Z</time>
      </trkpt>
      <trkpt lat="47.00472" lon="8.87115">
        <ele>1478</ele>
        <time>2021-08-03T11:05:12.227Z</time>
      </trkpt>
      <trkpt lat="47.00471" lon="8.87115">
        <ele>1477</ele>
        <time>2021-08-03T11:05:13.226Z</time>
      </trkpt>
      <trkpt lat="47.00471" lon="8.87115">
        <ele>1477</ele>
        <time>2021-08-03T11:05:14.226Z</time>
      </trkpt>
      <trkpt lat="47.0047" lon="8.87114">
        <ele>1477</ele>
        <time>2021-08-03T11:05:15.226Z</time>
      </trkpt>
      <trkpt lat="47.0047" lon="8.87114">
        <ele>1477</ele>
        <time>2021-08-03T11:05:16.227Z</time>
      </trkpt>
      <trkpt lat="47.00469" lon="8.87114">
        <ele>1477</ele>
        <time>2021-08-03T11:05:17.226Z</time>
      </trkpt>
      <trkpt lat="47.00468" lon="8.87114">
        <ele>1478</ele>
        <time>2021-08-03T11:05:18.226Z</time>
      </trkpt>
      <trkpt lat="47.00467" lon="8.87113">
        <ele>1478</ele>
        <time>2021-08-03T11:05:19.227Z</time>
      </trkpt>
      <trkpt lat="47.00467" lon="8.87113">
        <ele>1478</ele>
        <time>2021-08-03T11:05:20.227Z</time>
      </trkpt>
      <trkpt lat="47.00466" lon="8.87112">
        <ele>1478</ele>
        <time>2021-08-03T11:05:21.227Z</time>
      </trkpt>
      <trkpt lat="47.00465" lon="8.87112">
        <ele>1478</ele>
        <time>2021-08-03T11:05:22.226Z</time>
      </trkpt>
      <trkpt lat="47.00463" lon="8.87112">
        <ele>1479</ele>
        <time>2021-08-03T11:05:23.227Z</time>
      </trkpt>
      <trkpt lat="47.00462" lon="8.87113">
        <ele>1479</ele>
        <time>2021-08-03T11:05:24.227Z</time>
      </trkpt>
      <trkpt lat="47.00461" lon="8.87113">
        <ele>1479</ele>
        <time>2021-08-03T11:05:25.227Z</time>
      </trkpt>
      <trkpt lat="47.0046" lon="8.87113">
        <ele>1479</ele>
        <time>2021-08-03T11:05:26.227Z</time>
      </trkpt>
      <trkpt lat="47.00459" lon="8.87113">
        <ele>1479</ele>
        <time>2021-08-03T11:05:27.227Z</time>
      </trkpt>
      <trkpt lat="47.00458" lon="8.87113">
        <ele>1479</ele>
        <time>2021-08-03T11:05:28.227Z</time>
      </trkpt>
      <trkpt lat="47.00456" lon="8.87113">
        <ele>1479</ele>
        <time>2021-08-03T11:05:29.226Z</time>
      </trkpt>
      <trkpt lat="47.00455" lon="8.87112">
        <ele>1480</ele>
        <time>2021-08-03T11:05:30.226Z</time>
      </trkpt>
      <trkpt lat="47.00454" lon="8.87113">
        <ele>1480</ele>
        <time>2021-08-03T11:05:31.227Z</time>
      </trkpt>
      <trkpt lat="47.00453" lon="8.87113">
        <ele>1480</ele>
        <time>2021-08-03T11:05:32.226Z</time>
      </trkpt>
      <trkpt lat="47.00452" lon="8.87113">
        <ele>1480</ele>
        <time>2021-08-03T11:05:33.226Z</time>
      </trkpt>
      <trkpt lat="47.00451" lon="8.87112">
        <ele>1480</ele>
        <time>2021-08-03T11:05:34.226Z</time>
      </trkpt>
      <trkpt lat="47.00449" lon="8.87112">
        <ele>1480</ele>
        <time>2021-08-03T11:05:35.227Z</time>
      </trkpt>
      <trkpt lat="47.00448" lon="8.87112">
        <ele>1480</ele>
        <time>2021-08-03T11:05:36.227Z</time>
      </trkpt>
      <trkpt lat="47.00447" lon="8.87113">
        <ele>1480</ele>
        <time>2021-08-03T11:05:37.227Z</time>
      </trkpt>
      <trkpt lat="47.00447" lon="8.87112">
        <ele>1480</ele>
        <time>2021-08-03T11:05:38.227Z</time>
      </trkpt>
      <trkpt lat="47.00446" lon="8.87112">
        <ele>1479</ele>
        <time>2021-08-03T11:05:39.226Z</time>
      </trkpt>
      <trkpt lat="47.00445" lon="8.87112">
        <ele>1480</ele>
        <time>2021-08-03T11:05:40.226Z</time>
      </trkpt>
      <trkpt lat="47.00444" lon="8.87111">
        <ele>1480</ele>
        <time>2021-08-03T11:05:41.227Z</time>
      </trkpt>
      <trkpt lat="47.00444" lon="8.87111">
        <ele>1480</ele>
        <time>2021-08-03T11:05:42.227Z</time>
      </trkpt>
      <trkpt lat="47.00443" lon="8.87111">
        <ele>1480</ele>
        <time>2021-08-03T11:05:43.227Z</time>
      </trkpt>
      <trkpt lat="47.00442" lon="8.87111">
        <ele>1480</ele>
        <time>2021-08-03T11:05:44.226Z</time>
      </trkpt>
      <trkpt lat="47.00441" lon="8.87111">
        <ele>1479</ele>
        <time>2021-08-03T11:05:45.227Z</time>
      </trkpt>
      <trkpt lat="47.00441" lon="8.87111">
        <ele>1479</ele>
        <time>2021-08-03T11:05:46.227Z</time>
      </trkpt>
      <trkpt lat="47.0044" lon="8.8711">
        <ele>1479</ele>
        <time>2021-08-03T11:05:47.226Z</time>
      </trkpt>
      <trkpt lat="47.0044" lon="8.8711">
        <ele>1478</ele>
        <time>2021-08-03T11:05:48.226Z</time>
      </trkpt>
      <trkpt lat="47.00439" lon="8.8711">
        <ele>1478</ele>
        <time>2021-08-03T11:05:49.226Z</time>
      </trkpt>
      <trkpt lat="47.00438" lon="8.87109">
        <ele>1478</ele>
        <time>2021-08-03T11:05:50.227Z</time>
      </trkpt>
      <trkpt lat="47.00437" lon="8.87109">
        <ele>1478</ele>
        <time>2021-08-03T11:05:51.227Z</time>
      </trkpt>
      <trkpt lat="47.00436" lon="8.87108">
        <ele>1478</ele>
        <time>2021-08-03T11:05:52.226Z</time>
      </trkpt>
      <trkpt lat="47.00436" lon="8.87108">
        <ele>1478</ele>
        <time>2021-08-03T11:05:53.227Z</time>
      </trkpt>
      <trkpt lat="47.00435" lon="8.87107">
        <ele>1478</ele>
        <time>2021-08-03T11:05:54.226Z</time>
      </trkpt>
      <trkpt lat="47.00435" lon="8.87107">
        <ele>1478</ele>
        <time>2021-08-03T11:05:55.226Z</time>
      </trkpt>
      <trkpt lat="47.00434" lon="8.87106">
        <ele>1478</ele>
        <time>2021-08-03T11:05:56.226Z</time>
      </trkpt>
      <trkpt lat="47.00434" lon="8.87106">
        <ele>1478</ele>
        <time>2021-08-03T11:05:57.226Z</time>
      </trkpt>
      <trkpt lat="47.00433" lon="8.87106">
        <ele>1478</ele>
        <time>2021-08-03T11:05:58.227Z</time>
      </trkpt>
      <trkpt lat="47.00432" lon="8.87105">
        <ele>1478</ele>
        <time>2021-08-03T11:05:59.226Z</time>
      </trkpt>
      <trkpt lat="47.00432" lon="8.87105">
        <ele>1478</ele>
        <time>2021-08-03T11:06:00.227Z</time>
      </trkpt>
      <trkpt lat="47.00431" lon="8.87104">
        <ele>1478</ele>
        <time>2021-08-03T11:06:01.227Z</time>
      </trkpt>
      <trkpt lat="47.00431" lon="8.87103">
        <ele>1478</ele>
        <time>2021-08-03T11:06:02.226Z</time>
      </trkpt>
      <trkpt lat="47.0043" lon="8.87102">
        <ele>1478</ele>
        <time>2021-08-03T11:06:03.227Z</time>
      </trkpt>
      <trkpt lat="47.00429" lon="8.87101">
        <ele>1478</ele>
        <time>2021-08-03T11:06:04.227Z</time>
      </trkpt>
      <trkpt lat="47.00428" lon="8.871">
        <ele>1478</ele>
        <time>2021-08-03T11:06:05.227Z</time>
      </trkpt>
      <trkpt lat="47.00427" lon="8.871">
        <ele>1478</ele>
        <time>2021-08-03T11:06:06.227Z</time>
      </trkpt>
      <trkpt lat="47.00426" lon="8.87099">
        <ele>1478</ele>
        <time>2021-08-03T11:06:07.227Z</time>
      </trkpt>
      <trkpt lat="47.00426" lon="8.87099">
        <ele>1478</ele>
        <time>2021-08-03T11:06:22.233Z</time>
      </trkpt>
      <trkpt lat="47.00425" lon="8.87098">
        <ele>1479</ele>
        <time>2021-08-03T11:06:23.233Z</time>
      </trkpt>
      <trkpt lat="47.00424" lon="8.87098">
        <ele>1479</ele>
        <time>2021-08-03T11:06:24.234Z</time>
      </trkpt>
      <trkpt lat="47.00423" lon="8.87097">
        <ele>1479</ele>
        <time>2021-08-03T11:06:25.234Z</time>
      </trkpt>
      <trkpt lat="47.00422" lon="8.87096">
        <ele>1479</ele>
        <time>2021-08-03T11:06:26.234Z</time>
      </trkpt>
      <trkpt lat="47.00421" lon="8.87095">
        <ele>1479</ele>
        <time>2021-08-03T11:06:27.234Z</time>
      </trkpt>
      <trkpt lat="47.00421" lon="8.87094">
        <ele>1480</ele>
        <time>2021-08-03T11:06:28.234Z</time>
      </trkpt>
      <trkpt lat="47.0042" lon="8.87094">
        <ele>1480</ele>
        <time>2021-08-03T11:06:29.234Z</time>
      </trkpt>
      <trkpt lat="47.00419" lon="8.87093">
        <ele>1479</ele>
        <time>2021-08-03T11:06:30.233Z</time>
      </trkpt>
      <trkpt lat="47.00418" lon="8.87093">
        <ele>1479</ele>
        <time>2021-08-03T11:06:31.233Z</time>
      </trkpt>
      <trkpt lat="47.00418" lon="8.87092">
        <ele>1478</ele>
        <time>2021-08-03T11:06:32.233Z</time>
      </trkpt>
      <trkpt lat="47.00418" lon="8.87092">
        <ele>1478</ele>
        <time>2021-08-03T11:06:33.234Z</time>
      </trkpt>
      <trkpt lat="47.00417" lon="8.87092">
        <ele>1477</ele>
        <time>2021-08-03T11:06:34.234Z</time>
      </trkpt>
      <trkpt lat="47.00416" lon="8.87091">
        <ele>1477</ele>
        <time>2021-08-03T11:06:35.233Z</time>
      </trkpt>
      <trkpt lat="47.00415" lon="8.87091">
        <ele>1477</ele>
        <time>2021-08-03T11:06:36.233Z</time>
      </trkpt>
      <trkpt lat="47.00414" lon="8.8709">
        <ele>1477</ele>
        <time>2021-08-03T11:06:37.233Z</time>
      </trkpt>
      <trkpt lat="47.00414" lon="8.87089">
        <ele>1477</ele>
        <time>2021-08-03T11:06:38.234Z</time>
      </trkpt>
      <trkpt lat="47.00413" lon="8.87088">
        <ele>1477</ele>
        <time>2021-08-03T11:06:39.233Z</time>
      </trkpt>
      <trkpt lat="47.00412" lon="8.87088">
        <ele>1477</ele>
        <time>2021-08-03T11:06:40.233Z</time>
      </trkpt>
      <trkpt lat="47.00412" lon="8.87087">
        <ele>1476</ele>
        <time>2021-08-03T11:06:41.234Z</time>
      </trkpt>
      <trkpt lat="47.00411" lon="8.87087">
        <ele>1477</ele>
        <time>2021-08-03T11:06:42.233Z</time>
      </trkpt>
      <trkpt lat="47.0041" lon="8.87086">
        <ele>1477</ele>
        <time>2021-08-03T11:06:43.233Z</time>
      </trkpt>
      <trkpt lat="47.0041" lon="8.87084">
        <ele>1477</ele>
        <time>2021-08-03T11:06:44.234Z</time>
      </trkpt>
      <trkpt lat="47.00409" lon="8.87083">
        <ele>1478</ele>
        <time>2021-08-03T11:06:45.233Z</time>
      </trkpt>
      <trkpt lat="47.00409" lon="8.87082">
        <ele>1478</ele>
        <time>2021-08-03T11:06:46.233Z</time>
      </trkpt>
      <trkpt lat="47.00408" lon="8.87081">
        <ele>1478</ele>
        <time>2021-08-03T11:06:47.233Z</time>
      </trkpt>
      <trkpt lat="47.00408" lon="8.87079">
        <ele>1478</ele>
        <time>2021-08-03T11:06:48.233Z</time>
      </trkpt>
      <trkpt lat="47.00407" lon="8.87078">
        <ele>1478</ele>
        <time>2021-08-03T11:06:49.234Z</time>
      </trkpt>
      <trkpt lat="47.00406" lon="8.87077">
        <ele>1478</ele>
        <time>2021-08-03T11:06:50.234Z</time>
      </trkpt>
      <trkpt lat="47.00405" lon="8.87076">
        <ele>1478</ele>
        <time>2021-08-03T11:06:51.233Z</time>
      </trkpt>
      <trkpt lat="47.00404" lon="8.87075">
        <ele>1478</ele>
        <time>2021-08-03T11:06:52.233Z</time>
      </trkpt>
      <trkpt lat="47.00404" lon="8.87074">
        <ele>1478</ele>
        <time>2021-08-03T11:06:53.234Z</time>
      </trkpt>
      <trkpt lat="47.00403" lon="8.87073">
        <ele>1478</ele>
        <time>2021-08-03T11:06:54.233Z</time>
      </trkpt>
      <trkpt lat="47.00403" lon="8.87072">
        <ele>1478</ele>
        <time>2021-08-03T11:06:55.233Z</time>
      </trkpt>
      <trkpt lat="47.00402" lon="8.87071">
        <ele>1479</ele>
        <time>2021-08-03T11:06:56.234Z</time>
      </trkpt>
      <trkpt lat="47.00401" lon="8.8707">
        <ele>1479</ele>
        <time>2021-08-03T11:06:57.233Z</time>
      </trkpt>
      <trkpt lat="47.004" lon="8.8707">
        <ele>1479</ele>
        <time>2021-08-03T11:06:58.233Z</time>
      </trkpt>
      <trkpt lat="47.004" lon="8.8707">
        <ele>1479</ele>
        <time>2021-08-03T11:06:59.233Z</time>
      </trkpt>
      <trkpt lat="47.004" lon="8.87069">
        <ele>1478</ele>
        <time>2021-08-03T11:07:00.233Z</time>
      </trkpt>
      <trkpt lat="47.00399" lon="8.87069">
        <ele>1478</ele>
        <time>2021-08-03T11:07:01.233Z</time>
      </trkpt>
      <trkpt lat="47.00399" lon="8.87068">
        <ele>1478</ele>
        <time>2021-08-03T11:07:02.233Z</time>
      </trkpt>
      <trkpt lat="47.00398" lon="8.87067">
        <ele>1478</ele>
        <time>2021-08-03T11:07:03.233Z</time>
      </trkpt>
      <trkpt lat="47.00397" lon="8.87066">
        <ele>1477</ele>
        <time>2021-08-03T11:07:04.234Z</time>
      </trkpt>
      <trkpt lat="47.00396" lon="8.87064">
        <ele>1477</ele>
        <time>2021-08-03T11:07:05.233Z</time>
      </trkpt>
      <trkpt lat="47.00395" lon="8.87062">
        <ele>1476</ele>
        <time>2021-08-03T11:07:06.234Z</time>
      </trkpt>
      <trkpt lat="47.00394" lon="8.87066">
        <ele>1482</ele>
        <time>2021-08-03T11:07:07.234Z</time>
      </trkpt>
      <trkpt lat="47.00394" lon="8.87066">
        <ele>1481</ele>
        <time>2021-08-03T11:07:08.234Z</time>
      </trkpt>
      <trkpt lat="47.00393" lon="8.87064">
        <ele>1481</ele>
        <time>2021-08-03T11:07:09.233Z</time>
      </trkpt>
      <trkpt lat="47.00393" lon="8.87063">
        <ele>1480</ele>
        <time>2021-08-03T11:07:10.234Z</time>
      </trkpt>
      <trkpt lat="47.00393" lon="8.87062">
        <ele>1480</ele>
        <time>2021-08-03T11:07:11.234Z</time>
      </trkpt>
      <trkpt lat="47.00393" lon="8.87062">
        <ele>1480</ele>
        <time>2021-08-03T11:07:12.233Z</time>
      </trkpt>
      <trkpt lat="47.00392" lon="8.87061">
        <ele>1480</ele>
        <time>2021-08-03T11:07:13.234Z</time>
      </trkpt>
      <trkpt lat="47.00392" lon="8.8706">
        <ele>1480</ele>
        <time>2021-08-03T11:07:14.234Z</time>
      </trkpt>
      <trkpt lat="47.00391" lon="8.87058">
        <ele>1481</ele>
        <time>2021-08-03T11:07:15.233Z</time>
      </trkpt>
      <trkpt lat="47.00391" lon="8.87057">
        <ele>1481</ele>
        <time>2021-08-03T11:07:16.234Z</time>
      </trkpt>
      <trkpt lat="47.0039" lon="8.87057">
        <ele>1481</ele>
        <time>2021-08-03T11:07:17.233Z</time>
      </trkpt>
      <trkpt lat="47.0039" lon="8.87057">
        <ele>1482</ele>
        <time>2021-08-03T11:07:18.234Z</time>
      </trkpt>
      <trkpt lat="47.00391" lon="8.87055">
        <ele>1483</ele>
        <time>2021-08-03T11:07:19.234Z</time>
      </trkpt>
      <trkpt lat="47.00392" lon="8.87055">
        <ele>1484</ele>
        <time>2021-08-03T11:07:20.234Z</time>
      </trkpt>
      <trkpt lat="47.00391" lon="8.87055">
        <ele>1484</ele>
        <time>2021-08-03T11:07:21.233Z</time>
      </trkpt>
      <trkpt lat="47.00391" lon="8.87054">
        <ele>1485</ele>
        <time>2021-08-03T11:07:22.234Z</time>
      </trkpt>
      <trkpt lat="47.0039" lon="8.87054">
        <ele>1486</ele>
        <time>2021-08-03T11:07:23.234Z</time>
      </trkpt>
      <trkpt lat="47.0039" lon="8.87054">
        <ele>1486</ele>
        <time>2021-08-03T11:07:24.234Z</time>
      </trkpt>
      <trkpt lat="47.00388" lon="8.87053">
        <ele>1487</ele>
        <time>2021-08-03T11:07:25.235Z</time>
      </trkpt>
      <trkpt lat="47.00388" lon="8.87053">
        <ele>1487</ele>
        <time>2021-08-03T11:07:26.235Z</time>
      </trkpt>
      <trkpt lat="47.00387" lon="8.87054">
        <ele>1487</ele>
        <time>2021-08-03T11:07:27.235Z</time>
      </trkpt>
      <trkpt lat="47.00387" lon="8.87054">
        <ele>1487</ele>
        <time>2021-08-03T11:07:28.234Z</time>
      </trkpt>
      <trkpt lat="47.00386" lon="8.87055">
        <ele>1487</ele>
        <time>2021-08-03T11:07:29.235Z</time>
      </trkpt>
      <trkpt lat="47.00386" lon="8.87055">
        <ele>1488</ele>
        <time>2021-08-03T11:07:30.235Z</time>
      </trkpt>
      <trkpt lat="47.00386" lon="8.87055">
        <ele>1489</ele>
        <time>2021-08-03T11:07:31.236Z</time>
      </trkpt>
      <trkpt lat="47.00388" lon="8.87055">
        <ele>1494</ele>
        <time>2021-08-03T11:07:32.235Z</time>
      </trkpt>
      <trkpt lat="47.00388" lon="8.87055">
        <ele>1494</ele>
        <time>2021-08-03T11:07:33.236Z</time>
      </trkpt>
      <trkpt lat="47.00388" lon="8.87056">
        <ele>1493</ele>
        <time>2021-08-03T11:07:34.235Z</time>
      </trkpt>
      <trkpt lat="47.00387" lon="8.87055">
        <ele>1493</ele>
        <time>2021-08-03T11:07:35.236Z</time>
      </trkpt>
      <trkpt lat="47.00386" lon="8.87054">
        <ele>1493</ele>
        <time>2021-08-03T11:07:36.235Z</time>
      </trkpt>
      <trkpt lat="47.00385" lon="8.87053">
        <ele>1493</ele>
        <time>2021-08-03T11:07:37.236Z</time>
      </trkpt>
      <trkpt lat="47.00385" lon="8.87053">
        <ele>1493</ele>
        <time>2021-08-03T11:07:38.236Z</time>
      </trkpt>
      <trkpt lat="47.00384" lon="8.87053">
        <ele>1493</ele>
        <time>2021-08-03T11:07:39.236Z</time>
      </trkpt>
      <trkpt lat="47.00384" lon="8.87054">
        <ele>1493</ele>
        <time>2021-08-03T11:07:40.236Z</time>
      </trkpt>
      <trkpt lat="47.00383" lon="8.87055">
        <ele>1492</ele>
        <time>2021-08-03T11:07:41.236Z</time>
      </trkpt>
      <trkpt lat="47.00383" lon="8.87057">
        <ele>1491</ele>
        <time>2021-08-03T11:07:42.236Z</time>
      </trkpt>
      <trkpt lat="47.00383" lon="8.87059">
        <ele>1491</ele>
        <time>2021-08-03T11:07:43.235Z</time>
      </trkpt>
      <trkpt lat="47.00383" lon="8.8706">
        <ele>1490</ele>
        <time>2021-08-03T11:07:44.236Z</time>
      </trkpt>
      <trkpt lat="47.00383" lon="8.8706">
        <ele>1489</ele>
        <time>2021-08-03T11:07:45.236Z</time>
      </trkpt>
      <trkpt lat="47.00384" lon="8.87059">
        <ele>1489</ele>
        <time>2021-08-03T11:07:46.237Z</time>
      </trkpt>
      <trkpt lat="47.00385" lon="8.87059">
        <ele>1489</ele>
        <time>2021-08-03T11:07:47.236Z</time>
      </trkpt>
      <trkpt lat="47.00385" lon="8.87058">
        <ele>1489</ele>
        <time>2021-08-03T11:07:48.236Z</time>
      </trkpt>
      <trkpt lat="47.00385" lon="8.87057">
        <ele>1489</ele>
        <time>2021-08-03T11:07:49.237Z</time>
      </trkpt>
      <trkpt lat="47.00384" lon="8.87056">
        <ele>1487</ele>
        <time>2021-08-03T11:07:50.236Z</time>
      </trkpt>
      <trkpt lat="47.00383" lon="8.87056">
        <ele>1486</ele>
        <time>2021-08-03T11:07:51.236Z</time>
      </trkpt>
      <trkpt lat="47.00383" lon="8.87056">
        <ele>1486</ele>
        <time>2021-08-03T11:07:52.236Z</time>
      </trkpt>
      <trkpt lat="47.00382" lon="8.87057">
        <ele>1486</ele>
        <time>2021-08-03T11:07:53.236Z</time>
      </trkpt>
      <trkpt lat="47.00382" lon="8.87059">
        <ele>1485</ele>
        <time>2021-08-03T11:07:54.236Z</time>
      </trkpt>
      <trkpt lat="47.00383" lon="8.8706">
        <ele>1485</ele>
        <time>2021-08-03T11:07:55.236Z</time>
      </trkpt>
      <trkpt lat="47.00383" lon="8.87061">
        <ele>1484</ele>
        <time>2021-08-03T11:07:56.236Z</time>
      </trkpt>
      <trkpt lat="47.00383" lon="8.87062">
        <ele>1484</ele>
        <time>2021-08-03T11:07:57.236Z</time>
      </trkpt>
      <trkpt lat="47.00383" lon="8.87063">
        <ele>1483</ele>
        <time>2021-08-03T11:07:58.236Z</time>
      </trkpt>
      <trkpt lat="47.00383" lon="8.87064">
        <ele>1483</ele>
        <time>2021-08-03T11:07:59.236Z</time>
      </trkpt>
      <trkpt lat="47.00383" lon="8.87065">
        <ele>1482</ele>
        <time>2021-08-03T11:08:00.236Z</time>
      </trkpt>
      <trkpt lat="47.00384" lon="8.87067">
        <ele>1481</ele>
        <time>2021-08-03T11:08:01.236Z</time>
      </trkpt>
      <trkpt lat="47.00384" lon="8.87068">
        <ele>1481</ele>
        <time>2021-08-03T11:08:02.236Z</time>
      </trkpt>
      <trkpt lat="47.00384" lon="8.87069">
        <ele>1480</ele>
        <time>2021-08-03T11:08:03.236Z</time>
      </trkpt>
      <trkpt lat="47.00384" lon="8.87071">
        <ele>1481</ele>
        <time>2021-08-03T11:08:04.236Z</time>
      </trkpt>
      <trkpt lat="47.00385" lon="8.87072">
        <ele>1481</ele>
        <time>2021-08-03T11:08:05.236Z</time>
      </trkpt>
      <trkpt lat="47.00385" lon="8.87073">
        <ele>1481</ele>
        <time>2021-08-03T11:08:06.236Z</time>
      </trkpt>
      <trkpt lat="47.00385" lon="8.87075">
        <ele>1481</ele>
        <time>2021-08-03T11:08:07.236Z</time>
      </trkpt>
      <trkpt lat="47.00385" lon="8.87076">
        <ele>1481</ele>
        <time>2021-08-03T11:08:08.236Z</time>
      </trkpt>
      <trkpt lat="47.00385" lon="8.87077">
        <ele>1481</ele>
        <time>2021-08-03T11:08:09.236Z</time>
      </trkpt>
      <trkpt lat="47.00385" lon="8.87078">
        <ele>1481</ele>
        <time>2021-08-03T11:08:10.236Z</time>
      </trkpt>
      <trkpt lat="47.00384" lon="8.87079">
        <ele>1481</ele>
        <time>2021-08-03T11:08:11.236Z</time>
      </trkpt>
      <trkpt lat="47.00384" lon="8.87079">
        <ele>1481</ele>
        <time>2021-08-03T11:08:12.236Z</time>
      </trkpt>
      <trkpt lat="47.00383" lon="8.87079">
        <ele>1482</ele>
        <time>2021-08-03T11:08:13.236Z</time>
      </trkpt>
      <trkpt lat="47.00383" lon="8.87079">
        <ele>1482</ele>
        <time>2021-08-03T11:08:14.236Z</time>
      </trkpt>
      <trkpt lat="47.00382" lon="8.8708">
        <ele>1482</ele>
        <time>2021-08-03T11:08:15.236Z</time>
      </trkpt>
      <trkpt lat="47.00381" lon="8.8708">
        <ele>1483</ele>
        <time>2021-08-03T11:08:16.236Z</time>
      </trkpt>
      <trkpt lat="47.0038" lon="8.8708">
        <ele>1483</ele>
        <time>2021-08-03T11:08:17.236Z</time>
      </trkpt>
      <trkpt lat="47.00379" lon="8.87079">
        <ele>1484</ele>
        <time>2021-08-03T11:08:18.236Z</time>
      </trkpt>
      <trkpt lat="47.00379" lon="8.87079">
        <ele>1484</ele>
        <time>2021-08-03T11:08:19.236Z</time>
      </trkpt>
      <trkpt lat="47.00378" lon="8.87079">
        <ele>1484</ele>
        <time>2021-08-03T11:08:20.236Z</time>
      </trkpt>
      <trkpt lat="47.00377" lon="8.87079">
        <ele>1484</ele>
        <time>2021-08-03T11:08:21.236Z</time>
      </trkpt>
      <trkpt lat="47.00377" lon="8.87079">
        <ele>1485</ele>
        <time>2021-08-03T11:08:22.236Z</time>
      </trkpt>
      <trkpt lat="47.00376" lon="8.87078">
        <ele>1485</ele>
        <time>2021-08-03T11:08:23.236Z</time>
      </trkpt>
      <trkpt lat="47.00376" lon="8.87078">
        <ele>1485</ele>
        <time>2021-08-03T11:08:24.236Z</time>
      </trkpt>
      <trkpt lat="47.00375" lon="8.87077">
        <ele>1485</ele>
        <time>2021-08-03T11:08:25.236Z</time>
      </trkpt>
      <trkpt lat="47.00375" lon="8.87076">
        <ele>1486</ele>
        <time>2021-08-03T11:08:26.236Z</time>
      </trkpt>
      <trkpt lat="47.00375" lon="8.87076">
        <ele>1486</ele>
        <time>2021-08-03T11:08:27.236Z</time>
      </trkpt>
      <trkpt lat="47.00374" lon="8.87075">
        <ele>1487</ele>
        <time>2021-08-03T11:08:28.236Z</time>
      </trkpt>
      <trkpt lat="47.00374" lon="8.87074">
        <ele>1487</ele>
        <time>2021-08-03T11:08:29.236Z</time>
      </trkpt>
      <trkpt lat="47.00374" lon="8.87073">
        <ele>1486</ele>
        <time>2021-08-03T11:08:30.236Z</time>
      </trkpt>
      <trkpt lat="47.00374" lon="8.87071">
        <ele>1486</ele>
        <time>2021-08-03T11:08:31.236Z</time>
      </trkpt>
      <trkpt lat="47.00374" lon="8.8707">
        <ele>1486</ele>
        <time>2021-08-03T11:08:32.236Z</time>
      </trkpt>
      <trkpt lat="47.00373" lon="8.87069">
        <ele>1486</ele>
        <time>2021-08-03T11:08:33.236Z</time>
      </trkpt>
      <trkpt lat="47.00372" lon="8.87068">
        <ele>1486</ele>
        <time>2021-08-03T11:08:34.236Z</time>
      </trkpt>
      <trkpt lat="47.00372" lon="8.87067">
        <ele>1485</ele>
        <time>2021-08-03T11:08:35.236Z</time>
      </trkpt>
      <trkpt lat="47.00371" lon="8.87066">
        <ele>1485</ele>
        <time>2021-08-03T11:08:36.236Z</time>
      </trkpt>
      <trkpt lat="47.00371" lon="8.87065">
        <ele>1485</ele>
        <time>2021-08-03T11:08:37.236Z</time>
      </trkpt>
      <trkpt lat="47.0037" lon="8.87064">
        <ele>1485</ele>
        <time>2021-08-03T11:08:38.236Z</time>
      </trkpt>
      <trkpt lat="47.0037" lon="8.87062">
        <ele>1485</ele>
        <time>2021-08-03T11:08:39.236Z</time>
      </trkpt>
      <trkpt lat="47.00369" lon="8.87061">
        <ele>1485</ele>
        <time>2021-08-03T11:08:40.236Z</time>
      </trkpt>
      <trkpt lat="47.00369" lon="8.8706">
        <ele>1485</ele>
        <time>2021-08-03T11:08:41.236Z</time>
      </trkpt>
      <trkpt lat="47.00368" lon="8.87059">
        <ele>1485</ele>
        <time>2021-08-03T11:08:42.236Z</time>
      </trkpt>
      <trkpt lat="47.00368" lon="8.87059">
        <ele>1486</ele>
        <time>2021-08-03T11:08:43.236Z</time>
      </trkpt>
      <trkpt lat="47.00367" lon="8.87058">
        <ele>1486</ele>
        <time>2021-08-03T11:08:44.236Z</time>
      </trkpt>
      <trkpt lat="47.00367" lon="8.87057">
        <ele>1486</ele>
        <time>2021-08-03T11:08:45.236Z</time>
      </trkpt>
      <trkpt lat="47.00366" lon="8.87056">
        <ele>1486</ele>
        <time>2021-08-03T11:08:46.236Z</time>
      </trkpt>
      <trkpt lat="47.00365" lon="8.87055">
        <ele>1486</ele>
        <time>2021-08-03T11:08:47.236Z</time>
      </trkpt>
      <trkpt lat="47.00364" lon="8.87055">
        <ele>1487</ele>
        <time>2021-08-03T11:08:48.236Z</time>
      </trkpt>
      <trkpt lat="47.00363" lon="8.87054">
        <ele>1488</ele>
        <time>2021-08-03T11:08:49.236Z</time>
      </trkpt>
      <trkpt lat="47.00362" lon="8.87054">
        <ele>1489</ele>
        <time>2021-08-03T11:08:50.236Z</time>
      </trkpt>
      <trkpt lat="47.00361" lon="8.87053">
        <ele>1489</ele>
        <time>2021-08-03T11:08:51.236Z</time>
      </trkpt>
      <trkpt lat="47.00361" lon="8.87052">
        <ele>1490</ele>
        <time>2021-08-03T11:08:52.236Z</time>
      </trkpt>
      <trkpt lat="47.0036" lon="8.87051">
        <ele>1490</ele>
        <time>2021-08-03T11:08:53.236Z</time>
      </trkpt>
      <trkpt lat="47.0036" lon="8.8705">
        <ele>1490</ele>
        <time>2021-08-03T11:08:54.236Z</time>
      </trkpt>
      <trkpt lat="47.00359" lon="8.87049">
        <ele>1490</ele>
        <time>2021-08-03T11:08:55.236Z</time>
      </trkpt>
      <trkpt lat="47.00358" lon="8.87048">
        <ele>1490</ele>
        <time>2021-08-03T11:08:56.236Z</time>
      </trkpt>
      <trkpt lat="47.00358" lon="8.87047">
        <ele>1490</ele>
        <time>2021-08-03T11:08:57.236Z</time>
      </trkpt>
      <trkpt lat="47.00357" lon="8.87047">
        <ele>1489</ele>
        <time>2021-08-03T11:08:58.236Z</time>
      </trkpt>
      <trkpt lat="47.00357" lon="8.87046">
        <ele>1489</ele>
        <time>2021-08-03T11:08:59.236Z</time>
      </trkpt>
      <trkpt lat="47.00356" lon="8.87045">
        <ele>1489</ele>
        <time>2021-08-03T11:09:00.236Z</time>
      </trkpt>
      <trkpt lat="47.00355" lon="8.87044">
        <ele>1490</ele>
        <time>2021-08-03T11:09:01.236Z</time>
      </trkpt>
      <trkpt lat="47.00355" lon="8.87043">
        <ele>1490</ele>
        <time>2021-08-03T11:09:02.236Z</time>
      </trkpt>
      <trkpt lat="47.00354" lon="8.87042">
        <ele>1491</ele>
        <time>2021-08-03T11:09:03.236Z</time>
      </trkpt>
      <trkpt lat="47.00353" lon="8.87042">
        <ele>1492</ele>
        <time>2021-08-03T11:09:04.236Z</time>
      </trkpt>
      <trkpt lat="47.00352" lon="8.87041">
        <ele>1491</ele>
        <time>2021-08-03T11:09:05.236Z</time>
      </trkpt>
      <trkpt lat="47.00352" lon="8.87041">
        <ele>1491</ele>
        <time>2021-08-03T11:09:06.236Z</time>
      </trkpt>
      <trkpt lat="47.00351" lon="8.8704">
        <ele>1491</ele>
        <time>2021-08-03T11:09:08.337Z</time>
      </trkpt>
      <trkpt lat="47.00351" lon="8.87039">
        <ele>1490</ele>
        <time>2021-08-03T11:09:14.224Z</time>
      </trkpt>
      <trkpt lat="47.0035" lon="8.87038">
        <ele>1490</ele>
        <time>2021-08-03T11:09:15.224Z</time>
      </trkpt>
      <trkpt lat="47.00349" lon="8.87038">
        <ele>1490</ele>
        <time>2021-08-03T11:09:16.224Z</time>
      </trkpt>
      <trkpt lat="47.00348" lon="8.87037">
        <ele>1491</ele>
        <time>2021-08-03T11:09:17.224Z</time>
      </trkpt>
      <trkpt lat="47.00348" lon="8.87036">
        <ele>1491</ele>
        <time>2021-08-03T11:09:18.224Z</time>
      </trkpt>
      <trkpt lat="47.00347" lon="8.87035">
        <ele>1491</ele>
        <time>2021-08-03T11:09:19.224Z</time>
      </trkpt>
      <trkpt lat="47.00347" lon="8.87035">
        <ele>1491</ele>
        <time>2021-08-03T11:09:20.224Z</time>
      </trkpt>
      <trkpt lat="47.00345" lon="8.87034">
        <ele>1491</ele>
        <time>2021-08-03T11:09:40.358Z</time>
      </trkpt>
      <trkpt lat="47.00345" lon="8.87034">
        <ele>1491</ele>
        <time>2021-08-03T11:09:41.358Z</time>
      </trkpt>
      <trkpt lat="47.00344" lon="8.87033">
        <ele>1490</ele>
        <time>2021-08-03T11:09:42.358Z</time>
      </trkpt>
      <trkpt lat="47.00343" lon="8.87033">
        <ele>1490</ele>
        <time>2021-08-03T11:09:43.358Z</time>
      </trkpt>
      <trkpt lat="47.00343" lon="8.87032">
        <ele>1490</ele>
        <time>2021-08-03T11:09:44.358Z</time>
      </trkpt>
      <trkpt lat="47.00342" lon="8.87032">
        <ele>1490</ele>
        <time>2021-08-03T11:09:45.358Z</time>
      </trkpt>
      <trkpt lat="47.00341" lon="8.87031">
        <ele>1490</ele>
        <time>2021-08-03T11:09:46.358Z</time>
      </trkpt>
      <trkpt lat="47.0034" lon="8.87031">
        <ele>1490</ele>
        <time>2021-08-03T11:09:47.358Z</time>
      </trkpt>
      <trkpt lat="47.0034" lon="8.8703">
        <ele>1491</ele>
        <time>2021-08-03T11:09:50.478Z</time>
      </trkpt>
      <trkpt lat="47.00339" lon="8.8703">
        <ele>1492</ele>
        <time>2021-08-03T11:09:51.478Z</time>
      </trkpt>
      <trkpt lat="47.00338" lon="8.87029">
        <ele>1493</ele>
        <time>2021-08-03T11:09:52.478Z</time>
      </trkpt>
      <trkpt lat="47.00337" lon="8.87029">
        <ele>1493</ele>
        <time>2021-08-03T11:09:53.478Z</time>
      </trkpt>
      <trkpt lat="47.00337" lon="8.87028">
        <ele>1494</ele>
        <time>2021-08-03T11:09:54.478Z</time>
      </trkpt>
      <trkpt lat="47.00336" lon="8.87028">
        <ele>1494</ele>
        <time>2021-08-03T11:09:55.478Z</time>
      </trkpt>
      <trkpt lat="47.00335" lon="8.87027">
        <ele>1495</ele>
        <time>2021-08-03T11:09:56.478Z</time>
      </trkpt>
      <trkpt lat="47.00334" lon="8.87026">
        <ele>1495</ele>
        <time>2021-08-03T11:09:57.478Z</time>
      </trkpt>
      <trkpt lat="47.00333" lon="8.87026">
        <ele>1495</ele>
        <time>2021-08-03T11:09:58.478Z</time>
      </trkpt>
      <trkpt lat="47.00333" lon="8.87025">
        <ele>1495</ele>
        <time>2021-08-03T11:09:59.478Z</time>
      </trkpt>
      <trkpt lat="47.00332" lon="8.87024">
        <ele>1496</ele>
        <time>2021-08-03T11:10:00.478Z</time>
      </trkpt>
      <trkpt lat="47.00331" lon="8.87023">
        <ele>1496</ele>
        <time>2021-08-03T11:10:01.478Z</time>
      </trkpt>
      <trkpt lat="47.00331" lon="8.87022">
        <ele>1497</ele>
        <time>2021-08-03T11:10:02.478Z</time>
      </trkpt>
      <trkpt lat="47.0033" lon="8.87022">
        <ele>1497</ele>
        <time>2021-08-03T11:10:04.602Z</time>
      </trkpt>
      <trkpt lat="47.00329" lon="8.87022">
        <ele>1498</ele>
        <time>2021-08-03T11:10:05.602Z</time>
      </trkpt>
      <trkpt lat="47.00328" lon="8.87021">
        <ele>1497</ele>
        <time>2021-08-03T11:10:06.602Z</time>
      </trkpt>
      <trkpt lat="47.00328" lon="8.8702">
        <ele>1496</ele>
        <time>2021-08-03T11:10:07.602Z</time>
      </trkpt>
      <trkpt lat="47.00327" lon="8.8702">
        <ele>1495</ele>
        <time>2021-08-03T11:10:10.605Z</time>
      </trkpt>
      <trkpt lat="47.00327" lon="8.87019">
        <ele>1494</ele>
        <time>2021-08-03T11:10:11.605Z</time>
      </trkpt>
      <trkpt lat="47.00326" lon="8.87019">
        <ele>1494</ele>
        <time>2021-08-03T11:10:12.605Z</time>
      </trkpt>
      <trkpt lat="47.00325" lon="8.87018">
        <ele>1493</ele>
        <time>2021-08-03T11:10:13.605Z</time>
      </trkpt>
      <trkpt lat="47.00325" lon="8.87018">
        <ele>1493</ele>
        <time>2021-08-03T11:10:14.605Z</time>
      </trkpt>
      <trkpt lat="47.00324" lon="8.87017">
        <ele>1493</ele>
        <time>2021-08-03T11:10:16.762Z</time>
      </trkpt>
      <trkpt lat="47.00323" lon="8.87017">
        <ele>1493</ele>
        <time>2021-08-03T11:10:17.762Z</time>
      </trkpt>
      <trkpt lat="47.00322" lon="8.87016">
        <ele>1494</ele>
        <time>2021-08-03T11:10:18.762Z</time>
      </trkpt>
      <trkpt lat="47.0032" lon="8.87015">
        <ele>1494</ele>
        <time>2021-08-03T11:10:19.762Z</time>
      </trkpt>
      <trkpt lat="47.00319" lon="8.87014">
        <ele>1495</ele>
        <time>2021-08-03T11:10:20.762Z</time>
      </trkpt>
      <trkpt lat="47.00319" lon="8.87014">
        <ele>1495</ele>
        <time>2021-08-03T11:10:21.762Z</time>
      </trkpt>
      <trkpt lat="47.00319" lon="8.87013">
        <ele>1495</ele>
        <time>2021-08-03T11:10:22.762Z</time>
      </trkpt>
      <trkpt lat="47.00319" lon="8.87013">
        <ele>1494</ele>
        <time>2021-08-03T11:10:23.762Z</time>
      </trkpt>
      <trkpt lat="47.00317" lon="8.87013">
        <ele>1494</ele>
        <time>2021-08-03T11:10:24.762Z</time>
      </trkpt>
      <trkpt lat="47.00316" lon="8.87012">
        <ele>1494</ele>
        <time>2021-08-03T11:10:25.762Z</time>
      </trkpt>
      <trkpt lat="47.00315" lon="8.87012">
        <ele>1494</ele>
        <time>2021-08-03T11:10:26.762Z</time>
      </trkpt>
      <trkpt lat="47.00314" lon="8.87011">
        <ele>1494</ele>
        <time>2021-08-03T11:10:27.762Z</time>
      </trkpt>
      <trkpt lat="47.00313" lon="8.87011">
        <ele>1494</ele>
        <time>2021-08-03T11:10:28.762Z</time>
      </trkpt>
      <trkpt lat="47.00312" lon="8.8701">
        <ele>1495</ele>
        <time>2021-08-03T11:10:29.762Z</time>
      </trkpt>
      <trkpt lat="47.00311" lon="8.8701">
        <ele>1495</ele>
        <time>2021-08-03T11:10:30.762Z</time>
      </trkpt>
      <trkpt lat="47.00309" lon="8.8701">
        <ele>1496</ele>
        <time>2021-08-03T11:10:31.762Z</time>
      </trkpt>
      <trkpt lat="47.00309" lon="8.8701">
        <ele>1496</ele>
        <time>2021-08-03T11:10:32.762Z</time>
      </trkpt>
      <trkpt lat="47.00308" lon="8.8701">
        <ele>1496</ele>
        <time>2021-08-03T11:10:33.762Z</time>
      </trkpt>
      <trkpt lat="47.00307" lon="8.87009">
        <ele>1497</ele>
        <time>2021-08-03T11:10:34.762Z</time>
      </trkpt>
      <trkpt lat="47.00306" lon="8.87009">
        <ele>1497</ele>
        <time>2021-08-03T11:10:35.762Z</time>
      </trkpt>
      <trkpt lat="47.00305" lon="8.87009">
        <ele>1497</ele>
        <time>2021-08-03T11:10:36.762Z</time>
      </trkpt>
      <trkpt lat="47.00303" lon="8.87009">
        <ele>1498</ele>
        <time>2021-08-03T11:10:37.762Z</time>
      </trkpt>
      <trkpt lat="47.00303" lon="8.87009">
        <ele>1498</ele>
        <time>2021-08-03T11:10:38.762Z</time>
      </trkpt>
      <trkpt lat="47.00302" lon="8.87008">
        <ele>1498</ele>
        <time>2021-08-03T11:10:39.762Z</time>
      </trkpt>
      <trkpt lat="47.003" lon="8.87008">
        <ele>1498</ele>
        <time>2021-08-03T11:10:40.762Z</time>
      </trkpt>
      <trkpt lat="47.00299" lon="8.87008">
        <ele>1498</ele>
        <time>2021-08-03T11:10:41.762Z</time>
      </trkpt>
      <trkpt lat="47.00298" lon="8.87007">
        <ele>1499</ele>
        <time>2021-08-03T11:10:42.762Z</time>
      </trkpt>
      <trkpt lat="47.00297" lon="8.87007">
        <ele>1499</ele>
        <time>2021-08-03T11:10:43.762Z</time>
      </trkpt>
      <trkpt lat="47.00297" lon="8.87007">
        <ele>1500</ele>
        <time>2021-08-03T11:10:44.762Z</time>
      </trkpt>
      <trkpt lat="47.00296" lon="8.87007">
        <ele>1500</ele>
        <time>2021-08-03T11:10:45.762Z</time>
      </trkpt>
      <trkpt lat="47.00295" lon="8.87006">
        <ele>1500</ele>
        <time>2021-08-03T11:10:46.762Z</time>
      </trkpt>
      <trkpt lat="47.00294" lon="8.87005">
        <ele>1501</ele>
        <time>2021-08-03T11:10:47.762Z</time>
      </trkpt>
      <trkpt lat="47.00294" lon="8.87004">
        <ele>1501</ele>
        <time>2021-08-03T11:10:48.762Z</time>
      </trkpt>
      <trkpt lat="47.00293" lon="8.87004">
        <ele>1501</ele>
        <time>2021-08-03T11:10:49.762Z</time>
      </trkpt>
      <trkpt lat="47.00293" lon="8.87003">
        <ele>1501</ele>
        <time>2021-08-03T11:10:50.762Z</time>
      </trkpt>
      <trkpt lat="47.00292" lon="8.87003">
        <ele>1501</ele>
        <time>2021-08-03T11:10:51.762Z</time>
      </trkpt>
      <trkpt lat="47.00291" lon="8.87002">
        <ele>1501</ele>
        <time>2021-08-03T11:10:52.762Z</time>
      </trkpt>
      <trkpt lat="47.0029" lon="8.87002">
        <ele>1501</ele>
        <time>2021-08-03T11:10:53.762Z</time>
      </trkpt>
      <trkpt lat="47.00289" lon="8.87001">
        <ele>1501</ele>
        <time>2021-08-03T11:10:54.762Z</time>
      </trkpt>
      <trkpt lat="47.00288" lon="8.87">
        <ele>1501</ele>
        <time>2021-08-03T11:10:55.762Z</time>
      </trkpt>
      <trkpt lat="47.00287" lon="8.86999">
        <ele>1502</ele>
        <time>2021-08-03T11:10:56.762Z</time>
      </trkpt>
      <trkpt lat="47.00286" lon="8.86999">
        <ele>1501</ele>
        <time>2021-08-03T11:10:57.762Z</time>
      </trkpt>
      <trkpt lat="47.00285" lon="8.86999">
        <ele>1502</ele>
        <time>2021-08-03T11:10:58.762Z</time>
      </trkpt>
      <trkpt lat="47.00285" lon="8.86999">
        <ele>1502</ele>
        <time>2021-08-03T11:10:59.762Z</time>
      </trkpt>
      <trkpt lat="47.00284" lon="8.86999">
        <ele>1502</ele>
        <time>2021-08-03T11:11:00.762Z</time>
      </trkpt>
      <trkpt lat="47.00283" lon="8.87">
        <ele>1502</ele>
        <time>2021-08-03T11:11:01.762Z</time>
      </trkpt>
      <trkpt lat="47.00282" lon="8.87001">
        <ele>1501</ele>
        <time>2021-08-03T11:11:02.762Z</time>
      </trkpt>
      <trkpt lat="47.00281" lon="8.87001">
        <ele>1501</ele>
        <time>2021-08-03T11:11:03.762Z</time>
      </trkpt>
      <trkpt lat="47.00281" lon="8.87002">
        <ele>1501</ele>
        <time>2021-08-03T11:11:04.762Z</time>
      </trkpt>
      <trkpt lat="47.00281" lon="8.87003">
        <ele>1501</ele>
        <time>2021-08-03T11:11:05.762Z</time>
      </trkpt>
      <trkpt lat="47.00281" lon="8.87003">
        <ele>1501</ele>
        <time>2021-08-03T11:11:06.762Z</time>
      </trkpt>
      <trkpt lat="47.0028" lon="8.87004">
        <ele>1502</ele>
        <time>2021-08-03T11:11:07.763Z</time>
      </trkpt>
      <trkpt lat="47.00279" lon="8.87">
        <ele>1496</ele>
        <time>2021-08-03T11:11:08.763Z</time>
      </trkpt>
      <trkpt lat="47.00279" lon="8.87">
        <ele>1496</ele>
        <time>2021-08-03T11:11:09.763Z</time>
      </trkpt>
      <trkpt lat="47.0028" lon="8.87003">
        <ele>1497</ele>
        <time>2021-08-03T11:11:10.764Z</time>
      </trkpt>
      <trkpt lat="47.0028" lon="8.87003">
        <ele>1497</ele>
        <time>2021-08-03T11:11:11.764Z</time>
      </trkpt>
      <trkpt lat="47.00279" lon="8.87004">
        <ele>1498</ele>
        <time>2021-08-03T11:11:12.764Z</time>
      </trkpt>
      <trkpt lat="47.00279" lon="8.87004">
        <ele>1499</ele>
        <time>2021-08-03T11:11:13.765Z</time>
      </trkpt>
      <trkpt lat="47.00279" lon="8.87004">
        <ele>1499</ele>
        <time>2021-08-03T11:11:14.764Z</time>
      </trkpt>
      <trkpt lat="47.0028" lon="8.87006">
        <ele>1498</ele>
        <time>2021-08-03T11:11:15.764Z</time>
      </trkpt>
      <trkpt lat="47.0028" lon="8.87006">
        <ele>1497</ele>
        <time>2021-08-03T11:11:16.764Z</time>
      </trkpt>
      <trkpt lat="47.00279" lon="8.87005">
        <ele>1497</ele>
        <time>2021-08-03T11:11:17.766Z</time>
      </trkpt>
      <trkpt lat="47.00279" lon="8.87005">
        <ele>1497</ele>
        <time>2021-08-03T11:11:18.765Z</time>
      </trkpt>
      <trkpt lat="47.00278" lon="8.87007">
        <ele>1498</ele>
        <time>2021-08-03T11:11:19.766Z</time>
      </trkpt>
      <trkpt lat="47.00277" lon="8.87008">
        <ele>1498</ele>
        <time>2021-08-03T11:11:20.765Z</time>
      </trkpt>
      <trkpt lat="47.00277" lon="8.87008">
        <ele>1498</ele>
        <time>2021-08-03T11:11:21.765Z</time>
      </trkpt>
      <trkpt lat="47.00276" lon="8.87009">
        <ele>1498</ele>
        <time>2021-08-03T11:11:22.766Z</time>
      </trkpt>
      <trkpt lat="47.00276" lon="8.8701">
        <ele>1498</ele>
        <time>2021-08-03T11:11:23.765Z</time>
      </trkpt>
      <trkpt lat="47.00276" lon="8.87011">
        <ele>1498</ele>
        <time>2021-08-03T11:11:24.765Z</time>
      </trkpt>
      <trkpt lat="47.00276" lon="8.87011">
        <ele>1499</ele>
        <time>2021-08-03T11:11:25.765Z</time>
      </trkpt>
      <trkpt lat="47.00276" lon="8.87012">
        <ele>1499</ele>
        <time>2021-08-03T11:11:26.765Z</time>
      </trkpt>
      <trkpt lat="47.00275" lon="8.87013">
        <ele>1500</ele>
        <time>2021-08-03T11:11:27.765Z</time>
      </trkpt>
      <trkpt lat="47.00274" lon="8.87014">
        <ele>1500</ele>
        <time>2021-08-03T11:11:28.766Z</time>
      </trkpt>
      <trkpt lat="47.00273" lon="8.87015">
        <ele>1501</ele>
        <time>2021-08-03T11:11:29.766Z</time>
      </trkpt>
      <trkpt lat="47.00273" lon="8.87016">
        <ele>1501</ele>
        <time>2021-08-03T11:11:30.765Z</time>
      </trkpt>
      <trkpt lat="47.00273" lon="8.87016">
        <ele>1501</ele>
        <time>2021-08-03T11:11:31.766Z</time>
      </trkpt>
      <trkpt lat="47.00272" lon="8.87017">
        <ele>1501</ele>
        <time>2021-08-03T11:11:32.765Z</time>
      </trkpt>
      <trkpt lat="47.00272" lon="8.87018">
        <ele>1500</ele>
        <time>2021-08-03T11:11:33.766Z</time>
      </trkpt>
      <trkpt lat="47.00272" lon="8.87019">
        <ele>1500</ele>
        <time>2021-08-03T11:11:34.766Z</time>
      </trkpt>
      <trkpt lat="47.00271" lon="8.87019">
        <ele>1500</ele>
        <time>2021-08-03T11:11:35.766Z</time>
      </trkpt>
      <trkpt lat="47.00271" lon="8.8702">
        <ele>1500</ele>
        <time>2021-08-03T11:11:39.849Z</time>
      </trkpt>
      <trkpt lat="47.00271" lon="8.87021">
        <ele>1500</ele>
        <time>2021-08-03T11:11:40.848Z</time>
      </trkpt>
      <trkpt lat="47.0027" lon="8.87022">
        <ele>1500</ele>
        <time>2021-08-03T11:11:41.849Z</time>
      </trkpt>
      <trkpt lat="47.0027" lon="8.87022">
        <ele>1499</ele>
        <time>2021-08-03T11:11:42.849Z</time>
      </trkpt>
      <trkpt lat="47.0027" lon="8.87023">
        <ele>1499</ele>
        <time>2021-08-03T11:11:43.848Z</time>
      </trkpt>
      <trkpt lat="47.0027" lon="8.87024">
        <ele>1499</ele>
        <time>2021-08-03T11:11:44.848Z</time>
      </trkpt>
      <trkpt lat="47.00269" lon="8.87025">
        <ele>1499</ele>
        <time>2021-08-03T11:11:45.848Z</time>
      </trkpt>
      <trkpt lat="47.00269" lon="8.87026">
        <ele>1499</ele>
        <time>2021-08-03T11:11:46.849Z</time>
      </trkpt>
      <trkpt lat="47.00268" lon="8.87027">
        <ele>1499</ele>
        <time>2021-08-03T11:11:47.848Z</time>
      </trkpt>
      <trkpt lat="47.00268" lon="8.87028">
        <ele>1498</ele>
        <time>2021-08-03T11:11:48.848Z</time>
      </trkpt>
      <trkpt lat="47.00267" lon="8.87029">
        <ele>1498</ele>
        <time>2021-08-03T11:11:49.848Z</time>
      </trkpt>
      <trkpt lat="47.00267" lon="8.87029">
        <ele>1498</ele>
        <time>2021-08-03T11:11:50.848Z</time>
      </trkpt>
      <trkpt lat="47.00267" lon="8.8703">
        <ele>1498</ele>
        <time>2021-08-03T11:11:51.849Z</time>
      </trkpt>
      <trkpt lat="47.00267" lon="8.87031">
        <ele>1497</ele>
        <time>2021-08-03T11:11:52.849Z</time>
      </trkpt>
      <trkpt lat="47.00266" lon="8.87031">
        <ele>1498</ele>
        <time>2021-08-03T11:11:55.840Z</time>
      </trkpt>
      <trkpt lat="47.00265" lon="8.87032">
        <ele>1498</ele>
        <time>2021-08-03T11:11:56.840Z</time>
      </trkpt>
      <trkpt lat="47.00265" lon="8.87033">
        <ele>1499</ele>
        <time>2021-08-03T11:11:57.841Z</time>
      </trkpt>
      <trkpt lat="47.00265" lon="8.87034">
        <ele>1500</ele>
        <time>2021-08-03T11:11:58.841Z</time>
      </trkpt>
      <trkpt lat="47.00264" lon="8.87034">
        <ele>1500</ele>
        <time>2021-08-03T11:11:59.840Z</time>
      </trkpt>
      <trkpt lat="47.00264" lon="8.87035">
        <ele>1501</ele>
        <time>2021-08-03T11:12:00.840Z</time>
      </trkpt>
      <trkpt lat="47.00263" lon="8.87035">
        <ele>1501</ele>
        <time>2021-08-03T11:12:01.841Z</time>
      </trkpt>
      <trkpt lat="47.00263" lon="8.87036">
        <ele>1502</ele>
        <time>2021-08-03T11:12:02.841Z</time>
      </trkpt>
      <trkpt lat="47.00262" lon="8.87036">
        <ele>1502</ele>
        <time>2021-08-03T11:12:03.841Z</time>
      </trkpt>
      <trkpt lat="47.00262" lon="8.87036">
        <ele>1503</ele>
        <time>2021-08-03T11:12:04.840Z</time>
      </trkpt>
      <trkpt lat="47.00261" lon="8.87036">
        <ele>1503</ele>
        <time>2021-08-03T11:12:05.841Z</time>
      </trkpt>
      <trkpt lat="47.00261" lon="8.87037">
        <ele>1503</ele>
        <time>2021-08-03T11:12:06.841Z</time>
      </trkpt>
      <trkpt lat="47.0026" lon="8.87037">
        <ele>1504</ele>
        <time>2021-08-03T11:12:07.841Z</time>
      </trkpt>
      <trkpt lat="47.00259" lon="8.87037">
        <ele>1504</ele>
        <time>2021-08-03T11:12:08.841Z</time>
      </trkpt>
      <trkpt lat="47.00259" lon="8.87038">
        <ele>1505</ele>
        <time>2021-08-03T11:12:09.841Z</time>
      </trkpt>
      <trkpt lat="47.00258" lon="8.87039">
        <ele>1505</ele>
        <time>2021-08-03T11:12:10.840Z</time>
      </trkpt>
      <trkpt lat="47.00258" lon="8.87039">
        <ele>1506</ele>
        <time>2021-08-03T11:12:11.840Z</time>
      </trkpt>
      <trkpt lat="47.00257" lon="8.8704">
        <ele>1506</ele>
        <time>2021-08-03T11:12:12.840Z</time>
      </trkpt>
      <trkpt lat="47.00257" lon="8.87041">
        <ele>1506</ele>
        <time>2021-08-03T11:12:13.841Z</time>
      </trkpt>
      <trkpt lat="47.00256" lon="8.87042">
        <ele>1506</ele>
        <time>2021-08-03T11:12:14.841Z</time>
      </trkpt>
      <trkpt lat="47.00256" lon="8.87042">
        <ele>1506</ele>
        <time>2021-08-03T11:12:15.841Z</time>
      </trkpt>
      <trkpt lat="47.00256" lon="8.87042">
        <ele>1506</ele>
        <time>2021-08-03T11:12:16.840Z</time>
      </trkpt>
      <trkpt lat="47.00255" lon="8.87043">
        <ele>1506</ele>
        <time>2021-08-03T11:12:17.840Z</time>
      </trkpt>
      <trkpt lat="47.00255" lon="8.87044">
        <ele>1506</ele>
        <time>2021-08-03T11:12:18.841Z</time>
      </trkpt>
      <trkpt lat="47.00254" lon="8.87044">
        <ele>1506</ele>
        <time>2021-08-03T11:12:19.840Z</time>
      </trkpt>
      <trkpt lat="47.00254" lon="8.87045">
        <ele>1506</ele>
        <time>2021-08-03T11:12:20.840Z</time>
      </trkpt>
      <trkpt lat="47.00254" lon="8.87046">
        <ele>1506</ele>
        <time>2021-08-03T11:12:21.840Z</time>
      </trkpt>
      <trkpt lat="47.00254" lon="8.87047">
        <ele>1506</ele>
        <time>2021-08-03T11:12:22.840Z</time>
      </trkpt>
      <trkpt lat="47.00253" lon="8.87047">
        <ele>1506</ele>
        <time>2021-08-03T11:12:23.841Z</time>
      </trkpt>
      <trkpt lat="47.00253" lon="8.87048">
        <ele>1506</ele>
        <time>2021-08-03T11:12:24.841Z</time>
      </trkpt>
      <trkpt lat="47.00252" lon="8.87049">
        <ele>1507</ele>
        <time>2021-08-03T11:12:29.019Z</time>
      </trkpt>
      <trkpt lat="47.00251" lon="8.87049">
        <ele>1507</ele>
        <time>2021-08-03T11:12:30.019Z</time>
      </trkpt>
      <trkpt lat="47.0025" lon="8.8705">
        <ele>1507</ele>
        <time>2021-08-03T11:12:31.018Z</time>
      </trkpt>
      <trkpt lat="47.0025" lon="8.87051">
        <ele>1507</ele>
        <time>2021-08-03T11:12:32.019Z</time>
      </trkpt>
      <trkpt lat="47.00249" lon="8.87052">
        <ele>1507</ele>
        <time>2021-08-03T11:12:36.084Z</time>
      </trkpt>
      <trkpt lat="47.00249" lon="8.87053">
        <ele>1507</ele>
        <time>2021-08-03T11:12:37.084Z</time>
      </trkpt>
      <trkpt lat="47.00248" lon="8.87054">
        <ele>1507</ele>
        <time>2021-08-03T11:12:38.083Z</time>
      </trkpt>
      <trkpt lat="47.00248" lon="8.87054">
        <ele>1507</ele>
        <time>2021-08-03T11:12:39.083Z</time>
      </trkpt>
      <trkpt lat="47.00247" lon="8.87054">
        <ele>1506</ele>
        <time>2021-08-03T11:12:40.084Z</time>
      </trkpt>
      <trkpt lat="47.00246" lon="8.87055">
        <ele>1506</ele>
        <time>2021-08-03T11:12:41.084Z</time>
      </trkpt>
      <trkpt lat="47.00246" lon="8.87055">
        <ele>1506</ele>
        <time>2021-08-03T11:12:42.084Z</time>
      </trkpt>
      <trkpt lat="47.00245" lon="8.87056">
        <ele>1506</ele>
        <time>2021-08-03T11:12:43.083Z</time>
      </trkpt>
      <trkpt lat="47.00245" lon="8.87056">
        <ele>1506</ele>
        <time>2021-08-03T11:12:44.083Z</time>
      </trkpt>
      <trkpt lat="47.00244" lon="8.87057">
        <ele>1506</ele>
        <time>2021-08-03T11:12:45.084Z</time>
      </trkpt>
      <trkpt lat="47.00244" lon="8.87057">
        <ele>1506</ele>
        <time>2021-08-03T11:12:52.147Z</time>
      </trkpt>
      <trkpt lat="47.00243" lon="8.87057">
        <ele>1506</ele>
        <time>2021-08-03T11:12:53.147Z</time>
      </trkpt>
      <trkpt lat="47.00242" lon="8.87057">
        <ele>1506</ele>
        <time>2021-08-03T11:12:54.148Z</time>
      </trkpt>
      <trkpt lat="47.00241" lon="8.87057">
        <ele>1506</ele>
        <time>2021-08-03T11:12:55.148Z</time>
      </trkpt>
      <trkpt lat="47.00241" lon="8.87058">
        <ele>1506</ele>
        <time>2021-08-03T11:12:56.147Z</time>
      </trkpt>
      <trkpt lat="47.0024" lon="8.87058">
        <ele>1507</ele>
        <time>2021-08-03T11:12:57.148Z</time>
      </trkpt>
      <trkpt lat="47.00239" lon="8.87058">
        <ele>1507</ele>
        <time>2021-08-03T11:12:58.148Z</time>
      </trkpt>
      <trkpt lat="47.00238" lon="8.87058">
        <ele>1507</ele>
        <time>2021-08-03T11:12:59.147Z</time>
      </trkpt>
      <trkpt lat="47.00237" lon="8.87058">
        <ele>1508</ele>
        <time>2021-08-03T11:13:00.148Z</time>
      </trkpt>
      <trkpt lat="47.00236" lon="8.87058">
        <ele>1508</ele>
        <time>2021-08-03T11:13:01.148Z</time>
      </trkpt>
      <trkpt lat="47.00236" lon="8.87059">
        <ele>1509</ele>
        <time>2021-08-03T11:13:02.147Z</time>
      </trkpt>
      <trkpt lat="47.00235" lon="8.87058">
        <ele>1509</ele>
        <time>2021-08-03T11:13:03.148Z</time>
      </trkpt>
      <trkpt lat="47.00234" lon="8.87058">
        <ele>1509</ele>
        <time>2021-08-03T11:13:04.147Z</time>
      </trkpt>
      <trkpt lat="47.00234" lon="8.87058">
        <ele>1509</ele>
        <time>2021-08-03T11:13:05.148Z</time>
      </trkpt>
      <trkpt lat="47.00233" lon="8.87058">
        <ele>1509</ele>
        <time>2021-08-03T11:13:06.148Z</time>
      </trkpt>
      <trkpt lat="47.00232" lon="8.87058">
        <ele>1509</ele>
        <time>2021-08-03T11:13:07.147Z</time>
      </trkpt>
      <trkpt lat="47.00231" lon="8.87059">
        <ele>1510</ele>
        <time>2021-08-03T11:13:08.148Z</time>
      </trkpt>
      <trkpt lat="47.00231" lon="8.87058">
        <ele>1510</ele>
        <time>2021-08-03T11:13:09.147Z</time>
      </trkpt>
      <trkpt lat="47.0023" lon="8.87058">
        <ele>1509</ele>
        <time>2021-08-03T11:13:10.148Z</time>
      </trkpt>
      <trkpt lat="47.00229" lon="8.87058">
        <ele>1509</ele>
        <time>2021-08-03T11:13:11.147Z</time>
      </trkpt>
      <trkpt lat="47.00228" lon="8.87058">
        <ele>1509</ele>
        <time>2021-08-03T11:13:12.147Z</time>
      </trkpt>
      <trkpt lat="47.00227" lon="8.87058">
        <ele>1508</ele>
        <time>2021-08-03T11:13:13.147Z</time>
      </trkpt>
      <trkpt lat="47.00227" lon="8.87058">
        <ele>1508</ele>
        <time>2021-08-03T11:13:14.148Z</time>
      </trkpt>
      <trkpt lat="47.00226" lon="8.87059">
        <ele>1509</ele>
        <time>2021-08-03T11:13:15.148Z</time>
      </trkpt>
      <trkpt lat="47.00225" lon="8.87059">
        <ele>1509</ele>
        <time>2021-08-03T11:13:16.147Z</time>
      </trkpt>
      <trkpt lat="47.00225" lon="8.87059">
        <ele>1508</ele>
        <time>2021-08-03T11:13:17.147Z</time>
      </trkpt>
      <trkpt lat="47.00224" lon="8.87059">
        <ele>1508</ele>
        <time>2021-08-03T11:13:18.148Z</time>
      </trkpt>
      <trkpt lat="47.00223" lon="8.87059">
        <ele>1507</ele>
        <time>2021-08-03T11:13:19.148Z</time>
      </trkpt>
      <trkpt lat="47.00223" lon="8.8706">
        <ele>1507</ele>
        <time>2021-08-03T11:13:20.148Z</time>
      </trkpt>
      <trkpt lat="47.00222" lon="8.8706">
        <ele>1507</ele>
        <time>2021-08-03T11:13:21.147Z</time>
      </trkpt>
      <trkpt lat="47.00221" lon="8.8706">
        <ele>1508</ele>
        <time>2021-08-03T11:13:22.148Z</time>
      </trkpt>
      <trkpt lat="47.0022" lon="8.8706">
        <ele>1508</ele>
        <time>2021-08-03T11:13:29.248Z</time>
      </trkpt>
      <trkpt lat="47.00219" lon="8.8706">
        <ele>1508</ele>
        <time>2021-08-03T11:13:30.247Z</time>
      </trkpt>
      <trkpt lat="47.00219" lon="8.8706">
        <ele>1509</ele>
        <time>2021-08-03T11:13:31.248Z</time>
      </trkpt>
      <trkpt lat="47.00218" lon="8.8706">
        <ele>1509</ele>
        <time>2021-08-03T11:13:33.255Z</time>
      </trkpt>
      <trkpt lat="47.00217" lon="8.8706">
        <ele>1509</ele>
        <time>2021-08-03T11:13:34.254Z</time>
      </trkpt>
      <trkpt lat="47.00216" lon="8.8706">
        <ele>1510</ele>
        <time>2021-08-03T11:13:35.254Z</time>
      </trkpt>
      <trkpt lat="47.00215" lon="8.8706">
        <ele>1510</ele>
        <time>2021-08-03T11:13:36.254Z</time>
      </trkpt>
      <trkpt lat="47.00214" lon="8.8706">
        <ele>1510</ele>
        <time>2021-08-03T11:13:37.254Z</time>
      </trkpt>
      <trkpt lat="47.00213" lon="8.87059">
        <ele>1509</ele>
        <time>2021-08-03T11:13:38.255Z</time>
      </trkpt>
      <trkpt lat="47.00212" lon="8.87059">
        <ele>1509</ele>
        <time>2021-08-03T11:13:39.255Z</time>
      </trkpt>
      <trkpt lat="47.00211" lon="8.87058">
        <ele>1509</ele>
        <time>2021-08-03T11:13:40.254Z</time>
      </trkpt>
      <trkpt lat="47.0021" lon="8.87058">
        <ele>1509</ele>
        <time>2021-08-03T11:13:41.254Z</time>
      </trkpt>
      <trkpt lat="47.00209" lon="8.87059">
        <ele>1509</ele>
        <time>2021-08-03T11:13:42.254Z</time>
      </trkpt>
      <trkpt lat="47.00208" lon="8.87059">
        <ele>1510</ele>
        <time>2021-08-03T11:13:43.255Z</time>
      </trkpt>
      <trkpt lat="47.00207" lon="8.87058">
        <ele>1510</ele>
        <time>2021-08-03T11:13:44.254Z</time>
      </trkpt>
      <trkpt lat="47.00207" lon="8.87058">
        <ele>1511</ele>
        <time>2021-08-03T11:13:45.254Z</time>
      </trkpt>
      <trkpt lat="47.00206" lon="8.87058">
        <ele>1512</ele>
        <time>2021-08-03T11:13:46.254Z</time>
      </trkpt>
      <trkpt lat="47.00206" lon="8.87058">
        <ele>1513</ele>
        <time>2021-08-03T11:13:50.344Z</time>
      </trkpt>
      <trkpt lat="47.00205" lon="8.87059">
        <ele>1513</ele>
        <time>2021-08-03T11:13:51.345Z</time>
      </trkpt>
      <trkpt lat="47.00205" lon="8.87059">
        <ele>1513</ele>
        <time>2021-08-03T11:14:03.244Z</time>
      </trkpt>
      <trkpt lat="47.00204" lon="8.8706">
        <ele>1513</ele>
        <time>2021-08-03T11:14:04.245Z</time>
      </trkpt>
      <trkpt lat="47.00204" lon="8.8706">
        <ele>1513</ele>
        <time>2021-08-03T11:14:05.245Z</time>
      </trkpt>
      <trkpt lat="47.00204" lon="8.8706">
        <ele>1513</ele>
        <time>2021-08-03T11:14:06.244Z</time>
      </trkpt>
      <trkpt lat="47.00203" lon="8.8706">
        <ele>1513</ele>
        <time>2021-08-03T11:14:07.245Z</time>
      </trkpt>
      <trkpt lat="47.00202" lon="8.8706">
        <ele>1513</ele>
        <time>2021-08-03T11:14:08.244Z</time>
      </trkpt>
      <trkpt lat="47.00201" lon="8.8706">
        <ele>1514</ele>
        <time>2021-08-03T11:14:09.244Z</time>
      </trkpt>
      <trkpt lat="47.00201" lon="8.8706">
        <ele>1514</ele>
        <time>2021-08-03T11:14:10.245Z</time>
      </trkpt>
      <trkpt lat="47.002" lon="8.8706">
        <ele>1514</ele>
        <time>2021-08-03T11:14:11.245Z</time>
      </trkpt>
      <trkpt lat="47.00199" lon="8.8706">
        <ele>1514</ele>
        <time>2021-08-03T11:14:12.245Z</time>
      </trkpt>
      <trkpt lat="47.00199" lon="8.8706">
        <ele>1514</ele>
        <time>2021-08-03T11:14:13.245Z</time>
      </trkpt>
      <trkpt lat="47.00198" lon="8.8706">
        <ele>1514</ele>
        <time>2021-08-03T11:14:14.245Z</time>
      </trkpt>
      <trkpt lat="47.00197" lon="8.8706">
        <ele>1515</ele>
        <time>2021-08-03T11:14:15.245Z</time>
      </trkpt>
      <trkpt lat="47.00196" lon="8.8706">
        <ele>1515</ele>
        <time>2021-08-03T11:14:16.245Z</time>
      </trkpt>
      <trkpt lat="47.00195" lon="8.8706">
        <ele>1515</ele>
        <time>2021-08-03T11:14:17.244Z</time>
      </trkpt>
      <trkpt lat="47.00194" lon="8.8706">
        <ele>1516</ele>
        <time>2021-08-03T11:14:18.244Z</time>
      </trkpt>
      <trkpt lat="47.00193" lon="8.8706">
        <ele>1516</ele>
        <time>2021-08-03T11:14:19.245Z</time>
      </trkpt>
      <trkpt lat="47.00192" lon="8.87059">
        <ele>1517</ele>
        <time>2021-08-03T11:14:20.244Z</time>
      </trkpt>
      <trkpt lat="47.00191" lon="8.87059">
        <ele>1517</ele>
        <time>2021-08-03T11:14:21.245Z</time>
      </trkpt>
      <trkpt lat="47.0019" lon="8.87059">
        <ele>1518</ele>
        <time>2021-08-03T11:14:22.245Z</time>
      </trkpt>
      <trkpt lat="47.00189" lon="8.87059">
        <ele>1518</ele>
        <time>2021-08-03T11:14:23.245Z</time>
      </trkpt>
      <trkpt lat="47.00189" lon="8.87059">
        <ele>1518</ele>
        <time>2021-08-03T11:14:24.244Z</time>
      </trkpt>
      <trkpt lat="47.00188" lon="8.87059">
        <ele>1519</ele>
        <time>2021-08-03T11:14:25.244Z</time>
      </trkpt>
      <trkpt lat="47.00187" lon="8.87059">
        <ele>1519</ele>
        <time>2021-08-03T11:14:31.390Z</time>
      </trkpt>
      <trkpt lat="47.00186" lon="8.87059">
        <ele>1519</ele>
        <time>2021-08-03T11:14:32.390Z</time>
      </trkpt>
      <trkpt lat="47.00185" lon="8.87059">
        <ele>1520</ele>
        <time>2021-08-03T11:14:33.391Z</time>
      </trkpt>
      <trkpt lat="47.00184" lon="8.87059">
        <ele>1520</ele>
        <time>2021-08-03T11:14:34.391Z</time>
      </trkpt>
      <trkpt lat="47.00183" lon="8.87059">
        <ele>1520</ele>
        <time>2021-08-03T11:14:35.390Z</time>
      </trkpt>
      <trkpt lat="47.00183" lon="8.87059">
        <ele>1520</ele>
        <time>2021-08-03T11:14:36.391Z</time>
      </trkpt>
      <trkpt lat="47.00182" lon="8.87059">
        <ele>1520</ele>
        <time>2021-08-03T11:14:37.390Z</time>
      </trkpt>
      <trkpt lat="47.00181" lon="8.87058">
        <ele>1520</ele>
        <time>2021-08-03T11:14:38.390Z</time>
      </trkpt>
      <trkpt lat="47.0018" lon="8.87058">
        <ele>1520</ele>
        <time>2021-08-03T11:14:39.391Z</time>
      </trkpt>
      <trkpt lat="47.00179" lon="8.87058">
        <ele>1520</ele>
        <time>2021-08-03T11:14:46.477Z</time>
      </trkpt>
      <trkpt lat="47.00179" lon="8.87058">
        <ele>1520</ele>
        <time>2021-08-03T11:14:47.478Z</time>
      </trkpt>
      <trkpt lat="47.00178" lon="8.87058">
        <ele>1519</ele>
        <time>2021-08-03T11:14:48.478Z</time>
      </trkpt>
      <trkpt lat="47.00177" lon="8.87059">
        <ele>1519</ele>
        <time>2021-08-03T11:14:49.477Z</time>
      </trkpt>
      <trkpt lat="47.00177" lon="8.87059">
        <ele>1518</ele>
        <time>2021-08-03T11:14:50.478Z</time>
      </trkpt>
      <trkpt lat="47.00176" lon="8.87059">
        <ele>1517</ele>
        <time>2021-08-03T11:14:51.477Z</time>
      </trkpt>
      <trkpt lat="47.00175" lon="8.8706">
        <ele>1517</ele>
        <time>2021-08-03T11:14:52.478Z</time>
      </trkpt>
      <trkpt lat="47.00175" lon="8.8706">
        <ele>1517</ele>
        <time>2021-08-03T11:14:53.477Z</time>
      </trkpt>
      <trkpt lat="47.00174" lon="8.87061">
        <ele>1516</ele>
        <time>2021-08-03T11:14:54.477Z</time>
      </trkpt>
      <trkpt lat="47.00173" lon="8.87061">
        <ele>1516</ele>
        <time>2021-08-03T11:14:55.478Z</time>
      </trkpt>
      <trkpt lat="47.00173" lon="8.87061">
        <ele>1516</ele>
        <time>2021-08-03T11:14:56.477Z</time>
      </trkpt>
      <trkpt lat="47.00172" lon="8.87061">
        <ele>1516</ele>
        <time>2021-08-03T11:14:57.477Z</time>
      </trkpt>
      <trkpt lat="47.00171" lon="8.87061">
        <ele>1516</ele>
        <time>2021-08-03T11:14:58.478Z</time>
      </trkpt>
      <trkpt lat="47.0017" lon="8.87061">
        <ele>1517</ele>
        <time>2021-08-03T11:14:59.478Z</time>
      </trkpt>
      <trkpt lat="47.00169" lon="8.87061">
        <ele>1517</ele>
        <time>2021-08-03T11:15:00.477Z</time>
      </trkpt>
      <trkpt lat="47.00169" lon="8.87061">
        <ele>1517</ele>
        <time>2021-08-03T11:15:01.477Z</time>
      </trkpt>
      <trkpt lat="47.00168" lon="8.87061">
        <ele>1517</ele>
        <time>2021-08-03T11:15:02.477Z</time>
      </trkpt>
      <trkpt lat="47.00167" lon="8.8706">
        <ele>1517</ele>
        <time>2021-08-03T11:15:03.477Z</time>
      </trkpt>
      <trkpt lat="47.00167" lon="8.8706">
        <ele>1517</ele>
        <time>2021-08-03T11:15:04.477Z</time>
      </trkpt>
      <trkpt lat="47.00167" lon="8.87059">
        <ele>1517</ele>
        <time>2021-08-03T11:15:05.477Z</time>
      </trkpt>
      <trkpt lat="47.00166" lon="8.87059">
        <ele>1517</ele>
        <time>2021-08-03T11:15:06.477Z</time>
      </trkpt>
      <trkpt lat="47.00166" lon="8.87059">
        <ele>1517</ele>
        <time>2021-08-03T11:15:07.477Z</time>
      </trkpt>
      <trkpt lat="47.00165" lon="8.87058">
        <ele>1518</ele>
        <time>2021-08-03T11:15:08.478Z</time>
      </trkpt>
      <trkpt lat="47.00165" lon="8.87057">
        <ele>1518</ele>
        <time>2021-08-03T11:15:09.477Z</time>
      </trkpt>
      <trkpt lat="47.00164" lon="8.87057">
        <ele>1519</ele>
        <time>2021-08-03T11:15:10.477Z</time>
      </trkpt>
      <trkpt lat="47.00163" lon="8.87056">
        <ele>1519</ele>
        <time>2021-08-03T11:15:11.478Z</time>
      </trkpt>
      <trkpt lat="47.00163" lon="8.87056">
        <ele>1520</ele>
        <time>2021-08-03T11:15:12.477Z</time>
      </trkpt>
      <trkpt lat="47.00162" lon="8.87056">
        <ele>1520</ele>
        <time>2021-08-03T11:15:13.477Z</time>
      </trkpt>
      <trkpt lat="47.00161" lon="8.87055">
        <ele>1520</ele>
        <time>2021-08-03T11:15:14.478Z</time>
      </trkpt>
      <trkpt lat="47.00161" lon="8.87054">
        <ele>1520</ele>
        <time>2021-08-03T11:15:15.478Z</time>
      </trkpt>
      <trkpt lat="47.0016" lon="8.87053">
        <ele>1520</ele>
        <time>2021-08-03T11:15:16.477Z</time>
      </trkpt>
      <trkpt lat="47.00159" lon="8.87053">
        <ele>1520</ele>
        <time>2021-08-03T11:15:17.478Z</time>
      </trkpt>
      <trkpt lat="47.00159" lon="8.87052">
        <ele>1520</ele>
        <time>2021-08-03T11:15:18.478Z</time>
      </trkpt>
      <trkpt lat="47.00158" lon="8.87052">
        <ele>1520</ele>
        <time>2021-08-03T11:15:19.477Z</time>
      </trkpt>
      <trkpt lat="47.00157" lon="8.87051">
        <ele>1520</ele>
        <time>2021-08-03T11:15:20.477Z</time>
      </trkpt>
      <trkpt lat="47.00157" lon="8.87051">
        <ele>1520</ele>
        <time>2021-08-03T11:15:21.478Z</time>
      </trkpt>
      <trkpt lat="47.00157" lon="8.87051">
        <ele>1521</ele>
        <time>2021-08-03T11:15:22.477Z</time>
      </trkpt>
      <trkpt lat="47.00156" lon="8.87051">
        <ele>1521</ele>
        <time>2021-08-03T11:15:23.477Z</time>
      </trkpt>
      <trkpt lat="47.00156" lon="8.8705">
        <ele>1521</ele>
        <time>2021-08-03T11:15:24.477Z</time>
      </trkpt>
      <trkpt lat="47.00155" lon="8.8705">
        <ele>1521</ele>
        <time>2021-08-03T11:15:25.478Z</time>
      </trkpt>
      <trkpt lat="47.00154" lon="8.8705">
        <ele>1521</ele>
        <time>2021-08-03T11:15:26.477Z</time>
      </trkpt>
      <trkpt lat="47.00153" lon="8.8705">
        <ele>1521</ele>
        <time>2021-08-03T11:15:27.477Z</time>
      </trkpt>
      <trkpt lat="47.00153" lon="8.8705">
        <ele>1521</ele>
        <time>2021-08-03T11:15:28.477Z</time>
      </trkpt>
      <trkpt lat="47.00152" lon="8.8705">
        <ele>1521</ele>
        <time>2021-08-03T11:15:29.478Z</time>
      </trkpt>
      <trkpt lat="47.00151" lon="8.87051">
        <ele>1522</ele>
        <time>2021-08-03T11:15:30.477Z</time>
      </trkpt>
      <trkpt lat="47.0015" lon="8.87052">
        <ele>1522</ele>
        <time>2021-08-03T11:15:31.477Z</time>
      </trkpt>
      <trkpt lat="47.00149" lon="8.87052">
        <ele>1523</ele>
        <time>2021-08-03T11:15:32.477Z</time>
      </trkpt>
      <trkpt lat="47.00149" lon="8.87052">
        <ele>1523</ele>
        <time>2021-08-03T11:15:33.478Z</time>
      </trkpt>
      <trkpt lat="47.00148" lon="8.87052">
        <ele>1523</ele>
        <time>2021-08-03T11:15:34.477Z</time>
      </trkpt>
      <trkpt lat="47.00148" lon="8.87052">
        <ele>1523</ele>
        <time>2021-08-03T11:15:35.478Z</time>
      </trkpt>
      <trkpt lat="47.00147" lon="8.87053">
        <ele>1524</ele>
        <time>2021-08-03T11:15:36.478Z</time>
      </trkpt>
      <trkpt lat="47.00146" lon="8.87052">
        <ele>1524</ele>
        <time>2021-08-03T11:15:37.477Z</time>
      </trkpt>
      <trkpt lat="47.00146" lon="8.87052">
        <ele>1524</ele>
        <time>2021-08-03T11:15:38.477Z</time>
      </trkpt>
      <trkpt lat="47.00145" lon="8.87052">
        <ele>1524</ele>
        <time>2021-08-03T11:15:39.478Z</time>
      </trkpt>
      <trkpt lat="47.00144" lon="8.87051">
        <ele>1525</ele>
        <time>2021-08-03T11:15:40.477Z</time>
      </trkpt>
      <trkpt lat="47.00144" lon="8.87052">
        <ele>1525</ele>
        <time>2021-08-03T11:15:41.478Z</time>
      </trkpt>
      <trkpt lat="47.00143" lon="8.87052">
        <ele>1525</ele>
        <time>2021-08-03T11:15:42.478Z</time>
      </trkpt>
      <trkpt lat="47.00143" lon="8.87052">
        <ele>1525</ele>
        <time>2021-08-03T11:15:43.478Z</time>
      </trkpt>
      <trkpt lat="47.00142" lon="8.87053">
        <ele>1526</ele>
        <time>2021-08-03T11:15:44.478Z</time>
      </trkpt>
      <trkpt lat="47.00141" lon="8.87053">
        <ele>1526</ele>
        <time>2021-08-03T11:15:45.478Z</time>
      </trkpt>
      <trkpt lat="47.0014" lon="8.87054">
        <ele>1526</ele>
        <time>2021-08-03T11:15:46.478Z</time>
      </trkpt>
      <trkpt lat="47.0014" lon="8.87054">
        <ele>1526</ele>
        <time>2021-08-03T11:15:47.478Z</time>
      </trkpt>
      <trkpt lat="47.00139" lon="8.87054">
        <ele>1526</ele>
        <time>2021-08-03T11:15:48.477Z</time>
      </trkpt>
      <trkpt lat="47.00139" lon="8.87054">
        <ele>1526</ele>
        <time>2021-08-03T11:15:49.478Z</time>
      </trkpt>
      <trkpt lat="47.00138" lon="8.87055">
        <ele>1526</ele>
        <time>2021-08-03T11:15:50.478Z</time>
      </trkpt>
      <trkpt lat="47.00137" lon="8.87055">
        <ele>1526</ele>
        <time>2021-08-03T11:15:51.477Z</time>
      </trkpt>
      <trkpt lat="47.00137" lon="8.87055">
        <ele>1526</ele>
        <time>2021-08-03T11:15:52.477Z</time>
      </trkpt>
      <trkpt lat="47.00136" lon="8.87055">
        <ele>1526</ele>
        <time>2021-08-03T11:15:53.478Z</time>
      </trkpt>
      <trkpt lat="47.00135" lon="8.87055">
        <ele>1526</ele>
        <time>2021-08-03T11:15:54.477Z</time>
      </trkpt>
      <trkpt lat="47.00135" lon="8.87055">
        <ele>1526</ele>
        <time>2021-08-03T11:15:55.478Z</time>
      </trkpt>
      <trkpt lat="47.00135" lon="8.87055">
        <ele>1526</ele>
        <time>2021-08-03T11:15:56.478Z</time>
      </trkpt>
      <trkpt lat="47.00134" lon="8.87055">
        <ele>1527</ele>
        <time>2021-08-03T11:15:57.477Z</time>
      </trkpt>
      <trkpt lat="47.00134" lon="8.87055">
        <ele>1527</ele>
        <time>2021-08-03T11:15:58.478Z</time>
      </trkpt>
      <trkpt lat="47.00133" lon="8.87055">
        <ele>1526</ele>
        <time>2021-08-03T11:15:59.478Z</time>
      </trkpt>
      <trkpt lat="47.00132" lon="8.87056">
        <ele>1526</ele>
        <time>2021-08-03T11:16:00.477Z</time>
      </trkpt>
      <trkpt lat="47.00132" lon="8.87056">
        <ele>1525</ele>
        <time>2021-08-03T11:16:01.477Z</time>
      </trkpt>
      <trkpt lat="47.00131" lon="8.87057">
        <ele>1525</ele>
        <time>2021-08-03T11:16:02.477Z</time>
      </trkpt>
      <trkpt lat="47.00131" lon="8.87057">
        <ele>1524</ele>
        <time>2021-08-03T11:16:03.477Z</time>
      </trkpt>
      <trkpt lat="47.0013" lon="8.87058">
        <ele>1524</ele>
        <time>2021-08-03T11:16:04.478Z</time>
      </trkpt>
      <trkpt lat="47.0013" lon="8.87058">
        <ele>1523</ele>
        <time>2021-08-03T11:16:05.478Z</time>
      </trkpt>
      <trkpt lat="47.00129" lon="8.87058">
        <ele>1523</ele>
        <time>2021-08-03T11:16:06.477Z</time>
      </trkpt>
      <trkpt lat="47.00128" lon="8.87059">
        <ele>1523</ele>
        <time>2021-08-03T11:16:07.478Z</time>
      </trkpt>
      <trkpt lat="47.00127" lon="8.87059">
        <ele>1523</ele>
        <time>2021-08-03T11:16:08.478Z</time>
      </trkpt>
      <trkpt lat="47.00126" lon="8.87059">
        <ele>1523</ele>
        <time>2021-08-03T11:16:09.477Z</time>
      </trkpt>
      <trkpt lat="47.00125" lon="8.8706">
        <ele>1523</ele>
        <time>2021-08-03T11:16:10.478Z</time>
      </trkpt>
      <trkpt lat="47.00124" lon="8.8706">
        <ele>1523</ele>
        <time>2021-08-03T11:16:11.478Z</time>
      </trkpt>
      <trkpt lat="47.00123" lon="8.87061">
        <ele>1523</ele>
        <time>2021-08-03T11:16:12.478Z</time>
      </trkpt>
      <trkpt lat="47.00122" lon="8.87061">
        <ele>1523</ele>
        <time>2021-08-03T11:16:13.478Z</time>
      </trkpt>
      <trkpt lat="47.00121" lon="8.87061">
        <ele>1523</ele>
        <time>2021-08-03T11:16:14.478Z</time>
      </trkpt>
      <trkpt lat="47.0012" lon="8.87062">
        <ele>1523</ele>
        <time>2021-08-03T11:16:15.477Z</time>
      </trkpt>
      <trkpt lat="47.00119" lon="8.87064">
        <ele>1523</ele>
        <time>2021-08-03T11:16:16.478Z</time>
      </trkpt>
      <trkpt lat="47.00119" lon="8.87064">
        <ele>1524</ele>
        <time>2021-08-03T11:16:17.478Z</time>
      </trkpt>
      <trkpt lat="47.00118" lon="8.87065">
        <ele>1523</ele>
        <time>2021-08-03T11:16:18.478Z</time>
      </trkpt>
      <trkpt lat="47.00118" lon="8.87066">
        <ele>1523</ele>
        <time>2021-08-03T11:16:19.477Z</time>
      </trkpt>
      <trkpt lat="47.00117" lon="8.87066">
        <ele>1523</ele>
        <time>2021-08-03T11:16:20.478Z</time>
      </trkpt>
      <trkpt lat="47.00115" lon="8.87067">
        <ele>1522</ele>
        <time>2021-08-03T11:16:21.478Z</time>
      </trkpt>
      <trkpt lat="47.00115" lon="8.87068">
        <ele>1522</ele>
        <time>2021-08-03T11:16:22.478Z</time>
      </trkpt>
      <trkpt lat="47.00114" lon="8.87068">
        <ele>1522</ele>
        <time>2021-08-03T11:16:23.478Z</time>
      </trkpt>
      <trkpt lat="47.00113" lon="8.87069">
        <ele>1522</ele>
        <time>2021-08-03T11:16:24.478Z</time>
      </trkpt>
      <trkpt lat="47.00112" lon="8.87069">
        <ele>1522</ele>
        <time>2021-08-03T11:16:25.477Z</time>
      </trkpt>
      <trkpt lat="47.00111" lon="8.87069">
        <ele>1523</ele>
        <time>2021-08-03T11:16:26.478Z</time>
      </trkpt>
      <trkpt lat="47.0011" lon="8.87069">
        <ele>1523</ele>
        <time>2021-08-03T11:16:27.477Z</time>
      </trkpt>
      <trkpt lat="47.00109" lon="8.87069">
        <ele>1524</ele>
        <time>2021-08-03T11:16:28.478Z</time>
      </trkpt>
      <trkpt lat="47.00108" lon="8.8707">
        <ele>1524</ele>
        <time>2021-08-03T11:16:29.478Z</time>
      </trkpt>
      <trkpt lat="47.00107" lon="8.8707">
        <ele>1524</ele>
        <time>2021-08-03T11:16:30.477Z</time>
      </trkpt>
      <trkpt lat="47.00107" lon="8.8707">
        <ele>1524</ele>
        <time>2021-08-03T11:16:31.477Z</time>
      </trkpt>
      <trkpt lat="47.00106" lon="8.8707">
        <ele>1524</ele>
        <time>2021-08-03T11:16:32.478Z</time>
      </trkpt>
      <trkpt lat="47.00105" lon="8.87071">
        <ele>1524</ele>
        <time>2021-08-03T11:16:33.477Z</time>
      </trkpt>
      <trkpt lat="47.00104" lon="8.87071">
        <ele>1524</ele>
        <time>2021-08-03T11:16:34.478Z</time>
      </trkpt>
      <trkpt lat="47.00103" lon="8.87071">
        <ele>1525</ele>
        <time>2021-08-03T11:16:35.478Z</time>
      </trkpt>
      <trkpt lat="47.00102" lon="8.87071">
        <ele>1525</ele>
        <time>2021-08-03T11:16:36.478Z</time>
      </trkpt>
      <trkpt lat="47.00101" lon="8.8707">
        <ele>1526</ele>
        <time>2021-08-03T11:16:37.478Z</time>
      </trkpt>
      <trkpt lat="47.001" lon="8.8707">
        <ele>1526</ele>
        <time>2021-08-03T11:16:38.477Z</time>
      </trkpt>
      <trkpt lat="47.00099" lon="8.87069">
        <ele>1527</ele>
        <time>2021-08-03T11:16:39.478Z</time>
      </trkpt>
      <trkpt lat="47.00098" lon="8.87069">
        <ele>1528</ele>
        <time>2021-08-03T11:16:40.478Z</time>
      </trkpt>
      <trkpt lat="47.00098" lon="8.87068">
        <ele>1529</ele>
        <time>2021-08-03T11:16:41.478Z</time>
      </trkpt>
      <trkpt lat="47.00097" lon="8.87068">
        <ele>1529</ele>
        <time>2021-08-03T11:16:42.478Z</time>
      </trkpt>
      <trkpt lat="47.00096" lon="8.87068">
        <ele>1529</ele>
        <time>2021-08-03T11:16:43.477Z</time>
      </trkpt>
      <trkpt lat="47.00096" lon="8.87068">
        <ele>1529</ele>
        <time>2021-08-03T11:16:44.478Z</time>
      </trkpt>
      <trkpt lat="47.00095" lon="8.87068">
        <ele>1528</ele>
        <time>2021-08-03T11:16:45.478Z</time>
      </trkpt>
      <trkpt lat="47.00094" lon="8.87068">
        <ele>1528</ele>
        <time>2021-08-03T11:16:46.478Z</time>
      </trkpt>
      <trkpt lat="47.00094" lon="8.87068">
        <ele>1527</ele>
        <time>2021-08-03T11:16:47.478Z</time>
      </trkpt>
      <trkpt lat="47.00093" lon="8.87069">
        <ele>1527</ele>
        <time>2021-08-03T11:16:48.478Z</time>
      </trkpt>
      <trkpt lat="47.00092" lon="8.87069">
        <ele>1527</ele>
        <time>2021-08-03T11:16:49.477Z</time>
      </trkpt>
      <trkpt lat="47.00092" lon="8.87069">
        <ele>1526</ele>
        <time>2021-08-03T11:16:50.477Z</time>
      </trkpt>
      <trkpt lat="47.00091" lon="8.8707">
        <ele>1526</ele>
        <time>2021-08-03T11:16:51.478Z</time>
      </trkpt>
      <trkpt lat="47.0009" lon="8.8707">
        <ele>1526</ele>
        <time>2021-08-03T11:16:52.478Z</time>
      </trkpt>
      <trkpt lat="47.00089" lon="8.8707">
        <ele>1526</ele>
        <time>2021-08-03T11:16:53.478Z</time>
      </trkpt>
      <trkpt lat="47.00088" lon="8.8707">
        <ele>1527</ele>
        <time>2021-08-03T11:16:54.477Z</time>
      </trkpt>
      <trkpt lat="47.00088" lon="8.8707">
        <ele>1527</ele>
        <time>2021-08-03T11:16:55.478Z</time>
      </trkpt>
      <trkpt lat="47.00087" lon="8.8707">
        <ele>1528</ele>
        <time>2021-08-03T11:16:56.477Z</time>
      </trkpt>
      <trkpt lat="47.00086" lon="8.8707">
        <ele>1528</ele>
        <time>2021-08-03T11:16:57.477Z</time>
      </trkpt>
      <trkpt lat="47.00085" lon="8.87071">
        <ele>1528</ele>
        <time>2021-08-03T11:16:58.478Z</time>
      </trkpt>
      <trkpt lat="47.00085" lon="8.87071">
        <ele>1529</ele>
        <time>2021-08-03T11:16:59.478Z</time>
      </trkpt>
      <trkpt lat="47.00084" lon="8.8707">
        <ele>1529</ele>
        <time>2021-08-03T11:17:00.477Z</time>
      </trkpt>
      <trkpt lat="47.00083" lon="8.8707">
        <ele>1529</ele>
        <time>2021-08-03T11:17:01.478Z</time>
      </trkpt>
      <trkpt lat="47.00082" lon="8.8707">
        <ele>1529</ele>
        <time>2021-08-03T11:17:02.477Z</time>
      </trkpt>
      <trkpt lat="47.00082" lon="8.8707">
        <ele>1529</ele>
        <time>2021-08-03T11:17:03.478Z</time>
      </trkpt>
      <trkpt lat="47.00081" lon="8.8707">
        <ele>1529</ele>
        <time>2021-08-03T11:17:04.477Z</time>
      </trkpt>
      <trkpt lat="47.00081" lon="8.8707">
        <ele>1529</ele>
        <time>2021-08-03T11:17:05.478Z</time>
      </trkpt>
      <trkpt lat="47.0008" lon="8.8707">
        <ele>1529</ele>
        <time>2021-08-03T11:17:06.477Z</time>
      </trkpt>
      <trkpt lat="47.0008" lon="8.8707">
        <ele>1529</ele>
        <time>2021-08-03T11:17:07.478Z</time>
      </trkpt>
      <trkpt lat="47.00079" lon="8.87071">
        <ele>1529</ele>
        <time>2021-08-03T11:17:08.477Z</time>
      </trkpt>
      <trkpt lat="47.00078" lon="8.87071">
        <ele>1529</ele>
        <time>2021-08-03T11:17:09.478Z</time>
      </trkpt>
      <trkpt lat="47.00078" lon="8.87072">
        <ele>1529</ele>
        <time>2021-08-03T11:17:10.478Z</time>
      </trkpt>
      <trkpt lat="47.00078" lon="8.87073">
        <ele>1529</ele>
        <time>2021-08-03T11:17:11.478Z</time>
      </trkpt>
      <trkpt lat="47.00078" lon="8.87073">
        <ele>1529</ele>
        <time>2021-08-03T11:17:12.478Z</time>
      </trkpt>
      <trkpt lat="47.00079" lon="8.87072">
        <ele>1529</ele>
        <time>2021-08-03T11:17:13.477Z</time>
      </trkpt>
      <trkpt lat="47.00079" lon="8.87072">
        <ele>1529</ele>
        <time>2021-08-03T11:17:14.477Z</time>
      </trkpt>
      <trkpt lat="47.0008" lon="8.87074">
        <ele>1529</ele>
        <time>2021-08-03T11:17:15.478Z</time>
      </trkpt>
      <trkpt lat="47.0008" lon="8.87074">
        <ele>1529</ele>
        <time>2021-08-03T11:17:16.478Z</time>
      </trkpt>
      <trkpt lat="47.0008" lon="8.87074">
        <ele>1530</ele>
        <time>2021-08-03T11:17:17.477Z</time>
      </trkpt>
      <trkpt lat="47.00078" lon="8.87073">
        <ele>1530</ele>
        <time>2021-08-03T11:17:18.477Z</time>
      </trkpt>
      <trkpt lat="47.00077" lon="8.87073">
        <ele>1530</ele>
        <time>2021-08-03T11:17:19.477Z</time>
      </trkpt>
      <trkpt lat="47.00076" lon="8.87073">
        <ele>1530</ele>
        <time>2021-08-03T11:17:20.477Z</time>
      </trkpt>
      <trkpt lat="47.00075" lon="8.87073">
        <ele>1531</ele>
        <time>2021-08-03T11:17:21.477Z</time>
      </trkpt>
      <trkpt lat="47.00074" lon="8.87072">
        <ele>1531</ele>
        <time>2021-08-03T11:17:22.477Z</time>
      </trkpt>
      <trkpt lat="47.00073" lon="8.87072">
        <ele>1531</ele>
        <time>2021-08-03T11:17:23.477Z</time>
      </trkpt>
      <trkpt lat="47.00072" lon="8.87072">
        <ele>1531</ele>
        <time>2021-08-03T11:17:24.477Z</time>
      </trkpt>
      <trkpt lat="47.00071" lon="8.87072">
        <ele>1531</ele>
        <time>2021-08-03T11:17:25.478Z</time>
      </trkpt>
      <trkpt lat="47.00069" lon="8.87071">
        <ele>1532</ele>
        <time>2021-08-03T11:17:26.477Z</time>
      </trkpt>
      <trkpt lat="47.00068" lon="8.87071">
        <ele>1532</ele>
        <time>2021-08-03T11:17:29.587Z</time>
      </trkpt>
      <trkpt lat="47.00067" lon="8.87071">
        <ele>1531</ele>
        <time>2021-08-03T11:17:30.587Z</time>
      </trkpt>
      <trkpt lat="47.00066" lon="8.87071">
        <ele>1531</ele>
        <time>2021-08-03T11:17:31.587Z</time>
      </trkpt>
      <trkpt lat="47.00065" lon="8.87071">
        <ele>1531</ele>
        <time>2021-08-03T11:17:32.587Z</time>
      </trkpt>
      <trkpt lat="47.00064" lon="8.87071">
        <ele>1530</ele>
        <time>2021-08-03T11:17:33.587Z</time>
      </trkpt>
      <trkpt lat="47.00063" lon="8.8707">
        <ele>1530</ele>
        <time>2021-08-03T11:17:42.723Z</time>
      </trkpt>
      <trkpt lat="47.00062" lon="8.8707">
        <ele>1530</ele>
        <time>2021-08-03T11:17:43.723Z</time>
      </trkpt>
      <trkpt lat="47.00062" lon="8.8707">
        <ele>1530</ele>
        <time>2021-08-03T11:17:44.723Z</time>
      </trkpt>
      <trkpt lat="47.00061" lon="8.8707">
        <ele>1530</ele>
        <time>2021-08-03T11:17:45.724Z</time>
      </trkpt>
      <trkpt lat="47.0006" lon="8.8707">
        <ele>1530</ele>
        <time>2021-08-03T11:17:46.724Z</time>
      </trkpt>
      <trkpt lat="47.00059" lon="8.8707">
        <ele>1530</ele>
        <time>2021-08-03T11:17:47.723Z</time>
      </trkpt>
      <trkpt lat="47.00058" lon="8.8707">
        <ele>1529</ele>
        <time>2021-08-03T11:17:50.852Z</time>
      </trkpt>
      <trkpt lat="47.00057" lon="8.8707">
        <ele>1529</ele>
        <time>2021-08-03T11:17:51.851Z</time>
      </trkpt>
      <trkpt lat="47.00057" lon="8.87071">
        <ele>1529</ele>
        <time>2021-08-03T11:17:52.851Z</time>
      </trkpt>
      <trkpt lat="47.00056" lon="8.87071">
        <ele>1529</ele>
        <time>2021-08-03T11:17:53.851Z</time>
      </trkpt>
      <trkpt lat="47.00055" lon="8.8707">
        <ele>1529</ele>
        <time>2021-08-03T11:17:54.851Z</time>
      </trkpt>
      <trkpt lat="47.00054" lon="8.8707">
        <ele>1529</ele>
        <time>2021-08-03T11:17:55.851Z</time>
      </trkpt>
      <trkpt lat="47.00053" lon="8.87069">
        <ele>1529</ele>
        <time>2021-08-03T11:17:56.852Z</time>
      </trkpt>
      <trkpt lat="47.00052" lon="8.87069">
        <ele>1530</ele>
        <time>2021-08-03T11:17:57.851Z</time>
      </trkpt>
      <trkpt lat="47.00051" lon="8.87068">
        <ele>1530</ele>
        <time>2021-08-03T11:17:58.851Z</time>
      </trkpt>
      <trkpt lat="47.0005" lon="8.87068">
        <ele>1531</ele>
        <time>2021-08-03T11:17:59.852Z</time>
      </trkpt>
      <trkpt lat="47.00049" lon="8.87067">
        <ele>1532</ele>
        <time>2021-08-03T11:18:00.851Z</time>
      </trkpt>
      <trkpt lat="47.00048" lon="8.87067">
        <ele>1533</ele>
        <time>2021-08-03T11:18:01.852Z</time>
      </trkpt>
      <trkpt lat="47.00047" lon="8.87067">
        <ele>1533</ele>
        <time>2021-08-03T11:18:02.851Z</time>
      </trkpt>
      <trkpt lat="47.00046" lon="8.87066">
        <ele>1534</ele>
        <time>2021-08-03T11:18:03.851Z</time>
      </trkpt>
      <trkpt lat="47.00045" lon="8.87066">
        <ele>1534</ele>
        <time>2021-08-03T11:18:04.851Z</time>
      </trkpt>
      <trkpt lat="47.00044" lon="8.87065">
        <ele>1535</ele>
        <time>2021-08-03T11:18:05.852Z</time>
      </trkpt>
      <trkpt lat="47.00043" lon="8.87065">
        <ele>1535</ele>
        <time>2021-08-03T11:18:06.851Z</time>
      </trkpt>
      <trkpt lat="47.00042" lon="8.87064">
        <ele>1535</ele>
        <time>2021-08-03T11:18:07.851Z</time>
      </trkpt>
      <trkpt lat="47.00041" lon="8.87064">
        <ele>1536</ele>
        <time>2021-08-03T11:18:08.852Z</time>
      </trkpt>
      <trkpt lat="47.0004" lon="8.87063">
        <ele>1536</ele>
        <time>2021-08-03T11:18:09.851Z</time>
      </trkpt>
      <trkpt lat="47.00039" lon="8.87063">
        <ele>1537</ele>
        <time>2021-08-03T11:18:10.852Z</time>
      </trkpt>
      <trkpt lat="47.00038" lon="8.87063">
        <ele>1537</ele>
        <time>2021-08-03T11:18:11.851Z</time>
      </trkpt>
      <trkpt lat="47.00037" lon="8.87062">
        <ele>1537</ele>
        <time>2021-08-03T11:18:12.851Z</time>
      </trkpt>
      <trkpt lat="47.00035" lon="8.87061">
        <ele>1537</ele>
        <time>2021-08-03T11:18:13.851Z</time>
      </trkpt>
      <trkpt lat="47.00035" lon="8.8706">
        <ele>1537</ele>
        <time>2021-08-03T11:18:14.851Z</time>
      </trkpt>
      <trkpt lat="47.00034" lon="8.87059">
        <ele>1537</ele>
        <time>2021-08-03T11:18:15.851Z</time>
      </trkpt>
      <trkpt lat="47.00033" lon="8.87059">
        <ele>1537</ele>
        <time>2021-08-03T11:18:16.851Z</time>
      </trkpt>
      <trkpt lat="47.00032" lon="8.87059">
        <ele>1538</ele>
        <time>2021-08-03T11:18:17.851Z</time>
      </trkpt>
      <trkpt lat="47.00031" lon="8.87058">
        <ele>1538</ele>
        <time>2021-08-03T11:18:18.852Z</time>
      </trkpt>
      <trkpt lat="47.00029" lon="8.87058">
        <ele>1539</ele>
        <time>2021-08-03T11:18:19.851Z</time>
      </trkpt>
      <trkpt lat="47.00028" lon="8.87057">
        <ele>1539</ele>
        <time>2021-08-03T11:18:20.851Z</time>
      </trkpt>
      <trkpt lat="47.00027" lon="8.87055">
        <ele>1540</ele>
        <time>2021-08-03T11:18:21.851Z</time>
      </trkpt>
      <trkpt lat="47.00026" lon="8.87054">
        <ele>1540</ele>
        <time>2021-08-03T11:18:22.851Z</time>
      </trkpt>
      <trkpt lat="47.00025" lon="8.87053">
        <ele>1540</ele>
        <time>2021-08-03T11:18:23.851Z</time>
      </trkpt>
      <trkpt lat="47.00024" lon="8.87052">
        <ele>1540</ele>
        <time>2021-08-03T11:18:24.852Z</time>
      </trkpt>
      <trkpt lat="47.00023" lon="8.87052">
        <ele>1540</ele>
        <time>2021-08-03T11:18:25.851Z</time>
      </trkpt>
      <trkpt lat="47.00023" lon="8.87051">
        <ele>1540</ele>
        <time>2021-08-03T11:18:26.851Z</time>
      </trkpt>
      <trkpt lat="47.00022" lon="8.8705">
        <ele>1540</ele>
        <time>2021-08-03T11:18:27.851Z</time>
      </trkpt>
      <trkpt lat="47.00021" lon="8.87049">
        <ele>1540</ele>
        <time>2021-08-03T11:18:28.851Z</time>
      </trkpt>
      <trkpt lat="47.00019" lon="8.87048">
        <ele>1541</ele>
        <time>2021-08-03T11:18:29.851Z</time>
      </trkpt>
      <trkpt lat="47.00019" lon="8.87048">
        <ele>1541</ele>
        <time>2021-08-03T11:18:30.851Z</time>
      </trkpt>
      <trkpt lat="47.00018" lon="8.87047">
        <ele>1541</ele>
        <time>2021-08-03T11:18:32.971Z</time>
      </trkpt>
      <trkpt lat="47.00017" lon="8.87045">
        <ele>1541</ele>
        <time>2021-08-03T11:18:33.970Z</time>
      </trkpt>
      <trkpt lat="47.00016" lon="8.87045">
        <ele>1541</ele>
        <time>2021-08-03T11:18:34.971Z</time>
      </trkpt>
      <trkpt lat="47.00015" lon="8.87044">
        <ele>1541</ele>
        <time>2021-08-03T11:18:35.970Z</time>
      </trkpt>
      <trkpt lat="47.00014" lon="8.87043">
        <ele>1540</ele>
        <time>2021-08-03T11:18:36.970Z</time>
      </trkpt>
      <trkpt lat="47.00013" lon="8.87042">
        <ele>1540</ele>
        <time>2021-08-03T11:18:37.971Z</time>
      </trkpt>
      <trkpt lat="47.00012" lon="8.87041">
        <ele>1539</ele>
        <time>2021-08-03T11:18:38.970Z</time>
      </trkpt>
      <trkpt lat="47.00011" lon="8.8704">
        <ele>1539</ele>
        <time>2021-08-03T11:18:39.970Z</time>
      </trkpt>
      <trkpt lat="47.0001" lon="8.87039">
        <ele>1539</ele>
        <time>2021-08-03T11:18:40.970Z</time>
      </trkpt>
      <trkpt lat="47.00009" lon="8.87038">
        <ele>1538</ele>
        <time>2021-08-03T11:18:41.970Z</time>
      </trkpt>
      <trkpt lat="47.00009" lon="8.87037">
        <ele>1538</ele>
        <time>2021-08-03T11:18:42.970Z</time>
      </trkpt>
      <trkpt lat="47.00008" lon="8.87036">
        <ele>1538</ele>
        <time>2021-08-03T11:18:43.971Z</time>
      </trkpt>
      <trkpt lat="47.00007" lon="8.87035">
        <ele>1538</ele>
        <time>2021-08-03T11:18:44.971Z</time>
      </trkpt>
      <trkpt lat="47.00006" lon="8.87034">
        <ele>1539</ele>
        <time>2021-08-03T11:18:45.970Z</time>
      </trkpt>
      <trkpt lat="47.00005" lon="8.87033">
        <ele>1539</ele>
        <time>2021-08-03T11:18:46.970Z</time>
      </trkpt>
      <trkpt lat="47.00004" lon="8.87032">
        <ele>1540</ele>
        <time>2021-08-03T11:18:47.970Z</time>
      </trkpt>
      <trkpt lat="47.00003" lon="8.87031">
        <ele>1540</ele>
        <time>2021-08-03T11:18:48.970Z</time>
      </trkpt>
      <trkpt lat="47.00002" lon="8.87029">
        <ele>1541</ele>
        <time>2021-08-03T11:18:49.970Z</time>
      </trkpt>
      <trkpt lat="47.00002" lon="8.87028">
        <ele>1541</ele>
        <time>2021-08-03T11:18:50.971Z</time>
      </trkpt>
      <trkpt lat="47.00001" lon="8.87027">
        <ele>1541</ele>
        <time>2021-08-03T11:18:51.970Z</time>
      </trkpt>
      <trkpt lat="47" lon="8.87026">
        <ele>1541</ele>
        <time>2021-08-03T11:18:52.970Z</time>
      </trkpt>
      <trkpt lat="47" lon="8.87025">
        <ele>1541</ele>
        <time>2021-08-03T11:18:53.971Z</time>
      </trkpt>
      <trkpt lat="46.99999" lon="8.87024">
        <ele>1541</ele>
        <time>2021-08-03T11:18:54.970Z</time>
      </trkpt>
      <trkpt lat="46.99998" lon="8.87023">
        <ele>1540</ele>
        <time>2021-08-03T11:18:55.970Z</time>
      </trkpt>
      <trkpt lat="46.99998" lon="8.87022">
        <ele>1540</ele>
        <time>2021-08-03T11:18:56.971Z</time>
      </trkpt>
      <trkpt lat="46.99997" lon="8.8702">
        <ele>1540</ele>
        <time>2021-08-03T11:18:57.970Z</time>
      </trkpt>
      <trkpt lat="46.99996" lon="8.8702">
        <ele>1540</ele>
        <time>2021-08-03T11:18:58.970Z</time>
      </trkpt>
      <trkpt lat="46.99995" lon="8.87018">
        <ele>1540</ele>
        <time>2021-08-03T11:18:59.970Z</time>
      </trkpt>
      <trkpt lat="46.99994" lon="8.87017">
        <ele>1540</ele>
        <time>2021-08-03T11:19:00.970Z</time>
      </trkpt>
      <trkpt lat="46.99993" lon="8.87016">
        <ele>1540</ele>
        <time>2021-08-03T11:19:01.970Z</time>
      </trkpt>
      <trkpt lat="46.99993" lon="8.87014">
        <ele>1540</ele>
        <time>2021-08-03T11:19:02.970Z</time>
      </trkpt>
      <trkpt lat="46.99992" lon="8.87013">
        <ele>1540</ele>
        <time>2021-08-03T11:19:03.971Z</time>
      </trkpt>
      <trkpt lat="46.9999" lon="8.87011">
        <ele>1541</ele>
        <time>2021-08-03T11:19:04.971Z</time>
      </trkpt>
      <trkpt lat="46.9999" lon="8.8701">
        <ele>1541</ele>
        <time>2021-08-03T11:19:05.970Z</time>
      </trkpt>
      <trkpt lat="46.99989" lon="8.87008">
        <ele>1541</ele>
        <time>2021-08-03T11:19:06.970Z</time>
      </trkpt>
      <trkpt lat="46.99988" lon="8.87006">
        <ele>1541</ele>
        <time>2021-08-03T11:19:07.970Z</time>
      </trkpt>
      <trkpt lat="46.99987" lon="8.87005">
        <ele>1541</ele>
        <time>2021-08-03T11:19:08.970Z</time>
      </trkpt>
      <trkpt lat="46.99986" lon="8.87003">
        <ele>1541</ele>
        <time>2021-08-03T11:19:09.970Z</time>
      </trkpt>
      <trkpt lat="46.99985" lon="8.87003">
        <ele>1541</ele>
        <time>2021-08-03T11:19:10.970Z</time>
      </trkpt>
      <trkpt lat="46.99984" lon="8.87002">
        <ele>1540</ele>
        <time>2021-08-03T11:19:11.970Z</time>
      </trkpt>
      <trkpt lat="46.99984" lon="8.87001">
        <ele>1540</ele>
        <time>2021-08-03T11:19:12.971Z</time>
      </trkpt>
      <trkpt lat="46.99983" lon="8.86999">
        <ele>1540</ele>
        <time>2021-08-03T11:19:13.970Z</time>
      </trkpt>
      <trkpt lat="46.99982" lon="8.86998">
        <ele>1539</ele>
        <time>2021-08-03T11:19:14.970Z</time>
      </trkpt>
      <trkpt lat="46.99981" lon="8.86997">
        <ele>1539</ele>
        <time>2021-08-03T11:19:15.970Z</time>
      </trkpt>
      <trkpt lat="46.9998" lon="8.86996">
        <ele>1538</ele>
        <time>2021-08-03T11:19:16.970Z</time>
      </trkpt>
      <trkpt lat="46.9998" lon="8.86994">
        <ele>1538</ele>
        <time>2021-08-03T11:19:17.970Z</time>
      </trkpt>
      <trkpt lat="46.99979" lon="8.86993">
        <ele>1537</ele>
        <time>2021-08-03T11:19:18.970Z</time>
      </trkpt>
      <trkpt lat="46.99978" lon="8.86992">
        <ele>1537</ele>
        <time>2021-08-03T11:19:19.971Z</time>
      </trkpt>
      <trkpt lat="46.99977" lon="8.86991">
        <ele>1537</ele>
        <time>2021-08-03T11:19:20.970Z</time>
      </trkpt>
      <trkpt lat="46.99976" lon="8.8699">
        <ele>1537</ele>
        <time>2021-08-03T11:19:21.970Z</time>
      </trkpt>
      <trkpt lat="46.99976" lon="8.86989">
        <ele>1538</ele>
        <time>2021-08-03T11:19:22.970Z</time>
      </trkpt>
      <trkpt lat="46.99975" lon="8.86988">
        <ele>1538</ele>
        <time>2021-08-03T11:19:23.970Z</time>
      </trkpt>
      <trkpt lat="46.99974" lon="8.86986">
        <ele>1538</ele>
        <time>2021-08-03T11:19:24.970Z</time>
      </trkpt>
      <trkpt lat="46.99973" lon="8.86985">
        <ele>1539</ele>
        <time>2021-08-03T11:19:25.970Z</time>
      </trkpt>
      <trkpt lat="46.99972" lon="8.86984">
        <ele>1539</ele>
        <time>2021-08-03T11:19:26.970Z</time>
      </trkpt>
      <trkpt lat="46.99971" lon="8.86984">
        <ele>1540</ele>
        <time>2021-08-03T11:19:27.971Z</time>
      </trkpt>
      <trkpt lat="46.99971" lon="8.86982">
        <ele>1540</ele>
        <time>2021-08-03T11:19:30.935Z</time>
      </trkpt>
      <trkpt lat="46.9997" lon="8.86981">
        <ele>1540</ele>
        <time>2021-08-03T11:19:31.935Z</time>
      </trkpt>
      <trkpt lat="46.99969" lon="8.8698">
        <ele>1540</ele>
        <time>2021-08-03T11:19:32.936Z</time>
      </trkpt>
      <trkpt lat="46.99968" lon="8.86979">
        <ele>1540</ele>
        <time>2021-08-03T11:19:33.935Z</time>
      </trkpt>
      <trkpt lat="46.99967" lon="8.86977">
        <ele>1540</ele>
        <time>2021-08-03T11:19:34.935Z</time>
      </trkpt>
      <trkpt lat="46.99966" lon="8.86976">
        <ele>1540</ele>
        <time>2021-08-03T11:19:40.988Z</time>
      </trkpt>
      <trkpt lat="46.99965" lon="8.86974">
        <ele>1540</ele>
        <time>2021-08-03T11:19:41.988Z</time>
      </trkpt>
      <trkpt lat="46.99965" lon="8.86973">
        <ele>1540</ele>
        <time>2021-08-03T11:19:42.988Z</time>
      </trkpt>
      <trkpt lat="46.99964" lon="8.86971">
        <ele>1540</ele>
        <time>2021-08-03T11:19:43.988Z</time>
      </trkpt>
      <trkpt lat="46.99963" lon="8.8697">
        <ele>1540</ele>
        <time>2021-08-03T11:19:49.078Z</time>
      </trkpt>
      <trkpt lat="46.99962" lon="8.86969">
        <ele>1540</ele>
        <time>2021-08-03T11:19:50.078Z</time>
      </trkpt>
      <trkpt lat="46.99961" lon="8.86968">
        <ele>1540</ele>
        <time>2021-08-03T11:19:51.078Z</time>
      </trkpt>
      <trkpt lat="46.99961" lon="8.86967">
        <ele>1540</ele>
        <time>2021-08-03T11:19:52.078Z</time>
      </trkpt>
      <trkpt lat="46.9996" lon="8.86966">
        <ele>1540</ele>
        <time>2021-08-03T11:19:53.078Z</time>
      </trkpt>
      <trkpt lat="46.99959" lon="8.86965">
        <ele>1540</ele>
        <time>2021-08-03T11:19:54.078Z</time>
      </trkpt>
      <trkpt lat="46.99958" lon="8.86964">
        <ele>1541</ele>
        <time>2021-08-03T11:19:58.245Z</time>
      </trkpt>
      <trkpt lat="46.99957" lon="8.86963">
        <ele>1541</ele>
        <time>2021-08-03T11:19:59.245Z</time>
      </trkpt>
      <trkpt lat="46.99956" lon="8.86962">
        <ele>1540</ele>
        <time>2021-08-03T11:20:00.246Z</time>
      </trkpt>
      <trkpt lat="46.99955" lon="8.86961">
        <ele>1540</ele>
        <time>2021-08-03T11:20:01.245Z</time>
      </trkpt>
      <trkpt lat="46.99954" lon="8.8696">
        <ele>1540</ele>
        <time>2021-08-03T11:20:08.949Z</time>
      </trkpt>
      <trkpt lat="46.99953" lon="8.86958">
        <ele>1540</ele>
        <time>2021-08-03T11:20:09.949Z</time>
      </trkpt>
      <trkpt lat="46.99952" lon="8.86957">
        <ele>1540</ele>
        <time>2021-08-03T11:20:10.949Z</time>
      </trkpt>
      <trkpt lat="46.99951" lon="8.86957">
        <ele>1540</ele>
        <time>2021-08-03T11:20:11.949Z</time>
      </trkpt>
      <trkpt lat="46.9995" lon="8.86956">
        <ele>1541</ele>
        <time>2021-08-03T11:20:14.080Z</time>
      </trkpt>
      <trkpt lat="46.99949" lon="8.86955">
        <ele>1541</ele>
        <time>2021-08-03T11:20:15.080Z</time>
      </trkpt>
      <trkpt lat="46.99948" lon="8.86955">
        <ele>1542</ele>
        <time>2021-08-03T11:20:16.080Z</time>
      </trkpt>
      <trkpt lat="46.99947" lon="8.86954">
        <ele>1543</ele>
        <time>2021-08-03T11:20:17.080Z</time>
      </trkpt>
      <trkpt lat="46.99946" lon="8.86954">
        <ele>1544</ele>
        <time>2021-08-03T11:20:18.080Z</time>
      </trkpt>
      <trkpt lat="46.99945" lon="8.86953">
        <ele>1544</ele>
        <time>2021-08-03T11:20:19.080Z</time>
      </trkpt>
      <trkpt lat="46.99944" lon="8.86952">
        <ele>1545</ele>
        <time>2021-08-03T11:20:20.080Z</time>
      </trkpt>
      <trkpt lat="46.99943" lon="8.86952">
        <ele>1545</ele>
        <time>2021-08-03T11:20:21.080Z</time>
      </trkpt>
      <trkpt lat="46.99941" lon="8.8695">
        <ele>1545</ele>
        <time>2021-08-03T11:20:22.080Z</time>
      </trkpt>
      <trkpt lat="46.9994" lon="8.86949">
        <ele>1545</ele>
        <time>2021-08-03T11:20:23.081Z</time>
      </trkpt>
      <trkpt lat="46.99939" lon="8.86949">
        <ele>1546</ele>
        <time>2021-08-03T11:20:24.080Z</time>
      </trkpt>
      <trkpt lat="46.99938" lon="8.86949">
        <ele>1546</ele>
        <time>2021-08-03T11:20:25.080Z</time>
      </trkpt>
      <trkpt lat="46.99937" lon="8.86948">
        <ele>1546</ele>
        <time>2021-08-03T11:20:26.080Z</time>
      </trkpt>
      <trkpt lat="46.99936" lon="8.86947">
        <ele>1546</ele>
        <time>2021-08-03T11:20:27.081Z</time>
      </trkpt>
      <trkpt lat="46.99935" lon="8.86947">
        <ele>1546</ele>
        <time>2021-08-03T11:20:28.080Z</time>
      </trkpt>
      <trkpt lat="46.99934" lon="8.86947">
        <ele>1546</ele>
        <time>2021-08-03T11:20:29.080Z</time>
      </trkpt>
      <trkpt lat="46.99933" lon="8.86947">
        <ele>1545</ele>
        <time>2021-08-03T11:20:30.080Z</time>
      </trkpt>
      <trkpt lat="46.99932" lon="8.86946">
        <ele>1546</ele>
        <time>2021-08-03T11:20:31.080Z</time>
      </trkpt>
      <trkpt lat="46.99931" lon="8.86946">
        <ele>1546</ele>
        <time>2021-08-03T11:20:32.835Z</time>
      </trkpt>
      <trkpt lat="46.99929" lon="8.86946">
        <ele>1546</ele>
        <time>2021-08-03T11:20:33.835Z</time>
      </trkpt>
      <trkpt lat="46.99928" lon="8.86945">
        <ele>1546</ele>
        <time>2021-08-03T11:20:34.835Z</time>
      </trkpt>
      <trkpt lat="46.99926" lon="8.86945">
        <ele>1546</ele>
        <time>2021-08-03T11:20:35.835Z</time>
      </trkpt>
      <trkpt lat="46.99925" lon="8.86945">
        <ele>1546</ele>
        <time>2021-08-03T11:20:36.835Z</time>
      </trkpt>
      <trkpt lat="46.99924" lon="8.86945">
        <ele>1547</ele>
        <time>2021-08-03T11:20:37.835Z</time>
      </trkpt>
      <trkpt lat="46.99923" lon="8.86946">
        <ele>1547</ele>
        <time>2021-08-03T11:20:38.835Z</time>
      </trkpt>
      <trkpt lat="46.99922" lon="8.86946">
        <ele>1546</ele>
        <time>2021-08-03T11:20:39.835Z</time>
      </trkpt>
      <trkpt lat="46.99921" lon="8.86947">
        <ele>1546</ele>
        <time>2021-08-03T11:20:40.836Z</time>
      </trkpt>
      <trkpt lat="46.9992" lon="8.86947">
        <ele>1546</ele>
        <time>2021-08-03T11:20:41.835Z</time>
      </trkpt>
      <trkpt lat="46.99919" lon="8.86947">
        <ele>1545</ele>
        <time>2021-08-03T11:20:42.835Z</time>
      </trkpt>
      <trkpt lat="46.99918" lon="8.86947">
        <ele>1544</ele>
        <time>2021-08-03T11:20:43.835Z</time>
      </trkpt>
      <trkpt lat="46.99917" lon="8.86947">
        <ele>1543</ele>
        <time>2021-08-03T11:20:44.835Z</time>
      </trkpt>
      <trkpt lat="46.99916" lon="8.86947">
        <ele>1542</ele>
        <time>2021-08-03T11:20:45.835Z</time>
      </trkpt>
      <trkpt lat="46.99915" lon="8.86946">
        <ele>1542</ele>
        <time>2021-08-03T11:20:46.835Z</time>
      </trkpt>
      <trkpt lat="46.99915" lon="8.86946">
        <ele>1542</ele>
        <time>2021-08-03T11:20:47.836Z</time>
      </trkpt>
      <trkpt lat="46.99914" lon="8.86946">
        <ele>1542</ele>
        <time>2021-08-03T11:20:48.835Z</time>
      </trkpt>
      <trkpt lat="46.99912" lon="8.86946">
        <ele>1542</ele>
        <time>2021-08-03T11:20:49.835Z</time>
      </trkpt>
      <trkpt lat="46.99911" lon="8.86945">
        <ele>1542</ele>
        <time>2021-08-03T11:20:50.835Z</time>
      </trkpt>
      <trkpt lat="46.9991" lon="8.86945">
        <ele>1542</ele>
        <time>2021-08-03T11:20:51.835Z</time>
      </trkpt>
      <trkpt lat="46.99909" lon="8.86944">
        <ele>1542</ele>
        <time>2021-08-03T11:20:52.836Z</time>
      </trkpt>
      <trkpt lat="46.99908" lon="8.86944">
        <ele>1542</ele>
        <time>2021-08-03T11:20:53.835Z</time>
      </trkpt>
      <trkpt lat="46.99907" lon="8.86944">
        <ele>1542</ele>
        <time>2021-08-03T11:20:54.835Z</time>
      </trkpt>
      <trkpt lat="46.99906" lon="8.86945">
        <ele>1542</ele>
        <time>2021-08-03T11:20:55.835Z</time>
      </trkpt>
      <trkpt lat="46.99906" lon="8.86945">
        <ele>1542</ele>
        <time>2021-08-03T11:20:56.835Z</time>
      </trkpt>
      <trkpt lat="46.99906" lon="8.86945">
        <ele>1543</ele>
        <time>2021-08-03T11:20:57.835Z</time>
      </trkpt>
      <trkpt lat="46.99905" lon="8.86943">
        <ele>1547</ele>
        <time>2021-08-03T11:20:58.837Z</time>
      </trkpt>
      <trkpt lat="46.99905" lon="8.86942">
        <ele>1547</ele>
        <time>2021-08-03T11:20:59.836Z</time>
      </trkpt>
      <trkpt lat="46.99905" lon="8.86941">
        <ele>1546</ele>
        <time>2021-08-03T11:21:00.836Z</time>
      </trkpt>
      <trkpt lat="46.99905" lon="8.8694">
        <ele>1542</ele>
        <time>2021-08-03T11:21:01.838Z</time>
      </trkpt>
      <trkpt lat="46.99906" lon="8.86939">
        <ele>1541</ele>
        <time>2021-08-03T11:21:02.837Z</time>
      </trkpt>
      <trkpt lat="46.99907" lon="8.86938">
        <ele>1541</ele>
        <time>2021-08-03T11:21:03.837Z</time>
      </trkpt>
      <trkpt lat="46.99907" lon="8.86937">
        <ele>1540</ele>
        <time>2021-08-03T11:21:09.823Z</time>
      </trkpt>
      <trkpt lat="46.99907" lon="8.86936">
        <ele>1540</ele>
        <time>2021-08-03T11:21:10.824Z</time>
      </trkpt>
      <trkpt lat="46.99907" lon="8.86935">
        <ele>1539</ele>
        <time>2021-08-03T11:21:11.824Z</time>
      </trkpt>
      <trkpt lat="46.99907" lon="8.86933">
        <ele>1539</ele>
        <time>2021-08-03T11:21:12.823Z</time>
      </trkpt>
      <trkpt lat="46.99907" lon="8.86931">
        <ele>1538</ele>
        <time>2021-08-03T11:21:13.823Z</time>
      </trkpt>
      <trkpt lat="46.99906" lon="8.86929">
        <ele>1538</ele>
        <time>2021-08-03T11:21:14.823Z</time>
      </trkpt>
      <trkpt lat="46.99906" lon="8.86928">
        <ele>1537</ele>
        <time>2021-08-03T11:21:15.824Z</time>
      </trkpt>
      <trkpt lat="46.99905" lon="8.86927">
        <ele>1536</ele>
        <time>2021-08-03T11:21:16.823Z</time>
      </trkpt>
      <trkpt lat="46.99904" lon="8.86926">
        <ele>1535</ele>
        <time>2021-08-03T11:21:17.823Z</time>
      </trkpt>
      <trkpt lat="46.99903" lon="8.86926">
        <ele>1535</ele>
        <time>2021-08-03T11:21:18.823Z</time>
      </trkpt>
      <trkpt lat="46.99903" lon="8.86925">
        <ele>1535</ele>
        <time>2021-08-03T11:21:19.823Z</time>
      </trkpt>
      <trkpt lat="46.99901" lon="8.86924">
        <ele>1535</ele>
        <time>2021-08-03T11:21:20.824Z</time>
      </trkpt>
      <trkpt lat="46.999" lon="8.86923">
        <ele>1535</ele>
        <time>2021-08-03T11:21:23.828Z</time>
      </trkpt>
      <trkpt lat="46.999" lon="8.86922">
        <ele>1535</ele>
        <time>2021-08-03T11:21:24.828Z</time>
      </trkpt>
      <trkpt lat="46.99899" lon="8.8692">
        <ele>1535</ele>
        <time>2021-08-03T11:21:25.828Z</time>
      </trkpt>
      <trkpt lat="46.99898" lon="8.86919">
        <ele>1535</ele>
        <time>2021-08-03T11:21:26.828Z</time>
      </trkpt>
      <trkpt lat="46.99897" lon="8.86917">
        <ele>1536</ele>
        <time>2021-08-03T11:21:27.829Z</time>
      </trkpt>
      <trkpt lat="46.99896" lon="8.86916">
        <ele>1536</ele>
        <time>2021-08-03T11:21:51.834Z</time>
      </trkpt>
      <trkpt lat="46.99895" lon="8.86915">
        <ele>1536</ele>
        <time>2021-08-03T11:21:52.834Z</time>
      </trkpt>
      <trkpt lat="46.99895" lon="8.86913">
        <ele>1536</ele>
        <time>2021-08-03T11:21:56.736Z</time>
      </trkpt>
      <trkpt lat="46.99894" lon="8.86912">
        <ele>1536</ele>
        <time>2021-08-03T11:21:57.737Z</time>
      </trkpt>
      <trkpt lat="46.99893" lon="8.86911">
        <ele>1536</ele>
        <time>2021-08-03T11:21:58.736Z</time>
      </trkpt>
      <trkpt lat="46.99893" lon="8.86909">
        <ele>1535</ele>
        <time>2021-08-03T11:21:59.736Z</time>
      </trkpt>
      <trkpt lat="46.99892" lon="8.86908">
        <ele>1535</ele>
        <time>2021-08-03T11:22:00.736Z</time>
      </trkpt>
      <trkpt lat="46.99891" lon="8.86907">
        <ele>1535</ele>
        <time>2021-08-03T11:22:01.736Z</time>
      </trkpt>
      <trkpt lat="46.99891" lon="8.86905">
        <ele>1536</ele>
        <time>2021-08-03T11:22:08.864Z</time>
      </trkpt>
      <trkpt lat="46.9989" lon="8.86903">
        <ele>1536</ele>
        <time>2021-08-03T11:22:09.864Z</time>
      </trkpt>
      <trkpt lat="46.99889" lon="8.86902">
        <ele>1536</ele>
        <time>2021-08-03T11:22:10.864Z</time>
      </trkpt>
      <trkpt lat="46.99889" lon="8.869">
        <ele>1537</ele>
        <time>2021-08-03T11:22:11.864Z</time>
      </trkpt>
      <trkpt lat="46.99888" lon="8.86899">
        <ele>1537</ele>
        <time>2021-08-03T11:22:12.864Z</time>
      </trkpt>
      <trkpt lat="46.99888" lon="8.86897">
        <ele>1537</ele>
        <time>2021-08-03T11:22:13.864Z</time>
      </trkpt>
      <trkpt lat="46.99887" lon="8.86896">
        <ele>1537</ele>
        <time>2021-08-03T11:22:14.864Z</time>
      </trkpt>
      <trkpt lat="46.99886" lon="8.86894">
        <ele>1537</ele>
        <time>2021-08-03T11:22:15.864Z</time>
      </trkpt>
      <trkpt lat="46.99885" lon="8.86893">
        <ele>1537</ele>
        <time>2021-08-03T11:22:16.864Z</time>
      </trkpt>
      <trkpt lat="46.99885" lon="8.86891">
        <ele>1537</ele>
        <time>2021-08-03T11:22:17.864Z</time>
      </trkpt>
      <trkpt lat="46.99884" lon="8.8689">
        <ele>1537</ele>
        <time>2021-08-03T11:22:18.864Z</time>
      </trkpt>
      <trkpt lat="46.99883" lon="8.86888">
        <ele>1537</ele>
        <time>2021-08-03T11:22:19.864Z</time>
      </trkpt>
      <trkpt lat="46.99882" lon="8.86887">
        <ele>1537</ele>
        <time>2021-08-03T11:22:20.864Z</time>
      </trkpt>
      <trkpt lat="46.99881" lon="8.86886">
        <ele>1537</ele>
        <time>2021-08-03T11:22:21.864Z</time>
      </trkpt>
      <trkpt lat="46.99881" lon="8.86884">
        <ele>1536</ele>
        <time>2021-08-03T11:22:22.864Z</time>
      </trkpt>
      <trkpt lat="46.9988" lon="8.86883">
        <ele>1537</ele>
        <time>2021-08-03T11:22:23.865Z</time>
      </trkpt>
      <trkpt lat="46.9988" lon="8.86881">
        <ele>1537</ele>
        <time>2021-08-03T11:22:24.865Z</time>
      </trkpt>
      <trkpt lat="46.99879" lon="8.8688">
        <ele>1537</ele>
        <time>2021-08-03T11:22:25.864Z</time>
      </trkpt>
      <trkpt lat="46.99878" lon="8.86879">
        <ele>1537</ele>
        <time>2021-08-03T11:22:26.864Z</time>
      </trkpt>
      <trkpt lat="46.99877" lon="8.86878">
        <ele>1538</ele>
        <time>2021-08-03T11:22:27.864Z</time>
      </trkpt>
      <trkpt lat="46.99877" lon="8.86876">
        <ele>1538</ele>
        <time>2021-08-03T11:22:28.864Z</time>
      </trkpt>
      <trkpt lat="46.99876" lon="8.86875">
        <ele>1538</ele>
        <time>2021-08-03T11:22:29.864Z</time>
      </trkpt>
      <trkpt lat="46.99875" lon="8.86873">
        <ele>1538</ele>
        <time>2021-08-03T11:22:30.864Z</time>
      </trkpt>
      <trkpt lat="46.99874" lon="8.86872">
        <ele>1537</ele>
        <time>2021-08-03T11:22:31.864Z</time>
      </trkpt>
      <trkpt lat="46.99873" lon="8.8687">
        <ele>1537</ele>
        <time>2021-08-03T11:22:32.864Z</time>
      </trkpt>
      <trkpt lat="46.99872" lon="8.86869">
        <ele>1537</ele>
        <time>2021-08-03T11:22:33.864Z</time>
      </trkpt>
      <trkpt lat="46.99871" lon="8.86868">
        <ele>1537</ele>
        <time>2021-08-03T11:22:34.864Z</time>
      </trkpt>
      <trkpt lat="46.99871" lon="8.86867">
        <ele>1537</ele>
        <time>2021-08-03T11:22:35.864Z</time>
      </trkpt>
      <trkpt lat="46.9987" lon="8.86865">
        <ele>1537</ele>
        <time>2021-08-03T11:22:36.865Z</time>
      </trkpt>
      <trkpt lat="46.99869" lon="8.86864">
        <ele>1537</ele>
        <time>2021-08-03T11:22:37.864Z</time>
      </trkpt>
      <trkpt lat="46.99868" lon="8.86863">
        <ele>1538</ele>
        <time>2021-08-03T11:22:38.864Z</time>
      </trkpt>
      <trkpt lat="46.99867" lon="8.86862">
        <ele>1538</ele>
        <time>2021-08-03T11:22:39.864Z</time>
      </trkpt>
      <trkpt lat="46.99865" lon="8.86861">
        <ele>1538</ele>
        <time>2021-08-03T11:22:46.984Z</time>
      </trkpt>
      <trkpt lat="46.99864" lon="8.8686">
        <ele>1539</ele>
        <time>2021-08-03T11:22:47.984Z</time>
      </trkpt>
      <trkpt lat="46.99863" lon="8.86859">
        <ele>1539</ele>
        <time>2021-08-03T11:22:55.837Z</time>
      </trkpt>
      <trkpt lat="46.99862" lon="8.86858">
        <ele>1539</ele>
        <time>2021-08-03T11:22:56.837Z</time>
      </trkpt>
      <trkpt lat="46.99861" lon="8.86857">
        <ele>1539</ele>
        <time>2021-08-03T11:22:57.837Z</time>
      </trkpt>
      <trkpt lat="46.9986" lon="8.86857">
        <ele>1539</ele>
        <time>2021-08-03T11:22:58.837Z</time>
      </trkpt>
      <trkpt lat="46.99859" lon="8.86856">
        <ele>1538</ele>
        <time>2021-08-03T11:22:59.837Z</time>
      </trkpt>
      <trkpt lat="46.99858" lon="8.86855">
        <ele>1538</ele>
        <time>2021-08-03T11:23:00.837Z</time>
      </trkpt>
      <trkpt lat="46.99857" lon="8.86855">
        <ele>1538</ele>
        <time>2021-08-03T11:23:01.838Z</time>
      </trkpt>
      <trkpt lat="46.99856" lon="8.86854">
        <ele>1538</ele>
        <time>2021-08-03T11:23:02.837Z</time>
      </trkpt>
      <trkpt lat="46.99855" lon="8.86853">
        <ele>1538</ele>
        <time>2021-08-03T11:23:03.837Z</time>
      </trkpt>
      <trkpt lat="46.99854" lon="8.86853">
        <ele>1538</ele>
        <time>2021-08-03T11:23:04.837Z</time>
      </trkpt>
      <trkpt lat="46.99853" lon="8.86853">
        <ele>1538</ele>
        <time>2021-08-03T11:23:05.838Z</time>
      </trkpt>
      <trkpt lat="46.99852" lon="8.86853">
        <ele>1538</ele>
        <time>2021-08-03T11:23:06.837Z</time>
      </trkpt>
      <trkpt lat="46.99851" lon="8.86853">
        <ele>1539</ele>
        <time>2021-08-03T11:23:07.837Z</time>
      </trkpt>
      <trkpt lat="46.9985" lon="8.86852">
        <ele>1539</ele>
        <time>2021-08-03T11:23:08.837Z</time>
      </trkpt>
      <trkpt lat="46.99848" lon="8.86852">
        <ele>1539</ele>
        <time>2021-08-03T11:23:09.837Z</time>
      </trkpt>
      <trkpt lat="46.99847" lon="8.86851">
        <ele>1539</ele>
        <time>2021-08-03T11:23:10.837Z</time>
      </trkpt>
      <trkpt lat="46.99846" lon="8.86851">
        <ele>1539</ele>
        <time>2021-08-03T11:23:11.837Z</time>
      </trkpt>
      <trkpt lat="46.99845" lon="8.8685">
        <ele>1540</ele>
        <time>2021-08-03T11:23:12.837Z</time>
      </trkpt>
      <trkpt lat="46.99844" lon="8.8685">
        <ele>1540</ele>
        <time>2021-08-03T11:23:13.838Z</time>
      </trkpt>
      <trkpt lat="46.99842" lon="8.8685">
        <ele>1541</ele>
        <time>2021-08-03T11:23:14.837Z</time>
      </trkpt>
      <trkpt lat="46.99841" lon="8.86849">
        <ele>1541</ele>
        <time>2021-08-03T11:23:15.837Z</time>
      </trkpt>
      <trkpt lat="46.9984" lon="8.86848">
        <ele>1541</ele>
        <time>2021-08-03T11:23:16.837Z</time>
      </trkpt>
      <trkpt lat="46.99838" lon="8.86848">
        <ele>1541</ele>
        <time>2021-08-03T11:23:17.837Z</time>
      </trkpt>
      <trkpt lat="46.99838" lon="8.86848">
        <ele>1541</ele>
        <time>2021-08-03T11:23:18.837Z</time>
      </trkpt>
      <trkpt lat="46.99837" lon="8.86847">
        <ele>1542</ele>
        <time>2021-08-03T11:23:19.837Z</time>
      </trkpt>
      <trkpt lat="46.99836" lon="8.86847">
        <ele>1542</ele>
        <time>2021-08-03T11:23:20.837Z</time>
      </trkpt>
      <trkpt lat="46.99835" lon="8.86847">
        <ele>1542</ele>
        <time>2021-08-03T11:23:21.837Z</time>
      </trkpt>
      <trkpt lat="46.99834" lon="8.86847">
        <ele>1542</ele>
        <time>2021-08-03T11:23:22.837Z</time>
      </trkpt>
      <trkpt lat="46.99833" lon="8.86847">
        <ele>1542</ele>
        <time>2021-08-03T11:23:23.837Z</time>
      </trkpt>
      <trkpt lat="46.99832" lon="8.86846">
        <ele>1542</ele>
        <time>2021-08-03T11:23:24.837Z</time>
      </trkpt>
      <trkpt lat="46.99831" lon="8.86846">
        <ele>1542</ele>
        <time>2021-08-03T11:23:25.837Z</time>
      </trkpt>
      <trkpt lat="46.99831" lon="8.86846">
        <ele>1542</ele>
        <time>2021-08-03T11:23:27.928Z</time>
      </trkpt>
      <trkpt lat="46.99833" lon="8.86846">
        <ele>1542</ele>
        <time>2021-08-03T11:23:28.928Z</time>
      </trkpt>
      <trkpt lat="46.99832" lon="8.86842">
        <ele>1539</ele>
        <time>2021-08-03T11:23:29.928Z</time>
      </trkpt>
      <trkpt lat="46.99832" lon="8.86842">
        <ele>1539</ele>
        <time>2021-08-03T11:23:30.928Z</time>
      </trkpt>
      <trkpt lat="46.99831" lon="8.86842">
        <ele>1539</ele>
        <time>2021-08-03T11:23:31.928Z</time>
      </trkpt>
      <trkpt lat="46.99831" lon="8.86842">
        <ele>1539</ele>
        <time>2021-08-03T11:23:32.928Z</time>
      </trkpt>
      <trkpt lat="46.9983" lon="8.86842">
        <ele>1539</ele>
        <time>2021-08-03T11:23:33.928Z</time>
      </trkpt>
      <trkpt lat="46.9983" lon="8.86842">
        <ele>1539</ele>
        <time>2021-08-03T11:23:34.928Z</time>
      </trkpt>
      <trkpt lat="46.9983" lon="8.86843">
        <ele>1539</ele>
        <time>2021-08-03T11:23:35.928Z</time>
      </trkpt>
      <trkpt lat="46.99832" lon="8.86844">
        <ele>1539</ele>
        <time>2021-08-03T11:23:36.928Z</time>
      </trkpt>
      <trkpt lat="46.99832" lon="8.86844">
        <ele>1539</ele>
        <time>2021-08-03T11:23:37.928Z</time>
      </trkpt>
      <trkpt lat="46.99832" lon="8.86844">
        <ele>1539</ele>
        <time>2021-08-03T11:23:38.929Z</time>
      </trkpt>
      <trkpt lat="46.99829" lon="8.8685">
        <ele>1543</ele>
        <time>2021-08-03T11:23:39.928Z</time>
      </trkpt>
      <trkpt lat="46.99829" lon="8.86849">
        <ele>1543</ele>
        <time>2021-08-03T11:23:40.929Z</time>
      </trkpt>
      <trkpt lat="46.99829" lon="8.86848">
        <ele>1543</ele>
        <time>2021-08-03T11:23:41.928Z</time>
      </trkpt>
      <trkpt lat="46.99829" lon="8.86848">
        <ele>1543</ele>
        <time>2021-08-03T11:23:42.928Z</time>
      </trkpt>
      <trkpt lat="46.99829" lon="8.86847">
        <ele>1543</ele>
        <time>2021-08-03T11:23:43.929Z</time>
      </trkpt>
      <trkpt lat="46.99831" lon="8.86848">
        <ele>1536</ele>
        <time>2021-08-03T11:23:44.930Z</time>
      </trkpt>
      <trkpt lat="46.99832" lon="8.86847">
        <ele>1536</ele>
        <time>2021-08-03T11:23:45.929Z</time>
      </trkpt>
      <trkpt lat="46.99832" lon="8.86847">
        <ele>1537</ele>
        <time>2021-08-03T11:23:46.929Z</time>
      </trkpt>
      <trkpt lat="46.99831" lon="8.86847">
        <ele>1537</ele>
        <time>2021-08-03T11:23:47.929Z</time>
      </trkpt>
      <trkpt lat="46.9983" lon="8.86849">
        <ele>1541</ele>
        <time>2021-08-03T11:23:48.931Z</time>
      </trkpt>
      <trkpt lat="46.9983" lon="8.86848">
        <ele>1541</ele>
        <time>2021-08-03T11:23:49.930Z</time>
      </trkpt>
      <trkpt lat="46.9983" lon="8.86848">
        <ele>1541</ele>
        <time>2021-08-03T11:23:50.931Z</time>
      </trkpt>
      <trkpt lat="46.99831" lon="8.8685">
        <ele>1540</ele>
        <time>2021-08-03T11:23:51.932Z</time>
      </trkpt>
      <trkpt lat="46.99831" lon="8.8685">
        <ele>1540</ele>
        <time>2021-08-03T11:23:52.932Z</time>
      </trkpt>
      <trkpt lat="46.99831" lon="8.8685">
        <ele>1541</ele>
        <time>2021-08-03T11:23:53.931Z</time>
      </trkpt>
      <trkpt lat="46.99832" lon="8.86849">
        <ele>1543</ele>
        <time>2021-08-03T11:23:54.931Z</time>
      </trkpt>
      <trkpt lat="46.99833" lon="8.86849">
        <ele>1544</ele>
        <time>2021-08-03T11:23:55.931Z</time>
      </trkpt>
      <trkpt lat="46.99832" lon="8.8685">
        <ele>1545</ele>
        <time>2021-08-03T11:23:56.931Z</time>
      </trkpt>
      <trkpt lat="46.99832" lon="8.8685">
        <ele>1545</ele>
        <time>2021-08-03T11:23:57.932Z</time>
      </trkpt>
      <trkpt lat="46.99832" lon="8.8685">
        <ele>1545</ele>
        <time>2021-08-03T11:23:58.931Z</time>
      </trkpt>
      <trkpt lat="46.9983" lon="8.86848">
        <ele>1544</ele>
        <time>2021-08-03T11:23:59.932Z</time>
      </trkpt>
      <trkpt lat="46.99829" lon="8.86848">
        <ele>1544</ele>
        <time>2021-08-03T11:24:00.931Z</time>
      </trkpt>
      <trkpt lat="46.99828" lon="8.86848">
        <ele>1545</ele>
        <time>2021-08-03T11:24:01.931Z</time>
      </trkpt>
      <trkpt lat="46.99827" lon="8.86848">
        <ele>1545</ele>
        <time>2021-08-03T11:24:02.932Z</time>
      </trkpt>
      <trkpt lat="46.99827" lon="8.86848">
        <ele>1544</ele>
        <time>2021-08-03T11:24:03.931Z</time>
      </trkpt>
      <trkpt lat="46.99827" lon="8.86848">
        <ele>1544</ele>
        <time>2021-08-03T11:24:04.932Z</time>
      </trkpt>
      <trkpt lat="46.99826" lon="8.86848">
        <ele>1544</ele>
        <time>2021-08-03T11:24:05.932Z</time>
      </trkpt>
      <trkpt lat="46.99827" lon="8.86848">
        <ele>1544</ele>
        <time>2021-08-03T11:24:06.931Z</time>
      </trkpt>
      <trkpt lat="46.99827" lon="8.86849">
        <ele>1544</ele>
        <time>2021-08-03T11:24:07.932Z</time>
      </trkpt>
      <trkpt lat="46.99828" lon="8.86848">
        <ele>1543</ele>
        <time>2021-08-03T11:24:08.931Z</time>
      </trkpt>
      <trkpt lat="46.99828" lon="8.86848">
        <ele>1543</ele>
        <time>2021-08-03T11:24:09.931Z</time>
      </trkpt>
      <trkpt lat="46.99828" lon="8.86848">
        <ele>1542</ele>
        <time>2021-08-03T11:24:10.931Z</time>
      </trkpt>
      <trkpt lat="46.99828" lon="8.8685">
        <ele>1539</ele>
        <time>2021-08-03T11:24:11.932Z</time>
      </trkpt>
      <trkpt lat="46.99828" lon="8.8685">
        <ele>1539</ele>
        <time>2021-08-03T11:24:12.931Z</time>
      </trkpt>
      <trkpt lat="46.99828" lon="8.8685">
        <ele>1540</ele>
        <time>2021-08-03T11:24:13.931Z</time>
      </trkpt>
      <trkpt lat="46.99829" lon="8.86851">
        <ele>1540</ele>
        <time>2021-08-03T11:24:14.932Z</time>
      </trkpt>
      <trkpt lat="46.99829" lon="8.86851">
        <ele>1541</ele>
        <time>2021-08-03T11:24:15.932Z</time>
      </trkpt>
      <trkpt lat="46.99828" lon="8.86852">
        <ele>1543</ele>
        <time>2021-08-03T11:24:16.931Z</time>
      </trkpt>
      <trkpt lat="46.99828" lon="8.86852">
        <ele>1544</ele>
        <time>2021-08-03T11:24:17.931Z</time>
      </trkpt>
      <trkpt lat="46.99828" lon="8.86852">
        <ele>1544</ele>
        <time>2021-08-03T11:24:18.931Z</time>
      </trkpt>
      <trkpt lat="46.99828" lon="8.86852">
        <ele>1543</ele>
        <time>2021-08-03T11:24:19.933Z</time>
      </trkpt>
      <trkpt lat="46.99829" lon="8.86851">
        <ele>1542</ele>
        <time>2021-08-03T11:24:20.933Z</time>
      </trkpt>
      <trkpt lat="46.99828" lon="8.86852">
        <ele>1543</ele>
        <time>2021-08-03T11:24:21.933Z</time>
      </trkpt>
      <trkpt lat="46.9983" lon="8.8685">
        <ele>1535</ele>
        <time>2021-08-03T11:24:22.933Z</time>
      </trkpt>
      <trkpt lat="46.9983" lon="8.86849">
        <ele>1534</ele>
        <time>2021-08-03T11:24:23.933Z</time>
      </trkpt>
      <trkpt lat="46.9983" lon="8.86849">
        <ele>1534</ele>
        <time>2021-08-03T11:24:24.932Z</time>
      </trkpt>
      <trkpt lat="46.99829" lon="8.86849">
        <ele>1533</ele>
        <time>2021-08-03T11:24:25.933Z</time>
      </trkpt>
      <trkpt lat="46.99828" lon="8.86849">
        <ele>1533</ele>
        <time>2021-08-03T11:24:26.932Z</time>
      </trkpt>
      <trkpt lat="46.99828" lon="8.86849">
        <ele>1533</ele>
        <time>2021-08-03T11:24:27.933Z</time>
      </trkpt>
      <trkpt lat="46.99827" lon="8.8685">
        <ele>1533</ele>
        <time>2021-08-03T11:24:28.932Z</time>
      </trkpt>
      <trkpt lat="46.99828" lon="8.8685">
        <ele>1533</ele>
        <time>2021-08-03T11:24:29.933Z</time>
      </trkpt>
      <trkpt lat="46.99828" lon="8.8685">
        <ele>1533</ele>
        <time>2021-08-03T11:24:30.933Z</time>
      </trkpt>
      <trkpt lat="46.99828" lon="8.86849">
        <ele>1532</ele>
        <time>2021-08-03T11:24:31.932Z</time>
      </trkpt>
      <trkpt lat="46.99828" lon="8.86849">
        <ele>1534</ele>
        <time>2021-08-03T11:24:32.935Z</time>
      </trkpt>
      <trkpt lat="46.99828" lon="8.86849">
        <ele>1535</ele>
        <time>2021-08-03T11:24:33.935Z</time>
      </trkpt>
      <trkpt lat="46.99827" lon="8.86851">
        <ele>1540</ele>
        <time>2021-08-03T11:24:34.934Z</time>
      </trkpt>
      <trkpt lat="46.99827" lon="8.8685">
        <ele>1540</ele>
        <time>2021-08-03T11:24:35.934Z</time>
      </trkpt>
      <trkpt lat="46.99827" lon="8.86851">
        <ele>1539</ele>
        <time>2021-08-03T11:24:36.935Z</time>
      </trkpt>
      <trkpt lat="46.99828" lon="8.86851">
        <ele>1539</ele>
        <time>2021-08-03T11:24:37.935Z</time>
      </trkpt>
      <trkpt lat="46.99828" lon="8.8685">
        <ele>1540</ele>
        <time>2021-08-03T11:24:39.989Z</time>
      </trkpt>
      <trkpt lat="46.99828" lon="8.8685">
        <ele>1540</ele>
        <time>2021-08-03T11:24:40.989Z</time>
      </trkpt>
      <trkpt lat="46.99827" lon="8.86849">
        <ele>1542</ele>
        <time>2021-08-03T11:24:41.990Z</time>
      </trkpt>
      <trkpt lat="46.99827" lon="8.86849">
        <ele>1543</ele>
        <time>2021-08-03T11:24:42.990Z</time>
      </trkpt>
      <trkpt lat="46.99827" lon="8.8685">
        <ele>1543</ele>
        <time>2021-08-03T11:24:43.990Z</time>
      </trkpt>
      <trkpt lat="46.9983" lon="8.86849">
        <ele>1544</ele>
        <time>2021-08-03T11:24:44.991Z</time>
      </trkpt>
      <trkpt lat="46.99829" lon="8.8685">
        <ele>1545</ele>
        <time>2021-08-03T11:24:45.990Z</time>
      </trkpt>
      <trkpt lat="46.99829" lon="8.86849">
        <ele>1544</ele>
        <time>2021-08-03T11:24:46.991Z</time>
      </trkpt>
      <trkpt lat="46.99828" lon="8.86849">
        <ele>1544</ele>
        <time>2021-08-03T11:24:47.990Z</time>
      </trkpt>
      <trkpt lat="46.99828" lon="8.8685">
        <ele>1543</ele>
        <time>2021-08-03T11:24:48.990Z</time>
      </trkpt>
      <trkpt lat="46.99828" lon="8.8685">
        <ele>1543</ele>
        <time>2021-08-03T11:24:49.990Z</time>
      </trkpt>
      <trkpt lat="46.99828" lon="8.86851">
        <ele>1543</ele>
        <time>2021-08-03T11:24:50.991Z</time>
      </trkpt>
      <trkpt lat="46.99828" lon="8.86851">
        <ele>1542</ele>
        <time>2021-08-03T11:24:51.991Z</time>
      </trkpt>
      <trkpt lat="46.99827" lon="8.86852">
        <ele>1543</ele>
        <time>2021-08-03T11:24:52.991Z</time>
      </trkpt>
      <trkpt lat="46.99827" lon="8.86852">
        <ele>1543</ele>
        <time>2021-08-03T11:24:53.990Z</time>
      </trkpt>
      <trkpt lat="46.99827" lon="8.86852">
        <ele>1543</ele>
        <time>2021-08-03T11:24:54.990Z</time>
      </trkpt>
      <trkpt lat="46.99828" lon="8.86846">
        <ele>1549</ele>
        <time>2021-08-03T11:24:55.991Z</time>
      </trkpt>
      <trkpt lat="46.99828" lon="8.86846">
        <ele>1549</ele>
        <time>2021-08-03T11:24:56.992Z</time>
      </trkpt>
      <trkpt lat="46.99827" lon="8.86846">
        <ele>1549</ele>
        <time>2021-08-03T11:24:57.991Z</time>
      </trkpt>
      <trkpt lat="46.99828" lon="8.86843">
        <ele>1549</ele>
        <time>2021-08-03T11:24:58.992Z</time>
      </trkpt>
      <trkpt lat="46.99827" lon="8.86844">
        <ele>1549</ele>
        <time>2021-08-03T11:24:59.993Z</time>
      </trkpt>
      <trkpt lat="46.99827" lon="8.86844">
        <ele>1549</ele>
        <time>2021-08-03T11:25:00.992Z</time>
      </trkpt>
      <trkpt lat="46.99827" lon="8.86843">
        <ele>1549</ele>
        <time>2021-08-03T11:25:01.993Z</time>
      </trkpt>
      <trkpt lat="46.99827" lon="8.86843">
        <ele>1546</ele>
        <time>2021-08-03T11:25:02.993Z</time>
      </trkpt>
      <trkpt lat="46.99827" lon="8.86843">
        <ele>1546</ele>
        <time>2021-08-03T11:25:03.993Z</time>
      </trkpt>
      <trkpt lat="46.99828" lon="8.86844">
        <ele>1546</ele>
        <time>2021-08-03T11:25:04.993Z</time>
      </trkpt>
      <trkpt lat="46.99828" lon="8.86844">
        <ele>1546</ele>
        <time>2021-08-03T11:25:05.992Z</time>
      </trkpt>
      <trkpt lat="46.99827" lon="8.86844">
        <ele>1547</ele>
        <time>2021-08-03T11:25:08.085Z</time>
      </trkpt>
      <trkpt lat="46.99827" lon="8.86841">
        <ele>1550</ele>
        <time>2021-08-03T11:25:09.086Z</time>
      </trkpt>
      <trkpt lat="46.99826" lon="8.86841">
        <ele>1550</ele>
        <time>2021-08-03T11:25:10.086Z</time>
      </trkpt>
      <trkpt lat="46.99826" lon="8.86841">
        <ele>1550</ele>
        <time>2021-08-03T11:25:11.086Z</time>
      </trkpt>
      <trkpt lat="46.99826" lon="8.86841">
        <ele>1550</ele>
        <time>2021-08-03T11:25:12.086Z</time>
      </trkpt>
      <trkpt lat="46.99826" lon="8.86843">
        <ele>1550</ele>
        <time>2021-08-03T11:25:14.226Z</time>
      </trkpt>
      <trkpt lat="46.99825" lon="8.86843">
        <ele>1550</ele>
        <time>2021-08-03T11:25:15.227Z</time>
      </trkpt>
      <trkpt lat="46.99825" lon="8.86843">
        <ele>1549</ele>
        <time>2021-08-03T11:25:16.227Z</time>
      </trkpt>
      <trkpt lat="46.99825" lon="8.86842">
        <ele>1549</ele>
        <time>2021-08-03T11:25:17.226Z</time>
      </trkpt>
      <trkpt lat="46.99825" lon="8.86842">
        <ele>1549</ele>
        <time>2021-08-03T11:25:18.227Z</time>
      </trkpt>
      <trkpt lat="46.99824" lon="8.86842">
        <ele>1549</ele>
        <time>2021-08-03T11:25:19.227Z</time>
      </trkpt>
      <trkpt lat="46.99824" lon="8.86843">
        <ele>1549</ele>
        <time>2021-08-03T11:25:20.226Z</time>
      </trkpt>
      <trkpt lat="46.99824" lon="8.86844">
        <ele>1549</ele>
        <time>2021-08-03T11:25:22.310Z</time>
      </trkpt>
      <trkpt lat="46.99824" lon="8.86844">
        <ele>1550</ele>
        <time>2021-08-03T11:25:23.310Z</time>
      </trkpt>
      <trkpt lat="46.99825" lon="8.86843">
        <ele>1550</ele>
        <time>2021-08-03T11:25:24.310Z</time>
      </trkpt>
      <trkpt lat="46.99825" lon="8.86843">
        <ele>1551</ele>
        <time>2021-08-03T11:25:25.310Z</time>
      </trkpt>
      <trkpt lat="46.99825" lon="8.86842">
        <ele>1552</ele>
        <time>2021-08-03T11:25:26.311Z</time>
      </trkpt>
      <trkpt lat="46.99826" lon="8.86843">
        <ele>1552</ele>
        <time>2021-08-03T11:25:27.310Z</time>
      </trkpt>
      <trkpt lat="46.99826" lon="8.86843">
        <ele>1551</ele>
        <time>2021-08-03T11:25:28.311Z</time>
      </trkpt>
      <trkpt lat="46.99826" lon="8.86842">
        <ele>1551</ele>
        <time>2021-08-03T11:25:29.310Z</time>
      </trkpt>
      <trkpt lat="46.99826" lon="8.86842">
        <ele>1550</ele>
        <time>2021-08-03T11:25:30.310Z</time>
      </trkpt>
      <trkpt lat="46.99826" lon="8.86842">
        <ele>1550</ele>
        <time>2021-08-03T11:25:31.310Z</time>
      </trkpt>
      <trkpt lat="46.99827" lon="8.86841">
        <ele>1548</ele>
        <time>2021-08-03T11:25:32.313Z</time>
      </trkpt>
      <trkpt lat="46.99827" lon="8.86841">
        <ele>1547</ele>
        <time>2021-08-03T11:25:33.313Z</time>
      </trkpt>
      <trkpt lat="46.99826" lon="8.86841">
        <ele>1547</ele>
        <time>2021-08-03T11:25:34.313Z</time>
      </trkpt>
      <trkpt lat="46.99826" lon="8.86841">
        <ele>1547</ele>
        <time>2021-08-03T11:25:35.312Z</time>
      </trkpt>
      <trkpt lat="46.99825" lon="8.8684">
        <ele>1548</ele>
        <time>2021-08-03T11:25:36.312Z</time>
      </trkpt>
      <trkpt lat="46.99825" lon="8.86843">
        <ele>1551</ele>
        <time>2021-08-03T11:25:37.313Z</time>
      </trkpt>
      <trkpt lat="46.99825" lon="8.86842">
        <ele>1551</ele>
        <time>2021-08-03T11:25:38.314Z</time>
      </trkpt>
      <trkpt lat="46.99825" lon="8.86842">
        <ele>1551</ele>
        <time>2021-08-03T11:25:39.313Z</time>
      </trkpt>
      <trkpt lat="46.99825" lon="8.86847">
        <ele>1545</ele>
        <time>2021-08-03T11:25:40.314Z</time>
      </trkpt>
      <trkpt lat="46.99825" lon="8.86848">
        <ele>1544</ele>
        <time>2021-08-03T11:25:41.314Z</time>
      </trkpt>
      <trkpt lat="46.99825" lon="8.86849">
        <ele>1544</ele>
        <time>2021-08-03T11:25:42.313Z</time>
      </trkpt>
      <trkpt lat="46.99825" lon="8.86849">
        <ele>1543</ele>
        <time>2021-08-03T11:25:43.313Z</time>
      </trkpt>
      <trkpt lat="46.99825" lon="8.86844">
        <ele>1544</ele>
        <time>2021-08-03T11:25:44.314Z</time>
      </trkpt>
      <trkpt lat="46.99825" lon="8.86843">
        <ele>1544</ele>
        <time>2021-08-03T11:25:45.314Z</time>
      </trkpt>
      <trkpt lat="46.99825" lon="8.86843">
        <ele>1545</ele>
        <time>2021-08-03T11:25:46.313Z</time>
      </trkpt>
      <trkpt lat="46.99825" lon="8.86844">
        <ele>1546</ele>
        <time>2021-08-03T11:25:47.314Z</time>
      </trkpt>
      <trkpt lat="46.99824" lon="8.86843">
        <ele>1547</ele>
        <time>2021-08-03T11:25:48.313Z</time>
      </trkpt>
      <trkpt lat="46.99824" lon="8.86848">
        <ele>1551</ele>
        <time>2021-08-03T11:25:49.314Z</time>
      </trkpt>
      <trkpt lat="46.99823" lon="8.86847">
        <ele>1552</ele>
        <time>2021-08-03T11:25:50.313Z</time>
      </trkpt>
      <trkpt lat="46.99823" lon="8.86847">
        <ele>1552</ele>
        <time>2021-08-03T11:25:51.314Z</time>
      </trkpt>
      <trkpt lat="46.99822" lon="8.86848">
        <ele>1556</ele>
        <time>2021-08-03T11:25:52.314Z</time>
      </trkpt>
      <trkpt lat="46.99822" lon="8.86849">
        <ele>1556</ele>
        <time>2021-08-03T11:25:53.314Z</time>
      </trkpt>
      <trkpt lat="46.99822" lon="8.86856">
        <ele>1554</ele>
        <time>2021-08-03T11:25:54.315Z</time>
      </trkpt>
      <trkpt lat="46.99823" lon="8.86856">
        <ele>1553</ele>
        <time>2021-08-03T11:25:55.315Z</time>
      </trkpt>
      <trkpt lat="46.99823" lon="8.86856">
        <ele>1552</ele>
        <time>2021-08-03T11:25:56.315Z</time>
      </trkpt>
      <trkpt lat="46.99823" lon="8.86857">
        <ele>1551</ele>
        <time>2021-08-03T11:25:57.314Z</time>
      </trkpt>
      <trkpt lat="46.99824" lon="8.86857">
        <ele>1550</ele>
        <time>2021-08-03T11:25:58.315Z</time>
      </trkpt>
      <trkpt lat="46.99826" lon="8.86861">
        <ele>1537</ele>
        <time>2021-08-03T11:25:59.314Z</time>
      </trkpt>
      <trkpt lat="46.99827" lon="8.86861">
        <ele>1537</ele>
        <time>2021-08-03T11:26:00.314Z</time>
      </trkpt>
      <trkpt lat="46.99827" lon="8.86861">
        <ele>1536</ele>
        <time>2021-08-03T11:26:01.315Z</time>
      </trkpt>
      <trkpt lat="46.99827" lon="8.86861">
        <ele>1536</ele>
        <time>2021-08-03T11:26:02.314Z</time>
      </trkpt>
      <trkpt lat="46.99827" lon="8.8686">
        <ele>1536</ele>
        <time>2021-08-03T11:26:03.315Z</time>
      </trkpt>
      <trkpt lat="46.99827" lon="8.8686">
        <ele>1535</ele>
        <time>2021-08-03T11:26:04.315Z</time>
      </trkpt>
      <trkpt lat="46.99827" lon="8.8686">
        <ele>1535</ele>
        <time>2021-08-03T11:26:05.315Z</time>
      </trkpt>
      <trkpt lat="46.99827" lon="8.86859">
        <ele>1535</ele>
        <time>2021-08-03T11:26:06.314Z</time>
      </trkpt>
      <trkpt lat="46.99827" lon="8.86859">
        <ele>1536</ele>
        <time>2021-08-03T11:26:07.315Z</time>
      </trkpt>
      <trkpt lat="46.99828" lon="8.86854">
        <ele>1540</ele>
        <time>2021-08-03T11:26:08.315Z</time>
      </trkpt>
      <trkpt lat="46.99828" lon="8.86854">
        <ele>1541</ele>
        <time>2021-08-03T11:26:09.314Z</time>
      </trkpt>
      <trkpt lat="46.99828" lon="8.86853">
        <ele>1541</ele>
        <time>2021-08-03T11:26:10.315Z</time>
      </trkpt>
      <trkpt lat="46.99828" lon="8.86851">
        <ele>1542</ele>
        <time>2021-08-03T11:26:11.315Z</time>
      </trkpt>
      <trkpt lat="46.99828" lon="8.86852">
        <ele>1542</ele>
        <time>2021-08-03T11:26:12.315Z</time>
      </trkpt>
      <trkpt lat="46.99826" lon="8.86847">
        <ele>1545</ele>
        <time>2021-08-03T11:26:13.315Z</time>
      </trkpt>
      <trkpt lat="46.99826" lon="8.86847">
        <ele>1546</ele>
        <time>2021-08-03T11:26:14.314Z</time>
      </trkpt>
      <trkpt lat="46.99826" lon="8.86847">
        <ele>1547</ele>
        <time>2021-08-03T11:26:15.314Z</time>
      </trkpt>
      <trkpt lat="46.99827" lon="8.86842">
        <ele>1545</ele>
        <time>2021-08-03T11:26:16.314Z</time>
      </trkpt>
      <trkpt lat="46.99826" lon="8.86841">
        <ele>1544</ele>
        <time>2021-08-03T11:26:17.315Z</time>
      </trkpt>
      <trkpt lat="46.99826" lon="8.8684">
        <ele>1543</ele>
        <time>2021-08-03T11:26:18.315Z</time>
      </trkpt>
      <trkpt lat="46.99832" lon="8.86839">
        <ele>1546</ele>
        <time>2021-08-03T11:26:19.316Z</time>
      </trkpt>
      <trkpt lat="46.9983" lon="8.86835">
        <ele>1548</ele>
        <time>2021-08-03T11:26:20.316Z</time>
      </trkpt>
      <trkpt lat="46.99828" lon="8.86832">
        <ele>1545</ele>
        <time>2021-08-03T11:26:21.316Z</time>
      </trkpt>
      <trkpt lat="46.99826" lon="8.86835">
        <ele>1550</ele>
        <time>2021-08-03T11:26:22.317Z</time>
      </trkpt>
      <trkpt lat="46.99826" lon="8.86838">
        <ele>1550</ele>
        <time>2021-08-03T11:26:23.318Z</time>
      </trkpt>
      <trkpt lat="46.99826" lon="8.8684">
        <ele>1550</ele>
        <time>2021-08-03T11:26:24.317Z</time>
      </trkpt>
      <trkpt lat="46.99826" lon="8.86841">
        <ele>1550</ele>
        <time>2021-08-03T11:26:25.318Z</time>
      </trkpt>
      <trkpt lat="46.99825" lon="8.86841">
        <ele>1550</ele>
        <time>2021-08-03T11:26:26.317Z</time>
      </trkpt>
      <trkpt lat="46.99825" lon="8.86842">
        <ele>1550</ele>
        <time>2021-08-03T11:26:27.318Z</time>
      </trkpt>
      <trkpt lat="46.99825" lon="8.86843">
        <ele>1551</ele>
        <time>2021-08-03T11:26:28.318Z</time>
      </trkpt>
      <trkpt lat="46.99824" lon="8.86842">
        <ele>1553</ele>
        <time>2021-08-03T11:26:29.318Z</time>
      </trkpt>
      <trkpt lat="46.99824" lon="8.86842">
        <ele>1553</ele>
        <time>2021-08-03T11:26:30.319Z</time>
      </trkpt>
      <trkpt lat="46.99824" lon="8.86842">
        <ele>1553</ele>
        <time>2021-08-03T11:26:31.318Z</time>
      </trkpt>
      <trkpt lat="46.99823" lon="8.86843">
        <ele>1554</ele>
        <time>2021-08-03T11:26:32.318Z</time>
      </trkpt>
      <trkpt lat="46.99823" lon="8.86843">
        <ele>1553</ele>
        <time>2021-08-03T11:26:33.319Z</time>
      </trkpt>
      <trkpt lat="46.99825" lon="8.86847">
        <ele>1556</ele>
        <time>2021-08-03T11:26:34.319Z</time>
      </trkpt>
      <trkpt lat="46.99825" lon="8.86848">
        <ele>1556</ele>
        <time>2021-08-03T11:26:35.319Z</time>
      </trkpt>
      <trkpt lat="46.99824" lon="8.86851">
        <ele>1556</ele>
        <time>2021-08-03T11:26:36.318Z</time>
      </trkpt>
      <trkpt lat="46.99827" lon="8.86851">
        <ele>1553</ele>
        <time>2021-08-03T11:26:37.319Z</time>
      </trkpt>
      <trkpt lat="46.99825" lon="8.86851">
        <ele>1552</ele>
        <time>2021-08-03T11:26:38.319Z</time>
      </trkpt>
      <trkpt lat="46.99827" lon="8.86846">
        <ele>1554</ele>
        <time>2021-08-03T11:26:39.319Z</time>
      </trkpt>
      <trkpt lat="46.99828" lon="8.86845">
        <ele>1554</ele>
        <time>2021-08-03T11:26:40.320Z</time>
      </trkpt>
      <trkpt lat="46.99828" lon="8.86844">
        <ele>1554</ele>
        <time>2021-08-03T11:26:41.319Z</time>
      </trkpt>
      <trkpt lat="46.99826" lon="8.86844">
        <ele>1556</ele>
        <time>2021-08-03T11:26:42.319Z</time>
      </trkpt>
      <trkpt lat="46.99826" lon="8.86844">
        <ele>1557</ele>
        <time>2021-08-03T11:26:43.319Z</time>
      </trkpt>
      <trkpt lat="46.99826" lon="8.86843">
        <ele>1557</ele>
        <time>2021-08-03T11:26:44.320Z</time>
      </trkpt>
      <trkpt lat="46.99823" lon="8.86847">
        <ele>1558</ele>
        <time>2021-08-03T11:26:45.320Z</time>
      </trkpt>
      <trkpt lat="46.99823" lon="8.86848">
        <ele>1558</ele>
        <time>2021-08-03T11:26:46.320Z</time>
      </trkpt>
      <trkpt lat="46.99827" lon="8.86849">
        <ele>1555</ele>
        <time>2021-08-03T11:26:47.319Z</time>
      </trkpt>
      <trkpt lat="46.99827" lon="8.86848">
        <ele>1554</ele>
        <time>2021-08-03T11:26:48.319Z</time>
      </trkpt>
      <trkpt lat="46.99827" lon="8.86848">
        <ele>1553</ele>
        <time>2021-08-03T11:26:49.320Z</time>
      </trkpt>
      <trkpt lat="46.99827" lon="8.86848">
        <ele>1552</ele>
        <time>2021-08-03T11:26:50.320Z</time>
      </trkpt>
      <trkpt lat="46.99827" lon="8.86848">
        <ele>1552</ele>
        <time>2021-08-03T11:26:51.319Z</time>
      </trkpt>
      <trkpt lat="46.99827" lon="8.86848">
        <ele>1551</ele>
        <time>2021-08-03T11:26:52.319Z</time>
      </trkpt>
      <trkpt lat="46.99828" lon="8.86848">
        <ele>1551</ele>
        <time>2021-08-03T11:26:53.319Z</time>
      </trkpt>
      <trkpt lat="46.99828" lon="8.86849">
        <ele>1549</ele>
        <time>2021-08-03T11:26:54.321Z</time>
      </trkpt>
      <trkpt lat="46.99828" lon="8.86849">
        <ele>1549</ele>
        <time>2021-08-03T11:26:55.321Z</time>
      </trkpt>
      <trkpt lat="46.99827" lon="8.8685">
        <ele>1548</ele>
        <time>2021-08-03T11:26:56.322Z</time>
      </trkpt>
      <trkpt lat="46.99827" lon="8.8685">
        <ele>1548</ele>
        <time>2021-08-03T11:26:57.322Z</time>
      </trkpt>
      <trkpt lat="46.99827" lon="8.8685">
        <ele>1548</ele>
        <time>2021-08-03T11:26:58.321Z</time>
      </trkpt>
      <trkpt lat="46.99826" lon="8.86847">
        <ele>1548</ele>
        <time>2021-08-03T11:26:59.322Z</time>
      </trkpt>
      <trkpt lat="46.99826" lon="8.86847">
        <ele>1547</ele>
        <time>2021-08-03T11:27:00.321Z</time>
      </trkpt>
      <trkpt lat="46.99826" lon="8.86847">
        <ele>1547</ele>
        <time>2021-08-03T11:27:01.321Z</time>
      </trkpt>
      <trkpt lat="46.99826" lon="8.8685">
        <ele>1547</ele>
        <time>2021-08-03T11:27:02.322Z</time>
      </trkpt>
      <trkpt lat="46.99825" lon="8.86852">
        <ele>1547</ele>
        <time>2021-08-03T11:27:03.321Z</time>
      </trkpt>
      <trkpt lat="46.99825" lon="8.86854">
        <ele>1547</ele>
        <time>2021-08-03T11:27:07.321Z</time>
      </trkpt>
      <trkpt lat="46.99823" lon="8.86853">
        <ele>1547</ele>
        <time>2021-08-03T11:27:08.321Z</time>
      </trkpt>
      <trkpt lat="46.99822" lon="8.86853">
        <ele>1548</ele>
        <time>2021-08-03T11:27:09.322Z</time>
      </trkpt>
      <trkpt lat="46.99822" lon="8.86853">
        <ele>1548</ele>
        <time>2021-08-03T11:27:10.322Z</time>
      </trkpt>
      <trkpt lat="46.99822" lon="8.86853">
        <ele>1548</ele>
        <time>2021-08-03T11:27:11.322Z</time>
      </trkpt>
      <trkpt lat="46.99822" lon="8.86852">
        <ele>1548</ele>
        <time>2021-08-03T11:27:12.323Z</time>
      </trkpt>
      <trkpt lat="46.99823" lon="8.86852">
        <ele>1549</ele>
        <time>2021-08-03T11:27:13.322Z</time>
      </trkpt>
      <trkpt lat="46.99823" lon="8.86852">
        <ele>1549</ele>
        <time>2021-08-03T11:27:14.323Z</time>
      </trkpt>
      <trkpt lat="46.99823" lon="8.86852">
        <ele>1549</ele>
        <time>2021-08-03T11:27:20.337Z</time>
      </trkpt>
      <trkpt lat="46.99824" lon="8.86851">
        <ele>1550</ele>
        <time>2021-08-03T11:27:21.337Z</time>
      </trkpt>
      <trkpt lat="46.99824" lon="8.8685">
        <ele>1550</ele>
        <time>2021-08-03T11:27:22.337Z</time>
      </trkpt>
      <trkpt lat="46.99825" lon="8.8685">
        <ele>1551</ele>
        <time>2021-08-03T11:27:23.339Z</time>
      </trkpt>
      <trkpt lat="46.99825" lon="8.86849">
        <ele>1551</ele>
        <time>2021-08-03T11:27:24.339Z</time>
      </trkpt>
      <trkpt lat="46.99826" lon="8.86848">
        <ele>1551</ele>
        <time>2021-08-03T11:27:25.339Z</time>
      </trkpt>
      <trkpt lat="46.99825" lon="8.86848">
        <ele>1551</ele>
        <time>2021-08-03T11:27:36.465Z</time>
      </trkpt>
      <trkpt lat="46.99825" lon="8.86846">
        <ele>1551</ele>
        <time>2021-08-03T11:27:37.465Z</time>
      </trkpt>
      <trkpt lat="46.99825" lon="8.86844">
        <ele>1552</ele>
        <time>2021-08-03T11:27:42.227Z</time>
      </trkpt>
      <trkpt lat="46.99825" lon="8.86843">
        <ele>1552</ele>
        <time>2021-08-03T11:27:43.228Z</time>
      </trkpt>
      <trkpt lat="46.99825" lon="8.86843">
        <ele>1552</ele>
        <time>2021-08-03T11:27:44.227Z</time>
      </trkpt>
      <trkpt lat="46.99828" lon="8.86847">
        <ele>1551</ele>
        <time>2021-08-03T11:27:45.229Z</time>
      </trkpt>
      <trkpt lat="46.99829" lon="8.86847">
        <ele>1550</ele>
        <time>2021-08-03T11:27:46.228Z</time>
      </trkpt>
      <trkpt lat="46.9983" lon="8.86848">
        <ele>1549</ele>
        <time>2021-08-03T11:27:47.228Z</time>
      </trkpt>
      <trkpt lat="46.99832" lon="8.86849">
        <ele>1549</ele>
        <time>2021-08-03T11:27:48.228Z</time>
      </trkpt>
      <trkpt lat="46.99833" lon="8.86849">
        <ele>1548</ele>
        <time>2021-08-03T11:27:49.229Z</time>
      </trkpt>
      <trkpt lat="46.99834" lon="8.86849">
        <ele>1548</ele>
        <time>2021-08-03T11:27:50.229Z</time>
      </trkpt>
      <trkpt lat="46.99835" lon="8.8685">
        <ele>1548</ele>
        <time>2021-08-03T11:27:51.228Z</time>
      </trkpt>
      <trkpt lat="46.99836" lon="8.86851">
        <ele>1548</ele>
        <time>2021-08-03T11:27:52.228Z</time>
      </trkpt>
      <trkpt lat="46.99837" lon="8.86852">
        <ele>1547</ele>
        <time>2021-08-03T11:27:53.228Z</time>
      </trkpt>
      <trkpt lat="46.99838" lon="8.86852">
        <ele>1547</ele>
        <time>2021-08-03T11:27:58.343Z</time>
      </trkpt>
      <trkpt lat="46.99839" lon="8.86853">
        <ele>1546</ele>
        <time>2021-08-03T11:28:05.221Z</time>
      </trkpt>
      <trkpt lat="46.9984" lon="8.86854">
        <ele>1545</ele>
        <time>2021-08-03T11:28:06.220Z</time>
      </trkpt>
      <trkpt lat="46.99841" lon="8.86854">
        <ele>1545</ele>
        <time>2021-08-03T11:28:07.221Z</time>
      </trkpt>
      <trkpt lat="46.99843" lon="8.86855">
        <ele>1545</ele>
        <time>2021-08-03T11:28:15.115Z</time>
      </trkpt>
      <trkpt lat="46.99844" lon="8.86855">
        <ele>1544</ele>
        <time>2021-08-03T11:28:16.115Z</time>
      </trkpt>
      <trkpt lat="46.99845" lon="8.86855">
        <ele>1544</ele>
        <time>2021-08-03T11:28:17.115Z</time>
      </trkpt>
      <trkpt lat="46.99846" lon="8.86856">
        <ele>1543</ele>
        <time>2021-08-03T11:28:27.236Z</time>
      </trkpt>
      <trkpt lat="46.99848" lon="8.86857">
        <ele>1542</ele>
        <time>2021-08-03T11:28:28.236Z</time>
      </trkpt>
      <trkpt lat="46.99849" lon="8.86857">
        <ele>1542</ele>
        <time>2021-08-03T11:28:29.237Z</time>
      </trkpt>
      <trkpt lat="46.9985" lon="8.86858">
        <ele>1541</ele>
        <time>2021-08-03T11:28:30.237Z</time>
      </trkpt>
      <trkpt lat="46.99852" lon="8.86858">
        <ele>1541</ele>
        <time>2021-08-03T11:28:31.237Z</time>
      </trkpt>
      <trkpt lat="46.99854" lon="8.86858">
        <ele>1540</ele>
        <time>2021-08-03T11:28:32.237Z</time>
      </trkpt>
      <trkpt lat="46.99855" lon="8.86859">
        <ele>1540</ele>
        <time>2021-08-03T11:28:33.237Z</time>
      </trkpt>
      <trkpt lat="46.99856" lon="8.8686">
        <ele>1539</ele>
        <time>2021-08-03T11:28:34.236Z</time>
      </trkpt>
      <trkpt lat="46.99857" lon="8.86861">
        <ele>1539</ele>
        <time>2021-08-03T11:28:38.356Z</time>
      </trkpt>
      <trkpt lat="46.99859" lon="8.86862">
        <ele>1539</ele>
        <time>2021-08-03T11:28:39.357Z</time>
      </trkpt>
      <trkpt lat="46.9986" lon="8.86863">
        <ele>1538</ele>
        <time>2021-08-03T11:28:40.357Z</time>
      </trkpt>
      <trkpt lat="46.99861" lon="8.86864">
        <ele>1538</ele>
        <time>2021-08-03T11:28:42.484Z</time>
      </trkpt>
      <trkpt lat="46.99863" lon="8.86865">
        <ele>1538</ele>
        <time>2021-08-03T11:28:43.483Z</time>
      </trkpt>
      <trkpt lat="46.99864" lon="8.86866">
        <ele>1537</ele>
        <time>2021-08-03T11:28:44.484Z</time>
      </trkpt>
      <trkpt lat="46.99865" lon="8.86867">
        <ele>1537</ele>
        <time>2021-08-03T11:28:46.604Z</time>
      </trkpt>
      <trkpt lat="46.99867" lon="8.86869">
        <ele>1537</ele>
        <time>2021-08-03T11:28:47.604Z</time>
      </trkpt>
      <trkpt lat="46.99868" lon="8.8687">
        <ele>1536</ele>
        <time>2021-08-03T11:28:48.603Z</time>
      </trkpt>
      <trkpt lat="46.99869" lon="8.86871">
        <ele>1536</ele>
        <time>2021-08-03T11:28:49.604Z</time>
      </trkpt>
      <trkpt lat="46.9987" lon="8.86872">
        <ele>1536</ele>
        <time>2021-08-03T11:28:50.603Z</time>
      </trkpt>
      <trkpt lat="46.99871" lon="8.86873">
        <ele>1535</ele>
        <time>2021-08-03T11:28:51.604Z</time>
      </trkpt>
      <trkpt lat="46.99871" lon="8.86875">
        <ele>1535</ele>
        <time>2021-08-03T11:28:52.604Z</time>
      </trkpt>
      <trkpt lat="46.99872" lon="8.86876">
        <ele>1535</ele>
        <time>2021-08-03T11:28:53.604Z</time>
      </trkpt>
      <trkpt lat="46.99873" lon="8.86878">
        <ele>1536</ele>
        <time>2021-08-03T11:28:54.604Z</time>
      </trkpt>
      <trkpt lat="46.99874" lon="8.8688">
        <ele>1536</ele>
        <time>2021-08-03T11:28:55.604Z</time>
      </trkpt>
      <trkpt lat="46.99874" lon="8.86882">
        <ele>1536</ele>
        <time>2021-08-03T11:28:56.604Z</time>
      </trkpt>
      <trkpt lat="46.99875" lon="8.86883">
        <ele>1536</ele>
        <time>2021-08-03T11:28:57.603Z</time>
      </trkpt>
      <trkpt lat="46.99876" lon="8.86885">
        <ele>1537</ele>
        <time>2021-08-03T11:28:58.604Z</time>
      </trkpt>
      <trkpt lat="46.99877" lon="8.86887">
        <ele>1537</ele>
        <time>2021-08-03T11:28:59.604Z</time>
      </trkpt>
      <trkpt lat="46.99878" lon="8.86888">
        <ele>1537</ele>
        <time>2021-08-03T11:29:00.604Z</time>
      </trkpt>
      <trkpt lat="46.99879" lon="8.86889">
        <ele>1537</ele>
        <time>2021-08-03T11:29:01.604Z</time>
      </trkpt>
      <trkpt lat="46.9988" lon="8.86891">
        <ele>1537</ele>
        <time>2021-08-03T11:29:02.604Z</time>
      </trkpt>
      <trkpt lat="46.99881" lon="8.86892">
        <ele>1537</ele>
        <time>2021-08-03T11:29:03.603Z</time>
      </trkpt>
      <trkpt lat="46.99882" lon="8.86893">
        <ele>1537</ele>
        <time>2021-08-03T11:29:04.603Z</time>
      </trkpt>
      <trkpt lat="46.99883" lon="8.86895">
        <ele>1537</ele>
        <time>2021-08-03T11:29:05.604Z</time>
      </trkpt>
      <trkpt lat="46.99884" lon="8.86897">
        <ele>1536</ele>
        <time>2021-08-03T11:29:06.604Z</time>
      </trkpt>
      <trkpt lat="46.99885" lon="8.86898">
        <ele>1535</ele>
        <time>2021-08-03T11:29:07.603Z</time>
      </trkpt>
      <trkpt lat="46.99885" lon="8.869">
        <ele>1535</ele>
        <time>2021-08-03T11:29:08.603Z</time>
      </trkpt>
      <trkpt lat="46.99886" lon="8.86902">
        <ele>1535</ele>
        <time>2021-08-03T11:29:09.603Z</time>
      </trkpt>
      <trkpt lat="46.99887" lon="8.86904">
        <ele>1535</ele>
        <time>2021-08-03T11:29:10.604Z</time>
      </trkpt>
      <trkpt lat="46.99887" lon="8.86906">
        <ele>1536</ele>
        <time>2021-08-03T11:29:11.604Z</time>
      </trkpt>
      <trkpt lat="46.99888" lon="8.86908">
        <ele>1536</ele>
        <time>2021-08-03T11:29:12.604Z</time>
      </trkpt>
      <trkpt lat="46.99889" lon="8.86909">
        <ele>1537</ele>
        <time>2021-08-03T11:29:13.603Z</time>
      </trkpt>
      <trkpt lat="46.9989" lon="8.86911">
        <ele>1537</ele>
        <time>2021-08-03T11:29:14.603Z</time>
      </trkpt>
      <trkpt lat="46.99891" lon="8.86913">
        <ele>1537</ele>
        <time>2021-08-03T11:29:15.603Z</time>
      </trkpt>
      <trkpt lat="46.99892" lon="8.86915">
        <ele>1537</ele>
        <time>2021-08-03T11:29:16.603Z</time>
      </trkpt>
      <trkpt lat="46.99893" lon="8.86917">
        <ele>1537</ele>
        <time>2021-08-03T11:29:17.603Z</time>
      </trkpt>
      <trkpt lat="46.99894" lon="8.86919">
        <ele>1537</ele>
        <time>2021-08-03T11:29:18.604Z</time>
      </trkpt>
      <trkpt lat="46.99895" lon="8.86921">
        <ele>1537</ele>
        <time>2021-08-03T11:29:19.604Z</time>
      </trkpt>
      <trkpt lat="46.99896" lon="8.86923">
        <ele>1537</ele>
        <time>2021-08-03T11:29:20.603Z</time>
      </trkpt>
      <trkpt lat="46.99897" lon="8.86925">
        <ele>1537</ele>
        <time>2021-08-03T11:29:21.603Z</time>
      </trkpt>
      <trkpt lat="46.99898" lon="8.86927">
        <ele>1537</ele>
        <time>2021-08-03T11:29:22.604Z</time>
      </trkpt>
      <trkpt lat="46.999" lon="8.86928">
        <ele>1537</ele>
        <time>2021-08-03T11:29:23.604Z</time>
      </trkpt>
      <trkpt lat="46.99901" lon="8.8693">
        <ele>1537</ele>
        <time>2021-08-03T11:29:24.603Z</time>
      </trkpt>
      <trkpt lat="46.99902" lon="8.86931">
        <ele>1537</ele>
        <time>2021-08-03T11:29:25.603Z</time>
      </trkpt>
      <trkpt lat="46.99903" lon="8.86933">
        <ele>1537</ele>
        <time>2021-08-03T11:29:26.604Z</time>
      </trkpt>
      <trkpt lat="46.99905" lon="8.86934">
        <ele>1537</ele>
        <time>2021-08-03T11:29:27.604Z</time>
      </trkpt>
      <trkpt lat="46.99906" lon="8.86935">
        <ele>1537</ele>
        <time>2021-08-03T11:29:28.604Z</time>
      </trkpt>
      <trkpt lat="46.99908" lon="8.86936">
        <ele>1536</ele>
        <time>2021-08-03T11:29:29.604Z</time>
      </trkpt>
      <trkpt lat="46.99909" lon="8.86937">
        <ele>1536</ele>
        <time>2021-08-03T11:29:30.604Z</time>
      </trkpt>
      <trkpt lat="46.99911" lon="8.86938">
        <ele>1536</ele>
        <time>2021-08-03T11:29:31.603Z</time>
      </trkpt>
      <trkpt lat="46.99912" lon="8.8694">
        <ele>1536</ele>
        <time>2021-08-03T11:29:32.603Z</time>
      </trkpt>
      <trkpt lat="46.99913" lon="8.86941">
        <ele>1535</ele>
        <time>2021-08-03T11:29:33.603Z</time>
      </trkpt>
      <trkpt lat="46.99914" lon="8.86942">
        <ele>1535</ele>
        <time>2021-08-03T11:29:34.603Z</time>
      </trkpt>
      <trkpt lat="46.99914" lon="8.86943">
        <ele>1535</ele>
        <time>2021-08-03T11:29:35.604Z</time>
      </trkpt>
      <trkpt lat="46.99915" lon="8.86944">
        <ele>1536</ele>
        <time>2021-08-03T11:29:36.604Z</time>
      </trkpt>
      <trkpt lat="46.99916" lon="8.86945">
        <ele>1536</ele>
        <time>2021-08-03T11:29:37.604Z</time>
      </trkpt>
      <trkpt lat="46.99916" lon="8.86945">
        <ele>1537</ele>
        <time>2021-08-03T11:29:38.604Z</time>
      </trkpt>
      <trkpt lat="46.99917" lon="8.86945">
        <ele>1537</ele>
        <time>2021-08-03T11:29:39.603Z</time>
      </trkpt>
      <trkpt lat="46.99916" lon="8.86945">
        <ele>1537</ele>
        <time>2021-08-03T11:29:40.604Z</time>
      </trkpt>
      <trkpt lat="46.99916" lon="8.86944">
        <ele>1537</ele>
        <time>2021-08-03T11:29:43.727Z</time>
      </trkpt>
      <trkpt lat="46.99917" lon="8.86945">
        <ele>1537</ele>
        <time>2021-08-03T11:29:44.727Z</time>
      </trkpt>
      <trkpt lat="46.99917" lon="8.86946">
        <ele>1538</ele>
        <time>2021-08-03T11:29:45.727Z</time>
      </trkpt>
      <trkpt lat="46.99917" lon="8.86946">
        <ele>1538</ele>
        <time>2021-08-03T11:29:46.727Z</time>
      </trkpt>
      <trkpt lat="46.99918" lon="8.86946">
        <ele>1538</ele>
        <time>2021-08-03T11:29:47.726Z</time>
      </trkpt>
      <trkpt lat="46.99917" lon="8.86944">
        <ele>1537</ele>
        <time>2021-08-03T11:29:48.727Z</time>
      </trkpt>
      <trkpt lat="46.99916" lon="8.86942">
        <ele>1537</ele>
        <time>2021-08-03T11:29:50.831Z</time>
      </trkpt>
      <trkpt lat="46.99915" lon="8.86941">
        <ele>1536</ele>
        <time>2021-08-03T11:29:51.830Z</time>
      </trkpt>
      <trkpt lat="46.99915" lon="8.8694">
        <ele>1536</ele>
        <time>2021-08-03T11:29:52.830Z</time>
      </trkpt>
      <trkpt lat="46.99914" lon="8.86938">
        <ele>1536</ele>
        <time>2021-08-03T11:29:53.831Z</time>
      </trkpt>
      <trkpt lat="46.99913" lon="8.86937">
        <ele>1536</ele>
        <time>2021-08-03T11:29:54.830Z</time>
      </trkpt>
      <trkpt lat="46.99912" lon="8.86937">
        <ele>1537</ele>
        <time>2021-08-03T11:29:55.831Z</time>
      </trkpt>
      <trkpt lat="46.99912" lon="8.86937">
        <ele>1537</ele>
        <time>2021-08-03T11:29:56.830Z</time>
      </trkpt>
      <trkpt lat="46.99912" lon="8.86938">
        <ele>1538</ele>
        <time>2021-08-03T11:29:57.831Z</time>
      </trkpt>
      <trkpt lat="46.99912" lon="8.86938">
        <ele>1538</ele>
        <time>2021-08-03T11:29:58.832Z</time>
      </trkpt>
      <trkpt lat="46.99912" lon="8.86938">
        <ele>1538</ele>
        <time>2021-08-03T11:29:59.831Z</time>
      </trkpt>
      <trkpt lat="46.99914" lon="8.86937">
        <ele>1537</ele>
        <time>2021-08-03T11:30:05.002Z</time>
      </trkpt>
      <trkpt lat="46.99915" lon="8.86937">
        <ele>1536</ele>
        <time>2021-08-03T11:30:06.002Z</time>
      </trkpt>
      <trkpt lat="46.99916" lon="8.86938">
        <ele>1535</ele>
        <time>2021-08-03T11:30:07.002Z</time>
      </trkpt>
      <trkpt lat="46.99918" lon="8.86938">
        <ele>1535</ele>
        <time>2021-08-03T11:30:08.003Z</time>
      </trkpt>
      <trkpt lat="46.9992" lon="8.86938">
        <ele>1535</ele>
        <time>2021-08-03T11:30:09.002Z</time>
      </trkpt>
      <trkpt lat="46.99921" lon="8.86939">
        <ele>1535</ele>
        <time>2021-08-03T11:30:10.003Z</time>
      </trkpt>
      <trkpt lat="46.99923" lon="8.86939">
        <ele>1534</ele>
        <time>2021-08-03T11:30:11.002Z</time>
      </trkpt>
      <trkpt lat="46.99924" lon="8.86939">
        <ele>1535</ele>
        <time>2021-08-03T11:30:12.003Z</time>
      </trkpt>
      <trkpt lat="46.99925" lon="8.8694">
        <ele>1535</ele>
        <time>2021-08-03T11:30:13.002Z</time>
      </trkpt>
      <trkpt lat="46.99926" lon="8.86939">
        <ele>1534</ele>
        <time>2021-08-03T11:30:14.002Z</time>
      </trkpt>
      <trkpt lat="46.99927" lon="8.86939">
        <ele>1534</ele>
        <time>2021-08-03T11:30:15.003Z</time>
      </trkpt>
      <trkpt lat="46.99927" lon="8.86939">
        <ele>1534</ele>
        <time>2021-08-03T11:30:16.002Z</time>
      </trkpt>
      <trkpt lat="46.99927" lon="8.86939">
        <ele>1535</ele>
        <time>2021-08-03T11:30:17.002Z</time>
      </trkpt>
      <trkpt lat="46.99927" lon="8.86939">
        <ele>1535</ele>
        <time>2021-08-03T11:30:18.003Z</time>
      </trkpt>
      <trkpt lat="46.99928" lon="8.8694">
        <ele>1535</ele>
        <time>2021-08-03T11:30:19.003Z</time>
      </trkpt>
      <trkpt lat="46.9993" lon="8.8694">
        <ele>1535</ele>
        <time>2021-08-03T11:30:20.002Z</time>
      </trkpt>
      <trkpt lat="46.99931" lon="8.86941">
        <ele>1535</ele>
        <time>2021-08-03T11:30:21.002Z</time>
      </trkpt>
      <trkpt lat="46.99932" lon="8.86941">
        <ele>1535</ele>
        <time>2021-08-03T11:30:22.002Z</time>
      </trkpt>
      <trkpt lat="46.99934" lon="8.86941">
        <ele>1535</ele>
        <time>2021-08-03T11:30:23.002Z</time>
      </trkpt>
      <trkpt lat="46.99935" lon="8.86941">
        <ele>1535</ele>
        <time>2021-08-03T11:30:24.003Z</time>
      </trkpt>
      <trkpt lat="46.99936" lon="8.86942">
        <ele>1536</ele>
        <time>2021-08-03T11:30:25.002Z</time>
      </trkpt>
      <trkpt lat="46.99937" lon="8.86943">
        <ele>1536</ele>
        <time>2021-08-03T11:30:26.002Z</time>
      </trkpt>
      <trkpt lat="46.99938" lon="8.86944">
        <ele>1537</ele>
        <time>2021-08-03T11:30:27.002Z</time>
      </trkpt>
      <trkpt lat="46.99939" lon="8.86944">
        <ele>1538</ele>
        <time>2021-08-03T11:30:28.002Z</time>
      </trkpt>
      <trkpt lat="46.99939" lon="8.86944">
        <ele>1538</ele>
        <time>2021-08-03T11:30:29.003Z</time>
      </trkpt>
      <trkpt lat="46.99939" lon="8.86943">
        <ele>1538</ele>
        <time>2021-08-03T11:30:30.002Z</time>
      </trkpt>
      <trkpt lat="46.99937" lon="8.86942">
        <ele>1539</ele>
        <time>2021-08-03T11:30:31.003Z</time>
      </trkpt>
      <trkpt lat="46.99936" lon="8.86941">
        <ele>1538</ele>
        <time>2021-08-03T11:30:32.002Z</time>
      </trkpt>
      <trkpt lat="46.99934" lon="8.8694">
        <ele>1538</ele>
        <time>2021-08-03T11:30:33.002Z</time>
      </trkpt>
      <trkpt lat="46.99933" lon="8.8694">
        <ele>1538</ele>
        <time>2021-08-03T11:30:34.003Z</time>
      </trkpt>
      <trkpt lat="46.99931" lon="8.86939">
        <ele>1538</ele>
        <time>2021-08-03T11:30:35.003Z</time>
      </trkpt>
      <trkpt lat="46.99929" lon="8.86939">
        <ele>1538</ele>
        <time>2021-08-03T11:30:36.003Z</time>
      </trkpt>
      <trkpt lat="46.99928" lon="8.86938">
        <ele>1538</ele>
        <time>2021-08-03T11:30:37.003Z</time>
      </trkpt>
      <trkpt lat="46.99926" lon="8.86937">
        <ele>1538</ele>
        <time>2021-08-03T11:30:38.003Z</time>
      </trkpt>
      <trkpt lat="46.99925" lon="8.86936">
        <ele>1539</ele>
        <time>2021-08-03T11:30:39.003Z</time>
      </trkpt>
      <trkpt lat="46.99923" lon="8.86936">
        <ele>1539</ele>
        <time>2021-08-03T11:30:40.002Z</time>
      </trkpt>
      <trkpt lat="46.99921" lon="8.86935">
        <ele>1540</ele>
        <time>2021-08-03T11:30:41.003Z</time>
      </trkpt>
      <trkpt lat="46.9992" lon="8.86935">
        <ele>1540</ele>
        <time>2021-08-03T11:30:42.003Z</time>
      </trkpt>
      <trkpt lat="46.99918" lon="8.86934">
        <ele>1541</ele>
        <time>2021-08-03T11:30:43.002Z</time>
      </trkpt>
      <trkpt lat="46.99917" lon="8.86933">
        <ele>1541</ele>
        <time>2021-08-03T11:30:44.003Z</time>
      </trkpt>
      <trkpt lat="46.99916" lon="8.86933">
        <ele>1540</ele>
        <time>2021-08-03T11:30:45.003Z</time>
      </trkpt>
      <trkpt lat="46.99915" lon="8.86932">
        <ele>1539</ele>
        <time>2021-08-03T11:30:46.003Z</time>
      </trkpt>
      <trkpt lat="46.99914" lon="8.86932">
        <ele>1539</ele>
        <time>2021-08-03T11:30:47.003Z</time>
      </trkpt>
      <trkpt lat="46.99913" lon="8.86931">
        <ele>1539</ele>
        <time>2021-08-03T11:30:48.003Z</time>
      </trkpt>
      <trkpt lat="46.99912" lon="8.86931">
        <ele>1539</ele>
        <time>2021-08-03T11:30:49.002Z</time>
      </trkpt>
      <trkpt lat="46.99911" lon="8.86931">
        <ele>1538</ele>
        <time>2021-08-03T11:30:50.003Z</time>
      </trkpt>
      <trkpt lat="46.9991" lon="8.8693">
        <ele>1538</ele>
        <time>2021-08-03T11:30:51.002Z</time>
      </trkpt>
      <trkpt lat="46.99909" lon="8.8693">
        <ele>1539</ele>
        <time>2021-08-03T11:30:52.003Z</time>
      </trkpt>
      <trkpt lat="46.99908" lon="8.86929">
        <ele>1539</ele>
        <time>2021-08-03T11:30:53.002Z</time>
      </trkpt>
      <trkpt lat="46.99907" lon="8.86928">
        <ele>1540</ele>
        <time>2021-08-03T11:30:54.002Z</time>
      </trkpt>
      <trkpt lat="46.99906" lon="8.86928">
        <ele>1540</ele>
        <time>2021-08-03T11:30:55.003Z</time>
      </trkpt>
      <trkpt lat="46.99905" lon="8.86927">
        <ele>1540</ele>
        <time>2021-08-03T11:30:56.003Z</time>
      </trkpt>
      <trkpt lat="46.99904" lon="8.86926">
        <ele>1539</ele>
        <time>2021-08-03T11:31:01.126Z</time>
      </trkpt>
      <trkpt lat="46.99903" lon="8.86925">
        <ele>1539</ele>
        <time>2021-08-03T11:31:02.126Z</time>
      </trkpt>
      <trkpt lat="46.99902" lon="8.86923">
        <ele>1539</ele>
        <time>2021-08-03T11:31:03.126Z</time>
      </trkpt>
      <trkpt lat="46.99901" lon="8.86922">
        <ele>1539</ele>
        <time>2021-08-03T11:31:04.126Z</time>
      </trkpt>
      <trkpt lat="46.99901" lon="8.86921">
        <ele>1538</ele>
        <time>2021-08-03T11:31:05.126Z</time>
      </trkpt>
      <trkpt lat="46.999" lon="8.86919">
        <ele>1538</ele>
        <time>2021-08-03T11:31:06.126Z</time>
      </trkpt>
      <trkpt lat="46.99899" lon="8.86918">
        <ele>1538</ele>
        <time>2021-08-03T11:31:07.126Z</time>
      </trkpt>
      <trkpt lat="46.99898" lon="8.86916">
        <ele>1539</ele>
        <time>2021-08-03T11:31:08.126Z</time>
      </trkpt>
      <trkpt lat="46.99897" lon="8.86914">
        <ele>1539</ele>
        <time>2021-08-03T11:31:09.126Z</time>
      </trkpt>
      <trkpt lat="46.99896" lon="8.86913">
        <ele>1539</ele>
        <time>2021-08-03T11:31:10.126Z</time>
      </trkpt>
      <trkpt lat="46.99895" lon="8.86911">
        <ele>1539</ele>
        <time>2021-08-03T11:31:11.126Z</time>
      </trkpt>
      <trkpt lat="46.99894" lon="8.86909">
        <ele>1538</ele>
        <time>2021-08-03T11:31:12.126Z</time>
      </trkpt>
      <trkpt lat="46.99893" lon="8.86908">
        <ele>1539</ele>
        <time>2021-08-03T11:31:13.125Z</time>
      </trkpt>
      <trkpt lat="46.99893" lon="8.86906">
        <ele>1539</ele>
        <time>2021-08-03T11:31:14.126Z</time>
      </trkpt>
      <trkpt lat="46.99892" lon="8.86904">
        <ele>1539</ele>
        <time>2021-08-03T11:31:15.125Z</time>
      </trkpt>
      <trkpt lat="46.99891" lon="8.86903">
        <ele>1539</ele>
        <time>2021-08-03T11:31:16.126Z</time>
      </trkpt>
      <trkpt lat="46.9989" lon="8.86901">
        <ele>1538</ele>
        <time>2021-08-03T11:31:17.125Z</time>
      </trkpt>
      <trkpt lat="46.99889" lon="8.869">
        <ele>1538</ele>
        <time>2021-08-03T11:31:18.125Z</time>
      </trkpt>
      <trkpt lat="46.99888" lon="8.86898">
        <ele>1538</ele>
        <time>2021-08-03T11:31:19.125Z</time>
      </trkpt>
      <trkpt lat="46.99887" lon="8.86897">
        <ele>1538</ele>
        <time>2021-08-03T11:31:20.126Z</time>
      </trkpt>
      <trkpt lat="46.99886" lon="8.86895">
        <ele>1538</ele>
        <time>2021-08-03T11:31:21.126Z</time>
      </trkpt>
      <trkpt lat="46.99885" lon="8.86893">
        <ele>1538</ele>
        <time>2021-08-03T11:31:22.126Z</time>
      </trkpt>
      <trkpt lat="46.99885" lon="8.86891">
        <ele>1538</ele>
        <time>2021-08-03T11:31:23.126Z</time>
      </trkpt>
      <trkpt lat="46.99884" lon="8.86889">
        <ele>1538</ele>
        <time>2021-08-03T11:31:24.125Z</time>
      </trkpt>
      <trkpt lat="46.99883" lon="8.86887">
        <ele>1538</ele>
        <time>2021-08-03T11:31:25.126Z</time>
      </trkpt>
      <trkpt lat="46.99882" lon="8.86886">
        <ele>1539</ele>
        <time>2021-08-03T11:31:26.125Z</time>
      </trkpt>
      <trkpt lat="46.99881" lon="8.86885">
        <ele>1539</ele>
        <time>2021-08-03T11:31:27.126Z</time>
      </trkpt>
      <trkpt lat="46.9988" lon="8.86883">
        <ele>1539</ele>
        <time>2021-08-03T11:31:28.125Z</time>
      </trkpt>
      <trkpt lat="46.99879" lon="8.86881">
        <ele>1539</ele>
        <time>2021-08-03T11:31:29.126Z</time>
      </trkpt>
      <trkpt lat="46.99878" lon="8.8688">
        <ele>1539</ele>
        <time>2021-08-03T11:31:30.126Z</time>
      </trkpt>
      <trkpt lat="46.99877" lon="8.86878">
        <ele>1540</ele>
        <time>2021-08-03T11:31:31.126Z</time>
      </trkpt>
      <trkpt lat="46.99877" lon="8.86877">
        <ele>1539</ele>
        <time>2021-08-03T11:31:32.125Z</time>
      </trkpt>
      <trkpt lat="46.99876" lon="8.86875">
        <ele>1539</ele>
        <time>2021-08-03T11:31:33.126Z</time>
      </trkpt>
      <trkpt lat="46.99875" lon="8.86874">
        <ele>1539</ele>
        <time>2021-08-03T11:31:34.126Z</time>
      </trkpt>
      <trkpt lat="46.99874" lon="8.86872">
        <ele>1539</ele>
        <time>2021-08-03T11:31:35.125Z</time>
      </trkpt>
      <trkpt lat="46.99873" lon="8.86871">
        <ele>1540</ele>
        <time>2021-08-03T11:31:36.125Z</time>
      </trkpt>
      <trkpt lat="46.99871" lon="8.86869">
        <ele>1540</ele>
        <time>2021-08-03T11:31:37.126Z</time>
      </trkpt>
      <trkpt lat="46.9987" lon="8.86868">
        <ele>1541</ele>
        <time>2021-08-03T11:31:38.126Z</time>
      </trkpt>
      <trkpt lat="46.99869" lon="8.86866">
        <ele>1541</ele>
        <time>2021-08-03T11:31:39.126Z</time>
      </trkpt>
      <trkpt lat="46.99868" lon="8.86865">
        <ele>1541</ele>
        <time>2021-08-03T11:31:40.126Z</time>
      </trkpt>
      <trkpt lat="46.99866" lon="8.86863">
        <ele>1541</ele>
        <time>2021-08-03T11:31:41.126Z</time>
      </trkpt>
      <trkpt lat="46.99865" lon="8.86861">
        <ele>1542</ele>
        <time>2021-08-03T11:31:42.126Z</time>
      </trkpt>
      <trkpt lat="46.99864" lon="8.8686">
        <ele>1542</ele>
        <time>2021-08-03T11:31:43.126Z</time>
      </trkpt>
      <trkpt lat="46.99863" lon="8.86859">
        <ele>1542</ele>
        <time>2021-08-03T11:31:44.125Z</time>
      </trkpt>
      <trkpt lat="46.99861" lon="8.86858">
        <ele>1542</ele>
        <time>2021-08-03T11:31:45.125Z</time>
      </trkpt>
      <trkpt lat="46.99859" lon="8.86857">
        <ele>1542</ele>
        <time>2021-08-03T11:31:46.126Z</time>
      </trkpt>
      <trkpt lat="46.99858" lon="8.86856">
        <ele>1542</ele>
        <time>2021-08-03T11:31:47.126Z</time>
      </trkpt>
      <trkpt lat="46.99856" lon="8.86856">
        <ele>1543</ele>
        <time>2021-08-03T11:31:48.125Z</time>
      </trkpt>
      <trkpt lat="46.99854" lon="8.86856">
        <ele>1542</ele>
        <time>2021-08-03T11:31:49.126Z</time>
      </trkpt>
      <trkpt lat="46.99853" lon="8.86855">
        <ele>1542</ele>
        <time>2021-08-03T11:31:50.126Z</time>
      </trkpt>
      <trkpt lat="46.99852" lon="8.86855">
        <ele>1541</ele>
        <time>2021-08-03T11:31:51.126Z</time>
      </trkpt>
      <trkpt lat="46.99851" lon="8.86854">
        <ele>1541</ele>
        <time>2021-08-03T11:31:52.125Z</time>
      </trkpt>
      <trkpt lat="46.9985" lon="8.86853">
        <ele>1541</ele>
        <time>2021-08-03T11:31:53.125Z</time>
      </trkpt>
      <trkpt lat="46.99848" lon="8.86853">
        <ele>1540</ele>
        <time>2021-08-03T11:31:54.126Z</time>
      </trkpt>
      <trkpt lat="46.99847" lon="8.86852">
        <ele>1540</ele>
        <time>2021-08-03T11:31:55.125Z</time>
      </trkpt>
      <trkpt lat="46.99845" lon="8.86851">
        <ele>1540</ele>
        <time>2021-08-03T11:31:56.125Z</time>
      </trkpt>
      <trkpt lat="46.99843" lon="8.86851">
        <ele>1540</ele>
        <time>2021-08-03T11:31:57.126Z</time>
      </trkpt>
      <trkpt lat="46.99842" lon="8.8685">
        <ele>1541</ele>
        <time>2021-08-03T11:31:58.125Z</time>
      </trkpt>
      <trkpt lat="46.99841" lon="8.8685">
        <ele>1541</ele>
        <time>2021-08-03T11:31:59.126Z</time>
      </trkpt>
      <trkpt lat="46.9984" lon="8.8685">
        <ele>1541</ele>
        <time>2021-08-03T11:32:00.126Z</time>
      </trkpt>
      <trkpt lat="46.99838" lon="8.8685">
        <ele>1541</ele>
        <time>2021-08-03T11:32:01.125Z</time>
      </trkpt>
      <trkpt lat="46.99837" lon="8.8685">
        <ele>1541</ele>
        <time>2021-08-03T11:32:02.126Z</time>
      </trkpt>
      <trkpt lat="46.99836" lon="8.8685">
        <ele>1541</ele>
        <time>2021-08-03T11:32:03.126Z</time>
      </trkpt>
      <trkpt lat="46.99834" lon="8.8685">
        <ele>1541</ele>
        <time>2021-08-03T11:32:04.125Z</time>
      </trkpt>
      <trkpt lat="46.99833" lon="8.86849">
        <ele>1541</ele>
        <time>2021-08-03T11:32:05.126Z</time>
      </trkpt>
      <trkpt lat="46.99832" lon="8.86849">
        <ele>1541</ele>
        <time>2021-08-03T11:32:06.125Z</time>
      </trkpt>
      <trkpt lat="46.99831" lon="8.86849">
        <ele>1541</ele>
        <time>2021-08-03T11:32:07.126Z</time>
      </trkpt>
      <trkpt lat="46.9983" lon="8.86848">
        <ele>1542</ele>
        <time>2021-08-03T11:32:08.126Z</time>
      </trkpt>
      <trkpt lat="46.99829" lon="8.86848">
        <ele>1543</ele>
        <time>2021-08-03T11:32:09.126Z</time>
      </trkpt>
      <trkpt lat="46.99829" lon="8.86848">
        <ele>1543</ele>
        <time>2021-08-03T11:32:10.126Z</time>
      </trkpt>
      <trkpt lat="46.99829" lon="8.86848">
        <ele>1544</ele>
        <time>2021-08-03T11:32:11.126Z</time>
      </trkpt>
      <trkpt lat="46.9983" lon="8.86848">
        <ele>1543</ele>
        <time>2021-08-03T11:32:12.127Z</time>
      </trkpt>
      <trkpt lat="46.9983" lon="8.86848">
        <ele>1543</ele>
        <time>2021-08-03T11:32:13.128Z</time>
      </trkpt>
      <trkpt lat="46.9983" lon="8.86848">
        <ele>1543</ele>
        <time>2021-08-03T11:32:14.127Z</time>
      </trkpt>
      <trkpt lat="46.9983" lon="8.86848">
        <ele>1543</ele>
        <time>2021-08-03T11:32:15.127Z</time>
      </trkpt>
      <trkpt lat="46.9983" lon="8.86848">
        <ele>1544</ele>
        <time>2021-08-03T11:32:16.128Z</time>
      </trkpt>
      <trkpt lat="46.9983" lon="8.86846">
        <ele>1544</ele>
        <time>2021-08-03T11:32:17.128Z</time>
      </trkpt>
      <trkpt lat="46.99827" lon="8.86845">
        <ele>1544</ele>
        <time>2021-08-03T11:32:18.128Z</time>
      </trkpt>
      <trkpt lat="46.99826" lon="8.86845">
        <ele>1544</ele>
        <time>2021-08-03T11:32:19.128Z</time>
      </trkpt>
      <trkpt lat="46.99827" lon="8.86845">
        <ele>1544</ele>
        <time>2021-08-03T11:32:20.127Z</time>
      </trkpt>
      <trkpt lat="46.99828" lon="8.86844">
        <ele>1542</ele>
        <time>2021-08-03T11:32:21.127Z</time>
      </trkpt>
      <trkpt lat="46.99827" lon="8.86844">
        <ele>1542</ele>
        <time>2021-08-03T11:32:22.128Z</time>
      </trkpt>
      <trkpt lat="46.99827" lon="8.86844">
        <ele>1543</ele>
        <time>2021-08-03T11:32:23.127Z</time>
      </trkpt>
      <trkpt lat="46.99827" lon="8.86844">
        <ele>1543</ele>
        <time>2021-08-03T11:32:24.128Z</time>
      </trkpt>
      <trkpt lat="46.99827" lon="8.86844">
        <ele>1543</ele>
        <time>2021-08-03T11:32:25.127Z</time>
      </trkpt>
      <trkpt lat="46.99824" lon="8.86841">
        <ele>1546</ele>
        <time>2021-08-03T11:32:26.127Z</time>
      </trkpt>
      <trkpt lat="46.99824" lon="8.86841">
        <ele>1547</ele>
        <time>2021-08-03T11:32:27.128Z</time>
      </trkpt>
      <trkpt lat="46.99823" lon="8.86841">
        <ele>1547</ele>
        <time>2021-08-03T11:32:28.127Z</time>
      </trkpt>
      <trkpt lat="46.99823" lon="8.86842">
        <ele>1547</ele>
        <time>2021-08-03T11:32:29.127Z</time>
      </trkpt>
      <trkpt lat="46.99822" lon="8.86843">
        <ele>1547</ele>
        <time>2021-08-03T11:32:30.128Z</time>
      </trkpt>
      <trkpt lat="46.99823" lon="8.86843">
        <ele>1547</ele>
        <time>2021-08-03T11:32:31.128Z</time>
      </trkpt>
      <trkpt lat="46.99823" lon="8.86843">
        <ele>1547</ele>
        <time>2021-08-03T11:32:32.128Z</time>
      </trkpt>
      <trkpt lat="46.99823" lon="8.86844">
        <ele>1547</ele>
        <time>2021-08-03T11:32:33.127Z</time>
      </trkpt>
      <trkpt lat="46.99827" lon="8.86846">
        <ele>1539</ele>
        <time>2021-08-03T11:32:34.127Z</time>
      </trkpt>
      <trkpt lat="46.99827" lon="8.86847">
        <ele>1537</ele>
        <time>2021-08-03T11:32:35.129Z</time>
      </trkpt>
      <trkpt lat="46.99827" lon="8.86847">
        <ele>1536</ele>
        <time>2021-08-03T11:32:36.128Z</time>
      </trkpt>
      <trkpt lat="46.99827" lon="8.86847">
        <ele>1536</ele>
        <time>2021-08-03T11:32:37.128Z</time>
      </trkpt>
      <trkpt lat="46.99827" lon="8.86847">
        <ele>1535</ele>
        <time>2021-08-03T11:32:38.129Z</time>
      </trkpt>
      <trkpt lat="46.99825" lon="8.86849">
        <ele>1535</ele>
        <time>2021-08-03T11:32:39.130Z</time>
      </trkpt>
      <trkpt lat="46.99824" lon="8.86851">
        <ele>1535</ele>
        <time>2021-08-03T11:32:40.129Z</time>
      </trkpt>
      <trkpt lat="46.99825" lon="8.86851">
        <ele>1535</ele>
        <time>2021-08-03T11:32:41.129Z</time>
      </trkpt>
      <trkpt lat="46.99825" lon="8.86851">
        <ele>1535</ele>
        <time>2021-08-03T11:32:42.130Z</time>
      </trkpt>
      <trkpt lat="46.99824" lon="8.86852">
        <ele>1537</ele>
        <time>2021-08-03T11:32:43.131Z</time>
      </trkpt>
      <trkpt lat="46.99824" lon="8.86852">
        <ele>1537</ele>
        <time>2021-08-03T11:32:44.130Z</time>
      </trkpt>
      <trkpt lat="46.99824" lon="8.86852">
        <ele>1537</ele>
        <time>2021-08-03T11:32:45.130Z</time>
      </trkpt>
      <trkpt lat="46.99823" lon="8.86846">
        <ele>1541</ele>
        <time>2021-08-03T11:32:46.130Z</time>
      </trkpt>
      <trkpt lat="46.99824" lon="8.86846">
        <ele>1541</ele>
        <time>2021-08-03T11:32:47.131Z</time>
      </trkpt>
      <trkpt lat="46.99824" lon="8.86846">
        <ele>1541</ele>
        <time>2021-08-03T11:32:48.130Z</time>
      </trkpt>
      <trkpt lat="46.99825" lon="8.86847">
        <ele>1541</ele>
        <time>2021-08-03T11:32:49.130Z</time>
      </trkpt>
      <trkpt lat="46.99825" lon="8.86848">
        <ele>1541</ele>
        <time>2021-08-03T11:32:50.130Z</time>
      </trkpt>
      <trkpt lat="46.99825" lon="8.86849">
        <ele>1541</ele>
        <time>2021-08-03T11:32:51.130Z</time>
      </trkpt>
      <trkpt lat="46.99825" lon="8.86849">
        <ele>1540</ele>
        <time>2021-08-03T11:32:52.130Z</time>
      </trkpt>
      <trkpt lat="46.99826" lon="8.86849">
        <ele>1539</ele>
        <time>2021-08-03T11:32:53.130Z</time>
      </trkpt>
      <trkpt lat="46.99826" lon="8.86848">
        <ele>1539</ele>
        <time>2021-08-03T11:32:54.130Z</time>
      </trkpt>
      <trkpt lat="46.99827" lon="8.86849">
        <ele>1538</ele>
        <time>2021-08-03T11:32:55.130Z</time>
      </trkpt>
      <trkpt lat="46.99827" lon="8.86848">
        <ele>1538</ele>
        <time>2021-08-03T11:32:56.130Z</time>
      </trkpt>
      <trkpt lat="46.99827" lon="8.86848">
        <ele>1538</ele>
        <time>2021-08-03T11:32:57.130Z</time>
      </trkpt>
      <trkpt lat="46.99828" lon="8.86848">
        <ele>1537</ele>
        <time>2021-08-03T11:32:58.130Z</time>
      </trkpt>
      <trkpt lat="46.99828" lon="8.86847">
        <ele>1536</ele>
        <time>2021-08-03T11:32:59.131Z</time>
      </trkpt>
      <trkpt lat="46.99829" lon="8.86846">
        <ele>1535</ele>
        <time>2021-08-03T11:33:00.131Z</time>
      </trkpt>
      <trkpt lat="46.9983" lon="8.86845">
        <ele>1535</ele>
        <time>2021-08-03T11:33:01.131Z</time>
      </trkpt>
      <trkpt lat="46.9983" lon="8.86844">
        <ele>1534</ele>
        <time>2021-08-03T11:33:02.131Z</time>
      </trkpt>
      <trkpt lat="46.99831" lon="8.86844">
        <ele>1534</ele>
        <time>2021-08-03T11:33:03.131Z</time>
      </trkpt>
      <trkpt lat="46.99831" lon="8.86846">
        <ele>1535</ele>
        <time>2021-08-03T11:33:04.131Z</time>
      </trkpt>
      <trkpt lat="46.99831" lon="8.86846">
        <ele>1535</ele>
        <time>2021-08-03T11:33:05.131Z</time>
      </trkpt>
      <trkpt lat="46.99832" lon="8.86843">
        <ele>1548</ele>
        <time>2021-08-03T11:33:06.132Z</time>
      </trkpt>
      <trkpt lat="46.99832" lon="8.86844">
        <ele>1549</ele>
        <time>2021-08-03T11:33:07.131Z</time>
      </trkpt>
      <trkpt lat="46.99833" lon="8.86845">
        <ele>1552</ele>
        <time>2021-08-03T11:33:08.131Z</time>
      </trkpt>
      <trkpt lat="46.99834" lon="8.86845">
        <ele>1552</ele>
        <time>2021-08-03T11:33:09.131Z</time>
      </trkpt>
      <trkpt lat="46.99834" lon="8.86845">
        <ele>1552</ele>
        <time>2021-08-03T11:33:10.131Z</time>
      </trkpt>
      <trkpt lat="46.99834" lon="8.86846">
        <ele>1552</ele>
        <time>2021-08-03T11:33:11.131Z</time>
      </trkpt>
      <trkpt lat="46.99834" lon="8.86846">
        <ele>1552</ele>
        <time>2021-08-03T11:33:12.131Z</time>
      </trkpt>
      <trkpt lat="46.99835" lon="8.86846">
        <ele>1549</ele>
        <time>2021-08-03T11:33:13.132Z</time>
      </trkpt>
      <trkpt lat="46.99835" lon="8.86845">
        <ele>1548</ele>
        <time>2021-08-03T11:33:14.132Z</time>
      </trkpt>
      <trkpt lat="46.99836" lon="8.86844">
        <ele>1547</ele>
        <time>2021-08-03T11:33:15.132Z</time>
      </trkpt>
      <trkpt lat="46.99836" lon="8.86844">
        <ele>1546</ele>
        <time>2021-08-03T11:33:16.132Z</time>
      </trkpt>
      <trkpt lat="46.99832" lon="8.86847">
        <ele>1542</ele>
        <time>2021-08-03T11:33:17.133Z</time>
      </trkpt>
      <trkpt lat="46.99832" lon="8.86847">
        <ele>1541</ele>
        <time>2021-08-03T11:33:18.132Z</time>
      </trkpt>
      <trkpt lat="46.99832" lon="8.86847">
        <ele>1538</ele>
        <time>2021-08-03T11:33:19.132Z</time>
      </trkpt>
      <trkpt lat="46.99833" lon="8.86847">
        <ele>1538</ele>
        <time>2021-08-03T11:33:20.133Z</time>
      </trkpt>
      <trkpt lat="46.99831" lon="8.86844">
        <ele>1542</ele>
        <time>2021-08-03T11:33:21.133Z</time>
      </trkpt>
      <trkpt lat="46.9983" lon="8.86843">
        <ele>1542</ele>
        <time>2021-08-03T11:33:22.133Z</time>
      </trkpt>
      <trkpt lat="46.99829" lon="8.86842">
        <ele>1542</ele>
        <time>2021-08-03T11:33:23.133Z</time>
      </trkpt>
      <trkpt lat="46.99828" lon="8.8684">
        <ele>1542</ele>
        <time>2021-08-03T11:33:24.133Z</time>
      </trkpt>
      <trkpt lat="46.99827" lon="8.86839">
        <ele>1542</ele>
        <time>2021-08-03T11:33:25.132Z</time>
      </trkpt>
      <trkpt lat="46.99825" lon="8.86837">
        <ele>1542</ele>
        <time>2021-08-03T11:33:26.132Z</time>
      </trkpt>
      <trkpt lat="46.99822" lon="8.86834">
        <ele>1542</ele>
        <time>2021-08-03T11:33:27.133Z</time>
      </trkpt>
      <trkpt lat="46.9982" lon="8.86831">
        <ele>1542</ele>
        <time>2021-08-03T11:33:28.132Z</time>
      </trkpt>
      <trkpt lat="46.99817" lon="8.86827">
        <ele>1542</ele>
        <time>2021-08-03T11:33:29.133Z</time>
      </trkpt>
      <trkpt lat="46.99814" lon="8.86823">
        <ele>1543</ele>
        <time>2021-08-03T11:33:30.133Z</time>
      </trkpt>
      <trkpt lat="46.99812" lon="8.8682">
        <ele>1543</ele>
        <time>2021-08-03T11:33:31.133Z</time>
      </trkpt>
      <trkpt lat="46.99809" lon="8.86816">
        <ele>1543</ele>
        <time>2021-08-03T11:33:32.133Z</time>
      </trkpt>
      <trkpt lat="46.99806" lon="8.86811">
        <ele>1543</ele>
        <time>2021-08-03T11:33:33.133Z</time>
      </trkpt>
      <trkpt lat="46.99804" lon="8.86807">
        <ele>1543</ele>
        <time>2021-08-03T11:33:34.132Z</time>
      </trkpt>
      <trkpt lat="46.99801" lon="8.86803">
        <ele>1543</ele>
        <time>2021-08-03T11:33:35.133Z</time>
      </trkpt>
      <trkpt lat="46.99799" lon="8.86798">
        <ele>1544</ele>
        <time>2021-08-03T11:33:36.132Z</time>
      </trkpt>
      <trkpt lat="46.99797" lon="8.86794">
        <ele>1544</ele>
        <time>2021-08-03T11:33:37.133Z</time>
      </trkpt>
      <trkpt lat="46.99794" lon="8.8679">
        <ele>1543</ele>
        <time>2021-08-03T11:33:38.133Z</time>
      </trkpt>
      <trkpt lat="46.99792" lon="8.86787">
        <ele>1543</ele>
        <time>2021-08-03T11:33:39.132Z</time>
      </trkpt>
      <trkpt lat="46.99789" lon="8.86783">
        <ele>1543</ele>
        <time>2021-08-03T11:33:40.133Z</time>
      </trkpt>
      <trkpt lat="46.99787" lon="8.86779">
        <ele>1543</ele>
        <time>2021-08-03T11:33:41.133Z</time>
      </trkpt>
      <trkpt lat="46.99785" lon="8.86776">
        <ele>1543</ele>
        <time>2021-08-03T11:33:42.132Z</time>
      </trkpt>
      <trkpt lat="46.99782" lon="8.86772">
        <ele>1544</ele>
        <time>2021-08-03T11:33:43.133Z</time>
      </trkpt>
      <trkpt lat="46.9978" lon="8.86768">
        <ele>1543</ele>
        <time>2021-08-03T11:33:44.133Z</time>
      </trkpt>
      <trkpt lat="46.99777" lon="8.86765">
        <ele>1544</ele>
        <time>2021-08-03T11:33:45.132Z</time>
      </trkpt>
      <trkpt lat="46.99774" lon="8.86761">
        <ele>1544</ele>
        <time>2021-08-03T11:33:46.133Z</time>
      </trkpt>
      <trkpt lat="46.99771" lon="8.86757">
        <ele>1544</ele>
        <time>2021-08-03T11:33:47.133Z</time>
      </trkpt>
      <trkpt lat="46.99768" lon="8.86753">
        <ele>1544</ele>
        <time>2021-08-03T11:33:48.133Z</time>
      </trkpt>
      <trkpt lat="46.99764" lon="8.86749">
        <ele>1543</ele>
        <time>2021-08-03T11:33:49.133Z</time>
      </trkpt>
      <trkpt lat="46.9976" lon="8.86745">
        <ele>1543</ele>
        <time>2021-08-03T11:33:50.132Z</time>
      </trkpt>
      <trkpt lat="46.99757" lon="8.86742">
        <ele>1543</ele>
        <time>2021-08-03T11:33:51.133Z</time>
      </trkpt>
      <trkpt lat="46.99754" lon="8.86739">
        <ele>1544</ele>
        <time>2021-08-03T11:33:52.133Z</time>
      </trkpt>
      <trkpt lat="46.9975" lon="8.86735">
        <ele>1544</ele>
        <time>2021-08-03T11:33:53.133Z</time>
      </trkpt>
      <trkpt lat="46.99747" lon="8.86732">
        <ele>1544</ele>
        <time>2021-08-03T11:33:54.133Z</time>
      </trkpt>
      <trkpt lat="46.99744" lon="8.86729">
        <ele>1544</ele>
        <time>2021-08-03T11:33:55.132Z</time>
      </trkpt>
      <trkpt lat="46.99741" lon="8.86726">
        <ele>1544</ele>
        <time>2021-08-03T11:33:56.133Z</time>
      </trkpt>
      <trkpt lat="46.99738" lon="8.86724">
        <ele>1544</ele>
        <time>2021-08-03T11:33:57.133Z</time>
      </trkpt>
      <trkpt lat="46.99735" lon="8.86722">
        <ele>1544</ele>
        <time>2021-08-03T11:33:58.133Z</time>
      </trkpt>
      <trkpt lat="46.99732" lon="8.86722">
        <ele>1544</ele>
        <time>2021-08-03T11:33:59.132Z</time>
      </trkpt>
      <trkpt lat="46.99729" lon="8.86722">
        <ele>1544</ele>
        <time>2021-08-03T11:34:00.132Z</time>
      </trkpt>
      <trkpt lat="46.99726" lon="8.86722">
        <ele>1544</ele>
        <time>2021-08-03T11:34:01.132Z</time>
      </trkpt>
      <trkpt lat="46.99723" lon="8.86723">
        <ele>1544</ele>
        <time>2021-08-03T11:34:02.133Z</time>
      </trkpt>
      <trkpt lat="46.9972" lon="8.86724">
        <ele>1543</ele>
        <time>2021-08-03T11:34:03.133Z</time>
      </trkpt>
      <trkpt lat="46.99716" lon="8.86725">
        <ele>1543</ele>
        <time>2021-08-03T11:34:04.133Z</time>
      </trkpt>
      <trkpt lat="46.99713" lon="8.86726">
        <ele>1543</ele>
        <time>2021-08-03T11:34:05.133Z</time>
      </trkpt>
      <trkpt lat="46.99709" lon="8.86726">
        <ele>1543</ele>
        <time>2021-08-03T11:34:06.132Z</time>
      </trkpt>
      <trkpt lat="46.99705" lon="8.86727">
        <ele>1543</ele>
        <time>2021-08-03T11:34:07.133Z</time>
      </trkpt>
      <trkpt lat="46.99701" lon="8.86728">
        <ele>1543</ele>
        <time>2021-08-03T11:34:08.133Z</time>
      </trkpt>
      <trkpt lat="46.99697" lon="8.86729">
        <ele>1543</ele>
        <time>2021-08-03T11:34:09.133Z</time>
      </trkpt>
      <trkpt lat="46.99693" lon="8.86729">
        <ele>1544</ele>
        <time>2021-08-03T11:34:10.133Z</time>
      </trkpt>
      <trkpt lat="46.99689" lon="8.86729">
        <ele>1544</ele>
        <time>2021-08-03T11:34:11.132Z</time>
      </trkpt>
      <trkpt lat="46.99684" lon="8.8673">
        <ele>1544</ele>
        <time>2021-08-03T11:34:12.133Z</time>
      </trkpt>
      <trkpt lat="46.9968" lon="8.8673">
        <ele>1544</ele>
        <time>2021-08-03T11:34:13.132Z</time>
      </trkpt>
      <trkpt lat="46.99675" lon="8.8673">
        <ele>1544</ele>
        <time>2021-08-03T11:34:14.132Z</time>
      </trkpt>
      <trkpt lat="46.99672" lon="8.8673">
        <ele>1544</ele>
        <time>2021-08-03T11:34:15.132Z</time>
      </trkpt>
      <trkpt lat="46.99667" lon="8.86731">
        <ele>1544</ele>
        <time>2021-08-03T11:34:16.132Z</time>
      </trkpt>
      <trkpt lat="46.99663" lon="8.86731">
        <ele>1544</ele>
        <time>2021-08-03T11:34:17.133Z</time>
      </trkpt>
      <trkpt lat="46.99658" lon="8.86731">
        <ele>1544</ele>
        <time>2021-08-03T11:34:18.133Z</time>
      </trkpt>
      <trkpt lat="46.99654" lon="8.8673">
        <ele>1544</ele>
        <time>2021-08-03T11:34:19.133Z</time>
      </trkpt>
      <trkpt lat="46.9965" lon="8.8673">
        <ele>1543</ele>
        <time>2021-08-03T11:34:20.133Z</time>
      </trkpt>
      <trkpt lat="46.99645" lon="8.86728">
        <ele>1543</ele>
        <time>2021-08-03T11:34:21.132Z</time>
      </trkpt>
      <trkpt lat="46.99641" lon="8.86727">
        <ele>1543</ele>
        <time>2021-08-03T11:34:22.133Z</time>
      </trkpt>
      <trkpt lat="46.99637" lon="8.86725">
        <ele>1543</ele>
        <time>2021-08-03T11:34:23.132Z</time>
      </trkpt>
      <trkpt lat="46.99634" lon="8.86723">
        <ele>1543</ele>
        <time>2021-08-03T11:34:24.132Z</time>
      </trkpt>
      <trkpt lat="46.9963" lon="8.86721">
        <ele>1542</ele>
        <time>2021-08-03T11:34:25.133Z</time>
      </trkpt>
      <trkpt lat="46.99627" lon="8.86718">
        <ele>1542</ele>
        <time>2021-08-03T11:34:26.132Z</time>
      </trkpt>
      <trkpt lat="46.99624" lon="8.86715">
        <ele>1541</ele>
        <time>2021-08-03T11:34:27.132Z</time>
      </trkpt>
      <trkpt lat="46.99622" lon="8.86713">
        <ele>1541</ele>
        <time>2021-08-03T11:34:28.133Z</time>
      </trkpt>
      <trkpt lat="46.99619" lon="8.86711">
        <ele>1541</ele>
        <time>2021-08-03T11:34:29.132Z</time>
      </trkpt>
      <trkpt lat="46.99617" lon="8.8671">
        <ele>1541</ele>
        <time>2021-08-03T11:34:30.133Z</time>
      </trkpt>
      <trkpt lat="46.99615" lon="8.86709">
        <ele>1540</ele>
        <time>2021-08-03T11:34:31.133Z</time>
      </trkpt>
      <trkpt lat="46.99613" lon="8.86708">
        <ele>1540</ele>
        <time>2021-08-03T11:34:32.133Z</time>
      </trkpt>
      <trkpt lat="46.99613" lon="8.86708">
        <ele>1539</ele>
        <time>2021-08-03T11:34:33.132Z</time>
      </trkpt>
      <trkpt lat="46.99613" lon="8.86709">
        <ele>1539</ele>
        <time>2021-08-03T11:34:34.133Z</time>
      </trkpt>
      <trkpt lat="46.99613" lon="8.86709">
        <ele>1538</ele>
        <time>2021-08-03T11:34:35.133Z</time>
      </trkpt>
      <trkpt lat="46.99613" lon="8.86709">
        <ele>1538</ele>
        <time>2021-08-03T11:34:36.132Z</time>
      </trkpt>
      <trkpt lat="46.99614" lon="8.86709">
        <ele>1538</ele>
        <time>2021-08-03T11:34:37.133Z</time>
      </trkpt>
      <trkpt lat="46.99614" lon="8.86708">
        <ele>1549</ele>
        <time>2021-08-03T11:34:38.134Z</time>
      </trkpt>
      <trkpt lat="46.99615" lon="8.86708">
        <ele>1548</ele>
        <time>2021-08-03T11:34:39.134Z</time>
      </trkpt>
      <trkpt lat="46.99615" lon="8.86708">
        <ele>1548</ele>
        <time>2021-08-03T11:34:40.133Z</time>
      </trkpt>
      <trkpt lat="46.99616" lon="8.86708">
        <ele>1548</ele>
        <time>2021-08-03T11:34:41.134Z</time>
      </trkpt>
      <trkpt lat="46.99616" lon="8.86708">
        <ele>1548</ele>
        <time>2021-08-03T11:34:42.134Z</time>
      </trkpt>
      <trkpt lat="46.99619" lon="8.86707">
        <ele>1546</ele>
        <time>2021-08-03T11:34:43.135Z</time>
      </trkpt>
      <trkpt lat="46.99619" lon="8.86707">
        <ele>1545</ele>
        <time>2021-08-03T11:34:44.135Z</time>
      </trkpt>
      <trkpt lat="46.9962" lon="8.86708">
        <ele>1544</ele>
        <time>2021-08-03T11:34:45.134Z</time>
      </trkpt>
      <trkpt lat="46.99621" lon="8.86708">
        <ele>1544</ele>
        <time>2021-08-03T11:34:46.134Z</time>
      </trkpt>
      <trkpt lat="46.99622" lon="8.8671">
        <ele>1544</ele>
        <time>2021-08-03T11:34:47.134Z</time>
      </trkpt>
      <trkpt lat="46.99623" lon="8.86711">
        <ele>1544</ele>
        <time>2021-08-03T11:34:48.134Z</time>
      </trkpt>
      <trkpt lat="46.99624" lon="8.86712">
        <ele>1544</ele>
        <time>2021-08-03T11:34:49.134Z</time>
      </trkpt>
      <trkpt lat="46.99625" lon="8.86713">
        <ele>1543</ele>
        <time>2021-08-03T11:34:50.135Z</time>
      </trkpt>
      <trkpt lat="46.99626" lon="8.86714">
        <ele>1543</ele>
        <time>2021-08-03T11:34:51.135Z</time>
      </trkpt>
      <trkpt lat="46.99627" lon="8.86716">
        <ele>1543</ele>
        <time>2021-08-03T11:34:52.134Z</time>
      </trkpt>
      <trkpt lat="46.99628" lon="8.86717">
        <ele>1543</ele>
        <time>2021-08-03T11:34:53.135Z</time>
      </trkpt>
      <trkpt lat="46.99629" lon="8.86718">
        <ele>1542</ele>
        <time>2021-08-03T11:34:54.134Z</time>
      </trkpt>
      <trkpt lat="46.9963" lon="8.86718">
        <ele>1542</ele>
        <time>2021-08-03T11:34:55.134Z</time>
      </trkpt>
      <trkpt lat="46.99631" lon="8.8672">
        <ele>1542</ele>
        <time>2021-08-03T11:34:56.134Z</time>
      </trkpt>
      <trkpt lat="46.99632" lon="8.86721">
        <ele>1542</ele>
        <time>2021-08-03T11:34:57.134Z</time>
      </trkpt>
      <trkpt lat="46.99633" lon="8.86722">
        <ele>1542</ele>
        <time>2021-08-03T11:34:58.135Z</time>
      </trkpt>
      <trkpt lat="46.99635" lon="8.86723">
        <ele>1542</ele>
        <time>2021-08-03T11:34:59.134Z</time>
      </trkpt>
      <trkpt lat="46.99636" lon="8.86724">
        <ele>1543</ele>
        <time>2021-08-03T11:35:00.134Z</time>
      </trkpt>
      <trkpt lat="46.99636" lon="8.86725">
        <ele>1543</ele>
        <time>2021-08-03T11:35:01.134Z</time>
      </trkpt>
      <trkpt lat="46.99637" lon="8.86726">
        <ele>1544</ele>
        <time>2021-08-03T11:35:02.135Z</time>
      </trkpt>
      <trkpt lat="46.99638" lon="8.86727">
        <ele>1543</ele>
        <time>2021-08-03T11:35:03.134Z</time>
      </trkpt>
      <trkpt lat="46.9964" lon="8.86728">
        <ele>1543</ele>
        <time>2021-08-03T11:35:04.135Z</time>
      </trkpt>
      <trkpt lat="46.99641" lon="8.86728">
        <ele>1543</ele>
        <time>2021-08-03T11:35:05.134Z</time>
      </trkpt>
      <trkpt lat="46.99642" lon="8.86729">
        <ele>1542</ele>
        <time>2021-08-03T11:35:06.134Z</time>
      </trkpt>
      <trkpt lat="46.99643" lon="8.86729">
        <ele>1542</ele>
        <time>2021-08-03T11:35:07.134Z</time>
      </trkpt>
      <trkpt lat="46.99644" lon="8.86729">
        <ele>1541</ele>
        <time>2021-08-03T11:35:08.134Z</time>
      </trkpt>
      <trkpt lat="46.99645" lon="8.8673">
        <ele>1541</ele>
        <time>2021-08-03T11:35:09.134Z</time>
      </trkpt>
      <trkpt lat="46.99646" lon="8.86731">
        <ele>1540</ele>
        <time>2021-08-03T11:35:10.134Z</time>
      </trkpt>
      <trkpt lat="46.99647" lon="8.86731">
        <ele>1540</ele>
        <time>2021-08-03T11:35:11.134Z</time>
      </trkpt>
      <trkpt lat="46.99648" lon="8.86732">
        <ele>1540</ele>
        <time>2021-08-03T11:35:12.134Z</time>
      </trkpt>
      <trkpt lat="46.99649" lon="8.86733">
        <ele>1540</ele>
        <time>2021-08-03T11:35:13.134Z</time>
      </trkpt>
      <trkpt lat="46.99651" lon="8.86733">
        <ele>1540</ele>
        <time>2021-08-03T11:35:14.134Z</time>
      </trkpt>
      <trkpt lat="46.99652" lon="8.86733">
        <ele>1540</ele>
        <time>2021-08-03T11:35:15.134Z</time>
      </trkpt>
      <trkpt lat="46.99653" lon="8.86734">
        <ele>1540</ele>
        <time>2021-08-03T11:35:16.134Z</time>
      </trkpt>
      <trkpt lat="46.99654" lon="8.86734">
        <ele>1539</ele>
        <time>2021-08-03T11:35:17.135Z</time>
      </trkpt>
      <trkpt lat="46.99655" lon="8.86734">
        <ele>1539</ele>
        <time>2021-08-03T11:35:18.135Z</time>
      </trkpt>
      <trkpt lat="46.99657" lon="8.86734">
        <ele>1539</ele>
        <time>2021-08-03T11:35:19.134Z</time>
      </trkpt>
      <trkpt lat="46.99658" lon="8.86734">
        <ele>1539</ele>
        <time>2021-08-03T11:35:20.134Z</time>
      </trkpt>
      <trkpt lat="46.99659" lon="8.86735">
        <ele>1539</ele>
        <time>2021-08-03T11:35:21.134Z</time>
      </trkpt>
      <trkpt lat="46.9966" lon="8.86735">
        <ele>1539</ele>
        <time>2021-08-03T11:35:22.134Z</time>
      </trkpt>
      <trkpt lat="46.99661" lon="8.86735">
        <ele>1539</ele>
        <time>2021-08-03T11:35:23.135Z</time>
      </trkpt>
      <trkpt lat="46.99662" lon="8.86735">
        <ele>1539</ele>
        <time>2021-08-03T11:35:24.135Z</time>
      </trkpt>
      <trkpt lat="46.99663" lon="8.86735">
        <ele>1539</ele>
        <time>2021-08-03T11:35:25.135Z</time>
      </trkpt>
      <trkpt lat="46.99664" lon="8.86736">
        <ele>1539</ele>
        <time>2021-08-03T11:35:26.135Z</time>
      </trkpt>
      <trkpt lat="46.99665" lon="8.86736">
        <ele>1539</ele>
        <time>2021-08-03T11:35:27.135Z</time>
      </trkpt>
      <trkpt lat="46.99666" lon="8.86736">
        <ele>1539</ele>
        <time>2021-08-03T11:35:28.135Z</time>
      </trkpt>
      <trkpt lat="46.99667" lon="8.86736">
        <ele>1539</ele>
        <time>2021-08-03T11:35:29.134Z</time>
      </trkpt>
      <trkpt lat="46.99668" lon="8.86736">
        <ele>1539</ele>
        <time>2021-08-03T11:35:30.134Z</time>
      </trkpt>
      <trkpt lat="46.99669" lon="8.86736">
        <ele>1539</ele>
        <time>2021-08-03T11:35:31.134Z</time>
      </trkpt>
      <trkpt lat="46.9967" lon="8.86736">
        <ele>1540</ele>
        <time>2021-08-03T11:35:32.134Z</time>
      </trkpt>
      <trkpt lat="46.99671" lon="8.86736">
        <ele>1540</ele>
        <time>2021-08-03T11:35:33.135Z</time>
      </trkpt>
      <trkpt lat="46.99672" lon="8.86736">
        <ele>1540</ele>
        <time>2021-08-03T11:35:34.135Z</time>
      </trkpt>
      <trkpt lat="46.99673" lon="8.86735">
        <ele>1541</ele>
        <time>2021-08-03T11:35:35.134Z</time>
      </trkpt>
      <trkpt lat="46.99674" lon="8.86735">
        <ele>1541</ele>
        <time>2021-08-03T11:35:36.134Z</time>
      </trkpt>
      <trkpt lat="46.99675" lon="8.86735">
        <ele>1541</ele>
        <time>2021-08-03T11:35:37.135Z</time>
      </trkpt>
      <trkpt lat="46.99676" lon="8.86735">
        <ele>1541</ele>
        <time>2021-08-03T11:35:38.135Z</time>
      </trkpt>
      <trkpt lat="46.99677" lon="8.86735">
        <ele>1541</ele>
        <time>2021-08-03T11:35:39.134Z</time>
      </trkpt>
      <trkpt lat="46.99678" lon="8.86735">
        <ele>1541</ele>
        <time>2021-08-03T11:35:40.134Z</time>
      </trkpt>
      <trkpt lat="46.99679" lon="8.86735">
        <ele>1542</ele>
        <time>2021-08-03T11:35:41.135Z</time>
      </trkpt>
      <trkpt lat="46.9968" lon="8.86735">
        <ele>1542</ele>
        <time>2021-08-03T11:35:42.135Z</time>
      </trkpt>
      <trkpt lat="46.99681" lon="8.86735">
        <ele>1543</ele>
        <time>2021-08-03T11:35:43.135Z</time>
      </trkpt>
      <trkpt lat="46.99682" lon="8.86735">
        <ele>1544</ele>
        <time>2021-08-03T11:35:44.134Z</time>
      </trkpt>
      <trkpt lat="46.99683" lon="8.86735">
        <ele>1544</ele>
        <time>2021-08-03T11:35:45.134Z</time>
      </trkpt>
      <trkpt lat="46.99683" lon="8.86735">
        <ele>1544</ele>
        <time>2021-08-03T11:35:46.134Z</time>
      </trkpt>
      <trkpt lat="46.99684" lon="8.86735">
        <ele>1544</ele>
        <time>2021-08-03T11:35:47.135Z</time>
      </trkpt>
      <trkpt lat="46.99684" lon="8.86735">
        <ele>1544</ele>
        <time>2021-08-03T11:35:48.135Z</time>
      </trkpt>
      <trkpt lat="46.99685" lon="8.86735">
        <ele>1544</ele>
        <time>2021-08-03T11:35:49.134Z</time>
      </trkpt>
      <trkpt lat="46.99685" lon="8.86735">
        <ele>1544</ele>
        <time>2021-08-03T11:35:50.135Z</time>
      </trkpt>
      <trkpt lat="46.99686" lon="8.86736">
        <ele>1544</ele>
        <time>2021-08-03T11:35:51.135Z</time>
      </trkpt>
      <trkpt lat="46.99687" lon="8.86736">
        <ele>1544</ele>
        <time>2021-08-03T11:35:52.135Z</time>
      </trkpt>
      <trkpt lat="46.99688" lon="8.86735">
        <ele>1544</ele>
        <time>2021-08-03T11:35:53.135Z</time>
      </trkpt>
      <trkpt lat="46.99688" lon="8.86735">
        <ele>1544</ele>
        <time>2021-08-03T11:35:54.134Z</time>
      </trkpt>
      <trkpt lat="46.99689" lon="8.86735">
        <ele>1544</ele>
        <time>2021-08-03T11:35:55.135Z</time>
      </trkpt>
      <trkpt lat="46.9969" lon="8.86735">
        <ele>1544</ele>
        <time>2021-08-03T11:35:56.135Z</time>
      </trkpt>
      <trkpt lat="46.99691" lon="8.86735">
        <ele>1542</ele>
        <time>2021-08-03T11:35:57.134Z</time>
      </trkpt>
      <trkpt lat="46.99692" lon="8.86735">
        <ele>1542</ele>
        <time>2021-08-03T11:35:58.135Z</time>
      </trkpt>
      <trkpt lat="46.99693" lon="8.86735">
        <ele>1542</ele>
        <time>2021-08-03T11:35:59.134Z</time>
      </trkpt>
      <trkpt lat="46.99694" lon="8.86734">
        <ele>1542</ele>
        <time>2021-08-03T11:36:00.134Z</time>
      </trkpt>
      <trkpt lat="46.99695" lon="8.86734">
        <ele>1542</ele>
        <time>2021-08-03T11:36:01.135Z</time>
      </trkpt>
      <trkpt lat="46.99696" lon="8.86734">
        <ele>1542</ele>
        <time>2021-08-03T11:36:02.135Z</time>
      </trkpt>
      <trkpt lat="46.99697" lon="8.86734">
        <ele>1542</ele>
        <time>2021-08-03T11:36:03.135Z</time>
      </trkpt>
      <trkpt lat="46.99699" lon="8.86734">
        <ele>1542</ele>
        <time>2021-08-03T11:36:04.135Z</time>
      </trkpt>
      <trkpt lat="46.997" lon="8.86733">
        <ele>1543</ele>
        <time>2021-08-03T11:36:05.135Z</time>
      </trkpt>
      <trkpt lat="46.99701" lon="8.86733">
        <ele>1543</ele>
        <time>2021-08-03T11:36:06.135Z</time>
      </trkpt>
      <trkpt lat="46.99702" lon="8.86733">
        <ele>1543</ele>
        <time>2021-08-03T11:36:07.135Z</time>
      </trkpt>
      <trkpt lat="46.99703" lon="8.86734">
        <ele>1544</ele>
        <time>2021-08-03T11:36:08.135Z</time>
      </trkpt>
      <trkpt lat="46.99704" lon="8.86734">
        <ele>1544</ele>
        <time>2021-08-03T11:36:09.135Z</time>
      </trkpt>
      <trkpt lat="46.99705" lon="8.86734">
        <ele>1544</ele>
        <time>2021-08-03T11:36:10.134Z</time>
      </trkpt>
      <trkpt lat="46.99706" lon="8.86734">
        <ele>1544</ele>
        <time>2021-08-03T11:36:11.135Z</time>
      </trkpt>
      <trkpt lat="46.99707" lon="8.86734">
        <ele>1544</ele>
        <time>2021-08-03T11:36:12.135Z</time>
      </trkpt>
      <trkpt lat="46.99708" lon="8.86734">
        <ele>1545</ele>
        <time>2021-08-03T11:36:13.135Z</time>
      </trkpt>
      <trkpt lat="46.99709" lon="8.86734">
        <ele>1545</ele>
        <time>2021-08-03T11:36:14.135Z</time>
      </trkpt>
      <trkpt lat="46.9971" lon="8.86734">
        <ele>1545</ele>
        <time>2021-08-03T11:36:15.135Z</time>
      </trkpt>
      <trkpt lat="46.9971" lon="8.86734">
        <ele>1544</ele>
        <time>2021-08-03T11:36:16.135Z</time>
      </trkpt>
      <trkpt lat="46.99711" lon="8.86734">
        <ele>1544</ele>
        <time>2021-08-03T11:36:17.134Z</time>
      </trkpt>
      <trkpt lat="46.99711" lon="8.86733">
        <ele>1543</ele>
        <time>2021-08-03T11:36:23.236Z</time>
      </trkpt>
      <trkpt lat="46.99712" lon="8.86733">
        <ele>1543</ele>
        <time>2021-08-03T11:36:24.235Z</time>
      </trkpt>
      <trkpt lat="46.99712" lon="8.86733">
        <ele>1543</ele>
        <time>2021-08-03T11:36:25.236Z</time>
      </trkpt>
      <trkpt lat="46.99713" lon="8.86733">
        <ele>1543</ele>
        <time>2021-08-03T11:36:47.260Z</time>
      </trkpt>
      <trkpt lat="46.99714" lon="8.86733">
        <ele>1543</ele>
        <time>2021-08-03T11:36:48.260Z</time>
      </trkpt>
      <trkpt lat="46.99715" lon="8.86732">
        <ele>1543</ele>
        <time>2021-08-03T11:37:07.132Z</time>
      </trkpt>
      <trkpt lat="46.99716" lon="8.86732">
        <ele>1543</ele>
        <time>2021-08-03T11:37:08.132Z</time>
      </trkpt>
      <trkpt lat="46.99717" lon="8.86732">
        <ele>1543</ele>
        <time>2021-08-03T11:37:30.971Z</time>
      </trkpt>
      <trkpt lat="46.99719" lon="8.86731">
        <ele>1543</ele>
        <time>2021-08-03T11:37:31.970Z</time>
      </trkpt>
      <trkpt lat="46.9972" lon="8.86731">
        <ele>1543</ele>
        <time>2021-08-03T11:37:32.970Z</time>
      </trkpt>
      <trkpt lat="46.99721" lon="8.86731">
        <ele>1544</ele>
        <time>2021-08-03T11:37:33.970Z</time>
      </trkpt>
      <trkpt lat="46.99722" lon="8.86731">
        <ele>1544</ele>
        <time>2021-08-03T11:37:34.971Z</time>
      </trkpt>
      <trkpt lat="46.99723" lon="8.86731">
        <ele>1544</ele>
        <time>2021-08-03T11:37:35.971Z</time>
      </trkpt>
      <trkpt lat="46.99724" lon="8.8673">
        <ele>1544</ele>
        <time>2021-08-03T11:37:36.971Z</time>
      </trkpt>
      <trkpt lat="46.99725" lon="8.86729">
        <ele>1544</ele>
        <time>2021-08-03T11:37:45.995Z</time>
      </trkpt>
      <trkpt lat="46.99726" lon="8.86729">
        <ele>1544</ele>
        <time>2021-08-03T11:37:46.995Z</time>
      </trkpt>
      <trkpt lat="46.99727" lon="8.86728">
        <ele>1544</ele>
        <time>2021-08-03T11:37:47.995Z</time>
      </trkpt>
      <trkpt lat="46.99729" lon="8.86728">
        <ele>1544</ele>
        <time>2021-08-03T11:37:48.995Z</time>
      </trkpt>
      <trkpt lat="46.9973" lon="8.86727">
        <ele>1544</ele>
        <time>2021-08-03T11:37:49.994Z</time>
      </trkpt>
      <trkpt lat="46.99731" lon="8.86727">
        <ele>1545</ele>
        <time>2021-08-03T11:37:50.995Z</time>
      </trkpt>
      <trkpt lat="46.99732" lon="8.86727">
        <ele>1544</ele>
        <time>2021-08-03T11:37:51.995Z</time>
      </trkpt>
      <trkpt lat="46.99734" lon="8.86726">
        <ele>1544</ele>
        <time>2021-08-03T11:37:52.995Z</time>
      </trkpt>
      <trkpt lat="46.99735" lon="8.86726">
        <ele>1544</ele>
        <time>2021-08-03T11:38:01.110Z</time>
      </trkpt>
      <trkpt lat="46.99736" lon="8.86726">
        <ele>1543</ele>
        <time>2021-08-03T11:38:02.109Z</time>
      </trkpt>
      <trkpt lat="46.99737" lon="8.86726">
        <ele>1543</ele>
        <time>2021-08-03T11:38:03.109Z</time>
      </trkpt>
      <trkpt lat="46.99738" lon="8.86726">
        <ele>1543</ele>
        <time>2021-08-03T11:38:05.126Z</time>
      </trkpt>
      <trkpt lat="46.99739" lon="8.86727">
        <ele>1542</ele>
        <time>2021-08-03T11:38:06.125Z</time>
      </trkpt>
      <trkpt lat="46.9974" lon="8.86728">
        <ele>1542</ele>
        <time>2021-08-03T11:38:07.126Z</time>
      </trkpt>
      <trkpt lat="46.99742" lon="8.86729">
        <ele>1543</ele>
        <time>2021-08-03T11:38:08.126Z</time>
      </trkpt>
      <trkpt lat="46.99742" lon="8.8673">
        <ele>1543</ele>
        <time>2021-08-03T11:38:09.126Z</time>
      </trkpt>
      <trkpt lat="46.99744" lon="8.86731">
        <ele>1543</ele>
        <time>2021-08-03T11:38:10.126Z</time>
      </trkpt>
      <trkpt lat="46.99745" lon="8.86732">
        <ele>1544</ele>
        <time>2021-08-03T11:38:11.125Z</time>
      </trkpt>
      <trkpt lat="46.99746" lon="8.86732">
        <ele>1544</ele>
        <time>2021-08-03T11:38:12.126Z</time>
      </trkpt>
      <trkpt lat="46.99747" lon="8.86733">
        <ele>1543</ele>
        <time>2021-08-03T11:38:13.126Z</time>
      </trkpt>
      <trkpt lat="46.99748" lon="8.86734">
        <ele>1543</ele>
        <time>2021-08-03T11:38:14.125Z</time>
      </trkpt>
      <trkpt lat="46.99749" lon="8.86735">
        <ele>1543</ele>
        <time>2021-08-03T11:38:15.126Z</time>
      </trkpt>
      <trkpt lat="46.9975" lon="8.86736">
        <ele>1543</ele>
        <time>2021-08-03T11:38:16.126Z</time>
      </trkpt>
      <trkpt lat="46.99751" lon="8.86738">
        <ele>1544</ele>
        <time>2021-08-03T11:38:17.125Z</time>
      </trkpt>
      <trkpt lat="46.99752" lon="8.86738">
        <ele>1544</ele>
        <time>2021-08-03T11:38:18.126Z</time>
      </trkpt>
      <trkpt lat="46.99753" lon="8.8674">
        <ele>1544</ele>
        <time>2021-08-03T11:38:19.126Z</time>
      </trkpt>
      <trkpt lat="46.99754" lon="8.86741">
        <ele>1545</ele>
        <time>2021-08-03T11:38:20.126Z</time>
      </trkpt>
      <trkpt lat="46.99755" lon="8.86742">
        <ele>1545</ele>
        <time>2021-08-03T11:38:21.126Z</time>
      </trkpt>
      <trkpt lat="46.99756" lon="8.86742">
        <ele>1544</ele>
        <time>2021-08-03T11:38:22.125Z</time>
      </trkpt>
      <trkpt lat="46.99757" lon="8.86743">
        <ele>1544</ele>
        <time>2021-08-03T11:38:23.125Z</time>
      </trkpt>
      <trkpt lat="46.99758" lon="8.86744">
        <ele>1544</ele>
        <time>2021-08-03T11:38:24.125Z</time>
      </trkpt>
      <trkpt lat="46.99759" lon="8.86745">
        <ele>1543</ele>
        <time>2021-08-03T11:38:25.125Z</time>
      </trkpt>
      <trkpt lat="46.9976" lon="8.86745">
        <ele>1543</ele>
        <time>2021-08-03T11:38:26.125Z</time>
      </trkpt>
      <trkpt lat="46.9976" lon="8.86746">
        <ele>1543</ele>
        <time>2021-08-03T11:38:27.126Z</time>
      </trkpt>
      <trkpt lat="46.99761" lon="8.86746">
        <ele>1543</ele>
        <time>2021-08-03T11:38:28.125Z</time>
      </trkpt>
      <trkpt lat="46.99762" lon="8.86747">
        <ele>1543</ele>
        <time>2021-08-03T11:38:29.125Z</time>
      </trkpt>
      <trkpt lat="46.99762" lon="8.86747">
        <ele>1543</ele>
        <time>2021-08-03T11:38:30.126Z</time>
      </trkpt>
      <trkpt lat="46.99763" lon="8.86748">
        <ele>1544</ele>
        <time>2021-08-03T11:38:31.125Z</time>
      </trkpt>
      <trkpt lat="46.99764" lon="8.86749">
        <ele>1544</ele>
        <time>2021-08-03T11:38:32.126Z</time>
      </trkpt>
      <trkpt lat="46.99765" lon="8.8675">
        <ele>1544</ele>
        <time>2021-08-03T11:38:33.126Z</time>
      </trkpt>
      <trkpt lat="46.99765" lon="8.8675">
        <ele>1544</ele>
        <time>2021-08-03T11:38:34.125Z</time>
      </trkpt>
      <trkpt lat="46.99765" lon="8.8675">
        <ele>1544</ele>
        <time>2021-08-03T11:38:35.126Z</time>
      </trkpt>
      <trkpt lat="46.99765" lon="8.8675">
        <ele>1544</ele>
        <time>2021-08-03T11:38:36.125Z</time>
      </trkpt>
      <trkpt lat="46.99766" lon="8.8675">
        <ele>1544</ele>
        <time>2021-08-03T11:38:37.126Z</time>
      </trkpt>
      <trkpt lat="46.99767" lon="8.86751">
        <ele>1545</ele>
        <time>2021-08-03T11:38:38.125Z</time>
      </trkpt>
      <trkpt lat="46.99768" lon="8.86752">
        <ele>1545</ele>
        <time>2021-08-03T11:38:39.125Z</time>
      </trkpt>
      <trkpt lat="46.99769" lon="8.86753">
        <ele>1546</ele>
        <time>2021-08-03T11:38:40.125Z</time>
      </trkpt>
      <trkpt lat="46.9977" lon="8.86753">
        <ele>1547</ele>
        <time>2021-08-03T11:38:41.125Z</time>
      </trkpt>
      <trkpt lat="46.99771" lon="8.86755">
        <ele>1546</ele>
        <time>2021-08-03T11:38:42.126Z</time>
      </trkpt>
      <trkpt lat="46.99772" lon="8.86756">
        <ele>1546</ele>
        <time>2021-08-03T11:38:43.125Z</time>
      </trkpt>
      <trkpt lat="46.99773" lon="8.86758">
        <ele>1546</ele>
        <time>2021-08-03T11:38:44.126Z</time>
      </trkpt>
      <trkpt lat="46.99774" lon="8.86759">
        <ele>1546</ele>
        <time>2021-08-03T11:38:51.108Z</time>
      </trkpt>
      <trkpt lat="46.99775" lon="8.8676">
        <ele>1546</ele>
        <time>2021-08-03T11:38:52.108Z</time>
      </trkpt>
      <trkpt lat="46.99776" lon="8.86762">
        <ele>1547</ele>
        <time>2021-08-03T11:38:53.108Z</time>
      </trkpt>
      <trkpt lat="46.99777" lon="8.86763">
        <ele>1547</ele>
        <time>2021-08-03T11:38:58.122Z</time>
      </trkpt>
      <trkpt lat="46.99777" lon="8.86764">
        <ele>1547</ele>
        <time>2021-08-03T11:38:59.123Z</time>
      </trkpt>
      <trkpt lat="46.99778" lon="8.86766">
        <ele>1548</ele>
        <time>2021-08-03T11:39:04.256Z</time>
      </trkpt>
      <trkpt lat="46.99779" lon="8.86767">
        <ele>1548</ele>
        <time>2021-08-03T11:39:05.255Z</time>
      </trkpt>
      <trkpt lat="46.9978" lon="8.86768">
        <ele>1548</ele>
        <time>2021-08-03T11:39:06.255Z</time>
      </trkpt>
      <trkpt lat="46.99781" lon="8.8677">
        <ele>1548</ele>
        <time>2021-08-03T11:39:07.256Z</time>
      </trkpt>
      <trkpt lat="46.99782" lon="8.86771">
        <ele>1547</ele>
        <time>2021-08-03T11:39:08.256Z</time>
      </trkpt>
      <trkpt lat="46.99783" lon="8.86772">
        <ele>1547</ele>
        <time>2021-08-03T11:39:09.256Z</time>
      </trkpt>
      <trkpt lat="46.99784" lon="8.86774">
        <ele>1546</ele>
        <time>2021-08-03T11:39:10.255Z</time>
      </trkpt>
      <trkpt lat="46.99785" lon="8.86775">
        <ele>1546</ele>
        <time>2021-08-03T11:39:11.256Z</time>
      </trkpt>
      <trkpt lat="46.99785" lon="8.86777">
        <ele>1546</ele>
        <time>2021-08-03T11:39:12.255Z</time>
      </trkpt>
      <trkpt lat="46.99786" lon="8.86778">
        <ele>1545</ele>
        <time>2021-08-03T11:39:13.256Z</time>
      </trkpt>
      <trkpt lat="46.99787" lon="8.86779">
        <ele>1545</ele>
        <time>2021-08-03T11:39:14.256Z</time>
      </trkpt>
      <trkpt lat="46.99788" lon="8.86781">
        <ele>1545</ele>
        <time>2021-08-03T11:39:15.256Z</time>
      </trkpt>
      <trkpt lat="46.99789" lon="8.86782">
        <ele>1545</ele>
        <time>2021-08-03T11:39:16.255Z</time>
      </trkpt>
      <trkpt lat="46.99789" lon="8.86784">
        <ele>1545</ele>
        <time>2021-08-03T11:39:17.256Z</time>
      </trkpt>
      <trkpt lat="46.9979" lon="8.86785">
        <ele>1545</ele>
        <time>2021-08-03T11:39:18.256Z</time>
      </trkpt>
      <trkpt lat="46.99791" lon="8.86787">
        <ele>1545</ele>
        <time>2021-08-03T11:39:19.255Z</time>
      </trkpt>
      <trkpt lat="46.99792" lon="8.86788">
        <ele>1545</ele>
        <time>2021-08-03T11:39:26.235Z</time>
      </trkpt>
      <trkpt lat="46.99792" lon="8.86789">
        <ele>1544</ele>
        <time>2021-08-03T11:39:27.235Z</time>
      </trkpt>
      <trkpt lat="46.99793" lon="8.86789">
        <ele>1544</ele>
        <time>2021-08-03T11:39:28.236Z</time>
      </trkpt>
      <trkpt lat="46.99793" lon="8.86789">
        <ele>1544</ele>
        <time>2021-08-03T11:39:29.235Z</time>
      </trkpt>
      <trkpt lat="46.99793" lon="8.86789">
        <ele>1544</ele>
        <time>2021-08-03T11:39:30.235Z</time>
      </trkpt>
      <trkpt lat="46.99794" lon="8.8679">
        <ele>1543</ele>
        <time>2021-08-03T11:39:32.261Z</time>
      </trkpt>
      <trkpt lat="46.99794" lon="8.8679">
        <ele>1543</ele>
        <time>2021-08-03T11:39:33.261Z</time>
      </trkpt>
      <trkpt lat="46.99794" lon="8.86789">
        <ele>1543</ele>
        <time>2021-08-03T11:39:34.261Z</time>
      </trkpt>
      <trkpt lat="46.99794" lon="8.86791">
        <ele>1544</ele>
        <time>2021-08-03T11:39:35.261Z</time>
      </trkpt>
      <trkpt lat="46.99794" lon="8.86792">
        <ele>1544</ele>
        <time>2021-08-03T11:39:36.262Z</time>
      </trkpt>
      <trkpt lat="46.99794" lon="8.86794">
        <ele>1545</ele>
        <time>2021-08-03T11:39:37.261Z</time>
      </trkpt>
      <trkpt lat="46.99795" lon="8.86795">
        <ele>1545</ele>
        <time>2021-08-03T11:39:38.261Z</time>
      </trkpt>
      <trkpt lat="46.99795" lon="8.86796">
        <ele>1544</ele>
        <time>2021-08-03T11:39:39.261Z</time>
      </trkpt>
      <trkpt lat="46.99796" lon="8.86795">
        <ele>1544</ele>
        <time>2021-08-03T11:39:40.262Z</time>
      </trkpt>
      <trkpt lat="46.99797" lon="8.86796">
        <ele>1544</ele>
        <time>2021-08-03T11:39:44.380Z</time>
      </trkpt>
      <trkpt lat="46.99797" lon="8.86798">
        <ele>1544</ele>
        <time>2021-08-03T11:39:45.380Z</time>
      </trkpt>
      <trkpt lat="46.99798" lon="8.868">
        <ele>1544</ele>
        <time>2021-08-03T11:39:46.379Z</time>
      </trkpt>
      <trkpt lat="46.99799" lon="8.86802">
        <ele>1544</ele>
        <time>2021-08-03T11:39:47.379Z</time>
      </trkpt>
      <trkpt lat="46.998" lon="8.86803">
        <ele>1544</ele>
        <time>2021-08-03T11:39:48.380Z</time>
      </trkpt>
      <trkpt lat="46.998" lon="8.86804">
        <ele>1544</ele>
        <time>2021-08-03T11:39:49.379Z</time>
      </trkpt>
      <trkpt lat="46.99801" lon="8.86805">
        <ele>1544</ele>
        <time>2021-08-03T11:39:50.380Z</time>
      </trkpt>
      <trkpt lat="46.99802" lon="8.86805">
        <ele>1544</ele>
        <time>2021-08-03T11:39:51.380Z</time>
      </trkpt>
      <trkpt lat="46.99803" lon="8.86807">
        <ele>1544</ele>
        <time>2021-08-03T11:39:52.380Z</time>
      </trkpt>
      <trkpt lat="46.99803" lon="8.86808">
        <ele>1544</ele>
        <time>2021-08-03T11:39:56.482Z</time>
      </trkpt>
      <trkpt lat="46.99803" lon="8.8681">
        <ele>1543</ele>
        <time>2021-08-03T11:39:57.482Z</time>
      </trkpt>
      <trkpt lat="46.99803" lon="8.86811">
        <ele>1543</ele>
        <time>2021-08-03T11:39:58.481Z</time>
      </trkpt>
      <trkpt lat="46.99804" lon="8.86813">
        <ele>1542</ele>
        <time>2021-08-03T11:39:59.482Z</time>
      </trkpt>
      <trkpt lat="46.99805" lon="8.86814">
        <ele>1542</ele>
        <time>2021-08-03T11:40:00.481Z</time>
      </trkpt>
      <trkpt lat="46.99805" lon="8.86816">
        <ele>1541</ele>
        <time>2021-08-03T11:40:01.482Z</time>
      </trkpt>
      <trkpt lat="46.99806" lon="8.86817">
        <ele>1541</ele>
        <time>2021-08-03T11:40:02.482Z</time>
      </trkpt>
      <trkpt lat="46.99807" lon="8.86818">
        <ele>1540</ele>
        <time>2021-08-03T11:40:03.482Z</time>
      </trkpt>
      <trkpt lat="46.99808" lon="8.86819">
        <ele>1540</ele>
        <time>2021-08-03T11:40:04.481Z</time>
      </trkpt>
      <trkpt lat="46.99808" lon="8.8682">
        <ele>1539</ele>
        <time>2021-08-03T11:40:05.482Z</time>
      </trkpt>
      <trkpt lat="46.99809" lon="8.86821">
        <ele>1538</ele>
        <time>2021-08-03T11:40:06.482Z</time>
      </trkpt>
      <trkpt lat="46.9981" lon="8.86822">
        <ele>1538</ele>
        <time>2021-08-03T11:40:07.481Z</time>
      </trkpt>
      <trkpt lat="46.99811" lon="8.86824">
        <ele>1538</ele>
        <time>2021-08-03T11:40:11.472Z</time>
      </trkpt>
      <trkpt lat="46.99811" lon="8.86825">
        <ele>1538</ele>
        <time>2021-08-03T11:40:12.472Z</time>
      </trkpt>
      <trkpt lat="46.99812" lon="8.86827">
        <ele>1538</ele>
        <time>2021-08-03T11:40:13.471Z</time>
      </trkpt>
      <trkpt lat="46.99813" lon="8.86828">
        <ele>1538</ele>
        <time>2021-08-03T11:40:14.472Z</time>
      </trkpt>
      <trkpt lat="46.99814" lon="8.86829">
        <ele>1538</ele>
        <time>2021-08-03T11:40:15.471Z</time>
      </trkpt>
      <trkpt lat="46.99815" lon="8.8683">
        <ele>1538</ele>
        <time>2021-08-03T11:40:16.472Z</time>
      </trkpt>
      <trkpt lat="46.99816" lon="8.86831">
        <ele>1538</ele>
        <time>2021-08-03T11:40:17.472Z</time>
      </trkpt>
      <trkpt lat="46.99817" lon="8.86833">
        <ele>1539</ele>
        <time>2021-08-03T11:40:25.476Z</time>
      </trkpt>
      <trkpt lat="46.99818" lon="8.86834">
        <ele>1539</ele>
        <time>2021-08-03T11:40:26.476Z</time>
      </trkpt>
      <trkpt lat="46.99819" lon="8.86835">
        <ele>1538</ele>
        <time>2021-08-03T11:40:42.261Z</time>
      </trkpt>
      <trkpt lat="46.9982" lon="8.86836">
        <ele>1538</ele>
        <time>2021-08-03T11:40:43.261Z</time>
      </trkpt>
      <trkpt lat="46.99821" lon="8.86837">
        <ele>1538</ele>
        <time>2021-08-03T11:40:55.147Z</time>
      </trkpt>
      <trkpt lat="46.99822" lon="8.86838">
        <ele>1537</ele>
        <time>2021-08-03T11:40:58.007Z</time>
      </trkpt>
      <trkpt lat="46.99823" lon="8.86839">
        <ele>1538</ele>
        <time>2021-08-03T11:40:59.007Z</time>
      </trkpt>
      <trkpt lat="46.99824" lon="8.8684">
        <ele>1538</ele>
        <time>2021-08-03T11:41:00.007Z</time>
      </trkpt>
      <trkpt lat="46.99825" lon="8.86841">
        <ele>1538</ele>
        <time>2021-08-03T11:41:07.101Z</time>
      </trkpt>
      <trkpt lat="46.99826" lon="8.86841">
        <ele>1538</ele>
        <time>2021-08-03T11:41:08.101Z</time>
      </trkpt>
      <trkpt lat="46.99827" lon="8.86842">
        <ele>1538</ele>
        <time>2021-08-03T11:41:09.101Z</time>
      </trkpt>
      <trkpt lat="46.99827" lon="8.86844">
        <ele>1538</ele>
        <time>2021-08-03T11:41:19.150Z</time>
      </trkpt>
      <trkpt lat="46.99827" lon="8.86845">
        <ele>1538</ele>
        <time>2021-08-03T11:41:20.151Z</time>
      </trkpt>
      <trkpt lat="46.99828" lon="8.86845">
        <ele>1538</ele>
        <time>2021-08-03T11:41:21.151Z</time>
      </trkpt>
      <trkpt lat="46.99828" lon="8.86846">
        <ele>1538</ele>
        <time>2021-08-03T11:41:22.151Z</time>
      </trkpt>
      <trkpt lat="46.99828" lon="8.86847">
        <ele>1537</ele>
        <time>2021-08-03T11:41:29.136Z</time>
      </trkpt>
      <trkpt lat="46.99828" lon="8.86848">
        <ele>1537</ele>
        <time>2021-08-03T11:41:30.136Z</time>
      </trkpt>
      <trkpt lat="46.99827" lon="8.86848">
        <ele>1537</ele>
        <time>2021-08-03T11:41:40.994Z</time>
      </trkpt>
      <trkpt lat="46.99827" lon="8.86849">
        <ele>1537</ele>
        <time>2021-08-03T11:41:47.883Z</time>
      </trkpt>
      <trkpt lat="46.99826" lon="8.86849">
        <ele>1538</ele>
        <time>2021-08-03T11:41:48.883Z</time>
      </trkpt>
      <trkpt lat="46.99826" lon="8.86849">
        <ele>1538</ele>
        <time>2021-08-03T11:41:49.883Z</time>
      </trkpt>
      <trkpt lat="46.99826" lon="8.8685">
        <ele>1539</ele>
        <time>2021-08-03T11:41:50.882Z</time>
      </trkpt>
      <trkpt lat="46.99825" lon="8.86853">
        <ele>1539</ele>
        <time>2021-08-03T11:41:51.882Z</time>
      </trkpt>
      <trkpt lat="46.99824" lon="8.86854">
        <ele>1539</ele>
        <time>2021-08-03T11:42:10.883Z</time>
      </trkpt>
      <trkpt lat="46.99824" lon="8.86855">
        <ele>1539</ele>
        <time>2021-08-03T11:42:11.883Z</time>
      </trkpt>
      <trkpt lat="46.99823" lon="8.86855">
        <ele>1539</ele>
        <time>2021-08-03T11:42:25.727Z</time>
      </trkpt>
      <trkpt lat="46.99823" lon="8.86854">
        <ele>1539</ele>
        <time>2021-08-03T11:42:26.727Z</time>
      </trkpt>
      <trkpt lat="46.99823" lon="8.86852">
        <ele>1543</ele>
        <time>2021-08-03T11:42:27.726Z</time>
      </trkpt>
      <trkpt lat="46.99823" lon="8.86852">
        <ele>1543</ele>
        <time>2021-08-03T11:42:28.727Z</time>
      </trkpt>
      <trkpt lat="46.99827" lon="8.86849">
        <ele>1545</ele>
        <time>2021-08-03T11:42:45.759Z</time>
      </trkpt>
      <trkpt lat="46.99827" lon="8.86849">
        <ele>1545</ele>
        <time>2021-08-03T11:42:46.759Z</time>
      </trkpt>
      <trkpt lat="46.99827" lon="8.86849">
        <ele>1544</ele>
        <time>2021-08-03T11:42:47.759Z</time>
      </trkpt>
      <trkpt lat="46.99828" lon="8.86847">
        <ele>1546</ele>
        <time>2021-08-03T11:42:48.761Z</time>
      </trkpt>
      <trkpt lat="46.99828" lon="8.86848">
        <ele>1546</ele>
        <time>2021-08-03T11:43:09.806Z</time>
      </trkpt>
      <trkpt lat="46.99828" lon="8.86848">
        <ele>1546</ele>
        <time>2021-08-03T11:43:10.806Z</time>
      </trkpt>
      <trkpt lat="46.99828" lon="8.86847">
        <ele>1546</ele>
        <time>2021-08-03T11:43:11.806Z</time>
      </trkpt>
      <trkpt lat="46.99827" lon="8.86844">
        <ele>1547</ele>
        <time>2021-08-03T11:43:20.847Z</time>
      </trkpt>
      <trkpt lat="46.99827" lon="8.86844">
        <ele>1547</ele>
        <time>2021-08-03T11:43:21.847Z</time>
      </trkpt>
      <trkpt lat="46.99828" lon="8.86844">
        <ele>1546</ele>
        <time>2021-08-03T11:43:22.847Z</time>
      </trkpt>
      <trkpt lat="46.99828" lon="8.86844">
        <ele>1546</ele>
        <time>2021-08-03T11:43:23.847Z</time>
      </trkpt>
      <trkpt lat="46.99828" lon="8.86844">
        <ele>1546</ele>
        <time>2021-08-03T11:43:28.891Z</time>
      </trkpt>
      <trkpt lat="46.99827" lon="8.86845">
        <ele>1546</ele>
        <time>2021-08-03T11:43:29.890Z</time>
      </trkpt>
      <trkpt lat="46.99828" lon="8.86848">
        <ele>1546</ele>
        <time>2021-08-03T11:43:30.890Z</time>
      </trkpt>
      <trkpt lat="46.99828" lon="8.86848">
        <ele>1547</ele>
        <time>2021-08-03T11:43:31.891Z</time>
      </trkpt>
      <trkpt lat="46.99828" lon="8.86848">
        <ele>1547</ele>
        <time>2021-08-03T11:43:32.890Z</time>
      </trkpt>
      <trkpt lat="46.99828" lon="8.86848">
        <ele>1548</ele>
        <time>2021-08-03T11:43:35.847Z</time>
      </trkpt>
      <trkpt lat="46.99824" lon="8.86845">
        <ele>1552</ele>
        <time>2021-08-03T11:43:36.848Z</time>
      </trkpt>
      <trkpt lat="46.99824" lon="8.86844">
        <ele>1552</ele>
        <time>2021-08-03T11:43:37.848Z</time>
      </trkpt>
      <trkpt lat="46.99824" lon="8.86842">
        <ele>1554</ele>
        <time>2021-08-03T11:43:38.847Z</time>
      </trkpt>
      <trkpt lat="46.99824" lon="8.86841">
        <ele>1555</ele>
        <time>2021-08-03T11:43:39.848Z</time>
      </trkpt>
      <trkpt lat="46.99824" lon="8.86841">
        <ele>1554</ele>
        <time>2021-08-03T11:43:40.847Z</time>
      </trkpt>
      <trkpt lat="46.99824" lon="8.8684">
        <ele>1555</ele>
        <time>2021-08-03T11:43:41.848Z</time>
      </trkpt>
      <trkpt lat="46.99824" lon="8.8684">
        <ele>1555</ele>
        <time>2021-08-03T11:43:42.847Z</time>
      </trkpt>
      <trkpt lat="46.99824" lon="8.8684">
        <ele>1555</ele>
        <time>2021-08-03T11:43:43.847Z</time>
      </trkpt>
      <trkpt lat="46.99824" lon="8.86841">
        <ele>1555</ele>
        <time>2021-08-03T11:43:44.847Z</time>
      </trkpt>
      <trkpt lat="46.99827" lon="8.86845">
        <ele>1550</ele>
        <time>2021-08-03T11:43:46.988Z</time>
      </trkpt>
      <trkpt lat="46.99827" lon="8.86845">
        <ele>1551</ele>
        <time>2021-08-03T11:43:47.987Z</time>
      </trkpt>
      <trkpt lat="46.99826" lon="8.86845">
        <ele>1551</ele>
        <time>2021-08-03T11:43:48.987Z</time>
      </trkpt>
      <trkpt lat="46.99825" lon="8.86845">
        <ele>1551</ele>
        <time>2021-08-03T11:43:49.987Z</time>
      </trkpt>
      <trkpt lat="46.99825" lon="8.86845">
        <ele>1551</ele>
        <time>2021-08-03T11:43:50.987Z</time>
      </trkpt>
      <trkpt lat="46.99824" lon="8.86845">
        <ele>1551</ele>
        <time>2021-08-03T11:44:01.137Z</time>
      </trkpt>
      <trkpt lat="46.99824" lon="8.86846">
        <ele>1550</ele>
        <time>2021-08-03T11:44:02.137Z</time>
      </trkpt>
      <trkpt lat="46.99824" lon="8.86847">
        <ele>1549</ele>
        <time>2021-08-03T11:44:03.136Z</time>
      </trkpt>
      <trkpt lat="46.99824" lon="8.86847">
        <ele>1548</ele>
        <time>2021-08-03T11:44:12.232Z</time>
      </trkpt>
      <trkpt lat="46.99824" lon="8.86848">
        <ele>1548</ele>
        <time>2021-08-03T11:44:13.233Z</time>
      </trkpt>
      <trkpt lat="46.99824" lon="8.86848">
        <ele>1547</ele>
        <time>2021-08-03T11:44:25.109Z</time>
      </trkpt>
      <trkpt lat="46.99824" lon="8.86848">
        <ele>1547</ele>
        <time>2021-08-03T11:44:26.108Z</time>
      </trkpt>
      <trkpt lat="46.99825" lon="8.8685">
        <ele>1544</ele>
        <time>2021-08-03T11:44:27.110Z</time>
      </trkpt>
      <trkpt lat="46.99825" lon="8.8685">
        <ele>1543</ele>
        <time>2021-08-03T11:44:43.135Z</time>
      </trkpt>
      <trkpt lat="46.99826" lon="8.86845">
        <ele>1542</ele>
        <time>2021-08-03T11:44:44.134Z</time>
      </trkpt>
      <trkpt lat="46.99826" lon="8.86844">
        <ele>1542</ele>
        <time>2021-08-03T11:44:45.135Z</time>
      </trkpt>
      <trkpt lat="46.99826" lon="8.86844">
        <ele>1542</ele>
        <time>2021-08-03T11:45:08.110Z</time>
      </trkpt>
      <trkpt lat="46.99826" lon="8.86844">
        <ele>1542</ele>
        <time>2021-08-03T11:45:09.111Z</time>
      </trkpt>
      <trkpt lat="46.99827" lon="8.86843">
        <ele>1542</ele>
        <time>2021-08-03T11:45:34.880Z</time>
      </trkpt>
      <trkpt lat="46.99827" lon="8.86842">
        <ele>1542</ele>
        <time>2021-08-03T11:45:35.880Z</time>
      </trkpt>
      <trkpt lat="46.99827" lon="8.86842">
        <ele>1542</ele>
        <time>2021-08-03T11:45:36.880Z</time>
      </trkpt>
      <trkpt lat="46.99827" lon="8.86841">
        <ele>1541</ele>
        <time>2021-08-03T11:45:37.879Z</time>
      </trkpt>
      <trkpt lat="46.99827" lon="8.86842">
        <ele>1541</ele>
        <time>2021-08-03T11:45:38.880Z</time>
      </trkpt>
      <trkpt lat="46.99826" lon="8.86842">
        <ele>1541</ele>
        <time>2021-08-03T11:45:55.002Z</time>
      </trkpt>
      <trkpt lat="46.99825" lon="8.86844">
        <ele>1541</ele>
        <time>2021-08-03T11:46:27.839Z</time>
      </trkpt>
      <trkpt lat="46.99824" lon="8.86845">
        <ele>1542</ele>
        <time>2021-08-03T11:46:28.840Z</time>
      </trkpt>
      <trkpt lat="46.99824" lon="8.86845">
        <ele>1542</ele>
        <time>2021-08-03T11:46:29.840Z</time>
      </trkpt>
      <trkpt lat="46.99824" lon="8.86844">
        <ele>1543</ele>
        <time>2021-08-03T11:46:30.840Z</time>
      </trkpt>
      <trkpt lat="46.99823" lon="8.86845">
        <ele>1543</ele>
        <time>2021-08-03T11:46:31.839Z</time>
      </trkpt>
      <trkpt lat="46.99823" lon="8.86846">
        <ele>1543</ele>
        <time>2021-08-03T11:46:32.839Z</time>
      </trkpt>
      <trkpt lat="46.99822" lon="8.86847">
        <ele>1544</ele>
        <time>2021-08-03T11:46:33.840Z</time>
      </trkpt>
      <trkpt lat="46.99822" lon="8.86847">
        <ele>1545</ele>
        <time>2021-08-03T11:46:34.840Z</time>
      </trkpt>
      <trkpt lat="46.99822" lon="8.86847">
        <ele>1545</ele>
        <time>2021-08-03T11:46:35.840Z</time>
      </trkpt>
      <trkpt lat="46.99821" lon="8.86848">
        <ele>1546</ele>
        <time>2021-08-03T11:46:36.839Z</time>
      </trkpt>
      <trkpt lat="46.99822" lon="8.86848">
        <ele>1549</ele>
        <time>2021-08-03T11:46:37.839Z</time>
      </trkpt>
      <trkpt lat="46.99822" lon="8.86849">
        <ele>1550</ele>
        <time>2021-08-03T11:46:38.839Z</time>
      </trkpt>
      <trkpt lat="46.9982" lon="8.8685">
        <ele>1551</ele>
        <time>2021-08-03T11:46:39.840Z</time>
      </trkpt>
      <trkpt lat="46.9982" lon="8.86851">
        <ele>1552</ele>
        <time>2021-08-03T11:46:40.839Z</time>
      </trkpt>
      <trkpt lat="46.99819" lon="8.86851">
        <ele>1552</ele>
        <time>2021-08-03T11:46:41.839Z</time>
      </trkpt>
      <trkpt lat="46.99819" lon="8.86852">
        <ele>1553</ele>
        <time>2021-08-03T11:46:42.840Z</time>
      </trkpt>
      <trkpt lat="46.99819" lon="8.86852">
        <ele>1553</ele>
        <time>2021-08-03T11:46:43.839Z</time>
      </trkpt>
      <trkpt lat="46.99819" lon="8.86852">
        <ele>1552</ele>
        <time>2021-08-03T11:46:44.840Z</time>
      </trkpt>
      <trkpt lat="46.9982" lon="8.86851">
        <ele>1552</ele>
        <time>2021-08-03T11:46:45.840Z</time>
      </trkpt>
      <trkpt lat="46.9982" lon="8.8685">
        <ele>1552</ele>
        <time>2021-08-03T11:46:46.840Z</time>
      </trkpt>
      <trkpt lat="46.9982" lon="8.8685">
        <ele>1552</ele>
        <time>2021-08-03T11:46:47.839Z</time>
      </trkpt>
      <trkpt lat="46.99821" lon="8.86849">
        <ele>1552</ele>
        <time>2021-08-03T11:46:48.840Z</time>
      </trkpt>
      <trkpt lat="46.99822" lon="8.8685">
        <ele>1552</ele>
        <time>2021-08-03T11:46:49.840Z</time>
      </trkpt>
      <trkpt lat="46.99823" lon="8.8685">
        <ele>1552</ele>
        <time>2021-08-03T11:46:50.839Z</time>
      </trkpt>
      <trkpt lat="46.99823" lon="8.86851">
        <ele>1552</ele>
        <time>2021-08-03T11:46:51.840Z</time>
      </trkpt>
      <trkpt lat="46.99823" lon="8.86851">
        <ele>1552</ele>
        <time>2021-08-03T11:46:52.840Z</time>
      </trkpt>
      <trkpt lat="46.99823" lon="8.8685">
        <ele>1553</ele>
        <time>2021-08-03T11:46:53.840Z</time>
      </trkpt>
      <trkpt lat="46.99824" lon="8.86849">
        <ele>1553</ele>
        <time>2021-08-03T11:46:54.840Z</time>
      </trkpt>
      <trkpt lat="46.99824" lon="8.86848">
        <ele>1554</ele>
        <time>2021-08-03T11:46:55.839Z</time>
      </trkpt>
      <trkpt lat="46.99825" lon="8.86847">
        <ele>1554</ele>
        <time>2021-08-03T11:46:56.839Z</time>
      </trkpt>
      <trkpt lat="46.99823" lon="8.86848">
        <ele>1555</ele>
        <time>2021-08-03T11:46:57.841Z</time>
      </trkpt>
      <trkpt lat="46.99822" lon="8.86849">
        <ele>1555</ele>
        <time>2021-08-03T11:46:58.841Z</time>
      </trkpt>
      <trkpt lat="46.99821" lon="8.8685">
        <ele>1555</ele>
        <time>2021-08-03T11:46:59.841Z</time>
      </trkpt>
      <trkpt lat="46.99822" lon="8.8685">
        <ele>1555</ele>
        <time>2021-08-03T11:47:00.841Z</time>
      </trkpt>
      <trkpt lat="46.99821" lon="8.8685">
        <ele>1556</ele>
        <time>2021-08-03T11:47:01.841Z</time>
      </trkpt>
      <trkpt lat="46.9982" lon="8.8685">
        <ele>1556</ele>
        <time>2021-08-03T11:47:02.842Z</time>
      </trkpt>
      <trkpt lat="46.9982" lon="8.86851">
        <ele>1558</ele>
        <time>2021-08-03T11:47:03.842Z</time>
      </trkpt>
      <trkpt lat="46.99821" lon="8.86851">
        <ele>1559</ele>
        <time>2021-08-03T11:47:04.842Z</time>
      </trkpt>
      <trkpt lat="46.99822" lon="8.8685">
        <ele>1559</ele>
        <time>2021-08-03T11:47:05.842Z</time>
      </trkpt>
      <trkpt lat="46.99822" lon="8.8685">
        <ele>1559</ele>
        <time>2021-08-03T11:47:06.842Z</time>
      </trkpt>
      <trkpt lat="46.99822" lon="8.86849">
        <ele>1560</ele>
        <time>2021-08-03T11:47:07.842Z</time>
      </trkpt>
      <trkpt lat="46.99822" lon="8.86849">
        <ele>1560</ele>
        <time>2021-08-03T11:47:08.842Z</time>
      </trkpt>
      <trkpt lat="46.99822" lon="8.8685">
        <ele>1561</ele>
        <time>2021-08-03T11:47:09.842Z</time>
      </trkpt>
      <trkpt lat="46.99821" lon="8.86851">
        <ele>1561</ele>
        <time>2021-08-03T11:47:10.841Z</time>
      </trkpt>
      <trkpt lat="46.99821" lon="8.86852">
        <ele>1561</ele>
        <time>2021-08-03T11:47:11.842Z</time>
      </trkpt>
      <trkpt lat="46.99821" lon="8.86853">
        <ele>1561</ele>
        <time>2021-08-03T11:47:12.842Z</time>
      </trkpt>
      <trkpt lat="46.9982" lon="8.86855">
        <ele>1561</ele>
        <time>2021-08-03T11:47:13.841Z</time>
      </trkpt>
      <trkpt lat="46.99819" lon="8.86856">
        <ele>1561</ele>
        <time>2021-08-03T11:47:14.842Z</time>
      </trkpt>
      <trkpt lat="46.99819" lon="8.86856">
        <ele>1561</ele>
        <time>2021-08-03T11:47:15.841Z</time>
      </trkpt>
      <trkpt lat="46.99819" lon="8.86856">
        <ele>1561</ele>
        <time>2021-08-03T11:47:16.842Z</time>
      </trkpt>
      <trkpt lat="46.99821" lon="8.86853">
        <ele>1560</ele>
        <time>2021-08-03T11:47:17.842Z</time>
      </trkpt>
      <trkpt lat="46.99822" lon="8.86853">
        <ele>1560</ele>
        <time>2021-08-03T11:47:18.841Z</time>
      </trkpt>
      <trkpt lat="46.99822" lon="8.86853">
        <ele>1560</ele>
        <time>2021-08-03T11:47:19.842Z</time>
      </trkpt>
      <trkpt lat="46.99822" lon="8.86852">
        <ele>1560</ele>
        <time>2021-08-03T11:47:20.841Z</time>
      </trkpt>
      <trkpt lat="46.99822" lon="8.86852">
        <ele>1559</ele>
        <time>2021-08-03T11:47:21.842Z</time>
      </trkpt>
      <trkpt lat="46.99822" lon="8.86852">
        <ele>1559</ele>
        <time>2021-08-03T11:47:22.842Z</time>
      </trkpt>
      <trkpt lat="46.99824" lon="8.8685">
        <ele>1556</ele>
        <time>2021-08-03T11:47:23.843Z</time>
      </trkpt>
      <trkpt lat="46.99826" lon="8.86848">
        <ele>1556</ele>
        <time>2021-08-03T11:47:24.843Z</time>
      </trkpt>
      <trkpt lat="46.99827" lon="8.86847">
        <ele>1556</ele>
        <time>2021-08-03T11:47:25.842Z</time>
      </trkpt>
      <trkpt lat="46.99827" lon="8.86847">
        <ele>1555</ele>
        <time>2021-08-03T11:47:26.843Z</time>
      </trkpt>
      <trkpt lat="46.99826" lon="8.86848">
        <ele>1555</ele>
        <time>2021-08-03T11:47:27.843Z</time>
      </trkpt>
      <trkpt lat="46.99826" lon="8.86847">
        <ele>1556</ele>
        <time>2021-08-03T11:47:28.842Z</time>
      </trkpt>
      <trkpt lat="46.99825" lon="8.86848">
        <ele>1556</ele>
        <time>2021-08-03T11:47:29.843Z</time>
      </trkpt>
      <trkpt lat="46.99825" lon="8.86848">
        <ele>1556</ele>
        <time>2021-08-03T11:47:30.843Z</time>
      </trkpt>
      <trkpt lat="46.99824" lon="8.86848">
        <ele>1557</ele>
        <time>2021-08-03T11:47:31.843Z</time>
      </trkpt>
      <trkpt lat="46.99823" lon="8.86848">
        <ele>1557</ele>
        <time>2021-08-03T11:47:32.842Z</time>
      </trkpt>
      <trkpt lat="46.99823" lon="8.86848">
        <ele>1557</ele>
        <time>2021-08-03T11:47:33.843Z</time>
      </trkpt>
      <trkpt lat="46.99823" lon="8.86848">
        <ele>1557</ele>
        <time>2021-08-03T11:47:34.843Z</time>
      </trkpt>
      <trkpt lat="46.99823" lon="8.86848">
        <ele>1557</ele>
        <time>2021-08-03T11:47:35.842Z</time>
      </trkpt>
      <trkpt lat="46.99824" lon="8.86848">
        <ele>1557</ele>
        <time>2021-08-03T11:47:41.881Z</time>
      </trkpt>
      <trkpt lat="46.99825" lon="8.86848">
        <ele>1557</ele>
        <time>2021-08-03T11:47:42.882Z</time>
      </trkpt>
      <trkpt lat="46.99826" lon="8.86847">
        <ele>1557</ele>
        <time>2021-08-03T11:47:46.758Z</time>
      </trkpt>
      <trkpt lat="46.99826" lon="8.86845">
        <ele>1556</ele>
        <time>2021-08-03T11:47:47.758Z</time>
      </trkpt>
      <trkpt lat="46.99827" lon="8.86844">
        <ele>1556</ele>
        <time>2021-08-03T11:47:48.757Z</time>
      </trkpt>
      <trkpt lat="46.99827" lon="8.86844">
        <ele>1555</ele>
        <time>2021-08-03T11:47:49.757Z</time>
      </trkpt>
      <trkpt lat="46.99827" lon="8.86843">
        <ele>1555</ele>
        <time>2021-08-03T11:47:50.757Z</time>
      </trkpt>
      <trkpt lat="46.99827" lon="8.86843">
        <ele>1555</ele>
        <time>2021-08-03T11:47:51.758Z</time>
      </trkpt>
      <trkpt lat="46.99828" lon="8.86843">
        <ele>1555</ele>
        <time>2021-08-03T11:47:52.758Z</time>
      </trkpt>
      <trkpt lat="46.99828" lon="8.86844">
        <ele>1554</ele>
        <time>2021-08-03T11:47:53.758Z</time>
      </trkpt>
      <trkpt lat="46.99826" lon="8.86845">
        <ele>1550</ele>
        <time>2021-08-03T11:47:54.759Z</time>
      </trkpt>
      <trkpt lat="46.99826" lon="8.86845">
        <ele>1549</ele>
        <time>2021-08-03T11:47:55.758Z</time>
      </trkpt>
      <trkpt lat="46.99825" lon="8.86845">
        <ele>1549</ele>
        <time>2021-08-03T11:47:56.758Z</time>
      </trkpt>
      <trkpt lat="46.99825" lon="8.86845">
        <ele>1548</ele>
        <time>2021-08-03T11:47:57.758Z</time>
      </trkpt>
      <trkpt lat="46.99825" lon="8.86845">
        <ele>1547</ele>
        <time>2021-08-03T11:47:58.759Z</time>
      </trkpt>
      <trkpt lat="46.99824" lon="8.86844">
        <ele>1547</ele>
        <time>2021-08-03T11:47:59.758Z</time>
      </trkpt>
      <trkpt lat="46.99823" lon="8.86845">
        <ele>1546</ele>
        <time>2021-08-03T11:48:00.758Z</time>
      </trkpt>
      <trkpt lat="46.99823" lon="8.86844">
        <ele>1546</ele>
        <time>2021-08-03T11:48:01.759Z</time>
      </trkpt>
      <trkpt lat="46.99823" lon="8.86844">
        <ele>1546</ele>
        <time>2021-08-03T11:48:02.758Z</time>
      </trkpt>
      <trkpt lat="46.99824" lon="8.86844">
        <ele>1546</ele>
        <time>2021-08-03T11:48:03.758Z</time>
      </trkpt>
      <trkpt lat="46.99825" lon="8.86845">
        <ele>1546</ele>
        <time>2021-08-03T11:48:04.758Z</time>
      </trkpt>
      <trkpt lat="46.99825" lon="8.86845">
        <ele>1547</ele>
        <time>2021-08-03T11:48:05.758Z</time>
      </trkpt>
      <trkpt lat="46.99825" lon="8.86845">
        <ele>1547</ele>
        <time>2021-08-03T11:48:06.759Z</time>
      </trkpt>
      <trkpt lat="46.99825" lon="8.86846">
        <ele>1547</ele>
        <time>2021-08-03T11:48:07.758Z</time>
      </trkpt>
      <trkpt lat="46.99825" lon="8.86846">
        <ele>1547</ele>
        <time>2021-08-03T11:48:08.758Z</time>
      </trkpt>
      <trkpt lat="46.99824" lon="8.86849">
        <ele>1546</ele>
        <time>2021-08-03T11:48:09.759Z</time>
      </trkpt>
      <trkpt lat="46.99824" lon="8.8685">
        <ele>1546</ele>
        <time>2021-08-03T11:48:10.758Z</time>
      </trkpt>
      <trkpt lat="46.99823" lon="8.8685">
        <ele>1547</ele>
        <time>2021-08-03T11:48:11.759Z</time>
      </trkpt>
      <trkpt lat="46.99823" lon="8.8685">
        <ele>1547</ele>
        <time>2021-08-03T11:48:12.758Z</time>
      </trkpt>
      <trkpt lat="46.99823" lon="8.8685">
        <ele>1547</ele>
        <time>2021-08-03T11:48:13.759Z</time>
      </trkpt>
      <trkpt lat="46.99824" lon="8.86848">
        <ele>1547</ele>
        <time>2021-08-03T11:48:14.759Z</time>
      </trkpt>
      <trkpt lat="46.99825" lon="8.86847">
        <ele>1548</ele>
        <time>2021-08-03T11:48:15.759Z</time>
      </trkpt>
      <trkpt lat="46.99826" lon="8.86847">
        <ele>1548</ele>
        <time>2021-08-03T11:48:16.759Z</time>
      </trkpt>
      <trkpt lat="46.99826" lon="8.86845">
        <ele>1550</ele>
        <time>2021-08-03T11:48:17.761Z</time>
      </trkpt>
      <trkpt lat="46.99826" lon="8.86846">
        <ele>1550</ele>
        <time>2021-08-03T11:48:18.760Z</time>
      </trkpt>
      <trkpt lat="46.99826" lon="8.86846">
        <ele>1550</ele>
        <time>2021-08-03T11:48:19.760Z</time>
      </trkpt>
      <trkpt lat="46.99827" lon="8.86846">
        <ele>1552</ele>
        <time>2021-08-03T11:48:20.761Z</time>
      </trkpt>
      <trkpt lat="46.99827" lon="8.86847">
        <ele>1551</ele>
        <time>2021-08-03T11:48:21.761Z</time>
      </trkpt>
      <trkpt lat="46.99828" lon="8.86847">
        <ele>1551</ele>
        <time>2021-08-03T11:48:22.760Z</time>
      </trkpt>
      <trkpt lat="46.99828" lon="8.86846">
        <ele>1550</ele>
        <time>2021-08-03T11:48:23.760Z</time>
      </trkpt>
      <trkpt lat="46.99829" lon="8.86845">
        <ele>1550</ele>
        <time>2021-08-03T11:48:24.761Z</time>
      </trkpt>
      <trkpt lat="46.99829" lon="8.86845">
        <ele>1549</ele>
        <time>2021-08-03T11:48:25.761Z</time>
      </trkpt>
      <trkpt lat="46.99829" lon="8.86844">
        <ele>1548</ele>
        <time>2021-08-03T11:48:26.761Z</time>
      </trkpt>
      <trkpt lat="46.99828" lon="8.86844">
        <ele>1550</ele>
        <time>2021-08-03T11:48:27.761Z</time>
      </trkpt>
      <trkpt lat="46.99828" lon="8.86844">
        <ele>1550</ele>
        <time>2021-08-03T11:48:28.762Z</time>
      </trkpt>
      <trkpt lat="46.99827" lon="8.86846">
        <ele>1546</ele>
        <time>2021-08-03T11:48:29.762Z</time>
      </trkpt>
      <trkpt lat="46.99827" lon="8.86847">
        <ele>1546</ele>
        <time>2021-08-03T11:48:30.762Z</time>
      </trkpt>
      <trkpt lat="46.99827" lon="8.86847">
        <ele>1544</ele>
        <time>2021-08-03T11:48:31.762Z</time>
      </trkpt>
      <trkpt lat="46.99827" lon="8.86847">
        <ele>1544</ele>
        <time>2021-08-03T11:48:32.762Z</time>
      </trkpt>
      <trkpt lat="46.99827" lon="8.86847">
        <ele>1545</ele>
        <time>2021-08-03T11:48:33.762Z</time>
      </trkpt>
      <trkpt lat="46.99826" lon="8.86848">
        <ele>1546</ele>
        <time>2021-08-03T11:48:34.762Z</time>
      </trkpt>
      <trkpt lat="46.99826" lon="8.86848">
        <ele>1546</ele>
        <time>2021-08-03T11:48:35.761Z</time>
      </trkpt>
      <trkpt lat="46.99826" lon="8.86849">
        <ele>1546</ele>
        <time>2021-08-03T11:48:36.761Z</time>
      </trkpt>
      <trkpt lat="46.99827" lon="8.86849">
        <ele>1547</ele>
        <time>2021-08-03T11:48:37.762Z</time>
      </trkpt>
      <trkpt lat="46.99827" lon="8.86848">
        <ele>1547</ele>
        <time>2021-08-03T11:48:38.761Z</time>
      </trkpt>
      <trkpt lat="46.99827" lon="8.86848">
        <ele>1547</ele>
        <time>2021-08-03T11:48:39.761Z</time>
      </trkpt>
      <trkpt lat="46.99828" lon="8.86848">
        <ele>1546</ele>
        <time>2021-08-03T11:48:40.762Z</time>
      </trkpt>
      <trkpt lat="46.99829" lon="8.86848">
        <ele>1547</ele>
        <time>2021-08-03T11:48:41.763Z</time>
      </trkpt>
      <trkpt lat="46.9983" lon="8.86847">
        <ele>1546</ele>
        <time>2021-08-03T11:48:42.763Z</time>
      </trkpt>
      <trkpt lat="46.9983" lon="8.86847">
        <ele>1546</ele>
        <time>2021-08-03T11:48:43.762Z</time>
      </trkpt>
      <trkpt lat="46.9983" lon="8.86847">
        <ele>1547</ele>
        <time>2021-08-03T11:48:44.762Z</time>
      </trkpt>
      <trkpt lat="46.9983" lon="8.86848">
        <ele>1547</ele>
        <time>2021-08-03T11:48:45.763Z</time>
      </trkpt>
      <trkpt lat="46.9983" lon="8.86848">
        <ele>1548</ele>
        <time>2021-08-03T11:48:46.763Z</time>
      </trkpt>
      <trkpt lat="46.99829" lon="8.86847">
        <ele>1545</ele>
        <time>2021-08-03T11:48:47.764Z</time>
      </trkpt>
      <trkpt lat="46.99829" lon="8.86846">
        <ele>1545</ele>
        <time>2021-08-03T11:48:48.764Z</time>
      </trkpt>
      <trkpt lat="46.99826" lon="8.86846">
        <ele>1547</ele>
        <time>2021-08-03T11:48:50.764Z</time>
      </trkpt>
      <trkpt lat="46.99826" lon="8.86846">
        <ele>1546</ele>
        <time>2021-08-03T11:48:51.764Z</time>
      </trkpt>
      <trkpt lat="46.99826" lon="8.86847">
        <ele>1547</ele>
        <time>2021-08-03T11:48:52.765Z</time>
      </trkpt>
      <trkpt lat="46.99826" lon="8.86847">
        <ele>1547</ele>
        <time>2021-08-03T11:48:53.764Z</time>
      </trkpt>
      <trkpt lat="46.99829" lon="8.8684">
        <ele>1547</ele>
        <time>2021-08-03T11:48:54.765Z</time>
      </trkpt>
      <trkpt lat="46.99829" lon="8.8684">
        <ele>1547</ele>
        <time>2021-08-03T11:48:55.764Z</time>
      </trkpt>
      <trkpt lat="46.99829" lon="8.86842">
        <ele>1547</ele>
        <time>2021-08-03T11:48:56.764Z</time>
      </trkpt>
      <trkpt lat="46.9983" lon="8.86842">
        <ele>1547</ele>
        <time>2021-08-03T11:48:57.765Z</time>
      </trkpt>
      <trkpt lat="46.9983" lon="8.86842">
        <ele>1547</ele>
        <time>2021-08-03T11:48:58.765Z</time>
      </trkpt>
      <trkpt lat="46.9983" lon="8.86842">
        <ele>1547</ele>
        <time>2021-08-03T11:48:59.765Z</time>
      </trkpt>
      <trkpt lat="46.99831" lon="8.86843">
        <ele>1548</ele>
        <time>2021-08-03T11:49:00.765Z</time>
      </trkpt>
      <trkpt lat="46.99831" lon="8.86843">
        <ele>1548</ele>
        <time>2021-08-03T11:49:01.764Z</time>
      </trkpt>
      <trkpt lat="46.99829" lon="8.86845">
        <ele>1548</ele>
        <time>2021-08-03T11:49:02.765Z</time>
      </trkpt>
      <trkpt lat="46.99828" lon="8.86848">
        <ele>1548</ele>
        <time>2021-08-03T11:49:03.765Z</time>
      </trkpt>
      <trkpt lat="46.99828" lon="8.86849">
        <ele>1549</ele>
        <time>2021-08-03T11:49:04.765Z</time>
      </trkpt>
      <trkpt lat="46.99828" lon="8.8685">
        <ele>1549</ele>
        <time>2021-08-03T11:49:05.765Z</time>
      </trkpt>
      <trkpt lat="46.99827" lon="8.86849">
        <ele>1549</ele>
        <time>2021-08-03T11:49:06.765Z</time>
      </trkpt>
      <trkpt lat="46.99827" lon="8.86849">
        <ele>1549</ele>
        <time>2021-08-03T11:49:07.764Z</time>
      </trkpt>
      <trkpt lat="46.99826" lon="8.86849">
        <ele>1549</ele>
        <time>2021-08-03T11:49:08.765Z</time>
      </trkpt>
      <trkpt lat="46.99826" lon="8.86849">
        <ele>1549</ele>
        <time>2021-08-03T11:49:09.765Z</time>
      </trkpt>
      <trkpt lat="46.99826" lon="8.8685">
        <ele>1549</ele>
        <time>2021-08-03T11:49:10.765Z</time>
      </trkpt>
      <trkpt lat="46.99826" lon="8.86849">
        <ele>1549</ele>
        <time>2021-08-03T11:49:11.765Z</time>
      </trkpt>
      <trkpt lat="46.99826" lon="8.86849">
        <ele>1548</ele>
        <time>2021-08-03T11:49:12.764Z</time>
      </trkpt>
      <trkpt lat="46.99827" lon="8.86848">
        <ele>1548</ele>
        <time>2021-08-03T11:49:13.764Z</time>
      </trkpt>
      <trkpt lat="46.99827" lon="8.86847">
        <ele>1548</ele>
        <time>2021-08-03T11:49:14.764Z</time>
      </trkpt>
      <trkpt lat="46.99827" lon="8.86848">
        <ele>1547</ele>
        <time>2021-08-03T11:49:15.764Z</time>
      </trkpt>
      <trkpt lat="46.99828" lon="8.86847">
        <ele>1547</ele>
        <time>2021-08-03T11:49:16.764Z</time>
      </trkpt>
      <trkpt lat="46.99829" lon="8.86846">
        <ele>1547</ele>
        <time>2021-08-03T11:49:17.764Z</time>
      </trkpt>
      <trkpt lat="46.99829" lon="8.86846">
        <ele>1546</ele>
        <time>2021-08-03T11:49:18.765Z</time>
      </trkpt>
      <trkpt lat="46.99829" lon="8.86844">
        <ele>1545</ele>
        <time>2021-08-03T11:49:19.766Z</time>
      </trkpt>
      <trkpt lat="46.99829" lon="8.86844">
        <ele>1545</ele>
        <time>2021-08-03T11:49:20.765Z</time>
      </trkpt>
      <trkpt lat="46.9983" lon="8.86844">
        <ele>1544</ele>
        <time>2021-08-03T11:49:21.766Z</time>
      </trkpt>
      <trkpt lat="46.99831" lon="8.86842">
        <ele>1544</ele>
        <time>2021-08-03T11:49:22.766Z</time>
      </trkpt>
      <trkpt lat="46.99832" lon="8.86841">
        <ele>1544</ele>
        <time>2021-08-03T11:49:23.766Z</time>
      </trkpt>
      <trkpt lat="46.99832" lon="8.86841">
        <ele>1543</ele>
        <time>2021-08-03T11:49:24.766Z</time>
      </trkpt>
      <trkpt lat="46.99833" lon="8.8684">
        <ele>1543</ele>
        <time>2021-08-03T11:49:25.766Z</time>
      </trkpt>
      <trkpt lat="46.99833" lon="8.8684">
        <ele>1543</ele>
        <time>2021-08-03T11:49:26.765Z</time>
      </trkpt>
      <trkpt lat="46.99833" lon="8.86841">
        <ele>1543</ele>
        <time>2021-08-03T11:49:27.765Z</time>
      </trkpt>
      <trkpt lat="46.99833" lon="8.86841">
        <ele>1543</ele>
        <time>2021-08-03T11:49:28.765Z</time>
      </trkpt>
      <trkpt lat="46.99832" lon="8.86842">
        <ele>1543</ele>
        <time>2021-08-03T11:49:29.766Z</time>
      </trkpt>
      <trkpt lat="46.99832" lon="8.86843">
        <ele>1544</ele>
        <time>2021-08-03T11:49:30.766Z</time>
      </trkpt>
      <trkpt lat="46.99831" lon="8.86844">
        <ele>1544</ele>
        <time>2021-08-03T11:49:31.766Z</time>
      </trkpt>
      <trkpt lat="46.99831" lon="8.86844">
        <ele>1545</ele>
        <time>2021-08-03T11:49:32.766Z</time>
      </trkpt>
      <trkpt lat="46.99831" lon="8.86845">
        <ele>1545</ele>
        <time>2021-08-03T11:49:33.766Z</time>
      </trkpt>
      <trkpt lat="46.99831" lon="8.86845">
        <ele>1546</ele>
        <time>2021-08-03T11:49:34.766Z</time>
      </trkpt>
      <trkpt lat="46.99832" lon="8.86846">
        <ele>1546</ele>
        <time>2021-08-03T11:49:35.766Z</time>
      </trkpt>
      <trkpt lat="46.99834" lon="8.86844">
        <ele>1547</ele>
        <time>2021-08-03T11:49:36.766Z</time>
      </trkpt>
      <trkpt lat="46.99834" lon="8.86844">
        <ele>1547</ele>
        <time>2021-08-03T11:49:37.765Z</time>
      </trkpt>
      <trkpt lat="46.99833" lon="8.86843">
        <ele>1548</ele>
        <time>2021-08-03T11:49:38.766Z</time>
      </trkpt>
      <trkpt lat="46.99833" lon="8.86844">
        <ele>1549</ele>
        <time>2021-08-03T11:49:39.766Z</time>
      </trkpt>
      <trkpt lat="46.99833" lon="8.86844">
        <ele>1549</ele>
        <time>2021-08-03T11:49:40.766Z</time>
      </trkpt>
      <trkpt lat="46.99833" lon="8.86845">
        <ele>1551</ele>
        <time>2021-08-03T11:49:41.767Z</time>
      </trkpt>
      <trkpt lat="46.99832" lon="8.86846">
        <ele>1551</ele>
        <time>2021-08-03T11:49:42.766Z</time>
      </trkpt>
      <trkpt lat="46.99831" lon="8.86847">
        <ele>1551</ele>
        <time>2021-08-03T11:49:43.767Z</time>
      </trkpt>
      <trkpt lat="46.99831" lon="8.86848">
        <ele>1552</ele>
        <time>2021-08-03T11:49:44.766Z</time>
      </trkpt>
      <trkpt lat="46.99832" lon="8.86848">
        <ele>1552</ele>
        <time>2021-08-03T11:49:45.766Z</time>
      </trkpt>
      <trkpt lat="46.99832" lon="8.86848">
        <ele>1551</ele>
        <time>2021-08-03T11:49:46.767Z</time>
      </trkpt>
      <trkpt lat="46.99832" lon="8.86848">
        <ele>1551</ele>
        <time>2021-08-03T11:49:47.766Z</time>
      </trkpt>
      <trkpt lat="46.99832" lon="8.86846">
        <ele>1551</ele>
        <time>2021-08-03T11:49:48.768Z</time>
      </trkpt>
      <trkpt lat="46.99832" lon="8.86846">
        <ele>1551</ele>
        <time>2021-08-03T11:49:49.767Z</time>
      </trkpt>
      <trkpt lat="46.99832" lon="8.86845">
        <ele>1552</ele>
        <time>2021-08-03T11:49:50.767Z</time>
      </trkpt>
      <trkpt lat="46.99831" lon="8.86845">
        <ele>1552</ele>
        <time>2021-08-03T11:49:51.767Z</time>
      </trkpt>
      <trkpt lat="46.99831" lon="8.86845">
        <ele>1552</ele>
        <time>2021-08-03T11:49:52.768Z</time>
      </trkpt>
      <trkpt lat="46.99831" lon="8.86845">
        <ele>1552</ele>
        <time>2021-08-03T11:49:53.767Z</time>
      </trkpt>
      <trkpt lat="46.9983" lon="8.86845">
        <ele>1552</ele>
        <time>2021-08-03T11:49:54.768Z</time>
      </trkpt>
      <trkpt lat="46.9983" lon="8.86845">
        <ele>1551</ele>
        <time>2021-08-03T11:49:55.767Z</time>
      </trkpt>
      <trkpt lat="46.99829" lon="8.86844">
        <ele>1550</ele>
        <time>2021-08-03T11:49:56.767Z</time>
      </trkpt>
      <trkpt lat="46.99829" lon="8.86844">
        <ele>1548</ele>
        <time>2021-08-03T11:49:57.768Z</time>
      </trkpt>
      <trkpt lat="46.99829" lon="8.86844">
        <ele>1547</ele>
        <time>2021-08-03T11:49:58.767Z</time>
      </trkpt>
      <trkpt lat="46.99829" lon="8.86845">
        <ele>1545</ele>
        <time>2021-08-03T11:49:59.768Z</time>
      </trkpt>
      <trkpt lat="46.99829" lon="8.86845">
        <ele>1544</ele>
        <time>2021-08-03T11:50:00.767Z</time>
      </trkpt>
      <trkpt lat="46.99829" lon="8.86844">
        <ele>1542</ele>
        <time>2021-08-03T11:50:01.769Z</time>
      </trkpt>
      <trkpt lat="46.99828" lon="8.86845">
        <ele>1542</ele>
        <time>2021-08-03T11:50:02.768Z</time>
      </trkpt>
      <trkpt lat="46.99828" lon="8.86846">
        <ele>1542</ele>
        <time>2021-08-03T11:50:03.769Z</time>
      </trkpt>
      <trkpt lat="46.99827" lon="8.86848">
        <ele>1542</ele>
        <time>2021-08-03T11:50:04.769Z</time>
      </trkpt>
      <trkpt lat="46.99827" lon="8.86848">
        <ele>1543</ele>
        <time>2021-08-03T11:50:05.769Z</time>
      </trkpt>
      <trkpt lat="46.99828" lon="8.86847">
        <ele>1543</ele>
        <time>2021-08-03T11:50:06.769Z</time>
      </trkpt>
      <trkpt lat="46.99828" lon="8.86847">
        <ele>1543</ele>
        <time>2021-08-03T11:50:07.768Z</time>
      </trkpt>
      <trkpt lat="46.99828" lon="8.86847">
        <ele>1544</ele>
        <time>2021-08-03T11:50:08.769Z</time>
      </trkpt>
      <trkpt lat="46.99827" lon="8.86848">
        <ele>1544</ele>
        <time>2021-08-03T11:50:09.769Z</time>
      </trkpt>
      <trkpt lat="46.99827" lon="8.86849">
        <ele>1544</ele>
        <time>2021-08-03T11:50:10.768Z</time>
      </trkpt>
      <trkpt lat="46.99827" lon="8.86849">
        <ele>1544</ele>
        <time>2021-08-03T11:50:11.769Z</time>
      </trkpt>
      <trkpt lat="46.99826" lon="8.8685">
        <ele>1543</ele>
        <time>2021-08-03T11:50:12.769Z</time>
      </trkpt>
      <trkpt lat="46.99826" lon="8.86851">
        <ele>1543</ele>
        <time>2021-08-03T11:50:13.769Z</time>
      </trkpt>
      <trkpt lat="46.99826" lon="8.86851">
        <ele>1543</ele>
        <time>2021-08-03T11:50:14.768Z</time>
      </trkpt>
      <trkpt lat="46.99826" lon="8.8685">
        <ele>1542</ele>
        <time>2021-08-03T11:50:15.769Z</time>
      </trkpt>
      <trkpt lat="46.99826" lon="8.8685">
        <ele>1542</ele>
        <time>2021-08-03T11:50:16.769Z</time>
      </trkpt>
      <trkpt lat="46.99826" lon="8.8685">
        <ele>1542</ele>
        <time>2021-08-03T11:50:18.874Z</time>
      </trkpt>
      <trkpt lat="46.99827" lon="8.8685">
        <ele>1542</ele>
        <time>2021-08-03T11:50:19.874Z</time>
      </trkpt>
      <trkpt lat="46.99825" lon="8.86853">
        <ele>1543</ele>
        <time>2021-08-03T11:50:20.875Z</time>
      </trkpt>
      <trkpt lat="46.99824" lon="8.86853">
        <ele>1543</ele>
        <time>2021-08-03T11:50:21.874Z</time>
      </trkpt>
      <trkpt lat="46.99823" lon="8.86854">
        <ele>1543</ele>
        <time>2021-08-03T11:50:22.874Z</time>
      </trkpt>
      <trkpt lat="46.99823" lon="8.86855">
        <ele>1543</ele>
        <time>2021-08-03T11:50:23.874Z</time>
      </trkpt>
      <trkpt lat="46.99823" lon="8.86854">
        <ele>1543</ele>
        <time>2021-08-03T11:50:24.874Z</time>
      </trkpt>
      <trkpt lat="46.99822" lon="8.86854">
        <ele>1542</ele>
        <time>2021-08-03T11:50:25.875Z</time>
      </trkpt>
      <trkpt lat="46.99822" lon="8.86854">
        <ele>1542</ele>
        <time>2021-08-03T11:50:26.874Z</time>
      </trkpt>
      <trkpt lat="46.99823" lon="8.86853">
        <ele>1542</ele>
        <time>2021-08-03T11:50:27.875Z</time>
      </trkpt>
      <trkpt lat="46.99823" lon="8.86852">
        <ele>1541</ele>
        <time>2021-08-03T11:50:28.874Z</time>
      </trkpt>
      <trkpt lat="46.99823" lon="8.86852">
        <ele>1541</ele>
        <time>2021-08-03T11:50:29.874Z</time>
      </trkpt>
      <trkpt lat="46.99823" lon="8.86852">
        <ele>1541</ele>
        <time>2021-08-03T11:50:30.874Z</time>
      </trkpt>
      <trkpt lat="46.99824" lon="8.86852">
        <ele>1540</ele>
        <time>2021-08-03T11:50:31.875Z</time>
      </trkpt>
      <trkpt lat="46.99824" lon="8.86852">
        <ele>1540</ele>
        <time>2021-08-03T11:50:32.874Z</time>
      </trkpt>
      <trkpt lat="46.99823" lon="8.86853">
        <ele>1540</ele>
        <time>2021-08-03T11:50:33.874Z</time>
      </trkpt>
      <trkpt lat="46.99823" lon="8.86854">
        <ele>1540</ele>
        <time>2021-08-03T11:50:34.874Z</time>
      </trkpt>
      <trkpt lat="46.99822" lon="8.86854">
        <ele>1540</ele>
        <time>2021-08-03T11:50:35.874Z</time>
      </trkpt>
      <trkpt lat="46.99823" lon="8.86854">
        <ele>1541</ele>
        <time>2021-08-03T11:50:36.874Z</time>
      </trkpt>
      <trkpt lat="46.99823" lon="8.86854">
        <ele>1541</ele>
        <time>2021-08-03T11:50:37.875Z</time>
      </trkpt>
      <trkpt lat="46.99825" lon="8.8685">
        <ele>1543</ele>
        <time>2021-08-03T11:50:38.875Z</time>
      </trkpt>
      <trkpt lat="46.99825" lon="8.86851">
        <ele>1543</ele>
        <time>2021-08-03T11:50:39.875Z</time>
      </trkpt>
      <trkpt lat="46.99825" lon="8.86851">
        <ele>1543</ele>
        <time>2021-08-03T11:50:40.876Z</time>
      </trkpt>
      <trkpt lat="46.99824" lon="8.86851">
        <ele>1543</ele>
        <time>2021-08-03T11:50:41.876Z</time>
      </trkpt>
      <trkpt lat="46.99824" lon="8.8685">
        <ele>1543</ele>
        <time>2021-08-03T11:50:42.875Z</time>
      </trkpt>
      <trkpt lat="46.99824" lon="8.86851">
        <ele>1543</ele>
        <time>2021-08-03T11:50:43.876Z</time>
      </trkpt>
      <trkpt lat="46.99824" lon="8.8685">
        <ele>1543</ele>
        <time>2021-08-03T11:50:44.875Z</time>
      </trkpt>
      <trkpt lat="46.99823" lon="8.86849">
        <ele>1543</ele>
        <time>2021-08-03T11:50:45.876Z</time>
      </trkpt>
      <trkpt lat="46.99823" lon="8.86849">
        <ele>1543</ele>
        <time>2021-08-03T11:50:46.876Z</time>
      </trkpt>
      <trkpt lat="46.99824" lon="8.86847">
        <ele>1543</ele>
        <time>2021-08-03T11:50:47.876Z</time>
      </trkpt>
      <trkpt lat="46.99825" lon="8.86846">
        <ele>1544</ele>
        <time>2021-08-03T11:50:48.876Z</time>
      </trkpt>
      <trkpt lat="46.99826" lon="8.86845">
        <ele>1544</ele>
        <time>2021-08-03T11:50:49.876Z</time>
      </trkpt>
      <trkpt lat="46.99825" lon="8.86846">
        <ele>1544</ele>
        <time>2021-08-03T11:50:50.876Z</time>
      </trkpt>
      <trkpt lat="46.99824" lon="8.86846">
        <ele>1545</ele>
        <time>2021-08-03T11:50:51.875Z</time>
      </trkpt>
      <trkpt lat="46.99824" lon="8.86847">
        <ele>1546</ele>
        <time>2021-08-03T11:50:52.876Z</time>
      </trkpt>
      <trkpt lat="46.99823" lon="8.86848">
        <ele>1546</ele>
        <time>2021-08-03T11:50:53.876Z</time>
      </trkpt>
      <trkpt lat="46.99823" lon="8.86849">
        <ele>1547</ele>
        <time>2021-08-03T11:50:54.876Z</time>
      </trkpt>
      <trkpt lat="46.99823" lon="8.86849">
        <ele>1547</ele>
        <time>2021-08-03T11:50:55.876Z</time>
      </trkpt>
      <trkpt lat="46.99822" lon="8.8685">
        <ele>1548</ele>
        <time>2021-08-03T11:50:56.876Z</time>
      </trkpt>
      <trkpt lat="46.99822" lon="8.8685">
        <ele>1549</ele>
        <time>2021-08-03T11:50:57.876Z</time>
      </trkpt>
      <trkpt lat="46.9982" lon="8.86851">
        <ele>1551</ele>
        <time>2021-08-03T11:50:58.875Z</time>
      </trkpt>
      <trkpt lat="46.9982" lon="8.86851">
        <ele>1551</ele>
        <time>2021-08-03T11:50:59.875Z</time>
      </trkpt>
      <trkpt lat="46.9982" lon="8.86852">
        <ele>1552</ele>
        <time>2021-08-03T11:51:00.875Z</time>
      </trkpt>
      <trkpt lat="46.99822" lon="8.86852">
        <ele>1554</ele>
        <time>2021-08-03T11:51:01.875Z</time>
      </trkpt>
      <trkpt lat="46.99821" lon="8.86853">
        <ele>1554</ele>
        <time>2021-08-03T11:51:02.876Z</time>
      </trkpt>
      <trkpt lat="46.99821" lon="8.86852">
        <ele>1555</ele>
        <time>2021-08-03T11:51:03.875Z</time>
      </trkpt>
      <trkpt lat="46.99821" lon="8.86851">
        <ele>1555</ele>
        <time>2021-08-03T11:51:04.875Z</time>
      </trkpt>
      <trkpt lat="46.99821" lon="8.86851">
        <ele>1555</ele>
        <time>2021-08-03T11:51:05.875Z</time>
      </trkpt>
      <trkpt lat="46.99822" lon="8.8685">
        <ele>1555</ele>
        <time>2021-08-03T11:51:06.876Z</time>
      </trkpt>
      <trkpt lat="46.99827" lon="8.86846">
        <ele>1555</ele>
        <time>2021-08-03T11:51:07.876Z</time>
      </trkpt>
      <trkpt lat="46.99827" lon="8.86847">
        <ele>1554</ele>
        <time>2021-08-03T11:51:08.876Z</time>
      </trkpt>
      <trkpt lat="46.99826" lon="8.86848">
        <ele>1554</ele>
        <time>2021-08-03T11:51:09.876Z</time>
      </trkpt>
      <trkpt lat="46.99826" lon="8.86848">
        <ele>1554</ele>
        <time>2021-08-03T11:51:10.876Z</time>
      </trkpt>
      <trkpt lat="46.99826" lon="8.86848">
        <ele>1553</ele>
        <time>2021-08-03T11:51:11.876Z</time>
      </trkpt>
      <trkpt lat="46.99827" lon="8.86847">
        <ele>1553</ele>
        <time>2021-08-03T11:51:12.877Z</time>
      </trkpt>
      <trkpt lat="46.99827" lon="8.86847">
        <ele>1553</ele>
        <time>2021-08-03T11:51:13.876Z</time>
      </trkpt>
      <trkpt lat="46.99827" lon="8.86847">
        <ele>1552</ele>
        <time>2021-08-03T11:51:14.877Z</time>
      </trkpt>
      <trkpt lat="46.99828" lon="8.86846">
        <ele>1552</ele>
        <time>2021-08-03T11:51:15.877Z</time>
      </trkpt>
      <trkpt lat="46.99828" lon="8.86846">
        <ele>1551</ele>
        <time>2021-08-03T11:51:16.876Z</time>
      </trkpt>
      <trkpt lat="46.99827" lon="8.86847">
        <ele>1551</ele>
        <time>2021-08-03T11:51:17.877Z</time>
      </trkpt>
      <trkpt lat="46.99826" lon="8.86848">
        <ele>1551</ele>
        <time>2021-08-03T11:51:18.877Z</time>
      </trkpt>
      <trkpt lat="46.99826" lon="8.86849">
        <ele>1550</ele>
        <time>2021-08-03T11:51:19.877Z</time>
      </trkpt>
      <trkpt lat="46.99826" lon="8.86849">
        <ele>1550</ele>
        <time>2021-08-03T11:51:20.877Z</time>
      </trkpt>
      <trkpt lat="46.99826" lon="8.86848">
        <ele>1550</ele>
        <time>2021-08-03T11:51:21.877Z</time>
      </trkpt>
      <trkpt lat="46.99827" lon="8.86848">
        <ele>1550</ele>
        <time>2021-08-03T11:51:22.877Z</time>
      </trkpt>
      <trkpt lat="46.99827" lon="8.86847">
        <ele>1550</ele>
        <time>2021-08-03T11:51:23.877Z</time>
      </trkpt>
      <trkpt lat="46.99828" lon="8.86847">
        <ele>1550</ele>
        <time>2021-08-03T11:51:24.877Z</time>
      </trkpt>
      <trkpt lat="46.99828" lon="8.86847">
        <ele>1550</ele>
        <time>2021-08-03T11:51:25.876Z</time>
      </trkpt>
      <trkpt lat="46.99828" lon="8.86848">
        <ele>1550</ele>
        <time>2021-08-03T11:51:26.877Z</time>
      </trkpt>
      <trkpt lat="46.99827" lon="8.86848">
        <ele>1548</ele>
        <time>2021-08-03T11:51:27.878Z</time>
      </trkpt>
      <trkpt lat="46.99827" lon="8.86848">
        <ele>1548</ele>
        <time>2021-08-03T11:51:28.877Z</time>
      </trkpt>
      <trkpt lat="46.99827" lon="8.86849">
        <ele>1544</ele>
        <time>2021-08-03T11:51:29.878Z</time>
      </trkpt>
      <trkpt lat="46.99826" lon="8.8685">
        <ele>1543</ele>
        <time>2021-08-03T11:51:30.878Z</time>
      </trkpt>
      <trkpt lat="46.99826" lon="8.8685">
        <ele>1542</ele>
        <time>2021-08-03T11:51:31.877Z</time>
      </trkpt>
      <trkpt lat="46.99826" lon="8.86851">
        <ele>1542</ele>
        <time>2021-08-03T11:51:32.877Z</time>
      </trkpt>
      <trkpt lat="46.99827" lon="8.86851">
        <ele>1540</ele>
        <time>2021-08-03T11:51:33.877Z</time>
      </trkpt>
      <trkpt lat="46.99827" lon="8.86851">
        <ele>1539</ele>
        <time>2021-08-03T11:51:34.877Z</time>
      </trkpt>
      <trkpt lat="46.99826" lon="8.86852">
        <ele>1539</ele>
        <time>2021-08-03T11:51:35.877Z</time>
      </trkpt>
      <trkpt lat="46.99826" lon="8.86853">
        <ele>1539</ele>
        <time>2021-08-03T11:51:36.878Z</time>
      </trkpt>
      <trkpt lat="46.99826" lon="8.86853">
        <ele>1539</ele>
        <time>2021-08-03T11:51:37.877Z</time>
      </trkpt>
      <trkpt lat="46.99827" lon="8.86852">
        <ele>1539</ele>
        <time>2021-08-03T11:51:38.877Z</time>
      </trkpt>
      <trkpt lat="46.99827" lon="8.86853">
        <ele>1539</ele>
        <time>2021-08-03T11:51:39.877Z</time>
      </trkpt>
      <trkpt lat="46.99828" lon="8.86851">
        <ele>1539</ele>
        <time>2021-08-03T11:51:40.877Z</time>
      </trkpt>
      <trkpt lat="46.99828" lon="8.8685">
        <ele>1539</ele>
        <time>2021-08-03T11:51:41.878Z</time>
      </trkpt>
      <trkpt lat="46.99829" lon="8.8685">
        <ele>1539</ele>
        <time>2021-08-03T11:51:42.877Z</time>
      </trkpt>
      <trkpt lat="46.99829" lon="8.86849">
        <ele>1539</ele>
        <time>2021-08-03T11:51:43.877Z</time>
      </trkpt>
      <trkpt lat="46.9983" lon="8.86848">
        <ele>1539</ele>
        <time>2021-08-03T11:51:44.878Z</time>
      </trkpt>
      <trkpt lat="46.9983" lon="8.86847">
        <ele>1539</ele>
        <time>2021-08-03T11:51:45.877Z</time>
      </trkpt>
      <trkpt lat="46.99831" lon="8.86846">
        <ele>1539</ele>
        <time>2021-08-03T11:51:46.878Z</time>
      </trkpt>
      <trkpt lat="46.99832" lon="8.86844">
        <ele>1539</ele>
        <time>2021-08-03T11:51:47.877Z</time>
      </trkpt>
      <trkpt lat="46.99832" lon="8.86842">
        <ele>1539</ele>
        <time>2021-08-03T11:51:48.878Z</time>
      </trkpt>
      <trkpt lat="46.99833" lon="8.8684">
        <ele>1539</ele>
        <time>2021-08-03T11:51:49.877Z</time>
      </trkpt>
      <trkpt lat="46.99834" lon="8.86838">
        <ele>1539</ele>
        <time>2021-08-03T11:51:50.877Z</time>
      </trkpt>
      <trkpt lat="46.99835" lon="8.86837">
        <ele>1539</ele>
        <time>2021-08-03T11:51:51.877Z</time>
      </trkpt>
      <trkpt lat="46.99835" lon="8.86837">
        <ele>1539</ele>
        <time>2021-08-03T11:51:52.878Z</time>
      </trkpt>
      <trkpt lat="46.99835" lon="8.86838">
        <ele>1539</ele>
        <time>2021-08-03T11:51:53.877Z</time>
      </trkpt>
      <trkpt lat="46.99835" lon="8.86838">
        <ele>1538</ele>
        <time>2021-08-03T11:51:54.877Z</time>
      </trkpt>
      <trkpt lat="46.99836" lon="8.86838">
        <ele>1538</ele>
        <time>2021-08-03T11:51:55.877Z</time>
      </trkpt>
      <trkpt lat="46.99837" lon="8.86837">
        <ele>1532</ele>
        <time>2021-08-03T11:51:56.878Z</time>
      </trkpt>
      <trkpt lat="46.99837" lon="8.86837">
        <ele>1532</ele>
        <time>2021-08-03T11:51:57.878Z</time>
      </trkpt>
      <trkpt lat="46.99836" lon="8.86838">
        <ele>1532</ele>
        <time>2021-08-03T11:51:58.877Z</time>
      </trkpt>
      <trkpt lat="46.99836" lon="8.86839">
        <ele>1532</ele>
        <time>2021-08-03T11:51:59.877Z</time>
      </trkpt>
      <trkpt lat="46.99835" lon="8.86841">
        <ele>1534</ele>
        <time>2021-08-03T11:52:00.878Z</time>
      </trkpt>
      <trkpt lat="46.99835" lon="8.86842">
        <ele>1535</ele>
        <time>2021-08-03T11:52:01.878Z</time>
      </trkpt>
      <trkpt lat="46.99834" lon="8.86843">
        <ele>1536</ele>
        <time>2021-08-03T11:52:02.878Z</time>
      </trkpt>
      <trkpt lat="46.99834" lon="8.86843">
        <ele>1536</ele>
        <time>2021-08-03T11:52:03.878Z</time>
      </trkpt>
      <trkpt lat="46.99834" lon="8.86843">
        <ele>1537</ele>
        <time>2021-08-03T11:52:04.878Z</time>
      </trkpt>
      <trkpt lat="46.99834" lon="8.86844">
        <ele>1538</ele>
        <time>2021-08-03T11:52:05.879Z</time>
      </trkpt>
      <trkpt lat="46.99832" lon="8.86848">
        <ele>1541</ele>
        <time>2021-08-03T11:52:06.878Z</time>
      </trkpt>
      <trkpt lat="46.99832" lon="8.86848">
        <ele>1542</ele>
        <time>2021-08-03T11:52:07.879Z</time>
      </trkpt>
      <trkpt lat="46.99832" lon="8.86847">
        <ele>1542</ele>
        <time>2021-08-03T11:52:08.878Z</time>
      </trkpt>
      <trkpt lat="46.99832" lon="8.86846">
        <ele>1543</ele>
        <time>2021-08-03T11:52:09.879Z</time>
      </trkpt>
      <trkpt lat="46.99831" lon="8.86846">
        <ele>1543</ele>
        <time>2021-08-03T11:52:10.879Z</time>
      </trkpt>
      <trkpt lat="46.99831" lon="8.86846">
        <ele>1544</ele>
        <time>2021-08-03T11:52:11.879Z</time>
      </trkpt>
      <trkpt lat="46.99831" lon="8.86846">
        <ele>1544</ele>
        <time>2021-08-03T11:52:43.022Z</time>
      </trkpt>
      <trkpt lat="46.99832" lon="8.86845">
        <ele>1544</ele>
        <time>2021-08-03T11:52:44.022Z</time>
      </trkpt>
      <trkpt lat="46.99832" lon="8.86843">
        <ele>1541</ele>
        <time>2021-08-03T11:52:45.022Z</time>
      </trkpt>
      <trkpt lat="46.99833" lon="8.86843">
        <ele>1540</ele>
        <time>2021-08-03T11:52:46.023Z</time>
      </trkpt>
      <trkpt lat="46.99833" lon="8.86844">
        <ele>1540</ele>
        <time>2021-08-03T11:52:47.023Z</time>
      </trkpt>
      <trkpt lat="46.99831" lon="8.86847">
        <ele>1541</ele>
        <time>2021-08-03T11:52:48.023Z</time>
      </trkpt>
      <trkpt lat="46.99831" lon="8.86847">
        <ele>1541</ele>
        <time>2021-08-03T11:52:49.023Z</time>
      </trkpt>
      <trkpt lat="46.99831" lon="8.86848">
        <ele>1541</ele>
        <time>2021-08-03T11:52:50.022Z</time>
      </trkpt>
      <trkpt lat="46.99831" lon="8.86848">
        <ele>1541</ele>
        <time>2021-08-03T11:52:51.022Z</time>
      </trkpt>
      <trkpt lat="46.9983" lon="8.86848">
        <ele>1540</ele>
        <time>2021-08-03T11:52:52.022Z</time>
      </trkpt>
      <trkpt lat="46.9983" lon="8.86849">
        <ele>1541</ele>
        <time>2021-08-03T11:52:53.022Z</time>
      </trkpt>
      <trkpt lat="46.9983" lon="8.86849">
        <ele>1541</ele>
        <time>2021-08-03T11:52:54.023Z</time>
      </trkpt>
      <trkpt lat="46.99831" lon="8.86849">
        <ele>1542</ele>
        <time>2021-08-03T11:52:55.023Z</time>
      </trkpt>
      <trkpt lat="46.99831" lon="8.86849">
        <ele>1542</ele>
        <time>2021-08-03T11:52:56.023Z</time>
      </trkpt>
      <trkpt lat="46.99832" lon="8.86848">
        <ele>1542</ele>
        <time>2021-08-03T11:52:57.022Z</time>
      </trkpt>
      <trkpt lat="46.99832" lon="8.86847">
        <ele>1543</ele>
        <time>2021-08-03T11:52:58.023Z</time>
      </trkpt>
      <trkpt lat="46.99833" lon="8.86847">
        <ele>1543</ele>
        <time>2021-08-03T11:52:59.023Z</time>
      </trkpt>
      <trkpt lat="46.99833" lon="8.86847">
        <ele>1543</ele>
        <time>2021-08-03T11:53:00.022Z</time>
      </trkpt>
      <trkpt lat="46.99834" lon="8.86846">
        <ele>1543</ele>
        <time>2021-08-03T11:53:01.023Z</time>
      </trkpt>
      <trkpt lat="46.99834" lon="8.86846">
        <ele>1543</ele>
        <time>2021-08-03T11:53:02.022Z</time>
      </trkpt>
      <trkpt lat="46.99833" lon="8.86845">
        <ele>1543</ele>
        <time>2021-08-03T11:53:03.024Z</time>
      </trkpt>
      <trkpt lat="46.99834" lon="8.86844">
        <ele>1543</ele>
        <time>2021-08-03T11:53:04.024Z</time>
      </trkpt>
      <trkpt lat="46.99835" lon="8.86843">
        <ele>1543</ele>
        <time>2021-08-03T11:53:04.899Z</time>
      </trkpt>
      <trkpt lat="46.99835" lon="8.86843">
        <ele>1543</ele>
        <time>2021-08-03T11:53:06.023Z</time>
      </trkpt>
      <trkpt lat="46.99835" lon="8.86844">
        <ele>1543</ele>
        <time>2021-08-03T11:53:07.024Z</time>
      </trkpt>
      <trkpt lat="46.99835" lon="8.86846">
        <ele>1544</ele>
        <time>2021-08-03T11:53:08.024Z</time>
      </trkpt>
      <trkpt lat="46.99832" lon="8.86847">
        <ele>1547</ele>
        <time>2021-08-03T11:53:08.900Z</time>
      </trkpt>
      <trkpt lat="46.99832" lon="8.86846">
        <ele>1548</ele>
        <time>2021-08-03T11:53:09.900Z</time>
      </trkpt>
      <trkpt lat="46.99832" lon="8.86845">
        <ele>1548</ele>
        <time>2021-08-03T11:53:10.899Z</time>
      </trkpt>
      <trkpt lat="46.99833" lon="8.86846">
        <ele>1548</ele>
        <time>2021-08-03T11:53:11.901Z</time>
      </trkpt>
      <trkpt lat="46.99833" lon="8.86846">
        <ele>1548</ele>
        <time>2021-08-03T11:53:12.901Z</time>
      </trkpt>
      <trkpt lat="46.99834" lon="8.86841">
        <ele>1546</ele>
        <time>2021-08-03T11:53:13.902Z</time>
      </trkpt>
      <trkpt lat="46.99834" lon="8.8684">
        <ele>1545</ele>
        <time>2021-08-03T11:53:14.902Z</time>
      </trkpt>
      <trkpt lat="46.99834" lon="8.86841">
        <ele>1545</ele>
        <time>2021-08-03T11:53:15.901Z</time>
      </trkpt>
      <trkpt lat="46.99834" lon="8.86842">
        <ele>1544</ele>
        <time>2021-08-03T11:53:16.901Z</time>
      </trkpt>
      <trkpt lat="46.99833" lon="8.86844">
        <ele>1544</ele>
        <time>2021-08-03T11:53:17.901Z</time>
      </trkpt>
      <trkpt lat="46.99833" lon="8.86844">
        <ele>1544</ele>
        <time>2021-08-03T11:53:18.902Z</time>
      </trkpt>
      <trkpt lat="46.99834" lon="8.86844">
        <ele>1544</ele>
        <time>2021-08-03T11:53:19.901Z</time>
      </trkpt>
      <trkpt lat="46.99834" lon="8.86844">
        <ele>1544</ele>
        <time>2021-08-03T11:53:20.903Z</time>
      </trkpt>
      <trkpt lat="46.99836" lon="8.86839">
        <ele>1544</ele>
        <time>2021-08-03T11:53:21.902Z</time>
      </trkpt>
      <trkpt lat="46.99836" lon="8.86838">
        <ele>1544</ele>
        <time>2021-08-03T11:53:22.903Z</time>
      </trkpt>
      <trkpt lat="46.99836" lon="8.86838">
        <ele>1544</ele>
        <time>2021-08-03T11:53:23.902Z</time>
      </trkpt>
      <trkpt lat="46.99837" lon="8.86837">
        <ele>1544</ele>
        <time>2021-08-03T11:53:24.903Z</time>
      </trkpt>
      <trkpt lat="46.99837" lon="8.86837">
        <ele>1544</ele>
        <time>2021-08-03T11:53:25.903Z</time>
      </trkpt>
      <trkpt lat="46.99836" lon="8.86837">
        <ele>1544</ele>
        <time>2021-08-03T11:53:26.903Z</time>
      </trkpt>
      <trkpt lat="46.99836" lon="8.86836">
        <ele>1543</ele>
        <time>2021-08-03T11:53:27.902Z</time>
      </trkpt>
      <trkpt lat="46.99836" lon="8.86838">
        <ele>1538</ele>
        <time>2021-08-03T11:53:28.903Z</time>
      </trkpt>
      <trkpt lat="46.99835" lon="8.86839">
        <ele>1538</ele>
        <time>2021-08-03T11:53:29.902Z</time>
      </trkpt>
      <trkpt lat="46.99835" lon="8.86839">
        <ele>1539</ele>
        <time>2021-08-03T11:53:30.902Z</time>
      </trkpt>
      <trkpt lat="46.99834" lon="8.8684">
        <ele>1539</ele>
        <time>2021-08-03T11:53:31.903Z</time>
      </trkpt>
      <trkpt lat="46.99834" lon="8.86841">
        <ele>1539</ele>
        <time>2021-08-03T11:53:32.903Z</time>
      </trkpt>
      <trkpt lat="46.99834" lon="8.86841">
        <ele>1539</ele>
        <time>2021-08-03T11:53:33.902Z</time>
      </trkpt>
      <trkpt lat="46.99833" lon="8.86842">
        <ele>1539</ele>
        <time>2021-08-03T11:53:34.903Z</time>
      </trkpt>
      <trkpt lat="46.99833" lon="8.86843">
        <ele>1539</ele>
        <time>2021-08-03T11:53:35.903Z</time>
      </trkpt>
      <trkpt lat="46.99833" lon="8.86843">
        <ele>1539</ele>
        <time>2021-08-03T11:53:36.903Z</time>
      </trkpt>
      <trkpt lat="46.99834" lon="8.86844">
        <ele>1538</ele>
        <time>2021-08-03T11:53:37.903Z</time>
      </trkpt>
      <trkpt lat="46.99833" lon="8.86846">
        <ele>1538</ele>
        <time>2021-08-03T11:53:38.904Z</time>
      </trkpt>
      <trkpt lat="46.99833" lon="8.86847">
        <ele>1538</ele>
        <time>2021-08-03T11:53:39.903Z</time>
      </trkpt>
      <trkpt lat="46.99832" lon="8.86848">
        <ele>1538</ele>
        <time>2021-08-03T11:53:40.904Z</time>
      </trkpt>
      <trkpt lat="46.99831" lon="8.86849">
        <ele>1539</ele>
        <time>2021-08-03T11:53:41.904Z</time>
      </trkpt>
      <trkpt lat="46.99831" lon="8.8685">
        <ele>1539</ele>
        <time>2021-08-03T11:53:42.903Z</time>
      </trkpt>
      <trkpt lat="46.9983" lon="8.86851">
        <ele>1539</ele>
        <time>2021-08-03T11:53:43.903Z</time>
      </trkpt>
      <trkpt lat="46.99825" lon="8.86857">
        <ele>1541</ele>
        <time>2021-08-03T11:53:44.904Z</time>
      </trkpt>
      <trkpt lat="46.99826" lon="8.86857">
        <ele>1541</ele>
        <time>2021-08-03T11:53:45.904Z</time>
      </trkpt>
      <trkpt lat="46.99826" lon="8.86857">
        <ele>1541</ele>
        <time>2021-08-03T11:53:46.903Z</time>
      </trkpt>
      <trkpt lat="46.99826" lon="8.86857">
        <ele>1541</ele>
        <time>2021-08-03T11:53:47.904Z</time>
      </trkpt>
      <trkpt lat="46.99826" lon="8.86857">
        <ele>1542</ele>
        <time>2021-08-03T11:53:48.903Z</time>
      </trkpt>
      <trkpt lat="46.99831" lon="8.86848">
        <ele>1547</ele>
        <time>2021-08-03T11:53:49.904Z</time>
      </trkpt>
      <trkpt lat="46.99831" lon="8.86848">
        <ele>1548</ele>
        <time>2021-08-03T11:53:50.903Z</time>
      </trkpt>
      <trkpt lat="46.99831" lon="8.86848">
        <ele>1548</ele>
        <time>2021-08-03T11:53:51.903Z</time>
      </trkpt>
      <trkpt lat="46.99831" lon="8.86847">
        <ele>1549</ele>
        <time>2021-08-03T11:53:52.903Z</time>
      </trkpt>
      <trkpt lat="46.99831" lon="8.86846">
        <ele>1549</ele>
        <time>2021-08-03T11:53:53.903Z</time>
      </trkpt>
      <trkpt lat="46.99832" lon="8.86844">
        <ele>1550</ele>
        <time>2021-08-03T11:53:54.904Z</time>
      </trkpt>
      <trkpt lat="46.99831" lon="8.86845">
        <ele>1551</ele>
        <time>2021-08-03T11:53:55.904Z</time>
      </trkpt>
      <trkpt lat="46.99831" lon="8.86845">
        <ele>1552</ele>
        <time>2021-08-03T11:53:56.904Z</time>
      </trkpt>
      <trkpt lat="46.99831" lon="8.86846">
        <ele>1552</ele>
        <time>2021-08-03T11:53:57.904Z</time>
      </trkpt>
      <trkpt lat="46.9983" lon="8.86846">
        <ele>1552</ele>
        <time>2021-08-03T11:53:58.904Z</time>
      </trkpt>
      <trkpt lat="46.99829" lon="8.86849">
        <ele>1553</ele>
        <time>2021-08-03T11:53:59.903Z</time>
      </trkpt>
      <trkpt lat="46.99829" lon="8.86849">
        <ele>1553</ele>
        <time>2021-08-03T11:54:00.903Z</time>
      </trkpt>
      <trkpt lat="46.99829" lon="8.86848">
        <ele>1553</ele>
        <time>2021-08-03T11:54:01.903Z</time>
      </trkpt>
      <trkpt lat="46.99829" lon="8.86847">
        <ele>1553</ele>
        <time>2021-08-03T11:54:02.904Z</time>
      </trkpt>
      <trkpt lat="46.99829" lon="8.86848">
        <ele>1552</ele>
        <time>2021-08-03T11:54:03.903Z</time>
      </trkpt>
      <trkpt lat="46.9983" lon="8.86849">
        <ele>1552</ele>
        <time>2021-08-03T11:54:04.904Z</time>
      </trkpt>
      <trkpt lat="46.99829" lon="8.86851">
        <ele>1551</ele>
        <time>2021-08-03T11:54:05.905Z</time>
      </trkpt>
      <trkpt lat="46.99829" lon="8.86851">
        <ele>1550</ele>
        <time>2021-08-03T11:54:06.904Z</time>
      </trkpt>
      <trkpt lat="46.99829" lon="8.86852">
        <ele>1549</ele>
        <time>2021-08-03T11:54:07.904Z</time>
      </trkpt>
      <trkpt lat="46.99829" lon="8.86852">
        <ele>1548</ele>
        <time>2021-08-03T11:54:08.904Z</time>
      </trkpt>
      <trkpt lat="46.99828" lon="8.86853">
        <ele>1547</ele>
        <time>2021-08-03T11:54:09.905Z</time>
      </trkpt>
      <trkpt lat="46.99828" lon="8.86853">
        <ele>1547</ele>
        <time>2021-08-03T11:54:10.906Z</time>
      </trkpt>
      <trkpt lat="46.99829" lon="8.86851">
        <ele>1548</ele>
        <time>2021-08-03T11:54:11.907Z</time>
      </trkpt>
      <trkpt lat="46.9983" lon="8.86849">
        <ele>1548</ele>
        <time>2021-08-03T11:54:12.906Z</time>
      </trkpt>
      <trkpt lat="46.9983" lon="8.86848">
        <ele>1548</ele>
        <time>2021-08-03T11:54:13.906Z</time>
      </trkpt>
      <trkpt lat="46.9983" lon="8.86848">
        <ele>1548</ele>
        <time>2021-08-03T11:54:14.906Z</time>
      </trkpt>
      <trkpt lat="46.9983" lon="8.86848">
        <ele>1549</ele>
        <time>2021-08-03T11:54:15.906Z</time>
      </trkpt>
      <trkpt lat="46.9983" lon="8.86849">
        <ele>1548</ele>
        <time>2021-08-03T11:54:16.907Z</time>
      </trkpt>
      <trkpt lat="46.9983" lon="8.86849">
        <ele>1548</ele>
        <time>2021-08-03T11:54:17.906Z</time>
      </trkpt>
      <trkpt lat="46.99831" lon="8.86849">
        <ele>1548</ele>
        <time>2021-08-03T11:54:18.906Z</time>
      </trkpt>
      <trkpt lat="46.9983" lon="8.86849">
        <ele>1548</ele>
        <time>2021-08-03T11:54:19.907Z</time>
      </trkpt>
      <trkpt lat="46.9983" lon="8.86849">
        <ele>1548</ele>
        <time>2021-08-03T11:54:20.907Z</time>
      </trkpt>
      <trkpt lat="46.99828" lon="8.86848">
        <ele>1549</ele>
        <time>2021-08-03T11:54:21.907Z</time>
      </trkpt>
      <trkpt lat="46.99829" lon="8.86848">
        <ele>1548</ele>
        <time>2021-08-03T11:54:22.907Z</time>
      </trkpt>
      <trkpt lat="46.99829" lon="8.86847">
        <ele>1548</ele>
        <time>2021-08-03T11:54:23.907Z</time>
      </trkpt>
      <trkpt lat="46.99829" lon="8.86848">
        <ele>1548</ele>
        <time>2021-08-03T11:54:24.906Z</time>
      </trkpt>
      <trkpt lat="46.99829" lon="8.86848">
        <ele>1548</ele>
        <time>2021-08-03T11:54:25.906Z</time>
      </trkpt>
      <trkpt lat="46.99828" lon="8.86848">
        <ele>1548</ele>
        <time>2021-08-03T11:54:26.906Z</time>
      </trkpt>
      <trkpt lat="46.99828" lon="8.86847">
        <ele>1548</ele>
        <time>2021-08-03T11:54:27.907Z</time>
      </trkpt>
      <trkpt lat="46.99828" lon="8.86847">
        <ele>1548</ele>
        <time>2021-08-03T11:54:28.906Z</time>
      </trkpt>
      <trkpt lat="46.99828" lon="8.86846">
        <ele>1548</ele>
        <time>2021-08-03T11:54:29.907Z</time>
      </trkpt>
      <trkpt lat="46.99828" lon="8.86846">
        <ele>1548</ele>
        <time>2021-08-03T11:54:30.907Z</time>
      </trkpt>
      <trkpt lat="46.99828" lon="8.86847">
        <ele>1548</ele>
        <time>2021-08-03T11:54:31.907Z</time>
      </trkpt>
      <trkpt lat="46.99828" lon="8.86846">
        <ele>1548</ele>
        <time>2021-08-03T11:54:32.906Z</time>
      </trkpt>
      <trkpt lat="46.99828" lon="8.86845">
        <ele>1548</ele>
        <time>2021-08-03T11:54:33.907Z</time>
      </trkpt>
      <trkpt lat="46.99828" lon="8.86846">
        <ele>1548</ele>
        <time>2021-08-03T11:54:34.906Z</time>
      </trkpt>
      <trkpt lat="46.99827" lon="8.86846">
        <ele>1548</ele>
        <time>2021-08-03T11:54:35.906Z</time>
      </trkpt>
      <trkpt lat="46.99827" lon="8.86846">
        <ele>1548</ele>
        <time>2021-08-03T11:54:36.906Z</time>
      </trkpt>
      <trkpt lat="46.99827" lon="8.86847">
        <ele>1548</ele>
        <time>2021-08-03T11:54:37.906Z</time>
      </trkpt>
      <trkpt lat="46.99826" lon="8.86847">
        <ele>1548</ele>
        <time>2021-08-03T11:54:38.907Z</time>
      </trkpt>
      <trkpt lat="46.99826" lon="8.86847">
        <ele>1548</ele>
        <time>2021-08-03T11:54:39.907Z</time>
      </trkpt>
      <trkpt lat="46.99826" lon="8.86847">
        <ele>1548</ele>
        <time>2021-08-03T11:54:40.906Z</time>
      </trkpt>
      <trkpt lat="46.99826" lon="8.86846">
        <ele>1548</ele>
        <time>2021-08-03T11:54:41.907Z</time>
      </trkpt>
      <trkpt lat="46.99827" lon="8.86846">
        <ele>1548</ele>
        <time>2021-08-03T11:54:42.907Z</time>
      </trkpt>
      <trkpt lat="46.99828" lon="8.86846">
        <ele>1548</ele>
        <time>2021-08-03T11:54:43.907Z</time>
      </trkpt>
      <trkpt lat="46.99828" lon="8.86847">
        <ele>1548</ele>
        <time>2021-08-03T11:54:44.907Z</time>
      </trkpt>
      <trkpt lat="46.99828" lon="8.86847">
        <ele>1548</ele>
        <time>2021-08-03T11:54:45.906Z</time>
      </trkpt>
      <trkpt lat="46.99827" lon="8.86849">
        <ele>1548</ele>
        <time>2021-08-03T11:54:46.907Z</time>
      </trkpt>
      <trkpt lat="46.99827" lon="8.8685">
        <ele>1548</ele>
        <time>2021-08-03T11:54:47.907Z</time>
      </trkpt>
      <trkpt lat="46.99827" lon="8.86851">
        <ele>1548</ele>
        <time>2021-08-03T11:54:48.907Z</time>
      </trkpt>
      <trkpt lat="46.99826" lon="8.86852">
        <ele>1548</ele>
        <time>2021-08-03T11:54:49.906Z</time>
      </trkpt>
      <trkpt lat="46.99826" lon="8.86852">
        <ele>1548</ele>
        <time>2021-08-03T11:54:50.906Z</time>
      </trkpt>
      <trkpt lat="46.99826" lon="8.86852">
        <ele>1548</ele>
        <time>2021-08-03T11:54:51.906Z</time>
      </trkpt>
      <trkpt lat="46.99825" lon="8.86852">
        <ele>1548</ele>
        <time>2021-08-03T11:54:52.907Z</time>
      </trkpt>
      <trkpt lat="46.99825" lon="8.86852">
        <ele>1547</ele>
        <time>2021-08-03T11:54:53.906Z</time>
      </trkpt>
      <trkpt lat="46.99825" lon="8.86852">
        <ele>1547</ele>
        <time>2021-08-03T11:54:54.907Z</time>
      </trkpt>
      <trkpt lat="46.99824" lon="8.86852">
        <ele>1545</ele>
        <time>2021-08-03T11:54:55.907Z</time>
      </trkpt>
      <trkpt lat="46.99824" lon="8.86852">
        <ele>1545</ele>
        <time>2021-08-03T11:54:56.907Z</time>
      </trkpt>
      <trkpt lat="46.99822" lon="8.86851">
        <ele>1543</ele>
        <time>2021-08-03T11:54:57.907Z</time>
      </trkpt>
      <trkpt lat="46.99822" lon="8.86851">
        <ele>1543</ele>
        <time>2021-08-03T11:54:58.907Z</time>
      </trkpt>
      <trkpt lat="46.99822" lon="8.86852">
        <ele>1542</ele>
        <time>2021-08-03T11:54:59.908Z</time>
      </trkpt>
      <trkpt lat="46.99822" lon="8.86851">
        <ele>1542</ele>
        <time>2021-08-03T11:55:00.909Z</time>
      </trkpt>
      <trkpt lat="46.99822" lon="8.86851">
        <ele>1543</ele>
        <time>2021-08-03T11:55:01.908Z</time>
      </trkpt>
      <trkpt lat="46.99823" lon="8.86852">
        <ele>1543</ele>
        <time>2021-08-03T11:55:02.908Z</time>
      </trkpt>
      <trkpt lat="46.99825" lon="8.8685">
        <ele>1545</ele>
        <time>2021-08-03T11:55:03.909Z</time>
      </trkpt>
      <trkpt lat="46.99825" lon="8.8685">
        <ele>1546</ele>
        <time>2021-08-03T11:55:04.909Z</time>
      </trkpt>
      <trkpt lat="46.99825" lon="8.8685">
        <ele>1546</ele>
        <time>2021-08-03T11:55:05.908Z</time>
      </trkpt>
      <trkpt lat="46.99825" lon="8.86849">
        <ele>1546</ele>
        <time>2021-08-03T11:55:06.908Z</time>
      </trkpt>
      <trkpt lat="46.99825" lon="8.86849">
        <ele>1546</ele>
        <time>2021-08-03T11:55:07.909Z</time>
      </trkpt>
      <trkpt lat="46.99823" lon="8.86848">
        <ele>1546</ele>
        <time>2021-08-03T11:55:08.909Z</time>
      </trkpt>
      <trkpt lat="46.99823" lon="8.86849">
        <ele>1546</ele>
        <time>2021-08-03T11:55:09.909Z</time>
      </trkpt>
      <trkpt lat="46.99823" lon="8.8685">
        <ele>1547</ele>
        <time>2021-08-03T11:55:10.909Z</time>
      </trkpt>
      <trkpt lat="46.99824" lon="8.86848">
        <ele>1548</ele>
        <time>2021-08-03T11:55:11.908Z</time>
      </trkpt>
      <trkpt lat="46.99825" lon="8.86845">
        <ele>1548</ele>
        <time>2021-08-03T11:55:12.908Z</time>
      </trkpt>
      <trkpt lat="46.99826" lon="8.86844">
        <ele>1548</ele>
        <time>2021-08-03T11:55:13.909Z</time>
      </trkpt>
      <trkpt lat="46.99826" lon="8.86843">
        <ele>1547</ele>
        <time>2021-08-03T11:55:14.908Z</time>
      </trkpt>
      <trkpt lat="46.99823" lon="8.86844">
        <ele>1547</ele>
        <time>2021-08-03T11:55:15.909Z</time>
      </trkpt>
      <trkpt lat="46.99823" lon="8.86845">
        <ele>1548</ele>
        <time>2021-08-03T11:55:16.908Z</time>
      </trkpt>
      <trkpt lat="46.99823" lon="8.86845">
        <ele>1548</ele>
        <time>2021-08-03T11:55:17.908Z</time>
      </trkpt>
      <trkpt lat="46.99823" lon="8.86844">
        <ele>1549</ele>
        <time>2021-08-03T11:55:18.908Z</time>
      </trkpt>
      <trkpt lat="46.99823" lon="8.86844">
        <ele>1549</ele>
        <time>2021-08-03T11:55:19.908Z</time>
      </trkpt>
      <trkpt lat="46.99824" lon="8.86843">
        <ele>1548</ele>
        <time>2021-08-03T11:55:20.908Z</time>
      </trkpt>
      <trkpt lat="46.99824" lon="8.86843">
        <ele>1547</ele>
        <time>2021-08-03T11:55:21.909Z</time>
      </trkpt>
      <trkpt lat="46.99825" lon="8.86843">
        <ele>1547</ele>
        <time>2021-08-03T11:55:22.908Z</time>
      </trkpt>
      <trkpt lat="46.99825" lon="8.8684">
        <ele>1540</ele>
        <time>2021-08-03T11:55:23.909Z</time>
      </trkpt>
      <trkpt lat="46.99825" lon="8.8684">
        <ele>1540</ele>
        <time>2021-08-03T11:55:24.908Z</time>
      </trkpt>
      <trkpt lat="46.99828" lon="8.86839">
        <ele>1541</ele>
        <time>2021-08-03T11:55:25.908Z</time>
      </trkpt>
      <trkpt lat="46.99828" lon="8.8684">
        <ele>1542</ele>
        <time>2021-08-03T11:55:26.908Z</time>
      </trkpt>
      <trkpt lat="46.99828" lon="8.8684">
        <ele>1543</ele>
        <time>2021-08-03T11:55:27.908Z</time>
      </trkpt>
      <trkpt lat="46.99829" lon="8.8684">
        <ele>1546</ele>
        <time>2021-08-03T11:55:28.908Z</time>
      </trkpt>
      <trkpt lat="46.99829" lon="8.86841">
        <ele>1546</ele>
        <time>2021-08-03T11:55:29.908Z</time>
      </trkpt>
      <trkpt lat="46.99828" lon="8.86842">
        <ele>1547</ele>
        <time>2021-08-03T11:55:30.908Z</time>
      </trkpt>
      <trkpt lat="46.99829" lon="8.86841">
        <ele>1547</ele>
        <time>2021-08-03T11:55:31.910Z</time>
      </trkpt>
      <trkpt lat="46.99829" lon="8.86841">
        <ele>1547</ele>
        <time>2021-08-03T11:55:32.910Z</time>
      </trkpt>
      <trkpt lat="46.99828" lon="8.86841">
        <ele>1547</ele>
        <time>2021-08-03T11:55:33.910Z</time>
      </trkpt>
      <trkpt lat="46.99828" lon="8.8684">
        <ele>1548</ele>
        <time>2021-08-03T11:55:34.909Z</time>
      </trkpt>
      <trkpt lat="46.99828" lon="8.8684">
        <ele>1548</ele>
        <time>2021-08-03T11:55:35.909Z</time>
      </trkpt>
      <trkpt lat="46.99828" lon="8.86841">
        <ele>1549</ele>
        <time>2021-08-03T11:55:36.910Z</time>
      </trkpt>
      <trkpt lat="46.99828" lon="8.86841">
        <ele>1549</ele>
        <time>2021-08-03T11:55:37.909Z</time>
      </trkpt>
      <trkpt lat="46.99828" lon="8.86841">
        <ele>1550</ele>
        <time>2021-08-03T11:55:38.909Z</time>
      </trkpt>
      <trkpt lat="46.99829" lon="8.86841">
        <ele>1550</ele>
        <time>2021-08-03T11:55:39.909Z</time>
      </trkpt>
      <trkpt lat="46.99829" lon="8.8684">
        <ele>1550</ele>
        <time>2021-08-03T11:55:40.910Z</time>
      </trkpt>
      <trkpt lat="46.99829" lon="8.86839">
        <ele>1549</ele>
        <time>2021-08-03T11:55:41.910Z</time>
      </trkpt>
      <trkpt lat="46.9983" lon="8.86837">
        <ele>1548</ele>
        <time>2021-08-03T11:55:42.909Z</time>
      </trkpt>
      <trkpt lat="46.9983" lon="8.86835">
        <ele>1547</ele>
        <time>2021-08-03T11:55:43.909Z</time>
      </trkpt>
      <trkpt lat="46.9983" lon="8.86834">
        <ele>1547</ele>
        <time>2021-08-03T11:55:44.909Z</time>
      </trkpt>
      <trkpt lat="46.9983" lon="8.86835">
        <ele>1546</ele>
        <time>2021-08-03T11:55:45.909Z</time>
      </trkpt>
      <trkpt lat="46.9983" lon="8.86836">
        <ele>1545</ele>
        <time>2021-08-03T11:55:46.910Z</time>
      </trkpt>
      <trkpt lat="46.9983" lon="8.86836">
        <ele>1544</ele>
        <time>2021-08-03T11:55:47.910Z</time>
      </trkpt>
      <trkpt lat="46.99831" lon="8.86834">
        <ele>1540</ele>
        <time>2021-08-03T11:55:48.910Z</time>
      </trkpt>
      <trkpt lat="46.99829" lon="8.86833">
        <ele>1538</ele>
        <time>2021-08-03T11:55:49.911Z</time>
      </trkpt>
      <trkpt lat="46.99829" lon="8.86833">
        <ele>1537</ele>
        <time>2021-08-03T11:55:50.911Z</time>
      </trkpt>
      <trkpt lat="46.99828" lon="8.86831">
        <ele>1537</ele>
        <time>2021-08-03T11:55:51.912Z</time>
      </trkpt>
      <trkpt lat="46.99827" lon="8.8683">
        <ele>1536</ele>
        <time>2021-08-03T11:55:52.911Z</time>
      </trkpt>
      <trkpt lat="46.99827" lon="8.86829">
        <ele>1536</ele>
        <time>2021-08-03T11:55:53.911Z</time>
      </trkpt>
      <trkpt lat="46.99826" lon="8.86828">
        <ele>1535</ele>
        <time>2021-08-03T11:55:54.911Z</time>
      </trkpt>
      <trkpt lat="46.99826" lon="8.86827">
        <ele>1535</ele>
        <time>2021-08-03T11:55:55.912Z</time>
      </trkpt>
      <trkpt lat="46.99825" lon="8.86826">
        <ele>1534</ele>
        <time>2021-08-03T11:55:56.912Z</time>
      </trkpt>
      <trkpt lat="46.99824" lon="8.86826">
        <ele>1534</ele>
        <time>2021-08-03T11:55:57.911Z</time>
      </trkpt>
      <trkpt lat="46.99823" lon="8.86826">
        <ele>1534</ele>
        <time>2021-08-03T11:55:58.911Z</time>
      </trkpt>
      <trkpt lat="46.99822" lon="8.86826">
        <ele>1535</ele>
        <time>2021-08-03T11:55:59.912Z</time>
      </trkpt>
      <trkpt lat="46.99821" lon="8.86825">
        <ele>1535</ele>
        <time>2021-08-03T11:56:00.912Z</time>
      </trkpt>
      <trkpt lat="46.99821" lon="8.86823">
        <ele>1536</ele>
        <time>2021-08-03T11:56:01.912Z</time>
      </trkpt>
      <trkpt lat="46.9982" lon="8.86823">
        <ele>1536</ele>
        <time>2021-08-03T11:56:02.911Z</time>
      </trkpt>
      <trkpt lat="46.99819" lon="8.86821">
        <ele>1536</ele>
        <time>2021-08-03T11:56:03.912Z</time>
      </trkpt>
      <trkpt lat="46.99818" lon="8.86819">
        <ele>1537</ele>
        <time>2021-08-03T11:56:04.912Z</time>
      </trkpt>
      <trkpt lat="46.99818" lon="8.86818">
        <ele>1537</ele>
        <time>2021-08-03T11:56:05.912Z</time>
      </trkpt>
      <trkpt lat="46.99817" lon="8.86817">
        <ele>1537</ele>
        <time>2021-08-03T11:56:06.912Z</time>
      </trkpt>
      <trkpt lat="46.99816" lon="8.86817">
        <ele>1536</ele>
        <time>2021-08-03T11:56:07.911Z</time>
      </trkpt>
      <trkpt lat="46.99815" lon="8.86815">
        <ele>1536</ele>
        <time>2021-08-03T11:56:08.912Z</time>
      </trkpt>
      <trkpt lat="46.99815" lon="8.86813">
        <ele>1536</ele>
        <time>2021-08-03T11:56:09.912Z</time>
      </trkpt>
      <trkpt lat="46.99814" lon="8.86812">
        <ele>1536</ele>
        <time>2021-08-03T11:56:10.912Z</time>
      </trkpt>
      <trkpt lat="46.99814" lon="8.86811">
        <ele>1536</ele>
        <time>2021-08-03T11:56:11.912Z</time>
      </trkpt>
      <trkpt lat="46.99813" lon="8.86809">
        <ele>1536</ele>
        <time>2021-08-03T11:56:12.912Z</time>
      </trkpt>
      <trkpt lat="46.99813" lon="8.86809">
        <ele>1536</ele>
        <time>2021-08-03T11:56:13.912Z</time>
      </trkpt>
      <trkpt lat="46.99812" lon="8.86808">
        <ele>1536</ele>
        <time>2021-08-03T11:56:14.912Z</time>
      </trkpt>
      <trkpt lat="46.99811" lon="8.86807">
        <ele>1536</ele>
        <time>2021-08-03T11:56:15.912Z</time>
      </trkpt>
      <trkpt lat="46.99809" lon="8.86808">
        <ele>1537</ele>
        <time>2021-08-03T11:56:16.912Z</time>
      </trkpt>
      <trkpt lat="46.99808" lon="8.86807">
        <ele>1538</ele>
        <time>2021-08-03T11:56:17.912Z</time>
      </trkpt>
      <trkpt lat="46.99808" lon="8.86808">
        <ele>1539</ele>
        <time>2021-08-03T11:56:18.912Z</time>
      </trkpt>
      <trkpt lat="46.99811" lon="8.86812">
        <ele>1539</ele>
        <time>2021-08-03T11:56:19.912Z</time>
      </trkpt>
      <trkpt lat="46.99811" lon="8.8681">
        <ele>1536</ele>
        <time>2021-08-03T11:56:20.914Z</time>
      </trkpt>
      <trkpt lat="46.9981" lon="8.86809">
        <ele>1537</ele>
        <time>2021-08-03T11:56:21.913Z</time>
      </trkpt>
      <trkpt lat="46.9981" lon="8.86807">
        <ele>1537</ele>
        <time>2021-08-03T11:56:22.914Z</time>
      </trkpt>
      <trkpt lat="46.9981" lon="8.86806">
        <ele>1537</ele>
        <time>2021-08-03T11:56:23.913Z</time>
      </trkpt>
      <trkpt lat="46.99809" lon="8.86804">
        <ele>1537</ele>
        <time>2021-08-03T11:56:24.914Z</time>
      </trkpt>
      <trkpt lat="46.99808" lon="8.86803">
        <ele>1537</ele>
        <time>2021-08-03T11:56:25.914Z</time>
      </trkpt>
      <trkpt lat="46.99808" lon="8.86802">
        <ele>1537</ele>
        <time>2021-08-03T11:56:26.914Z</time>
      </trkpt>
      <trkpt lat="46.99807" lon="8.868">
        <ele>1537</ele>
        <time>2021-08-03T11:56:27.913Z</time>
      </trkpt>
      <trkpt lat="46.99806" lon="8.86799">
        <ele>1537</ele>
        <time>2021-08-03T11:56:28.914Z</time>
      </trkpt>
      <trkpt lat="46.99805" lon="8.86799">
        <ele>1537</ele>
        <time>2021-08-03T11:56:29.914Z</time>
      </trkpt>
      <trkpt lat="46.99805" lon="8.868">
        <ele>1537</ele>
        <time>2021-08-03T11:56:30.914Z</time>
      </trkpt>
      <trkpt lat="46.99805" lon="8.868">
        <ele>1537</ele>
        <time>2021-08-03T11:56:31.913Z</time>
      </trkpt>
      <trkpt lat="46.99805" lon="8.86799">
        <ele>1533</ele>
        <time>2021-08-03T11:56:32.914Z</time>
      </trkpt>
      <trkpt lat="46.99804" lon="8.86798">
        <ele>1533</ele>
        <time>2021-08-03T11:56:33.915Z</time>
      </trkpt>
      <trkpt lat="46.99803" lon="8.86797">
        <ele>1533</ele>
        <time>2021-08-03T11:56:34.915Z</time>
      </trkpt>
      <trkpt lat="46.99802" lon="8.86797">
        <ele>1533</ele>
        <time>2021-08-03T11:56:35.914Z</time>
      </trkpt>
      <trkpt lat="46.99802" lon="8.86797">
        <ele>1533</ele>
        <time>2021-08-03T11:56:36.914Z</time>
      </trkpt>
      <trkpt lat="46.99801" lon="8.86797">
        <ele>1533</ele>
        <time>2021-08-03T11:56:37.914Z</time>
      </trkpt>
      <trkpt lat="46.99801" lon="8.86796">
        <ele>1533</ele>
        <time>2021-08-03T11:56:38.914Z</time>
      </trkpt>
      <trkpt lat="46.99801" lon="8.86796">
        <ele>1534</ele>
        <time>2021-08-03T11:56:39.914Z</time>
      </trkpt>
      <trkpt lat="46.99801" lon="8.86796">
        <ele>1534</ele>
        <time>2021-08-03T11:56:40.915Z</time>
      </trkpt>
      <trkpt lat="46.998" lon="8.86795">
        <ele>1539</ele>
        <time>2021-08-03T11:56:41.916Z</time>
      </trkpt>
      <trkpt lat="46.99799" lon="8.86795">
        <ele>1540</ele>
        <time>2021-08-03T11:56:42.916Z</time>
      </trkpt>
      <trkpt lat="46.99799" lon="8.86794">
        <ele>1540</ele>
        <time>2021-08-03T11:56:43.917Z</time>
      </trkpt>
      <trkpt lat="46.99798" lon="8.86793">
        <ele>1541</ele>
        <time>2021-08-03T11:56:44.916Z</time>
      </trkpt>
      <trkpt lat="46.99797" lon="8.86792">
        <ele>1541</ele>
        <time>2021-08-03T11:56:45.916Z</time>
      </trkpt>
      <trkpt lat="46.99797" lon="8.86791">
        <ele>1542</ele>
        <time>2021-08-03T11:56:46.916Z</time>
      </trkpt>
      <trkpt lat="46.99797" lon="8.8679">
        <ele>1542</ele>
        <time>2021-08-03T11:56:47.916Z</time>
      </trkpt>
      <trkpt lat="46.99796" lon="8.86789">
        <ele>1543</ele>
        <time>2021-08-03T11:56:48.916Z</time>
      </trkpt>
      <trkpt lat="46.99796" lon="8.86787">
        <ele>1543</ele>
        <time>2021-08-03T11:56:49.916Z</time>
      </trkpt>
      <trkpt lat="46.99795" lon="8.86786">
        <ele>1543</ele>
        <time>2021-08-03T11:56:50.916Z</time>
      </trkpt>
      <trkpt lat="46.99794" lon="8.86785">
        <ele>1543</ele>
        <time>2021-08-03T11:56:51.916Z</time>
      </trkpt>
      <trkpt lat="46.99793" lon="8.86784">
        <ele>1544</ele>
        <time>2021-08-03T11:56:52.916Z</time>
      </trkpt>
      <trkpt lat="46.99793" lon="8.86783">
        <ele>1544</ele>
        <time>2021-08-03T11:56:53.916Z</time>
      </trkpt>
      <trkpt lat="46.99792" lon="8.86782">
        <ele>1544</ele>
        <time>2021-08-03T11:56:54.916Z</time>
      </trkpt>
      <trkpt lat="46.99791" lon="8.86781">
        <ele>1544</ele>
        <time>2021-08-03T11:56:55.917Z</time>
      </trkpt>
      <trkpt lat="46.99791" lon="8.8678">
        <ele>1544</ele>
        <time>2021-08-03T11:56:56.916Z</time>
      </trkpt>
      <trkpt lat="46.9979" lon="8.86778">
        <ele>1544</ele>
        <time>2021-08-03T11:56:57.916Z</time>
      </trkpt>
      <trkpt lat="46.9979" lon="8.86776">
        <ele>1544</ele>
        <time>2021-08-03T11:56:58.916Z</time>
      </trkpt>
      <trkpt lat="46.99789" lon="8.86775">
        <ele>1544</ele>
        <time>2021-08-03T11:56:59.916Z</time>
      </trkpt>
      <trkpt lat="46.99788" lon="8.86774">
        <ele>1544</ele>
        <time>2021-08-03T11:57:00.917Z</time>
      </trkpt>
      <trkpt lat="46.99788" lon="8.86773">
        <ele>1544</ele>
        <time>2021-08-03T11:57:01.916Z</time>
      </trkpt>
      <trkpt lat="46.99787" lon="8.86773">
        <ele>1543</ele>
        <time>2021-08-03T11:57:02.917Z</time>
      </trkpt>
      <trkpt lat="46.99786" lon="8.86771">
        <ele>1543</ele>
        <time>2021-08-03T11:57:03.916Z</time>
      </trkpt>
      <trkpt lat="46.99786" lon="8.8677">
        <ele>1543</ele>
        <time>2021-08-03T11:57:04.917Z</time>
      </trkpt>
      <trkpt lat="46.99785" lon="8.8677">
        <ele>1543</ele>
        <time>2021-08-03T11:57:05.916Z</time>
      </trkpt>
      <trkpt lat="46.99784" lon="8.86769">
        <ele>1543</ele>
        <time>2021-08-03T11:57:06.917Z</time>
      </trkpt>
      <trkpt lat="46.99783" lon="8.86768">
        <ele>1544</ele>
        <time>2021-08-03T11:57:07.916Z</time>
      </trkpt>
      <trkpt lat="46.99783" lon="8.86766">
        <ele>1544</ele>
        <time>2021-08-03T11:57:08.916Z</time>
      </trkpt>
      <trkpt lat="46.99782" lon="8.86765">
        <ele>1544</ele>
        <time>2021-08-03T11:57:09.916Z</time>
      </trkpt>
      <trkpt lat="46.99781" lon="8.86764">
        <ele>1544</ele>
        <time>2021-08-03T11:57:10.916Z</time>
      </trkpt>
      <trkpt lat="46.9978" lon="8.86763">
        <ele>1544</ele>
        <time>2021-08-03T11:57:11.916Z</time>
      </trkpt>
      <trkpt lat="46.9978" lon="8.86761">
        <ele>1544</ele>
        <time>2021-08-03T11:57:12.916Z</time>
      </trkpt>
      <trkpt lat="46.99779" lon="8.8676">
        <ele>1543</ele>
        <time>2021-08-03T11:57:13.916Z</time>
      </trkpt>
      <trkpt lat="46.99779" lon="8.86759">
        <ele>1543</ele>
        <time>2021-08-03T11:57:18.046Z</time>
      </trkpt>
      <trkpt lat="46.99778" lon="8.86758">
        <ele>1543</ele>
        <time>2021-08-03T11:57:19.046Z</time>
      </trkpt>
      <trkpt lat="46.99778" lon="8.86757">
        <ele>1542</ele>
        <time>2021-08-03T11:57:20.045Z</time>
      </trkpt>
      <trkpt lat="46.99777" lon="8.86755">
        <ele>1542</ele>
        <time>2021-08-03T11:57:21.045Z</time>
      </trkpt>
      <trkpt lat="46.99777" lon="8.86753">
        <ele>1542</ele>
        <time>2021-08-03T11:57:22.045Z</time>
      </trkpt>
      <trkpt lat="46.99776" lon="8.86752">
        <ele>1542</ele>
        <time>2021-08-03T11:57:23.045Z</time>
      </trkpt>
      <trkpt lat="46.99775" lon="8.86751">
        <ele>1541</ele>
        <time>2021-08-03T11:57:24.046Z</time>
      </trkpt>
      <trkpt lat="46.99775" lon="8.8675">
        <ele>1541</ele>
        <time>2021-08-03T11:57:25.045Z</time>
      </trkpt>
      <trkpt lat="46.99774" lon="8.86749">
        <ele>1541</ele>
        <time>2021-08-03T11:57:26.046Z</time>
      </trkpt>
      <trkpt lat="46.99773" lon="8.86748">
        <ele>1541</ele>
        <time>2021-08-03T11:57:27.045Z</time>
      </trkpt>
      <trkpt lat="46.99773" lon="8.86747">
        <ele>1541</ele>
        <time>2021-08-03T11:57:28.046Z</time>
      </trkpt>
      <trkpt lat="46.99772" lon="8.86746">
        <ele>1541</ele>
        <time>2021-08-03T11:57:29.046Z</time>
      </trkpt>
      <trkpt lat="46.99772" lon="8.86745">
        <ele>1541</ele>
        <time>2021-08-03T11:57:30.045Z</time>
      </trkpt>
      <trkpt lat="46.99771" lon="8.86745">
        <ele>1541</ele>
        <time>2021-08-03T11:57:31.046Z</time>
      </trkpt>
      <trkpt lat="46.9977" lon="8.86745">
        <ele>1541</ele>
        <time>2021-08-03T11:57:32.045Z</time>
      </trkpt>
      <trkpt lat="46.99769" lon="8.86744">
        <ele>1542</ele>
        <time>2021-08-03T11:57:33.045Z</time>
      </trkpt>
      <trkpt lat="46.99768" lon="8.86743">
        <ele>1542</ele>
        <time>2021-08-03T11:57:34.045Z</time>
      </trkpt>
      <trkpt lat="46.99767" lon="8.86742">
        <ele>1541</ele>
        <time>2021-08-03T11:57:35.046Z</time>
      </trkpt>
      <trkpt lat="46.99767" lon="8.86741">
        <ele>1541</ele>
        <time>2021-08-03T11:57:36.046Z</time>
      </trkpt>
      <trkpt lat="46.99766" lon="8.86741">
        <ele>1540</ele>
        <time>2021-08-03T11:57:37.046Z</time>
      </trkpt>
      <trkpt lat="46.99765" lon="8.8674">
        <ele>1540</ele>
        <time>2021-08-03T11:57:38.046Z</time>
      </trkpt>
      <trkpt lat="46.99764" lon="8.8674">
        <ele>1540</ele>
        <time>2021-08-03T11:57:39.045Z</time>
      </trkpt>
      <trkpt lat="46.99763" lon="8.86739">
        <ele>1539</ele>
        <time>2021-08-03T11:57:40.045Z</time>
      </trkpt>
      <trkpt lat="46.99762" lon="8.86738">
        <ele>1539</ele>
        <time>2021-08-03T11:57:41.045Z</time>
      </trkpt>
      <trkpt lat="46.99762" lon="8.86737">
        <ele>1538</ele>
        <time>2021-08-03T11:57:42.046Z</time>
      </trkpt>
      <trkpt lat="46.99761" lon="8.86736">
        <ele>1538</ele>
        <time>2021-08-03T11:57:43.045Z</time>
      </trkpt>
      <trkpt lat="46.99761" lon="8.86735">
        <ele>1537</ele>
        <time>2021-08-03T11:57:44.045Z</time>
      </trkpt>
      <trkpt lat="46.9976" lon="8.86734">
        <ele>1537</ele>
        <time>2021-08-03T11:57:45.045Z</time>
      </trkpt>
      <trkpt lat="46.99759" lon="8.86733">
        <ele>1537</ele>
        <time>2021-08-03T11:57:46.045Z</time>
      </trkpt>
      <trkpt lat="46.99759" lon="8.86732">
        <ele>1537</ele>
        <time>2021-08-03T11:57:47.045Z</time>
      </trkpt>
      <trkpt lat="46.99757" lon="8.86732">
        <ele>1537</ele>
        <time>2021-08-03T11:57:48.046Z</time>
      </trkpt>
      <trkpt lat="46.99756" lon="8.86731">
        <ele>1537</ele>
        <time>2021-08-03T11:57:49.045Z</time>
      </trkpt>
      <trkpt lat="46.99755" lon="8.86731">
        <ele>1538</ele>
        <time>2021-08-03T11:57:50.045Z</time>
      </trkpt>
      <trkpt lat="46.99755" lon="8.86731">
        <ele>1539</ele>
        <time>2021-08-03T11:57:51.045Z</time>
      </trkpt>
      <trkpt lat="46.99752" lon="8.86732">
        <ele>1539</ele>
        <time>2021-08-03T11:57:52.045Z</time>
      </trkpt>
      <trkpt lat="46.99752" lon="8.86731">
        <ele>1539</ele>
        <time>2021-08-03T11:57:53.045Z</time>
      </trkpt>
      <trkpt lat="46.99752" lon="8.86729">
        <ele>1540</ele>
        <time>2021-08-03T11:57:54.045Z</time>
      </trkpt>
      <trkpt lat="46.99751" lon="8.86728">
        <ele>1539</ele>
        <time>2021-08-03T11:57:55.045Z</time>
      </trkpt>
      <trkpt lat="46.99751" lon="8.86727">
        <ele>1539</ele>
        <time>2021-08-03T11:57:56.045Z</time>
      </trkpt>
      <trkpt lat="46.9975" lon="8.86726">
        <ele>1539</ele>
        <time>2021-08-03T11:57:57.045Z</time>
      </trkpt>
      <trkpt lat="46.99749" lon="8.86726">
        <ele>1539</ele>
        <time>2021-08-03T11:57:58.045Z</time>
      </trkpt>
      <trkpt lat="46.99748" lon="8.86725">
        <ele>1539</ele>
        <time>2021-08-03T11:57:59.045Z</time>
      </trkpt>
      <trkpt lat="46.99747" lon="8.86724">
        <ele>1539</ele>
        <time>2021-08-03T11:58:00.045Z</time>
      </trkpt>
      <trkpt lat="46.99746" lon="8.86724">
        <ele>1539</ele>
        <time>2021-08-03T11:58:01.045Z</time>
      </trkpt>
      <trkpt lat="46.99746" lon="8.86723">
        <ele>1539</ele>
        <time>2021-08-03T11:58:02.045Z</time>
      </trkpt>
      <trkpt lat="46.99745" lon="8.86721">
        <ele>1539</ele>
        <time>2021-08-03T11:58:03.045Z</time>
      </trkpt>
      <trkpt lat="46.99745" lon="8.86718">
        <ele>1539</ele>
        <time>2021-08-03T11:58:04.045Z</time>
      </trkpt>
      <trkpt lat="46.99744" lon="8.86718">
        <ele>1539</ele>
        <time>2021-08-03T11:58:05.045Z</time>
      </trkpt>
      <trkpt lat="46.99743" lon="8.86717">
        <ele>1539</ele>
        <time>2021-08-03T11:58:06.045Z</time>
      </trkpt>
      <trkpt lat="46.99742" lon="8.86716">
        <ele>1538</ele>
        <time>2021-08-03T11:58:07.045Z</time>
      </trkpt>
      <trkpt lat="46.99741" lon="8.86716">
        <ele>1538</ele>
        <time>2021-08-03T11:58:08.045Z</time>
      </trkpt>
      <trkpt lat="46.99739" lon="8.86715">
        <ele>1538</ele>
        <time>2021-08-03T11:58:09.045Z</time>
      </trkpt>
      <trkpt lat="46.99738" lon="8.86715">
        <ele>1538</ele>
        <time>2021-08-03T11:58:10.045Z</time>
      </trkpt>
      <trkpt lat="46.99737" lon="8.86714">
        <ele>1538</ele>
        <time>2021-08-03T11:58:11.045Z</time>
      </trkpt>
      <trkpt lat="46.99735" lon="8.86714">
        <ele>1538</ele>
        <time>2021-08-03T11:58:12.045Z</time>
      </trkpt>
      <trkpt lat="46.99733" lon="8.86715">
        <ele>1539</ele>
        <time>2021-08-03T11:58:13.045Z</time>
      </trkpt>
      <trkpt lat="46.99732" lon="8.86715">
        <ele>1539</ele>
        <time>2021-08-03T11:58:14.045Z</time>
      </trkpt>
      <trkpt lat="46.9973" lon="8.86715">
        <ele>1539</ele>
        <time>2021-08-03T11:58:15.045Z</time>
      </trkpt>
      <trkpt lat="46.99729" lon="8.86715">
        <ele>1539</ele>
        <time>2021-08-03T11:58:16.045Z</time>
      </trkpt>
      <trkpt lat="46.99727" lon="8.86715">
        <ele>1540</ele>
        <time>2021-08-03T11:58:17.045Z</time>
      </trkpt>
      <trkpt lat="46.99726" lon="8.86716">
        <ele>1540</ele>
        <time>2021-08-03T11:58:18.045Z</time>
      </trkpt>
      <trkpt lat="46.99725" lon="8.86716">
        <ele>1540</ele>
        <time>2021-08-03T11:58:19.045Z</time>
      </trkpt>
      <trkpt lat="46.99723" lon="8.86717">
        <ele>1541</ele>
        <time>2021-08-03T11:58:20.045Z</time>
      </trkpt>
      <trkpt lat="46.99722" lon="8.86718">
        <ele>1541</ele>
        <time>2021-08-03T11:58:21.045Z</time>
      </trkpt>
      <trkpt lat="46.99721" lon="8.86718">
        <ele>1541</ele>
        <time>2021-08-03T11:58:22.046Z</time>
      </trkpt>
      <trkpt lat="46.99719" lon="8.86719">
        <ele>1542</ele>
        <time>2021-08-03T11:58:23.046Z</time>
      </trkpt>
      <trkpt lat="46.99718" lon="8.86719">
        <ele>1542</ele>
        <time>2021-08-03T11:58:24.045Z</time>
      </trkpt>
      <trkpt lat="46.99717" lon="8.86719">
        <ele>1543</ele>
        <time>2021-08-03T11:58:25.046Z</time>
      </trkpt>
      <trkpt lat="46.99716" lon="8.86719">
        <ele>1543</ele>
        <time>2021-08-03T11:58:26.046Z</time>
      </trkpt>
      <trkpt lat="46.99715" lon="8.8672">
        <ele>1543</ele>
        <time>2021-08-03T11:58:27.045Z</time>
      </trkpt>
      <trkpt lat="46.99713" lon="8.8672">
        <ele>1543</ele>
        <time>2021-08-03T11:58:28.046Z</time>
      </trkpt>
      <trkpt lat="46.99712" lon="8.86721">
        <ele>1543</ele>
        <time>2021-08-03T11:58:29.045Z</time>
      </trkpt>
      <trkpt lat="46.9971" lon="8.86721">
        <ele>1543</ele>
        <time>2021-08-03T11:58:30.045Z</time>
      </trkpt>
      <trkpt lat="46.99709" lon="8.86721">
        <ele>1543</ele>
        <time>2021-08-03T11:58:31.045Z</time>
      </trkpt>
      <trkpt lat="46.99708" lon="8.86721">
        <ele>1543</ele>
        <time>2021-08-03T11:58:32.045Z</time>
      </trkpt>
      <trkpt lat="46.99706" lon="8.86721">
        <ele>1543</ele>
        <time>2021-08-03T11:58:33.045Z</time>
      </trkpt>
      <trkpt lat="46.99705" lon="8.86721">
        <ele>1543</ele>
        <time>2021-08-03T11:58:34.045Z</time>
      </trkpt>
      <trkpt lat="46.99703" lon="8.86721">
        <ele>1544</ele>
        <time>2021-08-03T11:58:35.045Z</time>
      </trkpt>
      <trkpt lat="46.99702" lon="8.86721">
        <ele>1544</ele>
        <time>2021-08-03T11:58:36.046Z</time>
      </trkpt>
      <trkpt lat="46.997" lon="8.86721">
        <ele>1543</ele>
        <time>2021-08-03T11:58:37.046Z</time>
      </trkpt>
      <trkpt lat="46.99699" lon="8.86721">
        <ele>1543</ele>
        <time>2021-08-03T11:58:38.046Z</time>
      </trkpt>
      <trkpt lat="46.99698" lon="8.86721">
        <ele>1543</ele>
        <time>2021-08-03T11:58:39.046Z</time>
      </trkpt>
      <trkpt lat="46.99696" lon="8.86721">
        <ele>1542</ele>
        <time>2021-08-03T11:58:40.045Z</time>
      </trkpt>
      <trkpt lat="46.99695" lon="8.86721">
        <ele>1542</ele>
        <time>2021-08-03T11:58:41.045Z</time>
      </trkpt>
      <trkpt lat="46.99694" lon="8.86722">
        <ele>1541</ele>
        <time>2021-08-03T11:58:42.045Z</time>
      </trkpt>
      <trkpt lat="46.99693" lon="8.86722">
        <ele>1541</ele>
        <time>2021-08-03T11:58:43.046Z</time>
      </trkpt>
      <trkpt lat="46.99692" lon="8.86723">
        <ele>1541</ele>
        <time>2021-08-03T11:58:44.045Z</time>
      </trkpt>
      <trkpt lat="46.9969" lon="8.86723">
        <ele>1541</ele>
        <time>2021-08-03T11:58:45.045Z</time>
      </trkpt>
      <trkpt lat="46.99689" lon="8.86724">
        <ele>1541</ele>
        <time>2021-08-03T11:58:46.045Z</time>
      </trkpt>
      <trkpt lat="46.99688" lon="8.86724">
        <ele>1541</ele>
        <time>2021-08-03T11:58:47.046Z</time>
      </trkpt>
      <trkpt lat="46.99686" lon="8.86724">
        <ele>1541</ele>
        <time>2021-08-03T11:58:48.045Z</time>
      </trkpt>
      <trkpt lat="46.99685" lon="8.86725">
        <ele>1541</ele>
        <time>2021-08-03T11:58:49.045Z</time>
      </trkpt>
      <trkpt lat="46.99684" lon="8.86724">
        <ele>1541</ele>
        <time>2021-08-03T11:58:50.045Z</time>
      </trkpt>
      <trkpt lat="46.99683" lon="8.86724">
        <ele>1541</ele>
        <time>2021-08-03T11:58:51.045Z</time>
      </trkpt>
      <trkpt lat="46.99682" lon="8.86724">
        <ele>1541</ele>
        <time>2021-08-03T11:58:52.045Z</time>
      </trkpt>
      <trkpt lat="46.9968" lon="8.86724">
        <ele>1540</ele>
        <time>2021-08-03T11:58:53.045Z</time>
      </trkpt>
      <trkpt lat="46.99679" lon="8.86724">
        <ele>1540</ele>
        <time>2021-08-03T11:58:54.045Z</time>
      </trkpt>
      <trkpt lat="46.99678" lon="8.86724">
        <ele>1540</ele>
        <time>2021-08-03T11:58:55.045Z</time>
      </trkpt>
      <trkpt lat="46.99677" lon="8.86725">
        <ele>1540</ele>
        <time>2021-08-03T11:58:56.045Z</time>
      </trkpt>
      <trkpt lat="46.99675" lon="8.86725">
        <ele>1541</ele>
        <time>2021-08-03T11:58:57.046Z</time>
      </trkpt>
      <trkpt lat="46.99674" lon="8.86725">
        <ele>1541</ele>
        <time>2021-08-03T11:58:58.045Z</time>
      </trkpt>
      <trkpt lat="46.99673" lon="8.86725">
        <ele>1542</ele>
        <time>2021-08-03T11:58:59.045Z</time>
      </trkpt>
      <trkpt lat="46.99671" lon="8.86725">
        <ele>1542</ele>
        <time>2021-08-03T11:59:00.045Z</time>
      </trkpt>
      <trkpt lat="46.9967" lon="8.86725">
        <ele>1543</ele>
        <time>2021-08-03T11:59:01.045Z</time>
      </trkpt>
      <trkpt lat="46.99668" lon="8.86726">
        <ele>1543</ele>
        <time>2021-08-03T11:59:02.045Z</time>
      </trkpt>
      <trkpt lat="46.99667" lon="8.86726">
        <ele>1544</ele>
        <time>2021-08-03T11:59:03.046Z</time>
      </trkpt>
      <trkpt lat="46.99666" lon="8.86726">
        <ele>1544</ele>
        <time>2021-08-03T11:59:04.045Z</time>
      </trkpt>
      <trkpt lat="46.99666" lon="8.86726">
        <ele>1544</ele>
        <time>2021-08-03T11:59:05.046Z</time>
      </trkpt>
      <trkpt lat="46.99663" lon="8.86727">
        <ele>1545</ele>
        <time>2021-08-03T11:59:06.045Z</time>
      </trkpt>
      <trkpt lat="46.99662" lon="8.86727">
        <ele>1546</ele>
        <time>2021-08-03T11:59:07.045Z</time>
      </trkpt>
      <trkpt lat="46.9966" lon="8.86728">
        <ele>1546</ele>
        <time>2021-08-03T11:59:08.045Z</time>
      </trkpt>
      <trkpt lat="46.99659" lon="8.86728">
        <ele>1546</ele>
        <time>2021-08-03T11:59:09.045Z</time>
      </trkpt>
      <trkpt lat="46.99658" lon="8.86728">
        <ele>1545</ele>
        <time>2021-08-03T11:59:10.045Z</time>
      </trkpt>
      <trkpt lat="46.99656" lon="8.86728">
        <ele>1545</ele>
        <time>2021-08-03T11:59:11.045Z</time>
      </trkpt>
      <trkpt lat="46.99655" lon="8.86728">
        <ele>1545</ele>
        <time>2021-08-03T11:59:12.045Z</time>
      </trkpt>
      <trkpt lat="46.99654" lon="8.86728">
        <ele>1546</ele>
        <time>2021-08-03T11:59:13.045Z</time>
      </trkpt>
      <trkpt lat="46.99653" lon="8.86728">
        <ele>1546</ele>
        <time>2021-08-03T11:59:14.045Z</time>
      </trkpt>
      <trkpt lat="46.99652" lon="8.86728">
        <ele>1546</ele>
        <time>2021-08-03T11:59:15.045Z</time>
      </trkpt>
      <trkpt lat="46.9965" lon="8.86727">
        <ele>1546</ele>
        <time>2021-08-03T11:59:16.045Z</time>
      </trkpt>
      <trkpt lat="46.9965" lon="8.86727">
        <ele>1546</ele>
        <time>2021-08-03T11:59:17.045Z</time>
      </trkpt>
      <trkpt lat="46.99648" lon="8.86727">
        <ele>1545</ele>
        <time>2021-08-03T11:59:18.045Z</time>
      </trkpt>
      <trkpt lat="46.99647" lon="8.86726">
        <ele>1545</ele>
        <time>2021-08-03T11:59:19.045Z</time>
      </trkpt>
      <trkpt lat="46.99646" lon="8.86726">
        <ele>1545</ele>
        <time>2021-08-03T11:59:20.045Z</time>
      </trkpt>
      <trkpt lat="46.99645" lon="8.86725">
        <ele>1544</ele>
        <time>2021-08-03T11:59:21.046Z</time>
      </trkpt>
      <trkpt lat="46.99644" lon="8.86724">
        <ele>1544</ele>
        <time>2021-08-03T11:59:22.046Z</time>
      </trkpt>
      <trkpt lat="46.99643" lon="8.86723">
        <ele>1543</ele>
        <time>2021-08-03T11:59:23.045Z</time>
      </trkpt>
      <trkpt lat="46.99642" lon="8.86723">
        <ele>1544</ele>
        <time>2021-08-03T11:59:24.045Z</time>
      </trkpt>
      <trkpt lat="46.99641" lon="8.86722">
        <ele>1544</ele>
        <time>2021-08-03T11:59:25.046Z</time>
      </trkpt>
      <trkpt lat="46.9964" lon="8.86722">
        <ele>1543</ele>
        <time>2021-08-03T11:59:26.045Z</time>
      </trkpt>
      <trkpt lat="46.99638" lon="8.86722">
        <ele>1543</ele>
        <time>2021-08-03T11:59:27.046Z</time>
      </trkpt>
      <trkpt lat="46.99637" lon="8.86722">
        <ele>1543</ele>
        <time>2021-08-03T11:59:28.045Z</time>
      </trkpt>
      <trkpt lat="46.99636" lon="8.86721">
        <ele>1543</ele>
        <time>2021-08-03T11:59:29.045Z</time>
      </trkpt>
      <trkpt lat="46.99634" lon="8.86721">
        <ele>1543</ele>
        <time>2021-08-03T11:59:30.046Z</time>
      </trkpt>
      <trkpt lat="46.99633" lon="8.86721">
        <ele>1543</ele>
        <time>2021-08-03T11:59:31.046Z</time>
      </trkpt>
      <trkpt lat="46.99632" lon="8.8672">
        <ele>1543</ele>
        <time>2021-08-03T11:59:32.046Z</time>
      </trkpt>
      <trkpt lat="46.99632" lon="8.86719">
        <ele>1542</ele>
        <time>2021-08-03T11:59:33.045Z</time>
      </trkpt>
      <trkpt lat="46.99631" lon="8.86719">
        <ele>1542</ele>
        <time>2021-08-03T11:59:34.046Z</time>
      </trkpt>
      <trkpt lat="46.9963" lon="8.86718">
        <ele>1541</ele>
        <time>2021-08-03T11:59:35.045Z</time>
      </trkpt>
      <trkpt lat="46.99629" lon="8.86718">
        <ele>1541</ele>
        <time>2021-08-03T11:59:36.045Z</time>
      </trkpt>
      <trkpt lat="46.99628" lon="8.86718">
        <ele>1541</ele>
        <time>2021-08-03T11:59:37.045Z</time>
      </trkpt>
      <trkpt lat="46.99627" lon="8.86717">
        <ele>1541</ele>
        <time>2021-08-03T11:59:38.045Z</time>
      </trkpt>
      <trkpt lat="46.99626" lon="8.86716">
        <ele>1541</ele>
        <time>2021-08-03T11:59:39.045Z</time>
      </trkpt>
      <trkpt lat="46.99625" lon="8.86715">
        <ele>1541</ele>
        <time>2021-08-03T11:59:40.045Z</time>
      </trkpt>
      <trkpt lat="46.99624" lon="8.86714">
        <ele>1541</ele>
        <time>2021-08-03T11:59:41.045Z</time>
      </trkpt>
      <trkpt lat="46.99623" lon="8.86712">
        <ele>1541</ele>
        <time>2021-08-03T11:59:42.045Z</time>
      </trkpt>
      <trkpt lat="46.99622" lon="8.86711">
        <ele>1541</ele>
        <time>2021-08-03T11:59:43.046Z</time>
      </trkpt>
      <trkpt lat="46.99621" lon="8.86711">
        <ele>1541</ele>
        <time>2021-08-03T11:59:44.045Z</time>
      </trkpt>
      <trkpt lat="46.99621" lon="8.8671">
        <ele>1541</ele>
        <time>2021-08-03T11:59:45.046Z</time>
      </trkpt>
      <trkpt lat="46.9962" lon="8.8671">
        <ele>1541</ele>
        <time>2021-08-03T11:59:46.045Z</time>
      </trkpt>
      <trkpt lat="46.99619" lon="8.86709">
        <ele>1541</ele>
        <time>2021-08-03T11:59:47.045Z</time>
      </trkpt>
      <trkpt lat="46.99618" lon="8.86708">
        <ele>1540</ele>
        <time>2021-08-03T11:59:48.045Z</time>
      </trkpt>
      <trkpt lat="46.99618" lon="8.86707">
        <ele>1540</ele>
        <time>2021-08-03T11:59:49.046Z</time>
      </trkpt>
      <trkpt lat="46.99617" lon="8.86706">
        <ele>1540</ele>
        <time>2021-08-03T11:59:50.045Z</time>
      </trkpt>
      <trkpt lat="46.99616" lon="8.86705">
        <ele>1540</ele>
        <time>2021-08-03T11:59:51.045Z</time>
      </trkpt>
      <trkpt lat="46.99615" lon="8.86704">
        <ele>1539</ele>
        <time>2021-08-03T11:59:52.045Z</time>
      </trkpt>
      <trkpt lat="46.99615" lon="8.86703">
        <ele>1539</ele>
        <time>2021-08-03T11:59:53.046Z</time>
      </trkpt>
      <trkpt lat="46.99614" lon="8.86703">
        <ele>1539</ele>
        <time>2021-08-03T11:59:54.045Z</time>
      </trkpt>
      <trkpt lat="46.99613" lon="8.86702">
        <ele>1539</ele>
        <time>2021-08-03T11:59:55.045Z</time>
      </trkpt>
      <trkpt lat="46.99613" lon="8.86701">
        <ele>1539</ele>
        <time>2021-08-03T11:59:56.045Z</time>
      </trkpt>
      <trkpt lat="46.99612" lon="8.86699">
        <ele>1539</ele>
        <time>2021-08-03T11:59:57.045Z</time>
      </trkpt>
      <trkpt lat="46.99611" lon="8.86698">
        <ele>1538</ele>
        <time>2021-08-03T11:59:58.045Z</time>
      </trkpt>
      <trkpt lat="46.99611" lon="8.86697">
        <ele>1538</ele>
        <time>2021-08-03T11:59:59.045Z</time>
      </trkpt>
      <trkpt lat="46.99611" lon="8.86697">
        <ele>1538</ele>
        <time>2021-08-03T12:00:00.046Z</time>
      </trkpt>
      <trkpt lat="46.99612" lon="8.86697">
        <ele>1537</ele>
        <time>2021-08-03T12:00:01.045Z</time>
      </trkpt>
      <trkpt lat="46.99612" lon="8.86695">
        <ele>1536</ele>
        <time>2021-08-03T12:00:02.045Z</time>
      </trkpt>
      <trkpt lat="46.99612" lon="8.86694">
        <ele>1535</ele>
        <time>2021-08-03T12:00:03.045Z</time>
      </trkpt>
      <trkpt lat="46.99613" lon="8.86694">
        <ele>1535</ele>
        <time>2021-08-03T12:00:04.046Z</time>
      </trkpt>
      <trkpt lat="46.99612" lon="8.86694">
        <ele>1535</ele>
        <time>2021-08-03T12:00:05.046Z</time>
      </trkpt>
      <trkpt lat="46.99612" lon="8.86694">
        <ele>1535</ele>
        <time>2021-08-03T12:00:06.046Z</time>
      </trkpt>
      <trkpt lat="46.99612" lon="8.86695">
        <ele>1534</ele>
        <time>2021-08-03T12:00:07.045Z</time>
      </trkpt>
      <trkpt lat="46.99612" lon="8.86696">
        <ele>1534</ele>
        <time>2021-08-03T12:00:08.046Z</time>
      </trkpt>
      <trkpt lat="46.99612" lon="8.86696">
        <ele>1533</ele>
        <time>2021-08-03T12:00:09.046Z</time>
      </trkpt>
      <trkpt lat="46.99613" lon="8.86696">
        <ele>1532</ele>
        <time>2021-08-03T12:00:20.153Z</time>
      </trkpt>
      <trkpt lat="46.99613" lon="8.86696">
        <ele>1532</ele>
        <time>2021-08-03T12:00:24.064Z</time>
      </trkpt>
      <trkpt lat="46.99613" lon="8.86696">
        <ele>1532</ele>
        <time>2021-08-03T12:00:28.890Z</time>
      </trkpt>
      <trkpt lat="46.99613" lon="8.86695">
        <ele>1531</ele>
        <time>2021-08-03T12:00:29.890Z</time>
      </trkpt>
      <trkpt lat="46.99615" lon="8.86696">
        <ele>1531</ele>
        <time>2021-08-03T12:00:30.891Z</time>
      </trkpt>
      <trkpt lat="46.99616" lon="8.86697">
        <ele>1531</ele>
        <time>2021-08-03T12:00:31.890Z</time>
      </trkpt>
      <trkpt lat="46.99616" lon="8.86698">
        <ele>1531</ele>
        <time>2021-08-03T12:00:32.890Z</time>
      </trkpt>
      <trkpt lat="46.99617" lon="8.86699">
        <ele>1532</ele>
        <time>2021-08-03T12:00:33.891Z</time>
      </trkpt>
      <trkpt lat="46.99618" lon="8.867">
        <ele>1533</ele>
        <time>2021-08-03T12:00:34.890Z</time>
      </trkpt>
      <trkpt lat="46.99623" lon="8.867">
        <ele>1548</ele>
        <time>2021-08-04T07:19:07.793Z</time>
      </trkpt>
      <trkpt lat="46.99623" lon="8.867">
        <ele>1548</ele>
        <time>2021-08-04T07:19:07.793Z</time>
      </trkpt>
      <trkpt lat="46.99623" lon="8.867">
        <ele>1548</ele>
        <time>2021-08-04T07:19:07.793Z</time>
      </trkpt>
      <trkpt lat="46.99622" lon="8.867">
        <ele>1548</ele>
        <time>2021-08-04T07:19:08.794Z</time>
      </trkpt>
      <trkpt lat="46.99622" lon="8.86701">
        <ele>1548</ele>
        <time>2021-08-04T07:19:09.793Z</time>
      </trkpt>
      <trkpt lat="46.99622" lon="8.86701">
        <ele>1548</ele>
        <time>2021-08-04T07:19:10.794Z</time>
      </trkpt>
      <trkpt lat="46.99622" lon="8.86702">
        <ele>1548</ele>
        <time>2021-08-04T07:19:11.794Z</time>
      </trkpt>
      <trkpt lat="46.99621" lon="8.86702">
        <ele>1549</ele>
        <time>2021-08-04T07:19:12.794Z</time>
      </trkpt>
      <trkpt lat="46.9962" lon="8.86701">
        <ele>1549</ele>
        <time>2021-08-04T07:19:13.793Z</time>
      </trkpt>
      <trkpt lat="46.99619" lon="8.86701">
        <ele>1550</ele>
        <time>2021-08-04T07:19:14.794Z</time>
      </trkpt>
      <trkpt lat="46.99618" lon="8.86701">
        <ele>1550</ele>
        <time>2021-08-04T07:19:15.794Z</time>
      </trkpt>
      <trkpt lat="46.99618" lon="8.86701">
        <ele>1551</ele>
        <time>2021-08-04T07:19:16.794Z</time>
      </trkpt>
      <trkpt lat="46.99619" lon="8.86701">
        <ele>1552</ele>
        <time>2021-08-04T07:19:17.794Z</time>
      </trkpt>
      <trkpt lat="46.99619" lon="8.86702">
        <ele>1552</ele>
        <time>2021-08-04T07:19:18.794Z</time>
      </trkpt>
      <trkpt lat="46.9962" lon="8.86703">
        <ele>1552</ele>
        <time>2021-08-04T07:19:19.794Z</time>
      </trkpt>
      <trkpt lat="46.9962" lon="8.86704">
        <ele>1552</ele>
        <time>2021-08-04T07:19:20.794Z</time>
      </trkpt>
      <trkpt lat="46.99621" lon="8.86704">
        <ele>1552</ele>
        <time>2021-08-04T07:19:21.794Z</time>
      </trkpt>
      <trkpt lat="46.99621" lon="8.86705">
        <ele>1552</ele>
        <time>2021-08-04T07:19:22.794Z</time>
      </trkpt>
      <trkpt lat="46.99621" lon="8.86706">
        <ele>1552</ele>
        <time>2021-08-04T07:19:23.794Z</time>
      </trkpt>
      <trkpt lat="46.99622" lon="8.86707">
        <ele>1552</ele>
        <time>2021-08-04T07:19:24.794Z</time>
      </trkpt>
      <trkpt lat="46.99623" lon="8.86708">
        <ele>1552</ele>
        <time>2021-08-04T07:19:25.793Z</time>
      </trkpt>
      <trkpt lat="46.99623" lon="8.86709">
        <ele>1551</ele>
        <time>2021-08-04T07:19:26.794Z</time>
      </trkpt>
      <trkpt lat="46.99624" lon="8.8671">
        <ele>1551</ele>
        <time>2021-08-04T07:19:27.793Z</time>
      </trkpt>
      <trkpt lat="46.99625" lon="8.86711">
        <ele>1551</ele>
        <time>2021-08-04T07:19:28.793Z</time>
      </trkpt>
      <trkpt lat="46.99626" lon="8.86712">
        <ele>1551</ele>
        <time>2021-08-04T07:19:29.794Z</time>
      </trkpt>
      <trkpt lat="46.99627" lon="8.86713">
        <ele>1551</ele>
        <time>2021-08-04T07:19:30.794Z</time>
      </trkpt>
      <trkpt lat="46.99628" lon="8.86715">
        <ele>1550</ele>
        <time>2021-08-04T07:19:31.794Z</time>
      </trkpt>
      <trkpt lat="46.9963" lon="8.86717">
        <ele>1550</ele>
        <time>2021-08-04T07:19:32.794Z</time>
      </trkpt>
      <trkpt lat="46.9963" lon="8.86718">
        <ele>1549</ele>
        <time>2021-08-04T07:19:33.794Z</time>
      </trkpt>
      <trkpt lat="46.99631" lon="8.86719">
        <ele>1549</ele>
        <time>2021-08-04T07:19:34.793Z</time>
      </trkpt>
      <trkpt lat="46.99632" lon="8.8672">
        <ele>1548</ele>
        <time>2021-08-04T07:19:35.794Z</time>
      </trkpt>
      <trkpt lat="46.99633" lon="8.86721">
        <ele>1548</ele>
        <time>2021-08-04T07:19:36.793Z</time>
      </trkpt>
      <trkpt lat="46.99634" lon="8.86722">
        <ele>1547</ele>
        <time>2021-08-04T07:19:37.793Z</time>
      </trkpt>
      <trkpt lat="46.99635" lon="8.86723">
        <ele>1547</ele>
        <time>2021-08-04T07:19:38.794Z</time>
      </trkpt>
      <trkpt lat="46.99636" lon="8.86724">
        <ele>1546</ele>
        <time>2021-08-04T07:19:39.794Z</time>
      </trkpt>
      <trkpt lat="46.99637" lon="8.86725">
        <ele>1546</ele>
        <time>2021-08-04T07:19:40.793Z</time>
      </trkpt>
      <trkpt lat="46.99638" lon="8.86726">
        <ele>1545</ele>
        <time>2021-08-04T07:19:41.794Z</time>
      </trkpt>
      <trkpt lat="46.99638" lon="8.86727">
        <ele>1545</ele>
        <time>2021-08-04T07:19:42.793Z</time>
      </trkpt>
      <trkpt lat="46.99638" lon="8.86727">
        <ele>1545</ele>
        <time>2021-08-04T07:19:43.794Z</time>
      </trkpt>
      <trkpt lat="46.99636" lon="8.86729">
        <ele>1546</ele>
        <time>2021-08-04T07:19:44.793Z</time>
      </trkpt>
      <trkpt lat="46.99635" lon="8.86729">
        <ele>1546</ele>
        <time>2021-08-04T07:19:45.794Z</time>
      </trkpt>
      <trkpt lat="46.99635" lon="8.86729">
        <ele>1547</ele>
        <time>2021-08-04T07:19:46.793Z</time>
      </trkpt>
      <trkpt lat="46.99634" lon="8.86729">
        <ele>1547</ele>
        <time>2021-08-04T07:19:47.794Z</time>
      </trkpt>
      <trkpt lat="46.99634" lon="8.86728">
        <ele>1547</ele>
        <time>2021-08-04T07:19:48.794Z</time>
      </trkpt>
      <trkpt lat="46.99633" lon="8.86729">
        <ele>1547</ele>
        <time>2021-08-04T07:19:49.793Z</time>
      </trkpt>
      <trkpt lat="46.99632" lon="8.86729">
        <ele>1547</ele>
        <time>2021-08-04T07:19:50.793Z</time>
      </trkpt>
      <trkpt lat="46.99631" lon="8.8673">
        <ele>1548</ele>
        <time>2021-08-04T07:19:51.793Z</time>
      </trkpt>
      <trkpt lat="46.9963" lon="8.86732">
        <ele>1548</ele>
        <time>2021-08-04T07:19:52.793Z</time>
      </trkpt>
      <trkpt lat="46.99629" lon="8.86734">
        <ele>1548</ele>
        <time>2021-08-04T07:19:53.794Z</time>
      </trkpt>
      <trkpt lat="46.99628" lon="8.86735">
        <ele>1548</ele>
        <time>2021-08-04T07:19:54.794Z</time>
      </trkpt>
      <trkpt lat="46.99627" lon="8.86736">
        <ele>1548</ele>
        <time>2021-08-04T07:19:55.794Z</time>
      </trkpt>
      <trkpt lat="46.99627" lon="8.86736">
        <ele>1548</ele>
        <time>2021-08-04T07:19:56.793Z</time>
      </trkpt>
      <trkpt lat="46.99625" lon="8.86734">
        <ele>1547</ele>
        <time>2021-08-04T07:19:57.795Z</time>
      </trkpt>
      <trkpt lat="46.99625" lon="8.86734">
        <ele>1547</ele>
        <time>2021-08-04T07:19:58.794Z</time>
      </trkpt>
      <trkpt lat="46.99625" lon="8.86734">
        <ele>1547</ele>
        <time>2021-08-04T07:19:59.795Z</time>
      </trkpt>
      <trkpt lat="46.99625" lon="8.86736">
        <ele>1549</ele>
        <time>2021-08-04T07:20:00.795Z</time>
      </trkpt>
      <trkpt lat="46.99625" lon="8.86737">
        <ele>1548</ele>
        <time>2021-08-04T07:20:01.795Z</time>
      </trkpt>
      <trkpt lat="46.99625" lon="8.86738">
        <ele>1548</ele>
        <time>2021-08-04T07:20:02.795Z</time>
      </trkpt>
      <trkpt lat="46.99625" lon="8.8674">
        <ele>1548</ele>
        <time>2021-08-04T07:20:03.795Z</time>
      </trkpt>
      <trkpt lat="46.99625" lon="8.86742">
        <ele>1548</ele>
        <time>2021-08-04T07:20:04.795Z</time>
      </trkpt>
      <trkpt lat="46.99625" lon="8.86743">
        <ele>1547</ele>
        <time>2021-08-04T07:20:05.795Z</time>
      </trkpt>
      <trkpt lat="46.99625" lon="8.86743">
        <ele>1547</ele>
        <time>2021-08-04T07:20:06.796Z</time>
      </trkpt>
      <trkpt lat="46.99626" lon="8.86745">
        <ele>1547</ele>
        <time>2021-08-04T07:20:07.796Z</time>
      </trkpt>
      <trkpt lat="46.99626" lon="8.86746">
        <ele>1548</ele>
        <time>2021-08-04T07:20:08.795Z</time>
      </trkpt>
      <trkpt lat="46.99626" lon="8.86747">
        <ele>1547</ele>
        <time>2021-08-04T07:20:09.795Z</time>
      </trkpt>
      <trkpt lat="46.99626" lon="8.86749">
        <ele>1548</ele>
        <time>2021-08-04T07:20:10.795Z</time>
      </trkpt>
      <trkpt lat="46.99627" lon="8.86752">
        <ele>1550</ele>
        <time>2021-08-04T07:20:11.796Z</time>
      </trkpt>
      <trkpt lat="46.99627" lon="8.86752">
        <ele>1551</ele>
        <time>2021-08-04T07:20:12.797Z</time>
      </trkpt>
      <trkpt lat="46.99627" lon="8.86751">
        <ele>1551</ele>
        <time>2021-08-04T07:20:13.796Z</time>
      </trkpt>
      <trkpt lat="46.99631" lon="8.86749">
        <ele>1554</ele>
        <time>2021-08-04T07:20:14.797Z</time>
      </trkpt>
      <trkpt lat="46.99632" lon="8.86748">
        <ele>1554</ele>
        <time>2021-08-04T07:20:15.796Z</time>
      </trkpt>
      <trkpt lat="46.99633" lon="8.86747">
        <ele>1554</ele>
        <time>2021-08-04T07:20:16.796Z</time>
      </trkpt>
      <trkpt lat="46.99634" lon="8.86747">
        <ele>1554</ele>
        <time>2021-08-04T07:20:17.796Z</time>
      </trkpt>
      <trkpt lat="46.99634" lon="8.86746">
        <ele>1553</ele>
        <time>2021-08-04T07:20:18.797Z</time>
      </trkpt>
      <trkpt lat="46.99635" lon="8.86744">
        <ele>1553</ele>
        <time>2021-08-04T07:20:19.797Z</time>
      </trkpt>
      <trkpt lat="46.99636" lon="8.86742">
        <ele>1553</ele>
        <time>2021-08-04T07:20:20.796Z</time>
      </trkpt>
      <trkpt lat="46.99636" lon="8.8674">
        <ele>1552</ele>
        <time>2021-08-04T07:20:21.796Z</time>
      </trkpt>
      <trkpt lat="46.99637" lon="8.86737">
        <ele>1552</ele>
        <time>2021-08-04T07:20:22.797Z</time>
      </trkpt>
      <trkpt lat="46.99637" lon="8.86735">
        <ele>1552</ele>
        <time>2021-08-04T07:20:23.796Z</time>
      </trkpt>
      <trkpt lat="46.99637" lon="8.86734">
        <ele>1551</ele>
        <time>2021-08-04T07:20:24.796Z</time>
      </trkpt>
      <trkpt lat="46.99638" lon="8.86732">
        <ele>1551</ele>
        <time>2021-08-04T07:20:25.797Z</time>
      </trkpt>
      <trkpt lat="46.99638" lon="8.8673">
        <ele>1550</ele>
        <time>2021-08-04T07:20:26.797Z</time>
      </trkpt>
      <trkpt lat="46.99638" lon="8.86729">
        <ele>1550</ele>
        <time>2021-08-04T07:20:27.797Z</time>
      </trkpt>
      <trkpt lat="46.99637" lon="8.86726">
        <ele>1550</ele>
        <time>2021-08-04T07:20:28.796Z</time>
      </trkpt>
      <trkpt lat="46.99636" lon="8.86724">
        <ele>1550</ele>
        <time>2021-08-04T07:20:29.797Z</time>
      </trkpt>
      <trkpt lat="46.99635" lon="8.86723">
        <ele>1549</ele>
        <time>2021-08-04T07:20:30.797Z</time>
      </trkpt>
      <trkpt lat="46.99634" lon="8.86721">
        <ele>1549</ele>
        <time>2021-08-04T07:20:31.796Z</time>
      </trkpt>
      <trkpt lat="46.99633" lon="8.8672">
        <ele>1550</ele>
        <time>2021-08-04T07:20:32.797Z</time>
      </trkpt>
      <trkpt lat="46.99633" lon="8.86718">
        <ele>1550</ele>
        <time>2021-08-04T07:20:33.796Z</time>
      </trkpt>
      <trkpt lat="46.99632" lon="8.86717">
        <ele>1550</ele>
        <time>2021-08-04T07:20:34.797Z</time>
      </trkpt>
      <trkpt lat="46.99631" lon="8.86717">
        <ele>1550</ele>
        <time>2021-08-04T07:20:35.796Z</time>
      </trkpt>
      <trkpt lat="46.99631" lon="8.86716">
        <ele>1550</ele>
        <time>2021-08-04T07:20:36.797Z</time>
      </trkpt>
      <trkpt lat="46.99631" lon="8.86715">
        <ele>1550</ele>
        <time>2021-08-04T07:20:37.796Z</time>
      </trkpt>
      <trkpt lat="46.9963" lon="8.86714">
        <ele>1550</ele>
        <time>2021-08-04T07:20:38.797Z</time>
      </trkpt>
      <trkpt lat="46.99629" lon="8.86713">
        <ele>1549</ele>
        <time>2021-08-04T07:20:39.797Z</time>
      </trkpt>
      <trkpt lat="46.99627" lon="8.86712">
        <ele>1549</ele>
        <time>2021-08-04T07:20:40.797Z</time>
      </trkpt>
      <trkpt lat="46.99626" lon="8.86711">
        <ele>1549</ele>
        <time>2021-08-04T07:20:41.797Z</time>
      </trkpt>
      <trkpt lat="46.99626" lon="8.8671">
        <ele>1549</ele>
        <time>2021-08-04T07:20:42.797Z</time>
      </trkpt>
      <trkpt lat="46.99625" lon="8.86709">
        <ele>1549</ele>
        <time>2021-08-04T07:20:43.796Z</time>
      </trkpt>
      <trkpt lat="46.99624" lon="8.86708">
        <ele>1549</ele>
        <time>2021-08-04T07:20:44.797Z</time>
      </trkpt>
      <trkpt lat="46.99622" lon="8.86707">
        <ele>1549</ele>
        <time>2021-08-04T07:20:45.797Z</time>
      </trkpt>
      <trkpt lat="46.99622" lon="8.86706">
        <ele>1549</ele>
        <time>2021-08-04T07:20:46.797Z</time>
      </trkpt>
      <trkpt lat="46.99621" lon="8.86704">
        <ele>1548</ele>
        <time>2021-08-04T07:20:47.796Z</time>
      </trkpt>
      <trkpt lat="46.9962" lon="8.86703">
        <ele>1548</ele>
        <time>2021-08-04T07:20:48.797Z</time>
      </trkpt>
      <trkpt lat="46.99619" lon="8.86702">
        <ele>1548</ele>
        <time>2021-08-04T07:20:49.797Z</time>
      </trkpt>
      <trkpt lat="46.99617" lon="8.86702">
        <ele>1547</ele>
        <time>2021-08-04T07:20:50.796Z</time>
      </trkpt>
      <trkpt lat="46.99616" lon="8.86701">
        <ele>1547</ele>
        <time>2021-08-04T07:20:51.796Z</time>
      </trkpt>
      <trkpt lat="46.99616" lon="8.867">
        <ele>1547</ele>
        <time>2021-08-04T07:20:52.797Z</time>
      </trkpt>
      <trkpt lat="46.99615" lon="8.86699">
        <ele>1547</ele>
        <time>2021-08-04T07:20:53.797Z</time>
      </trkpt>
      <trkpt lat="46.99613" lon="8.86698">
        <ele>1547</ele>
        <time>2021-08-04T07:20:54.796Z</time>
      </trkpt>
      <trkpt lat="46.99613" lon="8.86697">
        <ele>1547</ele>
        <time>2021-08-04T07:20:55.796Z</time>
      </trkpt>
      <trkpt lat="46.99613" lon="8.86697">
        <ele>1546</ele>
        <time>2021-08-04T07:20:56.797Z</time>
      </trkpt>
      <trkpt lat="46.99612" lon="8.86697">
        <ele>1546</ele>
        <time>2021-08-04T07:20:57.797Z</time>
      </trkpt>
      <trkpt lat="46.99612" lon="8.86697">
        <ele>1546</ele>
        <time>2021-08-04T07:20:58.797Z</time>
      </trkpt>
      <trkpt lat="46.99612" lon="8.86696">
        <ele>1545</ele>
        <time>2021-08-04T07:20:59.797Z</time>
      </trkpt>
      <trkpt lat="46.99611" lon="8.86696">
        <ele>1545</ele>
        <time>2021-08-04T07:21:00.797Z</time>
      </trkpt>
      <trkpt lat="46.9961" lon="8.86695">
        <ele>1544</ele>
        <time>2021-08-04T07:21:01.797Z</time>
      </trkpt>
      <trkpt lat="46.9961" lon="8.86694">
        <ele>1544</ele>
        <time>2021-08-04T07:21:02.797Z</time>
      </trkpt>
      <trkpt lat="46.9961" lon="8.86694">
        <ele>1544</ele>
        <time>2021-08-04T07:21:03.796Z</time>
      </trkpt>
      <trkpt lat="46.9961" lon="8.86694">
        <ele>1543</ele>
        <time>2021-08-04T07:21:04.797Z</time>
      </trkpt>
      <trkpt lat="46.9961" lon="8.86694">
        <ele>1543</ele>
        <time>2021-08-04T07:21:05.796Z</time>
      </trkpt>
      <trkpt lat="46.99612" lon="8.86693">
        <ele>1542</ele>
        <time>2021-08-04T07:21:06.798Z</time>
      </trkpt>
      <trkpt lat="46.99612" lon="8.86692">
        <ele>1542</ele>
        <time>2021-08-04T07:21:07.798Z</time>
      </trkpt>
      <trkpt lat="46.99613" lon="8.86691">
        <ele>1542</ele>
        <time>2021-08-04T07:21:08.797Z</time>
      </trkpt>
      <trkpt lat="46.99614" lon="8.86691">
        <ele>1542</ele>
        <time>2021-08-04T07:21:09.797Z</time>
      </trkpt>
      <trkpt lat="46.99615" lon="8.8669">
        <ele>1542</ele>
        <time>2021-08-04T07:21:10.798Z</time>
      </trkpt>
      <trkpt lat="46.99616" lon="8.86688">
        <ele>1542</ele>
        <time>2021-08-04T07:21:11.797Z</time>
      </trkpt>
      <trkpt lat="46.99617" lon="8.86687">
        <ele>1541</ele>
        <time>2021-08-04T07:21:12.798Z</time>
      </trkpt>
      <trkpt lat="46.99618" lon="8.86686">
        <ele>1541</ele>
        <time>2021-08-04T07:21:13.798Z</time>
      </trkpt>
      <trkpt lat="46.99618" lon="8.86685">
        <ele>1542</ele>
        <time>2021-08-04T07:21:14.798Z</time>
      </trkpt>
      <trkpt lat="46.99618" lon="8.86684">
        <ele>1542</ele>
        <time>2021-08-04T07:21:15.798Z</time>
      </trkpt>
      <trkpt lat="46.99618" lon="8.86684">
        <ele>1542</ele>
        <time>2021-08-04T07:21:16.797Z</time>
      </trkpt>
      <trkpt lat="46.99618" lon="8.86683">
        <ele>1542</ele>
        <time>2021-08-04T07:21:17.798Z</time>
      </trkpt>
      <trkpt lat="46.99618" lon="8.86681">
        <ele>1542</ele>
        <time>2021-08-04T07:21:18.799Z</time>
      </trkpt>
      <trkpt lat="46.99618" lon="8.8668">
        <ele>1543</ele>
        <time>2021-08-04T07:21:19.798Z</time>
      </trkpt>
      <trkpt lat="46.99618" lon="8.86679">
        <ele>1543</ele>
        <time>2021-08-04T07:21:20.798Z</time>
      </trkpt>
      <trkpt lat="46.99617" lon="8.86677">
        <ele>1542</ele>
        <time>2021-08-04T07:21:21.799Z</time>
      </trkpt>
      <trkpt lat="46.99616" lon="8.86675">
        <ele>1542</ele>
        <time>2021-08-04T07:21:22.799Z</time>
      </trkpt>
      <trkpt lat="46.99616" lon="8.86673">
        <ele>1542</ele>
        <time>2021-08-04T07:21:23.799Z</time>
      </trkpt>
      <trkpt lat="46.99616" lon="8.86673">
        <ele>1542</ele>
        <time>2021-08-04T07:21:24.798Z</time>
      </trkpt>
      <trkpt lat="46.99616" lon="8.86671">
        <ele>1542</ele>
        <time>2021-08-04T07:21:25.799Z</time>
      </trkpt>
      <trkpt lat="46.99616" lon="8.8667">
        <ele>1543</ele>
        <time>2021-08-04T07:21:26.799Z</time>
      </trkpt>
      <trkpt lat="46.99616" lon="8.86668">
        <ele>1543</ele>
        <time>2021-08-04T07:21:27.798Z</time>
      </trkpt>
      <trkpt lat="46.99616" lon="8.86666">
        <ele>1543</ele>
        <time>2021-08-04T07:21:28.799Z</time>
      </trkpt>
      <trkpt lat="46.99616" lon="8.86664">
        <ele>1543</ele>
        <time>2021-08-04T07:21:29.798Z</time>
      </trkpt>
      <trkpt lat="46.99616" lon="8.86663">
        <ele>1543</ele>
        <time>2021-08-04T07:21:30.799Z</time>
      </trkpt>
      <trkpt lat="46.99617" lon="8.86661">
        <ele>1544</ele>
        <time>2021-08-04T07:21:31.799Z</time>
      </trkpt>
      <trkpt lat="46.99617" lon="8.86658">
        <ele>1544</ele>
        <time>2021-08-04T07:21:32.799Z</time>
      </trkpt>
      <trkpt lat="46.99617" lon="8.86657">
        <ele>1544</ele>
        <time>2021-08-04T07:21:33.799Z</time>
      </trkpt>
      <trkpt lat="46.99617" lon="8.86655">
        <ele>1544</ele>
        <time>2021-08-04T07:21:34.799Z</time>
      </trkpt>
      <trkpt lat="46.99617" lon="8.86653">
        <ele>1545</ele>
        <time>2021-08-04T07:21:35.799Z</time>
      </trkpt>
      <trkpt lat="46.99617" lon="8.86652">
        <ele>1545</ele>
        <time>2021-08-04T07:21:36.799Z</time>
      </trkpt>
      <trkpt lat="46.99617" lon="8.86651">
        <ele>1545</ele>
        <time>2021-08-04T07:21:37.799Z</time>
      </trkpt>
      <trkpt lat="46.99617" lon="8.86649">
        <ele>1545</ele>
        <time>2021-08-04T07:21:38.799Z</time>
      </trkpt>
      <trkpt lat="46.99617" lon="8.86648">
        <ele>1545</ele>
        <time>2021-08-04T07:21:39.798Z</time>
      </trkpt>
      <trkpt lat="46.99617" lon="8.86646">
        <ele>1545</ele>
        <time>2021-08-04T07:21:40.799Z</time>
      </trkpt>
      <trkpt lat="46.99617" lon="8.86645">
        <ele>1546</ele>
        <time>2021-08-04T07:21:41.798Z</time>
      </trkpt>
      <trkpt lat="46.99617" lon="8.86643">
        <ele>1546</ele>
        <time>2021-08-04T07:21:42.799Z</time>
      </trkpt>
      <trkpt lat="46.99617" lon="8.86642">
        <ele>1546</ele>
        <time>2021-08-04T07:21:43.799Z</time>
      </trkpt>
      <trkpt lat="46.99617" lon="8.86641">
        <ele>1546</ele>
        <time>2021-08-04T07:21:44.799Z</time>
      </trkpt>
      <trkpt lat="46.99617" lon="8.86639">
        <ele>1546</ele>
        <time>2021-08-04T07:21:45.798Z</time>
      </trkpt>
      <trkpt lat="46.99617" lon="8.86638">
        <ele>1545</ele>
        <time>2021-08-04T07:21:46.799Z</time>
      </trkpt>
      <trkpt lat="46.99617" lon="8.86636">
        <ele>1545</ele>
        <time>2021-08-04T07:21:47.799Z</time>
      </trkpt>
      <trkpt lat="46.99616" lon="8.86635">
        <ele>1545</ele>
        <time>2021-08-04T07:21:48.799Z</time>
      </trkpt>
      <trkpt lat="46.99616" lon="8.86633">
        <ele>1545</ele>
        <time>2021-08-04T07:21:49.799Z</time>
      </trkpt>
      <trkpt lat="46.99616" lon="8.86632">
        <ele>1545</ele>
        <time>2021-08-04T07:21:50.798Z</time>
      </trkpt>
      <trkpt lat="46.99616" lon="8.8663">
        <ele>1545</ele>
        <time>2021-08-04T07:21:51.799Z</time>
      </trkpt>
      <trkpt lat="46.99616" lon="8.86628">
        <ele>1545</ele>
        <time>2021-08-04T07:21:52.799Z</time>
      </trkpt>
      <trkpt lat="46.99616" lon="8.86627">
        <ele>1545</ele>
        <time>2021-08-04T07:21:53.798Z</time>
      </trkpt>
      <trkpt lat="46.99616" lon="8.86625">
        <ele>1544</ele>
        <time>2021-08-04T07:21:54.799Z</time>
      </trkpt>
      <trkpt lat="46.99617" lon="8.86624">
        <ele>1544</ele>
        <time>2021-08-04T07:21:55.799Z</time>
      </trkpt>
      <trkpt lat="46.99617" lon="8.86622">
        <ele>1544</ele>
        <time>2021-08-04T07:21:56.798Z</time>
      </trkpt>
      <trkpt lat="46.99618" lon="8.86621">
        <ele>1544</ele>
        <time>2021-08-04T07:21:57.798Z</time>
      </trkpt>
      <trkpt lat="46.99618" lon="8.86619">
        <ele>1544</ele>
        <time>2021-08-04T07:21:58.799Z</time>
      </trkpt>
      <trkpt lat="46.99618" lon="8.86617">
        <ele>1544</ele>
        <time>2021-08-04T07:21:59.798Z</time>
      </trkpt>
      <trkpt lat="46.99618" lon="8.86615">
        <ele>1543</ele>
        <time>2021-08-04T07:22:00.798Z</time>
      </trkpt>
      <trkpt lat="46.99617" lon="8.86613">
        <ele>1544</ele>
        <time>2021-08-04T07:22:01.799Z</time>
      </trkpt>
      <trkpt lat="46.99616" lon="8.86612">
        <ele>1544</ele>
        <time>2021-08-04T07:22:02.798Z</time>
      </trkpt>
      <trkpt lat="46.99616" lon="8.8661">
        <ele>1545</ele>
        <time>2021-08-04T07:22:03.799Z</time>
      </trkpt>
      <trkpt lat="46.99616" lon="8.86608">
        <ele>1545</ele>
        <time>2021-08-04T07:22:04.799Z</time>
      </trkpt>
      <trkpt lat="46.99615" lon="8.86606">
        <ele>1545</ele>
        <time>2021-08-04T07:22:05.799Z</time>
      </trkpt>
      <trkpt lat="46.99615" lon="8.86605">
        <ele>1546</ele>
        <time>2021-08-04T07:22:06.799Z</time>
      </trkpt>
      <trkpt lat="46.99615" lon="8.86604">
        <ele>1546</ele>
        <time>2021-08-04T07:22:07.798Z</time>
      </trkpt>
      <trkpt lat="46.99615" lon="8.86602">
        <ele>1546</ele>
        <time>2021-08-04T07:22:08.799Z</time>
      </trkpt>
      <trkpt lat="46.99615" lon="8.866">
        <ele>1546</ele>
        <time>2021-08-04T07:22:09.798Z</time>
      </trkpt>
      <trkpt lat="46.99615" lon="8.86599">
        <ele>1546</ele>
        <time>2021-08-04T07:22:10.798Z</time>
      </trkpt>
      <trkpt lat="46.99615" lon="8.86597">
        <ele>1546</ele>
        <time>2021-08-04T07:22:11.798Z</time>
      </trkpt>
      <trkpt lat="46.99615" lon="8.86595">
        <ele>1546</ele>
        <time>2021-08-04T07:22:12.798Z</time>
      </trkpt>
      <trkpt lat="46.99615" lon="8.86594">
        <ele>1547</ele>
        <time>2021-08-04T07:22:13.799Z</time>
      </trkpt>
      <trkpt lat="46.99615" lon="8.86593">
        <ele>1547</ele>
        <time>2021-08-04T07:22:14.798Z</time>
      </trkpt>
      <trkpt lat="46.99615" lon="8.86591">
        <ele>1547</ele>
        <time>2021-08-04T07:22:15.798Z</time>
      </trkpt>
      <trkpt lat="46.99614" lon="8.8659">
        <ele>1547</ele>
        <time>2021-08-04T07:22:16.799Z</time>
      </trkpt>
      <trkpt lat="46.99612" lon="8.86588">
        <ele>1547</ele>
        <time>2021-08-04T07:22:17.799Z</time>
      </trkpt>
      <trkpt lat="46.99611" lon="8.86586">
        <ele>1547</ele>
        <time>2021-08-04T07:22:18.798Z</time>
      </trkpt>
      <trkpt lat="46.99612" lon="8.86584">
        <ele>1547</ele>
        <time>2021-08-04T07:22:19.798Z</time>
      </trkpt>
      <trkpt lat="46.9961" lon="8.86582">
        <ele>1548</ele>
        <time>2021-08-04T07:22:20.799Z</time>
      </trkpt>
      <trkpt lat="46.99609" lon="8.86581">
        <ele>1548</ele>
        <time>2021-08-04T07:22:21.798Z</time>
      </trkpt>
      <trkpt lat="46.99608" lon="8.8658">
        <ele>1548</ele>
        <time>2021-08-04T07:22:22.798Z</time>
      </trkpt>
      <trkpt lat="46.99607" lon="8.86578">
        <ele>1548</ele>
        <time>2021-08-04T07:22:23.799Z</time>
      </trkpt>
      <trkpt lat="46.99606" lon="8.86577">
        <ele>1548</ele>
        <time>2021-08-04T07:22:24.799Z</time>
      </trkpt>
      <trkpt lat="46.99605" lon="8.86576">
        <ele>1548</ele>
        <time>2021-08-04T07:22:25.798Z</time>
      </trkpt>
      <trkpt lat="46.99603" lon="8.86574">
        <ele>1548</ele>
        <time>2021-08-04T07:22:26.798Z</time>
      </trkpt>
      <trkpt lat="46.99602" lon="8.86573">
        <ele>1548</ele>
        <time>2021-08-04T07:22:27.799Z</time>
      </trkpt>
      <trkpt lat="46.99602" lon="8.86572">
        <ele>1548</ele>
        <time>2021-08-04T07:22:28.798Z</time>
      </trkpt>
      <trkpt lat="46.99601" lon="8.86571">
        <ele>1548</ele>
        <time>2021-08-04T07:22:29.798Z</time>
      </trkpt>
      <trkpt lat="46.996" lon="8.8657">
        <ele>1547</ele>
        <time>2021-08-04T07:22:30.798Z</time>
      </trkpt>
      <trkpt lat="46.996" lon="8.86569">
        <ele>1547</ele>
        <time>2021-08-04T07:22:31.798Z</time>
      </trkpt>
      <trkpt lat="46.99599" lon="8.86568">
        <ele>1547</ele>
        <time>2021-08-04T07:22:32.798Z</time>
      </trkpt>
      <trkpt lat="46.99598" lon="8.86566">
        <ele>1546</ele>
        <time>2021-08-04T07:22:33.799Z</time>
      </trkpt>
      <trkpt lat="46.99598" lon="8.86565">
        <ele>1546</ele>
        <time>2021-08-04T07:22:34.798Z</time>
      </trkpt>
      <trkpt lat="46.99597" lon="8.86565">
        <ele>1546</ele>
        <time>2021-08-04T07:22:35.799Z</time>
      </trkpt>
      <trkpt lat="46.99597" lon="8.86565">
        <ele>1545</ele>
        <time>2021-08-04T07:22:36.798Z</time>
      </trkpt>
      <trkpt lat="46.99597" lon="8.86565">
        <ele>1545</ele>
        <time>2021-08-04T07:22:37.799Z</time>
      </trkpt>
      <trkpt lat="46.99596" lon="8.86565">
        <ele>1544</ele>
        <time>2021-08-04T07:22:38.799Z</time>
      </trkpt>
      <trkpt lat="46.99596" lon="8.86564">
        <ele>1544</ele>
        <time>2021-08-04T07:22:39.798Z</time>
      </trkpt>
      <trkpt lat="46.99596" lon="8.86563">
        <ele>1543</ele>
        <time>2021-08-04T07:22:40.798Z</time>
      </trkpt>
      <trkpt lat="46.99596" lon="8.86562">
        <ele>1542</ele>
        <time>2021-08-04T07:22:41.798Z</time>
      </trkpt>
      <trkpt lat="46.99596" lon="8.8656">
        <ele>1542</ele>
        <time>2021-08-04T07:22:42.798Z</time>
      </trkpt>
      <trkpt lat="46.99595" lon="8.86559">
        <ele>1541</ele>
        <time>2021-08-04T07:22:43.798Z</time>
      </trkpt>
      <trkpt lat="46.99595" lon="8.86558">
        <ele>1541</ele>
        <time>2021-08-04T07:22:44.798Z</time>
      </trkpt>
      <trkpt lat="46.99594" lon="8.86556">
        <ele>1541</ele>
        <time>2021-08-04T07:22:45.798Z</time>
      </trkpt>
      <trkpt lat="46.99593" lon="8.86555">
        <ele>1541</ele>
        <time>2021-08-04T07:22:46.798Z</time>
      </trkpt>
      <trkpt lat="46.99593" lon="8.86554">
        <ele>1540</ele>
        <time>2021-08-04T07:22:47.799Z</time>
      </trkpt>
      <trkpt lat="46.99592" lon="8.86553">
        <ele>1540</ele>
        <time>2021-08-04T07:22:48.799Z</time>
      </trkpt>
      <trkpt lat="46.99591" lon="8.86552">
        <ele>1540</ele>
        <time>2021-08-04T07:22:49.798Z</time>
      </trkpt>
      <trkpt lat="46.99591" lon="8.86552">
        <ele>1539</ele>
        <time>2021-08-04T07:22:50.798Z</time>
      </trkpt>
      <trkpt lat="46.99591" lon="8.86551">
        <ele>1539</ele>
        <time>2021-08-04T07:22:51.798Z</time>
      </trkpt>
      <trkpt lat="46.9959" lon="8.86551">
        <ele>1539</ele>
        <time>2021-08-04T07:22:52.798Z</time>
      </trkpt>
      <trkpt lat="46.9959" lon="8.86551">
        <ele>1539</ele>
        <time>2021-08-04T07:22:53.798Z</time>
      </trkpt>
      <trkpt lat="46.99589" lon="8.86551">
        <ele>1539</ele>
        <time>2021-08-04T07:22:54.798Z</time>
      </trkpt>
      <trkpt lat="46.99589" lon="8.8655">
        <ele>1540</ele>
        <time>2021-08-04T07:22:55.799Z</time>
      </trkpt>
      <trkpt lat="46.99589" lon="8.8655">
        <ele>1540</ele>
        <time>2021-08-04T07:22:56.799Z</time>
      </trkpt>
      <trkpt lat="46.99589" lon="8.8655">
        <ele>1541</ele>
        <time>2021-08-04T07:22:57.799Z</time>
      </trkpt>
      <trkpt lat="46.99589" lon="8.8655">
        <ele>1541</ele>
        <time>2021-08-04T07:22:58.799Z</time>
      </trkpt>
      <trkpt lat="46.99589" lon="8.86549">
        <ele>1541</ele>
        <time>2021-08-04T07:22:59.798Z</time>
      </trkpt>
      <trkpt lat="46.99589" lon="8.8655">
        <ele>1542</ele>
        <time>2021-08-04T07:23:00.798Z</time>
      </trkpt>
      <trkpt lat="46.99589" lon="8.86551">
        <ele>1543</ele>
        <time>2021-08-04T07:23:01.799Z</time>
      </trkpt>
      <trkpt lat="46.9959" lon="8.86551">
        <ele>1544</ele>
        <time>2021-08-04T07:23:02.799Z</time>
      </trkpt>
      <trkpt lat="46.99593" lon="8.86549">
        <ele>1544</ele>
        <time>2021-08-04T07:23:03.800Z</time>
      </trkpt>
      <trkpt lat="46.99593" lon="8.86549">
        <ele>1543</ele>
        <time>2021-08-04T07:23:04.800Z</time>
      </trkpt>
      <trkpt lat="46.99592" lon="8.86549">
        <ele>1542</ele>
        <time>2021-08-04T07:23:05.800Z</time>
      </trkpt>
      <trkpt lat="46.99591" lon="8.8655">
        <ele>1542</ele>
        <time>2021-08-04T07:23:06.800Z</time>
      </trkpt>
      <trkpt lat="46.99591" lon="8.8655">
        <ele>1541</ele>
        <time>2021-08-04T07:23:07.800Z</time>
      </trkpt>
      <trkpt lat="46.99591" lon="8.8655">
        <ele>1541</ele>
        <time>2021-08-04T07:23:08.800Z</time>
      </trkpt>
      <trkpt lat="46.9959" lon="8.8655">
        <ele>1540</ele>
        <time>2021-08-04T07:23:09.800Z</time>
      </trkpt>
      <trkpt lat="46.99589" lon="8.86548">
        <ele>1540</ele>
        <time>2021-08-04T07:23:10.800Z</time>
      </trkpt>
      <trkpt lat="46.99589" lon="8.86547">
        <ele>1540</ele>
        <time>2021-08-04T07:23:11.800Z</time>
      </trkpt>
      <trkpt lat="46.99588" lon="8.86546">
        <ele>1540</ele>
        <time>2021-08-04T07:23:12.800Z</time>
      </trkpt>
      <trkpt lat="46.99587" lon="8.86545">
        <ele>1540</ele>
        <time>2021-08-04T07:23:13.801Z</time>
      </trkpt>
      <trkpt lat="46.99586" lon="8.86544">
        <ele>1540</ele>
        <time>2021-08-04T07:23:14.801Z</time>
      </trkpt>
      <trkpt lat="46.99585" lon="8.86543">
        <ele>1539</ele>
        <time>2021-08-04T07:23:15.801Z</time>
      </trkpt>
      <trkpt lat="46.99585" lon="8.86542">
        <ele>1539</ele>
        <time>2021-08-04T07:23:16.800Z</time>
      </trkpt>
      <trkpt lat="46.99584" lon="8.86541">
        <ele>1539</ele>
        <time>2021-08-04T07:23:17.801Z</time>
      </trkpt>
      <trkpt lat="46.99583" lon="8.8654">
        <ele>1539</ele>
        <time>2021-08-04T07:23:18.801Z</time>
      </trkpt>
      <trkpt lat="46.99582" lon="8.86539">
        <ele>1539</ele>
        <time>2021-08-04T07:23:19.800Z</time>
      </trkpt>
      <trkpt lat="46.99582" lon="8.86537">
        <ele>1539</ele>
        <time>2021-08-04T07:23:20.801Z</time>
      </trkpt>
      <trkpt lat="46.99581" lon="8.86536">
        <ele>1539</ele>
        <time>2021-08-04T07:23:21.801Z</time>
      </trkpt>
      <trkpt lat="46.9958" lon="8.86535">
        <ele>1539</ele>
        <time>2021-08-04T07:23:22.801Z</time>
      </trkpt>
      <trkpt lat="46.99579" lon="8.86533">
        <ele>1539</ele>
        <time>2021-08-04T07:23:23.801Z</time>
      </trkpt>
      <trkpt lat="46.99578" lon="8.86533">
        <ele>1539</ele>
        <time>2021-08-04T07:23:24.801Z</time>
      </trkpt>
      <trkpt lat="46.99578" lon="8.86532">
        <ele>1539</ele>
        <time>2021-08-04T07:23:25.800Z</time>
      </trkpt>
      <trkpt lat="46.99577" lon="8.8653">
        <ele>1539</ele>
        <time>2021-08-04T07:23:26.800Z</time>
      </trkpt>
      <trkpt lat="46.99576" lon="8.86529">
        <ele>1539</ele>
        <time>2021-08-04T07:23:27.801Z</time>
      </trkpt>
      <trkpt lat="46.99575" lon="8.86527">
        <ele>1539</ele>
        <time>2021-08-04T07:23:28.801Z</time>
      </trkpt>
      <trkpt lat="46.99575" lon="8.86526">
        <ele>1539</ele>
        <time>2021-08-04T07:23:29.801Z</time>
      </trkpt>
      <trkpt lat="46.99574" lon="8.86524">
        <ele>1539</ele>
        <time>2021-08-04T07:23:30.801Z</time>
      </trkpt>
      <trkpt lat="46.99573" lon="8.86523">
        <ele>1539</ele>
        <time>2021-08-04T07:23:31.800Z</time>
      </trkpt>
      <trkpt lat="46.99572" lon="8.86521">
        <ele>1539</ele>
        <time>2021-08-04T07:23:32.801Z</time>
      </trkpt>
      <trkpt lat="46.99571" lon="8.86519">
        <ele>1539</ele>
        <time>2021-08-04T07:23:33.801Z</time>
      </trkpt>
      <trkpt lat="46.99571" lon="8.86518">
        <ele>1539</ele>
        <time>2021-08-04T07:23:34.800Z</time>
      </trkpt>
      <trkpt lat="46.9957" lon="8.86516">
        <ele>1539</ele>
        <time>2021-08-04T07:23:35.801Z</time>
      </trkpt>
      <trkpt lat="46.99569" lon="8.86514">
        <ele>1539</ele>
        <time>2021-08-04T07:23:36.801Z</time>
      </trkpt>
      <trkpt lat="46.99569" lon="8.86513">
        <ele>1539</ele>
        <time>2021-08-04T07:23:37.801Z</time>
      </trkpt>
      <trkpt lat="46.99569" lon="8.86511">
        <ele>1539</ele>
        <time>2021-08-04T07:23:38.801Z</time>
      </trkpt>
      <trkpt lat="46.99568" lon="8.8651">
        <ele>1538</ele>
        <time>2021-08-04T07:23:39.801Z</time>
      </trkpt>
      <trkpt lat="46.99567" lon="8.86509">
        <ele>1538</ele>
        <time>2021-08-04T07:23:40.800Z</time>
      </trkpt>
      <trkpt lat="46.99566" lon="8.86508">
        <ele>1538</ele>
        <time>2021-08-04T07:23:41.801Z</time>
      </trkpt>
      <trkpt lat="46.99565" lon="8.86507">
        <ele>1538</ele>
        <time>2021-08-04T07:23:42.801Z</time>
      </trkpt>
      <trkpt lat="46.99564" lon="8.86506">
        <ele>1538</ele>
        <time>2021-08-04T07:23:43.801Z</time>
      </trkpt>
      <trkpt lat="46.99563" lon="8.86504">
        <ele>1538</ele>
        <time>2021-08-04T07:23:44.800Z</time>
      </trkpt>
      <trkpt lat="46.99563" lon="8.86503">
        <ele>1537</ele>
        <time>2021-08-04T07:23:45.800Z</time>
      </trkpt>
      <trkpt lat="46.99562" lon="8.86501">
        <ele>1537</ele>
        <time>2021-08-04T07:23:46.800Z</time>
      </trkpt>
      <trkpt lat="46.99562" lon="8.86499">
        <ele>1537</ele>
        <time>2021-08-04T07:23:47.801Z</time>
      </trkpt>
      <trkpt lat="46.99561" lon="8.86497">
        <ele>1536</ele>
        <time>2021-08-04T07:23:48.801Z</time>
      </trkpt>
      <trkpt lat="46.9956" lon="8.86496">
        <ele>1536</ele>
        <time>2021-08-04T07:23:49.801Z</time>
      </trkpt>
      <trkpt lat="46.99559" lon="8.86495">
        <ele>1536</ele>
        <time>2021-08-04T07:23:50.801Z</time>
      </trkpt>
      <trkpt lat="46.99558" lon="8.86494">
        <ele>1536</ele>
        <time>2021-08-04T07:23:51.800Z</time>
      </trkpt>
      <trkpt lat="46.99558" lon="8.86493">
        <ele>1535</ele>
        <time>2021-08-04T07:23:52.800Z</time>
      </trkpt>
      <trkpt lat="46.99557" lon="8.86492">
        <ele>1535</ele>
        <time>2021-08-04T07:23:53.801Z</time>
      </trkpt>
      <trkpt lat="46.99557" lon="8.86491">
        <ele>1535</ele>
        <time>2021-08-04T07:23:54.801Z</time>
      </trkpt>
      <trkpt lat="46.99556" lon="8.86489">
        <ele>1534</ele>
        <time>2021-08-04T07:23:55.800Z</time>
      </trkpt>
      <trkpt lat="46.99555" lon="8.86488">
        <ele>1534</ele>
        <time>2021-08-04T07:23:56.801Z</time>
      </trkpt>
      <trkpt lat="46.99555" lon="8.86486">
        <ele>1534</ele>
        <time>2021-08-04T07:23:57.801Z</time>
      </trkpt>
      <trkpt lat="46.99555" lon="8.86485">
        <ele>1534</ele>
        <time>2021-08-04T07:23:58.801Z</time>
      </trkpt>
      <trkpt lat="46.99554" lon="8.86483">
        <ele>1534</ele>
        <time>2021-08-04T07:23:59.800Z</time>
      </trkpt>
      <trkpt lat="46.99554" lon="8.86482">
        <ele>1535</ele>
        <time>2021-08-04T07:24:00.800Z</time>
      </trkpt>
      <trkpt lat="46.99554" lon="8.86481">
        <ele>1535</ele>
        <time>2021-08-04T07:24:01.801Z</time>
      </trkpt>
      <trkpt lat="46.99553" lon="8.8648">
        <ele>1536</ele>
        <time>2021-08-04T07:24:02.801Z</time>
      </trkpt>
      <trkpt lat="46.99553" lon="8.86478">
        <ele>1536</ele>
        <time>2021-08-04T07:24:03.801Z</time>
      </trkpt>
      <trkpt lat="46.99553" lon="8.86477">
        <ele>1536</ele>
        <time>2021-08-04T07:24:04.801Z</time>
      </trkpt>
      <trkpt lat="46.99552" lon="8.86475">
        <ele>1536</ele>
        <time>2021-08-04T07:24:05.800Z</time>
      </trkpt>
      <trkpt lat="46.99552" lon="8.86474">
        <ele>1536</ele>
        <time>2021-08-04T07:24:06.800Z</time>
      </trkpt>
      <trkpt lat="46.99551" lon="8.86473">
        <ele>1536</ele>
        <time>2021-08-04T07:24:07.801Z</time>
      </trkpt>
      <trkpt lat="46.99551" lon="8.86471">
        <ele>1536</ele>
        <time>2021-08-04T07:24:08.800Z</time>
      </trkpt>
      <trkpt lat="46.9955" lon="8.8647">
        <ele>1536</ele>
        <time>2021-08-04T07:24:09.801Z</time>
      </trkpt>
      <trkpt lat="46.9955" lon="8.86469">
        <ele>1536</ele>
        <time>2021-08-04T07:24:10.800Z</time>
      </trkpt>
      <trkpt lat="46.9955" lon="8.86467">
        <ele>1536</ele>
        <time>2021-08-04T07:24:11.801Z</time>
      </trkpt>
      <trkpt lat="46.99551" lon="8.86465">
        <ele>1537</ele>
        <time>2021-08-04T07:24:12.801Z</time>
      </trkpt>
      <trkpt lat="46.9955" lon="8.86464">
        <ele>1537</ele>
        <time>2021-08-04T07:24:13.801Z</time>
      </trkpt>
      <trkpt lat="46.99551" lon="8.86463">
        <ele>1537</ele>
        <time>2021-08-04T07:24:14.800Z</time>
      </trkpt>
      <trkpt lat="46.99551" lon="8.86461">
        <ele>1537</ele>
        <time>2021-08-04T07:24:15.800Z</time>
      </trkpt>
      <trkpt lat="46.99551" lon="8.86459">
        <ele>1538</ele>
        <time>2021-08-04T07:24:16.801Z</time>
      </trkpt>
      <trkpt lat="46.99551" lon="8.86458">
        <ele>1538</ele>
        <time>2021-08-04T07:24:17.801Z</time>
      </trkpt>
      <trkpt lat="46.99551" lon="8.86456">
        <ele>1538</ele>
        <time>2021-08-04T07:24:18.800Z</time>
      </trkpt>
      <trkpt lat="46.99551" lon="8.86455">
        <ele>1538</ele>
        <time>2021-08-04T07:24:19.800Z</time>
      </trkpt>
      <trkpt lat="46.99549" lon="8.86454">
        <ele>1538</ele>
        <time>2021-08-04T07:24:20.800Z</time>
      </trkpt>
      <trkpt lat="46.99548" lon="8.86452">
        <ele>1538</ele>
        <time>2021-08-04T07:24:21.801Z</time>
      </trkpt>
      <trkpt lat="46.99547" lon="8.86451">
        <ele>1538</ele>
        <time>2021-08-04T07:24:22.801Z</time>
      </trkpt>
      <trkpt lat="46.99547" lon="8.8645">
        <ele>1539</ele>
        <time>2021-08-04T07:24:23.801Z</time>
      </trkpt>
      <trkpt lat="46.99546" lon="8.86448">
        <ele>1539</ele>
        <time>2021-08-04T07:24:24.801Z</time>
      </trkpt>
      <trkpt lat="46.99545" lon="8.86446">
        <ele>1539</ele>
        <time>2021-08-04T07:24:25.800Z</time>
      </trkpt>
      <trkpt lat="46.99544" lon="8.86445">
        <ele>1538</ele>
        <time>2021-08-04T07:24:26.801Z</time>
      </trkpt>
      <trkpt lat="46.99543" lon="8.86443">
        <ele>1538</ele>
        <time>2021-08-04T07:24:27.801Z</time>
      </trkpt>
      <trkpt lat="46.99541" lon="8.86442">
        <ele>1538</ele>
        <time>2021-08-04T07:24:28.801Z</time>
      </trkpt>
      <trkpt lat="46.99541" lon="8.86441">
        <ele>1538</ele>
        <time>2021-08-04T07:24:29.801Z</time>
      </trkpt>
      <trkpt lat="46.9954" lon="8.86439">
        <ele>1537</ele>
        <time>2021-08-04T07:24:30.800Z</time>
      </trkpt>
      <trkpt lat="46.99538" lon="8.86438">
        <ele>1536</ele>
        <time>2021-08-04T07:24:31.800Z</time>
      </trkpt>
      <trkpt lat="46.99537" lon="8.86436">
        <ele>1536</ele>
        <time>2021-08-04T07:24:32.800Z</time>
      </trkpt>
      <trkpt lat="46.99537" lon="8.86435">
        <ele>1536</ele>
        <time>2021-08-04T07:24:33.801Z</time>
      </trkpt>
      <trkpt lat="46.99536" lon="8.86434">
        <ele>1536</ele>
        <time>2021-08-04T07:24:34.801Z</time>
      </trkpt>
      <trkpt lat="46.99536" lon="8.86433">
        <ele>1536</ele>
        <time>2021-08-04T07:24:35.801Z</time>
      </trkpt>
      <trkpt lat="46.99535" lon="8.86432">
        <ele>1536</ele>
        <time>2021-08-04T07:24:36.801Z</time>
      </trkpt>
      <trkpt lat="46.99534" lon="8.86431">
        <ele>1536</ele>
        <time>2021-08-04T07:24:37.800Z</time>
      </trkpt>
      <trkpt lat="46.99534" lon="8.86429">
        <ele>1536</ele>
        <time>2021-08-04T07:24:38.801Z</time>
      </trkpt>
      <trkpt lat="46.99533" lon="8.86428">
        <ele>1536</ele>
        <time>2021-08-04T07:24:39.801Z</time>
      </trkpt>
      <trkpt lat="46.99532" lon="8.86428">
        <ele>1536</ele>
        <time>2021-08-04T07:24:40.800Z</time>
      </trkpt>
      <trkpt lat="46.99531" lon="8.86427">
        <ele>1536</ele>
        <time>2021-08-04T07:24:41.801Z</time>
      </trkpt>
      <trkpt lat="46.9953" lon="8.86427">
        <ele>1536</ele>
        <time>2021-08-04T07:24:42.801Z</time>
      </trkpt>
      <trkpt lat="46.99529" lon="8.86427">
        <ele>1536</ele>
        <time>2021-08-04T07:24:43.801Z</time>
      </trkpt>
      <trkpt lat="46.99528" lon="8.86427">
        <ele>1536</ele>
        <time>2021-08-04T07:24:44.800Z</time>
      </trkpt>
      <trkpt lat="46.99527" lon="8.86428">
        <ele>1537</ele>
        <time>2021-08-04T07:24:45.801Z</time>
      </trkpt>
      <trkpt lat="46.99526" lon="8.86428">
        <ele>1537</ele>
        <time>2021-08-04T07:24:46.801Z</time>
      </trkpt>
      <trkpt lat="46.99527" lon="8.86428">
        <ele>1537</ele>
        <time>2021-08-04T07:24:47.801Z</time>
      </trkpt>
      <trkpt lat="46.99527" lon="8.86427">
        <ele>1539</ele>
        <time>2021-08-04T07:24:48.800Z</time>
      </trkpt>
      <trkpt lat="46.99527" lon="8.86427">
        <ele>1539</ele>
        <time>2021-08-04T07:24:49.800Z</time>
      </trkpt>
      <trkpt lat="46.99527" lon="8.86427">
        <ele>1539</ele>
        <time>2021-08-04T07:24:50.800Z</time>
      </trkpt>
      <trkpt lat="46.99525" lon="8.86425">
        <ele>1539</ele>
        <time>2021-08-04T07:24:51.801Z</time>
      </trkpt>
      <trkpt lat="46.99524" lon="8.86424">
        <ele>1539</ele>
        <time>2021-08-04T07:24:52.801Z</time>
      </trkpt>
      <trkpt lat="46.99523" lon="8.86423">
        <ele>1538</ele>
        <time>2021-08-04T07:24:53.800Z</time>
      </trkpt>
      <trkpt lat="46.99523" lon="8.86422">
        <ele>1538</ele>
        <time>2021-08-04T07:24:54.800Z</time>
      </trkpt>
      <trkpt lat="46.99522" lon="8.8642">
        <ele>1538</ele>
        <time>2021-08-04T07:24:55.801Z</time>
      </trkpt>
      <trkpt lat="46.99521" lon="8.86419">
        <ele>1537</ele>
        <time>2021-08-04T07:24:56.800Z</time>
      </trkpt>
      <trkpt lat="46.99521" lon="8.86418">
        <ele>1537</ele>
        <time>2021-08-04T07:24:57.801Z</time>
      </trkpt>
      <trkpt lat="46.99521" lon="8.86416">
        <ele>1537</ele>
        <time>2021-08-04T07:24:58.801Z</time>
      </trkpt>
      <trkpt lat="46.99521" lon="8.86415">
        <ele>1537</ele>
        <time>2021-08-04T07:24:59.801Z</time>
      </trkpt>
      <trkpt lat="46.99521" lon="8.86414">
        <ele>1536</ele>
        <time>2021-08-04T07:25:00.801Z</time>
      </trkpt>
      <trkpt lat="46.9952" lon="8.86412">
        <ele>1536</ele>
        <time>2021-08-04T07:25:01.801Z</time>
      </trkpt>
      <trkpt lat="46.9952" lon="8.86411">
        <ele>1536</ele>
        <time>2021-08-04T07:25:02.801Z</time>
      </trkpt>
      <trkpt lat="46.99519" lon="8.86409">
        <ele>1536</ele>
        <time>2021-08-04T07:25:03.800Z</time>
      </trkpt>
      <trkpt lat="46.99518" lon="8.86408">
        <ele>1535</ele>
        <time>2021-08-04T07:25:04.801Z</time>
      </trkpt>
      <trkpt lat="46.99518" lon="8.86406">
        <ele>1535</ele>
        <time>2021-08-04T07:25:05.801Z</time>
      </trkpt>
      <trkpt lat="46.99518" lon="8.86405">
        <ele>1535</ele>
        <time>2021-08-04T07:25:06.800Z</time>
      </trkpt>
      <trkpt lat="46.99517" lon="8.86404">
        <ele>1535</ele>
        <time>2021-08-04T07:25:07.801Z</time>
      </trkpt>
      <trkpt lat="46.99516" lon="8.86402">
        <ele>1535</ele>
        <time>2021-08-04T07:25:08.800Z</time>
      </trkpt>
      <trkpt lat="46.99516" lon="8.86401">
        <ele>1534</ele>
        <time>2021-08-04T07:25:09.801Z</time>
      </trkpt>
      <trkpt lat="46.99515" lon="8.86399">
        <ele>1534</ele>
        <time>2021-08-04T07:25:10.801Z</time>
      </trkpt>
      <trkpt lat="46.99515" lon="8.86398">
        <ele>1534</ele>
        <time>2021-08-04T07:25:11.800Z</time>
      </trkpt>
      <trkpt lat="46.99514" lon="8.86397">
        <ele>1533</ele>
        <time>2021-08-04T07:25:12.800Z</time>
      </trkpt>
      <trkpt lat="46.99514" lon="8.86396">
        <ele>1533</ele>
        <time>2021-08-04T07:25:13.800Z</time>
      </trkpt>
      <trkpt lat="46.99513" lon="8.86394">
        <ele>1533</ele>
        <time>2021-08-04T07:25:14.800Z</time>
      </trkpt>
      <trkpt lat="46.99512" lon="8.86393">
        <ele>1532</ele>
        <time>2021-08-04T07:25:15.800Z</time>
      </trkpt>
      <trkpt lat="46.99511" lon="8.86392">
        <ele>1532</ele>
        <time>2021-08-04T07:25:16.800Z</time>
      </trkpt>
      <trkpt lat="46.99511" lon="8.86391">
        <ele>1532</ele>
        <time>2021-08-04T07:25:17.801Z</time>
      </trkpt>
      <trkpt lat="46.9951" lon="8.86389">
        <ele>1532</ele>
        <time>2021-08-04T07:25:18.801Z</time>
      </trkpt>
      <trkpt lat="46.9951" lon="8.86388">
        <ele>1532</ele>
        <time>2021-08-04T07:25:19.800Z</time>
      </trkpt>
      <trkpt lat="46.99509" lon="8.86386">
        <ele>1532</ele>
        <time>2021-08-04T07:25:20.800Z</time>
      </trkpt>
      <trkpt lat="46.99509" lon="8.86384">
        <ele>1531</ele>
        <time>2021-08-04T07:25:21.801Z</time>
      </trkpt>
      <trkpt lat="46.99508" lon="8.86383">
        <ele>1531</ele>
        <time>2021-08-04T07:25:22.801Z</time>
      </trkpt>
      <trkpt lat="46.99508" lon="8.86381">
        <ele>1531</ele>
        <time>2021-08-04T07:25:23.800Z</time>
      </trkpt>
      <trkpt lat="46.99507" lon="8.86379">
        <ele>1531</ele>
        <time>2021-08-04T07:25:24.801Z</time>
      </trkpt>
      <trkpt lat="46.99507" lon="8.86377">
        <ele>1531</ele>
        <time>2021-08-04T07:25:25.801Z</time>
      </trkpt>
      <trkpt lat="46.99506" lon="8.86376">
        <ele>1531</ele>
        <time>2021-08-04T07:25:26.800Z</time>
      </trkpt>
      <trkpt lat="46.99506" lon="8.86375">
        <ele>1531</ele>
        <time>2021-08-04T07:25:27.801Z</time>
      </trkpt>
      <trkpt lat="46.99506" lon="8.86373">
        <ele>1531</ele>
        <time>2021-08-04T07:25:28.801Z</time>
      </trkpt>
      <trkpt lat="46.99506" lon="8.86372">
        <ele>1530</ele>
        <time>2021-08-04T07:25:29.801Z</time>
      </trkpt>
      <trkpt lat="46.99506" lon="8.8637">
        <ele>1530</ele>
        <time>2021-08-04T07:25:30.800Z</time>
      </trkpt>
      <trkpt lat="46.99506" lon="8.86369">
        <ele>1530</ele>
        <time>2021-08-04T07:25:31.801Z</time>
      </trkpt>
      <trkpt lat="46.99505" lon="8.86368">
        <ele>1530</ele>
        <time>2021-08-04T07:25:32.801Z</time>
      </trkpt>
      <trkpt lat="46.99505" lon="8.86366">
        <ele>1530</ele>
        <time>2021-08-04T07:25:33.800Z</time>
      </trkpt>
      <trkpt lat="46.99505" lon="8.86365">
        <ele>1530</ele>
        <time>2021-08-04T07:25:34.801Z</time>
      </trkpt>
      <trkpt lat="46.99504" lon="8.86364">
        <ele>1530</ele>
        <time>2021-08-04T07:25:35.800Z</time>
      </trkpt>
      <trkpt lat="46.99504" lon="8.86363">
        <ele>1530</ele>
        <time>2021-08-04T07:25:36.801Z</time>
      </trkpt>
      <trkpt lat="46.99503" lon="8.86362">
        <ele>1530</ele>
        <time>2021-08-04T07:25:37.800Z</time>
      </trkpt>
      <trkpt lat="46.99501" lon="8.86361">
        <ele>1530</ele>
        <time>2021-08-04T07:25:38.801Z</time>
      </trkpt>
      <trkpt lat="46.995" lon="8.86361">
        <ele>1530</ele>
        <time>2021-08-04T07:25:39.801Z</time>
      </trkpt>
      <trkpt lat="46.99499" lon="8.8636">
        <ele>1531</ele>
        <time>2021-08-04T07:25:40.801Z</time>
      </trkpt>
      <trkpt lat="46.99498" lon="8.86359">
        <ele>1531</ele>
        <time>2021-08-04T07:25:41.800Z</time>
      </trkpt>
      <trkpt lat="46.99497" lon="8.86358">
        <ele>1531</ele>
        <time>2021-08-04T07:25:42.801Z</time>
      </trkpt>
      <trkpt lat="46.99495" lon="8.86357">
        <ele>1531</ele>
        <time>2021-08-04T07:25:43.801Z</time>
      </trkpt>
      <trkpt lat="46.99493" lon="8.86356">
        <ele>1531</ele>
        <time>2021-08-04T07:25:44.801Z</time>
      </trkpt>
      <trkpt lat="46.99492" lon="8.86355">
        <ele>1531</ele>
        <time>2021-08-04T07:25:45.801Z</time>
      </trkpt>
      <trkpt lat="46.99491" lon="8.86355">
        <ele>1531</ele>
        <time>2021-08-04T07:25:46.801Z</time>
      </trkpt>
      <trkpt lat="46.9949" lon="8.86354">
        <ele>1531</ele>
        <time>2021-08-04T07:25:47.800Z</time>
      </trkpt>
      <trkpt lat="46.99489" lon="8.86354">
        <ele>1531</ele>
        <time>2021-08-04T07:25:48.800Z</time>
      </trkpt>
      <trkpt lat="46.99488" lon="8.86352">
        <ele>1531</ele>
        <time>2021-08-04T07:25:49.801Z</time>
      </trkpt>
      <trkpt lat="46.99486" lon="8.86352">
        <ele>1531</ele>
        <time>2021-08-04T07:25:50.800Z</time>
      </trkpt>
      <trkpt lat="46.99485" lon="8.86351">
        <ele>1531</ele>
        <time>2021-08-04T07:25:51.801Z</time>
      </trkpt>
      <trkpt lat="46.99484" lon="8.86351">
        <ele>1531</ele>
        <time>2021-08-04T07:25:52.801Z</time>
      </trkpt>
      <trkpt lat="46.99483" lon="8.8635">
        <ele>1532</ele>
        <time>2021-08-04T07:25:53.800Z</time>
      </trkpt>
      <trkpt lat="46.99481" lon="8.86349">
        <ele>1532</ele>
        <time>2021-08-04T07:25:54.801Z</time>
      </trkpt>
      <trkpt lat="46.99479" lon="8.86348">
        <ele>1532</ele>
        <time>2021-08-04T07:25:55.801Z</time>
      </trkpt>
      <trkpt lat="46.99477" lon="8.86347">
        <ele>1532</ele>
        <time>2021-08-04T07:25:56.800Z</time>
      </trkpt>
      <trkpt lat="46.99476" lon="8.86347">
        <ele>1532</ele>
        <time>2021-08-04T07:25:57.800Z</time>
      </trkpt>
      <trkpt lat="46.99475" lon="8.86346">
        <ele>1532</ele>
        <time>2021-08-04T07:25:58.801Z</time>
      </trkpt>
      <trkpt lat="46.99474" lon="8.86345">
        <ele>1532</ele>
        <time>2021-08-04T07:25:59.801Z</time>
      </trkpt>
      <trkpt lat="46.99472" lon="8.86344">
        <ele>1532</ele>
        <time>2021-08-04T07:26:00.801Z</time>
      </trkpt>
      <trkpt lat="46.99471" lon="8.86343">
        <ele>1532</ele>
        <time>2021-08-04T07:26:01.801Z</time>
      </trkpt>
      <trkpt lat="46.9947" lon="8.86343">
        <ele>1532</ele>
        <time>2021-08-04T07:26:02.801Z</time>
      </trkpt>
      <trkpt lat="46.99469" lon="8.86342">
        <ele>1532</ele>
        <time>2021-08-04T07:26:03.800Z</time>
      </trkpt>
      <trkpt lat="46.99468" lon="8.86342">
        <ele>1531</ele>
        <time>2021-08-04T07:26:04.801Z</time>
      </trkpt>
      <trkpt lat="46.99466" lon="8.86341">
        <ele>1531</ele>
        <time>2021-08-04T07:26:05.800Z</time>
      </trkpt>
      <trkpt lat="46.99466" lon="8.8634">
        <ele>1530</ele>
        <time>2021-08-04T07:26:06.801Z</time>
      </trkpt>
      <trkpt lat="46.99465" lon="8.86339">
        <ele>1529</ele>
        <time>2021-08-04T07:26:07.800Z</time>
      </trkpt>
      <trkpt lat="46.99464" lon="8.86338">
        <ele>1529</ele>
        <time>2021-08-04T07:26:08.801Z</time>
      </trkpt>
      <trkpt lat="46.99464" lon="8.86337">
        <ele>1529</ele>
        <time>2021-08-04T07:26:09.801Z</time>
      </trkpt>
      <trkpt lat="46.99463" lon="8.86336">
        <ele>1528</ele>
        <time>2021-08-04T07:26:10.800Z</time>
      </trkpt>
      <trkpt lat="46.99462" lon="8.86334">
        <ele>1528</ele>
        <time>2021-08-04T07:26:11.801Z</time>
      </trkpt>
      <trkpt lat="46.99462" lon="8.86332">
        <ele>1527</ele>
        <time>2021-08-04T07:26:12.801Z</time>
      </trkpt>
      <trkpt lat="46.99462" lon="8.8633">
        <ele>1527</ele>
        <time>2021-08-04T07:26:13.800Z</time>
      </trkpt>
      <trkpt lat="46.99462" lon="8.86329">
        <ele>1527</ele>
        <time>2021-08-04T07:26:14.801Z</time>
      </trkpt>
      <trkpt lat="46.99461" lon="8.86328">
        <ele>1526</ele>
        <time>2021-08-04T07:26:15.800Z</time>
      </trkpt>
      <trkpt lat="46.99461" lon="8.86327">
        <ele>1526</ele>
        <time>2021-08-04T07:26:16.800Z</time>
      </trkpt>
      <trkpt lat="46.99461" lon="8.86326">
        <ele>1525</ele>
        <time>2021-08-04T07:26:17.801Z</time>
      </trkpt>
      <trkpt lat="46.9946" lon="8.86325">
        <ele>1525</ele>
        <time>2021-08-04T07:26:18.801Z</time>
      </trkpt>
      <trkpt lat="46.9946" lon="8.86324">
        <ele>1524</ele>
        <time>2021-08-04T07:26:19.801Z</time>
      </trkpt>
      <trkpt lat="46.99459" lon="8.86322">
        <ele>1523</ele>
        <time>2021-08-04T07:26:20.801Z</time>
      </trkpt>
      <trkpt lat="46.99458" lon="8.8632">
        <ele>1523</ele>
        <time>2021-08-04T07:26:21.801Z</time>
      </trkpt>
      <trkpt lat="46.99458" lon="8.86319">
        <ele>1522</ele>
        <time>2021-08-04T07:26:22.801Z</time>
      </trkpt>
      <trkpt lat="46.99457" lon="8.86317">
        <ele>1522</ele>
        <time>2021-08-04T07:26:23.800Z</time>
      </trkpt>
      <trkpt lat="46.99457" lon="8.86315">
        <ele>1522</ele>
        <time>2021-08-04T07:26:24.801Z</time>
      </trkpt>
      <trkpt lat="46.99456" lon="8.86313">
        <ele>1521</ele>
        <time>2021-08-04T07:26:25.801Z</time>
      </trkpt>
      <trkpt lat="46.99456" lon="8.86312">
        <ele>1521</ele>
        <time>2021-08-04T07:26:26.801Z</time>
      </trkpt>
      <trkpt lat="46.99456" lon="8.8631">
        <ele>1521</ele>
        <time>2021-08-04T07:26:27.801Z</time>
      </trkpt>
      <trkpt lat="46.99456" lon="8.86308">
        <ele>1521</ele>
        <time>2021-08-04T07:26:28.801Z</time>
      </trkpt>
      <trkpt lat="46.99456" lon="8.86307">
        <ele>1521</ele>
        <time>2021-08-04T07:26:29.801Z</time>
      </trkpt>
      <trkpt lat="46.99456" lon="8.86305">
        <ele>1521</ele>
        <time>2021-08-04T07:26:30.801Z</time>
      </trkpt>
      <trkpt lat="46.99455" lon="8.86303">
        <ele>1521</ele>
        <time>2021-08-04T07:26:31.801Z</time>
      </trkpt>
      <trkpt lat="46.99455" lon="8.86302">
        <ele>1521</ele>
        <time>2021-08-04T07:26:32.801Z</time>
      </trkpt>
      <trkpt lat="46.99455" lon="8.863">
        <ele>1521</ele>
        <time>2021-08-04T07:26:33.801Z</time>
      </trkpt>
      <trkpt lat="46.99455" lon="8.86298">
        <ele>1520</ele>
        <time>2021-08-04T07:26:34.801Z</time>
      </trkpt>
      <trkpt lat="46.99455" lon="8.86296">
        <ele>1520</ele>
        <time>2021-08-04T07:26:35.800Z</time>
      </trkpt>
      <trkpt lat="46.99455" lon="8.86295">
        <ele>1520</ele>
        <time>2021-08-04T07:26:36.800Z</time>
      </trkpt>
      <trkpt lat="46.99455" lon="8.86293">
        <ele>1520</ele>
        <time>2021-08-04T07:26:37.801Z</time>
      </trkpt>
      <trkpt lat="46.99454" lon="8.86291">
        <ele>1520</ele>
        <time>2021-08-04T07:26:38.800Z</time>
      </trkpt>
      <trkpt lat="46.99454" lon="8.86289">
        <ele>1519</ele>
        <time>2021-08-04T07:26:39.800Z</time>
      </trkpt>
      <trkpt lat="46.99454" lon="8.86288">
        <ele>1519</ele>
        <time>2021-08-04T07:26:40.801Z</time>
      </trkpt>
      <trkpt lat="46.99454" lon="8.86286">
        <ele>1519</ele>
        <time>2021-08-04T07:26:41.801Z</time>
      </trkpt>
      <trkpt lat="46.99453" lon="8.86285">
        <ele>1519</ele>
        <time>2021-08-04T07:26:42.800Z</time>
      </trkpt>
      <trkpt lat="46.99452" lon="8.86284">
        <ele>1519</ele>
        <time>2021-08-04T07:26:43.800Z</time>
      </trkpt>
      <trkpt lat="46.99451" lon="8.86283">
        <ele>1519</ele>
        <time>2021-08-04T07:26:44.801Z</time>
      </trkpt>
      <trkpt lat="46.9945" lon="8.86282">
        <ele>1519</ele>
        <time>2021-08-04T07:26:45.801Z</time>
      </trkpt>
      <trkpt lat="46.99449" lon="8.86282">
        <ele>1519</ele>
        <time>2021-08-04T07:26:46.800Z</time>
      </trkpt>
      <trkpt lat="46.99449" lon="8.86282">
        <ele>1519</ele>
        <time>2021-08-04T07:26:47.801Z</time>
      </trkpt>
      <trkpt lat="46.99448" lon="8.86281">
        <ele>1518</ele>
        <time>2021-08-04T07:26:48.800Z</time>
      </trkpt>
      <trkpt lat="46.99448" lon="8.86281">
        <ele>1518</ele>
        <time>2021-08-04T07:26:49.800Z</time>
      </trkpt>
      <trkpt lat="46.99447" lon="8.8628">
        <ele>1518</ele>
        <time>2021-08-04T07:26:50.800Z</time>
      </trkpt>
      <trkpt lat="46.99447" lon="8.86278">
        <ele>1517</ele>
        <time>2021-08-04T07:26:51.800Z</time>
      </trkpt>
      <trkpt lat="46.99446" lon="8.86277">
        <ele>1517</ele>
        <time>2021-08-04T07:26:52.801Z</time>
      </trkpt>
      <trkpt lat="46.99445" lon="8.86276">
        <ele>1517</ele>
        <time>2021-08-04T07:26:53.801Z</time>
      </trkpt>
      <trkpt lat="46.99444" lon="8.86275">
        <ele>1517</ele>
        <time>2021-08-04T07:26:54.800Z</time>
      </trkpt>
      <trkpt lat="46.99443" lon="8.86275">
        <ele>1517</ele>
        <time>2021-08-04T07:26:55.801Z</time>
      </trkpt>
      <trkpt lat="46.99443" lon="8.86274">
        <ele>1517</ele>
        <time>2021-08-04T07:26:56.801Z</time>
      </trkpt>
      <trkpt lat="46.99442" lon="8.86273">
        <ele>1517</ele>
        <time>2021-08-04T07:26:57.801Z</time>
      </trkpt>
      <trkpt lat="46.99441" lon="8.86272">
        <ele>1517</ele>
        <time>2021-08-04T07:26:58.800Z</time>
      </trkpt>
      <trkpt lat="46.9944" lon="8.86271">
        <ele>1517</ele>
        <time>2021-08-04T07:26:59.801Z</time>
      </trkpt>
      <trkpt lat="46.99439" lon="8.8627">
        <ele>1517</ele>
        <time>2021-08-04T07:27:00.801Z</time>
      </trkpt>
      <trkpt lat="46.99439" lon="8.86269">
        <ele>1517</ele>
        <time>2021-08-04T07:27:01.801Z</time>
      </trkpt>
      <trkpt lat="46.99439" lon="8.86267">
        <ele>1518</ele>
        <time>2021-08-04T07:27:02.801Z</time>
      </trkpt>
      <trkpt lat="46.99439" lon="8.86266">
        <ele>1518</ele>
        <time>2021-08-04T07:27:03.801Z</time>
      </trkpt>
      <trkpt lat="46.99439" lon="8.86264">
        <ele>1518</ele>
        <time>2021-08-04T07:27:04.801Z</time>
      </trkpt>
      <trkpt lat="46.99439" lon="8.86263">
        <ele>1519</ele>
        <time>2021-08-04T07:27:05.800Z</time>
      </trkpt>
      <trkpt lat="46.99439" lon="8.86261">
        <ele>1519</ele>
        <time>2021-08-04T07:27:06.801Z</time>
      </trkpt>
      <trkpt lat="46.99439" lon="8.8626">
        <ele>1519</ele>
        <time>2021-08-04T07:27:07.800Z</time>
      </trkpt>
      <trkpt lat="46.99439" lon="8.86258">
        <ele>1518</ele>
        <time>2021-08-04T07:27:08.800Z</time>
      </trkpt>
      <trkpt lat="46.99439" lon="8.86256">
        <ele>1518</ele>
        <time>2021-08-04T07:27:09.801Z</time>
      </trkpt>
      <trkpt lat="46.99439" lon="8.86254">
        <ele>1517</ele>
        <time>2021-08-04T07:27:10.800Z</time>
      </trkpt>
      <trkpt lat="46.99439" lon="8.86252">
        <ele>1517</ele>
        <time>2021-08-04T07:27:11.800Z</time>
      </trkpt>
      <trkpt lat="46.99439" lon="8.8625">
        <ele>1517</ele>
        <time>2021-08-04T07:27:12.801Z</time>
      </trkpt>
      <trkpt lat="46.99438" lon="8.86249">
        <ele>1516</ele>
        <time>2021-08-04T07:27:13.801Z</time>
      </trkpt>
      <trkpt lat="46.99438" lon="8.86248">
        <ele>1516</ele>
        <time>2021-08-04T07:27:14.801Z</time>
      </trkpt>
      <trkpt lat="46.99437" lon="8.86246">
        <ele>1516</ele>
        <time>2021-08-04T07:27:15.800Z</time>
      </trkpt>
      <trkpt lat="46.99436" lon="8.86245">
        <ele>1516</ele>
        <time>2021-08-04T07:27:16.800Z</time>
      </trkpt>
      <trkpt lat="46.99435" lon="8.86244">
        <ele>1516</ele>
        <time>2021-08-04T07:27:17.801Z</time>
      </trkpt>
      <trkpt lat="46.99434" lon="8.86243">
        <ele>1516</ele>
        <time>2021-08-04T07:27:18.801Z</time>
      </trkpt>
      <trkpt lat="46.99433" lon="8.86242">
        <ele>1516</ele>
        <time>2021-08-04T07:27:19.801Z</time>
      </trkpt>
      <trkpt lat="46.99432" lon="8.86242">
        <ele>1516</ele>
        <time>2021-08-04T07:27:20.800Z</time>
      </trkpt>
      <trkpt lat="46.99431" lon="8.86241">
        <ele>1516</ele>
        <time>2021-08-04T07:27:21.801Z</time>
      </trkpt>
      <trkpt lat="46.9943" lon="8.8624">
        <ele>1516</ele>
        <time>2021-08-04T07:27:22.801Z</time>
      </trkpt>
      <trkpt lat="46.99429" lon="8.86239">
        <ele>1516</ele>
        <time>2021-08-04T07:27:23.801Z</time>
      </trkpt>
      <trkpt lat="46.99428" lon="8.86238">
        <ele>1516</ele>
        <time>2021-08-04T07:27:24.800Z</time>
      </trkpt>
      <trkpt lat="46.99426" lon="8.86237">
        <ele>1516</ele>
        <time>2021-08-04T07:27:25.801Z</time>
      </trkpt>
      <trkpt lat="46.99425" lon="8.86236">
        <ele>1516</ele>
        <time>2021-08-04T07:27:26.801Z</time>
      </trkpt>
      <trkpt lat="46.99425" lon="8.86235">
        <ele>1516</ele>
        <time>2021-08-04T07:27:27.801Z</time>
      </trkpt>
      <trkpt lat="46.99424" lon="8.86234">
        <ele>1517</ele>
        <time>2021-08-04T07:27:28.801Z</time>
      </trkpt>
      <trkpt lat="46.99423" lon="8.86233">
        <ele>1516</ele>
        <time>2021-08-04T07:27:29.801Z</time>
      </trkpt>
      <trkpt lat="46.99422" lon="8.86232">
        <ele>1516</ele>
        <time>2021-08-04T07:27:30.801Z</time>
      </trkpt>
      <trkpt lat="46.99421" lon="8.86231">
        <ele>1516</ele>
        <time>2021-08-04T07:27:31.801Z</time>
      </trkpt>
      <trkpt lat="46.99419" lon="8.86229">
        <ele>1516</ele>
        <time>2021-08-04T07:27:32.800Z</time>
      </trkpt>
      <trkpt lat="46.99417" lon="8.86228">
        <ele>1515</ele>
        <time>2021-08-04T07:27:33.800Z</time>
      </trkpt>
      <trkpt lat="46.99416" lon="8.86226">
        <ele>1515</ele>
        <time>2021-08-04T07:27:34.801Z</time>
      </trkpt>
      <trkpt lat="46.99415" lon="8.86225">
        <ele>1515</ele>
        <time>2021-08-04T07:27:35.801Z</time>
      </trkpt>
      <trkpt lat="46.99414" lon="8.86223">
        <ele>1514</ele>
        <time>2021-08-04T07:27:36.800Z</time>
      </trkpt>
      <trkpt lat="46.99413" lon="8.86222">
        <ele>1514</ele>
        <time>2021-08-04T07:27:37.800Z</time>
      </trkpt>
      <trkpt lat="46.99412" lon="8.8622">
        <ele>1514</ele>
        <time>2021-08-04T07:27:38.801Z</time>
      </trkpt>
      <trkpt lat="46.99411" lon="8.86219">
        <ele>1513</ele>
        <time>2021-08-04T07:27:39.801Z</time>
      </trkpt>
      <trkpt lat="46.9941" lon="8.86217">
        <ele>1513</ele>
        <time>2021-08-04T07:27:40.800Z</time>
      </trkpt>
      <trkpt lat="46.99409" lon="8.86215">
        <ele>1513</ele>
        <time>2021-08-04T07:27:41.801Z</time>
      </trkpt>
      <trkpt lat="46.99409" lon="8.86214">
        <ele>1513</ele>
        <time>2021-08-04T07:27:42.800Z</time>
      </trkpt>
      <trkpt lat="46.99407" lon="8.86212">
        <ele>1513</ele>
        <time>2021-08-04T07:27:43.800Z</time>
      </trkpt>
      <trkpt lat="46.99407" lon="8.8621">
        <ele>1513</ele>
        <time>2021-08-04T07:27:44.801Z</time>
      </trkpt>
      <trkpt lat="46.99406" lon="8.86209">
        <ele>1513</ele>
        <time>2021-08-04T07:27:45.800Z</time>
      </trkpt>
      <trkpt lat="46.99405" lon="8.86208">
        <ele>1513</ele>
        <time>2021-08-04T07:27:46.800Z</time>
      </trkpt>
      <trkpt lat="46.99405" lon="8.86206">
        <ele>1513</ele>
        <time>2021-08-04T07:27:47.801Z</time>
      </trkpt>
      <trkpt lat="46.99404" lon="8.86205">
        <ele>1513</ele>
        <time>2021-08-04T07:27:48.801Z</time>
      </trkpt>
      <trkpt lat="46.99403" lon="8.86203">
        <ele>1513</ele>
        <time>2021-08-04T07:27:49.800Z</time>
      </trkpt>
      <trkpt lat="46.99403" lon="8.86202">
        <ele>1513</ele>
        <time>2021-08-04T07:27:50.801Z</time>
      </trkpt>
      <trkpt lat="46.99402" lon="8.86201">
        <ele>1512</ele>
        <time>2021-08-04T07:27:51.800Z</time>
      </trkpt>
      <trkpt lat="46.99401" lon="8.86199">
        <ele>1512</ele>
        <time>2021-08-04T07:27:52.800Z</time>
      </trkpt>
      <trkpt lat="46.994" lon="8.86198">
        <ele>1512</ele>
        <time>2021-08-04T07:27:53.801Z</time>
      </trkpt>
      <trkpt lat="46.99399" lon="8.86197">
        <ele>1512</ele>
        <time>2021-08-04T07:27:54.801Z</time>
      </trkpt>
      <trkpt lat="46.99398" lon="8.86195">
        <ele>1512</ele>
        <time>2021-08-04T07:27:55.801Z</time>
      </trkpt>
      <trkpt lat="46.99398" lon="8.86193">
        <ele>1512</ele>
        <time>2021-08-04T07:27:56.801Z</time>
      </trkpt>
      <trkpt lat="46.99398" lon="8.86192">
        <ele>1512</ele>
        <time>2021-08-04T07:27:57.801Z</time>
      </trkpt>
      <trkpt lat="46.99397" lon="8.8619">
        <ele>1512</ele>
        <time>2021-08-04T07:27:58.801Z</time>
      </trkpt>
      <trkpt lat="46.99396" lon="8.86189">
        <ele>1513</ele>
        <time>2021-08-04T07:27:59.800Z</time>
      </trkpt>
      <trkpt lat="46.99396" lon="8.86187">
        <ele>1512</ele>
        <time>2021-08-04T07:28:00.800Z</time>
      </trkpt>
      <trkpt lat="46.99395" lon="8.86186">
        <ele>1512</ele>
        <time>2021-08-04T07:28:01.801Z</time>
      </trkpt>
      <trkpt lat="46.99394" lon="8.86184">
        <ele>1512</ele>
        <time>2021-08-04T07:28:02.800Z</time>
      </trkpt>
      <trkpt lat="46.99393" lon="8.86182">
        <ele>1512</ele>
        <time>2021-08-04T07:28:03.801Z</time>
      </trkpt>
      <trkpt lat="46.99392" lon="8.86181">
        <ele>1512</ele>
        <time>2021-08-04T07:28:04.801Z</time>
      </trkpt>
      <trkpt lat="46.99392" lon="8.8618">
        <ele>1512</ele>
        <time>2021-08-04T07:28:05.801Z</time>
      </trkpt>
      <trkpt lat="46.99392" lon="8.86178">
        <ele>1512</ele>
        <time>2021-08-04T07:28:06.801Z</time>
      </trkpt>
      <trkpt lat="46.99391" lon="8.86176">
        <ele>1512</ele>
        <time>2021-08-04T07:28:07.801Z</time>
      </trkpt>
      <trkpt lat="46.9939" lon="8.86174">
        <ele>1511</ele>
        <time>2021-08-04T07:28:08.801Z</time>
      </trkpt>
      <trkpt lat="46.99389" lon="8.86172">
        <ele>1511</ele>
        <time>2021-08-04T07:28:09.801Z</time>
      </trkpt>
      <trkpt lat="46.99388" lon="8.86171">
        <ele>1511</ele>
        <time>2021-08-04T07:28:10.801Z</time>
      </trkpt>
      <trkpt lat="46.99388" lon="8.86169">
        <ele>1511</ele>
        <time>2021-08-04T07:28:11.801Z</time>
      </trkpt>
      <trkpt lat="46.99387" lon="8.86168">
        <ele>1511</ele>
        <time>2021-08-04T07:28:12.800Z</time>
      </trkpt>
      <trkpt lat="46.99387" lon="8.86166">
        <ele>1511</ele>
        <time>2021-08-04T07:28:13.801Z</time>
      </trkpt>
      <trkpt lat="46.99386" lon="8.86165">
        <ele>1511</ele>
        <time>2021-08-04T07:28:14.800Z</time>
      </trkpt>
      <trkpt lat="46.99386" lon="8.86163">
        <ele>1511</ele>
        <time>2021-08-04T07:28:15.800Z</time>
      </trkpt>
      <trkpt lat="46.99385" lon="8.86162">
        <ele>1511</ele>
        <time>2021-08-04T07:28:16.801Z</time>
      </trkpt>
      <trkpt lat="46.99384" lon="8.8616">
        <ele>1511</ele>
        <time>2021-08-04T07:28:17.801Z</time>
      </trkpt>
      <trkpt lat="46.99383" lon="8.86159">
        <ele>1511</ele>
        <time>2021-08-04T07:28:18.801Z</time>
      </trkpt>
      <trkpt lat="46.99383" lon="8.86158">
        <ele>1511</ele>
        <time>2021-08-04T07:28:19.801Z</time>
      </trkpt>
      <trkpt lat="46.99382" lon="8.86157">
        <ele>1511</ele>
        <time>2021-08-04T07:28:20.801Z</time>
      </trkpt>
      <trkpt lat="46.99381" lon="8.86155">
        <ele>1511</ele>
        <time>2021-08-04T07:28:21.801Z</time>
      </trkpt>
      <trkpt lat="46.99381" lon="8.86154">
        <ele>1511</ele>
        <time>2021-08-04T07:28:22.801Z</time>
      </trkpt>
      <trkpt lat="46.9938" lon="8.86152">
        <ele>1511</ele>
        <time>2021-08-04T07:28:23.800Z</time>
      </trkpt>
      <trkpt lat="46.9938" lon="8.86151">
        <ele>1511</ele>
        <time>2021-08-04T07:28:24.800Z</time>
      </trkpt>
      <trkpt lat="46.99379" lon="8.8615">
        <ele>1510</ele>
        <time>2021-08-04T07:28:25.801Z</time>
      </trkpt>
      <trkpt lat="46.99378" lon="8.86149">
        <ele>1510</ele>
        <time>2021-08-04T07:28:26.801Z</time>
      </trkpt>
      <trkpt lat="46.99377" lon="8.86147">
        <ele>1510</ele>
        <time>2021-08-04T07:28:27.800Z</time>
      </trkpt>
      <trkpt lat="46.99376" lon="8.86146">
        <ele>1509</ele>
        <time>2021-08-04T07:28:28.801Z</time>
      </trkpt>
      <trkpt lat="46.99375" lon="8.86145">
        <ele>1509</ele>
        <time>2021-08-04T07:28:29.801Z</time>
      </trkpt>
      <trkpt lat="46.99374" lon="8.86144">
        <ele>1509</ele>
        <time>2021-08-04T07:28:30.800Z</time>
      </trkpt>
      <trkpt lat="46.99372" lon="8.86143">
        <ele>1509</ele>
        <time>2021-08-04T07:28:31.800Z</time>
      </trkpt>
      <trkpt lat="46.99371" lon="8.86142">
        <ele>1509</ele>
        <time>2021-08-04T07:28:32.801Z</time>
      </trkpt>
      <trkpt lat="46.99369" lon="8.86141">
        <ele>1509</ele>
        <time>2021-08-04T07:28:33.801Z</time>
      </trkpt>
      <trkpt lat="46.99367" lon="8.8614">
        <ele>1509</ele>
        <time>2021-08-04T07:28:34.800Z</time>
      </trkpt>
      <trkpt lat="46.99366" lon="8.8614">
        <ele>1509</ele>
        <time>2021-08-04T07:28:35.801Z</time>
      </trkpt>
      <trkpt lat="46.99365" lon="8.86139">
        <ele>1509</ele>
        <time>2021-08-04T07:28:36.801Z</time>
      </trkpt>
      <trkpt lat="46.99364" lon="8.86139">
        <ele>1509</ele>
        <time>2021-08-04T07:28:37.801Z</time>
      </trkpt>
      <trkpt lat="46.99363" lon="8.86139">
        <ele>1508</ele>
        <time>2021-08-04T07:28:38.800Z</time>
      </trkpt>
      <trkpt lat="46.99362" lon="8.86139">
        <ele>1508</ele>
        <time>2021-08-04T07:28:39.800Z</time>
      </trkpt>
      <trkpt lat="46.99361" lon="8.86139">
        <ele>1508</ele>
        <time>2021-08-04T07:28:40.801Z</time>
      </trkpt>
      <trkpt lat="46.99359" lon="8.86138">
        <ele>1508</ele>
        <time>2021-08-04T07:28:41.800Z</time>
      </trkpt>
      <trkpt lat="46.99358" lon="8.86138">
        <ele>1508</ele>
        <time>2021-08-04T07:28:42.801Z</time>
      </trkpt>
      <trkpt lat="46.99357" lon="8.86139">
        <ele>1509</ele>
        <time>2021-08-04T07:28:43.801Z</time>
      </trkpt>
      <trkpt lat="46.99356" lon="8.86139">
        <ele>1508</ele>
        <time>2021-08-04T07:28:44.800Z</time>
      </trkpt>
      <trkpt lat="46.99354" lon="8.86139">
        <ele>1508</ele>
        <time>2021-08-04T07:28:45.800Z</time>
      </trkpt>
      <trkpt lat="46.99353" lon="8.86139">
        <ele>1508</ele>
        <time>2021-08-04T07:28:46.801Z</time>
      </trkpt>
      <trkpt lat="46.99352" lon="8.86139">
        <ele>1508</ele>
        <time>2021-08-04T07:28:47.800Z</time>
      </trkpt>
      <trkpt lat="46.99351" lon="8.86138">
        <ele>1508</ele>
        <time>2021-08-04T07:28:48.800Z</time>
      </trkpt>
      <trkpt lat="46.99349" lon="8.86138">
        <ele>1508</ele>
        <time>2021-08-04T07:28:49.801Z</time>
      </trkpt>
      <trkpt lat="46.99348" lon="8.86137">
        <ele>1507</ele>
        <time>2021-08-04T07:28:50.801Z</time>
      </trkpt>
      <trkpt lat="46.99347" lon="8.86136">
        <ele>1507</ele>
        <time>2021-08-04T07:28:51.800Z</time>
      </trkpt>
      <trkpt lat="46.99345" lon="8.86136">
        <ele>1507</ele>
        <time>2021-08-04T07:28:52.800Z</time>
      </trkpt>
      <trkpt lat="46.99344" lon="8.86135">
        <ele>1507</ele>
        <time>2021-08-04T07:28:53.801Z</time>
      </trkpt>
      <trkpt lat="46.99343" lon="8.86133">
        <ele>1507</ele>
        <time>2021-08-04T07:28:54.800Z</time>
      </trkpt>
      <trkpt lat="46.99341" lon="8.86132">
        <ele>1507</ele>
        <time>2021-08-04T07:28:55.800Z</time>
      </trkpt>
      <trkpt lat="46.9934" lon="8.86131">
        <ele>1508</ele>
        <time>2021-08-04T07:28:56.800Z</time>
      </trkpt>
      <trkpt lat="46.99339" lon="8.8613">
        <ele>1507</ele>
        <time>2021-08-04T07:28:57.800Z</time>
      </trkpt>
      <trkpt lat="46.99338" lon="8.86129">
        <ele>1507</ele>
        <time>2021-08-04T07:28:58.800Z</time>
      </trkpt>
      <trkpt lat="46.99337" lon="8.86127">
        <ele>1507</ele>
        <time>2021-08-04T07:28:59.800Z</time>
      </trkpt>
      <trkpt lat="46.99337" lon="8.86126">
        <ele>1507</ele>
        <time>2021-08-04T07:29:00.801Z</time>
      </trkpt>
      <trkpt lat="46.99336" lon="8.86124">
        <ele>1507</ele>
        <time>2021-08-04T07:29:01.800Z</time>
      </trkpt>
      <trkpt lat="46.99335" lon="8.86123">
        <ele>1507</ele>
        <time>2021-08-04T07:29:02.800Z</time>
      </trkpt>
      <trkpt lat="46.99335" lon="8.86121">
        <ele>1507</ele>
        <time>2021-08-04T07:29:03.800Z</time>
      </trkpt>
      <trkpt lat="46.99334" lon="8.8612">
        <ele>1506</ele>
        <time>2021-08-04T07:29:04.800Z</time>
      </trkpt>
      <trkpt lat="46.99333" lon="8.86118">
        <ele>1506</ele>
        <time>2021-08-04T07:29:05.800Z</time>
      </trkpt>
      <trkpt lat="46.99332" lon="8.86116">
        <ele>1506</ele>
        <time>2021-08-04T07:29:06.800Z</time>
      </trkpt>
      <trkpt lat="46.99332" lon="8.86115">
        <ele>1506</ele>
        <time>2021-08-04T07:29:07.800Z</time>
      </trkpt>
      <trkpt lat="46.99331" lon="8.86114">
        <ele>1506</ele>
        <time>2021-08-04T07:29:08.800Z</time>
      </trkpt>
      <trkpt lat="46.99331" lon="8.86112">
        <ele>1505</ele>
        <time>2021-08-04T07:29:09.800Z</time>
      </trkpt>
      <trkpt lat="46.99331" lon="8.86111">
        <ele>1505</ele>
        <time>2021-08-04T07:29:10.801Z</time>
      </trkpt>
      <trkpt lat="46.99331" lon="8.8611">
        <ele>1505</ele>
        <time>2021-08-04T07:29:11.800Z</time>
      </trkpt>
      <trkpt lat="46.99331" lon="8.86108">
        <ele>1504</ele>
        <time>2021-08-04T07:29:12.800Z</time>
      </trkpt>
      <trkpt lat="46.9933" lon="8.86107">
        <ele>1504</ele>
        <time>2021-08-04T07:29:13.800Z</time>
      </trkpt>
      <trkpt lat="46.9933" lon="8.86106">
        <ele>1503</ele>
        <time>2021-08-04T07:29:14.800Z</time>
      </trkpt>
      <trkpt lat="46.99329" lon="8.86105">
        <ele>1503</ele>
        <time>2021-08-04T07:29:15.801Z</time>
      </trkpt>
      <trkpt lat="46.99329" lon="8.86103">
        <ele>1502</ele>
        <time>2021-08-04T07:29:16.801Z</time>
      </trkpt>
      <trkpt lat="46.99328" lon="8.86102">
        <ele>1502</ele>
        <time>2021-08-04T07:29:17.801Z</time>
      </trkpt>
      <trkpt lat="46.99328" lon="8.86101">
        <ele>1502</ele>
        <time>2021-08-04T07:29:18.800Z</time>
      </trkpt>
      <trkpt lat="46.99327" lon="8.86099">
        <ele>1502</ele>
        <time>2021-08-04T07:29:19.801Z</time>
      </trkpt>
      <trkpt lat="46.99326" lon="8.86098">
        <ele>1502</ele>
        <time>2021-08-04T07:29:20.800Z</time>
      </trkpt>
      <trkpt lat="46.99326" lon="8.86097">
        <ele>1501</ele>
        <time>2021-08-04T07:29:21.800Z</time>
      </trkpt>
      <trkpt lat="46.99325" lon="8.86096">
        <ele>1501</ele>
        <time>2021-08-04T07:29:22.800Z</time>
      </trkpt>
      <trkpt lat="46.99324" lon="8.86094">
        <ele>1501</ele>
        <time>2021-08-04T07:29:23.800Z</time>
      </trkpt>
      <trkpt lat="46.99324" lon="8.86092">
        <ele>1501</ele>
        <time>2021-08-04T07:29:24.801Z</time>
      </trkpt>
      <trkpt lat="46.99323" lon="8.8609">
        <ele>1501</ele>
        <time>2021-08-04T07:29:25.800Z</time>
      </trkpt>
      <trkpt lat="46.99322" lon="8.86089">
        <ele>1501</ele>
        <time>2021-08-04T07:29:26.801Z</time>
      </trkpt>
      <trkpt lat="46.99321" lon="8.86087">
        <ele>1501</ele>
        <time>2021-08-04T07:29:27.801Z</time>
      </trkpt>
      <trkpt lat="46.9932" lon="8.86085">
        <ele>1502</ele>
        <time>2021-08-04T07:29:28.801Z</time>
      </trkpt>
      <trkpt lat="46.99319" lon="8.86084">
        <ele>1502</ele>
        <time>2021-08-04T07:29:29.801Z</time>
      </trkpt>
      <trkpt lat="46.99318" lon="8.86083">
        <ele>1502</ele>
        <time>2021-08-04T07:29:30.801Z</time>
      </trkpt>
      <trkpt lat="46.99317" lon="8.86082">
        <ele>1502</ele>
        <time>2021-08-04T07:29:31.801Z</time>
      </trkpt>
      <trkpt lat="46.99317" lon="8.8608">
        <ele>1502</ele>
        <time>2021-08-04T07:29:32.801Z</time>
      </trkpt>
      <trkpt lat="46.99316" lon="8.86079">
        <ele>1502</ele>
        <time>2021-08-04T07:29:33.801Z</time>
      </trkpt>
      <trkpt lat="46.99315" lon="8.86078">
        <ele>1502</ele>
        <time>2021-08-04T07:29:34.801Z</time>
      </trkpt>
      <trkpt lat="46.99314" lon="8.86077">
        <ele>1502</ele>
        <time>2021-08-04T07:29:35.801Z</time>
      </trkpt>
      <trkpt lat="46.99314" lon="8.86075">
        <ele>1501</ele>
        <time>2021-08-04T07:29:36.801Z</time>
      </trkpt>
      <trkpt lat="46.99313" lon="8.86074">
        <ele>1501</ele>
        <time>2021-08-04T07:29:37.801Z</time>
      </trkpt>
      <trkpt lat="46.99312" lon="8.86072">
        <ele>1500</ele>
        <time>2021-08-04T07:29:38.801Z</time>
      </trkpt>
      <trkpt lat="46.99311" lon="8.86071">
        <ele>1500</ele>
        <time>2021-08-04T07:29:39.801Z</time>
      </trkpt>
      <trkpt lat="46.9931" lon="8.86069">
        <ele>1500</ele>
        <time>2021-08-04T07:29:40.801Z</time>
      </trkpt>
      <trkpt lat="46.99309" lon="8.86068">
        <ele>1499</ele>
        <time>2021-08-04T07:29:41.800Z</time>
      </trkpt>
      <trkpt lat="46.99308" lon="8.86067">
        <ele>1498</ele>
        <time>2021-08-04T07:29:42.800Z</time>
      </trkpt>
      <trkpt lat="46.99307" lon="8.86065">
        <ele>1498</ele>
        <time>2021-08-04T07:29:43.801Z</time>
      </trkpt>
      <trkpt lat="46.99306" lon="8.86064">
        <ele>1498</ele>
        <time>2021-08-04T07:29:44.800Z</time>
      </trkpt>
      <trkpt lat="46.99305" lon="8.86062">
        <ele>1497</ele>
        <time>2021-08-04T07:29:45.801Z</time>
      </trkpt>
      <trkpt lat="46.99305" lon="8.86061">
        <ele>1497</ele>
        <time>2021-08-04T07:29:46.800Z</time>
      </trkpt>
      <trkpt lat="46.99304" lon="8.8606">
        <ele>1497</ele>
        <time>2021-08-04T07:29:47.800Z</time>
      </trkpt>
      <trkpt lat="46.99303" lon="8.86059">
        <ele>1497</ele>
        <time>2021-08-04T07:29:48.800Z</time>
      </trkpt>
      <trkpt lat="46.99303" lon="8.86057">
        <ele>1497</ele>
        <time>2021-08-04T07:29:49.801Z</time>
      </trkpt>
      <trkpt lat="46.99302" lon="8.86056">
        <ele>1496</ele>
        <time>2021-08-04T07:29:50.801Z</time>
      </trkpt>
      <trkpt lat="46.99301" lon="8.86055">
        <ele>1496</ele>
        <time>2021-08-04T07:29:51.800Z</time>
      </trkpt>
      <trkpt lat="46.993" lon="8.86053">
        <ele>1496</ele>
        <time>2021-08-04T07:29:52.800Z</time>
      </trkpt>
      <trkpt lat="46.99299" lon="8.86052">
        <ele>1496</ele>
        <time>2021-08-04T07:29:53.800Z</time>
      </trkpt>
      <trkpt lat="46.99298" lon="8.8605">
        <ele>1495</ele>
        <time>2021-08-04T07:29:54.800Z</time>
      </trkpt>
      <trkpt lat="46.99297" lon="8.86049">
        <ele>1495</ele>
        <time>2021-08-04T07:29:55.801Z</time>
      </trkpt>
      <trkpt lat="46.99296" lon="8.86047">
        <ele>1495</ele>
        <time>2021-08-04T07:29:56.801Z</time>
      </trkpt>
      <trkpt lat="46.99295" lon="8.86045">
        <ele>1495</ele>
        <time>2021-08-04T07:29:57.800Z</time>
      </trkpt>
      <trkpt lat="46.99294" lon="8.86044">
        <ele>1494</ele>
        <time>2021-08-04T07:29:58.801Z</time>
      </trkpt>
      <trkpt lat="46.99293" lon="8.86042">
        <ele>1494</ele>
        <time>2021-08-04T07:29:59.801Z</time>
      </trkpt>
      <trkpt lat="46.99293" lon="8.86041">
        <ele>1494</ele>
        <time>2021-08-04T07:30:00.801Z</time>
      </trkpt>
      <trkpt lat="46.99291" lon="8.86039">
        <ele>1494</ele>
        <time>2021-08-04T07:30:01.801Z</time>
      </trkpt>
      <trkpt lat="46.99291" lon="8.86038">
        <ele>1494</ele>
        <time>2021-08-04T07:30:02.801Z</time>
      </trkpt>
      <trkpt lat="46.9929" lon="8.86036">
        <ele>1494</ele>
        <time>2021-08-04T07:30:03.801Z</time>
      </trkpt>
      <trkpt lat="46.9929" lon="8.86034">
        <ele>1493</ele>
        <time>2021-08-04T07:30:04.801Z</time>
      </trkpt>
      <trkpt lat="46.9929" lon="8.86032">
        <ele>1493</ele>
        <time>2021-08-04T07:30:05.800Z</time>
      </trkpt>
      <trkpt lat="46.99289" lon="8.86031">
        <ele>1493</ele>
        <time>2021-08-04T07:30:06.800Z</time>
      </trkpt>
      <trkpt lat="46.99289" lon="8.86029">
        <ele>1493</ele>
        <time>2021-08-04T07:30:07.801Z</time>
      </trkpt>
      <trkpt lat="46.99289" lon="8.86028">
        <ele>1493</ele>
        <time>2021-08-04T07:30:08.800Z</time>
      </trkpt>
      <trkpt lat="46.99289" lon="8.86026">
        <ele>1493</ele>
        <time>2021-08-04T07:30:09.800Z</time>
      </trkpt>
      <trkpt lat="46.99288" lon="8.86024">
        <ele>1493</ele>
        <time>2021-08-04T07:30:10.801Z</time>
      </trkpt>
      <trkpt lat="46.99287" lon="8.86022">
        <ele>1494</ele>
        <time>2021-08-04T07:30:11.800Z</time>
      </trkpt>
      <trkpt lat="46.99285" lon="8.86021">
        <ele>1494</ele>
        <time>2021-08-04T07:30:12.801Z</time>
      </trkpt>
      <trkpt lat="46.99284" lon="8.86019">
        <ele>1494</ele>
        <time>2021-08-04T07:30:13.801Z</time>
      </trkpt>
      <trkpt lat="46.99283" lon="8.86018">
        <ele>1494</ele>
        <time>2021-08-04T07:30:14.800Z</time>
      </trkpt>
      <trkpt lat="46.99282" lon="8.86017">
        <ele>1494</ele>
        <time>2021-08-04T07:30:15.801Z</time>
      </trkpt>
      <trkpt lat="46.99282" lon="8.86016">
        <ele>1494</ele>
        <time>2021-08-04T07:30:16.801Z</time>
      </trkpt>
      <trkpt lat="46.99281" lon="8.86014">
        <ele>1494</ele>
        <time>2021-08-04T07:30:17.800Z</time>
      </trkpt>
      <trkpt lat="46.9928" lon="8.86012">
        <ele>1494</ele>
        <time>2021-08-04T07:30:18.801Z</time>
      </trkpt>
      <trkpt lat="46.99279" lon="8.86011">
        <ele>1494</ele>
        <time>2021-08-04T07:30:19.800Z</time>
      </trkpt>
      <trkpt lat="46.99278" lon="8.8601">
        <ele>1494</ele>
        <time>2021-08-04T07:30:20.801Z</time>
      </trkpt>
      <trkpt lat="46.99278" lon="8.86009">
        <ele>1494</ele>
        <time>2021-08-04T07:30:21.801Z</time>
      </trkpt>
      <trkpt lat="46.99278" lon="8.86007">
        <ele>1494</ele>
        <time>2021-08-04T07:30:22.800Z</time>
      </trkpt>
      <trkpt lat="46.99277" lon="8.86005">
        <ele>1493</ele>
        <time>2021-08-04T07:30:23.800Z</time>
      </trkpt>
      <trkpt lat="46.99277" lon="8.86004">
        <ele>1493</ele>
        <time>2021-08-04T07:30:24.801Z</time>
      </trkpt>
      <trkpt lat="46.99276" lon="8.86003">
        <ele>1493</ele>
        <time>2021-08-04T07:30:25.800Z</time>
      </trkpt>
      <trkpt lat="46.99276" lon="8.86001">
        <ele>1493</ele>
        <time>2021-08-04T07:30:26.801Z</time>
      </trkpt>
      <trkpt lat="46.99276" lon="8.86">
        <ele>1493</ele>
        <time>2021-08-04T07:30:27.800Z</time>
      </trkpt>
      <trkpt lat="46.99275" lon="8.85998">
        <ele>1493</ele>
        <time>2021-08-04T07:30:28.800Z</time>
      </trkpt>
      <trkpt lat="46.99274" lon="8.85997">
        <ele>1492</ele>
        <time>2021-08-04T07:30:29.801Z</time>
      </trkpt>
      <trkpt lat="46.99273" lon="8.85996">
        <ele>1492</ele>
        <time>2021-08-04T07:30:30.800Z</time>
      </trkpt>
      <trkpt lat="46.99273" lon="8.85994">
        <ele>1491</ele>
        <time>2021-08-04T07:30:31.800Z</time>
      </trkpt>
      <trkpt lat="46.99272" lon="8.85992">
        <ele>1491</ele>
        <time>2021-08-04T07:30:32.800Z</time>
      </trkpt>
      <trkpt lat="46.99272" lon="8.85991">
        <ele>1491</ele>
        <time>2021-08-04T07:30:33.800Z</time>
      </trkpt>
      <trkpt lat="46.99271" lon="8.8599">
        <ele>1490</ele>
        <time>2021-08-04T07:30:34.800Z</time>
      </trkpt>
      <trkpt lat="46.99271" lon="8.85988">
        <ele>1490</ele>
        <time>2021-08-04T07:30:35.800Z</time>
      </trkpt>
      <trkpt lat="46.9927" lon="8.85987">
        <ele>1490</ele>
        <time>2021-08-04T07:30:36.800Z</time>
      </trkpt>
      <trkpt lat="46.9927" lon="8.85985">
        <ele>1490</ele>
        <time>2021-08-04T07:30:37.800Z</time>
      </trkpt>
      <trkpt lat="46.99269" lon="8.85983">
        <ele>1490</ele>
        <time>2021-08-04T07:30:38.800Z</time>
      </trkpt>
      <trkpt lat="46.99268" lon="8.85981">
        <ele>1490</ele>
        <time>2021-08-04T07:30:39.801Z</time>
      </trkpt>
      <trkpt lat="46.99267" lon="8.8598">
        <ele>1489</ele>
        <time>2021-08-04T07:30:40.800Z</time>
      </trkpt>
      <trkpt lat="46.99267" lon="8.85979">
        <ele>1489</ele>
        <time>2021-08-04T07:30:41.800Z</time>
      </trkpt>
      <trkpt lat="46.99266" lon="8.85977">
        <ele>1489</ele>
        <time>2021-08-04T07:30:42.801Z</time>
      </trkpt>
      <trkpt lat="46.99266" lon="8.85976">
        <ele>1489</ele>
        <time>2021-08-04T07:30:43.800Z</time>
      </trkpt>
      <trkpt lat="46.99265" lon="8.85974">
        <ele>1489</ele>
        <time>2021-08-04T07:30:44.800Z</time>
      </trkpt>
      <trkpt lat="46.99265" lon="8.85973">
        <ele>1489</ele>
        <time>2021-08-04T07:30:45.801Z</time>
      </trkpt>
      <trkpt lat="46.99264" lon="8.85972">
        <ele>1489</ele>
        <time>2021-08-04T07:30:46.800Z</time>
      </trkpt>
      <trkpt lat="46.99263" lon="8.85971">
        <ele>1489</ele>
        <time>2021-08-04T07:30:47.800Z</time>
      </trkpt>
      <trkpt lat="46.99263" lon="8.85969">
        <ele>1489</ele>
        <time>2021-08-04T07:30:48.800Z</time>
      </trkpt>
      <trkpt lat="46.99261" lon="8.85968">
        <ele>1489</ele>
        <time>2021-08-04T07:30:49.800Z</time>
      </trkpt>
      <trkpt lat="46.9926" lon="8.85966">
        <ele>1489</ele>
        <time>2021-08-04T07:30:50.800Z</time>
      </trkpt>
      <trkpt lat="46.9926" lon="8.85964">
        <ele>1488</ele>
        <time>2021-08-04T07:30:51.800Z</time>
      </trkpt>
      <trkpt lat="46.99259" lon="8.85963">
        <ele>1488</ele>
        <time>2021-08-04T07:30:52.800Z</time>
      </trkpt>
      <trkpt lat="46.99259" lon="8.85961">
        <ele>1488</ele>
        <time>2021-08-04T07:30:53.801Z</time>
      </trkpt>
      <trkpt lat="46.99258" lon="8.8596">
        <ele>1488</ele>
        <time>2021-08-04T07:30:54.801Z</time>
      </trkpt>
      <trkpt lat="46.99258" lon="8.85958">
        <ele>1487</ele>
        <time>2021-08-04T07:30:55.801Z</time>
      </trkpt>
      <trkpt lat="46.99258" lon="8.85957">
        <ele>1487</ele>
        <time>2021-08-04T07:30:56.800Z</time>
      </trkpt>
      <trkpt lat="46.99257" lon="8.85955">
        <ele>1487</ele>
        <time>2021-08-04T07:30:57.800Z</time>
      </trkpt>
      <trkpt lat="46.99257" lon="8.85954">
        <ele>1486</ele>
        <time>2021-08-04T07:30:58.800Z</time>
      </trkpt>
      <trkpt lat="46.99256" lon="8.85952">
        <ele>1486</ele>
        <time>2021-08-04T07:30:59.800Z</time>
      </trkpt>
      <trkpt lat="46.99256" lon="8.85951">
        <ele>1485</ele>
        <time>2021-08-04T07:31:00.801Z</time>
      </trkpt>
      <trkpt lat="46.99255" lon="8.85949">
        <ele>1484</ele>
        <time>2021-08-04T07:31:01.800Z</time>
      </trkpt>
      <trkpt lat="46.99255" lon="8.85948">
        <ele>1484</ele>
        <time>2021-08-04T07:31:02.800Z</time>
      </trkpt>
      <trkpt lat="46.99254" lon="8.85947">
        <ele>1484</ele>
        <time>2021-08-04T07:31:03.801Z</time>
      </trkpt>
      <trkpt lat="46.99254" lon="8.85945">
        <ele>1484</ele>
        <time>2021-08-04T07:31:04.800Z</time>
      </trkpt>
      <trkpt lat="46.99253" lon="8.85943">
        <ele>1484</ele>
        <time>2021-08-04T07:31:05.800Z</time>
      </trkpt>
      <trkpt lat="46.99253" lon="8.85941">
        <ele>1484</ele>
        <time>2021-08-04T07:31:06.800Z</time>
      </trkpt>
      <trkpt lat="46.99253" lon="8.85939">
        <ele>1484</ele>
        <time>2021-08-04T07:31:07.801Z</time>
      </trkpt>
      <trkpt lat="46.99252" lon="8.85938">
        <ele>1484</ele>
        <time>2021-08-04T07:31:08.800Z</time>
      </trkpt>
      <trkpt lat="46.99251" lon="8.85937">
        <ele>1484</ele>
        <time>2021-08-04T07:31:09.800Z</time>
      </trkpt>
      <trkpt lat="46.9925" lon="8.85935">
        <ele>1483</ele>
        <time>2021-08-04T07:31:10.800Z</time>
      </trkpt>
      <trkpt lat="46.9925" lon="8.85934">
        <ele>1483</ele>
        <time>2021-08-04T07:31:11.801Z</time>
      </trkpt>
      <trkpt lat="46.99249" lon="8.85933">
        <ele>1483</ele>
        <time>2021-08-04T07:31:12.801Z</time>
      </trkpt>
      <trkpt lat="46.99249" lon="8.85932">
        <ele>1483</ele>
        <time>2021-08-04T07:31:13.801Z</time>
      </trkpt>
      <trkpt lat="46.99247" lon="8.85931">
        <ele>1484</ele>
        <time>2021-08-04T07:31:14.801Z</time>
      </trkpt>
      <trkpt lat="46.99246" lon="8.8593">
        <ele>1484</ele>
        <time>2021-08-04T07:31:15.800Z</time>
      </trkpt>
      <trkpt lat="46.99245" lon="8.85929">
        <ele>1484</ele>
        <time>2021-08-04T07:31:16.801Z</time>
      </trkpt>
      <trkpt lat="46.99243" lon="8.85929">
        <ele>1484</ele>
        <time>2021-08-04T07:31:17.800Z</time>
      </trkpt>
      <trkpt lat="46.99242" lon="8.85929">
        <ele>1484</ele>
        <time>2021-08-04T07:31:18.801Z</time>
      </trkpt>
      <trkpt lat="46.99241" lon="8.85928">
        <ele>1484</ele>
        <time>2021-08-04T07:31:19.800Z</time>
      </trkpt>
      <trkpt lat="46.9924" lon="8.85928">
        <ele>1484</ele>
        <time>2021-08-04T07:31:20.801Z</time>
      </trkpt>
      <trkpt lat="46.99238" lon="8.85927">
        <ele>1483</ele>
        <time>2021-08-04T07:31:21.801Z</time>
      </trkpt>
      <trkpt lat="46.99237" lon="8.85926">
        <ele>1483</ele>
        <time>2021-08-04T07:31:22.801Z</time>
      </trkpt>
      <trkpt lat="46.99236" lon="8.85925">
        <ele>1483</ele>
        <time>2021-08-04T07:31:23.801Z</time>
      </trkpt>
      <trkpt lat="46.99235" lon="8.85925">
        <ele>1483</ele>
        <time>2021-08-04T07:31:24.801Z</time>
      </trkpt>
      <trkpt lat="46.99235" lon="8.85924">
        <ele>1482</ele>
        <time>2021-08-04T07:31:25.800Z</time>
      </trkpt>
      <trkpt lat="46.99235" lon="8.85924">
        <ele>1482</ele>
        <time>2021-08-04T07:31:26.801Z</time>
      </trkpt>
      <trkpt lat="46.99234" lon="8.85923">
        <ele>1482</ele>
        <time>2021-08-04T07:31:27.801Z</time>
      </trkpt>
      <trkpt lat="46.99234" lon="8.85923">
        <ele>1482</ele>
        <time>2021-08-04T07:31:28.801Z</time>
      </trkpt>
      <trkpt lat="46.99234" lon="8.85922">
        <ele>1482</ele>
        <time>2021-08-04T07:31:29.801Z</time>
      </trkpt>
      <trkpt lat="46.99234" lon="8.85921">
        <ele>1482</ele>
        <time>2021-08-04T07:31:30.801Z</time>
      </trkpt>
      <trkpt lat="46.99234" lon="8.85921">
        <ele>1482</ele>
        <time>2021-08-04T07:31:31.800Z</time>
      </trkpt>
      <trkpt lat="46.99234" lon="8.8592">
        <ele>1481</ele>
        <time>2021-08-04T07:31:32.801Z</time>
      </trkpt>
      <trkpt lat="46.99233" lon="8.85919">
        <ele>1481</ele>
        <time>2021-08-04T07:31:33.800Z</time>
      </trkpt>
      <trkpt lat="46.99232" lon="8.85918">
        <ele>1480</ele>
        <time>2021-08-04T07:31:34.801Z</time>
      </trkpt>
      <trkpt lat="46.99233" lon="8.85915">
        <ele>1478</ele>
        <time>2021-08-04T07:31:35.802Z</time>
      </trkpt>
      <trkpt lat="46.99233" lon="8.85914">
        <ele>1478</ele>
        <time>2021-08-04T07:31:36.801Z</time>
      </trkpt>
      <trkpt lat="46.99233" lon="8.85913">
        <ele>1478</ele>
        <time>2021-08-04T07:31:37.802Z</time>
      </trkpt>
      <trkpt lat="46.99233" lon="8.85913">
        <ele>1478</ele>
        <time>2021-08-04T07:31:38.802Z</time>
      </trkpt>
      <trkpt lat="46.99233" lon="8.85912">
        <ele>1478</ele>
        <time>2021-08-04T07:31:39.802Z</time>
      </trkpt>
      <trkpt lat="46.99234" lon="8.85911">
        <ele>1478</ele>
        <time>2021-08-04T07:31:40.802Z</time>
      </trkpt>
      <trkpt lat="46.99233" lon="8.85909">
        <ele>1478</ele>
        <time>2021-08-04T07:31:41.802Z</time>
      </trkpt>
      <trkpt lat="46.99233" lon="8.85908">
        <ele>1478</ele>
        <time>2021-08-04T07:31:42.802Z</time>
      </trkpt>
      <trkpt lat="46.99233" lon="8.85907">
        <ele>1478</ele>
        <time>2021-08-04T07:31:43.801Z</time>
      </trkpt>
      <trkpt lat="46.99234" lon="8.85905">
        <ele>1478</ele>
        <time>2021-08-04T07:31:44.802Z</time>
      </trkpt>
      <trkpt lat="46.99234" lon="8.85904">
        <ele>1478</ele>
        <time>2021-08-04T07:31:45.802Z</time>
      </trkpt>
      <trkpt lat="46.99234" lon="8.85903">
        <ele>1478</ele>
        <time>2021-08-04T07:31:46.801Z</time>
      </trkpt>
      <trkpt lat="46.99235" lon="8.85901">
        <ele>1478</ele>
        <time>2021-08-04T07:31:47.801Z</time>
      </trkpt>
      <trkpt lat="46.99235" lon="8.85901">
        <ele>1478</ele>
        <time>2021-08-04T07:31:48.802Z</time>
      </trkpt>
      <trkpt lat="46.99235" lon="8.85901">
        <ele>1478</ele>
        <time>2021-08-04T07:31:49.802Z</time>
      </trkpt>
      <trkpt lat="46.99236" lon="8.85899">
        <ele>1477</ele>
        <time>2021-08-04T07:31:50.803Z</time>
      </trkpt>
      <trkpt lat="46.99236" lon="8.85898">
        <ele>1477</ele>
        <time>2021-08-04T07:31:51.803Z</time>
      </trkpt>
      <trkpt lat="46.99236" lon="8.85896">
        <ele>1477</ele>
        <time>2021-08-04T07:31:52.803Z</time>
      </trkpt>
      <trkpt lat="46.99236" lon="8.85895">
        <ele>1477</ele>
        <time>2021-08-04T07:31:53.803Z</time>
      </trkpt>
      <trkpt lat="46.99236" lon="8.85894">
        <ele>1477</ele>
        <time>2021-08-04T07:31:54.803Z</time>
      </trkpt>
      <trkpt lat="46.99235" lon="8.85894">
        <ele>1477</ele>
        <time>2021-08-04T07:31:55.803Z</time>
      </trkpt>
      <trkpt lat="46.99235" lon="8.85894">
        <ele>1477</ele>
        <time>2021-08-04T07:31:56.803Z</time>
      </trkpt>
      <trkpt lat="46.99234" lon="8.85891">
        <ele>1478</ele>
        <time>2021-08-04T07:31:57.804Z</time>
      </trkpt>
      <trkpt lat="46.99234" lon="8.8589">
        <ele>1478</ele>
        <time>2021-08-04T07:31:58.804Z</time>
      </trkpt>
      <trkpt lat="46.99234" lon="8.85889">
        <ele>1478</ele>
        <time>2021-08-04T07:31:59.804Z</time>
      </trkpt>
      <trkpt lat="46.99233" lon="8.85888">
        <ele>1478</ele>
        <time>2021-08-04T07:32:00.804Z</time>
      </trkpt>
      <trkpt lat="46.99233" lon="8.85887">
        <ele>1478</ele>
        <time>2021-08-04T07:32:01.804Z</time>
      </trkpt>
      <trkpt lat="46.99233" lon="8.85886">
        <ele>1478</ele>
        <time>2021-08-04T07:32:02.804Z</time>
      </trkpt>
      <trkpt lat="46.99233" lon="8.85885">
        <ele>1478</ele>
        <time>2021-08-04T07:32:03.804Z</time>
      </trkpt>
      <trkpt lat="46.99233" lon="8.85884">
        <ele>1478</ele>
        <time>2021-08-04T07:32:04.804Z</time>
      </trkpt>
      <trkpt lat="46.99232" lon="8.85883">
        <ele>1478</ele>
        <time>2021-08-04T07:32:05.804Z</time>
      </trkpt>
      <trkpt lat="46.99231" lon="8.85881">
        <ele>1478</ele>
        <time>2021-08-04T07:32:06.803Z</time>
      </trkpt>
      <trkpt lat="46.99231" lon="8.85881">
        <ele>1478</ele>
        <time>2021-08-04T07:32:07.803Z</time>
      </trkpt>
      <trkpt lat="46.9923" lon="8.8588">
        <ele>1478</ele>
        <time>2021-08-04T07:32:08.803Z</time>
      </trkpt>
      <trkpt lat="46.99229" lon="8.85879">
        <ele>1478</ele>
        <time>2021-08-04T07:32:09.803Z</time>
      </trkpt>
      <trkpt lat="46.99228" lon="8.85878">
        <ele>1478</ele>
        <time>2021-08-04T07:32:10.804Z</time>
      </trkpt>
      <trkpt lat="46.99228" lon="8.85877">
        <ele>1478</ele>
        <time>2021-08-04T07:32:11.803Z</time>
      </trkpt>
      <trkpt lat="46.99227" lon="8.85876">
        <ele>1478</ele>
        <time>2021-08-04T07:32:12.804Z</time>
      </trkpt>
      <trkpt lat="46.99227" lon="8.85875">
        <ele>1478</ele>
        <time>2021-08-04T07:32:13.804Z</time>
      </trkpt>
      <trkpt lat="46.99227" lon="8.85874">
        <ele>1478</ele>
        <time>2021-08-04T07:32:14.804Z</time>
      </trkpt>
      <trkpt lat="46.99226" lon="8.85873">
        <ele>1478</ele>
        <time>2021-08-04T07:32:15.804Z</time>
      </trkpt>
      <trkpt lat="46.99226" lon="8.85871">
        <ele>1479</ele>
        <time>2021-08-04T07:32:16.803Z</time>
      </trkpt>
      <trkpt lat="46.99225" lon="8.8587">
        <ele>1479</ele>
        <time>2021-08-04T07:32:17.803Z</time>
      </trkpt>
      <trkpt lat="46.99224" lon="8.85869">
        <ele>1480</ele>
        <time>2021-08-04T07:32:18.803Z</time>
      </trkpt>
      <trkpt lat="46.99223" lon="8.85868">
        <ele>1480</ele>
        <time>2021-08-04T07:32:19.803Z</time>
      </trkpt>
      <trkpt lat="46.99223" lon="8.85867">
        <ele>1480</ele>
        <time>2021-08-04T07:32:20.803Z</time>
      </trkpt>
      <trkpt lat="46.99222" lon="8.85867">
        <ele>1480</ele>
        <time>2021-08-04T07:32:21.804Z</time>
      </trkpt>
      <trkpt lat="46.99222" lon="8.85866">
        <ele>1481</ele>
        <time>2021-08-04T07:32:22.804Z</time>
      </trkpt>
      <trkpt lat="46.99222" lon="8.85865">
        <ele>1481</ele>
        <time>2021-08-04T07:32:23.804Z</time>
      </trkpt>
      <trkpt lat="46.99221" lon="8.85864">
        <ele>1481</ele>
        <time>2021-08-04T07:32:24.803Z</time>
      </trkpt>
      <trkpt lat="46.9922" lon="8.85863">
        <ele>1482</ele>
        <time>2021-08-04T07:32:25.803Z</time>
      </trkpt>
      <trkpt lat="46.9922" lon="8.85862">
        <ele>1482</ele>
        <time>2021-08-04T07:32:26.803Z</time>
      </trkpt>
      <trkpt lat="46.99219" lon="8.85861">
        <ele>1483</ele>
        <time>2021-08-04T07:32:27.804Z</time>
      </trkpt>
      <trkpt lat="46.99219" lon="8.8586">
        <ele>1483</ele>
        <time>2021-08-04T07:32:28.804Z</time>
      </trkpt>
      <trkpt lat="46.99219" lon="8.85859">
        <ele>1483</ele>
        <time>2021-08-04T07:32:29.804Z</time>
      </trkpt>
      <trkpt lat="46.99218" lon="8.85858">
        <ele>1483</ele>
        <time>2021-08-04T07:32:30.803Z</time>
      </trkpt>
      <trkpt lat="46.99218" lon="8.85857">
        <ele>1483</ele>
        <time>2021-08-04T07:32:31.804Z</time>
      </trkpt>
      <trkpt lat="46.99217" lon="8.85857">
        <ele>1482</ele>
        <time>2021-08-04T07:32:32.804Z</time>
      </trkpt>
      <trkpt lat="46.99217" lon="8.85857">
        <ele>1482</ele>
        <time>2021-08-04T07:32:33.804Z</time>
      </trkpt>
      <trkpt lat="46.99216" lon="8.85855">
        <ele>1480</ele>
        <time>2021-08-04T07:32:34.805Z</time>
      </trkpt>
      <trkpt lat="46.99215" lon="8.85854">
        <ele>1480</ele>
        <time>2021-08-04T07:32:35.804Z</time>
      </trkpt>
      <trkpt lat="46.99215" lon="8.85852">
        <ele>1479</ele>
        <time>2021-08-04T07:32:36.804Z</time>
      </trkpt>
      <trkpt lat="46.99214" lon="8.85852">
        <ele>1479</ele>
        <time>2021-08-04T07:32:37.805Z</time>
      </trkpt>
      <trkpt lat="46.99213" lon="8.8585">
        <ele>1479</ele>
        <time>2021-08-04T07:32:38.805Z</time>
      </trkpt>
      <trkpt lat="46.99212" lon="8.85849">
        <ele>1479</ele>
        <time>2021-08-04T07:32:39.805Z</time>
      </trkpt>
      <trkpt lat="46.99212" lon="8.85847">
        <ele>1479</ele>
        <time>2021-08-04T07:32:40.804Z</time>
      </trkpt>
      <trkpt lat="46.99211" lon="8.85846">
        <ele>1479</ele>
        <time>2021-08-04T07:32:41.805Z</time>
      </trkpt>
      <trkpt lat="46.9921" lon="8.85845">
        <ele>1480</ele>
        <time>2021-08-04T07:32:42.804Z</time>
      </trkpt>
      <trkpt lat="46.99209" lon="8.85843">
        <ele>1480</ele>
        <time>2021-08-04T07:32:43.805Z</time>
      </trkpt>
      <trkpt lat="46.99208" lon="8.85842">
        <ele>1480</ele>
        <time>2021-08-04T07:32:44.804Z</time>
      </trkpt>
      <trkpt lat="46.99208" lon="8.85841">
        <ele>1480</ele>
        <time>2021-08-04T07:32:45.804Z</time>
      </trkpt>
      <trkpt lat="46.99206" lon="8.85839">
        <ele>1481</ele>
        <time>2021-08-04T07:32:46.805Z</time>
      </trkpt>
      <trkpt lat="46.99205" lon="8.85838">
        <ele>1481</ele>
        <time>2021-08-04T07:32:47.804Z</time>
      </trkpt>
      <trkpt lat="46.99203" lon="8.85837">
        <ele>1481</ele>
        <time>2021-08-04T07:32:48.804Z</time>
      </trkpt>
      <trkpt lat="46.99202" lon="8.85836">
        <ele>1481</ele>
        <time>2021-08-04T07:32:49.805Z</time>
      </trkpt>
      <trkpt lat="46.99201" lon="8.85835">
        <ele>1481</ele>
        <time>2021-08-04T07:32:50.805Z</time>
      </trkpt>
      <trkpt lat="46.992" lon="8.85834">
        <ele>1481</ele>
        <time>2021-08-04T07:32:51.805Z</time>
      </trkpt>
      <trkpt lat="46.99199" lon="8.85833">
        <ele>1480</ele>
        <time>2021-08-04T07:32:52.804Z</time>
      </trkpt>
      <trkpt lat="46.99198" lon="8.85832">
        <ele>1480</ele>
        <time>2021-08-04T07:32:53.805Z</time>
      </trkpt>
      <trkpt lat="46.99197" lon="8.85831">
        <ele>1480</ele>
        <time>2021-08-04T07:32:54.805Z</time>
      </trkpt>
      <trkpt lat="46.99196" lon="8.85829">
        <ele>1480</ele>
        <time>2021-08-04T07:32:55.804Z</time>
      </trkpt>
      <trkpt lat="46.99196" lon="8.85828">
        <ele>1480</ele>
        <time>2021-08-04T07:32:56.805Z</time>
      </trkpt>
      <trkpt lat="46.99195" lon="8.85826">
        <ele>1480</ele>
        <time>2021-08-04T07:32:57.805Z</time>
      </trkpt>
      <trkpt lat="46.99194" lon="8.85825">
        <ele>1480</ele>
        <time>2021-08-04T07:32:58.804Z</time>
      </trkpt>
      <trkpt lat="46.99194" lon="8.85823">
        <ele>1481</ele>
        <time>2021-08-04T07:32:59.804Z</time>
      </trkpt>
      <trkpt lat="46.99194" lon="8.85823">
        <ele>1480</ele>
        <time>2021-08-04T07:33:00.805Z</time>
      </trkpt>
      <trkpt lat="46.99194" lon="8.85822">
        <ele>1480</ele>
        <time>2021-08-04T07:33:01.804Z</time>
      </trkpt>
      <trkpt lat="46.99194" lon="8.8582">
        <ele>1480</ele>
        <time>2021-08-04T07:33:02.805Z</time>
      </trkpt>
      <trkpt lat="46.99194" lon="8.85818">
        <ele>1479</ele>
        <time>2021-08-04T07:33:03.804Z</time>
      </trkpt>
      <trkpt lat="46.99193" lon="8.85817">
        <ele>1479</ele>
        <time>2021-08-04T07:33:04.805Z</time>
      </trkpt>
      <trkpt lat="46.99193" lon="8.85815">
        <ele>1480</ele>
        <time>2021-08-04T07:33:05.805Z</time>
      </trkpt>
      <trkpt lat="46.99193" lon="8.85815">
        <ele>1480</ele>
        <time>2021-08-04T07:33:06.805Z</time>
      </trkpt>
      <trkpt lat="46.99193" lon="8.85814">
        <ele>1480</ele>
        <time>2021-08-04T07:33:07.805Z</time>
      </trkpt>
      <trkpt lat="46.99192" lon="8.85812">
        <ele>1480</ele>
        <time>2021-08-04T07:33:08.805Z</time>
      </trkpt>
      <trkpt lat="46.99192" lon="8.85811">
        <ele>1480</ele>
        <time>2021-08-04T07:33:09.804Z</time>
      </trkpt>
      <trkpt lat="46.99192" lon="8.85809">
        <ele>1480</ele>
        <time>2021-08-04T07:33:10.805Z</time>
      </trkpt>
      <trkpt lat="46.99193" lon="8.85808">
        <ele>1480</ele>
        <time>2021-08-04T07:33:11.805Z</time>
      </trkpt>
      <trkpt lat="46.99192" lon="8.85807">
        <ele>1480</ele>
        <time>2021-08-04T07:33:12.804Z</time>
      </trkpt>
      <trkpt lat="46.99192" lon="8.85805">
        <ele>1480</ele>
        <time>2021-08-04T07:33:13.804Z</time>
      </trkpt>
      <trkpt lat="46.99191" lon="8.85803">
        <ele>1481</ele>
        <time>2021-08-04T07:33:14.804Z</time>
      </trkpt>
      <trkpt lat="46.9919" lon="8.85801">
        <ele>1481</ele>
        <time>2021-08-04T07:33:15.805Z</time>
      </trkpt>
      <trkpt lat="46.9919" lon="8.858">
        <ele>1481</ele>
        <time>2021-08-04T07:33:16.804Z</time>
      </trkpt>
      <trkpt lat="46.99189" lon="8.85798">
        <ele>1482</ele>
        <time>2021-08-04T07:33:17.805Z</time>
      </trkpt>
      <trkpt lat="46.99189" lon="8.85797">
        <ele>1482</ele>
        <time>2021-08-04T07:33:18.804Z</time>
      </trkpt>
      <trkpt lat="46.99189" lon="8.85795">
        <ele>1482</ele>
        <time>2021-08-04T07:33:19.805Z</time>
      </trkpt>
      <trkpt lat="46.99189" lon="8.85794">
        <ele>1482</ele>
        <time>2021-08-04T07:33:20.805Z</time>
      </trkpt>
      <trkpt lat="46.99189" lon="8.85792">
        <ele>1482</ele>
        <time>2021-08-04T07:33:21.805Z</time>
      </trkpt>
      <trkpt lat="46.99188" lon="8.8579">
        <ele>1483</ele>
        <time>2021-08-04T07:33:22.804Z</time>
      </trkpt>
      <trkpt lat="46.99188" lon="8.85789">
        <ele>1483</ele>
        <time>2021-08-04T07:33:23.804Z</time>
      </trkpt>
      <trkpt lat="46.99188" lon="8.85788">
        <ele>1483</ele>
        <time>2021-08-04T07:33:24.804Z</time>
      </trkpt>
      <trkpt lat="46.99188" lon="8.85786">
        <ele>1483</ele>
        <time>2021-08-04T07:33:25.805Z</time>
      </trkpt>
      <trkpt lat="46.99188" lon="8.85784">
        <ele>1483</ele>
        <time>2021-08-04T07:33:26.805Z</time>
      </trkpt>
      <trkpt lat="46.99188" lon="8.85783">
        <ele>1483</ele>
        <time>2021-08-04T07:33:27.804Z</time>
      </trkpt>
      <trkpt lat="46.99188" lon="8.85781">
        <ele>1483</ele>
        <time>2021-08-04T07:33:28.804Z</time>
      </trkpt>
      <trkpt lat="46.99187" lon="8.85779">
        <ele>1483</ele>
        <time>2021-08-04T07:33:29.805Z</time>
      </trkpt>
      <trkpt lat="46.99187" lon="8.85778">
        <ele>1483</ele>
        <time>2021-08-04T07:33:30.804Z</time>
      </trkpt>
      <trkpt lat="46.99187" lon="8.85776">
        <ele>1483</ele>
        <time>2021-08-04T07:33:31.805Z</time>
      </trkpt>
      <trkpt lat="46.99188" lon="8.85775">
        <ele>1483</ele>
        <time>2021-08-04T07:33:32.805Z</time>
      </trkpt>
      <trkpt lat="46.99188" lon="8.85773">
        <ele>1483</ele>
        <time>2021-08-04T07:33:33.804Z</time>
      </trkpt>
      <trkpt lat="46.99188" lon="8.85772">
        <ele>1483</ele>
        <time>2021-08-04T07:33:34.805Z</time>
      </trkpt>
      <trkpt lat="46.99188" lon="8.8577">
        <ele>1482</ele>
        <time>2021-08-04T07:33:35.805Z</time>
      </trkpt>
      <trkpt lat="46.99188" lon="8.85768">
        <ele>1482</ele>
        <time>2021-08-04T07:33:36.805Z</time>
      </trkpt>
      <trkpt lat="46.99188" lon="8.85766">
        <ele>1482</ele>
        <time>2021-08-04T07:33:37.805Z</time>
      </trkpt>
      <trkpt lat="46.99189" lon="8.85764">
        <ele>1482</ele>
        <time>2021-08-04T07:33:38.804Z</time>
      </trkpt>
      <trkpt lat="46.99189" lon="8.85762">
        <ele>1482</ele>
        <time>2021-08-04T07:33:39.805Z</time>
      </trkpt>
      <trkpt lat="46.99189" lon="8.85761">
        <ele>1482</ele>
        <time>2021-08-04T07:33:40.805Z</time>
      </trkpt>
      <trkpt lat="46.99189" lon="8.8576">
        <ele>1482</ele>
        <time>2021-08-04T07:33:41.804Z</time>
      </trkpt>
      <trkpt lat="46.99189" lon="8.85758">
        <ele>1482</ele>
        <time>2021-08-04T07:33:42.804Z</time>
      </trkpt>
      <trkpt lat="46.99189" lon="8.85756">
        <ele>1482</ele>
        <time>2021-08-04T07:33:43.805Z</time>
      </trkpt>
      <trkpt lat="46.9919" lon="8.85754">
        <ele>1482</ele>
        <time>2021-08-04T07:33:44.804Z</time>
      </trkpt>
      <trkpt lat="46.9919" lon="8.85753">
        <ele>1482</ele>
        <time>2021-08-04T07:33:45.804Z</time>
      </trkpt>
      <trkpt lat="46.9919" lon="8.85752">
        <ele>1481</ele>
        <time>2021-08-04T07:33:46.805Z</time>
      </trkpt>
      <trkpt lat="46.9919" lon="8.8575">
        <ele>1481</ele>
        <time>2021-08-04T07:33:47.805Z</time>
      </trkpt>
      <trkpt lat="46.9919" lon="8.85748">
        <ele>1481</ele>
        <time>2021-08-04T07:33:48.805Z</time>
      </trkpt>
      <trkpt lat="46.9919" lon="8.85746">
        <ele>1481</ele>
        <time>2021-08-04T07:33:49.805Z</time>
      </trkpt>
      <trkpt lat="46.99189" lon="8.85745">
        <ele>1481</ele>
        <time>2021-08-04T07:33:50.804Z</time>
      </trkpt>
      <trkpt lat="46.99189" lon="8.85744">
        <ele>1481</ele>
        <time>2021-08-04T07:33:51.805Z</time>
      </trkpt>
      <trkpt lat="46.99189" lon="8.85743">
        <ele>1481</ele>
        <time>2021-08-04T07:33:52.805Z</time>
      </trkpt>
      <trkpt lat="46.99188" lon="8.85741">
        <ele>1481</ele>
        <time>2021-08-04T07:33:53.804Z</time>
      </trkpt>
      <trkpt lat="46.99188" lon="8.85739">
        <ele>1481</ele>
        <time>2021-08-04T07:33:54.804Z</time>
      </trkpt>
      <trkpt lat="46.99187" lon="8.85737">
        <ele>1481</ele>
        <time>2021-08-04T07:33:55.805Z</time>
      </trkpt>
      <trkpt lat="46.99187" lon="8.85736">
        <ele>1481</ele>
        <time>2021-08-04T07:33:56.805Z</time>
      </trkpt>
      <trkpt lat="46.99186" lon="8.85735">
        <ele>1481</ele>
        <time>2021-08-04T07:33:57.805Z</time>
      </trkpt>
      <trkpt lat="46.99186" lon="8.85732">
        <ele>1480</ele>
        <time>2021-08-04T07:33:58.805Z</time>
      </trkpt>
      <trkpt lat="46.99184" lon="8.85731">
        <ele>1480</ele>
        <time>2021-08-04T07:33:59.805Z</time>
      </trkpt>
      <trkpt lat="46.99184" lon="8.85728">
        <ele>1480</ele>
        <time>2021-08-04T07:34:00.804Z</time>
      </trkpt>
      <trkpt lat="46.99183" lon="8.85727">
        <ele>1479</ele>
        <time>2021-08-04T07:34:01.804Z</time>
      </trkpt>
      <trkpt lat="46.99182" lon="8.85725">
        <ele>1479</ele>
        <time>2021-08-04T07:34:02.805Z</time>
      </trkpt>
      <trkpt lat="46.99181" lon="8.85723">
        <ele>1478</ele>
        <time>2021-08-04T07:34:03.804Z</time>
      </trkpt>
      <trkpt lat="46.99181" lon="8.85721">
        <ele>1478</ele>
        <time>2021-08-04T07:34:04.805Z</time>
      </trkpt>
      <trkpt lat="46.9918" lon="8.8572">
        <ele>1478</ele>
        <time>2021-08-04T07:34:05.805Z</time>
      </trkpt>
      <trkpt lat="46.9918" lon="8.85718">
        <ele>1478</ele>
        <time>2021-08-04T07:34:06.804Z</time>
      </trkpt>
      <trkpt lat="46.9918" lon="8.85717">
        <ele>1477</ele>
        <time>2021-08-04T07:34:07.804Z</time>
      </trkpt>
      <trkpt lat="46.9918" lon="8.85715">
        <ele>1477</ele>
        <time>2021-08-04T07:34:08.804Z</time>
      </trkpt>
      <trkpt lat="46.9918" lon="8.85714">
        <ele>1477</ele>
        <time>2021-08-04T07:34:09.805Z</time>
      </trkpt>
      <trkpt lat="46.99181" lon="8.85712">
        <ele>1476</ele>
        <time>2021-08-04T07:34:10.805Z</time>
      </trkpt>
      <trkpt lat="46.99181" lon="8.85711">
        <ele>1476</ele>
        <time>2021-08-04T07:34:11.805Z</time>
      </trkpt>
      <trkpt lat="46.99181" lon="8.85709">
        <ele>1477</ele>
        <time>2021-08-04T07:34:12.804Z</time>
      </trkpt>
      <trkpt lat="46.99181" lon="8.85707">
        <ele>1477</ele>
        <time>2021-08-04T07:34:13.805Z</time>
      </trkpt>
      <trkpt lat="46.99181" lon="8.85705">
        <ele>1477</ele>
        <time>2021-08-04T07:34:14.805Z</time>
      </trkpt>
      <trkpt lat="46.99181" lon="8.85703">
        <ele>1478</ele>
        <time>2021-08-04T07:34:15.804Z</time>
      </trkpt>
      <trkpt lat="46.99181" lon="8.85701">
        <ele>1478</ele>
        <time>2021-08-04T07:34:16.805Z</time>
      </trkpt>
      <trkpt lat="46.9918" lon="8.857">
        <ele>1478</ele>
        <time>2021-08-04T07:34:17.805Z</time>
      </trkpt>
      <trkpt lat="46.99181" lon="8.85698">
        <ele>1478</ele>
        <time>2021-08-04T07:34:18.805Z</time>
      </trkpt>
      <trkpt lat="46.9918" lon="8.85696">
        <ele>1478</ele>
        <time>2021-08-04T07:34:19.804Z</time>
      </trkpt>
      <trkpt lat="46.9918" lon="8.85694">
        <ele>1478</ele>
        <time>2021-08-04T07:34:20.804Z</time>
      </trkpt>
      <trkpt lat="46.99181" lon="8.85692">
        <ele>1478</ele>
        <time>2021-08-04T07:34:21.804Z</time>
      </trkpt>
      <trkpt lat="46.9918" lon="8.85691">
        <ele>1478</ele>
        <time>2021-08-04T07:34:22.805Z</time>
      </trkpt>
      <trkpt lat="46.9918" lon="8.85689">
        <ele>1478</ele>
        <time>2021-08-04T07:34:23.804Z</time>
      </trkpt>
      <trkpt lat="46.9918" lon="8.85687">
        <ele>1478</ele>
        <time>2021-08-04T07:34:24.805Z</time>
      </trkpt>
      <trkpt lat="46.9918" lon="8.85685">
        <ele>1478</ele>
        <time>2021-08-04T07:34:25.804Z</time>
      </trkpt>
      <trkpt lat="46.99179" lon="8.85683">
        <ele>1478</ele>
        <time>2021-08-04T07:34:26.805Z</time>
      </trkpt>
      <trkpt lat="46.99179" lon="8.85682">
        <ele>1478</ele>
        <time>2021-08-04T07:34:27.805Z</time>
      </trkpt>
      <trkpt lat="46.99179" lon="8.8568">
        <ele>1477</ele>
        <time>2021-08-04T07:34:28.805Z</time>
      </trkpt>
      <trkpt lat="46.99178" lon="8.85679">
        <ele>1477</ele>
        <time>2021-08-04T07:34:29.805Z</time>
      </trkpt>
      <trkpt lat="46.99177" lon="8.85678">
        <ele>1477</ele>
        <time>2021-08-04T07:34:30.805Z</time>
      </trkpt>
      <trkpt lat="46.99176" lon="8.85676">
        <ele>1477</ele>
        <time>2021-08-04T07:34:31.805Z</time>
      </trkpt>
      <trkpt lat="46.99176" lon="8.85674">
        <ele>1477</ele>
        <time>2021-08-04T07:34:32.804Z</time>
      </trkpt>
      <trkpt lat="46.99175" lon="8.85672">
        <ele>1476</ele>
        <time>2021-08-04T07:34:33.805Z</time>
      </trkpt>
      <trkpt lat="46.99175" lon="8.85671">
        <ele>1476</ele>
        <time>2021-08-04T07:34:34.805Z</time>
      </trkpt>
      <trkpt lat="46.99174" lon="8.8567">
        <ele>1476</ele>
        <time>2021-08-04T07:34:35.805Z</time>
      </trkpt>
      <trkpt lat="46.99174" lon="8.85668">
        <ele>1476</ele>
        <time>2021-08-04T07:34:36.804Z</time>
      </trkpt>
      <trkpt lat="46.99173" lon="8.85667">
        <ele>1476</ele>
        <time>2021-08-04T07:34:37.805Z</time>
      </trkpt>
      <trkpt lat="46.99172" lon="8.85665">
        <ele>1476</ele>
        <time>2021-08-04T07:34:38.804Z</time>
      </trkpt>
      <trkpt lat="46.99172" lon="8.85664">
        <ele>1475</ele>
        <time>2021-08-04T07:34:39.805Z</time>
      </trkpt>
      <trkpt lat="46.99171" lon="8.85663">
        <ele>1475</ele>
        <time>2021-08-04T07:34:40.805Z</time>
      </trkpt>
      <trkpt lat="46.9917" lon="8.8566">
        <ele>1474</ele>
        <time>2021-08-04T07:34:41.805Z</time>
      </trkpt>
      <trkpt lat="46.99169" lon="8.85659">
        <ele>1474</ele>
        <time>2021-08-04T07:34:42.804Z</time>
      </trkpt>
      <trkpt lat="46.99168" lon="8.85657">
        <ele>1474</ele>
        <time>2021-08-04T07:34:43.805Z</time>
      </trkpt>
      <trkpt lat="46.99168" lon="8.85655">
        <ele>1474</ele>
        <time>2021-08-04T07:34:44.804Z</time>
      </trkpt>
      <trkpt lat="46.99167" lon="8.85653">
        <ele>1474</ele>
        <time>2021-08-04T07:34:45.805Z</time>
      </trkpt>
      <trkpt lat="46.99168" lon="8.85652">
        <ele>1474</ele>
        <time>2021-08-04T07:34:46.805Z</time>
      </trkpt>
      <trkpt lat="46.99168" lon="8.8565">
        <ele>1474</ele>
        <time>2021-08-04T07:34:47.805Z</time>
      </trkpt>
      <trkpt lat="46.99168" lon="8.85648">
        <ele>1474</ele>
        <time>2021-08-04T07:34:48.805Z</time>
      </trkpt>
      <trkpt lat="46.99169" lon="8.85646">
        <ele>1474</ele>
        <time>2021-08-04T07:34:49.804Z</time>
      </trkpt>
      <trkpt lat="46.99169" lon="8.85645">
        <ele>1474</ele>
        <time>2021-08-04T07:34:50.805Z</time>
      </trkpt>
      <trkpt lat="46.99169" lon="8.85643">
        <ele>1474</ele>
        <time>2021-08-04T07:34:51.805Z</time>
      </trkpt>
      <trkpt lat="46.99168" lon="8.85641">
        <ele>1474</ele>
        <time>2021-08-04T07:34:52.805Z</time>
      </trkpt>
      <trkpt lat="46.99168" lon="8.85639">
        <ele>1474</ele>
        <time>2021-08-04T07:34:53.804Z</time>
      </trkpt>
      <trkpt lat="46.99167" lon="8.85637">
        <ele>1474</ele>
        <time>2021-08-04T07:34:54.804Z</time>
      </trkpt>
      <trkpt lat="46.99166" lon="8.85635">
        <ele>1475</ele>
        <time>2021-08-04T07:34:55.804Z</time>
      </trkpt>
      <trkpt lat="46.99165" lon="8.85633">
        <ele>1475</ele>
        <time>2021-08-04T07:34:56.804Z</time>
      </trkpt>
      <trkpt lat="46.99165" lon="8.85631">
        <ele>1475</ele>
        <time>2021-08-04T07:34:57.805Z</time>
      </trkpt>
      <trkpt lat="46.99164" lon="8.85629">
        <ele>1475</ele>
        <time>2021-08-04T07:34:58.805Z</time>
      </trkpt>
      <trkpt lat="46.99164" lon="8.85628">
        <ele>1475</ele>
        <time>2021-08-04T07:34:59.805Z</time>
      </trkpt>
      <trkpt lat="46.99164" lon="8.85626">
        <ele>1475</ele>
        <time>2021-08-04T07:35:00.805Z</time>
      </trkpt>
      <trkpt lat="46.99164" lon="8.85624">
        <ele>1475</ele>
        <time>2021-08-04T07:35:01.805Z</time>
      </trkpt>
      <trkpt lat="46.99163" lon="8.85623">
        <ele>1474</ele>
        <time>2021-08-04T07:35:02.804Z</time>
      </trkpt>
      <trkpt lat="46.99163" lon="8.85621">
        <ele>1474</ele>
        <time>2021-08-04T07:35:03.804Z</time>
      </trkpt>
      <trkpt lat="46.99163" lon="8.8562">
        <ele>1474</ele>
        <time>2021-08-04T07:35:04.804Z</time>
      </trkpt>
      <trkpt lat="46.99163" lon="8.85618">
        <ele>1473</ele>
        <time>2021-08-04T07:35:05.804Z</time>
      </trkpt>
      <trkpt lat="46.99163" lon="8.85616">
        <ele>1473</ele>
        <time>2021-08-04T07:35:06.804Z</time>
      </trkpt>
      <trkpt lat="46.99163" lon="8.85614">
        <ele>1473</ele>
        <time>2021-08-04T07:35:07.804Z</time>
      </trkpt>
      <trkpt lat="46.99163" lon="8.85613">
        <ele>1472</ele>
        <time>2021-08-04T07:35:08.804Z</time>
      </trkpt>
      <trkpt lat="46.99164" lon="8.85612">
        <ele>1472</ele>
        <time>2021-08-04T07:35:09.804Z</time>
      </trkpt>
      <trkpt lat="46.99163" lon="8.8561">
        <ele>1471</ele>
        <time>2021-08-04T07:35:10.804Z</time>
      </trkpt>
      <trkpt lat="46.99163" lon="8.85608">
        <ele>1471</ele>
        <time>2021-08-04T07:35:11.804Z</time>
      </trkpt>
      <trkpt lat="46.99162" lon="8.85607">
        <ele>1470</ele>
        <time>2021-08-04T07:35:12.804Z</time>
      </trkpt>
      <trkpt lat="46.99162" lon="8.85605">
        <ele>1470</ele>
        <time>2021-08-04T07:35:13.804Z</time>
      </trkpt>
      <trkpt lat="46.99161" lon="8.85604">
        <ele>1470</ele>
        <time>2021-08-04T07:35:14.804Z</time>
      </trkpt>
      <trkpt lat="46.9916" lon="8.85602">
        <ele>1470</ele>
        <time>2021-08-04T07:35:15.804Z</time>
      </trkpt>
      <trkpt lat="46.99159" lon="8.85601">
        <ele>1470</ele>
        <time>2021-08-04T07:35:16.804Z</time>
      </trkpt>
      <trkpt lat="46.99158" lon="8.85601">
        <ele>1470</ele>
        <time>2021-08-04T07:35:17.804Z</time>
      </trkpt>
      <trkpt lat="46.99158" lon="8.85599">
        <ele>1470</ele>
        <time>2021-08-04T07:35:18.805Z</time>
      </trkpt>
      <trkpt lat="46.99158" lon="8.85598">
        <ele>1470</ele>
        <time>2021-08-04T07:35:19.804Z</time>
      </trkpt>
      <trkpt lat="46.99156" lon="8.85597">
        <ele>1470</ele>
        <time>2021-08-04T07:35:20.805Z</time>
      </trkpt>
      <trkpt lat="46.99156" lon="8.85596">
        <ele>1469</ele>
        <time>2021-08-04T07:35:21.804Z</time>
      </trkpt>
      <trkpt lat="46.99155" lon="8.85594">
        <ele>1469</ele>
        <time>2021-08-04T07:35:22.804Z</time>
      </trkpt>
      <trkpt lat="46.99154" lon="8.85593">
        <ele>1469</ele>
        <time>2021-08-04T07:35:23.804Z</time>
      </trkpt>
      <trkpt lat="46.99154" lon="8.85592">
        <ele>1470</ele>
        <time>2021-08-04T07:35:24.804Z</time>
      </trkpt>
      <trkpt lat="46.99154" lon="8.8559">
        <ele>1470</ele>
        <time>2021-08-04T07:35:25.804Z</time>
      </trkpt>
      <trkpt lat="46.99153" lon="8.85589">
        <ele>1470</ele>
        <time>2021-08-04T07:35:26.804Z</time>
      </trkpt>
      <trkpt lat="46.99152" lon="8.85587">
        <ele>1470</ele>
        <time>2021-08-04T07:35:27.805Z</time>
      </trkpt>
      <trkpt lat="46.99152" lon="8.85586">
        <ele>1470</ele>
        <time>2021-08-04T07:35:28.805Z</time>
      </trkpt>
      <trkpt lat="46.99152" lon="8.85585">
        <ele>1471</ele>
        <time>2021-08-04T07:35:29.805Z</time>
      </trkpt>
      <trkpt lat="46.99151" lon="8.85584">
        <ele>1471</ele>
        <time>2021-08-04T07:35:30.805Z</time>
      </trkpt>
      <trkpt lat="46.99151" lon="8.85582">
        <ele>1472</ele>
        <time>2021-08-04T07:35:31.805Z</time>
      </trkpt>
      <trkpt lat="46.9915" lon="8.85581">
        <ele>1472</ele>
        <time>2021-08-04T07:35:32.804Z</time>
      </trkpt>
      <trkpt lat="46.9915" lon="8.85579">
        <ele>1472</ele>
        <time>2021-08-04T07:35:33.805Z</time>
      </trkpt>
      <trkpt lat="46.99149" lon="8.85578">
        <ele>1472</ele>
        <time>2021-08-04T07:35:34.804Z</time>
      </trkpt>
      <trkpt lat="46.99149" lon="8.85576">
        <ele>1472</ele>
        <time>2021-08-04T07:35:35.804Z</time>
      </trkpt>
      <trkpt lat="46.99148" lon="8.85574">
        <ele>1472</ele>
        <time>2021-08-04T07:35:36.805Z</time>
      </trkpt>
      <trkpt lat="46.99148" lon="8.85572">
        <ele>1472</ele>
        <time>2021-08-04T07:35:37.804Z</time>
      </trkpt>
      <trkpt lat="46.99147" lon="8.85571">
        <ele>1472</ele>
        <time>2021-08-04T07:35:38.804Z</time>
      </trkpt>
      <trkpt lat="46.99147" lon="8.8557">
        <ele>1471</ele>
        <time>2021-08-04T07:35:39.805Z</time>
      </trkpt>
      <trkpt lat="46.99146" lon="8.85568">
        <ele>1472</ele>
        <time>2021-08-04T07:35:40.804Z</time>
      </trkpt>
      <trkpt lat="46.99146" lon="8.85566">
        <ele>1472</ele>
        <time>2021-08-04T07:35:41.805Z</time>
      </trkpt>
      <trkpt lat="46.99145" lon="8.85564">
        <ele>1473</ele>
        <time>2021-08-04T07:35:42.805Z</time>
      </trkpt>
      <trkpt lat="46.99145" lon="8.85562">
        <ele>1473</ele>
        <time>2021-08-04T07:35:43.804Z</time>
      </trkpt>
      <trkpt lat="46.99144" lon="8.8556">
        <ele>1474</ele>
        <time>2021-08-04T07:35:44.804Z</time>
      </trkpt>
      <trkpt lat="46.99144" lon="8.85557">
        <ele>1474</ele>
        <time>2021-08-04T07:35:45.805Z</time>
      </trkpt>
      <trkpt lat="46.99144" lon="8.85555">
        <ele>1474</ele>
        <time>2021-08-04T07:35:46.805Z</time>
      </trkpt>
      <trkpt lat="46.99144" lon="8.85552">
        <ele>1475</ele>
        <time>2021-08-04T07:35:47.805Z</time>
      </trkpt>
      <trkpt lat="46.99143" lon="8.85551">
        <ele>1475</ele>
        <time>2021-08-04T07:35:48.805Z</time>
      </trkpt>
      <trkpt lat="46.99142" lon="8.85549">
        <ele>1475</ele>
        <time>2021-08-04T07:35:49.804Z</time>
      </trkpt>
      <trkpt lat="46.99142" lon="8.85547">
        <ele>1475</ele>
        <time>2021-08-04T07:35:50.805Z</time>
      </trkpt>
      <trkpt lat="46.99141" lon="8.85546">
        <ele>1475</ele>
        <time>2021-08-04T07:35:51.804Z</time>
      </trkpt>
      <trkpt lat="46.99139" lon="8.85544">
        <ele>1475</ele>
        <time>2021-08-04T07:35:52.805Z</time>
      </trkpt>
      <trkpt lat="46.99138" lon="8.85543">
        <ele>1475</ele>
        <time>2021-08-04T07:35:53.805Z</time>
      </trkpt>
      <trkpt lat="46.99138" lon="8.85541">
        <ele>1474</ele>
        <time>2021-08-04T07:35:54.804Z</time>
      </trkpt>
      <trkpt lat="46.99137" lon="8.8554">
        <ele>1474</ele>
        <time>2021-08-04T07:35:55.804Z</time>
      </trkpt>
      <trkpt lat="46.99137" lon="8.85538">
        <ele>1474</ele>
        <time>2021-08-04T07:35:56.805Z</time>
      </trkpt>
      <trkpt lat="46.99136" lon="8.85537">
        <ele>1474</ele>
        <time>2021-08-04T07:35:57.805Z</time>
      </trkpt>
      <trkpt lat="46.99135" lon="8.85535">
        <ele>1474</ele>
        <time>2021-08-04T07:35:58.805Z</time>
      </trkpt>
      <trkpt lat="46.99134" lon="8.85533">
        <ele>1473</ele>
        <time>2021-08-04T07:35:59.805Z</time>
      </trkpt>
      <trkpt lat="46.99133" lon="8.85532">
        <ele>1473</ele>
        <time>2021-08-04T07:36:00.805Z</time>
      </trkpt>
      <trkpt lat="46.99133" lon="8.8553">
        <ele>1473</ele>
        <time>2021-08-04T07:36:01.805Z</time>
      </trkpt>
      <trkpt lat="46.99133" lon="8.85529">
        <ele>1473</ele>
        <time>2021-08-04T07:36:02.805Z</time>
      </trkpt>
      <trkpt lat="46.99132" lon="8.85527">
        <ele>1473</ele>
        <time>2021-08-04T07:36:03.805Z</time>
      </trkpt>
      <trkpt lat="46.99132" lon="8.85526">
        <ele>1473</ele>
        <time>2021-08-04T07:36:04.804Z</time>
      </trkpt>
      <trkpt lat="46.99131" lon="8.85524">
        <ele>1473</ele>
        <time>2021-08-04T07:36:05.805Z</time>
      </trkpt>
      <trkpt lat="46.9913" lon="8.85522">
        <ele>1473</ele>
        <time>2021-08-04T07:36:06.805Z</time>
      </trkpt>
      <trkpt lat="46.9913" lon="8.85521">
        <ele>1473</ele>
        <time>2021-08-04T07:36:07.805Z</time>
      </trkpt>
      <trkpt lat="46.9913" lon="8.8552">
        <ele>1473</ele>
        <time>2021-08-04T07:36:08.805Z</time>
      </trkpt>
      <trkpt lat="46.9913" lon="8.8552">
        <ele>1473</ele>
        <time>2021-08-04T07:36:09.805Z</time>
      </trkpt>
      <trkpt lat="46.9913" lon="8.85519">
        <ele>1473</ele>
        <time>2021-08-04T07:36:10.804Z</time>
      </trkpt>
      <trkpt lat="46.99129" lon="8.85519">
        <ele>1474</ele>
        <time>2021-08-04T07:36:11.805Z</time>
      </trkpt>
      <trkpt lat="46.99129" lon="8.85519">
        <ele>1474</ele>
        <time>2021-08-04T07:36:12.804Z</time>
      </trkpt>
      <trkpt lat="46.99128" lon="8.85518">
        <ele>1473</ele>
        <time>2021-08-04T07:36:13.804Z</time>
      </trkpt>
      <trkpt lat="46.99128" lon="8.85517">
        <ele>1473</ele>
        <time>2021-08-04T07:36:14.805Z</time>
      </trkpt>
      <trkpt lat="46.99128" lon="8.85516">
        <ele>1472</ele>
        <time>2021-08-04T07:36:15.804Z</time>
      </trkpt>
      <trkpt lat="46.99127" lon="8.85514">
        <ele>1471</ele>
        <time>2021-08-04T07:36:16.805Z</time>
      </trkpt>
      <trkpt lat="46.99126" lon="8.85512">
        <ele>1471</ele>
        <time>2021-08-04T07:36:17.805Z</time>
      </trkpt>
      <trkpt lat="46.99125" lon="8.8551">
        <ele>1471</ele>
        <time>2021-08-04T07:36:18.804Z</time>
      </trkpt>
      <trkpt lat="46.99124" lon="8.85509">
        <ele>1471</ele>
        <time>2021-08-04T07:36:19.805Z</time>
      </trkpt>
      <trkpt lat="46.99123" lon="8.85508">
        <ele>1470</ele>
        <time>2021-08-04T07:36:20.804Z</time>
      </trkpt>
      <trkpt lat="46.99122" lon="8.85507">
        <ele>1470</ele>
        <time>2021-08-04T07:36:21.805Z</time>
      </trkpt>
      <trkpt lat="46.99121" lon="8.85506">
        <ele>1470</ele>
        <time>2021-08-04T07:36:22.804Z</time>
      </trkpt>
      <trkpt lat="46.9912" lon="8.85504">
        <ele>1469</ele>
        <time>2021-08-04T07:36:23.805Z</time>
      </trkpt>
      <trkpt lat="46.9912" lon="8.85503">
        <ele>1469</ele>
        <time>2021-08-04T07:36:24.805Z</time>
      </trkpt>
      <trkpt lat="46.99119" lon="8.85501">
        <ele>1469</ele>
        <time>2021-08-04T07:36:25.805Z</time>
      </trkpt>
      <trkpt lat="46.99118" lon="8.85501">
        <ele>1469</ele>
        <time>2021-08-04T07:36:26.805Z</time>
      </trkpt>
      <trkpt lat="46.99118" lon="8.855">
        <ele>1469</ele>
        <time>2021-08-04T07:36:27.804Z</time>
      </trkpt>
      <trkpt lat="46.99117" lon="8.85499">
        <ele>1468</ele>
        <time>2021-08-04T07:36:28.804Z</time>
      </trkpt>
      <trkpt lat="46.99116" lon="8.85497">
        <ele>1468</ele>
        <time>2021-08-04T07:36:29.805Z</time>
      </trkpt>
      <trkpt lat="46.99115" lon="8.85496">
        <ele>1468</ele>
        <time>2021-08-04T07:36:30.804Z</time>
      </trkpt>
      <trkpt lat="46.99115" lon="8.85495">
        <ele>1468</ele>
        <time>2021-08-04T07:36:31.805Z</time>
      </trkpt>
      <trkpt lat="46.99114" lon="8.85494">
        <ele>1468</ele>
        <time>2021-08-04T07:36:32.805Z</time>
      </trkpt>
      <trkpt lat="46.99113" lon="8.85492">
        <ele>1468</ele>
        <time>2021-08-04T07:36:33.805Z</time>
      </trkpt>
      <trkpt lat="46.99112" lon="8.85491">
        <ele>1468</ele>
        <time>2021-08-04T07:36:34.804Z</time>
      </trkpt>
      <trkpt lat="46.99112" lon="8.8549">
        <ele>1467</ele>
        <time>2021-08-04T07:36:35.805Z</time>
      </trkpt>
      <trkpt lat="46.99112" lon="8.85489">
        <ele>1467</ele>
        <time>2021-08-04T07:36:36.805Z</time>
      </trkpt>
      <trkpt lat="46.99112" lon="8.85488">
        <ele>1467</ele>
        <time>2021-08-04T07:36:37.805Z</time>
      </trkpt>
      <trkpt lat="46.99111" lon="8.85486">
        <ele>1467</ele>
        <time>2021-08-04T07:36:38.805Z</time>
      </trkpt>
      <trkpt lat="46.99111" lon="8.85484">
        <ele>1468</ele>
        <time>2021-08-04T07:36:39.804Z</time>
      </trkpt>
      <trkpt lat="46.99111" lon="8.85482">
        <ele>1468</ele>
        <time>2021-08-04T07:36:40.805Z</time>
      </trkpt>
      <trkpt lat="46.9911" lon="8.85481">
        <ele>1468</ele>
        <time>2021-08-04T07:36:41.804Z</time>
      </trkpt>
      <trkpt lat="46.9911" lon="8.85479">
        <ele>1468</ele>
        <time>2021-08-04T07:36:42.804Z</time>
      </trkpt>
      <trkpt lat="46.99109" lon="8.85477">
        <ele>1468</ele>
        <time>2021-08-04T07:36:43.805Z</time>
      </trkpt>
      <trkpt lat="46.99109" lon="8.85475">
        <ele>1468</ele>
        <time>2021-08-04T07:36:44.805Z</time>
      </trkpt>
      <trkpt lat="46.99108" lon="8.85474">
        <ele>1468</ele>
        <time>2021-08-04T07:36:45.805Z</time>
      </trkpt>
      <trkpt lat="46.99108" lon="8.85472">
        <ele>1468</ele>
        <time>2021-08-04T07:36:46.804Z</time>
      </trkpt>
      <trkpt lat="46.99108" lon="8.85471">
        <ele>1468</ele>
        <time>2021-08-04T07:36:47.804Z</time>
      </trkpt>
      <trkpt lat="46.99107" lon="8.85469">
        <ele>1468</ele>
        <time>2021-08-04T07:36:48.805Z</time>
      </trkpt>
      <trkpt lat="46.99106" lon="8.85468">
        <ele>1467</ele>
        <time>2021-08-04T07:36:49.805Z</time>
      </trkpt>
      <trkpt lat="46.99106" lon="8.85466">
        <ele>1467</ele>
        <time>2021-08-04T07:36:50.804Z</time>
      </trkpt>
      <trkpt lat="46.99106" lon="8.85465">
        <ele>1467</ele>
        <time>2021-08-04T07:36:51.805Z</time>
      </trkpt>
      <trkpt lat="46.99105" lon="8.85464">
        <ele>1467</ele>
        <time>2021-08-04T07:36:52.805Z</time>
      </trkpt>
      <trkpt lat="46.99105" lon="8.85462">
        <ele>1466</ele>
        <time>2021-08-04T07:36:53.804Z</time>
      </trkpt>
      <trkpt lat="46.99104" lon="8.85461">
        <ele>1466</ele>
        <time>2021-08-04T07:36:54.804Z</time>
      </trkpt>
      <trkpt lat="46.99103" lon="8.85459">
        <ele>1466</ele>
        <time>2021-08-04T07:36:55.805Z</time>
      </trkpt>
      <trkpt lat="46.99103" lon="8.85458">
        <ele>1466</ele>
        <time>2021-08-04T07:36:56.805Z</time>
      </trkpt>
      <trkpt lat="46.99102" lon="8.85456">
        <ele>1466</ele>
        <time>2021-08-04T07:36:57.805Z</time>
      </trkpt>
      <trkpt lat="46.99101" lon="8.85455">
        <ele>1466</ele>
        <time>2021-08-04T07:36:58.805Z</time>
      </trkpt>
      <trkpt lat="46.991" lon="8.85453">
        <ele>1466</ele>
        <time>2021-08-04T07:36:59.804Z</time>
      </trkpt>
      <trkpt lat="46.99099" lon="8.85452">
        <ele>1466</ele>
        <time>2021-08-04T07:37:00.804Z</time>
      </trkpt>
      <trkpt lat="46.99099" lon="8.8545">
        <ele>1465</ele>
        <time>2021-08-04T07:37:01.805Z</time>
      </trkpt>
      <trkpt lat="46.99098" lon="8.85449">
        <ele>1465</ele>
        <time>2021-08-04T07:37:02.805Z</time>
      </trkpt>
      <trkpt lat="46.99098" lon="8.85447">
        <ele>1466</ele>
        <time>2021-08-04T07:37:03.804Z</time>
      </trkpt>
      <trkpt lat="46.99099" lon="8.85444">
        <ele>1466</ele>
        <time>2021-08-04T07:37:04.805Z</time>
      </trkpt>
      <trkpt lat="46.99099" lon="8.85441">
        <ele>1466</ele>
        <time>2021-08-04T07:37:05.805Z</time>
      </trkpt>
      <trkpt lat="46.99099" lon="8.8544">
        <ele>1466</ele>
        <time>2021-08-04T07:37:06.804Z</time>
      </trkpt>
      <trkpt lat="46.99098" lon="8.85438">
        <ele>1466</ele>
        <time>2021-08-04T07:37:07.804Z</time>
      </trkpt>
      <trkpt lat="46.99098" lon="8.85437">
        <ele>1465</ele>
        <time>2021-08-04T07:37:08.805Z</time>
      </trkpt>
      <trkpt lat="46.99099" lon="8.85436">
        <ele>1465</ele>
        <time>2021-08-04T07:37:09.804Z</time>
      </trkpt>
      <trkpt lat="46.991" lon="8.85435">
        <ele>1464</ele>
        <time>2021-08-04T07:37:10.805Z</time>
      </trkpt>
      <trkpt lat="46.991" lon="8.85433">
        <ele>1463</ele>
        <time>2021-08-04T07:37:11.805Z</time>
      </trkpt>
      <trkpt lat="46.99101" lon="8.85432">
        <ele>1463</ele>
        <time>2021-08-04T07:37:12.805Z</time>
      </trkpt>
      <trkpt lat="46.99101" lon="8.85431">
        <ele>1462</ele>
        <time>2021-08-04T07:37:13.804Z</time>
      </trkpt>
      <trkpt lat="46.99101" lon="8.85429">
        <ele>1462</ele>
        <time>2021-08-04T07:37:14.804Z</time>
      </trkpt>
      <trkpt lat="46.99102" lon="8.85428">
        <ele>1461</ele>
        <time>2021-08-04T07:37:15.805Z</time>
      </trkpt>
      <trkpt lat="46.99102" lon="8.85427">
        <ele>1460</ele>
        <time>2021-08-04T07:37:16.804Z</time>
      </trkpt>
      <trkpt lat="46.99102" lon="8.85426">
        <ele>1459</ele>
        <time>2021-08-04T07:37:17.804Z</time>
      </trkpt>
      <trkpt lat="46.99103" lon="8.85424">
        <ele>1459</ele>
        <time>2021-08-04T07:37:18.804Z</time>
      </trkpt>
      <trkpt lat="46.99103" lon="8.85423">
        <ele>1459</ele>
        <time>2021-08-04T07:37:19.805Z</time>
      </trkpt>
      <trkpt lat="46.99103" lon="8.85422">
        <ele>1459</ele>
        <time>2021-08-04T07:37:20.805Z</time>
      </trkpt>
      <trkpt lat="46.99102" lon="8.8542">
        <ele>1458</ele>
        <time>2021-08-04T07:37:21.805Z</time>
      </trkpt>
      <trkpt lat="46.99101" lon="8.85418">
        <ele>1458</ele>
        <time>2021-08-04T07:37:22.805Z</time>
      </trkpt>
      <trkpt lat="46.99101" lon="8.85417">
        <ele>1458</ele>
        <time>2021-08-04T07:37:23.804Z</time>
      </trkpt>
      <trkpt lat="46.99101" lon="8.85415">
        <ele>1458</ele>
        <time>2021-08-04T07:37:24.805Z</time>
      </trkpt>
      <trkpt lat="46.991" lon="8.85413">
        <ele>1458</ele>
        <time>2021-08-04T07:37:25.805Z</time>
      </trkpt>
      <trkpt lat="46.991" lon="8.85411">
        <ele>1458</ele>
        <time>2021-08-04T07:37:26.805Z</time>
      </trkpt>
      <trkpt lat="46.99098" lon="8.8541">
        <ele>1458</ele>
        <time>2021-08-04T07:37:27.805Z</time>
      </trkpt>
      <trkpt lat="46.99098" lon="8.85408">
        <ele>1458</ele>
        <time>2021-08-04T07:37:28.805Z</time>
      </trkpt>
      <trkpt lat="46.99097" lon="8.85407">
        <ele>1458</ele>
        <time>2021-08-04T07:37:29.805Z</time>
      </trkpt>
      <trkpt lat="46.99096" lon="8.85405">
        <ele>1458</ele>
        <time>2021-08-04T07:37:30.805Z</time>
      </trkpt>
      <trkpt lat="46.99095" lon="8.85403">
        <ele>1458</ele>
        <time>2021-08-04T07:37:31.805Z</time>
      </trkpt>
      <trkpt lat="46.99094" lon="8.85402">
        <ele>1458</ele>
        <time>2021-08-04T07:37:32.804Z</time>
      </trkpt>
      <trkpt lat="46.99093" lon="8.854">
        <ele>1458</ele>
        <time>2021-08-04T07:37:33.805Z</time>
      </trkpt>
      <trkpt lat="46.99092" lon="8.85398">
        <ele>1458</ele>
        <time>2021-08-04T07:37:34.804Z</time>
      </trkpt>
      <trkpt lat="46.99091" lon="8.85397">
        <ele>1458</ele>
        <time>2021-08-04T07:37:35.805Z</time>
      </trkpt>
      <trkpt lat="46.9909" lon="8.85396">
        <ele>1458</ele>
        <time>2021-08-04T07:37:36.804Z</time>
      </trkpt>
      <trkpt lat="46.99089" lon="8.85394">
        <ele>1458</ele>
        <time>2021-08-04T07:37:37.805Z</time>
      </trkpt>
      <trkpt lat="46.99088" lon="8.85393">
        <ele>1459</ele>
        <time>2021-08-04T07:37:38.804Z</time>
      </trkpt>
      <trkpt lat="46.99087" lon="8.85391">
        <ele>1459</ele>
        <time>2021-08-04T07:37:39.805Z</time>
      </trkpt>
      <trkpt lat="46.99086" lon="8.8539">
        <ele>1459</ele>
        <time>2021-08-04T07:37:40.805Z</time>
      </trkpt>
      <trkpt lat="46.99085" lon="8.8539">
        <ele>1460</ele>
        <time>2021-08-04T07:37:41.805Z</time>
      </trkpt>
      <trkpt lat="46.99084" lon="8.85389">
        <ele>1460</ele>
        <time>2021-08-04T07:37:42.805Z</time>
      </trkpt>
      <trkpt lat="46.99082" lon="8.85388">
        <ele>1461</ele>
        <time>2021-08-04T07:37:43.805Z</time>
      </trkpt>
      <trkpt lat="46.99081" lon="8.85387">
        <ele>1461</ele>
        <time>2021-08-04T07:37:44.804Z</time>
      </trkpt>
      <trkpt lat="46.9908" lon="8.85386">
        <ele>1461</ele>
        <time>2021-08-04T07:37:45.805Z</time>
      </trkpt>
      <trkpt lat="46.99079" lon="8.85386">
        <ele>1462</ele>
        <time>2021-08-04T07:37:46.805Z</time>
      </trkpt>
      <trkpt lat="46.99078" lon="8.85385">
        <ele>1462</ele>
        <time>2021-08-04T07:37:47.805Z</time>
      </trkpt>
      <trkpt lat="46.99078" lon="8.85384">
        <ele>1463</ele>
        <time>2021-08-04T07:37:48.805Z</time>
      </trkpt>
      <trkpt lat="46.99078" lon="8.85382">
        <ele>1463</ele>
        <time>2021-08-04T07:37:49.805Z</time>
      </trkpt>
      <trkpt lat="46.99077" lon="8.85381">
        <ele>1463</ele>
        <time>2021-08-04T07:37:50.805Z</time>
      </trkpt>
      <trkpt lat="46.99077" lon="8.8538">
        <ele>1464</ele>
        <time>2021-08-04T07:37:51.805Z</time>
      </trkpt>
      <trkpt lat="46.99077" lon="8.85379">
        <ele>1464</ele>
        <time>2021-08-04T07:37:52.805Z</time>
      </trkpt>
      <trkpt lat="46.99077" lon="8.85378">
        <ele>1464</ele>
        <time>2021-08-04T07:37:53.805Z</time>
      </trkpt>
      <trkpt lat="46.99077" lon="8.85377">
        <ele>1464</ele>
        <time>2021-08-04T07:37:54.805Z</time>
      </trkpt>
      <trkpt lat="46.99077" lon="8.85376">
        <ele>1463</ele>
        <time>2021-08-04T07:37:55.804Z</time>
      </trkpt>
      <trkpt lat="46.99077" lon="8.85376">
        <ele>1463</ele>
        <time>2021-08-04T07:37:56.805Z</time>
      </trkpt>
      <trkpt lat="46.99077" lon="8.85375">
        <ele>1463</ele>
        <time>2021-08-04T07:37:57.805Z</time>
      </trkpt>
      <trkpt lat="46.99076" lon="8.85374">
        <ele>1463</ele>
        <time>2021-08-04T07:37:58.805Z</time>
      </trkpt>
      <trkpt lat="46.99076" lon="8.85374">
        <ele>1463</ele>
        <time>2021-08-04T07:37:59.804Z</time>
      </trkpt>
      <trkpt lat="46.99076" lon="8.85371">
        <ele>1462</ele>
        <time>2021-08-04T07:38:00.806Z</time>
      </trkpt>
      <trkpt lat="46.99076" lon="8.8537">
        <ele>1462</ele>
        <time>2021-08-04T07:38:01.806Z</time>
      </trkpt>
      <trkpt lat="46.99076" lon="8.85369">
        <ele>1461</ele>
        <time>2021-08-04T07:38:02.805Z</time>
      </trkpt>
      <trkpt lat="46.99076" lon="8.85367">
        <ele>1461</ele>
        <time>2021-08-04T07:38:03.805Z</time>
      </trkpt>
      <trkpt lat="46.99076" lon="8.85366">
        <ele>1460</ele>
        <time>2021-08-04T07:38:04.806Z</time>
      </trkpt>
      <trkpt lat="46.99076" lon="8.85365">
        <ele>1459</ele>
        <time>2021-08-04T07:38:05.805Z</time>
      </trkpt>
      <trkpt lat="46.99076" lon="8.85363">
        <ele>1457</ele>
        <time>2021-08-04T07:38:06.806Z</time>
      </trkpt>
      <trkpt lat="46.99076" lon="8.85362">
        <ele>1456</ele>
        <time>2021-08-04T07:38:07.805Z</time>
      </trkpt>
      <trkpt lat="46.99077" lon="8.85362">
        <ele>1455</ele>
        <time>2021-08-04T07:38:08.806Z</time>
      </trkpt>
      <trkpt lat="46.99077" lon="8.85361">
        <ele>1454</ele>
        <time>2021-08-04T07:38:09.805Z</time>
      </trkpt>
      <trkpt lat="46.99077" lon="8.8536">
        <ele>1454</ele>
        <time>2021-08-04T07:38:10.805Z</time>
      </trkpt>
      <trkpt lat="46.99078" lon="8.85359">
        <ele>1454</ele>
        <time>2021-08-04T07:38:11.806Z</time>
      </trkpt>
      <trkpt lat="46.99078" lon="8.85358">
        <ele>1454</ele>
        <time>2021-08-04T07:38:12.806Z</time>
      </trkpt>
      <trkpt lat="46.99078" lon="8.85358">
        <ele>1453</ele>
        <time>2021-08-04T07:38:13.806Z</time>
      </trkpt>
      <trkpt lat="46.99079" lon="8.85357">
        <ele>1453</ele>
        <time>2021-08-04T07:38:14.805Z</time>
      </trkpt>
      <trkpt lat="46.99079" lon="8.85356">
        <ele>1453</ele>
        <time>2021-08-04T07:38:15.806Z</time>
      </trkpt>
      <trkpt lat="46.99079" lon="8.85356">
        <ele>1452</ele>
        <time>2021-08-04T07:38:16.805Z</time>
      </trkpt>
      <trkpt lat="46.99079" lon="8.85355">
        <ele>1451</ele>
        <time>2021-08-04T07:38:17.805Z</time>
      </trkpt>
      <trkpt lat="46.99079" lon="8.85354">
        <ele>1451</ele>
        <time>2021-08-04T07:38:18.805Z</time>
      </trkpt>
      <trkpt lat="46.99079" lon="8.85352">
        <ele>1451</ele>
        <time>2021-08-04T07:38:19.806Z</time>
      </trkpt>
      <trkpt lat="46.99079" lon="8.85351">
        <ele>1450</ele>
        <time>2021-08-04T07:38:20.806Z</time>
      </trkpt>
      <trkpt lat="46.99079" lon="8.8535">
        <ele>1450</ele>
        <time>2021-08-04T07:38:21.806Z</time>
      </trkpt>
      <trkpt lat="46.99079" lon="8.85348">
        <ele>1450</ele>
        <time>2021-08-04T07:38:22.805Z</time>
      </trkpt>
      <trkpt lat="46.99079" lon="8.85347">
        <ele>1450</ele>
        <time>2021-08-04T07:38:23.806Z</time>
      </trkpt>
      <trkpt lat="46.9908" lon="8.85345">
        <ele>1449</ele>
        <time>2021-08-04T07:38:24.805Z</time>
      </trkpt>
      <trkpt lat="46.99079" lon="8.85344">
        <ele>1449</ele>
        <time>2021-08-04T07:38:25.805Z</time>
      </trkpt>
      <trkpt lat="46.99079" lon="8.85342">
        <ele>1449</ele>
        <time>2021-08-04T07:38:26.805Z</time>
      </trkpt>
      <trkpt lat="46.99079" lon="8.85341">
        <ele>1449</ele>
        <time>2021-08-04T07:38:27.806Z</time>
      </trkpt>
      <trkpt lat="46.99078" lon="8.85339">
        <ele>1448</ele>
        <time>2021-08-04T07:38:28.806Z</time>
      </trkpt>
      <trkpt lat="46.99078" lon="8.85338">
        <ele>1448</ele>
        <time>2021-08-04T07:38:29.805Z</time>
      </trkpt>
      <trkpt lat="46.99078" lon="8.85336">
        <ele>1448</ele>
        <time>2021-08-04T07:38:30.806Z</time>
      </trkpt>
      <trkpt lat="46.99078" lon="8.85334">
        <ele>1449</ele>
        <time>2021-08-04T07:38:31.806Z</time>
      </trkpt>
      <trkpt lat="46.99078" lon="8.85332">
        <ele>1449</ele>
        <time>2021-08-04T07:38:32.806Z</time>
      </trkpt>
      <trkpt lat="46.99078" lon="8.8533">
        <ele>1449</ele>
        <time>2021-08-04T07:38:33.806Z</time>
      </trkpt>
      <trkpt lat="46.99078" lon="8.85329">
        <ele>1449</ele>
        <time>2021-08-04T07:38:34.806Z</time>
      </trkpt>
      <trkpt lat="46.99078" lon="8.85327">
        <ele>1449</ele>
        <time>2021-08-04T07:38:35.805Z</time>
      </trkpt>
      <trkpt lat="46.99077" lon="8.85325">
        <ele>1449</ele>
        <time>2021-08-04T07:38:36.805Z</time>
      </trkpt>
      <trkpt lat="46.99078" lon="8.85324">
        <ele>1449</ele>
        <time>2021-08-04T07:38:37.806Z</time>
      </trkpt>
      <trkpt lat="46.99078" lon="8.85322">
        <ele>1449</ele>
        <time>2021-08-04T07:38:38.805Z</time>
      </trkpt>
      <trkpt lat="46.99078" lon="8.85319">
        <ele>1449</ele>
        <time>2021-08-04T07:38:39.805Z</time>
      </trkpt>
      <trkpt lat="46.99078" lon="8.85317">
        <ele>1449</ele>
        <time>2021-08-04T07:38:40.806Z</time>
      </trkpt>
      <trkpt lat="46.99078" lon="8.85316">
        <ele>1449</ele>
        <time>2021-08-04T07:38:41.806Z</time>
      </trkpt>
      <trkpt lat="46.99078" lon="8.85316">
        <ele>1449</ele>
        <time>2021-08-04T07:38:42.806Z</time>
      </trkpt>
      <trkpt lat="46.99077" lon="8.85315">
        <ele>1449</ele>
        <time>2021-08-04T07:38:43.805Z</time>
      </trkpt>
      <trkpt lat="46.99077" lon="8.85315">
        <ele>1448</ele>
        <time>2021-08-04T07:38:44.805Z</time>
      </trkpt>
      <trkpt lat="46.99076" lon="8.85314">
        <ele>1448</ele>
        <time>2021-08-04T07:38:45.805Z</time>
      </trkpt>
      <trkpt lat="46.99076" lon="8.85313">
        <ele>1448</ele>
        <time>2021-08-04T07:38:46.805Z</time>
      </trkpt>
      <trkpt lat="46.99075" lon="8.85312">
        <ele>1447</ele>
        <time>2021-08-04T07:38:47.806Z</time>
      </trkpt>
      <trkpt lat="46.99074" lon="8.8531">
        <ele>1447</ele>
        <time>2021-08-04T07:38:48.806Z</time>
      </trkpt>
      <trkpt lat="46.99073" lon="8.85308">
        <ele>1447</ele>
        <time>2021-08-04T07:38:49.805Z</time>
      </trkpt>
      <trkpt lat="46.99071" lon="8.85307">
        <ele>1447</ele>
        <time>2021-08-04T07:38:50.805Z</time>
      </trkpt>
      <trkpt lat="46.99071" lon="8.85305">
        <ele>1447</ele>
        <time>2021-08-04T07:38:51.806Z</time>
      </trkpt>
      <trkpt lat="46.9907" lon="8.85305">
        <ele>1447</ele>
        <time>2021-08-04T07:38:52.805Z</time>
      </trkpt>
      <trkpt lat="46.99069" lon="8.85303">
        <ele>1447</ele>
        <time>2021-08-04T07:38:53.805Z</time>
      </trkpt>
      <trkpt lat="46.99068" lon="8.85302">
        <ele>1447</ele>
        <time>2021-08-04T07:38:54.805Z</time>
      </trkpt>
      <trkpt lat="46.99068" lon="8.85301">
        <ele>1447</ele>
        <time>2021-08-04T07:38:55.805Z</time>
      </trkpt>
      <trkpt lat="46.99067" lon="8.853">
        <ele>1447</ele>
        <time>2021-08-04T07:38:56.806Z</time>
      </trkpt>
      <trkpt lat="46.99066" lon="8.85299">
        <ele>1447</ele>
        <time>2021-08-04T07:38:57.805Z</time>
      </trkpt>
      <trkpt lat="46.99065" lon="8.85298">
        <ele>1446</ele>
        <time>2021-08-04T07:38:58.806Z</time>
      </trkpt>
      <trkpt lat="46.99065" lon="8.85297">
        <ele>1446</ele>
        <time>2021-08-04T07:38:59.805Z</time>
      </trkpt>
      <trkpt lat="46.99064" lon="8.85296">
        <ele>1446</ele>
        <time>2021-08-04T07:39:00.805Z</time>
      </trkpt>
      <trkpt lat="46.99062" lon="8.85294">
        <ele>1446</ele>
        <time>2021-08-04T07:39:01.806Z</time>
      </trkpt>
      <trkpt lat="46.99062" lon="8.85293">
        <ele>1445</ele>
        <time>2021-08-04T07:39:02.805Z</time>
      </trkpt>
      <trkpt lat="46.99061" lon="8.85291">
        <ele>1445</ele>
        <time>2021-08-04T07:39:03.806Z</time>
      </trkpt>
      <trkpt lat="46.99061" lon="8.8529">
        <ele>1444</ele>
        <time>2021-08-04T07:39:04.805Z</time>
      </trkpt>
      <trkpt lat="46.99061" lon="8.85288">
        <ele>1444</ele>
        <time>2021-08-04T07:39:05.805Z</time>
      </trkpt>
      <trkpt lat="46.9906" lon="8.85286">
        <ele>1443</ele>
        <time>2021-08-04T07:39:06.806Z</time>
      </trkpt>
      <trkpt lat="46.99059" lon="8.85285">
        <ele>1442</ele>
        <time>2021-08-04T07:39:07.806Z</time>
      </trkpt>
      <trkpt lat="46.99059" lon="8.85283">
        <ele>1442</ele>
        <time>2021-08-04T07:39:08.805Z</time>
      </trkpt>
      <trkpt lat="46.99058" lon="8.85282">
        <ele>1441</ele>
        <time>2021-08-04T07:39:09.805Z</time>
      </trkpt>
      <trkpt lat="46.99058" lon="8.8528">
        <ele>1441</ele>
        <time>2021-08-04T07:39:10.805Z</time>
      </trkpt>
      <trkpt lat="46.99057" lon="8.85278">
        <ele>1441</ele>
        <time>2021-08-04T07:39:11.806Z</time>
      </trkpt>
      <trkpt lat="46.99057" lon="8.85277">
        <ele>1440</ele>
        <time>2021-08-04T07:39:12.805Z</time>
      </trkpt>
      <trkpt lat="46.99056" lon="8.85275">
        <ele>1440</ele>
        <time>2021-08-04T07:39:13.805Z</time>
      </trkpt>
      <trkpt lat="46.99056" lon="8.85274">
        <ele>1439</ele>
        <time>2021-08-04T07:39:14.805Z</time>
      </trkpt>
      <trkpt lat="46.99055" lon="8.85272">
        <ele>1439</ele>
        <time>2021-08-04T07:39:15.805Z</time>
      </trkpt>
      <trkpt lat="46.99055" lon="8.8527">
        <ele>1439</ele>
        <time>2021-08-04T07:39:16.805Z</time>
      </trkpt>
      <trkpt lat="46.99055" lon="8.85269">
        <ele>1439</ele>
        <time>2021-08-04T07:39:17.806Z</time>
      </trkpt>
      <trkpt lat="46.99054" lon="8.85267">
        <ele>1439</ele>
        <time>2021-08-04T07:39:18.805Z</time>
      </trkpt>
      <trkpt lat="46.99054" lon="8.85265">
        <ele>1439</ele>
        <time>2021-08-04T07:39:19.806Z</time>
      </trkpt>
      <trkpt lat="46.99053" lon="8.85264">
        <ele>1439</ele>
        <time>2021-08-04T07:39:20.806Z</time>
      </trkpt>
      <trkpt lat="46.99053" lon="8.85262">
        <ele>1440</ele>
        <time>2021-08-04T07:39:21.806Z</time>
      </trkpt>
      <trkpt lat="46.99052" lon="8.8526">
        <ele>1440</ele>
        <time>2021-08-04T07:39:22.806Z</time>
      </trkpt>
      <trkpt lat="46.99052" lon="8.85259">
        <ele>1440</ele>
        <time>2021-08-04T07:39:23.805Z</time>
      </trkpt>
      <trkpt lat="46.99051" lon="8.85258">
        <ele>1441</ele>
        <time>2021-08-04T07:39:24.805Z</time>
      </trkpt>
      <trkpt lat="46.99051" lon="8.85257">
        <ele>1441</ele>
        <time>2021-08-04T07:39:25.805Z</time>
      </trkpt>
      <trkpt lat="46.9905" lon="8.85256">
        <ele>1441</ele>
        <time>2021-08-04T07:39:26.805Z</time>
      </trkpt>
      <trkpt lat="46.9905" lon="8.85255">
        <ele>1442</ele>
        <time>2021-08-04T07:39:27.806Z</time>
      </trkpt>
      <trkpt lat="46.9905" lon="8.85254">
        <ele>1442</ele>
        <time>2021-08-04T07:39:28.806Z</time>
      </trkpt>
      <trkpt lat="46.99049" lon="8.85252">
        <ele>1441</ele>
        <time>2021-08-04T07:39:29.806Z</time>
      </trkpt>
      <trkpt lat="46.9905" lon="8.85251">
        <ele>1441</ele>
        <time>2021-08-04T07:39:30.805Z</time>
      </trkpt>
      <trkpt lat="46.9905" lon="8.85249">
        <ele>1441</ele>
        <time>2021-08-04T07:39:31.805Z</time>
      </trkpt>
      <trkpt lat="46.9905" lon="8.85249">
        <ele>1442</ele>
        <time>2021-08-04T07:39:32.806Z</time>
      </trkpt>
      <trkpt lat="46.9905" lon="8.85248">
        <ele>1442</ele>
        <time>2021-08-04T07:39:33.805Z</time>
      </trkpt>
      <trkpt lat="46.9905" lon="8.85248">
        <ele>1442</ele>
        <time>2021-08-04T07:39:34.806Z</time>
      </trkpt>
      <trkpt lat="46.9905" lon="8.85247">
        <ele>1442</ele>
        <time>2021-08-04T07:39:35.806Z</time>
      </trkpt>
      <trkpt lat="46.9905" lon="8.85245">
        <ele>1442</ele>
        <time>2021-08-04T07:39:36.806Z</time>
      </trkpt>
      <trkpt lat="46.9905" lon="8.85243">
        <ele>1442</ele>
        <time>2021-08-04T07:39:37.806Z</time>
      </trkpt>
      <trkpt lat="46.9905" lon="8.85242">
        <ele>1442</ele>
        <time>2021-08-04T07:39:38.806Z</time>
      </trkpt>
      <trkpt lat="46.99049" lon="8.8524">
        <ele>1442</ele>
        <time>2021-08-04T07:39:39.805Z</time>
      </trkpt>
      <trkpt lat="46.99049" lon="8.85239">
        <ele>1441</ele>
        <time>2021-08-04T07:39:40.806Z</time>
      </trkpt>
      <trkpt lat="46.99049" lon="8.85237">
        <ele>1441</ele>
        <time>2021-08-04T07:39:41.805Z</time>
      </trkpt>
      <trkpt lat="46.99049" lon="8.85235">
        <ele>1441</ele>
        <time>2021-08-04T07:39:42.806Z</time>
      </trkpt>
      <trkpt lat="46.99048" lon="8.85234">
        <ele>1441</ele>
        <time>2021-08-04T07:39:43.805Z</time>
      </trkpt>
      <trkpt lat="46.99048" lon="8.85232">
        <ele>1440</ele>
        <time>2021-08-04T07:39:44.805Z</time>
      </trkpt>
      <trkpt lat="46.99048" lon="8.85231">
        <ele>1440</ele>
        <time>2021-08-04T07:39:45.806Z</time>
      </trkpt>
      <trkpt lat="46.99048" lon="8.85229">
        <ele>1440</ele>
        <time>2021-08-04T07:39:46.806Z</time>
      </trkpt>
      <trkpt lat="46.99048" lon="8.85227">
        <ele>1440</ele>
        <time>2021-08-04T07:39:47.806Z</time>
      </trkpt>
      <trkpt lat="46.99049" lon="8.85225">
        <ele>1440</ele>
        <time>2021-08-04T07:39:48.806Z</time>
      </trkpt>
      <trkpt lat="46.9905" lon="8.85224">
        <ele>1439</ele>
        <time>2021-08-04T07:39:49.805Z</time>
      </trkpt>
      <trkpt lat="46.9905" lon="8.85224">
        <ele>1438</ele>
        <time>2021-08-04T07:39:50.806Z</time>
      </trkpt>
      <trkpt lat="46.99051" lon="8.85222">
        <ele>1437</ele>
        <time>2021-08-04T07:39:51.806Z</time>
      </trkpt>
      <trkpt lat="46.99052" lon="8.85221">
        <ele>1436</ele>
        <time>2021-08-04T07:39:52.806Z</time>
      </trkpt>
      <trkpt lat="46.99053" lon="8.8522">
        <ele>1435</ele>
        <time>2021-08-04T07:39:53.806Z</time>
      </trkpt>
      <trkpt lat="46.99053" lon="8.85219">
        <ele>1434</ele>
        <time>2021-08-04T07:39:54.806Z</time>
      </trkpt>
      <trkpt lat="46.99054" lon="8.85218">
        <ele>1433</ele>
        <time>2021-08-04T07:39:55.806Z</time>
      </trkpt>
      <trkpt lat="46.99055" lon="8.85217">
        <ele>1433</ele>
        <time>2021-08-04T07:39:56.806Z</time>
      </trkpt>
      <trkpt lat="46.99056" lon="8.85216">
        <ele>1433</ele>
        <time>2021-08-04T07:39:57.806Z</time>
      </trkpt>
      <trkpt lat="46.99057" lon="8.85215">
        <ele>1432</ele>
        <time>2021-08-04T07:39:58.806Z</time>
      </trkpt>
      <trkpt lat="46.99058" lon="8.85214">
        <ele>1432</ele>
        <time>2021-08-04T07:39:59.805Z</time>
      </trkpt>
      <trkpt lat="46.99059" lon="8.85214">
        <ele>1432</ele>
        <time>2021-08-04T07:40:00.805Z</time>
      </trkpt>
      <trkpt lat="46.9906" lon="8.85214">
        <ele>1431</ele>
        <time>2021-08-04T07:40:01.805Z</time>
      </trkpt>
      <trkpt lat="46.99062" lon="8.85213">
        <ele>1431</ele>
        <time>2021-08-04T07:40:02.805Z</time>
      </trkpt>
      <trkpt lat="46.99062" lon="8.85212">
        <ele>1430</ele>
        <time>2021-08-04T07:40:03.805Z</time>
      </trkpt>
      <trkpt lat="46.99063" lon="8.85212">
        <ele>1429</ele>
        <time>2021-08-04T07:40:04.805Z</time>
      </trkpt>
      <trkpt lat="46.99064" lon="8.8521">
        <ele>1429</ele>
        <time>2021-08-04T07:40:05.805Z</time>
      </trkpt>
      <trkpt lat="46.99065" lon="8.8521">
        <ele>1428</ele>
        <time>2021-08-04T07:40:06.805Z</time>
      </trkpt>
      <trkpt lat="46.99065" lon="8.85209">
        <ele>1427</ele>
        <time>2021-08-04T07:40:07.805Z</time>
      </trkpt>
      <trkpt lat="46.99066" lon="8.85208">
        <ele>1426</ele>
        <time>2021-08-04T07:40:08.805Z</time>
      </trkpt>
      <trkpt lat="46.99067" lon="8.85207">
        <ele>1425</ele>
        <time>2021-08-04T07:40:09.806Z</time>
      </trkpt>
      <trkpt lat="46.99067" lon="8.85206">
        <ele>1426</ele>
        <time>2021-08-04T07:40:10.806Z</time>
      </trkpt>
      <trkpt lat="46.99068" lon="8.85205">
        <ele>1426</ele>
        <time>2021-08-04T07:40:11.806Z</time>
      </trkpt>
      <trkpt lat="46.99068" lon="8.85204">
        <ele>1426</ele>
        <time>2021-08-04T07:40:12.806Z</time>
      </trkpt>
      <trkpt lat="46.99069" lon="8.85202">
        <ele>1426</ele>
        <time>2021-08-04T07:40:13.806Z</time>
      </trkpt>
      <trkpt lat="46.99069" lon="8.852">
        <ele>1426</ele>
        <time>2021-08-04T07:40:14.805Z</time>
      </trkpt>
      <trkpt lat="46.9907" lon="8.85199">
        <ele>1425</ele>
        <time>2021-08-04T07:40:15.806Z</time>
      </trkpt>
      <trkpt lat="46.99071" lon="8.85197">
        <ele>1425</ele>
        <time>2021-08-04T07:40:16.806Z</time>
      </trkpt>
      <trkpt lat="46.99072" lon="8.85196">
        <ele>1425</ele>
        <time>2021-08-04T07:40:17.806Z</time>
      </trkpt>
      <trkpt lat="46.99072" lon="8.85194">
        <ele>1425</ele>
        <time>2021-08-04T07:40:18.805Z</time>
      </trkpt>
      <trkpt lat="46.99073" lon="8.85193">
        <ele>1425</ele>
        <time>2021-08-04T07:40:19.806Z</time>
      </trkpt>
      <trkpt lat="46.99073" lon="8.85191">
        <ele>1425</ele>
        <time>2021-08-04T07:40:20.806Z</time>
      </trkpt>
      <trkpt lat="46.99074" lon="8.85189">
        <ele>1425</ele>
        <time>2021-08-04T07:40:21.806Z</time>
      </trkpt>
      <trkpt lat="46.99074" lon="8.85188">
        <ele>1425</ele>
        <time>2021-08-04T07:40:22.806Z</time>
      </trkpt>
      <trkpt lat="46.99075" lon="8.85186">
        <ele>1424</ele>
        <time>2021-08-04T07:40:23.806Z</time>
      </trkpt>
      <trkpt lat="46.99075" lon="8.85185">
        <ele>1424</ele>
        <time>2021-08-04T07:40:24.806Z</time>
      </trkpt>
      <trkpt lat="46.99075" lon="8.85184">
        <ele>1424</ele>
        <time>2021-08-04T07:40:25.806Z</time>
      </trkpt>
      <trkpt lat="46.99076" lon="8.85183">
        <ele>1423</ele>
        <time>2021-08-04T07:40:26.806Z</time>
      </trkpt>
      <trkpt lat="46.99076" lon="8.85181">
        <ele>1423</ele>
        <time>2021-08-04T07:40:27.806Z</time>
      </trkpt>
      <trkpt lat="46.99076" lon="8.85179">
        <ele>1422</ele>
        <time>2021-08-04T07:40:28.806Z</time>
      </trkpt>
      <trkpt lat="46.99076" lon="8.85177">
        <ele>1422</ele>
        <time>2021-08-04T07:40:29.806Z</time>
      </trkpt>
      <trkpt lat="46.99076" lon="8.85175">
        <ele>1421</ele>
        <time>2021-08-04T07:40:30.806Z</time>
      </trkpt>
      <trkpt lat="46.99076" lon="8.85174">
        <ele>1420</ele>
        <time>2021-08-04T07:40:31.805Z</time>
      </trkpt>
      <trkpt lat="46.99076" lon="8.85172">
        <ele>1420</ele>
        <time>2021-08-04T07:40:32.806Z</time>
      </trkpt>
      <trkpt lat="46.99077" lon="8.85171">
        <ele>1420</ele>
        <time>2021-08-04T07:40:33.806Z</time>
      </trkpt>
      <trkpt lat="46.99078" lon="8.85169">
        <ele>1419</ele>
        <time>2021-08-04T07:40:34.805Z</time>
      </trkpt>
      <trkpt lat="46.99079" lon="8.85168">
        <ele>1419</ele>
        <time>2021-08-04T07:40:35.805Z</time>
      </trkpt>
      <trkpt lat="46.99078" lon="8.85166">
        <ele>1420</ele>
        <time>2021-08-04T07:40:36.805Z</time>
      </trkpt>
      <trkpt lat="46.99078" lon="8.85164">
        <ele>1420</ele>
        <time>2021-08-04T07:40:37.805Z</time>
      </trkpt>
      <trkpt lat="46.99078" lon="8.85163">
        <ele>1420</ele>
        <time>2021-08-04T07:40:38.805Z</time>
      </trkpt>
      <trkpt lat="46.99077" lon="8.85161">
        <ele>1420</ele>
        <time>2021-08-04T07:40:39.805Z</time>
      </trkpt>
      <trkpt lat="46.99077" lon="8.8516">
        <ele>1420</ele>
        <time>2021-08-04T07:40:40.805Z</time>
      </trkpt>
      <trkpt lat="46.99078" lon="8.85158">
        <ele>1420</ele>
        <time>2021-08-04T07:40:41.806Z</time>
      </trkpt>
      <trkpt lat="46.99078" lon="8.85157">
        <ele>1420</ele>
        <time>2021-08-04T07:40:42.806Z</time>
      </trkpt>
      <trkpt lat="46.99078" lon="8.85156">
        <ele>1421</ele>
        <time>2021-08-04T07:40:43.806Z</time>
      </trkpt>
      <trkpt lat="46.99078" lon="8.85154">
        <ele>1421</ele>
        <time>2021-08-04T07:40:44.805Z</time>
      </trkpt>
      <trkpt lat="46.99077" lon="8.85152">
        <ele>1421</ele>
        <time>2021-08-04T07:40:45.806Z</time>
      </trkpt>
      <trkpt lat="46.99077" lon="8.85151">
        <ele>1420</ele>
        <time>2021-08-04T07:40:46.805Z</time>
      </trkpt>
      <trkpt lat="46.99077" lon="8.85149">
        <ele>1420</ele>
        <time>2021-08-04T07:40:47.806Z</time>
      </trkpt>
      <trkpt lat="46.99078" lon="8.85147">
        <ele>1420</ele>
        <time>2021-08-04T07:40:48.806Z</time>
      </trkpt>
      <trkpt lat="46.99077" lon="8.85146">
        <ele>1420</ele>
        <time>2021-08-04T07:40:49.805Z</time>
      </trkpt>
      <trkpt lat="46.99077" lon="8.85145">
        <ele>1419</ele>
        <time>2021-08-04T07:40:50.806Z</time>
      </trkpt>
      <trkpt lat="46.99077" lon="8.85143">
        <ele>1419</ele>
        <time>2021-08-04T07:40:51.806Z</time>
      </trkpt>
      <trkpt lat="46.99076" lon="8.85142">
        <ele>1419</ele>
        <time>2021-08-04T07:40:52.805Z</time>
      </trkpt>
      <trkpt lat="46.99075" lon="8.85141">
        <ele>1418</ele>
        <time>2021-08-04T07:40:53.806Z</time>
      </trkpt>
      <trkpt lat="46.99075" lon="8.8514">
        <ele>1418</ele>
        <time>2021-08-04T07:40:54.806Z</time>
      </trkpt>
      <trkpt lat="46.99073" lon="8.85138">
        <ele>1418</ele>
        <time>2021-08-04T07:40:55.805Z</time>
      </trkpt>
      <trkpt lat="46.99072" lon="8.85137">
        <ele>1418</ele>
        <time>2021-08-04T07:40:56.806Z</time>
      </trkpt>
      <trkpt lat="46.99071" lon="8.85136">
        <ele>1418</ele>
        <time>2021-08-04T07:40:57.805Z</time>
      </trkpt>
      <trkpt lat="46.9907" lon="8.85135">
        <ele>1418</ele>
        <time>2021-08-04T07:40:58.806Z</time>
      </trkpt>
      <trkpt lat="46.9907" lon="8.85133">
        <ele>1418</ele>
        <time>2021-08-04T07:40:59.805Z</time>
      </trkpt>
      <trkpt lat="46.9907" lon="8.85133">
        <ele>1418</ele>
        <time>2021-08-04T07:41:00.806Z</time>
      </trkpt>
      <trkpt lat="46.99069" lon="8.85132">
        <ele>1418</ele>
        <time>2021-08-04T07:41:01.806Z</time>
      </trkpt>
      <trkpt lat="46.99068" lon="8.85131">
        <ele>1418</ele>
        <time>2021-08-04T07:41:02.806Z</time>
      </trkpt>
      <trkpt lat="46.99067" lon="8.8513">
        <ele>1418</ele>
        <time>2021-08-04T07:41:03.806Z</time>
      </trkpt>
      <trkpt lat="46.99066" lon="8.85128">
        <ele>1418</ele>
        <time>2021-08-04T07:41:04.806Z</time>
      </trkpt>
      <trkpt lat="46.99064" lon="8.85127">
        <ele>1418</ele>
        <time>2021-08-04T07:41:05.806Z</time>
      </trkpt>
      <trkpt lat="46.99062" lon="8.85125">
        <ele>1417</ele>
        <time>2021-08-04T07:41:06.806Z</time>
      </trkpt>
      <trkpt lat="46.99061" lon="8.85124">
        <ele>1417</ele>
        <time>2021-08-04T07:41:07.805Z</time>
      </trkpt>
      <trkpt lat="46.99059" lon="8.85123">
        <ele>1417</ele>
        <time>2021-08-04T07:41:08.806Z</time>
      </trkpt>
      <trkpt lat="46.99058" lon="8.85122">
        <ele>1418</ele>
        <time>2021-08-04T07:41:09.805Z</time>
      </trkpt>
      <trkpt lat="46.99057" lon="8.85121">
        <ele>1418</ele>
        <time>2021-08-04T07:41:10.806Z</time>
      </trkpt>
      <trkpt lat="46.99055" lon="8.8512">
        <ele>1418</ele>
        <time>2021-08-04T07:41:11.806Z</time>
      </trkpt>
      <trkpt lat="46.99053" lon="8.8512">
        <ele>1418</ele>
        <time>2021-08-04T07:41:12.806Z</time>
      </trkpt>
      <trkpt lat="46.99052" lon="8.8512">
        <ele>1418</ele>
        <time>2021-08-04T07:41:13.806Z</time>
      </trkpt>
      <trkpt lat="46.9905" lon="8.8512">
        <ele>1417</ele>
        <time>2021-08-04T07:41:14.806Z</time>
      </trkpt>
      <trkpt lat="46.99049" lon="8.8512">
        <ele>1417</ele>
        <time>2021-08-04T07:41:15.805Z</time>
      </trkpt>
      <trkpt lat="46.99048" lon="8.8512">
        <ele>1416</ele>
        <time>2021-08-04T07:41:16.806Z</time>
      </trkpt>
      <trkpt lat="46.99047" lon="8.85119">
        <ele>1416</ele>
        <time>2021-08-04T07:41:17.806Z</time>
      </trkpt>
      <trkpt lat="46.99046" lon="8.85118">
        <ele>1415</ele>
        <time>2021-08-04T07:41:18.806Z</time>
      </trkpt>
      <trkpt lat="46.99045" lon="8.85117">
        <ele>1415</ele>
        <time>2021-08-04T07:41:19.806Z</time>
      </trkpt>
      <trkpt lat="46.99044" lon="8.85115">
        <ele>1414</ele>
        <time>2021-08-04T07:41:20.805Z</time>
      </trkpt>
      <trkpt lat="46.99043" lon="8.85115">
        <ele>1413</ele>
        <time>2021-08-04T07:41:21.805Z</time>
      </trkpt>
      <trkpt lat="46.99043" lon="8.85114">
        <ele>1413</ele>
        <time>2021-08-04T07:41:22.805Z</time>
      </trkpt>
      <trkpt lat="46.99042" lon="8.85113">
        <ele>1413</ele>
        <time>2021-08-04T07:41:23.805Z</time>
      </trkpt>
      <trkpt lat="46.99041" lon="8.85113">
        <ele>1412</ele>
        <time>2021-08-04T07:41:24.806Z</time>
      </trkpt>
      <trkpt lat="46.9904" lon="8.85113">
        <ele>1412</ele>
        <time>2021-08-04T07:41:25.805Z</time>
      </trkpt>
      <trkpt lat="46.99039" lon="8.85112">
        <ele>1412</ele>
        <time>2021-08-04T07:41:26.806Z</time>
      </trkpt>
      <trkpt lat="46.99038" lon="8.85112">
        <ele>1412</ele>
        <time>2021-08-04T07:41:27.806Z</time>
      </trkpt>
      <trkpt lat="46.99036" lon="8.85111">
        <ele>1412</ele>
        <time>2021-08-04T07:41:28.805Z</time>
      </trkpt>
      <trkpt lat="46.99036" lon="8.85112">
        <ele>1412</ele>
        <time>2021-08-04T07:41:29.806Z</time>
      </trkpt>
      <trkpt lat="46.99036" lon="8.85112">
        <ele>1412</ele>
        <time>2021-08-04T07:41:30.806Z</time>
      </trkpt>
      <trkpt lat="46.99034" lon="8.85111">
        <ele>1412</ele>
        <time>2021-08-04T07:41:31.806Z</time>
      </trkpt>
      <trkpt lat="46.99033" lon="8.8511">
        <ele>1412</ele>
        <time>2021-08-04T07:41:32.806Z</time>
      </trkpt>
      <trkpt lat="46.99032" lon="8.8511">
        <ele>1412</ele>
        <time>2021-08-04T07:41:33.805Z</time>
      </trkpt>
      <trkpt lat="46.99031" lon="8.85109">
        <ele>1412</ele>
        <time>2021-08-04T07:41:34.805Z</time>
      </trkpt>
      <trkpt lat="46.9903" lon="8.85109">
        <ele>1411</ele>
        <time>2021-08-04T07:41:35.805Z</time>
      </trkpt>
      <trkpt lat="46.99029" lon="8.85108">
        <ele>1411</ele>
        <time>2021-08-04T07:41:36.805Z</time>
      </trkpt>
      <trkpt lat="46.99028" lon="8.85107">
        <ele>1410</ele>
        <time>2021-08-04T07:41:37.806Z</time>
      </trkpt>
      <trkpt lat="46.99027" lon="8.85107">
        <ele>1410</ele>
        <time>2021-08-04T07:41:38.806Z</time>
      </trkpt>
      <trkpt lat="46.99026" lon="8.85106">
        <ele>1410</ele>
        <time>2021-08-04T07:41:39.806Z</time>
      </trkpt>
      <trkpt lat="46.99025" lon="8.85106">
        <ele>1409</ele>
        <time>2021-08-04T07:41:40.806Z</time>
      </trkpt>
      <trkpt lat="46.99024" lon="8.85105">
        <ele>1408</ele>
        <time>2021-08-04T07:41:41.806Z</time>
      </trkpt>
      <trkpt lat="46.99023" lon="8.85104">
        <ele>1408</ele>
        <time>2021-08-04T07:41:42.806Z</time>
      </trkpt>
      <trkpt lat="46.99023" lon="8.85104">
        <ele>1408</ele>
        <time>2021-08-04T07:41:43.806Z</time>
      </trkpt>
      <trkpt lat="46.99023" lon="8.85105">
        <ele>1407</ele>
        <time>2021-08-04T07:41:44.805Z</time>
      </trkpt>
      <trkpt lat="46.99022" lon="8.85105">
        <ele>1407</ele>
        <time>2021-08-04T07:41:45.806Z</time>
      </trkpt>
      <trkpt lat="46.9902" lon="8.85105">
        <ele>1406</ele>
        <time>2021-08-04T07:41:46.806Z</time>
      </trkpt>
      <trkpt lat="46.99019" lon="8.85106">
        <ele>1405</ele>
        <time>2021-08-04T07:41:47.806Z</time>
      </trkpt>
      <trkpt lat="46.99018" lon="8.85105">
        <ele>1404</ele>
        <time>2021-08-04T07:41:48.806Z</time>
      </trkpt>
      <trkpt lat="46.99017" lon="8.85105">
        <ele>1404</ele>
        <time>2021-08-04T07:41:49.805Z</time>
      </trkpt>
      <trkpt lat="46.99016" lon="8.85104">
        <ele>1403</ele>
        <time>2021-08-04T07:41:50.806Z</time>
      </trkpt>
      <trkpt lat="46.99015" lon="8.85104">
        <ele>1403</ele>
        <time>2021-08-04T07:41:51.805Z</time>
      </trkpt>
      <trkpt lat="46.99014" lon="8.85103">
        <ele>1402</ele>
        <time>2021-08-04T07:41:52.806Z</time>
      </trkpt>
      <trkpt lat="46.99014" lon="8.85102">
        <ele>1402</ele>
        <time>2021-08-04T07:41:53.806Z</time>
      </trkpt>
      <trkpt lat="46.99013" lon="8.85101">
        <ele>1402</ele>
        <time>2021-08-04T07:41:54.806Z</time>
      </trkpt>
      <trkpt lat="46.99012" lon="8.851">
        <ele>1402</ele>
        <time>2021-08-04T07:41:55.805Z</time>
      </trkpt>
      <trkpt lat="46.99012" lon="8.851">
        <ele>1402</ele>
        <time>2021-08-04T07:41:56.806Z</time>
      </trkpt>
      <trkpt lat="46.99011" lon="8.85099">
        <ele>1402</ele>
        <time>2021-08-04T07:41:57.805Z</time>
      </trkpt>
      <trkpt lat="46.99009" lon="8.85102">
        <ele>1402</ele>
        <time>2021-08-04T07:41:58.806Z</time>
      </trkpt>
      <trkpt lat="46.99008" lon="8.85102">
        <ele>1402</ele>
        <time>2021-08-04T07:41:59.806Z</time>
      </trkpt>
      <trkpt lat="46.99007" lon="8.85101">
        <ele>1403</ele>
        <time>2021-08-04T07:42:00.806Z</time>
      </trkpt>
      <trkpt lat="46.99007" lon="8.851">
        <ele>1403</ele>
        <time>2021-08-04T07:42:01.806Z</time>
      </trkpt>
      <trkpt lat="46.99006" lon="8.851">
        <ele>1402</ele>
        <time>2021-08-04T07:42:02.805Z</time>
      </trkpt>
      <trkpt lat="46.99006" lon="8.851">
        <ele>1402</ele>
        <time>2021-08-04T07:42:03.806Z</time>
      </trkpt>
      <trkpt lat="46.99005" lon="8.85099">
        <ele>1402</ele>
        <time>2021-08-04T07:42:04.805Z</time>
      </trkpt>
      <trkpt lat="46.99003" lon="8.85098">
        <ele>1402</ele>
        <time>2021-08-04T07:42:05.806Z</time>
      </trkpt>
      <trkpt lat="46.99002" lon="8.85098">
        <ele>1402</ele>
        <time>2021-08-04T07:42:06.805Z</time>
      </trkpt>
      <trkpt lat="46.99001" lon="8.85097">
        <ele>1402</ele>
        <time>2021-08-04T07:42:07.806Z</time>
      </trkpt>
      <trkpt lat="46.99" lon="8.85097">
        <ele>1402</ele>
        <time>2021-08-04T07:42:08.806Z</time>
      </trkpt>
      <trkpt lat="46.98999" lon="8.85097">
        <ele>1402</ele>
        <time>2021-08-04T07:42:09.805Z</time>
      </trkpt>
      <trkpt lat="46.98999" lon="8.85097">
        <ele>1402</ele>
        <time>2021-08-04T07:42:10.805Z</time>
      </trkpt>
      <trkpt lat="46.98998" lon="8.85096">
        <ele>1402</ele>
        <time>2021-08-04T07:42:11.805Z</time>
      </trkpt>
      <trkpt lat="46.98997" lon="8.85095">
        <ele>1402</ele>
        <time>2021-08-04T07:42:12.806Z</time>
      </trkpt>
      <trkpt lat="46.98996" lon="8.85095">
        <ele>1401</ele>
        <time>2021-08-04T07:42:13.805Z</time>
      </trkpt>
      <trkpt lat="46.98996" lon="8.85095">
        <ele>1401</ele>
        <time>2021-08-04T07:42:14.805Z</time>
      </trkpt>
      <trkpt lat="46.98997" lon="8.85096">
        <ele>1400</ele>
        <time>2021-08-04T07:42:15.805Z</time>
      </trkpt>
      <trkpt lat="46.98996" lon="8.85096">
        <ele>1399</ele>
        <time>2021-08-04T07:42:16.805Z</time>
      </trkpt>
      <trkpt lat="46.98996" lon="8.85096">
        <ele>1398</ele>
        <time>2021-08-04T07:42:17.805Z</time>
      </trkpt>
      <trkpt lat="46.98996" lon="8.85096">
        <ele>1397</ele>
        <time>2021-08-04T07:42:18.805Z</time>
      </trkpt>
      <trkpt lat="46.98995" lon="8.85095">
        <ele>1397</ele>
        <time>2021-08-04T07:42:19.805Z</time>
      </trkpt>
      <trkpt lat="46.98992" lon="8.85092">
        <ele>1395</ele>
        <time>2021-08-04T07:42:20.807Z</time>
      </trkpt>
      <trkpt lat="46.98992" lon="8.85092">
        <ele>1395</ele>
        <time>2021-08-04T07:42:21.807Z</time>
      </trkpt>
      <trkpt lat="46.98992" lon="8.85092">
        <ele>1395</ele>
        <time>2021-08-04T07:42:22.806Z</time>
      </trkpt>
      <trkpt lat="46.98992" lon="8.85092">
        <ele>1395</ele>
        <time>2021-08-04T07:42:23.807Z</time>
      </trkpt>
      <trkpt lat="46.98994" lon="8.85093">
        <ele>1395</ele>
        <time>2021-08-04T07:42:24.806Z</time>
      </trkpt>
      <trkpt lat="46.98994" lon="8.85092">
        <ele>1394</ele>
        <time>2021-08-04T07:42:25.807Z</time>
      </trkpt>
      <trkpt lat="46.98992" lon="8.85092">
        <ele>1394</ele>
        <time>2021-08-04T07:42:26.807Z</time>
      </trkpt>
      <trkpt lat="46.98991" lon="8.85092">
        <ele>1394</ele>
        <time>2021-08-04T07:42:27.807Z</time>
      </trkpt>
      <trkpt lat="46.9899" lon="8.85091">
        <ele>1393</ele>
        <time>2021-08-04T07:42:28.807Z</time>
      </trkpt>
      <trkpt lat="46.98989" lon="8.85091">
        <ele>1393</ele>
        <time>2021-08-04T07:42:29.807Z</time>
      </trkpt>
      <trkpt lat="46.98988" lon="8.85091">
        <ele>1392</ele>
        <time>2021-08-04T07:42:30.807Z</time>
      </trkpt>
      <trkpt lat="46.98987" lon="8.85091">
        <ele>1392</ele>
        <time>2021-08-04T07:42:31.807Z</time>
      </trkpt>
      <trkpt lat="46.98986" lon="8.85091">
        <ele>1392</ele>
        <time>2021-08-04T07:42:32.807Z</time>
      </trkpt>
      <trkpt lat="46.98985" lon="8.8509">
        <ele>1393</ele>
        <time>2021-08-04T07:42:33.807Z</time>
      </trkpt>
      <trkpt lat="46.98983" lon="8.8509">
        <ele>1393</ele>
        <time>2021-08-04T07:42:34.807Z</time>
      </trkpt>
      <trkpt lat="46.98981" lon="8.8509">
        <ele>1393</ele>
        <time>2021-08-04T07:42:35.806Z</time>
      </trkpt>
      <trkpt lat="46.98981" lon="8.85089">
        <ele>1394</ele>
        <time>2021-08-04T07:42:36.807Z</time>
      </trkpt>
      <trkpt lat="46.9898" lon="8.8509">
        <ele>1394</ele>
        <time>2021-08-04T07:42:37.807Z</time>
      </trkpt>
      <trkpt lat="46.9898" lon="8.8509">
        <ele>1395</ele>
        <time>2021-08-04T07:42:38.807Z</time>
      </trkpt>
      <trkpt lat="46.98981" lon="8.85092">
        <ele>1395</ele>
        <time>2021-08-04T07:42:39.807Z</time>
      </trkpt>
      <trkpt lat="46.9898" lon="8.85093">
        <ele>1395</ele>
        <time>2021-08-04T07:42:40.807Z</time>
      </trkpt>
      <trkpt lat="46.98979" lon="8.85094">
        <ele>1396</ele>
        <time>2021-08-04T07:42:41.807Z</time>
      </trkpt>
      <trkpt lat="46.98979" lon="8.85095">
        <ele>1396</ele>
        <time>2021-08-04T07:42:42.806Z</time>
      </trkpt>
      <trkpt lat="46.98978" lon="8.85096">
        <ele>1396</ele>
        <time>2021-08-04T07:42:43.807Z</time>
      </trkpt>
      <trkpt lat="46.98978" lon="8.85097">
        <ele>1397</ele>
        <time>2021-08-04T07:42:44.807Z</time>
      </trkpt>
      <trkpt lat="46.98977" lon="8.85097">
        <ele>1398</ele>
        <time>2021-08-04T07:42:45.807Z</time>
      </trkpt>
      <trkpt lat="46.98976" lon="8.85098">
        <ele>1398</ele>
        <time>2021-08-04T07:42:46.807Z</time>
      </trkpt>
      <trkpt lat="46.98975" lon="8.85099">
        <ele>1398</ele>
        <time>2021-08-04T07:42:47.806Z</time>
      </trkpt>
      <trkpt lat="46.98975" lon="8.851">
        <ele>1398</ele>
        <time>2021-08-04T07:42:48.806Z</time>
      </trkpt>
      <trkpt lat="46.98975" lon="8.851">
        <ele>1398</ele>
        <time>2021-08-04T07:42:49.807Z</time>
      </trkpt>
      <trkpt lat="46.98974" lon="8.851">
        <ele>1398</ele>
        <time>2021-08-04T07:42:50.806Z</time>
      </trkpt>
      <trkpt lat="46.98974" lon="8.85101">
        <ele>1397</ele>
        <time>2021-08-04T07:42:51.807Z</time>
      </trkpt>
      <trkpt lat="46.98974" lon="8.851">
        <ele>1396</ele>
        <time>2021-08-04T07:42:52.807Z</time>
      </trkpt>
      <trkpt lat="46.98973" lon="8.851">
        <ele>1395</ele>
        <time>2021-08-04T07:42:53.806Z</time>
      </trkpt>
      <trkpt lat="46.98973" lon="8.851">
        <ele>1395</ele>
        <time>2021-08-04T07:42:54.807Z</time>
      </trkpt>
      <trkpt lat="46.98972" lon="8.85099">
        <ele>1394</ele>
        <time>2021-08-04T07:42:55.807Z</time>
      </trkpt>
      <trkpt lat="46.98972" lon="8.85098">
        <ele>1394</ele>
        <time>2021-08-04T07:42:56.807Z</time>
      </trkpt>
      <trkpt lat="46.98972" lon="8.85098">
        <ele>1394</ele>
        <time>2021-08-04T07:42:57.807Z</time>
      </trkpt>
      <trkpt lat="46.98972" lon="8.85097">
        <ele>1395</ele>
        <time>2021-08-04T07:42:58.807Z</time>
      </trkpt>
      <trkpt lat="46.98973" lon="8.85096">
        <ele>1395</ele>
        <time>2021-08-04T07:42:59.807Z</time>
      </trkpt>
      <trkpt lat="46.98973" lon="8.85094">
        <ele>1396</ele>
        <time>2021-08-04T07:43:00.807Z</time>
      </trkpt>
      <trkpt lat="46.98974" lon="8.85093">
        <ele>1397</ele>
        <time>2021-08-04T07:43:01.806Z</time>
      </trkpt>
      <trkpt lat="46.98975" lon="8.85092">
        <ele>1397</ele>
        <time>2021-08-04T07:43:02.806Z</time>
      </trkpt>
      <trkpt lat="46.98977" lon="8.85091">
        <ele>1398</ele>
        <time>2021-08-04T07:43:03.807Z</time>
      </trkpt>
      <trkpt lat="46.98978" lon="8.8509">
        <ele>1398</ele>
        <time>2021-08-04T07:43:04.806Z</time>
      </trkpt>
      <trkpt lat="46.9898" lon="8.8509">
        <ele>1398</ele>
        <time>2021-08-04T07:43:05.807Z</time>
      </trkpt>
      <trkpt lat="46.98981" lon="8.85089">
        <ele>1398</ele>
        <time>2021-08-04T07:43:06.806Z</time>
      </trkpt>
      <trkpt lat="46.98982" lon="8.85088">
        <ele>1399</ele>
        <time>2021-08-04T07:43:07.807Z</time>
      </trkpt>
      <trkpt lat="46.98984" lon="8.85086">
        <ele>1399</ele>
        <time>2021-08-04T07:43:08.806Z</time>
      </trkpt>
      <trkpt lat="46.98985" lon="8.85085">
        <ele>1400</ele>
        <time>2021-08-04T07:43:09.806Z</time>
      </trkpt>
      <trkpt lat="46.98985" lon="8.85084">
        <ele>1400</ele>
        <time>2021-08-04T07:43:10.807Z</time>
      </trkpt>
      <trkpt lat="46.98985" lon="8.85083">
        <ele>1401</ele>
        <time>2021-08-04T07:43:11.807Z</time>
      </trkpt>
      <trkpt lat="46.98985" lon="8.85082">
        <ele>1400</ele>
        <time>2021-08-04T07:43:12.807Z</time>
      </trkpt>
      <trkpt lat="46.98985" lon="8.85081">
        <ele>1400</ele>
        <time>2021-08-04T07:43:13.806Z</time>
      </trkpt>
      <trkpt lat="46.98985" lon="8.8508">
        <ele>1400</ele>
        <time>2021-08-04T07:43:14.806Z</time>
      </trkpt>
      <trkpt lat="46.98985" lon="8.85079">
        <ele>1399</ele>
        <time>2021-08-04T07:43:15.806Z</time>
      </trkpt>
      <trkpt lat="46.98985" lon="8.85078">
        <ele>1399</ele>
        <time>2021-08-04T07:43:16.807Z</time>
      </trkpt>
      <trkpt lat="46.98986" lon="8.85077">
        <ele>1398</ele>
        <time>2021-08-04T07:43:17.807Z</time>
      </trkpt>
      <trkpt lat="46.98986" lon="8.85076">
        <ele>1398</ele>
        <time>2021-08-04T07:43:18.807Z</time>
      </trkpt>
      <trkpt lat="46.98986" lon="8.85076">
        <ele>1399</ele>
        <time>2021-08-04T07:43:19.807Z</time>
      </trkpt>
      <trkpt lat="46.98986" lon="8.85074">
        <ele>1399</ele>
        <time>2021-08-04T07:43:20.806Z</time>
      </trkpt>
      <trkpt lat="46.98986" lon="8.85073">
        <ele>1400</ele>
        <time>2021-08-04T07:43:21.806Z</time>
      </trkpt>
      <trkpt lat="46.98986" lon="8.85072">
        <ele>1400</ele>
        <time>2021-08-04T07:43:22.807Z</time>
      </trkpt>
      <trkpt lat="46.98986" lon="8.8507">
        <ele>1401</ele>
        <time>2021-08-04T07:43:23.807Z</time>
      </trkpt>
      <trkpt lat="46.98987" lon="8.85069">
        <ele>1401</ele>
        <time>2021-08-04T07:43:24.806Z</time>
      </trkpt>
      <trkpt lat="46.98987" lon="8.85068">
        <ele>1401</ele>
        <time>2021-08-04T07:43:25.806Z</time>
      </trkpt>
      <trkpt lat="46.98988" lon="8.85066">
        <ele>1401</ele>
        <time>2021-08-04T07:43:26.806Z</time>
      </trkpt>
      <trkpt lat="46.98988" lon="8.85065">
        <ele>1401</ele>
        <time>2021-08-04T07:43:27.806Z</time>
      </trkpt>
      <trkpt lat="46.98988" lon="8.85064">
        <ele>1401</ele>
        <time>2021-08-04T07:43:28.806Z</time>
      </trkpt>
      <trkpt lat="46.98989" lon="8.85063">
        <ele>1401</ele>
        <time>2021-08-04T07:43:29.806Z</time>
      </trkpt>
      <trkpt lat="46.9899" lon="8.85062">
        <ele>1401</ele>
        <time>2021-08-04T07:43:30.806Z</time>
      </trkpt>
      <trkpt lat="46.9899" lon="8.85061">
        <ele>1401</ele>
        <time>2021-08-04T07:43:31.806Z</time>
      </trkpt>
      <trkpt lat="46.98991" lon="8.8506">
        <ele>1401</ele>
        <time>2021-08-04T07:43:32.807Z</time>
      </trkpt>
      <trkpt lat="46.98992" lon="8.85059">
        <ele>1401</ele>
        <time>2021-08-04T07:43:33.806Z</time>
      </trkpt>
      <trkpt lat="46.98993" lon="8.85058">
        <ele>1401</ele>
        <time>2021-08-04T07:43:34.806Z</time>
      </trkpt>
      <trkpt lat="46.98994" lon="8.85058">
        <ele>1401</ele>
        <time>2021-08-04T07:43:35.807Z</time>
      </trkpt>
      <trkpt lat="46.98995" lon="8.85057">
        <ele>1401</ele>
        <time>2021-08-04T07:43:36.807Z</time>
      </trkpt>
      <trkpt lat="46.98996" lon="8.85056">
        <ele>1401</ele>
        <time>2021-08-04T07:43:37.806Z</time>
      </trkpt>
      <trkpt lat="46.98997" lon="8.85055">
        <ele>1400</ele>
        <time>2021-08-04T07:43:38.806Z</time>
      </trkpt>
      <trkpt lat="46.98998" lon="8.85054">
        <ele>1400</ele>
        <time>2021-08-04T07:43:39.806Z</time>
      </trkpt>
      <trkpt lat="46.98998" lon="8.85052">
        <ele>1399</ele>
        <time>2021-08-04T07:43:40.806Z</time>
      </trkpt>
      <trkpt lat="46.98998" lon="8.85051">
        <ele>1398</ele>
        <time>2021-08-04T07:43:41.806Z</time>
      </trkpt>
      <trkpt lat="46.98998" lon="8.8505">
        <ele>1397</ele>
        <time>2021-08-04T07:43:42.806Z</time>
      </trkpt>
      <trkpt lat="46.98998" lon="8.85049">
        <ele>1396</ele>
        <time>2021-08-04T07:43:43.806Z</time>
      </trkpt>
      <trkpt lat="46.98998" lon="8.85048">
        <ele>1396</ele>
        <time>2021-08-04T07:43:44.806Z</time>
      </trkpt>
      <trkpt lat="46.98997" lon="8.85047">
        <ele>1395</ele>
        <time>2021-08-04T07:43:45.806Z</time>
      </trkpt>
      <trkpt lat="46.98997" lon="8.85045">
        <ele>1394</ele>
        <time>2021-08-04T07:43:46.806Z</time>
      </trkpt>
      <trkpt lat="46.98996" lon="8.85044">
        <ele>1394</ele>
        <time>2021-08-04T07:43:47.806Z</time>
      </trkpt>
      <trkpt lat="46.98996" lon="8.85043">
        <ele>1394</ele>
        <time>2021-08-04T07:43:48.806Z</time>
      </trkpt>
      <trkpt lat="46.98995" lon="8.85042">
        <ele>1393</ele>
        <time>2021-08-04T07:43:49.806Z</time>
      </trkpt>
      <trkpt lat="46.98994" lon="8.85041">
        <ele>1393</ele>
        <time>2021-08-04T07:43:50.806Z</time>
      </trkpt>
      <trkpt lat="46.98993" lon="8.85041">
        <ele>1392</ele>
        <time>2021-08-04T07:43:51.806Z</time>
      </trkpt>
      <trkpt lat="46.98992" lon="8.8504">
        <ele>1392</ele>
        <time>2021-08-04T07:43:52.806Z</time>
      </trkpt>
      <trkpt lat="46.98991" lon="8.85039">
        <ele>1392</ele>
        <time>2021-08-04T07:43:53.807Z</time>
      </trkpt>
      <trkpt lat="46.98989" lon="8.85037">
        <ele>1392</ele>
        <time>2021-08-04T07:43:54.807Z</time>
      </trkpt>
      <trkpt lat="46.98988" lon="8.85037">
        <ele>1391</ele>
        <time>2021-08-04T07:43:55.807Z</time>
      </trkpt>
      <trkpt lat="46.98986" lon="8.85037">
        <ele>1391</ele>
        <time>2021-08-04T07:43:56.807Z</time>
      </trkpt>
      <trkpt lat="46.98985" lon="8.85037">
        <ele>1391</ele>
        <time>2021-08-04T07:43:57.807Z</time>
      </trkpt>
      <trkpt lat="46.98983" lon="8.85037">
        <ele>1391</ele>
        <time>2021-08-04T07:43:58.806Z</time>
      </trkpt>
      <trkpt lat="46.98982" lon="8.85036">
        <ele>1391</ele>
        <time>2021-08-04T07:43:59.807Z</time>
      </trkpt>
      <trkpt lat="46.9898" lon="8.85035">
        <ele>1391</ele>
        <time>2021-08-04T07:44:00.806Z</time>
      </trkpt>
      <trkpt lat="46.98979" lon="8.85035">
        <ele>1390</ele>
        <time>2021-08-04T07:44:01.807Z</time>
      </trkpt>
      <trkpt lat="46.98977" lon="8.85034">
        <ele>1390</ele>
        <time>2021-08-04T07:44:02.807Z</time>
      </trkpt>
      <trkpt lat="46.98976" lon="8.85034">
        <ele>1390</ele>
        <time>2021-08-04T07:44:03.806Z</time>
      </trkpt>
      <trkpt lat="46.98974" lon="8.85033">
        <ele>1389</ele>
        <time>2021-08-04T07:44:04.807Z</time>
      </trkpt>
      <trkpt lat="46.98973" lon="8.85033">
        <ele>1388</ele>
        <time>2021-08-04T07:44:05.807Z</time>
      </trkpt>
      <trkpt lat="46.98973" lon="8.85033">
        <ele>1388</ele>
        <time>2021-08-04T07:44:06.807Z</time>
      </trkpt>
      <trkpt lat="46.98972" lon="8.85033">
        <ele>1388</ele>
        <time>2021-08-04T07:44:07.806Z</time>
      </trkpt>
      <trkpt lat="46.98971" lon="8.85033">
        <ele>1387</ele>
        <time>2021-08-04T07:44:08.807Z</time>
      </trkpt>
      <trkpt lat="46.98971" lon="8.85034">
        <ele>1387</ele>
        <time>2021-08-04T07:44:09.806Z</time>
      </trkpt>
      <trkpt lat="46.9897" lon="8.85035">
        <ele>1386</ele>
        <time>2021-08-04T07:44:10.807Z</time>
      </trkpt>
      <trkpt lat="46.9897" lon="8.85036">
        <ele>1386</ele>
        <time>2021-08-04T07:44:11.806Z</time>
      </trkpt>
      <trkpt lat="46.98968" lon="8.85037">
        <ele>1386</ele>
        <time>2021-08-04T07:44:12.806Z</time>
      </trkpt>
      <trkpt lat="46.98967" lon="8.85036">
        <ele>1385</ele>
        <time>2021-08-04T07:44:13.806Z</time>
      </trkpt>
      <trkpt lat="46.98965" lon="8.85036">
        <ele>1385</ele>
        <time>2021-08-04T07:44:14.807Z</time>
      </trkpt>
      <trkpt lat="46.98963" lon="8.85036">
        <ele>1385</ele>
        <time>2021-08-04T07:44:15.807Z</time>
      </trkpt>
      <trkpt lat="46.98963" lon="8.85036">
        <ele>1384</ele>
        <time>2021-08-04T07:44:16.807Z</time>
      </trkpt>
      <trkpt lat="46.98962" lon="8.85035">
        <ele>1383</ele>
        <time>2021-08-04T07:44:17.806Z</time>
      </trkpt>
      <trkpt lat="46.98961" lon="8.85034">
        <ele>1383</ele>
        <time>2021-08-04T07:44:18.807Z</time>
      </trkpt>
      <trkpt lat="46.98961" lon="8.85034">
        <ele>1382</ele>
        <time>2021-08-04T07:44:19.807Z</time>
      </trkpt>
      <trkpt lat="46.9896" lon="8.85033">
        <ele>1382</ele>
        <time>2021-08-04T07:44:20.806Z</time>
      </trkpt>
      <trkpt lat="46.9896" lon="8.85032">
        <ele>1382</ele>
        <time>2021-08-04T07:44:21.807Z</time>
      </trkpt>
      <trkpt lat="46.9896" lon="8.85031">
        <ele>1381</ele>
        <time>2021-08-04T07:44:22.807Z</time>
      </trkpt>
      <trkpt lat="46.9896" lon="8.8503">
        <ele>1382</ele>
        <time>2021-08-04T07:44:23.807Z</time>
      </trkpt>
      <trkpt lat="46.9896" lon="8.85029">
        <ele>1382</ele>
        <time>2021-08-04T07:44:24.807Z</time>
      </trkpt>
      <trkpt lat="46.9896" lon="8.85028">
        <ele>1382</ele>
        <time>2021-08-04T07:44:25.807Z</time>
      </trkpt>
      <trkpt lat="46.9896" lon="8.85027">
        <ele>1382</ele>
        <time>2021-08-04T07:44:26.807Z</time>
      </trkpt>
      <trkpt lat="46.98961" lon="8.85026">
        <ele>1382</ele>
        <time>2021-08-04T07:44:27.806Z</time>
      </trkpt>
      <trkpt lat="46.98961" lon="8.85025">
        <ele>1382</ele>
        <time>2021-08-04T07:44:28.807Z</time>
      </trkpt>
      <trkpt lat="46.98961" lon="8.85023">
        <ele>1383</ele>
        <time>2021-08-04T07:44:29.807Z</time>
      </trkpt>
      <trkpt lat="46.9896" lon="8.85022">
        <ele>1383</ele>
        <time>2021-08-04T07:44:30.806Z</time>
      </trkpt>
      <trkpt lat="46.9896" lon="8.85022">
        <ele>1383</ele>
        <time>2021-08-04T07:44:31.807Z</time>
      </trkpt>
      <trkpt lat="46.98959" lon="8.85022">
        <ele>1383</ele>
        <time>2021-08-04T07:44:32.807Z</time>
      </trkpt>
      <trkpt lat="46.98959" lon="8.85022">
        <ele>1383</ele>
        <time>2021-08-04T07:44:33.806Z</time>
      </trkpt>
      <trkpt lat="46.9896" lon="8.85022">
        <ele>1383</ele>
        <time>2021-08-04T07:44:34.806Z</time>
      </trkpt>
      <trkpt lat="46.98961" lon="8.85021">
        <ele>1383</ele>
        <time>2021-08-04T07:44:35.807Z</time>
      </trkpt>
      <trkpt lat="46.98961" lon="8.8502">
        <ele>1384</ele>
        <time>2021-08-04T07:44:36.807Z</time>
      </trkpt>
      <trkpt lat="46.98961" lon="8.85019">
        <ele>1384</ele>
        <time>2021-08-04T07:44:37.806Z</time>
      </trkpt>
      <trkpt lat="46.98961" lon="8.85018">
        <ele>1384</ele>
        <time>2021-08-04T07:44:38.806Z</time>
      </trkpt>
      <trkpt lat="46.9896" lon="8.85016">
        <ele>1384</ele>
        <time>2021-08-04T07:44:39.806Z</time>
      </trkpt>
      <trkpt lat="46.9896" lon="8.85014">
        <ele>1384</ele>
        <time>2021-08-04T07:44:40.806Z</time>
      </trkpt>
      <trkpt lat="46.98959" lon="8.85012">
        <ele>1384</ele>
        <time>2021-08-04T07:44:41.806Z</time>
      </trkpt>
      <trkpt lat="46.98958" lon="8.85011">
        <ele>1384</ele>
        <time>2021-08-04T07:44:42.807Z</time>
      </trkpt>
      <trkpt lat="46.98957" lon="8.8501">
        <ele>1384</ele>
        <time>2021-08-04T07:44:43.806Z</time>
      </trkpt>
      <trkpt lat="46.98957" lon="8.85008">
        <ele>1384</ele>
        <time>2021-08-04T07:44:44.807Z</time>
      </trkpt>
      <trkpt lat="46.98956" lon="8.85007">
        <ele>1383</ele>
        <time>2021-08-04T07:44:45.806Z</time>
      </trkpt>
      <trkpt lat="46.98955" lon="8.85006">
        <ele>1382</ele>
        <time>2021-08-04T07:44:46.806Z</time>
      </trkpt>
      <trkpt lat="46.98954" lon="8.85004">
        <ele>1381</ele>
        <time>2021-08-04T07:44:47.806Z</time>
      </trkpt>
      <trkpt lat="46.98953" lon="8.85002">
        <ele>1381</ele>
        <time>2021-08-04T07:44:48.806Z</time>
      </trkpt>
      <trkpt lat="46.98952" lon="8.85001">
        <ele>1380</ele>
        <time>2021-08-04T07:44:49.807Z</time>
      </trkpt>
      <trkpt lat="46.98951" lon="8.84999">
        <ele>1379</ele>
        <time>2021-08-04T07:44:50.806Z</time>
      </trkpt>
      <trkpt lat="46.9895" lon="8.84997">
        <ele>1378</ele>
        <time>2021-08-04T07:44:51.807Z</time>
      </trkpt>
      <trkpt lat="46.9895" lon="8.84996">
        <ele>1377</ele>
        <time>2021-08-04T07:44:52.807Z</time>
      </trkpt>
      <trkpt lat="46.9895" lon="8.84994">
        <ele>1377</ele>
        <time>2021-08-04T07:44:53.807Z</time>
      </trkpt>
      <trkpt lat="46.98949" lon="8.84992">
        <ele>1377</ele>
        <time>2021-08-04T07:44:54.806Z</time>
      </trkpt>
      <trkpt lat="46.98948" lon="8.8499">
        <ele>1377</ele>
        <time>2021-08-04T07:44:55.806Z</time>
      </trkpt>
      <trkpt lat="46.98948" lon="8.84989">
        <ele>1377</ele>
        <time>2021-08-04T07:44:56.806Z</time>
      </trkpt>
      <trkpt lat="46.98948" lon="8.84988">
        <ele>1376</ele>
        <time>2021-08-04T07:44:57.806Z</time>
      </trkpt>
      <trkpt lat="46.98948" lon="8.84986">
        <ele>1376</ele>
        <time>2021-08-04T07:44:58.807Z</time>
      </trkpt>
      <trkpt lat="46.98948" lon="8.84985">
        <ele>1377</ele>
        <time>2021-08-04T07:44:59.806Z</time>
      </trkpt>
      <trkpt lat="46.98949" lon="8.84983">
        <ele>1376</ele>
        <time>2021-08-04T07:45:00.806Z</time>
      </trkpt>
      <trkpt lat="46.9895" lon="8.84982">
        <ele>1376</ele>
        <time>2021-08-04T07:45:01.806Z</time>
      </trkpt>
      <trkpt lat="46.98951" lon="8.84981">
        <ele>1377</ele>
        <time>2021-08-04T07:45:02.807Z</time>
      </trkpt>
      <trkpt lat="46.98953" lon="8.8498">
        <ele>1377</ele>
        <time>2021-08-04T07:45:03.807Z</time>
      </trkpt>
      <trkpt lat="46.98954" lon="8.8498">
        <ele>1377</ele>
        <time>2021-08-04T07:45:04.807Z</time>
      </trkpt>
      <trkpt lat="46.98955" lon="8.84979">
        <ele>1377</ele>
        <time>2021-08-04T07:45:05.807Z</time>
      </trkpt>
      <trkpt lat="46.98955" lon="8.84979">
        <ele>1377</ele>
        <time>2021-08-04T07:45:06.806Z</time>
      </trkpt>
      <trkpt lat="46.98956" lon="8.84978">
        <ele>1377</ele>
        <time>2021-08-04T07:45:07.807Z</time>
      </trkpt>
      <trkpt lat="46.98957" lon="8.84978">
        <ele>1376</ele>
        <time>2021-08-04T07:45:08.807Z</time>
      </trkpt>
      <trkpt lat="46.98957" lon="8.84977">
        <ele>1376</ele>
        <time>2021-08-04T07:45:09.806Z</time>
      </trkpt>
      <trkpt lat="46.98958" lon="8.84976">
        <ele>1375</ele>
        <time>2021-08-04T07:45:10.807Z</time>
      </trkpt>
      <trkpt lat="46.98959" lon="8.84975">
        <ele>1375</ele>
        <time>2021-08-04T07:45:11.807Z</time>
      </trkpt>
      <trkpt lat="46.9896" lon="8.84973">
        <ele>1374</ele>
        <time>2021-08-04T07:45:12.807Z</time>
      </trkpt>
      <trkpt lat="46.9896" lon="8.84972">
        <ele>1374</ele>
        <time>2021-08-04T07:45:13.807Z</time>
      </trkpt>
      <trkpt lat="46.98961" lon="8.8497">
        <ele>1373</ele>
        <time>2021-08-04T07:45:14.806Z</time>
      </trkpt>
      <trkpt lat="46.98961" lon="8.84969">
        <ele>1373</ele>
        <time>2021-08-04T07:45:15.806Z</time>
      </trkpt>
      <trkpt lat="46.98963" lon="8.84968">
        <ele>1373</ele>
        <time>2021-08-04T07:45:16.807Z</time>
      </trkpt>
      <trkpt lat="46.98963" lon="8.84967">
        <ele>1373</ele>
        <time>2021-08-04T07:45:17.807Z</time>
      </trkpt>
      <trkpt lat="46.98964" lon="8.84966">
        <ele>1373</ele>
        <time>2021-08-04T07:45:18.807Z</time>
      </trkpt>
      <trkpt lat="46.98965" lon="8.84965">
        <ele>1373</ele>
        <time>2021-08-04T07:45:19.807Z</time>
      </trkpt>
      <trkpt lat="46.98966" lon="8.84964">
        <ele>1373</ele>
        <time>2021-08-04T07:45:20.807Z</time>
      </trkpt>
      <trkpt lat="46.98967" lon="8.84963">
        <ele>1373</ele>
        <time>2021-08-04T07:45:21.806Z</time>
      </trkpt>
      <trkpt lat="46.98967" lon="8.84962">
        <ele>1373</ele>
        <time>2021-08-04T07:45:22.806Z</time>
      </trkpt>
      <trkpt lat="46.98967" lon="8.84962">
        <ele>1372</ele>
        <time>2021-08-04T07:45:23.806Z</time>
      </trkpt>
      <trkpt lat="46.98968" lon="8.84961">
        <ele>1371</ele>
        <time>2021-08-04T07:45:24.806Z</time>
      </trkpt>
      <trkpt lat="46.98969" lon="8.8496">
        <ele>1371</ele>
        <time>2021-08-04T07:45:25.806Z</time>
      </trkpt>
      <trkpt lat="46.9897" lon="8.84958">
        <ele>1370</ele>
        <time>2021-08-04T07:45:26.806Z</time>
      </trkpt>
      <trkpt lat="46.9897" lon="8.84957">
        <ele>1370</ele>
        <time>2021-08-04T07:45:27.807Z</time>
      </trkpt>
      <trkpt lat="46.9897" lon="8.84955">
        <ele>1370</ele>
        <time>2021-08-04T07:45:28.806Z</time>
      </trkpt>
      <trkpt lat="46.98971" lon="8.84953">
        <ele>1370</ele>
        <time>2021-08-04T07:45:29.807Z</time>
      </trkpt>
      <trkpt lat="46.98972" lon="8.84952">
        <ele>1369</ele>
        <time>2021-08-04T07:45:30.807Z</time>
      </trkpt>
      <trkpt lat="46.98972" lon="8.8495">
        <ele>1369</ele>
        <time>2021-08-04T07:45:31.807Z</time>
      </trkpt>
      <trkpt lat="46.98972" lon="8.84948">
        <ele>1369</ele>
        <time>2021-08-04T07:45:32.807Z</time>
      </trkpt>
      <trkpt lat="46.98972" lon="8.84946">
        <ele>1369</ele>
        <time>2021-08-04T07:45:33.806Z</time>
      </trkpt>
      <trkpt lat="46.98971" lon="8.84944">
        <ele>1369</ele>
        <time>2021-08-04T07:45:34.806Z</time>
      </trkpt>
      <trkpt lat="46.9897" lon="8.84942">
        <ele>1370</ele>
        <time>2021-08-04T07:45:35.806Z</time>
      </trkpt>
      <trkpt lat="46.98969" lon="8.84941">
        <ele>1370</ele>
        <time>2021-08-04T07:45:36.807Z</time>
      </trkpt>
      <trkpt lat="46.98969" lon="8.84939">
        <ele>1371</ele>
        <time>2021-08-04T07:45:37.806Z</time>
      </trkpt>
      <trkpt lat="46.98968" lon="8.84938">
        <ele>1371</ele>
        <time>2021-08-04T07:45:38.807Z</time>
      </trkpt>
      <trkpt lat="46.98967" lon="8.84937">
        <ele>1372</ele>
        <time>2021-08-04T07:45:39.807Z</time>
      </trkpt>
      <trkpt lat="46.98967" lon="8.84937">
        <ele>1372</ele>
        <time>2021-08-04T07:45:40.807Z</time>
      </trkpt>
      <trkpt lat="46.98966" lon="8.84936">
        <ele>1372</ele>
        <time>2021-08-04T07:45:41.806Z</time>
      </trkpt>
      <trkpt lat="46.98965" lon="8.84935">
        <ele>1372</ele>
        <time>2021-08-04T07:45:42.806Z</time>
      </trkpt>
      <trkpt lat="46.98965" lon="8.84935">
        <ele>1372</ele>
        <time>2021-08-04T07:45:43.807Z</time>
      </trkpt>
      <trkpt lat="46.98964" lon="8.84934">
        <ele>1373</ele>
        <time>2021-08-04T07:45:44.807Z</time>
      </trkpt>
      <trkpt lat="46.98964" lon="8.84934">
        <ele>1373</ele>
        <time>2021-08-04T07:45:45.807Z</time>
      </trkpt>
      <trkpt lat="46.98963" lon="8.84935">
        <ele>1373</ele>
        <time>2021-08-04T07:45:46.806Z</time>
      </trkpt>
      <trkpt lat="46.98961" lon="8.84934">
        <ele>1373</ele>
        <time>2021-08-04T07:45:47.807Z</time>
      </trkpt>
      <trkpt lat="46.9896" lon="8.84933">
        <ele>1373</ele>
        <time>2021-08-04T07:45:48.807Z</time>
      </trkpt>
      <trkpt lat="46.98959" lon="8.84932">
        <ele>1373</ele>
        <time>2021-08-04T07:45:49.807Z</time>
      </trkpt>
      <trkpt lat="46.98957" lon="8.8493">
        <ele>1372</ele>
        <time>2021-08-04T07:45:50.807Z</time>
      </trkpt>
      <trkpt lat="46.98955" lon="8.84929">
        <ele>1372</ele>
        <time>2021-08-04T07:45:51.807Z</time>
      </trkpt>
      <trkpt lat="46.98954" lon="8.84929">
        <ele>1371</ele>
        <time>2021-08-04T07:45:52.806Z</time>
      </trkpt>
      <trkpt lat="46.98954" lon="8.84929">
        <ele>1370</ele>
        <time>2021-08-04T07:45:53.807Z</time>
      </trkpt>
      <trkpt lat="46.98953" lon="8.84928">
        <ele>1369</ele>
        <time>2021-08-04T07:45:54.807Z</time>
      </trkpt>
      <trkpt lat="46.98952" lon="8.84927">
        <ele>1368</ele>
        <time>2021-08-04T07:45:55.807Z</time>
      </trkpt>
      <trkpt lat="46.98951" lon="8.84924">
        <ele>1368</ele>
        <time>2021-08-04T07:45:56.807Z</time>
      </trkpt>
      <trkpt lat="46.98951" lon="8.84923">
        <ele>1368</ele>
        <time>2021-08-04T07:45:57.807Z</time>
      </trkpt>
      <trkpt lat="46.9895" lon="8.84921">
        <ele>1367</ele>
        <time>2021-08-04T07:45:58.807Z</time>
      </trkpt>
      <trkpt lat="46.98951" lon="8.8492">
        <ele>1367</ele>
        <time>2021-08-04T07:45:59.807Z</time>
      </trkpt>
      <trkpt lat="46.98951" lon="8.84919">
        <ele>1367</ele>
        <time>2021-08-04T07:46:00.807Z</time>
      </trkpt>
      <trkpt lat="46.98951" lon="8.84918">
        <ele>1367</ele>
        <time>2021-08-04T07:46:01.806Z</time>
      </trkpt>
      <trkpt lat="46.98951" lon="8.84917">
        <ele>1367</ele>
        <time>2021-08-04T07:46:02.807Z</time>
      </trkpt>
      <trkpt lat="46.98952" lon="8.84916">
        <ele>1367</ele>
        <time>2021-08-04T07:46:03.807Z</time>
      </trkpt>
      <trkpt lat="46.98952" lon="8.84915">
        <ele>1367</ele>
        <time>2021-08-04T07:46:04.807Z</time>
      </trkpt>
      <trkpt lat="46.98953" lon="8.84914">
        <ele>1367</ele>
        <time>2021-08-04T07:46:05.806Z</time>
      </trkpt>
      <trkpt lat="46.98953" lon="8.84914">
        <ele>1368</ele>
        <time>2021-08-04T07:46:06.807Z</time>
      </trkpt>
      <trkpt lat="46.98954" lon="8.84913">
        <ele>1368</ele>
        <time>2021-08-04T07:46:07.807Z</time>
      </trkpt>
      <trkpt lat="46.98954" lon="8.84912">
        <ele>1368</ele>
        <time>2021-08-04T07:46:08.806Z</time>
      </trkpt>
      <trkpt lat="46.98954" lon="8.84911">
        <ele>1368</ele>
        <time>2021-08-04T07:46:09.807Z</time>
      </trkpt>
      <trkpt lat="46.98953" lon="8.8491">
        <ele>1368</ele>
        <time>2021-08-04T07:46:10.807Z</time>
      </trkpt>
      <trkpt lat="46.98952" lon="8.84909">
        <ele>1368</ele>
        <time>2021-08-04T07:46:11.806Z</time>
      </trkpt>
      <trkpt lat="46.98951" lon="8.84908">
        <ele>1367</ele>
        <time>2021-08-04T07:46:12.806Z</time>
      </trkpt>
      <trkpt lat="46.98951" lon="8.84908">
        <ele>1367</ele>
        <time>2021-08-04T07:46:13.806Z</time>
      </trkpt>
      <trkpt lat="46.98951" lon="8.84907">
        <ele>1365</ele>
        <time>2021-08-04T07:46:14.806Z</time>
      </trkpt>
      <trkpt lat="46.98951" lon="8.84906">
        <ele>1363</ele>
        <time>2021-08-04T07:46:15.807Z</time>
      </trkpt>
      <trkpt lat="46.98951" lon="8.84904">
        <ele>1362</ele>
        <time>2021-08-04T07:46:16.807Z</time>
      </trkpt>
      <trkpt lat="46.98951" lon="8.84903">
        <ele>1360</ele>
        <time>2021-08-04T07:46:17.807Z</time>
      </trkpt>
      <trkpt lat="46.98951" lon="8.84901">
        <ele>1360</ele>
        <time>2021-08-04T07:46:18.807Z</time>
      </trkpt>
      <trkpt lat="46.98951" lon="8.849">
        <ele>1359</ele>
        <time>2021-08-04T07:46:19.807Z</time>
      </trkpt>
      <trkpt lat="46.98951" lon="8.84898">
        <ele>1358</ele>
        <time>2021-08-04T07:46:20.807Z</time>
      </trkpt>
      <trkpt lat="46.98951" lon="8.84896">
        <ele>1357</ele>
        <time>2021-08-04T07:46:21.807Z</time>
      </trkpt>
      <trkpt lat="46.98951" lon="8.84895">
        <ele>1356</ele>
        <time>2021-08-04T07:46:22.807Z</time>
      </trkpt>
      <trkpt lat="46.98951" lon="8.84894">
        <ele>1356</ele>
        <time>2021-08-04T07:46:23.806Z</time>
      </trkpt>
      <trkpt lat="46.98951" lon="8.84892">
        <ele>1355</ele>
        <time>2021-08-04T07:46:24.806Z</time>
      </trkpt>
      <trkpt lat="46.98952" lon="8.8489">
        <ele>1355</ele>
        <time>2021-08-04T07:46:25.807Z</time>
      </trkpt>
      <trkpt lat="46.98952" lon="8.84889">
        <ele>1354</ele>
        <time>2021-08-04T07:46:26.806Z</time>
      </trkpt>
      <trkpt lat="46.98953" lon="8.84888">
        <ele>1354</ele>
        <time>2021-08-04T07:46:27.806Z</time>
      </trkpt>
      <trkpt lat="46.98953" lon="8.84886">
        <ele>1354</ele>
        <time>2021-08-04T07:46:28.807Z</time>
      </trkpt>
      <trkpt lat="46.98954" lon="8.84884">
        <ele>1354</ele>
        <time>2021-08-04T07:46:29.806Z</time>
      </trkpt>
      <trkpt lat="46.98954" lon="8.84881">
        <ele>1354</ele>
        <time>2021-08-04T07:46:30.806Z</time>
      </trkpt>
      <trkpt lat="46.98955" lon="8.84879">
        <ele>1354</ele>
        <time>2021-08-04T07:46:31.807Z</time>
      </trkpt>
      <trkpt lat="46.98956" lon="8.84877">
        <ele>1354</ele>
        <time>2021-08-04T07:46:32.807Z</time>
      </trkpt>
      <trkpt lat="46.98958" lon="8.84875">
        <ele>1354</ele>
        <time>2021-08-04T07:46:33.807Z</time>
      </trkpt>
      <trkpt lat="46.98959" lon="8.84873">
        <ele>1354</ele>
        <time>2021-08-04T07:46:34.806Z</time>
      </trkpt>
      <trkpt lat="46.98959" lon="8.84871">
        <ele>1354</ele>
        <time>2021-08-04T07:46:35.806Z</time>
      </trkpt>
      <trkpt lat="46.98959" lon="8.8487">
        <ele>1354</ele>
        <time>2021-08-04T07:46:36.807Z</time>
      </trkpt>
      <trkpt lat="46.98957" lon="8.84868">
        <ele>1354</ele>
        <time>2021-08-04T07:46:37.807Z</time>
      </trkpt>
      <trkpt lat="46.98956" lon="8.84867">
        <ele>1354</ele>
        <time>2021-08-04T07:46:38.806Z</time>
      </trkpt>
      <trkpt lat="46.98954" lon="8.84865">
        <ele>1354</ele>
        <time>2021-08-04T07:46:39.807Z</time>
      </trkpt>
      <trkpt lat="46.98954" lon="8.84864">
        <ele>1353</ele>
        <time>2021-08-04T07:46:40.807Z</time>
      </trkpt>
      <trkpt lat="46.98953" lon="8.84863">
        <ele>1353</ele>
        <time>2021-08-04T07:46:41.807Z</time>
      </trkpt>
      <trkpt lat="46.98952" lon="8.84862">
        <ele>1353</ele>
        <time>2021-08-04T07:46:42.807Z</time>
      </trkpt>
      <trkpt lat="46.98952" lon="8.84861">
        <ele>1353</ele>
        <time>2021-08-04T07:46:43.807Z</time>
      </trkpt>
      <trkpt lat="46.98951" lon="8.84859">
        <ele>1352</ele>
        <time>2021-08-04T07:46:44.807Z</time>
      </trkpt>
      <trkpt lat="46.98951" lon="8.84858">
        <ele>1352</ele>
        <time>2021-08-04T07:46:45.807Z</time>
      </trkpt>
      <trkpt lat="46.9895" lon="8.84857">
        <ele>1352</ele>
        <time>2021-08-04T07:46:46.806Z</time>
      </trkpt>
      <trkpt lat="46.98949" lon="8.84856">
        <ele>1352</ele>
        <time>2021-08-04T07:46:47.807Z</time>
      </trkpt>
      <trkpt lat="46.98949" lon="8.84854">
        <ele>1351</ele>
        <time>2021-08-04T07:46:48.807Z</time>
      </trkpt>
      <trkpt lat="46.98948" lon="8.84853">
        <ele>1351</ele>
        <time>2021-08-04T07:46:49.807Z</time>
      </trkpt>
      <trkpt lat="46.98947" lon="8.84852">
        <ele>1351</ele>
        <time>2021-08-04T07:46:50.806Z</time>
      </trkpt>
      <trkpt lat="46.98946" lon="8.8485">
        <ele>1350</ele>
        <time>2021-08-04T07:46:51.806Z</time>
      </trkpt>
      <trkpt lat="46.98945" lon="8.84849">
        <ele>1350</ele>
        <time>2021-08-04T07:46:52.807Z</time>
      </trkpt>
      <trkpt lat="46.98945" lon="8.84848">
        <ele>1349</ele>
        <time>2021-08-04T07:46:53.806Z</time>
      </trkpt>
      <trkpt lat="46.98945" lon="8.84847">
        <ele>1349</ele>
        <time>2021-08-04T07:46:54.806Z</time>
      </trkpt>
      <trkpt lat="46.98945" lon="8.84846">
        <ele>1348</ele>
        <time>2021-08-04T07:46:55.806Z</time>
      </trkpt>
      <trkpt lat="46.98945" lon="8.84844">
        <ele>1348</ele>
        <time>2021-08-04T07:46:56.806Z</time>
      </trkpt>
      <trkpt lat="46.98944" lon="8.84843">
        <ele>1347</ele>
        <time>2021-08-04T07:46:57.806Z</time>
      </trkpt>
      <trkpt lat="46.98944" lon="8.84842">
        <ele>1347</ele>
        <time>2021-08-04T07:46:58.806Z</time>
      </trkpt>
      <trkpt lat="46.98944" lon="8.8484">
        <ele>1347</ele>
        <time>2021-08-04T07:46:59.806Z</time>
      </trkpt>
      <trkpt lat="46.98943" lon="8.84838">
        <ele>1346</ele>
        <time>2021-08-04T07:47:00.806Z</time>
      </trkpt>
      <trkpt lat="46.98943" lon="8.84836">
        <ele>1346</ele>
        <time>2021-08-04T07:47:01.806Z</time>
      </trkpt>
      <trkpt lat="46.98942" lon="8.84835">
        <ele>1346</ele>
        <time>2021-08-04T07:47:02.807Z</time>
      </trkpt>
      <trkpt lat="46.98942" lon="8.84834">
        <ele>1346</ele>
        <time>2021-08-04T07:47:03.807Z</time>
      </trkpt>
      <trkpt lat="46.98942" lon="8.84832">
        <ele>1346</ele>
        <time>2021-08-04T07:47:04.807Z</time>
      </trkpt>
      <trkpt lat="46.98943" lon="8.84831">
        <ele>1346</ele>
        <time>2021-08-04T07:47:05.807Z</time>
      </trkpt>
      <trkpt lat="46.98943" lon="8.84829">
        <ele>1346</ele>
        <time>2021-08-04T07:47:06.806Z</time>
      </trkpt>
      <trkpt lat="46.98942" lon="8.84827">
        <ele>1346</ele>
        <time>2021-08-04T07:47:07.806Z</time>
      </trkpt>
      <trkpt lat="46.98942" lon="8.84825">
        <ele>1346</ele>
        <time>2021-08-04T07:47:08.807Z</time>
      </trkpt>
      <trkpt lat="46.98942" lon="8.84823">
        <ele>1347</ele>
        <time>2021-08-04T07:47:09.807Z</time>
      </trkpt>
      <trkpt lat="46.98942" lon="8.84822">
        <ele>1347</ele>
        <time>2021-08-04T07:47:10.807Z</time>
      </trkpt>
      <trkpt lat="46.98942" lon="8.8482">
        <ele>1347</ele>
        <time>2021-08-04T07:47:11.807Z</time>
      </trkpt>
      <trkpt lat="46.98942" lon="8.84818">
        <ele>1347</ele>
        <time>2021-08-04T07:47:12.807Z</time>
      </trkpt>
      <trkpt lat="46.98941" lon="8.84817">
        <ele>1348</ele>
        <time>2021-08-04T07:47:13.807Z</time>
      </trkpt>
      <trkpt lat="46.98941" lon="8.84815">
        <ele>1348</ele>
        <time>2021-08-04T07:47:14.806Z</time>
      </trkpt>
      <trkpt lat="46.98941" lon="8.84813">
        <ele>1348</ele>
        <time>2021-08-04T07:47:15.806Z</time>
      </trkpt>
      <trkpt lat="46.9894" lon="8.84811">
        <ele>1348</ele>
        <time>2021-08-04T07:47:16.806Z</time>
      </trkpt>
      <trkpt lat="46.9894" lon="8.84809">
        <ele>1348</ele>
        <time>2021-08-04T07:47:17.807Z</time>
      </trkpt>
      <trkpt lat="46.98939" lon="8.84808">
        <ele>1348</ele>
        <time>2021-08-04T07:47:18.807Z</time>
      </trkpt>
      <trkpt lat="46.98939" lon="8.84806">
        <ele>1348</ele>
        <time>2021-08-04T07:47:19.807Z</time>
      </trkpt>
      <trkpt lat="46.98939" lon="8.84804">
        <ele>1347</ele>
        <time>2021-08-04T07:47:20.807Z</time>
      </trkpt>
      <trkpt lat="46.98939" lon="8.84802">
        <ele>1347</ele>
        <time>2021-08-04T07:47:21.807Z</time>
      </trkpt>
      <trkpt lat="46.98939" lon="8.848">
        <ele>1347</ele>
        <time>2021-08-04T07:47:22.806Z</time>
      </trkpt>
      <trkpt lat="46.98938" lon="8.84798">
        <ele>1346</ele>
        <time>2021-08-04T07:47:23.806Z</time>
      </trkpt>
      <trkpt lat="46.98938" lon="8.84797">
        <ele>1346</ele>
        <time>2021-08-04T07:47:24.806Z</time>
      </trkpt>
      <trkpt lat="46.98938" lon="8.84796">
        <ele>1345</ele>
        <time>2021-08-04T07:47:25.807Z</time>
      </trkpt>
      <trkpt lat="46.98937" lon="8.84795">
        <ele>1345</ele>
        <time>2021-08-04T07:47:26.807Z</time>
      </trkpt>
      <trkpt lat="46.98936" lon="8.84793">
        <ele>1345</ele>
        <time>2021-08-04T07:47:27.807Z</time>
      </trkpt>
      <trkpt lat="46.98936" lon="8.84792">
        <ele>1344</ele>
        <time>2021-08-04T07:47:28.807Z</time>
      </trkpt>
      <trkpt lat="46.98936" lon="8.8479">
        <ele>1344</ele>
        <time>2021-08-04T07:47:29.807Z</time>
      </trkpt>
      <trkpt lat="46.98935" lon="8.84789">
        <ele>1343</ele>
        <time>2021-08-04T07:47:30.807Z</time>
      </trkpt>
      <trkpt lat="46.98935" lon="8.84788">
        <ele>1343</ele>
        <time>2021-08-04T07:47:31.807Z</time>
      </trkpt>
      <trkpt lat="46.98934" lon="8.84787">
        <ele>1342</ele>
        <time>2021-08-04T07:47:32.807Z</time>
      </trkpt>
      <trkpt lat="46.98934" lon="8.84786">
        <ele>1341</ele>
        <time>2021-08-04T07:47:33.807Z</time>
      </trkpt>
      <trkpt lat="46.98934" lon="8.84785">
        <ele>1341</ele>
        <time>2021-08-04T07:47:34.806Z</time>
      </trkpt>
      <trkpt lat="46.98935" lon="8.84783">
        <ele>1340</ele>
        <time>2021-08-04T07:47:35.806Z</time>
      </trkpt>
      <trkpt lat="46.98934" lon="8.84782">
        <ele>1339</ele>
        <time>2021-08-04T07:47:36.806Z</time>
      </trkpt>
      <trkpt lat="46.98934" lon="8.8478">
        <ele>1339</ele>
        <time>2021-08-04T07:47:37.806Z</time>
      </trkpt>
      <trkpt lat="46.98935" lon="8.84778">
        <ele>1339</ele>
        <time>2021-08-04T07:47:38.806Z</time>
      </trkpt>
      <trkpt lat="46.98935" lon="8.84775">
        <ele>1338</ele>
        <time>2021-08-04T07:47:39.807Z</time>
      </trkpt>
      <trkpt lat="46.98935" lon="8.84773">
        <ele>1338</ele>
        <time>2021-08-04T07:47:40.807Z</time>
      </trkpt>
      <trkpt lat="46.98935" lon="8.84771">
        <ele>1338</ele>
        <time>2021-08-04T07:47:41.807Z</time>
      </trkpt>
      <trkpt lat="46.98935" lon="8.8477">
        <ele>1338</ele>
        <time>2021-08-04T07:47:42.807Z</time>
      </trkpt>
      <trkpt lat="46.98934" lon="8.84768">
        <ele>1338</ele>
        <time>2021-08-04T07:47:43.807Z</time>
      </trkpt>
      <trkpt lat="46.98934" lon="8.84767">
        <ele>1338</ele>
        <time>2021-08-04T07:47:44.806Z</time>
      </trkpt>
      <trkpt lat="46.98934" lon="8.84765">
        <ele>1338</ele>
        <time>2021-08-04T07:47:45.806Z</time>
      </trkpt>
      <trkpt lat="46.98934" lon="8.84764">
        <ele>1338</ele>
        <time>2021-08-04T07:47:46.807Z</time>
      </trkpt>
      <trkpt lat="46.98934" lon="8.84763">
        <ele>1338</ele>
        <time>2021-08-04T07:47:47.807Z</time>
      </trkpt>
      <trkpt lat="46.98935" lon="8.84762">
        <ele>1338</ele>
        <time>2021-08-04T07:47:48.807Z</time>
      </trkpt>
      <trkpt lat="46.98936" lon="8.84761">
        <ele>1338</ele>
        <time>2021-08-04T07:47:49.807Z</time>
      </trkpt>
      <trkpt lat="46.98936" lon="8.84759">
        <ele>1338</ele>
        <time>2021-08-04T07:47:50.807Z</time>
      </trkpt>
      <trkpt lat="46.98936" lon="8.84758">
        <ele>1339</ele>
        <time>2021-08-04T07:47:51.807Z</time>
      </trkpt>
      <trkpt lat="46.98935" lon="8.84757">
        <ele>1339</ele>
        <time>2021-08-04T07:47:52.806Z</time>
      </trkpt>
      <trkpt lat="46.98934" lon="8.84756">
        <ele>1339</ele>
        <time>2021-08-04T07:47:53.806Z</time>
      </trkpt>
      <trkpt lat="46.98934" lon="8.84756">
        <ele>1339</ele>
        <time>2021-08-04T07:47:54.806Z</time>
      </trkpt>
      <trkpt lat="46.98934" lon="8.84755">
        <ele>1339</ele>
        <time>2021-08-04T07:47:55.806Z</time>
      </trkpt>
      <trkpt lat="46.98934" lon="8.84755">
        <ele>1340</ele>
        <time>2021-08-04T07:47:56.807Z</time>
      </trkpt>
      <trkpt lat="46.98933" lon="8.84759">
        <ele>1333</ele>
        <time>2021-08-04T07:47:57.807Z</time>
      </trkpt>
      <trkpt lat="46.98933" lon="8.84758">
        <ele>1333</ele>
        <time>2021-08-04T07:47:58.808Z</time>
      </trkpt>
      <trkpt lat="46.98933" lon="8.84757">
        <ele>1333</ele>
        <time>2021-08-04T07:47:59.808Z</time>
      </trkpt>
      <trkpt lat="46.98933" lon="8.84756">
        <ele>1333</ele>
        <time>2021-08-04T07:48:00.808Z</time>
      </trkpt>
      <trkpt lat="46.98933" lon="8.84755">
        <ele>1333</ele>
        <time>2021-08-04T07:48:01.807Z</time>
      </trkpt>
      <trkpt lat="46.98934" lon="8.84755">
        <ele>1332</ele>
        <time>2021-08-04T07:48:02.807Z</time>
      </trkpt>
      <trkpt lat="46.98934" lon="8.84754">
        <ele>1332</ele>
        <time>2021-08-04T07:48:03.807Z</time>
      </trkpt>
      <trkpt lat="46.98934" lon="8.84753">
        <ele>1332</ele>
        <time>2021-08-04T07:48:04.808Z</time>
      </trkpt>
      <trkpt lat="46.98934" lon="8.84752">
        <ele>1331</ele>
        <time>2021-08-04T07:48:05.808Z</time>
      </trkpt>
      <trkpt lat="46.98933" lon="8.84751">
        <ele>1330</ele>
        <time>2021-08-04T07:48:06.808Z</time>
      </trkpt>
      <trkpt lat="46.98933" lon="8.8475">
        <ele>1330</ele>
        <time>2021-08-04T07:48:07.807Z</time>
      </trkpt>
      <trkpt lat="46.98933" lon="8.84749">
        <ele>1329</ele>
        <time>2021-08-04T07:48:08.807Z</time>
      </trkpt>
      <trkpt lat="46.98932" lon="8.84748">
        <ele>1329</ele>
        <time>2021-08-04T07:48:09.808Z</time>
      </trkpt>
      <trkpt lat="46.98932" lon="8.84747">
        <ele>1329</ele>
        <time>2021-08-04T07:48:10.807Z</time>
      </trkpt>
      <trkpt lat="46.98932" lon="8.84746">
        <ele>1329</ele>
        <time>2021-08-04T07:48:11.808Z</time>
      </trkpt>
      <trkpt lat="46.98932" lon="8.84745">
        <ele>1329</ele>
        <time>2021-08-04T07:48:12.807Z</time>
      </trkpt>
      <trkpt lat="46.98932" lon="8.84744">
        <ele>1328</ele>
        <time>2021-08-04T07:48:13.807Z</time>
      </trkpt>
      <trkpt lat="46.98932" lon="8.84742">
        <ele>1328</ele>
        <time>2021-08-04T07:48:14.807Z</time>
      </trkpt>
      <trkpt lat="46.98932" lon="8.84741">
        <ele>1328</ele>
        <time>2021-08-04T07:48:15.807Z</time>
      </trkpt>
      <trkpt lat="46.98931" lon="8.84739">
        <ele>1328</ele>
        <time>2021-08-04T07:48:16.807Z</time>
      </trkpt>
      <trkpt lat="46.98926" lon="8.84736">
        <ele>1333</ele>
        <time>2021-08-04T07:48:17.808Z</time>
      </trkpt>
      <trkpt lat="46.98926" lon="8.84736">
        <ele>1334</ele>
        <time>2021-08-04T07:48:18.807Z</time>
      </trkpt>
      <trkpt lat="46.98925" lon="8.84735">
        <ele>1332</ele>
        <time>2021-08-04T07:48:19.808Z</time>
      </trkpt>
      <trkpt lat="46.98925" lon="8.84734">
        <ele>1332</ele>
        <time>2021-08-04T07:48:20.807Z</time>
      </trkpt>
      <trkpt lat="46.98925" lon="8.84733">
        <ele>1332</ele>
        <time>2021-08-04T07:48:21.807Z</time>
      </trkpt>
      <trkpt lat="46.98924" lon="8.84732">
        <ele>1331</ele>
        <time>2021-08-04T07:48:22.808Z</time>
      </trkpt>
      <trkpt lat="46.98923" lon="8.84732">
        <ele>1331</ele>
        <time>2021-08-04T07:48:23.808Z</time>
      </trkpt>
      <trkpt lat="46.98923" lon="8.84732">
        <ele>1330</ele>
        <time>2021-08-04T07:48:24.807Z</time>
      </trkpt>
      <trkpt lat="46.98923" lon="8.84732">
        <ele>1328</ele>
        <time>2021-08-04T07:48:25.807Z</time>
      </trkpt>
      <trkpt lat="46.98923" lon="8.84731">
        <ele>1328</ele>
        <time>2021-08-04T07:48:26.808Z</time>
      </trkpt>
      <trkpt lat="46.98922" lon="8.8473">
        <ele>1328</ele>
        <time>2021-08-04T07:48:27.808Z</time>
      </trkpt>
      <trkpt lat="46.98922" lon="8.84729">
        <ele>1328</ele>
        <time>2021-08-04T07:48:28.808Z</time>
      </trkpt>
      <trkpt lat="46.98922" lon="8.84728">
        <ele>1327</ele>
        <time>2021-08-04T07:48:29.807Z</time>
      </trkpt>
      <trkpt lat="46.98921" lon="8.84727">
        <ele>1327</ele>
        <time>2021-08-04T07:48:30.807Z</time>
      </trkpt>
      <trkpt lat="46.9892" lon="8.84726">
        <ele>1327</ele>
        <time>2021-08-04T07:48:31.808Z</time>
      </trkpt>
      <trkpt lat="46.98919" lon="8.84726">
        <ele>1327</ele>
        <time>2021-08-04T07:48:32.808Z</time>
      </trkpt>
      <trkpt lat="46.98919" lon="8.84726">
        <ele>1327</ele>
        <time>2021-08-04T07:48:33.808Z</time>
      </trkpt>
      <trkpt lat="46.98921" lon="8.84726">
        <ele>1329</ele>
        <time>2021-08-04T07:48:34.808Z</time>
      </trkpt>
      <trkpt lat="46.9892" lon="8.84725">
        <ele>1328</ele>
        <time>2021-08-04T07:48:35.808Z</time>
      </trkpt>
      <trkpt lat="46.9892" lon="8.84725">
        <ele>1328</ele>
        <time>2021-08-04T07:48:36.808Z</time>
      </trkpt>
      <trkpt lat="46.98919" lon="8.84724">
        <ele>1327</ele>
        <time>2021-08-04T07:48:37.807Z</time>
      </trkpt>
      <trkpt lat="46.98919" lon="8.84723">
        <ele>1327</ele>
        <time>2021-08-04T07:48:38.808Z</time>
      </trkpt>
      <trkpt lat="46.98919" lon="8.84723">
        <ele>1327</ele>
        <time>2021-08-04T07:48:39.807Z</time>
      </trkpt>
      <trkpt lat="46.98918" lon="8.84723">
        <ele>1327</ele>
        <time>2021-08-04T07:48:40.808Z</time>
      </trkpt>
      <trkpt lat="46.98918" lon="8.84722">
        <ele>1327</ele>
        <time>2021-08-04T07:48:41.808Z</time>
      </trkpt>
      <trkpt lat="46.98918" lon="8.84721">
        <ele>1327</ele>
        <time>2021-08-04T07:48:42.807Z</time>
      </trkpt>
      <trkpt lat="46.98918" lon="8.8472">
        <ele>1327</ele>
        <time>2021-08-04T07:48:43.807Z</time>
      </trkpt>
      <trkpt lat="46.98918" lon="8.8472">
        <ele>1327</ele>
        <time>2021-08-04T07:48:44.808Z</time>
      </trkpt>
      <trkpt lat="46.98918" lon="8.84719">
        <ele>1327</ele>
        <time>2021-08-04T07:48:45.808Z</time>
      </trkpt>
      <trkpt lat="46.98918" lon="8.84719">
        <ele>1326</ele>
        <time>2021-08-04T07:48:46.807Z</time>
      </trkpt>
      <trkpt lat="46.98918" lon="8.84718">
        <ele>1326</ele>
        <time>2021-08-04T07:48:47.807Z</time>
      </trkpt>
      <trkpt lat="46.98915" lon="8.84715">
        <ele>1327</ele>
        <time>2021-08-04T07:48:48.807Z</time>
      </trkpt>
      <trkpt lat="46.98915" lon="8.84714">
        <ele>1327</ele>
        <time>2021-08-04T07:48:49.808Z</time>
      </trkpt>
      <trkpt lat="46.98916" lon="8.84715">
        <ele>1327</ele>
        <time>2021-08-04T07:48:50.808Z</time>
      </trkpt>
      <trkpt lat="46.98916" lon="8.84715">
        <ele>1326</ele>
        <time>2021-08-04T07:48:51.807Z</time>
      </trkpt>
      <trkpt lat="46.98919" lon="8.84715">
        <ele>1325</ele>
        <time>2021-08-04T07:48:52.809Z</time>
      </trkpt>
      <trkpt lat="46.98919" lon="8.84716">
        <ele>1327</ele>
        <time>2021-08-04T07:48:53.809Z</time>
      </trkpt>
      <trkpt lat="46.98919" lon="8.84716">
        <ele>1328</ele>
        <time>2021-08-04T07:48:54.809Z</time>
      </trkpt>
      <trkpt lat="46.98919" lon="8.84715">
        <ele>1329</ele>
        <time>2021-08-04T07:48:55.809Z</time>
      </trkpt>
      <trkpt lat="46.98919" lon="8.84715">
        <ele>1329</ele>
        <time>2021-08-04T07:48:56.808Z</time>
      </trkpt>
      <trkpt lat="46.98918" lon="8.84715">
        <ele>1330</ele>
        <time>2021-08-04T07:48:57.808Z</time>
      </trkpt>
      <trkpt lat="46.98918" lon="8.84714">
        <ele>1330</ele>
        <time>2021-08-04T07:48:58.809Z</time>
      </trkpt>
      <trkpt lat="46.98917" lon="8.84713">
        <ele>1330</ele>
        <time>2021-08-04T07:48:59.809Z</time>
      </trkpt>
      <trkpt lat="46.98916" lon="8.84712">
        <ele>1330</ele>
        <time>2021-08-04T07:49:00.809Z</time>
      </trkpt>
      <trkpt lat="46.98916" lon="8.84712">
        <ele>1329</ele>
        <time>2021-08-04T07:49:01.809Z</time>
      </trkpt>
      <trkpt lat="46.98916" lon="8.84712">
        <ele>1329</ele>
        <time>2021-08-04T07:49:02.809Z</time>
      </trkpt>
      <trkpt lat="46.98916" lon="8.84714">
        <ele>1328</ele>
        <time>2021-08-04T07:49:03.810Z</time>
      </trkpt>
      <trkpt lat="46.98915" lon="8.84711">
        <ele>1326</ele>
        <time>2021-08-04T07:49:04.810Z</time>
      </trkpt>
      <trkpt lat="46.98915" lon="8.8471">
        <ele>1326</ele>
        <time>2021-08-04T07:49:05.809Z</time>
      </trkpt>
      <trkpt lat="46.98915" lon="8.84709">
        <ele>1326</ele>
        <time>2021-08-04T07:49:06.810Z</time>
      </trkpt>
      <trkpt lat="46.98915" lon="8.84708">
        <ele>1325</ele>
        <time>2021-08-04T07:49:07.810Z</time>
      </trkpt>
      <trkpt lat="46.98915" lon="8.84707">
        <ele>1325</ele>
        <time>2021-08-04T07:49:08.810Z</time>
      </trkpt>
      <trkpt lat="46.98915" lon="8.84706">
        <ele>1326</ele>
        <time>2021-08-04T07:49:09.810Z</time>
      </trkpt>
      <trkpt lat="46.98914" lon="8.84705">
        <ele>1326</ele>
        <time>2021-08-04T07:49:10.810Z</time>
      </trkpt>
      <trkpt lat="46.98914" lon="8.84705">
        <ele>1326</ele>
        <time>2021-08-04T07:49:11.810Z</time>
      </trkpt>
      <trkpt lat="46.98913" lon="8.84703">
        <ele>1326</ele>
        <time>2021-08-04T07:49:12.810Z</time>
      </trkpt>
      <trkpt lat="46.98912" lon="8.84703">
        <ele>1325</ele>
        <time>2021-08-04T07:49:13.810Z</time>
      </trkpt>
      <trkpt lat="46.98911" lon="8.84702">
        <ele>1325</ele>
        <time>2021-08-04T07:49:14.809Z</time>
      </trkpt>
      <trkpt lat="46.98911" lon="8.84702">
        <ele>1326</ele>
        <time>2021-08-04T07:49:15.810Z</time>
      </trkpt>
      <trkpt lat="46.98911" lon="8.84701">
        <ele>1325</ele>
        <time>2021-08-04T07:49:16.809Z</time>
      </trkpt>
      <trkpt lat="46.98911" lon="8.847">
        <ele>1325</ele>
        <time>2021-08-04T07:49:17.810Z</time>
      </trkpt>
      <trkpt lat="46.98911" lon="8.847">
        <ele>1325</ele>
        <time>2021-08-04T07:49:18.810Z</time>
      </trkpt>
      <trkpt lat="46.98911" lon="8.84699">
        <ele>1324</ele>
        <time>2021-08-04T07:49:19.810Z</time>
      </trkpt>
      <trkpt lat="46.98911" lon="8.84698">
        <ele>1323</ele>
        <time>2021-08-04T07:49:20.810Z</time>
      </trkpt>
      <trkpt lat="46.98911" lon="8.84697">
        <ele>1323</ele>
        <time>2021-08-04T07:49:21.810Z</time>
      </trkpt>
      <trkpt lat="46.98911" lon="8.84696">
        <ele>1323</ele>
        <time>2021-08-04T07:49:22.809Z</time>
      </trkpt>
      <trkpt lat="46.9891" lon="8.84694">
        <ele>1323</ele>
        <time>2021-08-04T07:49:23.810Z</time>
      </trkpt>
      <trkpt lat="46.9891" lon="8.84693">
        <ele>1323</ele>
        <time>2021-08-04T07:49:24.809Z</time>
      </trkpt>
      <trkpt lat="46.98909" lon="8.84692">
        <ele>1324</ele>
        <time>2021-08-04T07:49:25.809Z</time>
      </trkpt>
      <trkpt lat="46.98909" lon="8.84691">
        <ele>1324</ele>
        <time>2021-08-04T07:49:26.809Z</time>
      </trkpt>
      <trkpt lat="46.98908" lon="8.8469">
        <ele>1324</ele>
        <time>2021-08-04T07:49:27.809Z</time>
      </trkpt>
      <trkpt lat="46.98908" lon="8.8469">
        <ele>1323</ele>
        <time>2021-08-04T07:49:28.810Z</time>
      </trkpt>
      <trkpt lat="46.98908" lon="8.84689">
        <ele>1323</ele>
        <time>2021-08-04T07:49:29.809Z</time>
      </trkpt>
      <trkpt lat="46.98908" lon="8.84688">
        <ele>1322</ele>
        <time>2021-08-04T07:49:30.809Z</time>
      </trkpt>
      <trkpt lat="46.98909" lon="8.84688">
        <ele>1322</ele>
        <time>2021-08-04T07:49:31.810Z</time>
      </trkpt>
      <trkpt lat="46.98909" lon="8.84686">
        <ele>1322</ele>
        <time>2021-08-04T07:49:32.810Z</time>
      </trkpt>
      <trkpt lat="46.98909" lon="8.84685">
        <ele>1321</ele>
        <time>2021-08-04T07:49:33.810Z</time>
      </trkpt>
      <trkpt lat="46.98908" lon="8.84684">
        <ele>1321</ele>
        <time>2021-08-04T07:49:34.810Z</time>
      </trkpt>
      <trkpt lat="46.98908" lon="8.84682">
        <ele>1321</ele>
        <time>2021-08-04T07:49:35.810Z</time>
      </trkpt>
      <trkpt lat="46.98908" lon="8.8468">
        <ele>1321</ele>
        <time>2021-08-04T07:49:36.810Z</time>
      </trkpt>
      <trkpt lat="46.98908" lon="8.84679">
        <ele>1322</ele>
        <time>2021-08-04T07:49:37.810Z</time>
      </trkpt>
      <trkpt lat="46.98908" lon="8.84678">
        <ele>1322</ele>
        <time>2021-08-04T07:49:38.809Z</time>
      </trkpt>
      <trkpt lat="46.98908" lon="8.84677">
        <ele>1321</ele>
        <time>2021-08-04T07:49:39.809Z</time>
      </trkpt>
      <trkpt lat="46.98907" lon="8.84675">
        <ele>1321</ele>
        <time>2021-08-04T07:49:40.810Z</time>
      </trkpt>
      <trkpt lat="46.98906" lon="8.84673">
        <ele>1321</ele>
        <time>2021-08-04T07:49:41.810Z</time>
      </trkpt>
      <trkpt lat="46.98906" lon="8.84672">
        <ele>1321</ele>
        <time>2021-08-04T07:49:42.809Z</time>
      </trkpt>
      <trkpt lat="46.98906" lon="8.8467">
        <ele>1321</ele>
        <time>2021-08-04T07:49:43.810Z</time>
      </trkpt>
      <trkpt lat="46.98906" lon="8.84668">
        <ele>1322</ele>
        <time>2021-08-04T07:49:44.810Z</time>
      </trkpt>
      <trkpt lat="46.98906" lon="8.84666">
        <ele>1322</ele>
        <time>2021-08-04T07:49:45.809Z</time>
      </trkpt>
      <trkpt lat="46.98906" lon="8.84664">
        <ele>1322</ele>
        <time>2021-08-04T07:49:46.809Z</time>
      </trkpt>
      <trkpt lat="46.98905" lon="8.84663">
        <ele>1323</ele>
        <time>2021-08-04T07:49:47.810Z</time>
      </trkpt>
      <trkpt lat="46.98905" lon="8.84661">
        <ele>1324</ele>
        <time>2021-08-04T07:49:48.809Z</time>
      </trkpt>
      <trkpt lat="46.98904" lon="8.8466">
        <ele>1324</ele>
        <time>2021-08-04T07:49:49.810Z</time>
      </trkpt>
      <trkpt lat="46.98904" lon="8.84659">
        <ele>1324</ele>
        <time>2021-08-04T07:49:50.809Z</time>
      </trkpt>
      <trkpt lat="46.98903" lon="8.84658">
        <ele>1325</ele>
        <time>2021-08-04T07:49:51.809Z</time>
      </trkpt>
      <trkpt lat="46.98902" lon="8.84656">
        <ele>1325</ele>
        <time>2021-08-04T07:49:52.810Z</time>
      </trkpt>
      <trkpt lat="46.98902" lon="8.84655">
        <ele>1326</ele>
        <time>2021-08-04T07:49:53.810Z</time>
      </trkpt>
      <trkpt lat="46.98902" lon="8.84654">
        <ele>1326</ele>
        <time>2021-08-04T07:49:54.810Z</time>
      </trkpt>
      <trkpt lat="46.98903" lon="8.84652">
        <ele>1327</ele>
        <time>2021-08-04T07:49:55.810Z</time>
      </trkpt>
      <trkpt lat="46.98903" lon="8.84651">
        <ele>1327</ele>
        <time>2021-08-04T07:49:56.809Z</time>
      </trkpt>
      <trkpt lat="46.98904" lon="8.84649">
        <ele>1327</ele>
        <time>2021-08-04T07:49:57.809Z</time>
      </trkpt>
      <trkpt lat="46.98905" lon="8.84647">
        <ele>1327</ele>
        <time>2021-08-04T07:49:58.809Z</time>
      </trkpt>
      <trkpt lat="46.98905" lon="8.84646">
        <ele>1327</ele>
        <time>2021-08-04T07:49:59.810Z</time>
      </trkpt>
      <trkpt lat="46.98906" lon="8.84644">
        <ele>1327</ele>
        <time>2021-08-04T07:50:00.810Z</time>
      </trkpt>
      <trkpt lat="46.98906" lon="8.84642">
        <ele>1327</ele>
        <time>2021-08-04T07:50:01.809Z</time>
      </trkpt>
      <trkpt lat="46.98906" lon="8.8464">
        <ele>1326</ele>
        <time>2021-08-04T07:50:02.809Z</time>
      </trkpt>
      <trkpt lat="46.98907" lon="8.84639">
        <ele>1326</ele>
        <time>2021-08-04T07:50:03.810Z</time>
      </trkpt>
      <trkpt lat="46.98908" lon="8.84637">
        <ele>1326</ele>
        <time>2021-08-04T07:50:04.810Z</time>
      </trkpt>
      <trkpt lat="46.98908" lon="8.84636">
        <ele>1325</ele>
        <time>2021-08-04T07:50:05.809Z</time>
      </trkpt>
      <trkpt lat="46.98908" lon="8.84634">
        <ele>1325</ele>
        <time>2021-08-04T07:50:06.810Z</time>
      </trkpt>
      <trkpt lat="46.98907" lon="8.84633">
        <ele>1324</ele>
        <time>2021-08-04T07:50:07.809Z</time>
      </trkpt>
      <trkpt lat="46.98906" lon="8.84632">
        <ele>1323</ele>
        <time>2021-08-04T07:50:08.810Z</time>
      </trkpt>
      <trkpt lat="46.98906" lon="8.8463">
        <ele>1323</ele>
        <time>2021-08-04T07:50:09.810Z</time>
      </trkpt>
      <trkpt lat="46.98905" lon="8.84629">
        <ele>1322</ele>
        <time>2021-08-04T07:50:10.809Z</time>
      </trkpt>
      <trkpt lat="46.98904" lon="8.84627">
        <ele>1321</ele>
        <time>2021-08-04T07:50:11.809Z</time>
      </trkpt>
      <trkpt lat="46.98904" lon="8.84626">
        <ele>1321</ele>
        <time>2021-08-04T07:50:12.810Z</time>
      </trkpt>
      <trkpt lat="46.98904" lon="8.84626">
        <ele>1320</ele>
        <time>2021-08-04T07:50:13.810Z</time>
      </trkpt>
      <trkpt lat="46.98904" lon="8.84625">
        <ele>1320</ele>
        <time>2021-08-04T07:50:14.810Z</time>
      </trkpt>
      <trkpt lat="46.98904" lon="8.84624">
        <ele>1320</ele>
        <time>2021-08-04T07:50:15.809Z</time>
      </trkpt>
      <trkpt lat="46.98903" lon="8.84623">
        <ele>1320</ele>
        <time>2021-08-04T07:50:16.810Z</time>
      </trkpt>
      <trkpt lat="46.98902" lon="8.84621">
        <ele>1321</ele>
        <time>2021-08-04T07:50:17.809Z</time>
      </trkpt>
      <trkpt lat="46.98901" lon="8.8462">
        <ele>1321</ele>
        <time>2021-08-04T07:50:18.809Z</time>
      </trkpt>
      <trkpt lat="46.989" lon="8.84618">
        <ele>1321</ele>
        <time>2021-08-04T07:50:19.809Z</time>
      </trkpt>
      <trkpt lat="46.98899" lon="8.84616">
        <ele>1320</ele>
        <time>2021-08-04T07:50:20.810Z</time>
      </trkpt>
      <trkpt lat="46.98898" lon="8.84615">
        <ele>1320</ele>
        <time>2021-08-04T07:50:21.809Z</time>
      </trkpt>
      <trkpt lat="46.98898" lon="8.84614">
        <ele>1320</ele>
        <time>2021-08-04T07:50:22.809Z</time>
      </trkpt>
      <trkpt lat="46.98897" lon="8.84612">
        <ele>1320</ele>
        <time>2021-08-04T07:50:23.809Z</time>
      </trkpt>
      <trkpt lat="46.98896" lon="8.84611">
        <ele>1320</ele>
        <time>2021-08-04T07:50:24.809Z</time>
      </trkpt>
      <trkpt lat="46.98895" lon="8.84611">
        <ele>1319</ele>
        <time>2021-08-04T07:50:25.809Z</time>
      </trkpt>
      <trkpt lat="46.98894" lon="8.8461">
        <ele>1319</ele>
        <time>2021-08-04T07:50:26.809Z</time>
      </trkpt>
      <trkpt lat="46.98893" lon="8.84609">
        <ele>1319</ele>
        <time>2021-08-04T07:50:27.809Z</time>
      </trkpt>
      <trkpt lat="46.98892" lon="8.84607">
        <ele>1318</ele>
        <time>2021-08-04T07:50:28.809Z</time>
      </trkpt>
      <trkpt lat="46.98892" lon="8.84605">
        <ele>1318</ele>
        <time>2021-08-04T07:50:29.809Z</time>
      </trkpt>
      <trkpt lat="46.98891" lon="8.84604">
        <ele>1318</ele>
        <time>2021-08-04T07:50:30.809Z</time>
      </trkpt>
      <trkpt lat="46.9889" lon="8.84603">
        <ele>1317</ele>
        <time>2021-08-04T07:50:31.809Z</time>
      </trkpt>
      <trkpt lat="46.98889" lon="8.84601">
        <ele>1317</ele>
        <time>2021-08-04T07:50:32.809Z</time>
      </trkpt>
      <trkpt lat="46.98888" lon="8.846">
        <ele>1317</ele>
        <time>2021-08-04T07:50:33.809Z</time>
      </trkpt>
      <trkpt lat="46.98887" lon="8.84599">
        <ele>1316</ele>
        <time>2021-08-04T07:50:34.810Z</time>
      </trkpt>
      <trkpt lat="46.98887" lon="8.84597">
        <ele>1316</ele>
        <time>2021-08-04T07:50:35.810Z</time>
      </trkpt>
      <trkpt lat="46.98886" lon="8.84596">
        <ele>1316</ele>
        <time>2021-08-04T07:50:36.809Z</time>
      </trkpt>
      <trkpt lat="46.98885" lon="8.84594">
        <ele>1316</ele>
        <time>2021-08-04T07:50:37.810Z</time>
      </trkpt>
      <trkpt lat="46.98885" lon="8.84593">
        <ele>1316</ele>
        <time>2021-08-04T07:50:38.809Z</time>
      </trkpt>
      <trkpt lat="46.98884" lon="8.84591">
        <ele>1315</ele>
        <time>2021-08-04T07:50:39.810Z</time>
      </trkpt>
      <trkpt lat="46.98884" lon="8.84589">
        <ele>1315</ele>
        <time>2021-08-04T07:50:40.810Z</time>
      </trkpt>
      <trkpt lat="46.98884" lon="8.84588">
        <ele>1314</ele>
        <time>2021-08-04T07:50:41.810Z</time>
      </trkpt>
      <trkpt lat="46.98884" lon="8.84587">
        <ele>1314</ele>
        <time>2021-08-04T07:50:42.810Z</time>
      </trkpt>
      <trkpt lat="46.98883" lon="8.84586">
        <ele>1314</ele>
        <time>2021-08-04T07:50:43.810Z</time>
      </trkpt>
      <trkpt lat="46.98882" lon="8.84585">
        <ele>1314</ele>
        <time>2021-08-04T07:50:44.809Z</time>
      </trkpt>
      <trkpt lat="46.98881" lon="8.84584">
        <ele>1314</ele>
        <time>2021-08-04T07:50:45.810Z</time>
      </trkpt>
      <trkpt lat="46.9888" lon="8.84583">
        <ele>1314</ele>
        <time>2021-08-04T07:50:46.810Z</time>
      </trkpt>
      <trkpt lat="46.98879" lon="8.84582">
        <ele>1314</ele>
        <time>2021-08-04T07:50:47.810Z</time>
      </trkpt>
      <trkpt lat="46.98878" lon="8.84581">
        <ele>1314</ele>
        <time>2021-08-04T07:50:48.810Z</time>
      </trkpt>
      <trkpt lat="46.98878" lon="8.8458">
        <ele>1314</ele>
        <time>2021-08-04T07:50:49.810Z</time>
      </trkpt>
      <trkpt lat="46.98877" lon="8.84579">
        <ele>1313</ele>
        <time>2021-08-04T07:50:50.810Z</time>
      </trkpt>
      <trkpt lat="46.98876" lon="8.84578">
        <ele>1313</ele>
        <time>2021-08-04T07:50:51.810Z</time>
      </trkpt>
      <trkpt lat="46.98875" lon="8.84577">
        <ele>1313</ele>
        <time>2021-08-04T07:50:52.809Z</time>
      </trkpt>
      <trkpt lat="46.98874" lon="8.84575">
        <ele>1313</ele>
        <time>2021-08-04T07:50:53.810Z</time>
      </trkpt>
      <trkpt lat="46.98872" lon="8.84573">
        <ele>1313</ele>
        <time>2021-08-04T07:50:54.810Z</time>
      </trkpt>
      <trkpt lat="46.98871" lon="8.8457">
        <ele>1313</ele>
        <time>2021-08-04T07:50:55.810Z</time>
      </trkpt>
      <trkpt lat="46.9887" lon="8.84568">
        <ele>1313</ele>
        <time>2021-08-04T07:50:56.809Z</time>
      </trkpt>
      <trkpt lat="46.9887" lon="8.84567">
        <ele>1314</ele>
        <time>2021-08-04T07:50:57.810Z</time>
      </trkpt>
      <trkpt lat="46.9887" lon="8.84565">
        <ele>1314</ele>
        <time>2021-08-04T07:50:58.810Z</time>
      </trkpt>
      <trkpt lat="46.9887" lon="8.84563">
        <ele>1314</ele>
        <time>2021-08-04T07:50:59.810Z</time>
      </trkpt>
      <trkpt lat="46.98871" lon="8.84562">
        <ele>1314</ele>
        <time>2021-08-04T07:51:00.810Z</time>
      </trkpt>
      <trkpt lat="46.98871" lon="8.8456">
        <ele>1314</ele>
        <time>2021-08-04T07:51:01.809Z</time>
      </trkpt>
      <trkpt lat="46.98871" lon="8.84558">
        <ele>1314</ele>
        <time>2021-08-04T07:51:02.810Z</time>
      </trkpt>
      <trkpt lat="46.98871" lon="8.84557">
        <ele>1313</ele>
        <time>2021-08-04T07:51:03.809Z</time>
      </trkpt>
      <trkpt lat="46.9887" lon="8.84555">
        <ele>1313</ele>
        <time>2021-08-04T07:51:04.810Z</time>
      </trkpt>
      <trkpt lat="46.9887" lon="8.84553">
        <ele>1312</ele>
        <time>2021-08-04T07:51:05.810Z</time>
      </trkpt>
      <trkpt lat="46.9887" lon="8.84551">
        <ele>1312</ele>
        <time>2021-08-04T07:51:06.810Z</time>
      </trkpt>
      <trkpt lat="46.9887" lon="8.84549">
        <ele>1312</ele>
        <time>2021-08-04T07:51:07.810Z</time>
      </trkpt>
      <trkpt lat="46.98869" lon="8.84548">
        <ele>1312</ele>
        <time>2021-08-04T07:51:08.810Z</time>
      </trkpt>
      <trkpt lat="46.98868" lon="8.84546">
        <ele>1312</ele>
        <time>2021-08-04T07:51:09.809Z</time>
      </trkpt>
      <trkpt lat="46.98868" lon="8.84544">
        <ele>1312</ele>
        <time>2021-08-04T07:51:10.810Z</time>
      </trkpt>
      <trkpt lat="46.98868" lon="8.84542">
        <ele>1312</ele>
        <time>2021-08-04T07:51:11.810Z</time>
      </trkpt>
      <trkpt lat="46.98867" lon="8.84541">
        <ele>1312</ele>
        <time>2021-08-04T07:51:12.810Z</time>
      </trkpt>
      <trkpt lat="46.98867" lon="8.84539">
        <ele>1312</ele>
        <time>2021-08-04T07:51:13.810Z</time>
      </trkpt>
      <trkpt lat="46.98867" lon="8.84538">
        <ele>1311</ele>
        <time>2021-08-04T07:51:14.810Z</time>
      </trkpt>
      <trkpt lat="46.98866" lon="8.84536">
        <ele>1311</ele>
        <time>2021-08-04T07:51:15.810Z</time>
      </trkpt>
      <trkpt lat="46.98866" lon="8.84535">
        <ele>1311</ele>
        <time>2021-08-04T07:51:16.810Z</time>
      </trkpt>
      <trkpt lat="46.98866" lon="8.84533">
        <ele>1310</ele>
        <time>2021-08-04T07:51:17.810Z</time>
      </trkpt>
      <trkpt lat="46.98866" lon="8.84532">
        <ele>1310</ele>
        <time>2021-08-04T07:51:18.810Z</time>
      </trkpt>
      <trkpt lat="46.98865" lon="8.8453">
        <ele>1310</ele>
        <time>2021-08-04T07:51:19.809Z</time>
      </trkpt>
      <trkpt lat="46.98865" lon="8.84528">
        <ele>1309</ele>
        <time>2021-08-04T07:51:20.810Z</time>
      </trkpt>
      <trkpt lat="46.98864" lon="8.84526">
        <ele>1309</ele>
        <time>2021-08-04T07:51:21.810Z</time>
      </trkpt>
      <trkpt lat="46.98864" lon="8.84525">
        <ele>1308</ele>
        <time>2021-08-04T07:51:22.809Z</time>
      </trkpt>
      <trkpt lat="46.98865" lon="8.84523">
        <ele>1308</ele>
        <time>2021-08-04T07:51:23.809Z</time>
      </trkpt>
      <trkpt lat="46.98865" lon="8.84521">
        <ele>1308</ele>
        <time>2021-08-04T07:51:24.810Z</time>
      </trkpt>
      <trkpt lat="46.98865" lon="8.8452">
        <ele>1307</ele>
        <time>2021-08-04T07:51:25.810Z</time>
      </trkpt>
      <trkpt lat="46.98865" lon="8.84518">
        <ele>1307</ele>
        <time>2021-08-04T07:51:26.809Z</time>
      </trkpt>
      <trkpt lat="46.98865" lon="8.84516">
        <ele>1307</ele>
        <time>2021-08-04T07:51:27.810Z</time>
      </trkpt>
      <trkpt lat="46.98864" lon="8.84515">
        <ele>1306</ele>
        <time>2021-08-04T07:51:28.809Z</time>
      </trkpt>
      <trkpt lat="46.98863" lon="8.84513">
        <ele>1306</ele>
        <time>2021-08-04T07:51:29.809Z</time>
      </trkpt>
      <trkpt lat="46.98862" lon="8.84512">
        <ele>1305</ele>
        <time>2021-08-04T07:51:30.810Z</time>
      </trkpt>
      <trkpt lat="46.98862" lon="8.8451">
        <ele>1305</ele>
        <time>2021-08-04T07:51:31.809Z</time>
      </trkpt>
      <trkpt lat="46.98862" lon="8.84508">
        <ele>1304</ele>
        <time>2021-08-04T07:51:32.809Z</time>
      </trkpt>
      <trkpt lat="46.98862" lon="8.84506">
        <ele>1304</ele>
        <time>2021-08-04T07:51:33.810Z</time>
      </trkpt>
      <trkpt lat="46.98863" lon="8.84504">
        <ele>1304</ele>
        <time>2021-08-04T07:51:34.810Z</time>
      </trkpt>
      <trkpt lat="46.98863" lon="8.84503">
        <ele>1304</ele>
        <time>2021-08-04T07:51:35.810Z</time>
      </trkpt>
      <trkpt lat="46.98862" lon="8.84502">
        <ele>1304</ele>
        <time>2021-08-04T07:51:36.810Z</time>
      </trkpt>
      <trkpt lat="46.98862" lon="8.845">
        <ele>1304</ele>
        <time>2021-08-04T07:51:37.810Z</time>
      </trkpt>
      <trkpt lat="46.98862" lon="8.84498">
        <ele>1304</ele>
        <time>2021-08-04T07:51:38.810Z</time>
      </trkpt>
      <trkpt lat="46.98862" lon="8.84496">
        <ele>1304</ele>
        <time>2021-08-04T07:51:39.810Z</time>
      </trkpt>
      <trkpt lat="46.98862" lon="8.84494">
        <ele>1304</ele>
        <time>2021-08-04T07:51:40.810Z</time>
      </trkpt>
      <trkpt lat="46.98861" lon="8.84492">
        <ele>1304</ele>
        <time>2021-08-04T07:51:41.810Z</time>
      </trkpt>
      <trkpt lat="46.98861" lon="8.84491">
        <ele>1304</ele>
        <time>2021-08-04T07:51:42.809Z</time>
      </trkpt>
      <trkpt lat="46.98861" lon="8.84489">
        <ele>1304</ele>
        <time>2021-08-04T07:51:43.810Z</time>
      </trkpt>
      <trkpt lat="46.9886" lon="8.84487">
        <ele>1305</ele>
        <time>2021-08-04T07:51:44.810Z</time>
      </trkpt>
      <trkpt lat="46.9886" lon="8.84485">
        <ele>1305</ele>
        <time>2021-08-04T07:51:45.810Z</time>
      </trkpt>
      <trkpt lat="46.9886" lon="8.84484">
        <ele>1304</ele>
        <time>2021-08-04T07:51:46.810Z</time>
      </trkpt>
      <trkpt lat="46.9886" lon="8.84482">
        <ele>1304</ele>
        <time>2021-08-04T07:51:47.810Z</time>
      </trkpt>
      <trkpt lat="46.98859" lon="8.8448">
        <ele>1304</ele>
        <time>2021-08-04T07:51:48.810Z</time>
      </trkpt>
      <trkpt lat="46.98859" lon="8.84479">
        <ele>1304</ele>
        <time>2021-08-04T07:51:49.810Z</time>
      </trkpt>
      <trkpt lat="46.98859" lon="8.84478">
        <ele>1305</ele>
        <time>2021-08-04T07:51:50.809Z</time>
      </trkpt>
      <trkpt lat="46.98859" lon="8.84476">
        <ele>1305</ele>
        <time>2021-08-04T07:51:51.810Z</time>
      </trkpt>
      <trkpt lat="46.98859" lon="8.84475">
        <ele>1306</ele>
        <time>2021-08-04T07:51:52.810Z</time>
      </trkpt>
      <trkpt lat="46.98859" lon="8.84474">
        <ele>1306</ele>
        <time>2021-08-04T07:51:53.810Z</time>
      </trkpt>
      <trkpt lat="46.98858" lon="8.84472">
        <ele>1307</ele>
        <time>2021-08-04T07:51:54.810Z</time>
      </trkpt>
      <trkpt lat="46.98858" lon="8.8447">
        <ele>1307</ele>
        <time>2021-08-04T07:51:55.810Z</time>
      </trkpt>
      <trkpt lat="46.98857" lon="8.84468">
        <ele>1307</ele>
        <time>2021-08-04T07:51:56.810Z</time>
      </trkpt>
      <trkpt lat="46.98857" lon="8.84467">
        <ele>1308</ele>
        <time>2021-08-04T07:51:57.809Z</time>
      </trkpt>
      <trkpt lat="46.98856" lon="8.84465">
        <ele>1308</ele>
        <time>2021-08-04T07:51:58.810Z</time>
      </trkpt>
      <trkpt lat="46.98856" lon="8.84463">
        <ele>1307</ele>
        <time>2021-08-04T07:51:59.810Z</time>
      </trkpt>
      <trkpt lat="46.98855" lon="8.84462">
        <ele>1307</ele>
        <time>2021-08-04T07:52:00.809Z</time>
      </trkpt>
      <trkpt lat="46.98855" lon="8.8446">
        <ele>1308</ele>
        <time>2021-08-04T07:52:01.809Z</time>
      </trkpt>
      <trkpt lat="46.98854" lon="8.84458">
        <ele>1308</ele>
        <time>2021-08-04T07:52:02.810Z</time>
      </trkpt>
      <trkpt lat="46.98854" lon="8.84456">
        <ele>1308</ele>
        <time>2021-08-04T07:52:03.809Z</time>
      </trkpt>
      <trkpt lat="46.98853" lon="8.84455">
        <ele>1308</ele>
        <time>2021-08-04T07:52:04.810Z</time>
      </trkpt>
      <trkpt lat="46.98853" lon="8.84453">
        <ele>1307</ele>
        <time>2021-08-04T07:52:05.809Z</time>
      </trkpt>
      <trkpt lat="46.98854" lon="8.84453">
        <ele>1307</ele>
        <time>2021-08-04T07:52:06.809Z</time>
      </trkpt>
      <trkpt lat="46.98854" lon="8.84452">
        <ele>1307</ele>
        <time>2021-08-04T07:52:07.810Z</time>
      </trkpt>
      <trkpt lat="46.98854" lon="8.84452">
        <ele>1307</ele>
        <time>2021-08-04T07:52:08.810Z</time>
      </trkpt>
      <trkpt lat="46.98852" lon="8.8445">
        <ele>1307</ele>
        <time>2021-08-04T07:52:09.810Z</time>
      </trkpt>
      <trkpt lat="46.98852" lon="8.8445">
        <ele>1307</ele>
        <time>2021-08-04T07:52:10.810Z</time>
      </trkpt>
      <trkpt lat="46.98851" lon="8.8445">
        <ele>1307</ele>
        <time>2021-08-04T07:52:11.810Z</time>
      </trkpt>
      <trkpt lat="46.98851" lon="8.8445">
        <ele>1307</ele>
        <time>2021-08-04T07:52:12.810Z</time>
      </trkpt>
      <trkpt lat="46.9885" lon="8.84449">
        <ele>1297</ele>
        <time>2021-08-04T07:52:13.811Z</time>
      </trkpt>
      <trkpt lat="46.9885" lon="8.8445">
        <ele>1296</ele>
        <time>2021-08-04T07:52:14.811Z</time>
      </trkpt>
      <trkpt lat="46.9885" lon="8.8445">
        <ele>1296</ele>
        <time>2021-08-04T07:52:15.811Z</time>
      </trkpt>
      <trkpt lat="46.9885" lon="8.8445">
        <ele>1296</ele>
        <time>2021-08-04T07:52:16.810Z</time>
      </trkpt>
      <trkpt lat="46.98851" lon="8.84451">
        <ele>1296</ele>
        <time>2021-08-04T07:52:17.810Z</time>
      </trkpt>
      <trkpt lat="46.98851" lon="8.84453">
        <ele>1296</ele>
        <time>2021-08-04T07:52:18.811Z</time>
      </trkpt>
      <trkpt lat="46.98852" lon="8.84454">
        <ele>1296</ele>
        <time>2021-08-04T07:52:19.811Z</time>
      </trkpt>
      <trkpt lat="46.98852" lon="8.84454">
        <ele>1297</ele>
        <time>2021-08-04T07:52:20.811Z</time>
      </trkpt>
      <trkpt lat="46.98852" lon="8.84454">
        <ele>1297</ele>
        <time>2021-08-04T07:52:21.810Z</time>
      </trkpt>
      <trkpt lat="46.98852" lon="8.84452">
        <ele>1292</ele>
        <time>2021-08-04T07:52:22.812Z</time>
      </trkpt>
      <trkpt lat="46.98851" lon="8.84451">
        <ele>1292</ele>
        <time>2021-08-04T07:52:23.812Z</time>
      </trkpt>
      <trkpt lat="46.98851" lon="8.8445">
        <ele>1292</ele>
        <time>2021-08-04T07:52:24.812Z</time>
      </trkpt>
      <trkpt lat="46.98854" lon="8.84446">
        <ele>1282</ele>
        <time>2021-08-04T07:52:25.814Z</time>
      </trkpt>
      <trkpt lat="46.98853" lon="8.84445">
        <ele>1282</ele>
        <time>2021-08-04T07:52:26.813Z</time>
      </trkpt>
      <trkpt lat="46.98851" lon="8.84443">
        <ele>1288</ele>
        <time>2021-08-04T07:52:27.815Z</time>
      </trkpt>
      <trkpt lat="46.98851" lon="8.84443">
        <ele>1289</ele>
        <time>2021-08-04T07:52:28.814Z</time>
      </trkpt>
      <trkpt lat="46.98851" lon="8.84443">
        <ele>1290</ele>
        <time>2021-08-04T07:52:29.814Z</time>
      </trkpt>
      <trkpt lat="46.98852" lon="8.84444">
        <ele>1295</ele>
        <time>2021-08-04T07:52:30.815Z</time>
      </trkpt>
      <trkpt lat="46.98852" lon="8.84443">
        <ele>1296</ele>
        <time>2021-08-04T07:52:31.814Z</time>
      </trkpt>
      <trkpt lat="46.98852" lon="8.84442">
        <ele>1297</ele>
        <time>2021-08-04T07:52:32.814Z</time>
      </trkpt>
      <trkpt lat="46.98851" lon="8.8444">
        <ele>1297</ele>
        <time>2021-08-04T07:52:33.815Z</time>
      </trkpt>
      <trkpt lat="46.98851" lon="8.84439">
        <ele>1297</ele>
        <time>2021-08-04T07:52:34.814Z</time>
      </trkpt>
      <trkpt lat="46.9885" lon="8.84437">
        <ele>1298</ele>
        <time>2021-08-04T07:52:35.814Z</time>
      </trkpt>
      <trkpt lat="46.9885" lon="8.84436">
        <ele>1299</ele>
        <time>2021-08-04T07:52:36.815Z</time>
      </trkpt>
      <trkpt lat="46.98849" lon="8.84434">
        <ele>1299</ele>
        <time>2021-08-04T07:52:37.815Z</time>
      </trkpt>
      <trkpt lat="46.98849" lon="8.84433">
        <ele>1300</ele>
        <time>2021-08-04T07:52:38.815Z</time>
      </trkpt>
      <trkpt lat="46.98849" lon="8.84432">
        <ele>1300</ele>
        <time>2021-08-04T07:52:39.814Z</time>
      </trkpt>
      <trkpt lat="46.98848" lon="8.84431">
        <ele>1301</ele>
        <time>2021-08-04T07:52:40.815Z</time>
      </trkpt>
      <trkpt lat="46.98848" lon="8.8443">
        <ele>1302</ele>
        <time>2021-08-04T07:52:41.815Z</time>
      </trkpt>
      <trkpt lat="46.98847" lon="8.84428">
        <ele>1302</ele>
        <time>2021-08-04T07:52:42.814Z</time>
      </trkpt>
      <trkpt lat="46.98848" lon="8.84427">
        <ele>1302</ele>
        <time>2021-08-04T07:52:43.815Z</time>
      </trkpt>
      <trkpt lat="46.98848" lon="8.84426">
        <ele>1303</ele>
        <time>2021-08-04T07:52:44.815Z</time>
      </trkpt>
      <trkpt lat="46.98848" lon="8.84424">
        <ele>1303</ele>
        <time>2021-08-04T07:52:45.815Z</time>
      </trkpt>
      <trkpt lat="46.98847" lon="8.84423">
        <ele>1303</ele>
        <time>2021-08-04T07:52:46.815Z</time>
      </trkpt>
      <trkpt lat="46.98847" lon="8.84421">
        <ele>1304</ele>
        <time>2021-08-04T07:52:47.814Z</time>
      </trkpt>
      <trkpt lat="46.98846" lon="8.8442">
        <ele>1304</ele>
        <time>2021-08-04T07:52:48.814Z</time>
      </trkpt>
      <trkpt lat="46.98846" lon="8.84419">
        <ele>1304</ele>
        <time>2021-08-04T07:52:49.815Z</time>
      </trkpt>
      <trkpt lat="46.98847" lon="8.84417">
        <ele>1304</ele>
        <time>2021-08-04T07:52:50.815Z</time>
      </trkpt>
      <trkpt lat="46.98847" lon="8.84416">
        <ele>1304</ele>
        <time>2021-08-04T07:52:51.814Z</time>
      </trkpt>
      <trkpt lat="46.98847" lon="8.84414">
        <ele>1304</ele>
        <time>2021-08-04T07:52:52.815Z</time>
      </trkpt>
      <trkpt lat="46.98847" lon="8.84413">
        <ele>1304</ele>
        <time>2021-08-04T07:52:53.814Z</time>
      </trkpt>
      <trkpt lat="46.98846" lon="8.84411">
        <ele>1305</ele>
        <time>2021-08-04T07:52:54.814Z</time>
      </trkpt>
      <trkpt lat="46.98845" lon="8.8441">
        <ele>1305</ele>
        <time>2021-08-04T07:52:55.814Z</time>
      </trkpt>
      <trkpt lat="46.98845" lon="8.84408">
        <ele>1305</ele>
        <time>2021-08-04T07:52:56.814Z</time>
      </trkpt>
      <trkpt lat="46.98844" lon="8.84407">
        <ele>1305</ele>
        <time>2021-08-04T07:52:57.814Z</time>
      </trkpt>
      <trkpt lat="46.98844" lon="8.84405">
        <ele>1305</ele>
        <time>2021-08-04T07:52:58.815Z</time>
      </trkpt>
      <trkpt lat="46.98843" lon="8.84404">
        <ele>1306</ele>
        <time>2021-08-04T07:52:59.815Z</time>
      </trkpt>
      <trkpt lat="46.98843" lon="8.84402">
        <ele>1306</ele>
        <time>2021-08-04T07:53:00.815Z</time>
      </trkpt>
      <trkpt lat="46.98842" lon="8.84401">
        <ele>1306</ele>
        <time>2021-08-04T07:53:01.815Z</time>
      </trkpt>
      <trkpt lat="46.98842" lon="8.84399">
        <ele>1306</ele>
        <time>2021-08-04T07:53:02.814Z</time>
      </trkpt>
      <trkpt lat="46.98842" lon="8.84398">
        <ele>1306</ele>
        <time>2021-08-04T07:53:03.815Z</time>
      </trkpt>
      <trkpt lat="46.98841" lon="8.84396">
        <ele>1305</ele>
        <time>2021-08-04T07:53:04.814Z</time>
      </trkpt>
      <trkpt lat="46.98841" lon="8.84395">
        <ele>1305</ele>
        <time>2021-08-04T07:53:05.815Z</time>
      </trkpt>
      <trkpt lat="46.9884" lon="8.84393">
        <ele>1305</ele>
        <time>2021-08-04T07:53:06.815Z</time>
      </trkpt>
      <trkpt lat="46.9884" lon="8.84392">
        <ele>1305</ele>
        <time>2021-08-04T07:53:07.814Z</time>
      </trkpt>
      <trkpt lat="46.9884" lon="8.84391">
        <ele>1305</ele>
        <time>2021-08-04T07:53:08.815Z</time>
      </trkpt>
      <trkpt lat="46.9884" lon="8.84389">
        <ele>1305</ele>
        <time>2021-08-04T07:53:09.815Z</time>
      </trkpt>
      <trkpt lat="46.98839" lon="8.84388">
        <ele>1305</ele>
        <time>2021-08-04T07:53:10.815Z</time>
      </trkpt>
      <trkpt lat="46.9884" lon="8.84388">
        <ele>1305</ele>
        <time>2021-08-04T07:53:11.815Z</time>
      </trkpt>
      <trkpt lat="46.9884" lon="8.84387">
        <ele>1304</ele>
        <time>2021-08-04T07:53:12.815Z</time>
      </trkpt>
      <trkpt lat="46.9884" lon="8.84386">
        <ele>1304</ele>
        <time>2021-08-04T07:53:13.815Z</time>
      </trkpt>
      <trkpt lat="46.9884" lon="8.84385">
        <ele>1304</ele>
        <time>2021-08-04T07:53:14.815Z</time>
      </trkpt>
      <trkpt lat="46.98839" lon="8.84385">
        <ele>1304</ele>
        <time>2021-08-04T07:53:15.815Z</time>
      </trkpt>
      <trkpt lat="46.98839" lon="8.84384">
        <ele>1304</ele>
        <time>2021-08-04T07:53:16.814Z</time>
      </trkpt>
      <trkpt lat="46.98838" lon="8.84384">
        <ele>1304</ele>
        <time>2021-08-04T07:53:17.814Z</time>
      </trkpt>
      <trkpt lat="46.98838" lon="8.84384">
        <ele>1304</ele>
        <time>2021-08-04T07:53:18.814Z</time>
      </trkpt>
      <trkpt lat="46.98838" lon="8.84386">
        <ele>1302</ele>
        <time>2021-08-04T07:53:19.816Z</time>
      </trkpt>
      <trkpt lat="46.98839" lon="8.84386">
        <ele>1292</ele>
        <time>2021-08-04T07:53:20.815Z</time>
      </trkpt>
      <trkpt lat="46.98839" lon="8.84385">
        <ele>1291</ele>
        <time>2021-08-04T07:53:21.816Z</time>
      </trkpt>
      <trkpt lat="46.98838" lon="8.84384">
        <ele>1291</ele>
        <time>2021-08-04T07:53:22.817Z</time>
      </trkpt>
      <trkpt lat="46.98838" lon="8.84385">
        <ele>1292</ele>
        <time>2021-08-04T07:53:23.816Z</time>
      </trkpt>
      <trkpt lat="46.98838" lon="8.84382">
        <ele>1297</ele>
        <time>2021-08-04T07:53:24.817Z</time>
      </trkpt>
      <trkpt lat="46.98837" lon="8.84381">
        <ele>1297</ele>
        <time>2021-08-04T07:53:25.817Z</time>
      </trkpt>
      <trkpt lat="46.98837" lon="8.8438">
        <ele>1297</ele>
        <time>2021-08-04T07:53:26.817Z</time>
      </trkpt>
      <trkpt lat="46.98837" lon="8.8438">
        <ele>1297</ele>
        <time>2021-08-04T07:53:27.816Z</time>
      </trkpt>
      <trkpt lat="46.98838" lon="8.8438">
        <ele>1297</ele>
        <time>2021-08-04T07:53:28.817Z</time>
      </trkpt>
      <trkpt lat="46.98838" lon="8.8438">
        <ele>1298</ele>
        <time>2021-08-04T07:53:29.816Z</time>
      </trkpt>
      <trkpt lat="46.98838" lon="8.8438">
        <ele>1298</ele>
        <time>2021-08-04T07:53:30.817Z</time>
      </trkpt>
      <trkpt lat="46.98837" lon="8.84378">
        <ele>1299</ele>
        <time>2021-08-04T07:53:31.817Z</time>
      </trkpt>
      <trkpt lat="46.98837" lon="8.84376">
        <ele>1299</ele>
        <time>2021-08-04T07:53:32.817Z</time>
      </trkpt>
      <trkpt lat="46.98836" lon="8.84375">
        <ele>1300</ele>
        <time>2021-08-04T07:53:33.817Z</time>
      </trkpt>
      <trkpt lat="46.98835" lon="8.84374">
        <ele>1300</ele>
        <time>2021-08-04T07:53:34.817Z</time>
      </trkpt>
      <trkpt lat="46.98835" lon="8.84373">
        <ele>1301</ele>
        <time>2021-08-04T07:53:35.817Z</time>
      </trkpt>
      <trkpt lat="46.98834" lon="8.84372">
        <ele>1301</ele>
        <time>2021-08-04T07:53:36.816Z</time>
      </trkpt>
      <trkpt lat="46.98833" lon="8.84371">
        <ele>1301</ele>
        <time>2021-08-04T07:53:37.817Z</time>
      </trkpt>
      <trkpt lat="46.98833" lon="8.8437">
        <ele>1301</ele>
        <time>2021-08-04T07:53:38.817Z</time>
      </trkpt>
      <trkpt lat="46.98833" lon="8.84368">
        <ele>1302</ele>
        <time>2021-08-04T07:53:39.816Z</time>
      </trkpt>
      <trkpt lat="46.98833" lon="8.84367">
        <ele>1302</ele>
        <time>2021-08-04T07:53:40.816Z</time>
      </trkpt>
      <trkpt lat="46.98833" lon="8.84366">
        <ele>1302</ele>
        <time>2021-08-04T07:53:41.817Z</time>
      </trkpt>
      <trkpt lat="46.98833" lon="8.84365">
        <ele>1302</ele>
        <time>2021-08-04T07:53:42.817Z</time>
      </trkpt>
      <trkpt lat="46.98833" lon="8.84364">
        <ele>1302</ele>
        <time>2021-08-04T07:53:43.817Z</time>
      </trkpt>
      <trkpt lat="46.98833" lon="8.84363">
        <ele>1303</ele>
        <time>2021-08-04T07:53:44.816Z</time>
      </trkpt>
      <trkpt lat="46.98833" lon="8.84361">
        <ele>1303</ele>
        <time>2021-08-04T07:53:45.816Z</time>
      </trkpt>
      <trkpt lat="46.98832" lon="8.84359">
        <ele>1303</ele>
        <time>2021-08-04T07:53:46.816Z</time>
      </trkpt>
      <trkpt lat="46.98832" lon="8.84358">
        <ele>1303</ele>
        <time>2021-08-04T07:53:47.816Z</time>
      </trkpt>
      <trkpt lat="46.98832" lon="8.84356">
        <ele>1302</ele>
        <time>2021-08-04T07:53:48.816Z</time>
      </trkpt>
      <trkpt lat="46.98832" lon="8.84355">
        <ele>1302</ele>
        <time>2021-08-04T07:53:49.817Z</time>
      </trkpt>
      <trkpt lat="46.98832" lon="8.84354">
        <ele>1301</ele>
        <time>2021-08-04T07:53:50.816Z</time>
      </trkpt>
      <trkpt lat="46.98831" lon="8.84352">
        <ele>1301</ele>
        <time>2021-08-04T07:53:51.817Z</time>
      </trkpt>
      <trkpt lat="46.98831" lon="8.84351">
        <ele>1301</ele>
        <time>2021-08-04T07:53:52.816Z</time>
      </trkpt>
      <trkpt lat="46.98831" lon="8.8435">
        <ele>1300</ele>
        <time>2021-08-04T07:53:53.817Z</time>
      </trkpt>
      <trkpt lat="46.98832" lon="8.84348">
        <ele>1300</ele>
        <time>2021-08-04T07:53:54.817Z</time>
      </trkpt>
      <trkpt lat="46.98832" lon="8.84347">
        <ele>1300</ele>
        <time>2021-08-04T07:53:55.816Z</time>
      </trkpt>
      <trkpt lat="46.98832" lon="8.84346">
        <ele>1300</ele>
        <time>2021-08-04T07:53:56.817Z</time>
      </trkpt>
      <trkpt lat="46.98832" lon="8.84344">
        <ele>1300</ele>
        <time>2021-08-04T07:53:57.817Z</time>
      </trkpt>
      <trkpt lat="46.98831" lon="8.84343">
        <ele>1300</ele>
        <time>2021-08-04T07:53:58.817Z</time>
      </trkpt>
      <trkpt lat="46.98831" lon="8.84341">
        <ele>1300</ele>
        <time>2021-08-04T07:53:59.817Z</time>
      </trkpt>
      <trkpt lat="46.9883" lon="8.84339">
        <ele>1300</ele>
        <time>2021-08-04T07:54:00.817Z</time>
      </trkpt>
      <trkpt lat="46.9883" lon="8.84337">
        <ele>1300</ele>
        <time>2021-08-04T07:54:01.816Z</time>
      </trkpt>
      <trkpt lat="46.9883" lon="8.84335">
        <ele>1300</ele>
        <time>2021-08-04T07:54:02.817Z</time>
      </trkpt>
      <trkpt lat="46.9883" lon="8.84333">
        <ele>1299</ele>
        <time>2021-08-04T07:54:03.816Z</time>
      </trkpt>
      <trkpt lat="46.9883" lon="8.84332">
        <ele>1299</ele>
        <time>2021-08-04T07:54:04.817Z</time>
      </trkpt>
      <trkpt lat="46.9883" lon="8.8433">
        <ele>1299</ele>
        <time>2021-08-04T07:54:05.817Z</time>
      </trkpt>
      <trkpt lat="46.9883" lon="8.84329">
        <ele>1299</ele>
        <time>2021-08-04T07:54:06.816Z</time>
      </trkpt>
      <trkpt lat="46.9883" lon="8.84328">
        <ele>1299</ele>
        <time>2021-08-04T07:54:07.816Z</time>
      </trkpt>
      <trkpt lat="46.9883" lon="8.84326">
        <ele>1299</ele>
        <time>2021-08-04T07:54:08.817Z</time>
      </trkpt>
      <trkpt lat="46.9883" lon="8.84325">
        <ele>1298</ele>
        <time>2021-08-04T07:54:09.817Z</time>
      </trkpt>
      <trkpt lat="46.9883" lon="8.84323">
        <ele>1298</ele>
        <time>2021-08-04T07:54:10.817Z</time>
      </trkpt>
      <trkpt lat="46.9883" lon="8.84321">
        <ele>1298</ele>
        <time>2021-08-04T07:54:11.817Z</time>
      </trkpt>
      <trkpt lat="46.9883" lon="8.84319">
        <ele>1298</ele>
        <time>2021-08-04T07:54:12.817Z</time>
      </trkpt>
      <trkpt lat="46.9883" lon="8.84317">
        <ele>1298</ele>
        <time>2021-08-04T07:54:13.816Z</time>
      </trkpt>
      <trkpt lat="46.98829" lon="8.84315">
        <ele>1298</ele>
        <time>2021-08-04T07:54:14.817Z</time>
      </trkpt>
      <trkpt lat="46.98829" lon="8.84314">
        <ele>1298</ele>
        <time>2021-08-04T07:54:15.816Z</time>
      </trkpt>
      <trkpt lat="46.98829" lon="8.84312">
        <ele>1298</ele>
        <time>2021-08-04T07:54:16.817Z</time>
      </trkpt>
      <trkpt lat="46.98829" lon="8.84311">
        <ele>1298</ele>
        <time>2021-08-04T07:54:17.816Z</time>
      </trkpt>
      <trkpt lat="46.98829" lon="8.84309">
        <ele>1297</ele>
        <time>2021-08-04T07:54:18.817Z</time>
      </trkpt>
      <trkpt lat="46.98828" lon="8.84307">
        <ele>1297</ele>
        <time>2021-08-04T07:54:19.817Z</time>
      </trkpt>
      <trkpt lat="46.98827" lon="8.84305">
        <ele>1297</ele>
        <time>2021-08-04T07:54:20.817Z</time>
      </trkpt>
      <trkpt lat="46.98827" lon="8.84303">
        <ele>1297</ele>
        <time>2021-08-04T07:54:21.816Z</time>
      </trkpt>
      <trkpt lat="46.98827" lon="8.84302">
        <ele>1296</ele>
        <time>2021-08-04T07:54:22.816Z</time>
      </trkpt>
      <trkpt lat="46.98828" lon="8.84301">
        <ele>1296</ele>
        <time>2021-08-04T07:54:23.817Z</time>
      </trkpt>
      <trkpt lat="46.98827" lon="8.84299">
        <ele>1296</ele>
        <time>2021-08-04T07:54:24.816Z</time>
      </trkpt>
      <trkpt lat="46.98827" lon="8.84298">
        <ele>1296</ele>
        <time>2021-08-04T07:54:25.816Z</time>
      </trkpt>
      <trkpt lat="46.98826" lon="8.84296">
        <ele>1296</ele>
        <time>2021-08-04T07:54:26.817Z</time>
      </trkpt>
      <trkpt lat="46.98826" lon="8.84294">
        <ele>1296</ele>
        <time>2021-08-04T07:54:27.817Z</time>
      </trkpt>
      <trkpt lat="46.98826" lon="8.84292">
        <ele>1297</ele>
        <time>2021-08-04T07:54:28.816Z</time>
      </trkpt>
      <trkpt lat="46.98825" lon="8.8429">
        <ele>1297</ele>
        <time>2021-08-04T07:54:29.817Z</time>
      </trkpt>
      <trkpt lat="46.98824" lon="8.84288">
        <ele>1297</ele>
        <time>2021-08-04T07:54:30.817Z</time>
      </trkpt>
      <trkpt lat="46.98824" lon="8.84286">
        <ele>1297</ele>
        <time>2021-08-04T07:54:31.816Z</time>
      </trkpt>
      <trkpt lat="46.98823" lon="8.84284">
        <ele>1298</ele>
        <time>2021-08-04T07:54:32.816Z</time>
      </trkpt>
      <trkpt lat="46.98823" lon="8.84282">
        <ele>1298</ele>
        <time>2021-08-04T07:54:33.817Z</time>
      </trkpt>
      <trkpt lat="46.98823" lon="8.84281">
        <ele>1298</ele>
        <time>2021-08-04T07:54:34.817Z</time>
      </trkpt>
      <trkpt lat="46.98823" lon="8.84279">
        <ele>1298</ele>
        <time>2021-08-04T07:54:35.817Z</time>
      </trkpt>
      <trkpt lat="46.98824" lon="8.84278">
        <ele>1298</ele>
        <time>2021-08-04T07:54:36.816Z</time>
      </trkpt>
      <trkpt lat="46.98824" lon="8.84276">
        <ele>1298</ele>
        <time>2021-08-04T07:54:37.816Z</time>
      </trkpt>
      <trkpt lat="46.98824" lon="8.84274">
        <ele>1299</ele>
        <time>2021-08-04T07:54:38.816Z</time>
      </trkpt>
      <trkpt lat="46.98824" lon="8.84273">
        <ele>1299</ele>
        <time>2021-08-04T07:54:39.817Z</time>
      </trkpt>
      <trkpt lat="46.98824" lon="8.84271">
        <ele>1299</ele>
        <time>2021-08-04T07:54:40.817Z</time>
      </trkpt>
      <trkpt lat="46.98824" lon="8.8427">
        <ele>1300</ele>
        <time>2021-08-04T07:54:41.817Z</time>
      </trkpt>
      <trkpt lat="46.98824" lon="8.84268">
        <ele>1300</ele>
        <time>2021-08-04T07:54:42.816Z</time>
      </trkpt>
      <trkpt lat="46.98824" lon="8.84267">
        <ele>1301</ele>
        <time>2021-08-04T07:54:43.816Z</time>
      </trkpt>
      <trkpt lat="46.98824" lon="8.84266">
        <ele>1301</ele>
        <time>2021-08-04T07:54:44.817Z</time>
      </trkpt>
      <trkpt lat="46.98824" lon="8.84265">
        <ele>1302</ele>
        <time>2021-08-04T07:54:45.817Z</time>
      </trkpt>
      <trkpt lat="46.98824" lon="8.84264">
        <ele>1302</ele>
        <time>2021-08-04T07:54:46.817Z</time>
      </trkpt>
      <trkpt lat="46.98824" lon="8.84263">
        <ele>1302</ele>
        <time>2021-08-04T07:54:47.816Z</time>
      </trkpt>
      <trkpt lat="46.98824" lon="8.84261">
        <ele>1302</ele>
        <time>2021-08-04T07:54:48.816Z</time>
      </trkpt>
      <trkpt lat="46.98824" lon="8.8426">
        <ele>1303</ele>
        <time>2021-08-04T07:54:49.816Z</time>
      </trkpt>
      <trkpt lat="46.98824" lon="8.84258">
        <ele>1303</ele>
        <time>2021-08-04T07:54:50.817Z</time>
      </trkpt>
      <trkpt lat="46.98824" lon="8.84256">
        <ele>1303</ele>
        <time>2021-08-04T07:54:51.817Z</time>
      </trkpt>
      <trkpt lat="46.98824" lon="8.84255">
        <ele>1302</ele>
        <time>2021-08-04T07:54:52.816Z</time>
      </trkpt>
      <trkpt lat="46.98824" lon="8.84254">
        <ele>1302</ele>
        <time>2021-08-04T07:54:53.817Z</time>
      </trkpt>
      <trkpt lat="46.98823" lon="8.84252">
        <ele>1302</ele>
        <time>2021-08-04T07:54:54.817Z</time>
      </trkpt>
      <trkpt lat="46.98823" lon="8.8425">
        <ele>1302</ele>
        <time>2021-08-04T07:54:55.817Z</time>
      </trkpt>
      <trkpt lat="46.98823" lon="8.84248">
        <ele>1302</ele>
        <time>2021-08-04T07:54:56.817Z</time>
      </trkpt>
      <trkpt lat="46.98822" lon="8.84246">
        <ele>1301</ele>
        <time>2021-08-04T07:54:57.817Z</time>
      </trkpt>
      <trkpt lat="46.98821" lon="8.84244">
        <ele>1301</ele>
        <time>2021-08-04T07:54:58.816Z</time>
      </trkpt>
      <trkpt lat="46.98821" lon="8.84242">
        <ele>1301</ele>
        <time>2021-08-04T07:54:59.817Z</time>
      </trkpt>
      <trkpt lat="46.98821" lon="8.8424">
        <ele>1301</ele>
        <time>2021-08-04T07:55:00.816Z</time>
      </trkpt>
      <trkpt lat="46.98821" lon="8.84238">
        <ele>1300</ele>
        <time>2021-08-04T07:55:01.816Z</time>
      </trkpt>
      <trkpt lat="46.9882" lon="8.84237">
        <ele>1300</ele>
        <time>2021-08-04T07:55:02.816Z</time>
      </trkpt>
      <trkpt lat="46.98819" lon="8.84235">
        <ele>1299</ele>
        <time>2021-08-04T07:55:03.816Z</time>
      </trkpt>
      <trkpt lat="46.98819" lon="8.84233">
        <ele>1298</ele>
        <time>2021-08-04T07:55:04.817Z</time>
      </trkpt>
      <trkpt lat="46.98819" lon="8.84232">
        <ele>1298</ele>
        <time>2021-08-04T07:55:05.816Z</time>
      </trkpt>
      <trkpt lat="46.98819" lon="8.8423">
        <ele>1298</ele>
        <time>2021-08-04T07:55:06.816Z</time>
      </trkpt>
      <trkpt lat="46.98819" lon="8.84228">
        <ele>1297</ele>
        <time>2021-08-04T07:55:07.816Z</time>
      </trkpt>
      <trkpt lat="46.9882" lon="8.84226">
        <ele>1297</ele>
        <time>2021-08-04T07:55:08.816Z</time>
      </trkpt>
      <trkpt lat="46.9882" lon="8.84225">
        <ele>1296</ele>
        <time>2021-08-04T07:55:09.817Z</time>
      </trkpt>
      <trkpt lat="46.9882" lon="8.84224">
        <ele>1296</ele>
        <time>2021-08-04T07:55:10.817Z</time>
      </trkpt>
      <trkpt lat="46.9882" lon="8.84223">
        <ele>1295</ele>
        <time>2021-08-04T07:55:11.816Z</time>
      </trkpt>
      <trkpt lat="46.9882" lon="8.84221">
        <ele>1294</ele>
        <time>2021-08-04T07:55:12.817Z</time>
      </trkpt>
      <trkpt lat="46.98819" lon="8.84219">
        <ele>1294</ele>
        <time>2021-08-04T07:55:13.817Z</time>
      </trkpt>
      <trkpt lat="46.98819" lon="8.84217">
        <ele>1293</ele>
        <time>2021-08-04T07:55:14.816Z</time>
      </trkpt>
      <trkpt lat="46.98819" lon="8.84216">
        <ele>1293</ele>
        <time>2021-08-04T07:55:15.816Z</time>
      </trkpt>
      <trkpt lat="46.98819" lon="8.84214">
        <ele>1293</ele>
        <time>2021-08-04T07:55:16.816Z</time>
      </trkpt>
      <trkpt lat="46.98819" lon="8.84212">
        <ele>1293</ele>
        <time>2021-08-04T07:55:17.816Z</time>
      </trkpt>
      <trkpt lat="46.98818" lon="8.8421">
        <ele>1294</ele>
        <time>2021-08-04T07:55:18.817Z</time>
      </trkpt>
      <trkpt lat="46.98817" lon="8.8421">
        <ele>1294</ele>
        <time>2021-08-04T07:55:19.817Z</time>
      </trkpt>
      <trkpt lat="46.98817" lon="8.8421">
        <ele>1294</ele>
        <time>2021-08-04T07:55:20.816Z</time>
      </trkpt>
      <trkpt lat="46.98817" lon="8.84212">
        <ele>1294</ele>
        <time>2021-08-04T07:55:21.816Z</time>
      </trkpt>
      <trkpt lat="46.98819" lon="8.84211">
        <ele>1296</ele>
        <time>2021-08-04T07:55:22.817Z</time>
      </trkpt>
      <trkpt lat="46.98818" lon="8.8421">
        <ele>1297</ele>
        <time>2021-08-04T07:55:23.818Z</time>
      </trkpt>
      <trkpt lat="46.98818" lon="8.84209">
        <ele>1297</ele>
        <time>2021-08-04T07:55:24.817Z</time>
      </trkpt>
      <trkpt lat="46.98818" lon="8.84208">
        <ele>1297</ele>
        <time>2021-08-04T07:55:25.818Z</time>
      </trkpt>
      <trkpt lat="46.98818" lon="8.84206">
        <ele>1297</ele>
        <time>2021-08-04T07:55:26.818Z</time>
      </trkpt>
      <trkpt lat="46.98818" lon="8.84204">
        <ele>1297</ele>
        <time>2021-08-04T07:55:27.818Z</time>
      </trkpt>
      <trkpt lat="46.98818" lon="8.84202">
        <ele>1297</ele>
        <time>2021-08-04T07:55:28.818Z</time>
      </trkpt>
      <trkpt lat="46.98818" lon="8.84201">
        <ele>1297</ele>
        <time>2021-08-04T07:55:29.817Z</time>
      </trkpt>
      <trkpt lat="46.98818" lon="8.84199">
        <ele>1298</ele>
        <time>2021-08-04T07:55:30.817Z</time>
      </trkpt>
      <trkpt lat="46.98818" lon="8.84197">
        <ele>1297</ele>
        <time>2021-08-04T07:55:31.818Z</time>
      </trkpt>
      <trkpt lat="46.98818" lon="8.84195">
        <ele>1297</ele>
        <time>2021-08-04T07:55:32.818Z</time>
      </trkpt>
      <trkpt lat="46.98817" lon="8.84194">
        <ele>1297</ele>
        <time>2021-08-04T07:55:33.818Z</time>
      </trkpt>
      <trkpt lat="46.98817" lon="8.84192">
        <ele>1297</ele>
        <time>2021-08-04T07:55:34.817Z</time>
      </trkpt>
      <trkpt lat="46.98817" lon="8.8419">
        <ele>1297</ele>
        <time>2021-08-04T07:55:35.818Z</time>
      </trkpt>
      <trkpt lat="46.98816" lon="8.84189">
        <ele>1297</ele>
        <time>2021-08-04T07:55:36.818Z</time>
      </trkpt>
      <trkpt lat="46.98816" lon="8.84188">
        <ele>1297</ele>
        <time>2021-08-04T07:55:37.818Z</time>
      </trkpt>
      <trkpt lat="46.98816" lon="8.84186">
        <ele>1297</ele>
        <time>2021-08-04T07:55:38.818Z</time>
      </trkpt>
      <trkpt lat="46.98816" lon="8.84185">
        <ele>1297</ele>
        <time>2021-08-04T07:55:39.818Z</time>
      </trkpt>
      <trkpt lat="46.98815" lon="8.84183">
        <ele>1296</ele>
        <time>2021-08-04T07:55:40.817Z</time>
      </trkpt>
      <trkpt lat="46.98815" lon="8.84183">
        <ele>1296</ele>
        <time>2021-08-04T07:55:41.818Z</time>
      </trkpt>
      <trkpt lat="46.98815" lon="8.84183">
        <ele>1296</ele>
        <time>2021-08-04T07:55:42.817Z</time>
      </trkpt>
      <trkpt lat="46.98814" lon="8.84182">
        <ele>1296</ele>
        <time>2021-08-04T07:55:43.818Z</time>
      </trkpt>
      <trkpt lat="46.98812" lon="8.8418">
        <ele>1291</ele>
        <time>2021-08-04T07:55:44.817Z</time>
      </trkpt>
      <trkpt lat="46.98812" lon="8.84179">
        <ele>1290</ele>
        <time>2021-08-04T07:55:45.817Z</time>
      </trkpt>
      <trkpt lat="46.98811" lon="8.84178">
        <ele>1290</ele>
        <time>2021-08-04T07:55:46.817Z</time>
      </trkpt>
      <trkpt lat="46.98811" lon="8.84177">
        <ele>1290</ele>
        <time>2021-08-04T07:55:47.818Z</time>
      </trkpt>
      <trkpt lat="46.98811" lon="8.84175">
        <ele>1290</ele>
        <time>2021-08-04T07:55:48.818Z</time>
      </trkpt>
      <trkpt lat="46.98811" lon="8.84174">
        <ele>1290</ele>
        <time>2021-08-04T07:55:49.818Z</time>
      </trkpt>
      <trkpt lat="46.98811" lon="8.84172">
        <ele>1290</ele>
        <time>2021-08-04T07:55:50.818Z</time>
      </trkpt>
      <trkpt lat="46.98811" lon="8.8417">
        <ele>1291</ele>
        <time>2021-08-04T07:55:51.818Z</time>
      </trkpt>
      <trkpt lat="46.98811" lon="8.84169">
        <ele>1291</ele>
        <time>2021-08-04T07:55:52.818Z</time>
      </trkpt>
      <trkpt lat="46.98811" lon="8.84167">
        <ele>1291</ele>
        <time>2021-08-04T07:55:53.817Z</time>
      </trkpt>
      <trkpt lat="46.98811" lon="8.84166">
        <ele>1291</ele>
        <time>2021-08-04T07:55:54.817Z</time>
      </trkpt>
      <trkpt lat="46.98811" lon="8.84164">
        <ele>1291</ele>
        <time>2021-08-04T07:55:55.818Z</time>
      </trkpt>
      <trkpt lat="46.98811" lon="8.84162">
        <ele>1291</ele>
        <time>2021-08-04T07:55:56.818Z</time>
      </trkpt>
      <trkpt lat="46.98811" lon="8.84161">
        <ele>1292</ele>
        <time>2021-08-04T07:55:57.818Z</time>
      </trkpt>
      <trkpt lat="46.98811" lon="8.8416">
        <ele>1292</ele>
        <time>2021-08-04T07:55:58.817Z</time>
      </trkpt>
      <trkpt lat="46.98811" lon="8.84158">
        <ele>1292</ele>
        <time>2021-08-04T07:55:59.817Z</time>
      </trkpt>
      <trkpt lat="46.98812" lon="8.84157">
        <ele>1292</ele>
        <time>2021-08-04T07:56:00.817Z</time>
      </trkpt>
      <trkpt lat="46.98811" lon="8.84155">
        <ele>1292</ele>
        <time>2021-08-04T07:56:01.818Z</time>
      </trkpt>
      <trkpt lat="46.98811" lon="8.84154">
        <ele>1293</ele>
        <time>2021-08-04T07:56:02.818Z</time>
      </trkpt>
      <trkpt lat="46.98811" lon="8.84152">
        <ele>1293</ele>
        <time>2021-08-04T07:56:03.818Z</time>
      </trkpt>
      <trkpt lat="46.98811" lon="8.8415">
        <ele>1293</ele>
        <time>2021-08-04T07:56:04.818Z</time>
      </trkpt>
      <trkpt lat="46.98812" lon="8.84149">
        <ele>1293</ele>
        <time>2021-08-04T07:56:05.818Z</time>
      </trkpt>
      <trkpt lat="46.98812" lon="8.84147">
        <ele>1293</ele>
        <time>2021-08-04T07:56:06.818Z</time>
      </trkpt>
      <trkpt lat="46.98812" lon="8.84145">
        <ele>1293</ele>
        <time>2021-08-04T07:56:07.817Z</time>
      </trkpt>
      <trkpt lat="46.98812" lon="8.84144">
        <ele>1292</ele>
        <time>2021-08-04T07:56:08.818Z</time>
      </trkpt>
      <trkpt lat="46.98812" lon="8.84142">
        <ele>1292</ele>
        <time>2021-08-04T07:56:09.817Z</time>
      </trkpt>
      <trkpt lat="46.98812" lon="8.84141">
        <ele>1291</ele>
        <time>2021-08-04T07:56:10.818Z</time>
      </trkpt>
      <trkpt lat="46.98812" lon="8.84139">
        <ele>1291</ele>
        <time>2021-08-04T07:56:11.818Z</time>
      </trkpt>
      <trkpt lat="46.98812" lon="8.84138">
        <ele>1290</ele>
        <time>2021-08-04T07:56:12.818Z</time>
      </trkpt>
      <trkpt lat="46.98811" lon="8.84136">
        <ele>1290</ele>
        <time>2021-08-04T07:56:13.818Z</time>
      </trkpt>
      <trkpt lat="46.98811" lon="8.84134">
        <ele>1290</ele>
        <time>2021-08-04T07:56:14.818Z</time>
      </trkpt>
      <trkpt lat="46.98811" lon="8.84132">
        <ele>1290</ele>
        <time>2021-08-04T07:56:15.817Z</time>
      </trkpt>
      <trkpt lat="46.98812" lon="8.84131">
        <ele>1290</ele>
        <time>2021-08-04T07:56:16.818Z</time>
      </trkpt>
      <trkpt lat="46.98813" lon="8.8413">
        <ele>1291</ele>
        <time>2021-08-04T07:56:17.817Z</time>
      </trkpt>
      <trkpt lat="46.98813" lon="8.84129">
        <ele>1291</ele>
        <time>2021-08-04T07:56:18.817Z</time>
      </trkpt>
      <trkpt lat="46.98813" lon="8.84128">
        <ele>1291</ele>
        <time>2021-08-04T07:56:19.818Z</time>
      </trkpt>
      <trkpt lat="46.98813" lon="8.84128">
        <ele>1291</ele>
        <time>2021-08-04T07:56:20.817Z</time>
      </trkpt>
      <trkpt lat="46.98812" lon="8.84128">
        <ele>1291</ele>
        <time>2021-08-04T07:56:21.817Z</time>
      </trkpt>
      <trkpt lat="46.98813" lon="8.84126">
        <ele>1291</ele>
        <time>2021-08-04T07:56:22.818Z</time>
      </trkpt>
      <trkpt lat="46.98813" lon="8.84125">
        <ele>1290</ele>
        <time>2021-08-04T07:56:23.818Z</time>
      </trkpt>
      <trkpt lat="46.98813" lon="8.84123">
        <ele>1290</ele>
        <time>2021-08-04T07:56:24.817Z</time>
      </trkpt>
      <trkpt lat="46.98812" lon="8.84121">
        <ele>1290</ele>
        <time>2021-08-04T07:56:25.818Z</time>
      </trkpt>
      <trkpt lat="46.98812" lon="8.8412">
        <ele>1290</ele>
        <time>2021-08-04T07:56:26.818Z</time>
      </trkpt>
      <trkpt lat="46.98812" lon="8.84119">
        <ele>1290</ele>
        <time>2021-08-04T07:56:27.818Z</time>
      </trkpt>
      <trkpt lat="46.98812" lon="8.84118">
        <ele>1290</ele>
        <time>2021-08-04T07:56:28.818Z</time>
      </trkpt>
      <trkpt lat="46.98811" lon="8.84116">
        <ele>1289</ele>
        <time>2021-08-04T07:56:29.817Z</time>
      </trkpt>
      <trkpt lat="46.9881" lon="8.84114">
        <ele>1289</ele>
        <time>2021-08-04T07:56:30.817Z</time>
      </trkpt>
      <trkpt lat="46.98809" lon="8.84112">
        <ele>1289</ele>
        <time>2021-08-04T07:56:31.817Z</time>
      </trkpt>
      <trkpt lat="46.98809" lon="8.8411">
        <ele>1289</ele>
        <time>2021-08-04T07:56:32.818Z</time>
      </trkpt>
      <trkpt lat="46.98809" lon="8.84109">
        <ele>1289</ele>
        <time>2021-08-04T07:56:33.818Z</time>
      </trkpt>
      <trkpt lat="46.98809" lon="8.84107">
        <ele>1290</ele>
        <time>2021-08-04T07:56:34.818Z</time>
      </trkpt>
      <trkpt lat="46.98809" lon="8.84105">
        <ele>1290</ele>
        <time>2021-08-04T07:56:35.818Z</time>
      </trkpt>
      <trkpt lat="46.98809" lon="8.84104">
        <ele>1290</ele>
        <time>2021-08-04T07:56:36.818Z</time>
      </trkpt>
      <trkpt lat="46.98809" lon="8.84102">
        <ele>1290</ele>
        <time>2021-08-04T07:56:37.818Z</time>
      </trkpt>
      <trkpt lat="46.98809" lon="8.84101">
        <ele>1290</ele>
        <time>2021-08-04T07:56:38.817Z</time>
      </trkpt>
      <trkpt lat="46.98809" lon="8.84099">
        <ele>1290</ele>
        <time>2021-08-04T07:56:39.817Z</time>
      </trkpt>
      <trkpt lat="46.98809" lon="8.84098">
        <ele>1290</ele>
        <time>2021-08-04T07:56:40.818Z</time>
      </trkpt>
      <trkpt lat="46.98809" lon="8.84096">
        <ele>1290</ele>
        <time>2021-08-04T07:56:41.817Z</time>
      </trkpt>
      <trkpt lat="46.98809" lon="8.84095">
        <ele>1290</ele>
        <time>2021-08-04T07:56:42.817Z</time>
      </trkpt>
      <trkpt lat="46.98808" lon="8.84093">
        <ele>1290</ele>
        <time>2021-08-04T07:56:43.817Z</time>
      </trkpt>
      <trkpt lat="46.98808" lon="8.84091">
        <ele>1291</ele>
        <time>2021-08-04T07:56:44.817Z</time>
      </trkpt>
      <trkpt lat="46.98808" lon="8.84089">
        <ele>1291</ele>
        <time>2021-08-04T07:56:45.818Z</time>
      </trkpt>
      <trkpt lat="46.98808" lon="8.84087">
        <ele>1291</ele>
        <time>2021-08-04T07:56:46.818Z</time>
      </trkpt>
      <trkpt lat="46.98808" lon="8.84086">
        <ele>1292</ele>
        <time>2021-08-04T07:56:47.817Z</time>
      </trkpt>
      <trkpt lat="46.98808" lon="8.84084">
        <ele>1292</ele>
        <time>2021-08-04T07:56:48.817Z</time>
      </trkpt>
      <trkpt lat="46.98808" lon="8.84082">
        <ele>1292</ele>
        <time>2021-08-04T07:56:49.818Z</time>
      </trkpt>
      <trkpt lat="46.98809" lon="8.8408">
        <ele>1293</ele>
        <time>2021-08-04T07:56:50.818Z</time>
      </trkpt>
      <trkpt lat="46.98809" lon="8.84078">
        <ele>1293</ele>
        <time>2021-08-04T07:56:51.817Z</time>
      </trkpt>
      <trkpt lat="46.98809" lon="8.84076">
        <ele>1293</ele>
        <time>2021-08-04T07:56:52.818Z</time>
      </trkpt>
      <trkpt lat="46.98809" lon="8.84074">
        <ele>1292</ele>
        <time>2021-08-04T07:56:53.818Z</time>
      </trkpt>
      <trkpt lat="46.98809" lon="8.84072">
        <ele>1292</ele>
        <time>2021-08-04T07:56:54.817Z</time>
      </trkpt>
      <trkpt lat="46.98809" lon="8.84071">
        <ele>1291</ele>
        <time>2021-08-04T07:56:55.818Z</time>
      </trkpt>
      <trkpt lat="46.98808" lon="8.84069">
        <ele>1291</ele>
        <time>2021-08-04T07:56:56.818Z</time>
      </trkpt>
      <trkpt lat="46.98808" lon="8.84067">
        <ele>1290</ele>
        <time>2021-08-04T07:56:57.818Z</time>
      </trkpt>
      <trkpt lat="46.98808" lon="8.84064">
        <ele>1290</ele>
        <time>2021-08-04T07:56:58.818Z</time>
      </trkpt>
      <trkpt lat="46.98808" lon="8.84062">
        <ele>1289</ele>
        <time>2021-08-04T07:56:59.817Z</time>
      </trkpt>
      <trkpt lat="46.98808" lon="8.84061">
        <ele>1289</ele>
        <time>2021-08-04T07:57:00.817Z</time>
      </trkpt>
      <trkpt lat="46.98808" lon="8.84059">
        <ele>1289</ele>
        <time>2021-08-04T07:57:01.818Z</time>
      </trkpt>
      <trkpt lat="46.98808" lon="8.84057">
        <ele>1289</ele>
        <time>2021-08-04T07:57:02.818Z</time>
      </trkpt>
      <trkpt lat="46.98808" lon="8.84056">
        <ele>1290</ele>
        <time>2021-08-04T07:57:03.817Z</time>
      </trkpt>
      <trkpt lat="46.98808" lon="8.84054">
        <ele>1291</ele>
        <time>2021-08-04T07:57:04.817Z</time>
      </trkpt>
      <trkpt lat="46.98808" lon="8.84053">
        <ele>1291</ele>
        <time>2021-08-04T07:57:05.818Z</time>
      </trkpt>
      <trkpt lat="46.98808" lon="8.84051">
        <ele>1291</ele>
        <time>2021-08-04T07:57:06.817Z</time>
      </trkpt>
      <trkpt lat="46.98808" lon="8.8405">
        <ele>1291</ele>
        <time>2021-08-04T07:57:07.818Z</time>
      </trkpt>
      <trkpt lat="46.98808" lon="8.84048">
        <ele>1290</ele>
        <time>2021-08-04T07:57:08.818Z</time>
      </trkpt>
      <trkpt lat="46.98808" lon="8.84046">
        <ele>1290</ele>
        <time>2021-08-04T07:57:09.818Z</time>
      </trkpt>
      <trkpt lat="46.98808" lon="8.84045">
        <ele>1290</ele>
        <time>2021-08-04T07:57:10.818Z</time>
      </trkpt>
      <trkpt lat="46.98809" lon="8.84043">
        <ele>1290</ele>
        <time>2021-08-04T07:57:11.818Z</time>
      </trkpt>
      <trkpt lat="46.98809" lon="8.84042">
        <ele>1289</ele>
        <time>2021-08-04T07:57:12.817Z</time>
      </trkpt>
      <trkpt lat="46.98809" lon="8.8404">
        <ele>1288</ele>
        <time>2021-08-04T07:57:13.818Z</time>
      </trkpt>
      <trkpt lat="46.98809" lon="8.84039">
        <ele>1288</ele>
        <time>2021-08-04T07:57:14.817Z</time>
      </trkpt>
      <trkpt lat="46.98809" lon="8.84037">
        <ele>1287</ele>
        <time>2021-08-04T07:57:15.817Z</time>
      </trkpt>
      <trkpt lat="46.98809" lon="8.84036">
        <ele>1287</ele>
        <time>2021-08-04T07:57:16.818Z</time>
      </trkpt>
      <trkpt lat="46.98809" lon="8.84034">
        <ele>1286</ele>
        <time>2021-08-04T07:57:17.818Z</time>
      </trkpt>
      <trkpt lat="46.98809" lon="8.84032">
        <ele>1286</ele>
        <time>2021-08-04T07:57:18.818Z</time>
      </trkpt>
      <trkpt lat="46.98809" lon="8.84031">
        <ele>1285</ele>
        <time>2021-08-04T07:57:19.818Z</time>
      </trkpt>
      <trkpt lat="46.98809" lon="8.84029">
        <ele>1285</ele>
        <time>2021-08-04T07:57:20.817Z</time>
      </trkpt>
      <trkpt lat="46.9881" lon="8.84027">
        <ele>1285</ele>
        <time>2021-08-04T07:57:21.818Z</time>
      </trkpt>
      <trkpt lat="46.9881" lon="8.84025">
        <ele>1285</ele>
        <time>2021-08-04T07:57:22.817Z</time>
      </trkpt>
      <trkpt lat="46.98811" lon="8.84024">
        <ele>1285</ele>
        <time>2021-08-04T07:57:23.817Z</time>
      </trkpt>
      <trkpt lat="46.98811" lon="8.84021">
        <ele>1284</ele>
        <time>2021-08-04T07:57:24.817Z</time>
      </trkpt>
      <trkpt lat="46.98811" lon="8.84019">
        <ele>1284</ele>
        <time>2021-08-04T07:57:25.818Z</time>
      </trkpt>
      <trkpt lat="46.98812" lon="8.84018">
        <ele>1284</ele>
        <time>2021-08-04T07:57:26.818Z</time>
      </trkpt>
      <trkpt lat="46.98812" lon="8.84016">
        <ele>1283</ele>
        <time>2021-08-04T07:57:27.818Z</time>
      </trkpt>
      <trkpt lat="46.98812" lon="8.84015">
        <ele>1283</ele>
        <time>2021-08-04T07:57:28.818Z</time>
      </trkpt>
      <trkpt lat="46.98812" lon="8.84013">
        <ele>1282</ele>
        <time>2021-08-04T07:57:29.817Z</time>
      </trkpt>
      <trkpt lat="46.98813" lon="8.84011">
        <ele>1282</ele>
        <time>2021-08-04T07:57:30.818Z</time>
      </trkpt>
      <trkpt lat="46.98813" lon="8.8401">
        <ele>1281</ele>
        <time>2021-08-04T07:57:31.818Z</time>
      </trkpt>
      <trkpt lat="46.98812" lon="8.84008">
        <ele>1280</ele>
        <time>2021-08-04T07:57:32.818Z</time>
      </trkpt>
      <trkpt lat="46.98812" lon="8.84007">
        <ele>1280</ele>
        <time>2021-08-04T07:57:33.817Z</time>
      </trkpt>
      <trkpt lat="46.98812" lon="8.84005">
        <ele>1280</ele>
        <time>2021-08-04T07:57:34.818Z</time>
      </trkpt>
      <trkpt lat="46.98811" lon="8.84003">
        <ele>1280</ele>
        <time>2021-08-04T07:57:35.818Z</time>
      </trkpt>
      <trkpt lat="46.98811" lon="8.84001">
        <ele>1280</ele>
        <time>2021-08-04T07:57:36.817Z</time>
      </trkpt>
      <trkpt lat="46.9881" lon="8.83999">
        <ele>1280</ele>
        <time>2021-08-04T07:57:37.817Z</time>
      </trkpt>
      <trkpt lat="46.9881" lon="8.83996">
        <ele>1280</ele>
        <time>2021-08-04T07:57:38.817Z</time>
      </trkpt>
      <trkpt lat="46.9881" lon="8.83994">
        <ele>1280</ele>
        <time>2021-08-04T07:57:39.817Z</time>
      </trkpt>
      <trkpt lat="46.98809" lon="8.83992">
        <ele>1280</ele>
        <time>2021-08-04T07:57:40.817Z</time>
      </trkpt>
      <trkpt lat="46.98809" lon="8.8399">
        <ele>1281</ele>
        <time>2021-08-04T07:57:41.817Z</time>
      </trkpt>
      <trkpt lat="46.98809" lon="8.83988">
        <ele>1281</ele>
        <time>2021-08-04T07:57:42.818Z</time>
      </trkpt>
      <trkpt lat="46.98808" lon="8.83986">
        <ele>1281</ele>
        <time>2021-08-04T07:57:43.818Z</time>
      </trkpt>
      <trkpt lat="46.98808" lon="8.83985">
        <ele>1280</ele>
        <time>2021-08-04T07:57:44.818Z</time>
      </trkpt>
      <trkpt lat="46.98808" lon="8.83984">
        <ele>1280</ele>
        <time>2021-08-04T07:57:45.818Z</time>
      </trkpt>
      <trkpt lat="46.98808" lon="8.83983">
        <ele>1279</ele>
        <time>2021-08-04T07:57:46.817Z</time>
      </trkpt>
      <trkpt lat="46.98808" lon="8.83981">
        <ele>1279</ele>
        <time>2021-08-04T07:57:47.818Z</time>
      </trkpt>
      <trkpt lat="46.98808" lon="8.8398">
        <ele>1279</ele>
        <time>2021-08-04T07:57:48.817Z</time>
      </trkpt>
      <trkpt lat="46.98809" lon="8.83978">
        <ele>1278</ele>
        <time>2021-08-04T07:57:49.817Z</time>
      </trkpt>
      <trkpt lat="46.98809" lon="8.83976">
        <ele>1278</ele>
        <time>2021-08-04T07:57:50.817Z</time>
      </trkpt>
      <trkpt lat="46.98809" lon="8.83974">
        <ele>1278</ele>
        <time>2021-08-04T07:57:51.817Z</time>
      </trkpt>
      <trkpt lat="46.9881" lon="8.83972">
        <ele>1277</ele>
        <time>2021-08-04T07:57:52.817Z</time>
      </trkpt>
      <trkpt lat="46.9881" lon="8.8397">
        <ele>1277</ele>
        <time>2021-08-04T07:57:53.817Z</time>
      </trkpt>
      <trkpt lat="46.9881" lon="8.83969">
        <ele>1277</ele>
        <time>2021-08-04T07:57:54.817Z</time>
      </trkpt>
      <trkpt lat="46.98809" lon="8.83967">
        <ele>1277</ele>
        <time>2021-08-04T07:57:55.817Z</time>
      </trkpt>
      <trkpt lat="46.9881" lon="8.83966">
        <ele>1277</ele>
        <time>2021-08-04T07:57:56.818Z</time>
      </trkpt>
      <trkpt lat="46.9881" lon="8.83964">
        <ele>1278</ele>
        <time>2021-08-04T07:57:57.818Z</time>
      </trkpt>
      <trkpt lat="46.9881" lon="8.83962">
        <ele>1278</ele>
        <time>2021-08-04T07:57:58.818Z</time>
      </trkpt>
      <trkpt lat="46.9881" lon="8.8396">
        <ele>1278</ele>
        <time>2021-08-04T07:57:59.818Z</time>
      </trkpt>
      <trkpt lat="46.9881" lon="8.83959">
        <ele>1278</ele>
        <time>2021-08-04T07:58:00.818Z</time>
      </trkpt>
      <trkpt lat="46.9881" lon="8.83957">
        <ele>1278</ele>
        <time>2021-08-04T07:58:01.817Z</time>
      </trkpt>
      <trkpt lat="46.9881" lon="8.83956">
        <ele>1278</ele>
        <time>2021-08-04T07:58:02.817Z</time>
      </trkpt>
      <trkpt lat="46.98811" lon="8.83954">
        <ele>1278</ele>
        <time>2021-08-04T07:58:03.818Z</time>
      </trkpt>
      <trkpt lat="46.98811" lon="8.83952">
        <ele>1279</ele>
        <time>2021-08-04T07:58:04.818Z</time>
      </trkpt>
      <trkpt lat="46.98812" lon="8.8395">
        <ele>1279</ele>
        <time>2021-08-04T07:58:05.818Z</time>
      </trkpt>
      <trkpt lat="46.98813" lon="8.83948">
        <ele>1280</ele>
        <time>2021-08-04T07:58:06.818Z</time>
      </trkpt>
      <trkpt lat="46.98813" lon="8.83946">
        <ele>1280</ele>
        <time>2021-08-04T07:58:07.818Z</time>
      </trkpt>
      <trkpt lat="46.98813" lon="8.83945">
        <ele>1281</ele>
        <time>2021-08-04T07:58:08.818Z</time>
      </trkpt>
      <trkpt lat="46.98813" lon="8.83943">
        <ele>1281</ele>
        <time>2021-08-04T07:58:09.817Z</time>
      </trkpt>
      <trkpt lat="46.98814" lon="8.83942">
        <ele>1282</ele>
        <time>2021-08-04T07:58:10.818Z</time>
      </trkpt>
      <trkpt lat="46.98814" lon="8.8394">
        <ele>1283</ele>
        <time>2021-08-04T07:58:11.818Z</time>
      </trkpt>
      <trkpt lat="46.98814" lon="8.83939">
        <ele>1283</ele>
        <time>2021-08-04T07:58:12.818Z</time>
      </trkpt>
      <trkpt lat="46.98814" lon="8.83937">
        <ele>1284</ele>
        <time>2021-08-04T07:58:13.818Z</time>
      </trkpt>
      <trkpt lat="46.98814" lon="8.83935">
        <ele>1285</ele>
        <time>2021-08-04T07:58:14.818Z</time>
      </trkpt>
      <trkpt lat="46.98814" lon="8.83934">
        <ele>1285</ele>
        <time>2021-08-04T07:58:15.817Z</time>
      </trkpt>
      <trkpt lat="46.98814" lon="8.83932">
        <ele>1285</ele>
        <time>2021-08-04T07:58:16.817Z</time>
      </trkpt>
      <trkpt lat="46.98815" lon="8.8393">
        <ele>1285</ele>
        <time>2021-08-04T07:58:17.818Z</time>
      </trkpt>
      <trkpt lat="46.98815" lon="8.83929">
        <ele>1285</ele>
        <time>2021-08-04T07:58:18.817Z</time>
      </trkpt>
      <trkpt lat="46.98815" lon="8.83927">
        <ele>1285</ele>
        <time>2021-08-04T07:58:19.817Z</time>
      </trkpt>
      <trkpt lat="46.98815" lon="8.83925">
        <ele>1285</ele>
        <time>2021-08-04T07:58:20.817Z</time>
      </trkpt>
      <trkpt lat="46.98815" lon="8.83923">
        <ele>1286</ele>
        <time>2021-08-04T07:58:21.817Z</time>
      </trkpt>
      <trkpt lat="46.98815" lon="8.83921">
        <ele>1286</ele>
        <time>2021-08-04T07:58:22.818Z</time>
      </trkpt>
      <trkpt lat="46.98814" lon="8.8392">
        <ele>1286</ele>
        <time>2021-08-04T07:58:23.817Z</time>
      </trkpt>
      <trkpt lat="46.98814" lon="8.83918">
        <ele>1286</ele>
        <time>2021-08-04T07:58:24.818Z</time>
      </trkpt>
      <trkpt lat="46.98815" lon="8.83916">
        <ele>1286</ele>
        <time>2021-08-04T07:58:25.818Z</time>
      </trkpt>
      <trkpt lat="46.98815" lon="8.83915">
        <ele>1286</ele>
        <time>2021-08-04T07:58:26.818Z</time>
      </trkpt>
      <trkpt lat="46.98815" lon="8.83913">
        <ele>1286</ele>
        <time>2021-08-04T07:58:27.818Z</time>
      </trkpt>
      <trkpt lat="46.98815" lon="8.83911">
        <ele>1286</ele>
        <time>2021-08-04T07:58:28.818Z</time>
      </trkpt>
      <trkpt lat="46.98815" lon="8.83909">
        <ele>1286</ele>
        <time>2021-08-04T07:58:29.818Z</time>
      </trkpt>
      <trkpt lat="46.98815" lon="8.83908">
        <ele>1286</ele>
        <time>2021-08-04T07:58:30.817Z</time>
      </trkpt>
      <trkpt lat="46.98815" lon="8.83905">
        <ele>1285</ele>
        <time>2021-08-04T07:58:31.817Z</time>
      </trkpt>
      <trkpt lat="46.98816" lon="8.83903">
        <ele>1285</ele>
        <time>2021-08-04T07:58:32.818Z</time>
      </trkpt>
      <trkpt lat="46.98817" lon="8.83902">
        <ele>1284</ele>
        <time>2021-08-04T07:58:33.818Z</time>
      </trkpt>
      <trkpt lat="46.98817" lon="8.839">
        <ele>1284</ele>
        <time>2021-08-04T07:58:34.818Z</time>
      </trkpt>
      <trkpt lat="46.98817" lon="8.83899">
        <ele>1283</ele>
        <time>2021-08-04T07:58:35.817Z</time>
      </trkpt>
      <trkpt lat="46.98818" lon="8.83898">
        <ele>1283</ele>
        <time>2021-08-04T07:58:36.817Z</time>
      </trkpt>
      <trkpt lat="46.98818" lon="8.83896">
        <ele>1282</ele>
        <time>2021-08-04T07:58:37.818Z</time>
      </trkpt>
      <trkpt lat="46.98818" lon="8.83894">
        <ele>1282</ele>
        <time>2021-08-04T07:58:38.817Z</time>
      </trkpt>
      <trkpt lat="46.98819" lon="8.83893">
        <ele>1282</ele>
        <time>2021-08-04T07:58:39.818Z</time>
      </trkpt>
      <trkpt lat="46.98819" lon="8.83891">
        <ele>1282</ele>
        <time>2021-08-04T07:58:40.818Z</time>
      </trkpt>
      <trkpt lat="46.9882" lon="8.83889">
        <ele>1282</ele>
        <time>2021-08-04T07:58:41.818Z</time>
      </trkpt>
      <trkpt lat="46.9882" lon="8.83887">
        <ele>1282</ele>
        <time>2021-08-04T07:58:42.818Z</time>
      </trkpt>
      <trkpt lat="46.9882" lon="8.83885">
        <ele>1282</ele>
        <time>2021-08-04T07:58:43.818Z</time>
      </trkpt>
      <trkpt lat="46.98821" lon="8.83883">
        <ele>1282</ele>
        <time>2021-08-04T07:58:44.818Z</time>
      </trkpt>
      <trkpt lat="46.98821" lon="8.83881">
        <ele>1281</ele>
        <time>2021-08-04T07:58:45.818Z</time>
      </trkpt>
      <trkpt lat="46.98821" lon="8.83879">
        <ele>1281</ele>
        <time>2021-08-04T07:58:46.817Z</time>
      </trkpt>
      <trkpt lat="46.98821" lon="8.83878">
        <ele>1280</ele>
        <time>2021-08-04T07:58:47.818Z</time>
      </trkpt>
      <trkpt lat="46.98821" lon="8.83876">
        <ele>1280</ele>
        <time>2021-08-04T07:58:48.817Z</time>
      </trkpt>
      <trkpt lat="46.98821" lon="8.83875">
        <ele>1280</ele>
        <time>2021-08-04T07:58:49.817Z</time>
      </trkpt>
      <trkpt lat="46.98822" lon="8.83873">
        <ele>1279</ele>
        <time>2021-08-04T07:58:50.817Z</time>
      </trkpt>
      <trkpt lat="46.98822" lon="8.83872">
        <ele>1280</ele>
        <time>2021-08-04T07:58:51.818Z</time>
      </trkpt>
      <trkpt lat="46.98822" lon="8.83871">
        <ele>1280</ele>
        <time>2021-08-04T07:58:52.817Z</time>
      </trkpt>
      <trkpt lat="46.98822" lon="8.83869">
        <ele>1280</ele>
        <time>2021-08-04T07:58:53.818Z</time>
      </trkpt>
      <trkpt lat="46.98822" lon="8.83867">
        <ele>1279</ele>
        <time>2021-08-04T07:58:54.818Z</time>
      </trkpt>
      <trkpt lat="46.98822" lon="8.83865">
        <ele>1279</ele>
        <time>2021-08-04T07:58:55.817Z</time>
      </trkpt>
      <trkpt lat="46.98822" lon="8.83863">
        <ele>1279</ele>
        <time>2021-08-04T07:58:56.818Z</time>
      </trkpt>
      <trkpt lat="46.98823" lon="8.83862">
        <ele>1279</ele>
        <time>2021-08-04T07:58:57.818Z</time>
      </trkpt>
      <trkpt lat="46.98823" lon="8.8386">
        <ele>1279</ele>
        <time>2021-08-04T07:58:58.818Z</time>
      </trkpt>
      <trkpt lat="46.98823" lon="8.83858">
        <ele>1279</ele>
        <time>2021-08-04T07:58:59.817Z</time>
      </trkpt>
      <trkpt lat="46.98824" lon="8.83857">
        <ele>1280</ele>
        <time>2021-08-04T07:59:00.817Z</time>
      </trkpt>
      <trkpt lat="46.98824" lon="8.83855">
        <ele>1280</ele>
        <time>2021-08-04T07:59:01.818Z</time>
      </trkpt>
      <trkpt lat="46.98824" lon="8.83853">
        <ele>1280</ele>
        <time>2021-08-04T07:59:02.817Z</time>
      </trkpt>
      <trkpt lat="46.98825" lon="8.83851">
        <ele>1280</ele>
        <time>2021-08-04T07:59:03.818Z</time>
      </trkpt>
      <trkpt lat="46.98826" lon="8.83849">
        <ele>1280</ele>
        <time>2021-08-04T07:59:04.817Z</time>
      </trkpt>
      <trkpt lat="46.98826" lon="8.83847">
        <ele>1281</ele>
        <time>2021-08-04T07:59:05.818Z</time>
      </trkpt>
      <trkpt lat="46.98827" lon="8.83845">
        <ele>1281</ele>
        <time>2021-08-04T07:59:06.817Z</time>
      </trkpt>
      <trkpt lat="46.98828" lon="8.83843">
        <ele>1281</ele>
        <time>2021-08-04T07:59:07.817Z</time>
      </trkpt>
      <trkpt lat="46.98828" lon="8.83841">
        <ele>1281</ele>
        <time>2021-08-04T07:59:08.818Z</time>
      </trkpt>
      <trkpt lat="46.98829" lon="8.8384">
        <ele>1281</ele>
        <time>2021-08-04T07:59:09.817Z</time>
      </trkpt>
      <trkpt lat="46.98829" lon="8.83839">
        <ele>1281</ele>
        <time>2021-08-04T07:59:10.818Z</time>
      </trkpt>
      <trkpt lat="46.9883" lon="8.83838">
        <ele>1281</ele>
        <time>2021-08-04T07:59:11.818Z</time>
      </trkpt>
      <trkpt lat="46.98831" lon="8.83837">
        <ele>1281</ele>
        <time>2021-08-04T07:59:12.818Z</time>
      </trkpt>
      <trkpt lat="46.98831" lon="8.83835">
        <ele>1282</ele>
        <time>2021-08-04T07:59:13.818Z</time>
      </trkpt>
      <trkpt lat="46.98831" lon="8.83833">
        <ele>1282</ele>
        <time>2021-08-04T07:59:14.817Z</time>
      </trkpt>
      <trkpt lat="46.98832" lon="8.83832">
        <ele>1282</ele>
        <time>2021-08-04T07:59:15.818Z</time>
      </trkpt>
      <trkpt lat="46.98833" lon="8.8383">
        <ele>1282</ele>
        <time>2021-08-04T07:59:16.818Z</time>
      </trkpt>
      <trkpt lat="46.98834" lon="8.83829">
        <ele>1282</ele>
        <time>2021-08-04T07:59:17.818Z</time>
      </trkpt>
      <trkpt lat="46.98834" lon="8.83827">
        <ele>1282</ele>
        <time>2021-08-04T07:59:18.818Z</time>
      </trkpt>
      <trkpt lat="46.98834" lon="8.83825">
        <ele>1282</ele>
        <time>2021-08-04T07:59:19.817Z</time>
      </trkpt>
      <trkpt lat="46.98834" lon="8.83824">
        <ele>1282</ele>
        <time>2021-08-04T07:59:20.817Z</time>
      </trkpt>
      <trkpt lat="46.98834" lon="8.83822">
        <ele>1282</ele>
        <time>2021-08-04T07:59:21.817Z</time>
      </trkpt>
      <trkpt lat="46.98834" lon="8.83821">
        <ele>1282</ele>
        <time>2021-08-04T07:59:22.817Z</time>
      </trkpt>
      <trkpt lat="46.98835" lon="8.83819">
        <ele>1282</ele>
        <time>2021-08-04T07:59:23.818Z</time>
      </trkpt>
      <trkpt lat="46.98835" lon="8.83818">
        <ele>1281</ele>
        <time>2021-08-04T07:59:24.818Z</time>
      </trkpt>
      <trkpt lat="46.98835" lon="8.83817">
        <ele>1280</ele>
        <time>2021-08-04T07:59:25.817Z</time>
      </trkpt>
      <trkpt lat="46.98835" lon="8.83815">
        <ele>1280</ele>
        <time>2021-08-04T07:59:26.817Z</time>
      </trkpt>
      <trkpt lat="46.98835" lon="8.83813">
        <ele>1279</ele>
        <time>2021-08-04T07:59:27.818Z</time>
      </trkpt>
      <trkpt lat="46.98835" lon="8.83812">
        <ele>1279</ele>
        <time>2021-08-04T07:59:28.818Z</time>
      </trkpt>
      <trkpt lat="46.98835" lon="8.8381">
        <ele>1278</ele>
        <time>2021-08-04T07:59:29.818Z</time>
      </trkpt>
      <trkpt lat="46.98836" lon="8.83808">
        <ele>1278</ele>
        <time>2021-08-04T07:59:30.817Z</time>
      </trkpt>
      <trkpt lat="46.98836" lon="8.83807">
        <ele>1278</ele>
        <time>2021-08-04T07:59:31.818Z</time>
      </trkpt>
      <trkpt lat="46.98837" lon="8.83806">
        <ele>1278</ele>
        <time>2021-08-04T07:59:32.818Z</time>
      </trkpt>
      <trkpt lat="46.98837" lon="8.83804">
        <ele>1277</ele>
        <time>2021-08-04T07:59:33.817Z</time>
      </trkpt>
      <trkpt lat="46.98837" lon="8.83803">
        <ele>1277</ele>
        <time>2021-08-04T07:59:34.818Z</time>
      </trkpt>
      <trkpt lat="46.98837" lon="8.83801">
        <ele>1277</ele>
        <time>2021-08-04T07:59:35.818Z</time>
      </trkpt>
      <trkpt lat="46.98837" lon="8.83798">
        <ele>1277</ele>
        <time>2021-08-04T07:59:36.818Z</time>
      </trkpt>
      <trkpt lat="46.98837" lon="8.83796">
        <ele>1277</ele>
        <time>2021-08-04T07:59:37.818Z</time>
      </trkpt>
      <trkpt lat="46.98837" lon="8.83794">
        <ele>1277</ele>
        <time>2021-08-04T07:59:38.817Z</time>
      </trkpt>
      <trkpt lat="46.98837" lon="8.83793">
        <ele>1276</ele>
        <time>2021-08-04T07:59:39.817Z</time>
      </trkpt>
      <trkpt lat="46.98837" lon="8.83791">
        <ele>1276</ele>
        <time>2021-08-04T07:59:40.818Z</time>
      </trkpt>
      <trkpt lat="46.98837" lon="8.8379">
        <ele>1276</ele>
        <time>2021-08-04T07:59:41.817Z</time>
      </trkpt>
      <trkpt lat="46.98837" lon="8.83788">
        <ele>1276</ele>
        <time>2021-08-04T07:59:42.818Z</time>
      </trkpt>
      <trkpt lat="46.98837" lon="8.83786">
        <ele>1276</ele>
        <time>2021-08-04T07:59:43.818Z</time>
      </trkpt>
      <trkpt lat="46.98837" lon="8.83785">
        <ele>1276</ele>
        <time>2021-08-04T07:59:44.817Z</time>
      </trkpt>
      <trkpt lat="46.98837" lon="8.83783">
        <ele>1276</ele>
        <time>2021-08-04T07:59:45.818Z</time>
      </trkpt>
      <trkpt lat="46.98837" lon="8.83781">
        <ele>1276</ele>
        <time>2021-08-04T07:59:46.818Z</time>
      </trkpt>
      <trkpt lat="46.98838" lon="8.83779">
        <ele>1276</ele>
        <time>2021-08-04T07:59:47.818Z</time>
      </trkpt>
      <trkpt lat="46.98838" lon="8.83778">
        <ele>1276</ele>
        <time>2021-08-04T07:59:48.817Z</time>
      </trkpt>
      <trkpt lat="46.98838" lon="8.83776">
        <ele>1276</ele>
        <time>2021-08-04T07:59:49.817Z</time>
      </trkpt>
      <trkpt lat="46.98838" lon="8.83775">
        <ele>1276</ele>
        <time>2021-08-04T07:59:50.817Z</time>
      </trkpt>
      <trkpt lat="46.98838" lon="8.83774">
        <ele>1276</ele>
        <time>2021-08-04T07:59:51.818Z</time>
      </trkpt>
      <trkpt lat="46.98838" lon="8.83773">
        <ele>1276</ele>
        <time>2021-08-04T07:59:52.818Z</time>
      </trkpt>
      <trkpt lat="46.98838" lon="8.83772">
        <ele>1276</ele>
        <time>2021-08-04T07:59:53.818Z</time>
      </trkpt>
      <trkpt lat="46.98838" lon="8.83772">
        <ele>1276</ele>
        <time>2021-08-04T07:59:54.817Z</time>
      </trkpt>
      <trkpt lat="46.98837" lon="8.83772">
        <ele>1272</ele>
        <time>2021-08-04T07:59:55.820Z</time>
      </trkpt>
      <trkpt lat="46.98836" lon="8.83772">
        <ele>1271</ele>
        <time>2021-08-04T07:59:56.820Z</time>
      </trkpt>
      <trkpt lat="46.98837" lon="8.83771">
        <ele>1270</ele>
        <time>2021-08-04T07:59:57.819Z</time>
      </trkpt>
      <trkpt lat="46.98837" lon="8.83771">
        <ele>1269</ele>
        <time>2021-08-04T07:59:58.819Z</time>
      </trkpt>
      <trkpt lat="46.98837" lon="8.83771">
        <ele>1269</ele>
        <time>2021-08-04T07:59:59.820Z</time>
      </trkpt>
      <trkpt lat="46.98837" lon="8.83771">
        <ele>1268</ele>
        <time>2021-08-04T08:00:00.819Z</time>
      </trkpt>
      <trkpt lat="46.98836" lon="8.8377">
        <ele>1268</ele>
        <time>2021-08-04T08:00:01.820Z</time>
      </trkpt>
      <trkpt lat="46.98836" lon="8.83769">
        <ele>1268</ele>
        <time>2021-08-04T08:00:02.819Z</time>
      </trkpt>
      <trkpt lat="46.98836" lon="8.83768">
        <ele>1268</ele>
        <time>2021-08-04T08:00:03.819Z</time>
      </trkpt>
      <trkpt lat="46.98836" lon="8.83766">
        <ele>1268</ele>
        <time>2021-08-04T08:00:04.820Z</time>
      </trkpt>
      <trkpt lat="46.98836" lon="8.83765">
        <ele>1268</ele>
        <time>2021-08-04T08:00:05.819Z</time>
      </trkpt>
      <trkpt lat="46.98836" lon="8.83763">
        <ele>1269</ele>
        <time>2021-08-04T08:00:06.819Z</time>
      </trkpt>
      <trkpt lat="46.98837" lon="8.83761">
        <ele>1269</ele>
        <time>2021-08-04T08:00:07.820Z</time>
      </trkpt>
      <trkpt lat="46.98837" lon="8.8376">
        <ele>1269</ele>
        <time>2021-08-04T08:00:08.820Z</time>
      </trkpt>
      <trkpt lat="46.98837" lon="8.83758">
        <ele>1269</ele>
        <time>2021-08-04T08:00:09.820Z</time>
      </trkpt>
      <trkpt lat="46.98837" lon="8.83757">
        <ele>1269</ele>
        <time>2021-08-04T08:00:10.820Z</time>
      </trkpt>
      <trkpt lat="46.98838" lon="8.83755">
        <ele>1269</ele>
        <time>2021-08-04T08:00:11.819Z</time>
      </trkpt>
      <trkpt lat="46.98838" lon="8.83754">
        <ele>1269</ele>
        <time>2021-08-04T08:00:12.819Z</time>
      </trkpt>
      <trkpt lat="46.98839" lon="8.83752">
        <ele>1269</ele>
        <time>2021-08-04T08:00:13.819Z</time>
      </trkpt>
      <trkpt lat="46.98839" lon="8.8375">
        <ele>1269</ele>
        <time>2021-08-04T08:00:14.819Z</time>
      </trkpt>
      <trkpt lat="46.9884" lon="8.83749">
        <ele>1270</ele>
        <time>2021-08-04T08:00:15.819Z</time>
      </trkpt>
      <trkpt lat="46.9884" lon="8.83747">
        <ele>1270</ele>
        <time>2021-08-04T08:00:16.819Z</time>
      </trkpt>
      <trkpt lat="46.9884" lon="8.83745">
        <ele>1271</ele>
        <time>2021-08-04T08:00:17.820Z</time>
      </trkpt>
      <trkpt lat="46.98841" lon="8.83744">
        <ele>1271</ele>
        <time>2021-08-04T08:00:18.819Z</time>
      </trkpt>
      <trkpt lat="46.98841" lon="8.83742">
        <ele>1272</ele>
        <time>2021-08-04T08:00:19.819Z</time>
      </trkpt>
      <trkpt lat="46.98842" lon="8.83741">
        <ele>1272</ele>
        <time>2021-08-04T08:00:20.819Z</time>
      </trkpt>
      <trkpt lat="46.98843" lon="8.8374">
        <ele>1273</ele>
        <time>2021-08-04T08:00:21.819Z</time>
      </trkpt>
      <trkpt lat="46.98843" lon="8.83738">
        <ele>1273</ele>
        <time>2021-08-04T08:00:22.819Z</time>
      </trkpt>
      <trkpt lat="46.98844" lon="8.83737">
        <ele>1273</ele>
        <time>2021-08-04T08:00:23.819Z</time>
      </trkpt>
      <trkpt lat="46.98844" lon="8.83735">
        <ele>1273</ele>
        <time>2021-08-04T08:00:24.819Z</time>
      </trkpt>
      <trkpt lat="46.98845" lon="8.83733">
        <ele>1274</ele>
        <time>2021-08-04T08:00:25.819Z</time>
      </trkpt>
      <trkpt lat="46.98846" lon="8.83731">
        <ele>1274</ele>
        <time>2021-08-04T08:00:26.819Z</time>
      </trkpt>
      <trkpt lat="46.98846" lon="8.8373">
        <ele>1274</ele>
        <time>2021-08-04T08:00:27.820Z</time>
      </trkpt>
      <trkpt lat="46.98846" lon="8.83728">
        <ele>1274</ele>
        <time>2021-08-04T08:00:28.819Z</time>
      </trkpt>
      <trkpt lat="46.98847" lon="8.83726">
        <ele>1274</ele>
        <time>2021-08-04T08:00:29.820Z</time>
      </trkpt>
      <trkpt lat="46.98848" lon="8.83724">
        <ele>1275</ele>
        <time>2021-08-04T08:00:30.819Z</time>
      </trkpt>
      <trkpt lat="46.98849" lon="8.83722">
        <ele>1275</ele>
        <time>2021-08-04T08:00:31.819Z</time>
      </trkpt>
      <trkpt lat="46.98851" lon="8.8372">
        <ele>1275</ele>
        <time>2021-08-04T08:00:32.819Z</time>
      </trkpt>
      <trkpt lat="46.98854" lon="8.83718">
        <ele>1276</ele>
        <time>2021-08-04T08:00:33.820Z</time>
      </trkpt>
      <trkpt lat="46.98854" lon="8.83717">
        <ele>1276</ele>
        <time>2021-08-04T08:00:34.820Z</time>
      </trkpt>
      <trkpt lat="46.98855" lon="8.83715">
        <ele>1277</ele>
        <time>2021-08-04T08:00:35.819Z</time>
      </trkpt>
      <trkpt lat="46.98855" lon="8.83714">
        <ele>1277</ele>
        <time>2021-08-04T08:00:36.820Z</time>
      </trkpt>
      <trkpt lat="46.98856" lon="8.83712">
        <ele>1278</ele>
        <time>2021-08-04T08:00:37.820Z</time>
      </trkpt>
      <trkpt lat="46.98857" lon="8.83711">
        <ele>1279</ele>
        <time>2021-08-04T08:00:38.820Z</time>
      </trkpt>
      <trkpt lat="46.98858" lon="8.83709">
        <ele>1279</ele>
        <time>2021-08-04T08:00:39.820Z</time>
      </trkpt>
      <trkpt lat="46.98859" lon="8.83707">
        <ele>1280</ele>
        <time>2021-08-04T08:00:40.820Z</time>
      </trkpt>
      <trkpt lat="46.98859" lon="8.83706">
        <ele>1280</ele>
        <time>2021-08-04T08:00:41.820Z</time>
      </trkpt>
      <trkpt lat="46.9886" lon="8.83705">
        <ele>1280</ele>
        <time>2021-08-04T08:00:42.820Z</time>
      </trkpt>
      <trkpt lat="46.9886" lon="8.83703">
        <ele>1281</ele>
        <time>2021-08-04T08:00:43.820Z</time>
      </trkpt>
      <trkpt lat="46.98861" lon="8.83702">
        <ele>1282</ele>
        <time>2021-08-04T08:00:44.820Z</time>
      </trkpt>
      <trkpt lat="46.98861" lon="8.83701">
        <ele>1282</ele>
        <time>2021-08-04T08:00:45.820Z</time>
      </trkpt>
      <trkpt lat="46.98862" lon="8.837">
        <ele>1282</ele>
        <time>2021-08-04T08:00:46.820Z</time>
      </trkpt>
      <trkpt lat="46.98862" lon="8.83699">
        <ele>1283</ele>
        <time>2021-08-04T08:00:47.820Z</time>
      </trkpt>
      <trkpt lat="46.98863" lon="8.83698">
        <ele>1283</ele>
        <time>2021-08-04T08:00:48.820Z</time>
      </trkpt>
      <trkpt lat="46.98864" lon="8.83697">
        <ele>1284</ele>
        <time>2021-08-04T08:00:49.819Z</time>
      </trkpt>
      <trkpt lat="46.98865" lon="8.83696">
        <ele>1284</ele>
        <time>2021-08-04T08:00:50.820Z</time>
      </trkpt>
      <trkpt lat="46.98866" lon="8.83694">
        <ele>1284</ele>
        <time>2021-08-04T08:00:51.820Z</time>
      </trkpt>
      <trkpt lat="46.98867" lon="8.83693">
        <ele>1283</ele>
        <time>2021-08-04T08:00:52.820Z</time>
      </trkpt>
      <trkpt lat="46.98868" lon="8.83693">
        <ele>1283</ele>
        <time>2021-08-04T08:00:53.820Z</time>
      </trkpt>
      <trkpt lat="46.98869" lon="8.83693">
        <ele>1282</ele>
        <time>2021-08-04T08:00:54.820Z</time>
      </trkpt>
      <trkpt lat="46.98869" lon="8.83692">
        <ele>1282</ele>
        <time>2021-08-04T08:00:55.820Z</time>
      </trkpt>
      <trkpt lat="46.98869" lon="8.83691">
        <ele>1282</ele>
        <time>2021-08-04T08:00:56.820Z</time>
      </trkpt>
      <trkpt lat="46.9887" lon="8.8369">
        <ele>1282</ele>
        <time>2021-08-04T08:00:57.819Z</time>
      </trkpt>
      <trkpt lat="46.98871" lon="8.83689">
        <ele>1281</ele>
        <time>2021-08-04T08:00:58.820Z</time>
      </trkpt>
      <trkpt lat="46.98872" lon="8.83689">
        <ele>1281</ele>
        <time>2021-08-04T08:00:59.820Z</time>
      </trkpt>
      <trkpt lat="46.98873" lon="8.83688">
        <ele>1280</ele>
        <time>2021-08-04T08:01:00.819Z</time>
      </trkpt>
      <trkpt lat="46.98874" lon="8.83687">
        <ele>1279</ele>
        <time>2021-08-04T08:01:01.820Z</time>
      </trkpt>
      <trkpt lat="46.98875" lon="8.83687">
        <ele>1278</ele>
        <time>2021-08-04T08:01:02.819Z</time>
      </trkpt>
      <trkpt lat="46.98876" lon="8.83686">
        <ele>1277</ele>
        <time>2021-08-04T08:01:03.819Z</time>
      </trkpt>
      <trkpt lat="46.98877" lon="8.83686">
        <ele>1275</ele>
        <time>2021-08-04T08:01:04.819Z</time>
      </trkpt>
      <trkpt lat="46.98879" lon="8.83685">
        <ele>1274</ele>
        <time>2021-08-04T08:01:05.819Z</time>
      </trkpt>
      <trkpt lat="46.9888" lon="8.83685">
        <ele>1273</ele>
        <time>2021-08-04T08:01:06.820Z</time>
      </trkpt>
      <trkpt lat="46.98881" lon="8.83684">
        <ele>1272</ele>
        <time>2021-08-04T08:01:07.820Z</time>
      </trkpt>
      <trkpt lat="46.98882" lon="8.83684">
        <ele>1271</ele>
        <time>2021-08-04T08:01:08.819Z</time>
      </trkpt>
      <trkpt lat="46.98883" lon="8.83683">
        <ele>1270</ele>
        <time>2021-08-04T08:01:09.820Z</time>
      </trkpt>
      <trkpt lat="46.98884" lon="8.83683">
        <ele>1269</ele>
        <time>2021-08-04T08:01:10.820Z</time>
      </trkpt>
      <trkpt lat="46.98886" lon="8.83683">
        <ele>1269</ele>
        <time>2021-08-04T08:01:11.820Z</time>
      </trkpt>
      <trkpt lat="46.98887" lon="8.83683">
        <ele>1268</ele>
        <time>2021-08-04T08:01:12.820Z</time>
      </trkpt>
      <trkpt lat="46.98889" lon="8.83684">
        <ele>1267</ele>
        <time>2021-08-04T08:01:13.820Z</time>
      </trkpt>
      <trkpt lat="46.9889" lon="8.83684">
        <ele>1267</ele>
        <time>2021-08-04T08:01:14.819Z</time>
      </trkpt>
      <trkpt lat="46.98891" lon="8.83685">
        <ele>1266</ele>
        <time>2021-08-04T08:01:15.820Z</time>
      </trkpt>
      <trkpt lat="46.98893" lon="8.83687">
        <ele>1266</ele>
        <time>2021-08-04T08:01:16.820Z</time>
      </trkpt>
      <trkpt lat="46.98895" lon="8.83689">
        <ele>1265</ele>
        <time>2021-08-04T08:01:17.820Z</time>
      </trkpt>
      <trkpt lat="46.98897" lon="8.83689">
        <ele>1264</ele>
        <time>2021-08-04T08:01:18.820Z</time>
      </trkpt>
      <trkpt lat="46.98898" lon="8.83689">
        <ele>1264</ele>
        <time>2021-08-04T08:01:19.820Z</time>
      </trkpt>
      <trkpt lat="46.989" lon="8.8369">
        <ele>1263</ele>
        <time>2021-08-04T08:01:20.820Z</time>
      </trkpt>
      <trkpt lat="46.98901" lon="8.83691">
        <ele>1263</ele>
        <time>2021-08-04T08:01:21.820Z</time>
      </trkpt>
      <trkpt lat="46.98902" lon="8.83692">
        <ele>1262</ele>
        <time>2021-08-04T08:01:22.820Z</time>
      </trkpt>
      <trkpt lat="46.98903" lon="8.83693">
        <ele>1262</ele>
        <time>2021-08-04T08:01:23.819Z</time>
      </trkpt>
      <trkpt lat="46.98904" lon="8.83695">
        <ele>1261</ele>
        <time>2021-08-04T08:01:24.819Z</time>
      </trkpt>
      <trkpt lat="46.98905" lon="8.83695">
        <ele>1261</ele>
        <time>2021-08-04T08:01:25.819Z</time>
      </trkpt>
      <trkpt lat="46.98906" lon="8.83696">
        <ele>1260</ele>
        <time>2021-08-04T08:01:26.820Z</time>
      </trkpt>
      <trkpt lat="46.98907" lon="8.83697">
        <ele>1260</ele>
        <time>2021-08-04T08:01:27.820Z</time>
      </trkpt>
      <trkpt lat="46.98908" lon="8.83699">
        <ele>1260</ele>
        <time>2021-08-04T08:01:28.819Z</time>
      </trkpt>
      <trkpt lat="46.98909" lon="8.837">
        <ele>1260</ele>
        <time>2021-08-04T08:01:29.820Z</time>
      </trkpt>
      <trkpt lat="46.9891" lon="8.83701">
        <ele>1260</ele>
        <time>2021-08-04T08:01:30.820Z</time>
      </trkpt>
      <trkpt lat="46.98912" lon="8.83701">
        <ele>1259</ele>
        <time>2021-08-04T08:01:31.820Z</time>
      </trkpt>
      <trkpt lat="46.98913" lon="8.83702">
        <ele>1259</ele>
        <time>2021-08-04T08:01:32.820Z</time>
      </trkpt>
      <trkpt lat="46.98914" lon="8.83703">
        <ele>1259</ele>
        <time>2021-08-04T08:01:33.820Z</time>
      </trkpt>
      <trkpt lat="46.98915" lon="8.83705">
        <ele>1259</ele>
        <time>2021-08-04T08:01:34.819Z</time>
      </trkpt>
      <trkpt lat="46.98916" lon="8.83706">
        <ele>1259</ele>
        <time>2021-08-04T08:01:35.819Z</time>
      </trkpt>
      <trkpt lat="46.98918" lon="8.83708">
        <ele>1259</ele>
        <time>2021-08-04T08:01:36.820Z</time>
      </trkpt>
      <trkpt lat="46.98919" lon="8.8371">
        <ele>1259</ele>
        <time>2021-08-04T08:01:37.820Z</time>
      </trkpt>
      <trkpt lat="46.9892" lon="8.8371">
        <ele>1259</ele>
        <time>2021-08-04T08:01:38.819Z</time>
      </trkpt>
      <trkpt lat="46.98921" lon="8.83711">
        <ele>1259</ele>
        <time>2021-08-04T08:01:39.820Z</time>
      </trkpt>
      <trkpt lat="46.98922" lon="8.83712">
        <ele>1259</ele>
        <time>2021-08-04T08:01:40.820Z</time>
      </trkpt>
      <trkpt lat="46.98923" lon="8.83713">
        <ele>1260</ele>
        <time>2021-08-04T08:01:41.820Z</time>
      </trkpt>
      <trkpt lat="46.98924" lon="8.83714">
        <ele>1260</ele>
        <time>2021-08-04T08:01:42.820Z</time>
      </trkpt>
      <trkpt lat="46.98924" lon="8.83715">
        <ele>1261</ele>
        <time>2021-08-04T08:01:43.820Z</time>
      </trkpt>
      <trkpt lat="46.98925" lon="8.83716">
        <ele>1261</ele>
        <time>2021-08-04T08:01:44.820Z</time>
      </trkpt>
      <trkpt lat="46.98926" lon="8.83717">
        <ele>1261</ele>
        <time>2021-08-04T08:01:45.819Z</time>
      </trkpt>
      <trkpt lat="46.98927" lon="8.83718">
        <ele>1261</ele>
        <time>2021-08-04T08:01:46.820Z</time>
      </trkpt>
      <trkpt lat="46.98928" lon="8.83719">
        <ele>1261</ele>
        <time>2021-08-04T08:01:47.820Z</time>
      </trkpt>
      <trkpt lat="46.98929" lon="8.8372">
        <ele>1261</ele>
        <time>2021-08-04T08:01:48.820Z</time>
      </trkpt>
      <trkpt lat="46.9893" lon="8.83721">
        <ele>1261</ele>
        <time>2021-08-04T08:01:49.820Z</time>
      </trkpt>
      <trkpt lat="46.98931" lon="8.83722">
        <ele>1261</ele>
        <time>2021-08-04T08:01:50.820Z</time>
      </trkpt>
      <trkpt lat="46.98932" lon="8.83723">
        <ele>1261</ele>
        <time>2021-08-04T08:01:51.820Z</time>
      </trkpt>
      <trkpt lat="46.98933" lon="8.83724">
        <ele>1261</ele>
        <time>2021-08-04T08:01:52.820Z</time>
      </trkpt>
      <trkpt lat="46.98935" lon="8.83725">
        <ele>1261</ele>
        <time>2021-08-04T08:01:53.820Z</time>
      </trkpt>
      <trkpt lat="46.98936" lon="8.83726">
        <ele>1261</ele>
        <time>2021-08-04T08:01:54.819Z</time>
      </trkpt>
      <trkpt lat="46.98937" lon="8.83726">
        <ele>1261</ele>
        <time>2021-08-04T08:01:55.820Z</time>
      </trkpt>
      <trkpt lat="46.98938" lon="8.83727">
        <ele>1261</ele>
        <time>2021-08-04T08:01:56.819Z</time>
      </trkpt>
      <trkpt lat="46.98939" lon="8.83727">
        <ele>1261</ele>
        <time>2021-08-04T08:01:57.819Z</time>
      </trkpt>
      <trkpt lat="46.9894" lon="8.83727">
        <ele>1261</ele>
        <time>2021-08-04T08:01:58.820Z</time>
      </trkpt>
      <trkpt lat="46.98942" lon="8.83726">
        <ele>1261</ele>
        <time>2021-08-04T08:01:59.819Z</time>
      </trkpt>
      <trkpt lat="46.98943" lon="8.83725">
        <ele>1260</ele>
        <time>2021-08-04T08:02:00.820Z</time>
      </trkpt>
      <trkpt lat="46.98944" lon="8.83723">
        <ele>1260</ele>
        <time>2021-08-04T08:02:01.820Z</time>
      </trkpt>
      <trkpt lat="46.98946" lon="8.83721">
        <ele>1259</ele>
        <time>2021-08-04T08:02:02.820Z</time>
      </trkpt>
      <trkpt lat="46.98947" lon="8.83719">
        <ele>1259</ele>
        <time>2021-08-04T08:02:03.819Z</time>
      </trkpt>
      <trkpt lat="46.98948" lon="8.83717">
        <ele>1259</ele>
        <time>2021-08-04T08:02:04.819Z</time>
      </trkpt>
      <trkpt lat="46.98949" lon="8.83714">
        <ele>1259</ele>
        <time>2021-08-04T08:02:05.820Z</time>
      </trkpt>
      <trkpt lat="46.9895" lon="8.83712">
        <ele>1259</ele>
        <time>2021-08-04T08:02:06.820Z</time>
      </trkpt>
      <trkpt lat="46.9895" lon="8.83709">
        <ele>1260</ele>
        <time>2021-08-04T08:02:07.820Z</time>
      </trkpt>
      <trkpt lat="46.98951" lon="8.83707">
        <ele>1261</ele>
        <time>2021-08-04T08:02:08.820Z</time>
      </trkpt>
      <trkpt lat="46.98951" lon="8.83705">
        <ele>1261</ele>
        <time>2021-08-04T08:02:09.820Z</time>
      </trkpt>
      <trkpt lat="46.98951" lon="8.83702">
        <ele>1262</ele>
        <time>2021-08-04T08:02:10.819Z</time>
      </trkpt>
      <trkpt lat="46.98951" lon="8.83699">
        <ele>1263</ele>
        <time>2021-08-04T08:02:11.820Z</time>
      </trkpt>
      <trkpt lat="46.98952" lon="8.83697">
        <ele>1264</ele>
        <time>2021-08-04T08:02:12.820Z</time>
      </trkpt>
      <trkpt lat="46.98952" lon="8.83694">
        <ele>1265</ele>
        <time>2021-08-04T08:02:13.820Z</time>
      </trkpt>
      <trkpt lat="46.98952" lon="8.83692">
        <ele>1266</ele>
        <time>2021-08-04T08:02:14.820Z</time>
      </trkpt>
      <trkpt lat="46.98952" lon="8.8369">
        <ele>1267</ele>
        <time>2021-08-04T08:02:15.820Z</time>
      </trkpt>
      <trkpt lat="46.98952" lon="8.83688">
        <ele>1268</ele>
        <time>2021-08-04T08:02:16.820Z</time>
      </trkpt>
      <trkpt lat="46.98953" lon="8.83685">
        <ele>1269</ele>
        <time>2021-08-04T08:02:17.820Z</time>
      </trkpt>
      <trkpt lat="46.98953" lon="8.83682">
        <ele>1270</ele>
        <time>2021-08-04T08:02:18.820Z</time>
      </trkpt>
      <trkpt lat="46.98954" lon="8.83679">
        <ele>1271</ele>
        <time>2021-08-04T08:02:19.820Z</time>
      </trkpt>
      <trkpt lat="46.98955" lon="8.83677">
        <ele>1271</ele>
        <time>2021-08-04T08:02:20.819Z</time>
      </trkpt>
      <trkpt lat="46.98955" lon="8.83675">
        <ele>1272</ele>
        <time>2021-08-04T08:02:21.820Z</time>
      </trkpt>
      <trkpt lat="46.98955" lon="8.83673">
        <ele>1272</ele>
        <time>2021-08-04T08:02:22.820Z</time>
      </trkpt>
      <trkpt lat="46.98955" lon="8.83672">
        <ele>1273</ele>
        <time>2021-08-04T08:02:23.819Z</time>
      </trkpt>
      <trkpt lat="46.98955" lon="8.8367">
        <ele>1273</ele>
        <time>2021-08-04T08:02:24.819Z</time>
      </trkpt>
      <trkpt lat="46.98956" lon="8.83668">
        <ele>1273</ele>
        <time>2021-08-04T08:02:25.819Z</time>
      </trkpt>
      <trkpt lat="46.98956" lon="8.83666">
        <ele>1273</ele>
        <time>2021-08-04T08:02:26.819Z</time>
      </trkpt>
      <trkpt lat="46.98956" lon="8.83665">
        <ele>1274</ele>
        <time>2021-08-04T08:02:27.820Z</time>
      </trkpt>
      <trkpt lat="46.98956" lon="8.83663">
        <ele>1274</ele>
        <time>2021-08-04T08:02:28.820Z</time>
      </trkpt>
      <trkpt lat="46.98955" lon="8.83661">
        <ele>1274</ele>
        <time>2021-08-04T08:02:29.820Z</time>
      </trkpt>
      <trkpt lat="46.98955" lon="8.8366">
        <ele>1273</ele>
        <time>2021-08-04T08:02:30.820Z</time>
      </trkpt>
      <trkpt lat="46.98954" lon="8.83658">
        <ele>1273</ele>
        <time>2021-08-04T08:02:31.820Z</time>
      </trkpt>
      <trkpt lat="46.98954" lon="8.83656">
        <ele>1274</ele>
        <time>2021-08-04T08:02:32.820Z</time>
      </trkpt>
      <trkpt lat="46.98953" lon="8.83654">
        <ele>1274</ele>
        <time>2021-08-04T08:02:33.820Z</time>
      </trkpt>
      <trkpt lat="46.98953" lon="8.83652">
        <ele>1275</ele>
        <time>2021-08-04T08:02:34.820Z</time>
      </trkpt>
      <trkpt lat="46.98953" lon="8.8365">
        <ele>1276</ele>
        <time>2021-08-04T08:02:35.819Z</time>
      </trkpt>
      <trkpt lat="46.98952" lon="8.83648">
        <ele>1276</ele>
        <time>2021-08-04T08:02:36.820Z</time>
      </trkpt>
      <trkpt lat="46.98951" lon="8.83645">
        <ele>1277</ele>
        <time>2021-08-04T08:02:37.820Z</time>
      </trkpt>
      <trkpt lat="46.9895" lon="8.83643">
        <ele>1277</ele>
        <time>2021-08-04T08:02:38.820Z</time>
      </trkpt>
      <trkpt lat="46.9895" lon="8.83641">
        <ele>1277</ele>
        <time>2021-08-04T08:02:39.820Z</time>
      </trkpt>
      <trkpt lat="46.9895" lon="8.83639">
        <ele>1277</ele>
        <time>2021-08-04T08:02:40.820Z</time>
      </trkpt>
      <trkpt lat="46.98949" lon="8.83638">
        <ele>1277</ele>
        <time>2021-08-04T08:02:41.819Z</time>
      </trkpt>
      <trkpt lat="46.98948" lon="8.83636">
        <ele>1277</ele>
        <time>2021-08-04T08:02:42.820Z</time>
      </trkpt>
      <trkpt lat="46.98948" lon="8.83635">
        <ele>1277</ele>
        <time>2021-08-04T08:02:43.819Z</time>
      </trkpt>
      <trkpt lat="46.98947" lon="8.83634">
        <ele>1277</ele>
        <time>2021-08-04T08:02:44.820Z</time>
      </trkpt>
      <trkpt lat="46.98946" lon="8.83632">
        <ele>1277</ele>
        <time>2021-08-04T08:02:45.820Z</time>
      </trkpt>
      <trkpt lat="46.98945" lon="8.83631">
        <ele>1277</ele>
        <time>2021-08-04T08:02:46.820Z</time>
      </trkpt>
      <trkpt lat="46.98945" lon="8.8363">
        <ele>1277</ele>
        <time>2021-08-04T08:02:47.820Z</time>
      </trkpt>
      <trkpt lat="46.98943" lon="8.83627">
        <ele>1276</ele>
        <time>2021-08-04T08:02:48.819Z</time>
      </trkpt>
      <trkpt lat="46.98941" lon="8.83624">
        <ele>1276</ele>
        <time>2021-08-04T08:02:49.819Z</time>
      </trkpt>
      <trkpt lat="46.98939" lon="8.83622">
        <ele>1275</ele>
        <time>2021-08-04T08:02:50.819Z</time>
      </trkpt>
      <trkpt lat="46.98937" lon="8.8362">
        <ele>1274</ele>
        <time>2021-08-04T08:02:51.820Z</time>
      </trkpt>
      <trkpt lat="46.98936" lon="8.83618">
        <ele>1274</ele>
        <time>2021-08-04T08:02:52.820Z</time>
      </trkpt>
      <trkpt lat="46.98934" lon="8.83617">
        <ele>1273</ele>
        <time>2021-08-04T08:02:53.820Z</time>
      </trkpt>
      <trkpt lat="46.98932" lon="8.83615">
        <ele>1271</ele>
        <time>2021-08-04T08:02:54.820Z</time>
      </trkpt>
      <trkpt lat="46.98931" lon="8.83614">
        <ele>1270</ele>
        <time>2021-08-04T08:02:55.819Z</time>
      </trkpt>
      <trkpt lat="46.98929" lon="8.83613">
        <ele>1269</ele>
        <time>2021-08-04T08:02:56.820Z</time>
      </trkpt>
      <trkpt lat="46.98928" lon="8.83612">
        <ele>1268</ele>
        <time>2021-08-04T08:02:57.819Z</time>
      </trkpt>
      <trkpt lat="46.98928" lon="8.83611">
        <ele>1267</ele>
        <time>2021-08-04T08:02:58.819Z</time>
      </trkpt>
      <trkpt lat="46.98927" lon="8.8361">
        <ele>1266</ele>
        <time>2021-08-04T08:02:59.820Z</time>
      </trkpt>
      <trkpt lat="46.98926" lon="8.83608">
        <ele>1265</ele>
        <time>2021-08-04T08:03:00.819Z</time>
      </trkpt>
      <trkpt lat="46.98925" lon="8.83606">
        <ele>1264</ele>
        <time>2021-08-04T08:03:01.820Z</time>
      </trkpt>
      <trkpt lat="46.98925" lon="8.83604">
        <ele>1264</ele>
        <time>2021-08-04T08:03:02.820Z</time>
      </trkpt>
      <trkpt lat="46.98924" lon="8.83602">
        <ele>1264</ele>
        <time>2021-08-04T08:03:03.819Z</time>
      </trkpt>
      <trkpt lat="46.98923" lon="8.836">
        <ele>1264</ele>
        <time>2021-08-04T08:03:04.820Z</time>
      </trkpt>
      <trkpt lat="46.98922" lon="8.83598">
        <ele>1264</ele>
        <time>2021-08-04T08:03:05.820Z</time>
      </trkpt>
      <trkpt lat="46.98921" lon="8.83596">
        <ele>1264</ele>
        <time>2021-08-04T08:03:06.820Z</time>
      </trkpt>
      <trkpt lat="46.9892" lon="8.83595">
        <ele>1264</ele>
        <time>2021-08-04T08:03:07.819Z</time>
      </trkpt>
      <trkpt lat="46.98919" lon="8.83593">
        <ele>1264</ele>
        <time>2021-08-04T08:03:08.820Z</time>
      </trkpt>
      <trkpt lat="46.98919" lon="8.83592">
        <ele>1265</ele>
        <time>2021-08-04T08:03:09.820Z</time>
      </trkpt>
      <trkpt lat="46.98918" lon="8.8359">
        <ele>1265</ele>
        <time>2021-08-04T08:03:10.820Z</time>
      </trkpt>
      <trkpt lat="46.98917" lon="8.83588">
        <ele>1265</ele>
        <time>2021-08-04T08:03:11.820Z</time>
      </trkpt>
      <trkpt lat="46.98917" lon="8.83587">
        <ele>1265</ele>
        <time>2021-08-04T08:03:12.819Z</time>
      </trkpt>
      <trkpt lat="46.98916" lon="8.83586">
        <ele>1266</ele>
        <time>2021-08-04T08:03:13.820Z</time>
      </trkpt>
      <trkpt lat="46.98915" lon="8.83585">
        <ele>1266</ele>
        <time>2021-08-04T08:03:14.820Z</time>
      </trkpt>
      <trkpt lat="46.98914" lon="8.83583">
        <ele>1266</ele>
        <time>2021-08-04T08:03:15.820Z</time>
      </trkpt>
      <trkpt lat="46.98914" lon="8.83582">
        <ele>1266</ele>
        <time>2021-08-04T08:03:16.820Z</time>
      </trkpt>
      <trkpt lat="46.98914" lon="8.83579">
        <ele>1265</ele>
        <time>2021-08-04T08:03:17.820Z</time>
      </trkpt>
      <trkpt lat="46.98913" lon="8.83577">
        <ele>1265</ele>
        <time>2021-08-04T08:03:18.820Z</time>
      </trkpt>
      <trkpt lat="46.98913" lon="8.83575">
        <ele>1265</ele>
        <time>2021-08-04T08:03:19.820Z</time>
      </trkpt>
      <trkpt lat="46.98913" lon="8.83573">
        <ele>1265</ele>
        <time>2021-08-04T08:03:20.820Z</time>
      </trkpt>
      <trkpt lat="46.98913" lon="8.83572">
        <ele>1265</ele>
        <time>2021-08-04T08:03:21.819Z</time>
      </trkpt>
      <trkpt lat="46.98912" lon="8.8357">
        <ele>1266</ele>
        <time>2021-08-04T08:03:22.819Z</time>
      </trkpt>
      <trkpt lat="46.98912" lon="8.83567">
        <ele>1266</ele>
        <time>2021-08-04T08:03:23.820Z</time>
      </trkpt>
      <trkpt lat="46.98913" lon="8.83565">
        <ele>1266</ele>
        <time>2021-08-04T08:03:24.820Z</time>
      </trkpt>
      <trkpt lat="46.98913" lon="8.83564">
        <ele>1267</ele>
        <time>2021-08-04T08:03:25.819Z</time>
      </trkpt>
      <trkpt lat="46.98913" lon="8.83562">
        <ele>1267</ele>
        <time>2021-08-04T08:03:26.820Z</time>
      </trkpt>
      <trkpt lat="46.98914" lon="8.8356">
        <ele>1268</ele>
        <time>2021-08-04T08:03:27.820Z</time>
      </trkpt>
      <trkpt lat="46.98914" lon="8.83558">
        <ele>1269</ele>
        <time>2021-08-04T08:03:28.820Z</time>
      </trkpt>
      <trkpt lat="46.98915" lon="8.83557">
        <ele>1269</ele>
        <time>2021-08-04T08:03:29.820Z</time>
      </trkpt>
      <trkpt lat="46.98915" lon="8.83555">
        <ele>1270</ele>
        <time>2021-08-04T08:03:30.819Z</time>
      </trkpt>
      <trkpt lat="46.98916" lon="8.83553">
        <ele>1270</ele>
        <time>2021-08-04T08:03:31.819Z</time>
      </trkpt>
      <trkpt lat="46.98917" lon="8.83551">
        <ele>1271</ele>
        <time>2021-08-04T08:03:32.820Z</time>
      </trkpt>
      <trkpt lat="46.98916" lon="8.8355">
        <ele>1271</ele>
        <time>2021-08-04T08:03:33.820Z</time>
      </trkpt>
      <trkpt lat="46.98916" lon="8.83548">
        <ele>1272</ele>
        <time>2021-08-04T08:03:34.820Z</time>
      </trkpt>
      <trkpt lat="46.98916" lon="8.83547">
        <ele>1272</ele>
        <time>2021-08-04T08:03:35.820Z</time>
      </trkpt>
      <trkpt lat="46.98916" lon="8.83546">
        <ele>1272</ele>
        <time>2021-08-04T08:03:36.820Z</time>
      </trkpt>
      <trkpt lat="46.98915" lon="8.83544">
        <ele>1273</ele>
        <time>2021-08-04T08:03:37.819Z</time>
      </trkpt>
      <trkpt lat="46.98915" lon="8.83543">
        <ele>1273</ele>
        <time>2021-08-04T08:03:38.820Z</time>
      </trkpt>
      <trkpt lat="46.98916" lon="8.83541">
        <ele>1273</ele>
        <time>2021-08-04T08:03:39.820Z</time>
      </trkpt>
      <trkpt lat="46.98916" lon="8.83539">
        <ele>1273</ele>
        <time>2021-08-04T08:03:40.819Z</time>
      </trkpt>
      <trkpt lat="46.98916" lon="8.83537">
        <ele>1273</ele>
        <time>2021-08-04T08:03:41.820Z</time>
      </trkpt>
      <trkpt lat="46.98915" lon="8.83535">
        <ele>1273</ele>
        <time>2021-08-04T08:03:42.820Z</time>
      </trkpt>
      <trkpt lat="46.98916" lon="8.83532">
        <ele>1273</ele>
        <time>2021-08-04T08:03:43.819Z</time>
      </trkpt>
      <trkpt lat="46.98917" lon="8.83531">
        <ele>1273</ele>
        <time>2021-08-04T08:03:44.820Z</time>
      </trkpt>
      <trkpt lat="46.98918" lon="8.83529">
        <ele>1273</ele>
        <time>2021-08-04T08:03:45.819Z</time>
      </trkpt>
      <trkpt lat="46.98917" lon="8.83526">
        <ele>1273</ele>
        <time>2021-08-04T08:03:46.819Z</time>
      </trkpt>
      <trkpt lat="46.98917" lon="8.83525">
        <ele>1272</ele>
        <time>2021-08-04T08:03:47.820Z</time>
      </trkpt>
      <trkpt lat="46.98916" lon="8.83523">
        <ele>1272</ele>
        <time>2021-08-04T08:03:48.820Z</time>
      </trkpt>
      <trkpt lat="46.98916" lon="8.83521">
        <ele>1272</ele>
        <time>2021-08-04T08:03:49.820Z</time>
      </trkpt>
      <trkpt lat="46.98916" lon="8.8352">
        <ele>1271</ele>
        <time>2021-08-04T08:03:50.819Z</time>
      </trkpt>
      <trkpt lat="46.98917" lon="8.83518">
        <ele>1271</ele>
        <time>2021-08-04T08:03:51.820Z</time>
      </trkpt>
      <trkpt lat="46.98915" lon="8.83517">
        <ele>1270</ele>
        <time>2021-08-04T08:03:52.820Z</time>
      </trkpt>
      <trkpt lat="46.98915" lon="8.83515">
        <ele>1270</ele>
        <time>2021-08-04T08:03:53.820Z</time>
      </trkpt>
      <trkpt lat="46.98913" lon="8.83514">
        <ele>1270</ele>
        <time>2021-08-04T08:03:54.819Z</time>
      </trkpt>
      <trkpt lat="46.98913" lon="8.83513">
        <ele>1269</ele>
        <time>2021-08-04T08:03:55.819Z</time>
      </trkpt>
      <trkpt lat="46.98913" lon="8.83511">
        <ele>1269</ele>
        <time>2021-08-04T08:03:56.819Z</time>
      </trkpt>
      <trkpt lat="46.98912" lon="8.8351">
        <ele>1269</ele>
        <time>2021-08-04T08:03:57.819Z</time>
      </trkpt>
      <trkpt lat="46.98912" lon="8.83509">
        <ele>1269</ele>
        <time>2021-08-04T08:03:58.819Z</time>
      </trkpt>
      <trkpt lat="46.98911" lon="8.83507">
        <ele>1269</ele>
        <time>2021-08-04T08:03:59.819Z</time>
      </trkpt>
      <trkpt lat="46.98911" lon="8.83505">
        <ele>1269</ele>
        <time>2021-08-04T08:04:00.819Z</time>
      </trkpt>
      <trkpt lat="46.98911" lon="8.83504">
        <ele>1269</ele>
        <time>2021-08-04T08:04:01.820Z</time>
      </trkpt>
      <trkpt lat="46.98912" lon="8.83502">
        <ele>1269</ele>
        <time>2021-08-04T08:04:02.820Z</time>
      </trkpt>
      <trkpt lat="46.98912" lon="8.835">
        <ele>1269</ele>
        <time>2021-08-04T08:04:03.820Z</time>
      </trkpt>
      <trkpt lat="46.98912" lon="8.83498">
        <ele>1269</ele>
        <time>2021-08-04T08:04:04.820Z</time>
      </trkpt>
      <trkpt lat="46.98912" lon="8.83496">
        <ele>1269</ele>
        <time>2021-08-04T08:04:05.820Z</time>
      </trkpt>
      <trkpt lat="46.98911" lon="8.83494">
        <ele>1270</ele>
        <time>2021-08-04T08:04:06.820Z</time>
      </trkpt>
      <trkpt lat="46.98911" lon="8.83492">
        <ele>1270</ele>
        <time>2021-08-04T08:04:07.820Z</time>
      </trkpt>
      <trkpt lat="46.98912" lon="8.8349">
        <ele>1271</ele>
        <time>2021-08-04T08:04:08.820Z</time>
      </trkpt>
      <trkpt lat="46.98912" lon="8.83488">
        <ele>1271</ele>
        <time>2021-08-04T08:04:09.820Z</time>
      </trkpt>
      <trkpt lat="46.98912" lon="8.83486">
        <ele>1272</ele>
        <time>2021-08-04T08:04:10.820Z</time>
      </trkpt>
      <trkpt lat="46.98913" lon="8.83485">
        <ele>1272</ele>
        <time>2021-08-04T08:04:11.820Z</time>
      </trkpt>
      <trkpt lat="46.98913" lon="8.83483">
        <ele>1273</ele>
        <time>2021-08-04T08:04:12.820Z</time>
      </trkpt>
      <trkpt lat="46.98913" lon="8.83481">
        <ele>1274</ele>
        <time>2021-08-04T08:04:13.820Z</time>
      </trkpt>
      <trkpt lat="46.98913" lon="8.83479">
        <ele>1275</ele>
        <time>2021-08-04T08:04:14.819Z</time>
      </trkpt>
      <trkpt lat="46.98913" lon="8.83476">
        <ele>1275</ele>
        <time>2021-08-04T08:04:15.819Z</time>
      </trkpt>
      <trkpt lat="46.98913" lon="8.83474">
        <ele>1276</ele>
        <time>2021-08-04T08:04:16.820Z</time>
      </trkpt>
      <trkpt lat="46.98914" lon="8.83472">
        <ele>1277</ele>
        <time>2021-08-04T08:04:17.820Z</time>
      </trkpt>
      <trkpt lat="46.98914" lon="8.83469">
        <ele>1277</ele>
        <time>2021-08-04T08:04:18.820Z</time>
      </trkpt>
      <trkpt lat="46.98914" lon="8.83467">
        <ele>1278</ele>
        <time>2021-08-04T08:04:19.819Z</time>
      </trkpt>
      <trkpt lat="46.98915" lon="8.83465">
        <ele>1279</ele>
        <time>2021-08-04T08:04:20.820Z</time>
      </trkpt>
      <trkpt lat="46.98915" lon="8.83462">
        <ele>1279</ele>
        <time>2021-08-04T08:04:21.820Z</time>
      </trkpt>
      <trkpt lat="46.98915" lon="8.83461">
        <ele>1280</ele>
        <time>2021-08-04T08:04:22.819Z</time>
      </trkpt>
      <trkpt lat="46.98916" lon="8.83459">
        <ele>1280</ele>
        <time>2021-08-04T08:04:23.820Z</time>
      </trkpt>
      <trkpt lat="46.98917" lon="8.83458">
        <ele>1281</ele>
        <time>2021-08-04T08:04:24.820Z</time>
      </trkpt>
      <trkpt lat="46.98918" lon="8.83456">
        <ele>1281</ele>
        <time>2021-08-04T08:04:25.820Z</time>
      </trkpt>
      <trkpt lat="46.98918" lon="8.83454">
        <ele>1282</ele>
        <time>2021-08-04T08:04:26.820Z</time>
      </trkpt>
      <trkpt lat="46.98919" lon="8.83453">
        <ele>1282</ele>
        <time>2021-08-04T08:04:27.819Z</time>
      </trkpt>
      <trkpt lat="46.98919" lon="8.83451">
        <ele>1283</ele>
        <time>2021-08-04T08:04:28.820Z</time>
      </trkpt>
      <trkpt lat="46.98919" lon="8.8345">
        <ele>1283</ele>
        <time>2021-08-04T08:04:29.819Z</time>
      </trkpt>
      <trkpt lat="46.98919" lon="8.83449">
        <ele>1283</ele>
        <time>2021-08-04T08:04:30.819Z</time>
      </trkpt>
      <trkpt lat="46.9892" lon="8.83448">
        <ele>1284</ele>
        <time>2021-08-04T08:04:31.820Z</time>
      </trkpt>
      <trkpt lat="46.9892" lon="8.83447">
        <ele>1284</ele>
        <time>2021-08-04T08:04:32.820Z</time>
      </trkpt>
      <trkpt lat="46.9892" lon="8.83446">
        <ele>1284</ele>
        <time>2021-08-04T08:04:33.820Z</time>
      </trkpt>
      <trkpt lat="46.98921" lon="8.83445">
        <ele>1284</ele>
        <time>2021-08-04T08:04:34.820Z</time>
      </trkpt>
      <trkpt lat="46.98921" lon="8.83444">
        <ele>1284</ele>
        <time>2021-08-04T08:04:35.819Z</time>
      </trkpt>
      <trkpt lat="46.98922" lon="8.83442">
        <ele>1284</ele>
        <time>2021-08-04T08:04:36.819Z</time>
      </trkpt>
      <trkpt lat="46.98923" lon="8.83441">
        <ele>1284</ele>
        <time>2021-08-04T08:04:37.820Z</time>
      </trkpt>
      <trkpt lat="46.98924" lon="8.83439">
        <ele>1284</ele>
        <time>2021-08-04T08:04:38.819Z</time>
      </trkpt>
      <trkpt lat="46.98925" lon="8.83438">
        <ele>1284</ele>
        <time>2021-08-04T08:04:39.820Z</time>
      </trkpt>
      <trkpt lat="46.98926" lon="8.83436">
        <ele>1283</ele>
        <time>2021-08-04T08:04:40.819Z</time>
      </trkpt>
      <trkpt lat="46.98927" lon="8.83434">
        <ele>1283</ele>
        <time>2021-08-04T08:04:41.820Z</time>
      </trkpt>
      <trkpt lat="46.98929" lon="8.83433">
        <ele>1283</ele>
        <time>2021-08-04T08:04:42.820Z</time>
      </trkpt>
      <trkpt lat="46.9893" lon="8.83431">
        <ele>1282</ele>
        <time>2021-08-04T08:04:43.820Z</time>
      </trkpt>
      <trkpt lat="46.98931" lon="8.83429">
        <ele>1282</ele>
        <time>2021-08-04T08:04:44.819Z</time>
      </trkpt>
      <trkpt lat="46.98932" lon="8.83427">
        <ele>1282</ele>
        <time>2021-08-04T08:04:45.820Z</time>
      </trkpt>
      <trkpt lat="46.98932" lon="8.83426">
        <ele>1282</ele>
        <time>2021-08-04T08:04:46.820Z</time>
      </trkpt>
      <trkpt lat="46.98933" lon="8.83425">
        <ele>1282</ele>
        <time>2021-08-04T08:04:47.820Z</time>
      </trkpt>
      <trkpt lat="46.98933" lon="8.83423">
        <ele>1282</ele>
        <time>2021-08-04T08:04:48.819Z</time>
      </trkpt>
      <trkpt lat="46.98934" lon="8.83422">
        <ele>1283</ele>
        <time>2021-08-04T08:04:49.820Z</time>
      </trkpt>
      <trkpt lat="46.98935" lon="8.83421">
        <ele>1283</ele>
        <time>2021-08-04T08:04:50.820Z</time>
      </trkpt>
      <trkpt lat="46.98936" lon="8.8342">
        <ele>1284</ele>
        <time>2021-08-04T08:04:51.820Z</time>
      </trkpt>
      <trkpt lat="46.98936" lon="8.83419">
        <ele>1284</ele>
        <time>2021-08-04T08:04:52.820Z</time>
      </trkpt>
      <trkpt lat="46.98936" lon="8.83418">
        <ele>1284</ele>
        <time>2021-08-04T08:04:53.820Z</time>
      </trkpt>
      <trkpt lat="46.98937" lon="8.83418">
        <ele>1284</ele>
        <time>2021-08-04T08:04:54.820Z</time>
      </trkpt>
      <trkpt lat="46.98938" lon="8.83417">
        <ele>1284</ele>
        <time>2021-08-04T08:04:55.819Z</time>
      </trkpt>
      <trkpt lat="46.98938" lon="8.83417">
        <ele>1283</ele>
        <time>2021-08-04T08:04:56.819Z</time>
      </trkpt>
      <trkpt lat="46.98938" lon="8.83416">
        <ele>1283</ele>
        <time>2021-08-04T08:04:57.820Z</time>
      </trkpt>
      <trkpt lat="46.98938" lon="8.83415">
        <ele>1282</ele>
        <time>2021-08-04T08:04:58.820Z</time>
      </trkpt>
      <trkpt lat="46.98938" lon="8.83414">
        <ele>1281</ele>
        <time>2021-08-04T08:04:59.820Z</time>
      </trkpt>
      <trkpt lat="46.98938" lon="8.83413">
        <ele>1280</ele>
        <time>2021-08-04T08:05:00.819Z</time>
      </trkpt>
      <trkpt lat="46.98939" lon="8.83412">
        <ele>1279</ele>
        <time>2021-08-04T08:05:01.819Z</time>
      </trkpt>
      <trkpt lat="46.98939" lon="8.8341">
        <ele>1278</ele>
        <time>2021-08-04T08:05:02.820Z</time>
      </trkpt>
      <trkpt lat="46.98939" lon="8.83409">
        <ele>1278</ele>
        <time>2021-08-04T08:05:03.820Z</time>
      </trkpt>
      <trkpt lat="46.98939" lon="8.83408">
        <ele>1277</ele>
        <time>2021-08-04T08:05:04.819Z</time>
      </trkpt>
      <trkpt lat="46.9894" lon="8.83406">
        <ele>1276</ele>
        <time>2021-08-04T08:05:05.819Z</time>
      </trkpt>
      <trkpt lat="46.98941" lon="8.83405">
        <ele>1275</ele>
        <time>2021-08-04T08:05:06.819Z</time>
      </trkpt>
      <trkpt lat="46.98941" lon="8.83403">
        <ele>1274</ele>
        <time>2021-08-04T08:05:07.819Z</time>
      </trkpt>
      <trkpt lat="46.98941" lon="8.83401">
        <ele>1274</ele>
        <time>2021-08-04T08:05:08.819Z</time>
      </trkpt>
      <trkpt lat="46.98941" lon="8.834">
        <ele>1273</ele>
        <time>2021-08-04T08:05:09.819Z</time>
      </trkpt>
      <trkpt lat="46.98942" lon="8.83398">
        <ele>1272</ele>
        <time>2021-08-04T08:05:10.819Z</time>
      </trkpt>
      <trkpt lat="46.98942" lon="8.83397">
        <ele>1271</ele>
        <time>2021-08-04T08:05:11.819Z</time>
      </trkpt>
      <trkpt lat="46.98942" lon="8.83395">
        <ele>1271</ele>
        <time>2021-08-04T08:05:12.819Z</time>
      </trkpt>
      <trkpt lat="46.98942" lon="8.83394">
        <ele>1270</ele>
        <time>2021-08-04T08:05:13.819Z</time>
      </trkpt>
      <trkpt lat="46.98943" lon="8.83393">
        <ele>1270</ele>
        <time>2021-08-04T08:05:14.819Z</time>
      </trkpt>
      <trkpt lat="46.98943" lon="8.83392">
        <ele>1270</ele>
        <time>2021-08-04T08:05:15.819Z</time>
      </trkpt>
      <trkpt lat="46.98944" lon="8.83391">
        <ele>1269</ele>
        <time>2021-08-04T08:05:16.820Z</time>
      </trkpt>
      <trkpt lat="46.98944" lon="8.8339">
        <ele>1269</ele>
        <time>2021-08-04T08:05:17.820Z</time>
      </trkpt>
      <trkpt lat="46.98945" lon="8.83388">
        <ele>1269</ele>
        <time>2021-08-04T08:05:18.820Z</time>
      </trkpt>
      <trkpt lat="46.98946" lon="8.83387">
        <ele>1268</ele>
        <time>2021-08-04T08:05:19.820Z</time>
      </trkpt>
      <trkpt lat="46.98946" lon="8.83385">
        <ele>1268</ele>
        <time>2021-08-04T08:05:20.819Z</time>
      </trkpt>
      <trkpt lat="46.98947" lon="8.83383">
        <ele>1268</ele>
        <time>2021-08-04T08:05:21.820Z</time>
      </trkpt>
      <trkpt lat="46.98947" lon="8.83382">
        <ele>1267</ele>
        <time>2021-08-04T08:05:22.819Z</time>
      </trkpt>
      <trkpt lat="46.98948" lon="8.83381">
        <ele>1266</ele>
        <time>2021-08-04T08:05:23.819Z</time>
      </trkpt>
      <trkpt lat="46.98948" lon="8.83379">
        <ele>1266</ele>
        <time>2021-08-04T08:05:24.820Z</time>
      </trkpt>
      <trkpt lat="46.98948" lon="8.83377">
        <ele>1265</ele>
        <time>2021-08-04T08:05:25.820Z</time>
      </trkpt>
      <trkpt lat="46.98949" lon="8.83375">
        <ele>1264</ele>
        <time>2021-08-04T08:05:26.819Z</time>
      </trkpt>
      <trkpt lat="46.98948" lon="8.83374">
        <ele>1264</ele>
        <time>2021-08-04T08:05:27.819Z</time>
      </trkpt>
      <trkpt lat="46.98948" lon="8.83372">
        <ele>1263</ele>
        <time>2021-08-04T08:05:28.820Z</time>
      </trkpt>
      <trkpt lat="46.98949" lon="8.83371">
        <ele>1263</ele>
        <time>2021-08-04T08:05:29.820Z</time>
      </trkpt>
      <trkpt lat="46.98949" lon="8.8337">
        <ele>1262</ele>
        <time>2021-08-04T08:05:30.820Z</time>
      </trkpt>
      <trkpt lat="46.9895" lon="8.83368">
        <ele>1262</ele>
        <time>2021-08-04T08:05:31.820Z</time>
      </trkpt>
      <trkpt lat="46.98951" lon="8.83366">
        <ele>1261</ele>
        <time>2021-08-04T08:05:32.819Z</time>
      </trkpt>
      <trkpt lat="46.98951" lon="8.83364">
        <ele>1260</ele>
        <time>2021-08-04T08:05:33.820Z</time>
      </trkpt>
      <trkpt lat="46.98952" lon="8.83363">
        <ele>1259</ele>
        <time>2021-08-04T08:05:34.820Z</time>
      </trkpt>
      <trkpt lat="46.98952" lon="8.83361">
        <ele>1258</ele>
        <time>2021-08-04T08:05:35.820Z</time>
      </trkpt>
      <trkpt lat="46.98953" lon="8.83359">
        <ele>1258</ele>
        <time>2021-08-04T08:05:36.820Z</time>
      </trkpt>
      <trkpt lat="46.98954" lon="8.83358">
        <ele>1257</ele>
        <time>2021-08-04T08:05:37.820Z</time>
      </trkpt>
      <trkpt lat="46.98955" lon="8.83357">
        <ele>1257</ele>
        <time>2021-08-04T08:05:38.820Z</time>
      </trkpt>
      <trkpt lat="46.98955" lon="8.83355">
        <ele>1257</ele>
        <time>2021-08-04T08:05:39.820Z</time>
      </trkpt>
      <trkpt lat="46.98956" lon="8.83353">
        <ele>1257</ele>
        <time>2021-08-04T08:05:40.820Z</time>
      </trkpt>
      <trkpt lat="46.98957" lon="8.83351">
        <ele>1257</ele>
        <time>2021-08-04T08:05:41.820Z</time>
      </trkpt>
      <trkpt lat="46.98957" lon="8.83349">
        <ele>1258</ele>
        <time>2021-08-04T08:05:42.820Z</time>
      </trkpt>
      <trkpt lat="46.98957" lon="8.83347">
        <ele>1258</ele>
        <time>2021-08-04T08:05:43.820Z</time>
      </trkpt>
      <trkpt lat="46.98957" lon="8.83344">
        <ele>1258</ele>
        <time>2021-08-04T08:05:44.819Z</time>
      </trkpt>
      <trkpt lat="46.98957" lon="8.83341">
        <ele>1259</ele>
        <time>2021-08-04T08:05:45.820Z</time>
      </trkpt>
      <trkpt lat="46.98957" lon="8.83339">
        <ele>1259</ele>
        <time>2021-08-04T08:05:46.820Z</time>
      </trkpt>
      <trkpt lat="46.98957" lon="8.83338">
        <ele>1259</ele>
        <time>2021-08-04T08:05:47.819Z</time>
      </trkpt>
      <trkpt lat="46.98956" lon="8.83336">
        <ele>1260</ele>
        <time>2021-08-04T08:05:48.820Z</time>
      </trkpt>
      <trkpt lat="46.98956" lon="8.83334">
        <ele>1260</ele>
        <time>2021-08-04T08:05:49.819Z</time>
      </trkpt>
      <trkpt lat="46.98956" lon="8.83332">
        <ele>1260</ele>
        <time>2021-08-04T08:05:50.820Z</time>
      </trkpt>
      <trkpt lat="46.98955" lon="8.8333">
        <ele>1260</ele>
        <time>2021-08-04T08:05:51.820Z</time>
      </trkpt>
      <trkpt lat="46.98954" lon="8.83329">
        <ele>1260</ele>
        <time>2021-08-04T08:05:52.820Z</time>
      </trkpt>
      <trkpt lat="46.98953" lon="8.83327">
        <ele>1260</ele>
        <time>2021-08-04T08:05:53.819Z</time>
      </trkpt>
      <trkpt lat="46.98952" lon="8.83326">
        <ele>1260</ele>
        <time>2021-08-04T08:05:54.820Z</time>
      </trkpt>
      <trkpt lat="46.98951" lon="8.83325">
        <ele>1260</ele>
        <time>2021-08-04T08:05:55.820Z</time>
      </trkpt>
      <trkpt lat="46.9895" lon="8.83323">
        <ele>1260</ele>
        <time>2021-08-04T08:05:56.820Z</time>
      </trkpt>
      <trkpt lat="46.98949" lon="8.83322">
        <ele>1260</ele>
        <time>2021-08-04T08:05:57.819Z</time>
      </trkpt>
      <trkpt lat="46.98948" lon="8.8332">
        <ele>1261</ele>
        <time>2021-08-04T08:05:58.820Z</time>
      </trkpt>
      <trkpt lat="46.98947" lon="8.83317">
        <ele>1261</ele>
        <time>2021-08-04T08:05:59.820Z</time>
      </trkpt>
      <trkpt lat="46.98946" lon="8.83315">
        <ele>1260</ele>
        <time>2021-08-04T08:06:00.820Z</time>
      </trkpt>
      <trkpt lat="46.98946" lon="8.83314">
        <ele>1260</ele>
        <time>2021-08-04T08:06:01.820Z</time>
      </trkpt>
      <trkpt lat="46.98945" lon="8.83313">
        <ele>1260</ele>
        <time>2021-08-04T08:06:02.819Z</time>
      </trkpt>
      <trkpt lat="46.98944" lon="8.83312">
        <ele>1260</ele>
        <time>2021-08-04T08:06:03.819Z</time>
      </trkpt>
      <trkpt lat="46.98943" lon="8.8331">
        <ele>1259</ele>
        <time>2021-08-04T08:06:04.820Z</time>
      </trkpt>
      <trkpt lat="46.98942" lon="8.83308">
        <ele>1259</ele>
        <time>2021-08-04T08:06:05.820Z</time>
      </trkpt>
      <trkpt lat="46.98941" lon="8.83305">
        <ele>1259</ele>
        <time>2021-08-04T08:06:06.819Z</time>
      </trkpt>
      <trkpt lat="46.98941" lon="8.83303">
        <ele>1259</ele>
        <time>2021-08-04T08:06:07.819Z</time>
      </trkpt>
      <trkpt lat="46.9894" lon="8.83301">
        <ele>1259</ele>
        <time>2021-08-04T08:06:08.820Z</time>
      </trkpt>
      <trkpt lat="46.9894" lon="8.83299">
        <ele>1259</ele>
        <time>2021-08-04T08:06:09.820Z</time>
      </trkpt>
      <trkpt lat="46.98939" lon="8.83297">
        <ele>1259</ele>
        <time>2021-08-04T08:06:10.820Z</time>
      </trkpt>
      <trkpt lat="46.98939" lon="8.83294">
        <ele>1258</ele>
        <time>2021-08-04T08:06:11.819Z</time>
      </trkpt>
      <trkpt lat="46.98938" lon="8.83293">
        <ele>1258</ele>
        <time>2021-08-04T08:06:12.820Z</time>
      </trkpt>
      <trkpt lat="46.98938" lon="8.83292">
        <ele>1258</ele>
        <time>2021-08-04T08:06:13.820Z</time>
      </trkpt>
      <trkpt lat="46.98937" lon="8.8329">
        <ele>1257</ele>
        <time>2021-08-04T08:06:14.820Z</time>
      </trkpt>
      <trkpt lat="46.98935" lon="8.83288">
        <ele>1257</ele>
        <time>2021-08-04T08:06:15.819Z</time>
      </trkpt>
      <trkpt lat="46.98934" lon="8.83286">
        <ele>1257</ele>
        <time>2021-08-04T08:06:16.819Z</time>
      </trkpt>
      <trkpt lat="46.98933" lon="8.83285">
        <ele>1256</ele>
        <time>2021-08-04T08:06:17.820Z</time>
      </trkpt>
      <trkpt lat="46.98932" lon="8.83283">
        <ele>1256</ele>
        <time>2021-08-04T08:06:18.820Z</time>
      </trkpt>
      <trkpt lat="46.9893" lon="8.8328">
        <ele>1256</ele>
        <time>2021-08-04T08:06:19.820Z</time>
      </trkpt>
      <trkpt lat="46.98929" lon="8.83278">
        <ele>1256</ele>
        <time>2021-08-04T08:06:20.819Z</time>
      </trkpt>
      <trkpt lat="46.98928" lon="8.83277">
        <ele>1255</ele>
        <time>2021-08-04T08:06:21.819Z</time>
      </trkpt>
      <trkpt lat="46.98927" lon="8.83276">
        <ele>1255</ele>
        <time>2021-08-04T08:06:22.819Z</time>
      </trkpt>
      <trkpt lat="46.98926" lon="8.83275">
        <ele>1255</ele>
        <time>2021-08-04T08:06:23.819Z</time>
      </trkpt>
      <trkpt lat="46.98926" lon="8.83273">
        <ele>1254</ele>
        <time>2021-08-04T08:06:24.819Z</time>
      </trkpt>
      <trkpt lat="46.98926" lon="8.83272">
        <ele>1254</ele>
        <time>2021-08-04T08:06:25.820Z</time>
      </trkpt>
      <trkpt lat="46.98926" lon="8.83271">
        <ele>1254</ele>
        <time>2021-08-04T08:06:26.820Z</time>
      </trkpt>
      <trkpt lat="46.98927" lon="8.8327">
        <ele>1254</ele>
        <time>2021-08-04T08:06:27.819Z</time>
      </trkpt>
      <trkpt lat="46.98927" lon="8.83269">
        <ele>1254</ele>
        <time>2021-08-04T08:06:28.820Z</time>
      </trkpt>
      <trkpt lat="46.98927" lon="8.83268">
        <ele>1254</ele>
        <time>2021-08-04T08:06:29.820Z</time>
      </trkpt>
      <trkpt lat="46.98927" lon="8.83267">
        <ele>1254</ele>
        <time>2021-08-04T08:06:30.820Z</time>
      </trkpt>
      <trkpt lat="46.98928" lon="8.83266">
        <ele>1254</ele>
        <time>2021-08-04T08:06:31.820Z</time>
      </trkpt>
      <trkpt lat="46.98927" lon="8.83265">
        <ele>1255</ele>
        <time>2021-08-04T08:06:32.820Z</time>
      </trkpt>
      <trkpt lat="46.98927" lon="8.83263">
        <ele>1255</ele>
        <time>2021-08-04T08:06:33.820Z</time>
      </trkpt>
      <trkpt lat="46.98925" lon="8.83261">
        <ele>1256</ele>
        <time>2021-08-04T08:06:34.820Z</time>
      </trkpt>
      <trkpt lat="46.98925" lon="8.8326">
        <ele>1256</ele>
        <time>2021-08-04T08:06:35.819Z</time>
      </trkpt>
      <trkpt lat="46.98925" lon="8.83258">
        <ele>1257</ele>
        <time>2021-08-04T08:06:36.819Z</time>
      </trkpt>
      <trkpt lat="46.98924" lon="8.83257">
        <ele>1258</ele>
        <time>2021-08-04T08:06:37.820Z</time>
      </trkpt>
      <trkpt lat="46.98924" lon="8.83255">
        <ele>1259</ele>
        <time>2021-08-04T08:06:38.819Z</time>
      </trkpt>
      <trkpt lat="46.98924" lon="8.83254">
        <ele>1260</ele>
        <time>2021-08-04T08:06:39.819Z</time>
      </trkpt>
      <trkpt lat="46.98925" lon="8.83252">
        <ele>1262</ele>
        <time>2021-08-04T08:06:40.819Z</time>
      </trkpt>
      <trkpt lat="46.98925" lon="8.8325">
        <ele>1263</ele>
        <time>2021-08-04T08:06:41.819Z</time>
      </trkpt>
      <trkpt lat="46.98926" lon="8.83248">
        <ele>1264</ele>
        <time>2021-08-04T08:06:42.819Z</time>
      </trkpt>
      <trkpt lat="46.98927" lon="8.83246">
        <ele>1266</ele>
        <time>2021-08-04T08:06:43.819Z</time>
      </trkpt>
      <trkpt lat="46.98928" lon="8.83245">
        <ele>1267</ele>
        <time>2021-08-04T08:06:44.820Z</time>
      </trkpt>
      <trkpt lat="46.98929" lon="8.83243">
        <ele>1268</ele>
        <time>2021-08-04T08:06:45.820Z</time>
      </trkpt>
      <trkpt lat="46.98929" lon="8.83241">
        <ele>1268</ele>
        <time>2021-08-04T08:06:46.820Z</time>
      </trkpt>
      <trkpt lat="46.98929" lon="8.83239">
        <ele>1269</ele>
        <time>2021-08-04T08:06:47.820Z</time>
      </trkpt>
      <trkpt lat="46.9893" lon="8.83237">
        <ele>1269</ele>
        <time>2021-08-04T08:06:48.820Z</time>
      </trkpt>
      <trkpt lat="46.9893" lon="8.83235">
        <ele>1270</ele>
        <time>2021-08-04T08:06:49.820Z</time>
      </trkpt>
      <trkpt lat="46.9893" lon="8.83233">
        <ele>1270</ele>
        <time>2021-08-04T08:06:50.819Z</time>
      </trkpt>
      <trkpt lat="46.98931" lon="8.83231">
        <ele>1270</ele>
        <time>2021-08-04T08:06:51.820Z</time>
      </trkpt>
      <trkpt lat="46.98931" lon="8.8323">
        <ele>1270</ele>
        <time>2021-08-04T08:06:52.820Z</time>
      </trkpt>
      <trkpt lat="46.98931" lon="8.83228">
        <ele>1270</ele>
        <time>2021-08-04T08:06:53.820Z</time>
      </trkpt>
      <trkpt lat="46.98931" lon="8.83227">
        <ele>1269</ele>
        <time>2021-08-04T08:06:54.820Z</time>
      </trkpt>
      <trkpt lat="46.98931" lon="8.83225">
        <ele>1269</ele>
        <time>2021-08-04T08:06:55.820Z</time>
      </trkpt>
      <trkpt lat="46.98931" lon="8.83224">
        <ele>1269</ele>
        <time>2021-08-04T08:06:56.820Z</time>
      </trkpt>
      <trkpt lat="46.98932" lon="8.83223">
        <ele>1269</ele>
        <time>2021-08-04T08:06:57.820Z</time>
      </trkpt>
      <trkpt lat="46.98933" lon="8.83221">
        <ele>1268</ele>
        <time>2021-08-04T08:06:58.820Z</time>
      </trkpt>
      <trkpt lat="46.98934" lon="8.83219">
        <ele>1268</ele>
        <time>2021-08-04T08:06:59.820Z</time>
      </trkpt>
      <trkpt lat="46.98935" lon="8.83218">
        <ele>1267</ele>
        <time>2021-08-04T08:07:00.820Z</time>
      </trkpt>
      <trkpt lat="46.98935" lon="8.83217">
        <ele>1266</ele>
        <time>2021-08-04T08:07:01.820Z</time>
      </trkpt>
      <trkpt lat="46.98936" lon="8.83215">
        <ele>1266</ele>
        <time>2021-08-04T08:07:02.820Z</time>
      </trkpt>
      <trkpt lat="46.98937" lon="8.83214">
        <ele>1265</ele>
        <time>2021-08-04T08:07:03.820Z</time>
      </trkpt>
      <trkpt lat="46.98938" lon="8.83212">
        <ele>1264</ele>
        <time>2021-08-04T08:07:04.820Z</time>
      </trkpt>
      <trkpt lat="46.98939" lon="8.83211">
        <ele>1263</ele>
        <time>2021-08-04T08:07:05.820Z</time>
      </trkpt>
      <trkpt lat="46.9894" lon="8.8321">
        <ele>1262</ele>
        <time>2021-08-04T08:07:06.819Z</time>
      </trkpt>
      <trkpt lat="46.98942" lon="8.83208">
        <ele>1261</ele>
        <time>2021-08-04T08:07:07.820Z</time>
      </trkpt>
      <trkpt lat="46.98943" lon="8.83207">
        <ele>1261</ele>
        <time>2021-08-04T08:07:08.820Z</time>
      </trkpt>
      <trkpt lat="46.98943" lon="8.83206">
        <ele>1260</ele>
        <time>2021-08-04T08:07:09.820Z</time>
      </trkpt>
      <trkpt lat="46.98944" lon="8.83205">
        <ele>1260</ele>
        <time>2021-08-04T08:07:10.820Z</time>
      </trkpt>
      <trkpt lat="46.98945" lon="8.83203">
        <ele>1259</ele>
        <time>2021-08-04T08:07:11.820Z</time>
      </trkpt>
      <trkpt lat="46.98945" lon="8.83202">
        <ele>1259</ele>
        <time>2021-08-04T08:07:12.820Z</time>
      </trkpt>
      <trkpt lat="46.98946" lon="8.83201">
        <ele>1258</ele>
        <time>2021-08-04T08:07:13.819Z</time>
      </trkpt>
      <trkpt lat="46.98947" lon="8.832">
        <ele>1257</ele>
        <time>2021-08-04T08:07:14.820Z</time>
      </trkpt>
      <trkpt lat="46.98948" lon="8.83198">
        <ele>1257</ele>
        <time>2021-08-04T08:07:15.820Z</time>
      </trkpt>
      <trkpt lat="46.98949" lon="8.83197">
        <ele>1256</ele>
        <time>2021-08-04T08:07:16.820Z</time>
      </trkpt>
      <trkpt lat="46.98951" lon="8.83196">
        <ele>1255</ele>
        <time>2021-08-04T08:07:17.819Z</time>
      </trkpt>
      <trkpt lat="46.98952" lon="8.83195">
        <ele>1255</ele>
        <time>2021-08-04T08:07:18.820Z</time>
      </trkpt>
      <trkpt lat="46.98953" lon="8.83193">
        <ele>1255</ele>
        <time>2021-08-04T08:07:19.820Z</time>
      </trkpt>
      <trkpt lat="46.98953" lon="8.83192">
        <ele>1254</ele>
        <time>2021-08-04T08:07:20.819Z</time>
      </trkpt>
      <trkpt lat="46.98954" lon="8.83191">
        <ele>1254</ele>
        <time>2021-08-04T08:07:21.819Z</time>
      </trkpt>
      <trkpt lat="46.98954" lon="8.8319">
        <ele>1253</ele>
        <time>2021-08-04T08:07:22.820Z</time>
      </trkpt>
      <trkpt lat="46.98954" lon="8.83188">
        <ele>1253</ele>
        <time>2021-08-04T08:07:23.820Z</time>
      </trkpt>
      <trkpt lat="46.98955" lon="8.83187">
        <ele>1253</ele>
        <time>2021-08-04T08:07:24.820Z</time>
      </trkpt>
      <trkpt lat="46.98956" lon="8.83185">
        <ele>1252</ele>
        <time>2021-08-04T08:07:25.820Z</time>
      </trkpt>
      <trkpt lat="46.98957" lon="8.83183">
        <ele>1252</ele>
        <time>2021-08-04T08:07:26.820Z</time>
      </trkpt>
      <trkpt lat="46.98958" lon="8.83182">
        <ele>1251</ele>
        <time>2021-08-04T08:07:27.819Z</time>
      </trkpt>
      <trkpt lat="46.98958" lon="8.8318">
        <ele>1250</ele>
        <time>2021-08-04T08:07:28.820Z</time>
      </trkpt>
      <trkpt lat="46.98959" lon="8.83179">
        <ele>1250</ele>
        <time>2021-08-04T08:07:29.820Z</time>
      </trkpt>
      <trkpt lat="46.98959" lon="8.83177">
        <ele>1249</ele>
        <time>2021-08-04T08:07:30.820Z</time>
      </trkpt>
      <trkpt lat="46.9896" lon="8.83175">
        <ele>1249</ele>
        <time>2021-08-04T08:07:31.820Z</time>
      </trkpt>
      <trkpt lat="46.9896" lon="8.83173">
        <ele>1248</ele>
        <time>2021-08-04T08:07:32.820Z</time>
      </trkpt>
      <trkpt lat="46.9896" lon="8.83171">
        <ele>1248</ele>
        <time>2021-08-04T08:07:33.820Z</time>
      </trkpt>
      <trkpt lat="46.98959" lon="8.83169">
        <ele>1247</ele>
        <time>2021-08-04T08:07:34.820Z</time>
      </trkpt>
      <trkpt lat="46.98959" lon="8.83168">
        <ele>1246</ele>
        <time>2021-08-04T08:07:35.819Z</time>
      </trkpt>
      <trkpt lat="46.98959" lon="8.83166">
        <ele>1245</ele>
        <time>2021-08-04T08:07:36.820Z</time>
      </trkpt>
      <trkpt lat="46.9896" lon="8.83164">
        <ele>1244</ele>
        <time>2021-08-04T08:07:37.820Z</time>
      </trkpt>
      <trkpt lat="46.98959" lon="8.83162">
        <ele>1243</ele>
        <time>2021-08-04T08:07:38.819Z</time>
      </trkpt>
      <trkpt lat="46.98959" lon="8.83161">
        <ele>1243</ele>
        <time>2021-08-04T08:07:39.819Z</time>
      </trkpt>
      <trkpt lat="46.98958" lon="8.83159">
        <ele>1242</ele>
        <time>2021-08-04T08:07:40.819Z</time>
      </trkpt>
      <trkpt lat="46.98958" lon="8.83157">
        <ele>1242</ele>
        <time>2021-08-04T08:07:41.820Z</time>
      </trkpt>
      <trkpt lat="46.98958" lon="8.83155">
        <ele>1242</ele>
        <time>2021-08-04T08:07:42.820Z</time>
      </trkpt>
      <trkpt lat="46.98958" lon="8.83153">
        <ele>1241</ele>
        <time>2021-08-04T08:07:43.820Z</time>
      </trkpt>
      <trkpt lat="46.98958" lon="8.83151">
        <ele>1241</ele>
        <time>2021-08-04T08:07:44.820Z</time>
      </trkpt>
      <trkpt lat="46.98958" lon="8.8315">
        <ele>1241</ele>
        <time>2021-08-04T08:07:45.819Z</time>
      </trkpt>
      <trkpt lat="46.98959" lon="8.83147">
        <ele>1240</ele>
        <time>2021-08-04T08:07:46.819Z</time>
      </trkpt>
      <trkpt lat="46.98959" lon="8.83145">
        <ele>1240</ele>
        <time>2021-08-04T08:07:47.820Z</time>
      </trkpt>
      <trkpt lat="46.98959" lon="8.83142">
        <ele>1241</ele>
        <time>2021-08-04T08:07:48.820Z</time>
      </trkpt>
      <trkpt lat="46.9896" lon="8.8314">
        <ele>1241</ele>
        <time>2021-08-04T08:07:49.820Z</time>
      </trkpt>
      <trkpt lat="46.9896" lon="8.83138">
        <ele>1241</ele>
        <time>2021-08-04T08:07:50.820Z</time>
      </trkpt>
      <trkpt lat="46.9896" lon="8.83136">
        <ele>1241</ele>
        <time>2021-08-04T08:07:51.819Z</time>
      </trkpt>
      <trkpt lat="46.9896" lon="8.83135">
        <ele>1242</ele>
        <time>2021-08-04T08:07:52.819Z</time>
      </trkpt>
      <trkpt lat="46.9896" lon="8.83133">
        <ele>1242</ele>
        <time>2021-08-04T08:07:53.820Z</time>
      </trkpt>
      <trkpt lat="46.9896" lon="8.83131">
        <ele>1242</ele>
        <time>2021-08-04T08:07:54.820Z</time>
      </trkpt>
      <trkpt lat="46.9896" lon="8.83129">
        <ele>1242</ele>
        <time>2021-08-04T08:07:55.820Z</time>
      </trkpt>
      <trkpt lat="46.98959" lon="8.83127">
        <ele>1242</ele>
        <time>2021-08-04T08:07:56.820Z</time>
      </trkpt>
      <trkpt lat="46.98959" lon="8.83125">
        <ele>1241</ele>
        <time>2021-08-04T08:07:57.820Z</time>
      </trkpt>
      <trkpt lat="46.9896" lon="8.83123">
        <ele>1241</ele>
        <time>2021-08-04T08:07:58.820Z</time>
      </trkpt>
      <trkpt lat="46.9896" lon="8.83122">
        <ele>1241</ele>
        <time>2021-08-04T08:07:59.820Z</time>
      </trkpt>
      <trkpt lat="46.9896" lon="8.8312">
        <ele>1241</ele>
        <time>2021-08-04T08:08:00.820Z</time>
      </trkpt>
      <trkpt lat="46.98959" lon="8.83117">
        <ele>1241</ele>
        <time>2021-08-04T08:08:01.819Z</time>
      </trkpt>
      <trkpt lat="46.98959" lon="8.83115">
        <ele>1241</ele>
        <time>2021-08-04T08:08:02.820Z</time>
      </trkpt>
      <trkpt lat="46.9896" lon="8.83113">
        <ele>1241</ele>
        <time>2021-08-04T08:08:03.819Z</time>
      </trkpt>
      <trkpt lat="46.98959" lon="8.83111">
        <ele>1241</ele>
        <time>2021-08-04T08:08:04.820Z</time>
      </trkpt>
      <trkpt lat="46.98959" lon="8.83109">
        <ele>1241</ele>
        <time>2021-08-04T08:08:05.819Z</time>
      </trkpt>
      <trkpt lat="46.98958" lon="8.83108">
        <ele>1241</ele>
        <time>2021-08-04T08:08:06.820Z</time>
      </trkpt>
      <trkpt lat="46.98958" lon="8.83107">
        <ele>1242</ele>
        <time>2021-08-04T08:08:07.820Z</time>
      </trkpt>
      <trkpt lat="46.98956" lon="8.83105">
        <ele>1241</ele>
        <time>2021-08-04T08:08:08.820Z</time>
      </trkpt>
      <trkpt lat="46.98955" lon="8.83103">
        <ele>1241</ele>
        <time>2021-08-04T08:08:09.819Z</time>
      </trkpt>
      <trkpt lat="46.98955" lon="8.83102">
        <ele>1241</ele>
        <time>2021-08-04T08:08:10.820Z</time>
      </trkpt>
      <trkpt lat="46.98954" lon="8.831">
        <ele>1241</ele>
        <time>2021-08-04T08:08:11.820Z</time>
      </trkpt>
      <trkpt lat="46.98953" lon="8.83099">
        <ele>1241</ele>
        <time>2021-08-04T08:08:12.820Z</time>
      </trkpt>
      <trkpt lat="46.98951" lon="8.83097">
        <ele>1241</ele>
        <time>2021-08-04T08:08:13.820Z</time>
      </trkpt>
      <trkpt lat="46.98951" lon="8.83095">
        <ele>1241</ele>
        <time>2021-08-04T08:08:14.819Z</time>
      </trkpt>
      <trkpt lat="46.9895" lon="8.83094">
        <ele>1242</ele>
        <time>2021-08-04T08:08:15.819Z</time>
      </trkpt>
      <trkpt lat="46.98949" lon="8.83093">
        <ele>1242</ele>
        <time>2021-08-04T08:08:16.819Z</time>
      </trkpt>
      <trkpt lat="46.98949" lon="8.83091">
        <ele>1242</ele>
        <time>2021-08-04T08:08:17.819Z</time>
      </trkpt>
      <trkpt lat="46.98948" lon="8.83089">
        <ele>1242</ele>
        <time>2021-08-04T08:08:18.819Z</time>
      </trkpt>
      <trkpt lat="46.98948" lon="8.83087">
        <ele>1242</ele>
        <time>2021-08-04T08:08:19.820Z</time>
      </trkpt>
      <trkpt lat="46.98948" lon="8.83085">
        <ele>1241</ele>
        <time>2021-08-04T08:08:20.820Z</time>
      </trkpt>
      <trkpt lat="46.98948" lon="8.83084">
        <ele>1241</ele>
        <time>2021-08-04T08:08:21.820Z</time>
      </trkpt>
      <trkpt lat="46.98947" lon="8.83083">
        <ele>1240</ele>
        <time>2021-08-04T08:08:22.820Z</time>
      </trkpt>
      <trkpt lat="46.98947" lon="8.83081">
        <ele>1240</ele>
        <time>2021-08-04T08:08:23.819Z</time>
      </trkpt>
      <trkpt lat="46.98947" lon="8.83078">
        <ele>1240</ele>
        <time>2021-08-04T08:08:24.820Z</time>
      </trkpt>
      <trkpt lat="46.98947" lon="8.83077">
        <ele>1240</ele>
        <time>2021-08-04T08:08:25.819Z</time>
      </trkpt>
      <trkpt lat="46.98946" lon="8.83075">
        <ele>1240</ele>
        <time>2021-08-04T08:08:26.819Z</time>
      </trkpt>
      <trkpt lat="46.98943" lon="8.83073">
        <ele>1239</ele>
        <time>2021-08-04T08:08:27.819Z</time>
      </trkpt>
      <trkpt lat="46.98942" lon="8.83071">
        <ele>1239</ele>
        <time>2021-08-04T08:08:28.820Z</time>
      </trkpt>
      <trkpt lat="46.98941" lon="8.83069">
        <ele>1239</ele>
        <time>2021-08-04T08:08:29.820Z</time>
      </trkpt>
      <trkpt lat="46.98941" lon="8.83069">
        <ele>1238</ele>
        <time>2021-08-04T08:08:30.820Z</time>
      </trkpt>
      <trkpt lat="46.9894" lon="8.83068">
        <ele>1238</ele>
        <time>2021-08-04T08:08:31.820Z</time>
      </trkpt>
      <trkpt lat="46.98939" lon="8.83067">
        <ele>1238</ele>
        <time>2021-08-04T08:08:32.820Z</time>
      </trkpt>
      <trkpt lat="46.98938" lon="8.83065">
        <ele>1237</ele>
        <time>2021-08-04T08:08:33.819Z</time>
      </trkpt>
      <trkpt lat="46.98937" lon="8.83064">
        <ele>1237</ele>
        <time>2021-08-04T08:08:34.820Z</time>
      </trkpt>
      <trkpt lat="46.98936" lon="8.83064">
        <ele>1237</ele>
        <time>2021-08-04T08:08:35.820Z</time>
      </trkpt>
      <trkpt lat="46.98934" lon="8.83063">
        <ele>1237</ele>
        <time>2021-08-04T08:08:36.819Z</time>
      </trkpt>
      <trkpt lat="46.98933" lon="8.83061">
        <ele>1237</ele>
        <time>2021-08-04T08:08:37.820Z</time>
      </trkpt>
      <trkpt lat="46.98931" lon="8.83059">
        <ele>1237</ele>
        <time>2021-08-04T08:08:38.819Z</time>
      </trkpt>
      <trkpt lat="46.9893" lon="8.83058">
        <ele>1238</ele>
        <time>2021-08-04T08:08:39.820Z</time>
      </trkpt>
      <trkpt lat="46.98928" lon="8.83057">
        <ele>1238</ele>
        <time>2021-08-04T08:08:40.819Z</time>
      </trkpt>
      <trkpt lat="46.98927" lon="8.83055">
        <ele>1239</ele>
        <time>2021-08-04T08:08:41.819Z</time>
      </trkpt>
      <trkpt lat="46.98925" lon="8.83054">
        <ele>1239</ele>
        <time>2021-08-04T08:08:42.820Z</time>
      </trkpt>
      <trkpt lat="46.98924" lon="8.83053">
        <ele>1240</ele>
        <time>2021-08-04T08:08:43.820Z</time>
      </trkpt>
      <trkpt lat="46.98922" lon="8.83051">
        <ele>1241</ele>
        <time>2021-08-04T08:08:44.819Z</time>
      </trkpt>
      <trkpt lat="46.98921" lon="8.8305">
        <ele>1241</ele>
        <time>2021-08-04T08:08:45.820Z</time>
      </trkpt>
      <trkpt lat="46.9892" lon="8.8305">
        <ele>1241</ele>
        <time>2021-08-04T08:08:46.820Z</time>
      </trkpt>
      <trkpt lat="46.98918" lon="8.83049">
        <ele>1241</ele>
        <time>2021-08-04T08:08:47.820Z</time>
      </trkpt>
      <trkpt lat="46.98917" lon="8.83048">
        <ele>1241</ele>
        <time>2021-08-04T08:08:48.820Z</time>
      </trkpt>
      <trkpt lat="46.98915" lon="8.83047">
        <ele>1241</ele>
        <time>2021-08-04T08:08:49.819Z</time>
      </trkpt>
      <trkpt lat="46.98914" lon="8.83046">
        <ele>1242</ele>
        <time>2021-08-04T08:08:50.820Z</time>
      </trkpt>
      <trkpt lat="46.98912" lon="8.83044">
        <ele>1242</ele>
        <time>2021-08-04T08:08:51.820Z</time>
      </trkpt>
      <trkpt lat="46.98911" lon="8.83043">
        <ele>1242</ele>
        <time>2021-08-04T08:08:52.820Z</time>
      </trkpt>
      <trkpt lat="46.9891" lon="8.83042">
        <ele>1242</ele>
        <time>2021-08-04T08:08:53.820Z</time>
      </trkpt>
      <trkpt lat="46.98908" lon="8.8304">
        <ele>1243</ele>
        <time>2021-08-04T08:08:54.819Z</time>
      </trkpt>
      <trkpt lat="46.98905" lon="8.83037">
        <ele>1243</ele>
        <time>2021-08-04T08:08:55.819Z</time>
      </trkpt>
      <trkpt lat="46.98903" lon="8.83035">
        <ele>1244</ele>
        <time>2021-08-04T08:08:56.820Z</time>
      </trkpt>
      <trkpt lat="46.98901" lon="8.83033">
        <ele>1244</ele>
        <time>2021-08-04T08:08:57.819Z</time>
      </trkpt>
      <trkpt lat="46.989" lon="8.83032">
        <ele>1245</ele>
        <time>2021-08-04T08:08:58.819Z</time>
      </trkpt>
      <trkpt lat="46.989" lon="8.83031">
        <ele>1246</ele>
        <time>2021-08-04T08:08:59.819Z</time>
      </trkpt>
      <trkpt lat="46.98899" lon="8.8303">
        <ele>1246</ele>
        <time>2021-08-04T08:09:00.819Z</time>
      </trkpt>
      <trkpt lat="46.98898" lon="8.8303">
        <ele>1246</ele>
        <time>2021-08-04T08:09:01.820Z</time>
      </trkpt>
      <trkpt lat="46.98898" lon="8.83031">
        <ele>1246</ele>
        <time>2021-08-04T08:09:02.819Z</time>
      </trkpt>
      <trkpt lat="46.98898" lon="8.83031">
        <ele>1246</ele>
        <time>2021-08-04T08:09:03.820Z</time>
      </trkpt>
      <trkpt lat="46.98898" lon="8.83031">
        <ele>1246</ele>
        <time>2021-08-04T08:09:04.819Z</time>
      </trkpt>
      <trkpt lat="46.98897" lon="8.83031">
        <ele>1246</ele>
        <time>2021-08-04T08:09:05.819Z</time>
      </trkpt>
      <trkpt lat="46.98897" lon="8.83031">
        <ele>1246</ele>
        <time>2021-08-04T08:09:06.820Z</time>
      </trkpt>
      <trkpt lat="46.98897" lon="8.83031">
        <ele>1246</ele>
        <time>2021-08-04T08:09:07.819Z</time>
      </trkpt>
      <trkpt lat="46.98898" lon="8.83031">
        <ele>1246</ele>
        <time>2021-08-04T08:09:08.822Z</time>
      </trkpt>
      <trkpt lat="46.98899" lon="8.83031">
        <ele>1245</ele>
        <time>2021-08-04T08:09:09.821Z</time>
      </trkpt>
      <trkpt lat="46.989" lon="8.83032">
        <ele>1244</ele>
        <time>2021-08-04T08:09:10.822Z</time>
      </trkpt>
      <trkpt lat="46.989" lon="8.83033">
        <ele>1244</ele>
        <time>2021-08-04T08:09:11.822Z</time>
      </trkpt>
      <trkpt lat="46.989" lon="8.83034">
        <ele>1244</ele>
        <time>2021-08-04T08:09:12.821Z</time>
      </trkpt>
      <trkpt lat="46.989" lon="8.83034">
        <ele>1244</ele>
        <time>2021-08-04T08:09:13.822Z</time>
      </trkpt>
      <trkpt lat="46.989" lon="8.83035">
        <ele>1244</ele>
        <time>2021-08-04T08:09:14.822Z</time>
      </trkpt>
      <trkpt lat="46.98899" lon="8.83036">
        <ele>1243</ele>
        <time>2021-08-04T08:09:15.822Z</time>
      </trkpt>
      <trkpt lat="46.98899" lon="8.83036">
        <ele>1243</ele>
        <time>2021-08-04T08:09:16.821Z</time>
      </trkpt>
      <trkpt lat="46.98899" lon="8.83037">
        <ele>1243</ele>
        <time>2021-08-04T08:09:17.821Z</time>
      </trkpt>
      <trkpt lat="46.98899" lon="8.83037">
        <ele>1243</ele>
        <time>2021-08-04T08:09:18.821Z</time>
      </trkpt>
      <trkpt lat="46.98899" lon="8.83037">
        <ele>1242</ele>
        <time>2021-08-04T08:09:19.822Z</time>
      </trkpt>
      <trkpt lat="46.98899" lon="8.83038">
        <ele>1242</ele>
        <time>2021-08-04T08:09:20.821Z</time>
      </trkpt>
      <trkpt lat="46.98901" lon="8.83038">
        <ele>1242</ele>
        <time>2021-08-04T08:09:21.821Z</time>
      </trkpt>
      <trkpt lat="46.98902" lon="8.83037">
        <ele>1242</ele>
        <time>2021-08-04T08:09:22.822Z</time>
      </trkpt>
      <trkpt lat="46.98903" lon="8.83035">
        <ele>1241</ele>
        <time>2021-08-04T08:09:23.821Z</time>
      </trkpt>
      <trkpt lat="46.98903" lon="8.83033">
        <ele>1241</ele>
        <time>2021-08-04T08:09:24.822Z</time>
      </trkpt>
      <trkpt lat="46.98902" lon="8.83031">
        <ele>1242</ele>
        <time>2021-08-04T08:09:25.821Z</time>
      </trkpt>
      <trkpt lat="46.98902" lon="8.8303">
        <ele>1242</ele>
        <time>2021-08-04T08:09:26.822Z</time>
      </trkpt>
      <trkpt lat="46.98902" lon="8.83029">
        <ele>1242</ele>
        <time>2021-08-04T08:09:27.821Z</time>
      </trkpt>
      <trkpt lat="46.98901" lon="8.83027">
        <ele>1242</ele>
        <time>2021-08-04T08:09:28.821Z</time>
      </trkpt>
      <trkpt lat="46.989" lon="8.83026">
        <ele>1242</ele>
        <time>2021-08-04T08:09:29.822Z</time>
      </trkpt>
      <trkpt lat="46.989" lon="8.83026">
        <ele>1243</ele>
        <time>2021-08-04T08:09:30.822Z</time>
      </trkpt>
      <trkpt lat="46.98899" lon="8.83025">
        <ele>1243</ele>
        <time>2021-08-04T08:09:31.821Z</time>
      </trkpt>
      <trkpt lat="46.98898" lon="8.83024">
        <ele>1243</ele>
        <time>2021-08-04T08:09:32.821Z</time>
      </trkpt>
      <trkpt lat="46.98898" lon="8.83022">
        <ele>1242</ele>
        <time>2021-08-04T08:09:33.821Z</time>
      </trkpt>
      <trkpt lat="46.98897" lon="8.83022">
        <ele>1242</ele>
        <time>2021-08-04T08:09:34.821Z</time>
      </trkpt>
      <trkpt lat="46.98897" lon="8.83021">
        <ele>1242</ele>
        <time>2021-08-04T08:09:35.822Z</time>
      </trkpt>
      <trkpt lat="46.98898" lon="8.83022">
        <ele>1242</ele>
        <time>2021-08-04T08:09:36.821Z</time>
      </trkpt>
      <trkpt lat="46.98898" lon="8.83022">
        <ele>1241</ele>
        <time>2021-08-04T08:09:37.821Z</time>
      </trkpt>
      <trkpt lat="46.98899" lon="8.83023">
        <ele>1241</ele>
        <time>2021-08-04T08:09:38.821Z</time>
      </trkpt>
      <trkpt lat="46.989" lon="8.83023">
        <ele>1241</ele>
        <time>2021-08-04T08:09:39.821Z</time>
      </trkpt>
      <trkpt lat="46.98902" lon="8.83021">
        <ele>1242</ele>
        <time>2021-08-04T08:09:40.821Z</time>
      </trkpt>
      <trkpt lat="46.98901" lon="8.83019">
        <ele>1242</ele>
        <time>2021-08-04T08:09:41.821Z</time>
      </trkpt>
      <trkpt lat="46.989" lon="8.83017">
        <ele>1242</ele>
        <time>2021-08-04T08:09:42.822Z</time>
      </trkpt>
      <trkpt lat="46.989" lon="8.83015">
        <ele>1242</ele>
        <time>2021-08-04T08:09:43.822Z</time>
      </trkpt>
      <trkpt lat="46.98899" lon="8.83013">
        <ele>1242</ele>
        <time>2021-08-04T08:09:44.822Z</time>
      </trkpt>
      <trkpt lat="46.98898" lon="8.83012">
        <ele>1242</ele>
        <time>2021-08-04T08:09:45.822Z</time>
      </trkpt>
      <trkpt lat="46.98898" lon="8.83011">
        <ele>1242</ele>
        <time>2021-08-04T08:09:46.822Z</time>
      </trkpt>
      <trkpt lat="46.98897" lon="8.83009">
        <ele>1242</ele>
        <time>2021-08-04T08:09:47.822Z</time>
      </trkpt>
      <trkpt lat="46.98896" lon="8.83008">
        <ele>1243</ele>
        <time>2021-08-04T08:09:48.822Z</time>
      </trkpt>
      <trkpt lat="46.98896" lon="8.83007">
        <ele>1243</ele>
        <time>2021-08-04T08:09:49.821Z</time>
      </trkpt>
      <trkpt lat="46.98896" lon="8.83005">
        <ele>1243</ele>
        <time>2021-08-04T08:09:50.821Z</time>
      </trkpt>
      <trkpt lat="46.98895" lon="8.83004">
        <ele>1243</ele>
        <time>2021-08-04T08:09:51.821Z</time>
      </trkpt>
      <trkpt lat="46.98895" lon="8.83003">
        <ele>1243</ele>
        <time>2021-08-04T08:09:52.822Z</time>
      </trkpt>
      <trkpt lat="46.98895" lon="8.83001">
        <ele>1243</ele>
        <time>2021-08-04T08:09:53.821Z</time>
      </trkpt>
      <trkpt lat="46.98894" lon="8.82999">
        <ele>1243</ele>
        <time>2021-08-04T08:09:54.821Z</time>
      </trkpt>
      <trkpt lat="46.98894" lon="8.82996">
        <ele>1243</ele>
        <time>2021-08-04T08:09:55.822Z</time>
      </trkpt>
      <trkpt lat="46.98893" lon="8.82993">
        <ele>1242</ele>
        <time>2021-08-04T08:09:56.821Z</time>
      </trkpt>
      <trkpt lat="46.98894" lon="8.82991">
        <ele>1242</ele>
        <time>2021-08-04T08:09:57.821Z</time>
      </trkpt>
      <trkpt lat="46.98895" lon="8.82989">
        <ele>1242</ele>
        <time>2021-08-04T08:09:58.822Z</time>
      </trkpt>
      <trkpt lat="46.98895" lon="8.82987">
        <ele>1242</ele>
        <time>2021-08-04T08:09:59.821Z</time>
      </trkpt>
      <trkpt lat="46.98894" lon="8.82985">
        <ele>1242</ele>
        <time>2021-08-04T08:10:00.821Z</time>
      </trkpt>
      <trkpt lat="46.98893" lon="8.82983">
        <ele>1242</ele>
        <time>2021-08-04T08:10:01.821Z</time>
      </trkpt>
      <trkpt lat="46.98893" lon="8.82981">
        <ele>1242</ele>
        <time>2021-08-04T08:10:02.821Z</time>
      </trkpt>
      <trkpt lat="46.98893" lon="8.82978">
        <ele>1242</ele>
        <time>2021-08-04T08:10:03.821Z</time>
      </trkpt>
      <trkpt lat="46.98893" lon="8.82976">
        <ele>1242</ele>
        <time>2021-08-04T08:10:04.821Z</time>
      </trkpt>
      <trkpt lat="46.98892" lon="8.82975">
        <ele>1242</ele>
        <time>2021-08-04T08:10:05.821Z</time>
      </trkpt>
      <trkpt lat="46.98893" lon="8.82974">
        <ele>1242</ele>
        <time>2021-08-04T08:10:06.821Z</time>
      </trkpt>
      <trkpt lat="46.98892" lon="8.82972">
        <ele>1241</ele>
        <time>2021-08-04T08:10:07.821Z</time>
      </trkpt>
      <trkpt lat="46.98892" lon="8.82971">
        <ele>1241</ele>
        <time>2021-08-04T08:10:08.821Z</time>
      </trkpt>
      <trkpt lat="46.98892" lon="8.82969">
        <ele>1240</ele>
        <time>2021-08-04T08:10:09.821Z</time>
      </trkpt>
      <trkpt lat="46.98892" lon="8.82967">
        <ele>1240</ele>
        <time>2021-08-04T08:10:10.821Z</time>
      </trkpt>
      <trkpt lat="46.98891" lon="8.82964">
        <ele>1240</ele>
        <time>2021-08-04T08:10:11.821Z</time>
      </trkpt>
      <trkpt lat="46.98891" lon="8.82962">
        <ele>1240</ele>
        <time>2021-08-04T08:10:12.821Z</time>
      </trkpt>
      <trkpt lat="46.98889" lon="8.8296">
        <ele>1239</ele>
        <time>2021-08-04T08:10:13.822Z</time>
      </trkpt>
      <trkpt lat="46.98888" lon="8.82958">
        <ele>1239</ele>
        <time>2021-08-04T08:10:14.821Z</time>
      </trkpt>
      <trkpt lat="46.98887" lon="8.82956">
        <ele>1238</ele>
        <time>2021-08-04T08:10:15.822Z</time>
      </trkpt>
      <trkpt lat="46.98885" lon="8.82954">
        <ele>1238</ele>
        <time>2021-08-04T08:10:16.822Z</time>
      </trkpt>
      <trkpt lat="46.98884" lon="8.82954">
        <ele>1238</ele>
        <time>2021-08-04T08:10:17.822Z</time>
      </trkpt>
      <trkpt lat="46.98882" lon="8.82952">
        <ele>1237</ele>
        <time>2021-08-04T08:10:18.821Z</time>
      </trkpt>
      <trkpt lat="46.98881" lon="8.8295">
        <ele>1237</ele>
        <time>2021-08-04T08:10:19.821Z</time>
      </trkpt>
      <trkpt lat="46.9888" lon="8.82949">
        <ele>1236</ele>
        <time>2021-08-04T08:10:20.821Z</time>
      </trkpt>
      <trkpt lat="46.98879" lon="8.82947">
        <ele>1236</ele>
        <time>2021-08-04T08:10:21.822Z</time>
      </trkpt>
      <trkpt lat="46.98878" lon="8.82946">
        <ele>1236</ele>
        <time>2021-08-04T08:10:22.822Z</time>
      </trkpt>
      <trkpt lat="46.98877" lon="8.82944">
        <ele>1235</ele>
        <time>2021-08-04T08:10:23.822Z</time>
      </trkpt>
      <trkpt lat="46.98876" lon="8.82942">
        <ele>1234</ele>
        <time>2021-08-04T08:10:24.822Z</time>
      </trkpt>
      <trkpt lat="46.98875" lon="8.8294">
        <ele>1234</ele>
        <time>2021-08-04T08:10:25.821Z</time>
      </trkpt>
      <trkpt lat="46.98873" lon="8.82939">
        <ele>1234</ele>
        <time>2021-08-04T08:10:26.822Z</time>
      </trkpt>
      <trkpt lat="46.98873" lon="8.82938">
        <ele>1234</ele>
        <time>2021-08-04T08:10:27.822Z</time>
      </trkpt>
      <trkpt lat="46.98872" lon="8.82936">
        <ele>1234</ele>
        <time>2021-08-04T08:10:28.821Z</time>
      </trkpt>
      <trkpt lat="46.98871" lon="8.82935">
        <ele>1233</ele>
        <time>2021-08-04T08:10:29.822Z</time>
      </trkpt>
      <trkpt lat="46.9887" lon="8.82933">
        <ele>1233</ele>
        <time>2021-08-04T08:10:30.822Z</time>
      </trkpt>
      <trkpt lat="46.98869" lon="8.82932">
        <ele>1233</ele>
        <time>2021-08-04T08:10:31.822Z</time>
      </trkpt>
      <trkpt lat="46.98868" lon="8.82931">
        <ele>1233</ele>
        <time>2021-08-04T08:10:32.821Z</time>
      </trkpt>
      <trkpt lat="46.98868" lon="8.82929">
        <ele>1233</ele>
        <time>2021-08-04T08:10:33.822Z</time>
      </trkpt>
      <trkpt lat="46.98867" lon="8.82928">
        <ele>1232</ele>
        <time>2021-08-04T08:10:34.822Z</time>
      </trkpt>
      <trkpt lat="46.98867" lon="8.82927">
        <ele>1232</ele>
        <time>2021-08-04T08:10:35.822Z</time>
      </trkpt>
      <trkpt lat="46.98867" lon="8.82925">
        <ele>1232</ele>
        <time>2021-08-04T08:10:36.822Z</time>
      </trkpt>
      <trkpt lat="46.98867" lon="8.82924">
        <ele>1232</ele>
        <time>2021-08-04T08:10:37.822Z</time>
      </trkpt>
      <trkpt lat="46.98867" lon="8.82923">
        <ele>1232</ele>
        <time>2021-08-04T08:10:38.822Z</time>
      </trkpt>
      <trkpt lat="46.98867" lon="8.82922">
        <ele>1232</ele>
        <time>2021-08-04T08:10:39.821Z</time>
      </trkpt>
      <trkpt lat="46.98866" lon="8.82921">
        <ele>1232</ele>
        <time>2021-08-04T08:10:40.822Z</time>
      </trkpt>
      <trkpt lat="46.98865" lon="8.82919">
        <ele>1232</ele>
        <time>2021-08-04T08:10:41.822Z</time>
      </trkpt>
      <trkpt lat="46.98864" lon="8.82917">
        <ele>1232</ele>
        <time>2021-08-04T08:10:42.821Z</time>
      </trkpt>
      <trkpt lat="46.98864" lon="8.82916">
        <ele>1232</ele>
        <time>2021-08-04T08:10:43.822Z</time>
      </trkpt>
      <trkpt lat="46.98863" lon="8.82914">
        <ele>1232</ele>
        <time>2021-08-04T08:10:44.822Z</time>
      </trkpt>
      <trkpt lat="46.98863" lon="8.82912">
        <ele>1232</ele>
        <time>2021-08-04T08:10:45.822Z</time>
      </trkpt>
      <trkpt lat="46.98862" lon="8.8291">
        <ele>1232</ele>
        <time>2021-08-04T08:10:46.821Z</time>
      </trkpt>
      <trkpt lat="46.98862" lon="8.82909">
        <ele>1231</ele>
        <time>2021-08-04T08:10:47.822Z</time>
      </trkpt>
      <trkpt lat="46.98861" lon="8.82907">
        <ele>1231</ele>
        <time>2021-08-04T08:10:48.821Z</time>
      </trkpt>
      <trkpt lat="46.98861" lon="8.82905">
        <ele>1231</ele>
        <time>2021-08-04T08:10:49.821Z</time>
      </trkpt>
      <trkpt lat="46.9886" lon="8.82903">
        <ele>1230</ele>
        <time>2021-08-04T08:10:50.822Z</time>
      </trkpt>
      <trkpt lat="46.98859" lon="8.82901">
        <ele>1230</ele>
        <time>2021-08-04T08:10:51.822Z</time>
      </trkpt>
      <trkpt lat="46.98858" lon="8.829">
        <ele>1229</ele>
        <time>2021-08-04T08:10:52.822Z</time>
      </trkpt>
      <trkpt lat="46.98858" lon="8.82898">
        <ele>1229</ele>
        <time>2021-08-04T08:10:53.822Z</time>
      </trkpt>
      <trkpt lat="46.98857" lon="8.82896">
        <ele>1229</ele>
        <time>2021-08-04T08:10:54.822Z</time>
      </trkpt>
      <trkpt lat="46.98857" lon="8.82895">
        <ele>1229</ele>
        <time>2021-08-04T08:10:55.821Z</time>
      </trkpt>
      <trkpt lat="46.98856" lon="8.82893">
        <ele>1229</ele>
        <time>2021-08-04T08:10:56.822Z</time>
      </trkpt>
      <trkpt lat="46.98855" lon="8.82892">
        <ele>1230</ele>
        <time>2021-08-04T08:10:57.822Z</time>
      </trkpt>
      <trkpt lat="46.98854" lon="8.8289">
        <ele>1230</ele>
        <time>2021-08-04T08:10:58.822Z</time>
      </trkpt>
      <trkpt lat="46.98854" lon="8.82888">
        <ele>1230</ele>
        <time>2021-08-04T08:10:59.821Z</time>
      </trkpt>
      <trkpt lat="46.98854" lon="8.82886">
        <ele>1230</ele>
        <time>2021-08-04T08:11:00.821Z</time>
      </trkpt>
      <trkpt lat="46.98853" lon="8.82883">
        <ele>1230</ele>
        <time>2021-08-04T08:11:01.821Z</time>
      </trkpt>
      <trkpt lat="46.98853" lon="8.82881">
        <ele>1230</ele>
        <time>2021-08-04T08:11:02.821Z</time>
      </trkpt>
      <trkpt lat="46.98852" lon="8.82879">
        <ele>1230</ele>
        <time>2021-08-04T08:11:03.822Z</time>
      </trkpt>
      <trkpt lat="46.98852" lon="8.82877">
        <ele>1230</ele>
        <time>2021-08-04T08:11:04.822Z</time>
      </trkpt>
      <trkpt lat="46.98852" lon="8.82876">
        <ele>1230</ele>
        <time>2021-08-04T08:11:05.822Z</time>
      </trkpt>
      <trkpt lat="46.98851" lon="8.82874">
        <ele>1230</ele>
        <time>2021-08-04T08:11:06.822Z</time>
      </trkpt>
      <trkpt lat="46.98851" lon="8.82873">
        <ele>1230</ele>
        <time>2021-08-04T08:11:07.822Z</time>
      </trkpt>
      <trkpt lat="46.98851" lon="8.82871">
        <ele>1229</ele>
        <time>2021-08-04T08:11:08.822Z</time>
      </trkpt>
      <trkpt lat="46.9885" lon="8.82869">
        <ele>1229</ele>
        <time>2021-08-04T08:11:09.821Z</time>
      </trkpt>
      <trkpt lat="46.9885" lon="8.82868">
        <ele>1228</ele>
        <time>2021-08-04T08:11:10.822Z</time>
      </trkpt>
      <trkpt lat="46.9885" lon="8.82866">
        <ele>1228</ele>
        <time>2021-08-04T08:11:11.822Z</time>
      </trkpt>
      <trkpt lat="46.98849" lon="8.82865">
        <ele>1228</ele>
        <time>2021-08-04T08:11:12.821Z</time>
      </trkpt>
      <trkpt lat="46.98849" lon="8.82863">
        <ele>1227</ele>
        <time>2021-08-04T08:11:13.822Z</time>
      </trkpt>
      <trkpt lat="46.98848" lon="8.82862">
        <ele>1227</ele>
        <time>2021-08-04T08:11:14.822Z</time>
      </trkpt>
      <trkpt lat="46.98848" lon="8.8286">
        <ele>1227</ele>
        <time>2021-08-04T08:11:15.821Z</time>
      </trkpt>
      <trkpt lat="46.98848" lon="8.82858">
        <ele>1227</ele>
        <time>2021-08-04T08:11:16.822Z</time>
      </trkpt>
      <trkpt lat="46.98848" lon="8.82857">
        <ele>1227</ele>
        <time>2021-08-04T08:11:17.822Z</time>
      </trkpt>
      <trkpt lat="46.98849" lon="8.82856">
        <ele>1227</ele>
        <time>2021-08-04T08:11:18.821Z</time>
      </trkpt>
      <trkpt lat="46.98848" lon="8.82854">
        <ele>1227</ele>
        <time>2021-08-04T08:11:19.822Z</time>
      </trkpt>
      <trkpt lat="46.98848" lon="8.82853">
        <ele>1228</ele>
        <time>2021-08-04T08:11:20.822Z</time>
      </trkpt>
      <trkpt lat="46.98848" lon="8.82851">
        <ele>1228</ele>
        <time>2021-08-04T08:11:21.821Z</time>
      </trkpt>
      <trkpt lat="46.98849" lon="8.8285">
        <ele>1228</ele>
        <time>2021-08-04T08:11:22.821Z</time>
      </trkpt>
      <trkpt lat="46.98849" lon="8.82847">
        <ele>1228</ele>
        <time>2021-08-04T08:11:23.822Z</time>
      </trkpt>
      <trkpt lat="46.98849" lon="8.82845">
        <ele>1228</ele>
        <time>2021-08-04T08:11:24.822Z</time>
      </trkpt>
      <trkpt lat="46.98849" lon="8.82843">
        <ele>1228</ele>
        <time>2021-08-04T08:11:25.822Z</time>
      </trkpt>
      <trkpt lat="46.98849" lon="8.82841">
        <ele>1228</ele>
        <time>2021-08-04T08:11:26.821Z</time>
      </trkpt>
      <trkpt lat="46.98849" lon="8.82838">
        <ele>1228</ele>
        <time>2021-08-04T08:11:27.822Z</time>
      </trkpt>
      <trkpt lat="46.9885" lon="8.82836">
        <ele>1229</ele>
        <time>2021-08-04T08:11:28.822Z</time>
      </trkpt>
      <trkpt lat="46.98851" lon="8.82834">
        <ele>1229</ele>
        <time>2021-08-04T08:11:29.822Z</time>
      </trkpt>
      <trkpt lat="46.98851" lon="8.82832">
        <ele>1230</ele>
        <time>2021-08-04T08:11:30.821Z</time>
      </trkpt>
      <trkpt lat="46.98851" lon="8.82831">
        <ele>1230</ele>
        <time>2021-08-04T08:11:31.821Z</time>
      </trkpt>
      <trkpt lat="46.98852" lon="8.82829">
        <ele>1230</ele>
        <time>2021-08-04T08:11:32.822Z</time>
      </trkpt>
      <trkpt lat="46.98852" lon="8.82828">
        <ele>1230</ele>
        <time>2021-08-04T08:11:33.822Z</time>
      </trkpt>
      <trkpt lat="46.98852" lon="8.82826">
        <ele>1230</ele>
        <time>2021-08-04T08:11:34.821Z</time>
      </trkpt>
      <trkpt lat="46.98852" lon="8.82825">
        <ele>1230</ele>
        <time>2021-08-04T08:11:35.822Z</time>
      </trkpt>
      <trkpt lat="46.98853" lon="8.82823">
        <ele>1230</ele>
        <time>2021-08-04T08:11:36.822Z</time>
      </trkpt>
      <trkpt lat="46.98854" lon="8.82822">
        <ele>1229</ele>
        <time>2021-08-04T08:11:37.822Z</time>
      </trkpt>
      <trkpt lat="46.98855" lon="8.8282">
        <ele>1229</ele>
        <time>2021-08-04T08:11:38.822Z</time>
      </trkpt>
      <trkpt lat="46.98855" lon="8.82818">
        <ele>1229</ele>
        <time>2021-08-04T08:11:39.822Z</time>
      </trkpt>
      <trkpt lat="46.98856" lon="8.82817">
        <ele>1229</ele>
        <time>2021-08-04T08:11:40.822Z</time>
      </trkpt>
      <trkpt lat="46.98856" lon="8.82815">
        <ele>1228</ele>
        <time>2021-08-04T08:11:41.821Z</time>
      </trkpt>
      <trkpt lat="46.98856" lon="8.82813">
        <ele>1228</ele>
        <time>2021-08-04T08:11:42.822Z</time>
      </trkpt>
      <trkpt lat="46.98856" lon="8.82811">
        <ele>1227</ele>
        <time>2021-08-04T08:11:43.821Z</time>
      </trkpt>
      <trkpt lat="46.98856" lon="8.8281">
        <ele>1227</ele>
        <time>2021-08-04T08:11:44.822Z</time>
      </trkpt>
      <trkpt lat="46.98856" lon="8.82808">
        <ele>1227</ele>
        <time>2021-08-04T08:11:45.822Z</time>
      </trkpt>
      <trkpt lat="46.98857" lon="8.82808">
        <ele>1227</ele>
        <time>2021-08-04T08:11:46.822Z</time>
      </trkpt>
      <trkpt lat="46.98858" lon="8.82808">
        <ele>1226</ele>
        <time>2021-08-04T08:11:47.822Z</time>
      </trkpt>
      <trkpt lat="46.98858" lon="8.82807">
        <ele>1226</ele>
        <time>2021-08-04T08:11:48.822Z</time>
      </trkpt>
      <trkpt lat="46.98859" lon="8.82805">
        <ele>1226</ele>
        <time>2021-08-04T08:11:49.822Z</time>
      </trkpt>
      <trkpt lat="46.9886" lon="8.82804">
        <ele>1226</ele>
        <time>2021-08-04T08:11:50.822Z</time>
      </trkpt>
      <trkpt lat="46.9886" lon="8.82803">
        <ele>1225</ele>
        <time>2021-08-04T08:11:51.821Z</time>
      </trkpt>
      <trkpt lat="46.9886" lon="8.82801">
        <ele>1225</ele>
        <time>2021-08-04T08:11:52.822Z</time>
      </trkpt>
      <trkpt lat="46.98861" lon="8.82799">
        <ele>1225</ele>
        <time>2021-08-04T08:11:53.822Z</time>
      </trkpt>
      <trkpt lat="46.98861" lon="8.82798">
        <ele>1225</ele>
        <time>2021-08-04T08:11:54.822Z</time>
      </trkpt>
      <trkpt lat="46.98861" lon="8.82796">
        <ele>1225</ele>
        <time>2021-08-04T08:11:55.822Z</time>
      </trkpt>
      <trkpt lat="46.98861" lon="8.82794">
        <ele>1225</ele>
        <time>2021-08-04T08:11:56.821Z</time>
      </trkpt>
      <trkpt lat="46.98862" lon="8.82793">
        <ele>1224</ele>
        <time>2021-08-04T08:11:57.822Z</time>
      </trkpt>
      <trkpt lat="46.98863" lon="8.82792">
        <ele>1225</ele>
        <time>2021-08-04T08:11:58.822Z</time>
      </trkpt>
      <trkpt lat="46.98864" lon="8.8279">
        <ele>1225</ele>
        <time>2021-08-04T08:11:59.821Z</time>
      </trkpt>
      <trkpt lat="46.98864" lon="8.82789">
        <ele>1225</ele>
        <time>2021-08-04T08:12:00.822Z</time>
      </trkpt>
      <trkpt lat="46.98864" lon="8.82787">
        <ele>1225</ele>
        <time>2021-08-04T08:12:01.821Z</time>
      </trkpt>
      <trkpt lat="46.98864" lon="8.82786">
        <ele>1224</ele>
        <time>2021-08-04T08:12:02.822Z</time>
      </trkpt>
      <trkpt lat="46.98864" lon="8.82784">
        <ele>1224</ele>
        <time>2021-08-04T08:12:03.822Z</time>
      </trkpt>
      <trkpt lat="46.98865" lon="8.82782">
        <ele>1224</ele>
        <time>2021-08-04T08:12:04.822Z</time>
      </trkpt>
      <trkpt lat="46.98865" lon="8.82781">
        <ele>1224</ele>
        <time>2021-08-04T08:12:05.821Z</time>
      </trkpt>
      <trkpt lat="46.98865" lon="8.82779">
        <ele>1224</ele>
        <time>2021-08-04T08:12:06.822Z</time>
      </trkpt>
      <trkpt lat="46.98865" lon="8.82777">
        <ele>1224</ele>
        <time>2021-08-04T08:12:07.822Z</time>
      </trkpt>
      <trkpt lat="46.98865" lon="8.82775">
        <ele>1224</ele>
        <time>2021-08-04T08:12:08.821Z</time>
      </trkpt>
      <trkpt lat="46.98865" lon="8.82774">
        <ele>1225</ele>
        <time>2021-08-04T08:12:09.822Z</time>
      </trkpt>
      <trkpt lat="46.98866" lon="8.82772">
        <ele>1225</ele>
        <time>2021-08-04T08:12:10.822Z</time>
      </trkpt>
      <trkpt lat="46.98867" lon="8.8277">
        <ele>1225</ele>
        <time>2021-08-04T08:12:11.822Z</time>
      </trkpt>
      <trkpt lat="46.98868" lon="8.82768">
        <ele>1224</ele>
        <time>2021-08-04T08:12:12.821Z</time>
      </trkpt>
      <trkpt lat="46.98868" lon="8.82766">
        <ele>1224</ele>
        <time>2021-08-04T08:12:13.822Z</time>
      </trkpt>
      <trkpt lat="46.98869" lon="8.82764">
        <ele>1224</ele>
        <time>2021-08-04T08:12:14.822Z</time>
      </trkpt>
      <trkpt lat="46.98869" lon="8.82761">
        <ele>1224</ele>
        <time>2021-08-04T08:12:15.822Z</time>
      </trkpt>
      <trkpt lat="46.9887" lon="8.82759">
        <ele>1223</ele>
        <time>2021-08-04T08:12:16.821Z</time>
      </trkpt>
      <trkpt lat="46.98871" lon="8.82757">
        <ele>1223</ele>
        <time>2021-08-04T08:12:17.821Z</time>
      </trkpt>
      <trkpt lat="46.98872" lon="8.82755">
        <ele>1223</ele>
        <time>2021-08-04T08:12:18.822Z</time>
      </trkpt>
      <trkpt lat="46.98873" lon="8.82752">
        <ele>1223</ele>
        <time>2021-08-04T08:12:19.822Z</time>
      </trkpt>
      <trkpt lat="46.98873" lon="8.82749">
        <ele>1223</ele>
        <time>2021-08-04T08:12:20.822Z</time>
      </trkpt>
      <trkpt lat="46.98873" lon="8.82748">
        <ele>1223</ele>
        <time>2021-08-04T08:12:21.822Z</time>
      </trkpt>
      <trkpt lat="46.98873" lon="8.82746">
        <ele>1223</ele>
        <time>2021-08-04T08:12:22.822Z</time>
      </trkpt>
      <trkpt lat="46.98872" lon="8.82744">
        <ele>1222</ele>
        <time>2021-08-04T08:12:23.822Z</time>
      </trkpt>
      <trkpt lat="46.98872" lon="8.82742">
        <ele>1222</ele>
        <time>2021-08-04T08:12:24.821Z</time>
      </trkpt>
      <trkpt lat="46.98871" lon="8.82741">
        <ele>1222</ele>
        <time>2021-08-04T08:12:25.822Z</time>
      </trkpt>
      <trkpt lat="46.9887" lon="8.82739">
        <ele>1221</ele>
        <time>2021-08-04T08:12:26.822Z</time>
      </trkpt>
      <trkpt lat="46.98871" lon="8.82738">
        <ele>1221</ele>
        <time>2021-08-04T08:12:27.821Z</time>
      </trkpt>
      <trkpt lat="46.9887" lon="8.82737">
        <ele>1221</ele>
        <time>2021-08-04T08:12:28.822Z</time>
      </trkpt>
      <trkpt lat="46.9887" lon="8.82736">
        <ele>1220</ele>
        <time>2021-08-04T08:12:29.822Z</time>
      </trkpt>
      <trkpt lat="46.9887" lon="8.82735">
        <ele>1220</ele>
        <time>2021-08-04T08:12:30.822Z</time>
      </trkpt>
      <trkpt lat="46.9887" lon="8.82734">
        <ele>1219</ele>
        <time>2021-08-04T08:12:31.822Z</time>
      </trkpt>
      <trkpt lat="46.9887" lon="8.82732">
        <ele>1218</ele>
        <time>2021-08-04T08:12:32.821Z</time>
      </trkpt>
      <trkpt lat="46.98871" lon="8.82731">
        <ele>1218</ele>
        <time>2021-08-04T08:12:33.821Z</time>
      </trkpt>
      <trkpt lat="46.98871" lon="8.82731">
        <ele>1217</ele>
        <time>2021-08-04T08:12:34.822Z</time>
      </trkpt>
      <trkpt lat="46.98871" lon="8.8273">
        <ele>1217</ele>
        <time>2021-08-04T08:12:35.822Z</time>
      </trkpt>
      <trkpt lat="46.98871" lon="8.82729">
        <ele>1217</ele>
        <time>2021-08-04T08:12:36.822Z</time>
      </trkpt>
      <trkpt lat="46.98871" lon="8.82727">
        <ele>1217</ele>
        <time>2021-08-04T08:12:37.822Z</time>
      </trkpt>
      <trkpt lat="46.98872" lon="8.82726">
        <ele>1216</ele>
        <time>2021-08-04T08:12:38.822Z</time>
      </trkpt>
      <trkpt lat="46.98872" lon="8.82725">
        <ele>1216</ele>
        <time>2021-08-04T08:12:39.821Z</time>
      </trkpt>
      <trkpt lat="46.98872" lon="8.82724">
        <ele>1216</ele>
        <time>2021-08-04T08:12:40.822Z</time>
      </trkpt>
      <trkpt lat="46.98871" lon="8.82723">
        <ele>1216</ele>
        <time>2021-08-04T08:12:41.822Z</time>
      </trkpt>
      <trkpt lat="46.98871" lon="8.82723">
        <ele>1216</ele>
        <time>2021-08-04T08:12:42.821Z</time>
      </trkpt>
      <trkpt lat="46.98871" lon="8.82722">
        <ele>1216</ele>
        <time>2021-08-04T08:12:43.822Z</time>
      </trkpt>
      <trkpt lat="46.98871" lon="8.82721">
        <ele>1216</ele>
        <time>2021-08-04T08:12:44.822Z</time>
      </trkpt>
      <trkpt lat="46.98871" lon="8.8272">
        <ele>1216</ele>
        <time>2021-08-04T08:12:45.822Z</time>
      </trkpt>
      <trkpt lat="46.98871" lon="8.82719">
        <ele>1216</ele>
        <time>2021-08-04T08:12:46.822Z</time>
      </trkpt>
      <trkpt lat="46.98871" lon="8.82718">
        <ele>1216</ele>
        <time>2021-08-04T08:12:47.821Z</time>
      </trkpt>
      <trkpt lat="46.9887" lon="8.82717">
        <ele>1216</ele>
        <time>2021-08-04T08:12:48.822Z</time>
      </trkpt>
      <trkpt lat="46.9887" lon="8.82716">
        <ele>1216</ele>
        <time>2021-08-04T08:12:49.822Z</time>
      </trkpt>
      <trkpt lat="46.9887" lon="8.82714">
        <ele>1215</ele>
        <time>2021-08-04T08:12:50.822Z</time>
      </trkpt>
      <trkpt lat="46.98871" lon="8.82713">
        <ele>1215</ele>
        <time>2021-08-04T08:12:51.821Z</time>
      </trkpt>
      <trkpt lat="46.98871" lon="8.82711">
        <ele>1214</ele>
        <time>2021-08-04T08:12:52.822Z</time>
      </trkpt>
      <trkpt lat="46.98871" lon="8.8271">
        <ele>1214</ele>
        <time>2021-08-04T08:12:53.821Z</time>
      </trkpt>
      <trkpt lat="46.98871" lon="8.82708">
        <ele>1214</ele>
        <time>2021-08-04T08:12:54.822Z</time>
      </trkpt>
      <trkpt lat="46.9887" lon="8.82706">
        <ele>1213</ele>
        <time>2021-08-04T08:12:55.822Z</time>
      </trkpt>
      <trkpt lat="46.98869" lon="8.82704">
        <ele>1213</ele>
        <time>2021-08-04T08:12:56.822Z</time>
      </trkpt>
      <trkpt lat="46.98869" lon="8.82701">
        <ele>1213</ele>
        <time>2021-08-04T08:12:57.821Z</time>
      </trkpt>
      <trkpt lat="46.98868" lon="8.82698">
        <ele>1213</ele>
        <time>2021-08-04T08:12:58.822Z</time>
      </trkpt>
      <trkpt lat="46.98869" lon="8.82696">
        <ele>1213</ele>
        <time>2021-08-04T08:12:59.821Z</time>
      </trkpt>
      <trkpt lat="46.98869" lon="8.82694">
        <ele>1213</ele>
        <time>2021-08-04T08:13:00.822Z</time>
      </trkpt>
      <trkpt lat="46.98869" lon="8.82692">
        <ele>1213</ele>
        <time>2021-08-04T08:13:01.822Z</time>
      </trkpt>
      <trkpt lat="46.98869" lon="8.82689">
        <ele>1213</ele>
        <time>2021-08-04T08:13:02.822Z</time>
      </trkpt>
      <trkpt lat="46.98868" lon="8.82687">
        <ele>1212</ele>
        <time>2021-08-04T08:13:03.821Z</time>
      </trkpt>
      <trkpt lat="46.98867" lon="8.82685">
        <ele>1212</ele>
        <time>2021-08-04T08:13:04.822Z</time>
      </trkpt>
      <trkpt lat="46.98866" lon="8.82683">
        <ele>1212</ele>
        <time>2021-08-04T08:13:05.822Z</time>
      </trkpt>
      <trkpt lat="46.98865" lon="8.82681">
        <ele>1211</ele>
        <time>2021-08-04T08:13:06.822Z</time>
      </trkpt>
      <trkpt lat="46.98864" lon="8.8268">
        <ele>1211</ele>
        <time>2021-08-04T08:13:07.822Z</time>
      </trkpt>
      <trkpt lat="46.98864" lon="8.82679">
        <ele>1211</ele>
        <time>2021-08-04T08:13:08.822Z</time>
      </trkpt>
      <trkpt lat="46.98864" lon="8.82679">
        <ele>1211</ele>
        <time>2021-08-04T08:13:09.822Z</time>
      </trkpt>
      <trkpt lat="46.98864" lon="8.82678">
        <ele>1210</ele>
        <time>2021-08-04T08:13:10.821Z</time>
      </trkpt>
      <trkpt lat="46.98863" lon="8.82677">
        <ele>1210</ele>
        <time>2021-08-04T08:13:11.822Z</time>
      </trkpt>
      <trkpt lat="46.98863" lon="8.82674">
        <ele>1209</ele>
        <time>2021-08-04T08:13:12.822Z</time>
      </trkpt>
      <trkpt lat="46.98863" lon="8.82673">
        <ele>1209</ele>
        <time>2021-08-04T08:13:13.822Z</time>
      </trkpt>
      <trkpt lat="46.98863" lon="8.82672">
        <ele>1208</ele>
        <time>2021-08-04T08:13:14.821Z</time>
      </trkpt>
      <trkpt lat="46.98864" lon="8.82671">
        <ele>1208</ele>
        <time>2021-08-04T08:13:15.821Z</time>
      </trkpt>
      <trkpt lat="46.98864" lon="8.82669">
        <ele>1208</ele>
        <time>2021-08-04T08:13:16.822Z</time>
      </trkpt>
      <trkpt lat="46.98865" lon="8.82667">
        <ele>1207</ele>
        <time>2021-08-04T08:13:17.822Z</time>
      </trkpt>
      <trkpt lat="46.98864" lon="8.82665">
        <ele>1207</ele>
        <time>2021-08-04T08:13:18.822Z</time>
      </trkpt>
      <trkpt lat="46.98864" lon="8.82662">
        <ele>1207</ele>
        <time>2021-08-04T08:13:19.822Z</time>
      </trkpt>
      <trkpt lat="46.98863" lon="8.82659">
        <ele>1207</ele>
        <time>2021-08-04T08:13:20.822Z</time>
      </trkpt>
      <trkpt lat="46.98863" lon="8.82658">
        <ele>1206</ele>
        <time>2021-08-04T08:13:21.821Z</time>
      </trkpt>
      <trkpt lat="46.98863" lon="8.82657">
        <ele>1206</ele>
        <time>2021-08-04T08:13:22.821Z</time>
      </trkpt>
      <trkpt lat="46.98863" lon="8.82656">
        <ele>1206</ele>
        <time>2021-08-04T08:13:23.822Z</time>
      </trkpt>
      <trkpt lat="46.98863" lon="8.82654">
        <ele>1206</ele>
        <time>2021-08-04T08:13:24.822Z</time>
      </trkpt>
      <trkpt lat="46.98862" lon="8.82653">
        <ele>1206</ele>
        <time>2021-08-04T08:13:25.821Z</time>
      </trkpt>
      <trkpt lat="46.98862" lon="8.82652">
        <ele>1207</ele>
        <time>2021-08-04T08:13:26.822Z</time>
      </trkpt>
      <trkpt lat="46.98862" lon="8.82651">
        <ele>1207</ele>
        <time>2021-08-04T08:13:27.822Z</time>
      </trkpt>
      <trkpt lat="46.98862" lon="8.82649">
        <ele>1207</ele>
        <time>2021-08-04T08:13:28.822Z</time>
      </trkpt>
      <trkpt lat="46.98862" lon="8.82648">
        <ele>1207</ele>
        <time>2021-08-04T08:13:29.822Z</time>
      </trkpt>
      <trkpt lat="46.98861" lon="8.82647">
        <ele>1208</ele>
        <time>2021-08-04T08:13:30.821Z</time>
      </trkpt>
      <trkpt lat="46.98861" lon="8.82646">
        <ele>1208</ele>
        <time>2021-08-04T08:13:31.822Z</time>
      </trkpt>
      <trkpt lat="46.9886" lon="8.82645">
        <ele>1208</ele>
        <time>2021-08-04T08:13:32.822Z</time>
      </trkpt>
      <trkpt lat="46.9886" lon="8.82644">
        <ele>1209</ele>
        <time>2021-08-04T08:13:33.822Z</time>
      </trkpt>
      <trkpt lat="46.98859" lon="8.82644">
        <ele>1209</ele>
        <time>2021-08-04T08:13:34.821Z</time>
      </trkpt>
      <trkpt lat="46.98859" lon="8.82642">
        <ele>1209</ele>
        <time>2021-08-04T08:13:35.823Z</time>
      </trkpt>
      <trkpt lat="46.98858" lon="8.8264">
        <ele>1209</ele>
        <time>2021-08-04T08:13:36.823Z</time>
      </trkpt>
      <trkpt lat="46.98857" lon="8.82638">
        <ele>1208</ele>
        <time>2021-08-04T08:13:37.822Z</time>
      </trkpt>
      <trkpt lat="46.98857" lon="8.82637">
        <ele>1208</ele>
        <time>2021-08-04T08:13:38.822Z</time>
      </trkpt>
      <trkpt lat="46.98857" lon="8.82635">
        <ele>1208</ele>
        <time>2021-08-04T08:13:39.823Z</time>
      </trkpt>
      <trkpt lat="46.98856" lon="8.82632">
        <ele>1207</ele>
        <time>2021-08-04T08:13:40.822Z</time>
      </trkpt>
      <trkpt lat="46.98855" lon="8.8263">
        <ele>1207</ele>
        <time>2021-08-04T08:13:41.823Z</time>
      </trkpt>
      <trkpt lat="46.98853" lon="8.82627">
        <ele>1206</ele>
        <time>2021-08-04T08:13:42.823Z</time>
      </trkpt>
      <trkpt lat="46.98852" lon="8.82625">
        <ele>1206</ele>
        <time>2021-08-04T08:13:43.823Z</time>
      </trkpt>
      <trkpt lat="46.98852" lon="8.82623">
        <ele>1205</ele>
        <time>2021-08-04T08:13:44.822Z</time>
      </trkpt>
      <trkpt lat="46.98851" lon="8.82621">
        <ele>1205</ele>
        <time>2021-08-04T08:13:45.822Z</time>
      </trkpt>
      <trkpt lat="46.9885" lon="8.82619">
        <ele>1204</ele>
        <time>2021-08-04T08:13:46.823Z</time>
      </trkpt>
      <trkpt lat="46.98849" lon="8.82618">
        <ele>1204</ele>
        <time>2021-08-04T08:13:47.823Z</time>
      </trkpt>
      <trkpt lat="46.98848" lon="8.82616">
        <ele>1203</ele>
        <time>2021-08-04T08:13:48.823Z</time>
      </trkpt>
      <trkpt lat="46.98847" lon="8.82614">
        <ele>1203</ele>
        <time>2021-08-04T08:13:49.823Z</time>
      </trkpt>
      <trkpt lat="46.98846" lon="8.82612">
        <ele>1203</ele>
        <time>2021-08-04T08:13:50.823Z</time>
      </trkpt>
      <trkpt lat="46.98846" lon="8.82611">
        <ele>1203</ele>
        <time>2021-08-04T08:13:51.823Z</time>
      </trkpt>
      <trkpt lat="46.98846" lon="8.82611">
        <ele>1203</ele>
        <time>2021-08-04T08:13:52.822Z</time>
      </trkpt>
      <trkpt lat="46.98847" lon="8.82611">
        <ele>1203</ele>
        <time>2021-08-04T08:13:53.822Z</time>
      </trkpt>
      <trkpt lat="46.98849" lon="8.82612">
        <ele>1203</ele>
        <time>2021-08-04T08:13:54.823Z</time>
      </trkpt>
      <trkpt lat="46.98849" lon="8.82613">
        <ele>1203</ele>
        <time>2021-08-04T08:13:55.823Z</time>
      </trkpt>
      <trkpt lat="46.98849" lon="8.82613">
        <ele>1203</ele>
        <time>2021-08-04T08:13:56.824Z</time>
      </trkpt>
      <trkpt lat="46.98849" lon="8.82612">
        <ele>1203</ele>
        <time>2021-08-04T08:13:57.823Z</time>
      </trkpt>
      <trkpt lat="46.98854" lon="8.8261">
        <ele>1208</ele>
        <time>2021-08-04T08:13:58.823Z</time>
      </trkpt>
      <trkpt lat="46.98854" lon="8.8261">
        <ele>1208</ele>
        <time>2021-08-04T08:13:59.824Z</time>
      </trkpt>
      <trkpt lat="46.98855" lon="8.82609">
        <ele>1209</ele>
        <time>2021-08-04T08:14:00.824Z</time>
      </trkpt>
      <trkpt lat="46.98855" lon="8.82607">
        <ele>1209</ele>
        <time>2021-08-04T08:14:01.823Z</time>
      </trkpt>
      <trkpt lat="46.98862" lon="8.82606">
        <ele>1213</ele>
        <time>2021-08-04T08:14:02.824Z</time>
      </trkpt>
      <trkpt lat="46.98863" lon="8.82606">
        <ele>1213</ele>
        <time>2021-08-04T08:14:03.824Z</time>
      </trkpt>
      <trkpt lat="46.98864" lon="8.82606">
        <ele>1212</ele>
        <time>2021-08-04T08:14:04.823Z</time>
      </trkpt>
      <trkpt lat="46.98863" lon="8.82605">
        <ele>1212</ele>
        <time>2021-08-04T08:14:05.823Z</time>
      </trkpt>
      <trkpt lat="46.98862" lon="8.82604">
        <ele>1212</ele>
        <time>2021-08-04T08:14:06.824Z</time>
      </trkpt>
      <trkpt lat="46.98862" lon="8.82603">
        <ele>1212</ele>
        <time>2021-08-04T08:14:07.824Z</time>
      </trkpt>
      <trkpt lat="46.98861" lon="8.82603">
        <ele>1212</ele>
        <time>2021-08-04T08:14:08.824Z</time>
      </trkpt>
      <trkpt lat="46.9886" lon="8.82602">
        <ele>1212</ele>
        <time>2021-08-04T08:14:09.823Z</time>
      </trkpt>
      <trkpt lat="46.9886" lon="8.82601">
        <ele>1212</ele>
        <time>2021-08-04T08:14:10.823Z</time>
      </trkpt>
      <trkpt lat="46.98859" lon="8.826">
        <ele>1212</ele>
        <time>2021-08-04T08:14:11.823Z</time>
      </trkpt>
      <trkpt lat="46.98859" lon="8.82598">
        <ele>1212</ele>
        <time>2021-08-04T08:14:12.824Z</time>
      </trkpt>
      <trkpt lat="46.98859" lon="8.82597">
        <ele>1211</ele>
        <time>2021-08-04T08:14:13.823Z</time>
      </trkpt>
      <trkpt lat="46.98859" lon="8.82596">
        <ele>1211</ele>
        <time>2021-08-04T08:14:14.824Z</time>
      </trkpt>
      <trkpt lat="46.98859" lon="8.82595">
        <ele>1211</ele>
        <time>2021-08-04T08:14:15.824Z</time>
      </trkpt>
      <trkpt lat="46.98859" lon="8.82594">
        <ele>1211</ele>
        <time>2021-08-04T08:14:16.824Z</time>
      </trkpt>
      <trkpt lat="46.98858" lon="8.82593">
        <ele>1211</ele>
        <time>2021-08-04T08:14:17.823Z</time>
      </trkpt>
      <trkpt lat="46.98858" lon="8.82592">
        <ele>1210</ele>
        <time>2021-08-04T08:14:18.823Z</time>
      </trkpt>
      <trkpt lat="46.98857" lon="8.8259">
        <ele>1210</ele>
        <time>2021-08-04T08:14:19.824Z</time>
      </trkpt>
      <trkpt lat="46.98856" lon="8.82587">
        <ele>1210</ele>
        <time>2021-08-04T08:14:20.824Z</time>
      </trkpt>
      <trkpt lat="46.98856" lon="8.82585">
        <ele>1210</ele>
        <time>2021-08-04T08:14:21.823Z</time>
      </trkpt>
      <trkpt lat="46.98856" lon="8.82584">
        <ele>1210</ele>
        <time>2021-08-04T08:14:22.824Z</time>
      </trkpt>
      <trkpt lat="46.98856" lon="8.82583">
        <ele>1210</ele>
        <time>2021-08-04T08:14:23.823Z</time>
      </trkpt>
      <trkpt lat="46.98856" lon="8.82583">
        <ele>1209</ele>
        <time>2021-08-04T08:14:24.824Z</time>
      </trkpt>
      <trkpt lat="46.98856" lon="8.82582">
        <ele>1209</ele>
        <time>2021-08-04T08:14:25.824Z</time>
      </trkpt>
      <trkpt lat="46.98855" lon="8.82581">
        <ele>1209</ele>
        <time>2021-08-04T08:14:26.823Z</time>
      </trkpt>
      <trkpt lat="46.98855" lon="8.8258">
        <ele>1208</ele>
        <time>2021-08-04T08:14:27.824Z</time>
      </trkpt>
      <trkpt lat="46.98855" lon="8.82579">
        <ele>1208</ele>
        <time>2021-08-04T08:14:28.824Z</time>
      </trkpt>
      <trkpt lat="46.98856" lon="8.82579">
        <ele>1207</ele>
        <time>2021-08-04T08:14:29.824Z</time>
      </trkpt>
      <trkpt lat="46.98856" lon="8.82579">
        <ele>1207</ele>
        <time>2021-08-04T08:14:30.824Z</time>
      </trkpt>
      <trkpt lat="46.98856" lon="8.82578">
        <ele>1206</ele>
        <time>2021-08-04T08:14:31.824Z</time>
      </trkpt>
      <trkpt lat="46.98855" lon="8.82578">
        <ele>1206</ele>
        <time>2021-08-04T08:14:32.823Z</time>
      </trkpt>
      <trkpt lat="46.98854" lon="8.82577">
        <ele>1206</ele>
        <time>2021-08-04T08:14:33.823Z</time>
      </trkpt>
      <trkpt lat="46.98852" lon="8.82575">
        <ele>1209</ele>
        <time>2021-08-04T08:14:34.823Z</time>
      </trkpt>
      <trkpt lat="46.98851" lon="8.82575">
        <ele>1210</ele>
        <time>2021-08-04T08:14:35.824Z</time>
      </trkpt>
      <trkpt lat="46.9885" lon="8.82574">
        <ele>1211</ele>
        <time>2021-08-04T08:14:36.824Z</time>
      </trkpt>
      <trkpt lat="46.98849" lon="8.82575">
        <ele>1212</ele>
        <time>2021-08-04T08:14:37.824Z</time>
      </trkpt>
      <trkpt lat="46.9885" lon="8.82575">
        <ele>1213</ele>
        <time>2021-08-04T08:14:38.824Z</time>
      </trkpt>
      <trkpt lat="46.9885" lon="8.82575">
        <ele>1214</ele>
        <time>2021-08-04T08:14:39.823Z</time>
      </trkpt>
      <trkpt lat="46.9885" lon="8.82575">
        <ele>1214</ele>
        <time>2021-08-04T08:14:40.824Z</time>
      </trkpt>
      <trkpt lat="46.98849" lon="8.82578">
        <ele>1214</ele>
        <time>2021-08-04T08:14:41.825Z</time>
      </trkpt>
      <trkpt lat="46.98848" lon="8.8258">
        <ele>1215</ele>
        <time>2021-08-04T08:14:42.825Z</time>
      </trkpt>
      <trkpt lat="46.98848" lon="8.82582">
        <ele>1215</ele>
        <time>2021-08-04T08:14:43.824Z</time>
      </trkpt>
      <trkpt lat="46.98848" lon="8.82583">
        <ele>1215</ele>
        <time>2021-08-04T08:14:44.824Z</time>
      </trkpt>
      <trkpt lat="46.98848" lon="8.82585">
        <ele>1215</ele>
        <time>2021-08-04T08:14:45.825Z</time>
      </trkpt>
      <trkpt lat="46.98848" lon="8.82585">
        <ele>1215</ele>
        <time>2021-08-04T08:14:46.824Z</time>
      </trkpt>
      <trkpt lat="46.98848" lon="8.82585">
        <ele>1215</ele>
        <time>2021-08-04T08:14:47.824Z</time>
      </trkpt>
      <trkpt lat="46.98849" lon="8.82586">
        <ele>1215</ele>
        <time>2021-08-04T08:14:48.824Z</time>
      </trkpt>
      <trkpt lat="46.98848" lon="8.82586">
        <ele>1214</ele>
        <time>2021-08-04T08:14:49.824Z</time>
      </trkpt>
      <trkpt lat="46.98847" lon="8.82586">
        <ele>1214</ele>
        <time>2021-08-04T08:14:50.825Z</time>
      </trkpt>
      <trkpt lat="46.98847" lon="8.82587">
        <ele>1214</ele>
        <time>2021-08-04T08:14:51.824Z</time>
      </trkpt>
      <trkpt lat="46.98847" lon="8.82587">
        <ele>1213</ele>
        <time>2021-08-04T08:14:52.824Z</time>
      </trkpt>
      <trkpt lat="46.98847" lon="8.82588">
        <ele>1213</ele>
        <time>2021-08-04T08:14:53.825Z</time>
      </trkpt>
      <trkpt lat="46.98847" lon="8.82588">
        <ele>1213</ele>
        <time>2021-08-04T08:14:54.824Z</time>
      </trkpt>
      <trkpt lat="46.98848" lon="8.82588">
        <ele>1212</ele>
        <time>2021-08-04T08:14:55.824Z</time>
      </trkpt>
      <trkpt lat="46.98848" lon="8.82589">
        <ele>1212</ele>
        <time>2021-08-04T08:14:56.824Z</time>
      </trkpt>
      <trkpt lat="46.98849" lon="8.8259">
        <ele>1212</ele>
        <time>2021-08-04T08:14:57.825Z</time>
      </trkpt>
      <trkpt lat="46.98849" lon="8.82589">
        <ele>1213</ele>
        <time>2021-08-04T08:14:58.824Z</time>
      </trkpt>
      <trkpt lat="46.98848" lon="8.82588">
        <ele>1214</ele>
        <time>2021-08-04T08:14:59.824Z</time>
      </trkpt>
      <trkpt lat="46.98848" lon="8.82588">
        <ele>1214</ele>
        <time>2021-08-04T08:15:00.824Z</time>
      </trkpt>
      <trkpt lat="46.98847" lon="8.82588">
        <ele>1215</ele>
        <time>2021-08-04T08:15:01.824Z</time>
      </trkpt>
      <trkpt lat="46.98846" lon="8.82588">
        <ele>1221</ele>
        <time>2021-08-04T08:15:02.826Z</time>
      </trkpt>
      <trkpt lat="46.98846" lon="8.82588">
        <ele>1222</ele>
        <time>2021-08-04T08:15:03.825Z</time>
      </trkpt>
      <trkpt lat="46.98845" lon="8.82587">
        <ele>1222</ele>
        <time>2021-08-04T08:15:04.825Z</time>
      </trkpt>
      <trkpt lat="46.98845" lon="8.82587">
        <ele>1223</ele>
        <time>2021-08-04T08:15:05.826Z</time>
      </trkpt>
      <trkpt lat="46.98844" lon="8.82588">
        <ele>1224</ele>
        <time>2021-08-04T08:15:06.826Z</time>
      </trkpt>
      <trkpt lat="46.98844" lon="8.8259">
        <ele>1224</ele>
        <time>2021-08-04T08:15:07.827Z</time>
      </trkpt>
      <trkpt lat="46.98844" lon="8.8259">
        <ele>1224</ele>
        <time>2021-08-04T08:15:08.827Z</time>
      </trkpt>
      <trkpt lat="46.98844" lon="8.82587">
        <ele>1229</ele>
        <time>2021-08-04T08:15:09.826Z</time>
      </trkpt>
      <trkpt lat="46.98845" lon="8.82587">
        <ele>1229</ele>
        <time>2021-08-04T08:15:10.826Z</time>
      </trkpt>
      <trkpt lat="46.98846" lon="8.82587">
        <ele>1229</ele>
        <time>2021-08-04T08:15:11.826Z</time>
      </trkpt>
      <trkpt lat="46.98846" lon="8.82587">
        <ele>1228</ele>
        <time>2021-08-04T08:15:12.827Z</time>
      </trkpt>
      <trkpt lat="46.98847" lon="8.82588">
        <ele>1228</ele>
        <time>2021-08-04T08:15:13.827Z</time>
      </trkpt>
      <trkpt lat="46.98848" lon="8.82588">
        <ele>1228</ele>
        <time>2021-08-04T08:15:14.827Z</time>
      </trkpt>
      <trkpt lat="46.98849" lon="8.82589">
        <ele>1227</ele>
        <time>2021-08-04T08:15:15.827Z</time>
      </trkpt>
      <trkpt lat="46.9885" lon="8.82589">
        <ele>1227</ele>
        <time>2021-08-04T08:15:16.827Z</time>
      </trkpt>
      <trkpt lat="46.9885" lon="8.8259">
        <ele>1227</ele>
        <time>2021-08-04T08:15:17.827Z</time>
      </trkpt>
      <trkpt lat="46.98851" lon="8.8259">
        <ele>1226</ele>
        <time>2021-08-04T08:15:18.826Z</time>
      </trkpt>
      <trkpt lat="46.98851" lon="8.8259">
        <ele>1226</ele>
        <time>2021-08-04T08:15:19.827Z</time>
      </trkpt>
      <trkpt lat="46.98851" lon="8.8259">
        <ele>1226</ele>
        <time>2021-08-04T08:15:20.827Z</time>
      </trkpt>
      <trkpt lat="46.98851" lon="8.82592">
        <ele>1226</ele>
        <time>2021-08-04T08:15:21.827Z</time>
      </trkpt>
      <trkpt lat="46.98852" lon="8.82592">
        <ele>1226</ele>
        <time>2021-08-04T08:15:22.827Z</time>
      </trkpt>
      <trkpt lat="46.98852" lon="8.82592">
        <ele>1225</ele>
        <time>2021-08-04T08:15:23.827Z</time>
      </trkpt>
      <trkpt lat="46.98853" lon="8.82591">
        <ele>1224</ele>
        <time>2021-08-04T08:15:24.827Z</time>
      </trkpt>
      <trkpt lat="46.98854" lon="8.82591">
        <ele>1223</ele>
        <time>2021-08-04T08:15:25.827Z</time>
      </trkpt>
      <trkpt lat="46.98855" lon="8.8259">
        <ele>1223</ele>
        <time>2021-08-04T08:15:26.826Z</time>
      </trkpt>
      <trkpt lat="46.98855" lon="8.8259">
        <ele>1222</ele>
        <time>2021-08-04T08:15:27.827Z</time>
      </trkpt>
      <trkpt lat="46.98856" lon="8.8259">
        <ele>1221</ele>
        <time>2021-08-04T08:15:28.826Z</time>
      </trkpt>
      <trkpt lat="46.98857" lon="8.82589">
        <ele>1220</ele>
        <time>2021-08-04T08:15:29.827Z</time>
      </trkpt>
      <trkpt lat="46.98857" lon="8.82589">
        <ele>1219</ele>
        <time>2021-08-04T08:15:30.826Z</time>
      </trkpt>
      <trkpt lat="46.98858" lon="8.82589">
        <ele>1219</ele>
        <time>2021-08-04T08:15:31.826Z</time>
      </trkpt>
      <trkpt lat="46.98859" lon="8.82589">
        <ele>1218</ele>
        <time>2021-08-04T08:15:32.827Z</time>
      </trkpt>
      <trkpt lat="46.9886" lon="8.82588">
        <ele>1217</ele>
        <time>2021-08-04T08:15:33.827Z</time>
      </trkpt>
      <trkpt lat="46.98861" lon="8.82588">
        <ele>1217</ele>
        <time>2021-08-04T08:15:34.827Z</time>
      </trkpt>
      <trkpt lat="46.98861" lon="8.82588">
        <ele>1216</ele>
        <time>2021-08-04T08:15:35.827Z</time>
      </trkpt>
      <trkpt lat="46.98863" lon="8.82588">
        <ele>1216</ele>
        <time>2021-08-04T08:15:36.826Z</time>
      </trkpt>
      <trkpt lat="46.98863" lon="8.82588">
        <ele>1216</ele>
        <time>2021-08-04T08:15:37.826Z</time>
      </trkpt>
      <trkpt lat="46.98865" lon="8.82588">
        <ele>1215</ele>
        <time>2021-08-04T08:15:38.827Z</time>
      </trkpt>
      <trkpt lat="46.98866" lon="8.82589">
        <ele>1215</ele>
        <time>2021-08-04T08:15:39.827Z</time>
      </trkpt>
      <trkpt lat="46.98867" lon="8.82589">
        <ele>1215</ele>
        <time>2021-08-04T08:15:40.826Z</time>
      </trkpt>
      <trkpt lat="46.98868" lon="8.8259">
        <ele>1215</ele>
        <time>2021-08-04T08:15:41.826Z</time>
      </trkpt>
      <trkpt lat="46.98869" lon="8.82591">
        <ele>1215</ele>
        <time>2021-08-04T08:15:42.826Z</time>
      </trkpt>
      <trkpt lat="46.9887" lon="8.82593">
        <ele>1214</ele>
        <time>2021-08-04T08:15:43.827Z</time>
      </trkpt>
      <trkpt lat="46.98871" lon="8.82595">
        <ele>1214</ele>
        <time>2021-08-04T08:15:44.827Z</time>
      </trkpt>
      <trkpt lat="46.98872" lon="8.82596">
        <ele>1214</ele>
        <time>2021-08-04T08:15:45.827Z</time>
      </trkpt>
      <trkpt lat="46.98873" lon="8.82596">
        <ele>1213</ele>
        <time>2021-08-04T08:15:46.827Z</time>
      </trkpt>
      <trkpt lat="46.98875" lon="8.82598">
        <ele>1213</ele>
        <time>2021-08-04T08:15:47.827Z</time>
      </trkpt>
      <trkpt lat="46.98876" lon="8.82599">
        <ele>1213</ele>
        <time>2021-08-04T08:15:48.827Z</time>
      </trkpt>
      <trkpt lat="46.98877" lon="8.82601">
        <ele>1212</ele>
        <time>2021-08-04T08:15:49.827Z</time>
      </trkpt>
      <trkpt lat="46.98878" lon="8.82601">
        <ele>1212</ele>
        <time>2021-08-04T08:15:50.827Z</time>
      </trkpt>
      <trkpt lat="46.98879" lon="8.82602">
        <ele>1212</ele>
        <time>2021-08-04T08:15:51.827Z</time>
      </trkpt>
      <trkpt lat="46.9888" lon="8.82603">
        <ele>1212</ele>
        <time>2021-08-04T08:15:52.826Z</time>
      </trkpt>
      <trkpt lat="46.98879" lon="8.82604">
        <ele>1212</ele>
        <time>2021-08-04T08:15:53.827Z</time>
      </trkpt>
      <trkpt lat="46.98879" lon="8.82605">
        <ele>1212</ele>
        <time>2021-08-04T08:15:54.827Z</time>
      </trkpt>
      <trkpt lat="46.98878" lon="8.82605">
        <ele>1212</ele>
        <time>2021-08-04T08:15:55.826Z</time>
      </trkpt>
      <trkpt lat="46.98878" lon="8.82606">
        <ele>1212</ele>
        <time>2021-08-04T08:15:56.827Z</time>
      </trkpt>
      <trkpt lat="46.98878" lon="8.82606">
        <ele>1211</ele>
        <time>2021-08-04T08:15:57.827Z</time>
      </trkpt>
      <trkpt lat="46.98878" lon="8.82607">
        <ele>1211</ele>
        <time>2021-08-04T08:15:58.827Z</time>
      </trkpt>
      <trkpt lat="46.98879" lon="8.82608">
        <ele>1211</ele>
        <time>2021-08-04T08:15:59.826Z</time>
      </trkpt>
      <trkpt lat="46.98879" lon="8.82609">
        <ele>1211</ele>
        <time>2021-08-04T08:16:00.827Z</time>
      </trkpt>
      <trkpt lat="46.98879" lon="8.8261">
        <ele>1210</ele>
        <time>2021-08-04T08:16:01.826Z</time>
      </trkpt>
      <trkpt lat="46.98879" lon="8.8261">
        <ele>1210</ele>
        <time>2021-08-04T08:16:02.827Z</time>
      </trkpt>
      <trkpt lat="46.98879" lon="8.8261">
        <ele>1210</ele>
        <time>2021-08-04T08:16:03.827Z</time>
      </trkpt>
      <trkpt lat="46.9888" lon="8.8261">
        <ele>1210</ele>
        <time>2021-08-04T08:16:04.829Z</time>
      </trkpt>
      <trkpt lat="46.9888" lon="8.8261">
        <ele>1211</ele>
        <time>2021-08-04T08:16:05.828Z</time>
      </trkpt>
      <trkpt lat="46.9888" lon="8.8261">
        <ele>1211</ele>
        <time>2021-08-04T08:16:06.829Z</time>
      </trkpt>
      <trkpt lat="46.98881" lon="8.8261">
        <ele>1212</ele>
        <time>2021-08-04T08:16:07.828Z</time>
      </trkpt>
      <trkpt lat="46.98882" lon="8.82609">
        <ele>1212</ele>
        <time>2021-08-04T08:16:08.828Z</time>
      </trkpt>
      <trkpt lat="46.98883" lon="8.82608">
        <ele>1212</ele>
        <time>2021-08-04T08:16:09.828Z</time>
      </trkpt>
      <trkpt lat="46.98884" lon="8.82607">
        <ele>1212</ele>
        <time>2021-08-04T08:16:10.828Z</time>
      </trkpt>
      <trkpt lat="46.98884" lon="8.82605">
        <ele>1212</ele>
        <time>2021-08-04T08:16:11.828Z</time>
      </trkpt>
      <trkpt lat="46.98885" lon="8.82604">
        <ele>1211</ele>
        <time>2021-08-04T08:16:12.828Z</time>
      </trkpt>
      <trkpt lat="46.98885" lon="8.82602">
        <ele>1210</ele>
        <time>2021-08-04T08:16:13.828Z</time>
      </trkpt>
      <trkpt lat="46.98885" lon="8.826">
        <ele>1209</ele>
        <time>2021-08-04T08:16:14.828Z</time>
      </trkpt>
      <trkpt lat="46.98885" lon="8.82599">
        <ele>1208</ele>
        <time>2021-08-04T08:16:15.828Z</time>
      </trkpt>
      <trkpt lat="46.98884" lon="8.82597">
        <ele>1207</ele>
        <time>2021-08-04T08:16:16.828Z</time>
      </trkpt>
      <trkpt lat="46.98884" lon="8.82597">
        <ele>1206</ele>
        <time>2021-08-04T08:16:17.828Z</time>
      </trkpt>
      <trkpt lat="46.98884" lon="8.82596">
        <ele>1205</ele>
        <time>2021-08-04T08:16:18.829Z</time>
      </trkpt>
      <trkpt lat="46.98884" lon="8.82595">
        <ele>1205</ele>
        <time>2021-08-04T08:16:19.828Z</time>
      </trkpt>
      <trkpt lat="46.98884" lon="8.82594">
        <ele>1204</ele>
        <time>2021-08-04T08:16:20.829Z</time>
      </trkpt>
      <trkpt lat="46.98885" lon="8.82593">
        <ele>1203</ele>
        <time>2021-08-04T08:16:21.828Z</time>
      </trkpt>
      <trkpt lat="46.98884" lon="8.82593">
        <ele>1203</ele>
        <time>2021-08-04T08:16:22.828Z</time>
      </trkpt>
      <trkpt lat="46.98884" lon="8.82592">
        <ele>1202</ele>
        <time>2021-08-04T08:16:23.828Z</time>
      </trkpt>
      <trkpt lat="46.98884" lon="8.8259">
        <ele>1201</ele>
        <time>2021-08-04T08:16:24.828Z</time>
      </trkpt>
      <trkpt lat="46.98884" lon="8.8259">
        <ele>1201</ele>
        <time>2021-08-04T08:16:25.829Z</time>
      </trkpt>
      <trkpt lat="46.98884" lon="8.82589">
        <ele>1201</ele>
        <time>2021-08-04T08:16:26.828Z</time>
      </trkpt>
      <trkpt lat="46.98884" lon="8.82588">
        <ele>1200</ele>
        <time>2021-08-04T08:16:27.828Z</time>
      </trkpt>
      <trkpt lat="46.98884" lon="8.82587">
        <ele>1200</ele>
        <time>2021-08-04T08:16:28.828Z</time>
      </trkpt>
      <trkpt lat="46.98884" lon="8.82587">
        <ele>1200</ele>
        <time>2021-08-04T08:16:29.828Z</time>
      </trkpt>
      <trkpt lat="46.98884" lon="8.82586">
        <ele>1200</ele>
        <time>2021-08-04T08:16:30.828Z</time>
      </trkpt>
      <trkpt lat="46.98884" lon="8.82585">
        <ele>1199</ele>
        <time>2021-08-04T08:16:31.828Z</time>
      </trkpt>
      <trkpt lat="46.98884" lon="8.82588">
        <ele>1198</ele>
        <time>2021-08-04T08:16:32.830Z</time>
      </trkpt>
      <trkpt lat="46.98883" lon="8.8259">
        <ele>1198</ele>
        <time>2021-08-04T08:16:33.829Z</time>
      </trkpt>
      <trkpt lat="46.98883" lon="8.82592">
        <ele>1198</ele>
        <time>2021-08-04T08:16:34.829Z</time>
      </trkpt>
      <trkpt lat="46.98883" lon="8.82594">
        <ele>1197</ele>
        <time>2021-08-04T08:16:35.829Z</time>
      </trkpt>
      <trkpt lat="46.98883" lon="8.82596">
        <ele>1197</ele>
        <time>2021-08-04T08:16:36.829Z</time>
      </trkpt>
      <trkpt lat="46.98883" lon="8.82597">
        <ele>1198</ele>
        <time>2021-08-04T08:16:37.829Z</time>
      </trkpt>
      <trkpt lat="46.98883" lon="8.82598">
        <ele>1198</ele>
        <time>2021-08-04T08:16:38.829Z</time>
      </trkpt>
      <trkpt lat="46.98884" lon="8.826">
        <ele>1199</ele>
        <time>2021-08-04T08:16:39.830Z</time>
      </trkpt>
      <trkpt lat="46.98884" lon="8.82601">
        <ele>1199</ele>
        <time>2021-08-04T08:16:40.829Z</time>
      </trkpt>
      <trkpt lat="46.98884" lon="8.82602">
        <ele>1199</ele>
        <time>2021-08-04T08:16:41.829Z</time>
      </trkpt>
      <trkpt lat="46.98884" lon="8.82602">
        <ele>1200</ele>
        <time>2021-08-04T08:16:42.829Z</time>
      </trkpt>
      <trkpt lat="46.98884" lon="8.82603">
        <ele>1201</ele>
        <time>2021-08-04T08:16:43.830Z</time>
      </trkpt>
      <trkpt lat="46.98884" lon="8.82603">
        <ele>1201</ele>
        <time>2021-08-04T08:16:44.830Z</time>
      </trkpt>
      <trkpt lat="46.98885" lon="8.82603">
        <ele>1202</ele>
        <time>2021-08-04T08:16:45.830Z</time>
      </trkpt>
      <trkpt lat="46.98885" lon="8.82604">
        <ele>1203</ele>
        <time>2021-08-04T08:16:46.830Z</time>
      </trkpt>
      <trkpt lat="46.98885" lon="8.82604">
        <ele>1205</ele>
        <time>2021-08-04T08:16:47.830Z</time>
      </trkpt>
      <trkpt lat="46.98885" lon="8.82605">
        <ele>1206</ele>
        <time>2021-08-04T08:16:48.830Z</time>
      </trkpt>
      <trkpt lat="46.98885" lon="8.82605">
        <ele>1207</ele>
        <time>2021-08-04T08:16:49.830Z</time>
      </trkpt>
      <trkpt lat="46.98885" lon="8.82605">
        <ele>1208</ele>
        <time>2021-08-04T08:16:50.830Z</time>
      </trkpt>
      <trkpt lat="46.98885" lon="8.82607">
        <ele>1212</ele>
        <time>2021-08-04T08:16:51.831Z</time>
      </trkpt>
      <trkpt lat="46.98885" lon="8.82608">
        <ele>1213</ele>
        <time>2021-08-04T08:16:52.831Z</time>
      </trkpt>
      <trkpt lat="46.98886" lon="8.82608">
        <ele>1215</ele>
        <time>2021-08-04T08:16:53.830Z</time>
      </trkpt>
      <trkpt lat="46.98886" lon="8.82608">
        <ele>1216</ele>
        <time>2021-08-04T08:16:54.831Z</time>
      </trkpt>
      <trkpt lat="46.98886" lon="8.82609">
        <ele>1217</ele>
        <time>2021-08-04T08:16:55.831Z</time>
      </trkpt>
      <trkpt lat="46.98886" lon="8.8261">
        <ele>1218</ele>
        <time>2021-08-04T08:16:56.831Z</time>
      </trkpt>
      <trkpt lat="46.98887" lon="8.82611">
        <ele>1219</ele>
        <time>2021-08-04T08:16:57.831Z</time>
      </trkpt>
      <trkpt lat="46.98887" lon="8.82612">
        <ele>1220</ele>
        <time>2021-08-04T08:16:58.831Z</time>
      </trkpt>
      <trkpt lat="46.98887" lon="8.82613">
        <ele>1221</ele>
        <time>2021-08-04T08:16:59.831Z</time>
      </trkpt>
      <trkpt lat="46.98887" lon="8.82614">
        <ele>1222</ele>
        <time>2021-08-04T08:17:00.831Z</time>
      </trkpt>
      <trkpt lat="46.98887" lon="8.82614">
        <ele>1223</ele>
        <time>2021-08-04T08:17:01.831Z</time>
      </trkpt>
      <trkpt lat="46.98887" lon="8.82615">
        <ele>1225</ele>
        <time>2021-08-04T08:17:02.831Z</time>
      </trkpt>
      <trkpt lat="46.98887" lon="8.82615">
        <ele>1226</ele>
        <time>2021-08-04T08:17:03.830Z</time>
      </trkpt>
      <trkpt lat="46.98887" lon="8.82616">
        <ele>1227</ele>
        <time>2021-08-04T08:17:04.831Z</time>
      </trkpt>
      <trkpt lat="46.98886" lon="8.82617">
        <ele>1228</ele>
        <time>2021-08-04T08:17:05.830Z</time>
      </trkpt>
      <trkpt lat="46.98887" lon="8.82618">
        <ele>1229</ele>
        <time>2021-08-04T08:17:06.831Z</time>
      </trkpt>
      <trkpt lat="46.98887" lon="8.82619">
        <ele>1230</ele>
        <time>2021-08-04T08:17:07.831Z</time>
      </trkpt>
      <trkpt lat="46.98888" lon="8.82619">
        <ele>1231</ele>
        <time>2021-08-04T08:17:08.831Z</time>
      </trkpt>
      <trkpt lat="46.98889" lon="8.82618">
        <ele>1232</ele>
        <time>2021-08-04T08:17:09.831Z</time>
      </trkpt>
      <trkpt lat="46.98891" lon="8.82617">
        <ele>1233</ele>
        <time>2021-08-04T08:17:10.830Z</time>
      </trkpt>
      <trkpt lat="46.98892" lon="8.82616">
        <ele>1233</ele>
        <time>2021-08-04T08:17:11.831Z</time>
      </trkpt>
      <trkpt lat="46.98893" lon="8.82615">
        <ele>1233</ele>
        <time>2021-08-04T08:17:12.831Z</time>
      </trkpt>
      <trkpt lat="46.98894" lon="8.82614">
        <ele>1233</ele>
        <time>2021-08-04T08:17:13.830Z</time>
      </trkpt>
      <trkpt lat="46.98895" lon="8.82613">
        <ele>1233</ele>
        <time>2021-08-04T08:17:14.831Z</time>
      </trkpt>
      <trkpt lat="46.98895" lon="8.82613">
        <ele>1233</ele>
        <time>2021-08-04T08:17:15.831Z</time>
      </trkpt>
      <trkpt lat="46.98896" lon="8.82612">
        <ele>1233</ele>
        <time>2021-08-04T08:17:16.830Z</time>
      </trkpt>
      <trkpt lat="46.98896" lon="8.82611">
        <ele>1233</ele>
        <time>2021-08-04T08:17:17.831Z</time>
      </trkpt>
      <trkpt lat="46.98897" lon="8.8261">
        <ele>1232</ele>
        <time>2021-08-04T08:17:18.831Z</time>
      </trkpt>
      <trkpt lat="46.98897" lon="8.82609">
        <ele>1232</ele>
        <time>2021-08-04T08:17:19.831Z</time>
      </trkpt>
      <trkpt lat="46.98897" lon="8.82607">
        <ele>1232</ele>
        <time>2021-08-04T08:17:20.831Z</time>
      </trkpt>
      <trkpt lat="46.98897" lon="8.82606">
        <ele>1231</ele>
        <time>2021-08-04T08:17:21.831Z</time>
      </trkpt>
      <trkpt lat="46.98897" lon="8.82605">
        <ele>1231</ele>
        <time>2021-08-04T08:17:22.830Z</time>
      </trkpt>
      <trkpt lat="46.98898" lon="8.82603">
        <ele>1231</ele>
        <time>2021-08-04T08:17:23.831Z</time>
      </trkpt>
      <trkpt lat="46.98899" lon="8.82602">
        <ele>1231</ele>
        <time>2021-08-04T08:17:24.830Z</time>
      </trkpt>
      <trkpt lat="46.98899" lon="8.82602">
        <ele>1230</ele>
        <time>2021-08-04T08:17:25.831Z</time>
      </trkpt>
      <trkpt lat="46.98899" lon="8.82602">
        <ele>1230</ele>
        <time>2021-08-04T08:17:26.831Z</time>
      </trkpt>
      <trkpt lat="46.98901" lon="8.82601">
        <ele>1230</ele>
        <time>2021-08-04T08:17:27.830Z</time>
      </trkpt>
      <trkpt lat="46.98902" lon="8.826">
        <ele>1230</ele>
        <time>2021-08-04T08:17:28.830Z</time>
      </trkpt>
      <trkpt lat="46.98903" lon="8.826">
        <ele>1229</ele>
        <time>2021-08-04T08:17:29.831Z</time>
      </trkpt>
      <trkpt lat="46.98904" lon="8.82599">
        <ele>1229</ele>
        <time>2021-08-04T08:17:30.830Z</time>
      </trkpt>
      <trkpt lat="46.98905" lon="8.82599">
        <ele>1229</ele>
        <time>2021-08-04T08:17:31.830Z</time>
      </trkpt>
      <trkpt lat="46.98906" lon="8.82599">
        <ele>1228</ele>
        <time>2021-08-04T08:17:32.831Z</time>
      </trkpt>
      <trkpt lat="46.98907" lon="8.82599">
        <ele>1228</ele>
        <time>2021-08-04T08:17:33.830Z</time>
      </trkpt>
      <trkpt lat="46.98908" lon="8.82598">
        <ele>1227</ele>
        <time>2021-08-04T08:17:34.830Z</time>
      </trkpt>
      <trkpt lat="46.98909" lon="8.82598">
        <ele>1227</ele>
        <time>2021-08-04T08:17:35.830Z</time>
      </trkpt>
      <trkpt lat="46.9891" lon="8.82598">
        <ele>1226</ele>
        <time>2021-08-04T08:17:36.831Z</time>
      </trkpt>
      <trkpt lat="46.9891" lon="8.82596">
        <ele>1226</ele>
        <time>2021-08-04T08:17:37.831Z</time>
      </trkpt>
      <trkpt lat="46.9891" lon="8.82594">
        <ele>1226</ele>
        <time>2021-08-04T08:17:38.831Z</time>
      </trkpt>
      <trkpt lat="46.9891" lon="8.82593">
        <ele>1225</ele>
        <time>2021-08-04T08:17:39.831Z</time>
      </trkpt>
      <trkpt lat="46.9891" lon="8.82593">
        <ele>1225</ele>
        <time>2021-08-04T08:17:40.831Z</time>
      </trkpt>
      <trkpt lat="46.98909" lon="8.82591">
        <ele>1225</ele>
        <time>2021-08-04T08:17:41.831Z</time>
      </trkpt>
      <trkpt lat="46.98909" lon="8.82589">
        <ele>1224</ele>
        <time>2021-08-04T08:17:42.831Z</time>
      </trkpt>
      <trkpt lat="46.98908" lon="8.82588">
        <ele>1224</ele>
        <time>2021-08-04T08:17:43.831Z</time>
      </trkpt>
      <trkpt lat="46.98907" lon="8.82586">
        <ele>1223</ele>
        <time>2021-08-04T08:17:44.830Z</time>
      </trkpt>
      <trkpt lat="46.98906" lon="8.82585">
        <ele>1223</ele>
        <time>2021-08-04T08:17:45.831Z</time>
      </trkpt>
      <trkpt lat="46.98906" lon="8.82584">
        <ele>1222</ele>
        <time>2021-08-04T08:17:46.831Z</time>
      </trkpt>
      <trkpt lat="46.98906" lon="8.82583">
        <ele>1222</ele>
        <time>2021-08-04T08:17:47.831Z</time>
      </trkpt>
      <trkpt lat="46.98906" lon="8.82582">
        <ele>1221</ele>
        <time>2021-08-04T08:17:48.830Z</time>
      </trkpt>
      <trkpt lat="46.98907" lon="8.82582">
        <ele>1221</ele>
        <time>2021-08-04T08:17:49.831Z</time>
      </trkpt>
      <trkpt lat="46.98908" lon="8.82581">
        <ele>1220</ele>
        <time>2021-08-04T08:17:50.830Z</time>
      </trkpt>
      <trkpt lat="46.98909" lon="8.82582">
        <ele>1220</ele>
        <time>2021-08-04T08:17:51.831Z</time>
      </trkpt>
      <trkpt lat="46.9891" lon="8.82582">
        <ele>1220</ele>
        <time>2021-08-04T08:17:52.830Z</time>
      </trkpt>
      <trkpt lat="46.98911" lon="8.82581">
        <ele>1220</ele>
        <time>2021-08-04T08:17:53.831Z</time>
      </trkpt>
      <trkpt lat="46.98911" lon="8.8258">
        <ele>1220</ele>
        <time>2021-08-04T08:17:54.830Z</time>
      </trkpt>
      <trkpt lat="46.98911" lon="8.82579">
        <ele>1220</ele>
        <time>2021-08-04T08:17:55.830Z</time>
      </trkpt>
      <trkpt lat="46.98911" lon="8.82579">
        <ele>1219</ele>
        <time>2021-08-04T08:17:56.831Z</time>
      </trkpt>
      <trkpt lat="46.98911" lon="8.82578">
        <ele>1219</ele>
        <time>2021-08-04T08:17:57.830Z</time>
      </trkpt>
      <trkpt lat="46.98911" lon="8.82577">
        <ele>1219</ele>
        <time>2021-08-04T08:17:58.831Z</time>
      </trkpt>
      <trkpt lat="46.9891" lon="8.82577">
        <ele>1219</ele>
        <time>2021-08-04T08:17:59.831Z</time>
      </trkpt>
      <trkpt lat="46.9891" lon="8.82578">
        <ele>1219</ele>
        <time>2021-08-04T08:18:00.831Z</time>
      </trkpt>
      <trkpt lat="46.9891" lon="8.8258">
        <ele>1218</ele>
        <time>2021-08-04T08:18:01.831Z</time>
      </trkpt>
      <trkpt lat="46.9891" lon="8.82582">
        <ele>1218</ele>
        <time>2021-08-04T08:18:02.831Z</time>
      </trkpt>
      <trkpt lat="46.9891" lon="8.82583">
        <ele>1218</ele>
        <time>2021-08-04T08:18:03.830Z</time>
      </trkpt>
      <trkpt lat="46.98911" lon="8.82585">
        <ele>1218</ele>
        <time>2021-08-04T08:18:04.831Z</time>
      </trkpt>
      <trkpt lat="46.98911" lon="8.82586">
        <ele>1218</ele>
        <time>2021-08-04T08:18:05.830Z</time>
      </trkpt>
      <trkpt lat="46.98912" lon="8.82588">
        <ele>1218</ele>
        <time>2021-08-04T08:18:06.831Z</time>
      </trkpt>
      <trkpt lat="46.98913" lon="8.82591">
        <ele>1218</ele>
        <time>2021-08-04T08:18:07.831Z</time>
      </trkpt>
      <trkpt lat="46.98913" lon="8.82593">
        <ele>1218</ele>
        <time>2021-08-04T08:18:08.831Z</time>
      </trkpt>
      <trkpt lat="46.98913" lon="8.82595">
        <ele>1218</ele>
        <time>2021-08-04T08:18:09.831Z</time>
      </trkpt>
      <trkpt lat="46.98913" lon="8.82597">
        <ele>1219</ele>
        <time>2021-08-04T08:18:10.830Z</time>
      </trkpt>
      <trkpt lat="46.98914" lon="8.82596">
        <ele>1219</ele>
        <time>2021-08-04T08:18:11.831Z</time>
      </trkpt>
      <trkpt lat="46.98914" lon="8.82597">
        <ele>1219</ele>
        <time>2021-08-04T08:18:12.830Z</time>
      </trkpt>
      <trkpt lat="46.98914" lon="8.82597">
        <ele>1219</ele>
        <time>2021-08-04T08:18:13.831Z</time>
      </trkpt>
      <trkpt lat="46.98915" lon="8.82597">
        <ele>1219</ele>
        <time>2021-08-04T08:18:14.830Z</time>
      </trkpt>
      <trkpt lat="46.98915" lon="8.82596">
        <ele>1220</ele>
        <time>2021-08-04T08:18:15.831Z</time>
      </trkpt>
      <trkpt lat="46.98915" lon="8.82596">
        <ele>1221</ele>
        <time>2021-08-04T08:18:16.831Z</time>
      </trkpt>
      <trkpt lat="46.98916" lon="8.82595">
        <ele>1221</ele>
        <time>2021-08-04T08:18:17.831Z</time>
      </trkpt>
      <trkpt lat="46.98916" lon="8.82594">
        <ele>1222</ele>
        <time>2021-08-04T08:18:18.830Z</time>
      </trkpt>
      <trkpt lat="46.98917" lon="8.82593">
        <ele>1222</ele>
        <time>2021-08-04T08:18:19.831Z</time>
      </trkpt>
      <trkpt lat="46.98918" lon="8.82592">
        <ele>1223</ele>
        <time>2021-08-04T08:18:20.830Z</time>
      </trkpt>
      <trkpt lat="46.98919" lon="8.82591">
        <ele>1223</ele>
        <time>2021-08-04T08:18:21.830Z</time>
      </trkpt>
      <trkpt lat="46.98919" lon="8.8259">
        <ele>1223</ele>
        <time>2021-08-04T08:18:22.831Z</time>
      </trkpt>
      <trkpt lat="46.98921" lon="8.82591">
        <ele>1224</ele>
        <time>2021-08-04T08:18:23.831Z</time>
      </trkpt>
      <trkpt lat="46.98922" lon="8.8259">
        <ele>1224</ele>
        <time>2021-08-04T08:18:24.830Z</time>
      </trkpt>
      <trkpt lat="46.98923" lon="8.82589">
        <ele>1224</ele>
        <time>2021-08-04T08:18:25.831Z</time>
      </trkpt>
      <trkpt lat="46.98923" lon="8.82588">
        <ele>1225</ele>
        <time>2021-08-04T08:18:26.830Z</time>
      </trkpt>
      <trkpt lat="46.98924" lon="8.82588">
        <ele>1225</ele>
        <time>2021-08-04T08:18:27.831Z</time>
      </trkpt>
      <trkpt lat="46.98924" lon="8.82588">
        <ele>1226</ele>
        <time>2021-08-04T08:18:28.831Z</time>
      </trkpt>
      <trkpt lat="46.98923" lon="8.82587">
        <ele>1226</ele>
        <time>2021-08-04T08:18:29.830Z</time>
      </trkpt>
      <trkpt lat="46.98922" lon="8.82587">
        <ele>1227</ele>
        <time>2021-08-04T08:18:30.831Z</time>
      </trkpt>
      <trkpt lat="46.98921" lon="8.82586">
        <ele>1227</ele>
        <time>2021-08-04T08:18:31.830Z</time>
      </trkpt>
      <trkpt lat="46.98921" lon="8.82586">
        <ele>1227</ele>
        <time>2021-08-04T08:18:32.830Z</time>
      </trkpt>
      <trkpt lat="46.98921" lon="8.82585">
        <ele>1227</ele>
        <time>2021-08-04T08:18:33.830Z</time>
      </trkpt>
      <trkpt lat="46.98921" lon="8.82584">
        <ele>1227</ele>
        <time>2021-08-04T08:18:34.831Z</time>
      </trkpt>
      <trkpt lat="46.98922" lon="8.82583">
        <ele>1228</ele>
        <time>2021-08-04T08:18:35.831Z</time>
      </trkpt>
      <trkpt lat="46.98922" lon="8.82581">
        <ele>1228</ele>
        <time>2021-08-04T08:18:36.830Z</time>
      </trkpt>
      <trkpt lat="46.98923" lon="8.8258">
        <ele>1228</ele>
        <time>2021-08-04T08:18:37.830Z</time>
      </trkpt>
      <trkpt lat="46.98923" lon="8.82579">
        <ele>1228</ele>
        <time>2021-08-04T08:18:38.830Z</time>
      </trkpt>
      <trkpt lat="46.98923" lon="8.82579">
        <ele>1229</ele>
        <time>2021-08-04T08:18:39.830Z</time>
      </trkpt>
      <trkpt lat="46.98924" lon="8.82579">
        <ele>1229</ele>
        <time>2021-08-04T08:18:40.831Z</time>
      </trkpt>
      <trkpt lat="46.98925" lon="8.82579">
        <ele>1229</ele>
        <time>2021-08-04T08:18:41.831Z</time>
      </trkpt>
      <trkpt lat="46.98926" lon="8.82581">
        <ele>1229</ele>
        <time>2021-08-04T08:18:42.831Z</time>
      </trkpt>
      <trkpt lat="46.98926" lon="8.82582">
        <ele>1229</ele>
        <time>2021-08-04T08:18:43.830Z</time>
      </trkpt>
      <trkpt lat="46.98927" lon="8.82582">
        <ele>1230</ele>
        <time>2021-08-04T08:18:44.830Z</time>
      </trkpt>
      <trkpt lat="46.98927" lon="8.82581">
        <ele>1230</ele>
        <time>2021-08-04T08:18:45.830Z</time>
      </trkpt>
      <trkpt lat="46.98928" lon="8.82579">
        <ele>1230</ele>
        <time>2021-08-04T08:18:46.831Z</time>
      </trkpt>
      <trkpt lat="46.98928" lon="8.82578">
        <ele>1230</ele>
        <time>2021-08-04T08:18:47.831Z</time>
      </trkpt>
      <trkpt lat="46.98928" lon="8.82581">
        <ele>1230</ele>
        <time>2021-08-04T08:18:48.830Z</time>
      </trkpt>
      <trkpt lat="46.98927" lon="8.82583">
        <ele>1230</ele>
        <time>2021-08-04T08:18:49.830Z</time>
      </trkpt>
      <trkpt lat="46.98926" lon="8.82584">
        <ele>1230</ele>
        <time>2021-08-04T08:18:50.831Z</time>
      </trkpt>
      <trkpt lat="46.98926" lon="8.82586">
        <ele>1230</ele>
        <time>2021-08-04T08:18:51.831Z</time>
      </trkpt>
      <trkpt lat="46.98925" lon="8.82586">
        <ele>1230</ele>
        <time>2021-08-04T08:18:52.831Z</time>
      </trkpt>
      <trkpt lat="46.98924" lon="8.82586">
        <ele>1230</ele>
        <time>2021-08-04T08:18:53.830Z</time>
      </trkpt>
      <trkpt lat="46.98924" lon="8.82586">
        <ele>1230</ele>
        <time>2021-08-04T08:18:54.830Z</time>
      </trkpt>
      <trkpt lat="46.98923" lon="8.82585">
        <ele>1229</ele>
        <time>2021-08-04T08:18:55.832Z</time>
      </trkpt>
      <trkpt lat="46.98923" lon="8.82585">
        <ele>1229</ele>
        <time>2021-08-04T08:18:56.832Z</time>
      </trkpt>
      <trkpt lat="46.98923" lon="8.82582">
        <ele>1228</ele>
        <time>2021-08-04T08:18:57.831Z</time>
      </trkpt>
      <trkpt lat="46.98923" lon="8.82581">
        <ele>1228</ele>
        <time>2021-08-04T08:18:58.832Z</time>
      </trkpt>
      <trkpt lat="46.98923" lon="8.82581">
        <ele>1228</ele>
        <time>2021-08-04T08:18:59.832Z</time>
      </trkpt>
      <trkpt lat="46.98924" lon="8.82582">
        <ele>1227</ele>
        <time>2021-08-04T08:19:00.831Z</time>
      </trkpt>
      <trkpt lat="46.98924" lon="8.82583">
        <ele>1227</ele>
        <time>2021-08-04T08:19:01.832Z</time>
      </trkpt>
      <trkpt lat="46.98924" lon="8.82585">
        <ele>1227</ele>
        <time>2021-08-04T08:19:02.831Z</time>
      </trkpt>
      <trkpt lat="46.98924" lon="8.82585">
        <ele>1227</ele>
        <time>2021-08-04T08:19:03.832Z</time>
      </trkpt>
      <trkpt lat="46.98924" lon="8.82587">
        <ele>1227</ele>
        <time>2021-08-04T08:19:04.832Z</time>
      </trkpt>
      <trkpt lat="46.98923" lon="8.82589">
        <ele>1227</ele>
        <time>2021-08-04T08:19:05.832Z</time>
      </trkpt>
      <trkpt lat="46.98923" lon="8.82589">
        <ele>1227</ele>
        <time>2021-08-04T08:19:06.832Z</time>
      </trkpt>
      <trkpt lat="46.98924" lon="8.82587">
        <ele>1228</ele>
        <time>2021-08-04T08:19:07.832Z</time>
      </trkpt>
      <trkpt lat="46.98925" lon="8.82584">
        <ele>1228</ele>
        <time>2021-08-04T08:19:08.831Z</time>
      </trkpt>
      <trkpt lat="46.98926" lon="8.82583">
        <ele>1228</ele>
        <time>2021-08-04T08:19:09.832Z</time>
      </trkpt>
      <trkpt lat="46.98927" lon="8.82582">
        <ele>1228</ele>
        <time>2021-08-04T08:19:10.832Z</time>
      </trkpt>
      <trkpt lat="46.98928" lon="8.82581">
        <ele>1229</ele>
        <time>2021-08-04T08:19:11.832Z</time>
      </trkpt>
      <trkpt lat="46.98929" lon="8.8258">
        <ele>1229</ele>
        <time>2021-08-04T08:19:12.832Z</time>
      </trkpt>
      <trkpt lat="46.9893" lon="8.82579">
        <ele>1230</ele>
        <time>2021-08-04T08:19:13.831Z</time>
      </trkpt>
      <trkpt lat="46.98931" lon="8.82577">
        <ele>1230</ele>
        <time>2021-08-04T08:19:14.832Z</time>
      </trkpt>
      <trkpt lat="46.98932" lon="8.82575">
        <ele>1230</ele>
        <time>2021-08-04T08:19:15.832Z</time>
      </trkpt>
      <trkpt lat="46.98933" lon="8.82573">
        <ele>1230</ele>
        <time>2021-08-04T08:19:16.831Z</time>
      </trkpt>
      <trkpt lat="46.98934" lon="8.82571">
        <ele>1231</ele>
        <time>2021-08-04T08:19:17.832Z</time>
      </trkpt>
      <trkpt lat="46.98935" lon="8.82571">
        <ele>1231</ele>
        <time>2021-08-04T08:19:18.832Z</time>
      </trkpt>
      <trkpt lat="46.98935" lon="8.8257">
        <ele>1231</ele>
        <time>2021-08-04T08:19:19.831Z</time>
      </trkpt>
      <trkpt lat="46.98936" lon="8.82568">
        <ele>1230</ele>
        <time>2021-08-04T08:19:20.832Z</time>
      </trkpt>
      <trkpt lat="46.98937" lon="8.82567">
        <ele>1230</ele>
        <time>2021-08-04T08:19:21.832Z</time>
      </trkpt>
      <trkpt lat="46.98937" lon="8.82565">
        <ele>1230</ele>
        <time>2021-08-04T08:19:22.832Z</time>
      </trkpt>
      <trkpt lat="46.98937" lon="8.82563">
        <ele>1230</ele>
        <time>2021-08-04T08:19:23.832Z</time>
      </trkpt>
      <trkpt lat="46.98937" lon="8.82561">
        <ele>1229</ele>
        <time>2021-08-04T08:19:24.831Z</time>
      </trkpt>
      <trkpt lat="46.98938" lon="8.8256">
        <ele>1229</ele>
        <time>2021-08-04T08:19:25.831Z</time>
      </trkpt>
      <trkpt lat="46.98938" lon="8.82558">
        <ele>1229</ele>
        <time>2021-08-04T08:19:26.831Z</time>
      </trkpt>
      <trkpt lat="46.98938" lon="8.82556">
        <ele>1228</ele>
        <time>2021-08-04T08:19:27.832Z</time>
      </trkpt>
      <trkpt lat="46.98939" lon="8.82555">
        <ele>1228</ele>
        <time>2021-08-04T08:19:28.831Z</time>
      </trkpt>
      <trkpt lat="46.98939" lon="8.82553">
        <ele>1227</ele>
        <time>2021-08-04T08:19:29.831Z</time>
      </trkpt>
      <trkpt lat="46.98939" lon="8.82551">
        <ele>1227</ele>
        <time>2021-08-04T08:19:30.832Z</time>
      </trkpt>
      <trkpt lat="46.98939" lon="8.8255">
        <ele>1227</ele>
        <time>2021-08-04T08:19:31.832Z</time>
      </trkpt>
      <trkpt lat="46.98939" lon="8.82548">
        <ele>1227</ele>
        <time>2021-08-04T08:19:32.832Z</time>
      </trkpt>
      <trkpt lat="46.98939" lon="8.82546">
        <ele>1227</ele>
        <time>2021-08-04T08:19:33.832Z</time>
      </trkpt>
      <trkpt lat="46.98939" lon="8.82545">
        <ele>1226</ele>
        <time>2021-08-04T08:19:34.832Z</time>
      </trkpt>
      <trkpt lat="46.98939" lon="8.82543">
        <ele>1227</ele>
        <time>2021-08-04T08:19:35.832Z</time>
      </trkpt>
      <trkpt lat="46.9894" lon="8.8254">
        <ele>1227</ele>
        <time>2021-08-04T08:19:36.832Z</time>
      </trkpt>
      <trkpt lat="46.9894" lon="8.82539">
        <ele>1227</ele>
        <time>2021-08-04T08:19:37.832Z</time>
      </trkpt>
      <trkpt lat="46.98941" lon="8.82537">
        <ele>1227</ele>
        <time>2021-08-04T08:19:38.831Z</time>
      </trkpt>
      <trkpt lat="46.98942" lon="8.82535">
        <ele>1227</ele>
        <time>2021-08-04T08:19:39.832Z</time>
      </trkpt>
      <trkpt lat="46.98943" lon="8.82534">
        <ele>1227</ele>
        <time>2021-08-04T08:19:40.832Z</time>
      </trkpt>
      <trkpt lat="46.98944" lon="8.82533">
        <ele>1226</ele>
        <time>2021-08-04T08:19:41.832Z</time>
      </trkpt>
      <trkpt lat="46.98945" lon="8.82533">
        <ele>1226</ele>
        <time>2021-08-04T08:19:42.832Z</time>
      </trkpt>
      <trkpt lat="46.98947" lon="8.82532">
        <ele>1226</ele>
        <time>2021-08-04T08:19:43.832Z</time>
      </trkpt>
      <trkpt lat="46.98948" lon="8.82531">
        <ele>1225</ele>
        <time>2021-08-04T08:19:44.832Z</time>
      </trkpt>
      <trkpt lat="46.98949" lon="8.8253">
        <ele>1225</ele>
        <time>2021-08-04T08:19:45.831Z</time>
      </trkpt>
      <trkpt lat="46.9895" lon="8.82529">
        <ele>1225</ele>
        <time>2021-08-04T08:19:46.831Z</time>
      </trkpt>
      <trkpt lat="46.98951" lon="8.82527">
        <ele>1224</ele>
        <time>2021-08-04T08:19:47.832Z</time>
      </trkpt>
      <trkpt lat="46.98951" lon="8.82525">
        <ele>1224</ele>
        <time>2021-08-04T08:19:48.832Z</time>
      </trkpt>
      <trkpt lat="46.98951" lon="8.82523">
        <ele>1223</ele>
        <time>2021-08-04T08:19:49.831Z</time>
      </trkpt>
      <trkpt lat="46.98951" lon="8.82521">
        <ele>1223</ele>
        <time>2021-08-04T08:19:50.831Z</time>
      </trkpt>
      <trkpt lat="46.98951" lon="8.82519">
        <ele>1223</ele>
        <time>2021-08-04T08:19:51.832Z</time>
      </trkpt>
      <trkpt lat="46.98951" lon="8.82517">
        <ele>1222</ele>
        <time>2021-08-04T08:19:52.831Z</time>
      </trkpt>
      <trkpt lat="46.98951" lon="8.82516">
        <ele>1222</ele>
        <time>2021-08-04T08:19:53.832Z</time>
      </trkpt>
      <trkpt lat="46.98951" lon="8.82514">
        <ele>1222</ele>
        <time>2021-08-04T08:19:54.832Z</time>
      </trkpt>
      <trkpt lat="46.98952" lon="8.82512">
        <ele>1222</ele>
        <time>2021-08-04T08:19:55.831Z</time>
      </trkpt>
      <trkpt lat="46.98951" lon="8.8251">
        <ele>1222</ele>
        <time>2021-08-04T08:19:56.832Z</time>
      </trkpt>
      <trkpt lat="46.98952" lon="8.82509">
        <ele>1222</ele>
        <time>2021-08-04T08:19:57.831Z</time>
      </trkpt>
      <trkpt lat="46.98951" lon="8.82507">
        <ele>1222</ele>
        <time>2021-08-04T08:19:58.832Z</time>
      </trkpt>
      <trkpt lat="46.98951" lon="8.82506">
        <ele>1222</ele>
        <time>2021-08-04T08:19:59.832Z</time>
      </trkpt>
      <trkpt lat="46.9895" lon="8.82504">
        <ele>1222</ele>
        <time>2021-08-04T08:20:00.832Z</time>
      </trkpt>
      <trkpt lat="46.9895" lon="8.82503">
        <ele>1222</ele>
        <time>2021-08-04T08:20:01.832Z</time>
      </trkpt>
      <trkpt lat="46.9895" lon="8.82502">
        <ele>1222</ele>
        <time>2021-08-04T08:20:02.832Z</time>
      </trkpt>
      <trkpt lat="46.98949" lon="8.825">
        <ele>1222</ele>
        <time>2021-08-04T08:20:03.831Z</time>
      </trkpt>
      <trkpt lat="46.98949" lon="8.82499">
        <ele>1222</ele>
        <time>2021-08-04T08:20:04.832Z</time>
      </trkpt>
      <trkpt lat="46.9895" lon="8.82497">
        <ele>1221</ele>
        <time>2021-08-04T08:20:05.831Z</time>
      </trkpt>
      <trkpt lat="46.9895" lon="8.82496">
        <ele>1221</ele>
        <time>2021-08-04T08:20:06.832Z</time>
      </trkpt>
      <trkpt lat="46.9895" lon="8.82495">
        <ele>1221</ele>
        <time>2021-08-04T08:20:07.832Z</time>
      </trkpt>
      <trkpt lat="46.98951" lon="8.82494">
        <ele>1220</ele>
        <time>2021-08-04T08:20:08.831Z</time>
      </trkpt>
      <trkpt lat="46.98951" lon="8.82492">
        <ele>1220</ele>
        <time>2021-08-04T08:20:09.832Z</time>
      </trkpt>
      <trkpt lat="46.98952" lon="8.82491">
        <ele>1219</ele>
        <time>2021-08-04T08:20:10.832Z</time>
      </trkpt>
      <trkpt lat="46.98952" lon="8.8249">
        <ele>1219</ele>
        <time>2021-08-04T08:20:11.831Z</time>
      </trkpt>
      <trkpt lat="46.98952" lon="8.82488">
        <ele>1219</ele>
        <time>2021-08-04T08:20:12.832Z</time>
      </trkpt>
      <trkpt lat="46.98953" lon="8.82487">
        <ele>1219</ele>
        <time>2021-08-04T08:20:13.831Z</time>
      </trkpt>
      <trkpt lat="46.98953" lon="8.82485">
        <ele>1219</ele>
        <time>2021-08-04T08:20:14.831Z</time>
      </trkpt>
      <trkpt lat="46.98954" lon="8.82483">
        <ele>1219</ele>
        <time>2021-08-04T08:20:15.831Z</time>
      </trkpt>
      <trkpt lat="46.98954" lon="8.82481">
        <ele>1219</ele>
        <time>2021-08-04T08:20:16.832Z</time>
      </trkpt>
      <trkpt lat="46.98954" lon="8.82479">
        <ele>1219</ele>
        <time>2021-08-04T08:20:17.831Z</time>
      </trkpt>
      <trkpt lat="46.98954" lon="8.82478">
        <ele>1219</ele>
        <time>2021-08-04T08:20:18.832Z</time>
      </trkpt>
      <trkpt lat="46.98955" lon="8.82476">
        <ele>1219</ele>
        <time>2021-08-04T08:20:19.832Z</time>
      </trkpt>
      <trkpt lat="46.98955" lon="8.82475">
        <ele>1219</ele>
        <time>2021-08-04T08:20:20.831Z</time>
      </trkpt>
      <trkpt lat="46.98956" lon="8.82474">
        <ele>1219</ele>
        <time>2021-08-04T08:20:21.831Z</time>
      </trkpt>
      <trkpt lat="46.98956" lon="8.82473">
        <ele>1219</ele>
        <time>2021-08-04T08:20:22.831Z</time>
      </trkpt>
      <trkpt lat="46.98957" lon="8.82472">
        <ele>1219</ele>
        <time>2021-08-04T08:20:23.831Z</time>
      </trkpt>
      <trkpt lat="46.98958" lon="8.82472">
        <ele>1218</ele>
        <time>2021-08-04T08:20:24.831Z</time>
      </trkpt>
      <trkpt lat="46.98959" lon="8.82471">
        <ele>1218</ele>
        <time>2021-08-04T08:20:25.831Z</time>
      </trkpt>
      <trkpt lat="46.9896" lon="8.8247">
        <ele>1218</ele>
        <time>2021-08-04T08:20:26.831Z</time>
      </trkpt>
      <trkpt lat="46.98961" lon="8.82469">
        <ele>1218</ele>
        <time>2021-08-04T08:20:27.832Z</time>
      </trkpt>
      <trkpt lat="46.98961" lon="8.82468">
        <ele>1218</ele>
        <time>2021-08-04T08:20:28.831Z</time>
      </trkpt>
      <trkpt lat="46.98962" lon="8.82466">
        <ele>1218</ele>
        <time>2021-08-04T08:20:29.831Z</time>
      </trkpt>
      <trkpt lat="46.98963" lon="8.82465">
        <ele>1218</ele>
        <time>2021-08-04T08:20:30.832Z</time>
      </trkpt>
      <trkpt lat="46.98964" lon="8.82464">
        <ele>1218</ele>
        <time>2021-08-04T08:20:31.832Z</time>
      </trkpt>
      <trkpt lat="46.98965" lon="8.82462">
        <ele>1218</ele>
        <time>2021-08-04T08:20:32.832Z</time>
      </trkpt>
      <trkpt lat="46.98966" lon="8.82461">
        <ele>1217</ele>
        <time>2021-08-04T08:20:33.832Z</time>
      </trkpt>
      <trkpt lat="46.98967" lon="8.82459">
        <ele>1217</ele>
        <time>2021-08-04T08:20:34.831Z</time>
      </trkpt>
      <trkpt lat="46.98968" lon="8.82458">
        <ele>1217</ele>
        <time>2021-08-04T08:20:35.832Z</time>
      </trkpt>
      <trkpt lat="46.98969" lon="8.82457">
        <ele>1217</ele>
        <time>2021-08-04T08:20:36.831Z</time>
      </trkpt>
      <trkpt lat="46.9897" lon="8.82455">
        <ele>1217</ele>
        <time>2021-08-04T08:20:37.832Z</time>
      </trkpt>
      <trkpt lat="46.98971" lon="8.82454">
        <ele>1217</ele>
        <time>2021-08-04T08:20:38.832Z</time>
      </trkpt>
      <trkpt lat="46.98971" lon="8.82453">
        <ele>1217</ele>
        <time>2021-08-04T08:20:39.831Z</time>
      </trkpt>
      <trkpt lat="46.98972" lon="8.82452">
        <ele>1218</ele>
        <time>2021-08-04T08:20:40.832Z</time>
      </trkpt>
      <trkpt lat="46.98973" lon="8.82451">
        <ele>1218</ele>
        <time>2021-08-04T08:20:41.831Z</time>
      </trkpt>
      <trkpt lat="46.98973" lon="8.8245">
        <ele>1219</ele>
        <time>2021-08-04T08:20:42.832Z</time>
      </trkpt>
      <trkpt lat="46.98974" lon="8.82448">
        <ele>1219</ele>
        <time>2021-08-04T08:20:43.832Z</time>
      </trkpt>
      <trkpt lat="46.98974" lon="8.82447">
        <ele>1220</ele>
        <time>2021-08-04T08:20:44.832Z</time>
      </trkpt>
      <trkpt lat="46.98974" lon="8.82446">
        <ele>1221</ele>
        <time>2021-08-04T08:20:45.832Z</time>
      </trkpt>
      <trkpt lat="46.98975" lon="8.82445">
        <ele>1221</ele>
        <time>2021-08-04T08:20:46.832Z</time>
      </trkpt>
      <trkpt lat="46.98976" lon="8.82444">
        <ele>1222</ele>
        <time>2021-08-04T08:20:47.832Z</time>
      </trkpt>
      <trkpt lat="46.98977" lon="8.82443">
        <ele>1222</ele>
        <time>2021-08-04T08:20:48.831Z</time>
      </trkpt>
      <trkpt lat="46.98978" lon="8.82442">
        <ele>1222</ele>
        <time>2021-08-04T08:20:49.832Z</time>
      </trkpt>
      <trkpt lat="46.98979" lon="8.82441">
        <ele>1222</ele>
        <time>2021-08-04T08:20:50.832Z</time>
      </trkpt>
      <trkpt lat="46.98979" lon="8.8244">
        <ele>1222</ele>
        <time>2021-08-04T08:20:51.832Z</time>
      </trkpt>
      <trkpt lat="46.9898" lon="8.82439">
        <ele>1222</ele>
        <time>2021-08-04T08:20:52.832Z</time>
      </trkpt>
      <trkpt lat="46.98981" lon="8.82438">
        <ele>1222</ele>
        <time>2021-08-04T08:20:53.832Z</time>
      </trkpt>
      <trkpt lat="46.98982" lon="8.82437">
        <ele>1222</ele>
        <time>2021-08-04T08:20:54.832Z</time>
      </trkpt>
      <trkpt lat="46.98982" lon="8.82437">
        <ele>1223</ele>
        <time>2021-08-04T08:20:55.831Z</time>
      </trkpt>
      <trkpt lat="46.98983" lon="8.82436">
        <ele>1223</ele>
        <time>2021-08-04T08:20:56.832Z</time>
      </trkpt>
      <trkpt lat="46.98983" lon="8.82435">
        <ele>1223</ele>
        <time>2021-08-04T08:20:57.832Z</time>
      </trkpt>
      <trkpt lat="46.98984" lon="8.82435">
        <ele>1223</ele>
        <time>2021-08-04T08:20:58.832Z</time>
      </trkpt>
      <trkpt lat="46.98985" lon="8.82435">
        <ele>1223</ele>
        <time>2021-08-04T08:20:59.831Z</time>
      </trkpt>
      <trkpt lat="46.98986" lon="8.82434">
        <ele>1223</ele>
        <time>2021-08-04T08:21:00.831Z</time>
      </trkpt>
      <trkpt lat="46.98986" lon="8.82433">
        <ele>1223</ele>
        <time>2021-08-04T08:21:01.831Z</time>
      </trkpt>
      <trkpt lat="46.98987" lon="8.82432">
        <ele>1223</ele>
        <time>2021-08-04T08:21:02.831Z</time>
      </trkpt>
      <trkpt lat="46.98987" lon="8.82431">
        <ele>1222</ele>
        <time>2021-08-04T08:21:03.831Z</time>
      </trkpt>
      <trkpt lat="46.98988" lon="8.8243">
        <ele>1222</ele>
        <time>2021-08-04T08:21:04.831Z</time>
      </trkpt>
      <trkpt lat="46.98988" lon="8.82429">
        <ele>1222</ele>
        <time>2021-08-04T08:21:05.832Z</time>
      </trkpt>
      <trkpt lat="46.98988" lon="8.82428">
        <ele>1222</ele>
        <time>2021-08-04T08:21:06.832Z</time>
      </trkpt>
      <trkpt lat="46.98988" lon="8.82427">
        <ele>1222</ele>
        <time>2021-08-04T08:21:07.832Z</time>
      </trkpt>
      <trkpt lat="46.98988" lon="8.82426">
        <ele>1222</ele>
        <time>2021-08-04T08:21:08.832Z</time>
      </trkpt>
      <trkpt lat="46.98988" lon="8.82425">
        <ele>1223</ele>
        <time>2021-08-04T08:21:09.832Z</time>
      </trkpt>
      <trkpt lat="46.98988" lon="8.82424">
        <ele>1222</ele>
        <time>2021-08-04T08:21:10.832Z</time>
      </trkpt>
      <trkpt lat="46.98988" lon="8.82423">
        <ele>1222</ele>
        <time>2021-08-04T08:21:11.831Z</time>
      </trkpt>
      <trkpt lat="46.98989" lon="8.82423">
        <ele>1222</ele>
        <time>2021-08-04T08:21:12.832Z</time>
      </trkpt>
      <trkpt lat="46.9899" lon="8.82422">
        <ele>1221</ele>
        <time>2021-08-04T08:21:13.831Z</time>
      </trkpt>
      <trkpt lat="46.9899" lon="8.82422">
        <ele>1221</ele>
        <time>2021-08-04T08:21:14.831Z</time>
      </trkpt>
      <trkpt lat="46.98991" lon="8.82422">
        <ele>1220</ele>
        <time>2021-08-04T08:21:15.832Z</time>
      </trkpt>
      <trkpt lat="46.98992" lon="8.82422">
        <ele>1219</ele>
        <time>2021-08-04T08:21:16.831Z</time>
      </trkpt>
      <trkpt lat="46.98993" lon="8.82423">
        <ele>1219</ele>
        <time>2021-08-04T08:21:17.832Z</time>
      </trkpt>
      <trkpt lat="46.98994" lon="8.82423">
        <ele>1218</ele>
        <time>2021-08-04T08:21:18.831Z</time>
      </trkpt>
      <trkpt lat="46.98995" lon="8.82423">
        <ele>1217</ele>
        <time>2021-08-04T08:21:19.832Z</time>
      </trkpt>
      <trkpt lat="46.98997" lon="8.82423">
        <ele>1217</ele>
        <time>2021-08-04T08:21:20.832Z</time>
      </trkpt>
      <trkpt lat="46.98998" lon="8.82423">
        <ele>1217</ele>
        <time>2021-08-04T08:21:21.831Z</time>
      </trkpt>
      <trkpt lat="46.98999" lon="8.82423">
        <ele>1217</ele>
        <time>2021-08-04T08:21:22.832Z</time>
      </trkpt>
      <trkpt lat="46.99" lon="8.82423">
        <ele>1217</ele>
        <time>2021-08-04T08:21:23.832Z</time>
      </trkpt>
      <trkpt lat="46.99001" lon="8.82424">
        <ele>1217</ele>
        <time>2021-08-04T08:21:24.831Z</time>
      </trkpt>
      <trkpt lat="46.99002" lon="8.82424">
        <ele>1217</ele>
        <time>2021-08-04T08:21:25.832Z</time>
      </trkpt>
      <trkpt lat="46.99003" lon="8.82424">
        <ele>1217</ele>
        <time>2021-08-04T08:21:26.832Z</time>
      </trkpt>
      <trkpt lat="46.99004" lon="8.82424">
        <ele>1217</ele>
        <time>2021-08-04T08:21:27.831Z</time>
      </trkpt>
      <trkpt lat="46.99005" lon="8.82425">
        <ele>1217</ele>
        <time>2021-08-04T08:21:28.832Z</time>
      </trkpt>
      <trkpt lat="46.99006" lon="8.82425">
        <ele>1217</ele>
        <time>2021-08-04T08:21:29.831Z</time>
      </trkpt>
      <trkpt lat="46.99007" lon="8.82424">
        <ele>1217</ele>
        <time>2021-08-04T08:21:30.831Z</time>
      </trkpt>
      <trkpt lat="46.99008" lon="8.82425">
        <ele>1217</ele>
        <time>2021-08-04T08:21:31.832Z</time>
      </trkpt>
      <trkpt lat="46.99009" lon="8.82425">
        <ele>1216</ele>
        <time>2021-08-04T08:21:32.831Z</time>
      </trkpt>
      <trkpt lat="46.99009" lon="8.82425">
        <ele>1215</ele>
        <time>2021-08-04T08:21:33.831Z</time>
      </trkpt>
      <trkpt lat="46.9901" lon="8.82426">
        <ele>1214</ele>
        <time>2021-08-04T08:21:34.832Z</time>
      </trkpt>
      <trkpt lat="46.9901" lon="8.82426">
        <ele>1214</ele>
        <time>2021-08-04T08:21:35.831Z</time>
      </trkpt>
      <trkpt lat="46.9901" lon="8.82426">
        <ele>1214</ele>
        <time>2021-08-04T08:21:36.832Z</time>
      </trkpt>
      <trkpt lat="46.9901" lon="8.82426">
        <ele>1216</ele>
        <time>2021-08-04T08:21:37.833Z</time>
      </trkpt>
      <trkpt lat="46.99011" lon="8.82426">
        <ele>1217</ele>
        <time>2021-08-04T08:21:38.832Z</time>
      </trkpt>
      <trkpt lat="46.99011" lon="8.82425">
        <ele>1217</ele>
        <time>2021-08-04T08:21:39.832Z</time>
      </trkpt>
      <trkpt lat="46.99011" lon="8.82425">
        <ele>1218</ele>
        <time>2021-08-04T08:21:40.832Z</time>
      </trkpt>
      <trkpt lat="46.99009" lon="8.82422">
        <ele>1223</ele>
        <time>2021-08-04T08:21:41.834Z</time>
      </trkpt>
      <trkpt lat="46.9901" lon="8.82424">
        <ele>1223</ele>
        <time>2021-08-04T08:21:42.833Z</time>
      </trkpt>
      <trkpt lat="46.9901" lon="8.82425">
        <ele>1223</ele>
        <time>2021-08-04T08:21:43.834Z</time>
      </trkpt>
      <trkpt lat="46.9901" lon="8.82425">
        <ele>1223</ele>
        <time>2021-08-04T08:21:44.834Z</time>
      </trkpt>
      <trkpt lat="46.9901" lon="8.82423">
        <ele>1224</ele>
        <time>2021-08-04T08:21:45.834Z</time>
      </trkpt>
      <trkpt lat="46.99009" lon="8.82423">
        <ele>1225</ele>
        <time>2021-08-04T08:21:46.834Z</time>
      </trkpt>
      <trkpt lat="46.99009" lon="8.82422">
        <ele>1226</ele>
        <time>2021-08-04T08:21:47.833Z</time>
      </trkpt>
      <trkpt lat="46.99009" lon="8.82423">
        <ele>1227</ele>
        <time>2021-08-04T08:21:48.834Z</time>
      </trkpt>
      <trkpt lat="46.99008" lon="8.82421">
        <ele>1230</ele>
        <time>2021-08-04T08:21:49.835Z</time>
      </trkpt>
      <trkpt lat="46.99007" lon="8.82419">
        <ele>1231</ele>
        <time>2021-08-04T08:21:50.835Z</time>
      </trkpt>
      <trkpt lat="46.99007" lon="8.82418">
        <ele>1231</ele>
        <time>2021-08-04T08:21:51.834Z</time>
      </trkpt>
      <trkpt lat="46.99006" lon="8.82418">
        <ele>1231</ele>
        <time>2021-08-04T08:21:52.835Z</time>
      </trkpt>
      <trkpt lat="46.99006" lon="8.82418">
        <ele>1232</ele>
        <time>2021-08-04T08:21:53.835Z</time>
      </trkpt>
      <trkpt lat="46.99006" lon="8.82418">
        <ele>1232</ele>
        <time>2021-08-04T08:21:54.835Z</time>
      </trkpt>
      <trkpt lat="46.99006" lon="8.82418">
        <ele>1232</ele>
        <time>2021-08-04T08:21:55.834Z</time>
      </trkpt>
      <trkpt lat="46.99007" lon="8.82418">
        <ele>1231</ele>
        <time>2021-08-04T08:21:56.834Z</time>
      </trkpt>
      <trkpt lat="46.99007" lon="8.8242">
        <ele>1231</ele>
        <time>2021-08-04T08:21:57.835Z</time>
      </trkpt>
      <trkpt lat="46.99007" lon="8.82421">
        <ele>1230</ele>
        <time>2021-08-04T08:21:58.834Z</time>
      </trkpt>
      <trkpt lat="46.99007" lon="8.82422">
        <ele>1229</ele>
        <time>2021-08-04T08:21:59.834Z</time>
      </trkpt>
      <trkpt lat="46.99007" lon="8.82423">
        <ele>1226</ele>
        <time>2021-08-04T08:22:00.834Z</time>
      </trkpt>
      <trkpt lat="46.99008" lon="8.82422">
        <ele>1226</ele>
        <time>2021-08-04T08:22:01.835Z</time>
      </trkpt>
      <trkpt lat="46.99009" lon="8.82421">
        <ele>1226</ele>
        <time>2021-08-04T08:22:02.834Z</time>
      </trkpt>
      <trkpt lat="46.99009" lon="8.82421">
        <ele>1226</ele>
        <time>2021-08-04T08:22:03.834Z</time>
      </trkpt>
      <trkpt lat="46.9901" lon="8.8242">
        <ele>1226</ele>
        <time>2021-08-04T08:22:04.835Z</time>
      </trkpt>
      <trkpt lat="46.9901" lon="8.82419">
        <ele>1226</ele>
        <time>2021-08-04T08:22:05.834Z</time>
      </trkpt>
      <trkpt lat="46.99011" lon="8.82417">
        <ele>1226</ele>
        <time>2021-08-04T08:22:06.834Z</time>
      </trkpt>
      <trkpt lat="46.99012" lon="8.82417">
        <ele>1226</ele>
        <time>2021-08-04T08:22:07.834Z</time>
      </trkpt>
      <trkpt lat="46.99013" lon="8.82416">
        <ele>1225</ele>
        <time>2021-08-04T08:22:08.835Z</time>
      </trkpt>
      <trkpt lat="46.99014" lon="8.82415">
        <ele>1225</ele>
        <time>2021-08-04T08:22:09.835Z</time>
      </trkpt>
      <trkpt lat="46.99015" lon="8.82414">
        <ele>1225</ele>
        <time>2021-08-04T08:22:10.835Z</time>
      </trkpt>
      <trkpt lat="46.99015" lon="8.82413">
        <ele>1224</ele>
        <time>2021-08-04T08:22:11.835Z</time>
      </trkpt>
      <trkpt lat="46.99016" lon="8.82411">
        <ele>1224</ele>
        <time>2021-08-04T08:22:12.835Z</time>
      </trkpt>
      <trkpt lat="46.99017" lon="8.8241">
        <ele>1224</ele>
        <time>2021-08-04T08:22:13.835Z</time>
      </trkpt>
      <trkpt lat="46.99018" lon="8.82408">
        <ele>1224</ele>
        <time>2021-08-04T08:22:14.834Z</time>
      </trkpt>
      <trkpt lat="46.99018" lon="8.82407">
        <ele>1224</ele>
        <time>2021-08-04T08:22:15.835Z</time>
      </trkpt>
      <trkpt lat="46.99018" lon="8.82405">
        <ele>1224</ele>
        <time>2021-08-04T08:22:16.835Z</time>
      </trkpt>
      <trkpt lat="46.99018" lon="8.82404">
        <ele>1223</ele>
        <time>2021-08-04T08:22:17.834Z</time>
      </trkpt>
      <trkpt lat="46.99019" lon="8.82403">
        <ele>1223</ele>
        <time>2021-08-04T08:22:18.834Z</time>
      </trkpt>
      <trkpt lat="46.99019" lon="8.82401">
        <ele>1223</ele>
        <time>2021-08-04T08:22:19.834Z</time>
      </trkpt>
      <trkpt lat="46.99019" lon="8.82398">
        <ele>1223</ele>
        <time>2021-08-04T08:22:20.834Z</time>
      </trkpt>
      <trkpt lat="46.9902" lon="8.82397">
        <ele>1223</ele>
        <time>2021-08-04T08:22:21.834Z</time>
      </trkpt>
      <trkpt lat="46.9902" lon="8.82395">
        <ele>1224</ele>
        <time>2021-08-04T08:22:22.835Z</time>
      </trkpt>
      <trkpt lat="46.9902" lon="8.82394">
        <ele>1225</ele>
        <time>2021-08-04T08:22:23.834Z</time>
      </trkpt>
      <trkpt lat="46.99021" lon="8.82392">
        <ele>1225</ele>
        <time>2021-08-04T08:22:24.834Z</time>
      </trkpt>
      <trkpt lat="46.99022" lon="8.8239">
        <ele>1225</ele>
        <time>2021-08-04T08:22:25.835Z</time>
      </trkpt>
      <trkpt lat="46.99023" lon="8.82389">
        <ele>1225</ele>
        <time>2021-08-04T08:22:26.835Z</time>
      </trkpt>
      <trkpt lat="46.99023" lon="8.82387">
        <ele>1225</ele>
        <time>2021-08-04T08:22:27.835Z</time>
      </trkpt>
      <trkpt lat="46.99024" lon="8.82386">
        <ele>1225</ele>
        <time>2021-08-04T08:22:28.835Z</time>
      </trkpt>
      <trkpt lat="46.99024" lon="8.82384">
        <ele>1225</ele>
        <time>2021-08-04T08:22:29.834Z</time>
      </trkpt>
      <trkpt lat="46.99024" lon="8.82383">
        <ele>1225</ele>
        <time>2021-08-04T08:22:30.834Z</time>
      </trkpt>
      <trkpt lat="46.99025" lon="8.82383">
        <ele>1224</ele>
        <time>2021-08-04T08:22:31.834Z</time>
      </trkpt>
      <trkpt lat="46.99024" lon="8.82383">
        <ele>1224</ele>
        <time>2021-08-04T08:22:32.835Z</time>
      </trkpt>
      <trkpt lat="46.99024" lon="8.82383">
        <ele>1223</ele>
        <time>2021-08-04T08:22:33.834Z</time>
      </trkpt>
      <trkpt lat="46.99024" lon="8.82383">
        <ele>1223</ele>
        <time>2021-08-04T08:22:34.834Z</time>
      </trkpt>
      <trkpt lat="46.99025" lon="8.82383">
        <ele>1222</ele>
        <time>2021-08-04T08:22:35.834Z</time>
      </trkpt>
      <trkpt lat="46.99025" lon="8.82383">
        <ele>1222</ele>
        <time>2021-08-04T08:22:36.834Z</time>
      </trkpt>
      <trkpt lat="46.99024" lon="8.82382">
        <ele>1221</ele>
        <time>2021-08-04T08:22:37.835Z</time>
      </trkpt>
      <trkpt lat="46.99024" lon="8.8238">
        <ele>1221</ele>
        <time>2021-08-04T08:22:38.836Z</time>
      </trkpt>
      <trkpt lat="46.99024" lon="8.8238">
        <ele>1220</ele>
        <time>2021-08-04T08:22:39.836Z</time>
      </trkpt>
      <trkpt lat="46.99025" lon="8.82379">
        <ele>1220</ele>
        <time>2021-08-04T08:22:40.835Z</time>
      </trkpt>
      <trkpt lat="46.99026" lon="8.82379">
        <ele>1220</ele>
        <time>2021-08-04T08:22:41.835Z</time>
      </trkpt>
      <trkpt lat="46.99027" lon="8.82378">
        <ele>1220</ele>
        <time>2021-08-04T08:22:42.835Z</time>
      </trkpt>
      <trkpt lat="46.99028" lon="8.82377">
        <ele>1220</ele>
        <time>2021-08-04T08:22:43.835Z</time>
      </trkpt>
      <trkpt lat="46.99029" lon="8.82376">
        <ele>1220</ele>
        <time>2021-08-04T08:22:44.835Z</time>
      </trkpt>
      <trkpt lat="46.99029" lon="8.82376">
        <ele>1220</ele>
        <time>2021-08-04T08:22:45.835Z</time>
      </trkpt>
      <trkpt lat="46.9903" lon="8.82374">
        <ele>1219</ele>
        <time>2021-08-04T08:22:46.836Z</time>
      </trkpt>
      <trkpt lat="46.99031" lon="8.82373">
        <ele>1218</ele>
        <time>2021-08-04T08:22:47.836Z</time>
      </trkpt>
      <trkpt lat="46.99031" lon="8.82372">
        <ele>1218</ele>
        <time>2021-08-04T08:22:48.836Z</time>
      </trkpt>
      <trkpt lat="46.99032" lon="8.82371">
        <ele>1218</ele>
        <time>2021-08-04T08:22:49.836Z</time>
      </trkpt>
      <trkpt lat="46.99033" lon="8.8237">
        <ele>1218</ele>
        <time>2021-08-04T08:22:50.836Z</time>
      </trkpt>
      <trkpt lat="46.99034" lon="8.82369">
        <ele>1218</ele>
        <time>2021-08-04T08:22:51.835Z</time>
      </trkpt>
      <trkpt lat="46.99035" lon="8.82368">
        <ele>1218</ele>
        <time>2021-08-04T08:22:52.835Z</time>
      </trkpt>
      <trkpt lat="46.99037" lon="8.82367">
        <ele>1218</ele>
        <time>2021-08-04T08:22:53.836Z</time>
      </trkpt>
      <trkpt lat="46.99038" lon="8.82367">
        <ele>1218</ele>
        <time>2021-08-04T08:22:54.835Z</time>
      </trkpt>
      <trkpt lat="46.99039" lon="8.82366">
        <ele>1217</ele>
        <time>2021-08-04T08:22:55.836Z</time>
      </trkpt>
      <trkpt lat="46.9904" lon="8.82365">
        <ele>1217</ele>
        <time>2021-08-04T08:22:56.835Z</time>
      </trkpt>
      <trkpt lat="46.99041" lon="8.82364">
        <ele>1217</ele>
        <time>2021-08-04T08:22:57.836Z</time>
      </trkpt>
      <trkpt lat="46.99042" lon="8.82363">
        <ele>1217</ele>
        <time>2021-08-04T08:22:58.835Z</time>
      </trkpt>
      <trkpt lat="46.99043" lon="8.82362">
        <ele>1217</ele>
        <time>2021-08-04T08:22:59.836Z</time>
      </trkpt>
      <trkpt lat="46.99044" lon="8.82361">
        <ele>1216</ele>
        <time>2021-08-04T08:23:00.836Z</time>
      </trkpt>
      <trkpt lat="46.99044" lon="8.8236">
        <ele>1216</ele>
        <time>2021-08-04T08:23:01.835Z</time>
      </trkpt>
      <trkpt lat="46.99045" lon="8.82359">
        <ele>1216</ele>
        <time>2021-08-04T08:23:02.835Z</time>
      </trkpt>
      <trkpt lat="46.99047" lon="8.82357">
        <ele>1216</ele>
        <time>2021-08-04T08:23:03.835Z</time>
      </trkpt>
      <trkpt lat="46.99047" lon="8.82356">
        <ele>1216</ele>
        <time>2021-08-04T08:23:04.835Z</time>
      </trkpt>
      <trkpt lat="46.99048" lon="8.82355">
        <ele>1215</ele>
        <time>2021-08-04T08:23:05.835Z</time>
      </trkpt>
      <trkpt lat="46.99049" lon="8.82354">
        <ele>1215</ele>
        <time>2021-08-04T08:23:06.836Z</time>
      </trkpt>
      <trkpt lat="46.9905" lon="8.82353">
        <ele>1215</ele>
        <time>2021-08-04T08:23:07.835Z</time>
      </trkpt>
      <trkpt lat="46.99051" lon="8.82352">
        <ele>1215</ele>
        <time>2021-08-04T08:23:08.836Z</time>
      </trkpt>
      <trkpt lat="46.99052" lon="8.82351">
        <ele>1215</ele>
        <time>2021-08-04T08:23:09.835Z</time>
      </trkpt>
      <trkpt lat="46.99053" lon="8.8235">
        <ele>1214</ele>
        <time>2021-08-04T08:23:10.835Z</time>
      </trkpt>
      <trkpt lat="46.99053" lon="8.82349">
        <ele>1214</ele>
        <time>2021-08-04T08:23:11.835Z</time>
      </trkpt>
      <trkpt lat="46.99054" lon="8.82348">
        <ele>1213</ele>
        <time>2021-08-04T08:23:12.835Z</time>
      </trkpt>
      <trkpt lat="46.99055" lon="8.82347">
        <ele>1213</ele>
        <time>2021-08-04T08:23:13.835Z</time>
      </trkpt>
      <trkpt lat="46.99056" lon="8.82345">
        <ele>1213</ele>
        <time>2021-08-04T08:23:14.836Z</time>
      </trkpt>
      <trkpt lat="46.99056" lon="8.82344">
        <ele>1213</ele>
        <time>2021-08-04T08:23:15.836Z</time>
      </trkpt>
      <trkpt lat="46.99057" lon="8.82343">
        <ele>1213</ele>
        <time>2021-08-04T08:23:16.835Z</time>
      </trkpt>
      <trkpt lat="46.99057" lon="8.82342">
        <ele>1213</ele>
        <time>2021-08-04T08:23:17.835Z</time>
      </trkpt>
      <trkpt lat="46.99058" lon="8.82339">
        <ele>1214</ele>
        <time>2021-08-04T08:23:18.835Z</time>
      </trkpt>
      <trkpt lat="46.99058" lon="8.82338">
        <ele>1215</ele>
        <time>2021-08-04T08:23:19.835Z</time>
      </trkpt>
      <trkpt lat="46.99059" lon="8.82336">
        <ele>1215</ele>
        <time>2021-08-04T08:23:20.835Z</time>
      </trkpt>
      <trkpt lat="46.99059" lon="8.82335">
        <ele>1216</ele>
        <time>2021-08-04T08:23:21.835Z</time>
      </trkpt>
      <trkpt lat="46.99059" lon="8.82334">
        <ele>1216</ele>
        <time>2021-08-04T08:23:22.836Z</time>
      </trkpt>
      <trkpt lat="46.9906" lon="8.82332">
        <ele>1216</ele>
        <time>2021-08-04T08:23:23.835Z</time>
      </trkpt>
      <trkpt lat="46.99061" lon="8.82331">
        <ele>1216</ele>
        <time>2021-08-04T08:23:24.835Z</time>
      </trkpt>
      <trkpt lat="46.99061" lon="8.8233">
        <ele>1217</ele>
        <time>2021-08-04T08:23:25.835Z</time>
      </trkpt>
      <trkpt lat="46.99062" lon="8.82328">
        <ele>1217</ele>
        <time>2021-08-04T08:23:26.835Z</time>
      </trkpt>
      <trkpt lat="46.99062" lon="8.82327">
        <ele>1217</ele>
        <time>2021-08-04T08:23:27.835Z</time>
      </trkpt>
      <trkpt lat="46.99063" lon="8.82326">
        <ele>1216</ele>
        <time>2021-08-04T08:23:28.836Z</time>
      </trkpt>
      <trkpt lat="46.99064" lon="8.82325">
        <ele>1215</ele>
        <time>2021-08-04T08:23:29.835Z</time>
      </trkpt>
      <trkpt lat="46.99064" lon="8.82324">
        <ele>1215</ele>
        <time>2021-08-04T08:23:30.835Z</time>
      </trkpt>
      <trkpt lat="46.99065" lon="8.82323">
        <ele>1214</ele>
        <time>2021-08-04T08:23:31.835Z</time>
      </trkpt>
      <trkpt lat="46.99066" lon="8.82322">
        <ele>1213</ele>
        <time>2021-08-04T08:23:32.835Z</time>
      </trkpt>
      <trkpt lat="46.99067" lon="8.8232">
        <ele>1213</ele>
        <time>2021-08-04T08:23:33.836Z</time>
      </trkpt>
      <trkpt lat="46.99068" lon="8.82319">
        <ele>1213</ele>
        <time>2021-08-04T08:23:34.836Z</time>
      </trkpt>
      <trkpt lat="46.99069" lon="8.82317">
        <ele>1213</ele>
        <time>2021-08-04T08:23:35.836Z</time>
      </trkpt>
      <trkpt lat="46.99069" lon="8.82316">
        <ele>1213</ele>
        <time>2021-08-04T08:23:36.836Z</time>
      </trkpt>
      <trkpt lat="46.9907" lon="8.82315">
        <ele>1213</ele>
        <time>2021-08-04T08:23:37.836Z</time>
      </trkpt>
      <trkpt lat="46.9907" lon="8.82314">
        <ele>1213</ele>
        <time>2021-08-04T08:23:38.835Z</time>
      </trkpt>
      <trkpt lat="46.99071" lon="8.82312">
        <ele>1213</ele>
        <time>2021-08-04T08:23:39.836Z</time>
      </trkpt>
      <trkpt lat="46.99071" lon="8.82311">
        <ele>1213</ele>
        <time>2021-08-04T08:23:40.835Z</time>
      </trkpt>
      <trkpt lat="46.99072" lon="8.82309">
        <ele>1213</ele>
        <time>2021-08-04T08:23:41.836Z</time>
      </trkpt>
      <trkpt lat="46.99073" lon="8.82308">
        <ele>1213</ele>
        <time>2021-08-04T08:23:42.835Z</time>
      </trkpt>
      <trkpt lat="46.99073" lon="8.82306">
        <ele>1214</ele>
        <time>2021-08-04T08:23:43.836Z</time>
      </trkpt>
      <trkpt lat="46.99074" lon="8.82305">
        <ele>1214</ele>
        <time>2021-08-04T08:23:44.836Z</time>
      </trkpt>
      <trkpt lat="46.99074" lon="8.82304">
        <ele>1215</ele>
        <time>2021-08-04T08:23:45.836Z</time>
      </trkpt>
      <trkpt lat="46.99074" lon="8.82303">
        <ele>1215</ele>
        <time>2021-08-04T08:23:46.835Z</time>
      </trkpt>
      <trkpt lat="46.99075" lon="8.82301">
        <ele>1216</ele>
        <time>2021-08-04T08:23:47.835Z</time>
      </trkpt>
      <trkpt lat="46.99076" lon="8.823">
        <ele>1216</ele>
        <time>2021-08-04T08:23:48.835Z</time>
      </trkpt>
      <trkpt lat="46.99076" lon="8.82299">
        <ele>1217</ele>
        <time>2021-08-04T08:23:49.836Z</time>
      </trkpt>
      <trkpt lat="46.99076" lon="8.82298">
        <ele>1217</ele>
        <time>2021-08-04T08:23:50.836Z</time>
      </trkpt>
      <trkpt lat="46.99076" lon="8.82296">
        <ele>1218</ele>
        <time>2021-08-04T08:23:51.835Z</time>
      </trkpt>
      <trkpt lat="46.99075" lon="8.82294">
        <ele>1218</ele>
        <time>2021-08-04T08:23:52.836Z</time>
      </trkpt>
      <trkpt lat="46.99075" lon="8.82293">
        <ele>1218</ele>
        <time>2021-08-04T08:23:53.836Z</time>
      </trkpt>
      <trkpt lat="46.99075" lon="8.82291">
        <ele>1217</ele>
        <time>2021-08-04T08:23:54.835Z</time>
      </trkpt>
      <trkpt lat="46.99075" lon="8.8229">
        <ele>1217</ele>
        <time>2021-08-04T08:23:55.835Z</time>
      </trkpt>
      <trkpt lat="46.99075" lon="8.82288">
        <ele>1217</ele>
        <time>2021-08-04T08:23:56.835Z</time>
      </trkpt>
      <trkpt lat="46.99074" lon="8.82286">
        <ele>1217</ele>
        <time>2021-08-04T08:23:57.836Z</time>
      </trkpt>
      <trkpt lat="46.99073" lon="8.82284">
        <ele>1216</ele>
        <time>2021-08-04T08:23:58.836Z</time>
      </trkpt>
      <trkpt lat="46.99073" lon="8.82283">
        <ele>1216</ele>
        <time>2021-08-04T08:23:59.835Z</time>
      </trkpt>
      <trkpt lat="46.99073" lon="8.82282">
        <ele>1217</ele>
        <time>2021-08-04T08:24:00.835Z</time>
      </trkpt>
      <trkpt lat="46.99073" lon="8.82281">
        <ele>1217</ele>
        <time>2021-08-04T08:24:01.836Z</time>
      </trkpt>
      <trkpt lat="46.99073" lon="8.8228">
        <ele>1217</ele>
        <time>2021-08-04T08:24:02.835Z</time>
      </trkpt>
      <trkpt lat="46.99073" lon="8.82278">
        <ele>1217</ele>
        <time>2021-08-04T08:24:03.836Z</time>
      </trkpt>
      <trkpt lat="46.99073" lon="8.82277">
        <ele>1217</ele>
        <time>2021-08-04T08:24:04.836Z</time>
      </trkpt>
      <trkpt lat="46.99072" lon="8.82276">
        <ele>1218</ele>
        <time>2021-08-04T08:24:05.836Z</time>
      </trkpt>
      <trkpt lat="46.99072" lon="8.82274">
        <ele>1218</ele>
        <time>2021-08-04T08:24:06.836Z</time>
      </trkpt>
      <trkpt lat="46.99072" lon="8.82273">
        <ele>1218</ele>
        <time>2021-08-04T08:24:07.836Z</time>
      </trkpt>
      <trkpt lat="46.99072" lon="8.82271">
        <ele>1218</ele>
        <time>2021-08-04T08:24:08.836Z</time>
      </trkpt>
      <trkpt lat="46.99072" lon="8.8227">
        <ele>1218</ele>
        <time>2021-08-04T08:24:09.836Z</time>
      </trkpt>
      <trkpt lat="46.99071" lon="8.82269">
        <ele>1218</ele>
        <time>2021-08-04T08:24:10.835Z</time>
      </trkpt>
      <trkpt lat="46.99071" lon="8.82268">
        <ele>1218</ele>
        <time>2021-08-04T08:24:11.836Z</time>
      </trkpt>
      <trkpt lat="46.9907" lon="8.82266">
        <ele>1218</ele>
        <time>2021-08-04T08:24:12.836Z</time>
      </trkpt>
      <trkpt lat="46.9907" lon="8.82265">
        <ele>1218</ele>
        <time>2021-08-04T08:24:13.836Z</time>
      </trkpt>
      <trkpt lat="46.9907" lon="8.82264">
        <ele>1219</ele>
        <time>2021-08-04T08:24:14.835Z</time>
      </trkpt>
      <trkpt lat="46.9907" lon="8.82263">
        <ele>1219</ele>
        <time>2021-08-04T08:24:15.836Z</time>
      </trkpt>
      <trkpt lat="46.99071" lon="8.82261">
        <ele>1219</ele>
        <time>2021-08-04T08:24:16.835Z</time>
      </trkpt>
      <trkpt lat="46.99071" lon="8.8226">
        <ele>1219</ele>
        <time>2021-08-04T08:24:17.835Z</time>
      </trkpt>
      <trkpt lat="46.99071" lon="8.82258">
        <ele>1219</ele>
        <time>2021-08-04T08:24:18.835Z</time>
      </trkpt>
      <trkpt lat="46.99071" lon="8.82256">
        <ele>1220</ele>
        <time>2021-08-04T08:24:19.836Z</time>
      </trkpt>
      <trkpt lat="46.99071" lon="8.82255">
        <ele>1220</ele>
        <time>2021-08-04T08:24:20.836Z</time>
      </trkpt>
      <trkpt lat="46.99071" lon="8.82253">
        <ele>1220</ele>
        <time>2021-08-04T08:24:21.836Z</time>
      </trkpt>
      <trkpt lat="46.99072" lon="8.82251">
        <ele>1220</ele>
        <time>2021-08-04T08:24:22.836Z</time>
      </trkpt>
      <trkpt lat="46.99072" lon="8.82249">
        <ele>1220</ele>
        <time>2021-08-04T08:24:23.835Z</time>
      </trkpt>
      <trkpt lat="46.99072" lon="8.82248">
        <ele>1220</ele>
        <time>2021-08-04T08:24:24.836Z</time>
      </trkpt>
      <trkpt lat="46.99072" lon="8.82248">
        <ele>1220</ele>
        <time>2021-08-04T08:24:25.835Z</time>
      </trkpt>
      <trkpt lat="46.99072" lon="8.82247">
        <ele>1221</ele>
        <time>2021-08-04T08:24:26.836Z</time>
      </trkpt>
      <trkpt lat="46.99073" lon="8.82246">
        <ele>1221</ele>
        <time>2021-08-04T08:24:27.836Z</time>
      </trkpt>
      <trkpt lat="46.99073" lon="8.82245">
        <ele>1221</ele>
        <time>2021-08-04T08:24:28.835Z</time>
      </trkpt>
      <trkpt lat="46.99073" lon="8.82243">
        <ele>1221</ele>
        <time>2021-08-04T08:24:29.835Z</time>
      </trkpt>
      <trkpt lat="46.99073" lon="8.82242">
        <ele>1221</ele>
        <time>2021-08-04T08:24:30.835Z</time>
      </trkpt>
      <trkpt lat="46.99073" lon="8.8224">
        <ele>1220</ele>
        <time>2021-08-04T08:24:31.835Z</time>
      </trkpt>
      <trkpt lat="46.99073" lon="8.82238">
        <ele>1220</ele>
        <time>2021-08-04T08:24:32.835Z</time>
      </trkpt>
      <trkpt lat="46.99073" lon="8.82236">
        <ele>1220</ele>
        <time>2021-08-04T08:24:33.836Z</time>
      </trkpt>
      <trkpt lat="46.99073" lon="8.82235">
        <ele>1220</ele>
        <time>2021-08-04T08:24:34.836Z</time>
      </trkpt>
      <trkpt lat="46.99073" lon="8.82233">
        <ele>1220</ele>
        <time>2021-08-04T08:24:35.836Z</time>
      </trkpt>
      <trkpt lat="46.99073" lon="8.82232">
        <ele>1219</ele>
        <time>2021-08-04T08:24:36.835Z</time>
      </trkpt>
      <trkpt lat="46.99073" lon="8.82231">
        <ele>1220</ele>
        <time>2021-08-04T08:24:37.836Z</time>
      </trkpt>
      <trkpt lat="46.99073" lon="8.8223">
        <ele>1220</ele>
        <time>2021-08-04T08:24:38.835Z</time>
      </trkpt>
      <trkpt lat="46.99073" lon="8.82229">
        <ele>1220</ele>
        <time>2021-08-04T08:24:39.836Z</time>
      </trkpt>
      <trkpt lat="46.99073" lon="8.82229">
        <ele>1219</ele>
        <time>2021-08-04T08:24:40.835Z</time>
      </trkpt>
      <trkpt lat="46.99073" lon="8.82228">
        <ele>1219</ele>
        <time>2021-08-04T08:24:41.835Z</time>
      </trkpt>
      <trkpt lat="46.99073" lon="8.82228">
        <ele>1218</ele>
        <time>2021-08-04T08:24:42.835Z</time>
      </trkpt>
      <trkpt lat="46.99073" lon="8.82227">
        <ele>1218</ele>
        <time>2021-08-04T08:24:43.836Z</time>
      </trkpt>
      <trkpt lat="46.99073" lon="8.82226">
        <ele>1218</ele>
        <time>2021-08-04T08:24:44.836Z</time>
      </trkpt>
      <trkpt lat="46.99073" lon="8.82225">
        <ele>1217</ele>
        <time>2021-08-04T08:24:45.835Z</time>
      </trkpt>
      <trkpt lat="46.99074" lon="8.82224">
        <ele>1218</ele>
        <time>2021-08-04T08:24:46.836Z</time>
      </trkpt>
      <trkpt lat="46.99073" lon="8.82224">
        <ele>1218</ele>
        <time>2021-08-04T08:24:47.836Z</time>
      </trkpt>
      <trkpt lat="46.99073" lon="8.82223">
        <ele>1218</ele>
        <time>2021-08-04T08:24:48.836Z</time>
      </trkpt>
      <trkpt lat="46.99073" lon="8.82223">
        <ele>1217</ele>
        <time>2021-08-04T08:24:49.835Z</time>
      </trkpt>
      <trkpt lat="46.99073" lon="8.82222">
        <ele>1217</ele>
        <time>2021-08-04T08:24:50.836Z</time>
      </trkpt>
      <trkpt lat="46.99073" lon="8.82222">
        <ele>1217</ele>
        <time>2021-08-04T08:24:51.836Z</time>
      </trkpt>
      <trkpt lat="46.99072" lon="8.82222">
        <ele>1217</ele>
        <time>2021-08-04T08:24:52.835Z</time>
      </trkpt>
      <trkpt lat="46.99075" lon="8.82223">
        <ele>1216</ele>
        <time>2021-08-04T08:24:53.837Z</time>
      </trkpt>
      <trkpt lat="46.99075" lon="8.82222">
        <ele>1216</ele>
        <time>2021-08-04T08:24:54.837Z</time>
      </trkpt>
      <trkpt lat="46.99075" lon="8.82221">
        <ele>1216</ele>
        <time>2021-08-04T08:24:55.837Z</time>
      </trkpt>
      <trkpt lat="46.99075" lon="8.8222">
        <ele>1216</ele>
        <time>2021-08-04T08:24:56.837Z</time>
      </trkpt>
      <trkpt lat="46.99075" lon="8.82218">
        <ele>1216</ele>
        <time>2021-08-04T08:24:57.837Z</time>
      </trkpt>
      <trkpt lat="46.99075" lon="8.82216">
        <ele>1216</ele>
        <time>2021-08-04T08:24:58.837Z</time>
      </trkpt>
      <trkpt lat="46.99074" lon="8.82215">
        <ele>1216</ele>
        <time>2021-08-04T08:24:59.836Z</time>
      </trkpt>
      <trkpt lat="46.99074" lon="8.82214">
        <ele>1216</ele>
        <time>2021-08-04T08:25:00.837Z</time>
      </trkpt>
      <trkpt lat="46.99074" lon="8.82212">
        <ele>1216</ele>
        <time>2021-08-04T08:25:01.837Z</time>
      </trkpt>
      <trkpt lat="46.99074" lon="8.82211">
        <ele>1216</ele>
        <time>2021-08-04T08:25:02.837Z</time>
      </trkpt>
      <trkpt lat="46.99074" lon="8.82209">
        <ele>1216</ele>
        <time>2021-08-04T08:25:03.836Z</time>
      </trkpt>
      <trkpt lat="46.99074" lon="8.82208">
        <ele>1216</ele>
        <time>2021-08-04T08:25:04.837Z</time>
      </trkpt>
      <trkpt lat="46.99075" lon="8.82206">
        <ele>1216</ele>
        <time>2021-08-04T08:25:05.837Z</time>
      </trkpt>
      <trkpt lat="46.99075" lon="8.82205">
        <ele>1216</ele>
        <time>2021-08-04T08:25:06.837Z</time>
      </trkpt>
      <trkpt lat="46.99076" lon="8.82204">
        <ele>1216</ele>
        <time>2021-08-04T08:25:07.836Z</time>
      </trkpt>
      <trkpt lat="46.99076" lon="8.82202">
        <ele>1216</ele>
        <time>2021-08-04T08:25:08.836Z</time>
      </trkpt>
      <trkpt lat="46.99076" lon="8.822">
        <ele>1217</ele>
        <time>2021-08-04T08:25:09.837Z</time>
      </trkpt>
      <trkpt lat="46.99076" lon="8.82199">
        <ele>1217</ele>
        <time>2021-08-04T08:25:10.836Z</time>
      </trkpt>
      <trkpt lat="46.99076" lon="8.82197">
        <ele>1217</ele>
        <time>2021-08-04T08:25:11.836Z</time>
      </trkpt>
      <trkpt lat="46.99075" lon="8.82196">
        <ele>1217</ele>
        <time>2021-08-04T08:25:12.837Z</time>
      </trkpt>
      <trkpt lat="46.99075" lon="8.82194">
        <ele>1218</ele>
        <time>2021-08-04T08:25:13.836Z</time>
      </trkpt>
      <trkpt lat="46.99075" lon="8.82192">
        <ele>1218</ele>
        <time>2021-08-04T08:25:14.836Z</time>
      </trkpt>
      <trkpt lat="46.99075" lon="8.82191">
        <ele>1218</ele>
        <time>2021-08-04T08:25:15.836Z</time>
      </trkpt>
      <trkpt lat="46.99075" lon="8.82189">
        <ele>1218</ele>
        <time>2021-08-04T08:25:16.836Z</time>
      </trkpt>
      <trkpt lat="46.99075" lon="8.82188">
        <ele>1219</ele>
        <time>2021-08-04T08:25:17.836Z</time>
      </trkpt>
      <trkpt lat="46.99075" lon="8.82185">
        <ele>1219</ele>
        <time>2021-08-04T08:25:18.836Z</time>
      </trkpt>
      <trkpt lat="46.99076" lon="8.82184">
        <ele>1220</ele>
        <time>2021-08-04T08:25:19.837Z</time>
      </trkpt>
      <trkpt lat="46.99076" lon="8.82183">
        <ele>1220</ele>
        <time>2021-08-04T08:25:20.836Z</time>
      </trkpt>
      <trkpt lat="46.99076" lon="8.82181">
        <ele>1221</ele>
        <time>2021-08-04T08:25:21.836Z</time>
      </trkpt>
      <trkpt lat="46.99076" lon="8.82179">
        <ele>1221</ele>
        <time>2021-08-04T08:25:22.837Z</time>
      </trkpt>
      <trkpt lat="46.99077" lon="8.82178">
        <ele>1220</ele>
        <time>2021-08-04T08:25:23.837Z</time>
      </trkpt>
      <trkpt lat="46.99077" lon="8.82176">
        <ele>1220</ele>
        <time>2021-08-04T08:25:24.836Z</time>
      </trkpt>
      <trkpt lat="46.99078" lon="8.82175">
        <ele>1220</ele>
        <time>2021-08-04T08:25:25.836Z</time>
      </trkpt>
      <trkpt lat="46.99078" lon="8.82173">
        <ele>1220</ele>
        <time>2021-08-04T08:25:26.837Z</time>
      </trkpt>
      <trkpt lat="46.99078" lon="8.82172">
        <ele>1219</ele>
        <time>2021-08-04T08:25:27.836Z</time>
      </trkpt>
      <trkpt lat="46.99079" lon="8.82171">
        <ele>1219</ele>
        <time>2021-08-04T08:25:28.836Z</time>
      </trkpt>
      <trkpt lat="46.99079" lon="8.8217">
        <ele>1219</ele>
        <time>2021-08-04T08:25:29.837Z</time>
      </trkpt>
      <trkpt lat="46.99079" lon="8.82169">
        <ele>1219</ele>
        <time>2021-08-04T08:25:30.837Z</time>
      </trkpt>
      <trkpt lat="46.99079" lon="8.82168">
        <ele>1219</ele>
        <time>2021-08-04T08:25:31.836Z</time>
      </trkpt>
      <trkpt lat="46.9908" lon="8.82166">
        <ele>1219</ele>
        <time>2021-08-04T08:25:32.836Z</time>
      </trkpt>
      <trkpt lat="46.9908" lon="8.82165">
        <ele>1219</ele>
        <time>2021-08-04T08:25:33.836Z</time>
      </trkpt>
      <trkpt lat="46.9908" lon="8.82163">
        <ele>1219</ele>
        <time>2021-08-04T08:25:34.837Z</time>
      </trkpt>
      <trkpt lat="46.9908" lon="8.82162">
        <ele>1219</ele>
        <time>2021-08-04T08:25:35.837Z</time>
      </trkpt>
      <trkpt lat="46.9908" lon="8.8216">
        <ele>1219</ele>
        <time>2021-08-04T08:25:36.837Z</time>
      </trkpt>
      <trkpt lat="46.9908" lon="8.82158">
        <ele>1219</ele>
        <time>2021-08-04T08:25:37.836Z</time>
      </trkpt>
      <trkpt lat="46.99079" lon="8.82156">
        <ele>1219</ele>
        <time>2021-08-04T08:25:38.837Z</time>
      </trkpt>
      <trkpt lat="46.99078" lon="8.82155">
        <ele>1218</ele>
        <time>2021-08-04T08:25:39.836Z</time>
      </trkpt>
      <trkpt lat="46.99078" lon="8.82154">
        <ele>1218</ele>
        <time>2021-08-04T08:25:40.837Z</time>
      </trkpt>
      <trkpt lat="46.99077" lon="8.82152">
        <ele>1217</ele>
        <time>2021-08-04T08:25:41.837Z</time>
      </trkpt>
      <trkpt lat="46.99076" lon="8.82151">
        <ele>1217</ele>
        <time>2021-08-04T08:25:42.837Z</time>
      </trkpt>
      <trkpt lat="46.99076" lon="8.8215">
        <ele>1216</ele>
        <time>2021-08-04T08:25:43.836Z</time>
      </trkpt>
      <trkpt lat="46.99075" lon="8.82148">
        <ele>1216</ele>
        <time>2021-08-04T08:25:44.837Z</time>
      </trkpt>
      <trkpt lat="46.99075" lon="8.82147">
        <ele>1216</ele>
        <time>2021-08-04T08:25:45.837Z</time>
      </trkpt>
      <trkpt lat="46.99074" lon="8.82145">
        <ele>1216</ele>
        <time>2021-08-04T08:25:46.836Z</time>
      </trkpt>
      <trkpt lat="46.99074" lon="8.82144">
        <ele>1216</ele>
        <time>2021-08-04T08:25:47.837Z</time>
      </trkpt>
      <trkpt lat="46.99074" lon="8.82143">
        <ele>1216</ele>
        <time>2021-08-04T08:25:48.836Z</time>
      </trkpt>
      <trkpt lat="46.99073" lon="8.82141">
        <ele>1216</ele>
        <time>2021-08-04T08:25:49.836Z</time>
      </trkpt>
      <trkpt lat="46.99074" lon="8.82139">
        <ele>1215</ele>
        <time>2021-08-04T08:25:50.837Z</time>
      </trkpt>
      <trkpt lat="46.99074" lon="8.82137">
        <ele>1215</ele>
        <time>2021-08-04T08:25:51.836Z</time>
      </trkpt>
      <trkpt lat="46.99075" lon="8.82135">
        <ele>1215</ele>
        <time>2021-08-04T08:25:52.836Z</time>
      </trkpt>
      <trkpt lat="46.99075" lon="8.82134">
        <ele>1215</ele>
        <time>2021-08-04T08:25:53.836Z</time>
      </trkpt>
      <trkpt lat="46.99076" lon="8.82132">
        <ele>1216</ele>
        <time>2021-08-04T08:25:54.836Z</time>
      </trkpt>
      <trkpt lat="46.99076" lon="8.82131">
        <ele>1215</ele>
        <time>2021-08-04T08:25:55.836Z</time>
      </trkpt>
      <trkpt lat="46.99077" lon="8.82129">
        <ele>1215</ele>
        <time>2021-08-04T08:25:56.836Z</time>
      </trkpt>
      <trkpt lat="46.99077" lon="8.82127">
        <ele>1215</ele>
        <time>2021-08-04T08:25:57.836Z</time>
      </trkpt>
      <trkpt lat="46.99077" lon="8.82125">
        <ele>1216</ele>
        <time>2021-08-04T08:25:58.837Z</time>
      </trkpt>
      <trkpt lat="46.99078" lon="8.82124">
        <ele>1216</ele>
        <time>2021-08-04T08:25:59.837Z</time>
      </trkpt>
      <trkpt lat="46.99078" lon="8.82122">
        <ele>1217</ele>
        <time>2021-08-04T08:26:00.836Z</time>
      </trkpt>
      <trkpt lat="46.99078" lon="8.8212">
        <ele>1218</ele>
        <time>2021-08-04T08:26:01.836Z</time>
      </trkpt>
      <trkpt lat="46.99077" lon="8.82119">
        <ele>1218</ele>
        <time>2021-08-04T08:26:02.836Z</time>
      </trkpt>
      <trkpt lat="46.99077" lon="8.82117">
        <ele>1218</ele>
        <time>2021-08-04T08:26:03.836Z</time>
      </trkpt>
      <trkpt lat="46.99076" lon="8.82116">
        <ele>1219</ele>
        <time>2021-08-04T08:26:04.836Z</time>
      </trkpt>
      <trkpt lat="46.99076" lon="8.82115">
        <ele>1220</ele>
        <time>2021-08-04T08:26:05.837Z</time>
      </trkpt>
      <trkpt lat="46.99075" lon="8.82113">
        <ele>1220</ele>
        <time>2021-08-04T08:26:06.836Z</time>
      </trkpt>
      <trkpt lat="46.99075" lon="8.82112">
        <ele>1220</ele>
        <time>2021-08-04T08:26:07.836Z</time>
      </trkpt>
      <trkpt lat="46.99076" lon="8.82111">
        <ele>1221</ele>
        <time>2021-08-04T08:26:08.837Z</time>
      </trkpt>
      <trkpt lat="46.99076" lon="8.8211">
        <ele>1221</ele>
        <time>2021-08-04T08:26:09.836Z</time>
      </trkpt>
      <trkpt lat="46.99077" lon="8.82108">
        <ele>1221</ele>
        <time>2021-08-04T08:26:10.836Z</time>
      </trkpt>
      <trkpt lat="46.99078" lon="8.82107">
        <ele>1221</ele>
        <time>2021-08-04T08:26:11.836Z</time>
      </trkpt>
      <trkpt lat="46.99078" lon="8.82106">
        <ele>1221</ele>
        <time>2021-08-04T08:26:12.836Z</time>
      </trkpt>
      <trkpt lat="46.99078" lon="8.82105">
        <ele>1221</ele>
        <time>2021-08-04T08:26:13.836Z</time>
      </trkpt>
      <trkpt lat="46.99078" lon="8.82103">
        <ele>1221</ele>
        <time>2021-08-04T08:26:14.836Z</time>
      </trkpt>
      <trkpt lat="46.99077" lon="8.82102">
        <ele>1221</ele>
        <time>2021-08-04T08:26:15.836Z</time>
      </trkpt>
      <trkpt lat="46.99077" lon="8.821">
        <ele>1221</ele>
        <time>2021-08-04T08:26:16.836Z</time>
      </trkpt>
      <trkpt lat="46.99076" lon="8.82099">
        <ele>1220</ele>
        <time>2021-08-04T08:26:17.836Z</time>
      </trkpt>
      <trkpt lat="46.99076" lon="8.82099">
        <ele>1220</ele>
        <time>2021-08-04T08:26:18.836Z</time>
      </trkpt>
      <trkpt lat="46.99075" lon="8.82098">
        <ele>1220</ele>
        <time>2021-08-04T08:26:19.836Z</time>
      </trkpt>
      <trkpt lat="46.99074" lon="8.82097">
        <ele>1220</ele>
        <time>2021-08-04T08:26:20.836Z</time>
      </trkpt>
      <trkpt lat="46.99074" lon="8.82096">
        <ele>1220</ele>
        <time>2021-08-04T08:26:21.836Z</time>
      </trkpt>
      <trkpt lat="46.99073" lon="8.82096">
        <ele>1219</ele>
        <time>2021-08-04T08:26:22.836Z</time>
      </trkpt>
      <trkpt lat="46.99072" lon="8.82095">
        <ele>1219</ele>
        <time>2021-08-04T08:26:23.836Z</time>
      </trkpt>
      <trkpt lat="46.99071" lon="8.82093">
        <ele>1219</ele>
        <time>2021-08-04T08:26:24.837Z</time>
      </trkpt>
      <trkpt lat="46.9907" lon="8.82092">
        <ele>1219</ele>
        <time>2021-08-04T08:26:25.837Z</time>
      </trkpt>
      <trkpt lat="46.9907" lon="8.82091">
        <ele>1219</ele>
        <time>2021-08-04T08:26:26.836Z</time>
      </trkpt>
      <trkpt lat="46.99069" lon="8.8209">
        <ele>1219</ele>
        <time>2021-08-04T08:26:27.836Z</time>
      </trkpt>
      <trkpt lat="46.99069" lon="8.82088">
        <ele>1218</ele>
        <time>2021-08-04T08:26:28.836Z</time>
      </trkpt>
      <trkpt lat="46.99069" lon="8.82087">
        <ele>1218</ele>
        <time>2021-08-04T08:26:29.837Z</time>
      </trkpt>
      <trkpt lat="46.99069" lon="8.82086">
        <ele>1218</ele>
        <time>2021-08-04T08:26:30.837Z</time>
      </trkpt>
      <trkpt lat="46.9907" lon="8.82084">
        <ele>1219</ele>
        <time>2021-08-04T08:26:31.836Z</time>
      </trkpt>
      <trkpt lat="46.9907" lon="8.82083">
        <ele>1219</ele>
        <time>2021-08-04T08:26:32.836Z</time>
      </trkpt>
      <trkpt lat="46.99071" lon="8.82082">
        <ele>1219</ele>
        <time>2021-08-04T08:26:33.836Z</time>
      </trkpt>
      <trkpt lat="46.99071" lon="8.8208">
        <ele>1219</ele>
        <time>2021-08-04T08:26:34.836Z</time>
      </trkpt>
      <trkpt lat="46.99072" lon="8.82079">
        <ele>1219</ele>
        <time>2021-08-04T08:26:35.837Z</time>
      </trkpt>
      <trkpt lat="46.99072" lon="8.82078">
        <ele>1219</ele>
        <time>2021-08-04T08:26:36.836Z</time>
      </trkpt>
      <trkpt lat="46.99073" lon="8.82077">
        <ele>1219</ele>
        <time>2021-08-04T08:26:37.836Z</time>
      </trkpt>
      <trkpt lat="46.99073" lon="8.82075">
        <ele>1219</ele>
        <time>2021-08-04T08:26:38.836Z</time>
      </trkpt>
      <trkpt lat="46.99074" lon="8.82074">
        <ele>1219</ele>
        <time>2021-08-04T08:26:39.837Z</time>
      </trkpt>
      <trkpt lat="46.99074" lon="8.82072">
        <ele>1219</ele>
        <time>2021-08-04T08:26:40.836Z</time>
      </trkpt>
      <trkpt lat="46.99074" lon="8.82072">
        <ele>1219</ele>
        <time>2021-08-04T08:26:41.836Z</time>
      </trkpt>
      <trkpt lat="46.99075" lon="8.82071">
        <ele>1219</ele>
        <time>2021-08-04T08:26:42.836Z</time>
      </trkpt>
      <trkpt lat="46.99075" lon="8.8207">
        <ele>1220</ele>
        <time>2021-08-04T08:26:43.836Z</time>
      </trkpt>
      <trkpt lat="46.99075" lon="8.82068">
        <ele>1220</ele>
        <time>2021-08-04T08:26:44.836Z</time>
      </trkpt>
      <trkpt lat="46.99075" lon="8.82067">
        <ele>1221</ele>
        <time>2021-08-04T08:26:45.836Z</time>
      </trkpt>
      <trkpt lat="46.99075" lon="8.82066">
        <ele>1221</ele>
        <time>2021-08-04T08:26:46.836Z</time>
      </trkpt>
      <trkpt lat="46.99075" lon="8.82065">
        <ele>1222</ele>
        <time>2021-08-04T08:26:47.836Z</time>
      </trkpt>
      <trkpt lat="46.99075" lon="8.82063">
        <ele>1222</ele>
        <time>2021-08-04T08:26:48.836Z</time>
      </trkpt>
      <trkpt lat="46.99075" lon="8.82062">
        <ele>1222</ele>
        <time>2021-08-04T08:26:49.836Z</time>
      </trkpt>
      <trkpt lat="46.99075" lon="8.8206">
        <ele>1223</ele>
        <time>2021-08-04T08:26:50.836Z</time>
      </trkpt>
      <trkpt lat="46.99075" lon="8.82058">
        <ele>1223</ele>
        <time>2021-08-04T08:26:51.836Z</time>
      </trkpt>
      <trkpt lat="46.99075" lon="8.82057">
        <ele>1223</ele>
        <time>2021-08-04T08:26:52.837Z</time>
      </trkpt>
      <trkpt lat="46.99075" lon="8.82056">
        <ele>1223</ele>
        <time>2021-08-04T08:26:53.837Z</time>
      </trkpt>
      <trkpt lat="46.99076" lon="8.82056">
        <ele>1223</ele>
        <time>2021-08-04T08:26:54.837Z</time>
      </trkpt>
      <trkpt lat="46.99076" lon="8.82055">
        <ele>1222</ele>
        <time>2021-08-04T08:26:55.836Z</time>
      </trkpt>
      <trkpt lat="46.99077" lon="8.82054">
        <ele>1222</ele>
        <time>2021-08-04T08:26:56.837Z</time>
      </trkpt>
      <trkpt lat="46.99077" lon="8.82054">
        <ele>1222</ele>
        <time>2021-08-04T08:26:57.837Z</time>
      </trkpt>
      <trkpt lat="46.99078" lon="8.82052">
        <ele>1222</ele>
        <time>2021-08-04T08:26:58.837Z</time>
      </trkpt>
      <trkpt lat="46.9908" lon="8.82051">
        <ele>1222</ele>
        <time>2021-08-04T08:26:59.836Z</time>
      </trkpt>
      <trkpt lat="46.99081" lon="8.8205">
        <ele>1222</ele>
        <time>2021-08-04T08:27:00.837Z</time>
      </trkpt>
      <trkpt lat="46.99081" lon="8.82049">
        <ele>1222</ele>
        <time>2021-08-04T08:27:01.836Z</time>
      </trkpt>
      <trkpt lat="46.99082" lon="8.82048">
        <ele>1222</ele>
        <time>2021-08-04T08:27:02.836Z</time>
      </trkpt>
      <trkpt lat="46.99083" lon="8.82047">
        <ele>1222</ele>
        <time>2021-08-04T08:27:03.837Z</time>
      </trkpt>
      <trkpt lat="46.99084" lon="8.82046">
        <ele>1222</ele>
        <time>2021-08-04T08:27:04.836Z</time>
      </trkpt>
      <trkpt lat="46.99085" lon="8.82045">
        <ele>1222</ele>
        <time>2021-08-04T08:27:05.836Z</time>
      </trkpt>
      <trkpt lat="46.99085" lon="8.82043">
        <ele>1222</ele>
        <time>2021-08-04T08:27:06.837Z</time>
      </trkpt>
      <trkpt lat="46.99086" lon="8.82042">
        <ele>1221</ele>
        <time>2021-08-04T08:27:07.837Z</time>
      </trkpt>
      <trkpt lat="46.99087" lon="8.8204">
        <ele>1221</ele>
        <time>2021-08-04T08:27:08.837Z</time>
      </trkpt>
      <trkpt lat="46.99087" lon="8.82039">
        <ele>1221</ele>
        <time>2021-08-04T08:27:09.836Z</time>
      </trkpt>
      <trkpt lat="46.99088" lon="8.82038">
        <ele>1221</ele>
        <time>2021-08-04T08:27:10.837Z</time>
      </trkpt>
      <trkpt lat="46.99088" lon="8.82037">
        <ele>1221</ele>
        <time>2021-08-04T08:27:11.836Z</time>
      </trkpt>
      <trkpt lat="46.99089" lon="8.82035">
        <ele>1221</ele>
        <time>2021-08-04T08:27:12.836Z</time>
      </trkpt>
      <trkpt lat="46.99089" lon="8.82034">
        <ele>1221</ele>
        <time>2021-08-04T08:27:13.837Z</time>
      </trkpt>
      <trkpt lat="46.9909" lon="8.82032">
        <ele>1221</ele>
        <time>2021-08-04T08:27:14.836Z</time>
      </trkpt>
      <trkpt lat="46.9909" lon="8.8203">
        <ele>1221</ele>
        <time>2021-08-04T08:27:15.836Z</time>
      </trkpt>
      <trkpt lat="46.99091" lon="8.82029">
        <ele>1222</ele>
        <time>2021-08-04T08:27:16.837Z</time>
      </trkpt>
      <trkpt lat="46.99092" lon="8.82028">
        <ele>1222</ele>
        <time>2021-08-04T08:27:17.837Z</time>
      </trkpt>
      <trkpt lat="46.99092" lon="8.82026">
        <ele>1223</ele>
        <time>2021-08-04T08:27:18.836Z</time>
      </trkpt>
      <trkpt lat="46.99093" lon="8.82024">
        <ele>1223</ele>
        <time>2021-08-04T08:27:19.836Z</time>
      </trkpt>
      <trkpt lat="46.99093" lon="8.82023">
        <ele>1224</ele>
        <time>2021-08-04T08:27:20.837Z</time>
      </trkpt>
      <trkpt lat="46.99094" lon="8.82021">
        <ele>1224</ele>
        <time>2021-08-04T08:27:21.837Z</time>
      </trkpt>
      <trkpt lat="46.99095" lon="8.8202">
        <ele>1224</ele>
        <time>2021-08-04T08:27:22.837Z</time>
      </trkpt>
      <trkpt lat="46.99095" lon="8.82018">
        <ele>1225</ele>
        <time>2021-08-04T08:27:23.837Z</time>
      </trkpt>
      <trkpt lat="46.99095" lon="8.82017">
        <ele>1225</ele>
        <time>2021-08-04T08:27:24.837Z</time>
      </trkpt>
      <trkpt lat="46.99096" lon="8.82015">
        <ele>1225</ele>
        <time>2021-08-04T08:27:25.836Z</time>
      </trkpt>
      <trkpt lat="46.99097" lon="8.82014">
        <ele>1224</ele>
        <time>2021-08-04T08:27:26.837Z</time>
      </trkpt>
      <trkpt lat="46.99098" lon="8.82012">
        <ele>1224</ele>
        <time>2021-08-04T08:27:27.837Z</time>
      </trkpt>
      <trkpt lat="46.99098" lon="8.82012">
        <ele>1224</ele>
        <time>2021-08-04T08:27:28.836Z</time>
      </trkpt>
      <trkpt lat="46.99099" lon="8.82011">
        <ele>1224</ele>
        <time>2021-08-04T08:27:29.837Z</time>
      </trkpt>
      <trkpt lat="46.99099" lon="8.8201">
        <ele>1223</ele>
        <time>2021-08-04T08:27:30.836Z</time>
      </trkpt>
      <trkpt lat="46.99098" lon="8.82008">
        <ele>1223</ele>
        <time>2021-08-04T08:27:31.837Z</time>
      </trkpt>
      <trkpt lat="46.99098" lon="8.82007">
        <ele>1223</ele>
        <time>2021-08-04T08:27:32.837Z</time>
      </trkpt>
      <trkpt lat="46.99099" lon="8.82006">
        <ele>1223</ele>
        <time>2021-08-04T08:27:33.836Z</time>
      </trkpt>
      <trkpt lat="46.991" lon="8.82005">
        <ele>1223</ele>
        <time>2021-08-04T08:27:34.837Z</time>
      </trkpt>
      <trkpt lat="46.991" lon="8.82004">
        <ele>1223</ele>
        <time>2021-08-04T08:27:35.837Z</time>
      </trkpt>
      <trkpt lat="46.991" lon="8.82001">
        <ele>1223</ele>
        <time>2021-08-04T08:27:36.837Z</time>
      </trkpt>
      <trkpt lat="46.991" lon="8.81999">
        <ele>1222</ele>
        <time>2021-08-04T08:27:37.836Z</time>
      </trkpt>
      <trkpt lat="46.99099" lon="8.81996">
        <ele>1222</ele>
        <time>2021-08-04T08:27:38.837Z</time>
      </trkpt>
      <trkpt lat="46.99099" lon="8.81994">
        <ele>1222</ele>
        <time>2021-08-04T08:27:39.837Z</time>
      </trkpt>
      <trkpt lat="46.99098" lon="8.81992">
        <ele>1221</ele>
        <time>2021-08-04T08:27:40.837Z</time>
      </trkpt>
      <trkpt lat="46.99098" lon="8.8199">
        <ele>1221</ele>
        <time>2021-08-04T08:27:41.837Z</time>
      </trkpt>
      <trkpt lat="46.99098" lon="8.81989">
        <ele>1221</ele>
        <time>2021-08-04T08:27:42.836Z</time>
      </trkpt>
      <trkpt lat="46.99098" lon="8.81987">
        <ele>1221</ele>
        <time>2021-08-04T08:27:43.837Z</time>
      </trkpt>
      <trkpt lat="46.99097" lon="8.81986">
        <ele>1221</ele>
        <time>2021-08-04T08:27:44.837Z</time>
      </trkpt>
      <trkpt lat="46.99097" lon="8.81984">
        <ele>1221</ele>
        <time>2021-08-04T08:27:45.837Z</time>
      </trkpt>
      <trkpt lat="46.99096" lon="8.81982">
        <ele>1221</ele>
        <time>2021-08-04T08:27:46.837Z</time>
      </trkpt>
      <trkpt lat="46.99096" lon="8.81981">
        <ele>1221</ele>
        <time>2021-08-04T08:27:47.837Z</time>
      </trkpt>
      <trkpt lat="46.99096" lon="8.81979">
        <ele>1221</ele>
        <time>2021-08-04T08:27:48.837Z</time>
      </trkpt>
      <trkpt lat="46.99096" lon="8.81977">
        <ele>1221</ele>
        <time>2021-08-04T08:27:49.837Z</time>
      </trkpt>
      <trkpt lat="46.99095" lon="8.81976">
        <ele>1220</ele>
        <time>2021-08-04T08:27:50.836Z</time>
      </trkpt>
      <trkpt lat="46.99094" lon="8.81974">
        <ele>1220</ele>
        <time>2021-08-04T08:27:51.836Z</time>
      </trkpt>
      <trkpt lat="46.99094" lon="8.81972">
        <ele>1220</ele>
        <time>2021-08-04T08:27:52.837Z</time>
      </trkpt>
      <trkpt lat="46.99093" lon="8.8197">
        <ele>1220</ele>
        <time>2021-08-04T08:27:53.837Z</time>
      </trkpt>
      <trkpt lat="46.99093" lon="8.81969">
        <ele>1220</ele>
        <time>2021-08-04T08:27:54.836Z</time>
      </trkpt>
      <trkpt lat="46.99092" lon="8.81969">
        <ele>1221</ele>
        <time>2021-08-04T08:27:55.837Z</time>
      </trkpt>
      <trkpt lat="46.99092" lon="8.81968">
        <ele>1221</ele>
        <time>2021-08-04T08:27:56.836Z</time>
      </trkpt>
      <trkpt lat="46.99091" lon="8.81967">
        <ele>1221</ele>
        <time>2021-08-04T08:27:57.837Z</time>
      </trkpt>
      <trkpt lat="46.99091" lon="8.81966">
        <ele>1221</ele>
        <time>2021-08-04T08:27:58.836Z</time>
      </trkpt>
      <trkpt lat="46.99092" lon="8.81965">
        <ele>1221</ele>
        <time>2021-08-04T08:27:59.837Z</time>
      </trkpt>
      <trkpt lat="46.99092" lon="8.81964">
        <ele>1221</ele>
        <time>2021-08-04T08:28:00.837Z</time>
      </trkpt>
      <trkpt lat="46.99091" lon="8.81962">
        <ele>1221</ele>
        <time>2021-08-04T08:28:01.837Z</time>
      </trkpt>
      <trkpt lat="46.99091" lon="8.8196">
        <ele>1221</ele>
        <time>2021-08-04T08:28:02.836Z</time>
      </trkpt>
      <trkpt lat="46.99091" lon="8.81958">
        <ele>1220</ele>
        <time>2021-08-04T08:28:03.836Z</time>
      </trkpt>
      <trkpt lat="46.99091" lon="8.81956">
        <ele>1220</ele>
        <time>2021-08-04T08:28:04.836Z</time>
      </trkpt>
      <trkpt lat="46.99091" lon="8.81954">
        <ele>1220</ele>
        <time>2021-08-04T08:28:05.836Z</time>
      </trkpt>
      <trkpt lat="46.99091" lon="8.81952">
        <ele>1219</ele>
        <time>2021-08-04T08:28:06.837Z</time>
      </trkpt>
      <trkpt lat="46.99091" lon="8.8195">
        <ele>1219</ele>
        <time>2021-08-04T08:28:07.837Z</time>
      </trkpt>
      <trkpt lat="46.99092" lon="8.81949">
        <ele>1219</ele>
        <time>2021-08-04T08:28:08.837Z</time>
      </trkpt>
      <trkpt lat="46.99092" lon="8.81948">
        <ele>1218</ele>
        <time>2021-08-04T08:28:09.836Z</time>
      </trkpt>
      <trkpt lat="46.99092" lon="8.81948">
        <ele>1218</ele>
        <time>2021-08-04T08:28:10.837Z</time>
      </trkpt>
      <trkpt lat="46.99092" lon="8.81949">
        <ele>1218</ele>
        <time>2021-08-04T08:28:11.836Z</time>
      </trkpt>
      <trkpt lat="46.99093" lon="8.8195">
        <ele>1218</ele>
        <time>2021-08-04T08:28:12.837Z</time>
      </trkpt>
      <trkpt lat="46.99093" lon="8.81949">
        <ele>1217</ele>
        <time>2021-08-04T08:28:13.837Z</time>
      </trkpt>
      <trkpt lat="46.99094" lon="8.81948">
        <ele>1217</ele>
        <time>2021-08-04T08:28:14.837Z</time>
      </trkpt>
      <trkpt lat="46.99095" lon="8.81947">
        <ele>1217</ele>
        <time>2021-08-04T08:28:15.836Z</time>
      </trkpt>
      <trkpt lat="46.99095" lon="8.81945">
        <ele>1217</ele>
        <time>2021-08-04T08:28:16.837Z</time>
      </trkpt>
      <trkpt lat="46.99095" lon="8.81944">
        <ele>1217</ele>
        <time>2021-08-04T08:28:17.837Z</time>
      </trkpt>
      <trkpt lat="46.99096" lon="8.81944">
        <ele>1217</ele>
        <time>2021-08-04T08:28:18.836Z</time>
      </trkpt>
      <trkpt lat="46.99096" lon="8.81943">
        <ele>1217</ele>
        <time>2021-08-04T08:28:19.837Z</time>
      </trkpt>
      <trkpt lat="46.99096" lon="8.81942">
        <ele>1217</ele>
        <time>2021-08-04T08:28:20.837Z</time>
      </trkpt>
      <trkpt lat="46.99096" lon="8.81941">
        <ele>1217</ele>
        <time>2021-08-04T08:28:21.837Z</time>
      </trkpt>
      <trkpt lat="46.99096" lon="8.8194">
        <ele>1217</ele>
        <time>2021-08-04T08:28:22.836Z</time>
      </trkpt>
      <trkpt lat="46.99097" lon="8.81938">
        <ele>1217</ele>
        <time>2021-08-04T08:28:23.837Z</time>
      </trkpt>
      <trkpt lat="46.99097" lon="8.81937">
        <ele>1217</ele>
        <time>2021-08-04T08:28:24.837Z</time>
      </trkpt>
      <trkpt lat="46.99098" lon="8.81936">
        <ele>1218</ele>
        <time>2021-08-04T08:28:25.837Z</time>
      </trkpt>
      <trkpt lat="46.99098" lon="8.81935">
        <ele>1218</ele>
        <time>2021-08-04T08:28:26.837Z</time>
      </trkpt>
      <trkpt lat="46.99098" lon="8.81934">
        <ele>1218</ele>
        <time>2021-08-04T08:28:27.836Z</time>
      </trkpt>
      <trkpt lat="46.99099" lon="8.81934">
        <ele>1218</ele>
        <time>2021-08-04T08:28:28.837Z</time>
      </trkpt>
      <trkpt lat="46.991" lon="8.81933">
        <ele>1219</ele>
        <time>2021-08-04T08:28:29.837Z</time>
      </trkpt>
      <trkpt lat="46.991" lon="8.81932">
        <ele>1219</ele>
        <time>2021-08-04T08:28:30.837Z</time>
      </trkpt>
      <trkpt lat="46.99101" lon="8.81931">
        <ele>1219</ele>
        <time>2021-08-04T08:28:31.837Z</time>
      </trkpt>
      <trkpt lat="46.99101" lon="8.8193">
        <ele>1219</ele>
        <time>2021-08-04T08:28:32.836Z</time>
      </trkpt>
      <trkpt lat="46.99102" lon="8.8193">
        <ele>1219</ele>
        <time>2021-08-04T08:28:33.836Z</time>
      </trkpt>
      <trkpt lat="46.99103" lon="8.81929">
        <ele>1220</ele>
        <time>2021-08-04T08:28:34.836Z</time>
      </trkpt>
      <trkpt lat="46.99104" lon="8.81928">
        <ele>1220</ele>
        <time>2021-08-04T08:28:35.836Z</time>
      </trkpt>
      <trkpt lat="46.99105" lon="8.81926">
        <ele>1220</ele>
        <time>2021-08-04T08:28:36.836Z</time>
      </trkpt>
      <trkpt lat="46.99105" lon="8.81925">
        <ele>1221</ele>
        <time>2021-08-04T08:28:37.837Z</time>
      </trkpt>
      <trkpt lat="46.99104" lon="8.81924">
        <ele>1221</ele>
        <time>2021-08-04T08:28:38.837Z</time>
      </trkpt>
      <trkpt lat="46.99103" lon="8.81922">
        <ele>1221</ele>
        <time>2021-08-04T08:28:39.837Z</time>
      </trkpt>
      <trkpt lat="46.99101" lon="8.81921">
        <ele>1221</ele>
        <time>2021-08-04T08:28:40.837Z</time>
      </trkpt>
      <trkpt lat="46.991" lon="8.8192">
        <ele>1221</ele>
        <time>2021-08-04T08:28:41.836Z</time>
      </trkpt>
      <trkpt lat="46.99099" lon="8.8192">
        <ele>1221</ele>
        <time>2021-08-04T08:28:42.837Z</time>
      </trkpt>
      <trkpt lat="46.99098" lon="8.81921">
        <ele>1221</ele>
        <time>2021-08-04T08:28:43.837Z</time>
      </trkpt>
      <trkpt lat="46.99098" lon="8.8192">
        <ele>1221</ele>
        <time>2021-08-04T08:28:44.837Z</time>
      </trkpt>
      <trkpt lat="46.99097" lon="8.8192">
        <ele>1221</ele>
        <time>2021-08-04T08:28:45.836Z</time>
      </trkpt>
      <trkpt lat="46.99096" lon="8.8192">
        <ele>1221</ele>
        <time>2021-08-04T08:28:46.837Z</time>
      </trkpt>
      <trkpt lat="46.99096" lon="8.81919">
        <ele>1221</ele>
        <time>2021-08-04T08:28:47.837Z</time>
      </trkpt>
      <trkpt lat="46.99095" lon="8.81919">
        <ele>1220</ele>
        <time>2021-08-04T08:28:48.837Z</time>
      </trkpt>
      <trkpt lat="46.99094" lon="8.8192">
        <ele>1220</ele>
        <time>2021-08-04T08:28:49.837Z</time>
      </trkpt>
      <trkpt lat="46.99094" lon="8.8192">
        <ele>1220</ele>
        <time>2021-08-04T08:28:50.837Z</time>
      </trkpt>
      <trkpt lat="46.99094" lon="8.81921">
        <ele>1220</ele>
        <time>2021-08-04T08:28:51.837Z</time>
      </trkpt>
      <trkpt lat="46.99094" lon="8.81922">
        <ele>1220</ele>
        <time>2021-08-04T08:28:52.836Z</time>
      </trkpt>
      <trkpt lat="46.99094" lon="8.81921">
        <ele>1220</ele>
        <time>2021-08-04T08:28:53.837Z</time>
      </trkpt>
      <trkpt lat="46.99094" lon="8.8192">
        <ele>1220</ele>
        <time>2021-08-04T08:28:54.836Z</time>
      </trkpt>
      <trkpt lat="46.99093" lon="8.81919">
        <ele>1220</ele>
        <time>2021-08-04T08:28:55.837Z</time>
      </trkpt>
      <trkpt lat="46.99093" lon="8.81918">
        <ele>1219</ele>
        <time>2021-08-04T08:28:56.837Z</time>
      </trkpt>
      <trkpt lat="46.99093" lon="8.81918">
        <ele>1219</ele>
        <time>2021-08-04T08:28:57.837Z</time>
      </trkpt>
      <trkpt lat="46.99096" lon="8.81918">
        <ele>1221</ele>
        <time>2021-08-04T08:28:58.836Z</time>
      </trkpt>
      <trkpt lat="46.99096" lon="8.81917">
        <ele>1222</ele>
        <time>2021-08-04T08:28:59.836Z</time>
      </trkpt>
      <trkpt lat="46.99095" lon="8.81917">
        <ele>1222</ele>
        <time>2021-08-04T08:29:00.837Z</time>
      </trkpt>
      <trkpt lat="46.99094" lon="8.81916">
        <ele>1222</ele>
        <time>2021-08-04T08:29:01.836Z</time>
      </trkpt>
      <trkpt lat="46.99094" lon="8.81914">
        <ele>1222</ele>
        <time>2021-08-04T08:29:02.837Z</time>
      </trkpt>
      <trkpt lat="46.99094" lon="8.81913">
        <ele>1222</ele>
        <time>2021-08-04T08:29:03.837Z</time>
      </trkpt>
      <trkpt lat="46.99094" lon="8.81912">
        <ele>1222</ele>
        <time>2021-08-04T08:29:04.836Z</time>
      </trkpt>
      <trkpt lat="46.99094" lon="8.81911">
        <ele>1222</ele>
        <time>2021-08-04T08:29:05.836Z</time>
      </trkpt>
      <trkpt lat="46.99094" lon="8.8191">
        <ele>1222</ele>
        <time>2021-08-04T08:29:06.837Z</time>
      </trkpt>
      <trkpt lat="46.99094" lon="8.8191">
        <ele>1222</ele>
        <time>2021-08-04T08:29:07.837Z</time>
      </trkpt>
      <trkpt lat="46.99094" lon="8.81908">
        <ele>1222</ele>
        <time>2021-08-04T08:29:08.836Z</time>
      </trkpt>
      <trkpt lat="46.99094" lon="8.81907">
        <ele>1222</ele>
        <time>2021-08-04T08:29:09.836Z</time>
      </trkpt>
      <trkpt lat="46.99094" lon="8.81906">
        <ele>1222</ele>
        <time>2021-08-04T08:29:10.836Z</time>
      </trkpt>
      <trkpt lat="46.99094" lon="8.81905">
        <ele>1222</ele>
        <time>2021-08-04T08:29:11.836Z</time>
      </trkpt>
      <trkpt lat="46.99095" lon="8.81904">
        <ele>1222</ele>
        <time>2021-08-04T08:29:12.836Z</time>
      </trkpt>
      <trkpt lat="46.99096" lon="8.81902">
        <ele>1221</ele>
        <time>2021-08-04T08:29:13.836Z</time>
      </trkpt>
      <trkpt lat="46.99096" lon="8.81901">
        <ele>1221</ele>
        <time>2021-08-04T08:29:14.836Z</time>
      </trkpt>
      <trkpt lat="46.99095" lon="8.819">
        <ele>1221</ele>
        <time>2021-08-04T08:29:15.837Z</time>
      </trkpt>
      <trkpt lat="46.99095" lon="8.81898">
        <ele>1221</ele>
        <time>2021-08-04T08:29:16.836Z</time>
      </trkpt>
      <trkpt lat="46.99095" lon="8.81897">
        <ele>1220</ele>
        <time>2021-08-04T08:29:17.836Z</time>
      </trkpt>
      <trkpt lat="46.99095" lon="8.81896">
        <ele>1220</ele>
        <time>2021-08-04T08:29:18.837Z</time>
      </trkpt>
      <trkpt lat="46.99096" lon="8.81896">
        <ele>1219</ele>
        <time>2021-08-04T08:29:19.836Z</time>
      </trkpt>
      <trkpt lat="46.99097" lon="8.81896">
        <ele>1218</ele>
        <time>2021-08-04T08:29:20.837Z</time>
      </trkpt>
      <trkpt lat="46.99098" lon="8.81895">
        <ele>1217</ele>
        <time>2021-08-04T08:29:21.836Z</time>
      </trkpt>
      <trkpt lat="46.99099" lon="8.81894">
        <ele>1216</ele>
        <time>2021-08-04T08:29:22.836Z</time>
      </trkpt>
      <trkpt lat="46.99099" lon="8.81893">
        <ele>1216</ele>
        <time>2021-08-04T08:29:23.836Z</time>
      </trkpt>
      <trkpt lat="46.99099" lon="8.81893">
        <ele>1215</ele>
        <time>2021-08-04T08:29:24.836Z</time>
      </trkpt>
      <trkpt lat="46.99099" lon="8.81891">
        <ele>1214</ele>
        <time>2021-08-04T08:29:25.836Z</time>
      </trkpt>
      <trkpt lat="46.99099" lon="8.8189">
        <ele>1214</ele>
        <time>2021-08-04T08:29:26.837Z</time>
      </trkpt>
      <trkpt lat="46.991" lon="8.81888">
        <ele>1213</ele>
        <time>2021-08-04T08:29:27.836Z</time>
      </trkpt>
      <trkpt lat="46.991" lon="8.81886">
        <ele>1212</ele>
        <time>2021-08-04T08:29:28.836Z</time>
      </trkpt>
      <trkpt lat="46.991" lon="8.81884">
        <ele>1211</ele>
        <time>2021-08-04T08:29:29.836Z</time>
      </trkpt>
      <trkpt lat="46.99101" lon="8.81884">
        <ele>1211</ele>
        <time>2021-08-04T08:29:30.836Z</time>
      </trkpt>
      <trkpt lat="46.99102" lon="8.81884">
        <ele>1210</ele>
        <time>2021-08-04T08:29:31.836Z</time>
      </trkpt>
      <trkpt lat="46.99103" lon="8.81885">
        <ele>1210</ele>
        <time>2021-08-04T08:29:32.836Z</time>
      </trkpt>
      <trkpt lat="46.99105" lon="8.81886">
        <ele>1209</ele>
        <time>2021-08-04T08:29:33.836Z</time>
      </trkpt>
      <trkpt lat="46.99106" lon="8.81886">
        <ele>1209</ele>
        <time>2021-08-04T08:29:34.836Z</time>
      </trkpt>
      <trkpt lat="46.99108" lon="8.81885">
        <ele>1208</ele>
        <time>2021-08-04T08:29:35.837Z</time>
      </trkpt>
      <trkpt lat="46.99109" lon="8.81884">
        <ele>1208</ele>
        <time>2021-08-04T08:29:36.837Z</time>
      </trkpt>
      <trkpt lat="46.99109" lon="8.81883">
        <ele>1208</ele>
        <time>2021-08-04T08:29:37.836Z</time>
      </trkpt>
      <trkpt lat="46.9911" lon="8.81882">
        <ele>1207</ele>
        <time>2021-08-04T08:29:38.836Z</time>
      </trkpt>
      <trkpt lat="46.9911" lon="8.8188">
        <ele>1207</ele>
        <time>2021-08-04T08:29:39.836Z</time>
      </trkpt>
      <trkpt lat="46.9911" lon="8.81878">
        <ele>1206</ele>
        <time>2021-08-04T08:29:40.837Z</time>
      </trkpt>
      <trkpt lat="46.9911" lon="8.81876">
        <ele>1206</ele>
        <time>2021-08-04T08:29:41.837Z</time>
      </trkpt>
      <trkpt lat="46.99111" lon="8.81874">
        <ele>1206</ele>
        <time>2021-08-04T08:29:42.836Z</time>
      </trkpt>
      <trkpt lat="46.99111" lon="8.81872">
        <ele>1205</ele>
        <time>2021-08-04T08:29:43.836Z</time>
      </trkpt>
      <trkpt lat="46.99112" lon="8.81871">
        <ele>1205</ele>
        <time>2021-08-04T08:29:44.836Z</time>
      </trkpt>
      <trkpt lat="46.99113" lon="8.81871">
        <ele>1205</ele>
        <time>2021-08-04T08:29:45.836Z</time>
      </trkpt>
      <trkpt lat="46.99113" lon="8.8187">
        <ele>1205</ele>
        <time>2021-08-04T08:29:46.836Z</time>
      </trkpt>
      <trkpt lat="46.99114" lon="8.81869">
        <ele>1205</ele>
        <time>2021-08-04T08:29:47.836Z</time>
      </trkpt>
      <trkpt lat="46.99115" lon="8.81868">
        <ele>1205</ele>
        <time>2021-08-04T08:29:48.836Z</time>
      </trkpt>
      <trkpt lat="46.99115" lon="8.81867">
        <ele>1205</ele>
        <time>2021-08-04T08:29:49.836Z</time>
      </trkpt>
      <trkpt lat="46.99116" lon="8.81866">
        <ele>1205</ele>
        <time>2021-08-04T08:29:50.836Z</time>
      </trkpt>
      <trkpt lat="46.99116" lon="8.81865">
        <ele>1205</ele>
        <time>2021-08-04T08:29:51.836Z</time>
      </trkpt>
      <trkpt lat="46.99116" lon="8.81865">
        <ele>1205</ele>
        <time>2021-08-04T08:29:52.836Z</time>
      </trkpt>
      <trkpt lat="46.99117" lon="8.81865">
        <ele>1205</ele>
        <time>2021-08-04T08:29:53.836Z</time>
      </trkpt>
      <trkpt lat="46.99118" lon="8.81864">
        <ele>1206</ele>
        <time>2021-08-04T08:29:54.837Z</time>
      </trkpt>
      <trkpt lat="46.99118" lon="8.81862">
        <ele>1206</ele>
        <time>2021-08-04T08:29:55.837Z</time>
      </trkpt>
      <trkpt lat="46.99118" lon="8.8186">
        <ele>1205</ele>
        <time>2021-08-04T08:29:56.836Z</time>
      </trkpt>
      <trkpt lat="46.99118" lon="8.81858">
        <ele>1205</ele>
        <time>2021-08-04T08:29:57.837Z</time>
      </trkpt>
      <trkpt lat="46.99119" lon="8.81857">
        <ele>1205</ele>
        <time>2021-08-04T08:29:58.836Z</time>
      </trkpt>
      <trkpt lat="46.99119" lon="8.81856">
        <ele>1205</ele>
        <time>2021-08-04T08:29:59.836Z</time>
      </trkpt>
      <trkpt lat="46.99119" lon="8.81856">
        <ele>1205</ele>
        <time>2021-08-04T08:30:00.836Z</time>
      </trkpt>
      <trkpt lat="46.99119" lon="8.81855">
        <ele>1205</ele>
        <time>2021-08-04T08:30:01.836Z</time>
      </trkpt>
      <trkpt lat="46.99119" lon="8.81854">
        <ele>1205</ele>
        <time>2021-08-04T08:30:02.837Z</time>
      </trkpt>
      <trkpt lat="46.9912" lon="8.81853">
        <ele>1204</ele>
        <time>2021-08-04T08:30:03.836Z</time>
      </trkpt>
      <trkpt lat="46.9912" lon="8.81853">
        <ele>1204</ele>
        <time>2021-08-04T08:30:04.837Z</time>
      </trkpt>
      <trkpt lat="46.9912" lon="8.81853">
        <ele>1204</ele>
        <time>2021-08-04T08:30:05.837Z</time>
      </trkpt>
      <trkpt lat="46.99121" lon="8.81852">
        <ele>1204</ele>
        <time>2021-08-04T08:30:06.837Z</time>
      </trkpt>
      <trkpt lat="46.99121" lon="8.81851">
        <ele>1204</ele>
        <time>2021-08-04T08:30:07.837Z</time>
      </trkpt>
      <trkpt lat="46.99122" lon="8.81851">
        <ele>1203</ele>
        <time>2021-08-04T08:30:08.836Z</time>
      </trkpt>
      <trkpt lat="46.99122" lon="8.81851">
        <ele>1203</ele>
        <time>2021-08-04T08:30:09.837Z</time>
      </trkpt>
      <trkpt lat="46.99123" lon="8.81851">
        <ele>1203</ele>
        <time>2021-08-04T08:30:10.837Z</time>
      </trkpt>
      <trkpt lat="46.99122" lon="8.81848">
        <ele>1203</ele>
        <time>2021-08-04T08:30:11.836Z</time>
      </trkpt>
      <trkpt lat="46.99122" lon="8.81845">
        <ele>1204</ele>
        <time>2021-08-04T08:30:12.837Z</time>
      </trkpt>
      <trkpt lat="46.99123" lon="8.81843">
        <ele>1204</ele>
        <time>2021-08-04T08:30:13.837Z</time>
      </trkpt>
      <trkpt lat="46.99123" lon="8.81841">
        <ele>1204</ele>
        <time>2021-08-04T08:30:14.836Z</time>
      </trkpt>
      <trkpt lat="46.99124" lon="8.8184">
        <ele>1205</ele>
        <time>2021-08-04T08:30:15.837Z</time>
      </trkpt>
      <trkpt lat="46.99125" lon="8.81838">
        <ele>1205</ele>
        <time>2021-08-04T08:30:16.837Z</time>
      </trkpt>
      <trkpt lat="46.99126" lon="8.81837">
        <ele>1205</ele>
        <time>2021-08-04T08:30:17.837Z</time>
      </trkpt>
      <trkpt lat="46.99128" lon="8.81836">
        <ele>1205</ele>
        <time>2021-08-04T08:30:18.836Z</time>
      </trkpt>
      <trkpt lat="46.99129" lon="8.81835">
        <ele>1204</ele>
        <time>2021-08-04T08:30:19.837Z</time>
      </trkpt>
      <trkpt lat="46.9913" lon="8.81834">
        <ele>1204</ele>
        <time>2021-08-04T08:30:20.837Z</time>
      </trkpt>
      <trkpt lat="46.99131" lon="8.81833">
        <ele>1204</ele>
        <time>2021-08-04T08:30:21.837Z</time>
      </trkpt>
      <trkpt lat="46.99132" lon="8.81832">
        <ele>1203</ele>
        <time>2021-08-04T08:30:22.836Z</time>
      </trkpt>
      <trkpt lat="46.99132" lon="8.81831">
        <ele>1203</ele>
        <time>2021-08-04T08:30:23.837Z</time>
      </trkpt>
      <trkpt lat="46.99133" lon="8.81829">
        <ele>1202</ele>
        <time>2021-08-04T08:30:24.837Z</time>
      </trkpt>
      <trkpt lat="46.99133" lon="8.81828">
        <ele>1202</ele>
        <time>2021-08-04T08:30:25.837Z</time>
      </trkpt>
      <trkpt lat="46.99134" lon="8.81827">
        <ele>1202</ele>
        <time>2021-08-04T08:30:26.836Z</time>
      </trkpt>
      <trkpt lat="46.99134" lon="8.81826">
        <ele>1201</ele>
        <time>2021-08-04T08:30:27.837Z</time>
      </trkpt>
      <trkpt lat="46.99134" lon="8.81824">
        <ele>1201</ele>
        <time>2021-08-04T08:30:28.837Z</time>
      </trkpt>
      <trkpt lat="46.99135" lon="8.81823">
        <ele>1201</ele>
        <time>2021-08-04T08:30:29.836Z</time>
      </trkpt>
      <trkpt lat="46.99136" lon="8.81821">
        <ele>1201</ele>
        <time>2021-08-04T08:30:30.837Z</time>
      </trkpt>
      <trkpt lat="46.99136" lon="8.81819">
        <ele>1201</ele>
        <time>2021-08-04T08:30:31.836Z</time>
      </trkpt>
      <trkpt lat="46.99137" lon="8.81818">
        <ele>1201</ele>
        <time>2021-08-04T08:30:32.836Z</time>
      </trkpt>
      <trkpt lat="46.99137" lon="8.81817">
        <ele>1201</ele>
        <time>2021-08-04T08:30:33.836Z</time>
      </trkpt>
      <trkpt lat="46.99137" lon="8.81815">
        <ele>1200</ele>
        <time>2021-08-04T08:30:34.836Z</time>
      </trkpt>
      <trkpt lat="46.99138" lon="8.81814">
        <ele>1200</ele>
        <time>2021-08-04T08:30:35.836Z</time>
      </trkpt>
      <trkpt lat="46.99138" lon="8.81813">
        <ele>1199</ele>
        <time>2021-08-04T08:30:36.836Z</time>
      </trkpt>
      <trkpt lat="46.99139" lon="8.81812">
        <ele>1199</ele>
        <time>2021-08-04T08:30:37.837Z</time>
      </trkpt>
      <trkpt lat="46.9914" lon="8.8181">
        <ele>1198</ele>
        <time>2021-08-04T08:30:38.836Z</time>
      </trkpt>
      <trkpt lat="46.9914" lon="8.81807">
        <ele>1198</ele>
        <time>2021-08-04T08:30:39.836Z</time>
      </trkpt>
      <trkpt lat="46.9914" lon="8.81804">
        <ele>1197</ele>
        <time>2021-08-04T08:30:40.836Z</time>
      </trkpt>
      <trkpt lat="46.9914" lon="8.81803">
        <ele>1197</ele>
        <time>2021-08-04T08:30:41.836Z</time>
      </trkpt>
      <trkpt lat="46.9914" lon="8.81801">
        <ele>1197</ele>
        <time>2021-08-04T08:30:42.836Z</time>
      </trkpt>
      <trkpt lat="46.9914" lon="8.818">
        <ele>1197</ele>
        <time>2021-08-04T08:30:43.836Z</time>
      </trkpt>
      <trkpt lat="46.99141" lon="8.81799">
        <ele>1197</ele>
        <time>2021-08-04T08:30:44.836Z</time>
      </trkpt>
      <trkpt lat="46.99141" lon="8.81798">
        <ele>1197</ele>
        <time>2021-08-04T08:30:45.837Z</time>
      </trkpt>
      <trkpt lat="46.99141" lon="8.81797">
        <ele>1197</ele>
        <time>2021-08-04T08:30:46.837Z</time>
      </trkpt>
      <trkpt lat="46.99141" lon="8.81796">
        <ele>1197</ele>
        <time>2021-08-04T08:30:47.836Z</time>
      </trkpt>
      <trkpt lat="46.99141" lon="8.81794">
        <ele>1197</ele>
        <time>2021-08-04T08:30:48.836Z</time>
      </trkpt>
      <trkpt lat="46.9914" lon="8.81791">
        <ele>1197</ele>
        <time>2021-08-04T08:30:49.836Z</time>
      </trkpt>
      <trkpt lat="46.99141" lon="8.81789">
        <ele>1197</ele>
        <time>2021-08-04T08:30:50.836Z</time>
      </trkpt>
      <trkpt lat="46.99141" lon="8.81787">
        <ele>1198</ele>
        <time>2021-08-04T08:30:51.836Z</time>
      </trkpt>
      <trkpt lat="46.99141" lon="8.81786">
        <ele>1198</ele>
        <time>2021-08-04T08:30:52.836Z</time>
      </trkpt>
      <trkpt lat="46.99141" lon="8.81785">
        <ele>1198</ele>
        <time>2021-08-04T08:30:53.837Z</time>
      </trkpt>
      <trkpt lat="46.99142" lon="8.81783">
        <ele>1199</ele>
        <time>2021-08-04T08:30:54.836Z</time>
      </trkpt>
      <trkpt lat="46.99142" lon="8.8178">
        <ele>1199</ele>
        <time>2021-08-04T08:30:55.836Z</time>
      </trkpt>
      <trkpt lat="46.99142" lon="8.81779">
        <ele>1200</ele>
        <time>2021-08-04T08:30:56.836Z</time>
      </trkpt>
      <trkpt lat="46.99143" lon="8.81777">
        <ele>1200</ele>
        <time>2021-08-04T08:30:57.836Z</time>
      </trkpt>
      <trkpt lat="46.99143" lon="8.81775">
        <ele>1200</ele>
        <time>2021-08-04T08:30:58.837Z</time>
      </trkpt>
      <trkpt lat="46.99144" lon="8.81773">
        <ele>1200</ele>
        <time>2021-08-04T08:30:59.836Z</time>
      </trkpt>
      <trkpt lat="46.99145" lon="8.81771">
        <ele>1200</ele>
        <time>2021-08-04T08:31:00.836Z</time>
      </trkpt>
      <trkpt lat="46.99146" lon="8.8177">
        <ele>1200</ele>
        <time>2021-08-04T08:31:01.837Z</time>
      </trkpt>
      <trkpt lat="46.99146" lon="8.81768">
        <ele>1200</ele>
        <time>2021-08-04T08:31:02.836Z</time>
      </trkpt>
      <trkpt lat="46.99146" lon="8.81767">
        <ele>1200</ele>
        <time>2021-08-04T08:31:03.837Z</time>
      </trkpt>
      <trkpt lat="46.99146" lon="8.81765">
        <ele>1200</ele>
        <time>2021-08-04T08:31:04.837Z</time>
      </trkpt>
      <trkpt lat="46.99146" lon="8.81764">
        <ele>1200</ele>
        <time>2021-08-04T08:31:05.837Z</time>
      </trkpt>
      <trkpt lat="46.99145" lon="8.81762">
        <ele>1201</ele>
        <time>2021-08-04T08:31:06.836Z</time>
      </trkpt>
      <trkpt lat="46.99144" lon="8.81761">
        <ele>1201</ele>
        <time>2021-08-04T08:31:07.837Z</time>
      </trkpt>
      <trkpt lat="46.99144" lon="8.81759">
        <ele>1200</ele>
        <time>2021-08-04T08:31:08.837Z</time>
      </trkpt>
      <trkpt lat="46.99144" lon="8.81756">
        <ele>1200</ele>
        <time>2021-08-04T08:31:09.837Z</time>
      </trkpt>
      <trkpt lat="46.99143" lon="8.81755">
        <ele>1199</ele>
        <time>2021-08-04T08:31:10.837Z</time>
      </trkpt>
      <trkpt lat="46.99143" lon="8.81754">
        <ele>1199</ele>
        <time>2021-08-04T08:31:11.837Z</time>
      </trkpt>
      <trkpt lat="46.99144" lon="8.81753">
        <ele>1198</ele>
        <time>2021-08-04T08:31:12.837Z</time>
      </trkpt>
      <trkpt lat="46.99145" lon="8.81752">
        <ele>1197</ele>
        <time>2021-08-04T08:31:13.837Z</time>
      </trkpt>
      <trkpt lat="46.99145" lon="8.81751">
        <ele>1197</ele>
        <time>2021-08-04T08:31:14.837Z</time>
      </trkpt>
      <trkpt lat="46.99144" lon="8.81749">
        <ele>1196</ele>
        <time>2021-08-04T08:31:15.837Z</time>
      </trkpt>
      <trkpt lat="46.99144" lon="8.81748">
        <ele>1195</ele>
        <time>2021-08-04T08:31:16.837Z</time>
      </trkpt>
      <trkpt lat="46.99144" lon="8.81747">
        <ele>1195</ele>
        <time>2021-08-04T08:31:17.837Z</time>
      </trkpt>
      <trkpt lat="46.99143" lon="8.81746">
        <ele>1195</ele>
        <time>2021-08-04T08:31:18.836Z</time>
      </trkpt>
      <trkpt lat="46.99143" lon="8.81744">
        <ele>1194</ele>
        <time>2021-08-04T08:31:19.837Z</time>
      </trkpt>
      <trkpt lat="46.99142" lon="8.81742">
        <ele>1193</ele>
        <time>2021-08-04T08:31:20.837Z</time>
      </trkpt>
      <trkpt lat="46.99142" lon="8.81742">
        <ele>1193</ele>
        <time>2021-08-04T08:31:21.837Z</time>
      </trkpt>
      <trkpt lat="46.99142" lon="8.8174">
        <ele>1192</ele>
        <time>2021-08-04T08:31:22.837Z</time>
      </trkpt>
      <trkpt lat="46.99142" lon="8.81739">
        <ele>1192</ele>
        <time>2021-08-04T08:31:23.836Z</time>
      </trkpt>
      <trkpt lat="46.99142" lon="8.81738">
        <ele>1191</ele>
        <time>2021-08-04T08:31:24.837Z</time>
      </trkpt>
      <trkpt lat="46.99142" lon="8.81737">
        <ele>1190</ele>
        <time>2021-08-04T08:31:25.836Z</time>
      </trkpt>
      <trkpt lat="46.99142" lon="8.81736">
        <ele>1190</ele>
        <time>2021-08-04T08:31:26.836Z</time>
      </trkpt>
      <trkpt lat="46.99142" lon="8.81735">
        <ele>1189</ele>
        <time>2021-08-04T08:31:27.837Z</time>
      </trkpt>
      <trkpt lat="46.99142" lon="8.81734">
        <ele>1189</ele>
        <time>2021-08-04T08:31:28.837Z</time>
      </trkpt>
      <trkpt lat="46.99142" lon="8.81734">
        <ele>1189</ele>
        <time>2021-08-04T08:31:29.836Z</time>
      </trkpt>
      <trkpt lat="46.99141" lon="8.81732">
        <ele>1188</ele>
        <time>2021-08-04T08:31:30.837Z</time>
      </trkpt>
      <trkpt lat="46.9914" lon="8.8173">
        <ele>1188</ele>
        <time>2021-08-04T08:31:31.836Z</time>
      </trkpt>
      <trkpt lat="46.99139" lon="8.81728">
        <ele>1188</ele>
        <time>2021-08-04T08:31:32.837Z</time>
      </trkpt>
      <trkpt lat="46.99138" lon="8.81727">
        <ele>1187</ele>
        <time>2021-08-04T08:31:33.836Z</time>
      </trkpt>
      <trkpt lat="46.99138" lon="8.81727">
        <ele>1187</ele>
        <time>2021-08-04T08:31:34.837Z</time>
      </trkpt>
      <trkpt lat="46.99137" lon="8.81727">
        <ele>1186</ele>
        <time>2021-08-04T08:31:35.837Z</time>
      </trkpt>
      <trkpt lat="46.99136" lon="8.81727">
        <ele>1186</ele>
        <time>2021-08-04T08:31:36.837Z</time>
      </trkpt>
      <trkpt lat="46.99135" lon="8.81728">
        <ele>1186</ele>
        <time>2021-08-04T08:31:37.837Z</time>
      </trkpt>
      <trkpt lat="46.99134" lon="8.81728">
        <ele>1185</ele>
        <time>2021-08-04T08:31:38.837Z</time>
      </trkpt>
      <trkpt lat="46.99133" lon="8.81728">
        <ele>1185</ele>
        <time>2021-08-04T08:31:39.837Z</time>
      </trkpt>
      <trkpt lat="46.99133" lon="8.81727">
        <ele>1185</ele>
        <time>2021-08-04T08:31:40.836Z</time>
      </trkpt>
      <trkpt lat="46.99132" lon="8.81727">
        <ele>1185</ele>
        <time>2021-08-04T08:31:41.837Z</time>
      </trkpt>
      <trkpt lat="46.99132" lon="8.81726">
        <ele>1184</ele>
        <time>2021-08-04T08:31:42.836Z</time>
      </trkpt>
      <trkpt lat="46.99132" lon="8.81725">
        <ele>1184</ele>
        <time>2021-08-04T08:31:43.836Z</time>
      </trkpt>
      <trkpt lat="46.99132" lon="8.81724">
        <ele>1184</ele>
        <time>2021-08-04T08:31:44.837Z</time>
      </trkpt>
      <trkpt lat="46.99132" lon="8.81723">
        <ele>1184</ele>
        <time>2021-08-04T08:31:45.836Z</time>
      </trkpt>
      <trkpt lat="46.99133" lon="8.81722">
        <ele>1184</ele>
        <time>2021-08-04T08:31:46.837Z</time>
      </trkpt>
      <trkpt lat="46.99133" lon="8.81722">
        <ele>1184</ele>
        <time>2021-08-04T08:31:47.837Z</time>
      </trkpt>
      <trkpt lat="46.99134" lon="8.81721">
        <ele>1184</ele>
        <time>2021-08-04T08:31:48.837Z</time>
      </trkpt>
      <trkpt lat="46.99135" lon="8.81721">
        <ele>1184</ele>
        <time>2021-08-04T08:31:49.837Z</time>
      </trkpt>
      <trkpt lat="46.99135" lon="8.8172">
        <ele>1184</ele>
        <time>2021-08-04T08:31:50.836Z</time>
      </trkpt>
      <trkpt lat="46.99135" lon="8.81719">
        <ele>1185</ele>
        <time>2021-08-04T08:31:51.837Z</time>
      </trkpt>
      <trkpt lat="46.99136" lon="8.81719">
        <ele>1185</ele>
        <time>2021-08-04T08:31:52.836Z</time>
      </trkpt>
      <trkpt lat="46.99137" lon="8.81719">
        <ele>1184</ele>
        <time>2021-08-04T08:31:53.837Z</time>
      </trkpt>
      <trkpt lat="46.99139" lon="8.8172">
        <ele>1184</ele>
        <time>2021-08-04T08:31:54.837Z</time>
      </trkpt>
      <trkpt lat="46.9914" lon="8.81719">
        <ele>1184</ele>
        <time>2021-08-04T08:31:55.836Z</time>
      </trkpt>
      <trkpt lat="46.99141" lon="8.81718">
        <ele>1184</ele>
        <time>2021-08-04T08:31:56.836Z</time>
      </trkpt>
      <trkpt lat="46.99143" lon="8.81718">
        <ele>1184</ele>
        <time>2021-08-04T08:31:57.836Z</time>
      </trkpt>
      <trkpt lat="46.99145" lon="8.81719">
        <ele>1184</ele>
        <time>2021-08-04T08:31:58.836Z</time>
      </trkpt>
      <trkpt lat="46.99146" lon="8.81719">
        <ele>1184</ele>
        <time>2021-08-04T08:31:59.836Z</time>
      </trkpt>
      <trkpt lat="46.99147" lon="8.81718">
        <ele>1184</ele>
        <time>2021-08-04T08:32:00.836Z</time>
      </trkpt>
      <trkpt lat="46.99148" lon="8.81718">
        <ele>1184</ele>
        <time>2021-08-04T08:32:01.836Z</time>
      </trkpt>
      <trkpt lat="46.99148" lon="8.81718">
        <ele>1184</ele>
        <time>2021-08-04T08:32:02.837Z</time>
      </trkpt>
      <trkpt lat="46.99149" lon="8.81717">
        <ele>1184</ele>
        <time>2021-08-04T08:32:03.837Z</time>
      </trkpt>
      <trkpt lat="46.9915" lon="8.81716">
        <ele>1184</ele>
        <time>2021-08-04T08:32:04.836Z</time>
      </trkpt>
      <trkpt lat="46.99151" lon="8.81716">
        <ele>1184</ele>
        <time>2021-08-04T08:32:05.836Z</time>
      </trkpt>
      <trkpt lat="46.99152" lon="8.81715">
        <ele>1184</ele>
        <time>2021-08-04T08:32:06.837Z</time>
      </trkpt>
      <trkpt lat="46.99153" lon="8.81715">
        <ele>1184</ele>
        <time>2021-08-04T08:32:07.837Z</time>
      </trkpt>
      <trkpt lat="46.99154" lon="8.81715">
        <ele>1184</ele>
        <time>2021-08-04T08:32:08.836Z</time>
      </trkpt>
      <trkpt lat="46.99154" lon="8.81714">
        <ele>1184</ele>
        <time>2021-08-04T08:32:09.837Z</time>
      </trkpt>
      <trkpt lat="46.99154" lon="8.81714">
        <ele>1184</ele>
        <time>2021-08-04T08:32:10.836Z</time>
      </trkpt>
      <trkpt lat="46.99155" lon="8.81714">
        <ele>1184</ele>
        <time>2021-08-04T08:32:11.837Z</time>
      </trkpt>
      <trkpt lat="46.99155" lon="8.81714">
        <ele>1184</ele>
        <time>2021-08-04T08:32:12.837Z</time>
      </trkpt>
      <trkpt lat="46.99155" lon="8.81715">
        <ele>1184</ele>
        <time>2021-08-04T08:32:13.836Z</time>
      </trkpt>
      <trkpt lat="46.99156" lon="8.81714">
        <ele>1184</ele>
        <time>2021-08-04T08:32:14.836Z</time>
      </trkpt>
      <trkpt lat="46.99157" lon="8.81713">
        <ele>1185</ele>
        <time>2021-08-04T08:32:15.836Z</time>
      </trkpt>
      <trkpt lat="46.99158" lon="8.81712">
        <ele>1185</ele>
        <time>2021-08-04T08:32:16.837Z</time>
      </trkpt>
      <trkpt lat="46.99159" lon="8.8171">
        <ele>1185</ele>
        <time>2021-08-04T08:32:17.836Z</time>
      </trkpt>
      <trkpt lat="46.99161" lon="8.81709">
        <ele>1185</ele>
        <time>2021-08-04T08:32:18.836Z</time>
      </trkpt>
      <trkpt lat="46.99162" lon="8.81708">
        <ele>1185</ele>
        <time>2021-08-04T08:32:19.836Z</time>
      </trkpt>
      <trkpt lat="46.99163" lon="8.81708">
        <ele>1186</ele>
        <time>2021-08-04T08:32:20.836Z</time>
      </trkpt>
      <trkpt lat="46.99164" lon="8.81709">
        <ele>1186</ele>
        <time>2021-08-04T08:32:21.836Z</time>
      </trkpt>
      <trkpt lat="46.99163" lon="8.81709">
        <ele>1186</ele>
        <time>2021-08-04T08:32:22.836Z</time>
      </trkpt>
      <trkpt lat="46.99162" lon="8.81709">
        <ele>1186</ele>
        <time>2021-08-04T08:32:23.837Z</time>
      </trkpt>
      <trkpt lat="46.99162" lon="8.81709">
        <ele>1187</ele>
        <time>2021-08-04T08:32:24.837Z</time>
      </trkpt>
      <trkpt lat="46.99163" lon="8.81709">
        <ele>1187</ele>
        <time>2021-08-04T08:32:25.836Z</time>
      </trkpt>
      <trkpt lat="46.99164" lon="8.8171">
        <ele>1187</ele>
        <time>2021-08-04T08:32:26.836Z</time>
      </trkpt>
      <trkpt lat="46.99166" lon="8.8171">
        <ele>1188</ele>
        <time>2021-08-04T08:32:27.836Z</time>
      </trkpt>
      <trkpt lat="46.99167" lon="8.8171">
        <ele>1188</ele>
        <time>2021-08-04T08:32:28.837Z</time>
      </trkpt>
      <trkpt lat="46.99168" lon="8.8171">
        <ele>1188</ele>
        <time>2021-08-04T08:32:29.837Z</time>
      </trkpt>
      <trkpt lat="46.99169" lon="8.8171">
        <ele>1187</ele>
        <time>2021-08-04T08:32:30.836Z</time>
      </trkpt>
      <trkpt lat="46.99169" lon="8.8171">
        <ele>1187</ele>
        <time>2021-08-04T08:32:31.836Z</time>
      </trkpt>
      <trkpt lat="46.9917" lon="8.81711">
        <ele>1186</ele>
        <time>2021-08-04T08:32:32.836Z</time>
      </trkpt>
      <trkpt lat="46.99171" lon="8.81711">
        <ele>1185</ele>
        <time>2021-08-04T08:32:33.836Z</time>
      </trkpt>
      <trkpt lat="46.99172" lon="8.81711">
        <ele>1184</ele>
        <time>2021-08-04T08:32:34.837Z</time>
      </trkpt>
      <trkpt lat="46.99172" lon="8.81711">
        <ele>1183</ele>
        <time>2021-08-04T08:32:35.836Z</time>
      </trkpt>
      <trkpt lat="46.99173" lon="8.81711">
        <ele>1183</ele>
        <time>2021-08-04T08:32:36.837Z</time>
      </trkpt>
      <trkpt lat="46.99175" lon="8.81713">
        <ele>1181</ele>
        <time>2021-08-04T08:32:37.838Z</time>
      </trkpt>
      <trkpt lat="46.99176" lon="8.81714">
        <ele>1181</ele>
        <time>2021-08-04T08:32:38.837Z</time>
      </trkpt>
      <trkpt lat="46.99177" lon="8.81714">
        <ele>1181</ele>
        <time>2021-08-04T08:32:39.837Z</time>
      </trkpt>
      <trkpt lat="46.99179" lon="8.81715">
        <ele>1181</ele>
        <time>2021-08-04T08:32:40.837Z</time>
      </trkpt>
      <trkpt lat="46.9918" lon="8.81716">
        <ele>1181</ele>
        <time>2021-08-04T08:32:41.837Z</time>
      </trkpt>
      <trkpt lat="46.99181" lon="8.81717">
        <ele>1181</ele>
        <time>2021-08-04T08:32:42.837Z</time>
      </trkpt>
      <trkpt lat="46.99183" lon="8.81718">
        <ele>1180</ele>
        <time>2021-08-04T08:32:43.838Z</time>
      </trkpt>
      <trkpt lat="46.99184" lon="8.81719">
        <ele>1180</ele>
        <time>2021-08-04T08:32:44.837Z</time>
      </trkpt>
      <trkpt lat="46.99185" lon="8.8172">
        <ele>1180</ele>
        <time>2021-08-04T08:32:45.837Z</time>
      </trkpt>
      <trkpt lat="46.99185" lon="8.81722">
        <ele>1180</ele>
        <time>2021-08-04T08:32:46.837Z</time>
      </trkpt>
      <trkpt lat="46.99187" lon="8.81723">
        <ele>1180</ele>
        <time>2021-08-04T08:32:47.837Z</time>
      </trkpt>
      <trkpt lat="46.99189" lon="8.81724">
        <ele>1179</ele>
        <time>2021-08-04T08:32:48.837Z</time>
      </trkpt>
      <trkpt lat="46.9919" lon="8.81725">
        <ele>1179</ele>
        <time>2021-08-04T08:32:49.837Z</time>
      </trkpt>
      <trkpt lat="46.99191" lon="8.81726">
        <ele>1178</ele>
        <time>2021-08-04T08:32:50.837Z</time>
      </trkpt>
      <trkpt lat="46.99192" lon="8.81726">
        <ele>1178</ele>
        <time>2021-08-04T08:32:51.837Z</time>
      </trkpt>
      <trkpt lat="46.99194" lon="8.81726">
        <ele>1178</ele>
        <time>2021-08-04T08:32:52.837Z</time>
      </trkpt>
      <trkpt lat="46.99195" lon="8.81726">
        <ele>1178</ele>
        <time>2021-08-04T08:32:53.837Z</time>
      </trkpt>
      <trkpt lat="46.99196" lon="8.81726">
        <ele>1179</ele>
        <time>2021-08-04T08:32:54.837Z</time>
      </trkpt>
      <trkpt lat="46.99195" lon="8.81725">
        <ele>1179</ele>
        <time>2021-08-04T08:32:55.837Z</time>
      </trkpt>
      <trkpt lat="46.99196" lon="8.81725">
        <ele>1179</ele>
        <time>2021-08-04T08:32:56.838Z</time>
      </trkpt>
      <trkpt lat="46.99196" lon="8.81724">
        <ele>1178</ele>
        <time>2021-08-04T08:32:57.837Z</time>
      </trkpt>
      <trkpt lat="46.99196" lon="8.81724">
        <ele>1178</ele>
        <time>2021-08-04T08:32:58.837Z</time>
      </trkpt>
      <trkpt lat="46.99199" lon="8.81724">
        <ele>1178</ele>
        <time>2021-08-04T08:32:59.838Z</time>
      </trkpt>
      <trkpt lat="46.992" lon="8.81723">
        <ele>1177</ele>
        <time>2021-08-04T08:33:00.837Z</time>
      </trkpt>
      <trkpt lat="46.992" lon="8.81721">
        <ele>1177</ele>
        <time>2021-08-04T08:33:01.838Z</time>
      </trkpt>
      <trkpt lat="46.99201" lon="8.81719">
        <ele>1176</ele>
        <time>2021-08-04T08:33:02.837Z</time>
      </trkpt>
      <trkpt lat="46.99202" lon="8.81718">
        <ele>1176</ele>
        <time>2021-08-04T08:33:03.837Z</time>
      </trkpt>
      <trkpt lat="46.99203" lon="8.81716">
        <ele>1175</ele>
        <time>2021-08-04T08:33:04.837Z</time>
      </trkpt>
      <trkpt lat="46.99204" lon="8.81715">
        <ele>1175</ele>
        <time>2021-08-04T08:33:05.837Z</time>
      </trkpt>
      <trkpt lat="46.99205" lon="8.81713">
        <ele>1174</ele>
        <time>2021-08-04T08:33:06.837Z</time>
      </trkpt>
      <trkpt lat="46.99206" lon="8.81712">
        <ele>1174</ele>
        <time>2021-08-04T08:33:07.838Z</time>
      </trkpt>
      <trkpt lat="46.99207" lon="8.8171">
        <ele>1173</ele>
        <time>2021-08-04T08:33:08.837Z</time>
      </trkpt>
      <trkpt lat="46.99208" lon="8.81709">
        <ele>1173</ele>
        <time>2021-08-04T08:33:09.838Z</time>
      </trkpt>
      <trkpt lat="46.99208" lon="8.81707">
        <ele>1172</ele>
        <time>2021-08-04T08:33:10.837Z</time>
      </trkpt>
      <trkpt lat="46.99208" lon="8.81706">
        <ele>1172</ele>
        <time>2021-08-04T08:33:11.837Z</time>
      </trkpt>
      <trkpt lat="46.99208" lon="8.81705">
        <ele>1171</ele>
        <time>2021-08-04T08:33:12.837Z</time>
      </trkpt>
      <trkpt lat="46.99209" lon="8.81704">
        <ele>1171</ele>
        <time>2021-08-04T08:33:13.837Z</time>
      </trkpt>
      <trkpt lat="46.99209" lon="8.81702">
        <ele>1171</ele>
        <time>2021-08-04T08:33:14.838Z</time>
      </trkpt>
      <trkpt lat="46.99209" lon="8.817">
        <ele>1171</ele>
        <time>2021-08-04T08:33:15.837Z</time>
      </trkpt>
      <trkpt lat="46.99209" lon="8.81699">
        <ele>1171</ele>
        <time>2021-08-04T08:33:16.837Z</time>
      </trkpt>
      <trkpt lat="46.99209" lon="8.81698">
        <ele>1171</ele>
        <time>2021-08-04T08:33:17.837Z</time>
      </trkpt>
      <trkpt lat="46.9921" lon="8.81698">
        <ele>1171</ele>
        <time>2021-08-04T08:33:18.837Z</time>
      </trkpt>
      <trkpt lat="46.9921" lon="8.81697">
        <ele>1171</ele>
        <time>2021-08-04T08:33:19.837Z</time>
      </trkpt>
      <trkpt lat="46.9921" lon="8.81697">
        <ele>1171</ele>
        <time>2021-08-04T08:33:20.837Z</time>
      </trkpt>
      <trkpt lat="46.99211" lon="8.81695">
        <ele>1171</ele>
        <time>2021-08-04T08:33:21.837Z</time>
      </trkpt>
      <trkpt lat="46.99212" lon="8.81694">
        <ele>1171</ele>
        <time>2021-08-04T08:33:22.837Z</time>
      </trkpt>
      <trkpt lat="46.99212" lon="8.81693">
        <ele>1170</ele>
        <time>2021-08-04T08:33:23.837Z</time>
      </trkpt>
      <trkpt lat="46.99213" lon="8.81691">
        <ele>1170</ele>
        <time>2021-08-04T08:33:24.837Z</time>
      </trkpt>
      <trkpt lat="46.99214" lon="8.8169">
        <ele>1170</ele>
        <time>2021-08-04T08:33:25.837Z</time>
      </trkpt>
      <trkpt lat="46.99214" lon="8.81689">
        <ele>1169</ele>
        <time>2021-08-04T08:33:26.837Z</time>
      </trkpt>
      <trkpt lat="46.99214" lon="8.81687">
        <ele>1169</ele>
        <time>2021-08-04T08:33:27.837Z</time>
      </trkpt>
      <trkpt lat="46.99214" lon="8.81685">
        <ele>1169</ele>
        <time>2021-08-04T08:33:28.838Z</time>
      </trkpt>
      <trkpt lat="46.99213" lon="8.81683">
        <ele>1169</ele>
        <time>2021-08-04T08:33:29.838Z</time>
      </trkpt>
      <trkpt lat="46.99212" lon="8.81681">
        <ele>1169</ele>
        <time>2021-08-04T08:33:30.837Z</time>
      </trkpt>
      <trkpt lat="46.99212" lon="8.8168">
        <ele>1169</ele>
        <time>2021-08-04T08:33:31.837Z</time>
      </trkpt>
      <trkpt lat="46.99212" lon="8.81679">
        <ele>1169</ele>
        <time>2021-08-04T08:33:32.838Z</time>
      </trkpt>
      <trkpt lat="46.99213" lon="8.81678">
        <ele>1169</ele>
        <time>2021-08-04T08:33:33.837Z</time>
      </trkpt>
      <trkpt lat="46.99212" lon="8.81677">
        <ele>1169</ele>
        <time>2021-08-04T08:33:34.837Z</time>
      </trkpt>
      <trkpt lat="46.99212" lon="8.81675">
        <ele>1169</ele>
        <time>2021-08-04T08:33:35.837Z</time>
      </trkpt>
      <trkpt lat="46.99211" lon="8.81674">
        <ele>1169</ele>
        <time>2021-08-04T08:33:36.838Z</time>
      </trkpt>
      <trkpt lat="46.99211" lon="8.81672">
        <ele>1168</ele>
        <time>2021-08-04T08:33:37.837Z</time>
      </trkpt>
      <trkpt lat="46.99211" lon="8.81671">
        <ele>1168</ele>
        <time>2021-08-04T08:33:38.837Z</time>
      </trkpt>
      <trkpt lat="46.99211" lon="8.81669">
        <ele>1168</ele>
        <time>2021-08-04T08:33:39.837Z</time>
      </trkpt>
      <trkpt lat="46.9921" lon="8.81668">
        <ele>1168</ele>
        <time>2021-08-04T08:33:40.837Z</time>
      </trkpt>
      <trkpt lat="46.9921" lon="8.81667">
        <ele>1168</ele>
        <time>2021-08-04T08:33:41.838Z</time>
      </trkpt>
      <trkpt lat="46.9921" lon="8.81665">
        <ele>1168</ele>
        <time>2021-08-04T08:33:42.837Z</time>
      </trkpt>
      <trkpt lat="46.99211" lon="8.81665">
        <ele>1167</ele>
        <time>2021-08-04T08:33:43.837Z</time>
      </trkpt>
      <trkpt lat="46.99211" lon="8.81664">
        <ele>1167</ele>
        <time>2021-08-04T08:33:44.837Z</time>
      </trkpt>
      <trkpt lat="46.99211" lon="8.81664">
        <ele>1167</ele>
        <time>2021-08-04T08:33:45.837Z</time>
      </trkpt>
      <trkpt lat="46.99211" lon="8.81663">
        <ele>1167</ele>
        <time>2021-08-04T08:33:46.837Z</time>
      </trkpt>
      <trkpt lat="46.99211" lon="8.81663">
        <ele>1167</ele>
        <time>2021-08-04T08:33:47.837Z</time>
      </trkpt>
      <trkpt lat="46.99211" lon="8.81663">
        <ele>1167</ele>
        <time>2021-08-04T08:33:48.837Z</time>
      </trkpt>
      <trkpt lat="46.99212" lon="8.81663">
        <ele>1168</ele>
        <time>2021-08-04T08:33:49.838Z</time>
      </trkpt>
      <trkpt lat="46.99209" lon="8.81664">
        <ele>1166</ele>
        <time>2021-08-04T08:33:50.839Z</time>
      </trkpt>
      <trkpt lat="46.99209" lon="8.81664">
        <ele>1165</ele>
        <time>2021-08-04T08:33:51.838Z</time>
      </trkpt>
      <trkpt lat="46.99208" lon="8.81664">
        <ele>1165</ele>
        <time>2021-08-04T08:33:52.838Z</time>
      </trkpt>
      <trkpt lat="46.99208" lon="8.81665">
        <ele>1164</ele>
        <time>2021-08-04T08:33:53.838Z</time>
      </trkpt>
      <trkpt lat="46.99207" lon="8.81666">
        <ele>1163</ele>
        <time>2021-08-04T08:33:54.839Z</time>
      </trkpt>
      <trkpt lat="46.99207" lon="8.81666">
        <ele>1162</ele>
        <time>2021-08-04T08:33:55.838Z</time>
      </trkpt>
      <trkpt lat="46.99206" lon="8.81666">
        <ele>1161</ele>
        <time>2021-08-04T08:33:56.838Z</time>
      </trkpt>
      <trkpt lat="46.99205" lon="8.81666">
        <ele>1161</ele>
        <time>2021-08-04T08:33:57.838Z</time>
      </trkpt>
      <trkpt lat="46.99204" lon="8.81666">
        <ele>1160</ele>
        <time>2021-08-04T08:33:58.838Z</time>
      </trkpt>
      <trkpt lat="46.99203" lon="8.81665">
        <ele>1160</ele>
        <time>2021-08-04T08:33:59.838Z</time>
      </trkpt>
      <trkpt lat="46.99203" lon="8.81664">
        <ele>1160</ele>
        <time>2021-08-04T08:34:00.839Z</time>
      </trkpt>
      <trkpt lat="46.99202" lon="8.81664">
        <ele>1160</ele>
        <time>2021-08-04T08:34:01.838Z</time>
      </trkpt>
      <trkpt lat="46.99202" lon="8.81663">
        <ele>1160</ele>
        <time>2021-08-04T08:34:02.838Z</time>
      </trkpt>
      <trkpt lat="46.99201" lon="8.81661">
        <ele>1160</ele>
        <time>2021-08-04T08:34:03.838Z</time>
      </trkpt>
      <trkpt lat="46.99201" lon="8.8166">
        <ele>1159</ele>
        <time>2021-08-04T08:34:04.838Z</time>
      </trkpt>
      <trkpt lat="46.992" lon="8.81659">
        <ele>1159</ele>
        <time>2021-08-04T08:34:05.838Z</time>
      </trkpt>
      <trkpt lat="46.992" lon="8.81658">
        <ele>1159</ele>
        <time>2021-08-04T08:34:06.838Z</time>
      </trkpt>
      <trkpt lat="46.99199" lon="8.81658">
        <ele>1159</ele>
        <time>2021-08-04T08:34:07.838Z</time>
      </trkpt>
      <trkpt lat="46.99199" lon="8.81658">
        <ele>1159</ele>
        <time>2021-08-04T08:34:08.839Z</time>
      </trkpt>
      <trkpt lat="46.99199" lon="8.81658">
        <ele>1158</ele>
        <time>2021-08-04T08:34:09.838Z</time>
      </trkpt>
      <trkpt lat="46.99198" lon="8.81658">
        <ele>1158</ele>
        <time>2021-08-04T08:34:10.839Z</time>
      </trkpt>
      <trkpt lat="46.99198" lon="8.81658">
        <ele>1158</ele>
        <time>2021-08-04T08:34:11.838Z</time>
      </trkpt>
      <trkpt lat="46.99198" lon="8.81657">
        <ele>1158</ele>
        <time>2021-08-04T08:34:12.838Z</time>
      </trkpt>
      <trkpt lat="46.99198" lon="8.81657">
        <ele>1158</ele>
        <time>2021-08-04T08:34:13.838Z</time>
      </trkpt>
      <trkpt lat="46.99198" lon="8.81656">
        <ele>1158</ele>
        <time>2021-08-04T08:34:14.839Z</time>
      </trkpt>
      <trkpt lat="46.99198" lon="8.81655">
        <ele>1158</ele>
        <time>2021-08-04T08:34:15.838Z</time>
      </trkpt>
      <trkpt lat="46.99198" lon="8.81653">
        <ele>1158</ele>
        <time>2021-08-04T08:34:16.838Z</time>
      </trkpt>
      <trkpt lat="46.99199" lon="8.81652">
        <ele>1159</ele>
        <time>2021-08-04T08:34:17.839Z</time>
      </trkpt>
      <trkpt lat="46.99199" lon="8.8165">
        <ele>1159</ele>
        <time>2021-08-04T08:34:18.838Z</time>
      </trkpt>
      <trkpt lat="46.99199" lon="8.81648">
        <ele>1159</ele>
        <time>2021-08-04T08:34:19.838Z</time>
      </trkpt>
      <trkpt lat="46.992" lon="8.81647">
        <ele>1160</ele>
        <time>2021-08-04T08:34:20.838Z</time>
      </trkpt>
      <trkpt lat="46.99199" lon="8.81646">
        <ele>1160</ele>
        <time>2021-08-04T08:34:21.838Z</time>
      </trkpt>
      <trkpt lat="46.99199" lon="8.81644">
        <ele>1161</ele>
        <time>2021-08-04T08:34:22.838Z</time>
      </trkpt>
      <trkpt lat="46.99197" lon="8.81643">
        <ele>1161</ele>
        <time>2021-08-04T08:34:23.838Z</time>
      </trkpt>
      <trkpt lat="46.99196" lon="8.81641">
        <ele>1161</ele>
        <time>2021-08-04T08:34:24.838Z</time>
      </trkpt>
      <trkpt lat="46.99195" lon="8.81641">
        <ele>1162</ele>
        <time>2021-08-04T08:34:25.838Z</time>
      </trkpt>
      <trkpt lat="46.99195" lon="8.8164">
        <ele>1162</ele>
        <time>2021-08-04T08:34:26.838Z</time>
      </trkpt>
      <trkpt lat="46.99194" lon="8.81639">
        <ele>1162</ele>
        <time>2021-08-04T08:34:27.838Z</time>
      </trkpt>
      <trkpt lat="46.99193" lon="8.81638">
        <ele>1162</ele>
        <time>2021-08-04T08:34:28.838Z</time>
      </trkpt>
      <trkpt lat="46.99192" lon="8.81637">
        <ele>1161</ele>
        <time>2021-08-04T08:34:29.838Z</time>
      </trkpt>
      <trkpt lat="46.99191" lon="8.81636">
        <ele>1161</ele>
        <time>2021-08-04T08:34:30.838Z</time>
      </trkpt>
      <trkpt lat="46.9919" lon="8.81636">
        <ele>1161</ele>
        <time>2021-08-04T08:34:31.838Z</time>
      </trkpt>
      <trkpt lat="46.99189" lon="8.81635">
        <ele>1161</ele>
        <time>2021-08-04T08:34:32.838Z</time>
      </trkpt>
      <trkpt lat="46.99188" lon="8.81634">
        <ele>1161</ele>
        <time>2021-08-04T08:34:33.838Z</time>
      </trkpt>
      <trkpt lat="46.99188" lon="8.81633">
        <ele>1161</ele>
        <time>2021-08-04T08:34:34.838Z</time>
      </trkpt>
      <trkpt lat="46.99188" lon="8.81632">
        <ele>1161</ele>
        <time>2021-08-04T08:34:35.838Z</time>
      </trkpt>
      <trkpt lat="46.99188" lon="8.81631">
        <ele>1161</ele>
        <time>2021-08-04T08:34:36.838Z</time>
      </trkpt>
      <trkpt lat="46.99188" lon="8.8163">
        <ele>1162</ele>
        <time>2021-08-04T08:34:37.839Z</time>
      </trkpt>
      <trkpt lat="46.99188" lon="8.81629">
        <ele>1162</ele>
        <time>2021-08-04T08:34:38.838Z</time>
      </trkpt>
      <trkpt lat="46.99188" lon="8.81629">
        <ele>1161</ele>
        <time>2021-08-04T08:34:39.838Z</time>
      </trkpt>
      <trkpt lat="46.99189" lon="8.81629">
        <ele>1160</ele>
        <time>2021-08-04T08:34:40.838Z</time>
      </trkpt>
      <trkpt lat="46.99189" lon="8.81628">
        <ele>1160</ele>
        <time>2021-08-04T08:34:41.839Z</time>
      </trkpt>
      <trkpt lat="46.99189" lon="8.81627">
        <ele>1159</ele>
        <time>2021-08-04T08:34:42.838Z</time>
      </trkpt>
      <trkpt lat="46.99189" lon="8.81627">
        <ele>1158</ele>
        <time>2021-08-04T08:34:43.838Z</time>
      </trkpt>
      <trkpt lat="46.99188" lon="8.81627">
        <ele>1158</ele>
        <time>2021-08-04T08:34:44.838Z</time>
      </trkpt>
      <trkpt lat="46.99188" lon="8.81628">
        <ele>1157</ele>
        <time>2021-08-04T08:34:45.839Z</time>
      </trkpt>
      <trkpt lat="46.99187" lon="8.81628">
        <ele>1156</ele>
        <time>2021-08-04T08:34:46.838Z</time>
      </trkpt>
      <trkpt lat="46.99188" lon="8.81628">
        <ele>1156</ele>
        <time>2021-08-04T08:34:47.838Z</time>
      </trkpt>
      <trkpt lat="46.99188" lon="8.81628">
        <ele>1156</ele>
        <time>2021-08-04T08:34:48.838Z</time>
      </trkpt>
      <trkpt lat="46.99189" lon="8.81627">
        <ele>1155</ele>
        <time>2021-08-04T08:34:49.838Z</time>
      </trkpt>
      <trkpt lat="46.99189" lon="8.81627">
        <ele>1156</ele>
        <time>2021-08-04T08:34:50.838Z</time>
      </trkpt>
      <trkpt lat="46.99189" lon="8.81627">
        <ele>1156</ele>
        <time>2021-08-04T08:34:51.838Z</time>
      </trkpt>
      <trkpt lat="46.99189" lon="8.81627">
        <ele>1156</ele>
        <time>2021-08-04T08:34:52.838Z</time>
      </trkpt>
      <trkpt lat="46.99192" lon="8.81628">
        <ele>1157</ele>
        <time>2021-08-04T08:34:53.839Z</time>
      </trkpt>
      <trkpt lat="46.99192" lon="8.81629">
        <ele>1157</ele>
        <time>2021-08-04T08:34:54.838Z</time>
      </trkpt>
      <trkpt lat="46.99193" lon="8.81629">
        <ele>1157</ele>
        <time>2021-08-04T08:34:55.839Z</time>
      </trkpt>
      <trkpt lat="46.99193" lon="8.81629">
        <ele>1157</ele>
        <time>2021-08-04T08:34:56.839Z</time>
      </trkpt>
      <trkpt lat="46.99193" lon="8.81629">
        <ele>1157</ele>
        <time>2021-08-04T08:34:57.839Z</time>
      </trkpt>
      <trkpt lat="46.99194" lon="8.8163">
        <ele>1157</ele>
        <time>2021-08-04T08:34:58.839Z</time>
      </trkpt>
      <trkpt lat="46.99195" lon="8.8163">
        <ele>1157</ele>
        <time>2021-08-04T08:34:59.839Z</time>
      </trkpt>
      <trkpt lat="46.99196" lon="8.8163">
        <ele>1157</ele>
        <time>2021-08-04T08:35:00.839Z</time>
      </trkpt>
      <trkpt lat="46.99197" lon="8.8163">
        <ele>1157</ele>
        <time>2021-08-04T08:35:01.839Z</time>
      </trkpt>
      <trkpt lat="46.99198" lon="8.8163">
        <ele>1157</ele>
        <time>2021-08-04T08:35:02.839Z</time>
      </trkpt>
      <trkpt lat="46.99198" lon="8.8163">
        <ele>1157</ele>
        <time>2021-08-04T08:35:03.839Z</time>
      </trkpt>
      <trkpt lat="46.99199" lon="8.81629">
        <ele>1157</ele>
        <time>2021-08-04T08:35:04.839Z</time>
      </trkpt>
      <trkpt lat="46.992" lon="8.8163">
        <ele>1157</ele>
        <time>2021-08-04T08:35:05.839Z</time>
      </trkpt>
      <trkpt lat="46.992" lon="8.8163">
        <ele>1157</ele>
        <time>2021-08-04T08:35:06.839Z</time>
      </trkpt>
      <trkpt lat="46.992" lon="8.81631">
        <ele>1157</ele>
        <time>2021-08-04T08:35:07.838Z</time>
      </trkpt>
      <trkpt lat="46.99199" lon="8.81632">
        <ele>1155</ele>
        <time>2021-08-04T08:35:08.840Z</time>
      </trkpt>
      <trkpt lat="46.99199" lon="8.81632">
        <ele>1154</ele>
        <time>2021-08-04T08:35:09.839Z</time>
      </trkpt>
      <trkpt lat="46.99202" lon="8.81629">
        <ele>1145</ele>
        <time>2021-08-04T08:35:10.839Z</time>
      </trkpt>
      <trkpt lat="46.99202" lon="8.81629">
        <ele>1145</ele>
        <time>2021-08-04T08:35:11.839Z</time>
      </trkpt>
      <trkpt lat="46.99199" lon="8.81627">
        <ele>1147</ele>
        <time>2021-08-04T08:35:12.841Z</time>
      </trkpt>
      <trkpt lat="46.99199" lon="8.81626">
        <ele>1147</ele>
        <time>2021-08-04T08:35:13.841Z</time>
      </trkpt>
      <trkpt lat="46.992" lon="8.81626">
        <ele>1147</ele>
        <time>2021-08-04T08:35:14.841Z</time>
      </trkpt>
      <trkpt lat="46.992" lon="8.81626">
        <ele>1147</ele>
        <time>2021-08-04T08:35:15.840Z</time>
      </trkpt>
      <trkpt lat="46.992" lon="8.81625">
        <ele>1147</ele>
        <time>2021-08-04T08:35:16.840Z</time>
      </trkpt>
      <trkpt lat="46.992" lon="8.81624">
        <ele>1147</ele>
        <time>2021-08-04T08:35:17.840Z</time>
      </trkpt>
      <trkpt lat="46.992" lon="8.81623">
        <ele>1147</ele>
        <time>2021-08-04T08:35:18.841Z</time>
      </trkpt>
      <trkpt lat="46.992" lon="8.81623">
        <ele>1148</ele>
        <time>2021-08-04T08:35:19.841Z</time>
      </trkpt>
      <trkpt lat="46.99201" lon="8.81622">
        <ele>1153</ele>
        <time>2021-08-04T08:35:20.842Z</time>
      </trkpt>
      <trkpt lat="46.99202" lon="8.81621">
        <ele>1155</ele>
        <time>2021-08-04T08:35:21.842Z</time>
      </trkpt>
      <trkpt lat="46.99202" lon="8.8162">
        <ele>1155</ele>
        <time>2021-08-04T08:35:22.842Z</time>
      </trkpt>
      <trkpt lat="46.99203" lon="8.81619">
        <ele>1156</ele>
        <time>2021-08-04T08:35:23.842Z</time>
      </trkpt>
      <trkpt lat="46.99203" lon="8.81618">
        <ele>1157</ele>
        <time>2021-08-04T08:35:24.842Z</time>
      </trkpt>
      <trkpt lat="46.99203" lon="8.81618">
        <ele>1157</ele>
        <time>2021-08-04T08:35:25.842Z</time>
      </trkpt>
      <trkpt lat="46.99203" lon="8.81618">
        <ele>1158</ele>
        <time>2021-08-04T08:35:26.842Z</time>
      </trkpt>
      <trkpt lat="46.99202" lon="8.81618">
        <ele>1158</ele>
        <time>2021-08-04T08:35:27.842Z</time>
      </trkpt>
      <trkpt lat="46.99203" lon="8.81618">
        <ele>1158</ele>
        <time>2021-08-04T08:35:28.842Z</time>
      </trkpt>
      <trkpt lat="46.99203" lon="8.81618">
        <ele>1158</ele>
        <time>2021-08-04T08:35:29.842Z</time>
      </trkpt>
      <trkpt lat="46.99204" lon="8.81619">
        <ele>1151</ele>
        <time>2021-08-04T08:35:30.842Z</time>
      </trkpt>
      <trkpt lat="46.99204" lon="8.81618">
        <ele>1151</ele>
        <time>2021-08-04T08:35:31.843Z</time>
      </trkpt>
      <trkpt lat="46.99204" lon="8.81617">
        <ele>1151</ele>
        <time>2021-08-04T08:35:32.843Z</time>
      </trkpt>
      <trkpt lat="46.99205" lon="8.81617">
        <ele>1151</ele>
        <time>2021-08-04T08:35:33.842Z</time>
      </trkpt>
      <trkpt lat="46.99205" lon="8.81616">
        <ele>1150</ele>
        <time>2021-08-04T08:35:34.843Z</time>
      </trkpt>
      <trkpt lat="46.99205" lon="8.81616">
        <ele>1150</ele>
        <time>2021-08-04T08:35:35.843Z</time>
      </trkpt>
      <trkpt lat="46.99205" lon="8.81616">
        <ele>1150</ele>
        <time>2021-08-04T08:35:36.842Z</time>
      </trkpt>
      <trkpt lat="46.99206" lon="8.81616">
        <ele>1149</ele>
        <time>2021-08-04T08:35:37.843Z</time>
      </trkpt>
      <trkpt lat="46.99206" lon="8.81616">
        <ele>1149</ele>
        <time>2021-08-04T08:35:38.843Z</time>
      </trkpt>
      <trkpt lat="46.99206" lon="8.81616">
        <ele>1148</ele>
        <time>2021-08-04T08:35:39.842Z</time>
      </trkpt>
      <trkpt lat="46.99207" lon="8.81616">
        <ele>1148</ele>
        <time>2021-08-04T08:35:40.842Z</time>
      </trkpt>
      <trkpt lat="46.99207" lon="8.81615">
        <ele>1148</ele>
        <time>2021-08-04T08:35:41.843Z</time>
      </trkpt>
      <trkpt lat="46.99207" lon="8.81615">
        <ele>1148</ele>
        <time>2021-08-04T08:35:42.843Z</time>
      </trkpt>
      <trkpt lat="46.99208" lon="8.81614">
        <ele>1148</ele>
        <time>2021-08-04T08:35:43.843Z</time>
      </trkpt>
      <trkpt lat="46.99208" lon="8.81613">
        <ele>1149</ele>
        <time>2021-08-04T08:35:44.843Z</time>
      </trkpt>
      <trkpt lat="46.99208" lon="8.81611">
        <ele>1149</ele>
        <time>2021-08-04T08:35:45.843Z</time>
      </trkpt>
      <trkpt lat="46.99208" lon="8.81609">
        <ele>1150</ele>
        <time>2021-08-04T08:35:46.843Z</time>
      </trkpt>
      <trkpt lat="46.99208" lon="8.81608">
        <ele>1150</ele>
        <time>2021-08-04T08:35:47.842Z</time>
      </trkpt>
      <trkpt lat="46.99208" lon="8.81606">
        <ele>1151</ele>
        <time>2021-08-04T08:35:48.843Z</time>
      </trkpt>
      <trkpt lat="46.99208" lon="8.81605">
        <ele>1152</ele>
        <time>2021-08-04T08:35:49.842Z</time>
      </trkpt>
      <trkpt lat="46.99208" lon="8.81603">
        <ele>1152</ele>
        <time>2021-08-04T08:35:50.843Z</time>
      </trkpt>
      <trkpt lat="46.99208" lon="8.81602">
        <ele>1152</ele>
        <time>2021-08-04T08:35:51.843Z</time>
      </trkpt>
      <trkpt lat="46.99208" lon="8.81601">
        <ele>1152</ele>
        <time>2021-08-04T08:35:52.843Z</time>
      </trkpt>
      <trkpt lat="46.99208" lon="8.816">
        <ele>1152</ele>
        <time>2021-08-04T08:35:53.842Z</time>
      </trkpt>
      <trkpt lat="46.99208" lon="8.81599">
        <ele>1152</ele>
        <time>2021-08-04T08:35:54.842Z</time>
      </trkpt>
      <trkpt lat="46.99208" lon="8.81599">
        <ele>1152</ele>
        <time>2021-08-04T08:35:55.843Z</time>
      </trkpt>
      <trkpt lat="46.99208" lon="8.81598">
        <ele>1151</ele>
        <time>2021-08-04T08:35:56.842Z</time>
      </trkpt>
      <trkpt lat="46.99208" lon="8.81597">
        <ele>1151</ele>
        <time>2021-08-04T08:35:57.843Z</time>
      </trkpt>
      <trkpt lat="46.99209" lon="8.81596">
        <ele>1151</ele>
        <time>2021-08-04T08:35:58.843Z</time>
      </trkpt>
      <trkpt lat="46.99209" lon="8.81594">
        <ele>1150</ele>
        <time>2021-08-04T08:35:59.842Z</time>
      </trkpt>
      <trkpt lat="46.99208" lon="8.81593">
        <ele>1150</ele>
        <time>2021-08-04T08:36:00.843Z</time>
      </trkpt>
      <trkpt lat="46.99208" lon="8.81592">
        <ele>1149</ele>
        <time>2021-08-04T08:36:01.842Z</time>
      </trkpt>
      <trkpt lat="46.99209" lon="8.81591">
        <ele>1148</ele>
        <time>2021-08-04T08:36:02.843Z</time>
      </trkpt>
      <trkpt lat="46.99209" lon="8.8159">
        <ele>1148</ele>
        <time>2021-08-04T08:36:03.843Z</time>
      </trkpt>
      <trkpt lat="46.99209" lon="8.81588">
        <ele>1147</ele>
        <time>2021-08-04T08:36:04.843Z</time>
      </trkpt>
      <trkpt lat="46.99209" lon="8.81587">
        <ele>1147</ele>
        <time>2021-08-04T08:36:05.842Z</time>
      </trkpt>
      <trkpt lat="46.99209" lon="8.81585">
        <ele>1148</ele>
        <time>2021-08-04T08:36:06.843Z</time>
      </trkpt>
      <trkpt lat="46.99209" lon="8.81583">
        <ele>1148</ele>
        <time>2021-08-04T08:36:07.842Z</time>
      </trkpt>
      <trkpt lat="46.99209" lon="8.81581">
        <ele>1149</ele>
        <time>2021-08-04T08:36:08.843Z</time>
      </trkpt>
      <trkpt lat="46.99208" lon="8.8158">
        <ele>1149</ele>
        <time>2021-08-04T08:36:09.843Z</time>
      </trkpt>
      <trkpt lat="46.99208" lon="8.81579">
        <ele>1149</ele>
        <time>2021-08-04T08:36:10.843Z</time>
      </trkpt>
      <trkpt lat="46.99208" lon="8.81578">
        <ele>1149</ele>
        <time>2021-08-04T08:36:11.843Z</time>
      </trkpt>
      <trkpt lat="46.99207" lon="8.81577">
        <ele>1149</ele>
        <time>2021-08-04T08:36:12.842Z</time>
      </trkpt>
      <trkpt lat="46.99207" lon="8.81576">
        <ele>1149</ele>
        <time>2021-08-04T08:36:13.842Z</time>
      </trkpt>
      <trkpt lat="46.99206" lon="8.81575">
        <ele>1149</ele>
        <time>2021-08-04T08:36:14.842Z</time>
      </trkpt>
      <trkpt lat="46.99206" lon="8.81573">
        <ele>1149</ele>
        <time>2021-08-04T08:36:15.843Z</time>
      </trkpt>
      <trkpt lat="46.99206" lon="8.81572">
        <ele>1149</ele>
        <time>2021-08-04T08:36:16.843Z</time>
      </trkpt>
      <trkpt lat="46.99206" lon="8.81571">
        <ele>1149</ele>
        <time>2021-08-04T08:36:17.842Z</time>
      </trkpt>
      <trkpt lat="46.99205" lon="8.8157">
        <ele>1149</ele>
        <time>2021-08-04T08:36:18.843Z</time>
      </trkpt>
      <trkpt lat="46.99205" lon="8.81569">
        <ele>1149</ele>
        <time>2021-08-04T08:36:19.842Z</time>
      </trkpt>
      <trkpt lat="46.99205" lon="8.81568">
        <ele>1149</ele>
        <time>2021-08-04T08:36:20.843Z</time>
      </trkpt>
      <trkpt lat="46.99205" lon="8.81567">
        <ele>1149</ele>
        <time>2021-08-04T08:36:21.843Z</time>
      </trkpt>
      <trkpt lat="46.99205" lon="8.81566">
        <ele>1149</ele>
        <time>2021-08-04T08:36:22.842Z</time>
      </trkpt>
      <trkpt lat="46.99205" lon="8.81564">
        <ele>1149</ele>
        <time>2021-08-04T08:36:23.843Z</time>
      </trkpt>
      <trkpt lat="46.99205" lon="8.81563">
        <ele>1149</ele>
        <time>2021-08-04T08:36:24.843Z</time>
      </trkpt>
      <trkpt lat="46.99205" lon="8.81562">
        <ele>1149</ele>
        <time>2021-08-04T08:36:25.842Z</time>
      </trkpt>
      <trkpt lat="46.99205" lon="8.8156">
        <ele>1149</ele>
        <time>2021-08-04T08:36:26.843Z</time>
      </trkpt>
      <trkpt lat="46.99204" lon="8.81558">
        <ele>1149</ele>
        <time>2021-08-04T08:36:27.843Z</time>
      </trkpt>
      <trkpt lat="46.99204" lon="8.81556">
        <ele>1149</ele>
        <time>2021-08-04T08:36:28.843Z</time>
      </trkpt>
      <trkpt lat="46.99204" lon="8.81555">
        <ele>1149</ele>
        <time>2021-08-04T08:36:29.843Z</time>
      </trkpt>
      <trkpt lat="46.99204" lon="8.81554">
        <ele>1149</ele>
        <time>2021-08-04T08:36:30.842Z</time>
      </trkpt>
      <trkpt lat="46.99205" lon="8.81552">
        <ele>1149</ele>
        <time>2021-08-04T08:36:31.843Z</time>
      </trkpt>
      <trkpt lat="46.99205" lon="8.81551">
        <ele>1149</ele>
        <time>2021-08-04T08:36:32.843Z</time>
      </trkpt>
      <trkpt lat="46.99205" lon="8.81548">
        <ele>1149</ele>
        <time>2021-08-04T08:36:33.843Z</time>
      </trkpt>
      <trkpt lat="46.99205" lon="8.81547">
        <ele>1149</ele>
        <time>2021-08-04T08:36:34.842Z</time>
      </trkpt>
      <trkpt lat="46.99206" lon="8.81546">
        <ele>1149</ele>
        <time>2021-08-04T08:36:35.843Z</time>
      </trkpt>
      <trkpt lat="46.99207" lon="8.81545">
        <ele>1149</ele>
        <time>2021-08-04T08:36:36.843Z</time>
      </trkpt>
      <trkpt lat="46.99207" lon="8.81544">
        <ele>1149</ele>
        <time>2021-08-04T08:36:37.843Z</time>
      </trkpt>
      <trkpt lat="46.99209" lon="8.81542">
        <ele>1149</ele>
        <time>2021-08-04T08:36:38.842Z</time>
      </trkpt>
      <trkpt lat="46.99209" lon="8.81541">
        <ele>1150</ele>
        <time>2021-08-04T08:36:39.843Z</time>
      </trkpt>
      <trkpt lat="46.99209" lon="8.8154">
        <ele>1150</ele>
        <time>2021-08-04T08:36:40.843Z</time>
      </trkpt>
      <trkpt lat="46.99209" lon="8.81539">
        <ele>1150</ele>
        <time>2021-08-04T08:36:41.843Z</time>
      </trkpt>
      <trkpt lat="46.99208" lon="8.81537">
        <ele>1150</ele>
        <time>2021-08-04T08:36:42.843Z</time>
      </trkpt>
      <trkpt lat="46.99207" lon="8.81535">
        <ele>1151</ele>
        <time>2021-08-04T08:36:43.843Z</time>
      </trkpt>
      <trkpt lat="46.99206" lon="8.81533">
        <ele>1151</ele>
        <time>2021-08-04T08:36:44.842Z</time>
      </trkpt>
      <trkpt lat="46.99206" lon="8.81532">
        <ele>1151</ele>
        <time>2021-08-04T08:36:45.842Z</time>
      </trkpt>
      <trkpt lat="46.99206" lon="8.81531">
        <ele>1152</ele>
        <time>2021-08-04T08:36:46.843Z</time>
      </trkpt>
      <trkpt lat="46.99206" lon="8.81529">
        <ele>1152</ele>
        <time>2021-08-04T08:36:47.842Z</time>
      </trkpt>
      <trkpt lat="46.99206" lon="8.81528">
        <ele>1152</ele>
        <time>2021-08-04T08:36:48.843Z</time>
      </trkpt>
      <trkpt lat="46.99205" lon="8.81526">
        <ele>1151</ele>
        <time>2021-08-04T08:36:49.843Z</time>
      </trkpt>
      <trkpt lat="46.99205" lon="8.81524">
        <ele>1151</ele>
        <time>2021-08-04T08:36:50.842Z</time>
      </trkpt>
      <trkpt lat="46.99205" lon="8.81522">
        <ele>1151</ele>
        <time>2021-08-04T08:36:51.842Z</time>
      </trkpt>
      <trkpt lat="46.99206" lon="8.81521">
        <ele>1151</ele>
        <time>2021-08-04T08:36:52.842Z</time>
      </trkpt>
      <trkpt lat="46.99205" lon="8.81521">
        <ele>1150</ele>
        <time>2021-08-04T08:36:53.842Z</time>
      </trkpt>
      <trkpt lat="46.99205" lon="8.8152">
        <ele>1150</ele>
        <time>2021-08-04T08:36:54.842Z</time>
      </trkpt>
      <trkpt lat="46.99205" lon="8.81519">
        <ele>1150</ele>
        <time>2021-08-04T08:36:55.843Z</time>
      </trkpt>
      <trkpt lat="46.99205" lon="8.81517">
        <ele>1150</ele>
        <time>2021-08-04T08:36:56.843Z</time>
      </trkpt>
      <trkpt lat="46.99206" lon="8.81516">
        <ele>1150</ele>
        <time>2021-08-04T08:36:57.843Z</time>
      </trkpt>
      <trkpt lat="46.99205" lon="8.81515">
        <ele>1149</ele>
        <time>2021-08-04T08:36:58.843Z</time>
      </trkpt>
      <trkpt lat="46.99205" lon="8.81515">
        <ele>1149</ele>
        <time>2021-08-04T08:36:59.842Z</time>
      </trkpt>
      <trkpt lat="46.99204" lon="8.81515">
        <ele>1148</ele>
        <time>2021-08-04T08:37:00.843Z</time>
      </trkpt>
      <trkpt lat="46.99204" lon="8.81515">
        <ele>1148</ele>
        <time>2021-08-04T08:37:01.843Z</time>
      </trkpt>
      <trkpt lat="46.99204" lon="8.81513">
        <ele>1147</ele>
        <time>2021-08-04T08:37:02.843Z</time>
      </trkpt>
      <trkpt lat="46.99204" lon="8.81512">
        <ele>1147</ele>
        <time>2021-08-04T08:37:03.843Z</time>
      </trkpt>
      <trkpt lat="46.99204" lon="8.81512">
        <ele>1147</ele>
        <time>2021-08-04T08:37:04.843Z</time>
      </trkpt>
      <trkpt lat="46.99202" lon="8.81514">
        <ele>1150</ele>
        <time>2021-08-04T08:37:05.843Z</time>
      </trkpt>
      <trkpt lat="46.99202" lon="8.81514">
        <ele>1150</ele>
        <time>2021-08-04T08:37:06.844Z</time>
      </trkpt>
      <trkpt lat="46.99203" lon="8.81514">
        <ele>1151</ele>
        <time>2021-08-04T08:37:07.843Z</time>
      </trkpt>
      <trkpt lat="46.99203" lon="8.81514">
        <ele>1150</ele>
        <time>2021-08-04T08:37:08.844Z</time>
      </trkpt>
      <trkpt lat="46.99201" lon="8.81515">
        <ele>1148</ele>
        <time>2021-08-04T08:37:09.845Z</time>
      </trkpt>
      <trkpt lat="46.99201" lon="8.81515">
        <ele>1148</ele>
        <time>2021-08-04T08:37:10.844Z</time>
      </trkpt>
      <trkpt lat="46.99202" lon="8.81513">
        <ele>1148</ele>
        <time>2021-08-04T08:37:11.844Z</time>
      </trkpt>
      <trkpt lat="46.99202" lon="8.81512">
        <ele>1148</ele>
        <time>2021-08-04T08:37:12.844Z</time>
      </trkpt>
      <trkpt lat="46.99202" lon="8.81511">
        <ele>1149</ele>
        <time>2021-08-04T08:37:13.844Z</time>
      </trkpt>
      <trkpt lat="46.99202" lon="8.8151">
        <ele>1149</ele>
        <time>2021-08-04T08:37:14.845Z</time>
      </trkpt>
      <trkpt lat="46.99202" lon="8.8151">
        <ele>1149</ele>
        <time>2021-08-04T08:37:15.844Z</time>
      </trkpt>
      <trkpt lat="46.99202" lon="8.81509">
        <ele>1149</ele>
        <time>2021-08-04T08:37:16.844Z</time>
      </trkpt>
      <trkpt lat="46.99201" lon="8.81507">
        <ele>1148</ele>
        <time>2021-08-04T08:37:17.846Z</time>
      </trkpt>
      <trkpt lat="46.99201" lon="8.81506">
        <ele>1149</ele>
        <time>2021-08-04T08:37:18.846Z</time>
      </trkpt>
      <trkpt lat="46.99201" lon="8.81504">
        <ele>1149</ele>
        <time>2021-08-04T08:37:19.845Z</time>
      </trkpt>
      <trkpt lat="46.99201" lon="8.81503">
        <ele>1149</ele>
        <time>2021-08-04T08:37:20.846Z</time>
      </trkpt>
      <trkpt lat="46.99201" lon="8.81502">
        <ele>1149</ele>
        <time>2021-08-04T08:37:21.846Z</time>
      </trkpt>
      <trkpt lat="46.992" lon="8.81502">
        <ele>1149</ele>
        <time>2021-08-04T08:37:22.846Z</time>
      </trkpt>
      <trkpt lat="46.992" lon="8.81501">
        <ele>1148</ele>
        <time>2021-08-04T08:37:23.846Z</time>
      </trkpt>
      <trkpt lat="46.99199" lon="8.81501">
        <ele>1148</ele>
        <time>2021-08-04T08:37:24.846Z</time>
      </trkpt>
      <trkpt lat="46.99199" lon="8.815">
        <ele>1148</ele>
        <time>2021-08-04T08:37:25.846Z</time>
      </trkpt>
      <trkpt lat="46.99198" lon="8.81499">
        <ele>1147</ele>
        <time>2021-08-04T08:37:26.846Z</time>
      </trkpt>
      <trkpt lat="46.99198" lon="8.81498">
        <ele>1147</ele>
        <time>2021-08-04T08:37:27.846Z</time>
      </trkpt>
      <trkpt lat="46.99198" lon="8.81497">
        <ele>1147</ele>
        <time>2021-08-04T08:37:28.846Z</time>
      </trkpt>
      <trkpt lat="46.99198" lon="8.81496">
        <ele>1147</ele>
        <time>2021-08-04T08:37:29.846Z</time>
      </trkpt>
      <trkpt lat="46.99198" lon="8.81495">
        <ele>1147</ele>
        <time>2021-08-04T08:37:30.845Z</time>
      </trkpt>
      <trkpt lat="46.99198" lon="8.81494">
        <ele>1147</ele>
        <time>2021-08-04T08:37:31.845Z</time>
      </trkpt>
      <trkpt lat="46.99197" lon="8.81492">
        <ele>1147</ele>
        <time>2021-08-04T08:37:32.846Z</time>
      </trkpt>
      <trkpt lat="46.99196" lon="8.8149">
        <ele>1147</ele>
        <time>2021-08-04T08:37:33.846Z</time>
      </trkpt>
      <trkpt lat="46.99196" lon="8.81488">
        <ele>1147</ele>
        <time>2021-08-04T08:37:34.845Z</time>
      </trkpt>
      <trkpt lat="46.99196" lon="8.81487">
        <ele>1148</ele>
        <time>2021-08-04T08:37:35.846Z</time>
      </trkpt>
      <trkpt lat="46.99196" lon="8.81485">
        <ele>1149</ele>
        <time>2021-08-04T08:37:36.846Z</time>
      </trkpt>
      <trkpt lat="46.99196" lon="8.81483">
        <ele>1149</ele>
        <time>2021-08-04T08:37:37.846Z</time>
      </trkpt>
      <trkpt lat="46.99195" lon="8.81482">
        <ele>1149</ele>
        <time>2021-08-04T08:37:38.845Z</time>
      </trkpt>
      <trkpt lat="46.99194" lon="8.8148">
        <ele>1149</ele>
        <time>2021-08-04T08:37:39.845Z</time>
      </trkpt>
      <trkpt lat="46.99193" lon="8.81478">
        <ele>1149</ele>
        <time>2021-08-04T08:37:40.846Z</time>
      </trkpt>
      <trkpt lat="46.99193" lon="8.81477">
        <ele>1148</ele>
        <time>2021-08-04T08:37:41.846Z</time>
      </trkpt>
      <trkpt lat="46.99192" lon="8.81477">
        <ele>1147</ele>
        <time>2021-08-04T08:37:42.846Z</time>
      </trkpt>
      <trkpt lat="46.99192" lon="8.81476">
        <ele>1147</ele>
        <time>2021-08-04T08:37:43.846Z</time>
      </trkpt>
      <trkpt lat="46.99192" lon="8.81477">
        <ele>1146</ele>
        <time>2021-08-04T08:37:44.846Z</time>
      </trkpt>
      <trkpt lat="46.99191" lon="8.81477">
        <ele>1142</ele>
        <time>2021-08-04T08:37:45.846Z</time>
      </trkpt>
      <trkpt lat="46.99191" lon="8.81476">
        <ele>1144</ele>
        <time>2021-08-04T08:37:46.846Z</time>
      </trkpt>
      <trkpt lat="46.9919" lon="8.81476">
        <ele>1145</ele>
        <time>2021-08-04T08:37:47.845Z</time>
      </trkpt>
      <trkpt lat="46.9919" lon="8.81469">
        <ele>1153</ele>
        <time>2021-08-04T08:37:48.846Z</time>
      </trkpt>
      <trkpt lat="46.99189" lon="8.81468">
        <ele>1154</ele>
        <time>2021-08-04T08:37:49.847Z</time>
      </trkpt>
      <trkpt lat="46.99189" lon="8.81466">
        <ele>1154</ele>
        <time>2021-08-04T08:37:50.846Z</time>
      </trkpt>
      <trkpt lat="46.99189" lon="8.81465">
        <ele>1154</ele>
        <time>2021-08-04T08:37:51.846Z</time>
      </trkpt>
      <trkpt lat="46.99189" lon="8.81464">
        <ele>1154</ele>
        <time>2021-08-04T08:37:52.847Z</time>
      </trkpt>
      <trkpt lat="46.99189" lon="8.81462">
        <ele>1154</ele>
        <time>2021-08-04T08:37:53.847Z</time>
      </trkpt>
      <trkpt lat="46.99189" lon="8.81462">
        <ele>1153</ele>
        <time>2021-08-04T08:37:54.847Z</time>
      </trkpt>
      <trkpt lat="46.99188" lon="8.81461">
        <ele>1153</ele>
        <time>2021-08-04T08:37:55.847Z</time>
      </trkpt>
      <trkpt lat="46.99188" lon="8.8146">
        <ele>1152</ele>
        <time>2021-08-04T08:37:56.847Z</time>
      </trkpt>
      <trkpt lat="46.99188" lon="8.81458">
        <ele>1152</ele>
        <time>2021-08-04T08:37:57.846Z</time>
      </trkpt>
      <trkpt lat="46.99188" lon="8.81458">
        <ele>1152</ele>
        <time>2021-08-04T08:37:58.847Z</time>
      </trkpt>
      <trkpt lat="46.99188" lon="8.81457">
        <ele>1151</ele>
        <time>2021-08-04T08:37:59.847Z</time>
      </trkpt>
      <trkpt lat="46.99188" lon="8.81457">
        <ele>1151</ele>
        <time>2021-08-04T08:38:00.847Z</time>
      </trkpt>
      <trkpt lat="46.99185" lon="8.81453">
        <ele>1150</ele>
        <time>2021-08-04T08:38:01.846Z</time>
      </trkpt>
      <trkpt lat="46.99185" lon="8.81453">
        <ele>1150</ele>
        <time>2021-08-04T08:38:02.847Z</time>
      </trkpt>
      <trkpt lat="46.99184" lon="8.81452">
        <ele>1150</ele>
        <time>2021-08-04T08:38:03.846Z</time>
      </trkpt>
      <trkpt lat="46.99184" lon="8.81451">
        <ele>1150</ele>
        <time>2021-08-04T08:38:04.846Z</time>
      </trkpt>
      <trkpt lat="46.99183" lon="8.8145">
        <ele>1150</ele>
        <time>2021-08-04T08:38:05.846Z</time>
      </trkpt>
      <trkpt lat="46.99182" lon="8.81449">
        <ele>1149</ele>
        <time>2021-08-04T08:38:06.846Z</time>
      </trkpt>
      <trkpt lat="46.99182" lon="8.81448">
        <ele>1149</ele>
        <time>2021-08-04T08:38:07.847Z</time>
      </trkpt>
      <trkpt lat="46.99181" lon="8.81448">
        <ele>1149</ele>
        <time>2021-08-04T08:38:08.847Z</time>
      </trkpt>
      <trkpt lat="46.99181" lon="8.81447">
        <ele>1149</ele>
        <time>2021-08-04T08:38:09.846Z</time>
      </trkpt>
      <trkpt lat="46.9918" lon="8.81445">
        <ele>1149</ele>
        <time>2021-08-04T08:38:10.847Z</time>
      </trkpt>
      <trkpt lat="46.9918" lon="8.81444">
        <ele>1148</ele>
        <time>2021-08-04T08:38:11.847Z</time>
      </trkpt>
      <trkpt lat="46.9918" lon="8.81442">
        <ele>1148</ele>
        <time>2021-08-04T08:38:12.846Z</time>
      </trkpt>
      <trkpt lat="46.9918" lon="8.81439">
        <ele>1148</ele>
        <time>2021-08-04T08:38:13.846Z</time>
      </trkpt>
      <trkpt lat="46.9918" lon="8.81437">
        <ele>1147</ele>
        <time>2021-08-04T08:38:14.846Z</time>
      </trkpt>
      <trkpt lat="46.99179" lon="8.81436">
        <ele>1147</ele>
        <time>2021-08-04T08:38:15.846Z</time>
      </trkpt>
      <trkpt lat="46.99178" lon="8.81435">
        <ele>1147</ele>
        <time>2021-08-04T08:38:16.846Z</time>
      </trkpt>
      <trkpt lat="46.99178" lon="8.81434">
        <ele>1146</ele>
        <time>2021-08-04T08:38:17.847Z</time>
      </trkpt>
      <trkpt lat="46.99177" lon="8.81433">
        <ele>1146</ele>
        <time>2021-08-04T08:38:18.847Z</time>
      </trkpt>
      <trkpt lat="46.99176" lon="8.81432">
        <ele>1146</ele>
        <time>2021-08-04T08:38:19.846Z</time>
      </trkpt>
      <trkpt lat="46.99176" lon="8.81431">
        <ele>1145</ele>
        <time>2021-08-04T08:38:20.847Z</time>
      </trkpt>
      <trkpt lat="46.99175" lon="8.8143">
        <ele>1145</ele>
        <time>2021-08-04T08:38:21.847Z</time>
      </trkpt>
      <trkpt lat="46.99174" lon="8.81429">
        <ele>1145</ele>
        <time>2021-08-04T08:38:22.847Z</time>
      </trkpt>
      <trkpt lat="46.99174" lon="8.81427">
        <ele>1145</ele>
        <time>2021-08-04T08:38:23.846Z</time>
      </trkpt>
      <trkpt lat="46.99173" lon="8.81426">
        <ele>1145</ele>
        <time>2021-08-04T08:38:24.847Z</time>
      </trkpt>
      <trkpt lat="46.99173" lon="8.81425">
        <ele>1145</ele>
        <time>2021-08-04T08:38:25.846Z</time>
      </trkpt>
      <trkpt lat="46.99173" lon="8.81425">
        <ele>1145</ele>
        <time>2021-08-04T08:38:26.846Z</time>
      </trkpt>
      <trkpt lat="46.99172" lon="8.81423">
        <ele>1145</ele>
        <time>2021-08-04T08:38:27.846Z</time>
      </trkpt>
      <trkpt lat="46.99172" lon="8.81422">
        <ele>1145</ele>
        <time>2021-08-04T08:38:28.847Z</time>
      </trkpt>
      <trkpt lat="46.99172" lon="8.8142">
        <ele>1145</ele>
        <time>2021-08-04T08:38:29.847Z</time>
      </trkpt>
      <trkpt lat="46.99171" lon="8.81419">
        <ele>1144</ele>
        <time>2021-08-04T08:38:30.847Z</time>
      </trkpt>
      <trkpt lat="46.99171" lon="8.81417">
        <ele>1144</ele>
        <time>2021-08-04T08:38:31.846Z</time>
      </trkpt>
      <trkpt lat="46.99171" lon="8.81416">
        <ele>1144</ele>
        <time>2021-08-04T08:38:32.846Z</time>
      </trkpt>
      <trkpt lat="46.9917" lon="8.81415">
        <ele>1144</ele>
        <time>2021-08-04T08:38:33.846Z</time>
      </trkpt>
      <trkpt lat="46.9917" lon="8.81413">
        <ele>1144</ele>
        <time>2021-08-04T08:38:34.847Z</time>
      </trkpt>
      <trkpt lat="46.9917" lon="8.81412">
        <ele>1143</ele>
        <time>2021-08-04T08:38:35.847Z</time>
      </trkpt>
      <trkpt lat="46.99169" lon="8.81411">
        <ele>1143</ele>
        <time>2021-08-04T08:38:36.847Z</time>
      </trkpt>
      <trkpt lat="46.99169" lon="8.8141">
        <ele>1143</ele>
        <time>2021-08-04T08:38:37.847Z</time>
      </trkpt>
      <trkpt lat="46.99169" lon="8.81409">
        <ele>1143</ele>
        <time>2021-08-04T08:38:38.847Z</time>
      </trkpt>
      <trkpt lat="46.99169" lon="8.81407">
        <ele>1143</ele>
        <time>2021-08-04T08:38:39.847Z</time>
      </trkpt>
      <trkpt lat="46.99168" lon="8.81406">
        <ele>1143</ele>
        <time>2021-08-04T08:38:40.847Z</time>
      </trkpt>
      <trkpt lat="46.99168" lon="8.81405">
        <ele>1143</ele>
        <time>2021-08-04T08:38:41.847Z</time>
      </trkpt>
      <trkpt lat="46.99168" lon="8.81403">
        <ele>1143</ele>
        <time>2021-08-04T08:38:42.847Z</time>
      </trkpt>
      <trkpt lat="46.99167" lon="8.81402">
        <ele>1143</ele>
        <time>2021-08-04T08:38:43.847Z</time>
      </trkpt>
      <trkpt lat="46.99167" lon="8.814">
        <ele>1143</ele>
        <time>2021-08-04T08:38:44.846Z</time>
      </trkpt>
      <trkpt lat="46.99167" lon="8.81398">
        <ele>1143</ele>
        <time>2021-08-04T08:38:45.847Z</time>
      </trkpt>
      <trkpt lat="46.99167" lon="8.81397">
        <ele>1143</ele>
        <time>2021-08-04T08:38:46.847Z</time>
      </trkpt>
      <trkpt lat="46.99167" lon="8.81395">
        <ele>1142</ele>
        <time>2021-08-04T08:38:47.847Z</time>
      </trkpt>
      <trkpt lat="46.99166" lon="8.81394">
        <ele>1142</ele>
        <time>2021-08-04T08:38:48.846Z</time>
      </trkpt>
      <trkpt lat="46.99166" lon="8.81392">
        <ele>1142</ele>
        <time>2021-08-04T08:38:49.847Z</time>
      </trkpt>
      <trkpt lat="46.99166" lon="8.8139">
        <ele>1141</ele>
        <time>2021-08-04T08:38:50.846Z</time>
      </trkpt>
      <trkpt lat="46.99167" lon="8.81388">
        <ele>1142</ele>
        <time>2021-08-04T08:38:51.846Z</time>
      </trkpt>
      <trkpt lat="46.99167" lon="8.81386">
        <ele>1142</ele>
        <time>2021-08-04T08:38:52.846Z</time>
      </trkpt>
      <trkpt lat="46.99167" lon="8.81385">
        <ele>1142</ele>
        <time>2021-08-04T08:38:53.846Z</time>
      </trkpt>
      <trkpt lat="46.99168" lon="8.81384">
        <ele>1142</ele>
        <time>2021-08-04T08:38:54.847Z</time>
      </trkpt>
      <trkpt lat="46.99168" lon="8.81383">
        <ele>1143</ele>
        <time>2021-08-04T08:38:55.847Z</time>
      </trkpt>
      <trkpt lat="46.99168" lon="8.81382">
        <ele>1142</ele>
        <time>2021-08-04T08:38:56.846Z</time>
      </trkpt>
      <trkpt lat="46.99168" lon="8.81381">
        <ele>1142</ele>
        <time>2021-08-04T08:38:57.846Z</time>
      </trkpt>
      <trkpt lat="46.99169" lon="8.81381">
        <ele>1142</ele>
        <time>2021-08-04T08:38:58.846Z</time>
      </trkpt>
      <trkpt lat="46.99169" lon="8.8138">
        <ele>1142</ele>
        <time>2021-08-04T08:38:59.847Z</time>
      </trkpt>
      <trkpt lat="46.99169" lon="8.8138">
        <ele>1142</ele>
        <time>2021-08-04T08:39:00.847Z</time>
      </trkpt>
      <trkpt lat="46.9917" lon="8.81379">
        <ele>1142</ele>
        <time>2021-08-04T08:39:01.847Z</time>
      </trkpt>
      <trkpt lat="46.9917" lon="8.81378">
        <ele>1142</ele>
        <time>2021-08-04T08:39:02.847Z</time>
      </trkpt>
      <trkpt lat="46.9917" lon="8.81377">
        <ele>1143</ele>
        <time>2021-08-04T08:39:03.846Z</time>
      </trkpt>
      <trkpt lat="46.9917" lon="8.81377">
        <ele>1144</ele>
        <time>2021-08-04T08:39:04.846Z</time>
      </trkpt>
      <trkpt lat="46.9917" lon="8.81376">
        <ele>1144</ele>
        <time>2021-08-04T08:39:05.847Z</time>
      </trkpt>
      <trkpt lat="46.9917" lon="8.81375">
        <ele>1144</ele>
        <time>2021-08-04T08:39:06.846Z</time>
      </trkpt>
      <trkpt lat="46.9917" lon="8.81374">
        <ele>1145</ele>
        <time>2021-08-04T08:39:07.847Z</time>
      </trkpt>
      <trkpt lat="46.9917" lon="8.81374">
        <ele>1145</ele>
        <time>2021-08-04T08:39:08.847Z</time>
      </trkpt>
      <trkpt lat="46.9917" lon="8.81372">
        <ele>1144</ele>
        <time>2021-08-04T08:39:09.846Z</time>
      </trkpt>
      <trkpt lat="46.9917" lon="8.81371">
        <ele>1144</ele>
        <time>2021-08-04T08:39:10.847Z</time>
      </trkpt>
      <trkpt lat="46.9917" lon="8.81369">
        <ele>1144</ele>
        <time>2021-08-04T08:39:11.846Z</time>
      </trkpt>
      <trkpt lat="46.9917" lon="8.81368">
        <ele>1145</ele>
        <time>2021-08-04T08:39:12.846Z</time>
      </trkpt>
      <trkpt lat="46.9917" lon="8.81366">
        <ele>1145</ele>
        <time>2021-08-04T08:39:13.847Z</time>
      </trkpt>
      <trkpt lat="46.9917" lon="8.81364">
        <ele>1145</ele>
        <time>2021-08-04T08:39:14.847Z</time>
      </trkpt>
      <trkpt lat="46.9917" lon="8.81363">
        <ele>1146</ele>
        <time>2021-08-04T08:39:15.846Z</time>
      </trkpt>
      <trkpt lat="46.9917" lon="8.81361">
        <ele>1145</ele>
        <time>2021-08-04T08:39:16.847Z</time>
      </trkpt>
      <trkpt lat="46.9917" lon="8.8136">
        <ele>1145</ele>
        <time>2021-08-04T08:39:17.846Z</time>
      </trkpt>
      <trkpt lat="46.9917" lon="8.81359">
        <ele>1144</ele>
        <time>2021-08-04T08:39:18.846Z</time>
      </trkpt>
      <trkpt lat="46.9917" lon="8.81358">
        <ele>1144</ele>
        <time>2021-08-04T08:39:19.847Z</time>
      </trkpt>
      <trkpt lat="46.99169" lon="8.81356">
        <ele>1144</ele>
        <time>2021-08-04T08:39:20.847Z</time>
      </trkpt>
      <trkpt lat="46.99169" lon="8.81353">
        <ele>1143</ele>
        <time>2021-08-04T08:39:21.847Z</time>
      </trkpt>
      <trkpt lat="46.99168" lon="8.81352">
        <ele>1143</ele>
        <time>2021-08-04T08:39:22.847Z</time>
      </trkpt>
      <trkpt lat="46.99168" lon="8.8135">
        <ele>1144</ele>
        <time>2021-08-04T08:39:23.847Z</time>
      </trkpt>
      <trkpt lat="46.99167" lon="8.81349">
        <ele>1144</ele>
        <time>2021-08-04T08:39:24.847Z</time>
      </trkpt>
      <trkpt lat="46.99167" lon="8.81348">
        <ele>1144</ele>
        <time>2021-08-04T08:39:25.846Z</time>
      </trkpt>
      <trkpt lat="46.99167" lon="8.81347">
        <ele>1144</ele>
        <time>2021-08-04T08:39:26.847Z</time>
      </trkpt>
      <trkpt lat="46.99167" lon="8.81345">
        <ele>1144</ele>
        <time>2021-08-04T08:39:27.847Z</time>
      </trkpt>
      <trkpt lat="46.99166" lon="8.81344">
        <ele>1144</ele>
        <time>2021-08-04T08:39:28.847Z</time>
      </trkpt>
      <trkpt lat="46.99166" lon="8.81343">
        <ele>1144</ele>
        <time>2021-08-04T08:39:29.846Z</time>
      </trkpt>
      <trkpt lat="46.99166" lon="8.81341">
        <ele>1143</ele>
        <time>2021-08-04T08:39:30.846Z</time>
      </trkpt>
      <trkpt lat="46.99165" lon="8.8134">
        <ele>1143</ele>
        <time>2021-08-04T08:39:31.847Z</time>
      </trkpt>
      <trkpt lat="46.99165" lon="8.81339">
        <ele>1143</ele>
        <time>2021-08-04T08:39:32.847Z</time>
      </trkpt>
      <trkpt lat="46.99165" lon="8.81337">
        <ele>1143</ele>
        <time>2021-08-04T08:39:33.847Z</time>
      </trkpt>
      <trkpt lat="46.99165" lon="8.81336">
        <ele>1142</ele>
        <time>2021-08-04T08:39:34.846Z</time>
      </trkpt>
      <trkpt lat="46.99165" lon="8.81335">
        <ele>1142</ele>
        <time>2021-08-04T08:39:35.846Z</time>
      </trkpt>
      <trkpt lat="46.99165" lon="8.81333">
        <ele>1142</ele>
        <time>2021-08-04T08:39:36.847Z</time>
      </trkpt>
      <trkpt lat="46.99165" lon="8.81332">
        <ele>1142</ele>
        <time>2021-08-04T08:39:37.846Z</time>
      </trkpt>
      <trkpt lat="46.99165" lon="8.8133">
        <ele>1142</ele>
        <time>2021-08-04T08:39:38.847Z</time>
      </trkpt>
      <trkpt lat="46.99164" lon="8.81329">
        <ele>1142</ele>
        <time>2021-08-04T08:39:39.846Z</time>
      </trkpt>
      <trkpt lat="46.99164" lon="8.81327">
        <ele>1142</ele>
        <time>2021-08-04T08:39:40.847Z</time>
      </trkpt>
      <trkpt lat="46.99163" lon="8.81326">
        <ele>1142</ele>
        <time>2021-08-04T08:39:41.847Z</time>
      </trkpt>
      <trkpt lat="46.99163" lon="8.81325">
        <ele>1142</ele>
        <time>2021-08-04T08:39:42.847Z</time>
      </trkpt>
      <trkpt lat="46.99162" lon="8.81324">
        <ele>1142</ele>
        <time>2021-08-04T08:39:43.846Z</time>
      </trkpt>
      <trkpt lat="46.99162" lon="8.81323">
        <ele>1141</ele>
        <time>2021-08-04T08:39:44.846Z</time>
      </trkpt>
      <trkpt lat="46.99162" lon="8.81321">
        <ele>1141</ele>
        <time>2021-08-04T08:39:45.847Z</time>
      </trkpt>
      <trkpt lat="46.99162" lon="8.8132">
        <ele>1141</ele>
        <time>2021-08-04T08:39:46.846Z</time>
      </trkpt>
      <trkpt lat="46.99162" lon="8.81318">
        <ele>1141</ele>
        <time>2021-08-04T08:39:47.847Z</time>
      </trkpt>
      <trkpt lat="46.99162" lon="8.81317">
        <ele>1141</ele>
        <time>2021-08-04T08:39:48.847Z</time>
      </trkpt>
      <trkpt lat="46.99161" lon="8.81315">
        <ele>1141</ele>
        <time>2021-08-04T08:39:49.846Z</time>
      </trkpt>
      <trkpt lat="46.99161" lon="8.81314">
        <ele>1142</ele>
        <time>2021-08-04T08:39:50.847Z</time>
      </trkpt>
      <trkpt lat="46.99161" lon="8.81313">
        <ele>1142</ele>
        <time>2021-08-04T08:39:51.847Z</time>
      </trkpt>
      <trkpt lat="46.9916" lon="8.81311">
        <ele>1142</ele>
        <time>2021-08-04T08:39:52.847Z</time>
      </trkpt>
      <trkpt lat="46.9916" lon="8.8131">
        <ele>1142</ele>
        <time>2021-08-04T08:39:53.846Z</time>
      </trkpt>
      <trkpt lat="46.99159" lon="8.81309">
        <ele>1142</ele>
        <time>2021-08-04T08:39:54.847Z</time>
      </trkpt>
      <trkpt lat="46.99159" lon="8.81307">
        <ele>1142</ele>
        <time>2021-08-04T08:39:55.847Z</time>
      </trkpt>
      <trkpt lat="46.99158" lon="8.81306">
        <ele>1142</ele>
        <time>2021-08-04T08:39:56.847Z</time>
      </trkpt>
      <trkpt lat="46.99158" lon="8.81305">
        <ele>1142</ele>
        <time>2021-08-04T08:39:57.847Z</time>
      </trkpt>
      <trkpt lat="46.99157" lon="8.81305">
        <ele>1143</ele>
        <time>2021-08-04T08:39:58.847Z</time>
      </trkpt>
      <trkpt lat="46.99156" lon="8.81305">
        <ele>1144</ele>
        <time>2021-08-04T08:39:59.847Z</time>
      </trkpt>
      <trkpt lat="46.99156" lon="8.81305">
        <ele>1144</ele>
        <time>2021-08-04T08:40:00.847Z</time>
      </trkpt>
      <trkpt lat="46.99156" lon="8.81306">
        <ele>1144</ele>
        <time>2021-08-04T08:40:01.847Z</time>
      </trkpt>
      <trkpt lat="46.99157" lon="8.81302">
        <ele>1146</ele>
        <time>2021-08-04T08:40:02.846Z</time>
      </trkpt>
      <trkpt lat="46.99157" lon="8.813">
        <ele>1146</ele>
        <time>2021-08-04T08:40:03.847Z</time>
      </trkpt>
      <trkpt lat="46.99156" lon="8.81299">
        <ele>1147</ele>
        <time>2021-08-04T08:40:04.846Z</time>
      </trkpt>
      <trkpt lat="46.99156" lon="8.81298">
        <ele>1147</ele>
        <time>2021-08-04T08:40:05.847Z</time>
      </trkpt>
      <trkpt lat="46.99155" lon="8.81297">
        <ele>1147</ele>
        <time>2021-08-04T08:40:06.847Z</time>
      </trkpt>
      <trkpt lat="46.99155" lon="8.81296">
        <ele>1147</ele>
        <time>2021-08-04T08:40:07.846Z</time>
      </trkpt>
      <trkpt lat="46.99155" lon="8.81294">
        <ele>1146</ele>
        <time>2021-08-04T08:40:08.847Z</time>
      </trkpt>
      <trkpt lat="46.99154" lon="8.81293">
        <ele>1146</ele>
        <time>2021-08-04T08:40:09.847Z</time>
      </trkpt>
      <trkpt lat="46.99154" lon="8.81291">
        <ele>1146</ele>
        <time>2021-08-04T08:40:10.847Z</time>
      </trkpt>
      <trkpt lat="46.99153" lon="8.8129">
        <ele>1145</ele>
        <time>2021-08-04T08:40:11.847Z</time>
      </trkpt>
      <trkpt lat="46.99152" lon="8.81288">
        <ele>1145</ele>
        <time>2021-08-04T08:40:12.847Z</time>
      </trkpt>
      <trkpt lat="46.99152" lon="8.81287">
        <ele>1145</ele>
        <time>2021-08-04T08:40:13.847Z</time>
      </trkpt>
      <trkpt lat="46.99152" lon="8.81286">
        <ele>1145</ele>
        <time>2021-08-04T08:40:14.847Z</time>
      </trkpt>
      <trkpt lat="46.99151" lon="8.81284">
        <ele>1145</ele>
        <time>2021-08-04T08:40:15.847Z</time>
      </trkpt>
      <trkpt lat="46.99151" lon="8.81283">
        <ele>1144</ele>
        <time>2021-08-04T08:40:16.847Z</time>
      </trkpt>
      <trkpt lat="46.99151" lon="8.81282">
        <ele>1144</ele>
        <time>2021-08-04T08:40:17.846Z</time>
      </trkpt>
      <trkpt lat="46.99151" lon="8.81281">
        <ele>1144</ele>
        <time>2021-08-04T08:40:18.846Z</time>
      </trkpt>
      <trkpt lat="46.9915" lon="8.8128">
        <ele>1144</ele>
        <time>2021-08-04T08:40:19.846Z</time>
      </trkpt>
      <trkpt lat="46.9915" lon="8.81278">
        <ele>1144</ele>
        <time>2021-08-04T08:40:20.847Z</time>
      </trkpt>
      <trkpt lat="46.99149" lon="8.81277">
        <ele>1144</ele>
        <time>2021-08-04T08:40:21.846Z</time>
      </trkpt>
      <trkpt lat="46.99149" lon="8.81276">
        <ele>1144</ele>
        <time>2021-08-04T08:40:22.846Z</time>
      </trkpt>
      <trkpt lat="46.99149" lon="8.81275">
        <ele>1144</ele>
        <time>2021-08-04T08:40:23.847Z</time>
      </trkpt>
      <trkpt lat="46.99148" lon="8.81273">
        <ele>1144</ele>
        <time>2021-08-04T08:40:24.847Z</time>
      </trkpt>
      <trkpt lat="46.99148" lon="8.81271">
        <ele>1144</ele>
        <time>2021-08-04T08:40:25.846Z</time>
      </trkpt>
      <trkpt lat="46.99148" lon="8.8127">
        <ele>1144</ele>
        <time>2021-08-04T08:40:26.847Z</time>
      </trkpt>
      <trkpt lat="46.99148" lon="8.81269">
        <ele>1143</ele>
        <time>2021-08-04T08:40:27.847Z</time>
      </trkpt>
      <trkpt lat="46.99148" lon="8.81268">
        <ele>1143</ele>
        <time>2021-08-04T08:40:28.847Z</time>
      </trkpt>
      <trkpt lat="46.99148" lon="8.81267">
        <ele>1143</ele>
        <time>2021-08-04T08:40:29.847Z</time>
      </trkpt>
      <trkpt lat="46.99148" lon="8.81265">
        <ele>1144</ele>
        <time>2021-08-04T08:40:30.847Z</time>
      </trkpt>
      <trkpt lat="46.99148" lon="8.81264">
        <ele>1144</ele>
        <time>2021-08-04T08:40:31.847Z</time>
      </trkpt>
      <trkpt lat="46.99148" lon="8.81263">
        <ele>1144</ele>
        <time>2021-08-04T08:40:32.847Z</time>
      </trkpt>
      <trkpt lat="46.99148" lon="8.81261">
        <ele>1144</ele>
        <time>2021-08-04T08:40:33.846Z</time>
      </trkpt>
      <trkpt lat="46.99148" lon="8.8126">
        <ele>1144</ele>
        <time>2021-08-04T08:40:34.846Z</time>
      </trkpt>
      <trkpt lat="46.99148" lon="8.81258">
        <ele>1144</ele>
        <time>2021-08-04T08:40:35.847Z</time>
      </trkpt>
      <trkpt lat="46.99148" lon="8.81257">
        <ele>1145</ele>
        <time>2021-08-04T08:40:36.847Z</time>
      </trkpt>
      <trkpt lat="46.99147" lon="8.81255">
        <ele>1145</ele>
        <time>2021-08-04T08:40:37.847Z</time>
      </trkpt>
      <trkpt lat="46.99147" lon="8.81253">
        <ele>1145</ele>
        <time>2021-08-04T08:40:38.847Z</time>
      </trkpt>
      <trkpt lat="46.99147" lon="8.81251">
        <ele>1144</ele>
        <time>2021-08-04T08:40:39.847Z</time>
      </trkpt>
      <trkpt lat="46.99147" lon="8.81249">
        <ele>1145</ele>
        <time>2021-08-04T08:40:40.847Z</time>
      </trkpt>
      <trkpt lat="46.99146" lon="8.81247">
        <ele>1144</ele>
        <time>2021-08-04T08:40:41.846Z</time>
      </trkpt>
      <trkpt lat="46.99146" lon="8.81245">
        <ele>1144</ele>
        <time>2021-08-04T08:40:42.847Z</time>
      </trkpt>
      <trkpt lat="46.99146" lon="8.81244">
        <ele>1144</ele>
        <time>2021-08-04T08:40:43.847Z</time>
      </trkpt>
      <trkpt lat="46.99146" lon="8.81242">
        <ele>1143</ele>
        <time>2021-08-04T08:40:44.847Z</time>
      </trkpt>
      <trkpt lat="46.99145" lon="8.8124">
        <ele>1143</ele>
        <time>2021-08-04T08:40:45.846Z</time>
      </trkpt>
      <trkpt lat="46.99145" lon="8.81239">
        <ele>1143</ele>
        <time>2021-08-04T08:40:46.847Z</time>
      </trkpt>
      <trkpt lat="46.99144" lon="8.81237">
        <ele>1142</ele>
        <time>2021-08-04T08:40:47.846Z</time>
      </trkpt>
      <trkpt lat="46.99144" lon="8.81235">
        <ele>1142</ele>
        <time>2021-08-04T08:40:48.847Z</time>
      </trkpt>
      <trkpt lat="46.99143" lon="8.81234">
        <ele>1142</ele>
        <time>2021-08-04T08:40:49.846Z</time>
      </trkpt>
      <trkpt lat="46.99143" lon="8.81233">
        <ele>1142</ele>
        <time>2021-08-04T08:40:50.847Z</time>
      </trkpt>
      <trkpt lat="46.99142" lon="8.81231">
        <ele>1142</ele>
        <time>2021-08-04T08:40:51.847Z</time>
      </trkpt>
      <trkpt lat="46.99142" lon="8.8123">
        <ele>1142</ele>
        <time>2021-08-04T08:40:52.847Z</time>
      </trkpt>
      <trkpt lat="46.99142" lon="8.81228">
        <ele>1143</ele>
        <time>2021-08-04T08:40:53.847Z</time>
      </trkpt>
      <trkpt lat="46.99142" lon="8.81226">
        <ele>1142</ele>
        <time>2021-08-04T08:40:54.847Z</time>
      </trkpt>
      <trkpt lat="46.99142" lon="8.81225">
        <ele>1142</ele>
        <time>2021-08-04T08:40:55.847Z</time>
      </trkpt>
      <trkpt lat="46.99143" lon="8.81224">
        <ele>1142</ele>
        <time>2021-08-04T08:40:56.846Z</time>
      </trkpt>
      <trkpt lat="46.99143" lon="8.81222">
        <ele>1141</ele>
        <time>2021-08-04T08:40:57.847Z</time>
      </trkpt>
      <trkpt lat="46.99142" lon="8.81221">
        <ele>1141</ele>
        <time>2021-08-04T08:40:58.847Z</time>
      </trkpt>
      <trkpt lat="46.99142" lon="8.81219">
        <ele>1141</ele>
        <time>2021-08-04T08:40:59.847Z</time>
      </trkpt>
      <trkpt lat="46.99141" lon="8.81218">
        <ele>1140</ele>
        <time>2021-08-04T08:41:00.847Z</time>
      </trkpt>
      <trkpt lat="46.99141" lon="8.81217">
        <ele>1140</ele>
        <time>2021-08-04T08:41:01.847Z</time>
      </trkpt>
      <trkpt lat="46.9914" lon="8.81215">
        <ele>1140</ele>
        <time>2021-08-04T08:41:02.847Z</time>
      </trkpt>
      <trkpt lat="46.99139" lon="8.81214">
        <ele>1140</ele>
        <time>2021-08-04T08:41:03.847Z</time>
      </trkpt>
      <trkpt lat="46.99138" lon="8.81213">
        <ele>1140</ele>
        <time>2021-08-04T08:41:04.846Z</time>
      </trkpt>
      <trkpt lat="46.99137" lon="8.81212">
        <ele>1140</ele>
        <time>2021-08-04T08:41:05.846Z</time>
      </trkpt>
      <trkpt lat="46.99136" lon="8.81212">
        <ele>1140</ele>
        <time>2021-08-04T08:41:06.847Z</time>
      </trkpt>
      <trkpt lat="46.99136" lon="8.81211">
        <ele>1141</ele>
        <time>2021-08-04T08:41:07.847Z</time>
      </trkpt>
      <trkpt lat="46.99136" lon="8.8121">
        <ele>1141</ele>
        <time>2021-08-04T08:41:08.846Z</time>
      </trkpt>
      <trkpt lat="46.99134" lon="8.8121">
        <ele>1141</ele>
        <time>2021-08-04T08:41:09.847Z</time>
      </trkpt>
      <trkpt lat="46.99134" lon="8.8121">
        <ele>1141</ele>
        <time>2021-08-04T08:41:10.846Z</time>
      </trkpt>
      <trkpt lat="46.99133" lon="8.8121">
        <ele>1141</ele>
        <time>2021-08-04T08:41:11.847Z</time>
      </trkpt>
      <trkpt lat="46.99134" lon="8.81211">
        <ele>1140</ele>
        <time>2021-08-04T08:41:12.847Z</time>
      </trkpt>
      <trkpt lat="46.99134" lon="8.8121">
        <ele>1140</ele>
        <time>2021-08-04T08:41:13.847Z</time>
      </trkpt>
      <trkpt lat="46.99131" lon="8.81207">
        <ele>1139</ele>
        <time>2021-08-04T08:41:14.848Z</time>
      </trkpt>
      <trkpt lat="46.9913" lon="8.81206">
        <ele>1139</ele>
        <time>2021-08-04T08:41:15.848Z</time>
      </trkpt>
      <trkpt lat="46.9913" lon="8.81206">
        <ele>1139</ele>
        <time>2021-08-04T08:41:16.848Z</time>
      </trkpt>
      <trkpt lat="46.99129" lon="8.81206">
        <ele>1139</ele>
        <time>2021-08-04T08:41:17.847Z</time>
      </trkpt>
      <trkpt lat="46.99129" lon="8.81206">
        <ele>1139</ele>
        <time>2021-08-04T08:41:18.848Z</time>
      </trkpt>
      <trkpt lat="46.99128" lon="8.81205">
        <ele>1139</ele>
        <time>2021-08-04T08:41:19.848Z</time>
      </trkpt>
      <trkpt lat="46.99128" lon="8.81204">
        <ele>1139</ele>
        <time>2021-08-04T08:41:20.847Z</time>
      </trkpt>
      <trkpt lat="46.99127" lon="8.81203">
        <ele>1138</ele>
        <time>2021-08-04T08:41:21.848Z</time>
      </trkpt>
      <trkpt lat="46.99126" lon="8.81201">
        <ele>1138</ele>
        <time>2021-08-04T08:41:22.847Z</time>
      </trkpt>
      <trkpt lat="46.99125" lon="8.812">
        <ele>1138</ele>
        <time>2021-08-04T08:41:23.847Z</time>
      </trkpt>
      <trkpt lat="46.99124" lon="8.81199">
        <ele>1137</ele>
        <time>2021-08-04T08:41:24.847Z</time>
      </trkpt>
      <trkpt lat="46.99124" lon="8.812">
        <ele>1137</ele>
        <time>2021-08-04T08:41:25.848Z</time>
      </trkpt>
      <trkpt lat="46.99123" lon="8.81198">
        <ele>1137</ele>
        <time>2021-08-04T08:41:26.848Z</time>
      </trkpt>
      <trkpt lat="46.99121" lon="8.81197">
        <ele>1137</ele>
        <time>2021-08-04T08:41:27.848Z</time>
      </trkpt>
      <trkpt lat="46.9912" lon="8.81197">
        <ele>1137</ele>
        <time>2021-08-04T08:41:28.848Z</time>
      </trkpt>
      <trkpt lat="46.99119" lon="8.81195">
        <ele>1137</ele>
        <time>2021-08-04T08:41:29.847Z</time>
      </trkpt>
      <trkpt lat="46.99117" lon="8.81194">
        <ele>1137</ele>
        <time>2021-08-04T08:41:30.847Z</time>
      </trkpt>
      <trkpt lat="46.99116" lon="8.81193">
        <ele>1137</ele>
        <time>2021-08-04T08:41:31.847Z</time>
      </trkpt>
      <trkpt lat="46.99115" lon="8.81192">
        <ele>1136</ele>
        <time>2021-08-04T08:41:32.848Z</time>
      </trkpt>
      <trkpt lat="46.99115" lon="8.81192">
        <ele>1136</ele>
        <time>2021-08-04T08:41:33.848Z</time>
      </trkpt>
      <trkpt lat="46.99114" lon="8.81192">
        <ele>1136</ele>
        <time>2021-08-04T08:41:34.848Z</time>
      </trkpt>
      <trkpt lat="46.99113" lon="8.81192">
        <ele>1136</ele>
        <time>2021-08-04T08:41:35.848Z</time>
      </trkpt>
      <trkpt lat="46.99113" lon="8.81192">
        <ele>1135</ele>
        <time>2021-08-04T08:41:36.848Z</time>
      </trkpt>
      <trkpt lat="46.99112" lon="8.81191">
        <ele>1135</ele>
        <time>2021-08-04T08:41:37.847Z</time>
      </trkpt>
      <trkpt lat="46.99112" lon="8.8119">
        <ele>1136</ele>
        <time>2021-08-04T08:41:38.848Z</time>
      </trkpt>
      <trkpt lat="46.99111" lon="8.81189">
        <ele>1136</ele>
        <time>2021-08-04T08:41:39.848Z</time>
      </trkpt>
      <trkpt lat="46.99111" lon="8.81189">
        <ele>1136</ele>
        <time>2021-08-04T08:41:40.848Z</time>
      </trkpt>
      <trkpt lat="46.9911" lon="8.81188">
        <ele>1136</ele>
        <time>2021-08-04T08:41:41.847Z</time>
      </trkpt>
      <trkpt lat="46.99109" lon="8.81187">
        <ele>1135</ele>
        <time>2021-08-04T08:41:42.848Z</time>
      </trkpt>
      <trkpt lat="46.99108" lon="8.81185">
        <ele>1135</ele>
        <time>2021-08-04T08:41:43.848Z</time>
      </trkpt>
      <trkpt lat="46.99107" lon="8.81183">
        <ele>1135</ele>
        <time>2021-08-04T08:41:44.848Z</time>
      </trkpt>
      <trkpt lat="46.99107" lon="8.81182">
        <ele>1135</ele>
        <time>2021-08-04T08:41:45.848Z</time>
      </trkpt>
      <trkpt lat="46.99107" lon="8.81181">
        <ele>1135</ele>
        <time>2021-08-04T08:41:46.847Z</time>
      </trkpt>
      <trkpt lat="46.99106" lon="8.81181">
        <ele>1135</ele>
        <time>2021-08-04T08:41:47.848Z</time>
      </trkpt>
      <trkpt lat="46.99106" lon="8.8118">
        <ele>1135</ele>
        <time>2021-08-04T08:41:48.847Z</time>
      </trkpt>
      <trkpt lat="46.99106" lon="8.81179">
        <ele>1135</ele>
        <time>2021-08-04T08:41:49.848Z</time>
      </trkpt>
      <trkpt lat="46.99105" lon="8.81178">
        <ele>1135</ele>
        <time>2021-08-04T08:41:50.848Z</time>
      </trkpt>
      <trkpt lat="46.99105" lon="8.81178">
        <ele>1136</ele>
        <time>2021-08-04T08:41:51.848Z</time>
      </trkpt>
      <trkpt lat="46.99104" lon="8.81177">
        <ele>1136</ele>
        <time>2021-08-04T08:41:52.848Z</time>
      </trkpt>
      <trkpt lat="46.99103" lon="8.81176">
        <ele>1136</ele>
        <time>2021-08-04T08:41:53.847Z</time>
      </trkpt>
      <trkpt lat="46.99102" lon="8.81175">
        <ele>1136</ele>
        <time>2021-08-04T08:41:54.848Z</time>
      </trkpt>
      <trkpt lat="46.99101" lon="8.81174">
        <ele>1136</ele>
        <time>2021-08-04T08:41:55.848Z</time>
      </trkpt>
      <trkpt lat="46.99101" lon="8.81173">
        <ele>1136</ele>
        <time>2021-08-04T08:41:56.848Z</time>
      </trkpt>
      <trkpt lat="46.991" lon="8.81173">
        <ele>1136</ele>
        <time>2021-08-04T08:41:57.847Z</time>
      </trkpt>
      <trkpt lat="46.99099" lon="8.81172">
        <ele>1136</ele>
        <time>2021-08-04T08:41:58.847Z</time>
      </trkpt>
      <trkpt lat="46.99098" lon="8.81171">
        <ele>1136</ele>
        <time>2021-08-04T08:41:59.848Z</time>
      </trkpt>
      <trkpt lat="46.99097" lon="8.8117">
        <ele>1137</ele>
        <time>2021-08-04T08:42:00.848Z</time>
      </trkpt>
      <trkpt lat="46.99097" lon="8.81169">
        <ele>1137</ele>
        <time>2021-08-04T08:42:01.848Z</time>
      </trkpt>
      <trkpt lat="46.99096" lon="8.81168">
        <ele>1137</ele>
        <time>2021-08-04T08:42:02.848Z</time>
      </trkpt>
      <trkpt lat="46.99095" lon="8.81167">
        <ele>1137</ele>
        <time>2021-08-04T08:42:03.848Z</time>
      </trkpt>
      <trkpt lat="46.99095" lon="8.81166">
        <ele>1136</ele>
        <time>2021-08-04T08:42:04.848Z</time>
      </trkpt>
      <trkpt lat="46.99094" lon="8.81165">
        <ele>1136</ele>
        <time>2021-08-04T08:42:05.847Z</time>
      </trkpt>
      <trkpt lat="46.99094" lon="8.81164">
        <ele>1135</ele>
        <time>2021-08-04T08:42:06.847Z</time>
      </trkpt>
      <trkpt lat="46.99093" lon="8.81163">
        <ele>1134</ele>
        <time>2021-08-04T08:42:07.848Z</time>
      </trkpt>
      <trkpt lat="46.99093" lon="8.81163">
        <ele>1133</ele>
        <time>2021-08-04T08:42:08.848Z</time>
      </trkpt>
      <trkpt lat="46.99092" lon="8.81163">
        <ele>1132</ele>
        <time>2021-08-04T08:42:09.848Z</time>
      </trkpt>
      <trkpt lat="46.99092" lon="8.81162">
        <ele>1131</ele>
        <time>2021-08-04T08:42:10.847Z</time>
      </trkpt>
      <trkpt lat="46.99092" lon="8.81162">
        <ele>1131</ele>
        <time>2021-08-04T08:42:11.848Z</time>
      </trkpt>
      <trkpt lat="46.99092" lon="8.81162">
        <ele>1130</ele>
        <time>2021-08-04T08:42:12.848Z</time>
      </trkpt>
      <trkpt lat="46.99091" lon="8.81162">
        <ele>1130</ele>
        <time>2021-08-04T08:42:13.848Z</time>
      </trkpt>
      <trkpt lat="46.9909" lon="8.8116">
        <ele>1129</ele>
        <time>2021-08-04T08:42:14.848Z</time>
      </trkpt>
      <trkpt lat="46.9909" lon="8.81159">
        <ele>1129</ele>
        <time>2021-08-04T08:42:15.847Z</time>
      </trkpt>
      <trkpt lat="46.99089" lon="8.81158">
        <ele>1129</ele>
        <time>2021-08-04T08:42:16.847Z</time>
      </trkpt>
      <trkpt lat="46.99088" lon="8.81157">
        <ele>1129</ele>
        <time>2021-08-04T08:42:17.847Z</time>
      </trkpt>
      <trkpt lat="46.99087" lon="8.81156">
        <ele>1128</ele>
        <time>2021-08-04T08:42:18.848Z</time>
      </trkpt>
      <trkpt lat="46.99086" lon="8.81155">
        <ele>1128</ele>
        <time>2021-08-04T08:42:19.847Z</time>
      </trkpt>
      <trkpt lat="46.99085" lon="8.81153">
        <ele>1128</ele>
        <time>2021-08-04T08:42:20.848Z</time>
      </trkpt>
      <trkpt lat="46.99084" lon="8.81152">
        <ele>1128</ele>
        <time>2021-08-04T08:42:21.848Z</time>
      </trkpt>
      <trkpt lat="46.99083" lon="8.81151">
        <ele>1128</ele>
        <time>2021-08-04T08:42:22.848Z</time>
      </trkpt>
      <trkpt lat="46.99082" lon="8.8115">
        <ele>1128</ele>
        <time>2021-08-04T08:42:23.848Z</time>
      </trkpt>
      <trkpt lat="46.99081" lon="8.81149">
        <ele>1128</ele>
        <time>2021-08-04T08:42:24.848Z</time>
      </trkpt>
      <trkpt lat="46.9908" lon="8.81148">
        <ele>1128</ele>
        <time>2021-08-04T08:42:25.848Z</time>
      </trkpt>
      <trkpt lat="46.99079" lon="8.81146">
        <ele>1128</ele>
        <time>2021-08-04T08:42:26.848Z</time>
      </trkpt>
      <trkpt lat="46.99078" lon="8.81145">
        <ele>1128</ele>
        <time>2021-08-04T08:42:27.848Z</time>
      </trkpt>
      <trkpt lat="46.99077" lon="8.81143">
        <ele>1128</ele>
        <time>2021-08-04T08:42:28.848Z</time>
      </trkpt>
      <trkpt lat="46.99076" lon="8.81142">
        <ele>1128</ele>
        <time>2021-08-04T08:42:29.848Z</time>
      </trkpt>
      <trkpt lat="46.99076" lon="8.81141">
        <ele>1129</ele>
        <time>2021-08-04T08:42:30.847Z</time>
      </trkpt>
      <trkpt lat="46.99075" lon="8.8114">
        <ele>1129</ele>
        <time>2021-08-04T08:42:31.848Z</time>
      </trkpt>
      <trkpt lat="46.99074" lon="8.81139">
        <ele>1129</ele>
        <time>2021-08-04T08:42:32.848Z</time>
      </trkpt>
      <trkpt lat="46.99073" lon="8.81137">
        <ele>1130</ele>
        <time>2021-08-04T08:42:33.847Z</time>
      </trkpt>
      <trkpt lat="46.99073" lon="8.81136">
        <ele>1130</ele>
        <time>2021-08-04T08:42:34.848Z</time>
      </trkpt>
      <trkpt lat="46.99072" lon="8.81135">
        <ele>1130</ele>
        <time>2021-08-04T08:42:35.847Z</time>
      </trkpt>
      <trkpt lat="46.99071" lon="8.81135">
        <ele>1130</ele>
        <time>2021-08-04T08:42:36.848Z</time>
      </trkpt>
      <trkpt lat="46.99071" lon="8.81135">
        <ele>1130</ele>
        <time>2021-08-04T08:42:37.848Z</time>
      </trkpt>
      <trkpt lat="46.99071" lon="8.81134">
        <ele>1130</ele>
        <time>2021-08-04T08:42:38.848Z</time>
      </trkpt>
      <trkpt lat="46.9907" lon="8.81134">
        <ele>1130</ele>
        <time>2021-08-04T08:42:39.847Z</time>
      </trkpt>
      <trkpt lat="46.9907" lon="8.81134">
        <ele>1130</ele>
        <time>2021-08-04T08:42:40.847Z</time>
      </trkpt>
      <trkpt lat="46.9907" lon="8.81133">
        <ele>1130</ele>
        <time>2021-08-04T08:42:41.847Z</time>
      </trkpt>
      <trkpt lat="46.9907" lon="8.81134">
        <ele>1129</ele>
        <time>2021-08-04T08:42:42.847Z</time>
      </trkpt>
      <trkpt lat="46.99069" lon="8.81135">
        <ele>1125</ele>
        <time>2021-08-04T08:42:43.848Z</time>
      </trkpt>
      <trkpt lat="46.99069" lon="8.81135">
        <ele>1124</ele>
        <time>2021-08-04T08:42:44.849Z</time>
      </trkpt>
      <trkpt lat="46.99067" lon="8.81134">
        <ele>1122</ele>
        <time>2021-08-04T08:42:45.850Z</time>
      </trkpt>
      <trkpt lat="46.99067" lon="8.81133">
        <ele>1122</ele>
        <time>2021-08-04T08:42:46.850Z</time>
      </trkpt>
      <trkpt lat="46.99067" lon="8.81133">
        <ele>1123</ele>
        <time>2021-08-04T08:42:47.849Z</time>
      </trkpt>
      <trkpt lat="46.99067" lon="8.81132">
        <ele>1123</ele>
        <time>2021-08-04T08:42:48.850Z</time>
      </trkpt>
      <trkpt lat="46.99067" lon="8.81131">
        <ele>1124</ele>
        <time>2021-08-04T08:42:49.849Z</time>
      </trkpt>
      <trkpt lat="46.99066" lon="8.81131">
        <ele>1124</ele>
        <time>2021-08-04T08:42:50.850Z</time>
      </trkpt>
      <trkpt lat="46.99066" lon="8.8113">
        <ele>1124</ele>
        <time>2021-08-04T08:42:51.849Z</time>
      </trkpt>
      <trkpt lat="46.99065" lon="8.81129">
        <ele>1124</ele>
        <time>2021-08-04T08:42:52.850Z</time>
      </trkpt>
      <trkpt lat="46.99065" lon="8.81128">
        <ele>1124</ele>
        <time>2021-08-04T08:42:53.849Z</time>
      </trkpt>
      <trkpt lat="46.99066" lon="8.81128">
        <ele>1124</ele>
        <time>2021-08-04T08:42:54.850Z</time>
      </trkpt>
      <trkpt lat="46.99066" lon="8.81128">
        <ele>1123</ele>
        <time>2021-08-04T08:42:55.850Z</time>
      </trkpt>
      <trkpt lat="46.99066" lon="8.81128">
        <ele>1123</ele>
        <time>2021-08-04T08:42:56.849Z</time>
      </trkpt>
      <trkpt lat="46.99069" lon="8.81129">
        <ele>1119</ele>
        <time>2021-08-04T08:42:57.850Z</time>
      </trkpt>
      <trkpt lat="46.99069" lon="8.81128">
        <ele>1119</ele>
        <time>2021-08-04T08:42:58.850Z</time>
      </trkpt>
      <trkpt lat="46.99067" lon="8.81125">
        <ele>1118</ele>
        <time>2021-08-04T08:42:59.850Z</time>
      </trkpt>
      <trkpt lat="46.99067" lon="8.81125">
        <ele>1118</ele>
        <time>2021-08-04T08:43:00.850Z</time>
      </trkpt>
      <trkpt lat="46.99067" lon="8.81124">
        <ele>1118</ele>
        <time>2021-08-04T08:43:01.849Z</time>
      </trkpt>
      <trkpt lat="46.99066" lon="8.81125">
        <ele>1117</ele>
        <time>2021-08-04T08:43:02.850Z</time>
      </trkpt>
      <trkpt lat="46.99066" lon="8.81125">
        <ele>1116</ele>
        <time>2021-08-04T08:43:03.850Z</time>
      </trkpt>
      <trkpt lat="46.99065" lon="8.81125">
        <ele>1115</ele>
        <time>2021-08-04T08:43:04.850Z</time>
      </trkpt>
      <trkpt lat="46.99063" lon="8.81124">
        <ele>1119</ele>
        <time>2021-08-04T08:43:05.851Z</time>
      </trkpt>
      <trkpt lat="46.99065" lon="8.81126">
        <ele>1120</ele>
        <time>2021-08-04T08:43:06.850Z</time>
      </trkpt>
      <trkpt lat="46.99063" lon="8.8113">
        <ele>1121</ele>
        <time>2021-08-04T08:43:07.851Z</time>
      </trkpt>
      <trkpt lat="46.99063" lon="8.8113">
        <ele>1121</ele>
        <time>2021-08-04T08:43:08.851Z</time>
      </trkpt>
      <trkpt lat="46.99063" lon="8.81129">
        <ele>1121</ele>
        <time>2021-08-04T08:43:09.850Z</time>
      </trkpt>
      <trkpt lat="46.99063" lon="8.81129">
        <ele>1121</ele>
        <time>2021-08-04T08:43:10.851Z</time>
      </trkpt>
      <trkpt lat="46.99064" lon="8.81126">
        <ele>1121</ele>
        <time>2021-08-04T08:43:11.853Z</time>
      </trkpt>
      <trkpt lat="46.99064" lon="8.81126">
        <ele>1121</ele>
        <time>2021-08-04T08:43:12.853Z</time>
      </trkpt>
      <trkpt lat="46.99065" lon="8.81119">
        <ele>1124</ele>
        <time>2021-08-04T08:43:13.854Z</time>
      </trkpt>
      <trkpt lat="46.99064" lon="8.81119">
        <ele>1124</ele>
        <time>2021-08-04T08:43:14.854Z</time>
      </trkpt>
      <trkpt lat="46.99065" lon="8.81119">
        <ele>1124</ele>
        <time>2021-08-04T08:43:15.853Z</time>
      </trkpt>
      <trkpt lat="46.99065" lon="8.81119">
        <ele>1124</ele>
        <time>2021-08-04T08:43:16.854Z</time>
      </trkpt>
      <trkpt lat="46.99065" lon="8.81119">
        <ele>1123</ele>
        <time>2021-08-04T08:43:17.854Z</time>
      </trkpt>
      <trkpt lat="46.99067" lon="8.8112">
        <ele>1121</ele>
        <time>2021-08-04T08:43:18.855Z</time>
      </trkpt>
      <trkpt lat="46.99067" lon="8.8112">
        <ele>1121</ele>
        <time>2021-08-04T08:43:19.855Z</time>
      </trkpt>
      <trkpt lat="46.99066" lon="8.81118">
        <ele>1121</ele>
        <time>2021-08-04T08:43:20.855Z</time>
      </trkpt>
      <trkpt lat="46.99066" lon="8.81118">
        <ele>1121</ele>
        <time>2021-08-04T08:43:21.855Z</time>
      </trkpt>
      <trkpt lat="46.99066" lon="8.81117">
        <ele>1121</ele>
        <time>2021-08-04T08:43:22.856Z</time>
      </trkpt>
      <trkpt lat="46.99066" lon="8.81116">
        <ele>1121</ele>
        <time>2021-08-04T08:43:23.855Z</time>
      </trkpt>
      <trkpt lat="46.99065" lon="8.81115">
        <ele>1120</ele>
        <time>2021-08-04T08:43:24.856Z</time>
      </trkpt>
      <trkpt lat="46.99066" lon="8.81115">
        <ele>1120</ele>
        <time>2021-08-04T08:43:25.855Z</time>
      </trkpt>
      <trkpt lat="46.99067" lon="8.81115">
        <ele>1119</ele>
        <time>2021-08-04T08:43:26.855Z</time>
      </trkpt>
      <trkpt lat="46.99067" lon="8.81114">
        <ele>1119</ele>
        <time>2021-08-04T08:43:27.855Z</time>
      </trkpt>
      <trkpt lat="46.99067" lon="8.81113">
        <ele>1119</ele>
        <time>2021-08-04T08:43:28.856Z</time>
      </trkpt>
      <trkpt lat="46.99066" lon="8.81113">
        <ele>1119</ele>
        <time>2021-08-04T08:43:29.855Z</time>
      </trkpt>
      <trkpt lat="46.99066" lon="8.81113">
        <ele>1119</ele>
        <time>2021-08-04T08:43:30.855Z</time>
      </trkpt>
      <trkpt lat="46.99066" lon="8.81112">
        <ele>1119</ele>
        <time>2021-08-04T08:43:31.855Z</time>
      </trkpt>
      <trkpt lat="46.99065" lon="8.81112">
        <ele>1119</ele>
        <time>2021-08-04T08:43:32.856Z</time>
      </trkpt>
      <trkpt lat="46.99065" lon="8.81111">
        <ele>1119</ele>
        <time>2021-08-04T08:43:33.855Z</time>
      </trkpt>
      <trkpt lat="46.99064" lon="8.81107">
        <ele>1120</ele>
        <time>2021-08-04T08:43:34.856Z</time>
      </trkpt>
      <trkpt lat="46.99063" lon="8.81105">
        <ele>1120</ele>
        <time>2021-08-04T08:43:35.856Z</time>
      </trkpt>
      <trkpt lat="46.99063" lon="8.81105">
        <ele>1120</ele>
        <time>2021-08-04T08:43:36.856Z</time>
      </trkpt>
      <trkpt lat="46.99063" lon="8.81104">
        <ele>1120</ele>
        <time>2021-08-04T08:43:37.856Z</time>
      </trkpt>
      <trkpt lat="46.99062" lon="8.81104">
        <ele>1119</ele>
        <time>2021-08-04T08:43:38.856Z</time>
      </trkpt>
      <trkpt lat="46.99062" lon="8.81103">
        <ele>1119</ele>
        <time>2021-08-04T08:43:39.856Z</time>
      </trkpt>
      <trkpt lat="46.99062" lon="8.81103">
        <ele>1118</ele>
        <time>2021-08-04T08:43:40.856Z</time>
      </trkpt>
      <trkpt lat="46.99062" lon="8.81103">
        <ele>1116</ele>
        <time>2021-08-04T08:43:41.856Z</time>
      </trkpt>
      <trkpt lat="46.99062" lon="8.81102">
        <ele>1116</ele>
        <time>2021-08-04T08:43:42.856Z</time>
      </trkpt>
      <trkpt lat="46.99062" lon="8.81101">
        <ele>1116</ele>
        <time>2021-08-04T08:43:43.857Z</time>
      </trkpt>
      <trkpt lat="46.99061" lon="8.81101">
        <ele>1115</ele>
        <time>2021-08-04T08:43:44.857Z</time>
      </trkpt>
      <trkpt lat="46.99061" lon="8.811">
        <ele>1115</ele>
        <time>2021-08-04T08:43:45.857Z</time>
      </trkpt>
      <trkpt lat="46.99061" lon="8.81099">
        <ele>1114</ele>
        <time>2021-08-04T08:43:46.857Z</time>
      </trkpt>
      <trkpt lat="46.99061" lon="8.81098">
        <ele>1114</ele>
        <time>2021-08-04T08:43:47.857Z</time>
      </trkpt>
      <trkpt lat="46.99061" lon="8.81099">
        <ele>1113</ele>
        <time>2021-08-04T08:43:48.856Z</time>
      </trkpt>
      <trkpt lat="46.99061" lon="8.81099">
        <ele>1112</ele>
        <time>2021-08-04T08:43:49.857Z</time>
      </trkpt>
      <trkpt lat="46.99061" lon="8.81098">
        <ele>1111</ele>
        <time>2021-08-04T08:43:50.857Z</time>
      </trkpt>
      <trkpt lat="46.99061" lon="8.81098">
        <ele>1111</ele>
        <time>2021-08-04T08:43:51.856Z</time>
      </trkpt>
      <trkpt lat="46.99061" lon="8.81098">
        <ele>1110</ele>
        <time>2021-08-04T08:43:52.856Z</time>
      </trkpt>
      <trkpt lat="46.9906" lon="8.81096">
        <ele>1106</ele>
        <time>2021-08-04T08:43:53.857Z</time>
      </trkpt>
      <trkpt lat="46.9906" lon="8.81095">
        <ele>1106</ele>
        <time>2021-08-04T08:43:54.857Z</time>
      </trkpt>
      <trkpt lat="46.9906" lon="8.81095">
        <ele>1107</ele>
        <time>2021-08-04T08:43:55.857Z</time>
      </trkpt>
      <trkpt lat="46.9906" lon="8.81094">
        <ele>1106</ele>
        <time>2021-08-04T08:43:56.856Z</time>
      </trkpt>
      <trkpt lat="46.99059" lon="8.81093">
        <ele>1106</ele>
        <time>2021-08-04T08:43:57.857Z</time>
      </trkpt>
      <trkpt lat="46.99059" lon="8.81092">
        <ele>1106</ele>
        <time>2021-08-04T08:43:58.857Z</time>
      </trkpt>
      <trkpt lat="46.99059" lon="8.81091">
        <ele>1106</ele>
        <time>2021-08-04T08:43:59.857Z</time>
      </trkpt>
      <trkpt lat="46.99059" lon="8.81089">
        <ele>1106</ele>
        <time>2021-08-04T08:44:00.857Z</time>
      </trkpt>
      <trkpt lat="46.99058" lon="8.81088">
        <ele>1106</ele>
        <time>2021-08-04T08:44:01.857Z</time>
      </trkpt>
      <trkpt lat="46.99058" lon="8.81087">
        <ele>1106</ele>
        <time>2021-08-04T08:44:02.856Z</time>
      </trkpt>
      <trkpt lat="46.99058" lon="8.81086">
        <ele>1106</ele>
        <time>2021-08-04T08:44:03.857Z</time>
      </trkpt>
      <trkpt lat="46.99057" lon="8.81084">
        <ele>1106</ele>
        <time>2021-08-04T08:44:04.856Z</time>
      </trkpt>
      <trkpt lat="46.99057" lon="8.81083">
        <ele>1106</ele>
        <time>2021-08-04T08:44:05.857Z</time>
      </trkpt>
      <trkpt lat="46.99058" lon="8.81082">
        <ele>1106</ele>
        <time>2021-08-04T08:44:06.857Z</time>
      </trkpt>
      <trkpt lat="46.99058" lon="8.81081">
        <ele>1106</ele>
        <time>2021-08-04T08:44:07.856Z</time>
      </trkpt>
      <trkpt lat="46.99057" lon="8.8108">
        <ele>1106</ele>
        <time>2021-08-04T08:44:08.856Z</time>
      </trkpt>
      <trkpt lat="46.99057" lon="8.81079">
        <ele>1106</ele>
        <time>2021-08-04T08:44:09.857Z</time>
      </trkpt>
      <trkpt lat="46.99057" lon="8.81077">
        <ele>1106</ele>
        <time>2021-08-04T08:44:10.857Z</time>
      </trkpt>
      <trkpt lat="46.99057" lon="8.81076">
        <ele>1106</ele>
        <time>2021-08-04T08:44:11.857Z</time>
      </trkpt>
      <trkpt lat="46.99057" lon="8.81074">
        <ele>1107</ele>
        <time>2021-08-04T08:44:12.857Z</time>
      </trkpt>
      <trkpt lat="46.99057" lon="8.81073">
        <ele>1107</ele>
        <time>2021-08-04T08:44:13.857Z</time>
      </trkpt>
      <trkpt lat="46.99057" lon="8.81071">
        <ele>1108</ele>
        <time>2021-08-04T08:44:14.857Z</time>
      </trkpt>
      <trkpt lat="46.99056" lon="8.8107">
        <ele>1108</ele>
        <time>2021-08-04T08:44:15.856Z</time>
      </trkpt>
      <trkpt lat="46.99056" lon="8.81069">
        <ele>1108</ele>
        <time>2021-08-04T08:44:16.857Z</time>
      </trkpt>
      <trkpt lat="46.99056" lon="8.81067">
        <ele>1108</ele>
        <time>2021-08-04T08:44:17.857Z</time>
      </trkpt>
      <trkpt lat="46.99055" lon="8.81066">
        <ele>1108</ele>
        <time>2021-08-04T08:44:18.856Z</time>
      </trkpt>
      <trkpt lat="46.99055" lon="8.81065">
        <ele>1108</ele>
        <time>2021-08-04T08:44:19.857Z</time>
      </trkpt>
      <trkpt lat="46.99054" lon="8.81063">
        <ele>1108</ele>
        <time>2021-08-04T08:44:20.856Z</time>
      </trkpt>
      <trkpt lat="46.99054" lon="8.81061">
        <ele>1107</ele>
        <time>2021-08-04T08:44:21.856Z</time>
      </trkpt>
      <trkpt lat="46.99054" lon="8.8106">
        <ele>1107</ele>
        <time>2021-08-04T08:44:22.856Z</time>
      </trkpt>
      <trkpt lat="46.99053" lon="8.81059">
        <ele>1107</ele>
        <time>2021-08-04T08:44:23.857Z</time>
      </trkpt>
      <trkpt lat="46.99053" lon="8.81058">
        <ele>1106</ele>
        <time>2021-08-04T08:44:24.857Z</time>
      </trkpt>
      <trkpt lat="46.99053" lon="8.81056">
        <ele>1106</ele>
        <time>2021-08-04T08:44:25.857Z</time>
      </trkpt>
      <trkpt lat="46.99053" lon="8.81055">
        <ele>1105</ele>
        <time>2021-08-04T08:44:26.856Z</time>
      </trkpt>
      <trkpt lat="46.99053" lon="8.81054">
        <ele>1105</ele>
        <time>2021-08-04T08:44:27.856Z</time>
      </trkpt>
      <trkpt lat="46.99053" lon="8.81053">
        <ele>1105</ele>
        <time>2021-08-04T08:44:28.856Z</time>
      </trkpt>
      <trkpt lat="46.99053" lon="8.81052">
        <ele>1105</ele>
        <time>2021-08-04T08:44:29.856Z</time>
      </trkpt>
      <trkpt lat="46.99052" lon="8.8105">
        <ele>1105</ele>
        <time>2021-08-04T08:44:30.856Z</time>
      </trkpt>
      <trkpt lat="46.99052" lon="8.81049">
        <ele>1105</ele>
        <time>2021-08-04T08:44:31.856Z</time>
      </trkpt>
      <trkpt lat="46.99052" lon="8.81047">
        <ele>1104</ele>
        <time>2021-08-04T08:44:32.857Z</time>
      </trkpt>
      <trkpt lat="46.99051" lon="8.81045">
        <ele>1104</ele>
        <time>2021-08-04T08:44:33.857Z</time>
      </trkpt>
      <trkpt lat="46.99051" lon="8.81044">
        <ele>1104</ele>
        <time>2021-08-04T08:44:34.857Z</time>
      </trkpt>
      <trkpt lat="46.9905" lon="8.81043">
        <ele>1103</ele>
        <time>2021-08-04T08:44:35.857Z</time>
      </trkpt>
      <trkpt lat="46.9905" lon="8.81042">
        <ele>1103</ele>
        <time>2021-08-04T08:44:36.857Z</time>
      </trkpt>
      <trkpt lat="46.99049" lon="8.81041">
        <ele>1103</ele>
        <time>2021-08-04T08:44:37.856Z</time>
      </trkpt>
      <trkpt lat="46.99049" lon="8.8104">
        <ele>1102</ele>
        <time>2021-08-04T08:44:38.857Z</time>
      </trkpt>
      <trkpt lat="46.99049" lon="8.81039">
        <ele>1102</ele>
        <time>2021-08-04T08:44:39.857Z</time>
      </trkpt>
      <trkpt lat="46.99049" lon="8.81038">
        <ele>1102</ele>
        <time>2021-08-04T08:44:40.857Z</time>
      </trkpt>
      <trkpt lat="46.99049" lon="8.81037">
        <ele>1102</ele>
        <time>2021-08-04T08:44:41.857Z</time>
      </trkpt>
      <trkpt lat="46.9905" lon="8.81036">
        <ele>1102</ele>
        <time>2021-08-04T08:44:42.856Z</time>
      </trkpt>
      <trkpt lat="46.9905" lon="8.81035">
        <ele>1102</ele>
        <time>2021-08-04T08:44:43.857Z</time>
      </trkpt>
      <trkpt lat="46.9905" lon="8.81034">
        <ele>1101</ele>
        <time>2021-08-04T08:44:44.857Z</time>
      </trkpt>
      <trkpt lat="46.99051" lon="8.81032">
        <ele>1101</ele>
        <time>2021-08-04T08:44:45.856Z</time>
      </trkpt>
      <trkpt lat="46.99051" lon="8.81029">
        <ele>1101</ele>
        <time>2021-08-04T08:44:46.857Z</time>
      </trkpt>
      <trkpt lat="46.99051" lon="8.81027">
        <ele>1100</ele>
        <time>2021-08-04T08:44:47.856Z</time>
      </trkpt>
      <trkpt lat="46.99052" lon="8.81026">
        <ele>1100</ele>
        <time>2021-08-04T08:44:48.856Z</time>
      </trkpt>
      <trkpt lat="46.99052" lon="8.81024">
        <ele>1100</ele>
        <time>2021-08-04T08:44:49.856Z</time>
      </trkpt>
      <trkpt lat="46.99052" lon="8.81023">
        <ele>1100</ele>
        <time>2021-08-04T08:44:50.857Z</time>
      </trkpt>
      <trkpt lat="46.99052" lon="8.81022">
        <ele>1100</ele>
        <time>2021-08-04T08:44:51.856Z</time>
      </trkpt>
      <trkpt lat="46.99051" lon="8.8102">
        <ele>1100</ele>
        <time>2021-08-04T08:44:52.856Z</time>
      </trkpt>
      <trkpt lat="46.99051" lon="8.81019">
        <ele>1100</ele>
        <time>2021-08-04T08:44:53.856Z</time>
      </trkpt>
      <trkpt lat="46.9905" lon="8.81017">
        <ele>1099</ele>
        <time>2021-08-04T08:44:54.856Z</time>
      </trkpt>
      <trkpt lat="46.9905" lon="8.81016">
        <ele>1099</ele>
        <time>2021-08-04T08:44:55.857Z</time>
      </trkpt>
      <trkpt lat="46.9905" lon="8.81015">
        <ele>1099</ele>
        <time>2021-08-04T08:44:56.857Z</time>
      </trkpt>
      <trkpt lat="46.9905" lon="8.81014">
        <ele>1100</ele>
        <time>2021-08-04T08:44:57.856Z</time>
      </trkpt>
      <trkpt lat="46.9905" lon="8.81013">
        <ele>1100</ele>
        <time>2021-08-04T08:44:58.857Z</time>
      </trkpt>
      <trkpt lat="46.9905" lon="8.81012">
        <ele>1100</ele>
        <time>2021-08-04T08:44:59.857Z</time>
      </trkpt>
      <trkpt lat="46.9905" lon="8.8101">
        <ele>1101</ele>
        <time>2021-08-04T08:45:00.856Z</time>
      </trkpt>
      <trkpt lat="46.9905" lon="8.81009">
        <ele>1101</ele>
        <time>2021-08-04T08:45:01.856Z</time>
      </trkpt>
      <trkpt lat="46.9905" lon="8.81007">
        <ele>1101</ele>
        <time>2021-08-04T08:45:02.856Z</time>
      </trkpt>
      <trkpt lat="46.9905" lon="8.81006">
        <ele>1101</ele>
        <time>2021-08-04T08:45:03.856Z</time>
      </trkpt>
      <trkpt lat="46.9905" lon="8.81004">
        <ele>1101</ele>
        <time>2021-08-04T08:45:04.856Z</time>
      </trkpt>
      <trkpt lat="46.9905" lon="8.81003">
        <ele>1101</ele>
        <time>2021-08-04T08:45:05.857Z</time>
      </trkpt>
      <trkpt lat="46.99049" lon="8.81002">
        <ele>1101</ele>
        <time>2021-08-04T08:45:06.856Z</time>
      </trkpt>
      <trkpt lat="46.9905" lon="8.81">
        <ele>1101</ele>
        <time>2021-08-04T08:45:07.856Z</time>
      </trkpt>
      <trkpt lat="46.9905" lon="8.80998">
        <ele>1101</ele>
        <time>2021-08-04T08:45:08.856Z</time>
      </trkpt>
      <trkpt lat="46.9905" lon="8.80997">
        <ele>1102</ele>
        <time>2021-08-04T08:45:09.856Z</time>
      </trkpt>
      <trkpt lat="46.9905" lon="8.80996">
        <ele>1102</ele>
        <time>2021-08-04T08:45:10.856Z</time>
      </trkpt>
      <trkpt lat="46.9905" lon="8.80995">
        <ele>1102</ele>
        <time>2021-08-04T08:45:11.856Z</time>
      </trkpt>
      <trkpt lat="46.9905" lon="8.80994">
        <ele>1103</ele>
        <time>2021-08-04T08:45:12.857Z</time>
      </trkpt>
      <trkpt lat="46.9905" lon="8.80992">
        <ele>1103</ele>
        <time>2021-08-04T08:45:13.857Z</time>
      </trkpt>
      <trkpt lat="46.99051" lon="8.80992">
        <ele>1103</ele>
        <time>2021-08-04T08:45:14.856Z</time>
      </trkpt>
      <trkpt lat="46.99051" lon="8.8099">
        <ele>1103</ele>
        <time>2021-08-04T08:45:15.856Z</time>
      </trkpt>
      <trkpt lat="46.99051" lon="8.80989">
        <ele>1103</ele>
        <time>2021-08-04T08:45:16.856Z</time>
      </trkpt>
      <trkpt lat="46.9905" lon="8.80988">
        <ele>1103</ele>
        <time>2021-08-04T08:45:17.857Z</time>
      </trkpt>
      <trkpt lat="46.9905" lon="8.80987">
        <ele>1103</ele>
        <time>2021-08-04T08:45:18.857Z</time>
      </trkpt>
      <trkpt lat="46.9905" lon="8.80986">
        <ele>1103</ele>
        <time>2021-08-04T08:45:19.857Z</time>
      </trkpt>
      <trkpt lat="46.9905" lon="8.80985">
        <ele>1103</ele>
        <time>2021-08-04T08:45:20.856Z</time>
      </trkpt>
      <trkpt lat="46.9905" lon="8.80984">
        <ele>1103</ele>
        <time>2021-08-04T08:45:21.857Z</time>
      </trkpt>
      <trkpt lat="46.9905" lon="8.80982">
        <ele>1103</ele>
        <time>2021-08-04T08:45:22.857Z</time>
      </trkpt>
      <trkpt lat="46.9905" lon="8.80981">
        <ele>1103</ele>
        <time>2021-08-04T08:45:23.857Z</time>
      </trkpt>
      <trkpt lat="46.9905" lon="8.8098">
        <ele>1104</ele>
        <time>2021-08-04T08:45:24.857Z</time>
      </trkpt>
      <trkpt lat="46.99049" lon="8.80979">
        <ele>1104</ele>
        <time>2021-08-04T08:45:25.857Z</time>
      </trkpt>
      <trkpt lat="46.99049" lon="8.80977">
        <ele>1104</ele>
        <time>2021-08-04T08:45:26.856Z</time>
      </trkpt>
      <trkpt lat="46.99048" lon="8.80976">
        <ele>1104</ele>
        <time>2021-08-04T08:45:27.857Z</time>
      </trkpt>
      <trkpt lat="46.99048" lon="8.80974">
        <ele>1104</ele>
        <time>2021-08-04T08:45:28.857Z</time>
      </trkpt>
      <trkpt lat="46.99048" lon="8.80973">
        <ele>1104</ele>
        <time>2021-08-04T08:45:29.857Z</time>
      </trkpt>
      <trkpt lat="46.99048" lon="8.80972">
        <ele>1104</ele>
        <time>2021-08-04T08:45:30.857Z</time>
      </trkpt>
      <trkpt lat="46.99048" lon="8.80971">
        <ele>1104</ele>
        <time>2021-08-04T08:45:31.856Z</time>
      </trkpt>
      <trkpt lat="46.99048" lon="8.8097">
        <ele>1103</ele>
        <time>2021-08-04T08:45:32.857Z</time>
      </trkpt>
      <trkpt lat="46.99048" lon="8.80968">
        <ele>1103</ele>
        <time>2021-08-04T08:45:33.857Z</time>
      </trkpt>
      <trkpt lat="46.99048" lon="8.80967">
        <ele>1104</ele>
        <time>2021-08-04T08:45:34.856Z</time>
      </trkpt>
      <trkpt lat="46.99048" lon="8.80966">
        <ele>1104</ele>
        <time>2021-08-04T08:45:35.857Z</time>
      </trkpt>
      <trkpt lat="46.99048" lon="8.80965">
        <ele>1104</ele>
        <time>2021-08-04T08:45:36.857Z</time>
      </trkpt>
      <trkpt lat="46.99048" lon="8.80964">
        <ele>1104</ele>
        <time>2021-08-04T08:45:37.856Z</time>
      </trkpt>
      <trkpt lat="46.99048" lon="8.80963">
        <ele>1104</ele>
        <time>2021-08-04T08:45:38.857Z</time>
      </trkpt>
      <trkpt lat="46.99048" lon="8.80962">
        <ele>1104</ele>
        <time>2021-08-04T08:45:39.857Z</time>
      </trkpt>
      <trkpt lat="46.99048" lon="8.80962">
        <ele>1104</ele>
        <time>2021-08-04T08:45:40.857Z</time>
      </trkpt>
      <trkpt lat="46.99048" lon="8.8096">
        <ele>1103</ele>
        <time>2021-08-04T08:45:41.857Z</time>
      </trkpt>
      <trkpt lat="46.99048" lon="8.8096">
        <ele>1103</ele>
        <time>2021-08-04T08:45:42.857Z</time>
      </trkpt>
      <trkpt lat="46.99047" lon="8.80959">
        <ele>1102</ele>
        <time>2021-08-04T08:45:43.857Z</time>
      </trkpt>
      <trkpt lat="46.99046" lon="8.80958">
        <ele>1101</ele>
        <time>2021-08-04T08:45:44.856Z</time>
      </trkpt>
      <trkpt lat="46.99046" lon="8.80957">
        <ele>1101</ele>
        <time>2021-08-04T08:45:45.856Z</time>
      </trkpt>
      <trkpt lat="46.99046" lon="8.80955">
        <ele>1101</ele>
        <time>2021-08-04T08:45:46.857Z</time>
      </trkpt>
      <trkpt lat="46.99046" lon="8.80954">
        <ele>1101</ele>
        <time>2021-08-04T08:45:47.857Z</time>
      </trkpt>
      <trkpt lat="46.99045" lon="8.80953">
        <ele>1101</ele>
        <time>2021-08-04T08:45:48.856Z</time>
      </trkpt>
      <trkpt lat="46.99045" lon="8.80952">
        <ele>1101</ele>
        <time>2021-08-04T08:45:49.857Z</time>
      </trkpt>
      <trkpt lat="46.99045" lon="8.80951">
        <ele>1101</ele>
        <time>2021-08-04T08:45:50.857Z</time>
      </trkpt>
      <trkpt lat="46.99045" lon="8.80951">
        <ele>1101</ele>
        <time>2021-08-04T08:45:51.857Z</time>
      </trkpt>
      <trkpt lat="46.99044" lon="8.80949">
        <ele>1100</ele>
        <time>2021-08-04T08:45:52.856Z</time>
      </trkpt>
      <trkpt lat="46.99044" lon="8.80949">
        <ele>1099</ele>
        <time>2021-08-04T08:45:53.856Z</time>
      </trkpt>
      <trkpt lat="46.99044" lon="8.80948">
        <ele>1098</ele>
        <time>2021-08-04T08:45:54.857Z</time>
      </trkpt>
      <trkpt lat="46.99043" lon="8.80947">
        <ele>1097</ele>
        <time>2021-08-04T08:45:55.857Z</time>
      </trkpt>
      <trkpt lat="46.99043" lon="8.80946">
        <ele>1097</ele>
        <time>2021-08-04T08:45:56.856Z</time>
      </trkpt>
      <trkpt lat="46.99043" lon="8.80946">
        <ele>1096</ele>
        <time>2021-08-04T08:45:57.857Z</time>
      </trkpt>
      <trkpt lat="46.99043" lon="8.80945">
        <ele>1096</ele>
        <time>2021-08-04T08:45:58.856Z</time>
      </trkpt>
      <trkpt lat="46.99043" lon="8.80944">
        <ele>1096</ele>
        <time>2021-08-04T08:45:59.856Z</time>
      </trkpt>
      <trkpt lat="46.99042" lon="8.80943">
        <ele>1095</ele>
        <time>2021-08-04T08:46:00.857Z</time>
      </trkpt>
      <trkpt lat="46.99042" lon="8.80943">
        <ele>1095</ele>
        <time>2021-08-04T08:46:01.857Z</time>
      </trkpt>
      <trkpt lat="46.99042" lon="8.80941">
        <ele>1095</ele>
        <time>2021-08-04T08:46:02.856Z</time>
      </trkpt>
      <trkpt lat="46.99042" lon="8.8094">
        <ele>1095</ele>
        <time>2021-08-04T08:46:03.857Z</time>
      </trkpt>
      <trkpt lat="46.99041" lon="8.80939">
        <ele>1094</ele>
        <time>2021-08-04T08:46:04.856Z</time>
      </trkpt>
      <trkpt lat="46.99041" lon="8.80938">
        <ele>1094</ele>
        <time>2021-08-04T08:46:05.857Z</time>
      </trkpt>
      <trkpt lat="46.99041" lon="8.80937">
        <ele>1093</ele>
        <time>2021-08-04T08:46:06.857Z</time>
      </trkpt>
      <trkpt lat="46.99041" lon="8.80936">
        <ele>1093</ele>
        <time>2021-08-04T08:46:07.857Z</time>
      </trkpt>
      <trkpt lat="46.99041" lon="8.80935">
        <ele>1093</ele>
        <time>2021-08-04T08:46:08.857Z</time>
      </trkpt>
      <trkpt lat="46.9904" lon="8.80934">
        <ele>1092</ele>
        <time>2021-08-04T08:46:09.857Z</time>
      </trkpt>
      <trkpt lat="46.9904" lon="8.80932">
        <ele>1092</ele>
        <time>2021-08-04T08:46:10.857Z</time>
      </trkpt>
      <trkpt lat="46.99041" lon="8.80931">
        <ele>1092</ele>
        <time>2021-08-04T08:46:11.857Z</time>
      </trkpt>
      <trkpt lat="46.99041" lon="8.80929">
        <ele>1092</ele>
        <time>2021-08-04T08:46:12.857Z</time>
      </trkpt>
      <trkpt lat="46.99041" lon="8.80928">
        <ele>1092</ele>
        <time>2021-08-04T08:46:13.856Z</time>
      </trkpt>
      <trkpt lat="46.99041" lon="8.80927">
        <ele>1092</ele>
        <time>2021-08-04T08:46:14.857Z</time>
      </trkpt>
      <trkpt lat="46.99042" lon="8.80925">
        <ele>1092</ele>
        <time>2021-08-04T08:46:15.857Z</time>
      </trkpt>
      <trkpt lat="46.99042" lon="8.80924">
        <ele>1092</ele>
        <time>2021-08-04T08:46:16.857Z</time>
      </trkpt>
      <trkpt lat="46.99042" lon="8.80921">
        <ele>1093</ele>
        <time>2021-08-04T08:46:17.857Z</time>
      </trkpt>
      <trkpt lat="46.99041" lon="8.8092">
        <ele>1093</ele>
        <time>2021-08-04T08:46:18.857Z</time>
      </trkpt>
      <trkpt lat="46.99041" lon="8.80918">
        <ele>1093</ele>
        <time>2021-08-04T08:46:19.857Z</time>
      </trkpt>
      <trkpt lat="46.9904" lon="8.80917">
        <ele>1093</ele>
        <time>2021-08-04T08:46:20.857Z</time>
      </trkpt>
      <trkpt lat="46.9904" lon="8.80916">
        <ele>1094</ele>
        <time>2021-08-04T08:46:21.857Z</time>
      </trkpt>
      <trkpt lat="46.9904" lon="8.80915">
        <ele>1094</ele>
        <time>2021-08-04T08:46:22.856Z</time>
      </trkpt>
      <trkpt lat="46.9904" lon="8.80914">
        <ele>1094</ele>
        <time>2021-08-04T08:46:23.856Z</time>
      </trkpt>
      <trkpt lat="46.99041" lon="8.80913">
        <ele>1095</ele>
        <time>2021-08-04T08:46:24.857Z</time>
      </trkpt>
      <trkpt lat="46.99041" lon="8.80912">
        <ele>1095</ele>
        <time>2021-08-04T08:46:25.857Z</time>
      </trkpt>
      <trkpt lat="46.99042" lon="8.80911">
        <ele>1096</ele>
        <time>2021-08-04T08:46:26.856Z</time>
      </trkpt>
      <trkpt lat="46.99043" lon="8.8091">
        <ele>1097</ele>
        <time>2021-08-04T08:46:27.857Z</time>
      </trkpt>
      <trkpt lat="46.99043" lon="8.8091">
        <ele>1097</ele>
        <time>2021-08-04T08:46:28.856Z</time>
      </trkpt>
      <trkpt lat="46.99043" lon="8.80909">
        <ele>1097</ele>
        <time>2021-08-04T08:46:29.856Z</time>
      </trkpt>
      <trkpt lat="46.99044" lon="8.80908">
        <ele>1097</ele>
        <time>2021-08-04T08:46:30.857Z</time>
      </trkpt>
      <trkpt lat="46.99044" lon="8.80907">
        <ele>1097</ele>
        <time>2021-08-04T08:46:31.857Z</time>
      </trkpt>
      <trkpt lat="46.99044" lon="8.80907">
        <ele>1097</ele>
        <time>2021-08-04T08:46:32.857Z</time>
      </trkpt>
      <trkpt lat="46.99044" lon="8.80907">
        <ele>1097</ele>
        <time>2021-08-04T08:46:33.857Z</time>
      </trkpt>
      <trkpt lat="46.99044" lon="8.80902">
        <ele>1098</ele>
        <time>2021-08-04T08:46:34.857Z</time>
      </trkpt>
      <trkpt lat="46.99045" lon="8.80901">
        <ele>1098</ele>
        <time>2021-08-04T08:46:35.857Z</time>
      </trkpt>
      <trkpt lat="46.99045" lon="8.809">
        <ele>1099</ele>
        <time>2021-08-04T08:46:36.857Z</time>
      </trkpt>
      <trkpt lat="46.99044" lon="8.80898">
        <ele>1099</ele>
        <time>2021-08-04T08:46:37.857Z</time>
      </trkpt>
      <trkpt lat="46.99044" lon="8.80896">
        <ele>1099</ele>
        <time>2021-08-04T08:46:38.858Z</time>
      </trkpt>
      <trkpt lat="46.99045" lon="8.80895">
        <ele>1099</ele>
        <time>2021-08-04T08:46:39.857Z</time>
      </trkpt>
      <trkpt lat="46.99045" lon="8.80894">
        <ele>1099</ele>
        <time>2021-08-04T08:46:40.857Z</time>
      </trkpt>
      <trkpt lat="46.99045" lon="8.80893">
        <ele>1098</ele>
        <time>2021-08-04T08:46:41.857Z</time>
      </trkpt>
      <trkpt lat="46.99046" lon="8.80894">
        <ele>1098</ele>
        <time>2021-08-04T08:46:42.857Z</time>
      </trkpt>
      <trkpt lat="46.99047" lon="8.80892">
        <ele>1097</ele>
        <time>2021-08-04T08:46:43.857Z</time>
      </trkpt>
      <trkpt lat="46.99047" lon="8.8089">
        <ele>1097</ele>
        <time>2021-08-04T08:46:44.857Z</time>
      </trkpt>
      <trkpt lat="46.99047" lon="8.80889">
        <ele>1097</ele>
        <time>2021-08-04T08:46:45.858Z</time>
      </trkpt>
      <trkpt lat="46.99047" lon="8.80887">
        <ele>1097</ele>
        <time>2021-08-04T08:46:46.858Z</time>
      </trkpt>
      <trkpt lat="46.99047" lon="8.80886">
        <ele>1097</ele>
        <time>2021-08-04T08:46:47.857Z</time>
      </trkpt>
      <trkpt lat="46.99047" lon="8.80885">
        <ele>1097</ele>
        <time>2021-08-04T08:46:48.858Z</time>
      </trkpt>
      <trkpt lat="46.99047" lon="8.80884">
        <ele>1097</ele>
        <time>2021-08-04T08:46:49.857Z</time>
      </trkpt>
      <trkpt lat="46.99048" lon="8.80883">
        <ele>1097</ele>
        <time>2021-08-04T08:46:50.857Z</time>
      </trkpt>
      <trkpt lat="46.99048" lon="8.80882">
        <ele>1097</ele>
        <time>2021-08-04T08:46:51.857Z</time>
      </trkpt>
      <trkpt lat="46.9905" lon="8.80883">
        <ele>1098</ele>
        <time>2021-08-04T08:46:52.857Z</time>
      </trkpt>
      <trkpt lat="46.99051" lon="8.80883">
        <ele>1098</ele>
        <time>2021-08-04T08:46:53.857Z</time>
      </trkpt>
      <trkpt lat="46.99054" lon="8.80881">
        <ele>1091</ele>
        <time>2021-08-04T08:46:54.857Z</time>
      </trkpt>
      <trkpt lat="46.99054" lon="8.80879">
        <ele>1092</ele>
        <time>2021-08-04T08:46:55.858Z</time>
      </trkpt>
      <trkpt lat="46.99054" lon="8.80877">
        <ele>1092</ele>
        <time>2021-08-04T08:46:56.857Z</time>
      </trkpt>
      <trkpt lat="46.99054" lon="8.80874">
        <ele>1092</ele>
        <time>2021-08-04T08:46:57.857Z</time>
      </trkpt>
      <trkpt lat="46.99054" lon="8.80873">
        <ele>1092</ele>
        <time>2021-08-04T08:46:58.857Z</time>
      </trkpt>
      <trkpt lat="46.99054" lon="8.80871">
        <ele>1091</ele>
        <time>2021-08-04T08:46:59.857Z</time>
      </trkpt>
      <trkpt lat="46.99053" lon="8.80869">
        <ele>1091</ele>
        <time>2021-08-04T08:47:00.858Z</time>
      </trkpt>
      <trkpt lat="46.99053" lon="8.80868">
        <ele>1091</ele>
        <time>2021-08-04T08:47:01.857Z</time>
      </trkpt>
      <trkpt lat="46.99053" lon="8.80867">
        <ele>1091</ele>
        <time>2021-08-04T08:47:02.858Z</time>
      </trkpt>
      <trkpt lat="46.99053" lon="8.80866">
        <ele>1091</ele>
        <time>2021-08-04T08:47:03.858Z</time>
      </trkpt>
      <trkpt lat="46.99054" lon="8.80864">
        <ele>1091</ele>
        <time>2021-08-04T08:47:04.857Z</time>
      </trkpt>
      <trkpt lat="46.99055" lon="8.80863">
        <ele>1091</ele>
        <time>2021-08-04T08:47:05.857Z</time>
      </trkpt>
      <trkpt lat="46.99054" lon="8.80861">
        <ele>1091</ele>
        <time>2021-08-04T08:47:06.857Z</time>
      </trkpt>
      <trkpt lat="46.99054" lon="8.80859">
        <ele>1091</ele>
        <time>2021-08-04T08:47:07.857Z</time>
      </trkpt>
      <trkpt lat="46.99054" lon="8.80857">
        <ele>1091</ele>
        <time>2021-08-04T08:47:08.857Z</time>
      </trkpt>
      <trkpt lat="46.99054" lon="8.80855">
        <ele>1092</ele>
        <time>2021-08-04T08:47:09.857Z</time>
      </trkpt>
      <trkpt lat="46.99054" lon="8.80853">
        <ele>1092</ele>
        <time>2021-08-04T08:47:10.857Z</time>
      </trkpt>
      <trkpt lat="46.99054" lon="8.80852">
        <ele>1092</ele>
        <time>2021-08-04T08:47:11.858Z</time>
      </trkpt>
      <trkpt lat="46.99054" lon="8.80851">
        <ele>1092</ele>
        <time>2021-08-04T08:47:12.857Z</time>
      </trkpt>
      <trkpt lat="46.99053" lon="8.8085">
        <ele>1093</ele>
        <time>2021-08-04T08:47:13.857Z</time>
      </trkpt>
      <trkpt lat="46.99053" lon="8.80849">
        <ele>1093</ele>
        <time>2021-08-04T08:47:14.857Z</time>
      </trkpt>
      <trkpt lat="46.99053" lon="8.80847">
        <ele>1093</ele>
        <time>2021-08-04T08:47:15.857Z</time>
      </trkpt>
      <trkpt lat="46.99053" lon="8.80846">
        <ele>1093</ele>
        <time>2021-08-04T08:47:16.857Z</time>
      </trkpt>
      <trkpt lat="46.99052" lon="8.80844">
        <ele>1093</ele>
        <time>2021-08-04T08:47:17.857Z</time>
      </trkpt>
      <trkpt lat="46.99052" lon="8.80842">
        <ele>1092</ele>
        <time>2021-08-04T08:47:18.857Z</time>
      </trkpt>
      <trkpt lat="46.99052" lon="8.8084">
        <ele>1092</ele>
        <time>2021-08-04T08:47:19.857Z</time>
      </trkpt>
      <trkpt lat="46.99052" lon="8.80839">
        <ele>1092</ele>
        <time>2021-08-04T08:47:20.857Z</time>
      </trkpt>
      <trkpt lat="46.99053" lon="8.80838">
        <ele>1092</ele>
        <time>2021-08-04T08:47:21.858Z</time>
      </trkpt>
      <trkpt lat="46.99053" lon="8.80837">
        <ele>1092</ele>
        <time>2021-08-04T08:47:22.858Z</time>
      </trkpt>
      <trkpt lat="46.99053" lon="8.80836">
        <ele>1092</ele>
        <time>2021-08-04T08:47:23.857Z</time>
      </trkpt>
      <trkpt lat="46.99053" lon="8.80835">
        <ele>1092</ele>
        <time>2021-08-04T08:47:24.857Z</time>
      </trkpt>
      <trkpt lat="46.99053" lon="8.80834">
        <ele>1091</ele>
        <time>2021-08-04T08:47:25.858Z</time>
      </trkpt>
      <trkpt lat="46.99053" lon="8.80832">
        <ele>1091</ele>
        <time>2021-08-04T08:47:26.857Z</time>
      </trkpt>
      <trkpt lat="46.99054" lon="8.8083">
        <ele>1090</ele>
        <time>2021-08-04T08:47:27.857Z</time>
      </trkpt>
      <trkpt lat="46.99054" lon="8.80829">
        <ele>1090</ele>
        <time>2021-08-04T08:47:28.857Z</time>
      </trkpt>
      <trkpt lat="46.99053" lon="8.80827">
        <ele>1089</ele>
        <time>2021-08-04T08:47:29.858Z</time>
      </trkpt>
      <trkpt lat="46.99053" lon="8.80825">
        <ele>1089</ele>
        <time>2021-08-04T08:47:30.858Z</time>
      </trkpt>
      <trkpt lat="46.99054" lon="8.80823">
        <ele>1089</ele>
        <time>2021-08-04T08:47:31.857Z</time>
      </trkpt>
      <trkpt lat="46.99055" lon="8.80822">
        <ele>1089</ele>
        <time>2021-08-04T08:47:32.857Z</time>
      </trkpt>
      <trkpt lat="46.99055" lon="8.80821">
        <ele>1090</ele>
        <time>2021-08-04T08:47:33.857Z</time>
      </trkpt>
      <trkpt lat="46.99055" lon="8.80819">
        <ele>1090</ele>
        <time>2021-08-04T08:47:34.857Z</time>
      </trkpt>
      <trkpt lat="46.99055" lon="8.80818">
        <ele>1090</ele>
        <time>2021-08-04T08:47:35.858Z</time>
      </trkpt>
      <trkpt lat="46.99056" lon="8.80817">
        <ele>1090</ele>
        <time>2021-08-04T08:47:36.857Z</time>
      </trkpt>
      <trkpt lat="46.99056" lon="8.80816">
        <ele>1090</ele>
        <time>2021-08-04T08:47:37.858Z</time>
      </trkpt>
      <trkpt lat="46.99056" lon="8.80814">
        <ele>1089</ele>
        <time>2021-08-04T08:47:38.857Z</time>
      </trkpt>
      <trkpt lat="46.99057" lon="8.80813">
        <ele>1090</ele>
        <time>2021-08-04T08:47:39.857Z</time>
      </trkpt>
      <trkpt lat="46.99057" lon="8.80813">
        <ele>1090</ele>
        <time>2021-08-04T08:47:40.857Z</time>
      </trkpt>
      <trkpt lat="46.99057" lon="8.80812">
        <ele>1090</ele>
        <time>2021-08-04T08:47:41.857Z</time>
      </trkpt>
      <trkpt lat="46.99057" lon="8.80812">
        <ele>1091</ele>
        <time>2021-08-04T08:47:42.858Z</time>
      </trkpt>
      <trkpt lat="46.99057" lon="8.80811">
        <ele>1091</ele>
        <time>2021-08-04T08:47:43.857Z</time>
      </trkpt>
      <trkpt lat="46.99058" lon="8.8081">
        <ele>1091</ele>
        <time>2021-08-04T08:47:44.858Z</time>
      </trkpt>
      <trkpt lat="46.99058" lon="8.8081">
        <ele>1091</ele>
        <time>2021-08-04T08:47:45.857Z</time>
      </trkpt>
      <trkpt lat="46.99058" lon="8.80809">
        <ele>1091</ele>
        <time>2021-08-04T08:47:46.857Z</time>
      </trkpt>
      <trkpt lat="46.99058" lon="8.80808">
        <ele>1091</ele>
        <time>2021-08-04T08:47:47.857Z</time>
      </trkpt>
      <trkpt lat="46.99058" lon="8.80806">
        <ele>1091</ele>
        <time>2021-08-04T08:47:48.857Z</time>
      </trkpt>
      <trkpt lat="46.99058" lon="8.80805">
        <ele>1090</ele>
        <time>2021-08-04T08:47:49.858Z</time>
      </trkpt>
      <trkpt lat="46.99058" lon="8.80803">
        <ele>1090</ele>
        <time>2021-08-04T08:47:50.858Z</time>
      </trkpt>
      <trkpt lat="46.99057" lon="8.80802">
        <ele>1089</ele>
        <time>2021-08-04T08:47:51.857Z</time>
      </trkpt>
      <trkpt lat="46.99056" lon="8.808">
        <ele>1089</ele>
        <time>2021-08-04T08:47:52.857Z</time>
      </trkpt>
      <trkpt lat="46.99056" lon="8.80798">
        <ele>1088</ele>
        <time>2021-08-04T08:47:53.858Z</time>
      </trkpt>
      <trkpt lat="46.99056" lon="8.80797">
        <ele>1088</ele>
        <time>2021-08-04T08:47:54.858Z</time>
      </trkpt>
      <trkpt lat="46.99057" lon="8.80795">
        <ele>1088</ele>
        <time>2021-08-04T08:47:55.857Z</time>
      </trkpt>
      <trkpt lat="46.99058" lon="8.80795">
        <ele>1088</ele>
        <time>2021-08-04T08:47:56.858Z</time>
      </trkpt>
      <trkpt lat="46.99058" lon="8.80793">
        <ele>1087</ele>
        <time>2021-08-04T08:47:57.858Z</time>
      </trkpt>
      <trkpt lat="46.99058" lon="8.80792">
        <ele>1087</ele>
        <time>2021-08-04T08:47:58.858Z</time>
      </trkpt>
      <trkpt lat="46.99057" lon="8.8079">
        <ele>1087</ele>
        <time>2021-08-04T08:47:59.857Z</time>
      </trkpt>
      <trkpt lat="46.99056" lon="8.80788">
        <ele>1087</ele>
        <time>2021-08-04T08:48:00.857Z</time>
      </trkpt>
      <trkpt lat="46.99056" lon="8.80786">
        <ele>1088</ele>
        <time>2021-08-04T08:48:01.857Z</time>
      </trkpt>
      <trkpt lat="46.99055" lon="8.80784">
        <ele>1088</ele>
        <time>2021-08-04T08:48:02.858Z</time>
      </trkpt>
      <trkpt lat="46.99055" lon="8.80781">
        <ele>1089</ele>
        <time>2021-08-04T08:48:03.857Z</time>
      </trkpt>
      <trkpt lat="46.99055" lon="8.80779">
        <ele>1089</ele>
        <time>2021-08-04T08:48:04.858Z</time>
      </trkpt>
      <trkpt lat="46.99056" lon="8.80777">
        <ele>1090</ele>
        <time>2021-08-04T08:48:05.857Z</time>
      </trkpt>
      <trkpt lat="46.99057" lon="8.80777">
        <ele>1090</ele>
        <time>2021-08-04T08:48:06.857Z</time>
      </trkpt>
      <trkpt lat="46.99058" lon="8.80776">
        <ele>1091</ele>
        <time>2021-08-04T08:48:07.857Z</time>
      </trkpt>
      <trkpt lat="46.99058" lon="8.80774">
        <ele>1091</ele>
        <time>2021-08-04T08:48:08.857Z</time>
      </trkpt>
      <trkpt lat="46.99058" lon="8.80773">
        <ele>1092</ele>
        <time>2021-08-04T08:48:09.858Z</time>
      </trkpt>
      <trkpt lat="46.99058" lon="8.80771">
        <ele>1092</ele>
        <time>2021-08-04T08:48:10.858Z</time>
      </trkpt>
      <trkpt lat="46.99057" lon="8.80769">
        <ele>1092</ele>
        <time>2021-08-04T08:48:11.858Z</time>
      </trkpt>
      <trkpt lat="46.99057" lon="8.80767">
        <ele>1092</ele>
        <time>2021-08-04T08:48:12.857Z</time>
      </trkpt>
      <trkpt lat="46.99056" lon="8.80766">
        <ele>1092</ele>
        <time>2021-08-04T08:48:13.858Z</time>
      </trkpt>
      <trkpt lat="46.99055" lon="8.80763">
        <ele>1092</ele>
        <time>2021-08-04T08:48:14.857Z</time>
      </trkpt>
      <trkpt lat="46.99055" lon="8.80762">
        <ele>1093</ele>
        <time>2021-08-04T08:48:15.857Z</time>
      </trkpt>
      <trkpt lat="46.99055" lon="8.8076">
        <ele>1093</ele>
        <time>2021-08-04T08:48:16.858Z</time>
      </trkpt>
      <trkpt lat="46.99055" lon="8.80759">
        <ele>1093</ele>
        <time>2021-08-04T08:48:17.857Z</time>
      </trkpt>
      <trkpt lat="46.99055" lon="8.80758">
        <ele>1093</ele>
        <time>2021-08-04T08:48:18.857Z</time>
      </trkpt>
      <trkpt lat="46.99055" lon="8.80756">
        <ele>1094</ele>
        <time>2021-08-04T08:48:19.857Z</time>
      </trkpt>
      <trkpt lat="46.99056" lon="8.80754">
        <ele>1094</ele>
        <time>2021-08-04T08:48:20.857Z</time>
      </trkpt>
      <trkpt lat="46.99056" lon="8.80753">
        <ele>1094</ele>
        <time>2021-08-04T08:48:21.857Z</time>
      </trkpt>
      <trkpt lat="46.99057" lon="8.80752">
        <ele>1094</ele>
        <time>2021-08-04T08:48:22.858Z</time>
      </trkpt>
      <trkpt lat="46.99056" lon="8.80751">
        <ele>1094</ele>
        <time>2021-08-04T08:48:23.858Z</time>
      </trkpt>
      <trkpt lat="46.99056" lon="8.8075">
        <ele>1094</ele>
        <time>2021-08-04T08:48:24.857Z</time>
      </trkpt>
      <trkpt lat="46.99056" lon="8.80748">
        <ele>1093</ele>
        <time>2021-08-04T08:48:25.857Z</time>
      </trkpt>
      <trkpt lat="46.99055" lon="8.80745">
        <ele>1093</ele>
        <time>2021-08-04T08:48:26.857Z</time>
      </trkpt>
      <trkpt lat="46.99055" lon="8.80743">
        <ele>1093</ele>
        <time>2021-08-04T08:48:27.857Z</time>
      </trkpt>
      <trkpt lat="46.99055" lon="8.80741">
        <ele>1093</ele>
        <time>2021-08-04T08:48:28.857Z</time>
      </trkpt>
      <trkpt lat="46.99055" lon="8.8074">
        <ele>1093</ele>
        <time>2021-08-04T08:48:29.857Z</time>
      </trkpt>
      <trkpt lat="46.99055" lon="8.80738">
        <ele>1093</ele>
        <time>2021-08-04T08:48:30.857Z</time>
      </trkpt>
      <trkpt lat="46.99055" lon="8.80736">
        <ele>1093</ele>
        <time>2021-08-04T08:48:31.857Z</time>
      </trkpt>
      <trkpt lat="46.99055" lon="8.80734">
        <ele>1092</ele>
        <time>2021-08-04T08:48:32.857Z</time>
      </trkpt>
      <trkpt lat="46.99055" lon="8.80732">
        <ele>1092</ele>
        <time>2021-08-04T08:48:33.857Z</time>
      </trkpt>
      <trkpt lat="46.99055" lon="8.80731">
        <ele>1092</ele>
        <time>2021-08-04T08:48:34.857Z</time>
      </trkpt>
      <trkpt lat="46.99054" lon="8.80729">
        <ele>1092</ele>
        <time>2021-08-04T08:48:35.857Z</time>
      </trkpt>
      <trkpt lat="46.99054" lon="8.80727">
        <ele>1092</ele>
        <time>2021-08-04T08:48:36.857Z</time>
      </trkpt>
      <trkpt lat="46.99054" lon="8.80725">
        <ele>1092</ele>
        <time>2021-08-04T08:48:37.857Z</time>
      </trkpt>
      <trkpt lat="46.99054" lon="8.80724">
        <ele>1092</ele>
        <time>2021-08-04T08:48:38.858Z</time>
      </trkpt>
      <trkpt lat="46.99054" lon="8.80722">
        <ele>1092</ele>
        <time>2021-08-04T08:48:39.858Z</time>
      </trkpt>
      <trkpt lat="46.99054" lon="8.80719">
        <ele>1092</ele>
        <time>2021-08-04T08:48:40.858Z</time>
      </trkpt>
      <trkpt lat="46.99054" lon="8.80718">
        <ele>1092</ele>
        <time>2021-08-04T08:48:41.857Z</time>
      </trkpt>
      <trkpt lat="46.99054" lon="8.80717">
        <ele>1092</ele>
        <time>2021-08-04T08:48:42.857Z</time>
      </trkpt>
      <trkpt lat="46.99054" lon="8.80715">
        <ele>1092</ele>
        <time>2021-08-04T08:48:43.858Z</time>
      </trkpt>
      <trkpt lat="46.99053" lon="8.80714">
        <ele>1092</ele>
        <time>2021-08-04T08:48:44.858Z</time>
      </trkpt>
      <trkpt lat="46.99053" lon="8.80713">
        <ele>1092</ele>
        <time>2021-08-04T08:48:45.857Z</time>
      </trkpt>
      <trkpt lat="46.99052" lon="8.80711">
        <ele>1092</ele>
        <time>2021-08-04T08:48:46.858Z</time>
      </trkpt>
      <trkpt lat="46.99052" lon="8.8071">
        <ele>1092</ele>
        <time>2021-08-04T08:48:47.857Z</time>
      </trkpt>
      <trkpt lat="46.99052" lon="8.80709">
        <ele>1091</ele>
        <time>2021-08-04T08:48:48.857Z</time>
      </trkpt>
      <trkpt lat="46.99053" lon="8.80708">
        <ele>1091</ele>
        <time>2021-08-04T08:48:49.857Z</time>
      </trkpt>
      <trkpt lat="46.99053" lon="8.80707">
        <ele>1091</ele>
        <time>2021-08-04T08:48:50.857Z</time>
      </trkpt>
      <trkpt lat="46.99053" lon="8.80706">
        <ele>1091</ele>
        <time>2021-08-04T08:48:51.857Z</time>
      </trkpt>
      <trkpt lat="46.99053" lon="8.80704">
        <ele>1091</ele>
        <time>2021-08-04T08:48:52.857Z</time>
      </trkpt>
      <trkpt lat="46.99053" lon="8.80702">
        <ele>1091</ele>
        <time>2021-08-04T08:48:53.857Z</time>
      </trkpt>
      <trkpt lat="46.99053" lon="8.80701">
        <ele>1091</ele>
        <time>2021-08-04T08:48:54.858Z</time>
      </trkpt>
      <trkpt lat="46.99053" lon="8.80699">
        <ele>1091</ele>
        <time>2021-08-04T08:48:55.857Z</time>
      </trkpt>
      <trkpt lat="46.99053" lon="8.80698">
        <ele>1091</ele>
        <time>2021-08-04T08:48:56.858Z</time>
      </trkpt>
      <trkpt lat="46.99054" lon="8.80697">
        <ele>1090</ele>
        <time>2021-08-04T08:48:57.858Z</time>
      </trkpt>
      <trkpt lat="46.99055" lon="8.80696">
        <ele>1090</ele>
        <time>2021-08-04T08:48:58.857Z</time>
      </trkpt>
      <trkpt lat="46.99055" lon="8.80695">
        <ele>1090</ele>
        <time>2021-08-04T08:48:59.857Z</time>
      </trkpt>
      <trkpt lat="46.99054" lon="8.80694">
        <ele>1090</ele>
        <time>2021-08-04T08:49:00.857Z</time>
      </trkpt>
      <trkpt lat="46.99055" lon="8.80694">
        <ele>1091</ele>
        <time>2021-08-04T08:49:01.857Z</time>
      </trkpt>
      <trkpt lat="46.99055" lon="8.80693">
        <ele>1091</ele>
        <time>2021-08-04T08:49:02.857Z</time>
      </trkpt>
      <trkpt lat="46.99056" lon="8.80693">
        <ele>1091</ele>
        <time>2021-08-04T08:49:03.857Z</time>
      </trkpt>
      <trkpt lat="46.99057" lon="8.80693">
        <ele>1092</ele>
        <time>2021-08-04T08:49:04.857Z</time>
      </trkpt>
      <trkpt lat="46.99058" lon="8.80692">
        <ele>1092</ele>
        <time>2021-08-04T08:49:05.857Z</time>
      </trkpt>
      <trkpt lat="46.99059" lon="8.8069">
        <ele>1093</ele>
        <time>2021-08-04T08:49:06.858Z</time>
      </trkpt>
      <trkpt lat="46.99059" lon="8.80689">
        <ele>1094</ele>
        <time>2021-08-04T08:49:07.857Z</time>
      </trkpt>
      <trkpt lat="46.99059" lon="8.80688">
        <ele>1094</ele>
        <time>2021-08-04T08:49:08.857Z</time>
      </trkpt>
      <trkpt lat="46.9906" lon="8.80688">
        <ele>1095</ele>
        <time>2021-08-04T08:49:09.857Z</time>
      </trkpt>
      <trkpt lat="46.99061" lon="8.80687">
        <ele>1096</ele>
        <time>2021-08-04T08:49:10.857Z</time>
      </trkpt>
      <trkpt lat="46.99061" lon="8.80686">
        <ele>1096</ele>
        <time>2021-08-04T08:49:11.858Z</time>
      </trkpt>
      <trkpt lat="46.99061" lon="8.80685">
        <ele>1097</ele>
        <time>2021-08-04T08:49:12.858Z</time>
      </trkpt>
      <trkpt lat="46.99062" lon="8.80684">
        <ele>1097</ele>
        <time>2021-08-04T08:49:13.858Z</time>
      </trkpt>
      <trkpt lat="46.99063" lon="8.80683">
        <ele>1098</ele>
        <time>2021-08-04T08:49:14.857Z</time>
      </trkpt>
      <trkpt lat="46.99062" lon="8.80682">
        <ele>1098</ele>
        <time>2021-08-04T08:49:15.858Z</time>
      </trkpt>
      <trkpt lat="46.99062" lon="8.8068">
        <ele>1098</ele>
        <time>2021-08-04T08:49:16.857Z</time>
      </trkpt>
      <trkpt lat="46.99062" lon="8.80678">
        <ele>1099</ele>
        <time>2021-08-04T08:49:17.857Z</time>
      </trkpt>
      <trkpt lat="46.99061" lon="8.80677">
        <ele>1099</ele>
        <time>2021-08-04T08:49:18.857Z</time>
      </trkpt>
      <trkpt lat="46.99061" lon="8.80675">
        <ele>1099</ele>
        <time>2021-08-04T08:49:19.858Z</time>
      </trkpt>
      <trkpt lat="46.99061" lon="8.80673">
        <ele>1099</ele>
        <time>2021-08-04T08:49:20.857Z</time>
      </trkpt>
      <trkpt lat="46.99061" lon="8.80672">
        <ele>1100</ele>
        <time>2021-08-04T08:49:21.857Z</time>
      </trkpt>
      <trkpt lat="46.99061" lon="8.8067">
        <ele>1100</ele>
        <time>2021-08-04T08:49:22.857Z</time>
      </trkpt>
      <trkpt lat="46.99061" lon="8.80668">
        <ele>1100</ele>
        <time>2021-08-04T08:49:23.858Z</time>
      </trkpt>
      <trkpt lat="46.99061" lon="8.80667">
        <ele>1099</ele>
        <time>2021-08-04T08:49:24.857Z</time>
      </trkpt>
      <trkpt lat="46.99061" lon="8.80666">
        <ele>1099</ele>
        <time>2021-08-04T08:49:25.857Z</time>
      </trkpt>
      <trkpt lat="46.99061" lon="8.80664">
        <ele>1099</ele>
        <time>2021-08-04T08:49:26.857Z</time>
      </trkpt>
      <trkpt lat="46.99061" lon="8.80663">
        <ele>1099</ele>
        <time>2021-08-04T08:49:27.857Z</time>
      </trkpt>
      <trkpt lat="46.99061" lon="8.80661">
        <ele>1098</ele>
        <time>2021-08-04T08:49:28.858Z</time>
      </trkpt>
      <trkpt lat="46.99061" lon="8.80659">
        <ele>1098</ele>
        <time>2021-08-04T08:49:29.858Z</time>
      </trkpt>
      <trkpt lat="46.99061" lon="8.80657">
        <ele>1097</ele>
        <time>2021-08-04T08:49:30.857Z</time>
      </trkpt>
      <trkpt lat="46.99061" lon="8.80655">
        <ele>1097</ele>
        <time>2021-08-04T08:49:31.857Z</time>
      </trkpt>
      <trkpt lat="46.9906" lon="8.80653">
        <ele>1097</ele>
        <time>2021-08-04T08:49:32.857Z</time>
      </trkpt>
      <trkpt lat="46.99059" lon="8.80652">
        <ele>1097</ele>
        <time>2021-08-04T08:49:33.858Z</time>
      </trkpt>
      <trkpt lat="46.99059" lon="8.80652">
        <ele>1097</ele>
        <time>2021-08-04T08:49:34.858Z</time>
      </trkpt>
      <trkpt lat="46.99059" lon="8.80651">
        <ele>1097</ele>
        <time>2021-08-04T08:49:35.857Z</time>
      </trkpt>
      <trkpt lat="46.99059" lon="8.80651">
        <ele>1096</ele>
        <time>2021-08-04T08:49:36.857Z</time>
      </trkpt>
      <trkpt lat="46.99058" lon="8.8065">
        <ele>1096</ele>
        <time>2021-08-04T08:49:37.857Z</time>
      </trkpt>
      <trkpt lat="46.99058" lon="8.80648">
        <ele>1095</ele>
        <time>2021-08-04T08:49:38.857Z</time>
      </trkpt>
      <trkpt lat="46.99058" lon="8.80647">
        <ele>1095</ele>
        <time>2021-08-04T08:49:39.857Z</time>
      </trkpt>
      <trkpt lat="46.99057" lon="8.80646">
        <ele>1094</ele>
        <time>2021-08-04T08:49:40.858Z</time>
      </trkpt>
      <trkpt lat="46.99057" lon="8.80644">
        <ele>1094</ele>
        <time>2021-08-04T08:49:41.857Z</time>
      </trkpt>
      <trkpt lat="46.99057" lon="8.80644">
        <ele>1094</ele>
        <time>2021-08-04T08:49:42.857Z</time>
      </trkpt>
      <trkpt lat="46.99057" lon="8.80643">
        <ele>1094</ele>
        <time>2021-08-04T08:49:43.857Z</time>
      </trkpt>
      <trkpt lat="46.99057" lon="8.80642">
        <ele>1094</ele>
        <time>2021-08-04T08:49:44.857Z</time>
      </trkpt>
      <trkpt lat="46.99057" lon="8.80642">
        <ele>1094</ele>
        <time>2021-08-04T08:49:45.857Z</time>
      </trkpt>
      <trkpt lat="46.99056" lon="8.80641">
        <ele>1094</ele>
        <time>2021-08-04T08:49:46.857Z</time>
      </trkpt>
      <trkpt lat="46.99057" lon="8.80641">
        <ele>1094</ele>
        <time>2021-08-04T08:49:47.857Z</time>
      </trkpt>
      <trkpt lat="46.99057" lon="8.8064">
        <ele>1093</ele>
        <time>2021-08-04T08:49:48.857Z</time>
      </trkpt>
      <trkpt lat="46.99056" lon="8.8064">
        <ele>1093</ele>
        <time>2021-08-04T08:49:49.857Z</time>
      </trkpt>
      <trkpt lat="46.99056" lon="8.80639">
        <ele>1093</ele>
        <time>2021-08-04T08:49:50.858Z</time>
      </trkpt>
      <trkpt lat="46.99056" lon="8.80638">
        <ele>1092</ele>
        <time>2021-08-04T08:49:51.857Z</time>
      </trkpt>
      <trkpt lat="46.99056" lon="8.80637">
        <ele>1092</ele>
        <time>2021-08-04T08:49:52.857Z</time>
      </trkpt>
      <trkpt lat="46.99056" lon="8.80637">
        <ele>1091</ele>
        <time>2021-08-04T08:49:53.857Z</time>
      </trkpt>
      <trkpt lat="46.99055" lon="8.80635">
        <ele>1091</ele>
        <time>2021-08-04T08:49:54.858Z</time>
      </trkpt>
      <trkpt lat="46.99054" lon="8.80634">
        <ele>1091</ele>
        <time>2021-08-04T08:49:55.858Z</time>
      </trkpt>
      <trkpt lat="46.99054" lon="8.80633">
        <ele>1092</ele>
        <time>2021-08-04T08:49:56.857Z</time>
      </trkpt>
      <trkpt lat="46.99053" lon="8.80632">
        <ele>1092</ele>
        <time>2021-08-04T08:49:57.858Z</time>
      </trkpt>
      <trkpt lat="46.99053" lon="8.80632">
        <ele>1092</ele>
        <time>2021-08-04T08:49:58.857Z</time>
      </trkpt>
      <trkpt lat="46.99053" lon="8.80631">
        <ele>1092</ele>
        <time>2021-08-04T08:49:59.858Z</time>
      </trkpt>
      <trkpt lat="46.99053" lon="8.80631">
        <ele>1092</ele>
        <time>2021-08-04T08:50:00.857Z</time>
      </trkpt>
      <trkpt lat="46.99053" lon="8.80631">
        <ele>1091</ele>
        <time>2021-08-04T08:50:01.858Z</time>
      </trkpt>
      <trkpt lat="46.99053" lon="8.80632">
        <ele>1089</ele>
        <time>2021-08-04T08:50:02.859Z</time>
      </trkpt>
      <trkpt lat="46.99052" lon="8.80632">
        <ele>1089</ele>
        <time>2021-08-04T08:50:03.859Z</time>
      </trkpt>
      <trkpt lat="46.99052" lon="8.80632">
        <ele>1088</ele>
        <time>2021-08-04T08:50:04.859Z</time>
      </trkpt>
      <trkpt lat="46.99052" lon="8.80631">
        <ele>1088</ele>
        <time>2021-08-04T08:50:05.860Z</time>
      </trkpt>
      <trkpt lat="46.99052" lon="8.8063">
        <ele>1086</ele>
        <time>2021-08-04T08:50:06.860Z</time>
      </trkpt>
      <trkpt lat="46.99052" lon="8.80629">
        <ele>1086</ele>
        <time>2021-08-04T08:50:07.859Z</time>
      </trkpt>
      <trkpt lat="46.99052" lon="8.80628">
        <ele>1086</ele>
        <time>2021-08-04T08:50:08.859Z</time>
      </trkpt>
      <trkpt lat="46.99052" lon="8.80627">
        <ele>1086</ele>
        <time>2021-08-04T08:50:09.859Z</time>
      </trkpt>
      <trkpt lat="46.99052" lon="8.80626">
        <ele>1086</ele>
        <time>2021-08-04T08:50:10.860Z</time>
      </trkpt>
      <trkpt lat="46.99052" lon="8.80626">
        <ele>1087</ele>
        <time>2021-08-04T08:50:11.860Z</time>
      </trkpt>
      <trkpt lat="46.99051" lon="8.80625">
        <ele>1088</ele>
        <time>2021-08-04T08:50:12.860Z</time>
      </trkpt>
      <trkpt lat="46.99051" lon="8.80624">
        <ele>1089</ele>
        <time>2021-08-04T08:50:13.859Z</time>
      </trkpt>
      <trkpt lat="46.99051" lon="8.80624">
        <ele>1089</ele>
        <time>2021-08-04T08:50:14.860Z</time>
      </trkpt>
      <trkpt lat="46.99051" lon="8.80623">
        <ele>1090</ele>
        <time>2021-08-04T08:50:15.859Z</time>
      </trkpt>
      <trkpt lat="46.99051" lon="8.80623">
        <ele>1090</ele>
        <time>2021-08-04T08:50:16.859Z</time>
      </trkpt>
      <trkpt lat="46.99051" lon="8.80622">
        <ele>1090</ele>
        <time>2021-08-04T08:50:17.860Z</time>
      </trkpt>
      <trkpt lat="46.99051" lon="8.80622">
        <ele>1091</ele>
        <time>2021-08-04T08:50:18.860Z</time>
      </trkpt>
      <trkpt lat="46.99052" lon="8.80621">
        <ele>1091</ele>
        <time>2021-08-04T08:50:19.860Z</time>
      </trkpt>
      <trkpt lat="46.99053" lon="8.8062">
        <ele>1091</ele>
        <time>2021-08-04T08:50:20.859Z</time>
      </trkpt>
      <trkpt lat="46.99054" lon="8.8062">
        <ele>1092</ele>
        <time>2021-08-04T08:50:21.860Z</time>
      </trkpt>
      <trkpt lat="46.99055" lon="8.80619">
        <ele>1092</ele>
        <time>2021-08-04T08:50:22.859Z</time>
      </trkpt>
      <trkpt lat="46.99056" lon="8.80618">
        <ele>1092</ele>
        <time>2021-08-04T08:50:23.860Z</time>
      </trkpt>
      <trkpt lat="46.99057" lon="8.80618">
        <ele>1092</ele>
        <time>2021-08-04T08:50:24.860Z</time>
      </trkpt>
      <trkpt lat="46.99058" lon="8.80617">
        <ele>1092</ele>
        <time>2021-08-04T08:50:25.860Z</time>
      </trkpt>
      <trkpt lat="46.9906" lon="8.80616">
        <ele>1093</ele>
        <time>2021-08-04T08:50:26.859Z</time>
      </trkpt>
      <trkpt lat="46.99061" lon="8.80615">
        <ele>1093</ele>
        <time>2021-08-04T08:50:27.860Z</time>
      </trkpt>
      <trkpt lat="46.99061" lon="8.80614">
        <ele>1093</ele>
        <time>2021-08-04T08:50:28.860Z</time>
      </trkpt>
      <trkpt lat="46.99062" lon="8.80614">
        <ele>1094</ele>
        <time>2021-08-04T08:50:29.859Z</time>
      </trkpt>
      <trkpt lat="46.99062" lon="8.80613">
        <ele>1095</ele>
        <time>2021-08-04T08:50:30.860Z</time>
      </trkpt>
      <trkpt lat="46.99062" lon="8.80612">
        <ele>1095</ele>
        <time>2021-08-04T08:50:31.860Z</time>
      </trkpt>
      <trkpt lat="46.99062" lon="8.80611">
        <ele>1095</ele>
        <time>2021-08-04T08:50:32.860Z</time>
      </trkpt>
      <trkpt lat="46.99062" lon="8.8061">
        <ele>1095</ele>
        <time>2021-08-04T08:50:33.859Z</time>
      </trkpt>
      <trkpt lat="46.99062" lon="8.8061">
        <ele>1096</ele>
        <time>2021-08-04T08:50:34.859Z</time>
      </trkpt>
      <trkpt lat="46.99062" lon="8.8061">
        <ele>1096</ele>
        <time>2021-08-04T08:50:35.860Z</time>
      </trkpt>
      <trkpt lat="46.99062" lon="8.8061">
        <ele>1096</ele>
        <time>2021-08-04T08:50:36.860Z</time>
      </trkpt>
      <trkpt lat="46.99063" lon="8.80608">
        <ele>1094</ele>
        <time>2021-08-04T08:50:37.860Z</time>
      </trkpt>
      <trkpt lat="46.99063" lon="8.80607">
        <ele>1093</ele>
        <time>2021-08-04T08:50:38.860Z</time>
      </trkpt>
      <trkpt lat="46.99063" lon="8.80606">
        <ele>1093</ele>
        <time>2021-08-04T08:50:39.860Z</time>
      </trkpt>
      <trkpt lat="46.99063" lon="8.80605">
        <ele>1093</ele>
        <time>2021-08-04T08:50:40.861Z</time>
      </trkpt>
      <trkpt lat="46.99065" lon="8.80604">
        <ele>1093</ele>
        <time>2021-08-04T08:50:41.861Z</time>
      </trkpt>
      <trkpt lat="46.99067" lon="8.80603">
        <ele>1092</ele>
        <time>2021-08-04T08:50:42.860Z</time>
      </trkpt>
      <trkpt lat="46.99068" lon="8.80602">
        <ele>1092</ele>
        <time>2021-08-04T08:50:43.861Z</time>
      </trkpt>
      <trkpt lat="46.99068" lon="8.80602">
        <ele>1092</ele>
        <time>2021-08-04T08:50:44.861Z</time>
      </trkpt>
      <trkpt lat="46.99069" lon="8.80601">
        <ele>1092</ele>
        <time>2021-08-04T08:50:45.860Z</time>
      </trkpt>
      <trkpt lat="46.99069" lon="8.806">
        <ele>1092</ele>
        <time>2021-08-04T08:50:46.861Z</time>
      </trkpt>
      <trkpt lat="46.9907" lon="8.80599">
        <ele>1092</ele>
        <time>2021-08-04T08:50:47.861Z</time>
      </trkpt>
      <trkpt lat="46.9907" lon="8.80598">
        <ele>1092</ele>
        <time>2021-08-04T08:50:48.861Z</time>
      </trkpt>
      <trkpt lat="46.9907" lon="8.80597">
        <ele>1092</ele>
        <time>2021-08-04T08:50:49.861Z</time>
      </trkpt>
      <trkpt lat="46.99071" lon="8.80596">
        <ele>1091</ele>
        <time>2021-08-04T08:50:50.861Z</time>
      </trkpt>
      <trkpt lat="46.99071" lon="8.80596">
        <ele>1091</ele>
        <time>2021-08-04T08:50:51.860Z</time>
      </trkpt>
      <trkpt lat="46.99071" lon="8.80595">
        <ele>1090</ele>
        <time>2021-08-04T08:50:52.860Z</time>
      </trkpt>
      <trkpt lat="46.99072" lon="8.80594">
        <ele>1090</ele>
        <time>2021-08-04T08:50:53.861Z</time>
      </trkpt>
      <trkpt lat="46.99072" lon="8.80593">
        <ele>1090</ele>
        <time>2021-08-04T08:50:54.860Z</time>
      </trkpt>
      <trkpt lat="46.99073" lon="8.80592">
        <ele>1090</ele>
        <time>2021-08-04T08:50:55.861Z</time>
      </trkpt>
      <trkpt lat="46.99073" lon="8.80591">
        <ele>1091</ele>
        <time>2021-08-04T08:50:56.861Z</time>
      </trkpt>
      <trkpt lat="46.99073" lon="8.8059">
        <ele>1091</ele>
        <time>2021-08-04T08:50:57.860Z</time>
      </trkpt>
      <trkpt lat="46.99074" lon="8.8059">
        <ele>1091</ele>
        <time>2021-08-04T08:50:58.861Z</time>
      </trkpt>
      <trkpt lat="46.99074" lon="8.80589">
        <ele>1091</ele>
        <time>2021-08-04T08:50:59.861Z</time>
      </trkpt>
      <trkpt lat="46.99074" lon="8.80587">
        <ele>1091</ele>
        <time>2021-08-04T08:51:00.861Z</time>
      </trkpt>
      <trkpt lat="46.99074" lon="8.80585">
        <ele>1091</ele>
        <time>2021-08-04T08:51:01.860Z</time>
      </trkpt>
      <trkpt lat="46.99074" lon="8.80584">
        <ele>1091</ele>
        <time>2021-08-04T08:51:02.861Z</time>
      </trkpt>
      <trkpt lat="46.99074" lon="8.80583">
        <ele>1091</ele>
        <time>2021-08-04T08:51:03.861Z</time>
      </trkpt>
      <trkpt lat="46.99074" lon="8.80581">
        <ele>1091</ele>
        <time>2021-08-04T08:51:04.861Z</time>
      </trkpt>
      <trkpt lat="46.99075" lon="8.8058">
        <ele>1091</ele>
        <time>2021-08-04T08:51:05.861Z</time>
      </trkpt>
      <trkpt lat="46.99075" lon="8.80578">
        <ele>1091</ele>
        <time>2021-08-04T08:51:06.861Z</time>
      </trkpt>
      <trkpt lat="46.99076" lon="8.80577">
        <ele>1091</ele>
        <time>2021-08-04T08:51:07.861Z</time>
      </trkpt>
      <trkpt lat="46.99076" lon="8.80576">
        <ele>1091</ele>
        <time>2021-08-04T08:51:08.860Z</time>
      </trkpt>
      <trkpt lat="46.99076" lon="8.80575">
        <ele>1091</ele>
        <time>2021-08-04T08:51:09.861Z</time>
      </trkpt>
      <trkpt lat="46.99077" lon="8.80574">
        <ele>1091</ele>
        <time>2021-08-04T08:51:10.861Z</time>
      </trkpt>
      <trkpt lat="46.99077" lon="8.80572">
        <ele>1091</ele>
        <time>2021-08-04T08:51:11.861Z</time>
      </trkpt>
      <trkpt lat="46.99078" lon="8.80571">
        <ele>1091</ele>
        <time>2021-08-04T08:51:12.861Z</time>
      </trkpt>
      <trkpt lat="46.99078" lon="8.80569">
        <ele>1091</ele>
        <time>2021-08-04T08:51:13.860Z</time>
      </trkpt>
      <trkpt lat="46.99078" lon="8.80568">
        <ele>1092</ele>
        <time>2021-08-04T08:51:14.861Z</time>
      </trkpt>
      <trkpt lat="46.99078" lon="8.80567">
        <ele>1092</ele>
        <time>2021-08-04T08:51:15.861Z</time>
      </trkpt>
      <trkpt lat="46.99078" lon="8.80566">
        <ele>1092</ele>
        <time>2021-08-04T08:51:16.861Z</time>
      </trkpt>
      <trkpt lat="46.99079" lon="8.80566">
        <ele>1092</ele>
        <time>2021-08-04T08:51:17.861Z</time>
      </trkpt>
      <trkpt lat="46.99079" lon="8.80565">
        <ele>1092</ele>
        <time>2021-08-04T08:51:18.861Z</time>
      </trkpt>
      <trkpt lat="46.9908" lon="8.80565">
        <ele>1092</ele>
        <time>2021-08-04T08:51:19.860Z</time>
      </trkpt>
      <trkpt lat="46.9908" lon="8.80564">
        <ele>1093</ele>
        <time>2021-08-04T08:51:20.860Z</time>
      </trkpt>
      <trkpt lat="46.99081" lon="8.80563">
        <ele>1093</ele>
        <time>2021-08-04T08:51:21.861Z</time>
      </trkpt>
      <trkpt lat="46.99081" lon="8.80562">
        <ele>1093</ele>
        <time>2021-08-04T08:51:22.861Z</time>
      </trkpt>
      <trkpt lat="46.99082" lon="8.80561">
        <ele>1093</ele>
        <time>2021-08-04T08:51:23.861Z</time>
      </trkpt>
      <trkpt lat="46.99082" lon="8.8056">
        <ele>1093</ele>
        <time>2021-08-04T08:51:24.861Z</time>
      </trkpt>
      <trkpt lat="46.99083" lon="8.80558">
        <ele>1093</ele>
        <time>2021-08-04T08:51:25.860Z</time>
      </trkpt>
      <trkpt lat="46.99083" lon="8.80556">
        <ele>1094</ele>
        <time>2021-08-04T08:51:26.861Z</time>
      </trkpt>
      <trkpt lat="46.99083" lon="8.80554">
        <ele>1094</ele>
        <time>2021-08-04T08:51:27.860Z</time>
      </trkpt>
      <trkpt lat="46.99084" lon="8.80552">
        <ele>1094</ele>
        <time>2021-08-04T08:51:28.860Z</time>
      </trkpt>
      <trkpt lat="46.99084" lon="8.80551">
        <ele>1095</ele>
        <time>2021-08-04T08:51:29.860Z</time>
      </trkpt>
      <trkpt lat="46.99084" lon="8.8055">
        <ele>1095</ele>
        <time>2021-08-04T08:51:30.860Z</time>
      </trkpt>
      <trkpt lat="46.99084" lon="8.80547">
        <ele>1095</ele>
        <time>2021-08-04T08:51:31.861Z</time>
      </trkpt>
      <trkpt lat="46.99083" lon="8.80545">
        <ele>1095</ele>
        <time>2021-08-04T08:51:32.860Z</time>
      </trkpt>
      <trkpt lat="46.99083" lon="8.80543">
        <ele>1095</ele>
        <time>2021-08-04T08:51:33.860Z</time>
      </trkpt>
      <trkpt lat="46.99083" lon="8.80542">
        <ele>1095</ele>
        <time>2021-08-04T08:51:34.860Z</time>
      </trkpt>
      <trkpt lat="46.99083" lon="8.8054">
        <ele>1095</ele>
        <time>2021-08-04T08:51:35.861Z</time>
      </trkpt>
      <trkpt lat="46.99083" lon="8.80539">
        <ele>1095</ele>
        <time>2021-08-04T08:51:36.860Z</time>
      </trkpt>
      <trkpt lat="46.99083" lon="8.80537">
        <ele>1096</ele>
        <time>2021-08-04T08:51:37.860Z</time>
      </trkpt>
      <trkpt lat="46.99083" lon="8.80535">
        <ele>1096</ele>
        <time>2021-08-04T08:51:38.861Z</time>
      </trkpt>
      <trkpt lat="46.99083" lon="8.80533">
        <ele>1096</ele>
        <time>2021-08-04T08:51:39.860Z</time>
      </trkpt>
      <trkpt lat="46.99083" lon="8.80532">
        <ele>1097</ele>
        <time>2021-08-04T08:51:40.860Z</time>
      </trkpt>
      <trkpt lat="46.99082" lon="8.80532">
        <ele>1097</ele>
        <time>2021-08-04T08:51:41.860Z</time>
      </trkpt>
      <trkpt lat="46.99081" lon="8.80529">
        <ele>1097</ele>
        <time>2021-08-04T08:51:42.860Z</time>
      </trkpt>
      <trkpt lat="46.99081" lon="8.80527">
        <ele>1097</ele>
        <time>2021-08-04T08:51:43.861Z</time>
      </trkpt>
      <trkpt lat="46.9908" lon="8.80526">
        <ele>1097</ele>
        <time>2021-08-04T08:51:44.860Z</time>
      </trkpt>
      <trkpt lat="46.9908" lon="8.80523">
        <ele>1097</ele>
        <time>2021-08-04T08:51:45.860Z</time>
      </trkpt>
      <trkpt lat="46.9908" lon="8.80521">
        <ele>1097</ele>
        <time>2021-08-04T08:51:46.860Z</time>
      </trkpt>
      <trkpt lat="46.99079" lon="8.8052">
        <ele>1097</ele>
        <time>2021-08-04T08:51:47.860Z</time>
      </trkpt>
      <trkpt lat="46.99079" lon="8.80519">
        <ele>1097</ele>
        <time>2021-08-04T08:51:48.860Z</time>
      </trkpt>
      <trkpt lat="46.99079" lon="8.80517">
        <ele>1097</ele>
        <time>2021-08-04T08:51:49.860Z</time>
      </trkpt>
      <trkpt lat="46.99078" lon="8.80517">
        <ele>1097</ele>
        <time>2021-08-04T08:51:50.860Z</time>
      </trkpt>
      <trkpt lat="46.99077" lon="8.80516">
        <ele>1097</ele>
        <time>2021-08-04T08:51:51.860Z</time>
      </trkpt>
      <trkpt lat="46.99076" lon="8.80516">
        <ele>1097</ele>
        <time>2021-08-04T08:51:52.860Z</time>
      </trkpt>
      <trkpt lat="46.99075" lon="8.80515">
        <ele>1096</ele>
        <time>2021-08-04T08:51:53.860Z</time>
      </trkpt>
      <trkpt lat="46.99075" lon="8.80514">
        <ele>1096</ele>
        <time>2021-08-04T08:51:54.860Z</time>
      </trkpt>
      <trkpt lat="46.99074" lon="8.80514">
        <ele>1095</ele>
        <time>2021-08-04T08:51:55.861Z</time>
      </trkpt>
      <trkpt lat="46.99073" lon="8.80512">
        <ele>1095</ele>
        <time>2021-08-04T08:51:56.861Z</time>
      </trkpt>
      <trkpt lat="46.99072" lon="8.80511">
        <ele>1095</ele>
        <time>2021-08-04T08:51:57.860Z</time>
      </trkpt>
      <trkpt lat="46.99071" lon="8.80509">
        <ele>1094</ele>
        <time>2021-08-04T08:51:58.861Z</time>
      </trkpt>
      <trkpt lat="46.99071" lon="8.80508">
        <ele>1094</ele>
        <time>2021-08-04T08:51:59.861Z</time>
      </trkpt>
      <trkpt lat="46.99071" lon="8.80507">
        <ele>1093</ele>
        <time>2021-08-04T08:52:00.861Z</time>
      </trkpt>
      <trkpt lat="46.99071" lon="8.80506">
        <ele>1092</ele>
        <time>2021-08-04T08:52:01.861Z</time>
      </trkpt>
      <trkpt lat="46.99071" lon="8.80504">
        <ele>1091</ele>
        <time>2021-08-04T08:52:02.861Z</time>
      </trkpt>
      <trkpt lat="46.99071" lon="8.80502">
        <ele>1090</ele>
        <time>2021-08-04T08:52:03.860Z</time>
      </trkpt>
      <trkpt lat="46.9907" lon="8.80501">
        <ele>1089</ele>
        <time>2021-08-04T08:52:04.861Z</time>
      </trkpt>
      <trkpt lat="46.9907" lon="8.80499">
        <ele>1088</ele>
        <time>2021-08-04T08:52:05.861Z</time>
      </trkpt>
      <trkpt lat="46.9907" lon="8.80497">
        <ele>1088</ele>
        <time>2021-08-04T08:52:06.861Z</time>
      </trkpt>
      <trkpt lat="46.99069" lon="8.80497">
        <ele>1087</ele>
        <time>2021-08-04T08:52:07.860Z</time>
      </trkpt>
      <trkpt lat="46.99068" lon="8.80496">
        <ele>1086</ele>
        <time>2021-08-04T08:52:08.861Z</time>
      </trkpt>
      <trkpt lat="46.99068" lon="8.80495">
        <ele>1086</ele>
        <time>2021-08-04T08:52:09.860Z</time>
      </trkpt>
      <trkpt lat="46.99067" lon="8.80494">
        <ele>1085</ele>
        <time>2021-08-04T08:52:10.861Z</time>
      </trkpt>
      <trkpt lat="46.99067" lon="8.80494">
        <ele>1085</ele>
        <time>2021-08-04T08:52:11.860Z</time>
      </trkpt>
      <trkpt lat="46.99067" lon="8.80493">
        <ele>1084</ele>
        <time>2021-08-04T08:52:12.861Z</time>
      </trkpt>
      <trkpt lat="46.99066" lon="8.80493">
        <ele>1084</ele>
        <time>2021-08-04T08:52:13.860Z</time>
      </trkpt>
      <trkpt lat="46.99066" lon="8.80492">
        <ele>1084</ele>
        <time>2021-08-04T08:52:14.861Z</time>
      </trkpt>
      <trkpt lat="46.99065" lon="8.80492">
        <ele>1084</ele>
        <time>2021-08-04T08:52:15.860Z</time>
      </trkpt>
      <trkpt lat="46.99064" lon="8.80492">
        <ele>1084</ele>
        <time>2021-08-04T08:52:16.860Z</time>
      </trkpt>
      <trkpt lat="46.99063" lon="8.80491">
        <ele>1084</ele>
        <time>2021-08-04T08:52:17.861Z</time>
      </trkpt>
      <trkpt lat="46.99062" lon="8.8049">
        <ele>1084</ele>
        <time>2021-08-04T08:52:18.860Z</time>
      </trkpt>
      <trkpt lat="46.99061" lon="8.8049">
        <ele>1084</ele>
        <time>2021-08-04T08:52:19.861Z</time>
      </trkpt>
      <trkpt lat="46.99061" lon="8.80489">
        <ele>1084</ele>
        <time>2021-08-04T08:52:20.861Z</time>
      </trkpt>
      <trkpt lat="46.9906" lon="8.80487">
        <ele>1084</ele>
        <time>2021-08-04T08:52:21.861Z</time>
      </trkpt>
      <trkpt lat="46.9906" lon="8.80486">
        <ele>1084</ele>
        <time>2021-08-04T08:52:22.861Z</time>
      </trkpt>
      <trkpt lat="46.99059" lon="8.80485">
        <ele>1085</ele>
        <time>2021-08-04T08:52:23.860Z</time>
      </trkpt>
      <trkpt lat="46.99059" lon="8.80483">
        <ele>1085</ele>
        <time>2021-08-04T08:52:24.860Z</time>
      </trkpt>
      <trkpt lat="46.99059" lon="8.80482">
        <ele>1085</ele>
        <time>2021-08-04T08:52:25.860Z</time>
      </trkpt>
      <trkpt lat="46.99059" lon="8.8048">
        <ele>1085</ele>
        <time>2021-08-04T08:52:26.860Z</time>
      </trkpt>
      <trkpt lat="46.99058" lon="8.80478">
        <ele>1085</ele>
        <time>2021-08-04T08:52:27.860Z</time>
      </trkpt>
      <trkpt lat="46.99058" lon="8.80475">
        <ele>1085</ele>
        <time>2021-08-04T08:52:28.861Z</time>
      </trkpt>
      <trkpt lat="46.99058" lon="8.80473">
        <ele>1085</ele>
        <time>2021-08-04T08:52:29.861Z</time>
      </trkpt>
      <trkpt lat="46.99057" lon="8.80471">
        <ele>1086</ele>
        <time>2021-08-04T08:52:30.861Z</time>
      </trkpt>
      <trkpt lat="46.99057" lon="8.80469">
        <ele>1086</ele>
        <time>2021-08-04T08:52:31.861Z</time>
      </trkpt>
      <trkpt lat="46.99057" lon="8.80467">
        <ele>1087</ele>
        <time>2021-08-04T08:52:32.860Z</time>
      </trkpt>
      <trkpt lat="46.99057" lon="8.80466">
        <ele>1087</ele>
        <time>2021-08-04T08:52:33.861Z</time>
      </trkpt>
      <trkpt lat="46.99057" lon="8.80465">
        <ele>1088</ele>
        <time>2021-08-04T08:52:34.860Z</time>
      </trkpt>
      <trkpt lat="46.99056" lon="8.80463">
        <ele>1089</ele>
        <time>2021-08-04T08:52:35.861Z</time>
      </trkpt>
      <trkpt lat="46.99056" lon="8.80462">
        <ele>1090</ele>
        <time>2021-08-04T08:52:36.861Z</time>
      </trkpt>
      <trkpt lat="46.99056" lon="8.80461">
        <ele>1090</ele>
        <time>2021-08-04T08:52:37.861Z</time>
      </trkpt>
      <trkpt lat="46.99056" lon="8.8046">
        <ele>1091</ele>
        <time>2021-08-04T08:52:38.860Z</time>
      </trkpt>
      <trkpt lat="46.99056" lon="8.80459">
        <ele>1092</ele>
        <time>2021-08-04T08:52:39.861Z</time>
      </trkpt>
      <trkpt lat="46.99056" lon="8.80458">
        <ele>1092</ele>
        <time>2021-08-04T08:52:40.861Z</time>
      </trkpt>
      <trkpt lat="46.99055" lon="8.80457">
        <ele>1093</ele>
        <time>2021-08-04T08:52:41.861Z</time>
      </trkpt>
      <trkpt lat="46.99055" lon="8.80456">
        <ele>1093</ele>
        <time>2021-08-04T08:52:42.860Z</time>
      </trkpt>
      <trkpt lat="46.99055" lon="8.80454">
        <ele>1094</ele>
        <time>2021-08-04T08:52:43.861Z</time>
      </trkpt>
      <trkpt lat="46.99055" lon="8.80451">
        <ele>1094</ele>
        <time>2021-08-04T08:52:44.860Z</time>
      </trkpt>
      <trkpt lat="46.99055" lon="8.80448">
        <ele>1095</ele>
        <time>2021-08-04T08:52:45.861Z</time>
      </trkpt>
      <trkpt lat="46.99056" lon="8.80446">
        <ele>1095</ele>
        <time>2021-08-04T08:52:46.861Z</time>
      </trkpt>
      <trkpt lat="46.99056" lon="8.80444">
        <ele>1096</ele>
        <time>2021-08-04T08:52:47.861Z</time>
      </trkpt>
      <trkpt lat="46.99056" lon="8.80441">
        <ele>1097</ele>
        <time>2021-08-04T08:52:48.861Z</time>
      </trkpt>
      <trkpt lat="46.99056" lon="8.80438">
        <ele>1098</ele>
        <time>2021-08-04T08:52:49.861Z</time>
      </trkpt>
      <trkpt lat="46.99056" lon="8.80436">
        <ele>1098</ele>
        <time>2021-08-04T08:52:50.860Z</time>
      </trkpt>
      <trkpt lat="46.99056" lon="8.80434">
        <ele>1098</ele>
        <time>2021-08-04T08:52:51.861Z</time>
      </trkpt>
      <trkpt lat="46.99056" lon="8.80432">
        <ele>1099</ele>
        <time>2021-08-04T08:52:52.861Z</time>
      </trkpt>
      <trkpt lat="46.99056" lon="8.80431">
        <ele>1099</ele>
        <time>2021-08-04T08:52:53.861Z</time>
      </trkpt>
      <trkpt lat="46.99056" lon="8.80429">
        <ele>1100</ele>
        <time>2021-08-04T08:52:54.861Z</time>
      </trkpt>
      <trkpt lat="46.99056" lon="8.80428">
        <ele>1100</ele>
        <time>2021-08-04T08:52:55.861Z</time>
      </trkpt>
      <trkpt lat="46.99056" lon="8.80427">
        <ele>1100</ele>
        <time>2021-08-04T08:52:56.860Z</time>
      </trkpt>
      <trkpt lat="46.99056" lon="8.80425">
        <ele>1100</ele>
        <time>2021-08-04T08:52:57.861Z</time>
      </trkpt>
      <trkpt lat="46.99056" lon="8.80424">
        <ele>1099</ele>
        <time>2021-08-04T08:52:58.861Z</time>
      </trkpt>
      <trkpt lat="46.99055" lon="8.80422">
        <ele>1099</ele>
        <time>2021-08-04T08:52:59.861Z</time>
      </trkpt>
      <trkpt lat="46.99054" lon="8.80419">
        <ele>1098</ele>
        <time>2021-08-04T08:53:00.861Z</time>
      </trkpt>
      <trkpt lat="46.99054" lon="8.80417">
        <ele>1098</ele>
        <time>2021-08-04T08:53:01.860Z</time>
      </trkpt>
      <trkpt lat="46.99053" lon="8.80415">
        <ele>1098</ele>
        <time>2021-08-04T08:53:02.860Z</time>
      </trkpt>
      <trkpt lat="46.99052" lon="8.80414">
        <ele>1097</ele>
        <time>2021-08-04T08:53:03.861Z</time>
      </trkpt>
      <trkpt lat="46.99052" lon="8.80412">
        <ele>1097</ele>
        <time>2021-08-04T08:53:04.860Z</time>
      </trkpt>
      <trkpt lat="46.99051" lon="8.80411">
        <ele>1096</ele>
        <time>2021-08-04T08:53:05.861Z</time>
      </trkpt>
      <trkpt lat="46.99051" lon="8.8041">
        <ele>1096</ele>
        <time>2021-08-04T08:53:06.860Z</time>
      </trkpt>
      <trkpt lat="46.9905" lon="8.80408">
        <ele>1096</ele>
        <time>2021-08-04T08:53:07.860Z</time>
      </trkpt>
      <trkpt lat="46.99049" lon="8.80407">
        <ele>1095</ele>
        <time>2021-08-04T08:53:08.861Z</time>
      </trkpt>
      <trkpt lat="46.99049" lon="8.80406">
        <ele>1095</ele>
        <time>2021-08-04T08:53:09.860Z</time>
      </trkpt>
      <trkpt lat="46.99048" lon="8.80405">
        <ele>1094</ele>
        <time>2021-08-04T08:53:10.861Z</time>
      </trkpt>
      <trkpt lat="46.99047" lon="8.80404">
        <ele>1093</ele>
        <time>2021-08-04T08:53:11.860Z</time>
      </trkpt>
      <trkpt lat="46.99046" lon="8.80403">
        <ele>1093</ele>
        <time>2021-08-04T08:53:12.861Z</time>
      </trkpt>
      <trkpt lat="46.99046" lon="8.80401">
        <ele>1092</ele>
        <time>2021-08-04T08:53:13.860Z</time>
      </trkpt>
      <trkpt lat="46.99045" lon="8.804">
        <ele>1092</ele>
        <time>2021-08-04T08:53:14.860Z</time>
      </trkpt>
      <trkpt lat="46.99045" lon="8.80398">
        <ele>1091</ele>
        <time>2021-08-04T08:53:15.860Z</time>
      </trkpt>
      <trkpt lat="46.99044" lon="8.80397">
        <ele>1091</ele>
        <time>2021-08-04T08:53:16.861Z</time>
      </trkpt>
      <trkpt lat="46.99043" lon="8.80395">
        <ele>1090</ele>
        <time>2021-08-04T08:53:17.861Z</time>
      </trkpt>
      <trkpt lat="46.99043" lon="8.80394">
        <ele>1090</ele>
        <time>2021-08-04T08:53:18.860Z</time>
      </trkpt>
      <trkpt lat="46.99043" lon="8.80393">
        <ele>1090</ele>
        <time>2021-08-04T08:53:19.861Z</time>
      </trkpt>
      <trkpt lat="46.99042" lon="8.80392">
        <ele>1089</ele>
        <time>2021-08-04T08:53:20.861Z</time>
      </trkpt>
      <trkpt lat="46.99042" lon="8.80391">
        <ele>1088</ele>
        <time>2021-08-04T08:53:21.861Z</time>
      </trkpt>
      <trkpt lat="46.99041" lon="8.80389">
        <ele>1088</ele>
        <time>2021-08-04T08:53:22.861Z</time>
      </trkpt>
      <trkpt lat="46.99041" lon="8.80388">
        <ele>1088</ele>
        <time>2021-08-04T08:53:23.860Z</time>
      </trkpt>
      <trkpt lat="46.9904" lon="8.80387">
        <ele>1087</ele>
        <time>2021-08-04T08:53:24.861Z</time>
      </trkpt>
      <trkpt lat="46.99039" lon="8.80385">
        <ele>1087</ele>
        <time>2021-08-04T08:53:25.860Z</time>
      </trkpt>
      <trkpt lat="46.99038" lon="8.80383">
        <ele>1086</ele>
        <time>2021-08-04T08:53:26.861Z</time>
      </trkpt>
      <trkpt lat="46.99038" lon="8.80382">
        <ele>1086</ele>
        <time>2021-08-04T08:53:27.861Z</time>
      </trkpt>
      <trkpt lat="46.99037" lon="8.8038">
        <ele>1085</ele>
        <time>2021-08-04T08:53:28.860Z</time>
      </trkpt>
      <trkpt lat="46.99036" lon="8.80379">
        <ele>1086</ele>
        <time>2021-08-04T08:53:29.861Z</time>
      </trkpt>
      <trkpt lat="46.99036" lon="8.80377">
        <ele>1086</ele>
        <time>2021-08-04T08:53:30.860Z</time>
      </trkpt>
      <trkpt lat="46.99035" lon="8.80375">
        <ele>1086</ele>
        <time>2021-08-04T08:53:31.861Z</time>
      </trkpt>
      <trkpt lat="46.99034" lon="8.80373">
        <ele>1087</ele>
        <time>2021-08-04T08:53:32.861Z</time>
      </trkpt>
      <trkpt lat="46.99033" lon="8.80371">
        <ele>1087</ele>
        <time>2021-08-04T08:53:33.860Z</time>
      </trkpt>
      <trkpt lat="46.99032" lon="8.8037">
        <ele>1087</ele>
        <time>2021-08-04T08:53:34.861Z</time>
      </trkpt>
      <trkpt lat="46.99032" lon="8.80369">
        <ele>1088</ele>
        <time>2021-08-04T08:53:35.860Z</time>
      </trkpt>
      <trkpt lat="46.99031" lon="8.80367">
        <ele>1088</ele>
        <time>2021-08-04T08:53:36.860Z</time>
      </trkpt>
      <trkpt lat="46.9903" lon="8.80366">
        <ele>1089</ele>
        <time>2021-08-04T08:53:37.861Z</time>
      </trkpt>
      <trkpt lat="46.9903" lon="8.80365">
        <ele>1089</ele>
        <time>2021-08-04T08:53:38.861Z</time>
      </trkpt>
      <trkpt lat="46.99029" lon="8.80363">
        <ele>1090</ele>
        <time>2021-08-04T08:53:39.861Z</time>
      </trkpt>
      <trkpt lat="46.99029" lon="8.80363">
        <ele>1090</ele>
        <time>2021-08-04T08:53:40.860Z</time>
      </trkpt>
      <trkpt lat="46.99028" lon="8.80361">
        <ele>1090</ele>
        <time>2021-08-04T08:53:41.861Z</time>
      </trkpt>
      <trkpt lat="46.99028" lon="8.8036">
        <ele>1090</ele>
        <time>2021-08-04T08:53:42.861Z</time>
      </trkpt>
      <trkpt lat="46.99027" lon="8.80359">
        <ele>1090</ele>
        <time>2021-08-04T08:53:43.861Z</time>
      </trkpt>
      <trkpt lat="46.99027" lon="8.80359">
        <ele>1090</ele>
        <time>2021-08-04T08:53:44.861Z</time>
      </trkpt>
      <trkpt lat="46.99026" lon="8.80357">
        <ele>1090</ele>
        <time>2021-08-04T08:53:45.861Z</time>
      </trkpt>
      <trkpt lat="46.99025" lon="8.80355">
        <ele>1090</ele>
        <time>2021-08-04T08:53:46.861Z</time>
      </trkpt>
      <trkpt lat="46.99024" lon="8.80354">
        <ele>1089</ele>
        <time>2021-08-04T08:53:47.861Z</time>
      </trkpt>
      <trkpt lat="46.99024" lon="8.80352">
        <ele>1089</ele>
        <time>2021-08-04T08:53:48.860Z</time>
      </trkpt>
      <trkpt lat="46.99023" lon="8.80351">
        <ele>1088</ele>
        <time>2021-08-04T08:53:49.861Z</time>
      </trkpt>
      <trkpt lat="46.99022" lon="8.80349">
        <ele>1087</ele>
        <time>2021-08-04T08:53:50.861Z</time>
      </trkpt>
      <trkpt lat="46.99021" lon="8.80348">
        <ele>1087</ele>
        <time>2021-08-04T08:53:51.861Z</time>
      </trkpt>
      <trkpt lat="46.9902" lon="8.80346">
        <ele>1086</ele>
        <time>2021-08-04T08:53:52.860Z</time>
      </trkpt>
      <trkpt lat="46.9902" lon="8.80344">
        <ele>1086</ele>
        <time>2021-08-04T08:53:53.860Z</time>
      </trkpt>
      <trkpt lat="46.99019" lon="8.80343">
        <ele>1086</ele>
        <time>2021-08-04T08:53:54.861Z</time>
      </trkpt>
      <trkpt lat="46.99018" lon="8.80341">
        <ele>1086</ele>
        <time>2021-08-04T08:53:55.861Z</time>
      </trkpt>
      <trkpt lat="46.99018" lon="8.80339">
        <ele>1086</ele>
        <time>2021-08-04T08:53:56.861Z</time>
      </trkpt>
      <trkpt lat="46.99017" lon="8.80338">
        <ele>1085</ele>
        <time>2021-08-04T08:53:57.861Z</time>
      </trkpt>
      <trkpt lat="46.99016" lon="8.80336">
        <ele>1085</ele>
        <time>2021-08-04T08:53:58.861Z</time>
      </trkpt>
      <trkpt lat="46.99016" lon="8.80335">
        <ele>1084</ele>
        <time>2021-08-04T08:53:59.860Z</time>
      </trkpt>
      <trkpt lat="46.99015" lon="8.80334">
        <ele>1084</ele>
        <time>2021-08-04T08:54:00.861Z</time>
      </trkpt>
      <trkpt lat="46.99014" lon="8.80333">
        <ele>1083</ele>
        <time>2021-08-04T08:54:01.860Z</time>
      </trkpt>
      <trkpt lat="46.99013" lon="8.80332">
        <ele>1083</ele>
        <time>2021-08-04T08:54:02.861Z</time>
      </trkpt>
      <trkpt lat="46.99013" lon="8.8033">
        <ele>1083</ele>
        <time>2021-08-04T08:54:03.861Z</time>
      </trkpt>
      <trkpt lat="46.99012" lon="8.8033">
        <ele>1082</ele>
        <time>2021-08-04T08:54:04.861Z</time>
      </trkpt>
      <trkpt lat="46.99011" lon="8.8033">
        <ele>1082</ele>
        <time>2021-08-04T08:54:05.861Z</time>
      </trkpt>
      <trkpt lat="46.99011" lon="8.8033">
        <ele>1081</ele>
        <time>2021-08-04T08:54:06.860Z</time>
      </trkpt>
      <trkpt lat="46.9901" lon="8.8033">
        <ele>1081</ele>
        <time>2021-08-04T08:54:07.861Z</time>
      </trkpt>
      <trkpt lat="46.9901" lon="8.80329">
        <ele>1081</ele>
        <time>2021-08-04T08:54:08.861Z</time>
      </trkpt>
      <trkpt lat="46.9901" lon="8.80328">
        <ele>1082</ele>
        <time>2021-08-04T08:54:09.861Z</time>
      </trkpt>
      <trkpt lat="46.9901" lon="8.80327">
        <ele>1082</ele>
        <time>2021-08-04T08:54:10.861Z</time>
      </trkpt>
      <trkpt lat="46.99009" lon="8.80326">
        <ele>1082</ele>
        <time>2021-08-04T08:54:11.860Z</time>
      </trkpt>
      <trkpt lat="46.99009" lon="8.80324">
        <ele>1082</ele>
        <time>2021-08-04T08:54:12.861Z</time>
      </trkpt>
      <trkpt lat="46.99008" lon="8.80323">
        <ele>1082</ele>
        <time>2021-08-04T08:54:13.860Z</time>
      </trkpt>
      <trkpt lat="46.99008" lon="8.80322">
        <ele>1081</ele>
        <time>2021-08-04T08:54:14.860Z</time>
      </trkpt>
      <trkpt lat="46.99007" lon="8.8032">
        <ele>1081</ele>
        <time>2021-08-04T08:54:15.860Z</time>
      </trkpt>
      <trkpt lat="46.99006" lon="8.80319">
        <ele>1081</ele>
        <time>2021-08-04T08:54:16.860Z</time>
      </trkpt>
      <trkpt lat="46.99006" lon="8.80317">
        <ele>1081</ele>
        <time>2021-08-04T08:54:17.861Z</time>
      </trkpt>
      <trkpt lat="46.99005" lon="8.80316">
        <ele>1082</ele>
        <time>2021-08-04T08:54:18.860Z</time>
      </trkpt>
      <trkpt lat="46.99004" lon="8.80315">
        <ele>1082</ele>
        <time>2021-08-04T08:54:19.861Z</time>
      </trkpt>
      <trkpt lat="46.99004" lon="8.80313">
        <ele>1082</ele>
        <time>2021-08-04T08:54:20.861Z</time>
      </trkpt>
      <trkpt lat="46.99003" lon="8.80312">
        <ele>1082</ele>
        <time>2021-08-04T08:54:21.861Z</time>
      </trkpt>
      <trkpt lat="46.99003" lon="8.80311">
        <ele>1081</ele>
        <time>2021-08-04T08:54:22.861Z</time>
      </trkpt>
      <trkpt lat="46.99002" lon="8.80309">
        <ele>1081</ele>
        <time>2021-08-04T08:54:23.861Z</time>
      </trkpt>
      <trkpt lat="46.99002" lon="8.80308">
        <ele>1081</ele>
        <time>2021-08-04T08:54:24.861Z</time>
      </trkpt>
      <trkpt lat="46.99001" lon="8.80307">
        <ele>1081</ele>
        <time>2021-08-04T08:54:25.861Z</time>
      </trkpt>
      <trkpt lat="46.99" lon="8.80306">
        <ele>1081</ele>
        <time>2021-08-04T08:54:26.861Z</time>
      </trkpt>
      <trkpt lat="46.99" lon="8.80304">
        <ele>1081</ele>
        <time>2021-08-04T08:54:27.861Z</time>
      </trkpt>
      <trkpt lat="46.98999" lon="8.80302">
        <ele>1081</ele>
        <time>2021-08-04T08:54:28.861Z</time>
      </trkpt>
      <trkpt lat="46.98998" lon="8.80301">
        <ele>1081</ele>
        <time>2021-08-04T08:54:29.860Z</time>
      </trkpt>
      <trkpt lat="46.98998" lon="8.80299">
        <ele>1081</ele>
        <time>2021-08-04T08:54:30.861Z</time>
      </trkpt>
      <trkpt lat="46.98997" lon="8.80298">
        <ele>1081</ele>
        <time>2021-08-04T08:54:31.860Z</time>
      </trkpt>
      <trkpt lat="46.98997" lon="8.80296">
        <ele>1080</ele>
        <time>2021-08-04T08:54:32.861Z</time>
      </trkpt>
      <trkpt lat="46.98996" lon="8.80295">
        <ele>1080</ele>
        <time>2021-08-04T08:54:33.860Z</time>
      </trkpt>
      <trkpt lat="46.98995" lon="8.80293">
        <ele>1080</ele>
        <time>2021-08-04T08:54:34.860Z</time>
      </trkpt>
      <trkpt lat="46.98995" lon="8.80291">
        <ele>1080</ele>
        <time>2021-08-04T08:54:35.861Z</time>
      </trkpt>
      <trkpt lat="46.98994" lon="8.80289">
        <ele>1079</ele>
        <time>2021-08-04T08:54:36.860Z</time>
      </trkpt>
      <trkpt lat="46.98994" lon="8.80288">
        <ele>1079</ele>
        <time>2021-08-04T08:54:37.861Z</time>
      </trkpt>
      <trkpt lat="46.98994" lon="8.80286">
        <ele>1078</ele>
        <time>2021-08-04T08:54:38.860Z</time>
      </trkpt>
      <trkpt lat="46.98994" lon="8.80284">
        <ele>1078</ele>
        <time>2021-08-04T08:54:39.860Z</time>
      </trkpt>
      <trkpt lat="46.98994" lon="8.80282">
        <ele>1078</ele>
        <time>2021-08-04T08:54:40.860Z</time>
      </trkpt>
      <trkpt lat="46.98994" lon="8.80281">
        <ele>1078</ele>
        <time>2021-08-04T08:54:41.861Z</time>
      </trkpt>
      <trkpt lat="46.98994" lon="8.80279">
        <ele>1078</ele>
        <time>2021-08-04T08:54:42.860Z</time>
      </trkpt>
      <trkpt lat="46.98994" lon="8.80278">
        <ele>1078</ele>
        <time>2021-08-04T08:54:43.861Z</time>
      </trkpt>
      <trkpt lat="46.98993" lon="8.80276">
        <ele>1078</ele>
        <time>2021-08-04T08:54:44.861Z</time>
      </trkpt>
      <trkpt lat="46.98993" lon="8.80274">
        <ele>1078</ele>
        <time>2021-08-04T08:54:45.861Z</time>
      </trkpt>
      <trkpt lat="46.98993" lon="8.80272">
        <ele>1078</ele>
        <time>2021-08-04T08:54:46.860Z</time>
      </trkpt>
      <trkpt lat="46.98993" lon="8.8027">
        <ele>1077</ele>
        <time>2021-08-04T08:54:47.860Z</time>
      </trkpt>
      <trkpt lat="46.98993" lon="8.80268">
        <ele>1077</ele>
        <time>2021-08-04T08:54:48.861Z</time>
      </trkpt>
      <trkpt lat="46.98992" lon="8.80267">
        <ele>1077</ele>
        <time>2021-08-04T08:54:49.861Z</time>
      </trkpt>
      <trkpt lat="46.98992" lon="8.80265">
        <ele>1076</ele>
        <time>2021-08-04T08:54:50.860Z</time>
      </trkpt>
      <trkpt lat="46.98992" lon="8.80263">
        <ele>1076</ele>
        <time>2021-08-04T08:54:51.861Z</time>
      </trkpt>
      <trkpt lat="46.98992" lon="8.80261">
        <ele>1076</ele>
        <time>2021-08-04T08:54:52.860Z</time>
      </trkpt>
      <trkpt lat="46.98991" lon="8.80258">
        <ele>1076</ele>
        <time>2021-08-04T08:54:53.860Z</time>
      </trkpt>
      <trkpt lat="46.98991" lon="8.80256">
        <ele>1076</ele>
        <time>2021-08-04T08:54:54.861Z</time>
      </trkpt>
      <trkpt lat="46.98991" lon="8.80254">
        <ele>1075</ele>
        <time>2021-08-04T08:54:55.861Z</time>
      </trkpt>
      <trkpt lat="46.98991" lon="8.80253">
        <ele>1075</ele>
        <time>2021-08-04T08:54:56.861Z</time>
      </trkpt>
      <trkpt lat="46.98991" lon="8.8025">
        <ele>1076</ele>
        <time>2021-08-04T08:54:57.861Z</time>
      </trkpt>
      <trkpt lat="46.98991" lon="8.80248">
        <ele>1076</ele>
        <time>2021-08-04T08:54:58.861Z</time>
      </trkpt>
      <trkpt lat="46.98991" lon="8.80246">
        <ele>1076</ele>
        <time>2021-08-04T08:54:59.861Z</time>
      </trkpt>
      <trkpt lat="46.98992" lon="8.80245">
        <ele>1076</ele>
        <time>2021-08-04T08:55:00.861Z</time>
      </trkpt>
      <trkpt lat="46.98992" lon="8.80243">
        <ele>1076</ele>
        <time>2021-08-04T08:55:01.861Z</time>
      </trkpt>
      <trkpt lat="46.98992" lon="8.80241">
        <ele>1075</ele>
        <time>2021-08-04T08:55:02.861Z</time>
      </trkpt>
      <trkpt lat="46.98992" lon="8.80239">
        <ele>1075</ele>
        <time>2021-08-04T08:55:03.860Z</time>
      </trkpt>
      <trkpt lat="46.98992" lon="8.80238">
        <ele>1074</ele>
        <time>2021-08-04T08:55:04.861Z</time>
      </trkpt>
      <trkpt lat="46.98992" lon="8.80236">
        <ele>1074</ele>
        <time>2021-08-04T08:55:05.860Z</time>
      </trkpt>
      <trkpt lat="46.98992" lon="8.80233">
        <ele>1074</ele>
        <time>2021-08-04T08:55:06.861Z</time>
      </trkpt>
      <trkpt lat="46.98993" lon="8.80231">
        <ele>1075</ele>
        <time>2021-08-04T08:55:07.861Z</time>
      </trkpt>
      <trkpt lat="46.98994" lon="8.8023">
        <ele>1075</ele>
        <time>2021-08-04T08:55:08.861Z</time>
      </trkpt>
      <trkpt lat="46.98994" lon="8.80228">
        <ele>1075</ele>
        <time>2021-08-04T08:55:09.861Z</time>
      </trkpt>
      <trkpt lat="46.98994" lon="8.80227">
        <ele>1074</ele>
        <time>2021-08-04T08:55:10.861Z</time>
      </trkpt>
      <trkpt lat="46.98994" lon="8.80226">
        <ele>1074</ele>
        <time>2021-08-04T08:55:11.861Z</time>
      </trkpt>
      <trkpt lat="46.98994" lon="8.80226">
        <ele>1074</ele>
        <time>2021-08-04T08:55:12.861Z</time>
      </trkpt>
      <trkpt lat="46.98994" lon="8.80225">
        <ele>1073</ele>
        <time>2021-08-04T08:55:13.861Z</time>
      </trkpt>
      <trkpt lat="46.98994" lon="8.80224">
        <ele>1073</ele>
        <time>2021-08-04T08:55:14.861Z</time>
      </trkpt>
      <trkpt lat="46.98994" lon="8.80223">
        <ele>1073</ele>
        <time>2021-08-04T08:55:15.860Z</time>
      </trkpt>
      <trkpt lat="46.98994" lon="8.80223">
        <ele>1073</ele>
        <time>2021-08-04T08:55:16.861Z</time>
      </trkpt>
      <trkpt lat="46.98993" lon="8.80221">
        <ele>1073</ele>
        <time>2021-08-04T08:55:17.860Z</time>
      </trkpt>
      <trkpt lat="46.98993" lon="8.80221">
        <ele>1073</ele>
        <time>2021-08-04T08:55:18.861Z</time>
      </trkpt>
      <trkpt lat="46.98992" lon="8.8022">
        <ele>1073</ele>
        <time>2021-08-04T08:55:19.861Z</time>
      </trkpt>
      <trkpt lat="46.98992" lon="8.80219">
        <ele>1073</ele>
        <time>2021-08-04T08:55:20.861Z</time>
      </trkpt>
      <trkpt lat="46.98992" lon="8.80219">
        <ele>1073</ele>
        <time>2021-08-04T08:55:21.861Z</time>
      </trkpt>
      <trkpt lat="46.98992" lon="8.80218">
        <ele>1072</ele>
        <time>2021-08-04T08:55:22.860Z</time>
      </trkpt>
      <trkpt lat="46.98991" lon="8.80218">
        <ele>1072</ele>
        <time>2021-08-04T08:55:23.861Z</time>
      </trkpt>
      <trkpt lat="46.9899" lon="8.80218">
        <ele>1071</ele>
        <time>2021-08-04T08:55:24.860Z</time>
      </trkpt>
      <trkpt lat="46.9899" lon="8.80217">
        <ele>1071</ele>
        <time>2021-08-04T08:55:25.861Z</time>
      </trkpt>
      <trkpt lat="46.9899" lon="8.80217">
        <ele>1071</ele>
        <time>2021-08-04T08:55:26.861Z</time>
      </trkpt>
      <trkpt lat="46.9899" lon="8.80216">
        <ele>1071</ele>
        <time>2021-08-04T08:55:27.861Z</time>
      </trkpt>
      <trkpt lat="46.98989" lon="8.80215">
        <ele>1070</ele>
        <time>2021-08-04T08:55:28.860Z</time>
      </trkpt>
      <trkpt lat="46.98989" lon="8.80214">
        <ele>1070</ele>
        <time>2021-08-04T08:55:29.861Z</time>
      </trkpt>
      <trkpt lat="46.9899" lon="8.80213">
        <ele>1070</ele>
        <time>2021-08-04T08:55:30.861Z</time>
      </trkpt>
      <trkpt lat="46.98991" lon="8.80213">
        <ele>1070</ele>
        <time>2021-08-04T08:55:31.860Z</time>
      </trkpt>
      <trkpt lat="46.98992" lon="8.80213">
        <ele>1070</ele>
        <time>2021-08-04T08:55:32.861Z</time>
      </trkpt>
      <trkpt lat="46.98992" lon="8.80214">
        <ele>1070</ele>
        <time>2021-08-04T08:55:33.861Z</time>
      </trkpt>
      <trkpt lat="46.98993" lon="8.80215">
        <ele>1062</ele>
        <time>2021-08-04T08:55:34.861Z</time>
      </trkpt>
      <trkpt lat="46.98993" lon="8.80215">
        <ele>1062</ele>
        <time>2021-08-04T08:55:35.861Z</time>
      </trkpt>
      <trkpt lat="46.98991" lon="8.80218">
        <ele>1062</ele>
        <time>2021-08-04T08:55:36.862Z</time>
      </trkpt>
      <trkpt lat="46.9899" lon="8.80218">
        <ele>1062</ele>
        <time>2021-08-04T08:55:37.862Z</time>
      </trkpt>
      <trkpt lat="46.9899" lon="8.80218">
        <ele>1062</ele>
        <time>2021-08-04T08:55:38.862Z</time>
      </trkpt>
      <trkpt lat="46.9899" lon="8.80218">
        <ele>1062</ele>
        <time>2021-08-04T08:55:39.863Z</time>
      </trkpt>
      <trkpt lat="46.9899" lon="8.80219">
        <ele>1062</ele>
        <time>2021-08-04T08:55:40.862Z</time>
      </trkpt>
      <trkpt lat="46.98989" lon="8.8022">
        <ele>1062</ele>
        <time>2021-08-04T08:55:41.863Z</time>
      </trkpt>
      <trkpt lat="46.9899" lon="8.80221">
        <ele>1063</ele>
        <time>2021-08-04T08:55:42.862Z</time>
      </trkpt>
      <trkpt lat="46.9899" lon="8.80223">
        <ele>1063</ele>
        <time>2021-08-04T08:55:43.863Z</time>
      </trkpt>
      <trkpt lat="46.9899" lon="8.80223">
        <ele>1063</ele>
        <time>2021-08-04T08:55:44.863Z</time>
      </trkpt>
      <trkpt lat="46.9899" lon="8.80223">
        <ele>1063</ele>
        <time>2021-08-04T08:55:45.863Z</time>
      </trkpt>
      <trkpt lat="46.98991" lon="8.80223">
        <ele>1064</ele>
        <time>2021-08-04T08:55:46.863Z</time>
      </trkpt>
      <trkpt lat="46.98991" lon="8.80222">
        <ele>1064</ele>
        <time>2021-08-04T08:55:47.863Z</time>
      </trkpt>
      <trkpt lat="46.98991" lon="8.80222">
        <ele>1064</ele>
        <time>2021-08-04T08:55:48.863Z</time>
      </trkpt>
      <trkpt lat="46.98992" lon="8.80221">
        <ele>1064</ele>
        <time>2021-08-04T08:55:49.863Z</time>
      </trkpt>
      <trkpt lat="46.98993" lon="8.80221">
        <ele>1065</ele>
        <time>2021-08-04T08:55:50.863Z</time>
      </trkpt>
      <trkpt lat="46.98995" lon="8.80219">
        <ele>1065</ele>
        <time>2021-08-04T08:55:51.863Z</time>
      </trkpt>
      <trkpt lat="46.98992" lon="8.8022">
        <ele>1065</ele>
        <time>2021-08-04T08:55:52.863Z</time>
      </trkpt>
      <trkpt lat="46.98992" lon="8.8022">
        <ele>1065</ele>
        <time>2021-08-04T08:55:53.863Z</time>
      </trkpt>
      <trkpt lat="46.98993" lon="8.8022">
        <ele>1065</ele>
        <time>2021-08-04T08:55:54.862Z</time>
      </trkpt>
      <trkpt lat="46.98993" lon="8.8022">
        <ele>1066</ele>
        <time>2021-08-04T08:55:55.863Z</time>
      </trkpt>
      <trkpt lat="46.98992" lon="8.80219">
        <ele>1066</ele>
        <time>2021-08-04T08:55:56.863Z</time>
      </trkpt>
      <trkpt lat="46.98992" lon="8.80218">
        <ele>1067</ele>
        <time>2021-08-04T08:55:57.862Z</time>
      </trkpt>
      <trkpt lat="46.98992" lon="8.80216">
        <ele>1067</ele>
        <time>2021-08-04T08:55:58.862Z</time>
      </trkpt>
      <trkpt lat="46.98992" lon="8.80215">
        <ele>1068</ele>
        <time>2021-08-04T08:55:59.863Z</time>
      </trkpt>
      <trkpt lat="46.98994" lon="8.80215">
        <ele>1068</ele>
        <time>2021-08-04T08:56:00.863Z</time>
      </trkpt>
      <trkpt lat="46.98995" lon="8.80213">
        <ele>1069</ele>
        <time>2021-08-04T08:56:01.863Z</time>
      </trkpt>
      <trkpt lat="46.98994" lon="8.8021">
        <ele>1070</ele>
        <time>2021-08-04T08:56:02.863Z</time>
      </trkpt>
      <trkpt lat="46.98994" lon="8.80209">
        <ele>1070</ele>
        <time>2021-08-04T08:56:03.863Z</time>
      </trkpt>
      <trkpt lat="46.98994" lon="8.80207">
        <ele>1070</ele>
        <time>2021-08-04T08:56:04.863Z</time>
      </trkpt>
      <trkpt lat="46.98994" lon="8.80205">
        <ele>1070</ele>
        <time>2021-08-04T08:56:05.862Z</time>
      </trkpt>
      <trkpt lat="46.98994" lon="8.80203">
        <ele>1070</ele>
        <time>2021-08-04T08:56:06.862Z</time>
      </trkpt>
      <trkpt lat="46.98994" lon="8.80202">
        <ele>1070</ele>
        <time>2021-08-04T08:56:07.862Z</time>
      </trkpt>
      <trkpt lat="46.98994" lon="8.802">
        <ele>1069</ele>
        <time>2021-08-04T08:56:08.863Z</time>
      </trkpt>
      <trkpt lat="46.98993" lon="8.80199">
        <ele>1069</ele>
        <time>2021-08-04T08:56:09.863Z</time>
      </trkpt>
      <trkpt lat="46.98993" lon="8.80197">
        <ele>1069</ele>
        <time>2021-08-04T08:56:10.863Z</time>
      </trkpt>
      <trkpt lat="46.98993" lon="8.80196">
        <ele>1068</ele>
        <time>2021-08-04T08:56:11.862Z</time>
      </trkpt>
      <trkpt lat="46.98993" lon="8.80194">
        <ele>1068</ele>
        <time>2021-08-04T08:56:12.862Z</time>
      </trkpt>
      <trkpt lat="46.98992" lon="8.80192">
        <ele>1068</ele>
        <time>2021-08-04T08:56:13.863Z</time>
      </trkpt>
      <trkpt lat="46.98992" lon="8.80191">
        <ele>1067</ele>
        <time>2021-08-04T08:56:14.863Z</time>
      </trkpt>
      <trkpt lat="46.98992" lon="8.8019">
        <ele>1067</ele>
        <time>2021-08-04T08:56:15.862Z</time>
      </trkpt>
      <trkpt lat="46.98992" lon="8.8019">
        <ele>1068</ele>
        <time>2021-08-04T08:56:16.862Z</time>
      </trkpt>
      <trkpt lat="46.98992" lon="8.8019">
        <ele>1068</ele>
        <time>2021-08-04T08:56:17.863Z</time>
      </trkpt>
      <trkpt lat="46.98992" lon="8.8019">
        <ele>1068</ele>
        <time>2021-08-04T08:56:18.863Z</time>
      </trkpt>
      <trkpt lat="46.98991" lon="8.80191">
        <ele>1068</ele>
        <time>2021-08-04T08:56:19.863Z</time>
      </trkpt>
      <trkpt lat="46.98991" lon="8.80192">
        <ele>1069</ele>
        <time>2021-08-04T08:56:20.863Z</time>
      </trkpt>
      <trkpt lat="46.98993" lon="8.80191">
        <ele>1066</ele>
        <time>2021-08-04T08:56:21.864Z</time>
      </trkpt>
      <trkpt lat="46.98993" lon="8.8019">
        <ele>1066</ele>
        <time>2021-08-04T08:56:22.863Z</time>
      </trkpt>
      <trkpt lat="46.98993" lon="8.80188">
        <ele>1063</ele>
        <time>2021-08-04T08:56:23.863Z</time>
      </trkpt>
      <trkpt lat="46.98993" lon="8.80188">
        <ele>1063</ele>
        <time>2021-08-04T08:56:24.864Z</time>
      </trkpt>
      <trkpt lat="46.98993" lon="8.80187">
        <ele>1064</ele>
        <time>2021-08-04T08:56:25.863Z</time>
      </trkpt>
      <trkpt lat="46.98993" lon="8.80186">
        <ele>1064</ele>
        <time>2021-08-04T08:56:26.864Z</time>
      </trkpt>
      <trkpt lat="46.98994" lon="8.80184">
        <ele>1065</ele>
        <time>2021-08-04T08:56:27.864Z</time>
      </trkpt>
      <trkpt lat="46.98994" lon="8.80183">
        <ele>1065</ele>
        <time>2021-08-04T08:56:28.864Z</time>
      </trkpt>
      <trkpt lat="46.98994" lon="8.80181">
        <ele>1065</ele>
        <time>2021-08-04T08:56:29.863Z</time>
      </trkpt>
      <trkpt lat="46.98995" lon="8.80179">
        <ele>1065</ele>
        <time>2021-08-04T08:56:30.864Z</time>
      </trkpt>
      <trkpt lat="46.98995" lon="8.80177">
        <ele>1065</ele>
        <time>2021-08-04T08:56:31.863Z</time>
      </trkpt>
      <trkpt lat="46.98996" lon="8.80175">
        <ele>1065</ele>
        <time>2021-08-04T08:56:32.864Z</time>
      </trkpt>
      <trkpt lat="46.98996" lon="8.80173">
        <ele>1065</ele>
        <time>2021-08-04T08:56:33.864Z</time>
      </trkpt>
      <trkpt lat="46.98996" lon="8.80172">
        <ele>1065</ele>
        <time>2021-08-04T08:56:34.864Z</time>
      </trkpt>
      <trkpt lat="46.98997" lon="8.80171">
        <ele>1066</ele>
        <time>2021-08-04T08:56:35.863Z</time>
      </trkpt>
      <trkpt lat="46.98997" lon="8.80169">
        <ele>1066</ele>
        <time>2021-08-04T08:56:36.863Z</time>
      </trkpt>
      <trkpt lat="46.98998" lon="8.80168">
        <ele>1066</ele>
        <time>2021-08-04T08:56:37.864Z</time>
      </trkpt>
      <trkpt lat="46.98998" lon="8.80167">
        <ele>1067</ele>
        <time>2021-08-04T08:56:38.864Z</time>
      </trkpt>
      <trkpt lat="46.98999" lon="8.80165">
        <ele>1067</ele>
        <time>2021-08-04T08:56:39.863Z</time>
      </trkpt>
      <trkpt lat="46.98999" lon="8.80163">
        <ele>1068</ele>
        <time>2021-08-04T08:56:40.864Z</time>
      </trkpt>
      <trkpt lat="46.98999" lon="8.80162">
        <ele>1068</ele>
        <time>2021-08-04T08:56:41.864Z</time>
      </trkpt>
      <trkpt lat="46.99" lon="8.8016">
        <ele>1068</ele>
        <time>2021-08-04T08:56:42.864Z</time>
      </trkpt>
      <trkpt lat="46.98999" lon="8.80158">
        <ele>1068</ele>
        <time>2021-08-04T08:56:43.863Z</time>
      </trkpt>
      <trkpt lat="46.98999" lon="8.80155">
        <ele>1068</ele>
        <time>2021-08-04T08:56:44.864Z</time>
      </trkpt>
      <trkpt lat="46.98999" lon="8.80153">
        <ele>1068</ele>
        <time>2021-08-04T08:56:45.864Z</time>
      </trkpt>
      <trkpt lat="46.98999" lon="8.80151">
        <ele>1068</ele>
        <time>2021-08-04T08:56:46.864Z</time>
      </trkpt>
      <trkpt lat="46.98999" lon="8.8015">
        <ele>1068</ele>
        <time>2021-08-04T08:56:47.863Z</time>
      </trkpt>
      <trkpt lat="46.99" lon="8.80148">
        <ele>1068</ele>
        <time>2021-08-04T08:56:48.864Z</time>
      </trkpt>
      <trkpt lat="46.99001" lon="8.80145">
        <ele>1068</ele>
        <time>2021-08-04T08:56:49.864Z</time>
      </trkpt>
      <trkpt lat="46.99001" lon="8.80144">
        <ele>1067</ele>
        <time>2021-08-04T08:56:50.864Z</time>
      </trkpt>
      <trkpt lat="46.99001" lon="8.80142">
        <ele>1068</ele>
        <time>2021-08-04T08:56:51.864Z</time>
      </trkpt>
      <trkpt lat="46.99001" lon="8.8014">
        <ele>1068</ele>
        <time>2021-08-04T08:56:52.863Z</time>
      </trkpt>
      <trkpt lat="46.99001" lon="8.80138">
        <ele>1068</ele>
        <time>2021-08-04T08:56:53.864Z</time>
      </trkpt>
      <trkpt lat="46.99001" lon="8.80137">
        <ele>1069</ele>
        <time>2021-08-04T08:56:54.864Z</time>
      </trkpt>
      <trkpt lat="46.99001" lon="8.80136">
        <ele>1069</ele>
        <time>2021-08-04T08:56:55.863Z</time>
      </trkpt>
      <trkpt lat="46.99001" lon="8.80134">
        <ele>1069</ele>
        <time>2021-08-04T08:56:56.864Z</time>
      </trkpt>
      <trkpt lat="46.99002" lon="8.80132">
        <ele>1069</ele>
        <time>2021-08-04T08:56:57.863Z</time>
      </trkpt>
      <trkpt lat="46.99002" lon="8.80131">
        <ele>1069</ele>
        <time>2021-08-04T08:56:58.864Z</time>
      </trkpt>
      <trkpt lat="46.99002" lon="8.80129">
        <ele>1069</ele>
        <time>2021-08-04T08:56:59.863Z</time>
      </trkpt>
      <trkpt lat="46.99002" lon="8.80128">
        <ele>1068</ele>
        <time>2021-08-04T08:57:00.864Z</time>
      </trkpt>
      <trkpt lat="46.99003" lon="8.80126">
        <ele>1067</ele>
        <time>2021-08-04T08:57:01.864Z</time>
      </trkpt>
      <trkpt lat="46.99003" lon="8.80124">
        <ele>1067</ele>
        <time>2021-08-04T08:57:02.864Z</time>
      </trkpt>
      <trkpt lat="46.99002" lon="8.80123">
        <ele>1066</ele>
        <time>2021-08-04T08:57:03.863Z</time>
      </trkpt>
      <trkpt lat="46.99002" lon="8.80121">
        <ele>1065</ele>
        <time>2021-08-04T08:57:04.864Z</time>
      </trkpt>
      <trkpt lat="46.99002" lon="8.80119">
        <ele>1064</ele>
        <time>2021-08-04T08:57:05.863Z</time>
      </trkpt>
      <trkpt lat="46.99002" lon="8.80117">
        <ele>1064</ele>
        <time>2021-08-04T08:57:06.863Z</time>
      </trkpt>
      <trkpt lat="46.99002" lon="8.80115">
        <ele>1064</ele>
        <time>2021-08-04T08:57:07.863Z</time>
      </trkpt>
      <trkpt lat="46.99003" lon="8.80113">
        <ele>1063</ele>
        <time>2021-08-04T08:57:08.863Z</time>
      </trkpt>
      <trkpt lat="46.99003" lon="8.80111">
        <ele>1063</ele>
        <time>2021-08-04T08:57:09.864Z</time>
      </trkpt>
      <trkpt lat="46.99003" lon="8.8011">
        <ele>1063</ele>
        <time>2021-08-04T08:57:10.864Z</time>
      </trkpt>
      <trkpt lat="46.99004" lon="8.80108">
        <ele>1063</ele>
        <time>2021-08-04T08:57:11.864Z</time>
      </trkpt>
      <trkpt lat="46.99003" lon="8.80106">
        <ele>1062</ele>
        <time>2021-08-04T08:57:12.863Z</time>
      </trkpt>
      <trkpt lat="46.99004" lon="8.80103">
        <ele>1062</ele>
        <time>2021-08-04T08:57:13.864Z</time>
      </trkpt>
      <trkpt lat="46.99004" lon="8.80101">
        <ele>1062</ele>
        <time>2021-08-04T08:57:14.864Z</time>
      </trkpt>
      <trkpt lat="46.99004" lon="8.801">
        <ele>1061</ele>
        <time>2021-08-04T08:57:15.864Z</time>
      </trkpt>
      <trkpt lat="46.99004" lon="8.80098">
        <ele>1061</ele>
        <time>2021-08-04T08:57:16.863Z</time>
      </trkpt>
      <trkpt lat="46.99005" lon="8.80096">
        <ele>1061</ele>
        <time>2021-08-04T08:57:17.863Z</time>
      </trkpt>
      <trkpt lat="46.99005" lon="8.80094">
        <ele>1060</ele>
        <time>2021-08-04T08:57:18.864Z</time>
      </trkpt>
      <trkpt lat="46.99004" lon="8.80092">
        <ele>1060</ele>
        <time>2021-08-04T08:57:19.864Z</time>
      </trkpt>
      <trkpt lat="46.99004" lon="8.8009">
        <ele>1060</ele>
        <time>2021-08-04T08:57:20.864Z</time>
      </trkpt>
      <trkpt lat="46.99004" lon="8.80089">
        <ele>1059</ele>
        <time>2021-08-04T08:57:21.864Z</time>
      </trkpt>
      <trkpt lat="46.99004" lon="8.80088">
        <ele>1059</ele>
        <time>2021-08-04T08:57:22.864Z</time>
      </trkpt>
      <trkpt lat="46.99004" lon="8.80086">
        <ele>1059</ele>
        <time>2021-08-04T08:57:23.864Z</time>
      </trkpt>
      <trkpt lat="46.99005" lon="8.80085">
        <ele>1059</ele>
        <time>2021-08-04T08:57:24.864Z</time>
      </trkpt>
      <trkpt lat="46.99005" lon="8.80083">
        <ele>1059</ele>
        <time>2021-08-04T08:57:25.863Z</time>
      </trkpt>
      <trkpt lat="46.99006" lon="8.80081">
        <ele>1059</ele>
        <time>2021-08-04T08:57:26.864Z</time>
      </trkpt>
      <trkpt lat="46.99006" lon="8.80079">
        <ele>1058</ele>
        <time>2021-08-04T08:57:27.863Z</time>
      </trkpt>
      <trkpt lat="46.99005" lon="8.80077">
        <ele>1058</ele>
        <time>2021-08-04T08:57:28.863Z</time>
      </trkpt>
      <trkpt lat="46.99005" lon="8.80075">
        <ele>1058</ele>
        <time>2021-08-04T08:57:29.863Z</time>
      </trkpt>
      <trkpt lat="46.99005" lon="8.80073">
        <ele>1058</ele>
        <time>2021-08-04T08:57:30.863Z</time>
      </trkpt>
      <trkpt lat="46.99005" lon="8.80071">
        <ele>1058</ele>
        <time>2021-08-04T08:57:31.863Z</time>
      </trkpt>
      <trkpt lat="46.99004" lon="8.80069">
        <ele>1058</ele>
        <time>2021-08-04T08:57:32.863Z</time>
      </trkpt>
      <trkpt lat="46.99003" lon="8.80067">
        <ele>1058</ele>
        <time>2021-08-04T08:57:33.863Z</time>
      </trkpt>
      <trkpt lat="46.99003" lon="8.80066">
        <ele>1057</ele>
        <time>2021-08-04T08:57:34.864Z</time>
      </trkpt>
      <trkpt lat="46.99002" lon="8.80063">
        <ele>1057</ele>
        <time>2021-08-04T08:57:35.863Z</time>
      </trkpt>
      <trkpt lat="46.99001" lon="8.80061">
        <ele>1057</ele>
        <time>2021-08-04T08:57:36.864Z</time>
      </trkpt>
      <trkpt lat="46.99001" lon="8.80059">
        <ele>1057</ele>
        <time>2021-08-04T08:57:37.864Z</time>
      </trkpt>
      <trkpt lat="46.99001" lon="8.80057">
        <ele>1056</ele>
        <time>2021-08-04T08:57:38.864Z</time>
      </trkpt>
      <trkpt lat="46.99" lon="8.80055">
        <ele>1056</ele>
        <time>2021-08-04T08:57:39.864Z</time>
      </trkpt>
      <trkpt lat="46.99" lon="8.80053">
        <ele>1056</ele>
        <time>2021-08-04T08:57:40.863Z</time>
      </trkpt>
      <trkpt lat="46.98999" lon="8.80051">
        <ele>1055</ele>
        <time>2021-08-04T08:57:41.864Z</time>
      </trkpt>
      <trkpt lat="46.98999" lon="8.80049">
        <ele>1055</ele>
        <time>2021-08-04T08:57:42.864Z</time>
      </trkpt>
      <trkpt lat="46.98998" lon="8.80047">
        <ele>1054</ele>
        <time>2021-08-04T08:57:43.864Z</time>
      </trkpt>
      <trkpt lat="46.98998" lon="8.80045">
        <ele>1054</ele>
        <time>2021-08-04T08:57:44.863Z</time>
      </trkpt>
      <trkpt lat="46.98998" lon="8.80043">
        <ele>1054</ele>
        <time>2021-08-04T08:57:45.864Z</time>
      </trkpt>
      <trkpt lat="46.98997" lon="8.80042">
        <ele>1054</ele>
        <time>2021-08-04T08:57:46.864Z</time>
      </trkpt>
      <trkpt lat="46.98997" lon="8.8004">
        <ele>1054</ele>
        <time>2021-08-04T08:57:47.864Z</time>
      </trkpt>
      <trkpt lat="46.98997" lon="8.80039">
        <ele>1054</ele>
        <time>2021-08-04T08:57:48.863Z</time>
      </trkpt>
      <trkpt lat="46.98997" lon="8.80037">
        <ele>1054</ele>
        <time>2021-08-04T08:57:49.864Z</time>
      </trkpt>
      <trkpt lat="46.98997" lon="8.80035">
        <ele>1054</ele>
        <time>2021-08-04T08:57:50.863Z</time>
      </trkpt>
      <trkpt lat="46.98998" lon="8.80034">
        <ele>1053</ele>
        <time>2021-08-04T08:57:51.863Z</time>
      </trkpt>
      <trkpt lat="46.98998" lon="8.80033">
        <ele>1053</ele>
        <time>2021-08-04T08:57:52.864Z</time>
      </trkpt>
      <trkpt lat="46.98998" lon="8.80031">
        <ele>1053</ele>
        <time>2021-08-04T08:57:53.864Z</time>
      </trkpt>
      <trkpt lat="46.98999" lon="8.8003">
        <ele>1052</ele>
        <time>2021-08-04T08:57:54.863Z</time>
      </trkpt>
      <trkpt lat="46.99" lon="8.80029">
        <ele>1052</ele>
        <time>2021-08-04T08:57:55.864Z</time>
      </trkpt>
      <trkpt lat="46.99001" lon="8.80028">
        <ele>1052</ele>
        <time>2021-08-04T08:57:56.864Z</time>
      </trkpt>
      <trkpt lat="46.99001" lon="8.80027">
        <ele>1052</ele>
        <time>2021-08-04T08:57:57.864Z</time>
      </trkpt>
      <trkpt lat="46.99002" lon="8.80025">
        <ele>1052</ele>
        <time>2021-08-04T08:57:58.863Z</time>
      </trkpt>
      <trkpt lat="46.99003" lon="8.80023">
        <ele>1052</ele>
        <time>2021-08-04T08:57:59.863Z</time>
      </trkpt>
      <trkpt lat="46.99004" lon="8.80022">
        <ele>1053</ele>
        <time>2021-08-04T08:58:00.863Z</time>
      </trkpt>
      <trkpt lat="46.99005" lon="8.80021">
        <ele>1053</ele>
        <time>2021-08-04T08:58:01.864Z</time>
      </trkpt>
      <trkpt lat="46.99007" lon="8.8002">
        <ele>1053</ele>
        <time>2021-08-04T08:58:02.864Z</time>
      </trkpt>
      <trkpt lat="46.99008" lon="8.8002">
        <ele>1053</ele>
        <time>2021-08-04T08:58:03.864Z</time>
      </trkpt>
      <trkpt lat="46.99009" lon="8.8002">
        <ele>1053</ele>
        <time>2021-08-04T08:58:04.863Z</time>
      </trkpt>
      <trkpt lat="46.99011" lon="8.80019">
        <ele>1054</ele>
        <time>2021-08-04T08:58:05.864Z</time>
      </trkpt>
      <trkpt lat="46.99012" lon="8.80018">
        <ele>1054</ele>
        <time>2021-08-04T08:58:06.864Z</time>
      </trkpt>
      <trkpt lat="46.99013" lon="8.80017">
        <ele>1054</ele>
        <time>2021-08-04T08:58:07.864Z</time>
      </trkpt>
      <trkpt lat="46.99014" lon="8.80015">
        <ele>1054</ele>
        <time>2021-08-04T08:58:08.864Z</time>
      </trkpt>
      <trkpt lat="46.99014" lon="8.80013">
        <ele>1055</ele>
        <time>2021-08-04T08:58:09.864Z</time>
      </trkpt>
      <trkpt lat="46.99014" lon="8.80011">
        <ele>1055</ele>
        <time>2021-08-04T08:58:10.863Z</time>
      </trkpt>
      <trkpt lat="46.99014" lon="8.80009">
        <ele>1055</ele>
        <time>2021-08-04T08:58:11.864Z</time>
      </trkpt>
      <trkpt lat="46.99015" lon="8.80007">
        <ele>1055</ele>
        <time>2021-08-04T08:58:12.864Z</time>
      </trkpt>
      <trkpt lat="46.99015" lon="8.80006">
        <ele>1054</ele>
        <time>2021-08-04T08:58:13.863Z</time>
      </trkpt>
      <trkpt lat="46.99015" lon="8.80004">
        <ele>1054</ele>
        <time>2021-08-04T08:58:14.864Z</time>
      </trkpt>
      <trkpt lat="46.99014" lon="8.80002">
        <ele>1054</ele>
        <time>2021-08-04T08:58:15.863Z</time>
      </trkpt>
      <trkpt lat="46.99014" lon="8.80001">
        <ele>1053</ele>
        <time>2021-08-04T08:58:16.863Z</time>
      </trkpt>
      <trkpt lat="46.99014" lon="8.79999">
        <ele>1053</ele>
        <time>2021-08-04T08:58:17.864Z</time>
      </trkpt>
      <trkpt lat="46.99014" lon="8.79998">
        <ele>1053</ele>
        <time>2021-08-04T08:58:18.864Z</time>
      </trkpt>
      <trkpt lat="46.99014" lon="8.79996">
        <ele>1054</ele>
        <time>2021-08-04T08:58:19.863Z</time>
      </trkpt>
      <trkpt lat="46.99014" lon="8.79994">
        <ele>1054</ele>
        <time>2021-08-04T08:58:20.863Z</time>
      </trkpt>
      <trkpt lat="46.99014" lon="8.79992">
        <ele>1054</ele>
        <time>2021-08-04T08:58:21.863Z</time>
      </trkpt>
      <trkpt lat="46.99013" lon="8.79989">
        <ele>1055</ele>
        <time>2021-08-04T08:58:22.863Z</time>
      </trkpt>
      <trkpt lat="46.99012" lon="8.79987">
        <ele>1055</ele>
        <time>2021-08-04T08:58:23.863Z</time>
      </trkpt>
      <trkpt lat="46.99011" lon="8.79984">
        <ele>1056</ele>
        <time>2021-08-04T08:58:24.864Z</time>
      </trkpt>
      <trkpt lat="46.9901" lon="8.79982">
        <ele>1056</ele>
        <time>2021-08-04T08:58:25.863Z</time>
      </trkpt>
      <trkpt lat="46.9901" lon="8.7998">
        <ele>1057</ele>
        <time>2021-08-04T08:58:26.864Z</time>
      </trkpt>
      <trkpt lat="46.99009" lon="8.79979">
        <ele>1057</ele>
        <time>2021-08-04T08:58:27.864Z</time>
      </trkpt>
      <trkpt lat="46.99009" lon="8.79977">
        <ele>1058</ele>
        <time>2021-08-04T08:58:28.863Z</time>
      </trkpt>
      <trkpt lat="46.99009" lon="8.79976">
        <ele>1058</ele>
        <time>2021-08-04T08:58:29.863Z</time>
      </trkpt>
      <trkpt lat="46.99009" lon="8.79975">
        <ele>1059</ele>
        <time>2021-08-04T08:58:30.863Z</time>
      </trkpt>
      <trkpt lat="46.99008" lon="8.79974">
        <ele>1059</ele>
        <time>2021-08-04T08:58:31.864Z</time>
      </trkpt>
      <trkpt lat="46.9901" lon="8.79974">
        <ele>1059</ele>
        <time>2021-08-04T08:58:32.863Z</time>
      </trkpt>
      <trkpt lat="46.9901" lon="8.79974">
        <ele>1060</ele>
        <time>2021-08-04T08:58:33.864Z</time>
      </trkpt>
      <trkpt lat="46.99011" lon="8.79976">
        <ele>1061</ele>
        <time>2021-08-04T08:58:34.863Z</time>
      </trkpt>
      <trkpt lat="46.9901" lon="8.79978">
        <ele>1061</ele>
        <time>2021-08-04T08:58:35.863Z</time>
      </trkpt>
      <trkpt lat="46.99009" lon="8.79979">
        <ele>1062</ele>
        <time>2021-08-04T08:58:36.864Z</time>
      </trkpt>
      <trkpt lat="46.9901" lon="8.79977">
        <ele>1062</ele>
        <time>2021-08-04T08:58:37.864Z</time>
      </trkpt>
      <trkpt lat="46.9901" lon="8.79974">
        <ele>1062</ele>
        <time>2021-08-04T08:58:38.863Z</time>
      </trkpt>
      <trkpt lat="46.9901" lon="8.79972">
        <ele>1062</ele>
        <time>2021-08-04T08:58:39.864Z</time>
      </trkpt>
      <trkpt lat="46.9901" lon="8.7997">
        <ele>1062</ele>
        <time>2021-08-04T08:58:40.864Z</time>
      </trkpt>
      <trkpt lat="46.99009" lon="8.79969">
        <ele>1062</ele>
        <time>2021-08-04T08:58:41.863Z</time>
      </trkpt>
      <trkpt lat="46.99008" lon="8.79967">
        <ele>1062</ele>
        <time>2021-08-04T08:58:42.863Z</time>
      </trkpt>
      <trkpt lat="46.99007" lon="8.79965">
        <ele>1062</ele>
        <time>2021-08-04T08:58:43.864Z</time>
      </trkpt>
      <trkpt lat="46.99006" lon="8.79964">
        <ele>1062</ele>
        <time>2021-08-04T08:58:44.864Z</time>
      </trkpt>
      <trkpt lat="46.99006" lon="8.79963">
        <ele>1062</ele>
        <time>2021-08-04T08:58:45.864Z</time>
      </trkpt>
      <trkpt lat="46.99005" lon="8.79962">
        <ele>1062</ele>
        <time>2021-08-04T08:58:46.863Z</time>
      </trkpt>
      <trkpt lat="46.99004" lon="8.7996">
        <ele>1061</ele>
        <time>2021-08-04T08:58:47.863Z</time>
      </trkpt>
      <trkpt lat="46.99004" lon="8.79957">
        <ele>1061</ele>
        <time>2021-08-04T08:58:48.864Z</time>
      </trkpt>
      <trkpt lat="46.99004" lon="8.79956">
        <ele>1061</ele>
        <time>2021-08-04T08:58:49.863Z</time>
      </trkpt>
      <trkpt lat="46.99004" lon="8.79954">
        <ele>1061</ele>
        <time>2021-08-04T08:58:50.863Z</time>
      </trkpt>
      <trkpt lat="46.99004" lon="8.79954">
        <ele>1060</ele>
        <time>2021-08-04T08:58:51.864Z</time>
      </trkpt>
      <trkpt lat="46.99004" lon="8.79953">
        <ele>1060</ele>
        <time>2021-08-04T08:58:52.864Z</time>
      </trkpt>
      <trkpt lat="46.99004" lon="8.79952">
        <ele>1060</ele>
        <time>2021-08-04T08:58:53.863Z</time>
      </trkpt>
      <trkpt lat="46.99003" lon="8.79948">
        <ele>1059</ele>
        <time>2021-08-04T08:58:54.866Z</time>
      </trkpt>
      <trkpt lat="46.99003" lon="8.79948">
        <ele>1059</ele>
        <time>2021-08-04T08:58:55.866Z</time>
      </trkpt>
      <trkpt lat="46.99004" lon="8.7995">
        <ele>1056</ele>
        <time>2021-08-04T08:58:56.867Z</time>
      </trkpt>
      <trkpt lat="46.99003" lon="8.79948">
        <ele>1056</ele>
        <time>2021-08-04T08:58:57.867Z</time>
      </trkpt>
      <trkpt lat="46.99003" lon="8.79946">
        <ele>1056</ele>
        <time>2021-08-04T08:58:58.866Z</time>
      </trkpt>
      <trkpt lat="46.99002" lon="8.79945">
        <ele>1056</ele>
        <time>2021-08-04T08:58:59.867Z</time>
      </trkpt>
      <trkpt lat="46.99002" lon="8.79943">
        <ele>1057</ele>
        <time>2021-08-04T08:59:00.867Z</time>
      </trkpt>
      <trkpt lat="46.99002" lon="8.79941">
        <ele>1057</ele>
        <time>2021-08-04T08:59:01.867Z</time>
      </trkpt>
      <trkpt lat="46.99002" lon="8.7994">
        <ele>1057</ele>
        <time>2021-08-04T08:59:02.867Z</time>
      </trkpt>
      <trkpt lat="46.99002" lon="8.79938">
        <ele>1058</ele>
        <time>2021-08-04T08:59:03.866Z</time>
      </trkpt>
      <trkpt lat="46.99001" lon="8.79937">
        <ele>1058</ele>
        <time>2021-08-04T08:59:04.867Z</time>
      </trkpt>
      <trkpt lat="46.99001" lon="8.79935">
        <ele>1058</ele>
        <time>2021-08-04T08:59:05.866Z</time>
      </trkpt>
      <trkpt lat="46.99" lon="8.79934">
        <ele>1058</ele>
        <time>2021-08-04T08:59:06.867Z</time>
      </trkpt>
      <trkpt lat="46.99" lon="8.79932">
        <ele>1058</ele>
        <time>2021-08-04T08:59:07.867Z</time>
      </trkpt>
      <trkpt lat="46.98999" lon="8.79932">
        <ele>1058</ele>
        <time>2021-08-04T08:59:08.867Z</time>
      </trkpt>
      <trkpt lat="46.98998" lon="8.79931">
        <ele>1058</ele>
        <time>2021-08-04T08:59:09.867Z</time>
      </trkpt>
      <trkpt lat="46.98998" lon="8.79929">
        <ele>1057</ele>
        <time>2021-08-04T08:59:10.867Z</time>
      </trkpt>
      <trkpt lat="46.98998" lon="8.79927">
        <ele>1057</ele>
        <time>2021-08-04T08:59:11.866Z</time>
      </trkpt>
      <trkpt lat="46.98998" lon="8.79925">
        <ele>1057</ele>
        <time>2021-08-04T08:59:12.866Z</time>
      </trkpt>
      <trkpt lat="46.98998" lon="8.79924">
        <ele>1056</ele>
        <time>2021-08-04T08:59:13.867Z</time>
      </trkpt>
      <trkpt lat="46.98998" lon="8.79922">
        <ele>1055</ele>
        <time>2021-08-04T08:59:14.867Z</time>
      </trkpt>
      <trkpt lat="46.98998" lon="8.7992">
        <ele>1054</ele>
        <time>2021-08-04T08:59:15.867Z</time>
      </trkpt>
      <trkpt lat="46.98997" lon="8.79918">
        <ele>1054</ele>
        <time>2021-08-04T08:59:16.867Z</time>
      </trkpt>
      <trkpt lat="46.98996" lon="8.79917">
        <ele>1054</ele>
        <time>2021-08-04T08:59:17.866Z</time>
      </trkpt>
      <trkpt lat="46.98996" lon="8.79915">
        <ele>1053</ele>
        <time>2021-08-04T08:59:18.867Z</time>
      </trkpt>
      <trkpt lat="46.98995" lon="8.79914">
        <ele>1053</ele>
        <time>2021-08-04T08:59:19.867Z</time>
      </trkpt>
      <trkpt lat="46.98994" lon="8.79913">
        <ele>1053</ele>
        <time>2021-08-04T08:59:20.866Z</time>
      </trkpt>
      <trkpt lat="46.98994" lon="8.79913">
        <ele>1053</ele>
        <time>2021-08-04T08:59:21.866Z</time>
      </trkpt>
      <trkpt lat="46.98993" lon="8.79913">
        <ele>1053</ele>
        <time>2021-08-04T08:59:22.867Z</time>
      </trkpt>
      <trkpt lat="46.98992" lon="8.79913">
        <ele>1052</ele>
        <time>2021-08-04T08:59:23.867Z</time>
      </trkpt>
      <trkpt lat="46.98991" lon="8.79913">
        <ele>1052</ele>
        <time>2021-08-04T08:59:24.867Z</time>
      </trkpt>
      <trkpt lat="46.98991" lon="8.79913">
        <ele>1052</ele>
        <time>2021-08-04T08:59:25.866Z</time>
      </trkpt>
      <trkpt lat="46.98981" lon="8.79911">
        <ele>1048</ele>
        <time>2021-08-04T08:59:26.868Z</time>
      </trkpt>
      <trkpt lat="46.98981" lon="8.79911">
        <ele>1048</ele>
        <time>2021-08-04T08:59:27.868Z</time>
      </trkpt>
      <trkpt lat="46.98976" lon="8.79908">
        <ele>1045</ele>
        <time>2021-08-04T08:59:28.868Z</time>
      </trkpt>
      <trkpt lat="46.98976" lon="8.79909">
        <ele>1045</ele>
        <time>2021-08-04T08:59:29.867Z</time>
      </trkpt>
      <trkpt lat="46.98976" lon="8.79911">
        <ele>1045</ele>
        <time>2021-08-04T08:59:30.867Z</time>
      </trkpt>
      <trkpt lat="46.98976" lon="8.79913">
        <ele>1044</ele>
        <time>2021-08-04T08:59:31.867Z</time>
      </trkpt>
      <trkpt lat="46.98976" lon="8.79914">
        <ele>1044</ele>
        <time>2021-08-04T08:59:32.868Z</time>
      </trkpt>
      <trkpt lat="46.98976" lon="8.79914">
        <ele>1044</ele>
        <time>2021-08-04T08:59:33.868Z</time>
      </trkpt>
      <trkpt lat="46.98976" lon="8.79915">
        <ele>1044</ele>
        <time>2021-08-04T08:59:34.867Z</time>
      </trkpt>
      <trkpt lat="46.98976" lon="8.79915">
        <ele>1044</ele>
        <time>2021-08-04T08:59:35.868Z</time>
      </trkpt>
      <trkpt lat="46.98976" lon="8.79915">
        <ele>1044</ele>
        <time>2021-08-04T08:59:36.868Z</time>
      </trkpt>
      <trkpt lat="46.98975" lon="8.79915">
        <ele>1044</ele>
        <time>2021-08-04T08:59:37.867Z</time>
      </trkpt>
      <trkpt lat="46.98975" lon="8.79916">
        <ele>1045</ele>
        <time>2021-08-04T08:59:38.868Z</time>
      </trkpt>
      <trkpt lat="46.98975" lon="8.79916">
        <ele>1045</ele>
        <time>2021-08-04T08:59:39.867Z</time>
      </trkpt>
      <trkpt lat="46.98973" lon="8.79915">
        <ele>1049</ele>
        <time>2021-08-04T08:59:40.868Z</time>
      </trkpt>
      <trkpt lat="46.98974" lon="8.79916">
        <ele>1050</ele>
        <time>2021-08-04T08:59:41.869Z</time>
      </trkpt>
      <trkpt lat="46.98975" lon="8.79917">
        <ele>1050</ele>
        <time>2021-08-04T08:59:42.868Z</time>
      </trkpt>
      <trkpt lat="46.98975" lon="8.79918">
        <ele>1051</ele>
        <time>2021-08-04T08:59:43.868Z</time>
      </trkpt>
      <trkpt lat="46.98975" lon="8.79919">
        <ele>1051</ele>
        <time>2021-08-04T08:59:44.869Z</time>
      </trkpt>
      <trkpt lat="46.98975" lon="8.7992">
        <ele>1051</ele>
        <time>2021-08-04T08:59:45.868Z</time>
      </trkpt>
      <trkpt lat="46.98975" lon="8.79922">
        <ele>1051</ele>
        <time>2021-08-04T08:59:46.869Z</time>
      </trkpt>
      <trkpt lat="46.98975" lon="8.79923">
        <ele>1050</ele>
        <time>2021-08-04T08:59:47.868Z</time>
      </trkpt>
      <trkpt lat="46.98975" lon="8.79924">
        <ele>1050</ele>
        <time>2021-08-04T08:59:48.869Z</time>
      </trkpt>
      <trkpt lat="46.98974" lon="8.79924">
        <ele>1050</ele>
        <time>2021-08-04T08:59:49.869Z</time>
      </trkpt>
      <trkpt lat="46.98974" lon="8.79925">
        <ele>1049</ele>
        <time>2021-08-04T08:59:50.869Z</time>
      </trkpt>
      <trkpt lat="46.98973" lon="8.79926">
        <ele>1049</ele>
        <time>2021-08-04T08:59:51.868Z</time>
      </trkpt>
      <trkpt lat="46.98973" lon="8.79927">
        <ele>1049</ele>
        <time>2021-08-04T08:59:52.869Z</time>
      </trkpt>
      <trkpt lat="46.98972" lon="8.79928">
        <ele>1049</ele>
        <time>2021-08-04T08:59:53.869Z</time>
      </trkpt>
      <trkpt lat="46.9897" lon="8.79931">
        <ele>1050</ele>
        <time>2021-08-04T08:59:54.869Z</time>
      </trkpt>
      <trkpt lat="46.9897" lon="8.79932">
        <ele>1050</ele>
        <time>2021-08-04T08:59:55.869Z</time>
      </trkpt>
      <trkpt lat="46.98969" lon="8.79933">
        <ele>1050</ele>
        <time>2021-08-04T08:59:56.869Z</time>
      </trkpt>
      <trkpt lat="46.98969" lon="8.79934">
        <ele>1050</ele>
        <time>2021-08-04T08:59:57.869Z</time>
      </trkpt>
      <trkpt lat="46.98968" lon="8.79934">
        <ele>1050</ele>
        <time>2021-08-04T08:59:58.870Z</time>
      </trkpt>
      <trkpt lat="46.98968" lon="8.79934">
        <ele>1050</ele>
        <time>2021-08-04T08:59:59.870Z</time>
      </trkpt>
      <trkpt lat="46.98968" lon="8.79935">
        <ele>1049</ele>
        <time>2021-08-04T09:00:00.870Z</time>
      </trkpt>
      <trkpt lat="46.98967" lon="8.79935">
        <ele>1049</ele>
        <time>2021-08-04T09:00:01.870Z</time>
      </trkpt>
      <trkpt lat="46.98967" lon="8.79935">
        <ele>1048</ele>
        <time>2021-08-04T09:00:02.870Z</time>
      </trkpt>
      <trkpt lat="46.98966" lon="8.79935">
        <ele>1048</ele>
        <time>2021-08-04T09:00:03.869Z</time>
      </trkpt>
      <trkpt lat="46.98965" lon="8.79935">
        <ele>1047</ele>
        <time>2021-08-04T09:00:04.870Z</time>
      </trkpt>
      <trkpt lat="46.98965" lon="8.79934">
        <ele>1047</ele>
        <time>2021-08-04T09:00:05.869Z</time>
      </trkpt>
      <trkpt lat="46.98964" lon="8.79934">
        <ele>1047</ele>
        <time>2021-08-04T09:00:06.870Z</time>
      </trkpt>
      <trkpt lat="46.98963" lon="8.79933">
        <ele>1046</ele>
        <time>2021-08-04T09:00:07.870Z</time>
      </trkpt>
      <trkpt lat="46.98962" lon="8.79932">
        <ele>1046</ele>
        <time>2021-08-04T09:00:08.870Z</time>
      </trkpt>
      <trkpt lat="46.98961" lon="8.79932">
        <ele>1045</ele>
        <time>2021-08-04T09:00:09.869Z</time>
      </trkpt>
      <trkpt lat="46.98959" lon="8.79932">
        <ele>1044</ele>
        <time>2021-08-04T09:00:10.870Z</time>
      </trkpt>
      <trkpt lat="46.98958" lon="8.79932">
        <ele>1044</ele>
        <time>2021-08-04T09:00:11.869Z</time>
      </trkpt>
      <trkpt lat="46.98957" lon="8.79932">
        <ele>1044</ele>
        <time>2021-08-04T09:00:12.870Z</time>
      </trkpt>
      <trkpt lat="46.98955" lon="8.79932">
        <ele>1043</ele>
        <time>2021-08-04T09:00:13.870Z</time>
      </trkpt>
      <trkpt lat="46.98955" lon="8.79931">
        <ele>1043</ele>
        <time>2021-08-04T09:00:14.869Z</time>
      </trkpt>
      <trkpt lat="46.98954" lon="8.79931">
        <ele>1043</ele>
        <time>2021-08-04T09:00:15.870Z</time>
      </trkpt>
      <trkpt lat="46.98953" lon="8.79932">
        <ele>1043</ele>
        <time>2021-08-04T09:00:16.870Z</time>
      </trkpt>
      <trkpt lat="46.98953" lon="8.79932">
        <ele>1043</ele>
        <time>2021-08-04T09:00:17.869Z</time>
      </trkpt>
      <trkpt lat="46.98953" lon="8.79933">
        <ele>1042</ele>
        <time>2021-08-04T09:00:18.870Z</time>
      </trkpt>
      <trkpt lat="46.98952" lon="8.79933">
        <ele>1042</ele>
        <time>2021-08-04T09:00:19.869Z</time>
      </trkpt>
      <trkpt lat="46.98952" lon="8.79932">
        <ele>1041</ele>
        <time>2021-08-04T09:00:20.870Z</time>
      </trkpt>
      <trkpt lat="46.98951" lon="8.79932">
        <ele>1040</ele>
        <time>2021-08-04T09:00:21.870Z</time>
      </trkpt>
      <trkpt lat="46.9895" lon="8.79931">
        <ele>1040</ele>
        <time>2021-08-04T09:00:22.870Z</time>
      </trkpt>
      <trkpt lat="46.98949" lon="8.79931">
        <ele>1040</ele>
        <time>2021-08-04T09:00:23.869Z</time>
      </trkpt>
      <trkpt lat="46.98948" lon="8.79931">
        <ele>1040</ele>
        <time>2021-08-04T09:00:24.870Z</time>
      </trkpt>
      <trkpt lat="46.98948" lon="8.79931">
        <ele>1040</ele>
        <time>2021-08-04T09:00:25.870Z</time>
      </trkpt>
      <trkpt lat="46.98947" lon="8.7993">
        <ele>1039</ele>
        <time>2021-08-04T09:00:26.870Z</time>
      </trkpt>
      <trkpt lat="46.98946" lon="8.7993">
        <ele>1039</ele>
        <time>2021-08-04T09:00:27.870Z</time>
      </trkpt>
      <trkpt lat="46.98946" lon="8.7993">
        <ele>1039</ele>
        <time>2021-08-04T09:00:28.870Z</time>
      </trkpt>
      <trkpt lat="46.98945" lon="8.79931">
        <ele>1037</ele>
        <time>2021-08-04T09:00:29.871Z</time>
      </trkpt>
      <trkpt lat="46.98944" lon="8.79931">
        <ele>1037</ele>
        <time>2021-08-04T09:00:30.871Z</time>
      </trkpt>
      <trkpt lat="46.98944" lon="8.79931">
        <ele>1037</ele>
        <time>2021-08-04T09:00:31.871Z</time>
      </trkpt>
      <trkpt lat="46.98943" lon="8.7993">
        <ele>1037</ele>
        <time>2021-08-04T09:00:32.871Z</time>
      </trkpt>
      <trkpt lat="46.98942" lon="8.7993">
        <ele>1037</ele>
        <time>2021-08-04T09:00:33.872Z</time>
      </trkpt>
      <trkpt lat="46.98942" lon="8.7993">
        <ele>1036</ele>
        <time>2021-08-04T09:00:34.871Z</time>
      </trkpt>
      <trkpt lat="46.98941" lon="8.79929">
        <ele>1037</ele>
        <time>2021-08-04T09:00:35.872Z</time>
      </trkpt>
      <trkpt lat="46.9894" lon="8.79928">
        <ele>1037</ele>
        <time>2021-08-04T09:00:36.871Z</time>
      </trkpt>
      <trkpt lat="46.9894" lon="8.79928">
        <ele>1037</ele>
        <time>2021-08-04T09:00:37.872Z</time>
      </trkpt>
      <trkpt lat="46.98939" lon="8.79927">
        <ele>1037</ele>
        <time>2021-08-04T09:00:38.872Z</time>
      </trkpt>
      <trkpt lat="46.98939" lon="8.79926">
        <ele>1037</ele>
        <time>2021-08-04T09:00:39.872Z</time>
      </trkpt>
      <trkpt lat="46.98939" lon="8.79925">
        <ele>1037</ele>
        <time>2021-08-04T09:00:40.871Z</time>
      </trkpt>
      <trkpt lat="46.98939" lon="8.79924">
        <ele>1037</ele>
        <time>2021-08-04T09:00:41.871Z</time>
      </trkpt>
      <trkpt lat="46.98939" lon="8.79923">
        <ele>1037</ele>
        <time>2021-08-04T09:00:42.872Z</time>
      </trkpt>
      <trkpt lat="46.98939" lon="8.79922">
        <ele>1037</ele>
        <time>2021-08-04T09:00:43.872Z</time>
      </trkpt>
      <trkpt lat="46.98938" lon="8.79921">
        <ele>1037</ele>
        <time>2021-08-04T09:00:44.871Z</time>
      </trkpt>
      <trkpt lat="46.98938" lon="8.7992">
        <ele>1037</ele>
        <time>2021-08-04T09:00:45.871Z</time>
      </trkpt>
      <trkpt lat="46.98938" lon="8.7992">
        <ele>1037</ele>
        <time>2021-08-04T09:00:46.872Z</time>
      </trkpt>
      <trkpt lat="46.98937" lon="8.79919">
        <ele>1037</ele>
        <time>2021-08-04T09:00:47.872Z</time>
      </trkpt>
      <trkpt lat="46.98937" lon="8.79918">
        <ele>1037</ele>
        <time>2021-08-04T09:00:48.872Z</time>
      </trkpt>
      <trkpt lat="46.98937" lon="8.79917">
        <ele>1037</ele>
        <time>2021-08-04T09:00:49.871Z</time>
      </trkpt>
      <trkpt lat="46.98936" lon="8.79916">
        <ele>1037</ele>
        <time>2021-08-04T09:00:50.872Z</time>
      </trkpt>
      <trkpt lat="46.98936" lon="8.79915">
        <ele>1037</ele>
        <time>2021-08-04T09:00:51.872Z</time>
      </trkpt>
      <trkpt lat="46.98935" lon="8.79914">
        <ele>1038</ele>
        <time>2021-08-04T09:00:52.872Z</time>
      </trkpt>
      <trkpt lat="46.98935" lon="8.79913">
        <ele>1038</ele>
        <time>2021-08-04T09:00:53.871Z</time>
      </trkpt>
      <trkpt lat="46.98935" lon="8.79912">
        <ele>1038</ele>
        <time>2021-08-04T09:00:54.872Z</time>
      </trkpt>
      <trkpt lat="46.98935" lon="8.79911">
        <ele>1037</ele>
        <time>2021-08-04T09:00:55.872Z</time>
      </trkpt>
      <trkpt lat="46.98935" lon="8.79909">
        <ele>1037</ele>
        <time>2021-08-04T09:00:56.871Z</time>
      </trkpt>
      <trkpt lat="46.98935" lon="8.79906">
        <ele>1037</ele>
        <time>2021-08-04T09:00:57.872Z</time>
      </trkpt>
      <trkpt lat="46.98934" lon="8.79904">
        <ele>1036</ele>
        <time>2021-08-04T09:00:58.872Z</time>
      </trkpt>
      <trkpt lat="46.98933" lon="8.79902">
        <ele>1036</ele>
        <time>2021-08-04T09:00:59.872Z</time>
      </trkpt>
      <trkpt lat="46.98932" lon="8.799">
        <ele>1035</ele>
        <time>2021-08-04T09:01:00.872Z</time>
      </trkpt>
      <trkpt lat="46.98931" lon="8.79897">
        <ele>1035</ele>
        <time>2021-08-04T09:01:01.871Z</time>
      </trkpt>
      <trkpt lat="46.98931" lon="8.79895">
        <ele>1034</ele>
        <time>2021-08-04T09:01:02.871Z</time>
      </trkpt>
      <trkpt lat="46.9893" lon="8.79892">
        <ele>1034</ele>
        <time>2021-08-04T09:01:03.872Z</time>
      </trkpt>
      <trkpt lat="46.98929" lon="8.79891">
        <ele>1034</ele>
        <time>2021-08-04T09:01:04.872Z</time>
      </trkpt>
      <trkpt lat="46.98929" lon="8.7989">
        <ele>1034</ele>
        <time>2021-08-04T09:01:05.871Z</time>
      </trkpt>
      <trkpt lat="46.98928" lon="8.79889">
        <ele>1034</ele>
        <time>2021-08-04T09:01:06.871Z</time>
      </trkpt>
      <trkpt lat="46.98928" lon="8.79887">
        <ele>1034</ele>
        <time>2021-08-04T09:01:07.872Z</time>
      </trkpt>
      <trkpt lat="46.98927" lon="8.79886">
        <ele>1033</ele>
        <time>2021-08-04T09:01:08.872Z</time>
      </trkpt>
      <trkpt lat="46.98926" lon="8.79884">
        <ele>1033</ele>
        <time>2021-08-04T09:01:09.871Z</time>
      </trkpt>
      <trkpt lat="46.98926" lon="8.79883">
        <ele>1032</ele>
        <time>2021-08-04T09:01:10.872Z</time>
      </trkpt>
      <trkpt lat="46.98924" lon="8.79883">
        <ele>1031</ele>
        <time>2021-08-04T09:01:11.872Z</time>
      </trkpt>
      <trkpt lat="46.98923" lon="8.79882">
        <ele>1030</ele>
        <time>2021-08-04T09:01:12.871Z</time>
      </trkpt>
      <trkpt lat="46.98923" lon="8.7988">
        <ele>1030</ele>
        <time>2021-08-04T09:01:13.871Z</time>
      </trkpt>
      <trkpt lat="46.98923" lon="8.79879">
        <ele>1029</ele>
        <time>2021-08-04T09:01:14.872Z</time>
      </trkpt>
      <trkpt lat="46.98922" lon="8.79878">
        <ele>1028</ele>
        <time>2021-08-04T09:01:15.872Z</time>
      </trkpt>
      <trkpt lat="46.98921" lon="8.79876">
        <ele>1028</ele>
        <time>2021-08-04T09:01:16.872Z</time>
      </trkpt>
      <trkpt lat="46.98921" lon="8.79874">
        <ele>1027</ele>
        <time>2021-08-04T09:01:17.871Z</time>
      </trkpt>
      <trkpt lat="46.98921" lon="8.79873">
        <ele>1027</ele>
        <time>2021-08-04T09:01:18.872Z</time>
      </trkpt>
      <trkpt lat="46.98921" lon="8.79871">
        <ele>1027</ele>
        <time>2021-08-04T09:01:19.871Z</time>
      </trkpt>
      <trkpt lat="46.98921" lon="8.7987">
        <ele>1026</ele>
        <time>2021-08-04T09:01:20.871Z</time>
      </trkpt>
      <trkpt lat="46.98922" lon="8.7987">
        <ele>1026</ele>
        <time>2021-08-04T09:01:21.871Z</time>
      </trkpt>
      <trkpt lat="46.98922" lon="8.7987">
        <ele>1026</ele>
        <time>2021-08-04T09:01:22.872Z</time>
      </trkpt>
      <trkpt lat="46.98922" lon="8.7987">
        <ele>1026</ele>
        <time>2021-08-04T09:01:23.871Z</time>
      </trkpt>
      <trkpt lat="46.98922" lon="8.79869">
        <ele>1026</ele>
        <time>2021-08-04T09:01:24.871Z</time>
      </trkpt>
      <trkpt lat="46.98922" lon="8.79868">
        <ele>1027</ele>
        <time>2021-08-04T09:01:25.872Z</time>
      </trkpt>
      <trkpt lat="46.98922" lon="8.79866">
        <ele>1028</ele>
        <time>2021-08-04T09:01:26.872Z</time>
      </trkpt>
      <trkpt lat="46.98921" lon="8.79865">
        <ele>1028</ele>
        <time>2021-08-04T09:01:27.872Z</time>
      </trkpt>
      <trkpt lat="46.98921" lon="8.79864">
        <ele>1029</ele>
        <time>2021-08-04T09:01:28.871Z</time>
      </trkpt>
      <trkpt lat="46.9892" lon="8.79863">
        <ele>1029</ele>
        <time>2021-08-04T09:01:29.872Z</time>
      </trkpt>
      <trkpt lat="46.9892" lon="8.79862">
        <ele>1029</ele>
        <time>2021-08-04T09:01:30.872Z</time>
      </trkpt>
      <trkpt lat="46.9892" lon="8.79862">
        <ele>1030</ele>
        <time>2021-08-04T09:01:31.871Z</time>
      </trkpt>
      <trkpt lat="46.9892" lon="8.79862">
        <ele>1030</ele>
        <time>2021-08-04T09:01:32.871Z</time>
      </trkpt>
      <trkpt lat="46.98921" lon="8.79862">
        <ele>1030</ele>
        <time>2021-08-04T09:01:33.871Z</time>
      </trkpt>
      <trkpt lat="46.9892" lon="8.79861">
        <ele>1030</ele>
        <time>2021-08-04T09:01:34.871Z</time>
      </trkpt>
      <trkpt lat="46.98919" lon="8.7986">
        <ele>1030</ele>
        <time>2021-08-04T09:01:35.872Z</time>
      </trkpt>
      <trkpt lat="46.98919" lon="8.79859">
        <ele>1030</ele>
        <time>2021-08-04T09:01:36.872Z</time>
      </trkpt>
      <trkpt lat="46.98918" lon="8.79858">
        <ele>1030</ele>
        <time>2021-08-04T09:01:37.871Z</time>
      </trkpt>
      <trkpt lat="46.98918" lon="8.79856">
        <ele>1029</ele>
        <time>2021-08-04T09:01:38.871Z</time>
      </trkpt>
      <trkpt lat="46.98918" lon="8.79855">
        <ele>1029</ele>
        <time>2021-08-04T09:01:39.871Z</time>
      </trkpt>
      <trkpt lat="46.98917" lon="8.79854">
        <ele>1029</ele>
        <time>2021-08-04T09:01:40.871Z</time>
      </trkpt>
      <trkpt lat="46.98917" lon="8.79853">
        <ele>1028</ele>
        <time>2021-08-04T09:01:41.871Z</time>
      </trkpt>
      <trkpt lat="46.98917" lon="8.79852">
        <ele>1028</ele>
        <time>2021-08-04T09:01:42.871Z</time>
      </trkpt>
      <trkpt lat="46.98916" lon="8.79851">
        <ele>1028</ele>
        <time>2021-08-04T09:01:43.871Z</time>
      </trkpt>
      <trkpt lat="46.98916" lon="8.7985">
        <ele>1028</ele>
        <time>2021-08-04T09:01:44.871Z</time>
      </trkpt>
      <trkpt lat="46.98915" lon="8.79849">
        <ele>1028</ele>
        <time>2021-08-04T09:01:45.871Z</time>
      </trkpt>
      <trkpt lat="46.98914" lon="8.79848">
        <ele>1028</ele>
        <time>2021-08-04T09:01:46.871Z</time>
      </trkpt>
      <trkpt lat="46.98914" lon="8.79847">
        <ele>1028</ele>
        <time>2021-08-04T09:01:47.871Z</time>
      </trkpt>
      <trkpt lat="46.98913" lon="8.79846">
        <ele>1028</ele>
        <time>2021-08-04T09:01:48.871Z</time>
      </trkpt>
      <trkpt lat="46.98913" lon="8.79844">
        <ele>1028</ele>
        <time>2021-08-04T09:01:49.871Z</time>
      </trkpt>
      <trkpt lat="46.98912" lon="8.79843">
        <ele>1028</ele>
        <time>2021-08-04T09:01:50.871Z</time>
      </trkpt>
      <trkpt lat="46.98911" lon="8.79841">
        <ele>1028</ele>
        <time>2021-08-04T09:01:51.871Z</time>
      </trkpt>
      <trkpt lat="46.9891" lon="8.7984">
        <ele>1028</ele>
        <time>2021-08-04T09:01:52.871Z</time>
      </trkpt>
      <trkpt lat="46.9891" lon="8.79837">
        <ele>1028</ele>
        <time>2021-08-04T09:01:53.871Z</time>
      </trkpt>
      <trkpt lat="46.98909" lon="8.79835">
        <ele>1027</ele>
        <time>2021-08-04T09:01:54.871Z</time>
      </trkpt>
      <trkpt lat="46.98909" lon="8.79834">
        <ele>1027</ele>
        <time>2021-08-04T09:01:55.872Z</time>
      </trkpt>
      <trkpt lat="46.98908" lon="8.79832">
        <ele>1027</ele>
        <time>2021-08-04T09:01:56.872Z</time>
      </trkpt>
      <trkpt lat="46.98908" lon="8.7983">
        <ele>1027</ele>
        <time>2021-08-04T09:01:57.871Z</time>
      </trkpt>
      <trkpt lat="46.98908" lon="8.79828">
        <ele>1027</ele>
        <time>2021-08-04T09:01:58.871Z</time>
      </trkpt>
      <trkpt lat="46.98907" lon="8.79826">
        <ele>1027</ele>
        <time>2021-08-04T09:01:59.871Z</time>
      </trkpt>
      <trkpt lat="46.98906" lon="8.79825">
        <ele>1027</ele>
        <time>2021-08-04T09:02:00.872Z</time>
      </trkpt>
      <trkpt lat="46.98906" lon="8.79825">
        <ele>1027</ele>
        <time>2021-08-04T09:02:01.872Z</time>
      </trkpt>
      <trkpt lat="46.98905" lon="8.79824">
        <ele>1027</ele>
        <time>2021-08-04T09:02:02.871Z</time>
      </trkpt>
      <trkpt lat="46.98905" lon="8.79823">
        <ele>1027</ele>
        <time>2021-08-04T09:02:03.872Z</time>
      </trkpt>
      <trkpt lat="46.98905" lon="8.79822">
        <ele>1027</ele>
        <time>2021-08-04T09:02:04.872Z</time>
      </trkpt>
      <trkpt lat="46.98904" lon="8.79822">
        <ele>1027</ele>
        <time>2021-08-04T09:02:05.872Z</time>
      </trkpt>
      <trkpt lat="46.98904" lon="8.79821">
        <ele>1027</ele>
        <time>2021-08-04T09:02:06.872Z</time>
      </trkpt>
      <trkpt lat="46.98903" lon="8.7982">
        <ele>1027</ele>
        <time>2021-08-04T09:02:07.871Z</time>
      </trkpt>
      <trkpt lat="46.98903" lon="8.79818">
        <ele>1027</ele>
        <time>2021-08-04T09:02:08.872Z</time>
      </trkpt>
      <trkpt lat="46.98903" lon="8.79817">
        <ele>1027</ele>
        <time>2021-08-04T09:02:09.872Z</time>
      </trkpt>
      <trkpt lat="46.98903" lon="8.79817">
        <ele>1027</ele>
        <time>2021-08-04T09:02:10.872Z</time>
      </trkpt>
      <trkpt lat="46.98903" lon="8.79816">
        <ele>1026</ele>
        <time>2021-08-04T09:02:11.871Z</time>
      </trkpt>
      <trkpt lat="46.98903" lon="8.79816">
        <ele>1026</ele>
        <time>2021-08-04T09:02:12.872Z</time>
      </trkpt>
      <trkpt lat="46.98903" lon="8.79815">
        <ele>1026</ele>
        <time>2021-08-04T09:02:13.872Z</time>
      </trkpt>
      <trkpt lat="46.98904" lon="8.79815">
        <ele>1026</ele>
        <time>2021-08-04T09:02:14.871Z</time>
      </trkpt>
      <trkpt lat="46.98904" lon="8.79814">
        <ele>1025</ele>
        <time>2021-08-04T09:02:15.871Z</time>
      </trkpt>
      <trkpt lat="46.98904" lon="8.79813">
        <ele>1025</ele>
        <time>2021-08-04T09:02:16.872Z</time>
      </trkpt>
      <trkpt lat="46.98903" lon="8.79813">
        <ele>1025</ele>
        <time>2021-08-04T09:02:17.872Z</time>
      </trkpt>
      <trkpt lat="46.98904" lon="8.79812">
        <ele>1025</ele>
        <time>2021-08-04T09:02:18.872Z</time>
      </trkpt>
      <trkpt lat="46.98904" lon="8.79811">
        <ele>1024</ele>
        <time>2021-08-04T09:02:19.872Z</time>
      </trkpt>
      <trkpt lat="46.98905" lon="8.7981">
        <ele>1023</ele>
        <time>2021-08-04T09:02:20.873Z</time>
      </trkpt>
      <trkpt lat="46.98905" lon="8.7981">
        <ele>1023</ele>
        <time>2021-08-04T09:02:21.872Z</time>
      </trkpt>
      <trkpt lat="46.98905" lon="8.7981">
        <ele>1023</ele>
        <time>2021-08-04T09:02:22.873Z</time>
      </trkpt>
      <trkpt lat="46.98904" lon="8.7981">
        <ele>1023</ele>
        <time>2021-08-04T09:02:23.873Z</time>
      </trkpt>
      <trkpt lat="46.98903" lon="8.79808">
        <ele>1023</ele>
        <time>2021-08-04T09:02:24.872Z</time>
      </trkpt>
      <trkpt lat="46.98903" lon="8.79805">
        <ele>1023</ele>
        <time>2021-08-04T09:02:25.872Z</time>
      </trkpt>
      <trkpt lat="46.98902" lon="8.79803">
        <ele>1023</ele>
        <time>2021-08-04T09:02:26.872Z</time>
      </trkpt>
      <trkpt lat="46.98902" lon="8.79801">
        <ele>1023</ele>
        <time>2021-08-04T09:02:27.873Z</time>
      </trkpt>
      <trkpt lat="46.98901" lon="8.798">
        <ele>1022</ele>
        <time>2021-08-04T09:02:28.872Z</time>
      </trkpt>
      <trkpt lat="46.98901" lon="8.79799">
        <ele>1022</ele>
        <time>2021-08-04T09:02:29.872Z</time>
      </trkpt>
      <trkpt lat="46.98899" lon="8.79799">
        <ele>1022</ele>
        <time>2021-08-04T09:02:30.873Z</time>
      </trkpt>
      <trkpt lat="46.98899" lon="8.79797">
        <ele>1021</ele>
        <time>2021-08-04T09:02:31.872Z</time>
      </trkpt>
      <trkpt lat="46.98899" lon="8.79796">
        <ele>1020</ele>
        <time>2021-08-04T09:02:32.873Z</time>
      </trkpt>
      <trkpt lat="46.98899" lon="8.79795">
        <ele>1020</ele>
        <time>2021-08-04T09:02:33.873Z</time>
      </trkpt>
      <trkpt lat="46.98899" lon="8.79794">
        <ele>1019</ele>
        <time>2021-08-04T09:02:34.872Z</time>
      </trkpt>
      <trkpt lat="46.98898" lon="8.79792">
        <ele>1019</ele>
        <time>2021-08-04T09:02:35.873Z</time>
      </trkpt>
      <trkpt lat="46.98898" lon="8.79791">
        <ele>1019</ele>
        <time>2021-08-04T09:02:36.872Z</time>
      </trkpt>
      <trkpt lat="46.98897" lon="8.79791">
        <ele>1018</ele>
        <time>2021-08-04T09:02:37.873Z</time>
      </trkpt>
      <trkpt lat="46.98897" lon="8.7979">
        <ele>1018</ele>
        <time>2021-08-04T09:02:38.872Z</time>
      </trkpt>
      <trkpt lat="46.98897" lon="8.79789">
        <ele>1018</ele>
        <time>2021-08-04T09:02:39.872Z</time>
      </trkpt>
      <trkpt lat="46.98896" lon="8.79789">
        <ele>1018</ele>
        <time>2021-08-04T09:02:40.872Z</time>
      </trkpt>
      <trkpt lat="46.98896" lon="8.79788">
        <ele>1017</ele>
        <time>2021-08-04T09:02:41.873Z</time>
      </trkpt>
      <trkpt lat="46.98895" lon="8.79787">
        <ele>1017</ele>
        <time>2021-08-04T09:02:42.873Z</time>
      </trkpt>
      <trkpt lat="46.98894" lon="8.79787">
        <ele>1016</ele>
        <time>2021-08-04T09:02:43.873Z</time>
      </trkpt>
      <trkpt lat="46.98894" lon="8.79786">
        <ele>1016</ele>
        <time>2021-08-04T09:02:44.872Z</time>
      </trkpt>
      <trkpt lat="46.98893" lon="8.79785">
        <ele>1016</ele>
        <time>2021-08-04T09:02:45.872Z</time>
      </trkpt>
      <trkpt lat="46.98893" lon="8.79784">
        <ele>1016</ele>
        <time>2021-08-04T09:02:46.872Z</time>
      </trkpt>
      <trkpt lat="46.98893" lon="8.79783">
        <ele>1016</ele>
        <time>2021-08-04T09:02:47.872Z</time>
      </trkpt>
      <trkpt lat="46.98893" lon="8.79783">
        <ele>1017</ele>
        <time>2021-08-04T09:02:48.872Z</time>
      </trkpt>
      <trkpt lat="46.98892" lon="8.79783">
        <ele>1017</ele>
        <time>2021-08-04T09:02:49.873Z</time>
      </trkpt>
      <trkpt lat="46.98892" lon="8.79783">
        <ele>1017</ele>
        <time>2021-08-04T09:02:50.872Z</time>
      </trkpt>
      <trkpt lat="46.98891" lon="8.79781">
        <ele>1015</ele>
        <time>2021-08-04T09:02:51.873Z</time>
      </trkpt>
      <trkpt lat="46.98891" lon="8.7978">
        <ele>1014</ele>
        <time>2021-08-04T09:02:52.874Z</time>
      </trkpt>
      <trkpt lat="46.98891" lon="8.79779">
        <ele>1014</ele>
        <time>2021-08-04T09:02:53.874Z</time>
      </trkpt>
      <trkpt lat="46.98891" lon="8.79778">
        <ele>1014</ele>
        <time>2021-08-04T09:02:54.874Z</time>
      </trkpt>
      <trkpt lat="46.98891" lon="8.79777">
        <ele>1013</ele>
        <time>2021-08-04T09:02:55.874Z</time>
      </trkpt>
      <trkpt lat="46.9889" lon="8.79776">
        <ele>1013</ele>
        <time>2021-08-04T09:02:56.874Z</time>
      </trkpt>
      <trkpt lat="46.9889" lon="8.79774">
        <ele>1013</ele>
        <time>2021-08-04T09:02:57.874Z</time>
      </trkpt>
      <trkpt lat="46.98889" lon="8.79771">
        <ele>1012</ele>
        <time>2021-08-04T09:02:58.874Z</time>
      </trkpt>
      <trkpt lat="46.98888" lon="8.7977">
        <ele>1012</ele>
        <time>2021-08-04T09:02:59.874Z</time>
      </trkpt>
      <trkpt lat="46.98887" lon="8.79767">
        <ele>1012</ele>
        <time>2021-08-04T09:03:00.874Z</time>
      </trkpt>
      <trkpt lat="46.98886" lon="8.79765">
        <ele>1011</ele>
        <time>2021-08-04T09:03:01.874Z</time>
      </trkpt>
      <trkpt lat="46.98885" lon="8.79763">
        <ele>1011</ele>
        <time>2021-08-04T09:03:02.874Z</time>
      </trkpt>
      <trkpt lat="46.98884" lon="8.79762">
        <ele>1011</ele>
        <time>2021-08-04T09:03:03.874Z</time>
      </trkpt>
      <trkpt lat="46.98883" lon="8.79761">
        <ele>1011</ele>
        <time>2021-08-04T09:03:04.874Z</time>
      </trkpt>
      <trkpt lat="46.98882" lon="8.79759">
        <ele>1011</ele>
        <time>2021-08-04T09:03:05.874Z</time>
      </trkpt>
      <trkpt lat="46.98881" lon="8.79758">
        <ele>1010</ele>
        <time>2021-08-04T09:03:06.873Z</time>
      </trkpt>
      <trkpt lat="46.9888" lon="8.79757">
        <ele>1010</ele>
        <time>2021-08-04T09:03:07.874Z</time>
      </trkpt>
      <trkpt lat="46.98879" lon="8.79756">
        <ele>1010</ele>
        <time>2021-08-04T09:03:08.873Z</time>
      </trkpt>
      <trkpt lat="46.98878" lon="8.79755">
        <ele>1010</ele>
        <time>2021-08-04T09:03:09.874Z</time>
      </trkpt>
      <trkpt lat="46.98878" lon="8.79754">
        <ele>1010</ele>
        <time>2021-08-04T09:03:10.874Z</time>
      </trkpt>
      <trkpt lat="46.98877" lon="8.79753">
        <ele>1010</ele>
        <time>2021-08-04T09:03:11.874Z</time>
      </trkpt>
      <trkpt lat="46.98875" lon="8.79752">
        <ele>1010</ele>
        <time>2021-08-04T09:03:12.873Z</time>
      </trkpt>
      <trkpt lat="46.98875" lon="8.79751">
        <ele>1010</ele>
        <time>2021-08-04T09:03:13.874Z</time>
      </trkpt>
      <trkpt lat="46.98875" lon="8.7975">
        <ele>1011</ele>
        <time>2021-08-04T09:03:14.874Z</time>
      </trkpt>
      <trkpt lat="46.98875" lon="8.7975">
        <ele>1011</ele>
        <time>2021-08-04T09:03:15.873Z</time>
      </trkpt>
      <trkpt lat="46.98875" lon="8.79749">
        <ele>1011</ele>
        <time>2021-08-04T09:03:16.874Z</time>
      </trkpt>
      <trkpt lat="46.98874" lon="8.79749">
        <ele>1011</ele>
        <time>2021-08-04T09:03:17.874Z</time>
      </trkpt>
      <trkpt lat="46.98874" lon="8.79749">
        <ele>1011</ele>
        <time>2021-08-04T09:03:18.873Z</time>
      </trkpt>
      <trkpt lat="46.98873" lon="8.79748">
        <ele>1011</ele>
        <time>2021-08-04T09:03:19.873Z</time>
      </trkpt>
      <trkpt lat="46.98873" lon="8.79747">
        <ele>1011</ele>
        <time>2021-08-04T09:03:20.874Z</time>
      </trkpt>
      <trkpt lat="46.98872" lon="8.79745">
        <ele>1011</ele>
        <time>2021-08-04T09:03:21.873Z</time>
      </trkpt>
      <trkpt lat="46.98872" lon="8.79743">
        <ele>1011</ele>
        <time>2021-08-04T09:03:22.874Z</time>
      </trkpt>
      <trkpt lat="46.98872" lon="8.79742">
        <ele>1010</ele>
        <time>2021-08-04T09:03:23.873Z</time>
      </trkpt>
      <trkpt lat="46.98872" lon="8.79741">
        <ele>1010</ele>
        <time>2021-08-04T09:03:24.874Z</time>
      </trkpt>
      <trkpt lat="46.98872" lon="8.7974">
        <ele>1010</ele>
        <time>2021-08-04T09:03:25.874Z</time>
      </trkpt>
      <trkpt lat="46.98871" lon="8.7974">
        <ele>1010</ele>
        <time>2021-08-04T09:03:26.873Z</time>
      </trkpt>
      <trkpt lat="46.98871" lon="8.79739">
        <ele>1010</ele>
        <time>2021-08-04T09:03:27.874Z</time>
      </trkpt>
      <trkpt lat="46.98871" lon="8.79738">
        <ele>1009</ele>
        <time>2021-08-04T09:03:28.874Z</time>
      </trkpt>
      <trkpt lat="46.9887" lon="8.79737">
        <ele>1009</ele>
        <time>2021-08-04T09:03:29.874Z</time>
      </trkpt>
      <trkpt lat="46.98869" lon="8.79737">
        <ele>1009</ele>
        <time>2021-08-04T09:03:30.873Z</time>
      </trkpt>
      <trkpt lat="46.98868" lon="8.79737">
        <ele>1009</ele>
        <time>2021-08-04T09:03:31.874Z</time>
      </trkpt>
      <trkpt lat="46.98867" lon="8.79736">
        <ele>1009</ele>
        <time>2021-08-04T09:03:32.874Z</time>
      </trkpt>
      <trkpt lat="46.98867" lon="8.79735">
        <ele>1009</ele>
        <time>2021-08-04T09:03:33.874Z</time>
      </trkpt>
      <trkpt lat="46.98866" lon="8.79734">
        <ele>1009</ele>
        <time>2021-08-04T09:03:34.874Z</time>
      </trkpt>
      <trkpt lat="46.98865" lon="8.79734">
        <ele>1009</ele>
        <time>2021-08-04T09:03:35.874Z</time>
      </trkpt>
      <trkpt lat="46.98864" lon="8.79734">
        <ele>1009</ele>
        <time>2021-08-04T09:03:36.874Z</time>
      </trkpt>
      <trkpt lat="46.98863" lon="8.79734">
        <ele>1009</ele>
        <time>2021-08-04T09:03:37.874Z</time>
      </trkpt>
      <trkpt lat="46.98862" lon="8.79733">
        <ele>1009</ele>
        <time>2021-08-04T09:03:38.874Z</time>
      </trkpt>
      <trkpt lat="46.98861" lon="8.79732">
        <ele>1008</ele>
        <time>2021-08-04T09:03:39.873Z</time>
      </trkpt>
      <trkpt lat="46.98861" lon="8.79732">
        <ele>1008</ele>
        <time>2021-08-04T09:03:40.874Z</time>
      </trkpt>
      <trkpt lat="46.98861" lon="8.79731">
        <ele>1008</ele>
        <time>2021-08-04T09:03:41.874Z</time>
      </trkpt>
      <trkpt lat="46.9886" lon="8.7973">
        <ele>1007</ele>
        <time>2021-08-04T09:03:42.874Z</time>
      </trkpt>
      <trkpt lat="46.9886" lon="8.79728">
        <ele>1007</ele>
        <time>2021-08-04T09:03:43.873Z</time>
      </trkpt>
      <trkpt lat="46.98859" lon="8.79726">
        <ele>1007</ele>
        <time>2021-08-04T09:03:44.874Z</time>
      </trkpt>
      <trkpt lat="46.98859" lon="8.79724">
        <ele>1007</ele>
        <time>2021-08-04T09:03:45.874Z</time>
      </trkpt>
      <trkpt lat="46.98859" lon="8.79722">
        <ele>1007</ele>
        <time>2021-08-04T09:03:46.873Z</time>
      </trkpt>
      <trkpt lat="46.98859" lon="8.79722">
        <ele>1007</ele>
        <time>2021-08-04T09:03:47.874Z</time>
      </trkpt>
      <trkpt lat="46.98859" lon="8.7972">
        <ele>1007</ele>
        <time>2021-08-04T09:03:48.873Z</time>
      </trkpt>
      <trkpt lat="46.98858" lon="8.79719">
        <ele>1006</ele>
        <time>2021-08-04T09:03:49.873Z</time>
      </trkpt>
      <trkpt lat="46.98858" lon="8.79717">
        <ele>1006</ele>
        <time>2021-08-04T09:03:50.874Z</time>
      </trkpt>
      <trkpt lat="46.98857" lon="8.79715">
        <ele>1005</ele>
        <time>2021-08-04T09:03:51.873Z</time>
      </trkpt>
      <trkpt lat="46.98857" lon="8.79713">
        <ele>1005</ele>
        <time>2021-08-04T09:03:52.874Z</time>
      </trkpt>
      <trkpt lat="46.98857" lon="8.79712">
        <ele>1005</ele>
        <time>2021-08-04T09:03:53.873Z</time>
      </trkpt>
      <trkpt lat="46.98857" lon="8.7971">
        <ele>1004</ele>
        <time>2021-08-04T09:03:54.873Z</time>
      </trkpt>
      <trkpt lat="46.98857" lon="8.79709">
        <ele>1004</ele>
        <time>2021-08-04T09:03:55.873Z</time>
      </trkpt>
      <trkpt lat="46.98857" lon="8.79709">
        <ele>1003</ele>
        <time>2021-08-04T09:03:56.874Z</time>
      </trkpt>
      <trkpt lat="46.98856" lon="8.79709">
        <ele>1003</ele>
        <time>2021-08-04T09:03:57.873Z</time>
      </trkpt>
      <trkpt lat="46.98857" lon="8.79709">
        <ele>1003</ele>
        <time>2021-08-04T09:03:58.874Z</time>
      </trkpt>
      <trkpt lat="46.98857" lon="8.7971">
        <ele>1002</ele>
        <time>2021-08-04T09:03:59.874Z</time>
      </trkpt>
      <trkpt lat="46.98857" lon="8.79708">
        <ele>1002</ele>
        <time>2021-08-04T09:04:00.873Z</time>
      </trkpt>
      <trkpt lat="46.98857" lon="8.79707">
        <ele>1002</ele>
        <time>2021-08-04T09:04:01.874Z</time>
      </trkpt>
      <trkpt lat="46.98856" lon="8.79704">
        <ele>1003</ele>
        <time>2021-08-04T09:04:02.874Z</time>
      </trkpt>
      <trkpt lat="46.98856" lon="8.79703">
        <ele>1002</ele>
        <time>2021-08-04T09:04:03.874Z</time>
      </trkpt>
      <trkpt lat="46.98855" lon="8.79702">
        <ele>1002</ele>
        <time>2021-08-04T09:04:04.874Z</time>
      </trkpt>
      <trkpt lat="46.98855" lon="8.79701">
        <ele>1002</ele>
        <time>2021-08-04T09:04:05.874Z</time>
      </trkpt>
      <trkpt lat="46.98855" lon="8.79701">
        <ele>1003</ele>
        <time>2021-08-04T09:04:06.874Z</time>
      </trkpt>
      <trkpt lat="46.98855" lon="8.797">
        <ele>1003</ele>
        <time>2021-08-04T09:04:07.873Z</time>
      </trkpt>
      <trkpt lat="46.98854" lon="8.797">
        <ele>1003</ele>
        <time>2021-08-04T09:04:08.874Z</time>
      </trkpt>
      <trkpt lat="46.98854" lon="8.797">
        <ele>1003</ele>
        <time>2021-08-04T09:04:09.874Z</time>
      </trkpt>
      <trkpt lat="46.98853" lon="8.79699">
        <ele>1003</ele>
        <time>2021-08-04T09:04:10.874Z</time>
      </trkpt>
      <trkpt lat="46.98853" lon="8.79698">
        <ele>1003</ele>
        <time>2021-08-04T09:04:11.874Z</time>
      </trkpt>
      <trkpt lat="46.98852" lon="8.79697">
        <ele>1003</ele>
        <time>2021-08-04T09:04:12.874Z</time>
      </trkpt>
      <trkpt lat="46.9885" lon="8.79697">
        <ele>1003</ele>
        <time>2021-08-04T09:04:13.874Z</time>
      </trkpt>
      <trkpt lat="46.9885" lon="8.79697">
        <ele>1003</ele>
        <time>2021-08-04T09:04:14.874Z</time>
      </trkpt>
      <trkpt lat="46.9885" lon="8.79697">
        <ele>1004</ele>
        <time>2021-08-04T09:04:15.873Z</time>
      </trkpt>
      <trkpt lat="46.9885" lon="8.79696">
        <ele>1004</ele>
        <time>2021-08-04T09:04:16.873Z</time>
      </trkpt>
      <trkpt lat="46.98851" lon="8.79696">
        <ele>1004</ele>
        <time>2021-08-04T09:04:17.874Z</time>
      </trkpt>
      <trkpt lat="46.98851" lon="8.79696">
        <ele>1004</ele>
        <time>2021-08-04T09:04:18.873Z</time>
      </trkpt>
      <trkpt lat="46.98851" lon="8.79695">
        <ele>1004</ele>
        <time>2021-08-04T09:04:19.873Z</time>
      </trkpt>
      <trkpt lat="46.98851" lon="8.79694">
        <ele>1004</ele>
        <time>2021-08-04T09:04:20.874Z</time>
      </trkpt>
      <trkpt lat="46.98851" lon="8.79694">
        <ele>1004</ele>
        <time>2021-08-04T09:04:21.873Z</time>
      </trkpt>
      <trkpt lat="46.9885" lon="8.79693">
        <ele>1005</ele>
        <time>2021-08-04T09:04:22.874Z</time>
      </trkpt>
      <trkpt lat="46.98849" lon="8.79691">
        <ele>1005</ele>
        <time>2021-08-04T09:04:23.873Z</time>
      </trkpt>
      <trkpt lat="46.98848" lon="8.7969">
        <ele>1005</ele>
        <time>2021-08-04T09:04:24.873Z</time>
      </trkpt>
      <trkpt lat="46.98848" lon="8.79689">
        <ele>1005</ele>
        <time>2021-08-04T09:04:25.873Z</time>
      </trkpt>
      <trkpt lat="46.98848" lon="8.79687">
        <ele>1005</ele>
        <time>2021-08-04T09:04:26.873Z</time>
      </trkpt>
      <trkpt lat="46.98848" lon="8.79686">
        <ele>1006</ele>
        <time>2021-08-04T09:04:27.873Z</time>
      </trkpt>
      <trkpt lat="46.98848" lon="8.79685">
        <ele>1006</ele>
        <time>2021-08-04T09:04:28.873Z</time>
      </trkpt>
      <trkpt lat="46.98848" lon="8.79684">
        <ele>1007</ele>
        <time>2021-08-04T09:04:29.873Z</time>
      </trkpt>
      <trkpt lat="46.98847" lon="8.79684">
        <ele>1007</ele>
        <time>2021-08-04T09:04:30.873Z</time>
      </trkpt>
      <trkpt lat="46.98848" lon="8.79684">
        <ele>1007</ele>
        <time>2021-08-04T09:04:31.873Z</time>
      </trkpt>
      <trkpt lat="46.98848" lon="8.79683">
        <ele>1007</ele>
        <time>2021-08-04T09:04:32.873Z</time>
      </trkpt>
      <trkpt lat="46.98848" lon="8.79682">
        <ele>1007</ele>
        <time>2021-08-04T09:04:33.874Z</time>
      </trkpt>
      <trkpt lat="46.98848" lon="8.79681">
        <ele>1007</ele>
        <time>2021-08-04T09:04:34.873Z</time>
      </trkpt>
      <trkpt lat="46.98849" lon="8.79679">
        <ele>1007</ele>
        <time>2021-08-04T09:04:35.874Z</time>
      </trkpt>
      <trkpt lat="46.98849" lon="8.79676">
        <ele>1006</ele>
        <time>2021-08-04T09:04:36.873Z</time>
      </trkpt>
      <trkpt lat="46.98849" lon="8.79674">
        <ele>1006</ele>
        <time>2021-08-04T09:04:37.874Z</time>
      </trkpt>
      <trkpt lat="46.98849" lon="8.79672">
        <ele>1006</ele>
        <time>2021-08-04T09:04:38.874Z</time>
      </trkpt>
      <trkpt lat="46.98848" lon="8.7967">
        <ele>1006</ele>
        <time>2021-08-04T09:04:39.874Z</time>
      </trkpt>
      <trkpt lat="46.98847" lon="8.79668">
        <ele>1006</ele>
        <time>2021-08-04T09:04:40.874Z</time>
      </trkpt>
      <trkpt lat="46.98846" lon="8.79667">
        <ele>1005</ele>
        <time>2021-08-04T09:04:41.873Z</time>
      </trkpt>
      <trkpt lat="46.98846" lon="8.79666">
        <ele>1005</ele>
        <time>2021-08-04T09:04:42.874Z</time>
      </trkpt>
      <trkpt lat="46.98845" lon="8.79666">
        <ele>1005</ele>
        <time>2021-08-04T09:04:43.874Z</time>
      </trkpt>
      <trkpt lat="46.98845" lon="8.79665">
        <ele>1005</ele>
        <time>2021-08-04T09:04:44.873Z</time>
      </trkpt>
      <trkpt lat="46.9884" lon="8.79659">
        <ele>998</ele>
        <time>2021-08-04T09:04:45.874Z</time>
      </trkpt>
      <trkpt lat="46.9884" lon="8.79657">
        <ele>997</ele>
        <time>2021-08-04T09:04:46.875Z</time>
      </trkpt>
      <trkpt lat="46.98841" lon="8.79654">
        <ele>997</ele>
        <time>2021-08-04T09:04:47.874Z</time>
      </trkpt>
      <trkpt lat="46.9884" lon="8.79653">
        <ele>996</ele>
        <time>2021-08-04T09:04:48.875Z</time>
      </trkpt>
      <trkpt lat="46.98837" lon="8.79652">
        <ele>993</ele>
        <time>2021-08-04T09:04:49.875Z</time>
      </trkpt>
      <trkpt lat="46.98837" lon="8.79652">
        <ele>993</ele>
        <time>2021-08-04T09:04:50.875Z</time>
      </trkpt>
      <trkpt lat="46.98837" lon="8.79652">
        <ele>992</ele>
        <time>2021-08-04T09:04:51.874Z</time>
      </trkpt>
      <trkpt lat="46.98837" lon="8.79651">
        <ele>992</ele>
        <time>2021-08-04T09:04:52.875Z</time>
      </trkpt>
      <trkpt lat="46.98837" lon="8.79651">
        <ele>992</ele>
        <time>2021-08-04T09:04:53.875Z</time>
      </trkpt>
      <trkpt lat="46.98837" lon="8.79651">
        <ele>992</ele>
        <time>2021-08-04T09:04:54.875Z</time>
      </trkpt>
      <trkpt lat="46.98837" lon="8.7965">
        <ele>991</ele>
        <time>2021-08-04T09:04:55.877Z</time>
      </trkpt>
      <trkpt lat="46.98838" lon="8.7965">
        <ele>991</ele>
        <time>2021-08-04T09:04:56.877Z</time>
      </trkpt>
      <trkpt lat="46.98838" lon="8.7965">
        <ele>991</ele>
        <time>2021-08-04T09:04:57.876Z</time>
      </trkpt>
      <trkpt lat="46.98837" lon="8.79648">
        <ele>991</ele>
        <time>2021-08-04T09:04:58.877Z</time>
      </trkpt>
      <trkpt lat="46.98836" lon="8.79647">
        <ele>991</ele>
        <time>2021-08-04T09:04:59.877Z</time>
      </trkpt>
      <trkpt lat="46.98836" lon="8.79647">
        <ele>990</ele>
        <time>2021-08-04T09:05:00.876Z</time>
      </trkpt>
      <trkpt lat="46.98835" lon="8.79646">
        <ele>990</ele>
        <time>2021-08-04T09:05:01.876Z</time>
      </trkpt>
      <trkpt lat="46.98835" lon="8.79646">
        <ele>989</ele>
        <time>2021-08-04T09:05:02.877Z</time>
      </trkpt>
      <trkpt lat="46.98836" lon="8.79645">
        <ele>989</ele>
        <time>2021-08-04T09:05:03.877Z</time>
      </trkpt>
      <trkpt lat="46.98836" lon="8.79645">
        <ele>989</ele>
        <time>2021-08-04T09:05:04.876Z</time>
      </trkpt>
      <trkpt lat="46.98836" lon="8.79644">
        <ele>988</ele>
        <time>2021-08-04T09:05:05.876Z</time>
      </trkpt>
      <trkpt lat="46.98835" lon="8.79644">
        <ele>988</ele>
        <time>2021-08-04T09:05:06.877Z</time>
      </trkpt>
      <trkpt lat="46.98835" lon="8.79645">
        <ele>988</ele>
        <time>2021-08-04T09:05:07.877Z</time>
      </trkpt>
      <trkpt lat="46.98835" lon="8.79645">
        <ele>987</ele>
        <time>2021-08-04T09:05:08.877Z</time>
      </trkpt>
      <trkpt lat="46.98835" lon="8.79643">
        <ele>987</ele>
        <time>2021-08-04T09:05:09.878Z</time>
      </trkpt>
      <trkpt lat="46.98835" lon="8.79643">
        <ele>986</ele>
        <time>2021-08-04T09:05:10.878Z</time>
      </trkpt>
      <trkpt lat="46.98835" lon="8.79642">
        <ele>986</ele>
        <time>2021-08-04T09:05:11.877Z</time>
      </trkpt>
      <trkpt lat="46.98835" lon="8.79641">
        <ele>986</ele>
        <time>2021-08-04T09:05:12.877Z</time>
      </trkpt>
      <trkpt lat="46.98834" lon="8.7964">
        <ele>986</ele>
        <time>2021-08-04T09:05:13.878Z</time>
      </trkpt>
      <trkpt lat="46.98834" lon="8.79638">
        <ele>986</ele>
        <time>2021-08-04T09:05:14.878Z</time>
      </trkpt>
      <trkpt lat="46.98834" lon="8.79637">
        <ele>986</ele>
        <time>2021-08-04T09:05:15.878Z</time>
      </trkpt>
      <trkpt lat="46.98833" lon="8.79637">
        <ele>986</ele>
        <time>2021-08-04T09:05:16.878Z</time>
      </trkpt>
      <trkpt lat="46.98833" lon="8.79636">
        <ele>986</ele>
        <time>2021-08-04T09:05:17.877Z</time>
      </trkpt>
      <trkpt lat="46.98833" lon="8.79636">
        <ele>986</ele>
        <time>2021-08-04T09:05:18.878Z</time>
      </trkpt>
      <trkpt lat="46.98832" lon="8.79635">
        <ele>986</ele>
        <time>2021-08-04T09:05:19.878Z</time>
      </trkpt>
      <trkpt lat="46.98832" lon="8.79634">
        <ele>986</ele>
        <time>2021-08-04T09:05:20.877Z</time>
      </trkpt>
      <trkpt lat="46.98831" lon="8.79633">
        <ele>986</ele>
        <time>2021-08-04T09:05:21.877Z</time>
      </trkpt>
      <trkpt lat="46.98829" lon="8.79631">
        <ele>986</ele>
        <time>2021-08-04T09:05:22.877Z</time>
      </trkpt>
      <trkpt lat="46.98828" lon="8.7963">
        <ele>986</ele>
        <time>2021-08-04T09:05:23.877Z</time>
      </trkpt>
      <trkpt lat="46.98828" lon="8.79629">
        <ele>986</ele>
        <time>2021-08-04T09:05:24.877Z</time>
      </trkpt>
      <trkpt lat="46.98828" lon="8.79628">
        <ele>986</ele>
        <time>2021-08-04T09:05:25.877Z</time>
      </trkpt>
      <trkpt lat="46.98828" lon="8.79627">
        <ele>986</ele>
        <time>2021-08-04T09:05:26.877Z</time>
      </trkpt>
      <trkpt lat="46.98827" lon="8.79628">
        <ele>986</ele>
        <time>2021-08-04T09:05:27.877Z</time>
      </trkpt>
      <trkpt lat="46.98827" lon="8.79627">
        <ele>987</ele>
        <time>2021-08-04T09:05:28.877Z</time>
      </trkpt>
      <trkpt lat="46.98827" lon="8.79627">
        <ele>987</ele>
        <time>2021-08-04T09:05:29.877Z</time>
      </trkpt>
      <trkpt lat="46.98826" lon="8.79626">
        <ele>988</ele>
        <time>2021-08-04T09:05:30.877Z</time>
      </trkpt>
      <trkpt lat="46.98826" lon="8.79625">
        <ele>989</ele>
        <time>2021-08-04T09:05:31.878Z</time>
      </trkpt>
      <trkpt lat="46.98826" lon="8.79624">
        <ele>989</ele>
        <time>2021-08-04T09:05:32.878Z</time>
      </trkpt>
      <trkpt lat="46.98825" lon="8.79624">
        <ele>989</ele>
        <time>2021-08-04T09:05:33.877Z</time>
      </trkpt>
      <trkpt lat="46.98824" lon="8.79623">
        <ele>990</ele>
        <time>2021-08-04T09:05:34.877Z</time>
      </trkpt>
      <trkpt lat="46.98823" lon="8.79622">
        <ele>990</ele>
        <time>2021-08-04T09:05:35.877Z</time>
      </trkpt>
      <trkpt lat="46.98822" lon="8.79621">
        <ele>990</ele>
        <time>2021-08-04T09:05:36.877Z</time>
      </trkpt>
      <trkpt lat="46.98821" lon="8.7962">
        <ele>990</ele>
        <time>2021-08-04T09:05:37.878Z</time>
      </trkpt>
      <trkpt lat="46.9882" lon="8.79619">
        <ele>990</ele>
        <time>2021-08-04T09:05:38.877Z</time>
      </trkpt>
      <trkpt lat="46.98819" lon="8.79619">
        <ele>991</ele>
        <time>2021-08-04T09:05:39.877Z</time>
      </trkpt>
      <trkpt lat="46.98819" lon="8.79617">
        <ele>991</ele>
        <time>2021-08-04T09:05:40.877Z</time>
      </trkpt>
      <trkpt lat="46.98818" lon="8.79615">
        <ele>991</ele>
        <time>2021-08-04T09:05:41.877Z</time>
      </trkpt>
      <trkpt lat="46.98818" lon="8.79614">
        <ele>991</ele>
        <time>2021-08-04T09:05:42.877Z</time>
      </trkpt>
      <trkpt lat="46.98818" lon="8.79613">
        <ele>991</ele>
        <time>2021-08-04T09:05:43.878Z</time>
      </trkpt>
      <trkpt lat="46.98818" lon="8.79611">
        <ele>991</ele>
        <time>2021-08-04T09:05:44.878Z</time>
      </trkpt>
      <trkpt lat="46.98818" lon="8.79609">
        <ele>990</ele>
        <time>2021-08-04T09:05:45.877Z</time>
      </trkpt>
      <trkpt lat="46.98818" lon="8.79607">
        <ele>990</ele>
        <time>2021-08-04T09:05:46.878Z</time>
      </trkpt>
      <trkpt lat="46.98817" lon="8.79606">
        <ele>990</ele>
        <time>2021-08-04T09:05:47.878Z</time>
      </trkpt>
      <trkpt lat="46.98817" lon="8.79605">
        <ele>990</ele>
        <time>2021-08-04T09:05:48.877Z</time>
      </trkpt>
      <trkpt lat="46.98817" lon="8.79604">
        <ele>990</ele>
        <time>2021-08-04T09:05:49.877Z</time>
      </trkpt>
      <trkpt lat="46.98816" lon="8.79603">
        <ele>990</ele>
        <time>2021-08-04T09:05:50.877Z</time>
      </trkpt>
      <trkpt lat="46.98816" lon="8.79601">
        <ele>990</ele>
        <time>2021-08-04T09:05:51.878Z</time>
      </trkpt>
      <trkpt lat="46.98815" lon="8.79599">
        <ele>990</ele>
        <time>2021-08-04T09:05:52.878Z</time>
      </trkpt>
      <trkpt lat="46.98815" lon="8.79597">
        <ele>989</ele>
        <time>2021-08-04T09:05:53.877Z</time>
      </trkpt>
      <trkpt lat="46.98815" lon="8.79595">
        <ele>989</ele>
        <time>2021-08-04T09:05:54.878Z</time>
      </trkpt>
      <trkpt lat="46.98815" lon="8.79594">
        <ele>989</ele>
        <time>2021-08-04T09:05:55.878Z</time>
      </trkpt>
      <trkpt lat="46.98815" lon="8.79592">
        <ele>989</ele>
        <time>2021-08-04T09:05:56.878Z</time>
      </trkpt>
      <trkpt lat="46.98815" lon="8.7959">
        <ele>989</ele>
        <time>2021-08-04T09:05:57.878Z</time>
      </trkpt>
      <trkpt lat="46.98814" lon="8.79587">
        <ele>989</ele>
        <time>2021-08-04T09:05:58.877Z</time>
      </trkpt>
      <trkpt lat="46.98813" lon="8.79583">
        <ele>989</ele>
        <time>2021-08-04T09:05:59.877Z</time>
      </trkpt>
      <trkpt lat="46.98813" lon="8.79581">
        <ele>989</ele>
        <time>2021-08-04T09:06:00.878Z</time>
      </trkpt>
      <trkpt lat="46.98814" lon="8.79579">
        <ele>989</ele>
        <time>2021-08-04T09:06:01.877Z</time>
      </trkpt>
      <trkpt lat="46.98814" lon="8.79578">
        <ele>989</ele>
        <time>2021-08-04T09:06:02.877Z</time>
      </trkpt>
      <trkpt lat="46.98815" lon="8.79576">
        <ele>989</ele>
        <time>2021-08-04T09:06:03.878Z</time>
      </trkpt>
      <trkpt lat="46.98816" lon="8.79575">
        <ele>989</ele>
        <time>2021-08-04T09:06:04.878Z</time>
      </trkpt>
      <trkpt lat="46.98816" lon="8.79573">
        <ele>989</ele>
        <time>2021-08-04T09:06:05.878Z</time>
      </trkpt>
      <trkpt lat="46.98816" lon="8.79572">
        <ele>990</ele>
        <time>2021-08-04T09:06:06.878Z</time>
      </trkpt>
      <trkpt lat="46.98816" lon="8.79571">
        <ele>990</ele>
        <time>2021-08-04T09:06:07.878Z</time>
      </trkpt>
      <trkpt lat="46.98816" lon="8.7957">
        <ele>990</ele>
        <time>2021-08-04T09:06:08.878Z</time>
      </trkpt>
      <trkpt lat="46.98816" lon="8.79569">
        <ele>991</ele>
        <time>2021-08-04T09:06:09.877Z</time>
      </trkpt>
      <trkpt lat="46.98816" lon="8.79568">
        <ele>991</ele>
        <time>2021-08-04T09:06:10.878Z</time>
      </trkpt>
      <trkpt lat="46.98816" lon="8.79566">
        <ele>991</ele>
        <time>2021-08-04T09:06:11.878Z</time>
      </trkpt>
      <trkpt lat="46.98816" lon="8.79565">
        <ele>991</ele>
        <time>2021-08-04T09:06:12.878Z</time>
      </trkpt>
      <trkpt lat="46.98816" lon="8.79563">
        <ele>991</ele>
        <time>2021-08-04T09:06:13.877Z</time>
      </trkpt>
      <trkpt lat="46.98816" lon="8.79562">
        <ele>991</ele>
        <time>2021-08-04T09:06:14.878Z</time>
      </trkpt>
      <trkpt lat="46.98816" lon="8.7956">
        <ele>991</ele>
        <time>2021-08-04T09:06:15.877Z</time>
      </trkpt>
      <trkpt lat="46.98816" lon="8.79559">
        <ele>991</ele>
        <time>2021-08-04T09:06:16.877Z</time>
      </trkpt>
      <trkpt lat="46.98817" lon="8.79557">
        <ele>991</ele>
        <time>2021-08-04T09:06:17.878Z</time>
      </trkpt>
      <trkpt lat="46.98816" lon="8.79555">
        <ele>990</ele>
        <time>2021-08-04T09:06:18.878Z</time>
      </trkpt>
      <trkpt lat="46.98815" lon="8.79553">
        <ele>990</ele>
        <time>2021-08-04T09:06:19.878Z</time>
      </trkpt>
      <trkpt lat="46.98815" lon="8.7955">
        <ele>990</ele>
        <time>2021-08-04T09:06:20.878Z</time>
      </trkpt>
      <trkpt lat="46.98814" lon="8.79548">
        <ele>990</ele>
        <time>2021-08-04T09:06:21.878Z</time>
      </trkpt>
      <trkpt lat="46.98813" lon="8.79546">
        <ele>990</ele>
        <time>2021-08-04T09:06:22.878Z</time>
      </trkpt>
      <trkpt lat="46.98813" lon="8.79545">
        <ele>990</ele>
        <time>2021-08-04T09:06:23.878Z</time>
      </trkpt>
      <trkpt lat="46.98813" lon="8.79543">
        <ele>990</ele>
        <time>2021-08-04T09:06:24.877Z</time>
      </trkpt>
      <trkpt lat="46.98813" lon="8.79541">
        <ele>990</ele>
        <time>2021-08-04T09:06:25.878Z</time>
      </trkpt>
      <trkpt lat="46.98814" lon="8.7954">
        <ele>990</ele>
        <time>2021-08-04T09:06:26.878Z</time>
      </trkpt>
      <trkpt lat="46.98814" lon="8.79538">
        <ele>989</ele>
        <time>2021-08-04T09:06:27.877Z</time>
      </trkpt>
      <trkpt lat="46.98814" lon="8.79536">
        <ele>988</ele>
        <time>2021-08-04T09:06:28.878Z</time>
      </trkpt>
      <trkpt lat="46.98814" lon="8.79534">
        <ele>987</ele>
        <time>2021-08-04T09:06:29.878Z</time>
      </trkpt>
      <trkpt lat="46.98815" lon="8.79532">
        <ele>986</ele>
        <time>2021-08-04T09:06:30.878Z</time>
      </trkpt>
      <trkpt lat="46.98815" lon="8.7953">
        <ele>985</ele>
        <time>2021-08-04T09:06:31.878Z</time>
      </trkpt>
      <trkpt lat="46.98815" lon="8.79529">
        <ele>984</ele>
        <time>2021-08-04T09:06:32.878Z</time>
      </trkpt>
      <trkpt lat="46.98815" lon="8.79526">
        <ele>982</ele>
        <time>2021-08-04T09:06:33.877Z</time>
      </trkpt>
      <trkpt lat="46.98814" lon="8.79524">
        <ele>981</ele>
        <time>2021-08-04T09:06:34.877Z</time>
      </trkpt>
      <trkpt lat="46.98813" lon="8.79522">
        <ele>980</ele>
        <time>2021-08-04T09:06:35.878Z</time>
      </trkpt>
      <trkpt lat="46.98812" lon="8.79519">
        <ele>980</ele>
        <time>2021-08-04T09:06:36.877Z</time>
      </trkpt>
      <trkpt lat="46.98812" lon="8.79517">
        <ele>979</ele>
        <time>2021-08-04T09:06:37.877Z</time>
      </trkpt>
      <trkpt lat="46.98812" lon="8.79514">
        <ele>978</ele>
        <time>2021-08-04T09:06:38.877Z</time>
      </trkpt>
      <trkpt lat="46.98812" lon="8.79511">
        <ele>978</ele>
        <time>2021-08-04T09:06:39.878Z</time>
      </trkpt>
      <trkpt lat="46.98812" lon="8.79509">
        <ele>977</ele>
        <time>2021-08-04T09:06:40.878Z</time>
      </trkpt>
      <trkpt lat="46.98811" lon="8.79506">
        <ele>977</ele>
        <time>2021-08-04T09:06:41.878Z</time>
      </trkpt>
      <trkpt lat="46.9881" lon="8.79504">
        <ele>977</ele>
        <time>2021-08-04T09:06:42.877Z</time>
      </trkpt>
      <trkpt lat="46.9881" lon="8.79502">
        <ele>977</ele>
        <time>2021-08-04T09:06:43.878Z</time>
      </trkpt>
      <trkpt lat="46.98811" lon="8.79501">
        <ele>977</ele>
        <time>2021-08-04T09:06:44.878Z</time>
      </trkpt>
      <trkpt lat="46.98811" lon="8.795">
        <ele>977</ele>
        <time>2021-08-04T09:06:45.878Z</time>
      </trkpt>
      <trkpt lat="46.98812" lon="8.79499">
        <ele>977</ele>
        <time>2021-08-04T09:06:46.877Z</time>
      </trkpt>
      <trkpt lat="46.98813" lon="8.79498">
        <ele>977</ele>
        <time>2021-08-04T09:06:47.878Z</time>
      </trkpt>
      <trkpt lat="46.98813" lon="8.79496">
        <ele>977</ele>
        <time>2021-08-04T09:06:48.877Z</time>
      </trkpt>
      <trkpt lat="46.98815" lon="8.79494">
        <ele>977</ele>
        <time>2021-08-04T09:06:49.878Z</time>
      </trkpt>
      <trkpt lat="46.98816" lon="8.79493">
        <ele>977</ele>
        <time>2021-08-04T09:06:50.877Z</time>
      </trkpt>
      <trkpt lat="46.98816" lon="8.79492">
        <ele>977</ele>
        <time>2021-08-04T09:06:51.877Z</time>
      </trkpt>
      <trkpt lat="46.98817" lon="8.7949">
        <ele>977</ele>
        <time>2021-08-04T09:06:52.878Z</time>
      </trkpt>
      <trkpt lat="46.98817" lon="8.79489">
        <ele>977</ele>
        <time>2021-08-04T09:06:53.878Z</time>
      </trkpt>
      <trkpt lat="46.98817" lon="8.79488">
        <ele>977</ele>
        <time>2021-08-04T09:06:54.878Z</time>
      </trkpt>
      <trkpt lat="46.98817" lon="8.79487">
        <ele>977</ele>
        <time>2021-08-04T09:06:55.877Z</time>
      </trkpt>
      <trkpt lat="46.98817" lon="8.79485">
        <ele>977</ele>
        <time>2021-08-04T09:06:56.878Z</time>
      </trkpt>
      <trkpt lat="46.98818" lon="8.79483">
        <ele>977</ele>
        <time>2021-08-04T09:06:57.878Z</time>
      </trkpt>
      <trkpt lat="46.98818" lon="8.79481">
        <ele>976</ele>
        <time>2021-08-04T09:06:58.878Z</time>
      </trkpt>
      <trkpt lat="46.98818" lon="8.79478">
        <ele>976</ele>
        <time>2021-08-04T09:06:59.877Z</time>
      </trkpt>
      <trkpt lat="46.98818" lon="8.79476">
        <ele>975</ele>
        <time>2021-08-04T09:07:00.877Z</time>
      </trkpt>
      <trkpt lat="46.98818" lon="8.79474">
        <ele>975</ele>
        <time>2021-08-04T09:07:01.877Z</time>
      </trkpt>
      <trkpt lat="46.98817" lon="8.79472">
        <ele>974</ele>
        <time>2021-08-04T09:07:02.878Z</time>
      </trkpt>
      <trkpt lat="46.98817" lon="8.7947">
        <ele>974</ele>
        <time>2021-08-04T09:07:03.877Z</time>
      </trkpt>
      <trkpt lat="46.98817" lon="8.79469">
        <ele>973</ele>
        <time>2021-08-04T09:07:04.878Z</time>
      </trkpt>
      <trkpt lat="46.98817" lon="8.79467">
        <ele>973</ele>
        <time>2021-08-04T09:07:05.878Z</time>
      </trkpt>
      <trkpt lat="46.98817" lon="8.79466">
        <ele>972</ele>
        <time>2021-08-04T09:07:06.877Z</time>
      </trkpt>
      <trkpt lat="46.98816" lon="8.79465">
        <ele>971</ele>
        <time>2021-08-04T09:07:07.878Z</time>
      </trkpt>
      <trkpt lat="46.98817" lon="8.79464">
        <ele>970</ele>
        <time>2021-08-04T09:07:08.878Z</time>
      </trkpt>
      <trkpt lat="46.98817" lon="8.79462">
        <ele>969</ele>
        <time>2021-08-04T09:07:09.877Z</time>
      </trkpt>
      <trkpt lat="46.98817" lon="8.7946">
        <ele>968</ele>
        <time>2021-08-04T09:07:10.877Z</time>
      </trkpt>
      <trkpt lat="46.98817" lon="8.79459">
        <ele>967</ele>
        <time>2021-08-04T09:07:11.877Z</time>
      </trkpt>
      <trkpt lat="46.98817" lon="8.79457">
        <ele>967</ele>
        <time>2021-08-04T09:07:12.878Z</time>
      </trkpt>
      <trkpt lat="46.98817" lon="8.79455">
        <ele>967</ele>
        <time>2021-08-04T09:07:13.878Z</time>
      </trkpt>
      <trkpt lat="46.98816" lon="8.79454">
        <ele>966</ele>
        <time>2021-08-04T09:07:14.877Z</time>
      </trkpt>
      <trkpt lat="46.98816" lon="8.79452">
        <ele>966</ele>
        <time>2021-08-04T09:07:15.878Z</time>
      </trkpt>
      <trkpt lat="46.98816" lon="8.79451">
        <ele>965</ele>
        <time>2021-08-04T09:07:16.878Z</time>
      </trkpt>
      <trkpt lat="46.98816" lon="8.79449">
        <ele>965</ele>
        <time>2021-08-04T09:07:17.878Z</time>
      </trkpt>
      <trkpt lat="46.98816" lon="8.79447">
        <ele>965</ele>
        <time>2021-08-04T09:07:18.878Z</time>
      </trkpt>
      <trkpt lat="46.98817" lon="8.79446">
        <ele>964</ele>
        <time>2021-08-04T09:07:19.877Z</time>
      </trkpt>
      <trkpt lat="46.98818" lon="8.79445">
        <ele>964</ele>
        <time>2021-08-04T09:07:20.878Z</time>
      </trkpt>
      <trkpt lat="46.98819" lon="8.79443">
        <ele>964</ele>
        <time>2021-08-04T09:07:21.878Z</time>
      </trkpt>
      <trkpt lat="46.9882" lon="8.79442">
        <ele>964</ele>
        <time>2021-08-04T09:07:22.878Z</time>
      </trkpt>
      <trkpt lat="46.98821" lon="8.79441">
        <ele>964</ele>
        <time>2021-08-04T09:07:23.878Z</time>
      </trkpt>
      <trkpt lat="46.98822" lon="8.7944">
        <ele>965</ele>
        <time>2021-08-04T09:07:24.878Z</time>
      </trkpt>
      <trkpt lat="46.98823" lon="8.7944">
        <ele>965</ele>
        <time>2021-08-04T09:07:25.878Z</time>
      </trkpt>
      <trkpt lat="46.98824" lon="8.79439">
        <ele>966</ele>
        <time>2021-08-04T09:07:26.877Z</time>
      </trkpt>
      <trkpt lat="46.98825" lon="8.79437">
        <ele>966</ele>
        <time>2021-08-04T09:07:27.877Z</time>
      </trkpt>
      <trkpt lat="46.98826" lon="8.79436">
        <ele>966</ele>
        <time>2021-08-04T09:07:28.878Z</time>
      </trkpt>
      <trkpt lat="46.98827" lon="8.79435">
        <ele>967</ele>
        <time>2021-08-04T09:07:29.878Z</time>
      </trkpt>
      <trkpt lat="46.98828" lon="8.79433">
        <ele>966</ele>
        <time>2021-08-04T09:07:30.877Z</time>
      </trkpt>
      <trkpt lat="46.98829" lon="8.79432">
        <ele>966</ele>
        <time>2021-08-04T09:07:31.878Z</time>
      </trkpt>
      <trkpt lat="46.9883" lon="8.7943">
        <ele>966</ele>
        <time>2021-08-04T09:07:32.877Z</time>
      </trkpt>
      <trkpt lat="46.98832" lon="8.79428">
        <ele>966</ele>
        <time>2021-08-04T09:07:33.878Z</time>
      </trkpt>
      <trkpt lat="46.98834" lon="8.79428">
        <ele>967</ele>
        <time>2021-08-04T09:07:34.878Z</time>
      </trkpt>
      <trkpt lat="46.98835" lon="8.79428">
        <ele>967</ele>
        <time>2021-08-04T09:07:35.877Z</time>
      </trkpt>
      <trkpt lat="46.98835" lon="8.79427">
        <ele>967</ele>
        <time>2021-08-04T09:07:36.878Z</time>
      </trkpt>
      <trkpt lat="46.98836" lon="8.79425">
        <ele>967</ele>
        <time>2021-08-04T09:07:37.878Z</time>
      </trkpt>
      <trkpt lat="46.98837" lon="8.79424">
        <ele>967</ele>
        <time>2021-08-04T09:07:38.878Z</time>
      </trkpt>
      <trkpt lat="46.98838" lon="8.79424">
        <ele>967</ele>
        <time>2021-08-04T09:07:39.877Z</time>
      </trkpt>
      <trkpt lat="46.98839" lon="8.79423">
        <ele>967</ele>
        <time>2021-08-04T09:07:40.878Z</time>
      </trkpt>
      <trkpt lat="46.9884" lon="8.79421">
        <ele>967</ele>
        <time>2021-08-04T09:07:41.878Z</time>
      </trkpt>
      <trkpt lat="46.98841" lon="8.7942">
        <ele>967</ele>
        <time>2021-08-04T09:07:42.877Z</time>
      </trkpt>
      <trkpt lat="46.98842" lon="8.7942">
        <ele>967</ele>
        <time>2021-08-04T09:07:43.878Z</time>
      </trkpt>
      <trkpt lat="46.98841" lon="8.79418">
        <ele>967</ele>
        <time>2021-08-04T09:07:44.877Z</time>
      </trkpt>
      <trkpt lat="46.98841" lon="8.79417">
        <ele>967</ele>
        <time>2021-08-04T09:07:45.878Z</time>
      </trkpt>
      <trkpt lat="46.9884" lon="8.79415">
        <ele>967</ele>
        <time>2021-08-04T09:07:46.878Z</time>
      </trkpt>
      <trkpt lat="46.9884" lon="8.79414">
        <ele>967</ele>
        <time>2021-08-04T09:07:47.877Z</time>
      </trkpt>
      <trkpt lat="46.98839" lon="8.79412">
        <ele>967</ele>
        <time>2021-08-04T09:07:48.877Z</time>
      </trkpt>
      <trkpt lat="46.98839" lon="8.79411">
        <ele>967</ele>
        <time>2021-08-04T09:07:49.877Z</time>
      </trkpt>
      <trkpt lat="46.98839" lon="8.7941">
        <ele>967</ele>
        <time>2021-08-04T09:07:50.877Z</time>
      </trkpt>
      <trkpt lat="46.98839" lon="8.79409">
        <ele>967</ele>
        <time>2021-08-04T09:07:51.878Z</time>
      </trkpt>
      <trkpt lat="46.98839" lon="8.79409">
        <ele>967</ele>
        <time>2021-08-04T09:07:52.878Z</time>
      </trkpt>
      <trkpt lat="46.98838" lon="8.79408">
        <ele>966</ele>
        <time>2021-08-04T09:07:53.877Z</time>
      </trkpt>
      <trkpt lat="46.98838" lon="8.79407">
        <ele>966</ele>
        <time>2021-08-04T09:07:54.877Z</time>
      </trkpt>
      <trkpt lat="46.98837" lon="8.79406">
        <ele>966</ele>
        <time>2021-08-04T09:07:55.878Z</time>
      </trkpt>
      <trkpt lat="46.98837" lon="8.79405">
        <ele>967</ele>
        <time>2021-08-04T09:07:56.878Z</time>
      </trkpt>
      <trkpt lat="46.98836" lon="8.79403">
        <ele>967</ele>
        <time>2021-08-04T09:07:57.878Z</time>
      </trkpt>
      <trkpt lat="46.98835" lon="8.79401">
        <ele>967</ele>
        <time>2021-08-04T09:07:58.878Z</time>
      </trkpt>
      <trkpt lat="46.98834" lon="8.79399">
        <ele>968</ele>
        <time>2021-08-04T09:07:59.877Z</time>
      </trkpt>
      <trkpt lat="46.98833" lon="8.79397">
        <ele>968</ele>
        <time>2021-08-04T09:08:00.877Z</time>
      </trkpt>
      <trkpt lat="46.98832" lon="8.79395">
        <ele>969</ele>
        <time>2021-08-04T09:08:01.878Z</time>
      </trkpt>
      <trkpt lat="46.98832" lon="8.79394">
        <ele>969</ele>
        <time>2021-08-04T09:08:02.877Z</time>
      </trkpt>
      <trkpt lat="46.98831" lon="8.79392">
        <ele>970</ele>
        <time>2021-08-04T09:08:03.877Z</time>
      </trkpt>
      <trkpt lat="46.9883" lon="8.7939">
        <ele>970</ele>
        <time>2021-08-04T09:08:04.877Z</time>
      </trkpt>
      <trkpt lat="46.98829" lon="8.79388">
        <ele>970</ele>
        <time>2021-08-04T09:08:05.877Z</time>
      </trkpt>
      <trkpt lat="46.98828" lon="8.79387">
        <ele>970</ele>
        <time>2021-08-04T09:08:06.877Z</time>
      </trkpt>
      <trkpt lat="46.98828" lon="8.79386">
        <ele>970</ele>
        <time>2021-08-04T09:08:07.878Z</time>
      </trkpt>
      <trkpt lat="46.98828" lon="8.79385">
        <ele>970</ele>
        <time>2021-08-04T09:08:08.877Z</time>
      </trkpt>
      <trkpt lat="46.98827" lon="8.79382">
        <ele>969</ele>
        <time>2021-08-04T09:08:09.877Z</time>
      </trkpt>
      <trkpt lat="46.98826" lon="8.7938">
        <ele>969</ele>
        <time>2021-08-04T09:08:10.877Z</time>
      </trkpt>
      <trkpt lat="46.98825" lon="8.79379">
        <ele>968</ele>
        <time>2021-08-04T09:08:11.877Z</time>
      </trkpt>
      <trkpt lat="46.98823" lon="8.79377">
        <ele>968</ele>
        <time>2021-08-04T09:08:12.877Z</time>
      </trkpt>
      <trkpt lat="46.98821" lon="8.79375">
        <ele>967</ele>
        <time>2021-08-04T09:08:13.877Z</time>
      </trkpt>
      <trkpt lat="46.9882" lon="8.79374">
        <ele>967</ele>
        <time>2021-08-04T09:08:14.878Z</time>
      </trkpt>
      <trkpt lat="46.98819" lon="8.79373">
        <ele>967</ele>
        <time>2021-08-04T09:08:15.878Z</time>
      </trkpt>
      <trkpt lat="46.98818" lon="8.79372">
        <ele>967</ele>
        <time>2021-08-04T09:08:16.878Z</time>
      </trkpt>
      <trkpt lat="46.98816" lon="8.79372">
        <ele>967</ele>
        <time>2021-08-04T09:08:17.877Z</time>
      </trkpt>
      <trkpt lat="46.98815" lon="8.79371">
        <ele>966</ele>
        <time>2021-08-04T09:08:18.878Z</time>
      </trkpt>
      <trkpt lat="46.98815" lon="8.7937">
        <ele>966</ele>
        <time>2021-08-04T09:08:19.878Z</time>
      </trkpt>
      <trkpt lat="46.98814" lon="8.79369">
        <ele>966</ele>
        <time>2021-08-04T09:08:20.877Z</time>
      </trkpt>
      <trkpt lat="46.98813" lon="8.79368">
        <ele>966</ele>
        <time>2021-08-04T09:08:21.878Z</time>
      </trkpt>
      <trkpt lat="46.98812" lon="8.79367">
        <ele>966</ele>
        <time>2021-08-04T09:08:22.878Z</time>
      </trkpt>
      <trkpt lat="46.98811" lon="8.79367">
        <ele>966</ele>
        <time>2021-08-04T09:08:23.877Z</time>
      </trkpt>
      <trkpt lat="46.9881" lon="8.79367">
        <ele>967</ele>
        <time>2021-08-04T09:08:24.878Z</time>
      </trkpt>
      <trkpt lat="46.9881" lon="8.79367">
        <ele>967</ele>
        <time>2021-08-04T09:08:25.877Z</time>
      </trkpt>
      <trkpt lat="46.98809" lon="8.79366">
        <ele>967</ele>
        <time>2021-08-04T09:08:26.877Z</time>
      </trkpt>
      <trkpt lat="46.98807" lon="8.79365">
        <ele>967</ele>
        <time>2021-08-04T09:08:27.878Z</time>
      </trkpt>
      <trkpt lat="46.98806" lon="8.79365">
        <ele>967</ele>
        <time>2021-08-04T09:08:28.878Z</time>
      </trkpt>
      <trkpt lat="46.98805" lon="8.79364">
        <ele>967</ele>
        <time>2021-08-04T09:08:29.878Z</time>
      </trkpt>
      <trkpt lat="46.98805" lon="8.79364">
        <ele>968</ele>
        <time>2021-08-04T09:08:30.878Z</time>
      </trkpt>
      <trkpt lat="46.98804" lon="8.79364">
        <ele>968</ele>
        <time>2021-08-04T09:08:31.878Z</time>
      </trkpt>
      <trkpt lat="46.98803" lon="8.79364">
        <ele>968</ele>
        <time>2021-08-04T09:08:32.878Z</time>
      </trkpt>
      <trkpt lat="46.98802" lon="8.79363">
        <ele>969</ele>
        <time>2021-08-04T09:08:33.878Z</time>
      </trkpt>
      <trkpt lat="46.98801" lon="8.79363">
        <ele>969</ele>
        <time>2021-08-04T09:08:34.878Z</time>
      </trkpt>
      <trkpt lat="46.98799" lon="8.79363">
        <ele>969</ele>
        <time>2021-08-04T09:08:35.878Z</time>
      </trkpt>
      <trkpt lat="46.98798" lon="8.79362">
        <ele>969</ele>
        <time>2021-08-04T09:08:36.878Z</time>
      </trkpt>
      <trkpt lat="46.98796" lon="8.79361">
        <ele>969</ele>
        <time>2021-08-04T09:08:37.877Z</time>
      </trkpt>
      <trkpt lat="46.98795" lon="8.7936">
        <ele>969</ele>
        <time>2021-08-04T09:08:38.877Z</time>
      </trkpt>
      <trkpt lat="46.98794" lon="8.79359">
        <ele>969</ele>
        <time>2021-08-04T09:08:39.878Z</time>
      </trkpt>
      <trkpt lat="46.98792" lon="8.79358">
        <ele>969</ele>
        <time>2021-08-04T09:08:40.878Z</time>
      </trkpt>
      <trkpt lat="46.98791" lon="8.79357">
        <ele>968</ele>
        <time>2021-08-04T09:08:41.877Z</time>
      </trkpt>
      <trkpt lat="46.98788" lon="8.79356">
        <ele>968</ele>
        <time>2021-08-04T09:08:42.878Z</time>
      </trkpt>
      <trkpt lat="46.98786" lon="8.79355">
        <ele>968</ele>
        <time>2021-08-04T09:08:43.877Z</time>
      </trkpt>
      <trkpt lat="46.98785" lon="8.79355">
        <ele>968</ele>
        <time>2021-08-04T09:08:44.878Z</time>
      </trkpt>
      <trkpt lat="46.98784" lon="8.79354">
        <ele>968</ele>
        <time>2021-08-04T09:08:45.877Z</time>
      </trkpt>
      <trkpt lat="46.98782" lon="8.79352">
        <ele>967</ele>
        <time>2021-08-04T09:08:46.878Z</time>
      </trkpt>
      <trkpt lat="46.98781" lon="8.79351">
        <ele>967</ele>
        <time>2021-08-04T09:08:47.878Z</time>
      </trkpt>
      <trkpt lat="46.98779" lon="8.7935">
        <ele>967</ele>
        <time>2021-08-04T09:08:48.877Z</time>
      </trkpt>
      <trkpt lat="46.98777" lon="8.79349">
        <ele>966</ele>
        <time>2021-08-04T09:08:49.878Z</time>
      </trkpt>
      <trkpt lat="46.98776" lon="8.79348">
        <ele>966</ele>
        <time>2021-08-04T09:08:50.877Z</time>
      </trkpt>
      <trkpt lat="46.98776" lon="8.79347">
        <ele>966</ele>
        <time>2021-08-04T09:08:51.878Z</time>
      </trkpt>
      <trkpt lat="46.98775" lon="8.79347">
        <ele>965</ele>
        <time>2021-08-04T09:08:52.878Z</time>
      </trkpt>
      <trkpt lat="46.98773" lon="8.79346">
        <ele>965</ele>
        <time>2021-08-04T09:08:53.878Z</time>
      </trkpt>
      <trkpt lat="46.98772" lon="8.79345">
        <ele>965</ele>
        <time>2021-08-04T09:08:54.877Z</time>
      </trkpt>
      <trkpt lat="46.98771" lon="8.79344">
        <ele>966</ele>
        <time>2021-08-04T09:08:55.877Z</time>
      </trkpt>
      <trkpt lat="46.98769" lon="8.79342">
        <ele>966</ele>
        <time>2021-08-04T09:08:56.878Z</time>
      </trkpt>
      <trkpt lat="46.98768" lon="8.7934">
        <ele>966</ele>
        <time>2021-08-04T09:08:57.877Z</time>
      </trkpt>
      <trkpt lat="46.98766" lon="8.79338">
        <ele>966</ele>
        <time>2021-08-04T09:08:58.878Z</time>
      </trkpt>
      <trkpt lat="46.98766" lon="8.79337">
        <ele>966</ele>
        <time>2021-08-04T09:08:59.878Z</time>
      </trkpt>
      <trkpt lat="46.98765" lon="8.79336">
        <ele>966</ele>
        <time>2021-08-04T09:09:00.878Z</time>
      </trkpt>
      <trkpt lat="46.98763" lon="8.79334">
        <ele>966</ele>
        <time>2021-08-04T09:09:01.878Z</time>
      </trkpt>
      <trkpt lat="46.98762" lon="8.79332">
        <ele>967</ele>
        <time>2021-08-04T09:09:02.878Z</time>
      </trkpt>
      <trkpt lat="46.9876" lon="8.79329">
        <ele>967</ele>
        <time>2021-08-04T09:09:03.878Z</time>
      </trkpt>
      <trkpt lat="46.98759" lon="8.79328">
        <ele>967</ele>
        <time>2021-08-04T09:09:04.878Z</time>
      </trkpt>
      <trkpt lat="46.98757" lon="8.79326">
        <ele>968</ele>
        <time>2021-08-04T09:09:05.877Z</time>
      </trkpt>
      <trkpt lat="46.98756" lon="8.79325">
        <ele>968</ele>
        <time>2021-08-04T09:09:06.878Z</time>
      </trkpt>
      <trkpt lat="46.98756" lon="8.79323">
        <ele>968</ele>
        <time>2021-08-04T09:09:07.877Z</time>
      </trkpt>
      <trkpt lat="46.98755" lon="8.7932">
        <ele>968</ele>
        <time>2021-08-04T09:09:08.878Z</time>
      </trkpt>
      <trkpt lat="46.98754" lon="8.79317">
        <ele>968</ele>
        <time>2021-08-04T09:09:09.878Z</time>
      </trkpt>
      <trkpt lat="46.98753" lon="8.79315">
        <ele>967</ele>
        <time>2021-08-04T09:09:10.878Z</time>
      </trkpt>
      <trkpt lat="46.98753" lon="8.79313">
        <ele>967</ele>
        <time>2021-08-04T09:09:11.878Z</time>
      </trkpt>
      <trkpt lat="46.98752" lon="8.79311">
        <ele>967</ele>
        <time>2021-08-04T09:09:12.877Z</time>
      </trkpt>
      <trkpt lat="46.98752" lon="8.7931">
        <ele>966</ele>
        <time>2021-08-04T09:09:13.878Z</time>
      </trkpt>
      <trkpt lat="46.9875" lon="8.79308">
        <ele>965</ele>
        <time>2021-08-04T09:09:14.878Z</time>
      </trkpt>
      <trkpt lat="46.9875" lon="8.79306">
        <ele>965</ele>
        <time>2021-08-04T09:09:15.878Z</time>
      </trkpt>
      <trkpt lat="46.98749" lon="8.79305">
        <ele>965</ele>
        <time>2021-08-04T09:09:16.878Z</time>
      </trkpt>
      <trkpt lat="46.98747" lon="8.79303">
        <ele>965</ele>
        <time>2021-08-04T09:09:17.878Z</time>
      </trkpt>
      <trkpt lat="46.98747" lon="8.79301">
        <ele>965</ele>
        <time>2021-08-04T09:09:18.878Z</time>
      </trkpt>
      <trkpt lat="46.98746" lon="8.793">
        <ele>964</ele>
        <time>2021-08-04T09:09:19.878Z</time>
      </trkpt>
      <trkpt lat="46.98745" lon="8.79298">
        <ele>964</ele>
        <time>2021-08-04T09:09:20.877Z</time>
      </trkpt>
      <trkpt lat="46.98744" lon="8.79297">
        <ele>963</ele>
        <time>2021-08-04T09:09:21.878Z</time>
      </trkpt>
      <trkpt lat="46.98744" lon="8.79297">
        <ele>963</ele>
        <time>2021-08-04T09:09:22.878Z</time>
      </trkpt>
      <trkpt lat="46.98743" lon="8.79295">
        <ele>962</ele>
        <time>2021-08-04T09:09:23.877Z</time>
      </trkpt>
      <trkpt lat="46.98742" lon="8.79294">
        <ele>962</ele>
        <time>2021-08-04T09:09:24.878Z</time>
      </trkpt>
      <trkpt lat="46.98741" lon="8.79293">
        <ele>961</ele>
        <time>2021-08-04T09:09:25.878Z</time>
      </trkpt>
      <trkpt lat="46.9874" lon="8.79291">
        <ele>961</ele>
        <time>2021-08-04T09:09:26.878Z</time>
      </trkpt>
      <trkpt lat="46.98739" lon="8.79288">
        <ele>961</ele>
        <time>2021-08-04T09:09:27.878Z</time>
      </trkpt>
      <trkpt lat="46.98738" lon="8.79286">
        <ele>961</ele>
        <time>2021-08-04T09:09:28.878Z</time>
      </trkpt>
      <trkpt lat="46.98737" lon="8.79284">
        <ele>961</ele>
        <time>2021-08-04T09:09:29.877Z</time>
      </trkpt>
      <trkpt lat="46.98736" lon="8.79283">
        <ele>961</ele>
        <time>2021-08-04T09:09:30.878Z</time>
      </trkpt>
      <trkpt lat="46.98735" lon="8.79282">
        <ele>961</ele>
        <time>2021-08-04T09:09:31.878Z</time>
      </trkpt>
      <trkpt lat="46.98734" lon="8.79281">
        <ele>962</ele>
        <time>2021-08-04T09:09:32.877Z</time>
      </trkpt>
      <trkpt lat="46.98733" lon="8.7928">
        <ele>962</ele>
        <time>2021-08-04T09:09:33.877Z</time>
      </trkpt>
      <trkpt lat="46.98733" lon="8.79279">
        <ele>962</ele>
        <time>2021-08-04T09:09:34.878Z</time>
      </trkpt>
      <trkpt lat="46.98732" lon="8.79277">
        <ele>963</ele>
        <time>2021-08-04T09:09:35.878Z</time>
      </trkpt>
      <trkpt lat="46.98732" lon="8.79276">
        <ele>962</ele>
        <time>2021-08-04T09:09:36.877Z</time>
      </trkpt>
      <trkpt lat="46.98731" lon="8.79275">
        <ele>962</ele>
        <time>2021-08-04T09:09:37.877Z</time>
      </trkpt>
      <trkpt lat="46.9873" lon="8.79274">
        <ele>962</ele>
        <time>2021-08-04T09:09:38.877Z</time>
      </trkpt>
      <trkpt lat="46.98729" lon="8.79274">
        <ele>962</ele>
        <time>2021-08-04T09:09:39.877Z</time>
      </trkpt>
      <trkpt lat="46.98728" lon="8.79272">
        <ele>962</ele>
        <time>2021-08-04T09:09:40.877Z</time>
      </trkpt>
      <trkpt lat="46.98727" lon="8.79272">
        <ele>962</ele>
        <time>2021-08-04T09:09:41.877Z</time>
      </trkpt>
      <trkpt lat="46.98726" lon="8.7927">
        <ele>961</ele>
        <time>2021-08-04T09:09:42.877Z</time>
      </trkpt>
      <trkpt lat="46.98725" lon="8.79269">
        <ele>961</ele>
        <time>2021-08-04T09:09:43.877Z</time>
      </trkpt>
      <trkpt lat="46.98724" lon="8.79268">
        <ele>961</ele>
        <time>2021-08-04T09:09:44.878Z</time>
      </trkpt>
      <trkpt lat="46.98723" lon="8.79267">
        <ele>961</ele>
        <time>2021-08-04T09:09:45.877Z</time>
      </trkpt>
      <trkpt lat="46.98723" lon="8.79265">
        <ele>961</ele>
        <time>2021-08-04T09:09:46.878Z</time>
      </trkpt>
      <trkpt lat="46.98722" lon="8.79264">
        <ele>961</ele>
        <time>2021-08-04T09:09:47.878Z</time>
      </trkpt>
      <trkpt lat="46.98722" lon="8.79263">
        <ele>961</ele>
        <time>2021-08-04T09:09:48.878Z</time>
      </trkpt>
      <trkpt lat="46.98721" lon="8.79262">
        <ele>961</ele>
        <time>2021-08-04T09:09:49.877Z</time>
      </trkpt>
      <trkpt lat="46.9872" lon="8.7926">
        <ele>961</ele>
        <time>2021-08-04T09:09:50.878Z</time>
      </trkpt>
      <trkpt lat="46.98719" lon="8.79259">
        <ele>960</ele>
        <time>2021-08-04T09:09:51.878Z</time>
      </trkpt>
      <trkpt lat="46.98718" lon="8.79258">
        <ele>960</ele>
        <time>2021-08-04T09:09:52.878Z</time>
      </trkpt>
      <trkpt lat="46.98717" lon="8.79257">
        <ele>960</ele>
        <time>2021-08-04T09:09:53.877Z</time>
      </trkpt>
      <trkpt lat="46.98717" lon="8.79256">
        <ele>960</ele>
        <time>2021-08-04T09:09:54.878Z</time>
      </trkpt>
      <trkpt lat="46.98716" lon="8.79255">
        <ele>960</ele>
        <time>2021-08-04T09:09:55.877Z</time>
      </trkpt>
      <trkpt lat="46.98715" lon="8.79254">
        <ele>959</ele>
        <time>2021-08-04T09:09:56.877Z</time>
      </trkpt>
      <trkpt lat="46.98714" lon="8.79252">
        <ele>959</ele>
        <time>2021-08-04T09:09:57.877Z</time>
      </trkpt>
      <trkpt lat="46.98713" lon="8.79251">
        <ele>959</ele>
        <time>2021-08-04T09:09:58.877Z</time>
      </trkpt>
      <trkpt lat="46.98712" lon="8.79249">
        <ele>958</ele>
        <time>2021-08-04T09:09:59.877Z</time>
      </trkpt>
      <trkpt lat="46.98711" lon="8.79248">
        <ele>958</ele>
        <time>2021-08-04T09:10:00.878Z</time>
      </trkpt>
      <trkpt lat="46.98709" lon="8.79247">
        <ele>958</ele>
        <time>2021-08-04T09:10:01.878Z</time>
      </trkpt>
      <trkpt lat="46.98709" lon="8.79246">
        <ele>958</ele>
        <time>2021-08-04T09:10:02.877Z</time>
      </trkpt>
      <trkpt lat="46.98709" lon="8.79244">
        <ele>958</ele>
        <time>2021-08-04T09:10:03.877Z</time>
      </trkpt>
      <trkpt lat="46.98708" lon="8.79243">
        <ele>957</ele>
        <time>2021-08-04T09:10:04.877Z</time>
      </trkpt>
      <trkpt lat="46.98708" lon="8.79241">
        <ele>957</ele>
        <time>2021-08-04T09:10:05.877Z</time>
      </trkpt>
      <trkpt lat="46.98708" lon="8.7924">
        <ele>957</ele>
        <time>2021-08-04T09:10:06.877Z</time>
      </trkpt>
      <trkpt lat="46.98708" lon="8.79238">
        <ele>957</ele>
        <time>2021-08-04T09:10:07.877Z</time>
      </trkpt>
      <trkpt lat="46.98708" lon="8.79237">
        <ele>957</ele>
        <time>2021-08-04T09:10:08.877Z</time>
      </trkpt>
      <trkpt lat="46.98708" lon="8.79236">
        <ele>956</ele>
        <time>2021-08-04T09:10:09.877Z</time>
      </trkpt>
      <trkpt lat="46.98708" lon="8.79236">
        <ele>955</ele>
        <time>2021-08-04T09:10:10.877Z</time>
      </trkpt>
      <trkpt lat="46.98707" lon="8.79235">
        <ele>955</ele>
        <time>2021-08-04T09:10:11.877Z</time>
      </trkpt>
      <trkpt lat="46.98707" lon="8.79235">
        <ele>954</ele>
        <time>2021-08-04T09:10:12.877Z</time>
      </trkpt>
      <trkpt lat="46.98707" lon="8.79233">
        <ele>954</ele>
        <time>2021-08-04T09:10:13.877Z</time>
      </trkpt>
      <trkpt lat="46.98706" lon="8.79232">
        <ele>954</ele>
        <time>2021-08-04T09:10:14.877Z</time>
      </trkpt>
      <trkpt lat="46.98705" lon="8.7923">
        <ele>953</ele>
        <time>2021-08-04T09:10:15.877Z</time>
      </trkpt>
      <trkpt lat="46.98705" lon="8.79229">
        <ele>953</ele>
        <time>2021-08-04T09:10:16.877Z</time>
      </trkpt>
      <trkpt lat="46.98705" lon="8.79227">
        <ele>953</ele>
        <time>2021-08-04T09:10:17.877Z</time>
      </trkpt>
      <trkpt lat="46.98705" lon="8.79225">
        <ele>953</ele>
        <time>2021-08-04T09:10:18.878Z</time>
      </trkpt>
      <trkpt lat="46.98705" lon="8.79224">
        <ele>952</ele>
        <time>2021-08-04T09:10:19.877Z</time>
      </trkpt>
      <trkpt lat="46.98705" lon="8.79223">
        <ele>952</ele>
        <time>2021-08-04T09:10:20.877Z</time>
      </trkpt>
      <trkpt lat="46.98704" lon="8.79222">
        <ele>951</ele>
        <time>2021-08-04T09:10:21.878Z</time>
      </trkpt>
      <trkpt lat="46.98704" lon="8.7922">
        <ele>950</ele>
        <time>2021-08-04T09:10:22.878Z</time>
      </trkpt>
      <trkpt lat="46.98703" lon="8.79218">
        <ele>950</ele>
        <time>2021-08-04T09:10:23.878Z</time>
      </trkpt>
      <trkpt lat="46.98703" lon="8.79216">
        <ele>949</ele>
        <time>2021-08-04T09:10:24.878Z</time>
      </trkpt>
      <trkpt lat="46.98703" lon="8.79215">
        <ele>948</ele>
        <time>2021-08-04T09:10:25.877Z</time>
      </trkpt>
      <trkpt lat="46.98703" lon="8.79214">
        <ele>947</ele>
        <time>2021-08-04T09:10:26.878Z</time>
      </trkpt>
      <trkpt lat="46.98703" lon="8.79212">
        <ele>947</ele>
        <time>2021-08-04T09:10:27.878Z</time>
      </trkpt>
      <trkpt lat="46.98702" lon="8.79209">
        <ele>947</ele>
        <time>2021-08-04T09:10:28.877Z</time>
      </trkpt>
      <trkpt lat="46.98702" lon="8.79207">
        <ele>946</ele>
        <time>2021-08-04T09:10:29.878Z</time>
      </trkpt>
      <trkpt lat="46.98702" lon="8.79205">
        <ele>946</ele>
        <time>2021-08-04T09:10:30.877Z</time>
      </trkpt>
      <trkpt lat="46.98702" lon="8.79204">
        <ele>946</ele>
        <time>2021-08-04T09:10:31.877Z</time>
      </trkpt>
      <trkpt lat="46.98702" lon="8.79201">
        <ele>946</ele>
        <time>2021-08-04T09:10:32.877Z</time>
      </trkpt>
      <trkpt lat="46.98702" lon="8.79199">
        <ele>946</ele>
        <time>2021-08-04T09:10:33.878Z</time>
      </trkpt>
      <trkpt lat="46.98702" lon="8.79197">
        <ele>947</ele>
        <time>2021-08-04T09:10:34.877Z</time>
      </trkpt>
      <trkpt lat="46.98702" lon="8.79195">
        <ele>947</ele>
        <time>2021-08-04T09:10:35.878Z</time>
      </trkpt>
      <trkpt lat="46.98703" lon="8.79193">
        <ele>947</ele>
        <time>2021-08-04T09:10:36.878Z</time>
      </trkpt>
      <trkpt lat="46.98703" lon="8.79191">
        <ele>947</ele>
        <time>2021-08-04T09:10:37.878Z</time>
      </trkpt>
      <trkpt lat="46.98703" lon="8.7919">
        <ele>947</ele>
        <time>2021-08-04T09:10:38.878Z</time>
      </trkpt>
      <trkpt lat="46.98702" lon="8.79189">
        <ele>947</ele>
        <time>2021-08-04T09:10:39.878Z</time>
      </trkpt>
      <trkpt lat="46.98702" lon="8.79188">
        <ele>947</ele>
        <time>2021-08-04T09:10:40.878Z</time>
      </trkpt>
      <trkpt lat="46.98702" lon="8.79186">
        <ele>948</ele>
        <time>2021-08-04T09:10:41.878Z</time>
      </trkpt>
      <trkpt lat="46.98702" lon="8.79184">
        <ele>948</ele>
        <time>2021-08-04T09:10:42.878Z</time>
      </trkpt>
      <trkpt lat="46.98701" lon="8.79182">
        <ele>949</ele>
        <time>2021-08-04T09:10:43.878Z</time>
      </trkpt>
      <trkpt lat="46.987" lon="8.7918">
        <ele>949</ele>
        <time>2021-08-04T09:10:44.878Z</time>
      </trkpt>
      <trkpt lat="46.98699" lon="8.79178">
        <ele>950</ele>
        <time>2021-08-04T09:10:45.877Z</time>
      </trkpt>
      <trkpt lat="46.98698" lon="8.79175">
        <ele>950</ele>
        <time>2021-08-04T09:10:46.878Z</time>
      </trkpt>
      <trkpt lat="46.98697" lon="8.79173">
        <ele>951</ele>
        <time>2021-08-04T09:10:47.878Z</time>
      </trkpt>
      <trkpt lat="46.98696" lon="8.79171">
        <ele>951</ele>
        <time>2021-08-04T09:10:48.878Z</time>
      </trkpt>
      <trkpt lat="46.98696" lon="8.79169">
        <ele>952</ele>
        <time>2021-08-04T09:10:49.878Z</time>
      </trkpt>
      <trkpt lat="46.98695" lon="8.79167">
        <ele>952</ele>
        <time>2021-08-04T09:10:50.878Z</time>
      </trkpt>
      <trkpt lat="46.98694" lon="8.79165">
        <ele>953</ele>
        <time>2021-08-04T09:10:51.878Z</time>
      </trkpt>
      <trkpt lat="46.98693" lon="8.79163">
        <ele>954</ele>
        <time>2021-08-04T09:10:52.878Z</time>
      </trkpt>
      <trkpt lat="46.98693" lon="8.79161">
        <ele>955</ele>
        <time>2021-08-04T09:10:53.877Z</time>
      </trkpt>
      <trkpt lat="46.98692" lon="8.79159">
        <ele>955</ele>
        <time>2021-08-04T09:10:54.878Z</time>
      </trkpt>
      <trkpt lat="46.98691" lon="8.79158">
        <ele>956</ele>
        <time>2021-08-04T09:10:55.877Z</time>
      </trkpt>
      <trkpt lat="46.98691" lon="8.79156">
        <ele>957</ele>
        <time>2021-08-04T09:10:56.878Z</time>
      </trkpt>
      <trkpt lat="46.9869" lon="8.79154">
        <ele>957</ele>
        <time>2021-08-04T09:10:57.878Z</time>
      </trkpt>
      <trkpt lat="46.9869" lon="8.79152">
        <ele>958</ele>
        <time>2021-08-04T09:10:58.877Z</time>
      </trkpt>
      <trkpt lat="46.98689" lon="8.7915">
        <ele>958</ele>
        <time>2021-08-04T09:10:59.878Z</time>
      </trkpt>
      <trkpt lat="46.98688" lon="8.79149">
        <ele>959</ele>
        <time>2021-08-04T09:11:00.877Z</time>
      </trkpt>
      <trkpt lat="46.98687" lon="8.79147">
        <ele>959</ele>
        <time>2021-08-04T09:11:01.878Z</time>
      </trkpt>
      <trkpt lat="46.98685" lon="8.79145">
        <ele>959</ele>
        <time>2021-08-04T09:11:02.878Z</time>
      </trkpt>
      <trkpt lat="46.98684" lon="8.79142">
        <ele>958</ele>
        <time>2021-08-04T09:11:03.877Z</time>
      </trkpt>
      <trkpt lat="46.98683" lon="8.7914">
        <ele>958</ele>
        <time>2021-08-04T09:11:04.878Z</time>
      </trkpt>
      <trkpt lat="46.98683" lon="8.79139">
        <ele>957</ele>
        <time>2021-08-04T09:11:05.878Z</time>
      </trkpt>
      <trkpt lat="46.98683" lon="8.7914">
        <ele>956</ele>
        <time>2021-08-04T09:11:06.877Z</time>
      </trkpt>
      <trkpt lat="46.98683" lon="8.79139">
        <ele>955</ele>
        <time>2021-08-04T09:11:07.878Z</time>
      </trkpt>
      <trkpt lat="46.98682" lon="8.79137">
        <ele>954</ele>
        <time>2021-08-04T09:11:08.877Z</time>
      </trkpt>
      <trkpt lat="46.98681" lon="8.79135">
        <ele>953</ele>
        <time>2021-08-04T09:11:09.877Z</time>
      </trkpt>
      <trkpt lat="46.9868" lon="8.79133">
        <ele>952</ele>
        <time>2021-08-04T09:11:10.878Z</time>
      </trkpt>
      <trkpt lat="46.9868" lon="8.79131">
        <ele>951</ele>
        <time>2021-08-04T09:11:11.878Z</time>
      </trkpt>
      <trkpt lat="46.9868" lon="8.79128">
        <ele>950</ele>
        <time>2021-08-04T09:11:12.878Z</time>
      </trkpt>
      <trkpt lat="46.98679" lon="8.79126">
        <ele>949</ele>
        <time>2021-08-04T09:11:13.878Z</time>
      </trkpt>
      <trkpt lat="46.98678" lon="8.79124">
        <ele>949</ele>
        <time>2021-08-04T09:11:14.878Z</time>
      </trkpt>
      <trkpt lat="46.98678" lon="8.79122">
        <ele>948</ele>
        <time>2021-08-04T09:11:15.878Z</time>
      </trkpt>
      <trkpt lat="46.98677" lon="8.79121">
        <ele>947</ele>
        <time>2021-08-04T09:11:16.877Z</time>
      </trkpt>
      <trkpt lat="46.98676" lon="8.79119">
        <ele>946</ele>
        <time>2021-08-04T09:11:17.877Z</time>
      </trkpt>
      <trkpt lat="46.98675" lon="8.79118">
        <ele>945</ele>
        <time>2021-08-04T09:11:18.877Z</time>
      </trkpt>
      <trkpt lat="46.98675" lon="8.79116">
        <ele>944</ele>
        <time>2021-08-04T09:11:19.878Z</time>
      </trkpt>
      <trkpt lat="46.98675" lon="8.79114">
        <ele>943</ele>
        <time>2021-08-04T09:11:20.878Z</time>
      </trkpt>
      <trkpt lat="46.98674" lon="8.79112">
        <ele>943</ele>
        <time>2021-08-04T09:11:21.878Z</time>
      </trkpt>
      <trkpt lat="46.98673" lon="8.79109">
        <ele>942</ele>
        <time>2021-08-04T09:11:22.877Z</time>
      </trkpt>
      <trkpt lat="46.98672" lon="8.79107">
        <ele>941</ele>
        <time>2021-08-04T09:11:23.877Z</time>
      </trkpt>
      <trkpt lat="46.98671" lon="8.79105">
        <ele>941</ele>
        <time>2021-08-04T09:11:24.878Z</time>
      </trkpt>
      <trkpt lat="46.9867" lon="8.79103">
        <ele>940</ele>
        <time>2021-08-04T09:11:25.878Z</time>
      </trkpt>
      <trkpt lat="46.9867" lon="8.79101">
        <ele>940</ele>
        <time>2021-08-04T09:11:26.877Z</time>
      </trkpt>
      <trkpt lat="46.98669" lon="8.79099">
        <ele>940</ele>
        <time>2021-08-04T09:11:27.878Z</time>
      </trkpt>
      <trkpt lat="46.98669" lon="8.79097">
        <ele>939</ele>
        <time>2021-08-04T09:11:28.878Z</time>
      </trkpt>
      <trkpt lat="46.98668" lon="8.79095">
        <ele>939</ele>
        <time>2021-08-04T09:11:29.878Z</time>
      </trkpt>
      <trkpt lat="46.98666" lon="8.79092">
        <ele>940</ele>
        <time>2021-08-04T09:11:30.877Z</time>
      </trkpt>
      <trkpt lat="46.98665" lon="8.79089">
        <ele>940</ele>
        <time>2021-08-04T09:11:31.878Z</time>
      </trkpt>
      <trkpt lat="46.98664" lon="8.79086">
        <ele>940</ele>
        <time>2021-08-04T09:11:32.878Z</time>
      </trkpt>
      <trkpt lat="46.98664" lon="8.79083">
        <ele>940</ele>
        <time>2021-08-04T09:11:33.878Z</time>
      </trkpt>
      <trkpt lat="46.98663" lon="8.7908">
        <ele>939</ele>
        <time>2021-08-04T09:11:34.878Z</time>
      </trkpt>
      <trkpt lat="46.98662" lon="8.79077">
        <ele>939</ele>
        <time>2021-08-04T09:11:35.877Z</time>
      </trkpt>
      <trkpt lat="46.98661" lon="8.79074">
        <ele>939</ele>
        <time>2021-08-04T09:11:36.878Z</time>
      </trkpt>
      <trkpt lat="46.9866" lon="8.79072">
        <ele>938</ele>
        <time>2021-08-04T09:11:37.878Z</time>
      </trkpt>
      <trkpt lat="46.9866" lon="8.79071">
        <ele>937</ele>
        <time>2021-08-04T09:11:38.878Z</time>
      </trkpt>
      <trkpt lat="46.98659" lon="8.79071">
        <ele>936</ele>
        <time>2021-08-04T09:11:39.877Z</time>
      </trkpt>
      <trkpt lat="46.98659" lon="8.79071">
        <ele>935</ele>
        <time>2021-08-04T09:11:40.878Z</time>
      </trkpt>
      <trkpt lat="46.98658" lon="8.7907">
        <ele>934</ele>
        <time>2021-08-04T09:11:41.878Z</time>
      </trkpt>
      <trkpt lat="46.98657" lon="8.79069">
        <ele>933</ele>
        <time>2021-08-04T09:11:42.878Z</time>
      </trkpt>
      <trkpt lat="46.98656" lon="8.79069">
        <ele>932</ele>
        <time>2021-08-04T09:11:43.877Z</time>
      </trkpt>
      <trkpt lat="46.98655" lon="8.79068">
        <ele>931</ele>
        <time>2021-08-04T09:11:44.877Z</time>
      </trkpt>
      <trkpt lat="46.98654" lon="8.79067">
        <ele>931</ele>
        <time>2021-08-04T09:11:45.877Z</time>
      </trkpt>
      <trkpt lat="46.98653" lon="8.79067">
        <ele>930</ele>
        <time>2021-08-04T09:11:46.878Z</time>
      </trkpt>
      <trkpt lat="46.98652" lon="8.79066">
        <ele>929</ele>
        <time>2021-08-04T09:11:47.878Z</time>
      </trkpt>
      <trkpt lat="46.98651" lon="8.79066">
        <ele>928</ele>
        <time>2021-08-04T09:11:48.877Z</time>
      </trkpt>
      <trkpt lat="46.9865" lon="8.79066">
        <ele>928</ele>
        <time>2021-08-04T09:11:49.877Z</time>
      </trkpt>
      <trkpt lat="46.98649" lon="8.79066">
        <ele>927</ele>
        <time>2021-08-04T09:11:50.877Z</time>
      </trkpt>
      <trkpt lat="46.98647" lon="8.79067">
        <ele>926</ele>
        <time>2021-08-04T09:11:51.878Z</time>
      </trkpt>
      <trkpt lat="46.98646" lon="8.79067">
        <ele>925</ele>
        <time>2021-08-04T09:11:52.877Z</time>
      </trkpt>
      <trkpt lat="46.98645" lon="8.79068">
        <ele>924</ele>
        <time>2021-08-04T09:11:53.877Z</time>
      </trkpt>
      <trkpt lat="46.98644" lon="8.79069">
        <ele>923</ele>
        <time>2021-08-04T09:11:54.877Z</time>
      </trkpt>
      <trkpt lat="46.98642" lon="8.7907">
        <ele>922</ele>
        <time>2021-08-04T09:11:55.877Z</time>
      </trkpt>
      <trkpt lat="46.98641" lon="8.79071">
        <ele>922</ele>
        <time>2021-08-04T09:11:56.877Z</time>
      </trkpt>
      <trkpt lat="46.9864" lon="8.79071">
        <ele>921</ele>
        <time>2021-08-04T09:11:57.878Z</time>
      </trkpt>
      <trkpt lat="46.98639" lon="8.79073">
        <ele>921</ele>
        <time>2021-08-04T09:11:58.877Z</time>
      </trkpt>
      <trkpt lat="46.98638" lon="8.79075">
        <ele>920</ele>
        <time>2021-08-04T09:11:59.877Z</time>
      </trkpt>
      <trkpt lat="46.98636" lon="8.79076">
        <ele>920</ele>
        <time>2021-08-04T09:12:00.877Z</time>
      </trkpt>
      <trkpt lat="46.98635" lon="8.79078">
        <ele>920</ele>
        <time>2021-08-04T09:12:01.878Z</time>
      </trkpt>
      <trkpt lat="46.98634" lon="8.79079">
        <ele>920</ele>
        <time>2021-08-04T09:12:02.878Z</time>
      </trkpt>
      <trkpt lat="46.98632" lon="8.79081">
        <ele>920</ele>
        <time>2021-08-04T09:12:03.877Z</time>
      </trkpt>
      <trkpt lat="46.98631" lon="8.79083">
        <ele>919</ele>
        <time>2021-08-04T09:12:04.877Z</time>
      </trkpt>
      <trkpt lat="46.9863" lon="8.79084">
        <ele>919</ele>
        <time>2021-08-04T09:12:05.877Z</time>
      </trkpt>
      <trkpt lat="46.98629" lon="8.79085">
        <ele>919</ele>
        <time>2021-08-04T09:12:06.878Z</time>
      </trkpt>
      <trkpt lat="46.98628" lon="8.79087">
        <ele>919</ele>
        <time>2021-08-04T09:12:07.878Z</time>
      </trkpt>
      <trkpt lat="46.98627" lon="8.79088">
        <ele>919</ele>
        <time>2021-08-04T09:12:08.877Z</time>
      </trkpt>
      <trkpt lat="46.98626" lon="8.79088">
        <ele>918</ele>
        <time>2021-08-04T09:12:09.877Z</time>
      </trkpt>
      <trkpt lat="46.98625" lon="8.79089">
        <ele>918</ele>
        <time>2021-08-04T09:12:10.877Z</time>
      </trkpt>
      <trkpt lat="46.98624" lon="8.79091">
        <ele>919</ele>
        <time>2021-08-04T09:12:11.878Z</time>
      </trkpt>
      <trkpt lat="46.98623" lon="8.79092">
        <ele>919</ele>
        <time>2021-08-04T09:12:12.877Z</time>
      </trkpt>
      <trkpt lat="46.98622" lon="8.79094">
        <ele>919</ele>
        <time>2021-08-04T09:12:13.877Z</time>
      </trkpt>
      <trkpt lat="46.98622" lon="8.79095">
        <ele>920</ele>
        <time>2021-08-04T09:12:14.877Z</time>
      </trkpt>
      <trkpt lat="46.98621" lon="8.79097">
        <ele>920</ele>
        <time>2021-08-04T09:12:15.877Z</time>
      </trkpt>
      <trkpt lat="46.98621" lon="8.79098">
        <ele>920</ele>
        <time>2021-08-04T09:12:16.877Z</time>
      </trkpt>
      <trkpt lat="46.9862" lon="8.79099">
        <ele>920</ele>
        <time>2021-08-04T09:12:17.877Z</time>
      </trkpt>
      <trkpt lat="46.98618" lon="8.79101">
        <ele>920</ele>
        <time>2021-08-04T09:12:18.878Z</time>
      </trkpt>
      <trkpt lat="46.98617" lon="8.79102">
        <ele>920</ele>
        <time>2021-08-04T09:12:19.878Z</time>
      </trkpt>
      <trkpt lat="46.98617" lon="8.79103">
        <ele>920</ele>
        <time>2021-08-04T09:12:20.877Z</time>
      </trkpt>
      <trkpt lat="46.98617" lon="8.79102">
        <ele>921</ele>
        <time>2021-08-04T09:12:21.877Z</time>
      </trkpt>
      <trkpt lat="46.98617" lon="8.79103">
        <ele>921</ele>
        <time>2021-08-04T09:12:22.877Z</time>
      </trkpt>
      <trkpt lat="46.98616" lon="8.79104">
        <ele>922</ele>
        <time>2021-08-04T09:12:23.878Z</time>
      </trkpt>
      <trkpt lat="46.98616" lon="8.79104">
        <ele>922</ele>
        <time>2021-08-04T09:12:24.877Z</time>
      </trkpt>
      <trkpt lat="46.98614" lon="8.79106">
        <ele>923</ele>
        <time>2021-08-04T09:12:25.877Z</time>
      </trkpt>
      <trkpt lat="46.98613" lon="8.79107">
        <ele>923</ele>
        <time>2021-08-04T09:12:26.877Z</time>
      </trkpt>
      <trkpt lat="46.98612" lon="8.79108">
        <ele>923</ele>
        <time>2021-08-04T09:12:27.878Z</time>
      </trkpt>
      <trkpt lat="46.98611" lon="8.79109">
        <ele>923</ele>
        <time>2021-08-04T09:12:28.877Z</time>
      </trkpt>
      <trkpt lat="46.98609" lon="8.79111">
        <ele>923</ele>
        <time>2021-08-04T09:12:29.878Z</time>
      </trkpt>
      <trkpt lat="46.98608" lon="8.79113">
        <ele>924</ele>
        <time>2021-08-04T09:12:30.878Z</time>
      </trkpt>
      <trkpt lat="46.98607" lon="8.79114">
        <ele>924</ele>
        <time>2021-08-04T09:12:31.878Z</time>
      </trkpt>
      <trkpt lat="46.98606" lon="8.79115">
        <ele>924</ele>
        <time>2021-08-04T09:12:32.878Z</time>
      </trkpt>
      <trkpt lat="46.98605" lon="8.79116">
        <ele>924</ele>
        <time>2021-08-04T09:12:33.878Z</time>
      </trkpt>
      <trkpt lat="46.98604" lon="8.79117">
        <ele>925</ele>
        <time>2021-08-04T09:12:34.878Z</time>
      </trkpt>
      <trkpt lat="46.98603" lon="8.79118">
        <ele>925</ele>
        <time>2021-08-04T09:12:35.877Z</time>
      </trkpt>
      <trkpt lat="46.98602" lon="8.79118">
        <ele>925</ele>
        <time>2021-08-04T09:12:36.877Z</time>
      </trkpt>
      <trkpt lat="46.986" lon="8.79119">
        <ele>925</ele>
        <time>2021-08-04T09:12:37.878Z</time>
      </trkpt>
      <trkpt lat="46.98599" lon="8.7912">
        <ele>925</ele>
        <time>2021-08-04T09:12:38.878Z</time>
      </trkpt>
      <trkpt lat="46.98598" lon="8.7912">
        <ele>925</ele>
        <time>2021-08-04T09:12:39.878Z</time>
      </trkpt>
      <trkpt lat="46.98597" lon="8.79121">
        <ele>925</ele>
        <time>2021-08-04T09:12:40.878Z</time>
      </trkpt>
      <trkpt lat="46.98596" lon="8.79122">
        <ele>925</ele>
        <time>2021-08-04T09:12:41.878Z</time>
      </trkpt>
      <trkpt lat="46.98594" lon="8.79122">
        <ele>925</ele>
        <time>2021-08-04T09:12:42.878Z</time>
      </trkpt>
      <trkpt lat="46.98593" lon="8.79123">
        <ele>925</ele>
        <time>2021-08-04T09:12:43.877Z</time>
      </trkpt>
      <trkpt lat="46.98592" lon="8.79124">
        <ele>925</ele>
        <time>2021-08-04T09:12:44.877Z</time>
      </trkpt>
      <trkpt lat="46.98591" lon="8.79125">
        <ele>925</ele>
        <time>2021-08-04T09:12:45.877Z</time>
      </trkpt>
      <trkpt lat="46.98589" lon="8.79125">
        <ele>925</ele>
        <time>2021-08-04T09:12:46.878Z</time>
      </trkpt>
      <trkpt lat="46.98588" lon="8.79126">
        <ele>926</ele>
        <time>2021-08-04T09:12:47.878Z</time>
      </trkpt>
      <trkpt lat="46.98587" lon="8.79126">
        <ele>926</ele>
        <time>2021-08-04T09:12:48.878Z</time>
      </trkpt>
      <trkpt lat="46.98585" lon="8.79125">
        <ele>926</ele>
        <time>2021-08-04T09:12:49.877Z</time>
      </trkpt>
      <trkpt lat="46.98584" lon="8.79124">
        <ele>926</ele>
        <time>2021-08-04T09:12:50.878Z</time>
      </trkpt>
      <trkpt lat="46.98583" lon="8.79123">
        <ele>927</ele>
        <time>2021-08-04T09:12:51.878Z</time>
      </trkpt>
      <trkpt lat="46.98582" lon="8.79122">
        <ele>927</ele>
        <time>2021-08-04T09:12:52.878Z</time>
      </trkpt>
      <trkpt lat="46.98582" lon="8.7912">
        <ele>927</ele>
        <time>2021-08-04T09:12:53.878Z</time>
      </trkpt>
      <trkpt lat="46.9858" lon="8.79117">
        <ele>927</ele>
        <time>2021-08-04T09:12:54.878Z</time>
      </trkpt>
      <trkpt lat="46.98578" lon="8.79114">
        <ele>928</ele>
        <time>2021-08-04T09:12:55.878Z</time>
      </trkpt>
      <trkpt lat="46.98577" lon="8.79112">
        <ele>928</ele>
        <time>2021-08-04T09:12:56.878Z</time>
      </trkpt>
      <trkpt lat="46.98577" lon="8.79109">
        <ele>928</ele>
        <time>2021-08-04T09:12:57.877Z</time>
      </trkpt>
      <trkpt lat="46.98577" lon="8.79107">
        <ele>928</ele>
        <time>2021-08-04T09:12:58.877Z</time>
      </trkpt>
      <trkpt lat="46.98578" lon="8.79106">
        <ele>929</ele>
        <time>2021-08-04T09:12:59.878Z</time>
      </trkpt>
      <trkpt lat="46.98578" lon="8.79104">
        <ele>929</ele>
        <time>2021-08-04T09:13:00.878Z</time>
      </trkpt>
      <trkpt lat="46.98578" lon="8.79102">
        <ele>929</ele>
        <time>2021-08-04T09:13:01.878Z</time>
      </trkpt>
      <trkpt lat="46.98578" lon="8.791">
        <ele>929</ele>
        <time>2021-08-04T09:13:02.878Z</time>
      </trkpt>
      <trkpt lat="46.98578" lon="8.79099">
        <ele>929</ele>
        <time>2021-08-04T09:13:03.877Z</time>
      </trkpt>
      <trkpt lat="46.98579" lon="8.79097">
        <ele>929</ele>
        <time>2021-08-04T09:13:04.878Z</time>
      </trkpt>
      <trkpt lat="46.98579" lon="8.79096">
        <ele>928</ele>
        <time>2021-08-04T09:13:05.878Z</time>
      </trkpt>
      <trkpt lat="46.98579" lon="8.79094">
        <ele>928</ele>
        <time>2021-08-04T09:13:06.878Z</time>
      </trkpt>
      <trkpt lat="46.98579" lon="8.79092">
        <ele>928</ele>
        <time>2021-08-04T09:13:07.877Z</time>
      </trkpt>
      <trkpt lat="46.98579" lon="8.7909">
        <ele>928</ele>
        <time>2021-08-04T09:13:08.878Z</time>
      </trkpt>
      <trkpt lat="46.98579" lon="8.79088">
        <ele>928</ele>
        <time>2021-08-04T09:13:09.877Z</time>
      </trkpt>
      <trkpt lat="46.98579" lon="8.79086">
        <ele>928</ele>
        <time>2021-08-04T09:13:10.877Z</time>
      </trkpt>
      <trkpt lat="46.98579" lon="8.79084">
        <ele>927</ele>
        <time>2021-08-04T09:13:11.878Z</time>
      </trkpt>
      <trkpt lat="46.9858" lon="8.79083">
        <ele>926</ele>
        <time>2021-08-04T09:13:12.878Z</time>
      </trkpt>
      <trkpt lat="46.98581" lon="8.79081">
        <ele>926</ele>
        <time>2021-08-04T09:13:13.877Z</time>
      </trkpt>
      <trkpt lat="46.98581" lon="8.7908">
        <ele>925</ele>
        <time>2021-08-04T09:13:14.878Z</time>
      </trkpt>
      <trkpt lat="46.98582" lon="8.79078">
        <ele>925</ele>
        <time>2021-08-04T09:13:15.877Z</time>
      </trkpt>
      <trkpt lat="46.98582" lon="8.79076">
        <ele>924</ele>
        <time>2021-08-04T09:13:16.877Z</time>
      </trkpt>
      <trkpt lat="46.98582" lon="8.79074">
        <ele>923</ele>
        <time>2021-08-04T09:13:17.877Z</time>
      </trkpt>
      <trkpt lat="46.98583" lon="8.79072">
        <ele>922</ele>
        <time>2021-08-04T09:13:18.878Z</time>
      </trkpt>
      <trkpt lat="46.98583" lon="8.79069">
        <ele>921</ele>
        <time>2021-08-04T09:13:19.878Z</time>
      </trkpt>
      <trkpt lat="46.98584" lon="8.79067">
        <ele>921</ele>
        <time>2021-08-04T09:13:20.877Z</time>
      </trkpt>
      <trkpt lat="46.98584" lon="8.79065">
        <ele>920</ele>
        <time>2021-08-04T09:13:21.878Z</time>
      </trkpt>
      <trkpt lat="46.98584" lon="8.79063">
        <ele>920</ele>
        <time>2021-08-04T09:13:22.877Z</time>
      </trkpt>
      <trkpt lat="46.98584" lon="8.7906">
        <ele>920</ele>
        <time>2021-08-04T09:13:23.878Z</time>
      </trkpt>
      <trkpt lat="46.98584" lon="8.79058">
        <ele>920</ele>
        <time>2021-08-04T09:13:24.878Z</time>
      </trkpt>
      <trkpt lat="46.98585" lon="8.79056">
        <ele>920</ele>
        <time>2021-08-04T09:13:25.878Z</time>
      </trkpt>
      <trkpt lat="46.98585" lon="8.79054">
        <ele>919</ele>
        <time>2021-08-04T09:13:26.877Z</time>
      </trkpt>
      <trkpt lat="46.98584" lon="8.79052">
        <ele>919</ele>
        <time>2021-08-04T09:13:27.878Z</time>
      </trkpt>
      <trkpt lat="46.98584" lon="8.7905">
        <ele>919</ele>
        <time>2021-08-04T09:13:28.878Z</time>
      </trkpt>
      <trkpt lat="46.98584" lon="8.79048">
        <ele>919</ele>
        <time>2021-08-04T09:13:29.878Z</time>
      </trkpt>
      <trkpt lat="46.98584" lon="8.79046">
        <ele>919</ele>
        <time>2021-08-04T09:13:30.877Z</time>
      </trkpt>
      <trkpt lat="46.98584" lon="8.79044">
        <ele>918</ele>
        <time>2021-08-04T09:13:31.877Z</time>
      </trkpt>
      <trkpt lat="46.98583" lon="8.79043">
        <ele>918</ele>
        <time>2021-08-04T09:13:32.877Z</time>
      </trkpt>
      <trkpt lat="46.98582" lon="8.79041">
        <ele>918</ele>
        <time>2021-08-04T09:13:33.878Z</time>
      </trkpt>
      <trkpt lat="46.98582" lon="8.7904">
        <ele>918</ele>
        <time>2021-08-04T09:13:34.878Z</time>
      </trkpt>
      <trkpt lat="46.98581" lon="8.79038">
        <ele>918</ele>
        <time>2021-08-04T09:13:35.877Z</time>
      </trkpt>
      <trkpt lat="46.98581" lon="8.79036">
        <ele>918</ele>
        <time>2021-08-04T09:13:36.877Z</time>
      </trkpt>
      <trkpt lat="46.9858" lon="8.79034">
        <ele>918</ele>
        <time>2021-08-04T09:13:37.877Z</time>
      </trkpt>
      <trkpt lat="46.98579" lon="8.79033">
        <ele>918</ele>
        <time>2021-08-04T09:13:38.877Z</time>
      </trkpt>
      <trkpt lat="46.98578" lon="8.79032">
        <ele>918</ele>
        <time>2021-08-04T09:13:39.877Z</time>
      </trkpt>
      <trkpt lat="46.98577" lon="8.7903">
        <ele>918</ele>
        <time>2021-08-04T09:13:40.878Z</time>
      </trkpt>
      <trkpt lat="46.98576" lon="8.79028">
        <ele>918</ele>
        <time>2021-08-04T09:13:41.877Z</time>
      </trkpt>
      <trkpt lat="46.98575" lon="8.79026">
        <ele>918</ele>
        <time>2021-08-04T09:13:42.878Z</time>
      </trkpt>
      <trkpt lat="46.98574" lon="8.79025">
        <ele>919</ele>
        <time>2021-08-04T09:13:43.878Z</time>
      </trkpt>
      <trkpt lat="46.98573" lon="8.79024">
        <ele>919</ele>
        <time>2021-08-04T09:13:44.878Z</time>
      </trkpt>
      <trkpt lat="46.98572" lon="8.79023">
        <ele>919</ele>
        <time>2021-08-04T09:13:45.877Z</time>
      </trkpt>
      <trkpt lat="46.98571" lon="8.79022">
        <ele>918</ele>
        <time>2021-08-04T09:13:46.877Z</time>
      </trkpt>
      <trkpt lat="46.9857" lon="8.79021">
        <ele>918</ele>
        <time>2021-08-04T09:13:47.878Z</time>
      </trkpt>
      <trkpt lat="46.98569" lon="8.7902">
        <ele>918</ele>
        <time>2021-08-04T09:13:48.878Z</time>
      </trkpt>
      <trkpt lat="46.98568" lon="8.79019">
        <ele>917</ele>
        <time>2021-08-04T09:13:49.878Z</time>
      </trkpt>
      <trkpt lat="46.98568" lon="8.79018">
        <ele>917</ele>
        <time>2021-08-04T09:13:50.877Z</time>
      </trkpt>
      <trkpt lat="46.98567" lon="8.79016">
        <ele>917</ele>
        <time>2021-08-04T09:13:51.877Z</time>
      </trkpt>
      <trkpt lat="46.98566" lon="8.79015">
        <ele>917</ele>
        <time>2021-08-04T09:13:52.878Z</time>
      </trkpt>
      <trkpt lat="46.98564" lon="8.79014">
        <ele>917</ele>
        <time>2021-08-04T09:13:53.877Z</time>
      </trkpt>
      <trkpt lat="46.98563" lon="8.79012">
        <ele>917</ele>
        <time>2021-08-04T09:13:54.877Z</time>
      </trkpt>
      <trkpt lat="46.98562" lon="8.79011">
        <ele>917</ele>
        <time>2021-08-04T09:13:55.877Z</time>
      </trkpt>
      <trkpt lat="46.98561" lon="8.79009">
        <ele>917</ele>
        <time>2021-08-04T09:13:56.877Z</time>
      </trkpt>
      <trkpt lat="46.9856" lon="8.79008">
        <ele>917</ele>
        <time>2021-08-04T09:13:57.878Z</time>
      </trkpt>
      <trkpt lat="46.98559" lon="8.79006">
        <ele>917</ele>
        <time>2021-08-04T09:13:58.877Z</time>
      </trkpt>
      <trkpt lat="46.98558" lon="8.79004">
        <ele>918</ele>
        <time>2021-08-04T09:13:59.878Z</time>
      </trkpt>
      <trkpt lat="46.98557" lon="8.79002">
        <ele>918</ele>
        <time>2021-08-04T09:14:00.877Z</time>
      </trkpt>
      <trkpt lat="46.98556" lon="8.79001">
        <ele>919</ele>
        <time>2021-08-04T09:14:01.877Z</time>
      </trkpt>
      <trkpt lat="46.98556" lon="8.79">
        <ele>919</ele>
        <time>2021-08-04T09:14:02.877Z</time>
      </trkpt>
      <trkpt lat="46.98555" lon="8.78998">
        <ele>919</ele>
        <time>2021-08-04T09:14:03.877Z</time>
      </trkpt>
      <trkpt lat="46.98553" lon="8.78996">
        <ele>920</ele>
        <time>2021-08-04T09:14:04.877Z</time>
      </trkpt>
      <trkpt lat="46.98552" lon="8.78993">
        <ele>920</ele>
        <time>2021-08-04T09:14:05.877Z</time>
      </trkpt>
      <trkpt lat="46.98551" lon="8.78991">
        <ele>920</ele>
        <time>2021-08-04T09:14:06.877Z</time>
      </trkpt>
      <trkpt lat="46.9855" lon="8.78989">
        <ele>920</ele>
        <time>2021-08-04T09:14:07.877Z</time>
      </trkpt>
      <trkpt lat="46.98548" lon="8.78988">
        <ele>920</ele>
        <time>2021-08-04T09:14:08.877Z</time>
      </trkpt>
      <trkpt lat="46.98547" lon="8.78986">
        <ele>921</ele>
        <time>2021-08-04T09:14:09.877Z</time>
      </trkpt>
      <trkpt lat="46.98546" lon="8.78985">
        <ele>921</ele>
        <time>2021-08-04T09:14:10.877Z</time>
      </trkpt>
      <trkpt lat="46.98545" lon="8.78982">
        <ele>922</ele>
        <time>2021-08-04T09:14:11.877Z</time>
      </trkpt>
      <trkpt lat="46.98544" lon="8.7898">
        <ele>922</ele>
        <time>2021-08-04T09:14:12.877Z</time>
      </trkpt>
      <trkpt lat="46.98543" lon="8.78979">
        <ele>922</ele>
        <time>2021-08-04T09:14:13.877Z</time>
      </trkpt>
      <trkpt lat="46.98542" lon="8.78979">
        <ele>921</ele>
        <time>2021-08-04T09:14:14.877Z</time>
      </trkpt>
      <trkpt lat="46.98541" lon="8.78977">
        <ele>920</ele>
        <time>2021-08-04T09:14:15.878Z</time>
      </trkpt>
      <trkpt lat="46.98539" lon="8.78975">
        <ele>919</ele>
        <time>2021-08-04T09:14:16.878Z</time>
      </trkpt>
      <trkpt lat="46.98538" lon="8.78973">
        <ele>919</ele>
        <time>2021-08-04T09:14:17.878Z</time>
      </trkpt>
      <trkpt lat="46.98537" lon="8.78972">
        <ele>918</ele>
        <time>2021-08-04T09:14:18.878Z</time>
      </trkpt>
      <trkpt lat="46.98537" lon="8.7897">
        <ele>918</ele>
        <time>2021-08-04T09:14:19.878Z</time>
      </trkpt>
      <trkpt lat="46.98536" lon="8.78968">
        <ele>917</ele>
        <time>2021-08-04T09:14:20.878Z</time>
      </trkpt>
      <trkpt lat="46.98535" lon="8.78967">
        <ele>917</ele>
        <time>2021-08-04T09:14:21.878Z</time>
      </trkpt>
      <trkpt lat="46.98534" lon="8.78966">
        <ele>917</ele>
        <time>2021-08-04T09:14:22.878Z</time>
      </trkpt>
      <trkpt lat="46.98533" lon="8.78965">
        <ele>916</ele>
        <time>2021-08-04T09:14:23.877Z</time>
      </trkpt>
      <trkpt lat="46.98532" lon="8.78964">
        <ele>916</ele>
        <time>2021-08-04T09:14:24.878Z</time>
      </trkpt>
      <trkpt lat="46.98531" lon="8.78963">
        <ele>915</ele>
        <time>2021-08-04T09:14:25.878Z</time>
      </trkpt>
      <trkpt lat="46.9853" lon="8.78962">
        <ele>915</ele>
        <time>2021-08-04T09:14:26.878Z</time>
      </trkpt>
      <trkpt lat="46.98529" lon="8.7896">
        <ele>915</ele>
        <time>2021-08-04T09:14:27.878Z</time>
      </trkpt>
      <trkpt lat="46.98528" lon="8.78959">
        <ele>914</ele>
        <time>2021-08-04T09:14:28.878Z</time>
      </trkpt>
      <trkpt lat="46.98527" lon="8.78957">
        <ele>914</ele>
        <time>2021-08-04T09:14:29.878Z</time>
      </trkpt>
      <trkpt lat="46.98526" lon="8.78956">
        <ele>914</ele>
        <time>2021-08-04T09:14:30.877Z</time>
      </trkpt>
      <trkpt lat="46.98525" lon="8.78955">
        <ele>915</ele>
        <time>2021-08-04T09:14:31.877Z</time>
      </trkpt>
      <trkpt lat="46.98523" lon="8.78954">
        <ele>915</ele>
        <time>2021-08-04T09:14:32.878Z</time>
      </trkpt>
      <trkpt lat="46.98523" lon="8.78952">
        <ele>915</ele>
        <time>2021-08-04T09:14:33.878Z</time>
      </trkpt>
      <trkpt lat="46.98522" lon="8.78951">
        <ele>915</ele>
        <time>2021-08-04T09:14:34.878Z</time>
      </trkpt>
      <trkpt lat="46.98521" lon="8.7895">
        <ele>915</ele>
        <time>2021-08-04T09:14:35.877Z</time>
      </trkpt>
      <trkpt lat="46.9852" lon="8.78949">
        <ele>915</ele>
        <time>2021-08-04T09:14:36.878Z</time>
      </trkpt>
      <trkpt lat="46.98519" lon="8.78948">
        <ele>914</ele>
        <time>2021-08-04T09:14:37.877Z</time>
      </trkpt>
      <trkpt lat="46.98519" lon="8.78947">
        <ele>913</ele>
        <time>2021-08-04T09:14:38.877Z</time>
      </trkpt>
      <trkpt lat="46.98518" lon="8.78946">
        <ele>912</ele>
        <time>2021-08-04T09:14:39.878Z</time>
      </trkpt>
      <trkpt lat="46.98517" lon="8.78945">
        <ele>911</ele>
        <time>2021-08-04T09:14:40.878Z</time>
      </trkpt>
      <trkpt lat="46.98515" lon="8.78944">
        <ele>910</ele>
        <time>2021-08-04T09:14:41.877Z</time>
      </trkpt>
      <trkpt lat="46.98515" lon="8.78942">
        <ele>909</ele>
        <time>2021-08-04T09:14:42.878Z</time>
      </trkpt>
      <trkpt lat="46.98514" lon="8.7894">
        <ele>909</ele>
        <time>2021-08-04T09:14:43.877Z</time>
      </trkpt>
      <trkpt lat="46.98513" lon="8.78939">
        <ele>908</ele>
        <time>2021-08-04T09:14:44.878Z</time>
      </trkpt>
      <trkpt lat="46.98512" lon="8.78937">
        <ele>908</ele>
        <time>2021-08-04T09:14:45.878Z</time>
      </trkpt>
      <trkpt lat="46.98511" lon="8.78935">
        <ele>908</ele>
        <time>2021-08-04T09:14:46.878Z</time>
      </trkpt>
      <trkpt lat="46.9851" lon="8.78933">
        <ele>908</ele>
        <time>2021-08-04T09:14:47.877Z</time>
      </trkpt>
      <trkpt lat="46.98509" lon="8.78932">
        <ele>908</ele>
        <time>2021-08-04T09:14:48.878Z</time>
      </trkpt>
      <trkpt lat="46.98509" lon="8.78931">
        <ele>908</ele>
        <time>2021-08-04T09:14:49.877Z</time>
      </trkpt>
      <trkpt lat="46.98508" lon="8.78929">
        <ele>908</ele>
        <time>2021-08-04T09:14:50.877Z</time>
      </trkpt>
      <trkpt lat="46.98507" lon="8.78928">
        <ele>908</ele>
        <time>2021-08-04T09:14:51.878Z</time>
      </trkpt>
      <trkpt lat="46.98506" lon="8.78927">
        <ele>908</ele>
        <time>2021-08-04T09:14:52.878Z</time>
      </trkpt>
      <trkpt lat="46.98506" lon="8.78926">
        <ele>907</ele>
        <time>2021-08-04T09:14:53.878Z</time>
      </trkpt>
      <trkpt lat="46.98505" lon="8.78926">
        <ele>907</ele>
        <time>2021-08-04T09:14:54.878Z</time>
      </trkpt>
      <trkpt lat="46.98504" lon="8.78925">
        <ele>907</ele>
        <time>2021-08-04T09:14:55.877Z</time>
      </trkpt>
      <trkpt lat="46.98503" lon="8.78923">
        <ele>907</ele>
        <time>2021-08-04T09:14:56.877Z</time>
      </trkpt>
      <trkpt lat="46.98502" lon="8.78922">
        <ele>907</ele>
        <time>2021-08-04T09:14:57.877Z</time>
      </trkpt>
      <trkpt lat="46.98502" lon="8.78921">
        <ele>907</ele>
        <time>2021-08-04T09:14:58.878Z</time>
      </trkpt>
      <trkpt lat="46.98501" lon="8.7892">
        <ele>907</ele>
        <time>2021-08-04T09:14:59.878Z</time>
      </trkpt>
      <trkpt lat="46.985" lon="8.78918">
        <ele>907</ele>
        <time>2021-08-04T09:15:00.878Z</time>
      </trkpt>
      <trkpt lat="46.98498" lon="8.78916">
        <ele>907</ele>
        <time>2021-08-04T09:15:01.877Z</time>
      </trkpt>
      <trkpt lat="46.98498" lon="8.78915">
        <ele>907</ele>
        <time>2021-08-04T09:15:02.877Z</time>
      </trkpt>
      <trkpt lat="46.98497" lon="8.78914">
        <ele>906</ele>
        <time>2021-08-04T09:15:03.877Z</time>
      </trkpt>
      <trkpt lat="46.98496" lon="8.78913">
        <ele>906</ele>
        <time>2021-08-04T09:15:04.878Z</time>
      </trkpt>
      <trkpt lat="46.98494" lon="8.78912">
        <ele>906</ele>
        <time>2021-08-04T09:15:05.877Z</time>
      </trkpt>
      <trkpt lat="46.98494" lon="8.78911">
        <ele>906</ele>
        <time>2021-08-04T09:15:06.878Z</time>
      </trkpt>
      <trkpt lat="46.98493" lon="8.7891">
        <ele>906</ele>
        <time>2021-08-04T09:15:07.878Z</time>
      </trkpt>
      <trkpt lat="46.98492" lon="8.78909">
        <ele>906</ele>
        <time>2021-08-04T09:15:08.878Z</time>
      </trkpt>
      <trkpt lat="46.98492" lon="8.78908">
        <ele>906</ele>
        <time>2021-08-04T09:15:09.878Z</time>
      </trkpt>
      <trkpt lat="46.9849" lon="8.78907">
        <ele>906</ele>
        <time>2021-08-04T09:15:10.878Z</time>
      </trkpt>
      <trkpt lat="46.98489" lon="8.78906">
        <ele>906</ele>
        <time>2021-08-04T09:15:11.877Z</time>
      </trkpt>
      <trkpt lat="46.98488" lon="8.78905">
        <ele>906</ele>
        <time>2021-08-04T09:15:12.877Z</time>
      </trkpt>
      <trkpt lat="46.98487" lon="8.78904">
        <ele>906</ele>
        <time>2021-08-04T09:15:13.878Z</time>
      </trkpt>
      <trkpt lat="46.98487" lon="8.78904">
        <ele>906</ele>
        <time>2021-08-04T09:15:14.878Z</time>
      </trkpt>
      <trkpt lat="46.98486" lon="8.78903">
        <ele>906</ele>
        <time>2021-08-04T09:15:15.877Z</time>
      </trkpt>
      <trkpt lat="46.98485" lon="8.78902">
        <ele>905</ele>
        <time>2021-08-04T09:15:16.877Z</time>
      </trkpt>
      <trkpt lat="46.98484" lon="8.78901">
        <ele>905</ele>
        <time>2021-08-04T09:15:17.877Z</time>
      </trkpt>
      <trkpt lat="46.98483" lon="8.789">
        <ele>905</ele>
        <time>2021-08-04T09:15:18.877Z</time>
      </trkpt>
      <trkpt lat="46.98481" lon="8.78899">
        <ele>905</ele>
        <time>2021-08-04T09:15:19.878Z</time>
      </trkpt>
      <trkpt lat="46.9848" lon="8.78898">
        <ele>905</ele>
        <time>2021-08-04T09:15:20.878Z</time>
      </trkpt>
      <trkpt lat="46.98479" lon="8.78897">
        <ele>905</ele>
        <time>2021-08-04T09:15:21.877Z</time>
      </trkpt>
      <trkpt lat="46.98478" lon="8.78896">
        <ele>905</ele>
        <time>2021-08-04T09:15:22.878Z</time>
      </trkpt>
      <trkpt lat="46.98477" lon="8.78896">
        <ele>905</ele>
        <time>2021-08-04T09:15:23.877Z</time>
      </trkpt>
      <trkpt lat="46.98476" lon="8.78895">
        <ele>905</ele>
        <time>2021-08-04T09:15:24.878Z</time>
      </trkpt>
      <trkpt lat="46.98476" lon="8.78895">
        <ele>904</ele>
        <time>2021-08-04T09:15:25.878Z</time>
      </trkpt>
      <trkpt lat="46.98475" lon="8.78894">
        <ele>904</ele>
        <time>2021-08-04T09:15:26.877Z</time>
      </trkpt>
      <trkpt lat="46.98475" lon="8.78893">
        <ele>903</ele>
        <time>2021-08-04T09:15:27.878Z</time>
      </trkpt>
      <trkpt lat="46.98474" lon="8.78893">
        <ele>903</ele>
        <time>2021-08-04T09:15:28.877Z</time>
      </trkpt>
      <trkpt lat="46.98473" lon="8.78892">
        <ele>902</ele>
        <time>2021-08-04T09:15:29.878Z</time>
      </trkpt>
      <trkpt lat="46.98472" lon="8.78892">
        <ele>901</ele>
        <time>2021-08-04T09:15:30.878Z</time>
      </trkpt>
      <trkpt lat="46.98471" lon="8.78891">
        <ele>901</ele>
        <time>2021-08-04T09:15:31.877Z</time>
      </trkpt>
      <trkpt lat="46.9847" lon="8.78891">
        <ele>901</ele>
        <time>2021-08-04T09:15:32.878Z</time>
      </trkpt>
      <trkpt lat="46.98468" lon="8.78891">
        <ele>900</ele>
        <time>2021-08-04T09:15:33.877Z</time>
      </trkpt>
      <trkpt lat="46.98467" lon="8.7889">
        <ele>900</ele>
        <time>2021-08-04T09:15:34.878Z</time>
      </trkpt>
      <trkpt lat="46.98465" lon="8.7889">
        <ele>900</ele>
        <time>2021-08-04T09:15:35.878Z</time>
      </trkpt>
      <trkpt lat="46.98464" lon="8.7889">
        <ele>900</ele>
        <time>2021-08-04T09:15:36.877Z</time>
      </trkpt>
      <trkpt lat="46.98463" lon="8.78889">
        <ele>900</ele>
        <time>2021-08-04T09:15:37.877Z</time>
      </trkpt>
      <trkpt lat="46.98462" lon="8.78888">
        <ele>901</ele>
        <time>2021-08-04T09:15:38.878Z</time>
      </trkpt>
      <trkpt lat="46.98461" lon="8.78887">
        <ele>901</ele>
        <time>2021-08-04T09:15:39.878Z</time>
      </trkpt>
      <trkpt lat="46.9846" lon="8.78886">
        <ele>901</ele>
        <time>2021-08-04T09:15:40.878Z</time>
      </trkpt>
      <trkpt lat="46.98459" lon="8.78885">
        <ele>901</ele>
        <time>2021-08-04T09:15:41.877Z</time>
      </trkpt>
      <trkpt lat="46.98458" lon="8.78885">
        <ele>902</ele>
        <time>2021-08-04T09:15:42.878Z</time>
      </trkpt>
      <trkpt lat="46.98458" lon="8.78884">
        <ele>902</ele>
        <time>2021-08-04T09:15:43.878Z</time>
      </trkpt>
      <trkpt lat="46.98457" lon="8.78884">
        <ele>902</ele>
        <time>2021-08-04T09:15:44.877Z</time>
      </trkpt>
      <trkpt lat="46.98456" lon="8.78883">
        <ele>902</ele>
        <time>2021-08-04T09:15:45.877Z</time>
      </trkpt>
      <trkpt lat="46.98455" lon="8.78883">
        <ele>902</ele>
        <time>2021-08-04T09:15:46.877Z</time>
      </trkpt>
      <trkpt lat="46.98454" lon="8.78883">
        <ele>903</ele>
        <time>2021-08-04T09:15:47.878Z</time>
      </trkpt>
      <trkpt lat="46.98454" lon="8.78883">
        <ele>903</ele>
        <time>2021-08-04T09:15:48.878Z</time>
      </trkpt>
      <trkpt lat="46.98453" lon="8.78882">
        <ele>903</ele>
        <time>2021-08-04T09:15:49.878Z</time>
      </trkpt>
      <trkpt lat="46.98458" lon="8.7888">
        <ele>903</ele>
        <time>2021-08-04T09:15:50.879Z</time>
      </trkpt>
      <trkpt lat="46.98458" lon="8.7888">
        <ele>901</ele>
        <time>2021-08-04T09:15:51.879Z</time>
      </trkpt>
      <trkpt lat="46.98462" lon="8.78881">
        <ele>892</ele>
        <time>2021-08-04T09:15:52.878Z</time>
      </trkpt>
      <trkpt lat="46.98462" lon="8.78881">
        <ele>892</ele>
        <time>2021-08-04T09:15:53.878Z</time>
      </trkpt>
      <trkpt lat="46.98462" lon="8.78881">
        <ele>891</ele>
        <time>2021-08-04T09:15:54.878Z</time>
      </trkpt>
      <trkpt lat="46.98462" lon="8.78881">
        <ele>890</ele>
        <time>2021-08-04T09:15:55.879Z</time>
      </trkpt>
      <trkpt lat="46.98462" lon="8.78881">
        <ele>888</ele>
        <time>2021-08-04T09:15:56.879Z</time>
      </trkpt>
      <trkpt lat="46.98462" lon="8.78881">
        <ele>888</ele>
        <time>2021-08-04T09:15:57.879Z</time>
      </trkpt>
      <trkpt lat="46.98461" lon="8.78877">
        <ele>890</ele>
        <time>2021-08-04T09:15:58.880Z</time>
      </trkpt>
      <trkpt lat="46.9846" lon="8.78877">
        <ele>890</ele>
        <time>2021-08-04T09:15:59.880Z</time>
      </trkpt>
      <trkpt lat="46.9846" lon="8.78877">
        <ele>891</ele>
        <time>2021-08-04T09:16:00.881Z</time>
      </trkpt>
      <trkpt lat="46.98459" lon="8.78876">
        <ele>891</ele>
        <time>2021-08-04T09:16:01.880Z</time>
      </trkpt>
      <trkpt lat="46.98459" lon="8.78876">
        <ele>892</ele>
        <time>2021-08-04T09:16:02.880Z</time>
      </trkpt>
      <trkpt lat="46.98459" lon="8.78875">
        <ele>893</ele>
        <time>2021-08-04T09:16:03.880Z</time>
      </trkpt>
      <trkpt lat="46.98464" lon="8.78875">
        <ele>886</ele>
        <time>2021-08-04T09:16:04.881Z</time>
      </trkpt>
      <trkpt lat="46.98464" lon="8.78875">
        <ele>886</ele>
        <time>2021-08-04T09:16:05.881Z</time>
      </trkpt>
      <trkpt lat="46.98464" lon="8.78875">
        <ele>886</ele>
        <time>2021-08-04T09:16:06.881Z</time>
      </trkpt>
      <trkpt lat="46.98464" lon="8.78874">
        <ele>886</ele>
        <time>2021-08-04T09:16:07.880Z</time>
      </trkpt>
      <trkpt lat="46.98464" lon="8.78874">
        <ele>886</ele>
        <time>2021-08-04T09:16:08.880Z</time>
      </trkpt>
      <trkpt lat="46.98464" lon="8.78874">
        <ele>886</ele>
        <time>2021-08-04T09:16:09.881Z</time>
      </trkpt>
      <trkpt lat="46.98463" lon="8.78874">
        <ele>889</ele>
        <time>2021-08-04T09:16:10.881Z</time>
      </trkpt>
      <trkpt lat="46.98462" lon="8.78873">
        <ele>889</ele>
        <time>2021-08-04T09:16:11.880Z</time>
      </trkpt>
      <trkpt lat="46.98462" lon="8.78873">
        <ele>890</ele>
        <time>2021-08-04T09:16:12.880Z</time>
      </trkpt>
      <trkpt lat="46.98462" lon="8.78873">
        <ele>890</ele>
        <time>2021-08-04T09:16:13.880Z</time>
      </trkpt>
      <trkpt lat="46.98463" lon="8.78875">
        <ele>896</ele>
        <time>2021-08-04T09:16:14.881Z</time>
      </trkpt>
      <trkpt lat="46.98463" lon="8.78875">
        <ele>896</ele>
        <time>2021-08-04T09:16:15.882Z</time>
      </trkpt>
      <trkpt lat="46.98463" lon="8.78874">
        <ele>895</ele>
        <time>2021-08-04T09:16:16.881Z</time>
      </trkpt>
      <trkpt lat="46.98463" lon="8.78873">
        <ele>895</ele>
        <time>2021-08-04T09:16:17.882Z</time>
      </trkpt>
      <trkpt lat="46.98463" lon="8.78873">
        <ele>895</ele>
        <time>2021-08-04T09:16:18.881Z</time>
      </trkpt>
      <trkpt lat="46.98463" lon="8.78873">
        <ele>895</ele>
        <time>2021-08-04T09:16:19.882Z</time>
      </trkpt>
      <trkpt lat="46.98463" lon="8.78873">
        <ele>895</ele>
        <time>2021-08-04T09:16:20.882Z</time>
      </trkpt>
      <trkpt lat="46.98462" lon="8.78873">
        <ele>896</ele>
        <time>2021-08-04T09:16:21.881Z</time>
      </trkpt>
      <trkpt lat="46.98462" lon="8.78873">
        <ele>896</ele>
        <time>2021-08-04T09:16:22.881Z</time>
      </trkpt>
      <trkpt lat="46.98461" lon="8.78874">
        <ele>896</ele>
        <time>2021-08-04T09:16:23.882Z</time>
      </trkpt>
      <trkpt lat="46.9846" lon="8.78874">
        <ele>897</ele>
        <time>2021-08-04T09:16:24.882Z</time>
      </trkpt>
      <trkpt lat="46.98459" lon="8.78873">
        <ele>898</ele>
        <time>2021-08-04T09:16:25.883Z</time>
      </trkpt>
      <trkpt lat="46.98458" lon="8.78873">
        <ele>898</ele>
        <time>2021-08-04T09:16:26.883Z</time>
      </trkpt>
      <trkpt lat="46.98458" lon="8.78871">
        <ele>899</ele>
        <time>2021-08-04T09:16:27.882Z</time>
      </trkpt>
      <trkpt lat="46.98457" lon="8.78871">
        <ele>899</ele>
        <time>2021-08-04T09:16:28.882Z</time>
      </trkpt>
      <trkpt lat="46.98456" lon="8.7887">
        <ele>899</ele>
        <time>2021-08-04T09:16:29.883Z</time>
      </trkpt>
      <trkpt lat="46.98455" lon="8.78869">
        <ele>900</ele>
        <time>2021-08-04T09:16:30.883Z</time>
      </trkpt>
      <trkpt lat="46.98453" lon="8.78869">
        <ele>900</ele>
        <time>2021-08-04T09:16:31.883Z</time>
      </trkpt>
      <trkpt lat="46.98452" lon="8.78869">
        <ele>900</ele>
        <time>2021-08-04T09:16:32.883Z</time>
      </trkpt>
      <trkpt lat="46.9845" lon="8.78869">
        <ele>900</ele>
        <time>2021-08-04T09:16:33.883Z</time>
      </trkpt>
      <trkpt lat="46.98449" lon="8.7887">
        <ele>901</ele>
        <time>2021-08-04T09:16:34.883Z</time>
      </trkpt>
      <trkpt lat="46.98447" lon="8.78869">
        <ele>901</ele>
        <time>2021-08-04T09:16:35.883Z</time>
      </trkpt>
      <trkpt lat="46.98445" lon="8.78869">
        <ele>902</ele>
        <time>2021-08-04T09:16:36.883Z</time>
      </trkpt>
      <trkpt lat="46.98444" lon="8.78868">
        <ele>902</ele>
        <time>2021-08-04T09:16:37.883Z</time>
      </trkpt>
      <trkpt lat="46.98444" lon="8.78868">
        <ele>903</ele>
        <time>2021-08-04T09:16:38.883Z</time>
      </trkpt>
      <trkpt lat="46.98443" lon="8.78867">
        <ele>904</ele>
        <time>2021-08-04T09:16:39.882Z</time>
      </trkpt>
      <trkpt lat="46.9844" lon="8.78866">
        <ele>904</ele>
        <time>2021-08-04T09:16:40.882Z</time>
      </trkpt>
      <trkpt lat="46.98439" lon="8.78865">
        <ele>905</ele>
        <time>2021-08-04T09:16:41.882Z</time>
      </trkpt>
      <trkpt lat="46.98439" lon="8.78864">
        <ele>905</ele>
        <time>2021-08-04T09:16:42.883Z</time>
      </trkpt>
      <trkpt lat="46.98438" lon="8.78864">
        <ele>906</ele>
        <time>2021-08-04T09:16:43.883Z</time>
      </trkpt>
      <trkpt lat="46.98437" lon="8.78863">
        <ele>906</ele>
        <time>2021-08-04T09:16:44.883Z</time>
      </trkpt>
      <trkpt lat="46.98436" lon="8.78863">
        <ele>906</ele>
        <time>2021-08-04T09:16:45.883Z</time>
      </trkpt>
      <trkpt lat="46.98436" lon="8.78862">
        <ele>906</ele>
        <time>2021-08-04T09:16:46.883Z</time>
      </trkpt>
      <trkpt lat="46.98434" lon="8.78862">
        <ele>906</ele>
        <time>2021-08-04T09:16:47.883Z</time>
      </trkpt>
      <trkpt lat="46.98434" lon="8.78862">
        <ele>907</ele>
        <time>2021-08-04T09:16:48.883Z</time>
      </trkpt>
      <trkpt lat="46.98433" lon="8.78862">
        <ele>907</ele>
        <time>2021-08-04T09:16:49.882Z</time>
      </trkpt>
      <trkpt lat="46.98433" lon="8.78862">
        <ele>907</ele>
        <time>2021-08-04T09:16:50.882Z</time>
      </trkpt>
      <trkpt lat="46.98432" lon="8.78862">
        <ele>907</ele>
        <time>2021-08-04T09:16:51.882Z</time>
      </trkpt>
      <trkpt lat="46.98431" lon="8.78862">
        <ele>908</ele>
        <time>2021-08-04T09:16:52.882Z</time>
      </trkpt>
      <trkpt lat="46.98431" lon="8.78862">
        <ele>908</ele>
        <time>2021-08-04T09:16:53.882Z</time>
      </trkpt>
      <trkpt lat="46.9843" lon="8.78863">
        <ele>908</ele>
        <time>2021-08-04T09:16:54.882Z</time>
      </trkpt>
      <trkpt lat="46.98428" lon="8.78863">
        <ele>908</ele>
        <time>2021-08-04T09:16:55.883Z</time>
      </trkpt>
      <trkpt lat="46.98427" lon="8.78862">
        <ele>908</ele>
        <time>2021-08-04T09:16:56.882Z</time>
      </trkpt>
      <trkpt lat="46.98426" lon="8.78862">
        <ele>907</ele>
        <time>2021-08-04T09:16:57.883Z</time>
      </trkpt>
      <trkpt lat="46.98425" lon="8.78862">
        <ele>907</ele>
        <time>2021-08-04T09:16:58.883Z</time>
      </trkpt>
      <trkpt lat="46.98423" lon="8.78863">
        <ele>906</ele>
        <time>2021-08-04T09:16:59.882Z</time>
      </trkpt>
      <trkpt lat="46.98422" lon="8.78862">
        <ele>906</ele>
        <time>2021-08-04T09:17:00.883Z</time>
      </trkpt>
      <trkpt lat="46.98421" lon="8.78863">
        <ele>905</ele>
        <time>2021-08-04T09:17:01.882Z</time>
      </trkpt>
      <trkpt lat="46.98419" lon="8.78862">
        <ele>905</ele>
        <time>2021-08-04T09:17:02.883Z</time>
      </trkpt>
      <trkpt lat="46.98418" lon="8.78863">
        <ele>905</ele>
        <time>2021-08-04T09:17:03.882Z</time>
      </trkpt>
      <trkpt lat="46.98417" lon="8.78863">
        <ele>904</ele>
        <time>2021-08-04T09:17:04.882Z</time>
      </trkpt>
      <trkpt lat="46.98417" lon="8.78863">
        <ele>904</ele>
        <time>2021-08-04T09:17:05.882Z</time>
      </trkpt>
      <trkpt lat="46.98416" lon="8.78864">
        <ele>905</ele>
        <time>2021-08-04T09:17:06.883Z</time>
      </trkpt>
      <trkpt lat="46.98415" lon="8.78864">
        <ele>905</ele>
        <time>2021-08-04T09:17:07.882Z</time>
      </trkpt>
      <trkpt lat="46.98415" lon="8.78863">
        <ele>905</ele>
        <time>2021-08-04T09:17:08.882Z</time>
      </trkpt>
      <trkpt lat="46.98414" lon="8.78862">
        <ele>905</ele>
        <time>2021-08-04T09:17:09.882Z</time>
      </trkpt>
      <trkpt lat="46.98413" lon="8.78862">
        <ele>905</ele>
        <time>2021-08-04T09:17:10.882Z</time>
      </trkpt>
      <trkpt lat="46.98412" lon="8.78862">
        <ele>905</ele>
        <time>2021-08-04T09:17:11.882Z</time>
      </trkpt>
      <trkpt lat="46.98411" lon="8.78863">
        <ele>905</ele>
        <time>2021-08-04T09:17:12.882Z</time>
      </trkpt>
      <trkpt lat="46.98411" lon="8.78863">
        <ele>906</ele>
        <time>2021-08-04T09:17:13.882Z</time>
      </trkpt>
      <trkpt lat="46.9841" lon="8.78864">
        <ele>906</ele>
        <time>2021-08-04T09:17:14.882Z</time>
      </trkpt>
      <trkpt lat="46.9841" lon="8.78864">
        <ele>906</ele>
        <time>2021-08-04T09:17:15.882Z</time>
      </trkpt>
      <trkpt lat="46.9841" lon="8.78865">
        <ele>905</ele>
        <time>2021-08-04T09:17:16.883Z</time>
      </trkpt>
      <trkpt lat="46.98409" lon="8.78864">
        <ele>905</ele>
        <time>2021-08-04T09:17:17.883Z</time>
      </trkpt>
      <trkpt lat="46.98409" lon="8.78864">
        <ele>905</ele>
        <time>2021-08-04T09:17:18.882Z</time>
      </trkpt>
      <trkpt lat="46.98409" lon="8.78864">
        <ele>905</ele>
        <time>2021-08-04T09:17:19.882Z</time>
      </trkpt>
      <trkpt lat="46.98408" lon="8.78865">
        <ele>905</ele>
        <time>2021-08-04T09:17:20.882Z</time>
      </trkpt>
      <trkpt lat="46.98408" lon="8.78865">
        <ele>904</ele>
        <time>2021-08-04T09:17:21.883Z</time>
      </trkpt>
      <trkpt lat="46.98407" lon="8.78866">
        <ele>904</ele>
        <time>2021-08-04T09:17:22.882Z</time>
      </trkpt>
      <trkpt lat="46.98407" lon="8.78866">
        <ele>904</ele>
        <time>2021-08-04T09:17:23.882Z</time>
      </trkpt>
      <trkpt lat="46.98406" lon="8.78866">
        <ele>903</ele>
        <time>2021-08-04T09:17:24.882Z</time>
      </trkpt>
      <trkpt lat="46.98406" lon="8.78867">
        <ele>903</ele>
        <time>2021-08-04T09:17:25.882Z</time>
      </trkpt>
      <trkpt lat="46.98406" lon="8.78868">
        <ele>902</ele>
        <time>2021-08-04T09:17:26.883Z</time>
      </trkpt>
      <trkpt lat="46.98405" lon="8.78868">
        <ele>902</ele>
        <time>2021-08-04T09:17:27.882Z</time>
      </trkpt>
      <trkpt lat="46.98404" lon="8.78869">
        <ele>902</ele>
        <time>2021-08-04T09:17:28.882Z</time>
      </trkpt>
      <trkpt lat="46.98404" lon="8.78869">
        <ele>902</ele>
        <time>2021-08-04T09:17:29.883Z</time>
      </trkpt>
      <trkpt lat="46.98403" lon="8.78869">
        <ele>902</ele>
        <time>2021-08-04T09:17:30.882Z</time>
      </trkpt>
      <trkpt lat="46.98402" lon="8.7887">
        <ele>902</ele>
        <time>2021-08-04T09:17:31.882Z</time>
      </trkpt>
      <trkpt lat="46.98402" lon="8.7887">
        <ele>901</ele>
        <time>2021-08-04T09:17:32.882Z</time>
      </trkpt>
      <trkpt lat="46.98402" lon="8.78871">
        <ele>901</ele>
        <time>2021-08-04T09:17:33.882Z</time>
      </trkpt>
      <trkpt lat="46.98401" lon="8.78871">
        <ele>901</ele>
        <time>2021-08-04T09:17:34.882Z</time>
      </trkpt>
      <trkpt lat="46.98401" lon="8.78872">
        <ele>900</ele>
        <time>2021-08-04T09:17:35.883Z</time>
      </trkpt>
      <trkpt lat="46.984" lon="8.78873">
        <ele>900</ele>
        <time>2021-08-04T09:17:36.883Z</time>
      </trkpt>
      <trkpt lat="46.984" lon="8.78873">
        <ele>900</ele>
        <time>2021-08-04T09:17:37.883Z</time>
      </trkpt>
      <trkpt lat="46.98399" lon="8.78874">
        <ele>899</ele>
        <time>2021-08-04T09:17:38.882Z</time>
      </trkpt>
      <trkpt lat="46.98399" lon="8.78875">
        <ele>899</ele>
        <time>2021-08-04T09:17:39.882Z</time>
      </trkpt>
      <trkpt lat="46.98397" lon="8.78876">
        <ele>898</ele>
        <time>2021-08-04T09:17:40.882Z</time>
      </trkpt>
      <trkpt lat="46.98397" lon="8.78876">
        <ele>897</ele>
        <time>2021-08-04T09:17:41.882Z</time>
      </trkpt>
      <trkpt lat="46.98397" lon="8.78876">
        <ele>897</ele>
        <time>2021-08-04T09:17:42.883Z</time>
      </trkpt>
      <trkpt lat="46.98397" lon="8.78877">
        <ele>896</ele>
        <time>2021-08-04T09:17:43.883Z</time>
      </trkpt>
      <trkpt lat="46.98397" lon="8.78877">
        <ele>895</ele>
        <time>2021-08-04T09:17:44.883Z</time>
      </trkpt>
      <trkpt lat="46.98396" lon="8.78877">
        <ele>894</ele>
        <time>2021-08-04T09:17:45.882Z</time>
      </trkpt>
      <trkpt lat="46.98396" lon="8.78878">
        <ele>894</ele>
        <time>2021-08-04T09:17:46.883Z</time>
      </trkpt>
      <trkpt lat="46.98396" lon="8.78878">
        <ele>893</ele>
        <time>2021-08-04T09:17:47.883Z</time>
      </trkpt>
      <trkpt lat="46.98396" lon="8.78879">
        <ele>892</ele>
        <time>2021-08-04T09:17:48.883Z</time>
      </trkpt>
      <trkpt lat="46.98396" lon="8.78879">
        <ele>892</ele>
        <time>2021-08-04T09:17:49.883Z</time>
      </trkpt>
      <trkpt lat="46.98395" lon="8.7888">
        <ele>891</ele>
        <time>2021-08-04T09:17:50.883Z</time>
      </trkpt>
      <trkpt lat="46.98395" lon="8.78881">
        <ele>891</ele>
        <time>2021-08-04T09:17:51.882Z</time>
      </trkpt>
      <trkpt lat="46.98396" lon="8.78881">
        <ele>891</ele>
        <time>2021-08-04T09:17:52.882Z</time>
      </trkpt>
      <trkpt lat="46.98396" lon="8.78881">
        <ele>890</ele>
        <time>2021-08-04T09:17:53.883Z</time>
      </trkpt>
      <trkpt lat="46.98397" lon="8.78882">
        <ele>889</ele>
        <time>2021-08-04T09:17:54.883Z</time>
      </trkpt>
      <trkpt lat="46.98397" lon="8.78882">
        <ele>889</ele>
        <time>2021-08-04T09:17:55.883Z</time>
      </trkpt>
      <trkpt lat="46.98397" lon="8.78882">
        <ele>888</ele>
        <time>2021-08-04T09:17:56.882Z</time>
      </trkpt>
      <trkpt lat="46.98397" lon="8.78883">
        <ele>887</ele>
        <time>2021-08-04T09:17:57.883Z</time>
      </trkpt>
      <trkpt lat="46.98396" lon="8.78884">
        <ele>887</ele>
        <time>2021-08-04T09:17:58.882Z</time>
      </trkpt>
      <trkpt lat="46.98396" lon="8.78884">
        <ele>886</ele>
        <time>2021-08-04T09:17:59.883Z</time>
      </trkpt>
      <trkpt lat="46.98396" lon="8.78884">
        <ele>885</ele>
        <time>2021-08-04T09:18:00.882Z</time>
      </trkpt>
      <trkpt lat="46.98396" lon="8.78884">
        <ele>885</ele>
        <time>2021-08-04T09:18:01.882Z</time>
      </trkpt>
      <trkpt lat="46.98395" lon="8.78884">
        <ele>885</ele>
        <time>2021-08-04T09:18:02.882Z</time>
      </trkpt>
      <trkpt lat="46.98392" lon="8.78883">
        <ele>886</ele>
        <time>2021-08-04T09:18:03.882Z</time>
      </trkpt>
      <trkpt lat="46.98391" lon="8.78885">
        <ele>886</ele>
        <time>2021-08-04T09:18:04.882Z</time>
      </trkpt>
      <trkpt lat="46.98392" lon="8.78886">
        <ele>886</ele>
        <time>2021-08-04T09:18:05.882Z</time>
      </trkpt>
      <trkpt lat="46.98391" lon="8.78886">
        <ele>886</ele>
        <time>2021-08-04T09:18:06.882Z</time>
      </trkpt>
      <trkpt lat="46.98386" lon="8.78881">
        <ele>886</ele>
        <time>2021-08-04T09:18:07.884Z</time>
      </trkpt>
      <trkpt lat="46.98386" lon="8.78881">
        <ele>886</ele>
        <time>2021-08-04T09:18:08.883Z</time>
      </trkpt>
      <trkpt lat="46.98385" lon="8.78881">
        <ele>886</ele>
        <time>2021-08-04T09:18:09.884Z</time>
      </trkpt>
      <trkpt lat="46.98385" lon="8.78881">
        <ele>883</ele>
        <time>2021-08-04T09:18:10.884Z</time>
      </trkpt>
      <trkpt lat="46.98385" lon="8.7888">
        <ele>882</ele>
        <time>2021-08-04T09:18:11.884Z</time>
      </trkpt>
      <trkpt lat="46.98382" lon="8.78883">
        <ele>881</ele>
        <time>2021-08-04T09:18:12.885Z</time>
      </trkpt>
      <trkpt lat="46.98381" lon="8.78884">
        <ele>880</ele>
        <time>2021-08-04T09:18:13.885Z</time>
      </trkpt>
      <trkpt lat="46.98381" lon="8.78885">
        <ele>879</ele>
        <time>2021-08-04T09:18:14.885Z</time>
      </trkpt>
      <trkpt lat="46.9838" lon="8.78886">
        <ele>878</ele>
        <time>2021-08-04T09:18:15.885Z</time>
      </trkpt>
      <trkpt lat="46.98379" lon="8.78886">
        <ele>878</ele>
        <time>2021-08-04T09:18:16.885Z</time>
      </trkpt>
      <trkpt lat="46.98379" lon="8.78887">
        <ele>878</ele>
        <time>2021-08-04T09:18:17.885Z</time>
      </trkpt>
      <trkpt lat="46.98379" lon="8.78887">
        <ele>877</ele>
        <time>2021-08-04T09:18:18.885Z</time>
      </trkpt>
      <trkpt lat="46.98379" lon="8.78887">
        <ele>877</ele>
        <time>2021-08-04T09:18:19.885Z</time>
      </trkpt>
      <trkpt lat="46.98377" lon="8.78886">
        <ele>876</ele>
        <time>2021-08-04T09:18:20.884Z</time>
      </trkpt>
      <trkpt lat="46.98376" lon="8.78886">
        <ele>876</ele>
        <time>2021-08-04T09:18:21.884Z</time>
      </trkpt>
      <trkpt lat="46.98377" lon="8.78886">
        <ele>876</ele>
        <time>2021-08-04T09:18:22.885Z</time>
      </trkpt>
      <trkpt lat="46.98377" lon="8.78886">
        <ele>875</ele>
        <time>2021-08-04T09:18:23.884Z</time>
      </trkpt>
      <trkpt lat="46.98377" lon="8.78885">
        <ele>875</ele>
        <time>2021-08-04T09:18:24.885Z</time>
      </trkpt>
      <trkpt lat="46.98377" lon="8.78884">
        <ele>875</ele>
        <time>2021-08-04T09:18:25.885Z</time>
      </trkpt>
      <trkpt lat="46.98377" lon="8.78884">
        <ele>874</ele>
        <time>2021-08-04T09:18:26.885Z</time>
      </trkpt>
      <trkpt lat="46.98377" lon="8.78883">
        <ele>874</ele>
        <time>2021-08-04T09:18:27.885Z</time>
      </trkpt>
      <trkpt lat="46.98377" lon="8.78882">
        <ele>873</ele>
        <time>2021-08-04T09:18:28.885Z</time>
      </trkpt>
      <trkpt lat="46.98377" lon="8.78882">
        <ele>873</ele>
        <time>2021-08-04T09:18:29.885Z</time>
      </trkpt>
      <trkpt lat="46.98376" lon="8.78882">
        <ele>872</ele>
        <time>2021-08-04T09:18:30.885Z</time>
      </trkpt>
      <trkpt lat="46.98376" lon="8.78882">
        <ele>872</ele>
        <time>2021-08-04T09:18:31.884Z</time>
      </trkpt>
      <trkpt lat="46.98376" lon="8.78883">
        <ele>872</ele>
        <time>2021-08-04T09:18:32.885Z</time>
      </trkpt>
      <trkpt lat="46.98375" lon="8.78883">
        <ele>872</ele>
        <time>2021-08-04T09:18:33.884Z</time>
      </trkpt>
      <trkpt lat="46.98375" lon="8.78884">
        <ele>872</ele>
        <time>2021-08-04T09:18:34.885Z</time>
      </trkpt>
      <trkpt lat="46.98375" lon="8.78885">
        <ele>872</ele>
        <time>2021-08-04T09:18:35.884Z</time>
      </trkpt>
      <trkpt lat="46.98374" lon="8.78886">
        <ele>873</ele>
        <time>2021-08-04T09:18:36.884Z</time>
      </trkpt>
      <trkpt lat="46.98373" lon="8.78887">
        <ele>873</ele>
        <time>2021-08-04T09:18:37.884Z</time>
      </trkpt>
      <trkpt lat="46.98372" lon="8.78888">
        <ele>874</ele>
        <time>2021-08-04T09:18:38.884Z</time>
      </trkpt>
      <trkpt lat="46.98371" lon="8.78888">
        <ele>874</ele>
        <time>2021-08-04T09:18:39.885Z</time>
      </trkpt>
      <trkpt lat="46.9837" lon="8.78889">
        <ele>875</ele>
        <time>2021-08-04T09:18:40.885Z</time>
      </trkpt>
      <trkpt lat="46.98369" lon="8.78888">
        <ele>876</ele>
        <time>2021-08-04T09:18:41.884Z</time>
      </trkpt>
      <trkpt lat="46.98368" lon="8.78888">
        <ele>876</ele>
        <time>2021-08-04T09:18:42.885Z</time>
      </trkpt>
      <trkpt lat="46.98366" lon="8.78888">
        <ele>877</ele>
        <time>2021-08-04T09:18:43.884Z</time>
      </trkpt>
      <trkpt lat="46.98365" lon="8.78887">
        <ele>878</ele>
        <time>2021-08-04T09:18:44.885Z</time>
      </trkpt>
      <trkpt lat="46.98364" lon="8.78888">
        <ele>878</ele>
        <time>2021-08-04T09:18:45.885Z</time>
      </trkpt>
      <trkpt lat="46.98363" lon="8.78889">
        <ele>878</ele>
        <time>2021-08-04T09:18:46.884Z</time>
      </trkpt>
      <trkpt lat="46.98362" lon="8.7889">
        <ele>878</ele>
        <time>2021-08-04T09:18:47.884Z</time>
      </trkpt>
      <trkpt lat="46.98362" lon="8.78891">
        <ele>878</ele>
        <time>2021-08-04T09:18:48.885Z</time>
      </trkpt>
      <trkpt lat="46.98361" lon="8.78891">
        <ele>878</ele>
        <time>2021-08-04T09:18:49.884Z</time>
      </trkpt>
      <trkpt lat="46.98361" lon="8.78892">
        <ele>877</ele>
        <time>2021-08-04T09:18:50.884Z</time>
      </trkpt>
      <trkpt lat="46.9836" lon="8.78893">
        <ele>877</ele>
        <time>2021-08-04T09:18:51.885Z</time>
      </trkpt>
      <trkpt lat="46.98359" lon="8.78893">
        <ele>877</ele>
        <time>2021-08-04T09:18:52.885Z</time>
      </trkpt>
      <trkpt lat="46.98359" lon="8.78893">
        <ele>877</ele>
        <time>2021-08-04T09:18:53.885Z</time>
      </trkpt>
      <trkpt lat="46.98358" lon="8.78893">
        <ele>877</ele>
        <time>2021-08-04T09:18:54.885Z</time>
      </trkpt>
      <trkpt lat="46.98357" lon="8.78892">
        <ele>877</ele>
        <time>2021-08-04T09:18:55.885Z</time>
      </trkpt>
      <trkpt lat="46.98356" lon="8.78892">
        <ele>877</ele>
        <time>2021-08-04T09:18:56.885Z</time>
      </trkpt>
      <trkpt lat="46.98355" lon="8.78892">
        <ele>877</ele>
        <time>2021-08-04T09:18:57.885Z</time>
      </trkpt>
      <trkpt lat="46.98355" lon="8.78893">
        <ele>877</ele>
        <time>2021-08-04T09:18:58.884Z</time>
      </trkpt>
      <trkpt lat="46.98355" lon="8.78893">
        <ele>877</ele>
        <time>2021-08-04T09:18:59.885Z</time>
      </trkpt>
      <trkpt lat="46.98354" lon="8.78894">
        <ele>876</ele>
        <time>2021-08-04T09:19:00.884Z</time>
      </trkpt>
      <trkpt lat="46.98353" lon="8.78894">
        <ele>876</ele>
        <time>2021-08-04T09:19:01.884Z</time>
      </trkpt>
      <trkpt lat="46.98352" lon="8.78893">
        <ele>876</ele>
        <time>2021-08-04T09:19:02.884Z</time>
      </trkpt>
      <trkpt lat="46.98351" lon="8.78892">
        <ele>877</ele>
        <time>2021-08-04T09:19:03.884Z</time>
      </trkpt>
      <trkpt lat="46.9835" lon="8.78891">
        <ele>877</ele>
        <time>2021-08-04T09:19:04.885Z</time>
      </trkpt>
      <trkpt lat="46.98349" lon="8.78891">
        <ele>877</ele>
        <time>2021-08-04T09:19:05.884Z</time>
      </trkpt>
      <trkpt lat="46.98348" lon="8.78891">
        <ele>877</ele>
        <time>2021-08-04T09:19:06.885Z</time>
      </trkpt>
      <trkpt lat="46.98347" lon="8.78891">
        <ele>877</ele>
        <time>2021-08-04T09:19:07.885Z</time>
      </trkpt>
      <trkpt lat="46.98346" lon="8.78891">
        <ele>877</ele>
        <time>2021-08-04T09:19:08.884Z</time>
      </trkpt>
      <trkpt lat="46.98346" lon="8.78891">
        <ele>877</ele>
        <time>2021-08-04T09:19:09.885Z</time>
      </trkpt>
      <trkpt lat="46.98345" lon="8.78891">
        <ele>877</ele>
        <time>2021-08-04T09:19:10.884Z</time>
      </trkpt>
      <trkpt lat="46.98344" lon="8.78892">
        <ele>877</ele>
        <time>2021-08-04T09:19:11.885Z</time>
      </trkpt>
      <trkpt lat="46.98344" lon="8.78892">
        <ele>877</ele>
        <time>2021-08-04T09:19:12.884Z</time>
      </trkpt>
      <trkpt lat="46.98343" lon="8.78892">
        <ele>877</ele>
        <time>2021-08-04T09:19:13.885Z</time>
      </trkpt>
      <trkpt lat="46.98342" lon="8.78893">
        <ele>876</ele>
        <time>2021-08-04T09:19:14.884Z</time>
      </trkpt>
      <trkpt lat="46.98341" lon="8.78893">
        <ele>876</ele>
        <time>2021-08-04T09:19:15.884Z</time>
      </trkpt>
      <trkpt lat="46.9834" lon="8.78893">
        <ele>876</ele>
        <time>2021-08-04T09:19:16.884Z</time>
      </trkpt>
      <trkpt lat="46.98339" lon="8.78894">
        <ele>876</ele>
        <time>2021-08-04T09:19:17.885Z</time>
      </trkpt>
      <trkpt lat="46.98339" lon="8.78894">
        <ele>875</ele>
        <time>2021-08-04T09:19:18.884Z</time>
      </trkpt>
      <trkpt lat="46.98339" lon="8.78895">
        <ele>875</ele>
        <time>2021-08-04T09:19:19.884Z</time>
      </trkpt>
      <trkpt lat="46.98338" lon="8.78895">
        <ele>875</ele>
        <time>2021-08-04T09:19:20.884Z</time>
      </trkpt>
      <trkpt lat="46.98338" lon="8.78895">
        <ele>874</ele>
        <time>2021-08-04T09:19:21.885Z</time>
      </trkpt>
      <trkpt lat="46.98337" lon="8.78896">
        <ele>874</ele>
        <time>2021-08-04T09:19:22.884Z</time>
      </trkpt>
      <trkpt lat="46.98336" lon="8.78896">
        <ele>873</ele>
        <time>2021-08-04T09:19:23.885Z</time>
      </trkpt>
      <trkpt lat="46.98336" lon="8.78896">
        <ele>873</ele>
        <time>2021-08-04T09:19:24.885Z</time>
      </trkpt>
      <trkpt lat="46.98335" lon="8.78896">
        <ele>872</ele>
        <time>2021-08-04T09:19:25.885Z</time>
      </trkpt>
      <trkpt lat="46.98334" lon="8.78896">
        <ele>871</ele>
        <time>2021-08-04T09:19:26.884Z</time>
      </trkpt>
      <trkpt lat="46.98333" lon="8.78897">
        <ele>870</ele>
        <time>2021-08-04T09:19:27.885Z</time>
      </trkpt>
      <trkpt lat="46.98332" lon="8.78898">
        <ele>870</ele>
        <time>2021-08-04T09:19:28.885Z</time>
      </trkpt>
      <trkpt lat="46.98332" lon="8.78898">
        <ele>869</ele>
        <time>2021-08-04T09:19:29.884Z</time>
      </trkpt>
      <trkpt lat="46.98331" lon="8.78898">
        <ele>868</ele>
        <time>2021-08-04T09:19:30.885Z</time>
      </trkpt>
      <trkpt lat="46.9833" lon="8.78899">
        <ele>867</ele>
        <time>2021-08-04T09:19:31.884Z</time>
      </trkpt>
      <trkpt lat="46.9833" lon="8.78899">
        <ele>866</ele>
        <time>2021-08-04T09:19:32.885Z</time>
      </trkpt>
      <trkpt lat="46.98329" lon="8.78899">
        <ele>866</ele>
        <time>2021-08-04T09:19:33.885Z</time>
      </trkpt>
      <trkpt lat="46.98328" lon="8.78899">
        <ele>865</ele>
        <time>2021-08-04T09:19:34.884Z</time>
      </trkpt>
      <trkpt lat="46.98327" lon="8.78899">
        <ele>865</ele>
        <time>2021-08-04T09:19:35.885Z</time>
      </trkpt>
      <trkpt lat="46.98326" lon="8.78899">
        <ele>865</ele>
        <time>2021-08-04T09:19:36.885Z</time>
      </trkpt>
      <trkpt lat="46.98324" lon="8.78899">
        <ele>865</ele>
        <time>2021-08-04T09:19:37.885Z</time>
      </trkpt>
      <trkpt lat="46.98323" lon="8.78898">
        <ele>865</ele>
        <time>2021-08-04T09:19:38.885Z</time>
      </trkpt>
      <trkpt lat="46.98322" lon="8.78899">
        <ele>865</ele>
        <time>2021-08-04T09:19:39.885Z</time>
      </trkpt>
      <trkpt lat="46.98321" lon="8.789">
        <ele>865</ele>
        <time>2021-08-04T09:19:40.884Z</time>
      </trkpt>
      <trkpt lat="46.98321" lon="8.789">
        <ele>865</ele>
        <time>2021-08-04T09:19:41.885Z</time>
      </trkpt>
      <trkpt lat="46.9832" lon="8.789">
        <ele>864</ele>
        <time>2021-08-04T09:19:42.885Z</time>
      </trkpt>
      <trkpt lat="46.98319" lon="8.78901">
        <ele>864</ele>
        <time>2021-08-04T09:19:43.884Z</time>
      </trkpt>
      <trkpt lat="46.98318" lon="8.78901">
        <ele>863</ele>
        <time>2021-08-04T09:19:48.045Z</time>
      </trkpt>
      <trkpt lat="46.98318" lon="8.789">
        <ele>863</ele>
        <time>2021-08-04T09:19:49.045Z</time>
      </trkpt>
      <trkpt lat="46.98317" lon="8.78899">
        <ele>862</ele>
        <time>2021-08-04T09:19:50.044Z</time>
      </trkpt>
      <trkpt lat="46.98316" lon="8.78899">
        <ele>862</ele>
        <time>2021-08-04T09:19:51.045Z</time>
      </trkpt>
      <trkpt lat="46.98315" lon="8.78898">
        <ele>861</ele>
        <time>2021-08-04T09:19:52.045Z</time>
      </trkpt>
      <trkpt lat="46.98314" lon="8.78898">
        <ele>861</ele>
        <time>2021-08-04T09:19:53.045Z</time>
      </trkpt>
      <trkpt lat="46.98314" lon="8.78898">
        <ele>861</ele>
        <time>2021-08-04T09:19:54.045Z</time>
      </trkpt>
      <trkpt lat="46.98314" lon="8.78898">
        <ele>861</ele>
        <time>2021-08-04T09:19:55.045Z</time>
      </trkpt>
      <trkpt lat="46.98314" lon="8.78898">
        <ele>861</ele>
        <time>2021-08-04T09:19:56.044Z</time>
      </trkpt>
      <trkpt lat="46.98313" lon="8.78898">
        <ele>860</ele>
        <time>2021-08-04T09:19:57.045Z</time>
      </trkpt>
      <trkpt lat="46.98312" lon="8.78899">
        <ele>859</ele>
        <time>2021-08-04T09:19:58.045Z</time>
      </trkpt>
      <trkpt lat="46.98312" lon="8.78899">
        <ele>858</ele>
        <time>2021-08-04T09:19:59.045Z</time>
      </trkpt>
      <trkpt lat="46.98312" lon="8.78899">
        <ele>857</ele>
        <time>2021-08-04T09:20:00.044Z</time>
      </trkpt>
      <trkpt lat="46.98311" lon="8.78899">
        <ele>856</ele>
        <time>2021-08-04T09:20:09.165Z</time>
      </trkpt>
      <trkpt lat="46.98311" lon="8.78899">
        <ele>855</ele>
        <time>2021-08-04T09:20:10.165Z</time>
      </trkpt>
      <trkpt lat="46.98311" lon="8.78899">
        <ele>854</ele>
        <time>2021-08-04T09:20:18.314Z</time>
      </trkpt>
      <trkpt lat="46.9831" lon="8.78899">
        <ele>853</ele>
        <time>2021-08-04T09:20:19.314Z</time>
      </trkpt>
      <trkpt lat="46.98309" lon="8.78899">
        <ele>853</ele>
        <time>2021-08-04T09:20:20.314Z</time>
      </trkpt>
      <trkpt lat="46.98307" lon="8.78899">
        <ele>852</ele>
        <time>2021-08-04T09:20:21.315Z</time>
      </trkpt>
      <trkpt lat="46.98306" lon="8.78899">
        <ele>851</ele>
        <time>2021-08-04T09:20:22.314Z</time>
      </trkpt>
      <trkpt lat="46.98305" lon="8.78899">
        <ele>851</ele>
        <time>2021-08-04T09:20:23.315Z</time>
      </trkpt>
      <trkpt lat="46.98304" lon="8.78899">
        <ele>851</ele>
        <time>2021-08-04T09:20:24.315Z</time>
      </trkpt>
      <trkpt lat="46.98304" lon="8.78898">
        <ele>851</ele>
        <time>2021-08-04T09:20:25.315Z</time>
      </trkpt>
      <trkpt lat="46.98302" lon="8.78898">
        <ele>851</ele>
        <time>2021-08-04T09:20:26.314Z</time>
      </trkpt>
      <trkpt lat="46.98301" lon="8.78898">
        <ele>851</ele>
        <time>2021-08-04T09:20:27.315Z</time>
      </trkpt>
      <trkpt lat="46.983" lon="8.78898">
        <ele>852</ele>
        <time>2021-08-04T09:20:28.315Z</time>
      </trkpt>
      <trkpt lat="46.98298" lon="8.78898">
        <ele>852</ele>
        <time>2021-08-04T09:20:29.315Z</time>
      </trkpt>
      <trkpt lat="46.98297" lon="8.78897">
        <ele>853</ele>
        <time>2021-08-04T09:20:33.373Z</time>
      </trkpt>
      <trkpt lat="46.98296" lon="8.78896">
        <ele>853</ele>
        <time>2021-08-04T09:20:34.374Z</time>
      </trkpt>
      <trkpt lat="46.98295" lon="8.78896">
        <ele>853</ele>
        <time>2021-08-04T09:20:49.308Z</time>
      </trkpt>
      <trkpt lat="46.98294" lon="8.78896">
        <ele>854</ele>
        <time>2021-08-04T09:20:50.308Z</time>
      </trkpt>
      <trkpt lat="46.98293" lon="8.78896">
        <ele>854</ele>
        <time>2021-08-04T09:20:51.308Z</time>
      </trkpt>
      <trkpt lat="46.98292" lon="8.78896">
        <ele>854</ele>
        <time>2021-08-04T09:20:52.307Z</time>
      </trkpt>
      <trkpt lat="46.98292" lon="8.78896">
        <ele>855</ele>
        <time>2021-08-04T09:20:53.308Z</time>
      </trkpt>
      <trkpt lat="46.98292" lon="8.78897">
        <ele>855</ele>
        <time>2021-08-04T09:20:54.308Z</time>
      </trkpt>
      <trkpt lat="46.98291" lon="8.78897">
        <ele>854</ele>
        <time>2021-08-04T09:20:55.307Z</time>
      </trkpt>
      <trkpt lat="46.9829" lon="8.78897">
        <ele>854</ele>
        <time>2021-08-04T09:20:56.308Z</time>
      </trkpt>
      <trkpt lat="46.98289" lon="8.78896">
        <ele>855</ele>
        <time>2021-08-04T09:20:57.308Z</time>
      </trkpt>
      <trkpt lat="46.98288" lon="8.78895">
        <ele>855</ele>
        <time>2021-08-04T09:20:58.308Z</time>
      </trkpt>
      <trkpt lat="46.98287" lon="8.78894">
        <ele>855</ele>
        <time>2021-08-04T09:20:59.308Z</time>
      </trkpt>
      <trkpt lat="46.98286" lon="8.78893">
        <ele>855</ele>
        <time>2021-08-04T09:21:00.308Z</time>
      </trkpt>
      <trkpt lat="46.98285" lon="8.78893">
        <ele>854</ele>
        <time>2021-08-04T09:21:01.308Z</time>
      </trkpt>
      <trkpt lat="46.98284" lon="8.78892">
        <ele>854</ele>
        <time>2021-08-04T09:21:02.308Z</time>
      </trkpt>
      <trkpt lat="46.98283" lon="8.78891">
        <ele>853</ele>
        <time>2021-08-04T09:21:03.308Z</time>
      </trkpt>
      <trkpt lat="46.98282" lon="8.78891">
        <ele>853</ele>
        <time>2021-08-04T09:21:04.307Z</time>
      </trkpt>
      <trkpt lat="46.98282" lon="8.7889">
        <ele>852</ele>
        <time>2021-08-04T09:21:05.308Z</time>
      </trkpt>
      <trkpt lat="46.98281" lon="8.7889">
        <ele>852</ele>
        <time>2021-08-04T09:21:06.307Z</time>
      </trkpt>
      <trkpt lat="46.9828" lon="8.78889">
        <ele>851</ele>
        <time>2021-08-04T09:21:07.308Z</time>
      </trkpt>
      <trkpt lat="46.98279" lon="8.78888">
        <ele>851</ele>
        <time>2021-08-04T09:21:08.308Z</time>
      </trkpt>
      <trkpt lat="46.98278" lon="8.78887">
        <ele>850</ele>
        <time>2021-08-04T09:21:09.308Z</time>
      </trkpt>
      <trkpt lat="46.98278" lon="8.78886">
        <ele>850</ele>
        <time>2021-08-04T09:21:10.308Z</time>
      </trkpt>
      <trkpt lat="46.98277" lon="8.78885">
        <ele>850</ele>
        <time>2021-08-04T09:21:11.308Z</time>
      </trkpt>
      <trkpt lat="46.98276" lon="8.78884">
        <ele>849</ele>
        <time>2021-08-04T09:21:12.307Z</time>
      </trkpt>
      <trkpt lat="46.98276" lon="8.78883">
        <ele>849</ele>
        <time>2021-08-04T09:21:13.308Z</time>
      </trkpt>
      <trkpt lat="46.98275" lon="8.78883">
        <ele>847</ele>
        <time>2021-08-04T09:21:14.308Z</time>
      </trkpt>
      <trkpt lat="46.98274" lon="8.78882">
        <ele>846</ele>
        <time>2021-08-04T09:21:15.308Z</time>
      </trkpt>
      <trkpt lat="46.98274" lon="8.78881">
        <ele>845</ele>
        <time>2021-08-04T09:21:16.308Z</time>
      </trkpt>
      <trkpt lat="46.98273" lon="8.7888">
        <ele>845</ele>
        <time>2021-08-04T09:21:17.307Z</time>
      </trkpt>
      <trkpt lat="46.98272" lon="8.78879">
        <ele>844</ele>
        <time>2021-08-04T09:21:18.307Z</time>
      </trkpt>
      <trkpt lat="46.98272" lon="8.78878">
        <ele>844</ele>
        <time>2021-08-04T09:21:19.308Z</time>
      </trkpt>
      <trkpt lat="46.98271" lon="8.78877">
        <ele>844</ele>
        <time>2021-08-04T09:21:20.307Z</time>
      </trkpt>
      <trkpt lat="46.98271" lon="8.78877">
        <ele>844</ele>
        <time>2021-08-04T09:21:21.308Z</time>
      </trkpt>
      <trkpt lat="46.9827" lon="8.78876">
        <ele>844</ele>
        <time>2021-08-04T09:21:22.307Z</time>
      </trkpt>
      <trkpt lat="46.98269" lon="8.78875">
        <ele>844</ele>
        <time>2021-08-04T09:21:23.308Z</time>
      </trkpt>
      <trkpt lat="46.98268" lon="8.78875">
        <ele>843</ele>
        <time>2021-08-04T09:21:24.308Z</time>
      </trkpt>
      <trkpt lat="46.98268" lon="8.78874">
        <ele>843</ele>
        <time>2021-08-04T09:21:25.308Z</time>
      </trkpt>
      <trkpt lat="46.98267" lon="8.78873">
        <ele>843</ele>
        <time>2021-08-04T09:21:26.307Z</time>
      </trkpt>
      <trkpt lat="46.98266" lon="8.78873">
        <ele>842</ele>
        <time>2021-08-04T09:21:27.307Z</time>
      </trkpt>
      <trkpt lat="46.98265" lon="8.78872">
        <ele>842</ele>
        <time>2021-08-04T09:21:28.307Z</time>
      </trkpt>
      <trkpt lat="46.98265" lon="8.78871">
        <ele>841</ele>
        <time>2021-08-04T09:21:29.307Z</time>
      </trkpt>
      <trkpt lat="46.98264" lon="8.7887">
        <ele>841</ele>
        <time>2021-08-04T09:21:30.308Z</time>
      </trkpt>
      <trkpt lat="46.98263" lon="8.7887">
        <ele>840</ele>
        <time>2021-08-04T09:21:31.307Z</time>
      </trkpt>
      <trkpt lat="46.98263" lon="8.78869">
        <ele>840</ele>
        <time>2021-08-04T09:21:32.307Z</time>
      </trkpt>
      <trkpt lat="46.98262" lon="8.78868">
        <ele>839</ele>
        <time>2021-08-04T09:21:33.307Z</time>
      </trkpt>
      <trkpt lat="46.98262" lon="8.78867">
        <ele>838</ele>
        <time>2021-08-04T09:21:34.308Z</time>
      </trkpt>
      <trkpt lat="46.98261" lon="8.78866">
        <ele>838</ele>
        <time>2021-08-04T09:21:35.307Z</time>
      </trkpt>
      <trkpt lat="46.9826" lon="8.78865">
        <ele>837</ele>
        <time>2021-08-04T09:21:36.307Z</time>
      </trkpt>
      <trkpt lat="46.9826" lon="8.78864">
        <ele>837</ele>
        <time>2021-08-04T09:21:37.307Z</time>
      </trkpt>
      <trkpt lat="46.98259" lon="8.78863">
        <ele>837</ele>
        <time>2021-08-04T09:21:38.307Z</time>
      </trkpt>
      <trkpt lat="46.98258" lon="8.78863">
        <ele>837</ele>
        <time>2021-08-04T09:21:39.307Z</time>
      </trkpt>
      <trkpt lat="46.98257" lon="8.78862">
        <ele>837</ele>
        <time>2021-08-04T09:21:40.307Z</time>
      </trkpt>
      <trkpt lat="46.98256" lon="8.78861">
        <ele>837</ele>
        <time>2021-08-04T09:21:41.307Z</time>
      </trkpt>
      <trkpt lat="46.98255" lon="8.7886">
        <ele>837</ele>
        <time>2021-08-04T09:21:46.402Z</time>
      </trkpt>
      <trkpt lat="46.98254" lon="8.78859">
        <ele>836</ele>
        <time>2021-08-04T09:21:47.402Z</time>
      </trkpt>
      <trkpt lat="46.98253" lon="8.78858">
        <ele>836</ele>
        <time>2021-08-04T09:21:48.402Z</time>
      </trkpt>
      <trkpt lat="46.98252" lon="8.78857">
        <ele>836</ele>
        <time>2021-08-04T09:21:49.402Z</time>
      </trkpt>
      <trkpt lat="46.98251" lon="8.78856">
        <ele>836</ele>
        <time>2021-08-04T09:21:50.402Z</time>
      </trkpt>
      <trkpt lat="46.9825" lon="8.78855">
        <ele>836</ele>
        <time>2021-08-04T09:21:51.402Z</time>
      </trkpt>
      <trkpt lat="46.98249" lon="8.78854">
        <ele>836</ele>
        <time>2021-08-04T09:21:52.402Z</time>
      </trkpt>
      <trkpt lat="46.98247" lon="8.78854">
        <ele>836</ele>
        <time>2021-08-04T09:21:53.402Z</time>
      </trkpt>
      <trkpt lat="46.98247" lon="8.78853">
        <ele>836</ele>
        <time>2021-08-04T09:21:54.402Z</time>
      </trkpt>
      <trkpt lat="46.98246" lon="8.78852">
        <ele>836</ele>
        <time>2021-08-04T09:21:55.402Z</time>
      </trkpt>
      <trkpt lat="46.98245" lon="8.78851">
        <ele>836</ele>
        <time>2021-08-04T09:21:56.402Z</time>
      </trkpt>
      <trkpt lat="46.98244" lon="8.78851">
        <ele>836</ele>
        <time>2021-08-04T09:22:00.540Z</time>
      </trkpt>
      <trkpt lat="46.98243" lon="8.7885">
        <ele>835</ele>
        <time>2021-08-04T09:22:01.540Z</time>
      </trkpt>
      <trkpt lat="46.98242" lon="8.78849">
        <ele>835</ele>
        <time>2021-08-04T09:22:02.541Z</time>
      </trkpt>
      <trkpt lat="46.98241" lon="8.78849">
        <ele>835</ele>
        <time>2021-08-04T09:22:03.541Z</time>
      </trkpt>
      <trkpt lat="46.9824" lon="8.78848">
        <ele>835</ele>
        <time>2021-08-04T09:22:04.541Z</time>
      </trkpt>
      <trkpt lat="46.98239" lon="8.78847">
        <ele>834</ele>
        <time>2021-08-04T09:22:05.540Z</time>
      </trkpt>
      <trkpt lat="46.98238" lon="8.78846">
        <ele>834</ele>
        <time>2021-08-04T09:22:06.540Z</time>
      </trkpt>
      <trkpt lat="46.98237" lon="8.78846">
        <ele>834</ele>
        <time>2021-08-04T09:22:07.540Z</time>
      </trkpt>
      <trkpt lat="46.98236" lon="8.78845">
        <ele>833</ele>
        <time>2021-08-04T09:22:08.540Z</time>
      </trkpt>
      <trkpt lat="46.98235" lon="8.78844">
        <ele>833</ele>
        <time>2021-08-04T09:22:09.541Z</time>
      </trkpt>
      <trkpt lat="46.98235" lon="8.78843">
        <ele>833</ele>
        <time>2021-08-04T09:22:10.540Z</time>
      </trkpt>
      <trkpt lat="46.98234" lon="8.78841">
        <ele>833</ele>
        <time>2021-08-04T09:22:11.540Z</time>
      </trkpt>
      <trkpt lat="46.98233" lon="8.7884">
        <ele>832</ele>
        <time>2021-08-04T09:22:12.541Z</time>
      </trkpt>
      <trkpt lat="46.98232" lon="8.78839">
        <ele>832</ele>
        <time>2021-08-04T09:22:13.541Z</time>
      </trkpt>
      <trkpt lat="46.98231" lon="8.78838">
        <ele>831</ele>
        <time>2021-08-04T09:22:14.541Z</time>
      </trkpt>
      <trkpt lat="46.98231" lon="8.78837">
        <ele>830</ele>
        <time>2021-08-04T09:22:15.541Z</time>
      </trkpt>
      <trkpt lat="46.9823" lon="8.78836">
        <ele>829</ele>
        <time>2021-08-04T09:22:16.540Z</time>
      </trkpt>
      <trkpt lat="46.98229" lon="8.78835">
        <ele>829</ele>
        <time>2021-08-04T09:22:17.541Z</time>
      </trkpt>
      <trkpt lat="46.98228" lon="8.78834">
        <ele>829</ele>
        <time>2021-08-04T09:22:18.540Z</time>
      </trkpt>
      <trkpt lat="46.98228" lon="8.78832">
        <ele>828</ele>
        <time>2021-08-04T09:22:19.541Z</time>
      </trkpt>
      <trkpt lat="46.98227" lon="8.78831">
        <ele>828</ele>
        <time>2021-08-04T09:22:20.541Z</time>
      </trkpt>
      <trkpt lat="46.98226" lon="8.7883">
        <ele>828</ele>
        <time>2021-08-04T09:22:21.541Z</time>
      </trkpt>
      <trkpt lat="46.98226" lon="8.78829">
        <ele>828</ele>
        <time>2021-08-04T09:22:22.540Z</time>
      </trkpt>
      <trkpt lat="46.98225" lon="8.78829">
        <ele>828</ele>
        <time>2021-08-04T09:22:23.541Z</time>
      </trkpt>
      <trkpt lat="46.98224" lon="8.78828">
        <ele>829</ele>
        <time>2021-08-04T09:22:24.541Z</time>
      </trkpt>
      <trkpt lat="46.98224" lon="8.78828">
        <ele>829</ele>
        <time>2021-08-04T09:22:25.541Z</time>
      </trkpt>
      <trkpt lat="46.98223" lon="8.78828">
        <ele>829</ele>
        <time>2021-08-04T09:22:26.540Z</time>
      </trkpt>
      <trkpt lat="46.98224" lon="8.78828">
        <ele>829</ele>
        <time>2021-08-04T09:22:27.541Z</time>
      </trkpt>
      <trkpt lat="46.98224" lon="8.78828">
        <ele>830</ele>
        <time>2021-08-04T09:22:28.541Z</time>
      </trkpt>
      <trkpt lat="46.98224" lon="8.78828">
        <ele>830</ele>
        <time>2021-08-04T09:22:29.541Z</time>
      </trkpt>
      <trkpt lat="46.98225" lon="8.78828">
        <ele>829</ele>
        <time>2021-08-04T09:22:30.541Z</time>
      </trkpt>
      <trkpt lat="46.98225" lon="8.78828">
        <ele>829</ele>
        <time>2021-08-04T09:22:31.540Z</time>
      </trkpt>
      <trkpt lat="46.98227" lon="8.78828">
        <ele>829</ele>
        <time>2021-08-04T09:22:32.541Z</time>
      </trkpt>
      <trkpt lat="46.98228" lon="8.78828">
        <ele>828</ele>
        <time>2021-08-04T09:22:33.540Z</time>
      </trkpt>
      <trkpt lat="46.98228" lon="8.78829">
        <ele>827</ele>
        <time>2021-08-04T09:22:34.541Z</time>
      </trkpt>
      <trkpt lat="46.98227" lon="8.7883">
        <ele>827</ele>
        <time>2021-08-04T09:22:35.541Z</time>
      </trkpt>
      <trkpt lat="46.98227" lon="8.7883">
        <ele>826</ele>
        <time>2021-08-04T09:22:36.540Z</time>
      </trkpt>
      <trkpt lat="46.98226" lon="8.7883">
        <ele>826</ele>
        <time>2021-08-04T09:22:37.541Z</time>
      </trkpt>
      <trkpt lat="46.98226" lon="8.78827">
        <ele>824</ele>
        <time>2021-08-04T09:22:38.541Z</time>
      </trkpt>
      <trkpt lat="46.98224" lon="8.78826">
        <ele>824</ele>
        <time>2021-08-04T09:22:39.541Z</time>
      </trkpt>
      <trkpt lat="46.98223" lon="8.78825">
        <ele>824</ele>
        <time>2021-08-04T09:22:40.542Z</time>
      </trkpt>
      <trkpt lat="46.98222" lon="8.78825">
        <ele>824</ele>
        <time>2021-08-04T09:22:41.541Z</time>
      </trkpt>
      <trkpt lat="46.98221" lon="8.78824">
        <ele>824</ele>
        <time>2021-08-04T09:22:42.542Z</time>
      </trkpt>
      <trkpt lat="46.9822" lon="8.78824">
        <ele>824</ele>
        <time>2021-08-04T09:22:43.542Z</time>
      </trkpt>
      <trkpt lat="46.98219" lon="8.78822">
        <ele>824</ele>
        <time>2021-08-04T09:22:44.542Z</time>
      </trkpt>
      <trkpt lat="46.98218" lon="8.7882">
        <ele>824</ele>
        <time>2021-08-04T09:22:45.541Z</time>
      </trkpt>
      <trkpt lat="46.98217" lon="8.78819">
        <ele>824</ele>
        <time>2021-08-04T09:22:46.542Z</time>
      </trkpt>
      <trkpt lat="46.98216" lon="8.78818">
        <ele>823</ele>
        <time>2021-08-04T09:22:47.541Z</time>
      </trkpt>
      <trkpt lat="46.98216" lon="8.78817">
        <ele>823</ele>
        <time>2021-08-04T09:22:48.541Z</time>
      </trkpt>
      <trkpt lat="46.98215" lon="8.78815">
        <ele>823</ele>
        <time>2021-08-04T09:22:49.541Z</time>
      </trkpt>
      <trkpt lat="46.98214" lon="8.78814">
        <ele>822</ele>
        <time>2021-08-04T09:22:50.542Z</time>
      </trkpt>
      <trkpt lat="46.98213" lon="8.78813">
        <ele>822</ele>
        <time>2021-08-04T09:22:51.541Z</time>
      </trkpt>
      <trkpt lat="46.98212" lon="8.78812">
        <ele>821</ele>
        <time>2021-08-04T09:22:52.541Z</time>
      </trkpt>
      <trkpt lat="46.98212" lon="8.78811">
        <ele>821</ele>
        <time>2021-08-04T09:22:53.541Z</time>
      </trkpt>
      <trkpt lat="46.98211" lon="8.78809">
        <ele>821</ele>
        <time>2021-08-04T09:22:54.541Z</time>
      </trkpt>
      <trkpt lat="46.9821" lon="8.78808">
        <ele>820</ele>
        <time>2021-08-04T09:22:55.541Z</time>
      </trkpt>
      <trkpt lat="46.98209" lon="8.78806">
        <ele>820</ele>
        <time>2021-08-04T09:22:56.541Z</time>
      </trkpt>
      <trkpt lat="46.98208" lon="8.78804">
        <ele>821</ele>
        <time>2021-08-04T09:22:57.541Z</time>
      </trkpt>
      <trkpt lat="46.98207" lon="8.78803">
        <ele>821</ele>
        <time>2021-08-04T09:22:58.541Z</time>
      </trkpt>
      <trkpt lat="46.98207" lon="8.78801">
        <ele>820</ele>
        <time>2021-08-04T09:22:59.542Z</time>
      </trkpt>
      <trkpt lat="46.98206" lon="8.788">
        <ele>820</ele>
        <time>2021-08-04T09:23:00.542Z</time>
      </trkpt>
      <trkpt lat="46.98205" lon="8.78799">
        <ele>820</ele>
        <time>2021-08-04T09:23:01.542Z</time>
      </trkpt>
      <trkpt lat="46.98204" lon="8.78799">
        <ele>820</ele>
        <time>2021-08-04T09:23:02.542Z</time>
      </trkpt>
      <trkpt lat="46.98203" lon="8.78798">
        <ele>820</ele>
        <time>2021-08-04T09:23:03.542Z</time>
      </trkpt>
      <trkpt lat="46.98203" lon="8.78798">
        <ele>820</ele>
        <time>2021-08-04T09:23:04.542Z</time>
      </trkpt>
      <trkpt lat="46.98202" lon="8.78798">
        <ele>820</ele>
        <time>2021-08-04T09:23:05.542Z</time>
      </trkpt>
      <trkpt lat="46.98202" lon="8.78797">
        <ele>820</ele>
        <time>2021-08-04T09:23:06.542Z</time>
      </trkpt>
      <trkpt lat="46.98201" lon="8.78793">
        <ele>822</ele>
        <time>2021-08-04T09:23:07.543Z</time>
      </trkpt>
      <trkpt lat="46.982" lon="8.78792">
        <ele>822</ele>
        <time>2021-08-04T09:23:08.543Z</time>
      </trkpt>
      <trkpt lat="46.98199" lon="8.78791">
        <ele>822</ele>
        <time>2021-08-04T09:23:09.542Z</time>
      </trkpt>
      <trkpt lat="46.98198" lon="8.7879">
        <ele>823</ele>
        <time>2021-08-04T09:23:10.542Z</time>
      </trkpt>
      <trkpt lat="46.98197" lon="8.7879">
        <ele>824</ele>
        <time>2021-08-04T09:23:11.542Z</time>
      </trkpt>
      <trkpt lat="46.98196" lon="8.78789">
        <ele>824</ele>
        <time>2021-08-04T09:23:12.542Z</time>
      </trkpt>
      <trkpt lat="46.98196" lon="8.78789">
        <ele>825</ele>
        <time>2021-08-04T09:23:13.542Z</time>
      </trkpt>
      <trkpt lat="46.98195" lon="8.78788">
        <ele>825</ele>
        <time>2021-08-04T09:23:14.543Z</time>
      </trkpt>
      <trkpt lat="46.98194" lon="8.78788">
        <ele>825</ele>
        <time>2021-08-04T09:23:15.542Z</time>
      </trkpt>
      <trkpt lat="46.98194" lon="8.78788">
        <ele>824</ele>
        <time>2021-08-04T09:23:16.543Z</time>
      </trkpt>
      <trkpt lat="46.98193" lon="8.78788">
        <ele>824</ele>
        <time>2021-08-04T09:23:17.542Z</time>
      </trkpt>
      <trkpt lat="46.98193" lon="8.78788">
        <ele>823</ele>
        <time>2021-08-04T09:23:18.542Z</time>
      </trkpt>
      <trkpt lat="46.98192" lon="8.78788">
        <ele>822</ele>
        <time>2021-08-04T09:23:19.542Z</time>
      </trkpt>
      <trkpt lat="46.98192" lon="8.78788">
        <ele>822</ele>
        <time>2021-08-04T09:23:20.543Z</time>
      </trkpt>
      <trkpt lat="46.98191" lon="8.78788">
        <ele>821</ele>
        <time>2021-08-04T09:23:21.543Z</time>
      </trkpt>
      <trkpt lat="46.9819" lon="8.78787">
        <ele>820</ele>
        <time>2021-08-04T09:23:22.543Z</time>
      </trkpt>
      <trkpt lat="46.98189" lon="8.78787">
        <ele>819</ele>
        <time>2021-08-04T09:23:23.543Z</time>
      </trkpt>
      <trkpt lat="46.98189" lon="8.78787">
        <ele>818</ele>
        <time>2021-08-04T09:23:24.543Z</time>
      </trkpt>
      <trkpt lat="46.98188" lon="8.78786">
        <ele>817</ele>
        <time>2021-08-04T09:23:25.542Z</time>
      </trkpt>
      <trkpt lat="46.98187" lon="8.78786">
        <ele>817</ele>
        <time>2021-08-04T09:23:26.543Z</time>
      </trkpt>
      <trkpt lat="46.98186" lon="8.78786">
        <ele>817</ele>
        <time>2021-08-04T09:23:27.542Z</time>
      </trkpt>
      <trkpt lat="46.98186" lon="8.78785">
        <ele>817</ele>
        <time>2021-08-04T09:23:28.542Z</time>
      </trkpt>
      <trkpt lat="46.98185" lon="8.78785">
        <ele>816</ele>
        <time>2021-08-04T09:23:29.542Z</time>
      </trkpt>
      <trkpt lat="46.98184" lon="8.78785">
        <ele>816</ele>
        <time>2021-08-04T09:23:30.542Z</time>
      </trkpt>
      <trkpt lat="46.98183" lon="8.78784">
        <ele>816</ele>
        <time>2021-08-04T09:23:31.542Z</time>
      </trkpt>
      <trkpt lat="46.98182" lon="8.78784">
        <ele>816</ele>
        <time>2021-08-04T09:23:32.543Z</time>
      </trkpt>
      <trkpt lat="46.98181" lon="8.78783">
        <ele>815</ele>
        <time>2021-08-04T09:23:33.543Z</time>
      </trkpt>
      <trkpt lat="46.9818" lon="8.78783">
        <ele>815</ele>
        <time>2021-08-04T09:23:34.542Z</time>
      </trkpt>
      <trkpt lat="46.9818" lon="8.78783">
        <ele>814</ele>
        <time>2021-08-04T09:23:35.543Z</time>
      </trkpt>
      <trkpt lat="46.98179" lon="8.78783">
        <ele>813</ele>
        <time>2021-08-04T09:23:36.543Z</time>
      </trkpt>
      <trkpt lat="46.98178" lon="8.78783">
        <ele>812</ele>
        <time>2021-08-04T09:23:37.543Z</time>
      </trkpt>
      <trkpt lat="46.98178" lon="8.78783">
        <ele>811</ele>
        <time>2021-08-04T09:23:39.643Z</time>
      </trkpt>
      <trkpt lat="46.98177" lon="8.78783">
        <ele>811</ele>
        <time>2021-08-04T09:23:40.643Z</time>
      </trkpt>
      <trkpt lat="46.98176" lon="8.78782">
        <ele>811</ele>
        <time>2021-08-04T09:23:41.643Z</time>
      </trkpt>
      <trkpt lat="46.98175" lon="8.78782">
        <ele>811</ele>
        <time>2021-08-04T09:23:42.644Z</time>
      </trkpt>
      <trkpt lat="46.98174" lon="8.78781">
        <ele>810</ele>
        <time>2021-08-04T09:23:43.643Z</time>
      </trkpt>
      <trkpt lat="46.98173" lon="8.7878">
        <ele>810</ele>
        <time>2021-08-04T09:23:44.643Z</time>
      </trkpt>
      <trkpt lat="46.98172" lon="8.78779">
        <ele>810</ele>
        <time>2021-08-04T09:23:45.643Z</time>
      </trkpt>
      <trkpt lat="46.9817" lon="8.78778">
        <ele>810</ele>
        <time>2021-08-04T09:23:49.779Z</time>
      </trkpt>
      <trkpt lat="46.98169" lon="8.78777">
        <ele>810</ele>
        <time>2021-08-04T09:24:03.659Z</time>
      </trkpt>
      <trkpt lat="46.98168" lon="8.78776">
        <ele>810</ele>
        <time>2021-08-04T09:24:04.659Z</time>
      </trkpt>
      <trkpt lat="46.98166" lon="8.78776">
        <ele>810</ele>
        <time>2021-08-04T09:24:05.659Z</time>
      </trkpt>
      <trkpt lat="46.98166" lon="8.78776">
        <ele>809</ele>
        <time>2021-08-04T09:24:06.660Z</time>
      </trkpt>
      <trkpt lat="46.98165" lon="8.78776">
        <ele>809</ele>
        <time>2021-08-04T09:24:07.660Z</time>
      </trkpt>
      <trkpt lat="46.98164" lon="8.78777">
        <ele>809</ele>
        <time>2021-08-04T09:24:08.659Z</time>
      </trkpt>
      <trkpt lat="46.98163" lon="8.78777">
        <ele>809</ele>
        <time>2021-08-04T09:24:09.660Z</time>
      </trkpt>
      <trkpt lat="46.98162" lon="8.78777">
        <ele>809</ele>
        <time>2021-08-04T09:24:26.786Z</time>
      </trkpt>
      <trkpt lat="46.98161" lon="8.78777">
        <ele>809</ele>
        <time>2021-08-04T09:24:27.786Z</time>
      </trkpt>
      <trkpt lat="46.98161" lon="8.78776">
        <ele>809</ele>
        <time>2021-08-04T09:24:28.786Z</time>
      </trkpt>
      <trkpt lat="46.9816" lon="8.78776">
        <ele>809</ele>
        <time>2021-08-04T09:24:29.787Z</time>
      </trkpt>
      <trkpt lat="46.98159" lon="8.78775">
        <ele>809</ele>
        <time>2021-08-04T09:24:30.786Z</time>
      </trkpt>
      <trkpt lat="46.98158" lon="8.78775">
        <ele>809</ele>
        <time>2021-08-04T09:24:31.786Z</time>
      </trkpt>
      <trkpt lat="46.98157" lon="8.78774">
        <ele>809</ele>
        <time>2021-08-04T09:24:32.786Z</time>
      </trkpt>
      <trkpt lat="46.98156" lon="8.78774">
        <ele>808</ele>
        <time>2021-08-04T09:24:33.787Z</time>
      </trkpt>
      <trkpt lat="46.98155" lon="8.78774">
        <ele>808</ele>
        <time>2021-08-04T09:24:34.787Z</time>
      </trkpt>
      <trkpt lat="46.98154" lon="8.78773">
        <ele>807</ele>
        <time>2021-08-04T09:24:35.786Z</time>
      </trkpt>
      <trkpt lat="46.98153" lon="8.78772">
        <ele>806</ele>
        <time>2021-08-04T09:24:36.786Z</time>
      </trkpt>
      <trkpt lat="46.98153" lon="8.7877">
        <ele>806</ele>
        <time>2021-08-04T09:24:37.786Z</time>
      </trkpt>
      <trkpt lat="46.98152" lon="8.78769">
        <ele>806</ele>
        <time>2021-08-04T09:24:38.786Z</time>
      </trkpt>
      <trkpt lat="46.98152" lon="8.78767">
        <ele>805</ele>
        <time>2021-08-04T09:24:39.787Z</time>
      </trkpt>
      <trkpt lat="46.98152" lon="8.78766">
        <ele>805</ele>
        <time>2021-08-04T09:24:40.786Z</time>
      </trkpt>
      <trkpt lat="46.98152" lon="8.78764">
        <ele>806</ele>
        <time>2021-08-04T09:24:41.786Z</time>
      </trkpt>
      <trkpt lat="46.98151" lon="8.78764">
        <ele>806</ele>
        <time>2021-08-04T09:24:42.786Z</time>
      </trkpt>
      <trkpt lat="46.98151" lon="8.78763">
        <ele>807</ele>
        <time>2021-08-04T09:24:43.787Z</time>
      </trkpt>
      <trkpt lat="46.98151" lon="8.78763">
        <ele>806</ele>
        <time>2021-08-04T09:24:44.787Z</time>
      </trkpt>
      <trkpt lat="46.98151" lon="8.78763">
        <ele>806</ele>
        <time>2021-08-04T09:24:45.787Z</time>
      </trkpt>
      <trkpt lat="46.9815" lon="8.78765">
        <ele>803</ele>
        <time>2021-08-04T09:24:46.788Z</time>
      </trkpt>
      <trkpt lat="46.9815" lon="8.78765">
        <ele>803</ele>
        <time>2021-08-04T09:24:47.788Z</time>
      </trkpt>
      <trkpt lat="46.98149" lon="8.78765">
        <ele>804</ele>
        <time>2021-08-04T09:24:48.788Z</time>
      </trkpt>
      <trkpt lat="46.98152" lon="8.78766">
        <ele>805</ele>
        <time>2021-08-04T09:24:49.789Z</time>
      </trkpt>
      <trkpt lat="46.98152" lon="8.78766">
        <ele>805</ele>
        <time>2021-08-04T09:24:50.788Z</time>
      </trkpt>
      <trkpt lat="46.9815" lon="8.78766">
        <ele>804</ele>
        <time>2021-08-04T09:24:51.788Z</time>
      </trkpt>
      <trkpt lat="46.9815" lon="8.78765">
        <ele>803</ele>
        <time>2021-08-04T09:24:52.788Z</time>
      </trkpt>
      <trkpt lat="46.98149" lon="8.78765">
        <ele>803</ele>
        <time>2021-08-04T09:24:53.789Z</time>
      </trkpt>
      <trkpt lat="46.98148" lon="8.78764">
        <ele>803</ele>
        <time>2021-08-04T09:24:54.788Z</time>
      </trkpt>
      <trkpt lat="46.98148" lon="8.78764">
        <ele>802</ele>
        <time>2021-08-04T09:24:55.788Z</time>
      </trkpt>
      <trkpt lat="46.98147" lon="8.78763">
        <ele>802</ele>
        <time>2021-08-04T09:24:56.788Z</time>
      </trkpt>
      <trkpt lat="46.98147" lon="8.78763">
        <ele>803</ele>
        <time>2021-08-04T09:24:57.789Z</time>
      </trkpt>
      <trkpt lat="46.98146" lon="8.78763">
        <ele>803</ele>
        <time>2021-08-04T09:24:58.788Z</time>
      </trkpt>
      <trkpt lat="46.98145" lon="8.78763">
        <ele>803</ele>
        <time>2021-08-04T09:24:59.788Z</time>
      </trkpt>
      <trkpt lat="46.98144" lon="8.78763">
        <ele>803</ele>
        <time>2021-08-04T09:25:00.789Z</time>
      </trkpt>
      <trkpt lat="46.98143" lon="8.78763">
        <ele>804</ele>
        <time>2021-08-04T09:25:01.789Z</time>
      </trkpt>
      <trkpt lat="46.98142" lon="8.78763">
        <ele>804</ele>
        <time>2021-08-04T09:25:02.789Z</time>
      </trkpt>
      <trkpt lat="46.98141" lon="8.78763">
        <ele>804</ele>
        <time>2021-08-04T09:25:03.789Z</time>
      </trkpt>
      <trkpt lat="46.98141" lon="8.78762">
        <ele>804</ele>
        <time>2021-08-04T09:25:04.788Z</time>
      </trkpt>
      <trkpt lat="46.98139" lon="8.78762">
        <ele>804</ele>
        <time>2021-08-04T09:25:05.789Z</time>
      </trkpt>
      <trkpt lat="46.98138" lon="8.78762">
        <ele>804</ele>
        <time>2021-08-04T09:25:06.788Z</time>
      </trkpt>
      <trkpt lat="46.98137" lon="8.78762">
        <ele>804</ele>
        <time>2021-08-04T09:25:07.788Z</time>
      </trkpt>
      <trkpt lat="46.98136" lon="8.78762">
        <ele>803</ele>
        <time>2021-08-04T09:25:08.788Z</time>
      </trkpt>
      <trkpt lat="46.98135" lon="8.78761">
        <ele>803</ele>
        <time>2021-08-04T09:25:09.788Z</time>
      </trkpt>
      <trkpt lat="46.98134" lon="8.78761">
        <ele>802</ele>
        <time>2021-08-04T09:25:10.788Z</time>
      </trkpt>
      <trkpt lat="46.98133" lon="8.7876">
        <ele>802</ele>
        <time>2021-08-04T09:25:11.788Z</time>
      </trkpt>
      <trkpt lat="46.98132" lon="8.7876">
        <ele>802</ele>
        <time>2021-08-04T09:25:12.788Z</time>
      </trkpt>
      <trkpt lat="46.9813" lon="8.7876">
        <ele>802</ele>
        <time>2021-08-04T09:25:13.789Z</time>
      </trkpt>
      <trkpt lat="46.98129" lon="8.78759">
        <ele>802</ele>
        <time>2021-08-04T09:25:14.788Z</time>
      </trkpt>
      <trkpt lat="46.98128" lon="8.78758">
        <ele>802</ele>
        <time>2021-08-04T09:25:15.789Z</time>
      </trkpt>
      <trkpt lat="46.98127" lon="8.78759">
        <ele>801</ele>
        <time>2021-08-04T09:25:16.789Z</time>
      </trkpt>
      <trkpt lat="46.98126" lon="8.78759">
        <ele>801</ele>
        <time>2021-08-04T09:25:17.789Z</time>
      </trkpt>
      <trkpt lat="46.98125" lon="8.78759">
        <ele>801</ele>
        <time>2021-08-04T09:25:18.788Z</time>
      </trkpt>
      <trkpt lat="46.98124" lon="8.78759">
        <ele>801</ele>
        <time>2021-08-04T09:25:19.788Z</time>
      </trkpt>
      <trkpt lat="46.98124" lon="8.78759">
        <ele>801</ele>
        <time>2021-08-04T09:25:20.789Z</time>
      </trkpt>
      <trkpt lat="46.98123" lon="8.78759">
        <ele>800</ele>
        <time>2021-08-04T09:25:21.788Z</time>
      </trkpt>
      <trkpt lat="46.98122" lon="8.78759">
        <ele>800</ele>
        <time>2021-08-04T09:25:22.789Z</time>
      </trkpt>
      <trkpt lat="46.98122" lon="8.78759">
        <ele>800</ele>
        <time>2021-08-04T09:25:23.788Z</time>
      </trkpt>
      <trkpt lat="46.98121" lon="8.78759">
        <ele>800</ele>
        <time>2021-08-04T09:25:24.789Z</time>
      </trkpt>
      <trkpt lat="46.98121" lon="8.7876">
        <ele>800</ele>
        <time>2021-08-04T09:25:25.788Z</time>
      </trkpt>
      <trkpt lat="46.9812" lon="8.78761">
        <ele>800</ele>
        <time>2021-08-04T09:25:26.788Z</time>
      </trkpt>
      <trkpt lat="46.98119" lon="8.78761">
        <ele>799</ele>
        <time>2021-08-04T09:25:27.789Z</time>
      </trkpt>
      <trkpt lat="46.98119" lon="8.7876">
        <ele>798</ele>
        <time>2021-08-04T09:25:28.789Z</time>
      </trkpt>
      <trkpt lat="46.98118" lon="8.7876">
        <ele>798</ele>
        <time>2021-08-04T09:25:29.789Z</time>
      </trkpt>
      <trkpt lat="46.98117" lon="8.7876">
        <ele>797</ele>
        <time>2021-08-04T09:25:30.788Z</time>
      </trkpt>
      <trkpt lat="46.98117" lon="8.78759">
        <ele>797</ele>
        <time>2021-08-04T09:25:31.789Z</time>
      </trkpt>
      <trkpt lat="46.98116" lon="8.78759">
        <ele>797</ele>
        <time>2021-08-04T09:25:32.789Z</time>
      </trkpt>
      <trkpt lat="46.98116" lon="8.78758">
        <ele>797</ele>
        <time>2021-08-04T09:25:33.789Z</time>
      </trkpt>
      <trkpt lat="46.98115" lon="8.78758">
        <ele>797</ele>
        <time>2021-08-04T09:25:34.789Z</time>
      </trkpt>
      <trkpt lat="46.98115" lon="8.78757">
        <ele>797</ele>
        <time>2021-08-04T09:25:35.789Z</time>
      </trkpt>
      <trkpt lat="46.98114" lon="8.78757">
        <ele>796</ele>
        <time>2021-08-04T09:25:36.789Z</time>
      </trkpt>
      <trkpt lat="46.98114" lon="8.78756">
        <ele>795</ele>
        <time>2021-08-04T09:25:37.788Z</time>
      </trkpt>
      <trkpt lat="46.98113" lon="8.78756">
        <ele>794</ele>
        <time>2021-08-04T09:25:38.788Z</time>
      </trkpt>
      <trkpt lat="46.98113" lon="8.78755">
        <ele>793</ele>
        <time>2021-08-04T09:25:39.789Z</time>
      </trkpt>
      <trkpt lat="46.98113" lon="8.78754">
        <ele>793</ele>
        <time>2021-08-04T09:25:40.789Z</time>
      </trkpt>
      <trkpt lat="46.98112" lon="8.78753">
        <ele>792</ele>
        <time>2021-08-04T09:25:41.789Z</time>
      </trkpt>
      <trkpt lat="46.98112" lon="8.78752">
        <ele>791</ele>
        <time>2021-08-04T09:25:42.789Z</time>
      </trkpt>
      <trkpt lat="46.98112" lon="8.78751">
        <ele>791</ele>
        <time>2021-08-04T09:25:43.788Z</time>
      </trkpt>
      <trkpt lat="46.98111" lon="8.7875">
        <ele>791</ele>
        <time>2021-08-04T09:25:44.789Z</time>
      </trkpt>
      <trkpt lat="46.98111" lon="8.78748">
        <ele>790</ele>
        <time>2021-08-04T09:25:45.789Z</time>
      </trkpt>
      <trkpt lat="46.98111" lon="8.78747">
        <ele>790</ele>
        <time>2021-08-04T09:25:46.788Z</time>
      </trkpt>
      <trkpt lat="46.98111" lon="8.78746">
        <ele>790</ele>
        <time>2021-08-04T09:25:47.789Z</time>
      </trkpt>
      <trkpt lat="46.9811" lon="8.78745">
        <ele>790</ele>
        <time>2021-08-04T09:25:48.789Z</time>
      </trkpt>
      <trkpt lat="46.9811" lon="8.78743">
        <ele>789</ele>
        <time>2021-08-04T09:25:49.788Z</time>
      </trkpt>
      <trkpt lat="46.9811" lon="8.7874">
        <ele>789</ele>
        <time>2021-08-04T09:25:50.789Z</time>
      </trkpt>
      <trkpt lat="46.98109" lon="8.78738">
        <ele>789</ele>
        <time>2021-08-04T09:25:51.789Z</time>
      </trkpt>
      <trkpt lat="46.98109" lon="8.78736">
        <ele>789</ele>
        <time>2021-08-04T09:25:52.789Z</time>
      </trkpt>
      <trkpt lat="46.98109" lon="8.78734">
        <ele>789</ele>
        <time>2021-08-04T09:25:53.788Z</time>
      </trkpt>
      <trkpt lat="46.98109" lon="8.78733">
        <ele>789</ele>
        <time>2021-08-04T09:25:54.788Z</time>
      </trkpt>
      <trkpt lat="46.98109" lon="8.78732">
        <ele>789</ele>
        <time>2021-08-04T09:25:55.789Z</time>
      </trkpt>
      <trkpt lat="46.9811" lon="8.78731">
        <ele>789</ele>
        <time>2021-08-04T09:25:56.789Z</time>
      </trkpt>
      <trkpt lat="46.9811" lon="8.78729">
        <ele>789</ele>
        <time>2021-08-04T09:25:57.789Z</time>
      </trkpt>
      <trkpt lat="46.98111" lon="8.78728">
        <ele>789</ele>
        <time>2021-08-04T09:25:58.789Z</time>
      </trkpt>
      <trkpt lat="46.9811" lon="8.78727">
        <ele>789</ele>
        <time>2021-08-04T09:25:59.789Z</time>
      </trkpt>
      <trkpt lat="46.9811" lon="8.78725">
        <ele>788</ele>
        <time>2021-08-04T09:26:00.788Z</time>
      </trkpt>
      <trkpt lat="46.98111" lon="8.78724">
        <ele>788</ele>
        <time>2021-08-04T09:26:01.788Z</time>
      </trkpt>
      <trkpt lat="46.98111" lon="8.78723">
        <ele>788</ele>
        <time>2021-08-04T09:26:02.788Z</time>
      </trkpt>
      <trkpt lat="46.98111" lon="8.78721">
        <ele>788</ele>
        <time>2021-08-04T09:26:03.788Z</time>
      </trkpt>
      <trkpt lat="46.98111" lon="8.78719">
        <ele>787</ele>
        <time>2021-08-04T09:26:07.878Z</time>
      </trkpt>
      <trkpt lat="46.98111" lon="8.78718">
        <ele>787</ele>
        <time>2021-08-04T09:26:08.878Z</time>
      </trkpt>
      <trkpt lat="46.98112" lon="8.78716">
        <ele>786</ele>
        <time>2021-08-04T09:26:09.878Z</time>
      </trkpt>
      <trkpt lat="46.98112" lon="8.78715">
        <ele>786</ele>
        <time>2021-08-04T09:26:12.897Z</time>
      </trkpt>
      <trkpt lat="46.98112" lon="8.78714">
        <ele>786</ele>
        <time>2021-08-04T09:26:13.898Z</time>
      </trkpt>
      <trkpt lat="46.98113" lon="8.78713">
        <ele>785</ele>
        <time>2021-08-04T09:26:14.897Z</time>
      </trkpt>
      <trkpt lat="46.98113" lon="8.78711">
        <ele>785</ele>
        <time>2021-08-04T09:26:15.898Z</time>
      </trkpt>
      <trkpt lat="46.98113" lon="8.7871">
        <ele>785</ele>
        <time>2021-08-04T09:26:16.898Z</time>
      </trkpt>
      <trkpt lat="46.98113" lon="8.78708">
        <ele>784</ele>
        <time>2021-08-04T09:26:17.898Z</time>
      </trkpt>
      <trkpt lat="46.98113" lon="8.78707">
        <ele>784</ele>
        <time>2021-08-04T09:26:18.898Z</time>
      </trkpt>
      <trkpt lat="46.98112" lon="8.78706">
        <ele>784</ele>
        <time>2021-08-04T09:26:19.897Z</time>
      </trkpt>
      <trkpt lat="46.98111" lon="8.78706">
        <ele>783</ele>
        <time>2021-08-04T09:26:20.898Z</time>
      </trkpt>
      <trkpt lat="46.9811" lon="8.78707">
        <ele>783</ele>
        <time>2021-08-04T09:26:21.898Z</time>
      </trkpt>
      <trkpt lat="46.98109" lon="8.78708">
        <ele>782</ele>
        <time>2021-08-04T09:26:22.898Z</time>
      </trkpt>
      <trkpt lat="46.98109" lon="8.78708">
        <ele>781</ele>
        <time>2021-08-04T09:26:23.898Z</time>
      </trkpt>
      <trkpt lat="46.98108" lon="8.78709">
        <ele>780</ele>
        <time>2021-08-04T09:26:24.898Z</time>
      </trkpt>
      <trkpt lat="46.98107" lon="8.7871">
        <ele>779</ele>
        <time>2021-08-04T09:26:25.897Z</time>
      </trkpt>
      <trkpt lat="46.98106" lon="8.7871">
        <ele>778</ele>
        <time>2021-08-04T09:26:26.897Z</time>
      </trkpt>
      <trkpt lat="46.98106" lon="8.7871">
        <ele>778</ele>
        <time>2021-08-04T09:26:27.897Z</time>
      </trkpt>
      <trkpt lat="46.98106" lon="8.7871">
        <ele>777</ele>
        <time>2021-08-04T09:26:28.898Z</time>
      </trkpt>
      <trkpt lat="46.98105" lon="8.78709">
        <ele>777</ele>
        <time>2021-08-04T09:26:29.897Z</time>
      </trkpt>
      <trkpt lat="46.98104" lon="8.78708">
        <ele>777</ele>
        <time>2021-08-04T09:26:30.897Z</time>
      </trkpt>
      <trkpt lat="46.98103" lon="8.78708">
        <ele>776</ele>
        <time>2021-08-04T09:26:31.898Z</time>
      </trkpt>
      <trkpt lat="46.98102" lon="8.78708">
        <ele>776</ele>
        <time>2021-08-04T09:26:32.898Z</time>
      </trkpt>
      <trkpt lat="46.98101" lon="8.78709">
        <ele>776</ele>
        <time>2021-08-04T09:26:33.897Z</time>
      </trkpt>
      <trkpt lat="46.98101" lon="8.78709">
        <ele>776</ele>
        <time>2021-08-04T09:26:34.897Z</time>
      </trkpt>
      <trkpt lat="46.981" lon="8.78709">
        <ele>776</ele>
        <time>2021-08-04T09:26:35.897Z</time>
      </trkpt>
      <trkpt lat="46.98099" lon="8.7871">
        <ele>775</ele>
        <time>2021-08-04T09:26:36.897Z</time>
      </trkpt>
      <trkpt lat="46.98098" lon="8.78711">
        <ele>775</ele>
        <time>2021-08-04T09:26:37.897Z</time>
      </trkpt>
      <trkpt lat="46.98098" lon="8.78711">
        <ele>775</ele>
        <time>2021-08-04T09:26:38.898Z</time>
      </trkpt>
      <trkpt lat="46.98097" lon="8.78712">
        <ele>775</ele>
        <time>2021-08-04T09:26:39.898Z</time>
      </trkpt>
      <trkpt lat="46.98096" lon="8.78713">
        <ele>774</ele>
        <time>2021-08-04T09:26:40.897Z</time>
      </trkpt>
      <trkpt lat="46.98095" lon="8.78713">
        <ele>774</ele>
        <time>2021-08-04T09:26:41.897Z</time>
      </trkpt>
      <trkpt lat="46.98095" lon="8.78714">
        <ele>774</ele>
        <time>2021-08-04T09:26:42.897Z</time>
      </trkpt>
      <trkpt lat="46.98094" lon="8.78714">
        <ele>774</ele>
        <time>2021-08-04T09:26:43.897Z</time>
      </trkpt>
      <trkpt lat="46.98094" lon="8.78715">
        <ele>774</ele>
        <time>2021-08-04T09:26:44.897Z</time>
      </trkpt>
      <trkpt lat="46.98093" lon="8.78715">
        <ele>774</ele>
        <time>2021-08-04T09:26:45.897Z</time>
      </trkpt>
      <trkpt lat="46.98093" lon="8.78715">
        <ele>774</ele>
        <time>2021-08-04T09:26:46.898Z</time>
      </trkpt>
      <trkpt lat="46.98092" lon="8.78715">
        <ele>774</ele>
        <time>2021-08-04T09:26:47.897Z</time>
      </trkpt>
      <trkpt lat="46.98091" lon="8.78715">
        <ele>774</ele>
        <time>2021-08-04T09:26:48.897Z</time>
      </trkpt>
      <trkpt lat="46.9809" lon="8.78715">
        <ele>773</ele>
        <time>2021-08-04T09:26:49.897Z</time>
      </trkpt>
      <trkpt lat="46.9809" lon="8.78715">
        <ele>773</ele>
        <time>2021-08-04T09:26:50.897Z</time>
      </trkpt>
      <trkpt lat="46.9809" lon="8.78714">
        <ele>773</ele>
        <time>2021-08-04T09:26:51.897Z</time>
      </trkpt>
      <trkpt lat="46.9809" lon="8.78713">
        <ele>773</ele>
        <time>2021-08-04T09:26:52.897Z</time>
      </trkpt>
      <trkpt lat="46.98089" lon="8.78713">
        <ele>773</ele>
        <time>2021-08-04T09:26:53.898Z</time>
      </trkpt>
      <trkpt lat="46.98089" lon="8.78712">
        <ele>773</ele>
        <time>2021-08-04T09:26:54.897Z</time>
      </trkpt>
      <trkpt lat="46.9809" lon="8.78712">
        <ele>772</ele>
        <time>2021-08-04T09:26:55.898Z</time>
      </trkpt>
      <trkpt lat="46.9809" lon="8.78711">
        <ele>772</ele>
        <time>2021-08-04T09:26:56.898Z</time>
      </trkpt>
      <trkpt lat="46.98091" lon="8.7871">
        <ele>772</ele>
        <time>2021-08-04T09:26:57.897Z</time>
      </trkpt>
      <trkpt lat="46.98091" lon="8.78709">
        <ele>771</ele>
        <time>2021-08-04T09:26:58.898Z</time>
      </trkpt>
      <trkpt lat="46.98091" lon="8.78708">
        <ele>771</ele>
        <time>2021-08-04T09:26:59.897Z</time>
      </trkpt>
      <trkpt lat="46.98091" lon="8.78708">
        <ele>771</ele>
        <time>2021-08-04T09:27:00.898Z</time>
      </trkpt>
      <trkpt lat="46.9809" lon="8.78708">
        <ele>771</ele>
        <time>2021-08-04T09:27:01.898Z</time>
      </trkpt>
      <trkpt lat="46.98089" lon="8.78707">
        <ele>771</ele>
        <time>2021-08-04T09:27:02.897Z</time>
      </trkpt>
      <trkpt lat="46.98088" lon="8.78707">
        <ele>771</ele>
        <time>2021-08-04T09:27:03.898Z</time>
      </trkpt>
      <trkpt lat="46.98088" lon="8.78706">
        <ele>771</ele>
        <time>2021-08-04T09:27:04.898Z</time>
      </trkpt>
      <trkpt lat="46.98088" lon="8.78705">
        <ele>770</ele>
        <time>2021-08-04T09:27:05.897Z</time>
      </trkpt>
      <trkpt lat="46.98088" lon="8.78704">
        <ele>770</ele>
        <time>2021-08-04T09:27:06.898Z</time>
      </trkpt>
      <trkpt lat="46.98089" lon="8.78701">
        <ele>769</ele>
        <time>2021-08-04T09:27:07.899Z</time>
      </trkpt>
      <trkpt lat="46.98089" lon="8.78699">
        <ele>768</ele>
        <time>2021-08-04T09:27:08.900Z</time>
      </trkpt>
      <trkpt lat="46.98089" lon="8.78695">
        <ele>769</ele>
        <time>2021-08-04T09:27:09.901Z</time>
      </trkpt>
      <trkpt lat="46.98089" lon="8.78694">
        <ele>770</ele>
        <time>2021-08-04T09:27:10.900Z</time>
      </trkpt>
      <trkpt lat="46.98089" lon="8.78693">
        <ele>770</ele>
        <time>2021-08-04T09:27:11.900Z</time>
      </trkpt>
      <trkpt lat="46.98089" lon="8.78692">
        <ele>771</ele>
        <time>2021-08-04T09:27:12.901Z</time>
      </trkpt>
      <trkpt lat="46.98088" lon="8.7869">
        <ele>771</ele>
        <time>2021-08-04T09:27:13.900Z</time>
      </trkpt>
      <trkpt lat="46.98088" lon="8.78689">
        <ele>772</ele>
        <time>2021-08-04T09:27:14.901Z</time>
      </trkpt>
      <trkpt lat="46.98089" lon="8.78688">
        <ele>772</ele>
        <time>2021-08-04T09:27:15.901Z</time>
      </trkpt>
      <trkpt lat="46.98089" lon="8.78687">
        <ele>772</ele>
        <time>2021-08-04T09:27:16.901Z</time>
      </trkpt>
      <trkpt lat="46.9809" lon="8.78687">
        <ele>772</ele>
        <time>2021-08-04T09:27:17.900Z</time>
      </trkpt>
      <trkpt lat="46.98091" lon="8.78687">
        <ele>772</ele>
        <time>2021-08-04T09:27:18.900Z</time>
      </trkpt>
      <trkpt lat="46.98092" lon="8.78687">
        <ele>772</ele>
        <time>2021-08-04T09:27:19.900Z</time>
      </trkpt>
      <trkpt lat="46.98092" lon="8.78686">
        <ele>772</ele>
        <time>2021-08-04T09:27:20.900Z</time>
      </trkpt>
      <trkpt lat="46.98093" lon="8.78686">
        <ele>771</ele>
        <time>2021-08-04T09:27:21.901Z</time>
      </trkpt>
      <trkpt lat="46.98092" lon="8.78685">
        <ele>770</ele>
        <time>2021-08-04T09:27:22.900Z</time>
      </trkpt>
      <trkpt lat="46.98092" lon="8.78684">
        <ele>770</ele>
        <time>2021-08-04T09:27:23.900Z</time>
      </trkpt>
      <trkpt lat="46.98092" lon="8.78682">
        <ele>770</ele>
        <time>2021-08-04T09:27:24.900Z</time>
      </trkpt>
      <trkpt lat="46.98092" lon="8.78681">
        <ele>769</ele>
        <time>2021-08-04T09:27:25.900Z</time>
      </trkpt>
      <trkpt lat="46.98092" lon="8.7868">
        <ele>769</ele>
        <time>2021-08-04T09:27:26.900Z</time>
      </trkpt>
      <trkpt lat="46.98093" lon="8.78679">
        <ele>769</ele>
        <time>2021-08-04T09:27:27.900Z</time>
      </trkpt>
      <trkpt lat="46.98093" lon="8.78678">
        <ele>769</ele>
        <time>2021-08-04T09:27:28.900Z</time>
      </trkpt>
      <trkpt lat="46.98094" lon="8.78677">
        <ele>769</ele>
        <time>2021-08-04T09:27:29.900Z</time>
      </trkpt>
      <trkpt lat="46.98094" lon="8.78676">
        <ele>769</ele>
        <time>2021-08-04T09:27:30.900Z</time>
      </trkpt>
      <trkpt lat="46.98094" lon="8.78674">
        <ele>768</ele>
        <time>2021-08-04T09:27:31.900Z</time>
      </trkpt>
      <trkpt lat="46.98095" lon="8.78672">
        <ele>768</ele>
        <time>2021-08-04T09:27:32.900Z</time>
      </trkpt>
      <trkpt lat="46.98095" lon="8.78671">
        <ele>768</ele>
        <time>2021-08-04T09:27:33.900Z</time>
      </trkpt>
      <trkpt lat="46.98094" lon="8.7867">
        <ele>767</ele>
        <time>2021-08-04T09:27:34.900Z</time>
      </trkpt>
      <trkpt lat="46.98094" lon="8.78669">
        <ele>767</ele>
        <time>2021-08-04T09:27:35.900Z</time>
      </trkpt>
      <trkpt lat="46.98094" lon="8.78669">
        <ele>766</ele>
        <time>2021-08-04T09:27:36.900Z</time>
      </trkpt>
      <trkpt lat="46.98094" lon="8.78668">
        <ele>766</ele>
        <time>2021-08-04T09:27:37.901Z</time>
      </trkpt>
      <trkpt lat="46.98094" lon="8.78667">
        <ele>766</ele>
        <time>2021-08-04T09:27:38.900Z</time>
      </trkpt>
      <trkpt lat="46.98094" lon="8.78667">
        <ele>766</ele>
        <time>2021-08-04T09:27:39.900Z</time>
      </trkpt>
      <trkpt lat="46.98094" lon="8.78666">
        <ele>766</ele>
        <time>2021-08-04T09:27:40.900Z</time>
      </trkpt>
      <trkpt lat="46.98094" lon="8.78666">
        <ele>766</ele>
        <time>2021-08-04T09:27:41.900Z</time>
      </trkpt>
      <trkpt lat="46.98094" lon="8.78665">
        <ele>765</ele>
        <time>2021-08-04T09:27:42.900Z</time>
      </trkpt>
      <trkpt lat="46.98094" lon="8.78664">
        <ele>765</ele>
        <time>2021-08-04T09:27:43.900Z</time>
      </trkpt>
      <trkpt lat="46.98093" lon="8.78663">
        <ele>764</ele>
        <time>2021-08-04T09:27:44.900Z</time>
      </trkpt>
      <trkpt lat="46.98093" lon="8.78661">
        <ele>764</ele>
        <time>2021-08-04T09:27:45.901Z</time>
      </trkpt>
      <trkpt lat="46.98093" lon="8.7866">
        <ele>763</ele>
        <time>2021-08-04T09:27:46.900Z</time>
      </trkpt>
      <trkpt lat="46.98093" lon="8.78659">
        <ele>763</ele>
        <time>2021-08-04T09:27:47.901Z</time>
      </trkpt>
      <trkpt lat="46.98092" lon="8.78658">
        <ele>763</ele>
        <time>2021-08-04T09:27:48.901Z</time>
      </trkpt>
      <trkpt lat="46.98092" lon="8.78658">
        <ele>763</ele>
        <time>2021-08-04T09:27:49.900Z</time>
      </trkpt>
      <trkpt lat="46.9809" lon="8.78658">
        <ele>761</ele>
        <time>2021-08-04T09:27:50.900Z</time>
      </trkpt>
      <trkpt lat="46.9809" lon="8.78657">
        <ele>761</ele>
        <time>2021-08-04T09:27:51.901Z</time>
      </trkpt>
      <trkpt lat="46.98089" lon="8.78656">
        <ele>761</ele>
        <time>2021-08-04T09:27:52.900Z</time>
      </trkpt>
      <trkpt lat="46.98089" lon="8.78655">
        <ele>761</ele>
        <time>2021-08-04T09:27:53.900Z</time>
      </trkpt>
      <trkpt lat="46.98088" lon="8.78654">
        <ele>760</ele>
        <time>2021-08-04T09:27:54.900Z</time>
      </trkpt>
      <trkpt lat="46.98088" lon="8.78654">
        <ele>760</ele>
        <time>2021-08-04T09:27:55.900Z</time>
      </trkpt>
      <trkpt lat="46.98087" lon="8.78653">
        <ele>760</ele>
        <time>2021-08-04T09:27:56.901Z</time>
      </trkpt>
      <trkpt lat="46.98086" lon="8.78653">
        <ele>760</ele>
        <time>2021-08-04T09:27:57.901Z</time>
      </trkpt>
      <trkpt lat="46.98086" lon="8.78653">
        <ele>760</ele>
        <time>2021-08-04T09:27:58.901Z</time>
      </trkpt>
      <trkpt lat="46.98085" lon="8.78653">
        <ele>760</ele>
        <time>2021-08-04T09:27:59.901Z</time>
      </trkpt>
      <trkpt lat="46.98084" lon="8.78653">
        <ele>760</ele>
        <time>2021-08-04T09:28:00.901Z</time>
      </trkpt>
      <trkpt lat="46.98083" lon="8.78652">
        <ele>761</ele>
        <time>2021-08-04T09:28:01.901Z</time>
      </trkpt>
      <trkpt lat="46.98082" lon="8.78652">
        <ele>761</ele>
        <time>2021-08-04T09:28:02.901Z</time>
      </trkpt>
      <trkpt lat="46.98081" lon="8.78651">
        <ele>761</ele>
        <time>2021-08-04T09:28:03.900Z</time>
      </trkpt>
      <trkpt lat="46.98081" lon="8.78651">
        <ele>761</ele>
        <time>2021-08-04T09:28:04.900Z</time>
      </trkpt>
      <trkpt lat="46.9808" lon="8.78651">
        <ele>761</ele>
        <time>2021-08-04T09:28:05.900Z</time>
      </trkpt>
      <trkpt lat="46.98079" lon="8.78651">
        <ele>761</ele>
        <time>2021-08-04T09:28:06.900Z</time>
      </trkpt>
      <trkpt lat="46.98078" lon="8.78651">
        <ele>762</ele>
        <time>2021-08-04T09:28:07.900Z</time>
      </trkpt>
      <trkpt lat="46.98078" lon="8.78652">
        <ele>762</ele>
        <time>2021-08-04T09:28:08.901Z</time>
      </trkpt>
      <trkpt lat="46.98077" lon="8.78652">
        <ele>762</ele>
        <time>2021-08-04T09:28:09.901Z</time>
      </trkpt>
      <trkpt lat="46.98077" lon="8.78652">
        <ele>762</ele>
        <time>2021-08-04T09:28:10.901Z</time>
      </trkpt>
      <trkpt lat="46.98076" lon="8.78652">
        <ele>761</ele>
        <time>2021-08-04T09:28:11.900Z</time>
      </trkpt>
      <trkpt lat="46.98075" lon="8.78653">
        <ele>761</ele>
        <time>2021-08-04T09:28:12.900Z</time>
      </trkpt>
      <trkpt lat="46.98074" lon="8.78653">
        <ele>761</ele>
        <time>2021-08-04T09:28:13.901Z</time>
      </trkpt>
      <trkpt lat="46.98073" lon="8.78653">
        <ele>760</ele>
        <time>2021-08-04T09:28:14.901Z</time>
      </trkpt>
      <trkpt lat="46.98073" lon="8.78653">
        <ele>760</ele>
        <time>2021-08-04T09:28:15.901Z</time>
      </trkpt>
      <trkpt lat="46.98072" lon="8.78653">
        <ele>759</ele>
        <time>2021-08-04T09:28:16.901Z</time>
      </trkpt>
      <trkpt lat="46.98071" lon="8.78653">
        <ele>759</ele>
        <time>2021-08-04T09:28:17.900Z</time>
      </trkpt>
      <trkpt lat="46.98071" lon="8.78652">
        <ele>759</ele>
        <time>2021-08-04T09:28:18.901Z</time>
      </trkpt>
      <trkpt lat="46.9807" lon="8.78652">
        <ele>758</ele>
        <time>2021-08-04T09:28:19.900Z</time>
      </trkpt>
      <trkpt lat="46.9807" lon="8.78653">
        <ele>758</ele>
        <time>2021-08-04T09:28:20.901Z</time>
      </trkpt>
      <trkpt lat="46.9807" lon="8.78652">
        <ele>758</ele>
        <time>2021-08-04T09:28:21.901Z</time>
      </trkpt>
      <trkpt lat="46.98071" lon="8.78652">
        <ele>758</ele>
        <time>2021-08-04T09:28:22.901Z</time>
      </trkpt>
      <trkpt lat="46.98071" lon="8.78651">
        <ele>758</ele>
        <time>2021-08-04T09:28:23.900Z</time>
      </trkpt>
      <trkpt lat="46.98072" lon="8.78651">
        <ele>758</ele>
        <time>2021-08-04T09:28:24.901Z</time>
      </trkpt>
      <trkpt lat="46.98074" lon="8.78648">
        <ele>756</ele>
        <time>2021-08-04T09:28:25.902Z</time>
      </trkpt>
      <trkpt lat="46.98075" lon="8.78647">
        <ele>756</ele>
        <time>2021-08-04T09:28:26.902Z</time>
      </trkpt>
      <trkpt lat="46.98076" lon="8.78646">
        <ele>755</ele>
        <time>2021-08-04T09:28:27.901Z</time>
      </trkpt>
      <trkpt lat="46.98077" lon="8.78645">
        <ele>754</ele>
        <time>2021-08-04T09:28:28.902Z</time>
      </trkpt>
      <trkpt lat="46.98077" lon="8.78644">
        <ele>754</ele>
        <time>2021-08-04T09:28:29.902Z</time>
      </trkpt>
      <trkpt lat="46.98077" lon="8.78643">
        <ele>753</ele>
        <time>2021-08-04T09:28:30.901Z</time>
      </trkpt>
      <trkpt lat="46.98077" lon="8.78644">
        <ele>753</ele>
        <time>2021-08-04T09:28:31.901Z</time>
      </trkpt>
      <trkpt lat="46.98076" lon="8.78646">
        <ele>753</ele>
        <time>2021-08-04T09:28:32.902Z</time>
      </trkpt>
      <trkpt lat="46.98075" lon="8.78647">
        <ele>753</ele>
        <time>2021-08-04T09:28:33.902Z</time>
      </trkpt>
      <trkpt lat="46.98075" lon="8.78648">
        <ele>753</ele>
        <time>2021-08-04T09:28:34.902Z</time>
      </trkpt>
      <trkpt lat="46.98075" lon="8.78647">
        <ele>753</ele>
        <time>2021-08-04T09:28:35.902Z</time>
      </trkpt>
      <trkpt lat="46.98075" lon="8.78648">
        <ele>753</ele>
        <time>2021-08-04T09:28:36.901Z</time>
      </trkpt>
      <trkpt lat="46.98075" lon="8.78648">
        <ele>753</ele>
        <time>2021-08-04T09:28:37.902Z</time>
      </trkpt>
      <trkpt lat="46.98075" lon="8.78648">
        <ele>754</ele>
        <time>2021-08-04T09:28:38.901Z</time>
      </trkpt>
      <trkpt lat="46.98074" lon="8.78647">
        <ele>755</ele>
        <time>2021-08-04T09:28:39.901Z</time>
      </trkpt>
      <trkpt lat="46.98074" lon="8.78647">
        <ele>755</ele>
        <time>2021-08-04T09:28:40.902Z</time>
      </trkpt>
      <trkpt lat="46.98074" lon="8.78648">
        <ele>755</ele>
        <time>2021-08-04T09:28:41.901Z</time>
      </trkpt>
      <trkpt lat="46.98073" lon="8.78649">
        <ele>756</ele>
        <time>2021-08-04T09:28:42.902Z</time>
      </trkpt>
      <trkpt lat="46.98073" lon="8.7865">
        <ele>756</ele>
        <time>2021-08-04T09:28:43.902Z</time>
      </trkpt>
      <trkpt lat="46.98072" lon="8.7865">
        <ele>755</ele>
        <time>2021-08-04T09:28:44.902Z</time>
      </trkpt>
      <trkpt lat="46.98071" lon="8.7865">
        <ele>755</ele>
        <time>2021-08-04T09:28:45.901Z</time>
      </trkpt>
      <trkpt lat="46.98071" lon="8.7865">
        <ele>755</ele>
        <time>2021-08-04T09:28:46.902Z</time>
      </trkpt>
      <trkpt lat="46.98069" lon="8.7865">
        <ele>755</ele>
        <time>2021-08-04T09:28:47.902Z</time>
      </trkpt>
      <trkpt lat="46.98068" lon="8.78649">
        <ele>755</ele>
        <time>2021-08-04T09:28:48.902Z</time>
      </trkpt>
      <trkpt lat="46.98068" lon="8.78649">
        <ele>755</ele>
        <time>2021-08-04T09:28:49.902Z</time>
      </trkpt>
      <trkpt lat="46.98067" lon="8.78649">
        <ele>755</ele>
        <time>2021-08-04T09:28:50.901Z</time>
      </trkpt>
      <trkpt lat="46.98066" lon="8.7865">
        <ele>755</ele>
        <time>2021-08-04T09:28:51.901Z</time>
      </trkpt>
      <trkpt lat="46.98066" lon="8.7865">
        <ele>755</ele>
        <time>2021-08-04T09:28:52.901Z</time>
      </trkpt>
      <trkpt lat="46.98065" lon="8.7865">
        <ele>755</ele>
        <time>2021-08-04T09:28:53.902Z</time>
      </trkpt>
      <trkpt lat="46.98062" lon="8.7865">
        <ele>754</ele>
        <time>2021-08-04T09:28:54.903Z</time>
      </trkpt>
      <trkpt lat="46.98062" lon="8.7865">
        <ele>754</ele>
        <time>2021-08-04T09:28:55.902Z</time>
      </trkpt>
      <trkpt lat="46.98061" lon="8.7865">
        <ele>754</ele>
        <time>2021-08-04T09:28:56.903Z</time>
      </trkpt>
      <trkpt lat="46.98061" lon="8.7865">
        <ele>754</ele>
        <time>2021-08-04T09:28:57.903Z</time>
      </trkpt>
      <trkpt lat="46.9806" lon="8.78649">
        <ele>754</ele>
        <time>2021-08-04T09:28:58.903Z</time>
      </trkpt>
      <trkpt lat="46.9806" lon="8.78649">
        <ele>754</ele>
        <time>2021-08-04T09:28:59.903Z</time>
      </trkpt>
      <trkpt lat="46.98059" lon="8.78649">
        <ele>754</ele>
        <time>2021-08-04T09:29:00.903Z</time>
      </trkpt>
      <trkpt lat="46.98059" lon="8.78649">
        <ele>753</ele>
        <time>2021-08-04T09:29:01.903Z</time>
      </trkpt>
      <trkpt lat="46.9806" lon="8.78649">
        <ele>753</ele>
        <time>2021-08-04T09:29:02.902Z</time>
      </trkpt>
      <trkpt lat="46.9806" lon="8.78649">
        <ele>752</ele>
        <time>2021-08-04T09:29:03.902Z</time>
      </trkpt>
      <trkpt lat="46.9806" lon="8.78648">
        <ele>751</ele>
        <time>2021-08-04T09:29:04.903Z</time>
      </trkpt>
      <trkpt lat="46.9806" lon="8.78648">
        <ele>751</ele>
        <time>2021-08-04T09:29:05.903Z</time>
      </trkpt>
      <trkpt lat="46.9806" lon="8.78648">
        <ele>751</ele>
        <time>2021-08-04T09:29:06.903Z</time>
      </trkpt>
      <trkpt lat="46.98059" lon="8.78647">
        <ele>750</ele>
        <time>2021-08-04T09:29:07.903Z</time>
      </trkpt>
      <trkpt lat="46.98059" lon="8.78647">
        <ele>750</ele>
        <time>2021-08-04T09:29:08.902Z</time>
      </trkpt>
      <trkpt lat="46.98058" lon="8.78646">
        <ele>750</ele>
        <time>2021-08-04T09:29:09.903Z</time>
      </trkpt>
      <trkpt lat="46.98057" lon="8.78645">
        <ele>750</ele>
        <time>2021-08-04T09:29:10.903Z</time>
      </trkpt>
      <trkpt lat="46.98055" lon="8.78644">
        <ele>749</ele>
        <time>2021-08-04T09:29:11.903Z</time>
      </trkpt>
      <trkpt lat="46.98054" lon="8.78644">
        <ele>749</ele>
        <time>2021-08-04T09:29:12.903Z</time>
      </trkpt>
      <trkpt lat="46.98053" lon="8.78644">
        <ele>749</ele>
        <time>2021-08-04T09:29:13.903Z</time>
      </trkpt>
      <trkpt lat="46.98052" lon="8.78643">
        <ele>749</ele>
        <time>2021-08-04T09:29:14.903Z</time>
      </trkpt>
      <trkpt lat="46.9805" lon="8.78643">
        <ele>749</ele>
        <time>2021-08-04T09:29:15.903Z</time>
      </trkpt>
      <trkpt lat="46.9805" lon="8.78643">
        <ele>748</ele>
        <time>2021-08-04T09:29:16.903Z</time>
      </trkpt>
      <trkpt lat="46.98049" lon="8.78644">
        <ele>747</ele>
        <time>2021-08-04T09:29:17.903Z</time>
      </trkpt>
      <trkpt lat="46.98049" lon="8.78644">
        <ele>746</ele>
        <time>2021-08-04T09:29:18.903Z</time>
      </trkpt>
      <trkpt lat="46.98048" lon="8.78644">
        <ele>746</ele>
        <time>2021-08-04T09:29:19.902Z</time>
      </trkpt>
      <trkpt lat="46.98048" lon="8.78644">
        <ele>745</ele>
        <time>2021-08-04T09:29:20.903Z</time>
      </trkpt>
      <trkpt lat="46.98047" lon="8.78644">
        <ele>745</ele>
        <time>2021-08-04T09:29:21.903Z</time>
      </trkpt>
      <trkpt lat="46.98046" lon="8.78644">
        <ele>745</ele>
        <time>2021-08-04T09:29:22.902Z</time>
      </trkpt>
      <trkpt lat="46.98046" lon="8.78644">
        <ele>745</ele>
        <time>2021-08-04T09:29:23.903Z</time>
      </trkpt>
      <trkpt lat="46.98045" lon="8.78643">
        <ele>745</ele>
        <time>2021-08-04T09:29:24.903Z</time>
      </trkpt>
      <trkpt lat="46.98044" lon="8.78643">
        <ele>745</ele>
        <time>2021-08-04T09:29:25.902Z</time>
      </trkpt>
      <trkpt lat="46.98044" lon="8.78643">
        <ele>745</ele>
        <time>2021-08-04T09:29:26.903Z</time>
      </trkpt>
      <trkpt lat="46.98043" lon="8.78643">
        <ele>746</ele>
        <time>2021-08-04T09:29:27.903Z</time>
      </trkpt>
      <trkpt lat="46.98042" lon="8.78643">
        <ele>746</ele>
        <time>2021-08-04T09:29:28.903Z</time>
      </trkpt>
      <trkpt lat="46.98041" lon="8.78643">
        <ele>746</ele>
        <time>2021-08-04T09:29:29.902Z</time>
      </trkpt>
      <trkpt lat="46.98041" lon="8.78644">
        <ele>747</ele>
        <time>2021-08-04T09:29:30.903Z</time>
      </trkpt>
      <trkpt lat="46.9804" lon="8.78644">
        <ele>747</ele>
        <time>2021-08-04T09:29:31.903Z</time>
      </trkpt>
      <trkpt lat="46.9804" lon="8.78644">
        <ele>747</ele>
        <time>2021-08-04T09:29:32.903Z</time>
      </trkpt>
      <trkpt lat="46.98039" lon="8.78644">
        <ele>746</ele>
        <time>2021-08-04T09:29:33.903Z</time>
      </trkpt>
      <trkpt lat="46.98038" lon="8.78644">
        <ele>747</ele>
        <time>2021-08-04T09:29:34.903Z</time>
      </trkpt>
      <trkpt lat="46.98037" lon="8.78643">
        <ele>747</ele>
        <time>2021-08-04T09:29:35.903Z</time>
      </trkpt>
      <trkpt lat="46.98036" lon="8.78643">
        <ele>747</ele>
        <time>2021-08-04T09:29:36.904Z</time>
      </trkpt>
      <trkpt lat="46.98035" lon="8.78643">
        <ele>747</ele>
        <time>2021-08-04T09:29:37.904Z</time>
      </trkpt>
      <trkpt lat="46.98034" lon="8.78643">
        <ele>747</ele>
        <time>2021-08-04T09:29:38.904Z</time>
      </trkpt>
      <trkpt lat="46.98033" lon="8.78643">
        <ele>747</ele>
        <time>2021-08-04T09:29:39.903Z</time>
      </trkpt>
      <trkpt lat="46.98033" lon="8.78643">
        <ele>746</ele>
        <time>2021-08-04T09:29:40.904Z</time>
      </trkpt>
      <trkpt lat="46.98032" lon="8.78644">
        <ele>746</ele>
        <time>2021-08-04T09:29:41.903Z</time>
      </trkpt>
      <trkpt lat="46.98031" lon="8.78644">
        <ele>745</ele>
        <time>2021-08-04T09:29:42.904Z</time>
      </trkpt>
      <trkpt lat="46.9803" lon="8.78645">
        <ele>745</ele>
        <time>2021-08-04T09:29:43.904Z</time>
      </trkpt>
      <trkpt lat="46.9803" lon="8.78645">
        <ele>745</ele>
        <time>2021-08-04T09:29:44.903Z</time>
      </trkpt>
      <trkpt lat="46.9803" lon="8.78646">
        <ele>744</ele>
        <time>2021-08-04T09:29:45.904Z</time>
      </trkpt>
      <trkpt lat="46.9803" lon="8.78645">
        <ele>744</ele>
        <time>2021-08-04T09:29:46.903Z</time>
      </trkpt>
      <trkpt lat="46.9803" lon="8.78645">
        <ele>744</ele>
        <time>2021-08-04T09:29:47.904Z</time>
      </trkpt>
      <trkpt lat="46.98029" lon="8.78646">
        <ele>744</ele>
        <time>2021-08-04T09:29:48.904Z</time>
      </trkpt>
      <trkpt lat="46.98029" lon="8.78646">
        <ele>743</ele>
        <time>2021-08-04T09:29:49.904Z</time>
      </trkpt>
      <trkpt lat="46.98028" lon="8.78647">
        <ele>743</ele>
        <time>2021-08-04T09:29:50.904Z</time>
      </trkpt>
      <trkpt lat="46.98028" lon="8.78648">
        <ele>742</ele>
        <time>2021-08-04T09:29:51.904Z</time>
      </trkpt>
      <trkpt lat="46.98027" lon="8.78649">
        <ele>742</ele>
        <time>2021-08-04T09:29:52.904Z</time>
      </trkpt>
      <trkpt lat="46.98026" lon="8.78649">
        <ele>741</ele>
        <time>2021-08-04T09:29:53.903Z</time>
      </trkpt>
      <trkpt lat="46.98026" lon="8.78649">
        <ele>741</ele>
        <time>2021-08-04T09:29:54.904Z</time>
      </trkpt>
      <trkpt lat="46.98025" lon="8.78649">
        <ele>741</ele>
        <time>2021-08-04T09:29:55.904Z</time>
      </trkpt>
      <trkpt lat="46.98025" lon="8.78649">
        <ele>741</ele>
        <time>2021-08-04T09:29:56.904Z</time>
      </trkpt>
      <trkpt lat="46.98024" lon="8.78648">
        <ele>741</ele>
        <time>2021-08-04T09:29:57.904Z</time>
      </trkpt>
      <trkpt lat="46.98023" lon="8.78648">
        <ele>741</ele>
        <time>2021-08-04T09:29:58.904Z</time>
      </trkpt>
      <trkpt lat="46.98022" lon="8.78647">
        <ele>741</ele>
        <time>2021-08-04T09:29:59.904Z</time>
      </trkpt>
      <trkpt lat="46.98021" lon="8.78647">
        <ele>741</ele>
        <time>2021-08-04T09:30:00.903Z</time>
      </trkpt>
      <trkpt lat="46.98021" lon="8.78647">
        <ele>741</ele>
        <time>2021-08-04T09:30:01.904Z</time>
      </trkpt>
      <trkpt lat="46.9802" lon="8.78647">
        <ele>740</ele>
        <time>2021-08-04T09:30:02.904Z</time>
      </trkpt>
      <trkpt lat="46.98019" lon="8.78646">
        <ele>740</ele>
        <time>2021-08-04T09:30:03.903Z</time>
      </trkpt>
      <trkpt lat="46.98018" lon="8.78646">
        <ele>739</ele>
        <time>2021-08-04T09:30:04.904Z</time>
      </trkpt>
      <trkpt lat="46.98017" lon="8.78646">
        <ele>739</ele>
        <time>2021-08-04T09:30:05.903Z</time>
      </trkpt>
      <trkpt lat="46.98017" lon="8.78646">
        <ele>739</ele>
        <time>2021-08-04T09:30:06.903Z</time>
      </trkpt>
      <trkpt lat="46.98016" lon="8.78646">
        <ele>739</ele>
        <time>2021-08-04T09:30:07.904Z</time>
      </trkpt>
      <trkpt lat="46.98016" lon="8.78646">
        <ele>739</ele>
        <time>2021-08-04T09:30:08.904Z</time>
      </trkpt>
      <trkpt lat="46.98016" lon="8.78646">
        <ele>739</ele>
        <time>2021-08-04T09:30:09.903Z</time>
      </trkpt>
      <trkpt lat="46.98015" lon="8.78645">
        <ele>740</ele>
        <time>2021-08-04T09:30:10.904Z</time>
      </trkpt>
      <trkpt lat="46.98015" lon="8.78644">
        <ele>740</ele>
        <time>2021-08-04T09:30:11.903Z</time>
      </trkpt>
      <trkpt lat="46.98014" lon="8.78643">
        <ele>740</ele>
        <time>2021-08-04T09:30:12.903Z</time>
      </trkpt>
      <trkpt lat="46.98014" lon="8.78643">
        <ele>740</ele>
        <time>2021-08-04T09:30:13.904Z</time>
      </trkpt>
      <trkpt lat="46.98013" lon="8.78642">
        <ele>741</ele>
        <time>2021-08-04T09:30:14.904Z</time>
      </trkpt>
      <trkpt lat="46.98013" lon="8.78642">
        <ele>740</ele>
        <time>2021-08-04T09:30:15.903Z</time>
      </trkpt>
      <trkpt lat="46.98011" lon="8.78642">
        <ele>740</ele>
        <time>2021-08-04T09:30:16.904Z</time>
      </trkpt>
      <trkpt lat="46.9801" lon="8.78641">
        <ele>740</ele>
        <time>2021-08-04T09:30:17.904Z</time>
      </trkpt>
      <trkpt lat="46.98009" lon="8.78641">
        <ele>740</ele>
        <time>2021-08-04T09:30:18.903Z</time>
      </trkpt>
      <trkpt lat="46.98008" lon="8.7864">
        <ele>740</ele>
        <time>2021-08-04T09:30:19.904Z</time>
      </trkpt>
      <trkpt lat="46.98007" lon="8.78639">
        <ele>740</ele>
        <time>2021-08-04T09:30:20.904Z</time>
      </trkpt>
      <trkpt lat="46.98006" lon="8.78638">
        <ele>740</ele>
        <time>2021-08-04T09:30:21.903Z</time>
      </trkpt>
      <trkpt lat="46.98005" lon="8.78637">
        <ele>740</ele>
        <time>2021-08-04T09:30:22.904Z</time>
      </trkpt>
      <trkpt lat="46.98005" lon="8.78638">
        <ele>740</ele>
        <time>2021-08-04T09:30:23.904Z</time>
      </trkpt>
      <trkpt lat="46.98004" lon="8.78638">
        <ele>740</ele>
        <time>2021-08-04T09:30:24.903Z</time>
      </trkpt>
      <trkpt lat="46.98003" lon="8.78638">
        <ele>740</ele>
        <time>2021-08-04T09:30:25.903Z</time>
      </trkpt>
      <trkpt lat="46.98003" lon="8.78638">
        <ele>740</ele>
        <time>2021-08-04T09:30:26.904Z</time>
      </trkpt>
      <trkpt lat="46.98002" lon="8.78639">
        <ele>740</ele>
        <time>2021-08-04T09:30:27.904Z</time>
      </trkpt>
      <trkpt lat="46.98001" lon="8.78639">
        <ele>740</ele>
        <time>2021-08-04T09:30:28.904Z</time>
      </trkpt>
      <trkpt lat="46.98" lon="8.78639">
        <ele>740</ele>
        <time>2021-08-04T09:30:29.903Z</time>
      </trkpt>
      <trkpt lat="46.98" lon="8.78639">
        <ele>739</ele>
        <time>2021-08-04T09:30:30.904Z</time>
      </trkpt>
      <trkpt lat="46.98" lon="8.7864">
        <ele>739</ele>
        <time>2021-08-04T09:30:31.904Z</time>
      </trkpt>
      <trkpt lat="46.98" lon="8.7864">
        <ele>739</ele>
        <time>2021-08-04T09:30:32.904Z</time>
      </trkpt>
      <trkpt lat="46.98001" lon="8.7864">
        <ele>739</ele>
        <time>2021-08-04T09:30:33.904Z</time>
      </trkpt>
      <trkpt lat="46.98" lon="8.7864">
        <ele>740</ele>
        <time>2021-08-04T09:30:34.904Z</time>
      </trkpt>
      <trkpt lat="46.97998" lon="8.78639">
        <ele>740</ele>
        <time>2021-08-04T09:30:35.904Z</time>
      </trkpt>
      <trkpt lat="46.97997" lon="8.78639">
        <ele>741</ele>
        <time>2021-08-04T09:30:36.904Z</time>
      </trkpt>
      <trkpt lat="46.97997" lon="8.78639">
        <ele>741</ele>
        <time>2021-08-04T09:30:37.905Z</time>
      </trkpt>
      <trkpt lat="46.97996" lon="8.78639">
        <ele>741</ele>
        <time>2021-08-04T09:30:38.904Z</time>
      </trkpt>
      <trkpt lat="46.97996" lon="8.78639">
        <ele>741</ele>
        <time>2021-08-04T09:30:39.905Z</time>
      </trkpt>
      <trkpt lat="46.97995" lon="8.7864">
        <ele>741</ele>
        <time>2021-08-04T09:30:40.905Z</time>
      </trkpt>
      <trkpt lat="46.97994" lon="8.7864">
        <ele>740</ele>
        <time>2021-08-04T09:30:41.905Z</time>
      </trkpt>
      <trkpt lat="46.97993" lon="8.7864">
        <ele>740</ele>
        <time>2021-08-04T09:30:42.905Z</time>
      </trkpt>
      <trkpt lat="46.97992" lon="8.7864">
        <ele>740</ele>
        <time>2021-08-04T09:30:43.905Z</time>
      </trkpt>
      <trkpt lat="46.97992" lon="8.78639">
        <ele>740</ele>
        <time>2021-08-04T09:30:44.904Z</time>
      </trkpt>
      <trkpt lat="46.97992" lon="8.78639">
        <ele>739</ele>
        <time>2021-08-04T09:30:45.904Z</time>
      </trkpt>
      <trkpt lat="46.97991" lon="8.78639">
        <ele>739</ele>
        <time>2021-08-04T09:30:46.905Z</time>
      </trkpt>
      <trkpt lat="46.97991" lon="8.78639">
        <ele>739</ele>
        <time>2021-08-04T09:30:47.905Z</time>
      </trkpt>
      <trkpt lat="46.97991" lon="8.78639">
        <ele>738</ele>
        <time>2021-08-04T09:30:48.905Z</time>
      </trkpt>
      <trkpt lat="46.9799" lon="8.78638">
        <ele>738</ele>
        <time>2021-08-04T09:30:49.905Z</time>
      </trkpt>
      <trkpt lat="46.9799" lon="8.78638">
        <ele>737</ele>
        <time>2021-08-04T09:30:50.905Z</time>
      </trkpt>
      <trkpt lat="46.97989" lon="8.78638">
        <ele>737</ele>
        <time>2021-08-04T09:30:51.904Z</time>
      </trkpt>
      <trkpt lat="46.97988" lon="8.78638">
        <ele>737</ele>
        <time>2021-08-04T09:30:52.905Z</time>
      </trkpt>
      <trkpt lat="46.97987" lon="8.78637">
        <ele>736</ele>
        <time>2021-08-04T09:30:53.905Z</time>
      </trkpt>
      <trkpt lat="46.97986" lon="8.78636">
        <ele>736</ele>
        <time>2021-08-04T09:30:54.905Z</time>
      </trkpt>
      <trkpt lat="46.97986" lon="8.78635">
        <ele>736</ele>
        <time>2021-08-04T09:30:55.905Z</time>
      </trkpt>
      <trkpt lat="46.97986" lon="8.78635">
        <ele>736</ele>
        <time>2021-08-04T09:30:56.905Z</time>
      </trkpt>
      <trkpt lat="46.97985" lon="8.78634">
        <ele>735</ele>
        <time>2021-08-04T09:30:57.905Z</time>
      </trkpt>
      <trkpt lat="46.97985" lon="8.78634">
        <ele>735</ele>
        <time>2021-08-04T09:30:58.905Z</time>
      </trkpt>
      <trkpt lat="46.97985" lon="8.78633">
        <ele>734</ele>
        <time>2021-08-04T09:30:59.905Z</time>
      </trkpt>
      <trkpt lat="46.97984" lon="8.78633">
        <ele>734</ele>
        <time>2021-08-04T09:31:00.905Z</time>
      </trkpt>
      <trkpt lat="46.97983" lon="8.78633">
        <ele>734</ele>
        <time>2021-08-04T09:31:01.904Z</time>
      </trkpt>
      <trkpt lat="46.97982" lon="8.78633">
        <ele>734</ele>
        <time>2021-08-04T09:31:02.905Z</time>
      </trkpt>
      <trkpt lat="46.97982" lon="8.78632">
        <ele>734</ele>
        <time>2021-08-04T09:31:03.905Z</time>
      </trkpt>
      <trkpt lat="46.97981" lon="8.78632">
        <ele>734</ele>
        <time>2021-08-04T09:31:04.905Z</time>
      </trkpt>
      <trkpt lat="46.9798" lon="8.78631">
        <ele>734</ele>
        <time>2021-08-04T09:31:05.905Z</time>
      </trkpt>
      <trkpt lat="46.9798" lon="8.7863">
        <ele>733</ele>
        <time>2021-08-04T09:31:06.904Z</time>
      </trkpt>
      <trkpt lat="46.97979" lon="8.7863">
        <ele>733</ele>
        <time>2021-08-04T09:31:07.905Z</time>
      </trkpt>
      <trkpt lat="46.97978" lon="8.78629">
        <ele>733</ele>
        <time>2021-08-04T09:31:08.905Z</time>
      </trkpt>
      <trkpt lat="46.97977" lon="8.78628">
        <ele>733</ele>
        <time>2021-08-04T09:31:09.905Z</time>
      </trkpt>
      <trkpt lat="46.97977" lon="8.78627">
        <ele>733</ele>
        <time>2021-08-04T09:31:10.905Z</time>
      </trkpt>
      <trkpt lat="46.97976" lon="8.78626">
        <ele>734</ele>
        <time>2021-08-04T09:31:11.905Z</time>
      </trkpt>
      <trkpt lat="46.97975" lon="8.78626">
        <ele>734</ele>
        <time>2021-08-04T09:31:12.905Z</time>
      </trkpt>
      <trkpt lat="46.97975" lon="8.78626">
        <ele>734</ele>
        <time>2021-08-04T09:31:13.905Z</time>
      </trkpt>
      <trkpt lat="46.97974" lon="8.78626">
        <ele>735</ele>
        <time>2021-08-04T09:31:14.905Z</time>
      </trkpt>
      <trkpt lat="46.97974" lon="8.78627">
        <ele>735</ele>
        <time>2021-08-04T09:31:15.905Z</time>
      </trkpt>
      <trkpt lat="46.97973" lon="8.78627">
        <ele>735</ele>
        <time>2021-08-04T09:31:16.905Z</time>
      </trkpt>
      <trkpt lat="46.97973" lon="8.78627">
        <ele>735</ele>
        <time>2021-08-04T09:31:17.905Z</time>
      </trkpt>
      <trkpt lat="46.97972" lon="8.78627">
        <ele>735</ele>
        <time>2021-08-04T09:31:18.904Z</time>
      </trkpt>
      <trkpt lat="46.97972" lon="8.78628">
        <ele>735</ele>
        <time>2021-08-04T09:31:19.905Z</time>
      </trkpt>
      <trkpt lat="46.97971" lon="8.78628">
        <ele>735</ele>
        <time>2021-08-04T09:31:20.905Z</time>
      </trkpt>
      <trkpt lat="46.97971" lon="8.78628">
        <ele>735</ele>
        <time>2021-08-04T09:31:21.905Z</time>
      </trkpt>
      <trkpt lat="46.9797" lon="8.78629">
        <ele>735</ele>
        <time>2021-08-04T09:31:22.904Z</time>
      </trkpt>
      <trkpt lat="46.9797" lon="8.78628">
        <ele>736</ele>
        <time>2021-08-04T09:31:23.904Z</time>
      </trkpt>
      <trkpt lat="46.97968" lon="8.78628">
        <ele>736</ele>
        <time>2021-08-04T09:31:24.905Z</time>
      </trkpt>
      <trkpt lat="46.97968" lon="8.78627">
        <ele>736</ele>
        <time>2021-08-04T09:31:25.905Z</time>
      </trkpt>
      <trkpt lat="46.97967" lon="8.78627">
        <ele>737</ele>
        <time>2021-08-04T09:31:26.905Z</time>
      </trkpt>
      <trkpt lat="46.97965" lon="8.78625">
        <ele>737</ele>
        <time>2021-08-04T09:31:27.905Z</time>
      </trkpt>
      <trkpt lat="46.97963" lon="8.78625">
        <ele>737</ele>
        <time>2021-08-04T09:31:28.904Z</time>
      </trkpt>
      <trkpt lat="46.97963" lon="8.78624">
        <ele>738</ele>
        <time>2021-08-04T09:31:29.904Z</time>
      </trkpt>
      <trkpt lat="46.97962" lon="8.78624">
        <ele>738</ele>
        <time>2021-08-04T09:31:30.905Z</time>
      </trkpt>
      <trkpt lat="46.97961" lon="8.78624">
        <ele>738</ele>
        <time>2021-08-04T09:31:31.904Z</time>
      </trkpt>
      <trkpt lat="46.9796" lon="8.78623">
        <ele>738</ele>
        <time>2021-08-04T09:31:32.904Z</time>
      </trkpt>
      <trkpt lat="46.97959" lon="8.78623">
        <ele>738</ele>
        <time>2021-08-04T09:31:33.904Z</time>
      </trkpt>
      <trkpt lat="46.97958" lon="8.78623">
        <ele>738</ele>
        <time>2021-08-04T09:31:34.904Z</time>
      </trkpt>
      <trkpt lat="46.97957" lon="8.78623">
        <ele>739</ele>
        <time>2021-08-04T09:31:35.905Z</time>
      </trkpt>
      <trkpt lat="46.97957" lon="8.78624">
        <ele>738</ele>
        <time>2021-08-04T09:31:36.904Z</time>
      </trkpt>
      <trkpt lat="46.97957" lon="8.78624">
        <ele>738</ele>
        <time>2021-08-04T09:31:37.904Z</time>
      </trkpt>
      <trkpt lat="46.97956" lon="8.78625">
        <ele>738</ele>
        <time>2021-08-04T09:31:38.904Z</time>
      </trkpt>
      <trkpt lat="46.97956" lon="8.78625">
        <ele>738</ele>
        <time>2021-08-04T09:31:39.904Z</time>
      </trkpt>
      <trkpt lat="46.97956" lon="8.78626">
        <ele>737</ele>
        <time>2021-08-04T09:31:40.905Z</time>
      </trkpt>
      <trkpt lat="46.97955" lon="8.78627">
        <ele>736</ele>
        <time>2021-08-04T09:31:41.905Z</time>
      </trkpt>
      <trkpt lat="46.97955" lon="8.78627">
        <ele>735</ele>
        <time>2021-08-04T09:31:42.905Z</time>
      </trkpt>
      <trkpt lat="46.97955" lon="8.78626">
        <ele>733</ele>
        <time>2021-08-04T09:31:43.905Z</time>
      </trkpt>
      <trkpt lat="46.97955" lon="8.78625">
        <ele>733</ele>
        <time>2021-08-04T09:31:44.906Z</time>
      </trkpt>
      <trkpt lat="46.97955" lon="8.78624">
        <ele>732</ele>
        <time>2021-08-04T09:31:45.905Z</time>
      </trkpt>
      <trkpt lat="46.97954" lon="8.78624">
        <ele>732</ele>
        <time>2021-08-04T09:31:46.906Z</time>
      </trkpt>
      <trkpt lat="46.97953" lon="8.78623">
        <ele>732</ele>
        <time>2021-08-04T09:31:47.906Z</time>
      </trkpt>
      <trkpt lat="46.97953" lon="8.78622">
        <ele>732</ele>
        <time>2021-08-04T09:31:48.906Z</time>
      </trkpt>
      <trkpt lat="46.97953" lon="8.78621">
        <ele>732</ele>
        <time>2021-08-04T09:31:49.905Z</time>
      </trkpt>
      <trkpt lat="46.97953" lon="8.78621">
        <ele>732</ele>
        <time>2021-08-04T09:31:50.906Z</time>
      </trkpt>
      <trkpt lat="46.97952" lon="8.7862">
        <ele>732</ele>
        <time>2021-08-04T09:31:51.906Z</time>
      </trkpt>
      <trkpt lat="46.97952" lon="8.7862">
        <ele>732</ele>
        <time>2021-08-04T09:31:52.906Z</time>
      </trkpt>
      <trkpt lat="46.97952" lon="8.78619">
        <ele>731</ele>
        <time>2021-08-04T09:31:53.906Z</time>
      </trkpt>
      <trkpt lat="46.97952" lon="8.78619">
        <ele>731</ele>
        <time>2021-08-04T09:31:54.906Z</time>
      </trkpt>
      <trkpt lat="46.97952" lon="8.78618">
        <ele>730</ele>
        <time>2021-08-04T09:31:55.906Z</time>
      </trkpt>
      <trkpt lat="46.97951" lon="8.78618">
        <ele>729</ele>
        <time>2021-08-04T09:31:56.906Z</time>
      </trkpt>
      <trkpt lat="46.97951" lon="8.78618">
        <ele>729</ele>
        <time>2021-08-04T09:31:57.906Z</time>
      </trkpt>
      <trkpt lat="46.9795" lon="8.78618">
        <ele>728</ele>
        <time>2021-08-04T09:31:58.906Z</time>
      </trkpt>
      <trkpt lat="46.97949" lon="8.78618">
        <ele>728</ele>
        <time>2021-08-04T09:31:59.905Z</time>
      </trkpt>
      <trkpt lat="46.97948" lon="8.78617">
        <ele>728</ele>
        <time>2021-08-04T09:32:00.906Z</time>
      </trkpt>
      <trkpt lat="46.97948" lon="8.78617">
        <ele>728</ele>
        <time>2021-08-04T09:32:01.906Z</time>
      </trkpt>
      <trkpt lat="46.97947" lon="8.78618">
        <ele>728</ele>
        <time>2021-08-04T09:32:02.906Z</time>
      </trkpt>
      <trkpt lat="46.97945" lon="8.78617">
        <ele>728</ele>
        <time>2021-08-04T09:32:03.906Z</time>
      </trkpt>
      <trkpt lat="46.97943" lon="8.78616">
        <ele>728</ele>
        <time>2021-08-04T09:32:04.906Z</time>
      </trkpt>
      <trkpt lat="46.97942" lon="8.78615">
        <ele>729</ele>
        <time>2021-08-04T09:32:05.906Z</time>
      </trkpt>
      <trkpt lat="46.97941" lon="8.78614">
        <ele>729</ele>
        <time>2021-08-04T09:32:06.906Z</time>
      </trkpt>
      <trkpt lat="46.97939" lon="8.78613">
        <ele>729</ele>
        <time>2021-08-04T09:32:07.906Z</time>
      </trkpt>
      <trkpt lat="46.97939" lon="8.78613">
        <ele>729</ele>
        <time>2021-08-04T09:32:08.905Z</time>
      </trkpt>
      <trkpt lat="46.97939" lon="8.78613">
        <ele>729</ele>
        <time>2021-08-04T09:32:09.905Z</time>
      </trkpt>
      <trkpt lat="46.97938" lon="8.78614">
        <ele>729</ele>
        <time>2021-08-04T09:32:10.905Z</time>
      </trkpt>
      <trkpt lat="46.97939" lon="8.78614">
        <ele>729</ele>
        <time>2021-08-04T09:32:11.906Z</time>
      </trkpt>
      <trkpt lat="46.97942" lon="8.78616">
        <ele>726</ele>
        <time>2021-08-04T09:32:12.905Z</time>
      </trkpt>
      <trkpt lat="46.97942" lon="8.78616">
        <ele>725</ele>
        <time>2021-08-04T09:32:13.906Z</time>
      </trkpt>
      <trkpt lat="46.97943" lon="8.78616">
        <ele>725</ele>
        <time>2021-08-04T09:32:14.905Z</time>
      </trkpt>
      <trkpt lat="46.97943" lon="8.78616">
        <ele>724</ele>
        <time>2021-08-04T09:32:15.906Z</time>
      </trkpt>
      <trkpt lat="46.97943" lon="8.78616">
        <ele>723</ele>
        <time>2021-08-04T09:32:16.905Z</time>
      </trkpt>
      <trkpt lat="46.97944" lon="8.78616">
        <ele>722</ele>
        <time>2021-08-04T09:32:17.905Z</time>
      </trkpt>
      <trkpt lat="46.97945" lon="8.78616">
        <ele>721</ele>
        <time>2021-08-04T09:32:18.906Z</time>
      </trkpt>
      <trkpt lat="46.97945" lon="8.78615">
        <ele>720</ele>
        <time>2021-08-04T09:32:19.906Z</time>
      </trkpt>
      <trkpt lat="46.97946" lon="8.78614">
        <ele>719</ele>
        <time>2021-08-04T09:32:20.906Z</time>
      </trkpt>
      <trkpt lat="46.97946" lon="8.78613">
        <ele>718</ele>
        <time>2021-08-04T09:32:21.906Z</time>
      </trkpt>
      <trkpt lat="46.97947" lon="8.78612">
        <ele>717</ele>
        <time>2021-08-04T09:32:22.906Z</time>
      </trkpt>
      <trkpt lat="46.97947" lon="8.78611">
        <ele>717</ele>
        <time>2021-08-04T09:32:23.906Z</time>
      </trkpt>
      <trkpt lat="46.97947" lon="8.78609">
        <ele>716</ele>
        <time>2021-08-04T09:32:24.906Z</time>
      </trkpt>
      <trkpt lat="46.97947" lon="8.78608">
        <ele>716</ele>
        <time>2021-08-04T09:32:25.905Z</time>
      </trkpt>
      <trkpt lat="46.97948" lon="8.78607">
        <ele>715</ele>
        <time>2021-08-04T09:32:26.905Z</time>
      </trkpt>
      <trkpt lat="46.97949" lon="8.78606">
        <ele>715</ele>
        <time>2021-08-04T09:32:27.906Z</time>
      </trkpt>
      <trkpt lat="46.97951" lon="8.78606">
        <ele>714</ele>
        <time>2021-08-04T09:32:28.906Z</time>
      </trkpt>
      <trkpt lat="46.97951" lon="8.78605">
        <ele>714</ele>
        <time>2021-08-04T09:32:29.906Z</time>
      </trkpt>
      <trkpt lat="46.97952" lon="8.78604">
        <ele>713</ele>
        <time>2021-08-04T09:32:30.905Z</time>
      </trkpt>
      <trkpt lat="46.97952" lon="8.78603">
        <ele>713</ele>
        <time>2021-08-04T09:32:31.906Z</time>
      </trkpt>
      <trkpt lat="46.97952" lon="8.78602">
        <ele>714</ele>
        <time>2021-08-04T09:32:32.906Z</time>
      </trkpt>
      <trkpt lat="46.97953" lon="8.78601">
        <ele>714</ele>
        <time>2021-08-04T09:32:33.906Z</time>
      </trkpt>
      <trkpt lat="46.97953" lon="8.786">
        <ele>714</ele>
        <time>2021-08-04T09:32:34.906Z</time>
      </trkpt>
      <trkpt lat="46.97953" lon="8.78599">
        <ele>714</ele>
        <time>2021-08-04T09:32:35.905Z</time>
      </trkpt>
      <trkpt lat="46.97953" lon="8.78598">
        <ele>714</ele>
        <time>2021-08-04T09:32:36.906Z</time>
      </trkpt>
      <trkpt lat="46.97953" lon="8.78596">
        <ele>714</ele>
        <time>2021-08-04T09:32:37.905Z</time>
      </trkpt>
      <trkpt lat="46.97952" lon="8.78596">
        <ele>713</ele>
        <time>2021-08-04T09:32:38.905Z</time>
      </trkpt>
      <trkpt lat="46.97952" lon="8.78595">
        <ele>713</ele>
        <time>2021-08-04T09:32:39.905Z</time>
      </trkpt>
      <trkpt lat="46.9795" lon="8.78593">
        <ele>712</ele>
        <time>2021-08-04T09:32:40.906Z</time>
      </trkpt>
      <trkpt lat="46.97949" lon="8.78593">
        <ele>712</ele>
        <time>2021-08-04T09:32:41.905Z</time>
      </trkpt>
      <trkpt lat="46.97948" lon="8.78593">
        <ele>711</ele>
        <time>2021-08-04T09:32:42.906Z</time>
      </trkpt>
      <trkpt lat="46.97948" lon="8.78593">
        <ele>711</ele>
        <time>2021-08-04T09:32:43.905Z</time>
      </trkpt>
      <trkpt lat="46.97946" lon="8.78593">
        <ele>712</ele>
        <time>2021-08-04T09:32:44.905Z</time>
      </trkpt>
      <trkpt lat="46.97945" lon="8.78594">
        <ele>712</ele>
        <time>2021-08-04T09:32:45.905Z</time>
      </trkpt>
      <trkpt lat="46.97945" lon="8.78593">
        <ele>712</ele>
        <time>2021-08-04T09:32:46.905Z</time>
      </trkpt>
      <trkpt lat="46.97944" lon="8.78592">
        <ele>712</ele>
        <time>2021-08-04T09:32:47.905Z</time>
      </trkpt>
      <trkpt lat="46.97943" lon="8.78591">
        <ele>712</ele>
        <time>2021-08-04T09:32:48.906Z</time>
      </trkpt>
      <trkpt lat="46.97942" lon="8.7859">
        <ele>711</ele>
        <time>2021-08-04T09:32:49.906Z</time>
      </trkpt>
      <trkpt lat="46.97941" lon="8.7859">
        <ele>711</ele>
        <time>2021-08-04T09:32:50.906Z</time>
      </trkpt>
      <trkpt lat="46.97941" lon="8.7859">
        <ele>710</ele>
        <time>2021-08-04T09:32:51.905Z</time>
      </trkpt>
      <trkpt lat="46.9794" lon="8.7859">
        <ele>710</ele>
        <time>2021-08-04T09:32:52.906Z</time>
      </trkpt>
      <trkpt lat="46.9794" lon="8.78589">
        <ele>709</ele>
        <time>2021-08-04T09:32:53.906Z</time>
      </trkpt>
      <trkpt lat="46.97939" lon="8.78589">
        <ele>709</ele>
        <time>2021-08-04T09:32:54.906Z</time>
      </trkpt>
      <trkpt lat="46.97938" lon="8.78589">
        <ele>708</ele>
        <time>2021-08-04T09:32:55.905Z</time>
      </trkpt>
      <trkpt lat="46.97938" lon="8.78589">
        <ele>707</ele>
        <time>2021-08-04T09:33:11.013Z</time>
      </trkpt>
      <trkpt lat="46.97937" lon="8.78589">
        <ele>707</ele>
        <time>2021-08-04T09:33:12.013Z</time>
      </trkpt>
      <trkpt lat="46.97936" lon="8.78588">
        <ele>706</ele>
        <time>2021-08-04T09:33:13.013Z</time>
      </trkpt>
      <trkpt lat="46.97935" lon="8.78588">
        <ele>705</ele>
        <time>2021-08-04T09:33:14.013Z</time>
      </trkpt>
      <trkpt lat="46.97934" lon="8.78588">
        <ele>705</ele>
        <time>2021-08-04T09:33:15.012Z</time>
      </trkpt>
      <trkpt lat="46.97933" lon="8.78588">
        <ele>705</ele>
        <time>2021-08-04T09:33:16.012Z</time>
      </trkpt>
      <trkpt lat="46.97932" lon="8.78588">
        <ele>704</ele>
        <time>2021-08-04T09:33:17.013Z</time>
      </trkpt>
      <trkpt lat="46.97931" lon="8.78589">
        <ele>704</ele>
        <time>2021-08-04T09:33:18.013Z</time>
      </trkpt>
      <trkpt lat="46.9793" lon="8.78588">
        <ele>704</ele>
        <time>2021-08-04T09:33:19.012Z</time>
      </trkpt>
      <trkpt lat="46.97929" lon="8.78588">
        <ele>704</ele>
        <time>2021-08-04T09:33:20.013Z</time>
      </trkpt>
      <trkpt lat="46.97928" lon="8.78588">
        <ele>704</ele>
        <time>2021-08-04T09:33:21.013Z</time>
      </trkpt>
      <trkpt lat="46.97926" lon="8.78588">
        <ele>704</ele>
        <time>2021-08-04T09:33:22.012Z</time>
      </trkpt>
      <trkpt lat="46.97925" lon="8.78588">
        <ele>705</ele>
        <time>2021-08-04T09:33:23.013Z</time>
      </trkpt>
      <trkpt lat="46.97924" lon="8.78588">
        <ele>705</ele>
        <time>2021-08-04T09:33:24.013Z</time>
      </trkpt>
      <trkpt lat="46.97924" lon="8.78588">
        <ele>705</ele>
        <time>2021-08-04T09:33:25.012Z</time>
      </trkpt>
      <trkpt lat="46.97923" lon="8.78588">
        <ele>705</ele>
        <time>2021-08-04T09:33:29.176Z</time>
      </trkpt>
      <trkpt lat="46.97923" lon="8.78588">
        <ele>705</ele>
        <time>2021-08-04T09:33:30.176Z</time>
      </trkpt>
      <trkpt lat="46.97922" lon="8.78588">
        <ele>705</ele>
        <time>2021-08-04T09:33:31.176Z</time>
      </trkpt>
      <trkpt lat="46.97921" lon="8.78588">
        <ele>705</ele>
        <time>2021-08-04T09:33:32.175Z</time>
      </trkpt>
      <trkpt lat="46.9792" lon="8.78588">
        <ele>704</ele>
        <time>2021-08-04T09:33:33.176Z</time>
      </trkpt>
      <trkpt lat="46.97919" lon="8.78588">
        <ele>704</ele>
        <time>2021-08-04T09:33:34.176Z</time>
      </trkpt>
      <trkpt lat="46.97919" lon="8.78588">
        <ele>704</ele>
        <time>2021-08-04T09:33:40.300Z</time>
      </trkpt>
      <trkpt lat="46.97918" lon="8.78587">
        <ele>703</ele>
        <time>2021-08-04T09:33:41.300Z</time>
      </trkpt>
      <trkpt lat="46.97917" lon="8.78587">
        <ele>703</ele>
        <time>2021-08-04T09:33:42.300Z</time>
      </trkpt>
      <trkpt lat="46.97916" lon="8.78586">
        <ele>703</ele>
        <time>2021-08-04T09:33:43.299Z</time>
      </trkpt>
      <trkpt lat="46.97915" lon="8.78585">
        <ele>703</ele>
        <time>2021-08-04T09:33:44.299Z</time>
      </trkpt>
      <trkpt lat="46.97914" lon="8.78584">
        <ele>703</ele>
        <time>2021-08-04T09:33:45.299Z</time>
      </trkpt>
      <trkpt lat="46.97912" lon="8.78583">
        <ele>703</ele>
        <time>2021-08-04T09:33:46.299Z</time>
      </trkpt>
      <trkpt lat="46.97911" lon="8.78581">
        <ele>703</ele>
        <time>2021-08-04T09:33:47.300Z</time>
      </trkpt>
      <trkpt lat="46.9791" lon="8.7858">
        <ele>703</ele>
        <time>2021-08-04T09:33:48.299Z</time>
      </trkpt>
      <trkpt lat="46.97909" lon="8.78579">
        <ele>703</ele>
        <time>2021-08-04T09:33:49.299Z</time>
      </trkpt>
      <trkpt lat="46.97908" lon="8.78578">
        <ele>703</ele>
        <time>2021-08-04T09:33:50.299Z</time>
      </trkpt>
      <trkpt lat="46.97907" lon="8.78577">
        <ele>702</ele>
        <time>2021-08-04T09:33:51.300Z</time>
      </trkpt>
      <trkpt lat="46.97906" lon="8.78575">
        <ele>702</ele>
        <time>2021-08-04T09:33:52.300Z</time>
      </trkpt>
      <trkpt lat="46.97906" lon="8.78573">
        <ele>702</ele>
        <time>2021-08-04T09:33:53.299Z</time>
      </trkpt>
      <trkpt lat="46.97906" lon="8.78572">
        <ele>702</ele>
        <time>2021-08-04T09:33:54.299Z</time>
      </trkpt>
      <trkpt lat="46.97905" lon="8.7857">
        <ele>701</ele>
        <time>2021-08-04T09:33:55.300Z</time>
      </trkpt>
      <trkpt lat="46.97904" lon="8.78569">
        <ele>701</ele>
        <time>2021-08-04T09:33:56.299Z</time>
      </trkpt>
      <trkpt lat="46.97902" lon="8.78568">
        <ele>701</ele>
        <time>2021-08-04T09:33:57.299Z</time>
      </trkpt>
      <trkpt lat="46.979" lon="8.78568">
        <ele>701</ele>
        <time>2021-08-04T09:33:58.300Z</time>
      </trkpt>
      <trkpt lat="46.97899" lon="8.78568">
        <ele>701</ele>
        <time>2021-08-04T09:33:59.299Z</time>
      </trkpt>
      <trkpt lat="46.97897" lon="8.78568">
        <ele>701</ele>
        <time>2021-08-04T09:34:00.300Z</time>
      </trkpt>
      <trkpt lat="46.97895" lon="8.78567">
        <ele>701</ele>
        <time>2021-08-04T09:34:01.300Z</time>
      </trkpt>
      <trkpt lat="46.97894" lon="8.78566">
        <ele>701</ele>
        <time>2021-08-04T09:34:02.299Z</time>
      </trkpt>
      <trkpt lat="46.97892" lon="8.78565">
        <ele>702</ele>
        <time>2021-08-04T09:34:03.299Z</time>
      </trkpt>
      <trkpt lat="46.97891" lon="8.78565">
        <ele>702</ele>
        <time>2021-08-04T09:34:04.299Z</time>
      </trkpt>
      <trkpt lat="46.97889" lon="8.78564">
        <ele>701</ele>
        <time>2021-08-04T09:34:05.300Z</time>
      </trkpt>
      <trkpt lat="46.97889" lon="8.78564">
        <ele>701</ele>
        <time>2021-08-04T09:34:06.299Z</time>
      </trkpt>
      <trkpt lat="46.97888" lon="8.78565">
        <ele>701</ele>
        <time>2021-08-04T09:34:07.299Z</time>
      </trkpt>
      <trkpt lat="46.97887" lon="8.78564">
        <ele>701</ele>
        <time>2021-08-04T09:34:08.299Z</time>
      </trkpt>
      <trkpt lat="46.97886" lon="8.78564">
        <ele>701</ele>
        <time>2021-08-04T09:34:09.299Z</time>
      </trkpt>
      <trkpt lat="46.97885" lon="8.78565">
        <ele>701</ele>
        <time>2021-08-04T09:34:10.299Z</time>
      </trkpt>
      <trkpt lat="46.97884" lon="8.78564">
        <ele>700</ele>
        <time>2021-08-04T09:34:11.299Z</time>
      </trkpt>
      <trkpt lat="46.97883" lon="8.78565">
        <ele>700</ele>
        <time>2021-08-04T09:34:12.299Z</time>
      </trkpt>
      <trkpt lat="46.97883" lon="8.78565">
        <ele>700</ele>
        <time>2021-08-04T09:34:13.299Z</time>
      </trkpt>
      <trkpt lat="46.97882" lon="8.78565">
        <ele>700</ele>
        <time>2021-08-04T09:34:14.299Z</time>
      </trkpt>
      <trkpt lat="46.97882" lon="8.78565">
        <ele>699</ele>
        <time>2021-08-04T09:34:15.300Z</time>
      </trkpt>
      <trkpt lat="46.97881" lon="8.78566">
        <ele>699</ele>
        <time>2021-08-04T09:34:16.299Z</time>
      </trkpt>
      <trkpt lat="46.9788" lon="8.78566">
        <ele>699</ele>
        <time>2021-08-04T09:34:17.299Z</time>
      </trkpt>
      <trkpt lat="46.97879" lon="8.78566">
        <ele>699</ele>
        <time>2021-08-04T09:34:25.468Z</time>
      </trkpt>
      <trkpt lat="46.97879" lon="8.78567">
        <ele>698</ele>
        <time>2021-08-04T09:34:26.468Z</time>
      </trkpt>
      <trkpt lat="46.97878" lon="8.78567">
        <ele>697</ele>
        <time>2021-08-04T09:34:27.468Z</time>
      </trkpt>
      <trkpt lat="46.97877" lon="8.78567">
        <ele>696</ele>
        <time>2021-08-04T09:34:28.468Z</time>
      </trkpt>
      <trkpt lat="46.97877" lon="8.78568">
        <ele>695</ele>
        <time>2021-08-04T09:34:29.468Z</time>
      </trkpt>
      <trkpt lat="46.97876" lon="8.78568">
        <ele>694</ele>
        <time>2021-08-04T09:34:30.468Z</time>
      </trkpt>
      <trkpt lat="46.97875" lon="8.78569">
        <ele>693</ele>
        <time>2021-08-04T09:34:31.468Z</time>
      </trkpt>
      <trkpt lat="46.97875" lon="8.7857">
        <ele>692</ele>
        <time>2021-08-04T09:34:32.468Z</time>
      </trkpt>
      <trkpt lat="46.97874" lon="8.7857">
        <ele>692</ele>
        <time>2021-08-04T09:34:33.468Z</time>
      </trkpt>
      <trkpt lat="46.97873" lon="8.78571">
        <ele>692</ele>
        <time>2021-08-04T09:34:34.468Z</time>
      </trkpt>
      <trkpt lat="46.97873" lon="8.78571">
        <ele>691</ele>
        <time>2021-08-04T09:34:35.468Z</time>
      </trkpt>
      <trkpt lat="46.97872" lon="8.78571">
        <ele>691</ele>
        <time>2021-08-04T09:34:36.468Z</time>
      </trkpt>
      <trkpt lat="46.97872" lon="8.7857">
        <ele>691</ele>
        <time>2021-08-04T09:34:37.468Z</time>
      </trkpt>
      <trkpt lat="46.97871" lon="8.7857">
        <ele>691</ele>
        <time>2021-08-04T09:34:38.468Z</time>
      </trkpt>
      <trkpt lat="46.9787" lon="8.7857">
        <ele>691</ele>
        <time>2021-08-04T09:34:39.468Z</time>
      </trkpt>
      <trkpt lat="46.9787" lon="8.78569">
        <ele>690</ele>
        <time>2021-08-04T09:34:40.468Z</time>
      </trkpt>
      <trkpt lat="46.97869" lon="8.78569">
        <ele>690</ele>
        <time>2021-08-04T09:34:41.469Z</time>
      </trkpt>
      <trkpt lat="46.97869" lon="8.78569">
        <ele>690</ele>
        <time>2021-08-04T09:34:42.468Z</time>
      </trkpt>
      <trkpt lat="46.97869" lon="8.78569">
        <ele>689</ele>
        <time>2021-08-04T09:34:43.468Z</time>
      </trkpt>
      <trkpt lat="46.97868" lon="8.78569">
        <ele>689</ele>
        <time>2021-08-04T09:34:44.468Z</time>
      </trkpt>
      <trkpt lat="46.97868" lon="8.78569">
        <ele>688</ele>
        <time>2021-08-04T09:34:45.468Z</time>
      </trkpt>
      <trkpt lat="46.97867" lon="8.7857">
        <ele>687</ele>
        <time>2021-08-04T09:34:46.469Z</time>
      </trkpt>
      <trkpt lat="46.97866" lon="8.78572">
        <ele>687</ele>
        <time>2021-08-04T09:34:47.469Z</time>
      </trkpt>
      <trkpt lat="46.97866" lon="8.78573">
        <ele>687</ele>
        <time>2021-08-04T09:34:48.468Z</time>
      </trkpt>
      <trkpt lat="46.97866" lon="8.78573">
        <ele>686</ele>
        <time>2021-08-04T09:34:49.469Z</time>
      </trkpt>
      <trkpt lat="46.97865" lon="8.78574">
        <ele>686</ele>
        <time>2021-08-04T09:34:50.469Z</time>
      </trkpt>
      <trkpt lat="46.97864" lon="8.78574">
        <ele>686</ele>
        <time>2021-08-04T09:34:51.469Z</time>
      </trkpt>
      <trkpt lat="46.97862" lon="8.78575">
        <ele>686</ele>
        <time>2021-08-04T09:34:52.469Z</time>
      </trkpt>
      <trkpt lat="46.97861" lon="8.78575">
        <ele>686</ele>
        <time>2021-08-04T09:34:53.468Z</time>
      </trkpt>
      <trkpt lat="46.9786" lon="8.78574">
        <ele>686</ele>
        <time>2021-08-04T09:34:54.468Z</time>
      </trkpt>
      <trkpt lat="46.9786" lon="8.78574">
        <ele>686</ele>
        <time>2021-08-04T09:34:55.469Z</time>
      </trkpt>
      <trkpt lat="46.97859" lon="8.78573">
        <ele>687</ele>
        <time>2021-08-04T09:34:56.469Z</time>
      </trkpt>
      <trkpt lat="46.97859" lon="8.78572">
        <ele>687</ele>
        <time>2021-08-04T09:34:57.468Z</time>
      </trkpt>
      <trkpt lat="46.97858" lon="8.78573">
        <ele>687</ele>
        <time>2021-08-04T09:34:58.468Z</time>
      </trkpt>
      <trkpt lat="46.97858" lon="8.78573">
        <ele>687</ele>
        <time>2021-08-04T09:34:59.468Z</time>
      </trkpt>
      <trkpt lat="46.97857" lon="8.78573">
        <ele>688</ele>
        <time>2021-08-04T09:35:00.469Z</time>
      </trkpt>
      <trkpt lat="46.97856" lon="8.78573">
        <ele>688</ele>
        <time>2021-08-04T09:35:01.469Z</time>
      </trkpt>
      <trkpt lat="46.97856" lon="8.78573">
        <ele>688</ele>
        <time>2021-08-04T09:35:02.468Z</time>
      </trkpt>
      <trkpt lat="46.97855" lon="8.78573">
        <ele>689</ele>
        <time>2021-08-04T09:35:03.468Z</time>
      </trkpt>
      <trkpt lat="46.97854" lon="8.78573">
        <ele>689</ele>
        <time>2021-08-04T09:35:04.469Z</time>
      </trkpt>
      <trkpt lat="46.97853" lon="8.78573">
        <ele>689</ele>
        <time>2021-08-04T09:35:05.468Z</time>
      </trkpt>
      <trkpt lat="46.97852" lon="8.78572">
        <ele>689</ele>
        <time>2021-08-04T09:35:06.469Z</time>
      </trkpt>
      <trkpt lat="46.9785" lon="8.78572">
        <ele>689</ele>
        <time>2021-08-04T09:35:07.469Z</time>
      </trkpt>
      <trkpt lat="46.97849" lon="8.78571">
        <ele>689</ele>
        <time>2021-08-04T09:35:08.469Z</time>
      </trkpt>
      <trkpt lat="46.97849" lon="8.78571">
        <ele>689</ele>
        <time>2021-08-04T09:35:09.468Z</time>
      </trkpt>
      <trkpt lat="46.97848" lon="8.78572">
        <ele>690</ele>
        <time>2021-08-04T09:35:10.469Z</time>
      </trkpt>
      <trkpt lat="46.97847" lon="8.78572">
        <ele>690</ele>
        <time>2021-08-04T09:35:11.469Z</time>
      </trkpt>
      <trkpt lat="46.97847" lon="8.78572">
        <ele>690</ele>
        <time>2021-08-04T09:35:12.469Z</time>
      </trkpt>
      <trkpt lat="46.97846" lon="8.78571">
        <ele>691</ele>
        <time>2021-08-04T09:35:13.468Z</time>
      </trkpt>
      <trkpt lat="46.97846" lon="8.78571">
        <ele>691</ele>
        <time>2021-08-04T09:35:14.469Z</time>
      </trkpt>
      <trkpt lat="46.97845" lon="8.78571">
        <ele>691</ele>
        <time>2021-08-04T09:35:15.469Z</time>
      </trkpt>
      <trkpt lat="46.97845" lon="8.78571">
        <ele>691</ele>
        <time>2021-08-04T09:35:16.469Z</time>
      </trkpt>
      <trkpt lat="46.97845" lon="8.78571">
        <ele>691</ele>
        <time>2021-08-04T09:35:17.469Z</time>
      </trkpt>
      <trkpt lat="46.97845" lon="8.7857">
        <ele>691</ele>
        <time>2021-08-04T09:35:18.468Z</time>
      </trkpt>
      <trkpt lat="46.97845" lon="8.7857">
        <ele>691</ele>
        <time>2021-08-04T09:35:19.469Z</time>
      </trkpt>
      <trkpt lat="46.97844" lon="8.78569">
        <ele>690</ele>
        <time>2021-08-04T09:35:20.469Z</time>
      </trkpt>
      <trkpt lat="46.97843" lon="8.78569">
        <ele>690</ele>
        <time>2021-08-04T09:35:21.468Z</time>
      </trkpt>
      <trkpt lat="46.97842" lon="8.78569">
        <ele>689</ele>
        <time>2021-08-04T09:35:22.468Z</time>
      </trkpt>
      <trkpt lat="46.97842" lon="8.78569">
        <ele>689</ele>
        <time>2021-08-04T09:35:23.469Z</time>
      </trkpt>
      <trkpt lat="46.97842" lon="8.78568">
        <ele>688</ele>
        <time>2021-08-04T09:35:24.468Z</time>
      </trkpt>
      <trkpt lat="46.97841" lon="8.78568">
        <ele>688</ele>
        <time>2021-08-04T09:35:25.469Z</time>
      </trkpt>
      <trkpt lat="46.97842" lon="8.78568">
        <ele>688</ele>
        <time>2021-08-04T09:35:26.469Z</time>
      </trkpt>
      <trkpt lat="46.97841" lon="8.78568">
        <ele>687</ele>
        <time>2021-08-04T09:35:27.469Z</time>
      </trkpt>
      <trkpt lat="46.97841" lon="8.78569">
        <ele>687</ele>
        <time>2021-08-04T09:35:28.468Z</time>
      </trkpt>
      <trkpt lat="46.9784" lon="8.78569">
        <ele>687</ele>
        <time>2021-08-04T09:35:29.469Z</time>
      </trkpt>
      <trkpt lat="46.9784" lon="8.78569">
        <ele>687</ele>
        <time>2021-08-04T09:35:30.469Z</time>
      </trkpt>
      <trkpt lat="46.97839" lon="8.7857">
        <ele>687</ele>
        <time>2021-08-04T09:35:31.469Z</time>
      </trkpt>
      <trkpt lat="46.97838" lon="8.7857">
        <ele>686</ele>
        <time>2021-08-04T09:35:32.468Z</time>
      </trkpt>
      <trkpt lat="46.97838" lon="8.78571">
        <ele>686</ele>
        <time>2021-08-04T09:35:33.468Z</time>
      </trkpt>
      <trkpt lat="46.97837" lon="8.78572">
        <ele>686</ele>
        <time>2021-08-04T09:35:34.469Z</time>
      </trkpt>
      <trkpt lat="46.97837" lon="8.78574">
        <ele>686</ele>
        <time>2021-08-04T09:35:35.469Z</time>
      </trkpt>
      <trkpt lat="46.97837" lon="8.78574">
        <ele>686</ele>
        <time>2021-08-04T09:35:36.468Z</time>
      </trkpt>
      <trkpt lat="46.97836" lon="8.78575">
        <ele>686</ele>
        <time>2021-08-04T09:35:37.469Z</time>
      </trkpt>
      <trkpt lat="46.97835" lon="8.78576">
        <ele>686</ele>
        <time>2021-08-04T09:35:38.468Z</time>
      </trkpt>
      <trkpt lat="46.97833" lon="8.78577">
        <ele>686</ele>
        <time>2021-08-04T09:35:39.469Z</time>
      </trkpt>
      <trkpt lat="46.97832" lon="8.78579">
        <ele>686</ele>
        <time>2021-08-04T09:35:40.469Z</time>
      </trkpt>
      <trkpt lat="46.97831" lon="8.78581">
        <ele>686</ele>
        <time>2021-08-04T09:35:41.469Z</time>
      </trkpt>
      <trkpt lat="46.9783" lon="8.78582">
        <ele>686</ele>
        <time>2021-08-04T09:35:42.469Z</time>
      </trkpt>
      <trkpt lat="46.97829" lon="8.78583">
        <ele>686</ele>
        <time>2021-08-04T09:35:43.468Z</time>
      </trkpt>
      <trkpt lat="46.97829" lon="8.78583">
        <ele>686</ele>
        <time>2021-08-04T09:35:44.468Z</time>
      </trkpt>
      <trkpt lat="46.97829" lon="8.78584">
        <ele>686</ele>
        <time>2021-08-04T09:35:45.469Z</time>
      </trkpt>
      <trkpt lat="46.97829" lon="8.78585">
        <ele>686</ele>
        <time>2021-08-04T09:35:46.468Z</time>
      </trkpt>
      <trkpt lat="46.97828" lon="8.78585">
        <ele>686</ele>
        <time>2021-08-04T09:35:47.469Z</time>
      </trkpt>
      <trkpt lat="46.97828" lon="8.78586">
        <ele>685</ele>
        <time>2021-08-04T09:35:48.468Z</time>
      </trkpt>
      <trkpt lat="46.97827" lon="8.78587">
        <ele>684</ele>
        <time>2021-08-04T09:35:49.469Z</time>
      </trkpt>
      <trkpt lat="46.97826" lon="8.78587">
        <ele>683</ele>
        <time>2021-08-04T09:35:50.468Z</time>
      </trkpt>
      <trkpt lat="46.97825" lon="8.78588">
        <ele>682</ele>
        <time>2021-08-04T09:35:51.468Z</time>
      </trkpt>
      <trkpt lat="46.97824" lon="8.78589">
        <ele>682</ele>
        <time>2021-08-04T09:35:52.469Z</time>
      </trkpt>
      <trkpt lat="46.97823" lon="8.78589">
        <ele>681</ele>
        <time>2021-08-04T09:35:53.469Z</time>
      </trkpt>
      <trkpt lat="46.97822" lon="8.7859">
        <ele>680</ele>
        <time>2021-08-04T09:35:54.468Z</time>
      </trkpt>
      <trkpt lat="46.97821" lon="8.7859">
        <ele>679</ele>
        <time>2021-08-04T09:35:55.468Z</time>
      </trkpt>
      <trkpt lat="46.9782" lon="8.7859">
        <ele>678</ele>
        <time>2021-08-04T09:35:56.468Z</time>
      </trkpt>
      <trkpt lat="46.97819" lon="8.7859">
        <ele>677</ele>
        <time>2021-08-04T09:35:57.468Z</time>
      </trkpt>
      <trkpt lat="46.97818" lon="8.7859">
        <ele>676</ele>
        <time>2021-08-04T09:35:58.468Z</time>
      </trkpt>
      <trkpt lat="46.97817" lon="8.7859">
        <ele>676</ele>
        <time>2021-08-04T09:35:59.469Z</time>
      </trkpt>
      <trkpt lat="46.97816" lon="8.78589">
        <ele>675</ele>
        <time>2021-08-04T09:36:00.469Z</time>
      </trkpt>
      <trkpt lat="46.97815" lon="8.78589">
        <ele>674</ele>
        <time>2021-08-04T09:36:01.468Z</time>
      </trkpt>
      <trkpt lat="46.97814" lon="8.78588">
        <ele>674</ele>
        <time>2021-08-04T09:36:02.468Z</time>
      </trkpt>
      <trkpt lat="46.97813" lon="8.78588">
        <ele>674</ele>
        <time>2021-08-04T09:36:03.468Z</time>
      </trkpt>
      <trkpt lat="46.97812" lon="8.78587">
        <ele>673</ele>
        <time>2021-08-04T09:36:04.469Z</time>
      </trkpt>
      <trkpt lat="46.97812" lon="8.78587">
        <ele>673</ele>
        <time>2021-08-04T09:36:05.468Z</time>
      </trkpt>
      <trkpt lat="46.97811" lon="8.78587">
        <ele>673</ele>
        <time>2021-08-04T09:36:06.468Z</time>
      </trkpt>
      <trkpt lat="46.9781" lon="8.78586">
        <ele>673</ele>
        <time>2021-08-04T09:36:07.468Z</time>
      </trkpt>
      <trkpt lat="46.97809" lon="8.78585">
        <ele>674</ele>
        <time>2021-08-04T09:36:08.468Z</time>
      </trkpt>
      <trkpt lat="46.97808" lon="8.78585">
        <ele>674</ele>
        <time>2021-08-04T09:36:09.469Z</time>
      </trkpt>
      <trkpt lat="46.97807" lon="8.78584">
        <ele>674</ele>
        <time>2021-08-04T09:36:10.469Z</time>
      </trkpt>
      <trkpt lat="46.97806" lon="8.78583">
        <ele>674</ele>
        <time>2021-08-04T09:36:11.468Z</time>
      </trkpt>
      <trkpt lat="46.97805" lon="8.78582">
        <ele>675</ele>
        <time>2021-08-04T09:36:12.468Z</time>
      </trkpt>
      <trkpt lat="46.97804" lon="8.7858">
        <ele>675</ele>
        <time>2021-08-04T09:36:13.468Z</time>
      </trkpt>
      <trkpt lat="46.97803" lon="8.78579">
        <ele>675</ele>
        <time>2021-08-04T09:36:14.469Z</time>
      </trkpt>
      <trkpt lat="46.97802" lon="8.78579">
        <ele>675</ele>
        <time>2021-08-04T09:36:15.468Z</time>
      </trkpt>
      <trkpt lat="46.97801" lon="8.78578">
        <ele>675</ele>
        <time>2021-08-04T09:36:16.468Z</time>
      </trkpt>
      <trkpt lat="46.978" lon="8.78578">
        <ele>676</ele>
        <time>2021-08-04T09:36:17.468Z</time>
      </trkpt>
      <trkpt lat="46.97799" lon="8.78579">
        <ele>676</ele>
        <time>2021-08-04T09:36:18.468Z</time>
      </trkpt>
      <trkpt lat="46.97799" lon="8.78579">
        <ele>677</ele>
        <time>2021-08-04T09:36:19.469Z</time>
      </trkpt>
      <trkpt lat="46.97799" lon="8.78579">
        <ele>677</ele>
        <time>2021-08-04T09:36:20.468Z</time>
      </trkpt>
      <trkpt lat="46.97797" lon="8.78583">
        <ele>678</ele>
        <time>2021-08-04T09:36:21.468Z</time>
      </trkpt>
      <trkpt lat="46.97797" lon="8.78584">
        <ele>678</ele>
        <time>2021-08-04T09:36:22.469Z</time>
      </trkpt>
      <trkpt lat="46.97796" lon="8.78584">
        <ele>679</ele>
        <time>2021-08-04T09:36:23.468Z</time>
      </trkpt>
      <trkpt lat="46.97795" lon="8.78585">
        <ele>679</ele>
        <time>2021-08-04T09:36:24.468Z</time>
      </trkpt>
      <trkpt lat="46.97794" lon="8.78586">
        <ele>679</ele>
        <time>2021-08-04T09:36:25.468Z</time>
      </trkpt>
      <trkpt lat="46.97794" lon="8.78587">
        <ele>679</ele>
        <time>2021-08-04T09:36:26.468Z</time>
      </trkpt>
      <trkpt lat="46.97793" lon="8.78586">
        <ele>678</ele>
        <time>2021-08-04T09:36:27.469Z</time>
      </trkpt>
      <trkpt lat="46.97791" lon="8.78585">
        <ele>678</ele>
        <time>2021-08-04T09:36:31.469Z</time>
      </trkpt>
      <trkpt lat="46.9779" lon="8.78585">
        <ele>677</ele>
        <time>2021-08-04T09:36:32.469Z</time>
      </trkpt>
      <trkpt lat="46.9779" lon="8.78585">
        <ele>677</ele>
        <time>2021-08-04T09:36:33.469Z</time>
      </trkpt>
      <trkpt lat="46.97789" lon="8.78586">
        <ele>677</ele>
        <time>2021-08-04T09:36:34.469Z</time>
      </trkpt>
      <trkpt lat="46.97789" lon="8.78587">
        <ele>676</ele>
        <time>2021-08-04T09:36:35.468Z</time>
      </trkpt>
      <trkpt lat="46.97789" lon="8.78587">
        <ele>676</ele>
        <time>2021-08-04T09:36:36.469Z</time>
      </trkpt>
      <trkpt lat="46.97789" lon="8.78587">
        <ele>676</ele>
        <time>2021-08-04T09:36:37.468Z</time>
      </trkpt>
      <trkpt lat="46.97789" lon="8.78588">
        <ele>675</ele>
        <time>2021-08-04T09:36:38.469Z</time>
      </trkpt>
      <trkpt lat="46.97788" lon="8.78589">
        <ele>675</ele>
        <time>2021-08-04T09:36:39.469Z</time>
      </trkpt>
      <trkpt lat="46.97788" lon="8.78589">
        <ele>674</ele>
        <time>2021-08-04T09:36:40.469Z</time>
      </trkpt>
      <trkpt lat="46.97787" lon="8.78589">
        <ele>674</ele>
        <time>2021-08-04T09:36:41.468Z</time>
      </trkpt>
      <trkpt lat="46.97783" lon="8.78589">
        <ele>674</ele>
        <time>2021-08-04T09:36:42.470Z</time>
      </trkpt>
      <trkpt lat="46.97782" lon="8.7859">
        <ele>674</ele>
        <time>2021-08-04T09:36:43.469Z</time>
      </trkpt>
      <trkpt lat="46.97782" lon="8.78591">
        <ele>674</ele>
        <time>2021-08-04T09:36:44.470Z</time>
      </trkpt>
      <trkpt lat="46.97781" lon="8.78591">
        <ele>675</ele>
        <time>2021-08-04T09:36:45.470Z</time>
      </trkpt>
      <trkpt lat="46.9778" lon="8.78592">
        <ele>675</ele>
        <time>2021-08-04T09:36:46.470Z</time>
      </trkpt>
      <trkpt lat="46.97781" lon="8.7859">
        <ele>675</ele>
        <time>2021-08-04T09:36:47.469Z</time>
      </trkpt>
      <trkpt lat="46.97782" lon="8.78589">
        <ele>676</ele>
        <time>2021-08-04T09:36:48.470Z</time>
      </trkpt>
      <trkpt lat="46.97782" lon="8.78589">
        <ele>676</ele>
        <time>2021-08-04T09:36:49.469Z</time>
      </trkpt>
      <trkpt lat="46.97781" lon="8.78589">
        <ele>677</ele>
        <time>2021-08-04T09:36:50.469Z</time>
      </trkpt>
      <trkpt lat="46.97781" lon="8.7859">
        <ele>677</ele>
        <time>2021-08-04T09:36:51.470Z</time>
      </trkpt>
      <trkpt lat="46.97781" lon="8.7859">
        <ele>677</ele>
        <time>2021-08-04T09:36:52.469Z</time>
      </trkpt>
      <trkpt lat="46.97779" lon="8.78593">
        <ele>681</ele>
        <time>2021-08-04T09:36:53.471Z</time>
      </trkpt>
      <trkpt lat="46.97778" lon="8.78593">
        <ele>692</ele>
        <time>2021-08-04T09:36:54.472Z</time>
      </trkpt>
      <trkpt lat="46.97778" lon="8.78593">
        <ele>693</ele>
        <time>2021-08-04T09:36:55.471Z</time>
      </trkpt>
      <trkpt lat="46.97779" lon="8.78584">
        <ele>702</ele>
        <time>2021-08-04T09:36:56.472Z</time>
      </trkpt>
      <trkpt lat="46.97779" lon="8.78583">
        <ele>702</ele>
        <time>2021-08-04T09:36:57.471Z</time>
      </trkpt>
      <trkpt lat="46.9778" lon="8.78582">
        <ele>703</ele>
        <time>2021-08-04T09:36:58.471Z</time>
      </trkpt>
      <trkpt lat="46.9778" lon="8.78582">
        <ele>703</ele>
        <time>2021-08-04T09:36:59.472Z</time>
      </trkpt>
      <trkpt lat="46.9778" lon="8.78582">
        <ele>703</ele>
        <time>2021-08-04T09:37:00.472Z</time>
      </trkpt>
      <trkpt lat="46.9778" lon="8.78582">
        <ele>703</ele>
        <time>2021-08-04T09:37:01.472Z</time>
      </trkpt>
      <trkpt lat="46.97781" lon="8.78583">
        <ele>703</ele>
        <time>2021-08-04T09:37:02.472Z</time>
      </trkpt>
      <trkpt lat="46.97782" lon="8.78584">
        <ele>700</ele>
        <time>2021-08-04T09:37:03.472Z</time>
      </trkpt>
      <trkpt lat="46.97782" lon="8.78584">
        <ele>699</ele>
        <time>2021-08-04T09:37:04.473Z</time>
      </trkpt>
      <trkpt lat="46.97783" lon="8.78585">
        <ele>699</ele>
        <time>2021-08-04T09:37:05.472Z</time>
      </trkpt>
      <trkpt lat="46.97783" lon="8.78586">
        <ele>698</ele>
        <time>2021-08-04T09:37:06.473Z</time>
      </trkpt>
      <trkpt lat="46.97784" lon="8.78587">
        <ele>697</ele>
        <time>2021-08-04T09:37:07.473Z</time>
      </trkpt>
      <trkpt lat="46.97785" lon="8.78587">
        <ele>697</ele>
        <time>2021-08-04T09:37:08.472Z</time>
      </trkpt>
      <trkpt lat="46.97785" lon="8.78588">
        <ele>696</ele>
        <time>2021-08-04T09:37:09.473Z</time>
      </trkpt>
      <trkpt lat="46.97786" lon="8.78588">
        <ele>696</ele>
        <time>2021-08-04T09:37:10.472Z</time>
      </trkpt>
      <trkpt lat="46.97786" lon="8.78588">
        <ele>696</ele>
        <time>2021-08-04T09:37:11.473Z</time>
      </trkpt>
      <trkpt lat="46.97786" lon="8.78589">
        <ele>696</ele>
        <time>2021-08-04T09:37:12.472Z</time>
      </trkpt>
      <trkpt lat="46.97785" lon="8.7859">
        <ele>696</ele>
        <time>2021-08-04T09:37:13.472Z</time>
      </trkpt>
      <trkpt lat="46.97784" lon="8.78589">
        <ele>695</ele>
        <time>2021-08-04T09:37:14.472Z</time>
      </trkpt>
      <trkpt lat="46.97784" lon="8.78588">
        <ele>695</ele>
        <time>2021-08-04T09:37:15.473Z</time>
      </trkpt>
      <trkpt lat="46.97783" lon="8.78588">
        <ele>695</ele>
        <time>2021-08-04T09:37:16.473Z</time>
      </trkpt>
      <trkpt lat="46.97782" lon="8.78588">
        <ele>695</ele>
        <time>2021-08-04T09:37:17.473Z</time>
      </trkpt>
      <trkpt lat="46.97782" lon="8.78588">
        <ele>694</ele>
        <time>2021-08-04T09:37:18.473Z</time>
      </trkpt>
      <trkpt lat="46.97782" lon="8.78589">
        <ele>693</ele>
        <time>2021-08-04T09:37:19.473Z</time>
      </trkpt>
      <trkpt lat="46.97781" lon="8.78589">
        <ele>693</ele>
        <time>2021-08-04T09:37:20.474Z</time>
      </trkpt>
      <trkpt lat="46.97779" lon="8.7859">
        <ele>692</ele>
        <time>2021-08-04T09:37:21.473Z</time>
      </trkpt>
      <trkpt lat="46.97779" lon="8.7859">
        <ele>692</ele>
        <time>2021-08-04T09:37:22.473Z</time>
      </trkpt>
      <trkpt lat="46.9778" lon="8.78591">
        <ele>691</ele>
        <time>2021-08-04T09:37:23.474Z</time>
      </trkpt>
      <trkpt lat="46.97779" lon="8.78592">
        <ele>690</ele>
        <time>2021-08-04T09:37:24.474Z</time>
      </trkpt>
      <trkpt lat="46.9778" lon="8.78591">
        <ele>689</ele>
        <time>2021-08-04T09:37:25.475Z</time>
      </trkpt>
      <trkpt lat="46.97781" lon="8.78589">
        <ele>689</ele>
        <time>2021-08-04T09:37:26.474Z</time>
      </trkpt>
      <trkpt lat="46.97781" lon="8.78586">
        <ele>689</ele>
        <time>2021-08-04T09:37:27.474Z</time>
      </trkpt>
      <trkpt lat="46.97782" lon="8.78583">
        <ele>688</ele>
        <time>2021-08-04T09:37:28.474Z</time>
      </trkpt>
      <trkpt lat="46.97781" lon="8.78583">
        <ele>688</ele>
        <time>2021-08-04T09:37:29.474Z</time>
      </trkpt>
      <trkpt lat="46.97781" lon="8.78584">
        <ele>687</ele>
        <time>2021-08-04T09:37:30.474Z</time>
      </trkpt>
      <trkpt lat="46.97782" lon="8.78584">
        <ele>687</ele>
        <time>2021-08-04T09:37:31.474Z</time>
      </trkpt>
      <trkpt lat="46.97783" lon="8.78584">
        <ele>687</ele>
        <time>2021-08-04T09:37:32.474Z</time>
      </trkpt>
      <trkpt lat="46.97783" lon="8.78583">
        <ele>687</ele>
        <time>2021-08-04T09:37:33.474Z</time>
      </trkpt>
      <trkpt lat="46.97783" lon="8.78583">
        <ele>686</ele>
        <time>2021-08-04T09:37:34.475Z</time>
      </trkpt>
      <trkpt lat="46.97783" lon="8.78583">
        <ele>686</ele>
        <time>2021-08-04T09:37:35.475Z</time>
      </trkpt>
      <trkpt lat="46.97783" lon="8.78584">
        <ele>686</ele>
        <time>2021-08-04T09:37:36.475Z</time>
      </trkpt>
      <trkpt lat="46.97783" lon="8.78585">
        <ele>686</ele>
        <time>2021-08-04T09:37:37.475Z</time>
      </trkpt>
      <trkpt lat="46.97783" lon="8.78587">
        <ele>686</ele>
        <time>2021-08-04T09:37:38.475Z</time>
      </trkpt>
      <trkpt lat="46.97782" lon="8.78588">
        <ele>686</ele>
        <time>2021-08-04T09:37:39.474Z</time>
      </trkpt>
      <trkpt lat="46.97782" lon="8.78589">
        <ele>686</ele>
        <time>2021-08-04T09:37:40.475Z</time>
      </trkpt>
      <trkpt lat="46.97782" lon="8.7859">
        <ele>686</ele>
        <time>2021-08-04T09:37:41.475Z</time>
      </trkpt>
      <trkpt lat="46.97782" lon="8.78591">
        <ele>686</ele>
        <time>2021-08-04T09:37:42.475Z</time>
      </trkpt>
      <trkpt lat="46.97782" lon="8.78591">
        <ele>685</ele>
        <time>2021-08-04T09:37:43.475Z</time>
      </trkpt>
      <trkpt lat="46.97782" lon="8.7859">
        <ele>685</ele>
        <time>2021-08-04T09:37:44.475Z</time>
      </trkpt>
      <trkpt lat="46.97782" lon="8.78589">
        <ele>686</ele>
        <time>2021-08-04T09:37:45.475Z</time>
      </trkpt>
      <trkpt lat="46.97782" lon="8.78589">
        <ele>686</ele>
        <time>2021-08-04T09:37:46.474Z</time>
      </trkpt>
      <trkpt lat="46.97782" lon="8.78588">
        <ele>687</ele>
        <time>2021-08-04T09:37:47.474Z</time>
      </trkpt>
      <trkpt lat="46.97782" lon="8.78588">
        <ele>687</ele>
        <time>2021-08-04T09:37:48.475Z</time>
      </trkpt>
      <trkpt lat="46.97782" lon="8.78588">
        <ele>688</ele>
        <time>2021-08-04T09:37:49.474Z</time>
      </trkpt>
      <trkpt lat="46.97782" lon="8.78588">
        <ele>688</ele>
        <time>2021-08-04T09:37:50.474Z</time>
      </trkpt>
      <trkpt lat="46.97783" lon="8.78587">
        <ele>688</ele>
        <time>2021-08-04T09:37:51.475Z</time>
      </trkpt>
      <trkpt lat="46.97783" lon="8.78586">
        <ele>687</ele>
        <time>2021-08-04T09:37:52.474Z</time>
      </trkpt>
      <trkpt lat="46.97784" lon="8.78585">
        <ele>687</ele>
        <time>2021-08-04T09:37:53.475Z</time>
      </trkpt>
      <trkpt lat="46.97785" lon="8.78583">
        <ele>687</ele>
        <time>2021-08-04T09:37:54.475Z</time>
      </trkpt>
      <trkpt lat="46.97785" lon="8.78583">
        <ele>687</ele>
        <time>2021-08-04T09:37:55.475Z</time>
      </trkpt>
      <trkpt lat="46.97785" lon="8.78583">
        <ele>686</ele>
        <time>2021-08-04T09:37:56.474Z</time>
      </trkpt>
      <trkpt lat="46.97785" lon="8.78584">
        <ele>686</ele>
        <time>2021-08-04T09:37:57.474Z</time>
      </trkpt>
      <trkpt lat="46.97784" lon="8.78587">
        <ele>684</ele>
        <time>2021-08-04T09:37:58.475Z</time>
      </trkpt>
      <trkpt lat="46.97783" lon="8.78588">
        <ele>683</ele>
        <time>2021-08-04T09:37:59.475Z</time>
      </trkpt>
      <trkpt lat="46.97782" lon="8.78588">
        <ele>683</ele>
        <time>2021-08-04T09:38:00.474Z</time>
      </trkpt>
      <trkpt lat="46.97782" lon="8.78588">
        <ele>683</ele>
        <time>2021-08-04T09:38:01.475Z</time>
      </trkpt>
      <trkpt lat="46.97782" lon="8.78589">
        <ele>684</ele>
        <time>2021-08-04T09:38:07.542Z</time>
      </trkpt>
      <trkpt lat="46.97781" lon="8.78589">
        <ele>684</ele>
        <time>2021-08-04T09:38:08.542Z</time>
      </trkpt>
      <trkpt lat="46.97781" lon="8.78588">
        <ele>685</ele>
        <time>2021-08-04T09:38:09.544Z</time>
      </trkpt>
      <trkpt lat="46.97782" lon="8.78587">
        <ele>685</ele>
        <time>2021-08-04T09:38:10.544Z</time>
      </trkpt>
      <trkpt lat="46.97782" lon="8.78585">
        <ele>685</ele>
        <time>2021-08-04T09:38:11.544Z</time>
      </trkpt>
      <trkpt lat="46.97784" lon="8.78583">
        <ele>686</ele>
        <time>2021-08-04T09:38:12.543Z</time>
      </trkpt>
      <trkpt lat="46.97783" lon="8.78583">
        <ele>686</ele>
        <time>2021-08-04T09:38:13.543Z</time>
      </trkpt>
      <trkpt lat="46.97783" lon="8.78583">
        <ele>685</ele>
        <time>2021-08-04T09:38:14.543Z</time>
      </trkpt>
      <trkpt lat="46.97784" lon="8.78582">
        <ele>683</ele>
        <time>2021-08-04T09:38:15.544Z</time>
      </trkpt>
      <trkpt lat="46.97784" lon="8.78581">
        <ele>682</ele>
        <time>2021-08-04T09:38:16.543Z</time>
      </trkpt>
      <trkpt lat="46.97783" lon="8.78579">
        <ele>680</ele>
        <time>2021-08-04T09:38:17.543Z</time>
      </trkpt>
      <trkpt lat="46.97783" lon="8.78576">
        <ele>678</ele>
        <time>2021-08-04T09:38:18.543Z</time>
      </trkpt>
      <trkpt lat="46.97783" lon="8.78574">
        <ele>676</ele>
        <time>2021-08-04T09:38:19.544Z</time>
      </trkpt>
      <trkpt lat="46.97782" lon="8.78572">
        <ele>675</ele>
        <time>2021-08-04T09:38:20.543Z</time>
      </trkpt>
      <trkpt lat="46.97782" lon="8.78571">
        <ele>673</ele>
        <time>2021-08-04T09:38:21.543Z</time>
      </trkpt>
      <trkpt lat="46.97782" lon="8.78569">
        <ele>672</ele>
        <time>2021-08-04T09:38:22.543Z</time>
      </trkpt>
      <trkpt lat="46.97782" lon="8.78568">
        <ele>671</ele>
        <time>2021-08-04T09:38:23.543Z</time>
      </trkpt>
      <trkpt lat="46.97782" lon="8.78567">
        <ele>670</ele>
        <time>2021-08-04T09:38:24.543Z</time>
      </trkpt>
      <trkpt lat="46.97781" lon="8.78565">
        <ele>670</ele>
        <time>2021-08-04T09:38:25.543Z</time>
      </trkpt>
      <trkpt lat="46.97781" lon="8.78565">
        <ele>670</ele>
        <time>2021-08-04T09:38:26.544Z</time>
      </trkpt>
      <trkpt lat="46.97781" lon="8.78566">
        <ele>670</ele>
        <time>2021-08-04T09:38:27.543Z</time>
      </trkpt>
      <trkpt lat="46.97782" lon="8.78566">
        <ele>670</ele>
        <time>2021-08-04T09:38:28.544Z</time>
      </trkpt>
      <trkpt lat="46.97784" lon="8.78562">
        <ele>675</ele>
        <time>2021-08-04T09:38:29.545Z</time>
      </trkpt>
      <trkpt lat="46.97784" lon="8.78562">
        <ele>676</ele>
        <time>2021-08-04T09:38:30.545Z</time>
      </trkpt>
      <trkpt lat="46.97784" lon="8.78561">
        <ele>677</ele>
        <time>2021-08-04T09:38:31.544Z</time>
      </trkpt>
      <trkpt lat="46.97783" lon="8.7856">
        <ele>678</ele>
        <time>2021-08-04T09:38:32.544Z</time>
      </trkpt>
      <trkpt lat="46.97784" lon="8.7856">
        <ele>686</ele>
        <time>2021-08-04T09:38:33.544Z</time>
      </trkpt>
      <trkpt lat="46.97787" lon="8.78558">
        <ele>660</ele>
        <time>2021-08-04T09:38:34.544Z</time>
      </trkpt>
      <trkpt lat="46.97786" lon="8.78557">
        <ele>659</ele>
        <time>2021-08-04T09:38:35.544Z</time>
      </trkpt>
      <trkpt lat="46.97786" lon="8.78557">
        <ele>659</ele>
        <time>2021-08-04T09:38:36.545Z</time>
      </trkpt>
      <trkpt lat="46.97784" lon="8.78554">
        <ele>658</ele>
        <time>2021-08-04T09:38:37.545Z</time>
      </trkpt>
      <trkpt lat="46.97784" lon="8.78553">
        <ele>659</ele>
        <time>2021-08-04T09:38:38.545Z</time>
      </trkpt>
      <trkpt lat="46.97783" lon="8.78551">
        <ele>659</ele>
        <time>2021-08-04T09:38:39.545Z</time>
      </trkpt>
      <trkpt lat="46.97782" lon="8.7855">
        <ele>659</ele>
        <time>2021-08-04T09:38:40.545Z</time>
      </trkpt>
      <trkpt lat="46.97782" lon="8.78549">
        <ele>659</ele>
        <time>2021-08-04T09:38:41.545Z</time>
      </trkpt>
      <trkpt lat="46.97781" lon="8.78547">
        <ele>660</ele>
        <time>2021-08-04T09:38:42.545Z</time>
      </trkpt>
      <trkpt lat="46.9778" lon="8.78547">
        <ele>660</ele>
        <time>2021-08-04T09:38:43.545Z</time>
      </trkpt>
      <trkpt lat="46.9778" lon="8.78545">
        <ele>660</ele>
        <time>2021-08-04T09:38:44.545Z</time>
      </trkpt>
      <trkpt lat="46.97779" lon="8.78544">
        <ele>660</ele>
        <time>2021-08-04T09:38:45.545Z</time>
      </trkpt>
      <trkpt lat="46.97779" lon="8.78543">
        <ele>661</ele>
        <time>2021-08-04T09:38:46.545Z</time>
      </trkpt>
      <trkpt lat="46.97779" lon="8.78541">
        <ele>661</ele>
        <time>2021-08-04T09:38:47.545Z</time>
      </trkpt>
      <trkpt lat="46.97778" lon="8.7854">
        <ele>661</ele>
        <time>2021-08-04T09:38:48.545Z</time>
      </trkpt>
      <trkpt lat="46.97777" lon="8.78539">
        <ele>661</ele>
        <time>2021-08-04T09:38:49.545Z</time>
      </trkpt>
      <trkpt lat="46.97776" lon="8.78538">
        <ele>662</ele>
        <time>2021-08-04T09:38:50.545Z</time>
      </trkpt>
      <trkpt lat="46.97776" lon="8.78538">
        <ele>663</ele>
        <time>2021-08-04T09:38:51.545Z</time>
      </trkpt>
      <trkpt lat="46.97775" lon="8.78537">
        <ele>664</ele>
        <time>2021-08-04T09:38:52.545Z</time>
      </trkpt>
      <trkpt lat="46.97775" lon="8.78536">
        <ele>664</ele>
        <time>2021-08-04T09:38:53.545Z</time>
      </trkpt>
      <trkpt lat="46.97774" lon="8.78534">
        <ele>664</ele>
        <time>2021-08-04T09:38:54.545Z</time>
      </trkpt>
      <trkpt lat="46.97774" lon="8.78533">
        <ele>664</ele>
        <time>2021-08-04T09:38:55.545Z</time>
      </trkpt>
      <trkpt lat="46.97773" lon="8.78531">
        <ele>664</ele>
        <time>2021-08-04T09:38:56.545Z</time>
      </trkpt>
      <trkpt lat="46.97773" lon="8.7853">
        <ele>664</ele>
        <time>2021-08-04T09:38:57.545Z</time>
      </trkpt>
      <trkpt lat="46.97772" lon="8.78528">
        <ele>664</ele>
        <time>2021-08-04T09:38:58.545Z</time>
      </trkpt>
      <trkpt lat="46.97772" lon="8.78527">
        <ele>664</ele>
        <time>2021-08-04T09:38:59.545Z</time>
      </trkpt>
      <trkpt lat="46.97771" lon="8.78526">
        <ele>663</ele>
        <time>2021-08-04T09:39:00.545Z</time>
      </trkpt>
      <trkpt lat="46.97771" lon="8.78525">
        <ele>664</ele>
        <time>2021-08-04T09:39:01.545Z</time>
      </trkpt>
      <trkpt lat="46.9777" lon="8.78524">
        <ele>664</ele>
        <time>2021-08-04T09:39:02.545Z</time>
      </trkpt>
      <trkpt lat="46.97769" lon="8.78523">
        <ele>664</ele>
        <time>2021-08-04T09:39:03.545Z</time>
      </trkpt>
      <trkpt lat="46.97768" lon="8.78522">
        <ele>665</ele>
        <time>2021-08-04T09:39:04.545Z</time>
      </trkpt>
      <trkpt lat="46.97768" lon="8.78521">
        <ele>665</ele>
        <time>2021-08-04T09:39:05.545Z</time>
      </trkpt>
      <trkpt lat="46.97767" lon="8.78519">
        <ele>666</ele>
        <time>2021-08-04T09:39:06.545Z</time>
      </trkpt>
      <trkpt lat="46.97766" lon="8.78518">
        <ele>666</ele>
        <time>2021-08-04T09:39:07.545Z</time>
      </trkpt>
      <trkpt lat="46.97766" lon="8.78516">
        <ele>666</ele>
        <time>2021-08-04T09:39:08.545Z</time>
      </trkpt>
      <trkpt lat="46.97765" lon="8.78515">
        <ele>667</ele>
        <time>2021-08-04T09:39:09.545Z</time>
      </trkpt>
      <trkpt lat="46.97765" lon="8.78513">
        <ele>667</ele>
        <time>2021-08-04T09:39:10.545Z</time>
      </trkpt>
      <trkpt lat="46.97765" lon="8.78511">
        <ele>667</ele>
        <time>2021-08-04T09:39:11.545Z</time>
      </trkpt>
      <trkpt lat="46.97765" lon="8.7851">
        <ele>667</ele>
        <time>2021-08-04T09:39:12.545Z</time>
      </trkpt>
      <trkpt lat="46.97765" lon="8.78509">
        <ele>668</ele>
        <time>2021-08-04T09:39:13.545Z</time>
      </trkpt>
      <trkpt lat="46.97764" lon="8.78507">
        <ele>668</ele>
        <time>2021-08-04T09:39:14.545Z</time>
      </trkpt>
      <trkpt lat="46.97764" lon="8.78505">
        <ele>668</ele>
        <time>2021-08-04T09:39:15.545Z</time>
      </trkpt>
      <trkpt lat="46.97763" lon="8.78503">
        <ele>668</ele>
        <time>2021-08-04T09:39:16.545Z</time>
      </trkpt>
      <trkpt lat="46.97763" lon="8.78502">
        <ele>668</ele>
        <time>2021-08-04T09:39:17.545Z</time>
      </trkpt>
      <trkpt lat="46.97762" lon="8.785">
        <ele>667</ele>
        <time>2021-08-04T09:39:18.545Z</time>
      </trkpt>
      <trkpt lat="46.97761" lon="8.78498">
        <ele>667</ele>
        <time>2021-08-04T09:39:19.545Z</time>
      </trkpt>
      <trkpt lat="46.97761" lon="8.78496">
        <ele>667</ele>
        <time>2021-08-04T09:39:20.545Z</time>
      </trkpt>
      <trkpt lat="46.9776" lon="8.78495">
        <ele>667</ele>
        <time>2021-08-04T09:39:21.545Z</time>
      </trkpt>
      <trkpt lat="46.97759" lon="8.78494">
        <ele>667</ele>
        <time>2021-08-04T09:39:22.545Z</time>
      </trkpt>
      <trkpt lat="46.97758" lon="8.78493">
        <ele>666</ele>
        <time>2021-08-04T09:39:23.545Z</time>
      </trkpt>
      <trkpt lat="46.97758" lon="8.78491">
        <ele>666</ele>
        <time>2021-08-04T09:39:24.545Z</time>
      </trkpt>
      <trkpt lat="46.97757" lon="8.78489">
        <ele>666</ele>
        <time>2021-08-04T09:39:25.545Z</time>
      </trkpt>
      <trkpt lat="46.97755" lon="8.78488">
        <ele>666</ele>
        <time>2021-08-04T09:39:26.545Z</time>
      </trkpt>
      <trkpt lat="46.97754" lon="8.78487">
        <ele>666</ele>
        <time>2021-08-04T09:39:27.545Z</time>
      </trkpt>
      <trkpt lat="46.97753" lon="8.78486">
        <ele>666</ele>
        <time>2021-08-04T09:39:28.545Z</time>
      </trkpt>
      <trkpt lat="46.97752" lon="8.78484">
        <ele>667</ele>
        <time>2021-08-04T09:39:29.545Z</time>
      </trkpt>
      <trkpt lat="46.97751" lon="8.78482">
        <ele>667</ele>
        <time>2021-08-04T09:39:30.545Z</time>
      </trkpt>
      <trkpt lat="46.9775" lon="8.78481">
        <ele>668</ele>
        <time>2021-08-04T09:39:31.545Z</time>
      </trkpt>
      <trkpt lat="46.97749" lon="8.78479">
        <ele>668</ele>
        <time>2021-08-04T09:39:32.545Z</time>
      </trkpt>
      <trkpt lat="46.97748" lon="8.78477">
        <ele>669</ele>
        <time>2021-08-04T09:39:33.545Z</time>
      </trkpt>
      <trkpt lat="46.97747" lon="8.78475">
        <ele>669</ele>
        <time>2021-08-04T09:39:34.545Z</time>
      </trkpt>
      <trkpt lat="46.97746" lon="8.78474">
        <ele>669</ele>
        <time>2021-08-04T09:39:35.545Z</time>
      </trkpt>
      <trkpt lat="46.97746" lon="8.78473">
        <ele>669</ele>
        <time>2021-08-04T09:39:36.545Z</time>
      </trkpt>
      <trkpt lat="46.97745" lon="8.78472">
        <ele>669</ele>
        <time>2021-08-04T09:39:37.545Z</time>
      </trkpt>
      <trkpt lat="46.97745" lon="8.78471">
        <ele>670</ele>
        <time>2021-08-04T09:39:38.545Z</time>
      </trkpt>
      <trkpt lat="46.97744" lon="8.7847">
        <ele>670</ele>
        <time>2021-08-04T09:39:39.545Z</time>
      </trkpt>
      <trkpt lat="46.97744" lon="8.78469">
        <ele>670</ele>
        <time>2021-08-04T09:39:40.545Z</time>
      </trkpt>
      <trkpt lat="46.97744" lon="8.78467">
        <ele>670</ele>
        <time>2021-08-04T09:39:41.545Z</time>
      </trkpt>
      <trkpt lat="46.97744" lon="8.78465">
        <ele>669</ele>
        <time>2021-08-04T09:39:42.545Z</time>
      </trkpt>
      <trkpt lat="46.97744" lon="8.78464">
        <ele>669</ele>
        <time>2021-08-04T09:39:43.545Z</time>
      </trkpt>
      <trkpt lat="46.97743" lon="8.78463">
        <ele>669</ele>
        <time>2021-08-04T09:39:44.545Z</time>
      </trkpt>
      <trkpt lat="46.97743" lon="8.78462">
        <ele>669</ele>
        <time>2021-08-04T09:39:45.545Z</time>
      </trkpt>
      <trkpt lat="46.97742" lon="8.78461">
        <ele>669</ele>
        <time>2021-08-04T09:39:46.545Z</time>
      </trkpt>
      <trkpt lat="46.97741" lon="8.78459">
        <ele>669</ele>
        <time>2021-08-04T09:39:47.545Z</time>
      </trkpt>
      <trkpt lat="46.9774" lon="8.78458">
        <ele>669</ele>
        <time>2021-08-04T09:39:48.545Z</time>
      </trkpt>
      <trkpt lat="46.97739" lon="8.78457">
        <ele>669</ele>
        <time>2021-08-04T09:39:49.545Z</time>
      </trkpt>
      <trkpt lat="46.97739" lon="8.78456">
        <ele>669</ele>
        <time>2021-08-04T09:39:50.545Z</time>
      </trkpt>
      <trkpt lat="46.97739" lon="8.78455">
        <ele>669</ele>
        <time>2021-08-04T09:39:51.545Z</time>
      </trkpt>
      <trkpt lat="46.97739" lon="8.78453">
        <ele>669</ele>
        <time>2021-08-04T09:39:52.545Z</time>
      </trkpt>
      <trkpt lat="46.97739" lon="8.78451">
        <ele>669</ele>
        <time>2021-08-04T09:39:53.545Z</time>
      </trkpt>
      <trkpt lat="46.97739" lon="8.7845">
        <ele>669</ele>
        <time>2021-08-04T09:39:54.545Z</time>
      </trkpt>
      <trkpt lat="46.97739" lon="8.78448">
        <ele>669</ele>
        <time>2021-08-04T09:39:55.545Z</time>
      </trkpt>
      <trkpt lat="46.97738" lon="8.78445">
        <ele>670</ele>
        <time>2021-08-04T09:40:06.681Z</time>
      </trkpt>
      <trkpt lat="46.97738" lon="8.78444">
        <ele>670</ele>
        <time>2021-08-04T09:40:07.681Z</time>
      </trkpt>
      <trkpt lat="46.97737" lon="8.78442">
        <ele>669</ele>
        <time>2021-08-04T09:40:08.681Z</time>
      </trkpt>
      <trkpt lat="46.97736" lon="8.78442">
        <ele>669</ele>
        <time>2021-08-04T09:40:09.681Z</time>
      </trkpt>
      <trkpt lat="46.97735" lon="8.7844">
        <ele>669</ele>
        <time>2021-08-04T09:40:10.681Z</time>
      </trkpt>
      <trkpt lat="46.97734" lon="8.78439">
        <ele>669</ele>
        <time>2021-08-04T09:40:11.681Z</time>
      </trkpt>
      <trkpt lat="46.97733" lon="8.78438">
        <ele>669</ele>
        <time>2021-08-04T09:40:12.681Z</time>
      </trkpt>
      <trkpt lat="46.97732" lon="8.78437">
        <ele>668</ele>
        <time>2021-08-04T09:40:13.681Z</time>
      </trkpt>
      <trkpt lat="46.97731" lon="8.78436">
        <ele>668</ele>
        <time>2021-08-04T09:40:14.681Z</time>
      </trkpt>
      <trkpt lat="46.9773" lon="8.78435">
        <ele>667</ele>
        <time>2021-08-04T09:40:15.681Z</time>
      </trkpt>
      <trkpt lat="46.9773" lon="8.78434">
        <ele>667</ele>
        <time>2021-08-04T09:40:16.681Z</time>
      </trkpt>
      <trkpt lat="46.9773" lon="8.78432">
        <ele>666</ele>
        <time>2021-08-04T09:40:17.681Z</time>
      </trkpt>
      <trkpt lat="46.9773" lon="8.7843">
        <ele>666</ele>
        <time>2021-08-04T09:40:18.681Z</time>
      </trkpt>
      <trkpt lat="46.9773" lon="8.78429">
        <ele>665</ele>
        <time>2021-08-04T09:40:19.681Z</time>
      </trkpt>
      <trkpt lat="46.9773" lon="8.78427">
        <ele>665</ele>
        <time>2021-08-04T09:40:20.681Z</time>
      </trkpt>
      <trkpt lat="46.9773" lon="8.78426">
        <ele>665</ele>
        <time>2021-08-04T09:40:21.681Z</time>
      </trkpt>
      <trkpt lat="46.97729" lon="8.78424">
        <ele>665</ele>
        <time>2021-08-04T09:40:22.681Z</time>
      </trkpt>
      <trkpt lat="46.97728" lon="8.78424">
        <ele>664</ele>
        <time>2021-08-04T09:40:23.681Z</time>
      </trkpt>
      <trkpt lat="46.97727" lon="8.78423">
        <ele>664</ele>
        <time>2021-08-04T09:40:24.681Z</time>
      </trkpt>
      <trkpt lat="46.97727" lon="8.78421">
        <ele>664</ele>
        <time>2021-08-04T09:40:25.681Z</time>
      </trkpt>
      <trkpt lat="46.97726" lon="8.7842">
        <ele>664</ele>
        <time>2021-08-04T09:40:26.681Z</time>
      </trkpt>
      <trkpt lat="46.97727" lon="8.78418">
        <ele>664</ele>
        <time>2021-08-04T09:40:27.681Z</time>
      </trkpt>
      <trkpt lat="46.97727" lon="8.78416">
        <ele>664</ele>
        <time>2021-08-04T09:40:28.681Z</time>
      </trkpt>
      <trkpt lat="46.97728" lon="8.78413">
        <ele>664</ele>
        <time>2021-08-04T09:40:29.681Z</time>
      </trkpt>
      <trkpt lat="46.97728" lon="8.78411">
        <ele>664</ele>
        <time>2021-08-04T09:40:30.681Z</time>
      </trkpt>
      <trkpt lat="46.97728" lon="8.7841">
        <ele>664</ele>
        <time>2021-08-04T09:40:31.681Z</time>
      </trkpt>
      <trkpt lat="46.97727" lon="8.78409">
        <ele>664</ele>
        <time>2021-08-04T09:40:32.681Z</time>
      </trkpt>
      <trkpt lat="46.97726" lon="8.78408">
        <ele>664</ele>
        <time>2021-08-04T09:40:33.681Z</time>
      </trkpt>
      <trkpt lat="46.97726" lon="8.78407">
        <ele>664</ele>
        <time>2021-08-04T09:40:34.681Z</time>
      </trkpt>
      <trkpt lat="46.97726" lon="8.78407">
        <ele>664</ele>
        <time>2021-08-04T09:40:35.681Z</time>
      </trkpt>
      <trkpt lat="46.97725" lon="8.78406">
        <ele>664</ele>
        <time>2021-08-04T09:40:36.681Z</time>
      </trkpt>
      <trkpt lat="46.97725" lon="8.78405">
        <ele>665</ele>
        <time>2021-08-04T09:40:37.681Z</time>
      </trkpt>
      <trkpt lat="46.97724" lon="8.78404">
        <ele>665</ele>
        <time>2021-08-04T09:40:38.681Z</time>
      </trkpt>
      <trkpt lat="46.97722" lon="8.78403">
        <ele>665</ele>
        <time>2021-08-04T09:40:39.681Z</time>
      </trkpt>
      <trkpt lat="46.97722" lon="8.78402">
        <ele>665</ele>
        <time>2021-08-04T09:40:40.681Z</time>
      </trkpt>
      <trkpt lat="46.9772" lon="8.784">
        <ele>664</ele>
        <time>2021-08-04T09:40:41.681Z</time>
      </trkpt>
      <trkpt lat="46.9772" lon="8.78398">
        <ele>664</ele>
        <time>2021-08-04T09:40:42.681Z</time>
      </trkpt>
      <trkpt lat="46.97719" lon="8.78396">
        <ele>664</ele>
        <time>2021-08-04T09:40:43.681Z</time>
      </trkpt>
      <trkpt lat="46.97719" lon="8.78394">
        <ele>663</ele>
        <time>2021-08-04T09:40:44.681Z</time>
      </trkpt>
      <trkpt lat="46.97718" lon="8.78393">
        <ele>663</ele>
        <time>2021-08-04T09:40:45.681Z</time>
      </trkpt>
      <trkpt lat="46.97718" lon="8.7839">
        <ele>663</ele>
        <time>2021-08-04T09:40:46.681Z</time>
      </trkpt>
      <trkpt lat="46.97717" lon="8.78389">
        <ele>662</ele>
        <time>2021-08-04T09:40:47.681Z</time>
      </trkpt>
      <trkpt lat="46.97716" lon="8.78388">
        <ele>662</ele>
        <time>2021-08-04T09:40:48.681Z</time>
      </trkpt>
      <trkpt lat="46.97715" lon="8.78387">
        <ele>662</ele>
        <time>2021-08-04T09:40:49.681Z</time>
      </trkpt>
      <trkpt lat="46.97714" lon="8.78387">
        <ele>662</ele>
        <time>2021-08-04T09:40:50.681Z</time>
      </trkpt>
      <trkpt lat="46.97713" lon="8.78387">
        <ele>663</ele>
        <time>2021-08-04T09:40:51.681Z</time>
      </trkpt>
      <trkpt lat="46.97711" lon="8.78391">
        <ele>662</ele>
        <time>2021-08-04T09:40:52.682Z</time>
      </trkpt>
      <trkpt lat="46.97711" lon="8.78392">
        <ele>661</ele>
        <time>2021-08-04T09:40:53.681Z</time>
      </trkpt>
      <trkpt lat="46.97711" lon="8.78392">
        <ele>660</ele>
        <time>2021-08-04T09:40:54.681Z</time>
      </trkpt>
      <trkpt lat="46.97709" lon="8.78387">
        <ele>653</ele>
        <time>2021-08-04T09:40:55.681Z</time>
      </trkpt>
      <trkpt lat="46.97709" lon="8.78387">
        <ele>654</ele>
        <time>2021-08-04T09:40:56.681Z</time>
      </trkpt>
      <trkpt lat="46.97709" lon="8.78387">
        <ele>655</ele>
        <time>2021-08-04T09:40:57.681Z</time>
      </trkpt>
      <trkpt lat="46.97709" lon="8.78387">
        <ele>660</ele>
        <time>2021-08-04T09:40:58.682Z</time>
      </trkpt>
      <trkpt lat="46.9771" lon="8.78387">
        <ele>660</ele>
        <time>2021-08-04T09:40:59.681Z</time>
      </trkpt>
      <trkpt lat="46.97712" lon="8.78386">
        <ele>661</ele>
        <time>2021-08-04T09:41:00.681Z</time>
      </trkpt>
      <trkpt lat="46.97713" lon="8.78384">
        <ele>661</ele>
        <time>2021-08-04T09:41:01.682Z</time>
      </trkpt>
      <trkpt lat="46.97714" lon="8.78382">
        <ele>661</ele>
        <time>2021-08-04T09:41:02.682Z</time>
      </trkpt>
      <trkpt lat="46.97714" lon="8.78379">
        <ele>661</ele>
        <time>2021-08-04T09:41:03.681Z</time>
      </trkpt>
      <trkpt lat="46.97714" lon="8.78378">
        <ele>661</ele>
        <time>2021-08-04T09:41:04.682Z</time>
      </trkpt>
      <trkpt lat="46.97714" lon="8.78376">
        <ele>661</ele>
        <time>2021-08-04T09:41:05.682Z</time>
      </trkpt>
      <trkpt lat="46.97714" lon="8.78374">
        <ele>660</ele>
        <time>2021-08-04T09:41:06.682Z</time>
      </trkpt>
      <trkpt lat="46.97714" lon="8.78373">
        <ele>660</ele>
        <time>2021-08-04T09:41:07.681Z</time>
      </trkpt>
      <trkpt lat="46.97714" lon="8.78372">
        <ele>660</ele>
        <time>2021-08-04T09:41:08.682Z</time>
      </trkpt>
      <trkpt lat="46.97714" lon="8.78371">
        <ele>659</ele>
        <time>2021-08-04T09:41:09.682Z</time>
      </trkpt>
      <trkpt lat="46.97714" lon="8.7837">
        <ele>659</ele>
        <time>2021-08-04T09:41:10.682Z</time>
      </trkpt>
      <trkpt lat="46.97714" lon="8.78369">
        <ele>659</ele>
        <time>2021-08-04T09:41:11.682Z</time>
      </trkpt>
      <trkpt lat="46.97713" lon="8.78368">
        <ele>659</ele>
        <time>2021-08-04T09:41:12.682Z</time>
      </trkpt>
      <trkpt lat="46.97713" lon="8.78366">
        <ele>659</ele>
        <time>2021-08-04T09:41:13.681Z</time>
      </trkpt>
      <trkpt lat="46.97713" lon="8.78365">
        <ele>659</ele>
        <time>2021-08-04T09:41:14.682Z</time>
      </trkpt>
      <trkpt lat="46.97713" lon="8.78364">
        <ele>659</ele>
        <time>2021-08-04T09:41:15.682Z</time>
      </trkpt>
      <trkpt lat="46.97713" lon="8.78363">
        <ele>660</ele>
        <time>2021-08-04T09:41:16.682Z</time>
      </trkpt>
      <trkpt lat="46.97712" lon="8.78361">
        <ele>660</ele>
        <time>2021-08-04T09:41:17.681Z</time>
      </trkpt>
      <trkpt lat="46.97712" lon="8.7836">
        <ele>660</ele>
        <time>2021-08-04T09:41:18.682Z</time>
      </trkpt>
      <trkpt lat="46.97712" lon="8.78359">
        <ele>660</ele>
        <time>2021-08-04T09:41:19.682Z</time>
      </trkpt>
      <trkpt lat="46.97712" lon="8.78357">
        <ele>660</ele>
        <time>2021-08-04T09:41:20.682Z</time>
      </trkpt>
      <trkpt lat="46.97712" lon="8.78356">
        <ele>660</ele>
        <time>2021-08-04T09:41:21.681Z</time>
      </trkpt>
      <trkpt lat="46.97712" lon="8.78356">
        <ele>660</ele>
        <time>2021-08-04T09:41:22.682Z</time>
      </trkpt>
      <trkpt lat="46.97712" lon="8.78355">
        <ele>660</ele>
        <time>2021-08-04T09:41:23.682Z</time>
      </trkpt>
      <trkpt lat="46.97711" lon="8.78353">
        <ele>660</ele>
        <time>2021-08-04T09:41:24.681Z</time>
      </trkpt>
      <trkpt lat="46.97711" lon="8.78351">
        <ele>660</ele>
        <time>2021-08-04T09:41:25.681Z</time>
      </trkpt>
      <trkpt lat="46.97711" lon="8.78349">
        <ele>660</ele>
        <time>2021-08-04T09:41:26.682Z</time>
      </trkpt>
      <trkpt lat="46.97711" lon="8.78347">
        <ele>660</ele>
        <time>2021-08-04T09:41:27.682Z</time>
      </trkpt>
      <trkpt lat="46.97711" lon="8.78345">
        <ele>660</ele>
        <time>2021-08-04T09:41:28.681Z</time>
      </trkpt>
      <trkpt lat="46.97711" lon="8.78343">
        <ele>660</ele>
        <time>2021-08-04T09:41:29.682Z</time>
      </trkpt>
      <trkpt lat="46.97712" lon="8.78342">
        <ele>660</ele>
        <time>2021-08-04T09:41:30.681Z</time>
      </trkpt>
      <trkpt lat="46.97712" lon="8.7834">
        <ele>660</ele>
        <time>2021-08-04T09:41:31.681Z</time>
      </trkpt>
      <trkpt lat="46.97711" lon="8.78339">
        <ele>660</ele>
        <time>2021-08-04T09:41:32.682Z</time>
      </trkpt>
      <trkpt lat="46.97711" lon="8.78337">
        <ele>659</ele>
        <time>2021-08-04T09:41:33.681Z</time>
      </trkpt>
      <trkpt lat="46.97711" lon="8.78335">
        <ele>659</ele>
        <time>2021-08-04T09:41:34.682Z</time>
      </trkpt>
      <trkpt lat="46.97711" lon="8.78333">
        <ele>659</ele>
        <time>2021-08-04T09:41:35.681Z</time>
      </trkpt>
      <trkpt lat="46.97711" lon="8.78331">
        <ele>659</ele>
        <time>2021-08-04T09:41:36.681Z</time>
      </trkpt>
      <trkpt lat="46.97711" lon="8.78329">
        <ele>660</ele>
        <time>2021-08-04T09:41:37.681Z</time>
      </trkpt>
      <trkpt lat="46.97711" lon="8.78328">
        <ele>660</ele>
        <time>2021-08-04T09:41:38.681Z</time>
      </trkpt>
      <trkpt lat="46.97711" lon="8.78327">
        <ele>660</ele>
        <time>2021-08-04T09:41:39.681Z</time>
      </trkpt>
      <trkpt lat="46.97711" lon="8.78325">
        <ele>660</ele>
        <time>2021-08-04T09:41:40.681Z</time>
      </trkpt>
      <trkpt lat="46.97711" lon="8.78323">
        <ele>660</ele>
        <time>2021-08-04T09:41:41.681Z</time>
      </trkpt>
      <trkpt lat="46.97711" lon="8.78322">
        <ele>660</ele>
        <time>2021-08-04T09:41:42.682Z</time>
      </trkpt>
      <trkpt lat="46.97711" lon="8.7832">
        <ele>660</ele>
        <time>2021-08-04T09:41:43.682Z</time>
      </trkpt>
      <trkpt lat="46.97711" lon="8.78319">
        <ele>661</ele>
        <time>2021-08-04T09:41:44.681Z</time>
      </trkpt>
      <trkpt lat="46.97711" lon="8.78317">
        <ele>661</ele>
        <time>2021-08-04T09:41:45.681Z</time>
      </trkpt>
      <trkpt lat="46.97711" lon="8.78315">
        <ele>661</ele>
        <time>2021-08-04T09:41:46.681Z</time>
      </trkpt>
      <trkpt lat="46.97711" lon="8.78314">
        <ele>661</ele>
        <time>2021-08-04T09:41:47.681Z</time>
      </trkpt>
      <trkpt lat="46.97711" lon="8.78312">
        <ele>661</ele>
        <time>2021-08-04T09:41:48.681Z</time>
      </trkpt>
      <trkpt lat="46.97711" lon="8.78311">
        <ele>661</ele>
        <time>2021-08-04T09:41:49.681Z</time>
      </trkpt>
      <trkpt lat="46.9771" lon="8.7831">
        <ele>661</ele>
        <time>2021-08-04T09:41:50.682Z</time>
      </trkpt>
      <trkpt lat="46.9771" lon="8.78309">
        <ele>661</ele>
        <time>2021-08-04T09:41:51.682Z</time>
      </trkpt>
      <trkpt lat="46.9771" lon="8.78307">
        <ele>660</ele>
        <time>2021-08-04T09:41:52.682Z</time>
      </trkpt>
      <trkpt lat="46.9771" lon="8.78305">
        <ele>660</ele>
        <time>2021-08-04T09:41:53.681Z</time>
      </trkpt>
      <trkpt lat="46.97709" lon="8.78303">
        <ele>660</ele>
        <time>2021-08-04T09:41:54.682Z</time>
      </trkpt>
      <trkpt lat="46.97709" lon="8.78302">
        <ele>660</ele>
        <time>2021-08-04T09:41:55.681Z</time>
      </trkpt>
      <trkpt lat="46.97709" lon="8.783">
        <ele>659</ele>
        <time>2021-08-04T09:41:56.682Z</time>
      </trkpt>
      <trkpt lat="46.97709" lon="8.78298">
        <ele>659</ele>
        <time>2021-08-04T09:41:57.682Z</time>
      </trkpt>
      <trkpt lat="46.97709" lon="8.78296">
        <ele>659</ele>
        <time>2021-08-04T09:41:58.681Z</time>
      </trkpt>
      <trkpt lat="46.97709" lon="8.78294">
        <ele>659</ele>
        <time>2021-08-04T09:41:59.682Z</time>
      </trkpt>
      <trkpt lat="46.97709" lon="8.78293">
        <ele>659</ele>
        <time>2021-08-04T09:42:00.682Z</time>
      </trkpt>
      <trkpt lat="46.97709" lon="8.78291">
        <ele>659</ele>
        <time>2021-08-04T09:42:01.682Z</time>
      </trkpt>
      <trkpt lat="46.97708" lon="8.78289">
        <ele>660</ele>
        <time>2021-08-04T09:42:02.681Z</time>
      </trkpt>
      <trkpt lat="46.97708" lon="8.78287">
        <ele>660</ele>
        <time>2021-08-04T09:42:03.682Z</time>
      </trkpt>
      <trkpt lat="46.97708" lon="8.78286">
        <ele>660</ele>
        <time>2021-08-04T09:42:04.682Z</time>
      </trkpt>
      <trkpt lat="46.97708" lon="8.78284">
        <ele>661</ele>
        <time>2021-08-04T09:42:05.682Z</time>
      </trkpt>
      <trkpt lat="46.97708" lon="8.78282">
        <ele>661</ele>
        <time>2021-08-04T09:42:06.682Z</time>
      </trkpt>
      <trkpt lat="46.97708" lon="8.78279">
        <ele>662</ele>
        <time>2021-08-04T09:42:07.682Z</time>
      </trkpt>
      <trkpt lat="46.97708" lon="8.78278">
        <ele>662</ele>
        <time>2021-08-04T09:42:08.682Z</time>
      </trkpt>
      <trkpt lat="46.97708" lon="8.78276">
        <ele>663</ele>
        <time>2021-08-04T09:42:09.681Z</time>
      </trkpt>
      <trkpt lat="46.97708" lon="8.78274">
        <ele>663</ele>
        <time>2021-08-04T09:42:10.682Z</time>
      </trkpt>
      <trkpt lat="46.97708" lon="8.78272">
        <ele>663</ele>
        <time>2021-08-04T09:42:11.681Z</time>
      </trkpt>
      <trkpt lat="46.97708" lon="8.7827">
        <ele>663</ele>
        <time>2021-08-04T09:42:12.682Z</time>
      </trkpt>
      <trkpt lat="46.97709" lon="8.78268">
        <ele>663</ele>
        <time>2021-08-04T09:42:13.681Z</time>
      </trkpt>
      <trkpt lat="46.97708" lon="8.78267">
        <ele>662</ele>
        <time>2021-08-04T09:42:14.682Z</time>
      </trkpt>
      <trkpt lat="46.97709" lon="8.78266">
        <ele>662</ele>
        <time>2021-08-04T09:42:15.681Z</time>
      </trkpt>
      <trkpt lat="46.9771" lon="8.78264">
        <ele>662</ele>
        <time>2021-08-04T09:42:16.682Z</time>
      </trkpt>
      <trkpt lat="46.9771" lon="8.78263">
        <ele>661</ele>
        <time>2021-08-04T09:42:17.682Z</time>
      </trkpt>
      <trkpt lat="46.9771" lon="8.78262">
        <ele>661</ele>
        <time>2021-08-04T09:42:18.681Z</time>
      </trkpt>
      <trkpt lat="46.97711" lon="8.7826">
        <ele>661</ele>
        <time>2021-08-04T09:42:19.682Z</time>
      </trkpt>
      <trkpt lat="46.97712" lon="8.78258">
        <ele>661</ele>
        <time>2021-08-04T09:42:20.681Z</time>
      </trkpt>
      <trkpt lat="46.97712" lon="8.78258">
        <ele>661</ele>
        <time>2021-08-04T09:42:21.682Z</time>
      </trkpt>
      <trkpt lat="46.97711" lon="8.78257">
        <ele>661</ele>
        <time>2021-08-04T09:42:22.681Z</time>
      </trkpt>
      <trkpt lat="46.97711" lon="8.78256">
        <ele>661</ele>
        <time>2021-08-04T09:42:23.682Z</time>
      </trkpt>
      <trkpt lat="46.9771" lon="8.78255">
        <ele>661</ele>
        <time>2021-08-04T09:42:24.682Z</time>
      </trkpt>
      <trkpt lat="46.9771" lon="8.78254">
        <ele>661</ele>
        <time>2021-08-04T09:42:25.681Z</time>
      </trkpt>
      <trkpt lat="46.97709" lon="8.78253">
        <ele>661</ele>
        <time>2021-08-04T09:42:26.682Z</time>
      </trkpt>
      <trkpt lat="46.97709" lon="8.78252">
        <ele>661</ele>
        <time>2021-08-04T09:42:27.681Z</time>
      </trkpt>
      <trkpt lat="46.97708" lon="8.7825">
        <ele>661</ele>
        <time>2021-08-04T09:42:28.681Z</time>
      </trkpt>
      <trkpt lat="46.97708" lon="8.78248">
        <ele>660</ele>
        <time>2021-08-04T09:42:29.682Z</time>
      </trkpt>
      <trkpt lat="46.97707" lon="8.78246">
        <ele>660</ele>
        <time>2021-08-04T09:42:30.682Z</time>
      </trkpt>
      <trkpt lat="46.97707" lon="8.78244">
        <ele>660</ele>
        <time>2021-08-04T09:42:31.682Z</time>
      </trkpt>
      <trkpt lat="46.97706" lon="8.78242">
        <ele>659</ele>
        <time>2021-08-04T09:42:32.681Z</time>
      </trkpt>
      <trkpt lat="46.97706" lon="8.78239">
        <ele>659</ele>
        <time>2021-08-04T09:42:33.682Z</time>
      </trkpt>
      <trkpt lat="46.97706" lon="8.78236">
        <ele>659</ele>
        <time>2021-08-04T09:42:34.682Z</time>
      </trkpt>
      <trkpt lat="46.97705" lon="8.78234">
        <ele>659</ele>
        <time>2021-08-04T09:42:35.682Z</time>
      </trkpt>
      <trkpt lat="46.97704" lon="8.78232">
        <ele>658</ele>
        <time>2021-08-04T09:42:36.681Z</time>
      </trkpt>
      <trkpt lat="46.97704" lon="8.7823">
        <ele>658</ele>
        <time>2021-08-04T09:42:37.682Z</time>
      </trkpt>
      <trkpt lat="46.97703" lon="8.78228">
        <ele>657</ele>
        <time>2021-08-04T09:42:38.682Z</time>
      </trkpt>
      <trkpt lat="46.97703" lon="8.78226">
        <ele>656</ele>
        <time>2021-08-04T09:42:39.681Z</time>
      </trkpt>
      <trkpt lat="46.97703" lon="8.78224">
        <ele>656</ele>
        <time>2021-08-04T09:42:40.681Z</time>
      </trkpt>
      <trkpt lat="46.97703" lon="8.78223">
        <ele>655</ele>
        <time>2021-08-04T09:42:41.682Z</time>
      </trkpt>
      <trkpt lat="46.97703" lon="8.78221">
        <ele>654</ele>
        <time>2021-08-04T09:42:42.682Z</time>
      </trkpt>
      <trkpt lat="46.97703" lon="8.7822">
        <ele>654</ele>
        <time>2021-08-04T09:42:43.682Z</time>
      </trkpt>
      <trkpt lat="46.97703" lon="8.78218">
        <ele>653</ele>
        <time>2021-08-04T09:42:44.682Z</time>
      </trkpt>
      <trkpt lat="46.97703" lon="8.78217">
        <ele>653</ele>
        <time>2021-08-04T09:42:45.682Z</time>
      </trkpt>
      <trkpt lat="46.97703" lon="8.78216">
        <ele>653</ele>
        <time>2021-08-04T09:42:46.682Z</time>
      </trkpt>
      <trkpt lat="46.97702" lon="8.78214">
        <ele>653</ele>
        <time>2021-08-04T09:42:47.681Z</time>
      </trkpt>
      <trkpt lat="46.97702" lon="8.78213">
        <ele>652</ele>
        <time>2021-08-04T09:42:48.681Z</time>
      </trkpt>
      <trkpt lat="46.97701" lon="8.78213">
        <ele>653</ele>
        <time>2021-08-04T09:42:49.681Z</time>
      </trkpt>
      <trkpt lat="46.97701" lon="8.78211">
        <ele>653</ele>
        <time>2021-08-04T09:42:50.682Z</time>
      </trkpt>
      <trkpt lat="46.97701" lon="8.78209">
        <ele>653</ele>
        <time>2021-08-04T09:42:51.682Z</time>
      </trkpt>
      <trkpt lat="46.97701" lon="8.78208">
        <ele>653</ele>
        <time>2021-08-04T09:42:52.682Z</time>
      </trkpt>
      <trkpt lat="46.977" lon="8.78206">
        <ele>654</ele>
        <time>2021-08-04T09:42:53.682Z</time>
      </trkpt>
      <trkpt lat="46.977" lon="8.78204">
        <ele>654</ele>
        <time>2021-08-04T09:42:54.682Z</time>
      </trkpt>
      <trkpt lat="46.977" lon="8.78203">
        <ele>655</ele>
        <time>2021-08-04T09:42:55.681Z</time>
      </trkpt>
      <trkpt lat="46.97699" lon="8.78201">
        <ele>656</ele>
        <time>2021-08-04T09:42:56.681Z</time>
      </trkpt>
      <trkpt lat="46.97697" lon="8.78199">
        <ele>656</ele>
        <time>2021-08-04T09:42:57.681Z</time>
      </trkpt>
      <trkpt lat="46.97696" lon="8.78198">
        <ele>657</ele>
        <time>2021-08-04T09:42:58.682Z</time>
      </trkpt>
      <trkpt lat="46.97695" lon="8.78196">
        <ele>657</ele>
        <time>2021-08-04T09:42:59.682Z</time>
      </trkpt>
      <trkpt lat="46.97694" lon="8.78194">
        <ele>658</ele>
        <time>2021-08-04T09:43:00.682Z</time>
      </trkpt>
      <trkpt lat="46.97693" lon="8.78191">
        <ele>659</ele>
        <time>2021-08-04T09:43:01.681Z</time>
      </trkpt>
      <trkpt lat="46.97692" lon="8.78189">
        <ele>659</ele>
        <time>2021-08-04T09:43:02.682Z</time>
      </trkpt>
      <trkpt lat="46.97692" lon="8.78187">
        <ele>660</ele>
        <time>2021-08-04T09:43:03.682Z</time>
      </trkpt>
      <trkpt lat="46.97691" lon="8.78185">
        <ele>660</ele>
        <time>2021-08-04T09:43:04.681Z</time>
      </trkpt>
      <trkpt lat="46.9769" lon="8.78183">
        <ele>660</ele>
        <time>2021-08-04T09:43:05.682Z</time>
      </trkpt>
      <trkpt lat="46.9769" lon="8.78181">
        <ele>661</ele>
        <time>2021-08-04T09:43:06.681Z</time>
      </trkpt>
      <trkpt lat="46.97689" lon="8.7818">
        <ele>660</ele>
        <time>2021-08-04T09:43:07.682Z</time>
      </trkpt>
      <trkpt lat="46.97689" lon="8.78178">
        <ele>660</ele>
        <time>2021-08-04T09:43:08.682Z</time>
      </trkpt>
      <trkpt lat="46.97688" lon="8.78176">
        <ele>659</ele>
        <time>2021-08-04T09:43:09.682Z</time>
      </trkpt>
      <trkpt lat="46.97688" lon="8.78175">
        <ele>659</ele>
        <time>2021-08-04T09:43:10.682Z</time>
      </trkpt>
      <trkpt lat="46.97688" lon="8.78174">
        <ele>659</ele>
        <time>2021-08-04T09:43:11.681Z</time>
      </trkpt>
      <trkpt lat="46.97688" lon="8.78171">
        <ele>658</ele>
        <time>2021-08-04T09:43:12.681Z</time>
      </trkpt>
      <trkpt lat="46.97687" lon="8.78169">
        <ele>658</ele>
        <time>2021-08-04T09:43:13.681Z</time>
      </trkpt>
      <trkpt lat="46.97687" lon="8.78167">
        <ele>657</ele>
        <time>2021-08-04T09:43:14.682Z</time>
      </trkpt>
      <trkpt lat="46.97686" lon="8.78165">
        <ele>656</ele>
        <time>2021-08-04T09:43:15.681Z</time>
      </trkpt>
      <trkpt lat="46.97686" lon="8.78164">
        <ele>656</ele>
        <time>2021-08-04T09:43:16.682Z</time>
      </trkpt>
      <trkpt lat="46.97685" lon="8.78163">
        <ele>656</ele>
        <time>2021-08-04T09:43:17.682Z</time>
      </trkpt>
      <trkpt lat="46.97685" lon="8.78162">
        <ele>656</ele>
        <time>2021-08-04T09:43:18.682Z</time>
      </trkpt>
      <trkpt lat="46.97684" lon="8.78161">
        <ele>656</ele>
        <time>2021-08-04T09:43:19.681Z</time>
      </trkpt>
      <trkpt lat="46.97684" lon="8.78159">
        <ele>656</ele>
        <time>2021-08-04T09:43:20.681Z</time>
      </trkpt>
      <trkpt lat="46.97682" lon="8.78156">
        <ele>657</ele>
        <time>2021-08-04T09:43:21.682Z</time>
      </trkpt>
      <trkpt lat="46.97681" lon="8.78155">
        <ele>658</ele>
        <time>2021-08-04T09:43:22.682Z</time>
      </trkpt>
      <trkpt lat="46.9768" lon="8.78153">
        <ele>658</ele>
        <time>2021-08-04T09:43:23.681Z</time>
      </trkpt>
      <trkpt lat="46.97679" lon="8.78151">
        <ele>659</ele>
        <time>2021-08-04T09:43:24.682Z</time>
      </trkpt>
      <trkpt lat="46.97678" lon="8.7815">
        <ele>660</ele>
        <time>2021-08-04T09:43:25.681Z</time>
      </trkpt>
      <trkpt lat="46.97678" lon="8.78149">
        <ele>661</ele>
        <time>2021-08-04T09:43:26.682Z</time>
      </trkpt>
      <trkpt lat="46.97677" lon="8.78147">
        <ele>662</ele>
        <time>2021-08-04T09:43:27.682Z</time>
      </trkpt>
      <trkpt lat="46.97677" lon="8.78146">
        <ele>662</ele>
        <time>2021-08-04T09:43:28.681Z</time>
      </trkpt>
      <trkpt lat="46.97677" lon="8.78145">
        <ele>663</ele>
        <time>2021-08-04T09:43:29.681Z</time>
      </trkpt>
      <trkpt lat="46.97677" lon="8.78144">
        <ele>664</ele>
        <time>2021-08-04T09:43:30.682Z</time>
      </trkpt>
      <trkpt lat="46.97676" lon="8.78143">
        <ele>664</ele>
        <time>2021-08-04T09:43:31.682Z</time>
      </trkpt>
      <trkpt lat="46.97676" lon="8.78142">
        <ele>665</ele>
        <time>2021-08-04T09:43:32.682Z</time>
      </trkpt>
      <trkpt lat="46.97675" lon="8.7814">
        <ele>666</ele>
        <time>2021-08-04T09:43:33.682Z</time>
      </trkpt>
      <trkpt lat="46.97674" lon="8.78139">
        <ele>667</ele>
        <time>2021-08-04T09:43:34.681Z</time>
      </trkpt>
      <trkpt lat="46.97674" lon="8.78137">
        <ele>667</ele>
        <time>2021-08-04T09:43:35.682Z</time>
      </trkpt>
      <trkpt lat="46.97673" lon="8.78135">
        <ele>668</ele>
        <time>2021-08-04T09:43:36.682Z</time>
      </trkpt>
      <trkpt lat="46.97672" lon="8.78134">
        <ele>669</ele>
        <time>2021-08-04T09:43:40.830Z</time>
      </trkpt>
      <trkpt lat="46.97672" lon="8.78132">
        <ele>669</ele>
        <time>2021-08-04T09:43:41.831Z</time>
      </trkpt>
      <trkpt lat="46.97671" lon="8.78131">
        <ele>670</ele>
        <time>2021-08-04T09:43:42.830Z</time>
      </trkpt>
      <trkpt lat="46.9767" lon="8.78129">
        <ele>671</ele>
        <time>2021-08-04T09:43:43.831Z</time>
      </trkpt>
      <trkpt lat="46.97669" lon="8.78128">
        <ele>671</ele>
        <time>2021-08-04T09:43:44.831Z</time>
      </trkpt>
      <trkpt lat="46.97668" lon="8.78125">
        <ele>672</ele>
        <time>2021-08-04T09:43:45.830Z</time>
      </trkpt>
      <trkpt lat="46.97669" lon="8.78124">
        <ele>672</ele>
        <time>2021-08-04T09:43:46.831Z</time>
      </trkpt>
      <trkpt lat="46.97669" lon="8.78123">
        <ele>673</ele>
        <time>2021-08-04T09:43:47.830Z</time>
      </trkpt>
      <trkpt lat="46.97669" lon="8.78122">
        <ele>673</ele>
        <time>2021-08-04T09:43:48.830Z</time>
      </trkpt>
      <trkpt lat="46.97668" lon="8.78122">
        <ele>673</ele>
        <time>2021-08-04T09:43:49.831Z</time>
      </trkpt>
      <trkpt lat="46.97668" lon="8.78121">
        <ele>673</ele>
        <time>2021-08-04T09:43:50.831Z</time>
      </trkpt>
      <trkpt lat="46.97667" lon="8.7812">
        <ele>674</ele>
        <time>2021-08-04T09:43:51.831Z</time>
      </trkpt>
      <trkpt lat="46.97667" lon="8.78118">
        <ele>674</ele>
        <time>2021-08-04T09:43:52.831Z</time>
      </trkpt>
      <trkpt lat="46.97666" lon="8.78118">
        <ele>674</ele>
        <time>2021-08-04T09:43:53.831Z</time>
      </trkpt>
      <trkpt lat="46.97665" lon="8.78115">
        <ele>674</ele>
        <time>2021-08-04T09:43:54.831Z</time>
      </trkpt>
      <trkpt lat="46.97664" lon="8.78113">
        <ele>675</ele>
        <time>2021-08-04T09:43:55.830Z</time>
      </trkpt>
      <trkpt lat="46.97663" lon="8.7811">
        <ele>675</ele>
        <time>2021-08-04T09:43:56.831Z</time>
      </trkpt>
      <trkpt lat="46.97662" lon="8.78109">
        <ele>675</ele>
        <time>2021-08-04T09:43:57.831Z</time>
      </trkpt>
      <trkpt lat="46.97662" lon="8.78108">
        <ele>675</ele>
        <time>2021-08-04T09:43:58.830Z</time>
      </trkpt>
      <trkpt lat="46.97662" lon="8.78106">
        <ele>675</ele>
        <time>2021-08-04T09:43:59.832Z</time>
      </trkpt>
      <trkpt lat="46.97662" lon="8.78106">
        <ele>676</ele>
        <time>2021-08-04T09:44:00.832Z</time>
      </trkpt>
      <trkpt lat="46.97661" lon="8.78104">
        <ele>676</ele>
        <time>2021-08-04T09:44:01.831Z</time>
      </trkpt>
      <trkpt lat="46.9766" lon="8.78103">
        <ele>676</ele>
        <time>2021-08-04T09:44:02.832Z</time>
      </trkpt>
      <trkpt lat="46.9766" lon="8.78101">
        <ele>676</ele>
        <time>2021-08-04T09:44:03.832Z</time>
      </trkpt>
      <trkpt lat="46.9766" lon="8.781">
        <ele>676</ele>
        <time>2021-08-04T09:44:04.832Z</time>
      </trkpt>
      <trkpt lat="46.97659" lon="8.78098">
        <ele>677</ele>
        <time>2021-08-04T09:44:05.832Z</time>
      </trkpt>
      <trkpt lat="46.97659" lon="8.78097">
        <ele>677</ele>
        <time>2021-08-04T09:44:06.831Z</time>
      </trkpt>
      <trkpt lat="46.9766" lon="8.78096">
        <ele>677</ele>
        <time>2021-08-04T09:44:12.913Z</time>
      </trkpt>
      <trkpt lat="46.97659" lon="8.78096">
        <ele>677</ele>
        <time>2021-08-04T09:44:13.913Z</time>
      </trkpt>
      <trkpt lat="46.97659" lon="8.78094">
        <ele>677</ele>
        <time>2021-08-04T09:44:14.913Z</time>
      </trkpt>
      <trkpt lat="46.97658" lon="8.78093">
        <ele>677</ele>
        <time>2021-08-04T09:44:15.912Z</time>
      </trkpt>
      <trkpt lat="46.97658" lon="8.78091">
        <ele>677</ele>
        <time>2021-08-04T09:44:16.913Z</time>
      </trkpt>
      <trkpt lat="46.97657" lon="8.7809">
        <ele>677</ele>
        <time>2021-08-04T09:44:17.913Z</time>
      </trkpt>
      <trkpt lat="46.97657" lon="8.78089">
        <ele>676</ele>
        <time>2021-08-04T09:44:18.913Z</time>
      </trkpt>
      <trkpt lat="46.97656" lon="8.78087">
        <ele>676</ele>
        <time>2021-08-04T09:44:19.913Z</time>
      </trkpt>
      <trkpt lat="46.97655" lon="8.78086">
        <ele>676</ele>
        <time>2021-08-04T09:44:20.913Z</time>
      </trkpt>
      <trkpt lat="46.97655" lon="8.78084">
        <ele>675</ele>
        <time>2021-08-04T09:44:21.913Z</time>
      </trkpt>
      <trkpt lat="46.97654" lon="8.78082">
        <ele>675</ele>
        <time>2021-08-04T09:44:22.913Z</time>
      </trkpt>
      <trkpt lat="46.97654" lon="8.78081">
        <ele>675</ele>
        <time>2021-08-04T09:44:23.912Z</time>
      </trkpt>
      <trkpt lat="46.97653" lon="8.78081">
        <ele>675</ele>
        <time>2021-08-04T09:44:24.913Z</time>
      </trkpt>
      <trkpt lat="46.97653" lon="8.7808">
        <ele>674</ele>
        <time>2021-08-04T09:44:25.913Z</time>
      </trkpt>
      <trkpt lat="46.97653" lon="8.7808">
        <ele>674</ele>
        <time>2021-08-04T09:44:26.913Z</time>
      </trkpt>
      <trkpt lat="46.97653" lon="8.78079">
        <ele>674</ele>
        <time>2021-08-04T09:44:27.912Z</time>
      </trkpt>
      <trkpt lat="46.97653" lon="8.78078">
        <ele>674</ele>
        <time>2021-08-04T09:44:28.913Z</time>
      </trkpt>
      <trkpt lat="46.97653" lon="8.78078">
        <ele>673</ele>
        <time>2021-08-04T09:44:29.913Z</time>
      </trkpt>
      <trkpt lat="46.97653" lon="8.78077">
        <ele>673</ele>
        <time>2021-08-04T09:44:30.912Z</time>
      </trkpt>
      <trkpt lat="46.97653" lon="8.78077">
        <ele>672</ele>
        <time>2021-08-04T09:44:31.912Z</time>
      </trkpt>
      <trkpt lat="46.97652" lon="8.78076">
        <ele>672</ele>
        <time>2021-08-04T09:44:32.913Z</time>
      </trkpt>
      <trkpt lat="46.97651" lon="8.78076">
        <ele>672</ele>
        <time>2021-08-04T09:44:33.913Z</time>
      </trkpt>
      <trkpt lat="46.9765" lon="8.78075">
        <ele>671</ele>
        <time>2021-08-04T09:44:44.939Z</time>
      </trkpt>
      <trkpt lat="46.9765" lon="8.78073">
        <ele>671</ele>
        <time>2021-08-04T09:44:45.940Z</time>
      </trkpt>
      <trkpt lat="46.97651" lon="8.78071">
        <ele>670</ele>
        <time>2021-08-04T09:44:46.939Z</time>
      </trkpt>
      <trkpt lat="46.97651" lon="8.78069">
        <ele>670</ele>
        <time>2021-08-04T09:44:47.940Z</time>
      </trkpt>
      <trkpt lat="46.97651" lon="8.78067">
        <ele>670</ele>
        <time>2021-08-04T09:44:56.077Z</time>
      </trkpt>
      <trkpt lat="46.97651" lon="8.78065">
        <ele>670</ele>
        <time>2021-08-04T09:44:57.077Z</time>
      </trkpt>
      <trkpt lat="46.97652" lon="8.78062">
        <ele>669</ele>
        <time>2021-08-04T09:44:58.077Z</time>
      </trkpt>
      <trkpt lat="46.97652" lon="8.7806">
        <ele>669</ele>
        <time>2021-08-04T09:44:59.077Z</time>
      </trkpt>
      <trkpt lat="46.97651" lon="8.78059">
        <ele>669</ele>
        <time>2021-08-04T09:45:00.076Z</time>
      </trkpt>
      <trkpt lat="46.97649" lon="8.78058">
        <ele>668</ele>
        <time>2021-08-04T09:45:01.077Z</time>
      </trkpt>
      <trkpt lat="46.97648" lon="8.78058">
        <ele>667</ele>
        <time>2021-08-04T09:45:02.077Z</time>
      </trkpt>
      <trkpt lat="46.97647" lon="8.78057">
        <ele>666</ele>
        <time>2021-08-04T09:45:03.077Z</time>
      </trkpt>
      <trkpt lat="46.97647" lon="8.78057">
        <ele>665</ele>
        <time>2021-08-04T09:45:04.077Z</time>
      </trkpt>
      <trkpt lat="46.97647" lon="8.78056">
        <ele>664</ele>
        <time>2021-08-04T09:45:05.076Z</time>
      </trkpt>
      <trkpt lat="46.97646" lon="8.78054">
        <ele>663</ele>
        <time>2021-08-04T09:45:06.077Z</time>
      </trkpt>
      <trkpt lat="46.97646" lon="8.78053">
        <ele>662</ele>
        <time>2021-08-04T09:45:07.076Z</time>
      </trkpt>
      <trkpt lat="46.97645" lon="8.78052">
        <ele>662</ele>
        <time>2021-08-04T09:45:08.077Z</time>
      </trkpt>
      <trkpt lat="46.97644" lon="8.78051">
        <ele>661</ele>
        <time>2021-08-04T09:45:09.077Z</time>
      </trkpt>
      <trkpt lat="46.97644" lon="8.7805">
        <ele>661</ele>
        <time>2021-08-04T09:45:10.077Z</time>
      </trkpt>
      <trkpt lat="46.97643" lon="8.78048">
        <ele>660</ele>
        <time>2021-08-04T09:45:11.077Z</time>
      </trkpt>
      <trkpt lat="46.97642" lon="8.78047">
        <ele>660</ele>
        <time>2021-08-04T09:45:12.076Z</time>
      </trkpt>
      <trkpt lat="46.97642" lon="8.78046">
        <ele>660</ele>
        <time>2021-08-04T09:45:13.077Z</time>
      </trkpt>
      <trkpt lat="46.97641" lon="8.78045">
        <ele>659</ele>
        <time>2021-08-04T09:45:14.077Z</time>
      </trkpt>
      <trkpt lat="46.97641" lon="8.78044">
        <ele>659</ele>
        <time>2021-08-04T09:45:15.077Z</time>
      </trkpt>
      <trkpt lat="46.97641" lon="8.78041">
        <ele>659</ele>
        <time>2021-08-04T09:45:16.077Z</time>
      </trkpt>
      <trkpt lat="46.97641" lon="8.78038">
        <ele>659</ele>
        <time>2021-08-04T09:45:17.076Z</time>
      </trkpt>
      <trkpt lat="46.97641" lon="8.78036">
        <ele>659</ele>
        <time>2021-08-04T09:45:18.076Z</time>
      </trkpt>
      <trkpt lat="46.9764" lon="8.78034">
        <ele>658</ele>
        <time>2021-08-04T09:45:19.077Z</time>
      </trkpt>
      <trkpt lat="46.9764" lon="8.78032">
        <ele>658</ele>
        <time>2021-08-04T09:45:20.076Z</time>
      </trkpt>
      <trkpt lat="46.97639" lon="8.78031">
        <ele>658</ele>
        <time>2021-08-04T09:45:21.077Z</time>
      </trkpt>
      <trkpt lat="46.97637" lon="8.7803">
        <ele>658</ele>
        <time>2021-08-04T09:45:22.077Z</time>
      </trkpt>
      <trkpt lat="46.97637" lon="8.78029">
        <ele>658</ele>
        <time>2021-08-04T09:45:23.076Z</time>
      </trkpt>
      <trkpt lat="46.97636" lon="8.78028">
        <ele>659</ele>
        <time>2021-08-04T09:45:24.077Z</time>
      </trkpt>
      <trkpt lat="46.97636" lon="8.78027">
        <ele>659</ele>
        <time>2021-08-04T09:45:25.077Z</time>
      </trkpt>
      <trkpt lat="46.97635" lon="8.78026">
        <ele>659</ele>
        <time>2021-08-04T09:45:26.077Z</time>
      </trkpt>
      <trkpt lat="46.97635" lon="8.78025">
        <ele>660</ele>
        <time>2021-08-04T09:45:27.077Z</time>
      </trkpt>
      <trkpt lat="46.97635" lon="8.78024">
        <ele>660</ele>
        <time>2021-08-04T09:45:28.077Z</time>
      </trkpt>
      <trkpt lat="46.97634" lon="8.78022">
        <ele>661</ele>
        <time>2021-08-04T09:45:29.077Z</time>
      </trkpt>
      <trkpt lat="46.97633" lon="8.78021">
        <ele>661</ele>
        <time>2021-08-04T09:45:30.076Z</time>
      </trkpt>
      <trkpt lat="46.97632" lon="8.78019">
        <ele>661</ele>
        <time>2021-08-04T09:45:31.076Z</time>
      </trkpt>
      <trkpt lat="46.97632" lon="8.78018">
        <ele>661</ele>
        <time>2021-08-04T09:45:32.077Z</time>
      </trkpt>
      <trkpt lat="46.97631" lon="8.78016">
        <ele>662</ele>
        <time>2021-08-04T09:45:33.077Z</time>
      </trkpt>
      <trkpt lat="46.9763" lon="8.78015">
        <ele>662</ele>
        <time>2021-08-04T09:45:34.076Z</time>
      </trkpt>
      <trkpt lat="46.9763" lon="8.78014">
        <ele>662</ele>
        <time>2021-08-04T09:45:35.077Z</time>
      </trkpt>
      <trkpt lat="46.9763" lon="8.78012">
        <ele>663</ele>
        <time>2021-08-04T09:45:36.077Z</time>
      </trkpt>
      <trkpt lat="46.97629" lon="8.78011">
        <ele>663</ele>
        <time>2021-08-04T09:45:37.076Z</time>
      </trkpt>
      <trkpt lat="46.97629" lon="8.78009">
        <ele>662</ele>
        <time>2021-08-04T09:45:38.077Z</time>
      </trkpt>
      <trkpt lat="46.97628" lon="8.78008">
        <ele>662</ele>
        <time>2021-08-04T09:45:39.077Z</time>
      </trkpt>
      <trkpt lat="46.97628" lon="8.78007">
        <ele>662</ele>
        <time>2021-08-04T09:45:40.076Z</time>
      </trkpt>
      <trkpt lat="46.97628" lon="8.78006">
        <ele>662</ele>
        <time>2021-08-04T09:45:41.076Z</time>
      </trkpt>
      <trkpt lat="46.97627" lon="8.78004">
        <ele>662</ele>
        <time>2021-08-04T09:45:42.076Z</time>
      </trkpt>
      <trkpt lat="46.97627" lon="8.78003">
        <ele>662</ele>
        <time>2021-08-04T09:45:43.076Z</time>
      </trkpt>
      <trkpt lat="46.97627" lon="8.78002">
        <ele>662</ele>
        <time>2021-08-04T09:45:44.076Z</time>
      </trkpt>
      <trkpt lat="46.97626" lon="8.78001">
        <ele>662</ele>
        <time>2021-08-04T09:45:45.077Z</time>
      </trkpt>
      <trkpt lat="46.97626" lon="8.77999">
        <ele>661</ele>
        <time>2021-08-04T09:45:46.076Z</time>
      </trkpt>
      <trkpt lat="46.97625" lon="8.77997">
        <ele>661</ele>
        <time>2021-08-04T09:45:47.077Z</time>
      </trkpt>
      <trkpt lat="46.97624" lon="8.77995">
        <ele>661</ele>
        <time>2021-08-04T09:45:48.077Z</time>
      </trkpt>
      <trkpt lat="46.97623" lon="8.77993">
        <ele>661</ele>
        <time>2021-08-04T09:45:49.077Z</time>
      </trkpt>
      <trkpt lat="46.97622" lon="8.77991">
        <ele>661</ele>
        <time>2021-08-04T09:45:50.076Z</time>
      </trkpt>
      <trkpt lat="46.97621" lon="8.77988">
        <ele>661</ele>
        <time>2021-08-04T09:45:51.076Z</time>
      </trkpt>
      <trkpt lat="46.97621" lon="8.77987">
        <ele>661</ele>
        <time>2021-08-04T09:45:52.077Z</time>
      </trkpt>
      <trkpt lat="46.9762" lon="8.77985">
        <ele>661</ele>
        <time>2021-08-04T09:45:53.077Z</time>
      </trkpt>
      <trkpt lat="46.97619" lon="8.77983">
        <ele>661</ele>
        <time>2021-08-04T09:45:54.077Z</time>
      </trkpt>
      <trkpt lat="46.97619" lon="8.77981">
        <ele>661</ele>
        <time>2021-08-04T09:45:55.077Z</time>
      </trkpt>
      <trkpt lat="46.97618" lon="8.7798">
        <ele>660</ele>
        <time>2021-08-04T09:45:56.076Z</time>
      </trkpt>
      <trkpt lat="46.97618" lon="8.77978">
        <ele>660</ele>
        <time>2021-08-04T09:45:57.076Z</time>
      </trkpt>
      <trkpt lat="46.97618" lon="8.77977">
        <ele>660</ele>
        <time>2021-08-04T09:45:58.077Z</time>
      </trkpt>
      <trkpt lat="46.97617" lon="8.77975">
        <ele>660</ele>
        <time>2021-08-04T09:45:59.076Z</time>
      </trkpt>
      <trkpt lat="46.97617" lon="8.77973">
        <ele>659</ele>
        <time>2021-08-04T09:46:00.076Z</time>
      </trkpt>
      <trkpt lat="46.97617" lon="8.77972">
        <ele>659</ele>
        <time>2021-08-04T09:46:01.076Z</time>
      </trkpt>
      <trkpt lat="46.97617" lon="8.77971">
        <ele>659</ele>
        <time>2021-08-04T09:46:02.077Z</time>
      </trkpt>
      <trkpt lat="46.97616" lon="8.7797">
        <ele>659</ele>
        <time>2021-08-04T09:46:03.077Z</time>
      </trkpt>
      <trkpt lat="46.97615" lon="8.77968">
        <ele>659</ele>
        <time>2021-08-04T09:46:04.076Z</time>
      </trkpt>
      <trkpt lat="46.97614" lon="8.77967">
        <ele>660</ele>
        <time>2021-08-04T09:46:05.077Z</time>
      </trkpt>
      <trkpt lat="46.97613" lon="8.77965">
        <ele>660</ele>
        <time>2021-08-04T09:46:06.077Z</time>
      </trkpt>
      <trkpt lat="46.97611" lon="8.77963">
        <ele>660</ele>
        <time>2021-08-04T09:46:07.077Z</time>
      </trkpt>
      <trkpt lat="46.9761" lon="8.77961">
        <ele>660</ele>
        <time>2021-08-04T09:46:08.077Z</time>
      </trkpt>
      <trkpt lat="46.97609" lon="8.77959">
        <ele>660</ele>
        <time>2021-08-04T09:46:09.077Z</time>
      </trkpt>
      <trkpt lat="46.97609" lon="8.77956">
        <ele>660</ele>
        <time>2021-08-04T09:46:10.077Z</time>
      </trkpt>
      <trkpt lat="46.97608" lon="8.77955">
        <ele>659</ele>
        <time>2021-08-04T09:46:11.077Z</time>
      </trkpt>
      <trkpt lat="46.97607" lon="8.77954">
        <ele>660</ele>
        <time>2021-08-04T09:46:12.076Z</time>
      </trkpt>
      <trkpt lat="46.97607" lon="8.77953">
        <ele>660</ele>
        <time>2021-08-04T09:46:13.077Z</time>
      </trkpt>
      <trkpt lat="46.97606" lon="8.77952">
        <ele>660</ele>
        <time>2021-08-04T09:46:14.077Z</time>
      </trkpt>
      <trkpt lat="46.97606" lon="8.7795">
        <ele>660</ele>
        <time>2021-08-04T09:46:15.077Z</time>
      </trkpt>
      <trkpt lat="46.97606" lon="8.77949">
        <ele>661</ele>
        <time>2021-08-04T09:46:16.076Z</time>
      </trkpt>
      <trkpt lat="46.97605" lon="8.77947">
        <ele>661</ele>
        <time>2021-08-04T09:46:17.076Z</time>
      </trkpt>
      <trkpt lat="46.97605" lon="8.77946">
        <ele>661</ele>
        <time>2021-08-04T09:46:18.077Z</time>
      </trkpt>
      <trkpt lat="46.97604" lon="8.77944">
        <ele>660</ele>
        <time>2021-08-04T09:46:19.077Z</time>
      </trkpt>
      <trkpt lat="46.97603" lon="8.77943">
        <ele>660</ele>
        <time>2021-08-04T09:46:20.076Z</time>
      </trkpt>
      <trkpt lat="46.97603" lon="8.77942">
        <ele>660</ele>
        <time>2021-08-04T09:46:21.077Z</time>
      </trkpt>
      <trkpt lat="46.97602" lon="8.7794">
        <ele>659</ele>
        <time>2021-08-04T09:46:22.077Z</time>
      </trkpt>
      <trkpt lat="46.97601" lon="8.77939">
        <ele>659</ele>
        <time>2021-08-04T09:46:23.077Z</time>
      </trkpt>
      <trkpt lat="46.97601" lon="8.77937">
        <ele>658</ele>
        <time>2021-08-04T09:46:24.077Z</time>
      </trkpt>
      <trkpt lat="46.976" lon="8.77935">
        <ele>658</ele>
        <time>2021-08-04T09:46:25.077Z</time>
      </trkpt>
      <trkpt lat="46.976" lon="8.77934">
        <ele>658</ele>
        <time>2021-08-04T09:46:26.077Z</time>
      </trkpt>
      <trkpt lat="46.97599" lon="8.77932">
        <ele>658</ele>
        <time>2021-08-04T09:46:27.076Z</time>
      </trkpt>
      <trkpt lat="46.97599" lon="8.77931">
        <ele>658</ele>
        <time>2021-08-04T09:46:28.077Z</time>
      </trkpt>
      <trkpt lat="46.97599" lon="8.7793">
        <ele>658</ele>
        <time>2021-08-04T09:46:29.076Z</time>
      </trkpt>
      <trkpt lat="46.97599" lon="8.77928">
        <ele>658</ele>
        <time>2021-08-04T09:46:30.077Z</time>
      </trkpt>
      <trkpt lat="46.97598" lon="8.77927">
        <ele>658</ele>
        <time>2021-08-04T09:46:31.076Z</time>
      </trkpt>
      <trkpt lat="46.97597" lon="8.77925">
        <ele>658</ele>
        <time>2021-08-04T09:46:32.077Z</time>
      </trkpt>
      <trkpt lat="46.97597" lon="8.77924">
        <ele>657</ele>
        <time>2021-08-04T09:46:33.077Z</time>
      </trkpt>
      <trkpt lat="46.97596" lon="8.77922">
        <ele>657</ele>
        <time>2021-08-04T09:46:34.077Z</time>
      </trkpt>
      <trkpt lat="46.97595" lon="8.7792">
        <ele>658</ele>
        <time>2021-08-04T09:46:35.077Z</time>
      </trkpt>
      <trkpt lat="46.97594" lon="8.77919">
        <ele>658</ele>
        <time>2021-08-04T09:46:36.076Z</time>
      </trkpt>
      <trkpt lat="46.97593" lon="8.77917">
        <ele>658</ele>
        <time>2021-08-04T09:46:37.077Z</time>
      </trkpt>
      <trkpt lat="46.97593" lon="8.77916">
        <ele>658</ele>
        <time>2021-08-04T09:46:38.077Z</time>
      </trkpt>
      <trkpt lat="46.97592" lon="8.77915">
        <ele>658</ele>
        <time>2021-08-04T09:46:39.077Z</time>
      </trkpt>
      <trkpt lat="46.97591" lon="8.77913">
        <ele>658</ele>
        <time>2021-08-04T09:46:40.077Z</time>
      </trkpt>
      <trkpt lat="46.9759" lon="8.77912">
        <ele>657</ele>
        <time>2021-08-04T09:46:41.076Z</time>
      </trkpt>
      <trkpt lat="46.9759" lon="8.77911">
        <ele>657</ele>
        <time>2021-08-04T09:46:42.077Z</time>
      </trkpt>
      <trkpt lat="46.97589" lon="8.77909">
        <ele>657</ele>
        <time>2021-08-04T09:46:43.077Z</time>
      </trkpt>
      <trkpt lat="46.97588" lon="8.77908">
        <ele>658</ele>
        <time>2021-08-04T09:46:44.077Z</time>
      </trkpt>
      <trkpt lat="46.97587" lon="8.77906">
        <ele>658</ele>
        <time>2021-08-04T09:46:45.077Z</time>
      </trkpt>
      <trkpt lat="46.97587" lon="8.77905">
        <ele>658</ele>
        <time>2021-08-04T09:46:46.077Z</time>
      </trkpt>
      <trkpt lat="46.97586" lon="8.77903">
        <ele>659</ele>
        <time>2021-08-04T09:46:47.076Z</time>
      </trkpt>
      <trkpt lat="46.97586" lon="8.77902">
        <ele>659</ele>
        <time>2021-08-04T09:46:48.077Z</time>
      </trkpt>
      <trkpt lat="46.97586" lon="8.77901">
        <ele>659</ele>
        <time>2021-08-04T09:46:49.077Z</time>
      </trkpt>
      <trkpt lat="46.97585" lon="8.77899">
        <ele>659</ele>
        <time>2021-08-04T09:46:50.077Z</time>
      </trkpt>
      <trkpt lat="46.97585" lon="8.77898">
        <ele>659</ele>
        <time>2021-08-04T09:46:51.076Z</time>
      </trkpt>
      <trkpt lat="46.97584" lon="8.77896">
        <ele>659</ele>
        <time>2021-08-04T09:46:52.077Z</time>
      </trkpt>
      <trkpt lat="46.97584" lon="8.77895">
        <ele>659</ele>
        <time>2021-08-04T09:46:53.077Z</time>
      </trkpt>
      <trkpt lat="46.97583" lon="8.77893">
        <ele>658</ele>
        <time>2021-08-04T09:46:54.077Z</time>
      </trkpt>
      <trkpt lat="46.97583" lon="8.77892">
        <ele>658</ele>
        <time>2021-08-04T09:46:55.077Z</time>
      </trkpt>
      <trkpt lat="46.97582" lon="8.7789">
        <ele>658</ele>
        <time>2021-08-04T09:46:56.076Z</time>
      </trkpt>
      <trkpt lat="46.97581" lon="8.77889">
        <ele>658</ele>
        <time>2021-08-04T09:46:57.077Z</time>
      </trkpt>
      <trkpt lat="46.9758" lon="8.77888">
        <ele>658</ele>
        <time>2021-08-04T09:46:58.076Z</time>
      </trkpt>
      <trkpt lat="46.9758" lon="8.77887">
        <ele>657</ele>
        <time>2021-08-04T09:46:59.076Z</time>
      </trkpt>
      <trkpt lat="46.9758" lon="8.77885">
        <ele>657</ele>
        <time>2021-08-04T09:47:00.077Z</time>
      </trkpt>
      <trkpt lat="46.97579" lon="8.77884">
        <ele>656</ele>
        <time>2021-08-04T09:47:01.077Z</time>
      </trkpt>
      <trkpt lat="46.97579" lon="8.77883">
        <ele>656</ele>
        <time>2021-08-04T09:47:02.077Z</time>
      </trkpt>
      <trkpt lat="46.97578" lon="8.77882">
        <ele>656</ele>
        <time>2021-08-04T09:47:03.077Z</time>
      </trkpt>
      <trkpt lat="46.97577" lon="8.77881">
        <ele>655</ele>
        <time>2021-08-04T09:47:04.077Z</time>
      </trkpt>
      <trkpt lat="46.97576" lon="8.77879">
        <ele>655</ele>
        <time>2021-08-04T09:47:05.077Z</time>
      </trkpt>
      <trkpt lat="46.97576" lon="8.77878">
        <ele>655</ele>
        <time>2021-08-04T09:47:06.077Z</time>
      </trkpt>
      <trkpt lat="46.97575" lon="8.77877">
        <ele>656</ele>
        <time>2021-08-04T09:47:07.077Z</time>
      </trkpt>
      <trkpt lat="46.97575" lon="8.77876">
        <ele>656</ele>
        <time>2021-08-04T09:47:08.077Z</time>
      </trkpt>
      <trkpt lat="46.97574" lon="8.77874">
        <ele>656</ele>
        <time>2021-08-04T09:47:09.077Z</time>
      </trkpt>
      <trkpt lat="46.97574" lon="8.77873">
        <ele>656</ele>
        <time>2021-08-04T09:47:10.077Z</time>
      </trkpt>
      <trkpt lat="46.97574" lon="8.77872">
        <ele>656</ele>
        <time>2021-08-04T09:47:11.077Z</time>
      </trkpt>
      <trkpt lat="46.97573" lon="8.77871">
        <ele>656</ele>
        <time>2021-08-04T09:47:12.076Z</time>
      </trkpt>
      <trkpt lat="46.97572" lon="8.7787">
        <ele>656</ele>
        <time>2021-08-04T09:47:13.077Z</time>
      </trkpt>
      <trkpt lat="46.97571" lon="8.77869">
        <ele>656</ele>
        <time>2021-08-04T09:47:14.076Z</time>
      </trkpt>
      <trkpt lat="46.97571" lon="8.77867">
        <ele>656</ele>
        <time>2021-08-04T09:47:15.076Z</time>
      </trkpt>
      <trkpt lat="46.97571" lon="8.77866">
        <ele>656</ele>
        <time>2021-08-04T09:47:16.077Z</time>
      </trkpt>
      <trkpt lat="46.9757" lon="8.77865">
        <ele>656</ele>
        <time>2021-08-04T09:47:17.076Z</time>
      </trkpt>
      <trkpt lat="46.97569" lon="8.77863">
        <ele>655</ele>
        <time>2021-08-04T09:47:18.077Z</time>
      </trkpt>
      <trkpt lat="46.97569" lon="8.77862">
        <ele>655</ele>
        <time>2021-08-04T09:47:19.076Z</time>
      </trkpt>
      <trkpt lat="46.97569" lon="8.77861">
        <ele>655</ele>
        <time>2021-08-04T09:47:20.077Z</time>
      </trkpt>
      <trkpt lat="46.97568" lon="8.77859">
        <ele>654</ele>
        <time>2021-08-04T09:47:21.076Z</time>
      </trkpt>
      <trkpt lat="46.97567" lon="8.77858">
        <ele>654</ele>
        <time>2021-08-04T09:47:22.076Z</time>
      </trkpt>
      <trkpt lat="46.97566" lon="8.77857">
        <ele>655</ele>
        <time>2021-08-04T09:47:23.077Z</time>
      </trkpt>
      <trkpt lat="46.97566" lon="8.77855">
        <ele>655</ele>
        <time>2021-08-04T09:47:24.076Z</time>
      </trkpt>
      <trkpt lat="46.97565" lon="8.77854">
        <ele>655</ele>
        <time>2021-08-04T09:47:25.077Z</time>
      </trkpt>
      <trkpt lat="46.97564" lon="8.77852">
        <ele>655</ele>
        <time>2021-08-04T09:47:26.077Z</time>
      </trkpt>
      <trkpt lat="46.97563" lon="8.77851">
        <ele>655</ele>
        <time>2021-08-04T09:47:27.076Z</time>
      </trkpt>
      <trkpt lat="46.97563" lon="8.7785">
        <ele>655</ele>
        <time>2021-08-04T09:47:28.077Z</time>
      </trkpt>
      <trkpt lat="46.97562" lon="8.77848">
        <ele>655</ele>
        <time>2021-08-04T09:47:29.077Z</time>
      </trkpt>
      <trkpt lat="46.97561" lon="8.77846">
        <ele>655</ele>
        <time>2021-08-04T09:47:30.076Z</time>
      </trkpt>
      <trkpt lat="46.97561" lon="8.77845">
        <ele>655</ele>
        <time>2021-08-04T09:47:31.077Z</time>
      </trkpt>
      <trkpt lat="46.97561" lon="8.77844">
        <ele>655</ele>
        <time>2021-08-04T09:47:32.077Z</time>
      </trkpt>
      <trkpt lat="46.9756" lon="8.77843">
        <ele>655</ele>
        <time>2021-08-04T09:47:33.076Z</time>
      </trkpt>
      <trkpt lat="46.97559" lon="8.77841">
        <ele>655</ele>
        <time>2021-08-04T09:47:34.077Z</time>
      </trkpt>
      <trkpt lat="46.97559" lon="8.7784">
        <ele>655</ele>
        <time>2021-08-04T09:47:35.077Z</time>
      </trkpt>
      <trkpt lat="46.97558" lon="8.77838">
        <ele>655</ele>
        <time>2021-08-04T09:47:36.076Z</time>
      </trkpt>
      <trkpt lat="46.97557" lon="8.77837">
        <ele>655</ele>
        <time>2021-08-04T09:47:37.077Z</time>
      </trkpt>
      <trkpt lat="46.97557" lon="8.77835">
        <ele>655</ele>
        <time>2021-08-04T09:47:38.077Z</time>
      </trkpt>
      <trkpt lat="46.97556" lon="8.77834">
        <ele>655</ele>
        <time>2021-08-04T09:47:39.077Z</time>
      </trkpt>
      <trkpt lat="46.97556" lon="8.77833">
        <ele>655</ele>
        <time>2021-08-04T09:47:40.077Z</time>
      </trkpt>
      <trkpt lat="46.97555" lon="8.77832">
        <ele>655</ele>
        <time>2021-08-04T09:47:41.076Z</time>
      </trkpt>
      <trkpt lat="46.97554" lon="8.77831">
        <ele>655</ele>
        <time>2021-08-04T09:47:42.076Z</time>
      </trkpt>
      <trkpt lat="46.97553" lon="8.77829">
        <ele>655</ele>
        <time>2021-08-04T09:47:43.077Z</time>
      </trkpt>
      <trkpt lat="46.97552" lon="8.77828">
        <ele>655</ele>
        <time>2021-08-04T09:47:44.077Z</time>
      </trkpt>
      <trkpt lat="46.97551" lon="8.77826">
        <ele>655</ele>
        <time>2021-08-04T09:47:45.076Z</time>
      </trkpt>
      <trkpt lat="46.97551" lon="8.77824">
        <ele>655</ele>
        <time>2021-08-04T09:47:46.077Z</time>
      </trkpt>
      <trkpt lat="46.9755" lon="8.77822">
        <ele>654</ele>
        <time>2021-08-04T09:47:47.077Z</time>
      </trkpt>
      <trkpt lat="46.97549" lon="8.77821">
        <ele>654</ele>
        <time>2021-08-04T09:47:48.076Z</time>
      </trkpt>
      <trkpt lat="46.97549" lon="8.77819">
        <ele>654</ele>
        <time>2021-08-04T09:47:49.077Z</time>
      </trkpt>
      <trkpt lat="46.97548" lon="8.77816">
        <ele>654</ele>
        <time>2021-08-04T09:47:50.077Z</time>
      </trkpt>
      <trkpt lat="46.97547" lon="8.77815">
        <ele>654</ele>
        <time>2021-08-04T09:47:51.076Z</time>
      </trkpt>
      <trkpt lat="46.97546" lon="8.77814">
        <ele>654</ele>
        <time>2021-08-04T09:47:52.077Z</time>
      </trkpt>
      <trkpt lat="46.97545" lon="8.77813">
        <ele>654</ele>
        <time>2021-08-04T09:47:53.076Z</time>
      </trkpt>
      <trkpt lat="46.97544" lon="8.77811">
        <ele>655</ele>
        <time>2021-08-04T09:47:54.076Z</time>
      </trkpt>
      <trkpt lat="46.97544" lon="8.77809">
        <ele>655</ele>
        <time>2021-08-04T09:47:55.076Z</time>
      </trkpt>
      <trkpt lat="46.97543" lon="8.77808">
        <ele>656</ele>
        <time>2021-08-04T09:47:56.077Z</time>
      </trkpt>
      <trkpt lat="46.97543" lon="8.77806">
        <ele>656</ele>
        <time>2021-08-04T09:47:57.077Z</time>
      </trkpt>
      <trkpt lat="46.97543" lon="8.77804">
        <ele>655</ele>
        <time>2021-08-04T09:47:58.077Z</time>
      </trkpt>
      <trkpt lat="46.97542" lon="8.77803">
        <ele>655</ele>
        <time>2021-08-04T09:47:59.076Z</time>
      </trkpt>
      <trkpt lat="46.97541" lon="8.77801">
        <ele>654</ele>
        <time>2021-08-04T09:48:00.076Z</time>
      </trkpt>
      <trkpt lat="46.9754" lon="8.778">
        <ele>654</ele>
        <time>2021-08-04T09:48:01.077Z</time>
      </trkpt>
      <trkpt lat="46.97539" lon="8.77799">
        <ele>653</ele>
        <time>2021-08-04T09:48:02.077Z</time>
      </trkpt>
      <trkpt lat="46.97539" lon="8.77797">
        <ele>653</ele>
        <time>2021-08-04T09:48:03.077Z</time>
      </trkpt>
      <trkpt lat="46.97538" lon="8.77796">
        <ele>653</ele>
        <time>2021-08-04T09:48:04.077Z</time>
      </trkpt>
      <trkpt lat="46.97537" lon="8.77795">
        <ele>653</ele>
        <time>2021-08-04T09:48:05.077Z</time>
      </trkpt>
      <trkpt lat="46.97536" lon="8.77794">
        <ele>653</ele>
        <time>2021-08-04T09:48:06.077Z</time>
      </trkpt>
      <trkpt lat="46.97536" lon="8.77792">
        <ele>653</ele>
        <time>2021-08-04T09:48:07.076Z</time>
      </trkpt>
      <trkpt lat="46.97535" lon="8.7779">
        <ele>653</ele>
        <time>2021-08-04T09:48:08.077Z</time>
      </trkpt>
      <trkpt lat="46.97534" lon="8.77789">
        <ele>653</ele>
        <time>2021-08-04T09:48:09.077Z</time>
      </trkpt>
      <trkpt lat="46.97533" lon="8.77787">
        <ele>653</ele>
        <time>2021-08-04T09:48:10.077Z</time>
      </trkpt>
      <trkpt lat="46.97532" lon="8.77786">
        <ele>653</ele>
        <time>2021-08-04T09:48:11.077Z</time>
      </trkpt>
      <trkpt lat="46.97531" lon="8.77784">
        <ele>653</ele>
        <time>2021-08-04T09:48:12.076Z</time>
      </trkpt>
      <trkpt lat="46.9753" lon="8.77783">
        <ele>653</ele>
        <time>2021-08-04T09:48:13.077Z</time>
      </trkpt>
      <trkpt lat="46.97529" lon="8.77781">
        <ele>653</ele>
        <time>2021-08-04T09:48:14.077Z</time>
      </trkpt>
      <trkpt lat="46.97528" lon="8.77779">
        <ele>653</ele>
        <time>2021-08-04T09:48:15.076Z</time>
      </trkpt>
      <trkpt lat="46.97528" lon="8.77778">
        <ele>653</ele>
        <time>2021-08-04T09:48:16.076Z</time>
      </trkpt>
      <trkpt lat="46.97527" lon="8.77776">
        <ele>653</ele>
        <time>2021-08-04T09:48:17.077Z</time>
      </trkpt>
      <trkpt lat="46.97526" lon="8.77775">
        <ele>653</ele>
        <time>2021-08-04T09:48:18.077Z</time>
      </trkpt>
      <trkpt lat="46.97526" lon="8.77774">
        <ele>653</ele>
        <time>2021-08-04T09:48:19.077Z</time>
      </trkpt>
      <trkpt lat="46.97525" lon="8.77773">
        <ele>653</ele>
        <time>2021-08-04T09:48:20.077Z</time>
      </trkpt>
      <trkpt lat="46.97524" lon="8.77772">
        <ele>653</ele>
        <time>2021-08-04T09:48:21.077Z</time>
      </trkpt>
      <trkpt lat="46.97523" lon="8.77771">
        <ele>654</ele>
        <time>2021-08-04T09:48:22.076Z</time>
      </trkpt>
      <trkpt lat="46.97522" lon="8.7777">
        <ele>654</ele>
        <time>2021-08-04T09:48:23.076Z</time>
      </trkpt>
      <trkpt lat="46.97521" lon="8.77768">
        <ele>654</ele>
        <time>2021-08-04T09:48:24.077Z</time>
      </trkpt>
      <trkpt lat="46.9752" lon="8.77767">
        <ele>654</ele>
        <time>2021-08-04T09:48:25.077Z</time>
      </trkpt>
      <trkpt lat="46.97519" lon="8.77766">
        <ele>654</ele>
        <time>2021-08-04T09:48:26.076Z</time>
      </trkpt>
      <trkpt lat="46.97518" lon="8.77765">
        <ele>654</ele>
        <time>2021-08-04T09:48:27.077Z</time>
      </trkpt>
      <trkpt lat="46.97517" lon="8.77764">
        <ele>655</ele>
        <time>2021-08-04T09:48:28.077Z</time>
      </trkpt>
      <trkpt lat="46.97517" lon="8.77763">
        <ele>655</ele>
        <time>2021-08-04T09:48:29.077Z</time>
      </trkpt>
      <trkpt lat="46.97516" lon="8.77762">
        <ele>656</ele>
        <time>2021-08-04T09:48:30.077Z</time>
      </trkpt>
      <trkpt lat="46.97515" lon="8.77761">
        <ele>656</ele>
        <time>2021-08-04T09:48:31.077Z</time>
      </trkpt>
      <trkpt lat="46.97514" lon="8.77759">
        <ele>657</ele>
        <time>2021-08-04T09:48:32.077Z</time>
      </trkpt>
      <trkpt lat="46.97513" lon="8.77758">
        <ele>657</ele>
        <time>2021-08-04T09:48:33.076Z</time>
      </trkpt>
      <trkpt lat="46.97513" lon="8.77757">
        <ele>658</ele>
        <time>2021-08-04T09:48:34.077Z</time>
      </trkpt>
      <trkpt lat="46.97512" lon="8.77756">
        <ele>658</ele>
        <time>2021-08-04T09:48:35.077Z</time>
      </trkpt>
      <trkpt lat="46.97511" lon="8.77755">
        <ele>658</ele>
        <time>2021-08-04T09:48:36.077Z</time>
      </trkpt>
      <trkpt lat="46.9751" lon="8.77754">
        <ele>658</ele>
        <time>2021-08-04T09:48:37.077Z</time>
      </trkpt>
      <trkpt lat="46.97509" lon="8.77754">
        <ele>658</ele>
        <time>2021-08-04T09:48:38.077Z</time>
      </trkpt>
      <trkpt lat="46.97508" lon="8.77753">
        <ele>658</ele>
        <time>2021-08-04T09:48:39.076Z</time>
      </trkpt>
      <trkpt lat="46.97508" lon="8.77752">
        <ele>658</ele>
        <time>2021-08-04T09:48:40.077Z</time>
      </trkpt>
      <trkpt lat="46.97507" lon="8.7775">
        <ele>658</ele>
        <time>2021-08-04T09:48:41.077Z</time>
      </trkpt>
      <trkpt lat="46.97507" lon="8.77749">
        <ele>658</ele>
        <time>2021-08-04T09:48:42.077Z</time>
      </trkpt>
      <trkpt lat="46.97506" lon="8.77748">
        <ele>657</ele>
        <time>2021-08-04T09:48:43.077Z</time>
      </trkpt>
      <trkpt lat="46.97505" lon="8.77747">
        <ele>657</ele>
        <time>2021-08-04T09:48:44.077Z</time>
      </trkpt>
      <trkpt lat="46.97505" lon="8.77746">
        <ele>657</ele>
        <time>2021-08-04T09:48:45.077Z</time>
      </trkpt>
      <trkpt lat="46.97504" lon="8.77744">
        <ele>656</ele>
        <time>2021-08-04T09:48:46.077Z</time>
      </trkpt>
      <trkpt lat="46.97504" lon="8.77743">
        <ele>656</ele>
        <time>2021-08-04T09:48:47.076Z</time>
      </trkpt>
      <trkpt lat="46.97503" lon="8.77742">
        <ele>656</ele>
        <time>2021-08-04T09:48:48.076Z</time>
      </trkpt>
      <trkpt lat="46.97503" lon="8.7774">
        <ele>656</ele>
        <time>2021-08-04T09:48:49.077Z</time>
      </trkpt>
      <trkpt lat="46.97503" lon="8.77739">
        <ele>656</ele>
        <time>2021-08-04T09:48:50.076Z</time>
      </trkpt>
      <trkpt lat="46.97502" lon="8.77737">
        <ele>655</ele>
        <time>2021-08-04T09:48:51.077Z</time>
      </trkpt>
      <trkpt lat="46.97502" lon="8.77736">
        <ele>654</ele>
        <time>2021-08-04T09:48:52.076Z</time>
      </trkpt>
      <trkpt lat="46.97501" lon="8.77735">
        <ele>653</ele>
        <time>2021-08-04T09:48:53.077Z</time>
      </trkpt>
      <trkpt lat="46.975" lon="8.77733">
        <ele>653</ele>
        <time>2021-08-04T09:48:54.076Z</time>
      </trkpt>
      <trkpt lat="46.97499" lon="8.77731">
        <ele>652</ele>
        <time>2021-08-04T09:48:55.077Z</time>
      </trkpt>
      <trkpt lat="46.97499" lon="8.7773">
        <ele>651</ele>
        <time>2021-08-04T09:48:56.077Z</time>
      </trkpt>
      <trkpt lat="46.97498" lon="8.77728">
        <ele>651</ele>
        <time>2021-08-04T09:48:57.076Z</time>
      </trkpt>
      <trkpt lat="46.97497" lon="8.77727">
        <ele>651</ele>
        <time>2021-08-04T09:48:58.077Z</time>
      </trkpt>
      <trkpt lat="46.97496" lon="8.77725">
        <ele>652</ele>
        <time>2021-08-04T09:48:59.077Z</time>
      </trkpt>
      <trkpt lat="46.97495" lon="8.77724">
        <ele>652</ele>
        <time>2021-08-04T09:49:00.077Z</time>
      </trkpt>
      <trkpt lat="46.97495" lon="8.77723">
        <ele>652</ele>
        <time>2021-08-04T09:49:01.077Z</time>
      </trkpt>
      <trkpt lat="46.97494" lon="8.77722">
        <ele>651</ele>
        <time>2021-08-04T09:49:02.077Z</time>
      </trkpt>
      <trkpt lat="46.97493" lon="8.7772">
        <ele>651</ele>
        <time>2021-08-04T09:49:03.077Z</time>
      </trkpt>
      <trkpt lat="46.97492" lon="8.77719">
        <ele>651</ele>
        <time>2021-08-04T09:49:04.077Z</time>
      </trkpt>
      <trkpt lat="46.97491" lon="8.77717">
        <ele>651</ele>
        <time>2021-08-04T09:49:05.077Z</time>
      </trkpt>
      <trkpt lat="46.9749" lon="8.77716">
        <ele>651</ele>
        <time>2021-08-04T09:49:06.077Z</time>
      </trkpt>
      <trkpt lat="46.97489" lon="8.77715">
        <ele>651</ele>
        <time>2021-08-04T09:49:07.077Z</time>
      </trkpt>
      <trkpt lat="46.97488" lon="8.77714">
        <ele>651</ele>
        <time>2021-08-04T09:49:08.076Z</time>
      </trkpt>
      <trkpt lat="46.97487" lon="8.77713">
        <ele>652</ele>
        <time>2021-08-04T09:49:09.077Z</time>
      </trkpt>
      <trkpt lat="46.97487" lon="8.77712">
        <ele>652</ele>
        <time>2021-08-04T09:49:10.077Z</time>
      </trkpt>
      <trkpt lat="46.97486" lon="8.77711">
        <ele>652</ele>
        <time>2021-08-04T09:49:11.076Z</time>
      </trkpt>
      <trkpt lat="46.97485" lon="8.77711">
        <ele>652</ele>
        <time>2021-08-04T09:49:12.076Z</time>
      </trkpt>
      <trkpt lat="46.97484" lon="8.7771">
        <ele>652</ele>
        <time>2021-08-04T09:49:13.076Z</time>
      </trkpt>
      <trkpt lat="46.97483" lon="8.77709">
        <ele>653</ele>
        <time>2021-08-04T09:49:14.076Z</time>
      </trkpt>
      <trkpt lat="46.97482" lon="8.77707">
        <ele>653</ele>
        <time>2021-08-04T09:49:15.076Z</time>
      </trkpt>
      <trkpt lat="46.97482" lon="8.77706">
        <ele>653</ele>
        <time>2021-08-04T09:49:16.077Z</time>
      </trkpt>
      <trkpt lat="46.97481" lon="8.77705">
        <ele>653</ele>
        <time>2021-08-04T09:49:17.077Z</time>
      </trkpt>
      <trkpt lat="46.97479" lon="8.77705">
        <ele>653</ele>
        <time>2021-08-04T09:49:18.076Z</time>
      </trkpt>
      <trkpt lat="46.97478" lon="8.77704">
        <ele>653</ele>
        <time>2021-08-04T09:49:19.076Z</time>
      </trkpt>
      <trkpt lat="46.97477" lon="8.77704">
        <ele>653</ele>
        <time>2021-08-04T09:49:20.076Z</time>
      </trkpt>
      <trkpt lat="46.97476" lon="8.77704">
        <ele>652</ele>
        <time>2021-08-04T09:49:21.076Z</time>
      </trkpt>
      <trkpt lat="46.97475" lon="8.77704">
        <ele>651</ele>
        <time>2021-08-04T09:49:22.077Z</time>
      </trkpt>
      <trkpt lat="46.97474" lon="8.77704">
        <ele>651</ele>
        <time>2021-08-04T09:49:23.077Z</time>
      </trkpt>
      <trkpt lat="46.97473" lon="8.77704">
        <ele>650</ele>
        <time>2021-08-04T09:49:24.077Z</time>
      </trkpt>
      <trkpt lat="46.97472" lon="8.77704">
        <ele>649</ele>
        <time>2021-08-04T09:49:25.076Z</time>
      </trkpt>
      <trkpt lat="46.9747" lon="8.77703">
        <ele>648</ele>
        <time>2021-08-04T09:49:26.077Z</time>
      </trkpt>
      <trkpt lat="46.97469" lon="8.77702">
        <ele>648</ele>
        <time>2021-08-04T09:49:27.077Z</time>
      </trkpt>
      <trkpt lat="46.97468" lon="8.77702">
        <ele>647</ele>
        <time>2021-08-04T09:49:28.077Z</time>
      </trkpt>
      <trkpt lat="46.97467" lon="8.77702">
        <ele>647</ele>
        <time>2021-08-04T09:49:29.077Z</time>
      </trkpt>
      <trkpt lat="46.97466" lon="8.77702">
        <ele>647</ele>
        <time>2021-08-04T09:49:30.076Z</time>
      </trkpt>
      <trkpt lat="46.97465" lon="8.77701">
        <ele>647</ele>
        <time>2021-08-04T09:49:31.077Z</time>
      </trkpt>
      <trkpt lat="46.97464" lon="8.77701">
        <ele>647</ele>
        <time>2021-08-04T09:49:32.077Z</time>
      </trkpt>
      <trkpt lat="46.97464" lon="8.77701">
        <ele>647</ele>
        <time>2021-08-04T09:49:33.077Z</time>
      </trkpt>
      <trkpt lat="46.97463" lon="8.777">
        <ele>647</ele>
        <time>2021-08-04T09:49:34.077Z</time>
      </trkpt>
      <trkpt lat="46.97461" lon="8.777">
        <ele>647</ele>
        <time>2021-08-04T09:49:35.077Z</time>
      </trkpt>
      <trkpt lat="46.9746" lon="8.777">
        <ele>647</ele>
        <time>2021-08-04T09:49:36.077Z</time>
      </trkpt>
      <trkpt lat="46.97459" lon="8.77701">
        <ele>647</ele>
        <time>2021-08-04T09:49:37.077Z</time>
      </trkpt>
      <trkpt lat="46.97457" lon="8.77702">
        <ele>646</ele>
        <time>2021-08-04T09:49:38.077Z</time>
      </trkpt>
      <trkpt lat="46.97456" lon="8.77702">
        <ele>646</ele>
        <time>2021-08-04T09:49:39.077Z</time>
      </trkpt>
      <trkpt lat="46.97454" lon="8.77701">
        <ele>646</ele>
        <time>2021-08-04T09:49:40.077Z</time>
      </trkpt>
      <trkpt lat="46.97453" lon="8.777">
        <ele>646</ele>
        <time>2021-08-04T09:49:41.077Z</time>
      </trkpt>
      <trkpt lat="46.97452" lon="8.77698">
        <ele>645</ele>
        <time>2021-08-04T09:49:42.077Z</time>
      </trkpt>
      <trkpt lat="46.9745" lon="8.77698">
        <ele>645</ele>
        <time>2021-08-04T09:49:43.077Z</time>
      </trkpt>
      <trkpt lat="46.97449" lon="8.77697">
        <ele>645</ele>
        <time>2021-08-04T09:49:44.076Z</time>
      </trkpt>
      <trkpt lat="46.97448" lon="8.77696">
        <ele>644</ele>
        <time>2021-08-04T09:49:45.076Z</time>
      </trkpt>
      <trkpt lat="46.97447" lon="8.77694">
        <ele>644</ele>
        <time>2021-08-04T09:49:46.076Z</time>
      </trkpt>
      <trkpt lat="46.97446" lon="8.77693">
        <ele>643</ele>
        <time>2021-08-04T09:49:47.076Z</time>
      </trkpt>
      <trkpt lat="46.97444" lon="8.77692">
        <ele>643</ele>
        <time>2021-08-04T09:49:48.076Z</time>
      </trkpt>
      <trkpt lat="46.97443" lon="8.77691">
        <ele>642</ele>
        <time>2021-08-04T09:49:49.077Z</time>
      </trkpt>
      <trkpt lat="46.97442" lon="8.7769">
        <ele>642</ele>
        <time>2021-08-04T09:49:50.077Z</time>
      </trkpt>
      <trkpt lat="46.97441" lon="8.77689">
        <ele>641</ele>
        <time>2021-08-04T09:49:51.077Z</time>
      </trkpt>
      <trkpt lat="46.97441" lon="8.77687">
        <ele>641</ele>
        <time>2021-08-04T09:49:52.077Z</time>
      </trkpt>
      <trkpt lat="46.9744" lon="8.77686">
        <ele>640</ele>
        <time>2021-08-04T09:49:53.077Z</time>
      </trkpt>
      <trkpt lat="46.97439" lon="8.77686">
        <ele>639</ele>
        <time>2021-08-04T09:49:54.076Z</time>
      </trkpt>
      <trkpt lat="46.97438" lon="8.77685">
        <ele>638</ele>
        <time>2021-08-04T09:49:55.076Z</time>
      </trkpt>
      <trkpt lat="46.97437" lon="8.77683">
        <ele>638</ele>
        <time>2021-08-04T09:49:56.077Z</time>
      </trkpt>
      <trkpt lat="46.97435" lon="8.77682">
        <ele>637</ele>
        <time>2021-08-04T09:49:57.076Z</time>
      </trkpt>
      <trkpt lat="46.97434" lon="8.7768">
        <ele>637</ele>
        <time>2021-08-04T09:49:58.076Z</time>
      </trkpt>
      <trkpt lat="46.97432" lon="8.77679">
        <ele>637</ele>
        <time>2021-08-04T09:49:59.076Z</time>
      </trkpt>
      <trkpt lat="46.97431" lon="8.77678">
        <ele>636</ele>
        <time>2021-08-04T09:50:00.077Z</time>
      </trkpt>
      <trkpt lat="46.9743" lon="8.77677">
        <ele>636</ele>
        <time>2021-08-04T09:50:01.077Z</time>
      </trkpt>
      <trkpt lat="46.97429" lon="8.77676">
        <ele>635</ele>
        <time>2021-08-04T09:50:02.076Z</time>
      </trkpt>
      <trkpt lat="46.97428" lon="8.77675">
        <ele>635</ele>
        <time>2021-08-04T09:50:03.077Z</time>
      </trkpt>
      <trkpt lat="46.97427" lon="8.77674">
        <ele>634</ele>
        <time>2021-08-04T09:50:04.077Z</time>
      </trkpt>
      <trkpt lat="46.97426" lon="8.77673">
        <ele>634</ele>
        <time>2021-08-04T09:50:05.077Z</time>
      </trkpt>
      <trkpt lat="46.97424" lon="8.77672">
        <ele>634</ele>
        <time>2021-08-04T09:50:06.076Z</time>
      </trkpt>
      <trkpt lat="46.97423" lon="8.7767">
        <ele>635</ele>
        <time>2021-08-04T09:50:07.077Z</time>
      </trkpt>
      <trkpt lat="46.97422" lon="8.77668">
        <ele>635</ele>
        <time>2021-08-04T09:50:08.077Z</time>
      </trkpt>
      <trkpt lat="46.97421" lon="8.77666">
        <ele>635</ele>
        <time>2021-08-04T09:50:09.077Z</time>
      </trkpt>
      <trkpt lat="46.97421" lon="8.77665">
        <ele>636</ele>
        <time>2021-08-04T09:50:10.077Z</time>
      </trkpt>
      <trkpt lat="46.9742" lon="8.77663">
        <ele>636</ele>
        <time>2021-08-04T09:50:11.076Z</time>
      </trkpt>
      <trkpt lat="46.9742" lon="8.77662">
        <ele>635</ele>
        <time>2021-08-04T09:50:12.077Z</time>
      </trkpt>
      <trkpt lat="46.97419" lon="8.7766">
        <ele>635</ele>
        <time>2021-08-04T09:50:13.076Z</time>
      </trkpt>
      <trkpt lat="46.97419" lon="8.77659">
        <ele>635</ele>
        <time>2021-08-04T09:50:14.077Z</time>
      </trkpt>
      <trkpt lat="46.97418" lon="8.77657">
        <ele>634</ele>
        <time>2021-08-04T09:50:15.076Z</time>
      </trkpt>
      <trkpt lat="46.97417" lon="8.77656">
        <ele>634</ele>
        <time>2021-08-04T09:50:16.077Z</time>
      </trkpt>
      <trkpt lat="46.97417" lon="8.77654">
        <ele>633</ele>
        <time>2021-08-04T09:50:17.077Z</time>
      </trkpt>
      <trkpt lat="46.97417" lon="8.77653">
        <ele>632</ele>
        <time>2021-08-04T09:50:18.077Z</time>
      </trkpt>
      <trkpt lat="46.97416" lon="8.77651">
        <ele>632</ele>
        <time>2021-08-04T09:50:19.076Z</time>
      </trkpt>
      <trkpt lat="46.97416" lon="8.77649">
        <ele>633</ele>
        <time>2021-08-04T09:50:20.077Z</time>
      </trkpt>
      <trkpt lat="46.97415" lon="8.77647">
        <ele>633</ele>
        <time>2021-08-04T09:50:21.077Z</time>
      </trkpt>
      <trkpt lat="46.97414" lon="8.77645">
        <ele>633</ele>
        <time>2021-08-04T09:50:22.077Z</time>
      </trkpt>
      <trkpt lat="46.97414" lon="8.77643">
        <ele>633</ele>
        <time>2021-08-04T09:50:23.077Z</time>
      </trkpt>
      <trkpt lat="46.97414" lon="8.77641">
        <ele>633</ele>
        <time>2021-08-04T09:50:24.076Z</time>
      </trkpt>
      <trkpt lat="46.97413" lon="8.77639">
        <ele>633</ele>
        <time>2021-08-04T09:50:25.077Z</time>
      </trkpt>
      <trkpt lat="46.97413" lon="8.77637">
        <ele>633</ele>
        <time>2021-08-04T09:50:26.076Z</time>
      </trkpt>
      <trkpt lat="46.97413" lon="8.77635">
        <ele>633</ele>
        <time>2021-08-04T09:50:27.077Z</time>
      </trkpt>
      <trkpt lat="46.97412" lon="8.77633">
        <ele>633</ele>
        <time>2021-08-04T09:50:28.077Z</time>
      </trkpt>
      <trkpt lat="46.97412" lon="8.77632">
        <ele>633</ele>
        <time>2021-08-04T09:50:59.175Z</time>
      </trkpt>
      <trkpt lat="46.97412" lon="8.7763">
        <ele>633</ele>
        <time>2021-08-04T09:51:00.175Z</time>
      </trkpt>
      <trkpt lat="46.97411" lon="8.77628">
        <ele>632</ele>
        <time>2021-08-04T09:51:01.174Z</time>
      </trkpt>
      <trkpt lat="46.97411" lon="8.77626">
        <ele>632</ele>
        <time>2021-08-04T09:51:02.175Z</time>
      </trkpt>
      <trkpt lat="46.97411" lon="8.77624">
        <ele>632</ele>
        <time>2021-08-04T09:51:03.174Z</time>
      </trkpt>
      <trkpt lat="46.97411" lon="8.77623">
        <ele>631</ele>
        <time>2021-08-04T09:51:04.174Z</time>
      </trkpt>
      <trkpt lat="46.97411" lon="8.7762">
        <ele>631</ele>
        <time>2021-08-04T09:51:05.175Z</time>
      </trkpt>
      <trkpt lat="46.97411" lon="8.77619">
        <ele>631</ele>
        <time>2021-08-04T09:51:06.174Z</time>
      </trkpt>
      <trkpt lat="46.97411" lon="8.77617">
        <ele>630</ele>
        <time>2021-08-04T09:51:07.175Z</time>
      </trkpt>
      <trkpt lat="46.97411" lon="8.77616">
        <ele>630</ele>
        <time>2021-08-04T09:51:08.174Z</time>
      </trkpt>
      <trkpt lat="46.97411" lon="8.77615">
        <ele>630</ele>
        <time>2021-08-04T09:51:09.174Z</time>
      </trkpt>
      <trkpt lat="46.97411" lon="8.77614">
        <ele>630</ele>
        <time>2021-08-04T09:51:10.175Z</time>
      </trkpt>
      <trkpt lat="46.97411" lon="8.77613">
        <ele>630</ele>
        <time>2021-08-04T09:51:11.174Z</time>
      </trkpt>
      <trkpt lat="46.97412" lon="8.77611">
        <ele>629</ele>
        <time>2021-08-04T09:51:12.174Z</time>
      </trkpt>
      <trkpt lat="46.97412" lon="8.77611">
        <ele>629</ele>
        <time>2021-08-04T09:51:13.174Z</time>
      </trkpt>
      <trkpt lat="46.97412" lon="8.77609">
        <ele>629</ele>
        <time>2021-08-04T09:51:14.174Z</time>
      </trkpt>
      <trkpt lat="46.97412" lon="8.77607">
        <ele>628</ele>
        <time>2021-08-04T09:51:15.174Z</time>
      </trkpt>
      <trkpt lat="46.97413" lon="8.77606">
        <ele>628</ele>
        <time>2021-08-04T09:51:16.174Z</time>
      </trkpt>
      <trkpt lat="46.97413" lon="8.77604">
        <ele>628</ele>
        <time>2021-08-04T09:51:17.174Z</time>
      </trkpt>
      <trkpt lat="46.97414" lon="8.77602">
        <ele>628</ele>
        <time>2021-08-04T09:51:28.286Z</time>
      </trkpt>
      <trkpt lat="46.97415" lon="8.776">
        <ele>628</ele>
        <time>2021-08-04T09:51:29.286Z</time>
      </trkpt>
      <trkpt lat="46.97415" lon="8.77599">
        <ele>628</ele>
        <time>2021-08-04T09:51:30.285Z</time>
      </trkpt>
      <trkpt lat="46.97416" lon="8.77598">
        <ele>627</ele>
        <time>2021-08-04T09:51:49.056Z</time>
      </trkpt>
      <trkpt lat="46.97417" lon="8.77596">
        <ele>627</ele>
        <time>2021-08-04T09:51:50.056Z</time>
      </trkpt>
      <trkpt lat="46.97417" lon="8.77594">
        <ele>627</ele>
        <time>2021-08-04T09:51:51.056Z</time>
      </trkpt>
      <trkpt lat="46.97417" lon="8.77592">
        <ele>626</ele>
        <time>2021-08-04T09:51:52.056Z</time>
      </trkpt>
      <trkpt lat="46.97418" lon="8.7759">
        <ele>626</ele>
        <time>2021-08-04T09:51:53.056Z</time>
      </trkpt>
      <trkpt lat="46.97418" lon="8.77589">
        <ele>625</ele>
        <time>2021-08-04T09:51:54.056Z</time>
      </trkpt>
      <trkpt lat="46.97418" lon="8.77587">
        <ele>625</ele>
        <time>2021-08-04T09:51:57.009Z</time>
      </trkpt>
      <trkpt lat="46.97418" lon="8.77585">
        <ele>624</ele>
        <time>2021-08-04T09:51:58.010Z</time>
      </trkpt>
      <trkpt lat="46.97418" lon="8.77584">
        <ele>624</ele>
        <time>2021-08-04T09:51:59.009Z</time>
      </trkpt>
      <trkpt lat="46.97418" lon="8.77582">
        <ele>624</ele>
        <time>2021-08-04T09:52:00.009Z</time>
      </trkpt>
      <trkpt lat="46.97418" lon="8.77581">
        <ele>624</ele>
        <time>2021-08-04T09:52:01.009Z</time>
      </trkpt>
      <trkpt lat="46.97418" lon="8.77579">
        <ele>624</ele>
        <time>2021-08-04T09:52:02.009Z</time>
      </trkpt>
      <trkpt lat="46.97418" lon="8.77577">
        <ele>624</ele>
        <time>2021-08-04T09:52:03.010Z</time>
      </trkpt>
      <trkpt lat="46.97418" lon="8.77576">
        <ele>624</ele>
        <time>2021-08-04T09:52:04.009Z</time>
      </trkpt>
      <trkpt lat="46.97418" lon="8.77574">
        <ele>624</ele>
        <time>2021-08-04T09:52:05.009Z</time>
      </trkpt>
      <trkpt lat="46.97418" lon="8.77572">
        <ele>624</ele>
        <time>2021-08-04T09:52:11.060Z</time>
      </trkpt>
      <trkpt lat="46.97418" lon="8.7757">
        <ele>623</ele>
        <time>2021-08-04T09:52:12.060Z</time>
      </trkpt>
      <trkpt lat="46.97419" lon="8.77568">
        <ele>623</ele>
        <time>2021-08-04T09:52:13.060Z</time>
      </trkpt>
      <trkpt lat="46.97419" lon="8.77567">
        <ele>623</ele>
        <time>2021-08-04T09:52:14.060Z</time>
      </trkpt>
      <trkpt lat="46.97419" lon="8.77565">
        <ele>623</ele>
        <time>2021-08-04T09:52:15.061Z</time>
      </trkpt>
      <trkpt lat="46.97418" lon="8.77563">
        <ele>623</ele>
        <time>2021-08-04T09:52:16.061Z</time>
      </trkpt>
      <trkpt lat="46.97418" lon="8.77562">
        <ele>624</ele>
        <time>2021-08-04T09:52:17.061Z</time>
      </trkpt>
      <trkpt lat="46.97418" lon="8.7756">
        <ele>625</ele>
        <time>2021-08-04T09:52:18.061Z</time>
      </trkpt>
      <trkpt lat="46.97418" lon="8.77558">
        <ele>625</ele>
        <time>2021-08-04T09:52:19.061Z</time>
      </trkpt>
      <trkpt lat="46.97417" lon="8.77557">
        <ele>625</ele>
        <time>2021-08-04T09:52:20.060Z</time>
      </trkpt>
      <trkpt lat="46.97417" lon="8.77555">
        <ele>626</ele>
        <time>2021-08-04T09:52:21.061Z</time>
      </trkpt>
      <trkpt lat="46.97417" lon="8.77554">
        <ele>626</ele>
        <time>2021-08-04T09:52:22.060Z</time>
      </trkpt>
      <trkpt lat="46.97416" lon="8.77552">
        <ele>626</ele>
        <time>2021-08-04T09:52:28.167Z</time>
      </trkpt>
      <trkpt lat="46.97416" lon="8.77551">
        <ele>627</ele>
        <time>2021-08-04T09:52:29.167Z</time>
      </trkpt>
      <trkpt lat="46.97415" lon="8.7755">
        <ele>627</ele>
        <time>2021-08-04T09:52:36.059Z</time>
      </trkpt>
      <trkpt lat="46.97415" lon="8.77548">
        <ele>627</ele>
        <time>2021-08-04T09:52:37.059Z</time>
      </trkpt>
      <trkpt lat="46.97414" lon="8.77546">
        <ele>626</ele>
        <time>2021-08-04T09:52:38.060Z</time>
      </trkpt>
      <trkpt lat="46.97414" lon="8.77545">
        <ele>626</ele>
        <time>2021-08-04T09:52:39.059Z</time>
      </trkpt>
      <trkpt lat="46.97413" lon="8.77543">
        <ele>626</ele>
        <time>2021-08-04T09:52:57.143Z</time>
      </trkpt>
      <trkpt lat="46.97413" lon="8.77541">
        <ele>626</ele>
        <time>2021-08-04T09:53:05.043Z</time>
      </trkpt>
      <trkpt lat="46.97412" lon="8.7754">
        <ele>626</ele>
        <time>2021-08-04T09:53:06.042Z</time>
      </trkpt>
      <trkpt lat="46.97412" lon="8.77538">
        <ele>626</ele>
        <time>2021-08-04T09:53:07.042Z</time>
      </trkpt>
      <trkpt lat="46.97411" lon="8.77536">
        <ele>626</ele>
        <time>2021-08-04T09:53:08.043Z</time>
      </trkpt>
      <trkpt lat="46.9741" lon="8.77535">
        <ele>627</ele>
        <time>2021-08-04T09:53:09.042Z</time>
      </trkpt>
      <trkpt lat="46.9741" lon="8.77533">
        <ele>627</ele>
        <time>2021-08-04T09:53:10.043Z</time>
      </trkpt>
      <trkpt lat="46.97409" lon="8.77531">
        <ele>627</ele>
        <time>2021-08-04T09:53:11.043Z</time>
      </trkpt>
      <trkpt lat="46.97408" lon="8.77529">
        <ele>628</ele>
        <time>2021-08-04T09:53:12.043Z</time>
      </trkpt>
      <trkpt lat="46.97408" lon="8.77528">
        <ele>628</ele>
        <time>2021-08-04T09:53:13.042Z</time>
      </trkpt>
      <trkpt lat="46.97407" lon="8.77526">
        <ele>628</ele>
        <time>2021-08-04T09:53:14.043Z</time>
      </trkpt>
      <trkpt lat="46.97407" lon="8.77525">
        <ele>628</ele>
        <time>2021-08-04T09:53:17.124Z</time>
      </trkpt>
      <trkpt lat="46.97406" lon="8.77523">
        <ele>628</ele>
        <time>2021-08-04T09:53:21.055Z</time>
      </trkpt>
      <trkpt lat="46.97405" lon="8.77521">
        <ele>628</ele>
        <time>2021-08-04T09:53:22.055Z</time>
      </trkpt>
      <trkpt lat="46.97405" lon="8.77519">
        <ele>628</ele>
        <time>2021-08-04T09:53:23.055Z</time>
      </trkpt>
      <trkpt lat="46.97404" lon="8.77518">
        <ele>627</ele>
        <time>2021-08-04T09:53:24.055Z</time>
      </trkpt>
      <trkpt lat="46.97403" lon="8.77516">
        <ele>627</ele>
        <time>2021-08-04T09:53:25.055Z</time>
      </trkpt>
      <trkpt lat="46.97403" lon="8.77514">
        <ele>627</ele>
        <time>2021-08-04T09:53:26.054Z</time>
      </trkpt>
      <trkpt lat="46.97402" lon="8.77512">
        <ele>627</ele>
        <time>2021-08-04T09:53:27.054Z</time>
      </trkpt>
      <trkpt lat="46.97402" lon="8.7751">
        <ele>628</ele>
        <time>2021-08-04T09:53:28.054Z</time>
      </trkpt>
      <trkpt lat="46.97401" lon="8.77509">
        <ele>628</ele>
        <time>2021-08-04T09:53:29.054Z</time>
      </trkpt>
      <trkpt lat="46.974" lon="8.77507">
        <ele>628</ele>
        <time>2021-08-04T09:53:30.055Z</time>
      </trkpt>
      <trkpt lat="46.974" lon="8.77506">
        <ele>628</ele>
        <time>2021-08-04T09:53:31.055Z</time>
      </trkpt>
      <trkpt lat="46.974" lon="8.77504">
        <ele>628</ele>
        <time>2021-08-04T09:53:32.055Z</time>
      </trkpt>
      <trkpt lat="46.97399" lon="8.77503">
        <ele>628</ele>
        <time>2021-08-04T09:53:33.055Z</time>
      </trkpt>
      <trkpt lat="46.97398" lon="8.77501">
        <ele>628</ele>
        <time>2021-08-04T09:53:34.055Z</time>
      </trkpt>
      <trkpt lat="46.97398" lon="8.77499">
        <ele>628</ele>
        <time>2021-08-04T09:53:35.054Z</time>
      </trkpt>
      <trkpt lat="46.97397" lon="8.77498">
        <ele>628</ele>
        <time>2021-08-04T09:53:36.055Z</time>
      </trkpt>
      <trkpt lat="46.97397" lon="8.77495">
        <ele>629</ele>
        <time>2021-08-04T09:53:37.055Z</time>
      </trkpt>
      <trkpt lat="46.97396" lon="8.77493">
        <ele>629</ele>
        <time>2021-08-04T09:53:38.055Z</time>
      </trkpt>
      <trkpt lat="46.97395" lon="8.77491">
        <ele>630</ele>
        <time>2021-08-04T09:53:39.054Z</time>
      </trkpt>
      <trkpt lat="46.97395" lon="8.7749">
        <ele>630</ele>
        <time>2021-08-04T09:53:40.054Z</time>
      </trkpt>
      <trkpt lat="46.97395" lon="8.77488">
        <ele>631</ele>
        <time>2021-08-04T09:53:41.055Z</time>
      </trkpt>
      <trkpt lat="46.97394" lon="8.77487">
        <ele>631</ele>
        <time>2021-08-04T09:53:42.054Z</time>
      </trkpt>
      <trkpt lat="46.97394" lon="8.77486">
        <ele>631</ele>
        <time>2021-08-04T09:53:43.054Z</time>
      </trkpt>
      <trkpt lat="46.97394" lon="8.77485">
        <ele>631</ele>
        <time>2021-08-04T09:53:44.054Z</time>
      </trkpt>
      <trkpt lat="46.97393" lon="8.77484">
        <ele>631</ele>
        <time>2021-08-04T09:53:45.054Z</time>
      </trkpt>
      <trkpt lat="46.97392" lon="8.77482">
        <ele>631</ele>
        <time>2021-08-04T09:53:46.054Z</time>
      </trkpt>
      <trkpt lat="46.97391" lon="8.7748">
        <ele>631</ele>
        <time>2021-08-04T09:53:47.055Z</time>
      </trkpt>
      <trkpt lat="46.9739" lon="8.77478">
        <ele>630</ele>
        <time>2021-08-04T09:53:48.055Z</time>
      </trkpt>
      <trkpt lat="46.97389" lon="8.77477">
        <ele>629</ele>
        <time>2021-08-04T09:53:49.054Z</time>
      </trkpt>
      <trkpt lat="46.97388" lon="8.77476">
        <ele>629</ele>
        <time>2021-08-04T09:53:50.054Z</time>
      </trkpt>
      <trkpt lat="46.97386" lon="8.77475">
        <ele>628</ele>
        <time>2021-08-04T09:53:51.055Z</time>
      </trkpt>
      <trkpt lat="46.97385" lon="8.77474">
        <ele>628</ele>
        <time>2021-08-04T09:53:52.055Z</time>
      </trkpt>
      <trkpt lat="46.97384" lon="8.77472">
        <ele>628</ele>
        <time>2021-08-04T09:53:53.055Z</time>
      </trkpt>
      <trkpt lat="46.97383" lon="8.77471">
        <ele>628</ele>
        <time>2021-08-04T09:53:54.055Z</time>
      </trkpt>
      <trkpt lat="46.97382" lon="8.77469">
        <ele>629</ele>
        <time>2021-08-04T09:53:55.055Z</time>
      </trkpt>
      <trkpt lat="46.97381" lon="8.77468">
        <ele>629</ele>
        <time>2021-08-04T09:53:56.054Z</time>
      </trkpt>
      <trkpt lat="46.97381" lon="8.77467">
        <ele>629</ele>
        <time>2021-08-04T09:53:57.055Z</time>
      </trkpt>
      <trkpt lat="46.9738" lon="8.77466">
        <ele>629</ele>
        <time>2021-08-04T09:53:58.055Z</time>
      </trkpt>
      <trkpt lat="46.97379" lon="8.77465">
        <ele>628</ele>
        <time>2021-08-04T09:53:59.055Z</time>
      </trkpt>
      <trkpt lat="46.97379" lon="8.77464">
        <ele>628</ele>
        <time>2021-08-04T09:54:00.054Z</time>
      </trkpt>
      <trkpt lat="46.97378" lon="8.77462">
        <ele>628</ele>
        <time>2021-08-04T09:54:01.055Z</time>
      </trkpt>
      <trkpt lat="46.97378" lon="8.77461">
        <ele>628</ele>
        <time>2021-08-04T09:54:02.054Z</time>
      </trkpt>
      <trkpt lat="46.97377" lon="8.77459">
        <ele>628</ele>
        <time>2021-08-04T09:54:03.054Z</time>
      </trkpt>
      <trkpt lat="46.97377" lon="8.77458">
        <ele>628</ele>
        <time>2021-08-04T09:54:04.054Z</time>
      </trkpt>
      <trkpt lat="46.97376" lon="8.77457">
        <ele>628</ele>
        <time>2021-08-04T09:54:05.054Z</time>
      </trkpt>
      <trkpt lat="46.97376" lon="8.77455">
        <ele>628</ele>
        <time>2021-08-04T09:54:06.054Z</time>
      </trkpt>
      <trkpt lat="46.97375" lon="8.77453">
        <ele>628</ele>
        <time>2021-08-04T09:54:07.055Z</time>
      </trkpt>
      <trkpt lat="46.97375" lon="8.77451">
        <ele>628</ele>
        <time>2021-08-04T09:54:08.054Z</time>
      </trkpt>
      <trkpt lat="46.97374" lon="8.7745">
        <ele>628</ele>
        <time>2021-08-04T09:54:09.054Z</time>
      </trkpt>
      <trkpt lat="46.97374" lon="8.77448">
        <ele>627</ele>
        <time>2021-08-04T09:54:10.055Z</time>
      </trkpt>
      <trkpt lat="46.97373" lon="8.77447">
        <ele>627</ele>
        <time>2021-08-04T09:54:11.055Z</time>
      </trkpt>
      <trkpt lat="46.97373" lon="8.77445">
        <ele>627</ele>
        <time>2021-08-04T09:54:12.054Z</time>
      </trkpt>
      <trkpt lat="46.97372" lon="8.77443">
        <ele>627</ele>
        <time>2021-08-04T09:54:13.054Z</time>
      </trkpt>
      <trkpt lat="46.97372" lon="8.77441">
        <ele>627</ele>
        <time>2021-08-04T09:54:14.055Z</time>
      </trkpt>
      <trkpt lat="46.97371" lon="8.77439">
        <ele>627</ele>
        <time>2021-08-04T09:54:15.054Z</time>
      </trkpt>
      <trkpt lat="46.97371" lon="8.77437">
        <ele>627</ele>
        <time>2021-08-04T09:54:16.055Z</time>
      </trkpt>
      <trkpt lat="46.9737" lon="8.77436">
        <ele>627</ele>
        <time>2021-08-04T09:54:17.054Z</time>
      </trkpt>
      <trkpt lat="46.9737" lon="8.77435">
        <ele>627</ele>
        <time>2021-08-04T09:54:18.055Z</time>
      </trkpt>
      <trkpt lat="46.97369" lon="8.77433">
        <ele>627</ele>
        <time>2021-08-04T09:54:19.054Z</time>
      </trkpt>
      <trkpt lat="46.97368" lon="8.77432">
        <ele>627</ele>
        <time>2021-08-04T09:54:20.055Z</time>
      </trkpt>
      <trkpt lat="46.97368" lon="8.7743">
        <ele>627</ele>
        <time>2021-08-04T09:54:21.054Z</time>
      </trkpt>
      <trkpt lat="46.97368" lon="8.77428">
        <ele>627</ele>
        <time>2021-08-04T09:54:22.055Z</time>
      </trkpt>
      <trkpt lat="46.97368" lon="8.77426">
        <ele>628</ele>
        <time>2021-08-04T09:54:23.055Z</time>
      </trkpt>
      <trkpt lat="46.97367" lon="8.77424">
        <ele>628</ele>
        <time>2021-08-04T09:54:24.055Z</time>
      </trkpt>
      <trkpt lat="46.97367" lon="8.77423">
        <ele>628</ele>
        <time>2021-08-04T09:54:25.054Z</time>
      </trkpt>
      <trkpt lat="46.97366" lon="8.77421">
        <ele>628</ele>
        <time>2021-08-04T09:54:26.054Z</time>
      </trkpt>
      <trkpt lat="46.97365" lon="8.7742">
        <ele>628</ele>
        <time>2021-08-04T09:54:27.055Z</time>
      </trkpt>
      <trkpt lat="46.97365" lon="8.77418">
        <ele>629</ele>
        <time>2021-08-04T09:54:28.055Z</time>
      </trkpt>
      <trkpt lat="46.97365" lon="8.77416">
        <ele>629</ele>
        <time>2021-08-04T09:54:29.054Z</time>
      </trkpt>
      <trkpt lat="46.97364" lon="8.77415">
        <ele>629</ele>
        <time>2021-08-04T09:54:30.054Z</time>
      </trkpt>
      <trkpt lat="46.97363" lon="8.77413">
        <ele>629</ele>
        <time>2021-08-04T09:54:31.054Z</time>
      </trkpt>
      <trkpt lat="46.97362" lon="8.77412">
        <ele>629</ele>
        <time>2021-08-04T09:54:32.055Z</time>
      </trkpt>
      <trkpt lat="46.97362" lon="8.7741">
        <ele>629</ele>
        <time>2021-08-04T09:54:33.055Z</time>
      </trkpt>
      <trkpt lat="46.97362" lon="8.77408">
        <ele>629</ele>
        <time>2021-08-04T09:54:34.054Z</time>
      </trkpt>
      <trkpt lat="46.97361" lon="8.77406">
        <ele>629</ele>
        <time>2021-08-04T09:54:35.055Z</time>
      </trkpt>
      <trkpt lat="46.97361" lon="8.77404">
        <ele>629</ele>
        <time>2021-08-04T09:54:36.054Z</time>
      </trkpt>
      <trkpt lat="46.97361" lon="8.77402">
        <ele>630</ele>
        <time>2021-08-04T09:54:37.055Z</time>
      </trkpt>
      <trkpt lat="46.97361" lon="8.77399">
        <ele>630</ele>
        <time>2021-08-04T09:54:38.055Z</time>
      </trkpt>
      <trkpt lat="46.9736" lon="8.77397">
        <ele>630</ele>
        <time>2021-08-04T09:54:39.054Z</time>
      </trkpt>
      <trkpt lat="46.9736" lon="8.77395">
        <ele>631</ele>
        <time>2021-08-04T09:54:40.055Z</time>
      </trkpt>
      <trkpt lat="46.97359" lon="8.77394">
        <ele>631</ele>
        <time>2021-08-04T09:54:41.055Z</time>
      </trkpt>
      <trkpt lat="46.97359" lon="8.77391">
        <ele>631</ele>
        <time>2021-08-04T09:54:42.054Z</time>
      </trkpt>
      <trkpt lat="46.97359" lon="8.7739">
        <ele>631</ele>
        <time>2021-08-04T09:54:43.055Z</time>
      </trkpt>
      <trkpt lat="46.97358" lon="8.77388">
        <ele>630</ele>
        <time>2021-08-04T09:54:44.054Z</time>
      </trkpt>
      <trkpt lat="46.97358" lon="8.77386">
        <ele>630</ele>
        <time>2021-08-04T09:54:45.055Z</time>
      </trkpt>
      <trkpt lat="46.97357" lon="8.77384">
        <ele>629</ele>
        <time>2021-08-04T09:54:46.054Z</time>
      </trkpt>
      <trkpt lat="46.97357" lon="8.77382">
        <ele>629</ele>
        <time>2021-08-04T09:54:47.055Z</time>
      </trkpt>
      <trkpt lat="46.97357" lon="8.7738">
        <ele>629</ele>
        <time>2021-08-04T09:54:48.055Z</time>
      </trkpt>
      <trkpt lat="46.97357" lon="8.77378">
        <ele>629</ele>
        <time>2021-08-04T09:54:49.055Z</time>
      </trkpt>
      <trkpt lat="46.97356" lon="8.77377">
        <ele>629</ele>
        <time>2021-08-04T09:54:50.054Z</time>
      </trkpt>
      <trkpt lat="46.97355" lon="8.77374">
        <ele>629</ele>
        <time>2021-08-04T09:54:51.055Z</time>
      </trkpt>
      <trkpt lat="46.97355" lon="8.77373">
        <ele>629</ele>
        <time>2021-08-04T09:54:52.055Z</time>
      </trkpt>
      <trkpt lat="46.97354" lon="8.77371">
        <ele>629</ele>
        <time>2021-08-04T09:54:53.055Z</time>
      </trkpt>
      <trkpt lat="46.97353" lon="8.7737">
        <ele>629</ele>
        <time>2021-08-04T09:54:54.054Z</time>
      </trkpt>
      <trkpt lat="46.97353" lon="8.77368">
        <ele>629</ele>
        <time>2021-08-04T09:54:55.055Z</time>
      </trkpt>
      <trkpt lat="46.97353" lon="8.77366">
        <ele>628</ele>
        <time>2021-08-04T09:54:56.055Z</time>
      </trkpt>
      <trkpt lat="46.97353" lon="8.77364">
        <ele>628</ele>
        <time>2021-08-04T09:54:57.054Z</time>
      </trkpt>
      <trkpt lat="46.97353" lon="8.77362">
        <ele>628</ele>
        <time>2021-08-04T09:54:58.055Z</time>
      </trkpt>
      <trkpt lat="46.97353" lon="8.7736">
        <ele>628</ele>
        <time>2021-08-04T09:54:59.054Z</time>
      </trkpt>
      <trkpt lat="46.97353" lon="8.77359">
        <ele>628</ele>
        <time>2021-08-04T09:55:00.055Z</time>
      </trkpt>
      <trkpt lat="46.97353" lon="8.77357">
        <ele>629</ele>
        <time>2021-08-04T09:55:01.055Z</time>
      </trkpt>
      <trkpt lat="46.97353" lon="8.77355">
        <ele>629</ele>
        <time>2021-08-04T09:55:02.055Z</time>
      </trkpt>
      <trkpt lat="46.97352" lon="8.77353">
        <ele>629</ele>
        <time>2021-08-04T09:55:03.054Z</time>
      </trkpt>
      <trkpt lat="46.97352" lon="8.7735">
        <ele>629</ele>
        <time>2021-08-04T09:55:04.054Z</time>
      </trkpt>
      <trkpt lat="46.97351" lon="8.77348">
        <ele>629</ele>
        <time>2021-08-04T09:55:05.054Z</time>
      </trkpt>
      <trkpt lat="46.9735" lon="8.77347">
        <ele>629</ele>
        <time>2021-08-04T09:55:06.054Z</time>
      </trkpt>
      <trkpt lat="46.97349" lon="8.77345">
        <ele>629</ele>
        <time>2021-08-04T09:55:07.054Z</time>
      </trkpt>
      <trkpt lat="46.97349" lon="8.77344">
        <ele>629</ele>
        <time>2021-08-04T09:55:08.054Z</time>
      </trkpt>
      <trkpt lat="46.97347" lon="8.77344">
        <ele>628</ele>
        <time>2021-08-04T09:55:09.055Z</time>
      </trkpt>
      <trkpt lat="46.97346" lon="8.77343">
        <ele>627</ele>
        <time>2021-08-04T09:55:10.055Z</time>
      </trkpt>
      <trkpt lat="46.97345" lon="8.77342">
        <ele>627</ele>
        <time>2021-08-04T09:55:11.055Z</time>
      </trkpt>
      <trkpt lat="46.97343" lon="8.77341">
        <ele>627</ele>
        <time>2021-08-04T09:55:12.055Z</time>
      </trkpt>
      <trkpt lat="46.97342" lon="8.7734">
        <ele>626</ele>
        <time>2021-08-04T09:55:13.055Z</time>
      </trkpt>
      <trkpt lat="46.97341" lon="8.77339">
        <ele>626</ele>
        <time>2021-08-04T09:55:14.054Z</time>
      </trkpt>
      <trkpt lat="46.9734" lon="8.77339">
        <ele>626</ele>
        <time>2021-08-04T09:55:15.055Z</time>
      </trkpt>
      <trkpt lat="46.97338" lon="8.77339">
        <ele>626</ele>
        <time>2021-08-04T09:55:16.055Z</time>
      </trkpt>
      <trkpt lat="46.97337" lon="8.77339">
        <ele>627</ele>
        <time>2021-08-04T09:55:17.055Z</time>
      </trkpt>
      <trkpt lat="46.97336" lon="8.77338">
        <ele>627</ele>
        <time>2021-08-04T09:55:18.055Z</time>
      </trkpt>
      <trkpt lat="46.97334" lon="8.77338">
        <ele>628</ele>
        <time>2021-08-04T09:55:19.055Z</time>
      </trkpt>
      <trkpt lat="46.97333" lon="8.77338">
        <ele>629</ele>
        <time>2021-08-04T09:55:20.055Z</time>
      </trkpt>
      <trkpt lat="46.97331" lon="8.77338">
        <ele>628</ele>
        <time>2021-08-04T09:55:21.055Z</time>
      </trkpt>
      <trkpt lat="46.9733" lon="8.77338">
        <ele>628</ele>
        <time>2021-08-04T09:55:22.055Z</time>
      </trkpt>
      <trkpt lat="46.97329" lon="8.77338">
        <ele>628</ele>
        <time>2021-08-04T09:55:23.055Z</time>
      </trkpt>
      <trkpt lat="46.97327" lon="8.77338">
        <ele>627</ele>
        <time>2021-08-04T09:55:24.054Z</time>
      </trkpt>
      <trkpt lat="46.97326" lon="8.77337">
        <ele>627</ele>
        <time>2021-08-04T09:55:25.055Z</time>
      </trkpt>
      <trkpt lat="46.97325" lon="8.77337">
        <ele>627</ele>
        <time>2021-08-04T09:55:26.054Z</time>
      </trkpt>
      <trkpt lat="46.97323" lon="8.77336">
        <ele>627</ele>
        <time>2021-08-04T09:55:27.055Z</time>
      </trkpt>
      <trkpt lat="46.97322" lon="8.77336">
        <ele>626</ele>
        <time>2021-08-04T09:55:28.055Z</time>
      </trkpt>
      <trkpt lat="46.97321" lon="8.77336">
        <ele>626</ele>
        <time>2021-08-04T09:55:29.055Z</time>
      </trkpt>
      <trkpt lat="46.9732" lon="8.77336">
        <ele>626</ele>
        <time>2021-08-04T09:55:30.054Z</time>
      </trkpt>
      <trkpt lat="46.97319" lon="8.77337">
        <ele>626</ele>
        <time>2021-08-04T09:55:31.054Z</time>
      </trkpt>
      <trkpt lat="46.97318" lon="8.77338">
        <ele>626</ele>
        <time>2021-08-04T09:55:32.054Z</time>
      </trkpt>
      <trkpt lat="46.97316" lon="8.77338">
        <ele>626</ele>
        <time>2021-08-04T09:55:33.055Z</time>
      </trkpt>
      <trkpt lat="46.97315" lon="8.77338">
        <ele>627</ele>
        <time>2021-08-04T09:55:34.055Z</time>
      </trkpt>
      <trkpt lat="46.97313" lon="8.77338">
        <ele>627</ele>
        <time>2021-08-04T09:55:35.055Z</time>
      </trkpt>
      <trkpt lat="46.97312" lon="8.77338">
        <ele>628</ele>
        <time>2021-08-04T09:55:36.055Z</time>
      </trkpt>
      <trkpt lat="46.97311" lon="8.77338">
        <ele>629</ele>
        <time>2021-08-04T09:55:37.054Z</time>
      </trkpt>
      <trkpt lat="46.9731" lon="8.77338">
        <ele>629</ele>
        <time>2021-08-04T09:55:38.055Z</time>
      </trkpt>
      <trkpt lat="46.97309" lon="8.77337">
        <ele>629</ele>
        <time>2021-08-04T09:55:39.055Z</time>
      </trkpt>
      <trkpt lat="46.97308" lon="8.77337">
        <ele>630</ele>
        <time>2021-08-04T09:55:40.054Z</time>
      </trkpt>
      <trkpt lat="46.97307" lon="8.77337">
        <ele>630</ele>
        <time>2021-08-04T09:55:41.055Z</time>
      </trkpt>
      <trkpt lat="46.97305" lon="8.77337">
        <ele>630</ele>
        <time>2021-08-04T09:55:42.055Z</time>
      </trkpt>
      <trkpt lat="46.97304" lon="8.77338">
        <ele>629</ele>
        <time>2021-08-04T09:55:43.055Z</time>
      </trkpt>
      <trkpt lat="46.97304" lon="8.77338">
        <ele>629</ele>
        <time>2021-08-04T09:55:44.055Z</time>
      </trkpt>
      <trkpt lat="46.97303" lon="8.77338">
        <ele>629</ele>
        <time>2021-08-04T09:55:45.055Z</time>
      </trkpt>
      <trkpt lat="46.97302" lon="8.77338">
        <ele>629</ele>
        <time>2021-08-04T09:55:46.054Z</time>
      </trkpt>
      <trkpt lat="46.97301" lon="8.77338">
        <ele>628</ele>
        <time>2021-08-04T09:55:47.055Z</time>
      </trkpt>
      <trkpt lat="46.973" lon="8.77337">
        <ele>628</ele>
        <time>2021-08-04T09:55:48.055Z</time>
      </trkpt>
      <trkpt lat="46.97299" lon="8.77336">
        <ele>628</ele>
        <time>2021-08-04T09:55:49.055Z</time>
      </trkpt>
      <trkpt lat="46.97298" lon="8.77335">
        <ele>628</ele>
        <time>2021-08-04T09:55:50.055Z</time>
      </trkpt>
      <trkpt lat="46.97298" lon="8.77333">
        <ele>628</ele>
        <time>2021-08-04T09:55:51.055Z</time>
      </trkpt>
      <trkpt lat="46.97298" lon="8.77332">
        <ele>628</ele>
        <time>2021-08-04T09:55:52.055Z</time>
      </trkpt>
      <trkpt lat="46.97298" lon="8.7733">
        <ele>628</ele>
        <time>2021-08-04T09:55:53.054Z</time>
      </trkpt>
      <trkpt lat="46.97297" lon="8.77329">
        <ele>627</ele>
        <time>2021-08-04T09:55:54.055Z</time>
      </trkpt>
      <trkpt lat="46.97297" lon="8.77327">
        <ele>627</ele>
        <time>2021-08-04T09:55:55.055Z</time>
      </trkpt>
      <trkpt lat="46.97297" lon="8.77325">
        <ele>627</ele>
        <time>2021-08-04T09:55:56.055Z</time>
      </trkpt>
      <trkpt lat="46.97297" lon="8.77323">
        <ele>627</ele>
        <time>2021-08-04T09:55:57.055Z</time>
      </trkpt>
      <trkpt lat="46.97297" lon="8.77321">
        <ele>626</ele>
        <time>2021-08-04T09:55:58.055Z</time>
      </trkpt>
      <trkpt lat="46.97297" lon="8.77319">
        <ele>626</ele>
        <time>2021-08-04T09:55:59.055Z</time>
      </trkpt>
      <trkpt lat="46.97296" lon="8.77317">
        <ele>627</ele>
        <time>2021-08-04T09:56:00.055Z</time>
      </trkpt>
      <trkpt lat="46.97295" lon="8.77316">
        <ele>627</ele>
        <time>2021-08-04T09:56:01.054Z</time>
      </trkpt>
      <trkpt lat="46.97293" lon="8.77315">
        <ele>627</ele>
        <time>2021-08-04T09:56:02.054Z</time>
      </trkpt>
      <trkpt lat="46.97293" lon="8.77314">
        <ele>626</ele>
        <time>2021-08-04T09:56:03.055Z</time>
      </trkpt>
      <trkpt lat="46.97292" lon="8.77313">
        <ele>626</ele>
        <time>2021-08-04T09:56:04.055Z</time>
      </trkpt>
      <trkpt lat="46.97291" lon="8.77312">
        <ele>626</ele>
        <time>2021-08-04T09:56:05.054Z</time>
      </trkpt>
      <trkpt lat="46.9729" lon="8.77311">
        <ele>626</ele>
        <time>2021-08-04T09:56:06.055Z</time>
      </trkpt>
      <trkpt lat="46.97289" lon="8.77309">
        <ele>626</ele>
        <time>2021-08-04T09:56:07.055Z</time>
      </trkpt>
      <trkpt lat="46.97289" lon="8.77308">
        <ele>626</ele>
        <time>2021-08-04T09:56:08.055Z</time>
      </trkpt>
      <trkpt lat="46.97289" lon="8.77306">
        <ele>626</ele>
        <time>2021-08-04T09:56:09.054Z</time>
      </trkpt>
      <trkpt lat="46.97288" lon="8.77305">
        <ele>625</ele>
        <time>2021-08-04T09:56:10.055Z</time>
      </trkpt>
      <trkpt lat="46.97288" lon="8.77303">
        <ele>626</ele>
        <time>2021-08-04T09:56:11.055Z</time>
      </trkpt>
      <trkpt lat="46.97287" lon="8.77301">
        <ele>626</ele>
        <time>2021-08-04T09:56:12.055Z</time>
      </trkpt>
      <trkpt lat="46.97287" lon="8.773">
        <ele>626</ele>
        <time>2021-08-04T09:56:13.054Z</time>
      </trkpt>
      <trkpt lat="46.97286" lon="8.77299">
        <ele>626</ele>
        <time>2021-08-04T09:56:14.055Z</time>
      </trkpt>
      <trkpt lat="46.97286" lon="8.77298">
        <ele>626</ele>
        <time>2021-08-04T09:56:15.055Z</time>
      </trkpt>
      <trkpt lat="46.97286" lon="8.77297">
        <ele>626</ele>
        <time>2021-08-04T09:56:16.055Z</time>
      </trkpt>
      <trkpt lat="46.97287" lon="8.77295">
        <ele>627</ele>
        <time>2021-08-04T09:56:17.054Z</time>
      </trkpt>
      <trkpt lat="46.97287" lon="8.77294">
        <ele>627</ele>
        <time>2021-08-04T09:56:18.055Z</time>
      </trkpt>
      <trkpt lat="46.97288" lon="8.77293">
        <ele>627</ele>
        <time>2021-08-04T09:56:19.055Z</time>
      </trkpt>
      <trkpt lat="46.97288" lon="8.77292">
        <ele>627</ele>
        <time>2021-08-04T09:56:20.054Z</time>
      </trkpt>
      <trkpt lat="46.97289" lon="8.77291">
        <ele>628</ele>
        <time>2021-08-04T09:56:21.055Z</time>
      </trkpt>
      <trkpt lat="46.97289" lon="8.7729">
        <ele>628</ele>
        <time>2021-08-04T09:56:22.055Z</time>
      </trkpt>
      <trkpt lat="46.97289" lon="8.7729">
        <ele>628</ele>
        <time>2021-08-04T09:56:23.055Z</time>
      </trkpt>
      <trkpt lat="46.97288" lon="8.7729">
        <ele>628</ele>
        <time>2021-08-04T09:56:24.055Z</time>
      </trkpt>
      <trkpt lat="46.97288" lon="8.7729">
        <ele>628</ele>
        <time>2021-08-04T09:56:25.054Z</time>
      </trkpt>
      <trkpt lat="46.97288" lon="8.7729">
        <ele>628</ele>
        <time>2021-08-04T09:56:28.025Z</time>
      </trkpt>
      <trkpt lat="46.97289" lon="8.77292">
        <ele>632</ele>
        <time>2021-08-04T09:56:29.025Z</time>
      </trkpt>
      <trkpt lat="46.97289" lon="8.77294">
        <ele>632</ele>
        <time>2021-08-04T09:56:30.024Z</time>
      </trkpt>
      <trkpt lat="46.97289" lon="8.77294">
        <ele>633</ele>
        <time>2021-08-04T09:56:31.024Z</time>
      </trkpt>
      <trkpt lat="46.97289" lon="8.77294">
        <ele>633</ele>
        <time>2021-08-04T09:56:44.143Z</time>
      </trkpt>
      <trkpt lat="46.9729" lon="8.77294">
        <ele>635</ele>
        <time>2021-08-04T09:56:45.144Z</time>
      </trkpt>
      <trkpt lat="46.9729" lon="8.77295">
        <ele>635</ele>
        <time>2021-08-04T09:56:46.143Z</time>
      </trkpt>
      <trkpt lat="46.9729" lon="8.77295">
        <ele>635</ele>
        <time>2021-08-04T09:56:47.143Z</time>
      </trkpt>
      <trkpt lat="46.9729" lon="8.77296">
        <ele>635</ele>
        <time>2021-08-04T09:56:48.143Z</time>
      </trkpt>
      <trkpt lat="46.97289" lon="8.77297">
        <ele>634</ele>
        <time>2021-08-04T09:56:49.144Z</time>
      </trkpt>
      <trkpt lat="46.97288" lon="8.77298">
        <ele>634</ele>
        <time>2021-08-04T09:56:50.144Z</time>
      </trkpt>
      <trkpt lat="46.97288" lon="8.77299">
        <ele>634</ele>
        <time>2021-08-04T09:56:51.144Z</time>
      </trkpt>
      <trkpt lat="46.97287" lon="8.77299">
        <ele>634</ele>
        <time>2021-08-04T09:56:52.143Z</time>
      </trkpt>
      <trkpt lat="46.97288" lon="8.773">
        <ele>634</ele>
        <time>2021-08-04T09:57:09.164Z</time>
      </trkpt>
      <trkpt lat="46.97283" lon="8.77302">
        <ele>636</ele>
        <time>2021-08-04T09:57:10.163Z</time>
      </trkpt>
      <trkpt lat="46.97283" lon="8.77302">
        <ele>635</ele>
        <time>2021-08-04T09:57:36.280Z</time>
      </trkpt>
      <trkpt lat="46.97283" lon="8.77302">
        <ele>635</ele>
        <time>2021-08-04T09:57:37.279Z</time>
      </trkpt>
      <trkpt lat="46.97283" lon="8.77302">
        <ele>635</ele>
        <time>2021-08-04T09:57:38.280Z</time>
      </trkpt>
      <trkpt lat="46.97281" lon="8.77302">
        <ele>632</ele>
        <time>2021-08-04T09:57:57.435Z</time>
      </trkpt>
      <trkpt lat="46.97281" lon="8.77302">
        <ele>632</ele>
        <time>2021-08-04T09:57:58.435Z</time>
      </trkpt>
      <trkpt lat="46.9728" lon="8.77306">
        <ele>638</ele>
        <time>2021-08-04T09:57:59.435Z</time>
      </trkpt>
      <trkpt lat="46.97279" lon="8.77308">
        <ele>639</ele>
        <time>2021-08-04T09:58:09.509Z</time>
      </trkpt>
      <trkpt lat="46.97279" lon="8.77309">
        <ele>646</ele>
        <time>2021-08-04T09:58:10.510Z</time>
      </trkpt>
      <trkpt lat="46.97278" lon="8.77311">
        <ele>647</ele>
        <time>2021-08-04T09:58:11.511Z</time>
      </trkpt>
      <trkpt lat="46.97278" lon="8.7731">
        <ele>648</ele>
        <time>2021-08-04T09:58:12.511Z</time>
      </trkpt>
      <trkpt lat="46.97278" lon="8.77309">
        <ele>648</ele>
        <time>2021-08-04T09:58:13.511Z</time>
      </trkpt>
      <trkpt lat="46.97278" lon="8.77308">
        <ele>648</ele>
        <time>2021-08-04T09:58:14.510Z</time>
      </trkpt>
      <trkpt lat="46.97278" lon="8.77308">
        <ele>648</ele>
        <time>2021-08-04T09:58:15.511Z</time>
      </trkpt>
      <trkpt lat="46.97278" lon="8.77309">
        <ele>648</ele>
        <time>2021-08-04T09:58:16.510Z</time>
      </trkpt>
      <trkpt lat="46.97277" lon="8.77309">
        <ele>648</ele>
        <time>2021-08-04T09:58:17.510Z</time>
      </trkpt>
      <trkpt lat="46.97276" lon="8.7731">
        <ele>648</ele>
        <time>2021-08-04T09:58:18.511Z</time>
      </trkpt>
      <trkpt lat="46.97276" lon="8.77308">
        <ele>648</ele>
        <time>2021-08-04T09:58:19.511Z</time>
      </trkpt>
      <trkpt lat="46.97275" lon="8.77308">
        <ele>648</ele>
        <time>2021-08-04T09:58:20.511Z</time>
      </trkpt>
      <trkpt lat="46.97275" lon="8.77309">
        <ele>648</ele>
        <time>2021-08-04T09:58:21.511Z</time>
      </trkpt>
      <trkpt lat="46.97272" lon="8.77305">
        <ele>648</ele>
        <time>2021-08-04T09:58:23.511Z</time>
      </trkpt>
      <trkpt lat="46.97271" lon="8.77304">
        <ele>648</ele>
        <time>2021-08-04T09:58:24.511Z</time>
      </trkpt>
      <trkpt lat="46.9727" lon="8.77303">
        <ele>648</ele>
        <time>2021-08-04T09:58:25.512Z</time>
      </trkpt>
      <trkpt lat="46.9727" lon="8.77298">
        <ele>647</ele>
        <time>2021-08-04T09:58:26.512Z</time>
      </trkpt>
      <trkpt lat="46.97271" lon="8.77295">
        <ele>647</ele>
        <time>2021-08-04T09:58:27.512Z</time>
      </trkpt>
      <trkpt lat="46.97271" lon="8.77294">
        <ele>647</ele>
        <time>2021-08-04T09:58:28.511Z</time>
      </trkpt>
      <trkpt lat="46.97271" lon="8.77294">
        <ele>646</ele>
        <time>2021-08-04T09:58:29.512Z</time>
      </trkpt>
      <trkpt lat="46.97272" lon="8.77293">
        <ele>646</ele>
        <time>2021-08-04T09:58:30.511Z</time>
      </trkpt>
      <trkpt lat="46.97273" lon="8.77291">
        <ele>646</ele>
        <time>2021-08-04T09:58:31.512Z</time>
      </trkpt>
      <trkpt lat="46.97273" lon="8.7729">
        <ele>646</ele>
        <time>2021-08-04T09:58:32.511Z</time>
      </trkpt>
      <trkpt lat="46.97273" lon="8.77289">
        <ele>646</ele>
        <time>2021-08-04T09:58:33.512Z</time>
      </trkpt>
      <trkpt lat="46.97274" lon="8.77289">
        <ele>646</ele>
        <time>2021-08-04T09:58:34.512Z</time>
      </trkpt>
      <trkpt lat="46.97275" lon="8.77289">
        <ele>645</ele>
        <time>2021-08-04T09:58:35.512Z</time>
      </trkpt>
      <trkpt lat="46.97275" lon="8.77288">
        <ele>645</ele>
        <time>2021-08-04T09:58:36.512Z</time>
      </trkpt>
      <trkpt lat="46.97275" lon="8.77288">
        <ele>645</ele>
        <time>2021-08-04T09:58:37.511Z</time>
      </trkpt>
      <trkpt lat="46.97275" lon="8.77287">
        <ele>644</ele>
        <time>2021-08-04T09:58:38.512Z</time>
      </trkpt>
      <trkpt lat="46.97275" lon="8.77288">
        <ele>644</ele>
        <time>2021-08-04T09:58:39.512Z</time>
      </trkpt>
      <trkpt lat="46.97275" lon="8.77288">
        <ele>643</ele>
        <time>2021-08-04T09:58:40.511Z</time>
      </trkpt>
      <trkpt lat="46.97275" lon="8.77288">
        <ele>642</ele>
        <time>2021-08-04T09:58:41.512Z</time>
      </trkpt>
      <trkpt lat="46.97275" lon="8.77287">
        <ele>642</ele>
        <time>2021-08-04T09:58:42.511Z</time>
      </trkpt>
      <trkpt lat="46.97276" lon="8.77287">
        <ele>641</ele>
        <time>2021-08-04T09:58:43.512Z</time>
      </trkpt>
      <trkpt lat="46.97281" lon="8.77288">
        <ele>637</ele>
        <time>2021-08-04T09:58:44.512Z</time>
      </trkpt>
      <trkpt lat="46.97282" lon="8.77288">
        <ele>637</ele>
        <time>2021-08-04T09:58:45.512Z</time>
      </trkpt>
      <trkpt lat="46.97283" lon="8.77291">
        <ele>634</ele>
        <time>2021-08-04T09:58:46.512Z</time>
      </trkpt>
      <trkpt lat="46.97282" lon="8.77293">
        <ele>634</ele>
        <time>2021-08-04T09:58:47.512Z</time>
      </trkpt>
      <trkpt lat="46.97282" lon="8.77294">
        <ele>633</ele>
        <time>2021-08-04T09:58:48.512Z</time>
      </trkpt>
      <trkpt lat="46.97282" lon="8.77293">
        <ele>633</ele>
        <time>2021-08-04T09:58:49.512Z</time>
      </trkpt>
      <trkpt lat="46.97282" lon="8.77292">
        <ele>632</ele>
        <time>2021-08-04T09:58:50.513Z</time>
      </trkpt>
      <trkpt lat="46.97282" lon="8.77292">
        <ele>632</ele>
        <time>2021-08-04T09:58:51.512Z</time>
      </trkpt>
      <trkpt lat="46.97281" lon="8.77292">
        <ele>630</ele>
        <time>2021-08-04T09:58:52.512Z</time>
      </trkpt>
      <trkpt lat="46.97281" lon="8.77291">
        <ele>630</ele>
        <time>2021-08-04T09:58:53.513Z</time>
      </trkpt>
      <trkpt lat="46.97281" lon="8.77291">
        <ele>630</ele>
        <time>2021-08-04T09:58:54.512Z</time>
      </trkpt>
      <trkpt lat="46.97281" lon="8.7729">
        <ele>629</ele>
        <time>2021-08-04T09:58:55.512Z</time>
      </trkpt>
      <trkpt lat="46.97281" lon="8.77289">
        <ele>629</ele>
        <time>2021-08-04T09:58:56.512Z</time>
      </trkpt>
      <trkpt lat="46.97281" lon="8.77288">
        <ele>629</ele>
        <time>2021-08-04T09:58:57.512Z</time>
      </trkpt>
      <trkpt lat="46.97281" lon="8.77286">
        <ele>629</ele>
        <time>2021-08-04T09:59:06.673Z</time>
      </trkpt>
      <trkpt lat="46.97281" lon="8.77285">
        <ele>629</ele>
        <time>2021-08-04T09:59:16.560Z</time>
      </trkpt>
      <trkpt lat="46.97281" lon="8.77284">
        <ele>630</ele>
        <time>2021-08-04T09:59:17.559Z</time>
      </trkpt>
      <trkpt lat="46.9728" lon="8.77283">
        <ele>630</ele>
        <time>2021-08-04T09:59:24.397Z</time>
      </trkpt>
      <trkpt lat="46.97278" lon="8.77283">
        <ele>630</ele>
        <time>2021-08-04T09:59:41.307Z</time>
      </trkpt>
      <trkpt lat="46.97277" lon="8.77283">
        <ele>631</ele>
        <time>2021-08-04T09:59:42.307Z</time>
      </trkpt>
      <trkpt lat="46.97276" lon="8.77284">
        <ele>631</ele>
        <time>2021-08-04T09:59:43.308Z</time>
      </trkpt>
      <trkpt lat="46.97274" lon="8.77285">
        <ele>631</ele>
        <time>2021-08-04T09:59:44.307Z</time>
      </trkpt>
      <trkpt lat="46.97272" lon="8.77286">
        <ele>632</ele>
        <time>2021-08-04T09:59:45.307Z</time>
      </trkpt>
      <trkpt lat="46.97271" lon="8.77286">
        <ele>632</ele>
        <time>2021-08-04T09:59:46.307Z</time>
      </trkpt>
      <trkpt lat="46.97269" lon="8.77286">
        <ele>632</ele>
        <time>2021-08-04T09:59:47.307Z</time>
      </trkpt>
      <trkpt lat="46.97268" lon="8.77284">
        <ele>632</ele>
        <time>2021-08-04T09:59:48.307Z</time>
      </trkpt>
      <trkpt lat="46.97267" lon="8.77282">
        <ele>632</ele>
        <time>2021-08-04T09:59:49.308Z</time>
      </trkpt>
      <trkpt lat="46.97266" lon="8.77279">
        <ele>632</ele>
        <time>2021-08-04T09:59:50.307Z</time>
      </trkpt>
      <trkpt lat="46.97266" lon="8.77276">
        <ele>632</ele>
        <time>2021-08-04T09:59:51.308Z</time>
      </trkpt>
      <trkpt lat="46.97266" lon="8.77273">
        <ele>632</ele>
        <time>2021-08-04T09:59:52.307Z</time>
      </trkpt>
      <trkpt lat="46.97266" lon="8.77271">
        <ele>632</ele>
        <time>2021-08-04T09:59:53.307Z</time>
      </trkpt>
      <trkpt lat="46.97266" lon="8.77269">
        <ele>632</ele>
        <time>2021-08-04T09:59:54.307Z</time>
      </trkpt>
      <trkpt lat="46.97266" lon="8.77268">
        <ele>632</ele>
        <time>2021-08-04T09:59:55.308Z</time>
      </trkpt>
      <trkpt lat="46.97264" lon="8.77266">
        <ele>632</ele>
        <time>2021-08-04T09:59:56.308Z</time>
      </trkpt>
      <trkpt lat="46.97266" lon="8.77264">
        <ele>632</ele>
        <time>2021-08-04T09:59:57.308Z</time>
      </trkpt>
      <trkpt lat="46.97265" lon="8.77262">
        <ele>632</ele>
        <time>2021-08-04T09:59:58.307Z</time>
      </trkpt>
      <trkpt lat="46.97265" lon="8.77259">
        <ele>632</ele>
        <time>2021-08-04T09:59:59.307Z</time>
      </trkpt>
      <trkpt lat="46.97265" lon="8.77258">
        <ele>632</ele>
        <time>2021-08-04T10:00:00.308Z</time>
      </trkpt>
      <trkpt lat="46.97265" lon="8.77258">
        <ele>632</ele>
        <time>2021-08-04T10:00:01.307Z</time>
      </trkpt>
      <trkpt lat="46.97265" lon="8.77259">
        <ele>632</ele>
        <time>2021-08-04T10:00:02.308Z</time>
      </trkpt>
      <trkpt lat="46.97266" lon="8.77259">
        <ele>632</ele>
        <time>2021-08-04T10:00:03.307Z</time>
      </trkpt>
      <trkpt lat="46.97266" lon="8.7726">
        <ele>632</ele>
        <time>2021-08-04T10:00:04.308Z</time>
      </trkpt>
      <trkpt lat="46.97266" lon="8.7726">
        <ele>632</ele>
        <time>2021-08-04T10:00:05.307Z</time>
      </trkpt>
      <trkpt lat="46.97267" lon="8.7726">
        <ele>632</ele>
        <time>2021-08-04T10:00:06.308Z</time>
      </trkpt>
      <trkpt lat="46.97267" lon="8.77261">
        <ele>632</ele>
        <time>2021-08-04T10:00:07.308Z</time>
      </trkpt>
      <trkpt lat="46.97267" lon="8.77262">
        <ele>632</ele>
        <time>2021-08-04T10:00:08.308Z</time>
      </trkpt>
      <trkpt lat="46.97265" lon="8.77261">
        <ele>632</ele>
        <time>2021-08-04T10:00:09.308Z</time>
      </trkpt>
      <trkpt lat="46.97262" lon="8.77258">
        <ele>632</ele>
        <time>2021-08-04T10:00:10.308Z</time>
      </trkpt>
      <trkpt lat="46.97261" lon="8.77255">
        <ele>632</ele>
        <time>2021-08-04T10:00:11.308Z</time>
      </trkpt>
      <trkpt lat="46.9726" lon="8.77252">
        <ele>632</ele>
        <time>2021-08-04T10:00:12.308Z</time>
      </trkpt>
      <trkpt lat="46.97261" lon="8.77249">
        <ele>632</ele>
        <time>2021-08-04T10:00:13.307Z</time>
      </trkpt>
      <trkpt lat="46.97261" lon="8.77247">
        <ele>632</ele>
        <time>2021-08-04T10:00:14.308Z</time>
      </trkpt>
      <trkpt lat="46.97261" lon="8.77244">
        <ele>632</ele>
        <time>2021-08-04T10:00:15.307Z</time>
      </trkpt>
      <trkpt lat="46.9726" lon="8.77242">
        <ele>633</ele>
        <time>2021-08-04T10:00:16.307Z</time>
      </trkpt>
      <trkpt lat="46.97261" lon="8.7724">
        <ele>633</ele>
        <time>2021-08-04T10:00:17.308Z</time>
      </trkpt>
      <trkpt lat="46.97261" lon="8.77237">
        <ele>633</ele>
        <time>2021-08-04T10:00:18.308Z</time>
      </trkpt>
      <trkpt lat="46.97261" lon="8.77235">
        <ele>633</ele>
        <time>2021-08-04T10:00:19.307Z</time>
      </trkpt>
      <trkpt lat="46.97261" lon="8.77233">
        <ele>633</ele>
        <time>2021-08-04T10:00:20.308Z</time>
      </trkpt>
      <trkpt lat="46.97262" lon="8.77232">
        <ele>633</ele>
        <time>2021-08-04T10:00:21.308Z</time>
      </trkpt>
      <trkpt lat="46.97264" lon="8.77231">
        <ele>634</ele>
        <time>2021-08-04T10:00:22.308Z</time>
      </trkpt>
      <trkpt lat="46.97265" lon="8.7723">
        <ele>634</ele>
        <time>2021-08-04T10:00:23.307Z</time>
      </trkpt>
      <trkpt lat="46.97266" lon="8.7723">
        <ele>634</ele>
        <time>2021-08-04T10:00:24.307Z</time>
      </trkpt>
      <trkpt lat="46.97267" lon="8.77229">
        <ele>634</ele>
        <time>2021-08-04T10:00:25.308Z</time>
      </trkpt>
      <trkpt lat="46.97268" lon="8.77228">
        <ele>634</ele>
        <time>2021-08-04T10:00:26.308Z</time>
      </trkpt>
      <trkpt lat="46.97267" lon="8.77227">
        <ele>635</ele>
        <time>2021-08-04T10:00:27.308Z</time>
      </trkpt>
      <trkpt lat="46.97267" lon="8.77226">
        <ele>635</ele>
        <time>2021-08-04T10:00:28.307Z</time>
      </trkpt>
      <trkpt lat="46.97266" lon="8.77224">
        <ele>635</ele>
        <time>2021-08-04T10:00:29.308Z</time>
      </trkpt>
      <trkpt lat="46.97265" lon="8.77222">
        <ele>635</ele>
        <time>2021-08-04T10:00:30.308Z</time>
      </trkpt>
      <trkpt lat="46.97264" lon="8.7722">
        <ele>635</ele>
        <time>2021-08-04T10:00:31.308Z</time>
      </trkpt>
      <trkpt lat="46.97263" lon="8.77217">
        <ele>636</ele>
        <time>2021-08-04T10:00:32.308Z</time>
      </trkpt>
      <trkpt lat="46.97261" lon="8.77215">
        <ele>636</ele>
        <time>2021-08-04T10:00:33.307Z</time>
      </trkpt>
      <trkpt lat="46.9726" lon="8.77213">
        <ele>636</ele>
        <time>2021-08-04T10:00:34.308Z</time>
      </trkpt>
      <trkpt lat="46.97258" lon="8.77212">
        <ele>636</ele>
        <time>2021-08-04T10:00:35.308Z</time>
      </trkpt>
      <trkpt lat="46.97256" lon="8.77211">
        <ele>636</ele>
        <time>2021-08-04T10:00:36.308Z</time>
      </trkpt>
      <trkpt lat="46.97255" lon="8.77211">
        <ele>636</ele>
        <time>2021-08-04T10:00:37.308Z</time>
      </trkpt>
      <trkpt lat="46.97253" lon="8.7721">
        <ele>636</ele>
        <time>2021-08-04T10:00:38.308Z</time>
      </trkpt>
      <trkpt lat="46.97253" lon="8.77208">
        <ele>636</ele>
        <time>2021-08-04T10:00:39.308Z</time>
      </trkpt>
      <trkpt lat="46.97253" lon="8.77206">
        <ele>637</ele>
        <time>2021-08-04T10:00:40.307Z</time>
      </trkpt>
      <trkpt lat="46.97253" lon="8.77203">
        <ele>637</ele>
        <time>2021-08-04T10:00:41.308Z</time>
      </trkpt>
      <trkpt lat="46.97252" lon="8.77202">
        <ele>637</ele>
        <time>2021-08-04T10:00:42.308Z</time>
      </trkpt>
      <trkpt lat="46.97249" lon="8.772">
        <ele>637</ele>
        <time>2021-08-04T10:00:43.308Z</time>
      </trkpt>
      <trkpt lat="46.97246" lon="8.77199">
        <ele>638</ele>
        <time>2021-08-04T10:00:44.307Z</time>
      </trkpt>
      <trkpt lat="46.97245" lon="8.77197">
        <ele>638</ele>
        <time>2021-08-04T10:00:45.307Z</time>
      </trkpt>
      <trkpt lat="46.97245" lon="8.77194">
        <ele>638</ele>
        <time>2021-08-04T10:00:46.308Z</time>
      </trkpt>
      <trkpt lat="46.97245" lon="8.77191">
        <ele>638</ele>
        <time>2021-08-04T10:00:47.307Z</time>
      </trkpt>
      <trkpt lat="46.97245" lon="8.77188">
        <ele>638</ele>
        <time>2021-08-04T10:00:48.308Z</time>
      </trkpt>
      <trkpt lat="46.97247" lon="8.77185">
        <ele>637</ele>
        <time>2021-08-04T10:00:49.308Z</time>
      </trkpt>
      <trkpt lat="46.97247" lon="8.77183">
        <ele>637</ele>
        <time>2021-08-04T10:00:50.308Z</time>
      </trkpt>
      <trkpt lat="46.97246" lon="8.77182">
        <ele>637</ele>
        <time>2021-08-04T10:00:51.307Z</time>
      </trkpt>
      <trkpt lat="46.97245" lon="8.77181">
        <ele>637</ele>
        <time>2021-08-04T10:00:52.308Z</time>
      </trkpt>
      <trkpt lat="46.97243" lon="8.77179">
        <ele>637</ele>
        <time>2021-08-04T10:00:53.308Z</time>
      </trkpt>
      <trkpt lat="46.97243" lon="8.77178">
        <ele>637</ele>
        <time>2021-08-04T10:00:54.307Z</time>
      </trkpt>
      <trkpt lat="46.97243" lon="8.77176">
        <ele>637</ele>
        <time>2021-08-04T10:00:55.308Z</time>
      </trkpt>
      <trkpt lat="46.97242" lon="8.77173">
        <ele>637</ele>
        <time>2021-08-04T10:00:56.308Z</time>
      </trkpt>
      <trkpt lat="46.97242" lon="8.77172">
        <ele>637</ele>
        <time>2021-08-04T10:00:57.308Z</time>
      </trkpt>
      <trkpt lat="46.97241" lon="8.7717">
        <ele>637</ele>
        <time>2021-08-04T10:00:58.307Z</time>
      </trkpt>
      <trkpt lat="46.9724" lon="8.77168">
        <ele>637</ele>
        <time>2021-08-04T10:00:59.307Z</time>
      </trkpt>
      <trkpt lat="46.97239" lon="8.77166">
        <ele>637</ele>
        <time>2021-08-04T10:01:00.308Z</time>
      </trkpt>
      <trkpt lat="46.9724" lon="8.77165">
        <ele>636</ele>
        <time>2021-08-04T10:01:01.307Z</time>
      </trkpt>
      <trkpt lat="46.9724" lon="8.77163">
        <ele>636</ele>
        <time>2021-08-04T10:01:02.307Z</time>
      </trkpt>
      <trkpt lat="46.97239" lon="8.77161">
        <ele>636</ele>
        <time>2021-08-04T10:01:03.307Z</time>
      </trkpt>
      <trkpt lat="46.9724" lon="8.77159">
        <ele>636</ele>
        <time>2021-08-04T10:01:04.307Z</time>
      </trkpt>
      <trkpt lat="46.97241" lon="8.77158">
        <ele>636</ele>
        <time>2021-08-04T10:01:05.308Z</time>
      </trkpt>
      <trkpt lat="46.97241" lon="8.77157">
        <ele>635</ele>
        <time>2021-08-04T10:01:06.307Z</time>
      </trkpt>
      <trkpt lat="46.9724" lon="8.77156">
        <ele>635</ele>
        <time>2021-08-04T10:01:07.308Z</time>
      </trkpt>
      <trkpt lat="46.97239" lon="8.77155">
        <ele>635</ele>
        <time>2021-08-04T10:01:08.308Z</time>
      </trkpt>
      <trkpt lat="46.97239" lon="8.77153">
        <ele>635</ele>
        <time>2021-08-04T10:01:09.308Z</time>
      </trkpt>
      <trkpt lat="46.97238" lon="8.77151">
        <ele>634</ele>
        <time>2021-08-04T10:01:10.308Z</time>
      </trkpt>
      <trkpt lat="46.97238" lon="8.77149">
        <ele>634</ele>
        <time>2021-08-04T10:01:11.307Z</time>
      </trkpt>
      <trkpt lat="46.97237" lon="8.77147">
        <ele>634</ele>
        <time>2021-08-04T10:01:12.308Z</time>
      </trkpt>
      <trkpt lat="46.97234" lon="8.77146">
        <ele>633</ele>
        <time>2021-08-04T10:01:13.307Z</time>
      </trkpt>
      <trkpt lat="46.97233" lon="8.77145">
        <ele>633</ele>
        <time>2021-08-04T10:01:14.308Z</time>
      </trkpt>
      <trkpt lat="46.97233" lon="8.77145">
        <ele>632</ele>
        <time>2021-08-04T10:01:15.308Z</time>
      </trkpt>
      <trkpt lat="46.97231" lon="8.77145">
        <ele>632</ele>
        <time>2021-08-04T10:01:16.308Z</time>
      </trkpt>
      <trkpt lat="46.97232" lon="8.77143">
        <ele>631</ele>
        <time>2021-08-04T10:01:17.308Z</time>
      </trkpt>
      <trkpt lat="46.97232" lon="8.7714">
        <ele>631</ele>
        <time>2021-08-04T10:01:18.308Z</time>
      </trkpt>
      <trkpt lat="46.97231" lon="8.77139">
        <ele>631</ele>
        <time>2021-08-04T10:01:19.307Z</time>
      </trkpt>
      <trkpt lat="46.9723" lon="8.77138">
        <ele>630</ele>
        <time>2021-08-04T10:01:20.308Z</time>
      </trkpt>
      <trkpt lat="46.97228" lon="8.77137">
        <ele>630</ele>
        <time>2021-08-04T10:01:21.307Z</time>
      </trkpt>
      <trkpt lat="46.97227" lon="8.77136">
        <ele>630</ele>
        <time>2021-08-04T10:01:22.308Z</time>
      </trkpt>
      <trkpt lat="46.97225" lon="8.77136">
        <ele>629</ele>
        <time>2021-08-04T10:01:23.307Z</time>
      </trkpt>
      <trkpt lat="46.97223" lon="8.77136">
        <ele>629</ele>
        <time>2021-08-04T10:01:24.307Z</time>
      </trkpt>
      <trkpt lat="46.97221" lon="8.77136">
        <ele>629</ele>
        <time>2021-08-04T10:01:25.308Z</time>
      </trkpt>
      <trkpt lat="46.97218" lon="8.77137">
        <ele>629</ele>
        <time>2021-08-04T10:01:26.308Z</time>
      </trkpt>
      <trkpt lat="46.97216" lon="8.77137">
        <ele>629</ele>
        <time>2021-08-04T10:01:27.308Z</time>
      </trkpt>
      <trkpt lat="46.97214" lon="8.77137">
        <ele>628</ele>
        <time>2021-08-04T10:01:28.308Z</time>
      </trkpt>
      <trkpt lat="46.97214" lon="8.77137">
        <ele>628</ele>
        <time>2021-08-04T10:01:29.308Z</time>
      </trkpt>
      <trkpt lat="46.97215" lon="8.77136">
        <ele>628</ele>
        <time>2021-08-04T10:01:30.308Z</time>
      </trkpt>
      <trkpt lat="46.97215" lon="8.77135">
        <ele>627</ele>
        <time>2021-08-04T10:01:31.308Z</time>
      </trkpt>
      <trkpt lat="46.97216" lon="8.77134">
        <ele>627</ele>
        <time>2021-08-04T10:01:32.308Z</time>
      </trkpt>
      <trkpt lat="46.97217" lon="8.77133">
        <ele>626</ele>
        <time>2021-08-04T10:01:33.307Z</time>
      </trkpt>
      <trkpt lat="46.97217" lon="8.77132">
        <ele>626</ele>
        <time>2021-08-04T10:01:34.308Z</time>
      </trkpt>
      <trkpt lat="46.97217" lon="8.77131">
        <ele>625</ele>
        <time>2021-08-04T10:01:35.308Z</time>
      </trkpt>
      <trkpt lat="46.97217" lon="8.7713">
        <ele>624</ele>
        <time>2021-08-04T10:01:36.307Z</time>
      </trkpt>
      <trkpt lat="46.97218" lon="8.7713">
        <ele>624</ele>
        <time>2021-08-04T10:01:37.307Z</time>
      </trkpt>
      <trkpt lat="46.97218" lon="8.7713">
        <ele>623</ele>
        <time>2021-08-04T10:01:38.308Z</time>
      </trkpt>
      <trkpt lat="46.97218" lon="8.77129">
        <ele>623</ele>
        <time>2021-08-04T10:01:39.307Z</time>
      </trkpt>
      <trkpt lat="46.97222" lon="8.77131">
        <ele>626</ele>
        <time>2021-08-04T10:01:44.433Z</time>
      </trkpt>
      <trkpt lat="46.97222" lon="8.77131">
        <ele>626</ele>
        <time>2021-08-04T10:01:45.432Z</time>
      </trkpt>
      <trkpt lat="46.97222" lon="8.7713">
        <ele>626</ele>
        <time>2021-08-04T10:01:46.432Z</time>
      </trkpt>
      <trkpt lat="46.97222" lon="8.77129">
        <ele>626</ele>
        <time>2021-08-04T10:01:47.433Z</time>
      </trkpt>
      <trkpt lat="46.97221" lon="8.77127">
        <ele>626</ele>
        <time>2021-08-04T10:01:48.432Z</time>
      </trkpt>
      <trkpt lat="46.97222" lon="8.77127">
        <ele>626</ele>
        <time>2021-08-04T10:01:49.433Z</time>
      </trkpt>
      <trkpt lat="46.97222" lon="8.77127">
        <ele>627</ele>
        <time>2021-08-04T10:01:50.433Z</time>
      </trkpt>
      <trkpt lat="46.97221" lon="8.77126">
        <ele>627</ele>
        <time>2021-08-04T10:01:51.432Z</time>
      </trkpt>
      <trkpt lat="46.9722" lon="8.77125">
        <ele>627</ele>
        <time>2021-08-04T10:01:52.432Z</time>
      </trkpt>
      <trkpt lat="46.9722" lon="8.77124">
        <ele>626</ele>
        <time>2021-08-04T10:01:53.432Z</time>
      </trkpt>
      <trkpt lat="46.97219" lon="8.77123">
        <ele>627</ele>
        <time>2021-08-04T10:01:54.432Z</time>
      </trkpt>
      <trkpt lat="46.97218" lon="8.77123">
        <ele>627</ele>
        <time>2021-08-04T10:01:55.432Z</time>
      </trkpt>
      <trkpt lat="46.97218" lon="8.77123">
        <ele>627</ele>
        <time>2021-08-04T10:01:56.432Z</time>
      </trkpt>
      <trkpt lat="46.97217" lon="8.77123">
        <ele>627</ele>
        <time>2021-08-04T10:01:57.432Z</time>
      </trkpt>
      <trkpt lat="46.97216" lon="8.77123">
        <ele>627</ele>
        <time>2021-08-04T10:01:58.432Z</time>
      </trkpt>
      <trkpt lat="46.97216" lon="8.77122">
        <ele>627</ele>
        <time>2021-08-04T10:01:59.432Z</time>
      </trkpt>
      <trkpt lat="46.97216" lon="8.77122">
        <ele>627</ele>
        <time>2021-08-04T10:02:00.432Z</time>
      </trkpt>
      <trkpt lat="46.97216" lon="8.77122">
        <ele>628</ele>
        <time>2021-08-04T10:02:01.432Z</time>
      </trkpt>
      <trkpt lat="46.97216" lon="8.77122">
        <ele>628</ele>
        <time>2021-08-04T10:02:02.433Z</time>
      </trkpt>
      <trkpt lat="46.97217" lon="8.77121">
        <ele>631</ele>
        <time>2021-08-04T10:02:03.433Z</time>
      </trkpt>
      <trkpt lat="46.97217" lon="8.77121">
        <ele>631</ele>
        <time>2021-08-04T10:02:04.433Z</time>
      </trkpt>
      <trkpt lat="46.97217" lon="8.77121">
        <ele>632</ele>
        <time>2021-08-04T10:02:05.432Z</time>
      </trkpt>
      <trkpt lat="46.97218" lon="8.77121">
        <ele>632</ele>
        <time>2021-08-04T10:02:29.559Z</time>
      </trkpt>
      <trkpt lat="46.97218" lon="8.7712">
        <ele>633</ele>
        <time>2021-08-04T10:02:30.559Z</time>
      </trkpt>
      <trkpt lat="46.97219" lon="8.7712">
        <ele>633</ele>
        <time>2021-08-04T10:02:31.559Z</time>
      </trkpt>
      <trkpt lat="46.9722" lon="8.77119">
        <ele>633</ele>
        <time>2021-08-04T10:02:32.558Z</time>
      </trkpt>
      <trkpt lat="46.97221" lon="8.77119">
        <ele>633</ele>
        <time>2021-08-04T10:02:33.559Z</time>
      </trkpt>
      <trkpt lat="46.97222" lon="8.77118">
        <ele>633</ele>
        <time>2021-08-04T10:02:34.559Z</time>
      </trkpt>
      <trkpt lat="46.97222" lon="8.77118">
        <ele>633</ele>
        <time>2021-08-04T10:02:35.559Z</time>
      </trkpt>
      <trkpt lat="46.97222" lon="8.77117">
        <ele>633</ele>
        <time>2021-08-04T10:02:36.559Z</time>
      </trkpt>
      <trkpt lat="46.97222" lon="8.77118">
        <ele>633</ele>
        <time>2021-08-04T10:02:37.558Z</time>
      </trkpt>
      <trkpt lat="46.97224" lon="8.77117">
        <ele>632</ele>
        <time>2021-08-04T10:02:38.559Z</time>
      </trkpt>
      <trkpt lat="46.97224" lon="8.77117">
        <ele>632</ele>
        <time>2021-08-04T10:02:39.559Z</time>
      </trkpt>
      <trkpt lat="46.97224" lon="8.77116">
        <ele>632</ele>
        <time>2021-08-04T10:02:40.559Z</time>
      </trkpt>
      <trkpt lat="46.97224" lon="8.77116">
        <ele>632</ele>
        <time>2021-08-04T10:02:41.558Z</time>
      </trkpt>
      <trkpt lat="46.97223" lon="8.77116">
        <ele>632</ele>
        <time>2021-08-04T10:02:42.559Z</time>
      </trkpt>
      <trkpt lat="46.97223" lon="8.77115">
        <ele>632</ele>
        <time>2021-08-04T10:02:43.558Z</time>
      </trkpt>
      <trkpt lat="46.9722" lon="8.7711">
        <ele>637</ele>
        <time>2021-08-04T10:02:44.559Z</time>
      </trkpt>
      <trkpt lat="46.97219" lon="8.77109">
        <ele>637</ele>
        <time>2021-08-04T10:02:45.560Z</time>
      </trkpt>
      <trkpt lat="46.9722" lon="8.77109">
        <ele>637</ele>
        <time>2021-08-04T10:02:46.559Z</time>
      </trkpt>
      <trkpt lat="46.97222" lon="8.77105">
        <ele>638</ele>
        <time>2021-08-04T10:02:47.561Z</time>
      </trkpt>
      <trkpt lat="46.97222" lon="8.77105">
        <ele>638</ele>
        <time>2021-08-04T10:02:48.561Z</time>
      </trkpt>
      <trkpt lat="46.97223" lon="8.77105">
        <ele>639</ele>
        <time>2021-08-04T10:02:49.560Z</time>
      </trkpt>
      <trkpt lat="46.97223" lon="8.77105">
        <ele>639</ele>
        <time>2021-08-04T10:02:50.560Z</time>
      </trkpt>
      <trkpt lat="46.97223" lon="8.77106">
        <ele>639</ele>
        <time>2021-08-04T10:02:51.561Z</time>
      </trkpt>
      <trkpt lat="46.97222" lon="8.77105">
        <ele>637</ele>
        <time>2021-08-04T10:02:52.561Z</time>
      </trkpt>
      <trkpt lat="46.97223" lon="8.77105">
        <ele>637</ele>
        <time>2021-08-04T10:02:53.562Z</time>
      </trkpt>
      <trkpt lat="46.97223" lon="8.77104">
        <ele>636</ele>
        <time>2021-08-04T10:02:54.562Z</time>
      </trkpt>
      <trkpt lat="46.97224" lon="8.77104">
        <ele>636</ele>
        <time>2021-08-04T10:02:55.562Z</time>
      </trkpt>
      <trkpt lat="46.97224" lon="8.77102">
        <ele>635</ele>
        <time>2021-08-04T10:02:56.561Z</time>
      </trkpt>
      <trkpt lat="46.97224" lon="8.77101">
        <ele>635</ele>
        <time>2021-08-04T10:02:57.562Z</time>
      </trkpt>
      <trkpt lat="46.97224" lon="8.771">
        <ele>634</ele>
        <time>2021-08-04T10:02:58.562Z</time>
      </trkpt>
      <trkpt lat="46.97225" lon="8.77099">
        <ele>634</ele>
        <time>2021-08-04T10:02:59.561Z</time>
      </trkpt>
      <trkpt lat="46.97226" lon="8.77098">
        <ele>634</ele>
        <time>2021-08-04T10:03:00.562Z</time>
      </trkpt>
      <trkpt lat="46.97227" lon="8.77097">
        <ele>634</ele>
        <time>2021-08-04T10:03:01.562Z</time>
      </trkpt>
      <trkpt lat="46.97227" lon="8.77097">
        <ele>634</ele>
        <time>2021-08-04T10:03:02.562Z</time>
      </trkpt>
      <trkpt lat="46.97228" lon="8.77096">
        <ele>634</ele>
        <time>2021-08-04T10:03:03.562Z</time>
      </trkpt>
      <trkpt lat="46.97229" lon="8.77095">
        <ele>634</ele>
        <time>2021-08-04T10:03:04.562Z</time>
      </trkpt>
      <trkpt lat="46.97229" lon="8.77094">
        <ele>634</ele>
        <time>2021-08-04T10:03:05.562Z</time>
      </trkpt>
      <trkpt lat="46.9723" lon="8.77093">
        <ele>634</ele>
        <time>2021-08-04T10:03:06.562Z</time>
      </trkpt>
      <trkpt lat="46.97231" lon="8.77091">
        <ele>634</ele>
        <time>2021-08-04T10:03:09.674Z</time>
      </trkpt>
      <trkpt lat="46.97231" lon="8.7709">
        <ele>633</ele>
        <time>2021-08-04T10:03:10.674Z</time>
      </trkpt>
      <trkpt lat="46.97231" lon="8.77088">
        <ele>633</ele>
        <time>2021-08-04T10:03:11.673Z</time>
      </trkpt>
      <trkpt lat="46.97231" lon="8.77086">
        <ele>633</ele>
        <time>2021-08-04T10:03:12.674Z</time>
      </trkpt>
      <trkpt lat="46.97231" lon="8.77084">
        <ele>633</ele>
        <time>2021-08-04T10:03:13.674Z</time>
      </trkpt>
      <trkpt lat="46.97231" lon="8.77083">
        <ele>632</ele>
        <time>2021-08-04T10:03:14.674Z</time>
      </trkpt>
      <trkpt lat="46.97231" lon="8.77082">
        <ele>632</ele>
        <time>2021-08-04T10:03:15.673Z</time>
      </trkpt>
      <trkpt lat="46.97231" lon="8.77081">
        <ele>632</ele>
        <time>2021-08-04T10:03:16.673Z</time>
      </trkpt>
      <trkpt lat="46.9723" lon="8.7708">
        <ele>631</ele>
        <time>2021-08-04T10:03:17.674Z</time>
      </trkpt>
      <trkpt lat="46.9723" lon="8.77081">
        <ele>631</ele>
        <time>2021-08-04T10:03:18.674Z</time>
      </trkpt>
      <trkpt lat="46.9723" lon="8.77082">
        <ele>631</ele>
        <time>2021-08-04T10:03:19.673Z</time>
      </trkpt>
      <trkpt lat="46.9723" lon="8.77082">
        <ele>631</ele>
        <time>2021-08-04T10:03:20.674Z</time>
      </trkpt>
      <trkpt lat="46.97229" lon="8.77083">
        <ele>630</ele>
        <time>2021-08-04T10:03:21.674Z</time>
      </trkpt>
      <trkpt lat="46.97229" lon="8.77083">
        <ele>630</ele>
        <time>2021-08-04T10:03:22.673Z</time>
      </trkpt>
      <trkpt lat="46.97229" lon="8.77082">
        <ele>631</ele>
        <time>2021-08-04T10:03:23.674Z</time>
      </trkpt>
      <trkpt lat="46.97229" lon="8.7708">
        <ele>631</ele>
        <time>2021-08-04T10:03:24.673Z</time>
      </trkpt>
      <trkpt lat="46.97228" lon="8.77078">
        <ele>631</ele>
        <time>2021-08-04T10:03:25.674Z</time>
      </trkpt>
      <trkpt lat="46.97227" lon="8.77077">
        <ele>631</ele>
        <time>2021-08-04T10:03:26.674Z</time>
      </trkpt>
      <trkpt lat="46.97227" lon="8.77075">
        <ele>631</ele>
        <time>2021-08-04T10:03:27.674Z</time>
      </trkpt>
      <trkpt lat="46.97227" lon="8.77073">
        <ele>632</ele>
        <time>2021-08-04T10:03:28.674Z</time>
      </trkpt>
      <trkpt lat="46.97228" lon="8.77071">
        <ele>632</ele>
        <time>2021-08-04T10:03:29.673Z</time>
      </trkpt>
      <trkpt lat="46.97227" lon="8.7707">
        <ele>632</ele>
        <time>2021-08-04T10:03:30.674Z</time>
      </trkpt>
      <trkpt lat="46.97227" lon="8.77068">
        <ele>632</ele>
        <time>2021-08-04T10:03:31.673Z</time>
      </trkpt>
      <trkpt lat="46.97227" lon="8.77067">
        <ele>632</ele>
        <time>2021-08-04T10:03:32.674Z</time>
      </trkpt>
      <trkpt lat="46.97227" lon="8.77065">
        <ele>631</ele>
        <time>2021-08-04T10:03:33.674Z</time>
      </trkpt>
      <trkpt lat="46.97228" lon="8.77063">
        <ele>631</ele>
        <time>2021-08-04T10:03:34.674Z</time>
      </trkpt>
      <trkpt lat="46.97227" lon="8.77062">
        <ele>631</ele>
        <time>2021-08-04T10:03:35.673Z</time>
      </trkpt>
      <trkpt lat="46.97228" lon="8.7706">
        <ele>631</ele>
        <time>2021-08-04T10:03:36.674Z</time>
      </trkpt>
      <trkpt lat="46.97227" lon="8.77059">
        <ele>631</ele>
        <time>2021-08-04T10:03:37.674Z</time>
      </trkpt>
      <trkpt lat="46.97227" lon="8.77057">
        <ele>631</ele>
        <time>2021-08-04T10:03:38.674Z</time>
      </trkpt>
      <trkpt lat="46.97226" lon="8.77055">
        <ele>631</ele>
        <time>2021-08-04T10:03:39.674Z</time>
      </trkpt>
      <trkpt lat="46.97226" lon="8.77054">
        <ele>630</ele>
        <time>2021-08-04T10:03:40.674Z</time>
      </trkpt>
      <trkpt lat="46.97226" lon="8.77052">
        <ele>630</ele>
        <time>2021-08-04T10:03:41.674Z</time>
      </trkpt>
      <trkpt lat="46.97226" lon="8.7705">
        <ele>630</ele>
        <time>2021-08-04T10:03:42.674Z</time>
      </trkpt>
      <trkpt lat="46.97226" lon="8.77048">
        <ele>630</ele>
        <time>2021-08-04T10:03:43.673Z</time>
      </trkpt>
      <trkpt lat="46.97226" lon="8.77046">
        <ele>630</ele>
        <time>2021-08-04T10:03:44.674Z</time>
      </trkpt>
      <trkpt lat="46.97226" lon="8.77044">
        <ele>631</ele>
        <time>2021-08-04T10:03:45.674Z</time>
      </trkpt>
      <trkpt lat="46.97227" lon="8.77041">
        <ele>631</ele>
        <time>2021-08-04T10:03:46.674Z</time>
      </trkpt>
      <trkpt lat="46.97228" lon="8.77039">
        <ele>631</ele>
        <time>2021-08-04T10:03:47.674Z</time>
      </trkpt>
      <trkpt lat="46.97229" lon="8.77038">
        <ele>631</ele>
        <time>2021-08-04T10:03:48.673Z</time>
      </trkpt>
      <trkpt lat="46.97229" lon="8.77036">
        <ele>631</ele>
        <time>2021-08-04T10:03:49.673Z</time>
      </trkpt>
      <trkpt lat="46.97229" lon="8.77035">
        <ele>630</ele>
        <time>2021-08-04T10:03:50.673Z</time>
      </trkpt>
      <trkpt lat="46.97229" lon="8.77033">
        <ele>630</ele>
        <time>2021-08-04T10:03:51.673Z</time>
      </trkpt>
      <trkpt lat="46.97229" lon="8.77032">
        <ele>630</ele>
        <time>2021-08-04T10:03:52.674Z</time>
      </trkpt>
      <trkpt lat="46.97229" lon="8.77031">
        <ele>629</ele>
        <time>2021-08-04T10:03:53.673Z</time>
      </trkpt>
      <trkpt lat="46.97229" lon="8.77029">
        <ele>628</ele>
        <time>2021-08-04T10:03:54.673Z</time>
      </trkpt>
      <trkpt lat="46.97229" lon="8.77027">
        <ele>628</ele>
        <time>2021-08-04T10:03:55.673Z</time>
      </trkpt>
      <trkpt lat="46.97229" lon="8.77026">
        <ele>627</ele>
        <time>2021-08-04T10:03:56.673Z</time>
      </trkpt>
      <trkpt lat="46.9723" lon="8.77024">
        <ele>627</ele>
        <time>2021-08-04T10:03:57.673Z</time>
      </trkpt>
      <trkpt lat="46.9723" lon="8.77022">
        <ele>627</ele>
        <time>2021-08-04T10:03:58.673Z</time>
      </trkpt>
      <trkpt lat="46.9723" lon="8.7702">
        <ele>627</ele>
        <time>2021-08-04T10:03:59.674Z</time>
      </trkpt>
      <trkpt lat="46.9723" lon="8.77018">
        <ele>627</ele>
        <time>2021-08-04T10:04:00.674Z</time>
      </trkpt>
      <trkpt lat="46.9723" lon="8.77017">
        <ele>626</ele>
        <time>2021-08-04T10:04:01.674Z</time>
      </trkpt>
      <trkpt lat="46.9723" lon="8.77015">
        <ele>626</ele>
        <time>2021-08-04T10:04:02.674Z</time>
      </trkpt>
      <trkpt lat="46.97231" lon="8.77013">
        <ele>626</ele>
        <time>2021-08-04T10:04:03.673Z</time>
      </trkpt>
      <trkpt lat="46.9723" lon="8.77012">
        <ele>626</ele>
        <time>2021-08-04T10:04:04.673Z</time>
      </trkpt>
      <trkpt lat="46.9723" lon="8.7701">
        <ele>625</ele>
        <time>2021-08-04T10:04:05.673Z</time>
      </trkpt>
      <trkpt lat="46.97231" lon="8.77008">
        <ele>625</ele>
        <time>2021-08-04T10:04:06.673Z</time>
      </trkpt>
      <trkpt lat="46.97231" lon="8.77005">
        <ele>625</ele>
        <time>2021-08-04T10:04:07.673Z</time>
      </trkpt>
      <trkpt lat="46.97231" lon="8.77004">
        <ele>625</ele>
        <time>2021-08-04T10:04:08.673Z</time>
      </trkpt>
      <trkpt lat="46.97231" lon="8.77003">
        <ele>625</ele>
        <time>2021-08-04T10:04:09.673Z</time>
      </trkpt>
      <trkpt lat="46.97231" lon="8.77001">
        <ele>625</ele>
        <time>2021-08-04T10:04:10.673Z</time>
      </trkpt>
      <trkpt lat="46.97231" lon="8.76999">
        <ele>625</ele>
        <time>2021-08-04T10:04:11.673Z</time>
      </trkpt>
      <trkpt lat="46.97231" lon="8.76997">
        <ele>625</ele>
        <time>2021-08-04T10:04:12.673Z</time>
      </trkpt>
      <trkpt lat="46.9723" lon="8.76995">
        <ele>625</ele>
        <time>2021-08-04T10:04:13.673Z</time>
      </trkpt>
      <trkpt lat="46.9723" lon="8.76993">
        <ele>625</ele>
        <time>2021-08-04T10:04:14.673Z</time>
      </trkpt>
      <trkpt lat="46.97229" lon="8.76992">
        <ele>625</ele>
        <time>2021-08-04T10:04:15.673Z</time>
      </trkpt>
      <trkpt lat="46.97228" lon="8.7699">
        <ele>625</ele>
        <time>2021-08-04T10:04:16.674Z</time>
      </trkpt>
      <trkpt lat="46.97228" lon="8.76988">
        <ele>625</ele>
        <time>2021-08-04T10:04:17.674Z</time>
      </trkpt>
      <trkpt lat="46.97229" lon="8.76987">
        <ele>624</ele>
        <time>2021-08-04T10:04:18.673Z</time>
      </trkpt>
      <trkpt lat="46.97229" lon="8.76985">
        <ele>624</ele>
        <time>2021-08-04T10:04:19.674Z</time>
      </trkpt>
      <trkpt lat="46.9723" lon="8.76982">
        <ele>624</ele>
        <time>2021-08-04T10:04:20.674Z</time>
      </trkpt>
      <trkpt lat="46.9723" lon="8.7698">
        <ele>624</ele>
        <time>2021-08-04T10:04:21.674Z</time>
      </trkpt>
      <trkpt lat="46.97231" lon="8.76979">
        <ele>624</ele>
        <time>2021-08-04T10:04:22.674Z</time>
      </trkpt>
      <trkpt lat="46.97231" lon="8.76977">
        <ele>624</ele>
        <time>2021-08-04T10:04:23.674Z</time>
      </trkpt>
      <trkpt lat="46.97231" lon="8.76975">
        <ele>624</ele>
        <time>2021-08-04T10:04:24.674Z</time>
      </trkpt>
      <trkpt lat="46.97232" lon="8.76973">
        <ele>624</ele>
        <time>2021-08-04T10:04:25.674Z</time>
      </trkpt>
      <trkpt lat="46.97232" lon="8.76972">
        <ele>625</ele>
        <time>2021-08-04T10:04:26.674Z</time>
      </trkpt>
      <trkpt lat="46.97231" lon="8.7697">
        <ele>625</ele>
        <time>2021-08-04T10:04:27.674Z</time>
      </trkpt>
      <trkpt lat="46.97231" lon="8.76969">
        <ele>625</ele>
        <time>2021-08-04T10:04:28.673Z</time>
      </trkpt>
      <trkpt lat="46.9723" lon="8.76967">
        <ele>626</ele>
        <time>2021-08-04T10:04:29.674Z</time>
      </trkpt>
      <trkpt lat="46.9723" lon="8.76966">
        <ele>626</ele>
        <time>2021-08-04T10:04:30.673Z</time>
      </trkpt>
      <trkpt lat="46.9723" lon="8.76964">
        <ele>626</ele>
        <time>2021-08-04T10:04:31.674Z</time>
      </trkpt>
      <trkpt lat="46.9723" lon="8.76962">
        <ele>626</ele>
        <time>2021-08-04T10:04:32.674Z</time>
      </trkpt>
      <trkpt lat="46.9723" lon="8.76961">
        <ele>626</ele>
        <time>2021-08-04T10:04:33.673Z</time>
      </trkpt>
      <trkpt lat="46.9723" lon="8.76959">
        <ele>627</ele>
        <time>2021-08-04T10:04:34.673Z</time>
      </trkpt>
      <trkpt lat="46.97231" lon="8.76957">
        <ele>627</ele>
        <time>2021-08-04T10:04:35.674Z</time>
      </trkpt>
      <trkpt lat="46.97231" lon="8.76955">
        <ele>627</ele>
        <time>2021-08-04T10:04:36.674Z</time>
      </trkpt>
      <trkpt lat="46.97231" lon="8.76953">
        <ele>627</ele>
        <time>2021-08-04T10:04:37.674Z</time>
      </trkpt>
      <trkpt lat="46.97231" lon="8.76952">
        <ele>627</ele>
        <time>2021-08-04T10:04:38.674Z</time>
      </trkpt>
      <trkpt lat="46.97231" lon="8.7695">
        <ele>628</ele>
        <time>2021-08-04T10:04:39.674Z</time>
      </trkpt>
      <trkpt lat="46.97231" lon="8.76949">
        <ele>628</ele>
        <time>2021-08-04T10:04:40.674Z</time>
      </trkpt>
      <trkpt lat="46.97231" lon="8.76947">
        <ele>627</ele>
        <time>2021-08-04T10:04:41.673Z</time>
      </trkpt>
      <trkpt lat="46.97232" lon="8.76945">
        <ele>627</ele>
        <time>2021-08-04T10:04:42.674Z</time>
      </trkpt>
      <trkpt lat="46.97232" lon="8.76942">
        <ele>627</ele>
        <time>2021-08-04T10:04:43.674Z</time>
      </trkpt>
      <trkpt lat="46.97232" lon="8.7694">
        <ele>627</ele>
        <time>2021-08-04T10:04:44.673Z</time>
      </trkpt>
      <trkpt lat="46.97233" lon="8.76937">
        <ele>627</ele>
        <time>2021-08-04T10:04:45.674Z</time>
      </trkpt>
      <trkpt lat="46.97234" lon="8.76935">
        <ele>627</ele>
        <time>2021-08-04T10:04:46.673Z</time>
      </trkpt>
      <trkpt lat="46.97234" lon="8.76933">
        <ele>626</ele>
        <time>2021-08-04T10:04:47.674Z</time>
      </trkpt>
      <trkpt lat="46.97233" lon="8.76932">
        <ele>626</ele>
        <time>2021-08-04T10:04:48.673Z</time>
      </trkpt>
      <trkpt lat="46.97234" lon="8.7693">
        <ele>626</ele>
        <time>2021-08-04T10:04:49.674Z</time>
      </trkpt>
      <trkpt lat="46.97234" lon="8.76928">
        <ele>626</ele>
        <time>2021-08-04T10:04:50.673Z</time>
      </trkpt>
      <trkpt lat="46.97234" lon="8.76926">
        <ele>626</ele>
        <time>2021-08-04T10:04:51.673Z</time>
      </trkpt>
      <trkpt lat="46.97235" lon="8.76924">
        <ele>626</ele>
        <time>2021-08-04T10:04:52.674Z</time>
      </trkpt>
      <trkpt lat="46.97235" lon="8.76922">
        <ele>626</ele>
        <time>2021-08-04T10:04:53.673Z</time>
      </trkpt>
      <trkpt lat="46.97235" lon="8.7692">
        <ele>626</ele>
        <time>2021-08-04T10:04:54.674Z</time>
      </trkpt>
      <trkpt lat="46.97235" lon="8.76918">
        <ele>626</ele>
        <time>2021-08-04T10:04:55.673Z</time>
      </trkpt>
      <trkpt lat="46.97236" lon="8.76916">
        <ele>626</ele>
        <time>2021-08-04T10:04:56.673Z</time>
      </trkpt>
      <trkpt lat="46.97238" lon="8.76914">
        <ele>626</ele>
        <time>2021-08-04T10:04:57.674Z</time>
      </trkpt>
      <trkpt lat="46.97238" lon="8.76911">
        <ele>626</ele>
        <time>2021-08-04T10:04:58.673Z</time>
      </trkpt>
      <trkpt lat="46.97238" lon="8.76909">
        <ele>625</ele>
        <time>2021-08-04T10:04:59.674Z</time>
      </trkpt>
      <trkpt lat="46.97237" lon="8.76907">
        <ele>625</ele>
        <time>2021-08-04T10:05:00.674Z</time>
      </trkpt>
      <trkpt lat="46.97237" lon="8.76906">
        <ele>624</ele>
        <time>2021-08-04T10:05:01.674Z</time>
      </trkpt>
      <trkpt lat="46.97237" lon="8.76904">
        <ele>624</ele>
        <time>2021-08-04T10:05:02.673Z</time>
      </trkpt>
      <trkpt lat="46.97237" lon="8.76901">
        <ele>624</ele>
        <time>2021-08-04T10:05:03.674Z</time>
      </trkpt>
      <trkpt lat="46.97238" lon="8.76899">
        <ele>624</ele>
        <time>2021-08-04T10:05:04.674Z</time>
      </trkpt>
      <trkpt lat="46.97238" lon="8.76897">
        <ele>623</ele>
        <time>2021-08-04T10:05:05.674Z</time>
      </trkpt>
      <trkpt lat="46.97238" lon="8.76895">
        <ele>623</ele>
        <time>2021-08-04T10:05:06.674Z</time>
      </trkpt>
      <trkpt lat="46.97238" lon="8.76893">
        <ele>623</ele>
        <time>2021-08-04T10:05:07.674Z</time>
      </trkpt>
      <trkpt lat="46.97238" lon="8.76891">
        <ele>623</ele>
        <time>2021-08-04T10:05:08.673Z</time>
      </trkpt>
      <trkpt lat="46.97238" lon="8.76889">
        <ele>622</ele>
        <time>2021-08-04T10:05:09.673Z</time>
      </trkpt>
      <trkpt lat="46.97238" lon="8.76887">
        <ele>622</ele>
        <time>2021-08-04T10:05:10.674Z</time>
      </trkpt>
      <trkpt lat="46.97238" lon="8.76885">
        <ele>622</ele>
        <time>2021-08-04T10:05:11.674Z</time>
      </trkpt>
      <trkpt lat="46.97238" lon="8.76883">
        <ele>622</ele>
        <time>2021-08-04T10:05:12.674Z</time>
      </trkpt>
      <trkpt lat="46.97239" lon="8.76882">
        <ele>621</ele>
        <time>2021-08-04T10:05:13.673Z</time>
      </trkpt>
      <trkpt lat="46.97239" lon="8.7688">
        <ele>621</ele>
        <time>2021-08-04T10:05:14.674Z</time>
      </trkpt>
      <trkpt lat="46.97239" lon="8.76878">
        <ele>621</ele>
        <time>2021-08-04T10:05:15.674Z</time>
      </trkpt>
      <trkpt lat="46.97239" lon="8.76876">
        <ele>621</ele>
        <time>2021-08-04T10:05:16.673Z</time>
      </trkpt>
      <trkpt lat="46.9724" lon="8.76874">
        <ele>621</ele>
        <time>2021-08-04T10:05:17.673Z</time>
      </trkpt>
      <trkpt lat="46.9724" lon="8.76873">
        <ele>621</ele>
        <time>2021-08-04T10:05:18.674Z</time>
      </trkpt>
      <trkpt lat="46.9724" lon="8.76871">
        <ele>621</ele>
        <time>2021-08-04T10:05:19.674Z</time>
      </trkpt>
      <trkpt lat="46.97239" lon="8.76869">
        <ele>621</ele>
        <time>2021-08-04T10:05:20.674Z</time>
      </trkpt>
      <trkpt lat="46.97239" lon="8.76867">
        <ele>621</ele>
        <time>2021-08-04T10:05:21.673Z</time>
      </trkpt>
      <trkpt lat="46.97239" lon="8.76865">
        <ele>620</ele>
        <time>2021-08-04T10:05:22.674Z</time>
      </trkpt>
      <trkpt lat="46.97239" lon="8.76863">
        <ele>620</ele>
        <time>2021-08-04T10:05:23.674Z</time>
      </trkpt>
      <trkpt lat="46.97238" lon="8.76861">
        <ele>620</ele>
        <time>2021-08-04T10:05:24.673Z</time>
      </trkpt>
      <trkpt lat="46.97238" lon="8.76859">
        <ele>621</ele>
        <time>2021-08-04T10:05:25.673Z</time>
      </trkpt>
      <trkpt lat="46.97238" lon="8.76857">
        <ele>621</ele>
        <time>2021-08-04T10:05:26.674Z</time>
      </trkpt>
      <trkpt lat="46.97237" lon="8.76855">
        <ele>621</ele>
        <time>2021-08-04T10:05:27.673Z</time>
      </trkpt>
      <trkpt lat="46.97236" lon="8.76853">
        <ele>621</ele>
        <time>2021-08-04T10:05:28.673Z</time>
      </trkpt>
      <trkpt lat="46.97236" lon="8.76852">
        <ele>622</ele>
        <time>2021-08-04T10:05:29.673Z</time>
      </trkpt>
      <trkpt lat="46.97236" lon="8.76851">
        <ele>622</ele>
        <time>2021-08-04T10:05:30.673Z</time>
      </trkpt>
      <trkpt lat="46.97236" lon="8.7685">
        <ele>622</ele>
        <time>2021-08-04T10:05:31.674Z</time>
      </trkpt>
      <trkpt lat="46.97236" lon="8.76848">
        <ele>622</ele>
        <time>2021-08-04T10:05:32.673Z</time>
      </trkpt>
      <trkpt lat="46.97236" lon="8.76846">
        <ele>622</ele>
        <time>2021-08-04T10:05:33.673Z</time>
      </trkpt>
      <trkpt lat="46.97236" lon="8.76844">
        <ele>622</ele>
        <time>2021-08-04T10:05:34.673Z</time>
      </trkpt>
      <trkpt lat="46.97237" lon="8.76842">
        <ele>622</ele>
        <time>2021-08-04T10:05:35.673Z</time>
      </trkpt>
      <trkpt lat="46.97237" lon="8.76841">
        <ele>622</ele>
        <time>2021-08-04T10:05:36.674Z</time>
      </trkpt>
      <trkpt lat="46.97237" lon="8.76839">
        <ele>622</ele>
        <time>2021-08-04T10:05:37.674Z</time>
      </trkpt>
      <trkpt lat="46.97237" lon="8.76837">
        <ele>621</ele>
        <time>2021-08-04T10:05:38.673Z</time>
      </trkpt>
      <trkpt lat="46.97237" lon="8.76834">
        <ele>621</ele>
        <time>2021-08-04T10:05:39.674Z</time>
      </trkpt>
      <trkpt lat="46.97237" lon="8.76832">
        <ele>621</ele>
        <time>2021-08-04T10:05:40.674Z</time>
      </trkpt>
      <trkpt lat="46.97237" lon="8.7683">
        <ele>620</ele>
        <time>2021-08-04T10:05:41.673Z</time>
      </trkpt>
      <trkpt lat="46.97237" lon="8.76829">
        <ele>620</ele>
        <time>2021-08-04T10:05:42.674Z</time>
      </trkpt>
      <trkpt lat="46.97238" lon="8.76827">
        <ele>620</ele>
        <time>2021-08-04T10:05:43.673Z</time>
      </trkpt>
      <trkpt lat="46.97238" lon="8.76825">
        <ele>620</ele>
        <time>2021-08-04T10:05:44.674Z</time>
      </trkpt>
      <trkpt lat="46.97239" lon="8.76823">
        <ele>620</ele>
        <time>2021-08-04T10:05:45.674Z</time>
      </trkpt>
      <trkpt lat="46.97239" lon="8.76821">
        <ele>620</ele>
        <time>2021-08-04T10:05:46.674Z</time>
      </trkpt>
      <trkpt lat="46.97239" lon="8.7682">
        <ele>620</ele>
        <time>2021-08-04T10:05:47.674Z</time>
      </trkpt>
      <trkpt lat="46.97239" lon="8.76818">
        <ele>620</ele>
        <time>2021-08-04T10:05:48.674Z</time>
      </trkpt>
      <trkpt lat="46.9724" lon="8.76816">
        <ele>620</ele>
        <time>2021-08-04T10:05:49.674Z</time>
      </trkpt>
      <trkpt lat="46.97241" lon="8.76814">
        <ele>620</ele>
        <time>2021-08-04T10:05:50.673Z</time>
      </trkpt>
      <trkpt lat="46.97241" lon="8.76811">
        <ele>620</ele>
        <time>2021-08-04T10:05:51.673Z</time>
      </trkpt>
      <trkpt lat="46.97242" lon="8.76809">
        <ele>620</ele>
        <time>2021-08-04T10:05:52.674Z</time>
      </trkpt>
      <trkpt lat="46.97242" lon="8.76807">
        <ele>621</ele>
        <time>2021-08-04T10:05:53.674Z</time>
      </trkpt>
      <trkpt lat="46.97243" lon="8.76806">
        <ele>621</ele>
        <time>2021-08-04T10:05:54.674Z</time>
      </trkpt>
      <trkpt lat="46.97243" lon="8.76804">
        <ele>621</ele>
        <time>2021-08-04T10:05:55.674Z</time>
      </trkpt>
      <trkpt lat="46.97243" lon="8.76802">
        <ele>621</ele>
        <time>2021-08-04T10:05:56.674Z</time>
      </trkpt>
      <trkpt lat="46.97243" lon="8.768">
        <ele>622</ele>
        <time>2021-08-04T10:05:57.673Z</time>
      </trkpt>
      <trkpt lat="46.97243" lon="8.76798">
        <ele>622</ele>
        <time>2021-08-04T10:05:58.674Z</time>
      </trkpt>
      <trkpt lat="46.97242" lon="8.76797">
        <ele>622</ele>
        <time>2021-08-04T10:05:59.674Z</time>
      </trkpt>
      <trkpt lat="46.97242" lon="8.76795">
        <ele>622</ele>
        <time>2021-08-04T10:06:00.674Z</time>
      </trkpt>
      <trkpt lat="46.97242" lon="8.76793">
        <ele>623</ele>
        <time>2021-08-04T10:06:01.674Z</time>
      </trkpt>
      <trkpt lat="46.97241" lon="8.76791">
        <ele>623</ele>
        <time>2021-08-04T10:06:02.674Z</time>
      </trkpt>
      <trkpt lat="46.97241" lon="8.76789">
        <ele>623</ele>
        <time>2021-08-04T10:06:03.673Z</time>
      </trkpt>
      <trkpt lat="46.97241" lon="8.76786">
        <ele>623</ele>
        <time>2021-08-04T10:06:04.674Z</time>
      </trkpt>
      <trkpt lat="46.97241" lon="8.76784">
        <ele>623</ele>
        <time>2021-08-04T10:06:05.673Z</time>
      </trkpt>
      <trkpt lat="46.97241" lon="8.76782">
        <ele>623</ele>
        <time>2021-08-04T10:06:06.674Z</time>
      </trkpt>
      <trkpt lat="46.97242" lon="8.76779">
        <ele>623</ele>
        <time>2021-08-04T10:06:07.674Z</time>
      </trkpt>
      <trkpt lat="46.97242" lon="8.76777">
        <ele>624</ele>
        <time>2021-08-04T10:06:08.674Z</time>
      </trkpt>
      <trkpt lat="46.97243" lon="8.76775">
        <ele>624</ele>
        <time>2021-08-04T10:06:09.674Z</time>
      </trkpt>
      <trkpt lat="46.97243" lon="8.76773">
        <ele>624</ele>
        <time>2021-08-04T10:06:10.673Z</time>
      </trkpt>
      <trkpt lat="46.97244" lon="8.76771">
        <ele>624</ele>
        <time>2021-08-04T10:06:11.673Z</time>
      </trkpt>
      <trkpt lat="46.97244" lon="8.7677">
        <ele>624</ele>
        <time>2021-08-04T10:06:12.674Z</time>
      </trkpt>
      <trkpt lat="46.97244" lon="8.76768">
        <ele>624</ele>
        <time>2021-08-04T10:06:13.674Z</time>
      </trkpt>
      <trkpt lat="46.97244" lon="8.76766">
        <ele>624</ele>
        <time>2021-08-04T10:06:14.674Z</time>
      </trkpt>
      <trkpt lat="46.97244" lon="8.76765">
        <ele>624</ele>
        <time>2021-08-04T10:06:15.674Z</time>
      </trkpt>
      <trkpt lat="46.97244" lon="8.76763">
        <ele>625</ele>
        <time>2021-08-04T10:06:16.673Z</time>
      </trkpt>
      <trkpt lat="46.97244" lon="8.76762">
        <ele>625</ele>
        <time>2021-08-04T10:06:17.673Z</time>
      </trkpt>
      <trkpt lat="46.97244" lon="8.7676">
        <ele>625</ele>
        <time>2021-08-04T10:06:18.673Z</time>
      </trkpt>
      <trkpt lat="46.97245" lon="8.76759">
        <ele>625</ele>
        <time>2021-08-04T10:06:19.674Z</time>
      </trkpt>
      <trkpt lat="46.97244" lon="8.76757">
        <ele>624</ele>
        <time>2021-08-04T10:06:20.674Z</time>
      </trkpt>
      <trkpt lat="46.97244" lon="8.76754">
        <ele>624</ele>
        <time>2021-08-04T10:06:21.674Z</time>
      </trkpt>
      <trkpt lat="46.97244" lon="8.76752">
        <ele>624</ele>
        <time>2021-08-04T10:06:22.674Z</time>
      </trkpt>
      <trkpt lat="46.97244" lon="8.76749">
        <ele>624</ele>
        <time>2021-08-04T10:06:23.673Z</time>
      </trkpt>
      <trkpt lat="46.97244" lon="8.76746">
        <ele>625</ele>
        <time>2021-08-04T10:06:24.673Z</time>
      </trkpt>
      <trkpt lat="46.97244" lon="8.76744">
        <ele>625</ele>
        <time>2021-08-04T10:06:25.674Z</time>
      </trkpt>
      <trkpt lat="46.97244" lon="8.76742">
        <ele>625</ele>
        <time>2021-08-04T10:06:26.674Z</time>
      </trkpt>
      <trkpt lat="46.97245" lon="8.76741">
        <ele>624</ele>
        <time>2021-08-04T10:06:27.674Z</time>
      </trkpt>
      <trkpt lat="46.97245" lon="8.76739">
        <ele>624</ele>
        <time>2021-08-04T10:06:28.674Z</time>
      </trkpt>
      <trkpt lat="46.97245" lon="8.76737">
        <ele>624</ele>
        <time>2021-08-04T10:06:29.674Z</time>
      </trkpt>
      <trkpt lat="46.97245" lon="8.76735">
        <ele>624</ele>
        <time>2021-08-04T10:06:30.674Z</time>
      </trkpt>
      <trkpt lat="46.97245" lon="8.76734">
        <ele>624</ele>
        <time>2021-08-04T10:06:31.674Z</time>
      </trkpt>
      <trkpt lat="46.97246" lon="8.76732">
        <ele>625</ele>
        <time>2021-08-04T10:06:32.674Z</time>
      </trkpt>
      <trkpt lat="46.97246" lon="8.7673">
        <ele>625</ele>
        <time>2021-08-04T10:06:33.674Z</time>
      </trkpt>
      <trkpt lat="46.97247" lon="8.76728">
        <ele>625</ele>
        <time>2021-08-04T10:06:34.674Z</time>
      </trkpt>
      <trkpt lat="46.97247" lon="8.76727">
        <ele>625</ele>
        <time>2021-08-04T10:06:35.674Z</time>
      </trkpt>
      <trkpt lat="46.97247" lon="8.76725">
        <ele>625</ele>
        <time>2021-08-04T10:06:36.674Z</time>
      </trkpt>
      <trkpt lat="46.97247" lon="8.76723">
        <ele>625</ele>
        <time>2021-08-04T10:06:37.673Z</time>
      </trkpt>
      <trkpt lat="46.97247" lon="8.76721">
        <ele>625</ele>
        <time>2021-08-04T10:06:38.674Z</time>
      </trkpt>
      <trkpt lat="46.97247" lon="8.7672">
        <ele>625</ele>
        <time>2021-08-04T10:06:39.673Z</time>
      </trkpt>
      <trkpt lat="46.97248" lon="8.76718">
        <ele>625</ele>
        <time>2021-08-04T10:06:40.674Z</time>
      </trkpt>
      <trkpt lat="46.97248" lon="8.76716">
        <ele>625</ele>
        <time>2021-08-04T10:06:41.674Z</time>
      </trkpt>
      <trkpt lat="46.97248" lon="8.76714">
        <ele>624</ele>
        <time>2021-08-04T10:06:51.809Z</time>
      </trkpt>
      <trkpt lat="46.97248" lon="8.76712">
        <ele>625</ele>
        <time>2021-08-04T10:06:52.809Z</time>
      </trkpt>
      <trkpt lat="46.97248" lon="8.7671">
        <ele>624</ele>
        <time>2021-08-04T10:06:53.809Z</time>
      </trkpt>
      <trkpt lat="46.97247" lon="8.76709">
        <ele>624</ele>
        <time>2021-08-04T10:06:55.902Z</time>
      </trkpt>
      <trkpt lat="46.97247" lon="8.76708">
        <ele>624</ele>
        <time>2021-08-04T10:06:56.903Z</time>
      </trkpt>
      <trkpt lat="46.97247" lon="8.76706">
        <ele>624</ele>
        <time>2021-08-04T10:06:57.903Z</time>
      </trkpt>
      <trkpt lat="46.97246" lon="8.76705">
        <ele>624</ele>
        <time>2021-08-04T10:06:58.903Z</time>
      </trkpt>
      <trkpt lat="46.97245" lon="8.76704">
        <ele>623</ele>
        <time>2021-08-04T10:06:59.903Z</time>
      </trkpt>
      <trkpt lat="46.97245" lon="8.76702">
        <ele>624</ele>
        <time>2021-08-04T10:07:00.902Z</time>
      </trkpt>
      <trkpt lat="46.97245" lon="8.767">
        <ele>624</ele>
        <time>2021-08-04T10:07:01.903Z</time>
      </trkpt>
      <trkpt lat="46.97246" lon="8.767">
        <ele>624</ele>
        <time>2021-08-04T10:07:02.903Z</time>
      </trkpt>
      <trkpt lat="46.97246" lon="8.76698">
        <ele>624</ele>
        <time>2021-08-04T10:07:03.903Z</time>
      </trkpt>
      <trkpt lat="46.97248" lon="8.76697">
        <ele>624</ele>
        <time>2021-08-04T10:07:04.903Z</time>
      </trkpt>
      <trkpt lat="46.97249" lon="8.76696">
        <ele>624</ele>
        <time>2021-08-04T10:07:05.903Z</time>
      </trkpt>
      <trkpt lat="46.9725" lon="8.76694">
        <ele>623</ele>
        <time>2021-08-04T10:07:06.903Z</time>
      </trkpt>
      <trkpt lat="46.9725" lon="8.76693">
        <ele>623</ele>
        <time>2021-08-04T10:07:07.902Z</time>
      </trkpt>
      <trkpt lat="46.97251" lon="8.76692">
        <ele>623</ele>
        <time>2021-08-04T10:07:08.903Z</time>
      </trkpt>
      <trkpt lat="46.97251" lon="8.7669">
        <ele>623</ele>
        <time>2021-08-04T10:07:09.903Z</time>
      </trkpt>
      <trkpt lat="46.97251" lon="8.7669">
        <ele>622</ele>
        <time>2021-08-04T10:07:10.902Z</time>
      </trkpt>
      <trkpt lat="46.97251" lon="8.76689">
        <ele>622</ele>
        <time>2021-08-04T10:07:11.903Z</time>
      </trkpt>
      <trkpt lat="46.97251" lon="8.76687">
        <ele>621</ele>
        <time>2021-08-04T10:07:12.903Z</time>
      </trkpt>
      <trkpt lat="46.97251" lon="8.76686">
        <ele>621</ele>
        <time>2021-08-04T10:07:13.903Z</time>
      </trkpt>
      <trkpt lat="46.97251" lon="8.76685">
        <ele>621</ele>
        <time>2021-08-04T10:07:14.903Z</time>
      </trkpt>
      <trkpt lat="46.97251" lon="8.76683">
        <ele>620</ele>
        <time>2021-08-04T10:07:15.903Z</time>
      </trkpt>
      <trkpt lat="46.97251" lon="8.76682">
        <ele>620</ele>
        <time>2021-08-04T10:07:16.902Z</time>
      </trkpt>
      <trkpt lat="46.9725" lon="8.7668">
        <ele>620</ele>
        <time>2021-08-04T10:07:17.903Z</time>
      </trkpt>
      <trkpt lat="46.9725" lon="8.76677">
        <ele>620</ele>
        <time>2021-08-04T10:07:18.902Z</time>
      </trkpt>
      <trkpt lat="46.97248" lon="8.76675">
        <ele>620</ele>
        <time>2021-08-04T10:07:19.903Z</time>
      </trkpt>
      <trkpt lat="46.97247" lon="8.76674">
        <ele>620</ele>
        <time>2021-08-04T10:07:20.903Z</time>
      </trkpt>
      <trkpt lat="46.97245" lon="8.76673">
        <ele>621</ele>
        <time>2021-08-04T10:07:21.903Z</time>
      </trkpt>
      <trkpt lat="46.97244" lon="8.76673">
        <ele>621</ele>
        <time>2021-08-04T10:07:22.903Z</time>
      </trkpt>
      <trkpt lat="46.97242" lon="8.76672">
        <ele>621</ele>
        <time>2021-08-04T10:07:23.903Z</time>
      </trkpt>
      <trkpt lat="46.97241" lon="8.76671">
        <ele>621</ele>
        <time>2021-08-04T10:07:24.902Z</time>
      </trkpt>
      <trkpt lat="46.97239" lon="8.7667">
        <ele>621</ele>
        <time>2021-08-04T10:07:25.902Z</time>
      </trkpt>
      <trkpt lat="46.97238" lon="8.76669">
        <ele>621</ele>
        <time>2021-08-04T10:07:26.903Z</time>
      </trkpt>
      <trkpt lat="46.97236" lon="8.76667">
        <ele>621</ele>
        <time>2021-08-04T10:07:27.903Z</time>
      </trkpt>
      <trkpt lat="46.97234" lon="8.76666">
        <ele>621</ele>
        <time>2021-08-04T10:07:28.903Z</time>
      </trkpt>
      <trkpt lat="46.97233" lon="8.76665">
        <ele>621</ele>
        <time>2021-08-04T10:07:29.902Z</time>
      </trkpt>
      <trkpt lat="46.97232" lon="8.76664">
        <ele>622</ele>
        <time>2021-08-04T10:07:30.903Z</time>
      </trkpt>
      <trkpt lat="46.97232" lon="8.76663">
        <ele>622</ele>
        <time>2021-08-04T10:07:31.903Z</time>
      </trkpt>
      <trkpt lat="46.97232" lon="8.76663">
        <ele>623</ele>
        <time>2021-08-04T10:07:32.903Z</time>
      </trkpt>
      <trkpt lat="46.97232" lon="8.76662">
        <ele>623</ele>
        <time>2021-08-04T10:07:33.903Z</time>
      </trkpt>
      <trkpt lat="46.97232" lon="8.76661">
        <ele>624</ele>
        <time>2021-08-04T10:07:34.903Z</time>
      </trkpt>
      <trkpt lat="46.97233" lon="8.76659">
        <ele>625</ele>
        <time>2021-08-04T10:07:35.903Z</time>
      </trkpt>
      <trkpt lat="46.97234" lon="8.76658">
        <ele>626</ele>
        <time>2021-08-04T10:07:36.903Z</time>
      </trkpt>
      <trkpt lat="46.97234" lon="8.76657">
        <ele>627</ele>
        <time>2021-08-04T10:07:37.902Z</time>
      </trkpt>
      <trkpt lat="46.97235" lon="8.76657">
        <ele>627</ele>
        <time>2021-08-04T10:07:38.903Z</time>
      </trkpt>
      <trkpt lat="46.97236" lon="8.76657">
        <ele>628</ele>
        <time>2021-08-04T10:07:39.903Z</time>
      </trkpt>
      <trkpt lat="46.97237" lon="8.76657">
        <ele>629</ele>
        <time>2021-08-04T10:07:40.903Z</time>
      </trkpt>
      <trkpt lat="46.97239" lon="8.76658">
        <ele>629</ele>
        <time>2021-08-04T10:07:41.902Z</time>
      </trkpt>
      <trkpt lat="46.9724" lon="8.76658">
        <ele>630</ele>
        <time>2021-08-04T10:07:42.902Z</time>
      </trkpt>
      <trkpt lat="46.97242" lon="8.76658">
        <ele>631</ele>
        <time>2021-08-04T10:07:43.903Z</time>
      </trkpt>
      <trkpt lat="46.97243" lon="8.76659">
        <ele>632</ele>
        <time>2021-08-04T10:07:44.902Z</time>
      </trkpt>
      <trkpt lat="46.97244" lon="8.76658">
        <ele>633</ele>
        <time>2021-08-04T10:07:45.903Z</time>
      </trkpt>
      <trkpt lat="46.97246" lon="8.76658">
        <ele>634</ele>
        <time>2021-08-04T10:07:46.903Z</time>
      </trkpt>
      <trkpt lat="46.97247" lon="8.76658">
        <ele>635</ele>
        <time>2021-08-04T10:07:47.902Z</time>
      </trkpt>
      <trkpt lat="46.97249" lon="8.76658">
        <ele>636</ele>
        <time>2021-08-04T10:07:48.903Z</time>
      </trkpt>
      <trkpt lat="46.97251" lon="8.76657">
        <ele>637</ele>
        <time>2021-08-04T10:07:49.903Z</time>
      </trkpt>
      <trkpt lat="46.97252" lon="8.76656">
        <ele>637</ele>
        <time>2021-08-04T10:07:50.903Z</time>
      </trkpt>
      <trkpt lat="46.97252" lon="8.76655">
        <ele>638</ele>
        <time>2021-08-04T10:07:51.902Z</time>
      </trkpt>
      <trkpt lat="46.97253" lon="8.76652">
        <ele>639</ele>
        <time>2021-08-04T10:07:52.902Z</time>
      </trkpt>
      <trkpt lat="46.97254" lon="8.7665">
        <ele>639</ele>
        <time>2021-08-04T10:07:53.903Z</time>
      </trkpt>
      <trkpt lat="46.97255" lon="8.76649">
        <ele>640</ele>
        <time>2021-08-04T10:07:54.903Z</time>
      </trkpt>
      <trkpt lat="46.97256" lon="8.76648">
        <ele>640</ele>
        <time>2021-08-04T10:07:55.902Z</time>
      </trkpt>
      <trkpt lat="46.97257" lon="8.76648">
        <ele>641</ele>
        <time>2021-08-04T10:07:56.903Z</time>
      </trkpt>
      <trkpt lat="46.97257" lon="8.76647">
        <ele>641</ele>
        <time>2021-08-04T10:07:57.903Z</time>
      </trkpt>
      <trkpt lat="46.97258" lon="8.76647">
        <ele>641</ele>
        <time>2021-08-04T10:07:58.903Z</time>
      </trkpt>
      <trkpt lat="46.97259" lon="8.76647">
        <ele>641</ele>
        <time>2021-08-04T10:07:59.903Z</time>
      </trkpt>
      <trkpt lat="46.9726" lon="8.76648">
        <ele>641</ele>
        <time>2021-08-04T10:08:00.902Z</time>
      </trkpt>
      <trkpt lat="46.9726" lon="8.76648">
        <ele>641</ele>
        <time>2021-08-04T10:08:01.903Z</time>
      </trkpt>
      <trkpt lat="46.9726" lon="8.76648">
        <ele>642</ele>
        <time>2021-08-04T10:08:02.903Z</time>
      </trkpt>
      <trkpt lat="46.97259" lon="8.76649">
        <ele>642</ele>
        <time>2021-08-04T10:08:03.779Z</time>
      </trkpt>
      <trkpt lat="46.97259" lon="8.76649">
        <ele>642</ele>
        <time>2021-08-04T10:08:04.779Z</time>
      </trkpt>
      <trkpt lat="46.9726" lon="8.7665">
        <ele>642</ele>
        <time>2021-08-04T10:08:05.904Z</time>
      </trkpt>
      <trkpt lat="46.97261" lon="8.76649">
        <ele>642</ele>
        <time>2021-08-04T10:08:06.779Z</time>
      </trkpt>
      <trkpt lat="46.97261" lon="8.76649">
        <ele>642</ele>
        <time>2021-08-04T10:08:07.779Z</time>
      </trkpt>
      <trkpt lat="46.97262" lon="8.76649">
        <ele>642</ele>
        <time>2021-08-04T10:08:08.903Z</time>
      </trkpt>
      <trkpt lat="46.97262" lon="8.76649">
        <ele>642</ele>
        <time>2021-08-04T10:08:09.779Z</time>
      </trkpt>
      <trkpt lat="46.97261" lon="8.76648">
        <ele>642</ele>
        <time>2021-08-04T10:08:10.904Z</time>
      </trkpt>
      <trkpt lat="46.97261" lon="8.76647">
        <ele>642</ele>
        <time>2021-08-04T10:08:11.779Z</time>
      </trkpt>
      <trkpt lat="46.97261" lon="8.76645">
        <ele>642</ele>
        <time>2021-08-04T10:08:12.779Z</time>
      </trkpt>
      <trkpt lat="46.97261" lon="8.76645">
        <ele>642</ele>
        <time>2021-08-04T10:08:13.779Z</time>
      </trkpt>
      <trkpt lat="46.97261" lon="8.76646">
        <ele>642</ele>
        <time>2021-08-04T10:08:14.779Z</time>
      </trkpt>
      <trkpt lat="46.97262" lon="8.76646">
        <ele>642</ele>
        <time>2021-08-04T10:08:15.904Z</time>
      </trkpt>
      <trkpt lat="46.97261" lon="8.76646">
        <ele>642</ele>
        <time>2021-08-04T10:08:16.903Z</time>
      </trkpt>
      <trkpt lat="46.97263" lon="8.76646">
        <ele>642</ele>
        <time>2021-08-04T10:08:17.779Z</time>
      </trkpt>
      <trkpt lat="46.97264" lon="8.76646">
        <ele>642</ele>
        <time>2021-08-04T10:08:18.779Z</time>
      </trkpt>
      <trkpt lat="46.97266" lon="8.76646">
        <ele>643</ele>
        <time>2021-08-04T10:08:19.779Z</time>
      </trkpt>
      <trkpt lat="46.97267" lon="8.76645">
        <ele>643</ele>
        <time>2021-08-04T10:08:20.779Z</time>
      </trkpt>
      <trkpt lat="46.97268" lon="8.76644">
        <ele>644</ele>
        <time>2021-08-04T10:08:21.904Z</time>
      </trkpt>
      <trkpt lat="46.97269" lon="8.76643">
        <ele>645</ele>
        <time>2021-08-04T10:08:22.904Z</time>
      </trkpt>
      <trkpt lat="46.97271" lon="8.76642">
        <ele>649</ele>
        <time>2021-08-04T10:08:23.903Z</time>
      </trkpt>
      <trkpt lat="46.97269" lon="8.7664">
        <ele>650</ele>
        <time>2021-08-04T10:08:24.779Z</time>
      </trkpt>
      <trkpt lat="46.97268" lon="8.76639">
        <ele>651</ele>
        <time>2021-08-04T10:08:25.779Z</time>
      </trkpt>
      <trkpt lat="46.97266" lon="8.76638">
        <ele>652</ele>
        <time>2021-08-04T10:08:26.779Z</time>
      </trkpt>
      <trkpt lat="46.97267" lon="8.76638">
        <ele>655</ele>
        <time>2021-08-04T10:08:27.781Z</time>
      </trkpt>
      <trkpt lat="46.97268" lon="8.76638">
        <ele>655</ele>
        <time>2021-08-04T10:08:28.780Z</time>
      </trkpt>
      <trkpt lat="46.97267" lon="8.76638">
        <ele>656</ele>
        <time>2021-08-04T10:08:29.780Z</time>
      </trkpt>
      <trkpt lat="46.97266" lon="8.76636">
        <ele>657</ele>
        <time>2021-08-04T10:08:30.782Z</time>
      </trkpt>
      <trkpt lat="46.97266" lon="8.76636">
        <ele>658</ele>
        <time>2021-08-04T10:08:31.782Z</time>
      </trkpt>
      <trkpt lat="46.97266" lon="8.76636">
        <ele>658</ele>
        <time>2021-08-04T10:08:32.782Z</time>
      </trkpt>
      <trkpt lat="46.97267" lon="8.76636">
        <ele>658</ele>
        <time>2021-08-04T10:08:33.782Z</time>
      </trkpt>
      <trkpt lat="46.97269" lon="8.76636">
        <ele>658</ele>
        <time>2021-08-04T10:08:34.782Z</time>
      </trkpt>
      <trkpt lat="46.97272" lon="8.76638">
        <ele>657</ele>
        <time>2021-08-04T10:08:35.782Z</time>
      </trkpt>
      <trkpt lat="46.97273" lon="8.7664">
        <ele>656</ele>
        <time>2021-08-04T10:08:36.782Z</time>
      </trkpt>
      <trkpt lat="46.97274" lon="8.7664">
        <ele>655</ele>
        <time>2021-08-04T10:08:37.782Z</time>
      </trkpt>
      <trkpt lat="46.97275" lon="8.7664">
        <ele>653</ele>
        <time>2021-08-04T10:08:38.782Z</time>
      </trkpt>
      <trkpt lat="46.97276" lon="8.7664">
        <ele>651</ele>
        <time>2021-08-04T10:08:39.782Z</time>
      </trkpt>
      <trkpt lat="46.97277" lon="8.76639">
        <ele>649</ele>
        <time>2021-08-04T10:08:40.782Z</time>
      </trkpt>
      <trkpt lat="46.97278" lon="8.76639">
        <ele>647</ele>
        <time>2021-08-04T10:08:41.782Z</time>
      </trkpt>
      <trkpt lat="46.97279" lon="8.76639">
        <ele>645</ele>
        <time>2021-08-04T10:08:42.782Z</time>
      </trkpt>
      <trkpt lat="46.9728" lon="8.76638">
        <ele>644</ele>
        <time>2021-08-04T10:08:43.782Z</time>
      </trkpt>
      <trkpt lat="46.9728" lon="8.76638">
        <ele>642</ele>
        <time>2021-08-04T10:08:44.782Z</time>
      </trkpt>
      <trkpt lat="46.97281" lon="8.76638">
        <ele>640</ele>
        <time>2021-08-04T10:08:45.782Z</time>
      </trkpt>
      <trkpt lat="46.97282" lon="8.76638">
        <ele>639</ele>
        <time>2021-08-04T10:08:46.782Z</time>
      </trkpt>
      <trkpt lat="46.97283" lon="8.76638">
        <ele>638</ele>
        <time>2021-08-04T10:08:47.782Z</time>
      </trkpt>
      <trkpt lat="46.97284" lon="8.76637">
        <ele>636</ele>
        <time>2021-08-04T10:08:48.782Z</time>
      </trkpt>
      <trkpt lat="46.97286" lon="8.76638">
        <ele>635</ele>
        <time>2021-08-04T10:08:49.782Z</time>
      </trkpt>
      <trkpt lat="46.97287" lon="8.76639">
        <ele>634</ele>
        <time>2021-08-04T10:08:50.782Z</time>
      </trkpt>
      <trkpt lat="46.97288" lon="8.7664">
        <ele>634</ele>
        <time>2021-08-04T10:08:51.782Z</time>
      </trkpt>
      <trkpt lat="46.97289" lon="8.7664">
        <ele>633</ele>
        <time>2021-08-04T10:08:52.782Z</time>
      </trkpt>
      <trkpt lat="46.9729" lon="8.7664">
        <ele>633</ele>
        <time>2021-08-04T10:08:53.782Z</time>
      </trkpt>
      <trkpt lat="46.97291" lon="8.7664">
        <ele>632</ele>
        <time>2021-08-04T10:08:54.782Z</time>
      </trkpt>
      <trkpt lat="46.97292" lon="8.76639">
        <ele>631</ele>
        <time>2021-08-04T10:08:55.782Z</time>
      </trkpt>
      <trkpt lat="46.97293" lon="8.76639">
        <ele>630</ele>
        <time>2021-08-04T10:08:56.782Z</time>
      </trkpt>
      <trkpt lat="46.97293" lon="8.76639">
        <ele>630</ele>
        <time>2021-08-04T10:08:57.782Z</time>
      </trkpt>
      <trkpt lat="46.97294" lon="8.76638">
        <ele>629</ele>
        <time>2021-08-04T10:08:58.782Z</time>
      </trkpt>
      <trkpt lat="46.97295" lon="8.76638">
        <ele>628</ele>
        <time>2021-08-04T10:08:59.782Z</time>
      </trkpt>
      <trkpt lat="46.97296" lon="8.76638">
        <ele>627</ele>
        <time>2021-08-04T10:09:00.782Z</time>
      </trkpt>
      <trkpt lat="46.97296" lon="8.76638">
        <ele>626</ele>
        <time>2021-08-04T10:09:01.782Z</time>
      </trkpt>
      <trkpt lat="46.97296" lon="8.76637">
        <ele>626</ele>
        <time>2021-08-04T10:09:02.782Z</time>
      </trkpt>
      <trkpt lat="46.97297" lon="8.76636">
        <ele>625</ele>
        <time>2021-08-04T10:09:03.782Z</time>
      </trkpt>
      <trkpt lat="46.97297" lon="8.76636">
        <ele>625</ele>
        <time>2021-08-04T10:09:04.782Z</time>
      </trkpt>
      <trkpt lat="46.97298" lon="8.76635">
        <ele>624</ele>
        <time>2021-08-04T10:09:05.782Z</time>
      </trkpt>
      <trkpt lat="46.97298" lon="8.76634">
        <ele>624</ele>
        <time>2021-08-04T10:09:06.782Z</time>
      </trkpt>
      <trkpt lat="46.97298" lon="8.76633">
        <ele>623</ele>
        <time>2021-08-04T10:09:07.782Z</time>
      </trkpt>
      <trkpt lat="46.97298" lon="8.76632">
        <ele>623</ele>
        <time>2021-08-04T10:09:08.782Z</time>
      </trkpt>
      <trkpt lat="46.97299" lon="8.7663">
        <ele>623</ele>
        <time>2021-08-04T10:09:09.782Z</time>
      </trkpt>
      <trkpt lat="46.97299" lon="8.76629">
        <ele>623</ele>
        <time>2021-08-04T10:09:10.782Z</time>
      </trkpt>
      <trkpt lat="46.97299" lon="8.76627">
        <ele>623</ele>
        <time>2021-08-04T10:09:11.782Z</time>
      </trkpt>
      <trkpt lat="46.973" lon="8.76625">
        <ele>623</ele>
        <time>2021-08-04T10:09:12.782Z</time>
      </trkpt>
      <trkpt lat="46.973" lon="8.76624">
        <ele>623</ele>
        <time>2021-08-04T10:09:13.782Z</time>
      </trkpt>
      <trkpt lat="46.973" lon="8.76623">
        <ele>623</ele>
        <time>2021-08-04T10:09:14.782Z</time>
      </trkpt>
      <trkpt lat="46.973" lon="8.76622">
        <ele>623</ele>
        <time>2021-08-04T10:09:15.782Z</time>
      </trkpt>
      <trkpt lat="46.97301" lon="8.76621">
        <ele>623</ele>
        <time>2021-08-04T10:09:16.782Z</time>
      </trkpt>
      <trkpt lat="46.97302" lon="8.76619">
        <ele>622</ele>
        <time>2021-08-04T10:09:17.782Z</time>
      </trkpt>
      <trkpt lat="46.97303" lon="8.76618">
        <ele>622</ele>
        <time>2021-08-04T10:09:18.782Z</time>
      </trkpt>
      <trkpt lat="46.97304" lon="8.76616">
        <ele>622</ele>
        <time>2021-08-04T10:09:19.782Z</time>
      </trkpt>
      <trkpt lat="46.97305" lon="8.76615">
        <ele>621</ele>
        <time>2021-08-04T10:09:20.782Z</time>
      </trkpt>
      <trkpt lat="46.97305" lon="8.76614">
        <ele>621</ele>
        <time>2021-08-04T10:09:21.782Z</time>
      </trkpt>
      <trkpt lat="46.97305" lon="8.76613">
        <ele>621</ele>
        <time>2021-08-04T10:09:22.782Z</time>
      </trkpt>
      <trkpt lat="46.97306" lon="8.76611">
        <ele>621</ele>
        <time>2021-08-04T10:09:23.782Z</time>
      </trkpt>
      <trkpt lat="46.97306" lon="8.7661">
        <ele>620</ele>
        <time>2021-08-04T10:09:24.782Z</time>
      </trkpt>
      <trkpt lat="46.97307" lon="8.76608">
        <ele>620</ele>
        <time>2021-08-04T10:09:25.782Z</time>
      </trkpt>
      <trkpt lat="46.97308" lon="8.76607">
        <ele>620</ele>
        <time>2021-08-04T10:09:26.782Z</time>
      </trkpt>
      <trkpt lat="46.97309" lon="8.76605">
        <ele>620</ele>
        <time>2021-08-04T10:09:27.782Z</time>
      </trkpt>
      <trkpt lat="46.97309" lon="8.76603">
        <ele>620</ele>
        <time>2021-08-04T10:09:28.782Z</time>
      </trkpt>
      <trkpt lat="46.9731" lon="8.76601">
        <ele>620</ele>
        <time>2021-08-04T10:09:29.782Z</time>
      </trkpt>
      <trkpt lat="46.9731" lon="8.766">
        <ele>620</ele>
        <time>2021-08-04T10:09:30.782Z</time>
      </trkpt>
      <trkpt lat="46.97311" lon="8.76598">
        <ele>620</ele>
        <time>2021-08-04T10:09:31.782Z</time>
      </trkpt>
      <trkpt lat="46.97311" lon="8.76597">
        <ele>619</ele>
        <time>2021-08-04T10:09:32.782Z</time>
      </trkpt>
      <trkpt lat="46.97311" lon="8.76595">
        <ele>619</ele>
        <time>2021-08-04T10:09:33.782Z</time>
      </trkpt>
      <trkpt lat="46.97312" lon="8.76593">
        <ele>619</ele>
        <time>2021-08-04T10:09:34.782Z</time>
      </trkpt>
      <trkpt lat="46.97312" lon="8.76592">
        <ele>619</ele>
        <time>2021-08-04T10:09:35.782Z</time>
      </trkpt>
      <trkpt lat="46.97313" lon="8.7659">
        <ele>619</ele>
        <time>2021-08-04T10:09:36.782Z</time>
      </trkpt>
      <trkpt lat="46.97313" lon="8.76589">
        <ele>619</ele>
        <time>2021-08-04T10:09:37.782Z</time>
      </trkpt>
      <trkpt lat="46.97314" lon="8.76587">
        <ele>619</ele>
        <time>2021-08-04T10:09:38.782Z</time>
      </trkpt>
      <trkpt lat="46.97314" lon="8.76585">
        <ele>618</ele>
        <time>2021-08-04T10:09:39.782Z</time>
      </trkpt>
      <trkpt lat="46.97315" lon="8.76583">
        <ele>619</ele>
        <time>2021-08-04T10:09:40.782Z</time>
      </trkpt>
      <trkpt lat="46.97316" lon="8.76581">
        <ele>619</ele>
        <time>2021-08-04T10:09:41.782Z</time>
      </trkpt>
      <trkpt lat="46.97316" lon="8.7658">
        <ele>619</ele>
        <time>2021-08-04T10:09:42.782Z</time>
      </trkpt>
      <trkpt lat="46.97317" lon="8.76578">
        <ele>619</ele>
        <time>2021-08-04T10:09:43.782Z</time>
      </trkpt>
      <trkpt lat="46.97317" lon="8.76577">
        <ele>620</ele>
        <time>2021-08-04T10:09:44.782Z</time>
      </trkpt>
      <trkpt lat="46.97318" lon="8.76575">
        <ele>620</ele>
        <time>2021-08-04T10:09:45.782Z</time>
      </trkpt>
      <trkpt lat="46.97318" lon="8.76573">
        <ele>620</ele>
        <time>2021-08-04T10:09:46.782Z</time>
      </trkpt>
      <trkpt lat="46.97319" lon="8.76571">
        <ele>621</ele>
        <time>2021-08-04T10:09:47.782Z</time>
      </trkpt>
      <trkpt lat="46.97319" lon="8.7657">
        <ele>621</ele>
        <time>2021-08-04T10:09:48.782Z</time>
      </trkpt>
      <trkpt lat="46.9732" lon="8.76568">
        <ele>621</ele>
        <time>2021-08-04T10:09:49.782Z</time>
      </trkpt>
      <trkpt lat="46.9732" lon="8.76566">
        <ele>621</ele>
        <time>2021-08-04T10:09:50.782Z</time>
      </trkpt>
      <trkpt lat="46.97321" lon="8.76565">
        <ele>621</ele>
        <time>2021-08-04T10:09:51.782Z</time>
      </trkpt>
      <trkpt lat="46.97322" lon="8.76563">
        <ele>621</ele>
        <time>2021-08-04T10:09:52.782Z</time>
      </trkpt>
      <trkpt lat="46.97322" lon="8.76561">
        <ele>621</ele>
        <time>2021-08-04T10:09:53.782Z</time>
      </trkpt>
      <trkpt lat="46.97322" lon="8.76559">
        <ele>620</ele>
        <time>2021-08-04T10:09:54.782Z</time>
      </trkpt>
      <trkpt lat="46.97323" lon="8.76557">
        <ele>620</ele>
        <time>2021-08-04T10:09:55.782Z</time>
      </trkpt>
      <trkpt lat="46.97323" lon="8.76555">
        <ele>620</ele>
        <time>2021-08-04T10:09:56.782Z</time>
      </trkpt>
      <trkpt lat="46.97323" lon="8.76553">
        <ele>620</ele>
        <time>2021-08-04T10:09:57.782Z</time>
      </trkpt>
      <trkpt lat="46.97324" lon="8.76551">
        <ele>619</ele>
        <time>2021-08-04T10:09:58.782Z</time>
      </trkpt>
      <trkpt lat="46.97325" lon="8.76549">
        <ele>620</ele>
        <time>2021-08-04T10:09:59.782Z</time>
      </trkpt>
      <trkpt lat="46.97325" lon="8.76547">
        <ele>620</ele>
        <time>2021-08-04T10:10:00.782Z</time>
      </trkpt>
      <trkpt lat="46.97326" lon="8.76545">
        <ele>620</ele>
        <time>2021-08-04T10:10:01.782Z</time>
      </trkpt>
      <trkpt lat="46.97327" lon="8.76543">
        <ele>620</ele>
        <time>2021-08-04T10:10:02.782Z</time>
      </trkpt>
      <trkpt lat="46.97328" lon="8.76541">
        <ele>621</ele>
        <time>2021-08-04T10:10:03.782Z</time>
      </trkpt>
      <trkpt lat="46.97329" lon="8.7654">
        <ele>621</ele>
        <time>2021-08-04T10:10:04.782Z</time>
      </trkpt>
      <trkpt lat="46.97329" lon="8.76538">
        <ele>621</ele>
        <time>2021-08-04T10:10:05.782Z</time>
      </trkpt>
      <trkpt lat="46.9733" lon="8.76537">
        <ele>622</ele>
        <time>2021-08-04T10:10:06.782Z</time>
      </trkpt>
      <trkpt lat="46.9733" lon="8.76536">
        <ele>622</ele>
        <time>2021-08-04T10:10:07.782Z</time>
      </trkpt>
      <trkpt lat="46.97331" lon="8.76534">
        <ele>622</ele>
        <time>2021-08-04T10:10:08.782Z</time>
      </trkpt>
      <trkpt lat="46.97331" lon="8.76532">
        <ele>622</ele>
        <time>2021-08-04T10:10:09.782Z</time>
      </trkpt>
      <trkpt lat="46.97332" lon="8.76531">
        <ele>622</ele>
        <time>2021-08-04T10:10:10.782Z</time>
      </trkpt>
      <trkpt lat="46.97332" lon="8.76529">
        <ele>622</ele>
        <time>2021-08-04T10:10:11.782Z</time>
      </trkpt>
      <trkpt lat="46.97332" lon="8.76528">
        <ele>622</ele>
        <time>2021-08-04T10:10:12.782Z</time>
      </trkpt>
      <trkpt lat="46.97332" lon="8.76527">
        <ele>622</ele>
        <time>2021-08-04T10:10:13.782Z</time>
      </trkpt>
      <trkpt lat="46.97333" lon="8.76525">
        <ele>622</ele>
        <time>2021-08-04T10:10:14.782Z</time>
      </trkpt>
      <trkpt lat="46.97333" lon="8.76523">
        <ele>622</ele>
        <time>2021-08-04T10:10:15.782Z</time>
      </trkpt>
      <trkpt lat="46.97333" lon="8.76521">
        <ele>622</ele>
        <time>2021-08-04T10:10:16.782Z</time>
      </trkpt>
      <trkpt lat="46.97334" lon="8.76519">
        <ele>622</ele>
        <time>2021-08-04T10:10:17.782Z</time>
      </trkpt>
      <trkpt lat="46.97334" lon="8.76518">
        <ele>622</ele>
        <time>2021-08-04T10:10:18.782Z</time>
      </trkpt>
      <trkpt lat="46.97334" lon="8.76516">
        <ele>622</ele>
        <time>2021-08-04T10:10:19.782Z</time>
      </trkpt>
      <trkpt lat="46.97334" lon="8.76515">
        <ele>621</ele>
        <time>2021-08-04T10:10:20.782Z</time>
      </trkpt>
      <trkpt lat="46.97335" lon="8.76513">
        <ele>621</ele>
        <time>2021-08-04T10:10:21.782Z</time>
      </trkpt>
      <trkpt lat="46.97336" lon="8.76511">
        <ele>620</ele>
        <time>2021-08-04T10:10:22.782Z</time>
      </trkpt>
      <trkpt lat="46.97336" lon="8.7651">
        <ele>620</ele>
        <time>2021-08-04T10:10:23.782Z</time>
      </trkpt>
      <trkpt lat="46.97337" lon="8.76507">
        <ele>619</ele>
        <time>2021-08-04T10:10:24.782Z</time>
      </trkpt>
      <trkpt lat="46.97337" lon="8.76506">
        <ele>618</ele>
        <time>2021-08-04T10:10:25.782Z</time>
      </trkpt>
      <trkpt lat="46.97337" lon="8.76505">
        <ele>618</ele>
        <time>2021-08-04T10:10:26.782Z</time>
      </trkpt>
      <trkpt lat="46.97337" lon="8.76503">
        <ele>617</ele>
        <time>2021-08-04T10:10:27.782Z</time>
      </trkpt>
      <trkpt lat="46.97337" lon="8.76501">
        <ele>617</ele>
        <time>2021-08-04T10:10:28.782Z</time>
      </trkpt>
      <trkpt lat="46.97338" lon="8.765">
        <ele>616</ele>
        <time>2021-08-04T10:10:29.782Z</time>
      </trkpt>
      <trkpt lat="46.97339" lon="8.76498">
        <ele>616</ele>
        <time>2021-08-04T10:10:30.782Z</time>
      </trkpt>
      <trkpt lat="46.97339" lon="8.76496">
        <ele>615</ele>
        <time>2021-08-04T10:10:31.782Z</time>
      </trkpt>
      <trkpt lat="46.9734" lon="8.76495">
        <ele>615</ele>
        <time>2021-08-04T10:10:32.782Z</time>
      </trkpt>
      <trkpt lat="46.9734" lon="8.76493">
        <ele>614</ele>
        <time>2021-08-04T10:10:33.782Z</time>
      </trkpt>
      <trkpt lat="46.97341" lon="8.76491">
        <ele>614</ele>
        <time>2021-08-04T10:10:34.782Z</time>
      </trkpt>
      <trkpt lat="46.97341" lon="8.7649">
        <ele>614</ele>
        <time>2021-08-04T10:10:35.782Z</time>
      </trkpt>
      <trkpt lat="46.97342" lon="8.76488">
        <ele>614</ele>
        <time>2021-08-04T10:10:36.782Z</time>
      </trkpt>
      <trkpt lat="46.97342" lon="8.76486">
        <ele>613</ele>
        <time>2021-08-04T10:10:37.782Z</time>
      </trkpt>
      <trkpt lat="46.97343" lon="8.76485">
        <ele>613</ele>
        <time>2021-08-04T10:10:38.782Z</time>
      </trkpt>
      <trkpt lat="46.97343" lon="8.76483">
        <ele>614</ele>
        <time>2021-08-04T10:10:39.782Z</time>
      </trkpt>
      <trkpt lat="46.97343" lon="8.76482">
        <ele>614</ele>
        <time>2021-08-04T10:10:40.782Z</time>
      </trkpt>
      <trkpt lat="46.97344" lon="8.76481">
        <ele>614</ele>
        <time>2021-08-04T10:10:41.782Z</time>
      </trkpt>
      <trkpt lat="46.97344" lon="8.76479">
        <ele>615</ele>
        <time>2021-08-04T10:10:42.782Z</time>
      </trkpt>
      <trkpt lat="46.97344" lon="8.76477">
        <ele>615</ele>
        <time>2021-08-04T10:10:43.782Z</time>
      </trkpt>
      <trkpt lat="46.97344" lon="8.76476">
        <ele>615</ele>
        <time>2021-08-04T10:10:44.782Z</time>
      </trkpt>
      <trkpt lat="46.97345" lon="8.76474">
        <ele>615</ele>
        <time>2021-08-04T10:10:45.782Z</time>
      </trkpt>
      <trkpt lat="46.97345" lon="8.76472">
        <ele>616</ele>
        <time>2021-08-04T10:10:46.782Z</time>
      </trkpt>
      <trkpt lat="46.97346" lon="8.76471">
        <ele>616</ele>
        <time>2021-08-04T10:10:47.782Z</time>
      </trkpt>
      <trkpt lat="46.97346" lon="8.7647">
        <ele>616</ele>
        <time>2021-08-04T10:10:48.782Z</time>
      </trkpt>
      <trkpt lat="46.97346" lon="8.76469">
        <ele>616</ele>
        <time>2021-08-04T10:10:49.782Z</time>
      </trkpt>
      <trkpt lat="46.97345" lon="8.76469">
        <ele>616</ele>
        <time>2021-08-04T10:10:50.782Z</time>
      </trkpt>
      <trkpt lat="46.97345" lon="8.76468">
        <ele>616</ele>
        <time>2021-08-04T10:10:51.782Z</time>
      </trkpt>
      <trkpt lat="46.97342" lon="8.76465">
        <ele>617</ele>
        <time>2021-08-04T10:10:52.784Z</time>
      </trkpt>
      <trkpt lat="46.97342" lon="8.76465">
        <ele>617</ele>
        <time>2021-08-04T10:10:53.784Z</time>
      </trkpt>
      <trkpt lat="46.97341" lon="8.76465">
        <ele>617</ele>
        <time>2021-08-04T10:10:54.783Z</time>
      </trkpt>
      <trkpt lat="46.97341" lon="8.76464">
        <ele>617</ele>
        <time>2021-08-04T10:10:55.783Z</time>
      </trkpt>
      <trkpt lat="46.97341" lon="8.76463">
        <ele>617</ele>
        <time>2021-08-04T10:10:56.784Z</time>
      </trkpt>
      <trkpt lat="46.97342" lon="8.76463">
        <ele>618</ele>
        <time>2021-08-04T10:10:57.784Z</time>
      </trkpt>
      <trkpt lat="46.97342" lon="8.76462">
        <ele>618</ele>
        <time>2021-08-04T10:10:58.784Z</time>
      </trkpt>
      <trkpt lat="46.97343" lon="8.76462">
        <ele>619</ele>
        <time>2021-08-04T10:10:59.784Z</time>
      </trkpt>
      <trkpt lat="46.97344" lon="8.76461">
        <ele>620</ele>
        <time>2021-08-04T10:11:00.783Z</time>
      </trkpt>
      <trkpt lat="46.97345" lon="8.7646">
        <ele>621</ele>
        <time>2021-08-04T10:11:01.784Z</time>
      </trkpt>
      <trkpt lat="46.97345" lon="8.76459">
        <ele>621</ele>
        <time>2021-08-04T10:11:02.783Z</time>
      </trkpt>
      <trkpt lat="46.97345" lon="8.76458">
        <ele>621</ele>
        <time>2021-08-04T10:11:03.784Z</time>
      </trkpt>
      <trkpt lat="46.97345" lon="8.76457">
        <ele>621</ele>
        <time>2021-08-04T10:11:04.783Z</time>
      </trkpt>
      <trkpt lat="46.97346" lon="8.76456">
        <ele>622</ele>
        <time>2021-08-04T10:11:05.784Z</time>
      </trkpt>
      <trkpt lat="46.97347" lon="8.76454">
        <ele>622</ele>
        <time>2021-08-04T10:11:06.783Z</time>
      </trkpt>
      <trkpt lat="46.97347" lon="8.76453">
        <ele>622</ele>
        <time>2021-08-04T10:11:07.784Z</time>
      </trkpt>
      <trkpt lat="46.97348" lon="8.76452">
        <ele>622</ele>
        <time>2021-08-04T10:11:08.784Z</time>
      </trkpt>
      <trkpt lat="46.97348" lon="8.7645">
        <ele>622</ele>
        <time>2021-08-04T10:11:09.784Z</time>
      </trkpt>
      <trkpt lat="46.97349" lon="8.76449">
        <ele>621</ele>
        <time>2021-08-04T10:11:10.783Z</time>
      </trkpt>
      <trkpt lat="46.9735" lon="8.76448">
        <ele>621</ele>
        <time>2021-08-04T10:11:11.784Z</time>
      </trkpt>
      <trkpt lat="46.97351" lon="8.76446">
        <ele>621</ele>
        <time>2021-08-04T10:11:12.783Z</time>
      </trkpt>
      <trkpt lat="46.97351" lon="8.76445">
        <ele>621</ele>
        <time>2021-08-04T10:11:13.784Z</time>
      </trkpt>
      <trkpt lat="46.97352" lon="8.76443">
        <ele>621</ele>
        <time>2021-08-04T10:11:14.784Z</time>
      </trkpt>
      <trkpt lat="46.97353" lon="8.76442">
        <ele>621</ele>
        <time>2021-08-04T10:11:15.784Z</time>
      </trkpt>
      <trkpt lat="46.97354" lon="8.7644">
        <ele>621</ele>
        <time>2021-08-04T10:11:16.784Z</time>
      </trkpt>
      <trkpt lat="46.97355" lon="8.76439">
        <ele>621</ele>
        <time>2021-08-04T10:11:17.783Z</time>
      </trkpt>
      <trkpt lat="46.97355" lon="8.76437">
        <ele>621</ele>
        <time>2021-08-04T10:11:18.784Z</time>
      </trkpt>
      <trkpt lat="46.97356" lon="8.76435">
        <ele>622</ele>
        <time>2021-08-04T10:11:19.784Z</time>
      </trkpt>
      <trkpt lat="46.97356" lon="8.76434">
        <ele>623</ele>
        <time>2021-08-04T10:11:20.784Z</time>
      </trkpt>
      <trkpt lat="46.97356" lon="8.76432">
        <ele>623</ele>
        <time>2021-08-04T10:11:21.784Z</time>
      </trkpt>
      <trkpt lat="46.97356" lon="8.76431">
        <ele>623</ele>
        <time>2021-08-04T10:11:22.784Z</time>
      </trkpt>
      <trkpt lat="46.97357" lon="8.76429">
        <ele>623</ele>
        <time>2021-08-04T10:11:23.783Z</time>
      </trkpt>
      <trkpt lat="46.97358" lon="8.76428">
        <ele>623</ele>
        <time>2021-08-04T10:11:24.784Z</time>
      </trkpt>
      <trkpt lat="46.97358" lon="8.76426">
        <ele>623</ele>
        <time>2021-08-04T10:11:25.784Z</time>
      </trkpt>
      <trkpt lat="46.97359" lon="8.76424">
        <ele>623</ele>
        <time>2021-08-04T10:11:26.784Z</time>
      </trkpt>
      <trkpt lat="46.9736" lon="8.76422">
        <ele>624</ele>
        <time>2021-08-04T10:11:27.784Z</time>
      </trkpt>
      <trkpt lat="46.9736" lon="8.76421">
        <ele>624</ele>
        <time>2021-08-04T10:11:28.784Z</time>
      </trkpt>
      <trkpt lat="46.97361" lon="8.76419">
        <ele>624</ele>
        <time>2021-08-04T10:11:29.783Z</time>
      </trkpt>
      <trkpt lat="46.97361" lon="8.76418">
        <ele>623</ele>
        <time>2021-08-04T10:11:30.784Z</time>
      </trkpt>
      <trkpt lat="46.97361" lon="8.76416">
        <ele>623</ele>
        <time>2021-08-04T10:11:31.783Z</time>
      </trkpt>
      <trkpt lat="46.97362" lon="8.76415">
        <ele>623</ele>
        <time>2021-08-04T10:11:32.784Z</time>
      </trkpt>
      <trkpt lat="46.97362" lon="8.76413">
        <ele>623</ele>
        <time>2021-08-04T10:11:33.783Z</time>
      </trkpt>
      <trkpt lat="46.97363" lon="8.76412">
        <ele>622</ele>
        <time>2021-08-04T10:11:34.784Z</time>
      </trkpt>
      <trkpt lat="46.97364" lon="8.76411">
        <ele>622</ele>
        <time>2021-08-04T10:11:35.783Z</time>
      </trkpt>
      <trkpt lat="46.97364" lon="8.76409">
        <ele>621</ele>
        <time>2021-08-04T10:11:36.784Z</time>
      </trkpt>
      <trkpt lat="46.97364" lon="8.76407">
        <ele>621</ele>
        <time>2021-08-04T10:11:37.783Z</time>
      </trkpt>
      <trkpt lat="46.97364" lon="8.76406">
        <ele>621</ele>
        <time>2021-08-04T10:11:38.783Z</time>
      </trkpt>
      <trkpt lat="46.97365" lon="8.76404">
        <ele>621</ele>
        <time>2021-08-04T10:11:39.784Z</time>
      </trkpt>
      <trkpt lat="46.97365" lon="8.76403">
        <ele>620</ele>
        <time>2021-08-04T10:11:40.784Z</time>
      </trkpt>
      <trkpt lat="46.97366" lon="8.76401">
        <ele>620</ele>
        <time>2021-08-04T10:11:41.784Z</time>
      </trkpt>
      <trkpt lat="46.97367" lon="8.764">
        <ele>620</ele>
        <time>2021-08-04T10:11:42.784Z</time>
      </trkpt>
      <trkpt lat="46.97368" lon="8.76398">
        <ele>620</ele>
        <time>2021-08-04T10:11:43.783Z</time>
      </trkpt>
      <trkpt lat="46.97368" lon="8.76396">
        <ele>619</ele>
        <time>2021-08-04T10:11:44.784Z</time>
      </trkpt>
      <trkpt lat="46.97369" lon="8.76395">
        <ele>619</ele>
        <time>2021-08-04T10:11:45.783Z</time>
      </trkpt>
      <trkpt lat="46.97369" lon="8.76394">
        <ele>619</ele>
        <time>2021-08-04T10:11:46.784Z</time>
      </trkpt>
      <trkpt lat="46.9737" lon="8.76392">
        <ele>619</ele>
        <time>2021-08-04T10:11:47.783Z</time>
      </trkpt>
      <trkpt lat="46.97371" lon="8.7639">
        <ele>618</ele>
        <time>2021-08-04T10:11:48.784Z</time>
      </trkpt>
      <trkpt lat="46.97372" lon="8.76389">
        <ele>618</ele>
        <time>2021-08-04T10:11:49.783Z</time>
      </trkpt>
      <trkpt lat="46.97372" lon="8.76387">
        <ele>618</ele>
        <time>2021-08-04T10:11:50.784Z</time>
      </trkpt>
      <trkpt lat="46.97372" lon="8.76385">
        <ele>618</ele>
        <time>2021-08-04T10:11:51.784Z</time>
      </trkpt>
      <trkpt lat="46.97372" lon="8.76383">
        <ele>617</ele>
        <time>2021-08-04T10:11:52.784Z</time>
      </trkpt>
      <trkpt lat="46.97372" lon="8.76381">
        <ele>617</ele>
        <time>2021-08-04T10:11:53.783Z</time>
      </trkpt>
      <trkpt lat="46.97372" lon="8.76379">
        <ele>617</ele>
        <time>2021-08-04T10:11:54.784Z</time>
      </trkpt>
      <trkpt lat="46.97373" lon="8.76377">
        <ele>616</ele>
        <time>2021-08-04T10:11:55.783Z</time>
      </trkpt>
      <trkpt lat="46.97373" lon="8.76376">
        <ele>616</ele>
        <time>2021-08-04T10:11:56.783Z</time>
      </trkpt>
      <trkpt lat="46.97373" lon="8.76374">
        <ele>616</ele>
        <time>2021-08-04T10:11:57.783Z</time>
      </trkpt>
      <trkpt lat="46.97374" lon="8.76373">
        <ele>616</ele>
        <time>2021-08-04T10:11:58.784Z</time>
      </trkpt>
      <trkpt lat="46.97375" lon="8.76371">
        <ele>616</ele>
        <time>2021-08-04T10:11:59.784Z</time>
      </trkpt>
      <trkpt lat="46.97375" lon="8.76369">
        <ele>616</ele>
        <time>2021-08-04T10:12:00.784Z</time>
      </trkpt>
      <trkpt lat="46.97376" lon="8.76367">
        <ele>616</ele>
        <time>2021-08-04T10:12:01.784Z</time>
      </trkpt>
      <trkpt lat="46.97376" lon="8.76366">
        <ele>616</ele>
        <time>2021-08-04T10:12:02.784Z</time>
      </trkpt>
      <trkpt lat="46.97377" lon="8.76364">
        <ele>616</ele>
        <time>2021-08-04T10:12:03.784Z</time>
      </trkpt>
      <trkpt lat="46.97378" lon="8.76363">
        <ele>617</ele>
        <time>2021-08-04T10:12:04.784Z</time>
      </trkpt>
      <trkpt lat="46.97379" lon="8.76361">
        <ele>617</ele>
        <time>2021-08-04T10:12:05.783Z</time>
      </trkpt>
      <trkpt lat="46.9738" lon="8.76359">
        <ele>617</ele>
        <time>2021-08-04T10:12:06.783Z</time>
      </trkpt>
      <trkpt lat="46.97381" lon="8.76357">
        <ele>617</ele>
        <time>2021-08-04T10:12:07.784Z</time>
      </trkpt>
      <trkpt lat="46.97381" lon="8.76355">
        <ele>618</ele>
        <time>2021-08-04T10:12:08.783Z</time>
      </trkpt>
      <trkpt lat="46.97382" lon="8.76354">
        <ele>618</ele>
        <time>2021-08-04T10:12:09.783Z</time>
      </trkpt>
      <trkpt lat="46.97382" lon="8.76352">
        <ele>618</ele>
        <time>2021-08-04T10:12:10.783Z</time>
      </trkpt>
      <trkpt lat="46.97383" lon="8.7635">
        <ele>619</ele>
        <time>2021-08-04T10:12:11.783Z</time>
      </trkpt>
      <trkpt lat="46.97383" lon="8.76349">
        <ele>619</ele>
        <time>2021-08-04T10:12:12.784Z</time>
      </trkpt>
      <trkpt lat="46.97383" lon="8.76347">
        <ele>619</ele>
        <time>2021-08-04T10:12:13.784Z</time>
      </trkpt>
      <trkpt lat="46.97384" lon="8.76345">
        <ele>619</ele>
        <time>2021-08-04T10:12:14.784Z</time>
      </trkpt>
      <trkpt lat="46.97384" lon="8.76344">
        <ele>619</ele>
        <time>2021-08-04T10:12:15.784Z</time>
      </trkpt>
      <trkpt lat="46.97384" lon="8.76342">
        <ele>619</ele>
        <time>2021-08-04T10:12:16.783Z</time>
      </trkpt>
      <trkpt lat="46.97385" lon="8.76341">
        <ele>619</ele>
        <time>2021-08-04T10:12:17.784Z</time>
      </trkpt>
      <trkpt lat="46.97385" lon="8.76339">
        <ele>618</ele>
        <time>2021-08-04T10:12:18.783Z</time>
      </trkpt>
      <trkpt lat="46.97387" lon="8.76338">
        <ele>618</ele>
        <time>2021-08-04T10:12:19.784Z</time>
      </trkpt>
      <trkpt lat="46.97388" lon="8.76336">
        <ele>618</ele>
        <time>2021-08-04T10:12:20.784Z</time>
      </trkpt>
      <trkpt lat="46.97389" lon="8.76334">
        <ele>619</ele>
        <time>2021-08-04T10:12:21.783Z</time>
      </trkpt>
      <trkpt lat="46.97389" lon="8.76333">
        <ele>619</ele>
        <time>2021-08-04T10:12:22.783Z</time>
      </trkpt>
      <trkpt lat="46.97389" lon="8.76331">
        <ele>619</ele>
        <time>2021-08-04T10:12:23.784Z</time>
      </trkpt>
      <trkpt lat="46.97389" lon="8.76329">
        <ele>619</ele>
        <time>2021-08-04T10:12:24.784Z</time>
      </trkpt>
      <trkpt lat="46.97389" lon="8.76327">
        <ele>619</ele>
        <time>2021-08-04T10:12:25.783Z</time>
      </trkpt>
      <trkpt lat="46.97389" lon="8.76325">
        <ele>620</ele>
        <time>2021-08-04T10:12:26.784Z</time>
      </trkpt>
      <trkpt lat="46.97389" lon="8.76323">
        <ele>620</ele>
        <time>2021-08-04T10:12:27.784Z</time>
      </trkpt>
      <trkpt lat="46.9739" lon="8.76322">
        <ele>620</ele>
        <time>2021-08-04T10:12:28.783Z</time>
      </trkpt>
      <trkpt lat="46.97391" lon="8.7632">
        <ele>620</ele>
        <time>2021-08-04T10:12:29.784Z</time>
      </trkpt>
      <trkpt lat="46.97393" lon="8.76318">
        <ele>621</ele>
        <time>2021-08-04T10:12:30.784Z</time>
      </trkpt>
      <trkpt lat="46.97394" lon="8.76316">
        <ele>621</ele>
        <time>2021-08-04T10:12:31.783Z</time>
      </trkpt>
      <trkpt lat="46.97395" lon="8.76314">
        <ele>621</ele>
        <time>2021-08-04T10:12:32.783Z</time>
      </trkpt>
      <trkpt lat="46.97395" lon="8.76313">
        <ele>621</ele>
        <time>2021-08-04T10:12:33.783Z</time>
      </trkpt>
      <trkpt lat="46.97395" lon="8.76311">
        <ele>621</ele>
        <time>2021-08-04T10:12:34.783Z</time>
      </trkpt>
      <trkpt lat="46.97395" lon="8.76309">
        <ele>621</ele>
        <time>2021-08-04T10:12:35.784Z</time>
      </trkpt>
      <trkpt lat="46.97395" lon="8.76308">
        <ele>621</ele>
        <time>2021-08-04T10:12:36.784Z</time>
      </trkpt>
      <trkpt lat="46.97396" lon="8.76306">
        <ele>620</ele>
        <time>2021-08-04T10:12:37.783Z</time>
      </trkpt>
      <trkpt lat="46.97396" lon="8.76304">
        <ele>620</ele>
        <time>2021-08-04T10:12:38.783Z</time>
      </trkpt>
      <trkpt lat="46.97396" lon="8.76302">
        <ele>620</ele>
        <time>2021-08-04T10:12:39.784Z</time>
      </trkpt>
      <trkpt lat="46.97397" lon="8.76301">
        <ele>619</ele>
        <time>2021-08-04T10:12:40.783Z</time>
      </trkpt>
      <trkpt lat="46.97397" lon="8.76299">
        <ele>619</ele>
        <time>2021-08-04T10:12:41.784Z</time>
      </trkpt>
      <trkpt lat="46.97397" lon="8.76297">
        <ele>619</ele>
        <time>2021-08-04T10:12:42.784Z</time>
      </trkpt>
      <trkpt lat="46.97398" lon="8.76294">
        <ele>619</ele>
        <time>2021-08-04T10:12:43.784Z</time>
      </trkpt>
      <trkpt lat="46.97398" lon="8.76292">
        <ele>620</ele>
        <time>2021-08-04T10:12:44.783Z</time>
      </trkpt>
      <trkpt lat="46.97399" lon="8.7629">
        <ele>620</ele>
        <time>2021-08-04T10:12:45.784Z</time>
      </trkpt>
      <trkpt lat="46.97399" lon="8.76288">
        <ele>620</ele>
        <time>2021-08-04T10:12:46.784Z</time>
      </trkpt>
      <trkpt lat="46.97399" lon="8.76286">
        <ele>620</ele>
        <time>2021-08-04T10:12:47.784Z</time>
      </trkpt>
      <trkpt lat="46.97399" lon="8.76285">
        <ele>621</ele>
        <time>2021-08-04T10:12:48.784Z</time>
      </trkpt>
      <trkpt lat="46.97399" lon="8.76283">
        <ele>621</ele>
        <time>2021-08-04T10:12:49.783Z</time>
      </trkpt>
      <trkpt lat="46.97399" lon="8.76282">
        <ele>621</ele>
        <time>2021-08-04T10:12:50.783Z</time>
      </trkpt>
      <trkpt lat="46.97399" lon="8.76281">
        <ele>621</ele>
        <time>2021-08-04T10:12:51.784Z</time>
      </trkpt>
      <trkpt lat="46.974" lon="8.76279">
        <ele>622</ele>
        <time>2021-08-04T10:12:52.784Z</time>
      </trkpt>
      <trkpt lat="46.974" lon="8.76277">
        <ele>622</ele>
        <time>2021-08-04T10:12:53.783Z</time>
      </trkpt>
      <trkpt lat="46.974" lon="8.76276">
        <ele>622</ele>
        <time>2021-08-04T10:12:54.784Z</time>
      </trkpt>
      <trkpt lat="46.97401" lon="8.76275">
        <ele>622</ele>
        <time>2021-08-04T10:12:55.784Z</time>
      </trkpt>
      <trkpt lat="46.97402" lon="8.76273">
        <ele>622</ele>
        <time>2021-08-04T10:12:56.783Z</time>
      </trkpt>
      <trkpt lat="46.97403" lon="8.76271">
        <ele>622</ele>
        <time>2021-08-04T10:12:57.784Z</time>
      </trkpt>
      <trkpt lat="46.97404" lon="8.76269">
        <ele>622</ele>
        <time>2021-08-04T10:12:58.784Z</time>
      </trkpt>
      <trkpt lat="46.97405" lon="8.76267">
        <ele>622</ele>
        <time>2021-08-04T10:12:59.784Z</time>
      </trkpt>
      <trkpt lat="46.97405" lon="8.76265">
        <ele>622</ele>
        <time>2021-08-04T10:13:00.784Z</time>
      </trkpt>
      <trkpt lat="46.97406" lon="8.76264">
        <ele>622</ele>
        <time>2021-08-04T10:13:01.784Z</time>
      </trkpt>
      <trkpt lat="46.97406" lon="8.76262">
        <ele>622</ele>
        <time>2021-08-04T10:13:02.783Z</time>
      </trkpt>
      <trkpt lat="46.97407" lon="8.7626">
        <ele>622</ele>
        <time>2021-08-04T10:13:03.784Z</time>
      </trkpt>
      <trkpt lat="46.97407" lon="8.76258">
        <ele>621</ele>
        <time>2021-08-04T10:13:04.783Z</time>
      </trkpt>
      <trkpt lat="46.97408" lon="8.76257">
        <ele>621</ele>
        <time>2021-08-04T10:13:05.784Z</time>
      </trkpt>
      <trkpt lat="46.97408" lon="8.76255">
        <ele>621</ele>
        <time>2021-08-04T10:13:06.783Z</time>
      </trkpt>
      <trkpt lat="46.97409" lon="8.76254">
        <ele>621</ele>
        <time>2021-08-04T10:13:07.784Z</time>
      </trkpt>
      <trkpt lat="46.97408" lon="8.76252">
        <ele>621</ele>
        <time>2021-08-04T10:13:08.784Z</time>
      </trkpt>
      <trkpt lat="46.97408" lon="8.76251">
        <ele>621</ele>
        <time>2021-08-04T10:13:09.784Z</time>
      </trkpt>
      <trkpt lat="46.97408" lon="8.7625">
        <ele>620</ele>
        <time>2021-08-04T10:13:10.784Z</time>
      </trkpt>
      <trkpt lat="46.97409" lon="8.76249">
        <ele>620</ele>
        <time>2021-08-04T10:13:11.784Z</time>
      </trkpt>
      <trkpt lat="46.97409" lon="8.76247">
        <ele>620</ele>
        <time>2021-08-04T10:13:12.783Z</time>
      </trkpt>
      <trkpt lat="46.9741" lon="8.76246">
        <ele>620</ele>
        <time>2021-08-04T10:13:13.783Z</time>
      </trkpt>
      <trkpt lat="46.9741" lon="8.76244">
        <ele>620</ele>
        <time>2021-08-04T10:13:14.783Z</time>
      </trkpt>
      <trkpt lat="46.9741" lon="8.76243">
        <ele>619</ele>
        <time>2021-08-04T10:13:15.784Z</time>
      </trkpt>
      <trkpt lat="46.9741" lon="8.76241">
        <ele>619</ele>
        <time>2021-08-04T10:13:16.784Z</time>
      </trkpt>
      <trkpt lat="46.9741" lon="8.76239">
        <ele>619</ele>
        <time>2021-08-04T10:13:17.784Z</time>
      </trkpt>
      <trkpt lat="46.97411" lon="8.76237">
        <ele>619</ele>
        <time>2021-08-04T10:13:18.783Z</time>
      </trkpt>
      <trkpt lat="46.97411" lon="8.76235">
        <ele>619</ele>
        <time>2021-08-04T10:13:19.783Z</time>
      </trkpt>
      <trkpt lat="46.97412" lon="8.76233">
        <ele>618</ele>
        <time>2021-08-04T10:13:20.784Z</time>
      </trkpt>
      <trkpt lat="46.97412" lon="8.76232">
        <ele>618</ele>
        <time>2021-08-04T10:13:21.784Z</time>
      </trkpt>
      <trkpt lat="46.97412" lon="8.7623">
        <ele>618</ele>
        <time>2021-08-04T10:13:22.784Z</time>
      </trkpt>
      <trkpt lat="46.97412" lon="8.76228">
        <ele>618</ele>
        <time>2021-08-04T10:13:23.784Z</time>
      </trkpt>
      <trkpt lat="46.97413" lon="8.76226">
        <ele>618</ele>
        <time>2021-08-04T10:13:24.784Z</time>
      </trkpt>
      <trkpt lat="46.97413" lon="8.76225">
        <ele>618</ele>
        <time>2021-08-04T10:13:25.784Z</time>
      </trkpt>
      <trkpt lat="46.97414" lon="8.76223">
        <ele>618</ele>
        <time>2021-08-04T10:13:26.784Z</time>
      </trkpt>
      <trkpt lat="46.97414" lon="8.76221">
        <ele>617</ele>
        <time>2021-08-04T10:13:27.783Z</time>
      </trkpt>
      <trkpt lat="46.97414" lon="8.7622">
        <ele>617</ele>
        <time>2021-08-04T10:13:28.783Z</time>
      </trkpt>
      <trkpt lat="46.97415" lon="8.76218">
        <ele>617</ele>
        <time>2021-08-04T10:13:29.784Z</time>
      </trkpt>
      <trkpt lat="46.97415" lon="8.76217">
        <ele>617</ele>
        <time>2021-08-04T10:13:30.784Z</time>
      </trkpt>
      <trkpt lat="46.97416" lon="8.76215">
        <ele>617</ele>
        <time>2021-08-04T10:13:31.784Z</time>
      </trkpt>
      <trkpt lat="46.97416" lon="8.76213">
        <ele>617</ele>
        <time>2021-08-04T10:13:32.784Z</time>
      </trkpt>
      <trkpt lat="46.97416" lon="8.76211">
        <ele>617</ele>
        <time>2021-08-04T10:13:33.784Z</time>
      </trkpt>
      <trkpt lat="46.97417" lon="8.7621">
        <ele>617</ele>
        <time>2021-08-04T10:13:34.783Z</time>
      </trkpt>
      <trkpt lat="46.97417" lon="8.76209">
        <ele>618</ele>
        <time>2021-08-04T10:13:35.784Z</time>
      </trkpt>
      <trkpt lat="46.97417" lon="8.76207">
        <ele>618</ele>
        <time>2021-08-04T10:13:36.783Z</time>
      </trkpt>
      <trkpt lat="46.97417" lon="8.76206">
        <ele>619</ele>
        <time>2021-08-04T10:13:37.784Z</time>
      </trkpt>
      <trkpt lat="46.97417" lon="8.76205">
        <ele>619</ele>
        <time>2021-08-04T10:13:38.783Z</time>
      </trkpt>
      <trkpt lat="46.97418" lon="8.76204">
        <ele>619</ele>
        <time>2021-08-04T10:13:39.784Z</time>
      </trkpt>
      <trkpt lat="46.97418" lon="8.76203">
        <ele>620</ele>
        <time>2021-08-04T10:13:40.784Z</time>
      </trkpt>
      <trkpt lat="46.9742" lon="8.76201">
        <ele>620</ele>
        <time>2021-08-04T10:13:41.783Z</time>
      </trkpt>
      <trkpt lat="46.97422" lon="8.76199">
        <ele>619</ele>
        <time>2021-08-04T10:13:42.784Z</time>
      </trkpt>
      <trkpt lat="46.97423" lon="8.76198">
        <ele>619</ele>
        <time>2021-08-04T10:13:43.784Z</time>
      </trkpt>
      <trkpt lat="46.97423" lon="8.76196">
        <ele>619</ele>
        <time>2021-08-04T10:13:44.784Z</time>
      </trkpt>
      <trkpt lat="46.97424" lon="8.76194">
        <ele>618</ele>
        <time>2021-08-04T10:13:45.784Z</time>
      </trkpt>
      <trkpt lat="46.97424" lon="8.76192">
        <ele>618</ele>
        <time>2021-08-04T10:13:46.784Z</time>
      </trkpt>
      <trkpt lat="46.97424" lon="8.76191">
        <ele>618</ele>
        <time>2021-08-04T10:13:47.784Z</time>
      </trkpt>
      <trkpt lat="46.97425" lon="8.76189">
        <ele>618</ele>
        <time>2021-08-04T10:13:48.783Z</time>
      </trkpt>
      <trkpt lat="46.97426" lon="8.76188">
        <ele>618</ele>
        <time>2021-08-04T10:13:49.784Z</time>
      </trkpt>
      <trkpt lat="46.97426" lon="8.76187">
        <ele>618</ele>
        <time>2021-08-04T10:13:50.784Z</time>
      </trkpt>
      <trkpt lat="46.97427" lon="8.76185">
        <ele>618</ele>
        <time>2021-08-04T10:13:51.784Z</time>
      </trkpt>
      <trkpt lat="46.97427" lon="8.76184">
        <ele>618</ele>
        <time>2021-08-04T10:13:52.784Z</time>
      </trkpt>
      <trkpt lat="46.97427" lon="8.76183">
        <ele>618</ele>
        <time>2021-08-04T10:13:53.784Z</time>
      </trkpt>
      <trkpt lat="46.97427" lon="8.76182">
        <ele>618</ele>
        <time>2021-08-04T10:13:54.784Z</time>
      </trkpt>
      <trkpt lat="46.97427" lon="8.76181">
        <ele>618</ele>
        <time>2021-08-04T10:13:55.784Z</time>
      </trkpt>
      <trkpt lat="46.97426" lon="8.7618">
        <ele>618</ele>
        <time>2021-08-04T10:13:56.783Z</time>
      </trkpt>
      <trkpt lat="46.97427" lon="8.76179">
        <ele>618</ele>
        <time>2021-08-04T10:13:57.783Z</time>
      </trkpt>
      <trkpt lat="46.97427" lon="8.76178">
        <ele>617</ele>
        <time>2021-08-04T10:13:58.784Z</time>
      </trkpt>
      <trkpt lat="46.97428" lon="8.76177">
        <ele>617</ele>
        <time>2021-08-04T10:13:59.784Z</time>
      </trkpt>
      <trkpt lat="46.97428" lon="8.76175">
        <ele>617</ele>
        <time>2021-08-04T10:14:00.784Z</time>
      </trkpt>
      <trkpt lat="46.97427" lon="8.76172">
        <ele>617</ele>
        <time>2021-08-04T10:14:01.784Z</time>
      </trkpt>
      <trkpt lat="46.97427" lon="8.7617">
        <ele>618</ele>
        <time>2021-08-04T10:14:02.784Z</time>
      </trkpt>
      <trkpt lat="46.97427" lon="8.76169">
        <ele>618</ele>
        <time>2021-08-04T10:14:03.784Z</time>
      </trkpt>
      <trkpt lat="46.97428" lon="8.76168">
        <ele>618</ele>
        <time>2021-08-04T10:14:04.784Z</time>
      </trkpt>
      <trkpt lat="46.97429" lon="8.76166">
        <ele>618</ele>
        <time>2021-08-04T10:14:05.784Z</time>
      </trkpt>
      <trkpt lat="46.9743" lon="8.76164">
        <ele>619</ele>
        <time>2021-08-04T10:14:06.784Z</time>
      </trkpt>
      <trkpt lat="46.9743" lon="8.76163">
        <ele>619</ele>
        <time>2021-08-04T10:14:07.784Z</time>
      </trkpt>
      <trkpt lat="46.97431" lon="8.76161">
        <ele>619</ele>
        <time>2021-08-04T10:14:08.784Z</time>
      </trkpt>
      <trkpt lat="46.97431" lon="8.7616">
        <ele>619</ele>
        <time>2021-08-04T10:14:09.783Z</time>
      </trkpt>
      <trkpt lat="46.97431" lon="8.76158">
        <ele>619</ele>
        <time>2021-08-04T10:14:10.784Z</time>
      </trkpt>
      <trkpt lat="46.97432" lon="8.76157">
        <ele>619</ele>
        <time>2021-08-04T10:14:11.783Z</time>
      </trkpt>
      <trkpt lat="46.97432" lon="8.76155">
        <ele>619</ele>
        <time>2021-08-04T10:14:12.783Z</time>
      </trkpt>
      <trkpt lat="46.97432" lon="8.76154">
        <ele>619</ele>
        <time>2021-08-04T10:14:13.784Z</time>
      </trkpt>
      <trkpt lat="46.97431" lon="8.76152">
        <ele>619</ele>
        <time>2021-08-04T10:14:14.784Z</time>
      </trkpt>
      <trkpt lat="46.97431" lon="8.7615">
        <ele>619</ele>
        <time>2021-08-04T10:14:15.784Z</time>
      </trkpt>
      <trkpt lat="46.97431" lon="8.76149">
        <ele>619</ele>
        <time>2021-08-04T10:14:16.784Z</time>
      </trkpt>
      <trkpt lat="46.97432" lon="8.76147">
        <ele>619</ele>
        <time>2021-08-04T10:14:17.783Z</time>
      </trkpt>
      <trkpt lat="46.97433" lon="8.76145">
        <ele>620</ele>
        <time>2021-08-04T10:14:18.783Z</time>
      </trkpt>
      <trkpt lat="46.97433" lon="8.76143">
        <ele>620</ele>
        <time>2021-08-04T10:14:19.784Z</time>
      </trkpt>
      <trkpt lat="46.97434" lon="8.76141">
        <ele>620</ele>
        <time>2021-08-04T10:14:20.784Z</time>
      </trkpt>
      <trkpt lat="46.97434" lon="8.7614">
        <ele>621</ele>
        <time>2021-08-04T10:14:21.784Z</time>
      </trkpt>
      <trkpt lat="46.97435" lon="8.76138">
        <ele>621</ele>
        <time>2021-08-04T10:14:22.784Z</time>
      </trkpt>
      <trkpt lat="46.97436" lon="8.76136">
        <ele>621</ele>
        <time>2021-08-04T10:14:23.783Z</time>
      </trkpt>
      <trkpt lat="46.97437" lon="8.76134">
        <ele>621</ele>
        <time>2021-08-04T10:14:24.784Z</time>
      </trkpt>
      <trkpt lat="46.97438" lon="8.76133">
        <ele>621</ele>
        <time>2021-08-04T10:14:25.783Z</time>
      </trkpt>
      <trkpt lat="46.97439" lon="8.76131">
        <ele>621</ele>
        <time>2021-08-04T10:14:26.784Z</time>
      </trkpt>
      <trkpt lat="46.97439" lon="8.76129">
        <ele>621</ele>
        <time>2021-08-04T10:14:27.784Z</time>
      </trkpt>
      <trkpt lat="46.97439" lon="8.76127">
        <ele>621</ele>
        <time>2021-08-04T10:14:28.784Z</time>
      </trkpt>
      <trkpt lat="46.97439" lon="8.76125">
        <ele>620</ele>
        <time>2021-08-04T10:14:29.784Z</time>
      </trkpt>
      <trkpt lat="46.97439" lon="8.76123">
        <ele>621</ele>
        <time>2021-08-04T10:14:30.784Z</time>
      </trkpt>
      <trkpt lat="46.97439" lon="8.76122">
        <ele>621</ele>
        <time>2021-08-04T10:14:31.783Z</time>
      </trkpt>
      <trkpt lat="46.9744" lon="8.76119">
        <ele>621</ele>
        <time>2021-08-04T10:14:32.783Z</time>
      </trkpt>
      <trkpt lat="46.97439" lon="8.76117">
        <ele>621</ele>
        <time>2021-08-04T10:14:33.783Z</time>
      </trkpt>
      <trkpt lat="46.97439" lon="8.76114">
        <ele>621</ele>
        <time>2021-08-04T10:14:34.784Z</time>
      </trkpt>
      <trkpt lat="46.9744" lon="8.76111">
        <ele>621</ele>
        <time>2021-08-04T10:14:35.784Z</time>
      </trkpt>
      <trkpt lat="46.9744" lon="8.76109">
        <ele>621</ele>
        <time>2021-08-04T10:14:36.784Z</time>
      </trkpt>
      <trkpt lat="46.9744" lon="8.76106">
        <ele>621</ele>
        <time>2021-08-04T10:14:37.784Z</time>
      </trkpt>
      <trkpt lat="46.97441" lon="8.76104">
        <ele>621</ele>
        <time>2021-08-04T10:14:38.784Z</time>
      </trkpt>
      <trkpt lat="46.97441" lon="8.76102">
        <ele>622</ele>
        <time>2021-08-04T10:14:39.783Z</time>
      </trkpt>
      <trkpt lat="46.97442" lon="8.76101">
        <ele>622</ele>
        <time>2021-08-04T10:14:40.783Z</time>
      </trkpt>
      <trkpt lat="46.97442" lon="8.76099">
        <ele>622</ele>
        <time>2021-08-04T10:14:41.783Z</time>
      </trkpt>
      <trkpt lat="46.97442" lon="8.76098">
        <ele>622</ele>
        <time>2021-08-04T10:14:42.784Z</time>
      </trkpt>
      <trkpt lat="46.97443" lon="8.76097">
        <ele>622</ele>
        <time>2021-08-04T10:14:43.784Z</time>
      </trkpt>
      <trkpt lat="46.97444" lon="8.76096">
        <ele>622</ele>
        <time>2021-08-04T10:14:44.784Z</time>
      </trkpt>
      <trkpt lat="46.97445" lon="8.76095">
        <ele>622</ele>
        <time>2021-08-04T10:14:45.783Z</time>
      </trkpt>
      <trkpt lat="46.97445" lon="8.76094">
        <ele>623</ele>
        <time>2021-08-04T10:14:46.784Z</time>
      </trkpt>
      <trkpt lat="46.97446" lon="8.76093">
        <ele>623</ele>
        <time>2021-08-04T10:14:47.784Z</time>
      </trkpt>
      <trkpt lat="46.97447" lon="8.76091">
        <ele>623</ele>
        <time>2021-08-04T10:14:48.784Z</time>
      </trkpt>
      <trkpt lat="46.97447" lon="8.7609">
        <ele>623</ele>
        <time>2021-08-04T10:14:49.783Z</time>
      </trkpt>
      <trkpt lat="46.97448" lon="8.76088">
        <ele>622</ele>
        <time>2021-08-04T10:14:50.783Z</time>
      </trkpt>
      <trkpt lat="46.97448" lon="8.76087">
        <ele>622</ele>
        <time>2021-08-04T10:14:51.784Z</time>
      </trkpt>
      <trkpt lat="46.97449" lon="8.76086">
        <ele>621</ele>
        <time>2021-08-04T10:14:52.784Z</time>
      </trkpt>
      <trkpt lat="46.97449" lon="8.76084">
        <ele>621</ele>
        <time>2021-08-04T10:14:53.784Z</time>
      </trkpt>
      <trkpt lat="46.9745" lon="8.76082">
        <ele>621</ele>
        <time>2021-08-04T10:14:54.784Z</time>
      </trkpt>
      <trkpt lat="46.9745" lon="8.7608">
        <ele>620</ele>
        <time>2021-08-04T10:14:55.784Z</time>
      </trkpt>
      <trkpt lat="46.9745" lon="8.76078">
        <ele>620</ele>
        <time>2021-08-04T10:14:56.784Z</time>
      </trkpt>
      <trkpt lat="46.9745" lon="8.76076">
        <ele>619</ele>
        <time>2021-08-04T10:14:57.783Z</time>
      </trkpt>
      <trkpt lat="46.97451" lon="8.76075">
        <ele>619</ele>
        <time>2021-08-04T10:14:58.783Z</time>
      </trkpt>
      <trkpt lat="46.97452" lon="8.76073">
        <ele>619</ele>
        <time>2021-08-04T10:14:59.783Z</time>
      </trkpt>
      <trkpt lat="46.97452" lon="8.76071">
        <ele>619</ele>
        <time>2021-08-04T10:15:00.783Z</time>
      </trkpt>
      <trkpt lat="46.97453" lon="8.76069">
        <ele>619</ele>
        <time>2021-08-04T10:15:01.784Z</time>
      </trkpt>
      <trkpt lat="46.97453" lon="8.76068">
        <ele>619</ele>
        <time>2021-08-04T10:15:02.784Z</time>
      </trkpt>
      <trkpt lat="46.97454" lon="8.76066">
        <ele>619</ele>
        <time>2021-08-04T10:15:03.784Z</time>
      </trkpt>
      <trkpt lat="46.97455" lon="8.76066">
        <ele>619</ele>
        <time>2021-08-04T10:15:04.784Z</time>
      </trkpt>
      <trkpt lat="46.97455" lon="8.76064">
        <ele>618</ele>
        <time>2021-08-04T10:15:05.784Z</time>
      </trkpt>
      <trkpt lat="46.97456" lon="8.76062">
        <ele>618</ele>
        <time>2021-08-04T10:15:06.783Z</time>
      </trkpt>
      <trkpt lat="46.97457" lon="8.7606">
        <ele>618</ele>
        <time>2021-08-04T10:15:07.784Z</time>
      </trkpt>
      <trkpt lat="46.97458" lon="8.76059">
        <ele>618</ele>
        <time>2021-08-04T10:15:08.783Z</time>
      </trkpt>
      <trkpt lat="46.97458" lon="8.76057">
        <ele>618</ele>
        <time>2021-08-04T10:15:09.783Z</time>
      </trkpt>
      <trkpt lat="46.9746" lon="8.76056">
        <ele>617</ele>
        <time>2021-08-04T10:15:10.784Z</time>
      </trkpt>
      <trkpt lat="46.9746" lon="8.76054">
        <ele>617</ele>
        <time>2021-08-04T10:15:11.783Z</time>
      </trkpt>
      <trkpt lat="46.97461" lon="8.76052">
        <ele>617</ele>
        <time>2021-08-04T10:15:12.783Z</time>
      </trkpt>
      <trkpt lat="46.9746" lon="8.76049">
        <ele>617</ele>
        <time>2021-08-04T10:15:13.783Z</time>
      </trkpt>
      <trkpt lat="46.97461" lon="8.76047">
        <ele>617</ele>
        <time>2021-08-04T10:15:14.784Z</time>
      </trkpt>
      <trkpt lat="46.97462" lon="8.76045">
        <ele>617</ele>
        <time>2021-08-04T10:15:15.784Z</time>
      </trkpt>
      <trkpt lat="46.97463" lon="8.76044">
        <ele>617</ele>
        <time>2021-08-04T10:15:16.784Z</time>
      </trkpt>
      <trkpt lat="46.97463" lon="8.76043">
        <ele>617</ele>
        <time>2021-08-04T10:15:17.784Z</time>
      </trkpt>
      <trkpt lat="46.97465" lon="8.76041">
        <ele>617</ele>
        <time>2021-08-04T10:15:18.783Z</time>
      </trkpt>
      <trkpt lat="46.97466" lon="8.7604">
        <ele>617</ele>
        <time>2021-08-04T10:15:19.784Z</time>
      </trkpt>
      <trkpt lat="46.97466" lon="8.76038">
        <ele>617</ele>
        <time>2021-08-04T10:15:20.783Z</time>
      </trkpt>
      <trkpt lat="46.97466" lon="8.76036">
        <ele>617</ele>
        <time>2021-08-04T10:15:21.783Z</time>
      </trkpt>
      <trkpt lat="46.97467" lon="8.76034">
        <ele>617</ele>
        <time>2021-08-04T10:15:22.784Z</time>
      </trkpt>
      <trkpt lat="46.97467" lon="8.76032">
        <ele>617</ele>
        <time>2021-08-04T10:15:23.784Z</time>
      </trkpt>
      <trkpt lat="46.97468" lon="8.7603">
        <ele>617</ele>
        <time>2021-08-04T10:15:24.784Z</time>
      </trkpt>
      <trkpt lat="46.97468" lon="8.76029">
        <ele>617</ele>
        <time>2021-08-04T10:15:25.783Z</time>
      </trkpt>
      <trkpt lat="46.97468" lon="8.76028">
        <ele>617</ele>
        <time>2021-08-04T10:15:26.783Z</time>
      </trkpt>
      <trkpt lat="46.97469" lon="8.76026">
        <ele>618</ele>
        <time>2021-08-04T10:15:27.783Z</time>
      </trkpt>
      <trkpt lat="46.97469" lon="8.76024">
        <ele>618</ele>
        <time>2021-08-04T10:15:28.784Z</time>
      </trkpt>
      <trkpt lat="46.9747" lon="8.76023">
        <ele>618</ele>
        <time>2021-08-04T10:15:29.784Z</time>
      </trkpt>
      <trkpt lat="46.9747" lon="8.76021">
        <ele>618</ele>
        <time>2021-08-04T10:15:30.784Z</time>
      </trkpt>
      <trkpt lat="46.97471" lon="8.7602">
        <ele>618</ele>
        <time>2021-08-04T10:15:31.784Z</time>
      </trkpt>
      <trkpt lat="46.97472" lon="8.76018">
        <ele>618</ele>
        <time>2021-08-04T10:15:32.783Z</time>
      </trkpt>
      <trkpt lat="46.97473" lon="8.76017">
        <ele>618</ele>
        <time>2021-08-04T10:15:33.784Z</time>
      </trkpt>
      <trkpt lat="46.97474" lon="8.76015">
        <ele>618</ele>
        <time>2021-08-04T10:15:34.783Z</time>
      </trkpt>
      <trkpt lat="46.97474" lon="8.76013">
        <ele>618</ele>
        <time>2021-08-04T10:15:35.783Z</time>
      </trkpt>
      <trkpt lat="46.97475" lon="8.76011">
        <ele>618</ele>
        <time>2021-08-04T10:15:36.783Z</time>
      </trkpt>
      <trkpt lat="46.97476" lon="8.7601">
        <ele>618</ele>
        <time>2021-08-04T10:15:37.784Z</time>
      </trkpt>
      <trkpt lat="46.97476" lon="8.76008">
        <ele>618</ele>
        <time>2021-08-04T10:15:38.784Z</time>
      </trkpt>
      <trkpt lat="46.97477" lon="8.76007">
        <ele>618</ele>
        <time>2021-08-04T10:15:39.784Z</time>
      </trkpt>
      <trkpt lat="46.97477" lon="8.76005">
        <ele>617</ele>
        <time>2021-08-04T10:15:40.784Z</time>
      </trkpt>
      <trkpt lat="46.97478" lon="8.76004">
        <ele>617</ele>
        <time>2021-08-04T10:15:41.783Z</time>
      </trkpt>
      <trkpt lat="46.97479" lon="8.76003">
        <ele>616</ele>
        <time>2021-08-04T10:15:42.784Z</time>
      </trkpt>
      <trkpt lat="46.97479" lon="8.76001">
        <ele>616</ele>
        <time>2021-08-04T10:15:43.783Z</time>
      </trkpt>
      <trkpt lat="46.97479" lon="8.75999">
        <ele>616</ele>
        <time>2021-08-04T10:15:44.783Z</time>
      </trkpt>
      <trkpt lat="46.97479" lon="8.75997">
        <ele>616</ele>
        <time>2021-08-04T10:15:45.784Z</time>
      </trkpt>
      <trkpt lat="46.9748" lon="8.75995">
        <ele>616</ele>
        <time>2021-08-04T10:15:46.784Z</time>
      </trkpt>
      <trkpt lat="46.97481" lon="8.75993">
        <ele>616</ele>
        <time>2021-08-04T10:15:47.784Z</time>
      </trkpt>
      <trkpt lat="46.97481" lon="8.75991">
        <ele>616</ele>
        <time>2021-08-04T10:15:48.784Z</time>
      </trkpt>
      <trkpt lat="46.97482" lon="8.75989">
        <ele>616</ele>
        <time>2021-08-04T10:15:49.784Z</time>
      </trkpt>
      <trkpt lat="46.97482" lon="8.75987">
        <ele>616</ele>
        <time>2021-08-04T10:15:50.784Z</time>
      </trkpt>
      <trkpt lat="46.97483" lon="8.75986">
        <ele>616</ele>
        <time>2021-08-04T10:15:51.784Z</time>
      </trkpt>
      <trkpt lat="46.97483" lon="8.75984">
        <ele>615</ele>
        <time>2021-08-04T10:15:52.783Z</time>
      </trkpt>
      <trkpt lat="46.97483" lon="8.75982">
        <ele>615</ele>
        <time>2021-08-04T10:15:53.784Z</time>
      </trkpt>
      <trkpt lat="46.97482" lon="8.7598">
        <ele>615</ele>
        <time>2021-08-04T10:15:54.784Z</time>
      </trkpt>
      <trkpt lat="46.97482" lon="8.75979">
        <ele>615</ele>
        <time>2021-08-04T10:15:55.783Z</time>
      </trkpt>
      <trkpt lat="46.97482" lon="8.75977">
        <ele>615</ele>
        <time>2021-08-04T10:15:56.784Z</time>
      </trkpt>
      <trkpt lat="46.97482" lon="8.75975">
        <ele>615</ele>
        <time>2021-08-04T10:15:57.784Z</time>
      </trkpt>
      <trkpt lat="46.97483" lon="8.75973">
        <ele>615</ele>
        <time>2021-08-04T10:15:58.784Z</time>
      </trkpt>
      <trkpt lat="46.97483" lon="8.7597">
        <ele>615</ele>
        <time>2021-08-04T10:15:59.784Z</time>
      </trkpt>
      <trkpt lat="46.97483" lon="8.75968">
        <ele>615</ele>
        <time>2021-08-04T10:16:00.784Z</time>
      </trkpt>
      <trkpt lat="46.97484" lon="8.75966">
        <ele>615</ele>
        <time>2021-08-04T10:16:01.783Z</time>
      </trkpt>
      <trkpt lat="46.97485" lon="8.75964">
        <ele>615</ele>
        <time>2021-08-04T10:16:02.784Z</time>
      </trkpt>
      <trkpt lat="46.97486" lon="8.75963">
        <ele>615</ele>
        <time>2021-08-04T10:16:03.784Z</time>
      </trkpt>
      <trkpt lat="46.97486" lon="8.75961">
        <ele>615</ele>
        <time>2021-08-04T10:16:04.784Z</time>
      </trkpt>
      <trkpt lat="46.97486" lon="8.7596">
        <ele>615</ele>
        <time>2021-08-04T10:16:07.899Z</time>
      </trkpt>
      <trkpt lat="46.97486" lon="8.75958">
        <ele>615</ele>
        <time>2021-08-04T10:16:08.899Z</time>
      </trkpt>
      <trkpt lat="46.97486" lon="8.75956">
        <ele>615</ele>
        <time>2021-08-04T10:16:11.797Z</time>
      </trkpt>
      <trkpt lat="46.97487" lon="8.75954">
        <ele>615</ele>
        <time>2021-08-04T10:16:12.797Z</time>
      </trkpt>
      <trkpt lat="46.97488" lon="8.75951">
        <ele>615</ele>
        <time>2021-08-04T10:16:13.798Z</time>
      </trkpt>
      <trkpt lat="46.97489" lon="8.75949">
        <ele>615</ele>
        <time>2021-08-04T10:16:14.797Z</time>
      </trkpt>
      <trkpt lat="46.9749" lon="8.75947">
        <ele>615</ele>
        <time>2021-08-04T10:16:15.798Z</time>
      </trkpt>
      <trkpt lat="46.97491" lon="8.75945">
        <ele>615</ele>
        <time>2021-08-04T10:16:16.797Z</time>
      </trkpt>
      <trkpt lat="46.97493" lon="8.75943">
        <ele>615</ele>
        <time>2021-08-04T10:16:17.798Z</time>
      </trkpt>
      <trkpt lat="46.97493" lon="8.75941">
        <ele>615</ele>
        <time>2021-08-04T10:16:18.798Z</time>
      </trkpt>
      <trkpt lat="46.97493" lon="8.75939">
        <ele>615</ele>
        <time>2021-08-04T10:16:19.797Z</time>
      </trkpt>
      <trkpt lat="46.97494" lon="8.75936">
        <ele>615</ele>
        <time>2021-08-04T10:16:20.798Z</time>
      </trkpt>
      <trkpt lat="46.97495" lon="8.75934">
        <ele>615</ele>
        <time>2021-08-04T10:16:21.797Z</time>
      </trkpt>
      <trkpt lat="46.97497" lon="8.75932">
        <ele>615</ele>
        <time>2021-08-04T10:16:22.797Z</time>
      </trkpt>
      <trkpt lat="46.97498" lon="8.75929">
        <ele>615</ele>
        <time>2021-08-04T10:16:23.797Z</time>
      </trkpt>
      <trkpt lat="46.975" lon="8.75927">
        <ele>615</ele>
        <time>2021-08-04T10:16:24.798Z</time>
      </trkpt>
      <trkpt lat="46.975" lon="8.75925">
        <ele>615</ele>
        <time>2021-08-04T10:16:25.797Z</time>
      </trkpt>
      <trkpt lat="46.975" lon="8.75923">
        <ele>614</ele>
        <time>2021-08-04T10:16:26.798Z</time>
      </trkpt>
      <trkpt lat="46.975" lon="8.75921">
        <ele>614</ele>
        <time>2021-08-04T10:16:27.797Z</time>
      </trkpt>
      <trkpt lat="46.975" lon="8.7592">
        <ele>614</ele>
        <time>2021-08-04T10:16:28.798Z</time>
      </trkpt>
      <trkpt lat="46.975" lon="8.75919">
        <ele>615</ele>
        <time>2021-08-04T10:16:29.798Z</time>
      </trkpt>
      <trkpt lat="46.97501" lon="8.75918">
        <ele>614</ele>
        <time>2021-08-04T10:16:30.797Z</time>
      </trkpt>
      <trkpt lat="46.97501" lon="8.75916">
        <ele>614</ele>
        <time>2021-08-04T10:16:31.797Z</time>
      </trkpt>
      <trkpt lat="46.97502" lon="8.75915">
        <ele>614</ele>
        <time>2021-08-04T10:16:32.797Z</time>
      </trkpt>
      <trkpt lat="46.97502" lon="8.75913">
        <ele>614</ele>
        <time>2021-08-04T10:16:33.797Z</time>
      </trkpt>
      <trkpt lat="46.97502" lon="8.75912">
        <ele>614</ele>
        <time>2021-08-04T10:16:34.797Z</time>
      </trkpt>
      <trkpt lat="46.97503" lon="8.7591">
        <ele>614</ele>
        <time>2021-08-04T10:16:35.798Z</time>
      </trkpt>
      <trkpt lat="46.97503" lon="8.75908">
        <ele>614</ele>
        <time>2021-08-04T10:16:36.797Z</time>
      </trkpt>
      <trkpt lat="46.97503" lon="8.75907">
        <ele>613</ele>
        <time>2021-08-04T10:16:37.797Z</time>
      </trkpt>
      <trkpt lat="46.97504" lon="8.75905">
        <ele>613</ele>
        <time>2021-08-04T10:16:38.798Z</time>
      </trkpt>
      <trkpt lat="46.97504" lon="8.75903">
        <ele>613</ele>
        <time>2021-08-04T10:16:39.798Z</time>
      </trkpt>
      <trkpt lat="46.97504" lon="8.75902">
        <ele>613</ele>
        <time>2021-08-04T10:16:40.797Z</time>
      </trkpt>
      <trkpt lat="46.97503" lon="8.759">
        <ele>613</ele>
        <time>2021-08-04T10:16:46.816Z</time>
      </trkpt>
      <trkpt lat="46.97503" lon="8.75897">
        <ele>613</ele>
        <time>2021-08-04T10:16:47.817Z</time>
      </trkpt>
      <trkpt lat="46.97503" lon="8.75895">
        <ele>613</ele>
        <time>2021-08-04T10:16:48.817Z</time>
      </trkpt>
      <trkpt lat="46.97503" lon="8.75893">
        <ele>613</ele>
        <time>2021-08-04T10:16:49.817Z</time>
      </trkpt>
      <trkpt lat="46.97504" lon="8.75891">
        <ele>613</ele>
        <time>2021-08-04T10:16:50.817Z</time>
      </trkpt>
      <trkpt lat="46.97504" lon="8.7589">
        <ele>612</ele>
        <time>2021-08-04T10:16:51.816Z</time>
      </trkpt>
      <trkpt lat="46.97505" lon="8.75888">
        <ele>612</ele>
        <time>2021-08-04T10:16:52.816Z</time>
      </trkpt>
      <trkpt lat="46.97506" lon="8.75886">
        <ele>612</ele>
        <time>2021-08-04T10:16:53.817Z</time>
      </trkpt>
      <trkpt lat="46.97506" lon="8.75885">
        <ele>612</ele>
        <time>2021-08-04T10:16:54.816Z</time>
      </trkpt>
      <trkpt lat="46.97506" lon="8.75883">
        <ele>612</ele>
        <time>2021-08-04T10:16:55.816Z</time>
      </trkpt>
      <trkpt lat="46.97506" lon="8.75881">
        <ele>612</ele>
        <time>2021-08-04T10:16:56.816Z</time>
      </trkpt>
      <trkpt lat="46.97506" lon="8.7588">
        <ele>612</ele>
        <time>2021-08-04T10:16:57.816Z</time>
      </trkpt>
      <trkpt lat="46.97506" lon="8.75878">
        <ele>612</ele>
        <time>2021-08-04T10:16:58.817Z</time>
      </trkpt>
      <trkpt lat="46.97506" lon="8.75877">
        <ele>612</ele>
        <time>2021-08-04T10:16:59.817Z</time>
      </trkpt>
      <trkpt lat="46.97506" lon="8.75876">
        <ele>612</ele>
        <time>2021-08-04T10:17:00.817Z</time>
      </trkpt>
      <trkpt lat="46.97507" lon="8.75875">
        <ele>612</ele>
        <time>2021-08-04T10:17:01.816Z</time>
      </trkpt>
      <trkpt lat="46.97508" lon="8.75873">
        <ele>613</ele>
        <time>2021-08-04T10:17:02.817Z</time>
      </trkpt>
      <trkpt lat="46.97508" lon="8.75871">
        <ele>613</ele>
        <time>2021-08-04T10:17:03.817Z</time>
      </trkpt>
      <trkpt lat="46.97509" lon="8.7587">
        <ele>613</ele>
        <time>2021-08-04T10:17:04.816Z</time>
      </trkpt>
      <trkpt lat="46.97509" lon="8.75868">
        <ele>613</ele>
        <time>2021-08-04T10:17:05.816Z</time>
      </trkpt>
      <trkpt lat="46.9751" lon="8.75867">
        <ele>613</ele>
        <time>2021-08-04T10:17:06.816Z</time>
      </trkpt>
      <trkpt lat="46.9751" lon="8.75865">
        <ele>613</ele>
        <time>2021-08-04T10:17:07.816Z</time>
      </trkpt>
      <trkpt lat="46.9751" lon="8.75864">
        <ele>613</ele>
        <time>2021-08-04T10:17:08.816Z</time>
      </trkpt>
      <trkpt lat="46.97511" lon="8.75862">
        <ele>614</ele>
        <time>2021-08-04T10:17:09.817Z</time>
      </trkpt>
      <trkpt lat="46.97511" lon="8.75861">
        <ele>614</ele>
        <time>2021-08-04T10:17:10.817Z</time>
      </trkpt>
      <trkpt lat="46.97511" lon="8.75857">
        <ele>614</ele>
        <time>2021-08-04T10:17:11.816Z</time>
      </trkpt>
      <trkpt lat="46.97512" lon="8.75854">
        <ele>614</ele>
        <time>2021-08-04T10:17:12.817Z</time>
      </trkpt>
      <trkpt lat="46.97512" lon="8.75853">
        <ele>614</ele>
        <time>2021-08-04T10:17:13.816Z</time>
      </trkpt>
      <trkpt lat="46.97513" lon="8.75851">
        <ele>614</ele>
        <time>2021-08-04T10:17:14.817Z</time>
      </trkpt>
      <trkpt lat="46.97514" lon="8.75849">
        <ele>614</ele>
        <time>2021-08-04T10:17:15.817Z</time>
      </trkpt>
      <trkpt lat="46.97515" lon="8.75848">
        <ele>614</ele>
        <time>2021-08-04T10:17:16.817Z</time>
      </trkpt>
      <trkpt lat="46.97516" lon="8.75846">
        <ele>614</ele>
        <time>2021-08-04T10:17:17.817Z</time>
      </trkpt>
      <trkpt lat="46.97516" lon="8.75845">
        <ele>614</ele>
        <time>2021-08-04T10:17:18.816Z</time>
      </trkpt>
      <trkpt lat="46.97516" lon="8.75843">
        <ele>614</ele>
        <time>2021-08-04T10:17:19.816Z</time>
      </trkpt>
      <trkpt lat="46.97517" lon="8.75842">
        <ele>613</ele>
        <time>2021-08-04T10:17:20.817Z</time>
      </trkpt>
      <trkpt lat="46.97517" lon="8.7584">
        <ele>613</ele>
        <time>2021-08-04T10:17:21.816Z</time>
      </trkpt>
      <trkpt lat="46.97517" lon="8.75839">
        <ele>613</ele>
        <time>2021-08-04T10:17:22.816Z</time>
      </trkpt>
      <trkpt lat="46.97517" lon="8.75837">
        <ele>613</ele>
        <time>2021-08-04T10:17:23.816Z</time>
      </trkpt>
      <trkpt lat="46.97517" lon="8.75835">
        <ele>613</ele>
        <time>2021-08-04T10:17:24.816Z</time>
      </trkpt>
      <trkpt lat="46.97517" lon="8.75833">
        <ele>613</ele>
        <time>2021-08-04T10:17:25.816Z</time>
      </trkpt>
      <trkpt lat="46.97517" lon="8.75832">
        <ele>614</ele>
        <time>2021-08-04T10:17:26.816Z</time>
      </trkpt>
      <trkpt lat="46.97518" lon="8.7583">
        <ele>614</ele>
        <time>2021-08-04T10:17:27.817Z</time>
      </trkpt>
      <trkpt lat="46.97519" lon="8.75829">
        <ele>615</ele>
        <time>2021-08-04T10:17:28.817Z</time>
      </trkpt>
      <trkpt lat="46.9752" lon="8.75827">
        <ele>615</ele>
        <time>2021-08-04T10:17:29.816Z</time>
      </trkpt>
      <trkpt lat="46.97521" lon="8.75826">
        <ele>615</ele>
        <time>2021-08-04T10:17:30.816Z</time>
      </trkpt>
      <trkpt lat="46.97522" lon="8.75824">
        <ele>615</ele>
        <time>2021-08-04T10:17:31.816Z</time>
      </trkpt>
      <trkpt lat="46.97523" lon="8.75823">
        <ele>616</ele>
        <time>2021-08-04T10:17:32.816Z</time>
      </trkpt>
      <trkpt lat="46.97523" lon="8.75821">
        <ele>615</ele>
        <time>2021-08-04T10:17:33.817Z</time>
      </trkpt>
      <trkpt lat="46.97524" lon="8.75819">
        <ele>615</ele>
        <time>2021-08-04T10:17:34.816Z</time>
      </trkpt>
      <trkpt lat="46.97524" lon="8.75817">
        <ele>615</ele>
        <time>2021-08-04T10:17:35.816Z</time>
      </trkpt>
      <trkpt lat="46.97525" lon="8.75816">
        <ele>614</ele>
        <time>2021-08-04T10:17:36.816Z</time>
      </trkpt>
      <trkpt lat="46.97526" lon="8.75813">
        <ele>614</ele>
        <time>2021-08-04T10:17:37.817Z</time>
      </trkpt>
      <trkpt lat="46.97527" lon="8.75811">
        <ele>614</ele>
        <time>2021-08-04T10:17:38.817Z</time>
      </trkpt>
      <trkpt lat="46.97528" lon="8.7581">
        <ele>614</ele>
        <time>2021-08-04T10:17:39.816Z</time>
      </trkpt>
      <trkpt lat="46.97528" lon="8.75808">
        <ele>615</ele>
        <time>2021-08-04T10:17:40.816Z</time>
      </trkpt>
      <trkpt lat="46.97528" lon="8.75807">
        <ele>615</ele>
        <time>2021-08-04T10:17:41.816Z</time>
      </trkpt>
      <trkpt lat="46.97528" lon="8.75805">
        <ele>615</ele>
        <time>2021-08-04T10:17:42.816Z</time>
      </trkpt>
      <trkpt lat="46.97529" lon="8.75804">
        <ele>616</ele>
        <time>2021-08-04T10:17:43.816Z</time>
      </trkpt>
      <trkpt lat="46.9753" lon="8.75803">
        <ele>616</ele>
        <time>2021-08-04T10:17:44.817Z</time>
      </trkpt>
      <trkpt lat="46.97532" lon="8.75802">
        <ele>616</ele>
        <time>2021-08-04T10:17:45.816Z</time>
      </trkpt>
      <trkpt lat="46.97533" lon="8.758">
        <ele>617</ele>
        <time>2021-08-04T10:17:46.816Z</time>
      </trkpt>
      <trkpt lat="46.97534" lon="8.75798">
        <ele>617</ele>
        <time>2021-08-04T10:17:47.817Z</time>
      </trkpt>
      <trkpt lat="46.97534" lon="8.75796">
        <ele>616</ele>
        <time>2021-08-04T10:17:48.817Z</time>
      </trkpt>
      <trkpt lat="46.97534" lon="8.75794">
        <ele>616</ele>
        <time>2021-08-04T10:17:49.816Z</time>
      </trkpt>
      <trkpt lat="46.97534" lon="8.75792">
        <ele>616</ele>
        <time>2021-08-04T10:17:50.816Z</time>
      </trkpt>
      <trkpt lat="46.97534" lon="8.7579">
        <ele>616</ele>
        <time>2021-08-04T10:17:51.816Z</time>
      </trkpt>
      <trkpt lat="46.97534" lon="8.75788">
        <ele>616</ele>
        <time>2021-08-04T10:17:52.817Z</time>
      </trkpt>
      <trkpt lat="46.97534" lon="8.75786">
        <ele>616</ele>
        <time>2021-08-04T10:17:53.816Z</time>
      </trkpt>
      <trkpt lat="46.97534" lon="8.75784">
        <ele>616</ele>
        <time>2021-08-04T10:17:54.816Z</time>
      </trkpt>
      <trkpt lat="46.97535" lon="8.75782">
        <ele>616</ele>
        <time>2021-08-04T10:17:55.816Z</time>
      </trkpt>
      <trkpt lat="46.97535" lon="8.7578">
        <ele>615</ele>
        <time>2021-08-04T10:17:56.816Z</time>
      </trkpt>
      <trkpt lat="46.97535" lon="8.75778">
        <ele>615</ele>
        <time>2021-08-04T10:17:57.817Z</time>
      </trkpt>
      <trkpt lat="46.97535" lon="8.75777">
        <ele>616</ele>
        <time>2021-08-04T10:17:58.817Z</time>
      </trkpt>
      <trkpt lat="46.97535" lon="8.75775">
        <ele>616</ele>
        <time>2021-08-04T10:17:59.816Z</time>
      </trkpt>
      <trkpt lat="46.97536" lon="8.75774">
        <ele>616</ele>
        <time>2021-08-04T10:18:00.816Z</time>
      </trkpt>
      <trkpt lat="46.97536" lon="8.75772">
        <ele>615</ele>
        <time>2021-08-04T10:18:01.816Z</time>
      </trkpt>
      <trkpt lat="46.97536" lon="8.75771">
        <ele>615</ele>
        <time>2021-08-04T10:18:02.817Z</time>
      </trkpt>
      <trkpt lat="46.97536" lon="8.75769">
        <ele>614</ele>
        <time>2021-08-04T10:18:03.816Z</time>
      </trkpt>
      <trkpt lat="46.97536" lon="8.75767">
        <ele>614</ele>
        <time>2021-08-04T10:18:04.816Z</time>
      </trkpt>
      <trkpt lat="46.97536" lon="8.75764">
        <ele>614</ele>
        <time>2021-08-04T10:18:05.816Z</time>
      </trkpt>
      <trkpt lat="46.97536" lon="8.75762">
        <ele>614</ele>
        <time>2021-08-04T10:18:06.816Z</time>
      </trkpt>
      <trkpt lat="46.97536" lon="8.75761">
        <ele>614</ele>
        <time>2021-08-04T10:18:07.816Z</time>
      </trkpt>
      <trkpt lat="46.97536" lon="8.75758">
        <ele>614</ele>
        <time>2021-08-04T10:18:08.816Z</time>
      </trkpt>
      <trkpt lat="46.97537" lon="8.75757">
        <ele>614</ele>
        <time>2021-08-04T10:18:09.816Z</time>
      </trkpt>
      <trkpt lat="46.97536" lon="8.75756">
        <ele>615</ele>
        <time>2021-08-04T10:18:10.816Z</time>
      </trkpt>
      <trkpt lat="46.97537" lon="8.75754">
        <ele>615</ele>
        <time>2021-08-04T10:18:11.816Z</time>
      </trkpt>
      <trkpt lat="46.97538" lon="8.75753">
        <ele>615</ele>
        <time>2021-08-04T10:18:12.817Z</time>
      </trkpt>
      <trkpt lat="46.97539" lon="8.75751">
        <ele>616</ele>
        <time>2021-08-04T10:18:13.816Z</time>
      </trkpt>
      <trkpt lat="46.97539" lon="8.7575">
        <ele>617</ele>
        <time>2021-08-04T10:18:14.816Z</time>
      </trkpt>
      <trkpt lat="46.9754" lon="8.75748">
        <ele>617</ele>
        <time>2021-08-04T10:18:15.816Z</time>
      </trkpt>
      <trkpt lat="46.97541" lon="8.75746">
        <ele>617</ele>
        <time>2021-08-04T10:18:16.816Z</time>
      </trkpt>
      <trkpt lat="46.97542" lon="8.75744">
        <ele>617</ele>
        <time>2021-08-04T10:18:17.816Z</time>
      </trkpt>
      <trkpt lat="46.97544" lon="8.75742">
        <ele>617</ele>
        <time>2021-08-04T10:18:18.816Z</time>
      </trkpt>
      <trkpt lat="46.97544" lon="8.75739">
        <ele>617</ele>
        <time>2021-08-04T10:18:19.816Z</time>
      </trkpt>
      <trkpt lat="46.97543" lon="8.75737">
        <ele>617</ele>
        <time>2021-08-04T10:18:20.816Z</time>
      </trkpt>
      <trkpt lat="46.97543" lon="8.75734">
        <ele>617</ele>
        <time>2021-08-04T10:18:21.816Z</time>
      </trkpt>
      <trkpt lat="46.97542" lon="8.75732">
        <ele>617</ele>
        <time>2021-08-04T10:18:22.816Z</time>
      </trkpt>
      <trkpt lat="46.97542" lon="8.7573">
        <ele>617</ele>
        <time>2021-08-04T10:18:23.817Z</time>
      </trkpt>
      <trkpt lat="46.97542" lon="8.75728">
        <ele>617</ele>
        <time>2021-08-04T10:18:24.817Z</time>
      </trkpt>
      <trkpt lat="46.97542" lon="8.75726">
        <ele>618</ele>
        <time>2021-08-04T10:18:25.817Z</time>
      </trkpt>
      <trkpt lat="46.97543" lon="8.75725">
        <ele>618</ele>
        <time>2021-08-04T10:18:26.817Z</time>
      </trkpt>
      <trkpt lat="46.97543" lon="8.75723">
        <ele>618</ele>
        <time>2021-08-04T10:18:27.817Z</time>
      </trkpt>
      <trkpt lat="46.97544" lon="8.75722">
        <ele>618</ele>
        <time>2021-08-04T10:18:28.817Z</time>
      </trkpt>
      <trkpt lat="46.97545" lon="8.75721">
        <ele>618</ele>
        <time>2021-08-04T10:18:29.817Z</time>
      </trkpt>
      <trkpt lat="46.97546" lon="8.7572">
        <ele>617</ele>
        <time>2021-08-04T10:18:30.816Z</time>
      </trkpt>
      <trkpt lat="46.97546" lon="8.75718">
        <ele>617</ele>
        <time>2021-08-04T10:18:31.816Z</time>
      </trkpt>
      <trkpt lat="46.97547" lon="8.75716">
        <ele>617</ele>
        <time>2021-08-04T10:18:32.816Z</time>
      </trkpt>
      <trkpt lat="46.97547" lon="8.75715">
        <ele>617</ele>
        <time>2021-08-04T10:18:33.817Z</time>
      </trkpt>
      <trkpt lat="46.97547" lon="8.75714">
        <ele>617</ele>
        <time>2021-08-04T10:18:34.817Z</time>
      </trkpt>
      <trkpt lat="46.97547" lon="8.75713">
        <ele>617</ele>
        <time>2021-08-04T10:18:35.816Z</time>
      </trkpt>
      <trkpt lat="46.97548" lon="8.75712">
        <ele>618</ele>
        <time>2021-08-04T10:18:36.817Z</time>
      </trkpt>
      <trkpt lat="46.97548" lon="8.75711">
        <ele>618</ele>
        <time>2021-08-04T10:18:37.816Z</time>
      </trkpt>
      <trkpt lat="46.97549" lon="8.75709">
        <ele>618</ele>
        <time>2021-08-04T10:18:38.816Z</time>
      </trkpt>
      <trkpt lat="46.9755" lon="8.75708">
        <ele>618</ele>
        <time>2021-08-04T10:18:39.817Z</time>
      </trkpt>
      <trkpt lat="46.97551" lon="8.75707">
        <ele>619</ele>
        <time>2021-08-04T10:18:40.817Z</time>
      </trkpt>
      <trkpt lat="46.97551" lon="8.75705">
        <ele>619</ele>
        <time>2021-08-04T10:18:41.817Z</time>
      </trkpt>
      <trkpt lat="46.97552" lon="8.75704">
        <ele>619</ele>
        <time>2021-08-04T10:18:42.817Z</time>
      </trkpt>
      <trkpt lat="46.97552" lon="8.75703">
        <ele>620</ele>
        <time>2021-08-04T10:18:43.817Z</time>
      </trkpt>
      <trkpt lat="46.97553" lon="8.757">
        <ele>620</ele>
        <time>2021-08-04T10:18:44.816Z</time>
      </trkpt>
      <trkpt lat="46.97554" lon="8.75698">
        <ele>620</ele>
        <time>2021-08-04T10:18:45.817Z</time>
      </trkpt>
      <trkpt lat="46.97553" lon="8.75696">
        <ele>620</ele>
        <time>2021-08-04T10:18:46.817Z</time>
      </trkpt>
      <trkpt lat="46.97553" lon="8.75693">
        <ele>620</ele>
        <time>2021-08-04T10:18:47.817Z</time>
      </trkpt>
      <trkpt lat="46.97553" lon="8.75691">
        <ele>620</ele>
        <time>2021-08-04T10:18:48.816Z</time>
      </trkpt>
      <trkpt lat="46.97554" lon="8.75688">
        <ele>620</ele>
        <time>2021-08-04T10:18:49.817Z</time>
      </trkpt>
      <trkpt lat="46.97554" lon="8.75685">
        <ele>620</ele>
        <time>2021-08-04T10:18:50.817Z</time>
      </trkpt>
      <trkpt lat="46.97554" lon="8.75682">
        <ele>620</ele>
        <time>2021-08-04T10:18:51.816Z</time>
      </trkpt>
      <trkpt lat="46.97554" lon="8.7568">
        <ele>620</ele>
        <time>2021-08-04T10:18:52.816Z</time>
      </trkpt>
      <trkpt lat="46.97554" lon="8.75678">
        <ele>620</ele>
        <time>2021-08-04T10:18:53.817Z</time>
      </trkpt>
      <trkpt lat="46.97554" lon="8.75676">
        <ele>620</ele>
        <time>2021-08-04T10:18:54.816Z</time>
      </trkpt>
      <trkpt lat="46.97554" lon="8.75673">
        <ele>620</ele>
        <time>2021-08-04T10:18:55.816Z</time>
      </trkpt>
      <trkpt lat="46.97555" lon="8.75672">
        <ele>620</ele>
        <time>2021-08-04T10:18:56.816Z</time>
      </trkpt>
      <trkpt lat="46.97556" lon="8.75671">
        <ele>619</ele>
        <time>2021-08-04T10:18:57.817Z</time>
      </trkpt>
      <trkpt lat="46.97556" lon="8.7567">
        <ele>619</ele>
        <time>2021-08-04T10:18:58.816Z</time>
      </trkpt>
      <trkpt lat="46.97556" lon="8.7567">
        <ele>619</ele>
        <time>2021-08-04T10:18:59.816Z</time>
      </trkpt>
      <trkpt lat="46.97557" lon="8.7567">
        <ele>619</ele>
        <time>2021-08-04T10:19:00.816Z</time>
      </trkpt>
      <trkpt lat="46.97557" lon="8.75669">
        <ele>620</ele>
        <time>2021-08-04T10:19:01.817Z</time>
      </trkpt>
      <trkpt lat="46.97558" lon="8.75669">
        <ele>620</ele>
        <time>2021-08-04T10:19:02.816Z</time>
      </trkpt>
      <trkpt lat="46.97557" lon="8.75669">
        <ele>621</ele>
        <time>2021-08-04T10:19:03.816Z</time>
      </trkpt>
      <trkpt lat="46.97557" lon="8.75669">
        <ele>621</ele>
        <time>2021-08-04T10:19:04.816Z</time>
      </trkpt>
      <trkpt lat="46.97556" lon="8.75669">
        <ele>622</ele>
        <time>2021-08-04T10:19:05.816Z</time>
      </trkpt>
      <trkpt lat="46.97555" lon="8.75669">
        <ele>623</ele>
        <time>2021-08-04T10:19:06.816Z</time>
      </trkpt>
      <trkpt lat="46.97554" lon="8.7567">
        <ele>627</ele>
        <time>2021-08-04T10:19:07.816Z</time>
      </trkpt>
      <trkpt lat="46.97553" lon="8.75671">
        <ele>628</ele>
        <time>2021-08-04T10:19:08.816Z</time>
      </trkpt>
      <trkpt lat="46.97553" lon="8.7567">
        <ele>629</ele>
        <time>2021-08-04T10:19:09.816Z</time>
      </trkpt>
      <trkpt lat="46.97552" lon="8.7567">
        <ele>630</ele>
        <time>2021-08-04T10:19:10.816Z</time>
      </trkpt>
      <trkpt lat="46.97552" lon="8.7567">
        <ele>630</ele>
        <time>2021-08-04T10:19:11.817Z</time>
      </trkpt>
      <trkpt lat="46.97551" lon="8.75669">
        <ele>631</ele>
        <time>2021-08-04T10:19:12.816Z</time>
      </trkpt>
      <trkpt lat="46.97551" lon="8.75669">
        <ele>632</ele>
        <time>2021-08-04T10:19:13.816Z</time>
      </trkpt>
      <trkpt lat="46.97552" lon="8.75669">
        <ele>633</ele>
        <time>2021-08-04T10:19:14.816Z</time>
      </trkpt>
      <trkpt lat="46.97552" lon="8.7567">
        <ele>634</ele>
        <time>2021-08-04T10:19:15.816Z</time>
      </trkpt>
      <trkpt lat="46.97552" lon="8.7567">
        <ele>634</ele>
        <time>2021-08-04T10:19:16.817Z</time>
      </trkpt>
      <trkpt lat="46.97553" lon="8.7567">
        <ele>635</ele>
        <time>2021-08-04T10:19:17.816Z</time>
      </trkpt>
      <trkpt lat="46.97553" lon="8.7567">
        <ele>635</ele>
        <time>2021-08-04T10:19:18.817Z</time>
      </trkpt>
      <trkpt lat="46.97554" lon="8.7567">
        <ele>636</ele>
        <time>2021-08-04T10:19:19.817Z</time>
      </trkpt>
      <trkpt lat="46.97554" lon="8.7567">
        <ele>636</ele>
        <time>2021-08-04T10:19:20.817Z</time>
      </trkpt>
      <trkpt lat="46.97555" lon="8.7567">
        <ele>636</ele>
        <time>2021-08-04T10:19:21.816Z</time>
      </trkpt>
      <trkpt lat="46.97556" lon="8.75669">
        <ele>636</ele>
        <time>2021-08-04T10:19:22.817Z</time>
      </trkpt>
      <trkpt lat="46.97556" lon="8.7567">
        <ele>636</ele>
        <time>2021-08-04T10:19:23.816Z</time>
      </trkpt>
      <trkpt lat="46.97557" lon="8.75669">
        <ele>636</ele>
        <time>2021-08-04T10:19:24.816Z</time>
      </trkpt>
      <trkpt lat="46.97564" lon="8.75704">
        <ele>636</ele>
        <time>2021-08-04T10:24:57.286Z</time>
      </trkpt>
      <trkpt lat="46.97554" lon="8.75703">
        <ele>636</ele>
        <time>2021-08-04T10:24:58.285Z</time>
      </trkpt>
      <trkpt lat="46.97555" lon="8.75686">
        <ele>635</ele>
        <time>2021-08-04T10:24:59.286Z</time>
      </trkpt>
      <trkpt lat="46.97556" lon="8.75679">
        <ele>635</ele>
        <time>2021-08-04T10:25:02.413Z</time>
      </trkpt>
      <trkpt lat="46.97556" lon="8.75672">
        <ele>635</ele>
        <time>2021-08-04T10:25:03.414Z</time>
      </trkpt>
      <trkpt lat="46.97556" lon="8.75677">
        <ele>634</ele>
        <time>2021-08-04T10:25:04.413Z</time>
      </trkpt>
      <trkpt lat="46.97553" lon="8.7568">
        <ele>634</ele>
        <time>2021-08-04T10:25:05.414Z</time>
      </trkpt>
      <trkpt lat="46.97552" lon="8.75681">
        <ele>634</ele>
        <time>2021-08-04T10:25:06.414Z</time>
      </trkpt>
      <trkpt lat="46.97551" lon="8.75683">
        <ele>635</ele>
        <time>2021-08-04T10:25:07.413Z</time>
      </trkpt>
      <trkpt lat="46.9755" lon="8.75684">
        <ele>635</ele>
        <time>2021-08-04T10:25:08.414Z</time>
      </trkpt>
      <trkpt lat="46.9755" lon="8.75686">
        <ele>635</ele>
        <time>2021-08-04T10:25:09.414Z</time>
      </trkpt>
      <trkpt lat="46.9755" lon="8.75688">
        <ele>636</ele>
        <time>2021-08-04T10:25:10.414Z</time>
      </trkpt>
      <trkpt lat="46.9755" lon="8.7569">
        <ele>637</ele>
        <time>2021-08-04T10:25:11.413Z</time>
      </trkpt>
      <trkpt lat="46.9755" lon="8.75689">
        <ele>638</ele>
        <time>2021-08-04T10:25:12.414Z</time>
      </trkpt>
      <trkpt lat="46.9755" lon="8.75688">
        <ele>639</ele>
        <time>2021-08-04T10:25:13.414Z</time>
      </trkpt>
      <trkpt lat="46.97551" lon="8.75687">
        <ele>639</ele>
        <time>2021-08-04T10:25:14.413Z</time>
      </trkpt>
      <trkpt lat="46.97447" lon="8.75734">
        <ele>621</ele>
        <time>2021-08-04T10:26:06.415Z</time>
      </trkpt>
      <trkpt lat="46.97447" lon="8.75733">
        <ele>621</ele>
        <time>2021-08-04T10:26:07.414Z</time>
      </trkpt>
      <trkpt lat="46.97447" lon="8.75733">
        <ele>621</ele>
        <time>2021-08-04T10:26:08.415Z</time>
      </trkpt>
      <trkpt lat="46.97447" lon="8.75734">
        <ele>620</ele>
        <time>2021-08-04T10:26:09.414Z</time>
      </trkpt>
      <trkpt lat="46.97447" lon="8.75734">
        <ele>620</ele>
        <time>2021-08-04T10:26:10.414Z</time>
      </trkpt>
      <trkpt lat="46.97447" lon="8.75735">
        <ele>620</ele>
        <time>2021-08-04T10:26:11.415Z</time>
      </trkpt>
      <trkpt lat="46.97447" lon="8.75735">
        <ele>619</ele>
        <time>2021-08-04T10:26:12.415Z</time>
      </trkpt>
      <trkpt lat="46.97447" lon="8.75735">
        <ele>619</ele>
        <time>2021-08-04T10:26:13.415Z</time>
      </trkpt>
      <trkpt lat="46.97446" lon="8.75735">
        <ele>619</ele>
        <time>2021-08-04T10:26:14.415Z</time>
      </trkpt>
    </trkseg>
  </trk>
  <trk>
    <name><![CDATA[glaris-engelberg(f)_2]]></name>
    <extensions>
      <line xmlns="http://www.topografix.com/GPX/gpx_style/0/2">
        <color>ff2600</color>
        <width>4</width>
      </line>
    </extensions>
    <trkseg>
      <trkpt lat="47.01965" lon="8.6568">
        <ele>530</ele>
        <time>2021-08-05T08:24:31.368Z</time>
      </trkpt>
      <trkpt lat="47.01965" lon="8.6568">
        <ele>530</ele>
        <time>2021-08-05T08:24:31.368Z</time>
      </trkpt>
      <trkpt lat="47.01965" lon="8.6568">
        <ele>530</ele>
        <time>2021-08-05T08:24:31.368Z</time>
      </trkpt>
      <trkpt lat="47.01964" lon="8.65679">
        <ele>529</ele>
        <time>2021-08-05T08:24:32.369Z</time>
      </trkpt>
      <trkpt lat="47.01963" lon="8.65677">
        <ele>529</ele>
        <time>2021-08-05T08:24:33.369Z</time>
      </trkpt>
      <trkpt lat="47.01962" lon="8.65676">
        <ele>528</ele>
        <time>2021-08-05T08:24:34.369Z</time>
      </trkpt>
      <trkpt lat="47.01961" lon="8.65674">
        <ele>528</ele>
        <time>2021-08-05T08:24:35.369Z</time>
      </trkpt>
      <trkpt lat="47.0196" lon="8.65672">
        <ele>527</ele>
        <time>2021-08-05T08:24:36.369Z</time>
      </trkpt>
      <trkpt lat="47.0196" lon="8.65671">
        <ele>526</ele>
        <time>2021-08-05T08:24:37.369Z</time>
      </trkpt>
      <trkpt lat="47.0196" lon="8.65669">
        <ele>526</ele>
        <time>2021-08-05T08:24:38.368Z</time>
      </trkpt>
      <trkpt lat="47.01959" lon="8.65667">
        <ele>525</ele>
        <time>2021-08-05T08:24:39.369Z</time>
      </trkpt>
      <trkpt lat="47.01959" lon="8.65666">
        <ele>524</ele>
        <time>2021-08-05T08:24:40.369Z</time>
      </trkpt>
      <trkpt lat="47.01959" lon="8.65665">
        <ele>524</ele>
        <time>2021-08-05T08:24:41.368Z</time>
      </trkpt>
      <trkpt lat="47.0196" lon="8.65665">
        <ele>523</ele>
        <time>2021-08-05T08:24:42.368Z</time>
      </trkpt>
      <trkpt lat="47.0196" lon="8.65664">
        <ele>523</ele>
        <time>2021-08-05T08:24:43.368Z</time>
      </trkpt>
      <trkpt lat="47.0196" lon="8.65663">
        <ele>523</ele>
        <time>2021-08-05T08:24:44.368Z</time>
      </trkpt>
      <trkpt lat="47.01959" lon="8.65662">
        <ele>522</ele>
        <time>2021-08-05T08:24:45.369Z</time>
      </trkpt>
      <trkpt lat="47.01959" lon="8.65661">
        <ele>522</ele>
        <time>2021-08-05T08:24:46.369Z</time>
      </trkpt>
      <trkpt lat="47.01959" lon="8.6566">
        <ele>522</ele>
        <time>2021-08-05T08:24:47.369Z</time>
      </trkpt>
      <trkpt lat="47.01958" lon="8.65658">
        <ele>522</ele>
        <time>2021-08-05T08:24:48.369Z</time>
      </trkpt>
      <trkpt lat="47.01957" lon="8.65657">
        <ele>521</ele>
        <time>2021-08-05T08:24:49.369Z</time>
      </trkpt>
      <trkpt lat="47.01957" lon="8.65656">
        <ele>521</ele>
        <time>2021-08-05T08:24:50.369Z</time>
      </trkpt>
      <trkpt lat="47.01956" lon="8.65655">
        <ele>521</ele>
        <time>2021-08-05T08:24:51.368Z</time>
      </trkpt>
      <trkpt lat="47.01956" lon="8.65655">
        <ele>521</ele>
        <time>2021-08-05T08:24:52.369Z</time>
      </trkpt>
      <trkpt lat="47.01955" lon="8.65654">
        <ele>521</ele>
        <time>2021-08-05T08:24:53.369Z</time>
      </trkpt>
      <trkpt lat="47.01954" lon="8.65654">
        <ele>521</ele>
        <time>2021-08-05T08:24:54.369Z</time>
      </trkpt>
      <trkpt lat="47.01954" lon="8.65653">
        <ele>521</ele>
        <time>2021-08-05T08:24:55.368Z</time>
      </trkpt>
      <trkpt lat="47.01953" lon="8.65651">
        <ele>520</ele>
        <time>2021-08-05T08:24:56.368Z</time>
      </trkpt>
      <trkpt lat="47.01952" lon="8.65649">
        <ele>520</ele>
        <time>2021-08-05T08:24:57.368Z</time>
      </trkpt>
      <trkpt lat="47.01951" lon="8.65648">
        <ele>520</ele>
        <time>2021-08-05T08:24:58.368Z</time>
      </trkpt>
      <trkpt lat="47.01951" lon="8.65647">
        <ele>520</ele>
        <time>2021-08-05T08:24:59.368Z</time>
      </trkpt>
      <trkpt lat="47.01951" lon="8.65646">
        <ele>520</ele>
        <time>2021-08-05T08:25:00.368Z</time>
      </trkpt>
      <trkpt lat="47.0195" lon="8.65644">
        <ele>520</ele>
        <time>2021-08-05T08:25:01.368Z</time>
      </trkpt>
      <trkpt lat="47.01949" lon="8.65642">
        <ele>520</ele>
        <time>2021-08-05T08:25:02.368Z</time>
      </trkpt>
      <trkpt lat="47.01949" lon="8.65639">
        <ele>520</ele>
        <time>2021-08-05T08:25:03.368Z</time>
      </trkpt>
      <trkpt lat="47.01949" lon="8.65638">
        <ele>520</ele>
        <time>2021-08-05T08:25:04.368Z</time>
      </trkpt>
      <trkpt lat="47.01948" lon="8.65636">
        <ele>520</ele>
        <time>2021-08-05T08:25:05.368Z</time>
      </trkpt>
      <trkpt lat="47.01947" lon="8.65634">
        <ele>520</ele>
        <time>2021-08-05T08:25:06.368Z</time>
      </trkpt>
      <trkpt lat="47.01946" lon="8.65632">
        <ele>520</ele>
        <time>2021-08-05T08:25:07.369Z</time>
      </trkpt>
      <trkpt lat="47.01946" lon="8.6563">
        <ele>520</ele>
        <time>2021-08-05T08:25:08.368Z</time>
      </trkpt>
      <trkpt lat="47.01946" lon="8.65629">
        <ele>520</ele>
        <time>2021-08-05T08:25:09.369Z</time>
      </trkpt>
      <trkpt lat="47.01946" lon="8.65627">
        <ele>520</ele>
        <time>2021-08-05T08:25:10.368Z</time>
      </trkpt>
      <trkpt lat="47.01945" lon="8.65625">
        <ele>520</ele>
        <time>2021-08-05T08:25:11.369Z</time>
      </trkpt>
      <trkpt lat="47.01945" lon="8.65624">
        <ele>521</ele>
        <time>2021-08-05T08:25:12.369Z</time>
      </trkpt>
      <trkpt lat="47.01945" lon="8.65622">
        <ele>521</ele>
        <time>2021-08-05T08:25:13.369Z</time>
      </trkpt>
      <trkpt lat="47.01944" lon="8.6562">
        <ele>521</ele>
        <time>2021-08-05T08:25:14.369Z</time>
      </trkpt>
      <trkpt lat="47.01943" lon="8.65618">
        <ele>521</ele>
        <time>2021-08-05T08:25:15.369Z</time>
      </trkpt>
      <trkpt lat="47.01943" lon="8.65616">
        <ele>521</ele>
        <time>2021-08-05T08:25:16.369Z</time>
      </trkpt>
      <trkpt lat="47.01943" lon="8.65615">
        <ele>521</ele>
        <time>2021-08-05T08:25:17.369Z</time>
      </trkpt>
      <trkpt lat="47.01942" lon="8.65613">
        <ele>522</ele>
        <time>2021-08-05T08:25:18.369Z</time>
      </trkpt>
      <trkpt lat="47.01942" lon="8.6561">
        <ele>522</ele>
        <time>2021-08-05T08:25:19.368Z</time>
      </trkpt>
      <trkpt lat="47.01941" lon="8.65608">
        <ele>522</ele>
        <time>2021-08-05T08:25:20.369Z</time>
      </trkpt>
      <trkpt lat="47.01941" lon="8.65606">
        <ele>522</ele>
        <time>2021-08-05T08:25:21.368Z</time>
      </trkpt>
      <trkpt lat="47.01941" lon="8.65605">
        <ele>522</ele>
        <time>2021-08-05T08:25:22.368Z</time>
      </trkpt>
      <trkpt lat="47.0194" lon="8.65602">
        <ele>523</ele>
        <time>2021-08-05T08:25:23.369Z</time>
      </trkpt>
      <trkpt lat="47.01939" lon="8.656">
        <ele>523</ele>
        <time>2021-08-05T08:25:24.368Z</time>
      </trkpt>
      <trkpt lat="47.01938" lon="8.65598">
        <ele>523</ele>
        <time>2021-08-05T08:25:25.368Z</time>
      </trkpt>
      <trkpt lat="47.01937" lon="8.65596">
        <ele>523</ele>
        <time>2021-08-05T08:25:26.368Z</time>
      </trkpt>
      <trkpt lat="47.01935" lon="8.65593">
        <ele>524</ele>
        <time>2021-08-05T08:25:27.368Z</time>
      </trkpt>
      <trkpt lat="47.01932" lon="8.65589">
        <ele>524</ele>
        <time>2021-08-05T08:25:28.369Z</time>
      </trkpt>
      <trkpt lat="47.01931" lon="8.65585">
        <ele>524</ele>
        <time>2021-08-05T08:25:29.369Z</time>
      </trkpt>
      <trkpt lat="47.0193" lon="8.65583">
        <ele>525</ele>
        <time>2021-08-05T08:25:30.369Z</time>
      </trkpt>
      <trkpt lat="47.0193" lon="8.65582">
        <ele>525</ele>
        <time>2021-08-05T08:25:31.369Z</time>
      </trkpt>
      <trkpt lat="47.01929" lon="8.65582">
        <ele>525</ele>
        <time>2021-08-05T08:25:32.369Z</time>
      </trkpt>
      <trkpt lat="47.01929" lon="8.65581">
        <ele>526</ele>
        <time>2021-08-05T08:25:33.369Z</time>
      </trkpt>
      <trkpt lat="47.01928" lon="8.6558">
        <ele>526</ele>
        <time>2021-08-05T08:25:34.368Z</time>
      </trkpt>
      <trkpt lat="47.01927" lon="8.65579">
        <ele>526</ele>
        <time>2021-08-05T08:25:35.369Z</time>
      </trkpt>
      <trkpt lat="47.01926" lon="8.65578">
        <ele>526</ele>
        <time>2021-08-05T08:25:36.368Z</time>
      </trkpt>
      <trkpt lat="47.01925" lon="8.65577">
        <ele>526</ele>
        <time>2021-08-05T08:25:37.369Z</time>
      </trkpt>
      <trkpt lat="47.01924" lon="8.65576">
        <ele>526</ele>
        <time>2021-08-05T08:25:38.369Z</time>
      </trkpt>
      <trkpt lat="47.01923" lon="8.65575">
        <ele>526</ele>
        <time>2021-08-05T08:25:39.369Z</time>
      </trkpt>
      <trkpt lat="47.01922" lon="8.65574">
        <ele>526</ele>
        <time>2021-08-05T08:25:40.368Z</time>
      </trkpt>
      <trkpt lat="47.01921" lon="8.65573">
        <ele>526</ele>
        <time>2021-08-05T08:25:41.369Z</time>
      </trkpt>
      <trkpt lat="47.0192" lon="8.65572">
        <ele>526</ele>
        <time>2021-08-05T08:25:42.369Z</time>
      </trkpt>
      <trkpt lat="47.01919" lon="8.65571">
        <ele>526</ele>
        <time>2021-08-05T08:25:43.369Z</time>
      </trkpt>
      <trkpt lat="47.01918" lon="8.6557">
        <ele>526</ele>
        <time>2021-08-05T08:25:44.369Z</time>
      </trkpt>
      <trkpt lat="47.01917" lon="8.6557">
        <ele>526</ele>
        <time>2021-08-05T08:25:45.368Z</time>
      </trkpt>
      <trkpt lat="47.01916" lon="8.65569">
        <ele>526</ele>
        <time>2021-08-05T08:25:46.369Z</time>
      </trkpt>
      <trkpt lat="47.01915" lon="8.65569">
        <ele>526</ele>
        <time>2021-08-05T08:25:47.368Z</time>
      </trkpt>
      <trkpt lat="47.01913" lon="8.65568">
        <ele>526</ele>
        <time>2021-08-05T08:25:48.369Z</time>
      </trkpt>
      <trkpt lat="47.01911" lon="8.65566">
        <ele>526</ele>
        <time>2021-08-05T08:25:49.369Z</time>
      </trkpt>
      <trkpt lat="47.0191" lon="8.65566">
        <ele>526</ele>
        <time>2021-08-05T08:25:50.369Z</time>
      </trkpt>
      <trkpt lat="47.01909" lon="8.65564">
        <ele>526</ele>
        <time>2021-08-05T08:25:51.369Z</time>
      </trkpt>
      <trkpt lat="47.01908" lon="8.65563">
        <ele>525</ele>
        <time>2021-08-05T08:25:52.369Z</time>
      </trkpt>
      <trkpt lat="47.01907" lon="8.65562">
        <ele>525</ele>
        <time>2021-08-05T08:25:53.368Z</time>
      </trkpt>
      <trkpt lat="47.01906" lon="8.65561">
        <ele>525</ele>
        <time>2021-08-05T08:25:54.368Z</time>
      </trkpt>
      <trkpt lat="47.01905" lon="8.65561">
        <ele>524</ele>
        <time>2021-08-05T08:25:55.369Z</time>
      </trkpt>
      <trkpt lat="47.01904" lon="8.65561">
        <ele>523</ele>
        <time>2021-08-05T08:25:56.369Z</time>
      </trkpt>
      <trkpt lat="47.01903" lon="8.6556">
        <ele>523</ele>
        <time>2021-08-05T08:25:57.369Z</time>
      </trkpt>
      <trkpt lat="47.01901" lon="8.65559">
        <ele>522</ele>
        <time>2021-08-05T08:25:58.369Z</time>
      </trkpt>
      <trkpt lat="47.019" lon="8.65558">
        <ele>521</ele>
        <time>2021-08-05T08:25:59.368Z</time>
      </trkpt>
      <trkpt lat="47.01899" lon="8.65558">
        <ele>520</ele>
        <time>2021-08-05T08:26:00.369Z</time>
      </trkpt>
      <trkpt lat="47.01898" lon="8.65558">
        <ele>520</ele>
        <time>2021-08-05T08:26:01.369Z</time>
      </trkpt>
      <trkpt lat="47.01897" lon="8.65557">
        <ele>519</ele>
        <time>2021-08-05T08:26:02.369Z</time>
      </trkpt>
      <trkpt lat="47.01896" lon="8.65557">
        <ele>518</ele>
        <time>2021-08-05T08:26:03.368Z</time>
      </trkpt>
      <trkpt lat="47.01895" lon="8.65557">
        <ele>518</ele>
        <time>2021-08-05T08:26:04.369Z</time>
      </trkpt>
      <trkpt lat="47.01894" lon="8.65556">
        <ele>517</ele>
        <time>2021-08-05T08:26:05.369Z</time>
      </trkpt>
      <trkpt lat="47.01893" lon="8.65555">
        <ele>517</ele>
        <time>2021-08-05T08:26:06.369Z</time>
      </trkpt>
      <trkpt lat="47.01892" lon="8.65555">
        <ele>516</ele>
        <time>2021-08-05T08:26:07.369Z</time>
      </trkpt>
      <trkpt lat="47.01891" lon="8.65554">
        <ele>516</ele>
        <time>2021-08-05T08:26:08.368Z</time>
      </trkpt>
      <trkpt lat="47.01891" lon="8.65553">
        <ele>516</ele>
        <time>2021-08-05T08:26:09.368Z</time>
      </trkpt>
      <trkpt lat="47.01889" lon="8.65553">
        <ele>515</ele>
        <time>2021-08-05T08:26:10.368Z</time>
      </trkpt>
      <trkpt lat="47.01888" lon="8.65552">
        <ele>515</ele>
        <time>2021-08-05T08:26:11.368Z</time>
      </trkpt>
      <trkpt lat="47.01887" lon="8.65552">
        <ele>515</ele>
        <time>2021-08-05T08:26:12.368Z</time>
      </trkpt>
      <trkpt lat="47.01886" lon="8.65551">
        <ele>515</ele>
        <time>2021-08-05T08:26:13.369Z</time>
      </trkpt>
      <trkpt lat="47.01885" lon="8.65551">
        <ele>514</ele>
        <time>2021-08-05T08:26:14.368Z</time>
      </trkpt>
      <trkpt lat="47.01884" lon="8.6555">
        <ele>514</ele>
        <time>2021-08-05T08:26:15.369Z</time>
      </trkpt>
      <trkpt lat="47.01884" lon="8.6555">
        <ele>514</ele>
        <time>2021-08-05T08:26:16.368Z</time>
      </trkpt>
      <trkpt lat="47.01883" lon="8.65549">
        <ele>514</ele>
        <time>2021-08-05T08:26:17.368Z</time>
      </trkpt>
      <trkpt lat="47.01882" lon="8.65547">
        <ele>513</ele>
        <time>2021-08-05T08:26:18.369Z</time>
      </trkpt>
      <trkpt lat="47.01881" lon="8.65546">
        <ele>513</ele>
        <time>2021-08-05T08:26:19.368Z</time>
      </trkpt>
      <trkpt lat="47.0188" lon="8.65545">
        <ele>513</ele>
        <time>2021-08-05T08:26:20.368Z</time>
      </trkpt>
      <trkpt lat="47.0188" lon="8.65545">
        <ele>512</ele>
        <time>2021-08-05T08:26:21.368Z</time>
      </trkpt>
      <trkpt lat="47.01876" lon="8.65542">
        <ele>510</ele>
        <time>2021-08-05T08:26:22.369Z</time>
      </trkpt>
      <trkpt lat="47.01875" lon="8.65541">
        <ele>510</ele>
        <time>2021-08-05T08:26:23.369Z</time>
      </trkpt>
      <trkpt lat="47.01875" lon="8.65541">
        <ele>509</ele>
        <time>2021-08-05T08:26:24.368Z</time>
      </trkpt>
      <trkpt lat="47.01874" lon="8.65541">
        <ele>509</ele>
        <time>2021-08-05T08:26:25.369Z</time>
      </trkpt>
      <trkpt lat="47.01874" lon="8.6554">
        <ele>508</ele>
        <time>2021-08-05T08:26:26.369Z</time>
      </trkpt>
      <trkpt lat="47.01874" lon="8.6554">
        <ele>507</ele>
        <time>2021-08-05T08:26:27.369Z</time>
      </trkpt>
      <trkpt lat="47.01873" lon="8.6554">
        <ele>506</ele>
        <time>2021-08-05T08:26:28.368Z</time>
      </trkpt>
      <trkpt lat="47.01872" lon="8.6554">
        <ele>505</ele>
        <time>2021-08-05T08:26:29.369Z</time>
      </trkpt>
      <trkpt lat="47.01871" lon="8.6554">
        <ele>504</ele>
        <time>2021-08-05T08:26:30.369Z</time>
      </trkpt>
      <trkpt lat="47.01871" lon="8.6554">
        <ele>503</ele>
        <time>2021-08-05T08:26:31.369Z</time>
      </trkpt>
      <trkpt lat="47.0187" lon="8.6554">
        <ele>503</ele>
        <time>2021-08-05T08:26:32.369Z</time>
      </trkpt>
      <trkpt lat="47.01869" lon="8.65539">
        <ele>502</ele>
        <time>2021-08-05T08:26:33.368Z</time>
      </trkpt>
      <trkpt lat="47.01868" lon="8.65538">
        <ele>501</ele>
        <time>2021-08-05T08:26:34.369Z</time>
      </trkpt>
      <trkpt lat="47.01867" lon="8.65537">
        <ele>501</ele>
        <time>2021-08-05T08:26:35.368Z</time>
      </trkpt>
      <trkpt lat="47.01866" lon="8.65535">
        <ele>500</ele>
        <time>2021-08-05T08:26:36.369Z</time>
      </trkpt>
      <trkpt lat="47.01865" lon="8.65534">
        <ele>500</ele>
        <time>2021-08-05T08:26:37.368Z</time>
      </trkpt>
      <trkpt lat="47.01864" lon="8.65533">
        <ele>500</ele>
        <time>2021-08-05T08:26:38.369Z</time>
      </trkpt>
      <trkpt lat="47.01863" lon="8.65532">
        <ele>500</ele>
        <time>2021-08-05T08:26:39.369Z</time>
      </trkpt>
      <trkpt lat="47.01862" lon="8.6553">
        <ele>500</ele>
        <time>2021-08-05T08:26:40.369Z</time>
      </trkpt>
      <trkpt lat="47.0186" lon="8.65529">
        <ele>500</ele>
        <time>2021-08-05T08:26:41.369Z</time>
      </trkpt>
      <trkpt lat="47.01859" lon="8.65528">
        <ele>501</ele>
        <time>2021-08-05T08:26:42.368Z</time>
      </trkpt>
      <trkpt lat="47.01858" lon="8.65527">
        <ele>501</ele>
        <time>2021-08-05T08:26:43.369Z</time>
      </trkpt>
      <trkpt lat="47.01857" lon="8.65526">
        <ele>502</ele>
        <time>2021-08-05T08:26:44.369Z</time>
      </trkpt>
      <trkpt lat="47.01856" lon="8.65526">
        <ele>502</ele>
        <time>2021-08-05T08:26:45.369Z</time>
      </trkpt>
      <trkpt lat="47.01855" lon="8.65525">
        <ele>501</ele>
        <time>2021-08-05T08:26:46.368Z</time>
      </trkpt>
      <trkpt lat="47.01854" lon="8.65524">
        <ele>501</ele>
        <time>2021-08-05T08:26:47.369Z</time>
      </trkpt>
      <trkpt lat="47.01853" lon="8.65523">
        <ele>501</ele>
        <time>2021-08-05T08:26:48.369Z</time>
      </trkpt>
      <trkpt lat="47.01852" lon="8.65522">
        <ele>501</ele>
        <time>2021-08-05T08:26:49.369Z</time>
      </trkpt>
      <trkpt lat="47.01851" lon="8.65522">
        <ele>501</ele>
        <time>2021-08-05T08:26:50.369Z</time>
      </trkpt>
      <trkpt lat="47.0185" lon="8.65521">
        <ele>500</ele>
        <time>2021-08-05T08:26:51.369Z</time>
      </trkpt>
      <trkpt lat="47.01849" lon="8.65521">
        <ele>500</ele>
        <time>2021-08-05T08:26:52.368Z</time>
      </trkpt>
      <trkpt lat="47.01848" lon="8.6552">
        <ele>500</ele>
        <time>2021-08-05T08:26:53.369Z</time>
      </trkpt>
      <trkpt lat="47.01848" lon="8.6552">
        <ele>500</ele>
        <time>2021-08-05T08:26:54.368Z</time>
      </trkpt>
      <trkpt lat="47.01847" lon="8.65519">
        <ele>501</ele>
        <time>2021-08-05T08:26:55.369Z</time>
      </trkpt>
      <trkpt lat="47.01846" lon="8.65518">
        <ele>501</ele>
        <time>2021-08-05T08:26:56.369Z</time>
      </trkpt>
      <trkpt lat="47.01846" lon="8.65518">
        <ele>501</ele>
        <time>2021-08-05T08:26:57.369Z</time>
      </trkpt>
      <trkpt lat="47.01845" lon="8.65516">
        <ele>502</ele>
        <time>2021-08-05T08:26:58.369Z</time>
      </trkpt>
      <trkpt lat="47.01844" lon="8.65515">
        <ele>502</ele>
        <time>2021-08-05T08:26:59.369Z</time>
      </trkpt>
      <trkpt lat="47.01844" lon="8.65515">
        <ele>502</ele>
        <time>2021-08-05T08:27:00.369Z</time>
      </trkpt>
      <trkpt lat="47.01843" lon="8.65514">
        <ele>503</ele>
        <time>2021-08-05T08:27:01.369Z</time>
      </trkpt>
      <trkpt lat="47.01843" lon="8.65513">
        <ele>503</ele>
        <time>2021-08-05T08:27:02.368Z</time>
      </trkpt>
      <trkpt lat="47.01842" lon="8.65511">
        <ele>504</ele>
        <time>2021-08-05T08:27:03.369Z</time>
      </trkpt>
      <trkpt lat="47.01842" lon="8.65509">
        <ele>504</ele>
        <time>2021-08-05T08:27:04.369Z</time>
      </trkpt>
      <trkpt lat="47.01842" lon="8.65508">
        <ele>504</ele>
        <time>2021-08-05T08:27:05.369Z</time>
      </trkpt>
      <trkpt lat="47.01841" lon="8.65507">
        <ele>505</ele>
        <time>2021-08-05T08:27:06.369Z</time>
      </trkpt>
      <trkpt lat="47.01841" lon="8.65507">
        <ele>505</ele>
        <time>2021-08-05T08:27:07.369Z</time>
      </trkpt>
      <trkpt lat="47.0184" lon="8.65508">
        <ele>505</ele>
        <time>2021-08-05T08:27:08.368Z</time>
      </trkpt>
      <trkpt lat="47.01841" lon="8.65509">
        <ele>506</ele>
        <time>2021-08-05T08:27:09.369Z</time>
      </trkpt>
      <trkpt lat="47.01841" lon="8.65509">
        <ele>506</ele>
        <time>2021-08-05T08:27:10.368Z</time>
      </trkpt>
      <trkpt lat="47.0184" lon="8.65509">
        <ele>506</ele>
        <time>2021-08-05T08:27:11.368Z</time>
      </trkpt>
      <trkpt lat="47.0184" lon="8.65508">
        <ele>506</ele>
        <time>2021-08-05T08:27:12.368Z</time>
      </trkpt>
      <trkpt lat="47.0184" lon="8.65508">
        <ele>507</ele>
        <time>2021-08-05T08:27:13.369Z</time>
      </trkpt>
      <trkpt lat="47.0184" lon="8.65507">
        <ele>507</ele>
        <time>2021-08-05T08:27:14.369Z</time>
      </trkpt>
      <trkpt lat="47.01839" lon="8.65506">
        <ele>507</ele>
        <time>2021-08-05T08:27:15.368Z</time>
      </trkpt>
      <trkpt lat="47.01839" lon="8.65506">
        <ele>507</ele>
        <time>2021-08-05T08:27:16.369Z</time>
      </trkpt>
      <trkpt lat="47.01839" lon="8.65506">
        <ele>508</ele>
        <time>2021-08-05T08:27:17.369Z</time>
      </trkpt>
      <trkpt lat="47.01838" lon="8.65506">
        <ele>508</ele>
        <time>2021-08-05T08:27:18.369Z</time>
      </trkpt>
      <trkpt lat="47.01838" lon="8.65506">
        <ele>509</ele>
        <time>2021-08-05T08:27:19.368Z</time>
      </trkpt>
      <trkpt lat="47.01837" lon="8.65506">
        <ele>509</ele>
        <time>2021-08-05T08:27:20.368Z</time>
      </trkpt>
      <trkpt lat="47.01837" lon="8.65505">
        <ele>509</ele>
        <time>2021-08-05T08:27:21.369Z</time>
      </trkpt>
      <trkpt lat="47.01836" lon="8.65504">
        <ele>510</ele>
        <time>2021-08-05T08:27:22.368Z</time>
      </trkpt>
      <trkpt lat="47.01835" lon="8.65503">
        <ele>510</ele>
        <time>2021-08-05T08:27:23.369Z</time>
      </trkpt>
      <trkpt lat="47.01834" lon="8.65502">
        <ele>510</ele>
        <time>2021-08-05T08:27:24.369Z</time>
      </trkpt>
      <trkpt lat="47.01833" lon="8.655">
        <ele>511</ele>
        <time>2021-08-05T08:27:25.369Z</time>
      </trkpt>
      <trkpt lat="47.01832" lon="8.65498">
        <ele>511</ele>
        <time>2021-08-05T08:27:26.368Z</time>
      </trkpt>
      <trkpt lat="47.01831" lon="8.65495">
        <ele>511</ele>
        <time>2021-08-05T08:27:27.368Z</time>
      </trkpt>
      <trkpt lat="47.01829" lon="8.65492">
        <ele>511</ele>
        <time>2021-08-05T08:27:28.369Z</time>
      </trkpt>
      <trkpt lat="47.01829" lon="8.65491">
        <ele>511</ele>
        <time>2021-08-05T08:27:29.369Z</time>
      </trkpt>
      <trkpt lat="47.01828" lon="8.65488">
        <ele>511</ele>
        <time>2021-08-05T08:27:30.369Z</time>
      </trkpt>
      <trkpt lat="47.01827" lon="8.65485">
        <ele>511</ele>
        <time>2021-08-05T08:27:31.368Z</time>
      </trkpt>
      <trkpt lat="47.01826" lon="8.65483">
        <ele>510</ele>
        <time>2021-08-05T08:27:32.368Z</time>
      </trkpt>
      <trkpt lat="47.01825" lon="8.65481">
        <ele>510</ele>
        <time>2021-08-05T08:27:33.369Z</time>
      </trkpt>
      <trkpt lat="47.01824" lon="8.6548">
        <ele>509</ele>
        <time>2021-08-05T08:27:34.369Z</time>
      </trkpt>
      <trkpt lat="47.01823" lon="8.65478">
        <ele>507</ele>
        <time>2021-08-05T08:27:35.369Z</time>
      </trkpt>
      <trkpt lat="47.01823" lon="8.65477">
        <ele>506</ele>
        <time>2021-08-05T08:27:36.368Z</time>
      </trkpt>
      <trkpt lat="47.01822" lon="8.65475">
        <ele>506</ele>
        <time>2021-08-05T08:27:37.368Z</time>
      </trkpt>
      <trkpt lat="47.01821" lon="8.65473">
        <ele>505</ele>
        <time>2021-08-05T08:27:38.369Z</time>
      </trkpt>
      <trkpt lat="47.0182" lon="8.65472">
        <ele>505</ele>
        <time>2021-08-05T08:27:39.369Z</time>
      </trkpt>
      <trkpt lat="47.01819" lon="8.6547">
        <ele>505</ele>
        <time>2021-08-05T08:27:40.369Z</time>
      </trkpt>
      <trkpt lat="47.01818" lon="8.65468">
        <ele>505</ele>
        <time>2021-08-05T08:27:41.369Z</time>
      </trkpt>
      <trkpt lat="47.01817" lon="8.65466">
        <ele>504</ele>
        <time>2021-08-05T08:27:42.368Z</time>
      </trkpt>
      <trkpt lat="47.01816" lon="8.65463">
        <ele>504</ele>
        <time>2021-08-05T08:27:43.369Z</time>
      </trkpt>
      <trkpt lat="47.01816" lon="8.65461">
        <ele>504</ele>
        <time>2021-08-05T08:27:44.369Z</time>
      </trkpt>
      <trkpt lat="47.01815" lon="8.65459">
        <ele>503</ele>
        <time>2021-08-05T08:27:45.369Z</time>
      </trkpt>
      <trkpt lat="47.01814" lon="8.65457">
        <ele>503</ele>
        <time>2021-08-05T08:27:46.368Z</time>
      </trkpt>
      <trkpt lat="47.01813" lon="8.65456">
        <ele>502</ele>
        <time>2021-08-05T08:27:47.369Z</time>
      </trkpt>
      <trkpt lat="47.01812" lon="8.65453">
        <ele>502</ele>
        <time>2021-08-05T08:27:48.369Z</time>
      </trkpt>
      <trkpt lat="47.0181" lon="8.65451">
        <ele>501</ele>
        <time>2021-08-05T08:27:49.369Z</time>
      </trkpt>
      <trkpt lat="47.0181" lon="8.65451">
        <ele>501</ele>
        <time>2021-08-05T08:27:50.369Z</time>
      </trkpt>
      <trkpt lat="47.0181" lon="8.65451">
        <ele>501</ele>
        <time>2021-08-05T08:27:51.369Z</time>
      </trkpt>
      <trkpt lat="47.01809" lon="8.6545">
        <ele>500</ele>
        <time>2021-08-05T08:27:52.369Z</time>
      </trkpt>
      <trkpt lat="47.01809" lon="8.65449">
        <ele>500</ele>
        <time>2021-08-05T08:27:53.369Z</time>
      </trkpt>
      <trkpt lat="47.01807" lon="8.65447">
        <ele>500</ele>
        <time>2021-08-05T08:27:54.369Z</time>
      </trkpt>
      <trkpt lat="47.01807" lon="8.65445">
        <ele>500</ele>
        <time>2021-08-05T08:27:55.369Z</time>
      </trkpt>
      <trkpt lat="47.01807" lon="8.65444">
        <ele>499</ele>
        <time>2021-08-05T08:27:56.368Z</time>
      </trkpt>
      <trkpt lat="47.01807" lon="8.65444">
        <ele>499</ele>
        <time>2021-08-05T08:27:57.368Z</time>
      </trkpt>
      <trkpt lat="47.01806" lon="8.65442">
        <ele>499</ele>
        <time>2021-08-05T08:27:58.368Z</time>
      </trkpt>
      <trkpt lat="47.01806" lon="8.65441">
        <ele>499</ele>
        <time>2021-08-05T08:27:59.369Z</time>
      </trkpt>
      <trkpt lat="47.01806" lon="8.6544">
        <ele>499</ele>
        <time>2021-08-05T08:28:00.369Z</time>
      </trkpt>
      <trkpt lat="47.01805" lon="8.65439">
        <ele>498</ele>
        <time>2021-08-05T08:28:01.368Z</time>
      </trkpt>
      <trkpt lat="47.01804" lon="8.65437">
        <ele>498</ele>
        <time>2021-08-05T08:28:02.369Z</time>
      </trkpt>
      <trkpt lat="47.01804" lon="8.65435">
        <ele>498</ele>
        <time>2021-08-05T08:28:03.369Z</time>
      </trkpt>
      <trkpt lat="47.01803" lon="8.65434">
        <ele>498</ele>
        <time>2021-08-05T08:28:04.368Z</time>
      </trkpt>
      <trkpt lat="47.01803" lon="8.65433">
        <ele>498</ele>
        <time>2021-08-05T08:28:05.368Z</time>
      </trkpt>
      <trkpt lat="47.01803" lon="8.65432">
        <ele>498</ele>
        <time>2021-08-05T08:28:06.368Z</time>
      </trkpt>
      <trkpt lat="47.01801" lon="8.6543">
        <ele>498</ele>
        <time>2021-08-05T08:28:07.369Z</time>
      </trkpt>
      <trkpt lat="47.018" lon="8.65429">
        <ele>498</ele>
        <time>2021-08-05T08:28:08.369Z</time>
      </trkpt>
      <trkpt lat="47.01799" lon="8.65425">
        <ele>498</ele>
        <time>2021-08-05T08:28:09.368Z</time>
      </trkpt>
      <trkpt lat="47.01798" lon="8.65424">
        <ele>497</ele>
        <time>2021-08-05T08:28:10.368Z</time>
      </trkpt>
      <trkpt lat="47.01798" lon="8.65422">
        <ele>498</ele>
        <time>2021-08-05T08:28:11.369Z</time>
      </trkpt>
      <trkpt lat="47.01797" lon="8.6542">
        <ele>498</ele>
        <time>2021-08-05T08:28:12.369Z</time>
      </trkpt>
      <trkpt lat="47.01796" lon="8.65418">
        <ele>498</ele>
        <time>2021-08-05T08:28:13.369Z</time>
      </trkpt>
      <trkpt lat="47.01796" lon="8.65417">
        <ele>498</ele>
        <time>2021-08-05T08:28:14.368Z</time>
      </trkpt>
      <trkpt lat="47.01796" lon="8.65416">
        <ele>497</ele>
        <time>2021-08-05T08:28:15.369Z</time>
      </trkpt>
      <trkpt lat="47.01796" lon="8.65416">
        <ele>497</ele>
        <time>2021-08-05T08:28:16.369Z</time>
      </trkpt>
      <trkpt lat="47.01796" lon="8.65415">
        <ele>496</ele>
        <time>2021-08-05T08:28:17.368Z</time>
      </trkpt>
      <trkpt lat="47.01796" lon="8.65414">
        <ele>496</ele>
        <time>2021-08-05T08:28:18.369Z</time>
      </trkpt>
      <trkpt lat="47.01796" lon="8.65413">
        <ele>495</ele>
        <time>2021-08-05T08:28:19.369Z</time>
      </trkpt>
      <trkpt lat="47.01796" lon="8.65413">
        <ele>495</ele>
        <time>2021-08-05T08:28:20.369Z</time>
      </trkpt>
      <trkpt lat="47.01797" lon="8.65412">
        <ele>495</ele>
        <time>2021-08-05T08:28:21.369Z</time>
      </trkpt>
      <trkpt lat="47.01797" lon="8.65411">
        <ele>495</ele>
        <time>2021-08-05T08:28:22.369Z</time>
      </trkpt>
      <trkpt lat="47.01798" lon="8.6541">
        <ele>495</ele>
        <time>2021-08-05T08:28:23.369Z</time>
      </trkpt>
      <trkpt lat="47.01797" lon="8.65409">
        <ele>495</ele>
        <time>2021-08-05T08:28:24.368Z</time>
      </trkpt>
      <trkpt lat="47.01798" lon="8.65411">
        <ele>495</ele>
        <time>2021-08-05T08:28:25.369Z</time>
      </trkpt>
      <trkpt lat="47.01798" lon="8.65411">
        <ele>495</ele>
        <time>2021-08-05T08:28:26.369Z</time>
      </trkpt>
      <trkpt lat="47.01796" lon="8.6541">
        <ele>488</ele>
        <time>2021-08-05T08:28:27.369Z</time>
      </trkpt>
      <trkpt lat="47.01796" lon="8.6541">
        <ele>487</ele>
        <time>2021-08-05T08:28:28.370Z</time>
      </trkpt>
      <trkpt lat="47.01794" lon="8.65409">
        <ele>487</ele>
        <time>2021-08-05T08:28:29.370Z</time>
      </trkpt>
      <trkpt lat="47.01795" lon="8.65409">
        <ele>488</ele>
        <time>2021-08-05T08:28:30.370Z</time>
      </trkpt>
      <trkpt lat="47.01795" lon="8.65407">
        <ele>486</ele>
        <time>2021-08-05T08:28:31.370Z</time>
      </trkpt>
      <trkpt lat="47.01794" lon="8.65405">
        <ele>486</ele>
        <time>2021-08-05T08:28:32.370Z</time>
      </trkpt>
      <trkpt lat="47.01793" lon="8.65404">
        <ele>485</ele>
        <time>2021-08-05T08:28:33.369Z</time>
      </trkpt>
      <trkpt lat="47.01792" lon="8.65403">
        <ele>484</ele>
        <time>2021-08-05T08:28:34.371Z</time>
      </trkpt>
      <trkpt lat="47.0179" lon="8.65403">
        <ele>484</ele>
        <time>2021-08-05T08:28:35.370Z</time>
      </trkpt>
      <trkpt lat="47.0179" lon="8.65404">
        <ele>484</ele>
        <time>2021-08-05T08:28:36.370Z</time>
      </trkpt>
      <trkpt lat="47.01789" lon="8.65404">
        <ele>484</ele>
        <time>2021-08-05T08:28:37.371Z</time>
      </trkpt>
      <trkpt lat="47.01787" lon="8.65404">
        <ele>484</ele>
        <time>2021-08-05T08:28:38.371Z</time>
      </trkpt>
      <trkpt lat="47.01786" lon="8.65405">
        <ele>485</ele>
        <time>2021-08-05T08:28:39.371Z</time>
      </trkpt>
      <trkpt lat="47.01785" lon="8.65405">
        <ele>485</ele>
        <time>2021-08-05T08:28:40.370Z</time>
      </trkpt>
      <trkpt lat="47.01784" lon="8.65405">
        <ele>486</ele>
        <time>2021-08-05T08:28:41.370Z</time>
      </trkpt>
      <trkpt lat="47.01783" lon="8.65406">
        <ele>486</ele>
        <time>2021-08-05T08:28:42.371Z</time>
      </trkpt>
      <trkpt lat="47.01782" lon="8.65406">
        <ele>486</ele>
        <time>2021-08-05T08:28:43.370Z</time>
      </trkpt>
      <trkpt lat="47.01781" lon="8.65408">
        <ele>487</ele>
        <time>2021-08-05T08:28:44.371Z</time>
      </trkpt>
      <trkpt lat="47.0178" lon="8.65409">
        <ele>487</ele>
        <time>2021-08-05T08:28:45.370Z</time>
      </trkpt>
      <trkpt lat="47.0178" lon="8.6541">
        <ele>487</ele>
        <time>2021-08-05T08:28:46.370Z</time>
      </trkpt>
      <trkpt lat="47.01779" lon="8.65411">
        <ele>487</ele>
        <time>2021-08-05T08:28:47.370Z</time>
      </trkpt>
      <trkpt lat="47.01778" lon="8.65412">
        <ele>488</ele>
        <time>2021-08-05T08:28:48.371Z</time>
      </trkpt>
      <trkpt lat="47.01777" lon="8.65413">
        <ele>488</ele>
        <time>2021-08-05T08:28:49.371Z</time>
      </trkpt>
      <trkpt lat="47.01776" lon="8.65414">
        <ele>489</ele>
        <time>2021-08-05T08:28:50.371Z</time>
      </trkpt>
      <trkpt lat="47.01776" lon="8.65415">
        <ele>489</ele>
        <time>2021-08-05T08:28:51.371Z</time>
      </trkpt>
      <trkpt lat="47.01775" lon="8.65416">
        <ele>489</ele>
        <time>2021-08-05T08:28:52.371Z</time>
      </trkpt>
      <trkpt lat="47.01774" lon="8.65417">
        <ele>489</ele>
        <time>2021-08-05T08:28:53.371Z</time>
      </trkpt>
      <trkpt lat="47.01774" lon="8.65417">
        <ele>489</ele>
        <time>2021-08-05T08:28:54.370Z</time>
      </trkpt>
      <trkpt lat="47.01773" lon="8.65417">
        <ele>489</ele>
        <time>2021-08-05T08:28:55.371Z</time>
      </trkpt>
      <trkpt lat="47.01772" lon="8.65418">
        <ele>489</ele>
        <time>2021-08-05T08:28:56.371Z</time>
      </trkpt>
      <trkpt lat="47.01772" lon="8.65418">
        <ele>490</ele>
        <time>2021-08-05T08:28:57.370Z</time>
      </trkpt>
      <trkpt lat="47.01771" lon="8.65419">
        <ele>490</ele>
        <time>2021-08-05T08:28:58.371Z</time>
      </trkpt>
      <trkpt lat="47.0177" lon="8.65418">
        <ele>489</ele>
        <time>2021-08-05T08:28:59.371Z</time>
      </trkpt>
      <trkpt lat="47.01769" lon="8.65418">
        <ele>490</ele>
        <time>2021-08-05T08:29:00.371Z</time>
      </trkpt>
      <trkpt lat="47.01768" lon="8.65417">
        <ele>490</ele>
        <time>2021-08-05T08:29:01.371Z</time>
      </trkpt>
      <trkpt lat="47.01767" lon="8.65417">
        <ele>490</ele>
        <time>2021-08-05T08:29:02.371Z</time>
      </trkpt>
      <trkpt lat="47.01767" lon="8.65416">
        <ele>490</ele>
        <time>2021-08-05T08:29:03.370Z</time>
      </trkpt>
      <trkpt lat="47.01766" lon="8.65415">
        <ele>489</ele>
        <time>2021-08-05T08:29:04.371Z</time>
      </trkpt>
      <trkpt lat="47.01765" lon="8.65413">
        <ele>489</ele>
        <time>2021-08-05T08:29:05.370Z</time>
      </trkpt>
      <trkpt lat="47.01764" lon="8.65413">
        <ele>489</ele>
        <time>2021-08-05T08:29:06.371Z</time>
      </trkpt>
      <trkpt lat="47.01763" lon="8.65412">
        <ele>488</ele>
        <time>2021-08-05T08:29:07.371Z</time>
      </trkpt>
      <trkpt lat="47.01762" lon="8.65411">
        <ele>488</ele>
        <time>2021-08-05T08:29:08.371Z</time>
      </trkpt>
      <trkpt lat="47.01762" lon="8.6541">
        <ele>488</ele>
        <time>2021-08-05T08:29:09.370Z</time>
      </trkpt>
      <trkpt lat="47.01761" lon="8.6541">
        <ele>487</ele>
        <time>2021-08-05T08:29:10.370Z</time>
      </trkpt>
      <trkpt lat="47.0176" lon="8.65409">
        <ele>487</ele>
        <time>2021-08-05T08:29:11.371Z</time>
      </trkpt>
      <trkpt lat="47.01759" lon="8.65408">
        <ele>486</ele>
        <time>2021-08-05T08:29:12.370Z</time>
      </trkpt>
      <trkpt lat="47.01758" lon="8.65407">
        <ele>486</ele>
        <time>2021-08-05T08:29:13.371Z</time>
      </trkpt>
      <trkpt lat="47.01758" lon="8.65406">
        <ele>486</ele>
        <time>2021-08-05T08:29:14.370Z</time>
      </trkpt>
      <trkpt lat="47.01757" lon="8.65405">
        <ele>486</ele>
        <time>2021-08-05T08:29:15.370Z</time>
      </trkpt>
      <trkpt lat="47.01756" lon="8.65405">
        <ele>486</ele>
        <time>2021-08-05T08:29:16.371Z</time>
      </trkpt>
      <trkpt lat="47.01755" lon="8.65404">
        <ele>485</ele>
        <time>2021-08-05T08:29:17.370Z</time>
      </trkpt>
      <trkpt lat="47.01754" lon="8.65403">
        <ele>485</ele>
        <time>2021-08-05T08:29:18.371Z</time>
      </trkpt>
      <trkpt lat="47.01753" lon="8.65404">
        <ele>485</ele>
        <time>2021-08-05T08:29:19.371Z</time>
      </trkpt>
      <trkpt lat="47.01752" lon="8.65405">
        <ele>484</ele>
        <time>2021-08-05T08:29:20.370Z</time>
      </trkpt>
      <trkpt lat="47.01752" lon="8.65405">
        <ele>484</ele>
        <time>2021-08-05T08:29:21.371Z</time>
      </trkpt>
      <trkpt lat="47.01751" lon="8.65405">
        <ele>483</ele>
        <time>2021-08-05T08:29:22.370Z</time>
      </trkpt>
      <trkpt lat="47.0175" lon="8.65405">
        <ele>483</ele>
        <time>2021-08-05T08:29:23.370Z</time>
      </trkpt>
      <trkpt lat="47.01749" lon="8.65405">
        <ele>483</ele>
        <time>2021-08-05T08:29:24.371Z</time>
      </trkpt>
      <trkpt lat="47.01749" lon="8.65405">
        <ele>483</ele>
        <time>2021-08-05T08:29:25.371Z</time>
      </trkpt>
      <trkpt lat="47.01749" lon="8.65404">
        <ele>482</ele>
        <time>2021-08-05T08:29:26.370Z</time>
      </trkpt>
      <trkpt lat="47.01748" lon="8.65403">
        <ele>483</ele>
        <time>2021-08-05T08:29:27.371Z</time>
      </trkpt>
      <trkpt lat="47.01747" lon="8.65402">
        <ele>482</ele>
        <time>2021-08-05T08:29:28.370Z</time>
      </trkpt>
      <trkpt lat="47.01747" lon="8.65401">
        <ele>482</ele>
        <time>2021-08-05T08:29:29.371Z</time>
      </trkpt>
      <trkpt lat="47.01746" lon="8.65401">
        <ele>482</ele>
        <time>2021-08-05T08:29:30.370Z</time>
      </trkpt>
      <trkpt lat="47.01745" lon="8.654">
        <ele>482</ele>
        <time>2021-08-05T08:29:31.370Z</time>
      </trkpt>
      <trkpt lat="47.01744" lon="8.654">
        <ele>482</ele>
        <time>2021-08-05T08:29:32.370Z</time>
      </trkpt>
      <trkpt lat="47.01743" lon="8.65399">
        <ele>482</ele>
        <time>2021-08-05T08:29:33.371Z</time>
      </trkpt>
      <trkpt lat="47.01742" lon="8.65399">
        <ele>482</ele>
        <time>2021-08-05T08:29:34.371Z</time>
      </trkpt>
      <trkpt lat="47.01741" lon="8.65398">
        <ele>482</ele>
        <time>2021-08-05T08:29:35.371Z</time>
      </trkpt>
      <trkpt lat="47.0174" lon="8.65397">
        <ele>482</ele>
        <time>2021-08-05T08:29:36.371Z</time>
      </trkpt>
      <trkpt lat="47.01739" lon="8.65397">
        <ele>482</ele>
        <time>2021-08-05T08:29:37.371Z</time>
      </trkpt>
      <trkpt lat="47.01738" lon="8.65396">
        <ele>483</ele>
        <time>2021-08-05T08:29:38.371Z</time>
      </trkpt>
      <trkpt lat="47.01737" lon="8.65396">
        <ele>484</ele>
        <time>2021-08-05T08:29:39.371Z</time>
      </trkpt>
      <trkpt lat="47.01736" lon="8.65396">
        <ele>484</ele>
        <time>2021-08-05T08:29:40.371Z</time>
      </trkpt>
      <trkpt lat="47.01735" lon="8.65395">
        <ele>485</ele>
        <time>2021-08-05T08:29:41.371Z</time>
      </trkpt>
      <trkpt lat="47.01733" lon="8.65395">
        <ele>486</ele>
        <time>2021-08-05T08:29:42.370Z</time>
      </trkpt>
      <trkpt lat="47.01732" lon="8.65394">
        <ele>487</ele>
        <time>2021-08-05T08:29:43.371Z</time>
      </trkpt>
      <trkpt lat="47.01731" lon="8.65393">
        <ele>487</ele>
        <time>2021-08-05T08:29:44.371Z</time>
      </trkpt>
      <trkpt lat="47.01729" lon="8.65392">
        <ele>487</ele>
        <time>2021-08-05T08:29:45.371Z</time>
      </trkpt>
      <trkpt lat="47.01728" lon="8.65391">
        <ele>488</ele>
        <time>2021-08-05T08:29:46.370Z</time>
      </trkpt>
      <trkpt lat="47.01727" lon="8.65391">
        <ele>489</ele>
        <time>2021-08-05T08:29:47.370Z</time>
      </trkpt>
      <trkpt lat="47.01726" lon="8.6539">
        <ele>489</ele>
        <time>2021-08-05T08:29:48.371Z</time>
      </trkpt>
      <trkpt lat="47.01725" lon="8.6539">
        <ele>489</ele>
        <time>2021-08-05T08:29:49.371Z</time>
      </trkpt>
      <trkpt lat="47.01724" lon="8.6539">
        <ele>490</ele>
        <time>2021-08-05T08:29:50.371Z</time>
      </trkpt>
      <trkpt lat="47.01723" lon="8.65389">
        <ele>489</ele>
        <time>2021-08-05T08:29:51.371Z</time>
      </trkpt>
      <trkpt lat="47.01722" lon="8.65388">
        <ele>489</ele>
        <time>2021-08-05T08:29:52.371Z</time>
      </trkpt>
      <trkpt lat="47.01722" lon="8.65388">
        <ele>489</ele>
        <time>2021-08-05T08:29:53.370Z</time>
      </trkpt>
      <trkpt lat="47.0172" lon="8.65388">
        <ele>489</ele>
        <time>2021-08-05T08:29:54.371Z</time>
      </trkpt>
      <trkpt lat="47.01719" lon="8.65387">
        <ele>489</ele>
        <time>2021-08-05T08:29:55.371Z</time>
      </trkpt>
      <trkpt lat="47.01718" lon="8.65387">
        <ele>489</ele>
        <time>2021-08-05T08:29:56.370Z</time>
      </trkpt>
      <trkpt lat="47.01717" lon="8.65388">
        <ele>488</ele>
        <time>2021-08-05T08:29:57.371Z</time>
      </trkpt>
      <trkpt lat="47.01716" lon="8.65388">
        <ele>488</ele>
        <time>2021-08-05T08:29:58.371Z</time>
      </trkpt>
      <trkpt lat="47.01716" lon="8.65388">
        <ele>488</ele>
        <time>2021-08-05T08:29:59.370Z</time>
      </trkpt>
      <trkpt lat="47.01714" lon="8.65387">
        <ele>488</ele>
        <time>2021-08-05T08:30:00.371Z</time>
      </trkpt>
      <trkpt lat="47.01713" lon="8.65386">
        <ele>488</ele>
        <time>2021-08-05T08:30:01.371Z</time>
      </trkpt>
      <trkpt lat="47.01712" lon="8.65386">
        <ele>488</ele>
        <time>2021-08-05T08:30:02.370Z</time>
      </trkpt>
      <trkpt lat="47.0171" lon="8.65384">
        <ele>488</ele>
        <time>2021-08-05T08:30:03.371Z</time>
      </trkpt>
      <trkpt lat="47.01709" lon="8.65384">
        <ele>487</ele>
        <time>2021-08-05T08:30:04.371Z</time>
      </trkpt>
      <trkpt lat="47.01708" lon="8.65384">
        <ele>487</ele>
        <time>2021-08-05T08:30:05.371Z</time>
      </trkpt>
      <trkpt lat="47.01707" lon="8.65383">
        <ele>487</ele>
        <time>2021-08-05T08:30:06.371Z</time>
      </trkpt>
      <trkpt lat="47.01706" lon="8.65383">
        <ele>486</ele>
        <time>2021-08-05T08:30:07.371Z</time>
      </trkpt>
      <trkpt lat="47.01705" lon="8.65382">
        <ele>486</ele>
        <time>2021-08-05T08:30:08.370Z</time>
      </trkpt>
      <trkpt lat="47.01703" lon="8.65381">
        <ele>485</ele>
        <time>2021-08-05T08:30:09.371Z</time>
      </trkpt>
      <trkpt lat="47.01702" lon="8.6538">
        <ele>485</ele>
        <time>2021-08-05T08:30:10.371Z</time>
      </trkpt>
      <trkpt lat="47.01701" lon="8.65378">
        <ele>485</ele>
        <time>2021-08-05T08:30:11.371Z</time>
      </trkpt>
      <trkpt lat="47.017" lon="8.65377">
        <ele>485</ele>
        <time>2021-08-05T08:30:12.371Z</time>
      </trkpt>
      <trkpt lat="47.01699" lon="8.65376">
        <ele>485</ele>
        <time>2021-08-05T08:30:13.371Z</time>
      </trkpt>
      <trkpt lat="47.01698" lon="8.65375">
        <ele>485</ele>
        <time>2021-08-05T08:30:14.370Z</time>
      </trkpt>
      <trkpt lat="47.01697" lon="8.65375">
        <ele>486</ele>
        <time>2021-08-05T08:30:15.371Z</time>
      </trkpt>
      <trkpt lat="47.01695" lon="8.65374">
        <ele>486</ele>
        <time>2021-08-05T08:30:16.371Z</time>
      </trkpt>
      <trkpt lat="47.01694" lon="8.65373">
        <ele>486</ele>
        <time>2021-08-05T08:30:17.370Z</time>
      </trkpt>
      <trkpt lat="47.01693" lon="8.65373">
        <ele>486</ele>
        <time>2021-08-05T08:30:18.371Z</time>
      </trkpt>
      <trkpt lat="47.01693" lon="8.65372">
        <ele>486</ele>
        <time>2021-08-05T08:30:19.371Z</time>
      </trkpt>
      <trkpt lat="47.01692" lon="8.65371">
        <ele>486</ele>
        <time>2021-08-05T08:30:20.370Z</time>
      </trkpt>
      <trkpt lat="47.01691" lon="8.65371">
        <ele>486</ele>
        <time>2021-08-05T08:30:21.371Z</time>
      </trkpt>
      <trkpt lat="47.0169" lon="8.6537">
        <ele>485</ele>
        <time>2021-08-05T08:30:22.371Z</time>
      </trkpt>
      <trkpt lat="47.01689" lon="8.6537">
        <ele>485</ele>
        <time>2021-08-05T08:30:23.371Z</time>
      </trkpt>
      <trkpt lat="47.01688" lon="8.6537">
        <ele>485</ele>
        <time>2021-08-05T08:30:24.371Z</time>
      </trkpt>
      <trkpt lat="47.01686" lon="8.65369">
        <ele>484</ele>
        <time>2021-08-05T08:30:25.371Z</time>
      </trkpt>
      <trkpt lat="47.01685" lon="8.65368">
        <ele>484</ele>
        <time>2021-08-05T08:30:26.370Z</time>
      </trkpt>
      <trkpt lat="47.01683" lon="8.65367">
        <ele>484</ele>
        <time>2021-08-05T08:30:27.371Z</time>
      </trkpt>
      <trkpt lat="47.01681" lon="8.65366">
        <ele>484</ele>
        <time>2021-08-05T08:30:28.371Z</time>
      </trkpt>
      <trkpt lat="47.0168" lon="8.65366">
        <ele>484</ele>
        <time>2021-08-05T08:30:29.371Z</time>
      </trkpt>
      <trkpt lat="47.01679" lon="8.65365">
        <ele>485</ele>
        <time>2021-08-05T08:30:30.371Z</time>
      </trkpt>
      <trkpt lat="47.01677" lon="8.65364">
        <ele>485</ele>
        <time>2021-08-05T08:30:31.370Z</time>
      </trkpt>
      <trkpt lat="47.01677" lon="8.65364">
        <ele>485</ele>
        <time>2021-08-05T08:30:32.371Z</time>
      </trkpt>
      <trkpt lat="47.01677" lon="8.65363">
        <ele>486</ele>
        <time>2021-08-05T08:30:33.371Z</time>
      </trkpt>
      <trkpt lat="47.01676" lon="8.65362">
        <ele>486</ele>
        <time>2021-08-05T08:30:34.370Z</time>
      </trkpt>
      <trkpt lat="47.01675" lon="8.65362">
        <ele>486</ele>
        <time>2021-08-05T08:30:35.371Z</time>
      </trkpt>
      <trkpt lat="47.01674" lon="8.65362">
        <ele>486</ele>
        <time>2021-08-05T08:30:36.371Z</time>
      </trkpt>
      <trkpt lat="47.01673" lon="8.65362">
        <ele>486</ele>
        <time>2021-08-05T08:30:37.371Z</time>
      </trkpt>
      <trkpt lat="47.01672" lon="8.65362">
        <ele>486</ele>
        <time>2021-08-05T08:30:38.370Z</time>
      </trkpt>
      <trkpt lat="47.01671" lon="8.65362">
        <ele>486</ele>
        <time>2021-08-05T08:30:39.371Z</time>
      </trkpt>
      <trkpt lat="47.0167" lon="8.65361">
        <ele>485</ele>
        <time>2021-08-05T08:30:40.371Z</time>
      </trkpt>
      <trkpt lat="47.0167" lon="8.65362">
        <ele>485</ele>
        <time>2021-08-05T08:30:41.371Z</time>
      </trkpt>
      <trkpt lat="47.01669" lon="8.65362">
        <ele>485</ele>
        <time>2021-08-05T08:30:42.370Z</time>
      </trkpt>
      <trkpt lat="47.01668" lon="8.65363">
        <ele>485</ele>
        <time>2021-08-05T08:30:43.371Z</time>
      </trkpt>
      <trkpt lat="47.01667" lon="8.65363">
        <ele>485</ele>
        <time>2021-08-05T08:30:44.370Z</time>
      </trkpt>
      <trkpt lat="47.01667" lon="8.65364">
        <ele>485</ele>
        <time>2021-08-05T08:30:45.371Z</time>
      </trkpt>
      <trkpt lat="47.01665" lon="8.65365">
        <ele>485</ele>
        <time>2021-08-05T08:30:46.371Z</time>
      </trkpt>
      <trkpt lat="47.01665" lon="8.65366">
        <ele>484</ele>
        <time>2021-08-05T08:30:47.371Z</time>
      </trkpt>
      <trkpt lat="47.01664" lon="8.65366">
        <ele>484</ele>
        <time>2021-08-05T08:30:48.370Z</time>
      </trkpt>
      <trkpt lat="47.01616" lon="8.65412">
        <ele>487</ele>
        <time>2021-08-05T08:37:48.414Z</time>
      </trkpt>
      <trkpt lat="47.01616" lon="8.65412">
        <ele>487</ele>
        <time>2021-08-05T08:37:48.414Z</time>
      </trkpt>
      <trkpt lat="47.01616" lon="8.65412">
        <ele>487</ele>
        <time>2021-08-05T08:37:48.414Z</time>
      </trkpt>
      <trkpt lat="47.01616" lon="8.65412">
        <ele>488</ele>
        <time>2021-08-05T08:37:49.415Z</time>
      </trkpt>
      <trkpt lat="47.01616" lon="8.65414">
        <ele>488</ele>
        <time>2021-08-05T08:37:50.414Z</time>
      </trkpt>
      <trkpt lat="47.01618" lon="8.65417">
        <ele>488</ele>
        <time>2021-08-05T08:37:51.415Z</time>
      </trkpt>
      <trkpt lat="47.01619" lon="8.6542">
        <ele>487</ele>
        <time>2021-08-05T08:37:52.414Z</time>
      </trkpt>
      <trkpt lat="47.0162" lon="8.65421">
        <ele>487</ele>
        <time>2021-08-05T08:37:53.414Z</time>
      </trkpt>
      <trkpt lat="47.0162" lon="8.6542">
        <ele>487</ele>
        <time>2021-08-05T08:37:54.415Z</time>
      </trkpt>
      <trkpt lat="47.01619" lon="8.65419">
        <ele>487</ele>
        <time>2021-08-05T08:37:55.414Z</time>
      </trkpt>
      <trkpt lat="47.01619" lon="8.65419">
        <ele>487</ele>
        <time>2021-08-05T08:37:56.415Z</time>
      </trkpt>
      <trkpt lat="47.01618" lon="8.65419">
        <ele>487</ele>
        <time>2021-08-05T08:37:57.414Z</time>
      </trkpt>
      <trkpt lat="47.01617" lon="8.65418">
        <ele>487</ele>
        <time>2021-08-05T08:37:58.415Z</time>
      </trkpt>
      <trkpt lat="47.01616" lon="8.65419">
        <ele>487</ele>
        <time>2021-08-05T08:37:59.415Z</time>
      </trkpt>
      <trkpt lat="47.01615" lon="8.6542">
        <ele>487</ele>
        <time>2021-08-05T08:38:00.415Z</time>
      </trkpt>
      <trkpt lat="47.01614" lon="8.65421">
        <ele>487</ele>
        <time>2021-08-05T08:38:01.415Z</time>
      </trkpt>
      <trkpt lat="47.01613" lon="8.65422">
        <ele>487</ele>
        <time>2021-08-05T08:38:02.414Z</time>
      </trkpt>
      <trkpt lat="47.01611" lon="8.65423">
        <ele>487</ele>
        <time>2021-08-05T08:38:03.415Z</time>
      </trkpt>
      <trkpt lat="47.0161" lon="8.65425">
        <ele>487</ele>
        <time>2021-08-05T08:38:04.414Z</time>
      </trkpt>
      <trkpt lat="47.01608" lon="8.65426">
        <ele>487</ele>
        <time>2021-08-05T08:38:05.415Z</time>
      </trkpt>
      <trkpt lat="47.01607" lon="8.65427">
        <ele>487</ele>
        <time>2021-08-05T08:38:06.415Z</time>
      </trkpt>
      <trkpt lat="47.01606" lon="8.65428">
        <ele>487</ele>
        <time>2021-08-05T08:38:07.415Z</time>
      </trkpt>
      <trkpt lat="47.01605" lon="8.65429">
        <ele>488</ele>
        <time>2021-08-05T08:38:08.415Z</time>
      </trkpt>
      <trkpt lat="47.01604" lon="8.6543">
        <ele>488</ele>
        <time>2021-08-05T08:38:09.415Z</time>
      </trkpt>
      <trkpt lat="47.01603" lon="8.6543">
        <ele>489</ele>
        <time>2021-08-05T08:38:10.415Z</time>
      </trkpt>
      <trkpt lat="47.01603" lon="8.6543">
        <ele>490</ele>
        <time>2021-08-05T08:38:11.414Z</time>
      </trkpt>
      <trkpt lat="47.01602" lon="8.65431">
        <ele>490</ele>
        <time>2021-08-05T08:38:12.415Z</time>
      </trkpt>
      <trkpt lat="47.01601" lon="8.65432">
        <ele>491</ele>
        <time>2021-08-05T08:38:13.415Z</time>
      </trkpt>
      <trkpt lat="47.016" lon="8.65434">
        <ele>492</ele>
        <time>2021-08-05T08:38:14.414Z</time>
      </trkpt>
      <trkpt lat="47.01599" lon="8.65435">
        <ele>492</ele>
        <time>2021-08-05T08:38:15.415Z</time>
      </trkpt>
      <trkpt lat="47.01598" lon="8.65436">
        <ele>492</ele>
        <time>2021-08-05T08:38:16.415Z</time>
      </trkpt>
      <trkpt lat="47.01597" lon="8.65437">
        <ele>493</ele>
        <time>2021-08-05T08:38:17.415Z</time>
      </trkpt>
      <trkpt lat="47.01597" lon="8.65437">
        <ele>492</ele>
        <time>2021-08-05T08:38:18.414Z</time>
      </trkpt>
      <trkpt lat="47.01597" lon="8.65437">
        <ele>492</ele>
        <time>2021-08-05T08:38:19.415Z</time>
      </trkpt>
      <trkpt lat="47.01596" lon="8.65436">
        <ele>492</ele>
        <time>2021-08-05T08:38:20.415Z</time>
      </trkpt>
      <trkpt lat="47.01594" lon="8.65436">
        <ele>492</ele>
        <time>2021-08-05T08:38:21.415Z</time>
      </trkpt>
      <trkpt lat="47.01593" lon="8.65437">
        <ele>492</ele>
        <time>2021-08-05T08:38:22.415Z</time>
      </trkpt>
      <trkpt lat="47.01592" lon="8.65437">
        <ele>492</ele>
        <time>2021-08-05T08:38:23.415Z</time>
      </trkpt>
      <trkpt lat="47.0159" lon="8.65437">
        <ele>492</ele>
        <time>2021-08-05T08:38:24.414Z</time>
      </trkpt>
      <trkpt lat="47.01589" lon="8.65437">
        <ele>492</ele>
        <time>2021-08-05T08:38:25.415Z</time>
      </trkpt>
      <trkpt lat="47.01588" lon="8.65437">
        <ele>492</ele>
        <time>2021-08-05T08:38:26.414Z</time>
      </trkpt>
      <trkpt lat="47.01587" lon="8.65438">
        <ele>492</ele>
        <time>2021-08-05T08:38:27.414Z</time>
      </trkpt>
      <trkpt lat="47.01586" lon="8.65438">
        <ele>492</ele>
        <time>2021-08-05T08:38:28.415Z</time>
      </trkpt>
      <trkpt lat="47.01585" lon="8.65439">
        <ele>492</ele>
        <time>2021-08-05T08:38:29.415Z</time>
      </trkpt>
      <trkpt lat="47.01584" lon="8.6544">
        <ele>492</ele>
        <time>2021-08-05T08:38:30.415Z</time>
      </trkpt>
      <trkpt lat="47.01583" lon="8.65441">
        <ele>492</ele>
        <time>2021-08-05T08:38:31.414Z</time>
      </trkpt>
      <trkpt lat="47.01582" lon="8.65441">
        <ele>493</ele>
        <time>2021-08-05T08:38:32.415Z</time>
      </trkpt>
      <trkpt lat="47.01581" lon="8.65442">
        <ele>493</ele>
        <time>2021-08-05T08:38:33.415Z</time>
      </trkpt>
      <trkpt lat="47.0158" lon="8.65442">
        <ele>493</ele>
        <time>2021-08-05T08:38:34.414Z</time>
      </trkpt>
      <trkpt lat="47.01579" lon="8.65443">
        <ele>493</ele>
        <time>2021-08-05T08:38:35.415Z</time>
      </trkpt>
      <trkpt lat="47.01578" lon="8.65444">
        <ele>493</ele>
        <time>2021-08-05T08:38:36.415Z</time>
      </trkpt>
      <trkpt lat="47.01577" lon="8.65444">
        <ele>493</ele>
        <time>2021-08-05T08:38:37.414Z</time>
      </trkpt>
      <trkpt lat="47.01576" lon="8.65445">
        <ele>492</ele>
        <time>2021-08-05T08:38:38.415Z</time>
      </trkpt>
      <trkpt lat="47.01574" lon="8.65445">
        <ele>492</ele>
        <time>2021-08-05T08:38:39.414Z</time>
      </trkpt>
      <trkpt lat="47.01573" lon="8.65446">
        <ele>492</ele>
        <time>2021-08-05T08:38:40.414Z</time>
      </trkpt>
      <trkpt lat="47.01572" lon="8.65447">
        <ele>492</ele>
        <time>2021-08-05T08:38:41.415Z</time>
      </trkpt>
      <trkpt lat="47.01571" lon="8.65447">
        <ele>492</ele>
        <time>2021-08-05T08:38:42.414Z</time>
      </trkpt>
      <trkpt lat="47.0157" lon="8.65448">
        <ele>492</ele>
        <time>2021-08-05T08:38:43.414Z</time>
      </trkpt>
      <trkpt lat="47.01569" lon="8.65449">
        <ele>492</ele>
        <time>2021-08-05T08:38:44.414Z</time>
      </trkpt>
      <trkpt lat="47.01568" lon="8.6545">
        <ele>492</ele>
        <time>2021-08-05T08:38:45.414Z</time>
      </trkpt>
      <trkpt lat="47.01567" lon="8.65451">
        <ele>492</ele>
        <time>2021-08-05T08:38:46.415Z</time>
      </trkpt>
      <trkpt lat="47.01566" lon="8.65451">
        <ele>493</ele>
        <time>2021-08-05T08:38:47.415Z</time>
      </trkpt>
      <trkpt lat="47.01565" lon="8.65451">
        <ele>493</ele>
        <time>2021-08-05T08:38:48.415Z</time>
      </trkpt>
      <trkpt lat="47.01564" lon="8.65452">
        <ele>493</ele>
        <time>2021-08-05T08:38:49.415Z</time>
      </trkpt>
      <trkpt lat="47.01563" lon="8.65452">
        <ele>493</ele>
        <time>2021-08-05T08:38:50.414Z</time>
      </trkpt>
      <trkpt lat="47.01562" lon="8.65452">
        <ele>494</ele>
        <time>2021-08-05T08:38:51.415Z</time>
      </trkpt>
      <trkpt lat="47.01561" lon="8.65453">
        <ele>494</ele>
        <time>2021-08-05T08:38:52.415Z</time>
      </trkpt>
      <trkpt lat="47.0156" lon="8.65453">
        <ele>494</ele>
        <time>2021-08-05T08:38:53.414Z</time>
      </trkpt>
      <trkpt lat="47.01559" lon="8.65454">
        <ele>495</ele>
        <time>2021-08-05T08:38:54.414Z</time>
      </trkpt>
      <trkpt lat="47.01558" lon="8.65454">
        <ele>495</ele>
        <time>2021-08-05T08:38:55.414Z</time>
      </trkpt>
      <trkpt lat="47.01558" lon="8.65455">
        <ele>496</ele>
        <time>2021-08-05T08:38:56.414Z</time>
      </trkpt>
      <trkpt lat="47.01557" lon="8.65455">
        <ele>496</ele>
        <time>2021-08-05T08:38:57.415Z</time>
      </trkpt>
      <trkpt lat="47.01556" lon="8.65455">
        <ele>497</ele>
        <time>2021-08-05T08:38:58.414Z</time>
      </trkpt>
      <trkpt lat="47.01555" lon="8.65456">
        <ele>497</ele>
        <time>2021-08-05T08:38:59.414Z</time>
      </trkpt>
      <trkpt lat="47.01554" lon="8.65457">
        <ele>497</ele>
        <time>2021-08-05T08:39:00.415Z</time>
      </trkpt>
      <trkpt lat="47.01553" lon="8.65457">
        <ele>497</ele>
        <time>2021-08-05T08:39:01.414Z</time>
      </trkpt>
      <trkpt lat="47.01552" lon="8.65458">
        <ele>497</ele>
        <time>2021-08-05T08:39:02.415Z</time>
      </trkpt>
      <trkpt lat="47.01551" lon="8.65458">
        <ele>496</ele>
        <time>2021-08-05T08:39:03.415Z</time>
      </trkpt>
      <trkpt lat="47.0155" lon="8.65459">
        <ele>496</ele>
        <time>2021-08-05T08:39:04.415Z</time>
      </trkpt>
      <trkpt lat="47.01549" lon="8.65459">
        <ele>496</ele>
        <time>2021-08-05T08:39:05.415Z</time>
      </trkpt>
      <trkpt lat="47.01548" lon="8.6546">
        <ele>495</ele>
        <time>2021-08-05T08:39:06.415Z</time>
      </trkpt>
      <trkpt lat="47.01546" lon="8.6546">
        <ele>495</ele>
        <time>2021-08-05T08:39:07.415Z</time>
      </trkpt>
      <trkpt lat="47.01545" lon="8.65461">
        <ele>494</ele>
        <time>2021-08-05T08:39:08.415Z</time>
      </trkpt>
      <trkpt lat="47.01545" lon="8.65461">
        <ele>494</ele>
        <time>2021-08-05T08:39:09.415Z</time>
      </trkpt>
      <trkpt lat="47.01544" lon="8.65462">
        <ele>494</ele>
        <time>2021-08-05T08:39:10.415Z</time>
      </trkpt>
      <trkpt lat="47.01543" lon="8.65462">
        <ele>494</ele>
        <time>2021-08-05T08:39:11.414Z</time>
      </trkpt>
      <trkpt lat="47.01542" lon="8.65463">
        <ele>494</ele>
        <time>2021-08-05T08:39:12.415Z</time>
      </trkpt>
      <trkpt lat="47.01541" lon="8.65463">
        <ele>494</ele>
        <time>2021-08-05T08:39:13.415Z</time>
      </trkpt>
      <trkpt lat="47.0154" lon="8.65464">
        <ele>494</ele>
        <time>2021-08-05T08:39:14.414Z</time>
      </trkpt>
      <trkpt lat="47.0154" lon="8.65465">
        <ele>494</ele>
        <time>2021-08-05T08:39:15.415Z</time>
      </trkpt>
      <trkpt lat="47.01539" lon="8.65465">
        <ele>494</ele>
        <time>2021-08-05T08:39:16.415Z</time>
      </trkpt>
      <trkpt lat="47.01538" lon="8.65466">
        <ele>494</ele>
        <time>2021-08-05T08:39:17.414Z</time>
      </trkpt>
      <trkpt lat="47.01537" lon="8.65466">
        <ele>494</ele>
        <time>2021-08-05T08:39:18.414Z</time>
      </trkpt>
      <trkpt lat="47.01536" lon="8.65467">
        <ele>494</ele>
        <time>2021-08-05T08:39:19.415Z</time>
      </trkpt>
      <trkpt lat="47.01535" lon="8.65467">
        <ele>494</ele>
        <time>2021-08-05T08:39:20.415Z</time>
      </trkpt>
      <trkpt lat="47.01534" lon="8.65467">
        <ele>494</ele>
        <time>2021-08-05T08:39:21.415Z</time>
      </trkpt>
      <trkpt lat="47.01533" lon="8.65468">
        <ele>494</ele>
        <time>2021-08-05T08:39:22.415Z</time>
      </trkpt>
      <trkpt lat="47.01532" lon="8.65469">
        <ele>493</ele>
        <time>2021-08-05T08:39:23.414Z</time>
      </trkpt>
      <trkpt lat="47.01531" lon="8.65469">
        <ele>493</ele>
        <time>2021-08-05T08:39:24.415Z</time>
      </trkpt>
      <trkpt lat="47.01529" lon="8.65469">
        <ele>494</ele>
        <time>2021-08-05T08:39:25.415Z</time>
      </trkpt>
      <trkpt lat="47.01529" lon="8.6547">
        <ele>494</ele>
        <time>2021-08-05T08:39:26.414Z</time>
      </trkpt>
      <trkpt lat="47.01528" lon="8.65471">
        <ele>494</ele>
        <time>2021-08-05T08:39:27.414Z</time>
      </trkpt>
      <trkpt lat="47.01527" lon="8.65471">
        <ele>494</ele>
        <time>2021-08-05T08:39:28.414Z</time>
      </trkpt>
      <trkpt lat="47.01526" lon="8.65472">
        <ele>494</ele>
        <time>2021-08-05T08:39:29.414Z</time>
      </trkpt>
      <trkpt lat="47.01525" lon="8.65473">
        <ele>494</ele>
        <time>2021-08-05T08:39:30.415Z</time>
      </trkpt>
      <trkpt lat="47.01524" lon="8.65474">
        <ele>494</ele>
        <time>2021-08-05T08:39:31.414Z</time>
      </trkpt>
      <trkpt lat="47.01523" lon="8.65474">
        <ele>493</ele>
        <time>2021-08-05T08:39:32.415Z</time>
      </trkpt>
      <trkpt lat="47.01522" lon="8.65475">
        <ele>493</ele>
        <time>2021-08-05T08:39:33.415Z</time>
      </trkpt>
      <trkpt lat="47.01521" lon="8.65475">
        <ele>493</ele>
        <time>2021-08-05T08:39:34.415Z</time>
      </trkpt>
      <trkpt lat="47.0152" lon="8.65476">
        <ele>493</ele>
        <time>2021-08-05T08:39:35.414Z</time>
      </trkpt>
      <trkpt lat="47.01519" lon="8.65477">
        <ele>493</ele>
        <time>2021-08-05T08:39:36.415Z</time>
      </trkpt>
      <trkpt lat="47.01518" lon="8.65477">
        <ele>493</ele>
        <time>2021-08-05T08:39:37.415Z</time>
      </trkpt>
      <trkpt lat="47.01517" lon="8.65478">
        <ele>493</ele>
        <time>2021-08-05T08:39:38.415Z</time>
      </trkpt>
      <trkpt lat="47.01516" lon="8.65478">
        <ele>494</ele>
        <time>2021-08-05T08:39:39.415Z</time>
      </trkpt>
      <trkpt lat="47.01515" lon="8.65479">
        <ele>494</ele>
        <time>2021-08-05T08:39:40.415Z</time>
      </trkpt>
      <trkpt lat="47.01514" lon="8.65479">
        <ele>494</ele>
        <time>2021-08-05T08:39:41.415Z</time>
      </trkpt>
      <trkpt lat="47.01513" lon="8.6548">
        <ele>495</ele>
        <time>2021-08-05T08:39:42.415Z</time>
      </trkpt>
      <trkpt lat="47.01512" lon="8.6548">
        <ele>494</ele>
        <time>2021-08-05T08:39:43.414Z</time>
      </trkpt>
      <trkpt lat="47.01512" lon="8.65481">
        <ele>494</ele>
        <time>2021-08-05T08:39:44.415Z</time>
      </trkpt>
      <trkpt lat="47.01511" lon="8.65482">
        <ele>494</ele>
        <time>2021-08-05T08:39:45.414Z</time>
      </trkpt>
      <trkpt lat="47.0151" lon="8.65482">
        <ele>494</ele>
        <time>2021-08-05T08:39:46.415Z</time>
      </trkpt>
      <trkpt lat="47.01509" lon="8.65483">
        <ele>494</ele>
        <time>2021-08-05T08:39:47.415Z</time>
      </trkpt>
      <trkpt lat="47.01508" lon="8.65483">
        <ele>495</ele>
        <time>2021-08-05T08:39:48.415Z</time>
      </trkpt>
      <trkpt lat="47.01507" lon="8.65484">
        <ele>494</ele>
        <time>2021-08-05T08:39:49.414Z</time>
      </trkpt>
      <trkpt lat="47.01506" lon="8.65484">
        <ele>494</ele>
        <time>2021-08-05T08:39:50.415Z</time>
      </trkpt>
      <trkpt lat="47.01505" lon="8.65485">
        <ele>494</ele>
        <time>2021-08-05T08:39:51.414Z</time>
      </trkpt>
      <trkpt lat="47.01504" lon="8.65486">
        <ele>494</ele>
        <time>2021-08-05T08:39:52.414Z</time>
      </trkpt>
      <trkpt lat="47.01502" lon="8.65486">
        <ele>494</ele>
        <time>2021-08-05T08:39:53.415Z</time>
      </trkpt>
      <trkpt lat="47.01502" lon="8.65487">
        <ele>494</ele>
        <time>2021-08-05T08:39:54.415Z</time>
      </trkpt>
      <trkpt lat="47.01501" lon="8.65487">
        <ele>494</ele>
        <time>2021-08-05T08:39:55.415Z</time>
      </trkpt>
      <trkpt lat="47.015" lon="8.65487">
        <ele>494</ele>
        <time>2021-08-05T08:39:56.414Z</time>
      </trkpt>
      <trkpt lat="47.01499" lon="8.65488">
        <ele>495</ele>
        <time>2021-08-05T08:39:57.415Z</time>
      </trkpt>
      <trkpt lat="47.01498" lon="8.65489">
        <ele>494</ele>
        <time>2021-08-05T08:39:58.415Z</time>
      </trkpt>
      <trkpt lat="47.01497" lon="8.65489">
        <ele>495</ele>
        <time>2021-08-05T08:39:59.415Z</time>
      </trkpt>
      <trkpt lat="47.01497" lon="8.6549">
        <ele>495</ele>
        <time>2021-08-05T08:40:00.414Z</time>
      </trkpt>
      <trkpt lat="47.01495" lon="8.6549">
        <ele>495</ele>
        <time>2021-08-05T08:40:01.414Z</time>
      </trkpt>
      <trkpt lat="47.01495" lon="8.65491">
        <ele>495</ele>
        <time>2021-08-05T08:40:02.415Z</time>
      </trkpt>
      <trkpt lat="47.01494" lon="8.65492">
        <ele>495</ele>
        <time>2021-08-05T08:40:03.414Z</time>
      </trkpt>
      <trkpt lat="47.01493" lon="8.65492">
        <ele>495</ele>
        <time>2021-08-05T08:40:04.414Z</time>
      </trkpt>
      <trkpt lat="47.01491" lon="8.65492">
        <ele>495</ele>
        <time>2021-08-05T08:40:05.414Z</time>
      </trkpt>
      <trkpt lat="47.0149" lon="8.65492">
        <ele>495</ele>
        <time>2021-08-05T08:40:06.414Z</time>
      </trkpt>
      <trkpt lat="47.01489" lon="8.65493">
        <ele>495</ele>
        <time>2021-08-05T08:40:07.415Z</time>
      </trkpt>
      <trkpt lat="47.01488" lon="8.65493">
        <ele>495</ele>
        <time>2021-08-05T08:40:08.414Z</time>
      </trkpt>
      <trkpt lat="47.01488" lon="8.65493">
        <ele>495</ele>
        <time>2021-08-05T08:40:09.414Z</time>
      </trkpt>
      <trkpt lat="47.01486" lon="8.65494">
        <ele>495</ele>
        <time>2021-08-05T08:40:10.415Z</time>
      </trkpt>
      <trkpt lat="47.01485" lon="8.65494">
        <ele>495</ele>
        <time>2021-08-05T08:40:11.414Z</time>
      </trkpt>
      <trkpt lat="47.01484" lon="8.65494">
        <ele>495</ele>
        <time>2021-08-05T08:40:12.415Z</time>
      </trkpt>
      <trkpt lat="47.01483" lon="8.65494">
        <ele>495</ele>
        <time>2021-08-05T08:40:13.415Z</time>
      </trkpt>
      <trkpt lat="47.01482" lon="8.65494">
        <ele>495</ele>
        <time>2021-08-05T08:40:14.414Z</time>
      </trkpt>
      <trkpt lat="47.01481" lon="8.65495">
        <ele>495</ele>
        <time>2021-08-05T08:40:15.415Z</time>
      </trkpt>
      <trkpt lat="47.0148" lon="8.65495">
        <ele>496</ele>
        <time>2021-08-05T08:40:16.415Z</time>
      </trkpt>
      <trkpt lat="47.01479" lon="8.65496">
        <ele>496</ele>
        <time>2021-08-05T08:40:17.415Z</time>
      </trkpt>
      <trkpt lat="47.01478" lon="8.65497">
        <ele>495</ele>
        <time>2021-08-05T08:40:18.414Z</time>
      </trkpt>
      <trkpt lat="47.01477" lon="8.65497">
        <ele>495</ele>
        <time>2021-08-05T08:40:19.414Z</time>
      </trkpt>
      <trkpt lat="47.01477" lon="8.65498">
        <ele>495</ele>
        <time>2021-08-05T08:40:20.414Z</time>
      </trkpt>
      <trkpt lat="47.01476" lon="8.65498">
        <ele>496</ele>
        <time>2021-08-05T08:40:21.415Z</time>
      </trkpt>
      <trkpt lat="47.01475" lon="8.65498">
        <ele>496</ele>
        <time>2021-08-05T08:40:22.415Z</time>
      </trkpt>
      <trkpt lat="47.01474" lon="8.65499">
        <ele>497</ele>
        <time>2021-08-05T08:40:23.415Z</time>
      </trkpt>
      <trkpt lat="47.01473" lon="8.655">
        <ele>497</ele>
        <time>2021-08-05T08:40:24.414Z</time>
      </trkpt>
      <trkpt lat="47.01472" lon="8.655">
        <ele>498</ele>
        <time>2021-08-05T08:40:25.414Z</time>
      </trkpt>
      <trkpt lat="47.01471" lon="8.655">
        <ele>498</ele>
        <time>2021-08-05T08:40:26.415Z</time>
      </trkpt>
      <trkpt lat="47.0147" lon="8.65501">
        <ele>498</ele>
        <time>2021-08-05T08:40:27.415Z</time>
      </trkpt>
      <trkpt lat="47.01469" lon="8.65501">
        <ele>498</ele>
        <time>2021-08-05T08:40:28.415Z</time>
      </trkpt>
      <trkpt lat="47.01468" lon="8.65502">
        <ele>498</ele>
        <time>2021-08-05T08:40:29.414Z</time>
      </trkpt>
      <trkpt lat="47.01467" lon="8.65502">
        <ele>498</ele>
        <time>2021-08-05T08:40:30.415Z</time>
      </trkpt>
      <trkpt lat="47.01466" lon="8.65502">
        <ele>498</ele>
        <time>2021-08-05T08:40:31.414Z</time>
      </trkpt>
      <trkpt lat="47.01465" lon="8.65503">
        <ele>498</ele>
        <time>2021-08-05T08:40:32.415Z</time>
      </trkpt>
      <trkpt lat="47.01464" lon="8.65503">
        <ele>498</ele>
        <time>2021-08-05T08:40:33.415Z</time>
      </trkpt>
      <trkpt lat="47.01463" lon="8.65504">
        <ele>497</ele>
        <time>2021-08-05T08:40:34.415Z</time>
      </trkpt>
      <trkpt lat="47.01462" lon="8.65505">
        <ele>497</ele>
        <time>2021-08-05T08:40:35.414Z</time>
      </trkpt>
      <trkpt lat="47.01462" lon="8.65506">
        <ele>496</ele>
        <time>2021-08-05T08:40:36.415Z</time>
      </trkpt>
      <trkpt lat="47.01461" lon="8.65507">
        <ele>496</ele>
        <time>2021-08-05T08:40:37.415Z</time>
      </trkpt>
      <trkpt lat="47.01461" lon="8.65508">
        <ele>495</ele>
        <time>2021-08-05T08:40:38.414Z</time>
      </trkpt>
      <trkpt lat="47.01461" lon="8.65508">
        <ele>494</ele>
        <time>2021-08-05T08:40:39.415Z</time>
      </trkpt>
      <trkpt lat="47.01462" lon="8.65508">
        <ele>490</ele>
        <time>2021-08-05T08:40:40.416Z</time>
      </trkpt>
      <trkpt lat="47.01462" lon="8.65509">
        <ele>490</ele>
        <time>2021-08-05T08:40:41.416Z</time>
      </trkpt>
      <trkpt lat="47.01462" lon="8.65509">
        <ele>489</ele>
        <time>2021-08-05T08:40:42.416Z</time>
      </trkpt>
      <trkpt lat="47.01462" lon="8.65509">
        <ele>488</ele>
        <time>2021-08-05T08:40:43.416Z</time>
      </trkpt>
      <trkpt lat="47.01462" lon="8.65509">
        <ele>488</ele>
        <time>2021-08-05T08:40:44.415Z</time>
      </trkpt>
      <trkpt lat="47.01461" lon="8.65509">
        <ele>487</ele>
        <time>2021-08-05T08:40:45.416Z</time>
      </trkpt>
      <trkpt lat="47.0146" lon="8.65509">
        <ele>487</ele>
        <time>2021-08-05T08:40:46.416Z</time>
      </trkpt>
      <trkpt lat="47.01459" lon="8.6551">
        <ele>487</ele>
        <time>2021-08-05T08:40:47.416Z</time>
      </trkpt>
      <trkpt lat="47.01458" lon="8.65511">
        <ele>487</ele>
        <time>2021-08-05T08:40:48.416Z</time>
      </trkpt>
      <trkpt lat="47.01457" lon="8.65511">
        <ele>487</ele>
        <time>2021-08-05T08:40:49.416Z</time>
      </trkpt>
      <trkpt lat="47.01456" lon="8.65512">
        <ele>488</ele>
        <time>2021-08-05T08:40:50.416Z</time>
      </trkpt>
      <trkpt lat="47.01455" lon="8.65513">
        <ele>488</ele>
        <time>2021-08-05T08:40:51.416Z</time>
      </trkpt>
      <trkpt lat="47.01455" lon="8.65515">
        <ele>488</ele>
        <time>2021-08-05T08:40:52.416Z</time>
      </trkpt>
      <trkpt lat="47.01454" lon="8.65515">
        <ele>489</ele>
        <time>2021-08-05T08:40:53.416Z</time>
      </trkpt>
      <trkpt lat="47.01452" lon="8.65514">
        <ele>489</ele>
        <time>2021-08-05T08:40:54.416Z</time>
      </trkpt>
      <trkpt lat="47.01452" lon="8.65514">
        <ele>489</ele>
        <time>2021-08-05T08:40:55.416Z</time>
      </trkpt>
      <trkpt lat="47.01452" lon="8.65514">
        <ele>490</ele>
        <time>2021-08-05T08:40:56.416Z</time>
      </trkpt>
      <trkpt lat="47.01452" lon="8.65514">
        <ele>490</ele>
        <time>2021-08-05T08:40:57.415Z</time>
      </trkpt>
      <trkpt lat="47.01452" lon="8.65514">
        <ele>490</ele>
        <time>2021-08-05T08:40:58.416Z</time>
      </trkpt>
      <trkpt lat="47.01451" lon="8.65514">
        <ele>490</ele>
        <time>2021-08-05T08:40:59.416Z</time>
      </trkpt>
      <trkpt lat="47.01452" lon="8.65515">
        <ele>490</ele>
        <time>2021-08-05T08:41:00.416Z</time>
      </trkpt>
      <trkpt lat="47.01451" lon="8.65515">
        <ele>490</ele>
        <time>2021-08-05T08:41:01.416Z</time>
      </trkpt>
      <trkpt lat="47.0145" lon="8.65514">
        <ele>490</ele>
        <time>2021-08-05T08:41:02.416Z</time>
      </trkpt>
      <trkpt lat="47.01449" lon="8.65513">
        <ele>490</ele>
        <time>2021-08-05T08:41:03.415Z</time>
      </trkpt>
      <trkpt lat="47.01449" lon="8.65513">
        <ele>490</ele>
        <time>2021-08-05T08:41:04.416Z</time>
      </trkpt>
      <trkpt lat="47.01448" lon="8.65513">
        <ele>490</ele>
        <time>2021-08-05T08:41:05.416Z</time>
      </trkpt>
      <trkpt lat="47.01447" lon="8.65514">
        <ele>490</ele>
        <time>2021-08-05T08:41:06.415Z</time>
      </trkpt>
      <trkpt lat="47.01446" lon="8.65515">
        <ele>490</ele>
        <time>2021-08-05T08:41:07.415Z</time>
      </trkpt>
      <trkpt lat="47.01446" lon="8.65516">
        <ele>491</ele>
        <time>2021-08-05T08:41:08.416Z</time>
      </trkpt>
      <trkpt lat="47.01446" lon="8.65516">
        <ele>491</ele>
        <time>2021-08-05T08:41:09.416Z</time>
      </trkpt>
      <trkpt lat="47.01445" lon="8.65517">
        <ele>492</ele>
        <time>2021-08-05T08:41:10.415Z</time>
      </trkpt>
      <trkpt lat="47.01444" lon="8.65517">
        <ele>492</ele>
        <time>2021-08-05T08:41:11.416Z</time>
      </trkpt>
      <trkpt lat="47.01443" lon="8.65517">
        <ele>493</ele>
        <time>2021-08-05T08:41:12.416Z</time>
      </trkpt>
      <trkpt lat="47.01442" lon="8.65517">
        <ele>493</ele>
        <time>2021-08-05T08:41:13.416Z</time>
      </trkpt>
      <trkpt lat="47.01441" lon="8.65517">
        <ele>494</ele>
        <time>2021-08-05T08:41:14.416Z</time>
      </trkpt>
      <trkpt lat="47.0144" lon="8.65518">
        <ele>494</ele>
        <time>2021-08-05T08:41:15.416Z</time>
      </trkpt>
      <trkpt lat="47.01439" lon="8.65518">
        <ele>495</ele>
        <time>2021-08-05T08:41:16.415Z</time>
      </trkpt>
      <trkpt lat="47.01438" lon="8.65519">
        <ele>495</ele>
        <time>2021-08-05T08:41:17.416Z</time>
      </trkpt>
      <trkpt lat="47.01437" lon="8.65519">
        <ele>496</ele>
        <time>2021-08-05T08:41:18.415Z</time>
      </trkpt>
      <trkpt lat="47.01436" lon="8.6552">
        <ele>496</ele>
        <time>2021-08-05T08:41:19.416Z</time>
      </trkpt>
      <trkpt lat="47.01436" lon="8.65521">
        <ele>496</ele>
        <time>2021-08-05T08:41:20.416Z</time>
      </trkpt>
      <trkpt lat="47.01435" lon="8.65522">
        <ele>497</ele>
        <time>2021-08-05T08:41:21.416Z</time>
      </trkpt>
      <trkpt lat="47.01434" lon="8.65522">
        <ele>497</ele>
        <time>2021-08-05T08:41:22.416Z</time>
      </trkpt>
      <trkpt lat="47.01433" lon="8.65523">
        <ele>497</ele>
        <time>2021-08-05T08:41:23.416Z</time>
      </trkpt>
      <trkpt lat="47.01432" lon="8.65523">
        <ele>497</ele>
        <time>2021-08-05T08:41:24.416Z</time>
      </trkpt>
      <trkpt lat="47.01431" lon="8.65524">
        <ele>498</ele>
        <time>2021-08-05T08:41:25.415Z</time>
      </trkpt>
      <trkpt lat="47.0143" lon="8.65525">
        <ele>498</ele>
        <time>2021-08-05T08:41:26.415Z</time>
      </trkpt>
      <trkpt lat="47.01429" lon="8.65525">
        <ele>498</ele>
        <time>2021-08-05T08:41:27.415Z</time>
      </trkpt>
      <trkpt lat="47.01428" lon="8.65526">
        <ele>498</ele>
        <time>2021-08-05T08:41:28.415Z</time>
      </trkpt>
      <trkpt lat="47.01427" lon="8.65526">
        <ele>498</ele>
        <time>2021-08-05T08:41:29.416Z</time>
      </trkpt>
      <trkpt lat="47.01426" lon="8.65527">
        <ele>498</ele>
        <time>2021-08-05T08:41:30.415Z</time>
      </trkpt>
      <trkpt lat="47.01425" lon="8.65528">
        <ele>498</ele>
        <time>2021-08-05T08:41:31.416Z</time>
      </trkpt>
      <trkpt lat="47.01424" lon="8.65529">
        <ele>498</ele>
        <time>2021-08-05T08:41:32.415Z</time>
      </trkpt>
      <trkpt lat="47.01423" lon="8.6553">
        <ele>498</ele>
        <time>2021-08-05T08:41:33.416Z</time>
      </trkpt>
      <trkpt lat="47.01423" lon="8.65531">
        <ele>498</ele>
        <time>2021-08-05T08:41:34.416Z</time>
      </trkpt>
      <trkpt lat="47.01422" lon="8.65532">
        <ele>498</ele>
        <time>2021-08-05T08:41:35.416Z</time>
      </trkpt>
      <trkpt lat="47.0142" lon="8.65534">
        <ele>498</ele>
        <time>2021-08-05T08:41:36.416Z</time>
      </trkpt>
      <trkpt lat="47.01419" lon="8.65535">
        <ele>498</ele>
        <time>2021-08-05T08:41:37.416Z</time>
      </trkpt>
      <trkpt lat="47.01419" lon="8.65536">
        <ele>498</ele>
        <time>2021-08-05T08:41:38.416Z</time>
      </trkpt>
      <trkpt lat="47.01418" lon="8.65538">
        <ele>497</ele>
        <time>2021-08-05T08:41:39.416Z</time>
      </trkpt>
      <trkpt lat="47.01417" lon="8.65539">
        <ele>497</ele>
        <time>2021-08-05T08:41:40.415Z</time>
      </trkpt>
      <trkpt lat="47.01416" lon="8.6554">
        <ele>497</ele>
        <time>2021-08-05T08:41:41.416Z</time>
      </trkpt>
      <trkpt lat="47.01416" lon="8.65541">
        <ele>496</ele>
        <time>2021-08-05T08:41:42.416Z</time>
      </trkpt>
      <trkpt lat="47.01415" lon="8.65542">
        <ele>496</ele>
        <time>2021-08-05T08:41:43.415Z</time>
      </trkpt>
      <trkpt lat="47.01414" lon="8.65543">
        <ele>496</ele>
        <time>2021-08-05T08:41:44.415Z</time>
      </trkpt>
      <trkpt lat="47.01414" lon="8.65544">
        <ele>496</ele>
        <time>2021-08-05T08:41:45.416Z</time>
      </trkpt>
      <trkpt lat="47.01413" lon="8.65545">
        <ele>496</ele>
        <time>2021-08-05T08:41:46.416Z</time>
      </trkpt>
      <trkpt lat="47.01412" lon="8.65546">
        <ele>496</ele>
        <time>2021-08-05T08:41:47.416Z</time>
      </trkpt>
      <trkpt lat="47.01412" lon="8.65547">
        <ele>496</ele>
        <time>2021-08-05T08:41:48.416Z</time>
      </trkpt>
      <trkpt lat="47.01411" lon="8.65548">
        <ele>496</ele>
        <time>2021-08-05T08:41:49.416Z</time>
      </trkpt>
      <trkpt lat="47.0141" lon="8.65549">
        <ele>495</ele>
        <time>2021-08-05T08:41:50.415Z</time>
      </trkpt>
      <trkpt lat="47.01409" lon="8.6555">
        <ele>495</ele>
        <time>2021-08-05T08:41:51.416Z</time>
      </trkpt>
      <trkpt lat="47.01409" lon="8.65551">
        <ele>495</ele>
        <time>2021-08-05T08:41:52.416Z</time>
      </trkpt>
      <trkpt lat="47.01408" lon="8.65552">
        <ele>495</ele>
        <time>2021-08-05T08:41:53.416Z</time>
      </trkpt>
      <trkpt lat="47.01408" lon="8.65553">
        <ele>495</ele>
        <time>2021-08-05T08:41:54.416Z</time>
      </trkpt>
      <trkpt lat="47.01408" lon="8.65553">
        <ele>495</ele>
        <time>2021-08-05T08:41:55.416Z</time>
      </trkpt>
      <trkpt lat="47.01408" lon="8.65554">
        <ele>495</ele>
        <time>2021-08-05T08:41:56.416Z</time>
      </trkpt>
      <trkpt lat="47.01408" lon="8.65556">
        <ele>495</ele>
        <time>2021-08-05T08:41:57.415Z</time>
      </trkpt>
      <trkpt lat="47.01408" lon="8.65557">
        <ele>495</ele>
        <time>2021-08-05T08:41:58.416Z</time>
      </trkpt>
      <trkpt lat="47.01407" lon="8.65558">
        <ele>495</ele>
        <time>2021-08-05T08:41:59.416Z</time>
      </trkpt>
      <trkpt lat="47.01406" lon="8.65558">
        <ele>494</ele>
        <time>2021-08-05T08:42:00.416Z</time>
      </trkpt>
      <trkpt lat="47.01405" lon="8.65559">
        <ele>494</ele>
        <time>2021-08-05T08:42:01.415Z</time>
      </trkpt>
      <trkpt lat="47.01405" lon="8.65559">
        <ele>494</ele>
        <time>2021-08-05T08:42:02.415Z</time>
      </trkpt>
      <trkpt lat="47.01404" lon="8.65559">
        <ele>493</ele>
        <time>2021-08-05T08:42:03.415Z</time>
      </trkpt>
      <trkpt lat="47.01403" lon="8.6556">
        <ele>493</ele>
        <time>2021-08-05T08:42:04.416Z</time>
      </trkpt>
      <trkpt lat="47.01403" lon="8.6556">
        <ele>492</ele>
        <time>2021-08-05T08:42:05.416Z</time>
      </trkpt>
      <trkpt lat="47.01402" lon="8.6556">
        <ele>492</ele>
        <time>2021-08-05T08:42:06.416Z</time>
      </trkpt>
      <trkpt lat="47.01402" lon="8.65561">
        <ele>491</ele>
        <time>2021-08-05T08:42:07.416Z</time>
      </trkpt>
      <trkpt lat="47.01401" lon="8.65561">
        <ele>491</ele>
        <time>2021-08-05T08:42:08.416Z</time>
      </trkpt>
      <trkpt lat="47.014" lon="8.65561">
        <ele>490</ele>
        <time>2021-08-05T08:42:09.416Z</time>
      </trkpt>
      <trkpt lat="47.01399" lon="8.65561">
        <ele>490</ele>
        <time>2021-08-05T08:42:10.415Z</time>
      </trkpt>
      <trkpt lat="47.01399" lon="8.65561">
        <ele>489</ele>
        <time>2021-08-05T08:42:11.416Z</time>
      </trkpt>
      <trkpt lat="47.01398" lon="8.65561">
        <ele>489</ele>
        <time>2021-08-05T08:42:12.415Z</time>
      </trkpt>
      <trkpt lat="47.01397" lon="8.65561">
        <ele>489</ele>
        <time>2021-08-05T08:42:13.416Z</time>
      </trkpt>
      <trkpt lat="47.01396" lon="8.65562">
        <ele>488</ele>
        <time>2021-08-05T08:42:14.415Z</time>
      </trkpt>
      <trkpt lat="47.01396" lon="8.65562">
        <ele>488</ele>
        <time>2021-08-05T08:42:15.416Z</time>
      </trkpt>
      <trkpt lat="47.01395" lon="8.65562">
        <ele>488</ele>
        <time>2021-08-05T08:42:16.415Z</time>
      </trkpt>
      <trkpt lat="47.01394" lon="8.65562">
        <ele>488</ele>
        <time>2021-08-05T08:42:17.416Z</time>
      </trkpt>
      <trkpt lat="47.01393" lon="8.65562">
        <ele>488</ele>
        <time>2021-08-05T08:42:18.416Z</time>
      </trkpt>
      <trkpt lat="47.01393" lon="8.65562">
        <ele>488</ele>
        <time>2021-08-05T08:42:19.416Z</time>
      </trkpt>
      <trkpt lat="47.01392" lon="8.65562">
        <ele>488</ele>
        <time>2021-08-05T08:42:20.416Z</time>
      </trkpt>
      <trkpt lat="47.01392" lon="8.65563">
        <ele>488</ele>
        <time>2021-08-05T08:42:21.415Z</time>
      </trkpt>
      <trkpt lat="47.01391" lon="8.65563">
        <ele>488</ele>
        <time>2021-08-05T08:42:22.416Z</time>
      </trkpt>
      <trkpt lat="47.0139" lon="8.65564">
        <ele>488</ele>
        <time>2021-08-05T08:42:23.415Z</time>
      </trkpt>
      <trkpt lat="47.0139" lon="8.65564">
        <ele>489</ele>
        <time>2021-08-05T08:42:24.416Z</time>
      </trkpt>
      <trkpt lat="47.01389" lon="8.65563">
        <ele>489</ele>
        <time>2021-08-05T08:42:25.415Z</time>
      </trkpt>
      <trkpt lat="47.01388" lon="8.65563">
        <ele>489</ele>
        <time>2021-08-05T08:42:26.415Z</time>
      </trkpt>
      <trkpt lat="47.01387" lon="8.65563">
        <ele>489</ele>
        <time>2021-08-05T08:42:27.416Z</time>
      </trkpt>
      <trkpt lat="47.01386" lon="8.65563">
        <ele>489</ele>
        <time>2021-08-05T08:42:28.415Z</time>
      </trkpt>
      <trkpt lat="47.01386" lon="8.65563">
        <ele>490</ele>
        <time>2021-08-05T08:42:29.416Z</time>
      </trkpt>
      <trkpt lat="47.01385" lon="8.65563">
        <ele>490</ele>
        <time>2021-08-05T08:42:30.416Z</time>
      </trkpt>
      <trkpt lat="47.01383" lon="8.65563">
        <ele>491</ele>
        <time>2021-08-05T08:42:31.415Z</time>
      </trkpt>
      <trkpt lat="47.01382" lon="8.65563">
        <ele>492</ele>
        <time>2021-08-05T08:42:32.416Z</time>
      </trkpt>
      <trkpt lat="47.01381" lon="8.65564">
        <ele>493</ele>
        <time>2021-08-05T08:42:33.416Z</time>
      </trkpt>
      <trkpt lat="47.01381" lon="8.65564">
        <ele>494</ele>
        <time>2021-08-05T08:42:34.416Z</time>
      </trkpt>
      <trkpt lat="47.0138" lon="8.65564">
        <ele>494</ele>
        <time>2021-08-05T08:42:35.416Z</time>
      </trkpt>
      <trkpt lat="47.01379" lon="8.65565">
        <ele>494</ele>
        <time>2021-08-05T08:42:36.415Z</time>
      </trkpt>
      <trkpt lat="47.01378" lon="8.65565">
        <ele>495</ele>
        <time>2021-08-05T08:42:37.416Z</time>
      </trkpt>
      <trkpt lat="47.01377" lon="8.65565">
        <ele>495</ele>
        <time>2021-08-05T08:42:38.415Z</time>
      </trkpt>
      <trkpt lat="47.01376" lon="8.65566">
        <ele>496</ele>
        <time>2021-08-05T08:42:39.415Z</time>
      </trkpt>
      <trkpt lat="47.01376" lon="8.65566">
        <ele>496</ele>
        <time>2021-08-05T08:42:40.416Z</time>
      </trkpt>
      <trkpt lat="47.01364" lon="8.65575">
        <ele>505</ele>
        <time>2021-08-05T08:42:41.415Z</time>
      </trkpt>
      <trkpt lat="47.01364" lon="8.65575">
        <ele>505</ele>
        <time>2021-08-05T08:42:42.416Z</time>
      </trkpt>
      <trkpt lat="47.01363" lon="8.65575">
        <ele>505</ele>
        <time>2021-08-05T08:42:43.415Z</time>
      </trkpt>
      <trkpt lat="47.01363" lon="8.65576">
        <ele>505</ele>
        <time>2021-08-05T08:42:44.416Z</time>
      </trkpt>
      <trkpt lat="47.01363" lon="8.65576">
        <ele>506</ele>
        <time>2021-08-05T08:42:45.416Z</time>
      </trkpt>
      <trkpt lat="47.01362" lon="8.65577">
        <ele>506</ele>
        <time>2021-08-05T08:42:46.416Z</time>
      </trkpt>
      <trkpt lat="47.01364" lon="8.65578">
        <ele>512</ele>
        <time>2021-08-05T08:42:47.416Z</time>
      </trkpt>
      <trkpt lat="47.01363" lon="8.65578">
        <ele>512</ele>
        <time>2021-08-05T08:42:48.416Z</time>
      </trkpt>
      <trkpt lat="47.01363" lon="8.65578">
        <ele>511</ele>
        <time>2021-08-05T08:42:49.416Z</time>
      </trkpt>
      <trkpt lat="47.01362" lon="8.65578">
        <ele>510</ele>
        <time>2021-08-05T08:42:50.417Z</time>
      </trkpt>
      <trkpt lat="47.01361" lon="8.65578">
        <ele>509</ele>
        <time>2021-08-05T08:42:51.417Z</time>
      </trkpt>
      <trkpt lat="47.0136" lon="8.65578">
        <ele>508</ele>
        <time>2021-08-05T08:42:52.416Z</time>
      </trkpt>
      <trkpt lat="47.0136" lon="8.65578">
        <ele>508</ele>
        <time>2021-08-05T08:42:53.416Z</time>
      </trkpt>
      <trkpt lat="47.01359" lon="8.65578">
        <ele>508</ele>
        <time>2021-08-05T08:42:54.417Z</time>
      </trkpt>
      <trkpt lat="47.01358" lon="8.65578">
        <ele>507</ele>
        <time>2021-08-05T08:42:55.416Z</time>
      </trkpt>
      <trkpt lat="47.01357" lon="8.65579">
        <ele>506</ele>
        <time>2021-08-05T08:42:56.417Z</time>
      </trkpt>
      <trkpt lat="47.01357" lon="8.65579">
        <ele>506</ele>
        <time>2021-08-05T08:42:57.417Z</time>
      </trkpt>
      <trkpt lat="47.01357" lon="8.65579">
        <ele>505</ele>
        <time>2021-08-05T08:42:58.417Z</time>
      </trkpt>
      <trkpt lat="47.01357" lon="8.65578">
        <ele>505</ele>
        <time>2021-08-05T08:42:59.416Z</time>
      </trkpt>
      <trkpt lat="47.01358" lon="8.6558">
        <ele>503</ele>
        <time>2021-08-05T08:43:00.416Z</time>
      </trkpt>
      <trkpt lat="47.01358" lon="8.6558">
        <ele>503</ele>
        <time>2021-08-05T08:43:01.417Z</time>
      </trkpt>
      <trkpt lat="47.01356" lon="8.6558">
        <ele>502</ele>
        <time>2021-08-05T08:43:02.417Z</time>
      </trkpt>
      <trkpt lat="47.01354" lon="8.65579">
        <ele>502</ele>
        <time>2021-08-05T08:43:03.417Z</time>
      </trkpt>
      <trkpt lat="47.01352" lon="8.65578">
        <ele>502</ele>
        <time>2021-08-05T08:43:04.416Z</time>
      </trkpt>
      <trkpt lat="47.01351" lon="8.65578">
        <ele>502</ele>
        <time>2021-08-05T08:43:05.417Z</time>
      </trkpt>
      <trkpt lat="47.0135" lon="8.65578">
        <ele>502</ele>
        <time>2021-08-05T08:43:06.417Z</time>
      </trkpt>
      <trkpt lat="47.01349" lon="8.65578">
        <ele>502</ele>
        <time>2021-08-05T08:43:07.416Z</time>
      </trkpt>
      <trkpt lat="47.01348" lon="8.65578">
        <ele>502</ele>
        <time>2021-08-05T08:43:08.417Z</time>
      </trkpt>
      <trkpt lat="47.01348" lon="8.65579">
        <ele>502</ele>
        <time>2021-08-05T08:43:09.416Z</time>
      </trkpt>
      <trkpt lat="47.01347" lon="8.6558">
        <ele>502</ele>
        <time>2021-08-05T08:43:10.417Z</time>
      </trkpt>
      <trkpt lat="47.01347" lon="8.6558">
        <ele>502</ele>
        <time>2021-08-05T08:43:11.417Z</time>
      </trkpt>
      <trkpt lat="47.01346" lon="8.6558">
        <ele>502</ele>
        <time>2021-08-05T08:43:12.417Z</time>
      </trkpt>
      <trkpt lat="47.01345" lon="8.65581">
        <ele>501</ele>
        <time>2021-08-05T08:43:13.416Z</time>
      </trkpt>
      <trkpt lat="47.01345" lon="8.65581">
        <ele>501</ele>
        <time>2021-08-05T08:43:14.416Z</time>
      </trkpt>
      <trkpt lat="47.01345" lon="8.65582">
        <ele>500</ele>
        <time>2021-08-05T08:43:15.417Z</time>
      </trkpt>
      <trkpt lat="47.01345" lon="8.65584">
        <ele>499</ele>
        <time>2021-08-05T08:43:16.417Z</time>
      </trkpt>
      <trkpt lat="47.01345" lon="8.65584">
        <ele>498</ele>
        <time>2021-08-05T08:43:17.417Z</time>
      </trkpt>
      <trkpt lat="47.01344" lon="8.65584">
        <ele>498</ele>
        <time>2021-08-05T08:43:18.416Z</time>
      </trkpt>
      <trkpt lat="47.01343" lon="8.65585">
        <ele>497</ele>
        <time>2021-08-05T08:43:19.417Z</time>
      </trkpt>
      <trkpt lat="47.01343" lon="8.65586">
        <ele>497</ele>
        <time>2021-08-05T08:43:20.416Z</time>
      </trkpt>
      <trkpt lat="47.01342" lon="8.65586">
        <ele>496</ele>
        <time>2021-08-05T08:43:21.416Z</time>
      </trkpt>
      <trkpt lat="47.01341" lon="8.65586">
        <ele>496</ele>
        <time>2021-08-05T08:43:22.417Z</time>
      </trkpt>
      <trkpt lat="47.0134" lon="8.65587">
        <ele>496</ele>
        <time>2021-08-05T08:43:23.417Z</time>
      </trkpt>
      <trkpt lat="47.01339" lon="8.65587">
        <ele>496</ele>
        <time>2021-08-05T08:43:24.417Z</time>
      </trkpt>
      <trkpt lat="47.01338" lon="8.65587">
        <ele>496</ele>
        <time>2021-08-05T08:43:25.417Z</time>
      </trkpt>
      <trkpt lat="47.01338" lon="8.65587">
        <ele>496</ele>
        <time>2021-08-05T08:43:26.417Z</time>
      </trkpt>
      <trkpt lat="47.01337" lon="8.65587">
        <ele>496</ele>
        <time>2021-08-05T08:43:27.417Z</time>
      </trkpt>
      <trkpt lat="47.01337" lon="8.65588">
        <ele>497</ele>
        <time>2021-08-05T08:43:28.416Z</time>
      </trkpt>
      <trkpt lat="47.01336" lon="8.65589">
        <ele>497</ele>
        <time>2021-08-05T08:43:29.417Z</time>
      </trkpt>
      <trkpt lat="47.01335" lon="8.6559">
        <ele>497</ele>
        <time>2021-08-05T08:43:30.417Z</time>
      </trkpt>
      <trkpt lat="47.01335" lon="8.6559">
        <ele>497</ele>
        <time>2021-08-05T08:43:31.416Z</time>
      </trkpt>
      <trkpt lat="47.01333" lon="8.65591">
        <ele>498</ele>
        <time>2021-08-05T08:43:32.417Z</time>
      </trkpt>
      <trkpt lat="47.01333" lon="8.65591">
        <ele>498</ele>
        <time>2021-08-05T08:43:33.417Z</time>
      </trkpt>
      <trkpt lat="47.01331" lon="8.65592">
        <ele>497</ele>
        <time>2021-08-05T08:43:34.416Z</time>
      </trkpt>
      <trkpt lat="47.01331" lon="8.65593">
        <ele>497</ele>
        <time>2021-08-05T08:43:35.417Z</time>
      </trkpt>
      <trkpt lat="47.0133" lon="8.65593">
        <ele>497</ele>
        <time>2021-08-05T08:43:36.417Z</time>
      </trkpt>
      <trkpt lat="47.01329" lon="8.65594">
        <ele>497</ele>
        <time>2021-08-05T08:43:37.416Z</time>
      </trkpt>
      <trkpt lat="47.01328" lon="8.65595">
        <ele>497</ele>
        <time>2021-08-05T08:43:38.416Z</time>
      </trkpt>
      <trkpt lat="47.01327" lon="8.65595">
        <ele>497</ele>
        <time>2021-08-05T08:43:39.416Z</time>
      </trkpt>
      <trkpt lat="47.01326" lon="8.65595">
        <ele>497</ele>
        <time>2021-08-05T08:43:40.417Z</time>
      </trkpt>
      <trkpt lat="47.01325" lon="8.65595">
        <ele>497</ele>
        <time>2021-08-05T08:43:41.416Z</time>
      </trkpt>
      <trkpt lat="47.01325" lon="8.65596">
        <ele>497</ele>
        <time>2021-08-05T08:43:42.417Z</time>
      </trkpt>
      <trkpt lat="47.01324" lon="8.65596">
        <ele>497</ele>
        <time>2021-08-05T08:43:43.417Z</time>
      </trkpt>
      <trkpt lat="47.01324" lon="8.65596">
        <ele>497</ele>
        <time>2021-08-05T08:43:44.417Z</time>
      </trkpt>
      <trkpt lat="47.01323" lon="8.65596">
        <ele>497</ele>
        <time>2021-08-05T08:43:45.416Z</time>
      </trkpt>
      <trkpt lat="47.01319" lon="8.65601">
        <ele>507</ele>
        <time>2021-08-05T08:43:46.417Z</time>
      </trkpt>
      <trkpt lat="47.01319" lon="8.65602">
        <ele>509</ele>
        <time>2021-08-05T08:43:47.417Z</time>
      </trkpt>
      <trkpt lat="47.01319" lon="8.65602">
        <ele>510</ele>
        <time>2021-08-05T08:43:48.416Z</time>
      </trkpt>
      <trkpt lat="47.01319" lon="8.65603">
        <ele>511</ele>
        <time>2021-08-05T08:43:49.416Z</time>
      </trkpt>
      <trkpt lat="47.01317" lon="8.65601">
        <ele>517</ele>
        <time>2021-08-05T08:43:50.417Z</time>
      </trkpt>
      <trkpt lat="47.01317" lon="8.65601">
        <ele>518</ele>
        <time>2021-08-05T08:43:51.416Z</time>
      </trkpt>
      <trkpt lat="47.01317" lon="8.656">
        <ele>519</ele>
        <time>2021-08-05T08:43:52.416Z</time>
      </trkpt>
      <trkpt lat="47.01317" lon="8.656">
        <ele>520</ele>
        <time>2021-08-05T08:43:53.417Z</time>
      </trkpt>
      <trkpt lat="47.01317" lon="8.65599">
        <ele>521</ele>
        <time>2021-08-05T08:43:54.417Z</time>
      </trkpt>
      <trkpt lat="47.01317" lon="8.656">
        <ele>522</ele>
        <time>2021-08-05T08:43:55.416Z</time>
      </trkpt>
      <trkpt lat="47.01317" lon="8.65601">
        <ele>522</ele>
        <time>2021-08-05T08:43:56.416Z</time>
      </trkpt>
      <trkpt lat="47.01318" lon="8.65602">
        <ele>523</ele>
        <time>2021-08-05T08:43:57.417Z</time>
      </trkpt>
      <trkpt lat="47.01318" lon="8.65602">
        <ele>523</ele>
        <time>2021-08-05T08:43:58.417Z</time>
      </trkpt>
      <trkpt lat="47.01317" lon="8.65603">
        <ele>523</ele>
        <time>2021-08-05T08:43:59.417Z</time>
      </trkpt>
      <trkpt lat="47.01315" lon="8.65602">
        <ele>521</ele>
        <time>2021-08-05T08:44:00.417Z</time>
      </trkpt>
      <trkpt lat="47.01315" lon="8.65602">
        <ele>520</ele>
        <time>2021-08-05T08:44:01.418Z</time>
      </trkpt>
      <trkpt lat="47.01314" lon="8.65602">
        <ele>512</ele>
        <time>2021-08-05T08:44:02.418Z</time>
      </trkpt>
      <trkpt lat="47.01314" lon="8.65602">
        <ele>511</ele>
        <time>2021-08-05T08:44:03.417Z</time>
      </trkpt>
      <trkpt lat="47.01313" lon="8.65603">
        <ele>510</ele>
        <time>2021-08-05T08:44:04.417Z</time>
      </trkpt>
      <trkpt lat="47.01312" lon="8.65603">
        <ele>509</ele>
        <time>2021-08-05T08:44:05.417Z</time>
      </trkpt>
      <trkpt lat="47.01312" lon="8.65603">
        <ele>509</ele>
        <time>2021-08-05T08:44:06.417Z</time>
      </trkpt>
      <trkpt lat="47.01311" lon="8.65603">
        <ele>508</ele>
        <time>2021-08-05T08:44:07.417Z</time>
      </trkpt>
      <trkpt lat="47.0131" lon="8.65603">
        <ele>507</ele>
        <time>2021-08-05T08:44:08.417Z</time>
      </trkpt>
      <trkpt lat="47.01309" lon="8.65603">
        <ele>506</ele>
        <time>2021-08-05T08:44:09.418Z</time>
      </trkpt>
      <trkpt lat="47.01309" lon="8.65603">
        <ele>506</ele>
        <time>2021-08-05T08:44:10.418Z</time>
      </trkpt>
      <trkpt lat="47.01308" lon="8.65603">
        <ele>505</ele>
        <time>2021-08-05T08:44:11.418Z</time>
      </trkpt>
      <trkpt lat="47.01308" lon="8.65603">
        <ele>505</ele>
        <time>2021-08-05T08:44:12.418Z</time>
      </trkpt>
      <trkpt lat="47.01307" lon="8.65602">
        <ele>504</ele>
        <time>2021-08-05T08:44:13.418Z</time>
      </trkpt>
      <trkpt lat="47.01307" lon="8.65602">
        <ele>504</ele>
        <time>2021-08-05T08:44:14.417Z</time>
      </trkpt>
      <trkpt lat="47.01307" lon="8.65604">
        <ele>497</ele>
        <time>2021-08-05T08:44:15.417Z</time>
      </trkpt>
      <trkpt lat="47.01307" lon="8.65604">
        <ele>497</ele>
        <time>2021-08-05T08:44:16.417Z</time>
      </trkpt>
      <trkpt lat="47.01307" lon="8.65603">
        <ele>492</ele>
        <time>2021-08-05T08:44:17.418Z</time>
      </trkpt>
      <trkpt lat="47.01307" lon="8.65603">
        <ele>493</ele>
        <time>2021-08-05T08:44:18.418Z</time>
      </trkpt>
      <trkpt lat="47.01306" lon="8.65602">
        <ele>494</ele>
        <time>2021-08-05T08:44:19.417Z</time>
      </trkpt>
      <trkpt lat="47.01305" lon="8.65602">
        <ele>495</ele>
        <time>2021-08-05T08:44:20.417Z</time>
      </trkpt>
      <trkpt lat="47.01304" lon="8.65602">
        <ele>496</ele>
        <time>2021-08-05T08:44:21.418Z</time>
      </trkpt>
      <trkpt lat="47.01304" lon="8.65603">
        <ele>497</ele>
        <time>2021-08-05T08:44:22.418Z</time>
      </trkpt>
      <trkpt lat="47.01302" lon="8.65602">
        <ele>498</ele>
        <time>2021-08-05T08:44:23.418Z</time>
      </trkpt>
      <trkpt lat="47.01301" lon="8.65602">
        <ele>499</ele>
        <time>2021-08-05T08:44:24.418Z</time>
      </trkpt>
      <trkpt lat="47.01299" lon="8.65602">
        <ele>499</ele>
        <time>2021-08-05T08:44:25.417Z</time>
      </trkpt>
      <trkpt lat="47.01299" lon="8.65602">
        <ele>500</ele>
        <time>2021-08-05T08:44:26.418Z</time>
      </trkpt>
      <trkpt lat="47.01298" lon="8.65602">
        <ele>500</ele>
        <time>2021-08-05T08:44:27.418Z</time>
      </trkpt>
      <trkpt lat="47.01297" lon="8.65602">
        <ele>500</ele>
        <time>2021-08-05T08:44:28.417Z</time>
      </trkpt>
      <trkpt lat="47.01297" lon="8.65602">
        <ele>501</ele>
        <time>2021-08-05T08:44:29.417Z</time>
      </trkpt>
      <trkpt lat="47.01296" lon="8.65602">
        <ele>501</ele>
        <time>2021-08-05T08:44:30.417Z</time>
      </trkpt>
      <trkpt lat="47.01295" lon="8.65602">
        <ele>501</ele>
        <time>2021-08-05T08:44:31.418Z</time>
      </trkpt>
      <trkpt lat="47.01294" lon="8.65602">
        <ele>501</ele>
        <time>2021-08-05T08:44:32.418Z</time>
      </trkpt>
      <trkpt lat="47.01294" lon="8.65602">
        <ele>501</ele>
        <time>2021-08-05T08:44:33.418Z</time>
      </trkpt>
      <trkpt lat="47.01293" lon="8.65601">
        <ele>501</ele>
        <time>2021-08-05T08:44:34.417Z</time>
      </trkpt>
      <trkpt lat="47.01292" lon="8.65601">
        <ele>501</ele>
        <time>2021-08-05T08:44:35.417Z</time>
      </trkpt>
      <trkpt lat="47.01291" lon="8.65601">
        <ele>501</ele>
        <time>2021-08-05T08:44:36.417Z</time>
      </trkpt>
      <trkpt lat="47.0129" lon="8.656">
        <ele>501</ele>
        <time>2021-08-05T08:44:37.417Z</time>
      </trkpt>
      <trkpt lat="47.01289" lon="8.656">
        <ele>501</ele>
        <time>2021-08-05T08:44:38.417Z</time>
      </trkpt>
      <trkpt lat="47.01288" lon="8.656">
        <ele>501</ele>
        <time>2021-08-05T08:44:39.417Z</time>
      </trkpt>
      <trkpt lat="47.01287" lon="8.656">
        <ele>500</ele>
        <time>2021-08-05T08:44:40.417Z</time>
      </trkpt>
      <trkpt lat="47.01286" lon="8.656">
        <ele>500</ele>
        <time>2021-08-05T08:44:41.418Z</time>
      </trkpt>
      <trkpt lat="47.01285" lon="8.65599">
        <ele>500</ele>
        <time>2021-08-05T08:44:42.418Z</time>
      </trkpt>
      <trkpt lat="47.01284" lon="8.65599">
        <ele>500</ele>
        <time>2021-08-05T08:44:43.418Z</time>
      </trkpt>
      <trkpt lat="47.01283" lon="8.65599">
        <ele>500</ele>
        <time>2021-08-05T08:44:44.418Z</time>
      </trkpt>
      <trkpt lat="47.01282" lon="8.65599">
        <ele>499</ele>
        <time>2021-08-05T08:44:45.418Z</time>
      </trkpt>
      <trkpt lat="47.01281" lon="8.65599">
        <ele>499</ele>
        <time>2021-08-05T08:44:46.418Z</time>
      </trkpt>
      <trkpt lat="47.0128" lon="8.65599">
        <ele>498</ele>
        <time>2021-08-05T08:44:47.418Z</time>
      </trkpt>
      <trkpt lat="47.01279" lon="8.656">
        <ele>498</ele>
        <time>2021-08-05T08:44:48.418Z</time>
      </trkpt>
      <trkpt lat="47.01278" lon="8.65599">
        <ele>498</ele>
        <time>2021-08-05T08:44:49.418Z</time>
      </trkpt>
      <trkpt lat="47.01277" lon="8.65599">
        <ele>498</ele>
        <time>2021-08-05T08:44:50.417Z</time>
      </trkpt>
      <trkpt lat="47.01276" lon="8.65599">
        <ele>498</ele>
        <time>2021-08-05T08:44:51.418Z</time>
      </trkpt>
      <trkpt lat="47.01275" lon="8.65598">
        <ele>498</ele>
        <time>2021-08-05T08:44:52.418Z</time>
      </trkpt>
      <trkpt lat="47.01274" lon="8.65598">
        <ele>498</ele>
        <time>2021-08-05T08:44:53.418Z</time>
      </trkpt>
      <trkpt lat="47.01273" lon="8.65597">
        <ele>499</ele>
        <time>2021-08-05T08:44:54.418Z</time>
      </trkpt>
      <trkpt lat="47.01272" lon="8.65597">
        <ele>498</ele>
        <time>2021-08-05T08:44:55.417Z</time>
      </trkpt>
      <trkpt lat="47.01271" lon="8.65597">
        <ele>498</ele>
        <time>2021-08-05T08:44:56.418Z</time>
      </trkpt>
      <trkpt lat="47.01271" lon="8.65597">
        <ele>498</ele>
        <time>2021-08-05T08:44:57.418Z</time>
      </trkpt>
      <trkpt lat="47.01269" lon="8.65597">
        <ele>498</ele>
        <time>2021-08-05T08:44:58.417Z</time>
      </trkpt>
      <trkpt lat="47.01268" lon="8.65596">
        <ele>498</ele>
        <time>2021-08-05T08:44:59.417Z</time>
      </trkpt>
      <trkpt lat="47.01267" lon="8.65596">
        <ele>498</ele>
        <time>2021-08-05T08:45:00.418Z</time>
      </trkpt>
      <trkpt lat="47.01267" lon="8.65596">
        <ele>498</ele>
        <time>2021-08-05T08:45:01.418Z</time>
      </trkpt>
      <trkpt lat="47.01266" lon="8.65595">
        <ele>498</ele>
        <time>2021-08-05T08:45:02.418Z</time>
      </trkpt>
      <trkpt lat="47.01266" lon="8.65595">
        <ele>498</ele>
        <time>2021-08-05T08:45:03.417Z</time>
      </trkpt>
      <trkpt lat="47.01265" lon="8.65596">
        <ele>498</ele>
        <time>2021-08-05T08:45:04.418Z</time>
      </trkpt>
      <trkpt lat="47.01265" lon="8.65596">
        <ele>498</ele>
        <time>2021-08-05T08:45:05.418Z</time>
      </trkpt>
      <trkpt lat="47.01265" lon="8.65596">
        <ele>497</ele>
        <time>2021-08-05T08:45:06.418Z</time>
      </trkpt>
      <trkpt lat="47.01264" lon="8.65596">
        <ele>497</ele>
        <time>2021-08-05T08:45:07.418Z</time>
      </trkpt>
      <trkpt lat="47.01263" lon="8.65596">
        <ele>497</ele>
        <time>2021-08-05T08:45:08.417Z</time>
      </trkpt>
      <trkpt lat="47.01262" lon="8.65595">
        <ele>497</ele>
        <time>2021-08-05T08:45:09.418Z</time>
      </trkpt>
      <trkpt lat="47.01261" lon="8.65595">
        <ele>497</ele>
        <time>2021-08-05T08:45:10.417Z</time>
      </trkpt>
      <trkpt lat="47.0126" lon="8.65594">
        <ele>498</ele>
        <time>2021-08-05T08:45:11.418Z</time>
      </trkpt>
      <trkpt lat="47.01258" lon="8.65594">
        <ele>498</ele>
        <time>2021-08-05T08:45:12.418Z</time>
      </trkpt>
      <trkpt lat="47.01257" lon="8.65593">
        <ele>498</ele>
        <time>2021-08-05T08:45:13.417Z</time>
      </trkpt>
      <trkpt lat="47.01256" lon="8.65592">
        <ele>498</ele>
        <time>2021-08-05T08:45:14.417Z</time>
      </trkpt>
      <trkpt lat="47.01255" lon="8.65592">
        <ele>498</ele>
        <time>2021-08-05T08:45:15.418Z</time>
      </trkpt>
      <trkpt lat="47.01254" lon="8.65591">
        <ele>498</ele>
        <time>2021-08-05T08:45:16.417Z</time>
      </trkpt>
      <trkpt lat="47.01253" lon="8.65591">
        <ele>497</ele>
        <time>2021-08-05T08:45:17.417Z</time>
      </trkpt>
      <trkpt lat="47.01252" lon="8.65591">
        <ele>497</ele>
        <time>2021-08-05T08:45:18.418Z</time>
      </trkpt>
      <trkpt lat="47.01251" lon="8.65592">
        <ele>496</ele>
        <time>2021-08-05T08:45:19.417Z</time>
      </trkpt>
      <trkpt lat="47.0125" lon="8.65592">
        <ele>496</ele>
        <time>2021-08-05T08:45:20.418Z</time>
      </trkpt>
      <trkpt lat="47.01249" lon="8.65592">
        <ele>495</ele>
        <time>2021-08-05T08:45:21.417Z</time>
      </trkpt>
      <trkpt lat="47.01249" lon="8.65593">
        <ele>495</ele>
        <time>2021-08-05T08:45:22.418Z</time>
      </trkpt>
      <trkpt lat="47.01248" lon="8.65593">
        <ele>494</ele>
        <time>2021-08-05T08:45:23.418Z</time>
      </trkpt>
      <trkpt lat="47.01247" lon="8.65593">
        <ele>494</ele>
        <time>2021-08-05T08:45:24.418Z</time>
      </trkpt>
      <trkpt lat="47.01246" lon="8.65593">
        <ele>495</ele>
        <time>2021-08-05T08:45:25.417Z</time>
      </trkpt>
      <trkpt lat="47.01245" lon="8.65593">
        <ele>495</ele>
        <time>2021-08-05T08:45:26.418Z</time>
      </trkpt>
      <trkpt lat="47.01244" lon="8.65592">
        <ele>495</ele>
        <time>2021-08-05T08:45:27.418Z</time>
      </trkpt>
      <trkpt lat="47.01243" lon="8.65592">
        <ele>495</ele>
        <time>2021-08-05T08:45:28.417Z</time>
      </trkpt>
      <trkpt lat="47.01242" lon="8.65591">
        <ele>495</ele>
        <time>2021-08-05T08:45:29.417Z</time>
      </trkpt>
      <trkpt lat="47.01241" lon="8.65591">
        <ele>495</ele>
        <time>2021-08-05T08:45:30.418Z</time>
      </trkpt>
      <trkpt lat="47.0124" lon="8.65591">
        <ele>496</ele>
        <time>2021-08-05T08:45:31.418Z</time>
      </trkpt>
      <trkpt lat="47.01239" lon="8.65591">
        <ele>496</ele>
        <time>2021-08-05T08:45:32.418Z</time>
      </trkpt>
      <trkpt lat="47.01238" lon="8.65591">
        <ele>496</ele>
        <time>2021-08-05T08:45:33.418Z</time>
      </trkpt>
      <trkpt lat="47.01237" lon="8.65591">
        <ele>496</ele>
        <time>2021-08-05T08:45:34.418Z</time>
      </trkpt>
      <trkpt lat="47.01236" lon="8.6559">
        <ele>495</ele>
        <time>2021-08-05T08:45:35.418Z</time>
      </trkpt>
      <trkpt lat="47.01235" lon="8.6559">
        <ele>495</ele>
        <time>2021-08-05T08:45:36.418Z</time>
      </trkpt>
      <trkpt lat="47.01234" lon="8.6559">
        <ele>495</ele>
        <time>2021-08-05T08:45:37.418Z</time>
      </trkpt>
      <trkpt lat="47.01232" lon="8.65589">
        <ele>495</ele>
        <time>2021-08-05T08:45:38.418Z</time>
      </trkpt>
      <trkpt lat="47.01231" lon="8.65588">
        <ele>495</ele>
        <time>2021-08-05T08:45:39.418Z</time>
      </trkpt>
      <trkpt lat="47.0123" lon="8.65587">
        <ele>495</ele>
        <time>2021-08-05T08:45:40.418Z</time>
      </trkpt>
      <trkpt lat="47.01229" lon="8.65586">
        <ele>495</ele>
        <time>2021-08-05T08:45:41.417Z</time>
      </trkpt>
      <trkpt lat="47.01228" lon="8.65585">
        <ele>496</ele>
        <time>2021-08-05T08:45:42.417Z</time>
      </trkpt>
      <trkpt lat="47.01227" lon="8.65584">
        <ele>495</ele>
        <time>2021-08-05T08:45:43.417Z</time>
      </trkpt>
      <trkpt lat="47.01226" lon="8.65584">
        <ele>495</ele>
        <time>2021-08-05T08:45:44.418Z</time>
      </trkpt>
      <trkpt lat="47.01225" lon="8.65583">
        <ele>495</ele>
        <time>2021-08-05T08:45:45.418Z</time>
      </trkpt>
      <trkpt lat="47.01224" lon="8.65583">
        <ele>495</ele>
        <time>2021-08-05T08:45:46.418Z</time>
      </trkpt>
      <trkpt lat="47.01223" lon="8.65583">
        <ele>495</ele>
        <time>2021-08-05T08:45:47.418Z</time>
      </trkpt>
      <trkpt lat="47.01222" lon="8.65583">
        <ele>495</ele>
        <time>2021-08-05T08:45:48.417Z</time>
      </trkpt>
      <trkpt lat="47.0122" lon="8.65583">
        <ele>495</ele>
        <time>2021-08-05T08:45:49.418Z</time>
      </trkpt>
      <trkpt lat="47.01219" lon="8.65584">
        <ele>495</ele>
        <time>2021-08-05T08:45:50.418Z</time>
      </trkpt>
      <trkpt lat="47.01218" lon="8.65585">
        <ele>495</ele>
        <time>2021-08-05T08:45:51.418Z</time>
      </trkpt>
      <trkpt lat="47.01218" lon="8.65586">
        <ele>495</ele>
        <time>2021-08-05T08:45:52.417Z</time>
      </trkpt>
      <trkpt lat="47.01217" lon="8.65586">
        <ele>495</ele>
        <time>2021-08-05T08:45:53.418Z</time>
      </trkpt>
      <trkpt lat="47.01217" lon="8.65585">
        <ele>495</ele>
        <time>2021-08-05T08:45:54.417Z</time>
      </trkpt>
      <trkpt lat="47.01216" lon="8.65584">
        <ele>495</ele>
        <time>2021-08-05T08:45:55.418Z</time>
      </trkpt>
      <trkpt lat="47.01216" lon="8.65584">
        <ele>495</ele>
        <time>2021-08-05T08:45:56.418Z</time>
      </trkpt>
      <trkpt lat="47.01215" lon="8.65584">
        <ele>494</ele>
        <time>2021-08-05T08:45:57.418Z</time>
      </trkpt>
      <trkpt lat="47.01214" lon="8.65583">
        <ele>494</ele>
        <time>2021-08-05T08:45:58.418Z</time>
      </trkpt>
      <trkpt lat="47.01212" lon="8.65582">
        <ele>493</ele>
        <time>2021-08-05T08:45:59.417Z</time>
      </trkpt>
      <trkpt lat="47.01211" lon="8.65582">
        <ele>492</ele>
        <time>2021-08-05T08:46:00.418Z</time>
      </trkpt>
      <trkpt lat="47.0121" lon="8.65581">
        <ele>491</ele>
        <time>2021-08-05T08:46:01.418Z</time>
      </trkpt>
      <trkpt lat="47.01209" lon="8.65581">
        <ele>491</ele>
        <time>2021-08-05T08:46:02.417Z</time>
      </trkpt>
      <trkpt lat="47.01208" lon="8.65581">
        <ele>491</ele>
        <time>2021-08-05T08:46:03.418Z</time>
      </trkpt>
      <trkpt lat="47.01207" lon="8.65581">
        <ele>491</ele>
        <time>2021-08-05T08:46:04.417Z</time>
      </trkpt>
      <trkpt lat="47.01206" lon="8.65581">
        <ele>491</ele>
        <time>2021-08-05T08:46:05.417Z</time>
      </trkpt>
      <trkpt lat="47.01205" lon="8.65581">
        <ele>492</ele>
        <time>2021-08-05T08:46:06.417Z</time>
      </trkpt>
      <trkpt lat="47.01205" lon="8.65581">
        <ele>492</ele>
        <time>2021-08-05T08:46:07.417Z</time>
      </trkpt>
      <trkpt lat="47.01204" lon="8.65581">
        <ele>493</ele>
        <time>2021-08-05T08:46:08.417Z</time>
      </trkpt>
      <trkpt lat="47.01203" lon="8.65581">
        <ele>493</ele>
        <time>2021-08-05T08:46:09.417Z</time>
      </trkpt>
      <trkpt lat="47.01202" lon="8.65581">
        <ele>493</ele>
        <time>2021-08-05T08:46:10.417Z</time>
      </trkpt>
      <trkpt lat="47.01201" lon="8.65581">
        <ele>493</ele>
        <time>2021-08-05T08:46:11.417Z</time>
      </trkpt>
      <trkpt lat="47.012" lon="8.65581">
        <ele>493</ele>
        <time>2021-08-05T08:46:12.417Z</time>
      </trkpt>
      <trkpt lat="47.012" lon="8.65581">
        <ele>492</ele>
        <time>2021-08-05T08:46:13.418Z</time>
      </trkpt>
      <trkpt lat="47.01199" lon="8.6558">
        <ele>492</ele>
        <time>2021-08-05T08:46:14.418Z</time>
      </trkpt>
      <trkpt lat="47.01198" lon="8.65579">
        <ele>493</ele>
        <time>2021-08-05T08:46:15.418Z</time>
      </trkpt>
      <trkpt lat="47.01197" lon="8.65579">
        <ele>493</ele>
        <time>2021-08-05T08:46:16.418Z</time>
      </trkpt>
      <trkpt lat="47.01195" lon="8.65578">
        <ele>493</ele>
        <time>2021-08-05T08:46:17.417Z</time>
      </trkpt>
      <trkpt lat="47.01194" lon="8.65578">
        <ele>493</ele>
        <time>2021-08-05T08:46:18.418Z</time>
      </trkpt>
      <trkpt lat="47.01193" lon="8.65578">
        <ele>493</ele>
        <time>2021-08-05T08:46:19.417Z</time>
      </trkpt>
      <trkpt lat="47.01193" lon="8.65578">
        <ele>494</ele>
        <time>2021-08-05T08:46:20.418Z</time>
      </trkpt>
      <trkpt lat="47.01193" lon="8.65578">
        <ele>494</ele>
        <time>2021-08-05T08:46:21.418Z</time>
      </trkpt>
      <trkpt lat="47.01192" lon="8.65579">
        <ele>494</ele>
        <time>2021-08-05T08:46:22.417Z</time>
      </trkpt>
      <trkpt lat="47.01192" lon="8.65579">
        <ele>494</ele>
        <time>2021-08-05T08:46:23.418Z</time>
      </trkpt>
      <trkpt lat="47.01191" lon="8.65579">
        <ele>495</ele>
        <time>2021-08-05T08:46:24.418Z</time>
      </trkpt>
      <trkpt lat="47.01191" lon="8.6558">
        <ele>495</ele>
        <time>2021-08-05T08:46:25.417Z</time>
      </trkpt>
      <trkpt lat="47.0119" lon="8.6558">
        <ele>495</ele>
        <time>2021-08-05T08:46:26.418Z</time>
      </trkpt>
      <trkpt lat="47.01189" lon="8.6558">
        <ele>494</ele>
        <time>2021-08-05T08:46:27.417Z</time>
      </trkpt>
      <trkpt lat="47.01187" lon="8.6558">
        <ele>494</ele>
        <time>2021-08-05T08:46:28.418Z</time>
      </trkpt>
      <trkpt lat="47.01186" lon="8.6558">
        <ele>494</ele>
        <time>2021-08-05T08:46:29.418Z</time>
      </trkpt>
      <trkpt lat="47.01184" lon="8.65579">
        <ele>494</ele>
        <time>2021-08-05T08:46:30.418Z</time>
      </trkpt>
      <trkpt lat="47.01183" lon="8.65579">
        <ele>494</ele>
        <time>2021-08-05T08:46:31.417Z</time>
      </trkpt>
      <trkpt lat="47.01182" lon="8.65578">
        <ele>494</ele>
        <time>2021-08-05T08:46:32.417Z</time>
      </trkpt>
      <trkpt lat="47.01182" lon="8.65578">
        <ele>494</ele>
        <time>2021-08-05T08:46:33.417Z</time>
      </trkpt>
      <trkpt lat="47.0118" lon="8.65577">
        <ele>494</ele>
        <time>2021-08-05T08:46:34.418Z</time>
      </trkpt>
      <trkpt lat="47.01179" lon="8.65576">
        <ele>494</ele>
        <time>2021-08-05T08:46:35.418Z</time>
      </trkpt>
      <trkpt lat="47.01178" lon="8.65576">
        <ele>494</ele>
        <time>2021-08-05T08:46:36.418Z</time>
      </trkpt>
      <trkpt lat="47.01177" lon="8.65576">
        <ele>494</ele>
        <time>2021-08-05T08:46:37.418Z</time>
      </trkpt>
      <trkpt lat="47.01176" lon="8.65577">
        <ele>494</ele>
        <time>2021-08-05T08:46:38.418Z</time>
      </trkpt>
      <trkpt lat="47.01175" lon="8.65577">
        <ele>493</ele>
        <time>2021-08-05T08:46:39.418Z</time>
      </trkpt>
      <trkpt lat="47.01174" lon="8.65577">
        <ele>492</ele>
        <time>2021-08-05T08:46:40.418Z</time>
      </trkpt>
      <trkpt lat="47.01173" lon="8.65577">
        <ele>492</ele>
        <time>2021-08-05T08:46:41.418Z</time>
      </trkpt>
      <trkpt lat="47.01171" lon="8.65577">
        <ele>491</ele>
        <time>2021-08-05T08:46:42.417Z</time>
      </trkpt>
      <trkpt lat="47.0117" lon="8.65577">
        <ele>491</ele>
        <time>2021-08-05T08:46:43.418Z</time>
      </trkpt>
      <trkpt lat="47.01169" lon="8.65576">
        <ele>491</ele>
        <time>2021-08-05T08:46:44.417Z</time>
      </trkpt>
      <trkpt lat="47.01167" lon="8.65575">
        <ele>491</ele>
        <time>2021-08-05T08:46:45.417Z</time>
      </trkpt>
      <trkpt lat="47.01166" lon="8.65574">
        <ele>491</ele>
        <time>2021-08-05T08:46:46.418Z</time>
      </trkpt>
      <trkpt lat="47.01165" lon="8.65574">
        <ele>491</ele>
        <time>2021-08-05T08:46:47.418Z</time>
      </trkpt>
      <trkpt lat="47.01163" lon="8.65573">
        <ele>491</ele>
        <time>2021-08-05T08:46:48.418Z</time>
      </trkpt>
      <trkpt lat="47.01162" lon="8.65572">
        <ele>491</ele>
        <time>2021-08-05T08:46:49.418Z</time>
      </trkpt>
      <trkpt lat="47.01161" lon="8.65571">
        <ele>492</ele>
        <time>2021-08-05T08:46:50.418Z</time>
      </trkpt>
      <trkpt lat="47.0116" lon="8.65571">
        <ele>493</ele>
        <time>2021-08-05T08:46:51.418Z</time>
      </trkpt>
      <trkpt lat="47.01159" lon="8.65571">
        <ele>493</ele>
        <time>2021-08-05T08:46:52.417Z</time>
      </trkpt>
      <trkpt lat="47.01158" lon="8.65571">
        <ele>494</ele>
        <time>2021-08-05T08:46:53.418Z</time>
      </trkpt>
      <trkpt lat="47.01157" lon="8.6557">
        <ele>494</ele>
        <time>2021-08-05T08:46:54.417Z</time>
      </trkpt>
      <trkpt lat="47.01156" lon="8.6557">
        <ele>494</ele>
        <time>2021-08-05T08:46:55.418Z</time>
      </trkpt>
      <trkpt lat="47.01155" lon="8.65569">
        <ele>495</ele>
        <time>2021-08-05T08:46:56.418Z</time>
      </trkpt>
      <trkpt lat="47.01154" lon="8.6557">
        <ele>495</ele>
        <time>2021-08-05T08:46:57.417Z</time>
      </trkpt>
      <trkpt lat="47.01154" lon="8.6557">
        <ele>496</ele>
        <time>2021-08-05T08:46:58.418Z</time>
      </trkpt>
      <trkpt lat="47.01153" lon="8.6557">
        <ele>496</ele>
        <time>2021-08-05T08:46:59.417Z</time>
      </trkpt>
      <trkpt lat="47.01152" lon="8.6557">
        <ele>496</ele>
        <time>2021-08-05T08:47:00.418Z</time>
      </trkpt>
      <trkpt lat="47.01151" lon="8.6557">
        <ele>496</ele>
        <time>2021-08-05T08:47:01.418Z</time>
      </trkpt>
      <trkpt lat="47.0115" lon="8.6557">
        <ele>496</ele>
        <time>2021-08-05T08:47:02.418Z</time>
      </trkpt>
      <trkpt lat="47.0115" lon="8.6557">
        <ele>495</ele>
        <time>2021-08-05T08:47:03.418Z</time>
      </trkpt>
      <trkpt lat="47.01149" lon="8.65569">
        <ele>495</ele>
        <time>2021-08-05T08:47:04.417Z</time>
      </trkpt>
      <trkpt lat="47.01148" lon="8.65568">
        <ele>495</ele>
        <time>2021-08-05T08:47:05.417Z</time>
      </trkpt>
      <trkpt lat="47.01147" lon="8.65568">
        <ele>495</ele>
        <time>2021-08-05T08:47:06.418Z</time>
      </trkpt>
      <trkpt lat="47.01146" lon="8.65567">
        <ele>495</ele>
        <time>2021-08-05T08:47:07.418Z</time>
      </trkpt>
      <trkpt lat="47.01145" lon="8.65565">
        <ele>495</ele>
        <time>2021-08-05T08:47:08.418Z</time>
      </trkpt>
      <trkpt lat="47.01144" lon="8.65565">
        <ele>495</ele>
        <time>2021-08-05T08:47:09.418Z</time>
      </trkpt>
      <trkpt lat="47.01142" lon="8.65564">
        <ele>495</ele>
        <time>2021-08-05T08:47:10.418Z</time>
      </trkpt>
      <trkpt lat="47.01141" lon="8.65564">
        <ele>495</ele>
        <time>2021-08-05T08:47:11.418Z</time>
      </trkpt>
      <trkpt lat="47.01141" lon="8.65566">
        <ele>495</ele>
        <time>2021-08-05T08:47:12.417Z</time>
      </trkpt>
      <trkpt lat="47.0114" lon="8.65567">
        <ele>495</ele>
        <time>2021-08-05T08:47:13.418Z</time>
      </trkpt>
      <trkpt lat="47.01139" lon="8.65568">
        <ele>495</ele>
        <time>2021-08-05T08:47:14.418Z</time>
      </trkpt>
      <trkpt lat="47.01139" lon="8.65568">
        <ele>494</ele>
        <time>2021-08-05T08:47:15.417Z</time>
      </trkpt>
      <trkpt lat="47.01138" lon="8.65568">
        <ele>494</ele>
        <time>2021-08-05T08:47:16.417Z</time>
      </trkpt>
      <trkpt lat="47.01138" lon="8.65568">
        <ele>495</ele>
        <time>2021-08-05T08:47:17.417Z</time>
      </trkpt>
      <trkpt lat="47.01138" lon="8.65567">
        <ele>495</ele>
        <time>2021-08-05T08:47:18.418Z</time>
      </trkpt>
      <trkpt lat="47.01137" lon="8.65566">
        <ele>495</ele>
        <time>2021-08-05T08:47:19.417Z</time>
      </trkpt>
      <trkpt lat="47.01136" lon="8.65565">
        <ele>495</ele>
        <time>2021-08-05T08:47:20.418Z</time>
      </trkpt>
      <trkpt lat="47.01135" lon="8.65564">
        <ele>495</ele>
        <time>2021-08-05T08:47:21.418Z</time>
      </trkpt>
      <trkpt lat="47.01133" lon="8.65563">
        <ele>496</ele>
        <time>2021-08-05T08:47:22.418Z</time>
      </trkpt>
      <trkpt lat="47.01132" lon="8.65563">
        <ele>496</ele>
        <time>2021-08-05T08:47:23.418Z</time>
      </trkpt>
      <trkpt lat="47.0113" lon="8.65562">
        <ele>496</ele>
        <time>2021-08-05T08:47:24.418Z</time>
      </trkpt>
      <trkpt lat="47.01129" lon="8.65562">
        <ele>496</ele>
        <time>2021-08-05T08:47:25.417Z</time>
      </trkpt>
      <trkpt lat="47.01128" lon="8.65562">
        <ele>496</ele>
        <time>2021-08-05T08:47:26.417Z</time>
      </trkpt>
      <trkpt lat="47.01127" lon="8.65561">
        <ele>496</ele>
        <time>2021-08-05T08:47:27.417Z</time>
      </trkpt>
      <trkpt lat="47.01126" lon="8.65561">
        <ele>496</ele>
        <time>2021-08-05T08:47:28.417Z</time>
      </trkpt>
      <trkpt lat="47.01125" lon="8.65561">
        <ele>496</ele>
        <time>2021-08-05T08:47:29.418Z</time>
      </trkpt>
      <trkpt lat="47.01124" lon="8.65561">
        <ele>497</ele>
        <time>2021-08-05T08:47:30.418Z</time>
      </trkpt>
      <trkpt lat="47.01123" lon="8.6556">
        <ele>497</ele>
        <time>2021-08-05T08:47:31.418Z</time>
      </trkpt>
      <trkpt lat="47.01122" lon="8.6556">
        <ele>497</ele>
        <time>2021-08-05T08:47:32.418Z</time>
      </trkpt>
      <trkpt lat="47.0112" lon="8.6556">
        <ele>497</ele>
        <time>2021-08-05T08:47:33.417Z</time>
      </trkpt>
      <trkpt lat="47.0112" lon="8.6556">
        <ele>497</ele>
        <time>2021-08-05T08:47:34.418Z</time>
      </trkpt>
      <trkpt lat="47.01119" lon="8.6556">
        <ele>497</ele>
        <time>2021-08-05T08:47:35.417Z</time>
      </trkpt>
      <trkpt lat="47.01118" lon="8.6556">
        <ele>497</ele>
        <time>2021-08-05T08:47:36.418Z</time>
      </trkpt>
      <trkpt lat="47.01117" lon="8.6556">
        <ele>496</ele>
        <time>2021-08-05T08:47:37.418Z</time>
      </trkpt>
      <trkpt lat="47.01116" lon="8.65561">
        <ele>496</ele>
        <time>2021-08-05T08:47:38.417Z</time>
      </trkpt>
      <trkpt lat="47.01116" lon="8.65561">
        <ele>496</ele>
        <time>2021-08-05T08:47:39.417Z</time>
      </trkpt>
      <trkpt lat="47.01115" lon="8.65562">
        <ele>495</ele>
        <time>2021-08-05T08:47:40.418Z</time>
      </trkpt>
      <trkpt lat="47.01115" lon="8.65563">
        <ele>495</ele>
        <time>2021-08-05T08:47:41.418Z</time>
      </trkpt>
      <trkpt lat="47.01114" lon="8.65563">
        <ele>494</ele>
        <time>2021-08-05T08:47:42.418Z</time>
      </trkpt>
      <trkpt lat="47.01114" lon="8.65563">
        <ele>493</ele>
        <time>2021-08-05T08:47:43.417Z</time>
      </trkpt>
      <trkpt lat="47.01113" lon="8.65562">
        <ele>493</ele>
        <time>2021-08-05T08:47:44.417Z</time>
      </trkpt>
      <trkpt lat="47.01112" lon="8.65561">
        <ele>492</ele>
        <time>2021-08-05T08:47:45.418Z</time>
      </trkpt>
      <trkpt lat="47.01111" lon="8.6556">
        <ele>492</ele>
        <time>2021-08-05T08:47:46.418Z</time>
      </trkpt>
      <trkpt lat="47.0111" lon="8.65559">
        <ele>491</ele>
        <time>2021-08-05T08:47:47.418Z</time>
      </trkpt>
      <trkpt lat="47.01109" lon="8.65558">
        <ele>491</ele>
        <time>2021-08-05T08:47:48.418Z</time>
      </trkpt>
      <trkpt lat="47.01108" lon="8.65558">
        <ele>491</ele>
        <time>2021-08-05T08:47:49.417Z</time>
      </trkpt>
      <trkpt lat="47.01108" lon="8.65558">
        <ele>492</ele>
        <time>2021-08-05T08:47:50.417Z</time>
      </trkpt>
      <trkpt lat="47.01107" lon="8.65557">
        <ele>492</ele>
        <time>2021-08-05T08:47:51.418Z</time>
      </trkpt>
      <trkpt lat="47.01106" lon="8.65556">
        <ele>492</ele>
        <time>2021-08-05T08:47:52.418Z</time>
      </trkpt>
      <trkpt lat="47.01105" lon="8.65554">
        <ele>493</ele>
        <time>2021-08-05T08:47:53.418Z</time>
      </trkpt>
      <trkpt lat="47.01104" lon="8.65553">
        <ele>493</ele>
        <time>2021-08-05T08:47:54.417Z</time>
      </trkpt>
      <trkpt lat="47.01103" lon="8.65552">
        <ele>493</ele>
        <time>2021-08-05T08:47:55.418Z</time>
      </trkpt>
      <trkpt lat="47.01103" lon="8.65551">
        <ele>494</ele>
        <time>2021-08-05T08:47:56.417Z</time>
      </trkpt>
      <trkpt lat="47.01103" lon="8.65549">
        <ele>494</ele>
        <time>2021-08-05T08:47:57.418Z</time>
      </trkpt>
      <trkpt lat="47.01102" lon="8.65548">
        <ele>495</ele>
        <time>2021-08-05T08:47:58.418Z</time>
      </trkpt>
      <trkpt lat="47.01101" lon="8.65546">
        <ele>495</ele>
        <time>2021-08-05T08:47:59.418Z</time>
      </trkpt>
      <trkpt lat="47.011" lon="8.65545">
        <ele>495</ele>
        <time>2021-08-05T08:48:00.418Z</time>
      </trkpt>
      <trkpt lat="47.01099" lon="8.65544">
        <ele>496</ele>
        <time>2021-08-05T08:48:01.418Z</time>
      </trkpt>
      <trkpt lat="47.01099" lon="8.65544">
        <ele>496</ele>
        <time>2021-08-05T08:48:02.417Z</time>
      </trkpt>
      <trkpt lat="47.01098" lon="8.65543">
        <ele>496</ele>
        <time>2021-08-05T08:48:03.418Z</time>
      </trkpt>
      <trkpt lat="47.01098" lon="8.65542">
        <ele>495</ele>
        <time>2021-08-05T08:48:04.417Z</time>
      </trkpt>
      <trkpt lat="47.01097" lon="8.65541">
        <ele>495</ele>
        <time>2021-08-05T08:48:05.417Z</time>
      </trkpt>
      <trkpt lat="47.01096" lon="8.6554">
        <ele>495</ele>
        <time>2021-08-05T08:48:06.418Z</time>
      </trkpt>
      <trkpt lat="47.01096" lon="8.65539">
        <ele>495</ele>
        <time>2021-08-05T08:48:07.418Z</time>
      </trkpt>
      <trkpt lat="47.01095" lon="8.65538">
        <ele>494</ele>
        <time>2021-08-05T08:48:08.417Z</time>
      </trkpt>
      <trkpt lat="47.01095" lon="8.65538">
        <ele>494</ele>
        <time>2021-08-05T08:48:09.418Z</time>
      </trkpt>
      <trkpt lat="47.01093" lon="8.65536">
        <ele>494</ele>
        <time>2021-08-05T08:48:10.418Z</time>
      </trkpt>
      <trkpt lat="47.01093" lon="8.65535">
        <ele>494</ele>
        <time>2021-08-05T08:48:11.418Z</time>
      </trkpt>
      <trkpt lat="47.01092" lon="8.65534">
        <ele>494</ele>
        <time>2021-08-05T08:48:12.418Z</time>
      </trkpt>
      <trkpt lat="47.01092" lon="8.65533">
        <ele>494</ele>
        <time>2021-08-05T08:48:13.417Z</time>
      </trkpt>
      <trkpt lat="47.01092" lon="8.65533">
        <ele>494</ele>
        <time>2021-08-05T08:48:14.417Z</time>
      </trkpt>
      <trkpt lat="47.0109" lon="8.65531">
        <ele>494</ele>
        <time>2021-08-05T08:48:15.420Z</time>
      </trkpt>
      <trkpt lat="47.0109" lon="8.65531">
        <ele>494</ele>
        <time>2021-08-05T08:48:16.419Z</time>
      </trkpt>
      <trkpt lat="47.0109" lon="8.65531">
        <ele>494</ele>
        <time>2021-08-05T08:48:17.420Z</time>
      </trkpt>
      <trkpt lat="47.01091" lon="8.65531">
        <ele>494</ele>
        <time>2021-08-05T08:48:18.420Z</time>
      </trkpt>
      <trkpt lat="47.01091" lon="8.6553">
        <ele>494</ele>
        <time>2021-08-05T08:48:19.420Z</time>
      </trkpt>
      <trkpt lat="47.01091" lon="8.65529">
        <ele>495</ele>
        <time>2021-08-05T08:48:20.420Z</time>
      </trkpt>
      <trkpt lat="47.01091" lon="8.65529">
        <ele>495</ele>
        <time>2021-08-05T08:48:21.420Z</time>
      </trkpt>
      <trkpt lat="47.0109" lon="8.65528">
        <ele>496</ele>
        <time>2021-08-05T08:48:22.420Z</time>
      </trkpt>
      <trkpt lat="47.0109" lon="8.65527">
        <ele>497</ele>
        <time>2021-08-05T08:48:23.420Z</time>
      </trkpt>
      <trkpt lat="47.01089" lon="8.65527">
        <ele>497</ele>
        <time>2021-08-05T08:48:24.420Z</time>
      </trkpt>
      <trkpt lat="47.01089" lon="8.65526">
        <ele>497</ele>
        <time>2021-08-05T08:48:25.419Z</time>
      </trkpt>
      <trkpt lat="47.01088" lon="8.65526">
        <ele>498</ele>
        <time>2021-08-05T08:48:26.420Z</time>
      </trkpt>
      <trkpt lat="47.01087" lon="8.65526">
        <ele>498</ele>
        <time>2021-08-05T08:48:27.419Z</time>
      </trkpt>
      <trkpt lat="47.01087" lon="8.65526">
        <ele>498</ele>
        <time>2021-08-05T08:48:28.419Z</time>
      </trkpt>
      <trkpt lat="47.01087" lon="8.65526">
        <ele>498</ele>
        <time>2021-08-05T08:48:29.419Z</time>
      </trkpt>
      <trkpt lat="47.01086" lon="8.65526">
        <ele>498</ele>
        <time>2021-08-05T08:48:30.419Z</time>
      </trkpt>
      <trkpt lat="47.01084" lon="8.65526">
        <ele>497</ele>
        <time>2021-08-05T08:48:31.421Z</time>
      </trkpt>
      <trkpt lat="47.01083" lon="8.65526">
        <ele>498</ele>
        <time>2021-08-05T08:48:32.420Z</time>
      </trkpt>
      <trkpt lat="47.01082" lon="8.65526">
        <ele>498</ele>
        <time>2021-08-05T08:48:33.421Z</time>
      </trkpt>
      <trkpt lat="47.01081" lon="8.65525">
        <ele>498</ele>
        <time>2021-08-05T08:48:34.421Z</time>
      </trkpt>
      <trkpt lat="47.0108" lon="8.65525">
        <ele>497</ele>
        <time>2021-08-05T08:48:35.420Z</time>
      </trkpt>
      <trkpt lat="47.01079" lon="8.65525">
        <ele>497</ele>
        <time>2021-08-05T08:48:36.421Z</time>
      </trkpt>
      <trkpt lat="47.01078" lon="8.65525">
        <ele>497</ele>
        <time>2021-08-05T08:48:37.420Z</time>
      </trkpt>
      <trkpt lat="47.01077" lon="8.65525">
        <ele>496</ele>
        <time>2021-08-05T08:48:38.420Z</time>
      </trkpt>
      <trkpt lat="47.01076" lon="8.65525">
        <ele>496</ele>
        <time>2021-08-05T08:48:39.421Z</time>
      </trkpt>
      <trkpt lat="47.01075" lon="8.65524">
        <ele>496</ele>
        <time>2021-08-05T08:48:40.421Z</time>
      </trkpt>
      <trkpt lat="47.01075" lon="8.65524">
        <ele>496</ele>
        <time>2021-08-05T08:48:41.421Z</time>
      </trkpt>
      <trkpt lat="47.01074" lon="8.65524">
        <ele>496</ele>
        <time>2021-08-05T08:48:42.420Z</time>
      </trkpt>
      <trkpt lat="47.01073" lon="8.65524">
        <ele>495</ele>
        <time>2021-08-05T08:48:43.420Z</time>
      </trkpt>
      <trkpt lat="47.01072" lon="8.65524">
        <ele>495</ele>
        <time>2021-08-05T08:48:44.420Z</time>
      </trkpt>
      <trkpt lat="47.01071" lon="8.65524">
        <ele>495</ele>
        <time>2021-08-05T08:48:45.420Z</time>
      </trkpt>
      <trkpt lat="47.0107" lon="8.65524">
        <ele>495</ele>
        <time>2021-08-05T08:48:46.420Z</time>
      </trkpt>
      <trkpt lat="47.0107" lon="8.65524">
        <ele>495</ele>
        <time>2021-08-05T08:48:47.420Z</time>
      </trkpt>
      <trkpt lat="47.01069" lon="8.65524">
        <ele>495</ele>
        <time>2021-08-05T08:48:48.421Z</time>
      </trkpt>
      <trkpt lat="47.01068" lon="8.65524">
        <ele>494</ele>
        <time>2021-08-05T08:48:49.421Z</time>
      </trkpt>
      <trkpt lat="47.01067" lon="8.65523">
        <ele>494</ele>
        <time>2021-08-05T08:48:50.421Z</time>
      </trkpt>
      <trkpt lat="47.01066" lon="8.65523">
        <ele>493</ele>
        <time>2021-08-05T08:48:51.420Z</time>
      </trkpt>
      <trkpt lat="47.01064" lon="8.65523">
        <ele>493</ele>
        <time>2021-08-05T08:48:52.420Z</time>
      </trkpt>
      <trkpt lat="47.01063" lon="8.65523">
        <ele>493</ele>
        <time>2021-08-05T08:48:53.421Z</time>
      </trkpt>
      <trkpt lat="47.01062" lon="8.65522">
        <ele>493</ele>
        <time>2021-08-05T08:48:54.421Z</time>
      </trkpt>
      <trkpt lat="47.01061" lon="8.65521">
        <ele>492</ele>
        <time>2021-08-05T08:48:55.421Z</time>
      </trkpt>
      <trkpt lat="47.0106" lon="8.65521">
        <ele>491</ele>
        <time>2021-08-05T08:48:56.420Z</time>
      </trkpt>
      <trkpt lat="47.01058" lon="8.6552">
        <ele>490</ele>
        <time>2021-08-05T08:48:57.421Z</time>
      </trkpt>
      <trkpt lat="47.01057" lon="8.65519">
        <ele>490</ele>
        <time>2021-08-05T08:48:58.421Z</time>
      </trkpt>
      <trkpt lat="47.01056" lon="8.65518">
        <ele>490</ele>
        <time>2021-08-05T08:48:59.421Z</time>
      </trkpt>
      <trkpt lat="47.01055" lon="8.65518">
        <ele>490</ele>
        <time>2021-08-05T08:49:00.421Z</time>
      </trkpt>
      <trkpt lat="47.01054" lon="8.65519">
        <ele>490</ele>
        <time>2021-08-05T08:49:01.421Z</time>
      </trkpt>
      <trkpt lat="47.01052" lon="8.65518">
        <ele>491</ele>
        <time>2021-08-05T08:49:02.421Z</time>
      </trkpt>
      <trkpt lat="47.01051" lon="8.65518">
        <ele>491</ele>
        <time>2021-08-05T08:49:03.421Z</time>
      </trkpt>
      <trkpt lat="47.0105" lon="8.65517">
        <ele>491</ele>
        <time>2021-08-05T08:49:04.421Z</time>
      </trkpt>
      <trkpt lat="47.01049" lon="8.65516">
        <ele>492</ele>
        <time>2021-08-05T08:49:05.420Z</time>
      </trkpt>
      <trkpt lat="47.01048" lon="8.65516">
        <ele>492</ele>
        <time>2021-08-05T08:49:06.421Z</time>
      </trkpt>
      <trkpt lat="47.01047" lon="8.65515">
        <ele>493</ele>
        <time>2021-08-05T08:49:07.420Z</time>
      </trkpt>
      <trkpt lat="47.01046" lon="8.65514">
        <ele>493</ele>
        <time>2021-08-05T08:49:08.420Z</time>
      </trkpt>
      <trkpt lat="47.01045" lon="8.65513">
        <ele>493</ele>
        <time>2021-08-05T08:49:09.421Z</time>
      </trkpt>
      <trkpt lat="47.01044" lon="8.65513">
        <ele>494</ele>
        <time>2021-08-05T08:49:10.420Z</time>
      </trkpt>
      <trkpt lat="47.01043" lon="8.65512">
        <ele>493</ele>
        <time>2021-08-05T08:49:11.421Z</time>
      </trkpt>
      <trkpt lat="47.01042" lon="8.65512">
        <ele>493</ele>
        <time>2021-08-05T08:49:12.421Z</time>
      </trkpt>
      <trkpt lat="47.01041" lon="8.65511">
        <ele>493</ele>
        <time>2021-08-05T08:49:13.421Z</time>
      </trkpt>
      <trkpt lat="47.0104" lon="8.6551">
        <ele>494</ele>
        <time>2021-08-05T08:49:14.420Z</time>
      </trkpt>
      <trkpt lat="47.01039" lon="8.6551">
        <ele>494</ele>
        <time>2021-08-05T08:49:15.420Z</time>
      </trkpt>
      <trkpt lat="47.01039" lon="8.65509">
        <ele>494</ele>
        <time>2021-08-05T08:49:16.421Z</time>
      </trkpt>
      <trkpt lat="47.01038" lon="8.65509">
        <ele>494</ele>
        <time>2021-08-05T08:49:17.420Z</time>
      </trkpt>
      <trkpt lat="47.01037" lon="8.65508">
        <ele>494</ele>
        <time>2021-08-05T08:49:18.421Z</time>
      </trkpt>
      <trkpt lat="47.01037" lon="8.65508">
        <ele>494</ele>
        <time>2021-08-05T08:49:19.421Z</time>
      </trkpt>
      <trkpt lat="47.01036" lon="8.65507">
        <ele>494</ele>
        <time>2021-08-05T08:49:20.420Z</time>
      </trkpt>
      <trkpt lat="47.01035" lon="8.65506">
        <ele>494</ele>
        <time>2021-08-05T08:49:21.420Z</time>
      </trkpt>
      <trkpt lat="47.01035" lon="8.65506">
        <ele>494</ele>
        <time>2021-08-05T08:49:22.420Z</time>
      </trkpt>
      <trkpt lat="47.01034" lon="8.65504">
        <ele>494</ele>
        <time>2021-08-05T08:49:23.421Z</time>
      </trkpt>
      <trkpt lat="47.01032" lon="8.65503">
        <ele>494</ele>
        <time>2021-08-05T08:49:24.421Z</time>
      </trkpt>
      <trkpt lat="47.01031" lon="8.65502">
        <ele>494</ele>
        <time>2021-08-05T08:49:25.421Z</time>
      </trkpt>
      <trkpt lat="47.01031" lon="8.65501">
        <ele>494</ele>
        <time>2021-08-05T08:49:26.421Z</time>
      </trkpt>
      <trkpt lat="47.0103" lon="8.65501">
        <ele>495</ele>
        <time>2021-08-05T08:49:27.421Z</time>
      </trkpt>
      <trkpt lat="47.01029" lon="8.655">
        <ele>495</ele>
        <time>2021-08-05T08:49:28.421Z</time>
      </trkpt>
      <trkpt lat="47.01028" lon="8.655">
        <ele>495</ele>
        <time>2021-08-05T08:49:29.420Z</time>
      </trkpt>
      <trkpt lat="47.01027" lon="8.65499">
        <ele>495</ele>
        <time>2021-08-05T08:49:30.421Z</time>
      </trkpt>
      <trkpt lat="47.01027" lon="8.65498">
        <ele>495</ele>
        <time>2021-08-05T08:49:31.421Z</time>
      </trkpt>
      <trkpt lat="47.01026" lon="8.65498">
        <ele>495</ele>
        <time>2021-08-05T08:49:32.421Z</time>
      </trkpt>
      <trkpt lat="47.01025" lon="8.65498">
        <ele>495</ele>
        <time>2021-08-05T08:49:33.421Z</time>
      </trkpt>
      <trkpt lat="47.01025" lon="8.65498">
        <ele>495</ele>
        <time>2021-08-05T08:49:34.421Z</time>
      </trkpt>
      <trkpt lat="47.01024" lon="8.65497">
        <ele>494</ele>
        <time>2021-08-05T08:49:35.420Z</time>
      </trkpt>
      <trkpt lat="47.01024" lon="8.65497">
        <ele>494</ele>
        <time>2021-08-05T08:49:36.421Z</time>
      </trkpt>
      <trkpt lat="47.01023" lon="8.65496">
        <ele>494</ele>
        <time>2021-08-05T08:49:37.421Z</time>
      </trkpt>
      <trkpt lat="47.01022" lon="8.65496">
        <ele>494</ele>
        <time>2021-08-05T08:49:38.421Z</time>
      </trkpt>
      <trkpt lat="47.01021" lon="8.65495">
        <ele>494</ele>
        <time>2021-08-05T08:49:39.421Z</time>
      </trkpt>
      <trkpt lat="47.0102" lon="8.65494">
        <ele>493</ele>
        <time>2021-08-05T08:49:40.421Z</time>
      </trkpt>
      <trkpt lat="47.0102" lon="8.65494">
        <ele>493</ele>
        <time>2021-08-05T08:49:41.421Z</time>
      </trkpt>
      <trkpt lat="47.01019" lon="8.65494">
        <ele>493</ele>
        <time>2021-08-05T08:49:42.421Z</time>
      </trkpt>
      <trkpt lat="47.01018" lon="8.65493">
        <ele>493</ele>
        <time>2021-08-05T08:49:43.421Z</time>
      </trkpt>
      <trkpt lat="47.01017" lon="8.65493">
        <ele>493</ele>
        <time>2021-08-05T08:49:44.421Z</time>
      </trkpt>
      <trkpt lat="47.01016" lon="8.65493">
        <ele>493</ele>
        <time>2021-08-05T08:49:45.421Z</time>
      </trkpt>
      <trkpt lat="47.01016" lon="8.65493">
        <ele>494</ele>
        <time>2021-08-05T08:49:46.421Z</time>
      </trkpt>
      <trkpt lat="47.01015" lon="8.65492">
        <ele>494</ele>
        <time>2021-08-05T08:49:47.421Z</time>
      </trkpt>
      <trkpt lat="47.01014" lon="8.65492">
        <ele>493</ele>
        <time>2021-08-05T08:49:48.421Z</time>
      </trkpt>
      <trkpt lat="47.01013" lon="8.65492">
        <ele>493</ele>
        <time>2021-08-05T08:49:49.421Z</time>
      </trkpt>
      <trkpt lat="47.01012" lon="8.65492">
        <ele>492</ele>
        <time>2021-08-05T08:49:50.421Z</time>
      </trkpt>
      <trkpt lat="47.01011" lon="8.65491">
        <ele>492</ele>
        <time>2021-08-05T08:49:51.421Z</time>
      </trkpt>
      <trkpt lat="47.0101" lon="8.6549">
        <ele>492</ele>
        <time>2021-08-05T08:49:52.421Z</time>
      </trkpt>
      <trkpt lat="47.01009" lon="8.6549">
        <ele>491</ele>
        <time>2021-08-05T08:49:53.421Z</time>
      </trkpt>
      <trkpt lat="47.01008" lon="8.65489">
        <ele>491</ele>
        <time>2021-08-05T08:49:54.421Z</time>
      </trkpt>
      <trkpt lat="47.01007" lon="8.65488">
        <ele>490</ele>
        <time>2021-08-05T08:49:55.421Z</time>
      </trkpt>
      <trkpt lat="47.01007" lon="8.65487">
        <ele>490</ele>
        <time>2021-08-05T08:49:56.420Z</time>
      </trkpt>
      <trkpt lat="47.01006" lon="8.65485">
        <ele>490</ele>
        <time>2021-08-05T08:49:57.421Z</time>
      </trkpt>
      <trkpt lat="47.01005" lon="8.65484">
        <ele>490</ele>
        <time>2021-08-05T08:49:58.421Z</time>
      </trkpt>
      <trkpt lat="47.01005" lon="8.65484">
        <ele>491</ele>
        <time>2021-08-05T08:49:59.420Z</time>
      </trkpt>
      <trkpt lat="47.01004" lon="8.65483">
        <ele>490</ele>
        <time>2021-08-05T08:50:00.420Z</time>
      </trkpt>
      <trkpt lat="47.01004" lon="8.65482">
        <ele>491</ele>
        <time>2021-08-05T08:50:01.421Z</time>
      </trkpt>
      <trkpt lat="47.01004" lon="8.65482">
        <ele>491</ele>
        <time>2021-08-05T08:50:02.421Z</time>
      </trkpt>
      <trkpt lat="47.01003" lon="8.65481">
        <ele>491</ele>
        <time>2021-08-05T08:50:03.421Z</time>
      </trkpt>
      <trkpt lat="47.01002" lon="8.65479">
        <ele>492</ele>
        <time>2021-08-05T08:50:04.421Z</time>
      </trkpt>
      <trkpt lat="47.01001" lon="8.65478">
        <ele>492</ele>
        <time>2021-08-05T08:50:05.421Z</time>
      </trkpt>
      <trkpt lat="47.01" lon="8.65477">
        <ele>491</ele>
        <time>2021-08-05T08:50:06.421Z</time>
      </trkpt>
      <trkpt lat="47.01" lon="8.65477">
        <ele>491</ele>
        <time>2021-08-05T08:50:07.421Z</time>
      </trkpt>
      <trkpt lat="47.01" lon="8.65477">
        <ele>490</ele>
        <time>2021-08-05T08:50:08.421Z</time>
      </trkpt>
      <trkpt lat="47.01" lon="8.65477">
        <ele>490</ele>
        <time>2021-08-05T08:50:09.420Z</time>
      </trkpt>
      <trkpt lat="47.01" lon="8.65476">
        <ele>490</ele>
        <time>2021-08-05T08:50:10.420Z</time>
      </trkpt>
      <trkpt lat="47.00999" lon="8.65475">
        <ele>490</ele>
        <time>2021-08-05T08:50:11.421Z</time>
      </trkpt>
      <trkpt lat="47.00998" lon="8.65475">
        <ele>490</ele>
        <time>2021-08-05T08:50:12.421Z</time>
      </trkpt>
      <trkpt lat="47.00997" lon="8.65475">
        <ele>490</ele>
        <time>2021-08-05T08:50:13.421Z</time>
      </trkpt>
      <trkpt lat="47.00997" lon="8.65475">
        <ele>490</ele>
        <time>2021-08-05T08:50:14.421Z</time>
      </trkpt>
      <trkpt lat="47.00997" lon="8.65475">
        <ele>491</ele>
        <time>2021-08-05T08:50:15.421Z</time>
      </trkpt>
      <trkpt lat="47.00996" lon="8.65474">
        <ele>492</ele>
        <time>2021-08-05T08:50:16.420Z</time>
      </trkpt>
      <trkpt lat="47.00995" lon="8.65473">
        <ele>493</ele>
        <time>2021-08-05T08:50:17.420Z</time>
      </trkpt>
      <trkpt lat="47.00994" lon="8.65472">
        <ele>493</ele>
        <time>2021-08-05T08:50:18.421Z</time>
      </trkpt>
      <trkpt lat="47.00993" lon="8.65472">
        <ele>493</ele>
        <time>2021-08-05T08:50:19.421Z</time>
      </trkpt>
      <trkpt lat="47.00993" lon="8.65471">
        <ele>494</ele>
        <time>2021-08-05T08:50:20.421Z</time>
      </trkpt>
      <trkpt lat="47.00992" lon="8.6547">
        <ele>495</ele>
        <time>2021-08-05T08:50:21.420Z</time>
      </trkpt>
      <trkpt lat="47.00991" lon="8.6547">
        <ele>495</ele>
        <time>2021-08-05T08:50:22.420Z</time>
      </trkpt>
      <trkpt lat="47.00991" lon="8.6547">
        <ele>495</ele>
        <time>2021-08-05T08:50:23.420Z</time>
      </trkpt>
      <trkpt lat="47.0099" lon="8.65469">
        <ele>496</ele>
        <time>2021-08-05T08:50:24.420Z</time>
      </trkpt>
      <trkpt lat="47.0099" lon="8.65468">
        <ele>495</ele>
        <time>2021-08-05T08:50:25.421Z</time>
      </trkpt>
      <trkpt lat="47.00989" lon="8.65468">
        <ele>495</ele>
        <time>2021-08-05T08:50:26.421Z</time>
      </trkpt>
      <trkpt lat="47.00988" lon="8.65467">
        <ele>495</ele>
        <time>2021-08-05T08:50:27.421Z</time>
      </trkpt>
      <trkpt lat="47.00987" lon="8.65465">
        <ele>495</ele>
        <time>2021-08-05T08:50:28.420Z</time>
      </trkpt>
      <trkpt lat="47.00986" lon="8.65464">
        <ele>495</ele>
        <time>2021-08-05T08:50:29.421Z</time>
      </trkpt>
      <trkpt lat="47.00985" lon="8.65464">
        <ele>495</ele>
        <time>2021-08-05T08:50:30.420Z</time>
      </trkpt>
      <trkpt lat="47.00985" lon="8.65464">
        <ele>495</ele>
        <time>2021-08-05T08:50:31.421Z</time>
      </trkpt>
      <trkpt lat="47.00984" lon="8.65464">
        <ele>495</ele>
        <time>2021-08-05T08:50:32.421Z</time>
      </trkpt>
      <trkpt lat="47.00983" lon="8.65463">
        <ele>495</ele>
        <time>2021-08-05T08:50:33.421Z</time>
      </trkpt>
      <trkpt lat="47.00982" lon="8.65463">
        <ele>495</ele>
        <time>2021-08-05T08:50:34.421Z</time>
      </trkpt>
      <trkpt lat="47.00981" lon="8.65462">
        <ele>495</ele>
        <time>2021-08-05T08:50:35.421Z</time>
      </trkpt>
      <trkpt lat="47.0098" lon="8.65461">
        <ele>495</ele>
        <time>2021-08-05T08:50:36.421Z</time>
      </trkpt>
      <trkpt lat="47.00979" lon="8.6546">
        <ele>495</ele>
        <time>2021-08-05T08:50:37.421Z</time>
      </trkpt>
      <trkpt lat="47.00979" lon="8.65459">
        <ele>495</ele>
        <time>2021-08-05T08:50:38.420Z</time>
      </trkpt>
      <trkpt lat="47.00978" lon="8.65459">
        <ele>495</ele>
        <time>2021-08-05T08:50:39.421Z</time>
      </trkpt>
      <trkpt lat="47.00978" lon="8.65458">
        <ele>496</ele>
        <time>2021-08-05T08:50:40.421Z</time>
      </trkpt>
      <trkpt lat="47.00977" lon="8.65457">
        <ele>496</ele>
        <time>2021-08-05T08:50:41.420Z</time>
      </trkpt>
      <trkpt lat="47.00976" lon="8.65457">
        <ele>497</ele>
        <time>2021-08-05T08:50:42.420Z</time>
      </trkpt>
      <trkpt lat="47.00976" lon="8.65456">
        <ele>497</ele>
        <time>2021-08-05T08:50:43.421Z</time>
      </trkpt>
      <trkpt lat="47.00976" lon="8.65456">
        <ele>497</ele>
        <time>2021-08-05T08:50:44.421Z</time>
      </trkpt>
      <trkpt lat="47.00975" lon="8.65456">
        <ele>498</ele>
        <time>2021-08-05T08:50:45.420Z</time>
      </trkpt>
      <trkpt lat="47.00974" lon="8.65455">
        <ele>498</ele>
        <time>2021-08-05T08:50:46.421Z</time>
      </trkpt>
      <trkpt lat="47.00974" lon="8.65455">
        <ele>498</ele>
        <time>2021-08-05T08:50:47.420Z</time>
      </trkpt>
      <trkpt lat="47.00973" lon="8.65454">
        <ele>498</ele>
        <time>2021-08-05T08:50:48.420Z</time>
      </trkpt>
      <trkpt lat="47.00972" lon="8.65455">
        <ele>498</ele>
        <time>2021-08-05T08:50:49.421Z</time>
      </trkpt>
      <trkpt lat="47.00971" lon="8.65454">
        <ele>497</ele>
        <time>2021-08-05T08:50:50.421Z</time>
      </trkpt>
      <trkpt lat="47.00971" lon="8.65454">
        <ele>497</ele>
        <time>2021-08-05T08:50:51.421Z</time>
      </trkpt>
      <trkpt lat="47.0097" lon="8.65453">
        <ele>496</ele>
        <time>2021-08-05T08:50:52.421Z</time>
      </trkpt>
      <trkpt lat="47.00969" lon="8.65453">
        <ele>496</ele>
        <time>2021-08-05T08:50:53.420Z</time>
      </trkpt>
      <trkpt lat="47.00969" lon="8.65452">
        <ele>496</ele>
        <time>2021-08-05T08:50:54.420Z</time>
      </trkpt>
      <trkpt lat="47.00968" lon="8.65451">
        <ele>496</ele>
        <time>2021-08-05T08:50:55.421Z</time>
      </trkpt>
      <trkpt lat="47.00967" lon="8.65451">
        <ele>496</ele>
        <time>2021-08-05T08:50:56.420Z</time>
      </trkpt>
      <trkpt lat="47.00965" lon="8.6545">
        <ele>495</ele>
        <time>2021-08-05T08:50:57.421Z</time>
      </trkpt>
      <trkpt lat="47.00965" lon="8.6545">
        <ele>495</ele>
        <time>2021-08-05T08:50:58.421Z</time>
      </trkpt>
      <trkpt lat="47.00964" lon="8.6545">
        <ele>495</ele>
        <time>2021-08-05T08:50:59.421Z</time>
      </trkpt>
      <trkpt lat="47.00963" lon="8.6545">
        <ele>495</ele>
        <time>2021-08-05T08:51:00.420Z</time>
      </trkpt>
      <trkpt lat="47.00962" lon="8.6545">
        <ele>494</ele>
        <time>2021-08-05T08:51:01.421Z</time>
      </trkpt>
      <trkpt lat="47.00961" lon="8.6545">
        <ele>494</ele>
        <time>2021-08-05T08:51:02.420Z</time>
      </trkpt>
      <trkpt lat="47.0096" lon="8.6545">
        <ele>494</ele>
        <time>2021-08-05T08:51:03.421Z</time>
      </trkpt>
      <trkpt lat="47.00959" lon="8.6545">
        <ele>494</ele>
        <time>2021-08-05T08:51:04.420Z</time>
      </trkpt>
      <trkpt lat="47.00959" lon="8.65449">
        <ele>493</ele>
        <time>2021-08-05T08:51:05.421Z</time>
      </trkpt>
      <trkpt lat="47.00958" lon="8.65449">
        <ele>493</ele>
        <time>2021-08-05T08:51:06.421Z</time>
      </trkpt>
      <trkpt lat="47.00957" lon="8.65447">
        <ele>493</ele>
        <time>2021-08-05T08:51:07.421Z</time>
      </trkpt>
      <trkpt lat="47.00956" lon="8.65447">
        <ele>493</ele>
        <time>2021-08-05T08:51:08.421Z</time>
      </trkpt>
      <trkpt lat="47.00955" lon="8.65446">
        <ele>494</ele>
        <time>2021-08-05T08:51:09.421Z</time>
      </trkpt>
      <trkpt lat="47.00955" lon="8.65445">
        <ele>494</ele>
        <time>2021-08-05T08:51:10.421Z</time>
      </trkpt>
      <trkpt lat="47.00954" lon="8.65446">
        <ele>494</ele>
        <time>2021-08-05T08:51:11.421Z</time>
      </trkpt>
      <trkpt lat="47.00953" lon="8.65445">
        <ele>494</ele>
        <time>2021-08-05T08:51:12.420Z</time>
      </trkpt>
      <trkpt lat="47.00952" lon="8.65445">
        <ele>495</ele>
        <time>2021-08-05T08:51:13.420Z</time>
      </trkpt>
      <trkpt lat="47.00951" lon="8.65444">
        <ele>495</ele>
        <time>2021-08-05T08:51:14.421Z</time>
      </trkpt>
      <trkpt lat="47.00949" lon="8.65443">
        <ele>495</ele>
        <time>2021-08-05T08:51:15.421Z</time>
      </trkpt>
      <trkpt lat="47.00948" lon="8.65443">
        <ele>495</ele>
        <time>2021-08-05T08:51:16.421Z</time>
      </trkpt>
      <trkpt lat="47.00947" lon="8.65442">
        <ele>495</ele>
        <time>2021-08-05T08:51:17.420Z</time>
      </trkpt>
      <trkpt lat="47.00947" lon="8.6544">
        <ele>496</ele>
        <time>2021-08-05T08:51:18.420Z</time>
      </trkpt>
      <trkpt lat="47.00946" lon="8.65439">
        <ele>496</ele>
        <time>2021-08-05T08:51:19.421Z</time>
      </trkpt>
      <trkpt lat="47.00946" lon="8.65438">
        <ele>496</ele>
        <time>2021-08-05T08:51:20.420Z</time>
      </trkpt>
      <trkpt lat="47.00945" lon="8.65437">
        <ele>497</ele>
        <time>2021-08-05T08:51:21.421Z</time>
      </trkpt>
      <trkpt lat="47.00945" lon="8.65435">
        <ele>497</ele>
        <time>2021-08-05T08:51:22.420Z</time>
      </trkpt>
      <trkpt lat="47.00945" lon="8.65435">
        <ele>497</ele>
        <time>2021-08-05T08:51:23.421Z</time>
      </trkpt>
      <trkpt lat="47.00944" lon="8.65433">
        <ele>496</ele>
        <time>2021-08-05T08:51:24.421Z</time>
      </trkpt>
      <trkpt lat="47.00943" lon="8.65432">
        <ele>496</ele>
        <time>2021-08-05T08:51:25.420Z</time>
      </trkpt>
      <trkpt lat="47.00943" lon="8.65431">
        <ele>496</ele>
        <time>2021-08-05T08:51:26.421Z</time>
      </trkpt>
      <trkpt lat="47.00943" lon="8.6543">
        <ele>496</ele>
        <time>2021-08-05T08:51:27.421Z</time>
      </trkpt>
      <trkpt lat="47.00943" lon="8.65429">
        <ele>495</ele>
        <time>2021-08-05T08:51:28.421Z</time>
      </trkpt>
      <trkpt lat="47.00943" lon="8.65428">
        <ele>495</ele>
        <time>2021-08-05T08:51:29.421Z</time>
      </trkpt>
      <trkpt lat="47.00943" lon="8.65427">
        <ele>495</ele>
        <time>2021-08-05T08:51:30.420Z</time>
      </trkpt>
      <trkpt lat="47.00943" lon="8.65425">
        <ele>495</ele>
        <time>2021-08-05T08:51:31.421Z</time>
      </trkpt>
      <trkpt lat="47.00942" lon="8.65424">
        <ele>494</ele>
        <time>2021-08-05T08:51:32.421Z</time>
      </trkpt>
      <trkpt lat="47.00942" lon="8.65424">
        <ele>493</ele>
        <time>2021-08-05T08:51:33.421Z</time>
      </trkpt>
      <trkpt lat="47.00941" lon="8.65422">
        <ele>493</ele>
        <time>2021-08-05T08:51:34.421Z</time>
      </trkpt>
      <trkpt lat="47.0094" lon="8.65422">
        <ele>492</ele>
        <time>2021-08-05T08:51:35.420Z</time>
      </trkpt>
      <trkpt lat="47.00941" lon="8.65422">
        <ele>492</ele>
        <time>2021-08-05T08:51:36.421Z</time>
      </trkpt>
      <trkpt lat="47.0094" lon="8.65421">
        <ele>492</ele>
        <time>2021-08-05T08:51:37.421Z</time>
      </trkpt>
      <trkpt lat="47.0094" lon="8.6542">
        <ele>491</ele>
        <time>2021-08-05T08:51:38.421Z</time>
      </trkpt>
      <trkpt lat="47.00939" lon="8.65418">
        <ele>491</ele>
        <time>2021-08-05T08:51:39.421Z</time>
      </trkpt>
      <trkpt lat="47.00939" lon="8.65417">
        <ele>491</ele>
        <time>2021-08-05T08:51:40.420Z</time>
      </trkpt>
      <trkpt lat="47.00938" lon="8.65416">
        <ele>491</ele>
        <time>2021-08-05T08:51:41.421Z</time>
      </trkpt>
      <trkpt lat="47.00938" lon="8.65415">
        <ele>491</ele>
        <time>2021-08-05T08:51:42.421Z</time>
      </trkpt>
      <trkpt lat="47.00938" lon="8.65413">
        <ele>492</ele>
        <time>2021-08-05T08:51:43.421Z</time>
      </trkpt>
      <trkpt lat="47.00937" lon="8.65412">
        <ele>492</ele>
        <time>2021-08-05T08:51:44.420Z</time>
      </trkpt>
      <trkpt lat="47.00937" lon="8.65411">
        <ele>492</ele>
        <time>2021-08-05T08:51:45.421Z</time>
      </trkpt>
      <trkpt lat="47.00937" lon="8.6541">
        <ele>492</ele>
        <time>2021-08-05T08:51:46.421Z</time>
      </trkpt>
      <trkpt lat="47.00936" lon="8.65409">
        <ele>492</ele>
        <time>2021-08-05T08:51:47.421Z</time>
      </trkpt>
      <trkpt lat="47.00936" lon="8.65408">
        <ele>492</ele>
        <time>2021-08-05T08:51:48.421Z</time>
      </trkpt>
      <trkpt lat="47.00936" lon="8.65407">
        <ele>492</ele>
        <time>2021-08-05T08:51:49.421Z</time>
      </trkpt>
      <trkpt lat="47.00935" lon="8.65405">
        <ele>492</ele>
        <time>2021-08-05T08:51:50.421Z</time>
      </trkpt>
      <trkpt lat="47.00934" lon="8.65404">
        <ele>492</ele>
        <time>2021-08-05T08:51:51.421Z</time>
      </trkpt>
      <trkpt lat="47.00934" lon="8.65403">
        <ele>492</ele>
        <time>2021-08-05T08:51:52.420Z</time>
      </trkpt>
      <trkpt lat="47.00933" lon="8.65402">
        <ele>492</ele>
        <time>2021-08-05T08:51:53.421Z</time>
      </trkpt>
      <trkpt lat="47.00933" lon="8.654">
        <ele>492</ele>
        <time>2021-08-05T08:51:54.421Z</time>
      </trkpt>
      <trkpt lat="47.00933" lon="8.65399">
        <ele>492</ele>
        <time>2021-08-05T08:51:55.421Z</time>
      </trkpt>
      <trkpt lat="47.00932" lon="8.65399">
        <ele>492</ele>
        <time>2021-08-05T08:51:56.421Z</time>
      </trkpt>
      <trkpt lat="47.00932" lon="8.65398">
        <ele>492</ele>
        <time>2021-08-05T08:51:57.420Z</time>
      </trkpt>
      <trkpt lat="47.00932" lon="8.65397">
        <ele>492</ele>
        <time>2021-08-05T08:51:58.421Z</time>
      </trkpt>
      <trkpt lat="47.00932" lon="8.65396">
        <ele>492</ele>
        <time>2021-08-05T08:51:59.421Z</time>
      </trkpt>
      <trkpt lat="47.00931" lon="8.65395">
        <ele>493</ele>
        <time>2021-08-05T08:52:00.421Z</time>
      </trkpt>
      <trkpt lat="47.00931" lon="8.65394">
        <ele>493</ele>
        <time>2021-08-05T08:52:01.421Z</time>
      </trkpt>
      <trkpt lat="47.0093" lon="8.65393">
        <ele>493</ele>
        <time>2021-08-05T08:52:02.421Z</time>
      </trkpt>
      <trkpt lat="47.0093" lon="8.65391">
        <ele>493</ele>
        <time>2021-08-05T08:52:03.420Z</time>
      </trkpt>
      <trkpt lat="47.0093" lon="8.6539">
        <ele>493</ele>
        <time>2021-08-05T08:52:04.421Z</time>
      </trkpt>
      <trkpt lat="47.00929" lon="8.65388">
        <ele>493</ele>
        <time>2021-08-05T08:52:05.420Z</time>
      </trkpt>
      <trkpt lat="47.00929" lon="8.65387">
        <ele>493</ele>
        <time>2021-08-05T08:52:06.420Z</time>
      </trkpt>
      <trkpt lat="47.00929" lon="8.65385">
        <ele>493</ele>
        <time>2021-08-05T08:52:07.420Z</time>
      </trkpt>
      <trkpt lat="47.00928" lon="8.65384">
        <ele>493</ele>
        <time>2021-08-05T08:52:08.421Z</time>
      </trkpt>
      <trkpt lat="47.00927" lon="8.65382">
        <ele>493</ele>
        <time>2021-08-05T08:52:09.421Z</time>
      </trkpt>
      <trkpt lat="47.00927" lon="8.65381">
        <ele>493</ele>
        <time>2021-08-05T08:52:10.420Z</time>
      </trkpt>
      <trkpt lat="47.00927" lon="8.6538">
        <ele>493</ele>
        <time>2021-08-05T08:52:11.421Z</time>
      </trkpt>
      <trkpt lat="47.00926" lon="8.65378">
        <ele>493</ele>
        <time>2021-08-05T08:52:12.421Z</time>
      </trkpt>
      <trkpt lat="47.00926" lon="8.65377">
        <ele>493</ele>
        <time>2021-08-05T08:52:13.420Z</time>
      </trkpt>
      <trkpt lat="47.00925" lon="8.65376">
        <ele>493</ele>
        <time>2021-08-05T08:52:14.420Z</time>
      </trkpt>
      <trkpt lat="47.00925" lon="8.65375">
        <ele>493</ele>
        <time>2021-08-05T08:52:15.420Z</time>
      </trkpt>
      <trkpt lat="47.00924" lon="8.65373">
        <ele>493</ele>
        <time>2021-08-05T08:52:16.420Z</time>
      </trkpt>
      <trkpt lat="47.00924" lon="8.65371">
        <ele>493</ele>
        <time>2021-08-05T08:52:17.420Z</time>
      </trkpt>
      <trkpt lat="47.00924" lon="8.6537">
        <ele>493</ele>
        <time>2021-08-05T08:52:18.421Z</time>
      </trkpt>
      <trkpt lat="47.00924" lon="8.65369">
        <ele>493</ele>
        <time>2021-08-05T08:52:19.420Z</time>
      </trkpt>
      <trkpt lat="47.00925" lon="8.65368">
        <ele>493</ele>
        <time>2021-08-05T08:52:20.421Z</time>
      </trkpt>
      <trkpt lat="47.00924" lon="8.65367">
        <ele>493</ele>
        <time>2021-08-05T08:52:21.420Z</time>
      </trkpt>
      <trkpt lat="47.00924" lon="8.65365">
        <ele>493</ele>
        <time>2021-08-05T08:52:22.421Z</time>
      </trkpt>
      <trkpt lat="47.00924" lon="8.65363">
        <ele>493</ele>
        <time>2021-08-05T08:52:23.420Z</time>
      </trkpt>
      <trkpt lat="47.00924" lon="8.65361">
        <ele>493</ele>
        <time>2021-08-05T08:52:24.420Z</time>
      </trkpt>
      <trkpt lat="47.00923" lon="8.6536">
        <ele>493</ele>
        <time>2021-08-05T08:52:25.420Z</time>
      </trkpt>
      <trkpt lat="47.00923" lon="8.65359">
        <ele>493</ele>
        <time>2021-08-05T08:52:26.421Z</time>
      </trkpt>
      <trkpt lat="47.00922" lon="8.65358">
        <ele>493</ele>
        <time>2021-08-05T08:52:27.420Z</time>
      </trkpt>
      <trkpt lat="47.00921" lon="8.65357">
        <ele>493</ele>
        <time>2021-08-05T08:52:28.420Z</time>
      </trkpt>
      <trkpt lat="47.00921" lon="8.65357">
        <ele>493</ele>
        <time>2021-08-05T08:52:29.420Z</time>
      </trkpt>
      <trkpt lat="47.0092" lon="8.65357">
        <ele>493</ele>
        <time>2021-08-05T08:52:30.420Z</time>
      </trkpt>
      <trkpt lat="47.00919" lon="8.65356">
        <ele>493</ele>
        <time>2021-08-05T08:52:31.420Z</time>
      </trkpt>
      <trkpt lat="47.00919" lon="8.65355">
        <ele>493</ele>
        <time>2021-08-05T08:52:32.420Z</time>
      </trkpt>
      <trkpt lat="47.00918" lon="8.65354">
        <ele>493</ele>
        <time>2021-08-05T08:52:33.420Z</time>
      </trkpt>
      <trkpt lat="47.00918" lon="8.65353">
        <ele>493</ele>
        <time>2021-08-05T08:52:34.420Z</time>
      </trkpt>
      <trkpt lat="47.00917" lon="8.65352">
        <ele>494</ele>
        <time>2021-08-05T08:52:35.420Z</time>
      </trkpt>
      <trkpt lat="47.00916" lon="8.6535">
        <ele>494</ele>
        <time>2021-08-05T08:52:36.420Z</time>
      </trkpt>
      <trkpt lat="47.00916" lon="8.65348">
        <ele>494</ele>
        <time>2021-08-05T08:52:37.420Z</time>
      </trkpt>
      <trkpt lat="47.00915" lon="8.65346">
        <ele>494</ele>
        <time>2021-08-05T08:52:38.420Z</time>
      </trkpt>
      <trkpt lat="47.00915" lon="8.65345">
        <ele>493</ele>
        <time>2021-08-05T08:52:39.421Z</time>
      </trkpt>
      <trkpt lat="47.00915" lon="8.65345">
        <ele>493</ele>
        <time>2021-08-05T08:52:40.420Z</time>
      </trkpt>
      <trkpt lat="47.00914" lon="8.65343">
        <ele>493</ele>
        <time>2021-08-05T08:52:41.421Z</time>
      </trkpt>
      <trkpt lat="47.00914" lon="8.65341">
        <ele>493</ele>
        <time>2021-08-05T08:52:42.421Z</time>
      </trkpt>
      <trkpt lat="47.00913" lon="8.6534">
        <ele>493</ele>
        <time>2021-08-05T08:52:43.420Z</time>
      </trkpt>
      <trkpt lat="47.00913" lon="8.65339">
        <ele>493</ele>
        <time>2021-08-05T08:52:44.421Z</time>
      </trkpt>
      <trkpt lat="47.00912" lon="8.65338">
        <ele>493</ele>
        <time>2021-08-05T08:52:45.421Z</time>
      </trkpt>
      <trkpt lat="47.00912" lon="8.65337">
        <ele>493</ele>
        <time>2021-08-05T08:52:46.421Z</time>
      </trkpt>
      <trkpt lat="47.00912" lon="8.65335">
        <ele>494</ele>
        <time>2021-08-05T08:52:47.421Z</time>
      </trkpt>
      <trkpt lat="47.00911" lon="8.65334">
        <ele>494</ele>
        <time>2021-08-05T08:52:48.420Z</time>
      </trkpt>
      <trkpt lat="47.00911" lon="8.65333">
        <ele>494</ele>
        <time>2021-08-05T08:52:49.420Z</time>
      </trkpt>
      <trkpt lat="47.0091" lon="8.65331">
        <ele>494</ele>
        <time>2021-08-05T08:52:50.420Z</time>
      </trkpt>
      <trkpt lat="47.0091" lon="8.65331">
        <ele>494</ele>
        <time>2021-08-05T08:52:51.420Z</time>
      </trkpt>
      <trkpt lat="47.00909" lon="8.65329">
        <ele>494</ele>
        <time>2021-08-05T08:52:52.421Z</time>
      </trkpt>
      <trkpt lat="47.00909" lon="8.65329">
        <ele>494</ele>
        <time>2021-08-05T08:52:53.421Z</time>
      </trkpt>
      <trkpt lat="47.00909" lon="8.65328">
        <ele>494</ele>
        <time>2021-08-05T08:52:54.420Z</time>
      </trkpt>
      <trkpt lat="47.00908" lon="8.65327">
        <ele>495</ele>
        <time>2021-08-05T08:52:55.421Z</time>
      </trkpt>
      <trkpt lat="47.00908" lon="8.65326">
        <ele>495</ele>
        <time>2021-08-05T08:52:56.421Z</time>
      </trkpt>
      <trkpt lat="47.00907" lon="8.65325">
        <ele>495</ele>
        <time>2021-08-05T08:52:57.421Z</time>
      </trkpt>
      <trkpt lat="47.00907" lon="8.65324">
        <ele>494</ele>
        <time>2021-08-05T08:52:58.420Z</time>
      </trkpt>
      <trkpt lat="47.00906" lon="8.65324">
        <ele>495</ele>
        <time>2021-08-05T08:52:59.421Z</time>
      </trkpt>
      <trkpt lat="47.00906" lon="8.65322">
        <ele>494</ele>
        <time>2021-08-05T08:53:00.421Z</time>
      </trkpt>
      <trkpt lat="47.00906" lon="8.65321">
        <ele>494</ele>
        <time>2021-08-05T08:53:01.421Z</time>
      </trkpt>
      <trkpt lat="47.00906" lon="8.6532">
        <ele>494</ele>
        <time>2021-08-05T08:53:02.421Z</time>
      </trkpt>
      <trkpt lat="47.00905" lon="8.65319">
        <ele>494</ele>
        <time>2021-08-05T08:53:03.421Z</time>
      </trkpt>
      <trkpt lat="47.00905" lon="8.65318">
        <ele>494</ele>
        <time>2021-08-05T08:53:04.421Z</time>
      </trkpt>
      <trkpt lat="47.00905" lon="8.65317">
        <ele>494</ele>
        <time>2021-08-05T08:53:05.421Z</time>
      </trkpt>
      <trkpt lat="47.00904" lon="8.65315">
        <ele>494</ele>
        <time>2021-08-05T08:53:06.421Z</time>
      </trkpt>
      <trkpt lat="47.00904" lon="8.65314">
        <ele>494</ele>
        <time>2021-08-05T08:53:07.420Z</time>
      </trkpt>
      <trkpt lat="47.00904" lon="8.65313">
        <ele>494</ele>
        <time>2021-08-05T08:53:08.421Z</time>
      </trkpt>
      <trkpt lat="47.00903" lon="8.65311">
        <ele>494</ele>
        <time>2021-08-05T08:53:09.421Z</time>
      </trkpt>
      <trkpt lat="47.00902" lon="8.6531">
        <ele>494</ele>
        <time>2021-08-05T08:53:10.420Z</time>
      </trkpt>
      <trkpt lat="47.00901" lon="8.65309">
        <ele>494</ele>
        <time>2021-08-05T08:53:11.421Z</time>
      </trkpt>
      <trkpt lat="47.00901" lon="8.65307">
        <ele>494</ele>
        <time>2021-08-05T08:53:12.420Z</time>
      </trkpt>
      <trkpt lat="47.00901" lon="8.65305">
        <ele>494</ele>
        <time>2021-08-05T08:53:13.421Z</time>
      </trkpt>
      <trkpt lat="47.009" lon="8.65303">
        <ele>494</ele>
        <time>2021-08-05T08:53:14.421Z</time>
      </trkpt>
      <trkpt lat="47.009" lon="8.65302">
        <ele>494</ele>
        <time>2021-08-05T08:53:15.421Z</time>
      </trkpt>
      <trkpt lat="47.00899" lon="8.653">
        <ele>494</ele>
        <time>2021-08-05T08:53:16.421Z</time>
      </trkpt>
      <trkpt lat="47.00898" lon="8.65298">
        <ele>495</ele>
        <time>2021-08-05T08:53:17.421Z</time>
      </trkpt>
      <trkpt lat="47.00897" lon="8.65297">
        <ele>495</ele>
        <time>2021-08-05T08:53:18.421Z</time>
      </trkpt>
      <trkpt lat="47.00897" lon="8.65295">
        <ele>495</ele>
        <time>2021-08-05T08:53:19.421Z</time>
      </trkpt>
      <trkpt lat="47.00896" lon="8.65294">
        <ele>495</ele>
        <time>2021-08-05T08:53:20.420Z</time>
      </trkpt>
      <trkpt lat="47.00896" lon="8.65293">
        <ele>494</ele>
        <time>2021-08-05T08:53:21.421Z</time>
      </trkpt>
      <trkpt lat="47.00896" lon="8.65292">
        <ele>494</ele>
        <time>2021-08-05T08:53:22.421Z</time>
      </trkpt>
      <trkpt lat="47.00895" lon="8.6529">
        <ele>494</ele>
        <time>2021-08-05T08:53:23.420Z</time>
      </trkpt>
      <trkpt lat="47.00894" lon="8.65289">
        <ele>494</ele>
        <time>2021-08-05T08:53:24.421Z</time>
      </trkpt>
      <trkpt lat="47.00894" lon="8.65287">
        <ele>494</ele>
        <time>2021-08-05T08:53:25.421Z</time>
      </trkpt>
      <trkpt lat="47.00893" lon="8.65286">
        <ele>494</ele>
        <time>2021-08-05T08:53:26.420Z</time>
      </trkpt>
      <trkpt lat="47.00892" lon="8.65284">
        <ele>493</ele>
        <time>2021-08-05T08:53:27.421Z</time>
      </trkpt>
      <trkpt lat="47.00892" lon="8.65283">
        <ele>493</ele>
        <time>2021-08-05T08:53:28.421Z</time>
      </trkpt>
      <trkpt lat="47.00892" lon="8.65283">
        <ele>493</ele>
        <time>2021-08-05T08:53:29.421Z</time>
      </trkpt>
      <trkpt lat="47.00892" lon="8.65283">
        <ele>494</ele>
        <time>2021-08-05T08:53:30.421Z</time>
      </trkpt>
      <trkpt lat="47.00892" lon="8.65283">
        <ele>494</ele>
        <time>2021-08-05T08:53:31.420Z</time>
      </trkpt>
      <trkpt lat="47.00892" lon="8.65283">
        <ele>494</ele>
        <time>2021-08-05T08:53:32.420Z</time>
      </trkpt>
      <trkpt lat="47.00891" lon="8.65284">
        <ele>495</ele>
        <time>2021-08-05T08:53:33.421Z</time>
      </trkpt>
      <trkpt lat="47.00892" lon="8.65285">
        <ele>495</ele>
        <time>2021-08-05T08:53:34.421Z</time>
      </trkpt>
      <trkpt lat="47.00891" lon="8.65285">
        <ele>495</ele>
        <time>2021-08-05T08:53:35.421Z</time>
      </trkpt>
      <trkpt lat="47.0089" lon="8.65284">
        <ele>498</ele>
        <time>2021-08-05T08:53:36.422Z</time>
      </trkpt>
      <trkpt lat="47.0089" lon="8.65284">
        <ele>498</ele>
        <time>2021-08-05T08:53:37.422Z</time>
      </trkpt>
      <trkpt lat="47.0089" lon="8.65284">
        <ele>498</ele>
        <time>2021-08-05T08:53:38.422Z</time>
      </trkpt>
      <trkpt lat="47.0089" lon="8.65284">
        <ele>497</ele>
        <time>2021-08-05T08:53:39.422Z</time>
      </trkpt>
      <trkpt lat="47.0089" lon="8.65284">
        <ele>497</ele>
        <time>2021-08-05T08:53:40.421Z</time>
      </trkpt>
      <trkpt lat="47.0089" lon="8.65285">
        <ele>496</ele>
        <time>2021-08-05T08:53:41.422Z</time>
      </trkpt>
      <trkpt lat="47.00891" lon="8.65285">
        <ele>496</ele>
        <time>2021-08-05T08:53:42.421Z</time>
      </trkpt>
      <trkpt lat="47.00891" lon="8.65285">
        <ele>495</ele>
        <time>2021-08-05T08:53:43.421Z</time>
      </trkpt>
      <trkpt lat="47.00891" lon="8.65285">
        <ele>495</ele>
        <time>2021-08-05T08:53:44.421Z</time>
      </trkpt>
      <trkpt lat="47.00891" lon="8.65285">
        <ele>495</ele>
        <time>2021-08-05T08:53:45.421Z</time>
      </trkpt>
      <trkpt lat="47.00891" lon="8.65281">
        <ele>492</ele>
        <time>2021-08-05T08:53:46.421Z</time>
      </trkpt>
      <trkpt lat="47.00891" lon="8.6528">
        <ele>492</ele>
        <time>2021-08-05T08:53:47.421Z</time>
      </trkpt>
      <trkpt lat="47.0089" lon="8.65279">
        <ele>492</ele>
        <time>2021-08-05T08:53:48.421Z</time>
      </trkpt>
      <trkpt lat="47.00889" lon="8.65277">
        <ele>493</ele>
        <time>2021-08-05T08:53:49.422Z</time>
      </trkpt>
      <trkpt lat="47.00888" lon="8.65276">
        <ele>493</ele>
        <time>2021-08-05T08:53:50.421Z</time>
      </trkpt>
      <trkpt lat="47.00888" lon="8.65275">
        <ele>494</ele>
        <time>2021-08-05T08:53:51.421Z</time>
      </trkpt>
      <trkpt lat="47.00887" lon="8.65274">
        <ele>494</ele>
        <time>2021-08-05T08:53:52.421Z</time>
      </trkpt>
      <trkpt lat="47.00887" lon="8.65273">
        <ele>493</ele>
        <time>2021-08-05T08:53:53.421Z</time>
      </trkpt>
      <trkpt lat="47.00887" lon="8.65272">
        <ele>493</ele>
        <time>2021-08-05T08:53:54.421Z</time>
      </trkpt>
      <trkpt lat="47.00886" lon="8.65271">
        <ele>493</ele>
        <time>2021-08-05T08:53:55.421Z</time>
      </trkpt>
      <trkpt lat="47.00886" lon="8.6527">
        <ele>493</ele>
        <time>2021-08-05T08:53:56.421Z</time>
      </trkpt>
      <trkpt lat="47.00886" lon="8.65269">
        <ele>493</ele>
        <time>2021-08-05T08:53:57.422Z</time>
      </trkpt>
      <trkpt lat="47.00885" lon="8.65266">
        <ele>493</ele>
        <time>2021-08-05T08:53:58.421Z</time>
      </trkpt>
      <trkpt lat="47.00884" lon="8.65264">
        <ele>493</ele>
        <time>2021-08-05T08:53:59.421Z</time>
      </trkpt>
      <trkpt lat="47.00883" lon="8.65262">
        <ele>494</ele>
        <time>2021-08-05T08:54:00.421Z</time>
      </trkpt>
      <trkpt lat="47.00882" lon="8.65262">
        <ele>494</ele>
        <time>2021-08-05T08:54:01.421Z</time>
      </trkpt>
      <trkpt lat="47.00881" lon="8.65261">
        <ele>494</ele>
        <time>2021-08-05T08:54:02.422Z</time>
      </trkpt>
      <trkpt lat="47.00881" lon="8.6526">
        <ele>494</ele>
        <time>2021-08-05T08:54:03.421Z</time>
      </trkpt>
      <trkpt lat="47.00881" lon="8.65259">
        <ele>494</ele>
        <time>2021-08-05T08:54:04.422Z</time>
      </trkpt>
      <trkpt lat="47.00881" lon="8.65258">
        <ele>494</ele>
        <time>2021-08-05T08:54:05.421Z</time>
      </trkpt>
      <trkpt lat="47.0088" lon="8.65256">
        <ele>494</ele>
        <time>2021-08-05T08:54:06.421Z</time>
      </trkpt>
      <trkpt lat="47.00879" lon="8.65255">
        <ele>494</ele>
        <time>2021-08-05T08:54:07.422Z</time>
      </trkpt>
      <trkpt lat="47.00879" lon="8.65253">
        <ele>494</ele>
        <time>2021-08-05T08:54:08.421Z</time>
      </trkpt>
      <trkpt lat="47.00879" lon="8.65252">
        <ele>494</ele>
        <time>2021-08-05T08:54:09.421Z</time>
      </trkpt>
      <trkpt lat="47.00878" lon="8.6525">
        <ele>494</ele>
        <time>2021-08-05T08:54:10.421Z</time>
      </trkpt>
      <trkpt lat="47.00878" lon="8.65249">
        <ele>494</ele>
        <time>2021-08-05T08:54:11.422Z</time>
      </trkpt>
      <trkpt lat="47.00877" lon="8.65247">
        <ele>494</ele>
        <time>2021-08-05T08:54:12.421Z</time>
      </trkpt>
      <trkpt lat="47.00877" lon="8.65246">
        <ele>494</ele>
        <time>2021-08-05T08:54:13.422Z</time>
      </trkpt>
      <trkpt lat="47.00876" lon="8.65246">
        <ele>494</ele>
        <time>2021-08-05T08:54:14.421Z</time>
      </trkpt>
      <trkpt lat="47.00876" lon="8.65245">
        <ele>493</ele>
        <time>2021-08-05T08:54:15.421Z</time>
      </trkpt>
      <trkpt lat="47.00875" lon="8.65243">
        <ele>493</ele>
        <time>2021-08-05T08:54:16.421Z</time>
      </trkpt>
      <trkpt lat="47.00875" lon="8.65242">
        <ele>493</ele>
        <time>2021-08-05T08:54:17.421Z</time>
      </trkpt>
      <trkpt lat="47.00875" lon="8.65241">
        <ele>493</ele>
        <time>2021-08-05T08:54:18.421Z</time>
      </trkpt>
      <trkpt lat="47.00874" lon="8.65239">
        <ele>493</ele>
        <time>2021-08-05T08:54:19.421Z</time>
      </trkpt>
      <trkpt lat="47.00874" lon="8.65238">
        <ele>493</ele>
        <time>2021-08-05T08:54:20.421Z</time>
      </trkpt>
      <trkpt lat="47.00873" lon="8.65237">
        <ele>492</ele>
        <time>2021-08-05T08:54:21.421Z</time>
      </trkpt>
      <trkpt lat="47.00873" lon="8.65236">
        <ele>492</ele>
        <time>2021-08-05T08:54:22.421Z</time>
      </trkpt>
      <trkpt lat="47.00872" lon="8.65235">
        <ele>491</ele>
        <time>2021-08-05T08:54:23.422Z</time>
      </trkpt>
      <trkpt lat="47.00872" lon="8.65234">
        <ele>491</ele>
        <time>2021-08-05T08:54:24.421Z</time>
      </trkpt>
      <trkpt lat="47.00871" lon="8.65233">
        <ele>491</ele>
        <time>2021-08-05T08:54:25.421Z</time>
      </trkpt>
      <trkpt lat="47.00871" lon="8.65231">
        <ele>490</ele>
        <time>2021-08-05T08:54:26.421Z</time>
      </trkpt>
      <trkpt lat="47.0087" lon="8.6523">
        <ele>490</ele>
        <time>2021-08-05T08:54:27.421Z</time>
      </trkpt>
      <trkpt lat="47.00869" lon="8.65228">
        <ele>490</ele>
        <time>2021-08-05T08:54:28.421Z</time>
      </trkpt>
      <trkpt lat="47.00869" lon="8.65227">
        <ele>490</ele>
        <time>2021-08-05T08:54:29.421Z</time>
      </trkpt>
      <trkpt lat="47.00868" lon="8.65226">
        <ele>490</ele>
        <time>2021-08-05T08:54:30.421Z</time>
      </trkpt>
      <trkpt lat="47.00868" lon="8.65226">
        <ele>490</ele>
        <time>2021-08-05T08:54:31.421Z</time>
      </trkpt>
      <trkpt lat="47.00867" lon="8.65224">
        <ele>490</ele>
        <time>2021-08-05T08:54:32.422Z</time>
      </trkpt>
      <trkpt lat="47.00866" lon="8.65223">
        <ele>490</ele>
        <time>2021-08-05T08:54:33.422Z</time>
      </trkpt>
      <trkpt lat="47.00865" lon="8.65222">
        <ele>490</ele>
        <time>2021-08-05T08:54:34.421Z</time>
      </trkpt>
      <trkpt lat="47.00865" lon="8.65221">
        <ele>490</ele>
        <time>2021-08-05T08:54:35.421Z</time>
      </trkpt>
      <trkpt lat="47.00865" lon="8.6522">
        <ele>490</ele>
        <time>2021-08-05T08:54:36.421Z</time>
      </trkpt>
      <trkpt lat="47.00864" lon="8.65219">
        <ele>490</ele>
        <time>2021-08-05T08:54:37.421Z</time>
      </trkpt>
      <trkpt lat="47.00864" lon="8.65218">
        <ele>490</ele>
        <time>2021-08-05T08:54:38.421Z</time>
      </trkpt>
      <trkpt lat="47.00864" lon="8.65217">
        <ele>490</ele>
        <time>2021-08-05T08:54:39.422Z</time>
      </trkpt>
      <trkpt lat="47.00864" lon="8.65216">
        <ele>490</ele>
        <time>2021-08-05T08:54:40.421Z</time>
      </trkpt>
      <trkpt lat="47.00863" lon="8.65215">
        <ele>489</ele>
        <time>2021-08-05T08:54:41.421Z</time>
      </trkpt>
      <trkpt lat="47.00863" lon="8.65215">
        <ele>489</ele>
        <time>2021-08-05T08:54:42.421Z</time>
      </trkpt>
      <trkpt lat="47.00862" lon="8.65214">
        <ele>489</ele>
        <time>2021-08-05T08:54:43.422Z</time>
      </trkpt>
      <trkpt lat="47.00862" lon="8.65214">
        <ele>489</ele>
        <time>2021-08-05T08:54:44.421Z</time>
      </trkpt>
      <trkpt lat="47.00861" lon="8.65214">
        <ele>489</ele>
        <time>2021-08-05T08:54:45.421Z</time>
      </trkpt>
      <trkpt lat="47.00861" lon="8.65214">
        <ele>489</ele>
        <time>2021-08-05T08:54:46.421Z</time>
      </trkpt>
      <trkpt lat="47.0086" lon="8.65213">
        <ele>489</ele>
        <time>2021-08-05T08:54:47.421Z</time>
      </trkpt>
      <trkpt lat="47.00859" lon="8.65213">
        <ele>490</ele>
        <time>2021-08-05T08:54:48.421Z</time>
      </trkpt>
      <trkpt lat="47.00857" lon="8.65212">
        <ele>490</ele>
        <time>2021-08-05T08:54:49.421Z</time>
      </trkpt>
      <trkpt lat="47.00857" lon="8.65211">
        <ele>490</ele>
        <time>2021-08-05T08:54:50.421Z</time>
      </trkpt>
      <trkpt lat="47.00856" lon="8.6521">
        <ele>489</ele>
        <time>2021-08-05T08:54:51.421Z</time>
      </trkpt>
      <trkpt lat="47.00855" lon="8.6521">
        <ele>489</ele>
        <time>2021-08-05T08:54:52.421Z</time>
      </trkpt>
      <trkpt lat="47.00854" lon="8.65208">
        <ele>488</ele>
        <time>2021-08-05T08:54:53.421Z</time>
      </trkpt>
      <trkpt lat="47.00853" lon="8.65208">
        <ele>488</ele>
        <time>2021-08-05T08:54:54.421Z</time>
      </trkpt>
      <trkpt lat="47.00853" lon="8.65208">
        <ele>488</ele>
        <time>2021-08-05T08:54:55.421Z</time>
      </trkpt>
      <trkpt lat="47.00853" lon="8.65208">
        <ele>489</ele>
        <time>2021-08-05T08:54:56.421Z</time>
      </trkpt>
      <trkpt lat="47.00853" lon="8.65207">
        <ele>489</ele>
        <time>2021-08-05T08:54:57.422Z</time>
      </trkpt>
      <trkpt lat="47.00853" lon="8.65207">
        <ele>489</ele>
        <time>2021-08-05T08:54:58.422Z</time>
      </trkpt>
      <trkpt lat="47.00853" lon="8.65208">
        <ele>489</ele>
        <time>2021-08-05T08:54:59.421Z</time>
      </trkpt>
      <trkpt lat="47.00852" lon="8.65208">
        <ele>489</ele>
        <time>2021-08-05T08:55:00.421Z</time>
      </trkpt>
      <trkpt lat="47.00851" lon="8.65207">
        <ele>489</ele>
        <time>2021-08-05T08:55:01.421Z</time>
      </trkpt>
      <trkpt lat="47.0085" lon="8.65206">
        <ele>489</ele>
        <time>2021-08-05T08:55:02.421Z</time>
      </trkpt>
      <trkpt lat="47.00849" lon="8.65206">
        <ele>489</ele>
        <time>2021-08-05T08:55:03.422Z</time>
      </trkpt>
      <trkpt lat="47.00849" lon="8.65205">
        <ele>489</ele>
        <time>2021-08-05T08:55:04.421Z</time>
      </trkpt>
      <trkpt lat="47.00848" lon="8.65205">
        <ele>489</ele>
        <time>2021-08-05T08:55:05.421Z</time>
      </trkpt>
      <trkpt lat="47.00848" lon="8.65204">
        <ele>489</ele>
        <time>2021-08-05T08:55:06.421Z</time>
      </trkpt>
      <trkpt lat="47.00847" lon="8.65204">
        <ele>489</ele>
        <time>2021-08-05T08:55:07.422Z</time>
      </trkpt>
      <trkpt lat="47.00847" lon="8.65204">
        <ele>489</ele>
        <time>2021-08-05T08:55:08.421Z</time>
      </trkpt>
      <trkpt lat="47.00846" lon="8.65204">
        <ele>489</ele>
        <time>2021-08-05T08:55:09.421Z</time>
      </trkpt>
      <trkpt lat="47.00846" lon="8.65204">
        <ele>488</ele>
        <time>2021-08-05T08:55:10.421Z</time>
      </trkpt>
      <trkpt lat="47.00845" lon="8.65204">
        <ele>489</ele>
        <time>2021-08-05T08:55:11.421Z</time>
      </trkpt>
      <trkpt lat="47.00845" lon="8.65204">
        <ele>489</ele>
        <time>2021-08-05T08:55:12.421Z</time>
      </trkpt>
      <trkpt lat="47.00845" lon="8.65204">
        <ele>489</ele>
        <time>2021-08-05T08:55:13.421Z</time>
      </trkpt>
      <trkpt lat="47.00845" lon="8.65205">
        <ele>489</ele>
        <time>2021-08-05T08:55:14.421Z</time>
      </trkpt>
      <trkpt lat="47.00845" lon="8.65205">
        <ele>490</ele>
        <time>2021-08-05T08:55:15.421Z</time>
      </trkpt>
      <trkpt lat="47.00844" lon="8.65205">
        <ele>490</ele>
        <time>2021-08-05T08:55:16.422Z</time>
      </trkpt>
      <trkpt lat="47.00844" lon="8.65205">
        <ele>491</ele>
        <time>2021-08-05T08:55:17.422Z</time>
      </trkpt>
      <trkpt lat="47.00843" lon="8.65205">
        <ele>491</ele>
        <time>2021-08-05T08:55:18.421Z</time>
      </trkpt>
      <trkpt lat="47.00843" lon="8.65205">
        <ele>491</ele>
        <time>2021-08-05T08:55:19.421Z</time>
      </trkpt>
      <trkpt lat="47.00843" lon="8.65206">
        <ele>492</ele>
        <time>2021-08-05T08:55:20.421Z</time>
      </trkpt>
      <trkpt lat="47.00842" lon="8.65205">
        <ele>492</ele>
        <time>2021-08-05T08:55:21.421Z</time>
      </trkpt>
      <trkpt lat="47.00842" lon="8.65205">
        <ele>492</ele>
        <time>2021-08-05T08:55:22.421Z</time>
      </trkpt>
      <trkpt lat="47.00841" lon="8.65205">
        <ele>491</ele>
        <time>2021-08-05T08:55:23.422Z</time>
      </trkpt>
      <trkpt lat="47.00841" lon="8.65206">
        <ele>491</ele>
        <time>2021-08-05T08:55:24.421Z</time>
      </trkpt>
      <trkpt lat="47.0084" lon="8.65205">
        <ele>490</ele>
        <time>2021-08-05T08:55:25.422Z</time>
      </trkpt>
      <trkpt lat="47.0084" lon="8.65205">
        <ele>490</ele>
        <time>2021-08-05T08:55:26.421Z</time>
      </trkpt>
      <trkpt lat="47.0084" lon="8.65205">
        <ele>490</ele>
        <time>2021-08-05T08:55:27.422Z</time>
      </trkpt>
      <trkpt lat="47.00839" lon="8.65205">
        <ele>489</ele>
        <time>2021-08-05T08:55:28.422Z</time>
      </trkpt>
      <trkpt lat="47.00839" lon="8.65205">
        <ele>489</ele>
        <time>2021-08-05T08:55:29.421Z</time>
      </trkpt>
      <trkpt lat="47.00839" lon="8.65206">
        <ele>489</ele>
        <time>2021-08-05T08:55:30.421Z</time>
      </trkpt>
      <trkpt lat="47.00838" lon="8.65206">
        <ele>489</ele>
        <time>2021-08-05T08:55:31.421Z</time>
      </trkpt>
      <trkpt lat="47.00838" lon="8.65206">
        <ele>488</ele>
        <time>2021-08-05T08:55:32.422Z</time>
      </trkpt>
      <trkpt lat="47.00837" lon="8.65206">
        <ele>488</ele>
        <time>2021-08-05T08:55:33.421Z</time>
      </trkpt>
      <trkpt lat="47.00836" lon="8.65206">
        <ele>488</ele>
        <time>2021-08-05T08:55:34.421Z</time>
      </trkpt>
      <trkpt lat="47.00836" lon="8.65206">
        <ele>489</ele>
        <time>2021-08-05T08:55:35.421Z</time>
      </trkpt>
      <trkpt lat="47.00835" lon="8.65206">
        <ele>489</ele>
        <time>2021-08-05T08:55:36.421Z</time>
      </trkpt>
      <trkpt lat="47.00835" lon="8.65206">
        <ele>489</ele>
        <time>2021-08-05T08:55:37.422Z</time>
      </trkpt>
      <trkpt lat="47.00835" lon="8.65205">
        <ele>489</ele>
        <time>2021-08-05T08:55:38.421Z</time>
      </trkpt>
      <trkpt lat="47.00835" lon="8.65204">
        <ele>489</ele>
        <time>2021-08-05T08:55:39.421Z</time>
      </trkpt>
      <trkpt lat="47.00835" lon="8.65203">
        <ele>489</ele>
        <time>2021-08-05T08:55:40.421Z</time>
      </trkpt>
      <trkpt lat="47.00834" lon="8.65201">
        <ele>489</ele>
        <time>2021-08-05T08:55:41.422Z</time>
      </trkpt>
      <trkpt lat="47.00834" lon="8.652">
        <ele>489</ele>
        <time>2021-08-05T08:55:42.421Z</time>
      </trkpt>
      <trkpt lat="47.00833" lon="8.65199">
        <ele>488</ele>
        <time>2021-08-05T08:55:43.421Z</time>
      </trkpt>
      <trkpt lat="47.00832" lon="8.652">
        <ele>487</ele>
        <time>2021-08-05T08:55:44.421Z</time>
      </trkpt>
      <trkpt lat="47.00831" lon="8.65199">
        <ele>487</ele>
        <time>2021-08-05T08:55:45.422Z</time>
      </trkpt>
      <trkpt lat="47.0083" lon="8.65198">
        <ele>486</ele>
        <time>2021-08-05T08:55:46.421Z</time>
      </trkpt>
      <trkpt lat="47.00829" lon="8.65198">
        <ele>486</ele>
        <time>2021-08-05T08:55:47.421Z</time>
      </trkpt>
      <trkpt lat="47.00828" lon="8.65197">
        <ele>486</ele>
        <time>2021-08-05T08:55:48.421Z</time>
      </trkpt>
      <trkpt lat="47.00827" lon="8.65197">
        <ele>485</ele>
        <time>2021-08-05T08:55:49.421Z</time>
      </trkpt>
      <trkpt lat="47.00827" lon="8.65197">
        <ele>485</ele>
        <time>2021-08-05T08:55:50.421Z</time>
      </trkpt>
      <trkpt lat="47.00826" lon="8.65197">
        <ele>485</ele>
        <time>2021-08-05T08:55:51.421Z</time>
      </trkpt>
      <trkpt lat="47.00826" lon="8.65197">
        <ele>485</ele>
        <time>2021-08-05T08:55:52.421Z</time>
      </trkpt>
      <trkpt lat="47.00826" lon="8.65196">
        <ele>485</ele>
        <time>2021-08-05T08:55:53.421Z</time>
      </trkpt>
      <trkpt lat="47.00825" lon="8.65195">
        <ele>485</ele>
        <time>2021-08-05T08:55:54.421Z</time>
      </trkpt>
      <trkpt lat="47.00825" lon="8.65194">
        <ele>485</ele>
        <time>2021-08-05T08:55:55.421Z</time>
      </trkpt>
      <trkpt lat="47.00826" lon="8.65193">
        <ele>485</ele>
        <time>2021-08-05T08:55:56.421Z</time>
      </trkpt>
      <trkpt lat="47.00827" lon="8.65191">
        <ele>485</ele>
        <time>2021-08-05T08:55:57.421Z</time>
      </trkpt>
      <trkpt lat="47.00828" lon="8.65191">
        <ele>486</ele>
        <time>2021-08-05T08:55:58.422Z</time>
      </trkpt>
      <trkpt lat="47.00828" lon="8.6519">
        <ele>486</ele>
        <time>2021-08-05T08:55:59.421Z</time>
      </trkpt>
      <trkpt lat="47.00829" lon="8.65189">
        <ele>486</ele>
        <time>2021-08-05T08:56:00.421Z</time>
      </trkpt>
      <trkpt lat="47.0083" lon="8.65188">
        <ele>486</ele>
        <time>2021-08-05T08:56:01.421Z</time>
      </trkpt>
      <trkpt lat="47.00832" lon="8.65187">
        <ele>486</ele>
        <time>2021-08-05T08:56:02.421Z</time>
      </trkpt>
      <trkpt lat="47.00832" lon="8.65186">
        <ele>486</ele>
        <time>2021-08-05T08:56:03.421Z</time>
      </trkpt>
      <trkpt lat="47.00833" lon="8.65185">
        <ele>485</ele>
        <time>2021-08-05T08:56:04.421Z</time>
      </trkpt>
      <trkpt lat="47.00834" lon="8.65184">
        <ele>485</ele>
        <time>2021-08-05T08:56:05.421Z</time>
      </trkpt>
      <trkpt lat="47.00835" lon="8.65183">
        <ele>485</ele>
        <time>2021-08-05T08:56:06.421Z</time>
      </trkpt>
      <trkpt lat="47.00836" lon="8.65181">
        <ele>485</ele>
        <time>2021-08-05T08:56:07.421Z</time>
      </trkpt>
      <trkpt lat="47.00836" lon="8.6518">
        <ele>484</ele>
        <time>2021-08-05T08:56:08.421Z</time>
      </trkpt>
      <trkpt lat="47.00837" lon="8.65179">
        <ele>484</ele>
        <time>2021-08-05T08:56:09.422Z</time>
      </trkpt>
      <trkpt lat="47.00838" lon="8.65179">
        <ele>484</ele>
        <time>2021-08-05T08:56:10.421Z</time>
      </trkpt>
      <trkpt lat="47.00838" lon="8.65178">
        <ele>483</ele>
        <time>2021-08-05T08:56:11.421Z</time>
      </trkpt>
      <trkpt lat="47.00839" lon="8.65177">
        <ele>482</ele>
        <time>2021-08-05T08:56:12.421Z</time>
      </trkpt>
      <trkpt lat="47.0084" lon="8.65177">
        <ele>482</ele>
        <time>2021-08-05T08:56:13.421Z</time>
      </trkpt>
      <trkpt lat="47.00841" lon="8.65175">
        <ele>481</ele>
        <time>2021-08-05T08:56:14.421Z</time>
      </trkpt>
      <trkpt lat="47.00841" lon="8.65174">
        <ele>481</ele>
        <time>2021-08-05T08:56:15.421Z</time>
      </trkpt>
      <trkpt lat="47.00842" lon="8.65172">
        <ele>481</ele>
        <time>2021-08-05T08:56:16.422Z</time>
      </trkpt>
      <trkpt lat="47.00843" lon="8.6517">
        <ele>481</ele>
        <time>2021-08-05T08:56:17.421Z</time>
      </trkpt>
      <trkpt lat="47.00844" lon="8.65169">
        <ele>481</ele>
        <time>2021-08-05T08:56:18.422Z</time>
      </trkpt>
      <trkpt lat="47.00844" lon="8.65168">
        <ele>482</ele>
        <time>2021-08-05T08:56:19.421Z</time>
      </trkpt>
      <trkpt lat="47.00845" lon="8.65168">
        <ele>482</ele>
        <time>2021-08-05T08:56:20.421Z</time>
      </trkpt>
      <trkpt lat="47.00846" lon="8.65167">
        <ele>482</ele>
        <time>2021-08-05T08:56:21.422Z</time>
      </trkpt>
      <trkpt lat="47.00847" lon="8.65166">
        <ele>483</ele>
        <time>2021-08-05T08:56:22.421Z</time>
      </trkpt>
      <trkpt lat="47.00848" lon="8.65165">
        <ele>483</ele>
        <time>2021-08-05T08:56:23.421Z</time>
      </trkpt>
      <trkpt lat="47.00849" lon="8.65164">
        <ele>483</ele>
        <time>2021-08-05T08:56:24.421Z</time>
      </trkpt>
      <trkpt lat="47.0085" lon="8.65164">
        <ele>484</ele>
        <time>2021-08-05T08:56:25.421Z</time>
      </trkpt>
      <trkpt lat="47.00851" lon="8.65164">
        <ele>484</ele>
        <time>2021-08-05T08:56:26.421Z</time>
      </trkpt>
      <trkpt lat="47.00851" lon="8.65164">
        <ele>484</ele>
        <time>2021-08-05T08:56:27.421Z</time>
      </trkpt>
      <trkpt lat="47.00852" lon="8.65163">
        <ele>484</ele>
        <time>2021-08-05T08:56:28.421Z</time>
      </trkpt>
      <trkpt lat="47.00853" lon="8.65163">
        <ele>484</ele>
        <time>2021-08-05T08:56:29.421Z</time>
      </trkpt>
      <trkpt lat="47.00854" lon="8.65163">
        <ele>484</ele>
        <time>2021-08-05T08:56:30.421Z</time>
      </trkpt>
      <trkpt lat="47.00855" lon="8.65162">
        <ele>484</ele>
        <time>2021-08-05T08:56:31.421Z</time>
      </trkpt>
      <trkpt lat="47.00856" lon="8.65161">
        <ele>484</ele>
        <time>2021-08-05T08:56:32.421Z</time>
      </trkpt>
      <trkpt lat="47.00857" lon="8.6516">
        <ele>484</ele>
        <time>2021-08-05T08:56:33.421Z</time>
      </trkpt>
      <trkpt lat="47.00857" lon="8.65159">
        <ele>484</ele>
        <time>2021-08-05T08:56:34.421Z</time>
      </trkpt>
      <trkpt lat="47.00858" lon="8.65159">
        <ele>484</ele>
        <time>2021-08-05T08:56:35.421Z</time>
      </trkpt>
      <trkpt lat="47.00859" lon="8.65158">
        <ele>484</ele>
        <time>2021-08-05T08:56:36.421Z</time>
      </trkpt>
      <trkpt lat="47.00859" lon="8.65157">
        <ele>484</ele>
        <time>2021-08-05T08:56:37.421Z</time>
      </trkpt>
      <trkpt lat="47.0086" lon="8.65156">
        <ele>483</ele>
        <time>2021-08-05T08:56:38.421Z</time>
      </trkpt>
      <trkpt lat="47.00861" lon="8.65156">
        <ele>483</ele>
        <time>2021-08-05T08:56:39.421Z</time>
      </trkpt>
      <trkpt lat="47.00862" lon="8.65155">
        <ele>483</ele>
        <time>2021-08-05T08:56:40.421Z</time>
      </trkpt>
      <trkpt lat="47.00863" lon="8.65154">
        <ele>484</ele>
        <time>2021-08-05T08:56:41.422Z</time>
      </trkpt>
      <trkpt lat="47.00864" lon="8.65154">
        <ele>484</ele>
        <time>2021-08-05T08:56:42.421Z</time>
      </trkpt>
      <trkpt lat="47.00864" lon="8.65153">
        <ele>484</ele>
        <time>2021-08-05T08:56:43.421Z</time>
      </trkpt>
      <trkpt lat="47.00865" lon="8.65153">
        <ele>485</ele>
        <time>2021-08-05T08:56:44.421Z</time>
      </trkpt>
      <trkpt lat="47.00866" lon="8.65153">
        <ele>485</ele>
        <time>2021-08-05T08:56:45.421Z</time>
      </trkpt>
      <trkpt lat="47.00866" lon="8.65152">
        <ele>486</ele>
        <time>2021-08-05T08:56:46.421Z</time>
      </trkpt>
      <trkpt lat="47.00867" lon="8.65151">
        <ele>486</ele>
        <time>2021-08-05T08:56:47.421Z</time>
      </trkpt>
      <trkpt lat="47.00867" lon="8.6515">
        <ele>486</ele>
        <time>2021-08-05T08:56:48.421Z</time>
      </trkpt>
      <trkpt lat="47.00868" lon="8.65149">
        <ele>486</ele>
        <time>2021-08-05T08:56:49.421Z</time>
      </trkpt>
      <trkpt lat="47.00868" lon="8.65148">
        <ele>486</ele>
        <time>2021-08-05T08:56:50.421Z</time>
      </trkpt>
      <trkpt lat="47.00869" lon="8.65147">
        <ele>486</ele>
        <time>2021-08-05T08:56:51.422Z</time>
      </trkpt>
      <trkpt lat="47.00869" lon="8.65146">
        <ele>485</ele>
        <time>2021-08-05T08:56:52.422Z</time>
      </trkpt>
      <trkpt lat="47.0087" lon="8.65145">
        <ele>484</ele>
        <time>2021-08-05T08:56:53.421Z</time>
      </trkpt>
      <trkpt lat="47.00871" lon="8.65144">
        <ele>484</ele>
        <time>2021-08-05T08:56:54.421Z</time>
      </trkpt>
      <trkpt lat="47.00872" lon="8.65143">
        <ele>483</ele>
        <time>2021-08-05T08:56:55.421Z</time>
      </trkpt>
      <trkpt lat="47.00873" lon="8.65142">
        <ele>482</ele>
        <time>2021-08-05T08:56:56.422Z</time>
      </trkpt>
      <trkpt lat="47.00874" lon="8.65142">
        <ele>482</ele>
        <time>2021-08-05T08:56:57.422Z</time>
      </trkpt>
      <trkpt lat="47.00874" lon="8.65141">
        <ele>481</ele>
        <time>2021-08-05T08:56:58.421Z</time>
      </trkpt>
      <trkpt lat="47.00875" lon="8.65139">
        <ele>481</ele>
        <time>2021-08-05T08:56:59.421Z</time>
      </trkpt>
      <trkpt lat="47.00876" lon="8.65138">
        <ele>481</ele>
        <time>2021-08-05T08:57:00.421Z</time>
      </trkpt>
      <trkpt lat="47.00876" lon="8.65137">
        <ele>482</ele>
        <time>2021-08-05T08:57:01.421Z</time>
      </trkpt>
      <trkpt lat="47.00877" lon="8.65136">
        <ele>482</ele>
        <time>2021-08-05T08:57:02.421Z</time>
      </trkpt>
      <trkpt lat="47.00878" lon="8.65135">
        <ele>483</ele>
        <time>2021-08-05T08:57:03.421Z</time>
      </trkpt>
      <trkpt lat="47.00878" lon="8.65133">
        <ele>483</ele>
        <time>2021-08-05T08:57:04.421Z</time>
      </trkpt>
      <trkpt lat="47.00879" lon="8.65132">
        <ele>483</ele>
        <time>2021-08-05T08:57:05.421Z</time>
      </trkpt>
      <trkpt lat="47.0088" lon="8.65131">
        <ele>484</ele>
        <time>2021-08-05T08:57:06.422Z</time>
      </trkpt>
      <trkpt lat="47.0088" lon="8.65129">
        <ele>484</ele>
        <time>2021-08-05T08:57:07.421Z</time>
      </trkpt>
      <trkpt lat="47.00881" lon="8.65128">
        <ele>484</ele>
        <time>2021-08-05T08:57:08.421Z</time>
      </trkpt>
      <trkpt lat="47.00883" lon="8.65127">
        <ele>485</ele>
        <time>2021-08-05T08:57:09.421Z</time>
      </trkpt>
      <trkpt lat="47.00883" lon="8.65125">
        <ele>485</ele>
        <time>2021-08-05T08:57:10.422Z</time>
      </trkpt>
      <trkpt lat="47.00883" lon="8.65124">
        <ele>486</ele>
        <time>2021-08-05T08:57:11.421Z</time>
      </trkpt>
      <trkpt lat="47.00883" lon="8.65123">
        <ele>486</ele>
        <time>2021-08-05T08:57:12.421Z</time>
      </trkpt>
      <trkpt lat="47.00884" lon="8.65121">
        <ele>487</ele>
        <time>2021-08-05T08:57:13.421Z</time>
      </trkpt>
      <trkpt lat="47.00884" lon="8.65119">
        <ele>488</ele>
        <time>2021-08-05T08:57:14.421Z</time>
      </trkpt>
      <trkpt lat="47.00884" lon="8.65117">
        <ele>488</ele>
        <time>2021-08-05T08:57:15.421Z</time>
      </trkpt>
      <trkpt lat="47.00885" lon="8.65115">
        <ele>489</ele>
        <time>2021-08-05T08:57:16.421Z</time>
      </trkpt>
      <trkpt lat="47.00885" lon="8.65114">
        <ele>489</ele>
        <time>2021-08-05T08:57:17.421Z</time>
      </trkpt>
      <trkpt lat="47.00885" lon="8.65112">
        <ele>490</ele>
        <time>2021-08-05T08:57:18.421Z</time>
      </trkpt>
      <trkpt lat="47.00885" lon="8.65111">
        <ele>491</ele>
        <time>2021-08-05T08:57:19.421Z</time>
      </trkpt>
      <trkpt lat="47.00886" lon="8.6511">
        <ele>491</ele>
        <time>2021-08-05T08:57:20.421Z</time>
      </trkpt>
      <trkpt lat="47.00887" lon="8.65109">
        <ele>491</ele>
        <time>2021-08-05T08:57:21.421Z</time>
      </trkpt>
      <trkpt lat="47.00886" lon="8.6511">
        <ele>491</ele>
        <time>2021-08-05T08:57:22.421Z</time>
      </trkpt>
      <trkpt lat="47.00886" lon="8.65109">
        <ele>491</ele>
        <time>2021-08-05T08:57:23.422Z</time>
      </trkpt>
      <trkpt lat="47.00885" lon="8.65109">
        <ele>490</ele>
        <time>2021-08-05T08:57:24.421Z</time>
      </trkpt>
      <trkpt lat="47.00884" lon="8.65108">
        <ele>490</ele>
        <time>2021-08-05T08:57:25.421Z</time>
      </trkpt>
      <trkpt lat="47.00883" lon="8.65108">
        <ele>490</ele>
        <time>2021-08-05T08:57:26.421Z</time>
      </trkpt>
      <trkpt lat="47.00883" lon="8.65108">
        <ele>490</ele>
        <time>2021-08-05T08:57:27.421Z</time>
      </trkpt>
      <trkpt lat="47.00883" lon="8.65104">
        <ele>490</ele>
        <time>2021-08-05T08:57:28.422Z</time>
      </trkpt>
      <trkpt lat="47.00883" lon="8.65103">
        <ele>490</ele>
        <time>2021-08-05T08:57:29.421Z</time>
      </trkpt>
      <trkpt lat="47.00884" lon="8.65103">
        <ele>489</ele>
        <time>2021-08-05T08:57:30.421Z</time>
      </trkpt>
      <trkpt lat="47.00885" lon="8.65102">
        <ele>489</ele>
        <time>2021-08-05T08:57:31.422Z</time>
      </trkpt>
      <trkpt lat="47.00885" lon="8.651">
        <ele>489</ele>
        <time>2021-08-05T08:57:32.422Z</time>
      </trkpt>
      <trkpt lat="47.00886" lon="8.65099">
        <ele>489</ele>
        <time>2021-08-05T08:57:33.422Z</time>
      </trkpt>
      <trkpt lat="47.00887" lon="8.65097">
        <ele>489</ele>
        <time>2021-08-05T08:57:34.421Z</time>
      </trkpt>
      <trkpt lat="47.00887" lon="8.65096">
        <ele>489</ele>
        <time>2021-08-05T08:57:35.422Z</time>
      </trkpt>
      <trkpt lat="47.00887" lon="8.65094">
        <ele>489</ele>
        <time>2021-08-05T08:57:36.421Z</time>
      </trkpt>
      <trkpt lat="47.00886" lon="8.65093">
        <ele>489</ele>
        <time>2021-08-05T08:57:37.421Z</time>
      </trkpt>
      <trkpt lat="47.00886" lon="8.6509">
        <ele>489</ele>
        <time>2021-08-05T08:57:38.422Z</time>
      </trkpt>
      <trkpt lat="47.00885" lon="8.65089">
        <ele>489</ele>
        <time>2021-08-05T08:57:39.422Z</time>
      </trkpt>
      <trkpt lat="47.00885" lon="8.65086">
        <ele>489</ele>
        <time>2021-08-05T08:57:40.421Z</time>
      </trkpt>
      <trkpt lat="47.00885" lon="8.65085">
        <ele>489</ele>
        <time>2021-08-05T08:57:41.421Z</time>
      </trkpt>
      <trkpt lat="47.00885" lon="8.65083">
        <ele>489</ele>
        <time>2021-08-05T08:57:42.422Z</time>
      </trkpt>
      <trkpt lat="47.00885" lon="8.65082">
        <ele>490</ele>
        <time>2021-08-05T08:57:43.422Z</time>
      </trkpt>
      <trkpt lat="47.00885" lon="8.6508">
        <ele>490</ele>
        <time>2021-08-05T08:57:44.422Z</time>
      </trkpt>
      <trkpt lat="47.00885" lon="8.65079">
        <ele>490</ele>
        <time>2021-08-05T08:57:45.422Z</time>
      </trkpt>
      <trkpt lat="47.00885" lon="8.65077">
        <ele>491</ele>
        <time>2021-08-05T08:57:46.421Z</time>
      </trkpt>
      <trkpt lat="47.00886" lon="8.65076">
        <ele>491</ele>
        <time>2021-08-05T08:57:47.422Z</time>
      </trkpt>
      <trkpt lat="47.00886" lon="8.65074">
        <ele>492</ele>
        <time>2021-08-05T08:57:48.422Z</time>
      </trkpt>
      <trkpt lat="47.00886" lon="8.65073">
        <ele>492</ele>
        <time>2021-08-05T08:57:49.422Z</time>
      </trkpt>
      <trkpt lat="47.00887" lon="8.65071">
        <ele>492</ele>
        <time>2021-08-05T08:57:50.422Z</time>
      </trkpt>
      <trkpt lat="47.00887" lon="8.6507">
        <ele>492</ele>
        <time>2021-08-05T08:57:51.422Z</time>
      </trkpt>
      <trkpt lat="47.00887" lon="8.65069">
        <ele>493</ele>
        <time>2021-08-05T08:57:52.421Z</time>
      </trkpt>
      <trkpt lat="47.00887" lon="8.65067">
        <ele>493</ele>
        <time>2021-08-05T08:57:53.422Z</time>
      </trkpt>
      <trkpt lat="47.00886" lon="8.65064">
        <ele>493</ele>
        <time>2021-08-05T08:57:54.422Z</time>
      </trkpt>
      <trkpt lat="47.00886" lon="8.65062">
        <ele>493</ele>
        <time>2021-08-05T08:57:55.422Z</time>
      </trkpt>
      <trkpt lat="47.00886" lon="8.6506">
        <ele>493</ele>
        <time>2021-08-05T08:57:56.421Z</time>
      </trkpt>
      <trkpt lat="47.00885" lon="8.65059">
        <ele>493</ele>
        <time>2021-08-05T08:57:57.422Z</time>
      </trkpt>
      <trkpt lat="47.00885" lon="8.65057">
        <ele>493</ele>
        <time>2021-08-05T08:57:58.421Z</time>
      </trkpt>
      <trkpt lat="47.00884" lon="8.65057">
        <ele>493</ele>
        <time>2021-08-05T08:57:59.422Z</time>
      </trkpt>
      <trkpt lat="47.00883" lon="8.65057">
        <ele>493</ele>
        <time>2021-08-05T08:58:00.422Z</time>
      </trkpt>
      <trkpt lat="47.00883" lon="8.65057">
        <ele>493</ele>
        <time>2021-08-05T08:58:01.421Z</time>
      </trkpt>
      <trkpt lat="47.00883" lon="8.65058">
        <ele>492</ele>
        <time>2021-08-05T08:58:02.421Z</time>
      </trkpt>
      <trkpt lat="47.00883" lon="8.65058">
        <ele>492</ele>
        <time>2021-08-05T08:58:03.422Z</time>
      </trkpt>
      <trkpt lat="47.00885" lon="8.65058">
        <ele>492</ele>
        <time>2021-08-05T08:58:04.421Z</time>
      </trkpt>
      <trkpt lat="47.00886" lon="8.65057">
        <ele>491</ele>
        <time>2021-08-05T08:58:05.421Z</time>
      </trkpt>
      <trkpt lat="47.00887" lon="8.65056">
        <ele>491</ele>
        <time>2021-08-05T08:58:06.421Z</time>
      </trkpt>
      <trkpt lat="47.00888" lon="8.65055">
        <ele>491</ele>
        <time>2021-08-05T08:58:07.422Z</time>
      </trkpt>
      <trkpt lat="47.00889" lon="8.65054">
        <ele>491</ele>
        <time>2021-08-05T08:58:08.422Z</time>
      </trkpt>
      <trkpt lat="47.00889" lon="8.65054">
        <ele>490</ele>
        <time>2021-08-05T08:58:09.422Z</time>
      </trkpt>
      <trkpt lat="47.0089" lon="8.65052">
        <ele>490</ele>
        <time>2021-08-05T08:58:10.421Z</time>
      </trkpt>
      <trkpt lat="47.0089" lon="8.65051">
        <ele>489</ele>
        <time>2021-08-05T08:58:11.422Z</time>
      </trkpt>
      <trkpt lat="47.0089" lon="8.6505">
        <ele>489</ele>
        <time>2021-08-05T08:58:12.422Z</time>
      </trkpt>
      <trkpt lat="47.00891" lon="8.65049">
        <ele>489</ele>
        <time>2021-08-05T08:58:13.422Z</time>
      </trkpt>
      <trkpt lat="47.00892" lon="8.65048">
        <ele>488</ele>
        <time>2021-08-05T08:58:14.422Z</time>
      </trkpt>
      <trkpt lat="47.00892" lon="8.65047">
        <ele>489</ele>
        <time>2021-08-05T08:58:15.422Z</time>
      </trkpt>
      <trkpt lat="47.00893" lon="8.65047">
        <ele>489</ele>
        <time>2021-08-05T08:58:16.421Z</time>
      </trkpt>
      <trkpt lat="47.00893" lon="8.65046">
        <ele>489</ele>
        <time>2021-08-05T08:58:17.422Z</time>
      </trkpt>
      <trkpt lat="47.00893" lon="8.65044">
        <ele>490</ele>
        <time>2021-08-05T08:58:18.422Z</time>
      </trkpt>
      <trkpt lat="47.00893" lon="8.65043">
        <ele>490</ele>
        <time>2021-08-05T08:58:19.421Z</time>
      </trkpt>
      <trkpt lat="47.00893" lon="8.6504">
        <ele>490</ele>
        <time>2021-08-05T08:58:20.421Z</time>
      </trkpt>
      <trkpt lat="47.00893" lon="8.65039">
        <ele>491</ele>
        <time>2021-08-05T08:58:21.422Z</time>
      </trkpt>
      <trkpt lat="47.00893" lon="8.65037">
        <ele>491</ele>
        <time>2021-08-05T08:58:22.421Z</time>
      </trkpt>
      <trkpt lat="47.00893" lon="8.65036">
        <ele>491</ele>
        <time>2021-08-05T08:58:23.422Z</time>
      </trkpt>
      <trkpt lat="47.00894" lon="8.65035">
        <ele>491</ele>
        <time>2021-08-05T08:58:24.422Z</time>
      </trkpt>
      <trkpt lat="47.00894" lon="8.65034">
        <ele>491</ele>
        <time>2021-08-05T08:58:25.422Z</time>
      </trkpt>
      <trkpt lat="47.00893" lon="8.65032">
        <ele>490</ele>
        <time>2021-08-05T08:58:26.422Z</time>
      </trkpt>
      <trkpt lat="47.00893" lon="8.65031">
        <ele>490</ele>
        <time>2021-08-05T08:58:27.421Z</time>
      </trkpt>
      <trkpt lat="47.00892" lon="8.6503">
        <ele>490</ele>
        <time>2021-08-05T08:58:28.421Z</time>
      </trkpt>
      <trkpt lat="47.00892" lon="8.65029">
        <ele>490</ele>
        <time>2021-08-05T08:58:29.421Z</time>
      </trkpt>
      <trkpt lat="47.00891" lon="8.65027">
        <ele>490</ele>
        <time>2021-08-05T08:58:30.421Z</time>
      </trkpt>
      <trkpt lat="47.00891" lon="8.65027">
        <ele>490</ele>
        <time>2021-08-05T08:58:31.421Z</time>
      </trkpt>
      <trkpt lat="47.0089" lon="8.65025">
        <ele>490</ele>
        <time>2021-08-05T08:58:32.421Z</time>
      </trkpt>
      <trkpt lat="47.00889" lon="8.65024">
        <ele>490</ele>
        <time>2021-08-05T08:58:33.421Z</time>
      </trkpt>
      <trkpt lat="47.00888" lon="8.65022">
        <ele>490</ele>
        <time>2021-08-05T08:58:34.422Z</time>
      </trkpt>
      <trkpt lat="47.00887" lon="8.65021">
        <ele>489</ele>
        <time>2021-08-05T08:58:35.422Z</time>
      </trkpt>
      <trkpt lat="47.00886" lon="8.6502">
        <ele>489</ele>
        <time>2021-08-05T08:58:36.422Z</time>
      </trkpt>
      <trkpt lat="47.00885" lon="8.6502">
        <ele>488</ele>
        <time>2021-08-05T08:58:37.422Z</time>
      </trkpt>
      <trkpt lat="47.00883" lon="8.65019">
        <ele>488</ele>
        <time>2021-08-05T08:58:38.422Z</time>
      </trkpt>
      <trkpt lat="47.00883" lon="8.65018">
        <ele>487</ele>
        <time>2021-08-05T08:58:39.422Z</time>
      </trkpt>
      <trkpt lat="47.00882" lon="8.65016">
        <ele>487</ele>
        <time>2021-08-05T08:58:40.422Z</time>
      </trkpt>
      <trkpt lat="47.00881" lon="8.65016">
        <ele>486</ele>
        <time>2021-08-05T08:58:41.422Z</time>
      </trkpt>
      <trkpt lat="47.00881" lon="8.65015">
        <ele>486</ele>
        <time>2021-08-05T08:58:42.421Z</time>
      </trkpt>
      <trkpt lat="47.00881" lon="8.65014">
        <ele>485</ele>
        <time>2021-08-05T08:58:43.421Z</time>
      </trkpt>
      <trkpt lat="47.00881" lon="8.65013">
        <ele>486</ele>
        <time>2021-08-05T08:58:44.422Z</time>
      </trkpt>
      <trkpt lat="47.0088" lon="8.65012">
        <ele>486</ele>
        <time>2021-08-05T08:58:45.421Z</time>
      </trkpt>
      <trkpt lat="47.0088" lon="8.65011">
        <ele>486</ele>
        <time>2021-08-05T08:58:46.421Z</time>
      </trkpt>
      <trkpt lat="47.00879" lon="8.6501">
        <ele>486</ele>
        <time>2021-08-05T08:58:47.422Z</time>
      </trkpt>
      <trkpt lat="47.00878" lon="8.65009">
        <ele>486</ele>
        <time>2021-08-05T08:58:48.421Z</time>
      </trkpt>
      <trkpt lat="47.00878" lon="8.65008">
        <ele>485</ele>
        <time>2021-08-05T08:58:49.422Z</time>
      </trkpt>
      <trkpt lat="47.00877" lon="8.65007">
        <ele>486</ele>
        <time>2021-08-05T08:58:50.422Z</time>
      </trkpt>
      <trkpt lat="47.00876" lon="8.65006">
        <ele>486</ele>
        <time>2021-08-05T08:58:51.422Z</time>
      </trkpt>
      <trkpt lat="47.00876" lon="8.65005">
        <ele>487</ele>
        <time>2021-08-05T08:58:52.422Z</time>
      </trkpt>
      <trkpt lat="47.00875" lon="8.65004">
        <ele>487</ele>
        <time>2021-08-05T08:58:53.422Z</time>
      </trkpt>
      <trkpt lat="47.00873" lon="8.65003">
        <ele>487</ele>
        <time>2021-08-05T08:58:54.421Z</time>
      </trkpt>
      <trkpt lat="47.00872" lon="8.65002">
        <ele>487</ele>
        <time>2021-08-05T08:58:55.422Z</time>
      </trkpt>
      <trkpt lat="47.00872" lon="8.65001">
        <ele>487</ele>
        <time>2021-08-05T08:58:56.421Z</time>
      </trkpt>
      <trkpt lat="47.00871" lon="8.64999">
        <ele>487</ele>
        <time>2021-08-05T08:58:57.421Z</time>
      </trkpt>
      <trkpt lat="47.00869" lon="8.64997">
        <ele>487</ele>
        <time>2021-08-05T08:58:58.421Z</time>
      </trkpt>
      <trkpt lat="47.00868" lon="8.64996">
        <ele>488</ele>
        <time>2021-08-05T08:58:59.421Z</time>
      </trkpt>
      <trkpt lat="47.00867" lon="8.64993">
        <ele>488</ele>
        <time>2021-08-05T08:59:00.422Z</time>
      </trkpt>
      <trkpt lat="47.00866" lon="8.64992">
        <ele>488</ele>
        <time>2021-08-05T08:59:01.422Z</time>
      </trkpt>
      <trkpt lat="47.00865" lon="8.64991">
        <ele>488</ele>
        <time>2021-08-05T08:59:02.422Z</time>
      </trkpt>
      <trkpt lat="47.00864" lon="8.64989">
        <ele>488</ele>
        <time>2021-08-05T08:59:03.422Z</time>
      </trkpt>
      <trkpt lat="47.00863" lon="8.64988">
        <ele>487</ele>
        <time>2021-08-05T08:59:04.422Z</time>
      </trkpt>
      <trkpt lat="47.00862" lon="8.64986">
        <ele>487</ele>
        <time>2021-08-05T08:59:05.421Z</time>
      </trkpt>
      <trkpt lat="47.00861" lon="8.64985">
        <ele>486</ele>
        <time>2021-08-05T08:59:06.422Z</time>
      </trkpt>
      <trkpt lat="47.0086" lon="8.64983">
        <ele>485</ele>
        <time>2021-08-05T08:59:07.422Z</time>
      </trkpt>
      <trkpt lat="47.00859" lon="8.64981">
        <ele>485</ele>
        <time>2021-08-05T08:59:08.422Z</time>
      </trkpt>
      <trkpt lat="47.00858" lon="8.6498">
        <ele>484</ele>
        <time>2021-08-05T08:59:09.422Z</time>
      </trkpt>
      <trkpt lat="47.00857" lon="8.64979">
        <ele>484</ele>
        <time>2021-08-05T08:59:10.422Z</time>
      </trkpt>
      <trkpt lat="47.00854" lon="8.64977">
        <ele>485</ele>
        <time>2021-08-05T08:59:11.422Z</time>
      </trkpt>
      <trkpt lat="47.00853" lon="8.64976">
        <ele>485</ele>
        <time>2021-08-05T08:59:12.422Z</time>
      </trkpt>
      <trkpt lat="47.00851" lon="8.64973">
        <ele>485</ele>
        <time>2021-08-05T08:59:13.422Z</time>
      </trkpt>
      <trkpt lat="47.00849" lon="8.64972">
        <ele>485</ele>
        <time>2021-08-05T08:59:14.422Z</time>
      </trkpt>
      <trkpt lat="47.00848" lon="8.64972">
        <ele>485</ele>
        <time>2021-08-05T08:59:15.422Z</time>
      </trkpt>
      <trkpt lat="47.00847" lon="8.64971">
        <ele>485</ele>
        <time>2021-08-05T08:59:16.421Z</time>
      </trkpt>
      <trkpt lat="47.00846" lon="8.64971">
        <ele>486</ele>
        <time>2021-08-05T08:59:17.421Z</time>
      </trkpt>
      <trkpt lat="47.00845" lon="8.64971">
        <ele>486</ele>
        <time>2021-08-05T08:59:18.421Z</time>
      </trkpt>
      <trkpt lat="47.00844" lon="8.6497">
        <ele>486</ele>
        <time>2021-08-05T08:59:19.422Z</time>
      </trkpt>
      <trkpt lat="47.00843" lon="8.6497">
        <ele>486</ele>
        <time>2021-08-05T08:59:20.421Z</time>
      </trkpt>
      <trkpt lat="47.00842" lon="8.64969">
        <ele>487</ele>
        <time>2021-08-05T08:59:21.422Z</time>
      </trkpt>
      <trkpt lat="47.00841" lon="8.64967">
        <ele>487</ele>
        <time>2021-08-05T08:59:22.422Z</time>
      </trkpt>
      <trkpt lat="47.00839" lon="8.64966">
        <ele>487</ele>
        <time>2021-08-05T08:59:23.421Z</time>
      </trkpt>
      <trkpt lat="47.00839" lon="8.64964">
        <ele>488</ele>
        <time>2021-08-05T08:59:24.421Z</time>
      </trkpt>
      <trkpt lat="47.00838" lon="8.64963">
        <ele>488</ele>
        <time>2021-08-05T08:59:25.421Z</time>
      </trkpt>
      <trkpt lat="47.00838" lon="8.64962">
        <ele>488</ele>
        <time>2021-08-05T08:59:26.421Z</time>
      </trkpt>
      <trkpt lat="47.00837" lon="8.6496">
        <ele>489</ele>
        <time>2021-08-05T08:59:27.421Z</time>
      </trkpt>
      <trkpt lat="47.00836" lon="8.64959">
        <ele>489</ele>
        <time>2021-08-05T08:59:28.421Z</time>
      </trkpt>
      <trkpt lat="47.00836" lon="8.64959">
        <ele>488</ele>
        <time>2021-08-05T08:59:29.421Z</time>
      </trkpt>
      <trkpt lat="47.00837" lon="8.64959">
        <ele>486</ele>
        <time>2021-08-05T08:59:30.421Z</time>
      </trkpt>
      <trkpt lat="47.00837" lon="8.6496">
        <ele>486</ele>
        <time>2021-08-05T08:59:31.422Z</time>
      </trkpt>
      <trkpt lat="47.00836" lon="8.6496">
        <ele>485</ele>
        <time>2021-08-05T08:59:32.421Z</time>
      </trkpt>
      <trkpt lat="47.00835" lon="8.6496">
        <ele>484</ele>
        <time>2021-08-05T08:59:33.421Z</time>
      </trkpt>
      <trkpt lat="47.00835" lon="8.6496">
        <ele>483</ele>
        <time>2021-08-05T08:59:34.421Z</time>
      </trkpt>
      <trkpt lat="47.00834" lon="8.64959">
        <ele>482</ele>
        <time>2021-08-05T08:59:35.421Z</time>
      </trkpt>
      <trkpt lat="47.00833" lon="8.64958">
        <ele>482</ele>
        <time>2021-08-05T08:59:36.421Z</time>
      </trkpt>
      <trkpt lat="47.00832" lon="8.64957">
        <ele>481</ele>
        <time>2021-08-05T08:59:37.421Z</time>
      </trkpt>
      <trkpt lat="47.00831" lon="8.64956">
        <ele>480</ele>
        <time>2021-08-05T08:59:38.422Z</time>
      </trkpt>
      <trkpt lat="47.0083" lon="8.64956">
        <ele>480</ele>
        <time>2021-08-05T08:59:39.421Z</time>
      </trkpt>
      <trkpt lat="47.00829" lon="8.64956">
        <ele>479</ele>
        <time>2021-08-05T08:59:40.421Z</time>
      </trkpt>
      <trkpt lat="47.00828" lon="8.64956">
        <ele>479</ele>
        <time>2021-08-05T08:59:41.422Z</time>
      </trkpt>
      <trkpt lat="47.00827" lon="8.64956">
        <ele>478</ele>
        <time>2021-08-05T08:59:42.421Z</time>
      </trkpt>
      <trkpt lat="47.00826" lon="8.64955">
        <ele>478</ele>
        <time>2021-08-05T08:59:43.421Z</time>
      </trkpt>
      <trkpt lat="47.00824" lon="8.64955">
        <ele>477</ele>
        <time>2021-08-05T08:59:44.421Z</time>
      </trkpt>
      <trkpt lat="47.00823" lon="8.64955">
        <ele>477</ele>
        <time>2021-08-05T08:59:45.421Z</time>
      </trkpt>
      <trkpt lat="47.00822" lon="8.64955">
        <ele>476</ele>
        <time>2021-08-05T08:59:46.422Z</time>
      </trkpt>
      <trkpt lat="47.00821" lon="8.64955">
        <ele>476</ele>
        <time>2021-08-05T08:59:47.421Z</time>
      </trkpt>
      <trkpt lat="47.0082" lon="8.64955">
        <ele>476</ele>
        <time>2021-08-05T08:59:48.422Z</time>
      </trkpt>
      <trkpt lat="47.00818" lon="8.64956">
        <ele>476</ele>
        <time>2021-08-05T08:59:49.421Z</time>
      </trkpt>
      <trkpt lat="47.00817" lon="8.64956">
        <ele>476</ele>
        <time>2021-08-05T08:59:50.421Z</time>
      </trkpt>
      <trkpt lat="47.00816" lon="8.64956">
        <ele>476</ele>
        <time>2021-08-05T08:59:51.422Z</time>
      </trkpt>
      <trkpt lat="47.00815" lon="8.64956">
        <ele>476</ele>
        <time>2021-08-05T08:59:52.422Z</time>
      </trkpt>
      <trkpt lat="47.00814" lon="8.64955">
        <ele>475</ele>
        <time>2021-08-05T08:59:53.422Z</time>
      </trkpt>
      <trkpt lat="47.00813" lon="8.64955">
        <ele>475</ele>
        <time>2021-08-05T08:59:54.421Z</time>
      </trkpt>
      <trkpt lat="47.00812" lon="8.64955">
        <ele>475</ele>
        <time>2021-08-05T08:59:55.422Z</time>
      </trkpt>
      <trkpt lat="47.00811" lon="8.64955">
        <ele>475</ele>
        <time>2021-08-05T08:59:56.422Z</time>
      </trkpt>
      <trkpt lat="47.00809" lon="8.64956">
        <ele>475</ele>
        <time>2021-08-05T08:59:57.421Z</time>
      </trkpt>
      <trkpt lat="47.00808" lon="8.64955">
        <ele>475</ele>
        <time>2021-08-05T08:59:58.422Z</time>
      </trkpt>
      <trkpt lat="47.00806" lon="8.64954">
        <ele>475</ele>
        <time>2021-08-05T08:59:59.422Z</time>
      </trkpt>
      <trkpt lat="47.00806" lon="8.64953">
        <ele>474</ele>
        <time>2021-08-05T09:00:00.421Z</time>
      </trkpt>
      <trkpt lat="47.00804" lon="8.64953">
        <ele>474</ele>
        <time>2021-08-05T09:00:01.421Z</time>
      </trkpt>
      <trkpt lat="47.00804" lon="8.64952">
        <ele>474</ele>
        <time>2021-08-05T09:00:02.421Z</time>
      </trkpt>
      <trkpt lat="47.00804" lon="8.64952">
        <ele>475</ele>
        <time>2021-08-05T09:00:03.422Z</time>
      </trkpt>
      <trkpt lat="47.00805" lon="8.64953">
        <ele>475</ele>
        <time>2021-08-05T09:00:04.421Z</time>
      </trkpt>
      <trkpt lat="47.00806" lon="8.64954">
        <ele>476</ele>
        <time>2021-08-05T09:00:05.421Z</time>
      </trkpt>
      <trkpt lat="47.00806" lon="8.64955">
        <ele>480</ele>
        <time>2021-08-05T09:00:06.423Z</time>
      </trkpt>
      <trkpt lat="47.00806" lon="8.64955">
        <ele>480</ele>
        <time>2021-08-05T09:00:07.424Z</time>
      </trkpt>
      <trkpt lat="47.00805" lon="8.64955">
        <ele>479</ele>
        <time>2021-08-05T09:00:08.423Z</time>
      </trkpt>
      <trkpt lat="47.00804" lon="8.64955">
        <ele>479</ele>
        <time>2021-08-05T09:00:09.424Z</time>
      </trkpt>
      <trkpt lat="47.00803" lon="8.64955">
        <ele>478</ele>
        <time>2021-08-05T09:00:10.423Z</time>
      </trkpt>
      <trkpt lat="47.00802" lon="8.64955">
        <ele>478</ele>
        <time>2021-08-05T09:00:11.424Z</time>
      </trkpt>
      <trkpt lat="47.00801" lon="8.64954">
        <ele>477</ele>
        <time>2021-08-05T09:00:12.424Z</time>
      </trkpt>
      <trkpt lat="47.008" lon="8.64954">
        <ele>477</ele>
        <time>2021-08-05T09:00:13.423Z</time>
      </trkpt>
      <trkpt lat="47.00799" lon="8.64954">
        <ele>476</ele>
        <time>2021-08-05T09:00:14.423Z</time>
      </trkpt>
      <trkpt lat="47.00798" lon="8.64953">
        <ele>476</ele>
        <time>2021-08-05T09:00:15.424Z</time>
      </trkpt>
      <trkpt lat="47.00797" lon="8.64953">
        <ele>476</ele>
        <time>2021-08-05T09:00:16.424Z</time>
      </trkpt>
      <trkpt lat="47.00797" lon="8.64954">
        <ele>475</ele>
        <time>2021-08-05T09:00:17.423Z</time>
      </trkpt>
      <trkpt lat="47.00795" lon="8.64954">
        <ele>475</ele>
        <time>2021-08-05T09:00:18.424Z</time>
      </trkpt>
      <trkpt lat="47.00795" lon="8.64954">
        <ele>476</ele>
        <time>2021-08-05T09:00:19.424Z</time>
      </trkpt>
      <trkpt lat="47.00794" lon="8.64953">
        <ele>476</ele>
        <time>2021-08-05T09:00:20.423Z</time>
      </trkpt>
      <trkpt lat="47.00793" lon="8.64953">
        <ele>476</ele>
        <time>2021-08-05T09:00:21.424Z</time>
      </trkpt>
      <trkpt lat="47.00791" lon="8.64952">
        <ele>476</ele>
        <time>2021-08-05T09:00:22.424Z</time>
      </trkpt>
      <trkpt lat="47.0079" lon="8.64951">
        <ele>476</ele>
        <time>2021-08-05T09:00:23.423Z</time>
      </trkpt>
      <trkpt lat="47.00789" lon="8.6495">
        <ele>476</ele>
        <time>2021-08-05T09:00:24.423Z</time>
      </trkpt>
      <trkpt lat="47.00787" lon="8.64949">
        <ele>476</ele>
        <time>2021-08-05T09:00:25.423Z</time>
      </trkpt>
      <trkpt lat="47.00787" lon="8.64948">
        <ele>475</ele>
        <time>2021-08-05T09:00:26.423Z</time>
      </trkpt>
      <trkpt lat="47.00786" lon="8.64947">
        <ele>475</ele>
        <time>2021-08-05T09:00:27.424Z</time>
      </trkpt>
      <trkpt lat="47.00785" lon="8.64946">
        <ele>475</ele>
        <time>2021-08-05T09:00:28.424Z</time>
      </trkpt>
      <trkpt lat="47.00785" lon="8.64945">
        <ele>475</ele>
        <time>2021-08-05T09:00:29.423Z</time>
      </trkpt>
      <trkpt lat="47.00785" lon="8.64944">
        <ele>475</ele>
        <time>2021-08-05T09:00:30.423Z</time>
      </trkpt>
      <trkpt lat="47.00785" lon="8.64944">
        <ele>475</ele>
        <time>2021-08-05T09:00:31.423Z</time>
      </trkpt>
      <trkpt lat="47.00784" lon="8.64944">
        <ele>475</ele>
        <time>2021-08-05T09:00:32.424Z</time>
      </trkpt>
      <trkpt lat="47.00784" lon="8.64943">
        <ele>474</ele>
        <time>2021-08-05T09:00:33.424Z</time>
      </trkpt>
      <trkpt lat="47.00783" lon="8.64942">
        <ele>474</ele>
        <time>2021-08-05T09:00:34.424Z</time>
      </trkpt>
      <trkpt lat="47.00783" lon="8.64942">
        <ele>474</ele>
        <time>2021-08-05T09:00:35.424Z</time>
      </trkpt>
      <trkpt lat="47.00783" lon="8.64942">
        <ele>474</ele>
        <time>2021-08-05T09:00:36.424Z</time>
      </trkpt>
      <trkpt lat="47.00783" lon="8.64942">
        <ele>474</ele>
        <time>2021-08-05T09:00:37.425Z</time>
      </trkpt>
      <trkpt lat="47.00784" lon="8.64942">
        <ele>474</ele>
        <time>2021-08-05T09:00:38.424Z</time>
      </trkpt>
      <trkpt lat="47.00784" lon="8.64943">
        <ele>474</ele>
        <time>2021-08-05T09:00:39.427Z</time>
      </trkpt>
      <trkpt lat="47.00784" lon="8.64943">
        <ele>474</ele>
        <time>2021-08-05T09:00:40.427Z</time>
      </trkpt>
      <trkpt lat="47.00784" lon="8.64942">
        <ele>474</ele>
        <time>2021-08-05T09:00:41.426Z</time>
      </trkpt>
      <trkpt lat="47.00784" lon="8.64941">
        <ele>473</ele>
        <time>2021-08-05T09:00:42.426Z</time>
      </trkpt>
      <trkpt lat="47.00785" lon="8.6494">
        <ele>472</ele>
        <time>2021-08-05T09:00:43.426Z</time>
      </trkpt>
      <trkpt lat="47.00785" lon="8.6494">
        <ele>472</ele>
        <time>2021-08-05T09:00:44.426Z</time>
      </trkpt>
      <trkpt lat="47.00785" lon="8.6494">
        <ele>472</ele>
        <time>2021-08-05T09:00:45.426Z</time>
      </trkpt>
      <trkpt lat="47.00785" lon="8.6494">
        <ele>472</ele>
        <time>2021-08-05T09:00:46.426Z</time>
      </trkpt>
      <trkpt lat="47.00785" lon="8.6494">
        <ele>473</ele>
        <time>2021-08-05T09:00:47.426Z</time>
      </trkpt>
      <trkpt lat="47.00785" lon="8.64941">
        <ele>473</ele>
        <time>2021-08-05T09:00:48.426Z</time>
      </trkpt>
      <trkpt lat="47.00785" lon="8.64941">
        <ele>473</ele>
        <time>2021-08-05T09:00:49.426Z</time>
      </trkpt>
      <trkpt lat="47.00784" lon="8.64942">
        <ele>473</ele>
        <time>2021-08-05T09:00:50.426Z</time>
      </trkpt>
      <trkpt lat="47.00783" lon="8.64944">
        <ele>473</ele>
        <time>2021-08-05T09:00:51.427Z</time>
      </trkpt>
      <trkpt lat="47.00783" lon="8.64945">
        <ele>473</ele>
        <time>2021-08-05T09:00:52.427Z</time>
      </trkpt>
      <trkpt lat="47.00783" lon="8.64945">
        <ele>474</ele>
        <time>2021-08-05T09:00:53.427Z</time>
      </trkpt>
      <trkpt lat="47.00783" lon="8.64946">
        <ele>474</ele>
        <time>2021-08-05T09:00:54.427Z</time>
      </trkpt>
      <trkpt lat="47.00783" lon="8.64946">
        <ele>474</ele>
        <time>2021-08-05T09:00:55.427Z</time>
      </trkpt>
      <trkpt lat="47.00781" lon="8.64949">
        <ele>475</ele>
        <time>2021-08-05T09:00:56.428Z</time>
      </trkpt>
      <trkpt lat="47.00781" lon="8.6495">
        <ele>475</ele>
        <time>2021-08-05T09:00:57.428Z</time>
      </trkpt>
      <trkpt lat="47.00781" lon="8.64951">
        <ele>476</ele>
        <time>2021-08-05T09:00:58.427Z</time>
      </trkpt>
      <trkpt lat="47.00781" lon="8.64948">
        <ele>477</ele>
        <time>2021-08-05T09:00:59.429Z</time>
      </trkpt>
      <trkpt lat="47.00781" lon="8.64947">
        <ele>477</ele>
        <time>2021-08-05T09:01:00.428Z</time>
      </trkpt>
      <trkpt lat="47.00782" lon="8.64947">
        <ele>476</ele>
        <time>2021-08-05T09:01:01.428Z</time>
      </trkpt>
      <trkpt lat="47.00782" lon="8.64948">
        <ele>475</ele>
        <time>2021-08-05T09:01:02.428Z</time>
      </trkpt>
      <trkpt lat="47.00782" lon="8.64948">
        <ele>475</ele>
        <time>2021-08-05T09:01:03.428Z</time>
      </trkpt>
      <trkpt lat="47.00783" lon="8.64949">
        <ele>475</ele>
        <time>2021-08-05T09:01:04.428Z</time>
      </trkpt>
      <trkpt lat="47.00784" lon="8.6495">
        <ele>475</ele>
        <time>2021-08-05T09:01:05.428Z</time>
      </trkpt>
      <trkpt lat="47.00785" lon="8.6495">
        <ele>475</ele>
        <time>2021-08-05T09:01:06.429Z</time>
      </trkpt>
      <trkpt lat="47.00785" lon="8.64951">
        <ele>474</ele>
        <time>2021-08-05T09:01:07.428Z</time>
      </trkpt>
      <trkpt lat="47.00786" lon="8.64951">
        <ele>475</ele>
        <time>2021-08-05T09:01:08.429Z</time>
      </trkpt>
      <trkpt lat="47.00787" lon="8.64951">
        <ele>475</ele>
        <time>2021-08-05T09:01:09.428Z</time>
      </trkpt>
      <trkpt lat="47.00787" lon="8.6495">
        <ele>475</ele>
        <time>2021-08-05T09:01:10.429Z</time>
      </trkpt>
      <trkpt lat="47.00788" lon="8.64949">
        <ele>475</ele>
        <time>2021-08-05T09:01:11.429Z</time>
      </trkpt>
      <trkpt lat="47.00788" lon="8.64949">
        <ele>476</ele>
        <time>2021-08-05T09:01:12.428Z</time>
      </trkpt>
      <trkpt lat="47.0079" lon="8.6494">
        <ele>473</ele>
        <time>2021-08-05T09:01:13.429Z</time>
      </trkpt>
      <trkpt lat="47.0079" lon="8.64941">
        <ele>474</ele>
        <time>2021-08-05T09:01:14.429Z</time>
      </trkpt>
      <trkpt lat="47.00789" lon="8.64941">
        <ele>474</ele>
        <time>2021-08-05T09:01:15.430Z</time>
      </trkpt>
      <trkpt lat="47.00789" lon="8.6494">
        <ele>475</ele>
        <time>2021-08-05T09:01:16.429Z</time>
      </trkpt>
      <trkpt lat="47.00789" lon="8.6494">
        <ele>476</ele>
        <time>2021-08-05T09:01:17.430Z</time>
      </trkpt>
      <trkpt lat="47.00788" lon="8.64941">
        <ele>477</ele>
        <time>2021-08-05T09:01:18.429Z</time>
      </trkpt>
      <trkpt lat="47.00788" lon="8.64941">
        <ele>477</ele>
        <time>2021-08-05T09:01:19.429Z</time>
      </trkpt>
      <trkpt lat="47.00788" lon="8.6494">
        <ele>478</ele>
        <time>2021-08-05T09:01:20.430Z</time>
      </trkpt>
      <trkpt lat="47.00787" lon="8.6494">
        <ele>480</ele>
        <time>2021-08-05T09:01:21.430Z</time>
      </trkpt>
      <trkpt lat="47.00787" lon="8.6494">
        <ele>479</ele>
        <time>2021-08-05T09:01:22.430Z</time>
      </trkpt>
      <trkpt lat="47.00788" lon="8.64941">
        <ele>478</ele>
        <time>2021-08-05T09:01:23.431Z</time>
      </trkpt>
      <trkpt lat="47.00789" lon="8.6494">
        <ele>478</ele>
        <time>2021-08-05T09:01:24.432Z</time>
      </trkpt>
      <trkpt lat="47.00789" lon="8.64941">
        <ele>478</ele>
        <time>2021-08-05T09:01:25.432Z</time>
      </trkpt>
      <trkpt lat="47.00789" lon="8.64941">
        <ele>478</ele>
        <time>2021-08-05T09:01:26.432Z</time>
      </trkpt>
      <trkpt lat="47.00789" lon="8.64941">
        <ele>478</ele>
        <time>2021-08-05T09:01:27.431Z</time>
      </trkpt>
      <trkpt lat="47.00789" lon="8.64942">
        <ele>478</ele>
        <time>2021-08-05T09:01:28.432Z</time>
      </trkpt>
      <trkpt lat="47.0079" lon="8.64943">
        <ele>477</ele>
        <time>2021-08-05T09:01:29.431Z</time>
      </trkpt>
      <trkpt lat="47.00791" lon="8.64944">
        <ele>477</ele>
        <time>2021-08-05T09:01:30.432Z</time>
      </trkpt>
      <trkpt lat="47.00791" lon="8.64945">
        <ele>476</ele>
        <time>2021-08-05T09:01:31.432Z</time>
      </trkpt>
      <trkpt lat="47.00791" lon="8.64946">
        <ele>476</ele>
        <time>2021-08-05T09:01:32.432Z</time>
      </trkpt>
      <trkpt lat="47.00791" lon="8.64949">
        <ele>476</ele>
        <time>2021-08-05T09:01:33.431Z</time>
      </trkpt>
      <trkpt lat="47.00791" lon="8.6495">
        <ele>475</ele>
        <time>2021-08-05T09:01:34.432Z</time>
      </trkpt>
      <trkpt lat="47.00791" lon="8.6495">
        <ele>475</ele>
        <time>2021-08-05T09:01:35.432Z</time>
      </trkpt>
      <trkpt lat="47.00792" lon="8.64949">
        <ele>475</ele>
        <time>2021-08-05T09:01:36.432Z</time>
      </trkpt>
      <trkpt lat="47.00791" lon="8.64948">
        <ele>474</ele>
        <time>2021-08-05T09:01:37.431Z</time>
      </trkpt>
      <trkpt lat="47.00791" lon="8.64946">
        <ele>474</ele>
        <time>2021-08-05T09:01:38.432Z</time>
      </trkpt>
      <trkpt lat="47.00791" lon="8.64946">
        <ele>474</ele>
        <time>2021-08-05T09:01:39.432Z</time>
      </trkpt>
      <trkpt lat="47.00791" lon="8.64946">
        <ele>473</ele>
        <time>2021-08-05T09:01:40.432Z</time>
      </trkpt>
      <trkpt lat="47.00792" lon="8.64946">
        <ele>472</ele>
        <time>2021-08-05T09:01:41.432Z</time>
      </trkpt>
      <trkpt lat="47.00792" lon="8.64946">
        <ele>472</ele>
        <time>2021-08-05T09:01:42.432Z</time>
      </trkpt>
      <trkpt lat="47.00791" lon="8.64946">
        <ele>471</ele>
        <time>2021-08-05T09:01:43.431Z</time>
      </trkpt>
      <trkpt lat="47.00791" lon="8.64945">
        <ele>471</ele>
        <time>2021-08-05T09:01:44.432Z</time>
      </trkpt>
      <trkpt lat="47.00791" lon="8.64945">
        <ele>471</ele>
        <time>2021-08-05T09:01:45.431Z</time>
      </trkpt>
      <trkpt lat="47.00789" lon="8.64945">
        <ele>471</ele>
        <time>2021-08-05T09:01:46.431Z</time>
      </trkpt>
      <trkpt lat="47.00789" lon="8.64944">
        <ele>471</ele>
        <time>2021-08-05T09:01:47.432Z</time>
      </trkpt>
      <trkpt lat="47.00789" lon="8.64944">
        <ele>472</ele>
        <time>2021-08-05T09:01:48.431Z</time>
      </trkpt>
      <trkpt lat="47.00789" lon="8.64944">
        <ele>472</ele>
        <time>2021-08-05T09:01:49.431Z</time>
      </trkpt>
      <trkpt lat="47.00788" lon="8.64942">
        <ele>475</ele>
        <time>2021-08-05T09:01:50.433Z</time>
      </trkpt>
      <trkpt lat="47.00788" lon="8.6494">
        <ele>473</ele>
        <time>2021-08-05T09:01:51.434Z</time>
      </trkpt>
      <trkpt lat="47.00787" lon="8.6494">
        <ele>472</ele>
        <time>2021-08-05T09:01:52.434Z</time>
      </trkpt>
      <trkpt lat="47.00787" lon="8.64939">
        <ele>471</ele>
        <time>2021-08-05T09:01:53.433Z</time>
      </trkpt>
      <trkpt lat="47.00786" lon="8.64938">
        <ele>471</ele>
        <time>2021-08-05T09:01:54.433Z</time>
      </trkpt>
      <trkpt lat="47.00785" lon="8.64938">
        <ele>471</ele>
        <time>2021-08-05T09:01:55.434Z</time>
      </trkpt>
      <trkpt lat="47.00784" lon="8.64937">
        <ele>470</ele>
        <time>2021-08-05T09:01:56.433Z</time>
      </trkpt>
      <trkpt lat="47.00784" lon="8.64936">
        <ele>470</ele>
        <time>2021-08-05T09:01:57.433Z</time>
      </trkpt>
      <trkpt lat="47.00782" lon="8.64934">
        <ele>470</ele>
        <time>2021-08-05T09:01:58.433Z</time>
      </trkpt>
      <trkpt lat="47.00781" lon="8.64933">
        <ele>470</ele>
        <time>2021-08-05T09:01:59.434Z</time>
      </trkpt>
      <trkpt lat="47.00781" lon="8.64932">
        <ele>471</ele>
        <time>2021-08-05T09:02:00.433Z</time>
      </trkpt>
      <trkpt lat="47.0078" lon="8.64932">
        <ele>472</ele>
        <time>2021-08-05T09:02:01.434Z</time>
      </trkpt>
      <trkpt lat="47.00779" lon="8.64931">
        <ele>472</ele>
        <time>2021-08-05T09:02:02.433Z</time>
      </trkpt>
      <trkpt lat="47.00778" lon="8.6493">
        <ele>472</ele>
        <time>2021-08-05T09:02:03.434Z</time>
      </trkpt>
      <trkpt lat="47.00777" lon="8.64929">
        <ele>473</ele>
        <time>2021-08-05T09:02:04.433Z</time>
      </trkpt>
      <trkpt lat="47.00777" lon="8.64929">
        <ele>473</ele>
        <time>2021-08-05T09:02:05.433Z</time>
      </trkpt>
      <trkpt lat="47.00777" lon="8.64929">
        <ele>474</ele>
        <time>2021-08-05T09:02:06.433Z</time>
      </trkpt>
      <trkpt lat="47.00777" lon="8.64929">
        <ele>474</ele>
        <time>2021-08-05T09:02:07.434Z</time>
      </trkpt>
      <trkpt lat="47.00777" lon="8.64931">
        <ele>473</ele>
        <time>2021-08-05T09:02:08.434Z</time>
      </trkpt>
      <trkpt lat="47.00778" lon="8.64931">
        <ele>473</ele>
        <time>2021-08-05T09:02:09.434Z</time>
      </trkpt>
      <trkpt lat="47.00778" lon="8.64931">
        <ele>473</ele>
        <time>2021-08-05T09:02:10.434Z</time>
      </trkpt>
      <trkpt lat="47.00778" lon="8.64931">
        <ele>473</ele>
        <time>2021-08-05T09:02:11.434Z</time>
      </trkpt>
      <trkpt lat="47.00778" lon="8.64931">
        <ele>473</ele>
        <time>2021-08-05T09:02:12.434Z</time>
      </trkpt>
      <trkpt lat="47.00777" lon="8.64932">
        <ele>472</ele>
        <time>2021-08-05T09:02:13.435Z</time>
      </trkpt>
      <trkpt lat="47.00778" lon="8.64931">
        <ele>472</ele>
        <time>2021-08-05T09:02:14.435Z</time>
      </trkpt>
      <trkpt lat="47.00777" lon="8.64931">
        <ele>472</ele>
        <time>2021-08-05T09:02:15.435Z</time>
      </trkpt>
      <trkpt lat="47.00777" lon="8.6493">
        <ele>473</ele>
        <time>2021-08-05T09:02:16.435Z</time>
      </trkpt>
      <trkpt lat="47.00776" lon="8.64929">
        <ele>472</ele>
        <time>2021-08-05T09:02:17.435Z</time>
      </trkpt>
      <trkpt lat="47.00776" lon="8.64929">
        <ele>472</ele>
        <time>2021-08-05T09:02:18.435Z</time>
      </trkpt>
      <trkpt lat="47.00773" lon="8.64926">
        <ele>473</ele>
        <time>2021-08-05T09:02:19.436Z</time>
      </trkpt>
      <trkpt lat="47.00772" lon="8.64925">
        <ele>472</ele>
        <time>2021-08-05T09:02:20.436Z</time>
      </trkpt>
      <trkpt lat="47.00771" lon="8.64924">
        <ele>472</ele>
        <time>2021-08-05T09:02:21.435Z</time>
      </trkpt>
      <trkpt lat="47.00771" lon="8.64924">
        <ele>472</ele>
        <time>2021-08-05T09:02:22.435Z</time>
      </trkpt>
      <trkpt lat="47.0077" lon="8.64923">
        <ele>471</ele>
        <time>2021-08-05T09:02:23.435Z</time>
      </trkpt>
      <trkpt lat="47.00769" lon="8.64923">
        <ele>471</ele>
        <time>2021-08-05T09:02:24.436Z</time>
      </trkpt>
      <trkpt lat="47.00768" lon="8.64922">
        <ele>471</ele>
        <time>2021-08-05T09:02:25.435Z</time>
      </trkpt>
      <trkpt lat="47.00767" lon="8.64922">
        <ele>471</ele>
        <time>2021-08-05T09:02:26.435Z</time>
      </trkpt>
      <trkpt lat="47.00765" lon="8.64921">
        <ele>471</ele>
        <time>2021-08-05T09:02:27.435Z</time>
      </trkpt>
      <trkpt lat="47.00765" lon="8.64921">
        <ele>471</ele>
        <time>2021-08-05T09:02:28.435Z</time>
      </trkpt>
      <trkpt lat="47.00764" lon="8.64921">
        <ele>471</ele>
        <time>2021-08-05T09:02:29.435Z</time>
      </trkpt>
      <trkpt lat="47.00763" lon="8.6492">
        <ele>471</ele>
        <time>2021-08-05T09:02:30.435Z</time>
      </trkpt>
      <trkpt lat="47.00762" lon="8.6492">
        <ele>471</ele>
        <time>2021-08-05T09:02:31.435Z</time>
      </trkpt>
      <trkpt lat="47.00761" lon="8.64919">
        <ele>471</ele>
        <time>2021-08-05T09:02:32.435Z</time>
      </trkpt>
      <trkpt lat="47.0076" lon="8.64919">
        <ele>471</ele>
        <time>2021-08-05T09:02:33.435Z</time>
      </trkpt>
      <trkpt lat="47.00759" lon="8.64919">
        <ele>471</ele>
        <time>2021-08-05T09:02:34.435Z</time>
      </trkpt>
      <trkpt lat="47.00759" lon="8.64918">
        <ele>471</ele>
        <time>2021-08-05T09:02:35.435Z</time>
      </trkpt>
      <trkpt lat="47.00758" lon="8.64917">
        <ele>471</ele>
        <time>2021-08-05T09:02:36.435Z</time>
      </trkpt>
      <trkpt lat="47.00757" lon="8.64916">
        <ele>471</ele>
        <time>2021-08-05T09:02:37.435Z</time>
      </trkpt>
      <trkpt lat="47.00756" lon="8.64916">
        <ele>471</ele>
        <time>2021-08-05T09:02:38.435Z</time>
      </trkpt>
      <trkpt lat="47.00755" lon="8.64915">
        <ele>471</ele>
        <time>2021-08-05T09:02:39.436Z</time>
      </trkpt>
      <trkpt lat="47.00754" lon="8.64913">
        <ele>471</ele>
        <time>2021-08-05T09:02:40.435Z</time>
      </trkpt>
      <trkpt lat="47.00753" lon="8.64912">
        <ele>471</ele>
        <time>2021-08-05T09:02:41.435Z</time>
      </trkpt>
      <trkpt lat="47.00752" lon="8.64911">
        <ele>472</ele>
        <time>2021-08-05T09:02:42.435Z</time>
      </trkpt>
      <trkpt lat="47.00751" lon="8.6491">
        <ele>472</ele>
        <time>2021-08-05T09:02:43.435Z</time>
      </trkpt>
      <trkpt lat="47.00751" lon="8.64909">
        <ele>471</ele>
        <time>2021-08-05T09:02:44.435Z</time>
      </trkpt>
      <trkpt lat="47.0075" lon="8.64908">
        <ele>471</ele>
        <time>2021-08-05T09:02:45.435Z</time>
      </trkpt>
      <trkpt lat="47.00749" lon="8.64906">
        <ele>471</ele>
        <time>2021-08-05T09:02:46.436Z</time>
      </trkpt>
      <trkpt lat="47.00748" lon="8.64905">
        <ele>470</ele>
        <time>2021-08-05T09:02:47.436Z</time>
      </trkpt>
      <trkpt lat="47.00748" lon="8.64904">
        <ele>469</ele>
        <time>2021-08-05T09:02:48.435Z</time>
      </trkpt>
      <trkpt lat="47.00747" lon="8.64903">
        <ele>468</ele>
        <time>2021-08-05T09:02:49.436Z</time>
      </trkpt>
      <trkpt lat="47.00746" lon="8.64901">
        <ele>468</ele>
        <time>2021-08-05T09:02:50.436Z</time>
      </trkpt>
      <trkpt lat="47.00746" lon="8.649">
        <ele>467</ele>
        <time>2021-08-05T09:02:51.436Z</time>
      </trkpt>
      <trkpt lat="47.00745" lon="8.649">
        <ele>467</ele>
        <time>2021-08-05T09:02:52.435Z</time>
      </trkpt>
      <trkpt lat="47.00744" lon="8.649">
        <ele>466</ele>
        <time>2021-08-05T09:02:53.436Z</time>
      </trkpt>
      <trkpt lat="47.00744" lon="8.64899">
        <ele>466</ele>
        <time>2021-08-05T09:02:54.436Z</time>
      </trkpt>
      <trkpt lat="47.00743" lon="8.64898">
        <ele>465</ele>
        <time>2021-08-05T09:02:55.436Z</time>
      </trkpt>
      <trkpt lat="47.00742" lon="8.64896">
        <ele>465</ele>
        <time>2021-08-05T09:02:56.436Z</time>
      </trkpt>
      <trkpt lat="47.00741" lon="8.64895">
        <ele>465</ele>
        <time>2021-08-05T09:02:57.436Z</time>
      </trkpt>
      <trkpt lat="47.0074" lon="8.64895">
        <ele>465</ele>
        <time>2021-08-05T09:02:58.435Z</time>
      </trkpt>
      <trkpt lat="47.00739" lon="8.64894">
        <ele>465</ele>
        <time>2021-08-05T09:02:59.436Z</time>
      </trkpt>
      <trkpt lat="47.00738" lon="8.64893">
        <ele>465</ele>
        <time>2021-08-05T09:03:00.436Z</time>
      </trkpt>
      <trkpt lat="47.00737" lon="8.64892">
        <ele>464</ele>
        <time>2021-08-05T09:03:01.436Z</time>
      </trkpt>
      <trkpt lat="47.00736" lon="8.64891">
        <ele>464</ele>
        <time>2021-08-05T09:03:02.435Z</time>
      </trkpt>
      <trkpt lat="47.00735" lon="8.6489">
        <ele>464</ele>
        <time>2021-08-05T09:03:03.436Z</time>
      </trkpt>
      <trkpt lat="47.00734" lon="8.64889">
        <ele>464</ele>
        <time>2021-08-05T09:03:04.436Z</time>
      </trkpt>
      <trkpt lat="47.00733" lon="8.64888">
        <ele>464</ele>
        <time>2021-08-05T09:03:05.436Z</time>
      </trkpt>
      <trkpt lat="47.00732" lon="8.64887">
        <ele>464</ele>
        <time>2021-08-05T09:03:06.436Z</time>
      </trkpt>
      <trkpt lat="47.00731" lon="8.64886">
        <ele>464</ele>
        <time>2021-08-05T09:03:07.436Z</time>
      </trkpt>
      <trkpt lat="47.0073" lon="8.64885">
        <ele>464</ele>
        <time>2021-08-05T09:03:08.436Z</time>
      </trkpt>
      <trkpt lat="47.00729" lon="8.64884">
        <ele>464</ele>
        <time>2021-08-05T09:03:09.436Z</time>
      </trkpt>
      <trkpt lat="47.00728" lon="8.64883">
        <ele>464</ele>
        <time>2021-08-05T09:03:10.436Z</time>
      </trkpt>
      <trkpt lat="47.00727" lon="8.64882">
        <ele>464</ele>
        <time>2021-08-05T09:03:11.435Z</time>
      </trkpt>
      <trkpt lat="47.00726" lon="8.64881">
        <ele>463</ele>
        <time>2021-08-05T09:03:12.435Z</time>
      </trkpt>
      <trkpt lat="47.00725" lon="8.64881">
        <ele>463</ele>
        <time>2021-08-05T09:03:13.436Z</time>
      </trkpt>
      <trkpt lat="47.00724" lon="8.6488">
        <ele>463</ele>
        <time>2021-08-05T09:03:14.435Z</time>
      </trkpt>
      <trkpt lat="47.00723" lon="8.64878">
        <ele>463</ele>
        <time>2021-08-05T09:03:15.436Z</time>
      </trkpt>
      <trkpt lat="47.00722" lon="8.64877">
        <ele>463</ele>
        <time>2021-08-05T09:03:16.436Z</time>
      </trkpt>
      <trkpt lat="47.00721" lon="8.64876">
        <ele>463</ele>
        <time>2021-08-05T09:03:17.436Z</time>
      </trkpt>
      <trkpt lat="47.0072" lon="8.64875">
        <ele>463</ele>
        <time>2021-08-05T09:03:18.436Z</time>
      </trkpt>
      <trkpt lat="47.00719" lon="8.64873">
        <ele>463</ele>
        <time>2021-08-05T09:03:19.435Z</time>
      </trkpt>
      <trkpt lat="47.00718" lon="8.64871">
        <ele>463</ele>
        <time>2021-08-05T09:03:20.436Z</time>
      </trkpt>
      <trkpt lat="47.00717" lon="8.64871">
        <ele>463</ele>
        <time>2021-08-05T09:03:21.435Z</time>
      </trkpt>
      <trkpt lat="47.00716" lon="8.6487">
        <ele>463</ele>
        <time>2021-08-05T09:03:22.435Z</time>
      </trkpt>
      <trkpt lat="47.00715" lon="8.64868">
        <ele>463</ele>
        <time>2021-08-05T09:03:23.436Z</time>
      </trkpt>
      <trkpt lat="47.00714" lon="8.64867">
        <ele>462</ele>
        <time>2021-08-05T09:03:24.436Z</time>
      </trkpt>
      <trkpt lat="47.00713" lon="8.64865">
        <ele>462</ele>
        <time>2021-08-05T09:03:25.435Z</time>
      </trkpt>
      <trkpt lat="47.00712" lon="8.64864">
        <ele>461</ele>
        <time>2021-08-05T09:03:26.436Z</time>
      </trkpt>
      <trkpt lat="47.00711" lon="8.64863">
        <ele>461</ele>
        <time>2021-08-05T09:03:27.436Z</time>
      </trkpt>
      <trkpt lat="47.0071" lon="8.64862">
        <ele>461</ele>
        <time>2021-08-05T09:03:28.435Z</time>
      </trkpt>
      <trkpt lat="47.00709" lon="8.6486">
        <ele>461</ele>
        <time>2021-08-05T09:03:29.436Z</time>
      </trkpt>
      <trkpt lat="47.00708" lon="8.64859">
        <ele>461</ele>
        <time>2021-08-05T09:03:30.436Z</time>
      </trkpt>
      <trkpt lat="47.00707" lon="8.64858">
        <ele>461</ele>
        <time>2021-08-05T09:03:31.436Z</time>
      </trkpt>
      <trkpt lat="47.00705" lon="8.64855">
        <ele>462</ele>
        <time>2021-08-05T09:03:32.436Z</time>
      </trkpt>
      <trkpt lat="47.00704" lon="8.64855">
        <ele>462</ele>
        <time>2021-08-05T09:03:33.436Z</time>
      </trkpt>
      <trkpt lat="47.00703" lon="8.64854">
        <ele>463</ele>
        <time>2021-08-05T09:03:34.436Z</time>
      </trkpt>
      <trkpt lat="47.00702" lon="8.64854">
        <ele>463</ele>
        <time>2021-08-05T09:03:35.435Z</time>
      </trkpt>
      <trkpt lat="47.00701" lon="8.64853">
        <ele>463</ele>
        <time>2021-08-05T09:03:36.436Z</time>
      </trkpt>
      <trkpt lat="47.00699" lon="8.64852">
        <ele>463</ele>
        <time>2021-08-05T09:03:37.435Z</time>
      </trkpt>
      <trkpt lat="47.00698" lon="8.64852">
        <ele>463</ele>
        <time>2021-08-05T09:03:38.436Z</time>
      </trkpt>
      <trkpt lat="47.00697" lon="8.64851">
        <ele>463</ele>
        <time>2021-08-05T09:03:39.435Z</time>
      </trkpt>
      <trkpt lat="47.00696" lon="8.64851">
        <ele>463</ele>
        <time>2021-08-05T09:03:40.435Z</time>
      </trkpt>
      <trkpt lat="47.00695" lon="8.6485">
        <ele>463</ele>
        <time>2021-08-05T09:03:41.436Z</time>
      </trkpt>
      <trkpt lat="47.00695" lon="8.6485">
        <ele>462</ele>
        <time>2021-08-05T09:03:42.435Z</time>
      </trkpt>
      <trkpt lat="47.00694" lon="8.64849">
        <ele>462</ele>
        <time>2021-08-05T09:03:43.436Z</time>
      </trkpt>
      <trkpt lat="47.00693" lon="8.64848">
        <ele>461</ele>
        <time>2021-08-05T09:03:44.436Z</time>
      </trkpt>
      <trkpt lat="47.00692" lon="8.64847">
        <ele>460</ele>
        <time>2021-08-05T09:03:45.435Z</time>
      </trkpt>
      <trkpt lat="47.0069" lon="8.64846">
        <ele>460</ele>
        <time>2021-08-05T09:03:46.436Z</time>
      </trkpt>
      <trkpt lat="47.00689" lon="8.64844">
        <ele>460</ele>
        <time>2021-08-05T09:03:47.436Z</time>
      </trkpt>
      <trkpt lat="47.00688" lon="8.64844">
        <ele>460</ele>
        <time>2021-08-05T09:03:48.436Z</time>
      </trkpt>
      <trkpt lat="47.00687" lon="8.64843">
        <ele>461</ele>
        <time>2021-08-05T09:03:49.435Z</time>
      </trkpt>
      <trkpt lat="47.00686" lon="8.64843">
        <ele>461</ele>
        <time>2021-08-05T09:03:50.435Z</time>
      </trkpt>
      <trkpt lat="47.00684" lon="8.64842">
        <ele>462</ele>
        <time>2021-08-05T09:03:51.435Z</time>
      </trkpt>
      <trkpt lat="47.00683" lon="8.64842">
        <ele>462</ele>
        <time>2021-08-05T09:03:52.435Z</time>
      </trkpt>
      <trkpt lat="47.00682" lon="8.64841">
        <ele>462</ele>
        <time>2021-08-05T09:03:53.436Z</time>
      </trkpt>
      <trkpt lat="47.00681" lon="8.6484">
        <ele>462</ele>
        <time>2021-08-05T09:03:54.436Z</time>
      </trkpt>
      <trkpt lat="47.0068" lon="8.6484">
        <ele>462</ele>
        <time>2021-08-05T09:03:55.436Z</time>
      </trkpt>
      <trkpt lat="47.00679" lon="8.6484">
        <ele>462</ele>
        <time>2021-08-05T09:03:56.435Z</time>
      </trkpt>
      <trkpt lat="47.00678" lon="8.64839">
        <ele>461</ele>
        <time>2021-08-05T09:03:57.435Z</time>
      </trkpt>
      <trkpt lat="47.00677" lon="8.64838">
        <ele>460</ele>
        <time>2021-08-05T09:03:58.436Z</time>
      </trkpt>
      <trkpt lat="47.00676" lon="8.64837">
        <ele>460</ele>
        <time>2021-08-05T09:03:59.436Z</time>
      </trkpt>
      <trkpt lat="47.00676" lon="8.64837">
        <ele>459</ele>
        <time>2021-08-05T09:04:00.435Z</time>
      </trkpt>
      <trkpt lat="47.00674" lon="8.64836">
        <ele>460</ele>
        <time>2021-08-05T09:04:01.436Z</time>
      </trkpt>
      <trkpt lat="47.00673" lon="8.64836">
        <ele>460</ele>
        <time>2021-08-05T09:04:02.436Z</time>
      </trkpt>
      <trkpt lat="47.00672" lon="8.64835">
        <ele>460</ele>
        <time>2021-08-05T09:04:03.435Z</time>
      </trkpt>
      <trkpt lat="47.00671" lon="8.64834">
        <ele>460</ele>
        <time>2021-08-05T09:04:04.436Z</time>
      </trkpt>
      <trkpt lat="47.0067" lon="8.64833">
        <ele>460</ele>
        <time>2021-08-05T09:04:05.436Z</time>
      </trkpt>
      <trkpt lat="47.00669" lon="8.64833">
        <ele>460</ele>
        <time>2021-08-05T09:04:06.435Z</time>
      </trkpt>
      <trkpt lat="47.00667" lon="8.64833">
        <ele>460</ele>
        <time>2021-08-05T09:04:07.436Z</time>
      </trkpt>
      <trkpt lat="47.00666" lon="8.64832">
        <ele>460</ele>
        <time>2021-08-05T09:04:08.435Z</time>
      </trkpt>
      <trkpt lat="47.00665" lon="8.64832">
        <ele>460</ele>
        <time>2021-08-05T09:04:09.436Z</time>
      </trkpt>
      <trkpt lat="47.00664" lon="8.64832">
        <ele>460</ele>
        <time>2021-08-05T09:04:10.436Z</time>
      </trkpt>
      <trkpt lat="47.00663" lon="8.64831">
        <ele>459</ele>
        <time>2021-08-05T09:04:11.436Z</time>
      </trkpt>
      <trkpt lat="47.00663" lon="8.64831">
        <ele>459</ele>
        <time>2021-08-05T09:04:12.435Z</time>
      </trkpt>
      <trkpt lat="47.00661" lon="8.6483">
        <ele>458</ele>
        <time>2021-08-05T09:04:13.435Z</time>
      </trkpt>
      <trkpt lat="47.0066" lon="8.6483">
        <ele>458</ele>
        <time>2021-08-05T09:04:14.435Z</time>
      </trkpt>
      <trkpt lat="47.00659" lon="8.64829">
        <ele>458</ele>
        <time>2021-08-05T09:04:15.436Z</time>
      </trkpt>
      <trkpt lat="47.00658" lon="8.64829">
        <ele>458</ele>
        <time>2021-08-05T09:04:16.436Z</time>
      </trkpt>
      <trkpt lat="47.00656" lon="8.64827">
        <ele>458</ele>
        <time>2021-08-05T09:04:17.436Z</time>
      </trkpt>
      <trkpt lat="47.00655" lon="8.64826">
        <ele>459</ele>
        <time>2021-08-05T09:04:18.435Z</time>
      </trkpt>
      <trkpt lat="47.00654" lon="8.64825">
        <ele>459</ele>
        <time>2021-08-05T09:04:19.436Z</time>
      </trkpt>
      <trkpt lat="47.00653" lon="8.64825">
        <ele>459</ele>
        <time>2021-08-05T09:04:20.436Z</time>
      </trkpt>
      <trkpt lat="47.00652" lon="8.64825">
        <ele>459</ele>
        <time>2021-08-05T09:04:21.435Z</time>
      </trkpt>
      <trkpt lat="47.00651" lon="8.64825">
        <ele>459</ele>
        <time>2021-08-05T09:04:22.435Z</time>
      </trkpt>
      <trkpt lat="47.00651" lon="8.64825">
        <ele>458</ele>
        <time>2021-08-05T09:04:23.436Z</time>
      </trkpt>
      <trkpt lat="47.0065" lon="8.64824">
        <ele>457</ele>
        <time>2021-08-05T09:04:24.436Z</time>
      </trkpt>
      <trkpt lat="47.00649" lon="8.64823">
        <ele>457</ele>
        <time>2021-08-05T09:04:25.435Z</time>
      </trkpt>
      <trkpt lat="47.00648" lon="8.64821">
        <ele>456</ele>
        <time>2021-08-05T09:04:26.436Z</time>
      </trkpt>
      <trkpt lat="47.00647" lon="8.6482">
        <ele>456</ele>
        <time>2021-08-05T09:04:27.436Z</time>
      </trkpt>
      <trkpt lat="47.00646" lon="8.6482">
        <ele>456</ele>
        <time>2021-08-05T09:04:28.435Z</time>
      </trkpt>
      <trkpt lat="47.00646" lon="8.64821">
        <ele>456</ele>
        <time>2021-08-05T09:04:29.436Z</time>
      </trkpt>
      <trkpt lat="47.00646" lon="8.6482">
        <ele>456</ele>
        <time>2021-08-05T09:04:30.436Z</time>
      </trkpt>
      <trkpt lat="47.00645" lon="8.6482">
        <ele>456</ele>
        <time>2021-08-05T09:04:31.435Z</time>
      </trkpt>
      <trkpt lat="47.00644" lon="8.64819">
        <ele>457</ele>
        <time>2021-08-05T09:04:32.435Z</time>
      </trkpt>
      <trkpt lat="47.00643" lon="8.64818">
        <ele>457</ele>
        <time>2021-08-05T09:04:33.436Z</time>
      </trkpt>
      <trkpt lat="47.00642" lon="8.64817">
        <ele>457</ele>
        <time>2021-08-05T09:04:34.435Z</time>
      </trkpt>
      <trkpt lat="47.00641" lon="8.64816">
        <ele>457</ele>
        <time>2021-08-05T09:04:35.436Z</time>
      </trkpt>
      <trkpt lat="47.0064" lon="8.64815">
        <ele>457</ele>
        <time>2021-08-05T09:04:36.435Z</time>
      </trkpt>
      <trkpt lat="47.00639" lon="8.64815">
        <ele>458</ele>
        <time>2021-08-05T09:04:37.435Z</time>
      </trkpt>
      <trkpt lat="47.00638" lon="8.64816">
        <ele>458</ele>
        <time>2021-08-05T09:04:38.435Z</time>
      </trkpt>
      <trkpt lat="47.00637" lon="8.64815">
        <ele>458</ele>
        <time>2021-08-05T09:04:39.435Z</time>
      </trkpt>
      <trkpt lat="47.00636" lon="8.64814">
        <ele>458</ele>
        <time>2021-08-05T09:04:40.435Z</time>
      </trkpt>
      <trkpt lat="47.00635" lon="8.64813">
        <ele>458</ele>
        <time>2021-08-05T09:04:41.436Z</time>
      </trkpt>
      <trkpt lat="47.00634" lon="8.64812">
        <ele>458</ele>
        <time>2021-08-05T09:04:42.435Z</time>
      </trkpt>
      <trkpt lat="47.00633" lon="8.64811">
        <ele>458</ele>
        <time>2021-08-05T09:04:43.436Z</time>
      </trkpt>
      <trkpt lat="47.00632" lon="8.6481">
        <ele>457</ele>
        <time>2021-08-05T09:04:44.436Z</time>
      </trkpt>
      <trkpt lat="47.00631" lon="8.6481">
        <ele>457</ele>
        <time>2021-08-05T09:04:45.435Z</time>
      </trkpt>
      <trkpt lat="47.0063" lon="8.64809">
        <ele>457</ele>
        <time>2021-08-05T09:04:46.436Z</time>
      </trkpt>
      <trkpt lat="47.00629" lon="8.64808">
        <ele>457</ele>
        <time>2021-08-05T09:04:47.436Z</time>
      </trkpt>
      <trkpt lat="47.00628" lon="8.64807">
        <ele>457</ele>
        <time>2021-08-05T09:04:48.436Z</time>
      </trkpt>
      <trkpt lat="47.00628" lon="8.64806">
        <ele>457</ele>
        <time>2021-08-05T09:04:49.436Z</time>
      </trkpt>
      <trkpt lat="47.00627" lon="8.64804">
        <ele>457</ele>
        <time>2021-08-05T09:04:50.436Z</time>
      </trkpt>
      <trkpt lat="47.00626" lon="8.64803">
        <ele>457</ele>
        <time>2021-08-05T09:04:51.436Z</time>
      </trkpt>
      <trkpt lat="47.00625" lon="8.64801">
        <ele>457</ele>
        <time>2021-08-05T09:04:52.436Z</time>
      </trkpt>
      <trkpt lat="47.00624" lon="8.64799">
        <ele>458</ele>
        <time>2021-08-05T09:04:53.436Z</time>
      </trkpt>
      <trkpt lat="47.00624" lon="8.64798">
        <ele>458</ele>
        <time>2021-08-05T09:04:54.436Z</time>
      </trkpt>
      <trkpt lat="47.00623" lon="8.64796">
        <ele>459</ele>
        <time>2021-08-05T09:04:55.436Z</time>
      </trkpt>
      <trkpt lat="47.00622" lon="8.64795">
        <ele>460</ele>
        <time>2021-08-05T09:04:56.436Z</time>
      </trkpt>
      <trkpt lat="47.0062" lon="8.64793">
        <ele>461</ele>
        <time>2021-08-05T09:04:57.436Z</time>
      </trkpt>
      <trkpt lat="47.00619" lon="8.64792">
        <ele>461</ele>
        <time>2021-08-05T09:04:58.435Z</time>
      </trkpt>
      <trkpt lat="47.00619" lon="8.64791">
        <ele>461</ele>
        <time>2021-08-05T09:04:59.436Z</time>
      </trkpt>
      <trkpt lat="47.00618" lon="8.6479">
        <ele>461</ele>
        <time>2021-08-05T09:05:00.436Z</time>
      </trkpt>
      <trkpt lat="47.00617" lon="8.64788">
        <ele>461</ele>
        <time>2021-08-05T09:05:01.436Z</time>
      </trkpt>
      <trkpt lat="47.00616" lon="8.64787">
        <ele>461</ele>
        <time>2021-08-05T09:05:02.436Z</time>
      </trkpt>
      <trkpt lat="47.00616" lon="8.64786">
        <ele>460</ele>
        <time>2021-08-05T09:05:03.436Z</time>
      </trkpt>
      <trkpt lat="47.00615" lon="8.64785">
        <ele>460</ele>
        <time>2021-08-05T09:05:04.436Z</time>
      </trkpt>
      <trkpt lat="47.00614" lon="8.64784">
        <ele>459</ele>
        <time>2021-08-05T09:05:05.436Z</time>
      </trkpt>
      <trkpt lat="47.00613" lon="8.64783">
        <ele>459</ele>
        <time>2021-08-05T09:05:06.436Z</time>
      </trkpt>
      <trkpt lat="47.00613" lon="8.64782">
        <ele>458</ele>
        <time>2021-08-05T09:05:07.436Z</time>
      </trkpt>
      <trkpt lat="47.00612" lon="8.64781">
        <ele>458</ele>
        <time>2021-08-05T09:05:08.436Z</time>
      </trkpt>
      <trkpt lat="47.00612" lon="8.6478">
        <ele>459</ele>
        <time>2021-08-05T09:05:09.435Z</time>
      </trkpt>
      <trkpt lat="47.00611" lon="8.64779">
        <ele>459</ele>
        <time>2021-08-05T09:05:10.436Z</time>
      </trkpt>
      <trkpt lat="47.0061" lon="8.64777">
        <ele>459</ele>
        <time>2021-08-05T09:05:11.435Z</time>
      </trkpt>
      <trkpt lat="47.00609" lon="8.64777">
        <ele>460</ele>
        <time>2021-08-05T09:05:12.436Z</time>
      </trkpt>
      <trkpt lat="47.00609" lon="8.64776">
        <ele>460</ele>
        <time>2021-08-05T09:05:13.436Z</time>
      </trkpt>
      <trkpt lat="47.00608" lon="8.64775">
        <ele>460</ele>
        <time>2021-08-05T09:05:14.436Z</time>
      </trkpt>
      <trkpt lat="47.00608" lon="8.64774">
        <ele>459</ele>
        <time>2021-08-05T09:05:15.436Z</time>
      </trkpt>
      <trkpt lat="47.00607" lon="8.64772">
        <ele>459</ele>
        <time>2021-08-05T09:05:16.436Z</time>
      </trkpt>
      <trkpt lat="47.00606" lon="8.64771">
        <ele>459</ele>
        <time>2021-08-05T09:05:17.436Z</time>
      </trkpt>
      <trkpt lat="47.00605" lon="8.6477">
        <ele>459</ele>
        <time>2021-08-05T09:05:18.436Z</time>
      </trkpt>
      <trkpt lat="47.00605" lon="8.64769">
        <ele>459</ele>
        <time>2021-08-05T09:05:19.435Z</time>
      </trkpt>
      <trkpt lat="47.00604" lon="8.64767">
        <ele>459</ele>
        <time>2021-08-05T09:05:20.436Z</time>
      </trkpt>
      <trkpt lat="47.00603" lon="8.64765">
        <ele>459</ele>
        <time>2021-08-05T09:05:21.436Z</time>
      </trkpt>
      <trkpt lat="47.00602" lon="8.64764">
        <ele>458</ele>
        <time>2021-08-05T09:05:22.435Z</time>
      </trkpt>
      <trkpt lat="47.00602" lon="8.64763">
        <ele>458</ele>
        <time>2021-08-05T09:05:23.436Z</time>
      </trkpt>
      <trkpt lat="47.00601" lon="8.64762">
        <ele>458</ele>
        <time>2021-08-05T09:05:24.436Z</time>
      </trkpt>
      <trkpt lat="47.00601" lon="8.64761">
        <ele>458</ele>
        <time>2021-08-05T09:05:25.436Z</time>
      </trkpt>
      <trkpt lat="47.006" lon="8.6476">
        <ele>458</ele>
        <time>2021-08-05T09:05:26.435Z</time>
      </trkpt>
      <trkpt lat="47.00599" lon="8.64759">
        <ele>458</ele>
        <time>2021-08-05T09:05:27.436Z</time>
      </trkpt>
      <trkpt lat="47.00598" lon="8.64758">
        <ele>457</ele>
        <time>2021-08-05T09:05:28.436Z</time>
      </trkpt>
      <trkpt lat="47.00597" lon="8.64756">
        <ele>457</ele>
        <time>2021-08-05T09:05:29.436Z</time>
      </trkpt>
      <trkpt lat="47.00597" lon="8.64754">
        <ele>456</ele>
        <time>2021-08-05T09:05:30.436Z</time>
      </trkpt>
      <trkpt lat="47.00596" lon="8.64753">
        <ele>456</ele>
        <time>2021-08-05T09:05:31.436Z</time>
      </trkpt>
      <trkpt lat="47.00595" lon="8.64751">
        <ele>455</ele>
        <time>2021-08-05T09:05:32.436Z</time>
      </trkpt>
      <trkpt lat="47.00595" lon="8.6475">
        <ele>455</ele>
        <time>2021-08-05T09:05:33.435Z</time>
      </trkpt>
      <trkpt lat="47.00594" lon="8.64748">
        <ele>454</ele>
        <time>2021-08-05T09:05:34.435Z</time>
      </trkpt>
      <trkpt lat="47.00593" lon="8.64746">
        <ele>454</ele>
        <time>2021-08-05T09:05:35.435Z</time>
      </trkpt>
      <trkpt lat="47.00592" lon="8.64744">
        <ele>454</ele>
        <time>2021-08-05T09:05:36.435Z</time>
      </trkpt>
      <trkpt lat="47.00591" lon="8.64743">
        <ele>454</ele>
        <time>2021-08-05T09:05:37.436Z</time>
      </trkpt>
      <trkpt lat="47.00591" lon="8.64742">
        <ele>454</ele>
        <time>2021-08-05T09:05:38.436Z</time>
      </trkpt>
      <trkpt lat="47.0059" lon="8.64741">
        <ele>454</ele>
        <time>2021-08-05T09:05:39.436Z</time>
      </trkpt>
      <trkpt lat="47.00589" lon="8.6474">
        <ele>455</ele>
        <time>2021-08-05T09:05:40.436Z</time>
      </trkpt>
      <trkpt lat="47.00589" lon="8.64739">
        <ele>455</ele>
        <time>2021-08-05T09:05:41.436Z</time>
      </trkpt>
      <trkpt lat="47.00588" lon="8.64739">
        <ele>455</ele>
        <time>2021-08-05T09:05:42.436Z</time>
      </trkpt>
      <trkpt lat="47.00587" lon="8.64737">
        <ele>455</ele>
        <time>2021-08-05T09:05:43.436Z</time>
      </trkpt>
      <trkpt lat="47.00586" lon="8.64735">
        <ele>455</ele>
        <time>2021-08-05T09:05:44.436Z</time>
      </trkpt>
      <trkpt lat="47.00584" lon="8.64733">
        <ele>455</ele>
        <time>2021-08-05T09:05:45.436Z</time>
      </trkpt>
      <trkpt lat="47.00583" lon="8.64731">
        <ele>456</ele>
        <time>2021-08-05T09:05:46.436Z</time>
      </trkpt>
      <trkpt lat="47.00582" lon="8.64731">
        <ele>456</ele>
        <time>2021-08-05T09:05:47.435Z</time>
      </trkpt>
      <trkpt lat="47.00581" lon="8.6473">
        <ele>456</ele>
        <time>2021-08-05T09:05:48.436Z</time>
      </trkpt>
      <trkpt lat="47.0058" lon="8.64729">
        <ele>457</ele>
        <time>2021-08-05T09:05:49.435Z</time>
      </trkpt>
      <trkpt lat="47.00579" lon="8.64728">
        <ele>457</ele>
        <time>2021-08-05T09:05:50.435Z</time>
      </trkpt>
      <trkpt lat="47.00578" lon="8.64726">
        <ele>457</ele>
        <time>2021-08-05T09:05:51.435Z</time>
      </trkpt>
      <trkpt lat="47.00577" lon="8.64725">
        <ele>458</ele>
        <time>2021-08-05T09:05:52.436Z</time>
      </trkpt>
      <trkpt lat="47.00576" lon="8.64725">
        <ele>458</ele>
        <time>2021-08-05T09:05:53.435Z</time>
      </trkpt>
      <trkpt lat="47.00575" lon="8.64722">
        <ele>458</ele>
        <time>2021-08-05T09:05:54.435Z</time>
      </trkpt>
      <trkpt lat="47.00573" lon="8.64721">
        <ele>458</ele>
        <time>2021-08-05T09:05:55.436Z</time>
      </trkpt>
      <trkpt lat="47.00573" lon="8.64719">
        <ele>458</ele>
        <time>2021-08-05T09:05:56.435Z</time>
      </trkpt>
      <trkpt lat="47.00572" lon="8.64718">
        <ele>458</ele>
        <time>2021-08-05T09:05:57.436Z</time>
      </trkpt>
      <trkpt lat="47.00572" lon="8.64717">
        <ele>457</ele>
        <time>2021-08-05T09:05:58.436Z</time>
      </trkpt>
      <trkpt lat="47.00571" lon="8.64715">
        <ele>457</ele>
        <time>2021-08-05T09:05:59.436Z</time>
      </trkpt>
      <trkpt lat="47.00571" lon="8.64714">
        <ele>457</ele>
        <time>2021-08-05T09:06:00.436Z</time>
      </trkpt>
      <trkpt lat="47.0057" lon="8.64713">
        <ele>457</ele>
        <time>2021-08-05T09:06:01.436Z</time>
      </trkpt>
      <trkpt lat="47.00569" lon="8.64712">
        <ele>457</ele>
        <time>2021-08-05T09:06:02.435Z</time>
      </trkpt>
      <trkpt lat="47.00569" lon="8.64711">
        <ele>457</ele>
        <time>2021-08-05T09:06:03.436Z</time>
      </trkpt>
      <trkpt lat="47.00568" lon="8.64709">
        <ele>457</ele>
        <time>2021-08-05T09:06:04.436Z</time>
      </trkpt>
      <trkpt lat="47.00567" lon="8.64708">
        <ele>457</ele>
        <time>2021-08-05T09:06:05.435Z</time>
      </trkpt>
      <trkpt lat="47.00567" lon="8.64707">
        <ele>458</ele>
        <time>2021-08-05T09:06:06.436Z</time>
      </trkpt>
      <trkpt lat="47.00566" lon="8.64706">
        <ele>458</ele>
        <time>2021-08-05T09:06:07.435Z</time>
      </trkpt>
      <trkpt lat="47.00565" lon="8.64705">
        <ele>459</ele>
        <time>2021-08-05T09:06:08.436Z</time>
      </trkpt>
      <trkpt lat="47.00564" lon="8.64704">
        <ele>459</ele>
        <time>2021-08-05T09:06:09.435Z</time>
      </trkpt>
      <trkpt lat="47.00564" lon="8.64703">
        <ele>458</ele>
        <time>2021-08-05T09:06:10.436Z</time>
      </trkpt>
      <trkpt lat="47.00563" lon="8.64701">
        <ele>458</ele>
        <time>2021-08-05T09:06:11.435Z</time>
      </trkpt>
      <trkpt lat="47.00562" lon="8.647">
        <ele>458</ele>
        <time>2021-08-05T09:06:12.436Z</time>
      </trkpt>
      <trkpt lat="47.00562" lon="8.64699">
        <ele>458</ele>
        <time>2021-08-05T09:06:13.436Z</time>
      </trkpt>
      <trkpt lat="47.00561" lon="8.64698">
        <ele>457</ele>
        <time>2021-08-05T09:06:14.435Z</time>
      </trkpt>
      <trkpt lat="47.00561" lon="8.64698">
        <ele>457</ele>
        <time>2021-08-05T09:06:15.436Z</time>
      </trkpt>
      <trkpt lat="47.0056" lon="8.64697">
        <ele>456</ele>
        <time>2021-08-05T09:06:16.435Z</time>
      </trkpt>
      <trkpt lat="47.00559" lon="8.64696">
        <ele>456</ele>
        <time>2021-08-05T09:06:17.436Z</time>
      </trkpt>
      <trkpt lat="47.00559" lon="8.64696">
        <ele>455</ele>
        <time>2021-08-05T09:06:18.435Z</time>
      </trkpt>
      <trkpt lat="47.00559" lon="8.64695">
        <ele>455</ele>
        <time>2021-08-05T09:06:19.436Z</time>
      </trkpt>
      <trkpt lat="47.00558" lon="8.64695">
        <ele>455</ele>
        <time>2021-08-05T09:06:20.436Z</time>
      </trkpt>
      <trkpt lat="47.00558" lon="8.64694">
        <ele>454</ele>
        <time>2021-08-05T09:06:21.436Z</time>
      </trkpt>
      <trkpt lat="47.00557" lon="8.64692">
        <ele>454</ele>
        <time>2021-08-05T09:06:22.435Z</time>
      </trkpt>
      <trkpt lat="47.00558" lon="8.64691">
        <ele>454</ele>
        <time>2021-08-05T09:06:23.436Z</time>
      </trkpt>
      <trkpt lat="47.00558" lon="8.64689">
        <ele>453</ele>
        <time>2021-08-05T09:06:24.436Z</time>
      </trkpt>
      <trkpt lat="47.00559" lon="8.64688">
        <ele>453</ele>
        <time>2021-08-05T09:06:25.435Z</time>
      </trkpt>
      <trkpt lat="47.00559" lon="8.64686">
        <ele>454</ele>
        <time>2021-08-05T09:06:26.436Z</time>
      </trkpt>
      <trkpt lat="47.00559" lon="8.64685">
        <ele>454</ele>
        <time>2021-08-05T09:06:27.435Z</time>
      </trkpt>
      <trkpt lat="47.00559" lon="8.64683">
        <ele>454</ele>
        <time>2021-08-05T09:06:28.435Z</time>
      </trkpt>
      <trkpt lat="47.00558" lon="8.64682">
        <ele>454</ele>
        <time>2021-08-05T09:06:29.435Z</time>
      </trkpt>
      <trkpt lat="47.00558" lon="8.64681">
        <ele>454</ele>
        <time>2021-08-05T09:06:30.436Z</time>
      </trkpt>
      <trkpt lat="47.00557" lon="8.6468">
        <ele>454</ele>
        <time>2021-08-05T09:06:31.435Z</time>
      </trkpt>
      <trkpt lat="47.00557" lon="8.6468">
        <ele>454</ele>
        <time>2021-08-05T09:06:32.436Z</time>
      </trkpt>
      <trkpt lat="47.00556" lon="8.64679">
        <ele>454</ele>
        <time>2021-08-05T09:06:33.435Z</time>
      </trkpt>
      <trkpt lat="47.00555" lon="8.64677">
        <ele>453</ele>
        <time>2021-08-05T09:06:34.436Z</time>
      </trkpt>
      <trkpt lat="47.00555" lon="8.64676">
        <ele>453</ele>
        <time>2021-08-05T09:06:35.435Z</time>
      </trkpt>
      <trkpt lat="47.00554" lon="8.64676">
        <ele>453</ele>
        <time>2021-08-05T09:06:36.436Z</time>
      </trkpt>
      <trkpt lat="47.00554" lon="8.64674">
        <ele>453</ele>
        <time>2021-08-05T09:06:37.435Z</time>
      </trkpt>
      <trkpt lat="47.00553" lon="8.64673">
        <ele>453</ele>
        <time>2021-08-05T09:06:38.436Z</time>
      </trkpt>
      <trkpt lat="47.00552" lon="8.64672">
        <ele>453</ele>
        <time>2021-08-05T09:06:39.436Z</time>
      </trkpt>
      <trkpt lat="47.00552" lon="8.64671">
        <ele>454</ele>
        <time>2021-08-05T09:06:40.436Z</time>
      </trkpt>
      <trkpt lat="47.00551" lon="8.6467">
        <ele>454</ele>
        <time>2021-08-05T09:06:41.436Z</time>
      </trkpt>
      <trkpt lat="47.0055" lon="8.64669">
        <ele>454</ele>
        <time>2021-08-05T09:06:42.436Z</time>
      </trkpt>
      <trkpt lat="47.00549" lon="8.64667">
        <ele>454</ele>
        <time>2021-08-05T09:06:43.436Z</time>
      </trkpt>
      <trkpt lat="47.00548" lon="8.64666">
        <ele>454</ele>
        <time>2021-08-05T09:06:44.436Z</time>
      </trkpt>
      <trkpt lat="47.00547" lon="8.64665">
        <ele>454</ele>
        <time>2021-08-05T09:06:45.435Z</time>
      </trkpt>
      <trkpt lat="47.00546" lon="8.64663">
        <ele>454</ele>
        <time>2021-08-05T09:06:46.436Z</time>
      </trkpt>
      <trkpt lat="47.00545" lon="8.64662">
        <ele>455</ele>
        <time>2021-08-05T09:06:47.436Z</time>
      </trkpt>
      <trkpt lat="47.00544" lon="8.64661">
        <ele>455</ele>
        <time>2021-08-05T09:06:48.436Z</time>
      </trkpt>
      <trkpt lat="47.00543" lon="8.64659">
        <ele>455</ele>
        <time>2021-08-05T09:06:49.436Z</time>
      </trkpt>
      <trkpt lat="47.00543" lon="8.64658">
        <ele>456</ele>
        <time>2021-08-05T09:06:50.435Z</time>
      </trkpt>
      <trkpt lat="47.00542" lon="8.64656">
        <ele>456</ele>
        <time>2021-08-05T09:06:51.436Z</time>
      </trkpt>
      <trkpt lat="47.00541" lon="8.64655">
        <ele>456</ele>
        <time>2021-08-05T09:06:52.435Z</time>
      </trkpt>
      <trkpt lat="47.0054" lon="8.64654">
        <ele>456</ele>
        <time>2021-08-05T09:06:53.436Z</time>
      </trkpt>
      <trkpt lat="47.00539" lon="8.64653">
        <ele>455</ele>
        <time>2021-08-05T09:06:54.435Z</time>
      </trkpt>
      <trkpt lat="47.00539" lon="8.64651">
        <ele>455</ele>
        <time>2021-08-05T09:06:55.436Z</time>
      </trkpt>
      <trkpt lat="47.00538" lon="8.6465">
        <ele>455</ele>
        <time>2021-08-05T09:06:56.436Z</time>
      </trkpt>
      <trkpt lat="47.00537" lon="8.64648">
        <ele>456</ele>
        <time>2021-08-05T09:06:57.436Z</time>
      </trkpt>
      <trkpt lat="47.00536" lon="8.64647">
        <ele>456</ele>
        <time>2021-08-05T09:06:58.436Z</time>
      </trkpt>
      <trkpt lat="47.00535" lon="8.64646">
        <ele>456</ele>
        <time>2021-08-05T09:06:59.436Z</time>
      </trkpt>
      <trkpt lat="47.00534" lon="8.64644">
        <ele>456</ele>
        <time>2021-08-05T09:07:00.435Z</time>
      </trkpt>
      <trkpt lat="47.00533" lon="8.64643">
        <ele>456</ele>
        <time>2021-08-05T09:07:01.435Z</time>
      </trkpt>
      <trkpt lat="47.00533" lon="8.64642">
        <ele>456</ele>
        <time>2021-08-05T09:07:02.435Z</time>
      </trkpt>
      <trkpt lat="47.00532" lon="8.6464">
        <ele>456</ele>
        <time>2021-08-05T09:07:03.436Z</time>
      </trkpt>
      <trkpt lat="47.00531" lon="8.64639">
        <ele>456</ele>
        <time>2021-08-05T09:07:04.435Z</time>
      </trkpt>
      <trkpt lat="47.0053" lon="8.64638">
        <ele>455</ele>
        <time>2021-08-05T09:07:05.436Z</time>
      </trkpt>
      <trkpt lat="47.0053" lon="8.64637">
        <ele>455</ele>
        <time>2021-08-05T09:07:06.436Z</time>
      </trkpt>
      <trkpt lat="47.00529" lon="8.64637">
        <ele>455</ele>
        <time>2021-08-05T09:07:07.435Z</time>
      </trkpt>
      <trkpt lat="47.00528" lon="8.64637">
        <ele>455</ele>
        <time>2021-08-05T09:07:08.435Z</time>
      </trkpt>
      <trkpt lat="47.00528" lon="8.64637">
        <ele>455</ele>
        <time>2021-08-05T09:07:09.436Z</time>
      </trkpt>
      <trkpt lat="47.00528" lon="8.64639">
        <ele>454</ele>
        <time>2021-08-05T09:07:10.437Z</time>
      </trkpt>
      <trkpt lat="47.00528" lon="8.64638">
        <ele>454</ele>
        <time>2021-08-05T09:07:11.438Z</time>
      </trkpt>
      <trkpt lat="47.00527" lon="8.64636">
        <ele>454</ele>
        <time>2021-08-05T09:07:12.438Z</time>
      </trkpt>
      <trkpt lat="47.00526" lon="8.64635">
        <ele>454</ele>
        <time>2021-08-05T09:07:13.437Z</time>
      </trkpt>
      <trkpt lat="47.00525" lon="8.64634">
        <ele>454</ele>
        <time>2021-08-05T09:07:14.438Z</time>
      </trkpt>
      <trkpt lat="47.00524" lon="8.64633">
        <ele>454</ele>
        <time>2021-08-05T09:07:15.438Z</time>
      </trkpt>
      <trkpt lat="47.00523" lon="8.64632">
        <ele>454</ele>
        <time>2021-08-05T09:07:16.438Z</time>
      </trkpt>
      <trkpt lat="47.00522" lon="8.64631">
        <ele>454</ele>
        <time>2021-08-05T09:07:17.437Z</time>
      </trkpt>
      <trkpt lat="47.00521" lon="8.6463">
        <ele>454</ele>
        <time>2021-08-05T09:07:18.438Z</time>
      </trkpt>
      <trkpt lat="47.0052" lon="8.64629">
        <ele>454</ele>
        <time>2021-08-05T09:07:19.438Z</time>
      </trkpt>
      <trkpt lat="47.00519" lon="8.64628">
        <ele>455</ele>
        <time>2021-08-05T09:07:20.438Z</time>
      </trkpt>
      <trkpt lat="47.00518" lon="8.64626">
        <ele>455</ele>
        <time>2021-08-05T09:07:21.438Z</time>
      </trkpt>
      <trkpt lat="47.00517" lon="8.64625">
        <ele>456</ele>
        <time>2021-08-05T09:07:22.438Z</time>
      </trkpt>
      <trkpt lat="47.00516" lon="8.64624">
        <ele>456</ele>
        <time>2021-08-05T09:07:23.438Z</time>
      </trkpt>
      <trkpt lat="47.00515" lon="8.64623">
        <ele>456</ele>
        <time>2021-08-05T09:07:24.438Z</time>
      </trkpt>
      <trkpt lat="47.00515" lon="8.64622">
        <ele>456</ele>
        <time>2021-08-05T09:07:25.438Z</time>
      </trkpt>
      <trkpt lat="47.00514" lon="8.64621">
        <ele>457</ele>
        <time>2021-08-05T09:07:26.438Z</time>
      </trkpt>
      <trkpt lat="47.00512" lon="8.6462">
        <ele>457</ele>
        <time>2021-08-05T09:07:27.438Z</time>
      </trkpt>
      <trkpt lat="47.00511" lon="8.64619">
        <ele>457</ele>
        <time>2021-08-05T09:07:28.438Z</time>
      </trkpt>
      <trkpt lat="47.0051" lon="8.64618">
        <ele>456</ele>
        <time>2021-08-05T09:07:29.438Z</time>
      </trkpt>
      <trkpt lat="47.00509" lon="8.64617">
        <ele>456</ele>
        <time>2021-08-05T09:07:30.437Z</time>
      </trkpt>
      <trkpt lat="47.00508" lon="8.64616">
        <ele>456</ele>
        <time>2021-08-05T09:07:31.437Z</time>
      </trkpt>
      <trkpt lat="47.00507" lon="8.64615">
        <ele>455</ele>
        <time>2021-08-05T09:07:32.438Z</time>
      </trkpt>
      <trkpt lat="47.00506" lon="8.64614">
        <ele>455</ele>
        <time>2021-08-05T09:07:33.438Z</time>
      </trkpt>
      <trkpt lat="47.00505" lon="8.64612">
        <ele>454</ele>
        <time>2021-08-05T09:07:34.438Z</time>
      </trkpt>
      <trkpt lat="47.00504" lon="8.64611">
        <ele>454</ele>
        <time>2021-08-05T09:07:35.438Z</time>
      </trkpt>
      <trkpt lat="47.00503" lon="8.6461">
        <ele>454</ele>
        <time>2021-08-05T09:07:36.437Z</time>
      </trkpt>
      <trkpt lat="47.00502" lon="8.64608">
        <ele>454</ele>
        <time>2021-08-05T09:07:37.438Z</time>
      </trkpt>
      <trkpt lat="47.00501" lon="8.64608">
        <ele>454</ele>
        <time>2021-08-05T09:07:38.438Z</time>
      </trkpt>
      <trkpt lat="47.005" lon="8.64607">
        <ele>454</ele>
        <time>2021-08-05T09:07:39.437Z</time>
      </trkpt>
      <trkpt lat="47.00499" lon="8.64607">
        <ele>454</ele>
        <time>2021-08-05T09:07:40.438Z</time>
      </trkpt>
      <trkpt lat="47.00498" lon="8.64606">
        <ele>455</ele>
        <time>2021-08-05T09:07:41.438Z</time>
      </trkpt>
      <trkpt lat="47.00496" lon="8.64605">
        <ele>455</ele>
        <time>2021-08-05T09:07:42.438Z</time>
      </trkpt>
      <trkpt lat="47.00495" lon="8.64604">
        <ele>456</ele>
        <time>2021-08-05T09:07:43.438Z</time>
      </trkpt>
      <trkpt lat="47.00495" lon="8.64603">
        <ele>456</ele>
        <time>2021-08-05T09:07:44.438Z</time>
      </trkpt>
      <trkpt lat="47.00494" lon="8.64601">
        <ele>457</ele>
        <time>2021-08-05T09:07:45.437Z</time>
      </trkpt>
      <trkpt lat="47.00493" lon="8.64601">
        <ele>457</ele>
        <time>2021-08-05T09:07:46.437Z</time>
      </trkpt>
      <trkpt lat="47.00491" lon="8.646">
        <ele>457</ele>
        <time>2021-08-05T09:07:47.438Z</time>
      </trkpt>
      <trkpt lat="47.0049" lon="8.64599">
        <ele>458</ele>
        <time>2021-08-05T09:07:48.438Z</time>
      </trkpt>
      <trkpt lat="47.00489" lon="8.64599">
        <ele>458</ele>
        <time>2021-08-05T09:07:49.437Z</time>
      </trkpt>
      <trkpt lat="47.00487" lon="8.64599">
        <ele>458</ele>
        <time>2021-08-05T09:07:50.437Z</time>
      </trkpt>
      <trkpt lat="47.00486" lon="8.64599">
        <ele>459</ele>
        <time>2021-08-05T09:07:51.438Z</time>
      </trkpt>
      <trkpt lat="47.00485" lon="8.64598">
        <ele>459</ele>
        <time>2021-08-05T09:07:52.438Z</time>
      </trkpt>
      <trkpt lat="47.00484" lon="8.64598">
        <ele>459</ele>
        <time>2021-08-05T09:07:53.437Z</time>
      </trkpt>
      <trkpt lat="47.00483" lon="8.64597">
        <ele>459</ele>
        <time>2021-08-05T09:07:54.438Z</time>
      </trkpt>
      <trkpt lat="47.00482" lon="8.64596">
        <ele>460</ele>
        <time>2021-08-05T09:07:55.438Z</time>
      </trkpt>
      <trkpt lat="47.00481" lon="8.64596">
        <ele>460</ele>
        <time>2021-08-05T09:07:56.437Z</time>
      </trkpt>
      <trkpt lat="47.0048" lon="8.64595">
        <ele>460</ele>
        <time>2021-08-05T09:07:57.438Z</time>
      </trkpt>
      <trkpt lat="47.00479" lon="8.64595">
        <ele>460</ele>
        <time>2021-08-05T09:07:58.438Z</time>
      </trkpt>
      <trkpt lat="47.00478" lon="8.64594">
        <ele>459</ele>
        <time>2021-08-05T09:07:59.438Z</time>
      </trkpt>
      <trkpt lat="47.00478" lon="8.64592">
        <ele>459</ele>
        <time>2021-08-05T09:08:00.438Z</time>
      </trkpt>
      <trkpt lat="47.00477" lon="8.6459">
        <ele>458</ele>
        <time>2021-08-05T09:08:01.438Z</time>
      </trkpt>
      <trkpt lat="47.00476" lon="8.64588">
        <ele>458</ele>
        <time>2021-08-05T09:08:02.437Z</time>
      </trkpt>
      <trkpt lat="47.00475" lon="8.64587">
        <ele>457</ele>
        <time>2021-08-05T09:08:03.437Z</time>
      </trkpt>
      <trkpt lat="47.00474" lon="8.64586">
        <ele>457</ele>
        <time>2021-08-05T09:08:04.437Z</time>
      </trkpt>
      <trkpt lat="47.00473" lon="8.64586">
        <ele>456</ele>
        <time>2021-08-05T09:08:05.438Z</time>
      </trkpt>
      <trkpt lat="47.00472" lon="8.64586">
        <ele>456</ele>
        <time>2021-08-05T09:08:06.437Z</time>
      </trkpt>
      <trkpt lat="47.00472" lon="8.64584">
        <ele>456</ele>
        <time>2021-08-05T09:08:07.438Z</time>
      </trkpt>
      <trkpt lat="47.00471" lon="8.64582">
        <ele>455</ele>
        <time>2021-08-05T09:08:08.438Z</time>
      </trkpt>
      <trkpt lat="47.0047" lon="8.64581">
        <ele>455</ele>
        <time>2021-08-05T09:08:09.438Z</time>
      </trkpt>
      <trkpt lat="47.00469" lon="8.64579">
        <ele>455</ele>
        <time>2021-08-05T09:08:10.438Z</time>
      </trkpt>
      <trkpt lat="47.00469" lon="8.64578">
        <ele>455</ele>
        <time>2021-08-05T09:08:11.437Z</time>
      </trkpt>
      <trkpt lat="47.00468" lon="8.64577">
        <ele>455</ele>
        <time>2021-08-05T09:08:12.437Z</time>
      </trkpt>
      <trkpt lat="47.00467" lon="8.64576">
        <ele>455</ele>
        <time>2021-08-05T09:08:13.437Z</time>
      </trkpt>
      <trkpt lat="47.00466" lon="8.64574">
        <ele>454</ele>
        <time>2021-08-05T09:08:14.438Z</time>
      </trkpt>
      <trkpt lat="47.00465" lon="8.64573">
        <ele>454</ele>
        <time>2021-08-05T09:08:15.437Z</time>
      </trkpt>
      <trkpt lat="47.00465" lon="8.64571">
        <ele>454</ele>
        <time>2021-08-05T09:08:16.437Z</time>
      </trkpt>
      <trkpt lat="47.00463" lon="8.6457">
        <ele>454</ele>
        <time>2021-08-05T09:08:17.437Z</time>
      </trkpt>
      <trkpt lat="47.00462" lon="8.64569">
        <ele>453</ele>
        <time>2021-08-05T09:08:18.438Z</time>
      </trkpt>
      <trkpt lat="47.00461" lon="8.64568">
        <ele>453</ele>
        <time>2021-08-05T09:08:19.437Z</time>
      </trkpt>
      <trkpt lat="47.0046" lon="8.64567">
        <ele>453</ele>
        <time>2021-08-05T09:08:20.437Z</time>
      </trkpt>
      <trkpt lat="47.00459" lon="8.64566">
        <ele>453</ele>
        <time>2021-08-05T09:08:21.437Z</time>
      </trkpt>
      <trkpt lat="47.00458" lon="8.64565">
        <ele>453</ele>
        <time>2021-08-05T09:08:22.437Z</time>
      </trkpt>
      <trkpt lat="47.00458" lon="8.64564">
        <ele>453</ele>
        <time>2021-08-05T09:08:23.438Z</time>
      </trkpt>
      <trkpt lat="47.00457" lon="8.64563">
        <ele>453</ele>
        <time>2021-08-05T09:08:24.437Z</time>
      </trkpt>
      <trkpt lat="47.00456" lon="8.64562">
        <ele>453</ele>
        <time>2021-08-05T09:08:25.437Z</time>
      </trkpt>
      <trkpt lat="47.00455" lon="8.64561">
        <ele>453</ele>
        <time>2021-08-05T09:08:26.437Z</time>
      </trkpt>
      <trkpt lat="47.00454" lon="8.6456">
        <ele>454</ele>
        <time>2021-08-05T09:08:27.437Z</time>
      </trkpt>
      <trkpt lat="47.00453" lon="8.64559">
        <ele>453</ele>
        <time>2021-08-05T09:08:28.438Z</time>
      </trkpt>
      <trkpt lat="47.00452" lon="8.64559">
        <ele>453</ele>
        <time>2021-08-05T09:08:29.437Z</time>
      </trkpt>
      <trkpt lat="47.00451" lon="8.64558">
        <ele>453</ele>
        <time>2021-08-05T09:08:30.437Z</time>
      </trkpt>
      <trkpt lat="47.0045" lon="8.64556">
        <ele>453</ele>
        <time>2021-08-05T09:08:31.437Z</time>
      </trkpt>
      <trkpt lat="47.00449" lon="8.64555">
        <ele>452</ele>
        <time>2021-08-05T09:08:32.437Z</time>
      </trkpt>
      <trkpt lat="47.00448" lon="8.64554">
        <ele>452</ele>
        <time>2021-08-05T09:08:33.437Z</time>
      </trkpt>
      <trkpt lat="47.00447" lon="8.64554">
        <ele>452</ele>
        <time>2021-08-05T09:08:34.437Z</time>
      </trkpt>
      <trkpt lat="47.00446" lon="8.64553">
        <ele>452</ele>
        <time>2021-08-05T09:08:35.438Z</time>
      </trkpt>
      <trkpt lat="47.00445" lon="8.64552">
        <ele>452</ele>
        <time>2021-08-05T09:08:36.437Z</time>
      </trkpt>
      <trkpt lat="47.00444" lon="8.64551">
        <ele>452</ele>
        <time>2021-08-05T09:08:37.438Z</time>
      </trkpt>
      <trkpt lat="47.00443" lon="8.64549">
        <ele>452</ele>
        <time>2021-08-05T09:08:38.438Z</time>
      </trkpt>
      <trkpt lat="47.00442" lon="8.64548">
        <ele>453</ele>
        <time>2021-08-05T09:08:39.438Z</time>
      </trkpt>
      <trkpt lat="47.00441" lon="8.64547">
        <ele>453</ele>
        <time>2021-08-05T09:08:40.437Z</time>
      </trkpt>
      <trkpt lat="47.0044" lon="8.64547">
        <ele>453</ele>
        <time>2021-08-05T09:08:41.437Z</time>
      </trkpt>
      <trkpt lat="47.0044" lon="8.64547">
        <ele>454</ele>
        <time>2021-08-05T09:08:42.437Z</time>
      </trkpt>
      <trkpt lat="47.00439" lon="8.64547">
        <ele>454</ele>
        <time>2021-08-05T09:08:43.438Z</time>
      </trkpt>
      <trkpt lat="47.00439" lon="8.64547">
        <ele>454</ele>
        <time>2021-08-05T09:08:44.438Z</time>
      </trkpt>
      <trkpt lat="47.00438" lon="8.64546">
        <ele>454</ele>
        <time>2021-08-05T09:08:45.438Z</time>
      </trkpt>
      <trkpt lat="47.00438" lon="8.64546">
        <ele>454</ele>
        <time>2021-08-05T09:08:46.438Z</time>
      </trkpt>
      <trkpt lat="47.00437" lon="8.64545">
        <ele>453</ele>
        <time>2021-08-05T09:08:47.437Z</time>
      </trkpt>
      <trkpt lat="47.00436" lon="8.64545">
        <ele>453</ele>
        <time>2021-08-05T09:08:48.438Z</time>
      </trkpt>
      <trkpt lat="47.00435" lon="8.64544">
        <ele>453</ele>
        <time>2021-08-05T09:08:49.438Z</time>
      </trkpt>
      <trkpt lat="47.00434" lon="8.64544">
        <ele>453</ele>
        <time>2021-08-05T09:08:50.438Z</time>
      </trkpt>
      <trkpt lat="47.00433" lon="8.64542">
        <ele>453</ele>
        <time>2021-08-05T09:08:51.438Z</time>
      </trkpt>
      <trkpt lat="47.00432" lon="8.64541">
        <ele>454</ele>
        <time>2021-08-05T09:08:52.438Z</time>
      </trkpt>
      <trkpt lat="47.00431" lon="8.6454">
        <ele>454</ele>
        <time>2021-08-05T09:08:53.438Z</time>
      </trkpt>
      <trkpt lat="47.00429" lon="8.64538">
        <ele>455</ele>
        <time>2021-08-05T09:08:54.438Z</time>
      </trkpt>
      <trkpt lat="47.00427" lon="8.64537">
        <ele>455</ele>
        <time>2021-08-05T09:08:55.438Z</time>
      </trkpt>
      <trkpt lat="47.00427" lon="8.64536">
        <ele>455</ele>
        <time>2021-08-05T09:08:56.438Z</time>
      </trkpt>
      <trkpt lat="47.00425" lon="8.64536">
        <ele>455</ele>
        <time>2021-08-05T09:08:57.438Z</time>
      </trkpt>
      <trkpt lat="47.00424" lon="8.64535">
        <ele>455</ele>
        <time>2021-08-05T09:08:58.438Z</time>
      </trkpt>
      <trkpt lat="47.00423" lon="8.64535">
        <ele>455</ele>
        <time>2021-08-05T09:08:59.438Z</time>
      </trkpt>
      <trkpt lat="47.00422" lon="8.64535">
        <ele>455</ele>
        <time>2021-08-05T09:09:00.438Z</time>
      </trkpt>
      <trkpt lat="47.00421" lon="8.64535">
        <ele>455</ele>
        <time>2021-08-05T09:09:01.438Z</time>
      </trkpt>
      <trkpt lat="47.0042" lon="8.64534">
        <ele>455</ele>
        <time>2021-08-05T09:09:02.437Z</time>
      </trkpt>
      <trkpt lat="47.00419" lon="8.64533">
        <ele>455</ele>
        <time>2021-08-05T09:09:03.438Z</time>
      </trkpt>
      <trkpt lat="47.00418" lon="8.64532">
        <ele>455</ele>
        <time>2021-08-05T09:09:04.438Z</time>
      </trkpt>
      <trkpt lat="47.00417" lon="8.64532">
        <ele>455</ele>
        <time>2021-08-05T09:09:05.437Z</time>
      </trkpt>
      <trkpt lat="47.00415" lon="8.6453">
        <ele>455</ele>
        <time>2021-08-05T09:09:06.438Z</time>
      </trkpt>
      <trkpt lat="47.00414" lon="8.6453">
        <ele>455</ele>
        <time>2021-08-05T09:09:07.438Z</time>
      </trkpt>
      <trkpt lat="47.00413" lon="8.6453">
        <ele>455</ele>
        <time>2021-08-05T09:09:08.438Z</time>
      </trkpt>
      <trkpt lat="47.00413" lon="8.6453">
        <ele>455</ele>
        <time>2021-08-05T09:09:09.438Z</time>
      </trkpt>
      <trkpt lat="47.00412" lon="8.64531">
        <ele>455</ele>
        <time>2021-08-05T09:09:10.437Z</time>
      </trkpt>
      <trkpt lat="47.00411" lon="8.64532">
        <ele>455</ele>
        <time>2021-08-05T09:09:11.438Z</time>
      </trkpt>
      <trkpt lat="47.00411" lon="8.64531">
        <ele>456</ele>
        <time>2021-08-05T09:09:12.438Z</time>
      </trkpt>
      <trkpt lat="47.00409" lon="8.6453">
        <ele>456</ele>
        <time>2021-08-05T09:09:13.438Z</time>
      </trkpt>
      <trkpt lat="47.00408" lon="8.64528">
        <ele>457</ele>
        <time>2021-08-05T09:09:14.438Z</time>
      </trkpt>
      <trkpt lat="47.00406" lon="8.64527">
        <ele>457</ele>
        <time>2021-08-05T09:09:15.438Z</time>
      </trkpt>
      <trkpt lat="47.00405" lon="8.64526">
        <ele>458</ele>
        <time>2021-08-05T09:09:16.438Z</time>
      </trkpt>
      <trkpt lat="47.00405" lon="8.64525">
        <ele>458</ele>
        <time>2021-08-05T09:09:17.437Z</time>
      </trkpt>
      <trkpt lat="47.00404" lon="8.64524">
        <ele>459</ele>
        <time>2021-08-05T09:09:18.438Z</time>
      </trkpt>
      <trkpt lat="47.00403" lon="8.64523">
        <ele>459</ele>
        <time>2021-08-05T09:09:19.437Z</time>
      </trkpt>
      <trkpt lat="47.00402" lon="8.64522">
        <ele>459</ele>
        <time>2021-08-05T09:09:20.438Z</time>
      </trkpt>
      <trkpt lat="47.00402" lon="8.64521">
        <ele>460</ele>
        <time>2021-08-05T09:09:21.438Z</time>
      </trkpt>
      <trkpt lat="47.00401" lon="8.6452">
        <ele>461</ele>
        <time>2021-08-05T09:09:22.438Z</time>
      </trkpt>
      <trkpt lat="47.004" lon="8.64518">
        <ele>461</ele>
        <time>2021-08-05T09:09:23.437Z</time>
      </trkpt>
      <trkpt lat="47.00398" lon="8.64517">
        <ele>461</ele>
        <time>2021-08-05T09:09:24.438Z</time>
      </trkpt>
      <trkpt lat="47.00398" lon="8.64516">
        <ele>460</ele>
        <time>2021-08-05T09:09:25.438Z</time>
      </trkpt>
      <trkpt lat="47.00397" lon="8.64515">
        <ele>460</ele>
        <time>2021-08-05T09:09:26.437Z</time>
      </trkpt>
      <trkpt lat="47.00396" lon="8.64514">
        <ele>460</ele>
        <time>2021-08-05T09:09:27.438Z</time>
      </trkpt>
      <trkpt lat="47.00395" lon="8.64514">
        <ele>460</ele>
        <time>2021-08-05T09:09:28.437Z</time>
      </trkpt>
      <trkpt lat="47.00394" lon="8.64513">
        <ele>460</ele>
        <time>2021-08-05T09:09:29.438Z</time>
      </trkpt>
      <trkpt lat="47.00394" lon="8.64513">
        <ele>460</ele>
        <time>2021-08-05T09:09:30.438Z</time>
      </trkpt>
      <trkpt lat="47.00393" lon="8.64513">
        <ele>460</ele>
        <time>2021-08-05T09:09:31.437Z</time>
      </trkpt>
      <trkpt lat="47.00392" lon="8.64511">
        <ele>460</ele>
        <time>2021-08-05T09:09:32.438Z</time>
      </trkpt>
      <trkpt lat="47.00391" lon="8.64509">
        <ele>460</ele>
        <time>2021-08-05T09:09:33.438Z</time>
      </trkpt>
      <trkpt lat="47.0039" lon="8.64507">
        <ele>459</ele>
        <time>2021-08-05T09:09:34.438Z</time>
      </trkpt>
      <trkpt lat="47.00389" lon="8.64506">
        <ele>459</ele>
        <time>2021-08-05T09:09:35.437Z</time>
      </trkpt>
      <trkpt lat="47.00388" lon="8.64506">
        <ele>458</ele>
        <time>2021-08-05T09:09:36.438Z</time>
      </trkpt>
      <trkpt lat="47.00387" lon="8.64505">
        <ele>458</ele>
        <time>2021-08-05T09:09:37.438Z</time>
      </trkpt>
      <trkpt lat="47.00386" lon="8.64504">
        <ele>457</ele>
        <time>2021-08-05T09:09:38.438Z</time>
      </trkpt>
      <trkpt lat="47.00385" lon="8.64503">
        <ele>457</ele>
        <time>2021-08-05T09:09:39.438Z</time>
      </trkpt>
      <trkpt lat="47.00384" lon="8.64502">
        <ele>457</ele>
        <time>2021-08-05T09:09:40.438Z</time>
      </trkpt>
      <trkpt lat="47.00383" lon="8.64501">
        <ele>457</ele>
        <time>2021-08-05T09:09:41.438Z</time>
      </trkpt>
      <trkpt lat="47.00382" lon="8.645">
        <ele>457</ele>
        <time>2021-08-05T09:09:42.438Z</time>
      </trkpt>
      <trkpt lat="47.00381" lon="8.64499">
        <ele>456</ele>
        <time>2021-08-05T09:09:43.438Z</time>
      </trkpt>
      <trkpt lat="47.0038" lon="8.64498">
        <ele>456</ele>
        <time>2021-08-05T09:09:44.437Z</time>
      </trkpt>
      <trkpt lat="47.00379" lon="8.64497">
        <ele>456</ele>
        <time>2021-08-05T09:09:45.437Z</time>
      </trkpt>
      <trkpt lat="47.00379" lon="8.64496">
        <ele>456</ele>
        <time>2021-08-05T09:09:46.438Z</time>
      </trkpt>
      <trkpt lat="47.00378" lon="8.64495">
        <ele>456</ele>
        <time>2021-08-05T09:09:47.437Z</time>
      </trkpt>
      <trkpt lat="47.00377" lon="8.64495">
        <ele>456</ele>
        <time>2021-08-05T09:09:48.438Z</time>
      </trkpt>
      <trkpt lat="47.00375" lon="8.64495">
        <ele>456</ele>
        <time>2021-08-05T09:09:49.437Z</time>
      </trkpt>
      <trkpt lat="47.00374" lon="8.64494">
        <ele>456</ele>
        <time>2021-08-05T09:09:50.437Z</time>
      </trkpt>
      <trkpt lat="47.00373" lon="8.64494">
        <ele>456</ele>
        <time>2021-08-05T09:09:51.438Z</time>
      </trkpt>
      <trkpt lat="47.00372" lon="8.64495">
        <ele>456</ele>
        <time>2021-08-05T09:09:52.437Z</time>
      </trkpt>
      <trkpt lat="47.00371" lon="8.64494">
        <ele>456</ele>
        <time>2021-08-05T09:09:53.438Z</time>
      </trkpt>
      <trkpt lat="47.00371" lon="8.64494">
        <ele>456</ele>
        <time>2021-08-05T09:09:54.438Z</time>
      </trkpt>
      <trkpt lat="47.00369" lon="8.64493">
        <ele>457</ele>
        <time>2021-08-05T09:09:55.437Z</time>
      </trkpt>
      <trkpt lat="47.00368" lon="8.64492">
        <ele>457</ele>
        <time>2021-08-05T09:09:56.437Z</time>
      </trkpt>
      <trkpt lat="47.00367" lon="8.64491">
        <ele>458</ele>
        <time>2021-08-05T09:09:57.438Z</time>
      </trkpt>
      <trkpt lat="47.00366" lon="8.6449">
        <ele>459</ele>
        <time>2021-08-05T09:09:58.438Z</time>
      </trkpt>
      <trkpt lat="47.00365" lon="8.64489">
        <ele>459</ele>
        <time>2021-08-05T09:09:59.438Z</time>
      </trkpt>
      <trkpt lat="47.00364" lon="8.64489">
        <ele>459</ele>
        <time>2021-08-05T09:10:00.437Z</time>
      </trkpt>
      <trkpt lat="47.00363" lon="8.64488">
        <ele>459</ele>
        <time>2021-08-05T09:10:01.438Z</time>
      </trkpt>
      <trkpt lat="47.00362" lon="8.64487">
        <ele>460</ele>
        <time>2021-08-05T09:10:02.438Z</time>
      </trkpt>
      <trkpt lat="47.00361" lon="8.64486">
        <ele>460</ele>
        <time>2021-08-05T09:10:03.437Z</time>
      </trkpt>
      <trkpt lat="47.0036" lon="8.64485">
        <ele>460</ele>
        <time>2021-08-05T09:10:04.438Z</time>
      </trkpt>
      <trkpt lat="47.00359" lon="8.64484">
        <ele>460</ele>
        <time>2021-08-05T09:10:05.437Z</time>
      </trkpt>
      <trkpt lat="47.00358" lon="8.64484">
        <ele>460</ele>
        <time>2021-08-05T09:10:06.438Z</time>
      </trkpt>
      <trkpt lat="47.00357" lon="8.64483">
        <ele>460</ele>
        <time>2021-08-05T09:10:07.438Z</time>
      </trkpt>
      <trkpt lat="47.00357" lon="8.64483">
        <ele>460</ele>
        <time>2021-08-05T09:10:08.437Z</time>
      </trkpt>
      <trkpt lat="47.00356" lon="8.64482">
        <ele>460</ele>
        <time>2021-08-05T09:10:09.438Z</time>
      </trkpt>
      <trkpt lat="47.00356" lon="8.64482">
        <ele>460</ele>
        <time>2021-08-05T09:10:10.438Z</time>
      </trkpt>
      <trkpt lat="47.00355" lon="8.64481">
        <ele>460</ele>
        <time>2021-08-05T09:10:11.438Z</time>
      </trkpt>
      <trkpt lat="47.00355" lon="8.6448">
        <ele>460</ele>
        <time>2021-08-05T09:10:12.437Z</time>
      </trkpt>
      <trkpt lat="47.00354" lon="8.64478">
        <ele>460</ele>
        <time>2021-08-05T09:10:13.438Z</time>
      </trkpt>
      <trkpt lat="47.00354" lon="8.64477">
        <ele>460</ele>
        <time>2021-08-05T09:10:14.437Z</time>
      </trkpt>
      <trkpt lat="47.00353" lon="8.64476">
        <ele>460</ele>
        <time>2021-08-05T09:10:15.438Z</time>
      </trkpt>
      <trkpt lat="47.00352" lon="8.64475">
        <ele>461</ele>
        <time>2021-08-05T09:10:16.438Z</time>
      </trkpt>
      <trkpt lat="47.00351" lon="8.64474">
        <ele>461</ele>
        <time>2021-08-05T09:10:17.437Z</time>
      </trkpt>
      <trkpt lat="47.00351" lon="8.64473">
        <ele>461</ele>
        <time>2021-08-05T09:10:18.438Z</time>
      </trkpt>
      <trkpt lat="47.0035" lon="8.64472">
        <ele>461</ele>
        <time>2021-08-05T09:10:19.438Z</time>
      </trkpt>
      <trkpt lat="47.00349" lon="8.64472">
        <ele>461</ele>
        <time>2021-08-05T09:10:20.438Z</time>
      </trkpt>
      <trkpt lat="47.00348" lon="8.6447">
        <ele>461</ele>
        <time>2021-08-05T09:10:21.438Z</time>
      </trkpt>
      <trkpt lat="47.00347" lon="8.6447">
        <ele>462</ele>
        <time>2021-08-05T09:10:22.437Z</time>
      </trkpt>
      <trkpt lat="47.00347" lon="8.64469">
        <ele>462</ele>
        <time>2021-08-05T09:10:23.437Z</time>
      </trkpt>
      <trkpt lat="47.00346" lon="8.64468">
        <ele>462</ele>
        <time>2021-08-05T09:10:24.438Z</time>
      </trkpt>
      <trkpt lat="47.00345" lon="8.64467">
        <ele>462</ele>
        <time>2021-08-05T09:10:25.438Z</time>
      </trkpt>
      <trkpt lat="47.00344" lon="8.64467">
        <ele>462</ele>
        <time>2021-08-05T09:10:26.437Z</time>
      </trkpt>
      <trkpt lat="47.00343" lon="8.64466">
        <ele>462</ele>
        <time>2021-08-05T09:10:27.438Z</time>
      </trkpt>
      <trkpt lat="47.00342" lon="8.64465">
        <ele>462</ele>
        <time>2021-08-05T09:10:28.438Z</time>
      </trkpt>
      <trkpt lat="47.00342" lon="8.64465">
        <ele>462</ele>
        <time>2021-08-05T09:10:29.437Z</time>
      </trkpt>
      <trkpt lat="47.00341" lon="8.64464">
        <ele>462</ele>
        <time>2021-08-05T09:10:30.437Z</time>
      </trkpt>
      <trkpt lat="47.0034" lon="8.64464">
        <ele>461</ele>
        <time>2021-08-05T09:10:31.438Z</time>
      </trkpt>
      <trkpt lat="47.00339" lon="8.64463">
        <ele>461</ele>
        <time>2021-08-05T09:10:32.438Z</time>
      </trkpt>
      <trkpt lat="47.00338" lon="8.64462">
        <ele>461</ele>
        <time>2021-08-05T09:10:33.438Z</time>
      </trkpt>
      <trkpt lat="47.00337" lon="8.64462">
        <ele>461</ele>
        <time>2021-08-05T09:10:34.437Z</time>
      </trkpt>
      <trkpt lat="47.00336" lon="8.64461">
        <ele>462</ele>
        <time>2021-08-05T09:10:35.438Z</time>
      </trkpt>
      <trkpt lat="47.00335" lon="8.6446">
        <ele>462</ele>
        <time>2021-08-05T09:10:36.437Z</time>
      </trkpt>
      <trkpt lat="47.00334" lon="8.6446">
        <ele>462</ele>
        <time>2021-08-05T09:10:37.438Z</time>
      </trkpt>
      <trkpt lat="47.00334" lon="8.6446">
        <ele>462</ele>
        <time>2021-08-05T09:10:38.438Z</time>
      </trkpt>
      <trkpt lat="47.00333" lon="8.64461">
        <ele>462</ele>
        <time>2021-08-05T09:10:39.437Z</time>
      </trkpt>
      <trkpt lat="47.00333" lon="8.64461">
        <ele>462</ele>
        <time>2021-08-05T09:10:40.438Z</time>
      </trkpt>
      <trkpt lat="47.00332" lon="8.64461">
        <ele>462</ele>
        <time>2021-08-05T09:10:41.438Z</time>
      </trkpt>
      <trkpt lat="47.00331" lon="8.64461">
        <ele>462</ele>
        <time>2021-08-05T09:10:42.438Z</time>
      </trkpt>
      <trkpt lat="47.0033" lon="8.6446">
        <ele>462</ele>
        <time>2021-08-05T09:10:43.438Z</time>
      </trkpt>
      <trkpt lat="47.0033" lon="8.64461">
        <ele>462</ele>
        <time>2021-08-05T09:10:44.438Z</time>
      </trkpt>
      <trkpt lat="47.0033" lon="8.6446">
        <ele>461</ele>
        <time>2021-08-05T09:10:45.437Z</time>
      </trkpt>
      <trkpt lat="47.00329" lon="8.6446">
        <ele>461</ele>
        <time>2021-08-05T09:10:46.437Z</time>
      </trkpt>
      <trkpt lat="47.00329" lon="8.64461">
        <ele>461</ele>
        <time>2021-08-05T09:10:47.438Z</time>
      </trkpt>
      <trkpt lat="47.00328" lon="8.6446">
        <ele>461</ele>
        <time>2021-08-05T09:10:48.438Z</time>
      </trkpt>
      <trkpt lat="47.00327" lon="8.64459">
        <ele>462</ele>
        <time>2021-08-05T09:10:49.438Z</time>
      </trkpt>
      <trkpt lat="47.00325" lon="8.64458">
        <ele>462</ele>
        <time>2021-08-05T09:10:50.438Z</time>
      </trkpt>
      <trkpt lat="47.00324" lon="8.64457">
        <ele>462</ele>
        <time>2021-08-05T09:10:51.437Z</time>
      </trkpt>
      <trkpt lat="47.00323" lon="8.64457">
        <ele>463</ele>
        <time>2021-08-05T09:10:52.437Z</time>
      </trkpt>
      <trkpt lat="47.00322" lon="8.64456">
        <ele>463</ele>
        <time>2021-08-05T09:10:53.438Z</time>
      </trkpt>
      <trkpt lat="47.00321" lon="8.64455">
        <ele>464</ele>
        <time>2021-08-05T09:10:54.438Z</time>
      </trkpt>
      <trkpt lat="47.0032" lon="8.64454">
        <ele>464</ele>
        <time>2021-08-05T09:10:55.438Z</time>
      </trkpt>
      <trkpt lat="47.00319" lon="8.64453">
        <ele>465</ele>
        <time>2021-08-05T09:10:56.438Z</time>
      </trkpt>
      <trkpt lat="47.00318" lon="8.64452">
        <ele>466</ele>
        <time>2021-08-05T09:10:57.437Z</time>
      </trkpt>
      <trkpt lat="47.00317" lon="8.64452">
        <ele>466</ele>
        <time>2021-08-05T09:10:58.438Z</time>
      </trkpt>
      <trkpt lat="47.00316" lon="8.64452">
        <ele>467</ele>
        <time>2021-08-05T09:10:59.438Z</time>
      </trkpt>
      <trkpt lat="47.00316" lon="8.64452">
        <ele>467</ele>
        <time>2021-08-05T09:11:00.437Z</time>
      </trkpt>
      <trkpt lat="47.00314" lon="8.64451">
        <ele>467</ele>
        <time>2021-08-05T09:11:01.438Z</time>
      </trkpt>
      <trkpt lat="47.00313" lon="8.64451">
        <ele>467</ele>
        <time>2021-08-05T09:11:02.437Z</time>
      </trkpt>
      <trkpt lat="47.00313" lon="8.6445">
        <ele>467</ele>
        <time>2021-08-05T09:11:03.438Z</time>
      </trkpt>
      <trkpt lat="47.00312" lon="8.6445">
        <ele>467</ele>
        <time>2021-08-05T09:11:04.438Z</time>
      </trkpt>
      <trkpt lat="47.00311" lon="8.64449">
        <ele>467</ele>
        <time>2021-08-05T09:11:05.438Z</time>
      </trkpt>
      <trkpt lat="47.0031" lon="8.64448">
        <ele>467</ele>
        <time>2021-08-05T09:11:06.437Z</time>
      </trkpt>
      <trkpt lat="47.00309" lon="8.64448">
        <ele>467</ele>
        <time>2021-08-05T09:11:07.438Z</time>
      </trkpt>
      <trkpt lat="47.00308" lon="8.64449">
        <ele>466</ele>
        <time>2021-08-05T09:11:08.437Z</time>
      </trkpt>
      <trkpt lat="47.00308" lon="8.6445">
        <ele>466</ele>
        <time>2021-08-05T09:11:09.438Z</time>
      </trkpt>
      <trkpt lat="47.00308" lon="8.6445">
        <ele>465</ele>
        <time>2021-08-05T09:11:10.438Z</time>
      </trkpt>
      <trkpt lat="47.00308" lon="8.64451">
        <ele>464</ele>
        <time>2021-08-05T09:11:11.438Z</time>
      </trkpt>
      <trkpt lat="47.00307" lon="8.64451">
        <ele>463</ele>
        <time>2021-08-05T09:11:12.439Z</time>
      </trkpt>
      <trkpt lat="47.00306" lon="8.64449">
        <ele>462</ele>
        <time>2021-08-05T09:11:13.438Z</time>
      </trkpt>
      <trkpt lat="47.00305" lon="8.64448">
        <ele>462</ele>
        <time>2021-08-05T09:11:14.439Z</time>
      </trkpt>
      <trkpt lat="47.00305" lon="8.64448">
        <ele>462</ele>
        <time>2021-08-05T09:11:15.439Z</time>
      </trkpt>
      <trkpt lat="47.00303" lon="8.64447">
        <ele>462</ele>
        <time>2021-08-05T09:11:16.438Z</time>
      </trkpt>
      <trkpt lat="47.00303" lon="8.64446">
        <ele>462</ele>
        <time>2021-08-05T09:11:17.438Z</time>
      </trkpt>
      <trkpt lat="47.00302" lon="8.64445">
        <ele>462</ele>
        <time>2021-08-05T09:11:18.439Z</time>
      </trkpt>
      <trkpt lat="47.00301" lon="8.64445">
        <ele>462</ele>
        <time>2021-08-05T09:11:19.439Z</time>
      </trkpt>
      <trkpt lat="47.003" lon="8.64443">
        <ele>462</ele>
        <time>2021-08-05T09:11:20.439Z</time>
      </trkpt>
      <trkpt lat="47.00299" lon="8.64443">
        <ele>462</ele>
        <time>2021-08-05T09:11:21.439Z</time>
      </trkpt>
      <trkpt lat="47.00298" lon="8.64442">
        <ele>462</ele>
        <time>2021-08-05T09:11:22.438Z</time>
      </trkpt>
      <trkpt lat="47.00297" lon="8.64442">
        <ele>462</ele>
        <time>2021-08-05T09:11:23.439Z</time>
      </trkpt>
      <trkpt lat="47.00297" lon="8.64441">
        <ele>462</ele>
        <time>2021-08-05T09:11:24.439Z</time>
      </trkpt>
      <trkpt lat="47.00296" lon="8.64441">
        <ele>462</ele>
        <time>2021-08-05T09:11:25.439Z</time>
      </trkpt>
      <trkpt lat="47.00295" lon="8.64441">
        <ele>462</ele>
        <time>2021-08-05T09:11:26.439Z</time>
      </trkpt>
      <trkpt lat="47.00293" lon="8.64441">
        <ele>462</ele>
        <time>2021-08-05T09:11:27.439Z</time>
      </trkpt>
      <trkpt lat="47.00293" lon="8.64441">
        <ele>461</ele>
        <time>2021-08-05T09:11:28.439Z</time>
      </trkpt>
      <trkpt lat="47.00292" lon="8.64441">
        <ele>461</ele>
        <time>2021-08-05T09:11:29.438Z</time>
      </trkpt>
      <trkpt lat="47.00291" lon="8.6444">
        <ele>461</ele>
        <time>2021-08-05T09:11:30.439Z</time>
      </trkpt>
      <trkpt lat="47.0029" lon="8.6444">
        <ele>461</ele>
        <time>2021-08-05T09:11:31.439Z</time>
      </trkpt>
      <trkpt lat="47.0029" lon="8.64439">
        <ele>461</ele>
        <time>2021-08-05T09:11:32.439Z</time>
      </trkpt>
      <trkpt lat="47.00289" lon="8.64439">
        <ele>461</ele>
        <time>2021-08-05T09:11:33.439Z</time>
      </trkpt>
      <trkpt lat="47.00288" lon="8.64439">
        <ele>461</ele>
        <time>2021-08-05T09:11:34.439Z</time>
      </trkpt>
      <trkpt lat="47.00287" lon="8.64439">
        <ele>460</ele>
        <time>2021-08-05T09:11:35.438Z</time>
      </trkpt>
      <trkpt lat="47.00286" lon="8.64438">
        <ele>460</ele>
        <time>2021-08-05T09:11:36.439Z</time>
      </trkpt>
      <trkpt lat="47.00285" lon="8.64438">
        <ele>460</ele>
        <time>2021-08-05T09:11:37.439Z</time>
      </trkpt>
      <trkpt lat="47.00284" lon="8.64437">
        <ele>460</ele>
        <time>2021-08-05T09:11:38.439Z</time>
      </trkpt>
      <trkpt lat="47.00283" lon="8.64436">
        <ele>460</ele>
        <time>2021-08-05T09:11:39.439Z</time>
      </trkpt>
      <trkpt lat="47.00282" lon="8.64436">
        <ele>459</ele>
        <time>2021-08-05T09:11:40.439Z</time>
      </trkpt>
      <trkpt lat="47.00281" lon="8.64435">
        <ele>459</ele>
        <time>2021-08-05T09:11:41.438Z</time>
      </trkpt>
      <trkpt lat="47.00281" lon="8.64434">
        <ele>459</ele>
        <time>2021-08-05T09:11:42.439Z</time>
      </trkpt>
      <trkpt lat="47.0028" lon="8.64435">
        <ele>459</ele>
        <time>2021-08-05T09:11:43.438Z</time>
      </trkpt>
      <trkpt lat="47.0028" lon="8.64434">
        <ele>458</ele>
        <time>2021-08-05T09:11:44.438Z</time>
      </trkpt>
      <trkpt lat="47.00279" lon="8.64434">
        <ele>458</ele>
        <time>2021-08-05T09:11:45.438Z</time>
      </trkpt>
      <trkpt lat="47.00278" lon="8.64433">
        <ele>458</ele>
        <time>2021-08-05T09:11:46.438Z</time>
      </trkpt>
      <trkpt lat="47.00277" lon="8.64433">
        <ele>459</ele>
        <time>2021-08-05T09:11:47.438Z</time>
      </trkpt>
      <trkpt lat="47.00277" lon="8.64434">
        <ele>459</ele>
        <time>2021-08-05T09:11:48.439Z</time>
      </trkpt>
      <trkpt lat="47.00276" lon="8.64434">
        <ele>460</ele>
        <time>2021-08-05T09:11:49.439Z</time>
      </trkpt>
      <trkpt lat="47.00275" lon="8.64435">
        <ele>461</ele>
        <time>2021-08-05T09:11:50.438Z</time>
      </trkpt>
      <trkpt lat="47.00273" lon="8.64434">
        <ele>461</ele>
        <time>2021-08-05T09:11:51.438Z</time>
      </trkpt>
      <trkpt lat="47.00273" lon="8.64434">
        <ele>461</ele>
        <time>2021-08-05T09:11:52.438Z</time>
      </trkpt>
      <trkpt lat="47.00272" lon="8.64434">
        <ele>462</ele>
        <time>2021-08-05T09:11:53.438Z</time>
      </trkpt>
      <trkpt lat="47.00271" lon="8.64434">
        <ele>462</ele>
        <time>2021-08-05T09:11:54.439Z</time>
      </trkpt>
      <trkpt lat="47.0027" lon="8.64434">
        <ele>462</ele>
        <time>2021-08-05T09:11:55.439Z</time>
      </trkpt>
      <trkpt lat="47.0027" lon="8.64434">
        <ele>462</ele>
        <time>2021-08-05T09:11:56.439Z</time>
      </trkpt>
      <trkpt lat="47.00269" lon="8.64434">
        <ele>463</ele>
        <time>2021-08-05T09:11:57.438Z</time>
      </trkpt>
      <trkpt lat="47.00269" lon="8.64433">
        <ele>463</ele>
        <time>2021-08-05T09:11:58.439Z</time>
      </trkpt>
      <trkpt lat="47.00268" lon="8.64433">
        <ele>463</ele>
        <time>2021-08-05T09:11:59.438Z</time>
      </trkpt>
      <trkpt lat="47.00268" lon="8.64433">
        <ele>463</ele>
        <time>2021-08-05T09:12:00.438Z</time>
      </trkpt>
      <trkpt lat="47.00267" lon="8.64433">
        <ele>463</ele>
        <time>2021-08-05T09:12:01.439Z</time>
      </trkpt>
      <trkpt lat="47.00267" lon="8.64433">
        <ele>463</ele>
        <time>2021-08-05T09:12:02.439Z</time>
      </trkpt>
      <trkpt lat="47.00266" lon="8.64433">
        <ele>464</ele>
        <time>2021-08-05T09:12:03.438Z</time>
      </trkpt>
      <trkpt lat="47.00266" lon="8.64433">
        <ele>464</ele>
        <time>2021-08-05T09:12:04.439Z</time>
      </trkpt>
      <trkpt lat="47.00265" lon="8.64433">
        <ele>464</ele>
        <time>2021-08-05T09:12:05.438Z</time>
      </trkpt>
      <trkpt lat="47.00265" lon="8.64433">
        <ele>464</ele>
        <time>2021-08-05T09:12:06.439Z</time>
      </trkpt>
      <trkpt lat="47.00264" lon="8.64433">
        <ele>464</ele>
        <time>2021-08-05T09:12:07.439Z</time>
      </trkpt>
      <trkpt lat="47.00263" lon="8.64433">
        <ele>464</ele>
        <time>2021-08-05T09:12:08.439Z</time>
      </trkpt>
      <trkpt lat="47.00262" lon="8.64434">
        <ele>464</ele>
        <time>2021-08-05T09:12:09.438Z</time>
      </trkpt>
      <trkpt lat="47.00261" lon="8.64434">
        <ele>464</ele>
        <time>2021-08-05T09:12:10.438Z</time>
      </trkpt>
      <trkpt lat="47.0026" lon="8.64434">
        <ele>464</ele>
        <time>2021-08-05T09:12:11.439Z</time>
      </trkpt>
      <trkpt lat="47.00259" lon="8.64434">
        <ele>464</ele>
        <time>2021-08-05T09:12:12.438Z</time>
      </trkpt>
      <trkpt lat="47.00257" lon="8.64434">
        <ele>463</ele>
        <time>2021-08-05T09:12:13.439Z</time>
      </trkpt>
      <trkpt lat="47.00256" lon="8.64435">
        <ele>463</ele>
        <time>2021-08-05T09:12:14.439Z</time>
      </trkpt>
      <trkpt lat="47.00255" lon="8.64437">
        <ele>463</ele>
        <time>2021-08-05T09:12:15.438Z</time>
      </trkpt>
      <trkpt lat="47.00254" lon="8.64437">
        <ele>462</ele>
        <time>2021-08-05T09:12:16.439Z</time>
      </trkpt>
      <trkpt lat="47.00253" lon="8.64438">
        <ele>462</ele>
        <time>2021-08-05T09:12:17.438Z</time>
      </trkpt>
      <trkpt lat="47.00252" lon="8.64439">
        <ele>462</ele>
        <time>2021-08-05T09:12:18.439Z</time>
      </trkpt>
      <trkpt lat="47.0025" lon="8.6444">
        <ele>462</ele>
        <time>2021-08-05T09:12:19.439Z</time>
      </trkpt>
      <trkpt lat="47.0025" lon="8.6444">
        <ele>462</ele>
        <time>2021-08-05T09:12:20.439Z</time>
      </trkpt>
      <trkpt lat="47.00249" lon="8.6444">
        <ele>462</ele>
        <time>2021-08-05T09:12:21.438Z</time>
      </trkpt>
      <trkpt lat="47.00248" lon="8.6444">
        <ele>462</ele>
        <time>2021-08-05T09:12:22.439Z</time>
      </trkpt>
      <trkpt lat="47.00247" lon="8.64441">
        <ele>461</ele>
        <time>2021-08-05T09:12:23.439Z</time>
      </trkpt>
      <trkpt lat="47.00247" lon="8.64441">
        <ele>461</ele>
        <time>2021-08-05T09:12:24.438Z</time>
      </trkpt>
      <trkpt lat="47.00246" lon="8.64441">
        <ele>460</ele>
        <time>2021-08-05T09:12:25.439Z</time>
      </trkpt>
      <trkpt lat="47.00246" lon="8.64441">
        <ele>460</ele>
        <time>2021-08-05T09:12:26.439Z</time>
      </trkpt>
      <trkpt lat="47.00244" lon="8.64441">
        <ele>459</ele>
        <time>2021-08-05T09:12:27.438Z</time>
      </trkpt>
      <trkpt lat="47.00243" lon="8.64441">
        <ele>459</ele>
        <time>2021-08-05T09:12:28.439Z</time>
      </trkpt>
      <trkpt lat="47.00241" lon="8.64441">
        <ele>459</ele>
        <time>2021-08-05T09:12:29.439Z</time>
      </trkpt>
      <trkpt lat="47.00241" lon="8.64441">
        <ele>459</ele>
        <time>2021-08-05T09:12:30.438Z</time>
      </trkpt>
      <trkpt lat="47.0024" lon="8.6444">
        <ele>459</ele>
        <time>2021-08-05T09:12:31.438Z</time>
      </trkpt>
      <trkpt lat="47.00239" lon="8.64441">
        <ele>459</ele>
        <time>2021-08-05T09:12:32.439Z</time>
      </trkpt>
      <trkpt lat="47.00239" lon="8.64441">
        <ele>459</ele>
        <time>2021-08-05T09:12:33.439Z</time>
      </trkpt>
      <trkpt lat="47.00239" lon="8.64441">
        <ele>459</ele>
        <time>2021-08-05T09:12:34.438Z</time>
      </trkpt>
      <trkpt lat="47.00238" lon="8.64441">
        <ele>459</ele>
        <time>2021-08-05T09:12:35.439Z</time>
      </trkpt>
      <trkpt lat="47.00237" lon="8.64441">
        <ele>459</ele>
        <time>2021-08-05T09:12:36.439Z</time>
      </trkpt>
      <trkpt lat="47.00237" lon="8.64441">
        <ele>459</ele>
        <time>2021-08-05T09:12:37.439Z</time>
      </trkpt>
      <trkpt lat="47.00236" lon="8.64442">
        <ele>459</ele>
        <time>2021-08-05T09:12:38.439Z</time>
      </trkpt>
      <trkpt lat="47.00235" lon="8.64442">
        <ele>459</ele>
        <time>2021-08-05T09:12:39.438Z</time>
      </trkpt>
      <trkpt lat="47.00234" lon="8.64443">
        <ele>459</ele>
        <time>2021-08-05T09:12:40.438Z</time>
      </trkpt>
      <trkpt lat="47.00234" lon="8.64443">
        <ele>459</ele>
        <time>2021-08-05T09:12:41.439Z</time>
      </trkpt>
      <trkpt lat="47.00234" lon="8.64443">
        <ele>460</ele>
        <time>2021-08-05T09:12:42.438Z</time>
      </trkpt>
      <trkpt lat="47.00233" lon="8.64444">
        <ele>460</ele>
        <time>2021-08-05T09:12:43.439Z</time>
      </trkpt>
      <trkpt lat="47.00233" lon="8.64444">
        <ele>460</ele>
        <time>2021-08-05T09:12:44.439Z</time>
      </trkpt>
      <trkpt lat="47.00232" lon="8.64445">
        <ele>461</ele>
        <time>2021-08-05T09:12:45.439Z</time>
      </trkpt>
      <trkpt lat="47.00231" lon="8.64445">
        <ele>461</ele>
        <time>2021-08-05T09:12:46.438Z</time>
      </trkpt>
      <trkpt lat="47.00231" lon="8.64446">
        <ele>462</ele>
        <time>2021-08-05T09:12:47.438Z</time>
      </trkpt>
      <trkpt lat="47.00231" lon="8.64447">
        <ele>462</ele>
        <time>2021-08-05T09:12:48.439Z</time>
      </trkpt>
      <trkpt lat="47.0023" lon="8.64448">
        <ele>462</ele>
        <time>2021-08-05T09:12:49.438Z</time>
      </trkpt>
      <trkpt lat="47.00229" lon="8.64449">
        <ele>463</ele>
        <time>2021-08-05T09:12:50.439Z</time>
      </trkpt>
      <trkpt lat="47.00228" lon="8.6445">
        <ele>463</ele>
        <time>2021-08-05T09:12:51.438Z</time>
      </trkpt>
      <trkpt lat="47.00226" lon="8.64451">
        <ele>463</ele>
        <time>2021-08-05T09:12:52.439Z</time>
      </trkpt>
      <trkpt lat="47.00225" lon="8.64452">
        <ele>464</ele>
        <time>2021-08-05T09:12:53.439Z</time>
      </trkpt>
      <trkpt lat="47.00225" lon="8.64453">
        <ele>464</ele>
        <time>2021-08-05T09:12:54.438Z</time>
      </trkpt>
      <trkpt lat="47.00225" lon="8.64454">
        <ele>464</ele>
        <time>2021-08-05T09:12:55.439Z</time>
      </trkpt>
      <trkpt lat="47.00224" lon="8.64454">
        <ele>464</ele>
        <time>2021-08-05T09:12:56.439Z</time>
      </trkpt>
      <trkpt lat="47.00224" lon="8.64455">
        <ele>464</ele>
        <time>2021-08-05T09:12:57.438Z</time>
      </trkpt>
      <trkpt lat="47.00223" lon="8.64456">
        <ele>464</ele>
        <time>2021-08-05T09:12:58.439Z</time>
      </trkpt>
      <trkpt lat="47.00222" lon="8.64456">
        <ele>464</ele>
        <time>2021-08-05T09:12:59.438Z</time>
      </trkpt>
      <trkpt lat="47.00222" lon="8.64456">
        <ele>464</ele>
        <time>2021-08-05T09:13:00.438Z</time>
      </trkpt>
      <trkpt lat="47.00221" lon="8.64456">
        <ele>465</ele>
        <time>2021-08-05T09:13:01.438Z</time>
      </trkpt>
      <trkpt lat="47.00221" lon="8.64457">
        <ele>465</ele>
        <time>2021-08-05T09:13:02.438Z</time>
      </trkpt>
      <trkpt lat="47.0022" lon="8.64458">
        <ele>465</ele>
        <time>2021-08-05T09:13:03.438Z</time>
      </trkpt>
      <trkpt lat="47.00218" lon="8.64459">
        <ele>465</ele>
        <time>2021-08-05T09:13:04.438Z</time>
      </trkpt>
      <trkpt lat="47.00218" lon="8.6446">
        <ele>465</ele>
        <time>2021-08-05T09:13:05.438Z</time>
      </trkpt>
      <trkpt lat="47.00217" lon="8.64461">
        <ele>465</ele>
        <time>2021-08-05T09:13:06.439Z</time>
      </trkpt>
      <trkpt lat="47.00217" lon="8.64461">
        <ele>465</ele>
        <time>2021-08-05T09:13:07.438Z</time>
      </trkpt>
      <trkpt lat="47.00216" lon="8.64461">
        <ele>465</ele>
        <time>2021-08-05T09:13:08.438Z</time>
      </trkpt>
      <trkpt lat="47.00215" lon="8.64462">
        <ele>465</ele>
        <time>2021-08-05T09:13:09.438Z</time>
      </trkpt>
      <trkpt lat="47.00214" lon="8.64463">
        <ele>465</ele>
        <time>2021-08-05T09:13:10.439Z</time>
      </trkpt>
      <trkpt lat="47.00213" lon="8.64463">
        <ele>465</ele>
        <time>2021-08-05T09:13:11.438Z</time>
      </trkpt>
      <trkpt lat="47.00212" lon="8.64464">
        <ele>465</ele>
        <time>2021-08-05T09:13:12.438Z</time>
      </trkpt>
      <trkpt lat="47.00211" lon="8.64464">
        <ele>465</ele>
        <time>2021-08-05T09:13:13.439Z</time>
      </trkpt>
      <trkpt lat="47.0021" lon="8.64464">
        <ele>464</ele>
        <time>2021-08-05T09:13:14.438Z</time>
      </trkpt>
      <trkpt lat="47.00209" lon="8.64465">
        <ele>464</ele>
        <time>2021-08-05T09:13:15.438Z</time>
      </trkpt>
      <trkpt lat="47.00208" lon="8.64466">
        <ele>464</ele>
        <time>2021-08-05T09:13:16.438Z</time>
      </trkpt>
      <trkpt lat="47.00207" lon="8.64467">
        <ele>464</ele>
        <time>2021-08-05T09:13:17.439Z</time>
      </trkpt>
      <trkpt lat="47.00206" lon="8.64467">
        <ele>464</ele>
        <time>2021-08-05T09:13:18.439Z</time>
      </trkpt>
      <trkpt lat="47.00205" lon="8.64468">
        <ele>464</ele>
        <time>2021-08-05T09:13:19.439Z</time>
      </trkpt>
      <trkpt lat="47.00204" lon="8.64468">
        <ele>465</ele>
        <time>2021-08-05T09:13:20.438Z</time>
      </trkpt>
      <trkpt lat="47.00204" lon="8.64468">
        <ele>465</ele>
        <time>2021-08-05T09:13:21.439Z</time>
      </trkpt>
      <trkpt lat="47.00203" lon="8.64468">
        <ele>465</ele>
        <time>2021-08-05T09:13:22.439Z</time>
      </trkpt>
      <trkpt lat="47.00203" lon="8.64468">
        <ele>465</ele>
        <time>2021-08-05T09:13:23.438Z</time>
      </trkpt>
      <trkpt lat="47.00203" lon="8.64468">
        <ele>465</ele>
        <time>2021-08-05T09:13:24.438Z</time>
      </trkpt>
      <trkpt lat="47.00202" lon="8.64468">
        <ele>465</ele>
        <time>2021-08-05T09:13:25.439Z</time>
      </trkpt>
      <trkpt lat="47.00201" lon="8.64469">
        <ele>465</ele>
        <time>2021-08-05T09:13:26.439Z</time>
      </trkpt>
      <trkpt lat="47.00199" lon="8.6447">
        <ele>465</ele>
        <time>2021-08-05T09:13:27.439Z</time>
      </trkpt>
      <trkpt lat="47.00199" lon="8.6447">
        <ele>465</ele>
        <time>2021-08-05T09:13:28.439Z</time>
      </trkpt>
      <trkpt lat="47.00199" lon="8.64471">
        <ele>465</ele>
        <time>2021-08-05T09:13:29.439Z</time>
      </trkpt>
      <trkpt lat="47.00198" lon="8.64471">
        <ele>465</ele>
        <time>2021-08-05T09:13:30.439Z</time>
      </trkpt>
      <trkpt lat="47.00197" lon="8.64471">
        <ele>465</ele>
        <time>2021-08-05T09:13:31.439Z</time>
      </trkpt>
      <trkpt lat="47.00196" lon="8.64471">
        <ele>465</ele>
        <time>2021-08-05T09:13:32.439Z</time>
      </trkpt>
      <trkpt lat="47.00195" lon="8.64472">
        <ele>465</ele>
        <time>2021-08-05T09:13:33.438Z</time>
      </trkpt>
      <trkpt lat="47.00194" lon="8.64471">
        <ele>465</ele>
        <time>2021-08-05T09:13:34.439Z</time>
      </trkpt>
      <trkpt lat="47.00193" lon="8.64471">
        <ele>465</ele>
        <time>2021-08-05T09:13:35.439Z</time>
      </trkpt>
      <trkpt lat="47.00192" lon="8.64471">
        <ele>465</ele>
        <time>2021-08-05T09:13:36.439Z</time>
      </trkpt>
      <trkpt lat="47.00192" lon="8.64471">
        <ele>465</ele>
        <time>2021-08-05T09:13:37.439Z</time>
      </trkpt>
      <trkpt lat="47.00191" lon="8.64471">
        <ele>465</ele>
        <time>2021-08-05T09:13:38.438Z</time>
      </trkpt>
      <trkpt lat="47.0019" lon="8.64472">
        <ele>465</ele>
        <time>2021-08-05T09:13:39.439Z</time>
      </trkpt>
      <trkpt lat="47.0019" lon="8.64472">
        <ele>465</ele>
        <time>2021-08-05T09:13:40.439Z</time>
      </trkpt>
      <trkpt lat="47.00189" lon="8.64472">
        <ele>465</ele>
        <time>2021-08-05T09:13:41.439Z</time>
      </trkpt>
      <trkpt lat="47.00189" lon="8.64472">
        <ele>466</ele>
        <time>2021-08-05T09:13:42.439Z</time>
      </trkpt>
      <trkpt lat="47.00188" lon="8.64473">
        <ele>466</ele>
        <time>2021-08-05T09:13:43.438Z</time>
      </trkpt>
      <trkpt lat="47.00187" lon="8.64473">
        <ele>467</ele>
        <time>2021-08-05T09:13:44.439Z</time>
      </trkpt>
      <trkpt lat="47.00187" lon="8.64474">
        <ele>467</ele>
        <time>2021-08-05T09:13:45.439Z</time>
      </trkpt>
      <trkpt lat="47.00186" lon="8.64474">
        <ele>467</ele>
        <time>2021-08-05T09:13:46.439Z</time>
      </trkpt>
      <trkpt lat="47.00185" lon="8.64475">
        <ele>468</ele>
        <time>2021-08-05T09:13:47.439Z</time>
      </trkpt>
      <trkpt lat="47.00184" lon="8.64475">
        <ele>468</ele>
        <time>2021-08-05T09:13:48.439Z</time>
      </trkpt>
      <trkpt lat="47.00182" lon="8.64475">
        <ele>469</ele>
        <time>2021-08-05T09:13:49.439Z</time>
      </trkpt>
      <trkpt lat="47.00182" lon="8.64474">
        <ele>470</ele>
        <time>2021-08-05T09:13:50.438Z</time>
      </trkpt>
      <trkpt lat="47.00181" lon="8.64473">
        <ele>471</ele>
        <time>2021-08-05T09:13:51.438Z</time>
      </trkpt>
      <trkpt lat="47.00181" lon="8.64473">
        <ele>472</ele>
        <time>2021-08-05T09:13:52.439Z</time>
      </trkpt>
      <trkpt lat="47.0018" lon="8.64473">
        <ele>472</ele>
        <time>2021-08-05T09:13:53.438Z</time>
      </trkpt>
      <trkpt lat="47.00179" lon="8.64473">
        <ele>473</ele>
        <time>2021-08-05T09:13:54.439Z</time>
      </trkpt>
      <trkpt lat="47.00178" lon="8.64472">
        <ele>473</ele>
        <time>2021-08-05T09:13:55.439Z</time>
      </trkpt>
      <trkpt lat="47.00178" lon="8.64472">
        <ele>474</ele>
        <time>2021-08-05T09:13:56.439Z</time>
      </trkpt>
      <trkpt lat="47.00177" lon="8.64472">
        <ele>474</ele>
        <time>2021-08-05T09:13:57.439Z</time>
      </trkpt>
      <trkpt lat="47.00176" lon="8.64472">
        <ele>475</ele>
        <time>2021-08-05T09:13:58.439Z</time>
      </trkpt>
      <trkpt lat="47.00175" lon="8.64473">
        <ele>476</ele>
        <time>2021-08-05T09:13:59.438Z</time>
      </trkpt>
      <trkpt lat="47.00174" lon="8.64474">
        <ele>476</ele>
        <time>2021-08-05T09:14:00.439Z</time>
      </trkpt>
      <trkpt lat="47.00174" lon="8.64475">
        <ele>477</ele>
        <time>2021-08-05T09:14:01.438Z</time>
      </trkpt>
      <trkpt lat="47.00173" lon="8.64475">
        <ele>477</ele>
        <time>2021-08-05T09:14:02.439Z</time>
      </trkpt>
      <trkpt lat="47.00172" lon="8.64476">
        <ele>477</ele>
        <time>2021-08-05T09:14:03.439Z</time>
      </trkpt>
      <trkpt lat="47.00172" lon="8.64476">
        <ele>477</ele>
        <time>2021-08-05T09:14:04.438Z</time>
      </trkpt>
      <trkpt lat="47.00171" lon="8.64477">
        <ele>477</ele>
        <time>2021-08-05T09:14:05.439Z</time>
      </trkpt>
      <trkpt lat="47.0017" lon="8.64477">
        <ele>477</ele>
        <time>2021-08-05T09:14:06.439Z</time>
      </trkpt>
      <trkpt lat="47.00169" lon="8.64478">
        <ele>477</ele>
        <time>2021-08-05T09:14:07.439Z</time>
      </trkpt>
      <trkpt lat="47.00169" lon="8.64478">
        <ele>477</ele>
        <time>2021-08-05T09:14:08.438Z</time>
      </trkpt>
      <trkpt lat="47.00168" lon="8.64478">
        <ele>477</ele>
        <time>2021-08-05T09:14:09.439Z</time>
      </trkpt>
      <trkpt lat="47.00167" lon="8.64479">
        <ele>477</ele>
        <time>2021-08-05T09:14:10.439Z</time>
      </trkpt>
      <trkpt lat="47.00166" lon="8.64479">
        <ele>477</ele>
        <time>2021-08-05T09:14:11.438Z</time>
      </trkpt>
      <trkpt lat="47.00166" lon="8.64479">
        <ele>477</ele>
        <time>2021-08-05T09:14:12.438Z</time>
      </trkpt>
      <trkpt lat="47.00165" lon="8.6448">
        <ele>477</ele>
        <time>2021-08-05T09:14:13.438Z</time>
      </trkpt>
      <trkpt lat="47.00164" lon="8.6448">
        <ele>477</ele>
        <time>2021-08-05T09:14:14.439Z</time>
      </trkpt>
      <trkpt lat="47.00163" lon="8.6448">
        <ele>478</ele>
        <time>2021-08-05T09:14:15.438Z</time>
      </trkpt>
      <trkpt lat="47.00162" lon="8.6448">
        <ele>478</ele>
        <time>2021-08-05T09:14:16.438Z</time>
      </trkpt>
      <trkpt lat="47.00161" lon="8.6448">
        <ele>478</ele>
        <time>2021-08-05T09:14:17.438Z</time>
      </trkpt>
      <trkpt lat="47.0016" lon="8.64479">
        <ele>477</ele>
        <time>2021-08-05T09:14:18.439Z</time>
      </trkpt>
      <trkpt lat="47.0016" lon="8.6448">
        <ele>477</ele>
        <time>2021-08-05T09:14:19.438Z</time>
      </trkpt>
      <trkpt lat="47.00159" lon="8.6448">
        <ele>477</ele>
        <time>2021-08-05T09:14:20.438Z</time>
      </trkpt>
      <trkpt lat="47.00159" lon="8.6448">
        <ele>477</ele>
        <time>2021-08-05T09:14:21.438Z</time>
      </trkpt>
      <trkpt lat="47.00158" lon="8.6448">
        <ele>477</ele>
        <time>2021-08-05T09:14:22.438Z</time>
      </trkpt>
      <trkpt lat="47.00157" lon="8.6448">
        <ele>477</ele>
        <time>2021-08-05T09:14:23.439Z</time>
      </trkpt>
      <trkpt lat="47.00156" lon="8.6448">
        <ele>477</ele>
        <time>2021-08-05T09:14:24.438Z</time>
      </trkpt>
      <trkpt lat="47.00155" lon="8.64481">
        <ele>476</ele>
        <time>2021-08-05T09:14:25.438Z</time>
      </trkpt>
      <trkpt lat="47.00155" lon="8.64481">
        <ele>476</ele>
        <time>2021-08-05T09:14:26.439Z</time>
      </trkpt>
      <trkpt lat="47.00154" lon="8.64481">
        <ele>476</ele>
        <time>2021-08-05T09:14:27.439Z</time>
      </trkpt>
      <trkpt lat="47.00153" lon="8.64481">
        <ele>477</ele>
        <time>2021-08-05T09:14:28.438Z</time>
      </trkpt>
      <trkpt lat="47.00153" lon="8.64481">
        <ele>477</ele>
        <time>2021-08-05T09:14:29.438Z</time>
      </trkpt>
      <trkpt lat="47.00152" lon="8.64482">
        <ele>477</ele>
        <time>2021-08-05T09:14:30.439Z</time>
      </trkpt>
      <trkpt lat="47.00151" lon="8.64482">
        <ele>477</ele>
        <time>2021-08-05T09:14:31.439Z</time>
      </trkpt>
      <trkpt lat="47.00151" lon="8.64482">
        <ele>476</ele>
        <time>2021-08-05T09:14:32.438Z</time>
      </trkpt>
      <trkpt lat="47.0015" lon="8.64482">
        <ele>476</ele>
        <time>2021-08-05T09:14:33.439Z</time>
      </trkpt>
      <trkpt lat="47.00149" lon="8.64483">
        <ele>476</ele>
        <time>2021-08-05T09:14:34.438Z</time>
      </trkpt>
      <trkpt lat="47.00149" lon="8.64483">
        <ele>475</ele>
        <time>2021-08-05T09:14:35.438Z</time>
      </trkpt>
      <trkpt lat="47.00148" lon="8.64483">
        <ele>475</ele>
        <time>2021-08-05T09:14:36.439Z</time>
      </trkpt>
      <trkpt lat="47.00147" lon="8.64484">
        <ele>475</ele>
        <time>2021-08-05T09:14:37.439Z</time>
      </trkpt>
      <trkpt lat="47.00146" lon="8.64484">
        <ele>474</ele>
        <time>2021-08-05T09:14:38.439Z</time>
      </trkpt>
      <trkpt lat="47.00145" lon="8.64484">
        <ele>474</ele>
        <time>2021-08-05T09:14:39.438Z</time>
      </trkpt>
      <trkpt lat="47.00145" lon="8.64484">
        <ele>474</ele>
        <time>2021-08-05T09:14:40.439Z</time>
      </trkpt>
      <trkpt lat="47.00144" lon="8.64484">
        <ele>474</ele>
        <time>2021-08-05T09:14:41.439Z</time>
      </trkpt>
      <trkpt lat="47.00143" lon="8.64484">
        <ele>474</ele>
        <time>2021-08-05T09:14:42.439Z</time>
      </trkpt>
      <trkpt lat="47.00143" lon="8.64484">
        <ele>474</ele>
        <time>2021-08-05T09:14:43.438Z</time>
      </trkpt>
      <trkpt lat="47.00143" lon="8.64484">
        <ele>474</ele>
        <time>2021-08-05T09:14:44.439Z</time>
      </trkpt>
      <trkpt lat="47.00142" lon="8.64484">
        <ele>475</ele>
        <time>2021-08-05T09:14:45.438Z</time>
      </trkpt>
      <trkpt lat="47.00141" lon="8.64485">
        <ele>475</ele>
        <time>2021-08-05T09:14:46.439Z</time>
      </trkpt>
      <trkpt lat="47.0014" lon="8.64485">
        <ele>475</ele>
        <time>2021-08-05T09:14:47.439Z</time>
      </trkpt>
      <trkpt lat="47.00139" lon="8.64485">
        <ele>475</ele>
        <time>2021-08-05T09:14:48.439Z</time>
      </trkpt>
      <trkpt lat="47.00139" lon="8.64486">
        <ele>476</ele>
        <time>2021-08-05T09:14:49.439Z</time>
      </trkpt>
      <trkpt lat="47.00138" lon="8.64486">
        <ele>476</ele>
        <time>2021-08-05T09:14:50.439Z</time>
      </trkpt>
      <trkpt lat="47.00138" lon="8.64486">
        <ele>476</ele>
        <time>2021-08-05T09:14:51.439Z</time>
      </trkpt>
      <trkpt lat="47.00137" lon="8.64486">
        <ele>476</ele>
        <time>2021-08-05T09:14:52.439Z</time>
      </trkpt>
      <trkpt lat="47.00137" lon="8.64486">
        <ele>476</ele>
        <time>2021-08-05T09:14:53.438Z</time>
      </trkpt>
      <trkpt lat="47.00136" lon="8.64486">
        <ele>477</ele>
        <time>2021-08-05T09:14:54.439Z</time>
      </trkpt>
      <trkpt lat="47.00135" lon="8.64487">
        <ele>477</ele>
        <time>2021-08-05T09:14:55.439Z</time>
      </trkpt>
      <trkpt lat="47.00135" lon="8.64487">
        <ele>477</ele>
        <time>2021-08-05T09:14:56.438Z</time>
      </trkpt>
      <trkpt lat="47.00134" lon="8.64487">
        <ele>477</ele>
        <time>2021-08-05T09:14:57.439Z</time>
      </trkpt>
      <trkpt lat="47.00134" lon="8.64487">
        <ele>477</ele>
        <time>2021-08-05T09:14:58.439Z</time>
      </trkpt>
      <trkpt lat="47.00133" lon="8.64487">
        <ele>477</ele>
        <time>2021-08-05T09:14:59.438Z</time>
      </trkpt>
      <trkpt lat="47.00133" lon="8.64487">
        <ele>477</ele>
        <time>2021-08-05T09:15:00.439Z</time>
      </trkpt>
      <trkpt lat="47.00132" lon="8.64488">
        <ele>478</ele>
        <time>2021-08-05T09:15:01.438Z</time>
      </trkpt>
      <trkpt lat="47.00131" lon="8.64489">
        <ele>478</ele>
        <time>2021-08-05T09:15:02.438Z</time>
      </trkpt>
      <trkpt lat="47.0013" lon="8.6449">
        <ele>478</ele>
        <time>2021-08-05T09:15:03.439Z</time>
      </trkpt>
      <trkpt lat="47.00129" lon="8.6449">
        <ele>478</ele>
        <time>2021-08-05T09:15:04.439Z</time>
      </trkpt>
      <trkpt lat="47.00129" lon="8.6449">
        <ele>478</ele>
        <time>2021-08-05T09:15:05.438Z</time>
      </trkpt>
      <trkpt lat="47.00128" lon="8.64491">
        <ele>478</ele>
        <time>2021-08-05T09:15:06.439Z</time>
      </trkpt>
      <trkpt lat="47.00127" lon="8.64492">
        <ele>478</ele>
        <time>2021-08-05T09:15:07.439Z</time>
      </trkpt>
      <trkpt lat="47.00126" lon="8.64492">
        <ele>478</ele>
        <time>2021-08-05T09:15:08.439Z</time>
      </trkpt>
      <trkpt lat="47.00125" lon="8.64493">
        <ele>478</ele>
        <time>2021-08-05T09:15:09.438Z</time>
      </trkpt>
      <trkpt lat="47.00124" lon="8.64494">
        <ele>478</ele>
        <time>2021-08-05T09:15:10.438Z</time>
      </trkpt>
      <trkpt lat="47.00124" lon="8.64494">
        <ele>478</ele>
        <time>2021-08-05T09:15:11.438Z</time>
      </trkpt>
      <trkpt lat="47.00123" lon="8.64495">
        <ele>477</ele>
        <time>2021-08-05T09:15:12.439Z</time>
      </trkpt>
      <trkpt lat="47.00122" lon="8.64496">
        <ele>477</ele>
        <time>2021-08-05T09:15:13.439Z</time>
      </trkpt>
      <trkpt lat="47.00121" lon="8.64497">
        <ele>477</ele>
        <time>2021-08-05T09:15:14.438Z</time>
      </trkpt>
      <trkpt lat="47.0012" lon="8.64497">
        <ele>477</ele>
        <time>2021-08-05T09:15:15.439Z</time>
      </trkpt>
      <trkpt lat="47.00119" lon="8.64498">
        <ele>477</ele>
        <time>2021-08-05T09:15:16.439Z</time>
      </trkpt>
      <trkpt lat="47.00118" lon="8.64498">
        <ele>477</ele>
        <time>2021-08-05T09:15:17.439Z</time>
      </trkpt>
      <trkpt lat="47.00117" lon="8.64499">
        <ele>477</ele>
        <time>2021-08-05T09:15:18.439Z</time>
      </trkpt>
      <trkpt lat="47.00116" lon="8.645">
        <ele>477</ele>
        <time>2021-08-05T09:15:19.439Z</time>
      </trkpt>
      <trkpt lat="47.00116" lon="8.64501">
        <ele>478</ele>
        <time>2021-08-05T09:15:20.438Z</time>
      </trkpt>
      <trkpt lat="47.00115" lon="8.64502">
        <ele>478</ele>
        <time>2021-08-05T09:15:21.438Z</time>
      </trkpt>
      <trkpt lat="47.00114" lon="8.64503">
        <ele>478</ele>
        <time>2021-08-05T09:15:22.438Z</time>
      </trkpt>
      <trkpt lat="47.00113" lon="8.64503">
        <ele>478</ele>
        <time>2021-08-05T09:15:23.439Z</time>
      </trkpt>
      <trkpt lat="47.00112" lon="8.64503">
        <ele>479</ele>
        <time>2021-08-05T09:15:24.439Z</time>
      </trkpt>
      <trkpt lat="47.00111" lon="8.64504">
        <ele>479</ele>
        <time>2021-08-05T09:15:25.439Z</time>
      </trkpt>
      <trkpt lat="47.0011" lon="8.64504">
        <ele>479</ele>
        <time>2021-08-05T09:15:26.439Z</time>
      </trkpt>
      <trkpt lat="47.00109" lon="8.64505">
        <ele>480</ele>
        <time>2021-08-05T09:15:27.438Z</time>
      </trkpt>
      <trkpt lat="47.00108" lon="8.64505">
        <ele>480</ele>
        <time>2021-08-05T09:15:28.438Z</time>
      </trkpt>
      <trkpt lat="47.00108" lon="8.64506">
        <ele>480</ele>
        <time>2021-08-05T09:15:29.439Z</time>
      </trkpt>
      <trkpt lat="47.00106" lon="8.64507">
        <ele>481</ele>
        <time>2021-08-05T09:15:30.439Z</time>
      </trkpt>
      <trkpt lat="47.00105" lon="8.64508">
        <ele>481</ele>
        <time>2021-08-05T09:15:31.439Z</time>
      </trkpt>
      <trkpt lat="47.00104" lon="8.64508">
        <ele>481</ele>
        <time>2021-08-05T09:15:32.439Z</time>
      </trkpt>
      <trkpt lat="47.00103" lon="8.64508">
        <ele>481</ele>
        <time>2021-08-05T09:15:33.439Z</time>
      </trkpt>
      <trkpt lat="47.00102" lon="8.64508">
        <ele>481</ele>
        <time>2021-08-05T09:15:34.439Z</time>
      </trkpt>
      <trkpt lat="47.00101" lon="8.64509">
        <ele>481</ele>
        <time>2021-08-05T09:15:35.439Z</time>
      </trkpt>
      <trkpt lat="47.001" lon="8.64509">
        <ele>481</ele>
        <time>2021-08-05T09:15:36.439Z</time>
      </trkpt>
      <trkpt lat="47.00099" lon="8.64509">
        <ele>482</ele>
        <time>2021-08-05T09:15:37.438Z</time>
      </trkpt>
      <trkpt lat="47.00098" lon="8.64509">
        <ele>482</ele>
        <time>2021-08-05T09:15:38.439Z</time>
      </trkpt>
      <trkpt lat="47.00097" lon="8.6451">
        <ele>483</ele>
        <time>2021-08-05T09:15:39.438Z</time>
      </trkpt>
      <trkpt lat="47.00096" lon="8.64511">
        <ele>483</ele>
        <time>2021-08-05T09:15:40.439Z</time>
      </trkpt>
      <trkpt lat="47.00096" lon="8.64512">
        <ele>483</ele>
        <time>2021-08-05T09:15:41.438Z</time>
      </trkpt>
      <trkpt lat="47.00095" lon="8.64513">
        <ele>484</ele>
        <time>2021-08-05T09:15:42.439Z</time>
      </trkpt>
      <trkpt lat="47.00094" lon="8.64513">
        <ele>484</ele>
        <time>2021-08-05T09:15:43.439Z</time>
      </trkpt>
      <trkpt lat="47.00093" lon="8.64513">
        <ele>485</ele>
        <time>2021-08-05T09:15:44.439Z</time>
      </trkpt>
      <trkpt lat="47.00093" lon="8.64515">
        <ele>485</ele>
        <time>2021-08-05T09:15:45.439Z</time>
      </trkpt>
      <trkpt lat="47.00092" lon="8.64515">
        <ele>486</ele>
        <time>2021-08-05T09:15:46.438Z</time>
      </trkpt>
      <trkpt lat="47.00091" lon="8.64515">
        <ele>486</ele>
        <time>2021-08-05T09:15:47.438Z</time>
      </trkpt>
      <trkpt lat="47.0009" lon="8.64515">
        <ele>486</ele>
        <time>2021-08-05T09:15:48.438Z</time>
      </trkpt>
      <trkpt lat="47.00089" lon="8.64515">
        <ele>486</ele>
        <time>2021-08-05T09:15:49.439Z</time>
      </trkpt>
      <trkpt lat="47.00087" lon="8.64515">
        <ele>487</ele>
        <time>2021-08-05T09:15:50.438Z</time>
      </trkpt>
      <trkpt lat="47.00086" lon="8.64515">
        <ele>487</ele>
        <time>2021-08-05T09:15:51.438Z</time>
      </trkpt>
      <trkpt lat="47.00085" lon="8.64515">
        <ele>488</ele>
        <time>2021-08-05T09:15:52.438Z</time>
      </trkpt>
      <trkpt lat="47.00084" lon="8.64516">
        <ele>488</ele>
        <time>2021-08-05T09:15:53.438Z</time>
      </trkpt>
      <trkpt lat="47.00084" lon="8.64516">
        <ele>488</ele>
        <time>2021-08-05T09:15:54.438Z</time>
      </trkpt>
      <trkpt lat="47.00083" lon="8.64517">
        <ele>488</ele>
        <time>2021-08-05T09:15:55.439Z</time>
      </trkpt>
      <trkpt lat="47.00082" lon="8.64517">
        <ele>488</ele>
        <time>2021-08-05T09:15:56.438Z</time>
      </trkpt>
      <trkpt lat="47.00081" lon="8.64517">
        <ele>488</ele>
        <time>2021-08-05T09:15:57.438Z</time>
      </trkpt>
      <trkpt lat="47.0008" lon="8.64518">
        <ele>489</ele>
        <time>2021-08-05T09:15:58.439Z</time>
      </trkpt>
      <trkpt lat="47.00079" lon="8.64518">
        <ele>489</ele>
        <time>2021-08-05T09:15:59.439Z</time>
      </trkpt>
      <trkpt lat="47.00078" lon="8.64518">
        <ele>489</ele>
        <time>2021-08-05T09:16:00.439Z</time>
      </trkpt>
      <trkpt lat="47.00077" lon="8.64518">
        <ele>490</ele>
        <time>2021-08-05T09:16:01.438Z</time>
      </trkpt>
      <trkpt lat="47.00076" lon="8.64519">
        <ele>490</ele>
        <time>2021-08-05T09:16:02.438Z</time>
      </trkpt>
      <trkpt lat="47.00076" lon="8.64519">
        <ele>490</ele>
        <time>2021-08-05T09:16:03.439Z</time>
      </trkpt>
      <trkpt lat="47.00075" lon="8.6452">
        <ele>490</ele>
        <time>2021-08-05T09:16:04.438Z</time>
      </trkpt>
      <trkpt lat="47.00074" lon="8.64521">
        <ele>490</ele>
        <time>2021-08-05T09:16:05.439Z</time>
      </trkpt>
      <trkpt lat="47.00073" lon="8.64521">
        <ele>490</ele>
        <time>2021-08-05T09:16:06.438Z</time>
      </trkpt>
      <trkpt lat="47.00072" lon="8.64522">
        <ele>490</ele>
        <time>2021-08-05T09:16:07.438Z</time>
      </trkpt>
      <trkpt lat="47.00071" lon="8.64522">
        <ele>490</ele>
        <time>2021-08-05T09:16:08.439Z</time>
      </trkpt>
      <trkpt lat="47.0007" lon="8.64522">
        <ele>490</ele>
        <time>2021-08-05T09:16:09.438Z</time>
      </trkpt>
      <trkpt lat="47.00069" lon="8.64523">
        <ele>490</ele>
        <time>2021-08-05T09:16:10.438Z</time>
      </trkpt>
      <trkpt lat="47.00068" lon="8.64523">
        <ele>490</ele>
        <time>2021-08-05T09:16:11.438Z</time>
      </trkpt>
      <trkpt lat="47.00067" lon="8.64523">
        <ele>489</ele>
        <time>2021-08-05T09:16:12.438Z</time>
      </trkpt>
      <trkpt lat="47.00066" lon="8.64523">
        <ele>489</ele>
        <time>2021-08-05T09:16:13.439Z</time>
      </trkpt>
      <trkpt lat="47.00065" lon="8.64524">
        <ele>488</ele>
        <time>2021-08-05T09:16:14.438Z</time>
      </trkpt>
      <trkpt lat="47.00064" lon="8.64524">
        <ele>488</ele>
        <time>2021-08-05T09:16:15.438Z</time>
      </trkpt>
      <trkpt lat="47.00063" lon="8.64525">
        <ele>488</ele>
        <time>2021-08-05T09:16:16.438Z</time>
      </trkpt>
      <trkpt lat="47.00062" lon="8.64525">
        <ele>488</ele>
        <time>2021-08-05T09:16:17.438Z</time>
      </trkpt>
      <trkpt lat="47.00061" lon="8.64526">
        <ele>488</ele>
        <time>2021-08-05T09:16:18.438Z</time>
      </trkpt>
      <trkpt lat="47.0006" lon="8.64526">
        <ele>488</ele>
        <time>2021-08-05T09:16:19.438Z</time>
      </trkpt>
      <trkpt lat="47.00059" lon="8.64527">
        <ele>488</ele>
        <time>2021-08-05T09:16:20.438Z</time>
      </trkpt>
      <trkpt lat="47.00058" lon="8.64527">
        <ele>488</ele>
        <time>2021-08-05T09:16:21.438Z</time>
      </trkpt>
      <trkpt lat="47.00057" lon="8.64527">
        <ele>488</ele>
        <time>2021-08-05T09:16:22.439Z</time>
      </trkpt>
      <trkpt lat="47.00056" lon="8.64527">
        <ele>488</ele>
        <time>2021-08-05T09:16:23.438Z</time>
      </trkpt>
      <trkpt lat="47.00055" lon="8.64528">
        <ele>489</ele>
        <time>2021-08-05T09:16:24.439Z</time>
      </trkpt>
      <trkpt lat="47.00054" lon="8.64528">
        <ele>488</ele>
        <time>2021-08-05T09:16:25.439Z</time>
      </trkpt>
      <trkpt lat="47.00054" lon="8.64529">
        <ele>489</ele>
        <time>2021-08-05T09:16:26.438Z</time>
      </trkpt>
      <trkpt lat="47.00053" lon="8.64529">
        <ele>489</ele>
        <time>2021-08-05T09:16:27.439Z</time>
      </trkpt>
      <trkpt lat="47.00052" lon="8.64529">
        <ele>489</ele>
        <time>2021-08-05T09:16:28.438Z</time>
      </trkpt>
      <trkpt lat="47.00052" lon="8.64529">
        <ele>489</ele>
        <time>2021-08-05T09:16:29.438Z</time>
      </trkpt>
      <trkpt lat="47.00051" lon="8.64529">
        <ele>489</ele>
        <time>2021-08-05T09:16:30.439Z</time>
      </trkpt>
      <trkpt lat="47.0005" lon="8.64529">
        <ele>489</ele>
        <time>2021-08-05T09:16:31.439Z</time>
      </trkpt>
      <trkpt lat="47.00049" lon="8.6453">
        <ele>489</ele>
        <time>2021-08-05T09:16:32.438Z</time>
      </trkpt>
      <trkpt lat="47.00048" lon="8.64529">
        <ele>489</ele>
        <time>2021-08-05T09:16:33.439Z</time>
      </trkpt>
      <trkpt lat="47.00047" lon="8.6453">
        <ele>489</ele>
        <time>2021-08-05T09:16:34.439Z</time>
      </trkpt>
      <trkpt lat="47.00047" lon="8.64529">
        <ele>489</ele>
        <time>2021-08-05T09:16:35.438Z</time>
      </trkpt>
      <trkpt lat="47.00046" lon="8.64529">
        <ele>490</ele>
        <time>2021-08-05T09:16:36.438Z</time>
      </trkpt>
      <trkpt lat="47.00044" lon="8.64529">
        <ele>490</ele>
        <time>2021-08-05T09:16:37.439Z</time>
      </trkpt>
      <trkpt lat="47.00044" lon="8.64529">
        <ele>490</ele>
        <time>2021-08-05T09:16:38.439Z</time>
      </trkpt>
      <trkpt lat="47.00043" lon="8.64529">
        <ele>491</ele>
        <time>2021-08-05T09:16:39.439Z</time>
      </trkpt>
      <trkpt lat="47.00043" lon="8.64528">
        <ele>492</ele>
        <time>2021-08-05T09:16:40.439Z</time>
      </trkpt>
      <trkpt lat="47.00043" lon="8.64528">
        <ele>492</ele>
        <time>2021-08-05T09:16:41.439Z</time>
      </trkpt>
      <trkpt lat="47.00042" lon="8.64528">
        <ele>493</ele>
        <time>2021-08-05T09:16:42.439Z</time>
      </trkpt>
      <trkpt lat="47.00041" lon="8.64528">
        <ele>494</ele>
        <time>2021-08-05T09:16:43.439Z</time>
      </trkpt>
      <trkpt lat="47.0004" lon="8.64528">
        <ele>494</ele>
        <time>2021-08-05T09:16:44.439Z</time>
      </trkpt>
      <trkpt lat="47.0004" lon="8.64529">
        <ele>494</ele>
        <time>2021-08-05T09:16:45.439Z</time>
      </trkpt>
      <trkpt lat="47.00039" lon="8.64529">
        <ele>494</ele>
        <time>2021-08-05T09:16:46.439Z</time>
      </trkpt>
      <trkpt lat="47.00038" lon="8.64529">
        <ele>494</ele>
        <time>2021-08-05T09:16:47.439Z</time>
      </trkpt>
      <trkpt lat="47.00037" lon="8.64529">
        <ele>494</ele>
        <time>2021-08-05T09:16:48.439Z</time>
      </trkpt>
      <trkpt lat="47.00036" lon="8.64529">
        <ele>494</ele>
        <time>2021-08-05T09:16:49.439Z</time>
      </trkpt>
      <trkpt lat="47.00035" lon="8.64529">
        <ele>494</ele>
        <time>2021-08-05T09:16:50.439Z</time>
      </trkpt>
      <trkpt lat="47.00035" lon="8.64529">
        <ele>493</ele>
        <time>2021-08-05T09:16:51.439Z</time>
      </trkpt>
      <trkpt lat="47.00034" lon="8.64529">
        <ele>493</ele>
        <time>2021-08-05T09:16:52.439Z</time>
      </trkpt>
      <trkpt lat="47.00033" lon="8.64529">
        <ele>492</ele>
        <time>2021-08-05T09:16:53.439Z</time>
      </trkpt>
      <trkpt lat="47.00031" lon="8.64529">
        <ele>492</ele>
        <time>2021-08-05T09:16:54.439Z</time>
      </trkpt>
      <trkpt lat="47.00031" lon="8.64528">
        <ele>491</ele>
        <time>2021-08-05T09:16:55.439Z</time>
      </trkpt>
      <trkpt lat="47.0003" lon="8.64528">
        <ele>491</ele>
        <time>2021-08-05T09:16:56.439Z</time>
      </trkpt>
      <trkpt lat="47.00029" lon="8.64528">
        <ele>490</ele>
        <time>2021-08-05T09:16:57.439Z</time>
      </trkpt>
      <trkpt lat="47.00029" lon="8.64528">
        <ele>490</ele>
        <time>2021-08-05T09:16:58.439Z</time>
      </trkpt>
      <trkpt lat="47.00028" lon="8.64528">
        <ele>489</ele>
        <time>2021-08-05T09:16:59.439Z</time>
      </trkpt>
      <trkpt lat="47.00026" lon="8.64529">
        <ele>489</ele>
        <time>2021-08-05T09:17:00.439Z</time>
      </trkpt>
      <trkpt lat="47.00025" lon="8.64529">
        <ele>489</ele>
        <time>2021-08-05T09:17:01.439Z</time>
      </trkpt>
      <trkpt lat="47.00024" lon="8.64529">
        <ele>489</ele>
        <time>2021-08-05T09:17:02.439Z</time>
      </trkpt>
      <trkpt lat="47.00024" lon="8.6453">
        <ele>490</ele>
        <time>2021-08-05T09:17:03.439Z</time>
      </trkpt>
      <trkpt lat="47.00023" lon="8.6453">
        <ele>490</ele>
        <time>2021-08-05T09:17:04.439Z</time>
      </trkpt>
      <trkpt lat="47.00022" lon="8.64531">
        <ele>490</ele>
        <time>2021-08-05T09:17:05.439Z</time>
      </trkpt>
      <trkpt lat="47.00021" lon="8.64531">
        <ele>489</ele>
        <time>2021-08-05T09:17:06.439Z</time>
      </trkpt>
      <trkpt lat="47.0002" lon="8.64532">
        <ele>489</ele>
        <time>2021-08-05T09:17:07.439Z</time>
      </trkpt>
      <trkpt lat="47.0002" lon="8.64532">
        <ele>489</ele>
        <time>2021-08-05T09:17:08.439Z</time>
      </trkpt>
      <trkpt lat="47.00019" lon="8.64532">
        <ele>490</ele>
        <time>2021-08-05T09:17:09.439Z</time>
      </trkpt>
      <trkpt lat="47.00018" lon="8.64532">
        <ele>490</ele>
        <time>2021-08-05T09:17:10.439Z</time>
      </trkpt>
      <trkpt lat="47.00016" lon="8.64533">
        <ele>491</ele>
        <time>2021-08-05T09:17:11.439Z</time>
      </trkpt>
      <trkpt lat="47.00015" lon="8.64533">
        <ele>491</ele>
        <time>2021-08-05T09:17:12.439Z</time>
      </trkpt>
      <trkpt lat="47.00014" lon="8.64533">
        <ele>492</ele>
        <time>2021-08-05T09:17:13.439Z</time>
      </trkpt>
      <trkpt lat="47.00013" lon="8.64533">
        <ele>492</ele>
        <time>2021-08-05T09:17:14.439Z</time>
      </trkpt>
      <trkpt lat="47.00012" lon="8.64533">
        <ele>493</ele>
        <time>2021-08-05T09:17:15.439Z</time>
      </trkpt>
      <trkpt lat="47.00012" lon="8.64534">
        <ele>493</ele>
        <time>2021-08-05T09:17:16.439Z</time>
      </trkpt>
      <trkpt lat="47.00011" lon="8.64534">
        <ele>494</ele>
        <time>2021-08-05T09:17:17.439Z</time>
      </trkpt>
      <trkpt lat="47.00011" lon="8.64534">
        <ele>494</ele>
        <time>2021-08-05T09:17:18.439Z</time>
      </trkpt>
      <trkpt lat="47.0001" lon="8.64535">
        <ele>494</ele>
        <time>2021-08-05T09:17:19.439Z</time>
      </trkpt>
      <trkpt lat="47.00009" lon="8.64535">
        <ele>495</ele>
        <time>2021-08-05T09:17:20.439Z</time>
      </trkpt>
      <trkpt lat="47.00008" lon="8.64535">
        <ele>495</ele>
        <time>2021-08-05T09:17:21.439Z</time>
      </trkpt>
      <trkpt lat="47.00007" lon="8.64535">
        <ele>495</ele>
        <time>2021-08-05T09:17:22.439Z</time>
      </trkpt>
      <trkpt lat="47.00007" lon="8.64536">
        <ele>495</ele>
        <time>2021-08-05T09:17:23.439Z</time>
      </trkpt>
      <trkpt lat="47.00006" lon="8.64536">
        <ele>495</ele>
        <time>2021-08-05T09:17:24.439Z</time>
      </trkpt>
      <trkpt lat="47.00005" lon="8.64537">
        <ele>496</ele>
        <time>2021-08-05T09:17:25.439Z</time>
      </trkpt>
      <trkpt lat="47.00004" lon="8.64537">
        <ele>496</ele>
        <time>2021-08-05T09:17:26.439Z</time>
      </trkpt>
      <trkpt lat="47.00003" lon="8.64538">
        <ele>496</ele>
        <time>2021-08-05T09:17:27.439Z</time>
      </trkpt>
      <trkpt lat="47.00003" lon="8.64539">
        <ele>496</ele>
        <time>2021-08-05T09:17:28.439Z</time>
      </trkpt>
      <trkpt lat="47.00002" lon="8.6454">
        <ele>497</ele>
        <time>2021-08-05T09:17:29.439Z</time>
      </trkpt>
      <trkpt lat="47.00001" lon="8.64541">
        <ele>497</ele>
        <time>2021-08-05T09:17:30.439Z</time>
      </trkpt>
      <trkpt lat="47" lon="8.64541">
        <ele>497</ele>
        <time>2021-08-05T09:17:31.439Z</time>
      </trkpt>
      <trkpt lat="46.99999" lon="8.64542">
        <ele>498</ele>
        <time>2021-08-05T09:17:32.439Z</time>
      </trkpt>
      <trkpt lat="46.99998" lon="8.64542">
        <ele>498</ele>
        <time>2021-08-05T09:17:33.439Z</time>
      </trkpt>
      <trkpt lat="46.99997" lon="8.64543">
        <ele>499</ele>
        <time>2021-08-05T09:17:34.439Z</time>
      </trkpt>
      <trkpt lat="46.99996" lon="8.64543">
        <ele>500</ele>
        <time>2021-08-05T09:17:35.439Z</time>
      </trkpt>
      <trkpt lat="46.99996" lon="8.64543">
        <ele>500</ele>
        <time>2021-08-05T09:17:36.439Z</time>
      </trkpt>
      <trkpt lat="46.99994" lon="8.64543">
        <ele>501</ele>
        <time>2021-08-05T09:17:37.439Z</time>
      </trkpt>
      <trkpt lat="46.99993" lon="8.64543">
        <ele>501</ele>
        <time>2021-08-05T09:17:38.439Z</time>
      </trkpt>
      <trkpt lat="46.99992" lon="8.64543">
        <ele>501</ele>
        <time>2021-08-05T09:17:39.439Z</time>
      </trkpt>
      <trkpt lat="46.99991" lon="8.64543">
        <ele>501</ele>
        <time>2021-08-05T09:17:40.439Z</time>
      </trkpt>
      <trkpt lat="46.9999" lon="8.64544">
        <ele>501</ele>
        <time>2021-08-05T09:17:41.439Z</time>
      </trkpt>
      <trkpt lat="46.99989" lon="8.64544">
        <ele>501</ele>
        <time>2021-08-05T09:17:42.439Z</time>
      </trkpt>
      <trkpt lat="46.99988" lon="8.64545">
        <ele>501</ele>
        <time>2021-08-05T09:17:43.439Z</time>
      </trkpt>
      <trkpt lat="46.99987" lon="8.64545">
        <ele>501</ele>
        <time>2021-08-05T09:17:44.439Z</time>
      </trkpt>
      <trkpt lat="46.99986" lon="8.64545">
        <ele>501</ele>
        <time>2021-08-05T09:17:45.439Z</time>
      </trkpt>
      <trkpt lat="46.99985" lon="8.64546">
        <ele>501</ele>
        <time>2021-08-05T09:17:46.439Z</time>
      </trkpt>
      <trkpt lat="46.99984" lon="8.64546">
        <ele>501</ele>
        <time>2021-08-05T09:17:47.439Z</time>
      </trkpt>
      <trkpt lat="46.99983" lon="8.64546">
        <ele>501</ele>
        <time>2021-08-05T09:17:48.439Z</time>
      </trkpt>
      <trkpt lat="46.99982" lon="8.64547">
        <ele>501</ele>
        <time>2021-08-05T09:17:49.439Z</time>
      </trkpt>
      <trkpt lat="46.99981" lon="8.64547">
        <ele>501</ele>
        <time>2021-08-05T09:17:50.439Z</time>
      </trkpt>
      <trkpt lat="46.9998" lon="8.64548">
        <ele>501</ele>
        <time>2021-08-05T09:17:51.439Z</time>
      </trkpt>
      <trkpt lat="46.9998" lon="8.64548">
        <ele>501</ele>
        <time>2021-08-05T09:17:52.439Z</time>
      </trkpt>
      <trkpt lat="46.99979" lon="8.64549">
        <ele>501</ele>
        <time>2021-08-05T09:17:53.439Z</time>
      </trkpt>
      <trkpt lat="46.99978" lon="8.6455">
        <ele>501</ele>
        <time>2021-08-05T09:17:54.439Z</time>
      </trkpt>
      <trkpt lat="46.99977" lon="8.6455">
        <ele>501</ele>
        <time>2021-08-05T09:17:55.439Z</time>
      </trkpt>
      <trkpt lat="46.99976" lon="8.6455">
        <ele>501</ele>
        <time>2021-08-05T09:17:56.439Z</time>
      </trkpt>
      <trkpt lat="46.99975" lon="8.6455">
        <ele>501</ele>
        <time>2021-08-05T09:17:57.439Z</time>
      </trkpt>
      <trkpt lat="46.99975" lon="8.64551">
        <ele>501</ele>
        <time>2021-08-05T09:17:58.439Z</time>
      </trkpt>
      <trkpt lat="46.99974" lon="8.64552">
        <ele>500</ele>
        <time>2021-08-05T09:17:59.439Z</time>
      </trkpt>
      <trkpt lat="46.99973" lon="8.64553">
        <ele>500</ele>
        <time>2021-08-05T09:18:00.439Z</time>
      </trkpt>
      <trkpt lat="46.99972" lon="8.64553">
        <ele>500</ele>
        <time>2021-08-05T09:18:01.439Z</time>
      </trkpt>
      <trkpt lat="46.99971" lon="8.64553">
        <ele>500</ele>
        <time>2021-08-05T09:18:02.439Z</time>
      </trkpt>
      <trkpt lat="46.9997" lon="8.64554">
        <ele>501</ele>
        <time>2021-08-05T09:18:03.439Z</time>
      </trkpt>
      <trkpt lat="46.99969" lon="8.64555">
        <ele>501</ele>
        <time>2021-08-05T09:18:04.439Z</time>
      </trkpt>
      <trkpt lat="46.99968" lon="8.64556">
        <ele>501</ele>
        <time>2021-08-05T09:18:05.439Z</time>
      </trkpt>
      <trkpt lat="46.99967" lon="8.64557">
        <ele>501</ele>
        <time>2021-08-05T09:18:06.439Z</time>
      </trkpt>
      <trkpt lat="46.99967" lon="8.64558">
        <ele>502</ele>
        <time>2021-08-05T09:18:07.439Z</time>
      </trkpt>
      <trkpt lat="46.99965" lon="8.64558">
        <ele>502</ele>
        <time>2021-08-05T09:18:08.439Z</time>
      </trkpt>
      <trkpt lat="46.99964" lon="8.64559">
        <ele>502</ele>
        <time>2021-08-05T09:18:09.439Z</time>
      </trkpt>
      <trkpt lat="46.99963" lon="8.64559">
        <ele>502</ele>
        <time>2021-08-05T09:18:10.439Z</time>
      </trkpt>
      <trkpt lat="46.99963" lon="8.64559">
        <ele>503</ele>
        <time>2021-08-05T09:18:11.439Z</time>
      </trkpt>
      <trkpt lat="46.99962" lon="8.64559">
        <ele>503</ele>
        <time>2021-08-05T09:18:12.439Z</time>
      </trkpt>
      <trkpt lat="46.99961" lon="8.6456">
        <ele>503</ele>
        <time>2021-08-05T09:18:13.439Z</time>
      </trkpt>
      <trkpt lat="46.9996" lon="8.6456">
        <ele>503</ele>
        <time>2021-08-05T09:18:14.439Z</time>
      </trkpt>
      <trkpt lat="46.99959" lon="8.64561">
        <ele>503</ele>
        <time>2021-08-05T09:18:15.439Z</time>
      </trkpt>
      <trkpt lat="46.99958" lon="8.64561">
        <ele>503</ele>
        <time>2021-08-05T09:18:16.439Z</time>
      </trkpt>
      <trkpt lat="46.99957" lon="8.64562">
        <ele>503</ele>
        <time>2021-08-05T09:18:17.439Z</time>
      </trkpt>
      <trkpt lat="46.99956" lon="8.64562">
        <ele>504</ele>
        <time>2021-08-05T09:18:18.439Z</time>
      </trkpt>
      <trkpt lat="46.99955" lon="8.64563">
        <ele>504</ele>
        <time>2021-08-05T09:18:19.439Z</time>
      </trkpt>
      <trkpt lat="46.99954" lon="8.64563">
        <ele>504</ele>
        <time>2021-08-05T09:18:20.439Z</time>
      </trkpt>
      <trkpt lat="46.99953" lon="8.64563">
        <ele>505</ele>
        <time>2021-08-05T09:18:21.439Z</time>
      </trkpt>
      <trkpt lat="46.99952" lon="8.64563">
        <ele>505</ele>
        <time>2021-08-05T09:18:22.439Z</time>
      </trkpt>
      <trkpt lat="46.99951" lon="8.64564">
        <ele>505</ele>
        <time>2021-08-05T09:18:23.439Z</time>
      </trkpt>
      <trkpt lat="46.9995" lon="8.64563">
        <ele>505</ele>
        <time>2021-08-05T09:18:24.439Z</time>
      </trkpt>
      <trkpt lat="46.99949" lon="8.64563">
        <ele>505</ele>
        <time>2021-08-05T09:18:25.439Z</time>
      </trkpt>
      <trkpt lat="46.99948" lon="8.64563">
        <ele>506</ele>
        <time>2021-08-05T09:18:26.439Z</time>
      </trkpt>
      <trkpt lat="46.99947" lon="8.64563">
        <ele>506</ele>
        <time>2021-08-05T09:18:27.439Z</time>
      </trkpt>
      <trkpt lat="46.99946" lon="8.64563">
        <ele>506</ele>
        <time>2021-08-05T09:18:28.439Z</time>
      </trkpt>
      <trkpt lat="46.99945" lon="8.64564">
        <ele>506</ele>
        <time>2021-08-05T09:18:29.439Z</time>
      </trkpt>
      <trkpt lat="46.99945" lon="8.64565">
        <ele>506</ele>
        <time>2021-08-05T09:18:30.439Z</time>
      </trkpt>
      <trkpt lat="46.99944" lon="8.64565">
        <ele>506</ele>
        <time>2021-08-05T09:18:31.439Z</time>
      </trkpt>
      <trkpt lat="46.99944" lon="8.64565">
        <ele>506</ele>
        <time>2021-08-05T09:18:32.439Z</time>
      </trkpt>
      <trkpt lat="46.99942" lon="8.64565">
        <ele>506</ele>
        <time>2021-08-05T09:18:33.439Z</time>
      </trkpt>
      <trkpt lat="46.99941" lon="8.64565">
        <ele>506</ele>
        <time>2021-08-05T09:18:34.439Z</time>
      </trkpt>
      <trkpt lat="46.9994" lon="8.64565">
        <ele>506</ele>
        <time>2021-08-05T09:18:35.439Z</time>
      </trkpt>
      <trkpt lat="46.99939" lon="8.64566">
        <ele>506</ele>
        <time>2021-08-05T09:18:36.439Z</time>
      </trkpt>
      <trkpt lat="46.99938" lon="8.64566">
        <ele>506</ele>
        <time>2021-08-05T09:18:37.439Z</time>
      </trkpt>
      <trkpt lat="46.99938" lon="8.64567">
        <ele>506</ele>
        <time>2021-08-05T09:18:38.439Z</time>
      </trkpt>
      <trkpt lat="46.99937" lon="8.64568">
        <ele>506</ele>
        <time>2021-08-05T09:18:39.439Z</time>
      </trkpt>
      <trkpt lat="46.99936" lon="8.64569">
        <ele>506</ele>
        <time>2021-08-05T09:18:40.439Z</time>
      </trkpt>
      <trkpt lat="46.99935" lon="8.64569">
        <ele>507</ele>
        <time>2021-08-05T09:18:41.439Z</time>
      </trkpt>
      <trkpt lat="46.99934" lon="8.64569">
        <ele>507</ele>
        <time>2021-08-05T09:18:42.439Z</time>
      </trkpt>
      <trkpt lat="46.99932" lon="8.6457">
        <ele>507</ele>
        <time>2021-08-05T09:18:43.439Z</time>
      </trkpt>
      <trkpt lat="46.99931" lon="8.6457">
        <ele>507</ele>
        <time>2021-08-05T09:18:44.439Z</time>
      </trkpt>
      <trkpt lat="46.9993" lon="8.64571">
        <ele>507</ele>
        <time>2021-08-05T09:18:45.439Z</time>
      </trkpt>
      <trkpt lat="46.9993" lon="8.64572">
        <ele>507</ele>
        <time>2021-08-05T09:18:46.439Z</time>
      </trkpt>
      <trkpt lat="46.99929" lon="8.64573">
        <ele>507</ele>
        <time>2021-08-05T09:18:47.439Z</time>
      </trkpt>
      <trkpt lat="46.99927" lon="8.64574">
        <ele>507</ele>
        <time>2021-08-05T09:18:48.439Z</time>
      </trkpt>
      <trkpt lat="46.99927" lon="8.64574">
        <ele>507</ele>
        <time>2021-08-05T09:18:49.439Z</time>
      </trkpt>
      <trkpt lat="46.99926" lon="8.64574">
        <ele>507</ele>
        <time>2021-08-05T09:18:50.439Z</time>
      </trkpt>
      <trkpt lat="46.99925" lon="8.64574">
        <ele>508</ele>
        <time>2021-08-05T09:18:51.439Z</time>
      </trkpt>
      <trkpt lat="46.99923" lon="8.64575">
        <ele>508</ele>
        <time>2021-08-05T09:18:52.439Z</time>
      </trkpt>
      <trkpt lat="46.99922" lon="8.64575">
        <ele>509</ele>
        <time>2021-08-05T09:18:53.439Z</time>
      </trkpt>
      <trkpt lat="46.99921" lon="8.64576">
        <ele>510</ele>
        <time>2021-08-05T09:18:54.439Z</time>
      </trkpt>
      <trkpt lat="46.9992" lon="8.64576">
        <ele>510</ele>
        <time>2021-08-05T09:18:55.439Z</time>
      </trkpt>
      <trkpt lat="46.99919" lon="8.64577">
        <ele>511</ele>
        <time>2021-08-05T09:18:56.439Z</time>
      </trkpt>
      <trkpt lat="46.99918" lon="8.64577">
        <ele>511</ele>
        <time>2021-08-05T09:18:57.439Z</time>
      </trkpt>
      <trkpt lat="46.99917" lon="8.64576">
        <ele>511</ele>
        <time>2021-08-05T09:18:58.439Z</time>
      </trkpt>
      <trkpt lat="46.99915" lon="8.64576">
        <ele>511</ele>
        <time>2021-08-05T09:18:59.439Z</time>
      </trkpt>
      <trkpt lat="46.99914" lon="8.64576">
        <ele>512</ele>
        <time>2021-08-05T09:19:00.439Z</time>
      </trkpt>
      <trkpt lat="46.99913" lon="8.64576">
        <ele>512</ele>
        <time>2021-08-05T09:19:01.439Z</time>
      </trkpt>
      <trkpt lat="46.99912" lon="8.64576">
        <ele>512</ele>
        <time>2021-08-05T09:19:02.439Z</time>
      </trkpt>
      <trkpt lat="46.99911" lon="8.64577">
        <ele>512</ele>
        <time>2021-08-05T09:19:03.439Z</time>
      </trkpt>
      <trkpt lat="46.99909" lon="8.64578">
        <ele>512</ele>
        <time>2021-08-05T09:19:04.439Z</time>
      </trkpt>
      <trkpt lat="46.99909" lon="8.64579">
        <ele>512</ele>
        <time>2021-08-05T09:19:05.439Z</time>
      </trkpt>
      <trkpt lat="46.99908" lon="8.6458">
        <ele>512</ele>
        <time>2021-08-05T09:19:06.439Z</time>
      </trkpt>
      <trkpt lat="46.99907" lon="8.64581">
        <ele>513</ele>
        <time>2021-08-05T09:19:07.439Z</time>
      </trkpt>
      <trkpt lat="46.99906" lon="8.64581">
        <ele>513</ele>
        <time>2021-08-05T09:19:08.439Z</time>
      </trkpt>
      <trkpt lat="46.99905" lon="8.64581">
        <ele>513</ele>
        <time>2021-08-05T09:19:09.439Z</time>
      </trkpt>
      <trkpt lat="46.99903" lon="8.64582">
        <ele>513</ele>
        <time>2021-08-05T09:19:10.439Z</time>
      </trkpt>
      <trkpt lat="46.99903" lon="8.64583">
        <ele>513</ele>
        <time>2021-08-05T09:19:11.439Z</time>
      </trkpt>
      <trkpt lat="46.99902" lon="8.64583">
        <ele>514</ele>
        <time>2021-08-05T09:19:12.439Z</time>
      </trkpt>
      <trkpt lat="46.99901" lon="8.64583">
        <ele>514</ele>
        <time>2021-08-05T09:19:13.439Z</time>
      </trkpt>
      <trkpt lat="46.999" lon="8.64582">
        <ele>514</ele>
        <time>2021-08-05T09:19:14.439Z</time>
      </trkpt>
      <trkpt lat="46.99899" lon="8.64582">
        <ele>513</ele>
        <time>2021-08-05T09:19:15.439Z</time>
      </trkpt>
      <trkpt lat="46.99898" lon="8.64583">
        <ele>513</ele>
        <time>2021-08-05T09:19:16.439Z</time>
      </trkpt>
      <trkpt lat="46.99897" lon="8.64583">
        <ele>513</ele>
        <time>2021-08-05T09:19:17.439Z</time>
      </trkpt>
      <trkpt lat="46.99896" lon="8.64584">
        <ele>513</ele>
        <time>2021-08-05T09:19:18.439Z</time>
      </trkpt>
      <trkpt lat="46.99895" lon="8.64584">
        <ele>513</ele>
        <time>2021-08-05T09:19:19.439Z</time>
      </trkpt>
      <trkpt lat="46.99895" lon="8.64585">
        <ele>513</ele>
        <time>2021-08-05T09:19:20.439Z</time>
      </trkpt>
      <trkpt lat="46.99894" lon="8.64586">
        <ele>513</ele>
        <time>2021-08-05T09:19:21.439Z</time>
      </trkpt>
      <trkpt lat="46.99893" lon="8.64587">
        <ele>512</ele>
        <time>2021-08-05T09:19:22.439Z</time>
      </trkpt>
      <trkpt lat="46.99892" lon="8.64587">
        <ele>512</ele>
        <time>2021-08-05T09:19:23.439Z</time>
      </trkpt>
      <trkpt lat="46.99891" lon="8.64588">
        <ele>511</ele>
        <time>2021-08-05T09:19:24.439Z</time>
      </trkpt>
      <trkpt lat="46.9989" lon="8.64588">
        <ele>511</ele>
        <time>2021-08-05T09:19:25.439Z</time>
      </trkpt>
      <trkpt lat="46.99888" lon="8.64589">
        <ele>511</ele>
        <time>2021-08-05T09:19:26.439Z</time>
      </trkpt>
      <trkpt lat="46.99887" lon="8.64589">
        <ele>510</ele>
        <time>2021-08-05T09:19:27.439Z</time>
      </trkpt>
      <trkpt lat="46.99886" lon="8.6459">
        <ele>510</ele>
        <time>2021-08-05T09:19:28.439Z</time>
      </trkpt>
      <trkpt lat="46.99885" lon="8.6459">
        <ele>510</ele>
        <time>2021-08-05T09:19:29.439Z</time>
      </trkpt>
      <trkpt lat="46.99884" lon="8.64591">
        <ele>510</ele>
        <time>2021-08-05T09:19:30.439Z</time>
      </trkpt>
      <trkpt lat="46.99883" lon="8.64592">
        <ele>509</ele>
        <time>2021-08-05T09:19:31.439Z</time>
      </trkpt>
      <trkpt lat="46.99882" lon="8.64593">
        <ele>509</ele>
        <time>2021-08-05T09:19:32.439Z</time>
      </trkpt>
      <trkpt lat="46.99882" lon="8.64594">
        <ele>509</ele>
        <time>2021-08-05T09:19:33.439Z</time>
      </trkpt>
      <trkpt lat="46.99881" lon="8.64596">
        <ele>509</ele>
        <time>2021-08-05T09:19:34.439Z</time>
      </trkpt>
      <trkpt lat="46.9988" lon="8.64596">
        <ele>509</ele>
        <time>2021-08-05T09:19:35.439Z</time>
      </trkpt>
      <trkpt lat="46.99879" lon="8.64597">
        <ele>508</ele>
        <time>2021-08-05T09:19:36.439Z</time>
      </trkpt>
      <trkpt lat="46.99878" lon="8.64599">
        <ele>508</ele>
        <time>2021-08-05T09:19:37.439Z</time>
      </trkpt>
      <trkpt lat="46.99877" lon="8.646">
        <ele>508</ele>
        <time>2021-08-05T09:19:38.439Z</time>
      </trkpt>
      <trkpt lat="46.99876" lon="8.64601">
        <ele>507</ele>
        <time>2021-08-05T09:19:39.439Z</time>
      </trkpt>
      <trkpt lat="46.99875" lon="8.64602">
        <ele>507</ele>
        <time>2021-08-05T09:19:40.439Z</time>
      </trkpt>
      <trkpt lat="46.99874" lon="8.64602">
        <ele>506</ele>
        <time>2021-08-05T09:19:41.439Z</time>
      </trkpt>
      <trkpt lat="46.99874" lon="8.64603">
        <ele>506</ele>
        <time>2021-08-05T09:19:42.439Z</time>
      </trkpt>
      <trkpt lat="46.99873" lon="8.64604">
        <ele>506</ele>
        <time>2021-08-05T09:19:43.439Z</time>
      </trkpt>
      <trkpt lat="46.99872" lon="8.64605">
        <ele>507</ele>
        <time>2021-08-05T09:19:44.439Z</time>
      </trkpt>
      <trkpt lat="46.99871" lon="8.64605">
        <ele>507</ele>
        <time>2021-08-05T09:19:45.439Z</time>
      </trkpt>
      <trkpt lat="46.9987" lon="8.64606">
        <ele>507</ele>
        <time>2021-08-05T09:19:46.439Z</time>
      </trkpt>
      <trkpt lat="46.99869" lon="8.64607">
        <ele>508</ele>
        <time>2021-08-05T09:19:47.439Z</time>
      </trkpt>
      <trkpt lat="46.99868" lon="8.64607">
        <ele>508</ele>
        <time>2021-08-05T09:19:48.439Z</time>
      </trkpt>
      <trkpt lat="46.99867" lon="8.64608">
        <ele>508</ele>
        <time>2021-08-05T09:19:49.439Z</time>
      </trkpt>
      <trkpt lat="46.99867" lon="8.64609">
        <ele>509</ele>
        <time>2021-08-05T09:19:50.439Z</time>
      </trkpt>
      <trkpt lat="46.99866" lon="8.6461">
        <ele>509</ele>
        <time>2021-08-05T09:19:51.439Z</time>
      </trkpt>
      <trkpt lat="46.99865" lon="8.64611">
        <ele>509</ele>
        <time>2021-08-05T09:19:52.439Z</time>
      </trkpt>
      <trkpt lat="46.99864" lon="8.64612">
        <ele>508</ele>
        <time>2021-08-05T09:19:53.439Z</time>
      </trkpt>
      <trkpt lat="46.99863" lon="8.64612">
        <ele>508</ele>
        <time>2021-08-05T09:19:54.439Z</time>
      </trkpt>
      <trkpt lat="46.99862" lon="8.64612">
        <ele>508</ele>
        <time>2021-08-05T09:19:55.439Z</time>
      </trkpt>
      <trkpt lat="46.99861" lon="8.64613">
        <ele>509</ele>
        <time>2021-08-05T09:19:56.439Z</time>
      </trkpt>
      <trkpt lat="46.9986" lon="8.64614">
        <ele>509</ele>
        <time>2021-08-05T09:19:57.439Z</time>
      </trkpt>
      <trkpt lat="46.99859" lon="8.64615">
        <ele>509</ele>
        <time>2021-08-05T09:19:58.439Z</time>
      </trkpt>
      <trkpt lat="46.99858" lon="8.64616">
        <ele>509</ele>
        <time>2021-08-05T09:19:59.439Z</time>
      </trkpt>
      <trkpt lat="46.99857" lon="8.64617">
        <ele>509</ele>
        <time>2021-08-05T09:20:00.439Z</time>
      </trkpt>
      <trkpt lat="46.99857" lon="8.64618">
        <ele>509</ele>
        <time>2021-08-05T09:20:01.439Z</time>
      </trkpt>
      <trkpt lat="46.99856" lon="8.64618">
        <ele>509</ele>
        <time>2021-08-05T09:20:02.439Z</time>
      </trkpt>
      <trkpt lat="46.99855" lon="8.64619">
        <ele>510</ele>
        <time>2021-08-05T09:20:03.439Z</time>
      </trkpt>
      <trkpt lat="46.99854" lon="8.64619">
        <ele>510</ele>
        <time>2021-08-05T09:20:04.439Z</time>
      </trkpt>
      <trkpt lat="46.99853" lon="8.6462">
        <ele>511</ele>
        <time>2021-08-05T09:20:05.439Z</time>
      </trkpt>
      <trkpt lat="46.99852" lon="8.64621">
        <ele>511</ele>
        <time>2021-08-05T09:20:06.439Z</time>
      </trkpt>
      <trkpt lat="46.99851" lon="8.64621">
        <ele>511</ele>
        <time>2021-08-05T09:20:07.439Z</time>
      </trkpt>
      <trkpt lat="46.9985" lon="8.64622">
        <ele>512</ele>
        <time>2021-08-05T09:20:08.439Z</time>
      </trkpt>
      <trkpt lat="46.99849" lon="8.64623">
        <ele>512</ele>
        <time>2021-08-05T09:20:09.439Z</time>
      </trkpt>
      <trkpt lat="46.99848" lon="8.64624">
        <ele>512</ele>
        <time>2021-08-05T09:20:10.439Z</time>
      </trkpt>
      <trkpt lat="46.99847" lon="8.64625">
        <ele>513</ele>
        <time>2021-08-05T09:20:11.439Z</time>
      </trkpt>
      <trkpt lat="46.99847" lon="8.64626">
        <ele>513</ele>
        <time>2021-08-05T09:20:12.439Z</time>
      </trkpt>
      <trkpt lat="46.99846" lon="8.64627">
        <ele>513</ele>
        <time>2021-08-05T09:20:13.439Z</time>
      </trkpt>
      <trkpt lat="46.99845" lon="8.64628">
        <ele>513</ele>
        <time>2021-08-05T09:20:14.439Z</time>
      </trkpt>
      <trkpt lat="46.99844" lon="8.64629">
        <ele>514</ele>
        <time>2021-08-05T09:20:15.439Z</time>
      </trkpt>
      <trkpt lat="46.99844" lon="8.6463">
        <ele>514</ele>
        <time>2021-08-05T09:20:16.439Z</time>
      </trkpt>
      <trkpt lat="46.99843" lon="8.64631">
        <ele>514</ele>
        <time>2021-08-05T09:20:17.439Z</time>
      </trkpt>
      <trkpt lat="46.99843" lon="8.64632">
        <ele>514</ele>
        <time>2021-08-05T09:20:18.439Z</time>
      </trkpt>
      <trkpt lat="46.99842" lon="8.64633">
        <ele>514</ele>
        <time>2021-08-05T09:20:19.439Z</time>
      </trkpt>
      <trkpt lat="46.99841" lon="8.64634">
        <ele>514</ele>
        <time>2021-08-05T09:20:20.439Z</time>
      </trkpt>
      <trkpt lat="46.99841" lon="8.64635">
        <ele>514</ele>
        <time>2021-08-05T09:20:21.439Z</time>
      </trkpt>
      <trkpt lat="46.9984" lon="8.64636">
        <ele>514</ele>
        <time>2021-08-05T09:20:22.439Z</time>
      </trkpt>
      <trkpt lat="46.99839" lon="8.64636">
        <ele>514</ele>
        <time>2021-08-05T09:20:23.439Z</time>
      </trkpt>
      <trkpt lat="46.99839" lon="8.64637">
        <ele>514</ele>
        <time>2021-08-05T09:20:24.439Z</time>
      </trkpt>
      <trkpt lat="46.99838" lon="8.64638">
        <ele>514</ele>
        <time>2021-08-05T09:20:25.439Z</time>
      </trkpt>
      <trkpt lat="46.99838" lon="8.64638">
        <ele>514</ele>
        <time>2021-08-05T09:20:26.439Z</time>
      </trkpt>
      <trkpt lat="46.99837" lon="8.64639">
        <ele>514</ele>
        <time>2021-08-05T09:20:27.439Z</time>
      </trkpt>
      <trkpt lat="46.99836" lon="8.6464">
        <ele>514</ele>
        <time>2021-08-05T09:20:28.439Z</time>
      </trkpt>
      <trkpt lat="46.99835" lon="8.64641">
        <ele>514</ele>
        <time>2021-08-05T09:20:29.439Z</time>
      </trkpt>
      <trkpt lat="46.99834" lon="8.64642">
        <ele>514</ele>
        <time>2021-08-05T09:20:30.439Z</time>
      </trkpt>
      <trkpt lat="46.99834" lon="8.64643">
        <ele>514</ele>
        <time>2021-08-05T09:20:31.439Z</time>
      </trkpt>
      <trkpt lat="46.99833" lon="8.64644">
        <ele>514</ele>
        <time>2021-08-05T09:20:32.439Z</time>
      </trkpt>
      <trkpt lat="46.99832" lon="8.64644">
        <ele>515</ele>
        <time>2021-08-05T09:20:33.439Z</time>
      </trkpt>
      <trkpt lat="46.99832" lon="8.64645">
        <ele>515</ele>
        <time>2021-08-05T09:20:34.439Z</time>
      </trkpt>
      <trkpt lat="46.9983" lon="8.64646">
        <ele>515</ele>
        <time>2021-08-05T09:20:35.439Z</time>
      </trkpt>
      <trkpt lat="46.99829" lon="8.64647">
        <ele>515</ele>
        <time>2021-08-05T09:20:36.439Z</time>
      </trkpt>
      <trkpt lat="46.99829" lon="8.64647">
        <ele>515</ele>
        <time>2021-08-05T09:20:37.439Z</time>
      </trkpt>
      <trkpt lat="46.99828" lon="8.64648">
        <ele>515</ele>
        <time>2021-08-05T09:20:38.439Z</time>
      </trkpt>
      <trkpt lat="46.99827" lon="8.64649">
        <ele>515</ele>
        <time>2021-08-05T09:20:39.439Z</time>
      </trkpt>
      <trkpt lat="46.99826" lon="8.6465">
        <ele>515</ele>
        <time>2021-08-05T09:20:40.439Z</time>
      </trkpt>
      <trkpt lat="46.99826" lon="8.64651">
        <ele>516</ele>
        <time>2021-08-05T09:20:41.439Z</time>
      </trkpt>
      <trkpt lat="46.99825" lon="8.64652">
        <ele>516</ele>
        <time>2021-08-05T09:20:42.439Z</time>
      </trkpt>
      <trkpt lat="46.99824" lon="8.64652">
        <ele>516</ele>
        <time>2021-08-05T09:20:43.439Z</time>
      </trkpt>
      <trkpt lat="46.99823" lon="8.64653">
        <ele>517</ele>
        <time>2021-08-05T09:20:44.439Z</time>
      </trkpt>
      <trkpt lat="46.99822" lon="8.64654">
        <ele>517</ele>
        <time>2021-08-05T09:20:45.439Z</time>
      </trkpt>
      <trkpt lat="46.99822" lon="8.64654">
        <ele>518</ele>
        <time>2021-08-05T09:20:46.439Z</time>
      </trkpt>
      <trkpt lat="46.99821" lon="8.64655">
        <ele>518</ele>
        <time>2021-08-05T09:20:47.439Z</time>
      </trkpt>
      <trkpt lat="46.9982" lon="8.64655">
        <ele>519</ele>
        <time>2021-08-05T09:20:48.439Z</time>
      </trkpt>
      <trkpt lat="46.99819" lon="8.64656">
        <ele>519</ele>
        <time>2021-08-05T09:20:49.439Z</time>
      </trkpt>
      <trkpt lat="46.99819" lon="8.64657">
        <ele>519</ele>
        <time>2021-08-05T09:20:50.439Z</time>
      </trkpt>
      <trkpt lat="46.99818" lon="8.64658">
        <ele>519</ele>
        <time>2021-08-05T09:20:51.439Z</time>
      </trkpt>
      <trkpt lat="46.99818" lon="8.64659">
        <ele>519</ele>
        <time>2021-08-05T09:20:52.439Z</time>
      </trkpt>
      <trkpt lat="46.99817" lon="8.64661">
        <ele>519</ele>
        <time>2021-08-05T09:20:53.439Z</time>
      </trkpt>
      <trkpt lat="46.99816" lon="8.64662">
        <ele>519</ele>
        <time>2021-08-05T09:20:54.439Z</time>
      </trkpt>
      <trkpt lat="46.99815" lon="8.64663">
        <ele>519</ele>
        <time>2021-08-05T09:20:55.439Z</time>
      </trkpt>
      <trkpt lat="46.99814" lon="8.64664">
        <ele>519</ele>
        <time>2021-08-05T09:20:56.439Z</time>
      </trkpt>
      <trkpt lat="46.99813" lon="8.64664">
        <ele>519</ele>
        <time>2021-08-05T09:20:57.439Z</time>
      </trkpt>
      <trkpt lat="46.99812" lon="8.64666">
        <ele>519</ele>
        <time>2021-08-05T09:20:58.439Z</time>
      </trkpt>
      <trkpt lat="46.99812" lon="8.64667">
        <ele>519</ele>
        <time>2021-08-05T09:20:59.439Z</time>
      </trkpt>
      <trkpt lat="46.99811" lon="8.64668">
        <ele>519</ele>
        <time>2021-08-05T09:21:00.439Z</time>
      </trkpt>
      <trkpt lat="46.9981" lon="8.64668">
        <ele>519</ele>
        <time>2021-08-05T09:21:01.439Z</time>
      </trkpt>
      <trkpt lat="46.99809" lon="8.64669">
        <ele>519</ele>
        <time>2021-08-05T09:21:02.439Z</time>
      </trkpt>
      <trkpt lat="46.99808" lon="8.6467">
        <ele>519</ele>
        <time>2021-08-05T09:21:03.439Z</time>
      </trkpt>
      <trkpt lat="46.99807" lon="8.64671">
        <ele>519</ele>
        <time>2021-08-05T09:21:04.439Z</time>
      </trkpt>
      <trkpt lat="46.99807" lon="8.64671">
        <ele>519</ele>
        <time>2021-08-05T09:21:05.439Z</time>
      </trkpt>
      <trkpt lat="46.99806" lon="8.64672">
        <ele>520</ele>
        <time>2021-08-05T09:21:06.439Z</time>
      </trkpt>
      <trkpt lat="46.99805" lon="8.64673">
        <ele>520</ele>
        <time>2021-08-05T09:21:07.439Z</time>
      </trkpt>
      <trkpt lat="46.99804" lon="8.64674">
        <ele>520</ele>
        <time>2021-08-05T09:21:08.439Z</time>
      </trkpt>
      <trkpt lat="46.99803" lon="8.64675">
        <ele>520</ele>
        <time>2021-08-05T09:21:09.439Z</time>
      </trkpt>
      <trkpt lat="46.99802" lon="8.64676">
        <ele>520</ele>
        <time>2021-08-05T09:21:10.439Z</time>
      </trkpt>
      <trkpt lat="46.99801" lon="8.64676">
        <ele>521</ele>
        <time>2021-08-05T09:21:11.439Z</time>
      </trkpt>
      <trkpt lat="46.998" lon="8.64677">
        <ele>521</ele>
        <time>2021-08-05T09:21:12.439Z</time>
      </trkpt>
      <trkpt lat="46.99799" lon="8.64677">
        <ele>522</ele>
        <time>2021-08-05T09:21:13.439Z</time>
      </trkpt>
      <trkpt lat="46.99798" lon="8.64678">
        <ele>522</ele>
        <time>2021-08-05T09:21:14.439Z</time>
      </trkpt>
      <trkpt lat="46.99797" lon="8.64678">
        <ele>522</ele>
        <time>2021-08-05T09:21:15.439Z</time>
      </trkpt>
      <trkpt lat="46.99796" lon="8.64679">
        <ele>522</ele>
        <time>2021-08-05T09:21:16.439Z</time>
      </trkpt>
      <trkpt lat="46.99795" lon="8.64679">
        <ele>522</ele>
        <time>2021-08-05T09:21:17.439Z</time>
      </trkpt>
      <trkpt lat="46.99794" lon="8.6468">
        <ele>523</ele>
        <time>2021-08-05T09:21:18.439Z</time>
      </trkpt>
      <trkpt lat="46.99793" lon="8.6468">
        <ele>523</ele>
        <time>2021-08-05T09:21:19.439Z</time>
      </trkpt>
      <trkpt lat="46.99792" lon="8.64681">
        <ele>523</ele>
        <time>2021-08-05T09:21:20.439Z</time>
      </trkpt>
      <trkpt lat="46.99791" lon="8.64681">
        <ele>523</ele>
        <time>2021-08-05T09:21:21.439Z</time>
      </trkpt>
      <trkpt lat="46.9979" lon="8.64681">
        <ele>523</ele>
        <time>2021-08-05T09:21:22.439Z</time>
      </trkpt>
      <trkpt lat="46.99788" lon="8.64682">
        <ele>523</ele>
        <time>2021-08-05T09:21:23.439Z</time>
      </trkpt>
      <trkpt lat="46.99787" lon="8.64682">
        <ele>523</ele>
        <time>2021-08-05T09:21:24.439Z</time>
      </trkpt>
      <trkpt lat="46.99786" lon="8.64682">
        <ele>523</ele>
        <time>2021-08-05T09:21:25.439Z</time>
      </trkpt>
      <trkpt lat="46.99785" lon="8.64682">
        <ele>523</ele>
        <time>2021-08-05T09:21:26.439Z</time>
      </trkpt>
      <trkpt lat="46.99784" lon="8.64683">
        <ele>523</ele>
        <time>2021-08-05T09:21:27.439Z</time>
      </trkpt>
      <trkpt lat="46.99783" lon="8.64682">
        <ele>523</ele>
        <time>2021-08-05T09:21:28.439Z</time>
      </trkpt>
      <trkpt lat="46.99781" lon="8.64683">
        <ele>523</ele>
        <time>2021-08-05T09:21:29.439Z</time>
      </trkpt>
      <trkpt lat="46.9978" lon="8.64683">
        <ele>523</ele>
        <time>2021-08-05T09:21:30.439Z</time>
      </trkpt>
      <trkpt lat="46.99779" lon="8.64683">
        <ele>523</ele>
        <time>2021-08-05T09:21:31.439Z</time>
      </trkpt>
      <trkpt lat="46.99778" lon="8.64683">
        <ele>522</ele>
        <time>2021-08-05T09:21:32.439Z</time>
      </trkpt>
      <trkpt lat="46.99777" lon="8.64683">
        <ele>522</ele>
        <time>2021-08-05T09:21:33.439Z</time>
      </trkpt>
      <trkpt lat="46.99776" lon="8.64683">
        <ele>522</ele>
        <time>2021-08-05T09:21:34.439Z</time>
      </trkpt>
      <trkpt lat="46.99775" lon="8.64683">
        <ele>522</ele>
        <time>2021-08-05T09:21:35.439Z</time>
      </trkpt>
      <trkpt lat="46.99774" lon="8.64683">
        <ele>522</ele>
        <time>2021-08-05T09:21:36.439Z</time>
      </trkpt>
      <trkpt lat="46.99773" lon="8.64682">
        <ele>522</ele>
        <time>2021-08-05T09:21:37.439Z</time>
      </trkpt>
      <trkpt lat="46.99772" lon="8.64682">
        <ele>522</ele>
        <time>2021-08-05T09:21:38.439Z</time>
      </trkpt>
      <trkpt lat="46.99771" lon="8.64681">
        <ele>522</ele>
        <time>2021-08-05T09:21:39.439Z</time>
      </trkpt>
      <trkpt lat="46.9977" lon="8.64681">
        <ele>522</ele>
        <time>2021-08-05T09:21:40.439Z</time>
      </trkpt>
      <trkpt lat="46.99769" lon="8.6468">
        <ele>522</ele>
        <time>2021-08-05T09:21:41.439Z</time>
      </trkpt>
      <trkpt lat="46.99768" lon="8.6468">
        <ele>522</ele>
        <time>2021-08-05T09:21:42.439Z</time>
      </trkpt>
      <trkpt lat="46.99767" lon="8.64679">
        <ele>522</ele>
        <time>2021-08-05T09:21:43.439Z</time>
      </trkpt>
      <trkpt lat="46.99766" lon="8.64679">
        <ele>522</ele>
        <time>2021-08-05T09:21:44.439Z</time>
      </trkpt>
      <trkpt lat="46.99765" lon="8.64678">
        <ele>522</ele>
        <time>2021-08-05T09:21:45.439Z</time>
      </trkpt>
      <trkpt lat="46.99763" lon="8.64678">
        <ele>522</ele>
        <time>2021-08-05T09:21:46.439Z</time>
      </trkpt>
      <trkpt lat="46.99762" lon="8.64678">
        <ele>522</ele>
        <time>2021-08-05T09:21:47.439Z</time>
      </trkpt>
      <trkpt lat="46.99761" lon="8.64677">
        <ele>521</ele>
        <time>2021-08-05T09:21:48.439Z</time>
      </trkpt>
      <trkpt lat="46.9976" lon="8.64677">
        <ele>521</ele>
        <time>2021-08-05T09:21:49.439Z</time>
      </trkpt>
      <trkpt lat="46.99759" lon="8.64677">
        <ele>521</ele>
        <time>2021-08-05T09:21:50.439Z</time>
      </trkpt>
      <trkpt lat="46.99757" lon="8.64677">
        <ele>521</ele>
        <time>2021-08-05T09:21:51.439Z</time>
      </trkpt>
      <trkpt lat="46.99756" lon="8.64677">
        <ele>521</ele>
        <time>2021-08-05T09:21:52.439Z</time>
      </trkpt>
      <trkpt lat="46.99754" lon="8.64677">
        <ele>521</ele>
        <time>2021-08-05T09:21:53.439Z</time>
      </trkpt>
      <trkpt lat="46.99753" lon="8.64677">
        <ele>521</ele>
        <time>2021-08-05T09:21:54.439Z</time>
      </trkpt>
      <trkpt lat="46.99752" lon="8.64677">
        <ele>522</ele>
        <time>2021-08-05T09:21:55.439Z</time>
      </trkpt>
      <trkpt lat="46.99751" lon="8.64678">
        <ele>523</ele>
        <time>2021-08-05T09:21:56.439Z</time>
      </trkpt>
      <trkpt lat="46.9975" lon="8.64678">
        <ele>524</ele>
        <time>2021-08-05T09:21:57.439Z</time>
      </trkpt>
      <trkpt lat="46.99749" lon="8.64679">
        <ele>524</ele>
        <time>2021-08-05T09:21:58.439Z</time>
      </trkpt>
      <trkpt lat="46.99748" lon="8.64679">
        <ele>525</ele>
        <time>2021-08-05T09:21:59.439Z</time>
      </trkpt>
      <trkpt lat="46.99746" lon="8.6468">
        <ele>526</ele>
        <time>2021-08-05T09:22:00.439Z</time>
      </trkpt>
      <trkpt lat="46.99746" lon="8.6468">
        <ele>526</ele>
        <time>2021-08-05T09:22:01.439Z</time>
      </trkpt>
      <trkpt lat="46.99744" lon="8.64681">
        <ele>527</ele>
        <time>2021-08-05T09:22:02.439Z</time>
      </trkpt>
      <trkpt lat="46.99744" lon="8.64682">
        <ele>527</ele>
        <time>2021-08-05T09:22:03.439Z</time>
      </trkpt>
      <trkpt lat="46.99742" lon="8.64682">
        <ele>527</ele>
        <time>2021-08-05T09:22:04.439Z</time>
      </trkpt>
      <trkpt lat="46.99741" lon="8.64683">
        <ele>528</ele>
        <time>2021-08-05T09:22:05.439Z</time>
      </trkpt>
      <trkpt lat="46.9974" lon="8.64684">
        <ele>528</ele>
        <time>2021-08-05T09:22:06.439Z</time>
      </trkpt>
      <trkpt lat="46.9974" lon="8.64685">
        <ele>528</ele>
        <time>2021-08-05T09:22:07.439Z</time>
      </trkpt>
      <trkpt lat="46.99739" lon="8.64685">
        <ele>528</ele>
        <time>2021-08-05T09:22:08.439Z</time>
      </trkpt>
      <trkpt lat="46.99738" lon="8.64686">
        <ele>528</ele>
        <time>2021-08-05T09:22:09.439Z</time>
      </trkpt>
      <trkpt lat="46.99737" lon="8.64687">
        <ele>528</ele>
        <time>2021-08-05T09:22:10.439Z</time>
      </trkpt>
      <trkpt lat="46.99736" lon="8.64687">
        <ele>528</ele>
        <time>2021-08-05T09:22:11.439Z</time>
      </trkpt>
      <trkpt lat="46.99735" lon="8.64688">
        <ele>528</ele>
        <time>2021-08-05T09:22:12.439Z</time>
      </trkpt>
      <trkpt lat="46.99734" lon="8.64689">
        <ele>528</ele>
        <time>2021-08-05T09:22:13.439Z</time>
      </trkpt>
      <trkpt lat="46.99733" lon="8.6469">
        <ele>528</ele>
        <time>2021-08-05T09:22:14.439Z</time>
      </trkpt>
      <trkpt lat="46.99732" lon="8.64691">
        <ele>528</ele>
        <time>2021-08-05T09:22:15.439Z</time>
      </trkpt>
      <trkpt lat="46.99731" lon="8.64692">
        <ele>528</ele>
        <time>2021-08-05T09:22:16.439Z</time>
      </trkpt>
      <trkpt lat="46.9973" lon="8.64693">
        <ele>528</ele>
        <time>2021-08-05T09:22:17.439Z</time>
      </trkpt>
      <trkpt lat="46.99729" lon="8.64694">
        <ele>529</ele>
        <time>2021-08-05T09:22:18.439Z</time>
      </trkpt>
      <trkpt lat="46.99729" lon="8.64696">
        <ele>529</ele>
        <time>2021-08-05T09:22:19.439Z</time>
      </trkpt>
      <trkpt lat="46.99728" lon="8.64697">
        <ele>529</ele>
        <time>2021-08-05T09:22:20.439Z</time>
      </trkpt>
      <trkpt lat="46.99727" lon="8.64698">
        <ele>529</ele>
        <time>2021-08-05T09:22:21.439Z</time>
      </trkpt>
      <trkpt lat="46.99726" lon="8.64699">
        <ele>529</ele>
        <time>2021-08-05T09:22:22.439Z</time>
      </trkpt>
      <trkpt lat="46.99725" lon="8.64699">
        <ele>529</ele>
        <time>2021-08-05T09:22:23.439Z</time>
      </trkpt>
      <trkpt lat="46.99724" lon="8.647">
        <ele>530</ele>
        <time>2021-08-05T09:22:24.439Z</time>
      </trkpt>
      <trkpt lat="46.99723" lon="8.64701">
        <ele>530</ele>
        <time>2021-08-05T09:22:25.439Z</time>
      </trkpt>
      <trkpt lat="46.99722" lon="8.64702">
        <ele>531</ele>
        <time>2021-08-05T09:22:26.439Z</time>
      </trkpt>
      <trkpt lat="46.99721" lon="8.64703">
        <ele>531</ele>
        <time>2021-08-05T09:22:27.439Z</time>
      </trkpt>
      <trkpt lat="46.99719" lon="8.64704">
        <ele>532</ele>
        <time>2021-08-05T09:22:28.439Z</time>
      </trkpt>
      <trkpt lat="46.99718" lon="8.64705">
        <ele>532</ele>
        <time>2021-08-05T09:22:29.439Z</time>
      </trkpt>
      <trkpt lat="46.99717" lon="8.64706">
        <ele>532</ele>
        <time>2021-08-05T09:22:30.439Z</time>
      </trkpt>
      <trkpt lat="46.99716" lon="8.64706">
        <ele>531</ele>
        <time>2021-08-05T09:22:31.439Z</time>
      </trkpt>
      <trkpt lat="46.99715" lon="8.64707">
        <ele>531</ele>
        <time>2021-08-05T09:22:32.439Z</time>
      </trkpt>
      <trkpt lat="46.99714" lon="8.64708">
        <ele>531</ele>
        <time>2021-08-05T09:22:33.439Z</time>
      </trkpt>
      <trkpt lat="46.99713" lon="8.64709">
        <ele>531</ele>
        <time>2021-08-05T09:22:34.439Z</time>
      </trkpt>
      <trkpt lat="46.99712" lon="8.6471">
        <ele>531</ele>
        <time>2021-08-05T09:22:35.439Z</time>
      </trkpt>
      <trkpt lat="46.99711" lon="8.6471">
        <ele>531</ele>
        <time>2021-08-05T09:22:36.439Z</time>
      </trkpt>
      <trkpt lat="46.9971" lon="8.64711">
        <ele>532</ele>
        <time>2021-08-05T09:22:37.439Z</time>
      </trkpt>
      <trkpt lat="46.9971" lon="8.64712">
        <ele>532</ele>
        <time>2021-08-05T09:22:38.439Z</time>
      </trkpt>
      <trkpt lat="46.99709" lon="8.64712">
        <ele>532</ele>
        <time>2021-08-05T09:22:39.439Z</time>
      </trkpt>
      <trkpt lat="46.99708" lon="8.64713">
        <ele>532</ele>
        <time>2021-08-05T09:22:40.439Z</time>
      </trkpt>
      <trkpt lat="46.99707" lon="8.64714">
        <ele>532</ele>
        <time>2021-08-05T09:22:41.439Z</time>
      </trkpt>
      <trkpt lat="46.99706" lon="8.64714">
        <ele>532</ele>
        <time>2021-08-05T09:22:42.439Z</time>
      </trkpt>
      <trkpt lat="46.99705" lon="8.64714">
        <ele>532</ele>
        <time>2021-08-05T09:22:43.439Z</time>
      </trkpt>
      <trkpt lat="46.99704" lon="8.64714">
        <ele>532</ele>
        <time>2021-08-05T09:22:44.439Z</time>
      </trkpt>
      <trkpt lat="46.99703" lon="8.64715">
        <ele>532</ele>
        <time>2021-08-05T09:22:45.439Z</time>
      </trkpt>
      <trkpt lat="46.99703" lon="8.64716">
        <ele>533</ele>
        <time>2021-08-05T09:22:46.439Z</time>
      </trkpt>
      <trkpt lat="46.99702" lon="8.64717">
        <ele>533</ele>
        <time>2021-08-05T09:22:47.439Z</time>
      </trkpt>
      <trkpt lat="46.99701" lon="8.64717">
        <ele>533</ele>
        <time>2021-08-05T09:22:48.439Z</time>
      </trkpt>
      <trkpt lat="46.99701" lon="8.64718">
        <ele>534</ele>
        <time>2021-08-05T09:22:49.439Z</time>
      </trkpt>
      <trkpt lat="46.997" lon="8.64719">
        <ele>534</ele>
        <time>2021-08-05T09:22:50.439Z</time>
      </trkpt>
      <trkpt lat="46.997" lon="8.64721">
        <ele>534</ele>
        <time>2021-08-05T09:22:51.439Z</time>
      </trkpt>
      <trkpt lat="46.99699" lon="8.64722">
        <ele>534</ele>
        <time>2021-08-05T09:22:52.439Z</time>
      </trkpt>
      <trkpt lat="46.99699" lon="8.64723">
        <ele>535</ele>
        <time>2021-08-05T09:22:53.439Z</time>
      </trkpt>
      <trkpt lat="46.99698" lon="8.64724">
        <ele>535</ele>
        <time>2021-08-05T09:22:54.439Z</time>
      </trkpt>
      <trkpt lat="46.99697" lon="8.64725">
        <ele>535</ele>
        <time>2021-08-05T09:22:55.439Z</time>
      </trkpt>
      <trkpt lat="46.99696" lon="8.64726">
        <ele>535</ele>
        <time>2021-08-05T09:22:56.439Z</time>
      </trkpt>
      <trkpt lat="46.99695" lon="8.64727">
        <ele>535</ele>
        <time>2021-08-05T09:22:57.439Z</time>
      </trkpt>
      <trkpt lat="46.99695" lon="8.64728">
        <ele>536</ele>
        <time>2021-08-05T09:22:58.439Z</time>
      </trkpt>
      <trkpt lat="46.99695" lon="8.64728">
        <ele>536</ele>
        <time>2021-08-05T09:22:59.439Z</time>
      </trkpt>
      <trkpt lat="46.99694" lon="8.64729">
        <ele>537</ele>
        <time>2021-08-05T09:23:00.439Z</time>
      </trkpt>
      <trkpt lat="46.99694" lon="8.6473">
        <ele>537</ele>
        <time>2021-08-05T09:23:01.439Z</time>
      </trkpt>
      <trkpt lat="46.99693" lon="8.6473">
        <ele>538</ele>
        <time>2021-08-05T09:23:02.439Z</time>
      </trkpt>
      <trkpt lat="46.99693" lon="8.64732">
        <ele>538</ele>
        <time>2021-08-05T09:23:03.439Z</time>
      </trkpt>
      <trkpt lat="46.99692" lon="8.64734">
        <ele>538</ele>
        <time>2021-08-05T09:23:04.439Z</time>
      </trkpt>
      <trkpt lat="46.99691" lon="8.64735">
        <ele>539</ele>
        <time>2021-08-05T09:23:05.439Z</time>
      </trkpt>
      <trkpt lat="46.99689" lon="8.64735">
        <ele>539</ele>
        <time>2021-08-05T09:23:06.439Z</time>
      </trkpt>
      <trkpt lat="46.99688" lon="8.64736">
        <ele>539</ele>
        <time>2021-08-05T09:23:07.439Z</time>
      </trkpt>
      <trkpt lat="46.99687" lon="8.64737">
        <ele>539</ele>
        <time>2021-08-05T09:23:08.439Z</time>
      </trkpt>
      <trkpt lat="46.99686" lon="8.64737">
        <ele>539</ele>
        <time>2021-08-05T09:23:09.439Z</time>
      </trkpt>
      <trkpt lat="46.99685" lon="8.64738">
        <ele>539</ele>
        <time>2021-08-05T09:23:10.439Z</time>
      </trkpt>
      <trkpt lat="46.99685" lon="8.64738">
        <ele>539</ele>
        <time>2021-08-05T09:23:11.439Z</time>
      </trkpt>
      <trkpt lat="46.99684" lon="8.64738">
        <ele>539</ele>
        <time>2021-08-05T09:23:12.439Z</time>
      </trkpt>
      <trkpt lat="46.99683" lon="8.64739">
        <ele>538</ele>
        <time>2021-08-05T09:23:13.439Z</time>
      </trkpt>
      <trkpt lat="46.99682" lon="8.64739">
        <ele>538</ele>
        <time>2021-08-05T09:23:14.439Z</time>
      </trkpt>
      <trkpt lat="46.9968" lon="8.6474">
        <ele>538</ele>
        <time>2021-08-05T09:23:15.439Z</time>
      </trkpt>
      <trkpt lat="46.99679" lon="8.64741">
        <ele>538</ele>
        <time>2021-08-05T09:23:16.439Z</time>
      </trkpt>
      <trkpt lat="46.99678" lon="8.64741">
        <ele>537</ele>
        <time>2021-08-05T09:23:17.439Z</time>
      </trkpt>
      <trkpt lat="46.99677" lon="8.64741">
        <ele>537</ele>
        <time>2021-08-05T09:23:18.439Z</time>
      </trkpt>
      <trkpt lat="46.99677" lon="8.64741">
        <ele>537</ele>
        <time>2021-08-05T09:23:19.439Z</time>
      </trkpt>
      <trkpt lat="46.99675" lon="8.64741">
        <ele>537</ele>
        <time>2021-08-05T09:23:20.439Z</time>
      </trkpt>
      <trkpt lat="46.99674" lon="8.64741">
        <ele>537</ele>
        <time>2021-08-05T09:23:21.439Z</time>
      </trkpt>
      <trkpt lat="46.99673" lon="8.64741">
        <ele>536</ele>
        <time>2021-08-05T09:23:22.439Z</time>
      </trkpt>
      <trkpt lat="46.99672" lon="8.6474">
        <ele>536</ele>
        <time>2021-08-05T09:23:23.439Z</time>
      </trkpt>
      <trkpt lat="46.9967" lon="8.6474">
        <ele>536</ele>
        <time>2021-08-05T09:23:24.439Z</time>
      </trkpt>
      <trkpt lat="46.99669" lon="8.64739">
        <ele>535</ele>
        <time>2021-08-05T09:23:25.439Z</time>
      </trkpt>
      <trkpt lat="46.99668" lon="8.64739">
        <ele>535</ele>
        <time>2021-08-05T09:23:26.439Z</time>
      </trkpt>
      <trkpt lat="46.99667" lon="8.64738">
        <ele>535</ele>
        <time>2021-08-05T09:23:27.439Z</time>
      </trkpt>
      <trkpt lat="46.99666" lon="8.64737">
        <ele>535</ele>
        <time>2021-08-05T09:23:28.439Z</time>
      </trkpt>
      <trkpt lat="46.99665" lon="8.64736">
        <ele>535</ele>
        <time>2021-08-05T09:23:29.439Z</time>
      </trkpt>
      <trkpt lat="46.99664" lon="8.64735">
        <ele>536</ele>
        <time>2021-08-05T09:23:30.439Z</time>
      </trkpt>
      <trkpt lat="46.99662" lon="8.64734">
        <ele>536</ele>
        <time>2021-08-05T09:23:31.439Z</time>
      </trkpt>
      <trkpt lat="46.99661" lon="8.64734">
        <ele>537</ele>
        <time>2021-08-05T09:23:32.439Z</time>
      </trkpt>
      <trkpt lat="46.9966" lon="8.64734">
        <ele>537</ele>
        <time>2021-08-05T09:23:33.439Z</time>
      </trkpt>
      <trkpt lat="46.9966" lon="8.64734">
        <ele>537</ele>
        <time>2021-08-05T09:23:34.439Z</time>
      </trkpt>
      <trkpt lat="46.99659" lon="8.64734">
        <ele>538</ele>
        <time>2021-08-05T09:23:35.439Z</time>
      </trkpt>
      <trkpt lat="46.99657" lon="8.64733">
        <ele>538</ele>
        <time>2021-08-05T09:23:36.439Z</time>
      </trkpt>
      <trkpt lat="46.99656" lon="8.64732">
        <ele>539</ele>
        <time>2021-08-05T09:23:37.439Z</time>
      </trkpt>
      <trkpt lat="46.99655" lon="8.64732">
        <ele>539</ele>
        <time>2021-08-05T09:23:38.439Z</time>
      </trkpt>
      <trkpt lat="46.99654" lon="8.64731">
        <ele>539</ele>
        <time>2021-08-05T09:23:39.439Z</time>
      </trkpt>
      <trkpt lat="46.99653" lon="8.6473">
        <ele>540</ele>
        <time>2021-08-05T09:23:40.439Z</time>
      </trkpt>
      <trkpt lat="46.99652" lon="8.64729">
        <ele>540</ele>
        <time>2021-08-05T09:23:41.439Z</time>
      </trkpt>
      <trkpt lat="46.99652" lon="8.64728">
        <ele>540</ele>
        <time>2021-08-05T09:23:42.439Z</time>
      </trkpt>
      <trkpt lat="46.99651" lon="8.64727">
        <ele>540</ele>
        <time>2021-08-05T09:23:43.439Z</time>
      </trkpt>
      <trkpt lat="46.99651" lon="8.64726">
        <ele>541</ele>
        <time>2021-08-05T09:23:44.439Z</time>
      </trkpt>
      <trkpt lat="46.99649" lon="8.64725">
        <ele>541</ele>
        <time>2021-08-05T09:23:45.439Z</time>
      </trkpt>
      <trkpt lat="46.99648" lon="8.64724">
        <ele>541</ele>
        <time>2021-08-05T09:23:46.439Z</time>
      </trkpt>
      <trkpt lat="46.99647" lon="8.64723">
        <ele>542</ele>
        <time>2021-08-05T09:23:47.439Z</time>
      </trkpt>
      <trkpt lat="46.99646" lon="8.64723">
        <ele>542</ele>
        <time>2021-08-05T09:23:48.439Z</time>
      </trkpt>
      <trkpt lat="46.99645" lon="8.64723">
        <ele>542</ele>
        <time>2021-08-05T09:23:49.439Z</time>
      </trkpt>
      <trkpt lat="46.99644" lon="8.64723">
        <ele>542</ele>
        <time>2021-08-05T09:23:50.439Z</time>
      </trkpt>
      <trkpt lat="46.99643" lon="8.64722">
        <ele>542</ele>
        <time>2021-08-05T09:23:51.439Z</time>
      </trkpt>
      <trkpt lat="46.99641" lon="8.64722">
        <ele>542</ele>
        <time>2021-08-05T09:23:52.439Z</time>
      </trkpt>
      <trkpt lat="46.99641" lon="8.64721">
        <ele>541</ele>
        <time>2021-08-05T09:23:53.439Z</time>
      </trkpt>
      <trkpt lat="46.9964" lon="8.6472">
        <ele>541</ele>
        <time>2021-08-05T09:23:54.439Z</time>
      </trkpt>
      <trkpt lat="46.99639" lon="8.6472">
        <ele>541</ele>
        <time>2021-08-05T09:23:55.439Z</time>
      </trkpt>
      <trkpt lat="46.99639" lon="8.6472">
        <ele>541</ele>
        <time>2021-08-05T09:23:56.439Z</time>
      </trkpt>
      <trkpt lat="46.99639" lon="8.64719">
        <ele>540</ele>
        <time>2021-08-05T09:23:57.439Z</time>
      </trkpt>
      <trkpt lat="46.99638" lon="8.64717">
        <ele>540</ele>
        <time>2021-08-05T09:23:58.439Z</time>
      </trkpt>
      <trkpt lat="46.99637" lon="8.64716">
        <ele>540</ele>
        <time>2021-08-05T09:23:59.439Z</time>
      </trkpt>
      <trkpt lat="46.99636" lon="8.64716">
        <ele>539</ele>
        <time>2021-08-05T09:24:00.439Z</time>
      </trkpt>
      <trkpt lat="46.99635" lon="8.64715">
        <ele>539</ele>
        <time>2021-08-05T09:24:01.439Z</time>
      </trkpt>
      <trkpt lat="46.99634" lon="8.64715">
        <ele>539</ele>
        <time>2021-08-05T09:24:02.439Z</time>
      </trkpt>
      <trkpt lat="46.99634" lon="8.64714">
        <ele>539</ele>
        <time>2021-08-05T09:24:03.439Z</time>
      </trkpt>
      <trkpt lat="46.99633" lon="8.64713">
        <ele>539</ele>
        <time>2021-08-05T09:24:04.439Z</time>
      </trkpt>
      <trkpt lat="46.99632" lon="8.64712">
        <ele>539</ele>
        <time>2021-08-05T09:24:05.439Z</time>
      </trkpt>
      <trkpt lat="46.99631" lon="8.64711">
        <ele>539</ele>
        <time>2021-08-05T09:24:06.439Z</time>
      </trkpt>
      <trkpt lat="46.99631" lon="8.64711">
        <ele>539</ele>
        <time>2021-08-05T09:24:07.439Z</time>
      </trkpt>
      <trkpt lat="46.9963" lon="8.6471">
        <ele>538</ele>
        <time>2021-08-05T09:24:08.439Z</time>
      </trkpt>
      <trkpt lat="46.9963" lon="8.64709">
        <ele>538</ele>
        <time>2021-08-05T09:24:09.439Z</time>
      </trkpt>
      <trkpt lat="46.99629" lon="8.64708">
        <ele>538</ele>
        <time>2021-08-05T09:24:10.439Z</time>
      </trkpt>
      <trkpt lat="46.99628" lon="8.64707">
        <ele>538</ele>
        <time>2021-08-05T09:24:11.439Z</time>
      </trkpt>
      <trkpt lat="46.99627" lon="8.64706">
        <ele>538</ele>
        <time>2021-08-05T09:24:12.439Z</time>
      </trkpt>
      <trkpt lat="46.99626" lon="8.64705">
        <ele>538</ele>
        <time>2021-08-05T09:24:13.439Z</time>
      </trkpt>
      <trkpt lat="46.99626" lon="8.64704">
        <ele>538</ele>
        <time>2021-08-05T09:24:14.439Z</time>
      </trkpt>
      <trkpt lat="46.99625" lon="8.64703">
        <ele>539</ele>
        <time>2021-08-05T09:24:15.439Z</time>
      </trkpt>
      <trkpt lat="46.99624" lon="8.64702">
        <ele>539</ele>
        <time>2021-08-05T09:24:16.439Z</time>
      </trkpt>
      <trkpt lat="46.99623" lon="8.64702">
        <ele>539</ele>
        <time>2021-08-05T09:24:17.439Z</time>
      </trkpt>
      <trkpt lat="46.99621" lon="8.64701">
        <ele>539</ele>
        <time>2021-08-05T09:24:18.439Z</time>
      </trkpt>
      <trkpt lat="46.9962" lon="8.647">
        <ele>539</ele>
        <time>2021-08-05T09:24:19.439Z</time>
      </trkpt>
      <trkpt lat="46.9962" lon="8.64699">
        <ele>539</ele>
        <time>2021-08-05T09:24:20.439Z</time>
      </trkpt>
      <trkpt lat="46.99619" lon="8.64699">
        <ele>539</ele>
        <time>2021-08-05T09:24:21.439Z</time>
      </trkpt>
      <trkpt lat="46.99618" lon="8.64698">
        <ele>539</ele>
        <time>2021-08-05T09:24:22.439Z</time>
      </trkpt>
      <trkpt lat="46.99617" lon="8.64697">
        <ele>539</ele>
        <time>2021-08-05T09:24:23.439Z</time>
      </trkpt>
      <trkpt lat="46.99616" lon="8.64697">
        <ele>539</ele>
        <time>2021-08-05T09:24:24.439Z</time>
      </trkpt>
      <trkpt lat="46.99615" lon="8.64696">
        <ele>539</ele>
        <time>2021-08-05T09:24:25.439Z</time>
      </trkpt>
      <trkpt lat="46.99614" lon="8.64696">
        <ele>540</ele>
        <time>2021-08-05T09:24:26.439Z</time>
      </trkpt>
      <trkpt lat="46.99613" lon="8.64696">
        <ele>540</ele>
        <time>2021-08-05T09:24:27.439Z</time>
      </trkpt>
      <trkpt lat="46.99611" lon="8.64696">
        <ele>540</ele>
        <time>2021-08-05T09:24:28.439Z</time>
      </trkpt>
      <trkpt lat="46.9961" lon="8.64696">
        <ele>541</ele>
        <time>2021-08-05T09:24:29.439Z</time>
      </trkpt>
      <trkpt lat="46.99609" lon="8.64697">
        <ele>541</ele>
        <time>2021-08-05T09:24:30.439Z</time>
      </trkpt>
      <trkpt lat="46.99609" lon="8.64697">
        <ele>541</ele>
        <time>2021-08-05T09:24:31.439Z</time>
      </trkpt>
      <trkpt lat="46.99608" lon="8.64698">
        <ele>541</ele>
        <time>2021-08-05T09:24:32.439Z</time>
      </trkpt>
      <trkpt lat="46.99607" lon="8.64698">
        <ele>541</ele>
        <time>2021-08-05T09:24:33.439Z</time>
      </trkpt>
      <trkpt lat="46.99606" lon="8.64699">
        <ele>541</ele>
        <time>2021-08-05T09:24:34.439Z</time>
      </trkpt>
      <trkpt lat="46.99605" lon="8.64699">
        <ele>541</ele>
        <time>2021-08-05T09:24:35.439Z</time>
      </trkpt>
      <trkpt lat="46.99604" lon="8.647">
        <ele>542</ele>
        <time>2021-08-05T09:24:36.439Z</time>
      </trkpt>
      <trkpt lat="46.99603" lon="8.647">
        <ele>542</ele>
        <time>2021-08-05T09:24:37.439Z</time>
      </trkpt>
      <trkpt lat="46.99603" lon="8.64701">
        <ele>542</ele>
        <time>2021-08-05T09:24:38.439Z</time>
      </trkpt>
      <trkpt lat="46.99602" lon="8.64702">
        <ele>542</ele>
        <time>2021-08-05T09:24:39.439Z</time>
      </trkpt>
      <trkpt lat="46.99601" lon="8.64703">
        <ele>542</ele>
        <time>2021-08-05T09:24:40.439Z</time>
      </trkpt>
      <trkpt lat="46.996" lon="8.64703">
        <ele>542</ele>
        <time>2021-08-05T09:24:41.439Z</time>
      </trkpt>
      <trkpt lat="46.99599" lon="8.64704">
        <ele>542</ele>
        <time>2021-08-05T09:24:42.439Z</time>
      </trkpt>
      <trkpt lat="46.99599" lon="8.64705">
        <ele>542</ele>
        <time>2021-08-05T09:24:43.439Z</time>
      </trkpt>
      <trkpt lat="46.99598" lon="8.64706">
        <ele>542</ele>
        <time>2021-08-05T09:24:44.439Z</time>
      </trkpt>
      <trkpt lat="46.99597" lon="8.64707">
        <ele>542</ele>
        <time>2021-08-05T09:24:45.439Z</time>
      </trkpt>
      <trkpt lat="46.99597" lon="8.64708">
        <ele>542</ele>
        <time>2021-08-05T09:24:46.439Z</time>
      </trkpt>
      <trkpt lat="46.99596" lon="8.64709">
        <ele>543</ele>
        <time>2021-08-05T09:24:47.439Z</time>
      </trkpt>
      <trkpt lat="46.99596" lon="8.6471">
        <ele>543</ele>
        <time>2021-08-05T09:24:48.439Z</time>
      </trkpt>
      <trkpt lat="46.99595" lon="8.64711">
        <ele>543</ele>
        <time>2021-08-05T09:24:49.439Z</time>
      </trkpt>
      <trkpt lat="46.99594" lon="8.64713">
        <ele>543</ele>
        <time>2021-08-05T09:24:50.439Z</time>
      </trkpt>
      <trkpt lat="46.99593" lon="8.64714">
        <ele>543</ele>
        <time>2021-08-05T09:24:51.439Z</time>
      </trkpt>
      <trkpt lat="46.99593" lon="8.64715">
        <ele>542</ele>
        <time>2021-08-05T09:24:52.439Z</time>
      </trkpt>
      <trkpt lat="46.99592" lon="8.64717">
        <ele>542</ele>
        <time>2021-08-05T09:24:53.439Z</time>
      </trkpt>
      <trkpt lat="46.99592" lon="8.64718">
        <ele>542</ele>
        <time>2021-08-05T09:24:54.439Z</time>
      </trkpt>
      <trkpt lat="46.99591" lon="8.64719">
        <ele>542</ele>
        <time>2021-08-05T09:24:55.439Z</time>
      </trkpt>
      <trkpt lat="46.9959" lon="8.6472">
        <ele>542</ele>
        <time>2021-08-05T09:24:56.439Z</time>
      </trkpt>
      <trkpt lat="46.9959" lon="8.64721">
        <ele>542</ele>
        <time>2021-08-05T09:24:57.439Z</time>
      </trkpt>
      <trkpt lat="46.99589" lon="8.64722">
        <ele>542</ele>
        <time>2021-08-05T09:24:58.439Z</time>
      </trkpt>
      <trkpt lat="46.99588" lon="8.64723">
        <ele>542</ele>
        <time>2021-08-05T09:24:59.439Z</time>
      </trkpt>
      <trkpt lat="46.99587" lon="8.64723">
        <ele>542</ele>
        <time>2021-08-05T09:25:00.439Z</time>
      </trkpt>
      <trkpt lat="46.99585" lon="8.64724">
        <ele>542</ele>
        <time>2021-08-05T09:25:01.439Z</time>
      </trkpt>
      <trkpt lat="46.99584" lon="8.64724">
        <ele>542</ele>
        <time>2021-08-05T09:25:02.439Z</time>
      </trkpt>
      <trkpt lat="46.99583" lon="8.64725">
        <ele>543</ele>
        <time>2021-08-05T09:25:03.439Z</time>
      </trkpt>
      <trkpt lat="46.99582" lon="8.64725">
        <ele>544</ele>
        <time>2021-08-05T09:25:04.439Z</time>
      </trkpt>
      <trkpt lat="46.99581" lon="8.64725">
        <ele>544</ele>
        <time>2021-08-05T09:25:05.439Z</time>
      </trkpt>
      <trkpt lat="46.99579" lon="8.64725">
        <ele>545</ele>
        <time>2021-08-05T09:25:06.439Z</time>
      </trkpt>
      <trkpt lat="46.99578" lon="8.64725">
        <ele>545</ele>
        <time>2021-08-05T09:25:07.439Z</time>
      </trkpt>
      <trkpt lat="46.99576" lon="8.64725">
        <ele>545</ele>
        <time>2021-08-05T09:25:08.439Z</time>
      </trkpt>
      <trkpt lat="46.99575" lon="8.64725">
        <ele>545</ele>
        <time>2021-08-05T09:25:09.439Z</time>
      </trkpt>
      <trkpt lat="46.99573" lon="8.64726">
        <ele>545</ele>
        <time>2021-08-05T09:25:10.439Z</time>
      </trkpt>
      <trkpt lat="46.99573" lon="8.64726">
        <ele>545</ele>
        <time>2021-08-05T09:25:11.439Z</time>
      </trkpt>
      <trkpt lat="46.99572" lon="8.64726">
        <ele>545</ele>
        <time>2021-08-05T09:25:12.439Z</time>
      </trkpt>
      <trkpt lat="46.99571" lon="8.64727">
        <ele>545</ele>
        <time>2021-08-05T09:25:13.439Z</time>
      </trkpt>
      <trkpt lat="46.9957" lon="8.64727">
        <ele>545</ele>
        <time>2021-08-05T09:25:14.439Z</time>
      </trkpt>
      <trkpt lat="46.99568" lon="8.64728">
        <ele>545</ele>
        <time>2021-08-05T09:25:15.439Z</time>
      </trkpt>
      <trkpt lat="46.99567" lon="8.64728">
        <ele>545</ele>
        <time>2021-08-05T09:25:16.439Z</time>
      </trkpt>
      <trkpt lat="46.99566" lon="8.64727">
        <ele>545</ele>
        <time>2021-08-05T09:25:17.439Z</time>
      </trkpt>
      <trkpt lat="46.99565" lon="8.64727">
        <ele>545</ele>
        <time>2021-08-05T09:25:18.439Z</time>
      </trkpt>
      <trkpt lat="46.99563" lon="8.64727">
        <ele>544</ele>
        <time>2021-08-05T09:25:19.439Z</time>
      </trkpt>
      <trkpt lat="46.99562" lon="8.64728">
        <ele>544</ele>
        <time>2021-08-05T09:25:20.439Z</time>
      </trkpt>
      <trkpt lat="46.9956" lon="8.64729">
        <ele>544</ele>
        <time>2021-08-05T09:25:21.439Z</time>
      </trkpt>
      <trkpt lat="46.99559" lon="8.6473">
        <ele>544</ele>
        <time>2021-08-05T09:25:22.439Z</time>
      </trkpt>
      <trkpt lat="46.99558" lon="8.6473">
        <ele>544</ele>
        <time>2021-08-05T09:25:23.439Z</time>
      </trkpt>
      <trkpt lat="46.99557" lon="8.6473">
        <ele>544</ele>
        <time>2021-08-05T09:25:24.439Z</time>
      </trkpt>
      <trkpt lat="46.99557" lon="8.6473">
        <ele>544</ele>
        <time>2021-08-05T09:25:25.439Z</time>
      </trkpt>
      <trkpt lat="46.99556" lon="8.6473">
        <ele>544</ele>
        <time>2021-08-05T09:25:26.439Z</time>
      </trkpt>
      <trkpt lat="46.99556" lon="8.6473">
        <ele>544</ele>
        <time>2021-08-05T09:25:27.439Z</time>
      </trkpt>
      <trkpt lat="46.99555" lon="8.6473">
        <ele>545</ele>
        <time>2021-08-05T09:25:28.439Z</time>
      </trkpt>
      <trkpt lat="46.99553" lon="8.64729">
        <ele>545</ele>
        <time>2021-08-05T09:25:29.439Z</time>
      </trkpt>
      <trkpt lat="46.99552" lon="8.64729">
        <ele>545</ele>
        <time>2021-08-05T09:25:30.439Z</time>
      </trkpt>
      <trkpt lat="46.9955" lon="8.6473">
        <ele>545</ele>
        <time>2021-08-05T09:25:31.439Z</time>
      </trkpt>
      <trkpt lat="46.99549" lon="8.6473">
        <ele>545</ele>
        <time>2021-08-05T09:25:32.439Z</time>
      </trkpt>
      <trkpt lat="46.99547" lon="8.64731">
        <ele>546</ele>
        <time>2021-08-05T09:25:33.439Z</time>
      </trkpt>
      <trkpt lat="46.99545" lon="8.64732">
        <ele>546</ele>
        <time>2021-08-05T09:25:34.439Z</time>
      </trkpt>
      <trkpt lat="46.99542" lon="8.64734">
        <ele>546</ele>
        <time>2021-08-05T09:25:35.439Z</time>
      </trkpt>
      <trkpt lat="46.9954" lon="8.64735">
        <ele>546</ele>
        <time>2021-08-05T09:25:36.439Z</time>
      </trkpt>
      <trkpt lat="46.99538" lon="8.64735">
        <ele>546</ele>
        <time>2021-08-05T09:25:37.439Z</time>
      </trkpt>
      <trkpt lat="46.99537" lon="8.64735">
        <ele>546</ele>
        <time>2021-08-05T09:25:38.439Z</time>
      </trkpt>
      <trkpt lat="46.99535" lon="8.64735">
        <ele>546</ele>
        <time>2021-08-05T09:25:39.439Z</time>
      </trkpt>
      <trkpt lat="46.99535" lon="8.64734">
        <ele>546</ele>
        <time>2021-08-05T09:25:40.439Z</time>
      </trkpt>
      <trkpt lat="46.99534" lon="8.64733">
        <ele>547</ele>
        <time>2021-08-05T09:25:41.439Z</time>
      </trkpt>
      <trkpt lat="46.99533" lon="8.64733">
        <ele>547</ele>
        <time>2021-08-05T09:25:42.439Z</time>
      </trkpt>
      <trkpt lat="46.99532" lon="8.64734">
        <ele>547</ele>
        <time>2021-08-05T09:25:43.439Z</time>
      </trkpt>
      <trkpt lat="46.99531" lon="8.64734">
        <ele>547</ele>
        <time>2021-08-05T09:25:44.439Z</time>
      </trkpt>
      <trkpt lat="46.9953" lon="8.64735">
        <ele>547</ele>
        <time>2021-08-05T09:25:45.439Z</time>
      </trkpt>
      <trkpt lat="46.99529" lon="8.64735">
        <ele>547</ele>
        <time>2021-08-05T09:25:46.439Z</time>
      </trkpt>
      <trkpt lat="46.99528" lon="8.64736">
        <ele>547</ele>
        <time>2021-08-05T09:25:47.439Z</time>
      </trkpt>
      <trkpt lat="46.99527" lon="8.64737">
        <ele>547</ele>
        <time>2021-08-05T09:25:48.439Z</time>
      </trkpt>
      <trkpt lat="46.99526" lon="8.64737">
        <ele>547</ele>
        <time>2021-08-05T09:25:49.439Z</time>
      </trkpt>
      <trkpt lat="46.99526" lon="8.64737">
        <ele>547</ele>
        <time>2021-08-05T09:25:50.439Z</time>
      </trkpt>
      <trkpt lat="46.99525" lon="8.64737">
        <ele>547</ele>
        <time>2021-08-05T09:25:51.439Z</time>
      </trkpt>
      <trkpt lat="46.99524" lon="8.64738">
        <ele>547</ele>
        <time>2021-08-05T09:25:52.439Z</time>
      </trkpt>
      <trkpt lat="46.99524" lon="8.64738">
        <ele>547</ele>
        <time>2021-08-05T09:25:53.439Z</time>
      </trkpt>
      <trkpt lat="46.99523" lon="8.64739">
        <ele>547</ele>
        <time>2021-08-05T09:25:54.439Z</time>
      </trkpt>
      <trkpt lat="46.99522" lon="8.64739">
        <ele>547</ele>
        <time>2021-08-05T09:25:55.439Z</time>
      </trkpt>
      <trkpt lat="46.99521" lon="8.6474">
        <ele>547</ele>
        <time>2021-08-05T09:25:56.439Z</time>
      </trkpt>
      <trkpt lat="46.99521" lon="8.64741">
        <ele>547</ele>
        <time>2021-08-05T09:25:57.439Z</time>
      </trkpt>
      <trkpt lat="46.9952" lon="8.64742">
        <ele>547</ele>
        <time>2021-08-05T09:25:58.439Z</time>
      </trkpt>
      <trkpt lat="46.99519" lon="8.64743">
        <ele>547</ele>
        <time>2021-08-05T09:25:59.439Z</time>
      </trkpt>
      <trkpt lat="46.99518" lon="8.64745">
        <ele>547</ele>
        <time>2021-08-05T09:26:00.439Z</time>
      </trkpt>
      <trkpt lat="46.99517" lon="8.64746">
        <ele>547</ele>
        <time>2021-08-05T09:26:01.439Z</time>
      </trkpt>
      <trkpt lat="46.99517" lon="8.64747">
        <ele>546</ele>
        <time>2021-08-05T09:26:02.439Z</time>
      </trkpt>
      <trkpt lat="46.99516" lon="8.64747">
        <ele>546</ele>
        <time>2021-08-05T09:26:03.439Z</time>
      </trkpt>
      <trkpt lat="46.99515" lon="8.64747">
        <ele>546</ele>
        <time>2021-08-05T09:26:04.439Z</time>
      </trkpt>
      <trkpt lat="46.99515" lon="8.64746">
        <ele>546</ele>
        <time>2021-08-05T09:26:05.439Z</time>
      </trkpt>
      <trkpt lat="46.99514" lon="8.64747">
        <ele>546</ele>
        <time>2021-08-05T09:26:06.439Z</time>
      </trkpt>
      <trkpt lat="46.99514" lon="8.64747">
        <ele>545</ele>
        <time>2021-08-05T09:26:07.439Z</time>
      </trkpt>
      <trkpt lat="46.99513" lon="8.64746">
        <ele>545</ele>
        <time>2021-08-05T09:26:08.439Z</time>
      </trkpt>
      <trkpt lat="46.99512" lon="8.64747">
        <ele>545</ele>
        <time>2021-08-05T09:26:09.439Z</time>
      </trkpt>
      <trkpt lat="46.99511" lon="8.64747">
        <ele>545</ele>
        <time>2021-08-05T09:26:10.439Z</time>
      </trkpt>
      <trkpt lat="46.9951" lon="8.64748">
        <ele>545</ele>
        <time>2021-08-05T09:26:11.439Z</time>
      </trkpt>
      <trkpt lat="46.99508" lon="8.64748">
        <ele>545</ele>
        <time>2021-08-05T09:26:12.439Z</time>
      </trkpt>
      <trkpt lat="46.99506" lon="8.64748">
        <ele>545</ele>
        <time>2021-08-05T09:26:13.439Z</time>
      </trkpt>
      <trkpt lat="46.99506" lon="8.6475">
        <ele>545</ele>
        <time>2021-08-05T09:26:14.439Z</time>
      </trkpt>
      <trkpt lat="46.99507" lon="8.64751">
        <ele>545</ele>
        <time>2021-08-05T09:26:15.439Z</time>
      </trkpt>
      <trkpt lat="46.99506" lon="8.64753">
        <ele>545</ele>
        <time>2021-08-05T09:26:16.439Z</time>
      </trkpt>
      <trkpt lat="46.99505" lon="8.64756">
        <ele>545</ele>
        <time>2021-08-05T09:26:17.439Z</time>
      </trkpt>
      <trkpt lat="46.99503" lon="8.64758">
        <ele>545</ele>
        <time>2021-08-05T09:26:18.439Z</time>
      </trkpt>
      <trkpt lat="46.99503" lon="8.6476">
        <ele>545</ele>
        <time>2021-08-05T09:26:19.439Z</time>
      </trkpt>
      <trkpt lat="46.99503" lon="8.64762">
        <ele>545</ele>
        <time>2021-08-05T09:26:20.439Z</time>
      </trkpt>
      <trkpt lat="46.99501" lon="8.64764">
        <ele>545</ele>
        <time>2021-08-05T09:26:21.439Z</time>
      </trkpt>
      <trkpt lat="46.995" lon="8.64766">
        <ele>545</ele>
        <time>2021-08-05T09:26:22.439Z</time>
      </trkpt>
      <trkpt lat="46.99499" lon="8.64766">
        <ele>545</ele>
        <time>2021-08-05T09:26:23.439Z</time>
      </trkpt>
      <trkpt lat="46.99498" lon="8.64767">
        <ele>545</ele>
        <time>2021-08-05T09:26:24.439Z</time>
      </trkpt>
      <trkpt lat="46.99497" lon="8.64767">
        <ele>545</ele>
        <time>2021-08-05T09:26:25.439Z</time>
      </trkpt>
      <trkpt lat="46.99496" lon="8.64766">
        <ele>546</ele>
        <time>2021-08-05T09:26:26.439Z</time>
      </trkpt>
      <trkpt lat="46.99495" lon="8.64767">
        <ele>546</ele>
        <time>2021-08-05T09:26:27.439Z</time>
      </trkpt>
      <trkpt lat="46.99494" lon="8.64767">
        <ele>546</ele>
        <time>2021-08-05T09:26:28.439Z</time>
      </trkpt>
      <trkpt lat="46.99493" lon="8.64767">
        <ele>546</ele>
        <time>2021-08-05T09:26:29.439Z</time>
      </trkpt>
      <trkpt lat="46.99491" lon="8.64768">
        <ele>546</ele>
        <time>2021-08-05T09:26:30.439Z</time>
      </trkpt>
      <trkpt lat="46.9949" lon="8.64768">
        <ele>546</ele>
        <time>2021-08-05T09:26:31.439Z</time>
      </trkpt>
      <trkpt lat="46.99489" lon="8.64767">
        <ele>546</ele>
        <time>2021-08-05T09:26:32.439Z</time>
      </trkpt>
      <trkpt lat="46.99488" lon="8.64766">
        <ele>546</ele>
        <time>2021-08-05T09:26:33.439Z</time>
      </trkpt>
      <trkpt lat="46.99487" lon="8.64766">
        <ele>546</ele>
        <time>2021-08-05T09:26:34.439Z</time>
      </trkpt>
      <trkpt lat="46.99487" lon="8.64765">
        <ele>545</ele>
        <time>2021-08-05T09:26:35.439Z</time>
      </trkpt>
      <trkpt lat="46.99486" lon="8.64765">
        <ele>545</ele>
        <time>2021-08-05T09:26:36.439Z</time>
      </trkpt>
      <trkpt lat="46.99485" lon="8.64765">
        <ele>545</ele>
        <time>2021-08-05T09:26:37.439Z</time>
      </trkpt>
      <trkpt lat="46.99484" lon="8.64765">
        <ele>545</ele>
        <time>2021-08-05T09:26:38.439Z</time>
      </trkpt>
      <trkpt lat="46.99483" lon="8.64765">
        <ele>545</ele>
        <time>2021-08-05T09:26:39.439Z</time>
      </trkpt>
      <trkpt lat="46.99482" lon="8.64765">
        <ele>545</ele>
        <time>2021-08-05T09:26:40.439Z</time>
      </trkpt>
      <trkpt lat="46.9948" lon="8.64766">
        <ele>545</ele>
        <time>2021-08-05T09:26:41.439Z</time>
      </trkpt>
      <trkpt lat="46.99479" lon="8.64766">
        <ele>545</ele>
        <time>2021-08-05T09:26:42.439Z</time>
      </trkpt>
      <trkpt lat="46.99477" lon="8.64766">
        <ele>545</ele>
        <time>2021-08-05T09:26:43.439Z</time>
      </trkpt>
      <trkpt lat="46.99475" lon="8.64766">
        <ele>545</ele>
        <time>2021-08-05T09:26:44.439Z</time>
      </trkpt>
      <trkpt lat="46.99474" lon="8.64766">
        <ele>545</ele>
        <time>2021-08-05T09:26:45.439Z</time>
      </trkpt>
      <trkpt lat="46.99473" lon="8.64766">
        <ele>546</ele>
        <time>2021-08-05T09:26:46.439Z</time>
      </trkpt>
      <trkpt lat="46.99472" lon="8.64767">
        <ele>546</ele>
        <time>2021-08-05T09:26:47.439Z</time>
      </trkpt>
      <trkpt lat="46.99471" lon="8.64768">
        <ele>546</ele>
        <time>2021-08-05T09:26:48.439Z</time>
      </trkpt>
      <trkpt lat="46.9947" lon="8.64769">
        <ele>547</ele>
        <time>2021-08-05T09:26:49.439Z</time>
      </trkpt>
      <trkpt lat="46.9947" lon="8.6477">
        <ele>547</ele>
        <time>2021-08-05T09:26:50.439Z</time>
      </trkpt>
      <trkpt lat="46.9947" lon="8.6477">
        <ele>548</ele>
        <time>2021-08-05T09:26:51.439Z</time>
      </trkpt>
      <trkpt lat="46.99468" lon="8.64772">
        <ele>548</ele>
        <time>2021-08-05T09:26:52.439Z</time>
      </trkpt>
      <trkpt lat="46.99467" lon="8.64773">
        <ele>548</ele>
        <time>2021-08-05T09:26:53.439Z</time>
      </trkpt>
      <trkpt lat="46.99465" lon="8.64774">
        <ele>548</ele>
        <time>2021-08-05T09:26:54.439Z</time>
      </trkpt>
      <trkpt lat="46.99463" lon="8.64775">
        <ele>549</ele>
        <time>2021-08-05T09:26:55.439Z</time>
      </trkpt>
      <trkpt lat="46.99462" lon="8.64777">
        <ele>549</ele>
        <time>2021-08-05T09:26:56.439Z</time>
      </trkpt>
      <trkpt lat="46.99461" lon="8.64778">
        <ele>549</ele>
        <time>2021-08-05T09:26:57.439Z</time>
      </trkpt>
      <trkpt lat="46.99459" lon="8.64778">
        <ele>549</ele>
        <time>2021-08-05T09:26:58.439Z</time>
      </trkpt>
      <trkpt lat="46.99457" lon="8.64779">
        <ele>550</ele>
        <time>2021-08-05T09:26:59.439Z</time>
      </trkpt>
      <trkpt lat="46.99456" lon="8.64779">
        <ele>550</ele>
        <time>2021-08-05T09:27:00.439Z</time>
      </trkpt>
      <trkpt lat="46.99455" lon="8.6478">
        <ele>550</ele>
        <time>2021-08-05T09:27:01.439Z</time>
      </trkpt>
      <trkpt lat="46.99454" lon="8.64781">
        <ele>551</ele>
        <time>2021-08-05T09:27:02.439Z</time>
      </trkpt>
      <trkpt lat="46.99453" lon="8.64782">
        <ele>551</ele>
        <time>2021-08-05T09:27:03.439Z</time>
      </trkpt>
      <trkpt lat="46.99452" lon="8.64782">
        <ele>551</ele>
        <time>2021-08-05T09:27:04.439Z</time>
      </trkpt>
      <trkpt lat="46.99451" lon="8.64783">
        <ele>551</ele>
        <time>2021-08-05T09:27:05.439Z</time>
      </trkpt>
      <trkpt lat="46.99449" lon="8.64784">
        <ele>551</ele>
        <time>2021-08-05T09:27:06.439Z</time>
      </trkpt>
      <trkpt lat="46.99448" lon="8.64785">
        <ele>551</ele>
        <time>2021-08-05T09:27:07.439Z</time>
      </trkpt>
      <trkpt lat="46.99446" lon="8.64786">
        <ele>551</ele>
        <time>2021-08-05T09:27:08.439Z</time>
      </trkpt>
      <trkpt lat="46.99444" lon="8.64787">
        <ele>551</ele>
        <time>2021-08-05T09:27:09.439Z</time>
      </trkpt>
      <trkpt lat="46.99443" lon="8.64788">
        <ele>551</ele>
        <time>2021-08-05T09:27:10.439Z</time>
      </trkpt>
      <trkpt lat="46.99442" lon="8.64789">
        <ele>551</ele>
        <time>2021-08-05T09:27:11.439Z</time>
      </trkpt>
      <trkpt lat="46.99442" lon="8.64789">
        <ele>552</ele>
        <time>2021-08-05T09:27:12.439Z</time>
      </trkpt>
      <trkpt lat="46.9944" lon="8.6479">
        <ele>552</ele>
        <time>2021-08-05T09:27:13.439Z</time>
      </trkpt>
      <trkpt lat="46.99439" lon="8.64791">
        <ele>552</ele>
        <time>2021-08-05T09:27:14.439Z</time>
      </trkpt>
      <trkpt lat="46.99438" lon="8.64791">
        <ele>552</ele>
        <time>2021-08-05T09:27:15.439Z</time>
      </trkpt>
      <trkpt lat="46.99437" lon="8.64792">
        <ele>552</ele>
        <time>2021-08-05T09:27:16.439Z</time>
      </trkpt>
      <trkpt lat="46.99436" lon="8.64792">
        <ele>553</ele>
        <time>2021-08-05T09:27:17.439Z</time>
      </trkpt>
      <trkpt lat="46.99435" lon="8.64793">
        <ele>553</ele>
        <time>2021-08-05T09:27:18.439Z</time>
      </trkpt>
      <trkpt lat="46.99434" lon="8.64794">
        <ele>554</ele>
        <time>2021-08-05T09:27:19.439Z</time>
      </trkpt>
      <trkpt lat="46.99434" lon="8.64794">
        <ele>555</ele>
        <time>2021-08-05T09:27:20.439Z</time>
      </trkpt>
      <trkpt lat="46.99434" lon="8.64795">
        <ele>556</ele>
        <time>2021-08-05T09:27:21.439Z</time>
      </trkpt>
      <trkpt lat="46.99433" lon="8.64797">
        <ele>557</ele>
        <time>2021-08-05T09:27:22.439Z</time>
      </trkpt>
      <trkpt lat="46.99432" lon="8.64797">
        <ele>557</ele>
        <time>2021-08-05T09:27:23.439Z</time>
      </trkpt>
      <trkpt lat="46.99432" lon="8.64798">
        <ele>558</ele>
        <time>2021-08-05T09:27:24.439Z</time>
      </trkpt>
      <trkpt lat="46.99432" lon="8.64799">
        <ele>558</ele>
        <time>2021-08-05T09:27:25.439Z</time>
      </trkpt>
      <trkpt lat="46.99432" lon="8.64798">
        <ele>558</ele>
        <time>2021-08-05T09:27:26.439Z</time>
      </trkpt>
      <trkpt lat="46.99431" lon="8.64798">
        <ele>558</ele>
        <time>2021-08-05T09:27:27.439Z</time>
      </trkpt>
      <trkpt lat="46.99431" lon="8.64796">
        <ele>558</ele>
        <time>2021-08-05T09:27:28.439Z</time>
      </trkpt>
      <trkpt lat="46.99431" lon="8.64796">
        <ele>558</ele>
        <time>2021-08-05T09:27:29.439Z</time>
      </trkpt>
      <trkpt lat="46.9943" lon="8.64798">
        <ele>558</ele>
        <time>2021-08-05T09:27:30.439Z</time>
      </trkpt>
      <trkpt lat="46.99429" lon="8.64799">
        <ele>557</ele>
        <time>2021-08-05T09:27:31.439Z</time>
      </trkpt>
      <trkpt lat="46.99428" lon="8.648">
        <ele>557</ele>
        <time>2021-08-05T09:27:32.439Z</time>
      </trkpt>
      <trkpt lat="46.99427" lon="8.64801">
        <ele>557</ele>
        <time>2021-08-05T09:27:33.439Z</time>
      </trkpt>
      <trkpt lat="46.99426" lon="8.64802">
        <ele>557</ele>
        <time>2021-08-05T09:27:34.439Z</time>
      </trkpt>
      <trkpt lat="46.99425" lon="8.64803">
        <ele>557</ele>
        <time>2021-08-05T09:27:35.439Z</time>
      </trkpt>
      <trkpt lat="46.99424" lon="8.64805">
        <ele>557</ele>
        <time>2021-08-05T09:27:36.439Z</time>
      </trkpt>
      <trkpt lat="46.99423" lon="8.64806">
        <ele>557</ele>
        <time>2021-08-05T09:27:37.439Z</time>
      </trkpt>
      <trkpt lat="46.99422" lon="8.64807">
        <ele>557</ele>
        <time>2021-08-05T09:27:38.439Z</time>
      </trkpt>
      <trkpt lat="46.99421" lon="8.64809">
        <ele>557</ele>
        <time>2021-08-05T09:27:39.439Z</time>
      </trkpt>
      <trkpt lat="46.99421" lon="8.6481">
        <ele>557</ele>
        <time>2021-08-05T09:27:40.439Z</time>
      </trkpt>
      <trkpt lat="46.9942" lon="8.64811">
        <ele>558</ele>
        <time>2021-08-05T09:27:41.439Z</time>
      </trkpt>
      <trkpt lat="46.99419" lon="8.64812">
        <ele>558</ele>
        <time>2021-08-05T09:27:42.439Z</time>
      </trkpt>
      <trkpt lat="46.99419" lon="8.64813">
        <ele>558</ele>
        <time>2021-08-05T09:27:43.439Z</time>
      </trkpt>
      <trkpt lat="46.99418" lon="8.64814">
        <ele>558</ele>
        <time>2021-08-05T09:27:44.439Z</time>
      </trkpt>
      <trkpt lat="46.99417" lon="8.64816">
        <ele>559</ele>
        <time>2021-08-05T09:27:45.439Z</time>
      </trkpt>
      <trkpt lat="46.99416" lon="8.64818">
        <ele>559</ele>
        <time>2021-08-05T09:27:46.439Z</time>
      </trkpt>
      <trkpt lat="46.99415" lon="8.64818">
        <ele>559</ele>
        <time>2021-08-05T09:27:47.439Z</time>
      </trkpt>
      <trkpt lat="46.99414" lon="8.64819">
        <ele>559</ele>
        <time>2021-08-05T09:27:48.439Z</time>
      </trkpt>
      <trkpt lat="46.99413" lon="8.64821">
        <ele>559</ele>
        <time>2021-08-05T09:27:49.439Z</time>
      </trkpt>
      <trkpt lat="46.99412" lon="8.64822">
        <ele>559</ele>
        <time>2021-08-05T09:27:50.439Z</time>
      </trkpt>
      <trkpt lat="46.99411" lon="8.64823">
        <ele>559</ele>
        <time>2021-08-05T09:27:51.439Z</time>
      </trkpt>
      <trkpt lat="46.9941" lon="8.64824">
        <ele>559</ele>
        <time>2021-08-05T09:27:52.439Z</time>
      </trkpt>
      <trkpt lat="46.99409" lon="8.64825">
        <ele>559</ele>
        <time>2021-08-05T09:27:53.439Z</time>
      </trkpt>
      <trkpt lat="46.99408" lon="8.64825">
        <ele>559</ele>
        <time>2021-08-05T09:27:54.439Z</time>
      </trkpt>
      <trkpt lat="46.99407" lon="8.64826">
        <ele>559</ele>
        <time>2021-08-05T09:27:55.439Z</time>
      </trkpt>
      <trkpt lat="46.99406" lon="8.64827">
        <ele>559</ele>
        <time>2021-08-05T09:27:56.439Z</time>
      </trkpt>
      <trkpt lat="46.99405" lon="8.64828">
        <ele>559</ele>
        <time>2021-08-05T09:27:57.439Z</time>
      </trkpt>
      <trkpt lat="46.99404" lon="8.64829">
        <ele>559</ele>
        <time>2021-08-05T09:27:58.439Z</time>
      </trkpt>
      <trkpt lat="46.99403" lon="8.6483">
        <ele>559</ele>
        <time>2021-08-05T09:27:59.439Z</time>
      </trkpt>
      <trkpt lat="46.99402" lon="8.6483">
        <ele>559</ele>
        <time>2021-08-05T09:28:00.439Z</time>
      </trkpt>
      <trkpt lat="46.99401" lon="8.64831">
        <ele>559</ele>
        <time>2021-08-05T09:28:01.439Z</time>
      </trkpt>
      <trkpt lat="46.994" lon="8.64831">
        <ele>558</ele>
        <time>2021-08-05T09:28:02.439Z</time>
      </trkpt>
      <trkpt lat="46.99399" lon="8.64831">
        <ele>558</ele>
        <time>2021-08-05T09:28:03.439Z</time>
      </trkpt>
      <trkpt lat="46.99398" lon="8.64832">
        <ele>558</ele>
        <time>2021-08-05T09:28:04.439Z</time>
      </trkpt>
      <trkpt lat="46.99397" lon="8.64832">
        <ele>557</ele>
        <time>2021-08-05T09:28:05.439Z</time>
      </trkpt>
      <trkpt lat="46.99395" lon="8.64833">
        <ele>557</ele>
        <time>2021-08-05T09:28:06.439Z</time>
      </trkpt>
      <trkpt lat="46.99394" lon="8.64833">
        <ele>557</ele>
        <time>2021-08-05T09:28:07.439Z</time>
      </trkpt>
      <trkpt lat="46.99394" lon="8.64833">
        <ele>557</ele>
        <time>2021-08-05T09:28:08.439Z</time>
      </trkpt>
      <trkpt lat="46.99393" lon="8.64834">
        <ele>557</ele>
        <time>2021-08-05T09:28:09.439Z</time>
      </trkpt>
      <trkpt lat="46.99392" lon="8.64834">
        <ele>557</ele>
        <time>2021-08-05T09:28:10.439Z</time>
      </trkpt>
      <trkpt lat="46.99391" lon="8.64835">
        <ele>557</ele>
        <time>2021-08-05T09:28:11.439Z</time>
      </trkpt>
      <trkpt lat="46.9939" lon="8.64835">
        <ele>557</ele>
        <time>2021-08-05T09:28:12.439Z</time>
      </trkpt>
      <trkpt lat="46.99389" lon="8.64835">
        <ele>557</ele>
        <time>2021-08-05T09:28:13.439Z</time>
      </trkpt>
      <trkpt lat="46.99388" lon="8.64836">
        <ele>557</ele>
        <time>2021-08-05T09:28:14.439Z</time>
      </trkpt>
      <trkpt lat="46.99386" lon="8.64837">
        <ele>557</ele>
        <time>2021-08-05T09:28:15.439Z</time>
      </trkpt>
      <trkpt lat="46.99386" lon="8.64838">
        <ele>557</ele>
        <time>2021-08-05T09:28:16.439Z</time>
      </trkpt>
      <trkpt lat="46.99385" lon="8.64839">
        <ele>557</ele>
        <time>2021-08-05T09:28:17.439Z</time>
      </trkpt>
      <trkpt lat="46.99384" lon="8.6484">
        <ele>557</ele>
        <time>2021-08-05T09:28:18.439Z</time>
      </trkpt>
      <trkpt lat="46.99382" lon="8.6484">
        <ele>557</ele>
        <time>2021-08-05T09:28:19.439Z</time>
      </trkpt>
      <trkpt lat="46.99381" lon="8.64841">
        <ele>557</ele>
        <time>2021-08-05T09:28:20.439Z</time>
      </trkpt>
      <trkpt lat="46.9938" lon="8.64841">
        <ele>557</ele>
        <time>2021-08-05T09:28:21.439Z</time>
      </trkpt>
      <trkpt lat="46.99379" lon="8.64842">
        <ele>557</ele>
        <time>2021-08-05T09:28:22.439Z</time>
      </trkpt>
      <trkpt lat="46.99378" lon="8.64842">
        <ele>557</ele>
        <time>2021-08-05T09:28:23.439Z</time>
      </trkpt>
      <trkpt lat="46.99376" lon="8.64843">
        <ele>556</ele>
        <time>2021-08-05T09:28:24.439Z</time>
      </trkpt>
      <trkpt lat="46.99375" lon="8.64843">
        <ele>556</ele>
        <time>2021-08-05T09:28:25.439Z</time>
      </trkpt>
      <trkpt lat="46.99374" lon="8.64843">
        <ele>556</ele>
        <time>2021-08-05T09:28:26.439Z</time>
      </trkpt>
      <trkpt lat="46.99372" lon="8.64843">
        <ele>556</ele>
        <time>2021-08-05T09:28:27.439Z</time>
      </trkpt>
      <trkpt lat="46.99371" lon="8.64842">
        <ele>556</ele>
        <time>2021-08-05T09:28:28.439Z</time>
      </trkpt>
      <trkpt lat="46.9937" lon="8.64842">
        <ele>556</ele>
        <time>2021-08-05T09:28:29.439Z</time>
      </trkpt>
      <trkpt lat="46.99369" lon="8.64842">
        <ele>557</ele>
        <time>2021-08-05T09:28:30.439Z</time>
      </trkpt>
      <trkpt lat="46.99367" lon="8.64842">
        <ele>557</ele>
        <time>2021-08-05T09:28:31.439Z</time>
      </trkpt>
      <trkpt lat="46.99366" lon="8.64842">
        <ele>558</ele>
        <time>2021-08-05T09:28:32.439Z</time>
      </trkpt>
      <trkpt lat="46.99365" lon="8.64842">
        <ele>558</ele>
        <time>2021-08-05T09:28:33.439Z</time>
      </trkpt>
      <trkpt lat="46.99364" lon="8.64842">
        <ele>558</ele>
        <time>2021-08-05T09:28:34.439Z</time>
      </trkpt>
      <trkpt lat="46.99362" lon="8.64841">
        <ele>559</ele>
        <time>2021-08-05T09:28:35.439Z</time>
      </trkpt>
      <trkpt lat="46.99361" lon="8.64841">
        <ele>559</ele>
        <time>2021-08-05T09:28:36.439Z</time>
      </trkpt>
      <trkpt lat="46.9936" lon="8.64841">
        <ele>559</ele>
        <time>2021-08-05T09:28:37.439Z</time>
      </trkpt>
      <trkpt lat="46.99359" lon="8.6484">
        <ele>560</ele>
        <time>2021-08-05T09:28:38.439Z</time>
      </trkpt>
      <trkpt lat="46.99357" lon="8.6484">
        <ele>560</ele>
        <time>2021-08-05T09:28:39.439Z</time>
      </trkpt>
      <trkpt lat="46.99356" lon="8.6484">
        <ele>560</ele>
        <time>2021-08-05T09:28:40.439Z</time>
      </trkpt>
      <trkpt lat="46.99355" lon="8.64841">
        <ele>560</ele>
        <time>2021-08-05T09:28:41.439Z</time>
      </trkpt>
      <trkpt lat="46.99355" lon="8.64841">
        <ele>561</ele>
        <time>2021-08-05T09:28:42.439Z</time>
      </trkpt>
      <trkpt lat="46.99353" lon="8.64842">
        <ele>562</ele>
        <time>2021-08-05T09:28:43.439Z</time>
      </trkpt>
      <trkpt lat="46.99353" lon="8.64842">
        <ele>562</ele>
        <time>2021-08-05T09:28:44.439Z</time>
      </trkpt>
      <trkpt lat="46.99352" lon="8.64842">
        <ele>563</ele>
        <time>2021-08-05T09:28:45.439Z</time>
      </trkpt>
      <trkpt lat="46.99351" lon="8.64843">
        <ele>564</ele>
        <time>2021-08-05T09:28:46.439Z</time>
      </trkpt>
      <trkpt lat="46.9935" lon="8.64844">
        <ele>565</ele>
        <time>2021-08-05T09:28:47.439Z</time>
      </trkpt>
      <trkpt lat="46.99348" lon="8.64844">
        <ele>565</ele>
        <time>2021-08-05T09:28:48.439Z</time>
      </trkpt>
      <trkpt lat="46.99347" lon="8.64844">
        <ele>566</ele>
        <time>2021-08-05T09:28:49.439Z</time>
      </trkpt>
      <trkpt lat="46.99346" lon="8.64845">
        <ele>566</ele>
        <time>2021-08-05T09:28:50.439Z</time>
      </trkpt>
      <trkpt lat="46.99344" lon="8.64846">
        <ele>567</ele>
        <time>2021-08-05T09:28:51.439Z</time>
      </trkpt>
      <trkpt lat="46.99343" lon="8.64846">
        <ele>567</ele>
        <time>2021-08-05T09:28:52.439Z</time>
      </trkpt>
      <trkpt lat="46.99342" lon="8.64847">
        <ele>568</ele>
        <time>2021-08-05T09:28:53.439Z</time>
      </trkpt>
      <trkpt lat="46.99341" lon="8.64847">
        <ele>568</ele>
        <time>2021-08-05T09:28:54.439Z</time>
      </trkpt>
      <trkpt lat="46.99341" lon="8.64848">
        <ele>569</ele>
        <time>2021-08-05T09:28:55.439Z</time>
      </trkpt>
      <trkpt lat="46.9934" lon="8.64848">
        <ele>569</ele>
        <time>2021-08-05T09:28:56.439Z</time>
      </trkpt>
      <trkpt lat="46.99339" lon="8.64849">
        <ele>570</ele>
        <time>2021-08-05T09:28:57.439Z</time>
      </trkpt>
      <trkpt lat="46.99338" lon="8.64849">
        <ele>570</ele>
        <time>2021-08-05T09:28:58.439Z</time>
      </trkpt>
      <trkpt lat="46.99337" lon="8.6485">
        <ele>570</ele>
        <time>2021-08-05T09:28:59.439Z</time>
      </trkpt>
      <trkpt lat="46.99336" lon="8.6485">
        <ele>571</ele>
        <time>2021-08-05T09:29:00.439Z</time>
      </trkpt>
      <trkpt lat="46.99334" lon="8.64851">
        <ele>571</ele>
        <time>2021-08-05T09:29:01.439Z</time>
      </trkpt>
      <trkpt lat="46.99333" lon="8.64851">
        <ele>571</ele>
        <time>2021-08-05T09:29:02.439Z</time>
      </trkpt>
      <trkpt lat="46.99332" lon="8.64851">
        <ele>571</ele>
        <time>2021-08-05T09:29:03.439Z</time>
      </trkpt>
      <trkpt lat="46.9933" lon="8.64851">
        <ele>571</ele>
        <time>2021-08-05T09:29:04.439Z</time>
      </trkpt>
      <trkpt lat="46.99329" lon="8.64852">
        <ele>572</ele>
        <time>2021-08-05T09:29:05.439Z</time>
      </trkpt>
      <trkpt lat="46.99328" lon="8.64853">
        <ele>573</ele>
        <time>2021-08-05T09:29:06.439Z</time>
      </trkpt>
      <trkpt lat="46.99328" lon="8.64854">
        <ele>573</ele>
        <time>2021-08-05T09:29:07.439Z</time>
      </trkpt>
      <trkpt lat="46.99327" lon="8.64855">
        <ele>574</ele>
        <time>2021-08-05T09:29:08.439Z</time>
      </trkpt>
      <trkpt lat="46.99326" lon="8.64857">
        <ele>575</ele>
        <time>2021-08-05T09:29:09.439Z</time>
      </trkpt>
      <trkpt lat="46.99325" lon="8.64859">
        <ele>575</ele>
        <time>2021-08-05T09:29:10.439Z</time>
      </trkpt>
      <trkpt lat="46.99324" lon="8.6486">
        <ele>575</ele>
        <time>2021-08-05T09:29:11.439Z</time>
      </trkpt>
      <trkpt lat="46.99323" lon="8.64861">
        <ele>575</ele>
        <time>2021-08-05T09:29:12.439Z</time>
      </trkpt>
      <trkpt lat="46.99322" lon="8.64863">
        <ele>575</ele>
        <time>2021-08-05T09:29:13.439Z</time>
      </trkpt>
      <trkpt lat="46.99321" lon="8.64865">
        <ele>575</ele>
        <time>2021-08-05T09:29:14.439Z</time>
      </trkpt>
      <trkpt lat="46.99321" lon="8.64866">
        <ele>575</ele>
        <time>2021-08-05T09:29:15.439Z</time>
      </trkpt>
      <trkpt lat="46.9932" lon="8.64868">
        <ele>575</ele>
        <time>2021-08-05T09:29:16.439Z</time>
      </trkpt>
      <trkpt lat="46.99319" lon="8.6487">
        <ele>575</ele>
        <time>2021-08-05T09:29:17.439Z</time>
      </trkpt>
      <trkpt lat="46.99318" lon="8.64872">
        <ele>575</ele>
        <time>2021-08-05T09:29:18.439Z</time>
      </trkpt>
      <trkpt lat="46.99317" lon="8.64874">
        <ele>575</ele>
        <time>2021-08-05T09:29:19.439Z</time>
      </trkpt>
      <trkpt lat="46.99316" lon="8.64875">
        <ele>576</ele>
        <time>2021-08-05T09:29:20.439Z</time>
      </trkpt>
      <trkpt lat="46.99314" lon="8.64876">
        <ele>576</ele>
        <time>2021-08-05T09:29:21.439Z</time>
      </trkpt>
      <trkpt lat="46.99313" lon="8.64878">
        <ele>576</ele>
        <time>2021-08-05T09:29:22.439Z</time>
      </trkpt>
      <trkpt lat="46.99312" lon="8.64879">
        <ele>576</ele>
        <time>2021-08-05T09:29:23.439Z</time>
      </trkpt>
      <trkpt lat="46.99311" lon="8.6488">
        <ele>576</ele>
        <time>2021-08-05T09:29:24.439Z</time>
      </trkpt>
      <trkpt lat="46.9931" lon="8.64881">
        <ele>576</ele>
        <time>2021-08-05T09:29:25.439Z</time>
      </trkpt>
      <trkpt lat="46.99309" lon="8.64882">
        <ele>576</ele>
        <time>2021-08-05T09:29:26.439Z</time>
      </trkpt>
      <trkpt lat="46.99308" lon="8.64882">
        <ele>576</ele>
        <time>2021-08-05T09:29:27.439Z</time>
      </trkpt>
      <trkpt lat="46.99307" lon="8.64883">
        <ele>576</ele>
        <time>2021-08-05T09:29:28.439Z</time>
      </trkpt>
      <trkpt lat="46.99306" lon="8.64883">
        <ele>575</ele>
        <time>2021-08-05T09:29:29.439Z</time>
      </trkpt>
      <trkpt lat="46.99304" lon="8.64884">
        <ele>575</ele>
        <time>2021-08-05T09:29:30.439Z</time>
      </trkpt>
      <trkpt lat="46.99303" lon="8.64884">
        <ele>574</ele>
        <time>2021-08-05T09:29:31.439Z</time>
      </trkpt>
      <trkpt lat="46.99301" lon="8.64883">
        <ele>573</ele>
        <time>2021-08-05T09:29:32.439Z</time>
      </trkpt>
      <trkpt lat="46.993" lon="8.64883">
        <ele>573</ele>
        <time>2021-08-05T09:29:33.439Z</time>
      </trkpt>
      <trkpt lat="46.99299" lon="8.64883">
        <ele>572</ele>
        <time>2021-08-05T09:29:34.439Z</time>
      </trkpt>
      <trkpt lat="46.99298" lon="8.64883">
        <ele>571</ele>
        <time>2021-08-05T09:29:35.439Z</time>
      </trkpt>
      <trkpt lat="46.99297" lon="8.64884">
        <ele>571</ele>
        <time>2021-08-05T09:29:36.439Z</time>
      </trkpt>
      <trkpt lat="46.99296" lon="8.64885">
        <ele>570</ele>
        <time>2021-08-05T09:29:37.439Z</time>
      </trkpt>
      <trkpt lat="46.99295" lon="8.64885">
        <ele>569</ele>
        <time>2021-08-05T09:29:38.439Z</time>
      </trkpt>
      <trkpt lat="46.99293" lon="8.64886">
        <ele>569</ele>
        <time>2021-08-05T09:29:39.439Z</time>
      </trkpt>
      <trkpt lat="46.99292" lon="8.64885">
        <ele>568</ele>
        <time>2021-08-05T09:29:40.439Z</time>
      </trkpt>
      <trkpt lat="46.99291" lon="8.64885">
        <ele>568</ele>
        <time>2021-08-05T09:29:41.439Z</time>
      </trkpt>
      <trkpt lat="46.99289" lon="8.64884">
        <ele>568</ele>
        <time>2021-08-05T09:29:42.439Z</time>
      </trkpt>
      <trkpt lat="46.99287" lon="8.64884">
        <ele>568</ele>
        <time>2021-08-05T09:29:43.439Z</time>
      </trkpt>
      <trkpt lat="46.99286" lon="8.64884">
        <ele>567</ele>
        <time>2021-08-05T09:29:44.439Z</time>
      </trkpt>
      <trkpt lat="46.99284" lon="8.64884">
        <ele>567</ele>
        <time>2021-08-05T09:29:45.439Z</time>
      </trkpt>
      <trkpt lat="46.99283" lon="8.64884">
        <ele>567</ele>
        <time>2021-08-05T09:29:46.439Z</time>
      </trkpt>
      <trkpt lat="46.99281" lon="8.64884">
        <ele>567</ele>
        <time>2021-08-05T09:29:47.439Z</time>
      </trkpt>
      <trkpt lat="46.9928" lon="8.64885">
        <ele>567</ele>
        <time>2021-08-05T09:29:48.439Z</time>
      </trkpt>
      <trkpt lat="46.99279" lon="8.64885">
        <ele>567</ele>
        <time>2021-08-05T09:29:49.439Z</time>
      </trkpt>
      <trkpt lat="46.99277" lon="8.64885">
        <ele>568</ele>
        <time>2021-08-05T09:29:50.439Z</time>
      </trkpt>
      <trkpt lat="46.99276" lon="8.64885">
        <ele>568</ele>
        <time>2021-08-05T09:29:51.439Z</time>
      </trkpt>
      <trkpt lat="46.99275" lon="8.64885">
        <ele>568</ele>
        <time>2021-08-05T09:29:52.439Z</time>
      </trkpt>
      <trkpt lat="46.99274" lon="8.64885">
        <ele>568</ele>
        <time>2021-08-05T09:29:53.439Z</time>
      </trkpt>
      <trkpt lat="46.99272" lon="8.64886">
        <ele>568</ele>
        <time>2021-08-05T09:29:54.439Z</time>
      </trkpt>
      <trkpt lat="46.99271" lon="8.64887">
        <ele>568</ele>
        <time>2021-08-05T09:29:55.439Z</time>
      </trkpt>
      <trkpt lat="46.9927" lon="8.64887">
        <ele>568</ele>
        <time>2021-08-05T09:29:56.439Z</time>
      </trkpt>
      <trkpt lat="46.99269" lon="8.64888">
        <ele>567</ele>
        <time>2021-08-05T09:29:57.439Z</time>
      </trkpt>
      <trkpt lat="46.99268" lon="8.64889">
        <ele>567</ele>
        <time>2021-08-05T09:29:58.439Z</time>
      </trkpt>
      <trkpt lat="46.99267" lon="8.64889">
        <ele>567</ele>
        <time>2021-08-05T09:29:59.439Z</time>
      </trkpt>
      <trkpt lat="46.99267" lon="8.64888">
        <ele>567</ele>
        <time>2021-08-05T09:30:00.439Z</time>
      </trkpt>
      <trkpt lat="46.99266" lon="8.64889">
        <ele>567</ele>
        <time>2021-08-05T09:30:01.439Z</time>
      </trkpt>
      <trkpt lat="46.99265" lon="8.64891">
        <ele>567</ele>
        <time>2021-08-05T09:30:02.439Z</time>
      </trkpt>
      <trkpt lat="46.99265" lon="8.64892">
        <ele>567</ele>
        <time>2021-08-05T09:30:03.439Z</time>
      </trkpt>
      <trkpt lat="46.99265" lon="8.64892">
        <ele>568</ele>
        <time>2021-08-05T09:30:04.439Z</time>
      </trkpt>
      <trkpt lat="46.99264" lon="8.64893">
        <ele>569</ele>
        <time>2021-08-05T09:30:05.439Z</time>
      </trkpt>
      <trkpt lat="46.99263" lon="8.64894">
        <ele>568</ele>
        <time>2021-08-05T09:30:06.439Z</time>
      </trkpt>
      <trkpt lat="46.99262" lon="8.64894">
        <ele>568</ele>
        <time>2021-08-05T09:30:07.440Z</time>
      </trkpt>
      <trkpt lat="46.99261" lon="8.64895">
        <ele>568</ele>
        <time>2021-08-05T09:30:08.439Z</time>
      </trkpt>
      <trkpt lat="46.9926" lon="8.64896">
        <ele>568</ele>
        <time>2021-08-05T09:30:09.440Z</time>
      </trkpt>
      <trkpt lat="46.99259" lon="8.64896">
        <ele>568</ele>
        <time>2021-08-05T09:30:10.439Z</time>
      </trkpt>
      <trkpt lat="46.99259" lon="8.64897">
        <ele>568</ele>
        <time>2021-08-05T09:30:11.439Z</time>
      </trkpt>
      <trkpt lat="46.99258" lon="8.64899">
        <ele>568</ele>
        <time>2021-08-05T09:30:12.440Z</time>
      </trkpt>
      <trkpt lat="46.99258" lon="8.649">
        <ele>568</ele>
        <time>2021-08-05T09:30:13.440Z</time>
      </trkpt>
      <trkpt lat="46.99258" lon="8.64902">
        <ele>568</ele>
        <time>2021-08-05T09:30:14.439Z</time>
      </trkpt>
      <trkpt lat="46.99257" lon="8.64903">
        <ele>567</ele>
        <time>2021-08-05T09:30:15.439Z</time>
      </trkpt>
      <trkpt lat="46.99257" lon="8.64904">
        <ele>567</ele>
        <time>2021-08-05T09:30:16.439Z</time>
      </trkpt>
      <trkpt lat="46.99256" lon="8.64905">
        <ele>567</ele>
        <time>2021-08-05T09:30:17.440Z</time>
      </trkpt>
      <trkpt lat="46.99257" lon="8.64906">
        <ele>566</ele>
        <time>2021-08-05T09:30:18.439Z</time>
      </trkpt>
      <trkpt lat="46.99257" lon="8.64907">
        <ele>566</ele>
        <time>2021-08-05T09:30:19.440Z</time>
      </trkpt>
      <trkpt lat="46.99258" lon="8.64908">
        <ele>566</ele>
        <time>2021-08-05T09:30:20.439Z</time>
      </trkpt>
      <trkpt lat="46.99258" lon="8.6491">
        <ele>566</ele>
        <time>2021-08-05T09:30:21.439Z</time>
      </trkpt>
      <trkpt lat="46.99257" lon="8.64912">
        <ele>566</ele>
        <time>2021-08-05T09:30:22.440Z</time>
      </trkpt>
      <trkpt lat="46.99257" lon="8.64913">
        <ele>565</ele>
        <time>2021-08-05T09:30:23.440Z</time>
      </trkpt>
      <trkpt lat="46.99257" lon="8.64915">
        <ele>565</ele>
        <time>2021-08-05T09:30:24.440Z</time>
      </trkpt>
      <trkpt lat="46.99257" lon="8.64916">
        <ele>565</ele>
        <time>2021-08-05T09:30:25.439Z</time>
      </trkpt>
      <trkpt lat="46.99258" lon="8.64918">
        <ele>564</ele>
        <time>2021-08-05T09:30:26.439Z</time>
      </trkpt>
      <trkpt lat="46.99258" lon="8.6492">
        <ele>564</ele>
        <time>2021-08-05T09:30:27.440Z</time>
      </trkpt>
      <trkpt lat="46.99257" lon="8.64921">
        <ele>564</ele>
        <time>2021-08-05T09:30:28.439Z</time>
      </trkpt>
      <trkpt lat="46.99257" lon="8.64922">
        <ele>564</ele>
        <time>2021-08-05T09:30:29.440Z</time>
      </trkpt>
      <trkpt lat="46.99256" lon="8.64924">
        <ele>564</ele>
        <time>2021-08-05T09:30:30.440Z</time>
      </trkpt>
      <trkpt lat="46.99256" lon="8.64925">
        <ele>564</ele>
        <time>2021-08-05T09:30:31.440Z</time>
      </trkpt>
      <trkpt lat="46.99256" lon="8.64926">
        <ele>564</ele>
        <time>2021-08-05T09:30:32.440Z</time>
      </trkpt>
      <trkpt lat="46.99256" lon="8.64929">
        <ele>564</ele>
        <time>2021-08-05T09:30:33.440Z</time>
      </trkpt>
      <trkpt lat="46.99257" lon="8.64931">
        <ele>564</ele>
        <time>2021-08-05T09:30:34.439Z</time>
      </trkpt>
      <trkpt lat="46.99256" lon="8.64933">
        <ele>564</ele>
        <time>2021-08-05T09:30:35.440Z</time>
      </trkpt>
      <trkpt lat="46.99256" lon="8.64935">
        <ele>564</ele>
        <time>2021-08-05T09:30:36.439Z</time>
      </trkpt>
      <trkpt lat="46.99257" lon="8.64936">
        <ele>565</ele>
        <time>2021-08-05T09:30:37.439Z</time>
      </trkpt>
      <trkpt lat="46.99257" lon="8.64937">
        <ele>566</ele>
        <time>2021-08-05T09:30:38.439Z</time>
      </trkpt>
      <trkpt lat="46.99257" lon="8.64939">
        <ele>566</ele>
        <time>2021-08-05T09:30:39.439Z</time>
      </trkpt>
      <trkpt lat="46.99256" lon="8.6494">
        <ele>567</ele>
        <time>2021-08-05T09:30:40.440Z</time>
      </trkpt>
      <trkpt lat="46.99257" lon="8.64942">
        <ele>568</ele>
        <time>2021-08-05T09:30:41.439Z</time>
      </trkpt>
      <trkpt lat="46.99256" lon="8.64943">
        <ele>569</ele>
        <time>2021-08-05T09:30:42.439Z</time>
      </trkpt>
      <trkpt lat="46.99256" lon="8.64945">
        <ele>569</ele>
        <time>2021-08-05T09:30:43.439Z</time>
      </trkpt>
      <trkpt lat="46.99256" lon="8.64946">
        <ele>569</ele>
        <time>2021-08-05T09:30:44.439Z</time>
      </trkpt>
      <trkpt lat="46.99256" lon="8.64947">
        <ele>570</ele>
        <time>2021-08-05T09:30:45.440Z</time>
      </trkpt>
      <trkpt lat="46.99256" lon="8.64949">
        <ele>570</ele>
        <time>2021-08-05T09:30:46.439Z</time>
      </trkpt>
      <trkpt lat="46.99256" lon="8.6495">
        <ele>571</ele>
        <time>2021-08-05T09:30:47.439Z</time>
      </trkpt>
      <trkpt lat="46.99257" lon="8.64952">
        <ele>571</ele>
        <time>2021-08-05T09:30:48.440Z</time>
      </trkpt>
      <trkpt lat="46.99256" lon="8.64953">
        <ele>571</ele>
        <time>2021-08-05T09:30:49.440Z</time>
      </trkpt>
      <trkpt lat="46.99256" lon="8.64954">
        <ele>571</ele>
        <time>2021-08-05T09:30:50.439Z</time>
      </trkpt>
      <trkpt lat="46.99256" lon="8.64955">
        <ele>571</ele>
        <time>2021-08-05T09:30:51.440Z</time>
      </trkpt>
      <trkpt lat="46.99256" lon="8.64956">
        <ele>572</ele>
        <time>2021-08-05T09:30:52.440Z</time>
      </trkpt>
      <trkpt lat="46.99256" lon="8.64958">
        <ele>572</ele>
        <time>2021-08-05T09:30:53.439Z</time>
      </trkpt>
      <trkpt lat="46.99256" lon="8.64959">
        <ele>573</ele>
        <time>2021-08-05T09:30:54.439Z</time>
      </trkpt>
      <trkpt lat="46.99255" lon="8.64961">
        <ele>573</ele>
        <time>2021-08-05T09:30:55.439Z</time>
      </trkpt>
      <trkpt lat="46.99255" lon="8.64962">
        <ele>573</ele>
        <time>2021-08-05T09:30:56.439Z</time>
      </trkpt>
      <trkpt lat="46.99254" lon="8.64964">
        <ele>573</ele>
        <time>2021-08-05T09:30:57.439Z</time>
      </trkpt>
      <trkpt lat="46.99254" lon="8.64965">
        <ele>572</ele>
        <time>2021-08-05T09:30:58.439Z</time>
      </trkpt>
      <trkpt lat="46.99254" lon="8.64967">
        <ele>572</ele>
        <time>2021-08-05T09:30:59.439Z</time>
      </trkpt>
      <trkpt lat="46.99254" lon="8.64969">
        <ele>572</ele>
        <time>2021-08-05T09:31:00.440Z</time>
      </trkpt>
      <trkpt lat="46.99253" lon="8.6497">
        <ele>572</ele>
        <time>2021-08-05T09:31:01.440Z</time>
      </trkpt>
      <trkpt lat="46.99253" lon="8.64972">
        <ele>572</ele>
        <time>2021-08-05T09:31:02.439Z</time>
      </trkpt>
      <trkpt lat="46.99253" lon="8.64973">
        <ele>572</ele>
        <time>2021-08-05T09:31:03.440Z</time>
      </trkpt>
      <trkpt lat="46.99252" lon="8.64974">
        <ele>571</ele>
        <time>2021-08-05T09:31:04.439Z</time>
      </trkpt>
      <trkpt lat="46.99252" lon="8.64975">
        <ele>571</ele>
        <time>2021-08-05T09:31:05.440Z</time>
      </trkpt>
      <trkpt lat="46.99251" lon="8.64977">
        <ele>571</ele>
        <time>2021-08-05T09:31:06.440Z</time>
      </trkpt>
      <trkpt lat="46.99251" lon="8.64978">
        <ele>570</ele>
        <time>2021-08-05T09:31:07.439Z</time>
      </trkpt>
      <trkpt lat="46.9925" lon="8.64979">
        <ele>570</ele>
        <time>2021-08-05T09:31:08.439Z</time>
      </trkpt>
      <trkpt lat="46.99249" lon="8.64981">
        <ele>569</ele>
        <time>2021-08-05T09:31:09.440Z</time>
      </trkpt>
      <trkpt lat="46.99249" lon="8.64982">
        <ele>569</ele>
        <time>2021-08-05T09:31:10.440Z</time>
      </trkpt>
      <trkpt lat="46.99248" lon="8.64984">
        <ele>569</ele>
        <time>2021-08-05T09:31:11.440Z</time>
      </trkpt>
      <trkpt lat="46.99248" lon="8.64985">
        <ele>569</ele>
        <time>2021-08-05T09:31:12.440Z</time>
      </trkpt>
      <trkpt lat="46.99248" lon="8.64987">
        <ele>569</ele>
        <time>2021-08-05T09:31:13.440Z</time>
      </trkpt>
      <trkpt lat="46.99247" lon="8.64988">
        <ele>568</ele>
        <time>2021-08-05T09:31:14.439Z</time>
      </trkpt>
      <trkpt lat="46.99247" lon="8.6499">
        <ele>568</ele>
        <time>2021-08-05T09:31:15.440Z</time>
      </trkpt>
      <trkpt lat="46.99247" lon="8.64992">
        <ele>568</ele>
        <time>2021-08-05T09:31:16.440Z</time>
      </trkpt>
      <trkpt lat="46.99247" lon="8.64994">
        <ele>568</ele>
        <time>2021-08-05T09:31:17.439Z</time>
      </trkpt>
      <trkpt lat="46.99246" lon="8.64996">
        <ele>569</ele>
        <time>2021-08-05T09:31:18.440Z</time>
      </trkpt>
      <trkpt lat="46.99246" lon="8.64997">
        <ele>569</ele>
        <time>2021-08-05T09:31:19.440Z</time>
      </trkpt>
      <trkpt lat="46.99245" lon="8.64999">
        <ele>569</ele>
        <time>2021-08-05T09:31:20.439Z</time>
      </trkpt>
      <trkpt lat="46.99245" lon="8.65">
        <ele>570</ele>
        <time>2021-08-05T09:31:21.439Z</time>
      </trkpt>
      <trkpt lat="46.99244" lon="8.65002">
        <ele>570</ele>
        <time>2021-08-05T09:31:22.440Z</time>
      </trkpt>
      <trkpt lat="46.99244" lon="8.65002">
        <ele>570</ele>
        <time>2021-08-05T09:31:23.440Z</time>
      </trkpt>
      <trkpt lat="46.99243" lon="8.65003">
        <ele>570</ele>
        <time>2021-08-05T09:31:24.440Z</time>
      </trkpt>
      <trkpt lat="46.99243" lon="8.65003">
        <ele>570</ele>
        <time>2021-08-05T09:31:25.440Z</time>
      </trkpt>
      <trkpt lat="46.99241" lon="8.65003">
        <ele>570</ele>
        <time>2021-08-05T09:31:26.441Z</time>
      </trkpt>
      <trkpt lat="46.99241" lon="8.65002">
        <ele>571</ele>
        <time>2021-08-05T09:31:27.440Z</time>
      </trkpt>
      <trkpt lat="46.99241" lon="8.65002">
        <ele>571</ele>
        <time>2021-08-05T09:31:28.440Z</time>
      </trkpt>
      <trkpt lat="46.99241" lon="8.65004">
        <ele>571</ele>
        <time>2021-08-05T09:31:29.440Z</time>
      </trkpt>
      <trkpt lat="46.99241" lon="8.65005">
        <ele>571</ele>
        <time>2021-08-05T09:31:30.440Z</time>
      </trkpt>
      <trkpt lat="46.9924" lon="8.65007">
        <ele>571</ele>
        <time>2021-08-05T09:31:31.441Z</time>
      </trkpt>
      <trkpt lat="46.9924" lon="8.65009">
        <ele>571</ele>
        <time>2021-08-05T09:31:32.440Z</time>
      </trkpt>
      <trkpt lat="46.99239" lon="8.65011">
        <ele>572</ele>
        <time>2021-08-05T09:31:33.440Z</time>
      </trkpt>
      <trkpt lat="46.99239" lon="8.65012">
        <ele>572</ele>
        <time>2021-08-05T09:31:34.441Z</time>
      </trkpt>
      <trkpt lat="46.99238" lon="8.65014">
        <ele>572</ele>
        <time>2021-08-05T09:31:35.440Z</time>
      </trkpt>
      <trkpt lat="46.99238" lon="8.65015">
        <ele>572</ele>
        <time>2021-08-05T09:31:36.440Z</time>
      </trkpt>
      <trkpt lat="46.99238" lon="8.65016">
        <ele>573</ele>
        <time>2021-08-05T09:31:37.440Z</time>
      </trkpt>
      <trkpt lat="46.99238" lon="8.65017">
        <ele>573</ele>
        <time>2021-08-05T09:31:38.440Z</time>
      </trkpt>
      <trkpt lat="46.99238" lon="8.65017">
        <ele>574</ele>
        <time>2021-08-05T09:31:39.440Z</time>
      </trkpt>
      <trkpt lat="46.99239" lon="8.65018">
        <ele>574</ele>
        <time>2021-08-05T09:31:40.440Z</time>
      </trkpt>
      <trkpt lat="46.99239" lon="8.65018">
        <ele>574</ele>
        <time>2021-08-05T09:31:41.440Z</time>
      </trkpt>
      <trkpt lat="46.99239" lon="8.65018">
        <ele>574</ele>
        <time>2021-08-05T09:31:42.441Z</time>
      </trkpt>
      <trkpt lat="46.99239" lon="8.65018">
        <ele>574</ele>
        <time>2021-08-05T09:31:43.440Z</time>
      </trkpt>
      <trkpt lat="46.99238" lon="8.65019">
        <ele>574</ele>
        <time>2021-08-05T09:31:44.441Z</time>
      </trkpt>
      <trkpt lat="46.99238" lon="8.65019">
        <ele>574</ele>
        <time>2021-08-05T09:31:45.440Z</time>
      </trkpt>
      <trkpt lat="46.99238" lon="8.65019">
        <ele>574</ele>
        <time>2021-08-05T09:31:46.441Z</time>
      </trkpt>
      <trkpt lat="46.99239" lon="8.65016">
        <ele>576</ele>
        <time>2021-08-05T09:31:47.442Z</time>
      </trkpt>
      <trkpt lat="46.99239" lon="8.65016">
        <ele>576</ele>
        <time>2021-08-05T09:31:48.442Z</time>
      </trkpt>
      <trkpt lat="46.99238" lon="8.65016">
        <ele>576</ele>
        <time>2021-08-05T09:31:49.441Z</time>
      </trkpt>
      <trkpt lat="46.99238" lon="8.65016">
        <ele>577</ele>
        <time>2021-08-05T09:31:50.442Z</time>
      </trkpt>
      <trkpt lat="46.99238" lon="8.65016">
        <ele>577</ele>
        <time>2021-08-05T09:31:51.442Z</time>
      </trkpt>
      <trkpt lat="46.99238" lon="8.65017">
        <ele>577</ele>
        <time>2021-08-05T09:31:52.442Z</time>
      </trkpt>
      <trkpt lat="46.99237" lon="8.65017">
        <ele>578</ele>
        <time>2021-08-05T09:31:53.442Z</time>
      </trkpt>
      <trkpt lat="46.99237" lon="8.65017">
        <ele>578</ele>
        <time>2021-08-05T09:31:54.442Z</time>
      </trkpt>
      <trkpt lat="46.99238" lon="8.65019">
        <ele>580</ele>
        <time>2021-08-05T09:31:55.443Z</time>
      </trkpt>
      <trkpt lat="46.99238" lon="8.65019">
        <ele>580</ele>
        <time>2021-08-05T09:31:56.443Z</time>
      </trkpt>
      <trkpt lat="46.99238" lon="8.65019">
        <ele>580</ele>
        <time>2021-08-05T09:31:57.443Z</time>
      </trkpt>
      <trkpt lat="46.99239" lon="8.65017">
        <ele>575</ele>
        <time>2021-08-05T09:31:58.443Z</time>
      </trkpt>
      <trkpt lat="46.9924" lon="8.65017">
        <ele>574</ele>
        <time>2021-08-05T09:31:59.443Z</time>
      </trkpt>
      <trkpt lat="46.9924" lon="8.65017">
        <ele>575</ele>
        <time>2021-08-05T09:32:00.442Z</time>
      </trkpt>
      <trkpt lat="46.9924" lon="8.65018">
        <ele>576</ele>
        <time>2021-08-05T09:32:01.444Z</time>
      </trkpt>
      <trkpt lat="46.9924" lon="8.65018">
        <ele>577</ele>
        <time>2021-08-05T09:32:02.445Z</time>
      </trkpt>
      <trkpt lat="46.9924" lon="8.65018">
        <ele>577</ele>
        <time>2021-08-05T09:32:03.444Z</time>
      </trkpt>
      <trkpt lat="46.99241" lon="8.65018">
        <ele>577</ele>
        <time>2021-08-05T09:32:04.445Z</time>
      </trkpt>
      <trkpt lat="46.99241" lon="8.65017">
        <ele>578</ele>
        <time>2021-08-05T09:32:05.445Z</time>
      </trkpt>
      <trkpt lat="46.99242" lon="8.65017">
        <ele>579</ele>
        <time>2021-08-05T09:32:06.445Z</time>
      </trkpt>
      <trkpt lat="46.99241" lon="8.65016">
        <ele>579</ele>
        <time>2021-08-05T09:32:07.445Z</time>
      </trkpt>
      <trkpt lat="46.99238" lon="8.65018">
        <ele>581</ele>
        <time>2021-08-05T09:32:08.445Z</time>
      </trkpt>
      <trkpt lat="46.99238" lon="8.65018">
        <ele>581</ele>
        <time>2021-08-05T09:32:09.446Z</time>
      </trkpt>
      <trkpt lat="46.99238" lon="8.6502">
        <ele>576</ele>
        <time>2021-08-05T09:32:10.447Z</time>
      </trkpt>
      <trkpt lat="46.99238" lon="8.6502">
        <ele>576</ele>
        <time>2021-08-05T09:32:11.447Z</time>
      </trkpt>
      <trkpt lat="46.99238" lon="8.6502">
        <ele>575</ele>
        <time>2021-08-05T09:32:12.446Z</time>
      </trkpt>
      <trkpt lat="46.99239" lon="8.65019">
        <ele>575</ele>
        <time>2021-08-05T09:32:13.447Z</time>
      </trkpt>
      <trkpt lat="46.99239" lon="8.65019">
        <ele>574</ele>
        <time>2021-08-05T09:32:14.447Z</time>
      </trkpt>
      <trkpt lat="46.99238" lon="8.65023">
        <ele>575</ele>
        <time>2021-08-05T09:32:15.448Z</time>
      </trkpt>
      <trkpt lat="46.99238" lon="8.65024">
        <ele>574</ele>
        <time>2021-08-05T09:32:16.447Z</time>
      </trkpt>
      <trkpt lat="46.99238" lon="8.65025">
        <ele>574</ele>
        <time>2021-08-05T09:32:17.447Z</time>
      </trkpt>
      <trkpt lat="46.99239" lon="8.65024">
        <ele>574</ele>
        <time>2021-08-05T09:32:18.447Z</time>
      </trkpt>
      <trkpt lat="46.99239" lon="8.65024">
        <ele>574</ele>
        <time>2021-08-05T09:32:19.448Z</time>
      </trkpt>
      <trkpt lat="46.99238" lon="8.65021">
        <ele>580</ele>
        <time>2021-08-05T09:32:20.448Z</time>
      </trkpt>
      <trkpt lat="46.99238" lon="8.65018">
        <ele>586</ele>
        <time>2021-08-05T09:32:21.447Z</time>
      </trkpt>
      <trkpt lat="46.99237" lon="8.65017">
        <ele>586</ele>
        <time>2021-08-05T09:32:22.447Z</time>
      </trkpt>
      <trkpt lat="46.99237" lon="8.65017">
        <ele>586</ele>
        <time>2021-08-05T09:32:23.447Z</time>
      </trkpt>
      <trkpt lat="46.99237" lon="8.65017">
        <ele>585</ele>
        <time>2021-08-05T09:32:24.447Z</time>
      </trkpt>
      <trkpt lat="46.99237" lon="8.65017">
        <ele>585</ele>
        <time>2021-08-05T09:32:25.448Z</time>
      </trkpt>
      <trkpt lat="46.99237" lon="8.65017">
        <ele>585</ele>
        <time>2021-08-05T09:32:26.448Z</time>
      </trkpt>
      <trkpt lat="46.9924" lon="8.6502">
        <ele>590</ele>
        <time>2021-08-05T09:32:27.448Z</time>
      </trkpt>
      <trkpt lat="46.99239" lon="8.65021">
        <ele>590</ele>
        <time>2021-08-05T09:32:28.447Z</time>
      </trkpt>
      <trkpt lat="46.99239" lon="8.65022">
        <ele>589</ele>
        <time>2021-08-05T09:32:29.448Z</time>
      </trkpt>
      <trkpt lat="46.99239" lon="8.65023">
        <ele>589</ele>
        <time>2021-08-05T09:32:30.447Z</time>
      </trkpt>
      <trkpt lat="46.99238" lon="8.65024">
        <ele>588</ele>
        <time>2021-08-05T09:32:31.447Z</time>
      </trkpt>
      <trkpt lat="46.99238" lon="8.65025">
        <ele>588</ele>
        <time>2021-08-05T09:32:32.448Z</time>
      </trkpt>
      <trkpt lat="46.99237" lon="8.65025">
        <ele>588</ele>
        <time>2021-08-05T09:32:33.447Z</time>
      </trkpt>
      <trkpt lat="46.99237" lon="8.65026">
        <ele>587</ele>
        <time>2021-08-05T09:32:34.447Z</time>
      </trkpt>
      <trkpt lat="46.99236" lon="8.65027">
        <ele>586</ele>
        <time>2021-08-05T09:32:35.448Z</time>
      </trkpt>
      <trkpt lat="46.99236" lon="8.65029">
        <ele>586</ele>
        <time>2021-08-05T09:32:36.448Z</time>
      </trkpt>
      <trkpt lat="46.99235" lon="8.6503">
        <ele>585</ele>
        <time>2021-08-05T09:32:37.447Z</time>
      </trkpt>
      <trkpt lat="46.99235" lon="8.65031">
        <ele>584</ele>
        <time>2021-08-05T09:32:38.447Z</time>
      </trkpt>
      <trkpt lat="46.99234" lon="8.65032">
        <ele>584</ele>
        <time>2021-08-05T09:32:39.447Z</time>
      </trkpt>
      <trkpt lat="46.99233" lon="8.65033">
        <ele>583</ele>
        <time>2021-08-05T09:32:40.448Z</time>
      </trkpt>
      <trkpt lat="46.99233" lon="8.65033">
        <ele>583</ele>
        <time>2021-08-05T09:32:41.447Z</time>
      </trkpt>
      <trkpt lat="46.99232" lon="8.65035">
        <ele>582</ele>
        <time>2021-08-05T09:32:42.447Z</time>
      </trkpt>
      <trkpt lat="46.99231" lon="8.65036">
        <ele>582</ele>
        <time>2021-08-05T09:32:43.447Z</time>
      </trkpt>
      <trkpt lat="46.99231" lon="8.65037">
        <ele>581</ele>
        <time>2021-08-05T09:32:44.448Z</time>
      </trkpt>
      <trkpt lat="46.99231" lon="8.65038">
        <ele>581</ele>
        <time>2021-08-05T09:32:45.447Z</time>
      </trkpt>
      <trkpt lat="46.9923" lon="8.6504">
        <ele>581</ele>
        <time>2021-08-05T09:32:46.448Z</time>
      </trkpt>
      <trkpt lat="46.99229" lon="8.65042">
        <ele>580</ele>
        <time>2021-08-05T09:32:47.447Z</time>
      </trkpt>
      <trkpt lat="46.99229" lon="8.65043">
        <ele>580</ele>
        <time>2021-08-05T09:32:48.448Z</time>
      </trkpt>
      <trkpt lat="46.99228" lon="8.65044">
        <ele>579</ele>
        <time>2021-08-05T09:32:49.448Z</time>
      </trkpt>
      <trkpt lat="46.99227" lon="8.65045">
        <ele>579</ele>
        <time>2021-08-05T09:32:50.448Z</time>
      </trkpt>
      <trkpt lat="46.99225" lon="8.65046">
        <ele>578</ele>
        <time>2021-08-05T09:32:51.448Z</time>
      </trkpt>
      <trkpt lat="46.99224" lon="8.65047">
        <ele>578</ele>
        <time>2021-08-05T09:32:52.448Z</time>
      </trkpt>
      <trkpt lat="46.99223" lon="8.65047">
        <ele>578</ele>
        <time>2021-08-05T09:32:53.448Z</time>
      </trkpt>
      <trkpt lat="46.99222" lon="8.65048">
        <ele>578</ele>
        <time>2021-08-05T09:32:54.448Z</time>
      </trkpt>
      <trkpt lat="46.99222" lon="8.65049">
        <ele>578</ele>
        <time>2021-08-05T09:32:55.448Z</time>
      </trkpt>
      <trkpt lat="46.99221" lon="8.6505">
        <ele>578</ele>
        <time>2021-08-05T09:32:56.447Z</time>
      </trkpt>
      <trkpt lat="46.99221" lon="8.65051">
        <ele>578</ele>
        <time>2021-08-05T09:32:57.447Z</time>
      </trkpt>
      <trkpt lat="46.9922" lon="8.65053">
        <ele>578</ele>
        <time>2021-08-05T09:32:58.447Z</time>
      </trkpt>
      <trkpt lat="46.99219" lon="8.65055">
        <ele>577</ele>
        <time>2021-08-05T09:32:59.448Z</time>
      </trkpt>
      <trkpt lat="46.99217" lon="8.65057">
        <ele>577</ele>
        <time>2021-08-05T09:33:00.447Z</time>
      </trkpt>
      <trkpt lat="46.99217" lon="8.65059">
        <ele>577</ele>
        <time>2021-08-05T09:33:01.448Z</time>
      </trkpt>
      <trkpt lat="46.99216" lon="8.65061">
        <ele>577</ele>
        <time>2021-08-05T09:33:02.448Z</time>
      </trkpt>
      <trkpt lat="46.99215" lon="8.65063">
        <ele>577</ele>
        <time>2021-08-05T09:33:03.448Z</time>
      </trkpt>
      <trkpt lat="46.99214" lon="8.65065">
        <ele>576</ele>
        <time>2021-08-05T09:33:04.447Z</time>
      </trkpt>
      <trkpt lat="46.99213" lon="8.65066">
        <ele>576</ele>
        <time>2021-08-05T09:33:05.447Z</time>
      </trkpt>
      <trkpt lat="46.99213" lon="8.65066">
        <ele>576</ele>
        <time>2021-08-05T09:33:06.448Z</time>
      </trkpt>
      <trkpt lat="46.99212" lon="8.65067">
        <ele>576</ele>
        <time>2021-08-05T09:33:07.447Z</time>
      </trkpt>
      <trkpt lat="46.99212" lon="8.65068">
        <ele>577</ele>
        <time>2021-08-05T09:33:08.448Z</time>
      </trkpt>
      <trkpt lat="46.99212" lon="8.6507">
        <ele>578</ele>
        <time>2021-08-05T09:33:09.448Z</time>
      </trkpt>
      <trkpt lat="46.99211" lon="8.65071">
        <ele>578</ele>
        <time>2021-08-05T09:33:10.448Z</time>
      </trkpt>
      <trkpt lat="46.9921" lon="8.65073">
        <ele>577</ele>
        <time>2021-08-05T09:33:11.448Z</time>
      </trkpt>
      <trkpt lat="46.9921" lon="8.65074">
        <ele>577</ele>
        <time>2021-08-05T09:33:12.448Z</time>
      </trkpt>
      <trkpt lat="46.99209" lon="8.65075">
        <ele>576</ele>
        <time>2021-08-05T09:33:13.447Z</time>
      </trkpt>
      <trkpt lat="46.99209" lon="8.65076">
        <ele>575</ele>
        <time>2021-08-05T09:33:14.447Z</time>
      </trkpt>
      <trkpt lat="46.99209" lon="8.65076">
        <ele>575</ele>
        <time>2021-08-05T09:33:15.448Z</time>
      </trkpt>
      <trkpt lat="46.99209" lon="8.65076">
        <ele>574</ele>
        <time>2021-08-05T09:33:16.447Z</time>
      </trkpt>
      <trkpt lat="46.99209" lon="8.65076">
        <ele>574</ele>
        <time>2021-08-05T09:33:17.447Z</time>
      </trkpt>
      <trkpt lat="46.99209" lon="8.65077">
        <ele>574</ele>
        <time>2021-08-05T09:33:18.448Z</time>
      </trkpt>
      <trkpt lat="46.9921" lon="8.65077">
        <ele>573</ele>
        <time>2021-08-05T09:33:19.447Z</time>
      </trkpt>
      <trkpt lat="46.9921" lon="8.65078">
        <ele>573</ele>
        <time>2021-08-05T09:33:20.447Z</time>
      </trkpt>
      <trkpt lat="46.9921" lon="8.65078">
        <ele>573</ele>
        <time>2021-08-05T09:33:21.447Z</time>
      </trkpt>
      <trkpt lat="46.99211" lon="8.65075">
        <ele>575</ele>
        <time>2021-08-05T09:33:22.448Z</time>
      </trkpt>
      <trkpt lat="46.9921" lon="8.65075">
        <ele>574</ele>
        <time>2021-08-05T09:33:23.449Z</time>
      </trkpt>
      <trkpt lat="46.9921" lon="8.65076">
        <ele>574</ele>
        <time>2021-08-05T09:33:24.449Z</time>
      </trkpt>
      <trkpt lat="46.99209" lon="8.65077">
        <ele>574</ele>
        <time>2021-08-05T09:33:25.449Z</time>
      </trkpt>
      <trkpt lat="46.99208" lon="8.65078">
        <ele>574</ele>
        <time>2021-08-05T09:33:26.449Z</time>
      </trkpt>
      <trkpt lat="46.99207" lon="8.65079">
        <ele>574</ele>
        <time>2021-08-05T09:33:27.449Z</time>
      </trkpt>
      <trkpt lat="46.99206" lon="8.65079">
        <ele>574</ele>
        <time>2021-08-05T09:33:28.449Z</time>
      </trkpt>
      <trkpt lat="46.99206" lon="8.6508">
        <ele>575</ele>
        <time>2021-08-05T09:33:29.449Z</time>
      </trkpt>
      <trkpt lat="46.99205" lon="8.65081">
        <ele>575</ele>
        <time>2021-08-05T09:33:30.449Z</time>
      </trkpt>
      <trkpt lat="46.99204" lon="8.65082">
        <ele>575</ele>
        <time>2021-08-05T09:33:31.449Z</time>
      </trkpt>
      <trkpt lat="46.99203" lon="8.65083">
        <ele>575</ele>
        <time>2021-08-05T09:33:32.448Z</time>
      </trkpt>
      <trkpt lat="46.99203" lon="8.65085">
        <ele>575</ele>
        <time>2021-08-05T09:33:33.449Z</time>
      </trkpt>
      <trkpt lat="46.99202" lon="8.65086">
        <ele>575</ele>
        <time>2021-08-05T09:33:34.449Z</time>
      </trkpt>
      <trkpt lat="46.99201" lon="8.65087">
        <ele>575</ele>
        <time>2021-08-05T09:33:35.449Z</time>
      </trkpt>
      <trkpt lat="46.992" lon="8.65088">
        <ele>575</ele>
        <time>2021-08-05T09:33:36.449Z</time>
      </trkpt>
      <trkpt lat="46.992" lon="8.65089">
        <ele>575</ele>
        <time>2021-08-05T09:33:37.448Z</time>
      </trkpt>
      <trkpt lat="46.99199" lon="8.65091">
        <ele>574</ele>
        <time>2021-08-05T09:33:38.449Z</time>
      </trkpt>
      <trkpt lat="46.99198" lon="8.65092">
        <ele>574</ele>
        <time>2021-08-05T09:33:39.449Z</time>
      </trkpt>
      <trkpt lat="46.99197" lon="8.65094">
        <ele>575</ele>
        <time>2021-08-05T09:33:40.449Z</time>
      </trkpt>
      <trkpt lat="46.99197" lon="8.65095">
        <ele>575</ele>
        <time>2021-08-05T09:33:41.449Z</time>
      </trkpt>
      <trkpt lat="46.99196" lon="8.65097">
        <ele>575</ele>
        <time>2021-08-05T09:33:42.448Z</time>
      </trkpt>
      <trkpt lat="46.99195" lon="8.65098">
        <ele>575</ele>
        <time>2021-08-05T09:33:43.449Z</time>
      </trkpt>
      <trkpt lat="46.99194" lon="8.651">
        <ele>575</ele>
        <time>2021-08-05T09:33:44.449Z</time>
      </trkpt>
      <trkpt lat="46.99193" lon="8.65102">
        <ele>575</ele>
        <time>2021-08-05T09:33:45.448Z</time>
      </trkpt>
      <trkpt lat="46.99193" lon="8.65103">
        <ele>575</ele>
        <time>2021-08-05T09:33:46.449Z</time>
      </trkpt>
      <trkpt lat="46.99192" lon="8.65104">
        <ele>575</ele>
        <time>2021-08-05T09:33:47.449Z</time>
      </trkpt>
      <trkpt lat="46.99192" lon="8.65105">
        <ele>575</ele>
        <time>2021-08-05T09:33:48.449Z</time>
      </trkpt>
      <trkpt lat="46.99192" lon="8.65107">
        <ele>574</ele>
        <time>2021-08-05T09:33:49.449Z</time>
      </trkpt>
      <trkpt lat="46.99192" lon="8.65107">
        <ele>574</ele>
        <time>2021-08-05T09:33:50.448Z</time>
      </trkpt>
      <trkpt lat="46.99191" lon="8.65107">
        <ele>574</ele>
        <time>2021-08-05T09:33:51.448Z</time>
      </trkpt>
      <trkpt lat="46.9919" lon="8.65109">
        <ele>574</ele>
        <time>2021-08-05T09:33:52.449Z</time>
      </trkpt>
      <trkpt lat="46.99189" lon="8.6511">
        <ele>573</ele>
        <time>2021-08-05T09:33:53.448Z</time>
      </trkpt>
      <trkpt lat="46.99188" lon="8.65111">
        <ele>573</ele>
        <time>2021-08-05T09:33:54.448Z</time>
      </trkpt>
      <trkpt lat="46.99188" lon="8.65112">
        <ele>573</ele>
        <time>2021-08-05T09:33:55.448Z</time>
      </trkpt>
      <trkpt lat="46.99186" lon="8.65114">
        <ele>572</ele>
        <time>2021-08-05T09:33:56.449Z</time>
      </trkpt>
      <trkpt lat="46.99185" lon="8.65115">
        <ele>572</ele>
        <time>2021-08-05T09:33:57.449Z</time>
      </trkpt>
      <trkpt lat="46.99185" lon="8.65117">
        <ele>571</ele>
        <time>2021-08-05T09:33:58.449Z</time>
      </trkpt>
      <trkpt lat="46.99184" lon="8.65118">
        <ele>572</ele>
        <time>2021-08-05T09:33:59.449Z</time>
      </trkpt>
      <trkpt lat="46.99184" lon="8.65119">
        <ele>572</ele>
        <time>2021-08-05T09:34:00.449Z</time>
      </trkpt>
      <trkpt lat="46.99183" lon="8.6512">
        <ele>572</ele>
        <time>2021-08-05T09:34:01.448Z</time>
      </trkpt>
      <trkpt lat="46.99182" lon="8.65121">
        <ele>572</ele>
        <time>2021-08-05T09:34:02.448Z</time>
      </trkpt>
      <trkpt lat="46.99182" lon="8.65122">
        <ele>573</ele>
        <time>2021-08-05T09:34:03.449Z</time>
      </trkpt>
      <trkpt lat="46.9918" lon="8.65122">
        <ele>573</ele>
        <time>2021-08-05T09:34:04.449Z</time>
      </trkpt>
      <trkpt lat="46.9918" lon="8.65123">
        <ele>573</ele>
        <time>2021-08-05T09:34:05.448Z</time>
      </trkpt>
      <trkpt lat="46.99179" lon="8.65125">
        <ele>573</ele>
        <time>2021-08-05T09:34:06.449Z</time>
      </trkpt>
      <trkpt lat="46.99179" lon="8.65126">
        <ele>573</ele>
        <time>2021-08-05T09:34:07.449Z</time>
      </trkpt>
      <trkpt lat="46.99178" lon="8.65127">
        <ele>573</ele>
        <time>2021-08-05T09:34:08.449Z</time>
      </trkpt>
      <trkpt lat="46.99177" lon="8.65128">
        <ele>573</ele>
        <time>2021-08-05T09:34:09.448Z</time>
      </trkpt>
      <trkpt lat="46.99177" lon="8.65128">
        <ele>573</ele>
        <time>2021-08-05T09:34:10.449Z</time>
      </trkpt>
      <trkpt lat="46.99175" lon="8.65129">
        <ele>573</ele>
        <time>2021-08-05T09:34:11.449Z</time>
      </trkpt>
      <trkpt lat="46.99175" lon="8.65131">
        <ele>574</ele>
        <time>2021-08-05T09:34:12.448Z</time>
      </trkpt>
      <trkpt lat="46.99174" lon="8.65132">
        <ele>574</ele>
        <time>2021-08-05T09:34:13.448Z</time>
      </trkpt>
      <trkpt lat="46.99173" lon="8.65134">
        <ele>574</ele>
        <time>2021-08-05T09:34:14.449Z</time>
      </trkpt>
      <trkpt lat="46.99173" lon="8.65135">
        <ele>574</ele>
        <time>2021-08-05T09:34:15.448Z</time>
      </trkpt>
      <trkpt lat="46.99172" lon="8.65136">
        <ele>575</ele>
        <time>2021-08-05T09:34:16.449Z</time>
      </trkpt>
      <trkpt lat="46.99171" lon="8.65137">
        <ele>575</ele>
        <time>2021-08-05T09:34:17.449Z</time>
      </trkpt>
      <trkpt lat="46.9917" lon="8.65138">
        <ele>575</ele>
        <time>2021-08-05T09:34:18.449Z</time>
      </trkpt>
      <trkpt lat="46.9917" lon="8.65139">
        <ele>576</ele>
        <time>2021-08-05T09:34:19.449Z</time>
      </trkpt>
      <trkpt lat="46.99169" lon="8.6514">
        <ele>576</ele>
        <time>2021-08-05T09:34:20.448Z</time>
      </trkpt>
      <trkpt lat="46.99168" lon="8.65141">
        <ele>577</ele>
        <time>2021-08-05T09:34:21.449Z</time>
      </trkpt>
      <trkpt lat="46.99167" lon="8.65142">
        <ele>577</ele>
        <time>2021-08-05T09:34:22.448Z</time>
      </trkpt>
      <trkpt lat="46.99166" lon="8.65144">
        <ele>577</ele>
        <time>2021-08-05T09:34:23.449Z</time>
      </trkpt>
      <trkpt lat="46.99166" lon="8.65145">
        <ele>576</ele>
        <time>2021-08-05T09:34:24.448Z</time>
      </trkpt>
      <trkpt lat="46.99166" lon="8.65146">
        <ele>576</ele>
        <time>2021-08-05T09:34:25.449Z</time>
      </trkpt>
      <trkpt lat="46.99165" lon="8.65148">
        <ele>576</ele>
        <time>2021-08-05T09:34:26.448Z</time>
      </trkpt>
      <trkpt lat="46.99164" lon="8.65149">
        <ele>575</ele>
        <time>2021-08-05T09:34:27.448Z</time>
      </trkpt>
      <trkpt lat="46.99163" lon="8.6515">
        <ele>574</ele>
        <time>2021-08-05T09:34:28.449Z</time>
      </trkpt>
      <trkpt lat="46.99163" lon="8.65151">
        <ele>573</ele>
        <time>2021-08-05T09:34:29.448Z</time>
      </trkpt>
      <trkpt lat="46.99162" lon="8.65152">
        <ele>573</ele>
        <time>2021-08-05T09:34:30.449Z</time>
      </trkpt>
      <trkpt lat="46.99161" lon="8.65154">
        <ele>572</ele>
        <time>2021-08-05T09:34:31.449Z</time>
      </trkpt>
      <trkpt lat="46.9916" lon="8.65155">
        <ele>572</ele>
        <time>2021-08-05T09:34:32.448Z</time>
      </trkpt>
      <trkpt lat="46.9916" lon="8.65157">
        <ele>571</ele>
        <time>2021-08-05T09:34:33.449Z</time>
      </trkpt>
      <trkpt lat="46.99159" lon="8.65158">
        <ele>570</ele>
        <time>2021-08-05T09:34:34.449Z</time>
      </trkpt>
      <trkpt lat="46.99158" lon="8.65159">
        <ele>569</ele>
        <time>2021-08-05T09:34:35.449Z</time>
      </trkpt>
      <trkpt lat="46.99157" lon="8.65159">
        <ele>569</ele>
        <time>2021-08-05T09:34:36.449Z</time>
      </trkpt>
      <trkpt lat="46.99157" lon="8.65159">
        <ele>568</ele>
        <time>2021-08-05T09:34:37.449Z</time>
      </trkpt>
      <trkpt lat="46.99156" lon="8.6516">
        <ele>567</ele>
        <time>2021-08-05T09:34:38.448Z</time>
      </trkpt>
      <trkpt lat="46.99155" lon="8.6516">
        <ele>567</ele>
        <time>2021-08-05T09:34:39.449Z</time>
      </trkpt>
      <trkpt lat="46.99154" lon="8.65161">
        <ele>566</ele>
        <time>2021-08-05T09:34:40.449Z</time>
      </trkpt>
      <trkpt lat="46.99152" lon="8.65162">
        <ele>566</ele>
        <time>2021-08-05T09:34:41.448Z</time>
      </trkpt>
      <trkpt lat="46.99151" lon="8.65163">
        <ele>566</ele>
        <time>2021-08-05T09:34:42.449Z</time>
      </trkpt>
      <trkpt lat="46.9915" lon="8.65164">
        <ele>566</ele>
        <time>2021-08-05T09:34:43.449Z</time>
      </trkpt>
      <trkpt lat="46.99149" lon="8.65165">
        <ele>566</ele>
        <time>2021-08-05T09:34:44.449Z</time>
      </trkpt>
      <trkpt lat="46.99147" lon="8.65166">
        <ele>566</ele>
        <time>2021-08-05T09:34:45.449Z</time>
      </trkpt>
      <trkpt lat="46.99146" lon="8.65167">
        <ele>567</ele>
        <time>2021-08-05T09:34:46.448Z</time>
      </trkpt>
      <trkpt lat="46.99146" lon="8.65168">
        <ele>567</ele>
        <time>2021-08-05T09:34:47.449Z</time>
      </trkpt>
      <trkpt lat="46.99146" lon="8.65169">
        <ele>567</ele>
        <time>2021-08-05T09:34:48.449Z</time>
      </trkpt>
      <trkpt lat="46.99146" lon="8.6517">
        <ele>568</ele>
        <time>2021-08-05T09:34:49.448Z</time>
      </trkpt>
      <trkpt lat="46.99145" lon="8.65172">
        <ele>568</ele>
        <time>2021-08-05T09:34:50.449Z</time>
      </trkpt>
      <trkpt lat="46.99144" lon="8.65172">
        <ele>569</ele>
        <time>2021-08-05T09:34:51.448Z</time>
      </trkpt>
      <trkpt lat="46.99143" lon="8.65174">
        <ele>569</ele>
        <time>2021-08-05T09:34:52.449Z</time>
      </trkpt>
      <trkpt lat="46.99142" lon="8.65175">
        <ele>570</ele>
        <time>2021-08-05T09:34:53.449Z</time>
      </trkpt>
      <trkpt lat="46.99142" lon="8.65176">
        <ele>571</ele>
        <time>2021-08-05T09:34:54.448Z</time>
      </trkpt>
      <trkpt lat="46.99142" lon="8.65178">
        <ele>571</ele>
        <time>2021-08-05T09:34:55.449Z</time>
      </trkpt>
      <trkpt lat="46.99141" lon="8.65179">
        <ele>571</ele>
        <time>2021-08-05T09:34:56.449Z</time>
      </trkpt>
      <trkpt lat="46.9914" lon="8.6518">
        <ele>571</ele>
        <time>2021-08-05T09:34:57.448Z</time>
      </trkpt>
      <trkpt lat="46.99139" lon="8.65181">
        <ele>572</ele>
        <time>2021-08-05T09:34:58.449Z</time>
      </trkpt>
      <trkpt lat="46.99138" lon="8.65182">
        <ele>571</ele>
        <time>2021-08-05T09:34:59.448Z</time>
      </trkpt>
      <trkpt lat="46.99137" lon="8.65182">
        <ele>571</ele>
        <time>2021-08-05T09:35:00.449Z</time>
      </trkpt>
      <trkpt lat="46.99136" lon="8.65182">
        <ele>571</ele>
        <time>2021-08-05T09:35:01.448Z</time>
      </trkpt>
      <trkpt lat="46.99135" lon="8.65183">
        <ele>571</ele>
        <time>2021-08-05T09:35:02.448Z</time>
      </trkpt>
      <trkpt lat="46.99135" lon="8.65184">
        <ele>570</ele>
        <time>2021-08-05T09:35:03.448Z</time>
      </trkpt>
      <trkpt lat="46.99134" lon="8.65184">
        <ele>570</ele>
        <time>2021-08-05T09:35:04.448Z</time>
      </trkpt>
      <trkpt lat="46.99133" lon="8.65185">
        <ele>569</ele>
        <time>2021-08-05T09:35:05.448Z</time>
      </trkpt>
      <trkpt lat="46.99132" lon="8.65187">
        <ele>569</ele>
        <time>2021-08-05T09:35:06.449Z</time>
      </trkpt>
      <trkpt lat="46.99131" lon="8.65187">
        <ele>569</ele>
        <time>2021-08-05T09:35:07.449Z</time>
      </trkpt>
      <trkpt lat="46.9913" lon="8.65189">
        <ele>568</ele>
        <time>2021-08-05T09:35:08.449Z</time>
      </trkpt>
      <trkpt lat="46.99129" lon="8.6519">
        <ele>568</ele>
        <time>2021-08-05T09:35:09.449Z</time>
      </trkpt>
      <trkpt lat="46.99128" lon="8.65191">
        <ele>567</ele>
        <time>2021-08-05T09:35:10.449Z</time>
      </trkpt>
      <trkpt lat="46.99127" lon="8.65192">
        <ele>566</ele>
        <time>2021-08-05T09:35:11.449Z</time>
      </trkpt>
      <trkpt lat="46.99127" lon="8.65193">
        <ele>565</ele>
        <time>2021-08-05T09:35:12.449Z</time>
      </trkpt>
      <trkpt lat="46.99126" lon="8.65193">
        <ele>564</ele>
        <time>2021-08-05T09:35:13.449Z</time>
      </trkpt>
      <trkpt lat="46.99125" lon="8.65194">
        <ele>564</ele>
        <time>2021-08-05T09:35:14.449Z</time>
      </trkpt>
      <trkpt lat="46.99124" lon="8.65194">
        <ele>564</ele>
        <time>2021-08-05T09:35:15.448Z</time>
      </trkpt>
      <trkpt lat="46.99122" lon="8.65194">
        <ele>565</ele>
        <time>2021-08-05T09:35:16.449Z</time>
      </trkpt>
      <trkpt lat="46.99121" lon="8.65194">
        <ele>566</ele>
        <time>2021-08-05T09:35:17.449Z</time>
      </trkpt>
      <trkpt lat="46.9912" lon="8.65194">
        <ele>567</ele>
        <time>2021-08-05T09:35:18.448Z</time>
      </trkpt>
      <trkpt lat="46.99119" lon="8.65194">
        <ele>567</ele>
        <time>2021-08-05T09:35:19.449Z</time>
      </trkpt>
      <trkpt lat="46.99118" lon="8.65195">
        <ele>568</ele>
        <time>2021-08-05T09:35:20.448Z</time>
      </trkpt>
      <trkpt lat="46.99117" lon="8.65196">
        <ele>568</ele>
        <time>2021-08-05T09:35:21.449Z</time>
      </trkpt>
      <trkpt lat="46.99117" lon="8.65197">
        <ele>568</ele>
        <time>2021-08-05T09:35:22.449Z</time>
      </trkpt>
      <trkpt lat="46.99116" lon="8.65198">
        <ele>568</ele>
        <time>2021-08-05T09:35:23.449Z</time>
      </trkpt>
      <trkpt lat="46.99115" lon="8.65199">
        <ele>567</ele>
        <time>2021-08-05T09:35:24.449Z</time>
      </trkpt>
      <trkpt lat="46.99114" lon="8.65199">
        <ele>567</ele>
        <time>2021-08-05T09:35:25.449Z</time>
      </trkpt>
      <trkpt lat="46.99113" lon="8.65199">
        <ele>566</ele>
        <time>2021-08-05T09:35:26.448Z</time>
      </trkpt>
      <trkpt lat="46.99112" lon="8.65199">
        <ele>566</ele>
        <time>2021-08-05T09:35:27.449Z</time>
      </trkpt>
      <trkpt lat="46.99111" lon="8.65199">
        <ele>566</ele>
        <time>2021-08-05T09:35:28.448Z</time>
      </trkpt>
      <trkpt lat="46.99109" lon="8.652">
        <ele>565</ele>
        <time>2021-08-05T09:35:29.448Z</time>
      </trkpt>
      <trkpt lat="46.99108" lon="8.652">
        <ele>565</ele>
        <time>2021-08-05T09:35:30.449Z</time>
      </trkpt>
      <trkpt lat="46.99107" lon="8.652">
        <ele>564</ele>
        <time>2021-08-05T09:35:31.448Z</time>
      </trkpt>
      <trkpt lat="46.99106" lon="8.652">
        <ele>564</ele>
        <time>2021-08-05T09:35:32.448Z</time>
      </trkpt>
      <trkpt lat="46.99105" lon="8.65201">
        <ele>564</ele>
        <time>2021-08-05T09:35:33.449Z</time>
      </trkpt>
      <trkpt lat="46.99104" lon="8.65201">
        <ele>564</ele>
        <time>2021-08-05T09:35:34.449Z</time>
      </trkpt>
      <trkpt lat="46.99103" lon="8.65202">
        <ele>564</ele>
        <time>2021-08-05T09:35:35.448Z</time>
      </trkpt>
      <trkpt lat="46.99102" lon="8.65203">
        <ele>564</ele>
        <time>2021-08-05T09:35:36.448Z</time>
      </trkpt>
      <trkpt lat="46.99101" lon="8.65204">
        <ele>564</ele>
        <time>2021-08-05T09:35:37.448Z</time>
      </trkpt>
      <trkpt lat="46.991" lon="8.65205">
        <ele>564</ele>
        <time>2021-08-05T09:35:38.449Z</time>
      </trkpt>
      <trkpt lat="46.99099" lon="8.65206">
        <ele>565</ele>
        <time>2021-08-05T09:35:39.449Z</time>
      </trkpt>
      <trkpt lat="46.99098" lon="8.65207">
        <ele>565</ele>
        <time>2021-08-05T09:35:40.448Z</time>
      </trkpt>
      <trkpt lat="46.99097" lon="8.65208">
        <ele>564</ele>
        <time>2021-08-05T09:35:41.448Z</time>
      </trkpt>
      <trkpt lat="46.99096" lon="8.65208">
        <ele>564</ele>
        <time>2021-08-05T09:35:42.448Z</time>
      </trkpt>
      <trkpt lat="46.99095" lon="8.65208">
        <ele>563</ele>
        <time>2021-08-05T09:35:43.448Z</time>
      </trkpt>
      <trkpt lat="46.99094" lon="8.65209">
        <ele>563</ele>
        <time>2021-08-05T09:35:44.448Z</time>
      </trkpt>
      <trkpt lat="46.99093" lon="8.65209">
        <ele>563</ele>
        <time>2021-08-05T09:35:45.448Z</time>
      </trkpt>
      <trkpt lat="46.99092" lon="8.65209">
        <ele>563</ele>
        <time>2021-08-05T09:35:46.448Z</time>
      </trkpt>
      <trkpt lat="46.99091" lon="8.65209">
        <ele>564</ele>
        <time>2021-08-05T09:35:47.449Z</time>
      </trkpt>
      <trkpt lat="46.9909" lon="8.65209">
        <ele>564</ele>
        <time>2021-08-05T09:35:48.449Z</time>
      </trkpt>
      <trkpt lat="46.9909" lon="8.6521">
        <ele>563</ele>
        <time>2021-08-05T09:35:49.449Z</time>
      </trkpt>
      <trkpt lat="46.99089" lon="8.6521">
        <ele>563</ele>
        <time>2021-08-05T09:35:50.448Z</time>
      </trkpt>
      <trkpt lat="46.99088" lon="8.6521">
        <ele>563</ele>
        <time>2021-08-05T09:35:51.449Z</time>
      </trkpt>
      <trkpt lat="46.99086" lon="8.6521">
        <ele>562</ele>
        <time>2021-08-05T09:35:52.449Z</time>
      </trkpt>
      <trkpt lat="46.99085" lon="8.6521">
        <ele>562</ele>
        <time>2021-08-05T09:35:53.448Z</time>
      </trkpt>
      <trkpt lat="46.99084" lon="8.6521">
        <ele>562</ele>
        <time>2021-08-05T09:35:54.448Z</time>
      </trkpt>
      <trkpt lat="46.99083" lon="8.6521">
        <ele>563</ele>
        <time>2021-08-05T09:35:55.449Z</time>
      </trkpt>
      <trkpt lat="46.99082" lon="8.6521">
        <ele>563</ele>
        <time>2021-08-05T09:35:56.449Z</time>
      </trkpt>
      <trkpt lat="46.99081" lon="8.65209">
        <ele>563</ele>
        <time>2021-08-05T09:35:57.449Z</time>
      </trkpt>
      <trkpt lat="46.9908" lon="8.65208">
        <ele>564</ele>
        <time>2021-08-05T09:35:58.448Z</time>
      </trkpt>
      <trkpt lat="46.99078" lon="8.65208">
        <ele>564</ele>
        <time>2021-08-05T09:35:59.449Z</time>
      </trkpt>
      <trkpt lat="46.99077" lon="8.65208">
        <ele>564</ele>
        <time>2021-08-05T09:36:00.449Z</time>
      </trkpt>
      <trkpt lat="46.99076" lon="8.65208">
        <ele>565</ele>
        <time>2021-08-05T09:36:01.449Z</time>
      </trkpt>
      <trkpt lat="46.99075" lon="8.65208">
        <ele>565</ele>
        <time>2021-08-05T09:36:02.449Z</time>
      </trkpt>
      <trkpt lat="46.99073" lon="8.65208">
        <ele>566</ele>
        <time>2021-08-05T09:36:03.448Z</time>
      </trkpt>
      <trkpt lat="46.99072" lon="8.65209">
        <ele>566</ele>
        <time>2021-08-05T09:36:04.449Z</time>
      </trkpt>
      <trkpt lat="46.99071" lon="8.6521">
        <ele>566</ele>
        <time>2021-08-05T09:36:05.449Z</time>
      </trkpt>
      <trkpt lat="46.99071" lon="8.6521">
        <ele>567</ele>
        <time>2021-08-05T09:36:06.449Z</time>
      </trkpt>
      <trkpt lat="46.9907" lon="8.6521">
        <ele>568</ele>
        <time>2021-08-05T09:36:07.448Z</time>
      </trkpt>
      <trkpt lat="46.99069" lon="8.65211">
        <ele>569</ele>
        <time>2021-08-05T09:36:08.448Z</time>
      </trkpt>
      <trkpt lat="46.99068" lon="8.65212">
        <ele>570</ele>
        <time>2021-08-05T09:36:09.449Z</time>
      </trkpt>
      <trkpt lat="46.99067" lon="8.65213">
        <ele>572</ele>
        <time>2021-08-05T09:36:10.449Z</time>
      </trkpt>
      <trkpt lat="46.99066" lon="8.65214">
        <ele>572</ele>
        <time>2021-08-05T09:36:11.449Z</time>
      </trkpt>
      <trkpt lat="46.99066" lon="8.65215">
        <ele>573</ele>
        <time>2021-08-05T09:36:12.449Z</time>
      </trkpt>
      <trkpt lat="46.99065" lon="8.65216">
        <ele>574</ele>
        <time>2021-08-05T09:36:13.449Z</time>
      </trkpt>
      <trkpt lat="46.99065" lon="8.65217">
        <ele>574</ele>
        <time>2021-08-05T09:36:14.448Z</time>
      </trkpt>
      <trkpt lat="46.99064" lon="8.65219">
        <ele>575</ele>
        <time>2021-08-05T09:36:15.449Z</time>
      </trkpt>
      <trkpt lat="46.99063" lon="8.65221">
        <ele>575</ele>
        <time>2021-08-05T09:36:16.449Z</time>
      </trkpt>
      <trkpt lat="46.99062" lon="8.65222">
        <ele>576</ele>
        <time>2021-08-05T09:36:17.449Z</time>
      </trkpt>
      <trkpt lat="46.99061" lon="8.65224">
        <ele>576</ele>
        <time>2021-08-05T09:36:18.449Z</time>
      </trkpt>
      <trkpt lat="46.99061" lon="8.65226">
        <ele>576</ele>
        <time>2021-08-05T09:36:19.448Z</time>
      </trkpt>
      <trkpt lat="46.99061" lon="8.65227">
        <ele>575</ele>
        <time>2021-08-05T09:36:20.449Z</time>
      </trkpt>
      <trkpt lat="46.99061" lon="8.65229">
        <ele>574</ele>
        <time>2021-08-05T09:36:21.449Z</time>
      </trkpt>
      <trkpt lat="46.99061" lon="8.6523">
        <ele>574</ele>
        <time>2021-08-05T09:36:22.449Z</time>
      </trkpt>
      <trkpt lat="46.99061" lon="8.65232">
        <ele>573</ele>
        <time>2021-08-05T09:36:23.449Z</time>
      </trkpt>
      <trkpt lat="46.99062" lon="8.65233">
        <ele>572</ele>
        <time>2021-08-05T09:36:24.449Z</time>
      </trkpt>
      <trkpt lat="46.99062" lon="8.65235">
        <ele>572</ele>
        <time>2021-08-05T09:36:25.449Z</time>
      </trkpt>
      <trkpt lat="46.99062" lon="8.65236">
        <ele>571</ele>
        <time>2021-08-05T09:36:26.448Z</time>
      </trkpt>
      <trkpt lat="46.99063" lon="8.65237">
        <ele>570</ele>
        <time>2021-08-05T09:36:27.449Z</time>
      </trkpt>
      <trkpt lat="46.99063" lon="8.65239">
        <ele>570</ele>
        <time>2021-08-05T09:36:28.448Z</time>
      </trkpt>
      <trkpt lat="46.99063" lon="8.65241">
        <ele>570</ele>
        <time>2021-08-05T09:36:29.449Z</time>
      </trkpt>
      <trkpt lat="46.99064" lon="8.65242">
        <ele>570</ele>
        <time>2021-08-05T09:36:30.448Z</time>
      </trkpt>
      <trkpt lat="46.99065" lon="8.65244">
        <ele>570</ele>
        <time>2021-08-05T09:36:31.449Z</time>
      </trkpt>
      <trkpt lat="46.99066" lon="8.65246">
        <ele>570</ele>
        <time>2021-08-05T09:36:32.449Z</time>
      </trkpt>
      <trkpt lat="46.99067" lon="8.65248">
        <ele>570</ele>
        <time>2021-08-05T09:36:33.448Z</time>
      </trkpt>
      <trkpt lat="46.99068" lon="8.6525">
        <ele>570</ele>
        <time>2021-08-05T09:36:34.449Z</time>
      </trkpt>
      <trkpt lat="46.99069" lon="8.65252">
        <ele>571</ele>
        <time>2021-08-05T09:36:35.448Z</time>
      </trkpt>
      <trkpt lat="46.99069" lon="8.65253">
        <ele>571</ele>
        <time>2021-08-05T09:36:36.449Z</time>
      </trkpt>
      <trkpt lat="46.99069" lon="8.65255">
        <ele>572</ele>
        <time>2021-08-05T09:36:37.449Z</time>
      </trkpt>
      <trkpt lat="46.9907" lon="8.65257">
        <ele>572</ele>
        <time>2021-08-05T09:36:38.448Z</time>
      </trkpt>
      <trkpt lat="46.9907" lon="8.65258">
        <ele>572</ele>
        <time>2021-08-05T09:36:39.449Z</time>
      </trkpt>
      <trkpt lat="46.9907" lon="8.6526">
        <ele>573</ele>
        <time>2021-08-05T09:36:40.449Z</time>
      </trkpt>
      <trkpt lat="46.9907" lon="8.65261">
        <ele>573</ele>
        <time>2021-08-05T09:36:41.449Z</time>
      </trkpt>
      <trkpt lat="46.9907" lon="8.65263">
        <ele>574</ele>
        <time>2021-08-05T09:36:42.449Z</time>
      </trkpt>
      <trkpt lat="46.99069" lon="8.65266">
        <ele>574</ele>
        <time>2021-08-05T09:36:43.448Z</time>
      </trkpt>
      <trkpt lat="46.99069" lon="8.65268">
        <ele>573</ele>
        <time>2021-08-05T09:36:44.448Z</time>
      </trkpt>
      <trkpt lat="46.99068" lon="8.65271">
        <ele>573</ele>
        <time>2021-08-05T09:36:45.449Z</time>
      </trkpt>
      <trkpt lat="46.99067" lon="8.65273">
        <ele>572</ele>
        <time>2021-08-05T09:36:46.449Z</time>
      </trkpt>
      <trkpt lat="46.99066" lon="8.65275">
        <ele>572</ele>
        <time>2021-08-05T09:36:47.449Z</time>
      </trkpt>
      <trkpt lat="46.99066" lon="8.65276">
        <ele>572</ele>
        <time>2021-08-05T09:36:48.449Z</time>
      </trkpt>
      <trkpt lat="46.99065" lon="8.65277">
        <ele>571</ele>
        <time>2021-08-05T09:36:49.448Z</time>
      </trkpt>
      <trkpt lat="46.99065" lon="8.65279">
        <ele>571</ele>
        <time>2021-08-05T09:36:50.448Z</time>
      </trkpt>
      <trkpt lat="46.99066" lon="8.6528">
        <ele>570</ele>
        <time>2021-08-05T09:36:51.448Z</time>
      </trkpt>
      <trkpt lat="46.99066" lon="8.65282">
        <ele>569</ele>
        <time>2021-08-05T09:36:52.449Z</time>
      </trkpt>
      <trkpt lat="46.99066" lon="8.65283">
        <ele>568</ele>
        <time>2021-08-05T09:36:53.449Z</time>
      </trkpt>
      <trkpt lat="46.99066" lon="8.65285">
        <ele>568</ele>
        <time>2021-08-05T09:36:54.448Z</time>
      </trkpt>
      <trkpt lat="46.99066" lon="8.65287">
        <ele>567</ele>
        <time>2021-08-05T09:36:55.449Z</time>
      </trkpt>
      <trkpt lat="46.99066" lon="8.65289">
        <ele>566</ele>
        <time>2021-08-05T09:36:56.449Z</time>
      </trkpt>
      <trkpt lat="46.99066" lon="8.6529">
        <ele>565</ele>
        <time>2021-08-05T09:36:57.448Z</time>
      </trkpt>
      <trkpt lat="46.99066" lon="8.65291">
        <ele>564</ele>
        <time>2021-08-05T09:36:58.449Z</time>
      </trkpt>
      <trkpt lat="46.99066" lon="8.65293">
        <ele>563</ele>
        <time>2021-08-05T09:36:59.449Z</time>
      </trkpt>
      <trkpt lat="46.99066" lon="8.65294">
        <ele>562</ele>
        <time>2021-08-05T09:37:00.448Z</time>
      </trkpt>
      <trkpt lat="46.99066" lon="8.65296">
        <ele>561</ele>
        <time>2021-08-05T09:37:01.449Z</time>
      </trkpt>
      <trkpt lat="46.99066" lon="8.65298">
        <ele>560</ele>
        <time>2021-08-05T09:37:02.449Z</time>
      </trkpt>
      <trkpt lat="46.99067" lon="8.653">
        <ele>560</ele>
        <time>2021-08-05T09:37:03.449Z</time>
      </trkpt>
      <trkpt lat="46.99067" lon="8.65301">
        <ele>560</ele>
        <time>2021-08-05T09:37:04.449Z</time>
      </trkpt>
      <trkpt lat="46.99067" lon="8.65302">
        <ele>560</ele>
        <time>2021-08-05T09:37:05.449Z</time>
      </trkpt>
      <trkpt lat="46.99067" lon="8.65304">
        <ele>559</ele>
        <time>2021-08-05T09:37:06.449Z</time>
      </trkpt>
      <trkpt lat="46.99067" lon="8.65305">
        <ele>559</ele>
        <time>2021-08-05T09:37:07.449Z</time>
      </trkpt>
      <trkpt lat="46.99068" lon="8.65307">
        <ele>559</ele>
        <time>2021-08-05T09:37:08.449Z</time>
      </trkpt>
      <trkpt lat="46.99068" lon="8.65309">
        <ele>558</ele>
        <time>2021-08-05T09:37:09.448Z</time>
      </trkpt>
      <trkpt lat="46.99068" lon="8.65311">
        <ele>558</ele>
        <time>2021-08-05T09:37:10.448Z</time>
      </trkpt>
      <trkpt lat="46.99068" lon="8.65313">
        <ele>557</ele>
        <time>2021-08-05T09:37:11.449Z</time>
      </trkpt>
      <trkpt lat="46.99067" lon="8.65315">
        <ele>557</ele>
        <time>2021-08-05T09:37:12.449Z</time>
      </trkpt>
      <trkpt lat="46.99067" lon="8.65317">
        <ele>556</ele>
        <time>2021-08-05T09:37:13.448Z</time>
      </trkpt>
      <trkpt lat="46.99067" lon="8.65318">
        <ele>556</ele>
        <time>2021-08-05T09:37:14.449Z</time>
      </trkpt>
      <trkpt lat="46.99068" lon="8.6532">
        <ele>556</ele>
        <time>2021-08-05T09:37:15.449Z</time>
      </trkpt>
      <trkpt lat="46.99068" lon="8.65322">
        <ele>556</ele>
        <time>2021-08-05T09:37:16.448Z</time>
      </trkpt>
      <trkpt lat="46.99069" lon="8.65323">
        <ele>556</ele>
        <time>2021-08-05T09:37:17.449Z</time>
      </trkpt>
      <trkpt lat="46.9907" lon="8.65325">
        <ele>556</ele>
        <time>2021-08-05T09:37:18.448Z</time>
      </trkpt>
      <trkpt lat="46.99071" lon="8.65326">
        <ele>556</ele>
        <time>2021-08-05T09:37:19.449Z</time>
      </trkpt>
      <trkpt lat="46.99071" lon="8.65328">
        <ele>556</ele>
        <time>2021-08-05T09:37:20.449Z</time>
      </trkpt>
      <trkpt lat="46.99073" lon="8.6533">
        <ele>556</ele>
        <time>2021-08-05T09:37:21.449Z</time>
      </trkpt>
      <trkpt lat="46.99073" lon="8.65332">
        <ele>556</ele>
        <time>2021-08-05T09:37:22.449Z</time>
      </trkpt>
      <trkpt lat="46.99072" lon="8.65335">
        <ele>556</ele>
        <time>2021-08-05T09:37:23.449Z</time>
      </trkpt>
      <trkpt lat="46.99072" lon="8.65337">
        <ele>557</ele>
        <time>2021-08-05T09:37:24.448Z</time>
      </trkpt>
      <trkpt lat="46.99071" lon="8.65338">
        <ele>557</ele>
        <time>2021-08-05T09:37:25.449Z</time>
      </trkpt>
      <trkpt lat="46.99072" lon="8.6534">
        <ele>557</ele>
        <time>2021-08-05T09:37:26.448Z</time>
      </trkpt>
      <trkpt lat="46.99071" lon="8.65341">
        <ele>557</ele>
        <time>2021-08-05T09:37:27.448Z</time>
      </trkpt>
      <trkpt lat="46.99071" lon="8.65343">
        <ele>556</ele>
        <time>2021-08-05T09:37:28.448Z</time>
      </trkpt>
      <trkpt lat="46.9907" lon="8.65344">
        <ele>556</ele>
        <time>2021-08-05T09:37:29.448Z</time>
      </trkpt>
      <trkpt lat="46.9907" lon="8.65345">
        <ele>556</ele>
        <time>2021-08-05T09:37:30.448Z</time>
      </trkpt>
      <trkpt lat="46.9907" lon="8.65347">
        <ele>556</ele>
        <time>2021-08-05T09:37:31.448Z</time>
      </trkpt>
      <trkpt lat="46.9907" lon="8.65349">
        <ele>557</ele>
        <time>2021-08-05T09:37:32.448Z</time>
      </trkpt>
      <trkpt lat="46.9907" lon="8.6535">
        <ele>557</ele>
        <time>2021-08-05T09:37:33.448Z</time>
      </trkpt>
      <trkpt lat="46.99069" lon="8.65352">
        <ele>556</ele>
        <time>2021-08-05T09:37:34.448Z</time>
      </trkpt>
      <trkpt lat="46.99069" lon="8.65353">
        <ele>556</ele>
        <time>2021-08-05T09:37:35.448Z</time>
      </trkpt>
      <trkpt lat="46.99069" lon="8.65355">
        <ele>556</ele>
        <time>2021-08-05T09:37:36.448Z</time>
      </trkpt>
      <trkpt lat="46.99069" lon="8.65356">
        <ele>555</ele>
        <time>2021-08-05T09:37:37.448Z</time>
      </trkpt>
      <trkpt lat="46.99069" lon="8.65358">
        <ele>555</ele>
        <time>2021-08-05T09:37:38.448Z</time>
      </trkpt>
      <trkpt lat="46.99069" lon="8.6536">
        <ele>554</ele>
        <time>2021-08-05T09:37:39.448Z</time>
      </trkpt>
      <trkpt lat="46.99068" lon="8.65361">
        <ele>554</ele>
        <time>2021-08-05T09:37:40.448Z</time>
      </trkpt>
      <trkpt lat="46.99068" lon="8.65363">
        <ele>553</ele>
        <time>2021-08-05T09:37:41.449Z</time>
      </trkpt>
      <trkpt lat="46.99067" lon="8.65364">
        <ele>553</ele>
        <time>2021-08-05T09:37:42.448Z</time>
      </trkpt>
      <trkpt lat="46.99067" lon="8.65365">
        <ele>553</ele>
        <time>2021-08-05T09:37:43.448Z</time>
      </trkpt>
      <trkpt lat="46.99066" lon="8.65366">
        <ele>552</ele>
        <time>2021-08-05T09:37:44.448Z</time>
      </trkpt>
      <trkpt lat="46.99066" lon="8.65367">
        <ele>552</ele>
        <time>2021-08-05T09:37:45.448Z</time>
      </trkpt>
      <trkpt lat="46.99065" lon="8.65369">
        <ele>552</ele>
        <time>2021-08-05T09:37:46.448Z</time>
      </trkpt>
      <trkpt lat="46.99065" lon="8.65371">
        <ele>551</ele>
        <time>2021-08-05T09:37:47.448Z</time>
      </trkpt>
      <trkpt lat="46.99064" lon="8.65373">
        <ele>551</ele>
        <time>2021-08-05T09:37:48.448Z</time>
      </trkpt>
      <trkpt lat="46.99064" lon="8.65374">
        <ele>550</ele>
        <time>2021-08-05T09:37:49.449Z</time>
      </trkpt>
      <trkpt lat="46.99063" lon="8.65376">
        <ele>550</ele>
        <time>2021-08-05T09:37:50.448Z</time>
      </trkpt>
      <trkpt lat="46.99062" lon="8.65378">
        <ele>550</ele>
        <time>2021-08-05T09:37:51.448Z</time>
      </trkpt>
      <trkpt lat="46.99062" lon="8.65379">
        <ele>549</ele>
        <time>2021-08-05T09:37:52.448Z</time>
      </trkpt>
      <trkpt lat="46.99062" lon="8.65379">
        <ele>549</ele>
        <time>2021-08-05T09:37:53.448Z</time>
      </trkpt>
      <trkpt lat="46.99062" lon="8.6538">
        <ele>548</ele>
        <time>2021-08-05T09:37:54.449Z</time>
      </trkpt>
      <trkpt lat="46.99061" lon="8.65381">
        <ele>548</ele>
        <time>2021-08-05T09:37:55.448Z</time>
      </trkpt>
      <trkpt lat="46.9906" lon="8.65383">
        <ele>548</ele>
        <time>2021-08-05T09:37:56.448Z</time>
      </trkpt>
      <trkpt lat="46.9906" lon="8.65384">
        <ele>548</ele>
        <time>2021-08-05T09:37:57.449Z</time>
      </trkpt>
      <trkpt lat="46.99059" lon="8.65386">
        <ele>548</ele>
        <time>2021-08-05T09:37:58.449Z</time>
      </trkpt>
      <trkpt lat="46.9906" lon="8.65387">
        <ele>548</ele>
        <time>2021-08-05T09:37:59.449Z</time>
      </trkpt>
      <trkpt lat="46.9906" lon="8.65388">
        <ele>548</ele>
        <time>2021-08-05T09:38:00.449Z</time>
      </trkpt>
      <trkpt lat="46.99059" lon="8.65389">
        <ele>548</ele>
        <time>2021-08-05T09:38:01.449Z</time>
      </trkpt>
      <trkpt lat="46.99059" lon="8.6539">
        <ele>548</ele>
        <time>2021-08-05T09:38:02.449Z</time>
      </trkpt>
      <trkpt lat="46.99059" lon="8.65391">
        <ele>549</ele>
        <time>2021-08-05T09:38:03.448Z</time>
      </trkpt>
      <trkpt lat="46.99059" lon="8.65391">
        <ele>549</ele>
        <time>2021-08-05T09:38:04.448Z</time>
      </trkpt>
      <trkpt lat="46.9906" lon="8.65392">
        <ele>550</ele>
        <time>2021-08-05T09:38:05.449Z</time>
      </trkpt>
      <trkpt lat="46.99059" lon="8.65392">
        <ele>551</ele>
        <time>2021-08-05T09:38:06.449Z</time>
      </trkpt>
      <trkpt lat="46.99058" lon="8.65393">
        <ele>552</ele>
        <time>2021-08-05T09:38:07.449Z</time>
      </trkpt>
      <trkpt lat="46.99057" lon="8.65394">
        <ele>553</ele>
        <time>2021-08-05T09:38:08.448Z</time>
      </trkpt>
      <trkpt lat="46.99057" lon="8.65396">
        <ele>554</ele>
        <time>2021-08-05T09:38:09.449Z</time>
      </trkpt>
      <trkpt lat="46.99057" lon="8.65397">
        <ele>555</ele>
        <time>2021-08-05T09:38:10.449Z</time>
      </trkpt>
      <trkpt lat="46.99057" lon="8.65399">
        <ele>556</ele>
        <time>2021-08-05T09:38:11.449Z</time>
      </trkpt>
      <trkpt lat="46.99056" lon="8.654">
        <ele>556</ele>
        <time>2021-08-05T09:38:12.449Z</time>
      </trkpt>
      <trkpt lat="46.99055" lon="8.65401">
        <ele>557</ele>
        <time>2021-08-05T09:38:13.448Z</time>
      </trkpt>
      <trkpt lat="46.99055" lon="8.65403">
        <ele>557</ele>
        <time>2021-08-05T09:38:14.449Z</time>
      </trkpt>
      <trkpt lat="46.99055" lon="8.65403">
        <ele>558</ele>
        <time>2021-08-05T09:38:15.448Z</time>
      </trkpt>
      <trkpt lat="46.99055" lon="8.65405">
        <ele>558</ele>
        <time>2021-08-05T09:38:16.449Z</time>
      </trkpt>
      <trkpt lat="46.99053" lon="8.65406">
        <ele>558</ele>
        <time>2021-08-05T09:38:17.449Z</time>
      </trkpt>
      <trkpt lat="46.99053" lon="8.65407">
        <ele>559</ele>
        <time>2021-08-05T09:38:18.448Z</time>
      </trkpt>
      <trkpt lat="46.99052" lon="8.65408">
        <ele>559</ele>
        <time>2021-08-05T09:38:19.449Z</time>
      </trkpt>
      <trkpt lat="46.9905" lon="8.6541">
        <ele>559</ele>
        <time>2021-08-05T09:38:20.448Z</time>
      </trkpt>
      <trkpt lat="46.99049" lon="8.65411">
        <ele>560</ele>
        <time>2021-08-05T09:38:21.448Z</time>
      </trkpt>
      <trkpt lat="46.99047" lon="8.65412">
        <ele>560</ele>
        <time>2021-08-05T09:38:22.449Z</time>
      </trkpt>
      <trkpt lat="46.99045" lon="8.65413">
        <ele>560</ele>
        <time>2021-08-05T09:38:23.449Z</time>
      </trkpt>
      <trkpt lat="46.99045" lon="8.65415">
        <ele>561</ele>
        <time>2021-08-05T09:38:24.449Z</time>
      </trkpt>
      <trkpt lat="46.99045" lon="8.65415">
        <ele>561</ele>
        <time>2021-08-05T09:38:25.449Z</time>
      </trkpt>
      <trkpt lat="46.99045" lon="8.65416">
        <ele>561</ele>
        <time>2021-08-05T09:38:26.448Z</time>
      </trkpt>
      <trkpt lat="46.99044" lon="8.65417">
        <ele>562</ele>
        <time>2021-08-05T09:38:27.449Z</time>
      </trkpt>
      <trkpt lat="46.99044" lon="8.65418">
        <ele>562</ele>
        <time>2021-08-05T09:38:28.449Z</time>
      </trkpt>
      <trkpt lat="46.99043" lon="8.65419">
        <ele>562</ele>
        <time>2021-08-05T09:38:29.449Z</time>
      </trkpt>
      <trkpt lat="46.99043" lon="8.6542">
        <ele>562</ele>
        <time>2021-08-05T09:38:30.448Z</time>
      </trkpt>
      <trkpt lat="46.99042" lon="8.65421">
        <ele>562</ele>
        <time>2021-08-05T09:38:31.449Z</time>
      </trkpt>
      <trkpt lat="46.99043" lon="8.65422">
        <ele>562</ele>
        <time>2021-08-05T09:38:32.449Z</time>
      </trkpt>
      <trkpt lat="46.99043" lon="8.65423">
        <ele>562</ele>
        <time>2021-08-05T09:38:33.449Z</time>
      </trkpt>
      <trkpt lat="46.99043" lon="8.65424">
        <ele>562</ele>
        <time>2021-08-05T09:38:34.449Z</time>
      </trkpt>
      <trkpt lat="46.99043" lon="8.65426">
        <ele>561</ele>
        <time>2021-08-05T09:38:35.448Z</time>
      </trkpt>
      <trkpt lat="46.99043" lon="8.65428">
        <ele>561</ele>
        <time>2021-08-05T09:38:36.449Z</time>
      </trkpt>
      <trkpt lat="46.99045" lon="8.65429">
        <ele>561</ele>
        <time>2021-08-05T09:38:37.449Z</time>
      </trkpt>
      <trkpt lat="46.99047" lon="8.6543">
        <ele>561</ele>
        <time>2021-08-05T09:38:38.449Z</time>
      </trkpt>
      <trkpt lat="46.99048" lon="8.65431">
        <ele>561</ele>
        <time>2021-08-05T09:38:39.449Z</time>
      </trkpt>
      <trkpt lat="46.99049" lon="8.65431">
        <ele>561</ele>
        <time>2021-08-05T09:38:40.449Z</time>
      </trkpt>
      <trkpt lat="46.9905" lon="8.65432">
        <ele>561</ele>
        <time>2021-08-05T09:38:41.449Z</time>
      </trkpt>
      <trkpt lat="46.99051" lon="8.65432">
        <ele>561</ele>
        <time>2021-08-05T09:38:42.449Z</time>
      </trkpt>
      <trkpt lat="46.99052" lon="8.65432">
        <ele>561</ele>
        <time>2021-08-05T09:38:43.449Z</time>
      </trkpt>
      <trkpt lat="46.99052" lon="8.65433">
        <ele>561</ele>
        <time>2021-08-05T09:38:44.449Z</time>
      </trkpt>
      <trkpt lat="46.99053" lon="8.65433">
        <ele>561</ele>
        <time>2021-08-05T09:38:45.448Z</time>
      </trkpt>
      <trkpt lat="46.99053" lon="8.65433">
        <ele>561</ele>
        <time>2021-08-05T09:38:46.449Z</time>
      </trkpt>
      <trkpt lat="46.99053" lon="8.65433">
        <ele>561</ele>
        <time>2021-08-05T09:38:47.448Z</time>
      </trkpt>
      <trkpt lat="46.99052" lon="8.65433">
        <ele>561</ele>
        <time>2021-08-05T09:38:48.449Z</time>
      </trkpt>
      <trkpt lat="46.99052" lon="8.65433">
        <ele>561</ele>
        <time>2021-08-05T09:38:49.448Z</time>
      </trkpt>
      <trkpt lat="46.99053" lon="8.65434">
        <ele>561</ele>
        <time>2021-08-05T09:38:50.448Z</time>
      </trkpt>
      <trkpt lat="46.99053" lon="8.65435">
        <ele>561</ele>
        <time>2021-08-05T09:38:51.449Z</time>
      </trkpt>
      <trkpt lat="46.99054" lon="8.65436">
        <ele>561</ele>
        <time>2021-08-05T09:38:52.448Z</time>
      </trkpt>
      <trkpt lat="46.99055" lon="8.65438">
        <ele>561</ele>
        <time>2021-08-05T09:38:53.448Z</time>
      </trkpt>
      <trkpt lat="46.99055" lon="8.65439">
        <ele>562</ele>
        <time>2021-08-05T09:38:54.449Z</time>
      </trkpt>
      <trkpt lat="46.99056" lon="8.6544">
        <ele>562</ele>
        <time>2021-08-05T09:38:55.449Z</time>
      </trkpt>
      <trkpt lat="46.99057" lon="8.65441">
        <ele>562</ele>
        <time>2021-08-05T09:38:56.448Z</time>
      </trkpt>
      <trkpt lat="46.99059" lon="8.65441">
        <ele>562</ele>
        <time>2021-08-05T09:38:57.449Z</time>
      </trkpt>
      <trkpt lat="46.9906" lon="8.65441">
        <ele>561</ele>
        <time>2021-08-05T09:38:58.448Z</time>
      </trkpt>
      <trkpt lat="46.99061" lon="8.65442">
        <ele>561</ele>
        <time>2021-08-05T09:38:59.449Z</time>
      </trkpt>
      <trkpt lat="46.99062" lon="8.65443">
        <ele>561</ele>
        <time>2021-08-05T09:39:00.448Z</time>
      </trkpt>
      <trkpt lat="46.99063" lon="8.65444">
        <ele>561</ele>
        <time>2021-08-05T09:39:01.449Z</time>
      </trkpt>
      <trkpt lat="46.99065" lon="8.65445">
        <ele>561</ele>
        <time>2021-08-05T09:39:02.448Z</time>
      </trkpt>
      <trkpt lat="46.99066" lon="8.65446">
        <ele>561</ele>
        <time>2021-08-05T09:39:03.449Z</time>
      </trkpt>
      <trkpt lat="46.99066" lon="8.65448">
        <ele>561</ele>
        <time>2021-08-05T09:39:04.449Z</time>
      </trkpt>
      <trkpt lat="46.99066" lon="8.6545">
        <ele>561</ele>
        <time>2021-08-05T09:39:05.449Z</time>
      </trkpt>
      <trkpt lat="46.99066" lon="8.65452">
        <ele>560</ele>
        <time>2021-08-05T09:39:06.448Z</time>
      </trkpt>
      <trkpt lat="46.99066" lon="8.65454">
        <ele>560</ele>
        <time>2021-08-05T09:39:07.448Z</time>
      </trkpt>
      <trkpt lat="46.99065" lon="8.65456">
        <ele>560</ele>
        <time>2021-08-05T09:39:08.449Z</time>
      </trkpt>
      <trkpt lat="46.99065" lon="8.65457">
        <ele>559</ele>
        <time>2021-08-05T09:39:09.449Z</time>
      </trkpt>
      <trkpt lat="46.99065" lon="8.65459">
        <ele>558</ele>
        <time>2021-08-05T09:39:10.449Z</time>
      </trkpt>
      <trkpt lat="46.99065" lon="8.6546">
        <ele>558</ele>
        <time>2021-08-05T09:39:11.449Z</time>
      </trkpt>
      <trkpt lat="46.99066" lon="8.65462">
        <ele>557</ele>
        <time>2021-08-05T09:39:12.449Z</time>
      </trkpt>
      <trkpt lat="46.99066" lon="8.65463">
        <ele>557</ele>
        <time>2021-08-05T09:39:13.448Z</time>
      </trkpt>
      <trkpt lat="46.99067" lon="8.65464">
        <ele>556</ele>
        <time>2021-08-05T09:39:14.449Z</time>
      </trkpt>
      <trkpt lat="46.99068" lon="8.65466">
        <ele>556</ele>
        <time>2021-08-05T09:39:15.449Z</time>
      </trkpt>
      <trkpt lat="46.99069" lon="8.65467">
        <ele>555</ele>
        <time>2021-08-05T09:39:16.449Z</time>
      </trkpt>
      <trkpt lat="46.99069" lon="8.65469">
        <ele>554</ele>
        <time>2021-08-05T09:39:17.448Z</time>
      </trkpt>
      <trkpt lat="46.99069" lon="8.6547">
        <ele>554</ele>
        <time>2021-08-05T09:39:18.449Z</time>
      </trkpt>
      <trkpt lat="46.99069" lon="8.65472">
        <ele>553</ele>
        <time>2021-08-05T09:39:19.449Z</time>
      </trkpt>
      <trkpt lat="46.99069" lon="8.65474">
        <ele>552</ele>
        <time>2021-08-05T09:39:20.448Z</time>
      </trkpt>
      <trkpt lat="46.99069" lon="8.65475">
        <ele>551</ele>
        <time>2021-08-05T09:39:21.449Z</time>
      </trkpt>
      <trkpt lat="46.99068" lon="8.65478">
        <ele>551</ele>
        <time>2021-08-05T09:39:22.449Z</time>
      </trkpt>
      <trkpt lat="46.99067" lon="8.65479">
        <ele>550</ele>
        <time>2021-08-05T09:39:23.449Z</time>
      </trkpt>
      <trkpt lat="46.99067" lon="8.65481">
        <ele>550</ele>
        <time>2021-08-05T09:39:24.448Z</time>
      </trkpt>
      <trkpt lat="46.99068" lon="8.65483">
        <ele>550</ele>
        <time>2021-08-05T09:39:25.448Z</time>
      </trkpt>
      <trkpt lat="46.99068" lon="8.65484">
        <ele>550</ele>
        <time>2021-08-05T09:39:26.449Z</time>
      </trkpt>
      <trkpt lat="46.99069" lon="8.65487">
        <ele>549</ele>
        <time>2021-08-05T09:39:27.449Z</time>
      </trkpt>
      <trkpt lat="46.9907" lon="8.65489">
        <ele>549</ele>
        <time>2021-08-05T09:39:28.448Z</time>
      </trkpt>
      <trkpt lat="46.9907" lon="8.65492">
        <ele>549</ele>
        <time>2021-08-05T09:39:29.449Z</time>
      </trkpt>
      <trkpt lat="46.99071" lon="8.65494">
        <ele>549</ele>
        <time>2021-08-05T09:39:30.448Z</time>
      </trkpt>
      <trkpt lat="46.99071" lon="8.65496">
        <ele>549</ele>
        <time>2021-08-05T09:39:31.449Z</time>
      </trkpt>
      <trkpt lat="46.99071" lon="8.65497">
        <ele>549</ele>
        <time>2021-08-05T09:39:32.449Z</time>
      </trkpt>
      <trkpt lat="46.99072" lon="8.65499">
        <ele>549</ele>
        <time>2021-08-05T09:39:33.448Z</time>
      </trkpt>
      <trkpt lat="46.99072" lon="8.65501">
        <ele>549</ele>
        <time>2021-08-05T09:39:34.449Z</time>
      </trkpt>
      <trkpt lat="46.99072" lon="8.65503">
        <ele>549</ele>
        <time>2021-08-05T09:39:35.449Z</time>
      </trkpt>
      <trkpt lat="46.99072" lon="8.65505">
        <ele>549</ele>
        <time>2021-08-05T09:39:36.449Z</time>
      </trkpt>
      <trkpt lat="46.99072" lon="8.65507">
        <ele>549</ele>
        <time>2021-08-05T09:39:37.449Z</time>
      </trkpt>
      <trkpt lat="46.99072" lon="8.6551">
        <ele>549</ele>
        <time>2021-08-05T09:39:38.448Z</time>
      </trkpt>
      <trkpt lat="46.99071" lon="8.65513">
        <ele>549</ele>
        <time>2021-08-05T09:39:39.449Z</time>
      </trkpt>
      <trkpt lat="46.9907" lon="8.65515">
        <ele>549</ele>
        <time>2021-08-05T09:39:40.448Z</time>
      </trkpt>
      <trkpt lat="46.99071" lon="8.65517">
        <ele>549</ele>
        <time>2021-08-05T09:39:41.448Z</time>
      </trkpt>
      <trkpt lat="46.99071" lon="8.65519">
        <ele>549</ele>
        <time>2021-08-05T09:39:42.449Z</time>
      </trkpt>
      <trkpt lat="46.99071" lon="8.65521">
        <ele>549</ele>
        <time>2021-08-05T09:39:43.449Z</time>
      </trkpt>
      <trkpt lat="46.99071" lon="8.65522">
        <ele>549</ele>
        <time>2021-08-05T09:39:44.449Z</time>
      </trkpt>
      <trkpt lat="46.99072" lon="8.65524">
        <ele>550</ele>
        <time>2021-08-05T09:39:45.449Z</time>
      </trkpt>
      <trkpt lat="46.99073" lon="8.65526">
        <ele>550</ele>
        <time>2021-08-05T09:39:46.449Z</time>
      </trkpt>
      <trkpt lat="46.99073" lon="8.65528">
        <ele>550</ele>
        <time>2021-08-05T09:39:47.449Z</time>
      </trkpt>
      <trkpt lat="46.99073" lon="8.6553">
        <ele>551</ele>
        <time>2021-08-05T09:39:48.448Z</time>
      </trkpt>
      <trkpt lat="46.99072" lon="8.65532">
        <ele>551</ele>
        <time>2021-08-05T09:39:49.449Z</time>
      </trkpt>
      <trkpt lat="46.99072" lon="8.65535">
        <ele>551</ele>
        <time>2021-08-05T09:39:50.448Z</time>
      </trkpt>
      <trkpt lat="46.99073" lon="8.65537">
        <ele>552</ele>
        <time>2021-08-05T09:39:51.449Z</time>
      </trkpt>
      <trkpt lat="46.99073" lon="8.65539">
        <ele>552</ele>
        <time>2021-08-05T09:39:52.448Z</time>
      </trkpt>
      <trkpt lat="46.99073" lon="8.65541">
        <ele>552</ele>
        <time>2021-08-05T09:39:53.448Z</time>
      </trkpt>
      <trkpt lat="46.99074" lon="8.65543">
        <ele>552</ele>
        <time>2021-08-05T09:39:54.449Z</time>
      </trkpt>
      <trkpt lat="46.99075" lon="8.65545">
        <ele>552</ele>
        <time>2021-08-05T09:39:55.449Z</time>
      </trkpt>
      <trkpt lat="46.99076" lon="8.65547">
        <ele>553</ele>
        <time>2021-08-05T09:39:56.449Z</time>
      </trkpt>
      <trkpt lat="46.99075" lon="8.65548">
        <ele>553</ele>
        <time>2021-08-05T09:39:57.449Z</time>
      </trkpt>
      <trkpt lat="46.99074" lon="8.6555">
        <ele>553</ele>
        <time>2021-08-05T09:39:58.449Z</time>
      </trkpt>
      <trkpt lat="46.99073" lon="8.65552">
        <ele>552</ele>
        <time>2021-08-05T09:39:59.449Z</time>
      </trkpt>
      <trkpt lat="46.99073" lon="8.65554">
        <ele>552</ele>
        <time>2021-08-05T09:40:00.448Z</time>
      </trkpt>
      <trkpt lat="46.99072" lon="8.65556">
        <ele>552</ele>
        <time>2021-08-05T09:40:01.449Z</time>
      </trkpt>
      <trkpt lat="46.99071" lon="8.65558">
        <ele>551</ele>
        <time>2021-08-05T09:40:02.448Z</time>
      </trkpt>
      <trkpt lat="46.99071" lon="8.6556">
        <ele>551</ele>
        <time>2021-08-05T09:40:03.449Z</time>
      </trkpt>
      <trkpt lat="46.99071" lon="8.65561">
        <ele>551</ele>
        <time>2021-08-05T09:40:04.449Z</time>
      </trkpt>
      <trkpt lat="46.99071" lon="8.65561">
        <ele>551</ele>
        <time>2021-08-05T09:40:05.449Z</time>
      </trkpt>
      <trkpt lat="46.99071" lon="8.65563">
        <ele>551</ele>
        <time>2021-08-05T09:40:06.449Z</time>
      </trkpt>
      <trkpt lat="46.9907" lon="8.65564">
        <ele>551</ele>
        <time>2021-08-05T09:40:07.448Z</time>
      </trkpt>
      <trkpt lat="46.9907" lon="8.65565">
        <ele>550</ele>
        <time>2021-08-05T09:40:08.449Z</time>
      </trkpt>
      <trkpt lat="46.9907" lon="8.65567">
        <ele>550</ele>
        <time>2021-08-05T09:40:09.448Z</time>
      </trkpt>
      <trkpt lat="46.9907" lon="8.65568">
        <ele>550</ele>
        <time>2021-08-05T09:40:10.449Z</time>
      </trkpt>
      <trkpt lat="46.99069" lon="8.65569">
        <ele>549</ele>
        <time>2021-08-05T09:40:11.448Z</time>
      </trkpt>
      <trkpt lat="46.99069" lon="8.65569">
        <ele>549</ele>
        <time>2021-08-05T09:40:12.449Z</time>
      </trkpt>
      <trkpt lat="46.99069" lon="8.65569">
        <ele>549</ele>
        <time>2021-08-05T09:40:13.448Z</time>
      </trkpt>
      <trkpt lat="46.99068" lon="8.6557">
        <ele>550</ele>
        <time>2021-08-05T09:40:14.449Z</time>
      </trkpt>
      <trkpt lat="46.99068" lon="8.6557">
        <ele>550</ele>
        <time>2021-08-05T09:40:15.449Z</time>
      </trkpt>
      <trkpt lat="46.99068" lon="8.65571">
        <ele>550</ele>
        <time>2021-08-05T09:40:16.448Z</time>
      </trkpt>
      <trkpt lat="46.99067" lon="8.65572">
        <ele>550</ele>
        <time>2021-08-05T09:40:17.449Z</time>
      </trkpt>
      <trkpt lat="46.99067" lon="8.65573">
        <ele>550</ele>
        <time>2021-08-05T09:40:18.448Z</time>
      </trkpt>
      <trkpt lat="46.99066" lon="8.65574">
        <ele>550</ele>
        <time>2021-08-05T09:40:19.449Z</time>
      </trkpt>
      <trkpt lat="46.99065" lon="8.65575">
        <ele>550</ele>
        <time>2021-08-05T09:40:20.448Z</time>
      </trkpt>
      <trkpt lat="46.99065" lon="8.65575">
        <ele>550</ele>
        <time>2021-08-05T09:40:21.449Z</time>
      </trkpt>
      <trkpt lat="46.99064" lon="8.65575">
        <ele>550</ele>
        <time>2021-08-05T09:40:22.449Z</time>
      </trkpt>
      <trkpt lat="46.99063" lon="8.65576">
        <ele>550</ele>
        <time>2021-08-05T09:40:23.449Z</time>
      </trkpt>
      <trkpt lat="46.99062" lon="8.65576">
        <ele>550</ele>
        <time>2021-08-05T09:40:24.449Z</time>
      </trkpt>
      <trkpt lat="46.99061" lon="8.65577">
        <ele>550</ele>
        <time>2021-08-05T09:40:25.449Z</time>
      </trkpt>
      <trkpt lat="46.99059" lon="8.65577">
        <ele>550</ele>
        <time>2021-08-05T09:40:26.448Z</time>
      </trkpt>
      <trkpt lat="46.99058" lon="8.65577">
        <ele>550</ele>
        <time>2021-08-05T09:40:27.449Z</time>
      </trkpt>
      <trkpt lat="46.99058" lon="8.65578">
        <ele>550</ele>
        <time>2021-08-05T09:40:28.449Z</time>
      </trkpt>
      <trkpt lat="46.99058" lon="8.65578">
        <ele>550</ele>
        <time>2021-08-05T09:40:29.449Z</time>
      </trkpt>
      <trkpt lat="46.99058" lon="8.65577">
        <ele>550</ele>
        <time>2021-08-05T09:40:30.449Z</time>
      </trkpt>
      <trkpt lat="46.99058" lon="8.65576">
        <ele>550</ele>
        <time>2021-08-05T09:40:31.448Z</time>
      </trkpt>
      <trkpt lat="46.99057" lon="8.65576">
        <ele>550</ele>
        <time>2021-08-05T09:40:32.448Z</time>
      </trkpt>
      <trkpt lat="46.99056" lon="8.65576">
        <ele>550</ele>
        <time>2021-08-05T09:40:33.448Z</time>
      </trkpt>
      <trkpt lat="46.99055" lon="8.65578">
        <ele>550</ele>
        <time>2021-08-05T09:40:34.448Z</time>
      </trkpt>
      <trkpt lat="46.99054" lon="8.65578">
        <ele>550</ele>
        <time>2021-08-05T09:40:35.448Z</time>
      </trkpt>
      <trkpt lat="46.99054" lon="8.65579">
        <ele>550</ele>
        <time>2021-08-05T09:40:36.448Z</time>
      </trkpt>
      <trkpt lat="46.99054" lon="8.6558">
        <ele>551</ele>
        <time>2021-08-05T09:40:37.448Z</time>
      </trkpt>
      <trkpt lat="46.99053" lon="8.6558">
        <ele>551</ele>
        <time>2021-08-05T09:40:38.448Z</time>
      </trkpt>
      <trkpt lat="46.99052" lon="8.6558">
        <ele>552</ele>
        <time>2021-08-05T09:40:39.448Z</time>
      </trkpt>
      <trkpt lat="46.99051" lon="8.6558">
        <ele>552</ele>
        <time>2021-08-05T09:40:40.448Z</time>
      </trkpt>
      <trkpt lat="46.9905" lon="8.65581">
        <ele>552</ele>
        <time>2021-08-05T09:40:41.448Z</time>
      </trkpt>
      <trkpt lat="46.99049" lon="8.65581">
        <ele>553</ele>
        <time>2021-08-05T09:40:42.448Z</time>
      </trkpt>
      <trkpt lat="46.99047" lon="8.65581">
        <ele>553</ele>
        <time>2021-08-05T09:40:43.448Z</time>
      </trkpt>
      <trkpt lat="46.99046" lon="8.65582">
        <ele>553</ele>
        <time>2021-08-05T09:40:44.448Z</time>
      </trkpt>
      <trkpt lat="46.99044" lon="8.65583">
        <ele>553</ele>
        <time>2021-08-05T09:40:45.448Z</time>
      </trkpt>
      <trkpt lat="46.99042" lon="8.65583">
        <ele>553</ele>
        <time>2021-08-05T09:40:46.448Z</time>
      </trkpt>
      <trkpt lat="46.99041" lon="8.65583">
        <ele>553</ele>
        <time>2021-08-05T09:40:47.448Z</time>
      </trkpt>
      <trkpt lat="46.9904" lon="8.65584">
        <ele>554</ele>
        <time>2021-08-05T09:40:48.448Z</time>
      </trkpt>
      <trkpt lat="46.99039" lon="8.65585">
        <ele>554</ele>
        <time>2021-08-05T09:40:49.448Z</time>
      </trkpt>
      <trkpt lat="46.99039" lon="8.65585">
        <ele>555</ele>
        <time>2021-08-05T09:40:50.448Z</time>
      </trkpt>
      <trkpt lat="46.99039" lon="8.65586">
        <ele>556</ele>
        <time>2021-08-05T09:40:51.448Z</time>
      </trkpt>
      <trkpt lat="46.99039" lon="8.65587">
        <ele>557</ele>
        <time>2021-08-05T09:40:52.448Z</time>
      </trkpt>
      <trkpt lat="46.99038" lon="8.65587">
        <ele>558</ele>
        <time>2021-08-05T09:40:53.448Z</time>
      </trkpt>
      <trkpt lat="46.99037" lon="8.65588">
        <ele>558</ele>
        <time>2021-08-05T09:40:54.448Z</time>
      </trkpt>
      <trkpt lat="46.99036" lon="8.65588">
        <ele>559</ele>
        <time>2021-08-05T09:40:55.448Z</time>
      </trkpt>
      <trkpt lat="46.99035" lon="8.65589">
        <ele>560</ele>
        <time>2021-08-05T09:40:56.448Z</time>
      </trkpt>
      <trkpt lat="46.99034" lon="8.65591">
        <ele>560</ele>
        <time>2021-08-05T09:40:57.448Z</time>
      </trkpt>
      <trkpt lat="46.99033" lon="8.65592">
        <ele>561</ele>
        <time>2021-08-05T09:40:58.448Z</time>
      </trkpt>
      <trkpt lat="46.99033" lon="8.65593">
        <ele>561</ele>
        <time>2021-08-05T09:40:59.448Z</time>
      </trkpt>
      <trkpt lat="46.99032" lon="8.65594">
        <ele>562</ele>
        <time>2021-08-05T09:41:00.448Z</time>
      </trkpt>
      <trkpt lat="46.9903" lon="8.65595">
        <ele>562</ele>
        <time>2021-08-05T09:41:01.448Z</time>
      </trkpt>
      <trkpt lat="46.99028" lon="8.65596">
        <ele>563</ele>
        <time>2021-08-05T09:41:02.448Z</time>
      </trkpt>
      <trkpt lat="46.99025" lon="8.65598">
        <ele>563</ele>
        <time>2021-08-05T09:41:03.448Z</time>
      </trkpt>
      <trkpt lat="46.99022" lon="8.65599">
        <ele>564</ele>
        <time>2021-08-05T09:41:04.448Z</time>
      </trkpt>
      <trkpt lat="46.99021" lon="8.656">
        <ele>564</ele>
        <time>2021-08-05T09:41:05.448Z</time>
      </trkpt>
      <trkpt lat="46.99021" lon="8.65601">
        <ele>565</ele>
        <time>2021-08-05T09:41:06.448Z</time>
      </trkpt>
      <trkpt lat="46.9902" lon="8.65601">
        <ele>565</ele>
        <time>2021-08-05T09:41:07.448Z</time>
      </trkpt>
      <trkpt lat="46.9902" lon="8.65602">
        <ele>566</ele>
        <time>2021-08-05T09:41:08.448Z</time>
      </trkpt>
      <trkpt lat="46.9902" lon="8.65603">
        <ele>566</ele>
        <time>2021-08-05T09:41:09.448Z</time>
      </trkpt>
      <trkpt lat="46.99019" lon="8.65604">
        <ele>567</ele>
        <time>2021-08-05T09:41:10.448Z</time>
      </trkpt>
      <trkpt lat="46.99018" lon="8.65605">
        <ele>568</ele>
        <time>2021-08-05T09:41:11.448Z</time>
      </trkpt>
      <trkpt lat="46.99017" lon="8.65607">
        <ele>568</ele>
        <time>2021-08-05T09:41:12.448Z</time>
      </trkpt>
      <trkpt lat="46.99016" lon="8.65608">
        <ele>569</ele>
        <time>2021-08-05T09:41:13.448Z</time>
      </trkpt>
      <trkpt lat="46.99014" lon="8.6561">
        <ele>569</ele>
        <time>2021-08-05T09:41:14.448Z</time>
      </trkpt>
      <trkpt lat="46.99013" lon="8.65612">
        <ele>570</ele>
        <time>2021-08-05T09:41:15.448Z</time>
      </trkpt>
      <trkpt lat="46.99013" lon="8.65613">
        <ele>570</ele>
        <time>2021-08-05T09:41:16.448Z</time>
      </trkpt>
      <trkpt lat="46.99012" lon="8.65613">
        <ele>571</ele>
        <time>2021-08-05T09:41:17.448Z</time>
      </trkpt>
      <trkpt lat="46.99011" lon="8.65613">
        <ele>571</ele>
        <time>2021-08-05T09:41:18.448Z</time>
      </trkpt>
      <trkpt lat="46.9901" lon="8.65613">
        <ele>572</ele>
        <time>2021-08-05T09:41:19.448Z</time>
      </trkpt>
      <trkpt lat="46.99009" lon="8.65614">
        <ele>572</ele>
        <time>2021-08-05T09:41:20.448Z</time>
      </trkpt>
      <trkpt lat="46.99008" lon="8.65616">
        <ele>573</ele>
        <time>2021-08-05T09:41:21.448Z</time>
      </trkpt>
      <trkpt lat="46.99006" lon="8.65618">
        <ele>573</ele>
        <time>2021-08-05T09:41:22.448Z</time>
      </trkpt>
      <trkpt lat="46.99006" lon="8.65621">
        <ele>574</ele>
        <time>2021-08-05T09:41:23.448Z</time>
      </trkpt>
      <trkpt lat="46.99007" lon="8.65623">
        <ele>574</ele>
        <time>2021-08-05T09:41:24.448Z</time>
      </trkpt>
      <trkpt lat="46.99008" lon="8.65625">
        <ele>575</ele>
        <time>2021-08-05T09:41:25.448Z</time>
      </trkpt>
      <trkpt lat="46.99009" lon="8.65627">
        <ele>575</ele>
        <time>2021-08-05T09:41:26.448Z</time>
      </trkpt>
      <trkpt lat="46.99008" lon="8.65629">
        <ele>576</ele>
        <time>2021-08-05T09:41:27.448Z</time>
      </trkpt>
      <trkpt lat="46.99009" lon="8.65631">
        <ele>576</ele>
        <time>2021-08-05T09:41:28.448Z</time>
      </trkpt>
      <trkpt lat="46.99009" lon="8.65633">
        <ele>577</ele>
        <time>2021-08-05T09:41:29.448Z</time>
      </trkpt>
      <trkpt lat="46.99011" lon="8.65634">
        <ele>577</ele>
        <time>2021-08-05T09:41:30.448Z</time>
      </trkpt>
      <trkpt lat="46.99013" lon="8.65635">
        <ele>578</ele>
        <time>2021-08-05T09:41:31.448Z</time>
      </trkpt>
      <trkpt lat="46.99013" lon="8.65635">
        <ele>578</ele>
        <time>2021-08-05T09:41:32.448Z</time>
      </trkpt>
      <trkpt lat="46.99014" lon="8.65635">
        <ele>579</ele>
        <time>2021-08-05T09:41:33.448Z</time>
      </trkpt>
      <trkpt lat="46.99014" lon="8.65636">
        <ele>579</ele>
        <time>2021-08-05T09:41:34.448Z</time>
      </trkpt>
      <trkpt lat="46.99014" lon="8.65637">
        <ele>580</ele>
        <time>2021-08-05T09:41:35.448Z</time>
      </trkpt>
      <trkpt lat="46.99014" lon="8.65638">
        <ele>580</ele>
        <time>2021-08-05T09:41:36.448Z</time>
      </trkpt>
      <trkpt lat="46.99015" lon="8.6564">
        <ele>581</ele>
        <time>2021-08-05T09:41:37.448Z</time>
      </trkpt>
      <trkpt lat="46.99015" lon="8.6564">
        <ele>581</ele>
        <time>2021-08-05T09:41:38.448Z</time>
      </trkpt>
      <trkpt lat="46.99015" lon="8.65641">
        <ele>581</ele>
        <time>2021-08-05T09:41:39.448Z</time>
      </trkpt>
      <trkpt lat="46.99015" lon="8.65642">
        <ele>581</ele>
        <time>2021-08-05T09:41:40.448Z</time>
      </trkpt>
      <trkpt lat="46.99016" lon="8.65643">
        <ele>582</ele>
        <time>2021-08-05T09:41:41.448Z</time>
      </trkpt>
      <trkpt lat="46.99016" lon="8.65644">
        <ele>582</ele>
        <time>2021-08-05T09:41:42.448Z</time>
      </trkpt>
      <trkpt lat="46.99016" lon="8.65645">
        <ele>582</ele>
        <time>2021-08-05T09:41:43.448Z</time>
      </trkpt>
      <trkpt lat="46.99018" lon="8.65645">
        <ele>583</ele>
        <time>2021-08-05T09:41:44.448Z</time>
      </trkpt>
      <trkpt lat="46.99018" lon="8.65646">
        <ele>583</ele>
        <time>2021-08-05T09:41:45.448Z</time>
      </trkpt>
      <trkpt lat="46.99019" lon="8.65646">
        <ele>583</ele>
        <time>2021-08-05T09:41:46.448Z</time>
      </trkpt>
      <trkpt lat="46.9902" lon="8.65647">
        <ele>583</ele>
        <time>2021-08-05T09:41:47.448Z</time>
      </trkpt>
      <trkpt lat="46.99021" lon="8.65648">
        <ele>583</ele>
        <time>2021-08-05T09:41:48.448Z</time>
      </trkpt>
      <trkpt lat="46.99021" lon="8.65649">
        <ele>583</ele>
        <time>2021-08-05T09:41:49.448Z</time>
      </trkpt>
      <trkpt lat="46.99021" lon="8.6565">
        <ele>583</ele>
        <time>2021-08-05T09:41:50.448Z</time>
      </trkpt>
      <trkpt lat="46.99021" lon="8.65651">
        <ele>583</ele>
        <time>2021-08-05T09:41:51.448Z</time>
      </trkpt>
      <trkpt lat="46.99021" lon="8.65651">
        <ele>583</ele>
        <time>2021-08-05T09:41:52.448Z</time>
      </trkpt>
      <trkpt lat="46.99022" lon="8.65652">
        <ele>584</ele>
        <time>2021-08-05T09:41:53.448Z</time>
      </trkpt>
      <trkpt lat="46.99024" lon="8.65653">
        <ele>584</ele>
        <time>2021-08-05T09:41:54.448Z</time>
      </trkpt>
      <trkpt lat="46.99025" lon="8.65655">
        <ele>584</ele>
        <time>2021-08-05T09:41:55.448Z</time>
      </trkpt>
      <trkpt lat="46.99025" lon="8.65656">
        <ele>584</ele>
        <time>2021-08-05T09:41:56.448Z</time>
      </trkpt>
      <trkpt lat="46.99025" lon="8.65658">
        <ele>584</ele>
        <time>2021-08-05T09:41:57.448Z</time>
      </trkpt>
      <trkpt lat="46.99026" lon="8.65659">
        <ele>584</ele>
        <time>2021-08-05T09:41:58.448Z</time>
      </trkpt>
      <trkpt lat="46.99027" lon="8.65661">
        <ele>584</ele>
        <time>2021-08-05T09:41:59.448Z</time>
      </trkpt>
      <trkpt lat="46.99028" lon="8.65663">
        <ele>584</ele>
        <time>2021-08-05T09:42:00.448Z</time>
      </trkpt>
      <trkpt lat="46.99029" lon="8.65664">
        <ele>584</ele>
        <time>2021-08-05T09:42:01.448Z</time>
      </trkpt>
      <trkpt lat="46.9903" lon="8.65666">
        <ele>584</ele>
        <time>2021-08-05T09:42:02.448Z</time>
      </trkpt>
      <trkpt lat="46.99031" lon="8.65667">
        <ele>584</ele>
        <time>2021-08-05T09:42:03.448Z</time>
      </trkpt>
      <trkpt lat="46.99032" lon="8.65668">
        <ele>584</ele>
        <time>2021-08-05T09:42:04.448Z</time>
      </trkpt>
      <trkpt lat="46.99032" lon="8.6567">
        <ele>584</ele>
        <time>2021-08-05T09:42:05.448Z</time>
      </trkpt>
      <trkpt lat="46.99033" lon="8.65674">
        <ele>583</ele>
        <time>2021-08-05T09:42:06.448Z</time>
      </trkpt>
      <trkpt lat="46.99032" lon="8.65675">
        <ele>582</ele>
        <time>2021-08-05T09:42:07.448Z</time>
      </trkpt>
      <trkpt lat="46.99033" lon="8.65677">
        <ele>582</ele>
        <time>2021-08-05T09:42:08.448Z</time>
      </trkpt>
      <trkpt lat="46.99033" lon="8.65678">
        <ele>581</ele>
        <time>2021-08-05T09:42:09.448Z</time>
      </trkpt>
      <trkpt lat="46.99032" lon="8.65679">
        <ele>580</ele>
        <time>2021-08-05T09:42:10.448Z</time>
      </trkpt>
      <trkpt lat="46.99031" lon="8.65681">
        <ele>579</ele>
        <time>2021-08-05T09:42:11.448Z</time>
      </trkpt>
      <trkpt lat="46.99031" lon="8.65682">
        <ele>578</ele>
        <time>2021-08-05T09:42:12.448Z</time>
      </trkpt>
      <trkpt lat="46.99032" lon="8.65683">
        <ele>577</ele>
        <time>2021-08-05T09:42:13.448Z</time>
      </trkpt>
      <trkpt lat="46.99031" lon="8.65684">
        <ele>577</ele>
        <time>2021-08-05T09:42:14.448Z</time>
      </trkpt>
      <trkpt lat="46.9903" lon="8.65685">
        <ele>576</ele>
        <time>2021-08-05T09:42:15.448Z</time>
      </trkpt>
      <trkpt lat="46.9903" lon="8.65686">
        <ele>575</ele>
        <time>2021-08-05T09:42:16.448Z</time>
      </trkpt>
      <trkpt lat="46.99029" lon="8.65686">
        <ele>574</ele>
        <time>2021-08-05T09:42:17.448Z</time>
      </trkpt>
      <trkpt lat="46.99028" lon="8.65687">
        <ele>573</ele>
        <time>2021-08-05T09:42:18.448Z</time>
      </trkpt>
      <trkpt lat="46.99028" lon="8.65688">
        <ele>573</ele>
        <time>2021-08-05T09:42:19.448Z</time>
      </trkpt>
      <trkpt lat="46.99028" lon="8.65689">
        <ele>572</ele>
        <time>2021-08-05T09:42:20.448Z</time>
      </trkpt>
      <trkpt lat="46.99028" lon="8.65691">
        <ele>571</ele>
        <time>2021-08-05T09:42:21.448Z</time>
      </trkpt>
      <trkpt lat="46.99028" lon="8.65692">
        <ele>571</ele>
        <time>2021-08-05T09:42:22.448Z</time>
      </trkpt>
      <trkpt lat="46.99028" lon="8.65694">
        <ele>570</ele>
        <time>2021-08-05T09:42:23.448Z</time>
      </trkpt>
      <trkpt lat="46.99029" lon="8.65695">
        <ele>570</ele>
        <time>2021-08-05T09:42:24.448Z</time>
      </trkpt>
      <trkpt lat="46.9903" lon="8.65696">
        <ele>569</ele>
        <time>2021-08-05T09:42:25.448Z</time>
      </trkpt>
      <trkpt lat="46.99031" lon="8.65696">
        <ele>569</ele>
        <time>2021-08-05T09:42:26.448Z</time>
      </trkpt>
      <trkpt lat="46.99031" lon="8.65697">
        <ele>568</ele>
        <time>2021-08-05T09:42:27.448Z</time>
      </trkpt>
      <trkpt lat="46.9903" lon="8.65698">
        <ele>568</ele>
        <time>2021-08-05T09:42:28.448Z</time>
      </trkpt>
      <trkpt lat="46.9903" lon="8.657">
        <ele>568</ele>
        <time>2021-08-05T09:42:29.448Z</time>
      </trkpt>
      <trkpt lat="46.9903" lon="8.65701">
        <ele>568</ele>
        <time>2021-08-05T09:42:30.448Z</time>
      </trkpt>
      <trkpt lat="46.99031" lon="8.65701">
        <ele>568</ele>
        <time>2021-08-05T09:42:31.448Z</time>
      </trkpt>
      <trkpt lat="46.9903" lon="8.65702">
        <ele>568</ele>
        <time>2021-08-05T09:42:32.448Z</time>
      </trkpt>
      <trkpt lat="46.99029" lon="8.65703">
        <ele>568</ele>
        <time>2021-08-05T09:42:33.448Z</time>
      </trkpt>
      <trkpt lat="46.99028" lon="8.65704">
        <ele>568</ele>
        <time>2021-08-05T09:42:34.448Z</time>
      </trkpt>
      <trkpt lat="46.99028" lon="8.65705">
        <ele>568</ele>
        <time>2021-08-05T09:42:35.448Z</time>
      </trkpt>
      <trkpt lat="46.99028" lon="8.65707">
        <ele>567</ele>
        <time>2021-08-05T09:42:36.448Z</time>
      </trkpt>
      <trkpt lat="46.99028" lon="8.65708">
        <ele>567</ele>
        <time>2021-08-05T09:42:37.448Z</time>
      </trkpt>
      <trkpt lat="46.99029" lon="8.65711">
        <ele>567</ele>
        <time>2021-08-05T09:42:38.448Z</time>
      </trkpt>
      <trkpt lat="46.99029" lon="8.65714">
        <ele>567</ele>
        <time>2021-08-05T09:42:39.448Z</time>
      </trkpt>
      <trkpt lat="46.9903" lon="8.65716">
        <ele>566</ele>
        <time>2021-08-05T09:42:40.448Z</time>
      </trkpt>
      <trkpt lat="46.99031" lon="8.65718">
        <ele>566</ele>
        <time>2021-08-05T09:42:41.448Z</time>
      </trkpt>
      <trkpt lat="46.99033" lon="8.65719">
        <ele>566</ele>
        <time>2021-08-05T09:42:42.448Z</time>
      </trkpt>
      <trkpt lat="46.99034" lon="8.65721">
        <ele>565</ele>
        <time>2021-08-05T09:42:43.448Z</time>
      </trkpt>
      <trkpt lat="46.99035" lon="8.65723">
        <ele>565</ele>
        <time>2021-08-05T09:42:44.448Z</time>
      </trkpt>
      <trkpt lat="46.99036" lon="8.65725">
        <ele>565</ele>
        <time>2021-08-05T09:42:45.448Z</time>
      </trkpt>
      <trkpt lat="46.99037" lon="8.65727">
        <ele>565</ele>
        <time>2021-08-05T09:42:46.448Z</time>
      </trkpt>
      <trkpt lat="46.99037" lon="8.6573">
        <ele>565</ele>
        <time>2021-08-05T09:42:47.448Z</time>
      </trkpt>
      <trkpt lat="46.99038" lon="8.65732">
        <ele>565</ele>
        <time>2021-08-05T09:42:48.448Z</time>
      </trkpt>
      <trkpt lat="46.99039" lon="8.65734">
        <ele>565</ele>
        <time>2021-08-05T09:42:49.448Z</time>
      </trkpt>
      <trkpt lat="46.99039" lon="8.65736">
        <ele>565</ele>
        <time>2021-08-05T09:42:50.448Z</time>
      </trkpt>
      <trkpt lat="46.99039" lon="8.65739">
        <ele>565</ele>
        <time>2021-08-05T09:42:51.448Z</time>
      </trkpt>
      <trkpt lat="46.99041" lon="8.65742">
        <ele>565</ele>
        <time>2021-08-05T09:42:52.448Z</time>
      </trkpt>
      <trkpt lat="46.99043" lon="8.65745">
        <ele>565</ele>
        <time>2021-08-05T09:42:53.448Z</time>
      </trkpt>
      <trkpt lat="46.99045" lon="8.65747">
        <ele>565</ele>
        <time>2021-08-05T09:42:54.448Z</time>
      </trkpt>
      <trkpt lat="46.99046" lon="8.65748">
        <ele>565</ele>
        <time>2021-08-05T09:42:55.448Z</time>
      </trkpt>
      <trkpt lat="46.99048" lon="8.65749">
        <ele>565</ele>
        <time>2021-08-05T09:42:56.448Z</time>
      </trkpt>
      <trkpt lat="46.9905" lon="8.6575">
        <ele>565</ele>
        <time>2021-08-05T09:42:57.448Z</time>
      </trkpt>
      <trkpt lat="46.9905" lon="8.65751">
        <ele>565</ele>
        <time>2021-08-05T09:42:58.448Z</time>
      </trkpt>
      <trkpt lat="46.9905" lon="8.65754">
        <ele>565</ele>
        <time>2021-08-05T09:42:59.448Z</time>
      </trkpt>
      <trkpt lat="46.99051" lon="8.65757">
        <ele>565</ele>
        <time>2021-08-05T09:43:00.448Z</time>
      </trkpt>
      <trkpt lat="46.99053" lon="8.65759">
        <ele>566</ele>
        <time>2021-08-05T09:43:01.448Z</time>
      </trkpt>
      <trkpt lat="46.99055" lon="8.65759">
        <ele>566</ele>
        <time>2021-08-05T09:43:02.448Z</time>
      </trkpt>
      <trkpt lat="46.99056" lon="8.6576">
        <ele>566</ele>
        <time>2021-08-05T09:43:03.448Z</time>
      </trkpt>
      <trkpt lat="46.99056" lon="8.65762">
        <ele>566</ele>
        <time>2021-08-05T09:43:04.448Z</time>
      </trkpt>
      <trkpt lat="46.99056" lon="8.65764">
        <ele>567</ele>
        <time>2021-08-05T09:43:05.448Z</time>
      </trkpt>
      <trkpt lat="46.99055" lon="8.65766">
        <ele>567</ele>
        <time>2021-08-05T09:43:06.448Z</time>
      </trkpt>
      <trkpt lat="46.99054" lon="8.65767">
        <ele>567</ele>
        <time>2021-08-05T09:43:07.448Z</time>
      </trkpt>
      <trkpt lat="46.99054" lon="8.65769">
        <ele>567</ele>
        <time>2021-08-05T09:43:08.448Z</time>
      </trkpt>
      <trkpt lat="46.99055" lon="8.6577">
        <ele>567</ele>
        <time>2021-08-05T09:43:09.448Z</time>
      </trkpt>
      <trkpt lat="46.99054" lon="8.65771">
        <ele>567</ele>
        <time>2021-08-05T09:43:10.448Z</time>
      </trkpt>
      <trkpt lat="46.99054" lon="8.65772">
        <ele>567</ele>
        <time>2021-08-05T09:43:11.448Z</time>
      </trkpt>
      <trkpt lat="46.99055" lon="8.65773">
        <ele>567</ele>
        <time>2021-08-05T09:43:12.448Z</time>
      </trkpt>
      <trkpt lat="46.99054" lon="8.65774">
        <ele>567</ele>
        <time>2021-08-05T09:43:13.448Z</time>
      </trkpt>
      <trkpt lat="46.99054" lon="8.65775">
        <ele>567</ele>
        <time>2021-08-05T09:43:14.448Z</time>
      </trkpt>
      <trkpt lat="46.99054" lon="8.65777">
        <ele>567</ele>
        <time>2021-08-05T09:43:15.448Z</time>
      </trkpt>
      <trkpt lat="46.99054" lon="8.65778">
        <ele>567</ele>
        <time>2021-08-05T09:43:16.448Z</time>
      </trkpt>
      <trkpt lat="46.99055" lon="8.65779">
        <ele>567</ele>
        <time>2021-08-05T09:43:17.448Z</time>
      </trkpt>
      <trkpt lat="46.99055" lon="8.6578">
        <ele>566</ele>
        <time>2021-08-05T09:43:18.448Z</time>
      </trkpt>
      <trkpt lat="46.99056" lon="8.6578">
        <ele>566</ele>
        <time>2021-08-05T09:43:19.448Z</time>
      </trkpt>
      <trkpt lat="46.99057" lon="8.65781">
        <ele>566</ele>
        <time>2021-08-05T09:43:20.448Z</time>
      </trkpt>
      <trkpt lat="46.99057" lon="8.65782">
        <ele>566</ele>
        <time>2021-08-05T09:43:21.448Z</time>
      </trkpt>
      <trkpt lat="46.99057" lon="8.65783">
        <ele>566</ele>
        <time>2021-08-05T09:43:22.448Z</time>
      </trkpt>
      <trkpt lat="46.99057" lon="8.65785">
        <ele>566</ele>
        <time>2021-08-05T09:43:23.448Z</time>
      </trkpt>
      <trkpt lat="46.99057" lon="8.65786">
        <ele>566</ele>
        <time>2021-08-05T09:43:24.448Z</time>
      </trkpt>
      <trkpt lat="46.99058" lon="8.65788">
        <ele>566</ele>
        <time>2021-08-05T09:43:25.448Z</time>
      </trkpt>
      <trkpt lat="46.99058" lon="8.65789">
        <ele>566</ele>
        <time>2021-08-05T09:43:26.448Z</time>
      </trkpt>
      <trkpt lat="46.99059" lon="8.65791">
        <ele>566</ele>
        <time>2021-08-05T09:43:27.448Z</time>
      </trkpt>
      <trkpt lat="46.99059" lon="8.65792">
        <ele>566</ele>
        <time>2021-08-05T09:43:28.448Z</time>
      </trkpt>
      <trkpt lat="46.99059" lon="8.65793">
        <ele>566</ele>
        <time>2021-08-05T09:43:29.448Z</time>
      </trkpt>
      <trkpt lat="46.99059" lon="8.65795">
        <ele>566</ele>
        <time>2021-08-05T09:43:30.448Z</time>
      </trkpt>
      <trkpt lat="46.99059" lon="8.65797">
        <ele>566</ele>
        <time>2021-08-05T09:43:31.448Z</time>
      </trkpt>
      <trkpt lat="46.99059" lon="8.65799">
        <ele>565</ele>
        <time>2021-08-05T09:43:32.448Z</time>
      </trkpt>
      <trkpt lat="46.99059" lon="8.65801">
        <ele>565</ele>
        <time>2021-08-05T09:43:33.448Z</time>
      </trkpt>
      <trkpt lat="46.99059" lon="8.65803">
        <ele>564</ele>
        <time>2021-08-05T09:43:34.448Z</time>
      </trkpt>
      <trkpt lat="46.9906" lon="8.65804">
        <ele>564</ele>
        <time>2021-08-05T09:43:35.448Z</time>
      </trkpt>
      <trkpt lat="46.99061" lon="8.65806">
        <ele>563</ele>
        <time>2021-08-05T09:43:36.448Z</time>
      </trkpt>
      <trkpt lat="46.99062" lon="8.65808">
        <ele>563</ele>
        <time>2021-08-05T09:43:37.448Z</time>
      </trkpt>
      <trkpt lat="46.99063" lon="8.65809">
        <ele>562</ele>
        <time>2021-08-05T09:43:38.448Z</time>
      </trkpt>
      <trkpt lat="46.99064" lon="8.6581">
        <ele>562</ele>
        <time>2021-08-05T09:43:39.448Z</time>
      </trkpt>
      <trkpt lat="46.99064" lon="8.65812">
        <ele>562</ele>
        <time>2021-08-05T09:43:40.448Z</time>
      </trkpt>
      <trkpt lat="46.99064" lon="8.65815">
        <ele>561</ele>
        <time>2021-08-05T09:43:41.448Z</time>
      </trkpt>
      <trkpt lat="46.99064" lon="8.65816">
        <ele>561</ele>
        <time>2021-08-05T09:43:42.448Z</time>
      </trkpt>
      <trkpt lat="46.99064" lon="8.65818">
        <ele>560</ele>
        <time>2021-08-05T09:43:43.448Z</time>
      </trkpt>
      <trkpt lat="46.99064" lon="8.65819">
        <ele>559</ele>
        <time>2021-08-05T09:43:44.448Z</time>
      </trkpt>
      <trkpt lat="46.99064" lon="8.65822">
        <ele>559</ele>
        <time>2021-08-05T09:43:45.448Z</time>
      </trkpt>
      <trkpt lat="46.99064" lon="8.65823">
        <ele>558</ele>
        <time>2021-08-05T09:43:46.448Z</time>
      </trkpt>
      <trkpt lat="46.99064" lon="8.65824">
        <ele>557</ele>
        <time>2021-08-05T09:43:47.448Z</time>
      </trkpt>
      <trkpt lat="46.99064" lon="8.65826">
        <ele>557</ele>
        <time>2021-08-05T09:43:48.448Z</time>
      </trkpt>
      <trkpt lat="46.99064" lon="8.65827">
        <ele>556</ele>
        <time>2021-08-05T09:43:49.448Z</time>
      </trkpt>
      <trkpt lat="46.99063" lon="8.65828">
        <ele>556</ele>
        <time>2021-08-05T09:43:50.448Z</time>
      </trkpt>
      <trkpt lat="46.99063" lon="8.65829">
        <ele>556</ele>
        <time>2021-08-05T09:43:51.448Z</time>
      </trkpt>
      <trkpt lat="46.99062" lon="8.6583">
        <ele>555</ele>
        <time>2021-08-05T09:43:52.448Z</time>
      </trkpt>
      <trkpt lat="46.99062" lon="8.65831">
        <ele>555</ele>
        <time>2021-08-05T09:43:53.448Z</time>
      </trkpt>
      <trkpt lat="46.99061" lon="8.65833">
        <ele>555</ele>
        <time>2021-08-05T09:43:54.448Z</time>
      </trkpt>
      <trkpt lat="46.99062" lon="8.65833">
        <ele>555</ele>
        <time>2021-08-05T09:43:55.448Z</time>
      </trkpt>
      <trkpt lat="46.99062" lon="8.65834">
        <ele>555</ele>
        <time>2021-08-05T09:43:56.448Z</time>
      </trkpt>
      <trkpt lat="46.99063" lon="8.65836">
        <ele>555</ele>
        <time>2021-08-05T09:43:57.448Z</time>
      </trkpt>
      <trkpt lat="46.99064" lon="8.65837">
        <ele>555</ele>
        <time>2021-08-05T09:43:58.448Z</time>
      </trkpt>
      <trkpt lat="46.99065" lon="8.65838">
        <ele>555</ele>
        <time>2021-08-05T09:43:59.448Z</time>
      </trkpt>
      <trkpt lat="46.99065" lon="8.65839">
        <ele>555</ele>
        <time>2021-08-05T09:44:00.448Z</time>
      </trkpt>
      <trkpt lat="46.99064" lon="8.65841">
        <ele>555</ele>
        <time>2021-08-05T09:44:01.448Z</time>
      </trkpt>
      <trkpt lat="46.99065" lon="8.65843">
        <ele>555</ele>
        <time>2021-08-05T09:44:02.448Z</time>
      </trkpt>
      <trkpt lat="46.99066" lon="8.65844">
        <ele>555</ele>
        <time>2021-08-05T09:44:03.448Z</time>
      </trkpt>
      <trkpt lat="46.99067" lon="8.65846">
        <ele>555</ele>
        <time>2021-08-05T09:44:04.448Z</time>
      </trkpt>
      <trkpt lat="46.99068" lon="8.65847">
        <ele>555</ele>
        <time>2021-08-05T09:44:05.448Z</time>
      </trkpt>
      <trkpt lat="46.99069" lon="8.65848">
        <ele>555</ele>
        <time>2021-08-05T09:44:06.448Z</time>
      </trkpt>
      <trkpt lat="46.9907" lon="8.65849">
        <ele>554</ele>
        <time>2021-08-05T09:44:07.448Z</time>
      </trkpt>
      <trkpt lat="46.9907" lon="8.65851">
        <ele>554</ele>
        <time>2021-08-05T09:44:08.448Z</time>
      </trkpt>
      <trkpt lat="46.99071" lon="8.65853">
        <ele>554</ele>
        <time>2021-08-05T09:44:09.448Z</time>
      </trkpt>
      <trkpt lat="46.99071" lon="8.65854">
        <ele>553</ele>
        <time>2021-08-05T09:44:10.448Z</time>
      </trkpt>
      <trkpt lat="46.99072" lon="8.65856">
        <ele>553</ele>
        <time>2021-08-05T09:44:11.448Z</time>
      </trkpt>
      <trkpt lat="46.99072" lon="8.65857">
        <ele>552</ele>
        <time>2021-08-05T09:44:12.448Z</time>
      </trkpt>
      <trkpt lat="46.99072" lon="8.65859">
        <ele>552</ele>
        <time>2021-08-05T09:44:13.448Z</time>
      </trkpt>
      <trkpt lat="46.99072" lon="8.65861">
        <ele>552</ele>
        <time>2021-08-05T09:44:14.448Z</time>
      </trkpt>
      <trkpt lat="46.99071" lon="8.65863">
        <ele>553</ele>
        <time>2021-08-05T09:44:15.448Z</time>
      </trkpt>
      <trkpt lat="46.9907" lon="8.65866">
        <ele>553</ele>
        <time>2021-08-05T09:44:16.448Z</time>
      </trkpt>
      <trkpt lat="46.99071" lon="8.65867">
        <ele>553</ele>
        <time>2021-08-05T09:44:17.448Z</time>
      </trkpt>
      <trkpt lat="46.9907" lon="8.6587">
        <ele>553</ele>
        <time>2021-08-05T09:44:18.448Z</time>
      </trkpt>
      <trkpt lat="46.99071" lon="8.65873">
        <ele>554</ele>
        <time>2021-08-05T09:44:19.448Z</time>
      </trkpt>
      <trkpt lat="46.99071" lon="8.65875">
        <ele>554</ele>
        <time>2021-08-05T09:44:20.448Z</time>
      </trkpt>
      <trkpt lat="46.99071" lon="8.65876">
        <ele>554</ele>
        <time>2021-08-05T09:44:21.448Z</time>
      </trkpt>
      <trkpt lat="46.99071" lon="8.65878">
        <ele>554</ele>
        <time>2021-08-05T09:44:22.448Z</time>
      </trkpt>
      <trkpt lat="46.9907" lon="8.6588">
        <ele>555</ele>
        <time>2021-08-05T09:44:23.448Z</time>
      </trkpt>
      <trkpt lat="46.99069" lon="8.65882">
        <ele>555</ele>
        <time>2021-08-05T09:44:24.448Z</time>
      </trkpt>
      <trkpt lat="46.99068" lon="8.65884">
        <ele>555</ele>
        <time>2021-08-05T09:44:25.448Z</time>
      </trkpt>
      <trkpt lat="46.99067" lon="8.65885">
        <ele>556</ele>
        <time>2021-08-05T09:44:26.448Z</time>
      </trkpt>
      <trkpt lat="46.99066" lon="8.65887">
        <ele>556</ele>
        <time>2021-08-05T09:44:27.448Z</time>
      </trkpt>
      <trkpt lat="46.99066" lon="8.65888">
        <ele>557</ele>
        <time>2021-08-05T09:44:28.448Z</time>
      </trkpt>
      <trkpt lat="46.99066" lon="8.6589">
        <ele>557</ele>
        <time>2021-08-05T09:44:29.448Z</time>
      </trkpt>
      <trkpt lat="46.99065" lon="8.65893">
        <ele>558</ele>
        <time>2021-08-05T09:44:30.448Z</time>
      </trkpt>
      <trkpt lat="46.99065" lon="8.65895">
        <ele>558</ele>
        <time>2021-08-05T09:44:31.448Z</time>
      </trkpt>
      <trkpt lat="46.99067" lon="8.65897">
        <ele>558</ele>
        <time>2021-08-05T09:44:32.448Z</time>
      </trkpt>
      <trkpt lat="46.99067" lon="8.65899">
        <ele>559</ele>
        <time>2021-08-05T09:44:33.448Z</time>
      </trkpt>
      <trkpt lat="46.99067" lon="8.65901">
        <ele>559</ele>
        <time>2021-08-05T09:44:34.448Z</time>
      </trkpt>
      <trkpt lat="46.99067" lon="8.65903">
        <ele>559</ele>
        <time>2021-08-05T09:44:35.448Z</time>
      </trkpt>
      <trkpt lat="46.99067" lon="8.65905">
        <ele>559</ele>
        <time>2021-08-05T09:44:36.448Z</time>
      </trkpt>
      <trkpt lat="46.99068" lon="8.65907">
        <ele>559</ele>
        <time>2021-08-05T09:44:37.448Z</time>
      </trkpt>
      <trkpt lat="46.99068" lon="8.65908">
        <ele>559</ele>
        <time>2021-08-05T09:44:38.448Z</time>
      </trkpt>
      <trkpt lat="46.99069" lon="8.65909">
        <ele>559</ele>
        <time>2021-08-05T09:44:39.448Z</time>
      </trkpt>
      <trkpt lat="46.9907" lon="8.6591">
        <ele>559</ele>
        <time>2021-08-05T09:44:40.448Z</time>
      </trkpt>
      <trkpt lat="46.99071" lon="8.65911">
        <ele>559</ele>
        <time>2021-08-05T09:44:41.448Z</time>
      </trkpt>
      <trkpt lat="46.99071" lon="8.65913">
        <ele>560</ele>
        <time>2021-08-05T09:44:42.448Z</time>
      </trkpt>
      <trkpt lat="46.99071" lon="8.65913">
        <ele>560</ele>
        <time>2021-08-05T09:44:43.448Z</time>
      </trkpt>
      <trkpt lat="46.99071" lon="8.65915">
        <ele>560</ele>
        <time>2021-08-05T09:44:44.448Z</time>
      </trkpt>
      <trkpt lat="46.99071" lon="8.65916">
        <ele>561</ele>
        <time>2021-08-05T09:44:45.448Z</time>
      </trkpt>
      <trkpt lat="46.99072" lon="8.65918">
        <ele>561</ele>
        <time>2021-08-05T09:44:46.448Z</time>
      </trkpt>
      <trkpt lat="46.99072" lon="8.6592">
        <ele>561</ele>
        <time>2021-08-05T09:44:47.448Z</time>
      </trkpt>
      <trkpt lat="46.99073" lon="8.65922">
        <ele>561</ele>
        <time>2021-08-05T09:44:48.448Z</time>
      </trkpt>
      <trkpt lat="46.99072" lon="8.65923">
        <ele>561</ele>
        <time>2021-08-05T09:44:49.448Z</time>
      </trkpt>
      <trkpt lat="46.99072" lon="8.65925">
        <ele>561</ele>
        <time>2021-08-05T09:44:50.448Z</time>
      </trkpt>
      <trkpt lat="46.99072" lon="8.65926">
        <ele>561</ele>
        <time>2021-08-05T09:44:51.448Z</time>
      </trkpt>
      <trkpt lat="46.99072" lon="8.65928">
        <ele>562</ele>
        <time>2021-08-05T09:44:52.448Z</time>
      </trkpt>
      <trkpt lat="46.99072" lon="8.6593">
        <ele>562</ele>
        <time>2021-08-05T09:44:53.448Z</time>
      </trkpt>
      <trkpt lat="46.99073" lon="8.65932">
        <ele>562</ele>
        <time>2021-08-05T09:44:54.448Z</time>
      </trkpt>
      <trkpt lat="46.99073" lon="8.65934">
        <ele>562</ele>
        <time>2021-08-05T09:44:55.448Z</time>
      </trkpt>
      <trkpt lat="46.99072" lon="8.65937">
        <ele>562</ele>
        <time>2021-08-05T09:44:56.448Z</time>
      </trkpt>
      <trkpt lat="46.99072" lon="8.65939">
        <ele>562</ele>
        <time>2021-08-05T09:44:57.448Z</time>
      </trkpt>
      <trkpt lat="46.99073" lon="8.65941">
        <ele>561</ele>
        <time>2021-08-05T09:44:58.448Z</time>
      </trkpt>
      <trkpt lat="46.99073" lon="8.65943">
        <ele>561</ele>
        <time>2021-08-05T09:44:59.448Z</time>
      </trkpt>
      <trkpt lat="46.99073" lon="8.65945">
        <ele>561</ele>
        <time>2021-08-05T09:45:00.448Z</time>
      </trkpt>
      <trkpt lat="46.99072" lon="8.65947">
        <ele>561</ele>
        <time>2021-08-05T09:45:01.448Z</time>
      </trkpt>
      <trkpt lat="46.99072" lon="8.65948">
        <ele>560</ele>
        <time>2021-08-05T09:45:02.448Z</time>
      </trkpt>
      <trkpt lat="46.99072" lon="8.6595">
        <ele>559</ele>
        <time>2021-08-05T09:45:03.448Z</time>
      </trkpt>
      <trkpt lat="46.99072" lon="8.65952">
        <ele>559</ele>
        <time>2021-08-05T09:45:04.448Z</time>
      </trkpt>
      <trkpt lat="46.99073" lon="8.65954">
        <ele>558</ele>
        <time>2021-08-05T09:45:05.448Z</time>
      </trkpt>
      <trkpt lat="46.99074" lon="8.65956">
        <ele>558</ele>
        <time>2021-08-05T09:45:06.448Z</time>
      </trkpt>
      <trkpt lat="46.99074" lon="8.65958">
        <ele>558</ele>
        <time>2021-08-05T09:45:07.448Z</time>
      </trkpt>
      <trkpt lat="46.99075" lon="8.6596">
        <ele>558</ele>
        <time>2021-08-05T09:45:08.448Z</time>
      </trkpt>
      <trkpt lat="46.99075" lon="8.65963">
        <ele>558</ele>
        <time>2021-08-05T09:45:09.448Z</time>
      </trkpt>
      <trkpt lat="46.99075" lon="8.65965">
        <ele>558</ele>
        <time>2021-08-05T09:45:10.448Z</time>
      </trkpt>
      <trkpt lat="46.99076" lon="8.65967">
        <ele>558</ele>
        <time>2021-08-05T09:45:11.448Z</time>
      </trkpt>
      <trkpt lat="46.99076" lon="8.65969">
        <ele>558</ele>
        <time>2021-08-05T09:45:12.448Z</time>
      </trkpt>
      <trkpt lat="46.99077" lon="8.6597">
        <ele>558</ele>
        <time>2021-08-05T09:45:13.448Z</time>
      </trkpt>
      <trkpt lat="46.99078" lon="8.65972">
        <ele>558</ele>
        <time>2021-08-05T09:45:14.448Z</time>
      </trkpt>
      <trkpt lat="46.99079" lon="8.65975">
        <ele>557</ele>
        <time>2021-08-05T09:45:15.448Z</time>
      </trkpt>
      <trkpt lat="46.99078" lon="8.65978">
        <ele>557</ele>
        <time>2021-08-05T09:45:16.448Z</time>
      </trkpt>
      <trkpt lat="46.99079" lon="8.6598">
        <ele>557</ele>
        <time>2021-08-05T09:45:17.448Z</time>
      </trkpt>
      <trkpt lat="46.9908" lon="8.65982">
        <ele>557</ele>
        <time>2021-08-05T09:45:18.448Z</time>
      </trkpt>
      <trkpt lat="46.9908" lon="8.65984">
        <ele>557</ele>
        <time>2021-08-05T09:45:19.448Z</time>
      </trkpt>
      <trkpt lat="46.9908" lon="8.65985">
        <ele>557</ele>
        <time>2021-08-05T09:45:20.448Z</time>
      </trkpt>
      <trkpt lat="46.99079" lon="8.65987">
        <ele>557</ele>
        <time>2021-08-05T09:45:21.448Z</time>
      </trkpt>
      <trkpt lat="46.99079" lon="8.65989">
        <ele>557</ele>
        <time>2021-08-05T09:45:22.448Z</time>
      </trkpt>
      <trkpt lat="46.99078" lon="8.65992">
        <ele>556</ele>
        <time>2021-08-05T09:45:23.448Z</time>
      </trkpt>
      <trkpt lat="46.99078" lon="8.65994">
        <ele>556</ele>
        <time>2021-08-05T09:45:24.448Z</time>
      </trkpt>
      <trkpt lat="46.99079" lon="8.65995">
        <ele>555</ele>
        <time>2021-08-05T09:45:25.448Z</time>
      </trkpt>
      <trkpt lat="46.9908" lon="8.65997">
        <ele>555</ele>
        <time>2021-08-05T09:45:26.448Z</time>
      </trkpt>
      <trkpt lat="46.99081" lon="8.65999">
        <ele>555</ele>
        <time>2021-08-05T09:45:27.448Z</time>
      </trkpt>
      <trkpt lat="46.99083" lon="8.66">
        <ele>554</ele>
        <time>2021-08-05T09:45:28.448Z</time>
      </trkpt>
      <trkpt lat="46.99083" lon="8.66002">
        <ele>554</ele>
        <time>2021-08-05T09:45:29.448Z</time>
      </trkpt>
      <trkpt lat="46.99083" lon="8.66004">
        <ele>553</ele>
        <time>2021-08-05T09:45:30.448Z</time>
      </trkpt>
      <trkpt lat="46.99083" lon="8.66005">
        <ele>553</ele>
        <time>2021-08-05T09:45:31.448Z</time>
      </trkpt>
      <trkpt lat="46.99084" lon="8.66007">
        <ele>552</ele>
        <time>2021-08-05T09:45:32.448Z</time>
      </trkpt>
      <trkpt lat="46.99084" lon="8.66009">
        <ele>552</ele>
        <time>2021-08-05T09:45:33.448Z</time>
      </trkpt>
      <trkpt lat="46.99085" lon="8.66011">
        <ele>552</ele>
        <time>2021-08-05T09:45:34.448Z</time>
      </trkpt>
      <trkpt lat="46.99085" lon="8.66012">
        <ele>551</ele>
        <time>2021-08-05T09:45:35.448Z</time>
      </trkpt>
      <trkpt lat="46.99085" lon="8.66014">
        <ele>551</ele>
        <time>2021-08-05T09:45:36.448Z</time>
      </trkpt>
      <trkpt lat="46.99085" lon="8.66015">
        <ele>551</ele>
        <time>2021-08-05T09:45:37.448Z</time>
      </trkpt>
      <trkpt lat="46.99084" lon="8.66017">
        <ele>551</ele>
        <time>2021-08-05T09:45:38.448Z</time>
      </trkpt>
      <trkpt lat="46.99084" lon="8.66019">
        <ele>550</ele>
        <time>2021-08-05T09:45:39.448Z</time>
      </trkpt>
      <trkpt lat="46.99084" lon="8.66021">
        <ele>550</ele>
        <time>2021-08-05T09:45:40.448Z</time>
      </trkpt>
      <trkpt lat="46.99084" lon="8.66023">
        <ele>550</ele>
        <time>2021-08-05T09:45:41.448Z</time>
      </trkpt>
      <trkpt lat="46.99085" lon="8.66024">
        <ele>550</ele>
        <time>2021-08-05T09:45:42.448Z</time>
      </trkpt>
      <trkpt lat="46.99085" lon="8.66026">
        <ele>550</ele>
        <time>2021-08-05T09:45:43.448Z</time>
      </trkpt>
      <trkpt lat="46.99084" lon="8.66029">
        <ele>550</ele>
        <time>2021-08-05T09:45:44.448Z</time>
      </trkpt>
      <trkpt lat="46.99084" lon="8.66031">
        <ele>549</ele>
        <time>2021-08-05T09:45:45.448Z</time>
      </trkpt>
      <trkpt lat="46.99083" lon="8.66033">
        <ele>549</ele>
        <time>2021-08-05T09:45:46.448Z</time>
      </trkpt>
      <trkpt lat="46.99084" lon="8.66035">
        <ele>549</ele>
        <time>2021-08-05T09:45:47.448Z</time>
      </trkpt>
      <trkpt lat="46.99085" lon="8.66036">
        <ele>549</ele>
        <time>2021-08-05T09:45:48.448Z</time>
      </trkpt>
      <trkpt lat="46.99086" lon="8.66037">
        <ele>549</ele>
        <time>2021-08-05T09:45:49.448Z</time>
      </trkpt>
      <trkpt lat="46.99086" lon="8.66038">
        <ele>549</ele>
        <time>2021-08-05T09:45:50.448Z</time>
      </trkpt>
      <trkpt lat="46.99086" lon="8.66039">
        <ele>549</ele>
        <time>2021-08-05T09:45:51.448Z</time>
      </trkpt>
      <trkpt lat="46.99086" lon="8.66041">
        <ele>549</ele>
        <time>2021-08-05T09:45:52.448Z</time>
      </trkpt>
      <trkpt lat="46.99086" lon="8.66042">
        <ele>550</ele>
        <time>2021-08-05T09:45:53.448Z</time>
      </trkpt>
      <trkpt lat="46.99086" lon="8.66044">
        <ele>549</ele>
        <time>2021-08-05T09:45:54.448Z</time>
      </trkpt>
      <trkpt lat="46.99086" lon="8.66045">
        <ele>549</ele>
        <time>2021-08-05T09:45:55.448Z</time>
      </trkpt>
      <trkpt lat="46.99087" lon="8.66046">
        <ele>549</ele>
        <time>2021-08-05T09:45:56.448Z</time>
      </trkpt>
      <trkpt lat="46.99088" lon="8.66048">
        <ele>549</ele>
        <time>2021-08-05T09:45:57.448Z</time>
      </trkpt>
      <trkpt lat="46.99089" lon="8.6605">
        <ele>549</ele>
        <time>2021-08-05T09:45:58.448Z</time>
      </trkpt>
      <trkpt lat="46.99089" lon="8.66051">
        <ele>549</ele>
        <time>2021-08-05T09:45:59.448Z</time>
      </trkpt>
      <trkpt lat="46.99089" lon="8.66053">
        <ele>549</ele>
        <time>2021-08-05T09:46:00.448Z</time>
      </trkpt>
      <trkpt lat="46.9909" lon="8.66056">
        <ele>549</ele>
        <time>2021-08-05T09:46:01.448Z</time>
      </trkpt>
      <trkpt lat="46.9909" lon="8.66058">
        <ele>549</ele>
        <time>2021-08-05T09:46:02.448Z</time>
      </trkpt>
      <trkpt lat="46.9909" lon="8.6606">
        <ele>549</ele>
        <time>2021-08-05T09:46:03.448Z</time>
      </trkpt>
      <trkpt lat="46.9909" lon="8.66063">
        <ele>549</ele>
        <time>2021-08-05T09:46:04.448Z</time>
      </trkpt>
      <trkpt lat="46.99089" lon="8.66066">
        <ele>548</ele>
        <time>2021-08-05T09:46:05.448Z</time>
      </trkpt>
      <trkpt lat="46.99089" lon="8.66068">
        <ele>548</ele>
        <time>2021-08-05T09:46:06.448Z</time>
      </trkpt>
      <trkpt lat="46.99087" lon="8.66071">
        <ele>547</ele>
        <time>2021-08-05T09:46:07.448Z</time>
      </trkpt>
      <trkpt lat="46.99087" lon="8.66072">
        <ele>547</ele>
        <time>2021-08-05T09:46:08.448Z</time>
      </trkpt>
      <trkpt lat="46.99087" lon="8.66074">
        <ele>546</ele>
        <time>2021-08-05T09:46:09.448Z</time>
      </trkpt>
      <trkpt lat="46.99087" lon="8.66076">
        <ele>546</ele>
        <time>2021-08-05T09:46:10.448Z</time>
      </trkpt>
      <trkpt lat="46.99087" lon="8.66078">
        <ele>546</ele>
        <time>2021-08-05T09:46:11.448Z</time>
      </trkpt>
      <trkpt lat="46.99088" lon="8.6608">
        <ele>545</ele>
        <time>2021-08-05T09:46:12.448Z</time>
      </trkpt>
      <trkpt lat="46.99088" lon="8.66081">
        <ele>545</ele>
        <time>2021-08-05T09:46:13.448Z</time>
      </trkpt>
      <trkpt lat="46.99088" lon="8.66082">
        <ele>545</ele>
        <time>2021-08-05T09:46:14.448Z</time>
      </trkpt>
      <trkpt lat="46.99089" lon="8.66084">
        <ele>545</ele>
        <time>2021-08-05T09:46:15.448Z</time>
      </trkpt>
      <trkpt lat="46.99089" lon="8.66085">
        <ele>545</ele>
        <time>2021-08-05T09:46:16.448Z</time>
      </trkpt>
      <trkpt lat="46.9909" lon="8.66086">
        <ele>545</ele>
        <time>2021-08-05T09:46:17.448Z</time>
      </trkpt>
      <trkpt lat="46.99091" lon="8.66087">
        <ele>545</ele>
        <time>2021-08-05T09:46:18.448Z</time>
      </trkpt>
      <trkpt lat="46.99092" lon="8.66088">
        <ele>545</ele>
        <time>2021-08-05T09:46:19.448Z</time>
      </trkpt>
      <trkpt lat="46.99093" lon="8.66089">
        <ele>545</ele>
        <time>2021-08-05T09:46:20.448Z</time>
      </trkpt>
      <trkpt lat="46.99093" lon="8.6609">
        <ele>545</ele>
        <time>2021-08-05T09:46:21.448Z</time>
      </trkpt>
      <trkpt lat="46.99094" lon="8.66091">
        <ele>545</ele>
        <time>2021-08-05T09:46:22.448Z</time>
      </trkpt>
      <trkpt lat="46.99094" lon="8.66093">
        <ele>545</ele>
        <time>2021-08-05T09:46:23.448Z</time>
      </trkpt>
      <trkpt lat="46.99094" lon="8.66094">
        <ele>545</ele>
        <time>2021-08-05T09:46:24.448Z</time>
      </trkpt>
      <trkpt lat="46.99094" lon="8.66096">
        <ele>545</ele>
        <time>2021-08-05T09:46:25.448Z</time>
      </trkpt>
      <trkpt lat="46.99095" lon="8.66097">
        <ele>545</ele>
        <time>2021-08-05T09:46:26.448Z</time>
      </trkpt>
      <trkpt lat="46.99096" lon="8.66098">
        <ele>545</ele>
        <time>2021-08-05T09:46:27.448Z</time>
      </trkpt>
      <trkpt lat="46.99096" lon="8.66099">
        <ele>545</ele>
        <time>2021-08-05T09:46:28.448Z</time>
      </trkpt>
      <trkpt lat="46.99097" lon="8.661">
        <ele>546</ele>
        <time>2021-08-05T09:46:29.448Z</time>
      </trkpt>
      <trkpt lat="46.99098" lon="8.66101">
        <ele>546</ele>
        <time>2021-08-05T09:46:30.448Z</time>
      </trkpt>
      <trkpt lat="46.99099" lon="8.66102">
        <ele>546</ele>
        <time>2021-08-05T09:46:31.448Z</time>
      </trkpt>
      <trkpt lat="46.99099" lon="8.66103">
        <ele>546</ele>
        <time>2021-08-05T09:46:32.448Z</time>
      </trkpt>
      <trkpt lat="46.99099" lon="8.66106">
        <ele>546</ele>
        <time>2021-08-05T09:46:33.448Z</time>
      </trkpt>
      <trkpt lat="46.99099" lon="8.66107">
        <ele>546</ele>
        <time>2021-08-05T09:46:34.448Z</time>
      </trkpt>
      <trkpt lat="46.991" lon="8.66109">
        <ele>547</ele>
        <time>2021-08-05T09:46:35.448Z</time>
      </trkpt>
      <trkpt lat="46.991" lon="8.66111">
        <ele>547</ele>
        <time>2021-08-05T09:46:36.448Z</time>
      </trkpt>
      <trkpt lat="46.991" lon="8.66112">
        <ele>547</ele>
        <time>2021-08-05T09:46:37.448Z</time>
      </trkpt>
      <trkpt lat="46.991" lon="8.66113">
        <ele>547</ele>
        <time>2021-08-05T09:46:38.448Z</time>
      </trkpt>
      <trkpt lat="46.99101" lon="8.66115">
        <ele>547</ele>
        <time>2021-08-05T09:46:39.448Z</time>
      </trkpt>
      <trkpt lat="46.99102" lon="8.66116">
        <ele>547</ele>
        <time>2021-08-05T09:46:40.448Z</time>
      </trkpt>
      <trkpt lat="46.99102" lon="8.66117">
        <ele>547</ele>
        <time>2021-08-05T09:46:41.448Z</time>
      </trkpt>
      <trkpt lat="46.99103" lon="8.66119">
        <ele>547</ele>
        <time>2021-08-05T09:46:42.448Z</time>
      </trkpt>
      <trkpt lat="46.99103" lon="8.6612">
        <ele>547</ele>
        <time>2021-08-05T09:46:43.448Z</time>
      </trkpt>
      <trkpt lat="46.99103" lon="8.66122">
        <ele>547</ele>
        <time>2021-08-05T09:46:44.448Z</time>
      </trkpt>
      <trkpt lat="46.99103" lon="8.66124">
        <ele>547</ele>
        <time>2021-08-05T09:46:45.448Z</time>
      </trkpt>
      <trkpt lat="46.99105" lon="8.66126">
        <ele>547</ele>
        <time>2021-08-05T09:46:46.448Z</time>
      </trkpt>
      <trkpt lat="46.99105" lon="8.66127">
        <ele>547</ele>
        <time>2021-08-05T09:46:47.448Z</time>
      </trkpt>
      <trkpt lat="46.99107" lon="8.66128">
        <ele>547</ele>
        <time>2021-08-05T09:46:48.448Z</time>
      </trkpt>
      <trkpt lat="46.99108" lon="8.66128">
        <ele>547</ele>
        <time>2021-08-05T09:46:49.448Z</time>
      </trkpt>
      <trkpt lat="46.9911" lon="8.66129">
        <ele>547</ele>
        <time>2021-08-05T09:46:50.448Z</time>
      </trkpt>
      <trkpt lat="46.99111" lon="8.66129">
        <ele>547</ele>
        <time>2021-08-05T09:46:51.448Z</time>
      </trkpt>
      <trkpt lat="46.99112" lon="8.6613">
        <ele>547</ele>
        <time>2021-08-05T09:46:52.448Z</time>
      </trkpt>
      <trkpt lat="46.99113" lon="8.66131">
        <ele>547</ele>
        <time>2021-08-05T09:46:53.448Z</time>
      </trkpt>
      <trkpt lat="46.99113" lon="8.66132">
        <ele>547</ele>
        <time>2021-08-05T09:46:54.448Z</time>
      </trkpt>
      <trkpt lat="46.99114" lon="8.66133">
        <ele>548</ele>
        <time>2021-08-05T09:46:55.448Z</time>
      </trkpt>
      <trkpt lat="46.99115" lon="8.66135">
        <ele>548</ele>
        <time>2021-08-05T09:46:56.448Z</time>
      </trkpt>
      <trkpt lat="46.99114" lon="8.66136">
        <ele>548</ele>
        <time>2021-08-05T09:46:57.448Z</time>
      </trkpt>
      <trkpt lat="46.99115" lon="8.66137">
        <ele>548</ele>
        <time>2021-08-05T09:46:58.448Z</time>
      </trkpt>
      <trkpt lat="46.99116" lon="8.66138">
        <ele>549</ele>
        <time>2021-08-05T09:46:59.448Z</time>
      </trkpt>
      <trkpt lat="46.99117" lon="8.66139">
        <ele>549</ele>
        <time>2021-08-05T09:47:00.448Z</time>
      </trkpt>
      <trkpt lat="46.99118" lon="8.66141">
        <ele>549</ele>
        <time>2021-08-05T09:47:01.448Z</time>
      </trkpt>
      <trkpt lat="46.99119" lon="8.66142">
        <ele>549</ele>
        <time>2021-08-05T09:47:02.448Z</time>
      </trkpt>
      <trkpt lat="46.9912" lon="8.66143">
        <ele>550</ele>
        <time>2021-08-05T09:47:03.448Z</time>
      </trkpt>
      <trkpt lat="46.99123" lon="8.66143">
        <ele>550</ele>
        <time>2021-08-05T09:47:04.448Z</time>
      </trkpt>
      <trkpt lat="46.99123" lon="8.66145">
        <ele>550</ele>
        <time>2021-08-05T09:47:05.448Z</time>
      </trkpt>
      <trkpt lat="46.99123" lon="8.66146">
        <ele>550</ele>
        <time>2021-08-05T09:47:06.448Z</time>
      </trkpt>
      <trkpt lat="46.99123" lon="8.66148">
        <ele>550</ele>
        <time>2021-08-05T09:47:07.448Z</time>
      </trkpt>
      <trkpt lat="46.99123" lon="8.6615">
        <ele>550</ele>
        <time>2021-08-05T09:47:08.448Z</time>
      </trkpt>
      <trkpt lat="46.99123" lon="8.66151">
        <ele>550</ele>
        <time>2021-08-05T09:47:09.448Z</time>
      </trkpt>
      <trkpt lat="46.99123" lon="8.66152">
        <ele>550</ele>
        <time>2021-08-05T09:47:10.448Z</time>
      </trkpt>
      <trkpt lat="46.99123" lon="8.66153">
        <ele>549</ele>
        <time>2021-08-05T09:47:11.448Z</time>
      </trkpt>
      <trkpt lat="46.99123" lon="8.66155">
        <ele>549</ele>
        <time>2021-08-05T09:47:12.448Z</time>
      </trkpt>
      <trkpt lat="46.99123" lon="8.66156">
        <ele>549</ele>
        <time>2021-08-05T09:47:13.448Z</time>
      </trkpt>
      <trkpt lat="46.99124" lon="8.66157">
        <ele>549</ele>
        <time>2021-08-05T09:47:14.448Z</time>
      </trkpt>
      <trkpt lat="46.99124" lon="8.66158">
        <ele>548</ele>
        <time>2021-08-05T09:47:15.448Z</time>
      </trkpt>
      <trkpt lat="46.99125" lon="8.66159">
        <ele>548</ele>
        <time>2021-08-05T09:47:16.448Z</time>
      </trkpt>
      <trkpt lat="46.99126" lon="8.66159">
        <ele>548</ele>
        <time>2021-08-05T09:47:17.448Z</time>
      </trkpt>
      <trkpt lat="46.99127" lon="8.6616">
        <ele>547</ele>
        <time>2021-08-05T09:47:18.448Z</time>
      </trkpt>
      <trkpt lat="46.99128" lon="8.66161">
        <ele>547</ele>
        <time>2021-08-05T09:47:19.448Z</time>
      </trkpt>
      <trkpt lat="46.99128" lon="8.66162">
        <ele>547</ele>
        <time>2021-08-05T09:47:20.448Z</time>
      </trkpt>
      <trkpt lat="46.99128" lon="8.66164">
        <ele>547</ele>
        <time>2021-08-05T09:47:21.448Z</time>
      </trkpt>
      <trkpt lat="46.99129" lon="8.66165">
        <ele>546</ele>
        <time>2021-08-05T09:47:22.448Z</time>
      </trkpt>
      <trkpt lat="46.9913" lon="8.66166">
        <ele>546</ele>
        <time>2021-08-05T09:47:23.448Z</time>
      </trkpt>
      <trkpt lat="46.99131" lon="8.66168">
        <ele>546</ele>
        <time>2021-08-05T09:47:24.448Z</time>
      </trkpt>
      <trkpt lat="46.9913" lon="8.6617">
        <ele>546</ele>
        <time>2021-08-05T09:47:25.448Z</time>
      </trkpt>
      <trkpt lat="46.9913" lon="8.66172">
        <ele>546</ele>
        <time>2021-08-05T09:47:26.448Z</time>
      </trkpt>
      <trkpt lat="46.9913" lon="8.66173">
        <ele>545</ele>
        <time>2021-08-05T09:47:27.448Z</time>
      </trkpt>
      <trkpt lat="46.99131" lon="8.66174">
        <ele>545</ele>
        <time>2021-08-05T09:47:28.448Z</time>
      </trkpt>
      <trkpt lat="46.99132" lon="8.66176">
        <ele>544</ele>
        <time>2021-08-05T09:47:29.448Z</time>
      </trkpt>
      <trkpt lat="46.99133" lon="8.66177">
        <ele>544</ele>
        <time>2021-08-05T09:47:30.448Z</time>
      </trkpt>
      <trkpt lat="46.99133" lon="8.66179">
        <ele>543</ele>
        <time>2021-08-05T09:47:31.448Z</time>
      </trkpt>
      <trkpt lat="46.99134" lon="8.66181">
        <ele>543</ele>
        <time>2021-08-05T09:47:32.448Z</time>
      </trkpt>
      <trkpt lat="46.99135" lon="8.66183">
        <ele>543</ele>
        <time>2021-08-05T09:47:33.448Z</time>
      </trkpt>
      <trkpt lat="46.99136" lon="8.66184">
        <ele>543</ele>
        <time>2021-08-05T09:47:34.448Z</time>
      </trkpt>
      <trkpt lat="46.99137" lon="8.66185">
        <ele>542</ele>
        <time>2021-08-05T09:47:35.448Z</time>
      </trkpt>
      <trkpt lat="46.99138" lon="8.66187">
        <ele>542</ele>
        <time>2021-08-05T09:47:36.448Z</time>
      </trkpt>
      <trkpt lat="46.99139" lon="8.66188">
        <ele>542</ele>
        <time>2021-08-05T09:47:37.448Z</time>
      </trkpt>
      <trkpt lat="46.99139" lon="8.6619">
        <ele>542</ele>
        <time>2021-08-05T09:47:38.448Z</time>
      </trkpt>
      <trkpt lat="46.9914" lon="8.66191">
        <ele>542</ele>
        <time>2021-08-05T09:47:39.448Z</time>
      </trkpt>
      <trkpt lat="46.9914" lon="8.66193">
        <ele>542</ele>
        <time>2021-08-05T09:47:40.448Z</time>
      </trkpt>
      <trkpt lat="46.99141" lon="8.66195">
        <ele>543</ele>
        <time>2021-08-05T09:47:41.448Z</time>
      </trkpt>
      <trkpt lat="46.99142" lon="8.66197">
        <ele>543</ele>
        <time>2021-08-05T09:47:42.448Z</time>
      </trkpt>
      <trkpt lat="46.99144" lon="8.66198">
        <ele>543</ele>
        <time>2021-08-05T09:47:43.448Z</time>
      </trkpt>
      <trkpt lat="46.99145" lon="8.66199">
        <ele>543</ele>
        <time>2021-08-05T09:47:44.448Z</time>
      </trkpt>
      <trkpt lat="46.99146" lon="8.66199">
        <ele>543</ele>
        <time>2021-08-05T09:47:45.448Z</time>
      </trkpt>
      <trkpt lat="46.99147" lon="8.662">
        <ele>543</ele>
        <time>2021-08-05T09:47:46.448Z</time>
      </trkpt>
      <trkpt lat="46.99148" lon="8.66201">
        <ele>543</ele>
        <time>2021-08-05T09:47:47.448Z</time>
      </trkpt>
      <trkpt lat="46.99149" lon="8.66202">
        <ele>543</ele>
        <time>2021-08-05T09:47:48.448Z</time>
      </trkpt>
      <trkpt lat="46.9915" lon="8.66203">
        <ele>543</ele>
        <time>2021-08-05T09:47:49.448Z</time>
      </trkpt>
      <trkpt lat="46.99151" lon="8.66204">
        <ele>542</ele>
        <time>2021-08-05T09:47:50.448Z</time>
      </trkpt>
      <trkpt lat="46.99152" lon="8.66206">
        <ele>542</ele>
        <time>2021-08-05T09:47:51.448Z</time>
      </trkpt>
      <trkpt lat="46.99152" lon="8.66208">
        <ele>542</ele>
        <time>2021-08-05T09:47:52.448Z</time>
      </trkpt>
      <trkpt lat="46.99152" lon="8.66209">
        <ele>542</ele>
        <time>2021-08-05T09:47:53.448Z</time>
      </trkpt>
      <trkpt lat="46.99152" lon="8.66211">
        <ele>542</ele>
        <time>2021-08-05T09:47:54.448Z</time>
      </trkpt>
      <trkpt lat="46.99153" lon="8.66213">
        <ele>542</ele>
        <time>2021-08-05T09:47:55.448Z</time>
      </trkpt>
      <trkpt lat="46.99154" lon="8.66214">
        <ele>542</ele>
        <time>2021-08-05T09:47:56.448Z</time>
      </trkpt>
      <trkpt lat="46.99155" lon="8.66215">
        <ele>542</ele>
        <time>2021-08-05T09:47:57.448Z</time>
      </trkpt>
      <trkpt lat="46.99157" lon="8.66216">
        <ele>543</ele>
        <time>2021-08-05T09:47:58.448Z</time>
      </trkpt>
      <trkpt lat="46.99158" lon="8.66217">
        <ele>543</ele>
        <time>2021-08-05T09:47:59.448Z</time>
      </trkpt>
      <trkpt lat="46.99158" lon="8.66218">
        <ele>544</ele>
        <time>2021-08-05T09:48:00.448Z</time>
      </trkpt>
      <trkpt lat="46.99159" lon="8.66219">
        <ele>544</ele>
        <time>2021-08-05T09:48:01.448Z</time>
      </trkpt>
      <trkpt lat="46.9916" lon="8.66221">
        <ele>544</ele>
        <time>2021-08-05T09:48:02.448Z</time>
      </trkpt>
      <trkpt lat="46.99161" lon="8.66222">
        <ele>544</ele>
        <time>2021-08-05T09:48:03.448Z</time>
      </trkpt>
      <trkpt lat="46.99161" lon="8.66223">
        <ele>544</ele>
        <time>2021-08-05T09:48:04.448Z</time>
      </trkpt>
      <trkpt lat="46.99162" lon="8.66224">
        <ele>544</ele>
        <time>2021-08-05T09:48:05.448Z</time>
      </trkpt>
      <trkpt lat="46.99163" lon="8.66224">
        <ele>544</ele>
        <time>2021-08-05T09:48:06.448Z</time>
      </trkpt>
      <trkpt lat="46.99164" lon="8.66225">
        <ele>545</ele>
        <time>2021-08-05T09:48:07.448Z</time>
      </trkpt>
      <trkpt lat="46.99164" lon="8.66226">
        <ele>545</ele>
        <time>2021-08-05T09:48:08.448Z</time>
      </trkpt>
      <trkpt lat="46.99166" lon="8.66227">
        <ele>545</ele>
        <time>2021-08-05T09:48:09.448Z</time>
      </trkpt>
      <trkpt lat="46.99167" lon="8.66228">
        <ele>545</ele>
        <time>2021-08-05T09:48:10.448Z</time>
      </trkpt>
      <trkpt lat="46.99168" lon="8.66229">
        <ele>545</ele>
        <time>2021-08-05T09:48:11.448Z</time>
      </trkpt>
      <trkpt lat="46.99168" lon="8.6623">
        <ele>545</ele>
        <time>2021-08-05T09:48:12.448Z</time>
      </trkpt>
      <trkpt lat="46.99169" lon="8.66231">
        <ele>544</ele>
        <time>2021-08-05T09:48:13.448Z</time>
      </trkpt>
      <trkpt lat="46.99171" lon="8.66231">
        <ele>544</ele>
        <time>2021-08-05T09:48:14.448Z</time>
      </trkpt>
      <trkpt lat="46.99173" lon="8.66231">
        <ele>545</ele>
        <time>2021-08-05T09:48:15.448Z</time>
      </trkpt>
      <trkpt lat="46.99174" lon="8.66231">
        <ele>545</ele>
        <time>2021-08-05T09:48:16.448Z</time>
      </trkpt>
      <trkpt lat="46.99176" lon="8.66231">
        <ele>546</ele>
        <time>2021-08-05T09:48:17.448Z</time>
      </trkpt>
      <trkpt lat="46.99178" lon="8.66231">
        <ele>546</ele>
        <time>2021-08-05T09:48:18.448Z</time>
      </trkpt>
      <trkpt lat="46.9918" lon="8.66232">
        <ele>546</ele>
        <time>2021-08-05T09:48:19.448Z</time>
      </trkpt>
      <trkpt lat="46.99181" lon="8.66232">
        <ele>546</ele>
        <time>2021-08-05T09:48:20.448Z</time>
      </trkpt>
      <trkpt lat="46.99182" lon="8.66233">
        <ele>546</ele>
        <time>2021-08-05T09:48:21.448Z</time>
      </trkpt>
      <trkpt lat="46.99183" lon="8.66234">
        <ele>547</ele>
        <time>2021-08-05T09:48:22.448Z</time>
      </trkpt>
      <trkpt lat="46.99184" lon="8.66234">
        <ele>547</ele>
        <time>2021-08-05T09:48:23.448Z</time>
      </trkpt>
      <trkpt lat="46.99186" lon="8.66234">
        <ele>547</ele>
        <time>2021-08-05T09:48:24.448Z</time>
      </trkpt>
      <trkpt lat="46.99188" lon="8.66233">
        <ele>547</ele>
        <time>2021-08-05T09:48:25.448Z</time>
      </trkpt>
      <trkpt lat="46.9919" lon="8.66233">
        <ele>548</ele>
        <time>2021-08-05T09:48:26.448Z</time>
      </trkpt>
      <trkpt lat="46.99191" lon="8.66233">
        <ele>548</ele>
        <time>2021-08-05T09:48:27.448Z</time>
      </trkpt>
      <trkpt lat="46.99193" lon="8.66233">
        <ele>548</ele>
        <time>2021-08-05T09:48:28.448Z</time>
      </trkpt>
      <trkpt lat="46.99195" lon="8.66234">
        <ele>548</ele>
        <time>2021-08-05T09:48:29.448Z</time>
      </trkpt>
      <trkpt lat="46.99196" lon="8.66235">
        <ele>548</ele>
        <time>2021-08-05T09:48:30.448Z</time>
      </trkpt>
      <trkpt lat="46.99197" lon="8.66236">
        <ele>547</ele>
        <time>2021-08-05T09:48:31.448Z</time>
      </trkpt>
      <trkpt lat="46.992" lon="8.66237">
        <ele>547</ele>
        <time>2021-08-05T09:48:32.448Z</time>
      </trkpt>
      <trkpt lat="46.99202" lon="8.66238">
        <ele>547</ele>
        <time>2021-08-05T09:48:33.448Z</time>
      </trkpt>
      <trkpt lat="46.99202" lon="8.66238">
        <ele>547</ele>
        <time>2021-08-05T09:48:34.448Z</time>
      </trkpt>
      <trkpt lat="46.99202" lon="8.66238">
        <ele>547</ele>
        <time>2021-08-05T09:48:35.448Z</time>
      </trkpt>
      <trkpt lat="46.99202" lon="8.66239">
        <ele>546</ele>
        <time>2021-08-05T09:48:36.448Z</time>
      </trkpt>
      <trkpt lat="46.99202" lon="8.6624">
        <ele>546</ele>
        <time>2021-08-05T09:48:37.448Z</time>
      </trkpt>
      <trkpt lat="46.99204" lon="8.66239">
        <ele>545</ele>
        <time>2021-08-05T09:48:38.448Z</time>
      </trkpt>
      <trkpt lat="46.99205" lon="8.66239">
        <ele>545</ele>
        <time>2021-08-05T09:48:39.448Z</time>
      </trkpt>
      <trkpt lat="46.99207" lon="8.66239">
        <ele>545</ele>
        <time>2021-08-05T09:48:40.448Z</time>
      </trkpt>
      <trkpt lat="46.99208" lon="8.66239">
        <ele>544</ele>
        <time>2021-08-05T09:48:41.448Z</time>
      </trkpt>
      <trkpt lat="46.99209" lon="8.66239">
        <ele>544</ele>
        <time>2021-08-05T09:48:42.448Z</time>
      </trkpt>
      <trkpt lat="46.9921" lon="8.66239">
        <ele>544</ele>
        <time>2021-08-05T09:48:43.448Z</time>
      </trkpt>
      <trkpt lat="46.99211" lon="8.66239">
        <ele>543</ele>
        <time>2021-08-05T09:48:44.448Z</time>
      </trkpt>
      <trkpt lat="46.99212" lon="8.66239">
        <ele>544</ele>
        <time>2021-08-05T09:48:45.448Z</time>
      </trkpt>
      <trkpt lat="46.99213" lon="8.6624">
        <ele>544</ele>
        <time>2021-08-05T09:48:46.448Z</time>
      </trkpt>
      <trkpt lat="46.99214" lon="8.6624">
        <ele>544</ele>
        <time>2021-08-05T09:48:47.448Z</time>
      </trkpt>
      <trkpt lat="46.99216" lon="8.6624">
        <ele>543</ele>
        <time>2021-08-05T09:48:48.448Z</time>
      </trkpt>
      <trkpt lat="46.99217" lon="8.66241">
        <ele>543</ele>
        <time>2021-08-05T09:48:49.448Z</time>
      </trkpt>
      <trkpt lat="46.99217" lon="8.66242">
        <ele>543</ele>
        <time>2021-08-05T09:48:50.448Z</time>
      </trkpt>
      <trkpt lat="46.99218" lon="8.66243">
        <ele>543</ele>
        <time>2021-08-05T09:48:51.448Z</time>
      </trkpt>
      <trkpt lat="46.99219" lon="8.66243">
        <ele>543</ele>
        <time>2021-08-05T09:48:52.448Z</time>
      </trkpt>
      <trkpt lat="46.99222" lon="8.66243">
        <ele>544</ele>
        <time>2021-08-05T09:48:53.448Z</time>
      </trkpt>
      <trkpt lat="46.99224" lon="8.66244">
        <ele>544</ele>
        <time>2021-08-05T09:48:54.448Z</time>
      </trkpt>
      <trkpt lat="46.99225" lon="8.66245">
        <ele>544</ele>
        <time>2021-08-05T09:48:55.448Z</time>
      </trkpt>
      <trkpt lat="46.99225" lon="8.66247">
        <ele>544</ele>
        <time>2021-08-05T09:48:56.448Z</time>
      </trkpt>
      <trkpt lat="46.99226" lon="8.66248">
        <ele>544</ele>
        <time>2021-08-05T09:48:57.448Z</time>
      </trkpt>
      <trkpt lat="46.99227" lon="8.66251">
        <ele>544</ele>
        <time>2021-08-05T09:48:58.448Z</time>
      </trkpt>
      <trkpt lat="46.99228" lon="8.66253">
        <ele>544</ele>
        <time>2021-08-05T09:48:59.448Z</time>
      </trkpt>
      <trkpt lat="46.99228" lon="8.66254">
        <ele>544</ele>
        <time>2021-08-05T09:49:00.448Z</time>
      </trkpt>
      <trkpt lat="46.9923" lon="8.66254">
        <ele>544</ele>
        <time>2021-08-05T09:49:01.448Z</time>
      </trkpt>
      <trkpt lat="46.99231" lon="8.66254">
        <ele>545</ele>
        <time>2021-08-05T09:49:02.448Z</time>
      </trkpt>
      <trkpt lat="46.99232" lon="8.66253">
        <ele>545</ele>
        <time>2021-08-05T09:49:03.448Z</time>
      </trkpt>
      <trkpt lat="46.99234" lon="8.66253">
        <ele>545</ele>
        <time>2021-08-05T09:49:04.448Z</time>
      </trkpt>
      <trkpt lat="46.99234" lon="8.66253">
        <ele>545</ele>
        <time>2021-08-05T09:49:05.448Z</time>
      </trkpt>
      <trkpt lat="46.99234" lon="8.66253">
        <ele>544</ele>
        <time>2021-08-05T09:49:06.448Z</time>
      </trkpt>
      <trkpt lat="46.99234" lon="8.66254">
        <ele>544</ele>
        <time>2021-08-05T09:49:07.448Z</time>
      </trkpt>
      <trkpt lat="46.99232" lon="8.66255">
        <ele>543</ele>
        <time>2021-08-05T09:49:08.448Z</time>
      </trkpt>
      <trkpt lat="46.99231" lon="8.66257">
        <ele>537</ele>
        <time>2021-08-05T09:49:09.449Z</time>
      </trkpt>
      <trkpt lat="46.99232" lon="8.66256">
        <ele>537</ele>
        <time>2021-08-05T09:49:10.448Z</time>
      </trkpt>
      <trkpt lat="46.99233" lon="8.66255">
        <ele>537</ele>
        <time>2021-08-05T09:49:11.448Z</time>
      </trkpt>
      <trkpt lat="46.99234" lon="8.66254">
        <ele>537</ele>
        <time>2021-08-05T09:49:12.448Z</time>
      </trkpt>
      <trkpt lat="46.99234" lon="8.66253">
        <ele>542</ele>
        <time>2021-08-05T09:49:13.449Z</time>
      </trkpt>
      <trkpt lat="46.99235" lon="8.66252">
        <ele>543</ele>
        <time>2021-08-05T09:49:14.449Z</time>
      </trkpt>
      <trkpt lat="46.99235" lon="8.66251">
        <ele>544</ele>
        <time>2021-08-05T09:49:15.448Z</time>
      </trkpt>
      <trkpt lat="46.99235" lon="8.66251">
        <ele>545</ele>
        <time>2021-08-05T09:49:16.449Z</time>
      </trkpt>
      <trkpt lat="46.99235" lon="8.6625">
        <ele>546</ele>
        <time>2021-08-05T09:49:17.449Z</time>
      </trkpt>
      <trkpt lat="46.99235" lon="8.6625">
        <ele>547</ele>
        <time>2021-08-05T09:49:18.449Z</time>
      </trkpt>
      <trkpt lat="46.99233" lon="8.6625">
        <ele>548</ele>
        <time>2021-08-05T09:49:19.449Z</time>
      </trkpt>
      <trkpt lat="46.99233" lon="8.6625">
        <ele>549</ele>
        <time>2021-08-05T09:49:20.448Z</time>
      </trkpt>
      <trkpt lat="46.99234" lon="8.6625">
        <ele>550</ele>
        <time>2021-08-05T09:49:21.448Z</time>
      </trkpt>
      <trkpt lat="46.99235" lon="8.66251">
        <ele>550</ele>
        <time>2021-08-05T09:49:22.449Z</time>
      </trkpt>
      <trkpt lat="46.99236" lon="8.66251">
        <ele>551</ele>
        <time>2021-08-05T09:49:23.449Z</time>
      </trkpt>
      <trkpt lat="46.99237" lon="8.66251">
        <ele>551</ele>
        <time>2021-08-05T09:49:24.449Z</time>
      </trkpt>
      <trkpt lat="46.99238" lon="8.66251">
        <ele>552</ele>
        <time>2021-08-05T09:49:25.449Z</time>
      </trkpt>
      <trkpt lat="46.99238" lon="8.66251">
        <ele>552</ele>
        <time>2021-08-05T09:49:26.449Z</time>
      </trkpt>
      <trkpt lat="46.99238" lon="8.66251">
        <ele>552</ele>
        <time>2021-08-05T09:49:27.449Z</time>
      </trkpt>
      <trkpt lat="46.99238" lon="8.6625">
        <ele>552</ele>
        <time>2021-08-05T09:49:28.448Z</time>
      </trkpt>
      <trkpt lat="46.99239" lon="8.6625">
        <ele>552</ele>
        <time>2021-08-05T09:49:29.449Z</time>
      </trkpt>
      <trkpt lat="46.9924" lon="8.66249">
        <ele>552</ele>
        <time>2021-08-05T09:49:30.449Z</time>
      </trkpt>
      <trkpt lat="46.99241" lon="8.66249">
        <ele>552</ele>
        <time>2021-08-05T09:49:31.448Z</time>
      </trkpt>
      <trkpt lat="46.99242" lon="8.66248">
        <ele>551</ele>
        <time>2021-08-05T09:49:32.449Z</time>
      </trkpt>
      <trkpt lat="46.99242" lon="8.66248">
        <ele>551</ele>
        <time>2021-08-05T09:49:33.449Z</time>
      </trkpt>
      <trkpt lat="46.99243" lon="8.66247">
        <ele>550</ele>
        <time>2021-08-05T09:49:34.449Z</time>
      </trkpt>
      <trkpt lat="46.99244" lon="8.66246">
        <ele>550</ele>
        <time>2021-08-05T09:49:35.449Z</time>
      </trkpt>
      <trkpt lat="46.99246" lon="8.66244">
        <ele>550</ele>
        <time>2021-08-05T09:49:36.449Z</time>
      </trkpt>
      <trkpt lat="46.99247" lon="8.66244">
        <ele>549</ele>
        <time>2021-08-05T09:49:37.448Z</time>
      </trkpt>
      <trkpt lat="46.99248" lon="8.66243">
        <ele>549</ele>
        <time>2021-08-05T09:49:38.449Z</time>
      </trkpt>
      <trkpt lat="46.9925" lon="8.66242">
        <ele>548</ele>
        <time>2021-08-05T09:49:39.448Z</time>
      </trkpt>
      <trkpt lat="46.99251" lon="8.66242">
        <ele>548</ele>
        <time>2021-08-05T09:49:40.448Z</time>
      </trkpt>
      <trkpt lat="46.99251" lon="8.66242">
        <ele>547</ele>
        <time>2021-08-05T09:49:41.449Z</time>
      </trkpt>
      <trkpt lat="46.99252" lon="8.66241">
        <ele>547</ele>
        <time>2021-08-05T09:49:42.449Z</time>
      </trkpt>
      <trkpt lat="46.99252" lon="8.66241">
        <ele>546</ele>
        <time>2021-08-05T09:49:43.449Z</time>
      </trkpt>
      <trkpt lat="46.99252" lon="8.66241">
        <ele>546</ele>
        <time>2021-08-05T09:49:44.449Z</time>
      </trkpt>
      <trkpt lat="46.9925" lon="8.66237">
        <ele>544</ele>
        <time>2021-08-05T09:49:45.449Z</time>
      </trkpt>
      <trkpt lat="46.99248" lon="8.66236">
        <ele>543</ele>
        <time>2021-08-05T09:49:46.448Z</time>
      </trkpt>
      <trkpt lat="46.99246" lon="8.66235">
        <ele>543</ele>
        <time>2021-08-05T09:49:47.449Z</time>
      </trkpt>
      <trkpt lat="46.99246" lon="8.66235">
        <ele>542</ele>
        <time>2021-08-05T09:49:48.449Z</time>
      </trkpt>
      <trkpt lat="46.99246" lon="8.66234">
        <ele>541</ele>
        <time>2021-08-05T09:49:49.449Z</time>
      </trkpt>
      <trkpt lat="46.99245" lon="8.66233">
        <ele>541</ele>
        <time>2021-08-05T09:49:50.449Z</time>
      </trkpt>
      <trkpt lat="46.99246" lon="8.66232">
        <ele>540</ele>
        <time>2021-08-05T09:49:51.449Z</time>
      </trkpt>
      <trkpt lat="46.99246" lon="8.66232">
        <ele>540</ele>
        <time>2021-08-05T09:49:52.448Z</time>
      </trkpt>
      <trkpt lat="46.99246" lon="8.66232">
        <ele>539</ele>
        <time>2021-08-05T09:49:53.449Z</time>
      </trkpt>
      <trkpt lat="46.99247" lon="8.66231">
        <ele>539</ele>
        <time>2021-08-05T09:49:54.449Z</time>
      </trkpt>
      <trkpt lat="46.99249" lon="8.66231">
        <ele>539</ele>
        <time>2021-08-05T09:49:55.449Z</time>
      </trkpt>
      <trkpt lat="46.99251" lon="8.66231">
        <ele>540</ele>
        <time>2021-08-05T09:49:56.448Z</time>
      </trkpt>
      <trkpt lat="46.99253" lon="8.66231">
        <ele>540</ele>
        <time>2021-08-05T09:49:57.449Z</time>
      </trkpt>
      <trkpt lat="46.99255" lon="8.6623">
        <ele>540</ele>
        <time>2021-08-05T09:49:58.449Z</time>
      </trkpt>
      <trkpt lat="46.99258" lon="8.66231">
        <ele>540</ele>
        <time>2021-08-05T09:49:59.449Z</time>
      </trkpt>
      <trkpt lat="46.99258" lon="8.66231">
        <ele>540</ele>
        <time>2021-08-05T09:50:00.449Z</time>
      </trkpt>
      <trkpt lat="46.99259" lon="8.66231">
        <ele>540</ele>
        <time>2021-08-05T09:50:01.448Z</time>
      </trkpt>
      <trkpt lat="46.99259" lon="8.66231">
        <ele>540</ele>
        <time>2021-08-05T09:50:02.449Z</time>
      </trkpt>
      <trkpt lat="46.99259" lon="8.66231">
        <ele>540</ele>
        <time>2021-08-05T09:50:03.448Z</time>
      </trkpt>
      <trkpt lat="46.99258" lon="8.66231">
        <ele>540</ele>
        <time>2021-08-05T09:50:04.449Z</time>
      </trkpt>
      <trkpt lat="46.99259" lon="8.66231">
        <ele>540</ele>
        <time>2021-08-05T09:50:05.448Z</time>
      </trkpt>
      <trkpt lat="46.9926" lon="8.66232">
        <ele>540</ele>
        <time>2021-08-05T09:50:06.449Z</time>
      </trkpt>
      <trkpt lat="46.99261" lon="8.66232">
        <ele>540</ele>
        <time>2021-08-05T09:50:07.449Z</time>
      </trkpt>
      <trkpt lat="46.99263" lon="8.66233">
        <ele>539</ele>
        <time>2021-08-05T09:50:08.448Z</time>
      </trkpt>
      <trkpt lat="46.99264" lon="8.66233">
        <ele>539</ele>
        <time>2021-08-05T09:50:09.449Z</time>
      </trkpt>
      <trkpt lat="46.99266" lon="8.66234">
        <ele>539</ele>
        <time>2021-08-05T09:50:10.449Z</time>
      </trkpt>
      <trkpt lat="46.99267" lon="8.66234">
        <ele>539</ele>
        <time>2021-08-05T09:50:11.448Z</time>
      </trkpt>
      <trkpt lat="46.99268" lon="8.66235">
        <ele>539</ele>
        <time>2021-08-05T09:50:12.449Z</time>
      </trkpt>
      <trkpt lat="46.99269" lon="8.66235">
        <ele>539</ele>
        <time>2021-08-05T09:50:13.449Z</time>
      </trkpt>
      <trkpt lat="46.99271" lon="8.66236">
        <ele>540</ele>
        <time>2021-08-05T09:50:14.449Z</time>
      </trkpt>
      <trkpt lat="46.99271" lon="8.66236">
        <ele>540</ele>
        <time>2021-08-05T09:50:15.449Z</time>
      </trkpt>
      <trkpt lat="46.99271" lon="8.66237">
        <ele>540</ele>
        <time>2021-08-05T09:50:16.448Z</time>
      </trkpt>
      <trkpt lat="46.99272" lon="8.66237">
        <ele>540</ele>
        <time>2021-08-05T09:50:17.449Z</time>
      </trkpt>
      <trkpt lat="46.99273" lon="8.66235">
        <ele>540</ele>
        <time>2021-08-05T09:50:18.448Z</time>
      </trkpt>
      <trkpt lat="46.99274" lon="8.66234">
        <ele>540</ele>
        <time>2021-08-05T09:50:19.449Z</time>
      </trkpt>
      <trkpt lat="46.99275" lon="8.66234">
        <ele>540</ele>
        <time>2021-08-05T09:50:20.448Z</time>
      </trkpt>
      <trkpt lat="46.99275" lon="8.66235">
        <ele>540</ele>
        <time>2021-08-05T09:50:21.449Z</time>
      </trkpt>
      <trkpt lat="46.99275" lon="8.66236">
        <ele>540</ele>
        <time>2021-08-05T09:50:22.449Z</time>
      </trkpt>
      <trkpt lat="46.99275" lon="8.66237">
        <ele>540</ele>
        <time>2021-08-05T09:50:23.448Z</time>
      </trkpt>
      <trkpt lat="46.99275" lon="8.66238">
        <ele>540</ele>
        <time>2021-08-05T09:50:24.448Z</time>
      </trkpt>
      <trkpt lat="46.99275" lon="8.66239">
        <ele>540</ele>
        <time>2021-08-05T09:50:25.448Z</time>
      </trkpt>
      <trkpt lat="46.99275" lon="8.66239">
        <ele>540</ele>
        <time>2021-08-05T09:50:26.448Z</time>
      </trkpt>
      <trkpt lat="46.99275" lon="8.6624">
        <ele>541</ele>
        <time>2021-08-05T09:50:27.449Z</time>
      </trkpt>
      <trkpt lat="46.99275" lon="8.6624">
        <ele>541</ele>
        <time>2021-08-05T09:50:28.448Z</time>
      </trkpt>
      <trkpt lat="46.99276" lon="8.6624">
        <ele>541</ele>
        <time>2021-08-05T09:50:29.448Z</time>
      </trkpt>
      <trkpt lat="46.99276" lon="8.66241">
        <ele>541</ele>
        <time>2021-08-05T09:50:30.448Z</time>
      </trkpt>
      <trkpt lat="46.99276" lon="8.66242">
        <ele>540</ele>
        <time>2021-08-05T09:50:31.448Z</time>
      </trkpt>
      <trkpt lat="46.99276" lon="8.66243">
        <ele>540</ele>
        <time>2021-08-05T09:50:32.449Z</time>
      </trkpt>
      <trkpt lat="46.99277" lon="8.66243">
        <ele>540</ele>
        <time>2021-08-05T09:50:33.448Z</time>
      </trkpt>
      <trkpt lat="46.99278" lon="8.66244">
        <ele>540</ele>
        <time>2021-08-05T09:50:34.448Z</time>
      </trkpt>
      <trkpt lat="46.99278" lon="8.66245">
        <ele>540</ele>
        <time>2021-08-05T09:50:35.448Z</time>
      </trkpt>
      <trkpt lat="46.99279" lon="8.66246">
        <ele>540</ele>
        <time>2021-08-05T09:50:36.448Z</time>
      </trkpt>
      <trkpt lat="46.9928" lon="8.66247">
        <ele>540</ele>
        <time>2021-08-05T09:50:37.448Z</time>
      </trkpt>
      <trkpt lat="46.99281" lon="8.66248">
        <ele>540</ele>
        <time>2021-08-05T09:50:38.448Z</time>
      </trkpt>
      <trkpt lat="46.99281" lon="8.66248">
        <ele>540</ele>
        <time>2021-08-05T09:50:39.448Z</time>
      </trkpt>
      <trkpt lat="46.99281" lon="8.66249">
        <ele>540</ele>
        <time>2021-08-05T09:50:40.448Z</time>
      </trkpt>
      <trkpt lat="46.99281" lon="8.6625">
        <ele>540</ele>
        <time>2021-08-05T09:50:41.448Z</time>
      </trkpt>
      <trkpt lat="46.99281" lon="8.66251">
        <ele>540</ele>
        <time>2021-08-05T09:50:42.448Z</time>
      </trkpt>
      <trkpt lat="46.9928" lon="8.66252">
        <ele>540</ele>
        <time>2021-08-05T09:50:43.449Z</time>
      </trkpt>
      <trkpt lat="46.99279" lon="8.66254">
        <ele>540</ele>
        <time>2021-08-05T09:50:44.448Z</time>
      </trkpt>
      <trkpt lat="46.99279" lon="8.66255">
        <ele>540</ele>
        <time>2021-08-05T09:50:45.448Z</time>
      </trkpt>
      <trkpt lat="46.99279" lon="8.66258">
        <ele>540</ele>
        <time>2021-08-05T09:50:46.448Z</time>
      </trkpt>
      <trkpt lat="46.99279" lon="8.66261">
        <ele>540</ele>
        <time>2021-08-05T09:50:47.449Z</time>
      </trkpt>
      <trkpt lat="46.9928" lon="8.66264">
        <ele>540</ele>
        <time>2021-08-05T09:50:48.448Z</time>
      </trkpt>
      <trkpt lat="46.9928" lon="8.66266">
        <ele>540</ele>
        <time>2021-08-05T09:50:49.448Z</time>
      </trkpt>
      <trkpt lat="46.9928" lon="8.66268">
        <ele>540</ele>
        <time>2021-08-05T09:50:50.449Z</time>
      </trkpt>
      <trkpt lat="46.99279" lon="8.6627">
        <ele>540</ele>
        <time>2021-08-05T09:50:51.449Z</time>
      </trkpt>
      <trkpt lat="46.99279" lon="8.66272">
        <ele>540</ele>
        <time>2021-08-05T09:50:52.449Z</time>
      </trkpt>
      <trkpt lat="46.99279" lon="8.66273">
        <ele>539</ele>
        <time>2021-08-05T09:50:53.448Z</time>
      </trkpt>
      <trkpt lat="46.99279" lon="8.66274">
        <ele>539</ele>
        <time>2021-08-05T09:50:54.449Z</time>
      </trkpt>
      <trkpt lat="46.99279" lon="8.66276">
        <ele>538</ele>
        <time>2021-08-05T09:50:55.449Z</time>
      </trkpt>
      <trkpt lat="46.99278" lon="8.66278">
        <ele>537</ele>
        <time>2021-08-05T09:50:56.449Z</time>
      </trkpt>
      <trkpt lat="46.99279" lon="8.66279">
        <ele>537</ele>
        <time>2021-08-05T09:50:57.449Z</time>
      </trkpt>
      <trkpt lat="46.9928" lon="8.66281">
        <ele>536</ele>
        <time>2021-08-05T09:50:58.449Z</time>
      </trkpt>
      <trkpt lat="46.9928" lon="8.66283">
        <ele>535</ele>
        <time>2021-08-05T09:50:59.448Z</time>
      </trkpt>
      <trkpt lat="46.99279" lon="8.66286">
        <ele>535</ele>
        <time>2021-08-05T09:51:00.449Z</time>
      </trkpt>
      <trkpt lat="46.99279" lon="8.66289">
        <ele>535</ele>
        <time>2021-08-05T09:51:01.449Z</time>
      </trkpt>
      <trkpt lat="46.99279" lon="8.66291">
        <ele>534</ele>
        <time>2021-08-05T09:51:02.448Z</time>
      </trkpt>
      <trkpt lat="46.99281" lon="8.66293">
        <ele>534</ele>
        <time>2021-08-05T09:51:03.449Z</time>
      </trkpt>
      <trkpt lat="46.99282" lon="8.66294">
        <ele>533</ele>
        <time>2021-08-05T09:51:04.448Z</time>
      </trkpt>
      <trkpt lat="46.99282" lon="8.66294">
        <ele>533</ele>
        <time>2021-08-05T09:51:05.449Z</time>
      </trkpt>
      <trkpt lat="46.99281" lon="8.66295">
        <ele>533</ele>
        <time>2021-08-05T09:51:06.449Z</time>
      </trkpt>
      <trkpt lat="46.99281" lon="8.66297">
        <ele>533</ele>
        <time>2021-08-05T09:51:07.448Z</time>
      </trkpt>
      <trkpt lat="46.99281" lon="8.663">
        <ele>533</ele>
        <time>2021-08-05T09:51:08.448Z</time>
      </trkpt>
      <trkpt lat="46.99279" lon="8.66302">
        <ele>532</ele>
        <time>2021-08-05T09:51:09.449Z</time>
      </trkpt>
      <trkpt lat="46.99277" lon="8.66306">
        <ele>532</ele>
        <time>2021-08-05T09:51:10.450Z</time>
      </trkpt>
      <trkpt lat="46.99275" lon="8.66308">
        <ele>532</ele>
        <time>2021-08-05T09:51:11.450Z</time>
      </trkpt>
      <trkpt lat="46.99275" lon="8.66309">
        <ele>532</ele>
        <time>2021-08-05T09:51:12.450Z</time>
      </trkpt>
      <trkpt lat="46.99276" lon="8.66309">
        <ele>532</ele>
        <time>2021-08-05T09:51:13.450Z</time>
      </trkpt>
      <trkpt lat="46.99276" lon="8.6631">
        <ele>532</ele>
        <time>2021-08-05T09:51:14.450Z</time>
      </trkpt>
      <trkpt lat="46.99276" lon="8.66311">
        <ele>532</ele>
        <time>2021-08-05T09:51:15.449Z</time>
      </trkpt>
      <trkpt lat="46.99276" lon="8.66312">
        <ele>532</ele>
        <time>2021-08-05T09:51:16.449Z</time>
      </trkpt>
      <trkpt lat="46.99276" lon="8.66313">
        <ele>532</ele>
        <time>2021-08-05T09:51:17.449Z</time>
      </trkpt>
      <trkpt lat="46.99276" lon="8.66313">
        <ele>533</ele>
        <time>2021-08-05T09:51:18.450Z</time>
      </trkpt>
      <trkpt lat="46.99276" lon="8.66315">
        <ele>533</ele>
        <time>2021-08-05T09:51:19.450Z</time>
      </trkpt>
      <trkpt lat="46.99275" lon="8.66315">
        <ele>533</ele>
        <time>2021-08-05T09:51:20.450Z</time>
      </trkpt>
      <trkpt lat="46.99273" lon="8.66315">
        <ele>534</ele>
        <time>2021-08-05T09:51:21.450Z</time>
      </trkpt>
      <trkpt lat="46.99273" lon="8.66316">
        <ele>534</ele>
        <time>2021-08-05T09:51:22.449Z</time>
      </trkpt>
      <trkpt lat="46.99272" lon="8.66316">
        <ele>534</ele>
        <time>2021-08-05T09:51:23.449Z</time>
      </trkpt>
      <trkpt lat="46.99272" lon="8.66317">
        <ele>534</ele>
        <time>2021-08-05T09:51:24.450Z</time>
      </trkpt>
      <trkpt lat="46.99271" lon="8.66318">
        <ele>534</ele>
        <time>2021-08-05T09:51:25.450Z</time>
      </trkpt>
      <trkpt lat="46.9927" lon="8.66319">
        <ele>534</ele>
        <time>2021-08-05T09:51:26.449Z</time>
      </trkpt>
      <trkpt lat="46.99268" lon="8.6632">
        <ele>534</ele>
        <time>2021-08-05T09:51:27.450Z</time>
      </trkpt>
      <trkpt lat="46.99268" lon="8.66321">
        <ele>534</ele>
        <time>2021-08-05T09:51:28.450Z</time>
      </trkpt>
      <trkpt lat="46.99267" lon="8.66322">
        <ele>534</ele>
        <time>2021-08-05T09:51:29.450Z</time>
      </trkpt>
      <trkpt lat="46.99267" lon="8.66323">
        <ele>534</ele>
        <time>2021-08-05T09:51:30.450Z</time>
      </trkpt>
      <trkpt lat="46.99266" lon="8.66324">
        <ele>533</ele>
        <time>2021-08-05T09:51:31.450Z</time>
      </trkpt>
      <trkpt lat="46.99265" lon="8.66325">
        <ele>533</ele>
        <time>2021-08-05T09:51:32.449Z</time>
      </trkpt>
      <trkpt lat="46.99264" lon="8.66326">
        <ele>533</ele>
        <time>2021-08-05T09:51:33.450Z</time>
      </trkpt>
      <trkpt lat="46.99263" lon="8.66327">
        <ele>533</ele>
        <time>2021-08-05T09:51:34.449Z</time>
      </trkpt>
      <trkpt lat="46.99263" lon="8.66327">
        <ele>534</ele>
        <time>2021-08-05T09:51:35.449Z</time>
      </trkpt>
      <trkpt lat="46.99263" lon="8.66326">
        <ele>534</ele>
        <time>2021-08-05T09:51:36.450Z</time>
      </trkpt>
      <trkpt lat="46.99264" lon="8.66326">
        <ele>534</ele>
        <time>2021-08-05T09:51:37.450Z</time>
      </trkpt>
      <trkpt lat="46.99263" lon="8.66327">
        <ele>534</ele>
        <time>2021-08-05T09:51:38.450Z</time>
      </trkpt>
      <trkpt lat="46.99263" lon="8.66327">
        <ele>535</ele>
        <time>2021-08-05T09:51:39.450Z</time>
      </trkpt>
      <trkpt lat="46.99262" lon="8.66328">
        <ele>535</ele>
        <time>2021-08-05T09:51:40.449Z</time>
      </trkpt>
      <trkpt lat="46.9926" lon="8.6633">
        <ele>535</ele>
        <time>2021-08-05T09:51:41.450Z</time>
      </trkpt>
      <trkpt lat="46.99259" lon="8.66332">
        <ele>535</ele>
        <time>2021-08-05T09:51:42.450Z</time>
      </trkpt>
      <trkpt lat="46.99257" lon="8.66333">
        <ele>534</ele>
        <time>2021-08-05T09:51:43.450Z</time>
      </trkpt>
      <trkpt lat="46.99256" lon="8.66334">
        <ele>533</ele>
        <time>2021-08-05T09:51:44.449Z</time>
      </trkpt>
      <trkpt lat="46.99256" lon="8.66335">
        <ele>533</ele>
        <time>2021-08-05T09:51:45.449Z</time>
      </trkpt>
      <trkpt lat="46.99256" lon="8.66335">
        <ele>532</ele>
        <time>2021-08-05T09:51:46.450Z</time>
      </trkpt>
      <trkpt lat="46.99255" lon="8.66336">
        <ele>532</ele>
        <time>2021-08-05T09:51:47.450Z</time>
      </trkpt>
      <trkpt lat="46.99255" lon="8.66337">
        <ele>531</ele>
        <time>2021-08-05T09:51:48.450Z</time>
      </trkpt>
      <trkpt lat="46.99255" lon="8.66338">
        <ele>531</ele>
        <time>2021-08-05T09:51:49.450Z</time>
      </trkpt>
      <trkpt lat="46.99255" lon="8.66339">
        <ele>531</ele>
        <time>2021-08-05T09:51:50.450Z</time>
      </trkpt>
      <trkpt lat="46.99254" lon="8.6634">
        <ele>530</ele>
        <time>2021-08-05T09:51:51.449Z</time>
      </trkpt>
      <trkpt lat="46.99253" lon="8.66341">
        <ele>529</ele>
        <time>2021-08-05T09:51:52.449Z</time>
      </trkpt>
      <trkpt lat="46.99253" lon="8.66342">
        <ele>529</ele>
        <time>2021-08-05T09:51:53.450Z</time>
      </trkpt>
      <trkpt lat="46.99253" lon="8.66343">
        <ele>528</ele>
        <time>2021-08-05T09:51:54.449Z</time>
      </trkpt>
      <trkpt lat="46.99253" lon="8.66344">
        <ele>528</ele>
        <time>2021-08-05T09:51:55.450Z</time>
      </trkpt>
      <trkpt lat="46.99252" lon="8.66345">
        <ele>527</ele>
        <time>2021-08-05T09:51:56.450Z</time>
      </trkpt>
      <trkpt lat="46.99252" lon="8.66347">
        <ele>527</ele>
        <time>2021-08-05T09:51:57.450Z</time>
      </trkpt>
      <trkpt lat="46.99252" lon="8.66348">
        <ele>527</ele>
        <time>2021-08-05T09:51:58.450Z</time>
      </trkpt>
      <trkpt lat="46.99252" lon="8.66349">
        <ele>526</ele>
        <time>2021-08-05T09:51:59.450Z</time>
      </trkpt>
      <trkpt lat="46.99252" lon="8.66351">
        <ele>526</ele>
        <time>2021-08-05T09:52:00.450Z</time>
      </trkpt>
      <trkpt lat="46.9925" lon="8.66352">
        <ele>525</ele>
        <time>2021-08-05T09:52:01.449Z</time>
      </trkpt>
      <trkpt lat="46.99249" lon="8.66354">
        <ele>525</ele>
        <time>2021-08-05T09:52:02.450Z</time>
      </trkpt>
      <trkpt lat="46.99249" lon="8.66355">
        <ele>525</ele>
        <time>2021-08-05T09:52:03.450Z</time>
      </trkpt>
      <trkpt lat="46.99249" lon="8.66355">
        <ele>525</ele>
        <time>2021-08-05T09:52:04.450Z</time>
      </trkpt>
      <trkpt lat="46.9925" lon="8.66356">
        <ele>526</ele>
        <time>2021-08-05T09:52:05.449Z</time>
      </trkpt>
      <trkpt lat="46.99249" lon="8.66358">
        <ele>526</ele>
        <time>2021-08-05T09:52:06.450Z</time>
      </trkpt>
      <trkpt lat="46.99248" lon="8.66359">
        <ele>527</ele>
        <time>2021-08-05T09:52:07.450Z</time>
      </trkpt>
      <trkpt lat="46.99248" lon="8.6636">
        <ele>528</ele>
        <time>2021-08-05T09:52:08.450Z</time>
      </trkpt>
      <trkpt lat="46.99249" lon="8.6636">
        <ele>528</ele>
        <time>2021-08-05T09:52:09.450Z</time>
      </trkpt>
      <trkpt lat="46.99249" lon="8.66361">
        <ele>529</ele>
        <time>2021-08-05T09:52:10.450Z</time>
      </trkpt>
      <trkpt lat="46.99249" lon="8.66362">
        <ele>530</ele>
        <time>2021-08-05T09:52:11.450Z</time>
      </trkpt>
      <trkpt lat="46.99249" lon="8.66364">
        <ele>530</ele>
        <time>2021-08-05T09:52:12.450Z</time>
      </trkpt>
      <trkpt lat="46.99248" lon="8.66366">
        <ele>530</ele>
        <time>2021-08-05T09:52:13.450Z</time>
      </trkpt>
      <trkpt lat="46.99248" lon="8.66367">
        <ele>531</ele>
        <time>2021-08-05T09:52:14.450Z</time>
      </trkpt>
      <trkpt lat="46.99248" lon="8.66368">
        <ele>531</ele>
        <time>2021-08-05T09:52:15.450Z</time>
      </trkpt>
      <trkpt lat="46.99248" lon="8.66369">
        <ele>532</ele>
        <time>2021-08-05T09:52:16.450Z</time>
      </trkpt>
      <trkpt lat="46.99248" lon="8.66369">
        <ele>533</ele>
        <time>2021-08-05T09:52:17.450Z</time>
      </trkpt>
      <trkpt lat="46.99249" lon="8.6637">
        <ele>534</ele>
        <time>2021-08-05T09:52:18.450Z</time>
      </trkpt>
      <trkpt lat="46.9925" lon="8.66372">
        <ele>535</ele>
        <time>2021-08-05T09:52:19.449Z</time>
      </trkpt>
      <trkpt lat="46.9925" lon="8.66373">
        <ele>535</ele>
        <time>2021-08-05T09:52:20.449Z</time>
      </trkpt>
      <trkpt lat="46.9925" lon="8.66375">
        <ele>536</ele>
        <time>2021-08-05T09:52:21.449Z</time>
      </trkpt>
      <trkpt lat="46.9925" lon="8.66376">
        <ele>537</ele>
        <time>2021-08-05T09:52:22.449Z</time>
      </trkpt>
      <trkpt lat="46.9925" lon="8.66378">
        <ele>538</ele>
        <time>2021-08-05T09:52:23.450Z</time>
      </trkpt>
      <trkpt lat="46.99249" lon="8.6638">
        <ele>539</ele>
        <time>2021-08-05T09:52:24.450Z</time>
      </trkpt>
      <trkpt lat="46.99249" lon="8.66382">
        <ele>540</ele>
        <time>2021-08-05T09:52:25.450Z</time>
      </trkpt>
      <trkpt lat="46.99249" lon="8.66383">
        <ele>540</ele>
        <time>2021-08-05T09:52:26.450Z</time>
      </trkpt>
      <trkpt lat="46.9925" lon="8.66384">
        <ele>541</ele>
        <time>2021-08-05T09:52:27.450Z</time>
      </trkpt>
      <trkpt lat="46.9925" lon="8.66385">
        <ele>542</ele>
        <time>2021-08-05T09:52:28.450Z</time>
      </trkpt>
      <trkpt lat="46.99251" lon="8.66386">
        <ele>542</ele>
        <time>2021-08-05T09:52:29.450Z</time>
      </trkpt>
      <trkpt lat="46.99251" lon="8.66387">
        <ele>543</ele>
        <time>2021-08-05T09:52:30.449Z</time>
      </trkpt>
      <trkpt lat="46.99251" lon="8.66388">
        <ele>544</ele>
        <time>2021-08-05T09:52:31.449Z</time>
      </trkpt>
      <trkpt lat="46.9925" lon="8.66389">
        <ele>544</ele>
        <time>2021-08-05T09:52:32.450Z</time>
      </trkpt>
      <trkpt lat="46.9925" lon="8.66391">
        <ele>544</ele>
        <time>2021-08-05T09:52:33.450Z</time>
      </trkpt>
      <trkpt lat="46.9925" lon="8.66392">
        <ele>545</ele>
        <time>2021-08-05T09:52:34.450Z</time>
      </trkpt>
      <trkpt lat="46.99249" lon="8.66392">
        <ele>545</ele>
        <time>2021-08-05T09:52:35.449Z</time>
      </trkpt>
      <trkpt lat="46.9925" lon="8.66393">
        <ele>546</ele>
        <time>2021-08-05T09:52:36.449Z</time>
      </trkpt>
      <trkpt lat="46.9925" lon="8.66394">
        <ele>547</ele>
        <time>2021-08-05T09:52:37.449Z</time>
      </trkpt>
      <trkpt lat="46.99251" lon="8.66395">
        <ele>547</ele>
        <time>2021-08-05T09:52:38.449Z</time>
      </trkpt>
      <trkpt lat="46.99252" lon="8.66395">
        <ele>548</ele>
        <time>2021-08-05T09:52:39.450Z</time>
      </trkpt>
      <trkpt lat="46.99253" lon="8.66397">
        <ele>549</ele>
        <time>2021-08-05T09:52:40.449Z</time>
      </trkpt>
      <trkpt lat="46.99253" lon="8.66398">
        <ele>549</ele>
        <time>2021-08-05T09:52:41.450Z</time>
      </trkpt>
      <trkpt lat="46.99254" lon="8.66398">
        <ele>550</ele>
        <time>2021-08-05T09:52:42.449Z</time>
      </trkpt>
      <trkpt lat="46.99254" lon="8.66398">
        <ele>550</ele>
        <time>2021-08-05T09:52:43.450Z</time>
      </trkpt>
      <trkpt lat="46.99254" lon="8.66397">
        <ele>550</ele>
        <time>2021-08-05T09:52:44.450Z</time>
      </trkpt>
      <trkpt lat="46.99254" lon="8.66395">
        <ele>550</ele>
        <time>2021-08-05T09:52:45.450Z</time>
      </trkpt>
      <trkpt lat="46.99254" lon="8.66394">
        <ele>550</ele>
        <time>2021-08-05T09:52:46.449Z</time>
      </trkpt>
      <trkpt lat="46.99255" lon="8.66393">
        <ele>550</ele>
        <time>2021-08-05T09:52:47.449Z</time>
      </trkpt>
      <trkpt lat="46.99255" lon="8.66393">
        <ele>550</ele>
        <time>2021-08-05T09:52:48.449Z</time>
      </trkpt>
      <trkpt lat="46.99255" lon="8.66394">
        <ele>550</ele>
        <time>2021-08-05T09:52:49.449Z</time>
      </trkpt>
      <trkpt lat="46.99254" lon="8.66395">
        <ele>550</ele>
        <time>2021-08-05T09:52:50.449Z</time>
      </trkpt>
      <trkpt lat="46.99254" lon="8.66397">
        <ele>550</ele>
        <time>2021-08-05T09:52:51.450Z</time>
      </trkpt>
      <trkpt lat="46.99253" lon="8.66398">
        <ele>550</ele>
        <time>2021-08-05T09:52:52.450Z</time>
      </trkpt>
      <trkpt lat="46.99253" lon="8.66399">
        <ele>550</ele>
        <time>2021-08-05T09:52:53.450Z</time>
      </trkpt>
      <trkpt lat="46.99252" lon="8.66399">
        <ele>550</ele>
        <time>2021-08-05T09:52:54.450Z</time>
      </trkpt>
      <trkpt lat="46.99253" lon="8.664">
        <ele>550</ele>
        <time>2021-08-05T09:52:55.450Z</time>
      </trkpt>
      <trkpt lat="46.99253" lon="8.66401">
        <ele>550</ele>
        <time>2021-08-05T09:52:56.449Z</time>
      </trkpt>
      <trkpt lat="46.99253" lon="8.66402">
        <ele>550</ele>
        <time>2021-08-05T09:52:57.449Z</time>
      </trkpt>
      <trkpt lat="46.99253" lon="8.66404">
        <ele>550</ele>
        <time>2021-08-05T09:52:58.449Z</time>
      </trkpt>
      <trkpt lat="46.99252" lon="8.66406">
        <ele>550</ele>
        <time>2021-08-05T09:52:59.449Z</time>
      </trkpt>
      <trkpt lat="46.99252" lon="8.66407">
        <ele>550</ele>
        <time>2021-08-05T09:53:00.450Z</time>
      </trkpt>
      <trkpt lat="46.99253" lon="8.66409">
        <ele>550</ele>
        <time>2021-08-05T09:53:01.450Z</time>
      </trkpt>
      <trkpt lat="46.99253" lon="8.66411">
        <ele>550</ele>
        <time>2021-08-05T09:53:02.449Z</time>
      </trkpt>
      <trkpt lat="46.99252" lon="8.66414">
        <ele>549</ele>
        <time>2021-08-05T09:53:03.449Z</time>
      </trkpt>
      <trkpt lat="46.99253" lon="8.66416">
        <ele>549</ele>
        <time>2021-08-05T09:53:04.450Z</time>
      </trkpt>
      <trkpt lat="46.99252" lon="8.66419">
        <ele>549</ele>
        <time>2021-08-05T09:53:05.450Z</time>
      </trkpt>
      <trkpt lat="46.99252" lon="8.66423">
        <ele>549</ele>
        <time>2021-08-05T09:53:06.450Z</time>
      </trkpt>
      <trkpt lat="46.99253" lon="8.66426">
        <ele>548</ele>
        <time>2021-08-05T09:53:07.450Z</time>
      </trkpt>
      <trkpt lat="46.99254" lon="8.66427">
        <ele>548</ele>
        <time>2021-08-05T09:53:08.450Z</time>
      </trkpt>
      <trkpt lat="46.99254" lon="8.66428">
        <ele>548</ele>
        <time>2021-08-05T09:53:09.450Z</time>
      </trkpt>
      <trkpt lat="46.99253" lon="8.6643">
        <ele>547</ele>
        <time>2021-08-05T09:53:10.450Z</time>
      </trkpt>
      <trkpt lat="46.99254" lon="8.6643">
        <ele>547</ele>
        <time>2021-08-05T09:53:11.450Z</time>
      </trkpt>
      <trkpt lat="46.99254" lon="8.6643">
        <ele>547</ele>
        <time>2021-08-05T09:53:12.449Z</time>
      </trkpt>
      <trkpt lat="46.99256" lon="8.6643">
        <ele>547</ele>
        <time>2021-08-05T09:53:13.449Z</time>
      </trkpt>
      <trkpt lat="46.99256" lon="8.66432">
        <ele>547</ele>
        <time>2021-08-05T09:53:14.450Z</time>
      </trkpt>
      <trkpt lat="46.99257" lon="8.66433">
        <ele>547</ele>
        <time>2021-08-05T09:53:15.450Z</time>
      </trkpt>
      <trkpt lat="46.99257" lon="8.66435">
        <ele>547</ele>
        <time>2021-08-05T09:53:16.450Z</time>
      </trkpt>
      <trkpt lat="46.99258" lon="8.66436">
        <ele>547</ele>
        <time>2021-08-05T09:53:17.450Z</time>
      </trkpt>
      <trkpt lat="46.9926" lon="8.66437">
        <ele>547</ele>
        <time>2021-08-05T09:53:18.449Z</time>
      </trkpt>
      <trkpt lat="46.9926" lon="8.66438">
        <ele>547</ele>
        <time>2021-08-05T09:53:19.450Z</time>
      </trkpt>
      <trkpt lat="46.99261" lon="8.66439">
        <ele>547</ele>
        <time>2021-08-05T09:53:20.449Z</time>
      </trkpt>
      <trkpt lat="46.99261" lon="8.6644">
        <ele>547</ele>
        <time>2021-08-05T09:53:21.449Z</time>
      </trkpt>
      <trkpt lat="46.99261" lon="8.66442">
        <ele>547</ele>
        <time>2021-08-05T09:53:22.450Z</time>
      </trkpt>
      <trkpt lat="46.99261" lon="8.66443">
        <ele>547</ele>
        <time>2021-08-05T09:53:23.449Z</time>
      </trkpt>
      <trkpt lat="46.99262" lon="8.66445">
        <ele>547</ele>
        <time>2021-08-05T09:53:24.450Z</time>
      </trkpt>
      <trkpt lat="46.99263" lon="8.66446">
        <ele>547</ele>
        <time>2021-08-05T09:53:25.450Z</time>
      </trkpt>
      <trkpt lat="46.99265" lon="8.66446">
        <ele>547</ele>
        <time>2021-08-05T09:53:26.450Z</time>
      </trkpt>
      <trkpt lat="46.99266" lon="8.66447">
        <ele>547</ele>
        <time>2021-08-05T09:53:27.450Z</time>
      </trkpt>
      <trkpt lat="46.99266" lon="8.66448">
        <ele>546</ele>
        <time>2021-08-05T09:53:28.450Z</time>
      </trkpt>
      <trkpt lat="46.99266" lon="8.66449">
        <ele>546</ele>
        <time>2021-08-05T09:53:29.450Z</time>
      </trkpt>
      <trkpt lat="46.99266" lon="8.6645">
        <ele>545</ele>
        <time>2021-08-05T09:53:30.450Z</time>
      </trkpt>
      <trkpt lat="46.99266" lon="8.66451">
        <ele>544</ele>
        <time>2021-08-05T09:53:31.450Z</time>
      </trkpt>
      <trkpt lat="46.99266" lon="8.66452">
        <ele>544</ele>
        <time>2021-08-05T09:53:32.450Z</time>
      </trkpt>
      <trkpt lat="46.99266" lon="8.66453">
        <ele>543</ele>
        <time>2021-08-05T09:53:33.450Z</time>
      </trkpt>
      <trkpt lat="46.99266" lon="8.66455">
        <ele>542</ele>
        <time>2021-08-05T09:53:34.450Z</time>
      </trkpt>
      <trkpt lat="46.99266" lon="8.66456">
        <ele>542</ele>
        <time>2021-08-05T09:53:35.449Z</time>
      </trkpt>
      <trkpt lat="46.99266" lon="8.66458">
        <ele>542</ele>
        <time>2021-08-05T09:53:36.450Z</time>
      </trkpt>
      <trkpt lat="46.99266" lon="8.66459">
        <ele>541</ele>
        <time>2021-08-05T09:53:37.450Z</time>
      </trkpt>
      <trkpt lat="46.99266" lon="8.66461">
        <ele>541</ele>
        <time>2021-08-05T09:53:38.450Z</time>
      </trkpt>
      <trkpt lat="46.99266" lon="8.66463">
        <ele>541</ele>
        <time>2021-08-05T09:53:39.450Z</time>
      </trkpt>
      <trkpt lat="46.99266" lon="8.66465">
        <ele>540</ele>
        <time>2021-08-05T09:53:40.449Z</time>
      </trkpt>
      <trkpt lat="46.99266" lon="8.66466">
        <ele>540</ele>
        <time>2021-08-05T09:53:41.450Z</time>
      </trkpt>
      <trkpt lat="46.99267" lon="8.66468">
        <ele>540</ele>
        <time>2021-08-05T09:53:42.450Z</time>
      </trkpt>
      <trkpt lat="46.99268" lon="8.66469">
        <ele>539</ele>
        <time>2021-08-05T09:53:43.450Z</time>
      </trkpt>
      <trkpt lat="46.99269" lon="8.6647">
        <ele>539</ele>
        <time>2021-08-05T09:53:44.450Z</time>
      </trkpt>
      <trkpt lat="46.99269" lon="8.66472">
        <ele>539</ele>
        <time>2021-08-05T09:53:45.450Z</time>
      </trkpt>
      <trkpt lat="46.9927" lon="8.66474">
        <ele>539</ele>
        <time>2021-08-05T09:53:46.449Z</time>
      </trkpt>
      <trkpt lat="46.9927" lon="8.66476">
        <ele>539</ele>
        <time>2021-08-05T09:53:47.450Z</time>
      </trkpt>
      <trkpt lat="46.99269" lon="8.66479">
        <ele>539</ele>
        <time>2021-08-05T09:53:48.450Z</time>
      </trkpt>
      <trkpt lat="46.99268" lon="8.66482">
        <ele>539</ele>
        <time>2021-08-05T09:53:49.449Z</time>
      </trkpt>
      <trkpt lat="46.99268" lon="8.66484">
        <ele>538</ele>
        <time>2021-08-05T09:53:50.449Z</time>
      </trkpt>
      <trkpt lat="46.99269" lon="8.66485">
        <ele>538</ele>
        <time>2021-08-05T09:53:51.449Z</time>
      </trkpt>
      <trkpt lat="46.99269" lon="8.66487">
        <ele>538</ele>
        <time>2021-08-05T09:53:52.450Z</time>
      </trkpt>
      <trkpt lat="46.9927" lon="8.66488">
        <ele>537</ele>
        <time>2021-08-05T09:53:53.450Z</time>
      </trkpt>
      <trkpt lat="46.99271" lon="8.6649">
        <ele>537</ele>
        <time>2021-08-05T09:53:54.450Z</time>
      </trkpt>
      <trkpt lat="46.99272" lon="8.66492">
        <ele>537</ele>
        <time>2021-08-05T09:53:55.450Z</time>
      </trkpt>
      <trkpt lat="46.99272" lon="8.66493">
        <ele>537</ele>
        <time>2021-08-05T09:53:56.450Z</time>
      </trkpt>
      <trkpt lat="46.99272" lon="8.66495">
        <ele>537</ele>
        <time>2021-08-05T09:53:57.450Z</time>
      </trkpt>
      <trkpt lat="46.99271" lon="8.66496">
        <ele>537</ele>
        <time>2021-08-05T09:53:58.450Z</time>
      </trkpt>
      <trkpt lat="46.99271" lon="8.66498">
        <ele>537</ele>
        <time>2021-08-05T09:53:59.450Z</time>
      </trkpt>
      <trkpt lat="46.99271" lon="8.665">
        <ele>537</ele>
        <time>2021-08-05T09:54:00.449Z</time>
      </trkpt>
      <trkpt lat="46.99271" lon="8.66501">
        <ele>536</ele>
        <time>2021-08-05T09:54:01.450Z</time>
      </trkpt>
      <trkpt lat="46.99272" lon="8.66501">
        <ele>536</ele>
        <time>2021-08-05T09:54:02.449Z</time>
      </trkpt>
      <trkpt lat="46.99272" lon="8.66502">
        <ele>536</ele>
        <time>2021-08-05T09:54:03.450Z</time>
      </trkpt>
      <trkpt lat="46.99273" lon="8.66502">
        <ele>537</ele>
        <time>2021-08-05T09:54:04.450Z</time>
      </trkpt>
      <trkpt lat="46.99274" lon="8.66503">
        <ele>537</ele>
        <time>2021-08-05T09:54:05.450Z</time>
      </trkpt>
      <trkpt lat="46.99274" lon="8.66504">
        <ele>537</ele>
        <time>2021-08-05T09:54:06.450Z</time>
      </trkpt>
      <trkpt lat="46.99274" lon="8.66505">
        <ele>537</ele>
        <time>2021-08-05T09:54:07.450Z</time>
      </trkpt>
      <trkpt lat="46.99274" lon="8.66506">
        <ele>538</ele>
        <time>2021-08-05T09:54:08.450Z</time>
      </trkpt>
      <trkpt lat="46.99275" lon="8.66507">
        <ele>538</ele>
        <time>2021-08-05T09:54:09.450Z</time>
      </trkpt>
      <trkpt lat="46.99275" lon="8.66509">
        <ele>538</ele>
        <time>2021-08-05T09:54:10.449Z</time>
      </trkpt>
      <trkpt lat="46.99276" lon="8.6651">
        <ele>538</ele>
        <time>2021-08-05T09:54:11.449Z</time>
      </trkpt>
      <trkpt lat="46.99276" lon="8.66512">
        <ele>539</ele>
        <time>2021-08-05T09:54:12.449Z</time>
      </trkpt>
      <trkpt lat="46.99275" lon="8.66514">
        <ele>539</ele>
        <time>2021-08-05T09:54:13.450Z</time>
      </trkpt>
      <trkpt lat="46.99275" lon="8.66515">
        <ele>539</ele>
        <time>2021-08-05T09:54:14.449Z</time>
      </trkpt>
      <trkpt lat="46.99274" lon="8.66518">
        <ele>539</ele>
        <time>2021-08-05T09:54:15.449Z</time>
      </trkpt>
      <trkpt lat="46.99274" lon="8.6652">
        <ele>539</ele>
        <time>2021-08-05T09:54:16.450Z</time>
      </trkpt>
      <trkpt lat="46.99274" lon="8.66522">
        <ele>539</ele>
        <time>2021-08-05T09:54:17.449Z</time>
      </trkpt>
      <trkpt lat="46.99274" lon="8.66524">
        <ele>539</ele>
        <time>2021-08-05T09:54:18.449Z</time>
      </trkpt>
      <trkpt lat="46.99275" lon="8.66525">
        <ele>539</ele>
        <time>2021-08-05T09:54:19.449Z</time>
      </trkpt>
      <trkpt lat="46.99275" lon="8.66527">
        <ele>539</ele>
        <time>2021-08-05T09:54:20.450Z</time>
      </trkpt>
      <trkpt lat="46.99276" lon="8.66528">
        <ele>539</ele>
        <time>2021-08-05T09:54:21.449Z</time>
      </trkpt>
      <trkpt lat="46.99276" lon="8.66529">
        <ele>539</ele>
        <time>2021-08-05T09:54:22.449Z</time>
      </trkpt>
      <trkpt lat="46.99277" lon="8.6653">
        <ele>538</ele>
        <time>2021-08-05T09:54:23.449Z</time>
      </trkpt>
      <trkpt lat="46.99279" lon="8.66531">
        <ele>538</ele>
        <time>2021-08-05T09:54:24.450Z</time>
      </trkpt>
      <trkpt lat="46.9928" lon="8.66531">
        <ele>539</ele>
        <time>2021-08-05T09:54:25.449Z</time>
      </trkpt>
      <trkpt lat="46.9928" lon="8.66532">
        <ele>539</ele>
        <time>2021-08-05T09:54:26.449Z</time>
      </trkpt>
      <trkpt lat="46.99281" lon="8.66533">
        <ele>539</ele>
        <time>2021-08-05T09:54:27.449Z</time>
      </trkpt>
      <trkpt lat="46.99282" lon="8.66534">
        <ele>539</ele>
        <time>2021-08-05T09:54:28.449Z</time>
      </trkpt>
      <trkpt lat="46.99283" lon="8.66535">
        <ele>539</ele>
        <time>2021-08-05T09:54:29.449Z</time>
      </trkpt>
      <trkpt lat="46.99284" lon="8.66536">
        <ele>539</ele>
        <time>2021-08-05T09:54:30.450Z</time>
      </trkpt>
      <trkpt lat="46.99286" lon="8.66537">
        <ele>539</ele>
        <time>2021-08-05T09:54:31.450Z</time>
      </trkpt>
      <trkpt lat="46.99287" lon="8.66537">
        <ele>540</ele>
        <time>2021-08-05T09:54:32.449Z</time>
      </trkpt>
      <trkpt lat="46.99289" lon="8.66538">
        <ele>540</ele>
        <time>2021-08-05T09:54:33.449Z</time>
      </trkpt>
      <trkpt lat="46.9929" lon="8.6654">
        <ele>540</ele>
        <time>2021-08-05T09:54:34.449Z</time>
      </trkpt>
      <trkpt lat="46.9929" lon="8.66542">
        <ele>539</ele>
        <time>2021-08-05T09:54:35.449Z</time>
      </trkpt>
      <trkpt lat="46.99291" lon="8.66545">
        <ele>539</ele>
        <time>2021-08-05T09:54:36.449Z</time>
      </trkpt>
      <trkpt lat="46.99291" lon="8.66546">
        <ele>539</ele>
        <time>2021-08-05T09:54:37.449Z</time>
      </trkpt>
      <trkpt lat="46.99292" lon="8.66548">
        <ele>539</ele>
        <time>2021-08-05T09:54:38.450Z</time>
      </trkpt>
      <trkpt lat="46.99291" lon="8.6655">
        <ele>539</ele>
        <time>2021-08-05T09:54:39.449Z</time>
      </trkpt>
      <trkpt lat="46.99291" lon="8.66551">
        <ele>539</ele>
        <time>2021-08-05T09:54:40.449Z</time>
      </trkpt>
      <trkpt lat="46.9929" lon="8.66554">
        <ele>539</ele>
        <time>2021-08-05T09:54:41.449Z</time>
      </trkpt>
      <trkpt lat="46.9929" lon="8.66555">
        <ele>539</ele>
        <time>2021-08-05T09:54:42.450Z</time>
      </trkpt>
      <trkpt lat="46.9929" lon="8.66556">
        <ele>539</ele>
        <time>2021-08-05T09:54:43.449Z</time>
      </trkpt>
      <trkpt lat="46.9929" lon="8.66558">
        <ele>539</ele>
        <time>2021-08-05T09:54:44.449Z</time>
      </trkpt>
      <trkpt lat="46.99291" lon="8.66559">
        <ele>539</ele>
        <time>2021-08-05T09:54:45.450Z</time>
      </trkpt>
      <trkpt lat="46.99292" lon="8.66561">
        <ele>539</ele>
        <time>2021-08-05T09:54:46.450Z</time>
      </trkpt>
      <trkpt lat="46.99293" lon="8.66562">
        <ele>539</ele>
        <time>2021-08-05T09:54:47.449Z</time>
      </trkpt>
      <trkpt lat="46.99294" lon="8.66563">
        <ele>539</ele>
        <time>2021-08-05T09:54:48.449Z</time>
      </trkpt>
      <trkpt lat="46.99294" lon="8.66564">
        <ele>539</ele>
        <time>2021-08-05T09:54:49.450Z</time>
      </trkpt>
      <trkpt lat="46.99295" lon="8.66565">
        <ele>539</ele>
        <time>2021-08-05T09:54:50.449Z</time>
      </trkpt>
      <trkpt lat="46.99295" lon="8.66566">
        <ele>540</ele>
        <time>2021-08-05T09:54:51.449Z</time>
      </trkpt>
      <trkpt lat="46.99296" lon="8.66567">
        <ele>540</ele>
        <time>2021-08-05T09:54:52.450Z</time>
      </trkpt>
      <trkpt lat="46.99297" lon="8.66569">
        <ele>540</ele>
        <time>2021-08-05T09:54:53.450Z</time>
      </trkpt>
      <trkpt lat="46.99298" lon="8.6657">
        <ele>540</ele>
        <time>2021-08-05T09:54:54.449Z</time>
      </trkpt>
      <trkpt lat="46.99299" lon="8.6657">
        <ele>540</ele>
        <time>2021-08-05T09:54:55.449Z</time>
      </trkpt>
      <trkpt lat="46.99301" lon="8.66571">
        <ele>540</ele>
        <time>2021-08-05T09:54:56.450Z</time>
      </trkpt>
      <trkpt lat="46.99301" lon="8.66572">
        <ele>540</ele>
        <time>2021-08-05T09:54:57.450Z</time>
      </trkpt>
      <trkpt lat="46.993" lon="8.66574">
        <ele>540</ele>
        <time>2021-08-05T09:54:58.449Z</time>
      </trkpt>
      <trkpt lat="46.99301" lon="8.66576">
        <ele>540</ele>
        <time>2021-08-05T09:54:59.450Z</time>
      </trkpt>
      <trkpt lat="46.99301" lon="8.66577">
        <ele>540</ele>
        <time>2021-08-05T09:55:00.450Z</time>
      </trkpt>
      <trkpt lat="46.99301" lon="8.66577">
        <ele>540</ele>
        <time>2021-08-05T09:55:01.450Z</time>
      </trkpt>
      <trkpt lat="46.993" lon="8.66578">
        <ele>540</ele>
        <time>2021-08-05T09:55:02.450Z</time>
      </trkpt>
      <trkpt lat="46.993" lon="8.66578">
        <ele>540</ele>
        <time>2021-08-05T09:55:03.450Z</time>
      </trkpt>
      <trkpt lat="46.99299" lon="8.6658">
        <ele>540</ele>
        <time>2021-08-05T09:55:04.450Z</time>
      </trkpt>
      <trkpt lat="46.99298" lon="8.66581">
        <ele>541</ele>
        <time>2021-08-05T09:55:05.450Z</time>
      </trkpt>
      <trkpt lat="46.99297" lon="8.66582">
        <ele>541</ele>
        <time>2021-08-05T09:55:06.450Z</time>
      </trkpt>
      <trkpt lat="46.99298" lon="8.66584">
        <ele>541</ele>
        <time>2021-08-05T09:55:07.450Z</time>
      </trkpt>
      <trkpt lat="46.99298" lon="8.66586">
        <ele>541</ele>
        <time>2021-08-05T09:55:08.450Z</time>
      </trkpt>
      <trkpt lat="46.99299" lon="8.66587">
        <ele>541</ele>
        <time>2021-08-05T09:55:09.449Z</time>
      </trkpt>
      <trkpt lat="46.99299" lon="8.66588">
        <ele>542</ele>
        <time>2021-08-05T09:55:10.450Z</time>
      </trkpt>
      <trkpt lat="46.99299" lon="8.66588">
        <ele>542</ele>
        <time>2021-08-05T09:55:11.450Z</time>
      </trkpt>
      <trkpt lat="46.99299" lon="8.66588">
        <ele>543</ele>
        <time>2021-08-05T09:55:12.450Z</time>
      </trkpt>
      <trkpt lat="46.993" lon="8.66588">
        <ele>543</ele>
        <time>2021-08-05T09:55:13.450Z</time>
      </trkpt>
      <trkpt lat="46.99302" lon="8.66589">
        <ele>543</ele>
        <time>2021-08-05T09:55:14.449Z</time>
      </trkpt>
      <trkpt lat="46.99303" lon="8.6659">
        <ele>544</ele>
        <time>2021-08-05T09:55:15.450Z</time>
      </trkpt>
      <trkpt lat="46.99304" lon="8.66592">
        <ele>544</ele>
        <time>2021-08-05T09:55:16.450Z</time>
      </trkpt>
      <trkpt lat="46.99305" lon="8.66592">
        <ele>544</ele>
        <time>2021-08-05T09:55:17.449Z</time>
      </trkpt>
      <trkpt lat="46.99306" lon="8.66593">
        <ele>544</ele>
        <time>2021-08-05T09:55:18.450Z</time>
      </trkpt>
      <trkpt lat="46.99308" lon="8.66593">
        <ele>544</ele>
        <time>2021-08-05T09:55:19.450Z</time>
      </trkpt>
      <trkpt lat="46.99309" lon="8.66594">
        <ele>544</ele>
        <time>2021-08-05T09:55:20.449Z</time>
      </trkpt>
      <trkpt lat="46.9931" lon="8.66594">
        <ele>544</ele>
        <time>2021-08-05T09:55:21.449Z</time>
      </trkpt>
      <trkpt lat="46.9931" lon="8.66594">
        <ele>544</ele>
        <time>2021-08-05T09:55:22.449Z</time>
      </trkpt>
      <trkpt lat="46.99312" lon="8.66595">
        <ele>544</ele>
        <time>2021-08-05T09:55:23.450Z</time>
      </trkpt>
      <trkpt lat="46.99313" lon="8.66595">
        <ele>544</ele>
        <time>2021-08-05T09:55:24.449Z</time>
      </trkpt>
      <trkpt lat="46.99313" lon="8.66596">
        <ele>544</ele>
        <time>2021-08-05T09:55:25.449Z</time>
      </trkpt>
      <trkpt lat="46.99314" lon="8.66597">
        <ele>544</ele>
        <time>2021-08-05T09:55:26.449Z</time>
      </trkpt>
      <trkpt lat="46.99315" lon="8.66597">
        <ele>545</ele>
        <time>2021-08-05T09:55:27.450Z</time>
      </trkpt>
      <trkpt lat="46.99315" lon="8.66598">
        <ele>545</ele>
        <time>2021-08-05T09:55:28.450Z</time>
      </trkpt>
      <trkpt lat="46.99316" lon="8.66598">
        <ele>545</ele>
        <time>2021-08-05T09:55:29.449Z</time>
      </trkpt>
      <trkpt lat="46.99316" lon="8.66599">
        <ele>546</ele>
        <time>2021-08-05T09:55:30.450Z</time>
      </trkpt>
      <trkpt lat="46.99316" lon="8.666">
        <ele>546</ele>
        <time>2021-08-05T09:55:31.450Z</time>
      </trkpt>
      <trkpt lat="46.99316" lon="8.66601">
        <ele>546</ele>
        <time>2021-08-05T09:55:32.449Z</time>
      </trkpt>
      <trkpt lat="46.99316" lon="8.66602">
        <ele>547</ele>
        <time>2021-08-05T09:55:33.450Z</time>
      </trkpt>
      <trkpt lat="46.99315" lon="8.66604">
        <ele>547</ele>
        <time>2021-08-05T09:55:34.450Z</time>
      </trkpt>
      <trkpt lat="46.99315" lon="8.66605">
        <ele>547</ele>
        <time>2021-08-05T09:55:35.449Z</time>
      </trkpt>
      <trkpt lat="46.99314" lon="8.66606">
        <ele>547</ele>
        <time>2021-08-05T09:55:36.450Z</time>
      </trkpt>
      <trkpt lat="46.99313" lon="8.66607">
        <ele>547</ele>
        <time>2021-08-05T09:55:37.450Z</time>
      </trkpt>
      <trkpt lat="46.99313" lon="8.66609">
        <ele>547</ele>
        <time>2021-08-05T09:55:38.449Z</time>
      </trkpt>
      <trkpt lat="46.99313" lon="8.6661">
        <ele>547</ele>
        <time>2021-08-05T09:55:39.450Z</time>
      </trkpt>
      <trkpt lat="46.99313" lon="8.6661">
        <ele>547</ele>
        <time>2021-08-05T09:55:40.450Z</time>
      </trkpt>
      <trkpt lat="46.99314" lon="8.6661">
        <ele>547</ele>
        <time>2021-08-05T09:55:41.450Z</time>
      </trkpt>
      <trkpt lat="46.99315" lon="8.66611">
        <ele>547</ele>
        <time>2021-08-05T09:55:42.450Z</time>
      </trkpt>
      <trkpt lat="46.99315" lon="8.66611">
        <ele>547</ele>
        <time>2021-08-05T09:55:43.449Z</time>
      </trkpt>
      <trkpt lat="46.99316" lon="8.66611">
        <ele>547</ele>
        <time>2021-08-05T09:55:44.450Z</time>
      </trkpt>
      <trkpt lat="46.99316" lon="8.6661">
        <ele>548</ele>
        <time>2021-08-05T09:55:45.450Z</time>
      </trkpt>
      <trkpt lat="46.99316" lon="8.66611">
        <ele>548</ele>
        <time>2021-08-05T09:55:46.449Z</time>
      </trkpt>
      <trkpt lat="46.99317" lon="8.66613">
        <ele>548</ele>
        <time>2021-08-05T09:55:47.449Z</time>
      </trkpt>
      <trkpt lat="46.99318" lon="8.66614">
        <ele>548</ele>
        <time>2021-08-05T09:55:48.450Z</time>
      </trkpt>
      <trkpt lat="46.99319" lon="8.66615">
        <ele>548</ele>
        <time>2021-08-05T09:55:49.450Z</time>
      </trkpt>
      <trkpt lat="46.99314" lon="8.66618">
        <ele>548</ele>
        <time>2021-08-05T09:55:50.449Z</time>
      </trkpt>
      <trkpt lat="46.99305" lon="8.66621">
        <ele>547</ele>
        <time>2021-08-05T09:55:51.450Z</time>
      </trkpt>
      <trkpt lat="46.99298" lon="8.66623">
        <ele>547</ele>
        <time>2021-08-05T09:55:52.450Z</time>
      </trkpt>
      <trkpt lat="46.99291" lon="8.66623">
        <ele>547</ele>
        <time>2021-08-05T09:55:53.449Z</time>
      </trkpt>
      <trkpt lat="46.99284" lon="8.66624">
        <ele>547</ele>
        <time>2021-08-05T09:55:54.450Z</time>
      </trkpt>
      <trkpt lat="46.99278" lon="8.66624">
        <ele>547</ele>
        <time>2021-08-05T09:55:55.450Z</time>
      </trkpt>
      <trkpt lat="46.99274" lon="8.66626">
        <ele>547</ele>
        <time>2021-08-05T09:55:56.450Z</time>
      </trkpt>
      <trkpt lat="46.99272" lon="8.66628">
        <ele>547</ele>
        <time>2021-08-05T09:55:57.450Z</time>
      </trkpt>
      <trkpt lat="46.99269" lon="8.6663">
        <ele>547</ele>
        <time>2021-08-05T09:55:58.449Z</time>
      </trkpt>
      <trkpt lat="46.99268" lon="8.66631">
        <ele>547</ele>
        <time>2021-08-05T09:55:59.449Z</time>
      </trkpt>
      <trkpt lat="46.99269" lon="8.66631">
        <ele>547</ele>
        <time>2021-08-05T09:56:00.450Z</time>
      </trkpt>
      <trkpt lat="46.99269" lon="8.66632">
        <ele>547</ele>
        <time>2021-08-05T09:56:01.450Z</time>
      </trkpt>
      <trkpt lat="46.9927" lon="8.66632">
        <ele>548</ele>
        <time>2021-08-05T09:56:02.449Z</time>
      </trkpt>
      <trkpt lat="46.99271" lon="8.66633">
        <ele>548</ele>
        <time>2021-08-05T09:56:03.449Z</time>
      </trkpt>
      <trkpt lat="46.99273" lon="8.66635">
        <ele>547</ele>
        <time>2021-08-05T09:56:04.450Z</time>
      </trkpt>
      <trkpt lat="46.99275" lon="8.66636">
        <ele>547</ele>
        <time>2021-08-05T09:56:05.449Z</time>
      </trkpt>
      <trkpt lat="46.99279" lon="8.66636">
        <ele>547</ele>
        <time>2021-08-05T09:56:06.449Z</time>
      </trkpt>
      <trkpt lat="46.99282" lon="8.66636">
        <ele>548</ele>
        <time>2021-08-05T09:56:07.450Z</time>
      </trkpt>
      <trkpt lat="46.99285" lon="8.66636">
        <ele>549</ele>
        <time>2021-08-05T09:56:08.450Z</time>
      </trkpt>
      <trkpt lat="46.99287" lon="8.66635">
        <ele>549</ele>
        <time>2021-08-05T09:56:09.450Z</time>
      </trkpt>
      <trkpt lat="46.99289" lon="8.66634">
        <ele>550</ele>
        <time>2021-08-05T09:56:10.450Z</time>
      </trkpt>
      <trkpt lat="46.9929" lon="8.66633">
        <ele>551</ele>
        <time>2021-08-05T09:56:11.450Z</time>
      </trkpt>
      <trkpt lat="46.99291" lon="8.66633">
        <ele>551</ele>
        <time>2021-08-05T09:56:12.450Z</time>
      </trkpt>
      <trkpt lat="46.99292" lon="8.66634">
        <ele>552</ele>
        <time>2021-08-05T09:56:13.450Z</time>
      </trkpt>
      <trkpt lat="46.99294" lon="8.66635">
        <ele>552</ele>
        <time>2021-08-05T09:56:14.449Z</time>
      </trkpt>
      <trkpt lat="46.99305" lon="8.66642">
        <ele>554</ele>
        <time>2021-08-05T09:56:18.449Z</time>
      </trkpt>
      <trkpt lat="46.99305" lon="8.66643">
        <ele>554</ele>
        <time>2021-08-05T09:56:19.450Z</time>
      </trkpt>
      <trkpt lat="46.99304" lon="8.66643">
        <ele>554</ele>
        <time>2021-08-05T09:56:20.449Z</time>
      </trkpt>
      <trkpt lat="46.99303" lon="8.66643">
        <ele>555</ele>
        <time>2021-08-05T09:56:21.450Z</time>
      </trkpt>
      <trkpt lat="46.99303" lon="8.66643">
        <ele>555</ele>
        <time>2021-08-05T09:56:22.449Z</time>
      </trkpt>
      <trkpt lat="46.99301" lon="8.66643">
        <ele>555</ele>
        <time>2021-08-05T09:56:23.450Z</time>
      </trkpt>
      <trkpt lat="46.993" lon="8.66643">
        <ele>555</ele>
        <time>2021-08-05T09:56:24.450Z</time>
      </trkpt>
      <trkpt lat="46.99299" lon="8.66643">
        <ele>555</ele>
        <time>2021-08-05T09:56:25.450Z</time>
      </trkpt>
      <trkpt lat="46.99299" lon="8.66643">
        <ele>556</ele>
        <time>2021-08-05T09:56:26.450Z</time>
      </trkpt>
      <trkpt lat="46.99297" lon="8.66643">
        <ele>556</ele>
        <time>2021-08-05T09:56:27.449Z</time>
      </trkpt>
      <trkpt lat="46.99296" lon="8.66642">
        <ele>556</ele>
        <time>2021-08-05T09:56:28.450Z</time>
      </trkpt>
      <trkpt lat="46.99293" lon="8.66642">
        <ele>557</ele>
        <time>2021-08-05T09:56:29.449Z</time>
      </trkpt>
      <trkpt lat="46.99291" lon="8.66642">
        <ele>557</ele>
        <time>2021-08-05T09:56:30.450Z</time>
      </trkpt>
      <trkpt lat="46.99287" lon="8.66644">
        <ele>557</ele>
        <time>2021-08-05T09:56:31.449Z</time>
      </trkpt>
      <trkpt lat="46.99286" lon="8.66646">
        <ele>557</ele>
        <time>2021-08-05T09:56:32.449Z</time>
      </trkpt>
      <trkpt lat="46.99286" lon="8.66648">
        <ele>557</ele>
        <time>2021-08-05T09:56:33.450Z</time>
      </trkpt>
      <trkpt lat="46.99285" lon="8.66649">
        <ele>558</ele>
        <time>2021-08-05T09:56:34.449Z</time>
      </trkpt>
      <trkpt lat="46.99285" lon="8.6665">
        <ele>558</ele>
        <time>2021-08-05T09:56:35.450Z</time>
      </trkpt>
      <trkpt lat="46.99284" lon="8.66651">
        <ele>558</ele>
        <time>2021-08-05T09:56:36.449Z</time>
      </trkpt>
      <trkpt lat="46.99284" lon="8.66652">
        <ele>558</ele>
        <time>2021-08-05T09:56:37.450Z</time>
      </trkpt>
      <trkpt lat="46.99285" lon="8.66653">
        <ele>558</ele>
        <time>2021-08-05T09:56:38.450Z</time>
      </trkpt>
      <trkpt lat="46.99286" lon="8.66654">
        <ele>558</ele>
        <time>2021-08-05T09:56:39.450Z</time>
      </trkpt>
      <trkpt lat="46.99285" lon="8.66654">
        <ele>558</ele>
        <time>2021-08-05T09:56:40.450Z</time>
      </trkpt>
      <trkpt lat="46.99285" lon="8.66654">
        <ele>559</ele>
        <time>2021-08-05T09:56:41.450Z</time>
      </trkpt>
      <trkpt lat="46.99285" lon="8.66654">
        <ele>560</ele>
        <time>2021-08-05T09:56:42.449Z</time>
      </trkpt>
      <trkpt lat="46.99285" lon="8.66654">
        <ele>561</ele>
        <time>2021-08-05T09:56:43.450Z</time>
      </trkpt>
      <trkpt lat="46.99285" lon="8.66655">
        <ele>561</ele>
        <time>2021-08-05T09:56:44.450Z</time>
      </trkpt>
      <trkpt lat="46.99284" lon="8.66655">
        <ele>562</ele>
        <time>2021-08-05T09:56:45.449Z</time>
      </trkpt>
      <trkpt lat="46.99283" lon="8.66655">
        <ele>562</ele>
        <time>2021-08-05T09:56:46.450Z</time>
      </trkpt>
      <trkpt lat="46.99282" lon="8.66655">
        <ele>563</ele>
        <time>2021-08-05T09:56:47.450Z</time>
      </trkpt>
      <trkpt lat="46.99279" lon="8.66655">
        <ele>563</ele>
        <time>2021-08-05T09:56:48.449Z</time>
      </trkpt>
      <trkpt lat="46.99278" lon="8.66656">
        <ele>564</ele>
        <time>2021-08-05T09:56:49.450Z</time>
      </trkpt>
      <trkpt lat="46.99276" lon="8.66656">
        <ele>564</ele>
        <time>2021-08-05T09:56:50.449Z</time>
      </trkpt>
      <trkpt lat="46.99275" lon="8.66656">
        <ele>564</ele>
        <time>2021-08-05T09:56:51.450Z</time>
      </trkpt>
      <trkpt lat="46.99276" lon="8.66656">
        <ele>564</ele>
        <time>2021-08-05T09:56:52.449Z</time>
      </trkpt>
      <trkpt lat="46.99277" lon="8.66656">
        <ele>564</ele>
        <time>2021-08-05T09:56:53.449Z</time>
      </trkpt>
      <trkpt lat="46.99277" lon="8.66656">
        <ele>564</ele>
        <time>2021-08-05T09:56:54.450Z</time>
      </trkpt>
      <trkpt lat="46.99278" lon="8.66656">
        <ele>564</ele>
        <time>2021-08-05T09:56:55.450Z</time>
      </trkpt>
      <trkpt lat="46.99279" lon="8.66656">
        <ele>565</ele>
        <time>2021-08-05T09:56:56.450Z</time>
      </trkpt>
      <trkpt lat="46.99279" lon="8.66657">
        <ele>565</ele>
        <time>2021-08-05T09:56:57.450Z</time>
      </trkpt>
      <trkpt lat="46.99278" lon="8.66657">
        <ele>565</ele>
        <time>2021-08-05T09:56:58.449Z</time>
      </trkpt>
      <trkpt lat="46.99276" lon="8.66658">
        <ele>565</ele>
        <time>2021-08-05T09:56:59.450Z</time>
      </trkpt>
      <trkpt lat="46.99273" lon="8.6666">
        <ele>565</ele>
        <time>2021-08-05T09:57:00.450Z</time>
      </trkpt>
      <trkpt lat="46.99272" lon="8.66661">
        <ele>565</ele>
        <time>2021-08-05T09:57:01.450Z</time>
      </trkpt>
      <trkpt lat="46.99272" lon="8.66662">
        <ele>565</ele>
        <time>2021-08-05T09:57:02.449Z</time>
      </trkpt>
      <trkpt lat="46.99272" lon="8.66663">
        <ele>565</ele>
        <time>2021-08-05T09:57:03.450Z</time>
      </trkpt>
      <trkpt lat="46.99272" lon="8.66664">
        <ele>565</ele>
        <time>2021-08-05T09:57:04.450Z</time>
      </trkpt>
      <trkpt lat="46.99272" lon="8.66665">
        <ele>565</ele>
        <time>2021-08-05T09:57:05.449Z</time>
      </trkpt>
      <trkpt lat="46.99272" lon="8.66666">
        <ele>565</ele>
        <time>2021-08-05T09:57:06.450Z</time>
      </trkpt>
      <trkpt lat="46.99272" lon="8.66667">
        <ele>565</ele>
        <time>2021-08-05T09:57:07.450Z</time>
      </trkpt>
      <trkpt lat="46.99272" lon="8.66667">
        <ele>565</ele>
        <time>2021-08-05T09:57:08.450Z</time>
      </trkpt>
      <trkpt lat="46.99269" lon="8.66667">
        <ele>565</ele>
        <time>2021-08-05T09:57:09.449Z</time>
      </trkpt>
      <trkpt lat="46.99265" lon="8.66666">
        <ele>566</ele>
        <time>2021-08-05T09:57:10.449Z</time>
      </trkpt>
      <trkpt lat="46.99262" lon="8.66666">
        <ele>566</ele>
        <time>2021-08-05T09:57:11.449Z</time>
      </trkpt>
      <trkpt lat="46.99261" lon="8.66667">
        <ele>566</ele>
        <time>2021-08-05T09:57:12.449Z</time>
      </trkpt>
      <trkpt lat="46.99261" lon="8.66667">
        <ele>566</ele>
        <time>2021-08-05T09:57:13.450Z</time>
      </trkpt>
      <trkpt lat="46.99261" lon="8.66668">
        <ele>566</ele>
        <time>2021-08-05T09:57:14.450Z</time>
      </trkpt>
      <trkpt lat="46.9926" lon="8.66669">
        <ele>566</ele>
        <time>2021-08-05T09:57:15.449Z</time>
      </trkpt>
      <trkpt lat="46.9926" lon="8.66671">
        <ele>566</ele>
        <time>2021-08-05T09:57:16.450Z</time>
      </trkpt>
      <trkpt lat="46.99261" lon="8.66671">
        <ele>566</ele>
        <time>2021-08-05T09:57:17.449Z</time>
      </trkpt>
      <trkpt lat="46.99261" lon="8.66672">
        <ele>566</ele>
        <time>2021-08-05T09:57:18.450Z</time>
      </trkpt>
      <trkpt lat="46.99261" lon="8.66674">
        <ele>567</ele>
        <time>2021-08-05T09:57:19.449Z</time>
      </trkpt>
      <trkpt lat="46.99261" lon="8.66676">
        <ele>567</ele>
        <time>2021-08-05T09:57:20.449Z</time>
      </trkpt>
      <trkpt lat="46.99259" lon="8.66677">
        <ele>567</ele>
        <time>2021-08-05T09:57:21.450Z</time>
      </trkpt>
      <trkpt lat="46.99258" lon="8.66679">
        <ele>567</ele>
        <time>2021-08-05T09:57:22.449Z</time>
      </trkpt>
      <trkpt lat="46.99257" lon="8.66681">
        <ele>567</ele>
        <time>2021-08-05T09:57:23.450Z</time>
      </trkpt>
      <trkpt lat="46.9926" lon="8.66682">
        <ele>567</ele>
        <time>2021-08-05T09:57:24.450Z</time>
      </trkpt>
      <trkpt lat="46.9926" lon="8.66683">
        <ele>567</ele>
        <time>2021-08-05T09:57:25.449Z</time>
      </trkpt>
      <trkpt lat="46.99256" lon="8.66684">
        <ele>567</ele>
        <time>2021-08-05T09:57:26.450Z</time>
      </trkpt>
      <trkpt lat="46.99253" lon="8.66685">
        <ele>568</ele>
        <time>2021-08-05T09:57:27.449Z</time>
      </trkpt>
      <trkpt lat="46.99244" lon="8.66686">
        <ele>568</ele>
        <time>2021-08-05T09:57:28.450Z</time>
      </trkpt>
      <trkpt lat="46.99241" lon="8.66687">
        <ele>568</ele>
        <time>2021-08-05T09:57:29.450Z</time>
      </trkpt>
      <trkpt lat="46.99237" lon="8.66688">
        <ele>568</ele>
        <time>2021-08-05T09:57:30.449Z</time>
      </trkpt>
      <trkpt lat="46.99233" lon="8.66689">
        <ele>568</ele>
        <time>2021-08-05T09:57:31.450Z</time>
      </trkpt>
      <trkpt lat="46.99226" lon="8.6669">
        <ele>569</ele>
        <time>2021-08-05T09:57:32.450Z</time>
      </trkpt>
      <trkpt lat="46.99224" lon="8.6669">
        <ele>569</ele>
        <time>2021-08-05T09:57:33.450Z</time>
      </trkpt>
      <trkpt lat="46.99226" lon="8.66689">
        <ele>569</ele>
        <time>2021-08-05T09:57:34.449Z</time>
      </trkpt>
      <trkpt lat="46.99227" lon="8.66689">
        <ele>569</ele>
        <time>2021-08-05T09:57:35.449Z</time>
      </trkpt>
      <trkpt lat="46.99227" lon="8.66688">
        <ele>569</ele>
        <time>2021-08-05T09:57:36.449Z</time>
      </trkpt>
      <trkpt lat="46.99227" lon="8.66689">
        <ele>569</ele>
        <time>2021-08-05T09:57:37.449Z</time>
      </trkpt>
      <trkpt lat="46.99223" lon="8.6669">
        <ele>569</ele>
        <time>2021-08-05T09:57:38.450Z</time>
      </trkpt>
      <trkpt lat="46.9922" lon="8.66691">
        <ele>569</ele>
        <time>2021-08-05T09:57:39.450Z</time>
      </trkpt>
      <trkpt lat="46.99216" lon="8.66693">
        <ele>569</ele>
        <time>2021-08-05T09:57:40.450Z</time>
      </trkpt>
      <trkpt lat="46.99213" lon="8.66696">
        <ele>569</ele>
        <time>2021-08-05T09:57:41.450Z</time>
      </trkpt>
      <trkpt lat="46.99209" lon="8.66698">
        <ele>569</ele>
        <time>2021-08-05T09:57:42.450Z</time>
      </trkpt>
      <trkpt lat="46.99209" lon="8.667">
        <ele>568</ele>
        <time>2021-08-05T09:57:43.450Z</time>
      </trkpt>
      <trkpt lat="46.99208" lon="8.66701">
        <ele>568</ele>
        <time>2021-08-05T09:57:44.449Z</time>
      </trkpt>
      <trkpt lat="46.99207" lon="8.66702">
        <ele>568</ele>
        <time>2021-08-05T09:57:45.449Z</time>
      </trkpt>
      <trkpt lat="46.99207" lon="8.66704">
        <ele>568</ele>
        <time>2021-08-05T09:57:46.450Z</time>
      </trkpt>
      <trkpt lat="46.99209" lon="8.66705">
        <ele>568</ele>
        <time>2021-08-05T09:57:47.449Z</time>
      </trkpt>
      <trkpt lat="46.99209" lon="8.66707">
        <ele>567</ele>
        <time>2021-08-05T09:57:48.449Z</time>
      </trkpt>
      <trkpt lat="46.9921" lon="8.66709">
        <ele>567</ele>
        <time>2021-08-05T09:57:49.450Z</time>
      </trkpt>
      <trkpt lat="46.99208" lon="8.6671">
        <ele>567</ele>
        <time>2021-08-05T09:57:50.449Z</time>
      </trkpt>
      <trkpt lat="46.99207" lon="8.66713">
        <ele>567</ele>
        <time>2021-08-05T09:57:51.449Z</time>
      </trkpt>
      <trkpt lat="46.99207" lon="8.66715">
        <ele>566</ele>
        <time>2021-08-05T09:57:52.449Z</time>
      </trkpt>
      <trkpt lat="46.99209" lon="8.66716">
        <ele>566</ele>
        <time>2021-08-05T09:57:53.449Z</time>
      </trkpt>
      <trkpt lat="46.99211" lon="8.66717">
        <ele>566</ele>
        <time>2021-08-05T09:57:54.449Z</time>
      </trkpt>
      <trkpt lat="46.99212" lon="8.66719">
        <ele>566</ele>
        <time>2021-08-05T09:57:55.449Z</time>
      </trkpt>
      <trkpt lat="46.99213" lon="8.6672">
        <ele>565</ele>
        <time>2021-08-05T09:57:56.449Z</time>
      </trkpt>
      <trkpt lat="46.99213" lon="8.66721">
        <ele>565</ele>
        <time>2021-08-05T09:57:57.450Z</time>
      </trkpt>
      <trkpt lat="46.99213" lon="8.66722">
        <ele>565</ele>
        <time>2021-08-05T09:57:58.449Z</time>
      </trkpt>
      <trkpt lat="46.99214" lon="8.66723">
        <ele>565</ele>
        <time>2021-08-05T09:57:59.449Z</time>
      </trkpt>
      <trkpt lat="46.99214" lon="8.66723">
        <ele>564</ele>
        <time>2021-08-05T09:58:00.450Z</time>
      </trkpt>
      <trkpt lat="46.99214" lon="8.66724">
        <ele>564</ele>
        <time>2021-08-05T09:58:01.449Z</time>
      </trkpt>
      <trkpt lat="46.99214" lon="8.66725">
        <ele>564</ele>
        <time>2021-08-05T09:58:02.449Z</time>
      </trkpt>
      <trkpt lat="46.99214" lon="8.66725">
        <ele>564</ele>
        <time>2021-08-05T09:58:03.449Z</time>
      </trkpt>
      <trkpt lat="46.99214" lon="8.66726">
        <ele>564</ele>
        <time>2021-08-05T09:58:04.449Z</time>
      </trkpt>
      <trkpt lat="46.99213" lon="8.66727">
        <ele>564</ele>
        <time>2021-08-05T09:58:05.449Z</time>
      </trkpt>
      <trkpt lat="46.99213" lon="8.66728">
        <ele>563</ele>
        <time>2021-08-05T09:58:06.449Z</time>
      </trkpt>
      <trkpt lat="46.99213" lon="8.66729">
        <ele>563</ele>
        <time>2021-08-05T09:58:07.449Z</time>
      </trkpt>
      <trkpt lat="46.99211" lon="8.66731">
        <ele>563</ele>
        <time>2021-08-05T09:58:08.449Z</time>
      </trkpt>
      <trkpt lat="46.99209" lon="8.66732">
        <ele>563</ele>
        <time>2021-08-05T09:58:09.450Z</time>
      </trkpt>
      <trkpt lat="46.99207" lon="8.66733">
        <ele>563</ele>
        <time>2021-08-05T09:58:10.449Z</time>
      </trkpt>
      <trkpt lat="46.99206" lon="8.66735">
        <ele>563</ele>
        <time>2021-08-05T09:58:11.449Z</time>
      </trkpt>
      <trkpt lat="46.99205" lon="8.66736">
        <ele>563</ele>
        <time>2021-08-05T09:58:12.450Z</time>
      </trkpt>
      <trkpt lat="46.99205" lon="8.66738">
        <ele>563</ele>
        <time>2021-08-05T09:58:13.450Z</time>
      </trkpt>
      <trkpt lat="46.99204" lon="8.66739">
        <ele>563</ele>
        <time>2021-08-05T09:58:14.450Z</time>
      </trkpt>
      <trkpt lat="46.99205" lon="8.6674">
        <ele>563</ele>
        <time>2021-08-05T09:58:15.450Z</time>
      </trkpt>
      <trkpt lat="46.99205" lon="8.66742">
        <ele>564</ele>
        <time>2021-08-05T09:58:16.450Z</time>
      </trkpt>
      <trkpt lat="46.99206" lon="8.66743">
        <ele>564</ele>
        <time>2021-08-05T09:58:17.450Z</time>
      </trkpt>
      <trkpt lat="46.99207" lon="8.66744">
        <ele>565</ele>
        <time>2021-08-05T09:58:18.449Z</time>
      </trkpt>
      <trkpt lat="46.99208" lon="8.66745">
        <ele>566</ele>
        <time>2021-08-05T09:58:19.450Z</time>
      </trkpt>
      <trkpt lat="46.99209" lon="8.66747">
        <ele>566</ele>
        <time>2021-08-05T09:58:20.449Z</time>
      </trkpt>
      <trkpt lat="46.99211" lon="8.66747">
        <ele>566</ele>
        <time>2021-08-05T09:58:21.450Z</time>
      </trkpt>
      <trkpt lat="46.99212" lon="8.66748">
        <ele>567</ele>
        <time>2021-08-05T09:58:22.450Z</time>
      </trkpt>
      <trkpt lat="46.99213" lon="8.66749">
        <ele>567</ele>
        <time>2021-08-05T09:58:23.450Z</time>
      </trkpt>
      <trkpt lat="46.99213" lon="8.6675">
        <ele>567</ele>
        <time>2021-08-05T09:58:24.449Z</time>
      </trkpt>
      <trkpt lat="46.99214" lon="8.6675">
        <ele>567</ele>
        <time>2021-08-05T09:58:25.450Z</time>
      </trkpt>
      <trkpt lat="46.99216" lon="8.66751">
        <ele>568</ele>
        <time>2021-08-05T09:58:26.449Z</time>
      </trkpt>
      <trkpt lat="46.99216" lon="8.66752">
        <ele>568</ele>
        <time>2021-08-05T09:58:27.450Z</time>
      </trkpt>
      <trkpt lat="46.99216" lon="8.66752">
        <ele>568</ele>
        <time>2021-08-05T09:58:28.450Z</time>
      </trkpt>
      <trkpt lat="46.99217" lon="8.66753">
        <ele>568</ele>
        <time>2021-08-05T09:58:29.450Z</time>
      </trkpt>
      <trkpt lat="46.99228" lon="8.66754">
        <ele>569</ele>
        <time>2021-08-05T09:58:30.450Z</time>
      </trkpt>
      <trkpt lat="46.99228" lon="8.66755">
        <ele>570</ele>
        <time>2021-08-05T09:58:31.450Z</time>
      </trkpt>
      <trkpt lat="46.99228" lon="8.66755">
        <ele>570</ele>
        <time>2021-08-05T09:58:32.451Z</time>
      </trkpt>
      <trkpt lat="46.99227" lon="8.66756">
        <ele>570</ele>
        <time>2021-08-05T09:58:33.451Z</time>
      </trkpt>
      <trkpt lat="46.99226" lon="8.66757">
        <ele>570</ele>
        <time>2021-08-05T09:58:34.451Z</time>
      </trkpt>
      <trkpt lat="46.99226" lon="8.66759">
        <ele>571</ele>
        <time>2021-08-05T09:58:35.451Z</time>
      </trkpt>
      <trkpt lat="46.99225" lon="8.6676">
        <ele>571</ele>
        <time>2021-08-05T09:58:36.451Z</time>
      </trkpt>
      <trkpt lat="46.99224" lon="8.66762">
        <ele>571</ele>
        <time>2021-08-05T09:58:37.451Z</time>
      </trkpt>
      <trkpt lat="46.99223" lon="8.66763">
        <ele>570</ele>
        <time>2021-08-05T09:58:38.451Z</time>
      </trkpt>
      <trkpt lat="46.99223" lon="8.66764">
        <ele>570</ele>
        <time>2021-08-05T09:58:39.450Z</time>
      </trkpt>
      <trkpt lat="46.99223" lon="8.66765">
        <ele>570</ele>
        <time>2021-08-05T09:58:40.450Z</time>
      </trkpt>
      <trkpt lat="46.99224" lon="8.66766">
        <ele>570</ele>
        <time>2021-08-05T09:58:41.451Z</time>
      </trkpt>
      <trkpt lat="46.99222" lon="8.66767">
        <ele>570</ele>
        <time>2021-08-05T09:58:42.451Z</time>
      </trkpt>
      <trkpt lat="46.9922" lon="8.66769">
        <ele>569</ele>
        <time>2021-08-05T09:58:43.450Z</time>
      </trkpt>
      <trkpt lat="46.9922" lon="8.6677">
        <ele>569</ele>
        <time>2021-08-05T09:58:44.450Z</time>
      </trkpt>
      <trkpt lat="46.99219" lon="8.6677">
        <ele>569</ele>
        <time>2021-08-05T09:58:45.451Z</time>
      </trkpt>
      <trkpt lat="46.99219" lon="8.66771">
        <ele>570</ele>
        <time>2021-08-05T09:58:46.451Z</time>
      </trkpt>
      <trkpt lat="46.99218" lon="8.66773">
        <ele>570</ele>
        <time>2021-08-05T09:58:47.450Z</time>
      </trkpt>
      <trkpt lat="46.99218" lon="8.66774">
        <ele>570</ele>
        <time>2021-08-05T09:58:48.450Z</time>
      </trkpt>
      <trkpt lat="46.99218" lon="8.66775">
        <ele>570</ele>
        <time>2021-08-05T09:58:49.451Z</time>
      </trkpt>
      <trkpt lat="46.99218" lon="8.66776">
        <ele>569</ele>
        <time>2021-08-05T09:58:50.451Z</time>
      </trkpt>
      <trkpt lat="46.99218" lon="8.66777">
        <ele>569</ele>
        <time>2021-08-05T09:58:51.451Z</time>
      </trkpt>
      <trkpt lat="46.99217" lon="8.66779">
        <ele>569</ele>
        <time>2021-08-05T09:58:52.451Z</time>
      </trkpt>
      <trkpt lat="46.99216" lon="8.6678">
        <ele>569</ele>
        <time>2021-08-05T09:58:53.450Z</time>
      </trkpt>
      <trkpt lat="46.99216" lon="8.66782">
        <ele>569</ele>
        <time>2021-08-05T09:58:54.451Z</time>
      </trkpt>
      <trkpt lat="46.99216" lon="8.66783">
        <ele>568</ele>
        <time>2021-08-05T09:58:55.451Z</time>
      </trkpt>
      <trkpt lat="46.99215" lon="8.66785">
        <ele>568</ele>
        <time>2021-08-05T09:58:56.450Z</time>
      </trkpt>
      <trkpt lat="46.99215" lon="8.66786">
        <ele>568</ele>
        <time>2021-08-05T09:58:57.451Z</time>
      </trkpt>
      <trkpt lat="46.99215" lon="8.66788">
        <ele>568</ele>
        <time>2021-08-05T09:58:58.451Z</time>
      </trkpt>
      <trkpt lat="46.99215" lon="8.66789">
        <ele>568</ele>
        <time>2021-08-05T09:58:59.450Z</time>
      </trkpt>
      <trkpt lat="46.99214" lon="8.66791">
        <ele>568</ele>
        <time>2021-08-05T09:59:00.451Z</time>
      </trkpt>
      <trkpt lat="46.99214" lon="8.66792">
        <ele>569</ele>
        <time>2021-08-05T09:59:01.451Z</time>
      </trkpt>
      <trkpt lat="46.99213" lon="8.66793">
        <ele>569</ele>
        <time>2021-08-05T09:59:02.451Z</time>
      </trkpt>
      <trkpt lat="46.99212" lon="8.66794">
        <ele>569</ele>
        <time>2021-08-05T09:59:03.451Z</time>
      </trkpt>
      <trkpt lat="46.99211" lon="8.66795">
        <ele>569</ele>
        <time>2021-08-05T09:59:04.451Z</time>
      </trkpt>
      <trkpt lat="46.99209" lon="8.66796">
        <ele>569</ele>
        <time>2021-08-05T09:59:05.450Z</time>
      </trkpt>
      <trkpt lat="46.99207" lon="8.66798">
        <ele>569</ele>
        <time>2021-08-05T09:59:06.450Z</time>
      </trkpt>
      <trkpt lat="46.99205" lon="8.66799">
        <ele>569</ele>
        <time>2021-08-05T09:59:07.450Z</time>
      </trkpt>
      <trkpt lat="46.99204" lon="8.668">
        <ele>569</ele>
        <time>2021-08-05T09:59:08.451Z</time>
      </trkpt>
      <trkpt lat="46.99204" lon="8.66801">
        <ele>569</ele>
        <time>2021-08-05T09:59:09.451Z</time>
      </trkpt>
      <trkpt lat="46.99203" lon="8.66803">
        <ele>569</ele>
        <time>2021-08-05T09:59:10.451Z</time>
      </trkpt>
      <trkpt lat="46.99202" lon="8.66804">
        <ele>570</ele>
        <time>2021-08-05T09:59:11.451Z</time>
      </trkpt>
      <trkpt lat="46.99201" lon="8.66806">
        <ele>569</ele>
        <time>2021-08-05T09:59:12.451Z</time>
      </trkpt>
      <trkpt lat="46.992" lon="8.66808">
        <ele>569</ele>
        <time>2021-08-05T09:59:13.450Z</time>
      </trkpt>
      <trkpt lat="46.992" lon="8.66809">
        <ele>569</ele>
        <time>2021-08-05T09:59:14.450Z</time>
      </trkpt>
      <trkpt lat="46.99201" lon="8.6681">
        <ele>569</ele>
        <time>2021-08-05T09:59:15.451Z</time>
      </trkpt>
      <trkpt lat="46.99202" lon="8.66811">
        <ele>569</ele>
        <time>2021-08-05T09:59:16.450Z</time>
      </trkpt>
      <trkpt lat="46.99203" lon="8.66811">
        <ele>569</ele>
        <time>2021-08-05T09:59:17.451Z</time>
      </trkpt>
      <trkpt lat="46.99202" lon="8.66813">
        <ele>569</ele>
        <time>2021-08-05T09:59:18.451Z</time>
      </trkpt>
      <trkpt lat="46.99201" lon="8.66814">
        <ele>569</ele>
        <time>2021-08-05T09:59:19.451Z</time>
      </trkpt>
      <trkpt lat="46.992" lon="8.66816">
        <ele>569</ele>
        <time>2021-08-05T09:59:20.450Z</time>
      </trkpt>
      <trkpt lat="46.99201" lon="8.66817">
        <ele>569</ele>
        <time>2021-08-05T09:59:21.451Z</time>
      </trkpt>
      <trkpt lat="46.99199" lon="8.6682">
        <ele>569</ele>
        <time>2021-08-05T09:59:22.451Z</time>
      </trkpt>
      <trkpt lat="46.99198" lon="8.66822">
        <ele>569</ele>
        <time>2021-08-05T09:59:23.451Z</time>
      </trkpt>
      <trkpt lat="46.99196" lon="8.66824">
        <ele>569</ele>
        <time>2021-08-05T09:59:24.451Z</time>
      </trkpt>
      <trkpt lat="46.99195" lon="8.66826">
        <ele>569</ele>
        <time>2021-08-05T09:59:25.451Z</time>
      </trkpt>
      <trkpt lat="46.99195" lon="8.66827">
        <ele>569</ele>
        <time>2021-08-05T09:59:26.450Z</time>
      </trkpt>
      <trkpt lat="46.99195" lon="8.66829">
        <ele>569</ele>
        <time>2021-08-05T09:59:27.451Z</time>
      </trkpt>
      <trkpt lat="46.99194" lon="8.66832">
        <ele>569</ele>
        <time>2021-08-05T09:59:28.450Z</time>
      </trkpt>
      <trkpt lat="46.99193" lon="8.66834">
        <ele>569</ele>
        <time>2021-08-05T09:59:29.450Z</time>
      </trkpt>
      <trkpt lat="46.99192" lon="8.66837">
        <ele>569</ele>
        <time>2021-08-05T09:59:30.450Z</time>
      </trkpt>
      <trkpt lat="46.99191" lon="8.6684">
        <ele>569</ele>
        <time>2021-08-05T09:59:31.451Z</time>
      </trkpt>
      <trkpt lat="46.9919" lon="8.66842">
        <ele>569</ele>
        <time>2021-08-05T09:59:32.450Z</time>
      </trkpt>
      <trkpt lat="46.99191" lon="8.66845">
        <ele>569</ele>
        <time>2021-08-05T09:59:33.451Z</time>
      </trkpt>
      <trkpt lat="46.99193" lon="8.66846">
        <ele>569</ele>
        <time>2021-08-05T09:59:34.451Z</time>
      </trkpt>
      <trkpt lat="46.99195" lon="8.66848">
        <ele>569</ele>
        <time>2021-08-05T09:59:35.451Z</time>
      </trkpt>
      <trkpt lat="46.99197" lon="8.6685">
        <ele>569</ele>
        <time>2021-08-05T09:59:36.451Z</time>
      </trkpt>
      <trkpt lat="46.99198" lon="8.66851">
        <ele>569</ele>
        <time>2021-08-05T09:59:37.450Z</time>
      </trkpt>
      <trkpt lat="46.99199" lon="8.66852">
        <ele>569</ele>
        <time>2021-08-05T09:59:38.451Z</time>
      </trkpt>
      <trkpt lat="46.99197" lon="8.66854">
        <ele>569</ele>
        <time>2021-08-05T09:59:39.451Z</time>
      </trkpt>
      <trkpt lat="46.99195" lon="8.66856">
        <ele>569</ele>
        <time>2021-08-05T09:59:40.451Z</time>
      </trkpt>
      <trkpt lat="46.99194" lon="8.6686">
        <ele>569</ele>
        <time>2021-08-05T09:59:41.451Z</time>
      </trkpt>
      <trkpt lat="46.99194" lon="8.66862">
        <ele>569</ele>
        <time>2021-08-05T09:59:42.451Z</time>
      </trkpt>
      <trkpt lat="46.99193" lon="8.66864">
        <ele>569</ele>
        <time>2021-08-05T09:59:43.450Z</time>
      </trkpt>
      <trkpt lat="46.99194" lon="8.66866">
        <ele>569</ele>
        <time>2021-08-05T09:59:44.451Z</time>
      </trkpt>
      <trkpt lat="46.99193" lon="8.66868">
        <ele>569</ele>
        <time>2021-08-05T09:59:45.450Z</time>
      </trkpt>
      <trkpt lat="46.99192" lon="8.6687">
        <ele>569</ele>
        <time>2021-08-05T09:59:46.451Z</time>
      </trkpt>
      <trkpt lat="46.99191" lon="8.66871">
        <ele>569</ele>
        <time>2021-08-05T09:59:47.451Z</time>
      </trkpt>
      <trkpt lat="46.99191" lon="8.66873">
        <ele>569</ele>
        <time>2021-08-05T09:59:48.450Z</time>
      </trkpt>
      <trkpt lat="46.9919" lon="8.66875">
        <ele>568</ele>
        <time>2021-08-05T09:59:49.451Z</time>
      </trkpt>
      <trkpt lat="46.99189" lon="8.66877">
        <ele>568</ele>
        <time>2021-08-05T09:59:50.451Z</time>
      </trkpt>
      <trkpt lat="46.99188" lon="8.6688">
        <ele>568</ele>
        <time>2021-08-05T09:59:51.450Z</time>
      </trkpt>
      <trkpt lat="46.99187" lon="8.66883">
        <ele>568</ele>
        <time>2021-08-05T09:59:52.451Z</time>
      </trkpt>
      <trkpt lat="46.99186" lon="8.66885">
        <ele>568</ele>
        <time>2021-08-05T09:59:53.451Z</time>
      </trkpt>
      <trkpt lat="46.99186" lon="8.66887">
        <ele>568</ele>
        <time>2021-08-05T09:59:54.450Z</time>
      </trkpt>
      <trkpt lat="46.99185" lon="8.66889">
        <ele>568</ele>
        <time>2021-08-05T09:59:55.451Z</time>
      </trkpt>
      <trkpt lat="46.99186" lon="8.66891">
        <ele>568</ele>
        <time>2021-08-05T09:59:56.450Z</time>
      </trkpt>
      <trkpt lat="46.99188" lon="8.66893">
        <ele>568</ele>
        <time>2021-08-05T09:59:57.450Z</time>
      </trkpt>
      <trkpt lat="46.99188" lon="8.66894">
        <ele>568</ele>
        <time>2021-08-05T09:59:58.451Z</time>
      </trkpt>
      <trkpt lat="46.99188" lon="8.66894">
        <ele>568</ele>
        <time>2021-08-05T09:59:59.451Z</time>
      </trkpt>
      <trkpt lat="46.99189" lon="8.66895">
        <ele>567</ele>
        <time>2021-08-05T10:00:00.450Z</time>
      </trkpt>
      <trkpt lat="46.99189" lon="8.66895">
        <ele>567</ele>
        <time>2021-08-05T10:00:01.451Z</time>
      </trkpt>
      <trkpt lat="46.9919" lon="8.66895">
        <ele>567</ele>
        <time>2021-08-05T10:00:02.451Z</time>
      </trkpt>
      <trkpt lat="46.9919" lon="8.66895">
        <ele>566</ele>
        <time>2021-08-05T10:00:03.451Z</time>
      </trkpt>
      <trkpt lat="46.9919" lon="8.66896">
        <ele>566</ele>
        <time>2021-08-05T10:00:04.451Z</time>
      </trkpt>
      <trkpt lat="46.9919" lon="8.66897">
        <ele>566</ele>
        <time>2021-08-05T10:00:05.450Z</time>
      </trkpt>
      <trkpt lat="46.99189" lon="8.66897">
        <ele>565</ele>
        <time>2021-08-05T10:00:06.451Z</time>
      </trkpt>
      <trkpt lat="46.99189" lon="8.66897">
        <ele>565</ele>
        <time>2021-08-05T10:00:07.450Z</time>
      </trkpt>
      <trkpt lat="46.99189" lon="8.66898">
        <ele>565</ele>
        <time>2021-08-05T10:00:08.450Z</time>
      </trkpt>
      <trkpt lat="46.99188" lon="8.66898">
        <ele>565</ele>
        <time>2021-08-05T10:00:09.451Z</time>
      </trkpt>
      <trkpt lat="46.99188" lon="8.66899">
        <ele>566</ele>
        <time>2021-08-05T10:00:10.451Z</time>
      </trkpt>
      <trkpt lat="46.99187" lon="8.66899">
        <ele>566</ele>
        <time>2021-08-05T10:00:11.450Z</time>
      </trkpt>
      <trkpt lat="46.99187" lon="8.66901">
        <ele>566</ele>
        <time>2021-08-05T10:00:12.451Z</time>
      </trkpt>
      <trkpt lat="46.99185" lon="8.66902">
        <ele>567</ele>
        <time>2021-08-05T10:00:13.450Z</time>
      </trkpt>
      <trkpt lat="46.99184" lon="8.66904">
        <ele>567</ele>
        <time>2021-08-05T10:00:14.451Z</time>
      </trkpt>
      <trkpt lat="46.99184" lon="8.66907">
        <ele>567</ele>
        <time>2021-08-05T10:00:15.450Z</time>
      </trkpt>
      <trkpt lat="46.99183" lon="8.66909">
        <ele>568</ele>
        <time>2021-08-05T10:00:16.451Z</time>
      </trkpt>
      <trkpt lat="46.99181" lon="8.66911">
        <ele>568</ele>
        <time>2021-08-05T10:00:17.450Z</time>
      </trkpt>
      <trkpt lat="46.99179" lon="8.66912">
        <ele>568</ele>
        <time>2021-08-05T10:00:18.451Z</time>
      </trkpt>
      <trkpt lat="46.99179" lon="8.66912">
        <ele>568</ele>
        <time>2021-08-05T10:00:19.450Z</time>
      </trkpt>
      <trkpt lat="46.99179" lon="8.66912">
        <ele>569</ele>
        <time>2021-08-05T10:00:20.450Z</time>
      </trkpt>
      <trkpt lat="46.99179" lon="8.66913">
        <ele>569</ele>
        <time>2021-08-05T10:00:21.451Z</time>
      </trkpt>
      <trkpt lat="46.9918" lon="8.66914">
        <ele>570</ele>
        <time>2021-08-05T10:00:22.451Z</time>
      </trkpt>
      <trkpt lat="46.99181" lon="8.66915">
        <ele>570</ele>
        <time>2021-08-05T10:00:23.451Z</time>
      </trkpt>
      <trkpt lat="46.99181" lon="8.66917">
        <ele>570</ele>
        <time>2021-08-05T10:00:24.450Z</time>
      </trkpt>
      <trkpt lat="46.99182" lon="8.66918">
        <ele>571</ele>
        <time>2021-08-05T10:00:25.451Z</time>
      </trkpt>
      <trkpt lat="46.99181" lon="8.66919">
        <ele>571</ele>
        <time>2021-08-05T10:00:26.450Z</time>
      </trkpt>
      <trkpt lat="46.99181" lon="8.6692">
        <ele>572</ele>
        <time>2021-08-05T10:00:27.451Z</time>
      </trkpt>
      <trkpt lat="46.9918" lon="8.66921">
        <ele>572</ele>
        <time>2021-08-05T10:00:28.450Z</time>
      </trkpt>
      <trkpt lat="46.99179" lon="8.66921">
        <ele>572</ele>
        <time>2021-08-05T10:00:29.450Z</time>
      </trkpt>
      <trkpt lat="46.99179" lon="8.66922">
        <ele>572</ele>
        <time>2021-08-05T10:00:30.450Z</time>
      </trkpt>
      <trkpt lat="46.9918" lon="8.66922">
        <ele>573</ele>
        <time>2021-08-05T10:00:31.451Z</time>
      </trkpt>
      <trkpt lat="46.9918" lon="8.66923">
        <ele>573</ele>
        <time>2021-08-05T10:00:32.450Z</time>
      </trkpt>
      <trkpt lat="46.99181" lon="8.66923">
        <ele>573</ele>
        <time>2021-08-05T10:00:33.451Z</time>
      </trkpt>
      <trkpt lat="46.99181" lon="8.66924">
        <ele>573</ele>
        <time>2021-08-05T10:00:34.451Z</time>
      </trkpt>
      <trkpt lat="46.9918" lon="8.66925">
        <ele>573</ele>
        <time>2021-08-05T10:00:35.451Z</time>
      </trkpt>
      <trkpt lat="46.9918" lon="8.66926">
        <ele>574</ele>
        <time>2021-08-05T10:00:36.451Z</time>
      </trkpt>
      <trkpt lat="46.9918" lon="8.66927">
        <ele>574</ele>
        <time>2021-08-05T10:00:37.451Z</time>
      </trkpt>
      <trkpt lat="46.99179" lon="8.66927">
        <ele>574</ele>
        <time>2021-08-05T10:00:38.450Z</time>
      </trkpt>
      <trkpt lat="46.99179" lon="8.66928">
        <ele>574</ele>
        <time>2021-08-05T10:00:39.450Z</time>
      </trkpt>
      <trkpt lat="46.99179" lon="8.66928">
        <ele>574</ele>
        <time>2021-08-05T10:00:40.451Z</time>
      </trkpt>
      <trkpt lat="46.99179" lon="8.66927">
        <ele>574</ele>
        <time>2021-08-05T10:00:41.451Z</time>
      </trkpt>
      <trkpt lat="46.99179" lon="8.66927">
        <ele>574</ele>
        <time>2021-08-05T10:00:42.451Z</time>
      </trkpt>
      <trkpt lat="46.99178" lon="8.66928">
        <ele>575</ele>
        <time>2021-08-05T10:00:43.450Z</time>
      </trkpt>
      <trkpt lat="46.99177" lon="8.66929">
        <ele>575</ele>
        <time>2021-08-05T10:00:44.450Z</time>
      </trkpt>
      <trkpt lat="46.99176" lon="8.6693">
        <ele>575</ele>
        <time>2021-08-05T10:00:45.450Z</time>
      </trkpt>
      <trkpt lat="46.99176" lon="8.6693">
        <ele>576</ele>
        <time>2021-08-05T10:00:46.451Z</time>
      </trkpt>
      <trkpt lat="46.99176" lon="8.66931">
        <ele>576</ele>
        <time>2021-08-05T10:00:47.450Z</time>
      </trkpt>
      <trkpt lat="46.99176" lon="8.66931">
        <ele>576</ele>
        <time>2021-08-05T10:00:48.451Z</time>
      </trkpt>
      <trkpt lat="46.99176" lon="8.66932">
        <ele>576</ele>
        <time>2021-08-05T10:00:49.450Z</time>
      </trkpt>
      <trkpt lat="46.99173" lon="8.66933">
        <ele>577</ele>
        <time>2021-08-05T10:00:50.451Z</time>
      </trkpt>
      <trkpt lat="46.99172" lon="8.66933">
        <ele>578</ele>
        <time>2021-08-05T10:00:51.450Z</time>
      </trkpt>
      <trkpt lat="46.99171" lon="8.66934">
        <ele>578</ele>
        <time>2021-08-05T10:00:52.450Z</time>
      </trkpt>
      <trkpt lat="46.9917" lon="8.66935">
        <ele>579</ele>
        <time>2021-08-05T10:00:53.450Z</time>
      </trkpt>
      <trkpt lat="46.99169" lon="8.66936">
        <ele>579</ele>
        <time>2021-08-05T10:00:54.451Z</time>
      </trkpt>
      <trkpt lat="46.99168" lon="8.66937">
        <ele>580</ele>
        <time>2021-08-05T10:00:55.450Z</time>
      </trkpt>
      <trkpt lat="46.99167" lon="8.66939">
        <ele>580</ele>
        <time>2021-08-05T10:00:56.450Z</time>
      </trkpt>
      <trkpt lat="46.99167" lon="8.6694">
        <ele>581</ele>
        <time>2021-08-05T10:00:57.450Z</time>
      </trkpt>
      <trkpt lat="46.99168" lon="8.66942">
        <ele>581</ele>
        <time>2021-08-05T10:00:58.451Z</time>
      </trkpt>
      <trkpt lat="46.99168" lon="8.66944">
        <ele>581</ele>
        <time>2021-08-05T10:00:59.450Z</time>
      </trkpt>
      <trkpt lat="46.99168" lon="8.66945">
        <ele>582</ele>
        <time>2021-08-05T10:01:00.451Z</time>
      </trkpt>
      <trkpt lat="46.99168" lon="8.66946">
        <ele>582</ele>
        <time>2021-08-05T10:01:01.451Z</time>
      </trkpt>
      <trkpt lat="46.99168" lon="8.66948">
        <ele>582</ele>
        <time>2021-08-05T10:01:02.450Z</time>
      </trkpt>
      <trkpt lat="46.99168" lon="8.66949">
        <ele>583</ele>
        <time>2021-08-05T10:01:03.451Z</time>
      </trkpt>
      <trkpt lat="46.99167" lon="8.66951">
        <ele>583</ele>
        <time>2021-08-05T10:01:04.450Z</time>
      </trkpt>
      <trkpt lat="46.99168" lon="8.66952">
        <ele>583</ele>
        <time>2021-08-05T10:01:05.451Z</time>
      </trkpt>
      <trkpt lat="46.9917" lon="8.66952">
        <ele>583</ele>
        <time>2021-08-05T10:01:06.451Z</time>
      </trkpt>
      <trkpt lat="46.99173" lon="8.66953">
        <ele>583</ele>
        <time>2021-08-05T10:01:07.451Z</time>
      </trkpt>
      <trkpt lat="46.99175" lon="8.66954">
        <ele>583</ele>
        <time>2021-08-05T10:01:08.451Z</time>
      </trkpt>
      <trkpt lat="46.99178" lon="8.66954">
        <ele>583</ele>
        <time>2021-08-05T10:01:09.451Z</time>
      </trkpt>
      <trkpt lat="46.99179" lon="8.66955">
        <ele>583</ele>
        <time>2021-08-05T10:01:10.451Z</time>
      </trkpt>
      <trkpt lat="46.9918" lon="8.66956">
        <ele>583</ele>
        <time>2021-08-05T10:01:11.450Z</time>
      </trkpt>
      <trkpt lat="46.9918" lon="8.66957">
        <ele>583</ele>
        <time>2021-08-05T10:01:12.451Z</time>
      </trkpt>
      <trkpt lat="46.99181" lon="8.66957">
        <ele>583</ele>
        <time>2021-08-05T10:01:13.451Z</time>
      </trkpt>
      <trkpt lat="46.99181" lon="8.66957">
        <ele>583</ele>
        <time>2021-08-05T10:01:14.451Z</time>
      </trkpt>
      <trkpt lat="46.9918" lon="8.66957">
        <ele>583</ele>
        <time>2021-08-05T10:01:15.451Z</time>
      </trkpt>
      <trkpt lat="46.9918" lon="8.66957">
        <ele>583</ele>
        <time>2021-08-05T10:01:16.450Z</time>
      </trkpt>
      <trkpt lat="46.9918" lon="8.66957">
        <ele>582</ele>
        <time>2021-08-05T10:01:17.450Z</time>
      </trkpt>
      <trkpt lat="46.99175" lon="8.66959">
        <ele>582</ele>
        <time>2021-08-05T10:01:18.452Z</time>
      </trkpt>
      <trkpt lat="46.99172" lon="8.66961">
        <ele>582</ele>
        <time>2021-08-05T10:01:19.452Z</time>
      </trkpt>
      <trkpt lat="46.99172" lon="8.66963">
        <ele>582</ele>
        <time>2021-08-05T10:01:20.452Z</time>
      </trkpt>
      <trkpt lat="46.99172" lon="8.66965">
        <ele>582</ele>
        <time>2021-08-05T10:01:21.451Z</time>
      </trkpt>
      <trkpt lat="46.99173" lon="8.66967">
        <ele>582</ele>
        <time>2021-08-05T10:01:22.451Z</time>
      </trkpt>
      <trkpt lat="46.99173" lon="8.66969">
        <ele>581</ele>
        <time>2021-08-05T10:01:23.452Z</time>
      </trkpt>
      <trkpt lat="46.99173" lon="8.6697">
        <ele>581</ele>
        <time>2021-08-05T10:01:24.452Z</time>
      </trkpt>
      <trkpt lat="46.99173" lon="8.66972">
        <ele>581</ele>
        <time>2021-08-05T10:01:25.452Z</time>
      </trkpt>
      <trkpt lat="46.99171" lon="8.66974">
        <ele>581</ele>
        <time>2021-08-05T10:01:26.452Z</time>
      </trkpt>
      <trkpt lat="46.9917" lon="8.66976">
        <ele>581</ele>
        <time>2021-08-05T10:01:27.452Z</time>
      </trkpt>
      <trkpt lat="46.99169" lon="8.66978">
        <ele>581</ele>
        <time>2021-08-05T10:01:28.452Z</time>
      </trkpt>
      <trkpt lat="46.99169" lon="8.66981">
        <ele>580</ele>
        <time>2021-08-05T10:01:29.452Z</time>
      </trkpt>
      <trkpt lat="46.99169" lon="8.66984">
        <ele>580</ele>
        <time>2021-08-05T10:01:30.451Z</time>
      </trkpt>
      <trkpt lat="46.99168" lon="8.66987">
        <ele>580</ele>
        <time>2021-08-05T10:01:31.451Z</time>
      </trkpt>
      <trkpt lat="46.99166" lon="8.66988">
        <ele>580</ele>
        <time>2021-08-05T10:01:32.452Z</time>
      </trkpt>
      <trkpt lat="46.99165" lon="8.6699">
        <ele>580</ele>
        <time>2021-08-05T10:01:33.451Z</time>
      </trkpt>
      <trkpt lat="46.99163" lon="8.66992">
        <ele>579</ele>
        <time>2021-08-05T10:01:34.451Z</time>
      </trkpt>
      <trkpt lat="46.99161" lon="8.66995">
        <ele>579</ele>
        <time>2021-08-05T10:01:35.452Z</time>
      </trkpt>
      <trkpt lat="46.99159" lon="8.66998">
        <ele>579</ele>
        <time>2021-08-05T10:01:36.451Z</time>
      </trkpt>
      <trkpt lat="46.99158" lon="8.67003">
        <ele>579</ele>
        <time>2021-08-05T10:01:37.451Z</time>
      </trkpt>
      <trkpt lat="46.99156" lon="8.67008">
        <ele>579</ele>
        <time>2021-08-05T10:01:38.451Z</time>
      </trkpt>
      <trkpt lat="46.99156" lon="8.67014">
        <ele>579</ele>
        <time>2021-08-05T10:01:39.451Z</time>
      </trkpt>
      <trkpt lat="46.99155" lon="8.6702">
        <ele>579</ele>
        <time>2021-08-05T10:01:40.452Z</time>
      </trkpt>
      <trkpt lat="46.99153" lon="8.67025">
        <ele>579</ele>
        <time>2021-08-05T10:01:41.451Z</time>
      </trkpt>
      <trkpt lat="46.99152" lon="8.67029">
        <ele>579</ele>
        <time>2021-08-05T10:01:42.452Z</time>
      </trkpt>
      <trkpt lat="46.9915" lon="8.67031">
        <ele>579</ele>
        <time>2021-08-05T10:01:43.452Z</time>
      </trkpt>
      <trkpt lat="46.99149" lon="8.67034">
        <ele>579</ele>
        <time>2021-08-05T10:01:44.451Z</time>
      </trkpt>
      <trkpt lat="46.99147" lon="8.67036">
        <ele>579</ele>
        <time>2021-08-05T10:01:45.451Z</time>
      </trkpt>
      <trkpt lat="46.99145" lon="8.67038">
        <ele>579</ele>
        <time>2021-08-05T10:01:46.452Z</time>
      </trkpt>
      <trkpt lat="46.99143" lon="8.67041">
        <ele>578</ele>
        <time>2021-08-05T10:01:47.451Z</time>
      </trkpt>
      <trkpt lat="46.99142" lon="8.67043">
        <ele>578</ele>
        <time>2021-08-05T10:01:48.452Z</time>
      </trkpt>
      <trkpt lat="46.99141" lon="8.67045">
        <ele>578</ele>
        <time>2021-08-05T10:01:49.452Z</time>
      </trkpt>
      <trkpt lat="46.9914" lon="8.67046">
        <ele>578</ele>
        <time>2021-08-05T10:01:50.452Z</time>
      </trkpt>
      <trkpt lat="46.99139" lon="8.67047">
        <ele>578</ele>
        <time>2021-08-05T10:01:51.451Z</time>
      </trkpt>
      <trkpt lat="46.99139" lon="8.67049">
        <ele>578</ele>
        <time>2021-08-05T10:01:52.451Z</time>
      </trkpt>
      <trkpt lat="46.9914" lon="8.67051">
        <ele>578</ele>
        <time>2021-08-05T10:01:53.451Z</time>
      </trkpt>
      <trkpt lat="46.99139" lon="8.67054">
        <ele>577</ele>
        <time>2021-08-05T10:01:54.452Z</time>
      </trkpt>
      <trkpt lat="46.99136" lon="8.67057">
        <ele>577</ele>
        <time>2021-08-05T10:01:55.451Z</time>
      </trkpt>
      <trkpt lat="46.99134" lon="8.6706">
        <ele>577</ele>
        <time>2021-08-05T10:01:56.451Z</time>
      </trkpt>
      <trkpt lat="46.99132" lon="8.67061">
        <ele>577</ele>
        <time>2021-08-05T10:01:57.451Z</time>
      </trkpt>
      <trkpt lat="46.9913" lon="8.67064">
        <ele>576</ele>
        <time>2021-08-05T10:01:58.452Z</time>
      </trkpt>
      <trkpt lat="46.99129" lon="8.67067">
        <ele>576</ele>
        <time>2021-08-05T10:01:59.452Z</time>
      </trkpt>
      <trkpt lat="46.9913" lon="8.6707">
        <ele>576</ele>
        <time>2021-08-05T10:02:00.452Z</time>
      </trkpt>
      <trkpt lat="46.9913" lon="8.67073">
        <ele>575</ele>
        <time>2021-08-05T10:02:01.451Z</time>
      </trkpt>
      <trkpt lat="46.9913" lon="8.67075">
        <ele>575</ele>
        <time>2021-08-05T10:02:02.451Z</time>
      </trkpt>
      <trkpt lat="46.9913" lon="8.67077">
        <ele>575</ele>
        <time>2021-08-05T10:02:03.452Z</time>
      </trkpt>
      <trkpt lat="46.99129" lon="8.67079">
        <ele>574</ele>
        <time>2021-08-05T10:02:04.452Z</time>
      </trkpt>
      <trkpt lat="46.99128" lon="8.67081">
        <ele>574</ele>
        <time>2021-08-05T10:02:05.451Z</time>
      </trkpt>
      <trkpt lat="46.99127" lon="8.67083">
        <ele>574</ele>
        <time>2021-08-05T10:02:06.451Z</time>
      </trkpt>
      <trkpt lat="46.99127" lon="8.67085">
        <ele>573</ele>
        <time>2021-08-05T10:02:07.451Z</time>
      </trkpt>
      <trkpt lat="46.99127" lon="8.67086">
        <ele>573</ele>
        <time>2021-08-05T10:02:08.452Z</time>
      </trkpt>
      <trkpt lat="46.99128" lon="8.67088">
        <ele>572</ele>
        <time>2021-08-05T10:02:09.452Z</time>
      </trkpt>
      <trkpt lat="46.99126" lon="8.6709">
        <ele>572</ele>
        <time>2021-08-05T10:02:10.452Z</time>
      </trkpt>
      <trkpt lat="46.99125" lon="8.67092">
        <ele>572</ele>
        <time>2021-08-05T10:02:11.452Z</time>
      </trkpt>
      <trkpt lat="46.99125" lon="8.67094">
        <ele>571</ele>
        <time>2021-08-05T10:02:12.452Z</time>
      </trkpt>
      <trkpt lat="46.99125" lon="8.67096">
        <ele>571</ele>
        <time>2021-08-05T10:02:13.452Z</time>
      </trkpt>
      <trkpt lat="46.99124" lon="8.67098">
        <ele>570</ele>
        <time>2021-08-05T10:02:14.452Z</time>
      </trkpt>
      <trkpt lat="46.99124" lon="8.67099">
        <ele>570</ele>
        <time>2021-08-05T10:02:15.452Z</time>
      </trkpt>
      <trkpt lat="46.99123" lon="8.67101">
        <ele>570</ele>
        <time>2021-08-05T10:02:16.451Z</time>
      </trkpt>
      <trkpt lat="46.99122" lon="8.67103">
        <ele>569</ele>
        <time>2021-08-05T10:02:17.451Z</time>
      </trkpt>
      <trkpt lat="46.99122" lon="8.67105">
        <ele>569</ele>
        <time>2021-08-05T10:02:18.451Z</time>
      </trkpt>
      <trkpt lat="46.99122" lon="8.67107">
        <ele>568</ele>
        <time>2021-08-05T10:02:19.452Z</time>
      </trkpt>
      <trkpt lat="46.99122" lon="8.67109">
        <ele>568</ele>
        <time>2021-08-05T10:02:20.452Z</time>
      </trkpt>
      <trkpt lat="46.99122" lon="8.6711">
        <ele>567</ele>
        <time>2021-08-05T10:02:21.452Z</time>
      </trkpt>
      <trkpt lat="46.99122" lon="8.67111">
        <ele>567</ele>
        <time>2021-08-05T10:02:22.451Z</time>
      </trkpt>
      <trkpt lat="46.99123" lon="8.67112">
        <ele>567</ele>
        <time>2021-08-05T10:02:23.452Z</time>
      </trkpt>
      <trkpt lat="46.99123" lon="8.67113">
        <ele>566</ele>
        <time>2021-08-05T10:02:24.452Z</time>
      </trkpt>
      <trkpt lat="46.99123" lon="8.67114">
        <ele>566</ele>
        <time>2021-08-05T10:02:25.452Z</time>
      </trkpt>
      <trkpt lat="46.99123" lon="8.67116">
        <ele>566</ele>
        <time>2021-08-05T10:02:26.451Z</time>
      </trkpt>
      <trkpt lat="46.99123" lon="8.67118">
        <ele>566</ele>
        <time>2021-08-05T10:02:27.452Z</time>
      </trkpt>
      <trkpt lat="46.99123" lon="8.67121">
        <ele>566</ele>
        <time>2021-08-05T10:02:28.452Z</time>
      </trkpt>
      <trkpt lat="46.99123" lon="8.67124">
        <ele>565</ele>
        <time>2021-08-05T10:02:29.451Z</time>
      </trkpt>
      <trkpt lat="46.99122" lon="8.67127">
        <ele>565</ele>
        <time>2021-08-05T10:02:30.451Z</time>
      </trkpt>
      <trkpt lat="46.99122" lon="8.67129">
        <ele>565</ele>
        <time>2021-08-05T10:02:31.451Z</time>
      </trkpt>
      <trkpt lat="46.99121" lon="8.67132">
        <ele>564</ele>
        <time>2021-08-05T10:02:32.451Z</time>
      </trkpt>
      <trkpt lat="46.99121" lon="8.67135">
        <ele>564</ele>
        <time>2021-08-05T10:02:33.452Z</time>
      </trkpt>
      <trkpt lat="46.99122" lon="8.67138">
        <ele>564</ele>
        <time>2021-08-05T10:02:34.452Z</time>
      </trkpt>
      <trkpt lat="46.99123" lon="8.6714">
        <ele>563</ele>
        <time>2021-08-05T10:02:35.452Z</time>
      </trkpt>
      <trkpt lat="46.99123" lon="8.67143">
        <ele>563</ele>
        <time>2021-08-05T10:02:36.452Z</time>
      </trkpt>
      <trkpt lat="46.99124" lon="8.67144">
        <ele>563</ele>
        <time>2021-08-05T10:02:37.451Z</time>
      </trkpt>
      <trkpt lat="46.99124" lon="8.67145">
        <ele>563</ele>
        <time>2021-08-05T10:02:38.451Z</time>
      </trkpt>
      <trkpt lat="46.99124" lon="8.67146">
        <ele>563</ele>
        <time>2021-08-05T10:02:39.452Z</time>
      </trkpt>
      <trkpt lat="46.99124" lon="8.67146">
        <ele>563</ele>
        <time>2021-08-05T10:02:40.452Z</time>
      </trkpt>
      <trkpt lat="46.99124" lon="8.67147">
        <ele>563</ele>
        <time>2021-08-05T10:02:41.451Z</time>
      </trkpt>
      <trkpt lat="46.99125" lon="8.67147">
        <ele>563</ele>
        <time>2021-08-05T10:02:42.451Z</time>
      </trkpt>
      <trkpt lat="46.99125" lon="8.67147">
        <ele>563</ele>
        <time>2021-08-05T10:02:43.452Z</time>
      </trkpt>
      <trkpt lat="46.99125" lon="8.67147">
        <ele>563</ele>
        <time>2021-08-05T10:02:44.452Z</time>
      </trkpt>
      <trkpt lat="46.99126" lon="8.6715">
        <ele>563</ele>
        <time>2021-08-05T10:02:45.453Z</time>
      </trkpt>
      <trkpt lat="46.99127" lon="8.67151">
        <ele>564</ele>
        <time>2021-08-05T10:02:46.453Z</time>
      </trkpt>
      <trkpt lat="46.99127" lon="8.67152">
        <ele>564</ele>
        <time>2021-08-05T10:02:47.452Z</time>
      </trkpt>
      <trkpt lat="46.99128" lon="8.67153">
        <ele>564</ele>
        <time>2021-08-05T10:02:48.453Z</time>
      </trkpt>
      <trkpt lat="46.99128" lon="8.67155">
        <ele>564</ele>
        <time>2021-08-05T10:02:49.452Z</time>
      </trkpt>
      <trkpt lat="46.99128" lon="8.67157">
        <ele>563</ele>
        <time>2021-08-05T10:02:50.453Z</time>
      </trkpt>
      <trkpt lat="46.99129" lon="8.67159">
        <ele>563</ele>
        <time>2021-08-05T10:02:51.452Z</time>
      </trkpt>
      <trkpt lat="46.99129" lon="8.67162">
        <ele>563</ele>
        <time>2021-08-05T10:02:52.452Z</time>
      </trkpt>
      <trkpt lat="46.99131" lon="8.67162">
        <ele>563</ele>
        <time>2021-08-05T10:02:53.453Z</time>
      </trkpt>
      <trkpt lat="46.99133" lon="8.67159">
        <ele>563</ele>
        <time>2021-08-05T10:02:54.453Z</time>
      </trkpt>
      <trkpt lat="46.99134" lon="8.67158">
        <ele>564</ele>
        <time>2021-08-05T10:02:55.452Z</time>
      </trkpt>
      <trkpt lat="46.99135" lon="8.67156">
        <ele>564</ele>
        <time>2021-08-05T10:02:56.453Z</time>
      </trkpt>
      <trkpt lat="46.99135" lon="8.67155">
        <ele>564</ele>
        <time>2021-08-05T10:02:57.453Z</time>
      </trkpt>
      <trkpt lat="46.99133" lon="8.67151">
        <ele>568</ele>
        <time>2021-08-05T10:02:58.453Z</time>
      </trkpt>
      <trkpt lat="46.99133" lon="8.67152">
        <ele>569</ele>
        <time>2021-08-05T10:02:59.453Z</time>
      </trkpt>
      <trkpt lat="46.99134" lon="8.67152">
        <ele>569</ele>
        <time>2021-08-05T10:03:00.453Z</time>
      </trkpt>
      <trkpt lat="46.99134" lon="8.67151">
        <ele>570</ele>
        <time>2021-08-05T10:03:01.454Z</time>
      </trkpt>
      <trkpt lat="46.99135" lon="8.6715">
        <ele>570</ele>
        <time>2021-08-05T10:03:02.454Z</time>
      </trkpt>
      <trkpt lat="46.99135" lon="8.67149">
        <ele>570</ele>
        <time>2021-08-05T10:03:03.454Z</time>
      </trkpt>
      <trkpt lat="46.99136" lon="8.67148">
        <ele>570</ele>
        <time>2021-08-05T10:03:04.454Z</time>
      </trkpt>
      <trkpt lat="46.99137" lon="8.67148">
        <ele>570</ele>
        <time>2021-08-05T10:03:05.454Z</time>
      </trkpt>
      <trkpt lat="46.99137" lon="8.67149">
        <ele>570</ele>
        <time>2021-08-05T10:03:06.453Z</time>
      </trkpt>
      <trkpt lat="46.99137" lon="8.6715">
        <ele>570</ele>
        <time>2021-08-05T10:03:07.454Z</time>
      </trkpt>
      <trkpt lat="46.99136" lon="8.67151">
        <ele>569</ele>
        <time>2021-08-05T10:03:08.454Z</time>
      </trkpt>
      <trkpt lat="46.99136" lon="8.67152">
        <ele>569</ele>
        <time>2021-08-05T10:03:09.454Z</time>
      </trkpt>
      <trkpt lat="46.99136" lon="8.67153">
        <ele>569</ele>
        <time>2021-08-05T10:03:10.453Z</time>
      </trkpt>
      <trkpt lat="46.99136" lon="8.67154">
        <ele>568</ele>
        <time>2021-08-05T10:03:11.453Z</time>
      </trkpt>
      <trkpt lat="46.99137" lon="8.67156">
        <ele>568</ele>
        <time>2021-08-05T10:03:12.454Z</time>
      </trkpt>
      <trkpt lat="46.99137" lon="8.67157">
        <ele>568</ele>
        <time>2021-08-05T10:03:13.454Z</time>
      </trkpt>
      <trkpt lat="46.99138" lon="8.67158">
        <ele>568</ele>
        <time>2021-08-05T10:03:14.454Z</time>
      </trkpt>
      <trkpt lat="46.99139" lon="8.67159">
        <ele>568</ele>
        <time>2021-08-05T10:03:15.454Z</time>
      </trkpt>
      <trkpt lat="46.99139" lon="8.6716">
        <ele>568</ele>
        <time>2021-08-05T10:03:16.453Z</time>
      </trkpt>
      <trkpt lat="46.99138" lon="8.67161">
        <ele>567</ele>
        <time>2021-08-05T10:03:17.454Z</time>
      </trkpt>
      <trkpt lat="46.99138" lon="8.67162">
        <ele>567</ele>
        <time>2021-08-05T10:03:18.453Z</time>
      </trkpt>
      <trkpt lat="46.99138" lon="8.67163">
        <ele>566</ele>
        <time>2021-08-05T10:03:19.454Z</time>
      </trkpt>
      <trkpt lat="46.99138" lon="8.67164">
        <ele>566</ele>
        <time>2021-08-05T10:03:20.454Z</time>
      </trkpt>
      <trkpt lat="46.99138" lon="8.67165">
        <ele>565</ele>
        <time>2021-08-05T10:03:21.454Z</time>
      </trkpt>
      <trkpt lat="46.99137" lon="8.67166">
        <ele>564</ele>
        <time>2021-08-05T10:03:22.454Z</time>
      </trkpt>
      <trkpt lat="46.99136" lon="8.67168">
        <ele>564</ele>
        <time>2021-08-05T10:03:23.453Z</time>
      </trkpt>
      <trkpt lat="46.99135" lon="8.6717">
        <ele>563</ele>
        <time>2021-08-05T10:03:24.454Z</time>
      </trkpt>
      <trkpt lat="46.99134" lon="8.67172">
        <ele>562</ele>
        <time>2021-08-05T10:03:25.454Z</time>
      </trkpt>
      <trkpt lat="46.99133" lon="8.67174">
        <ele>562</ele>
        <time>2021-08-05T10:03:26.453Z</time>
      </trkpt>
      <trkpt lat="46.99132" lon="8.67176">
        <ele>561</ele>
        <time>2021-08-05T10:03:27.453Z</time>
      </trkpt>
      <trkpt lat="46.9913" lon="8.67177">
        <ele>560</ele>
        <time>2021-08-05T10:03:28.453Z</time>
      </trkpt>
      <trkpt lat="46.99128" lon="8.67179">
        <ele>560</ele>
        <time>2021-08-05T10:03:29.454Z</time>
      </trkpt>
      <trkpt lat="46.99126" lon="8.67181">
        <ele>559</ele>
        <time>2021-08-05T10:03:30.454Z</time>
      </trkpt>
      <trkpt lat="46.99126" lon="8.67182">
        <ele>559</ele>
        <time>2021-08-05T10:03:31.454Z</time>
      </trkpt>
      <trkpt lat="46.99127" lon="8.67183">
        <ele>558</ele>
        <time>2021-08-05T10:03:32.453Z</time>
      </trkpt>
      <trkpt lat="46.99128" lon="8.67185">
        <ele>558</ele>
        <time>2021-08-05T10:03:33.453Z</time>
      </trkpt>
      <trkpt lat="46.99128" lon="8.67186">
        <ele>557</ele>
        <time>2021-08-05T10:03:34.454Z</time>
      </trkpt>
      <trkpt lat="46.99128" lon="8.67188">
        <ele>557</ele>
        <time>2021-08-05T10:03:35.454Z</time>
      </trkpt>
      <trkpt lat="46.99128" lon="8.67189">
        <ele>557</ele>
        <time>2021-08-05T10:03:36.454Z</time>
      </trkpt>
      <trkpt lat="46.99128" lon="8.67191">
        <ele>556</ele>
        <time>2021-08-05T10:03:37.454Z</time>
      </trkpt>
      <trkpt lat="46.99128" lon="8.67192">
        <ele>556</ele>
        <time>2021-08-05T10:03:38.454Z</time>
      </trkpt>
      <trkpt lat="46.99127" lon="8.67192">
        <ele>555</ele>
        <time>2021-08-05T10:03:39.454Z</time>
      </trkpt>
      <trkpt lat="46.99127" lon="8.67193">
        <ele>555</ele>
        <time>2021-08-05T10:03:40.453Z</time>
      </trkpt>
      <trkpt lat="46.99125" lon="8.67193">
        <ele>554</ele>
        <time>2021-08-05T10:03:41.454Z</time>
      </trkpt>
      <trkpt lat="46.99124" lon="8.67194">
        <ele>554</ele>
        <time>2021-08-05T10:03:42.454Z</time>
      </trkpt>
      <trkpt lat="46.99123" lon="8.67194">
        <ele>554</ele>
        <time>2021-08-05T10:03:43.454Z</time>
      </trkpt>
      <trkpt lat="46.99122" lon="8.67194">
        <ele>553</ele>
        <time>2021-08-05T10:03:44.454Z</time>
      </trkpt>
      <trkpt lat="46.99122" lon="8.67195">
        <ele>553</ele>
        <time>2021-08-05T10:03:45.453Z</time>
      </trkpt>
      <trkpt lat="46.99122" lon="8.67196">
        <ele>553</ele>
        <time>2021-08-05T10:03:46.454Z</time>
      </trkpt>
      <trkpt lat="46.99122" lon="8.67198">
        <ele>553</ele>
        <time>2021-08-05T10:03:47.454Z</time>
      </trkpt>
      <trkpt lat="46.99122" lon="8.672">
        <ele>552</ele>
        <time>2021-08-05T10:03:48.454Z</time>
      </trkpt>
      <trkpt lat="46.99121" lon="8.67202">
        <ele>552</ele>
        <time>2021-08-05T10:03:49.454Z</time>
      </trkpt>
      <trkpt lat="46.99119" lon="8.67203">
        <ele>552</ele>
        <time>2021-08-05T10:03:50.454Z</time>
      </trkpt>
      <trkpt lat="46.99117" lon="8.67204">
        <ele>552</ele>
        <time>2021-08-05T10:03:51.453Z</time>
      </trkpt>
      <trkpt lat="46.99115" lon="8.67206">
        <ele>552</ele>
        <time>2021-08-05T10:03:52.454Z</time>
      </trkpt>
      <trkpt lat="46.99112" lon="8.67207">
        <ele>552</ele>
        <time>2021-08-05T10:03:53.454Z</time>
      </trkpt>
      <trkpt lat="46.99111" lon="8.67208">
        <ele>552</ele>
        <time>2021-08-05T10:03:54.453Z</time>
      </trkpt>
      <trkpt lat="46.9911" lon="8.6721">
        <ele>552</ele>
        <time>2021-08-05T10:03:55.454Z</time>
      </trkpt>
      <trkpt lat="46.9911" lon="8.67211">
        <ele>552</ele>
        <time>2021-08-05T10:03:56.453Z</time>
      </trkpt>
      <trkpt lat="46.99108" lon="8.67214">
        <ele>552</ele>
        <time>2021-08-05T10:03:57.454Z</time>
      </trkpt>
      <trkpt lat="46.99107" lon="8.67216">
        <ele>552</ele>
        <time>2021-08-05T10:03:58.454Z</time>
      </trkpt>
      <trkpt lat="46.99107" lon="8.67217">
        <ele>552</ele>
        <time>2021-08-05T10:03:59.453Z</time>
      </trkpt>
      <trkpt lat="46.99106" lon="8.67218">
        <ele>552</ele>
        <time>2021-08-05T10:04:00.454Z</time>
      </trkpt>
      <trkpt lat="46.99106" lon="8.6722">
        <ele>553</ele>
        <time>2021-08-05T10:04:01.454Z</time>
      </trkpt>
      <trkpt lat="46.99106" lon="8.67222">
        <ele>553</ele>
        <time>2021-08-05T10:04:02.453Z</time>
      </trkpt>
      <trkpt lat="46.99105" lon="8.67224">
        <ele>554</ele>
        <time>2021-08-05T10:04:03.453Z</time>
      </trkpt>
      <trkpt lat="46.99105" lon="8.67226">
        <ele>554</ele>
        <time>2021-08-05T10:04:04.453Z</time>
      </trkpt>
      <trkpt lat="46.99104" lon="8.67227">
        <ele>555</ele>
        <time>2021-08-05T10:04:05.453Z</time>
      </trkpt>
      <trkpt lat="46.99103" lon="8.67229">
        <ele>555</ele>
        <time>2021-08-05T10:04:06.453Z</time>
      </trkpt>
      <trkpt lat="46.99103" lon="8.67231">
        <ele>556</ele>
        <time>2021-08-05T10:04:07.454Z</time>
      </trkpt>
      <trkpt lat="46.99102" lon="8.67232">
        <ele>557</ele>
        <time>2021-08-05T10:04:08.454Z</time>
      </trkpt>
      <trkpt lat="46.99101" lon="8.67235">
        <ele>557</ele>
        <time>2021-08-05T10:04:09.454Z</time>
      </trkpt>
      <trkpt lat="46.99101" lon="8.67237">
        <ele>557</ele>
        <time>2021-08-05T10:04:10.453Z</time>
      </trkpt>
      <trkpt lat="46.99101" lon="8.6724">
        <ele>558</ele>
        <time>2021-08-05T10:04:11.454Z</time>
      </trkpt>
      <trkpt lat="46.991" lon="8.67242">
        <ele>558</ele>
        <time>2021-08-05T10:04:12.454Z</time>
      </trkpt>
      <trkpt lat="46.991" lon="8.67244">
        <ele>558</ele>
        <time>2021-08-05T10:04:13.454Z</time>
      </trkpt>
      <trkpt lat="46.991" lon="8.67245">
        <ele>559</ele>
        <time>2021-08-05T10:04:14.453Z</time>
      </trkpt>
      <trkpt lat="46.99099" lon="8.67247">
        <ele>559</ele>
        <time>2021-08-05T10:04:15.454Z</time>
      </trkpt>
      <trkpt lat="46.99098" lon="8.67248">
        <ele>559</ele>
        <time>2021-08-05T10:04:16.454Z</time>
      </trkpt>
      <trkpt lat="46.99098" lon="8.6725">
        <ele>559</ele>
        <time>2021-08-05T10:04:17.454Z</time>
      </trkpt>
      <trkpt lat="46.99097" lon="8.67251">
        <ele>559</ele>
        <time>2021-08-05T10:04:18.454Z</time>
      </trkpt>
      <trkpt lat="46.99096" lon="8.67251">
        <ele>560</ele>
        <time>2021-08-05T10:04:19.453Z</time>
      </trkpt>
      <trkpt lat="46.99096" lon="8.67253">
        <ele>560</ele>
        <time>2021-08-05T10:04:20.454Z</time>
      </trkpt>
      <trkpt lat="46.99097" lon="8.67254">
        <ele>561</ele>
        <time>2021-08-05T10:04:21.453Z</time>
      </trkpt>
      <trkpt lat="46.99098" lon="8.67254">
        <ele>561</ele>
        <time>2021-08-05T10:04:22.453Z</time>
      </trkpt>
      <trkpt lat="46.99097" lon="8.67254">
        <ele>562</ele>
        <time>2021-08-05T10:04:23.453Z</time>
      </trkpt>
      <trkpt lat="46.99096" lon="8.67254">
        <ele>562</ele>
        <time>2021-08-05T10:04:24.453Z</time>
      </trkpt>
      <trkpt lat="46.99096" lon="8.67255">
        <ele>563</ele>
        <time>2021-08-05T10:04:25.453Z</time>
      </trkpt>
      <trkpt lat="46.99096" lon="8.67256">
        <ele>563</ele>
        <time>2021-08-05T10:04:26.453Z</time>
      </trkpt>
      <trkpt lat="46.99094" lon="8.67257">
        <ele>563</ele>
        <time>2021-08-05T10:04:27.453Z</time>
      </trkpt>
      <trkpt lat="46.99093" lon="8.67258">
        <ele>563</ele>
        <time>2021-08-05T10:04:28.454Z</time>
      </trkpt>
      <trkpt lat="46.99092" lon="8.67259">
        <ele>564</ele>
        <time>2021-08-05T10:04:29.453Z</time>
      </trkpt>
      <trkpt lat="46.99092" lon="8.6726">
        <ele>563</ele>
        <time>2021-08-05T10:04:30.453Z</time>
      </trkpt>
      <trkpt lat="46.99092" lon="8.67261">
        <ele>562</ele>
        <time>2021-08-05T10:04:31.453Z</time>
      </trkpt>
      <trkpt lat="46.99092" lon="8.67262">
        <ele>561</ele>
        <time>2021-08-05T10:04:32.454Z</time>
      </trkpt>
      <trkpt lat="46.99092" lon="8.67263">
        <ele>560</ele>
        <time>2021-08-05T10:04:33.454Z</time>
      </trkpt>
      <trkpt lat="46.99096" lon="8.67273">
        <ele>554</ele>
        <time>2021-08-05T10:04:34.455Z</time>
      </trkpt>
      <trkpt lat="46.99098" lon="8.67273">
        <ele>555</ele>
        <time>2021-08-05T10:04:35.455Z</time>
      </trkpt>
      <trkpt lat="46.991" lon="8.67271">
        <ele>556</ele>
        <time>2021-08-05T10:04:36.455Z</time>
      </trkpt>
      <trkpt lat="46.99102" lon="8.67271">
        <ele>556</ele>
        <time>2021-08-05T10:04:37.455Z</time>
      </trkpt>
      <trkpt lat="46.99102" lon="8.67272">
        <ele>556</ele>
        <time>2021-08-05T10:04:38.455Z</time>
      </trkpt>
      <trkpt lat="46.99102" lon="8.67273">
        <ele>557</ele>
        <time>2021-08-05T10:04:39.454Z</time>
      </trkpt>
      <trkpt lat="46.99101" lon="8.67275">
        <ele>557</ele>
        <time>2021-08-05T10:04:40.455Z</time>
      </trkpt>
      <trkpt lat="46.991" lon="8.67276">
        <ele>558</ele>
        <time>2021-08-05T10:04:41.455Z</time>
      </trkpt>
      <trkpt lat="46.991" lon="8.67276">
        <ele>558</ele>
        <time>2021-08-05T10:04:42.454Z</time>
      </trkpt>
      <trkpt lat="46.991" lon="8.67276">
        <ele>559</ele>
        <time>2021-08-05T10:04:43.454Z</time>
      </trkpt>
      <trkpt lat="46.99099" lon="8.67276">
        <ele>559</ele>
        <time>2021-08-05T10:04:44.455Z</time>
      </trkpt>
      <trkpt lat="46.99099" lon="8.67276">
        <ele>559</ele>
        <time>2021-08-05T10:04:45.454Z</time>
      </trkpt>
      <trkpt lat="46.99099" lon="8.67276">
        <ele>559</ele>
        <time>2021-08-05T10:04:46.455Z</time>
      </trkpt>
      <trkpt lat="46.991" lon="8.67276">
        <ele>559</ele>
        <time>2021-08-05T10:04:47.454Z</time>
      </trkpt>
      <trkpt lat="46.991" lon="8.67277">
        <ele>559</ele>
        <time>2021-08-05T10:04:48.454Z</time>
      </trkpt>
      <trkpt lat="46.99101" lon="8.67277">
        <ele>559</ele>
        <time>2021-08-05T10:04:49.455Z</time>
      </trkpt>
      <trkpt lat="46.99102" lon="8.67277">
        <ele>559</ele>
        <time>2021-08-05T10:04:50.454Z</time>
      </trkpt>
      <trkpt lat="46.99102" lon="8.67277">
        <ele>559</ele>
        <time>2021-08-05T10:04:51.455Z</time>
      </trkpt>
      <trkpt lat="46.99103" lon="8.67277">
        <ele>558</ele>
        <time>2021-08-05T10:04:52.454Z</time>
      </trkpt>
      <trkpt lat="46.99103" lon="8.67276">
        <ele>558</ele>
        <time>2021-08-05T10:04:53.455Z</time>
      </trkpt>
      <trkpt lat="46.99102" lon="8.67275">
        <ele>558</ele>
        <time>2021-08-05T10:04:54.455Z</time>
      </trkpt>
      <trkpt lat="46.991" lon="8.67273">
        <ele>557</ele>
        <time>2021-08-05T10:04:55.457Z</time>
      </trkpt>
      <trkpt lat="46.991" lon="8.67272">
        <ele>557</ele>
        <time>2021-08-05T10:04:56.456Z</time>
      </trkpt>
      <trkpt lat="46.991" lon="8.6727">
        <ele>557</ele>
        <time>2021-08-05T10:04:57.456Z</time>
      </trkpt>
      <trkpt lat="46.99098" lon="8.67269">
        <ele>557</ele>
        <time>2021-08-05T10:04:58.456Z</time>
      </trkpt>
      <trkpt lat="46.99095" lon="8.67268">
        <ele>558</ele>
        <time>2021-08-05T10:04:59.456Z</time>
      </trkpt>
      <trkpt lat="46.99094" lon="8.6727">
        <ele>558</ele>
        <time>2021-08-05T10:05:00.457Z</time>
      </trkpt>
      <trkpt lat="46.99095" lon="8.6727">
        <ele>558</ele>
        <time>2021-08-05T10:05:01.457Z</time>
      </trkpt>
      <trkpt lat="46.99095" lon="8.67271">
        <ele>557</ele>
        <time>2021-08-05T10:05:02.457Z</time>
      </trkpt>
      <trkpt lat="46.99096" lon="8.67278">
        <ele>552</ele>
        <time>2021-08-05T10:05:03.458Z</time>
      </trkpt>
      <trkpt lat="46.99096" lon="8.67278">
        <ele>553</ele>
        <time>2021-08-05T10:05:04.457Z</time>
      </trkpt>
      <trkpt lat="46.99096" lon="8.67277">
        <ele>553</ele>
        <time>2021-08-05T10:05:05.458Z</time>
      </trkpt>
      <trkpt lat="46.99096" lon="8.67277">
        <ele>553</ele>
        <time>2021-08-05T10:05:06.458Z</time>
      </trkpt>
      <trkpt lat="46.99097" lon="8.67278">
        <ele>556</ele>
        <time>2021-08-05T10:05:07.458Z</time>
      </trkpt>
      <trkpt lat="46.99098" lon="8.67278">
        <ele>557</ele>
        <time>2021-08-05T10:05:08.457Z</time>
      </trkpt>
      <trkpt lat="46.99098" lon="8.6728">
        <ele>552</ele>
        <time>2021-08-05T10:05:09.457Z</time>
      </trkpt>
      <trkpt lat="46.99098" lon="8.6728">
        <ele>552</ele>
        <time>2021-08-05T10:05:10.457Z</time>
      </trkpt>
      <trkpt lat="46.99096" lon="8.67274">
        <ele>555</ele>
        <time>2021-08-05T10:05:11.458Z</time>
      </trkpt>
      <trkpt lat="46.99096" lon="8.67274">
        <ele>555</ele>
        <time>2021-08-05T10:05:12.458Z</time>
      </trkpt>
      <trkpt lat="46.99097" lon="8.67274">
        <ele>554</ele>
        <time>2021-08-05T10:05:13.458Z</time>
      </trkpt>
      <trkpt lat="46.99097" lon="8.67274">
        <ele>554</ele>
        <time>2021-08-05T10:05:14.458Z</time>
      </trkpt>
      <trkpt lat="46.99097" lon="8.67274">
        <ele>555</ele>
        <time>2021-08-05T10:05:15.459Z</time>
      </trkpt>
      <trkpt lat="46.99098" lon="8.67273">
        <ele>555</ele>
        <time>2021-08-05T10:05:16.459Z</time>
      </trkpt>
      <trkpt lat="46.99098" lon="8.67271">
        <ele>555</ele>
        <time>2021-08-05T10:05:17.459Z</time>
      </trkpt>
      <trkpt lat="46.99098" lon="8.67271">
        <ele>555</ele>
        <time>2021-08-05T10:05:18.459Z</time>
      </trkpt>
      <trkpt lat="46.99097" lon="8.67271">
        <ele>555</ele>
        <time>2021-08-05T10:05:19.459Z</time>
      </trkpt>
      <trkpt lat="46.99097" lon="8.67272">
        <ele>556</ele>
        <time>2021-08-05T10:05:20.459Z</time>
      </trkpt>
      <trkpt lat="46.99098" lon="8.67272">
        <ele>556</ele>
        <time>2021-08-05T10:05:21.459Z</time>
      </trkpt>
      <trkpt lat="46.99096" lon="8.67276">
        <ele>555</ele>
        <time>2021-08-05T10:05:22.459Z</time>
      </trkpt>
      <trkpt lat="46.99096" lon="8.67286">
        <ele>554</ele>
        <time>2021-08-05T10:05:23.461Z</time>
      </trkpt>
      <trkpt lat="46.99096" lon="8.67284">
        <ele>553</ele>
        <time>2021-08-05T10:05:24.461Z</time>
      </trkpt>
      <trkpt lat="46.99096" lon="8.67282">
        <ele>554</ele>
        <time>2021-08-05T10:05:25.461Z</time>
      </trkpt>
      <trkpt lat="46.99096" lon="8.67281">
        <ele>553</ele>
        <time>2021-08-05T10:05:26.460Z</time>
      </trkpt>
      <trkpt lat="46.99096" lon="8.6728">
        <ele>553</ele>
        <time>2021-08-05T10:05:27.461Z</time>
      </trkpt>
      <trkpt lat="46.99096" lon="8.67279">
        <ele>553</ele>
        <time>2021-08-05T10:05:28.461Z</time>
      </trkpt>
      <trkpt lat="46.99095" lon="8.67278">
        <ele>553</ele>
        <time>2021-08-05T10:05:29.461Z</time>
      </trkpt>
      <trkpt lat="46.99095" lon="8.67277">
        <ele>552</ele>
        <time>2021-08-05T10:05:30.460Z</time>
      </trkpt>
      <trkpt lat="46.99095" lon="8.67276">
        <ele>552</ele>
        <time>2021-08-05T10:05:31.460Z</time>
      </trkpt>
      <trkpt lat="46.99095" lon="8.67275">
        <ele>552</ele>
        <time>2021-08-05T10:05:32.460Z</time>
      </trkpt>
      <trkpt lat="46.99093" lon="8.67274">
        <ele>552</ele>
        <time>2021-08-05T10:05:33.461Z</time>
      </trkpt>
      <trkpt lat="46.99093" lon="8.67274">
        <ele>552</ele>
        <time>2021-08-05T10:05:34.461Z</time>
      </trkpt>
      <trkpt lat="46.99093" lon="8.67274">
        <ele>553</ele>
        <time>2021-08-05T10:05:35.461Z</time>
      </trkpt>
      <trkpt lat="46.99093" lon="8.67275">
        <ele>553</ele>
        <time>2021-08-05T10:05:36.461Z</time>
      </trkpt>
      <trkpt lat="46.99092" lon="8.67275">
        <ele>554</ele>
        <time>2021-08-05T10:05:37.461Z</time>
      </trkpt>
      <trkpt lat="46.99092" lon="8.67276">
        <ele>554</ele>
        <time>2021-08-05T10:05:38.462Z</time>
      </trkpt>
      <trkpt lat="46.99092" lon="8.67277">
        <ele>555</ele>
        <time>2021-08-05T10:05:39.461Z</time>
      </trkpt>
      <trkpt lat="46.99091" lon="8.67278">
        <ele>556</ele>
        <time>2021-08-05T10:05:40.461Z</time>
      </trkpt>
      <trkpt lat="46.9909" lon="8.67279">
        <ele>556</ele>
        <time>2021-08-05T10:05:41.462Z</time>
      </trkpt>
      <trkpt lat="46.9909" lon="8.67279">
        <ele>557</ele>
        <time>2021-08-05T10:05:42.462Z</time>
      </trkpt>
      <trkpt lat="46.99089" lon="8.6728">
        <ele>557</ele>
        <time>2021-08-05T10:05:43.462Z</time>
      </trkpt>
      <trkpt lat="46.99088" lon="8.67281">
        <ele>558</ele>
        <time>2021-08-05T10:05:44.461Z</time>
      </trkpt>
      <trkpt lat="46.99087" lon="8.67282">
        <ele>558</ele>
        <time>2021-08-05T10:05:45.461Z</time>
      </trkpt>
      <trkpt lat="46.99086" lon="8.67283">
        <ele>559</ele>
        <time>2021-08-05T10:05:46.461Z</time>
      </trkpt>
      <trkpt lat="46.99085" lon="8.67285">
        <ele>560</ele>
        <time>2021-08-05T10:05:47.461Z</time>
      </trkpt>
      <trkpt lat="46.99084" lon="8.67286">
        <ele>560</ele>
        <time>2021-08-05T10:05:48.462Z</time>
      </trkpt>
      <trkpt lat="46.99083" lon="8.67287">
        <ele>561</ele>
        <time>2021-08-05T10:05:49.461Z</time>
      </trkpt>
      <trkpt lat="46.99082" lon="8.67288">
        <ele>561</ele>
        <time>2021-08-05T10:05:50.461Z</time>
      </trkpt>
      <trkpt lat="46.99081" lon="8.6729">
        <ele>561</ele>
        <time>2021-08-05T10:05:51.461Z</time>
      </trkpt>
      <trkpt lat="46.9908" lon="8.67291">
        <ele>561</ele>
        <time>2021-08-05T10:05:52.461Z</time>
      </trkpt>
      <trkpt lat="46.9908" lon="8.67292">
        <ele>561</ele>
        <time>2021-08-05T10:05:53.461Z</time>
      </trkpt>
      <trkpt lat="46.99079" lon="8.67293">
        <ele>562</ele>
        <time>2021-08-05T10:05:54.461Z</time>
      </trkpt>
      <trkpt lat="46.99078" lon="8.67294">
        <ele>561</ele>
        <time>2021-08-05T10:05:55.461Z</time>
      </trkpt>
      <trkpt lat="46.99077" lon="8.67295">
        <ele>561</ele>
        <time>2021-08-05T10:05:56.461Z</time>
      </trkpt>
      <trkpt lat="46.99076" lon="8.67295">
        <ele>561</ele>
        <time>2021-08-05T10:05:57.461Z</time>
      </trkpt>
      <trkpt lat="46.99075" lon="8.67298">
        <ele>561</ele>
        <time>2021-08-05T10:05:58.461Z</time>
      </trkpt>
      <trkpt lat="46.99074" lon="8.67301">
        <ele>561</ele>
        <time>2021-08-05T10:05:59.461Z</time>
      </trkpt>
      <trkpt lat="46.99073" lon="8.67305">
        <ele>561</ele>
        <time>2021-08-05T10:06:00.462Z</time>
      </trkpt>
      <trkpt lat="46.99071" lon="8.67306">
        <ele>561</ele>
        <time>2021-08-05T10:06:01.461Z</time>
      </trkpt>
      <trkpt lat="46.9907" lon="8.67306">
        <ele>561</ele>
        <time>2021-08-05T10:06:02.461Z</time>
      </trkpt>
      <trkpt lat="46.9907" lon="8.67306">
        <ele>562</ele>
        <time>2021-08-05T10:06:03.461Z</time>
      </trkpt>
      <trkpt lat="46.9907" lon="8.67308">
        <ele>562</ele>
        <time>2021-08-05T10:06:04.462Z</time>
      </trkpt>
      <trkpt lat="46.99069" lon="8.6731">
        <ele>562</ele>
        <time>2021-08-05T10:06:05.462Z</time>
      </trkpt>
      <trkpt lat="46.99069" lon="8.67311">
        <ele>563</ele>
        <time>2021-08-05T10:06:06.462Z</time>
      </trkpt>
      <trkpt lat="46.99068" lon="8.67312">
        <ele>563</ele>
        <time>2021-08-05T10:06:07.462Z</time>
      </trkpt>
      <trkpt lat="46.99068" lon="8.67313">
        <ele>563</ele>
        <time>2021-08-05T10:06:08.462Z</time>
      </trkpt>
      <trkpt lat="46.99069" lon="8.67314">
        <ele>564</ele>
        <time>2021-08-05T10:06:09.462Z</time>
      </trkpt>
      <trkpt lat="46.99069" lon="8.67313">
        <ele>564</ele>
        <time>2021-08-05T10:06:10.462Z</time>
      </trkpt>
      <trkpt lat="46.9907" lon="8.67312">
        <ele>564</ele>
        <time>2021-08-05T10:06:11.462Z</time>
      </trkpt>
      <trkpt lat="46.99069" lon="8.67313">
        <ele>563</ele>
        <time>2021-08-05T10:06:12.462Z</time>
      </trkpt>
      <trkpt lat="46.99068" lon="8.67314">
        <ele>563</ele>
        <time>2021-08-05T10:06:13.462Z</time>
      </trkpt>
      <trkpt lat="46.99067" lon="8.67314">
        <ele>563</ele>
        <time>2021-08-05T10:06:14.461Z</time>
      </trkpt>
      <trkpt lat="46.99068" lon="8.67315">
        <ele>562</ele>
        <time>2021-08-05T10:06:15.462Z</time>
      </trkpt>
      <trkpt lat="46.99068" lon="8.67316">
        <ele>562</ele>
        <time>2021-08-05T10:06:16.462Z</time>
      </trkpt>
      <trkpt lat="46.99067" lon="8.67318">
        <ele>561</ele>
        <time>2021-08-05T10:06:17.462Z</time>
      </trkpt>
      <trkpt lat="46.99067" lon="8.6732">
        <ele>561</ele>
        <time>2021-08-05T10:06:18.461Z</time>
      </trkpt>
      <trkpt lat="46.99066" lon="8.67321">
        <ele>560</ele>
        <time>2021-08-05T10:06:19.462Z</time>
      </trkpt>
      <trkpt lat="46.99065" lon="8.67323">
        <ele>560</ele>
        <time>2021-08-05T10:06:20.461Z</time>
      </trkpt>
      <trkpt lat="46.99064" lon="8.67324">
        <ele>559</ele>
        <time>2021-08-05T10:06:21.461Z</time>
      </trkpt>
      <trkpt lat="46.99064" lon="8.67326">
        <ele>559</ele>
        <time>2021-08-05T10:06:22.462Z</time>
      </trkpt>
      <trkpt lat="46.99063" lon="8.67328">
        <ele>559</ele>
        <time>2021-08-05T10:06:23.462Z</time>
      </trkpt>
      <trkpt lat="46.99063" lon="8.67329">
        <ele>558</ele>
        <time>2021-08-05T10:06:24.462Z</time>
      </trkpt>
      <trkpt lat="46.99063" lon="8.67329">
        <ele>558</ele>
        <time>2021-08-05T10:06:25.461Z</time>
      </trkpt>
      <trkpt lat="46.99062" lon="8.67331">
        <ele>558</ele>
        <time>2021-08-05T10:06:26.462Z</time>
      </trkpt>
      <trkpt lat="46.99061" lon="8.67332">
        <ele>557</ele>
        <time>2021-08-05T10:06:27.462Z</time>
      </trkpt>
      <trkpt lat="46.99059" lon="8.67334">
        <ele>556</ele>
        <time>2021-08-05T10:06:28.461Z</time>
      </trkpt>
      <trkpt lat="46.99057" lon="8.67335">
        <ele>555</ele>
        <time>2021-08-05T10:06:29.461Z</time>
      </trkpt>
      <trkpt lat="46.99056" lon="8.67336">
        <ele>554</ele>
        <time>2021-08-05T10:06:30.461Z</time>
      </trkpt>
      <trkpt lat="46.99055" lon="8.67337">
        <ele>553</ele>
        <time>2021-08-05T10:06:31.462Z</time>
      </trkpt>
      <trkpt lat="46.99055" lon="8.67338">
        <ele>552</ele>
        <time>2021-08-05T10:06:32.462Z</time>
      </trkpt>
      <trkpt lat="46.99055" lon="8.67339">
        <ele>552</ele>
        <time>2021-08-05T10:06:33.462Z</time>
      </trkpt>
      <trkpt lat="46.99055" lon="8.67341">
        <ele>551</ele>
        <time>2021-08-05T10:06:34.461Z</time>
      </trkpt>
      <trkpt lat="46.99056" lon="8.67342">
        <ele>551</ele>
        <time>2021-08-05T10:06:35.462Z</time>
      </trkpt>
      <trkpt lat="46.99056" lon="8.67343">
        <ele>551</ele>
        <time>2021-08-05T10:06:36.462Z</time>
      </trkpt>
      <trkpt lat="46.99057" lon="8.67345">
        <ele>551</ele>
        <time>2021-08-05T10:06:37.462Z</time>
      </trkpt>
      <trkpt lat="46.99057" lon="8.67346">
        <ele>552</ele>
        <time>2021-08-05T10:06:38.461Z</time>
      </trkpt>
      <trkpt lat="46.9906" lon="8.67342">
        <ele>554</ele>
        <time>2021-08-05T10:06:39.461Z</time>
      </trkpt>
      <trkpt lat="46.9906" lon="8.67342">
        <ele>553</ele>
        <time>2021-08-05T10:06:40.461Z</time>
      </trkpt>
      <trkpt lat="46.9906" lon="8.67343">
        <ele>555</ele>
        <time>2021-08-05T10:06:41.461Z</time>
      </trkpt>
      <trkpt lat="46.9906" lon="8.67342">
        <ele>555</ele>
        <time>2021-08-05T10:06:42.462Z</time>
      </trkpt>
      <trkpt lat="46.99059" lon="8.6734">
        <ele>555</ele>
        <time>2021-08-05T10:06:43.462Z</time>
      </trkpt>
      <trkpt lat="46.99058" lon="8.67339">
        <ele>555</ele>
        <time>2021-08-05T10:06:44.462Z</time>
      </trkpt>
      <trkpt lat="46.99058" lon="8.67339">
        <ele>555</ele>
        <time>2021-08-05T10:06:45.461Z</time>
      </trkpt>
      <trkpt lat="46.99058" lon="8.67339">
        <ele>555</ele>
        <time>2021-08-05T10:06:46.461Z</time>
      </trkpt>
      <trkpt lat="46.99058" lon="8.67341">
        <ele>555</ele>
        <time>2021-08-05T10:06:47.462Z</time>
      </trkpt>
      <trkpt lat="46.99058" lon="8.67341">
        <ele>556</ele>
        <time>2021-08-05T10:06:48.462Z</time>
      </trkpt>
      <trkpt lat="46.99059" lon="8.67342">
        <ele>556</ele>
        <time>2021-08-05T10:06:49.462Z</time>
      </trkpt>
      <trkpt lat="46.99058" lon="8.67344">
        <ele>557</ele>
        <time>2021-08-05T10:06:50.461Z</time>
      </trkpt>
      <trkpt lat="46.99058" lon="8.67345">
        <ele>557</ele>
        <time>2021-08-05T10:06:51.462Z</time>
      </trkpt>
      <trkpt lat="46.99057" lon="8.67346">
        <ele>558</ele>
        <time>2021-08-05T10:06:52.461Z</time>
      </trkpt>
      <trkpt lat="46.99056" lon="8.67348">
        <ele>558</ele>
        <time>2021-08-05T10:06:53.461Z</time>
      </trkpt>
      <trkpt lat="46.99056" lon="8.67349">
        <ele>557</ele>
        <time>2021-08-05T10:06:54.461Z</time>
      </trkpt>
      <trkpt lat="46.99055" lon="8.67351">
        <ele>557</ele>
        <time>2021-08-05T10:06:55.462Z</time>
      </trkpt>
      <trkpt lat="46.99055" lon="8.67353">
        <ele>556</ele>
        <time>2021-08-05T10:06:56.462Z</time>
      </trkpt>
      <trkpt lat="46.99054" lon="8.67355">
        <ele>556</ele>
        <time>2021-08-05T10:06:57.462Z</time>
      </trkpt>
      <trkpt lat="46.99054" lon="8.67357">
        <ele>555</ele>
        <time>2021-08-05T10:06:58.462Z</time>
      </trkpt>
      <trkpt lat="46.99054" lon="8.67358">
        <ele>555</ele>
        <time>2021-08-05T10:06:59.461Z</time>
      </trkpt>
      <trkpt lat="46.99053" lon="8.67361">
        <ele>554</ele>
        <time>2021-08-05T10:07:00.462Z</time>
      </trkpt>
      <trkpt lat="46.99052" lon="8.67363">
        <ele>554</ele>
        <time>2021-08-05T10:07:01.461Z</time>
      </trkpt>
      <trkpt lat="46.99053" lon="8.67364">
        <ele>553</ele>
        <time>2021-08-05T10:07:02.461Z</time>
      </trkpt>
      <trkpt lat="46.99053" lon="8.67365">
        <ele>553</ele>
        <time>2021-08-05T10:07:03.462Z</time>
      </trkpt>
      <trkpt lat="46.99054" lon="8.67367">
        <ele>553</ele>
        <time>2021-08-05T10:07:04.461Z</time>
      </trkpt>
      <trkpt lat="46.99054" lon="8.67368">
        <ele>553</ele>
        <time>2021-08-05T10:07:05.462Z</time>
      </trkpt>
      <trkpt lat="46.99054" lon="8.6737">
        <ele>553</ele>
        <time>2021-08-05T10:07:06.462Z</time>
      </trkpt>
      <trkpt lat="46.99054" lon="8.67372">
        <ele>553</ele>
        <time>2021-08-05T10:07:07.462Z</time>
      </trkpt>
      <trkpt lat="46.99053" lon="8.67373">
        <ele>553</ele>
        <time>2021-08-05T10:07:08.462Z</time>
      </trkpt>
      <trkpt lat="46.99053" lon="8.67375">
        <ele>553</ele>
        <time>2021-08-05T10:07:09.461Z</time>
      </trkpt>
      <trkpt lat="46.99053" lon="8.67377">
        <ele>553</ele>
        <time>2021-08-05T10:07:10.462Z</time>
      </trkpt>
      <trkpt lat="46.99052" lon="8.67379">
        <ele>553</ele>
        <time>2021-08-05T10:07:11.462Z</time>
      </trkpt>
      <trkpt lat="46.99052" lon="8.67381">
        <ele>553</ele>
        <time>2021-08-05T10:07:12.462Z</time>
      </trkpt>
      <trkpt lat="46.99051" lon="8.67383">
        <ele>553</ele>
        <time>2021-08-05T10:07:13.461Z</time>
      </trkpt>
      <trkpt lat="46.99051" lon="8.67385">
        <ele>552</ele>
        <time>2021-08-05T10:07:14.462Z</time>
      </trkpt>
      <trkpt lat="46.99052" lon="8.67387">
        <ele>552</ele>
        <time>2021-08-05T10:07:15.462Z</time>
      </trkpt>
      <trkpt lat="46.99052" lon="8.67389">
        <ele>553</ele>
        <time>2021-08-05T10:07:16.462Z</time>
      </trkpt>
      <trkpt lat="46.99051" lon="8.67391">
        <ele>553</ele>
        <time>2021-08-05T10:07:17.462Z</time>
      </trkpt>
      <trkpt lat="46.99051" lon="8.67393">
        <ele>553</ele>
        <time>2021-08-05T10:07:18.462Z</time>
      </trkpt>
      <trkpt lat="46.9905" lon="8.67395">
        <ele>553</ele>
        <time>2021-08-05T10:07:19.462Z</time>
      </trkpt>
      <trkpt lat="46.9905" lon="8.67397">
        <ele>554</ele>
        <time>2021-08-05T10:07:20.462Z</time>
      </trkpt>
      <trkpt lat="46.99049" lon="8.67398">
        <ele>554</ele>
        <time>2021-08-05T10:07:21.462Z</time>
      </trkpt>
      <trkpt lat="46.99049" lon="8.67399">
        <ele>553</ele>
        <time>2021-08-05T10:07:22.462Z</time>
      </trkpt>
      <trkpt lat="46.99048" lon="8.67402">
        <ele>553</ele>
        <time>2021-08-05T10:07:23.462Z</time>
      </trkpt>
      <trkpt lat="46.99048" lon="8.67403">
        <ele>552</ele>
        <time>2021-08-05T10:07:24.462Z</time>
      </trkpt>
      <trkpt lat="46.99048" lon="8.67405">
        <ele>552</ele>
        <time>2021-08-05T10:07:25.462Z</time>
      </trkpt>
      <trkpt lat="46.99047" lon="8.67406">
        <ele>551</ele>
        <time>2021-08-05T10:07:26.462Z</time>
      </trkpt>
      <trkpt lat="46.99048" lon="8.67408">
        <ele>551</ele>
        <time>2021-08-05T10:07:27.462Z</time>
      </trkpt>
      <trkpt lat="46.99047" lon="8.6741">
        <ele>550</ele>
        <time>2021-08-05T10:07:28.462Z</time>
      </trkpt>
      <trkpt lat="46.99048" lon="8.67412">
        <ele>550</ele>
        <time>2021-08-05T10:07:29.462Z</time>
      </trkpt>
      <trkpt lat="46.99047" lon="8.67413">
        <ele>550</ele>
        <time>2021-08-05T10:07:30.461Z</time>
      </trkpt>
      <trkpt lat="46.99047" lon="8.67415">
        <ele>550</ele>
        <time>2021-08-05T10:07:31.461Z</time>
      </trkpt>
      <trkpt lat="46.99047" lon="8.67417">
        <ele>550</ele>
        <time>2021-08-05T10:07:32.461Z</time>
      </trkpt>
      <trkpt lat="46.99047" lon="8.67418">
        <ele>550</ele>
        <time>2021-08-05T10:07:33.461Z</time>
      </trkpt>
      <trkpt lat="46.99048" lon="8.6742">
        <ele>550</ele>
        <time>2021-08-05T10:07:34.462Z</time>
      </trkpt>
      <trkpt lat="46.99048" lon="8.67421">
        <ele>551</ele>
        <time>2021-08-05T10:07:35.462Z</time>
      </trkpt>
      <trkpt lat="46.99047" lon="8.67423">
        <ele>551</ele>
        <time>2021-08-05T10:07:36.462Z</time>
      </trkpt>
      <trkpt lat="46.99047" lon="8.67425">
        <ele>551</ele>
        <time>2021-08-05T10:07:37.462Z</time>
      </trkpt>
      <trkpt lat="46.99047" lon="8.67426">
        <ele>551</ele>
        <time>2021-08-05T10:07:38.462Z</time>
      </trkpt>
      <trkpt lat="46.99047" lon="8.67428">
        <ele>551</ele>
        <time>2021-08-05T10:07:39.461Z</time>
      </trkpt>
      <trkpt lat="46.99047" lon="8.6743">
        <ele>551</ele>
        <time>2021-08-05T10:07:40.462Z</time>
      </trkpt>
      <trkpt lat="46.99047" lon="8.67431">
        <ele>551</ele>
        <time>2021-08-05T10:07:41.461Z</time>
      </trkpt>
      <trkpt lat="46.99046" lon="8.67433">
        <ele>550</ele>
        <time>2021-08-05T10:07:42.461Z</time>
      </trkpt>
      <trkpt lat="46.99045" lon="8.67435">
        <ele>550</ele>
        <time>2021-08-05T10:07:43.462Z</time>
      </trkpt>
      <trkpt lat="46.99045" lon="8.67436">
        <ele>551</ele>
        <time>2021-08-05T10:07:44.461Z</time>
      </trkpt>
      <trkpt lat="46.99044" lon="8.67437">
        <ele>551</ele>
        <time>2021-08-05T10:07:45.461Z</time>
      </trkpt>
      <trkpt lat="46.99043" lon="8.67439">
        <ele>551</ele>
        <time>2021-08-05T10:07:46.461Z</time>
      </trkpt>
      <trkpt lat="46.99043" lon="8.67441">
        <ele>552</ele>
        <time>2021-08-05T10:07:47.461Z</time>
      </trkpt>
      <trkpt lat="46.99043" lon="8.67442">
        <ele>552</ele>
        <time>2021-08-05T10:07:48.462Z</time>
      </trkpt>
      <trkpt lat="46.99043" lon="8.67443">
        <ele>552</ele>
        <time>2021-08-05T10:07:49.462Z</time>
      </trkpt>
      <trkpt lat="46.99042" lon="8.67445">
        <ele>552</ele>
        <time>2021-08-05T10:07:50.461Z</time>
      </trkpt>
      <trkpt lat="46.99041" lon="8.67447">
        <ele>553</ele>
        <time>2021-08-05T10:07:51.461Z</time>
      </trkpt>
      <trkpt lat="46.99041" lon="8.67448">
        <ele>553</ele>
        <time>2021-08-05T10:07:52.461Z</time>
      </trkpt>
      <trkpt lat="46.9904" lon="8.67449">
        <ele>553</ele>
        <time>2021-08-05T10:07:53.461Z</time>
      </trkpt>
      <trkpt lat="46.9904" lon="8.67451">
        <ele>554</ele>
        <time>2021-08-05T10:07:54.461Z</time>
      </trkpt>
      <trkpt lat="46.99039" lon="8.67452">
        <ele>554</ele>
        <time>2021-08-05T10:07:55.461Z</time>
      </trkpt>
      <trkpt lat="46.99038" lon="8.67452">
        <ele>555</ele>
        <time>2021-08-05T10:07:56.461Z</time>
      </trkpt>
      <trkpt lat="46.99037" lon="8.67453">
        <ele>555</ele>
        <time>2021-08-05T10:07:57.461Z</time>
      </trkpt>
      <trkpt lat="46.99037" lon="8.67454">
        <ele>555</ele>
        <time>2021-08-05T10:07:58.461Z</time>
      </trkpt>
      <trkpt lat="46.99037" lon="8.67455">
        <ele>555</ele>
        <time>2021-08-05T10:07:59.461Z</time>
      </trkpt>
      <trkpt lat="46.99036" lon="8.67457">
        <ele>555</ele>
        <time>2021-08-05T10:08:00.461Z</time>
      </trkpt>
      <trkpt lat="46.99036" lon="8.67458">
        <ele>555</ele>
        <time>2021-08-05T10:08:01.461Z</time>
      </trkpt>
      <trkpt lat="46.99036" lon="8.6746">
        <ele>556</ele>
        <time>2021-08-05T10:08:02.461Z</time>
      </trkpt>
      <trkpt lat="46.99035" lon="8.67461">
        <ele>556</ele>
        <time>2021-08-05T10:08:03.461Z</time>
      </trkpt>
      <trkpt lat="46.99035" lon="8.67462">
        <ele>556</ele>
        <time>2021-08-05T10:08:04.461Z</time>
      </trkpt>
      <trkpt lat="46.99033" lon="8.67463">
        <ele>555</ele>
        <time>2021-08-05T10:08:05.461Z</time>
      </trkpt>
      <trkpt lat="46.99033" lon="8.67465">
        <ele>554</ele>
        <time>2021-08-05T10:08:06.461Z</time>
      </trkpt>
      <trkpt lat="46.99033" lon="8.67466">
        <ele>554</ele>
        <time>2021-08-05T10:08:07.462Z</time>
      </trkpt>
      <trkpt lat="46.99033" lon="8.67467">
        <ele>553</ele>
        <time>2021-08-05T10:08:08.462Z</time>
      </trkpt>
      <trkpt lat="46.99034" lon="8.67468">
        <ele>553</ele>
        <time>2021-08-05T10:08:09.461Z</time>
      </trkpt>
      <trkpt lat="46.99033" lon="8.6747">
        <ele>554</ele>
        <time>2021-08-05T10:08:10.462Z</time>
      </trkpt>
      <trkpt lat="46.99033" lon="8.67471">
        <ele>554</ele>
        <time>2021-08-05T10:08:11.461Z</time>
      </trkpt>
      <trkpt lat="46.99033" lon="8.67473">
        <ele>554</ele>
        <time>2021-08-05T10:08:12.461Z</time>
      </trkpt>
      <trkpt lat="46.99032" lon="8.67474">
        <ele>555</ele>
        <time>2021-08-05T10:08:13.462Z</time>
      </trkpt>
      <trkpt lat="46.99031" lon="8.67476">
        <ele>555</ele>
        <time>2021-08-05T10:08:14.462Z</time>
      </trkpt>
      <trkpt lat="46.99031" lon="8.67478">
        <ele>555</ele>
        <time>2021-08-05T10:08:15.461Z</time>
      </trkpt>
      <trkpt lat="46.99032" lon="8.6748">
        <ele>555</ele>
        <time>2021-08-05T10:08:16.462Z</time>
      </trkpt>
      <trkpt lat="46.99032" lon="8.67482">
        <ele>556</ele>
        <time>2021-08-05T10:08:17.462Z</time>
      </trkpt>
      <trkpt lat="46.99032" lon="8.67484">
        <ele>556</ele>
        <time>2021-08-05T10:08:18.462Z</time>
      </trkpt>
      <trkpt lat="46.99031" lon="8.67486">
        <ele>556</ele>
        <time>2021-08-05T10:08:19.461Z</time>
      </trkpt>
      <trkpt lat="46.9903" lon="8.67487">
        <ele>556</ele>
        <time>2021-08-05T10:08:20.462Z</time>
      </trkpt>
      <trkpt lat="46.99029" lon="8.67489">
        <ele>556</ele>
        <time>2021-08-05T10:08:21.462Z</time>
      </trkpt>
      <trkpt lat="46.99028" lon="8.6749">
        <ele>556</ele>
        <time>2021-08-05T10:08:22.461Z</time>
      </trkpt>
      <trkpt lat="46.99028" lon="8.67492">
        <ele>556</ele>
        <time>2021-08-05T10:08:23.462Z</time>
      </trkpt>
      <trkpt lat="46.99028" lon="8.67494">
        <ele>557</ele>
        <time>2021-08-05T10:08:24.461Z</time>
      </trkpt>
      <trkpt lat="46.99028" lon="8.67496">
        <ele>557</ele>
        <time>2021-08-05T10:08:25.461Z</time>
      </trkpt>
      <trkpt lat="46.99028" lon="8.67498">
        <ele>557</ele>
        <time>2021-08-05T10:08:26.462Z</time>
      </trkpt>
      <trkpt lat="46.99027" lon="8.67499">
        <ele>557</ele>
        <time>2021-08-05T10:08:27.462Z</time>
      </trkpt>
      <trkpt lat="46.99028" lon="8.67501">
        <ele>558</ele>
        <time>2021-08-05T10:08:28.462Z</time>
      </trkpt>
      <trkpt lat="46.99028" lon="8.67502">
        <ele>558</ele>
        <time>2021-08-05T10:08:29.461Z</time>
      </trkpt>
      <trkpt lat="46.99028" lon="8.67503">
        <ele>558</ele>
        <time>2021-08-05T10:08:30.461Z</time>
      </trkpt>
      <trkpt lat="46.99029" lon="8.67505">
        <ele>559</ele>
        <time>2021-08-05T10:08:31.461Z</time>
      </trkpt>
      <trkpt lat="46.99028" lon="8.67507">
        <ele>559</ele>
        <time>2021-08-05T10:08:32.462Z</time>
      </trkpt>
      <trkpt lat="46.99028" lon="8.67509">
        <ele>560</ele>
        <time>2021-08-05T10:08:33.462Z</time>
      </trkpt>
      <trkpt lat="46.99028" lon="8.67511">
        <ele>561</ele>
        <time>2021-08-05T10:08:34.461Z</time>
      </trkpt>
      <trkpt lat="46.99027" lon="8.67512">
        <ele>561</ele>
        <time>2021-08-05T10:08:35.461Z</time>
      </trkpt>
      <trkpt lat="46.99027" lon="8.67514">
        <ele>562</ele>
        <time>2021-08-05T10:08:36.462Z</time>
      </trkpt>
      <trkpt lat="46.99027" lon="8.67516">
        <ele>562</ele>
        <time>2021-08-05T10:08:37.461Z</time>
      </trkpt>
      <trkpt lat="46.99026" lon="8.67518">
        <ele>562</ele>
        <time>2021-08-05T10:08:38.462Z</time>
      </trkpt>
      <trkpt lat="46.99025" lon="8.67519">
        <ele>561</ele>
        <time>2021-08-05T10:08:39.462Z</time>
      </trkpt>
      <trkpt lat="46.99024" lon="8.67521">
        <ele>561</ele>
        <time>2021-08-05T10:08:40.462Z</time>
      </trkpt>
      <trkpt lat="46.99024" lon="8.67522">
        <ele>562</ele>
        <time>2021-08-05T10:08:41.462Z</time>
      </trkpt>
      <trkpt lat="46.99025" lon="8.67523">
        <ele>562</ele>
        <time>2021-08-05T10:08:42.462Z</time>
      </trkpt>
      <trkpt lat="46.99025" lon="8.67525">
        <ele>562</ele>
        <time>2021-08-05T10:08:43.462Z</time>
      </trkpt>
      <trkpt lat="46.99026" lon="8.67526">
        <ele>563</ele>
        <time>2021-08-05T10:08:44.462Z</time>
      </trkpt>
      <trkpt lat="46.99026" lon="8.67528">
        <ele>563</ele>
        <time>2021-08-05T10:08:45.462Z</time>
      </trkpt>
      <trkpt lat="46.99025" lon="8.6753">
        <ele>563</ele>
        <time>2021-08-05T10:08:46.461Z</time>
      </trkpt>
      <trkpt lat="46.99024" lon="8.67531">
        <ele>563</ele>
        <time>2021-08-05T10:08:47.462Z</time>
      </trkpt>
      <trkpt lat="46.99024" lon="8.67532">
        <ele>563</ele>
        <time>2021-08-05T10:08:48.462Z</time>
      </trkpt>
      <trkpt lat="46.99024" lon="8.67533">
        <ele>563</ele>
        <time>2021-08-05T10:08:49.462Z</time>
      </trkpt>
      <trkpt lat="46.99024" lon="8.67535">
        <ele>563</ele>
        <time>2021-08-05T10:08:50.462Z</time>
      </trkpt>
      <trkpt lat="46.99023" lon="8.67536">
        <ele>563</ele>
        <time>2021-08-05T10:08:51.461Z</time>
      </trkpt>
      <trkpt lat="46.99023" lon="8.67537">
        <ele>562</ele>
        <time>2021-08-05T10:08:52.462Z</time>
      </trkpt>
      <trkpt lat="46.99023" lon="8.67538">
        <ele>562</ele>
        <time>2021-08-05T10:08:53.461Z</time>
      </trkpt>
      <trkpt lat="46.99023" lon="8.67539">
        <ele>562</ele>
        <time>2021-08-05T10:08:54.462Z</time>
      </trkpt>
      <trkpt lat="46.99023" lon="8.67541">
        <ele>561</ele>
        <time>2021-08-05T10:08:55.462Z</time>
      </trkpt>
      <trkpt lat="46.99022" lon="8.67543">
        <ele>561</ele>
        <time>2021-08-05T10:08:56.462Z</time>
      </trkpt>
      <trkpt lat="46.99022" lon="8.67544">
        <ele>560</ele>
        <time>2021-08-05T10:08:57.461Z</time>
      </trkpt>
      <trkpt lat="46.99022" lon="8.67545">
        <ele>560</ele>
        <time>2021-08-05T10:08:58.462Z</time>
      </trkpt>
      <trkpt lat="46.99022" lon="8.67547">
        <ele>560</ele>
        <time>2021-08-05T10:08:59.462Z</time>
      </trkpt>
      <trkpt lat="46.99022" lon="8.67549">
        <ele>560</ele>
        <time>2021-08-05T10:09:00.461Z</time>
      </trkpt>
      <trkpt lat="46.99022" lon="8.67551">
        <ele>560</ele>
        <time>2021-08-05T10:09:01.462Z</time>
      </trkpt>
      <trkpt lat="46.99021" lon="8.67554">
        <ele>560</ele>
        <time>2021-08-05T10:09:02.461Z</time>
      </trkpt>
      <trkpt lat="46.99021" lon="8.67555">
        <ele>560</ele>
        <time>2021-08-05T10:09:03.462Z</time>
      </trkpt>
      <trkpt lat="46.99021" lon="8.67555">
        <ele>560</ele>
        <time>2021-08-05T10:09:04.462Z</time>
      </trkpt>
      <trkpt lat="46.99023" lon="8.67555">
        <ele>560</ele>
        <time>2021-08-05T10:09:05.461Z</time>
      </trkpt>
      <trkpt lat="46.99027" lon="8.67555">
        <ele>561</ele>
        <time>2021-08-05T10:09:06.463Z</time>
      </trkpt>
      <trkpt lat="46.99026" lon="8.67556">
        <ele>561</ele>
        <time>2021-08-05T10:09:07.463Z</time>
      </trkpt>
      <trkpt lat="46.99026" lon="8.67558">
        <ele>561</ele>
        <time>2021-08-05T10:09:08.463Z</time>
      </trkpt>
      <trkpt lat="46.99026" lon="8.67559">
        <ele>561</ele>
        <time>2021-08-05T10:09:09.463Z</time>
      </trkpt>
      <trkpt lat="46.99025" lon="8.6756">
        <ele>561</ele>
        <time>2021-08-05T10:09:10.462Z</time>
      </trkpt>
      <trkpt lat="46.99025" lon="8.67561">
        <ele>561</ele>
        <time>2021-08-05T10:09:11.463Z</time>
      </trkpt>
      <trkpt lat="46.99025" lon="8.67562">
        <ele>561</ele>
        <time>2021-08-05T10:09:12.463Z</time>
      </trkpt>
      <trkpt lat="46.99024" lon="8.67563">
        <ele>561</ele>
        <time>2021-08-05T10:09:13.463Z</time>
      </trkpt>
      <trkpt lat="46.99024" lon="8.67565">
        <ele>561</ele>
        <time>2021-08-05T10:09:14.462Z</time>
      </trkpt>
      <trkpt lat="46.99024" lon="8.67567">
        <ele>560</ele>
        <time>2021-08-05T10:09:15.462Z</time>
      </trkpt>
      <trkpt lat="46.99023" lon="8.67568">
        <ele>560</ele>
        <time>2021-08-05T10:09:16.462Z</time>
      </trkpt>
      <trkpt lat="46.99023" lon="8.6757">
        <ele>559</ele>
        <time>2021-08-05T10:09:17.463Z</time>
      </trkpt>
      <trkpt lat="46.99023" lon="8.67572">
        <ele>559</ele>
        <time>2021-08-05T10:09:18.463Z</time>
      </trkpt>
      <trkpt lat="46.99023" lon="8.67574">
        <ele>559</ele>
        <time>2021-08-05T10:09:19.462Z</time>
      </trkpt>
      <trkpt lat="46.99023" lon="8.67575">
        <ele>559</ele>
        <time>2021-08-05T10:09:20.462Z</time>
      </trkpt>
      <trkpt lat="46.99022" lon="8.67578">
        <ele>559</ele>
        <time>2021-08-05T10:09:21.462Z</time>
      </trkpt>
      <trkpt lat="46.99022" lon="8.67579">
        <ele>558</ele>
        <time>2021-08-05T10:09:22.463Z</time>
      </trkpt>
      <trkpt lat="46.99021" lon="8.6758">
        <ele>558</ele>
        <time>2021-08-05T10:09:23.463Z</time>
      </trkpt>
      <trkpt lat="46.99021" lon="8.67583">
        <ele>558</ele>
        <time>2021-08-05T10:09:24.463Z</time>
      </trkpt>
      <trkpt lat="46.9902" lon="8.67584">
        <ele>558</ele>
        <time>2021-08-05T10:09:25.463Z</time>
      </trkpt>
      <trkpt lat="46.9902" lon="8.67586">
        <ele>558</ele>
        <time>2021-08-05T10:09:26.463Z</time>
      </trkpt>
      <trkpt lat="46.9902" lon="8.67587">
        <ele>558</ele>
        <time>2021-08-05T10:09:27.463Z</time>
      </trkpt>
      <trkpt lat="46.99021" lon="8.67589">
        <ele>558</ele>
        <time>2021-08-05T10:09:28.462Z</time>
      </trkpt>
      <trkpt lat="46.99021" lon="8.6759">
        <ele>557</ele>
        <time>2021-08-05T10:09:29.463Z</time>
      </trkpt>
      <trkpt lat="46.99021" lon="8.67592">
        <ele>557</ele>
        <time>2021-08-05T10:09:30.463Z</time>
      </trkpt>
      <trkpt lat="46.99021" lon="8.67593">
        <ele>557</ele>
        <time>2021-08-05T10:09:31.463Z</time>
      </trkpt>
      <trkpt lat="46.99021" lon="8.67594">
        <ele>556</ele>
        <time>2021-08-05T10:09:32.463Z</time>
      </trkpt>
      <trkpt lat="46.99021" lon="8.67596">
        <ele>556</ele>
        <time>2021-08-05T10:09:33.462Z</time>
      </trkpt>
      <trkpt lat="46.9902" lon="8.67597">
        <ele>556</ele>
        <time>2021-08-05T10:09:34.463Z</time>
      </trkpt>
      <trkpt lat="46.9902" lon="8.67598">
        <ele>555</ele>
        <time>2021-08-05T10:09:35.463Z</time>
      </trkpt>
      <trkpt lat="46.9902" lon="8.67599">
        <ele>555</ele>
        <time>2021-08-05T10:09:36.463Z</time>
      </trkpt>
      <trkpt lat="46.9902" lon="8.676">
        <ele>555</ele>
        <time>2021-08-05T10:09:37.462Z</time>
      </trkpt>
      <trkpt lat="46.99019" lon="8.67602">
        <ele>554</ele>
        <time>2021-08-05T10:09:38.462Z</time>
      </trkpt>
      <trkpt lat="46.99019" lon="8.67603">
        <ele>554</ele>
        <time>2021-08-05T10:09:39.462Z</time>
      </trkpt>
      <trkpt lat="46.99019" lon="8.67604">
        <ele>554</ele>
        <time>2021-08-05T10:09:40.463Z</time>
      </trkpt>
      <trkpt lat="46.99018" lon="8.67606">
        <ele>554</ele>
        <time>2021-08-05T10:09:41.463Z</time>
      </trkpt>
      <trkpt lat="46.99017" lon="8.67607">
        <ele>554</ele>
        <time>2021-08-05T10:09:42.463Z</time>
      </trkpt>
      <trkpt lat="46.99017" lon="8.6761">
        <ele>554</ele>
        <time>2021-08-05T10:09:43.463Z</time>
      </trkpt>
      <trkpt lat="46.99016" lon="8.67611">
        <ele>554</ele>
        <time>2021-08-05T10:09:44.463Z</time>
      </trkpt>
      <trkpt lat="46.99016" lon="8.67613">
        <ele>554</ele>
        <time>2021-08-05T10:09:45.463Z</time>
      </trkpt>
      <trkpt lat="46.99016" lon="8.67615">
        <ele>554</ele>
        <time>2021-08-05T10:09:46.463Z</time>
      </trkpt>
      <trkpt lat="46.99016" lon="8.67617">
        <ele>555</ele>
        <time>2021-08-05T10:09:47.463Z</time>
      </trkpt>
      <trkpt lat="46.99016" lon="8.67618">
        <ele>555</ele>
        <time>2021-08-05T10:09:48.463Z</time>
      </trkpt>
      <trkpt lat="46.99015" lon="8.67621">
        <ele>555</ele>
        <time>2021-08-05T10:09:49.463Z</time>
      </trkpt>
      <trkpt lat="46.99014" lon="8.67623">
        <ele>554</ele>
        <time>2021-08-05T10:09:50.462Z</time>
      </trkpt>
      <trkpt lat="46.99014" lon="8.67625">
        <ele>554</ele>
        <time>2021-08-05T10:09:51.463Z</time>
      </trkpt>
      <trkpt lat="46.99013" lon="8.67627">
        <ele>553</ele>
        <time>2021-08-05T10:09:52.463Z</time>
      </trkpt>
      <trkpt lat="46.99012" lon="8.67629">
        <ele>553</ele>
        <time>2021-08-05T10:09:53.463Z</time>
      </trkpt>
      <trkpt lat="46.99013" lon="8.6763">
        <ele>553</ele>
        <time>2021-08-05T10:09:54.462Z</time>
      </trkpt>
      <trkpt lat="46.99014" lon="8.67631">
        <ele>553</ele>
        <time>2021-08-05T10:09:55.463Z</time>
      </trkpt>
      <trkpt lat="46.99015" lon="8.67632">
        <ele>553</ele>
        <time>2021-08-05T10:09:56.463Z</time>
      </trkpt>
      <trkpt lat="46.99015" lon="8.67634">
        <ele>553</ele>
        <time>2021-08-05T10:09:57.462Z</time>
      </trkpt>
      <trkpt lat="46.99015" lon="8.67635">
        <ele>553</ele>
        <time>2021-08-05T10:09:58.462Z</time>
      </trkpt>
      <trkpt lat="46.99015" lon="8.67637">
        <ele>553</ele>
        <time>2021-08-05T10:09:59.463Z</time>
      </trkpt>
      <trkpt lat="46.99015" lon="8.67638">
        <ele>553</ele>
        <time>2021-08-05T10:10:00.463Z</time>
      </trkpt>
      <trkpt lat="46.99015" lon="8.67639">
        <ele>553</ele>
        <time>2021-08-05T10:10:01.463Z</time>
      </trkpt>
      <trkpt lat="46.99014" lon="8.6764">
        <ele>553</ele>
        <time>2021-08-05T10:10:02.463Z</time>
      </trkpt>
      <trkpt lat="46.99014" lon="8.67642">
        <ele>553</ele>
        <time>2021-08-05T10:10:03.463Z</time>
      </trkpt>
      <trkpt lat="46.99014" lon="8.67643">
        <ele>553</ele>
        <time>2021-08-05T10:10:04.463Z</time>
      </trkpt>
      <trkpt lat="46.99013" lon="8.67644">
        <ele>554</ele>
        <time>2021-08-05T10:10:05.463Z</time>
      </trkpt>
      <trkpt lat="46.99013" lon="8.67646">
        <ele>554</ele>
        <time>2021-08-05T10:10:06.463Z</time>
      </trkpt>
      <trkpt lat="46.99013" lon="8.67647">
        <ele>554</ele>
        <time>2021-08-05T10:10:07.462Z</time>
      </trkpt>
      <trkpt lat="46.99012" lon="8.67649">
        <ele>554</ele>
        <time>2021-08-05T10:10:08.462Z</time>
      </trkpt>
      <trkpt lat="46.99011" lon="8.67651">
        <ele>554</ele>
        <time>2021-08-05T10:10:09.463Z</time>
      </trkpt>
      <trkpt lat="46.9901" lon="8.67653">
        <ele>554</ele>
        <time>2021-08-05T10:10:10.462Z</time>
      </trkpt>
      <trkpt lat="46.9901" lon="8.67655">
        <ele>554</ele>
        <time>2021-08-05T10:10:11.463Z</time>
      </trkpt>
      <trkpt lat="46.99009" lon="8.67657">
        <ele>554</ele>
        <time>2021-08-05T10:10:12.463Z</time>
      </trkpt>
      <trkpt lat="46.99008" lon="8.6766">
        <ele>554</ele>
        <time>2021-08-05T10:10:13.463Z</time>
      </trkpt>
      <trkpt lat="46.99007" lon="8.67661">
        <ele>554</ele>
        <time>2021-08-05T10:10:14.462Z</time>
      </trkpt>
      <trkpt lat="46.99007" lon="8.67663">
        <ele>555</ele>
        <time>2021-08-05T10:10:15.463Z</time>
      </trkpt>
      <trkpt lat="46.99006" lon="8.67665">
        <ele>555</ele>
        <time>2021-08-05T10:10:16.462Z</time>
      </trkpt>
      <trkpt lat="46.99006" lon="8.67667">
        <ele>555</ele>
        <time>2021-08-05T10:10:17.462Z</time>
      </trkpt>
      <trkpt lat="46.99006" lon="8.67668">
        <ele>555</ele>
        <time>2021-08-05T10:10:18.462Z</time>
      </trkpt>
      <trkpt lat="46.99006" lon="8.67669">
        <ele>555</ele>
        <time>2021-08-05T10:10:19.462Z</time>
      </trkpt>
      <trkpt lat="46.99005" lon="8.6767">
        <ele>555</ele>
        <time>2021-08-05T10:10:20.463Z</time>
      </trkpt>
      <trkpt lat="46.99004" lon="8.67672">
        <ele>555</ele>
        <time>2021-08-05T10:10:21.462Z</time>
      </trkpt>
      <trkpt lat="46.99003" lon="8.67673">
        <ele>555</ele>
        <time>2021-08-05T10:10:22.462Z</time>
      </trkpt>
      <trkpt lat="46.99004" lon="8.67675">
        <ele>556</ele>
        <time>2021-08-05T10:10:23.462Z</time>
      </trkpt>
      <trkpt lat="46.99004" lon="8.67676">
        <ele>556</ele>
        <time>2021-08-05T10:10:24.463Z</time>
      </trkpt>
      <trkpt lat="46.99003" lon="8.67678">
        <ele>556</ele>
        <time>2021-08-05T10:10:25.462Z</time>
      </trkpt>
      <trkpt lat="46.99004" lon="8.67679">
        <ele>557</ele>
        <time>2021-08-05T10:10:26.462Z</time>
      </trkpt>
      <trkpt lat="46.99004" lon="8.67682">
        <ele>557</ele>
        <time>2021-08-05T10:10:27.462Z</time>
      </trkpt>
      <trkpt lat="46.99004" lon="8.67683">
        <ele>557</ele>
        <time>2021-08-05T10:10:28.462Z</time>
      </trkpt>
      <trkpt lat="46.99005" lon="8.67685">
        <ele>557</ele>
        <time>2021-08-05T10:10:29.463Z</time>
      </trkpt>
      <trkpt lat="46.99005" lon="8.67686">
        <ele>557</ele>
        <time>2021-08-05T10:10:30.462Z</time>
      </trkpt>
      <trkpt lat="46.99005" lon="8.67689">
        <ele>557</ele>
        <time>2021-08-05T10:10:31.462Z</time>
      </trkpt>
      <trkpt lat="46.99004" lon="8.67691">
        <ele>558</ele>
        <time>2021-08-05T10:10:32.462Z</time>
      </trkpt>
      <trkpt lat="46.99003" lon="8.67693">
        <ele>558</ele>
        <time>2021-08-05T10:10:33.462Z</time>
      </trkpt>
      <trkpt lat="46.99002" lon="8.67693">
        <ele>558</ele>
        <time>2021-08-05T10:10:34.462Z</time>
      </trkpt>
      <trkpt lat="46.99001" lon="8.67693">
        <ele>558</ele>
        <time>2021-08-05T10:10:35.462Z</time>
      </trkpt>
      <trkpt lat="46.99001" lon="8.67693">
        <ele>558</ele>
        <time>2021-08-05T10:10:36.463Z</time>
      </trkpt>
      <trkpt lat="46.99001" lon="8.67694">
        <ele>558</ele>
        <time>2021-08-05T10:10:37.463Z</time>
      </trkpt>
      <trkpt lat="46.99001" lon="8.67694">
        <ele>558</ele>
        <time>2021-08-05T10:10:38.462Z</time>
      </trkpt>
      <trkpt lat="46.99002" lon="8.67695">
        <ele>558</ele>
        <time>2021-08-05T10:10:39.462Z</time>
      </trkpt>
      <trkpt lat="46.99003" lon="8.67695">
        <ele>559</ele>
        <time>2021-08-05T10:10:40.463Z</time>
      </trkpt>
      <trkpt lat="46.99004" lon="8.67696">
        <ele>560</ele>
        <time>2021-08-05T10:10:41.462Z</time>
      </trkpt>
      <trkpt lat="46.99004" lon="8.67697">
        <ele>560</ele>
        <time>2021-08-05T10:10:42.463Z</time>
      </trkpt>
      <trkpt lat="46.99004" lon="8.67698">
        <ele>561</ele>
        <time>2021-08-05T10:10:43.462Z</time>
      </trkpt>
      <trkpt lat="46.99004" lon="8.67699">
        <ele>561</ele>
        <time>2021-08-05T10:10:44.463Z</time>
      </trkpt>
      <trkpt lat="46.99004" lon="8.677">
        <ele>561</ele>
        <time>2021-08-05T10:10:45.462Z</time>
      </trkpt>
      <trkpt lat="46.99004" lon="8.67701">
        <ele>562</ele>
        <time>2021-08-05T10:10:46.463Z</time>
      </trkpt>
      <trkpt lat="46.99003" lon="8.67702">
        <ele>562</ele>
        <time>2021-08-05T10:10:47.463Z</time>
      </trkpt>
      <trkpt lat="46.99003" lon="8.67703">
        <ele>562</ele>
        <time>2021-08-05T10:10:48.463Z</time>
      </trkpt>
      <trkpt lat="46.99004" lon="8.67705">
        <ele>563</ele>
        <time>2021-08-05T10:10:49.463Z</time>
      </trkpt>
      <trkpt lat="46.99004" lon="8.67707">
        <ele>563</ele>
        <time>2021-08-05T10:10:50.463Z</time>
      </trkpt>
      <trkpt lat="46.99004" lon="8.67709">
        <ele>563</ele>
        <time>2021-08-05T10:10:51.463Z</time>
      </trkpt>
      <trkpt lat="46.99004" lon="8.6771">
        <ele>563</ele>
        <time>2021-08-05T10:10:52.463Z</time>
      </trkpt>
      <trkpt lat="46.99004" lon="8.67712">
        <ele>564</ele>
        <time>2021-08-05T10:10:53.463Z</time>
      </trkpt>
      <trkpt lat="46.99005" lon="8.67714">
        <ele>564</ele>
        <time>2021-08-05T10:10:54.463Z</time>
      </trkpt>
      <trkpt lat="46.99005" lon="8.67716">
        <ele>564</ele>
        <time>2021-08-05T10:10:55.463Z</time>
      </trkpt>
      <trkpt lat="46.99005" lon="8.67718">
        <ele>564</ele>
        <time>2021-08-05T10:10:56.463Z</time>
      </trkpt>
      <trkpt lat="46.99005" lon="8.67719">
        <ele>564</ele>
        <time>2021-08-05T10:10:57.462Z</time>
      </trkpt>
      <trkpt lat="46.99005" lon="8.67722">
        <ele>563</ele>
        <time>2021-08-05T10:10:58.463Z</time>
      </trkpt>
      <trkpt lat="46.99004" lon="8.67725">
        <ele>563</ele>
        <time>2021-08-05T10:10:59.463Z</time>
      </trkpt>
      <trkpt lat="46.99005" lon="8.67726">
        <ele>563</ele>
        <time>2021-08-05T10:11:00.462Z</time>
      </trkpt>
      <trkpt lat="46.99004" lon="8.67728">
        <ele>563</ele>
        <time>2021-08-05T10:11:01.463Z</time>
      </trkpt>
      <trkpt lat="46.99004" lon="8.67732">
        <ele>563</ele>
        <time>2021-08-05T10:11:02.463Z</time>
      </trkpt>
      <trkpt lat="46.99004" lon="8.67734">
        <ele>563</ele>
        <time>2021-08-05T10:11:03.462Z</time>
      </trkpt>
      <trkpt lat="46.99003" lon="8.67738">
        <ele>563</ele>
        <time>2021-08-05T10:11:04.462Z</time>
      </trkpt>
      <trkpt lat="46.99003" lon="8.6774">
        <ele>563</ele>
        <time>2021-08-05T10:11:05.463Z</time>
      </trkpt>
      <trkpt lat="46.99003" lon="8.67741">
        <ele>563</ele>
        <time>2021-08-05T10:11:06.463Z</time>
      </trkpt>
      <trkpt lat="46.99002" lon="8.67744">
        <ele>562</ele>
        <time>2021-08-05T10:11:07.463Z</time>
      </trkpt>
      <trkpt lat="46.99002" lon="8.67745">
        <ele>562</ele>
        <time>2021-08-05T10:11:08.463Z</time>
      </trkpt>
      <trkpt lat="46.99002" lon="8.67746">
        <ele>561</ele>
        <time>2021-08-05T10:11:09.463Z</time>
      </trkpt>
      <trkpt lat="46.99002" lon="8.67748">
        <ele>561</ele>
        <time>2021-08-05T10:11:10.463Z</time>
      </trkpt>
      <trkpt lat="46.99002" lon="8.6775">
        <ele>560</ele>
        <time>2021-08-05T10:11:11.463Z</time>
      </trkpt>
      <trkpt lat="46.99001" lon="8.67754">
        <ele>560</ele>
        <time>2021-08-05T10:11:12.463Z</time>
      </trkpt>
      <trkpt lat="46.99001" lon="8.67758">
        <ele>559</ele>
        <time>2021-08-05T10:11:13.462Z</time>
      </trkpt>
      <trkpt lat="46.99001" lon="8.67759">
        <ele>559</ele>
        <time>2021-08-05T10:11:14.463Z</time>
      </trkpt>
      <trkpt lat="46.99001" lon="8.6776">
        <ele>559</ele>
        <time>2021-08-05T10:11:15.463Z</time>
      </trkpt>
      <trkpt lat="46.99001" lon="8.67762">
        <ele>559</ele>
        <time>2021-08-05T10:11:16.462Z</time>
      </trkpt>
      <trkpt lat="46.99" lon="8.67764">
        <ele>559</ele>
        <time>2021-08-05T10:11:17.463Z</time>
      </trkpt>
      <trkpt lat="46.99" lon="8.67766">
        <ele>559</ele>
        <time>2021-08-05T10:11:18.462Z</time>
      </trkpt>
      <trkpt lat="46.99" lon="8.67766">
        <ele>559</ele>
        <time>2021-08-05T10:11:19.462Z</time>
      </trkpt>
      <trkpt lat="46.99" lon="8.67768">
        <ele>559</ele>
        <time>2021-08-05T10:11:20.463Z</time>
      </trkpt>
      <trkpt lat="46.99001" lon="8.67769">
        <ele>559</ele>
        <time>2021-08-05T10:11:21.463Z</time>
      </trkpt>
      <trkpt lat="46.99001" lon="8.67771">
        <ele>560</ele>
        <time>2021-08-05T10:11:22.463Z</time>
      </trkpt>
      <trkpt lat="46.99001" lon="8.67773">
        <ele>560</ele>
        <time>2021-08-05T10:11:23.462Z</time>
      </trkpt>
      <trkpt lat="46.99001" lon="8.67774">
        <ele>560</ele>
        <time>2021-08-05T10:11:24.463Z</time>
      </trkpt>
      <trkpt lat="46.99001" lon="8.67776">
        <ele>561</ele>
        <time>2021-08-05T10:11:25.463Z</time>
      </trkpt>
      <trkpt lat="46.99001" lon="8.67779">
        <ele>561</ele>
        <time>2021-08-05T10:11:26.463Z</time>
      </trkpt>
      <trkpt lat="46.99" lon="8.67781">
        <ele>561</ele>
        <time>2021-08-05T10:11:27.463Z</time>
      </trkpt>
      <trkpt lat="46.99" lon="8.67783">
        <ele>560</ele>
        <time>2021-08-05T10:11:28.463Z</time>
      </trkpt>
      <trkpt lat="46.99" lon="8.67785">
        <ele>560</ele>
        <time>2021-08-05T10:11:29.463Z</time>
      </trkpt>
      <trkpt lat="46.99" lon="8.67787">
        <ele>560</ele>
        <time>2021-08-05T10:11:30.463Z</time>
      </trkpt>
      <trkpt lat="46.99" lon="8.6779">
        <ele>560</ele>
        <time>2021-08-05T10:11:31.463Z</time>
      </trkpt>
      <trkpt lat="46.99" lon="8.67792">
        <ele>560</ele>
        <time>2021-08-05T10:11:32.463Z</time>
      </trkpt>
      <trkpt lat="46.99" lon="8.67794">
        <ele>560</ele>
        <time>2021-08-05T10:11:33.463Z</time>
      </trkpt>
      <trkpt lat="46.99" lon="8.67796">
        <ele>560</ele>
        <time>2021-08-05T10:11:34.463Z</time>
      </trkpt>
      <trkpt lat="46.99001" lon="8.67797">
        <ele>560</ele>
        <time>2021-08-05T10:11:35.463Z</time>
      </trkpt>
      <trkpt lat="46.99" lon="8.67798">
        <ele>560</ele>
        <time>2021-08-05T10:11:36.463Z</time>
      </trkpt>
      <trkpt lat="46.99" lon="8.678">
        <ele>560</ele>
        <time>2021-08-05T10:11:37.463Z</time>
      </trkpt>
      <trkpt lat="46.99001" lon="8.67802">
        <ele>560</ele>
        <time>2021-08-05T10:11:38.463Z</time>
      </trkpt>
      <trkpt lat="46.99001" lon="8.67805">
        <ele>560</ele>
        <time>2021-08-05T10:11:39.463Z</time>
      </trkpt>
      <trkpt lat="46.99001" lon="8.67807">
        <ele>560</ele>
        <time>2021-08-05T10:11:40.462Z</time>
      </trkpt>
      <trkpt lat="46.99002" lon="8.67808">
        <ele>560</ele>
        <time>2021-08-05T10:11:41.462Z</time>
      </trkpt>
      <trkpt lat="46.99002" lon="8.67809">
        <ele>560</ele>
        <time>2021-08-05T10:11:42.462Z</time>
      </trkpt>
      <trkpt lat="46.99003" lon="8.6781">
        <ele>559</ele>
        <time>2021-08-05T10:11:43.463Z</time>
      </trkpt>
      <trkpt lat="46.99002" lon="8.67813">
        <ele>559</ele>
        <time>2021-08-05T10:11:44.462Z</time>
      </trkpt>
      <trkpt lat="46.99002" lon="8.67813">
        <ele>559</ele>
        <time>2021-08-05T10:11:45.462Z</time>
      </trkpt>
      <trkpt lat="46.99002" lon="8.67814">
        <ele>559</ele>
        <time>2021-08-05T10:11:46.463Z</time>
      </trkpt>
      <trkpt lat="46.99002" lon="8.67816">
        <ele>559</ele>
        <time>2021-08-05T10:11:47.462Z</time>
      </trkpt>
      <trkpt lat="46.99002" lon="8.67818">
        <ele>559</ele>
        <time>2021-08-05T10:11:48.462Z</time>
      </trkpt>
      <trkpt lat="46.99003" lon="8.6782">
        <ele>559</ele>
        <time>2021-08-05T10:11:49.462Z</time>
      </trkpt>
      <trkpt lat="46.99003" lon="8.67821">
        <ele>559</ele>
        <time>2021-08-05T10:11:50.463Z</time>
      </trkpt>
      <trkpt lat="46.99002" lon="8.67823">
        <ele>559</ele>
        <time>2021-08-05T10:11:51.463Z</time>
      </trkpt>
      <trkpt lat="46.99002" lon="8.67824">
        <ele>560</ele>
        <time>2021-08-05T10:11:52.463Z</time>
      </trkpt>
      <trkpt lat="46.99002" lon="8.67827">
        <ele>560</ele>
        <time>2021-08-05T10:11:53.463Z</time>
      </trkpt>
      <trkpt lat="46.99002" lon="8.67829">
        <ele>560</ele>
        <time>2021-08-05T10:11:54.463Z</time>
      </trkpt>
      <trkpt lat="46.99002" lon="8.6783">
        <ele>560</ele>
        <time>2021-08-05T10:11:55.463Z</time>
      </trkpt>
      <trkpt lat="46.99003" lon="8.67832">
        <ele>561</ele>
        <time>2021-08-05T10:11:56.463Z</time>
      </trkpt>
      <trkpt lat="46.99003" lon="8.67833">
        <ele>561</ele>
        <time>2021-08-05T10:11:57.463Z</time>
      </trkpt>
      <trkpt lat="46.99003" lon="8.67835">
        <ele>561</ele>
        <time>2021-08-05T10:11:58.463Z</time>
      </trkpt>
      <trkpt lat="46.99003" lon="8.67837">
        <ele>561</ele>
        <time>2021-08-05T10:11:59.463Z</time>
      </trkpt>
      <trkpt lat="46.99003" lon="8.67839">
        <ele>560</ele>
        <time>2021-08-05T10:12:00.463Z</time>
      </trkpt>
      <trkpt lat="46.99002" lon="8.67841">
        <ele>559</ele>
        <time>2021-08-05T10:12:01.463Z</time>
      </trkpt>
      <trkpt lat="46.99002" lon="8.67843">
        <ele>559</ele>
        <time>2021-08-05T10:12:02.463Z</time>
      </trkpt>
      <trkpt lat="46.99002" lon="8.67845">
        <ele>558</ele>
        <time>2021-08-05T10:12:03.463Z</time>
      </trkpt>
      <trkpt lat="46.99001" lon="8.67847">
        <ele>557</ele>
        <time>2021-08-05T10:12:04.463Z</time>
      </trkpt>
      <trkpt lat="46.99002" lon="8.67849">
        <ele>557</ele>
        <time>2021-08-05T10:12:05.463Z</time>
      </trkpt>
      <trkpt lat="46.99002" lon="8.67851">
        <ele>556</ele>
        <time>2021-08-05T10:12:06.463Z</time>
      </trkpt>
      <trkpt lat="46.99003" lon="8.67854">
        <ele>556</ele>
        <time>2021-08-05T10:12:07.463Z</time>
      </trkpt>
      <trkpt lat="46.99003" lon="8.67856">
        <ele>555</ele>
        <time>2021-08-05T10:12:08.462Z</time>
      </trkpt>
      <trkpt lat="46.99003" lon="8.67858">
        <ele>555</ele>
        <time>2021-08-05T10:12:09.463Z</time>
      </trkpt>
      <trkpt lat="46.99002" lon="8.67859">
        <ele>555</ele>
        <time>2021-08-05T10:12:10.462Z</time>
      </trkpt>
      <trkpt lat="46.99003" lon="8.6786">
        <ele>555</ele>
        <time>2021-08-05T10:12:11.463Z</time>
      </trkpt>
      <trkpt lat="46.99003" lon="8.6786">
        <ele>555</ele>
        <time>2021-08-05T10:12:12.463Z</time>
      </trkpt>
      <trkpt lat="46.99004" lon="8.6786">
        <ele>555</ele>
        <time>2021-08-05T10:12:13.462Z</time>
      </trkpt>
      <trkpt lat="46.99004" lon="8.6786">
        <ele>555</ele>
        <time>2021-08-05T10:12:14.462Z</time>
      </trkpt>
      <trkpt lat="46.99007" lon="8.6786">
        <ele>556</ele>
        <time>2021-08-05T10:12:15.464Z</time>
      </trkpt>
      <trkpt lat="46.99006" lon="8.67864">
        <ele>556</ele>
        <time>2021-08-05T10:12:16.465Z</time>
      </trkpt>
      <trkpt lat="46.99006" lon="8.67865">
        <ele>556</ele>
        <time>2021-08-05T10:12:17.465Z</time>
      </trkpt>
      <trkpt lat="46.99006" lon="8.67867">
        <ele>556</ele>
        <time>2021-08-05T10:12:18.465Z</time>
      </trkpt>
      <trkpt lat="46.99006" lon="8.67868">
        <ele>556</ele>
        <time>2021-08-05T10:12:19.464Z</time>
      </trkpt>
      <trkpt lat="46.99006" lon="8.67869">
        <ele>555</ele>
        <time>2021-08-05T10:12:20.465Z</time>
      </trkpt>
      <trkpt lat="46.99006" lon="8.67871">
        <ele>555</ele>
        <time>2021-08-05T10:12:21.464Z</time>
      </trkpt>
      <trkpt lat="46.99005" lon="8.67873">
        <ele>555</ele>
        <time>2021-08-05T10:12:22.465Z</time>
      </trkpt>
      <trkpt lat="46.99006" lon="8.67874">
        <ele>555</ele>
        <time>2021-08-05T10:12:23.465Z</time>
      </trkpt>
      <trkpt lat="46.99005" lon="8.67876">
        <ele>555</ele>
        <time>2021-08-05T10:12:24.464Z</time>
      </trkpt>
      <trkpt lat="46.99005" lon="8.67877">
        <ele>554</ele>
        <time>2021-08-05T10:12:25.465Z</time>
      </trkpt>
      <trkpt lat="46.99004" lon="8.67879">
        <ele>554</ele>
        <time>2021-08-05T10:12:26.464Z</time>
      </trkpt>
      <trkpt lat="46.99004" lon="8.67881">
        <ele>554</ele>
        <time>2021-08-05T10:12:27.465Z</time>
      </trkpt>
      <trkpt lat="46.99003" lon="8.67883">
        <ele>554</ele>
        <time>2021-08-05T10:12:28.465Z</time>
      </trkpt>
      <trkpt lat="46.99003" lon="8.67885">
        <ele>554</ele>
        <time>2021-08-05T10:12:29.465Z</time>
      </trkpt>
      <trkpt lat="46.99003" lon="8.67887">
        <ele>554</ele>
        <time>2021-08-05T10:12:30.464Z</time>
      </trkpt>
      <trkpt lat="46.99002" lon="8.6789">
        <ele>554</ele>
        <time>2021-08-05T10:12:31.465Z</time>
      </trkpt>
      <trkpt lat="46.99002" lon="8.67892">
        <ele>554</ele>
        <time>2021-08-05T10:12:32.465Z</time>
      </trkpt>
      <trkpt lat="46.99001" lon="8.67894">
        <ele>554</ele>
        <time>2021-08-05T10:12:33.464Z</time>
      </trkpt>
      <trkpt lat="46.99001" lon="8.67895">
        <ele>554</ele>
        <time>2021-08-05T10:12:34.465Z</time>
      </trkpt>
      <trkpt lat="46.99001" lon="8.67897">
        <ele>554</ele>
        <time>2021-08-05T10:12:35.465Z</time>
      </trkpt>
      <trkpt lat="46.99" lon="8.67899">
        <ele>554</ele>
        <time>2021-08-05T10:12:36.464Z</time>
      </trkpt>
      <trkpt lat="46.99" lon="8.67902">
        <ele>554</ele>
        <time>2021-08-05T10:12:37.465Z</time>
      </trkpt>
      <trkpt lat="46.98999" lon="8.67903">
        <ele>554</ele>
        <time>2021-08-05T10:12:38.465Z</time>
      </trkpt>
      <trkpt lat="46.98999" lon="8.67906">
        <ele>554</ele>
        <time>2021-08-05T10:12:39.465Z</time>
      </trkpt>
      <trkpt lat="46.98998" lon="8.67908">
        <ele>554</ele>
        <time>2021-08-05T10:12:40.465Z</time>
      </trkpt>
      <trkpt lat="46.98997" lon="8.6791">
        <ele>554</ele>
        <time>2021-08-05T10:12:41.465Z</time>
      </trkpt>
      <trkpt lat="46.98997" lon="8.67911">
        <ele>554</ele>
        <time>2021-08-05T10:12:42.464Z</time>
      </trkpt>
      <trkpt lat="46.98997" lon="8.67913">
        <ele>554</ele>
        <time>2021-08-05T10:12:43.465Z</time>
      </trkpt>
      <trkpt lat="46.98996" lon="8.67914">
        <ele>554</ele>
        <time>2021-08-05T10:12:44.465Z</time>
      </trkpt>
      <trkpt lat="46.98996" lon="8.67915">
        <ele>554</ele>
        <time>2021-08-05T10:12:45.465Z</time>
      </trkpt>
      <trkpt lat="46.98995" lon="8.67916">
        <ele>554</ele>
        <time>2021-08-05T10:12:46.464Z</time>
      </trkpt>
      <trkpt lat="46.98994" lon="8.67918">
        <ele>554</ele>
        <time>2021-08-05T10:12:47.464Z</time>
      </trkpt>
      <trkpt lat="46.98994" lon="8.67919">
        <ele>554</ele>
        <time>2021-08-05T10:12:48.464Z</time>
      </trkpt>
      <trkpt lat="46.98994" lon="8.67921">
        <ele>554</ele>
        <time>2021-08-05T10:12:49.465Z</time>
      </trkpt>
      <trkpt lat="46.98993" lon="8.67922">
        <ele>554</ele>
        <time>2021-08-05T10:12:50.465Z</time>
      </trkpt>
      <trkpt lat="46.98993" lon="8.67924">
        <ele>554</ele>
        <time>2021-08-05T10:12:51.465Z</time>
      </trkpt>
      <trkpt lat="46.98993" lon="8.67925">
        <ele>554</ele>
        <time>2021-08-05T10:12:52.464Z</time>
      </trkpt>
      <trkpt lat="46.98992" lon="8.67927">
        <ele>554</ele>
        <time>2021-08-05T10:12:53.465Z</time>
      </trkpt>
      <trkpt lat="46.98991" lon="8.67929">
        <ele>554</ele>
        <time>2021-08-05T10:12:54.465Z</time>
      </trkpt>
      <trkpt lat="46.98991" lon="8.67931">
        <ele>555</ele>
        <time>2021-08-05T10:12:55.464Z</time>
      </trkpt>
      <trkpt lat="46.98991" lon="8.67932">
        <ele>555</ele>
        <time>2021-08-05T10:12:56.465Z</time>
      </trkpt>
      <trkpt lat="46.98991" lon="8.67934">
        <ele>555</ele>
        <time>2021-08-05T10:12:57.464Z</time>
      </trkpt>
      <trkpt lat="46.98991" lon="8.67936">
        <ele>556</ele>
        <time>2021-08-05T10:12:58.465Z</time>
      </trkpt>
      <trkpt lat="46.98991" lon="8.67938">
        <ele>556</ele>
        <time>2021-08-05T10:12:59.465Z</time>
      </trkpt>
      <trkpt lat="46.98991" lon="8.6794">
        <ele>556</ele>
        <time>2021-08-05T10:13:00.465Z</time>
      </trkpt>
      <trkpt lat="46.98991" lon="8.67941">
        <ele>556</ele>
        <time>2021-08-05T10:13:01.465Z</time>
      </trkpt>
      <trkpt lat="46.98991" lon="8.67943">
        <ele>556</ele>
        <time>2021-08-05T10:13:02.464Z</time>
      </trkpt>
      <trkpt lat="46.9899" lon="8.67944">
        <ele>555</ele>
        <time>2021-08-05T10:13:03.465Z</time>
      </trkpt>
      <trkpt lat="46.98991" lon="8.67945">
        <ele>555</ele>
        <time>2021-08-05T10:13:04.464Z</time>
      </trkpt>
      <trkpt lat="46.98992" lon="8.67945">
        <ele>555</ele>
        <time>2021-08-05T10:13:05.465Z</time>
      </trkpt>
      <trkpt lat="46.98993" lon="8.67944">
        <ele>555</ele>
        <time>2021-08-05T10:13:06.464Z</time>
      </trkpt>
      <trkpt lat="46.98994" lon="8.67944">
        <ele>555</ele>
        <time>2021-08-05T10:13:07.465Z</time>
      </trkpt>
      <trkpt lat="46.98994" lon="8.67943">
        <ele>556</ele>
        <time>2021-08-05T10:13:08.465Z</time>
      </trkpt>
      <trkpt lat="46.98992" lon="8.67941">
        <ele>556</ele>
        <time>2021-08-05T10:13:09.464Z</time>
      </trkpt>
      <trkpt lat="46.98992" lon="8.67941">
        <ele>557</ele>
        <time>2021-08-05T10:13:10.464Z</time>
      </trkpt>
      <trkpt lat="46.98992" lon="8.67941">
        <ele>557</ele>
        <time>2021-08-05T10:13:11.465Z</time>
      </trkpt>
      <trkpt lat="46.98992" lon="8.67942">
        <ele>557</ele>
        <time>2021-08-05T10:13:12.464Z</time>
      </trkpt>
      <trkpt lat="46.98992" lon="8.67942">
        <ele>557</ele>
        <time>2021-08-05T10:13:13.465Z</time>
      </trkpt>
      <trkpt lat="46.98992" lon="8.67942">
        <ele>557</ele>
        <time>2021-08-05T10:13:14.465Z</time>
      </trkpt>
      <trkpt lat="46.98991" lon="8.67942">
        <ele>557</ele>
        <time>2021-08-05T10:13:15.464Z</time>
      </trkpt>
      <trkpt lat="46.98991" lon="8.67943">
        <ele>557</ele>
        <time>2021-08-05T10:13:16.465Z</time>
      </trkpt>
      <trkpt lat="46.98991" lon="8.67944">
        <ele>557</ele>
        <time>2021-08-05T10:13:17.465Z</time>
      </trkpt>
      <trkpt lat="46.9899" lon="8.67945">
        <ele>557</ele>
        <time>2021-08-05T10:13:18.465Z</time>
      </trkpt>
      <trkpt lat="46.9899" lon="8.67947">
        <ele>556</ele>
        <time>2021-08-05T10:13:19.465Z</time>
      </trkpt>
      <trkpt lat="46.9899" lon="8.67948">
        <ele>556</ele>
        <time>2021-08-05T10:13:20.464Z</time>
      </trkpt>
      <trkpt lat="46.9899" lon="8.67948">
        <ele>556</ele>
        <time>2021-08-05T10:13:21.465Z</time>
      </trkpt>
      <trkpt lat="46.9899" lon="8.67949">
        <ele>555</ele>
        <time>2021-08-05T10:13:22.464Z</time>
      </trkpt>
      <trkpt lat="46.98989" lon="8.67949">
        <ele>555</ele>
        <time>2021-08-05T10:13:23.465Z</time>
      </trkpt>
      <trkpt lat="46.98989" lon="8.6795">
        <ele>555</ele>
        <time>2021-08-05T10:13:24.465Z</time>
      </trkpt>
      <trkpt lat="46.98989" lon="8.6795">
        <ele>554</ele>
        <time>2021-08-05T10:13:25.464Z</time>
      </trkpt>
      <trkpt lat="46.9899" lon="8.67952">
        <ele>554</ele>
        <time>2021-08-05T10:13:26.465Z</time>
      </trkpt>
      <trkpt lat="46.98991" lon="8.67954">
        <ele>554</ele>
        <time>2021-08-05T10:13:27.465Z</time>
      </trkpt>
      <trkpt lat="46.98991" lon="8.67955">
        <ele>553</ele>
        <time>2021-08-05T10:13:28.465Z</time>
      </trkpt>
      <trkpt lat="46.98992" lon="8.67957">
        <ele>553</ele>
        <time>2021-08-05T10:13:29.465Z</time>
      </trkpt>
      <trkpt lat="46.98992" lon="8.67959">
        <ele>552</ele>
        <time>2021-08-05T10:13:30.465Z</time>
      </trkpt>
      <trkpt lat="46.98991" lon="8.67961">
        <ele>552</ele>
        <time>2021-08-05T10:13:31.465Z</time>
      </trkpt>
      <trkpt lat="46.98991" lon="8.67963">
        <ele>552</ele>
        <time>2021-08-05T10:13:32.465Z</time>
      </trkpt>
      <trkpt lat="46.98991" lon="8.67965">
        <ele>551</ele>
        <time>2021-08-05T10:13:33.465Z</time>
      </trkpt>
      <trkpt lat="46.98991" lon="8.67966">
        <ele>551</ele>
        <time>2021-08-05T10:13:34.465Z</time>
      </trkpt>
      <trkpt lat="46.98992" lon="8.67968">
        <ele>551</ele>
        <time>2021-08-05T10:13:35.464Z</time>
      </trkpt>
      <trkpt lat="46.98992" lon="8.6797">
        <ele>550</ele>
        <time>2021-08-05T10:13:36.465Z</time>
      </trkpt>
      <trkpt lat="46.98992" lon="8.67972">
        <ele>550</ele>
        <time>2021-08-05T10:13:37.464Z</time>
      </trkpt>
      <trkpt lat="46.98992" lon="8.67974">
        <ele>549</ele>
        <time>2021-08-05T10:13:38.465Z</time>
      </trkpt>
      <trkpt lat="46.98992" lon="8.67976">
        <ele>549</ele>
        <time>2021-08-05T10:13:39.464Z</time>
      </trkpt>
      <trkpt lat="46.98993" lon="8.67978">
        <ele>548</ele>
        <time>2021-08-05T10:13:40.465Z</time>
      </trkpt>
      <trkpt lat="46.98993" lon="8.67979">
        <ele>548</ele>
        <time>2021-08-05T10:13:41.465Z</time>
      </trkpt>
      <trkpt lat="46.98993" lon="8.67982">
        <ele>547</ele>
        <time>2021-08-05T10:13:42.465Z</time>
      </trkpt>
      <trkpt lat="46.98993" lon="8.67983">
        <ele>547</ele>
        <time>2021-08-05T10:13:43.464Z</time>
      </trkpt>
      <trkpt lat="46.98994" lon="8.67984">
        <ele>547</ele>
        <time>2021-08-05T10:13:44.465Z</time>
      </trkpt>
      <trkpt lat="46.98994" lon="8.67986">
        <ele>547</ele>
        <time>2021-08-05T10:13:45.464Z</time>
      </trkpt>
      <trkpt lat="46.98994" lon="8.67988">
        <ele>547</ele>
        <time>2021-08-05T10:13:46.464Z</time>
      </trkpt>
      <trkpt lat="46.98995" lon="8.67989">
        <ele>547</ele>
        <time>2021-08-05T10:13:47.464Z</time>
      </trkpt>
      <trkpt lat="46.98995" lon="8.67992">
        <ele>546</ele>
        <time>2021-08-05T10:13:48.464Z</time>
      </trkpt>
      <trkpt lat="46.98995" lon="8.67994">
        <ele>546</ele>
        <time>2021-08-05T10:13:49.464Z</time>
      </trkpt>
      <trkpt lat="46.98995" lon="8.67996">
        <ele>546</ele>
        <time>2021-08-05T10:13:50.464Z</time>
      </trkpt>
      <trkpt lat="46.98995" lon="8.67998">
        <ele>546</ele>
        <time>2021-08-05T10:13:51.464Z</time>
      </trkpt>
      <trkpt lat="46.98995" lon="8.68">
        <ele>546</ele>
        <time>2021-08-05T10:13:52.464Z</time>
      </trkpt>
      <trkpt lat="46.98994" lon="8.68002">
        <ele>546</ele>
        <time>2021-08-05T10:13:53.465Z</time>
      </trkpt>
      <trkpt lat="46.98993" lon="8.68003">
        <ele>547</ele>
        <time>2021-08-05T10:13:54.464Z</time>
      </trkpt>
      <trkpt lat="46.98993" lon="8.68004">
        <ele>547</ele>
        <time>2021-08-05T10:13:55.464Z</time>
      </trkpt>
      <trkpt lat="46.98993" lon="8.68006">
        <ele>547</ele>
        <time>2021-08-05T10:13:56.464Z</time>
      </trkpt>
      <trkpt lat="46.98993" lon="8.68007">
        <ele>547</ele>
        <time>2021-08-05T10:13:57.464Z</time>
      </trkpt>
      <trkpt lat="46.98992" lon="8.68008">
        <ele>547</ele>
        <time>2021-08-05T10:13:58.465Z</time>
      </trkpt>
      <trkpt lat="46.98993" lon="8.68009">
        <ele>547</ele>
        <time>2021-08-05T10:13:59.465Z</time>
      </trkpt>
      <trkpt lat="46.98993" lon="8.68011">
        <ele>547</ele>
        <time>2021-08-05T10:14:00.465Z</time>
      </trkpt>
      <trkpt lat="46.98993" lon="8.68012">
        <ele>547</ele>
        <time>2021-08-05T10:14:01.464Z</time>
      </trkpt>
      <trkpt lat="46.98992" lon="8.68014">
        <ele>547</ele>
        <time>2021-08-05T10:14:02.465Z</time>
      </trkpt>
      <trkpt lat="46.98992" lon="8.68015">
        <ele>546</ele>
        <time>2021-08-05T10:14:03.465Z</time>
      </trkpt>
      <trkpt lat="46.98991" lon="8.68017">
        <ele>546</ele>
        <time>2021-08-05T10:14:04.464Z</time>
      </trkpt>
      <trkpt lat="46.98991" lon="8.6802">
        <ele>546</ele>
        <time>2021-08-05T10:14:05.464Z</time>
      </trkpt>
      <trkpt lat="46.98991" lon="8.68022">
        <ele>546</ele>
        <time>2021-08-05T10:14:06.464Z</time>
      </trkpt>
      <trkpt lat="46.98991" lon="8.68024">
        <ele>546</ele>
        <time>2021-08-05T10:14:07.464Z</time>
      </trkpt>
      <trkpt lat="46.9899" lon="8.68025">
        <ele>546</ele>
        <time>2021-08-05T10:14:08.464Z</time>
      </trkpt>
      <trkpt lat="46.9899" lon="8.68027">
        <ele>546</ele>
        <time>2021-08-05T10:14:09.464Z</time>
      </trkpt>
      <trkpt lat="46.98991" lon="8.68028">
        <ele>546</ele>
        <time>2021-08-05T10:14:10.465Z</time>
      </trkpt>
      <trkpt lat="46.9899" lon="8.6803">
        <ele>547</ele>
        <time>2021-08-05T10:14:11.465Z</time>
      </trkpt>
      <trkpt lat="46.98989" lon="8.68032">
        <ele>547</ele>
        <time>2021-08-05T10:14:12.465Z</time>
      </trkpt>
      <trkpt lat="46.98988" lon="8.68035">
        <ele>547</ele>
        <time>2021-08-05T10:14:13.465Z</time>
      </trkpt>
      <trkpt lat="46.98988" lon="8.68037">
        <ele>547</ele>
        <time>2021-08-05T10:14:14.465Z</time>
      </trkpt>
      <trkpt lat="46.98988" lon="8.68039">
        <ele>547</ele>
        <time>2021-08-05T10:14:15.464Z</time>
      </trkpt>
      <trkpt lat="46.98987" lon="8.68041">
        <ele>547</ele>
        <time>2021-08-05T10:14:16.465Z</time>
      </trkpt>
      <trkpt lat="46.98987" lon="8.68043">
        <ele>547</ele>
        <time>2021-08-05T10:14:17.465Z</time>
      </trkpt>
      <trkpt lat="46.98987" lon="8.68044">
        <ele>547</ele>
        <time>2021-08-05T10:14:18.464Z</time>
      </trkpt>
      <trkpt lat="46.98987" lon="8.68046">
        <ele>547</ele>
        <time>2021-08-05T10:14:19.465Z</time>
      </trkpt>
      <trkpt lat="46.98986" lon="8.68048">
        <ele>547</ele>
        <time>2021-08-05T10:14:20.465Z</time>
      </trkpt>
      <trkpt lat="46.98986" lon="8.6805">
        <ele>547</ele>
        <time>2021-08-05T10:14:21.465Z</time>
      </trkpt>
      <trkpt lat="46.98986" lon="8.68052">
        <ele>547</ele>
        <time>2021-08-05T10:14:22.465Z</time>
      </trkpt>
      <trkpt lat="46.98987" lon="8.68054">
        <ele>548</ele>
        <time>2021-08-05T10:14:23.465Z</time>
      </trkpt>
      <trkpt lat="46.98987" lon="8.68056">
        <ele>548</ele>
        <time>2021-08-05T10:14:24.465Z</time>
      </trkpt>
      <trkpt lat="46.98987" lon="8.68058">
        <ele>548</ele>
        <time>2021-08-05T10:14:25.464Z</time>
      </trkpt>
      <trkpt lat="46.98987" lon="8.68059">
        <ele>548</ele>
        <time>2021-08-05T10:14:26.465Z</time>
      </trkpt>
      <trkpt lat="46.98987" lon="8.68061">
        <ele>548</ele>
        <time>2021-08-05T10:14:27.465Z</time>
      </trkpt>
      <trkpt lat="46.98986" lon="8.68063">
        <ele>548</ele>
        <time>2021-08-05T10:14:28.465Z</time>
      </trkpt>
      <trkpt lat="46.98987" lon="8.68065">
        <ele>548</ele>
        <time>2021-08-05T10:14:29.465Z</time>
      </trkpt>
      <trkpt lat="46.98987" lon="8.68067">
        <ele>548</ele>
        <time>2021-08-05T10:14:30.465Z</time>
      </trkpt>
      <trkpt lat="46.98988" lon="8.68068">
        <ele>548</ele>
        <time>2021-08-05T10:14:31.465Z</time>
      </trkpt>
      <trkpt lat="46.98989" lon="8.6807">
        <ele>549</ele>
        <time>2021-08-05T10:14:32.464Z</time>
      </trkpt>
      <trkpt lat="46.98989" lon="8.68072">
        <ele>549</ele>
        <time>2021-08-05T10:14:33.465Z</time>
      </trkpt>
      <trkpt lat="46.98989" lon="8.68074">
        <ele>549</ele>
        <time>2021-08-05T10:14:34.465Z</time>
      </trkpt>
      <trkpt lat="46.9899" lon="8.68075">
        <ele>549</ele>
        <time>2021-08-05T10:14:35.465Z</time>
      </trkpt>
      <trkpt lat="46.9899" lon="8.68077">
        <ele>549</ele>
        <time>2021-08-05T10:14:36.464Z</time>
      </trkpt>
      <trkpt lat="46.9899" lon="8.68078">
        <ele>549</ele>
        <time>2021-08-05T10:14:37.465Z</time>
      </trkpt>
      <trkpt lat="46.9899" lon="8.68079">
        <ele>549</ele>
        <time>2021-08-05T10:14:38.464Z</time>
      </trkpt>
      <trkpt lat="46.98991" lon="8.6808">
        <ele>549</ele>
        <time>2021-08-05T10:14:39.464Z</time>
      </trkpt>
      <trkpt lat="46.9899" lon="8.68082">
        <ele>549</ele>
        <time>2021-08-05T10:14:40.465Z</time>
      </trkpt>
      <trkpt lat="46.9899" lon="8.68083">
        <ele>549</ele>
        <time>2021-08-05T10:14:41.464Z</time>
      </trkpt>
      <trkpt lat="46.9899" lon="8.68085">
        <ele>549</ele>
        <time>2021-08-05T10:14:42.465Z</time>
      </trkpt>
      <trkpt lat="46.98991" lon="8.68086">
        <ele>549</ele>
        <time>2021-08-05T10:14:43.465Z</time>
      </trkpt>
      <trkpt lat="46.98991" lon="8.68088">
        <ele>550</ele>
        <time>2021-08-05T10:14:44.465Z</time>
      </trkpt>
      <trkpt lat="46.98991" lon="8.6809">
        <ele>549</ele>
        <time>2021-08-05T10:14:45.465Z</time>
      </trkpt>
      <trkpt lat="46.98991" lon="8.68092">
        <ele>549</ele>
        <time>2021-08-05T10:14:46.465Z</time>
      </trkpt>
      <trkpt lat="46.98991" lon="8.68093">
        <ele>549</ele>
        <time>2021-08-05T10:14:47.465Z</time>
      </trkpt>
      <trkpt lat="46.98991" lon="8.68094">
        <ele>549</ele>
        <time>2021-08-05T10:14:48.465Z</time>
      </trkpt>
      <trkpt lat="46.98991" lon="8.68095">
        <ele>548</ele>
        <time>2021-08-05T10:14:49.465Z</time>
      </trkpt>
      <trkpt lat="46.98991" lon="8.68096">
        <ele>549</ele>
        <time>2021-08-05T10:14:50.465Z</time>
      </trkpt>
      <trkpt lat="46.98991" lon="8.68097">
        <ele>549</ele>
        <time>2021-08-05T10:14:51.465Z</time>
      </trkpt>
      <trkpt lat="46.98991" lon="8.68098">
        <ele>548</ele>
        <time>2021-08-05T10:14:52.465Z</time>
      </trkpt>
      <trkpt lat="46.98992" lon="8.681">
        <ele>548</ele>
        <time>2021-08-05T10:14:53.465Z</time>
      </trkpt>
      <trkpt lat="46.98991" lon="8.68102">
        <ele>548</ele>
        <time>2021-08-05T10:14:54.465Z</time>
      </trkpt>
      <trkpt lat="46.98993" lon="8.68105">
        <ele>548</ele>
        <time>2021-08-05T10:14:55.465Z</time>
      </trkpt>
      <trkpt lat="46.98993" lon="8.68107">
        <ele>548</ele>
        <time>2021-08-05T10:14:56.465Z</time>
      </trkpt>
      <trkpt lat="46.98993" lon="8.68109">
        <ele>548</ele>
        <time>2021-08-05T10:14:57.464Z</time>
      </trkpt>
      <trkpt lat="46.98993" lon="8.6811">
        <ele>548</ele>
        <time>2021-08-05T10:14:58.464Z</time>
      </trkpt>
      <trkpt lat="46.98993" lon="8.68112">
        <ele>548</ele>
        <time>2021-08-05T10:14:59.464Z</time>
      </trkpt>
      <trkpt lat="46.98993" lon="8.68114">
        <ele>547</ele>
        <time>2021-08-05T10:15:00.465Z</time>
      </trkpt>
      <trkpt lat="46.98993" lon="8.68116">
        <ele>547</ele>
        <time>2021-08-05T10:15:01.465Z</time>
      </trkpt>
      <trkpt lat="46.98993" lon="8.68117">
        <ele>547</ele>
        <time>2021-08-05T10:15:02.465Z</time>
      </trkpt>
      <trkpt lat="46.98992" lon="8.68119">
        <ele>547</ele>
        <time>2021-08-05T10:15:03.465Z</time>
      </trkpt>
      <trkpt lat="46.98992" lon="8.6812">
        <ele>546</ele>
        <time>2021-08-05T10:15:04.464Z</time>
      </trkpt>
      <trkpt lat="46.98991" lon="8.68121">
        <ele>546</ele>
        <time>2021-08-05T10:15:05.464Z</time>
      </trkpt>
      <trkpt lat="46.98991" lon="8.68123">
        <ele>546</ele>
        <time>2021-08-05T10:15:06.465Z</time>
      </trkpt>
      <trkpt lat="46.98992" lon="8.68124">
        <ele>546</ele>
        <time>2021-08-05T10:15:07.464Z</time>
      </trkpt>
      <trkpt lat="46.98992" lon="8.68126">
        <ele>546</ele>
        <time>2021-08-05T10:15:08.465Z</time>
      </trkpt>
      <trkpt lat="46.98992" lon="8.68128">
        <ele>546</ele>
        <time>2021-08-05T10:15:09.464Z</time>
      </trkpt>
      <trkpt lat="46.98992" lon="8.6813">
        <ele>546</ele>
        <time>2021-08-05T10:15:10.464Z</time>
      </trkpt>
      <trkpt lat="46.98993" lon="8.68132">
        <ele>546</ele>
        <time>2021-08-05T10:15:11.465Z</time>
      </trkpt>
      <trkpt lat="46.98993" lon="8.68135">
        <ele>546</ele>
        <time>2021-08-05T10:15:12.465Z</time>
      </trkpt>
      <trkpt lat="46.98994" lon="8.68137">
        <ele>546</ele>
        <time>2021-08-05T10:15:13.464Z</time>
      </trkpt>
      <trkpt lat="46.98994" lon="8.6814">
        <ele>546</ele>
        <time>2021-08-05T10:15:14.464Z</time>
      </trkpt>
      <trkpt lat="46.98994" lon="8.68142">
        <ele>546</ele>
        <time>2021-08-05T10:15:15.464Z</time>
      </trkpt>
      <trkpt lat="46.98994" lon="8.68145">
        <ele>546</ele>
        <time>2021-08-05T10:15:16.464Z</time>
      </trkpt>
      <trkpt lat="46.98994" lon="8.68146">
        <ele>546</ele>
        <time>2021-08-05T10:15:17.464Z</time>
      </trkpt>
      <trkpt lat="46.98995" lon="8.68148">
        <ele>546</ele>
        <time>2021-08-05T10:15:18.464Z</time>
      </trkpt>
      <trkpt lat="46.98995" lon="8.68149">
        <ele>546</ele>
        <time>2021-08-05T10:15:19.464Z</time>
      </trkpt>
      <trkpt lat="46.98996" lon="8.68151">
        <ele>546</ele>
        <time>2021-08-05T10:15:20.465Z</time>
      </trkpt>
      <trkpt lat="46.98995" lon="8.68153">
        <ele>546</ele>
        <time>2021-08-05T10:15:21.465Z</time>
      </trkpt>
      <trkpt lat="46.98994" lon="8.68155">
        <ele>547</ele>
        <time>2021-08-05T10:15:22.464Z</time>
      </trkpt>
      <trkpt lat="46.98993" lon="8.68157">
        <ele>547</ele>
        <time>2021-08-05T10:15:23.464Z</time>
      </trkpt>
      <trkpt lat="46.98994" lon="8.68159">
        <ele>547</ele>
        <time>2021-08-05T10:15:24.464Z</time>
      </trkpt>
      <trkpt lat="46.98994" lon="8.68161">
        <ele>547</ele>
        <time>2021-08-05T10:15:25.464Z</time>
      </trkpt>
      <trkpt lat="46.98994" lon="8.68163">
        <ele>547</ele>
        <time>2021-08-05T10:15:26.464Z</time>
      </trkpt>
      <trkpt lat="46.98994" lon="8.68164">
        <ele>547</ele>
        <time>2021-08-05T10:15:27.464Z</time>
      </trkpt>
      <trkpt lat="46.98994" lon="8.68166">
        <ele>547</ele>
        <time>2021-08-05T10:15:28.464Z</time>
      </trkpt>
      <trkpt lat="46.98993" lon="8.68167">
        <ele>547</ele>
        <time>2021-08-05T10:15:29.465Z</time>
      </trkpt>
      <trkpt lat="46.98994" lon="8.68169">
        <ele>547</ele>
        <time>2021-08-05T10:15:30.464Z</time>
      </trkpt>
      <trkpt lat="46.98994" lon="8.68171">
        <ele>546</ele>
        <time>2021-08-05T10:15:31.464Z</time>
      </trkpt>
      <trkpt lat="46.98994" lon="8.68173">
        <ele>546</ele>
        <time>2021-08-05T10:15:32.464Z</time>
      </trkpt>
      <trkpt lat="46.98995" lon="8.68176">
        <ele>545</ele>
        <time>2021-08-05T10:15:33.464Z</time>
      </trkpt>
      <trkpt lat="46.98994" lon="8.68178">
        <ele>545</ele>
        <time>2021-08-05T10:15:34.465Z</time>
      </trkpt>
      <trkpt lat="46.98992" lon="8.6818">
        <ele>545</ele>
        <time>2021-08-05T10:15:35.465Z</time>
      </trkpt>
      <trkpt lat="46.98993" lon="8.68182">
        <ele>545</ele>
        <time>2021-08-05T10:15:36.465Z</time>
      </trkpt>
      <trkpt lat="46.98993" lon="8.68184">
        <ele>545</ele>
        <time>2021-08-05T10:15:37.465Z</time>
      </trkpt>
      <trkpt lat="46.98992" lon="8.68185">
        <ele>544</ele>
        <time>2021-08-05T10:15:38.465Z</time>
      </trkpt>
      <trkpt lat="46.98992" lon="8.68187">
        <ele>544</ele>
        <time>2021-08-05T10:15:39.464Z</time>
      </trkpt>
      <trkpt lat="46.98991" lon="8.68188">
        <ele>544</ele>
        <time>2021-08-05T10:15:40.465Z</time>
      </trkpt>
      <trkpt lat="46.98991" lon="8.68189">
        <ele>543</ele>
        <time>2021-08-05T10:15:41.465Z</time>
      </trkpt>
      <trkpt lat="46.98991" lon="8.6819">
        <ele>543</ele>
        <time>2021-08-05T10:15:42.464Z</time>
      </trkpt>
      <trkpt lat="46.98991" lon="8.68192">
        <ele>543</ele>
        <time>2021-08-05T10:15:43.464Z</time>
      </trkpt>
      <trkpt lat="46.98991" lon="8.68194">
        <ele>543</ele>
        <time>2021-08-05T10:15:44.465Z</time>
      </trkpt>
      <trkpt lat="46.98991" lon="8.68196">
        <ele>542</ele>
        <time>2021-08-05T10:15:45.464Z</time>
      </trkpt>
      <trkpt lat="46.98991" lon="8.68197">
        <ele>542</ele>
        <time>2021-08-05T10:15:46.464Z</time>
      </trkpt>
      <trkpt lat="46.9899" lon="8.68199">
        <ele>542</ele>
        <time>2021-08-05T10:15:47.465Z</time>
      </trkpt>
      <trkpt lat="46.9899" lon="8.682">
        <ele>542</ele>
        <time>2021-08-05T10:15:48.465Z</time>
      </trkpt>
      <trkpt lat="46.9899" lon="8.68201">
        <ele>542</ele>
        <time>2021-08-05T10:15:49.464Z</time>
      </trkpt>
      <trkpt lat="46.9899" lon="8.68203">
        <ele>542</ele>
        <time>2021-08-05T10:15:50.465Z</time>
      </trkpt>
      <trkpt lat="46.9899" lon="8.68205">
        <ele>542</ele>
        <time>2021-08-05T10:15:51.465Z</time>
      </trkpt>
      <trkpt lat="46.9899" lon="8.68207">
        <ele>542</ele>
        <time>2021-08-05T10:15:52.465Z</time>
      </trkpt>
      <trkpt lat="46.9899" lon="8.68208">
        <ele>542</ele>
        <time>2021-08-05T10:15:53.465Z</time>
      </trkpt>
      <trkpt lat="46.9899" lon="8.68209">
        <ele>543</ele>
        <time>2021-08-05T10:15:54.465Z</time>
      </trkpt>
      <trkpt lat="46.98991" lon="8.6821">
        <ele>543</ele>
        <time>2021-08-05T10:15:55.464Z</time>
      </trkpt>
      <trkpt lat="46.98991" lon="8.68212">
        <ele>544</ele>
        <time>2021-08-05T10:15:56.464Z</time>
      </trkpt>
      <trkpt lat="46.98991" lon="8.68213">
        <ele>544</ele>
        <time>2021-08-05T10:15:57.464Z</time>
      </trkpt>
      <trkpt lat="46.98991" lon="8.68215">
        <ele>545</ele>
        <time>2021-08-05T10:15:58.465Z</time>
      </trkpt>
      <trkpt lat="46.98991" lon="8.68216">
        <ele>545</ele>
        <time>2021-08-05T10:15:59.465Z</time>
      </trkpt>
      <trkpt lat="46.98991" lon="8.68218">
        <ele>545</ele>
        <time>2021-08-05T10:16:00.465Z</time>
      </trkpt>
      <trkpt lat="46.98992" lon="8.6822">
        <ele>545</ele>
        <time>2021-08-05T10:16:01.464Z</time>
      </trkpt>
      <trkpt lat="46.98992" lon="8.68222">
        <ele>545</ele>
        <time>2021-08-05T10:16:02.465Z</time>
      </trkpt>
      <trkpt lat="46.98992" lon="8.68224">
        <ele>546</ele>
        <time>2021-08-05T10:16:03.465Z</time>
      </trkpt>
      <trkpt lat="46.98992" lon="8.68226">
        <ele>546</ele>
        <time>2021-08-05T10:16:04.464Z</time>
      </trkpt>
      <trkpt lat="46.98992" lon="8.68228">
        <ele>546</ele>
        <time>2021-08-05T10:16:05.464Z</time>
      </trkpt>
      <trkpt lat="46.98993" lon="8.6823">
        <ele>546</ele>
        <time>2021-08-05T10:16:06.465Z</time>
      </trkpt>
      <trkpt lat="46.98993" lon="8.68232">
        <ele>546</ele>
        <time>2021-08-05T10:16:07.465Z</time>
      </trkpt>
      <trkpt lat="46.98992" lon="8.68234">
        <ele>546</ele>
        <time>2021-08-05T10:16:08.465Z</time>
      </trkpt>
      <trkpt lat="46.98993" lon="8.68236">
        <ele>546</ele>
        <time>2021-08-05T10:16:09.464Z</time>
      </trkpt>
      <trkpt lat="46.98993" lon="8.68238">
        <ele>546</ele>
        <time>2021-08-05T10:16:10.464Z</time>
      </trkpt>
      <trkpt lat="46.98994" lon="8.6824">
        <ele>546</ele>
        <time>2021-08-05T10:16:11.464Z</time>
      </trkpt>
      <trkpt lat="46.98994" lon="8.68242">
        <ele>546</ele>
        <time>2021-08-05T10:16:12.464Z</time>
      </trkpt>
      <trkpt lat="46.98994" lon="8.68244">
        <ele>546</ele>
        <time>2021-08-05T10:16:13.465Z</time>
      </trkpt>
      <trkpt lat="46.98995" lon="8.68245">
        <ele>547</ele>
        <time>2021-08-05T10:16:14.465Z</time>
      </trkpt>
      <trkpt lat="46.98995" lon="8.68247">
        <ele>547</ele>
        <time>2021-08-05T10:16:15.464Z</time>
      </trkpt>
      <trkpt lat="46.98995" lon="8.68249">
        <ele>547</ele>
        <time>2021-08-05T10:16:16.464Z</time>
      </trkpt>
      <trkpt lat="46.98995" lon="8.68251">
        <ele>547</ele>
        <time>2021-08-05T10:16:17.465Z</time>
      </trkpt>
      <trkpt lat="46.98995" lon="8.68253">
        <ele>547</ele>
        <time>2021-08-05T10:16:18.465Z</time>
      </trkpt>
      <trkpt lat="46.98995" lon="8.68255">
        <ele>547</ele>
        <time>2021-08-05T10:16:19.465Z</time>
      </trkpt>
      <trkpt lat="46.98996" lon="8.68256">
        <ele>547</ele>
        <time>2021-08-05T10:16:20.465Z</time>
      </trkpt>
      <trkpt lat="46.98996" lon="8.68258">
        <ele>547</ele>
        <time>2021-08-05T10:16:21.465Z</time>
      </trkpt>
      <trkpt lat="46.98997" lon="8.6826">
        <ele>548</ele>
        <time>2021-08-05T10:16:22.465Z</time>
      </trkpt>
      <trkpt lat="46.98997" lon="8.68261">
        <ele>548</ele>
        <time>2021-08-05T10:16:23.465Z</time>
      </trkpt>
      <trkpt lat="46.98996" lon="8.68264">
        <ele>548</ele>
        <time>2021-08-05T10:16:24.465Z</time>
      </trkpt>
      <trkpt lat="46.98996" lon="8.68266">
        <ele>548</ele>
        <time>2021-08-05T10:16:25.465Z</time>
      </trkpt>
      <trkpt lat="46.98997" lon="8.68268">
        <ele>548</ele>
        <time>2021-08-05T10:16:26.465Z</time>
      </trkpt>
      <trkpt lat="46.98997" lon="8.6827">
        <ele>548</ele>
        <time>2021-08-05T10:16:27.464Z</time>
      </trkpt>
      <trkpt lat="46.98997" lon="8.68271">
        <ele>548</ele>
        <time>2021-08-05T10:16:28.464Z</time>
      </trkpt>
      <trkpt lat="46.98998" lon="8.68273">
        <ele>548</ele>
        <time>2021-08-05T10:16:29.464Z</time>
      </trkpt>
      <trkpt lat="46.98999" lon="8.68274">
        <ele>548</ele>
        <time>2021-08-05T10:16:30.465Z</time>
      </trkpt>
      <trkpt lat="46.98998" lon="8.68275">
        <ele>548</ele>
        <time>2021-08-05T10:16:31.465Z</time>
      </trkpt>
      <trkpt lat="46.98999" lon="8.68276">
        <ele>548</ele>
        <time>2021-08-05T10:16:32.465Z</time>
      </trkpt>
      <trkpt lat="46.98999" lon="8.68277">
        <ele>547</ele>
        <time>2021-08-05T10:16:33.465Z</time>
      </trkpt>
      <trkpt lat="46.99" lon="8.68279">
        <ele>547</ele>
        <time>2021-08-05T10:16:34.464Z</time>
      </trkpt>
      <trkpt lat="46.99" lon="8.6828">
        <ele>547</ele>
        <time>2021-08-05T10:16:35.465Z</time>
      </trkpt>
      <trkpt lat="46.99" lon="8.68282">
        <ele>547</ele>
        <time>2021-08-05T10:16:36.465Z</time>
      </trkpt>
      <trkpt lat="46.99" lon="8.68284">
        <ele>546</ele>
        <time>2021-08-05T10:16:37.465Z</time>
      </trkpt>
      <trkpt lat="46.99001" lon="8.68286">
        <ele>546</ele>
        <time>2021-08-05T10:16:38.465Z</time>
      </trkpt>
      <trkpt lat="46.99002" lon="8.68287">
        <ele>546</ele>
        <time>2021-08-05T10:16:39.465Z</time>
      </trkpt>
      <trkpt lat="46.99003" lon="8.68289">
        <ele>546</ele>
        <time>2021-08-05T10:16:40.465Z</time>
      </trkpt>
      <trkpt lat="46.99002" lon="8.6829">
        <ele>546</ele>
        <time>2021-08-05T10:16:41.465Z</time>
      </trkpt>
      <trkpt lat="46.99003" lon="8.68292">
        <ele>546</ele>
        <time>2021-08-05T10:16:42.464Z</time>
      </trkpt>
      <trkpt lat="46.99003" lon="8.68294">
        <ele>546</ele>
        <time>2021-08-05T10:16:43.465Z</time>
      </trkpt>
      <trkpt lat="46.99003" lon="8.68296">
        <ele>546</ele>
        <time>2021-08-05T10:16:44.464Z</time>
      </trkpt>
      <trkpt lat="46.99003" lon="8.68297">
        <ele>547</ele>
        <time>2021-08-05T10:16:45.464Z</time>
      </trkpt>
      <trkpt lat="46.99004" lon="8.68298">
        <ele>547</ele>
        <time>2021-08-05T10:16:46.464Z</time>
      </trkpt>
      <trkpt lat="46.99004" lon="8.68299">
        <ele>547</ele>
        <time>2021-08-05T10:16:47.465Z</time>
      </trkpt>
      <trkpt lat="46.99004" lon="8.68301">
        <ele>548</ele>
        <time>2021-08-05T10:16:48.465Z</time>
      </trkpt>
      <trkpt lat="46.99004" lon="8.68303">
        <ele>548</ele>
        <time>2021-08-05T10:16:49.464Z</time>
      </trkpt>
      <trkpt lat="46.99003" lon="8.68305">
        <ele>549</ele>
        <time>2021-08-05T10:16:50.465Z</time>
      </trkpt>
      <trkpt lat="46.99004" lon="8.68307">
        <ele>549</ele>
        <time>2021-08-05T10:16:51.465Z</time>
      </trkpt>
      <trkpt lat="46.99004" lon="8.68308">
        <ele>550</ele>
        <time>2021-08-05T10:16:52.465Z</time>
      </trkpt>
      <trkpt lat="46.99004" lon="8.6831">
        <ele>550</ele>
        <time>2021-08-05T10:16:53.465Z</time>
      </trkpt>
      <trkpt lat="46.99004" lon="8.68312">
        <ele>550</ele>
        <time>2021-08-05T10:16:54.464Z</time>
      </trkpt>
      <trkpt lat="46.99004" lon="8.68313">
        <ele>550</ele>
        <time>2021-08-05T10:16:55.465Z</time>
      </trkpt>
      <trkpt lat="46.99003" lon="8.68314">
        <ele>550</ele>
        <time>2021-08-05T10:16:56.465Z</time>
      </trkpt>
      <trkpt lat="46.99004" lon="8.68316">
        <ele>550</ele>
        <time>2021-08-05T10:16:57.465Z</time>
      </trkpt>
      <trkpt lat="46.99004" lon="8.68317">
        <ele>549</ele>
        <time>2021-08-05T10:16:58.465Z</time>
      </trkpt>
      <trkpt lat="46.99004" lon="8.6832">
        <ele>549</ele>
        <time>2021-08-05T10:16:59.465Z</time>
      </trkpt>
      <trkpt lat="46.99004" lon="8.68321">
        <ele>549</ele>
        <time>2021-08-05T10:17:00.465Z</time>
      </trkpt>
      <trkpt lat="46.99005" lon="8.68324">
        <ele>549</ele>
        <time>2021-08-05T10:17:01.464Z</time>
      </trkpt>
      <trkpt lat="46.99005" lon="8.68325">
        <ele>549</ele>
        <time>2021-08-05T10:17:02.465Z</time>
      </trkpt>
      <trkpt lat="46.99006" lon="8.68326">
        <ele>549</ele>
        <time>2021-08-05T10:17:03.464Z</time>
      </trkpt>
      <trkpt lat="46.99006" lon="8.68328">
        <ele>548</ele>
        <time>2021-08-05T10:17:04.465Z</time>
      </trkpt>
      <trkpt lat="46.99007" lon="8.6833">
        <ele>548</ele>
        <time>2021-08-05T10:17:05.464Z</time>
      </trkpt>
      <trkpt lat="46.99007" lon="8.68332">
        <ele>548</ele>
        <time>2021-08-05T10:17:06.465Z</time>
      </trkpt>
      <trkpt lat="46.99007" lon="8.68333">
        <ele>547</ele>
        <time>2021-08-05T10:17:07.465Z</time>
      </trkpt>
      <trkpt lat="46.99007" lon="8.68335">
        <ele>547</ele>
        <time>2021-08-05T10:17:08.464Z</time>
      </trkpt>
      <trkpt lat="46.99008" lon="8.68336">
        <ele>548</ele>
        <time>2021-08-05T10:17:09.465Z</time>
      </trkpt>
      <trkpt lat="46.99008" lon="8.68338">
        <ele>548</ele>
        <time>2021-08-05T10:17:10.465Z</time>
      </trkpt>
      <trkpt lat="46.99008" lon="8.68339">
        <ele>549</ele>
        <time>2021-08-05T10:17:11.464Z</time>
      </trkpt>
      <trkpt lat="46.99008" lon="8.68341">
        <ele>549</ele>
        <time>2021-08-05T10:17:12.465Z</time>
      </trkpt>
      <trkpt lat="46.99009" lon="8.68343">
        <ele>550</ele>
        <time>2021-08-05T10:17:13.465Z</time>
      </trkpt>
      <trkpt lat="46.99009" lon="8.68344">
        <ele>550</ele>
        <time>2021-08-05T10:17:14.465Z</time>
      </trkpt>
      <trkpt lat="46.99009" lon="8.68346">
        <ele>550</ele>
        <time>2021-08-05T10:17:15.465Z</time>
      </trkpt>
      <trkpt lat="46.99009" lon="8.68348">
        <ele>551</ele>
        <time>2021-08-05T10:17:16.465Z</time>
      </trkpt>
      <trkpt lat="46.99009" lon="8.68349">
        <ele>551</ele>
        <time>2021-08-05T10:17:17.465Z</time>
      </trkpt>
      <trkpt lat="46.99009" lon="8.6835">
        <ele>551</ele>
        <time>2021-08-05T10:17:18.465Z</time>
      </trkpt>
      <trkpt lat="46.99009" lon="8.68352">
        <ele>552</ele>
        <time>2021-08-05T10:17:19.465Z</time>
      </trkpt>
      <trkpt lat="46.99009" lon="8.68353">
        <ele>552</ele>
        <time>2021-08-05T10:17:20.465Z</time>
      </trkpt>
      <trkpt lat="46.99009" lon="8.68355">
        <ele>553</ele>
        <time>2021-08-05T10:17:21.464Z</time>
      </trkpt>
      <trkpt lat="46.99009" lon="8.68357">
        <ele>553</ele>
        <time>2021-08-05T10:17:22.465Z</time>
      </trkpt>
      <trkpt lat="46.99009" lon="8.68358">
        <ele>553</ele>
        <time>2021-08-05T10:17:23.465Z</time>
      </trkpt>
      <trkpt lat="46.99009" lon="8.6836">
        <ele>553</ele>
        <time>2021-08-05T10:17:24.465Z</time>
      </trkpt>
      <trkpt lat="46.99009" lon="8.68361">
        <ele>554</ele>
        <time>2021-08-05T10:17:25.465Z</time>
      </trkpt>
      <trkpt lat="46.9901" lon="8.68363">
        <ele>554</ele>
        <time>2021-08-05T10:17:26.465Z</time>
      </trkpt>
      <trkpt lat="46.9901" lon="8.68364">
        <ele>554</ele>
        <time>2021-08-05T10:17:27.464Z</time>
      </trkpt>
      <trkpt lat="46.99011" lon="8.68366">
        <ele>553</ele>
        <time>2021-08-05T10:17:28.465Z</time>
      </trkpt>
      <trkpt lat="46.99011" lon="8.68368">
        <ele>553</ele>
        <time>2021-08-05T10:17:29.464Z</time>
      </trkpt>
      <trkpt lat="46.99011" lon="8.68369">
        <ele>553</ele>
        <time>2021-08-05T10:17:30.464Z</time>
      </trkpt>
      <trkpt lat="46.99011" lon="8.68372">
        <ele>553</ele>
        <time>2021-08-05T10:17:31.465Z</time>
      </trkpt>
      <trkpt lat="46.99012" lon="8.68374">
        <ele>552</ele>
        <time>2021-08-05T10:17:32.464Z</time>
      </trkpt>
      <trkpt lat="46.99013" lon="8.68376">
        <ele>552</ele>
        <time>2021-08-05T10:17:33.465Z</time>
      </trkpt>
      <trkpt lat="46.99013" lon="8.68378">
        <ele>552</ele>
        <time>2021-08-05T10:17:34.464Z</time>
      </trkpt>
      <trkpt lat="46.99013" lon="8.6838">
        <ele>552</ele>
        <time>2021-08-05T10:17:35.464Z</time>
      </trkpt>
      <trkpt lat="46.99013" lon="8.68381">
        <ele>552</ele>
        <time>2021-08-05T10:17:36.465Z</time>
      </trkpt>
      <trkpt lat="46.99013" lon="8.68382">
        <ele>552</ele>
        <time>2021-08-05T10:17:37.465Z</time>
      </trkpt>
      <trkpt lat="46.99013" lon="8.68384">
        <ele>553</ele>
        <time>2021-08-05T10:17:38.465Z</time>
      </trkpt>
      <trkpt lat="46.99012" lon="8.68386">
        <ele>553</ele>
        <time>2021-08-05T10:17:39.464Z</time>
      </trkpt>
      <trkpt lat="46.99012" lon="8.68387">
        <ele>553</ele>
        <time>2021-08-05T10:17:40.465Z</time>
      </trkpt>
      <trkpt lat="46.99012" lon="8.68388">
        <ele>553</ele>
        <time>2021-08-05T10:17:41.464Z</time>
      </trkpt>
      <trkpt lat="46.99012" lon="8.6839">
        <ele>553</ele>
        <time>2021-08-05T10:17:42.464Z</time>
      </trkpt>
      <trkpt lat="46.99013" lon="8.68392">
        <ele>553</ele>
        <time>2021-08-05T10:17:43.465Z</time>
      </trkpt>
      <trkpt lat="46.99013" lon="8.68394">
        <ele>553</ele>
        <time>2021-08-05T10:17:44.464Z</time>
      </trkpt>
      <trkpt lat="46.99013" lon="8.68395">
        <ele>553</ele>
        <time>2021-08-05T10:17:45.465Z</time>
      </trkpt>
      <trkpt lat="46.99013" lon="8.68397">
        <ele>553</ele>
        <time>2021-08-05T10:17:46.465Z</time>
      </trkpt>
      <trkpt lat="46.99013" lon="8.68399">
        <ele>552</ele>
        <time>2021-08-05T10:17:47.465Z</time>
      </trkpt>
      <trkpt lat="46.99012" lon="8.68401">
        <ele>552</ele>
        <time>2021-08-05T10:17:48.465Z</time>
      </trkpt>
      <trkpt lat="46.99012" lon="8.68402">
        <ele>551</ele>
        <time>2021-08-05T10:17:49.465Z</time>
      </trkpt>
      <trkpt lat="46.99011" lon="8.68404">
        <ele>551</ele>
        <time>2021-08-05T10:17:50.465Z</time>
      </trkpt>
      <trkpt lat="46.99011" lon="8.68405">
        <ele>551</ele>
        <time>2021-08-05T10:17:51.465Z</time>
      </trkpt>
      <trkpt lat="46.99012" lon="8.68408">
        <ele>551</ele>
        <time>2021-08-05T10:17:52.465Z</time>
      </trkpt>
      <trkpt lat="46.99012" lon="8.6841">
        <ele>551</ele>
        <time>2021-08-05T10:17:53.464Z</time>
      </trkpt>
      <trkpt lat="46.99012" lon="8.68412">
        <ele>550</ele>
        <time>2021-08-05T10:17:54.465Z</time>
      </trkpt>
      <trkpt lat="46.99011" lon="8.68413">
        <ele>550</ele>
        <time>2021-08-05T10:17:55.465Z</time>
      </trkpt>
      <trkpt lat="46.9901" lon="8.68415">
        <ele>550</ele>
        <time>2021-08-05T10:17:56.465Z</time>
      </trkpt>
      <trkpt lat="46.99009" lon="8.68417">
        <ele>550</ele>
        <time>2021-08-05T10:17:57.465Z</time>
      </trkpt>
      <trkpt lat="46.99009" lon="8.68418">
        <ele>549</ele>
        <time>2021-08-05T10:17:58.465Z</time>
      </trkpt>
      <trkpt lat="46.99008" lon="8.6842">
        <ele>549</ele>
        <time>2021-08-05T10:17:59.464Z</time>
      </trkpt>
      <trkpt lat="46.99008" lon="8.68421">
        <ele>549</ele>
        <time>2021-08-05T10:18:00.465Z</time>
      </trkpt>
      <trkpt lat="46.99007" lon="8.68423">
        <ele>549</ele>
        <time>2021-08-05T10:18:01.465Z</time>
      </trkpt>
      <trkpt lat="46.99007" lon="8.68424">
        <ele>549</ele>
        <time>2021-08-05T10:18:02.465Z</time>
      </trkpt>
      <trkpt lat="46.99006" lon="8.68426">
        <ele>549</ele>
        <time>2021-08-05T10:18:03.465Z</time>
      </trkpt>
      <trkpt lat="46.99006" lon="8.68427">
        <ele>548</ele>
        <time>2021-08-05T10:18:04.465Z</time>
      </trkpt>
      <trkpt lat="46.99005" lon="8.68429">
        <ele>547</ele>
        <time>2021-08-05T10:18:05.465Z</time>
      </trkpt>
      <trkpt lat="46.99005" lon="8.68431">
        <ele>546</ele>
        <time>2021-08-05T10:18:06.465Z</time>
      </trkpt>
      <trkpt lat="46.99005" lon="8.68433">
        <ele>546</ele>
        <time>2021-08-05T10:18:07.465Z</time>
      </trkpt>
      <trkpt lat="46.99004" lon="8.68435">
        <ele>545</ele>
        <time>2021-08-05T10:18:08.465Z</time>
      </trkpt>
      <trkpt lat="46.99003" lon="8.68436">
        <ele>544</ele>
        <time>2021-08-05T10:18:09.464Z</time>
      </trkpt>
      <trkpt lat="46.99002" lon="8.68438">
        <ele>544</ele>
        <time>2021-08-05T10:18:10.465Z</time>
      </trkpt>
      <trkpt lat="46.99001" lon="8.68439">
        <ele>544</ele>
        <time>2021-08-05T10:18:11.465Z</time>
      </trkpt>
      <trkpt lat="46.99001" lon="8.68441">
        <ele>544</ele>
        <time>2021-08-05T10:18:12.465Z</time>
      </trkpt>
      <trkpt lat="46.99" lon="8.68443">
        <ele>544</ele>
        <time>2021-08-05T10:18:13.465Z</time>
      </trkpt>
      <trkpt lat="46.99001" lon="8.68444">
        <ele>544</ele>
        <time>2021-08-05T10:18:14.465Z</time>
      </trkpt>
      <trkpt lat="46.99001" lon="8.68447">
        <ele>544</ele>
        <time>2021-08-05T10:18:15.465Z</time>
      </trkpt>
      <trkpt lat="46.99001" lon="8.68448">
        <ele>544</ele>
        <time>2021-08-05T10:18:16.464Z</time>
      </trkpt>
      <trkpt lat="46.99" lon="8.6845">
        <ele>544</ele>
        <time>2021-08-05T10:18:17.465Z</time>
      </trkpt>
      <trkpt lat="46.99" lon="8.6845">
        <ele>545</ele>
        <time>2021-08-05T10:18:18.465Z</time>
      </trkpt>
      <trkpt lat="46.98999" lon="8.68451">
        <ele>545</ele>
        <time>2021-08-05T10:18:19.464Z</time>
      </trkpt>
      <trkpt lat="46.98998" lon="8.68453">
        <ele>545</ele>
        <time>2021-08-05T10:18:20.464Z</time>
      </trkpt>
      <trkpt lat="46.98998" lon="8.68454">
        <ele>545</ele>
        <time>2021-08-05T10:18:21.465Z</time>
      </trkpt>
      <trkpt lat="46.98997" lon="8.68455">
        <ele>546</ele>
        <time>2021-08-05T10:18:22.464Z</time>
      </trkpt>
      <trkpt lat="46.98997" lon="8.68456">
        <ele>546</ele>
        <time>2021-08-05T10:18:23.465Z</time>
      </trkpt>
      <trkpt lat="46.98996" lon="8.68457">
        <ele>547</ele>
        <time>2021-08-05T10:18:24.464Z</time>
      </trkpt>
      <trkpt lat="46.98996" lon="8.68459">
        <ele>547</ele>
        <time>2021-08-05T10:18:25.465Z</time>
      </trkpt>
      <trkpt lat="46.98995" lon="8.6846">
        <ele>548</ele>
        <time>2021-08-05T10:18:26.465Z</time>
      </trkpt>
      <trkpt lat="46.98994" lon="8.68462">
        <ele>548</ele>
        <time>2021-08-05T10:18:27.465Z</time>
      </trkpt>
      <trkpt lat="46.98994" lon="8.68464">
        <ele>549</ele>
        <time>2021-08-05T10:18:28.464Z</time>
      </trkpt>
      <trkpt lat="46.98994" lon="8.68466">
        <ele>549</ele>
        <time>2021-08-05T10:18:29.465Z</time>
      </trkpt>
      <trkpt lat="46.98994" lon="8.68467">
        <ele>549</ele>
        <time>2021-08-05T10:18:30.464Z</time>
      </trkpt>
      <trkpt lat="46.98994" lon="8.68469">
        <ele>549</ele>
        <time>2021-08-05T10:18:31.464Z</time>
      </trkpt>
      <trkpt lat="46.98993" lon="8.6847">
        <ele>549</ele>
        <time>2021-08-05T10:18:32.465Z</time>
      </trkpt>
      <trkpt lat="46.98993" lon="8.68472">
        <ele>548</ele>
        <time>2021-08-05T10:18:33.465Z</time>
      </trkpt>
      <trkpt lat="46.98992" lon="8.68473">
        <ele>548</ele>
        <time>2021-08-05T10:18:34.464Z</time>
      </trkpt>
      <trkpt lat="46.98991" lon="8.68474">
        <ele>548</ele>
        <time>2021-08-05T10:18:35.464Z</time>
      </trkpt>
      <trkpt lat="46.9899" lon="8.68475">
        <ele>548</ele>
        <time>2021-08-05T10:18:36.465Z</time>
      </trkpt>
      <trkpt lat="46.9899" lon="8.68476">
        <ele>548</ele>
        <time>2021-08-05T10:18:37.465Z</time>
      </trkpt>
      <trkpt lat="46.98989" lon="8.68478">
        <ele>548</ele>
        <time>2021-08-05T10:18:38.465Z</time>
      </trkpt>
      <trkpt lat="46.98989" lon="8.68479">
        <ele>548</ele>
        <time>2021-08-05T10:18:39.465Z</time>
      </trkpt>
      <trkpt lat="46.98988" lon="8.68481">
        <ele>548</ele>
        <time>2021-08-05T10:18:40.464Z</time>
      </trkpt>
      <trkpt lat="46.98988" lon="8.68482">
        <ele>549</ele>
        <time>2021-08-05T10:18:41.465Z</time>
      </trkpt>
      <trkpt lat="46.98987" lon="8.68483">
        <ele>549</ele>
        <time>2021-08-05T10:18:42.465Z</time>
      </trkpt>
      <trkpt lat="46.98986" lon="8.68485">
        <ele>549</ele>
        <time>2021-08-05T10:18:43.465Z</time>
      </trkpt>
      <trkpt lat="46.98985" lon="8.68486">
        <ele>550</ele>
        <time>2021-08-05T10:18:44.465Z</time>
      </trkpt>
      <trkpt lat="46.98984" lon="8.68487">
        <ele>550</ele>
        <time>2021-08-05T10:18:45.465Z</time>
      </trkpt>
      <trkpt lat="46.98984" lon="8.68489">
        <ele>551</ele>
        <time>2021-08-05T10:18:46.464Z</time>
      </trkpt>
      <trkpt lat="46.98983" lon="8.68491">
        <ele>551</ele>
        <time>2021-08-05T10:18:47.465Z</time>
      </trkpt>
      <trkpt lat="46.98983" lon="8.68492">
        <ele>552</ele>
        <time>2021-08-05T10:18:48.465Z</time>
      </trkpt>
      <trkpt lat="46.98983" lon="8.68494">
        <ele>552</ele>
        <time>2021-08-05T10:18:49.464Z</time>
      </trkpt>
      <trkpt lat="46.98982" lon="8.68496">
        <ele>553</ele>
        <time>2021-08-05T10:18:50.465Z</time>
      </trkpt>
      <trkpt lat="46.98982" lon="8.68497">
        <ele>553</ele>
        <time>2021-08-05T10:18:51.464Z</time>
      </trkpt>
      <trkpt lat="46.98982" lon="8.68499">
        <ele>554</ele>
        <time>2021-08-05T10:18:52.465Z</time>
      </trkpt>
      <trkpt lat="46.98982" lon="8.68501">
        <ele>555</ele>
        <time>2021-08-05T10:18:53.464Z</time>
      </trkpt>
      <trkpt lat="46.98981" lon="8.68502">
        <ele>555</ele>
        <time>2021-08-05T10:18:54.465Z</time>
      </trkpt>
      <trkpt lat="46.98981" lon="8.68504">
        <ele>556</ele>
        <time>2021-08-05T10:18:55.465Z</time>
      </trkpt>
      <trkpt lat="46.9898" lon="8.68505">
        <ele>556</ele>
        <time>2021-08-05T10:18:56.464Z</time>
      </trkpt>
      <trkpt lat="46.9898" lon="8.68507">
        <ele>556</ele>
        <time>2021-08-05T10:18:57.464Z</time>
      </trkpt>
      <trkpt lat="46.9898" lon="8.68509">
        <ele>556</ele>
        <time>2021-08-05T10:18:58.465Z</time>
      </trkpt>
      <trkpt lat="46.9898" lon="8.68511">
        <ele>556</ele>
        <time>2021-08-05T10:18:59.465Z</time>
      </trkpt>
      <trkpt lat="46.98979" lon="8.68513">
        <ele>556</ele>
        <time>2021-08-05T10:19:00.465Z</time>
      </trkpt>
      <trkpt lat="46.98978" lon="8.68514">
        <ele>556</ele>
        <time>2021-08-05T10:19:01.465Z</time>
      </trkpt>
      <trkpt lat="46.98978" lon="8.68517">
        <ele>557</ele>
        <time>2021-08-05T10:19:02.465Z</time>
      </trkpt>
      <trkpt lat="46.98978" lon="8.68518">
        <ele>556</ele>
        <time>2021-08-05T10:19:03.465Z</time>
      </trkpt>
      <trkpt lat="46.98978" lon="8.6852">
        <ele>556</ele>
        <time>2021-08-05T10:19:04.465Z</time>
      </trkpt>
      <trkpt lat="46.98978" lon="8.68522">
        <ele>556</ele>
        <time>2021-08-05T10:19:05.465Z</time>
      </trkpt>
      <trkpt lat="46.98979" lon="8.68524">
        <ele>556</ele>
        <time>2021-08-05T10:19:06.464Z</time>
      </trkpt>
      <trkpt lat="46.98979" lon="8.68527">
        <ele>556</ele>
        <time>2021-08-05T10:19:07.465Z</time>
      </trkpt>
      <trkpt lat="46.98979" lon="8.68529">
        <ele>555</ele>
        <time>2021-08-05T10:19:08.464Z</time>
      </trkpt>
      <trkpt lat="46.98979" lon="8.68532">
        <ele>555</ele>
        <time>2021-08-05T10:19:09.465Z</time>
      </trkpt>
      <trkpt lat="46.98979" lon="8.68535">
        <ele>555</ele>
        <time>2021-08-05T10:19:10.465Z</time>
      </trkpt>
      <trkpt lat="46.98979" lon="8.68537">
        <ele>555</ele>
        <time>2021-08-05T10:19:11.465Z</time>
      </trkpt>
      <trkpt lat="46.98979" lon="8.68539">
        <ele>556</ele>
        <time>2021-08-05T10:19:12.464Z</time>
      </trkpt>
      <trkpt lat="46.9898" lon="8.68541">
        <ele>556</ele>
        <time>2021-08-05T10:19:13.464Z</time>
      </trkpt>
      <trkpt lat="46.98979" lon="8.68543">
        <ele>556</ele>
        <time>2021-08-05T10:19:14.465Z</time>
      </trkpt>
      <trkpt lat="46.9898" lon="8.68546">
        <ele>556</ele>
        <time>2021-08-05T10:19:15.465Z</time>
      </trkpt>
      <trkpt lat="46.9898" lon="8.68548">
        <ele>556</ele>
        <time>2021-08-05T10:19:16.465Z</time>
      </trkpt>
      <trkpt lat="46.98981" lon="8.6855">
        <ele>557</ele>
        <time>2021-08-05T10:19:17.465Z</time>
      </trkpt>
      <trkpt lat="46.98981" lon="8.68551">
        <ele>556</ele>
        <time>2021-08-05T10:19:18.465Z</time>
      </trkpt>
      <trkpt lat="46.98981" lon="8.68554">
        <ele>556</ele>
        <time>2021-08-05T10:19:19.465Z</time>
      </trkpt>
      <trkpt lat="46.98981" lon="8.68556">
        <ele>556</ele>
        <time>2021-08-05T10:19:20.465Z</time>
      </trkpt>
      <trkpt lat="46.98981" lon="8.68557">
        <ele>556</ele>
        <time>2021-08-05T10:19:21.464Z</time>
      </trkpt>
      <trkpt lat="46.98982" lon="8.68559">
        <ele>556</ele>
        <time>2021-08-05T10:19:22.465Z</time>
      </trkpt>
      <trkpt lat="46.98982" lon="8.6856">
        <ele>556</ele>
        <time>2021-08-05T10:19:23.465Z</time>
      </trkpt>
      <trkpt lat="46.98983" lon="8.68562">
        <ele>556</ele>
        <time>2021-08-05T10:19:24.464Z</time>
      </trkpt>
      <trkpt lat="46.98983" lon="8.68564">
        <ele>556</ele>
        <time>2021-08-05T10:19:25.465Z</time>
      </trkpt>
      <trkpt lat="46.98983" lon="8.68566">
        <ele>556</ele>
        <time>2021-08-05T10:19:26.465Z</time>
      </trkpt>
      <trkpt lat="46.98984" lon="8.68567">
        <ele>556</ele>
        <time>2021-08-05T10:19:27.465Z</time>
      </trkpt>
      <trkpt lat="46.98984" lon="8.68569">
        <ele>557</ele>
        <time>2021-08-05T10:19:28.465Z</time>
      </trkpt>
      <trkpt lat="46.98985" lon="8.68572">
        <ele>557</ele>
        <time>2021-08-05T10:19:29.465Z</time>
      </trkpt>
      <trkpt lat="46.98985" lon="8.68574">
        <ele>557</ele>
        <time>2021-08-05T10:19:30.465Z</time>
      </trkpt>
      <trkpt lat="46.98985" lon="8.68576">
        <ele>557</ele>
        <time>2021-08-05T10:19:31.464Z</time>
      </trkpt>
      <trkpt lat="46.98986" lon="8.68579">
        <ele>557</ele>
        <time>2021-08-05T10:19:32.465Z</time>
      </trkpt>
      <trkpt lat="46.98987" lon="8.68581">
        <ele>557</ele>
        <time>2021-08-05T10:19:33.464Z</time>
      </trkpt>
      <trkpt lat="46.98988" lon="8.68583">
        <ele>557</ele>
        <time>2021-08-05T10:19:34.465Z</time>
      </trkpt>
      <trkpt lat="46.98989" lon="8.68585">
        <ele>558</ele>
        <time>2021-08-05T10:19:35.465Z</time>
      </trkpt>
      <trkpt lat="46.9899" lon="8.68587">
        <ele>558</ele>
        <time>2021-08-05T10:19:36.464Z</time>
      </trkpt>
      <trkpt lat="46.9899" lon="8.68589">
        <ele>558</ele>
        <time>2021-08-05T10:19:37.464Z</time>
      </trkpt>
      <trkpt lat="46.98991" lon="8.68591">
        <ele>557</ele>
        <time>2021-08-05T10:19:38.464Z</time>
      </trkpt>
      <trkpt lat="46.98993" lon="8.68592">
        <ele>557</ele>
        <time>2021-08-05T10:19:39.465Z</time>
      </trkpt>
      <trkpt lat="46.98993" lon="8.68593">
        <ele>557</ele>
        <time>2021-08-05T10:19:40.465Z</time>
      </trkpt>
      <trkpt lat="46.98994" lon="8.68596">
        <ele>556</ele>
        <time>2021-08-05T10:19:41.464Z</time>
      </trkpt>
      <trkpt lat="46.98994" lon="8.68598">
        <ele>556</ele>
        <time>2021-08-05T10:19:42.465Z</time>
      </trkpt>
      <trkpt lat="46.98995" lon="8.686">
        <ele>556</ele>
        <time>2021-08-05T10:19:43.465Z</time>
      </trkpt>
      <trkpt lat="46.98996" lon="8.68601">
        <ele>556</ele>
        <time>2021-08-05T10:19:44.465Z</time>
      </trkpt>
      <trkpt lat="46.98997" lon="8.68602">
        <ele>556</ele>
        <time>2021-08-05T10:19:45.464Z</time>
      </trkpt>
      <trkpt lat="46.98998" lon="8.68603">
        <ele>556</ele>
        <time>2021-08-05T10:19:46.465Z</time>
      </trkpt>
      <trkpt lat="46.98999" lon="8.68604">
        <ele>556</ele>
        <time>2021-08-05T10:19:47.465Z</time>
      </trkpt>
      <trkpt lat="46.99" lon="8.68603">
        <ele>556</ele>
        <time>2021-08-05T10:19:48.465Z</time>
      </trkpt>
      <trkpt lat="46.99001" lon="8.68603">
        <ele>556</ele>
        <time>2021-08-05T10:19:49.465Z</time>
      </trkpt>
      <trkpt lat="46.99002" lon="8.68603">
        <ele>556</ele>
        <time>2021-08-05T10:19:50.464Z</time>
      </trkpt>
      <trkpt lat="46.99002" lon="8.68603">
        <ele>555</ele>
        <time>2021-08-05T10:19:51.465Z</time>
      </trkpt>
      <trkpt lat="46.99001" lon="8.68604">
        <ele>555</ele>
        <time>2021-08-05T10:19:52.465Z</time>
      </trkpt>
      <trkpt lat="46.99" lon="8.68607">
        <ele>554</ele>
        <time>2021-08-05T10:19:53.466Z</time>
      </trkpt>
      <trkpt lat="46.99" lon="8.68607">
        <ele>554</ele>
        <time>2021-08-05T10:19:54.465Z</time>
      </trkpt>
      <trkpt lat="46.99001" lon="8.68606">
        <ele>554</ele>
        <time>2021-08-05T10:19:55.466Z</time>
      </trkpt>
      <trkpt lat="46.99002" lon="8.68607">
        <ele>554</ele>
        <time>2021-08-05T10:19:56.465Z</time>
      </trkpt>
      <trkpt lat="46.99003" lon="8.68606">
        <ele>554</ele>
        <time>2021-08-05T10:19:57.466Z</time>
      </trkpt>
      <trkpt lat="46.99003" lon="8.68607">
        <ele>554</ele>
        <time>2021-08-05T10:19:58.466Z</time>
      </trkpt>
      <trkpt lat="46.99003" lon="8.68611">
        <ele>557</ele>
        <time>2021-08-05T10:19:59.467Z</time>
      </trkpt>
      <trkpt lat="46.99003" lon="8.68611">
        <ele>557</ele>
        <time>2021-08-05T10:20:00.467Z</time>
      </trkpt>
      <trkpt lat="46.99002" lon="8.68611">
        <ele>558</ele>
        <time>2021-08-05T10:20:01.468Z</time>
      </trkpt>
      <trkpt lat="46.99002" lon="8.6861">
        <ele>558</ele>
        <time>2021-08-05T10:20:02.467Z</time>
      </trkpt>
      <trkpt lat="46.99002" lon="8.68611">
        <ele>558</ele>
        <time>2021-08-05T10:20:03.467Z</time>
      </trkpt>
      <trkpt lat="46.99003" lon="8.68613">
        <ele>558</ele>
        <time>2021-08-05T10:20:04.467Z</time>
      </trkpt>
      <trkpt lat="46.99003" lon="8.68614">
        <ele>558</ele>
        <time>2021-08-05T10:20:05.467Z</time>
      </trkpt>
      <trkpt lat="46.99003" lon="8.68616">
        <ele>558</ele>
        <time>2021-08-05T10:20:06.467Z</time>
      </trkpt>
      <trkpt lat="46.99003" lon="8.68618">
        <ele>558</ele>
        <time>2021-08-05T10:20:07.467Z</time>
      </trkpt>
      <trkpt lat="46.99004" lon="8.6862">
        <ele>559</ele>
        <time>2021-08-05T10:20:08.468Z</time>
      </trkpt>
      <trkpt lat="46.99004" lon="8.68621">
        <ele>559</ele>
        <time>2021-08-05T10:20:09.467Z</time>
      </trkpt>
      <trkpt lat="46.99005" lon="8.68623">
        <ele>560</ele>
        <time>2021-08-05T10:20:10.467Z</time>
      </trkpt>
      <trkpt lat="46.99005" lon="8.68624">
        <ele>560</ele>
        <time>2021-08-05T10:20:11.467Z</time>
      </trkpt>
      <trkpt lat="46.99006" lon="8.68625">
        <ele>561</ele>
        <time>2021-08-05T10:20:12.467Z</time>
      </trkpt>
      <trkpt lat="46.99007" lon="8.68627">
        <ele>562</ele>
        <time>2021-08-05T10:20:13.467Z</time>
      </trkpt>
      <trkpt lat="46.99008" lon="8.68629">
        <ele>563</ele>
        <time>2021-08-05T10:20:14.467Z</time>
      </trkpt>
      <trkpt lat="46.99008" lon="8.68631">
        <ele>564</ele>
        <time>2021-08-05T10:20:15.467Z</time>
      </trkpt>
      <trkpt lat="46.99009" lon="8.68634">
        <ele>565</ele>
        <time>2021-08-05T10:20:16.467Z</time>
      </trkpt>
      <trkpt lat="46.9901" lon="8.68635">
        <ele>566</ele>
        <time>2021-08-05T10:20:17.467Z</time>
      </trkpt>
      <trkpt lat="46.99011" lon="8.68637">
        <ele>566</ele>
        <time>2021-08-05T10:20:18.467Z</time>
      </trkpt>
      <trkpt lat="46.99012" lon="8.68639">
        <ele>567</ele>
        <time>2021-08-05T10:20:19.467Z</time>
      </trkpt>
      <trkpt lat="46.99013" lon="8.6864">
        <ele>568</ele>
        <time>2021-08-05T10:20:20.468Z</time>
      </trkpt>
      <trkpt lat="46.99013" lon="8.68642">
        <ele>569</ele>
        <time>2021-08-05T10:20:21.467Z</time>
      </trkpt>
      <trkpt lat="46.99013" lon="8.68645">
        <ele>570</ele>
        <time>2021-08-05T10:20:22.467Z</time>
      </trkpt>
      <trkpt lat="46.99014" lon="8.68647">
        <ele>570</ele>
        <time>2021-08-05T10:20:23.467Z</time>
      </trkpt>
      <trkpt lat="46.99014" lon="8.68649">
        <ele>571</ele>
        <time>2021-08-05T10:20:24.467Z</time>
      </trkpt>
      <trkpt lat="46.99015" lon="8.6865">
        <ele>572</ele>
        <time>2021-08-05T10:20:25.467Z</time>
      </trkpt>
      <trkpt lat="46.99015" lon="8.68652">
        <ele>573</ele>
        <time>2021-08-05T10:20:26.468Z</time>
      </trkpt>
      <trkpt lat="46.99016" lon="8.68654">
        <ele>574</ele>
        <time>2021-08-05T10:20:27.467Z</time>
      </trkpt>
      <trkpt lat="46.99015" lon="8.68655">
        <ele>575</ele>
        <time>2021-08-05T10:20:28.467Z</time>
      </trkpt>
      <trkpt lat="46.99015" lon="8.68656">
        <ele>575</ele>
        <time>2021-08-05T10:20:29.467Z</time>
      </trkpt>
      <trkpt lat="46.99014" lon="8.68652">
        <ele>576</ele>
        <time>2021-08-05T10:20:30.468Z</time>
      </trkpt>
      <trkpt lat="46.99014" lon="8.68649">
        <ele>576</ele>
        <time>2021-08-05T10:20:31.467Z</time>
      </trkpt>
      <trkpt lat="46.99014" lon="8.68648">
        <ele>576</ele>
        <time>2021-08-05T10:20:32.467Z</time>
      </trkpt>
      <trkpt lat="46.99014" lon="8.68649">
        <ele>576</ele>
        <time>2021-08-05T10:20:33.467Z</time>
      </trkpt>
      <trkpt lat="46.99015" lon="8.6865">
        <ele>576</ele>
        <time>2021-08-05T10:20:34.468Z</time>
      </trkpt>
      <trkpt lat="46.99016" lon="8.68651">
        <ele>575</ele>
        <time>2021-08-05T10:20:35.467Z</time>
      </trkpt>
      <trkpt lat="46.99017" lon="8.68653">
        <ele>574</ele>
        <time>2021-08-05T10:20:36.467Z</time>
      </trkpt>
      <trkpt lat="46.99017" lon="8.68654">
        <ele>574</ele>
        <time>2021-08-05T10:20:37.468Z</time>
      </trkpt>
      <trkpt lat="46.99018" lon="8.68655">
        <ele>573</ele>
        <time>2021-08-05T10:20:38.467Z</time>
      </trkpt>
      <trkpt lat="46.99019" lon="8.68657">
        <ele>573</ele>
        <time>2021-08-05T10:20:39.467Z</time>
      </trkpt>
      <trkpt lat="46.99019" lon="8.68659">
        <ele>573</ele>
        <time>2021-08-05T10:20:40.468Z</time>
      </trkpt>
      <trkpt lat="46.9902" lon="8.68661">
        <ele>572</ele>
        <time>2021-08-05T10:20:41.467Z</time>
      </trkpt>
      <trkpt lat="46.9902" lon="8.68663">
        <ele>572</ele>
        <time>2021-08-05T10:20:42.467Z</time>
      </trkpt>
      <trkpt lat="46.99021" lon="8.68665">
        <ele>571</ele>
        <time>2021-08-05T10:20:43.467Z</time>
      </trkpt>
      <trkpt lat="46.99022" lon="8.68666">
        <ele>571</ele>
        <time>2021-08-05T10:20:44.467Z</time>
      </trkpt>
      <trkpt lat="46.99022" lon="8.68666">
        <ele>571</ele>
        <time>2021-08-05T10:20:45.467Z</time>
      </trkpt>
      <trkpt lat="46.99023" lon="8.68667">
        <ele>570</ele>
        <time>2021-08-05T10:20:46.467Z</time>
      </trkpt>
      <trkpt lat="46.99024" lon="8.68668">
        <ele>570</ele>
        <time>2021-08-05T10:20:47.467Z</time>
      </trkpt>
      <trkpt lat="46.99025" lon="8.68669">
        <ele>569</ele>
        <time>2021-08-05T10:20:48.467Z</time>
      </trkpt>
      <trkpt lat="46.99026" lon="8.68671">
        <ele>569</ele>
        <time>2021-08-05T10:20:49.467Z</time>
      </trkpt>
      <trkpt lat="46.99027" lon="8.68673">
        <ele>568</ele>
        <time>2021-08-05T10:20:50.467Z</time>
      </trkpt>
      <trkpt lat="46.99028" lon="8.68675">
        <ele>568</ele>
        <time>2021-08-05T10:20:51.467Z</time>
      </trkpt>
      <trkpt lat="46.99028" lon="8.68677">
        <ele>568</ele>
        <time>2021-08-05T10:20:52.468Z</time>
      </trkpt>
      <trkpt lat="46.99029" lon="8.6868">
        <ele>568</ele>
        <time>2021-08-05T10:20:53.468Z</time>
      </trkpt>
      <trkpt lat="46.99029" lon="8.68681">
        <ele>568</ele>
        <time>2021-08-05T10:20:54.467Z</time>
      </trkpt>
      <trkpt lat="46.9903" lon="8.68683">
        <ele>568</ele>
        <time>2021-08-05T10:20:55.467Z</time>
      </trkpt>
      <trkpt lat="46.99031" lon="8.68686">
        <ele>568</ele>
        <time>2021-08-05T10:20:56.468Z</time>
      </trkpt>
      <trkpt lat="46.99032" lon="8.68689">
        <ele>567</ele>
        <time>2021-08-05T10:20:57.468Z</time>
      </trkpt>
      <trkpt lat="46.99032" lon="8.68691">
        <ele>567</ele>
        <time>2021-08-05T10:20:58.468Z</time>
      </trkpt>
      <trkpt lat="46.99033" lon="8.68693">
        <ele>567</ele>
        <time>2021-08-05T10:20:59.467Z</time>
      </trkpt>
      <trkpt lat="46.99034" lon="8.68695">
        <ele>567</ele>
        <time>2021-08-05T10:21:00.467Z</time>
      </trkpt>
      <trkpt lat="46.99034" lon="8.68696">
        <ele>566</ele>
        <time>2021-08-05T10:21:01.467Z</time>
      </trkpt>
      <trkpt lat="46.99035" lon="8.68697">
        <ele>566</ele>
        <time>2021-08-05T10:21:02.468Z</time>
      </trkpt>
      <trkpt lat="46.99035" lon="8.68699">
        <ele>566</ele>
        <time>2021-08-05T10:21:03.467Z</time>
      </trkpt>
      <trkpt lat="46.99036" lon="8.68699">
        <ele>566</ele>
        <time>2021-08-05T10:21:04.467Z</time>
      </trkpt>
      <trkpt lat="46.99036" lon="8.68701">
        <ele>566</ele>
        <time>2021-08-05T10:21:05.467Z</time>
      </trkpt>
      <trkpt lat="46.99037" lon="8.68702">
        <ele>566</ele>
        <time>2021-08-05T10:21:06.468Z</time>
      </trkpt>
      <trkpt lat="46.99037" lon="8.68704">
        <ele>566</ele>
        <time>2021-08-05T10:21:07.467Z</time>
      </trkpt>
      <trkpt lat="46.99038" lon="8.68706">
        <ele>566</ele>
        <time>2021-08-05T10:21:08.467Z</time>
      </trkpt>
      <trkpt lat="46.99038" lon="8.68708">
        <ele>565</ele>
        <time>2021-08-05T10:21:09.467Z</time>
      </trkpt>
      <trkpt lat="46.99038" lon="8.68708">
        <ele>565</ele>
        <time>2021-08-05T10:21:10.467Z</time>
      </trkpt>
      <trkpt lat="46.99037" lon="8.68709">
        <ele>565</ele>
        <time>2021-08-05T10:21:11.467Z</time>
      </trkpt>
      <trkpt lat="46.99038" lon="8.68712">
        <ele>565</ele>
        <time>2021-08-05T10:21:12.467Z</time>
      </trkpt>
      <trkpt lat="46.99038" lon="8.68714">
        <ele>565</ele>
        <time>2021-08-05T10:21:13.467Z</time>
      </trkpt>
      <trkpt lat="46.99038" lon="8.68717">
        <ele>565</ele>
        <time>2021-08-05T10:21:14.467Z</time>
      </trkpt>
      <trkpt lat="46.99039" lon="8.6872">
        <ele>566</ele>
        <time>2021-08-05T10:21:15.467Z</time>
      </trkpt>
      <trkpt lat="46.9904" lon="8.68722">
        <ele>566</ele>
        <time>2021-08-05T10:21:16.468Z</time>
      </trkpt>
      <trkpt lat="46.99041" lon="8.68724">
        <ele>566</ele>
        <time>2021-08-05T10:21:17.467Z</time>
      </trkpt>
      <trkpt lat="46.99041" lon="8.68726">
        <ele>566</ele>
        <time>2021-08-05T10:21:18.467Z</time>
      </trkpt>
      <trkpt lat="46.99041" lon="8.68726">
        <ele>566</ele>
        <time>2021-08-05T10:21:19.467Z</time>
      </trkpt>
      <trkpt lat="46.99041" lon="8.68727">
        <ele>567</ele>
        <time>2021-08-05T10:21:20.468Z</time>
      </trkpt>
      <trkpt lat="46.99042" lon="8.68728">
        <ele>567</ele>
        <time>2021-08-05T10:21:21.467Z</time>
      </trkpt>
      <trkpt lat="46.99044" lon="8.6873">
        <ele>567</ele>
        <time>2021-08-05T10:21:22.467Z</time>
      </trkpt>
      <trkpt lat="46.99045" lon="8.6873">
        <ele>567</ele>
        <time>2021-08-05T10:21:23.467Z</time>
      </trkpt>
      <trkpt lat="46.99046" lon="8.68731">
        <ele>567</ele>
        <time>2021-08-05T10:21:24.467Z</time>
      </trkpt>
      <trkpt lat="46.99046" lon="8.68733">
        <ele>567</ele>
        <time>2021-08-05T10:21:25.468Z</time>
      </trkpt>
      <trkpt lat="46.99046" lon="8.68734">
        <ele>566</ele>
        <time>2021-08-05T10:21:26.467Z</time>
      </trkpt>
      <trkpt lat="46.99047" lon="8.68735">
        <ele>566</ele>
        <time>2021-08-05T10:21:27.467Z</time>
      </trkpt>
      <trkpt lat="46.99047" lon="8.68737">
        <ele>566</ele>
        <time>2021-08-05T10:21:28.467Z</time>
      </trkpt>
      <trkpt lat="46.99048" lon="8.68738">
        <ele>566</ele>
        <time>2021-08-05T10:21:29.467Z</time>
      </trkpt>
      <trkpt lat="46.99048" lon="8.68739">
        <ele>566</ele>
        <time>2021-08-05T10:21:30.467Z</time>
      </trkpt>
      <trkpt lat="46.99049" lon="8.6874">
        <ele>566</ele>
        <time>2021-08-05T10:21:31.467Z</time>
      </trkpt>
      <trkpt lat="46.99049" lon="8.68741">
        <ele>566</ele>
        <time>2021-08-05T10:21:32.467Z</time>
      </trkpt>
      <trkpt lat="46.9905" lon="8.68742">
        <ele>565</ele>
        <time>2021-08-05T10:21:33.467Z</time>
      </trkpt>
      <trkpt lat="46.9905" lon="8.68743">
        <ele>565</ele>
        <time>2021-08-05T10:21:34.468Z</time>
      </trkpt>
      <trkpt lat="46.99051" lon="8.68744">
        <ele>565</ele>
        <time>2021-08-05T10:21:35.467Z</time>
      </trkpt>
      <trkpt lat="46.99052" lon="8.68745">
        <ele>565</ele>
        <time>2021-08-05T10:21:36.467Z</time>
      </trkpt>
      <trkpt lat="46.99052" lon="8.68746">
        <ele>565</ele>
        <time>2021-08-05T10:21:37.468Z</time>
      </trkpt>
      <trkpt lat="46.99052" lon="8.68747">
        <ele>565</ele>
        <time>2021-08-05T10:21:38.468Z</time>
      </trkpt>
      <trkpt lat="46.99053" lon="8.68748">
        <ele>565</ele>
        <time>2021-08-05T10:21:39.467Z</time>
      </trkpt>
      <trkpt lat="46.99054" lon="8.68749">
        <ele>564</ele>
        <time>2021-08-05T10:21:40.467Z</time>
      </trkpt>
      <trkpt lat="46.99054" lon="8.6875">
        <ele>564</ele>
        <time>2021-08-05T10:21:41.467Z</time>
      </trkpt>
      <trkpt lat="46.99055" lon="8.6875">
        <ele>564</ele>
        <time>2021-08-05T10:21:42.467Z</time>
      </trkpt>
      <trkpt lat="46.99056" lon="8.68751">
        <ele>564</ele>
        <time>2021-08-05T10:21:43.468Z</time>
      </trkpt>
      <trkpt lat="46.99057" lon="8.68752">
        <ele>564</ele>
        <time>2021-08-05T10:21:44.467Z</time>
      </trkpt>
      <trkpt lat="46.99059" lon="8.68752">
        <ele>563</ele>
        <time>2021-08-05T10:21:45.467Z</time>
      </trkpt>
      <trkpt lat="46.9906" lon="8.68753">
        <ele>563</ele>
        <time>2021-08-05T10:21:46.467Z</time>
      </trkpt>
      <trkpt lat="46.99061" lon="8.68753">
        <ele>563</ele>
        <time>2021-08-05T10:21:47.467Z</time>
      </trkpt>
      <trkpt lat="46.99062" lon="8.68753">
        <ele>563</ele>
        <time>2021-08-05T10:21:48.467Z</time>
      </trkpt>
      <trkpt lat="46.99064" lon="8.68753">
        <ele>563</ele>
        <time>2021-08-05T10:21:49.468Z</time>
      </trkpt>
      <trkpt lat="46.99066" lon="8.68753">
        <ele>563</ele>
        <time>2021-08-05T10:21:50.467Z</time>
      </trkpt>
      <trkpt lat="46.99067" lon="8.68753">
        <ele>563</ele>
        <time>2021-08-05T10:21:51.467Z</time>
      </trkpt>
      <trkpt lat="46.99068" lon="8.68754">
        <ele>563</ele>
        <time>2021-08-05T10:21:52.467Z</time>
      </trkpt>
      <trkpt lat="46.99068" lon="8.68754">
        <ele>562</ele>
        <time>2021-08-05T10:21:53.467Z</time>
      </trkpt>
      <trkpt lat="46.99068" lon="8.68755">
        <ele>562</ele>
        <time>2021-08-05T10:21:54.468Z</time>
      </trkpt>
      <trkpt lat="46.99068" lon="8.68756">
        <ele>562</ele>
        <time>2021-08-05T10:21:55.467Z</time>
      </trkpt>
      <trkpt lat="46.99068" lon="8.68756">
        <ele>561</ele>
        <time>2021-08-05T10:21:56.468Z</time>
      </trkpt>
      <trkpt lat="46.99068" lon="8.68757">
        <ele>561</ele>
        <time>2021-08-05T10:21:57.467Z</time>
      </trkpt>
      <trkpt lat="46.99068" lon="8.68758">
        <ele>560</ele>
        <time>2021-08-05T10:21:58.467Z</time>
      </trkpt>
      <trkpt lat="46.99068" lon="8.68759">
        <ele>559</ele>
        <time>2021-08-05T10:21:59.468Z</time>
      </trkpt>
      <trkpt lat="46.99068" lon="8.6876">
        <ele>559</ele>
        <time>2021-08-05T10:22:00.467Z</time>
      </trkpt>
      <trkpt lat="46.99066" lon="8.68761">
        <ele>558</ele>
        <time>2021-08-05T10:22:01.468Z</time>
      </trkpt>
      <trkpt lat="46.99065" lon="8.68762">
        <ele>558</ele>
        <time>2021-08-05T10:22:02.467Z</time>
      </trkpt>
      <trkpt lat="46.99065" lon="8.68763">
        <ele>557</ele>
        <time>2021-08-05T10:22:03.467Z</time>
      </trkpt>
      <trkpt lat="46.99065" lon="8.68765">
        <ele>557</ele>
        <time>2021-08-05T10:22:04.468Z</time>
      </trkpt>
      <trkpt lat="46.99065" lon="8.68766">
        <ele>557</ele>
        <time>2021-08-05T10:22:05.467Z</time>
      </trkpt>
      <trkpt lat="46.99065" lon="8.68767">
        <ele>556</ele>
        <time>2021-08-05T10:22:06.468Z</time>
      </trkpt>
      <trkpt lat="46.99065" lon="8.68767">
        <ele>556</ele>
        <time>2021-08-05T10:22:07.468Z</time>
      </trkpt>
      <trkpt lat="46.99064" lon="8.68767">
        <ele>556</ele>
        <time>2021-08-05T10:22:08.467Z</time>
      </trkpt>
      <trkpt lat="46.99064" lon="8.68767">
        <ele>556</ele>
        <time>2021-08-05T10:22:09.467Z</time>
      </trkpt>
      <trkpt lat="46.99062" lon="8.68771">
        <ele>556</ele>
        <time>2021-08-05T10:22:10.468Z</time>
      </trkpt>
      <trkpt lat="46.99063" lon="8.68772">
        <ele>555</ele>
        <time>2021-08-05T10:22:11.467Z</time>
      </trkpt>
      <trkpt lat="46.99063" lon="8.68772">
        <ele>555</ele>
        <time>2021-08-05T10:22:12.467Z</time>
      </trkpt>
      <trkpt lat="46.99062" lon="8.68772">
        <ele>555</ele>
        <time>2021-08-05T10:22:13.468Z</time>
      </trkpt>
      <trkpt lat="46.99062" lon="8.68772">
        <ele>554</ele>
        <time>2021-08-05T10:22:14.468Z</time>
      </trkpt>
      <trkpt lat="46.99061" lon="8.68772">
        <ele>554</ele>
        <time>2021-08-05T10:22:15.468Z</time>
      </trkpt>
      <trkpt lat="46.9906" lon="8.68771">
        <ele>553</ele>
        <time>2021-08-05T10:22:16.468Z</time>
      </trkpt>
      <trkpt lat="46.99058" lon="8.68771">
        <ele>553</ele>
        <time>2021-08-05T10:22:17.468Z</time>
      </trkpt>
      <trkpt lat="46.99057" lon="8.68771">
        <ele>553</ele>
        <time>2021-08-05T10:22:18.468Z</time>
      </trkpt>
      <trkpt lat="46.99056" lon="8.68771">
        <ele>553</ele>
        <time>2021-08-05T10:22:19.468Z</time>
      </trkpt>
      <trkpt lat="46.99054" lon="8.68771">
        <ele>552</ele>
        <time>2021-08-05T10:22:20.468Z</time>
      </trkpt>
      <trkpt lat="46.99054" lon="8.68771">
        <ele>552</ele>
        <time>2021-08-05T10:22:21.468Z</time>
      </trkpt>
      <trkpt lat="46.99054" lon="8.6877">
        <ele>552</ele>
        <time>2021-08-05T10:22:22.467Z</time>
      </trkpt>
      <trkpt lat="46.99052" lon="8.6877">
        <ele>552</ele>
        <time>2021-08-05T10:22:23.467Z</time>
      </trkpt>
      <trkpt lat="46.99051" lon="8.68769">
        <ele>552</ele>
        <time>2021-08-05T10:22:24.468Z</time>
      </trkpt>
      <trkpt lat="46.9905" lon="8.68769">
        <ele>552</ele>
        <time>2021-08-05T10:22:25.467Z</time>
      </trkpt>
      <trkpt lat="46.9905" lon="8.68768">
        <ele>552</ele>
        <time>2021-08-05T10:22:26.468Z</time>
      </trkpt>
      <trkpt lat="46.99051" lon="8.68768">
        <ele>552</ele>
        <time>2021-08-05T10:22:27.468Z</time>
      </trkpt>
      <trkpt lat="46.99052" lon="8.68771">
        <ele>552</ele>
        <time>2021-08-05T10:22:28.468Z</time>
      </trkpt>
      <trkpt lat="46.99053" lon="8.68773">
        <ele>552</ele>
        <time>2021-08-05T10:22:29.467Z</time>
      </trkpt>
      <trkpt lat="46.99054" lon="8.68774">
        <ele>552</ele>
        <time>2021-08-05T10:22:30.467Z</time>
      </trkpt>
      <trkpt lat="46.99054" lon="8.68776">
        <ele>552</ele>
        <time>2021-08-05T10:22:31.468Z</time>
      </trkpt>
      <trkpt lat="46.99055" lon="8.68777">
        <ele>553</ele>
        <time>2021-08-05T10:22:32.467Z</time>
      </trkpt>
      <trkpt lat="46.99056" lon="8.68778">
        <ele>553</ele>
        <time>2021-08-05T10:22:33.468Z</time>
      </trkpt>
      <trkpt lat="46.99057" lon="8.68779">
        <ele>553</ele>
        <time>2021-08-05T10:22:34.468Z</time>
      </trkpt>
      <trkpt lat="46.99058" lon="8.68779">
        <ele>554</ele>
        <time>2021-08-05T10:22:35.468Z</time>
      </trkpt>
      <trkpt lat="46.99059" lon="8.68779">
        <ele>555</ele>
        <time>2021-08-05T10:22:36.468Z</time>
      </trkpt>
      <trkpt lat="46.99059" lon="8.68779">
        <ele>556</ele>
        <time>2021-08-05T10:22:37.468Z</time>
      </trkpt>
      <trkpt lat="46.9906" lon="8.6878">
        <ele>557</ele>
        <time>2021-08-05T10:22:38.468Z</time>
      </trkpt>
      <trkpt lat="46.99061" lon="8.6878">
        <ele>558</ele>
        <time>2021-08-05T10:22:39.468Z</time>
      </trkpt>
      <trkpt lat="46.99062" lon="8.68781">
        <ele>559</ele>
        <time>2021-08-05T10:22:40.468Z</time>
      </trkpt>
      <trkpt lat="46.99063" lon="8.68781">
        <ele>560</ele>
        <time>2021-08-05T10:22:41.468Z</time>
      </trkpt>
      <trkpt lat="46.99064" lon="8.68782">
        <ele>560</ele>
        <time>2021-08-05T10:22:42.467Z</time>
      </trkpt>
      <trkpt lat="46.99065" lon="8.68782">
        <ele>561</ele>
        <time>2021-08-05T10:22:43.467Z</time>
      </trkpt>
      <trkpt lat="46.99066" lon="8.68784">
        <ele>561</ele>
        <time>2021-08-05T10:22:44.467Z</time>
      </trkpt>
      <trkpt lat="46.99067" lon="8.68785">
        <ele>561</ele>
        <time>2021-08-05T10:22:45.467Z</time>
      </trkpt>
      <trkpt lat="46.99068" lon="8.68786">
        <ele>561</ele>
        <time>2021-08-05T10:22:46.467Z</time>
      </trkpt>
      <trkpt lat="46.99069" lon="8.68788">
        <ele>561</ele>
        <time>2021-08-05T10:22:47.467Z</time>
      </trkpt>
      <trkpt lat="46.9907" lon="8.68789">
        <ele>561</ele>
        <time>2021-08-05T10:22:48.467Z</time>
      </trkpt>
      <trkpt lat="46.99071" lon="8.68791">
        <ele>561</ele>
        <time>2021-08-05T10:22:49.467Z</time>
      </trkpt>
      <trkpt lat="46.99072" lon="8.68794">
        <ele>562</ele>
        <time>2021-08-05T10:22:50.467Z</time>
      </trkpt>
      <trkpt lat="46.99073" lon="8.68797">
        <ele>562</ele>
        <time>2021-08-05T10:22:51.467Z</time>
      </trkpt>
      <trkpt lat="46.99074" lon="8.688">
        <ele>562</ele>
        <time>2021-08-05T10:22:52.468Z</time>
      </trkpt>
      <trkpt lat="46.99074" lon="8.68802">
        <ele>563</ele>
        <time>2021-08-05T10:22:53.467Z</time>
      </trkpt>
      <trkpt lat="46.99075" lon="8.68804">
        <ele>563</ele>
        <time>2021-08-05T10:22:54.468Z</time>
      </trkpt>
      <trkpt lat="46.99075" lon="8.68806">
        <ele>563</ele>
        <time>2021-08-05T10:22:55.467Z</time>
      </trkpt>
      <trkpt lat="46.99076" lon="8.68807">
        <ele>563</ele>
        <time>2021-08-05T10:22:56.468Z</time>
      </trkpt>
      <trkpt lat="46.99077" lon="8.68809">
        <ele>563</ele>
        <time>2021-08-05T10:22:57.468Z</time>
      </trkpt>
      <trkpt lat="46.99077" lon="8.68811">
        <ele>563</ele>
        <time>2021-08-05T10:22:58.467Z</time>
      </trkpt>
      <trkpt lat="46.99078" lon="8.68813">
        <ele>563</ele>
        <time>2021-08-05T10:22:59.468Z</time>
      </trkpt>
      <trkpt lat="46.99079" lon="8.68816">
        <ele>563</ele>
        <time>2021-08-05T10:23:00.468Z</time>
      </trkpt>
      <trkpt lat="46.99079" lon="8.68817">
        <ele>564</ele>
        <time>2021-08-05T10:23:01.467Z</time>
      </trkpt>
      <trkpt lat="46.9908" lon="8.68819">
        <ele>564</ele>
        <time>2021-08-05T10:23:02.468Z</time>
      </trkpt>
      <trkpt lat="46.99081" lon="8.6882">
        <ele>565</ele>
        <time>2021-08-05T10:23:03.467Z</time>
      </trkpt>
      <trkpt lat="46.99081" lon="8.68822">
        <ele>565</ele>
        <time>2021-08-05T10:23:04.468Z</time>
      </trkpt>
      <trkpt lat="46.99082" lon="8.68823">
        <ele>566</ele>
        <time>2021-08-05T10:23:05.468Z</time>
      </trkpt>
      <trkpt lat="46.99083" lon="8.68825">
        <ele>566</ele>
        <time>2021-08-05T10:23:06.467Z</time>
      </trkpt>
      <trkpt lat="46.99084" lon="8.68825">
        <ele>566</ele>
        <time>2021-08-05T10:23:07.468Z</time>
      </trkpt>
      <trkpt lat="46.99085" lon="8.68827">
        <ele>566</ele>
        <time>2021-08-05T10:23:08.467Z</time>
      </trkpt>
      <trkpt lat="46.99087" lon="8.68827">
        <ele>566</ele>
        <time>2021-08-05T10:23:09.468Z</time>
      </trkpt>
      <trkpt lat="46.99088" lon="8.68828">
        <ele>566</ele>
        <time>2021-08-05T10:23:10.467Z</time>
      </trkpt>
      <trkpt lat="46.99089" lon="8.68829">
        <ele>566</ele>
        <time>2021-08-05T10:23:11.467Z</time>
      </trkpt>
      <trkpt lat="46.9909" lon="8.68829">
        <ele>565</ele>
        <time>2021-08-05T10:23:12.467Z</time>
      </trkpt>
      <trkpt lat="46.99091" lon="8.68829">
        <ele>565</ele>
        <time>2021-08-05T10:23:13.467Z</time>
      </trkpt>
      <trkpt lat="46.99092" lon="8.68829">
        <ele>564</ele>
        <time>2021-08-05T10:23:14.467Z</time>
      </trkpt>
      <trkpt lat="46.99092" lon="8.68828">
        <ele>563</ele>
        <time>2021-08-05T10:23:15.467Z</time>
      </trkpt>
      <trkpt lat="46.99093" lon="8.68825">
        <ele>562</ele>
        <time>2021-08-05T10:23:16.467Z</time>
      </trkpt>
      <trkpt lat="46.99094" lon="8.68824">
        <ele>561</ele>
        <time>2021-08-05T10:23:17.468Z</time>
      </trkpt>
      <trkpt lat="46.99095" lon="8.68824">
        <ele>560</ele>
        <time>2021-08-05T10:23:18.468Z</time>
      </trkpt>
      <trkpt lat="46.99096" lon="8.68824">
        <ele>559</ele>
        <time>2021-08-05T10:23:19.467Z</time>
      </trkpt>
      <trkpt lat="46.99097" lon="8.68823">
        <ele>559</ele>
        <time>2021-08-05T10:23:20.468Z</time>
      </trkpt>
      <trkpt lat="46.99097" lon="8.68822">
        <ele>558</ele>
        <time>2021-08-05T10:23:21.467Z</time>
      </trkpt>
      <trkpt lat="46.99097" lon="8.68821">
        <ele>557</ele>
        <time>2021-08-05T10:23:22.468Z</time>
      </trkpt>
      <trkpt lat="46.99096" lon="8.68821">
        <ele>557</ele>
        <time>2021-08-05T10:23:23.468Z</time>
      </trkpt>
      <trkpt lat="46.99096" lon="8.6882">
        <ele>556</ele>
        <time>2021-08-05T10:23:24.468Z</time>
      </trkpt>
      <trkpt lat="46.99095" lon="8.68819">
        <ele>555</ele>
        <time>2021-08-05T10:23:25.468Z</time>
      </trkpt>
      <trkpt lat="46.99095" lon="8.68818">
        <ele>555</ele>
        <time>2021-08-05T10:23:26.468Z</time>
      </trkpt>
      <trkpt lat="46.99096" lon="8.68817">
        <ele>554</ele>
        <time>2021-08-05T10:23:27.468Z</time>
      </trkpt>
      <trkpt lat="46.99097" lon="8.68816">
        <ele>554</ele>
        <time>2021-08-05T10:23:28.468Z</time>
      </trkpt>
      <trkpt lat="46.99098" lon="8.68816">
        <ele>553</ele>
        <time>2021-08-05T10:23:29.468Z</time>
      </trkpt>
      <trkpt lat="46.99099" lon="8.68815">
        <ele>553</ele>
        <time>2021-08-05T10:23:30.468Z</time>
      </trkpt>
      <trkpt lat="46.991" lon="8.68815">
        <ele>553</ele>
        <time>2021-08-05T10:23:31.467Z</time>
      </trkpt>
      <trkpt lat="46.991" lon="8.68814">
        <ele>553</ele>
        <time>2021-08-05T10:23:32.468Z</time>
      </trkpt>
      <trkpt lat="46.991" lon="8.68814">
        <ele>553</ele>
        <time>2021-08-05T10:23:33.468Z</time>
      </trkpt>
      <trkpt lat="46.99101" lon="8.68814">
        <ele>553</ele>
        <time>2021-08-05T10:23:34.467Z</time>
      </trkpt>
      <trkpt lat="46.99101" lon="8.68814">
        <ele>552</ele>
        <time>2021-08-05T10:23:35.467Z</time>
      </trkpt>
      <trkpt lat="46.99102" lon="8.68814">
        <ele>552</ele>
        <time>2021-08-05T10:23:36.468Z</time>
      </trkpt>
      <trkpt lat="46.99102" lon="8.68813">
        <ele>552</ele>
        <time>2021-08-05T10:23:37.468Z</time>
      </trkpt>
      <trkpt lat="46.99102" lon="8.68812">
        <ele>552</ele>
        <time>2021-08-05T10:23:38.467Z</time>
      </trkpt>
      <trkpt lat="46.99103" lon="8.68811">
        <ele>552</ele>
        <time>2021-08-05T10:23:39.467Z</time>
      </trkpt>
      <trkpt lat="46.99103" lon="8.68809">
        <ele>551</ele>
        <time>2021-08-05T10:23:40.467Z</time>
      </trkpt>
      <trkpt lat="46.99104" lon="8.68807">
        <ele>551</ele>
        <time>2021-08-05T10:23:41.468Z</time>
      </trkpt>
      <trkpt lat="46.99104" lon="8.68807">
        <ele>550</ele>
        <time>2021-08-05T10:23:42.468Z</time>
      </trkpt>
      <trkpt lat="46.99103" lon="8.68807">
        <ele>550</ele>
        <time>2021-08-05T10:23:43.468Z</time>
      </trkpt>
      <trkpt lat="46.99103" lon="8.68807">
        <ele>549</ele>
        <time>2021-08-05T10:23:44.468Z</time>
      </trkpt>
      <trkpt lat="46.99103" lon="8.68806">
        <ele>548</ele>
        <time>2021-08-05T10:23:45.467Z</time>
      </trkpt>
      <trkpt lat="46.99103" lon="8.68806">
        <ele>548</ele>
        <time>2021-08-05T10:23:46.468Z</time>
      </trkpt>
      <trkpt lat="46.99102" lon="8.68806">
        <ele>547</ele>
        <time>2021-08-05T10:23:47.467Z</time>
      </trkpt>
      <trkpt lat="46.99101" lon="8.68807">
        <ele>546</ele>
        <time>2021-08-05T10:23:48.467Z</time>
      </trkpt>
      <trkpt lat="46.99101" lon="8.68808">
        <ele>545</ele>
        <time>2021-08-05T10:23:49.467Z</time>
      </trkpt>
      <trkpt lat="46.991" lon="8.68808">
        <ele>544</ele>
        <time>2021-08-05T10:23:50.468Z</time>
      </trkpt>
      <trkpt lat="46.991" lon="8.68809">
        <ele>544</ele>
        <time>2021-08-05T10:23:51.467Z</time>
      </trkpt>
      <trkpt lat="46.99101" lon="8.68809">
        <ele>543</ele>
        <time>2021-08-05T10:23:52.468Z</time>
      </trkpt>
      <trkpt lat="46.99102" lon="8.68809">
        <ele>542</ele>
        <time>2021-08-05T10:23:53.468Z</time>
      </trkpt>
      <trkpt lat="46.99103" lon="8.68809">
        <ele>541</ele>
        <time>2021-08-05T10:23:54.468Z</time>
      </trkpt>
      <trkpt lat="46.99103" lon="8.68809">
        <ele>539</ele>
        <time>2021-08-05T10:23:55.467Z</time>
      </trkpt>
      <trkpt lat="46.99104" lon="8.68808">
        <ele>538</ele>
        <time>2021-08-05T10:23:56.467Z</time>
      </trkpt>
      <trkpt lat="46.99104" lon="8.68808">
        <ele>536</ele>
        <time>2021-08-05T10:23:57.468Z</time>
      </trkpt>
      <trkpt lat="46.99104" lon="8.68806">
        <ele>532</ele>
        <time>2021-08-05T10:23:58.468Z</time>
      </trkpt>
      <trkpt lat="46.99106" lon="8.68806">
        <ele>531</ele>
        <time>2021-08-05T10:23:59.468Z</time>
      </trkpt>
      <trkpt lat="46.99108" lon="8.68806">
        <ele>530</ele>
        <time>2021-08-05T10:24:00.469Z</time>
      </trkpt>
      <trkpt lat="46.99108" lon="8.68805">
        <ele>529</ele>
        <time>2021-08-05T10:24:01.469Z</time>
      </trkpt>
      <trkpt lat="46.99109" lon="8.68804">
        <ele>528</ele>
        <time>2021-08-05T10:24:02.469Z</time>
      </trkpt>
      <trkpt lat="46.99109" lon="8.68804">
        <ele>528</ele>
        <time>2021-08-05T10:24:03.469Z</time>
      </trkpt>
      <trkpt lat="46.99107" lon="8.688">
        <ele>527</ele>
        <time>2021-08-05T10:24:04.468Z</time>
      </trkpt>
      <trkpt lat="46.99108" lon="8.68801">
        <ele>527</ele>
        <time>2021-08-05T10:24:05.469Z</time>
      </trkpt>
      <trkpt lat="46.99109" lon="8.68801">
        <ele>528</ele>
        <time>2021-08-05T10:24:06.468Z</time>
      </trkpt>
      <trkpt lat="46.99109" lon="8.68802">
        <ele>528</ele>
        <time>2021-08-05T10:24:07.469Z</time>
      </trkpt>
      <trkpt lat="46.99111" lon="8.68802">
        <ele>528</ele>
        <time>2021-08-05T10:24:08.469Z</time>
      </trkpt>
      <trkpt lat="46.99111" lon="8.68802">
        <ele>528</ele>
        <time>2021-08-05T10:24:09.469Z</time>
      </trkpt>
      <trkpt lat="46.99112" lon="8.68801">
        <ele>527</ele>
        <time>2021-08-05T10:24:10.468Z</time>
      </trkpt>
      <trkpt lat="46.99112" lon="8.68801">
        <ele>527</ele>
        <time>2021-08-05T10:24:11.469Z</time>
      </trkpt>
      <trkpt lat="46.99112" lon="8.688">
        <ele>527</ele>
        <time>2021-08-05T10:24:12.469Z</time>
      </trkpt>
      <trkpt lat="46.99113" lon="8.688">
        <ele>526</ele>
        <time>2021-08-05T10:24:13.469Z</time>
      </trkpt>
      <trkpt lat="46.99113" lon="8.688">
        <ele>526</ele>
        <time>2021-08-05T10:24:14.469Z</time>
      </trkpt>
      <trkpt lat="46.99114" lon="8.688">
        <ele>525</ele>
        <time>2021-08-05T10:24:15.469Z</time>
      </trkpt>
      <trkpt lat="46.99114" lon="8.68801">
        <ele>525</ele>
        <time>2021-08-05T10:24:16.468Z</time>
      </trkpt>
      <trkpt lat="46.99115" lon="8.68801">
        <ele>525</ele>
        <time>2021-08-05T10:24:17.469Z</time>
      </trkpt>
      <trkpt lat="46.99115" lon="8.68801">
        <ele>524</ele>
        <time>2021-08-05T10:24:18.469Z</time>
      </trkpt>
      <trkpt lat="46.99115" lon="8.68801">
        <ele>522</ele>
        <time>2021-08-05T10:24:19.470Z</time>
      </trkpt>
      <trkpt lat="46.99117" lon="8.68802">
        <ele>520</ele>
        <time>2021-08-05T10:24:20.470Z</time>
      </trkpt>
      <trkpt lat="46.99117" lon="8.68802">
        <ele>520</ele>
        <time>2021-08-05T10:24:21.470Z</time>
      </trkpt>
      <trkpt lat="46.99117" lon="8.68802">
        <ele>519</ele>
        <time>2021-08-05T10:24:22.470Z</time>
      </trkpt>
      <trkpt lat="46.99116" lon="8.68802">
        <ele>519</ele>
        <time>2021-08-05T10:24:23.470Z</time>
      </trkpt>
      <trkpt lat="46.99116" lon="8.68802">
        <ele>520</ele>
        <time>2021-08-05T10:24:24.471Z</time>
      </trkpt>
      <trkpt lat="46.99116" lon="8.68803">
        <ele>522</ele>
        <time>2021-08-05T10:24:25.471Z</time>
      </trkpt>
      <trkpt lat="46.99116" lon="8.68803">
        <ele>522</ele>
        <time>2021-08-05T10:24:26.471Z</time>
      </trkpt>
      <trkpt lat="46.99116" lon="8.68802">
        <ele>523</ele>
        <time>2021-08-05T10:24:27.470Z</time>
      </trkpt>
      <trkpt lat="46.99117" lon="8.68802">
        <ele>524</ele>
        <time>2021-08-05T10:24:28.470Z</time>
      </trkpt>
      <trkpt lat="46.99118" lon="8.68802">
        <ele>526</ele>
        <time>2021-08-05T10:24:29.472Z</time>
      </trkpt>
      <trkpt lat="46.99118" lon="8.68803">
        <ele>526</ele>
        <time>2021-08-05T10:24:30.472Z</time>
      </trkpt>
      <trkpt lat="46.99118" lon="8.68803">
        <ele>526</ele>
        <time>2021-08-05T10:24:31.471Z</time>
      </trkpt>
      <trkpt lat="46.99118" lon="8.68803">
        <ele>527</ele>
        <time>2021-08-05T10:24:32.472Z</time>
      </trkpt>
      <trkpt lat="46.99118" lon="8.68803">
        <ele>527</ele>
        <time>2021-08-05T10:24:33.471Z</time>
      </trkpt>
      <trkpt lat="46.99118" lon="8.68802">
        <ele>527</ele>
        <time>2021-08-05T10:24:34.472Z</time>
      </trkpt>
      <trkpt lat="46.99118" lon="8.68802">
        <ele>527</ele>
        <time>2021-08-05T10:24:35.472Z</time>
      </trkpt>
      <trkpt lat="46.99119" lon="8.68802">
        <ele>527</ele>
        <time>2021-08-05T10:24:36.471Z</time>
      </trkpt>
      <trkpt lat="46.99118" lon="8.68802">
        <ele>527</ele>
        <time>2021-08-05T10:24:37.472Z</time>
      </trkpt>
      <trkpt lat="46.99118" lon="8.68802">
        <ele>527</ele>
        <time>2021-08-05T10:24:38.472Z</time>
      </trkpt>
      <trkpt lat="46.99119" lon="8.68801">
        <ele>527</ele>
        <time>2021-08-05T10:24:39.471Z</time>
      </trkpt>
      <trkpt lat="46.99119" lon="8.68801">
        <ele>527</ele>
        <time>2021-08-05T10:24:40.471Z</time>
      </trkpt>
      <trkpt lat="46.99119" lon="8.68802">
        <ele>527</ele>
        <time>2021-08-05T10:24:41.472Z</time>
      </trkpt>
      <trkpt lat="46.99118" lon="8.68802">
        <ele>527</ele>
        <time>2021-08-05T10:24:42.472Z</time>
      </trkpt>
      <trkpt lat="46.99119" lon="8.68803">
        <ele>527</ele>
        <time>2021-08-05T10:24:43.472Z</time>
      </trkpt>
      <trkpt lat="46.99118" lon="8.68803">
        <ele>526</ele>
        <time>2021-08-05T10:24:44.472Z</time>
      </trkpt>
      <trkpt lat="46.99117" lon="8.68802">
        <ele>526</ele>
        <time>2021-08-05T10:24:45.472Z</time>
      </trkpt>
      <trkpt lat="46.99117" lon="8.68802">
        <ele>526</ele>
        <time>2021-08-05T10:24:46.471Z</time>
      </trkpt>
      <trkpt lat="46.99117" lon="8.68802">
        <ele>526</ele>
        <time>2021-08-05T10:24:47.472Z</time>
      </trkpt>
      <trkpt lat="46.99117" lon="8.68803">
        <ele>525</ele>
        <time>2021-08-05T10:24:48.472Z</time>
      </trkpt>
      <trkpt lat="46.99117" lon="8.68803">
        <ele>525</ele>
        <time>2021-08-05T10:24:49.471Z</time>
      </trkpt>
      <trkpt lat="46.99116" lon="8.68803">
        <ele>524</ele>
        <time>2021-08-05T10:24:50.471Z</time>
      </trkpt>
      <trkpt lat="46.99117" lon="8.68804">
        <ele>523</ele>
        <time>2021-08-05T10:24:51.473Z</time>
      </trkpt>
      <trkpt lat="46.99118" lon="8.68805">
        <ele>523</ele>
        <time>2021-08-05T10:24:52.473Z</time>
      </trkpt>
      <trkpt lat="46.99119" lon="8.68805">
        <ele>522</ele>
        <time>2021-08-05T10:24:53.472Z</time>
      </trkpt>
      <trkpt lat="46.99119" lon="8.68805">
        <ele>522</ele>
        <time>2021-08-05T10:24:54.472Z</time>
      </trkpt>
      <trkpt lat="46.99119" lon="8.68806">
        <ele>520</ele>
        <time>2021-08-05T10:24:55.473Z</time>
      </trkpt>
      <trkpt lat="46.99119" lon="8.68806">
        <ele>520</ele>
        <time>2021-08-05T10:24:56.474Z</time>
      </trkpt>
      <trkpt lat="46.99119" lon="8.68807">
        <ele>519</ele>
        <time>2021-08-05T10:24:57.473Z</time>
      </trkpt>
      <trkpt lat="46.99118" lon="8.68808">
        <ele>518</ele>
        <time>2021-08-05T10:24:58.475Z</time>
      </trkpt>
      <trkpt lat="46.99118" lon="8.68808">
        <ele>518</ele>
        <time>2021-08-05T10:24:59.476Z</time>
      </trkpt>
      <trkpt lat="46.99117" lon="8.68808">
        <ele>519</ele>
        <time>2021-08-05T10:25:00.476Z</time>
      </trkpt>
      <trkpt lat="46.99117" lon="8.68808">
        <ele>520</ele>
        <time>2021-08-05T10:25:01.475Z</time>
      </trkpt>
      <trkpt lat="46.99117" lon="8.68808">
        <ele>521</ele>
        <time>2021-08-05T10:25:02.476Z</time>
      </trkpt>
      <trkpt lat="46.99117" lon="8.68808">
        <ele>522</ele>
        <time>2021-08-05T10:25:03.476Z</time>
      </trkpt>
      <trkpt lat="46.99118" lon="8.68808">
        <ele>524</ele>
        <time>2021-08-05T10:25:04.476Z</time>
      </trkpt>
      <trkpt lat="46.99118" lon="8.68809">
        <ele>525</ele>
        <time>2021-08-05T10:25:05.476Z</time>
      </trkpt>
      <trkpt lat="46.99118" lon="8.68808">
        <ele>525</ele>
        <time>2021-08-05T10:25:06.477Z</time>
      </trkpt>
      <trkpt lat="46.99118" lon="8.68808">
        <ele>526</ele>
        <time>2021-08-05T10:25:07.476Z</time>
      </trkpt>
      <trkpt lat="46.99118" lon="8.68807">
        <ele>530</ele>
        <time>2021-08-05T10:25:08.477Z</time>
      </trkpt>
      <trkpt lat="46.99117" lon="8.68805">
        <ele>531</ele>
        <time>2021-08-05T10:25:09.478Z</time>
      </trkpt>
      <trkpt lat="46.99115" lon="8.68805">
        <ele>532</ele>
        <time>2021-08-05T10:25:10.478Z</time>
      </trkpt>
      <trkpt lat="46.99115" lon="8.68804">
        <ele>528</ele>
        <time>2021-08-05T10:25:11.477Z</time>
      </trkpt>
      <trkpt lat="46.99115" lon="8.68805">
        <ele>528</ele>
        <time>2021-08-05T10:25:12.478Z</time>
      </trkpt>
      <trkpt lat="46.99115" lon="8.68805">
        <ele>528</ele>
        <time>2021-08-05T10:25:13.478Z</time>
      </trkpt>
      <trkpt lat="46.99118" lon="8.68806">
        <ele>533</ele>
        <time>2021-08-05T10:25:14.478Z</time>
      </trkpt>
      <trkpt lat="46.99118" lon="8.68806">
        <ele>534</ele>
        <time>2021-08-05T10:25:15.478Z</time>
      </trkpt>
      <trkpt lat="46.99118" lon="8.68805">
        <ele>534</ele>
        <time>2021-08-05T10:25:16.479Z</time>
      </trkpt>
      <trkpt lat="46.99118" lon="8.68805">
        <ele>535</ele>
        <time>2021-08-05T10:25:17.479Z</time>
      </trkpt>
      <trkpt lat="46.99119" lon="8.68809">
        <ele>542</ele>
        <time>2021-08-05T10:25:18.479Z</time>
      </trkpt>
      <trkpt lat="46.9912" lon="8.6881">
        <ele>542</ele>
        <time>2021-08-05T10:25:19.479Z</time>
      </trkpt>
      <trkpt lat="46.9912" lon="8.6881">
        <ele>542</ele>
        <time>2021-08-05T10:25:20.478Z</time>
      </trkpt>
      <trkpt lat="46.9912" lon="8.6881">
        <ele>542</ele>
        <time>2021-08-05T10:25:21.478Z</time>
      </trkpt>
      <trkpt lat="46.9912" lon="8.6881">
        <ele>543</ele>
        <time>2021-08-05T10:25:22.478Z</time>
      </trkpt>
      <trkpt lat="46.9912" lon="8.6881">
        <ele>541</ele>
        <time>2021-08-05T10:25:23.479Z</time>
      </trkpt>
      <trkpt lat="46.99119" lon="8.6881">
        <ele>541</ele>
        <time>2021-08-05T10:25:24.479Z</time>
      </trkpt>
      <trkpt lat="46.99117" lon="8.68807">
        <ele>543</ele>
        <time>2021-08-05T10:25:25.479Z</time>
      </trkpt>
      <trkpt lat="46.99117" lon="8.68807">
        <ele>543</ele>
        <time>2021-08-05T10:25:26.479Z</time>
      </trkpt>
      <trkpt lat="46.99117" lon="8.68807">
        <ele>542</ele>
        <time>2021-08-05T10:25:27.478Z</time>
      </trkpt>
      <trkpt lat="46.99112" lon="8.68807">
        <ele>544</ele>
        <time>2021-08-05T10:25:28.480Z</time>
      </trkpt>
      <trkpt lat="46.99112" lon="8.68807">
        <ele>544</ele>
        <time>2021-08-05T10:25:29.479Z</time>
      </trkpt>
      <trkpt lat="46.99111" lon="8.68802">
        <ele>543</ele>
        <time>2021-08-05T10:25:30.480Z</time>
      </trkpt>
      <trkpt lat="46.99111" lon="8.68802">
        <ele>543</ele>
        <time>2021-08-05T10:25:31.481Z</time>
      </trkpt>
      <trkpt lat="46.99111" lon="8.68803">
        <ele>543</ele>
        <time>2021-08-05T10:25:32.480Z</time>
      </trkpt>
      <trkpt lat="46.9911" lon="8.68803">
        <ele>543</ele>
        <time>2021-08-05T10:25:33.481Z</time>
      </trkpt>
      <trkpt lat="46.99112" lon="8.68805">
        <ele>549</ele>
        <time>2021-08-05T10:25:34.480Z</time>
      </trkpt>
      <trkpt lat="46.99113" lon="8.68806">
        <ele>549</ele>
        <time>2021-08-05T10:25:35.480Z</time>
      </trkpt>
      <trkpt lat="46.99113" lon="8.68807">
        <ele>550</ele>
        <time>2021-08-05T10:25:36.480Z</time>
      </trkpt>
      <trkpt lat="46.99114" lon="8.68807">
        <ele>551</ele>
        <time>2021-08-05T10:25:37.480Z</time>
      </trkpt>
      <trkpt lat="46.99116" lon="8.68809">
        <ele>555</ele>
        <time>2021-08-05T10:25:38.481Z</time>
      </trkpt>
      <trkpt lat="46.99116" lon="8.6881">
        <ele>554</ele>
        <time>2021-08-05T10:25:39.481Z</time>
      </trkpt>
      <trkpt lat="46.99114" lon="8.68811">
        <ele>550</ele>
        <time>2021-08-05T10:25:40.481Z</time>
      </trkpt>
      <trkpt lat="46.99114" lon="8.68811">
        <ele>549</ele>
        <time>2021-08-05T10:25:41.481Z</time>
      </trkpt>
      <trkpt lat="46.99114" lon="8.68811">
        <ele>548</ele>
        <time>2021-08-05T10:25:42.480Z</time>
      </trkpt>
      <trkpt lat="46.99114" lon="8.68811">
        <ele>547</ele>
        <time>2021-08-05T10:25:43.481Z</time>
      </trkpt>
      <trkpt lat="46.99115" lon="8.68811">
        <ele>546</ele>
        <time>2021-08-05T10:25:44.481Z</time>
      </trkpt>
      <trkpt lat="46.99115" lon="8.68812">
        <ele>545</ele>
        <time>2021-08-05T10:25:45.481Z</time>
      </trkpt>
      <trkpt lat="46.99116" lon="8.68812">
        <ele>544</ele>
        <time>2021-08-05T10:25:46.480Z</time>
      </trkpt>
      <trkpt lat="46.99117" lon="8.68812">
        <ele>538</ele>
        <time>2021-08-05T10:25:47.481Z</time>
      </trkpt>
      <trkpt lat="46.99117" lon="8.68813">
        <ele>537</ele>
        <time>2021-08-05T10:25:48.481Z</time>
      </trkpt>
      <trkpt lat="46.99117" lon="8.68812">
        <ele>537</ele>
        <time>2021-08-05T10:25:49.481Z</time>
      </trkpt>
      <trkpt lat="46.99112" lon="8.68808">
        <ele>535</ele>
        <time>2021-08-05T10:25:50.483Z</time>
      </trkpt>
      <trkpt lat="46.99108" lon="8.68805">
        <ele>539</ele>
        <time>2021-08-05T10:25:51.482Z</time>
      </trkpt>
      <trkpt lat="46.99108" lon="8.68805">
        <ele>539</ele>
        <time>2021-08-05T10:25:52.483Z</time>
      </trkpt>
      <trkpt lat="46.99108" lon="8.68804">
        <ele>540</ele>
        <time>2021-08-05T10:25:53.482Z</time>
      </trkpt>
      <trkpt lat="46.99108" lon="8.68804">
        <ele>540</ele>
        <time>2021-08-05T10:25:54.483Z</time>
      </trkpt>
      <trkpt lat="46.99107" lon="8.68804">
        <ele>540</ele>
        <time>2021-08-05T10:25:55.483Z</time>
      </trkpt>
      <trkpt lat="46.99104" lon="8.68805">
        <ele>544</ele>
        <time>2021-08-05T10:25:56.483Z</time>
      </trkpt>
      <trkpt lat="46.99103" lon="8.68805">
        <ele>544</ele>
        <time>2021-08-05T10:25:57.482Z</time>
      </trkpt>
      <trkpt lat="46.99104" lon="8.68803">
        <ele>545</ele>
        <time>2021-08-05T10:25:58.483Z</time>
      </trkpt>
      <trkpt lat="46.99104" lon="8.68803">
        <ele>544</ele>
        <time>2021-08-05T10:25:59.483Z</time>
      </trkpt>
      <trkpt lat="46.99104" lon="8.68803">
        <ele>544</ele>
        <time>2021-08-05T10:26:00.482Z</time>
      </trkpt>
      <trkpt lat="46.99102" lon="8.68802">
        <ele>541</ele>
        <time>2021-08-05T10:26:01.482Z</time>
      </trkpt>
      <trkpt lat="46.99102" lon="8.68802">
        <ele>541</ele>
        <time>2021-08-05T10:26:02.482Z</time>
      </trkpt>
      <trkpt lat="46.99101" lon="8.68802">
        <ele>541</ele>
        <time>2021-08-05T10:26:03.483Z</time>
      </trkpt>
      <trkpt lat="46.99102" lon="8.68802">
        <ele>542</ele>
        <time>2021-08-05T10:26:04.484Z</time>
      </trkpt>
      <trkpt lat="46.99102" lon="8.68802">
        <ele>543</ele>
        <time>2021-08-05T10:26:05.485Z</time>
      </trkpt>
      <trkpt lat="46.99102" lon="8.68802">
        <ele>543</ele>
        <time>2021-08-05T10:26:06.484Z</time>
      </trkpt>
      <trkpt lat="46.99101" lon="8.68799">
        <ele>543</ele>
        <time>2021-08-05T10:26:07.486Z</time>
      </trkpt>
      <trkpt lat="46.99101" lon="8.68799">
        <ele>543</ele>
        <time>2021-08-05T10:26:08.485Z</time>
      </trkpt>
      <trkpt lat="46.99102" lon="8.68799">
        <ele>543</ele>
        <time>2021-08-05T10:26:09.485Z</time>
      </trkpt>
      <trkpt lat="46.99108" lon="8.68801">
        <ele>544</ele>
        <time>2021-08-05T10:26:10.486Z</time>
      </trkpt>
      <trkpt lat="46.99109" lon="8.68801">
        <ele>543</ele>
        <time>2021-08-05T10:26:11.486Z</time>
      </trkpt>
      <trkpt lat="46.9911" lon="8.68802">
        <ele>543</ele>
        <time>2021-08-05T10:26:12.487Z</time>
      </trkpt>
      <trkpt lat="46.99109" lon="8.68802">
        <ele>542</ele>
        <time>2021-08-05T10:26:13.486Z</time>
      </trkpt>
      <trkpt lat="46.99117" lon="8.688">
        <ele>548</ele>
        <time>2021-08-05T10:26:14.488Z</time>
      </trkpt>
      <trkpt lat="46.99117" lon="8.688">
        <ele>549</ele>
        <time>2021-08-05T10:26:15.487Z</time>
      </trkpt>
      <trkpt lat="46.99117" lon="8.688">
        <ele>550</ele>
        <time>2021-08-05T10:26:16.487Z</time>
      </trkpt>
      <trkpt lat="46.99114" lon="8.68799">
        <ele>551</ele>
        <time>2021-08-05T10:26:17.489Z</time>
      </trkpt>
      <trkpt lat="46.99113" lon="8.68799">
        <ele>551</ele>
        <time>2021-08-05T10:26:18.489Z</time>
      </trkpt>
      <trkpt lat="46.99112" lon="8.68799">
        <ele>550</ele>
        <time>2021-08-05T10:26:19.488Z</time>
      </trkpt>
      <trkpt lat="46.99112" lon="8.68799">
        <ele>550</ele>
        <time>2021-08-05T10:26:20.489Z</time>
      </trkpt>
      <trkpt lat="46.99112" lon="8.688">
        <ele>549</ele>
        <time>2021-08-05T10:26:21.489Z</time>
      </trkpt>
      <trkpt lat="46.99099" lon="8.6881">
        <ele>554</ele>
        <time>2021-08-05T10:26:22.490Z</time>
      </trkpt>
      <trkpt lat="46.99098" lon="8.68812">
        <ele>554</ele>
        <time>2021-08-05T10:26:23.489Z</time>
      </trkpt>
      <trkpt lat="46.99098" lon="8.68814">
        <ele>555</ele>
        <time>2021-08-05T10:26:24.490Z</time>
      </trkpt>
      <trkpt lat="46.99098" lon="8.68816">
        <ele>554</ele>
        <time>2021-08-05T10:26:25.490Z</time>
      </trkpt>
      <trkpt lat="46.99098" lon="8.68818">
        <ele>554</ele>
        <time>2021-08-05T10:26:26.489Z</time>
      </trkpt>
      <trkpt lat="46.99097" lon="8.6882">
        <ele>555</ele>
        <time>2021-08-05T10:26:27.489Z</time>
      </trkpt>
      <trkpt lat="46.99097" lon="8.68823">
        <ele>555</ele>
        <time>2021-08-05T10:26:28.490Z</time>
      </trkpt>
      <trkpt lat="46.99097" lon="8.68825">
        <ele>555</ele>
        <time>2021-08-05T10:26:29.489Z</time>
      </trkpt>
      <trkpt lat="46.99097" lon="8.68827">
        <ele>556</ele>
        <time>2021-08-05T10:26:30.489Z</time>
      </trkpt>
      <trkpt lat="46.99097" lon="8.68828">
        <ele>556</ele>
        <time>2021-08-05T10:26:31.489Z</time>
      </trkpt>
      <trkpt lat="46.99096" lon="8.68829">
        <ele>556</ele>
        <time>2021-08-05T10:26:32.490Z</time>
      </trkpt>
      <trkpt lat="46.99096" lon="8.68831">
        <ele>556</ele>
        <time>2021-08-05T10:26:33.490Z</time>
      </trkpt>
      <trkpt lat="46.99096" lon="8.68833">
        <ele>556</ele>
        <time>2021-08-05T10:26:34.490Z</time>
      </trkpt>
      <trkpt lat="46.99096" lon="8.68835">
        <ele>557</ele>
        <time>2021-08-05T10:26:35.490Z</time>
      </trkpt>
      <trkpt lat="46.99096" lon="8.68838">
        <ele>557</ele>
        <time>2021-08-05T10:26:36.490Z</time>
      </trkpt>
      <trkpt lat="46.99097" lon="8.68839">
        <ele>557</ele>
        <time>2021-08-05T10:26:37.490Z</time>
      </trkpt>
      <trkpt lat="46.99097" lon="8.68841">
        <ele>558</ele>
        <time>2021-08-05T10:26:38.489Z</time>
      </trkpt>
      <trkpt lat="46.99098" lon="8.68842">
        <ele>558</ele>
        <time>2021-08-05T10:26:39.490Z</time>
      </trkpt>
      <trkpt lat="46.99098" lon="8.68843">
        <ele>558</ele>
        <time>2021-08-05T10:26:40.490Z</time>
      </trkpt>
      <trkpt lat="46.99099" lon="8.68845">
        <ele>559</ele>
        <time>2021-08-05T10:26:41.490Z</time>
      </trkpt>
      <trkpt lat="46.991" lon="8.68846">
        <ele>558</ele>
        <time>2021-08-05T10:26:42.489Z</time>
      </trkpt>
      <trkpt lat="46.991" lon="8.68847">
        <ele>558</ele>
        <time>2021-08-05T10:26:43.489Z</time>
      </trkpt>
      <trkpt lat="46.99101" lon="8.68849">
        <ele>558</ele>
        <time>2021-08-05T10:26:44.490Z</time>
      </trkpt>
      <trkpt lat="46.99101" lon="8.6885">
        <ele>558</ele>
        <time>2021-08-05T10:26:45.489Z</time>
      </trkpt>
      <trkpt lat="46.99102" lon="8.68851">
        <ele>558</ele>
        <time>2021-08-05T10:26:46.490Z</time>
      </trkpt>
      <trkpt lat="46.99102" lon="8.68853">
        <ele>558</ele>
        <time>2021-08-05T10:26:47.490Z</time>
      </trkpt>
      <trkpt lat="46.99103" lon="8.68854">
        <ele>557</ele>
        <time>2021-08-05T10:26:48.490Z</time>
      </trkpt>
      <trkpt lat="46.99103" lon="8.68856">
        <ele>557</ele>
        <time>2021-08-05T10:26:49.489Z</time>
      </trkpt>
      <trkpt lat="46.99104" lon="8.68857">
        <ele>557</ele>
        <time>2021-08-05T10:26:50.489Z</time>
      </trkpt>
      <trkpt lat="46.99104" lon="8.68859">
        <ele>558</ele>
        <time>2021-08-05T10:26:51.490Z</time>
      </trkpt>
      <trkpt lat="46.99105" lon="8.6886">
        <ele>558</ele>
        <time>2021-08-05T10:26:52.490Z</time>
      </trkpt>
      <trkpt lat="46.99106" lon="8.68861">
        <ele>558</ele>
        <time>2021-08-05T10:26:53.489Z</time>
      </trkpt>
      <trkpt lat="46.99106" lon="8.68862">
        <ele>557</ele>
        <time>2021-08-05T10:26:54.490Z</time>
      </trkpt>
      <trkpt lat="46.99107" lon="8.68863">
        <ele>557</ele>
        <time>2021-08-05T10:26:55.489Z</time>
      </trkpt>
      <trkpt lat="46.99107" lon="8.68864">
        <ele>557</ele>
        <time>2021-08-05T10:26:56.489Z</time>
      </trkpt>
      <trkpt lat="46.99108" lon="8.68866">
        <ele>557</ele>
        <time>2021-08-05T10:26:57.489Z</time>
      </trkpt>
      <trkpt lat="46.99108" lon="8.68867">
        <ele>557</ele>
        <time>2021-08-05T10:26:58.490Z</time>
      </trkpt>
      <trkpt lat="46.99109" lon="8.68868">
        <ele>557</ele>
        <time>2021-08-05T10:26:59.490Z</time>
      </trkpt>
      <trkpt lat="46.99109" lon="8.68869">
        <ele>557</ele>
        <time>2021-08-05T10:27:00.490Z</time>
      </trkpt>
      <trkpt lat="46.9911" lon="8.68871">
        <ele>556</ele>
        <time>2021-08-05T10:27:01.489Z</time>
      </trkpt>
      <trkpt lat="46.9911" lon="8.68872">
        <ele>556</ele>
        <time>2021-08-05T10:27:02.490Z</time>
      </trkpt>
      <trkpt lat="46.99111" lon="8.68873">
        <ele>556</ele>
        <time>2021-08-05T10:27:03.490Z</time>
      </trkpt>
      <trkpt lat="46.99112" lon="8.68874">
        <ele>557</ele>
        <time>2021-08-05T10:27:04.490Z</time>
      </trkpt>
      <trkpt lat="46.99112" lon="8.68876">
        <ele>557</ele>
        <time>2021-08-05T10:27:05.490Z</time>
      </trkpt>
      <trkpt lat="46.99113" lon="8.68877">
        <ele>558</ele>
        <time>2021-08-05T10:27:06.490Z</time>
      </trkpt>
      <trkpt lat="46.99113" lon="8.68878">
        <ele>558</ele>
        <time>2021-08-05T10:27:07.490Z</time>
      </trkpt>
      <trkpt lat="46.99114" lon="8.68879">
        <ele>558</ele>
        <time>2021-08-05T10:27:08.490Z</time>
      </trkpt>
      <trkpt lat="46.99115" lon="8.68879">
        <ele>560</ele>
        <time>2021-08-05T10:27:09.490Z</time>
      </trkpt>
      <trkpt lat="46.99115" lon="8.68879">
        <ele>560</ele>
        <time>2021-08-05T10:27:10.490Z</time>
      </trkpt>
      <trkpt lat="46.99115" lon="8.68878">
        <ele>561</ele>
        <time>2021-08-05T10:27:11.490Z</time>
      </trkpt>
      <trkpt lat="46.99114" lon="8.68879">
        <ele>556</ele>
        <time>2021-08-05T10:27:12.490Z</time>
      </trkpt>
      <trkpt lat="46.99114" lon="8.6888">
        <ele>557</ele>
        <time>2021-08-05T10:27:13.490Z</time>
      </trkpt>
      <trkpt lat="46.99115" lon="8.68882">
        <ele>557</ele>
        <time>2021-08-05T10:27:14.489Z</time>
      </trkpt>
      <trkpt lat="46.99115" lon="8.68884">
        <ele>558</ele>
        <time>2021-08-05T10:27:15.490Z</time>
      </trkpt>
      <trkpt lat="46.99115" lon="8.68885">
        <ele>558</ele>
        <time>2021-08-05T10:27:16.489Z</time>
      </trkpt>
      <trkpt lat="46.99116" lon="8.68887">
        <ele>558</ele>
        <time>2021-08-05T10:27:17.489Z</time>
      </trkpt>
      <trkpt lat="46.99117" lon="8.68888">
        <ele>558</ele>
        <time>2021-08-05T10:27:18.489Z</time>
      </trkpt>
      <trkpt lat="46.99117" lon="8.6889">
        <ele>558</ele>
        <time>2021-08-05T10:27:19.489Z</time>
      </trkpt>
      <trkpt lat="46.99117" lon="8.68892">
        <ele>558</ele>
        <time>2021-08-05T10:27:20.490Z</time>
      </trkpt>
      <trkpt lat="46.99118" lon="8.68894">
        <ele>558</ele>
        <time>2021-08-05T10:27:21.489Z</time>
      </trkpt>
      <trkpt lat="46.99118" lon="8.68895">
        <ele>559</ele>
        <time>2021-08-05T10:27:22.489Z</time>
      </trkpt>
      <trkpt lat="46.99119" lon="8.68897">
        <ele>559</ele>
        <time>2021-08-05T10:27:23.490Z</time>
      </trkpt>
      <trkpt lat="46.99119" lon="8.68899">
        <ele>559</ele>
        <time>2021-08-05T10:27:24.490Z</time>
      </trkpt>
      <trkpt lat="46.9912" lon="8.689">
        <ele>560</ele>
        <time>2021-08-05T10:27:25.489Z</time>
      </trkpt>
      <trkpt lat="46.9912" lon="8.68902">
        <ele>560</ele>
        <time>2021-08-05T10:27:26.489Z</time>
      </trkpt>
      <trkpt lat="46.99121" lon="8.68903">
        <ele>561</ele>
        <time>2021-08-05T10:27:27.489Z</time>
      </trkpt>
      <trkpt lat="46.99121" lon="8.68905">
        <ele>561</ele>
        <time>2021-08-05T10:27:28.490Z</time>
      </trkpt>
      <trkpt lat="46.99122" lon="8.68907">
        <ele>561</ele>
        <time>2021-08-05T10:27:29.489Z</time>
      </trkpt>
      <trkpt lat="46.99122" lon="8.68908">
        <ele>562</ele>
        <time>2021-08-05T10:27:30.489Z</time>
      </trkpt>
      <trkpt lat="46.99122" lon="8.68909">
        <ele>562</ele>
        <time>2021-08-05T10:27:31.489Z</time>
      </trkpt>
      <trkpt lat="46.99123" lon="8.68911">
        <ele>562</ele>
        <time>2021-08-05T10:27:32.489Z</time>
      </trkpt>
      <trkpt lat="46.99123" lon="8.68912">
        <ele>562</ele>
        <time>2021-08-05T10:27:33.489Z</time>
      </trkpt>
      <trkpt lat="46.99123" lon="8.68914">
        <ele>561</ele>
        <time>2021-08-05T10:27:34.489Z</time>
      </trkpt>
      <trkpt lat="46.99123" lon="8.68915">
        <ele>561</ele>
        <time>2021-08-05T10:27:35.489Z</time>
      </trkpt>
      <trkpt lat="46.99123" lon="8.68916">
        <ele>560</ele>
        <time>2021-08-05T10:27:36.489Z</time>
      </trkpt>
      <trkpt lat="46.99124" lon="8.68916">
        <ele>559</ele>
        <time>2021-08-05T10:27:37.489Z</time>
      </trkpt>
      <trkpt lat="46.99124" lon="8.68916">
        <ele>558</ele>
        <time>2021-08-05T10:27:38.489Z</time>
      </trkpt>
      <trkpt lat="46.99124" lon="8.68916">
        <ele>558</ele>
        <time>2021-08-05T10:27:39.490Z</time>
      </trkpt>
      <trkpt lat="46.99127" lon="8.68915">
        <ele>558</ele>
        <time>2021-08-05T10:27:40.489Z</time>
      </trkpt>
      <trkpt lat="46.99127" lon="8.68914">
        <ele>558</ele>
        <time>2021-08-05T10:27:41.489Z</time>
      </trkpt>
      <trkpt lat="46.99127" lon="8.68914">
        <ele>558</ele>
        <time>2021-08-05T10:27:42.489Z</time>
      </trkpt>
      <trkpt lat="46.99125" lon="8.68912">
        <ele>554</ele>
        <time>2021-08-05T10:27:43.490Z</time>
      </trkpt>
      <trkpt lat="46.99125" lon="8.68912">
        <ele>554</ele>
        <time>2021-08-05T10:27:44.489Z</time>
      </trkpt>
      <trkpt lat="46.99124" lon="8.68912">
        <ele>554</ele>
        <time>2021-08-05T10:27:45.489Z</time>
      </trkpt>
      <trkpt lat="46.99124" lon="8.68916">
        <ele>554</ele>
        <time>2021-08-05T10:27:46.489Z</time>
      </trkpt>
      <trkpt lat="46.99125" lon="8.68917">
        <ele>554</ele>
        <time>2021-08-05T10:27:47.489Z</time>
      </trkpt>
      <trkpt lat="46.99125" lon="8.68919">
        <ele>554</ele>
        <time>2021-08-05T10:27:48.489Z</time>
      </trkpt>
      <trkpt lat="46.99126" lon="8.6892">
        <ele>555</ele>
        <time>2021-08-05T10:27:49.489Z</time>
      </trkpt>
      <trkpt lat="46.99126" lon="8.68922">
        <ele>555</ele>
        <time>2021-08-05T10:27:50.490Z</time>
      </trkpt>
      <trkpt lat="46.99127" lon="8.68923">
        <ele>555</ele>
        <time>2021-08-05T10:27:51.489Z</time>
      </trkpt>
      <trkpt lat="46.99127" lon="8.68925">
        <ele>554</ele>
        <time>2021-08-05T10:27:52.490Z</time>
      </trkpt>
      <trkpt lat="46.99128" lon="8.68927">
        <ele>554</ele>
        <time>2021-08-05T10:27:53.490Z</time>
      </trkpt>
      <trkpt lat="46.99128" lon="8.68929">
        <ele>554</ele>
        <time>2021-08-05T10:27:54.490Z</time>
      </trkpt>
      <trkpt lat="46.99129" lon="8.68931">
        <ele>554</ele>
        <time>2021-08-05T10:27:55.489Z</time>
      </trkpt>
      <trkpt lat="46.99129" lon="8.68933">
        <ele>554</ele>
        <time>2021-08-05T10:27:56.489Z</time>
      </trkpt>
      <trkpt lat="46.9913" lon="8.68935">
        <ele>554</ele>
        <time>2021-08-05T10:27:57.490Z</time>
      </trkpt>
      <trkpt lat="46.9913" lon="8.68936">
        <ele>555</ele>
        <time>2021-08-05T10:27:58.489Z</time>
      </trkpt>
      <trkpt lat="46.99131" lon="8.68937">
        <ele>555</ele>
        <time>2021-08-05T10:27:59.489Z</time>
      </trkpt>
      <trkpt lat="46.99132" lon="8.68938">
        <ele>555</ele>
        <time>2021-08-05T10:28:00.490Z</time>
      </trkpt>
      <trkpt lat="46.99132" lon="8.68939">
        <ele>555</ele>
        <time>2021-08-05T10:28:01.489Z</time>
      </trkpt>
      <trkpt lat="46.99133" lon="8.6894">
        <ele>555</ele>
        <time>2021-08-05T10:28:02.490Z</time>
      </trkpt>
      <trkpt lat="46.99134" lon="8.68941">
        <ele>555</ele>
        <time>2021-08-05T10:28:03.489Z</time>
      </trkpt>
      <trkpt lat="46.99134" lon="8.68942">
        <ele>556</ele>
        <time>2021-08-05T10:28:04.489Z</time>
      </trkpt>
      <trkpt lat="46.99134" lon="8.68944">
        <ele>556</ele>
        <time>2021-08-05T10:28:05.490Z</time>
      </trkpt>
      <trkpt lat="46.99135" lon="8.68945">
        <ele>557</ele>
        <time>2021-08-05T10:28:06.490Z</time>
      </trkpt>
      <trkpt lat="46.99136" lon="8.68947">
        <ele>557</ele>
        <time>2021-08-05T10:28:07.490Z</time>
      </trkpt>
      <trkpt lat="46.99136" lon="8.68948">
        <ele>557</ele>
        <time>2021-08-05T10:28:08.489Z</time>
      </trkpt>
      <trkpt lat="46.99136" lon="8.6895">
        <ele>557</ele>
        <time>2021-08-05T10:28:09.489Z</time>
      </trkpt>
      <trkpt lat="46.99137" lon="8.68951">
        <ele>557</ele>
        <time>2021-08-05T10:28:10.489Z</time>
      </trkpt>
      <trkpt lat="46.99138" lon="8.68952">
        <ele>556</ele>
        <time>2021-08-05T10:28:11.490Z</time>
      </trkpt>
      <trkpt lat="46.99139" lon="8.68953">
        <ele>556</ele>
        <time>2021-08-05T10:28:12.490Z</time>
      </trkpt>
      <trkpt lat="46.99139" lon="8.68954">
        <ele>555</ele>
        <time>2021-08-05T10:28:13.489Z</time>
      </trkpt>
      <trkpt lat="46.9914" lon="8.68955">
        <ele>555</ele>
        <time>2021-08-05T10:28:14.489Z</time>
      </trkpt>
      <trkpt lat="46.99141" lon="8.68956">
        <ele>555</ele>
        <time>2021-08-05T10:28:15.490Z</time>
      </trkpt>
      <trkpt lat="46.99141" lon="8.68957">
        <ele>555</ele>
        <time>2021-08-05T10:28:16.490Z</time>
      </trkpt>
      <trkpt lat="46.99143" lon="8.68957">
        <ele>555</ele>
        <time>2021-08-05T10:28:17.490Z</time>
      </trkpt>
      <trkpt lat="46.99144" lon="8.68958">
        <ele>555</ele>
        <time>2021-08-05T10:28:18.489Z</time>
      </trkpt>
      <trkpt lat="46.99145" lon="8.68959">
        <ele>555</ele>
        <time>2021-08-05T10:28:19.490Z</time>
      </trkpt>
      <trkpt lat="46.99146" lon="8.6896">
        <ele>555</ele>
        <time>2021-08-05T10:28:20.490Z</time>
      </trkpt>
      <trkpt lat="46.99146" lon="8.68962">
        <ele>556</ele>
        <time>2021-08-05T10:28:21.489Z</time>
      </trkpt>
      <trkpt lat="46.99147" lon="8.68962">
        <ele>557</ele>
        <time>2021-08-05T10:28:22.489Z</time>
      </trkpt>
      <trkpt lat="46.99148" lon="8.68963">
        <ele>557</ele>
        <time>2021-08-05T10:28:23.489Z</time>
      </trkpt>
      <trkpt lat="46.99149" lon="8.68964">
        <ele>557</ele>
        <time>2021-08-05T10:28:24.489Z</time>
      </trkpt>
      <trkpt lat="46.9915" lon="8.68965">
        <ele>557</ele>
        <time>2021-08-05T10:28:25.489Z</time>
      </trkpt>
      <trkpt lat="46.99151" lon="8.68966">
        <ele>557</ele>
        <time>2021-08-05T10:28:26.489Z</time>
      </trkpt>
      <trkpt lat="46.99151" lon="8.68967">
        <ele>558</ele>
        <time>2021-08-05T10:28:27.489Z</time>
      </trkpt>
      <trkpt lat="46.99152" lon="8.68969">
        <ele>558</ele>
        <time>2021-08-05T10:28:28.489Z</time>
      </trkpt>
      <trkpt lat="46.99152" lon="8.6897">
        <ele>559</ele>
        <time>2021-08-05T10:28:29.489Z</time>
      </trkpt>
      <trkpt lat="46.99152" lon="8.68971">
        <ele>560</ele>
        <time>2021-08-05T10:28:30.489Z</time>
      </trkpt>
      <trkpt lat="46.99152" lon="8.68973">
        <ele>561</ele>
        <time>2021-08-05T10:28:31.489Z</time>
      </trkpt>
      <trkpt lat="46.99152" lon="8.68975">
        <ele>561</ele>
        <time>2021-08-05T10:28:32.490Z</time>
      </trkpt>
      <trkpt lat="46.99152" lon="8.68976">
        <ele>562</ele>
        <time>2021-08-05T10:28:33.490Z</time>
      </trkpt>
      <trkpt lat="46.99152" lon="8.68978">
        <ele>562</ele>
        <time>2021-08-05T10:28:34.489Z</time>
      </trkpt>
      <trkpt lat="46.99152" lon="8.68979">
        <ele>561</ele>
        <time>2021-08-05T10:28:35.489Z</time>
      </trkpt>
      <trkpt lat="46.99152" lon="8.68982">
        <ele>561</ele>
        <time>2021-08-05T10:28:36.489Z</time>
      </trkpt>
      <trkpt lat="46.99152" lon="8.68984">
        <ele>560</ele>
        <time>2021-08-05T10:28:37.490Z</time>
      </trkpt>
      <trkpt lat="46.99152" lon="8.68986">
        <ele>560</ele>
        <time>2021-08-05T10:28:38.490Z</time>
      </trkpt>
      <trkpt lat="46.99152" lon="8.68988">
        <ele>559</ele>
        <time>2021-08-05T10:28:39.490Z</time>
      </trkpt>
      <trkpt lat="46.99152" lon="8.68989">
        <ele>558</ele>
        <time>2021-08-05T10:28:40.490Z</time>
      </trkpt>
      <trkpt lat="46.99152" lon="8.68991">
        <ele>557</ele>
        <time>2021-08-05T10:28:41.489Z</time>
      </trkpt>
      <trkpt lat="46.99152" lon="8.68993">
        <ele>557</ele>
        <time>2021-08-05T10:28:42.489Z</time>
      </trkpt>
      <trkpt lat="46.99152" lon="8.68994">
        <ele>556</ele>
        <time>2021-08-05T10:28:43.490Z</time>
      </trkpt>
      <trkpt lat="46.99152" lon="8.68996">
        <ele>556</ele>
        <time>2021-08-05T10:28:44.490Z</time>
      </trkpt>
      <trkpt lat="46.99152" lon="8.68997">
        <ele>556</ele>
        <time>2021-08-05T10:28:45.490Z</time>
      </trkpt>
      <trkpt lat="46.99151" lon="8.68998">
        <ele>556</ele>
        <time>2021-08-05T10:28:46.489Z</time>
      </trkpt>
      <trkpt lat="46.99151" lon="8.69">
        <ele>556</ele>
        <time>2021-08-05T10:28:47.489Z</time>
      </trkpt>
      <trkpt lat="46.9915" lon="8.69001">
        <ele>556</ele>
        <time>2021-08-05T10:28:48.489Z</time>
      </trkpt>
      <trkpt lat="46.99149" lon="8.69003">
        <ele>556</ele>
        <time>2021-08-05T10:28:49.489Z</time>
      </trkpt>
      <trkpt lat="46.99149" lon="8.69004">
        <ele>556</ele>
        <time>2021-08-05T10:28:50.489Z</time>
      </trkpt>
      <trkpt lat="46.99148" lon="8.69005">
        <ele>556</ele>
        <time>2021-08-05T10:28:51.489Z</time>
      </trkpt>
      <trkpt lat="46.99148" lon="8.69007">
        <ele>556</ele>
        <time>2021-08-05T10:28:52.490Z</time>
      </trkpt>
      <trkpt lat="46.99147" lon="8.69009">
        <ele>556</ele>
        <time>2021-08-05T10:28:53.489Z</time>
      </trkpt>
      <trkpt lat="46.99147" lon="8.6901">
        <ele>555</ele>
        <time>2021-08-05T10:28:54.490Z</time>
      </trkpt>
      <trkpt lat="46.99147" lon="8.69012">
        <ele>555</ele>
        <time>2021-08-05T10:28:55.489Z</time>
      </trkpt>
      <trkpt lat="46.99147" lon="8.69013">
        <ele>554</ele>
        <time>2021-08-05T10:28:56.490Z</time>
      </trkpt>
      <trkpt lat="46.99147" lon="8.69014">
        <ele>554</ele>
        <time>2021-08-05T10:28:57.489Z</time>
      </trkpt>
      <trkpt lat="46.99147" lon="8.69015">
        <ele>554</ele>
        <time>2021-08-05T10:28:58.490Z</time>
      </trkpt>
      <trkpt lat="46.99147" lon="8.69017">
        <ele>554</ele>
        <time>2021-08-05T10:28:59.489Z</time>
      </trkpt>
      <trkpt lat="46.99147" lon="8.69019">
        <ele>553</ele>
        <time>2021-08-05T10:29:00.490Z</time>
      </trkpt>
      <trkpt lat="46.99147" lon="8.6902">
        <ele>553</ele>
        <time>2021-08-05T10:29:01.489Z</time>
      </trkpt>
      <trkpt lat="46.99147" lon="8.6902">
        <ele>553</ele>
        <time>2021-08-05T10:29:02.490Z</time>
      </trkpt>
      <trkpt lat="46.99147" lon="8.69021">
        <ele>553</ele>
        <time>2021-08-05T10:29:03.489Z</time>
      </trkpt>
      <trkpt lat="46.99147" lon="8.69022">
        <ele>552</ele>
        <time>2021-08-05T10:29:04.489Z</time>
      </trkpt>
      <trkpt lat="46.99147" lon="8.69023">
        <ele>552</ele>
        <time>2021-08-05T10:29:05.490Z</time>
      </trkpt>
      <trkpt lat="46.99147" lon="8.69025">
        <ele>553</ele>
        <time>2021-08-05T10:29:06.489Z</time>
      </trkpt>
      <trkpt lat="46.99145" lon="8.69027">
        <ele>553</ele>
        <time>2021-08-05T10:29:07.490Z</time>
      </trkpt>
      <trkpt lat="46.99145" lon="8.69028">
        <ele>554</ele>
        <time>2021-08-05T10:29:08.490Z</time>
      </trkpt>
      <trkpt lat="46.99144" lon="8.6903">
        <ele>554</ele>
        <time>2021-08-05T10:29:09.489Z</time>
      </trkpt>
      <trkpt lat="46.99143" lon="8.69031">
        <ele>554</ele>
        <time>2021-08-05T10:29:10.489Z</time>
      </trkpt>
      <trkpt lat="46.99143" lon="8.69032">
        <ele>555</ele>
        <time>2021-08-05T10:29:11.490Z</time>
      </trkpt>
      <trkpt lat="46.99142" lon="8.69035">
        <ele>555</ele>
        <time>2021-08-05T10:29:12.489Z</time>
      </trkpt>
      <trkpt lat="46.99141" lon="8.69036">
        <ele>555</ele>
        <time>2021-08-05T10:29:13.490Z</time>
      </trkpt>
      <trkpt lat="46.99139" lon="8.69038">
        <ele>556</ele>
        <time>2021-08-05T10:29:14.490Z</time>
      </trkpt>
      <trkpt lat="46.99139" lon="8.69039">
        <ele>556</ele>
        <time>2021-08-05T10:29:15.490Z</time>
      </trkpt>
      <trkpt lat="46.99138" lon="8.69041">
        <ele>556</ele>
        <time>2021-08-05T10:29:16.489Z</time>
      </trkpt>
      <trkpt lat="46.99138" lon="8.69042">
        <ele>557</ele>
        <time>2021-08-05T10:29:17.489Z</time>
      </trkpt>
      <trkpt lat="46.99138" lon="8.69043">
        <ele>556</ele>
        <time>2021-08-05T10:29:18.490Z</time>
      </trkpt>
      <trkpt lat="46.99137" lon="8.69044">
        <ele>556</ele>
        <time>2021-08-05T10:29:19.490Z</time>
      </trkpt>
      <trkpt lat="46.99137" lon="8.69046">
        <ele>556</ele>
        <time>2021-08-05T10:29:20.489Z</time>
      </trkpt>
      <trkpt lat="46.99137" lon="8.69047">
        <ele>555</ele>
        <time>2021-08-05T10:29:21.490Z</time>
      </trkpt>
      <trkpt lat="46.99137" lon="8.69048">
        <ele>555</ele>
        <time>2021-08-05T10:29:22.490Z</time>
      </trkpt>
      <trkpt lat="46.99137" lon="8.6905">
        <ele>554</ele>
        <time>2021-08-05T10:29:23.490Z</time>
      </trkpt>
      <trkpt lat="46.99137" lon="8.69051">
        <ele>554</ele>
        <time>2021-08-05T10:29:24.489Z</time>
      </trkpt>
      <trkpt lat="46.99136" lon="8.69052">
        <ele>553</ele>
        <time>2021-08-05T10:29:25.490Z</time>
      </trkpt>
      <trkpt lat="46.99136" lon="8.69054">
        <ele>553</ele>
        <time>2021-08-05T10:29:26.489Z</time>
      </trkpt>
      <trkpt lat="46.99136" lon="8.69055">
        <ele>553</ele>
        <time>2021-08-05T10:29:27.490Z</time>
      </trkpt>
      <trkpt lat="46.99136" lon="8.69057">
        <ele>553</ele>
        <time>2021-08-05T10:29:28.490Z</time>
      </trkpt>
      <trkpt lat="46.99136" lon="8.69058">
        <ele>553</ele>
        <time>2021-08-05T10:29:29.489Z</time>
      </trkpt>
      <trkpt lat="46.99136" lon="8.6906">
        <ele>553</ele>
        <time>2021-08-05T10:29:30.489Z</time>
      </trkpt>
      <trkpt lat="46.99136" lon="8.69061">
        <ele>553</ele>
        <time>2021-08-05T10:29:31.489Z</time>
      </trkpt>
      <trkpt lat="46.99136" lon="8.69062">
        <ele>553</ele>
        <time>2021-08-05T10:29:32.489Z</time>
      </trkpt>
      <trkpt lat="46.99136" lon="8.69064">
        <ele>553</ele>
        <time>2021-08-05T10:29:33.490Z</time>
      </trkpt>
      <trkpt lat="46.99136" lon="8.69065">
        <ele>554</ele>
        <time>2021-08-05T10:29:34.490Z</time>
      </trkpt>
      <trkpt lat="46.99136" lon="8.69066">
        <ele>554</ele>
        <time>2021-08-05T10:29:35.490Z</time>
      </trkpt>
      <trkpt lat="46.99136" lon="8.69068">
        <ele>554</ele>
        <time>2021-08-05T10:29:36.489Z</time>
      </trkpt>
      <trkpt lat="46.99135" lon="8.69068">
        <ele>554</ele>
        <time>2021-08-05T10:29:37.489Z</time>
      </trkpt>
      <trkpt lat="46.99135" lon="8.69069">
        <ele>554</ele>
        <time>2021-08-05T10:29:38.490Z</time>
      </trkpt>
      <trkpt lat="46.99135" lon="8.69069">
        <ele>554</ele>
        <time>2021-08-05T10:29:39.490Z</time>
      </trkpt>
      <trkpt lat="46.99134" lon="8.6907">
        <ele>554</ele>
        <time>2021-08-05T10:29:40.489Z</time>
      </trkpt>
      <trkpt lat="46.99132" lon="8.69071">
        <ele>554</ele>
        <time>2021-08-05T10:29:41.490Z</time>
      </trkpt>
      <trkpt lat="46.99131" lon="8.69073">
        <ele>555</ele>
        <time>2021-08-05T10:29:42.489Z</time>
      </trkpt>
      <trkpt lat="46.99131" lon="8.69074">
        <ele>555</ele>
        <time>2021-08-05T10:29:43.489Z</time>
      </trkpt>
      <trkpt lat="46.9913" lon="8.69075">
        <ele>555</ele>
        <time>2021-08-05T10:29:44.489Z</time>
      </trkpt>
      <trkpt lat="46.99129" lon="8.69078">
        <ele>556</ele>
        <time>2021-08-05T10:29:45.489Z</time>
      </trkpt>
      <trkpt lat="46.99128" lon="8.69079">
        <ele>556</ele>
        <time>2021-08-05T10:29:46.489Z</time>
      </trkpt>
      <trkpt lat="46.99128" lon="8.6908">
        <ele>557</ele>
        <time>2021-08-05T10:29:47.489Z</time>
      </trkpt>
      <trkpt lat="46.99127" lon="8.6908">
        <ele>557</ele>
        <time>2021-08-05T10:29:48.490Z</time>
      </trkpt>
      <trkpt lat="46.99127" lon="8.6908">
        <ele>558</ele>
        <time>2021-08-05T10:29:49.490Z</time>
      </trkpt>
      <trkpt lat="46.99127" lon="8.69081">
        <ele>558</ele>
        <time>2021-08-05T10:29:50.489Z</time>
      </trkpt>
      <trkpt lat="46.99128" lon="8.69082">
        <ele>558</ele>
        <time>2021-08-05T10:29:51.489Z</time>
      </trkpt>
      <trkpt lat="46.99127" lon="8.69082">
        <ele>559</ele>
        <time>2021-08-05T10:29:52.490Z</time>
      </trkpt>
      <trkpt lat="46.99127" lon="8.69083">
        <ele>559</ele>
        <time>2021-08-05T10:29:53.490Z</time>
      </trkpt>
      <trkpt lat="46.99125" lon="8.69083">
        <ele>560</ele>
        <time>2021-08-05T10:29:54.490Z</time>
      </trkpt>
      <trkpt lat="46.99124" lon="8.69083">
        <ele>561</ele>
        <time>2021-08-05T10:29:55.490Z</time>
      </trkpt>
      <trkpt lat="46.99123" lon="8.69083">
        <ele>562</ele>
        <time>2021-08-05T10:29:56.489Z</time>
      </trkpt>
      <trkpt lat="46.99123" lon="8.69084">
        <ele>562</ele>
        <time>2021-08-05T10:29:57.489Z</time>
      </trkpt>
      <trkpt lat="46.99122" lon="8.69086">
        <ele>562</ele>
        <time>2021-08-05T10:29:58.490Z</time>
      </trkpt>
      <trkpt lat="46.99121" lon="8.69087">
        <ele>562</ele>
        <time>2021-08-05T10:29:59.490Z</time>
      </trkpt>
      <trkpt lat="46.9912" lon="8.69088">
        <ele>561</ele>
        <time>2021-08-05T10:30:00.489Z</time>
      </trkpt>
      <trkpt lat="46.99119" lon="8.69089">
        <ele>561</ele>
        <time>2021-08-05T10:30:01.490Z</time>
      </trkpt>
      <trkpt lat="46.99119" lon="8.69089">
        <ele>561</ele>
        <time>2021-08-05T10:30:02.490Z</time>
      </trkpt>
      <trkpt lat="46.99118" lon="8.6909">
        <ele>560</ele>
        <time>2021-08-05T10:30:03.490Z</time>
      </trkpt>
      <trkpt lat="46.99117" lon="8.69091">
        <ele>560</ele>
        <time>2021-08-05T10:30:04.489Z</time>
      </trkpt>
      <trkpt lat="46.99116" lon="8.69092">
        <ele>560</ele>
        <time>2021-08-05T10:30:05.490Z</time>
      </trkpt>
      <trkpt lat="46.99116" lon="8.69094">
        <ele>559</ele>
        <time>2021-08-05T10:30:06.490Z</time>
      </trkpt>
      <trkpt lat="46.99115" lon="8.69095">
        <ele>559</ele>
        <time>2021-08-05T10:30:07.490Z</time>
      </trkpt>
      <trkpt lat="46.99114" lon="8.69096">
        <ele>559</ele>
        <time>2021-08-05T10:30:08.489Z</time>
      </trkpt>
      <trkpt lat="46.99113" lon="8.69098">
        <ele>558</ele>
        <time>2021-08-05T10:30:09.489Z</time>
      </trkpt>
      <trkpt lat="46.99112" lon="8.691">
        <ele>558</ele>
        <time>2021-08-05T10:30:10.489Z</time>
      </trkpt>
      <trkpt lat="46.99112" lon="8.69102">
        <ele>558</ele>
        <time>2021-08-05T10:30:11.490Z</time>
      </trkpt>
      <trkpt lat="46.99112" lon="8.69104">
        <ele>558</ele>
        <time>2021-08-05T10:30:12.490Z</time>
      </trkpt>
      <trkpt lat="46.99112" lon="8.69105">
        <ele>558</ele>
        <time>2021-08-05T10:30:13.490Z</time>
      </trkpt>
      <trkpt lat="46.99112" lon="8.69107">
        <ele>558</ele>
        <time>2021-08-05T10:30:14.490Z</time>
      </trkpt>
      <trkpt lat="46.99111" lon="8.69109">
        <ele>558</ele>
        <time>2021-08-05T10:30:15.490Z</time>
      </trkpt>
      <trkpt lat="46.9911" lon="8.69111">
        <ele>558</ele>
        <time>2021-08-05T10:30:16.490Z</time>
      </trkpt>
      <trkpt lat="46.99108" lon="8.69112">
        <ele>557</ele>
        <time>2021-08-05T10:30:17.489Z</time>
      </trkpt>
      <trkpt lat="46.99107" lon="8.69115">
        <ele>557</ele>
        <time>2021-08-05T10:30:18.490Z</time>
      </trkpt>
      <trkpt lat="46.99106" lon="8.69116">
        <ele>557</ele>
        <time>2021-08-05T10:30:19.489Z</time>
      </trkpt>
      <trkpt lat="46.99105" lon="8.69118">
        <ele>557</ele>
        <time>2021-08-05T10:30:20.489Z</time>
      </trkpt>
      <trkpt lat="46.99104" lon="8.6912">
        <ele>558</ele>
        <time>2021-08-05T10:30:21.489Z</time>
      </trkpt>
      <trkpt lat="46.99103" lon="8.69121">
        <ele>558</ele>
        <time>2021-08-05T10:30:22.489Z</time>
      </trkpt>
      <trkpt lat="46.99103" lon="8.69123">
        <ele>558</ele>
        <time>2021-08-05T10:30:23.489Z</time>
      </trkpt>
      <trkpt lat="46.99102" lon="8.69124">
        <ele>558</ele>
        <time>2021-08-05T10:30:24.489Z</time>
      </trkpt>
      <trkpt lat="46.99102" lon="8.69125">
        <ele>559</ele>
        <time>2021-08-05T10:30:25.490Z</time>
      </trkpt>
      <trkpt lat="46.99101" lon="8.69126">
        <ele>560</ele>
        <time>2021-08-05T10:30:26.489Z</time>
      </trkpt>
      <trkpt lat="46.99101" lon="8.69128">
        <ele>560</ele>
        <time>2021-08-05T10:30:27.490Z</time>
      </trkpt>
      <trkpt lat="46.991" lon="8.69129">
        <ele>560</ele>
        <time>2021-08-05T10:30:28.489Z</time>
      </trkpt>
      <trkpt lat="46.99099" lon="8.6913">
        <ele>561</ele>
        <time>2021-08-05T10:30:29.490Z</time>
      </trkpt>
      <trkpt lat="46.99099" lon="8.69132">
        <ele>561</ele>
        <time>2021-08-05T10:30:30.490Z</time>
      </trkpt>
      <trkpt lat="46.99099" lon="8.69134">
        <ele>562</ele>
        <time>2021-08-05T10:30:31.489Z</time>
      </trkpt>
      <trkpt lat="46.99098" lon="8.69136">
        <ele>562</ele>
        <time>2021-08-05T10:30:32.489Z</time>
      </trkpt>
      <trkpt lat="46.99098" lon="8.69137">
        <ele>561</ele>
        <time>2021-08-05T10:30:33.490Z</time>
      </trkpt>
      <trkpt lat="46.99098" lon="8.69139">
        <ele>561</ele>
        <time>2021-08-05T10:30:34.490Z</time>
      </trkpt>
      <trkpt lat="46.99098" lon="8.6914">
        <ele>561</ele>
        <time>2021-08-05T10:30:35.490Z</time>
      </trkpt>
      <trkpt lat="46.99097" lon="8.69142">
        <ele>561</ele>
        <time>2021-08-05T10:30:36.490Z</time>
      </trkpt>
      <trkpt lat="46.99096" lon="8.69144">
        <ele>562</ele>
        <time>2021-08-05T10:30:37.490Z</time>
      </trkpt>
      <trkpt lat="46.99095" lon="8.69147">
        <ele>562</ele>
        <time>2021-08-05T10:30:38.490Z</time>
      </trkpt>
      <trkpt lat="46.99094" lon="8.6915">
        <ele>563</ele>
        <time>2021-08-05T10:30:39.490Z</time>
      </trkpt>
      <trkpt lat="46.99094" lon="8.69152">
        <ele>563</ele>
        <time>2021-08-05T10:30:40.490Z</time>
      </trkpt>
      <trkpt lat="46.99094" lon="8.69154">
        <ele>563</ele>
        <time>2021-08-05T10:30:41.489Z</time>
      </trkpt>
      <trkpt lat="46.99093" lon="8.69156">
        <ele>564</ele>
        <time>2021-08-05T10:30:42.490Z</time>
      </trkpt>
      <trkpt lat="46.99093" lon="8.69157">
        <ele>563</ele>
        <time>2021-08-05T10:30:43.490Z</time>
      </trkpt>
      <trkpt lat="46.99093" lon="8.69159">
        <ele>563</ele>
        <time>2021-08-05T10:30:44.490Z</time>
      </trkpt>
      <trkpt lat="46.99093" lon="8.6916">
        <ele>563</ele>
        <time>2021-08-05T10:30:45.490Z</time>
      </trkpt>
      <trkpt lat="46.99093" lon="8.6916">
        <ele>563</ele>
        <time>2021-08-05T10:30:46.490Z</time>
      </trkpt>
      <trkpt lat="46.99093" lon="8.69161">
        <ele>562</ele>
        <time>2021-08-05T10:30:47.489Z</time>
      </trkpt>
      <trkpt lat="46.99094" lon="8.69163">
        <ele>562</ele>
        <time>2021-08-05T10:30:48.490Z</time>
      </trkpt>
      <trkpt lat="46.99093" lon="8.69164">
        <ele>562</ele>
        <time>2021-08-05T10:30:49.489Z</time>
      </trkpt>
      <trkpt lat="46.99093" lon="8.69166">
        <ele>561</ele>
        <time>2021-08-05T10:30:50.490Z</time>
      </trkpt>
      <trkpt lat="46.99093" lon="8.69167">
        <ele>560</ele>
        <time>2021-08-05T10:30:51.490Z</time>
      </trkpt>
      <trkpt lat="46.99093" lon="8.69168">
        <ele>560</ele>
        <time>2021-08-05T10:30:52.489Z</time>
      </trkpt>
      <trkpt lat="46.99093" lon="8.6917">
        <ele>560</ele>
        <time>2021-08-05T10:30:53.490Z</time>
      </trkpt>
      <trkpt lat="46.99093" lon="8.69171">
        <ele>559</ele>
        <time>2021-08-05T10:30:54.489Z</time>
      </trkpt>
      <trkpt lat="46.99092" lon="8.69172">
        <ele>559</ele>
        <time>2021-08-05T10:30:55.490Z</time>
      </trkpt>
      <trkpt lat="46.99091" lon="8.69173">
        <ele>558</ele>
        <time>2021-08-05T10:30:56.489Z</time>
      </trkpt>
      <trkpt lat="46.99091" lon="8.69174">
        <ele>558</ele>
        <time>2021-08-05T10:30:57.490Z</time>
      </trkpt>
      <trkpt lat="46.9909" lon="8.69175">
        <ele>557</ele>
        <time>2021-08-05T10:30:58.489Z</time>
      </trkpt>
      <trkpt lat="46.99089" lon="8.69176">
        <ele>557</ele>
        <time>2021-08-05T10:30:59.489Z</time>
      </trkpt>
      <trkpt lat="46.99088" lon="8.69177">
        <ele>558</ele>
        <time>2021-08-05T10:31:00.489Z</time>
      </trkpt>
      <trkpt lat="46.99088" lon="8.69179">
        <ele>558</ele>
        <time>2021-08-05T10:31:01.489Z</time>
      </trkpt>
      <trkpt lat="46.99087" lon="8.6918">
        <ele>559</ele>
        <time>2021-08-05T10:31:02.489Z</time>
      </trkpt>
      <trkpt lat="46.99087" lon="8.69182">
        <ele>559</ele>
        <time>2021-08-05T10:31:03.489Z</time>
      </trkpt>
      <trkpt lat="46.99087" lon="8.69183">
        <ele>559</ele>
        <time>2021-08-05T10:31:04.490Z</time>
      </trkpt>
      <trkpt lat="46.99087" lon="8.69185">
        <ele>559</ele>
        <time>2021-08-05T10:31:05.489Z</time>
      </trkpt>
      <trkpt lat="46.99087" lon="8.69187">
        <ele>559</ele>
        <time>2021-08-05T10:31:06.490Z</time>
      </trkpt>
      <trkpt lat="46.99087" lon="8.69189">
        <ele>559</ele>
        <time>2021-08-05T10:31:07.490Z</time>
      </trkpt>
      <trkpt lat="46.99087" lon="8.6919">
        <ele>560</ele>
        <time>2021-08-05T10:31:08.490Z</time>
      </trkpt>
      <trkpt lat="46.99086" lon="8.69192">
        <ele>560</ele>
        <time>2021-08-05T10:31:09.490Z</time>
      </trkpt>
      <trkpt lat="46.99086" lon="8.69194">
        <ele>560</ele>
        <time>2021-08-05T10:31:10.490Z</time>
      </trkpt>
      <trkpt lat="46.99086" lon="8.69195">
        <ele>560</ele>
        <time>2021-08-05T10:31:11.490Z</time>
      </trkpt>
      <trkpt lat="46.99085" lon="8.69196">
        <ele>560</ele>
        <time>2021-08-05T10:31:12.489Z</time>
      </trkpt>
      <trkpt lat="46.99085" lon="8.69197">
        <ele>559</ele>
        <time>2021-08-05T10:31:13.490Z</time>
      </trkpt>
      <trkpt lat="46.99084" lon="8.69198">
        <ele>559</ele>
        <time>2021-08-05T10:31:14.490Z</time>
      </trkpt>
      <trkpt lat="46.99084" lon="8.69199">
        <ele>559</ele>
        <time>2021-08-05T10:31:15.489Z</time>
      </trkpt>
      <trkpt lat="46.99084" lon="8.692">
        <ele>558</ele>
        <time>2021-08-05T10:31:16.490Z</time>
      </trkpt>
      <trkpt lat="46.99084" lon="8.69202">
        <ele>558</ele>
        <time>2021-08-05T10:31:17.489Z</time>
      </trkpt>
      <trkpt lat="46.99083" lon="8.69203">
        <ele>557</ele>
        <time>2021-08-05T10:31:18.490Z</time>
      </trkpt>
      <trkpt lat="46.99083" lon="8.69204">
        <ele>556</ele>
        <time>2021-08-05T10:31:19.490Z</time>
      </trkpt>
      <trkpt lat="46.99082" lon="8.69206">
        <ele>556</ele>
        <time>2021-08-05T10:31:20.490Z</time>
      </trkpt>
      <trkpt lat="46.99082" lon="8.69207">
        <ele>555</ele>
        <time>2021-08-05T10:31:21.489Z</time>
      </trkpt>
      <trkpt lat="46.99081" lon="8.69208">
        <ele>555</ele>
        <time>2021-08-05T10:31:22.489Z</time>
      </trkpt>
      <trkpt lat="46.9908" lon="8.6921">
        <ele>555</ele>
        <time>2021-08-05T10:31:23.490Z</time>
      </trkpt>
      <trkpt lat="46.99079" lon="8.69211">
        <ele>554</ele>
        <time>2021-08-05T10:31:24.489Z</time>
      </trkpt>
      <trkpt lat="46.99078" lon="8.69212">
        <ele>554</ele>
        <time>2021-08-05T10:31:25.489Z</time>
      </trkpt>
      <trkpt lat="46.99077" lon="8.69214">
        <ele>554</ele>
        <time>2021-08-05T10:31:26.489Z</time>
      </trkpt>
      <trkpt lat="46.99077" lon="8.69215">
        <ele>554</ele>
        <time>2021-08-05T10:31:27.489Z</time>
      </trkpt>
      <trkpt lat="46.99076" lon="8.69216">
        <ele>554</ele>
        <time>2021-08-05T10:31:28.490Z</time>
      </trkpt>
      <trkpt lat="46.99076" lon="8.69217">
        <ele>554</ele>
        <time>2021-08-05T10:31:29.489Z</time>
      </trkpt>
      <trkpt lat="46.99076" lon="8.69219">
        <ele>554</ele>
        <time>2021-08-05T10:31:30.490Z</time>
      </trkpt>
      <trkpt lat="46.99075" lon="8.6922">
        <ele>555</ele>
        <time>2021-08-05T10:31:31.490Z</time>
      </trkpt>
      <trkpt lat="46.99075" lon="8.69222">
        <ele>555</ele>
        <time>2021-08-05T10:31:32.489Z</time>
      </trkpt>
      <trkpt lat="46.99075" lon="8.69223">
        <ele>555</ele>
        <time>2021-08-05T10:31:33.490Z</time>
      </trkpt>
      <trkpt lat="46.99074" lon="8.69225">
        <ele>556</ele>
        <time>2021-08-05T10:31:34.489Z</time>
      </trkpt>
      <trkpt lat="46.99074" lon="8.69226">
        <ele>556</ele>
        <time>2021-08-05T10:31:35.490Z</time>
      </trkpt>
      <trkpt lat="46.99073" lon="8.69228">
        <ele>557</ele>
        <time>2021-08-05T10:31:36.489Z</time>
      </trkpt>
      <trkpt lat="46.99073" lon="8.69229">
        <ele>557</ele>
        <time>2021-08-05T10:31:37.490Z</time>
      </trkpt>
      <trkpt lat="46.99072" lon="8.6923">
        <ele>557</ele>
        <time>2021-08-05T10:31:38.490Z</time>
      </trkpt>
      <trkpt lat="46.99072" lon="8.69232">
        <ele>557</ele>
        <time>2021-08-05T10:31:39.489Z</time>
      </trkpt>
      <trkpt lat="46.99071" lon="8.69233">
        <ele>556</ele>
        <time>2021-08-05T10:31:40.490Z</time>
      </trkpt>
      <trkpt lat="46.9907" lon="8.69235">
        <ele>556</ele>
        <time>2021-08-05T10:31:41.490Z</time>
      </trkpt>
      <trkpt lat="46.9907" lon="8.69237">
        <ele>556</ele>
        <time>2021-08-05T10:31:42.490Z</time>
      </trkpt>
      <trkpt lat="46.9907" lon="8.6924">
        <ele>556</ele>
        <time>2021-08-05T10:31:43.490Z</time>
      </trkpt>
      <trkpt lat="46.99069" lon="8.69241">
        <ele>556</ele>
        <time>2021-08-05T10:31:44.490Z</time>
      </trkpt>
      <trkpt lat="46.99068" lon="8.69243">
        <ele>555</ele>
        <time>2021-08-05T10:31:45.490Z</time>
      </trkpt>
      <trkpt lat="46.99068" lon="8.69245">
        <ele>555</ele>
        <time>2021-08-05T10:31:46.489Z</time>
      </trkpt>
      <trkpt lat="46.99067" lon="8.69246">
        <ele>555</ele>
        <time>2021-08-05T10:31:47.489Z</time>
      </trkpt>
      <trkpt lat="46.99066" lon="8.69248">
        <ele>555</ele>
        <time>2021-08-05T10:31:48.489Z</time>
      </trkpt>
      <trkpt lat="46.99065" lon="8.6925">
        <ele>555</ele>
        <time>2021-08-05T10:31:49.490Z</time>
      </trkpt>
      <trkpt lat="46.99065" lon="8.69251">
        <ele>555</ele>
        <time>2021-08-05T10:31:50.489Z</time>
      </trkpt>
      <trkpt lat="46.99064" lon="8.69253">
        <ele>555</ele>
        <time>2021-08-05T10:31:51.490Z</time>
      </trkpt>
      <trkpt lat="46.99063" lon="8.69254">
        <ele>555</ele>
        <time>2021-08-05T10:31:52.490Z</time>
      </trkpt>
      <trkpt lat="46.99063" lon="8.69256">
        <ele>554</ele>
        <time>2021-08-05T10:31:53.489Z</time>
      </trkpt>
      <trkpt lat="46.99062" lon="8.69258">
        <ele>554</ele>
        <time>2021-08-05T10:31:54.490Z</time>
      </trkpt>
      <trkpt lat="46.99062" lon="8.6926">
        <ele>554</ele>
        <time>2021-08-05T10:31:55.490Z</time>
      </trkpt>
      <trkpt lat="46.99061" lon="8.69261">
        <ele>554</ele>
        <time>2021-08-05T10:31:56.490Z</time>
      </trkpt>
      <trkpt lat="46.99061" lon="8.69263">
        <ele>553</ele>
        <time>2021-08-05T10:31:57.490Z</time>
      </trkpt>
      <trkpt lat="46.9906" lon="8.69264">
        <ele>553</ele>
        <time>2021-08-05T10:31:58.490Z</time>
      </trkpt>
      <trkpt lat="46.99059" lon="8.69265">
        <ele>553</ele>
        <time>2021-08-05T10:31:59.490Z</time>
      </trkpt>
      <trkpt lat="46.99059" lon="8.69267">
        <ele>554</ele>
        <time>2021-08-05T10:32:00.490Z</time>
      </trkpt>
      <trkpt lat="46.99058" lon="8.69268">
        <ele>554</ele>
        <time>2021-08-05T10:32:01.490Z</time>
      </trkpt>
      <trkpt lat="46.99058" lon="8.6927">
        <ele>554</ele>
        <time>2021-08-05T10:32:02.490Z</time>
      </trkpt>
      <trkpt lat="46.99057" lon="8.69272">
        <ele>554</ele>
        <time>2021-08-05T10:32:03.490Z</time>
      </trkpt>
      <trkpt lat="46.99057" lon="8.69274">
        <ele>554</ele>
        <time>2021-08-05T10:32:04.490Z</time>
      </trkpt>
      <trkpt lat="46.99057" lon="8.69275">
        <ele>555</ele>
        <time>2021-08-05T10:32:05.490Z</time>
      </trkpt>
      <trkpt lat="46.99056" lon="8.69277">
        <ele>555</ele>
        <time>2021-08-05T10:32:06.490Z</time>
      </trkpt>
      <trkpt lat="46.99056" lon="8.69279">
        <ele>556</ele>
        <time>2021-08-05T10:32:07.490Z</time>
      </trkpt>
      <trkpt lat="46.99055" lon="8.69281">
        <ele>556</ele>
        <time>2021-08-05T10:32:08.489Z</time>
      </trkpt>
      <trkpt lat="46.99055" lon="8.69282">
        <ele>556</ele>
        <time>2021-08-05T10:32:09.490Z</time>
      </trkpt>
      <trkpt lat="46.99054" lon="8.69284">
        <ele>556</ele>
        <time>2021-08-05T10:32:10.489Z</time>
      </trkpt>
      <trkpt lat="46.99054" lon="8.69285">
        <ele>557</ele>
        <time>2021-08-05T10:32:11.490Z</time>
      </trkpt>
      <trkpt lat="46.99053" lon="8.69287">
        <ele>557</ele>
        <time>2021-08-05T10:32:12.490Z</time>
      </trkpt>
      <trkpt lat="46.99052" lon="8.69288">
        <ele>557</ele>
        <time>2021-08-05T10:32:13.489Z</time>
      </trkpt>
      <trkpt lat="46.99052" lon="8.6929">
        <ele>557</ele>
        <time>2021-08-05T10:32:14.489Z</time>
      </trkpt>
      <trkpt lat="46.99051" lon="8.69291">
        <ele>558</ele>
        <time>2021-08-05T10:32:15.490Z</time>
      </trkpt>
      <trkpt lat="46.99051" lon="8.69293">
        <ele>558</ele>
        <time>2021-08-05T10:32:16.490Z</time>
      </trkpt>
      <trkpt lat="46.9905" lon="8.69295">
        <ele>559</ele>
        <time>2021-08-05T10:32:17.490Z</time>
      </trkpt>
      <trkpt lat="46.99049" lon="8.69296">
        <ele>559</ele>
        <time>2021-08-05T10:32:18.489Z</time>
      </trkpt>
      <trkpt lat="46.99049" lon="8.69298">
        <ele>560</ele>
        <time>2021-08-05T10:32:19.489Z</time>
      </trkpt>
      <trkpt lat="46.99048" lon="8.69299">
        <ele>560</ele>
        <time>2021-08-05T10:32:20.490Z</time>
      </trkpt>
      <trkpt lat="46.99047" lon="8.693">
        <ele>559</ele>
        <time>2021-08-05T10:32:21.489Z</time>
      </trkpt>
      <trkpt lat="46.99047" lon="8.69302">
        <ele>559</ele>
        <time>2021-08-05T10:32:22.490Z</time>
      </trkpt>
      <trkpt lat="46.99046" lon="8.69303">
        <ele>558</ele>
        <time>2021-08-05T10:32:23.490Z</time>
      </trkpt>
      <trkpt lat="46.99045" lon="8.69304">
        <ele>557</ele>
        <time>2021-08-05T10:32:24.490Z</time>
      </trkpt>
      <trkpt lat="46.99044" lon="8.69305">
        <ele>557</ele>
        <time>2021-08-05T10:32:25.490Z</time>
      </trkpt>
      <trkpt lat="46.99043" lon="8.69307">
        <ele>556</ele>
        <time>2021-08-05T10:32:26.489Z</time>
      </trkpt>
      <trkpt lat="46.99043" lon="8.69308">
        <ele>556</ele>
        <time>2021-08-05T10:32:27.490Z</time>
      </trkpt>
      <trkpt lat="46.99043" lon="8.69309">
        <ele>555</ele>
        <time>2021-08-05T10:32:28.490Z</time>
      </trkpt>
      <trkpt lat="46.99042" lon="8.6931">
        <ele>555</ele>
        <time>2021-08-05T10:32:29.490Z</time>
      </trkpt>
      <trkpt lat="46.99042" lon="8.69312">
        <ele>555</ele>
        <time>2021-08-05T10:32:30.490Z</time>
      </trkpt>
      <trkpt lat="46.99041" lon="8.69313">
        <ele>555</ele>
        <time>2021-08-05T10:32:31.490Z</time>
      </trkpt>
      <trkpt lat="46.99041" lon="8.69315">
        <ele>555</ele>
        <time>2021-08-05T10:32:32.489Z</time>
      </trkpt>
      <trkpt lat="46.9904" lon="8.69317">
        <ele>556</ele>
        <time>2021-08-05T10:32:33.490Z</time>
      </trkpt>
      <trkpt lat="46.99039" lon="8.69318">
        <ele>556</ele>
        <time>2021-08-05T10:32:34.489Z</time>
      </trkpt>
      <trkpt lat="46.99039" lon="8.6932">
        <ele>556</ele>
        <time>2021-08-05T10:32:35.490Z</time>
      </trkpt>
      <trkpt lat="46.99038" lon="8.69321">
        <ele>557</ele>
        <time>2021-08-05T10:32:36.490Z</time>
      </trkpt>
      <trkpt lat="46.99038" lon="8.69323">
        <ele>557</ele>
        <time>2021-08-05T10:32:37.490Z</time>
      </trkpt>
      <trkpt lat="46.99037" lon="8.69324">
        <ele>556</ele>
        <time>2021-08-05T10:32:38.489Z</time>
      </trkpt>
      <trkpt lat="46.99037" lon="8.69326">
        <ele>556</ele>
        <time>2021-08-05T10:32:39.490Z</time>
      </trkpt>
      <trkpt lat="46.99036" lon="8.69327">
        <ele>557</ele>
        <time>2021-08-05T10:32:40.489Z</time>
      </trkpt>
      <trkpt lat="46.99035" lon="8.69328">
        <ele>557</ele>
        <time>2021-08-05T10:32:41.489Z</time>
      </trkpt>
      <trkpt lat="46.99035" lon="8.6933">
        <ele>557</ele>
        <time>2021-08-05T10:32:42.489Z</time>
      </trkpt>
      <trkpt lat="46.99034" lon="8.69331">
        <ele>558</ele>
        <time>2021-08-05T10:32:43.489Z</time>
      </trkpt>
      <trkpt lat="46.99034" lon="8.69333">
        <ele>558</ele>
        <time>2021-08-05T10:32:44.489Z</time>
      </trkpt>
      <trkpt lat="46.99033" lon="8.69334">
        <ele>559</ele>
        <time>2021-08-05T10:32:45.489Z</time>
      </trkpt>
      <trkpt lat="46.99032" lon="8.69335">
        <ele>559</ele>
        <time>2021-08-05T10:32:46.490Z</time>
      </trkpt>
      <trkpt lat="46.99032" lon="8.69336">
        <ele>560</ele>
        <time>2021-08-05T10:32:47.490Z</time>
      </trkpt>
      <trkpt lat="46.99031" lon="8.69338">
        <ele>560</ele>
        <time>2021-08-05T10:32:48.490Z</time>
      </trkpt>
      <trkpt lat="46.99031" lon="8.69339">
        <ele>560</ele>
        <time>2021-08-05T10:32:49.490Z</time>
      </trkpt>
      <trkpt lat="46.9903" lon="8.69341">
        <ele>560</ele>
        <time>2021-08-05T10:32:50.490Z</time>
      </trkpt>
      <trkpt lat="46.99029" lon="8.69342">
        <ele>560</ele>
        <time>2021-08-05T10:32:51.490Z</time>
      </trkpt>
      <trkpt lat="46.99029" lon="8.69344">
        <ele>560</ele>
        <time>2021-08-05T10:32:52.489Z</time>
      </trkpt>
      <trkpt lat="46.99028" lon="8.69345">
        <ele>560</ele>
        <time>2021-08-05T10:32:53.489Z</time>
      </trkpt>
      <trkpt lat="46.99027" lon="8.69346">
        <ele>561</ele>
        <time>2021-08-05T10:32:54.490Z</time>
      </trkpt>
      <trkpt lat="46.99027" lon="8.69347">
        <ele>561</ele>
        <time>2021-08-05T10:32:55.489Z</time>
      </trkpt>
      <trkpt lat="46.99026" lon="8.69349">
        <ele>561</ele>
        <time>2021-08-05T10:32:56.489Z</time>
      </trkpt>
      <trkpt lat="46.99026" lon="8.6935">
        <ele>561</ele>
        <time>2021-08-05T10:32:57.490Z</time>
      </trkpt>
      <trkpt lat="46.99026" lon="8.69351">
        <ele>562</ele>
        <time>2021-08-05T10:32:58.489Z</time>
      </trkpt>
      <trkpt lat="46.99025" lon="8.69353">
        <ele>562</ele>
        <time>2021-08-05T10:32:59.490Z</time>
      </trkpt>
      <trkpt lat="46.99024" lon="8.69354">
        <ele>562</ele>
        <time>2021-08-05T10:33:00.490Z</time>
      </trkpt>
      <trkpt lat="46.99023" lon="8.69355">
        <ele>562</ele>
        <time>2021-08-05T10:33:01.490Z</time>
      </trkpt>
      <trkpt lat="46.99022" lon="8.69355">
        <ele>562</ele>
        <time>2021-08-05T10:33:02.490Z</time>
      </trkpt>
      <trkpt lat="46.99021" lon="8.69356">
        <ele>562</ele>
        <time>2021-08-05T10:33:03.490Z</time>
      </trkpt>
      <trkpt lat="46.99019" lon="8.69358">
        <ele>563</ele>
        <time>2021-08-05T10:33:04.489Z</time>
      </trkpt>
      <trkpt lat="46.99018" lon="8.69359">
        <ele>563</ele>
        <time>2021-08-05T10:33:05.490Z</time>
      </trkpt>
      <trkpt lat="46.99018" lon="8.6936">
        <ele>564</ele>
        <time>2021-08-05T10:33:06.490Z</time>
      </trkpt>
      <trkpt lat="46.99017" lon="8.69362">
        <ele>564</ele>
        <time>2021-08-05T10:33:07.489Z</time>
      </trkpt>
      <trkpt lat="46.99017" lon="8.69364">
        <ele>563</ele>
        <time>2021-08-05T10:33:08.490Z</time>
      </trkpt>
      <trkpt lat="46.99016" lon="8.69365">
        <ele>563</ele>
        <time>2021-08-05T10:33:09.490Z</time>
      </trkpt>
      <trkpt lat="46.99016" lon="8.69367">
        <ele>563</ele>
        <time>2021-08-05T10:33:10.490Z</time>
      </trkpt>
      <trkpt lat="46.99016" lon="8.69368">
        <ele>562</ele>
        <time>2021-08-05T10:33:11.490Z</time>
      </trkpt>
      <trkpt lat="46.99016" lon="8.69369">
        <ele>561</ele>
        <time>2021-08-05T10:33:12.490Z</time>
      </trkpt>
      <trkpt lat="46.99017" lon="8.69369">
        <ele>560</ele>
        <time>2021-08-05T10:33:13.490Z</time>
      </trkpt>
      <trkpt lat="46.99017" lon="8.6937">
        <ele>559</ele>
        <time>2021-08-05T10:33:14.490Z</time>
      </trkpt>
      <trkpt lat="46.99017" lon="8.69371">
        <ele>558</ele>
        <time>2021-08-05T10:33:15.489Z</time>
      </trkpt>
      <trkpt lat="46.99017" lon="8.69372">
        <ele>557</ele>
        <time>2021-08-05T10:33:16.489Z</time>
      </trkpt>
      <trkpt lat="46.99019" lon="8.69378">
        <ele>552</ele>
        <time>2021-08-05T10:33:17.489Z</time>
      </trkpt>
      <trkpt lat="46.99019" lon="8.69378">
        <ele>551</ele>
        <time>2021-08-05T10:33:18.490Z</time>
      </trkpt>
      <trkpt lat="46.99019" lon="8.69379">
        <ele>551</ele>
        <time>2021-08-05T10:33:19.489Z</time>
      </trkpt>
      <trkpt lat="46.99019" lon="8.69379">
        <ele>550</ele>
        <time>2021-08-05T10:33:20.489Z</time>
      </trkpt>
      <trkpt lat="46.99019" lon="8.69379">
        <ele>550</ele>
        <time>2021-08-05T10:33:21.489Z</time>
      </trkpt>
      <trkpt lat="46.9902" lon="8.6938">
        <ele>550</ele>
        <time>2021-08-05T10:33:22.490Z</time>
      </trkpt>
      <trkpt lat="46.9902" lon="8.69381">
        <ele>550</ele>
        <time>2021-08-05T10:33:23.490Z</time>
      </trkpt>
      <trkpt lat="46.99027" lon="8.69381">
        <ele>549</ele>
        <time>2021-08-05T10:33:24.491Z</time>
      </trkpt>
      <trkpt lat="46.99027" lon="8.6938">
        <ele>550</ele>
        <time>2021-08-05T10:33:25.491Z</time>
      </trkpt>
      <trkpt lat="46.99028" lon="8.69379">
        <ele>550</ele>
        <time>2021-08-05T10:33:26.490Z</time>
      </trkpt>
      <trkpt lat="46.99029" lon="8.69378">
        <ele>551</ele>
        <time>2021-08-05T10:33:27.491Z</time>
      </trkpt>
      <trkpt lat="46.99029" lon="8.69378">
        <ele>552</ele>
        <time>2021-08-05T10:33:28.491Z</time>
      </trkpt>
      <trkpt lat="46.99029" lon="8.69379">
        <ele>552</ele>
        <time>2021-08-05T10:33:29.490Z</time>
      </trkpt>
      <trkpt lat="46.99029" lon="8.6938">
        <ele>552</ele>
        <time>2021-08-05T10:33:30.490Z</time>
      </trkpt>
      <trkpt lat="46.9903" lon="8.6938">
        <ele>553</ele>
        <time>2021-08-05T10:33:31.490Z</time>
      </trkpt>
      <trkpt lat="46.99031" lon="8.6938">
        <ele>553</ele>
        <time>2021-08-05T10:33:32.490Z</time>
      </trkpt>
      <trkpt lat="46.99031" lon="8.6938">
        <ele>553</ele>
        <time>2021-08-05T10:33:33.490Z</time>
      </trkpt>
      <trkpt lat="46.99032" lon="8.6938">
        <ele>553</ele>
        <time>2021-08-05T10:33:34.491Z</time>
      </trkpt>
      <trkpt lat="46.99032" lon="8.6938">
        <ele>554</ele>
        <time>2021-08-05T10:33:35.490Z</time>
      </trkpt>
      <trkpt lat="46.99031" lon="8.69381">
        <ele>556</ele>
        <time>2021-08-05T10:33:36.490Z</time>
      </trkpt>
      <trkpt lat="46.99031" lon="8.69382">
        <ele>557</ele>
        <time>2021-08-05T10:33:37.490Z</time>
      </trkpt>
      <trkpt lat="46.99031" lon="8.69383">
        <ele>557</ele>
        <time>2021-08-05T10:33:38.490Z</time>
      </trkpt>
      <trkpt lat="46.9903" lon="8.69384">
        <ele>557</ele>
        <time>2021-08-05T10:33:39.490Z</time>
      </trkpt>
      <trkpt lat="46.99028" lon="8.69387">
        <ele>559</ele>
        <time>2021-08-05T10:33:40.490Z</time>
      </trkpt>
      <trkpt lat="46.99027" lon="8.69387">
        <ele>559</ele>
        <time>2021-08-05T10:33:41.491Z</time>
      </trkpt>
      <trkpt lat="46.99026" lon="8.69387">
        <ele>559</ele>
        <time>2021-08-05T10:33:42.490Z</time>
      </trkpt>
      <trkpt lat="46.99024" lon="8.69386">
        <ele>559</ele>
        <time>2021-08-05T10:33:43.490Z</time>
      </trkpt>
      <trkpt lat="46.99024" lon="8.69384">
        <ele>558</ele>
        <time>2021-08-05T10:33:44.490Z</time>
      </trkpt>
      <trkpt lat="46.99023" lon="8.69383">
        <ele>558</ele>
        <time>2021-08-05T10:33:45.490Z</time>
      </trkpt>
      <trkpt lat="46.99023" lon="8.69382">
        <ele>558</ele>
        <time>2021-08-05T10:33:46.491Z</time>
      </trkpt>
      <trkpt lat="46.99022" lon="8.69381">
        <ele>558</ele>
        <time>2021-08-05T10:33:47.491Z</time>
      </trkpt>
      <trkpt lat="46.99022" lon="8.69381">
        <ele>558</ele>
        <time>2021-08-05T10:33:48.491Z</time>
      </trkpt>
      <trkpt lat="46.99021" lon="8.6938">
        <ele>558</ele>
        <time>2021-08-05T10:33:49.491Z</time>
      </trkpt>
      <trkpt lat="46.9902" lon="8.6938">
        <ele>558</ele>
        <time>2021-08-05T10:33:50.491Z</time>
      </trkpt>
      <trkpt lat="46.99019" lon="8.6938">
        <ele>559</ele>
        <time>2021-08-05T10:33:51.490Z</time>
      </trkpt>
      <trkpt lat="46.99019" lon="8.69381">
        <ele>559</ele>
        <time>2021-08-05T10:33:52.491Z</time>
      </trkpt>
      <trkpt lat="46.99018" lon="8.69382">
        <ele>559</ele>
        <time>2021-08-05T10:33:53.491Z</time>
      </trkpt>
      <trkpt lat="46.99017" lon="8.69383">
        <ele>559</ele>
        <time>2021-08-05T10:33:54.491Z</time>
      </trkpt>
      <trkpt lat="46.99017" lon="8.69384">
        <ele>559</ele>
        <time>2021-08-05T10:33:55.491Z</time>
      </trkpt>
      <trkpt lat="46.99016" lon="8.69385">
        <ele>560</ele>
        <time>2021-08-05T10:33:56.491Z</time>
      </trkpt>
      <trkpt lat="46.99016" lon="8.69386">
        <ele>560</ele>
        <time>2021-08-05T10:33:57.490Z</time>
      </trkpt>
      <trkpt lat="46.99016" lon="8.69387">
        <ele>561</ele>
        <time>2021-08-05T10:33:58.491Z</time>
      </trkpt>
      <trkpt lat="46.99016" lon="8.69388">
        <ele>561</ele>
        <time>2021-08-05T10:33:59.491Z</time>
      </trkpt>
      <trkpt lat="46.99016" lon="8.6939">
        <ele>561</ele>
        <time>2021-08-05T10:34:00.491Z</time>
      </trkpt>
      <trkpt lat="46.99016" lon="8.69391">
        <ele>560</ele>
        <time>2021-08-05T10:34:01.491Z</time>
      </trkpt>
      <trkpt lat="46.99016" lon="8.69391">
        <ele>560</ele>
        <time>2021-08-05T10:34:02.491Z</time>
      </trkpt>
      <trkpt lat="46.99016" lon="8.69392">
        <ele>560</ele>
        <time>2021-08-05T10:34:03.491Z</time>
      </trkpt>
      <trkpt lat="46.99016" lon="8.69392">
        <ele>560</ele>
        <time>2021-08-05T10:34:04.491Z</time>
      </trkpt>
      <trkpt lat="46.99017" lon="8.69394">
        <ele>559</ele>
        <time>2021-08-05T10:34:05.491Z</time>
      </trkpt>
      <trkpt lat="46.99016" lon="8.69395">
        <ele>559</ele>
        <time>2021-08-05T10:34:06.491Z</time>
      </trkpt>
      <trkpt lat="46.99015" lon="8.69397">
        <ele>558</ele>
        <time>2021-08-05T10:34:07.491Z</time>
      </trkpt>
      <trkpt lat="46.99014" lon="8.69398">
        <ele>558</ele>
        <time>2021-08-05T10:34:08.491Z</time>
      </trkpt>
      <trkpt lat="46.99013" lon="8.69399">
        <ele>558</ele>
        <time>2021-08-05T10:34:09.491Z</time>
      </trkpt>
      <trkpt lat="46.99012" lon="8.694">
        <ele>558</ele>
        <time>2021-08-05T10:34:10.490Z</time>
      </trkpt>
      <trkpt lat="46.9901" lon="8.694">
        <ele>558</ele>
        <time>2021-08-05T10:34:11.491Z</time>
      </trkpt>
      <trkpt lat="46.99009" lon="8.69401">
        <ele>557</ele>
        <time>2021-08-05T10:34:12.491Z</time>
      </trkpt>
      <trkpt lat="46.99007" lon="8.69401">
        <ele>557</ele>
        <time>2021-08-05T10:34:13.491Z</time>
      </trkpt>
      <trkpt lat="46.99006" lon="8.69403">
        <ele>557</ele>
        <time>2021-08-05T10:34:14.490Z</time>
      </trkpt>
      <trkpt lat="46.99005" lon="8.69404">
        <ele>557</ele>
        <time>2021-08-05T10:34:15.491Z</time>
      </trkpt>
      <trkpt lat="46.99004" lon="8.69406">
        <ele>557</ele>
        <time>2021-08-05T10:34:16.490Z</time>
      </trkpt>
      <trkpt lat="46.99003" lon="8.69407">
        <ele>557</ele>
        <time>2021-08-05T10:34:17.490Z</time>
      </trkpt>
      <trkpt lat="46.99003" lon="8.69408">
        <ele>557</ele>
        <time>2021-08-05T10:34:18.491Z</time>
      </trkpt>
      <trkpt lat="46.99002" lon="8.69409">
        <ele>557</ele>
        <time>2021-08-05T10:34:19.490Z</time>
      </trkpt>
      <trkpt lat="46.99001" lon="8.6941">
        <ele>557</ele>
        <time>2021-08-05T10:34:20.491Z</time>
      </trkpt>
      <trkpt lat="46.99" lon="8.69411">
        <ele>556</ele>
        <time>2021-08-05T10:34:21.491Z</time>
      </trkpt>
      <trkpt lat="46.98999" lon="8.69412">
        <ele>557</ele>
        <time>2021-08-05T10:34:22.490Z</time>
      </trkpt>
      <trkpt lat="46.98999" lon="8.69413">
        <ele>557</ele>
        <time>2021-08-05T10:34:23.491Z</time>
      </trkpt>
      <trkpt lat="46.98998" lon="8.69416">
        <ele>557</ele>
        <time>2021-08-05T10:34:24.491Z</time>
      </trkpt>
      <trkpt lat="46.98997" lon="8.69418">
        <ele>557</ele>
        <time>2021-08-05T10:34:25.490Z</time>
      </trkpt>
      <trkpt lat="46.98997" lon="8.69419">
        <ele>556</ele>
        <time>2021-08-05T10:34:26.491Z</time>
      </trkpt>
      <trkpt lat="46.98997" lon="8.69421">
        <ele>556</ele>
        <time>2021-08-05T10:34:27.490Z</time>
      </trkpt>
      <trkpt lat="46.98996" lon="8.69422">
        <ele>555</ele>
        <time>2021-08-05T10:34:28.490Z</time>
      </trkpt>
      <trkpt lat="46.98996" lon="8.69423">
        <ele>555</ele>
        <time>2021-08-05T10:34:29.491Z</time>
      </trkpt>
      <trkpt lat="46.98995" lon="8.69423">
        <ele>555</ele>
        <time>2021-08-05T10:34:30.490Z</time>
      </trkpt>
      <trkpt lat="46.98996" lon="8.69425">
        <ele>555</ele>
        <time>2021-08-05T10:34:31.491Z</time>
      </trkpt>
      <trkpt lat="46.98996" lon="8.69427">
        <ele>555</ele>
        <time>2021-08-05T10:34:32.491Z</time>
      </trkpt>
      <trkpt lat="46.98996" lon="8.69429">
        <ele>555</ele>
        <time>2021-08-05T10:34:33.490Z</time>
      </trkpt>
      <trkpt lat="46.98996" lon="8.69431">
        <ele>555</ele>
        <time>2021-08-05T10:34:34.491Z</time>
      </trkpt>
      <trkpt lat="46.98996" lon="8.69433">
        <ele>556</ele>
        <time>2021-08-05T10:34:35.490Z</time>
      </trkpt>
      <trkpt lat="46.98995" lon="8.69434">
        <ele>556</ele>
        <time>2021-08-05T10:34:36.490Z</time>
      </trkpt>
      <trkpt lat="46.98994" lon="8.69436">
        <ele>556</ele>
        <time>2021-08-05T10:34:37.491Z</time>
      </trkpt>
      <trkpt lat="46.98993" lon="8.69437">
        <ele>556</ele>
        <time>2021-08-05T10:34:38.491Z</time>
      </trkpt>
      <trkpt lat="46.98992" lon="8.69439">
        <ele>556</ele>
        <time>2021-08-05T10:34:39.491Z</time>
      </trkpt>
      <trkpt lat="46.98992" lon="8.69441">
        <ele>556</ele>
        <time>2021-08-05T10:34:40.490Z</time>
      </trkpt>
      <trkpt lat="46.98992" lon="8.69442">
        <ele>557</ele>
        <time>2021-08-05T10:34:41.491Z</time>
      </trkpt>
      <trkpt lat="46.98992" lon="8.69444">
        <ele>557</ele>
        <time>2021-08-05T10:34:42.491Z</time>
      </trkpt>
      <trkpt lat="46.98992" lon="8.69445">
        <ele>558</ele>
        <time>2021-08-05T10:34:43.491Z</time>
      </trkpt>
      <trkpt lat="46.98992" lon="8.69446">
        <ele>558</ele>
        <time>2021-08-05T10:34:44.490Z</time>
      </trkpt>
      <trkpt lat="46.98991" lon="8.69447">
        <ele>558</ele>
        <time>2021-08-05T10:34:45.490Z</time>
      </trkpt>
      <trkpt lat="46.9899" lon="8.69448">
        <ele>558</ele>
        <time>2021-08-05T10:34:46.490Z</time>
      </trkpt>
      <trkpt lat="46.98989" lon="8.69448">
        <ele>557</ele>
        <time>2021-08-05T10:34:47.491Z</time>
      </trkpt>
      <trkpt lat="46.98989" lon="8.69449">
        <ele>557</ele>
        <time>2021-08-05T10:34:48.490Z</time>
      </trkpt>
      <trkpt lat="46.98989" lon="8.69449">
        <ele>557</ele>
        <time>2021-08-05T10:34:49.491Z</time>
      </trkpt>
      <trkpt lat="46.98989" lon="8.69451">
        <ele>556</ele>
        <time>2021-08-05T10:34:50.490Z</time>
      </trkpt>
      <trkpt lat="46.98989" lon="8.69452">
        <ele>556</ele>
        <time>2021-08-05T10:34:51.491Z</time>
      </trkpt>
      <trkpt lat="46.98989" lon="8.69453">
        <ele>556</ele>
        <time>2021-08-05T10:34:52.491Z</time>
      </trkpt>
      <trkpt lat="46.98989" lon="8.69455">
        <ele>556</ele>
        <time>2021-08-05T10:34:53.491Z</time>
      </trkpt>
      <trkpt lat="46.98988" lon="8.69457">
        <ele>556</ele>
        <time>2021-08-05T10:34:54.491Z</time>
      </trkpt>
      <trkpt lat="46.98988" lon="8.69458">
        <ele>556</ele>
        <time>2021-08-05T10:34:55.490Z</time>
      </trkpt>
      <trkpt lat="46.98988" lon="8.6946">
        <ele>555</ele>
        <time>2021-08-05T10:34:56.491Z</time>
      </trkpt>
      <trkpt lat="46.98987" lon="8.69461">
        <ele>555</ele>
        <time>2021-08-05T10:34:57.491Z</time>
      </trkpt>
      <trkpt lat="46.98987" lon="8.69462">
        <ele>554</ele>
        <time>2021-08-05T10:34:58.490Z</time>
      </trkpt>
      <trkpt lat="46.98987" lon="8.69463">
        <ele>554</ele>
        <time>2021-08-05T10:34:59.491Z</time>
      </trkpt>
      <trkpt lat="46.98987" lon="8.69463">
        <ele>553</ele>
        <time>2021-08-05T10:35:00.491Z</time>
      </trkpt>
      <trkpt lat="46.98986" lon="8.69465">
        <ele>552</ele>
        <time>2021-08-05T10:35:01.491Z</time>
      </trkpt>
      <trkpt lat="46.98986" lon="8.69466">
        <ele>552</ele>
        <time>2021-08-05T10:35:02.491Z</time>
      </trkpt>
      <trkpt lat="46.98985" lon="8.69467">
        <ele>553</ele>
        <time>2021-08-05T10:35:03.490Z</time>
      </trkpt>
      <trkpt lat="46.98985" lon="8.69469">
        <ele>553</ele>
        <time>2021-08-05T10:35:04.491Z</time>
      </trkpt>
      <trkpt lat="46.98984" lon="8.6947">
        <ele>553</ele>
        <time>2021-08-05T10:35:05.491Z</time>
      </trkpt>
      <trkpt lat="46.98984" lon="8.69471">
        <ele>553</ele>
        <time>2021-08-05T10:35:06.491Z</time>
      </trkpt>
      <trkpt lat="46.98983" lon="8.69473">
        <ele>554</ele>
        <time>2021-08-05T10:35:07.490Z</time>
      </trkpt>
      <trkpt lat="46.98983" lon="8.69474">
        <ele>554</ele>
        <time>2021-08-05T10:35:08.491Z</time>
      </trkpt>
      <trkpt lat="46.98982" lon="8.69476">
        <ele>554</ele>
        <time>2021-08-05T10:35:09.490Z</time>
      </trkpt>
      <trkpt lat="46.98981" lon="8.69478">
        <ele>554</ele>
        <time>2021-08-05T10:35:10.490Z</time>
      </trkpt>
      <trkpt lat="46.98981" lon="8.69479">
        <ele>554</ele>
        <time>2021-08-05T10:35:11.490Z</time>
      </trkpt>
      <trkpt lat="46.98981" lon="8.69482">
        <ele>554</ele>
        <time>2021-08-05T10:35:12.491Z</time>
      </trkpt>
      <trkpt lat="46.9898" lon="8.69484">
        <ele>554</ele>
        <time>2021-08-05T10:35:13.490Z</time>
      </trkpt>
      <trkpt lat="46.9898" lon="8.69486">
        <ele>555</ele>
        <time>2021-08-05T10:35:14.490Z</time>
      </trkpt>
      <trkpt lat="46.9898" lon="8.69488">
        <ele>555</ele>
        <time>2021-08-05T10:35:15.491Z</time>
      </trkpt>
      <trkpt lat="46.9898" lon="8.6949">
        <ele>556</ele>
        <time>2021-08-05T10:35:16.490Z</time>
      </trkpt>
      <trkpt lat="46.98979" lon="8.69494">
        <ele>557</ele>
        <time>2021-08-05T10:35:17.491Z</time>
      </trkpt>
      <trkpt lat="46.98979" lon="8.69497">
        <ele>557</ele>
        <time>2021-08-05T10:35:18.491Z</time>
      </trkpt>
      <trkpt lat="46.98979" lon="8.695">
        <ele>558</ele>
        <time>2021-08-05T10:35:19.491Z</time>
      </trkpt>
      <trkpt lat="46.98978" lon="8.69503">
        <ele>559</ele>
        <time>2021-08-05T10:35:20.491Z</time>
      </trkpt>
      <trkpt lat="46.98978" lon="8.69505">
        <ele>560</ele>
        <time>2021-08-05T10:35:21.490Z</time>
      </trkpt>
      <trkpt lat="46.98978" lon="8.69506">
        <ele>560</ele>
        <time>2021-08-05T10:35:22.491Z</time>
      </trkpt>
      <trkpt lat="46.98978" lon="8.69508">
        <ele>561</ele>
        <time>2021-08-05T10:35:23.490Z</time>
      </trkpt>
      <trkpt lat="46.98978" lon="8.69509">
        <ele>561</ele>
        <time>2021-08-05T10:35:24.491Z</time>
      </trkpt>
      <trkpt lat="46.98978" lon="8.69509">
        <ele>561</ele>
        <time>2021-08-05T10:35:25.491Z</time>
      </trkpt>
      <trkpt lat="46.98977" lon="8.6951">
        <ele>561</ele>
        <time>2021-08-05T10:35:26.490Z</time>
      </trkpt>
      <trkpt lat="46.98976" lon="8.6951">
        <ele>562</ele>
        <time>2021-08-05T10:35:27.490Z</time>
      </trkpt>
      <trkpt lat="46.98976" lon="8.69511">
        <ele>562</ele>
        <time>2021-08-05T10:35:28.491Z</time>
      </trkpt>
      <trkpt lat="46.98976" lon="8.69513">
        <ele>561</ele>
        <time>2021-08-05T10:35:29.491Z</time>
      </trkpt>
      <trkpt lat="46.98976" lon="8.69515">
        <ele>561</ele>
        <time>2021-08-05T10:35:30.491Z</time>
      </trkpt>
      <trkpt lat="46.98975" lon="8.69516">
        <ele>561</ele>
        <time>2021-08-05T10:35:31.491Z</time>
      </trkpt>
      <trkpt lat="46.98975" lon="8.69517">
        <ele>561</ele>
        <time>2021-08-05T10:35:32.491Z</time>
      </trkpt>
      <trkpt lat="46.98974" lon="8.69519">
        <ele>561</ele>
        <time>2021-08-05T10:35:33.491Z</time>
      </trkpt>
      <trkpt lat="46.98973" lon="8.6952">
        <ele>562</ele>
        <time>2021-08-05T10:35:34.491Z</time>
      </trkpt>
      <trkpt lat="46.98973" lon="8.69521">
        <ele>563</ele>
        <time>2021-08-05T10:35:35.491Z</time>
      </trkpt>
      <trkpt lat="46.98972" lon="8.69522">
        <ele>564</ele>
        <time>2021-08-05T10:35:36.491Z</time>
      </trkpt>
      <trkpt lat="46.98971" lon="8.69523">
        <ele>565</ele>
        <time>2021-08-05T10:35:37.490Z</time>
      </trkpt>
      <trkpt lat="46.9897" lon="8.69525">
        <ele>566</ele>
        <time>2021-08-05T10:35:38.491Z</time>
      </trkpt>
      <trkpt lat="46.98969" lon="8.69526">
        <ele>566</ele>
        <time>2021-08-05T10:35:39.491Z</time>
      </trkpt>
      <trkpt lat="46.98968" lon="8.69528">
        <ele>567</ele>
        <time>2021-08-05T10:35:40.491Z</time>
      </trkpt>
      <trkpt lat="46.98968" lon="8.69528">
        <ele>567</ele>
        <time>2021-08-05T10:35:41.491Z</time>
      </trkpt>
      <trkpt lat="46.98968" lon="8.6953">
        <ele>567</ele>
        <time>2021-08-05T10:35:42.491Z</time>
      </trkpt>
      <trkpt lat="46.98967" lon="8.69532">
        <ele>568</ele>
        <time>2021-08-05T10:35:43.491Z</time>
      </trkpt>
      <trkpt lat="46.98967" lon="8.69535">
        <ele>568</ele>
        <time>2021-08-05T10:35:44.491Z</time>
      </trkpt>
      <trkpt lat="46.98967" lon="8.69536">
        <ele>568</ele>
        <time>2021-08-05T10:35:45.491Z</time>
      </trkpt>
      <trkpt lat="46.98967" lon="8.69538">
        <ele>568</ele>
        <time>2021-08-05T10:35:46.491Z</time>
      </trkpt>
      <trkpt lat="46.98967" lon="8.6954">
        <ele>567</ele>
        <time>2021-08-05T10:35:47.491Z</time>
      </trkpt>
      <trkpt lat="46.98967" lon="8.69542">
        <ele>567</ele>
        <time>2021-08-05T10:35:48.491Z</time>
      </trkpt>
      <trkpt lat="46.98967" lon="8.69544">
        <ele>566</ele>
        <time>2021-08-05T10:35:49.491Z</time>
      </trkpt>
      <trkpt lat="46.98967" lon="8.69547">
        <ele>566</ele>
        <time>2021-08-05T10:35:50.490Z</time>
      </trkpt>
      <trkpt lat="46.98966" lon="8.69548">
        <ele>566</ele>
        <time>2021-08-05T10:35:51.490Z</time>
      </trkpt>
      <trkpt lat="46.98966" lon="8.6955">
        <ele>565</ele>
        <time>2021-08-05T10:35:52.490Z</time>
      </trkpt>
      <trkpt lat="46.98966" lon="8.69552">
        <ele>565</ele>
        <time>2021-08-05T10:35:53.490Z</time>
      </trkpt>
      <trkpt lat="46.98966" lon="8.69554">
        <ele>565</ele>
        <time>2021-08-05T10:35:54.490Z</time>
      </trkpt>
      <trkpt lat="46.98965" lon="8.69555">
        <ele>565</ele>
        <time>2021-08-05T10:35:55.490Z</time>
      </trkpt>
      <trkpt lat="46.98965" lon="8.69556">
        <ele>565</ele>
        <time>2021-08-05T10:35:56.490Z</time>
      </trkpt>
      <trkpt lat="46.98964" lon="8.69558">
        <ele>565</ele>
        <time>2021-08-05T10:35:57.490Z</time>
      </trkpt>
      <trkpt lat="46.98963" lon="8.69559">
        <ele>565</ele>
        <time>2021-08-05T10:35:58.491Z</time>
      </trkpt>
      <trkpt lat="46.98962" lon="8.6956">
        <ele>565</ele>
        <time>2021-08-05T10:35:59.490Z</time>
      </trkpt>
      <trkpt lat="46.98962" lon="8.69562">
        <ele>565</ele>
        <time>2021-08-05T10:36:00.491Z</time>
      </trkpt>
      <trkpt lat="46.9896" lon="8.69563">
        <ele>565</ele>
        <time>2021-08-05T10:36:01.490Z</time>
      </trkpt>
      <trkpt lat="46.9896" lon="8.69564">
        <ele>565</ele>
        <time>2021-08-05T10:36:02.490Z</time>
      </trkpt>
      <trkpt lat="46.98959" lon="8.69565">
        <ele>565</ele>
        <time>2021-08-05T10:36:03.491Z</time>
      </trkpt>
      <trkpt lat="46.98959" lon="8.69566">
        <ele>564</ele>
        <time>2021-08-05T10:36:04.490Z</time>
      </trkpt>
      <trkpt lat="46.98959" lon="8.69567">
        <ele>563</ele>
        <time>2021-08-05T10:36:05.490Z</time>
      </trkpt>
      <trkpt lat="46.98958" lon="8.69569">
        <ele>563</ele>
        <time>2021-08-05T10:36:06.491Z</time>
      </trkpt>
      <trkpt lat="46.98958" lon="8.69571">
        <ele>563</ele>
        <time>2021-08-05T10:36:07.491Z</time>
      </trkpt>
      <trkpt lat="46.98957" lon="8.69572">
        <ele>563</ele>
        <time>2021-08-05T10:36:08.490Z</time>
      </trkpt>
      <trkpt lat="46.98957" lon="8.69574">
        <ele>564</ele>
        <time>2021-08-05T10:36:09.491Z</time>
      </trkpt>
      <trkpt lat="46.98957" lon="8.69575">
        <ele>564</ele>
        <time>2021-08-05T10:36:10.491Z</time>
      </trkpt>
      <trkpt lat="46.98956" lon="8.69578">
        <ele>564</ele>
        <time>2021-08-05T10:36:11.491Z</time>
      </trkpt>
      <trkpt lat="46.98955" lon="8.69579">
        <ele>565</ele>
        <time>2021-08-05T10:36:12.491Z</time>
      </trkpt>
      <trkpt lat="46.98955" lon="8.69581">
        <ele>565</ele>
        <time>2021-08-05T10:36:13.491Z</time>
      </trkpt>
      <trkpt lat="46.98955" lon="8.69583">
        <ele>565</ele>
        <time>2021-08-05T10:36:14.491Z</time>
      </trkpt>
      <trkpt lat="46.98954" lon="8.69584">
        <ele>565</ele>
        <time>2021-08-05T10:36:15.490Z</time>
      </trkpt>
      <trkpt lat="46.98954" lon="8.69585">
        <ele>565</ele>
        <time>2021-08-05T10:36:16.490Z</time>
      </trkpt>
      <trkpt lat="46.98954" lon="8.69586">
        <ele>565</ele>
        <time>2021-08-05T10:36:17.490Z</time>
      </trkpt>
      <trkpt lat="46.98953" lon="8.69587">
        <ele>565</ele>
        <time>2021-08-05T10:36:18.491Z</time>
      </trkpt>
      <trkpt lat="46.98953" lon="8.69588">
        <ele>565</ele>
        <time>2021-08-05T10:36:19.491Z</time>
      </trkpt>
      <trkpt lat="46.98952" lon="8.6959">
        <ele>565</ele>
        <time>2021-08-05T10:36:20.490Z</time>
      </trkpt>
      <trkpt lat="46.98952" lon="8.69592">
        <ele>565</ele>
        <time>2021-08-05T10:36:21.490Z</time>
      </trkpt>
      <trkpt lat="46.98951" lon="8.69593">
        <ele>565</ele>
        <time>2021-08-05T10:36:22.490Z</time>
      </trkpt>
      <trkpt lat="46.98951" lon="8.69595">
        <ele>565</ele>
        <time>2021-08-05T10:36:23.490Z</time>
      </trkpt>
      <trkpt lat="46.98951" lon="8.69596">
        <ele>565</ele>
        <time>2021-08-05T10:36:24.491Z</time>
      </trkpt>
      <trkpt lat="46.9895" lon="8.69598">
        <ele>564</ele>
        <time>2021-08-05T10:36:25.491Z</time>
      </trkpt>
      <trkpt lat="46.9895" lon="8.696">
        <ele>564</ele>
        <time>2021-08-05T10:36:26.491Z</time>
      </trkpt>
      <trkpt lat="46.98949" lon="8.69601">
        <ele>564</ele>
        <time>2021-08-05T10:36:27.491Z</time>
      </trkpt>
      <trkpt lat="46.98949" lon="8.69603">
        <ele>564</ele>
        <time>2021-08-05T10:36:28.490Z</time>
      </trkpt>
      <trkpt lat="46.98948" lon="8.69604">
        <ele>564</ele>
        <time>2021-08-05T10:36:29.491Z</time>
      </trkpt>
      <trkpt lat="46.98948" lon="8.69606">
        <ele>564</ele>
        <time>2021-08-05T10:36:30.491Z</time>
      </trkpt>
      <trkpt lat="46.98947" lon="8.69607">
        <ele>564</ele>
        <time>2021-08-05T10:36:31.491Z</time>
      </trkpt>
      <trkpt lat="46.98947" lon="8.69609">
        <ele>564</ele>
        <time>2021-08-05T10:36:32.491Z</time>
      </trkpt>
      <trkpt lat="46.98946" lon="8.69611">
        <ele>565</ele>
        <time>2021-08-05T10:36:33.490Z</time>
      </trkpt>
      <trkpt lat="46.98946" lon="8.69612">
        <ele>565</ele>
        <time>2021-08-05T10:36:34.490Z</time>
      </trkpt>
      <trkpt lat="46.98945" lon="8.69614">
        <ele>565</ele>
        <time>2021-08-05T10:36:35.491Z</time>
      </trkpt>
      <trkpt lat="46.98945" lon="8.69616">
        <ele>565</ele>
        <time>2021-08-05T10:36:36.490Z</time>
      </trkpt>
      <trkpt lat="46.98944" lon="8.69618">
        <ele>565</ele>
        <time>2021-08-05T10:36:37.491Z</time>
      </trkpt>
      <trkpt lat="46.98944" lon="8.69619">
        <ele>565</ele>
        <time>2021-08-05T10:36:38.491Z</time>
      </trkpt>
      <trkpt lat="46.98944" lon="8.6962">
        <ele>565</ele>
        <time>2021-08-05T10:36:39.491Z</time>
      </trkpt>
      <trkpt lat="46.98943" lon="8.69621">
        <ele>565</ele>
        <time>2021-08-05T10:36:40.491Z</time>
      </trkpt>
      <trkpt lat="46.98943" lon="8.69623">
        <ele>565</ele>
        <time>2021-08-05T10:36:41.490Z</time>
      </trkpt>
      <trkpt lat="46.98943" lon="8.69625">
        <ele>565</ele>
        <time>2021-08-05T10:36:42.490Z</time>
      </trkpt>
      <trkpt lat="46.98942" lon="8.69626">
        <ele>565</ele>
        <time>2021-08-05T10:36:43.491Z</time>
      </trkpt>
      <trkpt lat="46.98941" lon="8.69628">
        <ele>566</ele>
        <time>2021-08-05T10:36:44.491Z</time>
      </trkpt>
      <trkpt lat="46.98941" lon="8.6963">
        <ele>566</ele>
        <time>2021-08-05T10:36:45.490Z</time>
      </trkpt>
      <trkpt lat="46.9894" lon="8.69632">
        <ele>566</ele>
        <time>2021-08-05T10:36:46.490Z</time>
      </trkpt>
      <trkpt lat="46.9894" lon="8.69633">
        <ele>566</ele>
        <time>2021-08-05T10:36:47.491Z</time>
      </trkpt>
      <trkpt lat="46.9894" lon="8.69634">
        <ele>565</ele>
        <time>2021-08-05T10:36:48.491Z</time>
      </trkpt>
      <trkpt lat="46.98939" lon="8.69636">
        <ele>565</ele>
        <time>2021-08-05T10:36:49.490Z</time>
      </trkpt>
      <trkpt lat="46.98939" lon="8.69638">
        <ele>564</ele>
        <time>2021-08-05T10:36:50.491Z</time>
      </trkpt>
      <trkpt lat="46.98938" lon="8.6964">
        <ele>564</ele>
        <time>2021-08-05T10:36:51.491Z</time>
      </trkpt>
      <trkpt lat="46.98937" lon="8.69641">
        <ele>564</ele>
        <time>2021-08-05T10:36:52.491Z</time>
      </trkpt>
      <trkpt lat="46.98937" lon="8.69642">
        <ele>564</ele>
        <time>2021-08-05T10:36:53.490Z</time>
      </trkpt>
      <trkpt lat="46.98936" lon="8.69644">
        <ele>564</ele>
        <time>2021-08-05T10:36:54.491Z</time>
      </trkpt>
      <trkpt lat="46.98936" lon="8.69646">
        <ele>564</ele>
        <time>2021-08-05T10:36:55.491Z</time>
      </trkpt>
      <trkpt lat="46.98935" lon="8.69648">
        <ele>564</ele>
        <time>2021-08-05T10:36:56.491Z</time>
      </trkpt>
      <trkpt lat="46.98935" lon="8.69649">
        <ele>564</ele>
        <time>2021-08-05T10:36:57.491Z</time>
      </trkpt>
      <trkpt lat="46.98935" lon="8.69651">
        <ele>563</ele>
        <time>2021-08-05T10:36:58.491Z</time>
      </trkpt>
      <trkpt lat="46.98934" lon="8.69653">
        <ele>564</ele>
        <time>2021-08-05T10:36:59.491Z</time>
      </trkpt>
      <trkpt lat="46.98934" lon="8.69654">
        <ele>564</ele>
        <time>2021-08-05T10:37:00.490Z</time>
      </trkpt>
      <trkpt lat="46.98933" lon="8.69655">
        <ele>564</ele>
        <time>2021-08-05T10:37:01.491Z</time>
      </trkpt>
      <trkpt lat="46.98933" lon="8.69656">
        <ele>564</ele>
        <time>2021-08-05T10:37:02.491Z</time>
      </trkpt>
      <trkpt lat="46.98932" lon="8.69658">
        <ele>564</ele>
        <time>2021-08-05T10:37:03.491Z</time>
      </trkpt>
      <trkpt lat="46.98932" lon="8.69659">
        <ele>564</ele>
        <time>2021-08-05T10:37:04.491Z</time>
      </trkpt>
      <trkpt lat="46.98932" lon="8.69661">
        <ele>565</ele>
        <time>2021-08-05T10:37:05.490Z</time>
      </trkpt>
      <trkpt lat="46.98931" lon="8.69662">
        <ele>565</ele>
        <time>2021-08-05T10:37:06.490Z</time>
      </trkpt>
      <trkpt lat="46.98931" lon="8.69664">
        <ele>565</ele>
        <time>2021-08-05T10:37:07.491Z</time>
      </trkpt>
      <trkpt lat="46.9893" lon="8.69665">
        <ele>565</ele>
        <time>2021-08-05T10:37:08.491Z</time>
      </trkpt>
      <trkpt lat="46.9893" lon="8.69667">
        <ele>565</ele>
        <time>2021-08-05T10:37:09.490Z</time>
      </trkpt>
      <trkpt lat="46.98929" lon="8.69668">
        <ele>565</ele>
        <time>2021-08-05T10:37:10.491Z</time>
      </trkpt>
      <trkpt lat="46.98929" lon="8.6967">
        <ele>565</ele>
        <time>2021-08-05T10:37:11.490Z</time>
      </trkpt>
      <trkpt lat="46.98929" lon="8.69672">
        <ele>566</ele>
        <time>2021-08-05T10:37:12.491Z</time>
      </trkpt>
      <trkpt lat="46.98928" lon="8.69673">
        <ele>566</ele>
        <time>2021-08-05T10:37:13.491Z</time>
      </trkpt>
      <trkpt lat="46.98928" lon="8.69674">
        <ele>566</ele>
        <time>2021-08-05T10:37:14.491Z</time>
      </trkpt>
      <trkpt lat="46.98927" lon="8.69676">
        <ele>566</ele>
        <time>2021-08-05T10:37:15.491Z</time>
      </trkpt>
      <trkpt lat="46.98927" lon="8.69678">
        <ele>565</ele>
        <time>2021-08-05T10:37:16.490Z</time>
      </trkpt>
      <trkpt lat="46.98926" lon="8.69679">
        <ele>565</ele>
        <time>2021-08-05T10:37:17.491Z</time>
      </trkpt>
      <trkpt lat="46.98926" lon="8.69681">
        <ele>565</ele>
        <time>2021-08-05T10:37:18.490Z</time>
      </trkpt>
      <trkpt lat="46.98925" lon="8.69682">
        <ele>566</ele>
        <time>2021-08-05T10:37:19.490Z</time>
      </trkpt>
      <trkpt lat="46.98925" lon="8.69684">
        <ele>566</ele>
        <time>2021-08-05T10:37:20.491Z</time>
      </trkpt>
      <trkpt lat="46.98924" lon="8.69686">
        <ele>567</ele>
        <time>2021-08-05T10:37:21.490Z</time>
      </trkpt>
      <trkpt lat="46.98923" lon="8.69687">
        <ele>568</ele>
        <time>2021-08-05T10:37:22.490Z</time>
      </trkpt>
      <trkpt lat="46.98923" lon="8.69689">
        <ele>569</ele>
        <time>2021-08-05T10:37:23.491Z</time>
      </trkpt>
      <trkpt lat="46.98922" lon="8.69691">
        <ele>569</ele>
        <time>2021-08-05T10:37:24.491Z</time>
      </trkpt>
      <trkpt lat="46.98922" lon="8.69692">
        <ele>569</ele>
        <time>2021-08-05T10:37:25.491Z</time>
      </trkpt>
      <trkpt lat="46.98921" lon="8.69693">
        <ele>568</ele>
        <time>2021-08-05T10:37:26.491Z</time>
      </trkpt>
      <trkpt lat="46.98921" lon="8.69694">
        <ele>568</ele>
        <time>2021-08-05T10:37:27.491Z</time>
      </trkpt>
      <trkpt lat="46.9892" lon="8.69696">
        <ele>567</ele>
        <time>2021-08-05T10:37:28.491Z</time>
      </trkpt>
      <trkpt lat="46.98919" lon="8.69697">
        <ele>566</ele>
        <time>2021-08-05T10:37:29.491Z</time>
      </trkpt>
      <trkpt lat="46.98919" lon="8.69699">
        <ele>566</ele>
        <time>2021-08-05T10:37:30.491Z</time>
      </trkpt>
      <trkpt lat="46.98918" lon="8.697">
        <ele>566</ele>
        <time>2021-08-05T10:37:31.491Z</time>
      </trkpt>
      <trkpt lat="46.98917" lon="8.69703">
        <ele>566</ele>
        <time>2021-08-05T10:37:32.491Z</time>
      </trkpt>
      <trkpt lat="46.98917" lon="8.69704">
        <ele>566</ele>
        <time>2021-08-05T10:37:33.490Z</time>
      </trkpt>
      <trkpt lat="46.98916" lon="8.69705">
        <ele>565</ele>
        <time>2021-08-05T10:37:34.490Z</time>
      </trkpt>
      <trkpt lat="46.98916" lon="8.69707">
        <ele>565</ele>
        <time>2021-08-05T10:37:35.490Z</time>
      </trkpt>
      <trkpt lat="46.98916" lon="8.69708">
        <ele>565</ele>
        <time>2021-08-05T10:37:36.490Z</time>
      </trkpt>
      <trkpt lat="46.98915" lon="8.6971">
        <ele>565</ele>
        <time>2021-08-05T10:37:37.491Z</time>
      </trkpt>
      <trkpt lat="46.98915" lon="8.69712">
        <ele>565</ele>
        <time>2021-08-05T10:37:38.490Z</time>
      </trkpt>
      <trkpt lat="46.98914" lon="8.69713">
        <ele>566</ele>
        <time>2021-08-05T10:37:39.491Z</time>
      </trkpt>
      <trkpt lat="46.98913" lon="8.69715">
        <ele>566</ele>
        <time>2021-08-05T10:37:40.491Z</time>
      </trkpt>
      <trkpt lat="46.98913" lon="8.69716">
        <ele>566</ele>
        <time>2021-08-05T10:37:41.490Z</time>
      </trkpt>
      <trkpt lat="46.98913" lon="8.69718">
        <ele>567</ele>
        <time>2021-08-05T10:37:42.491Z</time>
      </trkpt>
      <trkpt lat="46.98913" lon="8.69719">
        <ele>567</ele>
        <time>2021-08-05T10:37:43.490Z</time>
      </trkpt>
      <trkpt lat="46.98912" lon="8.6972">
        <ele>566</ele>
        <time>2021-08-05T10:37:44.490Z</time>
      </trkpt>
      <trkpt lat="46.98912" lon="8.69722">
        <ele>566</ele>
        <time>2021-08-05T10:37:45.491Z</time>
      </trkpt>
      <trkpt lat="46.98912" lon="8.69723">
        <ele>566</ele>
        <time>2021-08-05T10:37:46.491Z</time>
      </trkpt>
      <trkpt lat="46.98911" lon="8.69725">
        <ele>566</ele>
        <time>2021-08-05T10:37:47.490Z</time>
      </trkpt>
      <trkpt lat="46.98911" lon="8.69726">
        <ele>566</ele>
        <time>2021-08-05T10:37:48.491Z</time>
      </trkpt>
      <trkpt lat="46.9891" lon="8.69728">
        <ele>566</ele>
        <time>2021-08-05T10:37:49.490Z</time>
      </trkpt>
      <trkpt lat="46.9891" lon="8.69729">
        <ele>566</ele>
        <time>2021-08-05T10:37:50.490Z</time>
      </trkpt>
      <trkpt lat="46.98909" lon="8.6973">
        <ele>567</ele>
        <time>2021-08-05T10:37:51.491Z</time>
      </trkpt>
      <trkpt lat="46.98909" lon="8.69731">
        <ele>567</ele>
        <time>2021-08-05T10:37:52.490Z</time>
      </trkpt>
      <trkpt lat="46.98908" lon="8.69733">
        <ele>566</ele>
        <time>2021-08-05T10:37:53.490Z</time>
      </trkpt>
      <trkpt lat="46.98908" lon="8.69734">
        <ele>566</ele>
        <time>2021-08-05T10:37:54.490Z</time>
      </trkpt>
      <trkpt lat="46.98907" lon="8.69736">
        <ele>566</ele>
        <time>2021-08-05T10:37:55.490Z</time>
      </trkpt>
      <trkpt lat="46.98907" lon="8.69737">
        <ele>566</ele>
        <time>2021-08-05T10:37:56.490Z</time>
      </trkpt>
      <trkpt lat="46.98906" lon="8.69738">
        <ele>566</ele>
        <time>2021-08-05T10:37:57.490Z</time>
      </trkpt>
      <trkpt lat="46.98906" lon="8.6974">
        <ele>566</ele>
        <time>2021-08-05T10:37:58.490Z</time>
      </trkpt>
      <trkpt lat="46.98905" lon="8.69741">
        <ele>566</ele>
        <time>2021-08-05T10:37:59.491Z</time>
      </trkpt>
      <trkpt lat="46.98905" lon="8.69743">
        <ele>567</ele>
        <time>2021-08-05T10:38:00.490Z</time>
      </trkpt>
      <trkpt lat="46.98904" lon="8.69744">
        <ele>567</ele>
        <time>2021-08-05T10:38:01.490Z</time>
      </trkpt>
      <trkpt lat="46.98904" lon="8.69746">
        <ele>567</ele>
        <time>2021-08-05T10:38:02.490Z</time>
      </trkpt>
      <trkpt lat="46.98903" lon="8.69748">
        <ele>567</ele>
        <time>2021-08-05T10:38:03.490Z</time>
      </trkpt>
      <trkpt lat="46.98903" lon="8.69749">
        <ele>568</ele>
        <time>2021-08-05T10:38:04.490Z</time>
      </trkpt>
      <trkpt lat="46.98902" lon="8.6975">
        <ele>568</ele>
        <time>2021-08-05T10:38:05.490Z</time>
      </trkpt>
      <trkpt lat="46.98902" lon="8.69752">
        <ele>568</ele>
        <time>2021-08-05T10:38:06.490Z</time>
      </trkpt>
      <trkpt lat="46.98902" lon="8.69753">
        <ele>568</ele>
        <time>2021-08-05T10:38:07.490Z</time>
      </trkpt>
      <trkpt lat="46.98901" lon="8.69754">
        <ele>568</ele>
        <time>2021-08-05T10:38:08.490Z</time>
      </trkpt>
      <trkpt lat="46.98901" lon="8.69756">
        <ele>569</ele>
        <time>2021-08-05T10:38:09.490Z</time>
      </trkpt>
      <trkpt lat="46.98901" lon="8.69757">
        <ele>569</ele>
        <time>2021-08-05T10:38:10.491Z</time>
      </trkpt>
      <trkpt lat="46.989" lon="8.69758">
        <ele>569</ele>
        <time>2021-08-05T10:38:11.490Z</time>
      </trkpt>
      <trkpt lat="46.989" lon="8.6976">
        <ele>569</ele>
        <time>2021-08-05T10:38:12.490Z</time>
      </trkpt>
      <trkpt lat="46.989" lon="8.69761">
        <ele>570</ele>
        <time>2021-08-05T10:38:13.490Z</time>
      </trkpt>
      <trkpt lat="46.98899" lon="8.69763">
        <ele>569</ele>
        <time>2021-08-05T10:38:14.490Z</time>
      </trkpt>
      <trkpt lat="46.98899" lon="8.69764">
        <ele>569</ele>
        <time>2021-08-05T10:38:15.490Z</time>
      </trkpt>
      <trkpt lat="46.98898" lon="8.69766">
        <ele>568</ele>
        <time>2021-08-05T10:38:16.490Z</time>
      </trkpt>
      <trkpt lat="46.98898" lon="8.69767">
        <ele>568</ele>
        <time>2021-08-05T10:38:17.490Z</time>
      </trkpt>
      <trkpt lat="46.98897" lon="8.69769">
        <ele>567</ele>
        <time>2021-08-05T10:38:18.490Z</time>
      </trkpt>
      <trkpt lat="46.98897" lon="8.6977">
        <ele>567</ele>
        <time>2021-08-05T10:38:19.491Z</time>
      </trkpt>
      <trkpt lat="46.98896" lon="8.69771">
        <ele>566</ele>
        <time>2021-08-05T10:38:20.491Z</time>
      </trkpt>
      <trkpt lat="46.98896" lon="8.69772">
        <ele>566</ele>
        <time>2021-08-05T10:38:21.490Z</time>
      </trkpt>
      <trkpt lat="46.98896" lon="8.69773">
        <ele>566</ele>
        <time>2021-08-05T10:38:22.490Z</time>
      </trkpt>
      <trkpt lat="46.98895" lon="8.69773">
        <ele>567</ele>
        <time>2021-08-05T10:38:23.490Z</time>
      </trkpt>
      <trkpt lat="46.98894" lon="8.69776">
        <ele>570</ele>
        <time>2021-08-05T10:38:24.490Z</time>
      </trkpt>
      <trkpt lat="46.98894" lon="8.69776">
        <ele>570</ele>
        <time>2021-08-05T10:38:25.491Z</time>
      </trkpt>
      <trkpt lat="46.98894" lon="8.69777">
        <ele>570</ele>
        <time>2021-08-05T10:38:26.490Z</time>
      </trkpt>
      <trkpt lat="46.98894" lon="8.69778">
        <ele>570</ele>
        <time>2021-08-05T10:38:27.491Z</time>
      </trkpt>
      <trkpt lat="46.98893" lon="8.69779">
        <ele>570</ele>
        <time>2021-08-05T10:38:28.491Z</time>
      </trkpt>
      <trkpt lat="46.98893" lon="8.6978">
        <ele>570</ele>
        <time>2021-08-05T10:38:29.491Z</time>
      </trkpt>
      <trkpt lat="46.98893" lon="8.69781">
        <ele>569</ele>
        <time>2021-08-05T10:38:30.491Z</time>
      </trkpt>
      <trkpt lat="46.98892" lon="8.69782">
        <ele>569</ele>
        <time>2021-08-05T10:38:31.491Z</time>
      </trkpt>
      <trkpt lat="46.98892" lon="8.69783">
        <ele>568</ele>
        <time>2021-08-05T10:38:32.491Z</time>
      </trkpt>
      <trkpt lat="46.98891" lon="8.69784">
        <ele>568</ele>
        <time>2021-08-05T10:38:33.491Z</time>
      </trkpt>
      <trkpt lat="46.98891" lon="8.69786">
        <ele>568</ele>
        <time>2021-08-05T10:38:34.490Z</time>
      </trkpt>
      <trkpt lat="46.98891" lon="8.69787">
        <ele>568</ele>
        <time>2021-08-05T10:38:35.491Z</time>
      </trkpt>
      <trkpt lat="46.98891" lon="8.69789">
        <ele>567</ele>
        <time>2021-08-05T10:38:36.491Z</time>
      </trkpt>
      <trkpt lat="46.98891" lon="8.6979">
        <ele>567</ele>
        <time>2021-08-05T10:38:37.491Z</time>
      </trkpt>
      <trkpt lat="46.98891" lon="8.69791">
        <ele>567</ele>
        <time>2021-08-05T10:38:38.491Z</time>
      </trkpt>
      <trkpt lat="46.98891" lon="8.69792">
        <ele>566</ele>
        <time>2021-08-05T10:38:39.490Z</time>
      </trkpt>
      <trkpt lat="46.9889" lon="8.69793">
        <ele>566</ele>
        <time>2021-08-05T10:38:40.490Z</time>
      </trkpt>
      <trkpt lat="46.9889" lon="8.69794">
        <ele>565</ele>
        <time>2021-08-05T10:38:41.490Z</time>
      </trkpt>
      <trkpt lat="46.9889" lon="8.69796">
        <ele>565</ele>
        <time>2021-08-05T10:38:42.490Z</time>
      </trkpt>
      <trkpt lat="46.9889" lon="8.69797">
        <ele>564</ele>
        <time>2021-08-05T10:38:43.490Z</time>
      </trkpt>
      <trkpt lat="46.98889" lon="8.69799">
        <ele>564</ele>
        <time>2021-08-05T10:38:44.491Z</time>
      </trkpt>
      <trkpt lat="46.98889" lon="8.698">
        <ele>564</ele>
        <time>2021-08-05T10:38:45.491Z</time>
      </trkpt>
      <trkpt lat="46.98889" lon="8.69801">
        <ele>564</ele>
        <time>2021-08-05T10:38:46.490Z</time>
      </trkpt>
      <trkpt lat="46.98888" lon="8.69802">
        <ele>564</ele>
        <time>2021-08-05T10:38:47.490Z</time>
      </trkpt>
      <trkpt lat="46.98888" lon="8.69803">
        <ele>564</ele>
        <time>2021-08-05T10:38:48.491Z</time>
      </trkpt>
      <trkpt lat="46.98887" lon="8.69804">
        <ele>564</ele>
        <time>2021-08-05T10:38:49.491Z</time>
      </trkpt>
      <trkpt lat="46.98887" lon="8.69805">
        <ele>564</ele>
        <time>2021-08-05T10:38:50.491Z</time>
      </trkpt>
      <trkpt lat="46.98887" lon="8.69807">
        <ele>564</ele>
        <time>2021-08-05T10:38:51.491Z</time>
      </trkpt>
      <trkpt lat="46.98887" lon="8.69808">
        <ele>565</ele>
        <time>2021-08-05T10:38:52.490Z</time>
      </trkpt>
      <trkpt lat="46.98886" lon="8.6981">
        <ele>565</ele>
        <time>2021-08-05T10:38:53.491Z</time>
      </trkpt>
      <trkpt lat="46.98886" lon="8.69812">
        <ele>565</ele>
        <time>2021-08-05T10:38:54.491Z</time>
      </trkpt>
      <trkpt lat="46.98885" lon="8.69814">
        <ele>565</ele>
        <time>2021-08-05T10:38:55.491Z</time>
      </trkpt>
      <trkpt lat="46.98885" lon="8.69815">
        <ele>565</ele>
        <time>2021-08-05T10:38:56.490Z</time>
      </trkpt>
      <trkpt lat="46.98884" lon="8.69816">
        <ele>565</ele>
        <time>2021-08-05T10:38:57.491Z</time>
      </trkpt>
      <trkpt lat="46.98884" lon="8.69818">
        <ele>564</ele>
        <time>2021-08-05T10:38:58.490Z</time>
      </trkpt>
      <trkpt lat="46.98883" lon="8.69819">
        <ele>565</ele>
        <time>2021-08-05T10:38:59.491Z</time>
      </trkpt>
      <trkpt lat="46.98883" lon="8.69821">
        <ele>565</ele>
        <time>2021-08-05T10:39:00.491Z</time>
      </trkpt>
      <trkpt lat="46.98882" lon="8.69822">
        <ele>565</ele>
        <time>2021-08-05T10:39:01.490Z</time>
      </trkpt>
      <trkpt lat="46.98882" lon="8.69824">
        <ele>564</ele>
        <time>2021-08-05T10:39:02.490Z</time>
      </trkpt>
      <trkpt lat="46.98881" lon="8.69825">
        <ele>564</ele>
        <time>2021-08-05T10:39:03.490Z</time>
      </trkpt>
      <trkpt lat="46.98881" lon="8.69826">
        <ele>564</ele>
        <time>2021-08-05T10:39:04.490Z</time>
      </trkpt>
      <trkpt lat="46.9888" lon="8.69827">
        <ele>563</ele>
        <time>2021-08-05T10:39:05.490Z</time>
      </trkpt>
      <trkpt lat="46.98879" lon="8.69829">
        <ele>562</ele>
        <time>2021-08-05T10:39:06.490Z</time>
      </trkpt>
      <trkpt lat="46.98879" lon="8.6983">
        <ele>562</ele>
        <time>2021-08-05T10:39:07.491Z</time>
      </trkpt>
      <trkpt lat="46.98878" lon="8.69831">
        <ele>561</ele>
        <time>2021-08-05T10:39:08.490Z</time>
      </trkpt>
      <trkpt lat="46.98878" lon="8.69833">
        <ele>560</ele>
        <time>2021-08-05T10:39:09.491Z</time>
      </trkpt>
      <trkpt lat="46.98878" lon="8.69834">
        <ele>560</ele>
        <time>2021-08-05T10:39:10.490Z</time>
      </trkpt>
      <trkpt lat="46.98877" lon="8.69836">
        <ele>559</ele>
        <time>2021-08-05T10:39:11.491Z</time>
      </trkpt>
      <trkpt lat="46.98877" lon="8.69837">
        <ele>559</ele>
        <time>2021-08-05T10:39:12.490Z</time>
      </trkpt>
      <trkpt lat="46.98877" lon="8.69839">
        <ele>559</ele>
        <time>2021-08-05T10:39:13.490Z</time>
      </trkpt>
      <trkpt lat="46.98876" lon="8.6984">
        <ele>559</ele>
        <time>2021-08-05T10:39:14.490Z</time>
      </trkpt>
      <trkpt lat="46.98875" lon="8.69841">
        <ele>558</ele>
        <time>2021-08-05T10:39:15.491Z</time>
      </trkpt>
      <trkpt lat="46.98875" lon="8.69842">
        <ele>558</ele>
        <time>2021-08-05T10:39:16.491Z</time>
      </trkpt>
      <trkpt lat="46.98874" lon="8.69844">
        <ele>558</ele>
        <time>2021-08-05T10:39:17.490Z</time>
      </trkpt>
      <trkpt lat="46.98874" lon="8.69845">
        <ele>558</ele>
        <time>2021-08-05T10:39:18.491Z</time>
      </trkpt>
      <trkpt lat="46.98873" lon="8.69846">
        <ele>558</ele>
        <time>2021-08-05T10:39:19.491Z</time>
      </trkpt>
      <trkpt lat="46.98873" lon="8.69848">
        <ele>558</ele>
        <time>2021-08-05T10:39:20.490Z</time>
      </trkpt>
      <trkpt lat="46.98872" lon="8.69849">
        <ele>557</ele>
        <time>2021-08-05T10:39:21.490Z</time>
      </trkpt>
      <trkpt lat="46.98872" lon="8.6985">
        <ele>557</ele>
        <time>2021-08-05T10:39:22.490Z</time>
      </trkpt>
      <trkpt lat="46.98871" lon="8.69851">
        <ele>557</ele>
        <time>2021-08-05T10:39:23.490Z</time>
      </trkpt>
      <trkpt lat="46.9887" lon="8.69853">
        <ele>557</ele>
        <time>2021-08-05T10:39:24.490Z</time>
      </trkpt>
      <trkpt lat="46.9887" lon="8.69854">
        <ele>557</ele>
        <time>2021-08-05T10:39:25.491Z</time>
      </trkpt>
      <trkpt lat="46.9887" lon="8.69856">
        <ele>557</ele>
        <time>2021-08-05T10:39:26.490Z</time>
      </trkpt>
      <trkpt lat="46.98869" lon="8.69858">
        <ele>557</ele>
        <time>2021-08-05T10:39:27.490Z</time>
      </trkpt>
      <trkpt lat="46.98869" lon="8.6986">
        <ele>556</ele>
        <time>2021-08-05T10:39:28.490Z</time>
      </trkpt>
      <trkpt lat="46.98868" lon="8.69862">
        <ele>556</ele>
        <time>2021-08-05T10:39:29.490Z</time>
      </trkpt>
      <trkpt lat="46.98868" lon="8.69863">
        <ele>556</ele>
        <time>2021-08-05T10:39:30.490Z</time>
      </trkpt>
      <trkpt lat="46.98867" lon="8.69864">
        <ele>556</ele>
        <time>2021-08-05T10:39:31.491Z</time>
      </trkpt>
      <trkpt lat="46.98866" lon="8.69865">
        <ele>555</ele>
        <time>2021-08-05T10:39:32.490Z</time>
      </trkpt>
      <trkpt lat="46.98865" lon="8.69866">
        <ele>555</ele>
        <time>2021-08-05T10:39:33.490Z</time>
      </trkpt>
      <trkpt lat="46.98864" lon="8.69867">
        <ele>556</ele>
        <time>2021-08-05T10:39:34.490Z</time>
      </trkpt>
      <trkpt lat="46.98864" lon="8.69869">
        <ele>556</ele>
        <time>2021-08-05T10:39:35.490Z</time>
      </trkpt>
      <trkpt lat="46.98864" lon="8.6987">
        <ele>557</ele>
        <time>2021-08-05T10:39:36.490Z</time>
      </trkpt>
      <trkpt lat="46.98863" lon="8.69872">
        <ele>557</ele>
        <time>2021-08-05T10:39:37.491Z</time>
      </trkpt>
      <trkpt lat="46.98862" lon="8.69873">
        <ele>558</ele>
        <time>2021-08-05T10:39:38.491Z</time>
      </trkpt>
      <trkpt lat="46.98861" lon="8.69875">
        <ele>559</ele>
        <time>2021-08-05T10:39:39.490Z</time>
      </trkpt>
      <trkpt lat="46.98861" lon="8.69877">
        <ele>560</ele>
        <time>2021-08-05T10:39:40.491Z</time>
      </trkpt>
      <trkpt lat="46.9886" lon="8.69878">
        <ele>561</ele>
        <time>2021-08-05T10:39:41.490Z</time>
      </trkpt>
      <trkpt lat="46.9886" lon="8.6988">
        <ele>561</ele>
        <time>2021-08-05T10:39:42.491Z</time>
      </trkpt>
      <trkpt lat="46.98859" lon="8.69882">
        <ele>562</ele>
        <time>2021-08-05T10:39:43.491Z</time>
      </trkpt>
      <trkpt lat="46.98859" lon="8.69884">
        <ele>563</ele>
        <time>2021-08-05T10:39:44.491Z</time>
      </trkpt>
      <trkpt lat="46.98858" lon="8.69885">
        <ele>563</ele>
        <time>2021-08-05T10:39:45.490Z</time>
      </trkpt>
      <trkpt lat="46.98857" lon="8.69887">
        <ele>564</ele>
        <time>2021-08-05T10:39:46.491Z</time>
      </trkpt>
      <trkpt lat="46.98856" lon="8.69889">
        <ele>565</ele>
        <time>2021-08-05T10:39:47.491Z</time>
      </trkpt>
      <trkpt lat="46.98856" lon="8.6989">
        <ele>566</ele>
        <time>2021-08-05T10:39:48.490Z</time>
      </trkpt>
      <trkpt lat="46.98855" lon="8.69891">
        <ele>567</ele>
        <time>2021-08-05T10:39:49.491Z</time>
      </trkpt>
      <trkpt lat="46.98854" lon="8.69892">
        <ele>567</ele>
        <time>2021-08-05T10:39:50.490Z</time>
      </trkpt>
      <trkpt lat="46.98854" lon="8.69894">
        <ele>567</ele>
        <time>2021-08-05T10:39:51.491Z</time>
      </trkpt>
      <trkpt lat="46.98853" lon="8.69896">
        <ele>567</ele>
        <time>2021-08-05T10:39:52.491Z</time>
      </trkpt>
      <trkpt lat="46.98853" lon="8.69897">
        <ele>566</ele>
        <time>2021-08-05T10:39:53.491Z</time>
      </trkpt>
      <trkpt lat="46.98853" lon="8.69898">
        <ele>565</ele>
        <time>2021-08-05T10:39:54.491Z</time>
      </trkpt>
      <trkpt lat="46.98852" lon="8.699">
        <ele>564</ele>
        <time>2021-08-05T10:39:55.490Z</time>
      </trkpt>
      <trkpt lat="46.98852" lon="8.69901">
        <ele>563</ele>
        <time>2021-08-05T10:39:56.491Z</time>
      </trkpt>
      <trkpt lat="46.98851" lon="8.69902">
        <ele>563</ele>
        <time>2021-08-05T10:39:57.490Z</time>
      </trkpt>
      <trkpt lat="46.98851" lon="8.69903">
        <ele>562</ele>
        <time>2021-08-05T10:39:58.491Z</time>
      </trkpt>
      <trkpt lat="46.9885" lon="8.69904">
        <ele>562</ele>
        <time>2021-08-05T10:39:59.490Z</time>
      </trkpt>
      <trkpt lat="46.98849" lon="8.69905">
        <ele>563</ele>
        <time>2021-08-05T10:40:00.491Z</time>
      </trkpt>
      <trkpt lat="46.98848" lon="8.69907">
        <ele>563</ele>
        <time>2021-08-05T10:40:01.491Z</time>
      </trkpt>
      <trkpt lat="46.98848" lon="8.69908">
        <ele>563</ele>
        <time>2021-08-05T10:40:02.490Z</time>
      </trkpt>
      <trkpt lat="46.98846" lon="8.6991">
        <ele>564</ele>
        <time>2021-08-05T10:40:03.491Z</time>
      </trkpt>
      <trkpt lat="46.98845" lon="8.69912">
        <ele>564</ele>
        <time>2021-08-05T10:40:04.490Z</time>
      </trkpt>
      <trkpt lat="46.98844" lon="8.69914">
        <ele>564</ele>
        <time>2021-08-05T10:40:05.491Z</time>
      </trkpt>
      <trkpt lat="46.98843" lon="8.69915">
        <ele>564</ele>
        <time>2021-08-05T10:40:06.491Z</time>
      </trkpt>
      <trkpt lat="46.98843" lon="8.69917">
        <ele>564</ele>
        <time>2021-08-05T10:40:07.490Z</time>
      </trkpt>
      <trkpt lat="46.98843" lon="8.69919">
        <ele>564</ele>
        <time>2021-08-05T10:40:08.490Z</time>
      </trkpt>
      <trkpt lat="46.98843" lon="8.69922">
        <ele>564</ele>
        <time>2021-08-05T10:40:09.490Z</time>
      </trkpt>
      <trkpt lat="46.98842" lon="8.69923">
        <ele>564</ele>
        <time>2021-08-05T10:40:10.490Z</time>
      </trkpt>
      <trkpt lat="46.98842" lon="8.69924">
        <ele>565</ele>
        <time>2021-08-05T10:40:11.491Z</time>
      </trkpt>
      <trkpt lat="46.98842" lon="8.69925">
        <ele>565</ele>
        <time>2021-08-05T10:40:12.491Z</time>
      </trkpt>
      <trkpt lat="46.98842" lon="8.69927">
        <ele>565</ele>
        <time>2021-08-05T10:40:13.490Z</time>
      </trkpt>
      <trkpt lat="46.98842" lon="8.69929">
        <ele>565</ele>
        <time>2021-08-05T10:40:14.491Z</time>
      </trkpt>
      <trkpt lat="46.98841" lon="8.69931">
        <ele>566</ele>
        <time>2021-08-05T10:40:15.490Z</time>
      </trkpt>
      <trkpt lat="46.98841" lon="8.69932">
        <ele>566</ele>
        <time>2021-08-05T10:40:16.491Z</time>
      </trkpt>
      <trkpt lat="46.98841" lon="8.69933">
        <ele>567</ele>
        <time>2021-08-05T10:40:17.490Z</time>
      </trkpt>
      <trkpt lat="46.98841" lon="8.69935">
        <ele>567</ele>
        <time>2021-08-05T10:40:18.490Z</time>
      </trkpt>
      <trkpt lat="46.9884" lon="8.69936">
        <ele>567</ele>
        <time>2021-08-05T10:40:19.491Z</time>
      </trkpt>
      <trkpt lat="46.9884" lon="8.69937">
        <ele>567</ele>
        <time>2021-08-05T10:40:20.490Z</time>
      </trkpt>
      <trkpt lat="46.9884" lon="8.69938">
        <ele>567</ele>
        <time>2021-08-05T10:40:21.491Z</time>
      </trkpt>
      <trkpt lat="46.98839" lon="8.6994">
        <ele>567</ele>
        <time>2021-08-05T10:40:22.491Z</time>
      </trkpt>
      <trkpt lat="46.98838" lon="8.69941">
        <ele>567</ele>
        <time>2021-08-05T10:40:23.490Z</time>
      </trkpt>
      <trkpt lat="46.98838" lon="8.69942">
        <ele>568</ele>
        <time>2021-08-05T10:40:24.491Z</time>
      </trkpt>
      <trkpt lat="46.98838" lon="8.69943">
        <ele>568</ele>
        <time>2021-08-05T10:40:25.491Z</time>
      </trkpt>
      <trkpt lat="46.98837" lon="8.69945">
        <ele>568</ele>
        <time>2021-08-05T10:40:26.490Z</time>
      </trkpt>
      <trkpt lat="46.98837" lon="8.69946">
        <ele>569</ele>
        <time>2021-08-05T10:40:27.491Z</time>
      </trkpt>
      <trkpt lat="46.98836" lon="8.69948">
        <ele>569</ele>
        <time>2021-08-05T10:40:28.490Z</time>
      </trkpt>
      <trkpt lat="46.98835" lon="8.69949">
        <ele>570</ele>
        <time>2021-08-05T10:40:29.491Z</time>
      </trkpt>
      <trkpt lat="46.98835" lon="8.69951">
        <ele>571</ele>
        <time>2021-08-05T10:40:30.491Z</time>
      </trkpt>
      <trkpt lat="46.98834" lon="8.69952">
        <ele>571</ele>
        <time>2021-08-05T10:40:31.490Z</time>
      </trkpt>
      <trkpt lat="46.98834" lon="8.69954">
        <ele>571</ele>
        <time>2021-08-05T10:40:32.491Z</time>
      </trkpt>
      <trkpt lat="46.98833" lon="8.69955">
        <ele>571</ele>
        <time>2021-08-05T10:40:33.490Z</time>
      </trkpt>
      <trkpt lat="46.98834" lon="8.69957">
        <ele>571</ele>
        <time>2021-08-05T10:40:34.490Z</time>
      </trkpt>
      <trkpt lat="46.98833" lon="8.69958">
        <ele>570</ele>
        <time>2021-08-05T10:40:35.490Z</time>
      </trkpt>
      <trkpt lat="46.98833" lon="8.6996">
        <ele>570</ele>
        <time>2021-08-05T10:40:36.491Z</time>
      </trkpt>
      <trkpt lat="46.98833" lon="8.69962">
        <ele>570</ele>
        <time>2021-08-05T10:40:37.491Z</time>
      </trkpt>
      <trkpt lat="46.98832" lon="8.69963">
        <ele>569</ele>
        <time>2021-08-05T10:40:38.490Z</time>
      </trkpt>
      <trkpt lat="46.98832" lon="8.69963">
        <ele>569</ele>
        <time>2021-08-05T10:40:39.491Z</time>
      </trkpt>
      <trkpt lat="46.98831" lon="8.69964">
        <ele>568</ele>
        <time>2021-08-05T10:40:48.558Z</time>
      </trkpt>
      <trkpt lat="46.9883" lon="8.69966">
        <ele>568</ele>
        <time>2021-08-05T10:40:49.558Z</time>
      </trkpt>
      <trkpt lat="46.98829" lon="8.69967">
        <ele>567</ele>
        <time>2021-08-05T10:40:50.558Z</time>
      </trkpt>
      <trkpt lat="46.98829" lon="8.69969">
        <ele>567</ele>
        <time>2021-08-05T10:40:51.557Z</time>
      </trkpt>
      <trkpt lat="46.98828" lon="8.6997">
        <ele>566</ele>
        <time>2021-08-05T10:40:52.557Z</time>
      </trkpt>
      <trkpt lat="46.98828" lon="8.69971">
        <ele>566</ele>
        <time>2021-08-05T10:40:53.558Z</time>
      </trkpt>
      <trkpt lat="46.98827" lon="8.69972">
        <ele>566</ele>
        <time>2021-08-05T10:40:54.558Z</time>
      </trkpt>
      <trkpt lat="46.98827" lon="8.69973">
        <ele>566</ele>
        <time>2021-08-05T10:40:55.558Z</time>
      </trkpt>
      <trkpt lat="46.98826" lon="8.69974">
        <ele>566</ele>
        <time>2021-08-05T10:40:56.557Z</time>
      </trkpt>
      <trkpt lat="46.98826" lon="8.69976">
        <ele>566</ele>
        <time>2021-08-05T10:40:57.558Z</time>
      </trkpt>
      <trkpt lat="46.98825" lon="8.69978">
        <ele>565</ele>
        <time>2021-08-05T10:40:58.558Z</time>
      </trkpt>
      <trkpt lat="46.98824" lon="8.6998">
        <ele>565</ele>
        <time>2021-08-05T10:40:59.557Z</time>
      </trkpt>
      <trkpt lat="46.98824" lon="8.69982">
        <ele>565</ele>
        <time>2021-08-05T10:41:00.557Z</time>
      </trkpt>
      <trkpt lat="46.98823" lon="8.69983">
        <ele>565</ele>
        <time>2021-08-05T10:41:01.558Z</time>
      </trkpt>
      <trkpt lat="46.98823" lon="8.69985">
        <ele>566</ele>
        <time>2021-08-05T10:41:02.558Z</time>
      </trkpt>
      <trkpt lat="46.98822" lon="8.69988">
        <ele>566</ele>
        <time>2021-08-05T10:41:03.557Z</time>
      </trkpt>
      <trkpt lat="46.98822" lon="8.6999">
        <ele>566</ele>
        <time>2021-08-05T10:41:04.558Z</time>
      </trkpt>
      <trkpt lat="46.98821" lon="8.69993">
        <ele>567</ele>
        <time>2021-08-05T10:41:05.558Z</time>
      </trkpt>
      <trkpt lat="46.98821" lon="8.69995">
        <ele>568</ele>
        <time>2021-08-05T10:41:06.558Z</time>
      </trkpt>
      <trkpt lat="46.9882" lon="8.69997">
        <ele>568</ele>
        <time>2021-08-05T10:41:07.557Z</time>
      </trkpt>
      <trkpt lat="46.9882" lon="8.69999">
        <ele>568</ele>
        <time>2021-08-05T10:41:08.557Z</time>
      </trkpt>
      <trkpt lat="46.98819" lon="8.70002">
        <ele>569</ele>
        <time>2021-08-05T10:41:09.558Z</time>
      </trkpt>
      <trkpt lat="46.98819" lon="8.70004">
        <ele>569</ele>
        <time>2021-08-05T10:41:10.558Z</time>
      </trkpt>
      <trkpt lat="46.98819" lon="8.70006">
        <ele>570</ele>
        <time>2021-08-05T10:41:11.558Z</time>
      </trkpt>
      <trkpt lat="46.98819" lon="8.70008">
        <ele>570</ele>
        <time>2021-08-05T10:41:12.557Z</time>
      </trkpt>
      <trkpt lat="46.98819" lon="8.7001">
        <ele>570</ele>
        <time>2021-08-05T10:41:13.557Z</time>
      </trkpt>
      <trkpt lat="46.98818" lon="8.70012">
        <ele>570</ele>
        <time>2021-08-05T10:41:14.557Z</time>
      </trkpt>
      <trkpt lat="46.98817" lon="8.70013">
        <ele>569</ele>
        <time>2021-08-05T10:41:15.558Z</time>
      </trkpt>
      <trkpt lat="46.98817" lon="8.70015">
        <ele>569</ele>
        <time>2021-08-05T10:41:16.557Z</time>
      </trkpt>
      <trkpt lat="46.98817" lon="8.70017">
        <ele>569</ele>
        <time>2021-08-05T10:41:17.557Z</time>
      </trkpt>
      <trkpt lat="46.98816" lon="8.70019">
        <ele>569</ele>
        <time>2021-08-05T10:41:18.558Z</time>
      </trkpt>
      <trkpt lat="46.98816" lon="8.70021">
        <ele>568</ele>
        <time>2021-08-05T10:41:19.557Z</time>
      </trkpt>
      <trkpt lat="46.98815" lon="8.70022">
        <ele>567</ele>
        <time>2021-08-05T10:41:20.557Z</time>
      </trkpt>
      <trkpt lat="46.98814" lon="8.70024">
        <ele>567</ele>
        <time>2021-08-05T10:41:21.557Z</time>
      </trkpt>
      <trkpt lat="46.98814" lon="8.70026">
        <ele>566</ele>
        <time>2021-08-05T10:41:22.557Z</time>
      </trkpt>
      <trkpt lat="46.98814" lon="8.70027">
        <ele>566</ele>
        <time>2021-08-05T10:41:23.558Z</time>
      </trkpt>
      <trkpt lat="46.98813" lon="8.70028">
        <ele>566</ele>
        <time>2021-08-05T10:41:24.557Z</time>
      </trkpt>
      <trkpt lat="46.98813" lon="8.70029">
        <ele>567</ele>
        <time>2021-08-05T10:41:25.557Z</time>
      </trkpt>
      <trkpt lat="46.98813" lon="8.7003">
        <ele>567</ele>
        <time>2021-08-05T10:41:26.557Z</time>
      </trkpt>
      <trkpt lat="46.98812" lon="8.70032">
        <ele>568</ele>
        <time>2021-08-05T10:41:27.557Z</time>
      </trkpt>
      <trkpt lat="46.98812" lon="8.70033">
        <ele>568</ele>
        <time>2021-08-05T10:41:28.558Z</time>
      </trkpt>
      <trkpt lat="46.98812" lon="8.70035">
        <ele>569</ele>
        <time>2021-08-05T10:41:29.557Z</time>
      </trkpt>
      <trkpt lat="46.98812" lon="8.70037">
        <ele>569</ele>
        <time>2021-08-05T10:41:30.557Z</time>
      </trkpt>
      <trkpt lat="46.98812" lon="8.70038">
        <ele>569</ele>
        <time>2021-08-05T10:41:31.557Z</time>
      </trkpt>
      <trkpt lat="46.98811" lon="8.7004">
        <ele>569</ele>
        <time>2021-08-05T10:41:32.557Z</time>
      </trkpt>
      <trkpt lat="46.98811" lon="8.70041">
        <ele>569</ele>
        <time>2021-08-05T10:41:33.558Z</time>
      </trkpt>
      <trkpt lat="46.98811" lon="8.70043">
        <ele>569</ele>
        <time>2021-08-05T10:41:34.558Z</time>
      </trkpt>
      <trkpt lat="46.98811" lon="8.70044">
        <ele>569</ele>
        <time>2021-08-05T10:41:35.557Z</time>
      </trkpt>
      <trkpt lat="46.98811" lon="8.70046">
        <ele>568</ele>
        <time>2021-08-05T10:41:36.557Z</time>
      </trkpt>
      <trkpt lat="46.9881" lon="8.70047">
        <ele>567</ele>
        <time>2021-08-05T10:41:37.557Z</time>
      </trkpt>
      <trkpt lat="46.9881" lon="8.70049">
        <ele>567</ele>
        <time>2021-08-05T10:41:38.557Z</time>
      </trkpt>
      <trkpt lat="46.9881" lon="8.7005">
        <ele>567</ele>
        <time>2021-08-05T10:41:39.558Z</time>
      </trkpt>
      <trkpt lat="46.9881" lon="8.70051">
        <ele>566</ele>
        <time>2021-08-05T10:41:40.557Z</time>
      </trkpt>
      <trkpt lat="46.98809" lon="8.70052">
        <ele>566</ele>
        <time>2021-08-05T10:41:41.557Z</time>
      </trkpt>
      <trkpt lat="46.98809" lon="8.70054">
        <ele>566</ele>
        <time>2021-08-05T10:41:42.557Z</time>
      </trkpt>
      <trkpt lat="46.98808" lon="8.70055">
        <ele>566</ele>
        <time>2021-08-05T10:41:43.558Z</time>
      </trkpt>
      <trkpt lat="46.98808" lon="8.70057">
        <ele>566</ele>
        <time>2021-08-05T10:41:44.558Z</time>
      </trkpt>
      <trkpt lat="46.98807" lon="8.70059">
        <ele>567</ele>
        <time>2021-08-05T10:41:45.557Z</time>
      </trkpt>
      <trkpt lat="46.98807" lon="8.7006">
        <ele>567</ele>
        <time>2021-08-05T10:41:46.557Z</time>
      </trkpt>
      <trkpt lat="46.98806" lon="8.70061">
        <ele>566</ele>
        <time>2021-08-05T10:41:47.557Z</time>
      </trkpt>
      <trkpt lat="46.98805" lon="8.70063">
        <ele>567</ele>
        <time>2021-08-05T10:41:48.557Z</time>
      </trkpt>
      <trkpt lat="46.98805" lon="8.70064">
        <ele>567</ele>
        <time>2021-08-05T10:41:49.558Z</time>
      </trkpt>
      <trkpt lat="46.98804" lon="8.70066">
        <ele>567</ele>
        <time>2021-08-05T10:41:50.557Z</time>
      </trkpt>
      <trkpt lat="46.98804" lon="8.70068">
        <ele>567</ele>
        <time>2021-08-05T10:41:51.557Z</time>
      </trkpt>
      <trkpt lat="46.98804" lon="8.7007">
        <ele>567</ele>
        <time>2021-08-05T10:41:52.557Z</time>
      </trkpt>
      <trkpt lat="46.98803" lon="8.70071">
        <ele>566</ele>
        <time>2021-08-05T10:41:53.557Z</time>
      </trkpt>
      <trkpt lat="46.98803" lon="8.70073">
        <ele>565</ele>
        <time>2021-08-05T10:41:54.557Z</time>
      </trkpt>
      <trkpt lat="46.98803" lon="8.70074">
        <ele>565</ele>
        <time>2021-08-05T10:41:55.557Z</time>
      </trkpt>
      <trkpt lat="46.98802" lon="8.70076">
        <ele>564</ele>
        <time>2021-08-05T10:41:56.557Z</time>
      </trkpt>
      <trkpt lat="46.98802" lon="8.70078">
        <ele>564</ele>
        <time>2021-08-05T10:41:57.557Z</time>
      </trkpt>
      <trkpt lat="46.98801" lon="8.70079">
        <ele>564</ele>
        <time>2021-08-05T10:41:58.557Z</time>
      </trkpt>
      <trkpt lat="46.98801" lon="8.70081">
        <ele>564</ele>
        <time>2021-08-05T10:41:59.557Z</time>
      </trkpt>
      <trkpt lat="46.988" lon="8.70082">
        <ele>563</ele>
        <time>2021-08-05T10:42:00.557Z</time>
      </trkpt>
      <trkpt lat="46.988" lon="8.70084">
        <ele>563</ele>
        <time>2021-08-05T10:42:01.558Z</time>
      </trkpt>
      <trkpt lat="46.98799" lon="8.70086">
        <ele>563</ele>
        <time>2021-08-05T10:42:02.557Z</time>
      </trkpt>
      <trkpt lat="46.98799" lon="8.70087">
        <ele>563</ele>
        <time>2021-08-05T10:42:03.558Z</time>
      </trkpt>
      <trkpt lat="46.98799" lon="8.70089">
        <ele>563</ele>
        <time>2021-08-05T10:42:04.558Z</time>
      </trkpt>
      <trkpt lat="46.98798" lon="8.7009">
        <ele>563</ele>
        <time>2021-08-05T10:42:05.558Z</time>
      </trkpt>
      <trkpt lat="46.98798" lon="8.70092">
        <ele>562</ele>
        <time>2021-08-05T10:42:06.558Z</time>
      </trkpt>
      <trkpt lat="46.98798" lon="8.70094">
        <ele>562</ele>
        <time>2021-08-05T10:42:07.558Z</time>
      </trkpt>
      <trkpt lat="46.98797" lon="8.70096">
        <ele>562</ele>
        <time>2021-08-05T10:42:08.558Z</time>
      </trkpt>
      <trkpt lat="46.98797" lon="8.70098">
        <ele>561</ele>
        <time>2021-08-05T10:42:09.558Z</time>
      </trkpt>
      <trkpt lat="46.98796" lon="8.70099">
        <ele>561</ele>
        <time>2021-08-05T10:42:10.558Z</time>
      </trkpt>
      <trkpt lat="46.98796" lon="8.70101">
        <ele>561</ele>
        <time>2021-08-05T10:42:11.558Z</time>
      </trkpt>
      <trkpt lat="46.98795" lon="8.70103">
        <ele>561</ele>
        <time>2021-08-05T10:42:12.557Z</time>
      </trkpt>
      <trkpt lat="46.98795" lon="8.70105">
        <ele>560</ele>
        <time>2021-08-05T10:42:13.558Z</time>
      </trkpt>
      <trkpt lat="46.98794" lon="8.70107">
        <ele>560</ele>
        <time>2021-08-05T10:42:14.558Z</time>
      </trkpt>
      <trkpt lat="46.98794" lon="8.70108">
        <ele>560</ele>
        <time>2021-08-05T10:42:15.558Z</time>
      </trkpt>
      <trkpt lat="46.98794" lon="8.7011">
        <ele>560</ele>
        <time>2021-08-05T10:42:16.558Z</time>
      </trkpt>
      <trkpt lat="46.98793" lon="8.70112">
        <ele>560</ele>
        <time>2021-08-05T10:42:17.557Z</time>
      </trkpt>
      <trkpt lat="46.98793" lon="8.70114">
        <ele>560</ele>
        <time>2021-08-05T10:42:18.558Z</time>
      </trkpt>
      <trkpt lat="46.98793" lon="8.70115">
        <ele>561</ele>
        <time>2021-08-05T10:42:19.557Z</time>
      </trkpt>
      <trkpt lat="46.98792" lon="8.70117">
        <ele>561</ele>
        <time>2021-08-05T10:42:20.557Z</time>
      </trkpt>
      <trkpt lat="46.98792" lon="8.70119">
        <ele>562</ele>
        <time>2021-08-05T10:42:21.557Z</time>
      </trkpt>
      <trkpt lat="46.98792" lon="8.70121">
        <ele>562</ele>
        <time>2021-08-05T10:42:22.557Z</time>
      </trkpt>
      <trkpt lat="46.98792" lon="8.70123">
        <ele>563</ele>
        <time>2021-08-05T10:42:23.557Z</time>
      </trkpt>
      <trkpt lat="46.98792" lon="8.70125">
        <ele>563</ele>
        <time>2021-08-05T10:42:24.558Z</time>
      </trkpt>
      <trkpt lat="46.98791" lon="8.70127">
        <ele>563</ele>
        <time>2021-08-05T10:42:25.558Z</time>
      </trkpt>
      <trkpt lat="46.98791" lon="8.70129">
        <ele>564</ele>
        <time>2021-08-05T10:42:26.557Z</time>
      </trkpt>
      <trkpt lat="46.9879" lon="8.7013">
        <ele>564</ele>
        <time>2021-08-05T10:42:27.558Z</time>
      </trkpt>
      <trkpt lat="46.98789" lon="8.70132">
        <ele>564</ele>
        <time>2021-08-05T10:42:28.558Z</time>
      </trkpt>
      <trkpt lat="46.98789" lon="8.70134">
        <ele>564</ele>
        <time>2021-08-05T10:42:29.558Z</time>
      </trkpt>
      <trkpt lat="46.98788" lon="8.70136">
        <ele>564</ele>
        <time>2021-08-05T10:42:30.557Z</time>
      </trkpt>
      <trkpt lat="46.98788" lon="8.70137">
        <ele>563</ele>
        <time>2021-08-05T10:42:31.558Z</time>
      </trkpt>
      <trkpt lat="46.98787" lon="8.70139">
        <ele>563</ele>
        <time>2021-08-05T10:42:32.557Z</time>
      </trkpt>
      <trkpt lat="46.98787" lon="8.7014">
        <ele>563</ele>
        <time>2021-08-05T10:42:33.558Z</time>
      </trkpt>
      <trkpt lat="46.98786" lon="8.70142">
        <ele>563</ele>
        <time>2021-08-05T10:42:34.558Z</time>
      </trkpt>
      <trkpt lat="46.98785" lon="8.70143">
        <ele>563</ele>
        <time>2021-08-05T10:42:35.557Z</time>
      </trkpt>
      <trkpt lat="46.98785" lon="8.70145">
        <ele>563</ele>
        <time>2021-08-05T10:42:36.558Z</time>
      </trkpt>
      <trkpt lat="46.98785" lon="8.70146">
        <ele>563</ele>
        <time>2021-08-05T10:42:37.558Z</time>
      </trkpt>
      <trkpt lat="46.98784" lon="8.70148">
        <ele>563</ele>
        <time>2021-08-05T10:42:38.557Z</time>
      </trkpt>
      <trkpt lat="46.98783" lon="8.7015">
        <ele>564</ele>
        <time>2021-08-05T10:42:39.557Z</time>
      </trkpt>
      <trkpt lat="46.98783" lon="8.70151">
        <ele>565</ele>
        <time>2021-08-05T10:42:40.557Z</time>
      </trkpt>
      <trkpt lat="46.98782" lon="8.70153">
        <ele>565</ele>
        <time>2021-08-05T10:42:41.557Z</time>
      </trkpt>
      <trkpt lat="46.98782" lon="8.70154">
        <ele>565</ele>
        <time>2021-08-05T10:42:42.557Z</time>
      </trkpt>
      <trkpt lat="46.98781" lon="8.70155">
        <ele>565</ele>
        <time>2021-08-05T10:42:43.558Z</time>
      </trkpt>
      <trkpt lat="46.98781" lon="8.70156">
        <ele>565</ele>
        <time>2021-08-05T10:42:44.557Z</time>
      </trkpt>
      <trkpt lat="46.98781" lon="8.70157">
        <ele>565</ele>
        <time>2021-08-05T10:42:45.557Z</time>
      </trkpt>
      <trkpt lat="46.9878" lon="8.70159">
        <ele>565</ele>
        <time>2021-08-05T10:42:46.557Z</time>
      </trkpt>
      <trkpt lat="46.98779" lon="8.7016">
        <ele>565</ele>
        <time>2021-08-05T10:42:47.557Z</time>
      </trkpt>
      <trkpt lat="46.98779" lon="8.70162">
        <ele>565</ele>
        <time>2021-08-05T10:42:48.558Z</time>
      </trkpt>
      <trkpt lat="46.98778" lon="8.70163">
        <ele>565</ele>
        <time>2021-08-05T10:43:05.552Z</time>
      </trkpt>
      <trkpt lat="46.98777" lon="8.70163">
        <ele>565</ele>
        <time>2021-08-05T10:43:06.551Z</time>
      </trkpt>
      <trkpt lat="46.98777" lon="8.70164">
        <ele>565</ele>
        <time>2021-08-05T10:43:07.552Z</time>
      </trkpt>
      <trkpt lat="46.98776" lon="8.70165">
        <ele>565</ele>
        <time>2021-08-05T10:43:08.551Z</time>
      </trkpt>
      <trkpt lat="46.98775" lon="8.70166">
        <ele>566</ele>
        <time>2021-08-05T10:43:09.551Z</time>
      </trkpt>
      <trkpt lat="46.98774" lon="8.70167">
        <ele>566</ele>
        <time>2021-08-05T10:43:10.552Z</time>
      </trkpt>
      <trkpt lat="46.98773" lon="8.70168">
        <ele>566</ele>
        <time>2021-08-05T10:43:44.700Z</time>
      </trkpt>
      <trkpt lat="46.98773" lon="8.70169">
        <ele>566</ele>
        <time>2021-08-05T10:43:45.699Z</time>
      </trkpt>
      <trkpt lat="46.98772" lon="8.7017">
        <ele>566</ele>
        <time>2021-08-05T10:43:46.699Z</time>
      </trkpt>
      <trkpt lat="46.98771" lon="8.70171">
        <ele>565</ele>
        <time>2021-08-05T10:43:47.699Z</time>
      </trkpt>
      <trkpt lat="46.9877" lon="8.70173">
        <ele>565</ele>
        <time>2021-08-05T10:43:48.699Z</time>
      </trkpt>
      <trkpt lat="46.9877" lon="8.70174">
        <ele>566</ele>
        <time>2021-08-05T10:43:49.699Z</time>
      </trkpt>
      <trkpt lat="46.98769" lon="8.70176">
        <ele>566</ele>
        <time>2021-08-05T10:43:50.699Z</time>
      </trkpt>
      <trkpt lat="46.98768" lon="8.70177">
        <ele>566</ele>
        <time>2021-08-05T10:43:51.699Z</time>
      </trkpt>
      <trkpt lat="46.98768" lon="8.70179">
        <ele>565</ele>
        <time>2021-08-05T10:43:52.699Z</time>
      </trkpt>
      <trkpt lat="46.98767" lon="8.7018">
        <ele>565</ele>
        <time>2021-08-05T10:43:53.699Z</time>
      </trkpt>
      <trkpt lat="46.98766" lon="8.70182">
        <ele>565</ele>
        <time>2021-08-05T10:43:54.700Z</time>
      </trkpt>
      <trkpt lat="46.98765" lon="8.70184">
        <ele>565</ele>
        <time>2021-08-05T10:43:55.700Z</time>
      </trkpt>
      <trkpt lat="46.98764" lon="8.70185">
        <ele>564</ele>
        <time>2021-08-05T10:43:57.808Z</time>
      </trkpt>
      <trkpt lat="46.98764" lon="8.70187">
        <ele>564</ele>
        <time>2021-08-05T10:44:27.698Z</time>
      </trkpt>
      <trkpt lat="46.98763" lon="8.70188">
        <ele>564</ele>
        <time>2021-08-05T10:44:28.699Z</time>
      </trkpt>
      <trkpt lat="46.98762" lon="8.7019">
        <ele>565</ele>
        <time>2021-08-05T10:44:33.582Z</time>
      </trkpt>
      <trkpt lat="46.98762" lon="8.70191">
        <ele>565</ele>
        <time>2021-08-05T10:44:34.583Z</time>
      </trkpt>
      <trkpt lat="46.98762" lon="8.70193">
        <ele>565</ele>
        <time>2021-08-05T10:44:35.583Z</time>
      </trkpt>
      <trkpt lat="46.98761" lon="8.70194">
        <ele>565</ele>
        <time>2021-08-05T10:44:36.583Z</time>
      </trkpt>
      <trkpt lat="46.98761" lon="8.70196">
        <ele>566</ele>
        <time>2021-08-05T10:44:37.583Z</time>
      </trkpt>
      <trkpt lat="46.9876" lon="8.70198">
        <ele>566</ele>
        <time>2021-08-05T10:44:38.583Z</time>
      </trkpt>
      <trkpt lat="46.9876" lon="8.702">
        <ele>567</ele>
        <time>2021-08-05T10:44:39.582Z</time>
      </trkpt>
      <trkpt lat="46.98759" lon="8.70202">
        <ele>567</ele>
        <time>2021-08-05T10:44:40.583Z</time>
      </trkpt>
      <trkpt lat="46.98758" lon="8.70204">
        <ele>567</ele>
        <time>2021-08-05T10:44:41.583Z</time>
      </trkpt>
      <trkpt lat="46.98758" lon="8.70206">
        <ele>566</ele>
        <time>2021-08-05T10:44:42.582Z</time>
      </trkpt>
      <trkpt lat="46.98757" lon="8.70208">
        <ele>566</ele>
        <time>2021-08-05T10:44:43.582Z</time>
      </trkpt>
      <trkpt lat="46.98757" lon="8.70209">
        <ele>566</ele>
        <time>2021-08-05T10:44:44.583Z</time>
      </trkpt>
      <trkpt lat="46.98756" lon="8.70211">
        <ele>566</ele>
        <time>2021-08-05T10:44:45.583Z</time>
      </trkpt>
      <trkpt lat="46.98755" lon="8.70212">
        <ele>566</ele>
        <time>2021-08-05T10:44:46.582Z</time>
      </trkpt>
      <trkpt lat="46.98755" lon="8.70214">
        <ele>566</ele>
        <time>2021-08-05T10:44:47.583Z</time>
      </trkpt>
      <trkpt lat="46.98755" lon="8.70215">
        <ele>566</ele>
        <time>2021-08-05T10:44:48.583Z</time>
      </trkpt>
      <trkpt lat="46.98754" lon="8.70217">
        <ele>566</ele>
        <time>2021-08-05T10:44:49.583Z</time>
      </trkpt>
      <trkpt lat="46.98754" lon="8.70218">
        <ele>566</ele>
        <time>2021-08-05T10:44:50.583Z</time>
      </trkpt>
      <trkpt lat="46.98754" lon="8.7022">
        <ele>567</ele>
        <time>2021-08-05T10:44:51.583Z</time>
      </trkpt>
      <trkpt lat="46.98755" lon="8.70221">
        <ele>567</ele>
        <time>2021-08-05T10:44:52.582Z</time>
      </trkpt>
      <trkpt lat="46.98755" lon="8.70222">
        <ele>568</ele>
        <time>2021-08-05T10:44:53.583Z</time>
      </trkpt>
      <trkpt lat="46.98755" lon="8.70224">
        <ele>568</ele>
        <time>2021-08-05T10:44:54.582Z</time>
      </trkpt>
      <trkpt lat="46.98754" lon="8.70225">
        <ele>568</ele>
        <time>2021-08-05T10:44:55.583Z</time>
      </trkpt>
      <trkpt lat="46.98754" lon="8.70226">
        <ele>568</ele>
        <time>2021-08-05T10:44:56.583Z</time>
      </trkpt>
      <trkpt lat="46.98754" lon="8.70228">
        <ele>567</ele>
        <time>2021-08-05T10:44:57.582Z</time>
      </trkpt>
      <trkpt lat="46.98753" lon="8.70229">
        <ele>567</ele>
        <time>2021-08-05T10:44:58.583Z</time>
      </trkpt>
      <trkpt lat="46.98753" lon="8.70231">
        <ele>566</ele>
        <time>2021-08-05T10:44:59.583Z</time>
      </trkpt>
      <trkpt lat="46.98752" lon="8.70233">
        <ele>566</ele>
        <time>2021-08-05T10:45:00.583Z</time>
      </trkpt>
      <trkpt lat="46.98751" lon="8.70235">
        <ele>566</ele>
        <time>2021-08-05T10:45:01.583Z</time>
      </trkpt>
      <trkpt lat="46.98751" lon="8.70237">
        <ele>567</ele>
        <time>2021-08-05T10:45:02.583Z</time>
      </trkpt>
      <trkpt lat="46.9875" lon="8.70238">
        <ele>567</ele>
        <time>2021-08-05T10:45:03.583Z</time>
      </trkpt>
      <trkpt lat="46.98749" lon="8.7024">
        <ele>567</ele>
        <time>2021-08-05T10:45:04.582Z</time>
      </trkpt>
      <trkpt lat="46.98749" lon="8.70241">
        <ele>568</ele>
        <time>2021-08-05T10:45:05.582Z</time>
      </trkpt>
      <trkpt lat="46.98749" lon="8.70243">
        <ele>568</ele>
        <time>2021-08-05T10:45:06.582Z</time>
      </trkpt>
      <trkpt lat="46.98748" lon="8.70245">
        <ele>568</ele>
        <time>2021-08-05T10:45:07.582Z</time>
      </trkpt>
      <trkpt lat="46.98748" lon="8.70246">
        <ele>568</ele>
        <time>2021-08-05T10:45:08.582Z</time>
      </trkpt>
      <trkpt lat="46.98748" lon="8.70248">
        <ele>568</ele>
        <time>2021-08-05T10:45:09.582Z</time>
      </trkpt>
      <trkpt lat="46.98747" lon="8.70249">
        <ele>568</ele>
        <time>2021-08-05T10:45:10.583Z</time>
      </trkpt>
      <trkpt lat="46.98746" lon="8.70251">
        <ele>568</ele>
        <time>2021-08-05T10:45:11.582Z</time>
      </trkpt>
      <trkpt lat="46.98746" lon="8.70252">
        <ele>568</ele>
        <time>2021-08-05T10:45:12.582Z</time>
      </trkpt>
      <trkpt lat="46.98745" lon="8.70253">
        <ele>569</ele>
        <time>2021-08-05T10:45:13.582Z</time>
      </trkpt>
      <trkpt lat="46.98745" lon="8.70255">
        <ele>569</ele>
        <time>2021-08-05T10:45:14.583Z</time>
      </trkpt>
      <trkpt lat="46.98744" lon="8.70257">
        <ele>569</ele>
        <time>2021-08-05T10:45:15.583Z</time>
      </trkpt>
      <trkpt lat="46.98743" lon="8.70258">
        <ele>570</ele>
        <time>2021-08-05T10:45:16.583Z</time>
      </trkpt>
      <trkpt lat="46.98742" lon="8.70259">
        <ele>570</ele>
        <time>2021-08-05T10:45:31.688Z</time>
      </trkpt>
      <trkpt lat="46.98742" lon="8.7026">
        <ele>570</ele>
        <time>2021-08-05T10:45:32.688Z</time>
      </trkpt>
      <trkpt lat="46.98741" lon="8.70262">
        <ele>570</ele>
        <time>2021-08-05T10:45:33.687Z</time>
      </trkpt>
      <trkpt lat="46.98741" lon="8.70263">
        <ele>569</ele>
        <time>2021-08-05T10:45:34.687Z</time>
      </trkpt>
      <trkpt lat="46.9874" lon="8.70265">
        <ele>569</ele>
        <time>2021-08-05T10:45:39.793Z</time>
      </trkpt>
      <trkpt lat="46.98739" lon="8.70267">
        <ele>568</ele>
        <time>2021-08-05T10:45:40.792Z</time>
      </trkpt>
      <trkpt lat="46.98739" lon="8.70269">
        <ele>568</ele>
        <time>2021-08-05T10:45:41.793Z</time>
      </trkpt>
      <trkpt lat="46.98738" lon="8.70271">
        <ele>567</ele>
        <time>2021-08-05T10:45:42.793Z</time>
      </trkpt>
      <trkpt lat="46.98737" lon="8.70272">
        <ele>566</ele>
        <time>2021-08-05T10:45:43.792Z</time>
      </trkpt>
      <trkpt lat="46.98736" lon="8.70274">
        <ele>566</ele>
        <time>2021-08-05T10:45:44.793Z</time>
      </trkpt>
      <trkpt lat="46.98736" lon="8.70275">
        <ele>565</ele>
        <time>2021-08-05T10:45:45.792Z</time>
      </trkpt>
      <trkpt lat="46.98736" lon="8.70277">
        <ele>565</ele>
        <time>2021-08-05T10:45:46.793Z</time>
      </trkpt>
      <trkpt lat="46.98736" lon="8.70278">
        <ele>564</ele>
        <time>2021-08-05T10:45:47.793Z</time>
      </trkpt>
      <trkpt lat="46.98735" lon="8.7028">
        <ele>564</ele>
        <time>2021-08-05T10:45:48.793Z</time>
      </trkpt>
      <trkpt lat="46.98735" lon="8.70282">
        <ele>564</ele>
        <time>2021-08-05T10:46:02.919Z</time>
      </trkpt>
      <trkpt lat="46.98735" lon="8.70284">
        <ele>565</ele>
        <time>2021-08-05T10:46:03.920Z</time>
      </trkpt>
      <trkpt lat="46.98735" lon="8.70285">
        <ele>565</ele>
        <time>2021-08-05T10:46:07.817Z</time>
      </trkpt>
      <trkpt lat="46.98734" lon="8.70286">
        <ele>566</ele>
        <time>2021-08-05T10:46:08.816Z</time>
      </trkpt>
      <trkpt lat="46.98734" lon="8.70288">
        <ele>566</ele>
        <time>2021-08-05T10:46:09.817Z</time>
      </trkpt>
      <trkpt lat="46.98733" lon="8.70289">
        <ele>566</ele>
        <time>2021-08-05T10:46:10.816Z</time>
      </trkpt>
      <trkpt lat="46.98733" lon="8.70291">
        <ele>566</ele>
        <time>2021-08-05T10:46:11.816Z</time>
      </trkpt>
      <trkpt lat="46.98732" lon="8.70292">
        <ele>565</ele>
        <time>2021-08-05T10:46:12.817Z</time>
      </trkpt>
      <trkpt lat="46.98731" lon="8.70294">
        <ele>565</ele>
        <time>2021-08-05T10:46:13.817Z</time>
      </trkpt>
      <trkpt lat="46.98731" lon="8.70295">
        <ele>565</ele>
        <time>2021-08-05T10:46:14.817Z</time>
      </trkpt>
      <trkpt lat="46.98731" lon="8.70297">
        <ele>564</ele>
        <time>2021-08-05T10:46:15.817Z</time>
      </trkpt>
      <trkpt lat="46.9873" lon="8.70298">
        <ele>564</ele>
        <time>2021-08-05T10:46:16.816Z</time>
      </trkpt>
      <trkpt lat="46.9873" lon="8.70299">
        <ele>564</ele>
        <time>2021-08-05T10:46:17.817Z</time>
      </trkpt>
      <trkpt lat="46.98729" lon="8.70301">
        <ele>563</ele>
        <time>2021-08-05T10:46:18.817Z</time>
      </trkpt>
      <trkpt lat="46.98729" lon="8.70302">
        <ele>563</ele>
        <time>2021-08-05T10:46:19.817Z</time>
      </trkpt>
      <trkpt lat="46.98729" lon="8.70303">
        <ele>563</ele>
        <time>2021-08-05T10:46:30.930Z</time>
      </trkpt>
      <trkpt lat="46.98728" lon="8.70305">
        <ele>563</ele>
        <time>2021-08-05T10:46:31.930Z</time>
      </trkpt>
      <trkpt lat="46.98727" lon="8.70307">
        <ele>563</ele>
        <time>2021-08-05T10:46:50.805Z</time>
      </trkpt>
      <trkpt lat="46.98726" lon="8.70308">
        <ele>563</ele>
        <time>2021-08-05T10:46:51.805Z</time>
      </trkpt>
      <trkpt lat="46.98726" lon="8.7031">
        <ele>563</ele>
        <time>2021-08-05T10:46:52.805Z</time>
      </trkpt>
      <trkpt lat="46.98725" lon="8.70312">
        <ele>564</ele>
        <time>2021-08-05T10:46:53.804Z</time>
      </trkpt>
      <trkpt lat="46.98724" lon="8.70313">
        <ele>564</ele>
        <time>2021-08-05T10:46:54.805Z</time>
      </trkpt>
      <trkpt lat="46.98723" lon="8.70314">
        <ele>564</ele>
        <time>2021-08-05T10:46:55.804Z</time>
      </trkpt>
      <trkpt lat="46.98723" lon="8.70316">
        <ele>565</ele>
        <time>2021-08-05T10:46:56.805Z</time>
      </trkpt>
      <trkpt lat="46.98722" lon="8.70317">
        <ele>565</ele>
        <time>2021-08-05T10:46:57.805Z</time>
      </trkpt>
      <trkpt lat="46.98722" lon="8.70319">
        <ele>565</ele>
        <time>2021-08-05T10:46:58.805Z</time>
      </trkpt>
      <trkpt lat="46.98721" lon="8.7032">
        <ele>566</ele>
        <time>2021-08-05T10:46:59.804Z</time>
      </trkpt>
      <trkpt lat="46.98721" lon="8.70322">
        <ele>566</ele>
        <time>2021-08-05T10:47:00.804Z</time>
      </trkpt>
      <trkpt lat="46.98719" lon="8.70323">
        <ele>567</ele>
        <time>2021-08-05T10:47:01.805Z</time>
      </trkpt>
      <trkpt lat="46.98719" lon="8.70325">
        <ele>567</ele>
        <time>2021-08-05T10:47:02.804Z</time>
      </trkpt>
      <trkpt lat="46.98718" lon="8.70326">
        <ele>567</ele>
        <time>2021-08-05T10:47:03.805Z</time>
      </trkpt>
      <trkpt lat="46.98717" lon="8.70327">
        <ele>567</ele>
        <time>2021-08-05T10:47:04.804Z</time>
      </trkpt>
      <trkpt lat="46.98717" lon="8.70329">
        <ele>567</ele>
        <time>2021-08-05T10:47:05.805Z</time>
      </trkpt>
      <trkpt lat="46.98716" lon="8.7033">
        <ele>567</ele>
        <time>2021-08-05T10:47:06.805Z</time>
      </trkpt>
      <trkpt lat="46.98716" lon="8.70331">
        <ele>566</ele>
        <time>2021-08-05T10:47:07.804Z</time>
      </trkpt>
      <trkpt lat="46.98715" lon="8.70333">
        <ele>566</ele>
        <time>2021-08-05T10:47:08.805Z</time>
      </trkpt>
      <trkpt lat="46.98714" lon="8.70334">
        <ele>565</ele>
        <time>2021-08-05T10:47:09.804Z</time>
      </trkpt>
      <trkpt lat="46.98714" lon="8.70336">
        <ele>565</ele>
        <time>2021-08-05T10:47:10.804Z</time>
      </trkpt>
      <trkpt lat="46.98713" lon="8.70338">
        <ele>565</ele>
        <time>2021-08-05T10:47:11.805Z</time>
      </trkpt>
      <trkpt lat="46.98713" lon="8.70339">
        <ele>565</ele>
        <time>2021-08-05T10:47:12.804Z</time>
      </trkpt>
      <trkpt lat="46.98712" lon="8.70341">
        <ele>566</ele>
        <time>2021-08-05T10:47:13.804Z</time>
      </trkpt>
      <trkpt lat="46.98711" lon="8.70342">
        <ele>566</ele>
        <time>2021-08-05T10:47:14.805Z</time>
      </trkpt>
      <trkpt lat="46.98711" lon="8.70344">
        <ele>566</ele>
        <time>2021-08-05T10:47:15.805Z</time>
      </trkpt>
      <trkpt lat="46.9871" lon="8.70345">
        <ele>566</ele>
        <time>2021-08-05T10:47:16.805Z</time>
      </trkpt>
      <trkpt lat="46.9871" lon="8.70347">
        <ele>566</ele>
        <time>2021-08-05T10:47:17.805Z</time>
      </trkpt>
      <trkpt lat="46.98709" lon="8.70348">
        <ele>565</ele>
        <time>2021-08-05T10:47:18.805Z</time>
      </trkpt>
      <trkpt lat="46.98708" lon="8.70349">
        <ele>565</ele>
        <time>2021-08-05T10:47:19.804Z</time>
      </trkpt>
      <trkpt lat="46.98708" lon="8.70351">
        <ele>565</ele>
        <time>2021-08-05T10:47:20.804Z</time>
      </trkpt>
      <trkpt lat="46.98707" lon="8.70352">
        <ele>566</ele>
        <time>2021-08-05T10:47:21.805Z</time>
      </trkpt>
      <trkpt lat="46.98706" lon="8.70353">
        <ele>566</ele>
        <time>2021-08-05T10:47:22.805Z</time>
      </trkpt>
      <trkpt lat="46.98706" lon="8.70354">
        <ele>566</ele>
        <time>2021-08-05T10:47:23.805Z</time>
      </trkpt>
      <trkpt lat="46.98706" lon="8.70356">
        <ele>567</ele>
        <time>2021-08-05T10:47:24.805Z</time>
      </trkpt>
      <trkpt lat="46.98706" lon="8.70358">
        <ele>567</ele>
        <time>2021-08-05T10:47:25.804Z</time>
      </trkpt>
      <trkpt lat="46.98705" lon="8.70359">
        <ele>567</ele>
        <time>2021-08-05T10:47:26.805Z</time>
      </trkpt>
      <trkpt lat="46.98705" lon="8.7036">
        <ele>566</ele>
        <time>2021-08-05T10:47:27.805Z</time>
      </trkpt>
      <trkpt lat="46.98704" lon="8.70361">
        <ele>566</ele>
        <time>2021-08-05T10:47:28.805Z</time>
      </trkpt>
      <trkpt lat="46.98703" lon="8.70362">
        <ele>566</ele>
        <time>2021-08-05T10:47:29.805Z</time>
      </trkpt>
      <trkpt lat="46.98702" lon="8.70363">
        <ele>566</ele>
        <time>2021-08-05T10:47:30.805Z</time>
      </trkpt>
      <trkpt lat="46.98701" lon="8.70365">
        <ele>566</ele>
        <time>2021-08-05T10:47:31.805Z</time>
      </trkpt>
      <trkpt lat="46.987" lon="8.70366">
        <ele>566</ele>
        <time>2021-08-05T10:47:32.804Z</time>
      </trkpt>
      <trkpt lat="46.98699" lon="8.70367">
        <ele>567</ele>
        <time>2021-08-05T10:47:33.805Z</time>
      </trkpt>
      <trkpt lat="46.98698" lon="8.70369">
        <ele>567</ele>
        <time>2021-08-05T10:47:34.805Z</time>
      </trkpt>
      <trkpt lat="46.98698" lon="8.7037">
        <ele>567</ele>
        <time>2021-08-05T10:47:35.804Z</time>
      </trkpt>
      <trkpt lat="46.98696" lon="8.70372">
        <ele>568</ele>
        <time>2021-08-05T10:47:36.805Z</time>
      </trkpt>
      <trkpt lat="46.98696" lon="8.70373">
        <ele>568</ele>
        <time>2021-08-05T10:47:37.805Z</time>
      </trkpt>
      <trkpt lat="46.98694" lon="8.70374">
        <ele>568</ele>
        <time>2021-08-05T10:47:38.804Z</time>
      </trkpt>
      <trkpt lat="46.98694" lon="8.70376">
        <ele>568</ele>
        <time>2021-08-05T10:47:39.804Z</time>
      </trkpt>
      <trkpt lat="46.98693" lon="8.70378">
        <ele>568</ele>
        <time>2021-08-05T10:47:40.805Z</time>
      </trkpt>
      <trkpt lat="46.98692" lon="8.70379">
        <ele>569</ele>
        <time>2021-08-05T10:47:41.805Z</time>
      </trkpt>
      <trkpt lat="46.98691" lon="8.7038">
        <ele>568</ele>
        <time>2021-08-05T10:47:42.805Z</time>
      </trkpt>
      <trkpt lat="46.9869" lon="8.70381">
        <ele>568</ele>
        <time>2021-08-05T10:47:43.804Z</time>
      </trkpt>
      <trkpt lat="46.98689" lon="8.70382">
        <ele>568</ele>
        <time>2021-08-05T10:47:44.804Z</time>
      </trkpt>
      <trkpt lat="46.98689" lon="8.70383">
        <ele>568</ele>
        <time>2021-08-05T10:47:45.805Z</time>
      </trkpt>
      <trkpt lat="46.98688" lon="8.70385">
        <ele>567</ele>
        <time>2021-08-05T10:47:46.805Z</time>
      </trkpt>
      <trkpt lat="46.98687" lon="8.70386">
        <ele>567</ele>
        <time>2021-08-05T10:47:47.805Z</time>
      </trkpt>
      <trkpt lat="46.98686" lon="8.70388">
        <ele>566</ele>
        <time>2021-08-05T10:47:48.805Z</time>
      </trkpt>
      <trkpt lat="46.98685" lon="8.70389">
        <ele>565</ele>
        <time>2021-08-05T10:47:49.804Z</time>
      </trkpt>
      <trkpt lat="46.98685" lon="8.7039">
        <ele>564</ele>
        <time>2021-08-05T10:47:50.804Z</time>
      </trkpt>
      <trkpt lat="46.98684" lon="8.70391">
        <ele>564</ele>
        <time>2021-08-05T10:47:51.805Z</time>
      </trkpt>
      <trkpt lat="46.98683" lon="8.70393">
        <ele>564</ele>
        <time>2021-08-05T10:47:52.804Z</time>
      </trkpt>
      <trkpt lat="46.98682" lon="8.70394">
        <ele>564</ele>
        <time>2021-08-05T10:47:53.805Z</time>
      </trkpt>
      <trkpt lat="46.98682" lon="8.70395">
        <ele>565</ele>
        <time>2021-08-05T10:47:54.805Z</time>
      </trkpt>
      <trkpt lat="46.98681" lon="8.70397">
        <ele>565</ele>
        <time>2021-08-05T10:47:55.804Z</time>
      </trkpt>
      <trkpt lat="46.9868" lon="8.70398">
        <ele>566</ele>
        <time>2021-08-05T10:47:56.804Z</time>
      </trkpt>
      <trkpt lat="46.98679" lon="8.70399">
        <ele>566</ele>
        <time>2021-08-05T10:47:57.805Z</time>
      </trkpt>
      <trkpt lat="46.98678" lon="8.704">
        <ele>567</ele>
        <time>2021-08-05T10:47:58.805Z</time>
      </trkpt>
      <trkpt lat="46.98677" lon="8.70401">
        <ele>567</ele>
        <time>2021-08-05T10:47:59.804Z</time>
      </trkpt>
      <trkpt lat="46.98676" lon="8.70402">
        <ele>567</ele>
        <time>2021-08-05T10:48:00.805Z</time>
      </trkpt>
      <trkpt lat="46.98676" lon="8.70404">
        <ele>566</ele>
        <time>2021-08-05T10:48:01.804Z</time>
      </trkpt>
      <trkpt lat="46.98675" lon="8.70405">
        <ele>566</ele>
        <time>2021-08-05T10:48:02.804Z</time>
      </trkpt>
      <trkpt lat="46.98674" lon="8.70406">
        <ele>565</ele>
        <time>2021-08-05T10:48:03.805Z</time>
      </trkpt>
      <trkpt lat="46.98673" lon="8.70407">
        <ele>565</ele>
        <time>2021-08-05T10:48:04.805Z</time>
      </trkpt>
      <trkpt lat="46.98673" lon="8.70408">
        <ele>565</ele>
        <time>2021-08-05T10:48:05.805Z</time>
      </trkpt>
      <trkpt lat="46.98672" lon="8.7041">
        <ele>565</ele>
        <time>2021-08-05T10:48:06.805Z</time>
      </trkpt>
      <trkpt lat="46.98672" lon="8.70411">
        <ele>565</ele>
        <time>2021-08-05T10:48:07.805Z</time>
      </trkpt>
      <trkpt lat="46.98671" lon="8.70413">
        <ele>565</ele>
        <time>2021-08-05T10:48:08.805Z</time>
      </trkpt>
      <trkpt lat="46.9867" lon="8.70413">
        <ele>565</ele>
        <time>2021-08-05T10:48:09.804Z</time>
      </trkpt>
      <trkpt lat="46.98669" lon="8.70414">
        <ele>566</ele>
        <time>2021-08-05T10:48:10.805Z</time>
      </trkpt>
      <trkpt lat="46.98668" lon="8.70416">
        <ele>566</ele>
        <time>2021-08-05T10:48:11.805Z</time>
      </trkpt>
      <trkpt lat="46.98667" lon="8.70417">
        <ele>566</ele>
        <time>2021-08-05T10:48:12.804Z</time>
      </trkpt>
      <trkpt lat="46.98666" lon="8.70418">
        <ele>566</ele>
        <time>2021-08-05T10:48:13.805Z</time>
      </trkpt>
      <trkpt lat="46.98666" lon="8.70419">
        <ele>566</ele>
        <time>2021-08-05T10:48:14.805Z</time>
      </trkpt>
      <trkpt lat="46.98665" lon="8.7042">
        <ele>566</ele>
        <time>2021-08-05T10:48:15.804Z</time>
      </trkpt>
      <trkpt lat="46.98664" lon="8.70422">
        <ele>566</ele>
        <time>2021-08-05T10:48:16.805Z</time>
      </trkpt>
      <trkpt lat="46.98664" lon="8.70424">
        <ele>566</ele>
        <time>2021-08-05T10:48:17.804Z</time>
      </trkpt>
      <trkpt lat="46.98663" lon="8.70425">
        <ele>566</ele>
        <time>2021-08-05T10:48:18.805Z</time>
      </trkpt>
      <trkpt lat="46.98662" lon="8.70426">
        <ele>567</ele>
        <time>2021-08-05T10:48:19.804Z</time>
      </trkpt>
      <trkpt lat="46.98661" lon="8.70428">
        <ele>567</ele>
        <time>2021-08-05T10:48:20.805Z</time>
      </trkpt>
      <trkpt lat="46.9866" lon="8.70429">
        <ele>567</ele>
        <time>2021-08-05T10:48:21.805Z</time>
      </trkpt>
      <trkpt lat="46.98659" lon="8.7043">
        <ele>567</ele>
        <time>2021-08-05T10:48:22.804Z</time>
      </trkpt>
      <trkpt lat="46.98658" lon="8.70431">
        <ele>566</ele>
        <time>2021-08-05T10:48:23.804Z</time>
      </trkpt>
      <trkpt lat="46.98658" lon="8.70432">
        <ele>566</ele>
        <time>2021-08-05T10:48:24.805Z</time>
      </trkpt>
      <trkpt lat="46.98657" lon="8.70433">
        <ele>566</ele>
        <time>2021-08-05T10:48:25.805Z</time>
      </trkpt>
      <trkpt lat="46.98656" lon="8.70434">
        <ele>566</ele>
        <time>2021-08-05T10:48:26.804Z</time>
      </trkpt>
      <trkpt lat="46.98656" lon="8.70436">
        <ele>565</ele>
        <time>2021-08-05T10:48:27.805Z</time>
      </trkpt>
      <trkpt lat="46.98655" lon="8.70437">
        <ele>565</ele>
        <time>2021-08-05T10:48:28.805Z</time>
      </trkpt>
      <trkpt lat="46.98655" lon="8.70439">
        <ele>565</ele>
        <time>2021-08-05T10:48:29.804Z</time>
      </trkpt>
      <trkpt lat="46.98654" lon="8.7044">
        <ele>565</ele>
        <time>2021-08-05T10:48:30.805Z</time>
      </trkpt>
      <trkpt lat="46.98653" lon="8.70441">
        <ele>566</ele>
        <time>2021-08-05T10:48:31.805Z</time>
      </trkpt>
      <trkpt lat="46.98652" lon="8.70443">
        <ele>566</ele>
        <time>2021-08-05T10:48:32.805Z</time>
      </trkpt>
      <trkpt lat="46.98651" lon="8.70444">
        <ele>567</ele>
        <time>2021-08-05T10:48:33.805Z</time>
      </trkpt>
      <trkpt lat="46.9865" lon="8.70445">
        <ele>566</ele>
        <time>2021-08-05T10:48:34.805Z</time>
      </trkpt>
      <trkpt lat="46.9865" lon="8.70446">
        <ele>566</ele>
        <time>2021-08-05T10:48:35.804Z</time>
      </trkpt>
      <trkpt lat="46.98649" lon="8.70447">
        <ele>566</ele>
        <time>2021-08-05T10:48:36.805Z</time>
      </trkpt>
      <trkpt lat="46.98648" lon="8.70448">
        <ele>566</ele>
        <time>2021-08-05T10:48:37.805Z</time>
      </trkpt>
      <trkpt lat="46.98647" lon="8.70449">
        <ele>565</ele>
        <time>2021-08-05T10:48:38.804Z</time>
      </trkpt>
      <trkpt lat="46.98647" lon="8.7045">
        <ele>564</ele>
        <time>2021-08-05T10:48:39.805Z</time>
      </trkpt>
      <trkpt lat="46.98646" lon="8.7045">
        <ele>564</ele>
        <time>2021-08-05T10:48:40.805Z</time>
      </trkpt>
      <trkpt lat="46.98645" lon="8.70452">
        <ele>564</ele>
        <time>2021-08-05T10:48:41.805Z</time>
      </trkpt>
      <trkpt lat="46.98645" lon="8.70453">
        <ele>564</ele>
        <time>2021-08-05T10:48:42.804Z</time>
      </trkpt>
      <trkpt lat="46.98644" lon="8.70454">
        <ele>565</ele>
        <time>2021-08-05T10:48:43.804Z</time>
      </trkpt>
      <trkpt lat="46.98644" lon="8.70455">
        <ele>565</ele>
        <time>2021-08-05T10:48:44.805Z</time>
      </trkpt>
      <trkpt lat="46.98643" lon="8.70456">
        <ele>565</ele>
        <time>2021-08-05T10:48:45.805Z</time>
      </trkpt>
      <trkpt lat="46.98642" lon="8.70457">
        <ele>565</ele>
        <time>2021-08-05T10:48:46.805Z</time>
      </trkpt>
      <trkpt lat="46.98641" lon="8.70458">
        <ele>565</ele>
        <time>2021-08-05T10:48:47.805Z</time>
      </trkpt>
      <trkpt lat="46.98641" lon="8.70459">
        <ele>565</ele>
        <time>2021-08-05T10:48:48.804Z</time>
      </trkpt>
      <trkpt lat="46.9864" lon="8.7046">
        <ele>564</ele>
        <time>2021-08-05T10:48:49.805Z</time>
      </trkpt>
      <trkpt lat="46.98639" lon="8.70461">
        <ele>564</ele>
        <time>2021-08-05T10:48:50.805Z</time>
      </trkpt>
      <trkpt lat="46.98639" lon="8.70462">
        <ele>564</ele>
        <time>2021-08-05T10:48:51.805Z</time>
      </trkpt>
      <trkpt lat="46.98638" lon="8.70463">
        <ele>564</ele>
        <time>2021-08-05T10:48:52.805Z</time>
      </trkpt>
      <trkpt lat="46.98637" lon="8.70464">
        <ele>564</ele>
        <time>2021-08-05T10:48:53.805Z</time>
      </trkpt>
      <trkpt lat="46.98636" lon="8.70465">
        <ele>563</ele>
        <time>2021-08-05T10:48:54.805Z</time>
      </trkpt>
      <trkpt lat="46.98635" lon="8.70466">
        <ele>564</ele>
        <time>2021-08-05T10:48:55.805Z</time>
      </trkpt>
      <trkpt lat="46.98634" lon="8.70467">
        <ele>564</ele>
        <time>2021-08-05T10:48:56.804Z</time>
      </trkpt>
      <trkpt lat="46.98634" lon="8.70467">
        <ele>564</ele>
        <time>2021-08-05T10:48:57.805Z</time>
      </trkpt>
      <trkpt lat="46.98634" lon="8.70468">
        <ele>564</ele>
        <time>2021-08-05T10:48:58.805Z</time>
      </trkpt>
      <trkpt lat="46.98633" lon="8.70468">
        <ele>564</ele>
        <time>2021-08-05T10:48:59.804Z</time>
      </trkpt>
      <trkpt lat="46.98633" lon="8.70469">
        <ele>564</ele>
        <time>2021-08-05T10:49:00.804Z</time>
      </trkpt>
      <trkpt lat="46.98632" lon="8.70468">
        <ele>564</ele>
        <time>2021-08-05T10:49:01.804Z</time>
      </trkpt>
      <trkpt lat="46.98632" lon="8.70469">
        <ele>565</ele>
        <time>2021-08-05T10:49:02.804Z</time>
      </trkpt>
      <trkpt lat="46.9863" lon="8.70472">
        <ele>566</ele>
        <time>2021-08-05T10:49:03.806Z</time>
      </trkpt>
      <trkpt lat="46.98631" lon="8.70471">
        <ele>566</ele>
        <time>2021-08-05T10:49:04.806Z</time>
      </trkpt>
      <trkpt lat="46.98631" lon="8.70469">
        <ele>565</ele>
        <time>2021-08-05T10:49:05.805Z</time>
      </trkpt>
      <trkpt lat="46.9863" lon="8.70469">
        <ele>565</ele>
        <time>2021-08-05T10:49:06.806Z</time>
      </trkpt>
      <trkpt lat="46.98629" lon="8.70469">
        <ele>566</ele>
        <time>2021-08-05T10:49:07.805Z</time>
      </trkpt>
      <trkpt lat="46.98629" lon="8.7047">
        <ele>567</ele>
        <time>2021-08-05T10:49:08.806Z</time>
      </trkpt>
      <trkpt lat="46.98628" lon="8.70471">
        <ele>567</ele>
        <time>2021-08-05T10:49:09.806Z</time>
      </trkpt>
      <trkpt lat="46.98627" lon="8.70473">
        <ele>568</ele>
        <time>2021-08-05T10:49:10.806Z</time>
      </trkpt>
      <trkpt lat="46.98626" lon="8.70473">
        <ele>569</ele>
        <time>2021-08-05T10:49:11.805Z</time>
      </trkpt>
      <trkpt lat="46.98625" lon="8.70474">
        <ele>570</ele>
        <time>2021-08-05T10:49:12.806Z</time>
      </trkpt>
      <trkpt lat="46.98624" lon="8.70476">
        <ele>570</ele>
        <time>2021-08-05T10:49:13.806Z</time>
      </trkpt>
      <trkpt lat="46.98623" lon="8.70477">
        <ele>571</ele>
        <time>2021-08-05T10:49:14.805Z</time>
      </trkpt>
      <trkpt lat="46.98622" lon="8.70478">
        <ele>571</ele>
        <time>2021-08-05T10:49:15.806Z</time>
      </trkpt>
      <trkpt lat="46.98621" lon="8.7048">
        <ele>571</ele>
        <time>2021-08-05T10:49:16.806Z</time>
      </trkpt>
      <trkpt lat="46.9862" lon="8.70481">
        <ele>571</ele>
        <time>2021-08-05T10:49:17.806Z</time>
      </trkpt>
      <trkpt lat="46.9862" lon="8.70483">
        <ele>571</ele>
        <time>2021-08-05T10:49:18.806Z</time>
      </trkpt>
      <trkpt lat="46.98619" lon="8.70484">
        <ele>571</ele>
        <time>2021-08-05T10:49:19.806Z</time>
      </trkpt>
      <trkpt lat="46.98618" lon="8.70485">
        <ele>571</ele>
        <time>2021-08-05T10:49:20.805Z</time>
      </trkpt>
      <trkpt lat="46.98617" lon="8.70486">
        <ele>571</ele>
        <time>2021-08-05T10:49:21.806Z</time>
      </trkpt>
      <trkpt lat="46.98616" lon="8.70488">
        <ele>572</ele>
        <time>2021-08-05T10:49:22.805Z</time>
      </trkpt>
      <trkpt lat="46.98615" lon="8.70489">
        <ele>573</ele>
        <time>2021-08-05T10:49:23.805Z</time>
      </trkpt>
      <trkpt lat="46.98614" lon="8.7049">
        <ele>573</ele>
        <time>2021-08-05T10:49:24.805Z</time>
      </trkpt>
      <trkpt lat="46.98612" lon="8.70491">
        <ele>573</ele>
        <time>2021-08-05T10:49:25.806Z</time>
      </trkpt>
      <trkpt lat="46.98611" lon="8.70492">
        <ele>573</ele>
        <time>2021-08-05T10:49:26.806Z</time>
      </trkpt>
      <trkpt lat="46.9861" lon="8.70493">
        <ele>573</ele>
        <time>2021-08-05T10:49:27.805Z</time>
      </trkpt>
      <trkpt lat="46.9861" lon="8.70494">
        <ele>574</ele>
        <time>2021-08-05T10:49:28.806Z</time>
      </trkpt>
      <trkpt lat="46.98609" lon="8.70496">
        <ele>574</ele>
        <time>2021-08-05T10:49:29.806Z</time>
      </trkpt>
      <trkpt lat="46.98608" lon="8.70496">
        <ele>574</ele>
        <time>2021-08-05T10:49:30.805Z</time>
      </trkpt>
      <trkpt lat="46.98607" lon="8.70497">
        <ele>574</ele>
        <time>2021-08-05T10:49:31.806Z</time>
      </trkpt>
      <trkpt lat="46.98606" lon="8.70499">
        <ele>574</ele>
        <time>2021-08-05T10:49:32.806Z</time>
      </trkpt>
      <trkpt lat="46.98606" lon="8.705">
        <ele>574</ele>
        <time>2021-08-05T10:49:33.806Z</time>
      </trkpt>
      <trkpt lat="46.98605" lon="8.70501">
        <ele>574</ele>
        <time>2021-08-05T10:49:34.806Z</time>
      </trkpt>
      <trkpt lat="46.98604" lon="8.70502">
        <ele>573</ele>
        <time>2021-08-05T10:49:35.806Z</time>
      </trkpt>
      <trkpt lat="46.98603" lon="8.70504">
        <ele>573</ele>
        <time>2021-08-05T10:49:36.806Z</time>
      </trkpt>
      <trkpt lat="46.98602" lon="8.70504">
        <ele>572</ele>
        <time>2021-08-05T10:49:37.806Z</time>
      </trkpt>
      <trkpt lat="46.98602" lon="8.70505">
        <ele>572</ele>
        <time>2021-08-05T10:49:38.806Z</time>
      </trkpt>
      <trkpt lat="46.98601" lon="8.70507">
        <ele>572</ele>
        <time>2021-08-05T10:49:39.806Z</time>
      </trkpt>
      <trkpt lat="46.986" lon="8.70508">
        <ele>571</ele>
        <time>2021-08-05T10:49:40.805Z</time>
      </trkpt>
      <trkpt lat="46.98598" lon="8.70509">
        <ele>571</ele>
        <time>2021-08-05T10:49:41.806Z</time>
      </trkpt>
      <trkpt lat="46.98596" lon="8.7051">
        <ele>571</ele>
        <time>2021-08-05T10:49:42.805Z</time>
      </trkpt>
      <trkpt lat="46.98595" lon="8.70511">
        <ele>571</ele>
        <time>2021-08-05T10:49:43.805Z</time>
      </trkpt>
      <trkpt lat="46.98594" lon="8.70512">
        <ele>571</ele>
        <time>2021-08-05T10:49:44.805Z</time>
      </trkpt>
      <trkpt lat="46.98593" lon="8.70513">
        <ele>571</ele>
        <time>2021-08-05T10:49:45.806Z</time>
      </trkpt>
      <trkpt lat="46.98592" lon="8.70513">
        <ele>571</ele>
        <time>2021-08-05T10:49:46.806Z</time>
      </trkpt>
      <trkpt lat="46.98592" lon="8.70515">
        <ele>571</ele>
        <time>2021-08-05T10:49:47.806Z</time>
      </trkpt>
      <trkpt lat="46.98591" lon="8.70516">
        <ele>571</ele>
        <time>2021-08-05T10:49:48.805Z</time>
      </trkpt>
      <trkpt lat="46.98591" lon="8.70518">
        <ele>571</ele>
        <time>2021-08-05T10:49:49.805Z</time>
      </trkpt>
      <trkpt lat="46.9859" lon="8.70519">
        <ele>571</ele>
        <time>2021-08-05T10:49:50.805Z</time>
      </trkpt>
      <trkpt lat="46.98589" lon="8.7052">
        <ele>571</ele>
        <time>2021-08-05T10:49:51.805Z</time>
      </trkpt>
      <trkpt lat="46.98588" lon="8.70521">
        <ele>570</ele>
        <time>2021-08-05T10:49:52.805Z</time>
      </trkpt>
      <trkpt lat="46.98587" lon="8.70522">
        <ele>570</ele>
        <time>2021-08-05T10:49:53.805Z</time>
      </trkpt>
      <trkpt lat="46.98587" lon="8.70523">
        <ele>570</ele>
        <time>2021-08-05T10:49:54.806Z</time>
      </trkpt>
      <trkpt lat="46.98586" lon="8.70524">
        <ele>570</ele>
        <time>2021-08-05T10:49:55.806Z</time>
      </trkpt>
      <trkpt lat="46.98586" lon="8.70526">
        <ele>570</ele>
        <time>2021-08-05T10:49:56.806Z</time>
      </trkpt>
      <trkpt lat="46.98585" lon="8.70527">
        <ele>570</ele>
        <time>2021-08-05T10:49:57.806Z</time>
      </trkpt>
      <trkpt lat="46.98585" lon="8.70528">
        <ele>570</ele>
        <time>2021-08-05T10:49:58.806Z</time>
      </trkpt>
      <trkpt lat="46.98584" lon="8.7053">
        <ele>570</ele>
        <time>2021-08-05T10:49:59.806Z</time>
      </trkpt>
      <trkpt lat="46.98583" lon="8.70531">
        <ele>570</ele>
        <time>2021-08-05T10:50:00.806Z</time>
      </trkpt>
      <trkpt lat="46.98582" lon="8.70532">
        <ele>570</ele>
        <time>2021-08-05T10:50:01.806Z</time>
      </trkpt>
      <trkpt lat="46.98581" lon="8.70533">
        <ele>570</ele>
        <time>2021-08-05T10:50:02.806Z</time>
      </trkpt>
      <trkpt lat="46.9858" lon="8.70535">
        <ele>571</ele>
        <time>2021-08-05T10:50:03.806Z</time>
      </trkpt>
      <trkpt lat="46.98579" lon="8.70536">
        <ele>571</ele>
        <time>2021-08-05T10:50:04.806Z</time>
      </trkpt>
      <trkpt lat="46.98577" lon="8.70537">
        <ele>571</ele>
        <time>2021-08-05T10:50:05.806Z</time>
      </trkpt>
      <trkpt lat="46.98576" lon="8.70538">
        <ele>571</ele>
        <time>2021-08-05T10:50:06.806Z</time>
      </trkpt>
      <trkpt lat="46.98575" lon="8.70539">
        <ele>571</ele>
        <time>2021-08-05T10:50:07.806Z</time>
      </trkpt>
      <trkpt lat="46.98574" lon="8.7054">
        <ele>571</ele>
        <time>2021-08-05T10:50:08.806Z</time>
      </trkpt>
      <trkpt lat="46.98573" lon="8.70541">
        <ele>571</ele>
        <time>2021-08-05T10:50:09.806Z</time>
      </trkpt>
      <trkpt lat="46.98572" lon="8.70541">
        <ele>571</ele>
        <time>2021-08-05T10:50:10.805Z</time>
      </trkpt>
      <trkpt lat="46.98571" lon="8.70542">
        <ele>571</ele>
        <time>2021-08-05T10:50:11.806Z</time>
      </trkpt>
      <trkpt lat="46.9857" lon="8.70543">
        <ele>570</ele>
        <time>2021-08-05T10:50:12.806Z</time>
      </trkpt>
      <trkpt lat="46.98569" lon="8.70544">
        <ele>569</ele>
        <time>2021-08-05T10:50:13.805Z</time>
      </trkpt>
      <trkpt lat="46.98567" lon="8.70544">
        <ele>568</ele>
        <time>2021-08-05T10:50:14.806Z</time>
      </trkpt>
      <trkpt lat="46.98567" lon="8.70545">
        <ele>568</ele>
        <time>2021-08-05T10:50:15.805Z</time>
      </trkpt>
      <trkpt lat="46.98566" lon="8.70547">
        <ele>567</ele>
        <time>2021-08-05T10:50:16.806Z</time>
      </trkpt>
      <trkpt lat="46.98565" lon="8.70547">
        <ele>567</ele>
        <time>2021-08-05T10:50:17.805Z</time>
      </trkpt>
      <trkpt lat="46.98565" lon="8.70548">
        <ele>567</ele>
        <time>2021-08-05T10:50:18.805Z</time>
      </trkpt>
      <trkpt lat="46.98564" lon="8.7055">
        <ele>568</ele>
        <time>2021-08-05T10:50:19.806Z</time>
      </trkpt>
      <trkpt lat="46.98563" lon="8.70551">
        <ele>569</ele>
        <time>2021-08-05T10:50:20.806Z</time>
      </trkpt>
      <trkpt lat="46.98563" lon="8.70552">
        <ele>570</ele>
        <time>2021-08-05T10:50:21.806Z</time>
      </trkpt>
      <trkpt lat="46.98562" lon="8.70553">
        <ele>571</ele>
        <time>2021-08-05T10:50:22.806Z</time>
      </trkpt>
      <trkpt lat="46.98561" lon="8.70554">
        <ele>571</ele>
        <time>2021-08-05T10:50:23.806Z</time>
      </trkpt>
      <trkpt lat="46.9856" lon="8.70555">
        <ele>571</ele>
        <time>2021-08-05T10:50:24.806Z</time>
      </trkpt>
      <trkpt lat="46.98559" lon="8.70557">
        <ele>571</ele>
        <time>2021-08-05T10:50:25.805Z</time>
      </trkpt>
      <trkpt lat="46.98558" lon="8.70558">
        <ele>571</ele>
        <time>2021-08-05T10:50:26.806Z</time>
      </trkpt>
      <trkpt lat="46.98558" lon="8.7056">
        <ele>571</ele>
        <time>2021-08-05T10:50:27.806Z</time>
      </trkpt>
      <trkpt lat="46.98557" lon="8.70562">
        <ele>571</ele>
        <time>2021-08-05T10:50:28.806Z</time>
      </trkpt>
      <trkpt lat="46.98556" lon="8.70563">
        <ele>572</ele>
        <time>2021-08-05T10:50:29.806Z</time>
      </trkpt>
      <trkpt lat="46.98555" lon="8.70564">
        <ele>573</ele>
        <time>2021-08-05T10:50:30.805Z</time>
      </trkpt>
      <trkpt lat="46.98554" lon="8.70566">
        <ele>573</ele>
        <time>2021-08-05T10:50:31.806Z</time>
      </trkpt>
      <trkpt lat="46.98554" lon="8.70567">
        <ele>574</ele>
        <time>2021-08-05T10:50:32.805Z</time>
      </trkpt>
      <trkpt lat="46.98553" lon="8.70568">
        <ele>574</ele>
        <time>2021-08-05T10:50:33.805Z</time>
      </trkpt>
      <trkpt lat="46.98552" lon="8.7057">
        <ele>574</ele>
        <time>2021-08-05T10:50:34.806Z</time>
      </trkpt>
      <trkpt lat="46.98551" lon="8.70571">
        <ele>574</ele>
        <time>2021-08-05T10:50:35.805Z</time>
      </trkpt>
      <trkpt lat="46.9855" lon="8.70572">
        <ele>573</ele>
        <time>2021-08-05T10:50:36.805Z</time>
      </trkpt>
      <trkpt lat="46.9855" lon="8.70574">
        <ele>573</ele>
        <time>2021-08-05T10:50:37.806Z</time>
      </trkpt>
      <trkpt lat="46.98549" lon="8.70575">
        <ele>572</ele>
        <time>2021-08-05T10:50:38.806Z</time>
      </trkpt>
      <trkpt lat="46.98548" lon="8.70576">
        <ele>572</ele>
        <time>2021-08-05T10:50:39.806Z</time>
      </trkpt>
      <trkpt lat="46.98547" lon="8.70578">
        <ele>572</ele>
        <time>2021-08-05T10:50:40.806Z</time>
      </trkpt>
      <trkpt lat="46.98547" lon="8.70579">
        <ele>572</ele>
        <time>2021-08-05T10:50:41.805Z</time>
      </trkpt>
      <trkpt lat="46.98546" lon="8.7058">
        <ele>572</ele>
        <time>2021-08-05T10:50:42.805Z</time>
      </trkpt>
      <trkpt lat="46.98545" lon="8.70581">
        <ele>572</ele>
        <time>2021-08-05T10:50:43.805Z</time>
      </trkpt>
      <trkpt lat="46.98544" lon="8.70583">
        <ele>572</ele>
        <time>2021-08-05T10:50:44.805Z</time>
      </trkpt>
      <trkpt lat="46.98544" lon="8.70583">
        <ele>572</ele>
        <time>2021-08-05T10:50:45.806Z</time>
      </trkpt>
      <trkpt lat="46.98543" lon="8.70585">
        <ele>571</ele>
        <time>2021-08-05T10:50:46.806Z</time>
      </trkpt>
      <trkpt lat="46.98542" lon="8.70586">
        <ele>571</ele>
        <time>2021-08-05T10:50:47.805Z</time>
      </trkpt>
      <trkpt lat="46.98541" lon="8.70587">
        <ele>571</ele>
        <time>2021-08-05T10:50:57.921Z</time>
      </trkpt>
      <trkpt lat="46.98541" lon="8.70589">
        <ele>571</ele>
        <time>2021-08-05T10:50:58.921Z</time>
      </trkpt>
      <trkpt lat="46.9854" lon="8.7059">
        <ele>571</ele>
        <time>2021-08-05T10:50:59.921Z</time>
      </trkpt>
      <trkpt lat="46.98539" lon="8.70592">
        <ele>571</ele>
        <time>2021-08-05T10:51:00.921Z</time>
      </trkpt>
      <trkpt lat="46.98539" lon="8.70594">
        <ele>572</ele>
        <time>2021-08-05T10:51:01.921Z</time>
      </trkpt>
      <trkpt lat="46.98538" lon="8.70595">
        <ele>572</ele>
        <time>2021-08-05T10:51:02.921Z</time>
      </trkpt>
      <trkpt lat="46.98537" lon="8.70596">
        <ele>573</ele>
        <time>2021-08-05T10:51:03.921Z</time>
      </trkpt>
      <trkpt lat="46.98536" lon="8.70597">
        <ele>573</ele>
        <time>2021-08-05T10:51:04.921Z</time>
      </trkpt>
      <trkpt lat="46.98535" lon="8.70599">
        <ele>573</ele>
        <time>2021-08-05T10:51:05.920Z</time>
      </trkpt>
      <trkpt lat="46.98534" lon="8.706">
        <ele>572</ele>
        <time>2021-08-05T10:51:06.920Z</time>
      </trkpt>
      <trkpt lat="46.98533" lon="8.70601">
        <ele>572</ele>
        <time>2021-08-05T10:51:07.920Z</time>
      </trkpt>
      <trkpt lat="46.98532" lon="8.70601">
        <ele>571</ele>
        <time>2021-08-05T10:51:08.920Z</time>
      </trkpt>
      <trkpt lat="46.98531" lon="8.70603">
        <ele>571</ele>
        <time>2021-08-05T10:51:09.921Z</time>
      </trkpt>
      <trkpt lat="46.9853" lon="8.70604">
        <ele>571</ele>
        <time>2021-08-05T10:51:10.921Z</time>
      </trkpt>
      <trkpt lat="46.98529" lon="8.70605">
        <ele>571</ele>
        <time>2021-08-05T10:51:11.920Z</time>
      </trkpt>
      <trkpt lat="46.98527" lon="8.70606">
        <ele>571</ele>
        <time>2021-08-05T10:51:12.920Z</time>
      </trkpt>
      <trkpt lat="46.98527" lon="8.70607">
        <ele>572</ele>
        <time>2021-08-05T10:51:27.082Z</time>
      </trkpt>
      <trkpt lat="46.98526" lon="8.70609">
        <ele>573</ele>
        <time>2021-08-05T10:51:28.081Z</time>
      </trkpt>
      <trkpt lat="46.98525" lon="8.7061">
        <ele>573</ele>
        <time>2021-08-05T10:51:29.082Z</time>
      </trkpt>
      <trkpt lat="46.98525" lon="8.70612">
        <ele>574</ele>
        <time>2021-08-05T10:51:30.082Z</time>
      </trkpt>
      <trkpt lat="46.98524" lon="8.70613">
        <ele>574</ele>
        <time>2021-08-05T10:51:31.082Z</time>
      </trkpt>
      <trkpt lat="46.98523" lon="8.70614">
        <ele>574</ele>
        <time>2021-08-05T10:51:32.081Z</time>
      </trkpt>
      <trkpt lat="46.98522" lon="8.70616">
        <ele>575</ele>
        <time>2021-08-05T10:51:33.082Z</time>
      </trkpt>
      <trkpt lat="46.98521" lon="8.70617">
        <ele>575</ele>
        <time>2021-08-05T10:51:34.082Z</time>
      </trkpt>
      <trkpt lat="46.9852" lon="8.70618">
        <ele>575</ele>
        <time>2021-08-05T10:51:35.082Z</time>
      </trkpt>
      <trkpt lat="46.98519" lon="8.70618">
        <ele>575</ele>
        <time>2021-08-05T10:51:36.081Z</time>
      </trkpt>
      <trkpt lat="46.98519" lon="8.70619">
        <ele>575</ele>
        <time>2021-08-05T10:51:37.081Z</time>
      </trkpt>
      <trkpt lat="46.98518" lon="8.7062">
        <ele>575</ele>
        <time>2021-08-05T10:51:38.082Z</time>
      </trkpt>
      <trkpt lat="46.98517" lon="8.70621">
        <ele>576</ele>
        <time>2021-08-05T10:51:39.082Z</time>
      </trkpt>
      <trkpt lat="46.98516" lon="8.70622">
        <ele>576</ele>
        <time>2021-08-05T10:51:40.082Z</time>
      </trkpt>
      <trkpt lat="46.98515" lon="8.70623">
        <ele>575</ele>
        <time>2021-08-05T10:51:41.082Z</time>
      </trkpt>
      <trkpt lat="46.98514" lon="8.70624">
        <ele>575</ele>
        <time>2021-08-05T10:51:42.081Z</time>
      </trkpt>
      <trkpt lat="46.98513" lon="8.70624">
        <ele>574</ele>
        <time>2021-08-05T10:51:43.081Z</time>
      </trkpt>
      <trkpt lat="46.98512" lon="8.70625">
        <ele>573</ele>
        <time>2021-08-05T10:51:44.081Z</time>
      </trkpt>
      <trkpt lat="46.98511" lon="8.70626">
        <ele>572</ele>
        <time>2021-08-05T10:51:45.082Z</time>
      </trkpt>
      <trkpt lat="46.9851" lon="8.70628">
        <ele>572</ele>
        <time>2021-08-05T10:51:46.081Z</time>
      </trkpt>
      <trkpt lat="46.98509" lon="8.70629">
        <ele>571</ele>
        <time>2021-08-05T10:51:47.081Z</time>
      </trkpt>
      <trkpt lat="46.98508" lon="8.7063">
        <ele>571</ele>
        <time>2021-08-05T10:51:48.082Z</time>
      </trkpt>
      <trkpt lat="46.98507" lon="8.70631">
        <ele>570</ele>
        <time>2021-08-05T10:51:49.081Z</time>
      </trkpt>
      <trkpt lat="46.98506" lon="8.70632">
        <ele>570</ele>
        <time>2021-08-05T10:51:50.082Z</time>
      </trkpt>
      <trkpt lat="46.98506" lon="8.70633">
        <ele>569</ele>
        <time>2021-08-05T10:51:51.081Z</time>
      </trkpt>
      <trkpt lat="46.98505" lon="8.70634">
        <ele>569</ele>
        <time>2021-08-05T10:51:52.081Z</time>
      </trkpt>
      <trkpt lat="46.98504" lon="8.70634">
        <ele>569</ele>
        <time>2021-08-05T10:51:53.082Z</time>
      </trkpt>
      <trkpt lat="46.98503" lon="8.70635">
        <ele>569</ele>
        <time>2021-08-05T10:51:54.081Z</time>
      </trkpt>
      <trkpt lat="46.98502" lon="8.70636">
        <ele>569</ele>
        <time>2021-08-05T10:51:55.081Z</time>
      </trkpt>
      <trkpt lat="46.98501" lon="8.70636">
        <ele>569</ele>
        <time>2021-08-05T10:51:56.082Z</time>
      </trkpt>
      <trkpt lat="46.98499" lon="8.70636">
        <ele>570</ele>
        <time>2021-08-05T10:51:57.082Z</time>
      </trkpt>
      <trkpt lat="46.98498" lon="8.70636">
        <ele>571</ele>
        <time>2021-08-05T10:51:58.081Z</time>
      </trkpt>
      <trkpt lat="46.98497" lon="8.70635">
        <ele>571</ele>
        <time>2021-08-05T10:51:59.082Z</time>
      </trkpt>
      <trkpt lat="46.98495" lon="8.70635">
        <ele>572</ele>
        <time>2021-08-05T10:52:00.082Z</time>
      </trkpt>
      <trkpt lat="46.98493" lon="8.70635">
        <ele>573</ele>
        <time>2021-08-05T10:52:01.081Z</time>
      </trkpt>
      <trkpt lat="46.98492" lon="8.70636">
        <ele>574</ele>
        <time>2021-08-05T10:52:02.082Z</time>
      </trkpt>
      <trkpt lat="46.98491" lon="8.70636">
        <ele>575</ele>
        <time>2021-08-05T10:52:03.082Z</time>
      </trkpt>
      <trkpt lat="46.9849" lon="8.70636">
        <ele>575</ele>
        <time>2021-08-05T10:52:04.082Z</time>
      </trkpt>
      <trkpt lat="46.9849" lon="8.70636">
        <ele>576</ele>
        <time>2021-08-05T10:52:05.082Z</time>
      </trkpt>
      <trkpt lat="46.98489" lon="8.70637">
        <ele>576</ele>
        <time>2021-08-05T10:52:06.082Z</time>
      </trkpt>
      <trkpt lat="46.98488" lon="8.70637">
        <ele>577</ele>
        <time>2021-08-05T10:52:07.082Z</time>
      </trkpt>
      <trkpt lat="46.98487" lon="8.70638">
        <ele>577</ele>
        <time>2021-08-05T10:52:08.082Z</time>
      </trkpt>
      <trkpt lat="46.98487" lon="8.70639">
        <ele>577</ele>
        <time>2021-08-05T10:52:09.082Z</time>
      </trkpt>
      <trkpt lat="46.98487" lon="8.70639">
        <ele>577</ele>
        <time>2021-08-05T10:52:10.082Z</time>
      </trkpt>
      <trkpt lat="46.98487" lon="8.70639">
        <ele>576</ele>
        <time>2021-08-05T10:52:11.082Z</time>
      </trkpt>
      <trkpt lat="46.98487" lon="8.7064">
        <ele>575</ele>
        <time>2021-08-05T10:52:12.082Z</time>
      </trkpt>
      <trkpt lat="46.98486" lon="8.7064">
        <ele>574</ele>
        <time>2021-08-05T10:52:13.082Z</time>
      </trkpt>
      <trkpt lat="46.98486" lon="8.70641">
        <ele>574</ele>
        <time>2021-08-05T10:52:14.081Z</time>
      </trkpt>
      <trkpt lat="46.98484" lon="8.70642">
        <ele>574</ele>
        <time>2021-08-05T10:52:15.081Z</time>
      </trkpt>
      <trkpt lat="46.98483" lon="8.70643">
        <ele>574</ele>
        <time>2021-08-05T10:52:16.082Z</time>
      </trkpt>
      <trkpt lat="46.98483" lon="8.70645">
        <ele>574</ele>
        <time>2021-08-05T10:52:17.082Z</time>
      </trkpt>
      <trkpt lat="46.98482" lon="8.70647">
        <ele>574</ele>
        <time>2021-08-05T10:52:18.081Z</time>
      </trkpt>
      <trkpt lat="46.98482" lon="8.70649">
        <ele>574</ele>
        <time>2021-08-05T10:52:19.081Z</time>
      </trkpt>
      <trkpt lat="46.98482" lon="8.70651">
        <ele>574</ele>
        <time>2021-08-05T10:52:20.081Z</time>
      </trkpt>
      <trkpt lat="46.98482" lon="8.70652">
        <ele>574</ele>
        <time>2021-08-05T10:52:21.082Z</time>
      </trkpt>
      <trkpt lat="46.98482" lon="8.70653">
        <ele>574</ele>
        <time>2021-08-05T10:52:22.081Z</time>
      </trkpt>
      <trkpt lat="46.98481" lon="8.70653">
        <ele>574</ele>
        <time>2021-08-05T10:52:23.081Z</time>
      </trkpt>
      <trkpt lat="46.98481" lon="8.70654">
        <ele>574</ele>
        <time>2021-08-05T10:52:24.081Z</time>
      </trkpt>
      <trkpt lat="46.9848" lon="8.70654">
        <ele>574</ele>
        <time>2021-08-05T10:52:25.081Z</time>
      </trkpt>
      <trkpt lat="46.98478" lon="8.70655">
        <ele>574</ele>
        <time>2021-08-05T10:52:26.082Z</time>
      </trkpt>
      <trkpt lat="46.98477" lon="8.70655">
        <ele>575</ele>
        <time>2021-08-05T10:52:27.081Z</time>
      </trkpt>
      <trkpt lat="46.98476" lon="8.70655">
        <ele>575</ele>
        <time>2021-08-05T10:52:28.082Z</time>
      </trkpt>
      <trkpt lat="46.98475" lon="8.70656">
        <ele>576</ele>
        <time>2021-08-05T10:52:29.081Z</time>
      </trkpt>
      <trkpt lat="46.98473" lon="8.70656">
        <ele>576</ele>
        <time>2021-08-05T10:52:30.082Z</time>
      </trkpt>
      <trkpt lat="46.98472" lon="8.70655">
        <ele>576</ele>
        <time>2021-08-05T10:52:31.082Z</time>
      </trkpt>
      <trkpt lat="46.98472" lon="8.70655">
        <ele>576</ele>
        <time>2021-08-05T10:52:32.081Z</time>
      </trkpt>
      <trkpt lat="46.98471" lon="8.70655">
        <ele>576</ele>
        <time>2021-08-05T10:52:33.081Z</time>
      </trkpt>
      <trkpt lat="46.9847" lon="8.70655">
        <ele>576</ele>
        <time>2021-08-05T10:52:34.081Z</time>
      </trkpt>
      <trkpt lat="46.98469" lon="8.70656">
        <ele>577</ele>
        <time>2021-08-05T10:52:35.082Z</time>
      </trkpt>
      <trkpt lat="46.98467" lon="8.70656">
        <ele>577</ele>
        <time>2021-08-05T10:52:36.082Z</time>
      </trkpt>
      <trkpt lat="46.98466" lon="8.70656">
        <ele>578</ele>
        <time>2021-08-05T10:52:37.082Z</time>
      </trkpt>
      <trkpt lat="46.98465" lon="8.70656">
        <ele>578</ele>
        <time>2021-08-05T10:52:38.081Z</time>
      </trkpt>
      <trkpt lat="46.98464" lon="8.70656">
        <ele>578</ele>
        <time>2021-08-05T10:52:39.081Z</time>
      </trkpt>
      <trkpt lat="46.98463" lon="8.70657">
        <ele>578</ele>
        <time>2021-08-05T10:52:40.081Z</time>
      </trkpt>
      <trkpt lat="46.98462" lon="8.70656">
        <ele>578</ele>
        <time>2021-08-05T10:52:41.081Z</time>
      </trkpt>
      <trkpt lat="46.98461" lon="8.70657">
        <ele>578</ele>
        <time>2021-08-05T10:52:42.082Z</time>
      </trkpt>
      <trkpt lat="46.9846" lon="8.70658">
        <ele>578</ele>
        <time>2021-08-05T10:52:43.081Z</time>
      </trkpt>
      <trkpt lat="46.98459" lon="8.70659">
        <ele>578</ele>
        <time>2021-08-05T10:52:44.082Z</time>
      </trkpt>
      <trkpt lat="46.98458" lon="8.70659">
        <ele>578</ele>
        <time>2021-08-05T10:52:45.081Z</time>
      </trkpt>
      <trkpt lat="46.98458" lon="8.7066">
        <ele>578</ele>
        <time>2021-08-05T10:52:46.081Z</time>
      </trkpt>
      <trkpt lat="46.98458" lon="8.70661">
        <ele>577</ele>
        <time>2021-08-05T10:52:47.081Z</time>
      </trkpt>
      <trkpt lat="46.98457" lon="8.70661">
        <ele>577</ele>
        <time>2021-08-05T10:52:48.082Z</time>
      </trkpt>
      <trkpt lat="46.98456" lon="8.70662">
        <ele>577</ele>
        <time>2021-08-05T10:52:49.082Z</time>
      </trkpt>
      <trkpt lat="46.98455" lon="8.70663">
        <ele>578</ele>
        <time>2021-08-05T10:52:50.082Z</time>
      </trkpt>
      <trkpt lat="46.98455" lon="8.70664">
        <ele>578</ele>
        <time>2021-08-05T10:52:51.082Z</time>
      </trkpt>
      <trkpt lat="46.98454" lon="8.70665">
        <ele>578</ele>
        <time>2021-08-05T10:52:52.082Z</time>
      </trkpt>
      <trkpt lat="46.98453" lon="8.70666">
        <ele>579</ele>
        <time>2021-08-05T10:52:53.081Z</time>
      </trkpt>
      <trkpt lat="46.98453" lon="8.70667">
        <ele>579</ele>
        <time>2021-08-05T10:52:54.081Z</time>
      </trkpt>
      <trkpt lat="46.98452" lon="8.70669">
        <ele>580</ele>
        <time>2021-08-05T10:52:55.082Z</time>
      </trkpt>
      <trkpt lat="46.98451" lon="8.7067">
        <ele>580</ele>
        <time>2021-08-05T10:52:56.082Z</time>
      </trkpt>
      <trkpt lat="46.9845" lon="8.70671">
        <ele>581</ele>
        <time>2021-08-05T10:52:57.082Z</time>
      </trkpt>
      <trkpt lat="46.98449" lon="8.70672">
        <ele>581</ele>
        <time>2021-08-05T10:52:58.081Z</time>
      </trkpt>
      <trkpt lat="46.98448" lon="8.70672">
        <ele>582</ele>
        <time>2021-08-05T10:52:59.082Z</time>
      </trkpt>
      <trkpt lat="46.98448" lon="8.70673">
        <ele>583</ele>
        <time>2021-08-05T10:53:00.082Z</time>
      </trkpt>
      <trkpt lat="46.98447" lon="8.70674">
        <ele>583</ele>
        <time>2021-08-05T10:53:01.082Z</time>
      </trkpt>
      <trkpt lat="46.98446" lon="8.70675">
        <ele>584</ele>
        <time>2021-08-05T10:53:02.082Z</time>
      </trkpt>
      <trkpt lat="46.98445" lon="8.70675">
        <ele>585</ele>
        <time>2021-08-05T10:53:03.082Z</time>
      </trkpt>
      <trkpt lat="46.98445" lon="8.70676">
        <ele>586</ele>
        <time>2021-08-05T10:53:04.082Z</time>
      </trkpt>
      <trkpt lat="46.98444" lon="8.70677">
        <ele>587</ele>
        <time>2021-08-05T10:53:05.082Z</time>
      </trkpt>
      <trkpt lat="46.98443" lon="8.70678">
        <ele>588</ele>
        <time>2021-08-05T10:53:06.082Z</time>
      </trkpt>
      <trkpt lat="46.98443" lon="8.7068">
        <ele>589</ele>
        <time>2021-08-05T10:53:07.082Z</time>
      </trkpt>
      <trkpt lat="46.98443" lon="8.70681">
        <ele>590</ele>
        <time>2021-08-05T10:53:08.081Z</time>
      </trkpt>
      <trkpt lat="46.98443" lon="8.70683">
        <ele>590</ele>
        <time>2021-08-05T10:53:09.082Z</time>
      </trkpt>
      <trkpt lat="46.98443" lon="8.70685">
        <ele>590</ele>
        <time>2021-08-05T10:53:10.082Z</time>
      </trkpt>
      <trkpt lat="46.98443" lon="8.70687">
        <ele>590</ele>
        <time>2021-08-05T10:53:11.082Z</time>
      </trkpt>
      <trkpt lat="46.98442" lon="8.70688">
        <ele>590</ele>
        <time>2021-08-05T10:53:12.081Z</time>
      </trkpt>
      <trkpt lat="46.98441" lon="8.70689">
        <ele>588</ele>
        <time>2021-08-05T10:53:13.082Z</time>
      </trkpt>
      <trkpt lat="46.98441" lon="8.70691">
        <ele>587</ele>
        <time>2021-08-05T10:53:14.082Z</time>
      </trkpt>
      <trkpt lat="46.9844" lon="8.70693">
        <ele>586</ele>
        <time>2021-08-05T10:53:15.082Z</time>
      </trkpt>
      <trkpt lat="46.9844" lon="8.70694">
        <ele>585</ele>
        <time>2021-08-05T10:53:16.082Z</time>
      </trkpt>
      <trkpt lat="46.9844" lon="8.70695">
        <ele>585</ele>
        <time>2021-08-05T10:53:17.081Z</time>
      </trkpt>
      <trkpt lat="46.98439" lon="8.70696">
        <ele>584</ele>
        <time>2021-08-05T10:53:18.081Z</time>
      </trkpt>
      <trkpt lat="46.98438" lon="8.70697">
        <ele>585</ele>
        <time>2021-08-05T10:53:19.082Z</time>
      </trkpt>
      <trkpt lat="46.98438" lon="8.70698">
        <ele>585</ele>
        <time>2021-08-05T10:53:20.082Z</time>
      </trkpt>
      <trkpt lat="46.98437" lon="8.70699">
        <ele>584</ele>
        <time>2021-08-05T10:53:21.082Z</time>
      </trkpt>
      <trkpt lat="46.98436" lon="8.70701">
        <ele>584</ele>
        <time>2021-08-05T10:53:22.082Z</time>
      </trkpt>
      <trkpt lat="46.98435" lon="8.70703">
        <ele>585</ele>
        <time>2021-08-05T10:53:23.081Z</time>
      </trkpt>
      <trkpt lat="46.98434" lon="8.70704">
        <ele>585</ele>
        <time>2021-08-05T10:53:24.082Z</time>
      </trkpt>
      <trkpt lat="46.98433" lon="8.70705">
        <ele>585</ele>
        <time>2021-08-05T10:53:25.081Z</time>
      </trkpt>
      <trkpt lat="46.98433" lon="8.70706">
        <ele>585</ele>
        <time>2021-08-05T10:53:26.081Z</time>
      </trkpt>
      <trkpt lat="46.98432" lon="8.70708">
        <ele>586</ele>
        <time>2021-08-05T10:53:27.081Z</time>
      </trkpt>
      <trkpt lat="46.98432" lon="8.70709">
        <ele>586</ele>
        <time>2021-08-05T10:53:28.082Z</time>
      </trkpt>
      <trkpt lat="46.98431" lon="8.7071">
        <ele>586</ele>
        <time>2021-08-05T10:53:29.081Z</time>
      </trkpt>
      <trkpt lat="46.98431" lon="8.70711">
        <ele>586</ele>
        <time>2021-08-05T10:53:30.082Z</time>
      </trkpt>
      <trkpt lat="46.9843" lon="8.70713">
        <ele>586</ele>
        <time>2021-08-05T10:53:31.082Z</time>
      </trkpt>
      <trkpt lat="46.98429" lon="8.70715">
        <ele>586</ele>
        <time>2021-08-05T10:53:32.081Z</time>
      </trkpt>
      <trkpt lat="46.98428" lon="8.70717">
        <ele>586</ele>
        <time>2021-08-05T10:53:33.082Z</time>
      </trkpt>
      <trkpt lat="46.98427" lon="8.70718">
        <ele>586</ele>
        <time>2021-08-05T10:53:34.081Z</time>
      </trkpt>
      <trkpt lat="46.98427" lon="8.7072">
        <ele>586</ele>
        <time>2021-08-05T10:53:35.082Z</time>
      </trkpt>
      <trkpt lat="46.98426" lon="8.70722">
        <ele>586</ele>
        <time>2021-08-05T10:53:36.082Z</time>
      </trkpt>
      <trkpt lat="46.98426" lon="8.70723">
        <ele>585</ele>
        <time>2021-08-05T10:53:37.082Z</time>
      </trkpt>
      <trkpt lat="46.98426" lon="8.70725">
        <ele>585</ele>
        <time>2021-08-05T10:53:38.082Z</time>
      </trkpt>
      <trkpt lat="46.98425" lon="8.70726">
        <ele>585</ele>
        <time>2021-08-05T10:53:39.082Z</time>
      </trkpt>
      <trkpt lat="46.98425" lon="8.70728">
        <ele>584</ele>
        <time>2021-08-05T10:53:40.081Z</time>
      </trkpt>
      <trkpt lat="46.98424" lon="8.70729">
        <ele>584</ele>
        <time>2021-08-05T10:53:41.082Z</time>
      </trkpt>
      <trkpt lat="46.98423" lon="8.70731">
        <ele>584</ele>
        <time>2021-08-05T10:53:42.082Z</time>
      </trkpt>
      <trkpt lat="46.98422" lon="8.70732">
        <ele>583</ele>
        <time>2021-08-05T10:53:43.082Z</time>
      </trkpt>
      <trkpt lat="46.98422" lon="8.70734">
        <ele>583</ele>
        <time>2021-08-05T10:53:44.082Z</time>
      </trkpt>
      <trkpt lat="46.98421" lon="8.70736">
        <ele>583</ele>
        <time>2021-08-05T10:53:45.082Z</time>
      </trkpt>
      <trkpt lat="46.9842" lon="8.70737">
        <ele>583</ele>
        <time>2021-08-05T10:53:46.082Z</time>
      </trkpt>
      <trkpt lat="46.9842" lon="8.70738">
        <ele>582</ele>
        <time>2021-08-05T10:53:47.081Z</time>
      </trkpt>
      <trkpt lat="46.9842" lon="8.70739">
        <ele>582</ele>
        <time>2021-08-05T10:53:48.082Z</time>
      </trkpt>
      <trkpt lat="46.98419" lon="8.70741">
        <ele>582</ele>
        <time>2021-08-05T10:53:49.082Z</time>
      </trkpt>
      <trkpt lat="46.98418" lon="8.70742">
        <ele>581</ele>
        <time>2021-08-05T10:53:50.082Z</time>
      </trkpt>
      <trkpt lat="46.98417" lon="8.70743">
        <ele>581</ele>
        <time>2021-08-05T10:53:51.082Z</time>
      </trkpt>
      <trkpt lat="46.98416" lon="8.70745">
        <ele>581</ele>
        <time>2021-08-05T10:53:52.081Z</time>
      </trkpt>
      <trkpt lat="46.98415" lon="8.70746">
        <ele>581</ele>
        <time>2021-08-05T10:53:53.082Z</time>
      </trkpt>
      <trkpt lat="46.98415" lon="8.70748">
        <ele>581</ele>
        <time>2021-08-05T10:53:54.082Z</time>
      </trkpt>
      <trkpt lat="46.98414" lon="8.70749">
        <ele>581</ele>
        <time>2021-08-05T10:53:55.081Z</time>
      </trkpt>
      <trkpt lat="46.98413" lon="8.7075">
        <ele>581</ele>
        <time>2021-08-05T10:53:56.082Z</time>
      </trkpt>
      <trkpt lat="46.98413" lon="8.70751">
        <ele>581</ele>
        <time>2021-08-05T10:53:57.081Z</time>
      </trkpt>
      <trkpt lat="46.98412" lon="8.70753">
        <ele>581</ele>
        <time>2021-08-05T10:53:58.081Z</time>
      </trkpt>
      <trkpt lat="46.98411" lon="8.70754">
        <ele>581</ele>
        <time>2021-08-05T10:53:59.082Z</time>
      </trkpt>
      <trkpt lat="46.98411" lon="8.70756">
        <ele>581</ele>
        <time>2021-08-05T10:54:00.081Z</time>
      </trkpt>
      <trkpt lat="46.98411" lon="8.70758">
        <ele>581</ele>
        <time>2021-08-05T10:54:01.082Z</time>
      </trkpt>
      <trkpt lat="46.9841" lon="8.7076">
        <ele>581</ele>
        <time>2021-08-05T10:54:02.082Z</time>
      </trkpt>
      <trkpt lat="46.9841" lon="8.70762">
        <ele>581</ele>
        <time>2021-08-05T10:54:03.082Z</time>
      </trkpt>
      <trkpt lat="46.98409" lon="8.70764">
        <ele>581</ele>
        <time>2021-08-05T10:54:04.082Z</time>
      </trkpt>
      <trkpt lat="46.98409" lon="8.70765">
        <ele>582</ele>
        <time>2021-08-05T10:54:05.081Z</time>
      </trkpt>
      <trkpt lat="46.98409" lon="8.70766">
        <ele>582</ele>
        <time>2021-08-05T10:54:06.081Z</time>
      </trkpt>
      <trkpt lat="46.98408" lon="8.70768">
        <ele>582</ele>
        <time>2021-08-05T10:54:07.081Z</time>
      </trkpt>
      <trkpt lat="46.98407" lon="8.7077">
        <ele>583</ele>
        <time>2021-08-05T10:54:08.082Z</time>
      </trkpt>
      <trkpt lat="46.98406" lon="8.70772">
        <ele>583</ele>
        <time>2021-08-05T10:54:09.082Z</time>
      </trkpt>
      <trkpt lat="46.98406" lon="8.70774">
        <ele>583</ele>
        <time>2021-08-05T10:54:10.082Z</time>
      </trkpt>
      <trkpt lat="46.98406" lon="8.70776">
        <ele>583</ele>
        <time>2021-08-05T10:54:11.082Z</time>
      </trkpt>
      <trkpt lat="46.98405" lon="8.70778">
        <ele>583</ele>
        <time>2021-08-05T10:54:12.081Z</time>
      </trkpt>
      <trkpt lat="46.98404" lon="8.7078">
        <ele>583</ele>
        <time>2021-08-05T10:54:13.081Z</time>
      </trkpt>
      <trkpt lat="46.98404" lon="8.70781">
        <ele>584</ele>
        <time>2021-08-05T10:54:14.081Z</time>
      </trkpt>
      <trkpt lat="46.98403" lon="8.70782">
        <ele>584</ele>
        <time>2021-08-05T10:54:15.082Z</time>
      </trkpt>
      <trkpt lat="46.98403" lon="8.70784">
        <ele>585</ele>
        <time>2021-08-05T10:54:16.081Z</time>
      </trkpt>
      <trkpt lat="46.98402" lon="8.70785">
        <ele>585</ele>
        <time>2021-08-05T10:54:17.082Z</time>
      </trkpt>
      <trkpt lat="46.98402" lon="8.70786">
        <ele>585</ele>
        <time>2021-08-05T10:54:18.082Z</time>
      </trkpt>
      <trkpt lat="46.98401" lon="8.70787">
        <ele>585</ele>
        <time>2021-08-05T10:54:19.082Z</time>
      </trkpt>
      <trkpt lat="46.984" lon="8.70788">
        <ele>586</ele>
        <time>2021-08-05T10:54:20.081Z</time>
      </trkpt>
      <trkpt lat="46.984" lon="8.7079">
        <ele>586</ele>
        <time>2021-08-05T10:54:21.082Z</time>
      </trkpt>
      <trkpt lat="46.98399" lon="8.70792">
        <ele>586</ele>
        <time>2021-08-05T10:54:22.082Z</time>
      </trkpt>
      <trkpt lat="46.98398" lon="8.70793">
        <ele>586</ele>
        <time>2021-08-05T10:54:23.082Z</time>
      </trkpt>
      <trkpt lat="46.98397" lon="8.70794">
        <ele>586</ele>
        <time>2021-08-05T10:54:24.082Z</time>
      </trkpt>
      <trkpt lat="46.98396" lon="8.70794">
        <ele>586</ele>
        <time>2021-08-05T10:54:25.081Z</time>
      </trkpt>
      <trkpt lat="46.98395" lon="8.70796">
        <ele>586</ele>
        <time>2021-08-05T10:54:26.082Z</time>
      </trkpt>
      <trkpt lat="46.98394" lon="8.70797">
        <ele>586</ele>
        <time>2021-08-05T10:54:27.081Z</time>
      </trkpt>
      <trkpt lat="46.98392" lon="8.70798">
        <ele>586</ele>
        <time>2021-08-05T10:54:28.081Z</time>
      </trkpt>
      <trkpt lat="46.98391" lon="8.708">
        <ele>586</ele>
        <time>2021-08-05T10:54:29.082Z</time>
      </trkpt>
      <trkpt lat="46.9839" lon="8.70802">
        <ele>586</ele>
        <time>2021-08-05T10:54:30.082Z</time>
      </trkpt>
      <trkpt lat="46.98389" lon="8.70803">
        <ele>586</ele>
        <time>2021-08-05T10:54:31.082Z</time>
      </trkpt>
      <trkpt lat="46.98388" lon="8.70805">
        <ele>586</ele>
        <time>2021-08-05T10:54:32.082Z</time>
      </trkpt>
      <trkpt lat="46.98387" lon="8.70808">
        <ele>586</ele>
        <time>2021-08-05T10:54:33.082Z</time>
      </trkpt>
      <trkpt lat="46.98386" lon="8.7081">
        <ele>586</ele>
        <time>2021-08-05T10:54:34.082Z</time>
      </trkpt>
      <trkpt lat="46.98385" lon="8.70812">
        <ele>586</ele>
        <time>2021-08-05T10:54:35.082Z</time>
      </trkpt>
      <trkpt lat="46.98384" lon="8.70815">
        <ele>586</ele>
        <time>2021-08-05T10:54:36.082Z</time>
      </trkpt>
      <trkpt lat="46.98383" lon="8.70816">
        <ele>585</ele>
        <time>2021-08-05T10:54:37.082Z</time>
      </trkpt>
      <trkpt lat="46.98381" lon="8.70818">
        <ele>585</ele>
        <time>2021-08-05T10:54:38.082Z</time>
      </trkpt>
      <trkpt lat="46.9838" lon="8.70819">
        <ele>585</ele>
        <time>2021-08-05T10:54:39.082Z</time>
      </trkpt>
      <trkpt lat="46.98379" lon="8.7082">
        <ele>585</ele>
        <time>2021-08-05T10:54:40.082Z</time>
      </trkpt>
      <trkpt lat="46.98378" lon="8.70821">
        <ele>585</ele>
        <time>2021-08-05T10:54:41.081Z</time>
      </trkpt>
      <trkpt lat="46.98377" lon="8.70822">
        <ele>584</ele>
        <time>2021-08-05T10:54:42.081Z</time>
      </trkpt>
      <trkpt lat="46.98376" lon="8.70823">
        <ele>584</ele>
        <time>2021-08-05T10:54:43.082Z</time>
      </trkpt>
      <trkpt lat="46.98375" lon="8.70824">
        <ele>584</ele>
        <time>2021-08-05T10:54:44.082Z</time>
      </trkpt>
      <trkpt lat="46.98374" lon="8.70825">
        <ele>585</ele>
        <time>2021-08-05T10:54:45.082Z</time>
      </trkpt>
      <trkpt lat="46.98373" lon="8.70827">
        <ele>585</ele>
        <time>2021-08-05T10:54:46.081Z</time>
      </trkpt>
      <trkpt lat="46.98372" lon="8.70827">
        <ele>585</ele>
        <time>2021-08-05T10:54:47.081Z</time>
      </trkpt>
      <trkpt lat="46.98371" lon="8.70828">
        <ele>585</ele>
        <time>2021-08-05T10:54:48.081Z</time>
      </trkpt>
      <trkpt lat="46.9837" lon="8.70829">
        <ele>585</ele>
        <time>2021-08-05T10:54:49.081Z</time>
      </trkpt>
      <trkpt lat="46.98369" lon="8.70829">
        <ele>585</ele>
        <time>2021-08-05T10:54:50.082Z</time>
      </trkpt>
      <trkpt lat="46.98368" lon="8.7083">
        <ele>585</ele>
        <time>2021-08-05T10:54:51.081Z</time>
      </trkpt>
      <trkpt lat="46.98367" lon="8.7083">
        <ele>585</ele>
        <time>2021-08-05T10:54:52.082Z</time>
      </trkpt>
      <trkpt lat="46.98366" lon="8.70831">
        <ele>584</ele>
        <time>2021-08-05T10:54:53.082Z</time>
      </trkpt>
      <trkpt lat="46.98366" lon="8.70832">
        <ele>583</ele>
        <time>2021-08-05T10:54:54.081Z</time>
      </trkpt>
      <trkpt lat="46.98365" lon="8.70833">
        <ele>583</ele>
        <time>2021-08-05T10:54:55.082Z</time>
      </trkpt>
      <trkpt lat="46.98363" lon="8.70834">
        <ele>583</ele>
        <time>2021-08-05T10:54:56.081Z</time>
      </trkpt>
      <trkpt lat="46.98362" lon="8.70836">
        <ele>583</ele>
        <time>2021-08-05T10:54:57.082Z</time>
      </trkpt>
      <trkpt lat="46.98361" lon="8.70837">
        <ele>582</ele>
        <time>2021-08-05T10:54:58.081Z</time>
      </trkpt>
      <trkpt lat="46.9836" lon="8.70839">
        <ele>582</ele>
        <time>2021-08-05T10:54:59.082Z</time>
      </trkpt>
      <trkpt lat="46.98359" lon="8.7084">
        <ele>581</ele>
        <time>2021-08-05T10:55:00.082Z</time>
      </trkpt>
      <trkpt lat="46.98358" lon="8.70842">
        <ele>581</ele>
        <time>2021-08-05T10:55:01.081Z</time>
      </trkpt>
      <trkpt lat="46.98357" lon="8.70843">
        <ele>580</ele>
        <time>2021-08-05T10:55:02.082Z</time>
      </trkpt>
      <trkpt lat="46.98356" lon="8.70844">
        <ele>579</ele>
        <time>2021-08-05T10:55:03.082Z</time>
      </trkpt>
      <trkpt lat="46.98355" lon="8.70845">
        <ele>579</ele>
        <time>2021-08-05T10:55:04.082Z</time>
      </trkpt>
      <trkpt lat="46.98354" lon="8.70846">
        <ele>579</ele>
        <time>2021-08-05T10:55:05.082Z</time>
      </trkpt>
      <trkpt lat="46.98353" lon="8.70848">
        <ele>579</ele>
        <time>2021-08-05T10:55:06.081Z</time>
      </trkpt>
      <trkpt lat="46.98352" lon="8.70849">
        <ele>579</ele>
        <time>2021-08-05T10:55:07.081Z</time>
      </trkpt>
      <trkpt lat="46.98351" lon="8.7085">
        <ele>579</ele>
        <time>2021-08-05T10:55:08.082Z</time>
      </trkpt>
      <trkpt lat="46.9835" lon="8.70851">
        <ele>579</ele>
        <time>2021-08-05T10:55:09.082Z</time>
      </trkpt>
      <trkpt lat="46.98349" lon="8.70852">
        <ele>579</ele>
        <time>2021-08-05T10:55:10.082Z</time>
      </trkpt>
      <trkpt lat="46.98348" lon="8.70853">
        <ele>579</ele>
        <time>2021-08-05T10:55:11.082Z</time>
      </trkpt>
      <trkpt lat="46.98348" lon="8.70854">
        <ele>579</ele>
        <time>2021-08-05T10:55:12.081Z</time>
      </trkpt>
      <trkpt lat="46.98348" lon="8.70856">
        <ele>579</ele>
        <time>2021-08-05T10:55:13.082Z</time>
      </trkpt>
      <trkpt lat="46.98347" lon="8.70857">
        <ele>579</ele>
        <time>2021-08-05T10:55:14.082Z</time>
      </trkpt>
      <trkpt lat="46.98347" lon="8.70857">
        <ele>578</ele>
        <time>2021-08-05T10:55:15.082Z</time>
      </trkpt>
      <trkpt lat="46.98347" lon="8.70858">
        <ele>578</ele>
        <time>2021-08-05T10:55:16.082Z</time>
      </trkpt>
      <trkpt lat="46.98347" lon="8.70858">
        <ele>578</ele>
        <time>2021-08-05T10:55:17.082Z</time>
      </trkpt>
      <trkpt lat="46.98347" lon="8.70858">
        <ele>578</ele>
        <time>2021-08-05T10:55:18.082Z</time>
      </trkpt>
      <trkpt lat="46.98348" lon="8.70859">
        <ele>576</ele>
        <time>2021-08-05T10:55:19.082Z</time>
      </trkpt>
      <trkpt lat="46.98348" lon="8.70862">
        <ele>573</ele>
        <time>2021-08-05T10:55:20.082Z</time>
      </trkpt>
      <trkpt lat="46.98348" lon="8.70863">
        <ele>573</ele>
        <time>2021-08-05T10:55:21.081Z</time>
      </trkpt>
      <trkpt lat="46.98346" lon="8.70862">
        <ele>570</ele>
        <time>2021-08-05T10:55:22.082Z</time>
      </trkpt>
      <trkpt lat="46.98347" lon="8.70863">
        <ele>570</ele>
        <time>2021-08-05T10:55:23.081Z</time>
      </trkpt>
      <trkpt lat="46.98347" lon="8.70864">
        <ele>570</ele>
        <time>2021-08-05T10:55:24.082Z</time>
      </trkpt>
      <trkpt lat="46.98347" lon="8.70864">
        <ele>570</ele>
        <time>2021-08-05T10:55:25.082Z</time>
      </trkpt>
      <trkpt lat="46.98346" lon="8.70866">
        <ele>570</ele>
        <time>2021-08-05T10:55:26.081Z</time>
      </trkpt>
      <trkpt lat="46.98345" lon="8.70867">
        <ele>571</ele>
        <time>2021-08-05T10:55:27.082Z</time>
      </trkpt>
      <trkpt lat="46.98345" lon="8.70868">
        <ele>571</ele>
        <time>2021-08-05T10:55:28.082Z</time>
      </trkpt>
      <trkpt lat="46.98344" lon="8.70868">
        <ele>571</ele>
        <time>2021-08-05T10:55:29.082Z</time>
      </trkpt>
      <trkpt lat="46.98344" lon="8.70869">
        <ele>571</ele>
        <time>2021-08-05T10:55:30.082Z</time>
      </trkpt>
      <trkpt lat="46.98344" lon="8.70869">
        <ele>572</ele>
        <time>2021-08-05T10:55:31.081Z</time>
      </trkpt>
      <trkpt lat="46.98343" lon="8.7087">
        <ele>573</ele>
        <time>2021-08-05T10:55:32.082Z</time>
      </trkpt>
      <trkpt lat="46.98343" lon="8.70871">
        <ele>573</ele>
        <time>2021-08-05T10:55:33.082Z</time>
      </trkpt>
      <trkpt lat="46.98343" lon="8.70871">
        <ele>573</ele>
        <time>2021-08-05T10:55:34.081Z</time>
      </trkpt>
      <trkpt lat="46.98342" lon="8.70864">
        <ele>570</ele>
        <time>2021-08-05T10:55:35.082Z</time>
      </trkpt>
      <trkpt lat="46.98342" lon="8.70864">
        <ele>570</ele>
        <time>2021-08-05T10:55:36.081Z</time>
      </trkpt>
      <trkpt lat="46.98343" lon="8.70865">
        <ele>570</ele>
        <time>2021-08-05T10:55:37.081Z</time>
      </trkpt>
      <trkpt lat="46.98342" lon="8.70866">
        <ele>571</ele>
        <time>2021-08-05T10:55:38.081Z</time>
      </trkpt>
      <trkpt lat="46.98341" lon="8.70866">
        <ele>572</ele>
        <time>2021-08-05T10:55:39.082Z</time>
      </trkpt>
      <trkpt lat="46.98341" lon="8.70867">
        <ele>573</ele>
        <time>2021-08-05T10:55:40.081Z</time>
      </trkpt>
      <trkpt lat="46.9834" lon="8.70868">
        <ele>574</ele>
        <time>2021-08-05T10:55:41.082Z</time>
      </trkpt>
      <trkpt lat="46.98339" lon="8.70869">
        <ele>574</ele>
        <time>2021-08-05T10:55:42.082Z</time>
      </trkpt>
      <trkpt lat="46.98339" lon="8.70869">
        <ele>575</ele>
        <time>2021-08-05T10:55:43.081Z</time>
      </trkpt>
      <trkpt lat="46.98338" lon="8.7087">
        <ele>576</ele>
        <time>2021-08-05T10:55:44.081Z</time>
      </trkpt>
      <trkpt lat="46.98338" lon="8.70871">
        <ele>576</ele>
        <time>2021-08-05T10:55:45.082Z</time>
      </trkpt>
      <trkpt lat="46.98338" lon="8.70872">
        <ele>576</ele>
        <time>2021-08-05T10:55:46.081Z</time>
      </trkpt>
      <trkpt lat="46.98337" lon="8.70873">
        <ele>576</ele>
        <time>2021-08-05T10:55:47.081Z</time>
      </trkpt>
      <trkpt lat="46.98337" lon="8.70874">
        <ele>575</ele>
        <time>2021-08-05T10:55:48.081Z</time>
      </trkpt>
      <trkpt lat="46.98336" lon="8.70875">
        <ele>575</ele>
        <time>2021-08-05T10:55:49.082Z</time>
      </trkpt>
      <trkpt lat="46.98336" lon="8.70876">
        <ele>575</ele>
        <time>2021-08-05T10:55:50.082Z</time>
      </trkpt>
      <trkpt lat="46.98335" lon="8.70877">
        <ele>574</ele>
        <time>2021-08-05T10:55:51.081Z</time>
      </trkpt>
      <trkpt lat="46.98334" lon="8.70878">
        <ele>574</ele>
        <time>2021-08-05T10:55:52.081Z</time>
      </trkpt>
      <trkpt lat="46.98333" lon="8.70879">
        <ele>573</ele>
        <time>2021-08-05T10:55:53.082Z</time>
      </trkpt>
      <trkpt lat="46.98332" lon="8.70881">
        <ele>573</ele>
        <time>2021-08-05T10:55:54.081Z</time>
      </trkpt>
      <trkpt lat="46.98331" lon="8.70882">
        <ele>573</ele>
        <time>2021-08-05T10:55:55.082Z</time>
      </trkpt>
      <trkpt lat="46.9833" lon="8.70884">
        <ele>572</ele>
        <time>2021-08-05T10:55:56.082Z</time>
      </trkpt>
      <trkpt lat="46.98328" lon="8.70886">
        <ele>572</ele>
        <time>2021-08-05T10:55:57.081Z</time>
      </trkpt>
      <trkpt lat="46.98327" lon="8.70887">
        <ele>571</ele>
        <time>2021-08-05T10:55:58.082Z</time>
      </trkpt>
      <trkpt lat="46.98326" lon="8.70889">
        <ele>571</ele>
        <time>2021-08-05T10:55:59.081Z</time>
      </trkpt>
      <trkpt lat="46.98325" lon="8.70889">
        <ele>571</ele>
        <time>2021-08-05T10:56:00.081Z</time>
      </trkpt>
      <trkpt lat="46.98324" lon="8.7089">
        <ele>571</ele>
        <time>2021-08-05T10:56:01.081Z</time>
      </trkpt>
      <trkpt lat="46.98323" lon="8.7089">
        <ele>571</ele>
        <time>2021-08-05T10:56:02.081Z</time>
      </trkpt>
      <trkpt lat="46.98322" lon="8.70891">
        <ele>571</ele>
        <time>2021-08-05T10:56:03.081Z</time>
      </trkpt>
      <trkpt lat="46.98321" lon="8.70892">
        <ele>571</ele>
        <time>2021-08-05T10:56:04.082Z</time>
      </trkpt>
      <trkpt lat="46.98319" lon="8.70893">
        <ele>572</ele>
        <time>2021-08-05T10:56:05.081Z</time>
      </trkpt>
      <trkpt lat="46.98319" lon="8.70894">
        <ele>572</ele>
        <time>2021-08-05T10:56:06.082Z</time>
      </trkpt>
      <trkpt lat="46.98319" lon="8.70894">
        <ele>572</ele>
        <time>2021-08-05T10:56:07.082Z</time>
      </trkpt>
      <trkpt lat="46.98318" lon="8.70895">
        <ele>572</ele>
        <time>2021-08-05T10:56:08.081Z</time>
      </trkpt>
      <trkpt lat="46.98317" lon="8.70898">
        <ele>572</ele>
        <time>2021-08-05T10:56:09.081Z</time>
      </trkpt>
      <trkpt lat="46.98316" lon="8.709">
        <ele>572</ele>
        <time>2021-08-05T10:56:10.082Z</time>
      </trkpt>
      <trkpt lat="46.98316" lon="8.70902">
        <ele>572</ele>
        <time>2021-08-05T10:56:11.081Z</time>
      </trkpt>
      <trkpt lat="46.98316" lon="8.70903">
        <ele>572</ele>
        <time>2021-08-05T10:56:12.082Z</time>
      </trkpt>
      <trkpt lat="46.98315" lon="8.70905">
        <ele>572</ele>
        <time>2021-08-05T10:56:13.081Z</time>
      </trkpt>
      <trkpt lat="46.98315" lon="8.70906">
        <ele>573</ele>
        <time>2021-08-05T10:56:14.082Z</time>
      </trkpt>
      <trkpt lat="46.98314" lon="8.70906">
        <ele>573</ele>
        <time>2021-08-05T10:56:15.082Z</time>
      </trkpt>
      <trkpt lat="46.98314" lon="8.70907">
        <ele>573</ele>
        <time>2021-08-05T10:56:16.082Z</time>
      </trkpt>
      <trkpt lat="46.98314" lon="8.70907">
        <ele>573</ele>
        <time>2021-08-05T10:56:17.082Z</time>
      </trkpt>
      <trkpt lat="46.98313" lon="8.70907">
        <ele>573</ele>
        <time>2021-08-05T10:56:18.082Z</time>
      </trkpt>
      <trkpt lat="46.98312" lon="8.70907">
        <ele>573</ele>
        <time>2021-08-05T10:56:19.082Z</time>
      </trkpt>
      <trkpt lat="46.98312" lon="8.70907">
        <ele>573</ele>
        <time>2021-08-05T10:56:20.082Z</time>
      </trkpt>
      <trkpt lat="46.98312" lon="8.70907">
        <ele>573</ele>
        <time>2021-08-05T10:56:21.081Z</time>
      </trkpt>
      <trkpt lat="46.98312" lon="8.70907">
        <ele>574</ele>
        <time>2021-08-05T10:56:22.081Z</time>
      </trkpt>
      <trkpt lat="46.98311" lon="8.70908">
        <ele>574</ele>
        <time>2021-08-05T10:56:23.082Z</time>
      </trkpt>
      <trkpt lat="46.98311" lon="8.70908">
        <ele>574</ele>
        <time>2021-08-05T10:56:24.082Z</time>
      </trkpt>
      <trkpt lat="46.98311" lon="8.7091">
        <ele>574</ele>
        <time>2021-08-05T10:56:25.082Z</time>
      </trkpt>
      <trkpt lat="46.9831" lon="8.70911">
        <ele>574</ele>
        <time>2021-08-05T10:56:26.081Z</time>
      </trkpt>
      <trkpt lat="46.9831" lon="8.70913">
        <ele>574</ele>
        <time>2021-08-05T10:56:27.081Z</time>
      </trkpt>
      <trkpt lat="46.98309" lon="8.70914">
        <ele>574</ele>
        <time>2021-08-05T10:56:28.082Z</time>
      </trkpt>
      <trkpt lat="46.98308" lon="8.70915">
        <ele>574</ele>
        <time>2021-08-05T10:56:44.218Z</time>
      </trkpt>
      <trkpt lat="46.98308" lon="8.70916">
        <ele>574</ele>
        <time>2021-08-05T10:56:45.218Z</time>
      </trkpt>
      <trkpt lat="46.98307" lon="8.70918">
        <ele>574</ele>
        <time>2021-08-05T10:56:46.218Z</time>
      </trkpt>
      <trkpt lat="46.98307" lon="8.7092">
        <ele>573</ele>
        <time>2021-08-05T10:57:32.307Z</time>
      </trkpt>
      <trkpt lat="46.98307" lon="8.70923">
        <ele>572</ele>
        <time>2021-08-05T10:57:33.307Z</time>
      </trkpt>
      <trkpt lat="46.98307" lon="8.70924">
        <ele>571</ele>
        <time>2021-08-05T10:57:34.307Z</time>
      </trkpt>
      <trkpt lat="46.98308" lon="8.70924">
        <ele>571</ele>
        <time>2021-08-05T10:57:35.307Z</time>
      </trkpt>
      <trkpt lat="46.98308" lon="8.70925">
        <ele>570</ele>
        <time>2021-08-05T10:57:36.307Z</time>
      </trkpt>
      <trkpt lat="46.98308" lon="8.70926">
        <ele>569</ele>
        <time>2021-08-05T10:57:37.306Z</time>
      </trkpt>
      <trkpt lat="46.98308" lon="8.70927">
        <ele>569</ele>
        <time>2021-08-05T10:57:38.307Z</time>
      </trkpt>
      <trkpt lat="46.98308" lon="8.70928">
        <ele>568</ele>
        <time>2021-08-05T10:57:39.307Z</time>
      </trkpt>
      <trkpt lat="46.98308" lon="8.70929">
        <ele>568</ele>
        <time>2021-08-05T10:57:40.307Z</time>
      </trkpt>
      <trkpt lat="46.98307" lon="8.70931">
        <ele>567</ele>
        <time>2021-08-05T10:57:52.451Z</time>
      </trkpt>
      <trkpt lat="46.98306" lon="8.70932">
        <ele>566</ele>
        <time>2021-08-05T10:57:53.450Z</time>
      </trkpt>
      <trkpt lat="46.98306" lon="8.70934">
        <ele>566</ele>
        <time>2021-08-05T10:57:54.451Z</time>
      </trkpt>
      <trkpt lat="46.98306" lon="8.70935">
        <ele>565</ele>
        <time>2021-08-05T10:57:57.421Z</time>
      </trkpt>
      <trkpt lat="46.98306" lon="8.70937">
        <ele>564</ele>
        <time>2021-08-05T10:57:58.421Z</time>
      </trkpt>
      <trkpt lat="46.98306" lon="8.70939">
        <ele>563</ele>
        <time>2021-08-05T10:57:59.421Z</time>
      </trkpt>
      <trkpt lat="46.98306" lon="8.70941">
        <ele>563</ele>
        <time>2021-08-05T10:58:00.421Z</time>
      </trkpt>
      <trkpt lat="46.98306" lon="8.70943">
        <ele>562</ele>
        <time>2021-08-05T10:58:01.421Z</time>
      </trkpt>
      <trkpt lat="46.98305" lon="8.70945">
        <ele>562</ele>
        <time>2021-08-05T10:58:02.421Z</time>
      </trkpt>
      <trkpt lat="46.98305" lon="8.70947">
        <ele>561</ele>
        <time>2021-08-05T10:58:03.422Z</time>
      </trkpt>
      <trkpt lat="46.98305" lon="8.70948">
        <ele>560</ele>
        <time>2021-08-05T10:58:04.421Z</time>
      </trkpt>
      <trkpt lat="46.98305" lon="8.70949">
        <ele>560</ele>
        <time>2021-08-05T10:58:05.421Z</time>
      </trkpt>
      <trkpt lat="46.98306" lon="8.7095">
        <ele>559</ele>
        <time>2021-08-05T10:58:06.421Z</time>
      </trkpt>
      <trkpt lat="46.98306" lon="8.7095">
        <ele>559</ele>
        <time>2021-08-05T10:58:07.422Z</time>
      </trkpt>
      <trkpt lat="46.98306" lon="8.70951">
        <ele>558</ele>
        <time>2021-08-05T10:58:08.422Z</time>
      </trkpt>
      <trkpt lat="46.98306" lon="8.70951">
        <ele>558</ele>
        <time>2021-08-05T10:58:09.421Z</time>
      </trkpt>
      <trkpt lat="46.98307" lon="8.70952">
        <ele>558</ele>
        <time>2021-08-05T10:58:10.421Z</time>
      </trkpt>
      <trkpt lat="46.98306" lon="8.70954">
        <ele>558</ele>
        <time>2021-08-05T10:58:11.421Z</time>
      </trkpt>
      <trkpt lat="46.98306" lon="8.70955">
        <ele>558</ele>
        <time>2021-08-05T10:58:12.421Z</time>
      </trkpt>
      <trkpt lat="46.98306" lon="8.70957">
        <ele>558</ele>
        <time>2021-08-05T10:58:13.421Z</time>
      </trkpt>
      <trkpt lat="46.98306" lon="8.70958">
        <ele>558</ele>
        <time>2021-08-05T10:58:14.421Z</time>
      </trkpt>
      <trkpt lat="46.98307" lon="8.70959">
        <ele>558</ele>
        <time>2021-08-05T10:58:15.421Z</time>
      </trkpt>
      <trkpt lat="46.98307" lon="8.7096">
        <ele>558</ele>
        <time>2021-08-05T10:58:16.421Z</time>
      </trkpt>
      <trkpt lat="46.98308" lon="8.70961">
        <ele>559</ele>
        <time>2021-08-05T10:58:17.422Z</time>
      </trkpt>
      <trkpt lat="46.98308" lon="8.70962">
        <ele>560</ele>
        <time>2021-08-05T10:58:18.421Z</time>
      </trkpt>
      <trkpt lat="46.98308" lon="8.70964">
        <ele>561</ele>
        <time>2021-08-05T10:58:19.421Z</time>
      </trkpt>
      <trkpt lat="46.98307" lon="8.70965">
        <ele>562</ele>
        <time>2021-08-05T10:58:20.421Z</time>
      </trkpt>
      <trkpt lat="46.98307" lon="8.70967">
        <ele>563</ele>
        <time>2021-08-05T10:58:21.421Z</time>
      </trkpt>
      <trkpt lat="46.98306" lon="8.70968">
        <ele>564</ele>
        <time>2021-08-05T10:58:22.421Z</time>
      </trkpt>
      <trkpt lat="46.98306" lon="8.7097">
        <ele>565</ele>
        <time>2021-08-05T10:58:23.421Z</time>
      </trkpt>
      <trkpt lat="46.98305" lon="8.70971">
        <ele>565</ele>
        <time>2021-08-05T10:58:24.422Z</time>
      </trkpt>
      <trkpt lat="46.98304" lon="8.70972">
        <ele>566</ele>
        <time>2021-08-05T10:58:25.421Z</time>
      </trkpt>
      <trkpt lat="46.98304" lon="8.70972">
        <ele>566</ele>
        <time>2021-08-05T10:58:26.421Z</time>
      </trkpt>
      <trkpt lat="46.98304" lon="8.70974">
        <ele>567</ele>
        <time>2021-08-05T10:58:27.421Z</time>
      </trkpt>
      <trkpt lat="46.98304" lon="8.70974">
        <ele>567</ele>
        <time>2021-08-05T10:58:28.422Z</time>
      </trkpt>
      <trkpt lat="46.98303" lon="8.70975">
        <ele>568</ele>
        <time>2021-08-05T10:58:29.421Z</time>
      </trkpt>
      <trkpt lat="46.98303" lon="8.70976">
        <ele>568</ele>
        <time>2021-08-05T10:58:30.422Z</time>
      </trkpt>
      <trkpt lat="46.98303" lon="8.70977">
        <ele>569</ele>
        <time>2021-08-05T10:58:31.421Z</time>
      </trkpt>
      <trkpt lat="46.98303" lon="8.70978">
        <ele>570</ele>
        <time>2021-08-05T10:58:32.422Z</time>
      </trkpt>
      <trkpt lat="46.98302" lon="8.70979">
        <ele>571</ele>
        <time>2021-08-05T10:58:33.422Z</time>
      </trkpt>
      <trkpt lat="46.98302" lon="8.70981">
        <ele>572</ele>
        <time>2021-08-05T10:58:34.422Z</time>
      </trkpt>
      <trkpt lat="46.98302" lon="8.70982">
        <ele>572</ele>
        <time>2021-08-05T10:58:35.421Z</time>
      </trkpt>
      <trkpt lat="46.98302" lon="8.70984">
        <ele>572</ele>
        <time>2021-08-05T10:58:36.422Z</time>
      </trkpt>
      <trkpt lat="46.98302" lon="8.70986">
        <ele>572</ele>
        <time>2021-08-05T10:58:37.422Z</time>
      </trkpt>
      <trkpt lat="46.98301" lon="8.70987">
        <ele>572</ele>
        <time>2021-08-05T10:58:38.422Z</time>
      </trkpt>
      <trkpt lat="46.98301" lon="8.70989">
        <ele>572</ele>
        <time>2021-08-05T10:58:39.421Z</time>
      </trkpt>
      <trkpt lat="46.983" lon="8.70991">
        <ele>571</ele>
        <time>2021-08-05T10:58:40.421Z</time>
      </trkpt>
      <trkpt lat="46.98299" lon="8.70992">
        <ele>571</ele>
        <time>2021-08-05T10:58:41.421Z</time>
      </trkpt>
      <trkpt lat="46.98298" lon="8.70994">
        <ele>571</ele>
        <time>2021-08-05T10:58:42.422Z</time>
      </trkpt>
      <trkpt lat="46.98297" lon="8.70997">
        <ele>570</ele>
        <time>2021-08-05T10:58:43.421Z</time>
      </trkpt>
      <trkpt lat="46.98296" lon="8.70998">
        <ele>570</ele>
        <time>2021-08-05T10:58:44.422Z</time>
      </trkpt>
      <trkpt lat="46.98295" lon="8.70999">
        <ele>570</ele>
        <time>2021-08-05T10:58:45.422Z</time>
      </trkpt>
      <trkpt lat="46.98295" lon="8.71">
        <ele>570</ele>
        <time>2021-08-05T10:58:46.422Z</time>
      </trkpt>
      <trkpt lat="46.98294" lon="8.71001">
        <ele>570</ele>
        <time>2021-08-05T10:58:47.422Z</time>
      </trkpt>
      <trkpt lat="46.98293" lon="8.71003">
        <ele>570</ele>
        <time>2021-08-05T10:58:48.421Z</time>
      </trkpt>
      <trkpt lat="46.98293" lon="8.71004">
        <ele>570</ele>
        <time>2021-08-05T10:58:49.422Z</time>
      </trkpt>
      <trkpt lat="46.98292" lon="8.71005">
        <ele>570</ele>
        <time>2021-08-05T10:58:50.422Z</time>
      </trkpt>
      <trkpt lat="46.9829" lon="8.71008">
        <ele>570</ele>
        <time>2021-08-05T10:58:51.422Z</time>
      </trkpt>
      <trkpt lat="46.98289" lon="8.71011">
        <ele>569</ele>
        <time>2021-08-05T10:58:52.422Z</time>
      </trkpt>
      <trkpt lat="46.98289" lon="8.71013">
        <ele>569</ele>
        <time>2021-08-05T10:58:53.422Z</time>
      </trkpt>
      <trkpt lat="46.98287" lon="8.71016">
        <ele>568</ele>
        <time>2021-08-05T10:58:54.422Z</time>
      </trkpt>
      <trkpt lat="46.98286" lon="8.71018">
        <ele>567</ele>
        <time>2021-08-05T10:58:55.422Z</time>
      </trkpt>
      <trkpt lat="46.98285" lon="8.7102">
        <ele>566</ele>
        <time>2021-08-05T10:58:56.422Z</time>
      </trkpt>
      <trkpt lat="46.98285" lon="8.71021">
        <ele>566</ele>
        <time>2021-08-05T10:58:57.421Z</time>
      </trkpt>
      <trkpt lat="46.98285" lon="8.71023">
        <ele>565</ele>
        <time>2021-08-05T10:58:58.422Z</time>
      </trkpt>
      <trkpt lat="46.98285" lon="8.71024">
        <ele>565</ele>
        <time>2021-08-05T10:58:59.422Z</time>
      </trkpt>
      <trkpt lat="46.98284" lon="8.71026">
        <ele>564</ele>
        <time>2021-08-05T10:59:00.422Z</time>
      </trkpt>
      <trkpt lat="46.98283" lon="8.71027">
        <ele>564</ele>
        <time>2021-08-05T10:59:01.421Z</time>
      </trkpt>
      <trkpt lat="46.98282" lon="8.71028">
        <ele>564</ele>
        <time>2021-08-05T10:59:02.422Z</time>
      </trkpt>
      <trkpt lat="46.98282" lon="8.7103">
        <ele>565</ele>
        <time>2021-08-05T10:59:03.422Z</time>
      </trkpt>
      <trkpt lat="46.98282" lon="8.71032">
        <ele>566</ele>
        <time>2021-08-05T10:59:04.422Z</time>
      </trkpt>
      <trkpt lat="46.98282" lon="8.71034">
        <ele>567</ele>
        <time>2021-08-05T10:59:05.421Z</time>
      </trkpt>
      <trkpt lat="46.98281" lon="8.71036">
        <ele>567</ele>
        <time>2021-08-05T10:59:06.422Z</time>
      </trkpt>
      <trkpt lat="46.9828" lon="8.71037">
        <ele>568</ele>
        <time>2021-08-05T10:59:07.422Z</time>
      </trkpt>
      <trkpt lat="46.98279" lon="8.71039">
        <ele>568</ele>
        <time>2021-08-05T10:59:08.422Z</time>
      </trkpt>
      <trkpt lat="46.98279" lon="8.7104">
        <ele>569</ele>
        <time>2021-08-05T10:59:09.421Z</time>
      </trkpt>
      <trkpt lat="46.98279" lon="8.71042">
        <ele>569</ele>
        <time>2021-08-05T10:59:10.421Z</time>
      </trkpt>
      <trkpt lat="46.98278" lon="8.71043">
        <ele>569</ele>
        <time>2021-08-05T10:59:11.422Z</time>
      </trkpt>
      <trkpt lat="46.98278" lon="8.71045">
        <ele>569</ele>
        <time>2021-08-05T10:59:12.422Z</time>
      </trkpt>
      <trkpt lat="46.98278" lon="8.71047">
        <ele>570</ele>
        <time>2021-08-05T10:59:13.422Z</time>
      </trkpt>
      <trkpt lat="46.98278" lon="8.71049">
        <ele>570</ele>
        <time>2021-08-05T10:59:14.421Z</time>
      </trkpt>
      <trkpt lat="46.98278" lon="8.71051">
        <ele>569</ele>
        <time>2021-08-05T10:59:15.421Z</time>
      </trkpt>
      <trkpt lat="46.98278" lon="8.71053">
        <ele>569</ele>
        <time>2021-08-05T10:59:16.421Z</time>
      </trkpt>
      <trkpt lat="46.98278" lon="8.71055">
        <ele>570</ele>
        <time>2021-08-05T10:59:17.421Z</time>
      </trkpt>
      <trkpt lat="46.98278" lon="8.71056">
        <ele>570</ele>
        <time>2021-08-05T10:59:18.422Z</time>
      </trkpt>
      <trkpt lat="46.98278" lon="8.71058">
        <ele>570</ele>
        <time>2021-08-05T10:59:19.422Z</time>
      </trkpt>
      <trkpt lat="46.98279" lon="8.71061">
        <ele>570</ele>
        <time>2021-08-05T10:59:20.422Z</time>
      </trkpt>
      <trkpt lat="46.98279" lon="8.71062">
        <ele>570</ele>
        <time>2021-08-05T10:59:21.422Z</time>
      </trkpt>
      <trkpt lat="46.9828" lon="8.71064">
        <ele>570</ele>
        <time>2021-08-05T10:59:22.422Z</time>
      </trkpt>
      <trkpt lat="46.9828" lon="8.71066">
        <ele>570</ele>
        <time>2021-08-05T10:59:23.421Z</time>
      </trkpt>
      <trkpt lat="46.98281" lon="8.71068">
        <ele>571</ele>
        <time>2021-08-05T10:59:24.422Z</time>
      </trkpt>
      <trkpt lat="46.98281" lon="8.71069">
        <ele>571</ele>
        <time>2021-08-05T10:59:25.422Z</time>
      </trkpt>
      <trkpt lat="46.98282" lon="8.71071">
        <ele>572</ele>
        <time>2021-08-05T10:59:26.422Z</time>
      </trkpt>
      <trkpt lat="46.98282" lon="8.71072">
        <ele>572</ele>
        <time>2021-08-05T10:59:27.421Z</time>
      </trkpt>
      <trkpt lat="46.98282" lon="8.71073">
        <ele>572</ele>
        <time>2021-08-05T10:59:28.422Z</time>
      </trkpt>
      <trkpt lat="46.98282" lon="8.71074">
        <ele>572</ele>
        <time>2021-08-05T10:59:29.422Z</time>
      </trkpt>
      <trkpt lat="46.98281" lon="8.71074">
        <ele>573</ele>
        <time>2021-08-05T10:59:30.422Z</time>
      </trkpt>
      <trkpt lat="46.98281" lon="8.71075">
        <ele>573</ele>
        <time>2021-08-05T10:59:31.422Z</time>
      </trkpt>
      <trkpt lat="46.98281" lon="8.71076">
        <ele>573</ele>
        <time>2021-08-05T10:59:32.422Z</time>
      </trkpt>
      <trkpt lat="46.98281" lon="8.71077">
        <ele>573</ele>
        <time>2021-08-05T10:59:33.422Z</time>
      </trkpt>
      <trkpt lat="46.98264" lon="8.71087">
        <ele>574</ele>
        <time>2021-08-05T11:00:03.421Z</time>
      </trkpt>
      <trkpt lat="46.98266" lon="8.71092">
        <ele>575</ele>
        <time>2021-08-05T11:00:04.422Z</time>
      </trkpt>
      <trkpt lat="46.98265" lon="8.71095">
        <ele>575</ele>
        <time>2021-08-05T11:00:05.421Z</time>
      </trkpt>
      <trkpt lat="46.98266" lon="8.71098">
        <ele>576</ele>
        <time>2021-08-05T11:00:06.422Z</time>
      </trkpt>
      <trkpt lat="46.98266" lon="8.71101">
        <ele>576</ele>
        <time>2021-08-05T11:00:07.421Z</time>
      </trkpt>
      <trkpt lat="46.98268" lon="8.71101">
        <ele>577</ele>
        <time>2021-08-05T11:00:08.422Z</time>
      </trkpt>
      <trkpt lat="46.98269" lon="8.71102">
        <ele>577</ele>
        <time>2021-08-05T11:00:09.422Z</time>
      </trkpt>
      <trkpt lat="46.98269" lon="8.71103">
        <ele>577</ele>
        <time>2021-08-05T11:00:10.421Z</time>
      </trkpt>
      <trkpt lat="46.98269" lon="8.71104">
        <ele>577</ele>
        <time>2021-08-05T11:00:11.422Z</time>
      </trkpt>
      <trkpt lat="46.9827" lon="8.71104">
        <ele>578</ele>
        <time>2021-08-05T11:00:12.422Z</time>
      </trkpt>
      <trkpt lat="46.9827" lon="8.71105">
        <ele>578</ele>
        <time>2021-08-05T11:00:13.421Z</time>
      </trkpt>
      <trkpt lat="46.98271" lon="8.71106">
        <ele>578</ele>
        <time>2021-08-05T11:00:14.421Z</time>
      </trkpt>
      <trkpt lat="46.98272" lon="8.71107">
        <ele>578</ele>
        <time>2021-08-05T11:00:15.422Z</time>
      </trkpt>
      <trkpt lat="46.98273" lon="8.71108">
        <ele>578</ele>
        <time>2021-08-05T11:00:16.422Z</time>
      </trkpt>
      <trkpt lat="46.98273" lon="8.7111">
        <ele>578</ele>
        <time>2021-08-05T11:00:17.421Z</time>
      </trkpt>
      <trkpt lat="46.98274" lon="8.71111">
        <ele>577</ele>
        <time>2021-08-05T11:00:18.422Z</time>
      </trkpt>
      <trkpt lat="46.98275" lon="8.71111">
        <ele>577</ele>
        <time>2021-08-05T11:00:19.421Z</time>
      </trkpt>
      <trkpt lat="46.98276" lon="8.71111">
        <ele>577</ele>
        <time>2021-08-05T11:00:20.421Z</time>
      </trkpt>
      <trkpt lat="46.98276" lon="8.71112">
        <ele>577</ele>
        <time>2021-08-05T11:00:21.421Z</time>
      </trkpt>
      <trkpt lat="46.98277" lon="8.71114">
        <ele>577</ele>
        <time>2021-08-05T11:00:22.422Z</time>
      </trkpt>
      <trkpt lat="46.98277" lon="8.71115">
        <ele>576</ele>
        <time>2021-08-05T11:00:23.422Z</time>
      </trkpt>
      <trkpt lat="46.98278" lon="8.71116">
        <ele>576</ele>
        <time>2021-08-05T11:00:24.422Z</time>
      </trkpt>
      <trkpt lat="46.98278" lon="8.71118">
        <ele>576</ele>
        <time>2021-08-05T11:00:25.421Z</time>
      </trkpt>
      <trkpt lat="46.98279" lon="8.71119">
        <ele>575</ele>
        <time>2021-08-05T11:00:26.422Z</time>
      </trkpt>
      <trkpt lat="46.98279" lon="8.7112">
        <ele>575</ele>
        <time>2021-08-05T11:00:27.422Z</time>
      </trkpt>
      <trkpt lat="46.98279" lon="8.71121">
        <ele>574</ele>
        <time>2021-08-05T11:00:28.422Z</time>
      </trkpt>
      <trkpt lat="46.98279" lon="8.71122">
        <ele>574</ele>
        <time>2021-08-05T11:00:29.421Z</time>
      </trkpt>
      <trkpt lat="46.98278" lon="8.71123">
        <ele>573</ele>
        <time>2021-08-05T11:00:30.421Z</time>
      </trkpt>
      <trkpt lat="46.98278" lon="8.71124">
        <ele>573</ele>
        <time>2021-08-05T11:00:31.421Z</time>
      </trkpt>
      <trkpt lat="46.98278" lon="8.71126">
        <ele>572</ele>
        <time>2021-08-05T11:00:32.421Z</time>
      </trkpt>
      <trkpt lat="46.98278" lon="8.71127">
        <ele>572</ele>
        <time>2021-08-05T11:00:33.421Z</time>
      </trkpt>
      <trkpt lat="46.98278" lon="8.71129">
        <ele>572</ele>
        <time>2021-08-05T11:00:34.421Z</time>
      </trkpt>
      <trkpt lat="46.98277" lon="8.7113">
        <ele>571</ele>
        <time>2021-08-05T11:00:35.421Z</time>
      </trkpt>
      <trkpt lat="46.98277" lon="8.71131">
        <ele>571</ele>
        <time>2021-08-05T11:00:36.421Z</time>
      </trkpt>
      <trkpt lat="46.98277" lon="8.71133">
        <ele>570</ele>
        <time>2021-08-05T11:00:37.421Z</time>
      </trkpt>
      <trkpt lat="46.98277" lon="8.71135">
        <ele>570</ele>
        <time>2021-08-05T11:00:38.421Z</time>
      </trkpt>
      <trkpt lat="46.98278" lon="8.71137">
        <ele>570</ele>
        <time>2021-08-05T11:00:39.421Z</time>
      </trkpt>
      <trkpt lat="46.98278" lon="8.71139">
        <ele>569</ele>
        <time>2021-08-05T11:00:40.421Z</time>
      </trkpt>
      <trkpt lat="46.98278" lon="8.71141">
        <ele>569</ele>
        <time>2021-08-05T11:00:41.421Z</time>
      </trkpt>
      <trkpt lat="46.98278" lon="8.71143">
        <ele>569</ele>
        <time>2021-08-05T11:00:42.421Z</time>
      </trkpt>
      <trkpt lat="46.98277" lon="8.71145">
        <ele>569</ele>
        <time>2021-08-05T11:00:43.422Z</time>
      </trkpt>
      <trkpt lat="46.98277" lon="8.71148">
        <ele>569</ele>
        <time>2021-08-05T11:00:44.422Z</time>
      </trkpt>
      <trkpt lat="46.98277" lon="8.71149">
        <ele>569</ele>
        <time>2021-08-05T11:00:45.421Z</time>
      </trkpt>
      <trkpt lat="46.98277" lon="8.71151">
        <ele>568</ele>
        <time>2021-08-05T11:00:46.422Z</time>
      </trkpt>
      <trkpt lat="46.98278" lon="8.71153">
        <ele>569</ele>
        <time>2021-08-05T11:00:47.422Z</time>
      </trkpt>
      <trkpt lat="46.98277" lon="8.71155">
        <ele>568</ele>
        <time>2021-08-05T11:00:48.422Z</time>
      </trkpt>
      <trkpt lat="46.98278" lon="8.71156">
        <ele>568</ele>
        <time>2021-08-05T11:00:49.421Z</time>
      </trkpt>
      <trkpt lat="46.98277" lon="8.71158">
        <ele>568</ele>
        <time>2021-08-05T11:00:50.422Z</time>
      </trkpt>
      <trkpt lat="46.98277" lon="8.7116">
        <ele>568</ele>
        <time>2021-08-05T11:00:51.422Z</time>
      </trkpt>
      <trkpt lat="46.98277" lon="8.71161">
        <ele>567</ele>
        <time>2021-08-05T11:00:52.422Z</time>
      </trkpt>
      <trkpt lat="46.98278" lon="8.71162">
        <ele>567</ele>
        <time>2021-08-05T11:00:53.421Z</time>
      </trkpt>
      <trkpt lat="46.98278" lon="8.71164">
        <ele>566</ele>
        <time>2021-08-05T11:00:54.422Z</time>
      </trkpt>
      <trkpt lat="46.98277" lon="8.71165">
        <ele>566</ele>
        <time>2021-08-05T11:00:55.422Z</time>
      </trkpt>
      <trkpt lat="46.98278" lon="8.71167">
        <ele>566</ele>
        <time>2021-08-05T11:00:56.422Z</time>
      </trkpt>
      <trkpt lat="46.98278" lon="8.71168">
        <ele>565</ele>
        <time>2021-08-05T11:00:57.422Z</time>
      </trkpt>
      <trkpt lat="46.98278" lon="8.71169">
        <ele>565</ele>
        <time>2021-08-05T11:00:58.421Z</time>
      </trkpt>
      <trkpt lat="46.98278" lon="8.71171">
        <ele>565</ele>
        <time>2021-08-05T11:00:59.422Z</time>
      </trkpt>
      <trkpt lat="46.98278" lon="8.71173">
        <ele>565</ele>
        <time>2021-08-05T11:01:00.422Z</time>
      </trkpt>
      <trkpt lat="46.98279" lon="8.71175">
        <ele>565</ele>
        <time>2021-08-05T11:01:01.422Z</time>
      </trkpt>
      <trkpt lat="46.98278" lon="8.71176">
        <ele>565</ele>
        <time>2021-08-05T11:01:02.421Z</time>
      </trkpt>
      <trkpt lat="46.98278" lon="8.71178">
        <ele>565</ele>
        <time>2021-08-05T11:01:03.422Z</time>
      </trkpt>
      <trkpt lat="46.98278" lon="8.7118">
        <ele>565</ele>
        <time>2021-08-05T11:01:04.422Z</time>
      </trkpt>
      <trkpt lat="46.98278" lon="8.71182">
        <ele>565</ele>
        <time>2021-08-05T11:01:05.421Z</time>
      </trkpt>
      <trkpt lat="46.98278" lon="8.71184">
        <ele>565</ele>
        <time>2021-08-05T11:01:06.422Z</time>
      </trkpt>
      <trkpt lat="46.98279" lon="8.71186">
        <ele>565</ele>
        <time>2021-08-05T11:01:07.421Z</time>
      </trkpt>
      <trkpt lat="46.98279" lon="8.71187">
        <ele>566</ele>
        <time>2021-08-05T11:01:08.421Z</time>
      </trkpt>
      <trkpt lat="46.9828" lon="8.71189">
        <ele>566</ele>
        <time>2021-08-05T11:01:09.422Z</time>
      </trkpt>
      <trkpt lat="46.9828" lon="8.7119">
        <ele>567</ele>
        <time>2021-08-05T11:01:10.421Z</time>
      </trkpt>
      <trkpt lat="46.98281" lon="8.71191">
        <ele>567</ele>
        <time>2021-08-05T11:01:11.421Z</time>
      </trkpt>
      <trkpt lat="46.98281" lon="8.71192">
        <ele>567</ele>
        <time>2021-08-05T11:01:12.422Z</time>
      </trkpt>
      <trkpt lat="46.98281" lon="8.71193">
        <ele>568</ele>
        <time>2021-08-05T11:01:13.422Z</time>
      </trkpt>
      <trkpt lat="46.98281" lon="8.71195">
        <ele>568</ele>
        <time>2021-08-05T11:01:14.422Z</time>
      </trkpt>
      <trkpt lat="46.98282" lon="8.71197">
        <ele>568</ele>
        <time>2021-08-05T11:01:15.422Z</time>
      </trkpt>
      <trkpt lat="46.98283" lon="8.71198">
        <ele>568</ele>
        <time>2021-08-05T11:01:16.422Z</time>
      </trkpt>
      <trkpt lat="46.98283" lon="8.712">
        <ele>568</ele>
        <time>2021-08-05T11:01:17.422Z</time>
      </trkpt>
      <trkpt lat="46.98283" lon="8.71201">
        <ele>568</ele>
        <time>2021-08-05T11:01:18.422Z</time>
      </trkpt>
      <trkpt lat="46.98283" lon="8.71201">
        <ele>568</ele>
        <time>2021-08-05T11:01:19.422Z</time>
      </trkpt>
      <trkpt lat="46.98283" lon="8.71202">
        <ele>568</ele>
        <time>2021-08-05T11:01:20.422Z</time>
      </trkpt>
      <trkpt lat="46.98284" lon="8.71201">
        <ele>568</ele>
        <time>2021-08-05T11:01:21.422Z</time>
      </trkpt>
      <trkpt lat="46.98284" lon="8.71201">
        <ele>569</ele>
        <time>2021-08-05T11:01:22.422Z</time>
      </trkpt>
      <trkpt lat="46.98283" lon="8.71201">
        <ele>569</ele>
        <time>2021-08-05T11:01:23.422Z</time>
      </trkpt>
      <trkpt lat="46.98282" lon="8.712">
        <ele>570</ele>
        <time>2021-08-05T11:01:24.421Z</time>
      </trkpt>
      <trkpt lat="46.98282" lon="8.712">
        <ele>571</ele>
        <time>2021-08-05T11:01:25.422Z</time>
      </trkpt>
      <trkpt lat="46.98281" lon="8.71201">
        <ele>571</ele>
        <time>2021-08-05T11:01:26.422Z</time>
      </trkpt>
      <trkpt lat="46.9828" lon="8.71202">
        <ele>572</ele>
        <time>2021-08-05T11:01:27.422Z</time>
      </trkpt>
      <trkpt lat="46.9828" lon="8.71204">
        <ele>573</ele>
        <time>2021-08-05T11:01:28.422Z</time>
      </trkpt>
      <trkpt lat="46.9828" lon="8.71206">
        <ele>574</ele>
        <time>2021-08-05T11:01:29.422Z</time>
      </trkpt>
      <trkpt lat="46.98279" lon="8.71208">
        <ele>575</ele>
        <time>2021-08-05T11:01:30.422Z</time>
      </trkpt>
      <trkpt lat="46.98279" lon="8.71208">
        <ele>576</ele>
        <time>2021-08-05T11:01:31.422Z</time>
      </trkpt>
      <trkpt lat="46.98278" lon="8.71209">
        <ele>576</ele>
        <time>2021-08-05T11:01:32.421Z</time>
      </trkpt>
      <trkpt lat="46.98277" lon="8.7121">
        <ele>577</ele>
        <time>2021-08-05T11:01:33.421Z</time>
      </trkpt>
      <trkpt lat="46.98276" lon="8.7121">
        <ele>577</ele>
        <time>2021-08-05T11:01:34.422Z</time>
      </trkpt>
      <trkpt lat="46.98276" lon="8.7121">
        <ele>578</ele>
        <time>2021-08-05T11:01:35.422Z</time>
      </trkpt>
      <trkpt lat="46.98275" lon="8.71211">
        <ele>578</ele>
        <time>2021-08-05T11:01:39.469Z</time>
      </trkpt>
      <trkpt lat="46.98275" lon="8.71211">
        <ele>578</ele>
        <time>2021-08-05T11:01:40.468Z</time>
      </trkpt>
      <trkpt lat="46.98274" lon="8.71212">
        <ele>578</ele>
        <time>2021-08-05T11:01:41.469Z</time>
      </trkpt>
      <trkpt lat="46.98273" lon="8.71213">
        <ele>579</ele>
        <time>2021-08-05T11:01:42.469Z</time>
      </trkpt>
      <trkpt lat="46.98273" lon="8.71215">
        <ele>579</ele>
        <time>2021-08-05T11:01:43.469Z</time>
      </trkpt>
      <trkpt lat="46.98272" lon="8.71216">
        <ele>580</ele>
        <time>2021-08-05T11:01:44.469Z</time>
      </trkpt>
      <trkpt lat="46.98272" lon="8.71216">
        <ele>582</ele>
        <time>2021-08-05T11:01:45.468Z</time>
      </trkpt>
      <trkpt lat="46.98272" lon="8.71218">
        <ele>583</ele>
        <time>2021-08-05T11:01:46.469Z</time>
      </trkpt>
      <trkpt lat="46.98272" lon="8.71219">
        <ele>585</ele>
        <time>2021-08-05T11:01:47.469Z</time>
      </trkpt>
      <trkpt lat="46.98272" lon="8.71221">
        <ele>586</ele>
        <time>2021-08-05T11:01:48.468Z</time>
      </trkpt>
      <trkpt lat="46.98272" lon="8.71222">
        <ele>588</ele>
        <time>2021-08-05T11:01:49.469Z</time>
      </trkpt>
      <trkpt lat="46.98272" lon="8.71223">
        <ele>589</ele>
        <time>2021-08-05T11:01:50.469Z</time>
      </trkpt>
      <trkpt lat="46.98272" lon="8.71224">
        <ele>590</ele>
        <time>2021-08-05T11:01:51.469Z</time>
      </trkpt>
      <trkpt lat="46.98271" lon="8.71225">
        <ele>590</ele>
        <time>2021-08-05T11:01:52.469Z</time>
      </trkpt>
      <trkpt lat="46.98271" lon="8.71225">
        <ele>591</ele>
        <time>2021-08-05T11:01:53.468Z</time>
      </trkpt>
      <trkpt lat="46.98271" lon="8.71223">
        <ele>592</ele>
        <time>2021-08-05T11:01:54.468Z</time>
      </trkpt>
      <trkpt lat="46.98273" lon="8.71224">
        <ele>592</ele>
        <time>2021-08-05T11:01:55.469Z</time>
      </trkpt>
      <trkpt lat="46.98275" lon="8.71227">
        <ele>592</ele>
        <time>2021-08-05T11:01:56.469Z</time>
      </trkpt>
      <trkpt lat="46.98276" lon="8.71229">
        <ele>592</ele>
        <time>2021-08-05T11:01:57.468Z</time>
      </trkpt>
      <trkpt lat="46.98277" lon="8.71225">
        <ele>594</ele>
        <time>2021-08-05T11:01:58.469Z</time>
      </trkpt>
      <trkpt lat="46.98278" lon="8.71228">
        <ele>594</ele>
        <time>2021-08-05T11:01:59.469Z</time>
      </trkpt>
      <trkpt lat="46.98278" lon="8.71229">
        <ele>594</ele>
        <time>2021-08-05T11:02:00.470Z</time>
      </trkpt>
      <trkpt lat="46.98279" lon="8.7123">
        <ele>594</ele>
        <time>2021-08-05T11:02:01.469Z</time>
      </trkpt>
      <trkpt lat="46.98279" lon="8.71231">
        <ele>594</ele>
        <time>2021-08-05T11:02:02.470Z</time>
      </trkpt>
      <trkpt lat="46.9828" lon="8.71232">
        <ele>594</ele>
        <time>2021-08-05T11:02:03.470Z</time>
      </trkpt>
      <trkpt lat="46.98281" lon="8.71232">
        <ele>593</ele>
        <time>2021-08-05T11:02:04.470Z</time>
      </trkpt>
      <trkpt lat="46.98282" lon="8.71232">
        <ele>593</ele>
        <time>2021-08-05T11:02:05.470Z</time>
      </trkpt>
      <trkpt lat="46.98282" lon="8.71232">
        <ele>593</ele>
        <time>2021-08-05T11:02:06.470Z</time>
      </trkpt>
      <trkpt lat="46.98282" lon="8.71233">
        <ele>593</ele>
        <time>2021-08-05T11:02:07.470Z</time>
      </trkpt>
      <trkpt lat="46.98283" lon="8.71233">
        <ele>593</ele>
        <time>2021-08-05T11:02:08.469Z</time>
      </trkpt>
      <trkpt lat="46.98284" lon="8.71233">
        <ele>592</ele>
        <time>2021-08-05T11:02:09.469Z</time>
      </trkpt>
      <trkpt lat="46.98285" lon="8.71233">
        <ele>592</ele>
        <time>2021-08-05T11:02:10.470Z</time>
      </trkpt>
      <trkpt lat="46.98286" lon="8.71233">
        <ele>592</ele>
        <time>2021-08-05T11:02:11.469Z</time>
      </trkpt>
      <trkpt lat="46.98287" lon="8.71234">
        <ele>592</ele>
        <time>2021-08-05T11:02:12.470Z</time>
      </trkpt>
      <trkpt lat="46.98288" lon="8.71233">
        <ele>591</ele>
        <time>2021-08-05T11:02:13.470Z</time>
      </trkpt>
      <trkpt lat="46.98288" lon="8.71233">
        <ele>592</ele>
        <time>2021-08-05T11:02:14.470Z</time>
      </trkpt>
      <trkpt lat="46.98288" lon="8.71233">
        <ele>592</ele>
        <time>2021-08-05T11:02:15.470Z</time>
      </trkpt>
      <trkpt lat="46.98288" lon="8.71232">
        <ele>592</ele>
        <time>2021-08-05T11:02:18.599Z</time>
      </trkpt>
      <trkpt lat="46.98286" lon="8.7123">
        <ele>592</ele>
        <time>2021-08-05T11:02:19.598Z</time>
      </trkpt>
      <trkpt lat="46.98284" lon="8.71228">
        <ele>593</ele>
        <time>2021-08-05T11:02:20.599Z</time>
      </trkpt>
      <trkpt lat="46.98284" lon="8.71227">
        <ele>593</ele>
        <time>2021-08-05T11:02:21.599Z</time>
      </trkpt>
      <trkpt lat="46.98284" lon="8.71227">
        <ele>593</ele>
        <time>2021-08-05T11:02:22.599Z</time>
      </trkpt>
      <trkpt lat="46.98282" lon="8.71227">
        <ele>590</ele>
        <time>2021-08-05T11:02:23.598Z</time>
      </trkpt>
      <trkpt lat="46.98283" lon="8.71229">
        <ele>585</ele>
        <time>2021-08-05T11:02:24.599Z</time>
      </trkpt>
      <trkpt lat="46.98283" lon="8.71232">
        <ele>585</ele>
        <time>2021-08-05T11:02:25.599Z</time>
      </trkpt>
      <trkpt lat="46.98283" lon="8.71234">
        <ele>585</ele>
        <time>2021-08-05T11:02:26.598Z</time>
      </trkpt>
      <trkpt lat="46.98283" lon="8.71235">
        <ele>584</ele>
        <time>2021-08-05T11:02:27.599Z</time>
      </trkpt>
      <trkpt lat="46.98283" lon="8.71237">
        <ele>584</ele>
        <time>2021-08-05T11:02:28.598Z</time>
      </trkpt>
      <trkpt lat="46.98283" lon="8.71238">
        <ele>584</ele>
        <time>2021-08-05T11:02:29.599Z</time>
      </trkpt>
      <trkpt lat="46.98284" lon="8.71239">
        <ele>583</ele>
        <time>2021-08-05T11:02:30.598Z</time>
      </trkpt>
      <trkpt lat="46.98284" lon="8.71241">
        <ele>583</ele>
        <time>2021-08-05T11:02:31.598Z</time>
      </trkpt>
      <trkpt lat="46.98285" lon="8.71242">
        <ele>582</ele>
        <time>2021-08-05T11:02:32.598Z</time>
      </trkpt>
      <trkpt lat="46.98285" lon="8.71242">
        <ele>582</ele>
        <time>2021-08-05T11:02:33.599Z</time>
      </trkpt>
      <trkpt lat="46.98285" lon="8.71244">
        <ele>581</ele>
        <time>2021-08-05T11:02:34.599Z</time>
      </trkpt>
      <trkpt lat="46.98285" lon="8.71245">
        <ele>581</ele>
        <time>2021-08-05T11:02:35.598Z</time>
      </trkpt>
      <trkpt lat="46.98285" lon="8.71247">
        <ele>581</ele>
        <time>2021-08-05T11:02:36.598Z</time>
      </trkpt>
      <trkpt lat="46.98285" lon="8.71248">
        <ele>580</ele>
        <time>2021-08-05T11:02:37.598Z</time>
      </trkpt>
      <trkpt lat="46.98285" lon="8.71249">
        <ele>580</ele>
        <time>2021-08-05T11:02:38.599Z</time>
      </trkpt>
      <trkpt lat="46.98284" lon="8.7125">
        <ele>579</ele>
        <time>2021-08-05T11:02:39.599Z</time>
      </trkpt>
      <trkpt lat="46.98284" lon="8.7125">
        <ele>579</ele>
        <time>2021-08-05T11:02:40.598Z</time>
      </trkpt>
      <trkpt lat="46.98283" lon="8.71251">
        <ele>579</ele>
        <time>2021-08-05T11:02:41.598Z</time>
      </trkpt>
      <trkpt lat="46.98282" lon="8.71253">
        <ele>578</ele>
        <time>2021-08-05T11:02:42.598Z</time>
      </trkpt>
      <trkpt lat="46.98282" lon="8.71254">
        <ele>578</ele>
        <time>2021-08-05T11:02:43.598Z</time>
      </trkpt>
      <trkpt lat="46.98281" lon="8.71256">
        <ele>578</ele>
        <time>2021-08-05T11:02:44.598Z</time>
      </trkpt>
      <trkpt lat="46.98281" lon="8.71258">
        <ele>578</ele>
        <time>2021-08-05T11:02:45.599Z</time>
      </trkpt>
      <trkpt lat="46.98281" lon="8.71259">
        <ele>578</ele>
        <time>2021-08-05T11:02:46.598Z</time>
      </trkpt>
      <trkpt lat="46.9828" lon="8.7126">
        <ele>578</ele>
        <time>2021-08-05T11:02:47.598Z</time>
      </trkpt>
      <trkpt lat="46.9828" lon="8.71261">
        <ele>577</ele>
        <time>2021-08-05T11:02:48.599Z</time>
      </trkpt>
      <trkpt lat="46.98279" lon="8.71261">
        <ele>577</ele>
        <time>2021-08-05T11:02:49.598Z</time>
      </trkpt>
      <trkpt lat="46.9828" lon="8.71262">
        <ele>576</ele>
        <time>2021-08-05T11:02:50.598Z</time>
      </trkpt>
      <trkpt lat="46.9828" lon="8.71262">
        <ele>576</ele>
        <time>2021-08-05T11:02:51.598Z</time>
      </trkpt>
      <trkpt lat="46.98281" lon="8.71263">
        <ele>576</ele>
        <time>2021-08-05T11:02:52.598Z</time>
      </trkpt>
      <trkpt lat="46.98281" lon="8.71264">
        <ele>576</ele>
        <time>2021-08-05T11:02:53.598Z</time>
      </trkpt>
      <trkpt lat="46.98281" lon="8.71266">
        <ele>576</ele>
        <time>2021-08-05T11:02:54.599Z</time>
      </trkpt>
      <trkpt lat="46.98281" lon="8.71267">
        <ele>576</ele>
        <time>2021-08-05T11:02:55.599Z</time>
      </trkpt>
      <trkpt lat="46.9828" lon="8.71268">
        <ele>576</ele>
        <time>2021-08-05T11:02:56.599Z</time>
      </trkpt>
      <trkpt lat="46.98279" lon="8.7127">
        <ele>576</ele>
        <time>2021-08-05T11:02:57.598Z</time>
      </trkpt>
      <trkpt lat="46.98279" lon="8.71271">
        <ele>576</ele>
        <time>2021-08-05T11:02:58.599Z</time>
      </trkpt>
      <trkpt lat="46.98278" lon="8.71273">
        <ele>576</ele>
        <time>2021-08-05T11:02:59.599Z</time>
      </trkpt>
      <trkpt lat="46.98278" lon="8.71274">
        <ele>576</ele>
        <time>2021-08-05T11:03:00.599Z</time>
      </trkpt>
      <trkpt lat="46.98277" lon="8.71275">
        <ele>576</ele>
        <time>2021-08-05T11:03:01.598Z</time>
      </trkpt>
      <trkpt lat="46.98277" lon="8.71276">
        <ele>577</ele>
        <time>2021-08-05T11:03:02.599Z</time>
      </trkpt>
      <trkpt lat="46.98277" lon="8.71277">
        <ele>577</ele>
        <time>2021-08-05T11:03:03.599Z</time>
      </trkpt>
      <trkpt lat="46.98276" lon="8.71278">
        <ele>578</ele>
        <time>2021-08-05T11:03:04.598Z</time>
      </trkpt>
      <trkpt lat="46.98276" lon="8.7128">
        <ele>578</ele>
        <time>2021-08-05T11:03:05.599Z</time>
      </trkpt>
      <trkpt lat="46.98276" lon="8.71282">
        <ele>579</ele>
        <time>2021-08-05T11:03:06.599Z</time>
      </trkpt>
      <trkpt lat="46.98276" lon="8.71284">
        <ele>580</ele>
        <time>2021-08-05T11:03:07.598Z</time>
      </trkpt>
      <trkpt lat="46.98276" lon="8.71285">
        <ele>580</ele>
        <time>2021-08-05T11:03:08.599Z</time>
      </trkpt>
      <trkpt lat="46.98276" lon="8.71286">
        <ele>580</ele>
        <time>2021-08-05T11:03:09.599Z</time>
      </trkpt>
      <trkpt lat="46.98275" lon="8.71288">
        <ele>581</ele>
        <time>2021-08-05T11:03:10.598Z</time>
      </trkpt>
      <trkpt lat="46.98274" lon="8.7129">
        <ele>581</ele>
        <time>2021-08-05T11:03:11.599Z</time>
      </trkpt>
      <trkpt lat="46.98272" lon="8.71292">
        <ele>581</ele>
        <time>2021-08-05T11:03:12.598Z</time>
      </trkpt>
      <trkpt lat="46.98271" lon="8.71294">
        <ele>581</ele>
        <time>2021-08-05T11:03:13.598Z</time>
      </trkpt>
      <trkpt lat="46.98271" lon="8.71296">
        <ele>581</ele>
        <time>2021-08-05T11:03:14.599Z</time>
      </trkpt>
      <trkpt lat="46.98271" lon="8.71298">
        <ele>581</ele>
        <time>2021-08-05T11:03:15.599Z</time>
      </trkpt>
      <trkpt lat="46.9827" lon="8.71299">
        <ele>581</ele>
        <time>2021-08-05T11:03:16.599Z</time>
      </trkpt>
      <trkpt lat="46.9827" lon="8.71301">
        <ele>581</ele>
        <time>2021-08-05T11:03:17.598Z</time>
      </trkpt>
      <trkpt lat="46.98269" lon="8.71303">
        <ele>580</ele>
        <time>2021-08-05T11:03:18.599Z</time>
      </trkpt>
      <trkpt lat="46.98268" lon="8.71305">
        <ele>580</ele>
        <time>2021-08-05T11:03:19.599Z</time>
      </trkpt>
      <trkpt lat="46.98268" lon="8.71306">
        <ele>580</ele>
        <time>2021-08-05T11:03:20.599Z</time>
      </trkpt>
      <trkpt lat="46.98267" lon="8.71308">
        <ele>579</ele>
        <time>2021-08-05T11:03:21.599Z</time>
      </trkpt>
      <trkpt lat="46.98266" lon="8.71308">
        <ele>579</ele>
        <time>2021-08-05T11:03:22.599Z</time>
      </trkpt>
      <trkpt lat="46.98265" lon="8.71309">
        <ele>579</ele>
        <time>2021-08-05T11:03:23.598Z</time>
      </trkpt>
      <trkpt lat="46.98264" lon="8.71311">
        <ele>578</ele>
        <time>2021-08-05T11:03:24.598Z</time>
      </trkpt>
      <trkpt lat="46.98264" lon="8.71312">
        <ele>578</ele>
        <time>2021-08-05T11:03:25.599Z</time>
      </trkpt>
      <trkpt lat="46.98263" lon="8.71314">
        <ele>578</ele>
        <time>2021-08-05T11:03:26.598Z</time>
      </trkpt>
      <trkpt lat="46.98262" lon="8.71315">
        <ele>578</ele>
        <time>2021-08-05T11:03:27.599Z</time>
      </trkpt>
      <trkpt lat="46.9826" lon="8.71317">
        <ele>578</ele>
        <time>2021-08-05T11:03:28.598Z</time>
      </trkpt>
      <trkpt lat="46.9826" lon="8.71319">
        <ele>578</ele>
        <time>2021-08-05T11:03:29.599Z</time>
      </trkpt>
      <trkpt lat="46.9826" lon="8.7132">
        <ele>579</ele>
        <time>2021-08-05T11:03:30.599Z</time>
      </trkpt>
      <trkpt lat="46.98259" lon="8.71321">
        <ele>579</ele>
        <time>2021-08-05T11:03:31.599Z</time>
      </trkpt>
      <trkpt lat="46.98259" lon="8.71321">
        <ele>579</ele>
        <time>2021-08-05T11:03:32.598Z</time>
      </trkpt>
      <trkpt lat="46.98257" lon="8.71322">
        <ele>579</ele>
        <time>2021-08-05T11:03:33.599Z</time>
      </trkpt>
      <trkpt lat="46.98256" lon="8.71322">
        <ele>579</ele>
        <time>2021-08-05T11:03:34.599Z</time>
      </trkpt>
      <trkpt lat="46.98255" lon="8.71323">
        <ele>579</ele>
        <time>2021-08-05T11:03:35.599Z</time>
      </trkpt>
      <trkpt lat="46.98254" lon="8.71323">
        <ele>579</ele>
        <time>2021-08-05T11:03:36.598Z</time>
      </trkpt>
      <trkpt lat="46.98254" lon="8.71324">
        <ele>579</ele>
        <time>2021-08-05T11:03:37.599Z</time>
      </trkpt>
      <trkpt lat="46.98253" lon="8.71324">
        <ele>579</ele>
        <time>2021-08-05T11:03:38.598Z</time>
      </trkpt>
      <trkpt lat="46.98253" lon="8.71325">
        <ele>579</ele>
        <time>2021-08-05T11:03:39.598Z</time>
      </trkpt>
      <trkpt lat="46.98252" lon="8.71325">
        <ele>579</ele>
        <time>2021-08-05T11:03:40.599Z</time>
      </trkpt>
      <trkpt lat="46.98251" lon="8.71326">
        <ele>579</ele>
        <time>2021-08-05T11:03:41.599Z</time>
      </trkpt>
      <trkpt lat="46.98251" lon="8.71327">
        <ele>579</ele>
        <time>2021-08-05T11:03:42.599Z</time>
      </trkpt>
      <trkpt lat="46.9825" lon="8.71328">
        <ele>579</ele>
        <time>2021-08-05T11:03:43.599Z</time>
      </trkpt>
      <trkpt lat="46.98249" lon="8.7133">
        <ele>579</ele>
        <time>2021-08-05T11:03:44.599Z</time>
      </trkpt>
      <trkpt lat="46.98248" lon="8.71332">
        <ele>579</ele>
        <time>2021-08-05T11:03:45.599Z</time>
      </trkpt>
      <trkpt lat="46.98247" lon="8.71333">
        <ele>580</ele>
        <time>2021-08-05T11:03:46.598Z</time>
      </trkpt>
      <trkpt lat="46.98246" lon="8.71334">
        <ele>580</ele>
        <time>2021-08-05T11:03:47.599Z</time>
      </trkpt>
      <trkpt lat="46.98245" lon="8.71336">
        <ele>580</ele>
        <time>2021-08-05T11:03:48.599Z</time>
      </trkpt>
      <trkpt lat="46.98245" lon="8.71338">
        <ele>581</ele>
        <time>2021-08-05T11:03:49.598Z</time>
      </trkpt>
      <trkpt lat="46.98245" lon="8.7134">
        <ele>581</ele>
        <time>2021-08-05T11:03:50.599Z</time>
      </trkpt>
      <trkpt lat="46.98245" lon="8.71341">
        <ele>581</ele>
        <time>2021-08-05T11:03:51.598Z</time>
      </trkpt>
      <trkpt lat="46.98244" lon="8.71343">
        <ele>582</ele>
        <time>2021-08-05T11:03:52.598Z</time>
      </trkpt>
      <trkpt lat="46.98243" lon="8.71345">
        <ele>582</ele>
        <time>2021-08-05T11:03:53.599Z</time>
      </trkpt>
      <trkpt lat="46.98243" lon="8.71346">
        <ele>582</ele>
        <time>2021-08-05T11:03:54.599Z</time>
      </trkpt>
      <trkpt lat="46.98242" lon="8.71348">
        <ele>583</ele>
        <time>2021-08-05T11:03:55.598Z</time>
      </trkpt>
      <trkpt lat="46.98242" lon="8.7135">
        <ele>583</ele>
        <time>2021-08-05T11:03:56.598Z</time>
      </trkpt>
      <trkpt lat="46.98241" lon="8.71351">
        <ele>583</ele>
        <time>2021-08-05T11:03:57.599Z</time>
      </trkpt>
      <trkpt lat="46.98241" lon="8.71352">
        <ele>584</ele>
        <time>2021-08-05T11:03:58.599Z</time>
      </trkpt>
      <trkpt lat="46.9824" lon="8.71353">
        <ele>584</ele>
        <time>2021-08-05T11:03:59.598Z</time>
      </trkpt>
      <trkpt lat="46.9824" lon="8.71355">
        <ele>584</ele>
        <time>2021-08-05T11:04:00.599Z</time>
      </trkpt>
      <trkpt lat="46.98239" lon="8.71356">
        <ele>584</ele>
        <time>2021-08-05T11:04:01.599Z</time>
      </trkpt>
      <trkpt lat="46.98239" lon="8.71357">
        <ele>584</ele>
        <time>2021-08-05T11:04:02.599Z</time>
      </trkpt>
      <trkpt lat="46.98238" lon="8.71359">
        <ele>584</ele>
        <time>2021-08-05T11:04:03.598Z</time>
      </trkpt>
      <trkpt lat="46.98237" lon="8.71361">
        <ele>584</ele>
        <time>2021-08-05T11:04:04.598Z</time>
      </trkpt>
      <trkpt lat="46.98236" lon="8.71362">
        <ele>584</ele>
        <time>2021-08-05T11:04:05.599Z</time>
      </trkpt>
      <trkpt lat="46.98235" lon="8.71364">
        <ele>584</ele>
        <time>2021-08-05T11:04:06.598Z</time>
      </trkpt>
      <trkpt lat="46.98234" lon="8.71367">
        <ele>584</ele>
        <time>2021-08-05T11:04:07.599Z</time>
      </trkpt>
      <trkpt lat="46.98234" lon="8.71369">
        <ele>583</ele>
        <time>2021-08-05T11:04:08.599Z</time>
      </trkpt>
      <trkpt lat="46.98234" lon="8.71371">
        <ele>584</ele>
        <time>2021-08-05T11:04:09.599Z</time>
      </trkpt>
      <trkpt lat="46.98234" lon="8.71374">
        <ele>584</ele>
        <time>2021-08-05T11:04:10.599Z</time>
      </trkpt>
      <trkpt lat="46.98232" lon="8.71376">
        <ele>584</ele>
        <time>2021-08-05T11:04:11.599Z</time>
      </trkpt>
      <trkpt lat="46.98231" lon="8.71378">
        <ele>584</ele>
        <time>2021-08-05T11:04:12.598Z</time>
      </trkpt>
      <trkpt lat="46.9823" lon="8.7138">
        <ele>584</ele>
        <time>2021-08-05T11:04:13.598Z</time>
      </trkpt>
      <trkpt lat="46.98229" lon="8.71382">
        <ele>584</ele>
        <time>2021-08-05T11:04:14.598Z</time>
      </trkpt>
      <trkpt lat="46.98228" lon="8.71384">
        <ele>584</ele>
        <time>2021-08-05T11:04:15.599Z</time>
      </trkpt>
      <trkpt lat="46.98228" lon="8.71386">
        <ele>585</ele>
        <time>2021-08-05T11:04:16.599Z</time>
      </trkpt>
      <trkpt lat="46.98228" lon="8.71388">
        <ele>585</ele>
        <time>2021-08-05T11:04:17.599Z</time>
      </trkpt>
      <trkpt lat="46.98227" lon="8.7139">
        <ele>585</ele>
        <time>2021-08-05T11:04:18.599Z</time>
      </trkpt>
      <trkpt lat="46.98226" lon="8.71392">
        <ele>586</ele>
        <time>2021-08-05T11:04:19.599Z</time>
      </trkpt>
      <trkpt lat="46.98224" lon="8.71393">
        <ele>586</ele>
        <time>2021-08-05T11:04:26.729Z</time>
      </trkpt>
      <trkpt lat="46.98223" lon="8.71394">
        <ele>586</ele>
        <time>2021-08-05T11:04:27.729Z</time>
      </trkpt>
      <trkpt lat="46.98222" lon="8.71396">
        <ele>585</ele>
        <time>2021-08-05T11:04:28.729Z</time>
      </trkpt>
      <trkpt lat="46.98221" lon="8.71399">
        <ele>585</ele>
        <time>2021-08-05T11:04:29.729Z</time>
      </trkpt>
      <trkpt lat="46.9822" lon="8.71401">
        <ele>585</ele>
        <time>2021-08-05T11:04:30.729Z</time>
      </trkpt>
      <trkpt lat="46.98219" lon="8.71403">
        <ele>585</ele>
        <time>2021-08-05T11:04:31.729Z</time>
      </trkpt>
      <trkpt lat="46.98218" lon="8.71404">
        <ele>585</ele>
        <time>2021-08-05T11:04:32.729Z</time>
      </trkpt>
      <trkpt lat="46.98217" lon="8.71406">
        <ele>585</ele>
        <time>2021-08-05T11:04:33.729Z</time>
      </trkpt>
      <trkpt lat="46.98216" lon="8.71407">
        <ele>585</ele>
        <time>2021-08-05T11:04:34.729Z</time>
      </trkpt>
      <trkpt lat="46.98216" lon="8.71408">
        <ele>585</ele>
        <time>2021-08-05T11:04:35.729Z</time>
      </trkpt>
      <trkpt lat="46.98215" lon="8.7141">
        <ele>585</ele>
        <time>2021-08-05T11:04:36.729Z</time>
      </trkpt>
      <trkpt lat="46.98214" lon="8.71411">
        <ele>585</ele>
        <time>2021-08-05T11:04:37.728Z</time>
      </trkpt>
      <trkpt lat="46.98213" lon="8.71413">
        <ele>585</ele>
        <time>2021-08-05T11:04:38.728Z</time>
      </trkpt>
      <trkpt lat="46.98212" lon="8.71414">
        <ele>585</ele>
        <time>2021-08-05T11:04:39.729Z</time>
      </trkpt>
      <trkpt lat="46.98212" lon="8.71416">
        <ele>586</ele>
        <time>2021-08-05T11:04:40.728Z</time>
      </trkpt>
      <trkpt lat="46.98211" lon="8.71418">
        <ele>586</ele>
        <time>2021-08-05T11:04:41.728Z</time>
      </trkpt>
      <trkpt lat="46.98211" lon="8.71421">
        <ele>586</ele>
        <time>2021-08-05T11:04:42.728Z</time>
      </trkpt>
      <trkpt lat="46.9821" lon="8.71422">
        <ele>586</ele>
        <time>2021-08-05T11:04:43.729Z</time>
      </trkpt>
      <trkpt lat="46.9821" lon="8.71424">
        <ele>587</ele>
        <time>2021-08-05T11:04:44.728Z</time>
      </trkpt>
      <trkpt lat="46.98209" lon="8.71426">
        <ele>587</ele>
        <time>2021-08-05T11:04:45.728Z</time>
      </trkpt>
      <trkpt lat="46.98208" lon="8.71427">
        <ele>587</ele>
        <time>2021-08-05T11:04:46.728Z</time>
      </trkpt>
      <trkpt lat="46.98208" lon="8.71429">
        <ele>587</ele>
        <time>2021-08-05T11:04:47.729Z</time>
      </trkpt>
      <trkpt lat="46.98207" lon="8.7143">
        <ele>587</ele>
        <time>2021-08-05T11:04:48.729Z</time>
      </trkpt>
      <trkpt lat="46.98206" lon="8.71432">
        <ele>587</ele>
        <time>2021-08-05T11:04:49.728Z</time>
      </trkpt>
      <trkpt lat="46.98206" lon="8.71433">
        <ele>587</ele>
        <time>2021-08-05T11:04:50.728Z</time>
      </trkpt>
      <trkpt lat="46.98205" lon="8.71434">
        <ele>587</ele>
        <time>2021-08-05T11:04:51.728Z</time>
      </trkpt>
      <trkpt lat="46.98204" lon="8.71435">
        <ele>587</ele>
        <time>2021-08-05T11:04:52.729Z</time>
      </trkpt>
      <trkpt lat="46.98203" lon="8.71436">
        <ele>586</ele>
        <time>2021-08-05T11:04:54.788Z</time>
      </trkpt>
      <trkpt lat="46.98203" lon="8.71437">
        <ele>586</ele>
        <time>2021-08-05T11:04:55.788Z</time>
      </trkpt>
      <trkpt lat="46.98202" lon="8.71439">
        <ele>586</ele>
        <time>2021-08-05T11:04:56.789Z</time>
      </trkpt>
      <trkpt lat="46.98201" lon="8.7144">
        <ele>586</ele>
        <time>2021-08-05T11:04:57.789Z</time>
      </trkpt>
      <trkpt lat="46.982" lon="8.71442">
        <ele>586</ele>
        <time>2021-08-05T11:04:58.789Z</time>
      </trkpt>
      <trkpt lat="46.982" lon="8.71443">
        <ele>586</ele>
        <time>2021-08-05T11:04:59.789Z</time>
      </trkpt>
      <trkpt lat="46.98199" lon="8.71445">
        <ele>587</ele>
        <time>2021-08-05T11:05:02.914Z</time>
      </trkpt>
      <trkpt lat="46.98198" lon="8.71446">
        <ele>587</ele>
        <time>2021-08-05T11:05:03.914Z</time>
      </trkpt>
      <trkpt lat="46.98197" lon="8.71448">
        <ele>587</ele>
        <time>2021-08-05T11:05:04.914Z</time>
      </trkpt>
      <trkpt lat="46.98197" lon="8.71449">
        <ele>587</ele>
        <time>2021-08-05T11:05:05.914Z</time>
      </trkpt>
      <trkpt lat="46.98196" lon="8.71451">
        <ele>587</ele>
        <time>2021-08-05T11:05:12.920Z</time>
      </trkpt>
      <trkpt lat="46.98195" lon="8.71453">
        <ele>587</ele>
        <time>2021-08-05T11:05:13.920Z</time>
      </trkpt>
      <trkpt lat="46.98194" lon="8.71455">
        <ele>587</ele>
        <time>2021-08-05T11:05:14.919Z</time>
      </trkpt>
      <trkpt lat="46.98194" lon="8.71456">
        <ele>587</ele>
        <time>2021-08-05T11:05:15.919Z</time>
      </trkpt>
      <trkpt lat="46.98193" lon="8.71458">
        <ele>587</ele>
        <time>2021-08-05T11:05:16.920Z</time>
      </trkpt>
      <trkpt lat="46.98192" lon="8.7146">
        <ele>587</ele>
        <time>2021-08-05T11:05:17.920Z</time>
      </trkpt>
      <trkpt lat="46.98191" lon="8.71461">
        <ele>588</ele>
        <time>2021-08-05T11:05:18.920Z</time>
      </trkpt>
      <trkpt lat="46.9819" lon="8.71463">
        <ele>588</ele>
        <time>2021-08-05T11:05:19.920Z</time>
      </trkpt>
      <trkpt lat="46.9819" lon="8.71464">
        <ele>588</ele>
        <time>2021-08-05T11:05:23.916Z</time>
      </trkpt>
      <trkpt lat="46.98189" lon="8.71466">
        <ele>589</ele>
        <time>2021-08-05T11:05:24.916Z</time>
      </trkpt>
      <trkpt lat="46.98188" lon="8.71469">
        <ele>589</ele>
        <time>2021-08-05T11:05:25.916Z</time>
      </trkpt>
      <trkpt lat="46.98187" lon="8.7147">
        <ele>589</ele>
        <time>2021-08-05T11:05:26.916Z</time>
      </trkpt>
      <trkpt lat="46.98186" lon="8.71472">
        <ele>590</ele>
        <time>2021-08-05T11:05:27.916Z</time>
      </trkpt>
      <trkpt lat="46.98186" lon="8.71473">
        <ele>590</ele>
        <time>2021-08-05T11:05:41.092Z</time>
      </trkpt>
      <trkpt lat="46.98185" lon="8.71475">
        <ele>591</ele>
        <time>2021-08-05T11:05:42.092Z</time>
      </trkpt>
      <trkpt lat="46.98184" lon="8.71476">
        <ele>591</ele>
        <time>2021-08-05T11:05:43.091Z</time>
      </trkpt>
      <trkpt lat="46.98183" lon="8.71478">
        <ele>591</ele>
        <time>2021-08-05T11:06:00.166Z</time>
      </trkpt>
      <trkpt lat="46.98182" lon="8.7148">
        <ele>591</ele>
        <time>2021-08-05T11:06:01.165Z</time>
      </trkpt>
      <trkpt lat="46.98181" lon="8.71481">
        <ele>591</ele>
        <time>2021-08-05T11:06:02.166Z</time>
      </trkpt>
      <trkpt lat="46.98181" lon="8.71483">
        <ele>591</ele>
        <time>2021-08-05T11:06:03.165Z</time>
      </trkpt>
      <trkpt lat="46.9818" lon="8.71484">
        <ele>591</ele>
        <time>2021-08-05T11:06:04.166Z</time>
      </trkpt>
      <trkpt lat="46.98179" lon="8.71485">
        <ele>591</ele>
        <time>2021-08-05T11:06:05.166Z</time>
      </trkpt>
      <trkpt lat="46.98178" lon="8.71487">
        <ele>591</ele>
        <time>2021-08-05T11:06:06.166Z</time>
      </trkpt>
      <trkpt lat="46.98178" lon="8.71489">
        <ele>591</ele>
        <time>2021-08-05T11:06:07.166Z</time>
      </trkpt>
      <trkpt lat="46.98177" lon="8.7149">
        <ele>591</ele>
        <time>2021-08-05T11:06:08.165Z</time>
      </trkpt>
      <trkpt lat="46.98176" lon="8.71491">
        <ele>591</ele>
        <time>2021-08-05T11:06:09.166Z</time>
      </trkpt>
      <trkpt lat="46.98175" lon="8.71493">
        <ele>591</ele>
        <time>2021-08-05T11:06:10.166Z</time>
      </trkpt>
      <trkpt lat="46.98174" lon="8.71494">
        <ele>592</ele>
        <time>2021-08-05T11:06:11.166Z</time>
      </trkpt>
      <trkpt lat="46.98173" lon="8.71495">
        <ele>592</ele>
        <time>2021-08-05T11:06:12.166Z</time>
      </trkpt>
      <trkpt lat="46.98172" lon="8.71497">
        <ele>592</ele>
        <time>2021-08-05T11:06:13.166Z</time>
      </trkpt>
      <trkpt lat="46.98172" lon="8.71498">
        <ele>592</ele>
        <time>2021-08-05T11:06:41.347Z</time>
      </trkpt>
      <trkpt lat="46.98171" lon="8.715">
        <ele>592</ele>
        <time>2021-08-05T11:06:42.346Z</time>
      </trkpt>
      <trkpt lat="46.98171" lon="8.71502">
        <ele>592</ele>
        <time>2021-08-05T11:06:43.347Z</time>
      </trkpt>
      <trkpt lat="46.9817" lon="8.71503">
        <ele>592</ele>
        <time>2021-08-05T11:06:44.346Z</time>
      </trkpt>
      <trkpt lat="46.98169" lon="8.71505">
        <ele>592</ele>
        <time>2021-08-05T11:06:45.346Z</time>
      </trkpt>
      <trkpt lat="46.98169" lon="8.71506">
        <ele>592</ele>
        <time>2021-08-05T11:06:46.347Z</time>
      </trkpt>
      <trkpt lat="46.98169" lon="8.71507">
        <ele>592</ele>
        <time>2021-08-05T11:06:47.346Z</time>
      </trkpt>
      <trkpt lat="46.98168" lon="8.71509">
        <ele>592</ele>
        <time>2021-08-05T11:06:51.448Z</time>
      </trkpt>
      <trkpt lat="46.98168" lon="8.71511">
        <ele>592</ele>
        <time>2021-08-05T11:06:52.449Z</time>
      </trkpt>
      <trkpt lat="46.98168" lon="8.71512">
        <ele>592</ele>
        <time>2021-08-05T11:06:53.448Z</time>
      </trkpt>
      <trkpt lat="46.98168" lon="8.71514">
        <ele>592</ele>
        <time>2021-08-05T11:06:59.314Z</time>
      </trkpt>
      <trkpt lat="46.98168" lon="8.71515">
        <ele>592</ele>
        <time>2021-08-05T11:07:01.160Z</time>
      </trkpt>
      <trkpt lat="46.98167" lon="8.71517">
        <ele>592</ele>
        <time>2021-08-05T11:07:02.161Z</time>
      </trkpt>
      <trkpt lat="46.98167" lon="8.71518">
        <ele>592</ele>
        <time>2021-08-05T11:07:03.161Z</time>
      </trkpt>
      <trkpt lat="46.98166" lon="8.71519">
        <ele>592</ele>
        <time>2021-08-05T11:07:04.160Z</time>
      </trkpt>
      <trkpt lat="46.98165" lon="8.71521">
        <ele>592</ele>
        <time>2021-08-05T11:07:05.161Z</time>
      </trkpt>
      <trkpt lat="46.98165" lon="8.71523">
        <ele>592</ele>
        <time>2021-08-05T11:07:07.162Z</time>
      </trkpt>
      <trkpt lat="46.98164" lon="8.71524">
        <ele>592</ele>
        <time>2021-08-05T11:07:08.161Z</time>
      </trkpt>
      <trkpt lat="46.98163" lon="8.71526">
        <ele>591</ele>
        <time>2021-08-05T11:07:09.161Z</time>
      </trkpt>
      <trkpt lat="46.98162" lon="8.71527">
        <ele>591</ele>
        <time>2021-08-05T11:07:10.161Z</time>
      </trkpt>
      <trkpt lat="46.98161" lon="8.71529">
        <ele>591</ele>
        <time>2021-08-05T11:07:11.161Z</time>
      </trkpt>
      <trkpt lat="46.9816" lon="8.71532">
        <ele>590</ele>
        <time>2021-08-05T11:07:12.161Z</time>
      </trkpt>
      <trkpt lat="46.98159" lon="8.71534">
        <ele>590</ele>
        <time>2021-08-05T11:07:13.162Z</time>
      </trkpt>
      <trkpt lat="46.98158" lon="8.71536">
        <ele>590</ele>
        <time>2021-08-05T11:07:14.162Z</time>
      </trkpt>
      <trkpt lat="46.98157" lon="8.71539">
        <ele>589</ele>
        <time>2021-08-05T11:07:15.162Z</time>
      </trkpt>
      <trkpt lat="46.98157" lon="8.71542">
        <ele>589</ele>
        <time>2021-08-05T11:07:16.162Z</time>
      </trkpt>
      <trkpt lat="46.98156" lon="8.71544">
        <ele>589</ele>
        <time>2021-08-05T11:07:17.162Z</time>
      </trkpt>
      <trkpt lat="46.98155" lon="8.71546">
        <ele>588</ele>
        <time>2021-08-05T11:07:18.162Z</time>
      </trkpt>
      <trkpt lat="46.98154" lon="8.71547">
        <ele>588</ele>
        <time>2021-08-05T11:07:20.200Z</time>
      </trkpt>
      <trkpt lat="46.98153" lon="8.7155">
        <ele>587</ele>
        <time>2021-08-05T11:07:22.022Z</time>
      </trkpt>
      <trkpt lat="46.98152" lon="8.71552">
        <ele>587</ele>
        <time>2021-08-05T11:07:25.797Z</time>
      </trkpt>
      <trkpt lat="46.98151" lon="8.71554">
        <ele>586</ele>
        <time>2021-08-05T11:07:26.798Z</time>
      </trkpt>
      <trkpt lat="46.98151" lon="8.71556">
        <ele>585</ele>
        <time>2021-08-05T11:07:27.798Z</time>
      </trkpt>
      <trkpt lat="46.98151" lon="8.71557">
        <ele>585</ele>
        <time>2021-08-05T11:07:28.797Z</time>
      </trkpt>
      <trkpt lat="46.9815" lon="8.71558">
        <ele>585</ele>
        <time>2021-08-05T11:07:29.797Z</time>
      </trkpt>
      <trkpt lat="46.98149" lon="8.71559">
        <ele>584</ele>
        <time>2021-08-05T11:07:30.798Z</time>
      </trkpt>
      <trkpt lat="46.98148" lon="8.71561">
        <ele>584</ele>
        <time>2021-08-05T11:07:31.798Z</time>
      </trkpt>
      <trkpt lat="46.98146" lon="8.71564">
        <ele>584</ele>
        <time>2021-08-05T11:08:25.784Z</time>
      </trkpt>
      <trkpt lat="46.98146" lon="8.71567">
        <ele>584</ele>
        <time>2021-08-05T11:08:31.706Z</time>
      </trkpt>
      <trkpt lat="46.98146" lon="8.71568">
        <ele>584</ele>
        <time>2021-08-05T11:08:32.706Z</time>
      </trkpt>
      <trkpt lat="46.98145" lon="8.71569">
        <ele>584</ele>
        <time>2021-08-05T11:08:33.706Z</time>
      </trkpt>
      <trkpt lat="46.98145" lon="8.7157">
        <ele>584</ele>
        <time>2021-08-05T11:08:34.706Z</time>
      </trkpt>
      <trkpt lat="46.98145" lon="8.71572">
        <ele>584</ele>
        <time>2021-08-05T11:08:35.706Z</time>
      </trkpt>
      <trkpt lat="46.98144" lon="8.71574">
        <ele>584</ele>
        <time>2021-08-05T11:08:36.705Z</time>
      </trkpt>
      <trkpt lat="46.98144" lon="8.71575">
        <ele>585</ele>
        <time>2021-08-05T11:08:37.705Z</time>
      </trkpt>
      <trkpt lat="46.98143" lon="8.71577">
        <ele>585</ele>
        <time>2021-08-05T11:08:38.706Z</time>
      </trkpt>
      <trkpt lat="46.98142" lon="8.71578">
        <ele>585</ele>
        <time>2021-08-05T11:08:39.706Z</time>
      </trkpt>
      <trkpt lat="46.98142" lon="8.7158">
        <ele>585</ele>
        <time>2021-08-05T11:08:40.705Z</time>
      </trkpt>
      <trkpt lat="46.98141" lon="8.71582">
        <ele>585</ele>
        <time>2021-08-05T11:08:41.706Z</time>
      </trkpt>
      <trkpt lat="46.9814" lon="8.71584">
        <ele>585</ele>
        <time>2021-08-05T11:08:42.705Z</time>
      </trkpt>
      <trkpt lat="46.98139" lon="8.71586">
        <ele>586</ele>
        <time>2021-08-05T11:08:43.706Z</time>
      </trkpt>
      <trkpt lat="46.98139" lon="8.71587">
        <ele>586</ele>
        <time>2021-08-05T11:08:44.706Z</time>
      </trkpt>
      <trkpt lat="46.98137" lon="8.7159">
        <ele>586</ele>
        <time>2021-08-05T11:08:45.706Z</time>
      </trkpt>
      <trkpt lat="46.98136" lon="8.71592">
        <ele>586</ele>
        <time>2021-08-05T11:08:46.706Z</time>
      </trkpt>
      <trkpt lat="46.98135" lon="8.71593">
        <ele>586</ele>
        <time>2021-08-05T11:08:47.706Z</time>
      </trkpt>
      <trkpt lat="46.98135" lon="8.71595">
        <ele>586</ele>
        <time>2021-08-05T11:08:50.789Z</time>
      </trkpt>
      <trkpt lat="46.98135" lon="8.71599">
        <ele>586</ele>
        <time>2021-08-05T11:08:51.789Z</time>
      </trkpt>
      <trkpt lat="46.98134" lon="8.71602">
        <ele>586</ele>
        <time>2021-08-05T11:08:52.790Z</time>
      </trkpt>
      <trkpt lat="46.98134" lon="8.71603">
        <ele>587</ele>
        <time>2021-08-05T11:08:53.790Z</time>
      </trkpt>
      <trkpt lat="46.98135" lon="8.71604">
        <ele>587</ele>
        <time>2021-08-05T11:08:54.790Z</time>
      </trkpt>
      <trkpt lat="46.98135" lon="8.71605">
        <ele>587</ele>
        <time>2021-08-05T11:09:23.911Z</time>
      </trkpt>
      <trkpt lat="46.98136" lon="8.71608">
        <ele>587</ele>
        <time>2021-08-05T11:09:24.910Z</time>
      </trkpt>
      <trkpt lat="46.98136" lon="8.71609">
        <ele>587</ele>
        <time>2021-08-05T11:09:25.910Z</time>
      </trkpt>
      <trkpt lat="46.98135" lon="8.71611">
        <ele>587</ele>
        <time>2021-08-05T11:09:26.911Z</time>
      </trkpt>
      <trkpt lat="46.98135" lon="8.71613">
        <ele>587</ele>
        <time>2021-08-05T11:09:27.910Z</time>
      </trkpt>
      <trkpt lat="46.98135" lon="8.71615">
        <ele>587</ele>
        <time>2021-08-05T11:09:28.911Z</time>
      </trkpt>
      <trkpt lat="46.98135" lon="8.71616">
        <ele>586</ele>
        <time>2021-08-05T11:09:36.091Z</time>
      </trkpt>
      <trkpt lat="46.98135" lon="8.71618">
        <ele>586</ele>
        <time>2021-08-05T11:09:37.091Z</time>
      </trkpt>
      <trkpt lat="46.98135" lon="8.7162">
        <ele>586</ele>
        <time>2021-08-05T11:09:38.091Z</time>
      </trkpt>
      <trkpt lat="46.98136" lon="8.71622">
        <ele>586</ele>
        <time>2021-08-05T11:09:39.091Z</time>
      </trkpt>
      <trkpt lat="46.98136" lon="8.71624">
        <ele>586</ele>
        <time>2021-08-05T11:09:40.090Z</time>
      </trkpt>
      <trkpt lat="46.98136" lon="8.71626">
        <ele>585</ele>
        <time>2021-08-05T11:09:41.091Z</time>
      </trkpt>
      <trkpt lat="46.98136" lon="8.71627">
        <ele>585</ele>
        <time>2021-08-05T11:09:42.091Z</time>
      </trkpt>
      <trkpt lat="46.98136" lon="8.71629">
        <ele>585</ele>
        <time>2021-08-05T11:09:43.091Z</time>
      </trkpt>
      <trkpt lat="46.98136" lon="8.71631">
        <ele>584</ele>
        <time>2021-08-05T11:09:44.091Z</time>
      </trkpt>
      <trkpt lat="46.98136" lon="8.71632">
        <ele>584</ele>
        <time>2021-08-05T11:09:45.090Z</time>
      </trkpt>
      <trkpt lat="46.98135" lon="8.71633">
        <ele>584</ele>
        <time>2021-08-05T11:09:46.091Z</time>
      </trkpt>
      <trkpt lat="46.98134" lon="8.71633">
        <ele>584</ele>
        <time>2021-08-05T11:09:47.091Z</time>
      </trkpt>
      <trkpt lat="46.98133" lon="8.71633">
        <ele>584</ele>
        <time>2021-08-05T11:09:48.091Z</time>
      </trkpt>
      <trkpt lat="46.98132" lon="8.71635">
        <ele>584</ele>
        <time>2021-08-05T11:09:49.091Z</time>
      </trkpt>
      <trkpt lat="46.98132" lon="8.71636">
        <ele>583</ele>
        <time>2021-08-05T11:09:50.091Z</time>
      </trkpt>
      <trkpt lat="46.98131" lon="8.71637">
        <ele>583</ele>
        <time>2021-08-05T11:09:51.090Z</time>
      </trkpt>
      <trkpt lat="46.98131" lon="8.71638">
        <ele>583</ele>
        <time>2021-08-05T11:09:52.091Z</time>
      </trkpt>
      <trkpt lat="46.9813" lon="8.71638">
        <ele>583</ele>
        <time>2021-08-05T11:09:53.091Z</time>
      </trkpt>
      <trkpt lat="46.98128" lon="8.71638">
        <ele>583</ele>
        <time>2021-08-05T11:09:54.091Z</time>
      </trkpt>
      <trkpt lat="46.98127" lon="8.71638">
        <ele>582</ele>
        <time>2021-08-05T11:09:55.090Z</time>
      </trkpt>
      <trkpt lat="46.98126" lon="8.71638">
        <ele>582</ele>
        <time>2021-08-05T11:09:56.091Z</time>
      </trkpt>
      <trkpt lat="46.98126" lon="8.7164">
        <ele>582</ele>
        <time>2021-08-05T11:09:57.090Z</time>
      </trkpt>
      <trkpt lat="46.98126" lon="8.71641">
        <ele>583</ele>
        <time>2021-08-05T11:09:58.091Z</time>
      </trkpt>
      <trkpt lat="46.98125" lon="8.71643">
        <ele>583</ele>
        <time>2021-08-05T11:09:59.090Z</time>
      </trkpt>
      <trkpt lat="46.98125" lon="8.71645">
        <ele>583</ele>
        <time>2021-08-05T11:10:00.090Z</time>
      </trkpt>
      <trkpt lat="46.98125" lon="8.71647">
        <ele>583</ele>
        <time>2021-08-05T11:10:01.091Z</time>
      </trkpt>
      <trkpt lat="46.98125" lon="8.71649">
        <ele>583</ele>
        <time>2021-08-05T11:10:02.090Z</time>
      </trkpt>
      <trkpt lat="46.98125" lon="8.71652">
        <ele>584</ele>
        <time>2021-08-05T11:10:03.090Z</time>
      </trkpt>
      <trkpt lat="46.98125" lon="8.71654">
        <ele>584</ele>
        <time>2021-08-05T11:10:04.091Z</time>
      </trkpt>
      <trkpt lat="46.98125" lon="8.71656">
        <ele>584</ele>
        <time>2021-08-05T11:10:05.091Z</time>
      </trkpt>
      <trkpt lat="46.98124" lon="8.71658">
        <ele>584</ele>
        <time>2021-08-05T11:10:06.090Z</time>
      </trkpt>
      <trkpt lat="46.98125" lon="8.7166">
        <ele>584</ele>
        <time>2021-08-05T11:10:07.090Z</time>
      </trkpt>
      <trkpt lat="46.98126" lon="8.71661">
        <ele>584</ele>
        <time>2021-08-05T11:10:08.090Z</time>
      </trkpt>
      <trkpt lat="46.98127" lon="8.71661">
        <ele>584</ele>
        <time>2021-08-05T11:10:09.090Z</time>
      </trkpt>
      <trkpt lat="46.98127" lon="8.71662">
        <ele>584</ele>
        <time>2021-08-05T11:10:10.090Z</time>
      </trkpt>
      <trkpt lat="46.98128" lon="8.71664">
        <ele>584</ele>
        <time>2021-08-05T11:10:11.090Z</time>
      </trkpt>
      <trkpt lat="46.98128" lon="8.71666">
        <ele>584</ele>
        <time>2021-08-05T11:10:12.091Z</time>
      </trkpt>
      <trkpt lat="46.98128" lon="8.71668">
        <ele>584</ele>
        <time>2021-08-05T11:10:13.091Z</time>
      </trkpt>
      <trkpt lat="46.98128" lon="8.7167">
        <ele>585</ele>
        <time>2021-08-05T11:10:14.090Z</time>
      </trkpt>
      <trkpt lat="46.98127" lon="8.71672">
        <ele>585</ele>
        <time>2021-08-05T11:10:15.090Z</time>
      </trkpt>
      <trkpt lat="46.98128" lon="8.71674">
        <ele>585</ele>
        <time>2021-08-05T11:10:16.091Z</time>
      </trkpt>
      <trkpt lat="46.98128" lon="8.71675">
        <ele>585</ele>
        <time>2021-08-05T11:10:17.090Z</time>
      </trkpt>
      <trkpt lat="46.98127" lon="8.71677">
        <ele>585</ele>
        <time>2021-08-05T11:10:18.090Z</time>
      </trkpt>
      <trkpt lat="46.98127" lon="8.71679">
        <ele>584</ele>
        <time>2021-08-05T11:10:19.090Z</time>
      </trkpt>
      <trkpt lat="46.98126" lon="8.71682">
        <ele>584</ele>
        <time>2021-08-05T11:10:20.090Z</time>
      </trkpt>
      <trkpt lat="46.98124" lon="8.71685">
        <ele>584</ele>
        <time>2021-08-05T11:10:21.090Z</time>
      </trkpt>
      <trkpt lat="46.98124" lon="8.71687">
        <ele>584</ele>
        <time>2021-08-05T11:10:22.090Z</time>
      </trkpt>
      <trkpt lat="46.98124" lon="8.71689">
        <ele>584</ele>
        <time>2021-08-05T11:10:23.090Z</time>
      </trkpt>
      <trkpt lat="46.98124" lon="8.7169">
        <ele>584</ele>
        <time>2021-08-05T11:10:24.090Z</time>
      </trkpt>
      <trkpt lat="46.98124" lon="8.71692">
        <ele>584</ele>
        <time>2021-08-05T11:10:25.090Z</time>
      </trkpt>
      <trkpt lat="46.98124" lon="8.71695">
        <ele>584</ele>
        <time>2021-08-05T11:10:26.090Z</time>
      </trkpt>
      <trkpt lat="46.98124" lon="8.71696">
        <ele>584</ele>
        <time>2021-08-05T11:10:27.090Z</time>
      </trkpt>
      <trkpt lat="46.98125" lon="8.71699">
        <ele>584</ele>
        <time>2021-08-05T11:10:28.090Z</time>
      </trkpt>
      <trkpt lat="46.98124" lon="8.71701">
        <ele>584</ele>
        <time>2021-08-05T11:10:29.090Z</time>
      </trkpt>
      <trkpt lat="46.98124" lon="8.71704">
        <ele>584</ele>
        <time>2021-08-05T11:10:30.091Z</time>
      </trkpt>
      <trkpt lat="46.98123" lon="8.71706">
        <ele>584</ele>
        <time>2021-08-05T11:10:31.090Z</time>
      </trkpt>
      <trkpt lat="46.98123" lon="8.71708">
        <ele>584</ele>
        <time>2021-08-05T11:10:32.091Z</time>
      </trkpt>
      <trkpt lat="46.98124" lon="8.7171">
        <ele>584</ele>
        <time>2021-08-05T11:10:33.091Z</time>
      </trkpt>
      <trkpt lat="46.98124" lon="8.71712">
        <ele>584</ele>
        <time>2021-08-05T11:10:34.091Z</time>
      </trkpt>
      <trkpt lat="46.98124" lon="8.71714">
        <ele>584</ele>
        <time>2021-08-05T11:10:35.091Z</time>
      </trkpt>
      <trkpt lat="46.98124" lon="8.71715">
        <ele>584</ele>
        <time>2021-08-05T11:10:36.090Z</time>
      </trkpt>
      <trkpt lat="46.98124" lon="8.71716">
        <ele>584</ele>
        <time>2021-08-05T11:10:37.091Z</time>
      </trkpt>
      <trkpt lat="46.98125" lon="8.71717">
        <ele>583</ele>
        <time>2021-08-05T11:10:38.090Z</time>
      </trkpt>
      <trkpt lat="46.98125" lon="8.71718">
        <ele>583</ele>
        <time>2021-08-05T11:10:39.091Z</time>
      </trkpt>
      <trkpt lat="46.98125" lon="8.71719">
        <ele>583</ele>
        <time>2021-08-05T11:10:40.091Z</time>
      </trkpt>
      <trkpt lat="46.98125" lon="8.7172">
        <ele>583</ele>
        <time>2021-08-05T11:10:41.090Z</time>
      </trkpt>
      <trkpt lat="46.98125" lon="8.7172">
        <ele>583</ele>
        <time>2021-08-05T11:10:42.090Z</time>
      </trkpt>
      <trkpt lat="46.98125" lon="8.71722">
        <ele>582</ele>
        <time>2021-08-05T11:10:43.091Z</time>
      </trkpt>
      <trkpt lat="46.98125" lon="8.71723">
        <ele>582</ele>
        <time>2021-08-05T11:10:44.090Z</time>
      </trkpt>
      <trkpt lat="46.98126" lon="8.71725">
        <ele>582</ele>
        <time>2021-08-05T11:10:45.091Z</time>
      </trkpt>
      <trkpt lat="46.98126" lon="8.71726">
        <ele>582</ele>
        <time>2021-08-05T11:10:46.090Z</time>
      </trkpt>
      <trkpt lat="46.98127" lon="8.71728">
        <ele>581</ele>
        <time>2021-08-05T11:10:47.090Z</time>
      </trkpt>
      <trkpt lat="46.98128" lon="8.7173">
        <ele>581</ele>
        <time>2021-08-05T11:10:48.090Z</time>
      </trkpt>
      <trkpt lat="46.98129" lon="8.71731">
        <ele>581</ele>
        <time>2021-08-05T11:10:49.091Z</time>
      </trkpt>
      <trkpt lat="46.9813" lon="8.71732">
        <ele>581</ele>
        <time>2021-08-05T11:10:50.090Z</time>
      </trkpt>
      <trkpt lat="46.98131" lon="8.71733">
        <ele>581</ele>
        <time>2021-08-05T11:10:51.091Z</time>
      </trkpt>
      <trkpt lat="46.98133" lon="8.71733">
        <ele>581</ele>
        <time>2021-08-05T11:10:52.091Z</time>
      </trkpt>
      <trkpt lat="46.98134" lon="8.71734">
        <ele>581</ele>
        <time>2021-08-05T11:10:53.091Z</time>
      </trkpt>
      <trkpt lat="46.98135" lon="8.71735">
        <ele>582</ele>
        <time>2021-08-05T11:10:54.091Z</time>
      </trkpt>
      <trkpt lat="46.98136" lon="8.71736">
        <ele>582</ele>
        <time>2021-08-05T11:10:55.090Z</time>
      </trkpt>
      <trkpt lat="46.98138" lon="8.71737">
        <ele>582</ele>
        <time>2021-08-05T11:10:56.091Z</time>
      </trkpt>
      <trkpt lat="46.98139" lon="8.71737">
        <ele>583</ele>
        <time>2021-08-05T11:10:57.090Z</time>
      </trkpt>
      <trkpt lat="46.98141" lon="8.71737">
        <ele>583</ele>
        <time>2021-08-05T11:10:58.090Z</time>
      </trkpt>
      <trkpt lat="46.98142" lon="8.71738">
        <ele>584</ele>
        <time>2021-08-05T11:10:59.091Z</time>
      </trkpt>
      <trkpt lat="46.98143" lon="8.7174">
        <ele>584</ele>
        <time>2021-08-05T11:11:00.090Z</time>
      </trkpt>
      <trkpt lat="46.98143" lon="8.71741">
        <ele>584</ele>
        <time>2021-08-05T11:11:01.091Z</time>
      </trkpt>
      <trkpt lat="46.98144" lon="8.71742">
        <ele>585</ele>
        <time>2021-08-05T11:11:02.091Z</time>
      </trkpt>
      <trkpt lat="46.98145" lon="8.71743">
        <ele>585</ele>
        <time>2021-08-05T11:11:03.091Z</time>
      </trkpt>
      <trkpt lat="46.98146" lon="8.71743">
        <ele>585</ele>
        <time>2021-08-05T11:11:04.091Z</time>
      </trkpt>
      <trkpt lat="46.98147" lon="8.71744">
        <ele>585</ele>
        <time>2021-08-05T11:11:05.090Z</time>
      </trkpt>
      <trkpt lat="46.98148" lon="8.71745">
        <ele>586</ele>
        <time>2021-08-05T11:11:06.091Z</time>
      </trkpt>
      <trkpt lat="46.98149" lon="8.71746">
        <ele>586</ele>
        <time>2021-08-05T11:11:07.090Z</time>
      </trkpt>
      <trkpt lat="46.98151" lon="8.71747">
        <ele>586</ele>
        <time>2021-08-05T11:11:08.090Z</time>
      </trkpt>
      <trkpt lat="46.98152" lon="8.71748">
        <ele>586</ele>
        <time>2021-08-05T11:11:09.090Z</time>
      </trkpt>
      <trkpt lat="46.98153" lon="8.71749">
        <ele>587</ele>
        <time>2021-08-05T11:11:10.090Z</time>
      </trkpt>
      <trkpt lat="46.98153" lon="8.71751">
        <ele>587</ele>
        <time>2021-08-05T11:11:11.091Z</time>
      </trkpt>
      <trkpt lat="46.98155" lon="8.71752">
        <ele>587</ele>
        <time>2021-08-05T11:11:12.091Z</time>
      </trkpt>
      <trkpt lat="46.98154" lon="8.71755">
        <ele>587</ele>
        <time>2021-08-05T11:11:13.091Z</time>
      </trkpt>
      <trkpt lat="46.98154" lon="8.71757">
        <ele>587</ele>
        <time>2021-08-05T11:11:14.091Z</time>
      </trkpt>
      <trkpt lat="46.98155" lon="8.71758">
        <ele>587</ele>
        <time>2021-08-05T11:11:15.090Z</time>
      </trkpt>
      <trkpt lat="46.98155" lon="8.71759">
        <ele>588</ele>
        <time>2021-08-05T11:11:16.090Z</time>
      </trkpt>
      <trkpt lat="46.98156" lon="8.7176">
        <ele>588</ele>
        <time>2021-08-05T11:11:17.090Z</time>
      </trkpt>
      <trkpt lat="46.98158" lon="8.7176">
        <ele>588</ele>
        <time>2021-08-05T11:11:18.091Z</time>
      </trkpt>
      <trkpt lat="46.98159" lon="8.71761">
        <ele>588</ele>
        <time>2021-08-05T11:11:19.091Z</time>
      </trkpt>
      <trkpt lat="46.9816" lon="8.71762">
        <ele>588</ele>
        <time>2021-08-05T11:11:20.091Z</time>
      </trkpt>
      <trkpt lat="46.98161" lon="8.71764">
        <ele>587</ele>
        <time>2021-08-05T11:11:21.090Z</time>
      </trkpt>
      <trkpt lat="46.98161" lon="8.71766">
        <ele>587</ele>
        <time>2021-08-05T11:11:22.091Z</time>
      </trkpt>
      <trkpt lat="46.98162" lon="8.71767">
        <ele>587</ele>
        <time>2021-08-05T11:11:23.090Z</time>
      </trkpt>
      <trkpt lat="46.98162" lon="8.71769">
        <ele>587</ele>
        <time>2021-08-05T11:11:24.091Z</time>
      </trkpt>
      <trkpt lat="46.98163" lon="8.7177">
        <ele>586</ele>
        <time>2021-08-05T11:11:25.091Z</time>
      </trkpt>
      <trkpt lat="46.98164" lon="8.71772">
        <ele>586</ele>
        <time>2021-08-05T11:11:26.091Z</time>
      </trkpt>
      <trkpt lat="46.98164" lon="8.71774">
        <ele>586</ele>
        <time>2021-08-05T11:11:27.091Z</time>
      </trkpt>
      <trkpt lat="46.98164" lon="8.71777">
        <ele>586</ele>
        <time>2021-08-05T11:11:28.090Z</time>
      </trkpt>
      <trkpt lat="46.98165" lon="8.71779">
        <ele>585</ele>
        <time>2021-08-05T11:11:29.090Z</time>
      </trkpt>
      <trkpt lat="46.98166" lon="8.71781">
        <ele>585</ele>
        <time>2021-08-05T11:11:30.090Z</time>
      </trkpt>
      <trkpt lat="46.98166" lon="8.71783">
        <ele>585</ele>
        <time>2021-08-05T11:11:31.091Z</time>
      </trkpt>
      <trkpt lat="46.98166" lon="8.71785">
        <ele>585</ele>
        <time>2021-08-05T11:11:32.091Z</time>
      </trkpt>
      <trkpt lat="46.98168" lon="8.71787">
        <ele>585</ele>
        <time>2021-08-05T11:11:33.090Z</time>
      </trkpt>
      <trkpt lat="46.98169" lon="8.71786">
        <ele>585</ele>
        <time>2021-08-05T11:11:34.090Z</time>
      </trkpt>
      <trkpt lat="46.98171" lon="8.71789">
        <ele>584</ele>
        <time>2021-08-05T11:11:35.090Z</time>
      </trkpt>
      <trkpt lat="46.9817" lon="8.71792">
        <ele>584</ele>
        <time>2021-08-05T11:11:36.090Z</time>
      </trkpt>
      <trkpt lat="46.9817" lon="8.71795">
        <ele>584</ele>
        <time>2021-08-05T11:11:37.090Z</time>
      </trkpt>
      <trkpt lat="46.98168" lon="8.71797">
        <ele>584</ele>
        <time>2021-08-05T11:11:38.090Z</time>
      </trkpt>
      <trkpt lat="46.98168" lon="8.718">
        <ele>584</ele>
        <time>2021-08-05T11:11:39.090Z</time>
      </trkpt>
      <trkpt lat="46.98168" lon="8.71802">
        <ele>584</ele>
        <time>2021-08-05T11:11:40.091Z</time>
      </trkpt>
      <trkpt lat="46.98169" lon="8.71804">
        <ele>584</ele>
        <time>2021-08-05T11:11:41.090Z</time>
      </trkpt>
      <trkpt lat="46.98169" lon="8.71806">
        <ele>584</ele>
        <time>2021-08-05T11:11:42.090Z</time>
      </trkpt>
      <trkpt lat="46.98169" lon="8.71807">
        <ele>583</ele>
        <time>2021-08-05T11:11:43.090Z</time>
      </trkpt>
      <trkpt lat="46.98169" lon="8.71808">
        <ele>583</ele>
        <time>2021-08-05T11:11:44.090Z</time>
      </trkpt>
      <trkpt lat="46.98169" lon="8.7181">
        <ele>583</ele>
        <time>2021-08-05T11:11:45.090Z</time>
      </trkpt>
      <trkpt lat="46.98169" lon="8.71812">
        <ele>583</ele>
        <time>2021-08-05T11:11:46.090Z</time>
      </trkpt>
      <trkpt lat="46.98169" lon="8.71813">
        <ele>583</ele>
        <time>2021-08-05T11:11:47.090Z</time>
      </trkpt>
      <trkpt lat="46.98169" lon="8.71815">
        <ele>583</ele>
        <time>2021-08-05T11:11:48.090Z</time>
      </trkpt>
      <trkpt lat="46.98169" lon="8.71817">
        <ele>583</ele>
        <time>2021-08-05T11:11:49.090Z</time>
      </trkpt>
      <trkpt lat="46.98169" lon="8.7182">
        <ele>582</ele>
        <time>2021-08-05T11:11:50.090Z</time>
      </trkpt>
      <trkpt lat="46.98168" lon="8.71823">
        <ele>582</ele>
        <time>2021-08-05T11:11:51.090Z</time>
      </trkpt>
      <trkpt lat="46.98168" lon="8.71826">
        <ele>581</ele>
        <time>2021-08-05T11:11:52.090Z</time>
      </trkpt>
      <trkpt lat="46.98168" lon="8.71829">
        <ele>581</ele>
        <time>2021-08-05T11:11:53.090Z</time>
      </trkpt>
      <trkpt lat="46.98167" lon="8.71832">
        <ele>581</ele>
        <time>2021-08-05T11:11:54.090Z</time>
      </trkpt>
      <trkpt lat="46.98167" lon="8.71833">
        <ele>580</ele>
        <time>2021-08-05T11:11:55.090Z</time>
      </trkpt>
      <trkpt lat="46.98167" lon="8.71836">
        <ele>580</ele>
        <time>2021-08-05T11:11:56.090Z</time>
      </trkpt>
      <trkpt lat="46.98167" lon="8.71837">
        <ele>580</ele>
        <time>2021-08-05T11:11:57.090Z</time>
      </trkpt>
      <trkpt lat="46.98166" lon="8.71839">
        <ele>580</ele>
        <time>2021-08-05T11:11:58.090Z</time>
      </trkpt>
      <trkpt lat="46.98166" lon="8.71841">
        <ele>580</ele>
        <time>2021-08-05T11:11:59.090Z</time>
      </trkpt>
      <trkpt lat="46.98166" lon="8.71842">
        <ele>580</ele>
        <time>2021-08-05T11:12:00.091Z</time>
      </trkpt>
      <trkpt lat="46.98166" lon="8.71844">
        <ele>580</ele>
        <time>2021-08-05T11:12:01.090Z</time>
      </trkpt>
      <trkpt lat="46.98166" lon="8.71846">
        <ele>580</ele>
        <time>2021-08-05T11:12:02.091Z</time>
      </trkpt>
      <trkpt lat="46.98166" lon="8.71847">
        <ele>580</ele>
        <time>2021-08-05T11:12:03.091Z</time>
      </trkpt>
      <trkpt lat="46.98167" lon="8.71849">
        <ele>580</ele>
        <time>2021-08-05T11:12:04.091Z</time>
      </trkpt>
      <trkpt lat="46.98167" lon="8.71851">
        <ele>579</ele>
        <time>2021-08-05T11:12:05.090Z</time>
      </trkpt>
      <trkpt lat="46.98167" lon="8.71853">
        <ele>579</ele>
        <time>2021-08-05T11:12:06.091Z</time>
      </trkpt>
      <trkpt lat="46.98166" lon="8.71855">
        <ele>580</ele>
        <time>2021-08-05T11:12:07.091Z</time>
      </trkpt>
      <trkpt lat="46.98166" lon="8.71856">
        <ele>580</ele>
        <time>2021-08-05T11:12:08.091Z</time>
      </trkpt>
      <trkpt lat="46.98166" lon="8.71859">
        <ele>580</ele>
        <time>2021-08-05T11:12:09.091Z</time>
      </trkpt>
      <trkpt lat="46.98166" lon="8.71861">
        <ele>580</ele>
        <time>2021-08-05T11:12:10.091Z</time>
      </trkpt>
      <trkpt lat="46.98166" lon="8.71863">
        <ele>580</ele>
        <time>2021-08-05T11:12:11.091Z</time>
      </trkpt>
      <trkpt lat="46.98165" lon="8.71865">
        <ele>580</ele>
        <time>2021-08-05T11:12:12.091Z</time>
      </trkpt>
      <trkpt lat="46.98165" lon="8.71867">
        <ele>580</ele>
        <time>2021-08-05T11:12:13.091Z</time>
      </trkpt>
      <trkpt lat="46.98165" lon="8.71869">
        <ele>580</ele>
        <time>2021-08-05T11:12:14.091Z</time>
      </trkpt>
      <trkpt lat="46.98165" lon="8.71871">
        <ele>581</ele>
        <time>2021-08-05T11:12:15.091Z</time>
      </trkpt>
      <trkpt lat="46.98165" lon="8.71872">
        <ele>582</ele>
        <time>2021-08-05T11:12:16.090Z</time>
      </trkpt>
      <trkpt lat="46.98165" lon="8.71874">
        <ele>582</ele>
        <time>2021-08-05T11:12:17.090Z</time>
      </trkpt>
      <trkpt lat="46.98165" lon="8.71876">
        <ele>583</ele>
        <time>2021-08-05T11:12:18.091Z</time>
      </trkpt>
      <trkpt lat="46.98165" lon="8.71877">
        <ele>583</ele>
        <time>2021-08-05T11:12:19.090Z</time>
      </trkpt>
      <trkpt lat="46.98164" lon="8.71879">
        <ele>583</ele>
        <time>2021-08-05T11:12:20.090Z</time>
      </trkpt>
      <trkpt lat="46.98164" lon="8.7188">
        <ele>583</ele>
        <time>2021-08-05T11:12:21.091Z</time>
      </trkpt>
      <trkpt lat="46.98164" lon="8.71882">
        <ele>583</ele>
        <time>2021-08-05T11:12:22.091Z</time>
      </trkpt>
      <trkpt lat="46.98163" lon="8.71885">
        <ele>584</ele>
        <time>2021-08-05T11:12:23.090Z</time>
      </trkpt>
      <trkpt lat="46.98163" lon="8.71887">
        <ele>584</ele>
        <time>2021-08-05T11:12:24.091Z</time>
      </trkpt>
      <trkpt lat="46.98163" lon="8.71889">
        <ele>584</ele>
        <time>2021-08-05T11:12:25.091Z</time>
      </trkpt>
      <trkpt lat="46.98162" lon="8.71891">
        <ele>584</ele>
        <time>2021-08-05T11:12:26.091Z</time>
      </trkpt>
      <trkpt lat="46.98162" lon="8.71894">
        <ele>584</ele>
        <time>2021-08-05T11:12:27.090Z</time>
      </trkpt>
      <trkpt lat="46.98162" lon="8.71896">
        <ele>584</ele>
        <time>2021-08-05T11:12:28.090Z</time>
      </trkpt>
      <trkpt lat="46.98162" lon="8.71898">
        <ele>584</ele>
        <time>2021-08-05T11:12:29.091Z</time>
      </trkpt>
      <trkpt lat="46.98162" lon="8.719">
        <ele>584</ele>
        <time>2021-08-05T11:12:30.091Z</time>
      </trkpt>
      <trkpt lat="46.98162" lon="8.71902">
        <ele>584</ele>
        <time>2021-08-05T11:12:31.091Z</time>
      </trkpt>
      <trkpt lat="46.98161" lon="8.71904">
        <ele>585</ele>
        <time>2021-08-05T11:12:32.090Z</time>
      </trkpt>
      <trkpt lat="46.98161" lon="8.71906">
        <ele>585</ele>
        <time>2021-08-05T11:12:33.090Z</time>
      </trkpt>
      <trkpt lat="46.98161" lon="8.71908">
        <ele>585</ele>
        <time>2021-08-05T11:12:34.090Z</time>
      </trkpt>
      <trkpt lat="46.98161" lon="8.7191">
        <ele>586</ele>
        <time>2021-08-05T11:12:35.091Z</time>
      </trkpt>
      <trkpt lat="46.98161" lon="8.71912">
        <ele>586</ele>
        <time>2021-08-05T11:12:36.090Z</time>
      </trkpt>
      <trkpt lat="46.98161" lon="8.71913">
        <ele>586</ele>
        <time>2021-08-05T11:12:37.090Z</time>
      </trkpt>
      <trkpt lat="46.98161" lon="8.71916">
        <ele>587</ele>
        <time>2021-08-05T11:12:38.091Z</time>
      </trkpt>
      <trkpt lat="46.98161" lon="8.71917">
        <ele>587</ele>
        <time>2021-08-05T11:12:39.091Z</time>
      </trkpt>
      <trkpt lat="46.98161" lon="8.7192">
        <ele>587</ele>
        <time>2021-08-05T11:12:40.090Z</time>
      </trkpt>
      <trkpt lat="46.98161" lon="8.71922">
        <ele>588</ele>
        <time>2021-08-05T11:12:41.091Z</time>
      </trkpt>
      <trkpt lat="46.98161" lon="8.71924">
        <ele>588</ele>
        <time>2021-08-05T11:12:42.091Z</time>
      </trkpt>
      <trkpt lat="46.9816" lon="8.71927">
        <ele>589</ele>
        <time>2021-08-05T11:12:43.091Z</time>
      </trkpt>
      <trkpt lat="46.9816" lon="8.71928">
        <ele>589</ele>
        <time>2021-08-05T11:12:44.090Z</time>
      </trkpt>
      <trkpt lat="46.98161" lon="8.7193">
        <ele>589</ele>
        <time>2021-08-05T11:12:45.091Z</time>
      </trkpt>
      <trkpt lat="46.9816" lon="8.71932">
        <ele>589</ele>
        <time>2021-08-05T11:12:46.091Z</time>
      </trkpt>
      <trkpt lat="46.9816" lon="8.71934">
        <ele>589</ele>
        <time>2021-08-05T11:12:47.090Z</time>
      </trkpt>
      <trkpt lat="46.9816" lon="8.71936">
        <ele>589</ele>
        <time>2021-08-05T11:12:48.091Z</time>
      </trkpt>
      <trkpt lat="46.9816" lon="8.71939">
        <ele>589</ele>
        <time>2021-08-05T11:12:49.091Z</time>
      </trkpt>
      <trkpt lat="46.98161" lon="8.71942">
        <ele>589</ele>
        <time>2021-08-05T11:12:50.091Z</time>
      </trkpt>
      <trkpt lat="46.98161" lon="8.71944">
        <ele>589</ele>
        <time>2021-08-05T11:12:51.091Z</time>
      </trkpt>
      <trkpt lat="46.9816" lon="8.71946">
        <ele>590</ele>
        <time>2021-08-05T11:12:52.090Z</time>
      </trkpt>
      <trkpt lat="46.9816" lon="8.71947">
        <ele>590</ele>
        <time>2021-08-05T11:12:53.090Z</time>
      </trkpt>
      <trkpt lat="46.9816" lon="8.71949">
        <ele>591</ele>
        <time>2021-08-05T11:12:54.091Z</time>
      </trkpt>
      <trkpt lat="46.9816" lon="8.71951">
        <ele>591</ele>
        <time>2021-08-05T11:12:55.090Z</time>
      </trkpt>
      <trkpt lat="46.9816" lon="8.71952">
        <ele>591</ele>
        <time>2021-08-05T11:12:56.091Z</time>
      </trkpt>
      <trkpt lat="46.9816" lon="8.71953">
        <ele>591</ele>
        <time>2021-08-05T11:12:57.091Z</time>
      </trkpt>
      <trkpt lat="46.9816" lon="8.71955">
        <ele>592</ele>
        <time>2021-08-05T11:12:58.091Z</time>
      </trkpt>
      <trkpt lat="46.98161" lon="8.71957">
        <ele>592</ele>
        <time>2021-08-05T11:12:59.091Z</time>
      </trkpt>
      <trkpt lat="46.98161" lon="8.71959">
        <ele>593</ele>
        <time>2021-08-05T11:13:00.090Z</time>
      </trkpt>
      <trkpt lat="46.9816" lon="8.71961">
        <ele>593</ele>
        <time>2021-08-05T11:13:01.090Z</time>
      </trkpt>
      <trkpt lat="46.9816" lon="8.71963">
        <ele>593</ele>
        <time>2021-08-05T11:13:02.091Z</time>
      </trkpt>
      <trkpt lat="46.9816" lon="8.71965">
        <ele>593</ele>
        <time>2021-08-05T11:13:03.090Z</time>
      </trkpt>
      <trkpt lat="46.9816" lon="8.71967">
        <ele>593</ele>
        <time>2021-08-05T11:13:04.090Z</time>
      </trkpt>
      <trkpt lat="46.98161" lon="8.71968">
        <ele>593</ele>
        <time>2021-08-05T11:13:05.091Z</time>
      </trkpt>
      <trkpt lat="46.9816" lon="8.7197">
        <ele>593</ele>
        <time>2021-08-05T11:13:06.090Z</time>
      </trkpt>
      <trkpt lat="46.9816" lon="8.71972">
        <ele>593</ele>
        <time>2021-08-05T11:13:07.091Z</time>
      </trkpt>
      <trkpt lat="46.9816" lon="8.71975">
        <ele>593</ele>
        <time>2021-08-05T11:13:08.091Z</time>
      </trkpt>
      <trkpt lat="46.9816" lon="8.71977">
        <ele>593</ele>
        <time>2021-08-05T11:13:09.091Z</time>
      </trkpt>
      <trkpt lat="46.9816" lon="8.7198">
        <ele>593</ele>
        <time>2021-08-05T11:13:10.091Z</time>
      </trkpt>
      <trkpt lat="46.9816" lon="8.71982">
        <ele>594</ele>
        <time>2021-08-05T11:13:11.090Z</time>
      </trkpt>
      <trkpt lat="46.9816" lon="8.71986">
        <ele>594</ele>
        <time>2021-08-05T11:13:12.090Z</time>
      </trkpt>
      <trkpt lat="46.9816" lon="8.71989">
        <ele>594</ele>
        <time>2021-08-05T11:13:13.090Z</time>
      </trkpt>
      <trkpt lat="46.9816" lon="8.71993">
        <ele>594</ele>
        <time>2021-08-05T11:13:14.091Z</time>
      </trkpt>
      <trkpt lat="46.9816" lon="8.71996">
        <ele>594</ele>
        <time>2021-08-05T11:13:15.090Z</time>
      </trkpt>
      <trkpt lat="46.9816" lon="8.71998">
        <ele>594</ele>
        <time>2021-08-05T11:13:16.090Z</time>
      </trkpt>
      <trkpt lat="46.9816" lon="8.72">
        <ele>594</ele>
        <time>2021-08-05T11:13:17.091Z</time>
      </trkpt>
      <trkpt lat="46.9816" lon="8.72002">
        <ele>593</ele>
        <time>2021-08-05T11:13:18.091Z</time>
      </trkpt>
      <trkpt lat="46.9816" lon="8.72004">
        <ele>593</ele>
        <time>2021-08-05T11:13:19.091Z</time>
      </trkpt>
      <trkpt lat="46.9816" lon="8.72005">
        <ele>593</ele>
        <time>2021-08-05T11:13:20.091Z</time>
      </trkpt>
      <trkpt lat="46.9816" lon="8.72008">
        <ele>593</ele>
        <time>2021-08-05T11:13:21.090Z</time>
      </trkpt>
      <trkpt lat="46.9816" lon="8.72009">
        <ele>592</ele>
        <time>2021-08-05T11:13:22.091Z</time>
      </trkpt>
      <trkpt lat="46.9816" lon="8.72011">
        <ele>592</ele>
        <time>2021-08-05T11:13:23.090Z</time>
      </trkpt>
      <trkpt lat="46.9816" lon="8.72012">
        <ele>592</ele>
        <time>2021-08-05T11:13:24.091Z</time>
      </trkpt>
      <trkpt lat="46.9816" lon="8.72013">
        <ele>592</ele>
        <time>2021-08-05T11:13:25.091Z</time>
      </trkpt>
      <trkpt lat="46.9816" lon="8.72014">
        <ele>592</ele>
        <time>2021-08-05T11:13:26.091Z</time>
      </trkpt>
      <trkpt lat="46.9816" lon="8.72015">
        <ele>592</ele>
        <time>2021-08-05T11:13:27.091Z</time>
      </trkpt>
      <trkpt lat="46.9816" lon="8.72017">
        <ele>592</ele>
        <time>2021-08-05T11:13:28.090Z</time>
      </trkpt>
      <trkpt lat="46.9816" lon="8.72019">
        <ele>592</ele>
        <time>2021-08-05T11:13:29.091Z</time>
      </trkpt>
      <trkpt lat="46.9816" lon="8.72021">
        <ele>592</ele>
        <time>2021-08-05T11:13:30.091Z</time>
      </trkpt>
      <trkpt lat="46.9816" lon="8.72023">
        <ele>592</ele>
        <time>2021-08-05T11:13:31.090Z</time>
      </trkpt>
      <trkpt lat="46.9816" lon="8.72025">
        <ele>592</ele>
        <time>2021-08-05T11:13:32.091Z</time>
      </trkpt>
      <trkpt lat="46.9816" lon="8.72026">
        <ele>592</ele>
        <time>2021-08-05T11:13:33.090Z</time>
      </trkpt>
      <trkpt lat="46.9816" lon="8.72028">
        <ele>592</ele>
        <time>2021-08-05T11:13:34.091Z</time>
      </trkpt>
      <trkpt lat="46.98159" lon="8.7203">
        <ele>593</ele>
        <time>2021-08-05T11:13:35.091Z</time>
      </trkpt>
      <trkpt lat="46.98159" lon="8.72033">
        <ele>593</ele>
        <time>2021-08-05T11:13:36.091Z</time>
      </trkpt>
      <trkpt lat="46.98159" lon="8.72034">
        <ele>593</ele>
        <time>2021-08-05T11:13:37.091Z</time>
      </trkpt>
      <trkpt lat="46.98158" lon="8.72036">
        <ele>594</ele>
        <time>2021-08-05T11:13:38.091Z</time>
      </trkpt>
      <trkpt lat="46.98158" lon="8.72038">
        <ele>594</ele>
        <time>2021-08-05T11:13:39.091Z</time>
      </trkpt>
      <trkpt lat="46.98158" lon="8.7204">
        <ele>594</ele>
        <time>2021-08-05T11:13:40.090Z</time>
      </trkpt>
      <trkpt lat="46.98158" lon="8.72042">
        <ele>595</ele>
        <time>2021-08-05T11:13:41.091Z</time>
      </trkpt>
      <trkpt lat="46.98158" lon="8.72044">
        <ele>595</ele>
        <time>2021-08-05T11:13:42.091Z</time>
      </trkpt>
      <trkpt lat="46.98158" lon="8.72046">
        <ele>595</ele>
        <time>2021-08-05T11:13:43.090Z</time>
      </trkpt>
      <trkpt lat="46.98158" lon="8.72048">
        <ele>596</ele>
        <time>2021-08-05T11:13:44.091Z</time>
      </trkpt>
      <trkpt lat="46.98158" lon="8.7205">
        <ele>596</ele>
        <time>2021-08-05T11:13:45.091Z</time>
      </trkpt>
      <trkpt lat="46.98158" lon="8.72051">
        <ele>596</ele>
        <time>2021-08-05T11:13:46.090Z</time>
      </trkpt>
      <trkpt lat="46.98157" lon="8.72053">
        <ele>595</ele>
        <time>2021-08-05T11:13:47.091Z</time>
      </trkpt>
      <trkpt lat="46.98158" lon="8.72054">
        <ele>595</ele>
        <time>2021-08-05T11:13:48.091Z</time>
      </trkpt>
      <trkpt lat="46.98158" lon="8.72056">
        <ele>594</ele>
        <time>2021-08-05T11:13:49.090Z</time>
      </trkpt>
      <trkpt lat="46.98158" lon="8.72057">
        <ele>594</ele>
        <time>2021-08-05T11:13:50.091Z</time>
      </trkpt>
      <trkpt lat="46.98158" lon="8.72059">
        <ele>594</ele>
        <time>2021-08-05T11:13:51.090Z</time>
      </trkpt>
      <trkpt lat="46.98159" lon="8.7206">
        <ele>593</ele>
        <time>2021-08-05T11:13:52.091Z</time>
      </trkpt>
      <trkpt lat="46.98159" lon="8.72061">
        <ele>593</ele>
        <time>2021-08-05T11:13:53.091Z</time>
      </trkpt>
      <trkpt lat="46.98159" lon="8.72063">
        <ele>593</ele>
        <time>2021-08-05T11:13:54.091Z</time>
      </trkpt>
      <trkpt lat="46.98159" lon="8.72065">
        <ele>592</ele>
        <time>2021-08-05T11:13:55.090Z</time>
      </trkpt>
      <trkpt lat="46.98159" lon="8.72066">
        <ele>591</ele>
        <time>2021-08-05T11:13:56.091Z</time>
      </trkpt>
      <trkpt lat="46.98159" lon="8.72068">
        <ele>591</ele>
        <time>2021-08-05T11:13:57.090Z</time>
      </trkpt>
      <trkpt lat="46.98159" lon="8.72069">
        <ele>590</ele>
        <time>2021-08-05T11:13:58.091Z</time>
      </trkpt>
      <trkpt lat="46.98159" lon="8.72071">
        <ele>590</ele>
        <time>2021-08-05T11:13:59.090Z</time>
      </trkpt>
      <trkpt lat="46.9816" lon="8.72072">
        <ele>590</ele>
        <time>2021-08-05T11:14:00.091Z</time>
      </trkpt>
      <trkpt lat="46.9816" lon="8.72074">
        <ele>590</ele>
        <time>2021-08-05T11:14:01.091Z</time>
      </trkpt>
      <trkpt lat="46.9816" lon="8.72076">
        <ele>590</ele>
        <time>2021-08-05T11:14:02.091Z</time>
      </trkpt>
      <trkpt lat="46.9816" lon="8.72077">
        <ele>589</ele>
        <time>2021-08-05T11:14:03.091Z</time>
      </trkpt>
      <trkpt lat="46.98161" lon="8.72079">
        <ele>588</ele>
        <time>2021-08-05T11:14:04.091Z</time>
      </trkpt>
      <trkpt lat="46.98161" lon="8.7208">
        <ele>587</ele>
        <time>2021-08-05T11:14:05.091Z</time>
      </trkpt>
      <trkpt lat="46.98161" lon="8.72083">
        <ele>588</ele>
        <time>2021-08-05T11:14:06.091Z</time>
      </trkpt>
      <trkpt lat="46.98162" lon="8.72084">
        <ele>588</ele>
        <time>2021-08-05T11:14:07.090Z</time>
      </trkpt>
      <trkpt lat="46.98162" lon="8.72086">
        <ele>588</ele>
        <time>2021-08-05T11:14:08.091Z</time>
      </trkpt>
      <trkpt lat="46.98163" lon="8.72087">
        <ele>588</ele>
        <time>2021-08-05T11:14:09.090Z</time>
      </trkpt>
      <trkpt lat="46.98163" lon="8.72089">
        <ele>588</ele>
        <time>2021-08-05T11:14:10.090Z</time>
      </trkpt>
      <trkpt lat="46.98163" lon="8.7209">
        <ele>589</ele>
        <time>2021-08-05T11:14:11.091Z</time>
      </trkpt>
      <trkpt lat="46.98164" lon="8.72091">
        <ele>589</ele>
        <time>2021-08-05T11:14:12.090Z</time>
      </trkpt>
      <trkpt lat="46.98164" lon="8.72093">
        <ele>589</ele>
        <time>2021-08-05T11:14:13.091Z</time>
      </trkpt>
      <trkpt lat="46.98165" lon="8.72095">
        <ele>589</ele>
        <time>2021-08-05T11:14:14.091Z</time>
      </trkpt>
      <trkpt lat="46.98165" lon="8.72097">
        <ele>588</ele>
        <time>2021-08-05T11:14:15.090Z</time>
      </trkpt>
      <trkpt lat="46.98165" lon="8.72099">
        <ele>588</ele>
        <time>2021-08-05T11:14:16.091Z</time>
      </trkpt>
      <trkpt lat="46.98166" lon="8.721">
        <ele>588</ele>
        <time>2021-08-05T11:14:17.091Z</time>
      </trkpt>
      <trkpt lat="46.98166" lon="8.72102">
        <ele>588</ele>
        <time>2021-08-05T11:14:18.091Z</time>
      </trkpt>
      <trkpt lat="46.98167" lon="8.72103">
        <ele>588</ele>
        <time>2021-08-05T11:14:19.090Z</time>
      </trkpt>
      <trkpt lat="46.98167" lon="8.72105">
        <ele>588</ele>
        <time>2021-08-05T11:14:20.091Z</time>
      </trkpt>
      <trkpt lat="46.98168" lon="8.72107">
        <ele>588</ele>
        <time>2021-08-05T11:14:21.091Z</time>
      </trkpt>
      <trkpt lat="46.98168" lon="8.72109">
        <ele>588</ele>
        <time>2021-08-05T11:14:22.091Z</time>
      </trkpt>
      <trkpt lat="46.98168" lon="8.72111">
        <ele>588</ele>
        <time>2021-08-05T11:14:23.091Z</time>
      </trkpt>
      <trkpt lat="46.98168" lon="8.72112">
        <ele>588</ele>
        <time>2021-08-05T11:14:24.091Z</time>
      </trkpt>
      <trkpt lat="46.98169" lon="8.72114">
        <ele>588</ele>
        <time>2021-08-05T11:14:25.091Z</time>
      </trkpt>
      <trkpt lat="46.98169" lon="8.72116">
        <ele>588</ele>
        <time>2021-08-05T11:14:26.091Z</time>
      </trkpt>
      <trkpt lat="46.98169" lon="8.72118">
        <ele>587</ele>
        <time>2021-08-05T11:14:36.177Z</time>
      </trkpt>
      <trkpt lat="46.98169" lon="8.7212">
        <ele>587</ele>
        <time>2021-08-05T11:14:37.177Z</time>
      </trkpt>
      <trkpt lat="46.9817" lon="8.72121">
        <ele>586</ele>
        <time>2021-08-05T11:14:38.177Z</time>
      </trkpt>
      <trkpt lat="46.9817" lon="8.72123">
        <ele>585</ele>
        <time>2021-08-05T11:14:39.177Z</time>
      </trkpt>
      <trkpt lat="46.98171" lon="8.72124">
        <ele>584</ele>
        <time>2021-08-05T11:14:40.177Z</time>
      </trkpt>
      <trkpt lat="46.98171" lon="8.72126">
        <ele>583</ele>
        <time>2021-08-05T11:14:41.176Z</time>
      </trkpt>
      <trkpt lat="46.98172" lon="8.72127">
        <ele>582</ele>
        <time>2021-08-05T11:14:42.177Z</time>
      </trkpt>
      <trkpt lat="46.98172" lon="8.72129">
        <ele>582</ele>
        <time>2021-08-05T11:14:43.177Z</time>
      </trkpt>
      <trkpt lat="46.98173" lon="8.72131">
        <ele>582</ele>
        <time>2021-08-05T11:14:44.177Z</time>
      </trkpt>
      <trkpt lat="46.98173" lon="8.72132">
        <ele>581</ele>
        <time>2021-08-05T11:14:45.177Z</time>
      </trkpt>
      <trkpt lat="46.98173" lon="8.72134">
        <ele>581</ele>
        <time>2021-08-05T11:14:46.176Z</time>
      </trkpt>
      <trkpt lat="46.98174" lon="8.72135">
        <ele>581</ele>
        <time>2021-08-05T11:14:47.176Z</time>
      </trkpt>
      <trkpt lat="46.98174" lon="8.72136">
        <ele>581</ele>
        <time>2021-08-05T11:14:48.177Z</time>
      </trkpt>
      <trkpt lat="46.98175" lon="8.72138">
        <ele>581</ele>
        <time>2021-08-05T11:14:49.177Z</time>
      </trkpt>
      <trkpt lat="46.98175" lon="8.72139">
        <ele>581</ele>
        <time>2021-08-05T11:14:50.177Z</time>
      </trkpt>
      <trkpt lat="46.98176" lon="8.72141">
        <ele>581</ele>
        <time>2021-08-05T11:14:51.177Z</time>
      </trkpt>
      <trkpt lat="46.98177" lon="8.72142">
        <ele>581</ele>
        <time>2021-08-05T11:14:52.177Z</time>
      </trkpt>
      <trkpt lat="46.98177" lon="8.72144">
        <ele>581</ele>
        <time>2021-08-05T11:14:53.177Z</time>
      </trkpt>
      <trkpt lat="46.98177" lon="8.72145">
        <ele>581</ele>
        <time>2021-08-05T11:14:54.177Z</time>
      </trkpt>
      <trkpt lat="46.98178" lon="8.72147">
        <ele>581</ele>
        <time>2021-08-05T11:14:55.177Z</time>
      </trkpt>
      <trkpt lat="46.98178" lon="8.72149">
        <ele>580</ele>
        <time>2021-08-05T11:14:56.177Z</time>
      </trkpt>
      <trkpt lat="46.98178" lon="8.7215">
        <ele>580</ele>
        <time>2021-08-05T11:14:57.176Z</time>
      </trkpt>
      <trkpt lat="46.98179" lon="8.72152">
        <ele>580</ele>
        <time>2021-08-05T11:14:58.177Z</time>
      </trkpt>
      <trkpt lat="46.98179" lon="8.72154">
        <ele>580</ele>
        <time>2021-08-05T11:14:59.177Z</time>
      </trkpt>
      <trkpt lat="46.98179" lon="8.72156">
        <ele>580</ele>
        <time>2021-08-05T11:15:00.177Z</time>
      </trkpt>
      <trkpt lat="46.9818" lon="8.72158">
        <ele>580</ele>
        <time>2021-08-05T11:15:01.177Z</time>
      </trkpt>
      <trkpt lat="46.9818" lon="8.7216">
        <ele>580</ele>
        <time>2021-08-05T11:15:02.177Z</time>
      </trkpt>
      <trkpt lat="46.9818" lon="8.72162">
        <ele>580</ele>
        <time>2021-08-05T11:15:03.177Z</time>
      </trkpt>
      <trkpt lat="46.9818" lon="8.72164">
        <ele>580</ele>
        <time>2021-08-05T11:15:04.177Z</time>
      </trkpt>
      <trkpt lat="46.98181" lon="8.72166">
        <ele>580</ele>
        <time>2021-08-05T11:15:05.177Z</time>
      </trkpt>
      <trkpt lat="46.98181" lon="8.72168">
        <ele>580</ele>
        <time>2021-08-05T11:15:06.177Z</time>
      </trkpt>
      <trkpt lat="46.98181" lon="8.7217">
        <ele>580</ele>
        <time>2021-08-05T11:15:07.177Z</time>
      </trkpt>
      <trkpt lat="46.98181" lon="8.72171">
        <ele>580</ele>
        <time>2021-08-05T11:15:08.177Z</time>
      </trkpt>
      <trkpt lat="46.98181" lon="8.72174">
        <ele>580</ele>
        <time>2021-08-05T11:15:09.177Z</time>
      </trkpt>
      <trkpt lat="46.98182" lon="8.72175">
        <ele>580</ele>
        <time>2021-08-05T11:15:10.177Z</time>
      </trkpt>
      <trkpt lat="46.98182" lon="8.72177">
        <ele>581</ele>
        <time>2021-08-05T11:15:11.177Z</time>
      </trkpt>
      <trkpt lat="46.98182" lon="8.72179">
        <ele>581</ele>
        <time>2021-08-05T11:15:12.177Z</time>
      </trkpt>
      <trkpt lat="46.98182" lon="8.72181">
        <ele>582</ele>
        <time>2021-08-05T11:15:13.177Z</time>
      </trkpt>
      <trkpt lat="46.98182" lon="8.72183">
        <ele>582</ele>
        <time>2021-08-05T11:15:14.176Z</time>
      </trkpt>
      <trkpt lat="46.98182" lon="8.72185">
        <ele>582</ele>
        <time>2021-08-05T11:15:15.177Z</time>
      </trkpt>
      <trkpt lat="46.98182" lon="8.72187">
        <ele>582</ele>
        <time>2021-08-05T11:15:16.176Z</time>
      </trkpt>
      <trkpt lat="46.98182" lon="8.72188">
        <ele>582</ele>
        <time>2021-08-05T11:15:17.176Z</time>
      </trkpt>
      <trkpt lat="46.98182" lon="8.7219">
        <ele>582</ele>
        <time>2021-08-05T11:15:18.177Z</time>
      </trkpt>
      <trkpt lat="46.98183" lon="8.72191">
        <ele>582</ele>
        <time>2021-08-05T11:15:19.177Z</time>
      </trkpt>
      <trkpt lat="46.98183" lon="8.72193">
        <ele>581</ele>
        <time>2021-08-05T11:15:20.177Z</time>
      </trkpt>
      <trkpt lat="46.98183" lon="8.72194">
        <ele>580</ele>
        <time>2021-08-05T11:15:21.177Z</time>
      </trkpt>
      <trkpt lat="46.98183" lon="8.72196">
        <ele>580</ele>
        <time>2021-08-05T11:15:22.176Z</time>
      </trkpt>
      <trkpt lat="46.98183" lon="8.72198">
        <ele>580</ele>
        <time>2021-08-05T11:15:23.176Z</time>
      </trkpt>
      <trkpt lat="46.98182" lon="8.72199">
        <ele>580</ele>
        <time>2021-08-05T11:15:24.176Z</time>
      </trkpt>
      <trkpt lat="46.98182" lon="8.72201">
        <ele>580</ele>
        <time>2021-08-05T11:15:25.176Z</time>
      </trkpt>
      <trkpt lat="46.98182" lon="8.72203">
        <ele>579</ele>
        <time>2021-08-05T11:15:26.177Z</time>
      </trkpt>
      <trkpt lat="46.98182" lon="8.72205">
        <ele>580</ele>
        <time>2021-08-05T11:15:27.177Z</time>
      </trkpt>
      <trkpt lat="46.98182" lon="8.72207">
        <ele>580</ele>
        <time>2021-08-05T11:15:28.176Z</time>
      </trkpt>
      <trkpt lat="46.98182" lon="8.72209">
        <ele>579</ele>
        <time>2021-08-05T11:15:29.176Z</time>
      </trkpt>
      <trkpt lat="46.98182" lon="8.72211">
        <ele>579</ele>
        <time>2021-08-05T11:15:30.176Z</time>
      </trkpt>
      <trkpt lat="46.98183" lon="8.72213">
        <ele>580</ele>
        <time>2021-08-05T11:15:31.176Z</time>
      </trkpt>
      <trkpt lat="46.98183" lon="8.72215">
        <ele>580</ele>
        <time>2021-08-05T11:15:32.177Z</time>
      </trkpt>
      <trkpt lat="46.98183" lon="8.72217">
        <ele>580</ele>
        <time>2021-08-05T11:15:33.177Z</time>
      </trkpt>
      <trkpt lat="46.98184" lon="8.72219">
        <ele>579</ele>
        <time>2021-08-05T11:15:34.176Z</time>
      </trkpt>
      <trkpt lat="46.98184" lon="8.7222">
        <ele>579</ele>
        <time>2021-08-05T11:15:35.177Z</time>
      </trkpt>
      <trkpt lat="46.98184" lon="8.72221">
        <ele>580</ele>
        <time>2021-08-05T11:15:36.177Z</time>
      </trkpt>
      <trkpt lat="46.98184" lon="8.72223">
        <ele>580</ele>
        <time>2021-08-05T11:15:37.176Z</time>
      </trkpt>
      <trkpt lat="46.98184" lon="8.72225">
        <ele>581</ele>
        <time>2021-08-05T11:15:38.177Z</time>
      </trkpt>
      <trkpt lat="46.98184" lon="8.72227">
        <ele>581</ele>
        <time>2021-08-05T11:15:39.176Z</time>
      </trkpt>
      <trkpt lat="46.98184" lon="8.72228">
        <ele>581</ele>
        <time>2021-08-05T11:15:40.176Z</time>
      </trkpt>
      <trkpt lat="46.98184" lon="8.7223">
        <ele>582</ele>
        <time>2021-08-05T11:15:41.177Z</time>
      </trkpt>
      <trkpt lat="46.98184" lon="8.72231">
        <ele>581</ele>
        <time>2021-08-05T11:15:42.177Z</time>
      </trkpt>
      <trkpt lat="46.98184" lon="8.72233">
        <ele>581</ele>
        <time>2021-08-05T11:15:43.177Z</time>
      </trkpt>
      <trkpt lat="46.98184" lon="8.72235">
        <ele>581</ele>
        <time>2021-08-05T11:15:44.176Z</time>
      </trkpt>
      <trkpt lat="46.98184" lon="8.72236">
        <ele>581</ele>
        <time>2021-08-05T11:15:45.177Z</time>
      </trkpt>
      <trkpt lat="46.98184" lon="8.72238">
        <ele>580</ele>
        <time>2021-08-05T11:15:46.177Z</time>
      </trkpt>
      <trkpt lat="46.98184" lon="8.7224">
        <ele>580</ele>
        <time>2021-08-05T11:15:47.176Z</time>
      </trkpt>
      <trkpt lat="46.98185" lon="8.72241">
        <ele>579</ele>
        <time>2021-08-05T11:15:48.177Z</time>
      </trkpt>
      <trkpt lat="46.98185" lon="8.72243">
        <ele>579</ele>
        <time>2021-08-05T11:15:49.177Z</time>
      </trkpt>
      <trkpt lat="46.98185" lon="8.72245">
        <ele>580</ele>
        <time>2021-08-05T11:15:50.177Z</time>
      </trkpt>
      <trkpt lat="46.98185" lon="8.72246">
        <ele>580</ele>
        <time>2021-08-05T11:15:51.177Z</time>
      </trkpt>
      <trkpt lat="46.98185" lon="8.72248">
        <ele>580</ele>
        <time>2021-08-05T11:15:52.177Z</time>
      </trkpt>
      <trkpt lat="46.98185" lon="8.7225">
        <ele>580</ele>
        <time>2021-08-05T11:15:53.176Z</time>
      </trkpt>
      <trkpt lat="46.98185" lon="8.72252">
        <ele>581</ele>
        <time>2021-08-05T11:15:54.177Z</time>
      </trkpt>
      <trkpt lat="46.98186" lon="8.72253">
        <ele>581</ele>
        <time>2021-08-05T11:15:55.177Z</time>
      </trkpt>
      <trkpt lat="46.98186" lon="8.72255">
        <ele>582</ele>
        <time>2021-08-05T11:15:56.177Z</time>
      </trkpt>
      <trkpt lat="46.98186" lon="8.72257">
        <ele>582</ele>
        <time>2021-08-05T11:15:57.176Z</time>
      </trkpt>
      <trkpt lat="46.98186" lon="8.72259">
        <ele>582</ele>
        <time>2021-08-05T11:15:58.176Z</time>
      </trkpt>
      <trkpt lat="46.98186" lon="8.72261">
        <ele>582</ele>
        <time>2021-08-05T11:15:59.177Z</time>
      </trkpt>
      <trkpt lat="46.98186" lon="8.72263">
        <ele>582</ele>
        <time>2021-08-05T11:16:00.176Z</time>
      </trkpt>
      <trkpt lat="46.98186" lon="8.72265">
        <ele>582</ele>
        <time>2021-08-05T11:16:01.177Z</time>
      </trkpt>
      <trkpt lat="46.98186" lon="8.72266">
        <ele>582</ele>
        <time>2021-08-05T11:16:02.176Z</time>
      </trkpt>
      <trkpt lat="46.98185" lon="8.72268">
        <ele>582</ele>
        <time>2021-08-05T11:16:03.176Z</time>
      </trkpt>
      <trkpt lat="46.98185" lon="8.7227">
        <ele>582</ele>
        <time>2021-08-05T11:16:04.177Z</time>
      </trkpt>
      <trkpt lat="46.98185" lon="8.72271">
        <ele>582</ele>
        <time>2021-08-05T11:16:05.176Z</time>
      </trkpt>
      <trkpt lat="46.98185" lon="8.72273">
        <ele>582</ele>
        <time>2021-08-05T11:16:06.177Z</time>
      </trkpt>
      <trkpt lat="46.98185" lon="8.72274">
        <ele>581</ele>
        <time>2021-08-05T11:16:07.177Z</time>
      </trkpt>
      <trkpt lat="46.98186" lon="8.72276">
        <ele>581</ele>
        <time>2021-08-05T11:16:08.177Z</time>
      </trkpt>
      <trkpt lat="46.98186" lon="8.72278">
        <ele>581</ele>
        <time>2021-08-05T11:16:09.177Z</time>
      </trkpt>
      <trkpt lat="46.98185" lon="8.72279">
        <ele>581</ele>
        <time>2021-08-05T11:16:10.177Z</time>
      </trkpt>
      <trkpt lat="46.98185" lon="8.72281">
        <ele>581</ele>
        <time>2021-08-05T11:16:11.176Z</time>
      </trkpt>
      <trkpt lat="46.98185" lon="8.72283">
        <ele>581</ele>
        <time>2021-08-05T11:16:12.177Z</time>
      </trkpt>
      <trkpt lat="46.98185" lon="8.72285">
        <ele>582</ele>
        <time>2021-08-05T11:16:13.177Z</time>
      </trkpt>
      <trkpt lat="46.98185" lon="8.72287">
        <ele>582</ele>
        <time>2021-08-05T11:16:14.177Z</time>
      </trkpt>
      <trkpt lat="46.98184" lon="8.72288">
        <ele>582</ele>
        <time>2021-08-05T11:16:15.177Z</time>
      </trkpt>
      <trkpt lat="46.98184" lon="8.7229">
        <ele>582</ele>
        <time>2021-08-05T11:16:16.177Z</time>
      </trkpt>
      <trkpt lat="46.98184" lon="8.72291">
        <ele>582</ele>
        <time>2021-08-05T11:16:17.176Z</time>
      </trkpt>
      <trkpt lat="46.98184" lon="8.72293">
        <ele>582</ele>
        <time>2021-08-05T11:16:18.177Z</time>
      </trkpt>
      <trkpt lat="46.98184" lon="8.72295">
        <ele>582</ele>
        <time>2021-08-05T11:16:19.176Z</time>
      </trkpt>
      <trkpt lat="46.98183" lon="8.72297">
        <ele>581</ele>
        <time>2021-08-05T11:16:20.177Z</time>
      </trkpt>
      <trkpt lat="46.98184" lon="8.72298">
        <ele>580</ele>
        <time>2021-08-05T11:16:21.177Z</time>
      </trkpt>
      <trkpt lat="46.98184" lon="8.723">
        <ele>579</ele>
        <time>2021-08-05T11:16:22.177Z</time>
      </trkpt>
      <trkpt lat="46.98184" lon="8.72302">
        <ele>579</ele>
        <time>2021-08-05T11:16:23.176Z</time>
      </trkpt>
      <trkpt lat="46.98184" lon="8.72304">
        <ele>579</ele>
        <time>2021-08-05T11:16:24.176Z</time>
      </trkpt>
      <trkpt lat="46.98184" lon="8.72307">
        <ele>579</ele>
        <time>2021-08-05T11:16:25.177Z</time>
      </trkpt>
      <trkpt lat="46.98184" lon="8.72309">
        <ele>578</ele>
        <time>2021-08-05T11:16:26.177Z</time>
      </trkpt>
      <trkpt lat="46.98184" lon="8.72311">
        <ele>578</ele>
        <time>2021-08-05T11:16:27.176Z</time>
      </trkpt>
      <trkpt lat="46.98184" lon="8.72313">
        <ele>578</ele>
        <time>2021-08-05T11:16:28.176Z</time>
      </trkpt>
      <trkpt lat="46.98184" lon="8.72314">
        <ele>578</ele>
        <time>2021-08-05T11:16:29.176Z</time>
      </trkpt>
      <trkpt lat="46.98184" lon="8.72316">
        <ele>578</ele>
        <time>2021-08-05T11:16:30.176Z</time>
      </trkpt>
      <trkpt lat="46.98184" lon="8.72318">
        <ele>578</ele>
        <time>2021-08-05T11:16:31.177Z</time>
      </trkpt>
      <trkpt lat="46.98184" lon="8.7232">
        <ele>579</ele>
        <time>2021-08-05T11:16:32.176Z</time>
      </trkpt>
      <trkpt lat="46.98185" lon="8.72322">
        <ele>579</ele>
        <time>2021-08-05T11:16:33.176Z</time>
      </trkpt>
      <trkpt lat="46.98185" lon="8.72324">
        <ele>579</ele>
        <time>2021-08-05T11:16:34.177Z</time>
      </trkpt>
      <trkpt lat="46.98185" lon="8.72326">
        <ele>579</ele>
        <time>2021-08-05T11:16:35.176Z</time>
      </trkpt>
      <trkpt lat="46.98185" lon="8.72328">
        <ele>580</ele>
        <time>2021-08-05T11:16:36.176Z</time>
      </trkpt>
      <trkpt lat="46.98185" lon="8.7233">
        <ele>580</ele>
        <time>2021-08-05T11:16:37.176Z</time>
      </trkpt>
      <trkpt lat="46.98186" lon="8.72332">
        <ele>580</ele>
        <time>2021-08-05T11:16:38.177Z</time>
      </trkpt>
      <trkpt lat="46.98186" lon="8.72335">
        <ele>581</ele>
        <time>2021-08-05T11:16:39.176Z</time>
      </trkpt>
      <trkpt lat="46.98186" lon="8.72337">
        <ele>581</ele>
        <time>2021-08-05T11:16:40.176Z</time>
      </trkpt>
      <trkpt lat="46.98186" lon="8.72339">
        <ele>581</ele>
        <time>2021-08-05T11:16:41.176Z</time>
      </trkpt>
      <trkpt lat="46.98186" lon="8.7234">
        <ele>580</ele>
        <time>2021-08-05T11:16:42.177Z</time>
      </trkpt>
      <trkpt lat="46.98186" lon="8.72342">
        <ele>580</ele>
        <time>2021-08-05T11:16:43.177Z</time>
      </trkpt>
      <trkpt lat="46.98186" lon="8.72344">
        <ele>580</ele>
        <time>2021-08-05T11:16:44.176Z</time>
      </trkpt>
      <trkpt lat="46.98186" lon="8.72346">
        <ele>580</ele>
        <time>2021-08-05T11:16:45.177Z</time>
      </trkpt>
      <trkpt lat="46.98186" lon="8.72348">
        <ele>580</ele>
        <time>2021-08-05T11:16:46.177Z</time>
      </trkpt>
      <trkpt lat="46.98186" lon="8.72349">
        <ele>580</ele>
        <time>2021-08-05T11:16:47.176Z</time>
      </trkpt>
      <trkpt lat="46.98185" lon="8.72351">
        <ele>580</ele>
        <time>2021-08-05T11:16:48.177Z</time>
      </trkpt>
      <trkpt lat="46.98185" lon="8.72354">
        <ele>579</ele>
        <time>2021-08-05T11:16:49.176Z</time>
      </trkpt>
      <trkpt lat="46.98185" lon="8.72356">
        <ele>579</ele>
        <time>2021-08-05T11:16:50.177Z</time>
      </trkpt>
      <trkpt lat="46.98185" lon="8.72358">
        <ele>579</ele>
        <time>2021-08-05T11:16:51.177Z</time>
      </trkpt>
      <trkpt lat="46.98185" lon="8.7236">
        <ele>580</ele>
        <time>2021-08-05T11:16:52.177Z</time>
      </trkpt>
      <trkpt lat="46.98185" lon="8.72363">
        <ele>580</ele>
        <time>2021-08-05T11:16:53.177Z</time>
      </trkpt>
      <trkpt lat="46.98185" lon="8.72365">
        <ele>580</ele>
        <time>2021-08-05T11:16:54.177Z</time>
      </trkpt>
      <trkpt lat="46.98185" lon="8.72367">
        <ele>580</ele>
        <time>2021-08-05T11:16:55.177Z</time>
      </trkpt>
      <trkpt lat="46.98185" lon="8.72368">
        <ele>580</ele>
        <time>2021-08-05T11:16:56.177Z</time>
      </trkpt>
      <trkpt lat="46.98184" lon="8.7237">
        <ele>580</ele>
        <time>2021-08-05T11:16:57.176Z</time>
      </trkpt>
      <trkpt lat="46.98184" lon="8.72372">
        <ele>580</ele>
        <time>2021-08-05T11:16:58.177Z</time>
      </trkpt>
      <trkpt lat="46.98184" lon="8.72374">
        <ele>580</ele>
        <time>2021-08-05T11:16:59.176Z</time>
      </trkpt>
      <trkpt lat="46.98184" lon="8.72376">
        <ele>580</ele>
        <time>2021-08-05T11:17:00.177Z</time>
      </trkpt>
      <trkpt lat="46.98183" lon="8.72378">
        <ele>580</ele>
        <time>2021-08-05T11:17:01.176Z</time>
      </trkpt>
      <trkpt lat="46.98183" lon="8.7238">
        <ele>580</ele>
        <time>2021-08-05T11:17:02.176Z</time>
      </trkpt>
      <trkpt lat="46.98183" lon="8.72382">
        <ele>580</ele>
        <time>2021-08-05T11:17:03.177Z</time>
      </trkpt>
      <trkpt lat="46.98182" lon="8.72384">
        <ele>580</ele>
        <time>2021-08-05T11:17:04.176Z</time>
      </trkpt>
      <trkpt lat="46.98182" lon="8.72386">
        <ele>581</ele>
        <time>2021-08-05T11:17:05.176Z</time>
      </trkpt>
      <trkpt lat="46.98182" lon="8.72388">
        <ele>580</ele>
        <time>2021-08-05T11:17:06.177Z</time>
      </trkpt>
      <trkpt lat="46.98182" lon="8.7239">
        <ele>580</ele>
        <time>2021-08-05T11:17:07.176Z</time>
      </trkpt>
      <trkpt lat="46.98182" lon="8.72392">
        <ele>580</ele>
        <time>2021-08-05T11:17:08.176Z</time>
      </trkpt>
      <trkpt lat="46.98182" lon="8.72394">
        <ele>581</ele>
        <time>2021-08-05T11:17:09.176Z</time>
      </trkpt>
      <trkpt lat="46.98182" lon="8.72396">
        <ele>581</ele>
        <time>2021-08-05T11:17:10.176Z</time>
      </trkpt>
      <trkpt lat="46.98182" lon="8.72398">
        <ele>582</ele>
        <time>2021-08-05T11:17:11.176Z</time>
      </trkpt>
      <trkpt lat="46.98182" lon="8.724">
        <ele>582</ele>
        <time>2021-08-05T11:17:12.176Z</time>
      </trkpt>
      <trkpt lat="46.98182" lon="8.72402">
        <ele>583</ele>
        <time>2021-08-05T11:17:13.176Z</time>
      </trkpt>
      <trkpt lat="46.98182" lon="8.72404">
        <ele>583</ele>
        <time>2021-08-05T11:17:14.177Z</time>
      </trkpt>
      <trkpt lat="46.98182" lon="8.72406">
        <ele>584</ele>
        <time>2021-08-05T11:17:15.176Z</time>
      </trkpt>
      <trkpt lat="46.98182" lon="8.72408">
        <ele>584</ele>
        <time>2021-08-05T11:17:16.177Z</time>
      </trkpt>
      <trkpt lat="46.98182" lon="8.7241">
        <ele>585</ele>
        <time>2021-08-05T11:17:17.177Z</time>
      </trkpt>
      <trkpt lat="46.98182" lon="8.72412">
        <ele>585</ele>
        <time>2021-08-05T11:17:18.176Z</time>
      </trkpt>
      <trkpt lat="46.98182" lon="8.72414">
        <ele>585</ele>
        <time>2021-08-05T11:17:19.176Z</time>
      </trkpt>
      <trkpt lat="46.98182" lon="8.72416">
        <ele>585</ele>
        <time>2021-08-05T11:17:20.176Z</time>
      </trkpt>
      <trkpt lat="46.98182" lon="8.72418">
        <ele>585</ele>
        <time>2021-08-05T11:17:21.177Z</time>
      </trkpt>
      <trkpt lat="46.98182" lon="8.7242">
        <ele>585</ele>
        <time>2021-08-05T11:17:22.176Z</time>
      </trkpt>
      <trkpt lat="46.98182" lon="8.72422">
        <ele>585</ele>
        <time>2021-08-05T11:17:23.176Z</time>
      </trkpt>
      <trkpt lat="46.98182" lon="8.72425">
        <ele>585</ele>
        <time>2021-08-05T11:17:24.176Z</time>
      </trkpt>
      <trkpt lat="46.98182" lon="8.72426">
        <ele>585</ele>
        <time>2021-08-05T11:17:25.176Z</time>
      </trkpt>
      <trkpt lat="46.98182" lon="8.72428">
        <ele>584</ele>
        <time>2021-08-05T11:17:26.176Z</time>
      </trkpt>
      <trkpt lat="46.98182" lon="8.72431">
        <ele>584</ele>
        <time>2021-08-05T11:17:27.176Z</time>
      </trkpt>
      <trkpt lat="46.98182" lon="8.72433">
        <ele>584</ele>
        <time>2021-08-05T11:17:28.177Z</time>
      </trkpt>
      <trkpt lat="46.98182" lon="8.72435">
        <ele>584</ele>
        <time>2021-08-05T11:17:29.177Z</time>
      </trkpt>
      <trkpt lat="46.98182" lon="8.72437">
        <ele>583</ele>
        <time>2021-08-05T11:17:30.176Z</time>
      </trkpt>
      <trkpt lat="46.98182" lon="8.72439">
        <ele>583</ele>
        <time>2021-08-05T11:17:31.176Z</time>
      </trkpt>
      <trkpt lat="46.98181" lon="8.72441">
        <ele>583</ele>
        <time>2021-08-05T11:17:32.176Z</time>
      </trkpt>
      <trkpt lat="46.98181" lon="8.72443">
        <ele>583</ele>
        <time>2021-08-05T11:17:33.177Z</time>
      </trkpt>
      <trkpt lat="46.98181" lon="8.72445">
        <ele>583</ele>
        <time>2021-08-05T11:17:34.177Z</time>
      </trkpt>
      <trkpt lat="46.98181" lon="8.72447">
        <ele>583</ele>
        <time>2021-08-05T11:17:35.176Z</time>
      </trkpt>
      <trkpt lat="46.98181" lon="8.72448">
        <ele>582</ele>
        <time>2021-08-05T11:17:36.176Z</time>
      </trkpt>
      <trkpt lat="46.98181" lon="8.7245">
        <ele>582</ele>
        <time>2021-08-05T11:17:37.176Z</time>
      </trkpt>
      <trkpt lat="46.98181" lon="8.72452">
        <ele>581</ele>
        <time>2021-08-05T11:17:38.177Z</time>
      </trkpt>
      <trkpt lat="46.98181" lon="8.72454">
        <ele>581</ele>
        <time>2021-08-05T11:17:39.177Z</time>
      </trkpt>
      <trkpt lat="46.98181" lon="8.72455">
        <ele>581</ele>
        <time>2021-08-05T11:17:40.176Z</time>
      </trkpt>
      <trkpt lat="46.98181" lon="8.72457">
        <ele>581</ele>
        <time>2021-08-05T11:17:41.176Z</time>
      </trkpt>
      <trkpt lat="46.98181" lon="8.72459">
        <ele>581</ele>
        <time>2021-08-05T11:17:42.176Z</time>
      </trkpt>
      <trkpt lat="46.98181" lon="8.72461">
        <ele>581</ele>
        <time>2021-08-05T11:17:43.176Z</time>
      </trkpt>
      <trkpt lat="46.98181" lon="8.72462">
        <ele>581</ele>
        <time>2021-08-05T11:17:44.176Z</time>
      </trkpt>
      <trkpt lat="46.98181" lon="8.72464">
        <ele>581</ele>
        <time>2021-08-05T11:17:45.176Z</time>
      </trkpt>
      <trkpt lat="46.98181" lon="8.72467">
        <ele>581</ele>
        <time>2021-08-05T11:17:46.176Z</time>
      </trkpt>
      <trkpt lat="46.9818" lon="8.72469">
        <ele>581</ele>
        <time>2021-08-05T11:17:47.176Z</time>
      </trkpt>
      <trkpt lat="46.9818" lon="8.72471">
        <ele>581</ele>
        <time>2021-08-05T11:17:48.177Z</time>
      </trkpt>
      <trkpt lat="46.9818" lon="8.72472">
        <ele>582</ele>
        <time>2021-08-05T11:17:49.176Z</time>
      </trkpt>
      <trkpt lat="46.9818" lon="8.72475">
        <ele>582</ele>
        <time>2021-08-05T11:17:50.176Z</time>
      </trkpt>
      <trkpt lat="46.98179" lon="8.72476">
        <ele>582</ele>
        <time>2021-08-05T11:17:51.176Z</time>
      </trkpt>
      <trkpt lat="46.98179" lon="8.72477">
        <ele>582</ele>
        <time>2021-08-05T11:17:52.176Z</time>
      </trkpt>
      <trkpt lat="46.98179" lon="8.72479">
        <ele>582</ele>
        <time>2021-08-05T11:17:53.177Z</time>
      </trkpt>
      <trkpt lat="46.98178" lon="8.72481">
        <ele>582</ele>
        <time>2021-08-05T11:17:54.176Z</time>
      </trkpt>
      <trkpt lat="46.98178" lon="8.72483">
        <ele>581</ele>
        <time>2021-08-05T11:17:55.176Z</time>
      </trkpt>
      <trkpt lat="46.98178" lon="8.72485">
        <ele>582</ele>
        <time>2021-08-05T11:17:56.176Z</time>
      </trkpt>
      <trkpt lat="46.98177" lon="8.72486">
        <ele>582</ele>
        <time>2021-08-05T11:17:57.176Z</time>
      </trkpt>
      <trkpt lat="46.98177" lon="8.72488">
        <ele>582</ele>
        <time>2021-08-05T11:17:58.176Z</time>
      </trkpt>
      <trkpt lat="46.98176" lon="8.7249">
        <ele>582</ele>
        <time>2021-08-05T11:17:59.176Z</time>
      </trkpt>
      <trkpt lat="46.98176" lon="8.72492">
        <ele>582</ele>
        <time>2021-08-05T11:18:00.176Z</time>
      </trkpt>
      <trkpt lat="46.98175" lon="8.72494">
        <ele>583</ele>
        <time>2021-08-05T11:18:01.176Z</time>
      </trkpt>
      <trkpt lat="46.98175" lon="8.72497">
        <ele>583</ele>
        <time>2021-08-05T11:18:02.176Z</time>
      </trkpt>
      <trkpt lat="46.98174" lon="8.72498">
        <ele>583</ele>
        <time>2021-08-05T11:18:03.177Z</time>
      </trkpt>
      <trkpt lat="46.98174" lon="8.72501">
        <ele>583</ele>
        <time>2021-08-05T11:18:04.177Z</time>
      </trkpt>
      <trkpt lat="46.98173" lon="8.72502">
        <ele>583</ele>
        <time>2021-08-05T11:18:05.176Z</time>
      </trkpt>
      <trkpt lat="46.98173" lon="8.72504">
        <ele>583</ele>
        <time>2021-08-05T11:18:06.176Z</time>
      </trkpt>
      <trkpt lat="46.98172" lon="8.72506">
        <ele>583</ele>
        <time>2021-08-05T11:18:07.176Z</time>
      </trkpt>
      <trkpt lat="46.98172" lon="8.72508">
        <ele>583</ele>
        <time>2021-08-05T11:18:08.177Z</time>
      </trkpt>
      <trkpt lat="46.98172" lon="8.72509">
        <ele>583</ele>
        <time>2021-08-05T11:18:09.177Z</time>
      </trkpt>
      <trkpt lat="46.98171" lon="8.72511">
        <ele>583</ele>
        <time>2021-08-05T11:18:10.177Z</time>
      </trkpt>
      <trkpt lat="46.98171" lon="8.72512">
        <ele>582</ele>
        <time>2021-08-05T11:18:11.176Z</time>
      </trkpt>
      <trkpt lat="46.98171" lon="8.72514">
        <ele>582</ele>
        <time>2021-08-05T11:18:12.176Z</time>
      </trkpt>
      <trkpt lat="46.9817" lon="8.72516">
        <ele>582</ele>
        <time>2021-08-05T11:18:13.177Z</time>
      </trkpt>
      <trkpt lat="46.9817" lon="8.72518">
        <ele>581</ele>
        <time>2021-08-05T11:18:14.176Z</time>
      </trkpt>
      <trkpt lat="46.9817" lon="8.72519">
        <ele>581</ele>
        <time>2021-08-05T11:18:15.176Z</time>
      </trkpt>
      <trkpt lat="46.9817" lon="8.72521">
        <ele>580</ele>
        <time>2021-08-05T11:18:16.177Z</time>
      </trkpt>
      <trkpt lat="46.98169" lon="8.72523">
        <ele>580</ele>
        <time>2021-08-05T11:18:17.176Z</time>
      </trkpt>
      <trkpt lat="46.98169" lon="8.72524">
        <ele>580</ele>
        <time>2021-08-05T11:18:18.176Z</time>
      </trkpt>
      <trkpt lat="46.98169" lon="8.72526">
        <ele>580</ele>
        <time>2021-08-05T11:18:19.176Z</time>
      </trkpt>
      <trkpt lat="46.98168" lon="8.72528">
        <ele>580</ele>
        <time>2021-08-05T11:18:20.176Z</time>
      </trkpt>
      <trkpt lat="46.98168" lon="8.72529">
        <ele>581</ele>
        <time>2021-08-05T11:18:21.176Z</time>
      </trkpt>
      <trkpt lat="46.98168" lon="8.72531">
        <ele>581</ele>
        <time>2021-08-05T11:18:22.176Z</time>
      </trkpt>
      <trkpt lat="46.98167" lon="8.72533">
        <ele>581</ele>
        <time>2021-08-05T11:18:23.177Z</time>
      </trkpt>
      <trkpt lat="46.98167" lon="8.72535">
        <ele>581</ele>
        <time>2021-08-05T11:18:24.176Z</time>
      </trkpt>
      <trkpt lat="46.98167" lon="8.72536">
        <ele>581</ele>
        <time>2021-08-05T11:18:25.177Z</time>
      </trkpt>
      <trkpt lat="46.98167" lon="8.72538">
        <ele>581</ele>
        <time>2021-08-05T11:18:26.177Z</time>
      </trkpt>
      <trkpt lat="46.98167" lon="8.7254">
        <ele>581</ele>
        <time>2021-08-05T11:18:27.177Z</time>
      </trkpt>
      <trkpt lat="46.98166" lon="8.72542">
        <ele>581</ele>
        <time>2021-08-05T11:18:28.177Z</time>
      </trkpt>
      <trkpt lat="46.98166" lon="8.72543">
        <ele>581</ele>
        <time>2021-08-05T11:18:29.177Z</time>
      </trkpt>
      <trkpt lat="46.98165" lon="8.72545">
        <ele>581</ele>
        <time>2021-08-05T11:18:30.177Z</time>
      </trkpt>
      <trkpt lat="46.98165" lon="8.72547">
        <ele>581</ele>
        <time>2021-08-05T11:18:31.177Z</time>
      </trkpt>
      <trkpt lat="46.98164" lon="8.72549">
        <ele>582</ele>
        <time>2021-08-05T11:18:32.177Z</time>
      </trkpt>
      <trkpt lat="46.98164" lon="8.7255">
        <ele>582</ele>
        <time>2021-08-05T11:18:33.177Z</time>
      </trkpt>
      <trkpt lat="46.98163" lon="8.72552">
        <ele>582</ele>
        <time>2021-08-05T11:18:34.177Z</time>
      </trkpt>
      <trkpt lat="46.98163" lon="8.72554">
        <ele>582</ele>
        <time>2021-08-05T11:18:35.176Z</time>
      </trkpt>
      <trkpt lat="46.98162" lon="8.72555">
        <ele>581</ele>
        <time>2021-08-05T11:18:36.177Z</time>
      </trkpt>
      <trkpt lat="46.98162" lon="8.72557">
        <ele>581</ele>
        <time>2021-08-05T11:18:37.177Z</time>
      </trkpt>
      <trkpt lat="46.98161" lon="8.72558">
        <ele>581</ele>
        <time>2021-08-05T11:18:40.298Z</time>
      </trkpt>
      <trkpt lat="46.98161" lon="8.7256">
        <ele>581</ele>
        <time>2021-08-05T11:18:41.298Z</time>
      </trkpt>
      <trkpt lat="46.9816" lon="8.72561">
        <ele>581</ele>
        <time>2021-08-05T11:18:42.298Z</time>
      </trkpt>
      <trkpt lat="46.98159" lon="8.72562">
        <ele>581</ele>
        <time>2021-08-05T11:18:43.299Z</time>
      </trkpt>
      <trkpt lat="46.98158" lon="8.72563">
        <ele>580</ele>
        <time>2021-08-05T11:18:44.298Z</time>
      </trkpt>
      <trkpt lat="46.98158" lon="8.72565">
        <ele>580</ele>
        <time>2021-08-05T11:18:45.298Z</time>
      </trkpt>
      <trkpt lat="46.98157" lon="8.72566">
        <ele>579</ele>
        <time>2021-08-05T11:18:46.298Z</time>
      </trkpt>
      <trkpt lat="46.98157" lon="8.72568">
        <ele>579</ele>
        <time>2021-08-05T11:18:47.298Z</time>
      </trkpt>
      <trkpt lat="46.98156" lon="8.72569">
        <ele>579</ele>
        <time>2021-08-05T11:18:48.298Z</time>
      </trkpt>
      <trkpt lat="46.98155" lon="8.72571">
        <ele>579</ele>
        <time>2021-08-05T11:18:49.299Z</time>
      </trkpt>
      <trkpt lat="46.98154" lon="8.72572">
        <ele>580</ele>
        <time>2021-08-05T11:18:50.298Z</time>
      </trkpt>
      <trkpt lat="46.98153" lon="8.72573">
        <ele>580</ele>
        <time>2021-08-05T11:18:51.298Z</time>
      </trkpt>
      <trkpt lat="46.98152" lon="8.72574">
        <ele>580</ele>
        <time>2021-08-05T11:18:52.298Z</time>
      </trkpt>
      <trkpt lat="46.98152" lon="8.72576">
        <ele>581</ele>
        <time>2021-08-05T11:18:53.298Z</time>
      </trkpt>
      <trkpt lat="46.98152" lon="8.72577">
        <ele>582</ele>
        <time>2021-08-05T11:18:54.299Z</time>
      </trkpt>
      <trkpt lat="46.98151" lon="8.72579">
        <ele>582</ele>
        <time>2021-08-05T11:18:55.299Z</time>
      </trkpt>
      <trkpt lat="46.98151" lon="8.7258">
        <ele>583</ele>
        <time>2021-08-05T11:18:56.299Z</time>
      </trkpt>
      <trkpt lat="46.9815" lon="8.72582">
        <ele>584</ele>
        <time>2021-08-05T11:18:57.298Z</time>
      </trkpt>
      <trkpt lat="46.9815" lon="8.72584">
        <ele>584</ele>
        <time>2021-08-05T11:18:58.299Z</time>
      </trkpt>
      <trkpt lat="46.9815" lon="8.72584">
        <ele>585</ele>
        <time>2021-08-05T11:18:59.298Z</time>
      </trkpt>
      <trkpt lat="46.9815" lon="8.72584">
        <ele>585</ele>
        <time>2021-08-05T11:19:00.298Z</time>
      </trkpt>
      <trkpt lat="46.98149" lon="8.72584">
        <ele>585</ele>
        <time>2021-08-05T11:19:01.299Z</time>
      </trkpt>
      <trkpt lat="46.98148" lon="8.72585">
        <ele>585</ele>
        <time>2021-08-05T11:19:02.299Z</time>
      </trkpt>
      <trkpt lat="46.98147" lon="8.72585">
        <ele>585</ele>
        <time>2021-08-05T11:19:03.298Z</time>
      </trkpt>
      <trkpt lat="46.98146" lon="8.72586">
        <ele>585</ele>
        <time>2021-08-05T11:19:04.299Z</time>
      </trkpt>
      <trkpt lat="46.98146" lon="8.72587">
        <ele>585</ele>
        <time>2021-08-05T11:19:05.299Z</time>
      </trkpt>
      <trkpt lat="46.98145" lon="8.72589">
        <ele>585</ele>
        <time>2021-08-05T11:19:06.299Z</time>
      </trkpt>
      <trkpt lat="46.98145" lon="8.7259">
        <ele>584</ele>
        <time>2021-08-05T11:19:07.298Z</time>
      </trkpt>
      <trkpt lat="46.98144" lon="8.72591">
        <ele>584</ele>
        <time>2021-08-05T11:19:08.299Z</time>
      </trkpt>
      <trkpt lat="46.98143" lon="8.72592">
        <ele>584</ele>
        <time>2021-08-05T11:19:09.299Z</time>
      </trkpt>
      <trkpt lat="46.98143" lon="8.72593">
        <ele>584</ele>
        <time>2021-08-05T11:19:10.298Z</time>
      </trkpt>
      <trkpt lat="46.98142" lon="8.72594">
        <ele>584</ele>
        <time>2021-08-05T11:19:11.299Z</time>
      </trkpt>
      <trkpt lat="46.98141" lon="8.72594">
        <ele>584</ele>
        <time>2021-08-05T11:19:12.299Z</time>
      </trkpt>
      <trkpt lat="46.9814" lon="8.72596">
        <ele>584</ele>
        <time>2021-08-05T11:19:13.299Z</time>
      </trkpt>
      <trkpt lat="46.9814" lon="8.72597">
        <ele>584</ele>
        <time>2021-08-05T11:19:14.299Z</time>
      </trkpt>
      <trkpt lat="46.98139" lon="8.72598">
        <ele>585</ele>
        <time>2021-08-05T11:19:15.299Z</time>
      </trkpt>
      <trkpt lat="46.98138" lon="8.72599">
        <ele>585</ele>
        <time>2021-08-05T11:19:16.298Z</time>
      </trkpt>
      <trkpt lat="46.98137" lon="8.726">
        <ele>585</ele>
        <time>2021-08-05T11:19:17.298Z</time>
      </trkpt>
      <trkpt lat="46.98137" lon="8.72602">
        <ele>585</ele>
        <time>2021-08-05T11:19:18.299Z</time>
      </trkpt>
      <trkpt lat="46.98137" lon="8.72603">
        <ele>585</ele>
        <time>2021-08-05T11:19:19.299Z</time>
      </trkpt>
      <trkpt lat="46.98136" lon="8.72604">
        <ele>585</ele>
        <time>2021-08-05T11:19:20.299Z</time>
      </trkpt>
      <trkpt lat="46.98135" lon="8.72604">
        <ele>585</ele>
        <time>2021-08-05T11:19:21.299Z</time>
      </trkpt>
      <trkpt lat="46.98135" lon="8.72604">
        <ele>585</ele>
        <time>2021-08-05T11:19:22.298Z</time>
      </trkpt>
      <trkpt lat="46.98135" lon="8.72605">
        <ele>586</ele>
        <time>2021-08-05T11:19:23.299Z</time>
      </trkpt>
      <trkpt lat="46.98135" lon="8.72605">
        <ele>586</ele>
        <time>2021-08-05T11:19:24.300Z</time>
      </trkpt>
      <trkpt lat="46.98135" lon="8.72605">
        <ele>586</ele>
        <time>2021-08-05T11:19:25.300Z</time>
      </trkpt>
      <trkpt lat="46.98135" lon="8.72606">
        <ele>586</ele>
        <time>2021-08-05T11:19:26.300Z</time>
      </trkpt>
      <trkpt lat="46.98135" lon="8.72608">
        <ele>587</ele>
        <time>2021-08-05T11:19:27.300Z</time>
      </trkpt>
      <trkpt lat="46.98135" lon="8.72609">
        <ele>587</ele>
        <time>2021-08-05T11:19:28.299Z</time>
      </trkpt>
      <trkpt lat="46.98134" lon="8.72611">
        <ele>585</ele>
        <time>2021-08-05T11:19:29.299Z</time>
      </trkpt>
      <trkpt lat="46.98133" lon="8.72612">
        <ele>585</ele>
        <time>2021-08-05T11:19:30.299Z</time>
      </trkpt>
      <trkpt lat="46.98133" lon="8.72613">
        <ele>586</ele>
        <time>2021-08-05T11:19:31.299Z</time>
      </trkpt>
      <trkpt lat="46.98132" lon="8.72614">
        <ele>586</ele>
        <time>2021-08-05T11:19:32.299Z</time>
      </trkpt>
      <trkpt lat="46.98131" lon="8.72614">
        <ele>585</ele>
        <time>2021-08-05T11:19:33.300Z</time>
      </trkpt>
      <trkpt lat="46.98131" lon="8.72616">
        <ele>585</ele>
        <time>2021-08-05T11:19:34.300Z</time>
      </trkpt>
      <trkpt lat="46.98131" lon="8.72617">
        <ele>585</ele>
        <time>2021-08-05T11:19:35.299Z</time>
      </trkpt>
      <trkpt lat="46.9813" lon="8.72618">
        <ele>585</ele>
        <time>2021-08-05T11:19:36.299Z</time>
      </trkpt>
      <trkpt lat="46.9813" lon="8.72619">
        <ele>586</ele>
        <time>2021-08-05T11:19:37.300Z</time>
      </trkpt>
      <trkpt lat="46.9813" lon="8.7262">
        <ele>586</ele>
        <time>2021-08-05T11:19:38.300Z</time>
      </trkpt>
      <trkpt lat="46.98129" lon="8.72621">
        <ele>586</ele>
        <time>2021-08-05T11:19:39.300Z</time>
      </trkpt>
      <trkpt lat="46.98129" lon="8.72622">
        <ele>586</ele>
        <time>2021-08-05T11:19:40.299Z</time>
      </trkpt>
      <trkpt lat="46.98129" lon="8.72623">
        <ele>586</ele>
        <time>2021-08-05T11:19:41.299Z</time>
      </trkpt>
      <trkpt lat="46.98129" lon="8.72624">
        <ele>586</ele>
        <time>2021-08-05T11:19:42.300Z</time>
      </trkpt>
      <trkpt lat="46.98128" lon="8.72625">
        <ele>586</ele>
        <time>2021-08-05T11:19:43.299Z</time>
      </trkpt>
      <trkpt lat="46.98128" lon="8.72626">
        <ele>586</ele>
        <time>2021-08-05T11:19:44.300Z</time>
      </trkpt>
      <trkpt lat="46.98127" lon="8.72628">
        <ele>586</ele>
        <time>2021-08-05T11:19:45.300Z</time>
      </trkpt>
      <trkpt lat="46.98127" lon="8.7263">
        <ele>586</ele>
        <time>2021-08-05T11:19:46.299Z</time>
      </trkpt>
      <trkpt lat="46.98127" lon="8.72632">
        <ele>586</ele>
        <time>2021-08-05T11:19:47.299Z</time>
      </trkpt>
      <trkpt lat="46.98126" lon="8.72633">
        <ele>587</ele>
        <time>2021-08-05T11:19:48.300Z</time>
      </trkpt>
      <trkpt lat="46.98126" lon="8.72635">
        <ele>587</ele>
        <time>2021-08-05T11:19:49.300Z</time>
      </trkpt>
      <trkpt lat="46.98126" lon="8.72637">
        <ele>587</ele>
        <time>2021-08-05T11:19:50.299Z</time>
      </trkpt>
      <trkpt lat="46.98126" lon="8.72638">
        <ele>588</ele>
        <time>2021-08-05T11:19:51.299Z</time>
      </trkpt>
      <trkpt lat="46.98125" lon="8.7264">
        <ele>588</ele>
        <time>2021-08-05T11:19:52.300Z</time>
      </trkpt>
      <trkpt lat="46.98125" lon="8.72642">
        <ele>588</ele>
        <time>2021-08-05T11:19:53.300Z</time>
      </trkpt>
      <trkpt lat="46.98125" lon="8.72643">
        <ele>589</ele>
        <time>2021-08-05T11:19:54.300Z</time>
      </trkpt>
      <trkpt lat="46.98125" lon="8.72643">
        <ele>589</ele>
        <time>2021-08-05T11:19:55.300Z</time>
      </trkpt>
      <trkpt lat="46.98125" lon="8.72643">
        <ele>590</ele>
        <time>2021-08-05T11:19:56.299Z</time>
      </trkpt>
      <trkpt lat="46.98125" lon="8.72642">
        <ele>591</ele>
        <time>2021-08-05T11:19:57.301Z</time>
      </trkpt>
      <trkpt lat="46.98123" lon="8.72643">
        <ele>591</ele>
        <time>2021-08-05T11:19:58.301Z</time>
      </trkpt>
      <trkpt lat="46.98123" lon="8.72645">
        <ele>591</ele>
        <time>2021-08-05T11:19:59.300Z</time>
      </trkpt>
      <trkpt lat="46.98122" lon="8.72647">
        <ele>591</ele>
        <time>2021-08-05T11:20:00.300Z</time>
      </trkpt>
      <trkpt lat="46.98122" lon="8.72648">
        <ele>591</ele>
        <time>2021-08-05T11:20:01.301Z</time>
      </trkpt>
      <trkpt lat="46.98121" lon="8.7265">
        <ele>591</ele>
        <time>2021-08-05T11:20:02.300Z</time>
      </trkpt>
      <trkpt lat="46.98121" lon="8.72652">
        <ele>591</ele>
        <time>2021-08-05T11:20:03.300Z</time>
      </trkpt>
      <trkpt lat="46.9812" lon="8.72653">
        <ele>591</ele>
        <time>2021-08-05T11:20:04.300Z</time>
      </trkpt>
      <trkpt lat="46.9812" lon="8.72655">
        <ele>591</ele>
        <time>2021-08-05T11:20:05.301Z</time>
      </trkpt>
      <trkpt lat="46.98119" lon="8.72657">
        <ele>591</ele>
        <time>2021-08-05T11:20:06.300Z</time>
      </trkpt>
      <trkpt lat="46.98119" lon="8.72658">
        <ele>591</ele>
        <time>2021-08-05T11:20:07.301Z</time>
      </trkpt>
      <trkpt lat="46.98119" lon="8.7266">
        <ele>591</ele>
        <time>2021-08-05T11:20:08.300Z</time>
      </trkpt>
      <trkpt lat="46.98118" lon="8.72661">
        <ele>591</ele>
        <time>2021-08-05T11:20:09.300Z</time>
      </trkpt>
      <trkpt lat="46.98118" lon="8.72663">
        <ele>591</ele>
        <time>2021-08-05T11:20:10.301Z</time>
      </trkpt>
      <trkpt lat="46.98117" lon="8.72664">
        <ele>591</ele>
        <time>2021-08-05T11:20:11.301Z</time>
      </trkpt>
      <trkpt lat="46.98116" lon="8.72666">
        <ele>591</ele>
        <time>2021-08-05T11:20:12.301Z</time>
      </trkpt>
      <trkpt lat="46.98116" lon="8.72668">
        <ele>591</ele>
        <time>2021-08-05T11:20:13.300Z</time>
      </trkpt>
      <trkpt lat="46.98115" lon="8.7267">
        <ele>591</ele>
        <time>2021-08-05T11:20:14.301Z</time>
      </trkpt>
      <trkpt lat="46.98115" lon="8.72671">
        <ele>591</ele>
        <time>2021-08-05T11:20:15.301Z</time>
      </trkpt>
      <trkpt lat="46.98115" lon="8.72673">
        <ele>591</ele>
        <time>2021-08-05T11:20:16.301Z</time>
      </trkpt>
      <trkpt lat="46.98114" lon="8.72675">
        <ele>591</ele>
        <time>2021-08-05T11:20:17.301Z</time>
      </trkpt>
      <trkpt lat="46.98114" lon="8.72677">
        <ele>591</ele>
        <time>2021-08-05T11:20:18.301Z</time>
      </trkpt>
      <trkpt lat="46.98113" lon="8.72679">
        <ele>591</ele>
        <time>2021-08-05T11:20:19.301Z</time>
      </trkpt>
      <trkpt lat="46.98113" lon="8.7268">
        <ele>591</ele>
        <time>2021-08-05T11:20:20.301Z</time>
      </trkpt>
      <trkpt lat="46.98113" lon="8.72682">
        <ele>591</ele>
        <time>2021-08-05T11:20:21.300Z</time>
      </trkpt>
      <trkpt lat="46.98112" lon="8.72684">
        <ele>591</ele>
        <time>2021-08-05T11:20:22.301Z</time>
      </trkpt>
      <trkpt lat="46.98112" lon="8.72686">
        <ele>592</ele>
        <time>2021-08-05T11:20:23.301Z</time>
      </trkpt>
      <trkpt lat="46.98112" lon="8.72687">
        <ele>592</ele>
        <time>2021-08-05T11:20:24.300Z</time>
      </trkpt>
      <trkpt lat="46.98112" lon="8.72689">
        <ele>592</ele>
        <time>2021-08-05T11:20:25.301Z</time>
      </trkpt>
      <trkpt lat="46.98112" lon="8.72691">
        <ele>591</ele>
        <time>2021-08-05T11:20:26.301Z</time>
      </trkpt>
      <trkpt lat="46.98112" lon="8.72693">
        <ele>591</ele>
        <time>2021-08-05T11:20:27.300Z</time>
      </trkpt>
      <trkpt lat="46.98112" lon="8.72694">
        <ele>592</ele>
        <time>2021-08-05T11:20:28.300Z</time>
      </trkpt>
      <trkpt lat="46.98112" lon="8.72696">
        <ele>592</ele>
        <time>2021-08-05T11:20:29.301Z</time>
      </trkpt>
      <trkpt lat="46.98111" lon="8.72698">
        <ele>592</ele>
        <time>2021-08-05T11:20:30.301Z</time>
      </trkpt>
      <trkpt lat="46.98111" lon="8.727">
        <ele>592</ele>
        <time>2021-08-05T11:20:31.300Z</time>
      </trkpt>
      <trkpt lat="46.98111" lon="8.72702">
        <ele>592</ele>
        <time>2021-08-05T11:20:32.301Z</time>
      </trkpt>
      <trkpt lat="46.9811" lon="8.72704">
        <ele>593</ele>
        <time>2021-08-05T11:20:33.301Z</time>
      </trkpt>
      <trkpt lat="46.98109" lon="8.72705">
        <ele>593</ele>
        <time>2021-08-05T11:20:34.300Z</time>
      </trkpt>
      <trkpt lat="46.98109" lon="8.72707">
        <ele>593</ele>
        <time>2021-08-05T11:20:35.301Z</time>
      </trkpt>
      <trkpt lat="46.98108" lon="8.72708">
        <ele>593</ele>
        <time>2021-08-05T11:20:36.301Z</time>
      </trkpt>
      <trkpt lat="46.98108" lon="8.7271">
        <ele>593</ele>
        <time>2021-08-05T11:20:37.301Z</time>
      </trkpt>
      <trkpt lat="46.98107" lon="8.72711">
        <ele>593</ele>
        <time>2021-08-05T11:20:38.301Z</time>
      </trkpt>
      <trkpt lat="46.98107" lon="8.72713">
        <ele>593</ele>
        <time>2021-08-05T11:20:39.300Z</time>
      </trkpt>
      <trkpt lat="46.98107" lon="8.72715">
        <ele>593</ele>
        <time>2021-08-05T11:20:40.301Z</time>
      </trkpt>
      <trkpt lat="46.98106" lon="8.72717">
        <ele>592</ele>
        <time>2021-08-05T11:20:41.301Z</time>
      </trkpt>
      <trkpt lat="46.98106" lon="8.72718">
        <ele>592</ele>
        <time>2021-08-05T11:20:42.300Z</time>
      </trkpt>
      <trkpt lat="46.98106" lon="8.7272">
        <ele>592</ele>
        <time>2021-08-05T11:20:43.301Z</time>
      </trkpt>
      <trkpt lat="46.98105" lon="8.72721">
        <ele>592</ele>
        <time>2021-08-05T11:20:44.301Z</time>
      </trkpt>
      <trkpt lat="46.98105" lon="8.72723">
        <ele>592</ele>
        <time>2021-08-05T11:20:45.300Z</time>
      </trkpt>
      <trkpt lat="46.98104" lon="8.72724">
        <ele>591</ele>
        <time>2021-08-05T11:20:46.300Z</time>
      </trkpt>
      <trkpt lat="46.98104" lon="8.72726">
        <ele>591</ele>
        <time>2021-08-05T11:20:47.301Z</time>
      </trkpt>
      <trkpt lat="46.98103" lon="8.72728">
        <ele>591</ele>
        <time>2021-08-05T11:20:48.301Z</time>
      </trkpt>
      <trkpt lat="46.98102" lon="8.72729">
        <ele>590</ele>
        <time>2021-08-05T11:20:49.301Z</time>
      </trkpt>
      <trkpt lat="46.98102" lon="8.72731">
        <ele>590</ele>
        <time>2021-08-05T11:20:50.300Z</time>
      </trkpt>
      <trkpt lat="46.98101" lon="8.72732">
        <ele>590</ele>
        <time>2021-08-05T11:20:51.301Z</time>
      </trkpt>
      <trkpt lat="46.98101" lon="8.72733">
        <ele>589</ele>
        <time>2021-08-05T11:20:52.300Z</time>
      </trkpt>
      <trkpt lat="46.981" lon="8.72734">
        <ele>589</ele>
        <time>2021-08-05T11:20:53.301Z</time>
      </trkpt>
      <trkpt lat="46.98099" lon="8.72735">
        <ele>589</ele>
        <time>2021-08-05T11:20:54.301Z</time>
      </trkpt>
      <trkpt lat="46.98098" lon="8.72736">
        <ele>589</ele>
        <time>2021-08-05T11:20:55.300Z</time>
      </trkpt>
      <trkpt lat="46.98098" lon="8.72737">
        <ele>589</ele>
        <time>2021-08-05T11:20:56.300Z</time>
      </trkpt>
      <trkpt lat="46.98097" lon="8.72739">
        <ele>589</ele>
        <time>2021-08-05T11:20:57.300Z</time>
      </trkpt>
      <trkpt lat="46.98096" lon="8.7274">
        <ele>589</ele>
        <time>2021-08-05T11:20:58.300Z</time>
      </trkpt>
      <trkpt lat="46.98095" lon="8.72741">
        <ele>589</ele>
        <time>2021-08-05T11:20:59.301Z</time>
      </trkpt>
      <trkpt lat="46.98094" lon="8.72742">
        <ele>589</ele>
        <time>2021-08-05T11:21:00.301Z</time>
      </trkpt>
      <trkpt lat="46.98094" lon="8.72744">
        <ele>589</ele>
        <time>2021-08-05T11:21:01.300Z</time>
      </trkpt>
      <trkpt lat="46.98093" lon="8.72745">
        <ele>588</ele>
        <time>2021-08-05T11:21:02.301Z</time>
      </trkpt>
      <trkpt lat="46.98093" lon="8.72746">
        <ele>588</ele>
        <time>2021-08-05T11:21:03.301Z</time>
      </trkpt>
      <trkpt lat="46.98092" lon="8.72748">
        <ele>588</ele>
        <time>2021-08-05T11:21:04.300Z</time>
      </trkpt>
      <trkpt lat="46.98092" lon="8.72749">
        <ele>587</ele>
        <time>2021-08-05T11:21:05.300Z</time>
      </trkpt>
      <trkpt lat="46.98092" lon="8.7275">
        <ele>587</ele>
        <time>2021-08-05T11:21:06.301Z</time>
      </trkpt>
      <trkpt lat="46.98091" lon="8.72752">
        <ele>587</ele>
        <time>2021-08-05T11:21:07.301Z</time>
      </trkpt>
      <trkpt lat="46.98091" lon="8.72754">
        <ele>587</ele>
        <time>2021-08-05T11:21:08.301Z</time>
      </trkpt>
      <trkpt lat="46.9809" lon="8.72755">
        <ele>587</ele>
        <time>2021-08-05T11:21:09.301Z</time>
      </trkpt>
      <trkpt lat="46.9809" lon="8.72757">
        <ele>587</ele>
        <time>2021-08-05T11:21:10.300Z</time>
      </trkpt>
      <trkpt lat="46.98089" lon="8.72759">
        <ele>586</ele>
        <time>2021-08-05T11:21:11.300Z</time>
      </trkpt>
      <trkpt lat="46.98089" lon="8.72761">
        <ele>586</ele>
        <time>2021-08-05T11:21:12.300Z</time>
      </trkpt>
      <trkpt lat="46.98089" lon="8.72763">
        <ele>586</ele>
        <time>2021-08-05T11:21:13.300Z</time>
      </trkpt>
      <trkpt lat="46.98089" lon="8.72764">
        <ele>586</ele>
        <time>2021-08-05T11:21:14.301Z</time>
      </trkpt>
      <trkpt lat="46.98089" lon="8.72766">
        <ele>586</ele>
        <time>2021-08-05T11:21:15.301Z</time>
      </trkpt>
      <trkpt lat="46.98088" lon="8.72768">
        <ele>586</ele>
        <time>2021-08-05T11:21:16.301Z</time>
      </trkpt>
      <trkpt lat="46.98088" lon="8.72769">
        <ele>586</ele>
        <time>2021-08-05T11:21:17.300Z</time>
      </trkpt>
      <trkpt lat="46.98088" lon="8.72771">
        <ele>587</ele>
        <time>2021-08-05T11:21:18.300Z</time>
      </trkpt>
      <trkpt lat="46.98087" lon="8.72772">
        <ele>588</ele>
        <time>2021-08-05T11:21:19.301Z</time>
      </trkpt>
      <trkpt lat="46.98087" lon="8.72773">
        <ele>588</ele>
        <time>2021-08-05T11:21:20.301Z</time>
      </trkpt>
      <trkpt lat="46.98086" lon="8.72775">
        <ele>589</ele>
        <time>2021-08-05T11:21:21.301Z</time>
      </trkpt>
      <trkpt lat="46.98086" lon="8.72776">
        <ele>589</ele>
        <time>2021-08-05T11:21:22.300Z</time>
      </trkpt>
      <trkpt lat="46.98085" lon="8.72778">
        <ele>589</ele>
        <time>2021-08-05T11:21:23.300Z</time>
      </trkpt>
      <trkpt lat="46.98085" lon="8.72779">
        <ele>588</ele>
        <time>2021-08-05T11:21:24.301Z</time>
      </trkpt>
      <trkpt lat="46.98084" lon="8.72781">
        <ele>588</ele>
        <time>2021-08-05T11:21:25.300Z</time>
      </trkpt>
      <trkpt lat="46.98083" lon="8.72783">
        <ele>588</ele>
        <time>2021-08-05T11:21:26.300Z</time>
      </trkpt>
      <trkpt lat="46.98083" lon="8.72785">
        <ele>588</ele>
        <time>2021-08-05T11:21:27.301Z</time>
      </trkpt>
      <trkpt lat="46.98082" lon="8.72787">
        <ele>588</ele>
        <time>2021-08-05T11:21:28.301Z</time>
      </trkpt>
      <trkpt lat="46.98081" lon="8.72788">
        <ele>588</ele>
        <time>2021-08-05T11:21:29.300Z</time>
      </trkpt>
      <trkpt lat="46.9808" lon="8.7279">
        <ele>588</ele>
        <time>2021-08-05T11:21:30.301Z</time>
      </trkpt>
      <trkpt lat="46.9808" lon="8.72791">
        <ele>587</ele>
        <time>2021-08-05T11:21:31.300Z</time>
      </trkpt>
      <trkpt lat="46.98079" lon="8.72792">
        <ele>587</ele>
        <time>2021-08-05T11:21:32.301Z</time>
      </trkpt>
      <trkpt lat="46.98078" lon="8.72793">
        <ele>586</ele>
        <time>2021-08-05T11:21:33.301Z</time>
      </trkpt>
      <trkpt lat="46.98078" lon="8.72794">
        <ele>586</ele>
        <time>2021-08-05T11:21:34.300Z</time>
      </trkpt>
      <trkpt lat="46.98078" lon="8.72795">
        <ele>585</ele>
        <time>2021-08-05T11:21:35.301Z</time>
      </trkpt>
      <trkpt lat="46.98077" lon="8.72796">
        <ele>585</ele>
        <time>2021-08-05T11:21:36.300Z</time>
      </trkpt>
      <trkpt lat="46.98077" lon="8.72798">
        <ele>584</ele>
        <time>2021-08-05T11:21:37.301Z</time>
      </trkpt>
      <trkpt lat="46.98076" lon="8.72798">
        <ele>584</ele>
        <time>2021-08-05T11:21:38.301Z</time>
      </trkpt>
      <trkpt lat="46.98075" lon="8.728">
        <ele>583</ele>
        <time>2021-08-05T11:21:39.300Z</time>
      </trkpt>
      <trkpt lat="46.98075" lon="8.72801">
        <ele>583</ele>
        <time>2021-08-05T11:21:40.301Z</time>
      </trkpt>
      <trkpt lat="46.98074" lon="8.72802">
        <ele>582</ele>
        <time>2021-08-05T11:21:41.300Z</time>
      </trkpt>
      <trkpt lat="46.98073" lon="8.72803">
        <ele>582</ele>
        <time>2021-08-05T11:21:42.300Z</time>
      </trkpt>
      <trkpt lat="46.98072" lon="8.72803">
        <ele>582</ele>
        <time>2021-08-05T11:21:43.300Z</time>
      </trkpt>
      <trkpt lat="46.9807" lon="8.72804">
        <ele>581</ele>
        <time>2021-08-05T11:21:44.301Z</time>
      </trkpt>
      <trkpt lat="46.98069" lon="8.72804">
        <ele>581</ele>
        <time>2021-08-05T11:21:45.301Z</time>
      </trkpt>
      <trkpt lat="46.98068" lon="8.72805">
        <ele>581</ele>
        <time>2021-08-05T11:21:46.301Z</time>
      </trkpt>
      <trkpt lat="46.98067" lon="8.72806">
        <ele>581</ele>
        <time>2021-08-05T11:21:47.300Z</time>
      </trkpt>
      <trkpt lat="46.98066" lon="8.72807">
        <ele>580</ele>
        <time>2021-08-05T11:21:48.300Z</time>
      </trkpt>
      <trkpt lat="46.98064" lon="8.72808">
        <ele>580</ele>
        <time>2021-08-05T11:21:49.301Z</time>
      </trkpt>
      <trkpt lat="46.98063" lon="8.72809">
        <ele>579</ele>
        <time>2021-08-05T11:21:50.300Z</time>
      </trkpt>
      <trkpt lat="46.98062" lon="8.72809">
        <ele>579</ele>
        <time>2021-08-05T11:21:51.300Z</time>
      </trkpt>
      <trkpt lat="46.9806" lon="8.72809">
        <ele>579</ele>
        <time>2021-08-05T11:21:52.300Z</time>
      </trkpt>
      <trkpt lat="46.98059" lon="8.7281">
        <ele>579</ele>
        <time>2021-08-05T11:21:53.301Z</time>
      </trkpt>
      <trkpt lat="46.98058" lon="8.72811">
        <ele>579</ele>
        <time>2021-08-05T11:21:54.301Z</time>
      </trkpt>
      <trkpt lat="46.98057" lon="8.72811">
        <ele>580</ele>
        <time>2021-08-05T11:21:55.300Z</time>
      </trkpt>
      <trkpt lat="46.98056" lon="8.72812">
        <ele>580</ele>
        <time>2021-08-05T11:21:56.300Z</time>
      </trkpt>
      <trkpt lat="46.98055" lon="8.72813">
        <ele>580</ele>
        <time>2021-08-05T11:21:57.301Z</time>
      </trkpt>
      <trkpt lat="46.98054" lon="8.72814">
        <ele>580</ele>
        <time>2021-08-05T11:21:58.301Z</time>
      </trkpt>
      <trkpt lat="46.98053" lon="8.72814">
        <ele>580</ele>
        <time>2021-08-05T11:21:59.300Z</time>
      </trkpt>
      <trkpt lat="46.98052" lon="8.72815">
        <ele>581</ele>
        <time>2021-08-05T11:22:00.300Z</time>
      </trkpt>
      <trkpt lat="46.98052" lon="8.72815">
        <ele>581</ele>
        <time>2021-08-05T11:22:01.300Z</time>
      </trkpt>
      <trkpt lat="46.98051" lon="8.72816">
        <ele>582</ele>
        <time>2021-08-05T11:22:02.301Z</time>
      </trkpt>
      <trkpt lat="46.98049" lon="8.72817">
        <ele>582</ele>
        <time>2021-08-05T11:22:03.300Z</time>
      </trkpt>
      <trkpt lat="46.98048" lon="8.72817">
        <ele>583</ele>
        <time>2021-08-05T11:22:04.301Z</time>
      </trkpt>
      <trkpt lat="46.98048" lon="8.72818">
        <ele>583</ele>
        <time>2021-08-05T11:22:05.301Z</time>
      </trkpt>
      <trkpt lat="46.98046" lon="8.72819">
        <ele>584</ele>
        <time>2021-08-05T11:22:06.301Z</time>
      </trkpt>
      <trkpt lat="46.98045" lon="8.72819">
        <ele>584</ele>
        <time>2021-08-05T11:22:07.301Z</time>
      </trkpt>
      <trkpt lat="46.98044" lon="8.7282">
        <ele>585</ele>
        <time>2021-08-05T11:22:08.300Z</time>
      </trkpt>
      <trkpt lat="46.98043" lon="8.72821">
        <ele>585</ele>
        <time>2021-08-05T11:22:09.301Z</time>
      </trkpt>
      <trkpt lat="46.98042" lon="8.72822">
        <ele>585</ele>
        <time>2021-08-05T11:22:10.301Z</time>
      </trkpt>
      <trkpt lat="46.98041" lon="8.72823">
        <ele>585</ele>
        <time>2021-08-05T11:22:11.301Z</time>
      </trkpt>
      <trkpt lat="46.9804" lon="8.72824">
        <ele>585</ele>
        <time>2021-08-05T11:22:12.300Z</time>
      </trkpt>
      <trkpt lat="46.98039" lon="8.72825">
        <ele>585</ele>
        <time>2021-08-05T11:22:13.300Z</time>
      </trkpt>
      <trkpt lat="46.98037" lon="8.72826">
        <ele>585</ele>
        <time>2021-08-05T11:22:14.301Z</time>
      </trkpt>
      <trkpt lat="46.98036" lon="8.72826">
        <ele>584</ele>
        <time>2021-08-05T11:22:15.300Z</time>
      </trkpt>
      <trkpt lat="46.98036" lon="8.72827">
        <ele>584</ele>
        <time>2021-08-05T11:22:16.300Z</time>
      </trkpt>
      <trkpt lat="46.98035" lon="8.72828">
        <ele>584</ele>
        <time>2021-08-05T11:22:17.300Z</time>
      </trkpt>
      <trkpt lat="46.98033" lon="8.72828">
        <ele>584</ele>
        <time>2021-08-05T11:22:18.300Z</time>
      </trkpt>
      <trkpt lat="46.98032" lon="8.72829">
        <ele>585</ele>
        <time>2021-08-05T11:22:19.301Z</time>
      </trkpt>
      <trkpt lat="46.98031" lon="8.7283">
        <ele>585</ele>
        <time>2021-08-05T11:22:20.300Z</time>
      </trkpt>
      <trkpt lat="46.9803" lon="8.7283">
        <ele>585</ele>
        <time>2021-08-05T11:22:21.300Z</time>
      </trkpt>
      <trkpt lat="46.98029" lon="8.72831">
        <ele>585</ele>
        <time>2021-08-05T11:22:22.300Z</time>
      </trkpt>
      <trkpt lat="46.98028" lon="8.72831">
        <ele>586</ele>
        <time>2021-08-05T11:22:23.300Z</time>
      </trkpt>
      <trkpt lat="46.98027" lon="8.72832">
        <ele>586</ele>
        <time>2021-08-05T11:22:24.300Z</time>
      </trkpt>
      <trkpt lat="46.98026" lon="8.72832">
        <ele>586</ele>
        <time>2021-08-05T11:22:25.301Z</time>
      </trkpt>
      <trkpt lat="46.98024" lon="8.72833">
        <ele>586</ele>
        <time>2021-08-05T11:22:26.301Z</time>
      </trkpt>
      <trkpt lat="46.98023" lon="8.72833">
        <ele>586</ele>
        <time>2021-08-05T11:22:27.301Z</time>
      </trkpt>
      <trkpt lat="46.98022" lon="8.72834">
        <ele>586</ele>
        <time>2021-08-05T11:22:28.301Z</time>
      </trkpt>
      <trkpt lat="46.98022" lon="8.72835">
        <ele>586</ele>
        <time>2021-08-05T11:22:29.301Z</time>
      </trkpt>
      <trkpt lat="46.98021" lon="8.72835">
        <ele>586</ele>
        <time>2021-08-05T11:22:30.301Z</time>
      </trkpt>
      <trkpt lat="46.9802" lon="8.72836">
        <ele>585</ele>
        <time>2021-08-05T11:22:31.300Z</time>
      </trkpt>
      <trkpt lat="46.9802" lon="8.72836">
        <ele>585</ele>
        <time>2021-08-05T11:22:32.301Z</time>
      </trkpt>
      <trkpt lat="46.98019" lon="8.72837">
        <ele>585</ele>
        <time>2021-08-05T11:22:33.301Z</time>
      </trkpt>
      <trkpt lat="46.98018" lon="8.72837">
        <ele>585</ele>
        <time>2021-08-05T11:22:34.300Z</time>
      </trkpt>
      <trkpt lat="46.98017" lon="8.72838">
        <ele>585</ele>
        <time>2021-08-05T11:22:35.300Z</time>
      </trkpt>
      <trkpt lat="46.98015" lon="8.72839">
        <ele>585</ele>
        <time>2021-08-05T11:22:36.300Z</time>
      </trkpt>
      <trkpt lat="46.98014" lon="8.72839">
        <ele>585</ele>
        <time>2021-08-05T11:22:37.300Z</time>
      </trkpt>
      <trkpt lat="46.98013" lon="8.7284">
        <ele>585</ele>
        <time>2021-08-05T11:22:38.300Z</time>
      </trkpt>
      <trkpt lat="46.98012" lon="8.7284">
        <ele>585</ele>
        <time>2021-08-05T11:22:39.300Z</time>
      </trkpt>
      <trkpt lat="46.98011" lon="8.7284">
        <ele>585</ele>
        <time>2021-08-05T11:22:40.300Z</time>
      </trkpt>
      <trkpt lat="46.9801" lon="8.72841">
        <ele>584</ele>
        <time>2021-08-05T11:22:41.300Z</time>
      </trkpt>
      <trkpt lat="46.98009" lon="8.72842">
        <ele>584</ele>
        <time>2021-08-05T11:22:42.300Z</time>
      </trkpt>
      <trkpt lat="46.98008" lon="8.72842">
        <ele>584</ele>
        <time>2021-08-05T11:22:43.300Z</time>
      </trkpt>
      <trkpt lat="46.98006" lon="8.72843">
        <ele>584</ele>
        <time>2021-08-05T11:22:44.301Z</time>
      </trkpt>
      <trkpt lat="46.98005" lon="8.72844">
        <ele>584</ele>
        <time>2021-08-05T11:22:45.300Z</time>
      </trkpt>
      <trkpt lat="46.98004" lon="8.72844">
        <ele>584</ele>
        <time>2021-08-05T11:22:46.300Z</time>
      </trkpt>
      <trkpt lat="46.98003" lon="8.72845">
        <ele>584</ele>
        <time>2021-08-05T11:22:47.301Z</time>
      </trkpt>
      <trkpt lat="46.98002" lon="8.72846">
        <ele>583</ele>
        <time>2021-08-05T11:22:48.301Z</time>
      </trkpt>
      <trkpt lat="46.98001" lon="8.72847">
        <ele>583</ele>
        <time>2021-08-05T11:22:49.300Z</time>
      </trkpt>
      <trkpt lat="46.98" lon="8.72848">
        <ele>583</ele>
        <time>2021-08-05T11:22:50.300Z</time>
      </trkpt>
      <trkpt lat="46.97999" lon="8.72849">
        <ele>583</ele>
        <time>2021-08-05T11:22:51.301Z</time>
      </trkpt>
      <trkpt lat="46.97998" lon="8.7285">
        <ele>583</ele>
        <time>2021-08-05T11:22:52.301Z</time>
      </trkpt>
      <trkpt lat="46.97997" lon="8.72851">
        <ele>583</ele>
        <time>2021-08-05T11:22:53.301Z</time>
      </trkpt>
      <trkpt lat="46.97996" lon="8.72852">
        <ele>583</ele>
        <time>2021-08-05T11:22:54.301Z</time>
      </trkpt>
      <trkpt lat="46.97995" lon="8.72853">
        <ele>583</ele>
        <time>2021-08-05T11:22:55.301Z</time>
      </trkpt>
      <trkpt lat="46.97994" lon="8.72854">
        <ele>584</ele>
        <time>2021-08-05T11:22:56.301Z</time>
      </trkpt>
      <trkpt lat="46.97993" lon="8.72854">
        <ele>584</ele>
        <time>2021-08-05T11:22:57.300Z</time>
      </trkpt>
      <trkpt lat="46.97992" lon="8.72855">
        <ele>585</ele>
        <time>2021-08-05T11:22:58.300Z</time>
      </trkpt>
      <trkpt lat="46.97991" lon="8.72857">
        <ele>585</ele>
        <time>2021-08-05T11:22:59.300Z</time>
      </trkpt>
      <trkpt lat="46.9799" lon="8.72858">
        <ele>585</ele>
        <time>2021-08-05T11:23:00.301Z</time>
      </trkpt>
      <trkpt lat="46.97989" lon="8.72859">
        <ele>584</ele>
        <time>2021-08-05T11:23:01.300Z</time>
      </trkpt>
      <trkpt lat="46.97988" lon="8.72861">
        <ele>584</ele>
        <time>2021-08-05T11:23:02.301Z</time>
      </trkpt>
      <trkpt lat="46.97987" lon="8.72862">
        <ele>584</ele>
        <time>2021-08-05T11:23:03.301Z</time>
      </trkpt>
      <trkpt lat="46.97986" lon="8.72863">
        <ele>584</ele>
        <time>2021-08-05T11:23:04.301Z</time>
      </trkpt>
      <trkpt lat="46.97985" lon="8.72864">
        <ele>584</ele>
        <time>2021-08-05T11:23:05.301Z</time>
      </trkpt>
      <trkpt lat="46.97984" lon="8.72865">
        <ele>584</ele>
        <time>2021-08-05T11:23:06.300Z</time>
      </trkpt>
      <trkpt lat="46.97983" lon="8.72867">
        <ele>584</ele>
        <time>2021-08-05T11:23:07.301Z</time>
      </trkpt>
      <trkpt lat="46.97982" lon="8.72868">
        <ele>584</ele>
        <time>2021-08-05T11:23:08.301Z</time>
      </trkpt>
      <trkpt lat="46.97981" lon="8.72869">
        <ele>584</ele>
        <time>2021-08-05T11:23:09.301Z</time>
      </trkpt>
      <trkpt lat="46.97981" lon="8.7287">
        <ele>584</ele>
        <time>2021-08-05T11:23:10.301Z</time>
      </trkpt>
      <trkpt lat="46.9798" lon="8.72871">
        <ele>584</ele>
        <time>2021-08-05T11:23:11.300Z</time>
      </trkpt>
      <trkpt lat="46.97979" lon="8.72872">
        <ele>584</ele>
        <time>2021-08-05T11:23:12.300Z</time>
      </trkpt>
      <trkpt lat="46.97978" lon="8.72873">
        <ele>584</ele>
        <time>2021-08-05T11:23:13.300Z</time>
      </trkpt>
      <trkpt lat="46.97977" lon="8.72875">
        <ele>584</ele>
        <time>2021-08-05T11:23:14.301Z</time>
      </trkpt>
      <trkpt lat="46.97976" lon="8.72876">
        <ele>585</ele>
        <time>2021-08-05T11:23:15.300Z</time>
      </trkpt>
      <trkpt lat="46.97975" lon="8.72878">
        <ele>585</ele>
        <time>2021-08-05T11:23:16.301Z</time>
      </trkpt>
      <trkpt lat="46.97974" lon="8.72879">
        <ele>585</ele>
        <time>2021-08-05T11:23:17.301Z</time>
      </trkpt>
      <trkpt lat="46.97974" lon="8.7288">
        <ele>585</ele>
        <time>2021-08-05T11:23:18.300Z</time>
      </trkpt>
      <trkpt lat="46.97973" lon="8.72882">
        <ele>585</ele>
        <time>2021-08-05T11:23:19.300Z</time>
      </trkpt>
      <trkpt lat="46.97972" lon="8.72884">
        <ele>585</ele>
        <time>2021-08-05T11:23:20.301Z</time>
      </trkpt>
      <trkpt lat="46.97971" lon="8.72885">
        <ele>585</ele>
        <time>2021-08-05T11:23:21.301Z</time>
      </trkpt>
      <trkpt lat="46.9797" lon="8.72887">
        <ele>585</ele>
        <time>2021-08-05T11:23:22.301Z</time>
      </trkpt>
      <trkpt lat="46.9797" lon="8.72888">
        <ele>585</ele>
        <time>2021-08-05T11:23:23.301Z</time>
      </trkpt>
      <trkpt lat="46.97969" lon="8.7289">
        <ele>585</ele>
        <time>2021-08-05T11:23:24.300Z</time>
      </trkpt>
      <trkpt lat="46.97968" lon="8.72891">
        <ele>585</ele>
        <time>2021-08-05T11:23:25.300Z</time>
      </trkpt>
      <trkpt lat="46.97967" lon="8.72893">
        <ele>584</ele>
        <time>2021-08-05T11:23:26.301Z</time>
      </trkpt>
      <trkpt lat="46.97966" lon="8.72895">
        <ele>584</ele>
        <time>2021-08-05T11:23:27.300Z</time>
      </trkpt>
      <trkpt lat="46.97966" lon="8.72897">
        <ele>583</ele>
        <time>2021-08-05T11:23:28.300Z</time>
      </trkpt>
      <trkpt lat="46.97965" lon="8.72899">
        <ele>583</ele>
        <time>2021-08-05T11:23:29.301Z</time>
      </trkpt>
      <trkpt lat="46.97964" lon="8.729">
        <ele>583</ele>
        <time>2021-08-05T11:23:30.301Z</time>
      </trkpt>
      <trkpt lat="46.97964" lon="8.72902">
        <ele>583</ele>
        <time>2021-08-05T11:23:31.300Z</time>
      </trkpt>
      <trkpt lat="46.97963" lon="8.72903">
        <ele>583</ele>
        <time>2021-08-05T11:23:32.300Z</time>
      </trkpt>
      <trkpt lat="46.97962" lon="8.72904">
        <ele>583</ele>
        <time>2021-08-05T11:23:33.300Z</time>
      </trkpt>
      <trkpt lat="46.97962" lon="8.72905">
        <ele>583</ele>
        <time>2021-08-05T11:23:34.300Z</time>
      </trkpt>
      <trkpt lat="46.97961" lon="8.72907">
        <ele>583</ele>
        <time>2021-08-05T11:23:35.300Z</time>
      </trkpt>
      <trkpt lat="46.9796" lon="8.72908">
        <ele>583</ele>
        <time>2021-08-05T11:23:36.300Z</time>
      </trkpt>
      <trkpt lat="46.9796" lon="8.7291">
        <ele>583</ele>
        <time>2021-08-05T11:23:37.300Z</time>
      </trkpt>
      <trkpt lat="46.97959" lon="8.72911">
        <ele>583</ele>
        <time>2021-08-05T11:23:38.300Z</time>
      </trkpt>
      <trkpt lat="46.97958" lon="8.72913">
        <ele>583</ele>
        <time>2021-08-05T11:23:39.300Z</time>
      </trkpt>
      <trkpt lat="46.97958" lon="8.72914">
        <ele>583</ele>
        <time>2021-08-05T11:23:40.301Z</time>
      </trkpt>
      <trkpt lat="46.97957" lon="8.72916">
        <ele>582</ele>
        <time>2021-08-05T11:23:41.300Z</time>
      </trkpt>
      <trkpt lat="46.97956" lon="8.72917">
        <ele>582</ele>
        <time>2021-08-05T11:23:42.300Z</time>
      </trkpt>
      <trkpt lat="46.97955" lon="8.72918">
        <ele>581</ele>
        <time>2021-08-05T11:23:43.301Z</time>
      </trkpt>
      <trkpt lat="46.97954" lon="8.7292">
        <ele>581</ele>
        <time>2021-08-05T11:23:44.300Z</time>
      </trkpt>
      <trkpt lat="46.97953" lon="8.72921">
        <ele>581</ele>
        <time>2021-08-05T11:23:45.300Z</time>
      </trkpt>
      <trkpt lat="46.97953" lon="8.72923">
        <ele>581</ele>
        <time>2021-08-05T11:23:46.300Z</time>
      </trkpt>
      <trkpt lat="46.97952" lon="8.72924">
        <ele>581</ele>
        <time>2021-08-05T11:23:47.300Z</time>
      </trkpt>
      <trkpt lat="46.97951" lon="8.72925">
        <ele>581</ele>
        <time>2021-08-05T11:23:48.300Z</time>
      </trkpt>
      <trkpt lat="46.97951" lon="8.72926">
        <ele>581</ele>
        <time>2021-08-05T11:23:49.301Z</time>
      </trkpt>
      <trkpt lat="46.9795" lon="8.72928">
        <ele>581</ele>
        <time>2021-08-05T11:23:50.301Z</time>
      </trkpt>
      <trkpt lat="46.97949" lon="8.72929">
        <ele>581</ele>
        <time>2021-08-05T11:23:51.301Z</time>
      </trkpt>
      <trkpt lat="46.97948" lon="8.72931">
        <ele>581</ele>
        <time>2021-08-05T11:23:52.301Z</time>
      </trkpt>
      <trkpt lat="46.97948" lon="8.72932">
        <ele>582</ele>
        <time>2021-08-05T11:23:53.301Z</time>
      </trkpt>
      <trkpt lat="46.97947" lon="8.72934">
        <ele>582</ele>
        <time>2021-08-05T11:23:54.301Z</time>
      </trkpt>
      <trkpt lat="46.97946" lon="8.72935">
        <ele>582</ele>
        <time>2021-08-05T11:23:55.301Z</time>
      </trkpt>
      <trkpt lat="46.97946" lon="8.72937">
        <ele>582</ele>
        <time>2021-08-05T11:23:56.301Z</time>
      </trkpt>
      <trkpt lat="46.97945" lon="8.72938">
        <ele>583</ele>
        <time>2021-08-05T11:23:57.301Z</time>
      </trkpt>
      <trkpt lat="46.97944" lon="8.7294">
        <ele>583</ele>
        <time>2021-08-05T11:23:58.300Z</time>
      </trkpt>
      <trkpt lat="46.97943" lon="8.72941">
        <ele>584</ele>
        <time>2021-08-05T11:23:59.301Z</time>
      </trkpt>
      <trkpt lat="46.97942" lon="8.72943">
        <ele>584</ele>
        <time>2021-08-05T11:24:00.301Z</time>
      </trkpt>
      <trkpt lat="46.97942" lon="8.72945">
        <ele>585</ele>
        <time>2021-08-05T11:24:01.301Z</time>
      </trkpt>
      <trkpt lat="46.97941" lon="8.72947">
        <ele>585</ele>
        <time>2021-08-05T11:24:02.301Z</time>
      </trkpt>
      <trkpt lat="46.9794" lon="8.72948">
        <ele>585</ele>
        <time>2021-08-05T11:24:03.301Z</time>
      </trkpt>
      <trkpt lat="46.9794" lon="8.7295">
        <ele>585</ele>
        <time>2021-08-05T11:24:04.301Z</time>
      </trkpt>
      <trkpt lat="46.97939" lon="8.72951">
        <ele>586</ele>
        <time>2021-08-05T11:24:05.300Z</time>
      </trkpt>
      <trkpt lat="46.97939" lon="8.72953">
        <ele>586</ele>
        <time>2021-08-05T11:24:06.301Z</time>
      </trkpt>
      <trkpt lat="46.97938" lon="8.72954">
        <ele>586</ele>
        <time>2021-08-05T11:24:07.301Z</time>
      </trkpt>
      <trkpt lat="46.97938" lon="8.72955">
        <ele>586</ele>
        <time>2021-08-05T11:24:08.300Z</time>
      </trkpt>
      <trkpt lat="46.97937" lon="8.72956">
        <ele>586</ele>
        <time>2021-08-05T11:24:09.300Z</time>
      </trkpt>
      <trkpt lat="46.97937" lon="8.72957">
        <ele>586</ele>
        <time>2021-08-05T11:24:12.283Z</time>
      </trkpt>
      <trkpt lat="46.97936" lon="8.72959">
        <ele>586</ele>
        <time>2021-08-05T11:24:13.283Z</time>
      </trkpt>
      <trkpt lat="46.97935" lon="8.7296">
        <ele>586</ele>
        <time>2021-08-05T11:24:14.284Z</time>
      </trkpt>
      <trkpt lat="46.97935" lon="8.72961">
        <ele>586</ele>
        <time>2021-08-05T11:24:15.283Z</time>
      </trkpt>
      <trkpt lat="46.97934" lon="8.72963">
        <ele>586</ele>
        <time>2021-08-05T11:24:16.284Z</time>
      </trkpt>
      <trkpt lat="46.97934" lon="8.72964">
        <ele>586</ele>
        <time>2021-08-05T11:24:17.284Z</time>
      </trkpt>
      <trkpt lat="46.97933" lon="8.72965">
        <ele>585</ele>
        <time>2021-08-05T11:24:18.284Z</time>
      </trkpt>
      <trkpt lat="46.97932" lon="8.72967">
        <ele>585</ele>
        <time>2021-08-05T11:24:19.284Z</time>
      </trkpt>
      <trkpt lat="46.97932" lon="8.72968">
        <ele>585</ele>
        <time>2021-08-05T11:24:20.283Z</time>
      </trkpt>
      <trkpt lat="46.97931" lon="8.72969">
        <ele>586</ele>
        <time>2021-08-05T11:24:21.284Z</time>
      </trkpt>
      <trkpt lat="46.97931" lon="8.72971">
        <ele>586</ele>
        <time>2021-08-05T11:24:22.284Z</time>
      </trkpt>
      <trkpt lat="46.9793" lon="8.72972">
        <ele>586</ele>
        <time>2021-08-05T11:24:23.284Z</time>
      </trkpt>
      <trkpt lat="46.9793" lon="8.72973">
        <ele>587</ele>
        <time>2021-08-05T11:24:24.284Z</time>
      </trkpt>
      <trkpt lat="46.97929" lon="8.72974">
        <ele>587</ele>
        <time>2021-08-05T11:24:25.283Z</time>
      </trkpt>
      <trkpt lat="46.97928" lon="8.72975">
        <ele>588</ele>
        <time>2021-08-05T11:24:26.283Z</time>
      </trkpt>
      <trkpt lat="46.97927" lon="8.72976">
        <ele>588</ele>
        <time>2021-08-05T11:24:27.283Z</time>
      </trkpt>
      <trkpt lat="46.97926" lon="8.72977">
        <ele>588</ele>
        <time>2021-08-05T11:24:28.283Z</time>
      </trkpt>
      <trkpt lat="46.97925" lon="8.72978">
        <ele>588</ele>
        <time>2021-08-05T11:24:29.284Z</time>
      </trkpt>
      <trkpt lat="46.97924" lon="8.7298">
        <ele>588</ele>
        <time>2021-08-05T11:24:30.283Z</time>
      </trkpt>
      <trkpt lat="46.97923" lon="8.72982">
        <ele>588</ele>
        <time>2021-08-05T11:24:31.283Z</time>
      </trkpt>
      <trkpt lat="46.97923" lon="8.72983">
        <ele>588</ele>
        <time>2021-08-05T11:24:32.284Z</time>
      </trkpt>
      <trkpt lat="46.97922" lon="8.72985">
        <ele>588</ele>
        <time>2021-08-05T11:24:33.283Z</time>
      </trkpt>
      <trkpt lat="46.97921" lon="8.72986">
        <ele>589</ele>
        <time>2021-08-05T11:24:34.284Z</time>
      </trkpt>
      <trkpt lat="46.9792" lon="8.72987">
        <ele>589</ele>
        <time>2021-08-05T11:24:35.284Z</time>
      </trkpt>
      <trkpt lat="46.97919" lon="8.72988">
        <ele>589</ele>
        <time>2021-08-05T11:24:36.284Z</time>
      </trkpt>
      <trkpt lat="46.97919" lon="8.7299">
        <ele>589</ele>
        <time>2021-08-05T11:24:37.283Z</time>
      </trkpt>
      <trkpt lat="46.97918" lon="8.72992">
        <ele>589</ele>
        <time>2021-08-05T11:24:38.283Z</time>
      </trkpt>
      <trkpt lat="46.97917" lon="8.72993">
        <ele>589</ele>
        <time>2021-08-05T11:24:39.284Z</time>
      </trkpt>
      <trkpt lat="46.97917" lon="8.72994">
        <ele>589</ele>
        <time>2021-08-05T11:24:40.283Z</time>
      </trkpt>
      <trkpt lat="46.97916" lon="8.72996">
        <ele>589</ele>
        <time>2021-08-05T11:24:41.283Z</time>
      </trkpt>
      <trkpt lat="46.97915" lon="8.72997">
        <ele>588</ele>
        <time>2021-08-05T11:24:42.284Z</time>
      </trkpt>
      <trkpt lat="46.97914" lon="8.72999">
        <ele>588</ele>
        <time>2021-08-05T11:24:43.284Z</time>
      </trkpt>
      <trkpt lat="46.97913" lon="8.73">
        <ele>588</ele>
        <time>2021-08-05T11:24:44.283Z</time>
      </trkpt>
      <trkpt lat="46.97912" lon="8.73001">
        <ele>587</ele>
        <time>2021-08-05T11:24:45.283Z</time>
      </trkpt>
      <trkpt lat="46.97911" lon="8.73002">
        <ele>587</ele>
        <time>2021-08-05T11:24:46.284Z</time>
      </trkpt>
      <trkpt lat="46.9791" lon="8.73003">
        <ele>586</ele>
        <time>2021-08-05T11:24:47.284Z</time>
      </trkpt>
      <trkpt lat="46.97909" lon="8.73005">
        <ele>586</ele>
        <time>2021-08-05T11:24:48.283Z</time>
      </trkpt>
      <trkpt lat="46.97908" lon="8.73006">
        <ele>586</ele>
        <time>2021-08-05T11:24:49.284Z</time>
      </trkpt>
      <trkpt lat="46.97907" lon="8.73007">
        <ele>586</ele>
        <time>2021-08-05T11:24:50.283Z</time>
      </trkpt>
      <trkpt lat="46.97906" lon="8.73008">
        <ele>586</ele>
        <time>2021-08-05T11:24:51.283Z</time>
      </trkpt>
      <trkpt lat="46.97905" lon="8.73009">
        <ele>587</ele>
        <time>2021-08-05T11:24:52.283Z</time>
      </trkpt>
      <trkpt lat="46.97904" lon="8.73011">
        <ele>587</ele>
        <time>2021-08-05T11:24:53.284Z</time>
      </trkpt>
      <trkpt lat="46.97903" lon="8.73012">
        <ele>588</ele>
        <time>2021-08-05T11:24:54.284Z</time>
      </trkpt>
      <trkpt lat="46.97902" lon="8.73013">
        <ele>588</ele>
        <time>2021-08-05T11:24:55.284Z</time>
      </trkpt>
      <trkpt lat="46.97901" lon="8.73014">
        <ele>588</ele>
        <time>2021-08-05T11:24:56.283Z</time>
      </trkpt>
      <trkpt lat="46.979" lon="8.73015">
        <ele>588</ele>
        <time>2021-08-05T11:24:57.284Z</time>
      </trkpt>
      <trkpt lat="46.97899" lon="8.73016">
        <ele>588</ele>
        <time>2021-08-05T11:24:58.284Z</time>
      </trkpt>
      <trkpt lat="46.97898" lon="8.73017">
        <ele>588</ele>
        <time>2021-08-05T11:24:59.284Z</time>
      </trkpt>
      <trkpt lat="46.97897" lon="8.73018">
        <ele>589</ele>
        <time>2021-08-05T11:25:00.283Z</time>
      </trkpt>
      <trkpt lat="46.97896" lon="8.73019">
        <ele>589</ele>
        <time>2021-08-05T11:25:01.283Z</time>
      </trkpt>
      <trkpt lat="46.97895" lon="8.73021">
        <ele>589</ele>
        <time>2021-08-05T11:25:02.284Z</time>
      </trkpt>
      <trkpt lat="46.97894" lon="8.73022">
        <ele>590</ele>
        <time>2021-08-05T11:25:03.284Z</time>
      </trkpt>
      <trkpt lat="46.97893" lon="8.73023">
        <ele>590</ele>
        <time>2021-08-05T11:25:04.283Z</time>
      </trkpt>
      <trkpt lat="46.97892" lon="8.73025">
        <ele>590</ele>
        <time>2021-08-05T11:25:05.284Z</time>
      </trkpt>
      <trkpt lat="46.97892" lon="8.73026">
        <ele>590</ele>
        <time>2021-08-05T11:25:06.284Z</time>
      </trkpt>
      <trkpt lat="46.97891" lon="8.73028">
        <ele>589</ele>
        <time>2021-08-05T11:25:07.284Z</time>
      </trkpt>
      <trkpt lat="46.97891" lon="8.73029">
        <ele>589</ele>
        <time>2021-08-05T11:25:08.283Z</time>
      </trkpt>
      <trkpt lat="46.97891" lon="8.73031">
        <ele>589</ele>
        <time>2021-08-05T11:25:09.284Z</time>
      </trkpt>
      <trkpt lat="46.97891" lon="8.73033">
        <ele>589</ele>
        <time>2021-08-05T11:25:10.283Z</time>
      </trkpt>
      <trkpt lat="46.97891" lon="8.73035">
        <ele>588</ele>
        <time>2021-08-05T11:25:11.284Z</time>
      </trkpt>
      <trkpt lat="46.97891" lon="8.73037">
        <ele>588</ele>
        <time>2021-08-05T11:25:12.284Z</time>
      </trkpt>
      <trkpt lat="46.97891" lon="8.73039">
        <ele>588</ele>
        <time>2021-08-05T11:25:13.284Z</time>
      </trkpt>
      <trkpt lat="46.97891" lon="8.73041">
        <ele>587</ele>
        <time>2021-08-05T11:25:14.283Z</time>
      </trkpt>
      <trkpt lat="46.9789" lon="8.73043">
        <ele>587</ele>
        <time>2021-08-05T11:25:15.284Z</time>
      </trkpt>
      <trkpt lat="46.9789" lon="8.73045">
        <ele>587</ele>
        <time>2021-08-05T11:25:16.284Z</time>
      </trkpt>
      <trkpt lat="46.97889" lon="8.73047">
        <ele>587</ele>
        <time>2021-08-05T11:25:17.284Z</time>
      </trkpt>
      <trkpt lat="46.97888" lon="8.73048">
        <ele>588</ele>
        <time>2021-08-05T11:25:18.284Z</time>
      </trkpt>
      <trkpt lat="46.97887" lon="8.7305">
        <ele>588</ele>
        <time>2021-08-05T11:25:19.283Z</time>
      </trkpt>
      <trkpt lat="46.97887" lon="8.73051">
        <ele>588</ele>
        <time>2021-08-05T11:25:20.283Z</time>
      </trkpt>
      <trkpt lat="46.97886" lon="8.73053">
        <ele>588</ele>
        <time>2021-08-05T11:25:21.284Z</time>
      </trkpt>
      <trkpt lat="46.97886" lon="8.73055">
        <ele>588</ele>
        <time>2021-08-05T11:25:22.283Z</time>
      </trkpt>
      <trkpt lat="46.97885" lon="8.73056">
        <ele>589</ele>
        <time>2021-08-05T11:25:23.284Z</time>
      </trkpt>
      <trkpt lat="46.97885" lon="8.73058">
        <ele>589</ele>
        <time>2021-08-05T11:25:24.283Z</time>
      </trkpt>
      <trkpt lat="46.97884" lon="8.73059">
        <ele>590</ele>
        <time>2021-08-05T11:25:25.283Z</time>
      </trkpt>
      <trkpt lat="46.97884" lon="8.73061">
        <ele>590</ele>
        <time>2021-08-05T11:25:26.283Z</time>
      </trkpt>
      <trkpt lat="46.97883" lon="8.73063">
        <ele>591</ele>
        <time>2021-08-05T11:25:27.284Z</time>
      </trkpt>
      <trkpt lat="46.97882" lon="8.73064">
        <ele>591</ele>
        <time>2021-08-05T11:25:28.284Z</time>
      </trkpt>
      <trkpt lat="46.97882" lon="8.73066">
        <ele>591</ele>
        <time>2021-08-05T11:25:29.284Z</time>
      </trkpt>
      <trkpt lat="46.97881" lon="8.73068">
        <ele>592</ele>
        <time>2021-08-05T11:25:30.284Z</time>
      </trkpt>
      <trkpt lat="46.97881" lon="8.7307">
        <ele>592</ele>
        <time>2021-08-05T11:25:31.284Z</time>
      </trkpt>
      <trkpt lat="46.9788" lon="8.73072">
        <ele>592</ele>
        <time>2021-08-05T11:25:32.283Z</time>
      </trkpt>
      <trkpt lat="46.97879" lon="8.73073">
        <ele>593</ele>
        <time>2021-08-05T11:25:33.284Z</time>
      </trkpt>
      <trkpt lat="46.97879" lon="8.73075">
        <ele>593</ele>
        <time>2021-08-05T11:25:34.283Z</time>
      </trkpt>
      <trkpt lat="46.97878" lon="8.73077">
        <ele>593</ele>
        <time>2021-08-05T11:25:35.283Z</time>
      </trkpt>
      <trkpt lat="46.97878" lon="8.73079">
        <ele>593</ele>
        <time>2021-08-05T11:25:36.284Z</time>
      </trkpt>
      <trkpt lat="46.97878" lon="8.73081">
        <ele>593</ele>
        <time>2021-08-05T11:25:37.284Z</time>
      </trkpt>
      <trkpt lat="46.97877" lon="8.73084">
        <ele>593</ele>
        <time>2021-08-05T11:25:38.283Z</time>
      </trkpt>
      <trkpt lat="46.97877" lon="8.73085">
        <ele>593</ele>
        <time>2021-08-05T11:25:39.284Z</time>
      </trkpt>
      <trkpt lat="46.97877" lon="8.73087">
        <ele>593</ele>
        <time>2021-08-05T11:25:40.284Z</time>
      </trkpt>
      <trkpt lat="46.97877" lon="8.73089">
        <ele>593</ele>
        <time>2021-08-05T11:25:41.284Z</time>
      </trkpt>
      <trkpt lat="46.97877" lon="8.73091">
        <ele>592</ele>
        <time>2021-08-05T11:25:42.284Z</time>
      </trkpt>
      <trkpt lat="46.97877" lon="8.73093">
        <ele>592</ele>
        <time>2021-08-05T11:25:43.283Z</time>
      </trkpt>
      <trkpt lat="46.97877" lon="8.73094">
        <ele>592</ele>
        <time>2021-08-05T11:25:44.284Z</time>
      </trkpt>
      <trkpt lat="46.97877" lon="8.73096">
        <ele>591</ele>
        <time>2021-08-05T11:25:45.284Z</time>
      </trkpt>
      <trkpt lat="46.97876" lon="8.73098">
        <ele>591</ele>
        <time>2021-08-05T11:25:46.284Z</time>
      </trkpt>
      <trkpt lat="46.97876" lon="8.73101">
        <ele>591</ele>
        <time>2021-08-05T11:25:47.284Z</time>
      </trkpt>
      <trkpt lat="46.97877" lon="8.73102">
        <ele>591</ele>
        <time>2021-08-05T11:25:48.284Z</time>
      </trkpt>
      <trkpt lat="46.97877" lon="8.73104">
        <ele>591</ele>
        <time>2021-08-05T11:25:49.284Z</time>
      </trkpt>
      <trkpt lat="46.97876" lon="8.73106">
        <ele>590</ele>
        <time>2021-08-05T11:25:50.283Z</time>
      </trkpt>
      <trkpt lat="46.97876" lon="8.73108">
        <ele>590</ele>
        <time>2021-08-05T11:25:51.283Z</time>
      </trkpt>
      <trkpt lat="46.97876" lon="8.7311">
        <ele>590</ele>
        <time>2021-08-05T11:25:52.283Z</time>
      </trkpt>
      <trkpt lat="46.97876" lon="8.73112">
        <ele>591</ele>
        <time>2021-08-05T11:25:53.284Z</time>
      </trkpt>
      <trkpt lat="46.97876" lon="8.73114">
        <ele>591</ele>
        <time>2021-08-05T11:25:54.283Z</time>
      </trkpt>
      <trkpt lat="46.97876" lon="8.73116">
        <ele>591</ele>
        <time>2021-08-05T11:25:55.284Z</time>
      </trkpt>
      <trkpt lat="46.97876" lon="8.73118">
        <ele>591</ele>
        <time>2021-08-05T11:25:56.284Z</time>
      </trkpt>
      <trkpt lat="46.97875" lon="8.7312">
        <ele>591</ele>
        <time>2021-08-05T11:25:57.284Z</time>
      </trkpt>
      <trkpt lat="46.97875" lon="8.73122">
        <ele>590</ele>
        <time>2021-08-05T11:25:58.284Z</time>
      </trkpt>
      <trkpt lat="46.97875" lon="8.73124">
        <ele>590</ele>
        <time>2021-08-05T11:25:59.283Z</time>
      </trkpt>
      <trkpt lat="46.97876" lon="8.73126">
        <ele>590</ele>
        <time>2021-08-05T11:26:00.284Z</time>
      </trkpt>
      <trkpt lat="46.97876" lon="8.73127">
        <ele>590</ele>
        <time>2021-08-05T11:26:01.283Z</time>
      </trkpt>
      <trkpt lat="46.97876" lon="8.73129">
        <ele>589</ele>
        <time>2021-08-05T11:26:02.284Z</time>
      </trkpt>
      <trkpt lat="46.97876" lon="8.73131">
        <ele>589</ele>
        <time>2021-08-05T11:26:03.284Z</time>
      </trkpt>
      <trkpt lat="46.97876" lon="8.73133">
        <ele>588</ele>
        <time>2021-08-05T11:26:04.284Z</time>
      </trkpt>
      <trkpt lat="46.97876" lon="8.73135">
        <ele>587</ele>
        <time>2021-08-05T11:26:05.284Z</time>
      </trkpt>
      <trkpt lat="46.97877" lon="8.73137">
        <ele>587</ele>
        <time>2021-08-05T11:26:06.284Z</time>
      </trkpt>
      <trkpt lat="46.97877" lon="8.73139">
        <ele>587</ele>
        <time>2021-08-05T11:26:07.283Z</time>
      </trkpt>
      <trkpt lat="46.97877" lon="8.73141">
        <ele>587</ele>
        <time>2021-08-05T11:26:08.284Z</time>
      </trkpt>
      <trkpt lat="46.97876" lon="8.73143">
        <ele>587</ele>
        <time>2021-08-05T11:26:09.284Z</time>
      </trkpt>
      <trkpt lat="46.97876" lon="8.73145">
        <ele>587</ele>
        <time>2021-08-05T11:26:10.284Z</time>
      </trkpt>
      <trkpt lat="46.97876" lon="8.73147">
        <ele>587</ele>
        <time>2021-08-05T11:26:11.284Z</time>
      </trkpt>
      <trkpt lat="46.97876" lon="8.73148">
        <ele>588</ele>
        <time>2021-08-05T11:26:12.284Z</time>
      </trkpt>
      <trkpt lat="46.97875" lon="8.73149">
        <ele>588</ele>
        <time>2021-08-05T11:26:13.283Z</time>
      </trkpt>
      <trkpt lat="46.97875" lon="8.7315">
        <ele>589</ele>
        <time>2021-08-05T11:26:14.284Z</time>
      </trkpt>
      <trkpt lat="46.97874" lon="8.73152">
        <ele>589</ele>
        <time>2021-08-05T11:26:15.283Z</time>
      </trkpt>
      <trkpt lat="46.97874" lon="8.73154">
        <ele>590</ele>
        <time>2021-08-05T11:26:16.284Z</time>
      </trkpt>
      <trkpt lat="46.97871" lon="8.73162">
        <ele>590</ele>
        <time>2021-08-05T11:26:19.286Z</time>
      </trkpt>
      <trkpt lat="46.97872" lon="8.73164">
        <ele>590</ele>
        <time>2021-08-05T11:26:20.285Z</time>
      </trkpt>
      <trkpt lat="46.97873" lon="8.73165">
        <ele>590</ele>
        <time>2021-08-05T11:26:21.285Z</time>
      </trkpt>
      <trkpt lat="46.97874" lon="8.73167">
        <ele>590</ele>
        <time>2021-08-05T11:26:22.285Z</time>
      </trkpt>
      <trkpt lat="46.97875" lon="8.73168">
        <ele>590</ele>
        <time>2021-08-05T11:26:23.286Z</time>
      </trkpt>
      <trkpt lat="46.97875" lon="8.73169">
        <ele>590</ele>
        <time>2021-08-05T11:26:24.286Z</time>
      </trkpt>
      <trkpt lat="46.97876" lon="8.73171">
        <ele>591</ele>
        <time>2021-08-05T11:26:25.286Z</time>
      </trkpt>
      <trkpt lat="46.97876" lon="8.73173">
        <ele>591</ele>
        <time>2021-08-05T11:26:26.286Z</time>
      </trkpt>
      <trkpt lat="46.97876" lon="8.73175">
        <ele>591</ele>
        <time>2021-08-05T11:26:27.285Z</time>
      </trkpt>
      <trkpt lat="46.97877" lon="8.73176">
        <ele>591</ele>
        <time>2021-08-05T11:26:28.286Z</time>
      </trkpt>
      <trkpt lat="46.97877" lon="8.73178">
        <ele>591</ele>
        <time>2021-08-05T11:26:29.286Z</time>
      </trkpt>
      <trkpt lat="46.97877" lon="8.73182">
        <ele>591</ele>
        <time>2021-08-05T11:26:30.285Z</time>
      </trkpt>
      <trkpt lat="46.97878" lon="8.73185">
        <ele>592</ele>
        <time>2021-08-05T11:26:31.286Z</time>
      </trkpt>
      <trkpt lat="46.97878" lon="8.73187">
        <ele>592</ele>
        <time>2021-08-05T11:26:32.286Z</time>
      </trkpt>
      <trkpt lat="46.97878" lon="8.73189">
        <ele>592</ele>
        <time>2021-08-05T11:26:33.286Z</time>
      </trkpt>
      <trkpt lat="46.97878" lon="8.73191">
        <ele>592</ele>
        <time>2021-08-05T11:26:34.286Z</time>
      </trkpt>
      <trkpt lat="46.97878" lon="8.73194">
        <ele>592</ele>
        <time>2021-08-05T11:26:35.286Z</time>
      </trkpt>
      <trkpt lat="46.97878" lon="8.73195">
        <ele>593</ele>
        <time>2021-08-05T11:26:36.285Z</time>
      </trkpt>
      <trkpt lat="46.97878" lon="8.73197">
        <ele>593</ele>
        <time>2021-08-05T11:26:37.286Z</time>
      </trkpt>
      <trkpt lat="46.97878" lon="8.732">
        <ele>593</ele>
        <time>2021-08-05T11:26:38.286Z</time>
      </trkpt>
      <trkpt lat="46.97877" lon="8.73202">
        <ele>594</ele>
        <time>2021-08-05T11:26:39.285Z</time>
      </trkpt>
      <trkpt lat="46.97877" lon="8.73204">
        <ele>594</ele>
        <time>2021-08-05T11:26:40.285Z</time>
      </trkpt>
      <trkpt lat="46.97877" lon="8.73206">
        <ele>594</ele>
        <time>2021-08-05T11:26:41.286Z</time>
      </trkpt>
      <trkpt lat="46.97877" lon="8.73208">
        <ele>595</ele>
        <time>2021-08-05T11:26:42.285Z</time>
      </trkpt>
      <trkpt lat="46.97877" lon="8.73209">
        <ele>595</ele>
        <time>2021-08-05T11:26:43.286Z</time>
      </trkpt>
      <trkpt lat="46.97876" lon="8.73211">
        <ele>595</ele>
        <time>2021-08-05T11:26:44.285Z</time>
      </trkpt>
      <trkpt lat="46.97876" lon="8.73212">
        <ele>594</ele>
        <time>2021-08-05T11:26:45.286Z</time>
      </trkpt>
      <trkpt lat="46.97876" lon="8.73214">
        <ele>594</ele>
        <time>2021-08-05T11:26:46.286Z</time>
      </trkpt>
      <trkpt lat="46.97876" lon="8.73215">
        <ele>593</ele>
        <time>2021-08-05T11:26:47.286Z</time>
      </trkpt>
      <trkpt lat="46.97876" lon="8.73217">
        <ele>592</ele>
        <time>2021-08-05T11:26:48.286Z</time>
      </trkpt>
      <trkpt lat="46.97876" lon="8.73218">
        <ele>592</ele>
        <time>2021-08-05T11:26:49.285Z</time>
      </trkpt>
      <trkpt lat="46.97875" lon="8.7322">
        <ele>592</ele>
        <time>2021-08-05T11:26:50.285Z</time>
      </trkpt>
      <trkpt lat="46.97875" lon="8.73222">
        <ele>592</ele>
        <time>2021-08-05T11:26:51.286Z</time>
      </trkpt>
      <trkpt lat="46.97874" lon="8.73224">
        <ele>591</ele>
        <time>2021-08-05T11:26:52.285Z</time>
      </trkpt>
      <trkpt lat="46.97874" lon="8.73225">
        <ele>591</ele>
        <time>2021-08-05T11:26:53.286Z</time>
      </trkpt>
      <trkpt lat="46.97873" lon="8.73227">
        <ele>591</ele>
        <time>2021-08-05T11:26:54.286Z</time>
      </trkpt>
      <trkpt lat="46.97873" lon="8.73229">
        <ele>590</ele>
        <time>2021-08-05T11:26:55.285Z</time>
      </trkpt>
      <trkpt lat="46.97872" lon="8.7323">
        <ele>589</ele>
        <time>2021-08-05T11:26:56.286Z</time>
      </trkpt>
      <trkpt lat="46.97872" lon="8.73232">
        <ele>588</ele>
        <time>2021-08-05T11:26:57.285Z</time>
      </trkpt>
      <trkpt lat="46.97871" lon="8.73234">
        <ele>588</ele>
        <time>2021-08-05T11:26:58.285Z</time>
      </trkpt>
      <trkpt lat="46.97871" lon="8.73236">
        <ele>588</ele>
        <time>2021-08-05T11:26:59.285Z</time>
      </trkpt>
      <trkpt lat="46.9787" lon="8.73237">
        <ele>588</ele>
        <time>2021-08-05T11:27:00.286Z</time>
      </trkpt>
      <trkpt lat="46.97869" lon="8.73239">
        <ele>588</ele>
        <time>2021-08-05T11:27:01.286Z</time>
      </trkpt>
      <trkpt lat="46.97869" lon="8.73241">
        <ele>588</ele>
        <time>2021-08-05T11:27:02.286Z</time>
      </trkpt>
      <trkpt lat="46.97868" lon="8.73242">
        <ele>588</ele>
        <time>2021-08-05T11:27:03.285Z</time>
      </trkpt>
      <trkpt lat="46.97868" lon="8.73244">
        <ele>588</ele>
        <time>2021-08-05T11:27:04.286Z</time>
      </trkpt>
      <trkpt lat="46.97867" lon="8.73245">
        <ele>587</ele>
        <time>2021-08-05T11:27:05.286Z</time>
      </trkpt>
      <trkpt lat="46.97867" lon="8.73246">
        <ele>587</ele>
        <time>2021-08-05T11:27:06.286Z</time>
      </trkpt>
      <trkpt lat="46.97866" lon="8.73248">
        <ele>587</ele>
        <time>2021-08-05T11:27:07.286Z</time>
      </trkpt>
      <trkpt lat="46.97865" lon="8.7325">
        <ele>587</ele>
        <time>2021-08-05T11:27:08.285Z</time>
      </trkpt>
      <trkpt lat="46.97864" lon="8.73251">
        <ele>587</ele>
        <time>2021-08-05T11:27:09.286Z</time>
      </trkpt>
      <trkpt lat="46.97864" lon="8.73253">
        <ele>587</ele>
        <time>2021-08-05T11:27:10.285Z</time>
      </trkpt>
      <trkpt lat="46.97863" lon="8.73254">
        <ele>587</ele>
        <time>2021-08-05T11:27:11.286Z</time>
      </trkpt>
      <trkpt lat="46.97862" lon="8.73256">
        <ele>587</ele>
        <time>2021-08-05T11:27:12.285Z</time>
      </trkpt>
      <trkpt lat="46.97862" lon="8.73257">
        <ele>588</ele>
        <time>2021-08-05T11:27:13.286Z</time>
      </trkpt>
      <trkpt lat="46.97861" lon="8.73258">
        <ele>588</ele>
        <time>2021-08-05T11:27:14.286Z</time>
      </trkpt>
      <trkpt lat="46.9786" lon="8.7326">
        <ele>588</ele>
        <time>2021-08-05T11:27:15.286Z</time>
      </trkpt>
      <trkpt lat="46.97859" lon="8.73262">
        <ele>589</ele>
        <time>2021-08-05T11:27:16.286Z</time>
      </trkpt>
      <trkpt lat="46.97858" lon="8.73264">
        <ele>589</ele>
        <time>2021-08-05T11:27:17.285Z</time>
      </trkpt>
      <trkpt lat="46.97857" lon="8.73266">
        <ele>589</ele>
        <time>2021-08-05T11:27:18.286Z</time>
      </trkpt>
      <trkpt lat="46.97857" lon="8.73268">
        <ele>589</ele>
        <time>2021-08-05T11:27:19.286Z</time>
      </trkpt>
      <trkpt lat="46.97856" lon="8.73269">
        <ele>589</ele>
        <time>2021-08-05T11:27:20.285Z</time>
      </trkpt>
      <trkpt lat="46.97855" lon="8.7327">
        <ele>589</ele>
        <time>2021-08-05T11:27:21.285Z</time>
      </trkpt>
      <trkpt lat="46.97854" lon="8.73272">
        <ele>589</ele>
        <time>2021-08-05T11:27:22.286Z</time>
      </trkpt>
      <trkpt lat="46.97853" lon="8.73274">
        <ele>590</ele>
        <time>2021-08-05T11:27:23.286Z</time>
      </trkpt>
      <trkpt lat="46.97853" lon="8.73275">
        <ele>591</ele>
        <time>2021-08-05T11:27:24.286Z</time>
      </trkpt>
      <trkpt lat="46.97852" lon="8.73276">
        <ele>591</ele>
        <time>2021-08-05T11:27:25.286Z</time>
      </trkpt>
      <trkpt lat="46.97851" lon="8.73277">
        <ele>592</ele>
        <time>2021-08-05T11:27:26.286Z</time>
      </trkpt>
      <trkpt lat="46.97851" lon="8.73278">
        <ele>593</ele>
        <time>2021-08-05T11:27:27.286Z</time>
      </trkpt>
      <trkpt lat="46.9785" lon="8.7328">
        <ele>594</ele>
        <time>2021-08-05T11:27:28.286Z</time>
      </trkpt>
      <trkpt lat="46.97849" lon="8.73282">
        <ele>594</ele>
        <time>2021-08-05T11:27:29.286Z</time>
      </trkpt>
      <trkpt lat="46.97849" lon="8.73283">
        <ele>594</ele>
        <time>2021-08-05T11:27:30.285Z</time>
      </trkpt>
      <trkpt lat="46.97848" lon="8.73285">
        <ele>595</ele>
        <time>2021-08-05T11:27:31.285Z</time>
      </trkpt>
      <trkpt lat="46.97847" lon="8.73287">
        <ele>595</ele>
        <time>2021-08-05T11:27:32.285Z</time>
      </trkpt>
      <trkpt lat="46.97846" lon="8.73289">
        <ele>595</ele>
        <time>2021-08-05T11:27:33.285Z</time>
      </trkpt>
      <trkpt lat="46.97846" lon="8.7329">
        <ele>595</ele>
        <time>2021-08-05T11:27:34.285Z</time>
      </trkpt>
      <trkpt lat="46.97845" lon="8.73292">
        <ele>595</ele>
        <time>2021-08-05T11:27:35.285Z</time>
      </trkpt>
      <trkpt lat="46.97844" lon="8.73293">
        <ele>595</ele>
        <time>2021-08-05T11:27:36.286Z</time>
      </trkpt>
      <trkpt lat="46.97843" lon="8.73293">
        <ele>595</ele>
        <time>2021-08-05T11:27:37.285Z</time>
      </trkpt>
      <trkpt lat="46.97841" lon="8.73294">
        <ele>595</ele>
        <time>2021-08-05T11:27:38.286Z</time>
      </trkpt>
      <trkpt lat="46.97841" lon="8.73296">
        <ele>595</ele>
        <time>2021-08-05T11:27:39.286Z</time>
      </trkpt>
      <trkpt lat="46.9784" lon="8.73297">
        <ele>595</ele>
        <time>2021-08-05T11:27:40.285Z</time>
      </trkpt>
      <trkpt lat="46.97839" lon="8.73299">
        <ele>595</ele>
        <time>2021-08-05T11:27:41.286Z</time>
      </trkpt>
      <trkpt lat="46.97839" lon="8.733">
        <ele>595</ele>
        <time>2021-08-05T11:27:42.285Z</time>
      </trkpt>
      <trkpt lat="46.97838" lon="8.73302">
        <ele>594</ele>
        <time>2021-08-05T11:27:43.286Z</time>
      </trkpt>
      <trkpt lat="46.97838" lon="8.73304">
        <ele>594</ele>
        <time>2021-08-05T11:27:44.285Z</time>
      </trkpt>
      <trkpt lat="46.97837" lon="8.73305">
        <ele>594</ele>
        <time>2021-08-05T11:27:45.285Z</time>
      </trkpt>
      <trkpt lat="46.97836" lon="8.73306">
        <ele>594</ele>
        <time>2021-08-05T11:27:46.285Z</time>
      </trkpt>
      <trkpt lat="46.97835" lon="8.73307">
        <ele>593</ele>
        <time>2021-08-05T11:27:47.286Z</time>
      </trkpt>
      <trkpt lat="46.97835" lon="8.73309">
        <ele>593</ele>
        <time>2021-08-05T11:27:48.285Z</time>
      </trkpt>
      <trkpt lat="46.97834" lon="8.7331">
        <ele>593</ele>
        <time>2021-08-05T11:27:49.285Z</time>
      </trkpt>
      <trkpt lat="46.97833" lon="8.73312">
        <ele>593</ele>
        <time>2021-08-05T11:27:50.286Z</time>
      </trkpt>
      <trkpt lat="46.97832" lon="8.73314">
        <ele>593</ele>
        <time>2021-08-05T11:27:51.286Z</time>
      </trkpt>
      <trkpt lat="46.97832" lon="8.73316">
        <ele>593</ele>
        <time>2021-08-05T11:27:52.285Z</time>
      </trkpt>
      <trkpt lat="46.97832" lon="8.73318">
        <ele>593</ele>
        <time>2021-08-05T11:27:53.285Z</time>
      </trkpt>
      <trkpt lat="46.97831" lon="8.73319">
        <ele>592</ele>
        <time>2021-08-05T11:27:54.285Z</time>
      </trkpt>
      <trkpt lat="46.97831" lon="8.73321">
        <ele>592</ele>
        <time>2021-08-05T11:27:55.285Z</time>
      </trkpt>
      <trkpt lat="46.9783" lon="8.73323">
        <ele>592</ele>
        <time>2021-08-05T11:27:56.285Z</time>
      </trkpt>
      <trkpt lat="46.9783" lon="8.73325">
        <ele>592</ele>
        <time>2021-08-05T11:27:57.286Z</time>
      </trkpt>
      <trkpt lat="46.9783" lon="8.73327">
        <ele>592</ele>
        <time>2021-08-05T11:27:58.285Z</time>
      </trkpt>
      <trkpt lat="46.97831" lon="8.73329">
        <ele>591</ele>
        <time>2021-08-05T11:27:59.285Z</time>
      </trkpt>
      <trkpt lat="46.97831" lon="8.7333">
        <ele>591</ele>
        <time>2021-08-05T11:28:00.285Z</time>
      </trkpt>
      <trkpt lat="46.97831" lon="8.73332">
        <ele>591</ele>
        <time>2021-08-05T11:28:01.286Z</time>
      </trkpt>
      <trkpt lat="46.97831" lon="8.73333">
        <ele>590</ele>
        <time>2021-08-05T11:28:02.285Z</time>
      </trkpt>
      <trkpt lat="46.97832" lon="8.73335">
        <ele>590</ele>
        <time>2021-08-05T11:28:03.285Z</time>
      </trkpt>
      <trkpt lat="46.97832" lon="8.73336">
        <ele>590</ele>
        <time>2021-08-05T11:28:04.285Z</time>
      </trkpt>
      <trkpt lat="46.97832" lon="8.73338">
        <ele>590</ele>
        <time>2021-08-05T11:28:05.285Z</time>
      </trkpt>
      <trkpt lat="46.97833" lon="8.73339">
        <ele>590</ele>
        <time>2021-08-05T11:28:06.286Z</time>
      </trkpt>
      <trkpt lat="46.97833" lon="8.7334">
        <ele>590</ele>
        <time>2021-08-05T11:28:07.285Z</time>
      </trkpt>
      <trkpt lat="46.97833" lon="8.73342">
        <ele>590</ele>
        <time>2021-08-05T11:28:08.285Z</time>
      </trkpt>
      <trkpt lat="46.97833" lon="8.73344">
        <ele>591</ele>
        <time>2021-08-05T11:28:09.286Z</time>
      </trkpt>
      <trkpt lat="46.97832" lon="8.73346">
        <ele>591</ele>
        <time>2021-08-05T11:28:10.285Z</time>
      </trkpt>
      <trkpt lat="46.97832" lon="8.73348">
        <ele>591</ele>
        <time>2021-08-05T11:28:11.285Z</time>
      </trkpt>
      <trkpt lat="46.97831" lon="8.7335">
        <ele>592</ele>
        <time>2021-08-05T11:28:12.285Z</time>
      </trkpt>
      <trkpt lat="46.97831" lon="8.73352">
        <ele>592</ele>
        <time>2021-08-05T11:28:13.286Z</time>
      </trkpt>
      <trkpt lat="46.97831" lon="8.73354">
        <ele>592</ele>
        <time>2021-08-05T11:28:14.286Z</time>
      </trkpt>
      <trkpt lat="46.9783" lon="8.73357">
        <ele>593</ele>
        <time>2021-08-05T11:28:15.285Z</time>
      </trkpt>
      <trkpt lat="46.97831" lon="8.73359">
        <ele>593</ele>
        <time>2021-08-05T11:28:16.285Z</time>
      </trkpt>
      <trkpt lat="46.97831" lon="8.7336">
        <ele>592</ele>
        <time>2021-08-05T11:28:17.286Z</time>
      </trkpt>
      <trkpt lat="46.97831" lon="8.73362">
        <ele>592</ele>
        <time>2021-08-05T11:28:18.285Z</time>
      </trkpt>
      <trkpt lat="46.97831" lon="8.73363">
        <ele>591</ele>
        <time>2021-08-05T11:28:19.286Z</time>
      </trkpt>
      <trkpt lat="46.97831" lon="8.73365">
        <ele>591</ele>
        <time>2021-08-05T11:28:20.285Z</time>
      </trkpt>
      <trkpt lat="46.9783" lon="8.73366">
        <ele>591</ele>
        <time>2021-08-05T11:28:21.286Z</time>
      </trkpt>
      <trkpt lat="46.9783" lon="8.73367">
        <ele>590</ele>
        <time>2021-08-05T11:28:22.286Z</time>
      </trkpt>
      <trkpt lat="46.9783" lon="8.73369">
        <ele>590</ele>
        <time>2021-08-05T11:28:23.286Z</time>
      </trkpt>
      <trkpt lat="46.9783" lon="8.7337">
        <ele>589</ele>
        <time>2021-08-05T11:28:24.286Z</time>
      </trkpt>
      <trkpt lat="46.9783" lon="8.73372">
        <ele>589</ele>
        <time>2021-08-05T11:28:25.286Z</time>
      </trkpt>
      <trkpt lat="46.9783" lon="8.73374">
        <ele>589</ele>
        <time>2021-08-05T11:28:26.286Z</time>
      </trkpt>
      <trkpt lat="46.9783" lon="8.73376">
        <ele>589</ele>
        <time>2021-08-05T11:28:27.285Z</time>
      </trkpt>
      <trkpt lat="46.97829" lon="8.73378">
        <ele>589</ele>
        <time>2021-08-05T11:28:28.286Z</time>
      </trkpt>
      <trkpt lat="46.97829" lon="8.7338">
        <ele>589</ele>
        <time>2021-08-05T11:28:29.285Z</time>
      </trkpt>
      <trkpt lat="46.97829" lon="8.73381">
        <ele>590</ele>
        <time>2021-08-05T11:28:30.286Z</time>
      </trkpt>
      <trkpt lat="46.97829" lon="8.73383">
        <ele>590</ele>
        <time>2021-08-05T11:28:31.285Z</time>
      </trkpt>
      <trkpt lat="46.97829" lon="8.73385">
        <ele>590</ele>
        <time>2021-08-05T11:28:32.286Z</time>
      </trkpt>
      <trkpt lat="46.97828" lon="8.73386">
        <ele>591</ele>
        <time>2021-08-05T11:28:33.286Z</time>
      </trkpt>
      <trkpt lat="46.97828" lon="8.73388">
        <ele>591</ele>
        <time>2021-08-05T11:28:34.286Z</time>
      </trkpt>
      <trkpt lat="46.97828" lon="8.7339">
        <ele>591</ele>
        <time>2021-08-05T11:28:35.286Z</time>
      </trkpt>
      <trkpt lat="46.97828" lon="8.73392">
        <ele>591</ele>
        <time>2021-08-05T11:28:36.286Z</time>
      </trkpt>
      <trkpt lat="46.97827" lon="8.73393">
        <ele>591</ele>
        <time>2021-08-05T11:28:37.286Z</time>
      </trkpt>
      <trkpt lat="46.97827" lon="8.73394">
        <ele>591</ele>
        <time>2021-08-05T11:28:38.285Z</time>
      </trkpt>
      <trkpt lat="46.97827" lon="8.73396">
        <ele>591</ele>
        <time>2021-08-05T11:28:39.285Z</time>
      </trkpt>
      <trkpt lat="46.97826" lon="8.73397">
        <ele>592</ele>
        <time>2021-08-05T11:28:40.286Z</time>
      </trkpt>
      <trkpt lat="46.97825" lon="8.73399">
        <ele>592</ele>
        <time>2021-08-05T11:28:41.285Z</time>
      </trkpt>
      <trkpt lat="46.97824" lon="8.734">
        <ele>592</ele>
        <time>2021-08-05T11:28:42.285Z</time>
      </trkpt>
      <trkpt lat="46.97824" lon="8.73402">
        <ele>593</ele>
        <time>2021-08-05T11:28:43.286Z</time>
      </trkpt>
      <trkpt lat="46.97823" lon="8.73404">
        <ele>593</ele>
        <time>2021-08-05T11:28:44.286Z</time>
      </trkpt>
      <trkpt lat="46.97823" lon="8.73405">
        <ele>592</ele>
        <time>2021-08-05T11:28:45.286Z</time>
      </trkpt>
      <trkpt lat="46.97822" lon="8.73407">
        <ele>592</ele>
        <time>2021-08-05T11:28:46.286Z</time>
      </trkpt>
      <trkpt lat="46.97821" lon="8.73408">
        <ele>592</ele>
        <time>2021-08-05T11:28:47.286Z</time>
      </trkpt>
      <trkpt lat="46.9782" lon="8.7341">
        <ele>591</ele>
        <time>2021-08-05T11:28:48.285Z</time>
      </trkpt>
      <trkpt lat="46.9782" lon="8.73411">
        <ele>591</ele>
        <time>2021-08-05T11:28:49.285Z</time>
      </trkpt>
      <trkpt lat="46.97819" lon="8.73413">
        <ele>591</ele>
        <time>2021-08-05T11:28:50.286Z</time>
      </trkpt>
      <trkpt lat="46.97819" lon="8.73414">
        <ele>591</ele>
        <time>2021-08-05T11:28:51.285Z</time>
      </trkpt>
      <trkpt lat="46.97818" lon="8.73416">
        <ele>591</ele>
        <time>2021-08-05T11:28:52.285Z</time>
      </trkpt>
      <trkpt lat="46.97818" lon="8.73418">
        <ele>591</ele>
        <time>2021-08-05T11:28:53.285Z</time>
      </trkpt>
      <trkpt lat="46.97817" lon="8.73419">
        <ele>590</ele>
        <time>2021-08-05T11:28:54.286Z</time>
      </trkpt>
      <trkpt lat="46.97817" lon="8.7342">
        <ele>589</ele>
        <time>2021-08-05T11:28:55.285Z</time>
      </trkpt>
      <trkpt lat="46.97816" lon="8.73421">
        <ele>589</ele>
        <time>2021-08-05T11:28:56.286Z</time>
      </trkpt>
      <trkpt lat="46.97815" lon="8.73422">
        <ele>588</ele>
        <time>2021-08-05T11:28:57.285Z</time>
      </trkpt>
      <trkpt lat="46.97814" lon="8.73423">
        <ele>588</ele>
        <time>2021-08-05T11:28:58.285Z</time>
      </trkpt>
      <trkpt lat="46.97813" lon="8.73425">
        <ele>588</ele>
        <time>2021-08-05T11:28:59.285Z</time>
      </trkpt>
      <trkpt lat="46.97813" lon="8.73426">
        <ele>588</ele>
        <time>2021-08-05T11:29:00.286Z</time>
      </trkpt>
      <trkpt lat="46.97812" lon="8.73427">
        <ele>587</ele>
        <time>2021-08-05T11:29:01.286Z</time>
      </trkpt>
      <trkpt lat="46.97811" lon="8.73429">
        <ele>586</ele>
        <time>2021-08-05T11:29:02.285Z</time>
      </trkpt>
      <trkpt lat="46.9781" lon="8.7343">
        <ele>586</ele>
        <time>2021-08-05T11:29:03.285Z</time>
      </trkpt>
      <trkpt lat="46.97809" lon="8.73431">
        <ele>585</ele>
        <time>2021-08-05T11:29:04.286Z</time>
      </trkpt>
      <trkpt lat="46.97808" lon="8.73432">
        <ele>585</ele>
        <time>2021-08-05T11:29:05.285Z</time>
      </trkpt>
      <trkpt lat="46.97807" lon="8.73433">
        <ele>585</ele>
        <time>2021-08-05T11:29:06.286Z</time>
      </trkpt>
      <trkpt lat="46.97806" lon="8.73434">
        <ele>585</ele>
        <time>2021-08-05T11:29:07.286Z</time>
      </trkpt>
      <trkpt lat="46.97806" lon="8.73435">
        <ele>585</ele>
        <time>2021-08-05T11:29:08.286Z</time>
      </trkpt>
      <trkpt lat="46.97805" lon="8.73437">
        <ele>585</ele>
        <time>2021-08-05T11:29:09.285Z</time>
      </trkpt>
      <trkpt lat="46.97804" lon="8.73439">
        <ele>586</ele>
        <time>2021-08-05T11:29:10.285Z</time>
      </trkpt>
      <trkpt lat="46.97803" lon="8.7344">
        <ele>587</ele>
        <time>2021-08-05T11:29:11.285Z</time>
      </trkpt>
      <trkpt lat="46.97803" lon="8.73442">
        <ele>588</ele>
        <time>2021-08-05T11:29:12.286Z</time>
      </trkpt>
      <trkpt lat="46.97802" lon="8.73444">
        <ele>588</ele>
        <time>2021-08-05T11:29:13.285Z</time>
      </trkpt>
      <trkpt lat="46.97802" lon="8.73445">
        <ele>589</ele>
        <time>2021-08-05T11:29:14.285Z</time>
      </trkpt>
      <trkpt lat="46.97801" lon="8.73447">
        <ele>589</ele>
        <time>2021-08-05T11:29:15.285Z</time>
      </trkpt>
      <trkpt lat="46.978" lon="8.73448">
        <ele>589</ele>
        <time>2021-08-05T11:29:16.286Z</time>
      </trkpt>
      <trkpt lat="46.97799" lon="8.7345">
        <ele>590</ele>
        <time>2021-08-05T11:29:17.286Z</time>
      </trkpt>
      <trkpt lat="46.97798" lon="8.73451">
        <ele>590</ele>
        <time>2021-08-05T11:29:18.286Z</time>
      </trkpt>
      <trkpt lat="46.97798" lon="8.73452">
        <ele>590</ele>
        <time>2021-08-05T11:29:19.286Z</time>
      </trkpt>
      <trkpt lat="46.97797" lon="8.73453">
        <ele>590</ele>
        <time>2021-08-05T11:29:20.285Z</time>
      </trkpt>
      <trkpt lat="46.97796" lon="8.73454">
        <ele>590</ele>
        <time>2021-08-05T11:29:21.286Z</time>
      </trkpt>
      <trkpt lat="46.97795" lon="8.73456">
        <ele>590</ele>
        <time>2021-08-05T11:29:22.286Z</time>
      </trkpt>
      <trkpt lat="46.97795" lon="8.73457">
        <ele>590</ele>
        <time>2021-08-05T11:29:23.285Z</time>
      </trkpt>
      <trkpt lat="46.97794" lon="8.73458">
        <ele>590</ele>
        <time>2021-08-05T11:29:24.286Z</time>
      </trkpt>
      <trkpt lat="46.97793" lon="8.7346">
        <ele>590</ele>
        <time>2021-08-05T11:29:25.285Z</time>
      </trkpt>
      <trkpt lat="46.97793" lon="8.73462">
        <ele>590</ele>
        <time>2021-08-05T11:29:26.285Z</time>
      </trkpt>
      <trkpt lat="46.97792" lon="8.73463">
        <ele>590</ele>
        <time>2021-08-05T11:29:27.285Z</time>
      </trkpt>
      <trkpt lat="46.97791" lon="8.73465">
        <ele>590</ele>
        <time>2021-08-05T11:29:28.285Z</time>
      </trkpt>
      <trkpt lat="46.97791" lon="8.73467">
        <ele>590</ele>
        <time>2021-08-05T11:29:29.286Z</time>
      </trkpt>
      <trkpt lat="46.9779" lon="8.73468">
        <ele>590</ele>
        <time>2021-08-05T11:29:30.286Z</time>
      </trkpt>
      <trkpt lat="46.97788" lon="8.73469">
        <ele>590</ele>
        <time>2021-08-05T11:29:31.286Z</time>
      </trkpt>
      <trkpt lat="46.97788" lon="8.73471">
        <ele>591</ele>
        <time>2021-08-05T11:29:32.285Z</time>
      </trkpt>
      <trkpt lat="46.97787" lon="8.73471">
        <ele>591</ele>
        <time>2021-08-05T11:29:33.285Z</time>
      </trkpt>
      <trkpt lat="46.97785" lon="8.73472">
        <ele>592</ele>
        <time>2021-08-05T11:29:34.286Z</time>
      </trkpt>
      <trkpt lat="46.97784" lon="8.73474">
        <ele>593</ele>
        <time>2021-08-05T11:29:35.286Z</time>
      </trkpt>
      <trkpt lat="46.97783" lon="8.73475">
        <ele>594</ele>
        <time>2021-08-05T11:29:36.286Z</time>
      </trkpt>
      <trkpt lat="46.97783" lon="8.73477">
        <ele>595</ele>
        <time>2021-08-05T11:29:37.286Z</time>
      </trkpt>
      <trkpt lat="46.97782" lon="8.73478">
        <ele>596</ele>
        <time>2021-08-05T11:29:38.285Z</time>
      </trkpt>
      <trkpt lat="46.97781" lon="8.73479">
        <ele>597</ele>
        <time>2021-08-05T11:29:39.285Z</time>
      </trkpt>
      <trkpt lat="46.9778" lon="8.73481">
        <ele>597</ele>
        <time>2021-08-05T11:29:40.286Z</time>
      </trkpt>
      <trkpt lat="46.9778" lon="8.73482">
        <ele>597</ele>
        <time>2021-08-05T11:29:41.286Z</time>
      </trkpt>
      <trkpt lat="46.9778" lon="8.73484">
        <ele>597</ele>
        <time>2021-08-05T11:29:42.285Z</time>
      </trkpt>
      <trkpt lat="46.97779" lon="8.73485">
        <ele>597</ele>
        <time>2021-08-05T11:29:43.285Z</time>
      </trkpt>
      <trkpt lat="46.97779" lon="8.73487">
        <ele>596</ele>
        <time>2021-08-05T11:29:44.285Z</time>
      </trkpt>
      <trkpt lat="46.97778" lon="8.73489">
        <ele>596</ele>
        <time>2021-08-05T11:29:45.286Z</time>
      </trkpt>
      <trkpt lat="46.97778" lon="8.7349">
        <ele>595</ele>
        <time>2021-08-05T11:29:46.285Z</time>
      </trkpt>
      <trkpt lat="46.97777" lon="8.73492">
        <ele>595</ele>
        <time>2021-08-05T11:29:47.285Z</time>
      </trkpt>
      <trkpt lat="46.97776" lon="8.73494">
        <ele>594</ele>
        <time>2021-08-05T11:29:48.285Z</time>
      </trkpt>
      <trkpt lat="46.97776" lon="8.73496">
        <ele>594</ele>
        <time>2021-08-05T11:29:49.286Z</time>
      </trkpt>
      <trkpt lat="46.97775" lon="8.73498">
        <ele>593</ele>
        <time>2021-08-05T11:29:50.285Z</time>
      </trkpt>
      <trkpt lat="46.97775" lon="8.735">
        <ele>593</ele>
        <time>2021-08-05T11:29:51.286Z</time>
      </trkpt>
      <trkpt lat="46.97774" lon="8.73501">
        <ele>592</ele>
        <time>2021-08-05T11:29:52.286Z</time>
      </trkpt>
      <trkpt lat="46.97773" lon="8.73503">
        <ele>591</ele>
        <time>2021-08-05T11:29:53.285Z</time>
      </trkpt>
      <trkpt lat="46.97773" lon="8.73505">
        <ele>591</ele>
        <time>2021-08-05T11:29:54.285Z</time>
      </trkpt>
      <trkpt lat="46.97772" lon="8.73507">
        <ele>591</ele>
        <time>2021-08-05T11:29:55.285Z</time>
      </trkpt>
      <trkpt lat="46.97771" lon="8.73509">
        <ele>591</ele>
        <time>2021-08-05T11:29:56.286Z</time>
      </trkpt>
      <trkpt lat="46.9777" lon="8.73511">
        <ele>591</ele>
        <time>2021-08-05T11:29:57.286Z</time>
      </trkpt>
      <trkpt lat="46.9777" lon="8.73513">
        <ele>591</ele>
        <time>2021-08-05T11:29:58.286Z</time>
      </trkpt>
      <trkpt lat="46.97769" lon="8.73515">
        <ele>590</ele>
        <time>2021-08-05T11:29:59.286Z</time>
      </trkpt>
      <trkpt lat="46.97768" lon="8.73517">
        <ele>590</ele>
        <time>2021-08-05T11:30:00.285Z</time>
      </trkpt>
      <trkpt lat="46.97768" lon="8.73518">
        <ele>590</ele>
        <time>2021-08-05T11:30:01.286Z</time>
      </trkpt>
      <trkpt lat="46.97767" lon="8.73519">
        <ele>590</ele>
        <time>2021-08-05T11:30:02.286Z</time>
      </trkpt>
      <trkpt lat="46.97766" lon="8.73521">
        <ele>590</ele>
        <time>2021-08-05T11:30:03.285Z</time>
      </trkpt>
      <trkpt lat="46.97766" lon="8.73522">
        <ele>590</ele>
        <time>2021-08-05T11:30:04.286Z</time>
      </trkpt>
      <trkpt lat="46.97765" lon="8.73523">
        <ele>590</ele>
        <time>2021-08-05T11:30:05.286Z</time>
      </trkpt>
      <trkpt lat="46.97765" lon="8.73525">
        <ele>590</ele>
        <time>2021-08-05T11:30:06.286Z</time>
      </trkpt>
      <trkpt lat="46.97764" lon="8.73526">
        <ele>590</ele>
        <time>2021-08-05T11:30:07.286Z</time>
      </trkpt>
      <trkpt lat="46.97763" lon="8.73527">
        <ele>590</ele>
        <time>2021-08-05T11:30:08.286Z</time>
      </trkpt>
      <trkpt lat="46.97763" lon="8.73529">
        <ele>590</ele>
        <time>2021-08-05T11:30:09.286Z</time>
      </trkpt>
      <trkpt lat="46.97762" lon="8.7353">
        <ele>590</ele>
        <time>2021-08-05T11:30:10.286Z</time>
      </trkpt>
      <trkpt lat="46.97761" lon="8.73532">
        <ele>590</ele>
        <time>2021-08-05T11:30:11.286Z</time>
      </trkpt>
      <trkpt lat="46.97761" lon="8.73534">
        <ele>590</ele>
        <time>2021-08-05T11:30:12.286Z</time>
      </trkpt>
      <trkpt lat="46.9776" lon="8.73536">
        <ele>589</ele>
        <time>2021-08-05T11:30:13.285Z</time>
      </trkpt>
      <trkpt lat="46.97759" lon="8.73537">
        <ele>589</ele>
        <time>2021-08-05T11:30:14.285Z</time>
      </trkpt>
      <trkpt lat="46.97758" lon="8.73539">
        <ele>589</ele>
        <time>2021-08-05T11:30:15.286Z</time>
      </trkpt>
      <trkpt lat="46.97757" lon="8.73541">
        <ele>589</ele>
        <time>2021-08-05T11:30:16.286Z</time>
      </trkpt>
      <trkpt lat="46.97757" lon="8.73542">
        <ele>589</ele>
        <time>2021-08-05T11:30:17.285Z</time>
      </trkpt>
      <trkpt lat="46.97756" lon="8.73544">
        <ele>589</ele>
        <time>2021-08-05T11:30:18.285Z</time>
      </trkpt>
      <trkpt lat="46.97755" lon="8.73546">
        <ele>589</ele>
        <time>2021-08-05T11:30:19.286Z</time>
      </trkpt>
      <trkpt lat="46.97755" lon="8.73547">
        <ele>589</ele>
        <time>2021-08-05T11:30:20.286Z</time>
      </trkpt>
      <trkpt lat="46.97754" lon="8.73549">
        <ele>589</ele>
        <time>2021-08-05T11:30:21.285Z</time>
      </trkpt>
      <trkpt lat="46.97754" lon="8.73551">
        <ele>589</ele>
        <time>2021-08-05T11:30:22.286Z</time>
      </trkpt>
      <trkpt lat="46.97753" lon="8.73553">
        <ele>589</ele>
        <time>2021-08-05T11:30:23.286Z</time>
      </trkpt>
      <trkpt lat="46.97753" lon="8.73554">
        <ele>589</ele>
        <time>2021-08-05T11:30:24.285Z</time>
      </trkpt>
      <trkpt lat="46.97753" lon="8.73556">
        <ele>590</ele>
        <time>2021-08-05T11:30:25.286Z</time>
      </trkpt>
      <trkpt lat="46.97752" lon="8.73558">
        <ele>590</ele>
        <time>2021-08-05T11:30:26.285Z</time>
      </trkpt>
      <trkpt lat="46.97752" lon="8.73559">
        <ele>590</ele>
        <time>2021-08-05T11:30:27.286Z</time>
      </trkpt>
      <trkpt lat="46.97751" lon="8.7356">
        <ele>590</ele>
        <time>2021-08-05T11:30:28.285Z</time>
      </trkpt>
      <trkpt lat="46.9775" lon="8.73562">
        <ele>590</ele>
        <time>2021-08-05T11:30:29.285Z</time>
      </trkpt>
      <trkpt lat="46.9775" lon="8.73564">
        <ele>590</ele>
        <time>2021-08-05T11:30:30.285Z</time>
      </trkpt>
      <trkpt lat="46.97749" lon="8.73565">
        <ele>590</ele>
        <time>2021-08-05T11:30:31.285Z</time>
      </trkpt>
      <trkpt lat="46.97749" lon="8.73567">
        <ele>591</ele>
        <time>2021-08-05T11:30:32.285Z</time>
      </trkpt>
      <trkpt lat="46.97748" lon="8.73569">
        <ele>591</ele>
        <time>2021-08-05T11:30:33.285Z</time>
      </trkpt>
      <trkpt lat="46.97747" lon="8.73571">
        <ele>592</ele>
        <time>2021-08-05T11:30:34.285Z</time>
      </trkpt>
      <trkpt lat="46.97746" lon="8.73573">
        <ele>592</ele>
        <time>2021-08-05T11:30:35.285Z</time>
      </trkpt>
      <trkpt lat="46.97746" lon="8.73575">
        <ele>593</ele>
        <time>2021-08-05T11:30:36.286Z</time>
      </trkpt>
      <trkpt lat="46.97745" lon="8.73577">
        <ele>593</ele>
        <time>2021-08-05T11:30:37.286Z</time>
      </trkpt>
      <trkpt lat="46.97744" lon="8.73579">
        <ele>593</ele>
        <time>2021-08-05T11:30:38.285Z</time>
      </trkpt>
      <trkpt lat="46.97743" lon="8.73581">
        <ele>593</ele>
        <time>2021-08-05T11:30:39.285Z</time>
      </trkpt>
      <trkpt lat="46.97743" lon="8.73583">
        <ele>592</ele>
        <time>2021-08-05T11:30:40.285Z</time>
      </trkpt>
      <trkpt lat="46.97742" lon="8.73585">
        <ele>592</ele>
        <time>2021-08-05T11:30:41.286Z</time>
      </trkpt>
      <trkpt lat="46.97741" lon="8.73586">
        <ele>592</ele>
        <time>2021-08-05T11:30:42.285Z</time>
      </trkpt>
      <trkpt lat="46.97741" lon="8.73588">
        <ele>592</ele>
        <time>2021-08-05T11:30:43.286Z</time>
      </trkpt>
      <trkpt lat="46.9774" lon="8.73589">
        <ele>592</ele>
        <time>2021-08-05T11:30:44.286Z</time>
      </trkpt>
      <trkpt lat="46.97739" lon="8.73591">
        <ele>591</ele>
        <time>2021-08-05T11:30:45.285Z</time>
      </trkpt>
      <trkpt lat="46.97738" lon="8.73593">
        <ele>591</ele>
        <time>2021-08-05T11:30:46.285Z</time>
      </trkpt>
      <trkpt lat="46.97738" lon="8.73595">
        <ele>591</ele>
        <time>2021-08-05T11:30:47.285Z</time>
      </trkpt>
      <trkpt lat="46.97738" lon="8.73597">
        <ele>590</ele>
        <time>2021-08-05T11:30:48.285Z</time>
      </trkpt>
      <trkpt lat="46.97737" lon="8.73599">
        <ele>590</ele>
        <time>2021-08-05T11:30:49.285Z</time>
      </trkpt>
      <trkpt lat="46.97737" lon="8.73601">
        <ele>590</ele>
        <time>2021-08-05T11:30:50.286Z</time>
      </trkpt>
      <trkpt lat="46.97736" lon="8.73603">
        <ele>590</ele>
        <time>2021-08-05T11:30:51.285Z</time>
      </trkpt>
      <trkpt lat="46.97736" lon="8.73605">
        <ele>590</ele>
        <time>2021-08-05T11:30:52.285Z</time>
      </trkpt>
      <trkpt lat="46.97736" lon="8.73607">
        <ele>591</ele>
        <time>2021-08-05T11:30:53.286Z</time>
      </trkpt>
      <trkpt lat="46.97735" lon="8.73609">
        <ele>591</ele>
        <time>2021-08-05T11:30:54.286Z</time>
      </trkpt>
      <trkpt lat="46.97735" lon="8.73612">
        <ele>591</ele>
        <time>2021-08-05T11:30:55.285Z</time>
      </trkpt>
      <trkpt lat="46.97734" lon="8.73613">
        <ele>591</ele>
        <time>2021-08-05T11:30:56.286Z</time>
      </trkpt>
      <trkpt lat="46.97734" lon="8.73614">
        <ele>591</ele>
        <time>2021-08-05T11:30:57.285Z</time>
      </trkpt>
      <trkpt lat="46.97734" lon="8.73616">
        <ele>591</ele>
        <time>2021-08-05T11:30:58.285Z</time>
      </trkpt>
      <trkpt lat="46.97733" lon="8.73618">
        <ele>590</ele>
        <time>2021-08-05T11:30:59.286Z</time>
      </trkpt>
      <trkpt lat="46.97732" lon="8.7362">
        <ele>590</ele>
        <time>2021-08-05T11:31:00.286Z</time>
      </trkpt>
      <trkpt lat="46.97732" lon="8.73622">
        <ele>590</ele>
        <time>2021-08-05T11:31:01.285Z</time>
      </trkpt>
      <trkpt lat="46.97732" lon="8.73623">
        <ele>590</ele>
        <time>2021-08-05T11:31:02.286Z</time>
      </trkpt>
      <trkpt lat="46.97732" lon="8.73625">
        <ele>591</ele>
        <time>2021-08-05T11:31:03.286Z</time>
      </trkpt>
      <trkpt lat="46.97731" lon="8.73627">
        <ele>591</ele>
        <time>2021-08-05T11:31:04.285Z</time>
      </trkpt>
      <trkpt lat="46.97731" lon="8.73629">
        <ele>591</ele>
        <time>2021-08-05T11:31:05.286Z</time>
      </trkpt>
      <trkpt lat="46.9773" lon="8.7363">
        <ele>591</ele>
        <time>2021-08-05T11:31:06.285Z</time>
      </trkpt>
      <trkpt lat="46.9773" lon="8.73632">
        <ele>591</ele>
        <time>2021-08-05T11:31:07.286Z</time>
      </trkpt>
      <trkpt lat="46.9773" lon="8.73635">
        <ele>591</ele>
        <time>2021-08-05T11:31:08.286Z</time>
      </trkpt>
      <trkpt lat="46.97729" lon="8.73637">
        <ele>591</ele>
        <time>2021-08-05T11:31:09.285Z</time>
      </trkpt>
      <trkpt lat="46.97729" lon="8.73638">
        <ele>590</ele>
        <time>2021-08-05T11:31:10.286Z</time>
      </trkpt>
      <trkpt lat="46.97729" lon="8.73641">
        <ele>590</ele>
        <time>2021-08-05T11:31:11.285Z</time>
      </trkpt>
      <trkpt lat="46.97728" lon="8.73643">
        <ele>590</ele>
        <time>2021-08-05T11:31:12.286Z</time>
      </trkpt>
      <trkpt lat="46.97728" lon="8.73645">
        <ele>590</ele>
        <time>2021-08-05T11:31:13.286Z</time>
      </trkpt>
      <trkpt lat="46.97728" lon="8.73647">
        <ele>590</ele>
        <time>2021-08-05T11:31:14.285Z</time>
      </trkpt>
      <trkpt lat="46.97727" lon="8.73648">
        <ele>589</ele>
        <time>2021-08-05T11:31:15.285Z</time>
      </trkpt>
      <trkpt lat="46.97727" lon="8.73649">
        <ele>589</ele>
        <time>2021-08-05T11:31:16.285Z</time>
      </trkpt>
      <trkpt lat="46.97727" lon="8.73651">
        <ele>589</ele>
        <time>2021-08-05T11:31:17.286Z</time>
      </trkpt>
      <trkpt lat="46.97726" lon="8.73653">
        <ele>588</ele>
        <time>2021-08-05T11:31:18.286Z</time>
      </trkpt>
      <trkpt lat="46.97726" lon="8.73654">
        <ele>588</ele>
        <time>2021-08-05T11:31:19.285Z</time>
      </trkpt>
      <trkpt lat="46.97726" lon="8.73656">
        <ele>588</ele>
        <time>2021-08-05T11:31:20.285Z</time>
      </trkpt>
      <trkpt lat="46.97725" lon="8.73658">
        <ele>588</ele>
        <time>2021-08-05T11:31:21.285Z</time>
      </trkpt>
      <trkpt lat="46.97725" lon="8.73659">
        <ele>588</ele>
        <time>2021-08-05T11:31:22.285Z</time>
      </trkpt>
      <trkpt lat="46.97725" lon="8.73661">
        <ele>588</ele>
        <time>2021-08-05T11:31:23.285Z</time>
      </trkpt>
      <trkpt lat="46.97725" lon="8.73663">
        <ele>588</ele>
        <time>2021-08-05T11:31:24.285Z</time>
      </trkpt>
      <trkpt lat="46.97725" lon="8.73665">
        <ele>589</ele>
        <time>2021-08-05T11:31:25.285Z</time>
      </trkpt>
      <trkpt lat="46.97725" lon="8.73667">
        <ele>589</ele>
        <time>2021-08-05T11:31:26.286Z</time>
      </trkpt>
      <trkpt lat="46.97724" lon="8.73669">
        <ele>589</ele>
        <time>2021-08-05T11:31:27.285Z</time>
      </trkpt>
      <trkpt lat="46.97724" lon="8.73672">
        <ele>589</ele>
        <time>2021-08-05T11:31:28.285Z</time>
      </trkpt>
      <trkpt lat="46.97723" lon="8.73674">
        <ele>590</ele>
        <time>2021-08-05T11:31:29.285Z</time>
      </trkpt>
      <trkpt lat="46.97723" lon="8.73676">
        <ele>590</ele>
        <time>2021-08-05T11:31:30.285Z</time>
      </trkpt>
      <trkpt lat="46.97723" lon="8.73678">
        <ele>590</ele>
        <time>2021-08-05T11:31:31.285Z</time>
      </trkpt>
      <trkpt lat="46.97723" lon="8.7368">
        <ele>590</ele>
        <time>2021-08-05T11:31:32.285Z</time>
      </trkpt>
      <trkpt lat="46.97723" lon="8.73682">
        <ele>590</ele>
        <time>2021-08-05T11:31:33.286Z</time>
      </trkpt>
      <trkpt lat="46.97723" lon="8.73684">
        <ele>590</ele>
        <time>2021-08-05T11:31:34.286Z</time>
      </trkpt>
      <trkpt lat="46.97722" lon="8.73686">
        <ele>590</ele>
        <time>2021-08-05T11:31:35.285Z</time>
      </trkpt>
      <trkpt lat="46.97722" lon="8.73688">
        <ele>589</ele>
        <time>2021-08-05T11:31:36.286Z</time>
      </trkpt>
      <trkpt lat="46.97722" lon="8.7369">
        <ele>589</ele>
        <time>2021-08-05T11:31:37.286Z</time>
      </trkpt>
      <trkpt lat="46.97722" lon="8.73693">
        <ele>589</ele>
        <time>2021-08-05T11:31:38.286Z</time>
      </trkpt>
      <trkpt lat="46.97722" lon="8.73695">
        <ele>590</ele>
        <time>2021-08-05T11:31:39.285Z</time>
      </trkpt>
      <trkpt lat="46.97721" lon="8.73697">
        <ele>590</ele>
        <time>2021-08-05T11:31:40.286Z</time>
      </trkpt>
      <trkpt lat="46.97721" lon="8.73699">
        <ele>590</ele>
        <time>2021-08-05T11:31:41.285Z</time>
      </trkpt>
      <trkpt lat="46.97721" lon="8.73702">
        <ele>590</ele>
        <time>2021-08-05T11:31:42.286Z</time>
      </trkpt>
      <trkpt lat="46.9772" lon="8.73704">
        <ele>591</ele>
        <time>2021-08-05T11:31:43.285Z</time>
      </trkpt>
      <trkpt lat="46.9772" lon="8.73706">
        <ele>591</ele>
        <time>2021-08-05T11:31:44.285Z</time>
      </trkpt>
      <trkpt lat="46.9772" lon="8.73708">
        <ele>591</ele>
        <time>2021-08-05T11:31:45.285Z</time>
      </trkpt>
      <trkpt lat="46.9772" lon="8.7371">
        <ele>591</ele>
        <time>2021-08-05T11:31:46.285Z</time>
      </trkpt>
      <trkpt lat="46.9772" lon="8.73712">
        <ele>591</ele>
        <time>2021-08-05T11:31:47.286Z</time>
      </trkpt>
      <trkpt lat="46.9772" lon="8.73714">
        <ele>591</ele>
        <time>2021-08-05T11:31:48.285Z</time>
      </trkpt>
      <trkpt lat="46.9772" lon="8.73717">
        <ele>590</ele>
        <time>2021-08-05T11:31:49.286Z</time>
      </trkpt>
      <trkpt lat="46.9772" lon="8.73719">
        <ele>590</ele>
        <time>2021-08-05T11:31:50.285Z</time>
      </trkpt>
      <trkpt lat="46.9772" lon="8.73721">
        <ele>591</ele>
        <time>2021-08-05T11:31:51.285Z</time>
      </trkpt>
      <trkpt lat="46.9772" lon="8.73723">
        <ele>590</ele>
        <time>2021-08-05T11:31:52.285Z</time>
      </trkpt>
      <trkpt lat="46.97719" lon="8.73725">
        <ele>591</ele>
        <time>2021-08-05T11:31:53.286Z</time>
      </trkpt>
      <trkpt lat="46.97719" lon="8.73727">
        <ele>591</ele>
        <time>2021-08-05T11:31:54.285Z</time>
      </trkpt>
      <trkpt lat="46.97719" lon="8.73729">
        <ele>591</ele>
        <time>2021-08-05T11:31:55.285Z</time>
      </trkpt>
      <trkpt lat="46.97719" lon="8.73731">
        <ele>591</ele>
        <time>2021-08-05T11:31:56.285Z</time>
      </trkpt>
      <trkpt lat="46.9772" lon="8.73732">
        <ele>591</ele>
        <time>2021-08-05T11:31:57.286Z</time>
      </trkpt>
      <trkpt lat="46.9772" lon="8.73733">
        <ele>591</ele>
        <time>2021-08-05T11:31:58.285Z</time>
      </trkpt>
      <trkpt lat="46.9772" lon="8.73736">
        <ele>591</ele>
        <time>2021-08-05T11:31:59.285Z</time>
      </trkpt>
      <trkpt lat="46.9772" lon="8.73737">
        <ele>591</ele>
        <time>2021-08-05T11:32:00.285Z</time>
      </trkpt>
      <trkpt lat="46.9772" lon="8.73739">
        <ele>592</ele>
        <time>2021-08-05T11:32:01.285Z</time>
      </trkpt>
      <trkpt lat="46.9772" lon="8.73741">
        <ele>592</ele>
        <time>2021-08-05T11:32:02.285Z</time>
      </trkpt>
      <trkpt lat="46.9772" lon="8.73743">
        <ele>592</ele>
        <time>2021-08-05T11:32:03.286Z</time>
      </trkpt>
      <trkpt lat="46.9772" lon="8.73744">
        <ele>592</ele>
        <time>2021-08-05T11:32:04.285Z</time>
      </trkpt>
      <trkpt lat="46.9772" lon="8.73746">
        <ele>592</ele>
        <time>2021-08-05T11:32:05.285Z</time>
      </trkpt>
      <trkpt lat="46.9772" lon="8.73748">
        <ele>592</ele>
        <time>2021-08-05T11:32:06.285Z</time>
      </trkpt>
      <trkpt lat="46.97721" lon="8.73749">
        <ele>592</ele>
        <time>2021-08-05T11:32:07.285Z</time>
      </trkpt>
      <trkpt lat="46.97721" lon="8.73751">
        <ele>592</ele>
        <time>2021-08-05T11:32:08.286Z</time>
      </trkpt>
      <trkpt lat="46.97721" lon="8.73753">
        <ele>593</ele>
        <time>2021-08-05T11:32:09.285Z</time>
      </trkpt>
      <trkpt lat="46.97721" lon="8.73755">
        <ele>593</ele>
        <time>2021-08-05T11:32:10.285Z</time>
      </trkpt>
      <trkpt lat="46.97721" lon="8.73757">
        <ele>593</ele>
        <time>2021-08-05T11:32:11.285Z</time>
      </trkpt>
      <trkpt lat="46.97721" lon="8.73759">
        <ele>593</ele>
        <time>2021-08-05T11:32:12.285Z</time>
      </trkpt>
      <trkpt lat="46.97721" lon="8.73761">
        <ele>593</ele>
        <time>2021-08-05T11:32:13.285Z</time>
      </trkpt>
      <trkpt lat="46.97721" lon="8.73763">
        <ele>593</ele>
        <time>2021-08-05T11:32:14.286Z</time>
      </trkpt>
      <trkpt lat="46.97721" lon="8.73765">
        <ele>593</ele>
        <time>2021-08-05T11:32:15.285Z</time>
      </trkpt>
      <trkpt lat="46.97721" lon="8.73767">
        <ele>593</ele>
        <time>2021-08-05T11:32:16.286Z</time>
      </trkpt>
      <trkpt lat="46.97721" lon="8.7377">
        <ele>593</ele>
        <time>2021-08-05T11:32:17.285Z</time>
      </trkpt>
      <trkpt lat="46.97721" lon="8.73772">
        <ele>593</ele>
        <time>2021-08-05T11:32:18.285Z</time>
      </trkpt>
      <trkpt lat="46.97721" lon="8.73774">
        <ele>593</ele>
        <time>2021-08-05T11:32:19.286Z</time>
      </trkpt>
      <trkpt lat="46.97721" lon="8.73776">
        <ele>593</ele>
        <time>2021-08-05T11:32:20.285Z</time>
      </trkpt>
      <trkpt lat="46.97722" lon="8.73778">
        <ele>593</ele>
        <time>2021-08-05T11:32:21.286Z</time>
      </trkpt>
      <trkpt lat="46.97722" lon="8.7378">
        <ele>593</ele>
        <time>2021-08-05T11:32:22.285Z</time>
      </trkpt>
      <trkpt lat="46.97722" lon="8.73782">
        <ele>594</ele>
        <time>2021-08-05T11:32:23.285Z</time>
      </trkpt>
      <trkpt lat="46.97722" lon="8.73784">
        <ele>594</ele>
        <time>2021-08-05T11:32:24.285Z</time>
      </trkpt>
      <trkpt lat="46.97723" lon="8.73786">
        <ele>594</ele>
        <time>2021-08-05T11:32:25.286Z</time>
      </trkpt>
      <trkpt lat="46.97723" lon="8.73787">
        <ele>595</ele>
        <time>2021-08-05T11:32:26.285Z</time>
      </trkpt>
      <trkpt lat="46.97723" lon="8.73789">
        <ele>595</ele>
        <time>2021-08-05T11:32:27.286Z</time>
      </trkpt>
      <trkpt lat="46.97724" lon="8.73791">
        <ele>595</ele>
        <time>2021-08-05T11:32:28.285Z</time>
      </trkpt>
      <trkpt lat="46.97724" lon="8.73793">
        <ele>595</ele>
        <time>2021-08-05T11:32:29.285Z</time>
      </trkpt>
      <trkpt lat="46.97724" lon="8.73795">
        <ele>595</ele>
        <time>2021-08-05T11:32:30.285Z</time>
      </trkpt>
      <trkpt lat="46.97724" lon="8.73797">
        <ele>595</ele>
        <time>2021-08-05T11:32:31.285Z</time>
      </trkpt>
      <trkpt lat="46.97725" lon="8.73799">
        <ele>595</ele>
        <time>2021-08-05T11:32:32.285Z</time>
      </trkpt>
      <trkpt lat="46.97725" lon="8.73801">
        <ele>595</ele>
        <time>2021-08-05T11:32:33.285Z</time>
      </trkpt>
      <trkpt lat="46.97725" lon="8.73803">
        <ele>595</ele>
        <time>2021-08-05T11:32:34.286Z</time>
      </trkpt>
      <trkpt lat="46.97725" lon="8.73804">
        <ele>595</ele>
        <time>2021-08-05T11:32:35.286Z</time>
      </trkpt>
      <trkpt lat="46.97725" lon="8.73806">
        <ele>595</ele>
        <time>2021-08-05T11:32:36.286Z</time>
      </trkpt>
      <trkpt lat="46.97726" lon="8.73808">
        <ele>594</ele>
        <time>2021-08-05T11:32:37.285Z</time>
      </trkpt>
      <trkpt lat="46.97726" lon="8.7381">
        <ele>594</ele>
        <time>2021-08-05T11:32:38.286Z</time>
      </trkpt>
      <trkpt lat="46.97726" lon="8.73812">
        <ele>594</ele>
        <time>2021-08-05T11:32:39.286Z</time>
      </trkpt>
      <trkpt lat="46.97727" lon="8.73814">
        <ele>593</ele>
        <time>2021-08-05T11:32:40.285Z</time>
      </trkpt>
      <trkpt lat="46.97727" lon="8.73816">
        <ele>593</ele>
        <time>2021-08-05T11:32:41.286Z</time>
      </trkpt>
      <trkpt lat="46.97727" lon="8.73818">
        <ele>593</ele>
        <time>2021-08-05T11:32:42.286Z</time>
      </trkpt>
      <trkpt lat="46.97728" lon="8.7382">
        <ele>593</ele>
        <time>2021-08-05T11:32:43.286Z</time>
      </trkpt>
      <trkpt lat="46.97728" lon="8.73821">
        <ele>593</ele>
        <time>2021-08-05T11:32:44.286Z</time>
      </trkpt>
      <trkpt lat="46.97729" lon="8.73823">
        <ele>592</ele>
        <time>2021-08-05T11:32:45.285Z</time>
      </trkpt>
      <trkpt lat="46.97729" lon="8.73825">
        <ele>592</ele>
        <time>2021-08-05T11:32:46.285Z</time>
      </trkpt>
      <trkpt lat="46.9773" lon="8.73826">
        <ele>592</ele>
        <time>2021-08-05T11:32:47.285Z</time>
      </trkpt>
      <trkpt lat="46.9773" lon="8.73828">
        <ele>592</ele>
        <time>2021-08-05T11:32:48.286Z</time>
      </trkpt>
      <trkpt lat="46.97731" lon="8.7383">
        <ele>592</ele>
        <time>2021-08-05T11:32:49.286Z</time>
      </trkpt>
      <trkpt lat="46.97731" lon="8.73832">
        <ele>592</ele>
        <time>2021-08-05T11:32:50.285Z</time>
      </trkpt>
      <trkpt lat="46.97732" lon="8.73833">
        <ele>593</ele>
        <time>2021-08-05T11:32:51.286Z</time>
      </trkpt>
      <trkpt lat="46.97733" lon="8.73834">
        <ele>593</ele>
        <time>2021-08-05T11:32:52.286Z</time>
      </trkpt>
      <trkpt lat="46.97733" lon="8.73836">
        <ele>594</ele>
        <time>2021-08-05T11:32:53.285Z</time>
      </trkpt>
      <trkpt lat="46.97734" lon="8.73838">
        <ele>594</ele>
        <time>2021-08-05T11:32:54.285Z</time>
      </trkpt>
      <trkpt lat="46.97734" lon="8.7384">
        <ele>594</ele>
        <time>2021-08-05T11:32:55.285Z</time>
      </trkpt>
      <trkpt lat="46.97734" lon="8.73842">
        <ele>595</ele>
        <time>2021-08-05T11:32:56.285Z</time>
      </trkpt>
      <trkpt lat="46.97734" lon="8.73845">
        <ele>595</ele>
        <time>2021-08-05T11:32:57.285Z</time>
      </trkpt>
      <trkpt lat="46.97735" lon="8.73847">
        <ele>595</ele>
        <time>2021-08-05T11:32:58.285Z</time>
      </trkpt>
      <trkpt lat="46.97735" lon="8.73849">
        <ele>595</ele>
        <time>2021-08-05T11:32:59.286Z</time>
      </trkpt>
      <trkpt lat="46.97736" lon="8.73851">
        <ele>595</ele>
        <time>2021-08-05T11:33:00.285Z</time>
      </trkpt>
      <trkpt lat="46.97737" lon="8.73853">
        <ele>595</ele>
        <time>2021-08-05T11:33:01.285Z</time>
      </trkpt>
      <trkpt lat="46.97738" lon="8.73854">
        <ele>595</ele>
        <time>2021-08-05T11:33:02.285Z</time>
      </trkpt>
      <trkpt lat="46.97738" lon="8.73856">
        <ele>595</ele>
        <time>2021-08-05T11:33:03.285Z</time>
      </trkpt>
      <trkpt lat="46.97738" lon="8.73859">
        <ele>595</ele>
        <time>2021-08-05T11:33:04.286Z</time>
      </trkpt>
      <trkpt lat="46.97738" lon="8.73861">
        <ele>595</ele>
        <time>2021-08-05T11:33:05.286Z</time>
      </trkpt>
      <trkpt lat="46.97739" lon="8.73862">
        <ele>596</ele>
        <time>2021-08-05T11:33:06.285Z</time>
      </trkpt>
      <trkpt lat="46.9774" lon="8.73864">
        <ele>596</ele>
        <time>2021-08-05T11:33:07.286Z</time>
      </trkpt>
      <trkpt lat="46.97741" lon="8.73865">
        <ele>596</ele>
        <time>2021-08-05T11:33:08.286Z</time>
      </trkpt>
      <trkpt lat="46.97741" lon="8.73867">
        <ele>596</ele>
        <time>2021-08-05T11:33:09.286Z</time>
      </trkpt>
      <trkpt lat="46.97741" lon="8.73869">
        <ele>596</ele>
        <time>2021-08-05T11:33:10.285Z</time>
      </trkpt>
      <trkpt lat="46.97742" lon="8.73871">
        <ele>597</ele>
        <time>2021-08-05T11:33:11.286Z</time>
      </trkpt>
      <trkpt lat="46.97742" lon="8.73873">
        <ele>597</ele>
        <time>2021-08-05T11:33:12.286Z</time>
      </trkpt>
      <trkpt lat="46.97742" lon="8.73875">
        <ele>597</ele>
        <time>2021-08-05T11:33:13.286Z</time>
      </trkpt>
      <trkpt lat="46.97743" lon="8.73877">
        <ele>597</ele>
        <time>2021-08-05T11:33:14.286Z</time>
      </trkpt>
      <trkpt lat="46.97743" lon="8.73879">
        <ele>597</ele>
        <time>2021-08-05T11:33:15.286Z</time>
      </trkpt>
      <trkpt lat="46.97744" lon="8.7388">
        <ele>598</ele>
        <time>2021-08-05T11:33:16.286Z</time>
      </trkpt>
      <trkpt lat="46.97745" lon="8.73882">
        <ele>598</ele>
        <time>2021-08-05T11:33:17.285Z</time>
      </trkpt>
      <trkpt lat="46.97746" lon="8.73884">
        <ele>598</ele>
        <time>2021-08-05T11:33:18.285Z</time>
      </trkpt>
      <trkpt lat="46.97747" lon="8.73885">
        <ele>598</ele>
        <time>2021-08-05T11:33:19.285Z</time>
      </trkpt>
      <trkpt lat="46.97747" lon="8.73886">
        <ele>598</ele>
        <time>2021-08-05T11:33:20.285Z</time>
      </trkpt>
      <trkpt lat="46.97748" lon="8.73888">
        <ele>599</ele>
        <time>2021-08-05T11:33:21.286Z</time>
      </trkpt>
      <trkpt lat="46.97749" lon="8.73889">
        <ele>599</ele>
        <time>2021-08-05T11:33:22.285Z</time>
      </trkpt>
      <trkpt lat="46.97749" lon="8.73891">
        <ele>599</ele>
        <time>2021-08-05T11:33:23.285Z</time>
      </trkpt>
      <trkpt lat="46.9775" lon="8.73894">
        <ele>600</ele>
        <time>2021-08-05T11:33:24.286Z</time>
      </trkpt>
      <trkpt lat="46.9775" lon="8.73895">
        <ele>600</ele>
        <time>2021-08-05T11:33:25.286Z</time>
      </trkpt>
      <trkpt lat="46.97751" lon="8.73896">
        <ele>600</ele>
        <time>2021-08-05T11:33:26.285Z</time>
      </trkpt>
      <trkpt lat="46.97752" lon="8.73898">
        <ele>600</ele>
        <time>2021-08-05T11:33:27.285Z</time>
      </trkpt>
      <trkpt lat="46.97753" lon="8.73899">
        <ele>601</ele>
        <time>2021-08-05T11:33:28.286Z</time>
      </trkpt>
      <trkpt lat="46.97754" lon="8.73901">
        <ele>601</ele>
        <time>2021-08-05T11:33:29.286Z</time>
      </trkpt>
      <trkpt lat="46.97755" lon="8.73903">
        <ele>601</ele>
        <time>2021-08-05T11:33:30.285Z</time>
      </trkpt>
      <trkpt lat="46.97756" lon="8.73904">
        <ele>601</ele>
        <time>2021-08-05T11:33:31.286Z</time>
      </trkpt>
      <trkpt lat="46.97756" lon="8.73906">
        <ele>601</ele>
        <time>2021-08-05T11:33:32.286Z</time>
      </trkpt>
      <trkpt lat="46.97757" lon="8.73907">
        <ele>601</ele>
        <time>2021-08-05T11:33:33.285Z</time>
      </trkpt>
      <trkpt lat="46.97758" lon="8.73909">
        <ele>601</ele>
        <time>2021-08-05T11:33:34.285Z</time>
      </trkpt>
      <trkpt lat="46.97759" lon="8.73911">
        <ele>601</ele>
        <time>2021-08-05T11:33:35.285Z</time>
      </trkpt>
      <trkpt lat="46.9776" lon="8.73912">
        <ele>601</ele>
        <time>2021-08-05T11:33:36.286Z</time>
      </trkpt>
      <trkpt lat="46.97761" lon="8.73914">
        <ele>601</ele>
        <time>2021-08-05T11:33:37.286Z</time>
      </trkpt>
      <trkpt lat="46.97761" lon="8.73916">
        <ele>600</ele>
        <time>2021-08-05T11:33:38.285Z</time>
      </trkpt>
      <trkpt lat="46.97762" lon="8.73918">
        <ele>600</ele>
        <time>2021-08-05T11:33:39.286Z</time>
      </trkpt>
      <trkpt lat="46.97764" lon="8.73919">
        <ele>599</ele>
        <time>2021-08-05T11:33:40.286Z</time>
      </trkpt>
      <trkpt lat="46.97765" lon="8.7392">
        <ele>599</ele>
        <time>2021-08-05T11:33:41.286Z</time>
      </trkpt>
      <trkpt lat="46.97765" lon="8.73921">
        <ele>598</ele>
        <time>2021-08-05T11:33:42.286Z</time>
      </trkpt>
      <trkpt lat="46.97766" lon="8.73922">
        <ele>598</ele>
        <time>2021-08-05T11:33:43.285Z</time>
      </trkpt>
      <trkpt lat="46.97767" lon="8.73924">
        <ele>598</ele>
        <time>2021-08-05T11:33:44.285Z</time>
      </trkpt>
      <trkpt lat="46.97768" lon="8.73925">
        <ele>598</ele>
        <time>2021-08-05T11:33:45.286Z</time>
      </trkpt>
      <trkpt lat="46.97769" lon="8.73926">
        <ele>599</ele>
        <time>2021-08-05T11:33:46.285Z</time>
      </trkpt>
      <trkpt lat="46.9777" lon="8.73927">
        <ele>599</ele>
        <time>2021-08-05T11:33:47.285Z</time>
      </trkpt>
      <trkpt lat="46.97771" lon="8.73928">
        <ele>599</ele>
        <time>2021-08-05T11:33:48.285Z</time>
      </trkpt>
      <trkpt lat="46.97772" lon="8.73929">
        <ele>599</ele>
        <time>2021-08-05T11:33:49.286Z</time>
      </trkpt>
      <trkpt lat="46.97773" lon="8.7393">
        <ele>599</ele>
        <time>2021-08-05T11:33:50.285Z</time>
      </trkpt>
      <trkpt lat="46.97774" lon="8.73931">
        <ele>599</ele>
        <time>2021-08-05T11:33:51.286Z</time>
      </trkpt>
      <trkpt lat="46.97774" lon="8.73933">
        <ele>599</ele>
        <time>2021-08-05T11:33:52.285Z</time>
      </trkpt>
      <trkpt lat="46.97775" lon="8.73934">
        <ele>599</ele>
        <time>2021-08-05T11:33:53.286Z</time>
      </trkpt>
      <trkpt lat="46.97776" lon="8.73935">
        <ele>599</ele>
        <time>2021-08-05T11:33:54.286Z</time>
      </trkpt>
      <trkpt lat="46.97777" lon="8.73937">
        <ele>599</ele>
        <time>2021-08-05T11:33:55.286Z</time>
      </trkpt>
      <trkpt lat="46.97778" lon="8.73939">
        <ele>599</ele>
        <time>2021-08-05T11:33:56.286Z</time>
      </trkpt>
      <trkpt lat="46.97779" lon="8.7394">
        <ele>598</ele>
        <time>2021-08-05T11:33:57.286Z</time>
      </trkpt>
      <trkpt lat="46.9778" lon="8.73941">
        <ele>598</ele>
        <time>2021-08-05T11:33:58.286Z</time>
      </trkpt>
      <trkpt lat="46.97781" lon="8.73943">
        <ele>598</ele>
        <time>2021-08-05T11:33:59.286Z</time>
      </trkpt>
      <trkpt lat="46.97782" lon="8.73944">
        <ele>597</ele>
        <time>2021-08-05T11:34:00.285Z</time>
      </trkpt>
      <trkpt lat="46.97783" lon="8.73945">
        <ele>596</ele>
        <time>2021-08-05T11:34:01.286Z</time>
      </trkpt>
      <trkpt lat="46.97784" lon="8.73946">
        <ele>596</ele>
        <time>2021-08-05T11:34:02.285Z</time>
      </trkpt>
      <trkpt lat="46.97785" lon="8.73948">
        <ele>595</ele>
        <time>2021-08-05T11:34:03.286Z</time>
      </trkpt>
      <trkpt lat="46.97786" lon="8.73949">
        <ele>595</ele>
        <time>2021-08-05T11:34:04.286Z</time>
      </trkpt>
      <trkpt lat="46.97787" lon="8.73951">
        <ele>595</ele>
        <time>2021-08-05T11:34:05.286Z</time>
      </trkpt>
      <trkpt lat="46.97788" lon="8.73952">
        <ele>595</ele>
        <time>2021-08-05T11:34:06.285Z</time>
      </trkpt>
      <trkpt lat="46.97789" lon="8.73953">
        <ele>595</ele>
        <time>2021-08-05T11:34:07.285Z</time>
      </trkpt>
      <trkpt lat="46.9779" lon="8.73954">
        <ele>595</ele>
        <time>2021-08-05T11:34:08.285Z</time>
      </trkpt>
      <trkpt lat="46.97791" lon="8.73955">
        <ele>596</ele>
        <time>2021-08-05T11:34:09.286Z</time>
      </trkpt>
      <trkpt lat="46.97792" lon="8.73956">
        <ele>596</ele>
        <time>2021-08-05T11:34:10.286Z</time>
      </trkpt>
      <trkpt lat="46.97793" lon="8.73957">
        <ele>596</ele>
        <time>2021-08-05T11:34:11.285Z</time>
      </trkpt>
      <trkpt lat="46.97794" lon="8.73958">
        <ele>596</ele>
        <time>2021-08-05T11:34:12.286Z</time>
      </trkpt>
      <trkpt lat="46.97794" lon="8.7396">
        <ele>596</ele>
        <time>2021-08-05T11:34:13.286Z</time>
      </trkpt>
      <trkpt lat="46.97795" lon="8.73961">
        <ele>596</ele>
        <time>2021-08-05T11:34:14.285Z</time>
      </trkpt>
      <trkpt lat="46.97796" lon="8.73963">
        <ele>595</ele>
        <time>2021-08-05T11:34:15.285Z</time>
      </trkpt>
      <trkpt lat="46.97797" lon="8.73964">
        <ele>595</ele>
        <time>2021-08-05T11:34:16.286Z</time>
      </trkpt>
      <trkpt lat="46.97798" lon="8.73965">
        <ele>595</ele>
        <time>2021-08-05T11:34:17.285Z</time>
      </trkpt>
      <trkpt lat="46.97799" lon="8.73967">
        <ele>596</ele>
        <time>2021-08-05T11:34:18.286Z</time>
      </trkpt>
      <trkpt lat="46.978" lon="8.73969">
        <ele>596</ele>
        <time>2021-08-05T11:34:19.285Z</time>
      </trkpt>
      <trkpt lat="46.978" lon="8.7397">
        <ele>596</ele>
        <time>2021-08-05T11:34:20.285Z</time>
      </trkpt>
      <trkpt lat="46.97801" lon="8.73972">
        <ele>597</ele>
        <time>2021-08-05T11:34:21.285Z</time>
      </trkpt>
      <trkpt lat="46.97802" lon="8.73974">
        <ele>597</ele>
        <time>2021-08-05T11:34:22.285Z</time>
      </trkpt>
      <trkpt lat="46.97802" lon="8.73976">
        <ele>596</ele>
        <time>2021-08-05T11:34:23.286Z</time>
      </trkpt>
      <trkpt lat="46.97803" lon="8.73978">
        <ele>596</ele>
        <time>2021-08-05T11:34:24.286Z</time>
      </trkpt>
      <trkpt lat="46.97803" lon="8.73979">
        <ele>596</ele>
        <time>2021-08-05T11:34:25.285Z</time>
      </trkpt>
      <trkpt lat="46.97804" lon="8.73982">
        <ele>596</ele>
        <time>2021-08-05T11:34:26.286Z</time>
      </trkpt>
      <trkpt lat="46.97804" lon="8.73984">
        <ele>596</ele>
        <time>2021-08-05T11:34:27.286Z</time>
      </trkpt>
      <trkpt lat="46.97804" lon="8.73985">
        <ele>596</ele>
        <time>2021-08-05T11:34:28.285Z</time>
      </trkpt>
      <trkpt lat="46.97805" lon="8.73987">
        <ele>596</ele>
        <time>2021-08-05T11:34:29.286Z</time>
      </trkpt>
      <trkpt lat="46.97805" lon="8.73989">
        <ele>596</ele>
        <time>2021-08-05T11:34:30.285Z</time>
      </trkpt>
      <trkpt lat="46.97805" lon="8.73991">
        <ele>596</ele>
        <time>2021-08-05T11:34:31.285Z</time>
      </trkpt>
      <trkpt lat="46.97806" lon="8.73992">
        <ele>596</ele>
        <time>2021-08-05T11:34:32.286Z</time>
      </trkpt>
      <trkpt lat="46.97807" lon="8.73993">
        <ele>596</ele>
        <time>2021-08-05T11:34:33.286Z</time>
      </trkpt>
      <trkpt lat="46.97807" lon="8.73995">
        <ele>595</ele>
        <time>2021-08-05T11:34:34.285Z</time>
      </trkpt>
      <trkpt lat="46.97807" lon="8.73997">
        <ele>595</ele>
        <time>2021-08-05T11:34:35.285Z</time>
      </trkpt>
      <trkpt lat="46.97808" lon="8.73999">
        <ele>595</ele>
        <time>2021-08-05T11:34:36.286Z</time>
      </trkpt>
      <trkpt lat="46.97808" lon="8.74001">
        <ele>595</ele>
        <time>2021-08-05T11:34:37.286Z</time>
      </trkpt>
      <trkpt lat="46.97808" lon="8.74003">
        <ele>595</ele>
        <time>2021-08-05T11:34:38.286Z</time>
      </trkpt>
      <trkpt lat="46.97809" lon="8.74005">
        <ele>595</ele>
        <time>2021-08-05T11:34:39.285Z</time>
      </trkpt>
      <trkpt lat="46.97809" lon="8.74007">
        <ele>595</ele>
        <time>2021-08-05T11:34:40.286Z</time>
      </trkpt>
      <trkpt lat="46.97809" lon="8.74009">
        <ele>595</ele>
        <time>2021-08-05T11:34:41.285Z</time>
      </trkpt>
      <trkpt lat="46.9781" lon="8.74011">
        <ele>596</ele>
        <time>2021-08-05T11:34:42.286Z</time>
      </trkpt>
      <trkpt lat="46.9781" lon="8.74013">
        <ele>596</ele>
        <time>2021-08-05T11:34:43.286Z</time>
      </trkpt>
      <trkpt lat="46.97811" lon="8.74014">
        <ele>596</ele>
        <time>2021-08-05T11:34:44.286Z</time>
      </trkpt>
      <trkpt lat="46.97812" lon="8.74017">
        <ele>596</ele>
        <time>2021-08-05T11:34:45.286Z</time>
      </trkpt>
      <trkpt lat="46.97812" lon="8.74018">
        <ele>596</ele>
        <time>2021-08-05T11:34:46.286Z</time>
      </trkpt>
      <trkpt lat="46.97813" lon="8.7402">
        <ele>596</ele>
        <time>2021-08-05T11:34:47.286Z</time>
      </trkpt>
      <trkpt lat="46.97813" lon="8.74022">
        <ele>596</ele>
        <time>2021-08-05T11:34:48.285Z</time>
      </trkpt>
      <trkpt lat="46.97814" lon="8.74024">
        <ele>597</ele>
        <time>2021-08-05T11:34:49.285Z</time>
      </trkpt>
      <trkpt lat="46.97814" lon="8.74026">
        <ele>597</ele>
        <time>2021-08-05T11:34:50.286Z</time>
      </trkpt>
      <trkpt lat="46.97814" lon="8.74028">
        <ele>597</ele>
        <time>2021-08-05T11:34:51.286Z</time>
      </trkpt>
      <trkpt lat="46.97815" lon="8.7403">
        <ele>597</ele>
        <time>2021-08-05T11:34:52.285Z</time>
      </trkpt>
      <trkpt lat="46.97815" lon="8.74033">
        <ele>597</ele>
        <time>2021-08-05T11:34:53.286Z</time>
      </trkpt>
      <trkpt lat="46.97816" lon="8.74035">
        <ele>598</ele>
        <time>2021-08-05T11:34:54.286Z</time>
      </trkpt>
      <trkpt lat="46.97816" lon="8.74037">
        <ele>598</ele>
        <time>2021-08-05T11:34:55.286Z</time>
      </trkpt>
      <trkpt lat="46.97817" lon="8.74039">
        <ele>598</ele>
        <time>2021-08-05T11:34:56.286Z</time>
      </trkpt>
      <trkpt lat="46.97818" lon="8.7404">
        <ele>598</ele>
        <time>2021-08-05T11:34:57.286Z</time>
      </trkpt>
      <trkpt lat="46.97819" lon="8.74041">
        <ele>599</ele>
        <time>2021-08-05T11:34:58.285Z</time>
      </trkpt>
      <trkpt lat="46.9782" lon="8.74042">
        <ele>599</ele>
        <time>2021-08-05T11:34:59.286Z</time>
      </trkpt>
      <trkpt lat="46.97822" lon="8.74042">
        <ele>600</ele>
        <time>2021-08-05T11:35:00.286Z</time>
      </trkpt>
      <trkpt lat="46.97823" lon="8.74042">
        <ele>600</ele>
        <time>2021-08-05T11:35:01.286Z</time>
      </trkpt>
      <trkpt lat="46.97824" lon="8.74042">
        <ele>600</ele>
        <time>2021-08-05T11:35:02.285Z</time>
      </trkpt>
      <trkpt lat="46.97825" lon="8.74041">
        <ele>600</ele>
        <time>2021-08-05T11:35:03.286Z</time>
      </trkpt>
      <trkpt lat="46.97826" lon="8.7404">
        <ele>600</ele>
        <time>2021-08-05T11:35:04.285Z</time>
      </trkpt>
      <trkpt lat="46.97828" lon="8.74039">
        <ele>600</ele>
        <time>2021-08-05T11:35:05.286Z</time>
      </trkpt>
      <trkpt lat="46.97829" lon="8.74038">
        <ele>600</ele>
        <time>2021-08-05T11:35:06.285Z</time>
      </trkpt>
      <trkpt lat="46.97831" lon="8.74037">
        <ele>600</ele>
        <time>2021-08-05T11:35:07.286Z</time>
      </trkpt>
      <trkpt lat="46.97832" lon="8.74036">
        <ele>600</ele>
        <time>2021-08-05T11:35:08.286Z</time>
      </trkpt>
      <trkpt lat="46.97833" lon="8.74035">
        <ele>599</ele>
        <time>2021-08-05T11:35:09.285Z</time>
      </trkpt>
      <trkpt lat="46.97835" lon="8.74034">
        <ele>599</ele>
        <time>2021-08-05T11:35:10.285Z</time>
      </trkpt>
      <trkpt lat="46.97836" lon="8.74033">
        <ele>599</ele>
        <time>2021-08-05T11:35:11.286Z</time>
      </trkpt>
      <trkpt lat="46.97837" lon="8.74033">
        <ele>598</ele>
        <time>2021-08-05T11:35:12.285Z</time>
      </trkpt>
      <trkpt lat="46.97838" lon="8.74033">
        <ele>598</ele>
        <time>2021-08-05T11:35:13.286Z</time>
      </trkpt>
      <trkpt lat="46.97839" lon="8.74034">
        <ele>598</ele>
        <time>2021-08-05T11:35:14.285Z</time>
      </trkpt>
      <trkpt lat="46.9784" lon="8.74034">
        <ele>598</ele>
        <time>2021-08-05T11:35:15.286Z</time>
      </trkpt>
      <trkpt lat="46.97841" lon="8.74035">
        <ele>597</ele>
        <time>2021-08-05T11:35:16.285Z</time>
      </trkpt>
      <trkpt lat="46.97843" lon="8.74035">
        <ele>597</ele>
        <time>2021-08-05T11:35:17.285Z</time>
      </trkpt>
      <trkpt lat="46.97844" lon="8.74036">
        <ele>597</ele>
        <time>2021-08-05T11:35:18.286Z</time>
      </trkpt>
      <trkpt lat="46.97844" lon="8.74037">
        <ele>596</ele>
        <time>2021-08-05T11:35:19.286Z</time>
      </trkpt>
      <trkpt lat="46.97846" lon="8.74039">
        <ele>596</ele>
        <time>2021-08-05T11:35:20.286Z</time>
      </trkpt>
      <trkpt lat="46.97846" lon="8.7404">
        <ele>596</ele>
        <time>2021-08-05T11:35:21.286Z</time>
      </trkpt>
      <trkpt lat="46.97847" lon="8.74041">
        <ele>597</ele>
        <time>2021-08-05T11:35:22.286Z</time>
      </trkpt>
      <trkpt lat="46.97848" lon="8.74043">
        <ele>597</ele>
        <time>2021-08-05T11:35:23.285Z</time>
      </trkpt>
      <trkpt lat="46.97849" lon="8.74045">
        <ele>597</ele>
        <time>2021-08-05T11:35:24.286Z</time>
      </trkpt>
      <trkpt lat="46.9785" lon="8.74046">
        <ele>597</ele>
        <time>2021-08-05T11:35:25.286Z</time>
      </trkpt>
      <trkpt lat="46.9785" lon="8.74048">
        <ele>598</ele>
        <time>2021-08-05T11:35:26.286Z</time>
      </trkpt>
      <trkpt lat="46.97851" lon="8.7405">
        <ele>598</ele>
        <time>2021-08-05T11:35:27.286Z</time>
      </trkpt>
      <trkpt lat="46.97852" lon="8.74051">
        <ele>597</ele>
        <time>2021-08-05T11:35:28.286Z</time>
      </trkpt>
      <trkpt lat="46.97853" lon="8.74053">
        <ele>597</ele>
        <time>2021-08-05T11:35:29.286Z</time>
      </trkpt>
      <trkpt lat="46.97854" lon="8.74054">
        <ele>597</ele>
        <time>2021-08-05T11:35:30.286Z</time>
      </trkpt>
      <trkpt lat="46.97854" lon="8.74055">
        <ele>597</ele>
        <time>2021-08-05T11:35:31.285Z</time>
      </trkpt>
      <trkpt lat="46.97855" lon="8.74056">
        <ele>597</ele>
        <time>2021-08-05T11:35:32.286Z</time>
      </trkpt>
      <trkpt lat="46.97856" lon="8.74057">
        <ele>596</ele>
        <time>2021-08-05T11:35:33.286Z</time>
      </trkpt>
      <trkpt lat="46.97857" lon="8.74058">
        <ele>596</ele>
        <time>2021-08-05T11:35:34.286Z</time>
      </trkpt>
      <trkpt lat="46.97859" lon="8.7406">
        <ele>595</ele>
        <time>2021-08-05T11:35:35.285Z</time>
      </trkpt>
      <trkpt lat="46.97859" lon="8.74061">
        <ele>594</ele>
        <time>2021-08-05T11:35:36.285Z</time>
      </trkpt>
      <trkpt lat="46.9786" lon="8.74063">
        <ele>594</ele>
        <time>2021-08-05T11:35:37.286Z</time>
      </trkpt>
      <trkpt lat="46.97861" lon="8.74065">
        <ele>593</ele>
        <time>2021-08-05T11:35:38.285Z</time>
      </trkpt>
      <trkpt lat="46.97861" lon="8.74067">
        <ele>593</ele>
        <time>2021-08-05T11:35:39.286Z</time>
      </trkpt>
      <trkpt lat="46.97862" lon="8.74068">
        <ele>592</ele>
        <time>2021-08-05T11:35:40.285Z</time>
      </trkpt>
      <trkpt lat="46.97863" lon="8.74069">
        <ele>592</ele>
        <time>2021-08-05T11:35:41.286Z</time>
      </trkpt>
      <trkpt lat="46.97864" lon="8.74071">
        <ele>591</ele>
        <time>2021-08-05T11:35:42.286Z</time>
      </trkpt>
      <trkpt lat="46.97865" lon="8.74073">
        <ele>591</ele>
        <time>2021-08-05T11:35:43.286Z</time>
      </trkpt>
      <trkpt lat="46.97865" lon="8.74075">
        <ele>591</ele>
        <time>2021-08-05T11:35:44.286Z</time>
      </trkpt>
      <trkpt lat="46.97866" lon="8.74076">
        <ele>591</ele>
        <time>2021-08-05T11:35:45.286Z</time>
      </trkpt>
      <trkpt lat="46.97867" lon="8.74078">
        <ele>592</ele>
        <time>2021-08-05T11:35:46.286Z</time>
      </trkpt>
      <trkpt lat="46.97868" lon="8.7408">
        <ele>592</ele>
        <time>2021-08-05T11:35:47.285Z</time>
      </trkpt>
      <trkpt lat="46.97868" lon="8.74081">
        <ele>593</ele>
        <time>2021-08-05T11:35:48.285Z</time>
      </trkpt>
      <trkpt lat="46.97868" lon="8.74083">
        <ele>594</ele>
        <time>2021-08-05T11:35:49.286Z</time>
      </trkpt>
      <trkpt lat="46.97869" lon="8.74085">
        <ele>594</ele>
        <time>2021-08-05T11:35:50.285Z</time>
      </trkpt>
      <trkpt lat="46.97869" lon="8.74087">
        <ele>594</ele>
        <time>2021-08-05T11:35:51.286Z</time>
      </trkpt>
      <trkpt lat="46.9787" lon="8.74088">
        <ele>594</ele>
        <time>2021-08-05T11:35:52.286Z</time>
      </trkpt>
      <trkpt lat="46.9787" lon="8.7409">
        <ele>594</ele>
        <time>2021-08-05T11:35:53.286Z</time>
      </trkpt>
      <trkpt lat="46.97871" lon="8.74092">
        <ele>594</ele>
        <time>2021-08-05T11:35:54.286Z</time>
      </trkpt>
      <trkpt lat="46.97871" lon="8.74094">
        <ele>594</ele>
        <time>2021-08-05T11:35:55.286Z</time>
      </trkpt>
      <trkpt lat="46.97872" lon="8.74095">
        <ele>594</ele>
        <time>2021-08-05T11:35:56.285Z</time>
      </trkpt>
      <trkpt lat="46.97872" lon="8.74097">
        <ele>594</ele>
        <time>2021-08-05T11:35:57.286Z</time>
      </trkpt>
      <trkpt lat="46.97872" lon="8.74099">
        <ele>594</ele>
        <time>2021-08-05T11:35:58.286Z</time>
      </trkpt>
      <trkpt lat="46.97873" lon="8.74101">
        <ele>594</ele>
        <time>2021-08-05T11:35:59.285Z</time>
      </trkpt>
      <trkpt lat="46.97873" lon="8.74104">
        <ele>594</ele>
        <time>2021-08-05T11:36:00.285Z</time>
      </trkpt>
      <trkpt lat="46.97872" lon="8.74106">
        <ele>593</ele>
        <time>2021-08-05T11:36:01.286Z</time>
      </trkpt>
      <trkpt lat="46.97873" lon="8.74108">
        <ele>593</ele>
        <time>2021-08-05T11:36:02.286Z</time>
      </trkpt>
      <trkpt lat="46.97874" lon="8.74109">
        <ele>592</ele>
        <time>2021-08-05T11:36:03.286Z</time>
      </trkpt>
      <trkpt lat="46.97874" lon="8.7411">
        <ele>592</ele>
        <time>2021-08-05T11:36:04.286Z</time>
      </trkpt>
      <trkpt lat="46.97874" lon="8.74112">
        <ele>593</ele>
        <time>2021-08-05T11:36:05.286Z</time>
      </trkpt>
      <trkpt lat="46.97874" lon="8.74114">
        <ele>593</ele>
        <time>2021-08-05T11:36:06.286Z</time>
      </trkpt>
      <trkpt lat="46.97875" lon="8.74115">
        <ele>594</ele>
        <time>2021-08-05T11:36:07.286Z</time>
      </trkpt>
      <trkpt lat="46.97875" lon="8.74117">
        <ele>594</ele>
        <time>2021-08-05T11:36:08.285Z</time>
      </trkpt>
      <trkpt lat="46.97875" lon="8.74118">
        <ele>594</ele>
        <time>2021-08-05T11:36:09.285Z</time>
      </trkpt>
      <trkpt lat="46.97875" lon="8.7412">
        <ele>594</ele>
        <time>2021-08-05T11:36:10.286Z</time>
      </trkpt>
      <trkpt lat="46.97875" lon="8.74122">
        <ele>593</ele>
        <time>2021-08-05T11:36:11.285Z</time>
      </trkpt>
      <trkpt lat="46.97876" lon="8.74123">
        <ele>593</ele>
        <time>2021-08-05T11:36:12.286Z</time>
      </trkpt>
      <trkpt lat="46.97876" lon="8.74125">
        <ele>593</ele>
        <time>2021-08-05T11:36:13.286Z</time>
      </trkpt>
      <trkpt lat="46.97876" lon="8.74127">
        <ele>592</ele>
        <time>2021-08-05T11:36:14.285Z</time>
      </trkpt>
      <trkpt lat="46.97876" lon="8.74129">
        <ele>593</ele>
        <time>2021-08-05T11:36:15.286Z</time>
      </trkpt>
      <trkpt lat="46.97876" lon="8.74131">
        <ele>593</ele>
        <time>2021-08-05T11:36:16.286Z</time>
      </trkpt>
      <trkpt lat="46.97877" lon="8.74133">
        <ele>593</ele>
        <time>2021-08-05T11:36:17.285Z</time>
      </trkpt>
      <trkpt lat="46.97877" lon="8.74135">
        <ele>594</ele>
        <time>2021-08-05T11:36:18.285Z</time>
      </trkpt>
      <trkpt lat="46.97877" lon="8.74136">
        <ele>594</ele>
        <time>2021-08-05T11:36:19.286Z</time>
      </trkpt>
      <trkpt lat="46.97876" lon="8.74138">
        <ele>594</ele>
        <time>2021-08-05T11:36:20.286Z</time>
      </trkpt>
      <trkpt lat="46.97876" lon="8.7414">
        <ele>594</ele>
        <time>2021-08-05T11:36:21.285Z</time>
      </trkpt>
      <trkpt lat="46.97876" lon="8.74142">
        <ele>594</ele>
        <time>2021-08-05T11:36:22.286Z</time>
      </trkpt>
      <trkpt lat="46.97876" lon="8.74144">
        <ele>594</ele>
        <time>2021-08-05T11:36:23.286Z</time>
      </trkpt>
      <trkpt lat="46.97876" lon="8.74145">
        <ele>594</ele>
        <time>2021-08-05T11:36:24.285Z</time>
      </trkpt>
      <trkpt lat="46.97876" lon="8.74147">
        <ele>594</ele>
        <time>2021-08-05T11:36:25.286Z</time>
      </trkpt>
      <trkpt lat="46.97875" lon="8.74148">
        <ele>594</ele>
        <time>2021-08-05T11:36:26.285Z</time>
      </trkpt>
      <trkpt lat="46.97875" lon="8.7415">
        <ele>594</ele>
        <time>2021-08-05T11:36:27.286Z</time>
      </trkpt>
      <trkpt lat="46.97875" lon="8.74153">
        <ele>594</ele>
        <time>2021-08-05T11:36:28.286Z</time>
      </trkpt>
      <trkpt lat="46.97874" lon="8.74155">
        <ele>594</ele>
        <time>2021-08-05T11:36:29.286Z</time>
      </trkpt>
      <trkpt lat="46.97874" lon="8.74157">
        <ele>594</ele>
        <time>2021-08-05T11:36:30.285Z</time>
      </trkpt>
      <trkpt lat="46.97874" lon="8.74159">
        <ele>594</ele>
        <time>2021-08-05T11:36:31.286Z</time>
      </trkpt>
      <trkpt lat="46.97873" lon="8.74161">
        <ele>594</ele>
        <time>2021-08-05T11:36:32.285Z</time>
      </trkpt>
      <trkpt lat="46.97873" lon="8.74163">
        <ele>595</ele>
        <time>2021-08-05T11:36:33.286Z</time>
      </trkpt>
      <trkpt lat="46.97872" lon="8.74165">
        <ele>595</ele>
        <time>2021-08-05T11:36:34.286Z</time>
      </trkpt>
      <trkpt lat="46.97872" lon="8.74166">
        <ele>595</ele>
        <time>2021-08-05T11:36:35.285Z</time>
      </trkpt>
      <trkpt lat="46.97871" lon="8.74168">
        <ele>596</ele>
        <time>2021-08-05T11:36:36.286Z</time>
      </trkpt>
      <trkpt lat="46.97871" lon="8.7417">
        <ele>596</ele>
        <time>2021-08-05T11:36:37.285Z</time>
      </trkpt>
      <trkpt lat="46.9787" lon="8.74172">
        <ele>597</ele>
        <time>2021-08-05T11:36:38.285Z</time>
      </trkpt>
      <trkpt lat="46.97869" lon="8.74174">
        <ele>597</ele>
        <time>2021-08-05T11:36:39.286Z</time>
      </trkpt>
      <trkpt lat="46.97869" lon="8.74176">
        <ele>598</ele>
        <time>2021-08-05T11:36:40.286Z</time>
      </trkpt>
      <trkpt lat="46.97868" lon="8.74178">
        <ele>598</ele>
        <time>2021-08-05T11:36:41.285Z</time>
      </trkpt>
      <trkpt lat="46.97868" lon="8.7418">
        <ele>598</ele>
        <time>2021-08-05T11:36:42.286Z</time>
      </trkpt>
      <trkpt lat="46.97868" lon="8.74182">
        <ele>598</ele>
        <time>2021-08-05T11:36:43.285Z</time>
      </trkpt>
      <trkpt lat="46.97867" lon="8.74184">
        <ele>598</ele>
        <time>2021-08-05T11:36:44.285Z</time>
      </trkpt>
      <trkpt lat="46.97867" lon="8.74186">
        <ele>598</ele>
        <time>2021-08-05T11:36:45.286Z</time>
      </trkpt>
      <trkpt lat="46.97867" lon="8.74188">
        <ele>597</ele>
        <time>2021-08-05T11:36:46.286Z</time>
      </trkpt>
      <trkpt lat="46.97866" lon="8.7419">
        <ele>597</ele>
        <time>2021-08-05T11:36:47.286Z</time>
      </trkpt>
      <trkpt lat="46.97866" lon="8.74192">
        <ele>597</ele>
        <time>2021-08-05T11:36:48.286Z</time>
      </trkpt>
      <trkpt lat="46.97865" lon="8.74194">
        <ele>597</ele>
        <time>2021-08-05T11:36:49.286Z</time>
      </trkpt>
      <trkpt lat="46.97865" lon="8.74195">
        <ele>598</ele>
        <time>2021-08-05T11:36:50.286Z</time>
      </trkpt>
      <trkpt lat="46.97865" lon="8.74197">
        <ele>598</ele>
        <time>2021-08-05T11:36:51.285Z</time>
      </trkpt>
      <trkpt lat="46.97864" lon="8.74199">
        <ele>598</ele>
        <time>2021-08-05T11:36:52.285Z</time>
      </trkpt>
      <trkpt lat="46.97864" lon="8.742">
        <ele>598</ele>
        <time>2021-08-05T11:36:53.286Z</time>
      </trkpt>
      <trkpt lat="46.97863" lon="8.74202">
        <ele>598</ele>
        <time>2021-08-05T11:36:54.285Z</time>
      </trkpt>
      <trkpt lat="46.97863" lon="8.74204">
        <ele>597</ele>
        <time>2021-08-05T11:36:55.286Z</time>
      </trkpt>
      <trkpt lat="46.97863" lon="8.74206">
        <ele>597</ele>
        <time>2021-08-05T11:36:56.286Z</time>
      </trkpt>
      <trkpt lat="46.97862" lon="8.74208">
        <ele>597</ele>
        <time>2021-08-05T11:36:57.285Z</time>
      </trkpt>
      <trkpt lat="46.97862" lon="8.74209">
        <ele>597</ele>
        <time>2021-08-05T11:36:58.286Z</time>
      </trkpt>
      <trkpt lat="46.97861" lon="8.74211">
        <ele>597</ele>
        <time>2021-08-05T11:36:59.286Z</time>
      </trkpt>
      <trkpt lat="46.97861" lon="8.74213">
        <ele>597</ele>
        <time>2021-08-05T11:37:00.286Z</time>
      </trkpt>
      <trkpt lat="46.97861" lon="8.74215">
        <ele>597</ele>
        <time>2021-08-05T11:37:01.286Z</time>
      </trkpt>
      <trkpt lat="46.9786" lon="8.74217">
        <ele>597</ele>
        <time>2021-08-05T11:37:02.286Z</time>
      </trkpt>
      <trkpt lat="46.9786" lon="8.74218">
        <ele>597</ele>
        <time>2021-08-05T11:37:03.285Z</time>
      </trkpt>
      <trkpt lat="46.97859" lon="8.7422">
        <ele>597</ele>
        <time>2021-08-05T11:37:04.285Z</time>
      </trkpt>
      <trkpt lat="46.97859" lon="8.74222">
        <ele>597</ele>
        <time>2021-08-05T11:37:05.286Z</time>
      </trkpt>
      <trkpt lat="46.97859" lon="8.74224">
        <ele>596</ele>
        <time>2021-08-05T11:37:06.285Z</time>
      </trkpt>
      <trkpt lat="46.97858" lon="8.74225">
        <ele>596</ele>
        <time>2021-08-05T11:37:07.286Z</time>
      </trkpt>
      <trkpt lat="46.97858" lon="8.74226">
        <ele>597</ele>
        <time>2021-08-05T11:37:08.286Z</time>
      </trkpt>
      <trkpt lat="46.97857" lon="8.74228">
        <ele>597</ele>
        <time>2021-08-05T11:37:09.286Z</time>
      </trkpt>
      <trkpt lat="46.97857" lon="8.74231">
        <ele>596</ele>
        <time>2021-08-05T11:37:10.286Z</time>
      </trkpt>
      <trkpt lat="46.97856" lon="8.74232">
        <ele>596</ele>
        <time>2021-08-05T11:37:11.285Z</time>
      </trkpt>
      <trkpt lat="46.97856" lon="8.74234">
        <ele>596</ele>
        <time>2021-08-05T11:37:12.286Z</time>
      </trkpt>
      <trkpt lat="46.97856" lon="8.74236">
        <ele>596</ele>
        <time>2021-08-05T11:37:13.286Z</time>
      </trkpt>
      <trkpt lat="46.97855" lon="8.74239">
        <ele>596</ele>
        <time>2021-08-05T11:37:14.286Z</time>
      </trkpt>
      <trkpt lat="46.97855" lon="8.74241">
        <ele>596</ele>
        <time>2021-08-05T11:37:15.285Z</time>
      </trkpt>
      <trkpt lat="46.97855" lon="8.74243">
        <ele>596</ele>
        <time>2021-08-05T11:37:16.286Z</time>
      </trkpt>
      <trkpt lat="46.97854" lon="8.74243">
        <ele>596</ele>
        <time>2021-08-05T11:37:17.285Z</time>
      </trkpt>
      <trkpt lat="46.97854" lon="8.74246">
        <ele>596</ele>
        <time>2021-08-05T11:37:18.286Z</time>
      </trkpt>
      <trkpt lat="46.97854" lon="8.74249">
        <ele>596</ele>
        <time>2021-08-05T11:37:19.286Z</time>
      </trkpt>
      <trkpt lat="46.97853" lon="8.74252">
        <ele>596</ele>
        <time>2021-08-05T11:37:20.285Z</time>
      </trkpt>
      <trkpt lat="46.97853" lon="8.74253">
        <ele>596</ele>
        <time>2021-08-05T11:37:21.285Z</time>
      </trkpt>
      <trkpt lat="46.97853" lon="8.74255">
        <ele>596</ele>
        <time>2021-08-05T11:37:22.286Z</time>
      </trkpt>
      <trkpt lat="46.97852" lon="8.74257">
        <ele>596</ele>
        <time>2021-08-05T11:37:23.286Z</time>
      </trkpt>
      <trkpt lat="46.97852" lon="8.74258">
        <ele>595</ele>
        <time>2021-08-05T11:37:24.286Z</time>
      </trkpt>
      <trkpt lat="46.97852" lon="8.74259">
        <ele>595</ele>
        <time>2021-08-05T11:37:25.285Z</time>
      </trkpt>
      <trkpt lat="46.97851" lon="8.74261">
        <ele>595</ele>
        <time>2021-08-05T11:37:26.286Z</time>
      </trkpt>
      <trkpt lat="46.97851" lon="8.74264">
        <ele>595</ele>
        <time>2021-08-05T11:37:27.285Z</time>
      </trkpt>
      <trkpt lat="46.9785" lon="8.74266">
        <ele>595</ele>
        <time>2021-08-05T11:37:28.285Z</time>
      </trkpt>
      <trkpt lat="46.9785" lon="8.74268">
        <ele>596</ele>
        <time>2021-08-05T11:37:29.286Z</time>
      </trkpt>
      <trkpt lat="46.97849" lon="8.7427">
        <ele>596</ele>
        <time>2021-08-05T11:37:30.286Z</time>
      </trkpt>
      <trkpt lat="46.97849" lon="8.74271">
        <ele>595</ele>
        <time>2021-08-05T11:37:31.285Z</time>
      </trkpt>
      <trkpt lat="46.97849" lon="8.74273">
        <ele>595</ele>
        <time>2021-08-05T11:37:32.285Z</time>
      </trkpt>
      <trkpt lat="46.97848" lon="8.74275">
        <ele>595</ele>
        <time>2021-08-05T11:37:33.285Z</time>
      </trkpt>
      <trkpt lat="46.97847" lon="8.74277">
        <ele>595</ele>
        <time>2021-08-05T11:37:35.431Z</time>
      </trkpt>
      <trkpt lat="46.97847" lon="8.74278">
        <ele>595</ele>
        <time>2021-08-05T11:37:36.431Z</time>
      </trkpt>
      <trkpt lat="46.97846" lon="8.7428">
        <ele>595</ele>
        <time>2021-08-05T11:37:37.431Z</time>
      </trkpt>
      <trkpt lat="46.97846" lon="8.74281">
        <ele>595</ele>
        <time>2021-08-05T11:37:38.432Z</time>
      </trkpt>
      <trkpt lat="46.97846" lon="8.74282">
        <ele>595</ele>
        <time>2021-08-05T11:37:39.431Z</time>
      </trkpt>
      <trkpt lat="46.97846" lon="8.74282">
        <ele>595</ele>
        <time>2021-08-05T11:37:40.431Z</time>
      </trkpt>
      <trkpt lat="46.97845" lon="8.74278">
        <ele>595</ele>
        <time>2021-08-05T11:37:41.431Z</time>
      </trkpt>
      <trkpt lat="46.97845" lon="8.7428">
        <ele>596</ele>
        <time>2021-08-05T11:37:42.432Z</time>
      </trkpt>
      <trkpt lat="46.97844" lon="8.74282">
        <ele>596</ele>
        <time>2021-08-05T11:37:43.431Z</time>
      </trkpt>
      <trkpt lat="46.97844" lon="8.74284">
        <ele>597</ele>
        <time>2021-08-05T11:37:44.431Z</time>
      </trkpt>
      <trkpt lat="46.97843" lon="8.74286">
        <ele>597</ele>
        <time>2021-08-05T11:37:45.431Z</time>
      </trkpt>
      <trkpt lat="46.97843" lon="8.74288">
        <ele>598</ele>
        <time>2021-08-05T11:37:46.432Z</time>
      </trkpt>
      <trkpt lat="46.97843" lon="8.74291">
        <ele>598</ele>
        <time>2021-08-05T11:37:47.432Z</time>
      </trkpt>
      <trkpt lat="46.97843" lon="8.74293">
        <ele>598</ele>
        <time>2021-08-05T11:37:48.431Z</time>
      </trkpt>
      <trkpt lat="46.97842" lon="8.74294">
        <ele>598</ele>
        <time>2021-08-05T11:37:49.431Z</time>
      </trkpt>
      <trkpt lat="46.97841" lon="8.74296">
        <ele>598</ele>
        <time>2021-08-05T11:37:50.432Z</time>
      </trkpt>
      <trkpt lat="46.97841" lon="8.74298">
        <ele>599</ele>
        <time>2021-08-05T11:37:51.431Z</time>
      </trkpt>
      <trkpt lat="46.9784" lon="8.743">
        <ele>599</ele>
        <time>2021-08-05T11:37:52.432Z</time>
      </trkpt>
      <trkpt lat="46.9784" lon="8.74302">
        <ele>599</ele>
        <time>2021-08-05T11:37:53.432Z</time>
      </trkpt>
      <trkpt lat="46.97839" lon="8.74303">
        <ele>599</ele>
        <time>2021-08-05T11:37:54.432Z</time>
      </trkpt>
      <trkpt lat="46.97839" lon="8.74306">
        <ele>599</ele>
        <time>2021-08-05T11:37:55.431Z</time>
      </trkpt>
      <trkpt lat="46.97839" lon="8.74308">
        <ele>599</ele>
        <time>2021-08-05T11:37:56.432Z</time>
      </trkpt>
      <trkpt lat="46.97838" lon="8.7431">
        <ele>599</ele>
        <time>2021-08-05T11:37:57.432Z</time>
      </trkpt>
      <trkpt lat="46.97837" lon="8.74312">
        <ele>599</ele>
        <time>2021-08-05T11:37:58.431Z</time>
      </trkpt>
      <trkpt lat="46.97837" lon="8.74313">
        <ele>598</ele>
        <time>2021-08-05T11:37:59.432Z</time>
      </trkpt>
      <trkpt lat="46.97836" lon="8.74315">
        <ele>598</ele>
        <time>2021-08-05T11:38:00.432Z</time>
      </trkpt>
      <trkpt lat="46.97836" lon="8.74318">
        <ele>598</ele>
        <time>2021-08-05T11:38:01.432Z</time>
      </trkpt>
      <trkpt lat="46.97835" lon="8.74318">
        <ele>598</ele>
        <time>2021-08-05T11:38:02.432Z</time>
      </trkpt>
      <trkpt lat="46.97834" lon="8.74319">
        <ele>598</ele>
        <time>2021-08-05T11:38:03.432Z</time>
      </trkpt>
      <trkpt lat="46.97834" lon="8.74321">
        <ele>598</ele>
        <time>2021-08-05T11:38:04.432Z</time>
      </trkpt>
      <trkpt lat="46.97834" lon="8.74323">
        <ele>597</ele>
        <time>2021-08-05T11:38:05.432Z</time>
      </trkpt>
      <trkpt lat="46.97834" lon="8.74325">
        <ele>597</ele>
        <time>2021-08-05T11:38:06.432Z</time>
      </trkpt>
      <trkpt lat="46.97834" lon="8.74327">
        <ele>597</ele>
        <time>2021-08-05T11:38:07.432Z</time>
      </trkpt>
      <trkpt lat="46.97834" lon="8.74328">
        <ele>597</ele>
        <time>2021-08-05T11:38:08.432Z</time>
      </trkpt>
      <trkpt lat="46.97833" lon="8.7433">
        <ele>597</ele>
        <time>2021-08-05T11:38:09.432Z</time>
      </trkpt>
      <trkpt lat="46.97833" lon="8.74332">
        <ele>596</ele>
        <time>2021-08-05T11:38:10.432Z</time>
      </trkpt>
      <trkpt lat="46.97832" lon="8.74333">
        <ele>596</ele>
        <time>2021-08-05T11:38:11.431Z</time>
      </trkpt>
      <trkpt lat="46.97832" lon="8.74335">
        <ele>596</ele>
        <time>2021-08-05T11:38:12.432Z</time>
      </trkpt>
      <trkpt lat="46.97831" lon="8.74337">
        <ele>596</ele>
        <time>2021-08-05T11:38:13.432Z</time>
      </trkpt>
      <trkpt lat="46.97831" lon="8.74339">
        <ele>596</ele>
        <time>2021-08-05T11:38:14.432Z</time>
      </trkpt>
      <trkpt lat="46.9783" lon="8.7434">
        <ele>596</ele>
        <time>2021-08-05T11:38:15.431Z</time>
      </trkpt>
      <trkpt lat="46.9783" lon="8.74342">
        <ele>596</ele>
        <time>2021-08-05T11:38:16.431Z</time>
      </trkpt>
      <trkpt lat="46.97829" lon="8.74343">
        <ele>597</ele>
        <time>2021-08-05T11:38:17.431Z</time>
      </trkpt>
      <trkpt lat="46.97828" lon="8.74345">
        <ele>597</ele>
        <time>2021-08-05T11:38:18.432Z</time>
      </trkpt>
      <trkpt lat="46.97828" lon="8.74347">
        <ele>596</ele>
        <time>2021-08-05T11:38:19.431Z</time>
      </trkpt>
      <trkpt lat="46.97827" lon="8.74349">
        <ele>597</ele>
        <time>2021-08-05T11:38:20.431Z</time>
      </trkpt>
      <trkpt lat="46.97827" lon="8.7435">
        <ele>597</ele>
        <time>2021-08-05T11:38:21.431Z</time>
      </trkpt>
      <trkpt lat="46.97826" lon="8.74352">
        <ele>598</ele>
        <time>2021-08-05T11:38:22.431Z</time>
      </trkpt>
      <trkpt lat="46.97825" lon="8.74355">
        <ele>598</ele>
        <time>2021-08-05T11:38:23.431Z</time>
      </trkpt>
      <trkpt lat="46.97825" lon="8.74357">
        <ele>598</ele>
        <time>2021-08-05T11:38:24.431Z</time>
      </trkpt>
      <trkpt lat="46.97824" lon="8.74359">
        <ele>599</ele>
        <time>2021-08-05T11:38:25.432Z</time>
      </trkpt>
      <trkpt lat="46.97824" lon="8.74361">
        <ele>599</ele>
        <time>2021-08-05T11:38:26.431Z</time>
      </trkpt>
      <trkpt lat="46.97824" lon="8.74363">
        <ele>599</ele>
        <time>2021-08-05T11:38:27.432Z</time>
      </trkpt>
      <trkpt lat="46.97823" lon="8.74364">
        <ele>599</ele>
        <time>2021-08-05T11:38:28.432Z</time>
      </trkpt>
      <trkpt lat="46.97823" lon="8.74366">
        <ele>599</ele>
        <time>2021-08-05T11:38:29.432Z</time>
      </trkpt>
      <trkpt lat="46.97822" lon="8.74368">
        <ele>599</ele>
        <time>2021-08-05T11:38:30.432Z</time>
      </trkpt>
      <trkpt lat="46.97822" lon="8.7437">
        <ele>598</ele>
        <time>2021-08-05T11:38:31.432Z</time>
      </trkpt>
      <trkpt lat="46.97822" lon="8.74372">
        <ele>598</ele>
        <time>2021-08-05T11:38:32.432Z</time>
      </trkpt>
      <trkpt lat="46.97821" lon="8.74375">
        <ele>598</ele>
        <time>2021-08-05T11:38:33.431Z</time>
      </trkpt>
      <trkpt lat="46.97821" lon="8.74376">
        <ele>598</ele>
        <time>2021-08-05T11:38:34.431Z</time>
      </trkpt>
      <trkpt lat="46.9782" lon="8.74378">
        <ele>598</ele>
        <time>2021-08-05T11:38:35.432Z</time>
      </trkpt>
      <trkpt lat="46.9782" lon="8.7438">
        <ele>598</ele>
        <time>2021-08-05T11:38:36.432Z</time>
      </trkpt>
      <trkpt lat="46.97819" lon="8.74381">
        <ele>597</ele>
        <time>2021-08-05T11:38:37.432Z</time>
      </trkpt>
      <trkpt lat="46.97819" lon="8.74383">
        <ele>597</ele>
        <time>2021-08-05T11:38:38.432Z</time>
      </trkpt>
      <trkpt lat="46.97818" lon="8.74385">
        <ele>597</ele>
        <time>2021-08-05T11:38:39.431Z</time>
      </trkpt>
      <trkpt lat="46.97818" lon="8.74387">
        <ele>597</ele>
        <time>2021-08-05T11:38:40.431Z</time>
      </trkpt>
      <trkpt lat="46.97818" lon="8.74389">
        <ele>596</ele>
        <time>2021-08-05T11:38:41.431Z</time>
      </trkpt>
      <trkpt lat="46.97817" lon="8.74391">
        <ele>596</ele>
        <time>2021-08-05T11:38:42.432Z</time>
      </trkpt>
      <trkpt lat="46.97817" lon="8.74393">
        <ele>595</ele>
        <time>2021-08-05T11:38:43.431Z</time>
      </trkpt>
      <trkpt lat="46.97816" lon="8.74395">
        <ele>595</ele>
        <time>2021-08-05T11:38:44.432Z</time>
      </trkpt>
      <trkpt lat="46.97815" lon="8.74397">
        <ele>595</ele>
        <time>2021-08-05T11:38:45.431Z</time>
      </trkpt>
      <trkpt lat="46.97815" lon="8.74399">
        <ele>595</ele>
        <time>2021-08-05T11:38:46.432Z</time>
      </trkpt>
      <trkpt lat="46.97814" lon="8.74401">
        <ele>596</ele>
        <time>2021-08-05T11:38:47.432Z</time>
      </trkpt>
      <trkpt lat="46.97814" lon="8.74403">
        <ele>596</ele>
        <time>2021-08-05T11:38:48.432Z</time>
      </trkpt>
      <trkpt lat="46.97813" lon="8.74404">
        <ele>596</ele>
        <time>2021-08-05T11:38:49.432Z</time>
      </trkpt>
      <trkpt lat="46.97813" lon="8.74406">
        <ele>596</ele>
        <time>2021-08-05T11:38:50.432Z</time>
      </trkpt>
      <trkpt lat="46.97812" lon="8.74408">
        <ele>596</ele>
        <time>2021-08-05T11:38:51.431Z</time>
      </trkpt>
      <trkpt lat="46.97812" lon="8.7441">
        <ele>596</ele>
        <time>2021-08-05T11:38:52.432Z</time>
      </trkpt>
      <trkpt lat="46.97811" lon="8.74412">
        <ele>596</ele>
        <time>2021-08-05T11:38:53.432Z</time>
      </trkpt>
      <trkpt lat="46.97811" lon="8.74414">
        <ele>596</ele>
        <time>2021-08-05T11:38:54.432Z</time>
      </trkpt>
      <trkpt lat="46.9781" lon="8.74416">
        <ele>596</ele>
        <time>2021-08-05T11:38:55.432Z</time>
      </trkpt>
      <trkpt lat="46.97809" lon="8.74418">
        <ele>596</ele>
        <time>2021-08-05T11:38:56.432Z</time>
      </trkpt>
      <trkpt lat="46.97809" lon="8.7442">
        <ele>596</ele>
        <time>2021-08-05T11:39:08.535Z</time>
      </trkpt>
      <trkpt lat="46.97808" lon="8.74422">
        <ele>596</ele>
        <time>2021-08-05T11:39:09.536Z</time>
      </trkpt>
      <trkpt lat="46.97807" lon="8.74423">
        <ele>596</ele>
        <time>2021-08-05T11:39:18.328Z</time>
      </trkpt>
      <trkpt lat="46.97807" lon="8.74425">
        <ele>595</ele>
        <time>2021-08-05T11:39:19.328Z</time>
      </trkpt>
      <trkpt lat="46.97806" lon="8.74427">
        <ele>595</ele>
        <time>2021-08-05T11:39:20.328Z</time>
      </trkpt>
      <trkpt lat="46.97805" lon="8.74429">
        <ele>595</ele>
        <time>2021-08-05T11:39:21.327Z</time>
      </trkpt>
      <trkpt lat="46.97805" lon="8.7443">
        <ele>595</ele>
        <time>2021-08-05T11:39:22.328Z</time>
      </trkpt>
      <trkpt lat="46.97804" lon="8.74432">
        <ele>595</ele>
        <time>2021-08-05T11:39:23.327Z</time>
      </trkpt>
      <trkpt lat="46.97804" lon="8.74434">
        <ele>595</ele>
        <time>2021-08-05T11:39:24.327Z</time>
      </trkpt>
      <trkpt lat="46.97804" lon="8.74435">
        <ele>595</ele>
        <time>2021-08-05T11:39:25.328Z</time>
      </trkpt>
      <trkpt lat="46.97803" lon="8.74437">
        <ele>595</ele>
        <time>2021-08-05T11:39:26.328Z</time>
      </trkpt>
      <trkpt lat="46.97803" lon="8.74439">
        <ele>595</ele>
        <time>2021-08-05T11:39:27.328Z</time>
      </trkpt>
      <trkpt lat="46.97802" lon="8.74441">
        <ele>596</ele>
        <time>2021-08-05T11:39:28.328Z</time>
      </trkpt>
      <trkpt lat="46.97802" lon="8.74443">
        <ele>596</ele>
        <time>2021-08-05T11:39:38.451Z</time>
      </trkpt>
      <trkpt lat="46.97802" lon="8.74445">
        <ele>597</ele>
        <time>2021-08-05T11:39:39.451Z</time>
      </trkpt>
      <trkpt lat="46.97801" lon="8.74447">
        <ele>597</ele>
        <time>2021-08-05T11:39:40.450Z</time>
      </trkpt>
      <trkpt lat="46.97801" lon="8.74449">
        <ele>598</ele>
        <time>2021-08-05T11:39:50.329Z</time>
      </trkpt>
      <trkpt lat="46.978" lon="8.7445">
        <ele>598</ele>
        <time>2021-08-05T11:39:51.330Z</time>
      </trkpt>
      <trkpt lat="46.978" lon="8.74452">
        <ele>598</ele>
        <time>2021-08-05T11:39:57.177Z</time>
      </trkpt>
      <trkpt lat="46.978" lon="8.74453">
        <ele>599</ele>
        <time>2021-08-05T11:39:58.177Z</time>
      </trkpt>
      <trkpt lat="46.97799" lon="8.74455">
        <ele>600</ele>
        <time>2021-08-05T11:39:59.177Z</time>
      </trkpt>
      <trkpt lat="46.97799" lon="8.74457">
        <ele>600</ele>
        <time>2021-08-05T11:40:30.308Z</time>
      </trkpt>
      <trkpt lat="46.97798" lon="8.74459">
        <ele>600</ele>
        <time>2021-08-05T11:40:31.307Z</time>
      </trkpt>
      <trkpt lat="46.97797" lon="8.74461">
        <ele>601</ele>
        <time>2021-08-05T11:40:32.308Z</time>
      </trkpt>
      <trkpt lat="46.97797" lon="8.74463">
        <ele>601</ele>
        <time>2021-08-05T11:40:33.308Z</time>
      </trkpt>
      <trkpt lat="46.97796" lon="8.74465">
        <ele>601</ele>
        <time>2021-08-05T11:40:34.308Z</time>
      </trkpt>
      <trkpt lat="46.97795" lon="8.74466">
        <ele>602</ele>
        <time>2021-08-05T11:40:35.307Z</time>
      </trkpt>
      <trkpt lat="46.97794" lon="8.74468">
        <ele>602</ele>
        <time>2021-08-05T11:40:36.308Z</time>
      </trkpt>
      <trkpt lat="46.97794" lon="8.7447">
        <ele>602</ele>
        <time>2021-08-05T11:40:42.444Z</time>
      </trkpt>
      <trkpt lat="46.97793" lon="8.74472">
        <ele>603</ele>
        <time>2021-08-05T11:40:43.443Z</time>
      </trkpt>
      <trkpt lat="46.97793" lon="8.74474">
        <ele>603</ele>
        <time>2021-08-05T11:40:44.444Z</time>
      </trkpt>
      <trkpt lat="46.97792" lon="8.74476">
        <ele>603</ele>
        <time>2021-08-05T11:40:45.443Z</time>
      </trkpt>
      <trkpt lat="46.97792" lon="8.74478">
        <ele>603</ele>
        <time>2021-08-05T11:40:57.533Z</time>
      </trkpt>
      <trkpt lat="46.97792" lon="8.74479">
        <ele>602</ele>
        <time>2021-08-05T11:40:58.533Z</time>
      </trkpt>
      <trkpt lat="46.97792" lon="8.7448">
        <ele>601</ele>
        <time>2021-08-05T11:40:59.533Z</time>
      </trkpt>
      <trkpt lat="46.97792" lon="8.74481">
        <ele>600</ele>
        <time>2021-08-05T11:41:06.659Z</time>
      </trkpt>
      <trkpt lat="46.97791" lon="8.74482">
        <ele>600</ele>
        <time>2021-08-05T11:41:07.659Z</time>
      </trkpt>
      <trkpt lat="46.97791" lon="8.74484">
        <ele>600</ele>
        <time>2021-08-05T11:41:08.660Z</time>
      </trkpt>
      <trkpt lat="46.97791" lon="8.74485">
        <ele>599</ele>
        <time>2021-08-05T11:41:09.659Z</time>
      </trkpt>
      <trkpt lat="46.9779" lon="8.74486">
        <ele>599</ele>
        <time>2021-08-05T11:41:10.659Z</time>
      </trkpt>
      <trkpt lat="46.9779" lon="8.74486">
        <ele>599</ele>
        <time>2021-08-05T11:41:11.660Z</time>
      </trkpt>
      <trkpt lat="46.97789" lon="8.74488">
        <ele>599</ele>
        <time>2021-08-05T11:41:12.659Z</time>
      </trkpt>
      <trkpt lat="46.97789" lon="8.7449">
        <ele>599</ele>
        <time>2021-08-05T11:41:23.783Z</time>
      </trkpt>
      <trkpt lat="46.97789" lon="8.74493">
        <ele>599</ele>
        <time>2021-08-05T11:41:24.783Z</time>
      </trkpt>
      <trkpt lat="46.97788" lon="8.74495">
        <ele>599</ele>
        <time>2021-08-05T11:41:30.572Z</time>
      </trkpt>
      <trkpt lat="46.97788" lon="8.74497">
        <ele>599</ele>
        <time>2021-08-05T11:41:31.572Z</time>
      </trkpt>
      <trkpt lat="46.97787" lon="8.74499">
        <ele>599</ele>
        <time>2021-08-05T11:41:32.571Z</time>
      </trkpt>
      <trkpt lat="46.97787" lon="8.74501">
        <ele>599</ele>
        <time>2021-08-05T11:41:34.675Z</time>
      </trkpt>
      <trkpt lat="46.97786" lon="8.74502">
        <ele>599</ele>
        <time>2021-08-05T11:41:35.675Z</time>
      </trkpt>
      <trkpt lat="46.97786" lon="8.74504">
        <ele>599</ele>
        <time>2021-08-05T11:41:43.556Z</time>
      </trkpt>
      <trkpt lat="46.97785" lon="8.74506">
        <ele>599</ele>
        <time>2021-08-05T11:41:44.556Z</time>
      </trkpt>
      <trkpt lat="46.97785" lon="8.74509">
        <ele>599</ele>
        <time>2021-08-05T11:41:45.556Z</time>
      </trkpt>
      <trkpt lat="46.97784" lon="8.74511">
        <ele>598</ele>
        <time>2021-08-05T11:41:46.557Z</time>
      </trkpt>
      <trkpt lat="46.97784" lon="8.74513">
        <ele>598</ele>
        <time>2021-08-05T11:41:47.557Z</time>
      </trkpt>
      <trkpt lat="46.97783" lon="8.74515">
        <ele>598</ele>
        <time>2021-08-05T11:41:53.659Z</time>
      </trkpt>
      <trkpt lat="46.97783" lon="8.74518">
        <ele>598</ele>
        <time>2021-08-05T11:42:10.549Z</time>
      </trkpt>
      <trkpt lat="46.97782" lon="8.7452">
        <ele>598</ele>
        <time>2021-08-05T11:42:11.548Z</time>
      </trkpt>
      <trkpt lat="46.97781" lon="8.74522">
        <ele>598</ele>
        <time>2021-08-05T11:42:12.549Z</time>
      </trkpt>
      <trkpt lat="46.97781" lon="8.74524">
        <ele>598</ele>
        <time>2021-08-05T11:42:13.548Z</time>
      </trkpt>
      <trkpt lat="46.9778" lon="8.74526">
        <ele>598</ele>
        <time>2021-08-05T11:42:14.548Z</time>
      </trkpt>
      <trkpt lat="46.9778" lon="8.74527">
        <ele>598</ele>
        <time>2021-08-05T11:42:15.549Z</time>
      </trkpt>
      <trkpt lat="46.97779" lon="8.74529">
        <ele>598</ele>
        <time>2021-08-05T11:42:29.668Z</time>
      </trkpt>
      <trkpt lat="46.97779" lon="8.74531">
        <ele>598</ele>
        <time>2021-08-05T11:42:30.668Z</time>
      </trkpt>
      <trkpt lat="46.97779" lon="8.74533">
        <ele>598</ele>
        <time>2021-08-05T11:42:31.668Z</time>
      </trkpt>
      <trkpt lat="46.97778" lon="8.74534">
        <ele>598</ele>
        <time>2021-08-05T11:42:32.668Z</time>
      </trkpt>
      <trkpt lat="46.97778" lon="8.74536">
        <ele>598</ele>
        <time>2021-08-05T11:42:33.668Z</time>
      </trkpt>
      <trkpt lat="46.97778" lon="8.74538">
        <ele>597</ele>
        <time>2021-08-05T11:42:34.668Z</time>
      </trkpt>
      <trkpt lat="46.97777" lon="8.7454">
        <ele>597</ele>
        <time>2021-08-05T11:42:35.667Z</time>
      </trkpt>
      <trkpt lat="46.97777" lon="8.74542">
        <ele>597</ele>
        <time>2021-08-05T11:42:36.667Z</time>
      </trkpt>
      <trkpt lat="46.97776" lon="8.74544">
        <ele>597</ele>
        <time>2021-08-05T11:42:37.667Z</time>
      </trkpt>
      <trkpt lat="46.97776" lon="8.74546">
        <ele>597</ele>
        <time>2021-08-05T11:42:38.668Z</time>
      </trkpt>
      <trkpt lat="46.97775" lon="8.74549">
        <ele>597</ele>
        <time>2021-08-05T11:42:39.668Z</time>
      </trkpt>
      <trkpt lat="46.97774" lon="8.74551">
        <ele>597</ele>
        <time>2021-08-05T11:42:40.668Z</time>
      </trkpt>
      <trkpt lat="46.97774" lon="8.74553">
        <ele>597</ele>
        <time>2021-08-05T11:42:41.668Z</time>
      </trkpt>
      <trkpt lat="46.97774" lon="8.74555">
        <ele>597</ele>
        <time>2021-08-05T11:42:42.668Z</time>
      </trkpt>
      <trkpt lat="46.97774" lon="8.74556">
        <ele>597</ele>
        <time>2021-08-05T11:42:43.668Z</time>
      </trkpt>
      <trkpt lat="46.97773" lon="8.74557">
        <ele>596</ele>
        <time>2021-08-05T11:42:44.668Z</time>
      </trkpt>
      <trkpt lat="46.97773" lon="8.74559">
        <ele>596</ele>
        <time>2021-08-05T11:42:45.667Z</time>
      </trkpt>
      <trkpt lat="46.97772" lon="8.7456">
        <ele>596</ele>
        <time>2021-08-05T11:42:46.667Z</time>
      </trkpt>
      <trkpt lat="46.97772" lon="8.74561">
        <ele>595</ele>
        <time>2021-08-05T11:42:47.668Z</time>
      </trkpt>
      <trkpt lat="46.97772" lon="8.74562">
        <ele>595</ele>
        <time>2021-08-05T11:42:48.668Z</time>
      </trkpt>
      <trkpt lat="46.97771" lon="8.74563">
        <ele>594</ele>
        <time>2021-08-05T11:42:49.668Z</time>
      </trkpt>
      <trkpt lat="46.97771" lon="8.74564">
        <ele>594</ele>
        <time>2021-08-05T11:42:50.667Z</time>
      </trkpt>
      <trkpt lat="46.97771" lon="8.74566">
        <ele>594</ele>
        <time>2021-08-05T11:42:51.667Z</time>
      </trkpt>
      <trkpt lat="46.97771" lon="8.74567">
        <ele>594</ele>
        <time>2021-08-05T11:42:52.668Z</time>
      </trkpt>
      <trkpt lat="46.9777" lon="8.74569">
        <ele>594</ele>
        <time>2021-08-05T11:42:53.667Z</time>
      </trkpt>
      <trkpt lat="46.9777" lon="8.74571">
        <ele>593</ele>
        <time>2021-08-05T11:42:54.668Z</time>
      </trkpt>
      <trkpt lat="46.9777" lon="8.74574">
        <ele>593</ele>
        <time>2021-08-05T11:42:55.668Z</time>
      </trkpt>
      <trkpt lat="46.9777" lon="8.74576">
        <ele>593</ele>
        <time>2021-08-05T11:42:56.668Z</time>
      </trkpt>
      <trkpt lat="46.97769" lon="8.74578">
        <ele>593</ele>
        <time>2021-08-05T11:42:57.668Z</time>
      </trkpt>
      <trkpt lat="46.97769" lon="8.74579">
        <ele>592</ele>
        <time>2021-08-05T11:42:58.667Z</time>
      </trkpt>
      <trkpt lat="46.97768" lon="8.74581">
        <ele>592</ele>
        <time>2021-08-05T11:42:59.668Z</time>
      </trkpt>
      <trkpt lat="46.97768" lon="8.74583">
        <ele>592</ele>
        <time>2021-08-05T11:43:00.668Z</time>
      </trkpt>
      <trkpt lat="46.97768" lon="8.74585">
        <ele>592</ele>
        <time>2021-08-05T11:43:01.667Z</time>
      </trkpt>
      <trkpt lat="46.97768" lon="8.74587">
        <ele>592</ele>
        <time>2021-08-05T11:43:02.668Z</time>
      </trkpt>
      <trkpt lat="46.97768" lon="8.7459">
        <ele>592</ele>
        <time>2021-08-05T11:43:03.668Z</time>
      </trkpt>
      <trkpt lat="46.97768" lon="8.74592">
        <ele>592</ele>
        <time>2021-08-05T11:43:04.668Z</time>
      </trkpt>
      <trkpt lat="46.97768" lon="8.74594">
        <ele>592</ele>
        <time>2021-08-05T11:43:05.668Z</time>
      </trkpt>
      <trkpt lat="46.97768" lon="8.74596">
        <ele>592</ele>
        <time>2021-08-05T11:43:06.667Z</time>
      </trkpt>
      <trkpt lat="46.97767" lon="8.74597">
        <ele>592</ele>
        <time>2021-08-05T11:43:07.668Z</time>
      </trkpt>
      <trkpt lat="46.97767" lon="8.74599">
        <ele>592</ele>
        <time>2021-08-05T11:43:08.667Z</time>
      </trkpt>
      <trkpt lat="46.97767" lon="8.746">
        <ele>592</ele>
        <time>2021-08-05T11:43:09.668Z</time>
      </trkpt>
      <trkpt lat="46.97766" lon="8.74602">
        <ele>593</ele>
        <time>2021-08-05T11:43:10.668Z</time>
      </trkpt>
      <trkpt lat="46.97766" lon="8.74603">
        <ele>593</ele>
        <time>2021-08-05T11:43:11.667Z</time>
      </trkpt>
      <trkpt lat="46.97765" lon="8.74605">
        <ele>594</ele>
        <time>2021-08-05T11:43:12.667Z</time>
      </trkpt>
      <trkpt lat="46.97764" lon="8.74607">
        <ele>594</ele>
        <time>2021-08-05T11:43:13.667Z</time>
      </trkpt>
      <trkpt lat="46.97764" lon="8.7461">
        <ele>594</ele>
        <time>2021-08-05T11:43:14.667Z</time>
      </trkpt>
      <trkpt lat="46.97764" lon="8.74611">
        <ele>594</ele>
        <time>2021-08-05T11:43:15.667Z</time>
      </trkpt>
      <trkpt lat="46.97764" lon="8.74613">
        <ele>595</ele>
        <time>2021-08-05T11:43:16.667Z</time>
      </trkpt>
      <trkpt lat="46.97764" lon="8.74614">
        <ele>595</ele>
        <time>2021-08-05T11:43:17.667Z</time>
      </trkpt>
      <trkpt lat="46.97764" lon="8.74616">
        <ele>596</ele>
        <time>2021-08-05T11:43:18.667Z</time>
      </trkpt>
      <trkpt lat="46.97764" lon="8.74617">
        <ele>596</ele>
        <time>2021-08-05T11:43:19.667Z</time>
      </trkpt>
      <trkpt lat="46.97763" lon="8.74618">
        <ele>596</ele>
        <time>2021-08-05T11:43:20.668Z</time>
      </trkpt>
      <trkpt lat="46.97763" lon="8.7462">
        <ele>596</ele>
        <time>2021-08-05T11:43:40.678Z</time>
      </trkpt>
      <trkpt lat="46.97763" lon="8.74621">
        <ele>596</ele>
        <time>2021-08-05T11:43:41.678Z</time>
      </trkpt>
      <trkpt lat="46.97764" lon="8.74623">
        <ele>595</ele>
        <time>2021-08-05T11:43:42.678Z</time>
      </trkpt>
      <trkpt lat="46.97764" lon="8.74625">
        <ele>595</ele>
        <time>2021-08-05T11:43:55.790Z</time>
      </trkpt>
      <trkpt lat="46.97764" lon="8.74627">
        <ele>595</ele>
        <time>2021-08-05T11:43:56.790Z</time>
      </trkpt>
      <trkpt lat="46.97764" lon="8.74629">
        <ele>595</ele>
        <time>2021-08-05T11:43:57.790Z</time>
      </trkpt>
      <trkpt lat="46.97764" lon="8.74631">
        <ele>595</ele>
        <time>2021-08-05T11:43:58.790Z</time>
      </trkpt>
      <trkpt lat="46.97763" lon="8.74633">
        <ele>595</ele>
        <time>2021-08-05T11:43:59.791Z</time>
      </trkpt>
      <trkpt lat="46.97763" lon="8.74635">
        <ele>595</ele>
        <time>2021-08-05T11:44:00.790Z</time>
      </trkpt>
      <trkpt lat="46.97763" lon="8.74637">
        <ele>595</ele>
        <time>2021-08-05T11:44:01.790Z</time>
      </trkpt>
      <trkpt lat="46.97762" lon="8.74639">
        <ele>596</ele>
        <time>2021-08-05T11:44:02.790Z</time>
      </trkpt>
      <trkpt lat="46.97762" lon="8.74641">
        <ele>596</ele>
        <time>2021-08-05T11:44:03.790Z</time>
      </trkpt>
      <trkpt lat="46.97762" lon="8.74643">
        <ele>596</ele>
        <time>2021-08-05T11:44:04.790Z</time>
      </trkpt>
      <trkpt lat="46.97762" lon="8.74645">
        <ele>597</ele>
        <time>2021-08-05T11:44:05.790Z</time>
      </trkpt>
      <trkpt lat="46.97762" lon="8.74647">
        <ele>597</ele>
        <time>2021-08-05T11:44:06.790Z</time>
      </trkpt>
      <trkpt lat="46.97761" lon="8.7465">
        <ele>597</ele>
        <time>2021-08-05T11:44:07.791Z</time>
      </trkpt>
      <trkpt lat="46.97761" lon="8.74651">
        <ele>597</ele>
        <time>2021-08-05T11:44:08.790Z</time>
      </trkpt>
      <trkpt lat="46.97761" lon="8.74654">
        <ele>598</ele>
        <time>2021-08-05T11:44:09.790Z</time>
      </trkpt>
      <trkpt lat="46.97761" lon="8.74656">
        <ele>598</ele>
        <time>2021-08-05T11:44:10.790Z</time>
      </trkpt>
      <trkpt lat="46.97761" lon="8.74657">
        <ele>598</ele>
        <time>2021-08-05T11:44:11.791Z</time>
      </trkpt>
      <trkpt lat="46.97761" lon="8.74659">
        <ele>598</ele>
        <time>2021-08-05T11:44:12.791Z</time>
      </trkpt>
      <trkpt lat="46.9776" lon="8.7466">
        <ele>598</ele>
        <time>2021-08-05T11:44:13.791Z</time>
      </trkpt>
      <trkpt lat="46.9776" lon="8.74662">
        <ele>597</ele>
        <time>2021-08-05T11:44:14.791Z</time>
      </trkpt>
      <trkpt lat="46.9776" lon="8.74663">
        <ele>597</ele>
        <time>2021-08-05T11:44:15.790Z</time>
      </trkpt>
      <trkpt lat="46.9776" lon="8.74665">
        <ele>597</ele>
        <time>2021-08-05T11:44:16.791Z</time>
      </trkpt>
      <trkpt lat="46.97759" lon="8.74666">
        <ele>598</ele>
        <time>2021-08-05T11:44:17.791Z</time>
      </trkpt>
      <trkpt lat="46.97759" lon="8.74668">
        <ele>598</ele>
        <time>2021-08-05T11:44:18.791Z</time>
      </trkpt>
      <trkpt lat="46.97759" lon="8.74669">
        <ele>598</ele>
        <time>2021-08-05T11:44:19.791Z</time>
      </trkpt>
      <trkpt lat="46.97759" lon="8.74671">
        <ele>599</ele>
        <time>2021-08-05T11:44:20.790Z</time>
      </trkpt>
      <trkpt lat="46.97759" lon="8.74673">
        <ele>599</ele>
        <time>2021-08-05T11:44:21.790Z</time>
      </trkpt>
      <trkpt lat="46.97759" lon="8.74676">
        <ele>599</ele>
        <time>2021-08-05T11:44:22.791Z</time>
      </trkpt>
      <trkpt lat="46.97758" lon="8.74678">
        <ele>599</ele>
        <time>2021-08-05T11:44:23.791Z</time>
      </trkpt>
      <trkpt lat="46.97758" lon="8.74679">
        <ele>599</ele>
        <time>2021-08-05T11:44:24.790Z</time>
      </trkpt>
      <trkpt lat="46.97758" lon="8.74681">
        <ele>599</ele>
        <time>2021-08-05T11:44:25.790Z</time>
      </trkpt>
      <trkpt lat="46.97758" lon="8.74683">
        <ele>599</ele>
        <time>2021-08-05T11:44:26.791Z</time>
      </trkpt>
      <trkpt lat="46.97758" lon="8.74685">
        <ele>599</ele>
        <time>2021-08-05T11:44:27.790Z</time>
      </trkpt>
      <trkpt lat="46.97757" lon="8.74687">
        <ele>599</ele>
        <time>2021-08-05T11:44:28.791Z</time>
      </trkpt>
      <trkpt lat="46.97758" lon="8.7469">
        <ele>599</ele>
        <time>2021-08-05T11:44:29.790Z</time>
      </trkpt>
      <trkpt lat="46.97758" lon="8.74692">
        <ele>599</ele>
        <time>2021-08-05T11:44:30.791Z</time>
      </trkpt>
      <trkpt lat="46.97758" lon="8.74694">
        <ele>599</ele>
        <time>2021-08-05T11:44:31.791Z</time>
      </trkpt>
      <trkpt lat="46.97757" lon="8.74696">
        <ele>599</ele>
        <time>2021-08-05T11:44:32.790Z</time>
      </trkpt>
      <trkpt lat="46.97756" lon="8.74698">
        <ele>600</ele>
        <time>2021-08-05T11:44:33.791Z</time>
      </trkpt>
      <trkpt lat="46.97756" lon="8.747">
        <ele>600</ele>
        <time>2021-08-05T11:44:34.790Z</time>
      </trkpt>
      <trkpt lat="46.97756" lon="8.74702">
        <ele>601</ele>
        <time>2021-08-05T11:44:35.791Z</time>
      </trkpt>
      <trkpt lat="46.97755" lon="8.74704">
        <ele>601</ele>
        <time>2021-08-05T11:44:36.791Z</time>
      </trkpt>
      <trkpt lat="46.97755" lon="8.74706">
        <ele>601</ele>
        <time>2021-08-05T11:44:37.790Z</time>
      </trkpt>
      <trkpt lat="46.97755" lon="8.74709">
        <ele>601</ele>
        <time>2021-08-05T11:44:38.791Z</time>
      </trkpt>
      <trkpt lat="46.97755" lon="8.74711">
        <ele>601</ele>
        <time>2021-08-05T11:44:39.790Z</time>
      </trkpt>
      <trkpt lat="46.97754" lon="8.74713">
        <ele>601</ele>
        <time>2021-08-05T11:44:40.790Z</time>
      </trkpt>
      <trkpt lat="46.97754" lon="8.74714">
        <ele>601</ele>
        <time>2021-08-05T11:44:41.790Z</time>
      </trkpt>
      <trkpt lat="46.97754" lon="8.74716">
        <ele>601</ele>
        <time>2021-08-05T11:44:42.791Z</time>
      </trkpt>
      <trkpt lat="46.97754" lon="8.74718">
        <ele>601</ele>
        <time>2021-08-05T11:44:43.790Z</time>
      </trkpt>
      <trkpt lat="46.97753" lon="8.7472">
        <ele>600</ele>
        <time>2021-08-05T11:44:44.791Z</time>
      </trkpt>
      <trkpt lat="46.97753" lon="8.74722">
        <ele>600</ele>
        <time>2021-08-05T11:44:45.791Z</time>
      </trkpt>
      <trkpt lat="46.97753" lon="8.74723">
        <ele>599</ele>
        <time>2021-08-05T11:44:46.790Z</time>
      </trkpt>
      <trkpt lat="46.97753" lon="8.74726">
        <ele>599</ele>
        <time>2021-08-05T11:44:47.791Z</time>
      </trkpt>
      <trkpt lat="46.97753" lon="8.74729">
        <ele>599</ele>
        <time>2021-08-05T11:44:48.791Z</time>
      </trkpt>
      <trkpt lat="46.97752" lon="8.7473">
        <ele>599</ele>
        <time>2021-08-05T11:44:49.790Z</time>
      </trkpt>
      <trkpt lat="46.97752" lon="8.74732">
        <ele>599</ele>
        <time>2021-08-05T11:44:50.790Z</time>
      </trkpt>
      <trkpt lat="46.97751" lon="8.74734">
        <ele>600</ele>
        <time>2021-08-05T11:44:51.790Z</time>
      </trkpt>
      <trkpt lat="46.97751" lon="8.74736">
        <ele>600</ele>
        <time>2021-08-05T11:44:52.790Z</time>
      </trkpt>
      <trkpt lat="46.97751" lon="8.74738">
        <ele>601</ele>
        <time>2021-08-05T11:44:53.790Z</time>
      </trkpt>
      <trkpt lat="46.9775" lon="8.7474">
        <ele>601</ele>
        <time>2021-08-05T11:44:54.790Z</time>
      </trkpt>
      <trkpt lat="46.97749" lon="8.74742">
        <ele>601</ele>
        <time>2021-08-05T11:44:55.790Z</time>
      </trkpt>
      <trkpt lat="46.97749" lon="8.74744">
        <ele>602</ele>
        <time>2021-08-05T11:44:56.791Z</time>
      </trkpt>
      <trkpt lat="46.97749" lon="8.74746">
        <ele>602</ele>
        <time>2021-08-05T11:44:57.791Z</time>
      </trkpt>
      <trkpt lat="46.97748" lon="8.74748">
        <ele>602</ele>
        <time>2021-08-05T11:44:58.790Z</time>
      </trkpt>
      <trkpt lat="46.97748" lon="8.74749">
        <ele>602</ele>
        <time>2021-08-05T11:44:59.790Z</time>
      </trkpt>
      <trkpt lat="46.97748" lon="8.74751">
        <ele>603</ele>
        <time>2021-08-05T11:45:00.791Z</time>
      </trkpt>
      <trkpt lat="46.97747" lon="8.74753">
        <ele>603</ele>
        <time>2021-08-05T11:45:01.790Z</time>
      </trkpt>
      <trkpt lat="46.97747" lon="8.74755">
        <ele>603</ele>
        <time>2021-08-05T11:45:02.790Z</time>
      </trkpt>
      <trkpt lat="46.97747" lon="8.74757">
        <ele>604</ele>
        <time>2021-08-05T11:45:03.791Z</time>
      </trkpt>
      <trkpt lat="46.97747" lon="8.74759">
        <ele>604</ele>
        <time>2021-08-05T11:45:04.791Z</time>
      </trkpt>
      <trkpt lat="46.97747" lon="8.74761">
        <ele>605</ele>
        <time>2021-08-05T11:45:05.790Z</time>
      </trkpt>
      <trkpt lat="46.97747" lon="8.74763">
        <ele>605</ele>
        <time>2021-08-05T11:45:06.791Z</time>
      </trkpt>
      <trkpt lat="46.97747" lon="8.74765">
        <ele>605</ele>
        <time>2021-08-05T11:45:07.791Z</time>
      </trkpt>
      <trkpt lat="46.97747" lon="8.74766">
        <ele>605</ele>
        <time>2021-08-05T11:45:08.790Z</time>
      </trkpt>
      <trkpt lat="46.97747" lon="8.74768">
        <ele>605</ele>
        <time>2021-08-05T11:45:09.791Z</time>
      </trkpt>
      <trkpt lat="46.97747" lon="8.7477">
        <ele>604</ele>
        <time>2021-08-05T11:45:10.790Z</time>
      </trkpt>
      <trkpt lat="46.97747" lon="8.74773">
        <ele>604</ele>
        <time>2021-08-05T11:45:11.791Z</time>
      </trkpt>
      <trkpt lat="46.97748" lon="8.74775">
        <ele>603</ele>
        <time>2021-08-05T11:45:12.790Z</time>
      </trkpt>
      <trkpt lat="46.97748" lon="8.74777">
        <ele>603</ele>
        <time>2021-08-05T11:45:13.790Z</time>
      </trkpt>
      <trkpt lat="46.97748" lon="8.74778">
        <ele>602</ele>
        <time>2021-08-05T11:45:14.790Z</time>
      </trkpt>
      <trkpt lat="46.97748" lon="8.7478">
        <ele>602</ele>
        <time>2021-08-05T11:45:15.791Z</time>
      </trkpt>
      <trkpt lat="46.97748" lon="8.74782">
        <ele>601</ele>
        <time>2021-08-05T11:45:16.791Z</time>
      </trkpt>
      <trkpt lat="46.97748" lon="8.74784">
        <ele>601</ele>
        <time>2021-08-05T11:45:17.790Z</time>
      </trkpt>
      <trkpt lat="46.97748" lon="8.74786">
        <ele>601</ele>
        <time>2021-08-05T11:45:18.790Z</time>
      </trkpt>
      <trkpt lat="46.97748" lon="8.74789">
        <ele>601</ele>
        <time>2021-08-05T11:45:19.790Z</time>
      </trkpt>
      <trkpt lat="46.97748" lon="8.74791">
        <ele>600</ele>
        <time>2021-08-05T11:45:20.790Z</time>
      </trkpt>
      <trkpt lat="46.97747" lon="8.74793">
        <ele>601</ele>
        <time>2021-08-05T11:45:21.791Z</time>
      </trkpt>
      <trkpt lat="46.97747" lon="8.74795">
        <ele>601</ele>
        <time>2021-08-05T11:45:22.791Z</time>
      </trkpt>
      <trkpt lat="46.97747" lon="8.74797">
        <ele>601</ele>
        <time>2021-08-05T11:45:23.790Z</time>
      </trkpt>
      <trkpt lat="46.97747" lon="8.74799">
        <ele>601</ele>
        <time>2021-08-05T11:45:24.790Z</time>
      </trkpt>
      <trkpt lat="46.97747" lon="8.74802">
        <ele>600</ele>
        <time>2021-08-05T11:45:25.790Z</time>
      </trkpt>
      <trkpt lat="46.97747" lon="8.74804">
        <ele>600</ele>
        <time>2021-08-05T11:45:26.791Z</time>
      </trkpt>
      <trkpt lat="46.97746" lon="8.74806">
        <ele>600</ele>
        <time>2021-08-05T11:45:27.791Z</time>
      </trkpt>
      <trkpt lat="46.97746" lon="8.74808">
        <ele>600</ele>
        <time>2021-08-05T11:45:28.791Z</time>
      </trkpt>
      <trkpt lat="46.97746" lon="8.7481">
        <ele>600</ele>
        <time>2021-08-05T11:45:29.791Z</time>
      </trkpt>
      <trkpt lat="46.97745" lon="8.74812">
        <ele>600</ele>
        <time>2021-08-05T11:45:30.791Z</time>
      </trkpt>
      <trkpt lat="46.97745" lon="8.74814">
        <ele>600</ele>
        <time>2021-08-05T11:45:31.791Z</time>
      </trkpt>
      <trkpt lat="46.97745" lon="8.74817">
        <ele>601</ele>
        <time>2021-08-05T11:45:32.790Z</time>
      </trkpt>
      <trkpt lat="46.97745" lon="8.74819">
        <ele>601</ele>
        <time>2021-08-05T11:45:33.791Z</time>
      </trkpt>
      <trkpt lat="46.97745" lon="8.74821">
        <ele>602</ele>
        <time>2021-08-05T11:45:34.791Z</time>
      </trkpt>
      <trkpt lat="46.97744" lon="8.74823">
        <ele>602</ele>
        <time>2021-08-05T11:45:35.791Z</time>
      </trkpt>
      <trkpt lat="46.97744" lon="8.74825">
        <ele>603</ele>
        <time>2021-08-05T11:45:36.791Z</time>
      </trkpt>
      <trkpt lat="46.97744" lon="8.74827">
        <ele>603</ele>
        <time>2021-08-05T11:45:37.790Z</time>
      </trkpt>
      <trkpt lat="46.97744" lon="8.74829">
        <ele>603</ele>
        <time>2021-08-05T11:45:38.790Z</time>
      </trkpt>
      <trkpt lat="46.97744" lon="8.74832">
        <ele>604</ele>
        <time>2021-08-05T11:45:39.790Z</time>
      </trkpt>
      <trkpt lat="46.97743" lon="8.74834">
        <ele>604</ele>
        <time>2021-08-05T11:45:40.790Z</time>
      </trkpt>
      <trkpt lat="46.97743" lon="8.74836">
        <ele>604</ele>
        <time>2021-08-05T11:45:41.790Z</time>
      </trkpt>
      <trkpt lat="46.97742" lon="8.74837">
        <ele>605</ele>
        <time>2021-08-05T11:45:42.790Z</time>
      </trkpt>
      <trkpt lat="46.97742" lon="8.74839">
        <ele>605</ele>
        <time>2021-08-05T11:45:43.791Z</time>
      </trkpt>
      <trkpt lat="46.97742" lon="8.74841">
        <ele>605</ele>
        <time>2021-08-05T11:45:44.791Z</time>
      </trkpt>
      <trkpt lat="46.97741" lon="8.74843">
        <ele>605</ele>
        <time>2021-08-05T11:45:45.791Z</time>
      </trkpt>
      <trkpt lat="46.97741" lon="8.74845">
        <ele>605</ele>
        <time>2021-08-05T11:45:46.791Z</time>
      </trkpt>
      <trkpt lat="46.97741" lon="8.74846">
        <ele>605</ele>
        <time>2021-08-05T11:45:47.791Z</time>
      </trkpt>
      <trkpt lat="46.9774" lon="8.74849">
        <ele>604</ele>
        <time>2021-08-05T11:45:48.791Z</time>
      </trkpt>
      <trkpt lat="46.9774" lon="8.74851">
        <ele>604</ele>
        <time>2021-08-05T11:45:49.791Z</time>
      </trkpt>
      <trkpt lat="46.9774" lon="8.74853">
        <ele>604</ele>
        <time>2021-08-05T11:45:50.791Z</time>
      </trkpt>
      <trkpt lat="46.9774" lon="8.74855">
        <ele>604</ele>
        <time>2021-08-05T11:45:51.790Z</time>
      </trkpt>
      <trkpt lat="46.97739" lon="8.74857">
        <ele>603</ele>
        <time>2021-08-05T11:45:52.790Z</time>
      </trkpt>
      <trkpt lat="46.97739" lon="8.74859">
        <ele>603</ele>
        <time>2021-08-05T11:45:53.791Z</time>
      </trkpt>
      <trkpt lat="46.97739" lon="8.7486">
        <ele>603</ele>
        <time>2021-08-05T11:45:54.791Z</time>
      </trkpt>
      <trkpt lat="46.97738" lon="8.74863">
        <ele>603</ele>
        <time>2021-08-05T11:45:55.790Z</time>
      </trkpt>
      <trkpt lat="46.97738" lon="8.74865">
        <ele>603</ele>
        <time>2021-08-05T11:45:56.790Z</time>
      </trkpt>
      <trkpt lat="46.97738" lon="8.74867">
        <ele>602</ele>
        <time>2021-08-05T11:45:57.790Z</time>
      </trkpt>
      <trkpt lat="46.97738" lon="8.74869">
        <ele>602</ele>
        <time>2021-08-05T11:45:58.791Z</time>
      </trkpt>
      <trkpt lat="46.97737" lon="8.7487">
        <ele>601</ele>
        <time>2021-08-05T11:45:59.790Z</time>
      </trkpt>
      <trkpt lat="46.97737" lon="8.74871">
        <ele>601</ele>
        <time>2021-08-05T11:46:00.790Z</time>
      </trkpt>
      <trkpt lat="46.97737" lon="8.74873">
        <ele>601</ele>
        <time>2021-08-05T11:46:01.790Z</time>
      </trkpt>
      <trkpt lat="46.97736" lon="8.74875">
        <ele>601</ele>
        <time>2021-08-05T11:46:02.790Z</time>
      </trkpt>
      <trkpt lat="46.97736" lon="8.74877">
        <ele>602</ele>
        <time>2021-08-05T11:46:03.790Z</time>
      </trkpt>
      <trkpt lat="46.97735" lon="8.74879">
        <ele>602</ele>
        <time>2021-08-05T11:46:04.790Z</time>
      </trkpt>
      <trkpt lat="46.97735" lon="8.7488">
        <ele>603</ele>
        <time>2021-08-05T11:46:05.790Z</time>
      </trkpt>
      <trkpt lat="46.97733" lon="8.74882">
        <ele>604</ele>
        <time>2021-08-05T11:46:06.790Z</time>
      </trkpt>
      <trkpt lat="46.97732" lon="8.74883">
        <ele>605</ele>
        <time>2021-08-05T11:46:07.791Z</time>
      </trkpt>
      <trkpt lat="46.97731" lon="8.74884">
        <ele>605</ele>
        <time>2021-08-05T11:46:08.790Z</time>
      </trkpt>
      <trkpt lat="46.97731" lon="8.74885">
        <ele>606</ele>
        <time>2021-08-05T11:46:09.791Z</time>
      </trkpt>
      <trkpt lat="46.9773" lon="8.74887">
        <ele>606</ele>
        <time>2021-08-05T11:46:10.790Z</time>
      </trkpt>
      <trkpt lat="46.9773" lon="8.74889">
        <ele>607</ele>
        <time>2021-08-05T11:46:11.790Z</time>
      </trkpt>
      <trkpt lat="46.97729" lon="8.74891">
        <ele>607</ele>
        <time>2021-08-05T11:46:12.790Z</time>
      </trkpt>
      <trkpt lat="46.97728" lon="8.74892">
        <ele>607</ele>
        <time>2021-08-05T11:46:13.791Z</time>
      </trkpt>
      <trkpt lat="46.97728" lon="8.74894">
        <ele>608</ele>
        <time>2021-08-05T11:46:14.791Z</time>
      </trkpt>
      <trkpt lat="46.97728" lon="8.74896">
        <ele>608</ele>
        <time>2021-08-05T11:46:15.791Z</time>
      </trkpt>
      <trkpt lat="46.97729" lon="8.74899">
        <ele>608</ele>
        <time>2021-08-05T11:46:16.790Z</time>
      </trkpt>
      <trkpt lat="46.97729" lon="8.74901">
        <ele>608</ele>
        <time>2021-08-05T11:46:17.791Z</time>
      </trkpt>
      <trkpt lat="46.97729" lon="8.74903">
        <ele>608</ele>
        <time>2021-08-05T11:46:18.791Z</time>
      </trkpt>
      <trkpt lat="46.97728" lon="8.74905">
        <ele>609</ele>
        <time>2021-08-05T11:46:19.791Z</time>
      </trkpt>
      <trkpt lat="46.97727" lon="8.74906">
        <ele>610</ele>
        <time>2021-08-05T11:46:20.790Z</time>
      </trkpt>
      <trkpt lat="46.97726" lon="8.74908">
        <ele>610</ele>
        <time>2021-08-05T11:46:21.790Z</time>
      </trkpt>
      <trkpt lat="46.97726" lon="8.7491">
        <ele>610</ele>
        <time>2021-08-05T11:46:22.790Z</time>
      </trkpt>
      <trkpt lat="46.97726" lon="8.74912">
        <ele>610</ele>
        <time>2021-08-05T11:46:23.791Z</time>
      </trkpt>
      <trkpt lat="46.97726" lon="8.74914">
        <ele>610</ele>
        <time>2021-08-05T11:46:24.791Z</time>
      </trkpt>
      <trkpt lat="46.97726" lon="8.74917">
        <ele>611</ele>
        <time>2021-08-05T11:46:25.790Z</time>
      </trkpt>
      <trkpt lat="46.97725" lon="8.74918">
        <ele>611</ele>
        <time>2021-08-05T11:46:26.790Z</time>
      </trkpt>
      <trkpt lat="46.97725" lon="8.7492">
        <ele>611</ele>
        <time>2021-08-05T11:46:27.791Z</time>
      </trkpt>
      <trkpt lat="46.97725" lon="8.74922">
        <ele>612</ele>
        <time>2021-08-05T11:46:28.791Z</time>
      </trkpt>
      <trkpt lat="46.97724" lon="8.74924">
        <ele>612</ele>
        <time>2021-08-05T11:46:29.790Z</time>
      </trkpt>
      <trkpt lat="46.97724" lon="8.74926">
        <ele>613</ele>
        <time>2021-08-05T11:46:30.790Z</time>
      </trkpt>
      <trkpt lat="46.97724" lon="8.74929">
        <ele>613</ele>
        <time>2021-08-05T11:46:31.790Z</time>
      </trkpt>
      <trkpt lat="46.97724" lon="8.74931">
        <ele>613</ele>
        <time>2021-08-05T11:46:32.790Z</time>
      </trkpt>
      <trkpt lat="46.97723" lon="8.74932">
        <ele>613</ele>
        <time>2021-08-05T11:46:33.790Z</time>
      </trkpt>
      <trkpt lat="46.97723" lon="8.74934">
        <ele>614</ele>
        <time>2021-08-05T11:46:34.791Z</time>
      </trkpt>
      <trkpt lat="46.97723" lon="8.74936">
        <ele>614</ele>
        <time>2021-08-05T11:46:35.790Z</time>
      </trkpt>
      <trkpt lat="46.97723" lon="8.74939">
        <ele>614</ele>
        <time>2021-08-05T11:46:36.791Z</time>
      </trkpt>
      <trkpt lat="46.97723" lon="8.74941">
        <ele>614</ele>
        <time>2021-08-05T11:46:37.790Z</time>
      </trkpt>
      <trkpt lat="46.97723" lon="8.74943">
        <ele>614</ele>
        <time>2021-08-05T11:46:38.791Z</time>
      </trkpt>
      <trkpt lat="46.97723" lon="8.74945">
        <ele>614</ele>
        <time>2021-08-05T11:46:39.791Z</time>
      </trkpt>
      <trkpt lat="46.97722" lon="8.74947">
        <ele>615</ele>
        <time>2021-08-05T11:46:40.790Z</time>
      </trkpt>
      <trkpt lat="46.97721" lon="8.74949">
        <ele>615</ele>
        <time>2021-08-05T11:46:41.790Z</time>
      </trkpt>
      <trkpt lat="46.97721" lon="8.74951">
        <ele>615</ele>
        <time>2021-08-05T11:46:42.791Z</time>
      </trkpt>
      <trkpt lat="46.97721" lon="8.74953">
        <ele>616</ele>
        <time>2021-08-05T11:46:43.791Z</time>
      </trkpt>
      <trkpt lat="46.97721" lon="8.74955">
        <ele>616</ele>
        <time>2021-08-05T11:46:44.791Z</time>
      </trkpt>
      <trkpt lat="46.9772" lon="8.74957">
        <ele>616</ele>
        <time>2021-08-05T11:46:45.790Z</time>
      </trkpt>
      <trkpt lat="46.9772" lon="8.74959">
        <ele>616</ele>
        <time>2021-08-05T11:46:46.790Z</time>
      </trkpt>
      <trkpt lat="46.9772" lon="8.74961">
        <ele>616</ele>
        <time>2021-08-05T11:46:47.791Z</time>
      </trkpt>
      <trkpt lat="46.97721" lon="8.74963">
        <ele>615</ele>
        <time>2021-08-05T11:46:48.790Z</time>
      </trkpt>
      <trkpt lat="46.97721" lon="8.74965">
        <ele>614</ele>
        <time>2021-08-05T11:46:49.791Z</time>
      </trkpt>
      <trkpt lat="46.97721" lon="8.74967">
        <ele>613</ele>
        <time>2021-08-05T11:46:50.791Z</time>
      </trkpt>
      <trkpt lat="46.97721" lon="8.74969">
        <ele>613</ele>
        <time>2021-08-05T11:46:51.791Z</time>
      </trkpt>
      <trkpt lat="46.97721" lon="8.74971">
        <ele>612</ele>
        <time>2021-08-05T11:46:52.791Z</time>
      </trkpt>
      <trkpt lat="46.97721" lon="8.74974">
        <ele>611</ele>
        <time>2021-08-05T11:46:53.791Z</time>
      </trkpt>
      <trkpt lat="46.97721" lon="8.74977">
        <ele>611</ele>
        <time>2021-08-05T11:46:54.791Z</time>
      </trkpt>
      <trkpt lat="46.97721" lon="8.7498">
        <ele>610</ele>
        <time>2021-08-05T11:46:55.791Z</time>
      </trkpt>
      <trkpt lat="46.97721" lon="8.74982">
        <ele>609</ele>
        <time>2021-08-05T11:46:56.791Z</time>
      </trkpt>
      <trkpt lat="46.9772" lon="8.74984">
        <ele>608</ele>
        <time>2021-08-05T11:46:57.790Z</time>
      </trkpt>
      <trkpt lat="46.9772" lon="8.74984">
        <ele>607</ele>
        <time>2021-08-05T11:46:58.790Z</time>
      </trkpt>
      <trkpt lat="46.9772" lon="8.74986">
        <ele>606</ele>
        <time>2021-08-05T11:46:59.791Z</time>
      </trkpt>
      <trkpt lat="46.9772" lon="8.74987">
        <ele>605</ele>
        <time>2021-08-05T11:47:00.791Z</time>
      </trkpt>
      <trkpt lat="46.9772" lon="8.74989">
        <ele>604</ele>
        <time>2021-08-05T11:47:01.791Z</time>
      </trkpt>
      <trkpt lat="46.9772" lon="8.74992">
        <ele>604</ele>
        <time>2021-08-05T11:47:02.791Z</time>
      </trkpt>
      <trkpt lat="46.97719" lon="8.74995">
        <ele>604</ele>
        <time>2021-08-05T11:47:03.791Z</time>
      </trkpt>
      <trkpt lat="46.97719" lon="8.74997">
        <ele>604</ele>
        <time>2021-08-05T11:47:04.791Z</time>
      </trkpt>
      <trkpt lat="46.97719" lon="8.74999">
        <ele>605</ele>
        <time>2021-08-05T11:47:05.791Z</time>
      </trkpt>
      <trkpt lat="46.9772" lon="8.75">
        <ele>605</ele>
        <time>2021-08-05T11:47:06.791Z</time>
      </trkpt>
      <trkpt lat="46.9772" lon="8.75002">
        <ele>605</ele>
        <time>2021-08-05T11:47:07.790Z</time>
      </trkpt>
      <trkpt lat="46.9772" lon="8.75004">
        <ele>606</ele>
        <time>2021-08-05T11:47:08.791Z</time>
      </trkpt>
      <trkpt lat="46.97719" lon="8.75007">
        <ele>606</ele>
        <time>2021-08-05T11:47:09.791Z</time>
      </trkpt>
      <trkpt lat="46.97719" lon="8.75009">
        <ele>606</ele>
        <time>2021-08-05T11:47:10.791Z</time>
      </trkpt>
      <trkpt lat="46.97719" lon="8.75012">
        <ele>606</ele>
        <time>2021-08-05T11:47:11.791Z</time>
      </trkpt>
      <trkpt lat="46.97718" lon="8.75015">
        <ele>606</ele>
        <time>2021-08-05T11:47:12.791Z</time>
      </trkpt>
      <trkpt lat="46.97719" lon="8.75016">
        <ele>606</ele>
        <time>2021-08-05T11:47:13.791Z</time>
      </trkpt>
      <trkpt lat="46.97719" lon="8.75017">
        <ele>606</ele>
        <time>2021-08-05T11:47:14.790Z</time>
      </trkpt>
      <trkpt lat="46.97719" lon="8.75019">
        <ele>606</ele>
        <time>2021-08-05T11:47:15.790Z</time>
      </trkpt>
      <trkpt lat="46.97718" lon="8.75021">
        <ele>606</ele>
        <time>2021-08-05T11:47:16.790Z</time>
      </trkpt>
      <trkpt lat="46.97718" lon="8.75023">
        <ele>606</ele>
        <time>2021-08-05T11:47:17.790Z</time>
      </trkpt>
      <trkpt lat="46.97718" lon="8.75025">
        <ele>605</ele>
        <time>2021-08-05T11:47:18.791Z</time>
      </trkpt>
      <trkpt lat="46.97718" lon="8.75027">
        <ele>605</ele>
        <time>2021-08-05T11:47:19.791Z</time>
      </trkpt>
      <trkpt lat="46.97717" lon="8.75029">
        <ele>605</ele>
        <time>2021-08-05T11:47:20.791Z</time>
      </trkpt>
      <trkpt lat="46.97717" lon="8.75031">
        <ele>605</ele>
        <time>2021-08-05T11:47:21.790Z</time>
      </trkpt>
      <trkpt lat="46.97716" lon="8.75033">
        <ele>605</ele>
        <time>2021-08-05T11:47:22.790Z</time>
      </trkpt>
      <trkpt lat="46.97716" lon="8.75036">
        <ele>606</ele>
        <time>2021-08-05T11:47:23.791Z</time>
      </trkpt>
      <trkpt lat="46.97715" lon="8.75038">
        <ele>606</ele>
        <time>2021-08-05T11:47:24.791Z</time>
      </trkpt>
      <trkpt lat="46.97715" lon="8.7504">
        <ele>606</ele>
        <time>2021-08-05T11:47:25.790Z</time>
      </trkpt>
      <trkpt lat="46.97715" lon="8.75042">
        <ele>607</ele>
        <time>2021-08-05T11:47:26.790Z</time>
      </trkpt>
      <trkpt lat="46.97714" lon="8.75044">
        <ele>607</ele>
        <time>2021-08-05T11:47:27.790Z</time>
      </trkpt>
      <trkpt lat="46.97714" lon="8.75046">
        <ele>608</ele>
        <time>2021-08-05T11:47:28.790Z</time>
      </trkpt>
      <trkpt lat="46.97714" lon="8.75048">
        <ele>608</ele>
        <time>2021-08-05T11:47:29.791Z</time>
      </trkpt>
      <trkpt lat="46.97714" lon="8.75049">
        <ele>608</ele>
        <time>2021-08-05T11:47:30.790Z</time>
      </trkpt>
      <trkpt lat="46.97714" lon="8.75052">
        <ele>608</ele>
        <time>2021-08-05T11:47:31.790Z</time>
      </trkpt>
      <trkpt lat="46.97714" lon="8.75054">
        <ele>608</ele>
        <time>2021-08-05T11:47:32.791Z</time>
      </trkpt>
      <trkpt lat="46.97714" lon="8.75056">
        <ele>609</ele>
        <time>2021-08-05T11:47:33.791Z</time>
      </trkpt>
      <trkpt lat="46.97715" lon="8.75059">
        <ele>608</ele>
        <time>2021-08-05T11:47:34.791Z</time>
      </trkpt>
      <trkpt lat="46.97715" lon="8.75061">
        <ele>608</ele>
        <time>2021-08-05T11:47:35.790Z</time>
      </trkpt>
      <trkpt lat="46.97714" lon="8.75063">
        <ele>607</ele>
        <time>2021-08-05T11:47:36.790Z</time>
      </trkpt>
      <trkpt lat="46.97714" lon="8.75065">
        <ele>607</ele>
        <time>2021-08-05T11:47:37.790Z</time>
      </trkpt>
      <trkpt lat="46.97715" lon="8.75066">
        <ele>606</ele>
        <time>2021-08-05T11:47:38.790Z</time>
      </trkpt>
      <trkpt lat="46.97715" lon="8.75069">
        <ele>606</ele>
        <time>2021-08-05T11:47:39.791Z</time>
      </trkpt>
      <trkpt lat="46.97715" lon="8.75071">
        <ele>605</ele>
        <time>2021-08-05T11:47:40.791Z</time>
      </trkpt>
      <trkpt lat="46.97715" lon="8.75073">
        <ele>605</ele>
        <time>2021-08-05T11:47:41.790Z</time>
      </trkpt>
      <trkpt lat="46.97714" lon="8.75075">
        <ele>604</ele>
        <time>2021-08-05T11:47:42.791Z</time>
      </trkpt>
      <trkpt lat="46.97714" lon="8.75077">
        <ele>604</ele>
        <time>2021-08-05T11:47:43.791Z</time>
      </trkpt>
      <trkpt lat="46.97714" lon="8.75079">
        <ele>604</ele>
        <time>2021-08-05T11:47:44.791Z</time>
      </trkpt>
      <trkpt lat="46.97713" lon="8.75084">
        <ele>603</ele>
        <time>2021-08-05T11:47:45.791Z</time>
      </trkpt>
      <trkpt lat="46.97713" lon="8.75086">
        <ele>603</ele>
        <time>2021-08-05T11:47:46.791Z</time>
      </trkpt>
      <trkpt lat="46.97712" lon="8.75088">
        <ele>603</ele>
        <time>2021-08-05T11:47:47.791Z</time>
      </trkpt>
      <trkpt lat="46.97712" lon="8.7509">
        <ele>603</ele>
        <time>2021-08-05T11:47:48.791Z</time>
      </trkpt>
      <trkpt lat="46.97711" lon="8.7509">
        <ele>603</ele>
        <time>2021-08-05T11:47:49.791Z</time>
      </trkpt>
      <trkpt lat="46.97711" lon="8.75092">
        <ele>603</ele>
        <time>2021-08-05T11:47:50.791Z</time>
      </trkpt>
      <trkpt lat="46.97711" lon="8.75093">
        <ele>602</ele>
        <time>2021-08-05T11:47:51.790Z</time>
      </trkpt>
      <trkpt lat="46.97711" lon="8.75093">
        <ele>602</ele>
        <time>2021-08-05T11:47:52.791Z</time>
      </trkpt>
      <trkpt lat="46.97711" lon="8.75095">
        <ele>602</ele>
        <time>2021-08-05T11:47:53.791Z</time>
      </trkpt>
      <trkpt lat="46.97711" lon="8.75096">
        <ele>601</ele>
        <time>2021-08-05T11:47:54.791Z</time>
      </trkpt>
      <trkpt lat="46.97711" lon="8.75098">
        <ele>601</ele>
        <time>2021-08-05T11:47:55.791Z</time>
      </trkpt>
      <trkpt lat="46.97711" lon="8.75099">
        <ele>601</ele>
        <time>2021-08-05T11:47:56.791Z</time>
      </trkpt>
      <trkpt lat="46.97711" lon="8.75101">
        <ele>601</ele>
        <time>2021-08-05T11:47:57.790Z</time>
      </trkpt>
      <trkpt lat="46.97711" lon="8.75102">
        <ele>601</ele>
        <time>2021-08-05T11:47:58.790Z</time>
      </trkpt>
      <trkpt lat="46.97712" lon="8.75103">
        <ele>601</ele>
        <time>2021-08-05T11:47:59.791Z</time>
      </trkpt>
      <trkpt lat="46.97712" lon="8.75105">
        <ele>601</ele>
        <time>2021-08-05T11:48:00.791Z</time>
      </trkpt>
      <trkpt lat="46.97712" lon="8.75106">
        <ele>601</ele>
        <time>2021-08-05T11:48:01.790Z</time>
      </trkpt>
      <trkpt lat="46.97711" lon="8.75109">
        <ele>601</ele>
        <time>2021-08-05T11:48:02.791Z</time>
      </trkpt>
      <trkpt lat="46.97712" lon="8.75111">
        <ele>601</ele>
        <time>2021-08-05T11:48:03.791Z</time>
      </trkpt>
      <trkpt lat="46.97712" lon="8.75112">
        <ele>601</ele>
        <time>2021-08-05T11:48:04.791Z</time>
      </trkpt>
      <trkpt lat="46.97712" lon="8.75114">
        <ele>602</ele>
        <time>2021-08-05T11:48:05.791Z</time>
      </trkpt>
      <trkpt lat="46.97712" lon="8.75116">
        <ele>602</ele>
        <time>2021-08-05T11:48:06.790Z</time>
      </trkpt>
      <trkpt lat="46.97712" lon="8.75118">
        <ele>602</ele>
        <time>2021-08-05T11:48:07.790Z</time>
      </trkpt>
      <trkpt lat="46.97713" lon="8.7512">
        <ele>602</ele>
        <time>2021-08-05T11:48:08.791Z</time>
      </trkpt>
      <trkpt lat="46.97713" lon="8.75122">
        <ele>603</ele>
        <time>2021-08-05T11:48:09.791Z</time>
      </trkpt>
      <trkpt lat="46.97712" lon="8.75123">
        <ele>603</ele>
        <time>2021-08-05T11:48:10.790Z</time>
      </trkpt>
      <trkpt lat="46.97712" lon="8.75125">
        <ele>603</ele>
        <time>2021-08-05T11:48:11.790Z</time>
      </trkpt>
      <trkpt lat="46.97711" lon="8.75127">
        <ele>603</ele>
        <time>2021-08-05T11:48:12.791Z</time>
      </trkpt>
      <trkpt lat="46.97711" lon="8.7513">
        <ele>603</ele>
        <time>2021-08-05T11:48:13.791Z</time>
      </trkpt>
      <trkpt lat="46.97711" lon="8.75133">
        <ele>603</ele>
        <time>2021-08-05T11:48:14.791Z</time>
      </trkpt>
      <trkpt lat="46.97711" lon="8.75135">
        <ele>603</ele>
        <time>2021-08-05T11:48:15.791Z</time>
      </trkpt>
      <trkpt lat="46.97711" lon="8.75136">
        <ele>603</ele>
        <time>2021-08-05T11:48:16.791Z</time>
      </trkpt>
      <trkpt lat="46.97711" lon="8.75138">
        <ele>603</ele>
        <time>2021-08-05T11:48:17.791Z</time>
      </trkpt>
      <trkpt lat="46.97711" lon="8.7514">
        <ele>603</ele>
        <time>2021-08-05T11:48:18.790Z</time>
      </trkpt>
      <trkpt lat="46.97711" lon="8.75142">
        <ele>603</ele>
        <time>2021-08-05T11:48:19.790Z</time>
      </trkpt>
      <trkpt lat="46.97711" lon="8.75143">
        <ele>603</ele>
        <time>2021-08-05T11:48:20.790Z</time>
      </trkpt>
      <trkpt lat="46.97711" lon="8.75146">
        <ele>603</ele>
        <time>2021-08-05T11:48:21.790Z</time>
      </trkpt>
      <trkpt lat="46.97711" lon="8.75148">
        <ele>603</ele>
        <time>2021-08-05T11:48:22.791Z</time>
      </trkpt>
      <trkpt lat="46.9771" lon="8.7515">
        <ele>603</ele>
        <time>2021-08-05T11:48:23.791Z</time>
      </trkpt>
      <trkpt lat="46.97711" lon="8.75152">
        <ele>603</ele>
        <time>2021-08-05T11:48:24.791Z</time>
      </trkpt>
      <trkpt lat="46.97711" lon="8.75155">
        <ele>603</ele>
        <time>2021-08-05T11:48:25.791Z</time>
      </trkpt>
      <trkpt lat="46.97711" lon="8.75156">
        <ele>604</ele>
        <time>2021-08-05T11:48:26.791Z</time>
      </trkpt>
      <trkpt lat="46.97711" lon="8.75157">
        <ele>604</ele>
        <time>2021-08-05T11:48:27.791Z</time>
      </trkpt>
      <trkpt lat="46.97711" lon="8.75159">
        <ele>604</ele>
        <time>2021-08-05T11:48:28.790Z</time>
      </trkpt>
      <trkpt lat="46.97711" lon="8.7516">
        <ele>603</ele>
        <time>2021-08-05T11:48:29.791Z</time>
      </trkpt>
      <trkpt lat="46.97711" lon="8.75162">
        <ele>603</ele>
        <time>2021-08-05T11:48:30.791Z</time>
      </trkpt>
      <trkpt lat="46.97711" lon="8.75164">
        <ele>603</ele>
        <time>2021-08-05T11:48:31.791Z</time>
      </trkpt>
      <trkpt lat="46.97712" lon="8.75166">
        <ele>603</ele>
        <time>2021-08-05T11:48:32.791Z</time>
      </trkpt>
      <trkpt lat="46.97712" lon="8.75167">
        <ele>603</ele>
        <time>2021-08-05T11:48:33.791Z</time>
      </trkpt>
      <trkpt lat="46.97711" lon="8.75169">
        <ele>603</ele>
        <time>2021-08-05T11:48:34.791Z</time>
      </trkpt>
      <trkpt lat="46.97711" lon="8.75172">
        <ele>604</ele>
        <time>2021-08-05T11:48:35.790Z</time>
      </trkpt>
      <trkpt lat="46.9771" lon="8.75174">
        <ele>604</ele>
        <time>2021-08-05T11:48:36.791Z</time>
      </trkpt>
      <trkpt lat="46.97709" lon="8.75176">
        <ele>604</ele>
        <time>2021-08-05T11:48:37.791Z</time>
      </trkpt>
      <trkpt lat="46.97709" lon="8.75178">
        <ele>605</ele>
        <time>2021-08-05T11:48:38.791Z</time>
      </trkpt>
      <trkpt lat="46.97708" lon="8.7518">
        <ele>605</ele>
        <time>2021-08-05T11:48:39.790Z</time>
      </trkpt>
      <trkpt lat="46.97708" lon="8.75182">
        <ele>605</ele>
        <time>2021-08-05T11:48:40.791Z</time>
      </trkpt>
      <trkpt lat="46.97708" lon="8.75185">
        <ele>605</ele>
        <time>2021-08-05T11:48:41.790Z</time>
      </trkpt>
      <trkpt lat="46.97707" lon="8.75187">
        <ele>604</ele>
        <time>2021-08-05T11:48:42.790Z</time>
      </trkpt>
      <trkpt lat="46.97707" lon="8.7519">
        <ele>604</ele>
        <time>2021-08-05T11:48:43.791Z</time>
      </trkpt>
      <trkpt lat="46.97706" lon="8.75192">
        <ele>604</ele>
        <time>2021-08-05T11:48:44.791Z</time>
      </trkpt>
      <trkpt lat="46.97705" lon="8.75193">
        <ele>604</ele>
        <time>2021-08-05T11:48:45.791Z</time>
      </trkpt>
      <trkpt lat="46.97705" lon="8.75196">
        <ele>604</ele>
        <time>2021-08-05T11:48:46.791Z</time>
      </trkpt>
      <trkpt lat="46.97705" lon="8.75198">
        <ele>604</ele>
        <time>2021-08-05T11:48:47.791Z</time>
      </trkpt>
      <trkpt lat="46.97705" lon="8.752">
        <ele>604</ele>
        <time>2021-08-05T11:48:48.791Z</time>
      </trkpt>
      <trkpt lat="46.97705" lon="8.75202">
        <ele>604</ele>
        <time>2021-08-05T11:48:49.791Z</time>
      </trkpt>
      <trkpt lat="46.97704" lon="8.75204">
        <ele>604</ele>
        <time>2021-08-05T11:48:50.791Z</time>
      </trkpt>
      <trkpt lat="46.97704" lon="8.75206">
        <ele>604</ele>
        <time>2021-08-05T11:48:51.791Z</time>
      </trkpt>
      <trkpt lat="46.97704" lon="8.75208">
        <ele>604</ele>
        <time>2021-08-05T11:48:52.791Z</time>
      </trkpt>
      <trkpt lat="46.97704" lon="8.7521">
        <ele>604</ele>
        <time>2021-08-05T11:48:53.790Z</time>
      </trkpt>
      <trkpt lat="46.97704" lon="8.75212">
        <ele>604</ele>
        <time>2021-08-05T11:48:54.791Z</time>
      </trkpt>
      <trkpt lat="46.97703" lon="8.75214">
        <ele>604</ele>
        <time>2021-08-05T11:48:55.791Z</time>
      </trkpt>
      <trkpt lat="46.97703" lon="8.75217">
        <ele>604</ele>
        <time>2021-08-05T11:48:56.791Z</time>
      </trkpt>
      <trkpt lat="46.97703" lon="8.75218">
        <ele>604</ele>
        <time>2021-08-05T11:48:57.790Z</time>
      </trkpt>
      <trkpt lat="46.97702" lon="8.75221">
        <ele>605</ele>
        <time>2021-08-05T11:48:58.791Z</time>
      </trkpt>
      <trkpt lat="46.97702" lon="8.75223">
        <ele>605</ele>
        <time>2021-08-05T11:48:59.791Z</time>
      </trkpt>
      <trkpt lat="46.97702" lon="8.75225">
        <ele>605</ele>
        <time>2021-08-05T11:49:00.791Z</time>
      </trkpt>
      <trkpt lat="46.97701" lon="8.75228">
        <ele>605</ele>
        <time>2021-08-05T11:49:01.791Z</time>
      </trkpt>
      <trkpt lat="46.97701" lon="8.7523">
        <ele>605</ele>
        <time>2021-08-05T11:49:02.791Z</time>
      </trkpt>
      <trkpt lat="46.97701" lon="8.75231">
        <ele>605</ele>
        <time>2021-08-05T11:49:03.791Z</time>
      </trkpt>
      <trkpt lat="46.97701" lon="8.75233">
        <ele>605</ele>
        <time>2021-08-05T11:49:04.791Z</time>
      </trkpt>
      <trkpt lat="46.97701" lon="8.75235">
        <ele>606</ele>
        <time>2021-08-05T11:49:05.791Z</time>
      </trkpt>
      <trkpt lat="46.97701" lon="8.75237">
        <ele>606</ele>
        <time>2021-08-05T11:49:06.790Z</time>
      </trkpt>
      <trkpt lat="46.97701" lon="8.75239">
        <ele>606</ele>
        <time>2021-08-05T11:49:07.790Z</time>
      </trkpt>
      <trkpt lat="46.977" lon="8.75242">
        <ele>606</ele>
        <time>2021-08-05T11:49:08.791Z</time>
      </trkpt>
      <trkpt lat="46.977" lon="8.75243">
        <ele>607</ele>
        <time>2021-08-05T11:49:09.790Z</time>
      </trkpt>
      <trkpt lat="46.977" lon="8.75245">
        <ele>607</ele>
        <time>2021-08-05T11:49:10.790Z</time>
      </trkpt>
      <trkpt lat="46.97699" lon="8.75247">
        <ele>607</ele>
        <time>2021-08-05T11:49:11.791Z</time>
      </trkpt>
      <trkpt lat="46.97699" lon="8.75249">
        <ele>607</ele>
        <time>2021-08-05T11:49:12.790Z</time>
      </trkpt>
      <trkpt lat="46.97698" lon="8.75251">
        <ele>608</ele>
        <time>2021-08-05T11:49:13.790Z</time>
      </trkpt>
      <trkpt lat="46.97698" lon="8.75253">
        <ele>608</ele>
        <time>2021-08-05T11:49:14.790Z</time>
      </trkpt>
      <trkpt lat="46.97698" lon="8.75255">
        <ele>608</ele>
        <time>2021-08-05T11:49:15.791Z</time>
      </trkpt>
      <trkpt lat="46.97698" lon="8.75257">
        <ele>608</ele>
        <time>2021-08-05T11:49:16.790Z</time>
      </trkpt>
      <trkpt lat="46.97698" lon="8.75259">
        <ele>609</ele>
        <time>2021-08-05T11:49:17.791Z</time>
      </trkpt>
      <trkpt lat="46.97697" lon="8.75261">
        <ele>609</ele>
        <time>2021-08-05T11:49:18.791Z</time>
      </trkpt>
      <trkpt lat="46.97697" lon="8.75263">
        <ele>610</ele>
        <time>2021-08-05T11:49:19.790Z</time>
      </trkpt>
      <trkpt lat="46.97696" lon="8.75265">
        <ele>610</ele>
        <time>2021-08-05T11:49:20.790Z</time>
      </trkpt>
      <trkpt lat="46.97696" lon="8.75267">
        <ele>611</ele>
        <time>2021-08-05T11:49:21.790Z</time>
      </trkpt>
      <trkpt lat="46.97695" lon="8.75269">
        <ele>611</ele>
        <time>2021-08-05T11:49:22.790Z</time>
      </trkpt>
      <trkpt lat="46.97695" lon="8.75271">
        <ele>611</ele>
        <time>2021-08-05T11:49:23.790Z</time>
      </trkpt>
      <trkpt lat="46.97695" lon="8.75273">
        <ele>611</ele>
        <time>2021-08-05T11:49:24.791Z</time>
      </trkpt>
      <trkpt lat="46.97694" lon="8.75276">
        <ele>610</ele>
        <time>2021-08-05T11:49:25.790Z</time>
      </trkpt>
      <trkpt lat="46.97694" lon="8.75278">
        <ele>610</ele>
        <time>2021-08-05T11:49:26.791Z</time>
      </trkpt>
      <trkpt lat="46.97694" lon="8.7528">
        <ele>610</ele>
        <time>2021-08-05T11:49:27.791Z</time>
      </trkpt>
      <trkpt lat="46.97694" lon="8.75282">
        <ele>609</ele>
        <time>2021-08-05T11:49:28.790Z</time>
      </trkpt>
      <trkpt lat="46.97693" lon="8.75284">
        <ele>608</ele>
        <time>2021-08-05T11:49:29.791Z</time>
      </trkpt>
      <trkpt lat="46.97693" lon="8.75286">
        <ele>608</ele>
        <time>2021-08-05T11:49:30.791Z</time>
      </trkpt>
      <trkpt lat="46.97693" lon="8.75288">
        <ele>608</ele>
        <time>2021-08-05T11:49:31.791Z</time>
      </trkpt>
      <trkpt lat="46.97692" lon="8.75289">
        <ele>607</ele>
        <time>2021-08-05T11:49:32.791Z</time>
      </trkpt>
      <trkpt lat="46.97692" lon="8.75291">
        <ele>607</ele>
        <time>2021-08-05T11:49:33.791Z</time>
      </trkpt>
      <trkpt lat="46.97692" lon="8.75293">
        <ele>607</ele>
        <time>2021-08-05T11:49:34.790Z</time>
      </trkpt>
      <trkpt lat="46.97691" lon="8.75296">
        <ele>607</ele>
        <time>2021-08-05T11:49:35.790Z</time>
      </trkpt>
      <trkpt lat="46.97691" lon="8.75298">
        <ele>607</ele>
        <time>2021-08-05T11:49:36.790Z</time>
      </trkpt>
      <trkpt lat="46.97691" lon="8.753">
        <ele>607</ele>
        <time>2021-08-05T11:49:37.791Z</time>
      </trkpt>
      <trkpt lat="46.9769" lon="8.75302">
        <ele>607</ele>
        <time>2021-08-05T11:49:38.791Z</time>
      </trkpt>
      <trkpt lat="46.9769" lon="8.75305">
        <ele>607</ele>
        <time>2021-08-05T11:49:39.791Z</time>
      </trkpt>
      <trkpt lat="46.9769" lon="8.75307">
        <ele>607</ele>
        <time>2021-08-05T11:49:40.790Z</time>
      </trkpt>
      <trkpt lat="46.97689" lon="8.75309">
        <ele>607</ele>
        <time>2021-08-05T11:49:41.790Z</time>
      </trkpt>
      <trkpt lat="46.97689" lon="8.75311">
        <ele>607</ele>
        <time>2021-08-05T11:49:42.790Z</time>
      </trkpt>
      <trkpt lat="46.97689" lon="8.75313">
        <ele>606</ele>
        <time>2021-08-05T11:49:43.791Z</time>
      </trkpt>
      <trkpt lat="46.97689" lon="8.75315">
        <ele>606</ele>
        <time>2021-08-05T11:49:44.791Z</time>
      </trkpt>
      <trkpt lat="46.97688" lon="8.75317">
        <ele>605</ele>
        <time>2021-08-05T11:49:45.790Z</time>
      </trkpt>
      <trkpt lat="46.97688" lon="8.75319">
        <ele>605</ele>
        <time>2021-08-05T11:49:46.790Z</time>
      </trkpt>
      <trkpt lat="46.97688" lon="8.75321">
        <ele>604</ele>
        <time>2021-08-05T11:49:47.790Z</time>
      </trkpt>
      <trkpt lat="46.97688" lon="8.75323">
        <ele>604</ele>
        <time>2021-08-05T11:49:48.791Z</time>
      </trkpt>
      <trkpt lat="46.97688" lon="8.75325">
        <ele>603</ele>
        <time>2021-08-05T11:49:49.790Z</time>
      </trkpt>
      <trkpt lat="46.97687" lon="8.75327">
        <ele>603</ele>
        <time>2021-08-05T11:49:50.790Z</time>
      </trkpt>
      <trkpt lat="46.97687" lon="8.75328">
        <ele>603</ele>
        <time>2021-08-05T11:49:51.790Z</time>
      </trkpt>
      <trkpt lat="46.97687" lon="8.7533">
        <ele>603</ele>
        <time>2021-08-05T11:49:52.790Z</time>
      </trkpt>
      <trkpt lat="46.97687" lon="8.75332">
        <ele>603</ele>
        <time>2021-08-05T11:49:53.790Z</time>
      </trkpt>
      <trkpt lat="46.97687" lon="8.75334">
        <ele>603</ele>
        <time>2021-08-05T11:49:54.790Z</time>
      </trkpt>
      <trkpt lat="46.97687" lon="8.75336">
        <ele>602</ele>
        <time>2021-08-05T11:49:55.790Z</time>
      </trkpt>
      <trkpt lat="46.97687" lon="8.75337">
        <ele>602</ele>
        <time>2021-08-05T11:49:56.790Z</time>
      </trkpt>
      <trkpt lat="46.97687" lon="8.7534">
        <ele>602</ele>
        <time>2021-08-05T11:49:57.790Z</time>
      </trkpt>
      <trkpt lat="46.97687" lon="8.75341">
        <ele>602</ele>
        <time>2021-08-05T11:49:58.790Z</time>
      </trkpt>
      <trkpt lat="46.97687" lon="8.75343">
        <ele>602</ele>
        <time>2021-08-05T11:49:59.790Z</time>
      </trkpt>
      <trkpt lat="46.97687" lon="8.75345">
        <ele>602</ele>
        <time>2021-08-05T11:50:00.790Z</time>
      </trkpt>
      <trkpt lat="46.97687" lon="8.75347">
        <ele>602</ele>
        <time>2021-08-05T11:50:01.790Z</time>
      </trkpt>
      <trkpt lat="46.97687" lon="8.75349">
        <ele>602</ele>
        <time>2021-08-05T11:50:02.790Z</time>
      </trkpt>
      <trkpt lat="46.97686" lon="8.75351">
        <ele>603</ele>
        <time>2021-08-05T11:50:03.790Z</time>
      </trkpt>
      <trkpt lat="46.97686" lon="8.75352">
        <ele>603</ele>
        <time>2021-08-05T11:50:04.791Z</time>
      </trkpt>
      <trkpt lat="46.97686" lon="8.75355">
        <ele>603</ele>
        <time>2021-08-05T11:50:05.791Z</time>
      </trkpt>
      <trkpt lat="46.97686" lon="8.75357">
        <ele>603</ele>
        <time>2021-08-05T11:50:06.790Z</time>
      </trkpt>
      <trkpt lat="46.97686" lon="8.75359">
        <ele>603</ele>
        <time>2021-08-05T11:50:07.790Z</time>
      </trkpt>
      <trkpt lat="46.97686" lon="8.75361">
        <ele>602</ele>
        <time>2021-08-05T11:50:08.791Z</time>
      </trkpt>
      <trkpt lat="46.97686" lon="8.75364">
        <ele>603</ele>
        <time>2021-08-05T11:50:09.791Z</time>
      </trkpt>
      <trkpt lat="46.97686" lon="8.75366">
        <ele>603</ele>
        <time>2021-08-05T11:50:10.790Z</time>
      </trkpt>
      <trkpt lat="46.97686" lon="8.75368">
        <ele>603</ele>
        <time>2021-08-05T11:50:11.790Z</time>
      </trkpt>
      <trkpt lat="46.97686" lon="8.7537">
        <ele>604</ele>
        <time>2021-08-05T11:50:12.791Z</time>
      </trkpt>
      <trkpt lat="46.97686" lon="8.75372">
        <ele>604</ele>
        <time>2021-08-05T11:50:13.790Z</time>
      </trkpt>
      <trkpt lat="46.97685" lon="8.75374">
        <ele>604</ele>
        <time>2021-08-05T11:50:14.791Z</time>
      </trkpt>
      <trkpt lat="46.97685" lon="8.75376">
        <ele>605</ele>
        <time>2021-08-05T11:50:15.790Z</time>
      </trkpt>
      <trkpt lat="46.97685" lon="8.75378">
        <ele>605</ele>
        <time>2021-08-05T11:50:16.791Z</time>
      </trkpt>
      <trkpt lat="46.97685" lon="8.7538">
        <ele>605</ele>
        <time>2021-08-05T11:50:17.791Z</time>
      </trkpt>
      <trkpt lat="46.97684" lon="8.75382">
        <ele>606</ele>
        <time>2021-08-05T11:50:18.791Z</time>
      </trkpt>
      <trkpt lat="46.97684" lon="8.75384">
        <ele>606</ele>
        <time>2021-08-05T11:50:19.791Z</time>
      </trkpt>
      <trkpt lat="46.97684" lon="8.75386">
        <ele>606</ele>
        <time>2021-08-05T11:50:20.791Z</time>
      </trkpt>
      <trkpt lat="46.97684" lon="8.75388">
        <ele>607</ele>
        <time>2021-08-05T11:50:21.791Z</time>
      </trkpt>
      <trkpt lat="46.97684" lon="8.7539">
        <ele>608</ele>
        <time>2021-08-05T11:50:22.791Z</time>
      </trkpt>
      <trkpt lat="46.97685" lon="8.75392">
        <ele>608</ele>
        <time>2021-08-05T11:50:23.790Z</time>
      </trkpt>
      <trkpt lat="46.97685" lon="8.75394">
        <ele>609</ele>
        <time>2021-08-05T11:50:24.791Z</time>
      </trkpt>
      <trkpt lat="46.97685" lon="8.75396">
        <ele>610</ele>
        <time>2021-08-05T11:50:25.791Z</time>
      </trkpt>
      <trkpt lat="46.97685" lon="8.75399">
        <ele>610</ele>
        <time>2021-08-05T11:50:26.791Z</time>
      </trkpt>
      <trkpt lat="46.97685" lon="8.754">
        <ele>610</ele>
        <time>2021-08-05T11:50:27.791Z</time>
      </trkpt>
      <trkpt lat="46.97685" lon="8.75402">
        <ele>611</ele>
        <time>2021-08-05T11:50:28.791Z</time>
      </trkpt>
      <trkpt lat="46.97685" lon="8.75404">
        <ele>610</ele>
        <time>2021-08-05T11:50:29.791Z</time>
      </trkpt>
      <trkpt lat="46.97685" lon="8.75406">
        <ele>610</ele>
        <time>2021-08-05T11:50:30.791Z</time>
      </trkpt>
      <trkpt lat="46.97685" lon="8.75407">
        <ele>609</ele>
        <time>2021-08-05T11:50:31.791Z</time>
      </trkpt>
      <trkpt lat="46.97685" lon="8.75409">
        <ele>609</ele>
        <time>2021-08-05T11:50:32.791Z</time>
      </trkpt>
      <trkpt lat="46.97685" lon="8.75411">
        <ele>608</ele>
        <time>2021-08-05T11:50:33.790Z</time>
      </trkpt>
      <trkpt lat="46.97685" lon="8.75413">
        <ele>608</ele>
        <time>2021-08-05T11:50:34.791Z</time>
      </trkpt>
      <trkpt lat="46.97685" lon="8.75416">
        <ele>607</ele>
        <time>2021-08-05T11:50:35.790Z</time>
      </trkpt>
      <trkpt lat="46.97685" lon="8.75418">
        <ele>607</ele>
        <time>2021-08-05T11:50:36.791Z</time>
      </trkpt>
      <trkpt lat="46.97685" lon="8.7542">
        <ele>606</ele>
        <time>2021-08-05T11:50:37.791Z</time>
      </trkpt>
      <trkpt lat="46.97685" lon="8.75421">
        <ele>606</ele>
        <time>2021-08-05T11:50:38.790Z</time>
      </trkpt>
      <trkpt lat="46.97684" lon="8.75424">
        <ele>606</ele>
        <time>2021-08-05T11:50:39.790Z</time>
      </trkpt>
      <trkpt lat="46.97684" lon="8.75425">
        <ele>606</ele>
        <time>2021-08-05T11:50:40.791Z</time>
      </trkpt>
      <trkpt lat="46.97684" lon="8.75427">
        <ele>605</ele>
        <time>2021-08-05T11:50:41.791Z</time>
      </trkpt>
      <trkpt lat="46.97683" lon="8.75429">
        <ele>605</ele>
        <time>2021-08-05T11:50:42.791Z</time>
      </trkpt>
      <trkpt lat="46.97683" lon="8.75431">
        <ele>605</ele>
        <time>2021-08-05T11:50:43.790Z</time>
      </trkpt>
      <trkpt lat="46.97683" lon="8.75433">
        <ele>604</ele>
        <time>2021-08-05T11:50:44.791Z</time>
      </trkpt>
      <trkpt lat="46.97682" lon="8.75435">
        <ele>604</ele>
        <time>2021-08-05T11:50:45.790Z</time>
      </trkpt>
      <trkpt lat="46.97682" lon="8.75437">
        <ele>605</ele>
        <time>2021-08-05T11:50:46.791Z</time>
      </trkpt>
      <trkpt lat="46.97681" lon="8.75439">
        <ele>605</ele>
        <time>2021-08-05T11:50:47.790Z</time>
      </trkpt>
      <trkpt lat="46.97681" lon="8.75441">
        <ele>605</ele>
        <time>2021-08-05T11:50:48.791Z</time>
      </trkpt>
      <trkpt lat="46.9768" lon="8.75443">
        <ele>605</ele>
        <time>2021-08-05T11:50:49.791Z</time>
      </trkpt>
      <trkpt lat="46.9768" lon="8.75445">
        <ele>605</ele>
        <time>2021-08-05T11:50:50.791Z</time>
      </trkpt>
      <trkpt lat="46.9768" lon="8.75447">
        <ele>606</ele>
        <time>2021-08-05T11:50:51.790Z</time>
      </trkpt>
      <trkpt lat="46.97679" lon="8.75449">
        <ele>606</ele>
        <time>2021-08-05T11:50:52.791Z</time>
      </trkpt>
      <trkpt lat="46.97678" lon="8.75452">
        <ele>606</ele>
        <time>2021-08-05T11:50:53.790Z</time>
      </trkpt>
      <trkpt lat="46.97678" lon="8.75454">
        <ele>606</ele>
        <time>2021-08-05T11:50:54.791Z</time>
      </trkpt>
      <trkpt lat="46.97678" lon="8.75456">
        <ele>606</ele>
        <time>2021-08-05T11:50:55.791Z</time>
      </trkpt>
      <trkpt lat="46.97677" lon="8.75458">
        <ele>606</ele>
        <time>2021-08-05T11:50:56.791Z</time>
      </trkpt>
      <trkpt lat="46.97677" lon="8.75459">
        <ele>606</ele>
        <time>2021-08-05T11:50:57.791Z</time>
      </trkpt>
      <trkpt lat="46.97676" lon="8.75461">
        <ele>606</ele>
        <time>2021-08-05T11:50:58.790Z</time>
      </trkpt>
      <trkpt lat="46.97676" lon="8.75463">
        <ele>607</ele>
        <time>2021-08-05T11:50:59.791Z</time>
      </trkpt>
      <trkpt lat="46.97675" lon="8.75464">
        <ele>607</ele>
        <time>2021-08-05T11:51:00.790Z</time>
      </trkpt>
      <trkpt lat="46.97675" lon="8.75466">
        <ele>607</ele>
        <time>2021-08-05T11:51:01.791Z</time>
      </trkpt>
      <trkpt lat="46.97674" lon="8.75468">
        <ele>608</ele>
        <time>2021-08-05T11:51:02.791Z</time>
      </trkpt>
      <trkpt lat="46.97674" lon="8.7547">
        <ele>608</ele>
        <time>2021-08-05T11:51:03.791Z</time>
      </trkpt>
      <trkpt lat="46.97673" lon="8.75471">
        <ele>609</ele>
        <time>2021-08-05T11:51:05.777Z</time>
      </trkpt>
      <trkpt lat="46.97672" lon="8.75473">
        <ele>609</ele>
        <time>2021-08-05T11:51:06.777Z</time>
      </trkpt>
      <trkpt lat="46.97671" lon="8.75475">
        <ele>610</ele>
        <time>2021-08-05T11:51:07.776Z</time>
      </trkpt>
      <trkpt lat="46.97671" lon="8.75477">
        <ele>610</ele>
        <time>2021-08-05T11:51:08.776Z</time>
      </trkpt>
      <trkpt lat="46.9767" lon="8.75478">
        <ele>609</ele>
        <time>2021-08-05T11:51:09.777Z</time>
      </trkpt>
      <trkpt lat="46.9767" lon="8.7548">
        <ele>609</ele>
        <time>2021-08-05T11:51:10.777Z</time>
      </trkpt>
      <trkpt lat="46.97669" lon="8.75482">
        <ele>608</ele>
        <time>2021-08-05T11:51:11.776Z</time>
      </trkpt>
      <trkpt lat="46.97669" lon="8.75484">
        <ele>608</ele>
        <time>2021-08-05T11:51:12.777Z</time>
      </trkpt>
      <trkpt lat="46.97669" lon="8.75486">
        <ele>607</ele>
        <time>2021-08-05T11:51:13.777Z</time>
      </trkpt>
      <trkpt lat="46.97668" lon="8.75488">
        <ele>607</ele>
        <time>2021-08-05T11:51:14.777Z</time>
      </trkpt>
      <trkpt lat="46.97668" lon="8.7549">
        <ele>607</ele>
        <time>2021-08-05T11:51:15.777Z</time>
      </trkpt>
      <trkpt lat="46.97667" lon="8.75491">
        <ele>606</ele>
        <time>2021-08-05T11:51:16.777Z</time>
      </trkpt>
      <trkpt lat="46.97667" lon="8.75493">
        <ele>606</ele>
        <time>2021-08-05T11:51:17.776Z</time>
      </trkpt>
      <trkpt lat="46.97666" lon="8.75494">
        <ele>606</ele>
        <time>2021-08-05T11:51:18.776Z</time>
      </trkpt>
      <trkpt lat="46.97665" lon="8.75497">
        <ele>607</ele>
        <time>2021-08-05T11:51:19.777Z</time>
      </trkpt>
      <trkpt lat="46.97665" lon="8.75498">
        <ele>608</ele>
        <time>2021-08-05T11:51:20.777Z</time>
      </trkpt>
      <trkpt lat="46.97664" lon="8.755">
        <ele>608</ele>
        <time>2021-08-05T11:51:21.776Z</time>
      </trkpt>
      <trkpt lat="46.97663" lon="8.75502">
        <ele>609</ele>
        <time>2021-08-05T11:51:22.777Z</time>
      </trkpt>
      <trkpt lat="46.97663" lon="8.75504">
        <ele>610</ele>
        <time>2021-08-05T11:51:23.777Z</time>
      </trkpt>
      <trkpt lat="46.97662" lon="8.75506">
        <ele>611</ele>
        <time>2021-08-05T11:51:24.776Z</time>
      </trkpt>
      <trkpt lat="46.97662" lon="8.75508">
        <ele>612</ele>
        <time>2021-08-05T11:51:25.777Z</time>
      </trkpt>
      <trkpt lat="46.97661" lon="8.75509">
        <ele>612</ele>
        <time>2021-08-05T11:51:26.777Z</time>
      </trkpt>
      <trkpt lat="46.97661" lon="8.75511">
        <ele>612</ele>
        <time>2021-08-05T11:51:27.777Z</time>
      </trkpt>
      <trkpt lat="46.9766" lon="8.75513">
        <ele>612</ele>
        <time>2021-08-05T11:51:28.776Z</time>
      </trkpt>
      <trkpt lat="46.9766" lon="8.75515">
        <ele>611</ele>
        <time>2021-08-05T11:51:29.777Z</time>
      </trkpt>
      <trkpt lat="46.97659" lon="8.75516">
        <ele>611</ele>
        <time>2021-08-05T11:51:30.777Z</time>
      </trkpt>
      <trkpt lat="46.97658" lon="8.75518">
        <ele>611</ele>
        <time>2021-08-05T11:51:31.777Z</time>
      </trkpt>
      <trkpt lat="46.97658" lon="8.75519">
        <ele>611</ele>
        <time>2021-08-05T11:51:32.776Z</time>
      </trkpt>
      <trkpt lat="46.97657" lon="8.75521">
        <ele>611</ele>
        <time>2021-08-05T11:51:33.777Z</time>
      </trkpt>
      <trkpt lat="46.97656" lon="8.75523">
        <ele>611</ele>
        <time>2021-08-05T11:51:34.776Z</time>
      </trkpt>
      <trkpt lat="46.97656" lon="8.75525">
        <ele>610</ele>
        <time>2021-08-05T11:51:35.777Z</time>
      </trkpt>
      <trkpt lat="46.97655" lon="8.75527">
        <ele>611</ele>
        <time>2021-08-05T11:51:36.776Z</time>
      </trkpt>
      <trkpt lat="46.97654" lon="8.75528">
        <ele>611</ele>
        <time>2021-08-05T11:51:37.777Z</time>
      </trkpt>
      <trkpt lat="46.97654" lon="8.7553">
        <ele>610</ele>
        <time>2021-08-05T11:51:38.777Z</time>
      </trkpt>
      <trkpt lat="46.97653" lon="8.75531">
        <ele>610</ele>
        <time>2021-08-05T11:51:39.777Z</time>
      </trkpt>
      <trkpt lat="46.97653" lon="8.75533">
        <ele>610</ele>
        <time>2021-08-05T11:51:40.776Z</time>
      </trkpt>
      <trkpt lat="46.97652" lon="8.75535">
        <ele>609</ele>
        <time>2021-08-05T11:51:41.777Z</time>
      </trkpt>
      <trkpt lat="46.97651" lon="8.75537">
        <ele>609</ele>
        <time>2021-08-05T11:51:42.776Z</time>
      </trkpt>
      <trkpt lat="46.97651" lon="8.75538">
        <ele>610</ele>
        <time>2021-08-05T11:51:43.776Z</time>
      </trkpt>
      <trkpt lat="46.9765" lon="8.75541">
        <ele>610</ele>
        <time>2021-08-05T11:51:44.777Z</time>
      </trkpt>
      <trkpt lat="46.97649" lon="8.75543">
        <ele>610</ele>
        <time>2021-08-05T11:51:45.777Z</time>
      </trkpt>
      <trkpt lat="46.97648" lon="8.75544">
        <ele>611</ele>
        <time>2021-08-05T11:51:46.776Z</time>
      </trkpt>
      <trkpt lat="46.97647" lon="8.75546">
        <ele>611</ele>
        <time>2021-08-05T11:51:47.776Z</time>
      </trkpt>
      <trkpt lat="46.97646" lon="8.75548">
        <ele>611</ele>
        <time>2021-08-05T11:51:48.777Z</time>
      </trkpt>
      <trkpt lat="46.97646" lon="8.7555">
        <ele>611</ele>
        <time>2021-08-05T11:51:49.776Z</time>
      </trkpt>
      <trkpt lat="46.97646" lon="8.75552">
        <ele>610</ele>
        <time>2021-08-05T11:51:50.777Z</time>
      </trkpt>
      <trkpt lat="46.97645" lon="8.75553">
        <ele>610</ele>
        <time>2021-08-05T11:51:51.777Z</time>
      </trkpt>
      <trkpt lat="46.97645" lon="8.75555">
        <ele>610</ele>
        <time>2021-08-05T11:51:52.776Z</time>
      </trkpt>
      <trkpt lat="46.97644" lon="8.75557">
        <ele>610</ele>
        <time>2021-08-05T11:51:53.777Z</time>
      </trkpt>
      <trkpt lat="46.97644" lon="8.75559">
        <ele>610</ele>
        <time>2021-08-05T11:51:54.777Z</time>
      </trkpt>
      <trkpt lat="46.97643" lon="8.75561">
        <ele>610</ele>
        <time>2021-08-05T11:51:55.777Z</time>
      </trkpt>
      <trkpt lat="46.97642" lon="8.75562">
        <ele>610</ele>
        <time>2021-08-05T11:51:56.777Z</time>
      </trkpt>
      <trkpt lat="46.97641" lon="8.75564">
        <ele>610</ele>
        <time>2021-08-05T11:51:57.776Z</time>
      </trkpt>
      <trkpt lat="46.9764" lon="8.75566">
        <ele>610</ele>
        <time>2021-08-05T11:51:58.777Z</time>
      </trkpt>
      <trkpt lat="46.97639" lon="8.75567">
        <ele>610</ele>
        <time>2021-08-05T11:51:59.777Z</time>
      </trkpt>
      <trkpt lat="46.97639" lon="8.75569">
        <ele>610</ele>
        <time>2021-08-05T11:52:00.777Z</time>
      </trkpt>
      <trkpt lat="46.97638" lon="8.7557">
        <ele>610</ele>
        <time>2021-08-05T11:52:01.776Z</time>
      </trkpt>
      <trkpt lat="46.97637" lon="8.75572">
        <ele>610</ele>
        <time>2021-08-05T11:52:02.776Z</time>
      </trkpt>
      <trkpt lat="46.97637" lon="8.75574">
        <ele>610</ele>
        <time>2021-08-05T11:52:03.777Z</time>
      </trkpt>
      <trkpt lat="46.97636" lon="8.75575">
        <ele>610</ele>
        <time>2021-08-05T11:52:04.777Z</time>
      </trkpt>
      <trkpt lat="46.97635" lon="8.75577">
        <ele>610</ele>
        <time>2021-08-05T11:52:05.777Z</time>
      </trkpt>
      <trkpt lat="46.97634" lon="8.75578">
        <ele>609</ele>
        <time>2021-08-05T11:52:06.777Z</time>
      </trkpt>
      <trkpt lat="46.97633" lon="8.7558">
        <ele>609</ele>
        <time>2021-08-05T11:52:07.777Z</time>
      </trkpt>
      <trkpt lat="46.97632" lon="8.75581">
        <ele>609</ele>
        <time>2021-08-05T11:52:08.777Z</time>
      </trkpt>
      <trkpt lat="46.97631" lon="8.75583">
        <ele>610</ele>
        <time>2021-08-05T11:52:09.777Z</time>
      </trkpt>
      <trkpt lat="46.97631" lon="8.75585">
        <ele>610</ele>
        <time>2021-08-05T11:52:10.777Z</time>
      </trkpt>
      <trkpt lat="46.9763" lon="8.75587">
        <ele>610</ele>
        <time>2021-08-05T11:52:11.776Z</time>
      </trkpt>
      <trkpt lat="46.9763" lon="8.75589">
        <ele>610</ele>
        <time>2021-08-05T11:52:12.776Z</time>
      </trkpt>
      <trkpt lat="46.97629" lon="8.75591">
        <ele>610</ele>
        <time>2021-08-05T11:52:13.777Z</time>
      </trkpt>
      <trkpt lat="46.97629" lon="8.75593">
        <ele>610</ele>
        <time>2021-08-05T11:52:14.777Z</time>
      </trkpt>
      <trkpt lat="46.97628" lon="8.75595">
        <ele>610</ele>
        <time>2021-08-05T11:52:15.776Z</time>
      </trkpt>
      <trkpt lat="46.97628" lon="8.75596">
        <ele>610</ele>
        <time>2021-08-05T11:52:16.776Z</time>
      </trkpt>
      <trkpt lat="46.97627" lon="8.75598">
        <ele>610</ele>
        <time>2021-08-05T11:52:17.776Z</time>
      </trkpt>
      <trkpt lat="46.97627" lon="8.75599">
        <ele>610</ele>
        <time>2021-08-05T11:52:18.777Z</time>
      </trkpt>
      <trkpt lat="46.97626" lon="8.75601">
        <ele>610</ele>
        <time>2021-08-05T11:52:19.777Z</time>
      </trkpt>
      <trkpt lat="46.97625" lon="8.75603">
        <ele>610</ele>
        <time>2021-08-05T11:52:20.777Z</time>
      </trkpt>
      <trkpt lat="46.97625" lon="8.75605">
        <ele>610</ele>
        <time>2021-08-05T11:52:21.776Z</time>
      </trkpt>
      <trkpt lat="46.97624" lon="8.75606">
        <ele>611</ele>
        <time>2021-08-05T11:52:22.776Z</time>
      </trkpt>
      <trkpt lat="46.97623" lon="8.75608">
        <ele>611</ele>
        <time>2021-08-05T11:52:23.777Z</time>
      </trkpt>
      <trkpt lat="46.97623" lon="8.75609">
        <ele>610</ele>
        <time>2021-08-05T11:52:24.776Z</time>
      </trkpt>
      <trkpt lat="46.97622" lon="8.75611">
        <ele>610</ele>
        <time>2021-08-05T11:52:25.776Z</time>
      </trkpt>
      <trkpt lat="46.97621" lon="8.75613">
        <ele>610</ele>
        <time>2021-08-05T11:52:26.776Z</time>
      </trkpt>
      <trkpt lat="46.9762" lon="8.75615">
        <ele>610</ele>
        <time>2021-08-05T11:52:27.776Z</time>
      </trkpt>
      <trkpt lat="46.9762" lon="8.75617">
        <ele>610</ele>
        <time>2021-08-05T11:52:28.776Z</time>
      </trkpt>
      <trkpt lat="46.97619" lon="8.75619">
        <ele>610</ele>
        <time>2021-08-05T11:52:29.777Z</time>
      </trkpt>
      <trkpt lat="46.97619" lon="8.75621">
        <ele>611</ele>
        <time>2021-08-05T11:52:30.776Z</time>
      </trkpt>
      <trkpt lat="46.97618" lon="8.75623">
        <ele>612</ele>
        <time>2021-08-05T11:52:31.776Z</time>
      </trkpt>
      <trkpt lat="46.97617" lon="8.75624">
        <ele>612</ele>
        <time>2021-08-05T11:52:32.777Z</time>
      </trkpt>
      <trkpt lat="46.97616" lon="8.75625">
        <ele>612</ele>
        <time>2021-08-05T11:52:33.776Z</time>
      </trkpt>
      <trkpt lat="46.97616" lon="8.75627">
        <ele>612</ele>
        <time>2021-08-05T11:52:34.777Z</time>
      </trkpt>
      <trkpt lat="46.97616" lon="8.75628">
        <ele>612</ele>
        <time>2021-08-05T11:52:35.777Z</time>
      </trkpt>
      <trkpt lat="46.97615" lon="8.7563">
        <ele>612</ele>
        <time>2021-08-05T11:52:36.777Z</time>
      </trkpt>
      <trkpt lat="46.97614" lon="8.75631">
        <ele>613</ele>
        <time>2021-08-05T11:52:37.776Z</time>
      </trkpt>
      <trkpt lat="46.97614" lon="8.75633">
        <ele>613</ele>
        <time>2021-08-05T11:52:38.777Z</time>
      </trkpt>
      <trkpt lat="46.97613" lon="8.75635">
        <ele>613</ele>
        <time>2021-08-05T11:52:39.777Z</time>
      </trkpt>
      <trkpt lat="46.97612" lon="8.75637">
        <ele>614</ele>
        <time>2021-08-05T11:52:42.901Z</time>
      </trkpt>
      <trkpt lat="46.97611" lon="8.75639">
        <ele>614</ele>
        <time>2021-08-05T11:52:43.901Z</time>
      </trkpt>
      <trkpt lat="46.9761" lon="8.75641">
        <ele>614</ele>
        <time>2021-08-05T11:52:44.901Z</time>
      </trkpt>
      <trkpt lat="46.9761" lon="8.75642">
        <ele>614</ele>
        <time>2021-08-05T11:52:45.901Z</time>
      </trkpt>
      <trkpt lat="46.97609" lon="8.75643">
        <ele>615</ele>
        <time>2021-08-05T11:52:46.901Z</time>
      </trkpt>
      <trkpt lat="46.97609" lon="8.75644">
        <ele>615</ele>
        <time>2021-08-05T11:52:47.901Z</time>
      </trkpt>
      <trkpt lat="46.97608" lon="8.75646">
        <ele>615</ele>
        <time>2021-08-05T11:52:48.902Z</time>
      </trkpt>
      <trkpt lat="46.97608" lon="8.75647">
        <ele>615</ele>
        <time>2021-08-05T11:52:49.901Z</time>
      </trkpt>
      <trkpt lat="46.97608" lon="8.75649">
        <ele>615</ele>
        <time>2021-08-05T11:52:50.902Z</time>
      </trkpt>
      <trkpt lat="46.97607" lon="8.75651">
        <ele>615</ele>
        <time>2021-08-05T11:52:51.902Z</time>
      </trkpt>
      <trkpt lat="46.97607" lon="8.75652">
        <ele>615</ele>
        <time>2021-08-05T11:52:52.902Z</time>
      </trkpt>
      <trkpt lat="46.97605" lon="8.75655">
        <ele>615</ele>
        <time>2021-08-05T11:52:53.901Z</time>
      </trkpt>
      <trkpt lat="46.97604" lon="8.75657">
        <ele>615</ele>
        <time>2021-08-05T11:52:54.901Z</time>
      </trkpt>
      <trkpt lat="46.97603" lon="8.75659">
        <ele>614</ele>
        <time>2021-08-05T11:52:55.902Z</time>
      </trkpt>
      <trkpt lat="46.97603" lon="8.7566">
        <ele>614</ele>
        <time>2021-08-05T11:52:56.901Z</time>
      </trkpt>
      <trkpt lat="46.97602" lon="8.75661">
        <ele>614</ele>
        <time>2021-08-05T11:52:57.902Z</time>
      </trkpt>
      <trkpt lat="46.97602" lon="8.75662">
        <ele>614</ele>
        <time>2021-08-05T11:52:58.901Z</time>
      </trkpt>
      <trkpt lat="46.97601" lon="8.75663">
        <ele>614</ele>
        <time>2021-08-05T11:52:59.902Z</time>
      </trkpt>
      <trkpt lat="46.97599" lon="8.75663">
        <ele>613</ele>
        <time>2021-08-05T11:53:00.902Z</time>
      </trkpt>
      <trkpt lat="46.97598" lon="8.75663">
        <ele>613</ele>
        <time>2021-08-05T11:53:01.902Z</time>
      </trkpt>
      <trkpt lat="46.97597" lon="8.75664">
        <ele>613</ele>
        <time>2021-08-05T11:53:02.902Z</time>
      </trkpt>
      <trkpt lat="46.97596" lon="8.75665">
        <ele>613</ele>
        <time>2021-08-05T11:53:03.902Z</time>
      </trkpt>
      <trkpt lat="46.97596" lon="8.75665">
        <ele>614</ele>
        <time>2021-08-05T11:53:04.901Z</time>
      </trkpt>
      <trkpt lat="46.97595" lon="8.75666">
        <ele>614</ele>
        <time>2021-08-05T11:53:05.902Z</time>
      </trkpt>
      <trkpt lat="46.97594" lon="8.75667">
        <ele>614</ele>
        <time>2021-08-05T11:53:06.902Z</time>
      </trkpt>
      <trkpt lat="46.97594" lon="8.75668">
        <ele>614</ele>
        <time>2021-08-05T11:53:07.902Z</time>
      </trkpt>
      <trkpt lat="46.97593" lon="8.75669">
        <ele>614</ele>
        <time>2021-08-05T11:53:08.902Z</time>
      </trkpt>
      <trkpt lat="46.97592" lon="8.75669">
        <ele>615</ele>
        <time>2021-08-05T11:53:09.901Z</time>
      </trkpt>
      <trkpt lat="46.97591" lon="8.7567">
        <ele>615</ele>
        <time>2021-08-05T11:53:10.902Z</time>
      </trkpt>
      <trkpt lat="46.9759" lon="8.75671">
        <ele>615</ele>
        <time>2021-08-05T11:53:11.901Z</time>
      </trkpt>
      <trkpt lat="46.9759" lon="8.75669">
        <ele>614</ele>
        <time>2021-08-05T11:53:12.902Z</time>
      </trkpt>
      <trkpt lat="46.9759" lon="8.75666">
        <ele>614</ele>
        <time>2021-08-05T11:53:13.902Z</time>
      </trkpt>
      <trkpt lat="46.97588" lon="8.75666">
        <ele>614</ele>
        <time>2021-08-05T11:53:14.903Z</time>
      </trkpt>
      <trkpt lat="46.97588" lon="8.75666">
        <ele>613</ele>
        <time>2021-08-05T11:53:15.903Z</time>
      </trkpt>
      <trkpt lat="46.97588" lon="8.75666">
        <ele>613</ele>
        <time>2021-08-05T11:53:16.902Z</time>
      </trkpt>
      <trkpt lat="46.97589" lon="8.75666">
        <ele>623</ele>
        <time>2021-08-05T11:53:17.903Z</time>
      </trkpt>
      <trkpt lat="46.97589" lon="8.75666">
        <ele>624</ele>
        <time>2021-08-05T11:53:18.903Z</time>
      </trkpt>
      <trkpt lat="46.9759" lon="8.75665">
        <ele>625</ele>
        <time>2021-08-05T11:53:19.902Z</time>
      </trkpt>
      <trkpt lat="46.9759" lon="8.75665">
        <ele>626</ele>
        <time>2021-08-05T11:53:20.903Z</time>
      </trkpt>
      <trkpt lat="46.97589" lon="8.75664">
        <ele>626</ele>
        <time>2021-08-05T11:53:21.902Z</time>
      </trkpt>
      <trkpt lat="46.97589" lon="8.75663">
        <ele>627</ele>
        <time>2021-08-05T11:53:22.902Z</time>
      </trkpt>
      <trkpt lat="46.97589" lon="8.75663">
        <ele>628</ele>
        <time>2021-08-05T11:53:23.903Z</time>
      </trkpt>
      <trkpt lat="46.97589" lon="8.75663">
        <ele>628</ele>
        <time>2021-08-05T11:53:24.903Z</time>
      </trkpt>
      <trkpt lat="46.97589" lon="8.75663">
        <ele>629</ele>
        <time>2021-08-05T11:53:25.903Z</time>
      </trkpt>
      <trkpt lat="46.97591" lon="8.75666">
        <ele>633</ele>
        <time>2021-08-05T11:53:26.903Z</time>
      </trkpt>
      <trkpt lat="46.9759" lon="8.75669">
        <ele>633</ele>
        <time>2021-08-05T11:53:27.903Z</time>
      </trkpt>
      <trkpt lat="46.9759" lon="8.75671">
        <ele>634</ele>
        <time>2021-08-05T11:53:28.902Z</time>
      </trkpt>
      <trkpt lat="46.9759" lon="8.75675">
        <ele>637</ele>
        <time>2021-08-05T11:53:29.903Z</time>
      </trkpt>
      <trkpt lat="46.9759" lon="8.75675">
        <ele>637</ele>
        <time>2021-08-05T11:53:30.902Z</time>
      </trkpt>
      <trkpt lat="46.97591" lon="8.75676">
        <ele>637</ele>
        <time>2021-08-05T11:53:31.903Z</time>
      </trkpt>
      <trkpt lat="46.9759" lon="8.75682">
        <ele>638</ele>
        <time>2021-08-05T11:53:32.903Z</time>
      </trkpt>
      <trkpt lat="46.9759" lon="8.75683">
        <ele>638</ele>
        <time>2021-08-05T11:53:33.903Z</time>
      </trkpt>
      <trkpt lat="46.9759" lon="8.75683">
        <ele>639</ele>
        <time>2021-08-05T11:53:34.902Z</time>
      </trkpt>
      <trkpt lat="46.97591" lon="8.75683">
        <ele>639</ele>
        <time>2021-08-05T11:53:35.902Z</time>
      </trkpt>
      <trkpt lat="46.97592" lon="8.75688">
        <ele>636</ele>
        <time>2021-08-05T11:53:36.903Z</time>
      </trkpt>
      <trkpt lat="46.97592" lon="8.75688">
        <ele>635</ele>
        <time>2021-08-05T11:53:37.904Z</time>
      </trkpt>
      <trkpt lat="46.97592" lon="8.7569">
        <ele>632</ele>
        <time>2021-08-05T11:53:38.905Z</time>
      </trkpt>
      <trkpt lat="46.97592" lon="8.75692">
        <ele>630</ele>
        <time>2021-08-05T11:53:39.906Z</time>
      </trkpt>
      <trkpt lat="46.97592" lon="8.75692">
        <ele>630</ele>
        <time>2021-08-05T11:53:40.906Z</time>
      </trkpt>
      <trkpt lat="46.97592" lon="8.75693">
        <ele>630</ele>
        <time>2021-08-05T11:53:41.905Z</time>
      </trkpt>
      <trkpt lat="46.97591" lon="8.75694">
        <ele>630</ele>
        <time>2021-08-05T11:53:42.905Z</time>
      </trkpt>
      <trkpt lat="46.9759" lon="8.75695">
        <ele>629</ele>
        <time>2021-08-05T11:53:43.906Z</time>
      </trkpt>
      <trkpt lat="46.9759" lon="8.75697">
        <ele>629</ele>
        <time>2021-08-05T11:53:44.906Z</time>
      </trkpt>
      <trkpt lat="46.9759" lon="8.75698">
        <ele>629</ele>
        <time>2021-08-05T11:53:45.906Z</time>
      </trkpt>
      <trkpt lat="46.9759" lon="8.75696">
        <ele>627</ele>
        <time>2021-08-05T11:53:46.905Z</time>
      </trkpt>
      <trkpt lat="46.9759" lon="8.75695">
        <ele>627</ele>
        <time>2021-08-05T11:53:47.906Z</time>
      </trkpt>
      <trkpt lat="46.9759" lon="8.75695">
        <ele>626</ele>
        <time>2021-08-05T11:53:48.905Z</time>
      </trkpt>
      <trkpt lat="46.9759" lon="8.75694">
        <ele>626</ele>
        <time>2021-08-05T11:53:49.905Z</time>
      </trkpt>
      <trkpt lat="46.9759" lon="8.75691">
        <ele>624</ele>
        <time>2021-08-05T11:53:50.906Z</time>
      </trkpt>
      <trkpt lat="46.9759" lon="8.7569">
        <ele>623</ele>
        <time>2021-08-05T11:53:51.907Z</time>
      </trkpt>
      <trkpt lat="46.9759" lon="8.75689">
        <ele>622</ele>
        <time>2021-08-05T11:53:52.906Z</time>
      </trkpt>
      <trkpt lat="46.97591" lon="8.75689">
        <ele>622</ele>
        <time>2021-08-05T11:53:53.906Z</time>
      </trkpt>
      <trkpt lat="46.97591" lon="8.75688">
        <ele>621</ele>
        <time>2021-08-05T11:53:54.906Z</time>
      </trkpt>
      <trkpt lat="46.97591" lon="8.75687">
        <ele>620</ele>
        <time>2021-08-05T11:53:55.906Z</time>
      </trkpt>
      <trkpt lat="46.97591" lon="8.75687">
        <ele>618</ele>
        <time>2021-08-05T11:53:56.907Z</time>
      </trkpt>
      <trkpt lat="46.97592" lon="8.75686">
        <ele>617</ele>
        <time>2021-08-05T11:53:57.907Z</time>
      </trkpt>
      <trkpt lat="46.97592" lon="8.75687">
        <ele>616</ele>
        <time>2021-08-05T11:53:58.906Z</time>
      </trkpt>
      <trkpt lat="46.97592" lon="8.75686">
        <ele>616</ele>
        <time>2021-08-05T11:53:59.907Z</time>
      </trkpt>
      <trkpt lat="46.97593" lon="8.75686">
        <ele>616</ele>
        <time>2021-08-05T11:54:00.906Z</time>
      </trkpt>
      <trkpt lat="46.97594" lon="8.75685">
        <ele>616</ele>
        <time>2021-08-05T11:54:01.907Z</time>
      </trkpt>
      <trkpt lat="46.97595" lon="8.75684">
        <ele>616</ele>
        <time>2021-08-05T11:54:02.907Z</time>
      </trkpt>
      <trkpt lat="46.97595" lon="8.75683">
        <ele>616</ele>
        <time>2021-08-05T11:54:03.906Z</time>
      </trkpt>
      <trkpt lat="46.97595" lon="8.75682">
        <ele>616</ele>
        <time>2021-08-05T11:54:04.907Z</time>
      </trkpt>
      <trkpt lat="46.97595" lon="8.75681">
        <ele>616</ele>
        <time>2021-08-05T11:54:05.906Z</time>
      </trkpt>
      <trkpt lat="46.97595" lon="8.75679">
        <ele>616</ele>
        <time>2021-08-05T11:54:06.907Z</time>
      </trkpt>
      <trkpt lat="46.97596" lon="8.75675">
        <ele>612</ele>
        <time>2021-08-05T11:54:07.908Z</time>
      </trkpt>
      <trkpt lat="46.97596" lon="8.75674">
        <ele>612</ele>
        <time>2021-08-05T11:54:08.908Z</time>
      </trkpt>
      <trkpt lat="46.97596" lon="8.75674">
        <ele>611</ele>
        <time>2021-08-05T11:54:09.907Z</time>
      </trkpt>
      <trkpt lat="46.97596" lon="8.75674">
        <ele>611</ele>
        <time>2021-08-05T11:54:10.907Z</time>
      </trkpt>
      <trkpt lat="46.97596" lon="8.75674">
        <ele>611</ele>
        <time>2021-08-05T11:54:11.908Z</time>
      </trkpt>
      <trkpt lat="46.97597" lon="8.75674">
        <ele>610</ele>
        <time>2021-08-05T11:54:12.907Z</time>
      </trkpt>
      <trkpt lat="46.97598" lon="8.75674">
        <ele>611</ele>
        <time>2021-08-05T11:54:13.907Z</time>
      </trkpt>
      <trkpt lat="46.97599" lon="8.75673">
        <ele>611</ele>
        <time>2021-08-05T11:54:14.907Z</time>
      </trkpt>
      <trkpt lat="46.976" lon="8.75672">
        <ele>611</ele>
        <time>2021-08-05T11:54:15.907Z</time>
      </trkpt>
      <trkpt lat="46.97604" lon="8.75672">
        <ele>612</ele>
        <time>2021-08-05T11:54:16.907Z</time>
      </trkpt>
      <trkpt lat="46.97604" lon="8.75673">
        <ele>612</ele>
        <time>2021-08-05T11:54:17.907Z</time>
      </trkpt>
      <trkpt lat="46.97603" lon="8.75673">
        <ele>613</ele>
        <time>2021-08-05T11:54:18.907Z</time>
      </trkpt>
      <trkpt lat="46.97603" lon="8.75673">
        <ele>613</ele>
        <time>2021-08-05T11:54:19.907Z</time>
      </trkpt>
      <trkpt lat="46.97603" lon="8.75672">
        <ele>614</ele>
        <time>2021-08-05T11:54:20.908Z</time>
      </trkpt>
      <trkpt lat="46.97603" lon="8.75672">
        <ele>614</ele>
        <time>2021-08-05T11:54:21.908Z</time>
      </trkpt>
      <trkpt lat="46.97604" lon="8.75671">
        <ele>614</ele>
        <time>2021-08-05T11:54:25.909Z</time>
      </trkpt>
      <trkpt lat="46.97604" lon="8.75671">
        <ele>614</ele>
        <time>2021-08-05T11:54:26.908Z</time>
      </trkpt>
      <trkpt lat="46.97604" lon="8.7567">
        <ele>614</ele>
        <time>2021-08-05T11:54:27.908Z</time>
      </trkpt>
      <trkpt lat="46.97604" lon="8.75673">
        <ele>614</ele>
        <time>2021-08-05T11:54:28.909Z</time>
      </trkpt>
      <trkpt lat="46.9759" lon="8.75659">
        <ele>613</ele>
        <time>2021-08-05T11:56:07.910Z</time>
      </trkpt>
      <trkpt lat="46.97595" lon="8.75662">
        <ele>613</ele>
        <time>2021-08-05T11:56:08.910Z</time>
      </trkpt>
      <trkpt lat="46.97596" lon="8.75664">
        <ele>612</ele>
        <time>2021-08-05T11:56:09.910Z</time>
      </trkpt>
      <trkpt lat="46.97597" lon="8.75665">
        <ele>612</ele>
        <time>2021-08-05T11:56:10.910Z</time>
      </trkpt>
      <trkpt lat="46.97598" lon="8.75665">
        <ele>611</ele>
        <time>2021-08-05T11:56:11.910Z</time>
      </trkpt>
      <trkpt lat="46.97599" lon="8.75665">
        <ele>611</ele>
        <time>2021-08-05T11:56:12.910Z</time>
      </trkpt>
      <trkpt lat="46.97599" lon="8.75665">
        <ele>611</ele>
        <time>2021-08-05T11:56:13.909Z</time>
      </trkpt>
      <trkpt lat="46.97601" lon="8.75664">
        <ele>611</ele>
        <time>2021-08-05T11:56:14.910Z</time>
      </trkpt>
      <trkpt lat="46.97601" lon="8.75664">
        <ele>611</ele>
        <time>2021-08-05T11:56:15.910Z</time>
      </trkpt>
      <trkpt lat="46.976" lon="8.75665">
        <ele>611</ele>
        <time>2021-08-05T11:56:16.910Z</time>
      </trkpt>
      <trkpt lat="46.97599" lon="8.75666">
        <ele>611</ele>
        <time>2021-08-05T11:56:17.909Z</time>
      </trkpt>
      <trkpt lat="46.97598" lon="8.75666">
        <ele>611</ele>
        <time>2021-08-05T11:56:18.910Z</time>
      </trkpt>
      <trkpt lat="46.97598" lon="8.75665">
        <ele>610</ele>
        <time>2021-08-05T11:56:19.909Z</time>
      </trkpt>
      <trkpt lat="46.97598" lon="8.75664">
        <ele>610</ele>
        <time>2021-08-05T11:56:20.909Z</time>
      </trkpt>
      <trkpt lat="46.97598" lon="8.75662">
        <ele>610</ele>
        <time>2021-08-05T11:56:21.910Z</time>
      </trkpt>
      <trkpt lat="46.97597" lon="8.75662">
        <ele>610</ele>
        <time>2021-08-05T11:56:22.910Z</time>
      </trkpt>
      <trkpt lat="46.97596" lon="8.75662">
        <ele>611</ele>
        <time>2021-08-05T11:56:23.910Z</time>
      </trkpt>
      <trkpt lat="46.97595" lon="8.75662">
        <ele>611</ele>
        <time>2021-08-05T11:56:24.910Z</time>
      </trkpt>
      <trkpt lat="46.97594" lon="8.75661">
        <ele>611</ele>
        <time>2021-08-05T11:56:25.909Z</time>
      </trkpt>
      <trkpt lat="46.97593" lon="8.7566">
        <ele>611</ele>
        <time>2021-08-05T11:56:26.910Z</time>
      </trkpt>
      <trkpt lat="46.97592" lon="8.75658">
        <ele>611</ele>
        <time>2021-08-05T11:56:27.910Z</time>
      </trkpt>
      <trkpt lat="46.97591" lon="8.75655">
        <ele>612</ele>
        <time>2021-08-05T11:56:28.910Z</time>
      </trkpt>
      <trkpt lat="46.97588" lon="8.75657">
        <ele>617</ele>
        <time>2021-08-05T11:56:29.909Z</time>
      </trkpt>
      <trkpt lat="46.97588" lon="8.75657">
        <ele>618</ele>
        <time>2021-08-05T11:56:30.909Z</time>
      </trkpt>
      <trkpt lat="46.97586" lon="8.75657">
        <ele>619</ele>
        <time>2021-08-05T11:56:31.909Z</time>
      </trkpt>
      <trkpt lat="46.97585" lon="8.75657">
        <ele>619</ele>
        <time>2021-08-05T11:56:32.909Z</time>
      </trkpt>
      <trkpt lat="46.97584" lon="8.75656">
        <ele>620</ele>
        <time>2021-08-05T11:56:33.909Z</time>
      </trkpt>
      <trkpt lat="46.97583" lon="8.75656">
        <ele>620</ele>
        <time>2021-08-05T11:56:34.909Z</time>
      </trkpt>
      <trkpt lat="46.97582" lon="8.75656">
        <ele>621</ele>
        <time>2021-08-05T11:56:35.909Z</time>
      </trkpt>
      <trkpt lat="46.97581" lon="8.75656">
        <ele>621</ele>
        <time>2021-08-05T11:56:36.909Z</time>
      </trkpt>
      <trkpt lat="46.9758" lon="8.75656">
        <ele>620</ele>
        <time>2021-08-05T11:56:37.909Z</time>
      </trkpt>
      <trkpt lat="46.9758" lon="8.75656">
        <ele>620</ele>
        <time>2021-08-05T11:56:38.909Z</time>
      </trkpt>
      <trkpt lat="46.97579" lon="8.75656">
        <ele>619</ele>
        <time>2021-08-05T11:56:39.909Z</time>
      </trkpt>
      <trkpt lat="46.97578" lon="8.75656">
        <ele>619</ele>
        <time>2021-08-05T11:56:40.909Z</time>
      </trkpt>
      <trkpt lat="46.97576" lon="8.75656">
        <ele>619</ele>
        <time>2021-08-05T11:56:41.909Z</time>
      </trkpt>
      <trkpt lat="46.97575" lon="8.75656">
        <ele>618</ele>
        <time>2021-08-05T11:56:42.909Z</time>
      </trkpt>
      <trkpt lat="46.97573" lon="8.75655">
        <ele>618</ele>
        <time>2021-08-05T11:56:43.909Z</time>
      </trkpt>
      <trkpt lat="46.97572" lon="8.75655">
        <ele>617</ele>
        <time>2021-08-05T11:56:44.909Z</time>
      </trkpt>
      <trkpt lat="46.97571" lon="8.75655">
        <ele>617</ele>
        <time>2021-08-05T11:56:45.909Z</time>
      </trkpt>
      <trkpt lat="46.9757" lon="8.75654">
        <ele>617</ele>
        <time>2021-08-05T11:56:46.909Z</time>
      </trkpt>
      <trkpt lat="46.97569" lon="8.75653">
        <ele>617</ele>
        <time>2021-08-05T11:56:47.909Z</time>
      </trkpt>
      <trkpt lat="46.97568" lon="8.75654">
        <ele>616</ele>
        <time>2021-08-05T11:56:48.909Z</time>
      </trkpt>
      <trkpt lat="46.97567" lon="8.75655">
        <ele>616</ele>
        <time>2021-08-05T11:56:49.909Z</time>
      </trkpt>
      <trkpt lat="46.97567" lon="8.75655">
        <ele>616</ele>
        <time>2021-08-05T11:56:50.909Z</time>
      </trkpt>
      <trkpt lat="46.97566" lon="8.75656">
        <ele>616</ele>
        <time>2021-08-05T11:56:51.909Z</time>
      </trkpt>
      <trkpt lat="46.97565" lon="8.75657">
        <ele>615</ele>
        <time>2021-08-05T11:56:52.909Z</time>
      </trkpt>
      <trkpt lat="46.97565" lon="8.75658">
        <ele>615</ele>
        <time>2021-08-05T11:56:53.909Z</time>
      </trkpt>
      <trkpt lat="46.97564" lon="8.75659">
        <ele>615</ele>
        <time>2021-08-05T11:56:54.909Z</time>
      </trkpt>
      <trkpt lat="46.97563" lon="8.7566">
        <ele>615</ele>
        <time>2021-08-05T11:56:55.909Z</time>
      </trkpt>
      <trkpt lat="46.97562" lon="8.7566">
        <ele>615</ele>
        <time>2021-08-05T11:56:56.909Z</time>
      </trkpt>
      <trkpt lat="46.97561" lon="8.7566">
        <ele>615</ele>
        <time>2021-08-05T11:56:57.909Z</time>
      </trkpt>
      <trkpt lat="46.9756" lon="8.7566">
        <ele>616</ele>
        <time>2021-08-05T11:56:58.909Z</time>
      </trkpt>
      <trkpt lat="46.97559" lon="8.75659">
        <ele>616</ele>
        <time>2021-08-05T11:56:59.909Z</time>
      </trkpt>
      <trkpt lat="46.97558" lon="8.75659">
        <ele>616</ele>
        <time>2021-08-05T11:57:00.909Z</time>
      </trkpt>
      <trkpt lat="46.97557" lon="8.75659">
        <ele>616</ele>
        <time>2021-08-05T11:57:01.909Z</time>
      </trkpt>
      <trkpt lat="46.97556" lon="8.75659">
        <ele>616</ele>
        <time>2021-08-05T11:57:02.909Z</time>
      </trkpt>
      <trkpt lat="46.97555" lon="8.75659">
        <ele>616</ele>
        <time>2021-08-05T11:57:03.909Z</time>
      </trkpt>
      <trkpt lat="46.97554" lon="8.7566">
        <ele>616</ele>
        <time>2021-08-05T11:57:04.909Z</time>
      </trkpt>
      <trkpt lat="46.97553" lon="8.7566">
        <ele>617</ele>
        <time>2021-08-05T11:57:05.909Z</time>
      </trkpt>
      <trkpt lat="46.97552" lon="8.75661">
        <ele>617</ele>
        <time>2021-08-05T11:57:06.909Z</time>
      </trkpt>
      <trkpt lat="46.97551" lon="8.75662">
        <ele>617</ele>
        <time>2021-08-05T11:57:07.909Z</time>
      </trkpt>
      <trkpt lat="46.9755" lon="8.75662">
        <ele>618</ele>
        <time>2021-08-05T11:57:08.909Z</time>
      </trkpt>
      <trkpt lat="46.97549" lon="8.75662">
        <ele>619</ele>
        <time>2021-08-05T11:57:09.909Z</time>
      </trkpt>
      <trkpt lat="46.97548" lon="8.75663">
        <ele>619</ele>
        <time>2021-08-05T11:57:10.909Z</time>
      </trkpt>
      <trkpt lat="46.97546" lon="8.75665">
        <ele>619</ele>
        <time>2021-08-05T11:57:11.909Z</time>
      </trkpt>
      <trkpt lat="46.97545" lon="8.75665">
        <ele>620</ele>
        <time>2021-08-05T11:57:12.909Z</time>
      </trkpt>
      <trkpt lat="46.97544" lon="8.75666">
        <ele>621</ele>
        <time>2021-08-05T11:57:13.909Z</time>
      </trkpt>
      <trkpt lat="46.97543" lon="8.75666">
        <ele>621</ele>
        <time>2021-08-05T11:57:14.909Z</time>
      </trkpt>
      <trkpt lat="46.97543" lon="8.75665">
        <ele>621</ele>
        <time>2021-08-05T11:57:15.909Z</time>
      </trkpt>
      <trkpt lat="46.97542" lon="8.75665">
        <ele>622</ele>
        <time>2021-08-05T11:57:16.909Z</time>
      </trkpt>
      <trkpt lat="46.97541" lon="8.75665">
        <ele>622</ele>
        <time>2021-08-05T11:57:17.909Z</time>
      </trkpt>
      <trkpt lat="46.9754" lon="8.75666">
        <ele>622</ele>
        <time>2021-08-05T11:57:18.909Z</time>
      </trkpt>
      <trkpt lat="46.97538" lon="8.75667">
        <ele>622</ele>
        <time>2021-08-05T11:57:19.909Z</time>
      </trkpt>
      <trkpt lat="46.97536" lon="8.75667">
        <ele>622</ele>
        <time>2021-08-05T11:57:20.909Z</time>
      </trkpt>
      <trkpt lat="46.97535" lon="8.75668">
        <ele>622</ele>
        <time>2021-08-05T11:57:21.909Z</time>
      </trkpt>
      <trkpt lat="46.97534" lon="8.75669">
        <ele>622</ele>
        <time>2021-08-05T11:57:22.909Z</time>
      </trkpt>
      <trkpt lat="46.97533" lon="8.7567">
        <ele>622</ele>
        <time>2021-08-05T11:57:23.909Z</time>
      </trkpt>
      <trkpt lat="46.97532" lon="8.75671">
        <ele>622</ele>
        <time>2021-08-05T11:57:24.909Z</time>
      </trkpt>
      <trkpt lat="46.97531" lon="8.75671">
        <ele>622</ele>
        <time>2021-08-05T11:57:25.909Z</time>
      </trkpt>
      <trkpt lat="46.9753" lon="8.75672">
        <ele>621</ele>
        <time>2021-08-05T11:57:26.909Z</time>
      </trkpt>
      <trkpt lat="46.97529" lon="8.75672">
        <ele>621</ele>
        <time>2021-08-05T11:57:27.909Z</time>
      </trkpt>
      <trkpt lat="46.97529" lon="8.75672">
        <ele>621</ele>
        <time>2021-08-05T11:57:28.909Z</time>
      </trkpt>
      <trkpt lat="46.97529" lon="8.75672">
        <ele>620</ele>
        <time>2021-08-05T11:57:29.909Z</time>
      </trkpt>
      <trkpt lat="46.97528" lon="8.75673">
        <ele>620</ele>
        <time>2021-08-05T11:57:30.909Z</time>
      </trkpt>
      <trkpt lat="46.9753" lon="8.75676">
        <ele>619</ele>
        <time>2021-08-05T11:57:31.909Z</time>
      </trkpt>
      <trkpt lat="46.97531" lon="8.75677">
        <ele>619</ele>
        <time>2021-08-05T11:57:32.909Z</time>
      </trkpt>
      <trkpt lat="46.97558" lon="8.75684">
        <ele>619</ele>
        <time>2021-08-05T12:10:33.473Z</time>
      </trkpt>
      <trkpt lat="46.97569" lon="8.75679">
        <ele>620</ele>
        <time>2021-08-05T12:10:34.473Z</time>
      </trkpt>
      <trkpt lat="46.97572" lon="8.75677">
        <ele>620</ele>
        <time>2021-08-05T12:10:35.473Z</time>
      </trkpt>
      <trkpt lat="46.9757" lon="8.75678">
        <ele>621</ele>
        <time>2021-08-05T12:10:36.473Z</time>
      </trkpt>
      <trkpt lat="46.97569" lon="8.75678">
        <ele>622</ele>
        <time>2021-08-05T12:10:37.473Z</time>
      </trkpt>
      <trkpt lat="46.97561" lon="8.75681">
        <ele>622</ele>
        <time>2021-08-05T12:10:38.473Z</time>
      </trkpt>
      <trkpt lat="46.97558" lon="8.75681">
        <ele>621</ele>
        <time>2021-08-05T12:10:39.473Z</time>
      </trkpt>
      <trkpt lat="46.97558" lon="8.7568">
        <ele>621</ele>
        <time>2021-08-05T12:10:40.473Z</time>
      </trkpt>
      <trkpt lat="46.97559" lon="8.75679">
        <ele>621</ele>
        <time>2021-08-05T12:10:41.473Z</time>
      </trkpt>
      <trkpt lat="46.97559" lon="8.75679">
        <ele>620</ele>
        <time>2021-08-05T12:10:42.473Z</time>
      </trkpt>
      <trkpt lat="46.97558" lon="8.75676">
        <ele>620</ele>
        <time>2021-08-05T12:10:43.473Z</time>
      </trkpt>
      <trkpt lat="46.97557" lon="8.75674">
        <ele>620</ele>
        <time>2021-08-05T12:10:44.473Z</time>
      </trkpt>
      <trkpt lat="46.97557" lon="8.75674">
        <ele>620</ele>
        <time>2021-08-05T12:10:45.473Z</time>
      </trkpt>
      <trkpt lat="46.97558" lon="8.75672">
        <ele>620</ele>
        <time>2021-08-05T12:10:46.473Z</time>
      </trkpt>
      <trkpt lat="46.97558" lon="8.7567">
        <ele>620</ele>
        <time>2021-08-05T12:10:47.473Z</time>
      </trkpt>
      <trkpt lat="46.97559" lon="8.75668">
        <ele>619</ele>
        <time>2021-08-05T12:10:48.473Z</time>
      </trkpt>
      <trkpt lat="46.97559" lon="8.75666">
        <ele>619</ele>
        <time>2021-08-05T12:10:49.473Z</time>
      </trkpt>
      <trkpt lat="46.9756" lon="8.75665">
        <ele>619</ele>
        <time>2021-08-05T12:10:50.473Z</time>
      </trkpt>
      <trkpt lat="46.9756" lon="8.75664">
        <ele>618</ele>
        <time>2021-08-05T12:10:51.473Z</time>
      </trkpt>
      <trkpt lat="46.97561" lon="8.75662">
        <ele>618</ele>
        <time>2021-08-05T12:10:52.473Z</time>
      </trkpt>
      <trkpt lat="46.97561" lon="8.75663">
        <ele>617</ele>
        <time>2021-08-05T12:10:53.473Z</time>
      </trkpt>
      <trkpt lat="46.97562" lon="8.75664">
        <ele>616</ele>
        <time>2021-08-05T12:10:54.473Z</time>
      </trkpt>
      <trkpt lat="46.97563" lon="8.75663">
        <ele>614</ele>
        <time>2021-08-05T12:10:55.473Z</time>
      </trkpt>
      <trkpt lat="46.97563" lon="8.75663">
        <ele>613</ele>
        <time>2021-08-05T12:10:56.473Z</time>
      </trkpt>
      <trkpt lat="46.97564" lon="8.75663">
        <ele>613</ele>
        <time>2021-08-05T12:10:57.473Z</time>
      </trkpt>
      <trkpt lat="46.97566" lon="8.75662">
        <ele>612</ele>
        <time>2021-08-05T12:10:58.474Z</time>
      </trkpt>
      <trkpt lat="46.97567" lon="8.75662">
        <ele>612</ele>
        <time>2021-08-05T12:10:59.474Z</time>
      </trkpt>
      <trkpt lat="46.97568" lon="8.75661">
        <ele>612</ele>
        <time>2021-08-05T12:11:00.473Z</time>
      </trkpt>
      <trkpt lat="46.97568" lon="8.7566">
        <ele>612</ele>
        <time>2021-08-05T12:11:01.474Z</time>
      </trkpt>
      <trkpt lat="46.97569" lon="8.7566">
        <ele>612</ele>
        <time>2021-08-05T12:11:02.474Z</time>
      </trkpt>
      <trkpt lat="46.9757" lon="8.75659">
        <ele>611</ele>
        <time>2021-08-05T12:11:03.474Z</time>
      </trkpt>
      <trkpt lat="46.97571" lon="8.7566">
        <ele>612</ele>
        <time>2021-08-05T12:11:04.473Z</time>
      </trkpt>
      <trkpt lat="46.97572" lon="8.75659">
        <ele>612</ele>
        <time>2021-08-05T12:11:05.474Z</time>
      </trkpt>
      <trkpt lat="46.97573" lon="8.75658">
        <ele>612</ele>
        <time>2021-08-05T12:11:06.473Z</time>
      </trkpt>
      <trkpt lat="46.97573" lon="8.75659">
        <ele>612</ele>
        <time>2021-08-05T12:11:07.474Z</time>
      </trkpt>
      <trkpt lat="46.97574" lon="8.75661">
        <ele>612</ele>
        <time>2021-08-05T12:11:08.474Z</time>
      </trkpt>
      <trkpt lat="46.97576" lon="8.75662">
        <ele>612</ele>
        <time>2021-08-05T12:11:09.474Z</time>
      </trkpt>
      <trkpt lat="46.97577" lon="8.75663">
        <ele>612</ele>
        <time>2021-08-05T12:11:10.474Z</time>
      </trkpt>
      <trkpt lat="46.97578" lon="8.75662">
        <ele>611</ele>
        <time>2021-08-05T12:11:11.473Z</time>
      </trkpt>
      <trkpt lat="46.97579" lon="8.75662">
        <ele>611</ele>
        <time>2021-08-05T12:11:12.474Z</time>
      </trkpt>
      <trkpt lat="46.9758" lon="8.75661">
        <ele>611</ele>
        <time>2021-08-05T12:11:13.474Z</time>
      </trkpt>
      <trkpt lat="46.97581" lon="8.75661">
        <ele>611</ele>
        <time>2021-08-05T12:11:14.473Z</time>
      </trkpt>
      <trkpt lat="46.97583" lon="8.75661">
        <ele>612</ele>
        <time>2021-08-05T12:11:15.473Z</time>
      </trkpt>
      <trkpt lat="46.97584" lon="8.75661">
        <ele>612</ele>
        <time>2021-08-05T12:11:16.474Z</time>
      </trkpt>
      <trkpt lat="46.97585" lon="8.75662">
        <ele>613</ele>
        <time>2021-08-05T12:11:17.474Z</time>
      </trkpt>
      <trkpt lat="46.97585" lon="8.75663">
        <ele>613</ele>
        <time>2021-08-05T12:11:18.474Z</time>
      </trkpt>
      <trkpt lat="46.97586" lon="8.75664">
        <ele>613</ele>
        <time>2021-08-05T12:11:19.474Z</time>
      </trkpt>
      <trkpt lat="46.97587" lon="8.75665">
        <ele>614</ele>
        <time>2021-08-05T12:11:20.474Z</time>
      </trkpt>
      <trkpt lat="46.97588" lon="8.75667">
        <ele>614</ele>
        <time>2021-08-05T12:11:21.474Z</time>
      </trkpt>
      <trkpt lat="46.97589" lon="8.75668">
        <ele>615</ele>
        <time>2021-08-05T12:11:22.474Z</time>
      </trkpt>
      <trkpt lat="46.9759" lon="8.7567">
        <ele>615</ele>
        <time>2021-08-05T12:11:23.474Z</time>
      </trkpt>
      <trkpt lat="46.9759" lon="8.75671">
        <ele>616</ele>
        <time>2021-08-05T12:11:24.474Z</time>
      </trkpt>
      <trkpt lat="46.9759" lon="8.75673">
        <ele>617</ele>
        <time>2021-08-05T12:11:25.473Z</time>
      </trkpt>
      <trkpt lat="46.9759" lon="8.75675">
        <ele>617</ele>
        <time>2021-08-05T12:11:26.473Z</time>
      </trkpt>
      <trkpt lat="46.9759" lon="8.75676">
        <ele>616</ele>
        <time>2021-08-05T12:11:27.473Z</time>
      </trkpt>
      <trkpt lat="46.9759" lon="8.75676">
        <ele>616</ele>
        <time>2021-08-05T12:11:28.473Z</time>
      </trkpt>
      <trkpt lat="46.97591" lon="8.75676">
        <ele>616</ele>
        <time>2021-08-05T12:11:29.474Z</time>
      </trkpt>
      <trkpt lat="46.9759" lon="8.75675">
        <ele>616</ele>
        <time>2021-08-05T12:11:30.474Z</time>
      </trkpt>
      <trkpt lat="46.97589" lon="8.75677">
        <ele>611</ele>
        <time>2021-08-05T12:11:31.475Z</time>
      </trkpt>
      <trkpt lat="46.97589" lon="8.75679">
        <ele>610</ele>
        <time>2021-08-05T12:11:32.475Z</time>
      </trkpt>
      <trkpt lat="46.9759" lon="8.75681">
        <ele>609</ele>
        <time>2021-08-05T12:11:33.474Z</time>
      </trkpt>
      <trkpt lat="46.9759" lon="8.75683">
        <ele>609</ele>
        <time>2021-08-05T12:11:34.475Z</time>
      </trkpt>
      <trkpt lat="46.9759" lon="8.75685">
        <ele>609</ele>
        <time>2021-08-05T12:11:35.475Z</time>
      </trkpt>
      <trkpt lat="46.9759" lon="8.75687">
        <ele>609</ele>
        <time>2021-08-05T12:11:36.475Z</time>
      </trkpt>
      <trkpt lat="46.9759" lon="8.7569">
        <ele>609</ele>
        <time>2021-08-05T12:11:37.475Z</time>
      </trkpt>
      <trkpt lat="46.9759" lon="8.75691">
        <ele>610</ele>
        <time>2021-08-05T12:11:38.475Z</time>
      </trkpt>
      <trkpt lat="46.9759" lon="8.75694">
        <ele>611</ele>
        <time>2021-08-05T12:11:39.475Z</time>
      </trkpt>
      <trkpt lat="46.9759" lon="8.75695">
        <ele>611</ele>
        <time>2021-08-05T12:11:40.475Z</time>
      </trkpt>
      <trkpt lat="46.9759" lon="8.75698">
        <ele>612</ele>
        <time>2021-08-05T12:11:41.475Z</time>
      </trkpt>
      <trkpt lat="46.9759" lon="8.75699">
        <ele>612</ele>
        <time>2021-08-05T12:11:42.475Z</time>
      </trkpt>
      <trkpt lat="46.9759" lon="8.757">
        <ele>612</ele>
        <time>2021-08-05T12:11:43.475Z</time>
      </trkpt>
      <trkpt lat="46.9759" lon="8.75701">
        <ele>612</ele>
        <time>2021-08-05T12:11:44.475Z</time>
      </trkpt>
      <trkpt lat="46.9759" lon="8.75701">
        <ele>612</ele>
        <time>2021-08-05T12:11:45.475Z</time>
      </trkpt>
      <trkpt lat="46.9759" lon="8.75702">
        <ele>611</ele>
        <time>2021-08-05T12:11:46.474Z</time>
      </trkpt>
      <trkpt lat="46.9759" lon="8.75704">
        <ele>611</ele>
        <time>2021-08-05T12:11:47.475Z</time>
      </trkpt>
      <trkpt lat="46.97589" lon="8.75704">
        <ele>610</ele>
        <time>2021-08-05T12:11:48.475Z</time>
      </trkpt>
      <trkpt lat="46.97589" lon="8.75705">
        <ele>610</ele>
        <time>2021-08-05T12:11:49.474Z</time>
      </trkpt>
      <trkpt lat="46.97588" lon="8.75707">
        <ele>610</ele>
        <time>2021-08-05T12:11:50.475Z</time>
      </trkpt>
      <trkpt lat="46.97588" lon="8.75708">
        <ele>610</ele>
        <time>2021-08-05T12:11:51.474Z</time>
      </trkpt>
      <trkpt lat="46.97587" lon="8.75709">
        <ele>610</ele>
        <time>2021-08-05T12:11:52.475Z</time>
      </trkpt>
      <trkpt lat="46.97587" lon="8.7571">
        <ele>610</ele>
        <time>2021-08-05T12:11:53.475Z</time>
      </trkpt>
      <trkpt lat="46.97586" lon="8.75711">
        <ele>611</ele>
        <time>2021-08-05T12:11:54.475Z</time>
      </trkpt>
      <trkpt lat="46.97586" lon="8.75712">
        <ele>611</ele>
        <time>2021-08-05T12:11:55.475Z</time>
      </trkpt>
      <trkpt lat="46.97585" lon="8.75713">
        <ele>612</ele>
        <time>2021-08-05T12:11:56.474Z</time>
      </trkpt>
      <trkpt lat="46.97584" lon="8.75714">
        <ele>612</ele>
        <time>2021-08-05T12:11:57.475Z</time>
      </trkpt>
      <trkpt lat="46.97584" lon="8.75715">
        <ele>613</ele>
        <time>2021-08-05T12:11:58.474Z</time>
      </trkpt>
      <trkpt lat="46.97583" lon="8.75716">
        <ele>614</ele>
        <time>2021-08-05T12:11:59.474Z</time>
      </trkpt>
      <trkpt lat="46.97583" lon="8.75717">
        <ele>614</ele>
        <time>2021-08-05T12:12:00.474Z</time>
      </trkpt>
      <trkpt lat="46.97582" lon="8.75719">
        <ele>614</ele>
        <time>2021-08-05T12:12:01.475Z</time>
      </trkpt>
      <trkpt lat="46.97582" lon="8.75719">
        <ele>614</ele>
        <time>2021-08-05T12:12:04.554Z</time>
      </trkpt>
      <trkpt lat="46.97581" lon="8.75721">
        <ele>613</ele>
        <time>2021-08-05T12:12:05.555Z</time>
      </trkpt>
      <trkpt lat="46.97581" lon="8.75721">
        <ele>613</ele>
        <time>2021-08-05T12:12:06.554Z</time>
      </trkpt>
      <trkpt lat="46.9758" lon="8.75722">
        <ele>613</ele>
        <time>2021-08-05T12:12:07.554Z</time>
      </trkpt>
      <trkpt lat="46.9758" lon="8.75724">
        <ele>613</ele>
        <time>2021-08-05T12:12:08.554Z</time>
      </trkpt>
      <trkpt lat="46.97579" lon="8.75726">
        <ele>613</ele>
        <time>2021-08-05T12:12:09.555Z</time>
      </trkpt>
      <trkpt lat="46.97579" lon="8.75727">
        <ele>613</ele>
        <time>2021-08-05T12:12:10.555Z</time>
      </trkpt>
      <trkpt lat="46.97578" lon="8.75729">
        <ele>613</ele>
        <time>2021-08-05T12:12:11.555Z</time>
      </trkpt>
      <trkpt lat="46.97578" lon="8.7573">
        <ele>612</ele>
        <time>2021-08-05T12:12:12.555Z</time>
      </trkpt>
      <trkpt lat="46.97578" lon="8.75731">
        <ele>612</ele>
        <time>2021-08-05T12:12:13.555Z</time>
      </trkpt>
      <trkpt lat="46.97578" lon="8.75732">
        <ele>612</ele>
        <time>2021-08-05T12:12:14.554Z</time>
      </trkpt>
      <trkpt lat="46.97578" lon="8.75733">
        <ele>612</ele>
        <time>2021-08-05T12:12:15.554Z</time>
      </trkpt>
      <trkpt lat="46.97578" lon="8.75735">
        <ele>612</ele>
        <time>2021-08-05T12:12:16.554Z</time>
      </trkpt>
      <trkpt lat="46.97577" lon="8.75737">
        <ele>612</ele>
        <time>2021-08-05T12:12:17.554Z</time>
      </trkpt>
      <trkpt lat="46.97577" lon="8.75738">
        <ele>612</ele>
        <time>2021-08-05T12:12:18.555Z</time>
      </trkpt>
      <trkpt lat="46.97577" lon="8.7574">
        <ele>611</ele>
        <time>2021-08-05T12:12:19.555Z</time>
      </trkpt>
      <trkpt lat="46.97577" lon="8.7574">
        <ele>611</ele>
        <time>2021-08-05T12:12:20.555Z</time>
      </trkpt>
      <trkpt lat="46.97577" lon="8.75741">
        <ele>610</ele>
        <time>2021-08-05T12:12:21.554Z</time>
      </trkpt>
      <trkpt lat="46.97577" lon="8.75742">
        <ele>610</ele>
        <time>2021-08-05T12:12:22.555Z</time>
      </trkpt>
      <trkpt lat="46.97576" lon="8.75743">
        <ele>609</ele>
        <time>2021-08-05T12:12:23.555Z</time>
      </trkpt>
      <trkpt lat="46.97576" lon="8.75745">
        <ele>609</ele>
        <time>2021-08-05T12:12:24.554Z</time>
      </trkpt>
      <trkpt lat="46.97576" lon="8.75746">
        <ele>609</ele>
        <time>2021-08-05T12:12:25.554Z</time>
      </trkpt>
      <trkpt lat="46.97576" lon="8.75747">
        <ele>609</ele>
        <time>2021-08-05T12:12:26.555Z</time>
      </trkpt>
      <trkpt lat="46.97575" lon="8.75748">
        <ele>609</ele>
        <time>2021-08-05T12:12:27.555Z</time>
      </trkpt>
      <trkpt lat="46.97575" lon="8.7575">
        <ele>609</ele>
        <time>2021-08-05T12:12:28.555Z</time>
      </trkpt>
      <trkpt lat="46.97574" lon="8.75751">
        <ele>609</ele>
        <time>2021-08-05T12:12:29.554Z</time>
      </trkpt>
      <trkpt lat="46.97574" lon="8.75753">
        <ele>609</ele>
        <time>2021-08-05T12:12:30.554Z</time>
      </trkpt>
      <trkpt lat="46.97573" lon="8.75754">
        <ele>610</ele>
        <time>2021-08-05T12:12:31.554Z</time>
      </trkpt>
      <trkpt lat="46.97573" lon="8.75755">
        <ele>610</ele>
        <time>2021-08-05T12:12:34.677Z</time>
      </trkpt>
      <trkpt lat="46.97573" lon="8.75756">
        <ele>611</ele>
        <time>2021-08-05T12:12:35.678Z</time>
      </trkpt>
      <trkpt lat="46.97572" lon="8.75757">
        <ele>612</ele>
        <time>2021-08-05T12:12:36.678Z</time>
      </trkpt>
      <trkpt lat="46.97572" lon="8.75758">
        <ele>612</ele>
        <time>2021-08-05T12:12:37.678Z</time>
      </trkpt>
      <trkpt lat="46.97572" lon="8.75758">
        <ele>612</ele>
        <time>2021-08-05T12:12:38.678Z</time>
      </trkpt>
      <trkpt lat="46.97572" lon="8.75759">
        <ele>613</ele>
        <time>2021-08-05T12:12:39.677Z</time>
      </trkpt>
      <trkpt lat="46.97572" lon="8.7576">
        <ele>613</ele>
        <time>2021-08-05T12:12:40.677Z</time>
      </trkpt>
      <trkpt lat="46.97572" lon="8.75761">
        <ele>613</ele>
        <time>2021-08-05T12:12:41.678Z</time>
      </trkpt>
      <trkpt lat="46.97572" lon="8.75762">
        <ele>613</ele>
        <time>2021-08-05T12:12:42.677Z</time>
      </trkpt>
      <trkpt lat="46.97572" lon="8.75763">
        <ele>614</ele>
        <time>2021-08-05T12:12:43.677Z</time>
      </trkpt>
      <trkpt lat="46.97572" lon="8.75765">
        <ele>614</ele>
        <time>2021-08-05T12:12:44.678Z</time>
      </trkpt>
      <trkpt lat="46.97571" lon="8.75766">
        <ele>615</ele>
        <time>2021-08-05T12:12:45.678Z</time>
      </trkpt>
      <trkpt lat="46.97571" lon="8.75767">
        <ele>615</ele>
        <time>2021-08-05T12:12:46.677Z</time>
      </trkpt>
      <trkpt lat="46.97571" lon="8.75769">
        <ele>616</ele>
        <time>2021-08-05T12:12:47.677Z</time>
      </trkpt>
      <trkpt lat="46.97571" lon="8.75771">
        <ele>616</ele>
        <time>2021-08-05T12:12:48.678Z</time>
      </trkpt>
      <trkpt lat="46.97572" lon="8.75773">
        <ele>616</ele>
        <time>2021-08-05T12:12:49.677Z</time>
      </trkpt>
      <trkpt lat="46.97572" lon="8.75775">
        <ele>616</ele>
        <time>2021-08-05T12:12:50.678Z</time>
      </trkpt>
      <trkpt lat="46.97572" lon="8.75776">
        <ele>617</ele>
        <time>2021-08-05T12:12:51.677Z</time>
      </trkpt>
      <trkpt lat="46.97571" lon="8.75778">
        <ele>617</ele>
        <time>2021-08-05T12:12:52.677Z</time>
      </trkpt>
      <trkpt lat="46.97571" lon="8.75779">
        <ele>617</ele>
        <time>2021-08-05T12:12:53.678Z</time>
      </trkpt>
      <trkpt lat="46.9757" lon="8.75781">
        <ele>617</ele>
        <time>2021-08-05T12:12:54.677Z</time>
      </trkpt>
      <trkpt lat="46.9757" lon="8.75782">
        <ele>617</ele>
        <time>2021-08-05T12:12:55.678Z</time>
      </trkpt>
      <trkpt lat="46.9757" lon="8.75784">
        <ele>616</ele>
        <time>2021-08-05T12:12:56.677Z</time>
      </trkpt>
      <trkpt lat="46.97569" lon="8.75785">
        <ele>616</ele>
        <time>2021-08-05T12:12:57.678Z</time>
      </trkpt>
      <trkpt lat="46.97568" lon="8.75787">
        <ele>616</ele>
        <time>2021-08-05T12:12:58.677Z</time>
      </trkpt>
      <trkpt lat="46.97568" lon="8.75788">
        <ele>616</ele>
        <time>2021-08-05T12:12:59.677Z</time>
      </trkpt>
      <trkpt lat="46.97568" lon="8.75789">
        <ele>616</ele>
        <time>2021-08-05T12:13:00.677Z</time>
      </trkpt>
      <trkpt lat="46.97568" lon="8.75788">
        <ele>617</ele>
        <time>2021-08-05T12:13:01.678Z</time>
      </trkpt>
      <trkpt lat="46.97567" lon="8.75788">
        <ele>616</ele>
        <time>2021-08-05T12:13:02.678Z</time>
      </trkpt>
      <trkpt lat="46.97567" lon="8.7579">
        <ele>616</ele>
        <time>2021-08-05T12:13:03.677Z</time>
      </trkpt>
      <trkpt lat="46.97566" lon="8.75791">
        <ele>616</ele>
        <time>2021-08-05T12:13:04.677Z</time>
      </trkpt>
      <trkpt lat="46.97566" lon="8.75793">
        <ele>616</ele>
        <time>2021-08-05T12:13:05.677Z</time>
      </trkpt>
      <trkpt lat="46.97566" lon="8.75795">
        <ele>615</ele>
        <time>2021-08-05T12:13:06.678Z</time>
      </trkpt>
      <trkpt lat="46.97565" lon="8.75796">
        <ele>615</ele>
        <time>2021-08-05T12:13:07.678Z</time>
      </trkpt>
      <trkpt lat="46.97565" lon="8.75798">
        <ele>615</ele>
        <time>2021-08-05T12:13:08.678Z</time>
      </trkpt>
      <trkpt lat="46.97564" lon="8.75799">
        <ele>615</ele>
        <time>2021-08-05T12:13:09.677Z</time>
      </trkpt>
      <trkpt lat="46.97564" lon="8.75801">
        <ele>615</ele>
        <time>2021-08-05T12:13:10.678Z</time>
      </trkpt>
      <trkpt lat="46.97564" lon="8.75802">
        <ele>615</ele>
        <time>2021-08-05T12:13:11.677Z</time>
      </trkpt>
      <trkpt lat="46.97564" lon="8.75804">
        <ele>614</ele>
        <time>2021-08-05T12:13:12.677Z</time>
      </trkpt>
      <trkpt lat="46.97563" lon="8.75805">
        <ele>614</ele>
        <time>2021-08-05T12:13:13.678Z</time>
      </trkpt>
      <trkpt lat="46.97563" lon="8.75806">
        <ele>613</ele>
        <time>2021-08-05T12:13:14.677Z</time>
      </trkpt>
      <trkpt lat="46.97563" lon="8.75807">
        <ele>613</ele>
        <time>2021-08-05T12:13:15.677Z</time>
      </trkpt>
      <trkpt lat="46.97562" lon="8.75808">
        <ele>613</ele>
        <time>2021-08-05T12:13:16.678Z</time>
      </trkpt>
      <trkpt lat="46.97562" lon="8.7581">
        <ele>613</ele>
        <time>2021-08-05T12:13:17.678Z</time>
      </trkpt>
      <trkpt lat="46.97562" lon="8.75812">
        <ele>613</ele>
        <time>2021-08-05T12:13:18.678Z</time>
      </trkpt>
      <trkpt lat="46.97561" lon="8.75813">
        <ele>613</ele>
        <time>2021-08-05T12:13:19.677Z</time>
      </trkpt>
      <trkpt lat="46.97561" lon="8.75815">
        <ele>614</ele>
        <time>2021-08-05T12:13:20.678Z</time>
      </trkpt>
      <trkpt lat="46.97561" lon="8.75817">
        <ele>614</ele>
        <time>2021-08-05T12:13:21.678Z</time>
      </trkpt>
      <trkpt lat="46.9756" lon="8.75818">
        <ele>614</ele>
        <time>2021-08-05T12:13:22.678Z</time>
      </trkpt>
      <trkpt lat="46.9756" lon="8.7582">
        <ele>614</ele>
        <time>2021-08-05T12:13:23.677Z</time>
      </trkpt>
      <trkpt lat="46.9756" lon="8.75821">
        <ele>615</ele>
        <time>2021-08-05T12:13:24.677Z</time>
      </trkpt>
      <trkpt lat="46.9756" lon="8.75822">
        <ele>615</ele>
        <time>2021-08-05T12:13:25.678Z</time>
      </trkpt>
      <trkpt lat="46.97559" lon="8.75824">
        <ele>615</ele>
        <time>2021-08-05T12:13:26.678Z</time>
      </trkpt>
      <trkpt lat="46.97559" lon="8.75826">
        <ele>614</ele>
        <time>2021-08-05T12:13:27.677Z</time>
      </trkpt>
      <trkpt lat="46.97559" lon="8.75828">
        <ele>614</ele>
        <time>2021-08-05T12:13:28.678Z</time>
      </trkpt>
      <trkpt lat="46.97559" lon="8.75829">
        <ele>613</ele>
        <time>2021-08-05T12:13:29.677Z</time>
      </trkpt>
      <trkpt lat="46.97559" lon="8.75831">
        <ele>613</ele>
        <time>2021-08-05T12:13:30.678Z</time>
      </trkpt>
      <trkpt lat="46.97558" lon="8.75832">
        <ele>614</ele>
        <time>2021-08-05T12:13:31.677Z</time>
      </trkpt>
      <trkpt lat="46.97557" lon="8.75834">
        <ele>614</ele>
        <time>2021-08-05T12:13:32.678Z</time>
      </trkpt>
      <trkpt lat="46.97557" lon="8.75836">
        <ele>614</ele>
        <time>2021-08-05T12:13:33.678Z</time>
      </trkpt>
      <trkpt lat="46.97557" lon="8.75838">
        <ele>614</ele>
        <time>2021-08-05T12:13:34.678Z</time>
      </trkpt>
      <trkpt lat="46.97557" lon="8.75839">
        <ele>613</ele>
        <time>2021-08-05T12:13:35.678Z</time>
      </trkpt>
      <trkpt lat="46.97557" lon="8.75841">
        <ele>613</ele>
        <time>2021-08-05T12:13:36.678Z</time>
      </trkpt>
      <trkpt lat="46.97556" lon="8.75842">
        <ele>612</ele>
        <time>2021-08-05T12:13:37.677Z</time>
      </trkpt>
      <trkpt lat="46.97556" lon="8.75843">
        <ele>612</ele>
        <time>2021-08-05T12:13:38.678Z</time>
      </trkpt>
      <trkpt lat="46.97557" lon="8.75844">
        <ele>612</ele>
        <time>2021-08-05T12:13:39.678Z</time>
      </trkpt>
      <trkpt lat="46.97557" lon="8.75845">
        <ele>612</ele>
        <time>2021-08-05T12:13:40.677Z</time>
      </trkpt>
      <trkpt lat="46.97557" lon="8.75846">
        <ele>612</ele>
        <time>2021-08-05T12:13:41.678Z</time>
      </trkpt>
      <trkpt lat="46.97556" lon="8.75848">
        <ele>612</ele>
        <time>2021-08-05T12:13:42.677Z</time>
      </trkpt>
      <trkpt lat="46.97556" lon="8.75849">
        <ele>613</ele>
        <time>2021-08-05T12:13:43.677Z</time>
      </trkpt>
      <trkpt lat="46.97556" lon="8.7585">
        <ele>613</ele>
        <time>2021-08-05T12:13:44.678Z</time>
      </trkpt>
      <trkpt lat="46.97556" lon="8.75851">
        <ele>613</ele>
        <time>2021-08-05T12:13:45.677Z</time>
      </trkpt>
      <trkpt lat="46.97556" lon="8.75851">
        <ele>613</ele>
        <time>2021-08-05T12:13:46.678Z</time>
      </trkpt>
      <trkpt lat="46.97556" lon="8.75852">
        <ele>613</ele>
        <time>2021-08-05T12:13:47.678Z</time>
      </trkpt>
      <trkpt lat="46.97555" lon="8.75854">
        <ele>613</ele>
        <time>2021-08-05T12:13:48.677Z</time>
      </trkpt>
      <trkpt lat="46.97554" lon="8.75856">
        <ele>613</ele>
        <time>2021-08-05T12:13:49.678Z</time>
      </trkpt>
      <trkpt lat="46.97554" lon="8.75858">
        <ele>613</ele>
        <time>2021-08-05T12:13:50.677Z</time>
      </trkpt>
      <trkpt lat="46.97554" lon="8.75859">
        <ele>613</ele>
        <time>2021-08-05T12:13:51.677Z</time>
      </trkpt>
      <trkpt lat="46.97553" lon="8.7586">
        <ele>613</ele>
        <time>2021-08-05T12:13:52.678Z</time>
      </trkpt>
      <trkpt lat="46.97552" lon="8.75861">
        <ele>614</ele>
        <time>2021-08-05T12:13:53.678Z</time>
      </trkpt>
      <trkpt lat="46.97551" lon="8.75861">
        <ele>614</ele>
        <time>2021-08-05T12:13:54.677Z</time>
      </trkpt>
      <trkpt lat="46.97551" lon="8.75861">
        <ele>615</ele>
        <time>2021-08-05T12:13:55.677Z</time>
      </trkpt>
      <trkpt lat="46.9755" lon="8.75862">
        <ele>615</ele>
        <time>2021-08-05T12:13:56.678Z</time>
      </trkpt>
      <trkpt lat="46.9755" lon="8.75862">
        <ele>615</ele>
        <time>2021-08-05T12:13:57.678Z</time>
      </trkpt>
      <trkpt lat="46.97551" lon="8.75863">
        <ele>614</ele>
        <time>2021-08-05T12:13:58.679Z</time>
      </trkpt>
      <trkpt lat="46.9755" lon="8.75864">
        <ele>613</ele>
        <time>2021-08-05T12:13:59.678Z</time>
      </trkpt>
      <trkpt lat="46.9755" lon="8.75865">
        <ele>613</ele>
        <time>2021-08-05T12:14:00.678Z</time>
      </trkpt>
      <trkpt lat="46.9755" lon="8.75867">
        <ele>613</ele>
        <time>2021-08-05T12:14:06.792Z</time>
      </trkpt>
      <trkpt lat="46.9755" lon="8.75868">
        <ele>612</ele>
        <time>2021-08-05T12:14:07.792Z</time>
      </trkpt>
      <trkpt lat="46.9755" lon="8.7587">
        <ele>612</ele>
        <time>2021-08-05T12:14:08.791Z</time>
      </trkpt>
      <trkpt lat="46.9755" lon="8.75871">
        <ele>612</ele>
        <time>2021-08-05T12:14:09.791Z</time>
      </trkpt>
      <trkpt lat="46.9755" lon="8.75873">
        <ele>612</ele>
        <time>2021-08-05T12:14:10.792Z</time>
      </trkpt>
      <trkpt lat="46.97549" lon="8.75874">
        <ele>612</ele>
        <time>2021-08-05T12:14:11.792Z</time>
      </trkpt>
      <trkpt lat="46.97549" lon="8.75875">
        <ele>612</ele>
        <time>2021-08-05T12:14:12.792Z</time>
      </trkpt>
      <trkpt lat="46.97549" lon="8.75876">
        <ele>612</ele>
        <time>2021-08-05T12:14:13.791Z</time>
      </trkpt>
      <trkpt lat="46.97549" lon="8.75878">
        <ele>611</ele>
        <time>2021-08-05T12:14:14.792Z</time>
      </trkpt>
      <trkpt lat="46.97548" lon="8.75879">
        <ele>611</ele>
        <time>2021-08-05T12:14:15.791Z</time>
      </trkpt>
      <trkpt lat="46.97548" lon="8.7588">
        <ele>611</ele>
        <time>2021-08-05T12:14:16.792Z</time>
      </trkpt>
      <trkpt lat="46.97548" lon="8.75882">
        <ele>610</ele>
        <time>2021-08-05T12:14:17.791Z</time>
      </trkpt>
      <trkpt lat="46.97549" lon="8.75883">
        <ele>610</ele>
        <time>2021-08-05T12:14:18.791Z</time>
      </trkpt>
      <trkpt lat="46.97548" lon="8.75884">
        <ele>609</ele>
        <time>2021-08-05T12:14:40.943Z</time>
      </trkpt>
      <trkpt lat="46.97548" lon="8.75886">
        <ele>609</ele>
        <time>2021-08-05T12:14:41.942Z</time>
      </trkpt>
      <trkpt lat="46.97548" lon="8.75888">
        <ele>608</ele>
        <time>2021-08-05T12:14:42.943Z</time>
      </trkpt>
      <trkpt lat="46.97547" lon="8.75891">
        <ele>608</ele>
        <time>2021-08-05T12:14:43.942Z</time>
      </trkpt>
      <trkpt lat="46.97547" lon="8.75892">
        <ele>608</ele>
        <time>2021-08-05T12:14:44.943Z</time>
      </trkpt>
      <trkpt lat="46.97547" lon="8.75894">
        <ele>608</ele>
        <time>2021-08-05T12:14:45.943Z</time>
      </trkpt>
      <trkpt lat="46.97546" lon="8.75896">
        <ele>608</ele>
        <time>2021-08-05T12:14:46.942Z</time>
      </trkpt>
      <trkpt lat="46.97545" lon="8.75899">
        <ele>608</ele>
        <time>2021-08-05T12:14:47.943Z</time>
      </trkpt>
      <trkpt lat="46.97544" lon="8.75903">
        <ele>608</ele>
        <time>2021-08-05T12:14:48.943Z</time>
      </trkpt>
      <trkpt lat="46.97543" lon="8.75904">
        <ele>608</ele>
        <time>2021-08-05T12:14:49.942Z</time>
      </trkpt>
      <trkpt lat="46.97543" lon="8.75906">
        <ele>609</ele>
        <time>2021-08-05T12:14:50.943Z</time>
      </trkpt>
      <trkpt lat="46.97543" lon="8.75908">
        <ele>609</ele>
        <time>2021-08-05T12:14:51.942Z</time>
      </trkpt>
      <trkpt lat="46.97542" lon="8.75909">
        <ele>609</ele>
        <time>2021-08-05T12:14:52.942Z</time>
      </trkpt>
      <trkpt lat="46.97542" lon="8.7591">
        <ele>609</ele>
        <time>2021-08-05T12:14:53.942Z</time>
      </trkpt>
      <trkpt lat="46.97542" lon="8.75912">
        <ele>608</ele>
        <time>2021-08-05T12:14:54.943Z</time>
      </trkpt>
      <trkpt lat="46.97542" lon="8.75913">
        <ele>608</ele>
        <time>2021-08-05T12:14:55.942Z</time>
      </trkpt>
      <trkpt lat="46.97541" lon="8.75915">
        <ele>609</ele>
        <time>2021-08-05T12:14:56.942Z</time>
      </trkpt>
      <trkpt lat="46.97541" lon="8.75917">
        <ele>609</ele>
        <time>2021-08-05T12:14:57.942Z</time>
      </trkpt>
      <trkpt lat="46.9754" lon="8.75918">
        <ele>610</ele>
        <time>2021-08-05T12:14:58.943Z</time>
      </trkpt>
      <trkpt lat="46.97539" lon="8.7592">
        <ele>610</ele>
        <time>2021-08-05T12:14:59.942Z</time>
      </trkpt>
      <trkpt lat="46.97538" lon="8.75922">
        <ele>610</ele>
        <time>2021-08-05T12:15:00.943Z</time>
      </trkpt>
      <trkpt lat="46.97538" lon="8.75923">
        <ele>610</ele>
        <time>2021-08-05T12:15:01.943Z</time>
      </trkpt>
      <trkpt lat="46.97538" lon="8.75924">
        <ele>611</ele>
        <time>2021-08-05T12:15:02.942Z</time>
      </trkpt>
      <trkpt lat="46.97537" lon="8.75926">
        <ele>611</ele>
        <time>2021-08-05T12:15:03.943Z</time>
      </trkpt>
      <trkpt lat="46.97537" lon="8.75928">
        <ele>612</ele>
        <time>2021-08-05T12:15:04.943Z</time>
      </trkpt>
      <trkpt lat="46.97536" lon="8.7593">
        <ele>612</ele>
        <time>2021-08-05T12:15:05.942Z</time>
      </trkpt>
      <trkpt lat="46.97536" lon="8.75931">
        <ele>612</ele>
        <time>2021-08-05T12:15:06.942Z</time>
      </trkpt>
      <trkpt lat="46.97535" lon="8.75934">
        <ele>611</ele>
        <time>2021-08-05T12:15:07.943Z</time>
      </trkpt>
      <trkpt lat="46.97535" lon="8.75935">
        <ele>611</ele>
        <time>2021-08-05T12:15:08.943Z</time>
      </trkpt>
      <trkpt lat="46.97535" lon="8.75937">
        <ele>612</ele>
        <time>2021-08-05T12:15:09.942Z</time>
      </trkpt>
      <trkpt lat="46.97535" lon="8.75938">
        <ele>612</ele>
        <time>2021-08-05T12:15:10.943Z</time>
      </trkpt>
      <trkpt lat="46.97535" lon="8.75939">
        <ele>612</ele>
        <time>2021-08-05T12:15:11.943Z</time>
      </trkpt>
      <trkpt lat="46.97535" lon="8.7594">
        <ele>612</ele>
        <time>2021-08-05T12:15:12.943Z</time>
      </trkpt>
      <trkpt lat="46.97534" lon="8.75941">
        <ele>611</ele>
        <time>2021-08-05T12:15:13.943Z</time>
      </trkpt>
      <trkpt lat="46.97533" lon="8.75943">
        <ele>611</ele>
        <time>2021-08-05T12:15:14.943Z</time>
      </trkpt>
      <trkpt lat="46.97532" lon="8.75944">
        <ele>611</ele>
        <time>2021-08-05T12:15:15.943Z</time>
      </trkpt>
      <trkpt lat="46.97532" lon="8.75946">
        <ele>610</ele>
        <time>2021-08-05T12:15:16.942Z</time>
      </trkpt>
      <trkpt lat="46.97532" lon="8.75947">
        <ele>610</ele>
        <time>2021-08-05T12:15:17.942Z</time>
      </trkpt>
      <trkpt lat="46.97532" lon="8.75948">
        <ele>609</ele>
        <time>2021-08-05T12:15:18.943Z</time>
      </trkpt>
      <trkpt lat="46.97533" lon="8.75949">
        <ele>609</ele>
        <time>2021-08-05T12:15:19.943Z</time>
      </trkpt>
      <trkpt lat="46.97534" lon="8.75949">
        <ele>609</ele>
        <time>2021-08-05T12:15:20.943Z</time>
      </trkpt>
      <trkpt lat="46.97534" lon="8.7595">
        <ele>609</ele>
        <time>2021-08-05T12:15:21.943Z</time>
      </trkpt>
      <trkpt lat="46.97534" lon="8.75951">
        <ele>608</ele>
        <time>2021-08-05T12:15:22.942Z</time>
      </trkpt>
      <trkpt lat="46.97534" lon="8.75953">
        <ele>608</ele>
        <time>2021-08-05T12:15:23.943Z</time>
      </trkpt>
      <trkpt lat="46.97534" lon="8.75955">
        <ele>608</ele>
        <time>2021-08-05T12:15:24.943Z</time>
      </trkpt>
      <trkpt lat="46.97535" lon="8.75956">
        <ele>608</ele>
        <time>2021-08-05T12:15:25.943Z</time>
      </trkpt>
      <trkpt lat="46.97534" lon="8.75958">
        <ele>608</ele>
        <time>2021-08-05T12:15:26.943Z</time>
      </trkpt>
      <trkpt lat="46.97534" lon="8.75959">
        <ele>608</ele>
        <time>2021-08-05T12:15:27.943Z</time>
      </trkpt>
      <trkpt lat="46.97535" lon="8.7596">
        <ele>608</ele>
        <time>2021-08-05T12:15:28.943Z</time>
      </trkpt>
      <trkpt lat="46.97535" lon="8.7596">
        <ele>611</ele>
        <time>2021-08-05T12:15:29.943Z</time>
      </trkpt>
      <trkpt lat="46.97536" lon="8.7596">
        <ele>611</ele>
        <time>2021-08-05T12:15:30.942Z</time>
      </trkpt>
      <trkpt lat="46.97536" lon="8.75963">
        <ele>613</ele>
        <time>2021-08-05T12:15:31.943Z</time>
      </trkpt>
      <trkpt lat="46.97536" lon="8.75963">
        <ele>613</ele>
        <time>2021-08-05T12:15:32.942Z</time>
      </trkpt>
      <trkpt lat="46.97535" lon="8.75964">
        <ele>613</ele>
        <time>2021-08-05T12:15:33.943Z</time>
      </trkpt>
      <trkpt lat="46.97535" lon="8.75966">
        <ele>613</ele>
        <time>2021-08-05T12:15:34.942Z</time>
      </trkpt>
      <trkpt lat="46.97535" lon="8.75968">
        <ele>613</ele>
        <time>2021-08-05T12:15:35.942Z</time>
      </trkpt>
      <trkpt lat="46.97534" lon="8.7597">
        <ele>613</ele>
        <time>2021-08-05T12:15:36.942Z</time>
      </trkpt>
      <trkpt lat="46.97534" lon="8.75972">
        <ele>613</ele>
        <time>2021-08-05T12:15:37.942Z</time>
      </trkpt>
      <trkpt lat="46.97534" lon="8.75973">
        <ele>613</ele>
        <time>2021-08-05T12:15:38.942Z</time>
      </trkpt>
      <trkpt lat="46.97533" lon="8.75975">
        <ele>612</ele>
        <time>2021-08-05T12:15:39.942Z</time>
      </trkpt>
      <trkpt lat="46.97533" lon="8.75976">
        <ele>612</ele>
        <time>2021-08-05T12:15:40.942Z</time>
      </trkpt>
      <trkpt lat="46.97533" lon="8.75977">
        <ele>612</ele>
        <time>2021-08-05T12:15:41.942Z</time>
      </trkpt>
      <trkpt lat="46.97533" lon="8.75978">
        <ele>612</ele>
        <time>2021-08-05T12:15:42.943Z</time>
      </trkpt>
      <trkpt lat="46.97533" lon="8.75979">
        <ele>611</ele>
        <time>2021-08-05T12:15:43.943Z</time>
      </trkpt>
      <trkpt lat="46.97533" lon="8.7598">
        <ele>611</ele>
        <time>2021-08-05T12:15:44.942Z</time>
      </trkpt>
      <trkpt lat="46.97532" lon="8.75981">
        <ele>611</ele>
        <time>2021-08-05T12:15:45.943Z</time>
      </trkpt>
      <trkpt lat="46.97532" lon="8.75983">
        <ele>611</ele>
        <time>2021-08-05T12:15:46.942Z</time>
      </trkpt>
      <trkpt lat="46.9753" lon="8.75985">
        <ele>611</ele>
        <time>2021-08-05T12:15:47.942Z</time>
      </trkpt>
      <trkpt lat="46.97529" lon="8.75988">
        <ele>610</ele>
        <time>2021-08-05T12:15:48.942Z</time>
      </trkpt>
      <trkpt lat="46.97528" lon="8.7599">
        <ele>610</ele>
        <time>2021-08-05T12:15:49.942Z</time>
      </trkpt>
      <trkpt lat="46.97527" lon="8.75991">
        <ele>610</ele>
        <time>2021-08-05T12:15:50.942Z</time>
      </trkpt>
      <trkpt lat="46.97526" lon="8.75993">
        <ele>610</ele>
        <time>2021-08-05T12:15:51.942Z</time>
      </trkpt>
      <trkpt lat="46.97526" lon="8.75995">
        <ele>610</ele>
        <time>2021-08-05T12:15:52.942Z</time>
      </trkpt>
      <trkpt lat="46.97525" lon="8.75997">
        <ele>611</ele>
        <time>2021-08-05T12:15:53.943Z</time>
      </trkpt>
      <trkpt lat="46.97526" lon="8.75998">
        <ele>611</ele>
        <time>2021-08-05T12:15:54.942Z</time>
      </trkpt>
      <trkpt lat="46.97525" lon="8.76">
        <ele>612</ele>
        <time>2021-08-05T12:15:55.942Z</time>
      </trkpt>
      <trkpt lat="46.97524" lon="8.76003">
        <ele>612</ele>
        <time>2021-08-05T12:15:56.942Z</time>
      </trkpt>
      <trkpt lat="46.97523" lon="8.76006">
        <ele>612</ele>
        <time>2021-08-05T12:15:57.942Z</time>
      </trkpt>
      <trkpt lat="46.97522" lon="8.76007">
        <ele>612</ele>
        <time>2021-08-05T12:15:58.942Z</time>
      </trkpt>
      <trkpt lat="46.97522" lon="8.76008">
        <ele>613</ele>
        <time>2021-08-05T12:15:59.942Z</time>
      </trkpt>
      <trkpt lat="46.97522" lon="8.7601">
        <ele>613</ele>
        <time>2021-08-05T12:16:00.942Z</time>
      </trkpt>
      <trkpt lat="46.97521" lon="8.76012">
        <ele>613</ele>
        <time>2021-08-05T12:16:01.942Z</time>
      </trkpt>
      <trkpt lat="46.97521" lon="8.76014">
        <ele>613</ele>
        <time>2021-08-05T12:16:02.942Z</time>
      </trkpt>
      <trkpt lat="46.97521" lon="8.76016">
        <ele>613</ele>
        <time>2021-08-05T12:16:03.942Z</time>
      </trkpt>
      <trkpt lat="46.9752" lon="8.76018">
        <ele>614</ele>
        <time>2021-08-05T12:16:04.942Z</time>
      </trkpt>
      <trkpt lat="46.9752" lon="8.76019">
        <ele>614</ele>
        <time>2021-08-05T12:16:09.056Z</time>
      </trkpt>
      <trkpt lat="46.9752" lon="8.76022">
        <ele>614</ele>
        <time>2021-08-05T12:16:10.057Z</time>
      </trkpt>
      <trkpt lat="46.9752" lon="8.76024">
        <ele>614</ele>
        <time>2021-08-05T12:16:11.056Z</time>
      </trkpt>
      <trkpt lat="46.9752" lon="8.76026">
        <ele>614</ele>
        <time>2021-08-05T12:16:12.056Z</time>
      </trkpt>
      <trkpt lat="46.97518" lon="8.76028">
        <ele>614</ele>
        <time>2021-08-05T12:16:13.056Z</time>
      </trkpt>
      <trkpt lat="46.97516" lon="8.76031">
        <ele>614</ele>
        <time>2021-08-05T12:16:14.056Z</time>
      </trkpt>
      <trkpt lat="46.97516" lon="8.76033">
        <ele>614</ele>
        <time>2021-08-05T12:16:15.056Z</time>
      </trkpt>
      <trkpt lat="46.97515" lon="8.76034">
        <ele>613</ele>
        <time>2021-08-05T12:16:16.056Z</time>
      </trkpt>
      <trkpt lat="46.97516" lon="8.76036">
        <ele>613</ele>
        <time>2021-08-05T12:16:17.056Z</time>
      </trkpt>
      <trkpt lat="46.97516" lon="8.76038">
        <ele>613</ele>
        <time>2021-08-05T12:16:18.057Z</time>
      </trkpt>
      <trkpt lat="46.97517" lon="8.7604">
        <ele>613</ele>
        <time>2021-08-05T12:16:19.057Z</time>
      </trkpt>
      <trkpt lat="46.97517" lon="8.76041">
        <ele>613</ele>
        <time>2021-08-05T12:16:39.219Z</time>
      </trkpt>
      <trkpt lat="46.97517" lon="8.76043">
        <ele>613</ele>
        <time>2021-08-05T12:16:40.219Z</time>
      </trkpt>
      <trkpt lat="46.97517" lon="8.76044">
        <ele>613</ele>
        <time>2021-08-05T12:16:41.219Z</time>
      </trkpt>
      <trkpt lat="46.97517" lon="8.76046">
        <ele>613</ele>
        <time>2021-08-05T12:16:42.220Z</time>
      </trkpt>
      <trkpt lat="46.97516" lon="8.76048">
        <ele>613</ele>
        <time>2021-08-05T12:16:43.219Z</time>
      </trkpt>
      <trkpt lat="46.97516" lon="8.76049">
        <ele>612</ele>
        <time>2021-08-05T12:16:44.219Z</time>
      </trkpt>
      <trkpt lat="46.97516" lon="8.7605">
        <ele>612</ele>
        <time>2021-08-05T12:16:45.220Z</time>
      </trkpt>
      <trkpt lat="46.97516" lon="8.76051">
        <ele>612</ele>
        <time>2021-08-05T12:16:46.219Z</time>
      </trkpt>
      <trkpt lat="46.97515" lon="8.76053">
        <ele>612</ele>
        <time>2021-08-05T12:16:47.219Z</time>
      </trkpt>
      <trkpt lat="46.97515" lon="8.76055">
        <ele>612</ele>
        <time>2021-08-05T12:16:48.219Z</time>
      </trkpt>
      <trkpt lat="46.97514" lon="8.76057">
        <ele>612</ele>
        <time>2021-08-05T12:16:49.219Z</time>
      </trkpt>
      <trkpt lat="46.97514" lon="8.76058">
        <ele>612</ele>
        <time>2021-08-05T12:16:50.220Z</time>
      </trkpt>
      <trkpt lat="46.97514" lon="8.7606">
        <ele>612</ele>
        <time>2021-08-05T12:16:51.219Z</time>
      </trkpt>
      <trkpt lat="46.97513" lon="8.76062">
        <ele>611</ele>
        <time>2021-08-05T12:16:52.219Z</time>
      </trkpt>
      <trkpt lat="46.97512" lon="8.76064">
        <ele>611</ele>
        <time>2021-08-05T12:16:53.219Z</time>
      </trkpt>
      <trkpt lat="46.97512" lon="8.76066">
        <ele>611</ele>
        <time>2021-08-05T12:16:54.219Z</time>
      </trkpt>
      <trkpt lat="46.97512" lon="8.76067">
        <ele>611</ele>
        <time>2021-08-05T12:16:55.219Z</time>
      </trkpt>
      <trkpt lat="46.97511" lon="8.76069">
        <ele>611</ele>
        <time>2021-08-05T12:16:56.219Z</time>
      </trkpt>
      <trkpt lat="46.9751" lon="8.7607">
        <ele>611</ele>
        <time>2021-08-05T12:16:57.219Z</time>
      </trkpt>
      <trkpt lat="46.9751" lon="8.76071">
        <ele>610</ele>
        <time>2021-08-05T12:16:58.220Z</time>
      </trkpt>
      <trkpt lat="46.97509" lon="8.76073">
        <ele>610</ele>
        <time>2021-08-05T12:16:59.219Z</time>
      </trkpt>
      <trkpt lat="46.97509" lon="8.76075">
        <ele>610</ele>
        <time>2021-08-05T12:17:01.324Z</time>
      </trkpt>
      <trkpt lat="46.97508" lon="8.76077">
        <ele>611</ele>
        <time>2021-08-05T12:17:02.323Z</time>
      </trkpt>
      <trkpt lat="46.97507" lon="8.76079">
        <ele>610</ele>
        <time>2021-08-05T12:17:03.323Z</time>
      </trkpt>
      <trkpt lat="46.97505" lon="8.76082">
        <ele>610</ele>
        <time>2021-08-05T12:17:04.323Z</time>
      </trkpt>
      <trkpt lat="46.97504" lon="8.76084">
        <ele>610</ele>
        <time>2021-08-05T12:17:05.323Z</time>
      </trkpt>
      <trkpt lat="46.97504" lon="8.76086">
        <ele>610</ele>
        <time>2021-08-05T12:17:06.323Z</time>
      </trkpt>
      <trkpt lat="46.97504" lon="8.76087">
        <ele>610</ele>
        <time>2021-08-05T12:17:07.323Z</time>
      </trkpt>
      <trkpt lat="46.97504" lon="8.76089">
        <ele>610</ele>
        <time>2021-08-05T12:17:24.443Z</time>
      </trkpt>
      <trkpt lat="46.97504" lon="8.7609">
        <ele>611</ele>
        <time>2021-08-05T12:17:25.443Z</time>
      </trkpt>
      <trkpt lat="46.97504" lon="8.76092">
        <ele>611</ele>
        <time>2021-08-05T12:17:26.443Z</time>
      </trkpt>
      <trkpt lat="46.97504" lon="8.76094">
        <ele>611</ele>
        <time>2021-08-05T12:17:27.443Z</time>
      </trkpt>
      <trkpt lat="46.97504" lon="8.76095">
        <ele>611</ele>
        <time>2021-08-05T12:17:28.443Z</time>
      </trkpt>
      <trkpt lat="46.97504" lon="8.76097">
        <ele>611</ele>
        <time>2021-08-05T12:17:39.593Z</time>
      </trkpt>
      <trkpt lat="46.97504" lon="8.76098">
        <ele>612</ele>
        <time>2021-08-05T12:17:51.416Z</time>
      </trkpt>
      <trkpt lat="46.97503" lon="8.76099">
        <ele>612</ele>
        <time>2021-08-05T12:17:52.416Z</time>
      </trkpt>
      <trkpt lat="46.97503" lon="8.76101">
        <ele>612</ele>
        <time>2021-08-05T12:17:53.416Z</time>
      </trkpt>
      <trkpt lat="46.97502" lon="8.76102">
        <ele>612</ele>
        <time>2021-08-05T12:18:05.529Z</time>
      </trkpt>
      <trkpt lat="46.97502" lon="8.76104">
        <ele>613</ele>
        <time>2021-08-05T12:18:08.413Z</time>
      </trkpt>
      <trkpt lat="46.97502" lon="8.76106">
        <ele>613</ele>
        <time>2021-08-05T12:18:09.413Z</time>
      </trkpt>
      <trkpt lat="46.97502" lon="8.76107">
        <ele>614</ele>
        <time>2021-08-05T12:18:10.413Z</time>
      </trkpt>
      <trkpt lat="46.97502" lon="8.76109">
        <ele>614</ele>
        <time>2021-08-05T12:18:15.292Z</time>
      </trkpt>
      <trkpt lat="46.97501" lon="8.76111">
        <ele>614</ele>
        <time>2021-08-05T12:18:16.292Z</time>
      </trkpt>
      <trkpt lat="46.97501" lon="8.76113">
        <ele>613</ele>
        <time>2021-08-05T12:18:17.292Z</time>
      </trkpt>
      <trkpt lat="46.97501" lon="8.76115">
        <ele>613</ele>
        <time>2021-08-05T12:18:18.292Z</time>
      </trkpt>
      <trkpt lat="46.97501" lon="8.76116">
        <ele>613</ele>
        <time>2021-08-05T12:18:19.292Z</time>
      </trkpt>
      <trkpt lat="46.975" lon="8.76118">
        <ele>613</ele>
        <time>2021-08-05T12:18:20.292Z</time>
      </trkpt>
      <trkpt lat="46.97501" lon="8.7612">
        <ele>613</ele>
        <time>2021-08-05T12:18:41.440Z</time>
      </trkpt>
      <trkpt lat="46.97501" lon="8.76122">
        <ele>613</ele>
        <time>2021-08-05T12:18:42.440Z</time>
      </trkpt>
      <trkpt lat="46.97501" lon="8.76124">
        <ele>613</ele>
        <time>2021-08-05T12:19:21.148Z</time>
      </trkpt>
      <trkpt lat="46.97502" lon="8.76125">
        <ele>613</ele>
        <time>2021-08-05T12:19:22.149Z</time>
      </trkpt>
      <trkpt lat="46.97501" lon="8.76127">
        <ele>613</ele>
        <time>2021-08-05T12:19:23.148Z</time>
      </trkpt>
      <trkpt lat="46.97501" lon="8.76129">
        <ele>613</ele>
        <time>2021-08-05T12:19:24.148Z</time>
      </trkpt>
      <trkpt lat="46.97501" lon="8.76131">
        <ele>613</ele>
        <time>2021-08-05T12:19:25.148Z</time>
      </trkpt>
      <trkpt lat="46.975" lon="8.76133">
        <ele>613</ele>
        <time>2021-08-05T12:19:26.148Z</time>
      </trkpt>
      <trkpt lat="46.975" lon="8.76134">
        <ele>613</ele>
        <time>2021-08-05T12:19:27.148Z</time>
      </trkpt>
      <trkpt lat="46.975" lon="8.76135">
        <ele>613</ele>
        <time>2021-08-05T12:19:28.148Z</time>
      </trkpt>
      <trkpt lat="46.97499" lon="8.76137">
        <ele>613</ele>
        <time>2021-08-05T12:19:29.148Z</time>
      </trkpt>
      <trkpt lat="46.97498" lon="8.76139">
        <ele>613</ele>
        <time>2021-08-05T12:19:30.148Z</time>
      </trkpt>
      <trkpt lat="46.97498" lon="8.7614">
        <ele>612</ele>
        <time>2021-08-05T12:19:34.193Z</time>
      </trkpt>
      <trkpt lat="46.97497" lon="8.76142">
        <ele>612</ele>
        <time>2021-08-05T12:19:35.193Z</time>
      </trkpt>
      <trkpt lat="46.97497" lon="8.76143">
        <ele>612</ele>
        <time>2021-08-05T12:19:36.193Z</time>
      </trkpt>
      <trkpt lat="46.97497" lon="8.76144">
        <ele>612</ele>
        <time>2021-08-05T12:19:37.194Z</time>
      </trkpt>
      <trkpt lat="46.97496" lon="8.76145">
        <ele>611</ele>
        <time>2021-08-05T12:19:38.193Z</time>
      </trkpt>
      <trkpt lat="46.97496" lon="8.76146">
        <ele>611</ele>
        <time>2021-08-05T12:19:39.193Z</time>
      </trkpt>
      <trkpt lat="46.97496" lon="8.76148">
        <ele>611</ele>
        <time>2021-08-05T12:19:40.193Z</time>
      </trkpt>
      <trkpt lat="46.97495" lon="8.7615">
        <ele>612</ele>
        <time>2021-08-05T12:19:41.193Z</time>
      </trkpt>
      <trkpt lat="46.97495" lon="8.76151">
        <ele>612</ele>
        <time>2021-08-05T12:19:42.194Z</time>
      </trkpt>
      <trkpt lat="46.97495" lon="8.76153">
        <ele>612</ele>
        <time>2021-08-05T12:19:43.193Z</time>
      </trkpt>
      <trkpt lat="46.97494" lon="8.76155">
        <ele>612</ele>
        <time>2021-08-05T12:19:44.193Z</time>
      </trkpt>
      <trkpt lat="46.97494" lon="8.76157">
        <ele>612</ele>
        <time>2021-08-05T12:19:45.193Z</time>
      </trkpt>
      <trkpt lat="46.97494" lon="8.76159">
        <ele>612</ele>
        <time>2021-08-05T12:19:46.193Z</time>
      </trkpt>
      <trkpt lat="46.97494" lon="8.76161">
        <ele>612</ele>
        <time>2021-08-05T12:19:47.193Z</time>
      </trkpt>
      <trkpt lat="46.97494" lon="8.76162">
        <ele>612</ele>
        <time>2021-08-05T12:19:48.193Z</time>
      </trkpt>
      <trkpt lat="46.97494" lon="8.76164">
        <ele>612</ele>
        <time>2021-08-05T12:19:49.193Z</time>
      </trkpt>
      <trkpt lat="46.97494" lon="8.76165">
        <ele>612</ele>
        <time>2021-08-05T12:19:50.193Z</time>
      </trkpt>
      <trkpt lat="46.97494" lon="8.76166">
        <ele>613</ele>
        <time>2021-08-05T12:19:51.194Z</time>
      </trkpt>
      <trkpt lat="46.97494" lon="8.76167">
        <ele>612</ele>
        <time>2021-08-05T12:19:52.193Z</time>
      </trkpt>
      <trkpt lat="46.97493" lon="8.76168">
        <ele>612</ele>
        <time>2021-08-05T12:19:53.193Z</time>
      </trkpt>
      <trkpt lat="46.97493" lon="8.76169">
        <ele>612</ele>
        <time>2021-08-05T12:19:54.193Z</time>
      </trkpt>
      <trkpt lat="46.97492" lon="8.76171">
        <ele>612</ele>
        <time>2021-08-05T12:19:55.193Z</time>
      </trkpt>
      <trkpt lat="46.97492" lon="8.76172">
        <ele>612</ele>
        <time>2021-08-05T12:19:56.193Z</time>
      </trkpt>
      <trkpt lat="46.97492" lon="8.76173">
        <ele>612</ele>
        <time>2021-08-05T12:19:57.193Z</time>
      </trkpt>
      <trkpt lat="46.97492" lon="8.76174">
        <ele>612</ele>
        <time>2021-08-05T12:19:58.193Z</time>
      </trkpt>
      <trkpt lat="46.97492" lon="8.76175">
        <ele>612</ele>
        <time>2021-08-05T12:19:59.193Z</time>
      </trkpt>
      <trkpt lat="46.97491" lon="8.76176">
        <ele>612</ele>
        <time>2021-08-05T12:20:00.193Z</time>
      </trkpt>
      <trkpt lat="46.97491" lon="8.76177">
        <ele>612</ele>
        <time>2021-08-05T12:20:01.193Z</time>
      </trkpt>
      <trkpt lat="46.97491" lon="8.76179">
        <ele>613</ele>
        <time>2021-08-05T12:20:02.193Z</time>
      </trkpt>
      <trkpt lat="46.97491" lon="8.7618">
        <ele>613</ele>
        <time>2021-08-05T12:20:03.193Z</time>
      </trkpt>
      <trkpt lat="46.97491" lon="8.76182">
        <ele>613</ele>
        <time>2021-08-05T12:20:04.193Z</time>
      </trkpt>
      <trkpt lat="46.97489" lon="8.76185">
        <ele>613</ele>
        <time>2021-08-05T12:20:05.193Z</time>
      </trkpt>
      <trkpt lat="46.97489" lon="8.76187">
        <ele>612</ele>
        <time>2021-08-05T12:20:06.193Z</time>
      </trkpt>
      <trkpt lat="46.97488" lon="8.76188">
        <ele>612</ele>
        <time>2021-08-05T12:20:07.193Z</time>
      </trkpt>
      <trkpt lat="46.97487" lon="8.76189">
        <ele>612</ele>
        <time>2021-08-05T12:20:08.193Z</time>
      </trkpt>
      <trkpt lat="46.97487" lon="8.7619">
        <ele>612</ele>
        <time>2021-08-05T12:20:09.194Z</time>
      </trkpt>
      <trkpt lat="46.97488" lon="8.76191">
        <ele>612</ele>
        <time>2021-08-05T12:20:10.193Z</time>
      </trkpt>
      <trkpt lat="46.97488" lon="8.76193">
        <ele>612</ele>
        <time>2021-08-05T12:20:11.193Z</time>
      </trkpt>
      <trkpt lat="46.97488" lon="8.76195">
        <ele>612</ele>
        <time>2021-08-05T12:20:12.193Z</time>
      </trkpt>
      <trkpt lat="46.97488" lon="8.76196">
        <ele>612</ele>
        <time>2021-08-05T12:20:15.277Z</time>
      </trkpt>
      <trkpt lat="46.97488" lon="8.76196">
        <ele>612</ele>
        <time>2021-08-05T12:20:16.277Z</time>
      </trkpt>
      <trkpt lat="46.97488" lon="8.76197">
        <ele>613</ele>
        <time>2021-08-05T12:20:17.277Z</time>
      </trkpt>
      <trkpt lat="46.97488" lon="8.76199">
        <ele>613</ele>
        <time>2021-08-05T12:20:18.277Z</time>
      </trkpt>
      <trkpt lat="46.97488" lon="8.762">
        <ele>614</ele>
        <time>2021-08-05T12:20:19.277Z</time>
      </trkpt>
      <trkpt lat="46.97487" lon="8.76201">
        <ele>615</ele>
        <time>2021-08-05T12:20:20.278Z</time>
      </trkpt>
      <trkpt lat="46.97485" lon="8.76204">
        <ele>615</ele>
        <time>2021-08-05T12:20:21.277Z</time>
      </trkpt>
      <trkpt lat="46.97484" lon="8.76205">
        <ele>615</ele>
        <time>2021-08-05T12:20:22.277Z</time>
      </trkpt>
      <trkpt lat="46.97484" lon="8.76206">
        <ele>615</ele>
        <time>2021-08-05T12:20:23.277Z</time>
      </trkpt>
      <trkpt lat="46.97483" lon="8.76207">
        <ele>615</ele>
        <time>2021-08-05T12:20:24.277Z</time>
      </trkpt>
      <trkpt lat="46.97483" lon="8.76209">
        <ele>614</ele>
        <time>2021-08-05T12:20:25.277Z</time>
      </trkpt>
      <trkpt lat="46.97483" lon="8.7621">
        <ele>614</ele>
        <time>2021-08-05T12:20:26.277Z</time>
      </trkpt>
      <trkpt lat="46.97482" lon="8.76212">
        <ele>614</ele>
        <time>2021-08-05T12:20:27.277Z</time>
      </trkpt>
      <trkpt lat="46.97482" lon="8.76214">
        <ele>614</ele>
        <time>2021-08-05T12:20:28.277Z</time>
      </trkpt>
      <trkpt lat="46.97481" lon="8.76215">
        <ele>613</ele>
        <time>2021-08-05T12:20:29.278Z</time>
      </trkpt>
      <trkpt lat="46.97481" lon="8.76217">
        <ele>613</ele>
        <time>2021-08-05T12:20:30.277Z</time>
      </trkpt>
      <trkpt lat="46.97481" lon="8.76219">
        <ele>613</ele>
        <time>2021-08-05T12:20:31.277Z</time>
      </trkpt>
      <trkpt lat="46.97481" lon="8.7622">
        <ele>613</ele>
        <time>2021-08-05T12:20:32.278Z</time>
      </trkpt>
      <trkpt lat="46.97481" lon="8.76221">
        <ele>613</ele>
        <time>2021-08-05T12:20:33.278Z</time>
      </trkpt>
      <trkpt lat="46.97481" lon="8.76221">
        <ele>613</ele>
        <time>2021-08-05T12:20:34.278Z</time>
      </trkpt>
      <trkpt lat="46.97481" lon="8.76222">
        <ele>613</ele>
        <time>2021-08-05T12:20:35.278Z</time>
      </trkpt>
      <trkpt lat="46.97481" lon="8.76224">
        <ele>613</ele>
        <time>2021-08-05T12:20:36.278Z</time>
      </trkpt>
      <trkpt lat="46.9748" lon="8.76226">
        <ele>613</ele>
        <time>2021-08-05T12:20:37.278Z</time>
      </trkpt>
      <trkpt lat="46.9748" lon="8.76227">
        <ele>613</ele>
        <time>2021-08-05T12:20:38.277Z</time>
      </trkpt>
      <trkpt lat="46.9748" lon="8.76229">
        <ele>613</ele>
        <time>2021-08-05T12:20:39.277Z</time>
      </trkpt>
      <trkpt lat="46.9748" lon="8.7623">
        <ele>612</ele>
        <time>2021-08-05T12:20:40.278Z</time>
      </trkpt>
      <trkpt lat="46.9748" lon="8.76231">
        <ele>612</ele>
        <time>2021-08-05T12:20:41.278Z</time>
      </trkpt>
      <trkpt lat="46.9748" lon="8.76232">
        <ele>612</ele>
        <time>2021-08-05T12:21:05.288Z</time>
      </trkpt>
      <trkpt lat="46.97479" lon="8.76233">
        <ele>611</ele>
        <time>2021-08-05T12:21:06.288Z</time>
      </trkpt>
      <trkpt lat="46.97479" lon="8.76235">
        <ele>611</ele>
        <time>2021-08-05T12:21:21.173Z</time>
      </trkpt>
      <trkpt lat="46.97479" lon="8.76237">
        <ele>611</ele>
        <time>2021-08-05T12:21:22.173Z</time>
      </trkpt>
      <trkpt lat="46.97478" lon="8.76238">
        <ele>611</ele>
        <time>2021-08-05T12:21:23.173Z</time>
      </trkpt>
      <trkpt lat="46.97478" lon="8.7624">
        <ele>611</ele>
        <time>2021-08-05T12:21:24.173Z</time>
      </trkpt>
      <trkpt lat="46.97478" lon="8.76241">
        <ele>611</ele>
        <time>2021-08-05T12:21:25.173Z</time>
      </trkpt>
      <trkpt lat="46.97478" lon="8.76242">
        <ele>611</ele>
        <time>2021-08-05T12:21:26.173Z</time>
      </trkpt>
      <trkpt lat="46.97477" lon="8.76243">
        <ele>611</ele>
        <time>2021-08-05T12:21:27.173Z</time>
      </trkpt>
      <trkpt lat="46.97477" lon="8.76245">
        <ele>611</ele>
        <time>2021-08-05T12:21:28.174Z</time>
      </trkpt>
      <trkpt lat="46.97477" lon="8.76247">
        <ele>611</ele>
        <time>2021-08-05T12:21:29.173Z</time>
      </trkpt>
      <trkpt lat="46.97477" lon="8.76248">
        <ele>611</ele>
        <time>2021-08-05T12:21:30.173Z</time>
      </trkpt>
      <trkpt lat="46.97477" lon="8.7625">
        <ele>612</ele>
        <time>2021-08-05T12:21:31.173Z</time>
      </trkpt>
      <trkpt lat="46.97477" lon="8.76251">
        <ele>612</ele>
        <time>2021-08-05T12:21:32.173Z</time>
      </trkpt>
      <trkpt lat="46.97478" lon="8.76252">
        <ele>612</ele>
        <time>2021-08-05T12:21:33.174Z</time>
      </trkpt>
      <trkpt lat="46.97478" lon="8.76253">
        <ele>613</ele>
        <time>2021-08-05T12:21:34.173Z</time>
      </trkpt>
      <trkpt lat="46.97477" lon="8.76254">
        <ele>613</ele>
        <time>2021-08-05T12:21:35.173Z</time>
      </trkpt>
      <trkpt lat="46.97477" lon="8.76256">
        <ele>613</ele>
        <time>2021-08-05T12:21:36.173Z</time>
      </trkpt>
      <trkpt lat="46.97476" lon="8.76258">
        <ele>614</ele>
        <time>2021-08-05T12:21:37.173Z</time>
      </trkpt>
      <trkpt lat="46.97475" lon="8.76259">
        <ele>614</ele>
        <time>2021-08-05T12:21:38.174Z</time>
      </trkpt>
      <trkpt lat="46.97474" lon="8.76261">
        <ele>614</ele>
        <time>2021-08-05T12:21:39.174Z</time>
      </trkpt>
      <trkpt lat="46.97474" lon="8.76263">
        <ele>614</ele>
        <time>2021-08-05T12:21:40.173Z</time>
      </trkpt>
      <trkpt lat="46.97474" lon="8.76263">
        <ele>614</ele>
        <time>2021-08-05T12:21:41.174Z</time>
      </trkpt>
      <trkpt lat="46.97475" lon="8.76264">
        <ele>614</ele>
        <time>2021-08-05T12:21:42.174Z</time>
      </trkpt>
      <trkpt lat="46.97475" lon="8.76264">
        <ele>614</ele>
        <time>2021-08-05T12:21:43.173Z</time>
      </trkpt>
      <trkpt lat="46.97475" lon="8.76265">
        <ele>614</ele>
        <time>2021-08-05T12:21:44.174Z</time>
      </trkpt>
      <trkpt lat="46.97475" lon="8.76266">
        <ele>615</ele>
        <time>2021-08-05T12:21:45.173Z</time>
      </trkpt>
      <trkpt lat="46.97475" lon="8.76267">
        <ele>615</ele>
        <time>2021-08-05T12:21:46.173Z</time>
      </trkpt>
      <trkpt lat="46.97474" lon="8.76268">
        <ele>616</ele>
        <time>2021-08-05T12:21:47.174Z</time>
      </trkpt>
      <trkpt lat="46.97474" lon="8.76271">
        <ele>616</ele>
        <time>2021-08-05T12:21:48.173Z</time>
      </trkpt>
      <trkpt lat="46.97473" lon="8.76271">
        <ele>616</ele>
        <time>2021-08-05T12:21:49.173Z</time>
      </trkpt>
      <trkpt lat="46.97471" lon="8.76271">
        <ele>617</ele>
        <time>2021-08-05T12:21:50.173Z</time>
      </trkpt>
      <trkpt lat="46.97471" lon="8.76271">
        <ele>617</ele>
        <time>2021-08-05T12:21:51.174Z</time>
      </trkpt>
      <trkpt lat="46.9747" lon="8.76271">
        <ele>616</ele>
        <time>2021-08-05T12:21:52.174Z</time>
      </trkpt>
      <trkpt lat="46.9747" lon="8.76272">
        <ele>616</ele>
        <time>2021-08-05T12:21:53.173Z</time>
      </trkpt>
      <trkpt lat="46.97469" lon="8.76273">
        <ele>616</ele>
        <time>2021-08-05T12:21:54.173Z</time>
      </trkpt>
      <trkpt lat="46.97469" lon="8.76275">
        <ele>617</ele>
        <time>2021-08-05T12:21:55.174Z</time>
      </trkpt>
      <trkpt lat="46.97469" lon="8.76276">
        <ele>617</ele>
        <time>2021-08-05T12:21:56.173Z</time>
      </trkpt>
      <trkpt lat="46.9747" lon="8.76277">
        <ele>617</ele>
        <time>2021-08-05T12:21:57.173Z</time>
      </trkpt>
      <trkpt lat="46.9747" lon="8.76278">
        <ele>617</ele>
        <time>2021-08-05T12:21:58.173Z</time>
      </trkpt>
      <trkpt lat="46.9747" lon="8.76279">
        <ele>617</ele>
        <time>2021-08-05T12:21:59.174Z</time>
      </trkpt>
      <trkpt lat="46.9747" lon="8.7628">
        <ele>617</ele>
        <time>2021-08-05T12:22:00.174Z</time>
      </trkpt>
      <trkpt lat="46.97471" lon="8.7628">
        <ele>617</ele>
        <time>2021-08-05T12:22:01.174Z</time>
      </trkpt>
      <trkpt lat="46.97472" lon="8.7628">
        <ele>617</ele>
        <time>2021-08-05T12:22:02.173Z</time>
      </trkpt>
      <trkpt lat="46.97473" lon="8.7628">
        <ele>617</ele>
        <time>2021-08-05T12:22:03.173Z</time>
      </trkpt>
      <trkpt lat="46.97474" lon="8.7628">
        <ele>617</ele>
        <time>2021-08-05T12:22:04.174Z</time>
      </trkpt>
      <trkpt lat="46.97476" lon="8.7628">
        <ele>617</ele>
        <time>2021-08-05T12:22:05.174Z</time>
      </trkpt>
      <trkpt lat="46.97476" lon="8.76281">
        <ele>617</ele>
        <time>2021-08-05T12:22:06.174Z</time>
      </trkpt>
      <trkpt lat="46.97476" lon="8.76281">
        <ele>617</ele>
        <time>2021-08-05T12:22:07.173Z</time>
      </trkpt>
      <trkpt lat="46.97475" lon="8.76283">
        <ele>617</ele>
        <time>2021-08-05T12:22:08.173Z</time>
      </trkpt>
      <trkpt lat="46.97474" lon="8.76283">
        <ele>617</ele>
        <time>2021-08-05T12:22:09.174Z</time>
      </trkpt>
      <trkpt lat="46.97474" lon="8.76282">
        <ele>618</ele>
        <time>2021-08-05T12:22:10.173Z</time>
      </trkpt>
      <trkpt lat="46.97475" lon="8.76282">
        <ele>618</ele>
        <time>2021-08-05T12:22:11.173Z</time>
      </trkpt>
      <trkpt lat="46.97475" lon="8.76282">
        <ele>618</ele>
        <time>2021-08-05T12:22:12.174Z</time>
      </trkpt>
      <trkpt lat="46.97476" lon="8.76281">
        <ele>618</ele>
        <time>2021-08-05T12:22:13.174Z</time>
      </trkpt>
      <trkpt lat="46.97476" lon="8.76281">
        <ele>618</ele>
        <time>2021-08-05T12:22:14.174Z</time>
      </trkpt>
      <trkpt lat="46.97477" lon="8.76281">
        <ele>618</ele>
        <time>2021-08-05T12:22:15.173Z</time>
      </trkpt>
      <trkpt lat="46.97477" lon="8.76281">
        <ele>619</ele>
        <time>2021-08-05T12:22:16.174Z</time>
      </trkpt>
      <trkpt lat="46.97478" lon="8.76281">
        <ele>620</ele>
        <time>2021-08-05T12:22:17.176Z</time>
      </trkpt>
      <trkpt lat="46.97478" lon="8.76281">
        <ele>620</ele>
        <time>2021-08-05T12:22:18.176Z</time>
      </trkpt>
      <trkpt lat="46.97478" lon="8.76281">
        <ele>620</ele>
        <time>2021-08-05T12:22:19.176Z</time>
      </trkpt>
      <trkpt lat="46.97478" lon="8.76281">
        <ele>620</ele>
        <time>2021-08-05T12:22:20.176Z</time>
      </trkpt>
      <trkpt lat="46.97479" lon="8.76281">
        <ele>621</ele>
        <time>2021-08-05T12:22:21.175Z</time>
      </trkpt>
      <trkpt lat="46.97478" lon="8.76282">
        <ele>621</ele>
        <time>2021-08-05T12:22:22.177Z</time>
      </trkpt>
      <trkpt lat="46.97478" lon="8.76283">
        <ele>621</ele>
        <time>2021-08-05T12:22:23.178Z</time>
      </trkpt>
      <trkpt lat="46.97477" lon="8.76283">
        <ele>622</ele>
        <time>2021-08-05T12:22:24.178Z</time>
      </trkpt>
      <trkpt lat="46.97487" lon="8.76285">
        <ele>628</ele>
        <time>2021-08-05T12:22:25.179Z</time>
      </trkpt>
      <trkpt lat="46.97487" lon="8.76286">
        <ele>627</ele>
        <time>2021-08-05T12:22:26.179Z</time>
      </trkpt>
      <trkpt lat="46.97485" lon="8.76286">
        <ele>626</ele>
        <time>2021-08-05T12:22:27.180Z</time>
      </trkpt>
      <trkpt lat="46.97483" lon="8.76287">
        <ele>626</ele>
        <time>2021-08-05T12:22:28.179Z</time>
      </trkpt>
      <trkpt lat="46.97485" lon="8.76286">
        <ele>615</ele>
        <time>2021-08-05T12:22:29.182Z</time>
      </trkpt>
      <trkpt lat="46.97485" lon="8.76286">
        <ele>615</ele>
        <time>2021-08-05T12:22:30.182Z</time>
      </trkpt>
      <trkpt lat="46.97486" lon="8.76285">
        <ele>614</ele>
        <time>2021-08-05T12:22:31.182Z</time>
      </trkpt>
      <trkpt lat="46.97486" lon="8.76285">
        <ele>614</ele>
        <time>2021-08-05T12:22:32.181Z</time>
      </trkpt>
      <trkpt lat="46.97486" lon="8.76285">
        <ele>613</ele>
        <time>2021-08-05T12:22:33.182Z</time>
      </trkpt>
      <trkpt lat="46.97485" lon="8.76285">
        <ele>611</ele>
        <time>2021-08-05T12:22:34.183Z</time>
      </trkpt>
      <trkpt lat="46.97485" lon="8.76284">
        <ele>610</ele>
        <time>2021-08-05T12:22:35.183Z</time>
      </trkpt>
      <trkpt lat="46.9748" lon="8.76284">
        <ele>606</ele>
        <time>2021-08-05T12:22:36.184Z</time>
      </trkpt>
      <trkpt lat="46.97478" lon="8.76285">
        <ele>606</ele>
        <time>2021-08-05T12:22:37.184Z</time>
      </trkpt>
      <trkpt lat="46.97473" lon="8.76286">
        <ele>603</ele>
        <time>2021-08-05T12:22:38.185Z</time>
      </trkpt>
      <trkpt lat="46.97472" lon="8.76287">
        <ele>603</ele>
        <time>2021-08-05T12:22:39.185Z</time>
      </trkpt>
      <trkpt lat="46.97471" lon="8.76289">
        <ele>603</ele>
        <time>2021-08-05T12:22:40.184Z</time>
      </trkpt>
      <trkpt lat="46.97469" lon="8.7629">
        <ele>602</ele>
        <time>2021-08-05T12:22:41.185Z</time>
      </trkpt>
      <trkpt lat="46.97468" lon="8.76291">
        <ele>602</ele>
        <time>2021-08-05T12:22:42.185Z</time>
      </trkpt>
      <trkpt lat="46.97466" lon="8.76292">
        <ele>601</ele>
        <time>2021-08-05T12:22:43.184Z</time>
      </trkpt>
      <trkpt lat="46.97465" lon="8.76293">
        <ele>601</ele>
        <time>2021-08-05T12:22:44.185Z</time>
      </trkpt>
      <trkpt lat="46.97464" lon="8.76295">
        <ele>601</ele>
        <time>2021-08-05T12:22:45.185Z</time>
      </trkpt>
      <trkpt lat="46.97464" lon="8.76296">
        <ele>600</ele>
        <time>2021-08-05T12:22:46.184Z</time>
      </trkpt>
      <trkpt lat="46.97464" lon="8.76297">
        <ele>600</ele>
        <time>2021-08-05T12:22:47.185Z</time>
      </trkpt>
      <trkpt lat="46.97464" lon="8.76298">
        <ele>601</ele>
        <time>2021-08-05T12:22:48.185Z</time>
      </trkpt>
      <trkpt lat="46.97464" lon="8.76299">
        <ele>601</ele>
        <time>2021-08-05T12:22:49.184Z</time>
      </trkpt>
      <trkpt lat="46.97465" lon="8.763">
        <ele>601</ele>
        <time>2021-08-05T12:22:50.185Z</time>
      </trkpt>
      <trkpt lat="46.97465" lon="8.76301">
        <ele>601</ele>
        <time>2021-08-05T12:22:51.184Z</time>
      </trkpt>
      <trkpt lat="46.97465" lon="8.76302">
        <ele>600</ele>
        <time>2021-08-05T12:22:52.185Z</time>
      </trkpt>
      <trkpt lat="46.97464" lon="8.76304">
        <ele>600</ele>
        <time>2021-08-05T12:22:53.185Z</time>
      </trkpt>
      <trkpt lat="46.97464" lon="8.76306">
        <ele>600</ele>
        <time>2021-08-05T12:22:54.185Z</time>
      </trkpt>
      <trkpt lat="46.97464" lon="8.76308">
        <ele>600</ele>
        <time>2021-08-05T12:22:55.184Z</time>
      </trkpt>
      <trkpt lat="46.97463" lon="8.76311">
        <ele>600</ele>
        <time>2021-08-05T12:22:56.185Z</time>
      </trkpt>
      <trkpt lat="46.97464" lon="8.76313">
        <ele>602</ele>
        <time>2021-08-05T12:22:57.184Z</time>
      </trkpt>
      <trkpt lat="46.97464" lon="8.76314">
        <ele>603</ele>
        <time>2021-08-05T12:22:58.184Z</time>
      </trkpt>
      <trkpt lat="46.97465" lon="8.76315">
        <ele>604</ele>
        <time>2021-08-05T12:22:59.185Z</time>
      </trkpt>
      <trkpt lat="46.97466" lon="8.76316">
        <ele>605</ele>
        <time>2021-08-05T12:23:00.184Z</time>
      </trkpt>
      <trkpt lat="46.97465" lon="8.76317">
        <ele>606</ele>
        <time>2021-08-05T12:23:01.184Z</time>
      </trkpt>
      <trkpt lat="46.97465" lon="8.76318">
        <ele>607</ele>
        <time>2021-08-05T12:23:02.184Z</time>
      </trkpt>
      <trkpt lat="46.97465" lon="8.76319">
        <ele>608</ele>
        <time>2021-08-05T12:23:03.184Z</time>
      </trkpt>
      <trkpt lat="46.97464" lon="8.7632">
        <ele>608</ele>
        <time>2021-08-05T12:23:04.184Z</time>
      </trkpt>
      <trkpt lat="46.97463" lon="8.76321">
        <ele>609</ele>
        <time>2021-08-05T12:23:05.184Z</time>
      </trkpt>
      <trkpt lat="46.97463" lon="8.76322">
        <ele>609</ele>
        <time>2021-08-05T12:23:06.184Z</time>
      </trkpt>
      <trkpt lat="46.97462" lon="8.76324">
        <ele>610</ele>
        <time>2021-08-05T12:23:07.184Z</time>
      </trkpt>
      <trkpt lat="46.97461" lon="8.76326">
        <ele>610</ele>
        <time>2021-08-05T12:23:08.184Z</time>
      </trkpt>
      <trkpt lat="46.9746" lon="8.76328">
        <ele>610</ele>
        <time>2021-08-05T12:23:09.184Z</time>
      </trkpt>
      <trkpt lat="46.97459" lon="8.76329">
        <ele>611</ele>
        <time>2021-08-05T12:23:10.184Z</time>
      </trkpt>
      <trkpt lat="46.97458" lon="8.76331">
        <ele>611</ele>
        <time>2021-08-05T12:23:11.184Z</time>
      </trkpt>
      <trkpt lat="46.97458" lon="8.76333">
        <ele>612</ele>
        <time>2021-08-05T12:23:12.185Z</time>
      </trkpt>
      <trkpt lat="46.97457" lon="8.76335">
        <ele>612</ele>
        <time>2021-08-05T12:23:13.185Z</time>
      </trkpt>
      <trkpt lat="46.97456" lon="8.76337">
        <ele>613</ele>
        <time>2021-08-05T12:23:14.185Z</time>
      </trkpt>
      <trkpt lat="46.97456" lon="8.76338">
        <ele>613</ele>
        <time>2021-08-05T12:23:15.185Z</time>
      </trkpt>
      <trkpt lat="46.97455" lon="8.76339">
        <ele>613</ele>
        <time>2021-08-05T12:23:16.185Z</time>
      </trkpt>
      <trkpt lat="46.97455" lon="8.7634">
        <ele>613</ele>
        <time>2021-08-05T12:23:17.185Z</time>
      </trkpt>
      <trkpt lat="46.97454" lon="8.76341">
        <ele>613</ele>
        <time>2021-08-05T12:23:18.184Z</time>
      </trkpt>
      <trkpt lat="46.97453" lon="8.76343">
        <ele>613</ele>
        <time>2021-08-05T12:23:19.184Z</time>
      </trkpt>
      <trkpt lat="46.97453" lon="8.76346">
        <ele>614</ele>
        <time>2021-08-05T12:23:20.185Z</time>
      </trkpt>
      <trkpt lat="46.97452" lon="8.76348">
        <ele>614</ele>
        <time>2021-08-05T12:23:21.184Z</time>
      </trkpt>
      <trkpt lat="46.97451" lon="8.7635">
        <ele>614</ele>
        <time>2021-08-05T12:23:22.185Z</time>
      </trkpt>
      <trkpt lat="46.97451" lon="8.76351">
        <ele>614</ele>
        <time>2021-08-05T12:23:23.185Z</time>
      </trkpt>
      <trkpt lat="46.97451" lon="8.76352">
        <ele>615</ele>
        <time>2021-08-05T12:23:24.185Z</time>
      </trkpt>
      <trkpt lat="46.97451" lon="8.76353">
        <ele>615</ele>
        <time>2021-08-05T12:23:25.185Z</time>
      </trkpt>
      <trkpt lat="46.97451" lon="8.76354">
        <ele>616</ele>
        <time>2021-08-05T12:23:26.185Z</time>
      </trkpt>
      <trkpt lat="46.97452" lon="8.76355">
        <ele>617</ele>
        <time>2021-08-05T12:23:27.185Z</time>
      </trkpt>
      <trkpt lat="46.97452" lon="8.76357">
        <ele>617</ele>
        <time>2021-08-05T12:23:28.185Z</time>
      </trkpt>
      <trkpt lat="46.97453" lon="8.76358">
        <ele>618</ele>
        <time>2021-08-05T12:23:29.184Z</time>
      </trkpt>
      <trkpt lat="46.97453" lon="8.76359">
        <ele>619</ele>
        <time>2021-08-05T12:23:30.185Z</time>
      </trkpt>
      <trkpt lat="46.97452" lon="8.76361">
        <ele>620</ele>
        <time>2021-08-05T12:23:31.185Z</time>
      </trkpt>
      <trkpt lat="46.97452" lon="8.76362">
        <ele>620</ele>
        <time>2021-08-05T12:23:32.185Z</time>
      </trkpt>
      <trkpt lat="46.97452" lon="8.76363">
        <ele>620</ele>
        <time>2021-08-05T12:23:33.184Z</time>
      </trkpt>
      <trkpt lat="46.97452" lon="8.76365">
        <ele>621</ele>
        <time>2021-08-05T12:23:34.185Z</time>
      </trkpt>
      <trkpt lat="46.97452" lon="8.76366">
        <ele>621</ele>
        <time>2021-08-05T12:23:35.185Z</time>
      </trkpt>
      <trkpt lat="46.97452" lon="8.76367">
        <ele>621</ele>
        <time>2021-08-05T12:23:36.185Z</time>
      </trkpt>
      <trkpt lat="46.97452" lon="8.76368">
        <ele>621</ele>
        <time>2021-08-05T12:23:37.184Z</time>
      </trkpt>
      <trkpt lat="46.97452" lon="8.76369">
        <ele>621</ele>
        <time>2021-08-05T12:23:38.185Z</time>
      </trkpt>
      <trkpt lat="46.97452" lon="8.76371">
        <ele>621</ele>
        <time>2021-08-05T12:23:39.184Z</time>
      </trkpt>
      <trkpt lat="46.97452" lon="8.76372">
        <ele>621</ele>
        <time>2021-08-05T12:23:40.184Z</time>
      </trkpt>
      <trkpt lat="46.97451" lon="8.76374">
        <ele>621</ele>
        <time>2021-08-05T12:23:41.184Z</time>
      </trkpt>
      <trkpt lat="46.97451" lon="8.76376">
        <ele>621</ele>
        <time>2021-08-05T12:23:42.185Z</time>
      </trkpt>
      <trkpt lat="46.97451" lon="8.76377">
        <ele>620</ele>
        <time>2021-08-05T12:23:43.184Z</time>
      </trkpt>
      <trkpt lat="46.97452" lon="8.76378">
        <ele>620</ele>
        <time>2021-08-05T12:23:44.184Z</time>
      </trkpt>
      <trkpt lat="46.97451" lon="8.76379">
        <ele>621</ele>
        <time>2021-08-05T12:23:45.184Z</time>
      </trkpt>
      <trkpt lat="46.97451" lon="8.76381">
        <ele>621</ele>
        <time>2021-08-05T12:23:49.203Z</time>
      </trkpt>
      <trkpt lat="46.97451" lon="8.76382">
        <ele>621</ele>
        <time>2021-08-05T12:23:50.203Z</time>
      </trkpt>
      <trkpt lat="46.97451" lon="8.76384">
        <ele>621</ele>
        <time>2021-08-05T12:23:51.203Z</time>
      </trkpt>
      <trkpt lat="46.9745" lon="8.76386">
        <ele>622</ele>
        <time>2021-08-05T12:23:52.203Z</time>
      </trkpt>
      <trkpt lat="46.97449" lon="8.76388">
        <ele>621</ele>
        <time>2021-08-05T12:23:53.203Z</time>
      </trkpt>
      <trkpt lat="46.97448" lon="8.7639">
        <ele>621</ele>
        <time>2021-08-05T12:23:54.203Z</time>
      </trkpt>
      <trkpt lat="46.97448" lon="8.76392">
        <ele>621</ele>
        <time>2021-08-05T12:23:55.204Z</time>
      </trkpt>
      <trkpt lat="46.97447" lon="8.76394">
        <ele>621</ele>
        <time>2021-08-05T12:23:56.204Z</time>
      </trkpt>
      <trkpt lat="46.97448" lon="8.76396">
        <ele>621</ele>
        <time>2021-08-05T12:23:57.204Z</time>
      </trkpt>
      <trkpt lat="46.97447" lon="8.76399">
        <ele>621</ele>
        <time>2021-08-05T12:23:58.204Z</time>
      </trkpt>
      <trkpt lat="46.97447" lon="8.764">
        <ele>621</ele>
        <time>2021-08-05T12:23:59.203Z</time>
      </trkpt>
      <trkpt lat="46.97447" lon="8.76402">
        <ele>621</ele>
        <time>2021-08-05T12:24:00.204Z</time>
      </trkpt>
      <trkpt lat="46.97446" lon="8.76404">
        <ele>621</ele>
        <time>2021-08-05T12:24:01.204Z</time>
      </trkpt>
      <trkpt lat="46.97446" lon="8.76406">
        <ele>620</ele>
        <time>2021-08-05T12:24:02.204Z</time>
      </trkpt>
      <trkpt lat="46.97446" lon="8.76407">
        <ele>620</ele>
        <time>2021-08-05T12:24:03.203Z</time>
      </trkpt>
      <trkpt lat="46.97446" lon="8.76408">
        <ele>620</ele>
        <time>2021-08-05T12:24:04.204Z</time>
      </trkpt>
      <trkpt lat="46.97445" lon="8.7641">
        <ele>620</ele>
        <time>2021-08-05T12:24:05.204Z</time>
      </trkpt>
      <trkpt lat="46.97445" lon="8.76411">
        <ele>621</ele>
        <time>2021-08-05T12:24:06.203Z</time>
      </trkpt>
      <trkpt lat="46.97444" lon="8.76413">
        <ele>620</ele>
        <time>2021-08-05T12:24:07.204Z</time>
      </trkpt>
      <trkpt lat="46.97443" lon="8.76415">
        <ele>620</ele>
        <time>2021-08-05T12:24:08.204Z</time>
      </trkpt>
      <trkpt lat="46.97443" lon="8.76417">
        <ele>620</ele>
        <time>2021-08-05T12:24:09.204Z</time>
      </trkpt>
      <trkpt lat="46.97442" lon="8.76419">
        <ele>620</ele>
        <time>2021-08-05T12:24:10.204Z</time>
      </trkpt>
      <trkpt lat="46.97442" lon="8.7642">
        <ele>620</ele>
        <time>2021-08-05T12:24:11.204Z</time>
      </trkpt>
      <trkpt lat="46.97442" lon="8.76421">
        <ele>620</ele>
        <time>2021-08-05T12:24:12.204Z</time>
      </trkpt>
      <trkpt lat="46.97442" lon="8.76422">
        <ele>621</ele>
        <time>2021-08-05T12:24:13.204Z</time>
      </trkpt>
      <trkpt lat="46.97442" lon="8.76424">
        <ele>621</ele>
        <time>2021-08-05T12:24:14.204Z</time>
      </trkpt>
      <trkpt lat="46.97442" lon="8.76426">
        <ele>621</ele>
        <time>2021-08-05T12:24:15.203Z</time>
      </trkpt>
      <trkpt lat="46.9744" lon="8.76428">
        <ele>621</ele>
        <time>2021-08-05T12:24:16.204Z</time>
      </trkpt>
      <trkpt lat="46.9744" lon="8.76429">
        <ele>621</ele>
        <time>2021-08-05T12:24:17.203Z</time>
      </trkpt>
      <trkpt lat="46.9744" lon="8.7643">
        <ele>621</ele>
        <time>2021-08-05T12:24:18.204Z</time>
      </trkpt>
      <trkpt lat="46.97439" lon="8.76432">
        <ele>620</ele>
        <time>2021-08-05T12:24:19.203Z</time>
      </trkpt>
      <trkpt lat="46.9744" lon="8.76433">
        <ele>620</ele>
        <time>2021-08-05T12:24:20.204Z</time>
      </trkpt>
      <trkpt lat="46.9744" lon="8.76435">
        <ele>620</ele>
        <time>2021-08-05T12:24:21.204Z</time>
      </trkpt>
      <trkpt lat="46.9744" lon="8.76436">
        <ele>620</ele>
        <time>2021-08-05T12:24:22.204Z</time>
      </trkpt>
      <trkpt lat="46.9744" lon="8.76438">
        <ele>620</ele>
        <time>2021-08-05T12:24:23.204Z</time>
      </trkpt>
      <trkpt lat="46.97439" lon="8.7644">
        <ele>621</ele>
        <time>2021-08-05T12:24:24.204Z</time>
      </trkpt>
      <trkpt lat="46.97439" lon="8.76442">
        <ele>621</ele>
        <time>2021-08-05T12:24:25.204Z</time>
      </trkpt>
      <trkpt lat="46.97438" lon="8.76443">
        <ele>620</ele>
        <time>2021-08-05T12:24:26.203Z</time>
      </trkpt>
      <trkpt lat="46.97438" lon="8.76445">
        <ele>620</ele>
        <time>2021-08-05T12:24:27.204Z</time>
      </trkpt>
      <trkpt lat="46.97437" lon="8.76446">
        <ele>619</ele>
        <time>2021-08-05T12:24:28.204Z</time>
      </trkpt>
      <trkpt lat="46.97437" lon="8.76448">
        <ele>618</ele>
        <time>2021-08-05T12:24:29.204Z</time>
      </trkpt>
      <trkpt lat="46.97437" lon="8.76449">
        <ele>617</ele>
        <time>2021-08-05T12:24:30.204Z</time>
      </trkpt>
      <trkpt lat="46.97436" lon="8.76451">
        <ele>616</ele>
        <time>2021-08-05T12:24:31.203Z</time>
      </trkpt>
      <trkpt lat="46.97435" lon="8.76453">
        <ele>616</ele>
        <time>2021-08-05T12:24:32.203Z</time>
      </trkpt>
      <trkpt lat="46.97435" lon="8.76454">
        <ele>615</ele>
        <time>2021-08-05T12:24:33.204Z</time>
      </trkpt>
      <trkpt lat="46.97434" lon="8.76457">
        <ele>615</ele>
        <time>2021-08-05T12:24:34.203Z</time>
      </trkpt>
      <trkpt lat="46.97434" lon="8.76459">
        <ele>614</ele>
        <time>2021-08-05T12:24:35.203Z</time>
      </trkpt>
      <trkpt lat="46.97434" lon="8.76461">
        <ele>614</ele>
        <time>2021-08-05T12:24:36.204Z</time>
      </trkpt>
      <trkpt lat="46.97433" lon="8.76463">
        <ele>614</ele>
        <time>2021-08-05T12:24:37.204Z</time>
      </trkpt>
      <trkpt lat="46.97432" lon="8.76465">
        <ele>614</ele>
        <time>2021-08-05T12:24:38.203Z</time>
      </trkpt>
      <trkpt lat="46.97431" lon="8.76467">
        <ele>614</ele>
        <time>2021-08-05T12:24:39.204Z</time>
      </trkpt>
      <trkpt lat="46.97431" lon="8.76468">
        <ele>614</ele>
        <time>2021-08-05T12:24:40.204Z</time>
      </trkpt>
      <trkpt lat="46.9743" lon="8.7647">
        <ele>614</ele>
        <time>2021-08-05T12:24:41.204Z</time>
      </trkpt>
      <trkpt lat="46.97429" lon="8.76472">
        <ele>614</ele>
        <time>2021-08-05T12:24:42.204Z</time>
      </trkpt>
      <trkpt lat="46.97429" lon="8.76473">
        <ele>614</ele>
        <time>2021-08-05T12:24:43.204Z</time>
      </trkpt>
      <trkpt lat="46.97429" lon="8.76475">
        <ele>614</ele>
        <time>2021-08-05T12:24:44.204Z</time>
      </trkpt>
      <trkpt lat="46.97429" lon="8.76477">
        <ele>614</ele>
        <time>2021-08-05T12:24:45.204Z</time>
      </trkpt>
      <trkpt lat="46.97428" lon="8.76479">
        <ele>615</ele>
        <time>2021-08-05T12:24:46.203Z</time>
      </trkpt>
      <trkpt lat="46.97428" lon="8.7648">
        <ele>615</ele>
        <time>2021-08-05T12:24:47.204Z</time>
      </trkpt>
      <trkpt lat="46.97427" lon="8.76483">
        <ele>615</ele>
        <time>2021-08-05T12:24:48.203Z</time>
      </trkpt>
      <trkpt lat="46.97427" lon="8.76484">
        <ele>616</ele>
        <time>2021-08-05T12:24:49.204Z</time>
      </trkpt>
      <trkpt lat="46.97427" lon="8.76486">
        <ele>616</ele>
        <time>2021-08-05T12:24:50.204Z</time>
      </trkpt>
      <trkpt lat="46.97427" lon="8.76489">
        <ele>616</ele>
        <time>2021-08-05T12:24:51.203Z</time>
      </trkpt>
      <trkpt lat="46.97426" lon="8.76491">
        <ele>617</ele>
        <time>2021-08-05T12:24:52.203Z</time>
      </trkpt>
      <trkpt lat="46.97426" lon="8.76494">
        <ele>617</ele>
        <time>2021-08-05T12:24:53.203Z</time>
      </trkpt>
      <trkpt lat="46.97425" lon="8.76496">
        <ele>617</ele>
        <time>2021-08-05T12:24:54.203Z</time>
      </trkpt>
      <trkpt lat="46.97425" lon="8.76498">
        <ele>617</ele>
        <time>2021-08-05T12:24:55.203Z</time>
      </trkpt>
      <trkpt lat="46.97423" lon="8.765">
        <ele>617</ele>
        <time>2021-08-05T12:24:56.203Z</time>
      </trkpt>
      <trkpt lat="46.97422" lon="8.76502">
        <ele>617</ele>
        <time>2021-08-05T12:24:57.204Z</time>
      </trkpt>
      <trkpt lat="46.97422" lon="8.76504">
        <ele>617</ele>
        <time>2021-08-05T12:24:58.203Z</time>
      </trkpt>
      <trkpt lat="46.97421" lon="8.76506">
        <ele>616</ele>
        <time>2021-08-05T12:24:59.204Z</time>
      </trkpt>
      <trkpt lat="46.97421" lon="8.76508">
        <ele>616</ele>
        <time>2021-08-05T12:25:00.204Z</time>
      </trkpt>
      <trkpt lat="46.97421" lon="8.76511">
        <ele>616</ele>
        <time>2021-08-05T12:25:01.203Z</time>
      </trkpt>
      <trkpt lat="46.97421" lon="8.76513">
        <ele>616</ele>
        <time>2021-08-05T12:25:02.203Z</time>
      </trkpt>
      <trkpt lat="46.97421" lon="8.76515">
        <ele>617</ele>
        <time>2021-08-05T12:25:03.203Z</time>
      </trkpt>
      <trkpt lat="46.9742" lon="8.76517">
        <ele>617</ele>
        <time>2021-08-05T12:25:04.203Z</time>
      </trkpt>
      <trkpt lat="46.9742" lon="8.76519">
        <ele>618</ele>
        <time>2021-08-05T12:25:05.204Z</time>
      </trkpt>
      <trkpt lat="46.9742" lon="8.76521">
        <ele>618</ele>
        <time>2021-08-05T12:25:06.203Z</time>
      </trkpt>
      <trkpt lat="46.97419" lon="8.76522">
        <ele>618</ele>
        <time>2021-08-05T12:25:07.204Z</time>
      </trkpt>
      <trkpt lat="46.97419" lon="8.76524">
        <ele>618</ele>
        <time>2021-08-05T12:25:08.204Z</time>
      </trkpt>
      <trkpt lat="46.97418" lon="8.76526">
        <ele>618</ele>
        <time>2021-08-05T12:25:09.204Z</time>
      </trkpt>
      <trkpt lat="46.97418" lon="8.76527">
        <ele>617</ele>
        <time>2021-08-05T12:25:10.203Z</time>
      </trkpt>
      <trkpt lat="46.97418" lon="8.76528">
        <ele>617</ele>
        <time>2021-08-05T12:25:11.204Z</time>
      </trkpt>
      <trkpt lat="46.97419" lon="8.76531">
        <ele>617</ele>
        <time>2021-08-05T12:25:12.203Z</time>
      </trkpt>
      <trkpt lat="46.97419" lon="8.76532">
        <ele>617</ele>
        <time>2021-08-05T12:25:13.204Z</time>
      </trkpt>
      <trkpt lat="46.97418" lon="8.76533">
        <ele>617</ele>
        <time>2021-08-05T12:25:14.204Z</time>
      </trkpt>
      <trkpt lat="46.97418" lon="8.76534">
        <ele>617</ele>
        <time>2021-08-05T12:25:15.204Z</time>
      </trkpt>
      <trkpt lat="46.97418" lon="8.76535">
        <ele>617</ele>
        <time>2021-08-05T12:25:16.204Z</time>
      </trkpt>
      <trkpt lat="46.97418" lon="8.76535">
        <ele>618</ele>
        <time>2021-08-05T12:25:17.204Z</time>
      </trkpt>
      <trkpt lat="46.97418" lon="8.76535">
        <ele>618</ele>
        <time>2021-08-05T12:25:18.204Z</time>
      </trkpt>
      <trkpt lat="46.97417" lon="8.76535">
        <ele>618</ele>
        <time>2021-08-05T12:25:19.204Z</time>
      </trkpt>
      <trkpt lat="46.97416" lon="8.76535">
        <ele>619</ele>
        <time>2021-08-05T12:25:20.204Z</time>
      </trkpt>
      <trkpt lat="46.97415" lon="8.76534">
        <ele>619</ele>
        <time>2021-08-05T12:25:21.204Z</time>
      </trkpt>
      <trkpt lat="46.97414" lon="8.76534">
        <ele>619</ele>
        <time>2021-08-05T12:25:22.204Z</time>
      </trkpt>
      <trkpt lat="46.97414" lon="8.76534">
        <ele>620</ele>
        <time>2021-08-05T12:25:23.204Z</time>
      </trkpt>
      <trkpt lat="46.97415" lon="8.76535">
        <ele>620</ele>
        <time>2021-08-05T12:25:24.204Z</time>
      </trkpt>
      <trkpt lat="46.97416" lon="8.76536">
        <ele>620</ele>
        <time>2021-08-05T12:25:25.204Z</time>
      </trkpt>
      <trkpt lat="46.97417" lon="8.76537">
        <ele>620</ele>
        <time>2021-08-05T12:25:26.203Z</time>
      </trkpt>
      <trkpt lat="46.97418" lon="8.76537">
        <ele>620</ele>
        <time>2021-08-05T12:25:27.203Z</time>
      </trkpt>
      <trkpt lat="46.97419" lon="8.76536">
        <ele>620</ele>
        <time>2021-08-05T12:25:28.204Z</time>
      </trkpt>
      <trkpt lat="46.97419" lon="8.76535">
        <ele>620</ele>
        <time>2021-08-05T12:25:29.204Z</time>
      </trkpt>
      <trkpt lat="46.97418" lon="8.76534">
        <ele>620</ele>
        <time>2021-08-05T12:25:30.204Z</time>
      </trkpt>
      <trkpt lat="46.97417" lon="8.76532">
        <ele>621</ele>
        <time>2021-08-05T12:25:31.204Z</time>
      </trkpt>
      <trkpt lat="46.97416" lon="8.76531">
        <ele>621</ele>
        <time>2021-08-05T12:25:32.204Z</time>
      </trkpt>
      <trkpt lat="46.97415" lon="8.7653">
        <ele>621</ele>
        <time>2021-08-05T12:25:33.203Z</time>
      </trkpt>
      <trkpt lat="46.97414" lon="8.76529">
        <ele>621</ele>
        <time>2021-08-05T12:25:34.204Z</time>
      </trkpt>
      <trkpt lat="46.97413" lon="8.76527">
        <ele>621</ele>
        <time>2021-08-05T12:25:35.203Z</time>
      </trkpt>
      <trkpt lat="46.97412" lon="8.76525">
        <ele>621</ele>
        <time>2021-08-05T12:25:36.203Z</time>
      </trkpt>
      <trkpt lat="46.97411" lon="8.76524">
        <ele>621</ele>
        <time>2021-08-05T12:25:37.203Z</time>
      </trkpt>
      <trkpt lat="46.9741" lon="8.76522">
        <ele>621</ele>
        <time>2021-08-05T12:25:38.203Z</time>
      </trkpt>
      <trkpt lat="46.97409" lon="8.76521">
        <ele>621</ele>
        <time>2021-08-05T12:25:39.203Z</time>
      </trkpt>
      <trkpt lat="46.97409" lon="8.76518">
        <ele>621</ele>
        <time>2021-08-05T12:25:40.204Z</time>
      </trkpt>
      <trkpt lat="46.97408" lon="8.76514">
        <ele>621</ele>
        <time>2021-08-05T12:25:41.204Z</time>
      </trkpt>
      <trkpt lat="46.97407" lon="8.76513">
        <ele>621</ele>
        <time>2021-08-05T12:25:42.203Z</time>
      </trkpt>
      <trkpt lat="46.97392" lon="8.76544">
        <ele>620</ele>
        <time>2021-08-05T12:26:52.204Z</time>
      </trkpt>
      <trkpt lat="46.97395" lon="8.76526">
        <ele>619</ele>
        <time>2021-08-05T12:26:53.204Z</time>
      </trkpt>
      <trkpt lat="46.97391" lon="8.76519">
        <ele>618</ele>
        <time>2021-08-05T12:26:54.204Z</time>
      </trkpt>
      <trkpt lat="46.97385" lon="8.7652">
        <ele>617</ele>
        <time>2021-08-05T12:26:55.204Z</time>
      </trkpt>
      <trkpt lat="46.97383" lon="8.76519">
        <ele>617</ele>
        <time>2021-08-05T12:26:56.203Z</time>
      </trkpt>
      <trkpt lat="46.9738" lon="8.76517">
        <ele>616</ele>
        <time>2021-08-05T12:26:57.204Z</time>
      </trkpt>
      <trkpt lat="46.97381" lon="8.76508">
        <ele>614</ele>
        <time>2021-08-05T12:27:01.196Z</time>
      </trkpt>
      <trkpt lat="46.97382" lon="8.76506">
        <ele>613</ele>
        <time>2021-08-05T12:27:04.035Z</time>
      </trkpt>
      <trkpt lat="46.97383" lon="8.76506">
        <ele>613</ele>
        <time>2021-08-05T12:27:05.036Z</time>
      </trkpt>
      <trkpt lat="46.97385" lon="8.76506">
        <ele>611</ele>
        <time>2021-08-05T12:27:06.036Z</time>
      </trkpt>
      <trkpt lat="46.97384" lon="8.76507">
        <ele>612</ele>
        <time>2021-08-05T12:27:07.036Z</time>
      </trkpt>
      <trkpt lat="46.97384" lon="8.76508">
        <ele>612</ele>
        <time>2021-08-05T12:27:08.035Z</time>
      </trkpt>
      <trkpt lat="46.97384" lon="8.76508">
        <ele>612</ele>
        <time>2021-08-05T12:27:09.036Z</time>
      </trkpt>
      <trkpt lat="46.97383" lon="8.76507">
        <ele>612</ele>
        <time>2021-08-05T12:27:10.036Z</time>
      </trkpt>
      <trkpt lat="46.97384" lon="8.76507">
        <ele>612</ele>
        <time>2021-08-05T12:27:11.036Z</time>
      </trkpt>
      <trkpt lat="46.97385" lon="8.76506">
        <ele>612</ele>
        <time>2021-08-05T12:27:12.035Z</time>
      </trkpt>
      <trkpt lat="46.97386" lon="8.76506">
        <ele>612</ele>
        <time>2021-08-05T12:27:13.036Z</time>
      </trkpt>
      <trkpt lat="46.97386" lon="8.76506">
        <ele>612</ele>
        <time>2021-08-05T12:27:14.036Z</time>
      </trkpt>
      <trkpt lat="46.97385" lon="8.76506">
        <ele>612</ele>
        <time>2021-08-05T12:27:15.036Z</time>
      </trkpt>
      <trkpt lat="46.97384" lon="8.76507">
        <ele>613</ele>
        <time>2021-08-05T12:27:16.037Z</time>
      </trkpt>
      <trkpt lat="46.97385" lon="8.76507">
        <ele>612</ele>
        <time>2021-08-05T12:27:17.036Z</time>
      </trkpt>
      <trkpt lat="46.97386" lon="8.76507">
        <ele>612</ele>
        <time>2021-08-05T12:27:18.036Z</time>
      </trkpt>
      <trkpt lat="46.97386" lon="8.76507">
        <ele>612</ele>
        <time>2021-08-05T12:27:19.037Z</time>
      </trkpt>
      <trkpt lat="46.97387" lon="8.76507">
        <ele>612</ele>
        <time>2021-08-05T12:27:20.036Z</time>
      </trkpt>
      <trkpt lat="46.97388" lon="8.76507">
        <ele>612</ele>
        <time>2021-08-05T12:27:21.037Z</time>
      </trkpt>
      <trkpt lat="46.97388" lon="8.76507">
        <ele>612</ele>
        <time>2021-08-05T12:27:22.037Z</time>
      </trkpt>
      <trkpt lat="46.97388" lon="8.76506">
        <ele>612</ele>
        <time>2021-08-05T12:27:23.037Z</time>
      </trkpt>
      <trkpt lat="46.97388" lon="8.76506">
        <ele>612</ele>
        <time>2021-08-05T12:27:24.036Z</time>
      </trkpt>
      <trkpt lat="46.97388" lon="8.76507">
        <ele>611</ele>
        <time>2021-08-05T12:27:25.037Z</time>
      </trkpt>
      <trkpt lat="46.97389" lon="8.76508">
        <ele>611</ele>
        <time>2021-08-05T12:27:26.037Z</time>
      </trkpt>
      <trkpt lat="46.97389" lon="8.76509">
        <ele>611</ele>
        <time>2021-08-05T12:27:27.037Z</time>
      </trkpt>
      <trkpt lat="46.9739" lon="8.76509">
        <ele>610</ele>
        <time>2021-08-05T12:27:28.037Z</time>
      </trkpt>
      <trkpt lat="46.97391" lon="8.7651">
        <ele>610</ele>
        <time>2021-08-05T12:27:29.036Z</time>
      </trkpt>
      <trkpt lat="46.97391" lon="8.76511">
        <ele>610</ele>
        <time>2021-08-05T12:27:30.037Z</time>
      </trkpt>
      <trkpt lat="46.97391" lon="8.76511">
        <ele>610</ele>
        <time>2021-08-05T12:27:31.036Z</time>
      </trkpt>
      <trkpt lat="46.97391" lon="8.76512">
        <ele>610</ele>
        <time>2021-08-05T12:27:32.037Z</time>
      </trkpt>
      <trkpt lat="46.97392" lon="8.76513">
        <ele>610</ele>
        <time>2021-08-05T12:27:33.036Z</time>
      </trkpt>
      <trkpt lat="46.97392" lon="8.76513">
        <ele>609</ele>
        <time>2021-08-05T12:27:34.036Z</time>
      </trkpt>
      <trkpt lat="46.97393" lon="8.76513">
        <ele>609</ele>
        <time>2021-08-05T12:27:35.036Z</time>
      </trkpt>
      <trkpt lat="46.97393" lon="8.76514">
        <ele>609</ele>
        <time>2021-08-05T12:27:36.037Z</time>
      </trkpt>
      <trkpt lat="46.97393" lon="8.76515">
        <ele>609</ele>
        <time>2021-08-05T12:27:37.037Z</time>
      </trkpt>
      <trkpt lat="46.97394" lon="8.76516">
        <ele>609</ele>
        <time>2021-08-05T12:27:38.036Z</time>
      </trkpt>
      <trkpt lat="46.97393" lon="8.76517">
        <ele>609</ele>
        <time>2021-08-05T12:27:39.036Z</time>
      </trkpt>
      <trkpt lat="46.97393" lon="8.76518">
        <ele>610</ele>
        <time>2021-08-05T12:27:40.036Z</time>
      </trkpt>
      <trkpt lat="46.97393" lon="8.76519">
        <ele>610</ele>
        <time>2021-08-05T12:27:41.037Z</time>
      </trkpt>
      <trkpt lat="46.97393" lon="8.7652">
        <ele>610</ele>
        <time>2021-08-05T12:27:42.036Z</time>
      </trkpt>
      <trkpt lat="46.97394" lon="8.7652">
        <ele>610</ele>
        <time>2021-08-05T12:27:43.036Z</time>
      </trkpt>
      <trkpt lat="46.97394" lon="8.7652">
        <ele>611</ele>
        <time>2021-08-05T12:27:44.036Z</time>
      </trkpt>
      <trkpt lat="46.97395" lon="8.7652">
        <ele>611</ele>
        <time>2021-08-05T12:27:45.036Z</time>
      </trkpt>
      <trkpt lat="46.97396" lon="8.7652">
        <ele>611</ele>
        <time>2021-08-05T12:27:46.037Z</time>
      </trkpt>
      <trkpt lat="46.97396" lon="8.76521">
        <ele>611</ele>
        <time>2021-08-05T12:27:47.036Z</time>
      </trkpt>
      <trkpt lat="46.97396" lon="8.76521">
        <ele>611</ele>
        <time>2021-08-05T12:27:48.036Z</time>
      </trkpt>
      <trkpt lat="46.97396" lon="8.76522">
        <ele>611</ele>
        <time>2021-08-05T12:27:49.036Z</time>
      </trkpt>
      <trkpt lat="46.97395" lon="8.76523">
        <ele>611</ele>
        <time>2021-08-05T12:27:50.036Z</time>
      </trkpt>
      <trkpt lat="46.97394" lon="8.76524">
        <ele>611</ele>
        <time>2021-08-05T12:27:51.036Z</time>
      </trkpt>
      <trkpt lat="46.97394" lon="8.76525">
        <ele>611</ele>
        <time>2021-08-05T12:27:52.036Z</time>
      </trkpt>
      <trkpt lat="46.97394" lon="8.76525">
        <ele>611</ele>
        <time>2021-08-05T12:27:53.036Z</time>
      </trkpt>
      <trkpt lat="46.97394" lon="8.76525">
        <ele>611</ele>
        <time>2021-08-05T12:27:55.036Z</time>
      </trkpt>
      <trkpt lat="46.974" lon="8.76525">
        <ele>610</ele>
        <time>2021-08-05T12:27:56.037Z</time>
      </trkpt>
      <trkpt lat="46.974" lon="8.76526">
        <ele>610</ele>
        <time>2021-08-05T12:28:00.063Z</time>
      </trkpt>
      <trkpt lat="46.97401" lon="8.76527">
        <ele>610</ele>
        <time>2021-08-05T12:28:01.062Z</time>
      </trkpt>
      <trkpt lat="46.97402" lon="8.76527">
        <ele>610</ele>
        <time>2021-08-05T12:28:02.062Z</time>
      </trkpt>
      <trkpt lat="46.97403" lon="8.76528">
        <ele>610</ele>
        <time>2021-08-05T12:28:03.063Z</time>
      </trkpt>
      <trkpt lat="46.97402" lon="8.76528">
        <ele>610</ele>
        <time>2021-08-05T12:28:04.063Z</time>
      </trkpt>
      <trkpt lat="46.97401" lon="8.76527">
        <ele>610</ele>
        <time>2021-08-05T12:28:05.062Z</time>
      </trkpt>
      <trkpt lat="46.974" lon="8.76527">
        <ele>610</ele>
        <time>2021-08-05T12:28:06.062Z</time>
      </trkpt>
      <trkpt lat="46.97399" lon="8.76526">
        <ele>610</ele>
        <time>2021-08-05T12:28:07.063Z</time>
      </trkpt>
      <trkpt lat="46.97398" lon="8.76525">
        <ele>610</ele>
        <time>2021-08-05T12:28:08.063Z</time>
      </trkpt>
      <trkpt lat="46.97398" lon="8.76525">
        <ele>610</ele>
        <time>2021-08-05T12:28:09.062Z</time>
      </trkpt>
      <trkpt lat="46.97398" lon="8.76525">
        <ele>611</ele>
        <time>2021-08-05T12:28:10.062Z</time>
      </trkpt>
      <trkpt lat="46.97399" lon="8.76524">
        <ele>611</ele>
        <time>2021-08-05T12:28:11.063Z</time>
      </trkpt>
      <trkpt lat="46.97401" lon="8.76524">
        <ele>612</ele>
        <time>2021-08-05T12:28:12.063Z</time>
      </trkpt>
      <trkpt lat="46.97401" lon="8.76524">
        <ele>612</ele>
        <time>2021-08-05T12:28:13.063Z</time>
      </trkpt>
      <trkpt lat="46.97401" lon="8.76524">
        <ele>612</ele>
        <time>2021-08-05T12:28:14.062Z</time>
      </trkpt>
      <trkpt lat="46.97401" lon="8.76523">
        <ele>612</ele>
        <time>2021-08-05T12:28:15.064Z</time>
      </trkpt>
      <trkpt lat="46.97402" lon="8.76523">
        <ele>612</ele>
        <time>2021-08-05T12:28:16.063Z</time>
      </trkpt>
      <trkpt lat="46.97403" lon="8.76522">
        <ele>612</ele>
        <time>2021-08-05T12:28:17.063Z</time>
      </trkpt>
      <trkpt lat="46.97404" lon="8.76522">
        <ele>612</ele>
        <time>2021-08-05T12:28:18.063Z</time>
      </trkpt>
      <trkpt lat="46.97405" lon="8.76521">
        <ele>612</ele>
        <time>2021-08-05T12:28:19.064Z</time>
      </trkpt>
      <trkpt lat="46.97406" lon="8.76522">
        <ele>613</ele>
        <time>2021-08-05T12:28:20.064Z</time>
      </trkpt>
      <trkpt lat="46.97406" lon="8.76522">
        <ele>613</ele>
        <time>2021-08-05T12:28:21.063Z</time>
      </trkpt>
      <trkpt lat="46.97405" lon="8.76523">
        <ele>613</ele>
        <time>2021-08-05T12:28:22.064Z</time>
      </trkpt>
      <trkpt lat="46.97404" lon="8.76523">
        <ele>613</ele>
        <time>2021-08-05T12:28:23.064Z</time>
      </trkpt>
      <trkpt lat="46.97402" lon="8.76524">
        <ele>616</ele>
        <time>2021-08-05T12:28:24.064Z</time>
      </trkpt>
      <trkpt lat="46.97401" lon="8.76524">
        <ele>616</ele>
        <time>2021-08-05T12:28:25.064Z</time>
      </trkpt>
      <trkpt lat="46.974" lon="8.76525">
        <ele>617</ele>
        <time>2021-08-05T12:28:26.063Z</time>
      </trkpt>
      <trkpt lat="46.97399" lon="8.76526">
        <ele>617</ele>
        <time>2021-08-05T12:28:27.064Z</time>
      </trkpt>
      <trkpt lat="46.97395" lon="8.76528">
        <ele>618</ele>
        <time>2021-08-05T12:28:28.064Z</time>
      </trkpt>
      <trkpt lat="46.97391" lon="8.76529">
        <ele>618</ele>
        <time>2021-08-05T12:28:29.064Z</time>
      </trkpt>
      <trkpt lat="46.97388" lon="8.7653">
        <ele>618</ele>
        <time>2021-08-05T12:28:30.063Z</time>
      </trkpt>
      <trkpt lat="46.97386" lon="8.7653">
        <ele>619</ele>
        <time>2021-08-05T12:28:31.063Z</time>
      </trkpt>
      <trkpt lat="46.97385" lon="8.76531">
        <ele>619</ele>
        <time>2021-08-05T12:28:32.063Z</time>
      </trkpt>
      <trkpt lat="46.97383" lon="8.7653">
        <ele>620</ele>
        <time>2021-08-05T12:28:34.064Z</time>
      </trkpt>
      <trkpt lat="46.97382" lon="8.76529">
        <ele>620</ele>
        <time>2021-08-05T12:28:35.064Z</time>
      </trkpt>
      <trkpt lat="46.97381" lon="8.76528">
        <ele>620</ele>
        <time>2021-08-05T12:28:36.063Z</time>
      </trkpt>
      <trkpt lat="46.9738" lon="8.76528">
        <ele>620</ele>
        <time>2021-08-05T12:28:37.064Z</time>
      </trkpt>
      <trkpt lat="46.97379" lon="8.76528">
        <ele>620</ele>
        <time>2021-08-05T12:28:38.064Z</time>
      </trkpt>
      <trkpt lat="46.97381" lon="8.76527">
        <ele>620</ele>
        <time>2021-08-05T12:28:39.064Z</time>
      </trkpt>
      <trkpt lat="46.97384" lon="8.76528">
        <ele>620</ele>
        <time>2021-08-05T12:28:40.064Z</time>
      </trkpt>
      <trkpt lat="46.97386" lon="8.76528">
        <ele>619</ele>
        <time>2021-08-05T12:28:41.064Z</time>
      </trkpt>
      <trkpt lat="46.97388" lon="8.76528">
        <ele>619</ele>
        <time>2021-08-05T12:28:42.064Z</time>
      </trkpt>
      <trkpt lat="46.97391" lon="8.76527">
        <ele>617</ele>
        <time>2021-08-05T12:28:43.064Z</time>
      </trkpt>
      <trkpt lat="46.97391" lon="8.76527">
        <ele>617</ele>
        <time>2021-08-05T12:28:44.064Z</time>
      </trkpt>
      <trkpt lat="46.97391" lon="8.76527">
        <ele>616</ele>
        <time>2021-08-05T12:28:45.063Z</time>
      </trkpt>
      <trkpt lat="46.97391" lon="8.76528">
        <ele>616</ele>
        <time>2021-08-05T12:28:46.063Z</time>
      </trkpt>
      <trkpt lat="46.9739" lon="8.76528">
        <ele>615</ele>
        <time>2021-08-05T12:28:47.063Z</time>
      </trkpt>
      <trkpt lat="46.9739" lon="8.76527">
        <ele>615</ele>
        <time>2021-08-05T12:28:48.063Z</time>
      </trkpt>
      <trkpt lat="46.9739" lon="8.76526">
        <ele>614</ele>
        <time>2021-08-05T12:28:49.064Z</time>
      </trkpt>
      <trkpt lat="46.9739" lon="8.76525">
        <ele>614</ele>
        <time>2021-08-05T12:28:50.064Z</time>
      </trkpt>
      <trkpt lat="46.9739" lon="8.76525">
        <ele>614</ele>
        <time>2021-08-05T12:28:51.064Z</time>
      </trkpt>
      <trkpt lat="46.9739" lon="8.76524">
        <ele>614</ele>
        <time>2021-08-05T12:28:52.065Z</time>
      </trkpt>
      <trkpt lat="46.97391" lon="8.76523">
        <ele>614</ele>
        <time>2021-08-05T12:28:53.065Z</time>
      </trkpt>
      <trkpt lat="46.97391" lon="8.76523">
        <ele>614</ele>
        <time>2021-08-05T12:28:54.065Z</time>
      </trkpt>
      <trkpt lat="46.9739" lon="8.76523">
        <ele>614</ele>
        <time>2021-08-05T12:28:55.064Z</time>
      </trkpt>
      <trkpt lat="46.97389" lon="8.76524">
        <ele>615</ele>
        <time>2021-08-05T12:28:56.065Z</time>
      </trkpt>
      <trkpt lat="46.97388" lon="8.76525">
        <ele>615</ele>
        <time>2021-08-05T12:28:57.065Z</time>
      </trkpt>
      <trkpt lat="46.97387" lon="8.76526">
        <ele>615</ele>
        <time>2021-08-05T12:28:58.064Z</time>
      </trkpt>
      <trkpt lat="46.97385" lon="8.76527">
        <ele>615</ele>
        <time>2021-08-05T12:28:59.065Z</time>
      </trkpt>
      <trkpt lat="46.97383" lon="8.76528">
        <ele>615</ele>
        <time>2021-08-05T12:29:00.065Z</time>
      </trkpt>
      <trkpt lat="46.97382" lon="8.76528">
        <ele>616</ele>
        <time>2021-08-05T12:29:01.065Z</time>
      </trkpt>
      <trkpt lat="46.97382" lon="8.76528">
        <ele>616</ele>
        <time>2021-08-05T12:29:02.065Z</time>
      </trkpt>
      <trkpt lat="46.97382" lon="8.76527">
        <ele>616</ele>
        <time>2021-08-05T12:29:03.065Z</time>
      </trkpt>
      <trkpt lat="46.97382" lon="8.76527">
        <ele>617</ele>
        <time>2021-08-05T12:29:04.065Z</time>
      </trkpt>
      <trkpt lat="46.97383" lon="8.76528">
        <ele>617</ele>
        <time>2021-08-05T12:29:05.065Z</time>
      </trkpt>
      <trkpt lat="46.97385" lon="8.76528">
        <ele>618</ele>
        <time>2021-08-05T12:29:06.065Z</time>
      </trkpt>
      <trkpt lat="46.97386" lon="8.76528">
        <ele>618</ele>
        <time>2021-08-05T12:29:07.065Z</time>
      </trkpt>
      <trkpt lat="46.97387" lon="8.76528">
        <ele>619</ele>
        <time>2021-08-05T12:29:08.065Z</time>
      </trkpt>
      <trkpt lat="46.97388" lon="8.76528">
        <ele>619</ele>
        <time>2021-08-05T12:29:09.065Z</time>
      </trkpt>
      <trkpt lat="46.97389" lon="8.76528">
        <ele>620</ele>
        <time>2021-08-05T12:29:10.064Z</time>
      </trkpt>
      <trkpt lat="46.97395" lon="8.76525">
        <ele>622</ele>
        <time>2021-08-05T12:29:11.065Z</time>
      </trkpt>
      <trkpt lat="46.97396" lon="8.76524">
        <ele>622</ele>
        <time>2021-08-05T12:29:12.065Z</time>
      </trkpt>
      <trkpt lat="46.97397" lon="8.76522">
        <ele>622</ele>
        <time>2021-08-05T12:29:13.065Z</time>
      </trkpt>
      <trkpt lat="46.97397" lon="8.7652">
        <ele>623</ele>
        <time>2021-08-05T12:29:14.065Z</time>
      </trkpt>
      <trkpt lat="46.97397" lon="8.76518">
        <ele>623</ele>
        <time>2021-08-05T12:29:15.066Z</time>
      </trkpt>
      <trkpt lat="46.97397" lon="8.76516">
        <ele>623</ele>
        <time>2021-08-05T12:29:16.066Z</time>
      </trkpt>
      <trkpt lat="46.97397" lon="8.76515">
        <ele>623</ele>
        <time>2021-08-05T12:29:17.065Z</time>
      </trkpt>
      <trkpt lat="46.97397" lon="8.76514">
        <ele>623</ele>
        <time>2021-08-05T12:29:18.065Z</time>
      </trkpt>
      <trkpt lat="46.97397" lon="8.76514">
        <ele>623</ele>
        <time>2021-08-05T12:29:19.065Z</time>
      </trkpt>
      <trkpt lat="46.97398" lon="8.76514">
        <ele>623</ele>
        <time>2021-08-05T12:29:20.067Z</time>
      </trkpt>
      <trkpt lat="46.97399" lon="8.76514">
        <ele>623</ele>
        <time>2021-08-05T12:29:21.066Z</time>
      </trkpt>
      <trkpt lat="46.974" lon="8.76514">
        <ele>623</ele>
        <time>2021-08-05T12:29:22.067Z</time>
      </trkpt>
      <trkpt lat="46.974" lon="8.76513">
        <ele>622</ele>
        <time>2021-08-05T12:29:23.066Z</time>
      </trkpt>
      <trkpt lat="46.97401" lon="8.76513">
        <ele>623</ele>
        <time>2021-08-05T12:29:24.067Z</time>
      </trkpt>
      <trkpt lat="46.97401" lon="8.76512">
        <ele>623</ele>
        <time>2021-08-05T12:29:25.066Z</time>
      </trkpt>
      <trkpt lat="46.97401" lon="8.76512">
        <ele>623</ele>
        <time>2021-08-05T12:29:26.066Z</time>
      </trkpt>
      <trkpt lat="46.974" lon="8.76512">
        <ele>623</ele>
        <time>2021-08-05T12:29:27.067Z</time>
      </trkpt>
      <trkpt lat="46.974" lon="8.76512">
        <ele>623</ele>
        <time>2021-08-05T12:29:28.067Z</time>
      </trkpt>
      <trkpt lat="46.97399" lon="8.76511">
        <ele>623</ele>
        <time>2021-08-05T12:29:29.067Z</time>
      </trkpt>
      <trkpt lat="46.97398" lon="8.76511">
        <ele>623</ele>
        <time>2021-08-05T12:29:30.067Z</time>
      </trkpt>
      <trkpt lat="46.97397" lon="8.76511">
        <ele>622</ele>
        <time>2021-08-05T12:29:31.066Z</time>
      </trkpt>
      <trkpt lat="46.97398" lon="8.76511">
        <ele>622</ele>
        <time>2021-08-05T12:29:32.067Z</time>
      </trkpt>
      <trkpt lat="46.97398" lon="8.76512">
        <ele>622</ele>
        <time>2021-08-05T12:29:33.067Z</time>
      </trkpt>
      <trkpt lat="46.97399" lon="8.76512">
        <ele>622</ele>
        <time>2021-08-05T12:29:34.066Z</time>
      </trkpt>
      <trkpt lat="46.97399" lon="8.76512">
        <ele>622</ele>
        <time>2021-08-05T12:29:35.066Z</time>
      </trkpt>
      <trkpt lat="46.97398" lon="8.76513">
        <ele>621</ele>
        <time>2021-08-05T12:29:36.066Z</time>
      </trkpt>
      <trkpt lat="46.97398" lon="8.76513">
        <ele>621</ele>
        <time>2021-08-05T12:29:37.067Z</time>
      </trkpt>
      <trkpt lat="46.97401" lon="8.76515">
        <ele>620</ele>
        <time>2021-08-05T12:29:38.067Z</time>
      </trkpt>
      <trkpt lat="46.97402" lon="8.76516">
        <ele>620</ele>
        <time>2021-08-05T12:29:39.067Z</time>
      </trkpt>
      <trkpt lat="46.97403" lon="8.76516">
        <ele>620</ele>
        <time>2021-08-05T12:29:40.066Z</time>
      </trkpt>
      <trkpt lat="46.97403" lon="8.76516">
        <ele>620</ele>
        <time>2021-08-05T12:29:41.067Z</time>
      </trkpt>
      <trkpt lat="46.97404" lon="8.76517">
        <ele>619</ele>
        <time>2021-08-05T12:29:42.067Z</time>
      </trkpt>
      <trkpt lat="46.97404" lon="8.76517">
        <ele>619</ele>
        <time>2021-08-05T12:29:43.067Z</time>
      </trkpt>
      <trkpt lat="46.97405" lon="8.76517">
        <ele>619</ele>
        <time>2021-08-05T12:29:44.067Z</time>
      </trkpt>
      <trkpt lat="46.97406" lon="8.76517">
        <ele>619</ele>
        <time>2021-08-05T12:29:45.066Z</time>
      </trkpt>
      <trkpt lat="46.97407" lon="8.76517">
        <ele>619</ele>
        <time>2021-08-05T12:29:46.066Z</time>
      </trkpt>
      <trkpt lat="46.97407" lon="8.76517">
        <ele>619</ele>
        <time>2021-08-05T12:29:47.066Z</time>
      </trkpt>
      <trkpt lat="46.97407" lon="8.76516">
        <ele>619</ele>
        <time>2021-08-05T12:29:48.066Z</time>
      </trkpt>
      <trkpt lat="46.97408" lon="8.76516">
        <ele>619</ele>
        <time>2021-08-05T12:29:49.066Z</time>
      </trkpt>
      <trkpt lat="46.97408" lon="8.76516">
        <ele>619</ele>
        <time>2021-08-05T12:29:50.066Z</time>
      </trkpt>
      <trkpt lat="46.97408" lon="8.76517">
        <ele>620</ele>
        <time>2021-08-05T12:29:51.066Z</time>
      </trkpt>
      <trkpt lat="46.97408" lon="8.76518">
        <ele>620</ele>
        <time>2021-08-05T12:29:52.066Z</time>
      </trkpt>
      <trkpt lat="46.97408" lon="8.76519">
        <ele>621</ele>
        <time>2021-08-05T12:29:53.066Z</time>
      </trkpt>
      <trkpt lat="46.97409" lon="8.7652">
        <ele>621</ele>
        <time>2021-08-05T12:29:54.066Z</time>
      </trkpt>
      <trkpt lat="46.97409" lon="8.7652">
        <ele>622</ele>
        <time>2021-08-05T12:29:55.066Z</time>
      </trkpt>
      <trkpt lat="46.9741" lon="8.76519">
        <ele>622</ele>
        <time>2021-08-05T12:29:56.066Z</time>
      </trkpt>
      <trkpt lat="46.97411" lon="8.76519">
        <ele>623</ele>
        <time>2021-08-05T12:29:57.067Z</time>
      </trkpt>
      <trkpt lat="46.97409" lon="8.76516">
        <ele>624</ele>
        <time>2021-08-05T12:29:58.066Z</time>
      </trkpt>
      <trkpt lat="46.97409" lon="8.76516">
        <ele>625</ele>
        <time>2021-08-05T12:29:59.067Z</time>
      </trkpt>
      <trkpt lat="46.97409" lon="8.76515">
        <ele>625</ele>
        <time>2021-08-05T12:30:00.067Z</time>
      </trkpt>
      <trkpt lat="46.9741" lon="8.76514">
        <ele>625</ele>
        <time>2021-08-05T12:30:01.066Z</time>
      </trkpt>
      <trkpt lat="46.9741" lon="8.76514">
        <ele>625</ele>
        <time>2021-08-05T12:30:02.066Z</time>
      </trkpt>
      <trkpt lat="46.9741" lon="8.76517">
        <ele>626</ele>
        <time>2021-08-05T12:30:03.066Z</time>
      </trkpt>
      <trkpt lat="46.97409" lon="8.76519">
        <ele>626</ele>
        <time>2021-08-05T12:30:04.066Z</time>
      </trkpt>
      <trkpt lat="46.97409" lon="8.76521">
        <ele>626</ele>
        <time>2021-08-05T12:30:05.066Z</time>
      </trkpt>
      <trkpt lat="46.97409" lon="8.76522">
        <ele>626</ele>
        <time>2021-08-05T12:30:06.066Z</time>
      </trkpt>
      <trkpt lat="46.97409" lon="8.76524">
        <ele>626</ele>
        <time>2021-08-05T12:30:07.066Z</time>
      </trkpt>
      <trkpt lat="46.9741" lon="8.76524">
        <ele>626</ele>
        <time>2021-08-05T12:30:08.066Z</time>
      </trkpt>
      <trkpt lat="46.97411" lon="8.76525">
        <ele>626</ele>
        <time>2021-08-05T12:30:09.066Z</time>
      </trkpt>
      <trkpt lat="46.97412" lon="8.76524">
        <ele>627</ele>
        <time>2021-08-05T12:30:10.066Z</time>
      </trkpt>
      <trkpt lat="46.97412" lon="8.76524">
        <ele>627</ele>
        <time>2021-08-05T12:30:11.067Z</time>
      </trkpt>
      <trkpt lat="46.97411" lon="8.76524">
        <ele>627</ele>
        <time>2021-08-05T12:30:12.067Z</time>
      </trkpt>
      <trkpt lat="46.97411" lon="8.76524">
        <ele>627</ele>
        <time>2021-08-05T12:30:13.066Z</time>
      </trkpt>
      <trkpt lat="46.97411" lon="8.76525">
        <ele>628</ele>
        <time>2021-08-05T12:30:14.066Z</time>
      </trkpt>
      <trkpt lat="46.97411" lon="8.76525">
        <ele>628</ele>
        <time>2021-08-05T12:30:15.066Z</time>
      </trkpt>
      <trkpt lat="46.97412" lon="8.76525">
        <ele>629</ele>
        <time>2021-08-05T12:30:16.066Z</time>
      </trkpt>
      <trkpt lat="46.97411" lon="8.76526">
        <ele>629</ele>
        <time>2021-08-05T12:30:17.066Z</time>
      </trkpt>
      <trkpt lat="46.97409" lon="8.76528">
        <ele>629</ele>
        <time>2021-08-05T12:30:18.067Z</time>
      </trkpt>
      <trkpt lat="46.97407" lon="8.76529">
        <ele>629</ele>
        <time>2021-08-05T12:30:19.067Z</time>
      </trkpt>
      <trkpt lat="46.97406" lon="8.76531">
        <ele>629</ele>
        <time>2021-08-05T12:30:20.066Z</time>
      </trkpt>
      <trkpt lat="46.97406" lon="8.76531">
        <ele>630</ele>
        <time>2021-08-05T12:30:21.066Z</time>
      </trkpt>
      <trkpt lat="46.97406" lon="8.76532">
        <ele>630</ele>
        <time>2021-08-05T12:30:22.067Z</time>
      </trkpt>
      <trkpt lat="46.97406" lon="8.76532">
        <ele>631</ele>
        <time>2021-08-05T12:30:23.066Z</time>
      </trkpt>
      <trkpt lat="46.97407" lon="8.76533">
        <ele>631</ele>
        <time>2021-08-05T12:30:24.066Z</time>
      </trkpt>
      <trkpt lat="46.97407" lon="8.76534">
        <ele>631</ele>
        <time>2021-08-05T12:30:25.066Z</time>
      </trkpt>
      <trkpt lat="46.97407" lon="8.76535">
        <ele>631</ele>
        <time>2021-08-05T12:30:26.066Z</time>
      </trkpt>
      <trkpt lat="46.97407" lon="8.76536">
        <ele>631</ele>
        <time>2021-08-05T12:30:27.066Z</time>
      </trkpt>
      <trkpt lat="46.97407" lon="8.76538">
        <ele>631</ele>
        <time>2021-08-05T12:30:28.066Z</time>
      </trkpt>
      <trkpt lat="46.97406" lon="8.76539">
        <ele>631</ele>
        <time>2021-08-05T12:30:29.067Z</time>
      </trkpt>
      <trkpt lat="46.97406" lon="8.76541">
        <ele>631</ele>
        <time>2021-08-05T12:30:30.067Z</time>
      </trkpt>
      <trkpt lat="46.97406" lon="8.76542">
        <ele>631</ele>
        <time>2021-08-05T12:30:31.067Z</time>
      </trkpt>
      <trkpt lat="46.97405" lon="8.76543">
        <ele>631</ele>
        <time>2021-08-05T12:30:32.067Z</time>
      </trkpt>
      <trkpt lat="46.97405" lon="8.76544">
        <ele>631</ele>
        <time>2021-08-05T12:30:33.067Z</time>
      </trkpt>
      <trkpt lat="46.97404" lon="8.76545">
        <ele>631</ele>
        <time>2021-08-05T12:30:34.066Z</time>
      </trkpt>
      <trkpt lat="46.97404" lon="8.76545">
        <ele>631</ele>
        <time>2021-08-05T12:30:35.067Z</time>
      </trkpt>
      <trkpt lat="46.97405" lon="8.76546">
        <ele>631</ele>
        <time>2021-08-05T12:30:36.066Z</time>
      </trkpt>
      <trkpt lat="46.97405" lon="8.76547">
        <ele>631</ele>
        <time>2021-08-05T12:30:37.067Z</time>
      </trkpt>
      <trkpt lat="46.97404" lon="8.76548">
        <ele>631</ele>
        <time>2021-08-05T12:30:38.067Z</time>
      </trkpt>
      <trkpt lat="46.97403" lon="8.7655">
        <ele>631</ele>
        <time>2021-08-05T12:30:39.066Z</time>
      </trkpt>
      <trkpt lat="46.97402" lon="8.7655">
        <ele>631</ele>
        <time>2021-08-05T12:30:40.067Z</time>
      </trkpt>
      <trkpt lat="46.97404" lon="8.76548">
        <ele>631</ele>
        <time>2021-08-05T12:30:41.067Z</time>
      </trkpt>
      <trkpt lat="46.97405" lon="8.76545">
        <ele>631</ele>
        <time>2021-08-05T12:30:42.067Z</time>
      </trkpt>
      <trkpt lat="46.97405" lon="8.76544">
        <ele>631</ele>
        <time>2021-08-05T12:30:43.067Z</time>
      </trkpt>
      <trkpt lat="46.97406" lon="8.76543">
        <ele>631</ele>
        <time>2021-08-05T12:30:44.066Z</time>
      </trkpt>
      <trkpt lat="46.97406" lon="8.76542">
        <ele>632</ele>
        <time>2021-08-05T12:30:45.066Z</time>
      </trkpt>
      <trkpt lat="46.97407" lon="8.76541">
        <ele>632</ele>
        <time>2021-08-05T12:30:46.066Z</time>
      </trkpt>
      <trkpt lat="46.97409" lon="8.7654">
        <ele>632</ele>
        <time>2021-08-05T12:30:47.067Z</time>
      </trkpt>
      <trkpt lat="46.97411" lon="8.76539">
        <ele>633</ele>
        <time>2021-08-05T12:30:48.067Z</time>
      </trkpt>
      <trkpt lat="46.97412" lon="8.76538">
        <ele>633</ele>
        <time>2021-08-05T12:30:49.066Z</time>
      </trkpt>
      <trkpt lat="46.97413" lon="8.76538">
        <ele>634</ele>
        <time>2021-08-05T12:30:50.067Z</time>
      </trkpt>
      <trkpt lat="46.97412" lon="8.76538">
        <ele>634</ele>
        <time>2021-08-05T12:30:51.067Z</time>
      </trkpt>
      <trkpt lat="46.97412" lon="8.76538">
        <ele>634</ele>
        <time>2021-08-05T12:30:52.066Z</time>
      </trkpt>
      <trkpt lat="46.97411" lon="8.76538">
        <ele>635</ele>
        <time>2021-08-05T12:30:53.067Z</time>
      </trkpt>
      <trkpt lat="46.97411" lon="8.76538">
        <ele>635</ele>
        <time>2021-08-05T12:30:54.067Z</time>
      </trkpt>
      <trkpt lat="46.97411" lon="8.76537">
        <ele>635</ele>
        <time>2021-08-05T12:30:55.066Z</time>
      </trkpt>
      <trkpt lat="46.97411" lon="8.76536">
        <ele>635</ele>
        <time>2021-08-05T12:30:56.066Z</time>
      </trkpt>
      <trkpt lat="46.97412" lon="8.76535">
        <ele>636</ele>
        <time>2021-08-05T12:30:57.067Z</time>
      </trkpt>
      <trkpt lat="46.97412" lon="8.76535">
        <ele>636</ele>
        <time>2021-08-05T12:30:58.066Z</time>
      </trkpt>
      <trkpt lat="46.97412" lon="8.76535">
        <ele>636</ele>
        <time>2021-08-05T12:30:59.066Z</time>
      </trkpt>
      <trkpt lat="46.97414" lon="8.76534">
        <ele>637</ele>
        <time>2021-08-05T12:31:00.066Z</time>
      </trkpt>
      <trkpt lat="46.97415" lon="8.76534">
        <ele>637</ele>
        <time>2021-08-05T12:31:01.067Z</time>
      </trkpt>
      <trkpt lat="46.97415" lon="8.76533">
        <ele>638</ele>
        <time>2021-08-05T12:31:02.067Z</time>
      </trkpt>
      <trkpt lat="46.97415" lon="8.76532">
        <ele>638</ele>
        <time>2021-08-05T12:31:03.067Z</time>
      </trkpt>
      <trkpt lat="46.97415" lon="8.76532">
        <ele>638</ele>
        <time>2021-08-05T12:31:04.067Z</time>
      </trkpt>
      <trkpt lat="46.97415" lon="8.76532">
        <ele>638</ele>
        <time>2021-08-05T12:31:05.067Z</time>
      </trkpt>
      <trkpt lat="46.97414" lon="8.76532">
        <ele>639</ele>
        <time>2021-08-05T12:31:07.066Z</time>
      </trkpt>
      <trkpt lat="46.97414" lon="8.76533">
        <ele>639</ele>
        <time>2021-08-05T12:31:08.066Z</time>
      </trkpt>
      <trkpt lat="46.97414" lon="8.76533">
        <ele>639</ele>
        <time>2021-08-05T12:31:09.066Z</time>
      </trkpt>
      <trkpt lat="46.97412" lon="8.76533">
        <ele>639</ele>
        <time>2021-08-05T12:31:10.067Z</time>
      </trkpt>
      <trkpt lat="46.97412" lon="8.76534">
        <ele>639</ele>
        <time>2021-08-05T12:31:11.067Z</time>
      </trkpt>
      <trkpt lat="46.97411" lon="8.76533">
        <ele>639</ele>
        <time>2021-08-05T12:31:12.067Z</time>
      </trkpt>
      <trkpt lat="46.97411" lon="8.76533">
        <ele>639</ele>
        <time>2021-08-05T12:31:13.067Z</time>
      </trkpt>
      <trkpt lat="46.9741" lon="8.76532">
        <ele>639</ele>
        <time>2021-08-05T12:31:14.067Z</time>
      </trkpt>
      <trkpt lat="46.97411" lon="8.76531">
        <ele>640</ele>
        <time>2021-08-05T12:31:15.068Z</time>
      </trkpt>
      <trkpt lat="46.97411" lon="8.76531">
        <ele>640</ele>
        <time>2021-08-05T12:31:16.067Z</time>
      </trkpt>
      <trkpt lat="46.9741" lon="8.76531">
        <ele>640</ele>
        <time>2021-08-05T12:31:17.067Z</time>
      </trkpt>
      <trkpt lat="46.97409" lon="8.76531">
        <ele>640</ele>
        <time>2021-08-05T12:31:18.067Z</time>
      </trkpt>
      <trkpt lat="46.97408" lon="8.76532">
        <ele>640</ele>
        <time>2021-08-05T12:31:19.068Z</time>
      </trkpt>
      <trkpt lat="46.97407" lon="8.76532">
        <ele>639</ele>
        <time>2021-08-05T12:31:20.068Z</time>
      </trkpt>
      <trkpt lat="46.97407" lon="8.76532">
        <ele>639</ele>
        <time>2021-08-05T12:31:21.067Z</time>
      </trkpt>
      <trkpt lat="46.97407" lon="8.76531">
        <ele>639</ele>
        <time>2021-08-05T12:31:22.067Z</time>
      </trkpt>
      <trkpt lat="46.97406" lon="8.76532">
        <ele>639</ele>
        <time>2021-08-05T12:31:23.068Z</time>
      </trkpt>
      <trkpt lat="46.97406" lon="8.76531">
        <ele>639</ele>
        <time>2021-08-05T12:31:24.067Z</time>
      </trkpt>
      <trkpt lat="46.97406" lon="8.76531">
        <ele>639</ele>
        <time>2021-08-05T12:31:25.068Z</time>
      </trkpt>
      <trkpt lat="46.97405" lon="8.76531">
        <ele>639</ele>
        <time>2021-08-05T12:31:26.068Z</time>
      </trkpt>
      <trkpt lat="46.97405" lon="8.76531">
        <ele>638</ele>
        <time>2021-08-05T12:31:27.068Z</time>
      </trkpt>
      <trkpt lat="46.97404" lon="8.76531">
        <ele>638</ele>
        <time>2021-08-05T12:31:28.068Z</time>
      </trkpt>
      <trkpt lat="46.97395" lon="8.76534">
        <ele>635</ele>
        <time>2021-08-05T12:31:29.068Z</time>
      </trkpt>
      <trkpt lat="46.97394" lon="8.76534">
        <ele>634</ele>
        <time>2021-08-05T12:31:30.068Z</time>
      </trkpt>
      <trkpt lat="46.97395" lon="8.76532">
        <ele>634</ele>
        <time>2021-08-05T12:31:31.067Z</time>
      </trkpt>
      <trkpt lat="46.97395" lon="8.76531">
        <ele>633</ele>
        <time>2021-08-05T12:31:32.068Z</time>
      </trkpt>
      <trkpt lat="46.97395" lon="8.7653">
        <ele>632</ele>
        <time>2021-08-05T12:31:33.067Z</time>
      </trkpt>
      <trkpt lat="46.97395" lon="8.76528">
        <ele>627</ele>
        <time>2021-08-05T12:31:34.069Z</time>
      </trkpt>
      <trkpt lat="46.97396" lon="8.76528">
        <ele>627</ele>
        <time>2021-08-05T12:31:35.068Z</time>
      </trkpt>
      <trkpt lat="46.97396" lon="8.76527">
        <ele>627</ele>
        <time>2021-08-05T12:31:36.068Z</time>
      </trkpt>
      <trkpt lat="46.97396" lon="8.76527">
        <ele>626</ele>
        <time>2021-08-05T12:31:37.068Z</time>
      </trkpt>
      <trkpt lat="46.97394" lon="8.76526">
        <ele>625</ele>
        <time>2021-08-05T12:31:38.068Z</time>
      </trkpt>
      <trkpt lat="46.97395" lon="8.76527">
        <ele>625</ele>
        <time>2021-08-05T12:31:39.069Z</time>
      </trkpt>
      <trkpt lat="46.97397" lon="8.7652">
        <ele>624</ele>
        <time>2021-08-05T12:32:49.069Z</time>
      </trkpt>
      <trkpt lat="46.974" lon="8.76517">
        <ele>623</ele>
        <time>2021-08-05T12:32:50.069Z</time>
      </trkpt>
      <trkpt lat="46.974" lon="8.76515">
        <ele>622</ele>
        <time>2021-08-05T12:32:51.069Z</time>
      </trkpt>
      <trkpt lat="46.97398" lon="8.76518">
        <ele>622</ele>
        <time>2021-08-05T12:32:52.068Z</time>
      </trkpt>
      <trkpt lat="46.97391" lon="8.7651">
        <ele>618</ele>
        <time>2021-08-05T12:32:53.068Z</time>
      </trkpt>
      <trkpt lat="46.97392" lon="8.76509">
        <ele>618</ele>
        <time>2021-08-05T12:32:54.069Z</time>
      </trkpt>
      <trkpt lat="46.97393" lon="8.76507">
        <ele>617</ele>
        <time>2021-08-05T12:32:55.068Z</time>
      </trkpt>
      <trkpt lat="46.97393" lon="8.76505">
        <ele>617</ele>
        <time>2021-08-05T12:32:56.069Z</time>
      </trkpt>
      <trkpt lat="46.97394" lon="8.76504">
        <ele>616</ele>
        <time>2021-08-05T12:32:57.069Z</time>
      </trkpt>
      <trkpt lat="46.97393" lon="8.76503">
        <ele>616</ele>
        <time>2021-08-05T12:32:58.068Z</time>
      </trkpt>
      <trkpt lat="46.97393" lon="8.76503">
        <ele>616</ele>
        <time>2021-08-05T12:32:59.069Z</time>
      </trkpt>
      <trkpt lat="46.97392" lon="8.76503">
        <ele>616</ele>
        <time>2021-08-05T12:33:00.068Z</time>
      </trkpt>
      <trkpt lat="46.97392" lon="8.76504">
        <ele>615</ele>
        <time>2021-08-05T12:33:01.068Z</time>
      </trkpt>
      <trkpt lat="46.97392" lon="8.76506">
        <ele>615</ele>
        <time>2021-08-05T12:33:02.068Z</time>
      </trkpt>
      <trkpt lat="46.97391" lon="8.76507">
        <ele>615</ele>
        <time>2021-08-05T12:33:03.069Z</time>
      </trkpt>
      <trkpt lat="46.97391" lon="8.76507">
        <ele>615</ele>
        <time>2021-08-05T12:33:04.069Z</time>
      </trkpt>
      <trkpt lat="46.97391" lon="8.76508">
        <ele>614</ele>
        <time>2021-08-05T12:33:05.069Z</time>
      </trkpt>
      <trkpt lat="46.97391" lon="8.76508">
        <ele>614</ele>
        <time>2021-08-05T12:33:06.068Z</time>
      </trkpt>
      <trkpt lat="46.9739" lon="8.76509">
        <ele>614</ele>
        <time>2021-08-05T12:33:07.069Z</time>
      </trkpt>
      <trkpt lat="46.97389" lon="8.7651">
        <ele>614</ele>
        <time>2021-08-05T12:33:08.070Z</time>
      </trkpt>
      <trkpt lat="46.97389" lon="8.76511">
        <ele>614</ele>
        <time>2021-08-05T12:33:09.070Z</time>
      </trkpt>
      <trkpt lat="46.97389" lon="8.76512">
        <ele>614</ele>
        <time>2021-08-05T12:33:10.070Z</time>
      </trkpt>
      <trkpt lat="46.97389" lon="8.76512">
        <ele>614</ele>
        <time>2021-08-05T12:33:11.070Z</time>
      </trkpt>
      <trkpt lat="46.97388" lon="8.76512">
        <ele>615</ele>
        <time>2021-08-05T12:33:12.070Z</time>
      </trkpt>
      <trkpt lat="46.97388" lon="8.76513">
        <ele>615</ele>
        <time>2021-08-05T12:33:13.070Z</time>
      </trkpt>
      <trkpt lat="46.97388" lon="8.76513">
        <ele>615</ele>
        <time>2021-08-05T12:33:14.070Z</time>
      </trkpt>
      <trkpt lat="46.97388" lon="8.76512">
        <ele>615</ele>
        <time>2021-08-05T12:33:15.070Z</time>
      </trkpt>
      <trkpt lat="46.97388" lon="8.76511">
        <ele>615</ele>
        <time>2021-08-05T12:33:16.069Z</time>
      </trkpt>
      <trkpt lat="46.97387" lon="8.7651">
        <ele>615</ele>
        <time>2021-08-05T12:33:17.070Z</time>
      </trkpt>
      <trkpt lat="46.97387" lon="8.76509">
        <ele>615</ele>
        <time>2021-08-05T12:33:18.070Z</time>
      </trkpt>
      <trkpt lat="46.97388" lon="8.76505">
        <ele>615</ele>
        <time>2021-08-05T12:33:19.070Z</time>
      </trkpt>
      <trkpt lat="46.97387" lon="8.76501">
        <ele>615</ele>
        <time>2021-08-05T12:33:20.069Z</time>
      </trkpt>
      <trkpt lat="46.97386" lon="8.76498">
        <ele>615</ele>
        <time>2021-08-05T12:33:21.070Z</time>
      </trkpt>
      <trkpt lat="46.97384" lon="8.76496">
        <ele>614</ele>
        <time>2021-08-05T12:33:22.070Z</time>
      </trkpt>
      <trkpt lat="46.97384" lon="8.76496">
        <ele>614</ele>
        <time>2021-08-05T12:33:23.069Z</time>
      </trkpt>
      <trkpt lat="46.97383" lon="8.76495">
        <ele>614</ele>
        <time>2021-08-05T12:33:24.070Z</time>
      </trkpt>
      <trkpt lat="46.97383" lon="8.76495">
        <ele>613</ele>
        <time>2021-08-05T12:33:25.070Z</time>
      </trkpt>
      <trkpt lat="46.97384" lon="8.76494">
        <ele>613</ele>
        <time>2021-08-05T12:33:26.070Z</time>
      </trkpt>
      <trkpt lat="46.97385" lon="8.76493">
        <ele>613</ele>
        <time>2021-08-05T12:33:27.069Z</time>
      </trkpt>
      <trkpt lat="46.97385" lon="8.76493">
        <ele>613</ele>
        <time>2021-08-05T12:33:28.070Z</time>
      </trkpt>
      <trkpt lat="46.97413" lon="8.76528">
        <ele>613</ele>
        <time>2021-08-05T12:35:10.339Z</time>
      </trkpt>
      <trkpt lat="46.97411" lon="8.7653">
        <ele>614</ele>
        <time>2021-08-05T12:35:11.338Z</time>
      </trkpt>
      <trkpt lat="46.97413" lon="8.76531">
        <ele>615</ele>
        <time>2021-08-05T12:35:12.339Z</time>
      </trkpt>
      <trkpt lat="46.97414" lon="8.76531">
        <ele>616</ele>
        <time>2021-08-05T12:35:13.339Z</time>
      </trkpt>
      <trkpt lat="46.9741" lon="8.76531">
        <ele>617</ele>
        <time>2021-08-05T12:35:14.338Z</time>
      </trkpt>
      <trkpt lat="46.97406" lon="8.7653">
        <ele>617</ele>
        <time>2021-08-05T12:35:15.338Z</time>
      </trkpt>
      <trkpt lat="46.9741" lon="8.76531">
        <ele>619</ele>
        <time>2021-08-05T12:35:16.339Z</time>
      </trkpt>
      <trkpt lat="46.97412" lon="8.76531">
        <ele>620</ele>
        <time>2021-08-05T12:35:17.339Z</time>
      </trkpt>
      <trkpt lat="46.97414" lon="8.76529">
        <ele>622</ele>
        <time>2021-08-05T12:35:18.338Z</time>
      </trkpt>
      <trkpt lat="46.97412" lon="8.7653">
        <ele>623</ele>
        <time>2021-08-05T12:35:19.339Z</time>
      </trkpt>
      <trkpt lat="46.97412" lon="8.76532">
        <ele>624</ele>
        <time>2021-08-05T12:35:20.338Z</time>
      </trkpt>
      <trkpt lat="46.97409" lon="8.76534">
        <ele>626</ele>
        <time>2021-08-05T12:35:21.338Z</time>
      </trkpt>
      <trkpt lat="46.97409" lon="8.76537">
        <ele>627</ele>
        <time>2021-08-05T12:35:22.339Z</time>
      </trkpt>
      <trkpt lat="46.97407" lon="8.76538">
        <ele>627</ele>
        <time>2021-08-05T12:35:23.338Z</time>
      </trkpt>
      <trkpt lat="46.97404" lon="8.76536">
        <ele>628</ele>
        <time>2021-08-05T12:35:26.339Z</time>
      </trkpt>
      <trkpt lat="46.97407" lon="8.76538">
        <ele>632</ele>
        <time>2021-08-05T12:35:27.340Z</time>
      </trkpt>
      <trkpt lat="46.97408" lon="8.76539">
        <ele>633</ele>
        <time>2021-08-05T12:35:28.340Z</time>
      </trkpt>
      <trkpt lat="46.97409" lon="8.7654">
        <ele>634</ele>
        <time>2021-08-05T12:35:29.339Z</time>
      </trkpt>
      <trkpt lat="46.97409" lon="8.7654">
        <ele>635</ele>
        <time>2021-08-05T12:35:30.339Z</time>
      </trkpt>
      <trkpt lat="46.97409" lon="8.7654">
        <ele>637</ele>
        <time>2021-08-05T12:35:31.339Z</time>
      </trkpt>
      <trkpt lat="46.97409" lon="8.76539">
        <ele>638</ele>
        <time>2021-08-05T12:35:32.339Z</time>
      </trkpt>
      <trkpt lat="46.9741" lon="8.76538">
        <ele>639</ele>
        <time>2021-08-05T12:35:33.340Z</time>
      </trkpt>
      <trkpt lat="46.97411" lon="8.76538">
        <ele>640</ele>
        <time>2021-08-05T12:35:34.339Z</time>
      </trkpt>
      <trkpt lat="46.97411" lon="8.76537">
        <ele>641</ele>
        <time>2021-08-05T12:35:35.339Z</time>
      </trkpt>
      <trkpt lat="46.97413" lon="8.76538">
        <ele>642</ele>
        <time>2021-08-05T12:35:36.339Z</time>
      </trkpt>
      <trkpt lat="46.97415" lon="8.76538">
        <ele>643</ele>
        <time>2021-08-05T12:35:37.340Z</time>
      </trkpt>
      <trkpt lat="46.97416" lon="8.76538">
        <ele>645</ele>
        <time>2021-08-05T12:35:38.339Z</time>
      </trkpt>
      <trkpt lat="46.97418" lon="8.76539">
        <ele>646</ele>
        <time>2021-08-05T12:35:39.339Z</time>
      </trkpt>
      <trkpt lat="46.97419" lon="8.7654">
        <ele>647</ele>
        <time>2021-08-05T12:35:40.340Z</time>
      </trkpt>
      <trkpt lat="46.9742" lon="8.7654">
        <ele>648</ele>
        <time>2021-08-05T12:35:41.339Z</time>
      </trkpt>
      <trkpt lat="46.97422" lon="8.76542">
        <ele>650</ele>
        <time>2021-08-05T12:35:42.339Z</time>
      </trkpt>
      <trkpt lat="46.97423" lon="8.76542">
        <ele>651</ele>
        <time>2021-08-05T12:35:43.339Z</time>
      </trkpt>
      <trkpt lat="46.97424" lon="8.76543">
        <ele>652</ele>
        <time>2021-08-05T12:35:44.339Z</time>
      </trkpt>
      <trkpt lat="46.97424" lon="8.76543">
        <ele>653</ele>
        <time>2021-08-05T12:35:45.339Z</time>
      </trkpt>
      <trkpt lat="46.97424" lon="8.76542">
        <ele>654</ele>
        <time>2021-08-05T12:35:46.339Z</time>
      </trkpt>
      <trkpt lat="46.97424" lon="8.76542">
        <ele>655</ele>
        <time>2021-08-05T12:35:47.339Z</time>
      </trkpt>
      <trkpt lat="46.97424" lon="8.76542">
        <ele>656</ele>
        <time>2021-08-05T12:35:48.340Z</time>
      </trkpt>
      <trkpt lat="46.97425" lon="8.76542">
        <ele>657</ele>
        <time>2021-08-05T12:35:49.339Z</time>
      </trkpt>
      <trkpt lat="46.97426" lon="8.76542">
        <ele>658</ele>
        <time>2021-08-05T12:35:50.339Z</time>
      </trkpt>
      <trkpt lat="46.97426" lon="8.76541">
        <ele>659</ele>
        <time>2021-08-05T12:35:51.339Z</time>
      </trkpt>
      <trkpt lat="46.97427" lon="8.7654">
        <ele>660</ele>
        <time>2021-08-05T12:35:52.339Z</time>
      </trkpt>
      <trkpt lat="46.97427" lon="8.7654">
        <ele>660</ele>
        <time>2021-08-05T12:35:53.339Z</time>
      </trkpt>
      <trkpt lat="46.97427" lon="8.76539">
        <ele>661</ele>
        <time>2021-08-05T12:35:54.339Z</time>
      </trkpt>
      <trkpt lat="46.97427" lon="8.76539">
        <ele>662</ele>
        <time>2021-08-05T12:35:55.339Z</time>
      </trkpt>
      <trkpt lat="46.97427" lon="8.76538">
        <ele>663</ele>
        <time>2021-08-05T12:35:56.340Z</time>
      </trkpt>
      <trkpt lat="46.97427" lon="8.76537">
        <ele>664</ele>
        <time>2021-08-05T12:35:57.339Z</time>
      </trkpt>
      <trkpt lat="46.97427" lon="8.76536">
        <ele>665</ele>
        <time>2021-08-05T12:35:58.339Z</time>
      </trkpt>
      <trkpt lat="46.97427" lon="8.76536">
        <ele>666</ele>
        <time>2021-08-05T12:35:59.340Z</time>
      </trkpt>
      <trkpt lat="46.97427" lon="8.76536">
        <ele>666</ele>
        <time>2021-08-05T12:36:00.340Z</time>
      </trkpt>
      <trkpt lat="46.97427" lon="8.76535">
        <ele>667</ele>
        <time>2021-08-05T12:36:01.339Z</time>
      </trkpt>
      <trkpt lat="46.97427" lon="8.76537">
        <ele>671</ele>
        <time>2021-08-05T12:36:02.339Z</time>
      </trkpt>
      <trkpt lat="46.97426" lon="8.76536">
        <ele>670</ele>
        <time>2021-08-05T12:36:03.339Z</time>
      </trkpt>
      <trkpt lat="46.97425" lon="8.76536">
        <ele>670</ele>
        <time>2021-08-05T12:36:04.339Z</time>
      </trkpt>
      <trkpt lat="46.97425" lon="8.76536">
        <ele>670</ele>
        <time>2021-08-05T12:36:05.339Z</time>
      </trkpt>
      <trkpt lat="46.97425" lon="8.76537">
        <ele>670</ele>
        <time>2021-08-05T12:36:06.340Z</time>
      </trkpt>
      <trkpt lat="46.97425" lon="8.76536">
        <ele>670</ele>
        <time>2021-08-05T12:36:07.340Z</time>
      </trkpt>
      <trkpt lat="46.97425" lon="8.76535">
        <ele>670</ele>
        <time>2021-08-05T12:36:08.340Z</time>
      </trkpt>
      <trkpt lat="46.97425" lon="8.76535">
        <ele>670</ele>
        <time>2021-08-05T12:36:09.340Z</time>
      </trkpt>
      <trkpt lat="46.97425" lon="8.76535">
        <ele>670</ele>
        <time>2021-08-05T12:36:10.341Z</time>
      </trkpt>
      <trkpt lat="46.97424" lon="8.76535">
        <ele>670</ele>
        <time>2021-08-05T12:36:11.340Z</time>
      </trkpt>
      <trkpt lat="46.97423" lon="8.76535">
        <ele>669</ele>
        <time>2021-08-05T12:36:12.341Z</time>
      </trkpt>
      <trkpt lat="46.97422" lon="8.76535">
        <ele>669</ele>
        <time>2021-08-05T12:36:13.340Z</time>
      </trkpt>
      <trkpt lat="46.9742" lon="8.76534">
        <ele>669</ele>
        <time>2021-08-05T12:36:14.340Z</time>
      </trkpt>
      <trkpt lat="46.97419" lon="8.76534">
        <ele>669</ele>
        <time>2021-08-05T12:36:15.340Z</time>
      </trkpt>
      <trkpt lat="46.97419" lon="8.76533">
        <ele>669</ele>
        <time>2021-08-05T12:36:16.341Z</time>
      </trkpt>
      <trkpt lat="46.97418" lon="8.76532">
        <ele>669</ele>
        <time>2021-08-05T12:36:17.341Z</time>
      </trkpt>
      <trkpt lat="46.97418" lon="8.76532">
        <ele>668</ele>
        <time>2021-08-05T12:36:18.341Z</time>
      </trkpt>
      <trkpt lat="46.97418" lon="8.76531">
        <ele>668</ele>
        <time>2021-08-05T12:36:19.341Z</time>
      </trkpt>
      <trkpt lat="46.97418" lon="8.76531">
        <ele>668</ele>
        <time>2021-08-05T12:36:20.340Z</time>
      </trkpt>
      <trkpt lat="46.97417" lon="8.76532">
        <ele>668</ele>
        <time>2021-08-05T12:36:21.343Z</time>
      </trkpt>
      <trkpt lat="46.97416" lon="8.76533">
        <ele>668</ele>
        <time>2021-08-05T12:36:22.343Z</time>
      </trkpt>
      <trkpt lat="46.97416" lon="8.76534">
        <ele>667</ele>
        <time>2021-08-05T12:36:23.342Z</time>
      </trkpt>
      <trkpt lat="46.97415" lon="8.76534">
        <ele>667</ele>
        <time>2021-08-05T12:36:24.343Z</time>
      </trkpt>
      <trkpt lat="46.97414" lon="8.76535">
        <ele>667</ele>
        <time>2021-08-05T12:36:25.343Z</time>
      </trkpt>
      <trkpt lat="46.97414" lon="8.76535">
        <ele>667</ele>
        <time>2021-08-05T12:36:26.343Z</time>
      </trkpt>
      <trkpt lat="46.97414" lon="8.76535">
        <ele>666</ele>
        <time>2021-08-05T12:36:27.343Z</time>
      </trkpt>
      <trkpt lat="46.97414" lon="8.76534">
        <ele>666</ele>
        <time>2021-08-05T12:36:28.343Z</time>
      </trkpt>
      <trkpt lat="46.97414" lon="8.76534">
        <ele>666</ele>
        <time>2021-08-05T12:36:29.343Z</time>
      </trkpt>
      <trkpt lat="46.97414" lon="8.76536">
        <ele>665</ele>
        <time>2021-08-05T12:36:30.342Z</time>
      </trkpt>
      <trkpt lat="46.97414" lon="8.76536">
        <ele>665</ele>
        <time>2021-08-05T12:36:31.342Z</time>
      </trkpt>
      <trkpt lat="46.97404" lon="8.76549">
        <ele>664</ele>
        <time>2021-08-05T12:37:05.343Z</time>
      </trkpt>
      <trkpt lat="46.97405" lon="8.76556">
        <ele>664</ele>
        <time>2021-08-05T12:37:07.342Z</time>
      </trkpt>
      <trkpt lat="46.97406" lon="8.76558">
        <ele>664</ele>
        <time>2021-08-05T12:37:08.342Z</time>
      </trkpt>
      <trkpt lat="46.97407" lon="8.76559">
        <ele>664</ele>
        <time>2021-08-05T12:37:11.446Z</time>
      </trkpt>
      <trkpt lat="46.97408" lon="8.7656">
        <ele>664</ele>
        <time>2021-08-05T12:37:12.446Z</time>
      </trkpt>
      <trkpt lat="46.97408" lon="8.76559">
        <ele>664</ele>
        <time>2021-08-05T12:37:13.445Z</time>
      </trkpt>
      <trkpt lat="46.97407" lon="8.76558">
        <ele>663</ele>
        <time>2021-08-05T12:37:14.445Z</time>
      </trkpt>
      <trkpt lat="46.97406" lon="8.76558">
        <ele>663</ele>
        <time>2021-08-05T12:37:15.446Z</time>
      </trkpt>
      <trkpt lat="46.97405" lon="8.76559">
        <ele>662</ele>
        <time>2021-08-05T12:37:16.445Z</time>
      </trkpt>
      <trkpt lat="46.97404" lon="8.7656">
        <ele>661</ele>
        <time>2021-08-05T12:37:17.446Z</time>
      </trkpt>
      <trkpt lat="46.97402" lon="8.76561">
        <ele>660</ele>
        <time>2021-08-05T12:37:18.446Z</time>
      </trkpt>
      <trkpt lat="46.97401" lon="8.76561">
        <ele>659</ele>
        <time>2021-08-05T12:37:19.445Z</time>
      </trkpt>
      <trkpt lat="46.974" lon="8.7656">
        <ele>658</ele>
        <time>2021-08-05T12:37:20.446Z</time>
      </trkpt>
      <trkpt lat="46.974" lon="8.76559">
        <ele>657</ele>
        <time>2021-08-05T12:37:21.446Z</time>
      </trkpt>
      <trkpt lat="46.97401" lon="8.76559">
        <ele>656</ele>
        <time>2021-08-05T12:37:22.445Z</time>
      </trkpt>
      <trkpt lat="46.97403" lon="8.76558">
        <ele>655</ele>
        <time>2021-08-05T12:37:23.446Z</time>
      </trkpt>
      <trkpt lat="46.97403" lon="8.76557">
        <ele>655</ele>
        <time>2021-08-05T12:37:24.447Z</time>
      </trkpt>
      <trkpt lat="46.97403" lon="8.76556">
        <ele>655</ele>
        <time>2021-08-05T12:37:25.446Z</time>
      </trkpt>
      <trkpt lat="46.97402" lon="8.76551">
        <ele>653</ele>
        <time>2021-08-05T12:37:26.448Z</time>
      </trkpt>
      <trkpt lat="46.97402" lon="8.76549">
        <ele>652</ele>
        <time>2021-08-05T12:37:27.448Z</time>
      </trkpt>
      <trkpt lat="46.97403" lon="8.76548">
        <ele>652</ele>
        <time>2021-08-05T12:37:28.448Z</time>
      </trkpt>
      <trkpt lat="46.97403" lon="8.76547">
        <ele>651</ele>
        <time>2021-08-05T12:37:29.448Z</time>
      </trkpt>
      <trkpt lat="46.97402" lon="8.76537">
        <ele>649</ele>
        <time>2021-08-05T12:37:41.567Z</time>
      </trkpt>
      <trkpt lat="46.97401" lon="8.76538">
        <ele>648</ele>
        <time>2021-08-05T12:37:52.566Z</time>
      </trkpt>
      <trkpt lat="46.97401" lon="8.76538">
        <ele>648</ele>
        <time>2021-08-05T12:37:53.567Z</time>
      </trkpt>
      <trkpt lat="46.97401" lon="8.76539">
        <ele>648</ele>
        <time>2021-08-05T12:37:54.566Z</time>
      </trkpt>
      <trkpt lat="46.974" lon="8.76538">
        <ele>648</ele>
        <time>2021-08-05T12:37:55.567Z</time>
      </trkpt>
      <trkpt lat="46.974" lon="8.76539">
        <ele>648</ele>
        <time>2021-08-05T12:37:56.567Z</time>
      </trkpt>
      <trkpt lat="46.97399" lon="8.76538">
        <ele>648</ele>
        <time>2021-08-05T12:37:57.566Z</time>
      </trkpt>
      <trkpt lat="46.97399" lon="8.76538">
        <ele>648</ele>
        <time>2021-08-05T12:37:58.567Z</time>
      </trkpt>
      <trkpt lat="46.97399" lon="8.76538">
        <ele>648</ele>
        <time>2021-08-05T12:37:59.566Z</time>
      </trkpt>
      <trkpt lat="46.97399" lon="8.76537">
        <ele>648</ele>
        <time>2021-08-05T12:38:00.567Z</time>
      </trkpt>
      <trkpt lat="46.97399" lon="8.76536">
        <ele>648</ele>
        <time>2021-08-05T12:38:01.566Z</time>
      </trkpt>
      <trkpt lat="46.97399" lon="8.76534">
        <ele>648</ele>
        <time>2021-08-05T12:38:02.567Z</time>
      </trkpt>
      <trkpt lat="46.97399" lon="8.76532">
        <ele>647</ele>
        <time>2021-08-05T12:38:03.566Z</time>
      </trkpt>
      <trkpt lat="46.97399" lon="8.7653">
        <ele>647</ele>
        <time>2021-08-05T12:38:04.567Z</time>
      </trkpt>
      <trkpt lat="46.97398" lon="8.76529">
        <ele>647</ele>
        <time>2021-08-05T12:38:05.567Z</time>
      </trkpt>
      <trkpt lat="46.97397" lon="8.76529">
        <ele>647</ele>
        <time>2021-08-05T12:38:06.567Z</time>
      </trkpt>
      <trkpt lat="46.97396" lon="8.7653">
        <ele>647</ele>
        <time>2021-08-05T12:38:07.567Z</time>
      </trkpt>
      <trkpt lat="46.97393" lon="8.76531">
        <ele>646</ele>
        <time>2021-08-05T12:38:08.567Z</time>
      </trkpt>
      <trkpt lat="46.97392" lon="8.76531">
        <ele>646</ele>
        <time>2021-08-05T12:38:09.567Z</time>
      </trkpt>
      <trkpt lat="46.97391" lon="8.76529">
        <ele>645</ele>
        <time>2021-08-05T12:38:10.567Z</time>
      </trkpt>
      <trkpt lat="46.97391" lon="8.76528">
        <ele>645</ele>
        <time>2021-08-05T12:38:11.566Z</time>
      </trkpt>
      <trkpt lat="46.97391" lon="8.76526">
        <ele>644</ele>
        <time>2021-08-05T12:38:12.566Z</time>
      </trkpt>
      <trkpt lat="46.97392" lon="8.76524">
        <ele>644</ele>
        <time>2021-08-05T12:38:13.567Z</time>
      </trkpt>
      <trkpt lat="46.97392" lon="8.76522">
        <ele>644</ele>
        <time>2021-08-05T12:38:14.566Z</time>
      </trkpt>
      <trkpt lat="46.97393" lon="8.7652">
        <ele>643</ele>
        <time>2021-08-05T12:38:15.567Z</time>
      </trkpt>
      <trkpt lat="46.97394" lon="8.76519">
        <ele>643</ele>
        <time>2021-08-05T12:38:16.567Z</time>
      </trkpt>
      <trkpt lat="46.97394" lon="8.76518">
        <ele>642</ele>
        <time>2021-08-05T12:38:17.566Z</time>
      </trkpt>
      <trkpt lat="46.97404" lon="8.76522">
        <ele>641</ele>
        <time>2021-08-05T12:38:52.566Z</time>
      </trkpt>
      <trkpt lat="46.97402" lon="8.76524">
        <ele>641</ele>
        <time>2021-08-05T12:38:53.566Z</time>
      </trkpt>
      <trkpt lat="46.97396" lon="8.76521">
        <ele>640</ele>
        <time>2021-08-05T12:38:54.566Z</time>
      </trkpt>
      <trkpt lat="46.97394" lon="8.76517">
        <ele>640</ele>
        <time>2021-08-05T12:38:55.567Z</time>
      </trkpt>
      <trkpt lat="46.97397" lon="8.76512">
        <ele>638</ele>
        <time>2021-08-05T12:38:58.567Z</time>
      </trkpt>
      <trkpt lat="46.97399" lon="8.76507">
        <ele>638</ele>
        <time>2021-08-05T12:38:59.567Z</time>
      </trkpt>
      <trkpt lat="46.97401" lon="8.76506">
        <ele>637</ele>
        <time>2021-08-05T12:39:00.566Z</time>
      </trkpt>
      <trkpt lat="46.97402" lon="8.76506">
        <ele>637</ele>
        <time>2021-08-05T12:39:04.688Z</time>
      </trkpt>
      <trkpt lat="46.97401" lon="8.76506">
        <ele>636</ele>
        <time>2021-08-05T12:39:05.688Z</time>
      </trkpt>
      <trkpt lat="46.974" lon="8.76506">
        <ele>636</ele>
        <time>2021-08-05T12:39:07.688Z</time>
      </trkpt>
      <trkpt lat="46.974" lon="8.76507">
        <ele>636</ele>
        <time>2021-08-05T12:39:08.688Z</time>
      </trkpt>
      <trkpt lat="46.97399" lon="8.76508">
        <ele>635</ele>
        <time>2021-08-05T12:39:09.687Z</time>
      </trkpt>
      <trkpt lat="46.97398" lon="8.76511">
        <ele>635</ele>
        <time>2021-08-05T12:39:15.672Z</time>
      </trkpt>
      <trkpt lat="46.97398" lon="8.76514">
        <ele>634</ele>
        <time>2021-08-05T12:39:16.673Z</time>
      </trkpt>
      <trkpt lat="46.97398" lon="8.76515">
        <ele>634</ele>
        <time>2021-08-05T12:39:17.673Z</time>
      </trkpt>
      <trkpt lat="46.97397" lon="8.76515">
        <ele>633</ele>
        <time>2021-08-05T12:39:18.672Z</time>
      </trkpt>
      <trkpt lat="46.97397" lon="8.76515">
        <ele>633</ele>
        <time>2021-08-05T12:39:22.671Z</time>
      </trkpt>
      <trkpt lat="46.97396" lon="8.76516">
        <ele>632</ele>
        <time>2021-08-05T12:39:24.671Z</time>
      </trkpt>
      <trkpt lat="46.97396" lon="8.76515">
        <ele>632</ele>
        <time>2021-08-05T12:39:25.670Z</time>
      </trkpt>
      <trkpt lat="46.97395" lon="8.76517">
        <ele>631</ele>
        <time>2021-08-05T12:39:27.671Z</time>
      </trkpt>
      <trkpt lat="46.97395" lon="8.76516">
        <ele>631</ele>
        <time>2021-08-05T12:39:30.670Z</time>
      </trkpt>
      <trkpt lat="46.97396" lon="8.76516">
        <ele>630</ele>
        <time>2021-08-05T12:39:31.670Z</time>
      </trkpt>
      <trkpt lat="46.97396" lon="8.76516">
        <ele>630</ele>
        <time>2021-08-05T12:39:38.805Z</time>
      </trkpt>
      <trkpt lat="46.97396" lon="8.76515">
        <ele>630</ele>
        <time>2021-08-05T12:39:43.698Z</time>
      </trkpt>
      <trkpt lat="46.97396" lon="8.76516">
        <ele>629</ele>
        <time>2021-08-05T12:39:44.697Z</time>
      </trkpt>
      <trkpt lat="46.97396" lon="8.76515">
        <ele>629</ele>
        <time>2021-08-05T12:39:45.697Z</time>
      </trkpt>
      <trkpt lat="46.97395" lon="8.76516">
        <ele>628</ele>
        <time>2021-08-05T12:39:52.545Z</time>
      </trkpt>
      <trkpt lat="46.97394" lon="8.76521">
        <ele>627</ele>
        <time>2021-08-05T12:39:54.546Z</time>
      </trkpt>
      <trkpt lat="46.97394" lon="8.76523">
        <ele>627</ele>
        <time>2021-08-05T12:39:55.545Z</time>
      </trkpt>
      <trkpt lat="46.97393" lon="8.76523">
        <ele>626</ele>
        <time>2021-08-05T12:39:59.687Z</time>
      </trkpt>
      <trkpt lat="46.97392" lon="8.76523">
        <ele>626</ele>
        <time>2021-08-05T12:40:00.687Z</time>
      </trkpt>
      <trkpt lat="46.97391" lon="8.76523">
        <ele>626</ele>
        <time>2021-08-05T12:40:01.687Z</time>
      </trkpt>
      <trkpt lat="46.9739" lon="8.76522">
        <ele>625</ele>
        <time>2021-08-05T12:40:02.687Z</time>
      </trkpt>
      <trkpt lat="46.9739" lon="8.7652">
        <ele>625</ele>
        <time>2021-08-05T12:40:03.687Z</time>
      </trkpt>
      <trkpt lat="46.97392" lon="8.76516">
        <ele>624</ele>
        <time>2021-08-05T12:40:04.687Z</time>
      </trkpt>
      <trkpt lat="46.97392" lon="8.76516">
        <ele>624</ele>
        <time>2021-08-05T12:40:05.687Z</time>
      </trkpt>
      <trkpt lat="46.97392" lon="8.76516">
        <ele>624</ele>
        <time>2021-08-05T12:40:06.686Z</time>
      </trkpt>
      <trkpt lat="46.97392" lon="8.76515">
        <ele>623</ele>
        <time>2021-08-05T12:40:07.687Z</time>
      </trkpt>
      <trkpt lat="46.97392" lon="8.76516">
        <ele>623</ele>
        <time>2021-08-05T12:40:08.687Z</time>
      </trkpt>
      <trkpt lat="46.97391" lon="8.76517">
        <ele>622</ele>
        <time>2021-08-05T12:40:09.686Z</time>
      </trkpt>
      <trkpt lat="46.97391" lon="8.76518">
        <ele>622</ele>
        <time>2021-08-05T12:40:10.687Z</time>
      </trkpt>
      <trkpt lat="46.9739" lon="8.76518">
        <ele>621</ele>
        <time>2021-08-05T12:40:11.687Z</time>
      </trkpt>
      <trkpt lat="46.97389" lon="8.76518">
        <ele>621</ele>
        <time>2021-08-05T12:40:12.687Z</time>
      </trkpt>
      <trkpt lat="46.97389" lon="8.76517">
        <ele>620</ele>
        <time>2021-08-05T12:40:13.687Z</time>
      </trkpt>
      <trkpt lat="46.97388" lon="8.76515">
        <ele>620</ele>
        <time>2021-08-05T12:40:14.687Z</time>
      </trkpt>
      <trkpt lat="46.97389" lon="8.76513">
        <ele>619</ele>
        <time>2021-08-05T12:40:15.687Z</time>
      </trkpt>
      <trkpt lat="46.9739" lon="8.76508">
        <ele>619</ele>
        <time>2021-08-05T12:40:16.687Z</time>
      </trkpt>
      <trkpt lat="46.97391" lon="8.76502">
        <ele>618</ele>
        <time>2021-08-05T12:40:17.686Z</time>
      </trkpt>
      <trkpt lat="46.97391" lon="8.76493">
        <ele>618</ele>
        <time>2021-08-05T12:40:18.687Z</time>
      </trkpt>
      <trkpt lat="46.97391" lon="8.76488">
        <ele>617</ele>
        <time>2021-08-05T12:40:19.687Z</time>
      </trkpt>
      <trkpt lat="46.97391" lon="8.76486">
        <ele>617</ele>
        <time>2021-08-05T12:40:20.687Z</time>
      </trkpt>
      <trkpt lat="46.9739" lon="8.76485">
        <ele>616</ele>
        <time>2021-08-05T12:40:22.811Z</time>
      </trkpt>
      <trkpt lat="46.9739" lon="8.76485">
        <ele>616</ele>
        <time>2021-08-05T12:40:23.812Z</time>
      </trkpt>
      <trkpt lat="46.9739" lon="8.76485">
        <ele>615</ele>
        <time>2021-08-05T12:40:24.812Z</time>
      </trkpt>
      <trkpt lat="46.9739" lon="8.76485">
        <ele>615</ele>
        <time>2021-08-05T12:40:25.811Z</time>
      </trkpt>
      <trkpt lat="46.9739" lon="8.76486">
        <ele>614</ele>
        <time>2021-08-05T12:40:31.936Z</time>
      </trkpt>
      <trkpt lat="46.97389" lon="8.76486">
        <ele>613</ele>
        <time>2021-08-05T12:40:32.936Z</time>
      </trkpt>
      <trkpt lat="46.97389" lon="8.76484">
        <ele>612</ele>
        <time>2021-08-05T12:40:33.936Z</time>
      </trkpt>
      <trkpt lat="46.9739" lon="8.76482">
        <ele>611</ele>
        <time>2021-08-05T12:40:37.050Z</time>
      </trkpt>
      <trkpt lat="46.97391" lon="8.76481">
        <ele>611</ele>
        <time>2021-08-05T12:40:38.049Z</time>
      </trkpt>
      <trkpt lat="46.97391" lon="8.76481">
        <ele>610</ele>
        <time>2021-08-05T12:40:39.050Z</time>
      </trkpt>
      <trkpt lat="46.97392" lon="8.76482">
        <ele>610</ele>
        <time>2021-08-05T12:40:40.049Z</time>
      </trkpt>
      <trkpt lat="46.97392" lon="8.76484">
        <ele>610</ele>
        <time>2021-08-05T12:40:41.050Z</time>
      </trkpt>
      <trkpt lat="46.97392" lon="8.76487">
        <ele>609</ele>
        <time>2021-08-05T12:40:42.049Z</time>
      </trkpt>
      <trkpt lat="46.97392" lon="8.76488">
        <ele>609</ele>
        <time>2021-08-05T12:40:44.179Z</time>
      </trkpt>
      <trkpt lat="46.97391" lon="8.76489">
        <ele>609</ele>
        <time>2021-08-05T12:40:45.179Z</time>
      </trkpt>
      <trkpt lat="46.97391" lon="8.7649">
        <ele>609</ele>
        <time>2021-08-05T12:40:46.179Z</time>
      </trkpt>
      <trkpt lat="46.97391" lon="8.7649">
        <ele>608</ele>
        <time>2021-08-05T12:40:47.179Z</time>
      </trkpt>
      <trkpt lat="46.97391" lon="8.76491">
        <ele>608</ele>
        <time>2021-08-05T12:40:53.198Z</time>
      </trkpt>
      <trkpt lat="46.97392" lon="8.76491">
        <ele>608</ele>
        <time>2021-08-05T12:40:54.199Z</time>
      </trkpt>
      <trkpt lat="46.97392" lon="8.76491">
        <ele>608</ele>
        <time>2021-08-05T12:40:55.198Z</time>
      </trkpt>
      <trkpt lat="46.97392" lon="8.76492">
        <ele>608</ele>
        <time>2021-08-05T12:41:27.319Z</time>
      </trkpt>
      <trkpt lat="46.97392" lon="8.76493">
        <ele>608</ele>
        <time>2021-08-05T12:41:28.319Z</time>
      </trkpt>
      <trkpt lat="46.97392" lon="8.76496">
        <ele>608</ele>
        <time>2021-08-05T12:41:37.476Z</time>
      </trkpt>
      <trkpt lat="46.97391" lon="8.76498">
        <ele>608</ele>
        <time>2021-08-05T12:41:38.476Z</time>
      </trkpt>
      <trkpt lat="46.97391" lon="8.76499">
        <ele>608</ele>
        <time>2021-08-05T12:41:39.476Z</time>
      </trkpt>
      <trkpt lat="46.9739" lon="8.76506">
        <ele>608</ele>
        <time>2021-08-05T12:41:40.475Z</time>
      </trkpt>
      <trkpt lat="46.9739" lon="8.76506">
        <ele>608</ele>
        <time>2021-08-05T12:41:41.476Z</time>
      </trkpt>
      <trkpt lat="46.97389" lon="8.76508">
        <ele>608</ele>
        <time>2021-08-05T12:42:07.593Z</time>
      </trkpt>
      <trkpt lat="46.97388" lon="8.76509">
        <ele>608</ele>
        <time>2021-08-05T12:42:08.593Z</time>
      </trkpt>
      <trkpt lat="46.97387" lon="8.7651">
        <ele>608</ele>
        <time>2021-08-05T12:42:09.594Z</time>
      </trkpt>
      <trkpt lat="46.97385" lon="8.76511">
        <ele>607</ele>
        <time>2021-08-05T12:42:10.593Z</time>
      </trkpt>
      <trkpt lat="46.97383" lon="8.76514">
        <ele>607</ele>
        <time>2021-08-05T12:42:21.672Z</time>
      </trkpt>
      <trkpt lat="46.9738" lon="8.76515">
        <ele>607</ele>
        <time>2021-08-05T12:42:22.671Z</time>
      </trkpt>
      <trkpt lat="46.9738" lon="8.76516">
        <ele>607</ele>
        <time>2021-08-05T12:42:28.556Z</time>
      </trkpt>
      <trkpt lat="46.97381" lon="8.76518">
        <ele>607</ele>
        <time>2021-08-05T12:42:29.555Z</time>
      </trkpt>
      <trkpt lat="46.97381" lon="8.76519">
        <ele>607</ele>
        <time>2021-08-05T12:42:52.475Z</time>
      </trkpt>
      <trkpt lat="46.97381" lon="8.7652">
        <ele>608</ele>
        <time>2021-08-05T12:42:53.475Z</time>
      </trkpt>
      <trkpt lat="46.9738" lon="8.7652">
        <ele>608</ele>
        <time>2021-08-05T12:42:54.475Z</time>
      </trkpt>
      <trkpt lat="46.97379" lon="8.7652">
        <ele>608</ele>
        <time>2021-08-05T12:43:00.544Z</time>
      </trkpt>
      <trkpt lat="46.97379" lon="8.7652">
        <ele>609</ele>
        <time>2021-08-05T12:43:01.545Z</time>
      </trkpt>
      <trkpt lat="46.97379" lon="8.7652">
        <ele>609</ele>
        <time>2021-08-05T12:43:02.544Z</time>
      </trkpt>
      <trkpt lat="46.97379" lon="8.76521">
        <ele>609</ele>
        <time>2021-08-05T12:43:03.544Z</time>
      </trkpt>
      <trkpt lat="46.97378" lon="8.76521">
        <ele>610</ele>
        <time>2021-08-05T12:43:16.572Z</time>
      </trkpt>
      <trkpt lat="46.97378" lon="8.76523">
        <ele>610</ele>
        <time>2021-08-05T12:43:17.572Z</time>
      </trkpt>
      <trkpt lat="46.97378" lon="8.76524">
        <ele>611</ele>
        <time>2021-08-05T12:43:18.572Z</time>
      </trkpt>
      <trkpt lat="46.97378" lon="8.76525">
        <ele>612</ele>
        <time>2021-08-05T12:43:19.572Z</time>
      </trkpt>
      <trkpt lat="46.97378" lon="8.76525">
        <ele>612</ele>
        <time>2021-08-05T12:43:32.699Z</time>
      </trkpt>
      <trkpt lat="46.97378" lon="8.76524">
        <ele>613</ele>
        <time>2021-08-05T12:43:33.700Z</time>
      </trkpt>
      <trkpt lat="46.97379" lon="8.76524">
        <ele>614</ele>
        <time>2021-08-05T12:43:39.548Z</time>
      </trkpt>
      <trkpt lat="46.9738" lon="8.76523">
        <ele>615</ele>
        <time>2021-08-05T12:43:40.547Z</time>
      </trkpt>
      <trkpt lat="46.9738" lon="8.76523">
        <ele>615</ele>
        <time>2021-08-05T12:43:41.547Z</time>
      </trkpt>
      <trkpt lat="46.97381" lon="8.76523">
        <ele>616</ele>
        <time>2021-08-05T12:43:42.547Z</time>
      </trkpt>
      <trkpt lat="46.97381" lon="8.76524">
        <ele>617</ele>
        <time>2021-08-05T12:43:43.547Z</time>
      </trkpt>
      <trkpt lat="46.97382" lon="8.76524">
        <ele>617</ele>
        <time>2021-08-05T12:43:44.548Z</time>
      </trkpt>
      <trkpt lat="46.97383" lon="8.76524">
        <ele>618</ele>
        <time>2021-08-05T12:43:45.547Z</time>
      </trkpt>
      <trkpt lat="46.97384" lon="8.76524">
        <ele>618</ele>
        <time>2021-08-05T12:43:53.663Z</time>
      </trkpt>
      <trkpt lat="46.97385" lon="8.76523">
        <ele>619</ele>
        <time>2021-08-05T12:43:54.662Z</time>
      </trkpt>
      <trkpt lat="46.97386" lon="8.76521">
        <ele>620</ele>
        <time>2021-08-05T12:43:55.662Z</time>
      </trkpt>
      <trkpt lat="46.97387" lon="8.76521">
        <ele>620</ele>
        <time>2021-08-05T12:44:16.681Z</time>
      </trkpt>
      <trkpt lat="46.97388" lon="8.76522">
        <ele>620</ele>
        <time>2021-08-05T12:44:27.589Z</time>
      </trkpt>
      <trkpt lat="46.9739" lon="8.76522">
        <ele>621</ele>
        <time>2021-08-05T12:44:28.589Z</time>
      </trkpt>
      <trkpt lat="46.97394" lon="8.76518">
        <ele>621</ele>
        <time>2021-08-05T12:44:29.590Z</time>
      </trkpt>
      <trkpt lat="46.97396" lon="8.76516">
        <ele>622</ele>
        <time>2021-08-05T12:44:30.589Z</time>
      </trkpt>
      <trkpt lat="46.97395" lon="8.76513">
        <ele>622</ele>
        <time>2021-08-05T12:44:31.589Z</time>
      </trkpt>
      <trkpt lat="46.97396" lon="8.76512">
        <ele>622</ele>
        <time>2021-08-05T12:44:42.680Z</time>
      </trkpt>
      <trkpt lat="46.97397" lon="8.76512">
        <ele>623</ele>
        <time>2021-08-05T12:44:43.679Z</time>
      </trkpt>
      <trkpt lat="46.97398" lon="8.7651">
        <ele>623</ele>
        <time>2021-08-05T12:44:54.548Z</time>
      </trkpt>
      <trkpt lat="46.97399" lon="8.76508">
        <ele>624</ele>
        <time>2021-08-05T12:44:55.548Z</time>
      </trkpt>
      <trkpt lat="46.974" lon="8.76506">
        <ele>624</ele>
        <time>2021-08-05T12:45:04.452Z</time>
      </trkpt>
      <trkpt lat="46.974" lon="8.76505">
        <ele>625</ele>
        <time>2021-08-05T12:45:05.451Z</time>
      </trkpt>
      <trkpt lat="46.974" lon="8.76505">
        <ele>625</ele>
        <time>2021-08-05T12:45:06.451Z</time>
      </trkpt>
      <trkpt lat="46.97401" lon="8.76507">
        <ele>626</ele>
        <time>2021-08-05T12:45:07.453Z</time>
      </trkpt>
      <trkpt lat="46.97401" lon="8.76507">
        <ele>626</ele>
        <time>2021-08-05T12:45:09.556Z</time>
      </trkpt>
      <trkpt lat="46.97399" lon="8.76507">
        <ele>627</ele>
        <time>2021-08-05T12:45:10.556Z</time>
      </trkpt>
      <trkpt lat="46.97398" lon="8.76507">
        <ele>627</ele>
        <time>2021-08-05T12:45:11.556Z</time>
      </trkpt>
      <trkpt lat="46.97397" lon="8.76507">
        <ele>627</ele>
        <time>2021-08-05T12:45:23.657Z</time>
      </trkpt>
      <trkpt lat="46.97397" lon="8.76506">
        <ele>628</ele>
        <time>2021-08-05T12:45:24.657Z</time>
      </trkpt>
      <trkpt lat="46.97394" lon="8.76504">
        <ele>628</ele>
        <time>2021-08-05T12:45:36.452Z</time>
      </trkpt>
      <trkpt lat="46.97391" lon="8.76502">
        <ele>629</ele>
        <time>2021-08-05T12:45:37.453Z</time>
      </trkpt>
      <trkpt lat="46.97389" lon="8.76501">
        <ele>629</ele>
        <time>2021-08-05T12:45:38.452Z</time>
      </trkpt>
      <trkpt lat="46.97387" lon="8.76504">
        <ele>629</ele>
        <time>2021-08-05T12:46:32.658Z</time>
      </trkpt>
      <trkpt lat="46.97385" lon="8.76507">
        <ele>629</ele>
        <time>2021-08-05T13:23:01.494Z</time>
      </trkpt>
      <trkpt lat="46.97388" lon="8.76514">
        <ele>630</ele>
        <time>2021-08-05T13:23:07.493Z</time>
      </trkpt>
      <trkpt lat="46.97386" lon="8.76517">
        <ele>630</ele>
        <time>2021-08-05T13:23:08.494Z</time>
      </trkpt>
      <trkpt lat="46.97386" lon="8.76521">
        <ele>630</ele>
        <time>2021-08-05T13:23:09.494Z</time>
      </trkpt>
      <trkpt lat="46.97391" lon="8.76528">
        <ele>630</ele>
        <time>2021-08-05T13:23:15.493Z</time>
      </trkpt>
      <trkpt lat="46.97392" lon="8.76528">
        <ele>630</ele>
        <time>2021-08-05T13:23:17.494Z</time>
      </trkpt>
      <trkpt lat="46.97391" lon="8.76527">
        <ele>630</ele>
        <time>2021-08-05T13:23:18.494Z</time>
      </trkpt>
      <trkpt lat="46.9739" lon="8.76526">
        <ele>630</ele>
        <time>2021-08-05T13:23:19.493Z</time>
      </trkpt>
      <trkpt lat="46.97392" lon="8.76525">
        <ele>630</ele>
        <time>2021-08-05T13:23:25.494Z</time>
      </trkpt>
      <trkpt lat="46.97392" lon="8.76527">
        <ele>630</ele>
        <time>2021-08-05T13:23:26.494Z</time>
      </trkpt>
      <trkpt lat="46.97389" lon="8.76546">
        <ele>630</ele>
        <time>2021-08-05T13:23:33.494Z</time>
      </trkpt>
      <trkpt lat="46.97389" lon="8.76545">
        <ele>630</ele>
        <time>2021-08-05T13:23:34.494Z</time>
      </trkpt>
      <trkpt lat="46.97388" lon="8.76545">
        <ele>630</ele>
        <time>2021-08-05T13:23:35.494Z</time>
      </trkpt>
      <trkpt lat="46.97387" lon="8.76545">
        <ele>630</ele>
        <time>2021-08-05T13:23:36.494Z</time>
      </trkpt>
      <trkpt lat="46.97385" lon="8.76545">
        <ele>630</ele>
        <time>2021-08-05T13:23:37.494Z</time>
      </trkpt>
      <trkpt lat="46.97385" lon="8.76545">
        <ele>629</ele>
        <time>2021-08-05T13:23:38.493Z</time>
      </trkpt>
      <trkpt lat="46.97382" lon="8.76544">
        <ele>629</ele>
        <time>2021-08-05T13:23:39.494Z</time>
      </trkpt>
      <trkpt lat="46.97384" lon="8.76542">
        <ele>629</ele>
        <time>2021-08-05T13:23:40.493Z</time>
      </trkpt>
      <trkpt lat="46.97386" lon="8.76541">
        <ele>628</ele>
        <time>2021-08-05T13:23:41.494Z</time>
      </trkpt>
      <trkpt lat="46.97395" lon="8.76541">
        <ele>626</ele>
        <time>2021-08-05T13:23:44.493Z</time>
      </trkpt>
      <trkpt lat="46.97396" lon="8.76541">
        <ele>625</ele>
        <time>2021-08-05T13:23:45.493Z</time>
      </trkpt>
      <trkpt lat="46.97399" lon="8.7654">
        <ele>624</ele>
        <time>2021-08-05T13:23:48.493Z</time>
      </trkpt>
      <trkpt lat="46.97397" lon="8.76538">
        <ele>624</ele>
        <time>2021-08-05T13:23:49.494Z</time>
      </trkpt>
      <trkpt lat="46.97396" lon="8.76537">
        <ele>624</ele>
        <time>2021-08-05T13:23:59.571Z</time>
      </trkpt>
      <trkpt lat="46.97394" lon="8.76535">
        <ele>625</ele>
        <time>2021-08-05T13:24:00.570Z</time>
      </trkpt>
      <trkpt lat="46.97395" lon="8.76535">
        <ele>625</ele>
        <time>2021-08-05T13:24:01.571Z</time>
      </trkpt>
      <trkpt lat="46.97397" lon="8.76535">
        <ele>625</ele>
        <time>2021-08-05T13:24:02.570Z</time>
      </trkpt>
      <trkpt lat="46.974" lon="8.76536">
        <ele>626</ele>
        <time>2021-08-05T13:24:03.570Z</time>
      </trkpt>
      <trkpt lat="46.97402" lon="8.76537">
        <ele>627</ele>
        <time>2021-08-05T13:24:04.570Z</time>
      </trkpt>
      <trkpt lat="46.97405" lon="8.76538">
        <ele>627</ele>
        <time>2021-08-05T13:24:05.570Z</time>
      </trkpt>
      <trkpt lat="46.97407" lon="8.76538">
        <ele>628</ele>
        <time>2021-08-05T13:24:06.570Z</time>
      </trkpt>
      <trkpt lat="46.9741" lon="8.76542">
        <ele>629</ele>
        <time>2021-08-05T13:24:07.570Z</time>
      </trkpt>
      <trkpt lat="46.97408" lon="8.76542">
        <ele>630</ele>
        <time>2021-08-05T13:24:08.570Z</time>
      </trkpt>
      <trkpt lat="46.97358" lon="8.76513">
        <ele>634</ele>
        <time>2021-08-05T13:27:17.532Z</time>
      </trkpt>
      <trkpt lat="46.97362" lon="8.7654">
        <ele>636</ele>
        <time>2021-08-05T13:27:18.532Z</time>
      </trkpt>
      <trkpt lat="46.97369" lon="8.76513">
        <ele>638</ele>
        <time>2021-08-05T13:27:19.531Z</time>
      </trkpt>
      <trkpt lat="46.97373" lon="8.76502">
        <ele>639</ele>
        <time>2021-08-05T13:27:20.532Z</time>
      </trkpt>
      <trkpt lat="46.97377" lon="8.76494">
        <ele>640</ele>
        <time>2021-08-05T13:27:21.531Z</time>
      </trkpt>
      <trkpt lat="46.97375" lon="8.76488">
        <ele>642</ele>
        <time>2021-08-05T13:27:22.532Z</time>
      </trkpt>
      <trkpt lat="46.97376" lon="8.76489">
        <ele>642</ele>
        <time>2021-08-05T13:27:23.531Z</time>
      </trkpt>
      <trkpt lat="46.97381" lon="8.76493">
        <ele>643</ele>
        <time>2021-08-05T13:27:24.531Z</time>
      </trkpt>
      <trkpt lat="46.97386" lon="8.76496">
        <ele>644</ele>
        <time>2021-08-05T13:27:25.531Z</time>
      </trkpt>
      <trkpt lat="46.97381" lon="8.76511">
        <ele>644</ele>
        <time>2021-08-05T13:27:26.532Z</time>
      </trkpt>
      <trkpt lat="46.97383" lon="8.76518">
        <ele>644</ele>
        <time>2021-08-05T13:27:27.531Z</time>
      </trkpt>
      <trkpt lat="46.97384" lon="8.76523">
        <ele>643</ele>
        <time>2021-08-05T13:27:28.531Z</time>
      </trkpt>
      <trkpt lat="46.97385" lon="8.76526">
        <ele>642</ele>
        <time>2021-08-05T13:27:29.531Z</time>
      </trkpt>
      <trkpt lat="46.97385" lon="8.76526">
        <ele>641</ele>
        <time>2021-08-05T13:27:30.531Z</time>
      </trkpt>
      <trkpt lat="46.97386" lon="8.76523">
        <ele>640</ele>
        <time>2021-08-05T13:27:31.531Z</time>
      </trkpt>
      <trkpt lat="46.97388" lon="8.76515">
        <ele>639</ele>
        <time>2021-08-05T13:27:32.531Z</time>
      </trkpt>
      <trkpt lat="46.97391" lon="8.765">
        <ele>637</ele>
        <time>2021-08-05T13:27:34.532Z</time>
      </trkpt>
      <trkpt lat="46.97392" lon="8.76495">
        <ele>637</ele>
        <time>2021-08-05T13:27:35.531Z</time>
      </trkpt>
      <trkpt lat="46.97396" lon="8.76482">
        <ele>636</ele>
        <time>2021-08-05T13:27:36.531Z</time>
      </trkpt>
      <trkpt lat="46.97397" lon="8.76479">
        <ele>636</ele>
        <time>2021-08-05T13:27:37.531Z</time>
      </trkpt>
      <trkpt lat="46.974" lon="8.76474">
        <ele>635</ele>
        <time>2021-08-05T13:27:38.531Z</time>
      </trkpt>
      <trkpt lat="46.97402" lon="8.76473">
        <ele>634</ele>
        <time>2021-08-05T13:27:39.531Z</time>
      </trkpt>
      <trkpt lat="46.97401" lon="8.76471">
        <ele>634</ele>
        <time>2021-08-05T13:27:40.531Z</time>
      </trkpt>
      <trkpt lat="46.97402" lon="8.76468">
        <ele>633</ele>
        <time>2021-08-05T13:27:41.531Z</time>
      </trkpt>
      <trkpt lat="46.97403" lon="8.76465">
        <ele>633</ele>
        <time>2021-08-05T13:27:42.531Z</time>
      </trkpt>
      <trkpt lat="46.97403" lon="8.76462">
        <ele>632</ele>
        <time>2021-08-05T13:27:43.531Z</time>
      </trkpt>
      <trkpt lat="46.97402" lon="8.76462">
        <ele>632</ele>
        <time>2021-08-05T13:27:44.531Z</time>
      </trkpt>
      <trkpt lat="46.97401" lon="8.76462">
        <ele>632</ele>
        <time>2021-08-05T13:27:45.531Z</time>
      </trkpt>
      <trkpt lat="46.97401" lon="8.76462">
        <ele>632</ele>
        <time>2021-08-05T13:27:46.532Z</time>
      </trkpt>
      <trkpt lat="46.974" lon="8.76461">
        <ele>632</ele>
        <time>2021-08-05T13:27:47.531Z</time>
      </trkpt>
      <trkpt lat="46.974" lon="8.76459">
        <ele>633</ele>
        <time>2021-08-05T13:27:48.531Z</time>
      </trkpt>
      <trkpt lat="46.97399" lon="8.76462">
        <ele>633</ele>
        <time>2021-08-05T13:27:49.532Z</time>
      </trkpt>
      <trkpt lat="46.97397" lon="8.76467">
        <ele>633</ele>
        <time>2021-08-05T13:27:50.532Z</time>
      </trkpt>
      <trkpt lat="46.97395" lon="8.7647">
        <ele>634</ele>
        <time>2021-08-05T13:27:51.532Z</time>
      </trkpt>
      <trkpt lat="46.97393" lon="8.76473">
        <ele>634</ele>
        <time>2021-08-05T13:27:52.531Z</time>
      </trkpt>
      <trkpt lat="46.97391" lon="8.76475">
        <ele>635</ele>
        <time>2021-08-05T13:27:53.532Z</time>
      </trkpt>
      <trkpt lat="46.97391" lon="8.76475">
        <ele>635</ele>
        <time>2021-08-05T13:27:54.532Z</time>
      </trkpt>
      <trkpt lat="46.97389" lon="8.76475">
        <ele>636</ele>
        <time>2021-08-05T13:27:55.532Z</time>
      </trkpt>
      <trkpt lat="46.97387" lon="8.76479">
        <ele>637</ele>
        <time>2021-08-05T13:27:56.532Z</time>
      </trkpt>
      <trkpt lat="46.97386" lon="8.7648">
        <ele>637</ele>
        <time>2021-08-05T13:27:57.531Z</time>
      </trkpt>
      <trkpt lat="46.97385" lon="8.76481">
        <ele>638</ele>
        <time>2021-08-05T13:27:58.532Z</time>
      </trkpt>
      <trkpt lat="46.97384" lon="8.76483">
        <ele>639</ele>
        <time>2021-08-05T13:27:59.531Z</time>
      </trkpt>
      <trkpt lat="46.97383" lon="8.76484">
        <ele>640</ele>
        <time>2021-08-05T13:28:00.532Z</time>
      </trkpt>
      <trkpt lat="46.97384" lon="8.76484">
        <ele>641</ele>
        <time>2021-08-05T13:28:01.531Z</time>
      </trkpt>
      <trkpt lat="46.97384" lon="8.76482">
        <ele>642</ele>
        <time>2021-08-05T13:28:02.532Z</time>
      </trkpt>
      <trkpt lat="46.97384" lon="8.76481">
        <ele>642</ele>
        <time>2021-08-05T13:28:03.532Z</time>
      </trkpt>
      <trkpt lat="46.97383" lon="8.76482">
        <ele>643</ele>
        <time>2021-08-05T13:28:04.532Z</time>
      </trkpt>
      <trkpt lat="46.97384" lon="8.76481">
        <ele>644</ele>
        <time>2021-08-05T13:28:05.532Z</time>
      </trkpt>
      <trkpt lat="46.97385" lon="8.7648">
        <ele>645</ele>
        <time>2021-08-05T13:28:06.532Z</time>
      </trkpt>
      <trkpt lat="46.97386" lon="8.76479">
        <ele>646</ele>
        <time>2021-08-05T13:28:07.532Z</time>
      </trkpt>
      <trkpt lat="46.97386" lon="8.76478">
        <ele>646</ele>
        <time>2021-08-05T13:28:08.532Z</time>
      </trkpt>
      <trkpt lat="46.97387" lon="8.76478">
        <ele>646</ele>
        <time>2021-08-05T13:28:09.532Z</time>
      </trkpt>
      <trkpt lat="46.97385" lon="8.76479">
        <ele>647</ele>
        <time>2021-08-05T13:28:10.532Z</time>
      </trkpt>
      <trkpt lat="46.97385" lon="8.76479">
        <ele>647</ele>
        <time>2021-08-05T13:28:11.531Z</time>
      </trkpt>
      <trkpt lat="46.97384" lon="8.7648">
        <ele>647</ele>
        <time>2021-08-05T13:28:12.532Z</time>
      </trkpt>
      <trkpt lat="46.97382" lon="8.76484">
        <ele>648</ele>
        <time>2021-08-05T13:28:13.532Z</time>
      </trkpt>
      <trkpt lat="46.97381" lon="8.76488">
        <ele>648</ele>
        <time>2021-08-05T13:28:14.532Z</time>
      </trkpt>
      <trkpt lat="46.9738" lon="8.76491">
        <ele>649</ele>
        <time>2021-08-05T13:28:15.531Z</time>
      </trkpt>
      <trkpt lat="46.97379" lon="8.76495">
        <ele>649</ele>
        <time>2021-08-05T13:28:16.532Z</time>
      </trkpt>
      <trkpt lat="46.97379" lon="8.76498">
        <ele>649</ele>
        <time>2021-08-05T13:28:17.531Z</time>
      </trkpt>
      <trkpt lat="46.97377" lon="8.76502">
        <ele>650</ele>
        <time>2021-08-05T13:28:18.532Z</time>
      </trkpt>
      <trkpt lat="46.97376" lon="8.76505">
        <ele>650</ele>
        <time>2021-08-05T13:28:19.531Z</time>
      </trkpt>
      <trkpt lat="46.97376" lon="8.76507">
        <ele>651</ele>
        <time>2021-08-05T13:28:20.531Z</time>
      </trkpt>
      <trkpt lat="46.97377" lon="8.76509">
        <ele>652</ele>
        <time>2021-08-05T13:28:21.531Z</time>
      </trkpt>
      <trkpt lat="46.97377" lon="8.7651">
        <ele>652</ele>
        <time>2021-08-05T13:28:22.532Z</time>
      </trkpt>
      <trkpt lat="46.97376" lon="8.7651">
        <ele>653</ele>
        <time>2021-08-05T13:28:23.532Z</time>
      </trkpt>
      <trkpt lat="46.97376" lon="8.7651">
        <ele>654</ele>
        <time>2021-08-05T13:28:24.532Z</time>
      </trkpt>
      <trkpt lat="46.97376" lon="8.76511">
        <ele>654</ele>
        <time>2021-08-05T13:28:25.531Z</time>
      </trkpt>
      <trkpt lat="46.97376" lon="8.76512">
        <ele>655</ele>
        <time>2021-08-05T13:28:26.531Z</time>
      </trkpt>
      <trkpt lat="46.97375" lon="8.76511">
        <ele>655</ele>
        <time>2021-08-05T13:28:27.532Z</time>
      </trkpt>
      <trkpt lat="46.97373" lon="8.76513">
        <ele>657</ele>
        <time>2021-08-05T13:28:28.532Z</time>
      </trkpt>
      <trkpt lat="46.97373" lon="8.76512">
        <ele>657</ele>
        <time>2021-08-05T13:28:29.533Z</time>
      </trkpt>
      <trkpt lat="46.97373" lon="8.76511">
        <ele>657</ele>
        <time>2021-08-05T13:28:30.532Z</time>
      </trkpt>
      <trkpt lat="46.97373" lon="8.76509">
        <ele>658</ele>
        <time>2021-08-05T13:28:31.533Z</time>
      </trkpt>
      <trkpt lat="46.97373" lon="8.76508">
        <ele>658</ele>
        <time>2021-08-05T13:28:32.532Z</time>
      </trkpt>
      <trkpt lat="46.97373" lon="8.76508">
        <ele>659</ele>
        <time>2021-08-05T13:28:33.532Z</time>
      </trkpt>
      <trkpt lat="46.97373" lon="8.76507">
        <ele>659</ele>
        <time>2021-08-05T13:28:34.532Z</time>
      </trkpt>
      <trkpt lat="46.97372" lon="8.76507">
        <ele>660</ele>
        <time>2021-08-05T13:28:35.532Z</time>
      </trkpt>
      <trkpt lat="46.97372" lon="8.76507">
        <ele>660</ele>
        <time>2021-08-05T13:28:36.533Z</time>
      </trkpt>
      <trkpt lat="46.97372" lon="8.76507">
        <ele>661</ele>
        <time>2021-08-05T13:28:37.533Z</time>
      </trkpt>
      <trkpt lat="46.97371" lon="8.76507">
        <ele>661</ele>
        <time>2021-08-05T13:28:38.533Z</time>
      </trkpt>
      <trkpt lat="46.97371" lon="8.76507">
        <ele>661</ele>
        <time>2021-08-05T13:28:39.533Z</time>
      </trkpt>
      <trkpt lat="46.97371" lon="8.76507">
        <ele>662</ele>
        <time>2021-08-05T13:28:40.533Z</time>
      </trkpt>
      <trkpt lat="46.97371" lon="8.76505">
        <ele>662</ele>
        <time>2021-08-05T13:28:41.533Z</time>
      </trkpt>
      <trkpt lat="46.97372" lon="8.76502">
        <ele>663</ele>
        <time>2021-08-05T13:28:42.532Z</time>
      </trkpt>
      <trkpt lat="46.97373" lon="8.765">
        <ele>663</ele>
        <time>2021-08-05T13:28:43.533Z</time>
      </trkpt>
      <trkpt lat="46.9738" lon="8.76493">
        <ele>667</ele>
        <time>2021-08-05T13:28:44.533Z</time>
      </trkpt>
      <trkpt lat="46.9738" lon="8.76493">
        <ele>667</ele>
        <time>2021-08-05T13:28:45.533Z</time>
      </trkpt>
      <trkpt lat="46.9738" lon="8.76494">
        <ele>666</ele>
        <time>2021-08-05T13:28:46.532Z</time>
      </trkpt>
      <trkpt lat="46.97379" lon="8.76494">
        <ele>666</ele>
        <time>2021-08-05T13:28:47.533Z</time>
      </trkpt>
      <trkpt lat="46.97379" lon="8.76495">
        <ele>666</ele>
        <time>2021-08-05T13:28:48.532Z</time>
      </trkpt>
      <trkpt lat="46.9738" lon="8.76494">
        <ele>665</ele>
        <time>2021-08-05T13:28:49.532Z</time>
      </trkpt>
      <trkpt lat="46.9738" lon="8.76493">
        <ele>665</ele>
        <time>2021-08-05T13:28:50.533Z</time>
      </trkpt>
      <trkpt lat="46.97379" lon="8.76494">
        <ele>664</ele>
        <time>2021-08-05T13:28:51.533Z</time>
      </trkpt>
      <trkpt lat="46.97379" lon="8.76494">
        <ele>664</ele>
        <time>2021-08-05T13:28:52.532Z</time>
      </trkpt>
      <trkpt lat="46.97379" lon="8.76495">
        <ele>664</ele>
        <time>2021-08-05T13:28:53.532Z</time>
      </trkpt>
      <trkpt lat="46.97379" lon="8.76496">
        <ele>663</ele>
        <time>2021-08-05T13:28:54.533Z</time>
      </trkpt>
      <trkpt lat="46.97379" lon="8.76497">
        <ele>663</ele>
        <time>2021-08-05T13:28:55.532Z</time>
      </trkpt>
      <trkpt lat="46.97379" lon="8.76498">
        <ele>662</ele>
        <time>2021-08-05T13:28:56.532Z</time>
      </trkpt>
      <trkpt lat="46.9738" lon="8.76498">
        <ele>662</ele>
        <time>2021-08-05T13:28:57.532Z</time>
      </trkpt>
      <trkpt lat="46.9738" lon="8.76497">
        <ele>661</ele>
        <time>2021-08-05T13:28:58.532Z</time>
      </trkpt>
      <trkpt lat="46.97381" lon="8.76497">
        <ele>661</ele>
        <time>2021-08-05T13:28:59.532Z</time>
      </trkpt>
      <trkpt lat="46.97382" lon="8.76496">
        <ele>660</ele>
        <time>2021-08-05T13:29:00.532Z</time>
      </trkpt>
      <trkpt lat="46.97383" lon="8.76496">
        <ele>660</ele>
        <time>2021-08-05T13:29:01.532Z</time>
      </trkpt>
      <trkpt lat="46.97382" lon="8.76498">
        <ele>659</ele>
        <time>2021-08-05T13:29:02.532Z</time>
      </trkpt>
      <trkpt lat="46.97382" lon="8.765">
        <ele>659</ele>
        <time>2021-08-05T13:29:03.532Z</time>
      </trkpt>
      <trkpt lat="46.97382" lon="8.76501">
        <ele>659</ele>
        <time>2021-08-05T13:29:04.532Z</time>
      </trkpt>
      <trkpt lat="46.97381" lon="8.76502">
        <ele>658</ele>
        <time>2021-08-05T13:29:05.532Z</time>
      </trkpt>
      <trkpt lat="46.97381" lon="8.76503">
        <ele>658</ele>
        <time>2021-08-05T13:29:06.532Z</time>
      </trkpt>
      <trkpt lat="46.9738" lon="8.76505">
        <ele>657</ele>
        <time>2021-08-05T13:29:07.532Z</time>
      </trkpt>
      <trkpt lat="46.9738" lon="8.76506">
        <ele>657</ele>
        <time>2021-08-05T13:29:08.532Z</time>
      </trkpt>
      <trkpt lat="46.97381" lon="8.76505">
        <ele>657</ele>
        <time>2021-08-05T13:29:09.532Z</time>
      </trkpt>
      <trkpt lat="46.97381" lon="8.76505">
        <ele>656</ele>
        <time>2021-08-05T13:29:10.533Z</time>
      </trkpt>
      <trkpt lat="46.97381" lon="8.76505">
        <ele>656</ele>
        <time>2021-08-05T13:29:11.532Z</time>
      </trkpt>
      <trkpt lat="46.97381" lon="8.76507">
        <ele>655</ele>
        <time>2021-08-05T13:29:12.534Z</time>
      </trkpt>
      <trkpt lat="46.97381" lon="8.76508">
        <ele>655</ele>
        <time>2021-08-05T13:29:13.534Z</time>
      </trkpt>
      <trkpt lat="46.97381" lon="8.76509">
        <ele>654</ele>
        <time>2021-08-05T13:29:14.534Z</time>
      </trkpt>
      <trkpt lat="46.97381" lon="8.76509">
        <ele>654</ele>
        <time>2021-08-05T13:29:15.533Z</time>
      </trkpt>
      <trkpt lat="46.97381" lon="8.76509">
        <ele>654</ele>
        <time>2021-08-05T13:29:16.533Z</time>
      </trkpt>
      <trkpt lat="46.9738" lon="8.76509">
        <ele>654</ele>
        <time>2021-08-05T13:29:17.534Z</time>
      </trkpt>
      <trkpt lat="46.9738" lon="8.76508">
        <ele>654</ele>
        <time>2021-08-05T13:29:18.533Z</time>
      </trkpt>
      <trkpt lat="46.9738" lon="8.76508">
        <ele>653</ele>
        <time>2021-08-05T13:29:19.534Z</time>
      </trkpt>
      <trkpt lat="46.97379" lon="8.76509">
        <ele>653</ele>
        <time>2021-08-05T13:29:20.533Z</time>
      </trkpt>
      <trkpt lat="46.97378" lon="8.7651">
        <ele>653</ele>
        <time>2021-08-05T13:29:21.533Z</time>
      </trkpt>
      <trkpt lat="46.97376" lon="8.76511">
        <ele>653</ele>
        <time>2021-08-05T13:29:22.533Z</time>
      </trkpt>
      <trkpt lat="46.97375" lon="8.7651">
        <ele>653</ele>
        <time>2021-08-05T13:29:23.534Z</time>
      </trkpt>
      <trkpt lat="46.97375" lon="8.76508">
        <ele>653</ele>
        <time>2021-08-05T13:29:24.533Z</time>
      </trkpt>
      <trkpt lat="46.97375" lon="8.76507">
        <ele>653</ele>
        <time>2021-08-05T13:29:25.534Z</time>
      </trkpt>
      <trkpt lat="46.97376" lon="8.76506">
        <ele>653</ele>
        <time>2021-08-05T13:29:26.534Z</time>
      </trkpt>
      <trkpt lat="46.97378" lon="8.76504">
        <ele>653</ele>
        <time>2021-08-05T13:29:27.534Z</time>
      </trkpt>
      <trkpt lat="46.97379" lon="8.76503">
        <ele>653</ele>
        <time>2021-08-05T13:29:28.533Z</time>
      </trkpt>
      <trkpt lat="46.97379" lon="8.76503">
        <ele>653</ele>
        <time>2021-08-05T13:29:29.534Z</time>
      </trkpt>
      <trkpt lat="46.97379" lon="8.76504">
        <ele>652</ele>
        <time>2021-08-05T13:29:30.534Z</time>
      </trkpt>
      <trkpt lat="46.9738" lon="8.76505">
        <ele>652</ele>
        <time>2021-08-05T13:29:31.534Z</time>
      </trkpt>
      <trkpt lat="46.9738" lon="8.76505">
        <ele>652</ele>
        <time>2021-08-05T13:29:32.534Z</time>
      </trkpt>
      <trkpt lat="46.9738" lon="8.76505">
        <ele>651</ele>
        <time>2021-08-05T13:29:33.534Z</time>
      </trkpt>
      <trkpt lat="46.97377" lon="8.76511">
        <ele>650</ele>
        <time>2021-08-05T13:29:34.534Z</time>
      </trkpt>
      <trkpt lat="46.97377" lon="8.76511">
        <ele>650</ele>
        <time>2021-08-05T13:29:35.533Z</time>
      </trkpt>
      <trkpt lat="46.97376" lon="8.76512">
        <ele>650</ele>
        <time>2021-08-05T13:29:36.534Z</time>
      </trkpt>
      <trkpt lat="46.97376" lon="8.76512">
        <ele>650</ele>
        <time>2021-08-05T13:29:37.533Z</time>
      </trkpt>
      <trkpt lat="46.97376" lon="8.76512">
        <ele>650</ele>
        <time>2021-08-05T13:29:38.534Z</time>
      </trkpt>
      <trkpt lat="46.97376" lon="8.76512">
        <ele>650</ele>
        <time>2021-08-05T13:29:39.534Z</time>
      </trkpt>
      <trkpt lat="46.97376" lon="8.76512">
        <ele>650</ele>
        <time>2021-08-05T13:29:40.533Z</time>
      </trkpt>
      <trkpt lat="46.97377" lon="8.76512">
        <ele>650</ele>
        <time>2021-08-05T13:29:41.534Z</time>
      </trkpt>
      <trkpt lat="46.97378" lon="8.76511">
        <ele>650</ele>
        <time>2021-08-05T13:29:42.533Z</time>
      </trkpt>
      <trkpt lat="46.9738" lon="8.76511">
        <ele>650</ele>
        <time>2021-08-05T13:29:43.533Z</time>
      </trkpt>
      <trkpt lat="46.97381" lon="8.76511">
        <ele>649</ele>
        <time>2021-08-05T13:29:44.534Z</time>
      </trkpt>
      <trkpt lat="46.97381" lon="8.76511">
        <ele>649</ele>
        <time>2021-08-05T13:29:45.533Z</time>
      </trkpt>
      <trkpt lat="46.97381" lon="8.76512">
        <ele>649</ele>
        <time>2021-08-05T13:29:46.534Z</time>
      </trkpt>
      <trkpt lat="46.97382" lon="8.76512">
        <ele>649</ele>
        <time>2021-08-05T13:29:47.534Z</time>
      </trkpt>
      <trkpt lat="46.97382" lon="8.76512">
        <ele>649</ele>
        <time>2021-08-05T13:29:48.534Z</time>
      </trkpt>
      <trkpt lat="46.97383" lon="8.76513">
        <ele>648</ele>
        <time>2021-08-05T13:29:49.534Z</time>
      </trkpt>
      <trkpt lat="46.97383" lon="8.76513">
        <ele>648</ele>
        <time>2021-08-05T13:29:50.533Z</time>
      </trkpt>
      <trkpt lat="46.97384" lon="8.76512">
        <ele>648</ele>
        <time>2021-08-05T13:29:51.534Z</time>
      </trkpt>
      <trkpt lat="46.97385" lon="8.76511">
        <ele>648</ele>
        <time>2021-08-05T13:29:52.533Z</time>
      </trkpt>
      <trkpt lat="46.97386" lon="8.76509">
        <ele>647</ele>
        <time>2021-08-05T13:29:53.533Z</time>
      </trkpt>
      <trkpt lat="46.97387" lon="8.76507">
        <ele>647</ele>
        <time>2021-08-05T13:29:54.534Z</time>
      </trkpt>
      <trkpt lat="46.97387" lon="8.76505">
        <ele>647</ele>
        <time>2021-08-05T13:29:55.533Z</time>
      </trkpt>
      <trkpt lat="46.97388" lon="8.76503">
        <ele>647</ele>
        <time>2021-08-05T13:29:56.533Z</time>
      </trkpt>
      <trkpt lat="46.97388" lon="8.76501">
        <ele>646</ele>
        <time>2021-08-05T13:29:57.534Z</time>
      </trkpt>
      <trkpt lat="46.97387" lon="8.765">
        <ele>646</ele>
        <time>2021-08-05T13:29:58.534Z</time>
      </trkpt>
      <trkpt lat="46.97388" lon="8.76498">
        <ele>646</ele>
        <time>2021-08-05T13:29:59.533Z</time>
      </trkpt>
      <trkpt lat="46.97389" lon="8.76496">
        <ele>646</ele>
        <time>2021-08-05T13:30:00.534Z</time>
      </trkpt>
      <trkpt lat="46.97391" lon="8.76493">
        <ele>645</ele>
        <time>2021-08-05T13:30:01.534Z</time>
      </trkpt>
      <trkpt lat="46.97392" lon="8.76491">
        <ele>645</ele>
        <time>2021-08-05T13:30:02.534Z</time>
      </trkpt>
      <trkpt lat="46.97393" lon="8.7649">
        <ele>645</ele>
        <time>2021-08-05T13:30:03.533Z</time>
      </trkpt>
      <trkpt lat="46.97393" lon="8.76488">
        <ele>644</ele>
        <time>2021-08-05T13:30:04.534Z</time>
      </trkpt>
      <trkpt lat="46.97393" lon="8.76487">
        <ele>644</ele>
        <time>2021-08-05T13:30:05.533Z</time>
      </trkpt>
      <trkpt lat="46.97393" lon="8.76486">
        <ele>644</ele>
        <time>2021-08-05T13:30:06.534Z</time>
      </trkpt>
      <trkpt lat="46.97394" lon="8.76484">
        <ele>644</ele>
        <time>2021-08-05T13:30:07.534Z</time>
      </trkpt>
      <trkpt lat="46.97393" lon="8.76482">
        <ele>643</ele>
        <time>2021-08-05T13:30:08.534Z</time>
      </trkpt>
      <trkpt lat="46.97393" lon="8.76482">
        <ele>643</ele>
        <time>2021-08-05T13:30:09.533Z</time>
      </trkpt>
      <trkpt lat="46.97392" lon="8.76482">
        <ele>642</ele>
        <time>2021-08-05T13:30:10.534Z</time>
      </trkpt>
      <trkpt lat="46.97392" lon="8.76482">
        <ele>642</ele>
        <time>2021-08-05T13:30:11.534Z</time>
      </trkpt>
      <trkpt lat="46.97391" lon="8.76483">
        <ele>642</ele>
        <time>2021-08-05T13:30:12.533Z</time>
      </trkpt>
      <trkpt lat="46.97391" lon="8.76483">
        <ele>641</ele>
        <time>2021-08-05T13:30:13.533Z</time>
      </trkpt>
      <trkpt lat="46.97391" lon="8.76484">
        <ele>641</ele>
        <time>2021-08-05T13:30:14.534Z</time>
      </trkpt>
      <trkpt lat="46.97392" lon="8.76486">
        <ele>641</ele>
        <time>2021-08-05T13:30:15.534Z</time>
      </trkpt>
      <trkpt lat="46.97391" lon="8.76487">
        <ele>641</ele>
        <time>2021-08-05T13:30:16.533Z</time>
      </trkpt>
      <trkpt lat="46.97391" lon="8.76489">
        <ele>641</ele>
        <time>2021-08-05T13:30:17.534Z</time>
      </trkpt>
      <trkpt lat="46.9739" lon="8.76491">
        <ele>641</ele>
        <time>2021-08-05T13:30:18.533Z</time>
      </trkpt>
      <trkpt lat="46.9739" lon="8.76494">
        <ele>640</ele>
        <time>2021-08-05T13:30:19.534Z</time>
      </trkpt>
      <trkpt lat="46.97389" lon="8.76496">
        <ele>640</ele>
        <time>2021-08-05T13:30:20.534Z</time>
      </trkpt>
      <trkpt lat="46.97389" lon="8.76497">
        <ele>640</ele>
        <time>2021-08-05T13:30:21.534Z</time>
      </trkpt>
      <trkpt lat="46.97389" lon="8.76498">
        <ele>640</ele>
        <time>2021-08-05T13:30:22.533Z</time>
      </trkpt>
      <trkpt lat="46.9739" lon="8.76496">
        <ele>640</ele>
        <time>2021-08-05T13:30:23.534Z</time>
      </trkpt>
      <trkpt lat="46.9739" lon="8.76496">
        <ele>640</ele>
        <time>2021-08-05T13:30:24.534Z</time>
      </trkpt>
      <trkpt lat="46.97389" lon="8.76496">
        <ele>640</ele>
        <time>2021-08-05T13:30:25.534Z</time>
      </trkpt>
      <trkpt lat="46.97389" lon="8.76496">
        <ele>640</ele>
        <time>2021-08-05T13:30:26.534Z</time>
      </trkpt>
      <trkpt lat="46.97389" lon="8.76496">
        <ele>640</ele>
        <time>2021-08-05T13:30:27.533Z</time>
      </trkpt>
      <trkpt lat="46.97391" lon="8.76495">
        <ele>639</ele>
        <time>2021-08-05T13:30:28.534Z</time>
      </trkpt>
      <trkpt lat="46.97392" lon="8.76495">
        <ele>639</ele>
        <time>2021-08-05T13:30:29.533Z</time>
      </trkpt>
      <trkpt lat="46.97394" lon="8.76494">
        <ele>639</ele>
        <time>2021-08-05T13:30:30.534Z</time>
      </trkpt>
      <trkpt lat="46.97396" lon="8.76493">
        <ele>639</ele>
        <time>2021-08-05T13:30:31.534Z</time>
      </trkpt>
      <trkpt lat="46.97397" lon="8.76491">
        <ele>639</ele>
        <time>2021-08-05T13:30:32.533Z</time>
      </trkpt>
      <trkpt lat="46.97399" lon="8.7649">
        <ele>639</ele>
        <time>2021-08-05T13:30:33.534Z</time>
      </trkpt>
      <trkpt lat="46.974" lon="8.76488">
        <ele>639</ele>
        <time>2021-08-05T13:30:34.534Z</time>
      </trkpt>
      <trkpt lat="46.97401" lon="8.76487">
        <ele>639</ele>
        <time>2021-08-05T13:30:35.533Z</time>
      </trkpt>
      <trkpt lat="46.97402" lon="8.76486">
        <ele>639</ele>
        <time>2021-08-05T13:30:36.533Z</time>
      </trkpt>
      <trkpt lat="46.97403" lon="8.76485">
        <ele>639</ele>
        <time>2021-08-05T13:30:37.533Z</time>
      </trkpt>
      <trkpt lat="46.97403" lon="8.76486">
        <ele>638</ele>
        <time>2021-08-05T13:30:42.580Z</time>
      </trkpt>
      <trkpt lat="46.97402" lon="8.76486">
        <ele>638</ele>
        <time>2021-08-05T13:30:43.581Z</time>
      </trkpt>
      <trkpt lat="46.97402" lon="8.76487">
        <ele>638</ele>
        <time>2021-08-05T13:30:44.580Z</time>
      </trkpt>
      <trkpt lat="46.97403" lon="8.76486">
        <ele>638</ele>
        <time>2021-08-05T13:30:45.581Z</time>
      </trkpt>
      <trkpt lat="46.97403" lon="8.76487">
        <ele>638</ele>
        <time>2021-08-05T13:30:46.581Z</time>
      </trkpt>
      <trkpt lat="46.97404" lon="8.76486">
        <ele>638</ele>
        <time>2021-08-05T13:30:47.580Z</time>
      </trkpt>
      <trkpt lat="46.97404" lon="8.76486">
        <ele>638</ele>
        <time>2021-08-05T13:30:48.581Z</time>
      </trkpt>
      <trkpt lat="46.97404" lon="8.76487">
        <ele>638</ele>
        <time>2021-08-05T13:31:01.712Z</time>
      </trkpt>
      <trkpt lat="46.97404" lon="8.76488">
        <ele>638</ele>
        <time>2021-08-05T13:31:02.711Z</time>
      </trkpt>
      <trkpt lat="46.97403" lon="8.76488">
        <ele>638</ele>
        <time>2021-08-05T13:31:03.712Z</time>
      </trkpt>
      <trkpt lat="46.97403" lon="8.76489">
        <ele>638</ele>
        <time>2021-08-05T13:31:04.712Z</time>
      </trkpt>
      <trkpt lat="46.97403" lon="8.76489">
        <ele>638</ele>
        <time>2021-08-05T13:31:05.712Z</time>
      </trkpt>
      <trkpt lat="46.97403" lon="8.76489">
        <ele>638</ele>
        <time>2021-08-05T13:31:06.711Z</time>
      </trkpt>
      <trkpt lat="46.97402" lon="8.76489">
        <ele>637</ele>
        <time>2021-08-05T13:31:07.712Z</time>
      </trkpt>
      <trkpt lat="46.97402" lon="8.76489">
        <ele>637</ele>
        <time>2021-08-05T13:31:08.713Z</time>
      </trkpt>
      <trkpt lat="46.97402" lon="8.7649">
        <ele>637</ele>
        <time>2021-08-05T13:31:09.712Z</time>
      </trkpt>
      <trkpt lat="46.97402" lon="8.7649">
        <ele>637</ele>
        <time>2021-08-05T13:31:10.712Z</time>
      </trkpt>
      <trkpt lat="46.97402" lon="8.76491">
        <ele>637</ele>
        <time>2021-08-05T13:31:11.712Z</time>
      </trkpt>
      <trkpt lat="46.97401" lon="8.76493">
        <ele>637</ele>
        <time>2021-08-05T13:31:12.712Z</time>
      </trkpt>
      <trkpt lat="46.974" lon="8.76496">
        <ele>636</ele>
        <time>2021-08-05T13:31:17.829Z</time>
      </trkpt>
      <trkpt lat="46.97399" lon="8.76497">
        <ele>636</ele>
        <time>2021-08-05T13:31:18.829Z</time>
      </trkpt>
      <trkpt lat="46.97397" lon="8.76498">
        <ele>636</ele>
        <time>2021-08-05T13:31:19.829Z</time>
      </trkpt>
      <trkpt lat="46.97395" lon="8.765">
        <ele>636</ele>
        <time>2021-08-05T13:31:20.829Z</time>
      </trkpt>
      <trkpt lat="46.97394" lon="8.76502">
        <ele>636</ele>
        <time>2021-08-05T13:31:24.958Z</time>
      </trkpt>
      <trkpt lat="46.97393" lon="8.76504">
        <ele>636</ele>
        <time>2021-08-05T13:31:25.958Z</time>
      </trkpt>
      <trkpt lat="46.97392" lon="8.76506">
        <ele>636</ele>
        <time>2021-08-05T13:31:26.958Z</time>
      </trkpt>
      <trkpt lat="46.97392" lon="8.76507">
        <ele>636</ele>
        <time>2021-08-05T13:31:27.959Z</time>
      </trkpt>
      <trkpt lat="46.97391" lon="8.76508">
        <ele>636</ele>
        <time>2021-08-05T13:31:31.070Z</time>
      </trkpt>
      <trkpt lat="46.97391" lon="8.76508">
        <ele>636</ele>
        <time>2021-08-05T13:31:32.070Z</time>
      </trkpt>
      <trkpt lat="46.9739" lon="8.76508">
        <ele>636</ele>
        <time>2021-08-05T13:31:33.069Z</time>
      </trkpt>
      <trkpt lat="46.97386" lon="8.76509">
        <ele>637</ele>
        <time>2021-08-05T13:31:34.070Z</time>
      </trkpt>
      <trkpt lat="46.97386" lon="8.76509">
        <ele>637</ele>
        <time>2021-08-05T13:31:35.069Z</time>
      </trkpt>
      <trkpt lat="46.97386" lon="8.76508">
        <ele>637</ele>
        <time>2021-08-05T13:31:36.069Z</time>
      </trkpt>
      <trkpt lat="46.97385" lon="8.76508">
        <ele>638</ele>
        <time>2021-08-05T13:31:37.069Z</time>
      </trkpt>
      <trkpt lat="46.97385" lon="8.76509">
        <ele>640</ele>
        <time>2021-08-05T13:31:38.070Z</time>
      </trkpt>
      <trkpt lat="46.97386" lon="8.76509">
        <ele>645</ele>
        <time>2021-08-05T13:31:39.070Z</time>
      </trkpt>
      <trkpt lat="46.97386" lon="8.76509">
        <ele>645</ele>
        <time>2021-08-05T13:31:40.070Z</time>
      </trkpt>
      <trkpt lat="46.97386" lon="8.76509">
        <ele>645</ele>
        <time>2021-08-05T13:31:41.069Z</time>
      </trkpt>
      <trkpt lat="46.97386" lon="8.7651">
        <ele>645</ele>
        <time>2021-08-05T13:31:42.070Z</time>
      </trkpt>
      <trkpt lat="46.9739" lon="8.76516">
        <ele>644</ele>
        <time>2021-08-05T13:31:43.069Z</time>
      </trkpt>
      <trkpt lat="46.97389" lon="8.76518">
        <ele>644</ele>
        <time>2021-08-05T13:31:44.070Z</time>
      </trkpt>
      <trkpt lat="46.97388" lon="8.76519">
        <ele>644</ele>
        <time>2021-08-05T13:31:45.070Z</time>
      </trkpt>
      <trkpt lat="46.97386" lon="8.76515">
        <ele>646</ele>
        <time>2021-08-05T13:31:46.069Z</time>
      </trkpt>
      <trkpt lat="46.97387" lon="8.76513">
        <ele>646</ele>
        <time>2021-08-05T13:31:47.069Z</time>
      </trkpt>
      <trkpt lat="46.97387" lon="8.76513">
        <ele>646</ele>
        <time>2021-08-05T13:31:48.069Z</time>
      </trkpt>
      <trkpt lat="46.97388" lon="8.76512">
        <ele>646</ele>
        <time>2021-08-05T13:31:49.069Z</time>
      </trkpt>
      <trkpt lat="46.97387" lon="8.76512">
        <ele>646</ele>
        <time>2021-08-05T13:31:50.069Z</time>
      </trkpt>
      <trkpt lat="46.9739" lon="8.7651">
        <ele>646</ele>
        <time>2021-08-05T13:31:51.069Z</time>
      </trkpt>
      <trkpt lat="46.97391" lon="8.76507">
        <ele>646</ele>
        <time>2021-08-05T13:31:52.070Z</time>
      </trkpt>
      <trkpt lat="46.9739" lon="8.76507">
        <ele>646</ele>
        <time>2021-08-05T13:31:53.069Z</time>
      </trkpt>
      <trkpt lat="46.9739" lon="8.76508">
        <ele>646</ele>
        <time>2021-08-05T13:31:54.070Z</time>
      </trkpt>
      <trkpt lat="46.9739" lon="8.76506">
        <ele>646</ele>
        <time>2021-08-05T13:31:55.069Z</time>
      </trkpt>
      <trkpt lat="46.97391" lon="8.76504">
        <ele>646</ele>
        <time>2021-08-05T13:31:56.070Z</time>
      </trkpt>
      <trkpt lat="46.97393" lon="8.76504">
        <ele>647</ele>
        <time>2021-08-05T13:31:57.069Z</time>
      </trkpt>
      <trkpt lat="46.97395" lon="8.76502">
        <ele>647</ele>
        <time>2021-08-05T13:31:58.069Z</time>
      </trkpt>
      <trkpt lat="46.97397" lon="8.76498">
        <ele>647</ele>
        <time>2021-08-05T13:31:59.069Z</time>
      </trkpt>
      <trkpt lat="46.97396" lon="8.76497">
        <ele>647</ele>
        <time>2021-08-05T13:32:00.069Z</time>
      </trkpt>
      <trkpt lat="46.97395" lon="8.76496">
        <ele>647</ele>
        <time>2021-08-05T13:32:01.069Z</time>
      </trkpt>
      <trkpt lat="46.97393" lon="8.76495">
        <ele>648</ele>
        <time>2021-08-05T13:32:02.069Z</time>
      </trkpt>
      <trkpt lat="46.97392" lon="8.76495">
        <ele>648</ele>
        <time>2021-08-05T13:32:03.069Z</time>
      </trkpt>
      <trkpt lat="46.97391" lon="8.76495">
        <ele>648</ele>
        <time>2021-08-05T13:32:04.070Z</time>
      </trkpt>
      <trkpt lat="46.97391" lon="8.76495">
        <ele>648</ele>
        <time>2021-08-05T13:32:05.070Z</time>
      </trkpt>
      <trkpt lat="46.97391" lon="8.76495">
        <ele>648</ele>
        <time>2021-08-05T13:32:06.069Z</time>
      </trkpt>
      <trkpt lat="46.97389" lon="8.76495">
        <ele>648</ele>
        <time>2021-08-05T13:32:07.069Z</time>
      </trkpt>
      <trkpt lat="46.97389" lon="8.76495">
        <ele>648</ele>
        <time>2021-08-05T13:32:07.947Z</time>
      </trkpt>
      <trkpt lat="46.97389" lon="8.76497">
        <ele>648</ele>
        <time>2021-08-05T13:32:08.947Z</time>
      </trkpt>
      <trkpt lat="46.97389" lon="8.76499">
        <ele>648</ele>
        <time>2021-08-05T13:32:09.947Z</time>
      </trkpt>
      <trkpt lat="46.97388" lon="8.76501">
        <ele>648</ele>
        <time>2021-08-05T13:32:10.947Z</time>
      </trkpt>
      <trkpt lat="46.97388" lon="8.76501">
        <ele>648</ele>
        <time>2021-08-05T13:32:11.947Z</time>
      </trkpt>
      <trkpt lat="46.97387" lon="8.76501">
        <ele>648</ele>
        <time>2021-08-05T13:32:12.947Z</time>
      </trkpt>
      <trkpt lat="46.97387" lon="8.765">
        <ele>648</ele>
        <time>2021-08-05T13:32:13.947Z</time>
      </trkpt>
      <trkpt lat="46.97385" lon="8.76502">
        <ele>648</ele>
        <time>2021-08-05T13:32:14.947Z</time>
      </trkpt>
      <trkpt lat="46.97384" lon="8.76504">
        <ele>648</ele>
        <time>2021-08-05T13:32:15.947Z</time>
      </trkpt>
      <trkpt lat="46.97384" lon="8.76505">
        <ele>648</ele>
        <time>2021-08-05T13:32:16.947Z</time>
      </trkpt>
      <trkpt lat="46.97383" lon="8.7651">
        <ele>647</ele>
        <time>2021-08-05T13:32:18.072Z</time>
      </trkpt>
      <trkpt lat="46.97382" lon="8.76511">
        <ele>647</ele>
        <time>2021-08-05T13:32:18.947Z</time>
      </trkpt>
      <trkpt lat="46.9738" lon="8.76513">
        <ele>646</ele>
        <time>2021-08-05T13:32:19.947Z</time>
      </trkpt>
      <trkpt lat="46.9738" lon="8.76513">
        <ele>646</ele>
        <time>2021-08-05T13:32:20.947Z</time>
      </trkpt>
      <trkpt lat="46.97379" lon="8.76514">
        <ele>646</ele>
        <time>2021-08-05T13:32:22.072Z</time>
      </trkpt>
      <trkpt lat="46.9738" lon="8.76513">
        <ele>646</ele>
        <time>2021-08-05T13:32:22.947Z</time>
      </trkpt>
      <trkpt lat="46.97381" lon="8.76513">
        <ele>645</ele>
        <time>2021-08-05T13:32:23.947Z</time>
      </trkpt>
      <trkpt lat="46.97381" lon="8.76511">
        <ele>645</ele>
        <time>2021-08-05T13:32:24.947Z</time>
      </trkpt>
      <trkpt lat="46.97382" lon="8.7651">
        <ele>645</ele>
        <time>2021-08-05T13:32:25.947Z</time>
      </trkpt>
      <trkpt lat="46.97383" lon="8.76509">
        <ele>645</ele>
        <time>2021-08-05T13:32:26.947Z</time>
      </trkpt>
      <trkpt lat="46.97384" lon="8.76507">
        <ele>644</ele>
        <time>2021-08-05T13:32:27.947Z</time>
      </trkpt>
      <trkpt lat="46.97384" lon="8.76507">
        <ele>644</ele>
        <time>2021-08-05T13:32:29.071Z</time>
      </trkpt>
      <trkpt lat="46.97383" lon="8.76507">
        <ele>644</ele>
        <time>2021-08-05T13:32:29.947Z</time>
      </trkpt>
      <trkpt lat="46.97383" lon="8.76508">
        <ele>643</ele>
        <time>2021-08-05T13:32:31.071Z</time>
      </trkpt>
      <trkpt lat="46.97383" lon="8.7651">
        <ele>643</ele>
        <time>2021-08-05T13:32:31.947Z</time>
      </trkpt>
      <trkpt lat="46.97383" lon="8.76511">
        <ele>643</ele>
        <time>2021-08-05T13:32:32.947Z</time>
      </trkpt>
      <trkpt lat="46.97383" lon="8.76512">
        <ele>643</ele>
        <time>2021-08-05T13:32:33.947Z</time>
      </trkpt>
      <trkpt lat="46.97384" lon="8.76512">
        <ele>642</ele>
        <time>2021-08-05T13:32:35.071Z</time>
      </trkpt>
      <trkpt lat="46.97384" lon="8.76513">
        <ele>642</ele>
        <time>2021-08-05T13:32:36.071Z</time>
      </trkpt>
      <trkpt lat="46.97384" lon="8.76514">
        <ele>642</ele>
        <time>2021-08-05T13:32:37.071Z</time>
      </trkpt>
      <trkpt lat="46.97385" lon="8.76515">
        <ele>642</ele>
        <time>2021-08-05T13:32:38.072Z</time>
      </trkpt>
      <trkpt lat="46.97385" lon="8.76515">
        <ele>642</ele>
        <time>2021-08-05T13:32:39.072Z</time>
      </trkpt>
      <trkpt lat="46.97384" lon="8.76517">
        <ele>641</ele>
        <time>2021-08-05T13:32:39.947Z</time>
      </trkpt>
      <trkpt lat="46.97383" lon="8.76518">
        <ele>641</ele>
        <time>2021-08-05T13:32:41.071Z</time>
      </trkpt>
      <trkpt lat="46.97383" lon="8.76519">
        <ele>641</ele>
        <time>2021-08-05T13:32:42.072Z</time>
      </trkpt>
      <trkpt lat="46.97382" lon="8.76519">
        <ele>641</ele>
        <time>2021-08-05T13:32:43.071Z</time>
      </trkpt>
      <trkpt lat="46.97383" lon="8.76519">
        <ele>640</ele>
        <time>2021-08-05T13:32:44.071Z</time>
      </trkpt>
      <trkpt lat="46.97385" lon="8.76518">
        <ele>640</ele>
        <time>2021-08-05T13:32:44.947Z</time>
      </trkpt>
      <trkpt lat="46.97387" lon="8.76517">
        <ele>640</ele>
        <time>2021-08-05T13:32:47.072Z</time>
      </trkpt>
      <trkpt lat="46.97388" lon="8.76515">
        <ele>640</ele>
        <time>2021-08-05T13:32:49.072Z</time>
      </trkpt>
      <trkpt lat="46.97388" lon="8.76519">
        <ele>639</ele>
        <time>2021-08-05T13:32:53.071Z</time>
      </trkpt>
      <trkpt lat="46.97426" lon="8.76475">
        <ele>638</ele>
        <time>2021-08-05T13:32:53.948Z</time>
      </trkpt>
      <trkpt lat="46.97429" lon="8.76469">
        <ele>638</ele>
        <time>2021-08-05T13:32:54.948Z</time>
      </trkpt>
      <trkpt lat="46.9743" lon="8.76467">
        <ele>637</ele>
        <time>2021-08-05T13:32:55.948Z</time>
      </trkpt>
      <trkpt lat="46.9743" lon="8.76467">
        <ele>637</ele>
        <time>2021-08-05T13:32:56.947Z</time>
      </trkpt>
      <trkpt lat="46.97429" lon="8.76468">
        <ele>637</ele>
        <time>2021-08-05T13:32:57.947Z</time>
      </trkpt>
      <trkpt lat="46.97426" lon="8.76474">
        <ele>637</ele>
        <time>2021-08-05T13:32:58.948Z</time>
      </trkpt>
      <trkpt lat="46.97422" lon="8.76481">
        <ele>636</ele>
        <time>2021-08-05T13:32:59.947Z</time>
      </trkpt>
      <trkpt lat="46.97419" lon="8.76489">
        <ele>636</ele>
        <time>2021-08-05T13:33:00.947Z</time>
      </trkpt>
      <trkpt lat="46.97416" lon="8.76493">
        <ele>636</ele>
        <time>2021-08-05T13:33:01.948Z</time>
      </trkpt>
      <trkpt lat="46.97413" lon="8.76496">
        <ele>636</ele>
        <time>2021-08-05T13:33:02.948Z</time>
      </trkpt>
      <trkpt lat="46.97411" lon="8.76498">
        <ele>636</ele>
        <time>2021-08-05T13:33:03.947Z</time>
      </trkpt>
      <trkpt lat="46.97408" lon="8.76499">
        <ele>636</ele>
        <time>2021-08-05T13:33:04.947Z</time>
      </trkpt>
      <trkpt lat="46.97406" lon="8.765">
        <ele>636</ele>
        <time>2021-08-05T13:33:05.947Z</time>
      </trkpt>
      <trkpt lat="46.97403" lon="8.76504">
        <ele>636</ele>
        <time>2021-08-05T13:33:06.947Z</time>
      </trkpt>
      <trkpt lat="46.97402" lon="8.76506">
        <ele>635</ele>
        <time>2021-08-05T13:33:07.948Z</time>
      </trkpt>
      <trkpt lat="46.97402" lon="8.76505">
        <ele>635</ele>
        <time>2021-08-05T13:33:08.947Z</time>
      </trkpt>
      <trkpt lat="46.97402" lon="8.76505">
        <ele>634</ele>
        <time>2021-08-05T13:33:09.948Z</time>
      </trkpt>
      <trkpt lat="46.97403" lon="8.76505">
        <ele>634</ele>
        <time>2021-08-05T13:33:10.948Z</time>
      </trkpt>
      <trkpt lat="46.97403" lon="8.76505">
        <ele>634</ele>
        <time>2021-08-05T13:33:11.948Z</time>
      </trkpt>
      <trkpt lat="46.97403" lon="8.76506">
        <ele>634</ele>
        <time>2021-08-05T13:33:12.948Z</time>
      </trkpt>
      <trkpt lat="46.97403" lon="8.76506">
        <ele>634</ele>
        <time>2021-08-05T13:33:13.948Z</time>
      </trkpt>
      <trkpt lat="46.97403" lon="8.76505">
        <ele>633</ele>
        <time>2021-08-05T13:33:14.948Z</time>
      </trkpt>
      <trkpt lat="46.97403" lon="8.76505">
        <ele>633</ele>
        <time>2021-08-05T13:33:15.948Z</time>
      </trkpt>
      <trkpt lat="46.97403" lon="8.76505">
        <ele>633</ele>
        <time>2021-08-05T13:33:16.947Z</time>
      </trkpt>
      <trkpt lat="46.97403" lon="8.76506">
        <ele>633</ele>
        <time>2021-08-05T13:33:17.948Z</time>
      </trkpt>
      <trkpt lat="46.97403" lon="8.76506">
        <ele>632</ele>
        <time>2021-08-05T13:33:18.948Z</time>
      </trkpt>
      <trkpt lat="46.97403" lon="8.76506">
        <ele>632</ele>
        <time>2021-08-05T13:33:19.948Z</time>
      </trkpt>
      <trkpt lat="46.97403" lon="8.76506">
        <ele>632</ele>
        <time>2021-08-05T13:33:20.947Z</time>
      </trkpt>
      <trkpt lat="46.97402" lon="8.76505">
        <ele>632</ele>
        <time>2021-08-05T13:33:21.948Z</time>
      </trkpt>
      <trkpt lat="46.97403" lon="8.76505">
        <ele>632</ele>
        <time>2021-08-05T13:33:22.948Z</time>
      </trkpt>
      <trkpt lat="46.97403" lon="8.76504">
        <ele>631</ele>
        <time>2021-08-05T13:33:23.948Z</time>
      </trkpt>
      <trkpt lat="46.97403" lon="8.76504">
        <ele>631</ele>
        <time>2021-08-05T13:33:24.947Z</time>
      </trkpt>
      <trkpt lat="46.97404" lon="8.76504">
        <ele>631</ele>
        <time>2021-08-05T13:33:25.948Z</time>
      </trkpt>
      <trkpt lat="46.97405" lon="8.76502">
        <ele>630</ele>
        <time>2021-08-05T13:33:26.947Z</time>
      </trkpt>
      <trkpt lat="46.97405" lon="8.76503">
        <ele>630</ele>
        <time>2021-08-05T13:33:27.947Z</time>
      </trkpt>
      <trkpt lat="46.97405" lon="8.76502">
        <ele>630</ele>
        <time>2021-08-05T13:33:28.948Z</time>
      </trkpt>
      <trkpt lat="46.97405" lon="8.76502">
        <ele>630</ele>
        <time>2021-08-05T13:33:29.947Z</time>
      </trkpt>
      <trkpt lat="46.97404" lon="8.76502">
        <ele>630</ele>
        <time>2021-08-05T13:33:30.947Z</time>
      </trkpt>
      <trkpt lat="46.97403" lon="8.76501">
        <ele>630</ele>
        <time>2021-08-05T13:33:31.948Z</time>
      </trkpt>
      <trkpt lat="46.97404" lon="8.765">
        <ele>630</ele>
        <time>2021-08-05T13:33:32.947Z</time>
      </trkpt>
      <trkpt lat="46.97404" lon="8.765">
        <ele>630</ele>
        <time>2021-08-05T13:33:33.947Z</time>
      </trkpt>
      <trkpt lat="46.97406" lon="8.76499">
        <ele>629</ele>
        <time>2021-08-05T13:33:34.947Z</time>
      </trkpt>
      <trkpt lat="46.97407" lon="8.76499">
        <ele>629</ele>
        <time>2021-08-05T13:33:35.947Z</time>
      </trkpt>
      <trkpt lat="46.97408" lon="8.76497">
        <ele>629</ele>
        <time>2021-08-05T13:33:36.947Z</time>
      </trkpt>
      <trkpt lat="46.97409" lon="8.76496">
        <ele>629</ele>
        <time>2021-08-05T13:33:37.947Z</time>
      </trkpt>
      <trkpt lat="46.97411" lon="8.76493">
        <ele>629</ele>
        <time>2021-08-05T13:33:38.947Z</time>
      </trkpt>
      <trkpt lat="46.97414" lon="8.76489">
        <ele>629</ele>
        <time>2021-08-05T13:33:39.947Z</time>
      </trkpt>
      <trkpt lat="46.97418" lon="8.76482">
        <ele>629</ele>
        <time>2021-08-05T13:33:40.947Z</time>
      </trkpt>
      <trkpt lat="46.9742" lon="8.76479">
        <ele>628</ele>
        <time>2021-08-05T13:33:41.947Z</time>
      </trkpt>
      <trkpt lat="46.97421" lon="8.76484">
        <ele>627</ele>
        <time>2021-08-05T13:33:48.947Z</time>
      </trkpt>
      <trkpt lat="46.97421" lon="8.76485">
        <ele>627</ele>
        <time>2021-08-05T13:33:49.947Z</time>
      </trkpt>
      <trkpt lat="46.97421" lon="8.76485">
        <ele>627</ele>
        <time>2021-08-05T13:33:50.947Z</time>
      </trkpt>
      <trkpt lat="46.97421" lon="8.76485">
        <ele>627</ele>
        <time>2021-08-05T13:33:51.947Z</time>
      </trkpt>
      <trkpt lat="46.97421" lon="8.76486">
        <ele>627</ele>
        <time>2021-08-05T13:33:52.947Z</time>
      </trkpt>
      <trkpt lat="46.97421" lon="8.76487">
        <ele>627</ele>
        <time>2021-08-05T13:33:53.947Z</time>
      </trkpt>
      <trkpt lat="46.9742" lon="8.76489">
        <ele>627</ele>
        <time>2021-08-05T13:33:54.947Z</time>
      </trkpt>
      <trkpt lat="46.9742" lon="8.76491">
        <ele>627</ele>
        <time>2021-08-05T13:33:55.947Z</time>
      </trkpt>
      <trkpt lat="46.9742" lon="8.76492">
        <ele>627</ele>
        <time>2021-08-05T13:33:56.947Z</time>
      </trkpt>
      <trkpt lat="46.97419" lon="8.76493">
        <ele>627</ele>
        <time>2021-08-05T13:33:57.947Z</time>
      </trkpt>
      <trkpt lat="46.97419" lon="8.76495">
        <ele>627</ele>
        <time>2021-08-05T13:33:58.947Z</time>
      </trkpt>
      <trkpt lat="46.97419" lon="8.76496">
        <ele>627</ele>
        <time>2021-08-05T13:33:59.947Z</time>
      </trkpt>
      <trkpt lat="46.97419" lon="8.76497">
        <ele>627</ele>
        <time>2021-08-05T13:34:00.947Z</time>
      </trkpt>
      <trkpt lat="46.97419" lon="8.76498">
        <ele>627</ele>
        <time>2021-08-05T13:34:01.947Z</time>
      </trkpt>
      <trkpt lat="46.97419" lon="8.76498">
        <ele>627</ele>
        <time>2021-08-05T13:34:02.947Z</time>
      </trkpt>
      <trkpt lat="46.97418" lon="8.76499">
        <ele>627</ele>
        <time>2021-08-05T13:34:03.947Z</time>
      </trkpt>
      <trkpt lat="46.97417" lon="8.765">
        <ele>627</ele>
        <time>2021-08-05T13:34:04.948Z</time>
      </trkpt>
      <trkpt lat="46.97415" lon="8.76501">
        <ele>627</ele>
        <time>2021-08-05T13:34:05.947Z</time>
      </trkpt>
      <trkpt lat="46.97414" lon="8.76503">
        <ele>627</ele>
        <time>2021-08-05T13:34:06.947Z</time>
      </trkpt>
      <trkpt lat="46.97413" lon="8.76508">
        <ele>627</ele>
        <time>2021-08-05T13:34:07.947Z</time>
      </trkpt>
      <trkpt lat="46.97412" lon="8.76509">
        <ele>627</ele>
        <time>2021-08-05T13:34:08.947Z</time>
      </trkpt>
      <trkpt lat="46.97411" lon="8.76512">
        <ele>627</ele>
        <time>2021-08-05T13:34:09.947Z</time>
      </trkpt>
      <trkpt lat="46.9741" lon="8.76512">
        <ele>627</ele>
        <time>2021-08-05T13:34:10.948Z</time>
      </trkpt>
      <trkpt lat="46.97408" lon="8.7651">
        <ele>627</ele>
        <time>2021-08-05T13:34:11.948Z</time>
      </trkpt>
      <trkpt lat="46.97407" lon="8.76508">
        <ele>626</ele>
        <time>2021-08-05T13:34:12.948Z</time>
      </trkpt>
      <trkpt lat="46.97406" lon="8.76507">
        <ele>626</ele>
        <time>2021-08-05T13:34:13.947Z</time>
      </trkpt>
      <trkpt lat="46.97406" lon="8.76506">
        <ele>626</ele>
        <time>2021-08-05T13:34:14.947Z</time>
      </trkpt>
      <trkpt lat="46.97406" lon="8.76506">
        <ele>626</ele>
        <time>2021-08-05T13:34:15.948Z</time>
      </trkpt>
      <trkpt lat="46.97406" lon="8.76507">
        <ele>626</ele>
        <time>2021-08-05T13:34:16.948Z</time>
      </trkpt>
      <trkpt lat="46.97406" lon="8.76507">
        <ele>626</ele>
        <time>2021-08-05T13:34:17.947Z</time>
      </trkpt>
      <trkpt lat="46.97406" lon="8.76508">
        <ele>625</ele>
        <time>2021-08-05T13:34:18.948Z</time>
      </trkpt>
      <trkpt lat="46.97404" lon="8.76507">
        <ele>624</ele>
        <time>2021-08-05T13:34:19.948Z</time>
      </trkpt>
      <trkpt lat="46.97403" lon="8.76507">
        <ele>624</ele>
        <time>2021-08-05T13:34:20.948Z</time>
      </trkpt>
      <trkpt lat="46.97403" lon="8.76506">
        <ele>624</ele>
        <time>2021-08-05T13:34:21.947Z</time>
      </trkpt>
      <trkpt lat="46.97402" lon="8.76506">
        <ele>624</ele>
        <time>2021-08-05T13:34:22.948Z</time>
      </trkpt>
      <trkpt lat="46.97402" lon="8.76506">
        <ele>623</ele>
        <time>2021-08-05T13:34:23.948Z</time>
      </trkpt>
      <trkpt lat="46.97402" lon="8.76507">
        <ele>623</ele>
        <time>2021-08-05T13:34:24.948Z</time>
      </trkpt>
      <trkpt lat="46.97401" lon="8.76508">
        <ele>623</ele>
        <time>2021-08-05T13:34:25.948Z</time>
      </trkpt>
      <trkpt lat="46.97401" lon="8.76509">
        <ele>623</ele>
        <time>2021-08-05T13:34:26.948Z</time>
      </trkpt>
      <trkpt lat="46.974" lon="8.7651">
        <ele>623</ele>
        <time>2021-08-05T13:34:27.948Z</time>
      </trkpt>
      <trkpt lat="46.974" lon="8.76511">
        <ele>623</ele>
        <time>2021-08-05T13:34:28.947Z</time>
      </trkpt>
      <trkpt lat="46.974" lon="8.76511">
        <ele>623</ele>
        <time>2021-08-05T13:34:29.948Z</time>
      </trkpt>
      <trkpt lat="46.974" lon="8.76512">
        <ele>623</ele>
        <time>2021-08-05T13:34:30.948Z</time>
      </trkpt>
      <trkpt lat="46.974" lon="8.76512">
        <ele>624</ele>
        <time>2021-08-05T13:34:31.947Z</time>
      </trkpt>
      <trkpt lat="46.97399" lon="8.76512">
        <ele>624</ele>
        <time>2021-08-05T13:34:32.947Z</time>
      </trkpt>
      <trkpt lat="46.97399" lon="8.76513">
        <ele>624</ele>
        <time>2021-08-05T13:34:33.948Z</time>
      </trkpt>
      <trkpt lat="46.97399" lon="8.76512">
        <ele>624</ele>
        <time>2021-08-05T13:34:34.947Z</time>
      </trkpt>
      <trkpt lat="46.97399" lon="8.76512">
        <ele>624</ele>
        <time>2021-08-05T13:34:35.947Z</time>
      </trkpt>
      <trkpt lat="46.974" lon="8.76511">
        <ele>624</ele>
        <time>2021-08-05T13:34:36.948Z</time>
      </trkpt>
      <trkpt lat="46.97399" lon="8.76511">
        <ele>624</ele>
        <time>2021-08-05T13:34:37.948Z</time>
      </trkpt>
      <trkpt lat="46.97401" lon="8.76511">
        <ele>624</ele>
        <time>2021-08-05T13:34:38.948Z</time>
      </trkpt>
      <trkpt lat="46.97402" lon="8.76511">
        <ele>624</ele>
        <time>2021-08-05T13:34:39.948Z</time>
      </trkpt>
      <trkpt lat="46.97403" lon="8.76521">
        <ele>624</ele>
        <time>2021-08-05T13:34:40.948Z</time>
      </trkpt>
      <trkpt lat="46.97399" lon="8.76522">
        <ele>624</ele>
        <time>2021-08-05T13:34:41.948Z</time>
      </trkpt>
      <trkpt lat="46.97396" lon="8.7652">
        <ele>625</ele>
        <time>2021-08-05T13:34:42.948Z</time>
      </trkpt>
      <trkpt lat="46.97395" lon="8.7652">
        <ele>625</ele>
        <time>2021-08-05T13:34:43.948Z</time>
      </trkpt>
      <trkpt lat="46.97395" lon="8.7652">
        <ele>625</ele>
        <time>2021-08-05T13:34:44.948Z</time>
      </trkpt>
      <trkpt lat="46.97395" lon="8.76521">
        <ele>625</ele>
        <time>2021-08-05T13:34:45.948Z</time>
      </trkpt>
      <trkpt lat="46.97393" lon="8.76521">
        <ele>625</ele>
        <time>2021-08-05T13:34:46.947Z</time>
      </trkpt>
      <trkpt lat="46.97392" lon="8.76522">
        <ele>625</ele>
        <time>2021-08-05T13:34:47.948Z</time>
      </trkpt>
      <trkpt lat="46.97391" lon="8.76523">
        <ele>625</ele>
        <time>2021-08-05T13:34:48.947Z</time>
      </trkpt>
      <trkpt lat="46.9739" lon="8.76522">
        <ele>625</ele>
        <time>2021-08-05T13:34:49.948Z</time>
      </trkpt>
      <trkpt lat="46.9739" lon="8.76522">
        <ele>625</ele>
        <time>2021-08-05T13:34:50.948Z</time>
      </trkpt>
      <trkpt lat="46.9739" lon="8.76522">
        <ele>625</ele>
        <time>2021-08-05T13:34:51.948Z</time>
      </trkpt>
      <trkpt lat="46.97391" lon="8.76522">
        <ele>626</ele>
        <time>2021-08-05T13:34:52.948Z</time>
      </trkpt>
      <trkpt lat="46.9739" lon="8.76523">
        <ele>626</ele>
        <time>2021-08-05T13:34:53.948Z</time>
      </trkpt>
      <trkpt lat="46.9739" lon="8.76524">
        <ele>626</ele>
        <time>2021-08-05T13:34:54.947Z</time>
      </trkpt>
      <trkpt lat="46.97391" lon="8.76525">
        <ele>626</ele>
        <time>2021-08-05T13:34:55.948Z</time>
      </trkpt>
      <trkpt lat="46.97391" lon="8.76525">
        <ele>626</ele>
        <time>2021-08-05T13:34:56.948Z</time>
      </trkpt>
      <trkpt lat="46.97391" lon="8.76525">
        <ele>626</ele>
        <time>2021-08-05T13:34:57.948Z</time>
      </trkpt>
      <trkpt lat="46.97391" lon="8.76524">
        <ele>626</ele>
        <time>2021-08-05T13:34:58.947Z</time>
      </trkpt>
      <trkpt lat="46.9739" lon="8.76524">
        <ele>626</ele>
        <time>2021-08-05T13:34:59.948Z</time>
      </trkpt>
      <trkpt lat="46.9739" lon="8.76523">
        <ele>627</ele>
        <time>2021-08-05T13:35:00.948Z</time>
      </trkpt>
      <trkpt lat="46.97389" lon="8.76523">
        <ele>627</ele>
        <time>2021-08-05T13:35:01.947Z</time>
      </trkpt>
      <trkpt lat="46.97389" lon="8.76524">
        <ele>628</ele>
        <time>2021-08-05T13:35:02.947Z</time>
      </trkpt>
      <trkpt lat="46.97388" lon="8.76524">
        <ele>628</ele>
        <time>2021-08-05T13:35:03.948Z</time>
      </trkpt>
      <trkpt lat="46.97387" lon="8.76525">
        <ele>629</ele>
        <time>2021-08-05T13:35:04.947Z</time>
      </trkpt>
      <trkpt lat="46.97387" lon="8.76526">
        <ele>635</ele>
        <time>2021-08-05T13:35:05.949Z</time>
      </trkpt>
      <trkpt lat="46.97385" lon="8.76527">
        <ele>637</ele>
        <time>2021-08-05T13:35:06.950Z</time>
      </trkpt>
      <trkpt lat="46.97386" lon="8.76525">
        <ele>637</ele>
        <time>2021-08-05T13:35:07.949Z</time>
      </trkpt>
      <trkpt lat="46.97386" lon="8.76523">
        <ele>638</ele>
        <time>2021-08-05T13:35:08.950Z</time>
      </trkpt>
      <trkpt lat="46.97387" lon="8.76522">
        <ele>638</ele>
        <time>2021-08-05T13:35:09.950Z</time>
      </trkpt>
      <trkpt lat="46.97387" lon="8.76523">
        <ele>638</ele>
        <time>2021-08-05T13:35:10.950Z</time>
      </trkpt>
      <trkpt lat="46.97387" lon="8.76523">
        <ele>638</ele>
        <time>2021-08-05T13:35:11.949Z</time>
      </trkpt>
      <trkpt lat="46.97389" lon="8.76516">
        <ele>640</ele>
        <time>2021-08-05T13:35:12.950Z</time>
      </trkpt>
      <trkpt lat="46.9739" lon="8.76513">
        <ele>640</ele>
        <time>2021-08-05T13:35:13.950Z</time>
      </trkpt>
      <trkpt lat="46.9739" lon="8.76511">
        <ele>640</ele>
        <time>2021-08-05T13:35:14.949Z</time>
      </trkpt>
      <trkpt lat="46.9739" lon="8.7651">
        <ele>640</ele>
        <time>2021-08-05T13:35:15.949Z</time>
      </trkpt>
      <trkpt lat="46.97389" lon="8.76511">
        <ele>640</ele>
        <time>2021-08-05T13:35:16.950Z</time>
      </trkpt>
      <trkpt lat="46.9739" lon="8.7651">
        <ele>640</ele>
        <time>2021-08-05T13:35:17.950Z</time>
      </trkpt>
      <trkpt lat="46.9739" lon="8.76509">
        <ele>640</ele>
        <time>2021-08-05T13:35:18.950Z</time>
      </trkpt>
      <trkpt lat="46.97391" lon="8.76506">
        <ele>640</ele>
        <time>2021-08-05T13:35:19.949Z</time>
      </trkpt>
      <trkpt lat="46.97391" lon="8.76507">
        <ele>639</ele>
        <time>2021-08-05T13:35:20.949Z</time>
      </trkpt>
      <trkpt lat="46.9739" lon="8.76508">
        <ele>639</ele>
        <time>2021-08-05T13:35:21.950Z</time>
      </trkpt>
      <trkpt lat="46.97391" lon="8.76509">
        <ele>638</ele>
        <time>2021-08-05T13:35:22.950Z</time>
      </trkpt>
      <trkpt lat="46.97392" lon="8.76512">
        <ele>636</ele>
        <time>2021-08-05T13:35:23.950Z</time>
      </trkpt>
      <trkpt lat="46.97392" lon="8.76512">
        <ele>636</ele>
        <time>2021-08-05T13:35:24.950Z</time>
      </trkpt>
      <trkpt lat="46.97391" lon="8.76511">
        <ele>636</ele>
        <time>2021-08-05T13:35:25.950Z</time>
      </trkpt>
      <trkpt lat="46.97391" lon="8.7651">
        <ele>635</ele>
        <time>2021-08-05T13:35:26.950Z</time>
      </trkpt>
      <trkpt lat="46.9739" lon="8.76508">
        <ele>635</ele>
        <time>2021-08-05T13:35:27.950Z</time>
      </trkpt>
      <trkpt lat="46.97389" lon="8.76507">
        <ele>635</ele>
        <time>2021-08-05T13:35:28.950Z</time>
      </trkpt>
      <trkpt lat="46.97388" lon="8.76505">
        <ele>634</ele>
        <time>2021-08-05T13:35:29.950Z</time>
      </trkpt>
      <trkpt lat="46.97387" lon="8.76504">
        <ele>634</ele>
        <time>2021-08-05T13:35:30.950Z</time>
      </trkpt>
      <trkpt lat="46.97385" lon="8.76502">
        <ele>634</ele>
        <time>2021-08-05T13:35:33.950Z</time>
      </trkpt>
      <trkpt lat="46.97385" lon="8.76502">
        <ele>633</ele>
        <time>2021-08-05T13:35:34.950Z</time>
      </trkpt>
      <trkpt lat="46.97385" lon="8.76502">
        <ele>633</ele>
        <time>2021-08-05T13:35:35.950Z</time>
      </trkpt>
      <trkpt lat="46.97387" lon="8.76504">
        <ele>631</ele>
        <time>2021-08-05T13:35:36.951Z</time>
      </trkpt>
      <trkpt lat="46.97387" lon="8.76504">
        <ele>631</ele>
        <time>2021-08-05T13:35:37.951Z</time>
      </trkpt>
      <trkpt lat="46.97387" lon="8.76503">
        <ele>631</ele>
        <time>2021-08-05T13:35:38.951Z</time>
      </trkpt>
      <trkpt lat="46.97386" lon="8.76504">
        <ele>631</ele>
        <time>2021-08-05T13:35:39.951Z</time>
      </trkpt>
      <trkpt lat="46.97386" lon="8.76507">
        <ele>631</ele>
        <time>2021-08-05T13:35:40.951Z</time>
      </trkpt>
      <trkpt lat="46.97386" lon="8.76509">
        <ele>632</ele>
        <time>2021-08-05T13:35:41.950Z</time>
      </trkpt>
      <trkpt lat="46.97386" lon="8.76511">
        <ele>632</ele>
        <time>2021-08-05T13:35:42.951Z</time>
      </trkpt>
      <trkpt lat="46.97386" lon="8.76511">
        <ele>632</ele>
        <time>2021-08-05T13:35:43.951Z</time>
      </trkpt>
      <trkpt lat="46.97386" lon="8.76511">
        <ele>632</ele>
        <time>2021-08-05T13:35:44.950Z</time>
      </trkpt>
      <trkpt lat="46.97386" lon="8.76512">
        <ele>633</ele>
        <time>2021-08-05T13:35:45.951Z</time>
      </trkpt>
      <trkpt lat="46.97385" lon="8.76512">
        <ele>633</ele>
        <time>2021-08-05T13:35:46.950Z</time>
      </trkpt>
      <trkpt lat="46.97385" lon="8.76513">
        <ele>633</ele>
        <time>2021-08-05T13:35:47.951Z</time>
      </trkpt>
      <trkpt lat="46.97385" lon="8.76514">
        <ele>633</ele>
        <time>2021-08-05T13:35:48.950Z</time>
      </trkpt>
      <trkpt lat="46.97385" lon="8.76514">
        <ele>633</ele>
        <time>2021-08-05T13:35:49.951Z</time>
      </trkpt>
      <trkpt lat="46.97385" lon="8.76513">
        <ele>633</ele>
        <time>2021-08-05T13:35:50.950Z</time>
      </trkpt>
      <trkpt lat="46.97385" lon="8.76512">
        <ele>633</ele>
        <time>2021-08-05T13:35:51.950Z</time>
      </trkpt>
      <trkpt lat="46.97384" lon="8.76512">
        <ele>633</ele>
        <time>2021-08-05T13:35:52.951Z</time>
      </trkpt>
      <trkpt lat="46.97385" lon="8.76513">
        <ele>632</ele>
        <time>2021-08-05T13:35:53.951Z</time>
      </trkpt>
      <trkpt lat="46.97386" lon="8.76512">
        <ele>632</ele>
        <time>2021-08-05T13:35:54.950Z</time>
      </trkpt>
      <trkpt lat="46.97387" lon="8.76512">
        <ele>632</ele>
        <time>2021-08-05T13:35:55.950Z</time>
      </trkpt>
      <trkpt lat="46.97388" lon="8.76513">
        <ele>632</ele>
        <time>2021-08-05T13:35:56.951Z</time>
      </trkpt>
      <trkpt lat="46.97388" lon="8.76513">
        <ele>631</ele>
        <time>2021-08-05T13:35:57.951Z</time>
      </trkpt>
      <trkpt lat="46.97388" lon="8.76513">
        <ele>631</ele>
        <time>2021-08-05T13:35:58.950Z</time>
      </trkpt>
      <trkpt lat="46.97388" lon="8.76515">
        <ele>631</ele>
        <time>2021-08-05T13:35:59.950Z</time>
      </trkpt>
      <trkpt lat="46.97388" lon="8.76515">
        <ele>631</ele>
        <time>2021-08-05T13:36:00.950Z</time>
      </trkpt>
      <trkpt lat="46.97387" lon="8.76515">
        <ele>630</ele>
        <time>2021-08-05T13:36:01.950Z</time>
      </trkpt>
      <trkpt lat="46.97386" lon="8.76514">
        <ele>630</ele>
        <time>2021-08-05T13:36:02.950Z</time>
      </trkpt>
      <trkpt lat="46.97384" lon="8.76513">
        <ele>630</ele>
        <time>2021-08-05T13:36:03.950Z</time>
      </trkpt>
      <trkpt lat="46.97385" lon="8.76512">
        <ele>629</ele>
        <time>2021-08-05T13:36:04.950Z</time>
      </trkpt>
      <trkpt lat="46.97385" lon="8.76511">
        <ele>629</ele>
        <time>2021-08-05T13:36:05.950Z</time>
      </trkpt>
      <trkpt lat="46.97386" lon="8.76513">
        <ele>628</ele>
        <time>2021-08-05T13:36:06.950Z</time>
      </trkpt>
      <trkpt lat="46.97386" lon="8.76514">
        <ele>628</ele>
        <time>2021-08-05T13:36:07.950Z</time>
      </trkpt>
      <trkpt lat="46.97387" lon="8.76516">
        <ele>628</ele>
        <time>2021-08-05T13:36:08.950Z</time>
      </trkpt>
      <trkpt lat="46.97387" lon="8.76517">
        <ele>627</ele>
        <time>2021-08-05T13:36:09.950Z</time>
      </trkpt>
      <trkpt lat="46.97388" lon="8.76517">
        <ele>627</ele>
        <time>2021-08-05T13:36:15.079Z</time>
      </trkpt>
      <trkpt lat="46.97389" lon="8.76517">
        <ele>627</ele>
        <time>2021-08-05T13:36:16.080Z</time>
      </trkpt>
      <trkpt lat="46.97389" lon="8.76516">
        <ele>626</ele>
        <time>2021-08-05T13:36:17.079Z</time>
      </trkpt>
      <trkpt lat="46.9739" lon="8.76517">
        <ele>626</ele>
        <time>2021-08-05T13:36:18.079Z</time>
      </trkpt>
      <trkpt lat="46.97389" lon="8.76517">
        <ele>626</ele>
        <time>2021-08-05T13:36:19.079Z</time>
      </trkpt>
      <trkpt lat="46.97389" lon="8.76516">
        <ele>626</ele>
        <time>2021-08-05T13:36:20.080Z</time>
      </trkpt>
      <trkpt lat="46.97388" lon="8.76515">
        <ele>625</ele>
        <time>2021-08-05T13:36:21.079Z</time>
      </trkpt>
      <trkpt lat="46.97388" lon="8.76514">
        <ele>625</ele>
        <time>2021-08-05T13:36:22.080Z</time>
      </trkpt>
      <trkpt lat="46.97388" lon="8.76514">
        <ele>624</ele>
        <time>2021-08-05T13:36:23.081Z</time>
      </trkpt>
      <trkpt lat="46.97388" lon="8.76514">
        <ele>624</ele>
        <time>2021-08-05T13:36:24.080Z</time>
      </trkpt>
      <trkpt lat="46.9739" lon="8.76513">
        <ele>623</ele>
        <time>2021-08-05T13:36:25.080Z</time>
      </trkpt>
      <trkpt lat="46.97391" lon="8.76512">
        <ele>622</ele>
        <time>2021-08-05T13:36:26.080Z</time>
      </trkpt>
      <trkpt lat="46.97392" lon="8.7651">
        <ele>622</ele>
        <time>2021-08-05T13:36:27.080Z</time>
      </trkpt>
      <trkpt lat="46.97393" lon="8.76509">
        <ele>621</ele>
        <time>2021-08-05T13:36:28.081Z</time>
      </trkpt>
      <trkpt lat="46.97393" lon="8.76508">
        <ele>620</ele>
        <time>2021-08-05T13:36:29.080Z</time>
      </trkpt>
      <trkpt lat="46.97392" lon="8.76508">
        <ele>620</ele>
        <time>2021-08-05T13:36:30.081Z</time>
      </trkpt>
      <trkpt lat="46.97391" lon="8.76503">
        <ele>617</ele>
        <time>2021-08-05T13:36:31.081Z</time>
      </trkpt>
      <trkpt lat="46.97392" lon="8.76501">
        <ele>617</ele>
        <time>2021-08-05T13:36:32.083Z</time>
      </trkpt>
      <trkpt lat="46.97391" lon="8.76498">
        <ele>616</ele>
        <time>2021-08-05T13:36:33.083Z</time>
      </trkpt>
      <trkpt lat="46.97392" lon="8.76496">
        <ele>616</ele>
        <time>2021-08-05T13:36:34.082Z</time>
      </trkpt>
      <trkpt lat="46.97392" lon="8.76496">
        <ele>616</ele>
        <time>2021-08-05T13:36:35.083Z</time>
      </trkpt>
      <trkpt lat="46.97393" lon="8.76497">
        <ele>616</ele>
        <time>2021-08-05T13:36:36.083Z</time>
      </trkpt>
      <trkpt lat="46.97393" lon="8.76498">
        <ele>615</ele>
        <time>2021-08-05T13:36:37.083Z</time>
      </trkpt>
      <trkpt lat="46.97396" lon="8.76499">
        <ele>613</ele>
        <time>2021-08-05T13:36:38.083Z</time>
      </trkpt>
      <trkpt lat="46.97396" lon="8.76497">
        <ele>613</ele>
        <time>2021-08-05T13:36:39.083Z</time>
      </trkpt>
      <trkpt lat="46.97396" lon="8.76497">
        <ele>612</ele>
        <time>2021-08-05T13:36:40.082Z</time>
      </trkpt>
      <trkpt lat="46.97396" lon="8.76496">
        <ele>611</ele>
        <time>2021-08-05T13:36:41.082Z</time>
      </trkpt>
      <trkpt lat="46.97396" lon="8.76497">
        <ele>611</ele>
        <time>2021-08-05T13:36:42.082Z</time>
      </trkpt>
      <trkpt lat="46.97395" lon="8.76498">
        <ele>610</ele>
        <time>2021-08-05T13:36:43.082Z</time>
      </trkpt>
      <trkpt lat="46.97392" lon="8.76497">
        <ele>609</ele>
        <time>2021-08-05T13:36:44.084Z</time>
      </trkpt>
      <trkpt lat="46.97391" lon="8.76498">
        <ele>609</ele>
        <time>2021-08-05T13:36:45.084Z</time>
      </trkpt>
      <trkpt lat="46.97391" lon="8.76499">
        <ele>608</ele>
        <time>2021-08-05T13:36:46.083Z</time>
      </trkpt>
      <trkpt lat="46.97391" lon="8.76501">
        <ele>608</ele>
        <time>2021-08-05T13:36:47.083Z</time>
      </trkpt>
      <trkpt lat="46.97391" lon="8.76503">
        <ele>607</ele>
        <time>2021-08-05T13:36:48.083Z</time>
      </trkpt>
      <trkpt lat="46.97391" lon="8.76504">
        <ele>607</ele>
        <time>2021-08-05T13:36:49.083Z</time>
      </trkpt>
      <trkpt lat="46.9739" lon="8.76504">
        <ele>606</ele>
        <time>2021-08-05T13:36:50.084Z</time>
      </trkpt>
      <trkpt lat="46.97389" lon="8.76504">
        <ele>606</ele>
        <time>2021-08-05T13:36:51.084Z</time>
      </trkpt>
      <trkpt lat="46.97388" lon="8.76503">
        <ele>606</ele>
        <time>2021-08-05T13:36:52.084Z</time>
      </trkpt>
      <trkpt lat="46.9739" lon="8.76502">
        <ele>606</ele>
        <time>2021-08-05T13:36:53.084Z</time>
      </trkpt>
      <trkpt lat="46.97391" lon="8.76502">
        <ele>605</ele>
        <time>2021-08-05T13:36:54.085Z</time>
      </trkpt>
      <trkpt lat="46.97392" lon="8.76502">
        <ele>605</ele>
        <time>2021-08-05T13:36:55.084Z</time>
      </trkpt>
      <trkpt lat="46.97392" lon="8.76501">
        <ele>605</ele>
        <time>2021-08-05T13:36:56.084Z</time>
      </trkpt>
      <trkpt lat="46.97393" lon="8.76501">
        <ele>605</ele>
        <time>2021-08-05T13:36:57.085Z</time>
      </trkpt>
      <trkpt lat="46.97393" lon="8.76501">
        <ele>604</ele>
        <time>2021-08-05T13:36:58.085Z</time>
      </trkpt>
      <trkpt lat="46.97394" lon="8.76501">
        <ele>604</ele>
        <time>2021-08-05T13:36:59.085Z</time>
      </trkpt>
      <trkpt lat="46.97395" lon="8.76501">
        <ele>604</ele>
        <time>2021-08-05T13:37:00.085Z</time>
      </trkpt>
      <trkpt lat="46.97396" lon="8.76501">
        <ele>604</ele>
        <time>2021-08-05T13:37:01.085Z</time>
      </trkpt>
      <trkpt lat="46.97397" lon="8.76502">
        <ele>604</ele>
        <time>2021-08-05T13:37:02.085Z</time>
      </trkpt>
      <trkpt lat="46.97397" lon="8.76502">
        <ele>604</ele>
        <time>2021-08-05T13:37:03.085Z</time>
      </trkpt>
      <trkpt lat="46.97398" lon="8.76503">
        <ele>604</ele>
        <time>2021-08-05T13:37:04.084Z</time>
      </trkpt>
      <trkpt lat="46.97398" lon="8.76504">
        <ele>604</ele>
        <time>2021-08-05T13:37:05.084Z</time>
      </trkpt>
      <trkpt lat="46.97398" lon="8.76504">
        <ele>604</ele>
        <time>2021-08-05T13:37:06.084Z</time>
      </trkpt>
      <trkpt lat="46.97398" lon="8.76504">
        <ele>604</ele>
        <time>2021-08-05T13:37:07.084Z</time>
      </trkpt>
      <trkpt lat="46.97399" lon="8.76505">
        <ele>604</ele>
        <time>2021-08-05T13:37:08.085Z</time>
      </trkpt>
      <trkpt lat="46.97398" lon="8.76505">
        <ele>604</ele>
        <time>2021-08-05T13:37:09.085Z</time>
      </trkpt>
      <trkpt lat="46.97398" lon="8.76507">
        <ele>604</ele>
        <time>2021-08-05T13:37:10.085Z</time>
      </trkpt>
      <trkpt lat="46.97397" lon="8.76505">
        <ele>605</ele>
        <time>2021-08-05T13:37:11.085Z</time>
      </trkpt>
      <trkpt lat="46.97396" lon="8.76503">
        <ele>605</ele>
        <time>2021-08-05T13:37:12.085Z</time>
      </trkpt>
      <trkpt lat="46.97395" lon="8.76503">
        <ele>605</ele>
        <time>2021-08-05T13:37:13.085Z</time>
      </trkpt>
      <trkpt lat="46.97396" lon="8.76505">
        <ele>606</ele>
        <time>2021-08-05T13:37:14.084Z</time>
      </trkpt>
      <trkpt lat="46.97398" lon="8.76508">
        <ele>606</ele>
        <time>2021-08-05T13:37:15.085Z</time>
      </trkpt>
      <trkpt lat="46.97402" lon="8.76511">
        <ele>606</ele>
        <time>2021-08-05T13:37:16.085Z</time>
      </trkpt>
      <trkpt lat="46.97404" lon="8.76512">
        <ele>606</ele>
        <time>2021-08-05T13:37:17.085Z</time>
      </trkpt>
      <trkpt lat="46.97406" lon="8.76514">
        <ele>607</ele>
        <time>2021-08-05T13:37:18.085Z</time>
      </trkpt>
      <trkpt lat="46.97408" lon="8.76515">
        <ele>607</ele>
        <time>2021-08-05T13:37:19.085Z</time>
      </trkpt>
      <trkpt lat="46.97408" lon="8.76519">
        <ele>607</ele>
        <time>2021-08-05T13:37:20.084Z</time>
      </trkpt>
      <trkpt lat="46.97406" lon="8.76517">
        <ele>608</ele>
        <time>2021-08-05T13:37:21.084Z</time>
      </trkpt>
      <trkpt lat="46.97407" lon="8.76515">
        <ele>608</ele>
        <time>2021-08-05T13:37:22.085Z</time>
      </trkpt>
      <trkpt lat="46.97407" lon="8.76515">
        <ele>608</ele>
        <time>2021-08-05T13:37:23.085Z</time>
      </trkpt>
      <trkpt lat="46.97407" lon="8.76515">
        <ele>608</ele>
        <time>2021-08-05T13:37:24.084Z</time>
      </trkpt>
      <trkpt lat="46.97408" lon="8.76515">
        <ele>609</ele>
        <time>2021-08-05T13:37:25.085Z</time>
      </trkpt>
      <trkpt lat="46.97409" lon="8.76518">
        <ele>609</ele>
        <time>2021-08-05T13:37:26.084Z</time>
      </trkpt>
      <trkpt lat="46.97409" lon="8.76519">
        <ele>609</ele>
        <time>2021-08-05T13:37:27.085Z</time>
      </trkpt>
      <trkpt lat="46.97409" lon="8.76522">
        <ele>609</ele>
        <time>2021-08-05T13:37:28.084Z</time>
      </trkpt>
      <trkpt lat="46.9741" lon="8.76526">
        <ele>610</ele>
        <time>2021-08-05T13:37:29.084Z</time>
      </trkpt>
      <trkpt lat="46.9741" lon="8.76528">
        <ele>610</ele>
        <time>2021-08-05T13:37:30.085Z</time>
      </trkpt>
      <trkpt lat="46.9741" lon="8.76529">
        <ele>611</ele>
        <time>2021-08-05T13:37:31.085Z</time>
      </trkpt>
      <trkpt lat="46.9741" lon="8.76531">
        <ele>611</ele>
        <time>2021-08-05T13:37:32.084Z</time>
      </trkpt>
      <trkpt lat="46.97409" lon="8.76532">
        <ele>612</ele>
        <time>2021-08-05T13:37:33.084Z</time>
      </trkpt>
      <trkpt lat="46.97407" lon="8.76532">
        <ele>612</ele>
        <time>2021-08-05T13:37:34.084Z</time>
      </trkpt>
      <trkpt lat="46.97407" lon="8.76533">
        <ele>612</ele>
        <time>2021-08-05T13:37:35.085Z</time>
      </trkpt>
      <trkpt lat="46.97407" lon="8.76533">
        <ele>613</ele>
        <time>2021-08-05T13:37:36.085Z</time>
      </trkpt>
      <trkpt lat="46.97407" lon="8.76533">
        <ele>613</ele>
        <time>2021-08-05T13:37:37.085Z</time>
      </trkpt>
      <trkpt lat="46.97408" lon="8.76533">
        <ele>613</ele>
        <time>2021-08-05T13:37:38.085Z</time>
      </trkpt>
      <trkpt lat="46.97408" lon="8.76532">
        <ele>614</ele>
        <time>2021-08-05T13:37:39.085Z</time>
      </trkpt>
      <trkpt lat="46.97408" lon="8.76532">
        <ele>614</ele>
        <time>2021-08-05T13:37:40.084Z</time>
      </trkpt>
      <trkpt lat="46.97409" lon="8.76532">
        <ele>614</ele>
        <time>2021-08-05T13:37:41.085Z</time>
      </trkpt>
      <trkpt lat="46.97409" lon="8.76532">
        <ele>615</ele>
        <time>2021-08-05T13:37:42.084Z</time>
      </trkpt>
      <trkpt lat="46.97409" lon="8.76531">
        <ele>615</ele>
        <time>2021-08-05T13:37:43.084Z</time>
      </trkpt>
      <trkpt lat="46.97408" lon="8.7653">
        <ele>615</ele>
        <time>2021-08-05T13:37:44.085Z</time>
      </trkpt>
      <trkpt lat="46.97407" lon="8.76529">
        <ele>616</ele>
        <time>2021-08-05T13:37:45.084Z</time>
      </trkpt>
      <trkpt lat="46.97406" lon="8.76528">
        <ele>616</ele>
        <time>2021-08-05T13:37:46.085Z</time>
      </trkpt>
      <trkpt lat="46.97405" lon="8.76527">
        <ele>616</ele>
        <time>2021-08-05T13:37:47.085Z</time>
      </trkpt>
      <trkpt lat="46.97405" lon="8.76526">
        <ele>616</ele>
        <time>2021-08-05T13:37:48.085Z</time>
      </trkpt>
      <trkpt lat="46.97404" lon="8.76526">
        <ele>617</ele>
        <time>2021-08-05T13:37:49.084Z</time>
      </trkpt>
      <trkpt lat="46.97404" lon="8.76527">
        <ele>617</ele>
        <time>2021-08-05T13:37:50.084Z</time>
      </trkpt>
      <trkpt lat="46.97404" lon="8.76527">
        <ele>617</ele>
        <time>2021-08-05T13:37:51.085Z</time>
      </trkpt>
      <trkpt lat="46.97404" lon="8.76527">
        <ele>617</ele>
        <time>2021-08-05T13:37:52.085Z</time>
      </trkpt>
      <trkpt lat="46.97404" lon="8.76526">
        <ele>617</ele>
        <time>2021-08-05T13:37:53.084Z</time>
      </trkpt>
      <trkpt lat="46.97404" lon="8.76524">
        <ele>617</ele>
        <time>2021-08-05T13:37:54.085Z</time>
      </trkpt>
      <trkpt lat="46.97403" lon="8.76523">
        <ele>617</ele>
        <time>2021-08-05T13:37:55.085Z</time>
      </trkpt>
      <trkpt lat="46.97403" lon="8.76522">
        <ele>617</ele>
        <time>2021-08-05T13:37:56.084Z</time>
      </trkpt>
      <trkpt lat="46.97404" lon="8.76521">
        <ele>617</ele>
        <time>2021-08-05T13:37:57.084Z</time>
      </trkpt>
      <trkpt lat="46.97406" lon="8.76522">
        <ele>616</ele>
        <time>2021-08-05T13:37:58.084Z</time>
      </trkpt>
      <trkpt lat="46.97407" lon="8.76523">
        <ele>616</ele>
        <time>2021-08-05T13:37:59.084Z</time>
      </trkpt>
      <trkpt lat="46.97409" lon="8.76525">
        <ele>616</ele>
        <time>2021-08-05T13:38:00.085Z</time>
      </trkpt>
      <trkpt lat="46.9741" lon="8.76526">
        <ele>616</ele>
        <time>2021-08-05T13:38:01.085Z</time>
      </trkpt>
      <trkpt lat="46.97409" lon="8.76526">
        <ele>615</ele>
        <time>2021-08-05T13:38:02.084Z</time>
      </trkpt>
      <trkpt lat="46.97409" lon="8.76527">
        <ele>615</ele>
        <time>2021-08-05T13:38:03.085Z</time>
      </trkpt>
      <trkpt lat="46.97409" lon="8.76529">
        <ele>615</ele>
        <time>2021-08-05T13:38:04.084Z</time>
      </trkpt>
      <trkpt lat="46.97409" lon="8.7653">
        <ele>615</ele>
        <time>2021-08-05T13:38:05.085Z</time>
      </trkpt>
      <trkpt lat="46.97409" lon="8.7653">
        <ele>615</ele>
        <time>2021-08-05T13:38:06.085Z</time>
      </trkpt>
      <trkpt lat="46.97409" lon="8.76529">
        <ele>615</ele>
        <time>2021-08-05T13:38:07.084Z</time>
      </trkpt>
      <trkpt lat="46.97409" lon="8.76528">
        <ele>615</ele>
        <time>2021-08-05T13:38:08.085Z</time>
      </trkpt>
      <trkpt lat="46.97408" lon="8.76528">
        <ele>615</ele>
        <time>2021-08-05T13:38:09.084Z</time>
      </trkpt>
      <trkpt lat="46.97408" lon="8.76527">
        <ele>615</ele>
        <time>2021-08-05T13:38:10.085Z</time>
      </trkpt>
      <trkpt lat="46.97408" lon="8.76526">
        <ele>615</ele>
        <time>2021-08-05T13:38:11.084Z</time>
      </trkpt>
      <trkpt lat="46.97407" lon="8.76525">
        <ele>615</ele>
        <time>2021-08-05T13:38:12.085Z</time>
      </trkpt>
      <trkpt lat="46.97406" lon="8.76524">
        <ele>614</ele>
        <time>2021-08-05T13:38:13.085Z</time>
      </trkpt>
      <trkpt lat="46.97405" lon="8.76523">
        <ele>614</ele>
        <time>2021-08-05T13:38:14.084Z</time>
      </trkpt>
      <trkpt lat="46.97404" lon="8.76522">
        <ele>614</ele>
        <time>2021-08-05T13:38:15.085Z</time>
      </trkpt>
      <trkpt lat="46.97403" lon="8.76522">
        <ele>613</ele>
        <time>2021-08-05T13:38:16.085Z</time>
      </trkpt>
      <trkpt lat="46.97402" lon="8.76521">
        <ele>613</ele>
        <time>2021-08-05T13:38:17.084Z</time>
      </trkpt>
      <trkpt lat="46.97401" lon="8.7652">
        <ele>612</ele>
        <time>2021-08-05T13:38:18.084Z</time>
      </trkpt>
      <trkpt lat="46.97401" lon="8.76519">
        <ele>612</ele>
        <time>2021-08-05T13:38:19.084Z</time>
      </trkpt>
      <trkpt lat="46.97401" lon="8.76518">
        <ele>611</ele>
        <time>2021-08-05T13:38:20.085Z</time>
      </trkpt>
      <trkpt lat="46.97401" lon="8.76519">
        <ele>610</ele>
        <time>2021-08-05T13:38:21.084Z</time>
      </trkpt>
      <trkpt lat="46.97401" lon="8.7652">
        <ele>609</ele>
        <time>2021-08-05T13:38:22.085Z</time>
      </trkpt>
      <trkpt lat="46.97399" lon="8.76518">
        <ele>608</ele>
        <time>2021-08-05T13:38:23.084Z</time>
      </trkpt>
      <trkpt lat="46.97399" lon="8.76516">
        <ele>609</ele>
        <time>2021-08-05T13:38:24.085Z</time>
      </trkpt>
      <trkpt lat="46.97399" lon="8.76514">
        <ele>610</ele>
        <time>2021-08-05T13:38:25.085Z</time>
      </trkpt>
      <trkpt lat="46.97399" lon="8.76513">
        <ele>611</ele>
        <time>2021-08-05T13:38:26.085Z</time>
      </trkpt>
      <trkpt lat="46.97399" lon="8.76514">
        <ele>612</ele>
        <time>2021-08-05T13:38:27.084Z</time>
      </trkpt>
      <trkpt lat="46.974" lon="8.76514">
        <ele>613</ele>
        <time>2021-08-05T13:38:28.084Z</time>
      </trkpt>
      <trkpt lat="46.974" lon="8.76513">
        <ele>614</ele>
        <time>2021-08-05T13:38:29.084Z</time>
      </trkpt>
      <trkpt lat="46.974" lon="8.76513">
        <ele>615</ele>
        <time>2021-08-05T13:38:30.085Z</time>
      </trkpt>
      <trkpt lat="46.97401" lon="8.76514">
        <ele>616</ele>
        <time>2021-08-05T13:38:31.084Z</time>
      </trkpt>
      <trkpt lat="46.97402" lon="8.76514">
        <ele>617</ele>
        <time>2021-08-05T13:38:32.085Z</time>
      </trkpt>
      <trkpt lat="46.97403" lon="8.76514">
        <ele>617</ele>
        <time>2021-08-05T13:38:33.085Z</time>
      </trkpt>
      <trkpt lat="46.97403" lon="8.76513">
        <ele>618</ele>
        <time>2021-08-05T13:38:34.085Z</time>
      </trkpt>
      <trkpt lat="46.97403" lon="8.76514">
        <ele>618</ele>
        <time>2021-08-05T13:38:35.084Z</time>
      </trkpt>
      <trkpt lat="46.97402" lon="8.76515">
        <ele>619</ele>
        <time>2021-08-05T13:38:36.085Z</time>
      </trkpt>
      <trkpt lat="46.97402" lon="8.76516">
        <ele>619</ele>
        <time>2021-08-05T13:38:37.085Z</time>
      </trkpt>
      <trkpt lat="46.97403" lon="8.76512">
        <ele>620</ele>
        <time>2021-08-05T13:38:38.086Z</time>
      </trkpt>
      <trkpt lat="46.97403" lon="8.76511">
        <ele>621</ele>
        <time>2021-08-05T13:38:39.086Z</time>
      </trkpt>
      <trkpt lat="46.97403" lon="8.76511">
        <ele>621</ele>
        <time>2021-08-05T13:38:40.085Z</time>
      </trkpt>
      <trkpt lat="46.97402" lon="8.76512">
        <ele>622</ele>
        <time>2021-08-05T13:38:41.086Z</time>
      </trkpt>
      <trkpt lat="46.97403" lon="8.76512">
        <ele>623</ele>
        <time>2021-08-05T13:38:42.087Z</time>
      </trkpt>
      <trkpt lat="46.97403" lon="8.76512">
        <ele>623</ele>
        <time>2021-08-05T13:38:43.086Z</time>
      </trkpt>
      <trkpt lat="46.97402" lon="8.76513">
        <ele>623</ele>
        <time>2021-08-05T13:38:44.086Z</time>
      </trkpt>
      <trkpt lat="46.974" lon="8.76517">
        <ele>623</ele>
        <time>2021-08-05T13:38:45.088Z</time>
      </trkpt>
      <trkpt lat="46.97399" lon="8.76518">
        <ele>623</ele>
        <time>2021-08-05T13:38:46.088Z</time>
      </trkpt>
      <trkpt lat="46.97399" lon="8.76518">
        <ele>622</ele>
        <time>2021-08-05T13:38:47.088Z</time>
      </trkpt>
      <trkpt lat="46.97398" lon="8.76519">
        <ele>622</ele>
        <time>2021-08-05T13:38:48.088Z</time>
      </trkpt>
      <trkpt lat="46.97399" lon="8.76521">
        <ele>622</ele>
        <time>2021-08-05T13:38:49.088Z</time>
      </trkpt>
      <trkpt lat="46.97399" lon="8.76524">
        <ele>622</ele>
        <time>2021-08-05T13:38:50.087Z</time>
      </trkpt>
      <trkpt lat="46.974" lon="8.76526">
        <ele>622</ele>
        <time>2021-08-05T13:38:51.088Z</time>
      </trkpt>
      <trkpt lat="46.97401" lon="8.76528">
        <ele>622</ele>
        <time>2021-08-05T13:38:52.088Z</time>
      </trkpt>
      <trkpt lat="46.97401" lon="8.76529">
        <ele>622</ele>
        <time>2021-08-05T13:38:53.088Z</time>
      </trkpt>
      <trkpt lat="46.97399" lon="8.76529">
        <ele>622</ele>
        <time>2021-08-05T13:38:54.088Z</time>
      </trkpt>
      <trkpt lat="46.97398" lon="8.76529">
        <ele>621</ele>
        <time>2021-08-05T13:38:55.088Z</time>
      </trkpt>
      <trkpt lat="46.97396" lon="8.76528">
        <ele>621</ele>
        <time>2021-08-05T13:38:56.088Z</time>
      </trkpt>
      <trkpt lat="46.97394" lon="8.76528">
        <ele>621</ele>
        <time>2021-08-05T13:38:57.088Z</time>
      </trkpt>
      <trkpt lat="46.97391" lon="8.76527">
        <ele>621</ele>
        <time>2021-08-05T13:38:58.088Z</time>
      </trkpt>
      <trkpt lat="46.9739" lon="8.76526">
        <ele>621</ele>
        <time>2021-08-05T13:38:59.088Z</time>
      </trkpt>
      <trkpt lat="46.97389" lon="8.76525">
        <ele>621</ele>
        <time>2021-08-05T13:39:00.088Z</time>
      </trkpt>
      <trkpt lat="46.97389" lon="8.76523">
        <ele>620</ele>
        <time>2021-08-05T13:39:01.088Z</time>
      </trkpt>
      <trkpt lat="46.97388" lon="8.76522">
        <ele>620</ele>
        <time>2021-08-05T13:39:02.088Z</time>
      </trkpt>
      <trkpt lat="46.97388" lon="8.7652">
        <ele>620</ele>
        <time>2021-08-05T13:39:03.088Z</time>
      </trkpt>
      <trkpt lat="46.97387" lon="8.76519">
        <ele>619</ele>
        <time>2021-08-05T13:39:04.087Z</time>
      </trkpt>
      <trkpt lat="46.97388" lon="8.76518">
        <ele>619</ele>
        <time>2021-08-05T13:39:05.088Z</time>
      </trkpt>
      <trkpt lat="46.97388" lon="8.76518">
        <ele>619</ele>
        <time>2021-08-05T13:39:06.088Z</time>
      </trkpt>
      <trkpt lat="46.97388" lon="8.76518">
        <ele>618</ele>
        <time>2021-08-05T13:39:07.088Z</time>
      </trkpt>
      <trkpt lat="46.97389" lon="8.76519">
        <ele>618</ele>
        <time>2021-08-05T13:39:08.088Z</time>
      </trkpt>
      <trkpt lat="46.9739" lon="8.76519">
        <ele>618</ele>
        <time>2021-08-05T13:39:09.088Z</time>
      </trkpt>
      <trkpt lat="46.97391" lon="8.76519">
        <ele>617</ele>
        <time>2021-08-05T13:39:10.088Z</time>
      </trkpt>
      <trkpt lat="46.97391" lon="8.76519">
        <ele>617</ele>
        <time>2021-08-05T13:39:11.087Z</time>
      </trkpt>
      <trkpt lat="46.97392" lon="8.7652">
        <ele>616</ele>
        <time>2021-08-05T13:39:12.088Z</time>
      </trkpt>
      <trkpt lat="46.97393" lon="8.76522">
        <ele>616</ele>
        <time>2021-08-05T13:39:13.087Z</time>
      </trkpt>
      <trkpt lat="46.97393" lon="8.76523">
        <ele>615</ele>
        <time>2021-08-05T13:39:14.088Z</time>
      </trkpt>
      <trkpt lat="46.97394" lon="8.76524">
        <ele>615</ele>
        <time>2021-08-05T13:39:15.088Z</time>
      </trkpt>
      <trkpt lat="46.97395" lon="8.76525">
        <ele>615</ele>
        <time>2021-08-05T13:39:16.087Z</time>
      </trkpt>
      <trkpt lat="46.97396" lon="8.76527">
        <ele>614</ele>
        <time>2021-08-05T13:39:17.088Z</time>
      </trkpt>
      <trkpt lat="46.97398" lon="8.7653">
        <ele>614</ele>
        <time>2021-08-05T13:39:18.087Z</time>
      </trkpt>
      <trkpt lat="46.97402" lon="8.76533">
        <ele>614</ele>
        <time>2021-08-05T13:39:19.088Z</time>
      </trkpt>
      <trkpt lat="46.97403" lon="8.76534">
        <ele>613</ele>
        <time>2021-08-05T13:39:20.088Z</time>
      </trkpt>
      <trkpt lat="46.97403" lon="8.76533">
        <ele>613</ele>
        <time>2021-08-05T13:39:21.088Z</time>
      </trkpt>
      <trkpt lat="46.97403" lon="8.76533">
        <ele>613</ele>
        <time>2021-08-05T13:39:22.087Z</time>
      </trkpt>
      <trkpt lat="46.97402" lon="8.76533">
        <ele>613</ele>
        <time>2021-08-05T13:39:23.087Z</time>
      </trkpt>
      <trkpt lat="46.97402" lon="8.76532">
        <ele>612</ele>
        <time>2021-08-05T13:39:24.088Z</time>
      </trkpt>
      <trkpt lat="46.97402" lon="8.76532">
        <ele>612</ele>
        <time>2021-08-05T13:39:25.089Z</time>
      </trkpt>
      <trkpt lat="46.97403" lon="8.76531">
        <ele>612</ele>
        <time>2021-08-05T13:39:26.089Z</time>
      </trkpt>
      <trkpt lat="46.97403" lon="8.7653">
        <ele>612</ele>
        <time>2021-08-05T13:39:27.088Z</time>
      </trkpt>
      <trkpt lat="46.97403" lon="8.7653">
        <ele>611</ele>
        <time>2021-08-05T13:39:28.089Z</time>
      </trkpt>
      <trkpt lat="46.97403" lon="8.76529">
        <ele>611</ele>
        <time>2021-08-05T13:39:29.088Z</time>
      </trkpt>
      <trkpt lat="46.97403" lon="8.76529">
        <ele>610</ele>
        <time>2021-08-05T13:39:30.089Z</time>
      </trkpt>
      <trkpt lat="46.97402" lon="8.76528">
        <ele>610</ele>
        <time>2021-08-05T13:39:31.089Z</time>
      </trkpt>
      <trkpt lat="46.97402" lon="8.76528">
        <ele>609</ele>
        <time>2021-08-05T13:39:32.088Z</time>
      </trkpt>
      <trkpt lat="46.97399" lon="8.76524">
        <ele>608</ele>
        <time>2021-08-05T13:39:33.089Z</time>
      </trkpt>
      <trkpt lat="46.97398" lon="8.76524">
        <ele>607</ele>
        <time>2021-08-05T13:39:34.088Z</time>
      </trkpt>
      <trkpt lat="46.97396" lon="8.76524">
        <ele>608</ele>
        <time>2021-08-05T13:39:35.089Z</time>
      </trkpt>
      <trkpt lat="46.97397" lon="8.76524">
        <ele>608</ele>
        <time>2021-08-05T13:39:36.089Z</time>
      </trkpt>
      <trkpt lat="46.97399" lon="8.76527">
        <ele>608</ele>
        <time>2021-08-05T13:39:37.089Z</time>
      </trkpt>
      <trkpt lat="46.974" lon="8.76528">
        <ele>608</ele>
        <time>2021-08-05T13:39:38.090Z</time>
      </trkpt>
      <trkpt lat="46.974" lon="8.76529">
        <ele>608</ele>
        <time>2021-08-05T13:39:39.089Z</time>
      </trkpt>
      <trkpt lat="46.974" lon="8.76528">
        <ele>608</ele>
        <time>2021-08-05T13:39:40.089Z</time>
      </trkpt>
      <trkpt lat="46.974" lon="8.76528">
        <ele>608</ele>
        <time>2021-08-05T13:39:41.089Z</time>
      </trkpt>
      <trkpt lat="46.97401" lon="8.76528">
        <ele>607</ele>
        <time>2021-08-05T13:39:42.090Z</time>
      </trkpt>
      <trkpt lat="46.97402" lon="8.76527">
        <ele>607</ele>
        <time>2021-08-05T13:39:43.090Z</time>
      </trkpt>
      <trkpt lat="46.97402" lon="8.76528">
        <ele>607</ele>
        <time>2021-08-05T13:39:44.090Z</time>
      </trkpt>
      <trkpt lat="46.97403" lon="8.76528">
        <ele>608</ele>
        <time>2021-08-05T13:39:45.091Z</time>
      </trkpt>
      <trkpt lat="46.97403" lon="8.76528">
        <ele>609</ele>
        <time>2021-08-05T13:39:46.091Z</time>
      </trkpt>
      <trkpt lat="46.97404" lon="8.76529">
        <ele>610</ele>
        <time>2021-08-05T13:39:47.091Z</time>
      </trkpt>
      <trkpt lat="46.97404" lon="8.76529">
        <ele>610</ele>
        <time>2021-08-05T13:39:48.091Z</time>
      </trkpt>
      <trkpt lat="46.97404" lon="8.76529">
        <ele>611</ele>
        <time>2021-08-05T13:39:49.091Z</time>
      </trkpt>
      <trkpt lat="46.97404" lon="8.76529">
        <ele>616</ele>
        <time>2021-08-05T13:39:50.093Z</time>
      </trkpt>
      <trkpt lat="46.97405" lon="8.76529">
        <ele>617</ele>
        <time>2021-08-05T13:39:51.093Z</time>
      </trkpt>
      <trkpt lat="46.97405" lon="8.7653">
        <ele>618</ele>
        <time>2021-08-05T13:39:52.092Z</time>
      </trkpt>
      <trkpt lat="46.97405" lon="8.7653">
        <ele>620</ele>
        <time>2021-08-05T13:39:53.092Z</time>
      </trkpt>
      <trkpt lat="46.97405" lon="8.7653">
        <ele>620</ele>
        <time>2021-08-05T13:39:54.092Z</time>
      </trkpt>
      <trkpt lat="46.97406" lon="8.7653">
        <ele>621</ele>
        <time>2021-08-05T13:39:55.092Z</time>
      </trkpt>
      <trkpt lat="46.97406" lon="8.76531">
        <ele>622</ele>
        <time>2021-08-05T13:39:56.093Z</time>
      </trkpt>
      <trkpt lat="46.97406" lon="8.76532">
        <ele>622</ele>
        <time>2021-08-05T13:39:57.092Z</time>
      </trkpt>
      <trkpt lat="46.97406" lon="8.76531">
        <ele>623</ele>
        <time>2021-08-05T13:39:58.093Z</time>
      </trkpt>
      <trkpt lat="46.97407" lon="8.76531">
        <ele>623</ele>
        <time>2021-08-05T13:39:59.093Z</time>
      </trkpt>
      <trkpt lat="46.97407" lon="8.76531">
        <ele>624</ele>
        <time>2021-08-05T13:40:00.093Z</time>
      </trkpt>
      <trkpt lat="46.97407" lon="8.7653">
        <ele>624</ele>
        <time>2021-08-05T13:40:01.093Z</time>
      </trkpt>
      <trkpt lat="46.97407" lon="8.7653">
        <ele>624</ele>
        <time>2021-08-05T13:40:02.093Z</time>
      </trkpt>
      <trkpt lat="46.97407" lon="8.7653">
        <ele>624</ele>
        <time>2021-08-05T13:40:03.093Z</time>
      </trkpt>
      <trkpt lat="46.97406" lon="8.76527">
        <ele>625</ele>
        <time>2021-08-05T13:40:04.094Z</time>
      </trkpt>
      <trkpt lat="46.97405" lon="8.76525">
        <ele>626</ele>
        <time>2021-08-05T13:40:05.094Z</time>
      </trkpt>
      <trkpt lat="46.97405" lon="8.76525">
        <ele>626</ele>
        <time>2021-08-05T13:40:06.093Z</time>
      </trkpt>
      <trkpt lat="46.97404" lon="8.76523">
        <ele>626</ele>
        <time>2021-08-05T13:40:07.093Z</time>
      </trkpt>
      <trkpt lat="46.97404" lon="8.76523">
        <ele>626</ele>
        <time>2021-08-05T13:40:08.094Z</time>
      </trkpt>
      <trkpt lat="46.97404" lon="8.76523">
        <ele>627</ele>
        <time>2021-08-05T13:40:09.094Z</time>
      </trkpt>
      <trkpt lat="46.97404" lon="8.76523">
        <ele>627</ele>
        <time>2021-08-05T13:40:10.093Z</time>
      </trkpt>
      <trkpt lat="46.97405" lon="8.76523">
        <ele>628</ele>
        <time>2021-08-05T13:40:11.093Z</time>
      </trkpt>
      <trkpt lat="46.97406" lon="8.76523">
        <ele>628</ele>
        <time>2021-08-05T13:40:12.093Z</time>
      </trkpt>
      <trkpt lat="46.97407" lon="8.76525">
        <ele>628</ele>
        <time>2021-08-05T13:40:13.094Z</time>
      </trkpt>
      <trkpt lat="46.97407" lon="8.76525">
        <ele>628</ele>
        <time>2021-08-05T13:40:14.094Z</time>
      </trkpt>
      <trkpt lat="46.97407" lon="8.76525">
        <ele>629</ele>
        <time>2021-08-05T13:40:15.096Z</time>
      </trkpt>
      <trkpt lat="46.97407" lon="8.76525">
        <ele>629</ele>
        <time>2021-08-05T13:40:16.096Z</time>
      </trkpt>
      <trkpt lat="46.97407" lon="8.76525">
        <ele>629</ele>
        <time>2021-08-05T13:40:17.095Z</time>
      </trkpt>
      <trkpt lat="46.97408" lon="8.76525">
        <ele>627</ele>
        <time>2021-08-05T13:40:18.096Z</time>
      </trkpt>
      <trkpt lat="46.97409" lon="8.76525">
        <ele>627</ele>
        <time>2021-08-05T13:40:19.097Z</time>
      </trkpt>
      <trkpt lat="46.97409" lon="8.76526">
        <ele>627</ele>
        <time>2021-08-05T13:40:20.096Z</time>
      </trkpt>
      <trkpt lat="46.9741" lon="8.76526">
        <ele>626</ele>
        <time>2021-08-05T13:40:21.097Z</time>
      </trkpt>
      <trkpt lat="46.9741" lon="8.76526">
        <ele>626</ele>
        <time>2021-08-05T13:40:22.096Z</time>
      </trkpt>
      <trkpt lat="46.9741" lon="8.76525">
        <ele>626</ele>
        <time>2021-08-05T13:40:23.097Z</time>
      </trkpt>
      <trkpt lat="46.9741" lon="8.76524">
        <ele>626</ele>
        <time>2021-08-05T13:40:24.097Z</time>
      </trkpt>
      <trkpt lat="46.9741" lon="8.76523">
        <ele>626</ele>
        <time>2021-08-05T13:40:25.096Z</time>
      </trkpt>
      <trkpt lat="46.97409" lon="8.76528">
        <ele>624</ele>
        <time>2021-08-05T13:40:26.098Z</time>
      </trkpt>
      <trkpt lat="46.97408" lon="8.76527">
        <ele>624</ele>
        <time>2021-08-05T13:40:27.098Z</time>
      </trkpt>
      <trkpt lat="46.97408" lon="8.76526">
        <ele>625</ele>
        <time>2021-08-05T13:40:28.097Z</time>
      </trkpt>
      <trkpt lat="46.9741" lon="8.76528">
        <ele>624</ele>
        <time>2021-08-05T13:40:29.099Z</time>
      </trkpt>
      <trkpt lat="46.97411" lon="8.76529">
        <ele>624</ele>
        <time>2021-08-05T13:40:30.100Z</time>
      </trkpt>
      <trkpt lat="46.97412" lon="8.76529">
        <ele>624</ele>
        <time>2021-08-05T13:40:31.099Z</time>
      </trkpt>
      <trkpt lat="46.97413" lon="8.7653">
        <ele>624</ele>
        <time>2021-08-05T13:40:32.099Z</time>
      </trkpt>
      <trkpt lat="46.97414" lon="8.76531">
        <ele>623</ele>
        <time>2021-08-05T13:40:33.100Z</time>
      </trkpt>
      <trkpt lat="46.97414" lon="8.76532">
        <ele>623</ele>
        <time>2021-08-05T13:40:34.100Z</time>
      </trkpt>
      <trkpt lat="46.97415" lon="8.76532">
        <ele>623</ele>
        <time>2021-08-05T13:40:35.100Z</time>
      </trkpt>
      <trkpt lat="46.97415" lon="8.76533">
        <ele>622</ele>
        <time>2021-08-05T13:40:36.100Z</time>
      </trkpt>
      <trkpt lat="46.97416" lon="8.76534">
        <ele>622</ele>
        <time>2021-08-05T13:40:37.099Z</time>
      </trkpt>
      <trkpt lat="46.97416" lon="8.76535">
        <ele>622</ele>
        <time>2021-08-05T13:40:38.100Z</time>
      </trkpt>
      <trkpt lat="46.97416" lon="8.76536">
        <ele>622</ele>
        <time>2021-08-05T13:40:39.100Z</time>
      </trkpt>
      <trkpt lat="46.97416" lon="8.76536">
        <ele>622</ele>
        <time>2021-08-05T13:40:40.100Z</time>
      </trkpt>
      <trkpt lat="46.97415" lon="8.76537">
        <ele>622</ele>
        <time>2021-08-05T13:40:41.100Z</time>
      </trkpt>
      <trkpt lat="46.97415" lon="8.76537">
        <ele>622</ele>
        <time>2021-08-05T13:40:42.099Z</time>
      </trkpt>
      <trkpt lat="46.97414" lon="8.76537">
        <ele>622</ele>
        <time>2021-08-05T13:40:43.100Z</time>
      </trkpt>
      <trkpt lat="46.97414" lon="8.76538">
        <ele>622</ele>
        <time>2021-08-05T13:40:44.100Z</time>
      </trkpt>
      <trkpt lat="46.97413" lon="8.76538">
        <ele>622</ele>
        <time>2021-08-05T13:40:45.099Z</time>
      </trkpt>
      <trkpt lat="46.97413" lon="8.76539">
        <ele>622</ele>
        <time>2021-08-05T13:40:46.100Z</time>
      </trkpt>
      <trkpt lat="46.97413" lon="8.76539">
        <ele>622</ele>
        <time>2021-08-05T13:40:47.100Z</time>
      </trkpt>
      <trkpt lat="46.97413" lon="8.7654">
        <ele>623</ele>
        <time>2021-08-05T13:40:48.099Z</time>
      </trkpt>
      <trkpt lat="46.97412" lon="8.76541">
        <ele>623</ele>
        <time>2021-08-05T13:40:49.100Z</time>
      </trkpt>
      <trkpt lat="46.97412" lon="8.76542">
        <ele>624</ele>
        <time>2021-08-05T13:40:50.100Z</time>
      </trkpt>
      <trkpt lat="46.97412" lon="8.76543">
        <ele>624</ele>
        <time>2021-08-05T13:40:51.100Z</time>
      </trkpt>
      <trkpt lat="46.97412" lon="8.76544">
        <ele>625</ele>
        <time>2021-08-05T13:40:52.100Z</time>
      </trkpt>
      <trkpt lat="46.97411" lon="8.76546">
        <ele>625</ele>
        <time>2021-08-05T13:40:53.100Z</time>
      </trkpt>
      <trkpt lat="46.97411" lon="8.76547">
        <ele>625</ele>
        <time>2021-08-05T13:40:54.100Z</time>
      </trkpt>
      <trkpt lat="46.97411" lon="8.76549">
        <ele>626</ele>
        <time>2021-08-05T13:40:55.100Z</time>
      </trkpt>
      <trkpt lat="46.97411" lon="8.7655">
        <ele>626</ele>
        <time>2021-08-05T13:40:56.100Z</time>
      </trkpt>
      <trkpt lat="46.9741" lon="8.76551">
        <ele>626</ele>
        <time>2021-08-05T13:40:57.100Z</time>
      </trkpt>
      <trkpt lat="46.9741" lon="8.76551">
        <ele>627</ele>
        <time>2021-08-05T13:40:58.100Z</time>
      </trkpt>
      <trkpt lat="46.9741" lon="8.76552">
        <ele>627</ele>
        <time>2021-08-05T13:40:59.099Z</time>
      </trkpt>
      <trkpt lat="46.97411" lon="8.76557">
        <ele>624</ele>
        <time>2021-08-05T13:41:00.099Z</time>
      </trkpt>
      <trkpt lat="46.97411" lon="8.76559">
        <ele>623</ele>
        <time>2021-08-05T13:41:01.099Z</time>
      </trkpt>
      <trkpt lat="46.97411" lon="8.7656">
        <ele>623</ele>
        <time>2021-08-05T13:41:02.099Z</time>
      </trkpt>
      <trkpt lat="46.97411" lon="8.76562">
        <ele>623</ele>
        <time>2021-08-05T13:41:03.099Z</time>
      </trkpt>
      <trkpt lat="46.97411" lon="8.76564">
        <ele>623</ele>
        <time>2021-08-05T13:41:04.099Z</time>
      </trkpt>
      <trkpt lat="46.97411" lon="8.76565">
        <ele>623</ele>
        <time>2021-08-05T13:41:05.099Z</time>
      </trkpt>
      <trkpt lat="46.97411" lon="8.76566">
        <ele>623</ele>
        <time>2021-08-05T13:41:06.100Z</time>
      </trkpt>
      <trkpt lat="46.97411" lon="8.76568">
        <ele>622</ele>
        <time>2021-08-05T13:41:07.099Z</time>
      </trkpt>
      <trkpt lat="46.97411" lon="8.76568">
        <ele>622</ele>
        <time>2021-08-05T13:41:08.100Z</time>
      </trkpt>
      <trkpt lat="46.97411" lon="8.7657">
        <ele>622</ele>
        <time>2021-08-05T13:41:09.099Z</time>
      </trkpt>
      <trkpt lat="46.97411" lon="8.76571">
        <ele>622</ele>
        <time>2021-08-05T13:41:10.099Z</time>
      </trkpt>
      <trkpt lat="46.9741" lon="8.76572">
        <ele>622</ele>
        <time>2021-08-05T13:41:11.099Z</time>
      </trkpt>
      <trkpt lat="46.9741" lon="8.76573">
        <ele>622</ele>
        <time>2021-08-05T13:41:12.099Z</time>
      </trkpt>
      <trkpt lat="46.97409" lon="8.76575">
        <ele>622</ele>
        <time>2021-08-05T13:41:13.099Z</time>
      </trkpt>
      <trkpt lat="46.97409" lon="8.76576">
        <ele>623</ele>
        <time>2021-08-05T13:41:14.099Z</time>
      </trkpt>
      <trkpt lat="46.97408" lon="8.76577">
        <ele>623</ele>
        <time>2021-08-05T13:41:15.099Z</time>
      </trkpt>
      <trkpt lat="46.97408" lon="8.76578">
        <ele>624</ele>
        <time>2021-08-05T13:41:16.100Z</time>
      </trkpt>
      <trkpt lat="46.97408" lon="8.76579">
        <ele>624</ele>
        <time>2021-08-05T13:41:17.100Z</time>
      </trkpt>
      <trkpt lat="46.97407" lon="8.7658">
        <ele>625</ele>
        <time>2021-08-05T13:41:18.100Z</time>
      </trkpt>
      <trkpt lat="46.97407" lon="8.76581">
        <ele>625</ele>
        <time>2021-08-05T13:41:19.100Z</time>
      </trkpt>
      <trkpt lat="46.97407" lon="8.76582">
        <ele>626</ele>
        <time>2021-08-05T13:41:20.099Z</time>
      </trkpt>
      <trkpt lat="46.97407" lon="8.76583">
        <ele>626</ele>
        <time>2021-08-05T13:41:21.099Z</time>
      </trkpt>
      <trkpt lat="46.97406" lon="8.76584">
        <ele>626</ele>
        <time>2021-08-05T13:41:22.099Z</time>
      </trkpt>
      <trkpt lat="46.97406" lon="8.76585">
        <ele>626</ele>
        <time>2021-08-05T13:41:23.099Z</time>
      </trkpt>
      <trkpt lat="46.97405" lon="8.76586">
        <ele>626</ele>
        <time>2021-08-05T13:41:24.099Z</time>
      </trkpt>
      <trkpt lat="46.97405" lon="8.76587">
        <ele>626</ele>
        <time>2021-08-05T13:41:25.099Z</time>
      </trkpt>
      <trkpt lat="46.97405" lon="8.76589">
        <ele>625</ele>
        <time>2021-08-05T13:41:26.099Z</time>
      </trkpt>
      <trkpt lat="46.97404" lon="8.76591">
        <ele>625</ele>
        <time>2021-08-05T13:41:27.099Z</time>
      </trkpt>
      <trkpt lat="46.97403" lon="8.76592">
        <ele>625</ele>
        <time>2021-08-05T13:41:28.099Z</time>
      </trkpt>
      <trkpt lat="46.97403" lon="8.76594">
        <ele>625</ele>
        <time>2021-08-05T13:41:29.099Z</time>
      </trkpt>
      <trkpt lat="46.97403" lon="8.76596">
        <ele>625</ele>
        <time>2021-08-05T13:41:30.099Z</time>
      </trkpt>
      <trkpt lat="46.97403" lon="8.76597">
        <ele>625</ele>
        <time>2021-08-05T13:41:31.100Z</time>
      </trkpt>
      <trkpt lat="46.97402" lon="8.76599">
        <ele>626</ele>
        <time>2021-08-05T13:41:32.099Z</time>
      </trkpt>
      <trkpt lat="46.97401" lon="8.766">
        <ele>625</ele>
        <time>2021-08-05T13:41:33.099Z</time>
      </trkpt>
      <trkpt lat="46.974" lon="8.76601">
        <ele>625</ele>
        <time>2021-08-05T13:41:34.099Z</time>
      </trkpt>
      <trkpt lat="46.974" lon="8.76601">
        <ele>625</ele>
        <time>2021-08-05T13:41:35.099Z</time>
      </trkpt>
      <trkpt lat="46.974" lon="8.76603">
        <ele>625</ele>
        <time>2021-08-05T13:41:36.099Z</time>
      </trkpt>
      <trkpt lat="46.97399" lon="8.76605">
        <ele>626</ele>
        <time>2021-08-05T13:41:37.099Z</time>
      </trkpt>
      <trkpt lat="46.97399" lon="8.76606">
        <ele>626</ele>
        <time>2021-08-05T13:41:38.099Z</time>
      </trkpt>
      <trkpt lat="46.97399" lon="8.76607">
        <ele>626</ele>
        <time>2021-08-05T13:41:39.099Z</time>
      </trkpt>
      <trkpt lat="46.97398" lon="8.76609">
        <ele>626</ele>
        <time>2021-08-05T13:41:40.099Z</time>
      </trkpt>
      <trkpt lat="46.97398" lon="8.7661">
        <ele>627</ele>
        <time>2021-08-05T13:41:41.100Z</time>
      </trkpt>
      <trkpt lat="46.97397" lon="8.76611">
        <ele>627</ele>
        <time>2021-08-05T13:41:42.100Z</time>
      </trkpt>
      <trkpt lat="46.97397" lon="8.76612">
        <ele>628</ele>
        <time>2021-08-05T13:41:43.100Z</time>
      </trkpt>
      <trkpt lat="46.97397" lon="8.76614">
        <ele>628</ele>
        <time>2021-08-05T13:41:44.100Z</time>
      </trkpt>
      <trkpt lat="46.97397" lon="8.76615">
        <ele>628</ele>
        <time>2021-08-05T13:41:45.100Z</time>
      </trkpt>
      <trkpt lat="46.97398" lon="8.76616">
        <ele>628</ele>
        <time>2021-08-05T13:41:46.100Z</time>
      </trkpt>
      <trkpt lat="46.97397" lon="8.76617">
        <ele>629</ele>
        <time>2021-08-05T13:41:47.100Z</time>
      </trkpt>
      <trkpt lat="46.97397" lon="8.76618">
        <ele>628</ele>
        <time>2021-08-05T13:41:48.099Z</time>
      </trkpt>
      <trkpt lat="46.97397" lon="8.7662">
        <ele>628</ele>
        <time>2021-08-05T13:41:49.099Z</time>
      </trkpt>
      <trkpt lat="46.97397" lon="8.76622">
        <ele>627</ele>
        <time>2021-08-05T13:41:50.099Z</time>
      </trkpt>
      <trkpt lat="46.97396" lon="8.76624">
        <ele>627</ele>
        <time>2021-08-05T13:41:51.100Z</time>
      </trkpt>
      <trkpt lat="46.97396" lon="8.76625">
        <ele>627</ele>
        <time>2021-08-05T13:41:52.099Z</time>
      </trkpt>
      <trkpt lat="46.97395" lon="8.76626">
        <ele>627</ele>
        <time>2021-08-05T13:41:53.100Z</time>
      </trkpt>
      <trkpt lat="46.97395" lon="8.76627">
        <ele>628</ele>
        <time>2021-08-05T13:41:54.100Z</time>
      </trkpt>
      <trkpt lat="46.97395" lon="8.76627">
        <ele>628</ele>
        <time>2021-08-05T13:41:55.099Z</time>
      </trkpt>
      <trkpt lat="46.97394" lon="8.76629">
        <ele>628</ele>
        <time>2021-08-05T13:41:56.099Z</time>
      </trkpt>
      <trkpt lat="46.97394" lon="8.7663">
        <ele>627</ele>
        <time>2021-08-05T13:41:57.099Z</time>
      </trkpt>
      <trkpt lat="46.97394" lon="8.76632">
        <ele>627</ele>
        <time>2021-08-05T13:41:58.100Z</time>
      </trkpt>
      <trkpt lat="46.97393" lon="8.76633">
        <ele>627</ele>
        <time>2021-08-05T13:41:59.099Z</time>
      </trkpt>
      <trkpt lat="46.97393" lon="8.76635">
        <ele>627</ele>
        <time>2021-08-05T13:42:00.099Z</time>
      </trkpt>
      <trkpt lat="46.97393" lon="8.76636">
        <ele>628</ele>
        <time>2021-08-05T13:42:01.100Z</time>
      </trkpt>
      <trkpt lat="46.97393" lon="8.76636">
        <ele>628</ele>
        <time>2021-08-05T13:42:02.099Z</time>
      </trkpt>
      <trkpt lat="46.97392" lon="8.76637">
        <ele>628</ele>
        <time>2021-08-05T13:42:03.099Z</time>
      </trkpt>
      <trkpt lat="46.97392" lon="8.76638">
        <ele>628</ele>
        <time>2021-08-05T13:42:04.099Z</time>
      </trkpt>
      <trkpt lat="46.97391" lon="8.7664">
        <ele>629</ele>
        <time>2021-08-05T13:42:05.099Z</time>
      </trkpt>
      <trkpt lat="46.97391" lon="8.76641">
        <ele>629</ele>
        <time>2021-08-05T13:42:06.099Z</time>
      </trkpt>
      <trkpt lat="46.97391" lon="8.76642">
        <ele>629</ele>
        <time>2021-08-05T13:42:07.100Z</time>
      </trkpt>
      <trkpt lat="46.9739" lon="8.76644">
        <ele>629</ele>
        <time>2021-08-05T13:42:08.099Z</time>
      </trkpt>
      <trkpt lat="46.97389" lon="8.76646">
        <ele>629</ele>
        <time>2021-08-05T13:42:09.100Z</time>
      </trkpt>
      <trkpt lat="46.97389" lon="8.76647">
        <ele>629</ele>
        <time>2021-08-05T13:42:10.099Z</time>
      </trkpt>
      <trkpt lat="46.97388" lon="8.76648">
        <ele>629</ele>
        <time>2021-08-05T13:42:11.099Z</time>
      </trkpt>
      <trkpt lat="46.97388" lon="8.76649">
        <ele>628</ele>
        <time>2021-08-05T13:42:12.099Z</time>
      </trkpt>
      <trkpt lat="46.97387" lon="8.76651">
        <ele>628</ele>
        <time>2021-08-05T13:42:13.100Z</time>
      </trkpt>
      <trkpt lat="46.97387" lon="8.76652">
        <ele>628</ele>
        <time>2021-08-05T13:42:14.099Z</time>
      </trkpt>
      <trkpt lat="46.97386" lon="8.76653">
        <ele>627</ele>
        <time>2021-08-05T13:42:15.099Z</time>
      </trkpt>
      <trkpt lat="46.97386" lon="8.76655">
        <ele>627</ele>
        <time>2021-08-05T13:42:16.099Z</time>
      </trkpt>
      <trkpt lat="46.97386" lon="8.76656">
        <ele>627</ele>
        <time>2021-08-05T13:42:17.099Z</time>
      </trkpt>
      <trkpt lat="46.97385" lon="8.76657">
        <ele>626</ele>
        <time>2021-08-05T13:42:18.100Z</time>
      </trkpt>
      <trkpt lat="46.97384" lon="8.76659">
        <ele>626</ele>
        <time>2021-08-05T13:42:19.099Z</time>
      </trkpt>
      <trkpt lat="46.97383" lon="8.7666">
        <ele>627</ele>
        <time>2021-08-05T13:42:20.099Z</time>
      </trkpt>
      <trkpt lat="46.97383" lon="8.76661">
        <ele>627</ele>
        <time>2021-08-05T13:42:21.100Z</time>
      </trkpt>
      <trkpt lat="46.97382" lon="8.76663">
        <ele>627</ele>
        <time>2021-08-05T13:42:22.100Z</time>
      </trkpt>
      <trkpt lat="46.97381" lon="8.76664">
        <ele>627</ele>
        <time>2021-08-05T13:42:23.100Z</time>
      </trkpt>
      <trkpt lat="46.97381" lon="8.76665">
        <ele>627</ele>
        <time>2021-08-05T13:42:24.099Z</time>
      </trkpt>
      <trkpt lat="46.97381" lon="8.76667">
        <ele>628</ele>
        <time>2021-08-05T13:42:25.099Z</time>
      </trkpt>
      <trkpt lat="46.9738" lon="8.76668">
        <ele>628</ele>
        <time>2021-08-05T13:42:26.099Z</time>
      </trkpt>
      <trkpt lat="46.9738" lon="8.7667">
        <ele>628</ele>
        <time>2021-08-05T13:42:27.100Z</time>
      </trkpt>
      <trkpt lat="46.97379" lon="8.76671">
        <ele>628</ele>
        <time>2021-08-05T13:42:28.100Z</time>
      </trkpt>
      <trkpt lat="46.97379" lon="8.76672">
        <ele>628</ele>
        <time>2021-08-05T13:42:29.100Z</time>
      </trkpt>
      <trkpt lat="46.97378" lon="8.76674">
        <ele>627</ele>
        <time>2021-08-05T13:42:30.099Z</time>
      </trkpt>
      <trkpt lat="46.97377" lon="8.76675">
        <ele>627</ele>
        <time>2021-08-05T13:42:31.099Z</time>
      </trkpt>
      <trkpt lat="46.97377" lon="8.76677">
        <ele>628</ele>
        <time>2021-08-05T13:42:32.100Z</time>
      </trkpt>
      <trkpt lat="46.97377" lon="8.76679">
        <ele>628</ele>
        <time>2021-08-05T13:42:33.099Z</time>
      </trkpt>
      <trkpt lat="46.97376" lon="8.7668">
        <ele>628</ele>
        <time>2021-08-05T13:42:34.099Z</time>
      </trkpt>
      <trkpt lat="46.97376" lon="8.76681">
        <ele>628</ele>
        <time>2021-08-05T13:42:35.099Z</time>
      </trkpt>
      <trkpt lat="46.97376" lon="8.76683">
        <ele>628</ele>
        <time>2021-08-05T13:42:36.100Z</time>
      </trkpt>
      <trkpt lat="46.97375" lon="8.76684">
        <ele>628</ele>
        <time>2021-08-05T13:42:37.099Z</time>
      </trkpt>
      <trkpt lat="46.97375" lon="8.76685">
        <ele>627</ele>
        <time>2021-08-05T13:42:38.100Z</time>
      </trkpt>
      <trkpt lat="46.97374" lon="8.76687">
        <ele>627</ele>
        <time>2021-08-05T13:42:39.099Z</time>
      </trkpt>
      <trkpt lat="46.97374" lon="8.76688">
        <ele>626</ele>
        <time>2021-08-05T13:42:40.100Z</time>
      </trkpt>
      <trkpt lat="46.97373" lon="8.76689">
        <ele>626</ele>
        <time>2021-08-05T13:42:41.100Z</time>
      </trkpt>
      <trkpt lat="46.97372" lon="8.7669">
        <ele>626</ele>
        <time>2021-08-05T13:42:42.100Z</time>
      </trkpt>
      <trkpt lat="46.97371" lon="8.76691">
        <ele>626</ele>
        <time>2021-08-05T13:42:43.099Z</time>
      </trkpt>
      <trkpt lat="46.97371" lon="8.76692">
        <ele>626</ele>
        <time>2021-08-05T13:42:44.099Z</time>
      </trkpt>
      <trkpt lat="46.9737" lon="8.76693">
        <ele>627</ele>
        <time>2021-08-05T13:42:45.099Z</time>
      </trkpt>
      <trkpt lat="46.9737" lon="8.76695">
        <ele>627</ele>
        <time>2021-08-05T13:42:46.099Z</time>
      </trkpt>
      <trkpt lat="46.97369" lon="8.76697">
        <ele>627</ele>
        <time>2021-08-05T13:42:47.099Z</time>
      </trkpt>
      <trkpt lat="46.97369" lon="8.76698">
        <ele>627</ele>
        <time>2021-08-05T13:42:48.100Z</time>
      </trkpt>
      <trkpt lat="46.97369" lon="8.767">
        <ele>627</ele>
        <time>2021-08-05T13:42:49.099Z</time>
      </trkpt>
      <trkpt lat="46.97369" lon="8.76702">
        <ele>627</ele>
        <time>2021-08-05T13:42:50.099Z</time>
      </trkpt>
      <trkpt lat="46.97368" lon="8.76703">
        <ele>627</ele>
        <time>2021-08-05T13:42:51.099Z</time>
      </trkpt>
      <trkpt lat="46.97367" lon="8.76704">
        <ele>628</ele>
        <time>2021-08-05T13:42:52.100Z</time>
      </trkpt>
      <trkpt lat="46.97366" lon="8.76705">
        <ele>628</ele>
        <time>2021-08-05T13:42:53.099Z</time>
      </trkpt>
      <trkpt lat="46.97366" lon="8.76706">
        <ele>628</ele>
        <time>2021-08-05T13:42:54.099Z</time>
      </trkpt>
      <trkpt lat="46.97366" lon="8.76708">
        <ele>628</ele>
        <time>2021-08-05T13:42:55.099Z</time>
      </trkpt>
      <trkpt lat="46.97366" lon="8.76709">
        <ele>628</ele>
        <time>2021-08-05T13:42:56.100Z</time>
      </trkpt>
      <trkpt lat="46.97366" lon="8.7671">
        <ele>628</ele>
        <time>2021-08-05T13:42:57.099Z</time>
      </trkpt>
      <trkpt lat="46.97366" lon="8.76712">
        <ele>627</ele>
        <time>2021-08-05T13:42:58.099Z</time>
      </trkpt>
      <trkpt lat="46.97365" lon="8.76713">
        <ele>627</ele>
        <time>2021-08-05T13:42:59.100Z</time>
      </trkpt>
      <trkpt lat="46.97365" lon="8.76715">
        <ele>626</ele>
        <time>2021-08-05T13:43:00.100Z</time>
      </trkpt>
      <trkpt lat="46.97365" lon="8.76716">
        <ele>626</ele>
        <time>2021-08-05T13:43:01.100Z</time>
      </trkpt>
      <trkpt lat="46.97364" lon="8.76717">
        <ele>626</ele>
        <time>2021-08-05T13:43:02.099Z</time>
      </trkpt>
      <trkpt lat="46.97363" lon="8.76719">
        <ele>627</ele>
        <time>2021-08-05T13:43:03.100Z</time>
      </trkpt>
      <trkpt lat="46.97363" lon="8.7672">
        <ele>627</ele>
        <time>2021-08-05T13:43:04.100Z</time>
      </trkpt>
      <trkpt lat="46.97362" lon="8.76721">
        <ele>628</ele>
        <time>2021-08-05T13:43:05.099Z</time>
      </trkpt>
      <trkpt lat="46.97362" lon="8.76722">
        <ele>628</ele>
        <time>2021-08-05T13:43:06.099Z</time>
      </trkpt>
      <trkpt lat="46.97362" lon="8.76724">
        <ele>629</ele>
        <time>2021-08-05T13:43:07.099Z</time>
      </trkpt>
      <trkpt lat="46.97361" lon="8.76724">
        <ele>629</ele>
        <time>2021-08-05T13:43:08.099Z</time>
      </trkpt>
      <trkpt lat="46.9736" lon="8.76726">
        <ele>630</ele>
        <time>2021-08-05T13:43:09.099Z</time>
      </trkpt>
      <trkpt lat="46.9736" lon="8.76727">
        <ele>630</ele>
        <time>2021-08-05T13:43:10.099Z</time>
      </trkpt>
      <trkpt lat="46.97359" lon="8.76728">
        <ele>631</ele>
        <time>2021-08-05T13:43:11.099Z</time>
      </trkpt>
      <trkpt lat="46.97358" lon="8.76729">
        <ele>631</ele>
        <time>2021-08-05T13:43:12.100Z</time>
      </trkpt>
      <trkpt lat="46.97358" lon="8.7673">
        <ele>631</ele>
        <time>2021-08-05T13:43:13.100Z</time>
      </trkpt>
      <trkpt lat="46.97357" lon="8.76732">
        <ele>631</ele>
        <time>2021-08-05T13:43:14.099Z</time>
      </trkpt>
      <trkpt lat="46.97357" lon="8.76733">
        <ele>631</ele>
        <time>2021-08-05T13:43:15.100Z</time>
      </trkpt>
      <trkpt lat="46.97356" lon="8.76735">
        <ele>631</ele>
        <time>2021-08-05T13:43:16.099Z</time>
      </trkpt>
      <trkpt lat="46.97356" lon="8.76736">
        <ele>631</ele>
        <time>2021-08-05T13:43:17.099Z</time>
      </trkpt>
      <trkpt lat="46.97355" lon="8.76738">
        <ele>630</ele>
        <time>2021-08-05T13:43:18.099Z</time>
      </trkpt>
      <trkpt lat="46.97355" lon="8.76739">
        <ele>629</ele>
        <time>2021-08-05T13:43:19.099Z</time>
      </trkpt>
      <trkpt lat="46.97354" lon="8.7674">
        <ele>629</ele>
        <time>2021-08-05T13:43:20.099Z</time>
      </trkpt>
      <trkpt lat="46.97354" lon="8.76741">
        <ele>628</ele>
        <time>2021-08-05T13:43:21.099Z</time>
      </trkpt>
      <trkpt lat="46.97354" lon="8.76743">
        <ele>628</ele>
        <time>2021-08-05T13:43:22.099Z</time>
      </trkpt>
      <trkpt lat="46.97354" lon="8.76745">
        <ele>627</ele>
        <time>2021-08-05T13:43:23.100Z</time>
      </trkpt>
      <trkpt lat="46.97354" lon="8.76747">
        <ele>627</ele>
        <time>2021-08-05T13:43:24.100Z</time>
      </trkpt>
      <trkpt lat="46.97353" lon="8.76748">
        <ele>626</ele>
        <time>2021-08-05T13:43:25.099Z</time>
      </trkpt>
      <trkpt lat="46.97352" lon="8.76749">
        <ele>626</ele>
        <time>2021-08-05T13:43:26.099Z</time>
      </trkpt>
      <trkpt lat="46.97352" lon="8.7675">
        <ele>626</ele>
        <time>2021-08-05T13:43:27.100Z</time>
      </trkpt>
      <trkpt lat="46.97351" lon="8.76751">
        <ele>626</ele>
        <time>2021-08-05T13:43:28.099Z</time>
      </trkpt>
      <trkpt lat="46.9735" lon="8.76753">
        <ele>626</ele>
        <time>2021-08-05T13:43:29.099Z</time>
      </trkpt>
      <trkpt lat="46.97349" lon="8.76755">
        <ele>627</ele>
        <time>2021-08-05T13:43:30.099Z</time>
      </trkpt>
      <trkpt lat="46.97349" lon="8.76757">
        <ele>627</ele>
        <time>2021-08-05T13:43:31.099Z</time>
      </trkpt>
      <trkpt lat="46.97349" lon="8.76759">
        <ele>627</ele>
        <time>2021-08-05T13:43:32.100Z</time>
      </trkpt>
      <trkpt lat="46.97349" lon="8.7676">
        <ele>627</ele>
        <time>2021-08-05T13:43:33.099Z</time>
      </trkpt>
      <trkpt lat="46.97348" lon="8.76762">
        <ele>627</ele>
        <time>2021-08-05T13:43:34.099Z</time>
      </trkpt>
      <trkpt lat="46.97347" lon="8.76763">
        <ele>626</ele>
        <time>2021-08-05T13:43:35.099Z</time>
      </trkpt>
      <trkpt lat="46.97347" lon="8.76764">
        <ele>626</ele>
        <time>2021-08-05T13:43:36.099Z</time>
      </trkpt>
      <trkpt lat="46.97346" lon="8.76765">
        <ele>626</ele>
        <time>2021-08-05T13:43:37.099Z</time>
      </trkpt>
      <trkpt lat="46.97345" lon="8.76766">
        <ele>626</ele>
        <time>2021-08-05T13:43:38.100Z</time>
      </trkpt>
      <trkpt lat="46.97345" lon="8.76768">
        <ele>626</ele>
        <time>2021-08-05T13:43:39.099Z</time>
      </trkpt>
      <trkpt lat="46.97344" lon="8.76769">
        <ele>626</ele>
        <time>2021-08-05T13:43:40.099Z</time>
      </trkpt>
      <trkpt lat="46.97343" lon="8.76771">
        <ele>626</ele>
        <time>2021-08-05T13:43:41.100Z</time>
      </trkpt>
      <trkpt lat="46.97342" lon="8.76772">
        <ele>626</ele>
        <time>2021-08-05T13:43:42.099Z</time>
      </trkpt>
      <trkpt lat="46.97342" lon="8.76774">
        <ele>626</ele>
        <time>2021-08-05T13:43:43.099Z</time>
      </trkpt>
      <trkpt lat="46.97341" lon="8.76775">
        <ele>626</ele>
        <time>2021-08-05T13:43:44.099Z</time>
      </trkpt>
      <trkpt lat="46.9734" lon="8.76776">
        <ele>626</ele>
        <time>2021-08-05T13:43:45.099Z</time>
      </trkpt>
      <trkpt lat="46.97339" lon="8.76777">
        <ele>627</ele>
        <time>2021-08-05T13:43:46.099Z</time>
      </trkpt>
      <trkpt lat="46.97339" lon="8.76779">
        <ele>627</ele>
        <time>2021-08-05T13:43:47.099Z</time>
      </trkpt>
      <trkpt lat="46.97338" lon="8.7678">
        <ele>628</ele>
        <time>2021-08-05T13:43:48.099Z</time>
      </trkpt>
      <trkpt lat="46.97338" lon="8.76781">
        <ele>628</ele>
        <time>2021-08-05T13:43:49.100Z</time>
      </trkpt>
      <trkpt lat="46.97337" lon="8.76783">
        <ele>628</ele>
        <time>2021-08-05T13:43:50.099Z</time>
      </trkpt>
      <trkpt lat="46.97336" lon="8.76784">
        <ele>628</ele>
        <time>2021-08-05T13:43:51.099Z</time>
      </trkpt>
      <trkpt lat="46.97336" lon="8.76784">
        <ele>628</ele>
        <time>2021-08-05T13:43:52.099Z</time>
      </trkpt>
      <trkpt lat="46.97335" lon="8.76786">
        <ele>628</ele>
        <time>2021-08-05T13:43:53.100Z</time>
      </trkpt>
      <trkpt lat="46.97335" lon="8.76787">
        <ele>628</ele>
        <time>2021-08-05T13:43:54.099Z</time>
      </trkpt>
      <trkpt lat="46.97335" lon="8.76789">
        <ele>629</ele>
        <time>2021-08-05T13:43:55.100Z</time>
      </trkpt>
      <trkpt lat="46.97335" lon="8.76791">
        <ele>629</ele>
        <time>2021-08-05T13:43:56.099Z</time>
      </trkpt>
      <trkpt lat="46.97334" lon="8.76792">
        <ele>629</ele>
        <time>2021-08-05T13:43:57.100Z</time>
      </trkpt>
      <trkpt lat="46.97334" lon="8.76794">
        <ele>628</ele>
        <time>2021-08-05T13:43:58.100Z</time>
      </trkpt>
      <trkpt lat="46.97334" lon="8.76796">
        <ele>628</ele>
        <time>2021-08-05T13:43:59.099Z</time>
      </trkpt>
      <trkpt lat="46.97333" lon="8.76797">
        <ele>629</ele>
        <time>2021-08-05T13:44:00.099Z</time>
      </trkpt>
      <trkpt lat="46.97332" lon="8.76798">
        <ele>629</ele>
        <time>2021-08-05T13:44:01.099Z</time>
      </trkpt>
      <trkpt lat="46.97331" lon="8.76799">
        <ele>628</ele>
        <time>2021-08-05T13:44:02.099Z</time>
      </trkpt>
      <trkpt lat="46.9733" lon="8.76801">
        <ele>629</ele>
        <time>2021-08-05T13:44:03.100Z</time>
      </trkpt>
      <trkpt lat="46.97329" lon="8.76803">
        <ele>629</ele>
        <time>2021-08-05T13:44:04.099Z</time>
      </trkpt>
      <trkpt lat="46.97328" lon="8.76804">
        <ele>629</ele>
        <time>2021-08-05T13:44:05.099Z</time>
      </trkpt>
      <trkpt lat="46.97328" lon="8.76806">
        <ele>628</ele>
        <time>2021-08-05T13:44:06.100Z</time>
      </trkpt>
      <trkpt lat="46.97327" lon="8.76807">
        <ele>628</ele>
        <time>2021-08-05T13:44:07.099Z</time>
      </trkpt>
      <trkpt lat="46.97326" lon="8.76807">
        <ele>628</ele>
        <time>2021-08-05T13:44:08.100Z</time>
      </trkpt>
      <trkpt lat="46.97325" lon="8.76809">
        <ele>628</ele>
        <time>2021-08-05T13:44:09.099Z</time>
      </trkpt>
      <trkpt lat="46.97324" lon="8.7681">
        <ele>628</ele>
        <time>2021-08-05T13:44:10.099Z</time>
      </trkpt>
      <trkpt lat="46.97324" lon="8.76812">
        <ele>628</ele>
        <time>2021-08-05T13:44:11.100Z</time>
      </trkpt>
      <trkpt lat="46.97323" lon="8.76813">
        <ele>628</ele>
        <time>2021-08-05T13:44:12.100Z</time>
      </trkpt>
      <trkpt lat="46.97322" lon="8.76815">
        <ele>629</ele>
        <time>2021-08-05T13:44:13.099Z</time>
      </trkpt>
      <trkpt lat="46.97322" lon="8.76816">
        <ele>629</ele>
        <time>2021-08-05T13:44:14.100Z</time>
      </trkpt>
      <trkpt lat="46.97321" lon="8.76818">
        <ele>630</ele>
        <time>2021-08-05T13:44:15.100Z</time>
      </trkpt>
      <trkpt lat="46.9732" lon="8.76819">
        <ele>630</ele>
        <time>2021-08-05T13:44:16.099Z</time>
      </trkpt>
      <trkpt lat="46.9732" lon="8.7682">
        <ele>631</ele>
        <time>2021-08-05T13:44:17.099Z</time>
      </trkpt>
      <trkpt lat="46.97319" lon="8.76822">
        <ele>631</ele>
        <time>2021-08-05T13:44:18.099Z</time>
      </trkpt>
      <trkpt lat="46.97319" lon="8.76823">
        <ele>631</ele>
        <time>2021-08-05T13:44:19.099Z</time>
      </trkpt>
      <trkpt lat="46.97318" lon="8.76825">
        <ele>632</ele>
        <time>2021-08-05T13:44:20.099Z</time>
      </trkpt>
      <trkpt lat="46.97317" lon="8.76826">
        <ele>632</ele>
        <time>2021-08-05T13:44:25.107Z</time>
      </trkpt>
      <trkpt lat="46.97317" lon="8.76827">
        <ele>632</ele>
        <time>2021-08-05T13:44:26.107Z</time>
      </trkpt>
      <trkpt lat="46.97316" lon="8.76828">
        <ele>632</ele>
        <time>2021-08-05T13:44:27.108Z</time>
      </trkpt>
      <trkpt lat="46.97315" lon="8.76829">
        <ele>632</ele>
        <time>2021-08-05T13:44:28.108Z</time>
      </trkpt>
      <trkpt lat="46.97315" lon="8.7683">
        <ele>632</ele>
        <time>2021-08-05T13:44:29.108Z</time>
      </trkpt>
      <trkpt lat="46.97314" lon="8.76831">
        <ele>632</ele>
        <time>2021-08-05T13:44:30.108Z</time>
      </trkpt>
      <trkpt lat="46.97313" lon="8.76833">
        <ele>632</ele>
        <time>2021-08-05T13:44:31.107Z</time>
      </trkpt>
      <trkpt lat="46.97312" lon="8.76834">
        <ele>632</ele>
        <time>2021-08-05T13:44:32.107Z</time>
      </trkpt>
      <trkpt lat="46.97311" lon="8.76835">
        <ele>633</ele>
        <time>2021-08-05T13:44:33.107Z</time>
      </trkpt>
      <trkpt lat="46.97311" lon="8.76836">
        <ele>633</ele>
        <time>2021-08-05T13:44:34.107Z</time>
      </trkpt>
      <trkpt lat="46.9731" lon="8.76838">
        <ele>634</ele>
        <time>2021-08-05T13:44:35.107Z</time>
      </trkpt>
      <trkpt lat="46.9731" lon="8.76839">
        <ele>634</ele>
        <time>2021-08-05T13:44:36.108Z</time>
      </trkpt>
      <trkpt lat="46.97309" lon="8.7684">
        <ele>634</ele>
        <time>2021-08-05T13:44:37.107Z</time>
      </trkpt>
      <trkpt lat="46.97309" lon="8.7684">
        <ele>634</ele>
        <time>2021-08-05T13:44:38.108Z</time>
      </trkpt>
      <trkpt lat="46.97308" lon="8.76841">
        <ele>634</ele>
        <time>2021-08-05T13:44:39.108Z</time>
      </trkpt>
      <trkpt lat="46.97308" lon="8.76842">
        <ele>634</ele>
        <time>2021-08-05T13:44:40.108Z</time>
      </trkpt>
      <trkpt lat="46.97308" lon="8.76845">
        <ele>633</ele>
        <time>2021-08-05T13:44:41.108Z</time>
      </trkpt>
      <trkpt lat="46.97308" lon="8.76849">
        <ele>632</ele>
        <time>2021-08-05T13:44:42.108Z</time>
      </trkpt>
      <trkpt lat="46.97307" lon="8.7685">
        <ele>631</ele>
        <time>2021-08-05T13:44:43.107Z</time>
      </trkpt>
      <trkpt lat="46.97307" lon="8.7685">
        <ele>631</ele>
        <time>2021-08-05T13:44:44.107Z</time>
      </trkpt>
      <trkpt lat="46.97307" lon="8.76851">
        <ele>630</ele>
        <time>2021-08-05T13:44:45.107Z</time>
      </trkpt>
      <trkpt lat="46.97307" lon="8.76857">
        <ele>625</ele>
        <time>2021-08-05T13:44:46.107Z</time>
      </trkpt>
      <trkpt lat="46.97307" lon="8.76859">
        <ele>624</ele>
        <time>2021-08-05T13:44:47.108Z</time>
      </trkpt>
      <trkpt lat="46.97308" lon="8.7686">
        <ele>623</ele>
        <time>2021-08-05T13:44:48.108Z</time>
      </trkpt>
      <trkpt lat="46.97308" lon="8.76861">
        <ele>622</ele>
        <time>2021-08-05T13:44:49.108Z</time>
      </trkpt>
      <trkpt lat="46.97308" lon="8.76862">
        <ele>621</ele>
        <time>2021-08-05T13:44:50.107Z</time>
      </trkpt>
      <trkpt lat="46.97308" lon="8.76863">
        <ele>620</ele>
        <time>2021-08-05T13:44:51.107Z</time>
      </trkpt>
      <trkpt lat="46.97308" lon="8.76863">
        <ele>620</ele>
        <time>2021-08-05T13:44:52.108Z</time>
      </trkpt>
      <trkpt lat="46.97308" lon="8.76863">
        <ele>619</ele>
        <time>2021-08-05T13:44:53.108Z</time>
      </trkpt>
      <trkpt lat="46.97308" lon="8.76863">
        <ele>618</ele>
        <time>2021-08-05T13:44:54.108Z</time>
      </trkpt>
      <trkpt lat="46.97309" lon="8.76864">
        <ele>617</ele>
        <time>2021-08-05T13:44:55.107Z</time>
      </trkpt>
      <trkpt lat="46.9731" lon="8.76864">
        <ele>617</ele>
        <time>2021-08-05T13:44:56.107Z</time>
      </trkpt>
      <trkpt lat="46.9731" lon="8.76864">
        <ele>617</ele>
        <time>2021-08-05T13:44:57.107Z</time>
      </trkpt>
      <trkpt lat="46.97311" lon="8.76864">
        <ele>618</ele>
        <time>2021-08-05T13:44:58.108Z</time>
      </trkpt>
      <trkpt lat="46.97311" lon="8.76864">
        <ele>618</ele>
        <time>2021-08-05T13:44:59.108Z</time>
      </trkpt>
      <trkpt lat="46.97312" lon="8.76864">
        <ele>619</ele>
        <time>2021-08-05T13:45:00.108Z</time>
      </trkpt>
      <trkpt lat="46.97314" lon="8.76864">
        <ele>619</ele>
        <time>2021-08-05T13:45:01.108Z</time>
      </trkpt>
      <trkpt lat="46.97315" lon="8.76865">
        <ele>620</ele>
        <time>2021-08-05T13:45:02.108Z</time>
      </trkpt>
      <trkpt lat="46.97316" lon="8.76866">
        <ele>621</ele>
        <time>2021-08-05T13:45:03.107Z</time>
      </trkpt>
      <trkpt lat="46.97316" lon="8.76865">
        <ele>622</ele>
        <time>2021-08-05T13:45:04.108Z</time>
      </trkpt>
      <trkpt lat="46.97317" lon="8.76865">
        <ele>623</ele>
        <time>2021-08-05T13:45:05.107Z</time>
      </trkpt>
      <trkpt lat="46.97319" lon="8.76866">
        <ele>623</ele>
        <time>2021-08-05T13:45:06.107Z</time>
      </trkpt>
      <trkpt lat="46.9732" lon="8.76866">
        <ele>624</ele>
        <time>2021-08-05T13:45:07.107Z</time>
      </trkpt>
      <trkpt lat="46.9732" lon="8.76866">
        <ele>624</ele>
        <time>2021-08-05T13:45:08.107Z</time>
      </trkpt>
      <trkpt lat="46.9732" lon="8.76866">
        <ele>625</ele>
        <time>2021-08-05T13:45:09.108Z</time>
      </trkpt>
      <trkpt lat="46.97321" lon="8.76865">
        <ele>625</ele>
        <time>2021-08-05T13:45:10.108Z</time>
      </trkpt>
      <trkpt lat="46.97321" lon="8.76866">
        <ele>625</ele>
        <time>2021-08-05T13:45:11.108Z</time>
      </trkpt>
      <trkpt lat="46.97322" lon="8.76866">
        <ele>625</ele>
        <time>2021-08-05T13:45:12.107Z</time>
      </trkpt>
      <trkpt lat="46.97323" lon="8.76867">
        <ele>625</ele>
        <time>2021-08-05T13:45:13.108Z</time>
      </trkpt>
      <trkpt lat="46.97324" lon="8.76867">
        <ele>625</ele>
        <time>2021-08-05T13:45:14.108Z</time>
      </trkpt>
      <trkpt lat="46.97325" lon="8.76868">
        <ele>625</ele>
        <time>2021-08-05T13:45:15.108Z</time>
      </trkpt>
      <trkpt lat="46.97325" lon="8.76868">
        <ele>624</ele>
        <time>2021-08-05T13:45:16.107Z</time>
      </trkpt>
      <trkpt lat="46.97326" lon="8.76869">
        <ele>624</ele>
        <time>2021-08-05T13:45:17.108Z</time>
      </trkpt>
      <trkpt lat="46.97326" lon="8.76869">
        <ele>624</ele>
        <time>2021-08-05T13:45:18.108Z</time>
      </trkpt>
      <trkpt lat="46.97327" lon="8.7687">
        <ele>624</ele>
        <time>2021-08-05T13:45:19.107Z</time>
      </trkpt>
      <trkpt lat="46.97328" lon="8.76872">
        <ele>624</ele>
        <time>2021-08-05T13:45:20.108Z</time>
      </trkpt>
      <trkpt lat="46.97328" lon="8.76872">
        <ele>623</ele>
        <time>2021-08-05T13:45:21.108Z</time>
      </trkpt>
      <trkpt lat="46.97328" lon="8.76872">
        <ele>623</ele>
        <time>2021-08-05T13:45:22.107Z</time>
      </trkpt>
      <trkpt lat="46.97329" lon="8.76873">
        <ele>624</ele>
        <time>2021-08-05T13:45:23.108Z</time>
      </trkpt>
      <trkpt lat="46.97329" lon="8.76873">
        <ele>624</ele>
        <time>2021-08-05T13:45:24.107Z</time>
      </trkpt>
      <trkpt lat="46.97328" lon="8.76874">
        <ele>624</ele>
        <time>2021-08-05T13:45:25.108Z</time>
      </trkpt>
      <trkpt lat="46.97328" lon="8.76874">
        <ele>624</ele>
        <time>2021-08-05T13:45:26.107Z</time>
      </trkpt>
      <trkpt lat="46.97327" lon="8.76876">
        <ele>624</ele>
        <time>2021-08-05T13:45:27.107Z</time>
      </trkpt>
      <trkpt lat="46.97327" lon="8.76878">
        <ele>624</ele>
        <time>2021-08-05T13:45:28.107Z</time>
      </trkpt>
      <trkpt lat="46.97327" lon="8.7688">
        <ele>624</ele>
        <time>2021-08-05T13:45:29.108Z</time>
      </trkpt>
      <trkpt lat="46.97326" lon="8.76881">
        <ele>623</ele>
        <time>2021-08-05T13:45:30.107Z</time>
      </trkpt>
      <trkpt lat="46.97326" lon="8.76883">
        <ele>623</ele>
        <time>2021-08-05T13:45:31.108Z</time>
      </trkpt>
      <trkpt lat="46.97325" lon="8.76883">
        <ele>622</ele>
        <time>2021-08-05T13:45:32.108Z</time>
      </trkpt>
      <trkpt lat="46.97325" lon="8.76884">
        <ele>622</ele>
        <time>2021-08-05T13:45:33.107Z</time>
      </trkpt>
      <trkpt lat="46.97325" lon="8.76885">
        <ele>622</ele>
        <time>2021-08-05T13:45:34.108Z</time>
      </trkpt>
      <trkpt lat="46.97325" lon="8.76884">
        <ele>622</ele>
        <time>2021-08-05T13:45:35.108Z</time>
      </trkpt>
      <trkpt lat="46.97324" lon="8.76885">
        <ele>622</ele>
        <time>2021-08-05T13:45:36.108Z</time>
      </trkpt>
      <trkpt lat="46.97324" lon="8.76885">
        <ele>622</ele>
        <time>2021-08-05T13:45:37.107Z</time>
      </trkpt>
      <trkpt lat="46.97323" lon="8.76886">
        <ele>621</ele>
        <time>2021-08-05T13:45:38.108Z</time>
      </trkpt>
      <trkpt lat="46.97323" lon="8.76887">
        <ele>621</ele>
        <time>2021-08-05T13:45:39.108Z</time>
      </trkpt>
      <trkpt lat="46.97322" lon="8.76889">
        <ele>621</ele>
        <time>2021-08-05T13:45:40.108Z</time>
      </trkpt>
      <trkpt lat="46.97321" lon="8.7689">
        <ele>621</ele>
        <time>2021-08-05T13:45:41.108Z</time>
      </trkpt>
      <trkpt lat="46.9732" lon="8.76891">
        <ele>621</ele>
        <time>2021-08-05T13:45:42.108Z</time>
      </trkpt>
      <trkpt lat="46.9732" lon="8.76893">
        <ele>621</ele>
        <time>2021-08-05T13:45:43.108Z</time>
      </trkpt>
      <trkpt lat="46.97319" lon="8.76894">
        <ele>621</ele>
        <time>2021-08-05T13:45:44.108Z</time>
      </trkpt>
      <trkpt lat="46.97319" lon="8.76896">
        <ele>621</ele>
        <time>2021-08-05T13:45:45.107Z</time>
      </trkpt>
      <trkpt lat="46.97319" lon="8.76897">
        <ele>621</ele>
        <time>2021-08-05T13:45:46.108Z</time>
      </trkpt>
      <trkpt lat="46.97318" lon="8.76899">
        <ele>620</ele>
        <time>2021-08-05T13:45:47.108Z</time>
      </trkpt>
      <trkpt lat="46.97318" lon="8.76901">
        <ele>620</ele>
        <time>2021-08-05T13:45:48.108Z</time>
      </trkpt>
      <trkpt lat="46.97317" lon="8.76902">
        <ele>620</ele>
        <time>2021-08-05T13:45:49.108Z</time>
      </trkpt>
      <trkpt lat="46.97317" lon="8.76904">
        <ele>620</ele>
        <time>2021-08-05T13:45:50.108Z</time>
      </trkpt>
      <trkpt lat="46.97316" lon="8.76906">
        <ele>620</ele>
        <time>2021-08-05T13:45:51.108Z</time>
      </trkpt>
      <trkpt lat="46.97316" lon="8.76908">
        <ele>620</ele>
        <time>2021-08-05T13:45:52.108Z</time>
      </trkpt>
      <trkpt lat="46.97315" lon="8.7691">
        <ele>620</ele>
        <time>2021-08-05T13:45:53.108Z</time>
      </trkpt>
      <trkpt lat="46.97315" lon="8.76911">
        <ele>620</ele>
        <time>2021-08-05T13:45:54.108Z</time>
      </trkpt>
      <trkpt lat="46.97315" lon="8.76913">
        <ele>620</ele>
        <time>2021-08-05T13:45:55.108Z</time>
      </trkpt>
      <trkpt lat="46.97314" lon="8.76914">
        <ele>620</ele>
        <time>2021-08-05T13:45:56.108Z</time>
      </trkpt>
      <trkpt lat="46.97313" lon="8.76916">
        <ele>620</ele>
        <time>2021-08-05T13:45:57.107Z</time>
      </trkpt>
      <trkpt lat="46.97313" lon="8.76917">
        <ele>620</ele>
        <time>2021-08-05T13:45:58.107Z</time>
      </trkpt>
      <trkpt lat="46.97312" lon="8.76919">
        <ele>620</ele>
        <time>2021-08-05T13:45:59.108Z</time>
      </trkpt>
      <trkpt lat="46.97311" lon="8.7692">
        <ele>620</ele>
        <time>2021-08-05T13:46:00.107Z</time>
      </trkpt>
      <trkpt lat="46.97311" lon="8.76922">
        <ele>620</ele>
        <time>2021-08-05T13:46:01.108Z</time>
      </trkpt>
      <trkpt lat="46.9731" lon="8.76923">
        <ele>620</ele>
        <time>2021-08-05T13:46:02.108Z</time>
      </trkpt>
      <trkpt lat="46.9731" lon="8.76924">
        <ele>620</ele>
        <time>2021-08-05T13:46:03.108Z</time>
      </trkpt>
      <trkpt lat="46.97309" lon="8.76925">
        <ele>621</ele>
        <time>2021-08-05T13:46:04.107Z</time>
      </trkpt>
      <trkpt lat="46.97308" lon="8.76926">
        <ele>621</ele>
        <time>2021-08-05T13:46:05.107Z</time>
      </trkpt>
      <trkpt lat="46.97308" lon="8.76928">
        <ele>622</ele>
        <time>2021-08-05T13:46:06.108Z</time>
      </trkpt>
      <trkpt lat="46.97307" lon="8.7693">
        <ele>623</ele>
        <time>2021-08-05T13:46:07.108Z</time>
      </trkpt>
      <trkpt lat="46.97307" lon="8.76931">
        <ele>624</ele>
        <time>2021-08-05T13:46:08.108Z</time>
      </trkpt>
      <trkpt lat="46.97306" lon="8.76933">
        <ele>625</ele>
        <time>2021-08-05T13:46:09.107Z</time>
      </trkpt>
      <trkpt lat="46.97305" lon="8.76934">
        <ele>626</ele>
        <time>2021-08-05T13:46:10.107Z</time>
      </trkpt>
      <trkpt lat="46.97305" lon="8.76936">
        <ele>626</ele>
        <time>2021-08-05T13:46:11.107Z</time>
      </trkpt>
      <trkpt lat="46.97305" lon="8.76937">
        <ele>627</ele>
        <time>2021-08-05T13:46:12.107Z</time>
      </trkpt>
      <trkpt lat="46.97304" lon="8.76938">
        <ele>627</ele>
        <time>2021-08-05T13:46:13.108Z</time>
      </trkpt>
      <trkpt lat="46.97304" lon="8.76939">
        <ele>628</ele>
        <time>2021-08-05T13:46:14.108Z</time>
      </trkpt>
      <trkpt lat="46.97304" lon="8.7694">
        <ele>628</ele>
        <time>2021-08-05T13:46:15.108Z</time>
      </trkpt>
      <trkpt lat="46.97304" lon="8.76941">
        <ele>628</ele>
        <time>2021-08-05T13:46:16.107Z</time>
      </trkpt>
      <trkpt lat="46.97304" lon="8.76942">
        <ele>628</ele>
        <time>2021-08-05T13:46:17.108Z</time>
      </trkpt>
      <trkpt lat="46.97303" lon="8.76944">
        <ele>628</ele>
        <time>2021-08-05T13:46:18.107Z</time>
      </trkpt>
      <trkpt lat="46.97303" lon="8.76945">
        <ele>628</ele>
        <time>2021-08-05T13:46:19.107Z</time>
      </trkpt>
      <trkpt lat="46.97303" lon="8.76946">
        <ele>628</ele>
        <time>2021-08-05T13:46:20.108Z</time>
      </trkpt>
      <trkpt lat="46.97302" lon="8.76948">
        <ele>628</ele>
        <time>2021-08-05T13:46:21.108Z</time>
      </trkpt>
      <trkpt lat="46.97302" lon="8.76949">
        <ele>629</ele>
        <time>2021-08-05T13:46:22.108Z</time>
      </trkpt>
      <trkpt lat="46.97301" lon="8.7695">
        <ele>629</ele>
        <time>2021-08-05T13:46:23.108Z</time>
      </trkpt>
      <trkpt lat="46.97301" lon="8.76952">
        <ele>629</ele>
        <time>2021-08-05T13:46:24.108Z</time>
      </trkpt>
      <trkpt lat="46.97301" lon="8.76954">
        <ele>629</ele>
        <time>2021-08-05T13:46:25.108Z</time>
      </trkpt>
      <trkpt lat="46.973" lon="8.76955">
        <ele>629</ele>
        <time>2021-08-05T13:46:26.107Z</time>
      </trkpt>
      <trkpt lat="46.973" lon="8.76957">
        <ele>630</ele>
        <time>2021-08-05T13:46:27.107Z</time>
      </trkpt>
      <trkpt lat="46.973" lon="8.76958">
        <ele>630</ele>
        <time>2021-08-05T13:46:28.107Z</time>
      </trkpt>
      <trkpt lat="46.97299" lon="8.7696">
        <ele>630</ele>
        <time>2021-08-05T13:46:29.108Z</time>
      </trkpt>
      <trkpt lat="46.97299" lon="8.76962">
        <ele>629</ele>
        <time>2021-08-05T13:46:30.108Z</time>
      </trkpt>
      <trkpt lat="46.97299" lon="8.76963">
        <ele>629</ele>
        <time>2021-08-05T13:46:31.108Z</time>
      </trkpt>
      <trkpt lat="46.97299" lon="8.76965">
        <ele>629</ele>
        <time>2021-08-05T13:46:32.108Z</time>
      </trkpt>
      <trkpt lat="46.97298" lon="8.76967">
        <ele>629</ele>
        <time>2021-08-05T13:46:33.107Z</time>
      </trkpt>
      <trkpt lat="46.97298" lon="8.76968">
        <ele>629</ele>
        <time>2021-08-05T13:46:34.107Z</time>
      </trkpt>
      <trkpt lat="46.97297" lon="8.7697">
        <ele>629</ele>
        <time>2021-08-05T13:46:35.107Z</time>
      </trkpt>
      <trkpt lat="46.97297" lon="8.76971">
        <ele>630</ele>
        <time>2021-08-05T13:46:36.108Z</time>
      </trkpt>
      <trkpt lat="46.97296" lon="8.76973">
        <ele>630</ele>
        <time>2021-08-05T13:46:37.107Z</time>
      </trkpt>
      <trkpt lat="46.97296" lon="8.76974">
        <ele>630</ele>
        <time>2021-08-05T13:46:38.107Z</time>
      </trkpt>
      <trkpt lat="46.97295" lon="8.76976">
        <ele>630</ele>
        <time>2021-08-05T13:46:39.107Z</time>
      </trkpt>
      <trkpt lat="46.97295" lon="8.76977">
        <ele>630</ele>
        <time>2021-08-05T13:46:40.107Z</time>
      </trkpt>
      <trkpt lat="46.97295" lon="8.76978">
        <ele>630</ele>
        <time>2021-08-05T13:46:41.108Z</time>
      </trkpt>
      <trkpt lat="46.97295" lon="8.76979">
        <ele>630</ele>
        <time>2021-08-05T13:46:42.108Z</time>
      </trkpt>
      <trkpt lat="46.97295" lon="8.7698">
        <ele>631</ele>
        <time>2021-08-05T13:46:43.108Z</time>
      </trkpt>
      <trkpt lat="46.97295" lon="8.76982">
        <ele>630</ele>
        <time>2021-08-05T13:46:44.108Z</time>
      </trkpt>
      <trkpt lat="46.97295" lon="8.76983">
        <ele>631</ele>
        <time>2021-08-05T13:46:45.107Z</time>
      </trkpt>
      <trkpt lat="46.97294" lon="8.76985">
        <ele>631</ele>
        <time>2021-08-05T13:46:46.108Z</time>
      </trkpt>
      <trkpt lat="46.97294" lon="8.76986">
        <ele>631</ele>
        <time>2021-08-05T13:46:47.107Z</time>
      </trkpt>
      <trkpt lat="46.97294" lon="8.76988">
        <ele>631</ele>
        <time>2021-08-05T13:46:48.108Z</time>
      </trkpt>
      <trkpt lat="46.97293" lon="8.76989">
        <ele>631</ele>
        <time>2021-08-05T13:46:49.107Z</time>
      </trkpt>
      <trkpt lat="46.97292" lon="8.76992">
        <ele>631</ele>
        <time>2021-08-05T13:46:50.108Z</time>
      </trkpt>
      <trkpt lat="46.97292" lon="8.76994">
        <ele>631</ele>
        <time>2021-08-05T13:46:51.108Z</time>
      </trkpt>
      <trkpt lat="46.97291" lon="8.76995">
        <ele>632</ele>
        <time>2021-08-05T13:46:52.108Z</time>
      </trkpt>
      <trkpt lat="46.9729" lon="8.76997">
        <ele>632</ele>
        <time>2021-08-05T13:46:53.107Z</time>
      </trkpt>
      <trkpt lat="46.9729" lon="8.76998">
        <ele>632</ele>
        <time>2021-08-05T13:46:54.108Z</time>
      </trkpt>
      <trkpt lat="46.9729" lon="8.77">
        <ele>632</ele>
        <time>2021-08-05T13:46:55.108Z</time>
      </trkpt>
      <trkpt lat="46.97289" lon="8.77002">
        <ele>632</ele>
        <time>2021-08-05T13:46:56.108Z</time>
      </trkpt>
      <trkpt lat="46.97289" lon="8.77003">
        <ele>632</ele>
        <time>2021-08-05T13:46:57.108Z</time>
      </trkpt>
      <trkpt lat="46.97289" lon="8.77005">
        <ele>633</ele>
        <time>2021-08-05T13:46:58.108Z</time>
      </trkpt>
      <trkpt lat="46.97289" lon="8.77006">
        <ele>633</ele>
        <time>2021-08-05T13:46:59.108Z</time>
      </trkpt>
      <trkpt lat="46.97288" lon="8.77008">
        <ele>634</ele>
        <time>2021-08-05T13:47:00.108Z</time>
      </trkpt>
      <trkpt lat="46.97288" lon="8.77009">
        <ele>634</ele>
        <time>2021-08-05T13:47:01.107Z</time>
      </trkpt>
      <trkpt lat="46.97288" lon="8.77011">
        <ele>634</ele>
        <time>2021-08-05T13:47:02.108Z</time>
      </trkpt>
      <trkpt lat="46.97288" lon="8.77012">
        <ele>634</ele>
        <time>2021-08-05T13:47:03.108Z</time>
      </trkpt>
      <trkpt lat="46.97287" lon="8.77014">
        <ele>634</ele>
        <time>2021-08-05T13:47:04.107Z</time>
      </trkpt>
      <trkpt lat="46.97287" lon="8.77016">
        <ele>634</ele>
        <time>2021-08-05T13:47:05.107Z</time>
      </trkpt>
      <trkpt lat="46.97286" lon="8.77018">
        <ele>634</ele>
        <time>2021-08-05T13:47:06.107Z</time>
      </trkpt>
      <trkpt lat="46.97286" lon="8.77019">
        <ele>634</ele>
        <time>2021-08-05T13:47:07.107Z</time>
      </trkpt>
      <trkpt lat="46.97286" lon="8.77021">
        <ele>635</ele>
        <time>2021-08-05T13:47:08.107Z</time>
      </trkpt>
      <trkpt lat="46.97286" lon="8.77023">
        <ele>635</ele>
        <time>2021-08-05T13:47:09.108Z</time>
      </trkpt>
      <trkpt lat="46.97285" lon="8.77025">
        <ele>635</ele>
        <time>2021-08-05T13:47:10.107Z</time>
      </trkpt>
      <trkpt lat="46.97285" lon="8.77027">
        <ele>635</ele>
        <time>2021-08-05T13:47:12.067Z</time>
      </trkpt>
      <trkpt lat="46.97285" lon="8.77028">
        <ele>635</ele>
        <time>2021-08-05T13:47:13.067Z</time>
      </trkpt>
      <trkpt lat="46.97284" lon="8.77029">
        <ele>635</ele>
        <time>2021-08-05T13:47:14.067Z</time>
      </trkpt>
      <trkpt lat="46.97284" lon="8.7703">
        <ele>636</ele>
        <time>2021-08-05T13:47:15.067Z</time>
      </trkpt>
      <trkpt lat="46.97284" lon="8.77031">
        <ele>636</ele>
        <time>2021-08-05T13:47:16.066Z</time>
      </trkpt>
      <trkpt lat="46.97284" lon="8.77033">
        <ele>636</ele>
        <time>2021-08-05T13:47:17.066Z</time>
      </trkpt>
      <trkpt lat="46.97283" lon="8.77034">
        <ele>636</ele>
        <time>2021-08-05T13:47:18.067Z</time>
      </trkpt>
      <trkpt lat="46.97283" lon="8.77036">
        <ele>636</ele>
        <time>2021-08-05T13:47:19.066Z</time>
      </trkpt>
      <trkpt lat="46.97283" lon="8.77038">
        <ele>636</ele>
        <time>2021-08-05T13:47:20.066Z</time>
      </trkpt>
      <trkpt lat="46.97283" lon="8.7704">
        <ele>637</ele>
        <time>2021-08-05T13:47:21.067Z</time>
      </trkpt>
      <trkpt lat="46.97283" lon="8.77041">
        <ele>637</ele>
        <time>2021-08-05T13:47:22.066Z</time>
      </trkpt>
      <trkpt lat="46.97283" lon="8.77042">
        <ele>637</ele>
        <time>2021-08-05T13:47:23.067Z</time>
      </trkpt>
      <trkpt lat="46.97283" lon="8.77044">
        <ele>638</ele>
        <time>2021-08-05T13:47:24.067Z</time>
      </trkpt>
      <trkpt lat="46.97283" lon="8.77046">
        <ele>638</ele>
        <time>2021-08-05T13:47:25.066Z</time>
      </trkpt>
      <trkpt lat="46.97283" lon="8.77049">
        <ele>638</ele>
        <time>2021-08-05T13:47:26.066Z</time>
      </trkpt>
      <trkpt lat="46.97283" lon="8.7705">
        <ele>638</ele>
        <time>2021-08-05T13:47:27.067Z</time>
      </trkpt>
      <trkpt lat="46.97282" lon="8.77051">
        <ele>638</ele>
        <time>2021-08-05T13:47:28.067Z</time>
      </trkpt>
      <trkpt lat="46.97282" lon="8.77052">
        <ele>638</ele>
        <time>2021-08-05T13:47:29.067Z</time>
      </trkpt>
      <trkpt lat="46.97281" lon="8.77053">
        <ele>638</ele>
        <time>2021-08-05T13:47:30.067Z</time>
      </trkpt>
      <trkpt lat="46.9728" lon="8.77055">
        <ele>638</ele>
        <time>2021-08-05T13:47:31.066Z</time>
      </trkpt>
      <trkpt lat="46.9728" lon="8.77057">
        <ele>638</ele>
        <time>2021-08-05T13:47:32.066Z</time>
      </trkpt>
      <trkpt lat="46.9728" lon="8.77059">
        <ele>639</ele>
        <time>2021-08-05T13:47:33.066Z</time>
      </trkpt>
      <trkpt lat="46.9728" lon="8.7706">
        <ele>639</ele>
        <time>2021-08-05T13:47:34.067Z</time>
      </trkpt>
      <trkpt lat="46.97279" lon="8.77061">
        <ele>639</ele>
        <time>2021-08-05T13:47:35.067Z</time>
      </trkpt>
      <trkpt lat="46.97279" lon="8.77063">
        <ele>639</ele>
        <time>2021-08-05T13:47:36.067Z</time>
      </trkpt>
      <trkpt lat="46.97278" lon="8.77064">
        <ele>639</ele>
        <time>2021-08-05T13:47:37.067Z</time>
      </trkpt>
      <trkpt lat="46.97278" lon="8.77066">
        <ele>639</ele>
        <time>2021-08-05T13:47:38.067Z</time>
      </trkpt>
      <trkpt lat="46.97279" lon="8.77068">
        <ele>639</ele>
        <time>2021-08-05T13:47:39.067Z</time>
      </trkpt>
      <trkpt lat="46.97279" lon="8.7707">
        <ele>637</ele>
        <time>2021-08-05T13:47:40.066Z</time>
      </trkpt>
      <trkpt lat="46.97279" lon="8.77071">
        <ele>637</ele>
        <time>2021-08-05T13:47:41.066Z</time>
      </trkpt>
      <trkpt lat="46.97279" lon="8.77073">
        <ele>636</ele>
        <time>2021-08-05T13:47:42.066Z</time>
      </trkpt>
      <trkpt lat="46.9728" lon="8.77074">
        <ele>635</ele>
        <time>2021-08-05T13:47:43.066Z</time>
      </trkpt>
      <trkpt lat="46.9728" lon="8.77076">
        <ele>634</ele>
        <time>2021-08-05T13:47:44.066Z</time>
      </trkpt>
      <trkpt lat="46.9728" lon="8.77077">
        <ele>633</ele>
        <time>2021-08-05T13:47:45.067Z</time>
      </trkpt>
      <trkpt lat="46.9728" lon="8.77079">
        <ele>632</ele>
        <time>2021-08-05T13:47:46.067Z</time>
      </trkpt>
      <trkpt lat="46.9728" lon="8.77081">
        <ele>632</ele>
        <time>2021-08-05T13:47:47.066Z</time>
      </trkpt>
      <trkpt lat="46.9728" lon="8.77083">
        <ele>631</ele>
        <time>2021-08-05T13:47:48.066Z</time>
      </trkpt>
      <trkpt lat="46.9728" lon="8.77084">
        <ele>631</ele>
        <time>2021-08-05T13:47:49.067Z</time>
      </trkpt>
      <trkpt lat="46.9728" lon="8.77086">
        <ele>631</ele>
        <time>2021-08-05T13:47:50.066Z</time>
      </trkpt>
      <trkpt lat="46.9728" lon="8.77089">
        <ele>631</ele>
        <time>2021-08-05T13:47:51.067Z</time>
      </trkpt>
      <trkpt lat="46.97279" lon="8.77091">
        <ele>631</ele>
        <time>2021-08-05T13:47:52.066Z</time>
      </trkpt>
      <trkpt lat="46.97279" lon="8.77093">
        <ele>632</ele>
        <time>2021-08-05T13:47:53.067Z</time>
      </trkpt>
      <trkpt lat="46.97279" lon="8.77095">
        <ele>632</ele>
        <time>2021-08-05T13:47:54.066Z</time>
      </trkpt>
      <trkpt lat="46.97278" lon="8.77096">
        <ele>632</ele>
        <time>2021-08-05T13:47:55.067Z</time>
      </trkpt>
      <trkpt lat="46.97278" lon="8.77098">
        <ele>633</ele>
        <time>2021-08-05T13:47:56.067Z</time>
      </trkpt>
      <trkpt lat="46.97278" lon="8.77099">
        <ele>633</ele>
        <time>2021-08-05T13:47:57.066Z</time>
      </trkpt>
      <trkpt lat="46.97278" lon="8.77101">
        <ele>633</ele>
        <time>2021-08-05T13:47:58.067Z</time>
      </trkpt>
      <trkpt lat="46.97278" lon="8.77103">
        <ele>634</ele>
        <time>2021-08-05T13:47:59.066Z</time>
      </trkpt>
      <trkpt lat="46.97279" lon="8.77104">
        <ele>634</ele>
        <time>2021-08-05T13:48:00.067Z</time>
      </trkpt>
      <trkpt lat="46.97279" lon="8.77106">
        <ele>635</ele>
        <time>2021-08-05T13:48:01.066Z</time>
      </trkpt>
      <trkpt lat="46.97279" lon="8.77108">
        <ele>635</ele>
        <time>2021-08-05T13:48:02.067Z</time>
      </trkpt>
      <trkpt lat="46.97279" lon="8.7711">
        <ele>635</ele>
        <time>2021-08-05T13:48:03.067Z</time>
      </trkpt>
      <trkpt lat="46.97279" lon="8.77111">
        <ele>635</ele>
        <time>2021-08-05T13:48:04.067Z</time>
      </trkpt>
      <trkpt lat="46.97279" lon="8.77113">
        <ele>635</ele>
        <time>2021-08-05T13:48:05.067Z</time>
      </trkpt>
      <trkpt lat="46.97279" lon="8.77115">
        <ele>636</ele>
        <time>2021-08-05T13:48:06.067Z</time>
      </trkpt>
      <trkpt lat="46.97279" lon="8.77116">
        <ele>636</ele>
        <time>2021-08-05T13:48:07.067Z</time>
      </trkpt>
      <trkpt lat="46.97279" lon="8.77117">
        <ele>636</ele>
        <time>2021-08-05T13:48:08.067Z</time>
      </trkpt>
      <trkpt lat="46.9728" lon="8.77118">
        <ele>636</ele>
        <time>2021-08-05T13:48:09.067Z</time>
      </trkpt>
      <trkpt lat="46.9728" lon="8.7712">
        <ele>636</ele>
        <time>2021-08-05T13:48:10.066Z</time>
      </trkpt>
      <trkpt lat="46.9728" lon="8.77121">
        <ele>636</ele>
        <time>2021-08-05T13:48:11.066Z</time>
      </trkpt>
      <trkpt lat="46.9728" lon="8.77122">
        <ele>636</ele>
        <time>2021-08-05T13:48:12.067Z</time>
      </trkpt>
      <trkpt lat="46.9728" lon="8.77124">
        <ele>635</ele>
        <time>2021-08-05T13:48:13.067Z</time>
      </trkpt>
      <trkpt lat="46.97281" lon="8.77126">
        <ele>635</ele>
        <time>2021-08-05T13:48:14.067Z</time>
      </trkpt>
      <trkpt lat="46.97281" lon="8.77126">
        <ele>635</ele>
        <time>2021-08-05T13:48:15.066Z</time>
      </trkpt>
      <trkpt lat="46.97281" lon="8.77127">
        <ele>635</ele>
        <time>2021-08-05T13:48:16.067Z</time>
      </trkpt>
      <trkpt lat="46.97281" lon="8.77129">
        <ele>635</ele>
        <time>2021-08-05T13:48:17.067Z</time>
      </trkpt>
      <trkpt lat="46.97282" lon="8.77131">
        <ele>634</ele>
        <time>2021-08-05T13:48:18.067Z</time>
      </trkpt>
      <trkpt lat="46.97282" lon="8.77133">
        <ele>634</ele>
        <time>2021-08-05T13:48:19.067Z</time>
      </trkpt>
      <trkpt lat="46.97282" lon="8.77135">
        <ele>634</ele>
        <time>2021-08-05T13:48:20.066Z</time>
      </trkpt>
      <trkpt lat="46.97282" lon="8.77136">
        <ele>634</ele>
        <time>2021-08-05T13:48:21.067Z</time>
      </trkpt>
      <trkpt lat="46.97282" lon="8.77138">
        <ele>635</ele>
        <time>2021-08-05T13:48:22.066Z</time>
      </trkpt>
      <trkpt lat="46.97282" lon="8.77139">
        <ele>636</ele>
        <time>2021-08-05T13:48:23.067Z</time>
      </trkpt>
      <trkpt lat="46.97282" lon="8.77141">
        <ele>636</ele>
        <time>2021-08-05T13:48:24.066Z</time>
      </trkpt>
      <trkpt lat="46.97282" lon="8.77142">
        <ele>637</ele>
        <time>2021-08-05T13:48:25.067Z</time>
      </trkpt>
      <trkpt lat="46.97282" lon="8.77144">
        <ele>637</ele>
        <time>2021-08-05T13:48:26.067Z</time>
      </trkpt>
      <trkpt lat="46.97283" lon="8.77146">
        <ele>636</ele>
        <time>2021-08-05T13:48:27.066Z</time>
      </trkpt>
      <trkpt lat="46.97283" lon="8.77148">
        <ele>636</ele>
        <time>2021-08-05T13:48:28.066Z</time>
      </trkpt>
      <trkpt lat="46.97283" lon="8.7715">
        <ele>635</ele>
        <time>2021-08-05T13:48:29.066Z</time>
      </trkpt>
      <trkpt lat="46.97283" lon="8.77152">
        <ele>635</ele>
        <time>2021-08-05T13:48:30.066Z</time>
      </trkpt>
      <trkpt lat="46.97283" lon="8.77153">
        <ele>635</ele>
        <time>2021-08-05T13:48:31.066Z</time>
      </trkpt>
      <trkpt lat="46.97283" lon="8.77154">
        <ele>635</ele>
        <time>2021-08-05T13:48:32.067Z</time>
      </trkpt>
      <trkpt lat="46.97283" lon="8.77156">
        <ele>635</ele>
        <time>2021-08-05T13:48:33.067Z</time>
      </trkpt>
      <trkpt lat="46.97283" lon="8.77157">
        <ele>635</ele>
        <time>2021-08-05T13:48:34.067Z</time>
      </trkpt>
      <trkpt lat="46.97283" lon="8.77159">
        <ele>635</ele>
        <time>2021-08-05T13:48:35.067Z</time>
      </trkpt>
      <trkpt lat="46.97283" lon="8.77161">
        <ele>635</ele>
        <time>2021-08-05T13:48:36.066Z</time>
      </trkpt>
      <trkpt lat="46.97283" lon="8.77163">
        <ele>635</ele>
        <time>2021-08-05T13:48:37.066Z</time>
      </trkpt>
      <trkpt lat="46.97283" lon="8.77164">
        <ele>635</ele>
        <time>2021-08-05T13:48:38.066Z</time>
      </trkpt>
      <trkpt lat="46.97284" lon="8.77166">
        <ele>635</ele>
        <time>2021-08-05T13:48:39.066Z</time>
      </trkpt>
      <trkpt lat="46.97284" lon="8.77167">
        <ele>635</ele>
        <time>2021-08-05T13:48:40.066Z</time>
      </trkpt>
      <trkpt lat="46.97284" lon="8.77169">
        <ele>635</ele>
        <time>2021-08-05T13:48:41.067Z</time>
      </trkpt>
      <trkpt lat="46.97284" lon="8.7717">
        <ele>635</ele>
        <time>2021-08-05T13:48:42.067Z</time>
      </trkpt>
      <trkpt lat="46.97284" lon="8.77171">
        <ele>634</ele>
        <time>2021-08-05T13:48:43.067Z</time>
      </trkpt>
      <trkpt lat="46.97285" lon="8.77173">
        <ele>634</ele>
        <time>2021-08-05T13:48:44.066Z</time>
      </trkpt>
      <trkpt lat="46.97285" lon="8.77174">
        <ele>633</ele>
        <time>2021-08-05T13:48:45.066Z</time>
      </trkpt>
      <trkpt lat="46.97285" lon="8.77175">
        <ele>633</ele>
        <time>2021-08-05T13:48:46.066Z</time>
      </trkpt>
      <trkpt lat="46.97286" lon="8.77176">
        <ele>632</ele>
        <time>2021-08-05T13:48:47.067Z</time>
      </trkpt>
      <trkpt lat="46.97287" lon="8.77178">
        <ele>632</ele>
        <time>2021-08-05T13:48:48.066Z</time>
      </trkpt>
      <trkpt lat="46.97288" lon="8.77179">
        <ele>632</ele>
        <time>2021-08-05T13:48:49.066Z</time>
      </trkpt>
      <trkpt lat="46.97288" lon="8.7718">
        <ele>632</ele>
        <time>2021-08-05T13:48:50.066Z</time>
      </trkpt>
      <trkpt lat="46.97288" lon="8.77182">
        <ele>632</ele>
        <time>2021-08-05T13:48:51.066Z</time>
      </trkpt>
      <trkpt lat="46.97289" lon="8.77185">
        <ele>632</ele>
        <time>2021-08-05T13:48:52.066Z</time>
      </trkpt>
      <trkpt lat="46.97289" lon="8.77186">
        <ele>632</ele>
        <time>2021-08-05T13:48:53.067Z</time>
      </trkpt>
      <trkpt lat="46.97289" lon="8.77188">
        <ele>633</ele>
        <time>2021-08-05T13:48:54.067Z</time>
      </trkpt>
      <trkpt lat="46.9729" lon="8.7719">
        <ele>633</ele>
        <time>2021-08-05T13:48:55.067Z</time>
      </trkpt>
      <trkpt lat="46.97289" lon="8.77191">
        <ele>634</ele>
        <time>2021-08-05T13:48:56.066Z</time>
      </trkpt>
      <trkpt lat="46.9729" lon="8.77193">
        <ele>634</ele>
        <time>2021-08-05T13:48:57.066Z</time>
      </trkpt>
      <trkpt lat="46.9729" lon="8.77195">
        <ele>634</ele>
        <time>2021-08-05T13:48:58.066Z</time>
      </trkpt>
      <trkpt lat="46.9729" lon="8.77197">
        <ele>635</ele>
        <time>2021-08-05T13:48:59.066Z</time>
      </trkpt>
      <trkpt lat="46.9729" lon="8.77199">
        <ele>635</ele>
        <time>2021-08-05T13:49:00.066Z</time>
      </trkpt>
      <trkpt lat="46.97291" lon="8.77201">
        <ele>635</ele>
        <time>2021-08-05T13:49:01.067Z</time>
      </trkpt>
      <trkpt lat="46.97291" lon="8.77202">
        <ele>635</ele>
        <time>2021-08-05T13:49:02.067Z</time>
      </trkpt>
      <trkpt lat="46.97291" lon="8.77203">
        <ele>636</ele>
        <time>2021-08-05T13:49:03.066Z</time>
      </trkpt>
      <trkpt lat="46.97292" lon="8.77205">
        <ele>636</ele>
        <time>2021-08-05T13:49:04.066Z</time>
      </trkpt>
      <trkpt lat="46.97292" lon="8.77207">
        <ele>636</ele>
        <time>2021-08-05T13:49:05.066Z</time>
      </trkpt>
      <trkpt lat="46.97293" lon="8.77208">
        <ele>637</ele>
        <time>2021-08-05T13:49:06.066Z</time>
      </trkpt>
      <trkpt lat="46.97293" lon="8.7721">
        <ele>637</ele>
        <time>2021-08-05T13:49:07.066Z</time>
      </trkpt>
      <trkpt lat="46.97294" lon="8.77211">
        <ele>637</ele>
        <time>2021-08-05T13:49:08.066Z</time>
      </trkpt>
      <trkpt lat="46.97294" lon="8.77212">
        <ele>637</ele>
        <time>2021-08-05T13:49:09.066Z</time>
      </trkpt>
      <trkpt lat="46.97294" lon="8.77213">
        <ele>636</ele>
        <time>2021-08-05T13:49:10.066Z</time>
      </trkpt>
      <trkpt lat="46.97295" lon="8.77214">
        <ele>636</ele>
        <time>2021-08-05T13:49:11.066Z</time>
      </trkpt>
      <trkpt lat="46.97295" lon="8.77215">
        <ele>635</ele>
        <time>2021-08-05T13:49:12.066Z</time>
      </trkpt>
      <trkpt lat="46.97296" lon="8.77216">
        <ele>635</ele>
        <time>2021-08-05T13:49:13.067Z</time>
      </trkpt>
      <trkpt lat="46.97295" lon="8.77216">
        <ele>635</ele>
        <time>2021-08-05T13:49:14.067Z</time>
      </trkpt>
      <trkpt lat="46.97296" lon="8.77216">
        <ele>635</ele>
        <time>2021-08-05T13:49:15.066Z</time>
      </trkpt>
      <trkpt lat="46.97298" lon="8.77218">
        <ele>634</ele>
        <time>2021-08-05T13:49:16.068Z</time>
      </trkpt>
      <trkpt lat="46.97299" lon="8.77219">
        <ele>634</ele>
        <time>2021-08-05T13:49:17.067Z</time>
      </trkpt>
      <trkpt lat="46.97299" lon="8.7722">
        <ele>634</ele>
        <time>2021-08-05T13:49:18.067Z</time>
      </trkpt>
      <trkpt lat="46.97299" lon="8.77221">
        <ele>634</ele>
        <time>2021-08-05T13:49:19.068Z</time>
      </trkpt>
      <trkpt lat="46.97299" lon="8.77223">
        <ele>635</ele>
        <time>2021-08-05T13:49:20.068Z</time>
      </trkpt>
      <trkpt lat="46.97299" lon="8.77224">
        <ele>635</ele>
        <time>2021-08-05T13:49:21.067Z</time>
      </trkpt>
      <trkpt lat="46.97299" lon="8.77226">
        <ele>635</ele>
        <time>2021-08-05T13:49:22.067Z</time>
      </trkpt>
      <trkpt lat="46.97299" lon="8.77228">
        <ele>635</ele>
        <time>2021-08-05T13:49:23.068Z</time>
      </trkpt>
      <trkpt lat="46.97299" lon="8.77229">
        <ele>636</ele>
        <time>2021-08-05T13:49:24.067Z</time>
      </trkpt>
      <trkpt lat="46.973" lon="8.77231">
        <ele>636</ele>
        <time>2021-08-05T13:49:25.068Z</time>
      </trkpt>
      <trkpt lat="46.973" lon="8.77232">
        <ele>636</ele>
        <time>2021-08-05T13:49:26.068Z</time>
      </trkpt>
      <trkpt lat="46.97301" lon="8.77232">
        <ele>636</ele>
        <time>2021-08-05T13:49:27.068Z</time>
      </trkpt>
      <trkpt lat="46.97301" lon="8.77234">
        <ele>636</ele>
        <time>2021-08-05T13:49:28.067Z</time>
      </trkpt>
      <trkpt lat="46.97302" lon="8.77235">
        <ele>636</ele>
        <time>2021-08-05T13:49:29.067Z</time>
      </trkpt>
      <trkpt lat="46.97302" lon="8.77236">
        <ele>635</ele>
        <time>2021-08-05T13:49:30.068Z</time>
      </trkpt>
      <trkpt lat="46.97302" lon="8.77238">
        <ele>635</ele>
        <time>2021-08-05T13:49:31.068Z</time>
      </trkpt>
      <trkpt lat="46.97303" lon="8.77239">
        <ele>634</ele>
        <time>2021-08-05T13:49:32.067Z</time>
      </trkpt>
      <trkpt lat="46.97303" lon="8.7724">
        <ele>634</ele>
        <time>2021-08-05T13:49:33.068Z</time>
      </trkpt>
      <trkpt lat="46.97304" lon="8.77241">
        <ele>634</ele>
        <time>2021-08-05T13:49:34.068Z</time>
      </trkpt>
      <trkpt lat="46.97304" lon="8.77242">
        <ele>634</ele>
        <time>2021-08-05T13:49:35.067Z</time>
      </trkpt>
      <trkpt lat="46.97305" lon="8.77244">
        <ele>635</ele>
        <time>2021-08-05T13:49:36.067Z</time>
      </trkpt>
      <trkpt lat="46.97305" lon="8.77246">
        <ele>635</ele>
        <time>2021-08-05T13:49:37.068Z</time>
      </trkpt>
      <trkpt lat="46.97306" lon="8.77247">
        <ele>636</ele>
        <time>2021-08-05T13:49:38.068Z</time>
      </trkpt>
      <trkpt lat="46.97306" lon="8.77249">
        <ele>637</ele>
        <time>2021-08-05T13:49:39.068Z</time>
      </trkpt>
      <trkpt lat="46.97306" lon="8.7725">
        <ele>637</ele>
        <time>2021-08-05T13:49:40.067Z</time>
      </trkpt>
      <trkpt lat="46.97306" lon="8.77252">
        <ele>638</ele>
        <time>2021-08-05T13:49:41.068Z</time>
      </trkpt>
      <trkpt lat="46.97307" lon="8.77254">
        <ele>638</ele>
        <time>2021-08-05T13:49:42.068Z</time>
      </trkpt>
      <trkpt lat="46.97307" lon="8.77255">
        <ele>639</ele>
        <time>2021-08-05T13:49:43.067Z</time>
      </trkpt>
      <trkpt lat="46.97307" lon="8.77257">
        <ele>639</ele>
        <time>2021-08-05T13:49:44.067Z</time>
      </trkpt>
      <trkpt lat="46.97307" lon="8.77258">
        <ele>640</ele>
        <time>2021-08-05T13:49:45.068Z</time>
      </trkpt>
      <trkpt lat="46.97308" lon="8.7726">
        <ele>641</ele>
        <time>2021-08-05T13:49:46.067Z</time>
      </trkpt>
      <trkpt lat="46.97308" lon="8.77261">
        <ele>641</ele>
        <time>2021-08-05T13:49:47.068Z</time>
      </trkpt>
      <trkpt lat="46.97308" lon="8.77263">
        <ele>642</ele>
        <time>2021-08-05T13:49:48.067Z</time>
      </trkpt>
      <trkpt lat="46.97309" lon="8.77265">
        <ele>642</ele>
        <time>2021-08-05T13:49:49.067Z</time>
      </trkpt>
      <trkpt lat="46.97308" lon="8.77267">
        <ele>643</ele>
        <time>2021-08-05T13:49:50.067Z</time>
      </trkpt>
      <trkpt lat="46.97308" lon="8.77268">
        <ele>643</ele>
        <time>2021-08-05T13:49:51.067Z</time>
      </trkpt>
      <trkpt lat="46.97308" lon="8.7727">
        <ele>643</ele>
        <time>2021-08-05T13:49:52.068Z</time>
      </trkpt>
      <trkpt lat="46.97309" lon="8.77271">
        <ele>643</ele>
        <time>2021-08-05T13:49:53.067Z</time>
      </trkpt>
      <trkpt lat="46.97309" lon="8.77272">
        <ele>643</ele>
        <time>2021-08-05T13:49:54.068Z</time>
      </trkpt>
      <trkpt lat="46.97309" lon="8.77274">
        <ele>643</ele>
        <time>2021-08-05T13:49:55.068Z</time>
      </trkpt>
      <trkpt lat="46.9731" lon="8.77277">
        <ele>644</ele>
        <time>2021-08-05T13:49:56.068Z</time>
      </trkpt>
      <trkpt lat="46.97309" lon="8.77279">
        <ele>644</ele>
        <time>2021-08-05T13:49:57.068Z</time>
      </trkpt>
      <trkpt lat="46.97309" lon="8.7728">
        <ele>644</ele>
        <time>2021-08-05T13:49:58.067Z</time>
      </trkpt>
      <trkpt lat="46.9731" lon="8.77282">
        <ele>644</ele>
        <time>2021-08-05T13:49:59.068Z</time>
      </trkpt>
      <trkpt lat="46.97311" lon="8.77284">
        <ele>644</ele>
        <time>2021-08-05T13:50:00.068Z</time>
      </trkpt>
      <trkpt lat="46.97311" lon="8.77285">
        <ele>644</ele>
        <time>2021-08-05T13:50:01.068Z</time>
      </trkpt>
      <trkpt lat="46.97312" lon="8.77286">
        <ele>644</ele>
        <time>2021-08-05T13:50:02.068Z</time>
      </trkpt>
      <trkpt lat="46.97314" lon="8.77287">
        <ele>644</ele>
        <time>2021-08-05T13:50:03.068Z</time>
      </trkpt>
      <trkpt lat="46.97316" lon="8.77289">
        <ele>643</ele>
        <time>2021-08-05T13:50:04.068Z</time>
      </trkpt>
      <trkpt lat="46.97318" lon="8.77289">
        <ele>643</ele>
        <time>2021-08-05T13:50:05.068Z</time>
      </trkpt>
      <trkpt lat="46.97319" lon="8.77291">
        <ele>642</ele>
        <time>2021-08-05T13:50:06.068Z</time>
      </trkpt>
      <trkpt lat="46.9732" lon="8.77293">
        <ele>641</ele>
        <time>2021-08-05T13:50:07.068Z</time>
      </trkpt>
      <trkpt lat="46.97321" lon="8.77294">
        <ele>640</ele>
        <time>2021-08-05T13:50:08.067Z</time>
      </trkpt>
      <trkpt lat="46.97321" lon="8.77295">
        <ele>640</ele>
        <time>2021-08-05T13:50:09.067Z</time>
      </trkpt>
      <trkpt lat="46.97321" lon="8.77297">
        <ele>640</ele>
        <time>2021-08-05T13:50:10.068Z</time>
      </trkpt>
      <trkpt lat="46.97322" lon="8.77299">
        <ele>640</ele>
        <time>2021-08-05T13:50:11.068Z</time>
      </trkpt>
      <trkpt lat="46.97322" lon="8.773">
        <ele>640</ele>
        <time>2021-08-05T13:50:12.068Z</time>
      </trkpt>
      <trkpt lat="46.97323" lon="8.77301">
        <ele>640</ele>
        <time>2021-08-05T13:50:13.067Z</time>
      </trkpt>
      <trkpt lat="46.97324" lon="8.77301">
        <ele>640</ele>
        <time>2021-08-05T13:50:14.068Z</time>
      </trkpt>
      <trkpt lat="46.97324" lon="8.77301">
        <ele>639</ele>
        <time>2021-08-05T13:50:15.068Z</time>
      </trkpt>
      <trkpt lat="46.97325" lon="8.77302">
        <ele>639</ele>
        <time>2021-08-05T13:50:16.068Z</time>
      </trkpt>
      <trkpt lat="46.97326" lon="8.77304">
        <ele>639</ele>
        <time>2021-08-05T13:50:17.067Z</time>
      </trkpt>
      <trkpt lat="46.97327" lon="8.77305">
        <ele>639</ele>
        <time>2021-08-05T13:50:18.068Z</time>
      </trkpt>
      <trkpt lat="46.97327" lon="8.77306">
        <ele>638</ele>
        <time>2021-08-05T13:50:25.075Z</time>
      </trkpt>
      <trkpt lat="46.97327" lon="8.77307">
        <ele>638</ele>
        <time>2021-08-05T13:50:35.862Z</time>
      </trkpt>
      <trkpt lat="46.97327" lon="8.77308">
        <ele>638</ele>
        <time>2021-08-05T13:50:36.862Z</time>
      </trkpt>
      <trkpt lat="46.97328" lon="8.77309">
        <ele>638</ele>
        <time>2021-08-05T13:50:49.569Z</time>
      </trkpt>
      <trkpt lat="46.9733" lon="8.7731">
        <ele>638</ele>
        <time>2021-08-05T13:50:50.569Z</time>
      </trkpt>
      <trkpt lat="46.97332" lon="8.77312">
        <ele>638</ele>
        <time>2021-08-05T13:50:51.570Z</time>
      </trkpt>
      <trkpt lat="46.97334" lon="8.77314">
        <ele>638</ele>
        <time>2021-08-05T13:50:52.570Z</time>
      </trkpt>
      <trkpt lat="46.97336" lon="8.77315">
        <ele>638</ele>
        <time>2021-08-05T13:50:53.569Z</time>
      </trkpt>
      <trkpt lat="46.97336" lon="8.77317">
        <ele>637</ele>
        <time>2021-08-05T13:50:54.570Z</time>
      </trkpt>
      <trkpt lat="46.97336" lon="8.77319">
        <ele>637</ele>
        <time>2021-08-05T13:50:55.570Z</time>
      </trkpt>
      <trkpt lat="46.97336" lon="8.77321">
        <ele>637</ele>
        <time>2021-08-05T13:50:56.569Z</time>
      </trkpt>
      <trkpt lat="46.97336" lon="8.77322">
        <ele>637</ele>
        <time>2021-08-05T13:50:57.570Z</time>
      </trkpt>
      <trkpt lat="46.97335" lon="8.77323">
        <ele>637</ele>
        <time>2021-08-05T13:50:58.570Z</time>
      </trkpt>
      <trkpt lat="46.97333" lon="8.77323">
        <ele>637</ele>
        <time>2021-08-05T13:51:07.568Z</time>
      </trkpt>
      <trkpt lat="46.97333" lon="8.77323">
        <ele>637</ele>
        <time>2021-08-05T13:51:08.569Z</time>
      </trkpt>
      <trkpt lat="46.97332" lon="8.77325">
        <ele>637</ele>
        <time>2021-08-05T13:51:09.569Z</time>
      </trkpt>
      <trkpt lat="46.97331" lon="8.77326">
        <ele>637</ele>
        <time>2021-08-05T13:51:32.380Z</time>
      </trkpt>
      <trkpt lat="46.9733" lon="8.77327">
        <ele>637</ele>
        <time>2021-08-05T13:51:33.381Z</time>
      </trkpt>
      <trkpt lat="46.97329" lon="8.77327">
        <ele>637</ele>
        <time>2021-08-05T13:51:37.223Z</time>
      </trkpt>
      <trkpt lat="46.97328" lon="8.77328">
        <ele>636</ele>
        <time>2021-08-05T13:51:38.223Z</time>
      </trkpt>
      <trkpt lat="46.97327" lon="8.77329">
        <ele>636</ele>
        <time>2021-08-05T13:51:39.224Z</time>
      </trkpt>
      <trkpt lat="46.97326" lon="8.7733">
        <ele>635</ele>
        <time>2021-08-05T13:51:40.223Z</time>
      </trkpt>
      <trkpt lat="46.97325" lon="8.77331">
        <ele>635</ele>
        <time>2021-08-05T13:51:41.224Z</time>
      </trkpt>
      <trkpt lat="46.97325" lon="8.77334">
        <ele>635</ele>
        <time>2021-08-05T13:51:42.223Z</time>
      </trkpt>
      <trkpt lat="46.97324" lon="8.77335">
        <ele>635</ele>
        <time>2021-08-05T13:51:43.223Z</time>
      </trkpt>
      <trkpt lat="46.97323" lon="8.77335">
        <ele>635</ele>
        <time>2021-08-05T13:51:44.224Z</time>
      </trkpt>
      <trkpt lat="46.97322" lon="8.77336">
        <ele>634</ele>
        <time>2021-08-05T13:51:45.223Z</time>
      </trkpt>
      <trkpt lat="46.97321" lon="8.77338">
        <ele>634</ele>
        <time>2021-08-05T13:51:46.224Z</time>
      </trkpt>
      <trkpt lat="46.9732" lon="8.77339">
        <ele>633</ele>
        <time>2021-08-05T13:51:47.224Z</time>
      </trkpt>
      <trkpt lat="46.97319" lon="8.77339">
        <ele>632</ele>
        <time>2021-08-05T13:51:48.223Z</time>
      </trkpt>
      <trkpt lat="46.97318" lon="8.7734">
        <ele>632</ele>
        <time>2021-08-05T13:51:49.224Z</time>
      </trkpt>
      <trkpt lat="46.97318" lon="8.77341">
        <ele>632</ele>
        <time>2021-08-05T13:51:50.224Z</time>
      </trkpt>
      <trkpt lat="46.97316" lon="8.77341">
        <ele>631</ele>
        <time>2021-08-05T13:51:51.224Z</time>
      </trkpt>
      <trkpt lat="46.97315" lon="8.77342">
        <ele>631</ele>
        <time>2021-08-05T13:51:52.224Z</time>
      </trkpt>
      <trkpt lat="46.97314" lon="8.77343">
        <ele>630</ele>
        <time>2021-08-05T13:51:53.224Z</time>
      </trkpt>
      <trkpt lat="46.97313" lon="8.77344">
        <ele>631</ele>
        <time>2021-08-05T13:51:54.224Z</time>
      </trkpt>
      <trkpt lat="46.97312" lon="8.77345">
        <ele>631</ele>
        <time>2021-08-05T13:51:55.224Z</time>
      </trkpt>
      <trkpt lat="46.97311" lon="8.77346">
        <ele>632</ele>
        <time>2021-08-05T13:51:56.224Z</time>
      </trkpt>
      <trkpt lat="46.97311" lon="8.77348">
        <ele>633</ele>
        <time>2021-08-05T13:51:57.224Z</time>
      </trkpt>
      <trkpt lat="46.9731" lon="8.77349">
        <ele>633</ele>
        <time>2021-08-05T13:51:58.224Z</time>
      </trkpt>
      <trkpt lat="46.9731" lon="8.7735">
        <ele>634</ele>
        <time>2021-08-05T13:51:59.224Z</time>
      </trkpt>
      <trkpt lat="46.97309" lon="8.77351">
        <ele>634</ele>
        <time>2021-08-05T13:52:00.224Z</time>
      </trkpt>
      <trkpt lat="46.97309" lon="8.77352">
        <ele>635</ele>
        <time>2021-08-05T13:52:01.224Z</time>
      </trkpt>
      <trkpt lat="46.97309" lon="8.77353">
        <ele>635</ele>
        <time>2021-08-05T13:52:02.223Z</time>
      </trkpt>
      <trkpt lat="46.97309" lon="8.77355">
        <ele>636</ele>
        <time>2021-08-05T13:52:03.224Z</time>
      </trkpt>
      <trkpt lat="46.97309" lon="8.77357">
        <ele>636</ele>
        <time>2021-08-05T13:52:04.224Z</time>
      </trkpt>
      <trkpt lat="46.97309" lon="8.77359">
        <ele>636</ele>
        <time>2021-08-05T13:52:05.223Z</time>
      </trkpt>
      <trkpt lat="46.97309" lon="8.7736">
        <ele>637</ele>
        <time>2021-08-05T13:52:06.223Z</time>
      </trkpt>
      <trkpt lat="46.9731" lon="8.77362">
        <ele>637</ele>
        <time>2021-08-05T13:52:07.224Z</time>
      </trkpt>
      <trkpt lat="46.9731" lon="8.77364">
        <ele>638</ele>
        <time>2021-08-05T13:52:08.224Z</time>
      </trkpt>
      <trkpt lat="46.9731" lon="8.77365">
        <ele>638</ele>
        <time>2021-08-05T13:52:11.215Z</time>
      </trkpt>
      <trkpt lat="46.9731" lon="8.77367">
        <ele>638</ele>
        <time>2021-08-05T13:52:12.215Z</time>
      </trkpt>
      <trkpt lat="46.9731" lon="8.77368">
        <ele>638</ele>
        <time>2021-08-05T13:52:13.215Z</time>
      </trkpt>
      <trkpt lat="46.9731" lon="8.7737">
        <ele>638</ele>
        <time>2021-08-05T13:52:14.214Z</time>
      </trkpt>
      <trkpt lat="46.97309" lon="8.77371">
        <ele>638</ele>
        <time>2021-08-05T13:52:15.215Z</time>
      </trkpt>
      <trkpt lat="46.97309" lon="8.77373">
        <ele>638</ele>
        <time>2021-08-05T13:52:16.215Z</time>
      </trkpt>
      <trkpt lat="46.97308" lon="8.77375">
        <ele>638</ele>
        <time>2021-08-05T13:52:17.215Z</time>
      </trkpt>
      <trkpt lat="46.97308" lon="8.77376">
        <ele>638</ele>
        <time>2021-08-05T13:52:18.214Z</time>
      </trkpt>
      <trkpt lat="46.97307" lon="8.77377">
        <ele>638</ele>
        <time>2021-08-05T13:52:19.214Z</time>
      </trkpt>
      <trkpt lat="46.97307" lon="8.77378">
        <ele>638</ele>
        <time>2021-08-05T13:52:20.215Z</time>
      </trkpt>
      <trkpt lat="46.97306" lon="8.77379">
        <ele>638</ele>
        <time>2021-08-05T13:52:21.214Z</time>
      </trkpt>
      <trkpt lat="46.97306" lon="8.77381">
        <ele>638</ele>
        <time>2021-08-05T13:52:22.215Z</time>
      </trkpt>
      <trkpt lat="46.97305" lon="8.77382">
        <ele>638</ele>
        <time>2021-08-05T13:52:23.215Z</time>
      </trkpt>
      <trkpt lat="46.97304" lon="8.77383">
        <ele>638</ele>
        <time>2021-08-05T13:52:24.214Z</time>
      </trkpt>
      <trkpt lat="46.97304" lon="8.77384">
        <ele>638</ele>
        <time>2021-08-05T13:52:25.214Z</time>
      </trkpt>
      <trkpt lat="46.97303" lon="8.77385">
        <ele>638</ele>
        <time>2021-08-05T13:52:26.214Z</time>
      </trkpt>
      <trkpt lat="46.97302" lon="8.77386">
        <ele>638</ele>
        <time>2021-08-05T13:52:27.215Z</time>
      </trkpt>
      <trkpt lat="46.97301" lon="8.77386">
        <ele>638</ele>
        <time>2021-08-05T13:52:28.215Z</time>
      </trkpt>
      <trkpt lat="46.973" lon="8.77386">
        <ele>638</ele>
        <time>2021-08-05T13:52:29.214Z</time>
      </trkpt>
      <trkpt lat="46.97299" lon="8.77387">
        <ele>637</ele>
        <time>2021-08-05T13:52:30.215Z</time>
      </trkpt>
      <trkpt lat="46.97297" lon="8.77387">
        <ele>637</ele>
        <time>2021-08-05T13:52:31.215Z</time>
      </trkpt>
      <trkpt lat="46.97295" lon="8.77386">
        <ele>638</ele>
        <time>2021-08-05T13:52:32.214Z</time>
      </trkpt>
      <trkpt lat="46.97294" lon="8.77385">
        <ele>638</ele>
        <time>2021-08-05T13:52:33.215Z</time>
      </trkpt>
      <trkpt lat="46.97292" lon="8.77384">
        <ele>638</ele>
        <time>2021-08-05T13:52:34.214Z</time>
      </trkpt>
      <trkpt lat="46.97291" lon="8.77385">
        <ele>639</ele>
        <time>2021-08-05T13:52:35.215Z</time>
      </trkpt>
      <trkpt lat="46.9729" lon="8.77387">
        <ele>639</ele>
        <time>2021-08-05T13:52:36.214Z</time>
      </trkpt>
      <trkpt lat="46.9729" lon="8.77388">
        <ele>638</ele>
        <time>2021-08-05T13:52:37.214Z</time>
      </trkpt>
      <trkpt lat="46.97289" lon="8.77388">
        <ele>638</ele>
        <time>2021-08-05T13:52:38.215Z</time>
      </trkpt>
      <trkpt lat="46.97287" lon="8.7739">
        <ele>638</ele>
        <time>2021-08-05T13:52:39.214Z</time>
      </trkpt>
      <trkpt lat="46.97286" lon="8.77391">
        <ele>639</ele>
        <time>2021-08-05T13:52:40.214Z</time>
      </trkpt>
      <trkpt lat="46.97285" lon="8.77392">
        <ele>638</ele>
        <time>2021-08-05T13:52:41.215Z</time>
      </trkpt>
      <trkpt lat="46.97285" lon="8.77394">
        <ele>637</ele>
        <time>2021-08-05T13:52:42.215Z</time>
      </trkpt>
      <trkpt lat="46.97284" lon="8.77395">
        <ele>636</ele>
        <time>2021-08-05T13:52:43.215Z</time>
      </trkpt>
      <trkpt lat="46.97283" lon="8.77397">
        <ele>636</ele>
        <time>2021-08-05T13:52:44.215Z</time>
      </trkpt>
      <trkpt lat="46.97282" lon="8.77398">
        <ele>635</ele>
        <time>2021-08-05T13:52:45.214Z</time>
      </trkpt>
      <trkpt lat="46.97282" lon="8.77399">
        <ele>634</ele>
        <time>2021-08-05T13:52:46.215Z</time>
      </trkpt>
      <trkpt lat="46.97281" lon="8.774">
        <ele>634</ele>
        <time>2021-08-05T13:52:47.215Z</time>
      </trkpt>
      <trkpt lat="46.97281" lon="8.77402">
        <ele>633</ele>
        <time>2021-08-05T13:52:48.215Z</time>
      </trkpt>
      <trkpt lat="46.97281" lon="8.77404">
        <ele>633</ele>
        <time>2021-08-05T13:52:49.215Z</time>
      </trkpt>
      <trkpt lat="46.97281" lon="8.77404">
        <ele>632</ele>
        <time>2021-08-05T13:52:50.215Z</time>
      </trkpt>
      <trkpt lat="46.97281" lon="8.77405">
        <ele>632</ele>
        <time>2021-08-05T13:52:51.215Z</time>
      </trkpt>
      <trkpt lat="46.97284" lon="8.77407">
        <ele>637</ele>
        <time>2021-08-05T13:52:52.215Z</time>
      </trkpt>
      <trkpt lat="46.97284" lon="8.77407">
        <ele>637</ele>
        <time>2021-08-05T13:52:53.215Z</time>
      </trkpt>
      <trkpt lat="46.97285" lon="8.77406">
        <ele>638</ele>
        <time>2021-08-05T13:52:54.214Z</time>
      </trkpt>
      <trkpt lat="46.97289" lon="8.77407">
        <ele>641</ele>
        <time>2021-08-05T13:52:55.214Z</time>
      </trkpt>
      <trkpt lat="46.97289" lon="8.77406">
        <ele>641</ele>
        <time>2021-08-05T13:52:56.215Z</time>
      </trkpt>
      <trkpt lat="46.97291" lon="8.77404">
        <ele>641</ele>
        <time>2021-08-05T13:52:57.214Z</time>
      </trkpt>
      <trkpt lat="46.97292" lon="8.77403">
        <ele>640</ele>
        <time>2021-08-05T13:52:58.215Z</time>
      </trkpt>
      <trkpt lat="46.97293" lon="8.77402">
        <ele>640</ele>
        <time>2021-08-05T13:52:59.215Z</time>
      </trkpt>
      <trkpt lat="46.97294" lon="8.77401">
        <ele>639</ele>
        <time>2021-08-05T13:53:00.214Z</time>
      </trkpt>
      <trkpt lat="46.97294" lon="8.77399">
        <ele>638</ele>
        <time>2021-08-05T13:53:01.215Z</time>
      </trkpt>
      <trkpt lat="46.97294" lon="8.77398">
        <ele>638</ele>
        <time>2021-08-05T13:53:02.214Z</time>
      </trkpt>
      <trkpt lat="46.97294" lon="8.77397">
        <ele>637</ele>
        <time>2021-08-05T13:53:03.215Z</time>
      </trkpt>
      <trkpt lat="46.97294" lon="8.77395">
        <ele>637</ele>
        <time>2021-08-05T13:53:04.215Z</time>
      </trkpt>
      <trkpt lat="46.97294" lon="8.77395">
        <ele>636</ele>
        <time>2021-08-05T13:53:05.215Z</time>
      </trkpt>
      <trkpt lat="46.97294" lon="8.77394">
        <ele>636</ele>
        <time>2021-08-05T13:53:06.215Z</time>
      </trkpt>
      <trkpt lat="46.97295" lon="8.77394">
        <ele>636</ele>
        <time>2021-08-05T13:53:07.214Z</time>
      </trkpt>
      <trkpt lat="46.97296" lon="8.77393">
        <ele>635</ele>
        <time>2021-08-05T13:53:08.214Z</time>
      </trkpt>
      <trkpt lat="46.97297" lon="8.77394">
        <ele>635</ele>
        <time>2021-08-05T13:53:09.214Z</time>
      </trkpt>
      <trkpt lat="46.97298" lon="8.77393">
        <ele>635</ele>
        <time>2021-08-05T13:53:10.214Z</time>
      </trkpt>
      <trkpt lat="46.97299" lon="8.77392">
        <ele>635</ele>
        <time>2021-08-05T13:53:11.215Z</time>
      </trkpt>
      <trkpt lat="46.97299" lon="8.77391">
        <ele>634</ele>
        <time>2021-08-05T13:53:12.215Z</time>
      </trkpt>
      <trkpt lat="46.973" lon="8.77391">
        <ele>634</ele>
        <time>2021-08-05T13:53:13.214Z</time>
      </trkpt>
      <trkpt lat="46.97301" lon="8.77391">
        <ele>634</ele>
        <time>2021-08-05T13:53:14.215Z</time>
      </trkpt>
      <trkpt lat="46.97303" lon="8.77392">
        <ele>634</ele>
        <time>2021-08-05T13:53:15.214Z</time>
      </trkpt>
      <trkpt lat="46.97305" lon="8.77393">
        <ele>634</ele>
        <time>2021-08-05T13:53:16.215Z</time>
      </trkpt>
      <trkpt lat="46.97306" lon="8.77395">
        <ele>633</ele>
        <time>2021-08-05T13:53:17.214Z</time>
      </trkpt>
      <trkpt lat="46.97308" lon="8.77396">
        <ele>633</ele>
        <time>2021-08-05T13:53:18.215Z</time>
      </trkpt>
      <trkpt lat="46.97309" lon="8.77398">
        <ele>632</ele>
        <time>2021-08-05T13:53:19.215Z</time>
      </trkpt>
      <trkpt lat="46.97309" lon="8.77399">
        <ele>632</ele>
        <time>2021-08-05T13:53:20.214Z</time>
      </trkpt>
      <trkpt lat="46.97309" lon="8.774">
        <ele>632</ele>
        <time>2021-08-05T13:53:21.214Z</time>
      </trkpt>
      <trkpt lat="46.9731" lon="8.77401">
        <ele>631</ele>
        <time>2021-08-05T13:53:22.215Z</time>
      </trkpt>
      <trkpt lat="46.9731" lon="8.77401">
        <ele>631</ele>
        <time>2021-08-05T13:53:23.215Z</time>
      </trkpt>
      <trkpt lat="46.9731" lon="8.77402">
        <ele>631</ele>
        <time>2021-08-05T13:53:24.215Z</time>
      </trkpt>
      <trkpt lat="46.9731" lon="8.77403">
        <ele>630</ele>
        <time>2021-08-05T13:53:25.214Z</time>
      </trkpt>
      <trkpt lat="46.9731" lon="8.77405">
        <ele>630</ele>
        <time>2021-08-05T13:53:26.214Z</time>
      </trkpt>
      <trkpt lat="46.9731" lon="8.77406">
        <ele>630</ele>
        <time>2021-08-05T13:53:27.215Z</time>
      </trkpt>
      <trkpt lat="46.97311" lon="8.77406">
        <ele>630</ele>
        <time>2021-08-05T13:53:28.214Z</time>
      </trkpt>
      <trkpt lat="46.97312" lon="8.77408">
        <ele>630</ele>
        <time>2021-08-05T13:53:29.215Z</time>
      </trkpt>
      <trkpt lat="46.97312" lon="8.7741">
        <ele>630</ele>
        <time>2021-08-05T13:53:30.215Z</time>
      </trkpt>
      <trkpt lat="46.97312" lon="8.77412">
        <ele>630</ele>
        <time>2021-08-05T13:53:31.215Z</time>
      </trkpt>
      <trkpt lat="46.97312" lon="8.77413">
        <ele>630</ele>
        <time>2021-08-05T13:53:32.214Z</time>
      </trkpt>
      <trkpt lat="46.97313" lon="8.77414">
        <ele>630</ele>
        <time>2021-08-05T13:53:33.214Z</time>
      </trkpt>
      <trkpt lat="46.97313" lon="8.77414">
        <ele>630</ele>
        <time>2021-08-05T13:53:34.214Z</time>
      </trkpt>
      <trkpt lat="46.97314" lon="8.77415">
        <ele>631</ele>
        <time>2021-08-05T13:53:35.215Z</time>
      </trkpt>
      <trkpt lat="46.97316" lon="8.77417">
        <ele>631</ele>
        <time>2021-08-05T13:53:36.214Z</time>
      </trkpt>
      <trkpt lat="46.97317" lon="8.77418">
        <ele>631</ele>
        <time>2021-08-05T13:53:37.215Z</time>
      </trkpt>
      <trkpt lat="46.97317" lon="8.7742">
        <ele>631</ele>
        <time>2021-08-05T13:53:38.215Z</time>
      </trkpt>
      <trkpt lat="46.97317" lon="8.77421">
        <ele>632</ele>
        <time>2021-08-05T13:53:39.215Z</time>
      </trkpt>
      <trkpt lat="46.97316" lon="8.77422">
        <ele>632</ele>
        <time>2021-08-05T13:53:40.214Z</time>
      </trkpt>
      <trkpt lat="46.97316" lon="8.77422">
        <ele>632</ele>
        <time>2021-08-05T13:53:41.215Z</time>
      </trkpt>
      <trkpt lat="46.97316" lon="8.77422">
        <ele>633</ele>
        <time>2021-08-05T13:53:42.214Z</time>
      </trkpt>
      <trkpt lat="46.97317" lon="8.77423">
        <ele>633</ele>
        <time>2021-08-05T13:53:43.215Z</time>
      </trkpt>
      <trkpt lat="46.9732" lon="8.77423">
        <ele>635</ele>
        <time>2021-08-05T13:53:44.216Z</time>
      </trkpt>
      <trkpt lat="46.97319" lon="8.77423">
        <ele>635</ele>
        <time>2021-08-05T13:53:45.216Z</time>
      </trkpt>
      <trkpt lat="46.97319" lon="8.77423">
        <ele>634</ele>
        <time>2021-08-05T13:53:46.215Z</time>
      </trkpt>
      <trkpt lat="46.97321" lon="8.77423">
        <ele>634</ele>
        <time>2021-08-05T13:53:47.216Z</time>
      </trkpt>
      <trkpt lat="46.97322" lon="8.77423">
        <ele>634</ele>
        <time>2021-08-05T13:53:48.216Z</time>
      </trkpt>
      <trkpt lat="46.97322" lon="8.77424">
        <ele>634</ele>
        <time>2021-08-05T13:53:49.215Z</time>
      </trkpt>
      <trkpt lat="46.97322" lon="8.77424">
        <ele>633</ele>
        <time>2021-08-05T13:53:50.216Z</time>
      </trkpt>
      <trkpt lat="46.97322" lon="8.77424">
        <ele>633</ele>
        <time>2021-08-05T13:53:51.216Z</time>
      </trkpt>
      <trkpt lat="46.97322" lon="8.77425">
        <ele>633</ele>
        <time>2021-08-05T13:53:52.215Z</time>
      </trkpt>
      <trkpt lat="46.97322" lon="8.77426">
        <ele>632</ele>
        <time>2021-08-05T13:53:53.215Z</time>
      </trkpt>
      <trkpt lat="46.97322" lon="8.77426">
        <ele>632</ele>
        <time>2021-08-05T13:53:54.216Z</time>
      </trkpt>
      <trkpt lat="46.97322" lon="8.77427">
        <ele>632</ele>
        <time>2021-08-05T13:53:55.216Z</time>
      </trkpt>
      <trkpt lat="46.97321" lon="8.77428">
        <ele>631</ele>
        <time>2021-08-05T13:53:56.216Z</time>
      </trkpt>
      <trkpt lat="46.97321" lon="8.77429">
        <ele>631</ele>
        <time>2021-08-05T13:53:57.216Z</time>
      </trkpt>
      <trkpt lat="46.97322" lon="8.7743">
        <ele>630</ele>
        <time>2021-08-05T13:53:58.216Z</time>
      </trkpt>
      <trkpt lat="46.97322" lon="8.77431">
        <ele>629</ele>
        <time>2021-08-05T13:53:59.216Z</time>
      </trkpt>
      <trkpt lat="46.97323" lon="8.77432">
        <ele>629</ele>
        <time>2021-08-05T13:54:00.216Z</time>
      </trkpt>
      <trkpt lat="46.97324" lon="8.77433">
        <ele>629</ele>
        <time>2021-08-05T13:54:01.215Z</time>
      </trkpt>
      <trkpt lat="46.97325" lon="8.77434">
        <ele>628</ele>
        <time>2021-08-05T13:54:02.216Z</time>
      </trkpt>
      <trkpt lat="46.97325" lon="8.77434">
        <ele>628</ele>
        <time>2021-08-05T13:54:03.216Z</time>
      </trkpt>
      <trkpt lat="46.97326" lon="8.77434">
        <ele>628</ele>
        <time>2021-08-05T13:54:04.215Z</time>
      </trkpt>
      <trkpt lat="46.97327" lon="8.77435">
        <ele>628</ele>
        <time>2021-08-05T13:54:05.216Z</time>
      </trkpt>
      <trkpt lat="46.97328" lon="8.77435">
        <ele>628</ele>
        <time>2021-08-05T13:54:06.215Z</time>
      </trkpt>
      <trkpt lat="46.97329" lon="8.77435">
        <ele>628</ele>
        <time>2021-08-05T13:54:07.216Z</time>
      </trkpt>
      <trkpt lat="46.9733" lon="8.77435">
        <ele>628</ele>
        <time>2021-08-05T13:54:08.216Z</time>
      </trkpt>
      <trkpt lat="46.97331" lon="8.77435">
        <ele>628</ele>
        <time>2021-08-05T13:54:09.216Z</time>
      </trkpt>
      <trkpt lat="46.97331" lon="8.77435">
        <ele>628</ele>
        <time>2021-08-05T13:54:10.216Z</time>
      </trkpt>
      <trkpt lat="46.97332" lon="8.77435">
        <ele>628</ele>
        <time>2021-08-05T13:54:11.216Z</time>
      </trkpt>
      <trkpt lat="46.97334" lon="8.77435">
        <ele>628</ele>
        <time>2021-08-05T13:54:12.215Z</time>
      </trkpt>
      <trkpt lat="46.97335" lon="8.77435">
        <ele>628</ele>
        <time>2021-08-05T13:54:13.216Z</time>
      </trkpt>
      <trkpt lat="46.97336" lon="8.77435">
        <ele>628</ele>
        <time>2021-08-05T13:54:14.216Z</time>
      </trkpt>
      <trkpt lat="46.97336" lon="8.77434">
        <ele>628</ele>
        <time>2021-08-05T13:54:15.215Z</time>
      </trkpt>
      <trkpt lat="46.97337" lon="8.77434">
        <ele>628</ele>
        <time>2021-08-05T13:54:16.216Z</time>
      </trkpt>
      <trkpt lat="46.97338" lon="8.77435">
        <ele>628</ele>
        <time>2021-08-05T13:54:17.216Z</time>
      </trkpt>
      <trkpt lat="46.97339" lon="8.77435">
        <ele>628</ele>
        <time>2021-08-05T13:54:18.216Z</time>
      </trkpt>
      <trkpt lat="46.97339" lon="8.77437">
        <ele>628</ele>
        <time>2021-08-05T13:54:19.216Z</time>
      </trkpt>
      <trkpt lat="46.97339" lon="8.77438">
        <ele>628</ele>
        <time>2021-08-05T13:54:20.215Z</time>
      </trkpt>
      <trkpt lat="46.97338" lon="8.77439">
        <ele>627</ele>
        <time>2021-08-05T13:54:21.216Z</time>
      </trkpt>
      <trkpt lat="46.97338" lon="8.7744">
        <ele>627</ele>
        <time>2021-08-05T13:54:22.215Z</time>
      </trkpt>
      <trkpt lat="46.97338" lon="8.77441">
        <ele>626</ele>
        <time>2021-08-05T13:54:23.215Z</time>
      </trkpt>
      <trkpt lat="46.97338" lon="8.77443">
        <ele>626</ele>
        <time>2021-08-05T13:54:24.216Z</time>
      </trkpt>
      <trkpt lat="46.97339" lon="8.77444">
        <ele>625</ele>
        <time>2021-08-05T13:54:25.216Z</time>
      </trkpt>
      <trkpt lat="46.97339" lon="8.77446">
        <ele>625</ele>
        <time>2021-08-05T13:54:26.215Z</time>
      </trkpt>
      <trkpt lat="46.97339" lon="8.77448">
        <ele>625</ele>
        <time>2021-08-05T13:54:27.216Z</time>
      </trkpt>
      <trkpt lat="46.97339" lon="8.77449">
        <ele>625</ele>
        <time>2021-08-05T13:54:28.216Z</time>
      </trkpt>
      <trkpt lat="46.9734" lon="8.77451">
        <ele>625</ele>
        <time>2021-08-05T13:54:29.216Z</time>
      </trkpt>
      <trkpt lat="46.9734" lon="8.77453">
        <ele>626</ele>
        <time>2021-08-05T13:54:30.216Z</time>
      </trkpt>
      <trkpt lat="46.97341" lon="8.77455">
        <ele>626</ele>
        <time>2021-08-05T13:54:31.216Z</time>
      </trkpt>
      <trkpt lat="46.97341" lon="8.77456">
        <ele>626</ele>
        <time>2021-08-05T13:54:32.216Z</time>
      </trkpt>
      <trkpt lat="46.97342" lon="8.77458">
        <ele>626</ele>
        <time>2021-08-05T13:54:33.216Z</time>
      </trkpt>
      <trkpt lat="46.97342" lon="8.7746">
        <ele>627</ele>
        <time>2021-08-05T13:54:34.216Z</time>
      </trkpt>
      <trkpt lat="46.97342" lon="8.77461">
        <ele>627</ele>
        <time>2021-08-05T13:54:35.215Z</time>
      </trkpt>
      <trkpt lat="46.97343" lon="8.77463">
        <ele>627</ele>
        <time>2021-08-05T13:54:36.216Z</time>
      </trkpt>
      <trkpt lat="46.97343" lon="8.77464">
        <ele>627</ele>
        <time>2021-08-05T13:54:37.216Z</time>
      </trkpt>
      <trkpt lat="46.97344" lon="8.77465">
        <ele>626</ele>
        <time>2021-08-05T13:54:38.216Z</time>
      </trkpt>
      <trkpt lat="46.97344" lon="8.77467">
        <ele>626</ele>
        <time>2021-08-05T13:54:39.216Z</time>
      </trkpt>
      <trkpt lat="46.97344" lon="8.77468">
        <ele>626</ele>
        <time>2021-08-05T13:54:40.216Z</time>
      </trkpt>
      <trkpt lat="46.97344" lon="8.7747">
        <ele>626</ele>
        <time>2021-08-05T13:54:41.216Z</time>
      </trkpt>
      <trkpt lat="46.97345" lon="8.77471">
        <ele>626</ele>
        <time>2021-08-05T13:54:42.216Z</time>
      </trkpt>
      <trkpt lat="46.97345" lon="8.77473">
        <ele>626</ele>
        <time>2021-08-05T13:54:43.215Z</time>
      </trkpt>
      <trkpt lat="46.97345" lon="8.77475">
        <ele>626</ele>
        <time>2021-08-05T13:54:44.215Z</time>
      </trkpt>
      <trkpt lat="46.97345" lon="8.77477">
        <ele>627</ele>
        <time>2021-08-05T13:54:45.216Z</time>
      </trkpt>
      <trkpt lat="46.97346" lon="8.77478">
        <ele>626</ele>
        <time>2021-08-05T13:54:46.216Z</time>
      </trkpt>
      <trkpt lat="46.97346" lon="8.7748">
        <ele>626</ele>
        <time>2021-08-05T13:54:47.215Z</time>
      </trkpt>
      <trkpt lat="46.97346" lon="8.77482">
        <ele>626</ele>
        <time>2021-08-05T13:54:48.215Z</time>
      </trkpt>
      <trkpt lat="46.97347" lon="8.77484">
        <ele>626</ele>
        <time>2021-08-05T13:54:49.216Z</time>
      </trkpt>
      <trkpt lat="46.97347" lon="8.77485">
        <ele>626</ele>
        <time>2021-08-05T13:54:50.215Z</time>
      </trkpt>
      <trkpt lat="46.97347" lon="8.77487">
        <ele>626</ele>
        <time>2021-08-05T13:54:51.216Z</time>
      </trkpt>
      <trkpt lat="46.97347" lon="8.77489">
        <ele>625</ele>
        <time>2021-08-05T13:54:52.216Z</time>
      </trkpt>
      <trkpt lat="46.97348" lon="8.7749">
        <ele>625</ele>
        <time>2021-08-05T13:54:53.216Z</time>
      </trkpt>
      <trkpt lat="46.97348" lon="8.77492">
        <ele>625</ele>
        <time>2021-08-05T13:54:54.216Z</time>
      </trkpt>
      <trkpt lat="46.97349" lon="8.77494">
        <ele>626</ele>
        <time>2021-08-05T13:54:55.215Z</time>
      </trkpt>
      <trkpt lat="46.97349" lon="8.77496">
        <ele>625</ele>
        <time>2021-08-05T13:54:56.216Z</time>
      </trkpt>
      <trkpt lat="46.97349" lon="8.77497">
        <ele>625</ele>
        <time>2021-08-05T13:54:57.215Z</time>
      </trkpt>
      <trkpt lat="46.97349" lon="8.77499">
        <ele>625</ele>
        <time>2021-08-05T13:54:58.216Z</time>
      </trkpt>
      <trkpt lat="46.97349" lon="8.775">
        <ele>625</ele>
        <time>2021-08-05T13:54:59.216Z</time>
      </trkpt>
      <trkpt lat="46.9735" lon="8.77502">
        <ele>625</ele>
        <time>2021-08-05T13:55:00.216Z</time>
      </trkpt>
      <trkpt lat="46.9735" lon="8.77503">
        <ele>625</ele>
        <time>2021-08-05T13:55:01.215Z</time>
      </trkpt>
      <trkpt lat="46.9735" lon="8.77505">
        <ele>624</ele>
        <time>2021-08-05T13:55:02.216Z</time>
      </trkpt>
      <trkpt lat="46.97351" lon="8.77506">
        <ele>624</ele>
        <time>2021-08-05T13:55:03.216Z</time>
      </trkpt>
      <trkpt lat="46.97351" lon="8.77508">
        <ele>624</ele>
        <time>2021-08-05T13:55:04.215Z</time>
      </trkpt>
      <trkpt lat="46.97351" lon="8.7751">
        <ele>624</ele>
        <time>2021-08-05T13:55:05.216Z</time>
      </trkpt>
      <trkpt lat="46.97352" lon="8.77511">
        <ele>624</ele>
        <time>2021-08-05T13:55:06.215Z</time>
      </trkpt>
      <trkpt lat="46.97352" lon="8.77513">
        <ele>624</ele>
        <time>2021-08-05T13:55:07.216Z</time>
      </trkpt>
      <trkpt lat="46.97352" lon="8.77514">
        <ele>624</ele>
        <time>2021-08-05T13:55:08.216Z</time>
      </trkpt>
      <trkpt lat="46.97352" lon="8.77515">
        <ele>624</ele>
        <time>2021-08-05T13:55:09.216Z</time>
      </trkpt>
      <trkpt lat="46.97352" lon="8.77517">
        <ele>624</ele>
        <time>2021-08-05T13:55:10.215Z</time>
      </trkpt>
      <trkpt lat="46.97352" lon="8.77519">
        <ele>624</ele>
        <time>2021-08-05T13:55:11.215Z</time>
      </trkpt>
      <trkpt lat="46.97353" lon="8.77521">
        <ele>624</ele>
        <time>2021-08-05T13:55:12.216Z</time>
      </trkpt>
      <trkpt lat="46.97353" lon="8.77522">
        <ele>624</ele>
        <time>2021-08-05T13:55:13.216Z</time>
      </trkpt>
      <trkpt lat="46.97354" lon="8.77524">
        <ele>624</ele>
        <time>2021-08-05T13:55:14.216Z</time>
      </trkpt>
      <trkpt lat="46.97354" lon="8.77527">
        <ele>625</ele>
        <time>2021-08-05T13:55:15.216Z</time>
      </trkpt>
      <trkpt lat="46.97354" lon="8.77528">
        <ele>625</ele>
        <time>2021-08-05T13:55:16.216Z</time>
      </trkpt>
      <trkpt lat="46.97354" lon="8.77532">
        <ele>625</ele>
        <time>2021-08-05T13:55:17.216Z</time>
      </trkpt>
      <trkpt lat="46.97354" lon="8.77535">
        <ele>625</ele>
        <time>2021-08-05T13:55:18.216Z</time>
      </trkpt>
      <trkpt lat="46.97353" lon="8.77538">
        <ele>626</ele>
        <time>2021-08-05T13:55:19.216Z</time>
      </trkpt>
      <trkpt lat="46.97354" lon="8.7754">
        <ele>626</ele>
        <time>2021-08-05T13:55:20.215Z</time>
      </trkpt>
      <trkpt lat="46.97354" lon="8.77542">
        <ele>626</ele>
        <time>2021-08-05T13:55:21.215Z</time>
      </trkpt>
      <trkpt lat="46.97354" lon="8.77544">
        <ele>627</ele>
        <time>2021-08-05T13:55:22.216Z</time>
      </trkpt>
      <trkpt lat="46.97355" lon="8.77546">
        <ele>627</ele>
        <time>2021-08-05T13:55:23.216Z</time>
      </trkpt>
      <trkpt lat="46.97355" lon="8.77547">
        <ele>627</ele>
        <time>2021-08-05T13:55:24.216Z</time>
      </trkpt>
      <trkpt lat="46.97355" lon="8.77549">
        <ele>626</ele>
        <time>2021-08-05T13:55:25.216Z</time>
      </trkpt>
      <trkpt lat="46.97355" lon="8.7755">
        <ele>626</ele>
        <time>2021-08-05T13:55:26.215Z</time>
      </trkpt>
      <trkpt lat="46.97355" lon="8.77552">
        <ele>626</ele>
        <time>2021-08-05T13:55:27.216Z</time>
      </trkpt>
      <trkpt lat="46.97356" lon="8.77554">
        <ele>626</ele>
        <time>2021-08-05T13:55:28.216Z</time>
      </trkpt>
      <trkpt lat="46.97356" lon="8.77555">
        <ele>626</ele>
        <time>2021-08-05T13:55:29.216Z</time>
      </trkpt>
      <trkpt lat="46.97356" lon="8.77556">
        <ele>625</ele>
        <time>2021-08-05T13:55:30.215Z</time>
      </trkpt>
      <trkpt lat="46.97357" lon="8.77557">
        <ele>625</ele>
        <time>2021-08-05T13:55:31.216Z</time>
      </trkpt>
      <trkpt lat="46.97357" lon="8.77559">
        <ele>625</ele>
        <time>2021-08-05T13:55:32.215Z</time>
      </trkpt>
      <trkpt lat="46.97358" lon="8.77561">
        <ele>624</ele>
        <time>2021-08-05T13:55:33.216Z</time>
      </trkpt>
      <trkpt lat="46.97358" lon="8.77562">
        <ele>625</ele>
        <time>2021-08-05T13:55:34.216Z</time>
      </trkpt>
      <trkpt lat="46.97359" lon="8.77564">
        <ele>625</ele>
        <time>2021-08-05T13:55:35.215Z</time>
      </trkpt>
      <trkpt lat="46.97359" lon="8.77565">
        <ele>625</ele>
        <time>2021-08-05T13:55:36.216Z</time>
      </trkpt>
      <trkpt lat="46.9736" lon="8.77567">
        <ele>626</ele>
        <time>2021-08-05T13:55:37.216Z</time>
      </trkpt>
      <trkpt lat="46.97361" lon="8.77568">
        <ele>626</ele>
        <time>2021-08-05T13:55:38.216Z</time>
      </trkpt>
      <trkpt lat="46.97361" lon="8.77569">
        <ele>626</ele>
        <time>2021-08-05T13:55:39.215Z</time>
      </trkpt>
      <trkpt lat="46.97362" lon="8.77571">
        <ele>626</ele>
        <time>2021-08-05T13:55:40.216Z</time>
      </trkpt>
      <trkpt lat="46.97363" lon="8.77573">
        <ele>626</ele>
        <time>2021-08-05T13:55:41.216Z</time>
      </trkpt>
      <trkpt lat="46.97364" lon="8.77575">
        <ele>626</ele>
        <time>2021-08-05T13:55:42.216Z</time>
      </trkpt>
      <trkpt lat="46.97364" lon="8.77576">
        <ele>626</ele>
        <time>2021-08-05T13:55:43.215Z</time>
      </trkpt>
      <trkpt lat="46.97365" lon="8.77577">
        <ele>626</ele>
        <time>2021-08-05T13:55:44.215Z</time>
      </trkpt>
      <trkpt lat="46.97364" lon="8.77579">
        <ele>626</ele>
        <time>2021-08-05T13:55:45.216Z</time>
      </trkpt>
      <trkpt lat="46.97365" lon="8.77581">
        <ele>626</ele>
        <time>2021-08-05T13:55:46.215Z</time>
      </trkpt>
      <trkpt lat="46.97365" lon="8.77583">
        <ele>626</ele>
        <time>2021-08-05T13:55:47.216Z</time>
      </trkpt>
      <trkpt lat="46.97365" lon="8.77585">
        <ele>625</ele>
        <time>2021-08-05T13:55:48.216Z</time>
      </trkpt>
      <trkpt lat="46.97365" lon="8.77586">
        <ele>625</ele>
        <time>2021-08-05T13:55:49.215Z</time>
      </trkpt>
      <trkpt lat="46.97365" lon="8.77588">
        <ele>625</ele>
        <time>2021-08-05T13:55:50.215Z</time>
      </trkpt>
      <trkpt lat="46.97366" lon="8.7759">
        <ele>625</ele>
        <time>2021-08-05T13:55:51.215Z</time>
      </trkpt>
      <trkpt lat="46.97365" lon="8.77593">
        <ele>625</ele>
        <time>2021-08-05T13:55:52.215Z</time>
      </trkpt>
      <trkpt lat="46.97365" lon="8.77595">
        <ele>625</ele>
        <time>2021-08-05T13:55:53.215Z</time>
      </trkpt>
      <trkpt lat="46.97364" lon="8.77597">
        <ele>625</ele>
        <time>2021-08-05T13:55:54.215Z</time>
      </trkpt>
      <trkpt lat="46.97364" lon="8.77599">
        <ele>625</ele>
        <time>2021-08-05T13:55:55.215Z</time>
      </trkpt>
      <trkpt lat="46.97363" lon="8.77601">
        <ele>625</ele>
        <time>2021-08-05T13:55:56.215Z</time>
      </trkpt>
      <trkpt lat="46.97363" lon="8.77602">
        <ele>625</ele>
        <time>2021-08-05T13:55:57.215Z</time>
      </trkpt>
      <trkpt lat="46.97363" lon="8.77603">
        <ele>624</ele>
        <time>2021-08-05T13:55:58.215Z</time>
      </trkpt>
      <trkpt lat="46.97363" lon="8.77605">
        <ele>624</ele>
        <time>2021-08-05T13:55:59.216Z</time>
      </trkpt>
      <trkpt lat="46.97363" lon="8.77606">
        <ele>624</ele>
        <time>2021-08-05T13:56:00.216Z</time>
      </trkpt>
      <trkpt lat="46.97364" lon="8.77608">
        <ele>624</ele>
        <time>2021-08-05T13:56:01.216Z</time>
      </trkpt>
      <trkpt lat="46.97364" lon="8.77609">
        <ele>624</ele>
        <time>2021-08-05T13:56:02.216Z</time>
      </trkpt>
      <trkpt lat="46.97364" lon="8.77612">
        <ele>624</ele>
        <time>2021-08-05T13:56:03.216Z</time>
      </trkpt>
      <trkpt lat="46.97364" lon="8.77614">
        <ele>624</ele>
        <time>2021-08-05T13:56:04.216Z</time>
      </trkpt>
      <trkpt lat="46.97364" lon="8.77616">
        <ele>623</ele>
        <time>2021-08-05T13:56:05.215Z</time>
      </trkpt>
      <trkpt lat="46.97363" lon="8.77618">
        <ele>623</ele>
        <time>2021-08-05T13:56:06.216Z</time>
      </trkpt>
      <trkpt lat="46.97363" lon="8.77619">
        <ele>623</ele>
        <time>2021-08-05T13:56:07.216Z</time>
      </trkpt>
      <trkpt lat="46.97364" lon="8.77621">
        <ele>623</ele>
        <time>2021-08-05T13:56:08.216Z</time>
      </trkpt>
      <trkpt lat="46.97364" lon="8.77622">
        <ele>623</ele>
        <time>2021-08-05T13:56:09.216Z</time>
      </trkpt>
      <trkpt lat="46.97364" lon="8.77624">
        <ele>623</ele>
        <time>2021-08-05T13:56:10.216Z</time>
      </trkpt>
      <trkpt lat="46.97364" lon="8.77625">
        <ele>624</ele>
        <time>2021-08-05T13:56:11.215Z</time>
      </trkpt>
      <trkpt lat="46.97364" lon="8.77627">
        <ele>624</ele>
        <time>2021-08-05T13:56:12.216Z</time>
      </trkpt>
      <trkpt lat="46.97364" lon="8.77627">
        <ele>624</ele>
        <time>2021-08-05T13:56:13.216Z</time>
      </trkpt>
      <trkpt lat="46.97364" lon="8.77629">
        <ele>624</ele>
        <time>2021-08-05T13:56:14.216Z</time>
      </trkpt>
      <trkpt lat="46.97364" lon="8.7763">
        <ele>624</ele>
        <time>2021-08-05T13:56:15.215Z</time>
      </trkpt>
      <trkpt lat="46.97364" lon="8.77632">
        <ele>623</ele>
        <time>2021-08-05T13:56:16.215Z</time>
      </trkpt>
      <trkpt lat="46.97364" lon="8.77634">
        <ele>623</ele>
        <time>2021-08-05T13:56:17.216Z</time>
      </trkpt>
      <trkpt lat="46.97363" lon="8.77635">
        <ele>622</ele>
        <time>2021-08-05T13:56:18.215Z</time>
      </trkpt>
      <trkpt lat="46.97364" lon="8.77637">
        <ele>622</ele>
        <time>2021-08-05T13:56:19.216Z</time>
      </trkpt>
      <trkpt lat="46.97364" lon="8.77638">
        <ele>621</ele>
        <time>2021-08-05T13:56:20.216Z</time>
      </trkpt>
      <trkpt lat="46.97364" lon="8.77639">
        <ele>621</ele>
        <time>2021-08-05T13:56:21.215Z</time>
      </trkpt>
      <trkpt lat="46.97363" lon="8.77641">
        <ele>621</ele>
        <time>2021-08-05T13:56:22.215Z</time>
      </trkpt>
      <trkpt lat="46.97363" lon="8.77643">
        <ele>620</ele>
        <time>2021-08-05T13:56:23.216Z</time>
      </trkpt>
      <trkpt lat="46.97363" lon="8.77644">
        <ele>620</ele>
        <time>2021-08-05T13:56:24.216Z</time>
      </trkpt>
      <trkpt lat="46.97363" lon="8.77646">
        <ele>620</ele>
        <time>2021-08-05T13:56:25.215Z</time>
      </trkpt>
      <trkpt lat="46.97363" lon="8.77647">
        <ele>621</ele>
        <time>2021-08-05T13:56:26.215Z</time>
      </trkpt>
      <trkpt lat="46.97362" lon="8.7765">
        <ele>621</ele>
        <time>2021-08-05T13:56:27.216Z</time>
      </trkpt>
      <trkpt lat="46.97362" lon="8.77651">
        <ele>621</ele>
        <time>2021-08-05T13:56:28.216Z</time>
      </trkpt>
      <trkpt lat="46.97362" lon="8.77653">
        <ele>621</ele>
        <time>2021-08-05T13:56:29.215Z</time>
      </trkpt>
      <trkpt lat="46.97362" lon="8.77654">
        <ele>622</ele>
        <time>2021-08-05T13:56:30.216Z</time>
      </trkpt>
      <trkpt lat="46.97362" lon="8.77656">
        <ele>622</ele>
        <time>2021-08-05T13:56:31.216Z</time>
      </trkpt>
      <trkpt lat="46.97362" lon="8.77658">
        <ele>622</ele>
        <time>2021-08-05T13:56:32.216Z</time>
      </trkpt>
      <trkpt lat="46.97361" lon="8.77661">
        <ele>623</ele>
        <time>2021-08-05T13:56:33.216Z</time>
      </trkpt>
      <trkpt lat="46.97361" lon="8.77662">
        <ele>623</ele>
        <time>2021-08-05T13:56:34.216Z</time>
      </trkpt>
      <trkpt lat="46.97361" lon="8.77664">
        <ele>623</ele>
        <time>2021-08-05T13:56:35.216Z</time>
      </trkpt>
      <trkpt lat="46.9736" lon="8.77665">
        <ele>623</ele>
        <time>2021-08-05T13:56:36.215Z</time>
      </trkpt>
      <trkpt lat="46.97359" lon="8.77666">
        <ele>624</ele>
        <time>2021-08-05T13:56:37.216Z</time>
      </trkpt>
      <trkpt lat="46.97358" lon="8.77668">
        <ele>624</ele>
        <time>2021-08-05T13:56:38.216Z</time>
      </trkpt>
      <trkpt lat="46.97359" lon="8.7767">
        <ele>624</ele>
        <time>2021-08-05T13:56:39.216Z</time>
      </trkpt>
      <trkpt lat="46.97358" lon="8.77672">
        <ele>625</ele>
        <time>2021-08-05T13:56:40.216Z</time>
      </trkpt>
      <trkpt lat="46.97357" lon="8.77674">
        <ele>625</ele>
        <time>2021-08-05T13:56:41.216Z</time>
      </trkpt>
      <trkpt lat="46.97357" lon="8.77676">
        <ele>624</ele>
        <time>2021-08-05T13:56:42.216Z</time>
      </trkpt>
      <trkpt lat="46.97357" lon="8.77678">
        <ele>624</ele>
        <time>2021-08-05T13:56:43.215Z</time>
      </trkpt>
      <trkpt lat="46.97356" lon="8.7768">
        <ele>624</ele>
        <time>2021-08-05T13:56:54.212Z</time>
      </trkpt>
      <trkpt lat="46.97356" lon="8.77682">
        <ele>625</ele>
        <time>2021-08-05T13:56:58.094Z</time>
      </trkpt>
      <trkpt lat="46.97356" lon="8.77683">
        <ele>625</ele>
        <time>2021-08-05T13:56:59.094Z</time>
      </trkpt>
      <trkpt lat="46.97355" lon="8.77685">
        <ele>625</ele>
        <time>2021-08-05T13:57:00.093Z</time>
      </trkpt>
      <trkpt lat="46.97355" lon="8.77686">
        <ele>626</ele>
        <time>2021-08-05T13:57:01.093Z</time>
      </trkpt>
      <trkpt lat="46.97354" lon="8.77688">
        <ele>626</ele>
        <time>2021-08-05T13:57:02.093Z</time>
      </trkpt>
      <trkpt lat="46.97354" lon="8.7769">
        <ele>626</ele>
        <time>2021-08-05T13:57:03.093Z</time>
      </trkpt>
      <trkpt lat="46.97354" lon="8.77692">
        <ele>626</ele>
        <time>2021-08-05T13:57:04.094Z</time>
      </trkpt>
      <trkpt lat="46.97353" lon="8.77693">
        <ele>626</ele>
        <time>2021-08-05T13:57:05.093Z</time>
      </trkpt>
      <trkpt lat="46.97353" lon="8.77695">
        <ele>626</ele>
        <time>2021-08-05T13:57:06.093Z</time>
      </trkpt>
      <trkpt lat="46.97353" lon="8.77697">
        <ele>626</ele>
        <time>2021-08-05T13:57:07.093Z</time>
      </trkpt>
      <trkpt lat="46.97353" lon="8.77699">
        <ele>625</ele>
        <time>2021-08-05T13:57:08.093Z</time>
      </trkpt>
      <trkpt lat="46.97352" lon="8.777">
        <ele>624</ele>
        <time>2021-08-05T13:57:09.094Z</time>
      </trkpt>
      <trkpt lat="46.97352" lon="8.77702">
        <ele>624</ele>
        <time>2021-08-05T13:57:10.093Z</time>
      </trkpt>
      <trkpt lat="46.97352" lon="8.77703">
        <ele>624</ele>
        <time>2021-08-05T13:57:11.093Z</time>
      </trkpt>
      <trkpt lat="46.97351" lon="8.77705">
        <ele>624</ele>
        <time>2021-08-05T13:57:12.093Z</time>
      </trkpt>
      <trkpt lat="46.97351" lon="8.77706">
        <ele>624</ele>
        <time>2021-08-05T13:57:13.093Z</time>
      </trkpt>
      <trkpt lat="46.97351" lon="8.77708">
        <ele>624</ele>
        <time>2021-08-05T13:57:14.093Z</time>
      </trkpt>
      <trkpt lat="46.97351" lon="8.77709">
        <ele>624</ele>
        <time>2021-08-05T13:57:15.093Z</time>
      </trkpt>
      <trkpt lat="46.9735" lon="8.77711">
        <ele>624</ele>
        <time>2021-08-05T13:57:16.093Z</time>
      </trkpt>
      <trkpt lat="46.97349" lon="8.77712">
        <ele>625</ele>
        <time>2021-08-05T13:57:17.093Z</time>
      </trkpt>
      <trkpt lat="46.97349" lon="8.77714">
        <ele>625</ele>
        <time>2021-08-05T13:57:18.093Z</time>
      </trkpt>
      <trkpt lat="46.97349" lon="8.77715">
        <ele>626</ele>
        <time>2021-08-05T13:57:19.093Z</time>
      </trkpt>
      <trkpt lat="46.97348" lon="8.77717">
        <ele>627</ele>
        <time>2021-08-05T13:57:26.210Z</time>
      </trkpt>
      <trkpt lat="46.97348" lon="8.77719">
        <ele>628</ele>
        <time>2021-08-05T13:57:40.117Z</time>
      </trkpt>
      <trkpt lat="46.97348" lon="8.7772">
        <ele>628</ele>
        <time>2021-08-05T13:57:41.965Z</time>
      </trkpt>
      <trkpt lat="46.97348" lon="8.77721">
        <ele>629</ele>
        <time>2021-08-05T13:57:42.965Z</time>
      </trkpt>
      <trkpt lat="46.97348" lon="8.77722">
        <ele>629</ele>
        <time>2021-08-05T13:57:43.966Z</time>
      </trkpt>
      <trkpt lat="46.97348" lon="8.77723">
        <ele>629</ele>
        <time>2021-08-05T13:57:44.965Z</time>
      </trkpt>
      <trkpt lat="46.97347" lon="8.77725">
        <ele>630</ele>
        <time>2021-08-05T13:57:45.965Z</time>
      </trkpt>
      <trkpt lat="46.97347" lon="8.77727">
        <ele>630</ele>
        <time>2021-08-05T13:57:46.965Z</time>
      </trkpt>
      <trkpt lat="46.97347" lon="8.77728">
        <ele>630</ele>
        <time>2021-08-05T13:57:47.966Z</time>
      </trkpt>
      <trkpt lat="46.97347" lon="8.77729">
        <ele>630</ele>
        <time>2021-08-05T13:57:48.966Z</time>
      </trkpt>
      <trkpt lat="46.97346" lon="8.77731">
        <ele>631</ele>
        <time>2021-08-05T13:57:49.966Z</time>
      </trkpt>
      <trkpt lat="46.97346" lon="8.77732">
        <ele>631</ele>
        <time>2021-08-05T13:57:50.965Z</time>
      </trkpt>
      <trkpt lat="46.97345" lon="8.77733">
        <ele>631</ele>
        <time>2021-08-05T13:57:51.965Z</time>
      </trkpt>
      <trkpt lat="46.97345" lon="8.77735">
        <ele>631</ele>
        <time>2021-08-05T13:57:52.965Z</time>
      </trkpt>
      <trkpt lat="46.97345" lon="8.77736">
        <ele>631</ele>
        <time>2021-08-05T13:57:53.965Z</time>
      </trkpt>
      <trkpt lat="46.97345" lon="8.77737">
        <ele>632</ele>
        <time>2021-08-05T13:57:54.966Z</time>
      </trkpt>
      <trkpt lat="46.97346" lon="8.7774">
        <ele>632</ele>
        <time>2021-08-05T13:57:55.966Z</time>
      </trkpt>
      <trkpt lat="46.97347" lon="8.77742">
        <ele>632</ele>
        <time>2021-08-05T13:57:56.966Z</time>
      </trkpt>
      <trkpt lat="46.97347" lon="8.77743">
        <ele>632</ele>
        <time>2021-08-05T13:57:57.966Z</time>
      </trkpt>
      <trkpt lat="46.97347" lon="8.77745">
        <ele>632</ele>
        <time>2021-08-05T13:57:58.965Z</time>
      </trkpt>
      <trkpt lat="46.97348" lon="8.77746">
        <ele>632</ele>
        <time>2021-08-05T13:57:59.965Z</time>
      </trkpt>
      <trkpt lat="46.97348" lon="8.77748">
        <ele>632</ele>
        <time>2021-08-05T13:58:00.966Z</time>
      </trkpt>
      <trkpt lat="46.97347" lon="8.77751">
        <ele>632</ele>
        <time>2021-08-05T13:58:01.965Z</time>
      </trkpt>
      <trkpt lat="46.97347" lon="8.77753">
        <ele>632</ele>
        <time>2021-08-05T13:58:02.966Z</time>
      </trkpt>
      <trkpt lat="46.97347" lon="8.77754">
        <ele>632</ele>
        <time>2021-08-05T13:58:03.966Z</time>
      </trkpt>
      <trkpt lat="46.97347" lon="8.77756">
        <ele>632</ele>
        <time>2021-08-05T13:58:04.965Z</time>
      </trkpt>
      <trkpt lat="46.97346" lon="8.77758">
        <ele>632</ele>
        <time>2021-08-05T13:58:05.966Z</time>
      </trkpt>
      <trkpt lat="46.97345" lon="8.77759">
        <ele>632</ele>
        <time>2021-08-05T13:58:06.966Z</time>
      </trkpt>
      <trkpt lat="46.97344" lon="8.77761">
        <ele>631</ele>
        <time>2021-08-05T13:58:07.966Z</time>
      </trkpt>
      <trkpt lat="46.97344" lon="8.77763">
        <ele>631</ele>
        <time>2021-08-05T13:58:08.966Z</time>
      </trkpt>
      <trkpt lat="46.97342" lon="8.77764">
        <ele>631</ele>
        <time>2021-08-05T13:58:09.966Z</time>
      </trkpt>
      <trkpt lat="46.97341" lon="8.77766">
        <ele>630</ele>
        <time>2021-08-05T13:58:10.966Z</time>
      </trkpt>
      <trkpt lat="46.97341" lon="8.77767">
        <ele>630</ele>
        <time>2021-08-05T13:58:11.966Z</time>
      </trkpt>
      <trkpt lat="46.97341" lon="8.77768">
        <ele>630</ele>
        <time>2021-08-05T13:58:12.966Z</time>
      </trkpt>
      <trkpt lat="46.97341" lon="8.77769">
        <ele>630</ele>
        <time>2021-08-05T13:58:13.966Z</time>
      </trkpt>
      <trkpt lat="46.9734" lon="8.77771">
        <ele>630</ele>
        <time>2021-08-05T13:58:14.966Z</time>
      </trkpt>
      <trkpt lat="46.97339" lon="8.77772">
        <ele>629</ele>
        <time>2021-08-05T13:58:15.965Z</time>
      </trkpt>
      <trkpt lat="46.97338" lon="8.77772">
        <ele>629</ele>
        <time>2021-08-05T13:58:16.966Z</time>
      </trkpt>
      <trkpt lat="46.97338" lon="8.77773">
        <ele>629</ele>
        <time>2021-08-05T13:58:17.965Z</time>
      </trkpt>
      <trkpt lat="46.97338" lon="8.77774">
        <ele>629</ele>
        <time>2021-08-05T13:58:18.965Z</time>
      </trkpt>
      <trkpt lat="46.97337" lon="8.77773">
        <ele>629</ele>
        <time>2021-08-05T13:58:19.965Z</time>
      </trkpt>
      <trkpt lat="46.97336" lon="8.77774">
        <ele>629</ele>
        <time>2021-08-05T13:58:20.966Z</time>
      </trkpt>
      <trkpt lat="46.97336" lon="8.77776">
        <ele>629</ele>
        <time>2021-08-05T13:58:21.966Z</time>
      </trkpt>
      <trkpt lat="46.97335" lon="8.77778">
        <ele>630</ele>
        <time>2021-08-05T13:58:22.966Z</time>
      </trkpt>
      <trkpt lat="46.97334" lon="8.77779">
        <ele>630</ele>
        <time>2021-08-05T13:58:23.966Z</time>
      </trkpt>
      <trkpt lat="46.97332" lon="8.7778">
        <ele>630</ele>
        <time>2021-08-05T13:58:24.965Z</time>
      </trkpt>
      <trkpt lat="46.9733" lon="8.77781">
        <ele>631</ele>
        <time>2021-08-05T13:58:25.966Z</time>
      </trkpt>
      <trkpt lat="46.97329" lon="8.77781">
        <ele>631</ele>
        <time>2021-08-05T13:58:26.966Z</time>
      </trkpt>
      <trkpt lat="46.97329" lon="8.77782">
        <ele>631</ele>
        <time>2021-08-05T13:58:27.966Z</time>
      </trkpt>
      <trkpt lat="46.97328" lon="8.77783">
        <ele>631</ele>
        <time>2021-08-05T13:58:28.966Z</time>
      </trkpt>
      <trkpt lat="46.97328" lon="8.77785">
        <ele>632</ele>
        <time>2021-08-05T13:58:29.966Z</time>
      </trkpt>
      <trkpt lat="46.97329" lon="8.77787">
        <ele>632</ele>
        <time>2021-08-05T13:58:30.966Z</time>
      </trkpt>
      <trkpt lat="46.9733" lon="8.77789">
        <ele>633</ele>
        <time>2021-08-05T13:58:31.965Z</time>
      </trkpt>
      <trkpt lat="46.9733" lon="8.77791">
        <ele>633</ele>
        <time>2021-08-05T13:58:32.965Z</time>
      </trkpt>
      <trkpt lat="46.97331" lon="8.77793">
        <ele>634</ele>
        <time>2021-08-05T13:58:33.965Z</time>
      </trkpt>
      <trkpt lat="46.97332" lon="8.77796">
        <ele>635</ele>
        <time>2021-08-05T13:58:34.966Z</time>
      </trkpt>
      <trkpt lat="46.97334" lon="8.77798">
        <ele>635</ele>
        <time>2021-08-05T13:58:35.966Z</time>
      </trkpt>
      <trkpt lat="46.97335" lon="8.778">
        <ele>636</ele>
        <time>2021-08-05T13:58:36.966Z</time>
      </trkpt>
      <trkpt lat="46.97335" lon="8.77801">
        <ele>636</ele>
        <time>2021-08-05T13:58:37.966Z</time>
      </trkpt>
      <trkpt lat="46.97335" lon="8.77802">
        <ele>637</ele>
        <time>2021-08-05T13:58:38.966Z</time>
      </trkpt>
      <trkpt lat="46.97334" lon="8.77804">
        <ele>637</ele>
        <time>2021-08-05T13:58:39.966Z</time>
      </trkpt>
      <trkpt lat="46.97334" lon="8.77805">
        <ele>638</ele>
        <time>2021-08-05T13:58:40.966Z</time>
      </trkpt>
      <trkpt lat="46.97333" lon="8.77806">
        <ele>638</ele>
        <time>2021-08-05T13:58:41.966Z</time>
      </trkpt>
      <trkpt lat="46.97333" lon="8.77806">
        <ele>639</ele>
        <time>2021-08-05T13:58:42.966Z</time>
      </trkpt>
      <trkpt lat="46.97333" lon="8.77808">
        <ele>639</ele>
        <time>2021-08-05T13:58:43.966Z</time>
      </trkpt>
      <trkpt lat="46.97334" lon="8.7781">
        <ele>639</ele>
        <time>2021-08-05T13:58:44.966Z</time>
      </trkpt>
      <trkpt lat="46.97335" lon="8.77812">
        <ele>639</ele>
        <time>2021-08-05T13:58:45.966Z</time>
      </trkpt>
      <trkpt lat="46.97336" lon="8.77813">
        <ele>639</ele>
        <time>2021-08-05T13:58:46.966Z</time>
      </trkpt>
      <trkpt lat="46.97335" lon="8.77815">
        <ele>640</ele>
        <time>2021-08-05T13:58:47.966Z</time>
      </trkpt>
      <trkpt lat="46.97335" lon="8.77816">
        <ele>639</ele>
        <time>2021-08-05T13:58:48.966Z</time>
      </trkpt>
      <trkpt lat="46.97334" lon="8.77817">
        <ele>639</ele>
        <time>2021-08-05T13:58:49.966Z</time>
      </trkpt>
      <trkpt lat="46.97333" lon="8.77818">
        <ele>640</ele>
        <time>2021-08-05T13:58:50.965Z</time>
      </trkpt>
      <trkpt lat="46.97332" lon="8.77819">
        <ele>640</ele>
        <time>2021-08-05T13:58:51.965Z</time>
      </trkpt>
      <trkpt lat="46.97331" lon="8.77821">
        <ele>640</ele>
        <time>2021-08-05T13:58:52.965Z</time>
      </trkpt>
      <trkpt lat="46.97332" lon="8.77823">
        <ele>640</ele>
        <time>2021-08-05T13:58:53.965Z</time>
      </trkpt>
      <trkpt lat="46.97332" lon="8.77825">
        <ele>640</ele>
        <time>2021-08-05T13:58:54.965Z</time>
      </trkpt>
      <trkpt lat="46.97332" lon="8.77826">
        <ele>641</ele>
        <time>2021-08-05T13:58:55.966Z</time>
      </trkpt>
      <trkpt lat="46.9733" lon="8.77828">
        <ele>641</ele>
        <time>2021-08-05T13:58:56.966Z</time>
      </trkpt>
      <trkpt lat="46.97329" lon="8.77829">
        <ele>641</ele>
        <time>2021-08-05T13:58:57.966Z</time>
      </trkpt>
      <trkpt lat="46.97327" lon="8.7783">
        <ele>642</ele>
        <time>2021-08-05T13:58:58.966Z</time>
      </trkpt>
      <trkpt lat="46.97326" lon="8.7783">
        <ele>642</ele>
        <time>2021-08-05T13:58:59.965Z</time>
      </trkpt>
      <trkpt lat="46.97325" lon="8.77831">
        <ele>642</ele>
        <time>2021-08-05T13:59:00.965Z</time>
      </trkpt>
      <trkpt lat="46.97324" lon="8.77832">
        <ele>643</ele>
        <time>2021-08-05T13:59:01.965Z</time>
      </trkpt>
      <trkpt lat="46.97323" lon="8.77833">
        <ele>643</ele>
        <time>2021-08-05T13:59:02.966Z</time>
      </trkpt>
      <trkpt lat="46.97322" lon="8.77834">
        <ele>644</ele>
        <time>2021-08-05T13:59:03.966Z</time>
      </trkpt>
      <trkpt lat="46.9732" lon="8.77835">
        <ele>644</ele>
        <time>2021-08-05T13:59:04.965Z</time>
      </trkpt>
      <trkpt lat="46.9732" lon="8.77837">
        <ele>645</ele>
        <time>2021-08-05T13:59:05.966Z</time>
      </trkpt>
      <trkpt lat="46.97321" lon="8.77838">
        <ele>645</ele>
        <time>2021-08-05T13:59:06.965Z</time>
      </trkpt>
      <trkpt lat="46.97321" lon="8.7784">
        <ele>646</ele>
        <time>2021-08-05T13:59:07.966Z</time>
      </trkpt>
      <trkpt lat="46.97321" lon="8.77841">
        <ele>646</ele>
        <time>2021-08-05T13:59:08.966Z</time>
      </trkpt>
      <trkpt lat="46.9732" lon="8.77842">
        <ele>647</ele>
        <time>2021-08-05T13:59:09.965Z</time>
      </trkpt>
      <trkpt lat="46.97319" lon="8.77843">
        <ele>647</ele>
        <time>2021-08-05T13:59:10.965Z</time>
      </trkpt>
      <trkpt lat="46.9732" lon="8.77845">
        <ele>647</ele>
        <time>2021-08-05T13:59:11.966Z</time>
      </trkpt>
      <trkpt lat="46.9732" lon="8.77846">
        <ele>647</ele>
        <time>2021-08-05T13:59:12.966Z</time>
      </trkpt>
      <trkpt lat="46.9732" lon="8.77848">
        <ele>648</ele>
        <time>2021-08-05T13:59:13.966Z</time>
      </trkpt>
      <trkpt lat="46.9732" lon="8.77849">
        <ele>648</ele>
        <time>2021-08-05T13:59:14.965Z</time>
      </trkpt>
      <trkpt lat="46.9732" lon="8.77851">
        <ele>648</ele>
        <time>2021-08-05T13:59:15.966Z</time>
      </trkpt>
      <trkpt lat="46.97321" lon="8.77853">
        <ele>648</ele>
        <time>2021-08-05T13:59:16.966Z</time>
      </trkpt>
      <trkpt lat="46.9732" lon="8.77854">
        <ele>647</ele>
        <time>2021-08-05T13:59:17.965Z</time>
      </trkpt>
      <trkpt lat="46.97321" lon="8.77856">
        <ele>647</ele>
        <time>2021-08-05T13:59:18.965Z</time>
      </trkpt>
      <trkpt lat="46.97322" lon="8.77857">
        <ele>647</ele>
        <time>2021-08-05T13:59:19.966Z</time>
      </trkpt>
      <trkpt lat="46.97323" lon="8.77858">
        <ele>647</ele>
        <time>2021-08-05T13:59:20.966Z</time>
      </trkpt>
      <trkpt lat="46.97323" lon="8.77859">
        <ele>646</ele>
        <time>2021-08-05T13:59:21.965Z</time>
      </trkpt>
      <trkpt lat="46.97323" lon="8.7786">
        <ele>646</ele>
        <time>2021-08-05T13:59:22.965Z</time>
      </trkpt>
      <trkpt lat="46.97323" lon="8.77862">
        <ele>645</ele>
        <time>2021-08-05T13:59:23.966Z</time>
      </trkpt>
      <trkpt lat="46.97322" lon="8.77863">
        <ele>645</ele>
        <time>2021-08-05T13:59:24.966Z</time>
      </trkpt>
      <trkpt lat="46.97321" lon="8.77864">
        <ele>644</ele>
        <time>2021-08-05T13:59:25.965Z</time>
      </trkpt>
      <trkpt lat="46.97321" lon="8.77865">
        <ele>643</ele>
        <time>2021-08-05T13:59:26.966Z</time>
      </trkpt>
      <trkpt lat="46.97321" lon="8.77866">
        <ele>642</ele>
        <time>2021-08-05T13:59:27.966Z</time>
      </trkpt>
      <trkpt lat="46.9732" lon="8.77868">
        <ele>642</ele>
        <time>2021-08-05T13:59:28.966Z</time>
      </trkpt>
      <trkpt lat="46.97319" lon="8.77869">
        <ele>641</ele>
        <time>2021-08-05T13:59:29.965Z</time>
      </trkpt>
      <trkpt lat="46.97319" lon="8.7787">
        <ele>641</ele>
        <time>2021-08-05T13:59:30.966Z</time>
      </trkpt>
      <trkpt lat="46.97319" lon="8.7787">
        <ele>640</ele>
        <time>2021-08-05T13:59:31.965Z</time>
      </trkpt>
      <trkpt lat="46.97319" lon="8.77871">
        <ele>640</ele>
        <time>2021-08-05T13:59:32.966Z</time>
      </trkpt>
      <trkpt lat="46.97319" lon="8.77872">
        <ele>640</ele>
        <time>2021-08-05T13:59:33.965Z</time>
      </trkpt>
      <trkpt lat="46.9732" lon="8.77873">
        <ele>640</ele>
        <time>2021-08-05T13:59:34.965Z</time>
      </trkpt>
      <trkpt lat="46.97319" lon="8.77874">
        <ele>639</ele>
        <time>2021-08-05T13:59:35.965Z</time>
      </trkpt>
      <trkpt lat="46.97316" lon="8.77874">
        <ele>642</ele>
        <time>2021-08-05T13:59:36.965Z</time>
      </trkpt>
      <trkpt lat="46.97315" lon="8.77875">
        <ele>642</ele>
        <time>2021-08-05T13:59:37.965Z</time>
      </trkpt>
      <trkpt lat="46.97315" lon="8.77875">
        <ele>643</ele>
        <time>2021-08-05T13:59:38.965Z</time>
      </trkpt>
      <trkpt lat="46.97315" lon="8.77875">
        <ele>643</ele>
        <time>2021-08-05T13:59:39.966Z</time>
      </trkpt>
      <trkpt lat="46.97315" lon="8.77877">
        <ele>643</ele>
        <time>2021-08-05T13:59:40.966Z</time>
      </trkpt>
      <trkpt lat="46.97315" lon="8.77877">
        <ele>643</ele>
        <time>2021-08-05T13:59:41.966Z</time>
      </trkpt>
      <trkpt lat="46.97314" lon="8.77877">
        <ele>643</ele>
        <time>2021-08-05T13:59:42.966Z</time>
      </trkpt>
      <trkpt lat="46.97313" lon="8.77877">
        <ele>643</ele>
        <time>2021-08-05T13:59:43.966Z</time>
      </trkpt>
      <trkpt lat="46.97313" lon="8.77877">
        <ele>643</ele>
        <time>2021-08-05T13:59:44.965Z</time>
      </trkpt>
      <trkpt lat="46.97313" lon="8.77877">
        <ele>644</ele>
        <time>2021-08-05T13:59:45.965Z</time>
      </trkpt>
      <trkpt lat="46.97313" lon="8.77877">
        <ele>644</ele>
        <time>2021-08-05T13:59:46.966Z</time>
      </trkpt>
      <trkpt lat="46.97313" lon="8.77877">
        <ele>644</ele>
        <time>2021-08-05T13:59:47.966Z</time>
      </trkpt>
      <trkpt lat="46.97313" lon="8.77877">
        <ele>645</ele>
        <time>2021-08-05T13:59:48.966Z</time>
      </trkpt>
      <trkpt lat="46.97313" lon="8.77877">
        <ele>645</ele>
        <time>2021-08-05T13:59:49.966Z</time>
      </trkpt>
      <trkpt lat="46.97313" lon="8.77876">
        <ele>645</ele>
        <time>2021-08-05T13:59:50.966Z</time>
      </trkpt>
      <trkpt lat="46.97312" lon="8.77876">
        <ele>646</ele>
        <time>2021-08-05T13:59:51.965Z</time>
      </trkpt>
      <trkpt lat="46.97311" lon="8.77876">
        <ele>646</ele>
        <time>2021-08-05T13:59:52.966Z</time>
      </trkpt>
      <trkpt lat="46.9731" lon="8.77877">
        <ele>646</ele>
        <time>2021-08-05T13:59:53.965Z</time>
      </trkpt>
      <trkpt lat="46.9731" lon="8.77877">
        <ele>646</ele>
        <time>2021-08-05T13:59:54.966Z</time>
      </trkpt>
      <trkpt lat="46.97309" lon="8.77878">
        <ele>646</ele>
        <time>2021-08-05T13:59:55.966Z</time>
      </trkpt>
      <trkpt lat="46.97309" lon="8.77878">
        <ele>646</ele>
        <time>2021-08-05T13:59:56.965Z</time>
      </trkpt>
      <trkpt lat="46.97309" lon="8.77879">
        <ele>646</ele>
        <time>2021-08-05T13:59:57.966Z</time>
      </trkpt>
      <trkpt lat="46.9731" lon="8.77881">
        <ele>646</ele>
        <time>2021-08-05T13:59:58.966Z</time>
      </trkpt>
      <trkpt lat="46.97311" lon="8.77883">
        <ele>645</ele>
        <time>2021-08-05T13:59:59.966Z</time>
      </trkpt>
      <trkpt lat="46.97312" lon="8.77884">
        <ele>645</ele>
        <time>2021-08-05T14:00:00.966Z</time>
      </trkpt>
      <trkpt lat="46.97312" lon="8.77886">
        <ele>645</ele>
        <time>2021-08-05T14:00:01.965Z</time>
      </trkpt>
      <trkpt lat="46.97313" lon="8.77887">
        <ele>645</ele>
        <time>2021-08-05T14:00:02.965Z</time>
      </trkpt>
      <trkpt lat="46.97313" lon="8.77889">
        <ele>644</ele>
        <time>2021-08-05T14:00:03.966Z</time>
      </trkpt>
      <trkpt lat="46.97313" lon="8.77889">
        <ele>644</ele>
        <time>2021-08-05T14:00:04.965Z</time>
      </trkpt>
      <trkpt lat="46.97312" lon="8.7789">
        <ele>644</ele>
        <time>2021-08-05T14:00:05.965Z</time>
      </trkpt>
      <trkpt lat="46.97312" lon="8.77891">
        <ele>644</ele>
        <time>2021-08-05T14:00:06.965Z</time>
      </trkpt>
      <trkpt lat="46.97312" lon="8.77891">
        <ele>643</ele>
        <time>2021-08-05T14:00:07.965Z</time>
      </trkpt>
      <trkpt lat="46.97311" lon="8.77891">
        <ele>643</ele>
        <time>2021-08-05T14:00:08.965Z</time>
      </trkpt>
      <trkpt lat="46.97311" lon="8.77891">
        <ele>643</ele>
        <time>2021-08-05T14:00:09.965Z</time>
      </trkpt>
      <trkpt lat="46.9731" lon="8.77892">
        <ele>643</ele>
        <time>2021-08-05T14:00:10.965Z</time>
      </trkpt>
      <trkpt lat="46.9731" lon="8.77892">
        <ele>643</ele>
        <time>2021-08-05T14:00:11.965Z</time>
      </trkpt>
      <trkpt lat="46.9731" lon="8.77892">
        <ele>643</ele>
        <time>2021-08-05T14:00:12.965Z</time>
      </trkpt>
      <trkpt lat="46.9731" lon="8.77893">
        <ele>643</ele>
        <time>2021-08-05T14:00:13.965Z</time>
      </trkpt>
      <trkpt lat="46.9731" lon="8.77893">
        <ele>642</ele>
        <time>2021-08-05T14:00:14.965Z</time>
      </trkpt>
      <trkpt lat="46.97309" lon="8.77894">
        <ele>642</ele>
        <time>2021-08-05T14:00:15.965Z</time>
      </trkpt>
      <trkpt lat="46.97307" lon="8.77894">
        <ele>642</ele>
        <time>2021-08-05T14:00:16.965Z</time>
      </trkpt>
      <trkpt lat="46.97307" lon="8.77896">
        <ele>642</ele>
        <time>2021-08-05T14:00:17.965Z</time>
      </trkpt>
      <trkpt lat="46.97307" lon="8.77897">
        <ele>642</ele>
        <time>2021-08-05T14:00:18.965Z</time>
      </trkpt>
      <trkpt lat="46.97306" lon="8.77899">
        <ele>642</ele>
        <time>2021-08-05T14:00:19.965Z</time>
      </trkpt>
      <trkpt lat="46.97306" lon="8.779">
        <ele>641</ele>
        <time>2021-08-05T14:00:20.966Z</time>
      </trkpt>
      <trkpt lat="46.97305" lon="8.77901">
        <ele>641</ele>
        <time>2021-08-05T14:00:21.966Z</time>
      </trkpt>
      <trkpt lat="46.97305" lon="8.77901">
        <ele>640</ele>
        <time>2021-08-05T14:00:22.965Z</time>
      </trkpt>
      <trkpt lat="46.97304" lon="8.77902">
        <ele>640</ele>
        <time>2021-08-05T14:00:23.965Z</time>
      </trkpt>
      <trkpt lat="46.97303" lon="8.77903">
        <ele>639</ele>
        <time>2021-08-05T14:00:24.965Z</time>
      </trkpt>
      <trkpt lat="46.97303" lon="8.77905">
        <ele>639</ele>
        <time>2021-08-05T14:00:25.965Z</time>
      </trkpt>
      <trkpt lat="46.97302" lon="8.77907">
        <ele>638</ele>
        <time>2021-08-05T14:00:26.965Z</time>
      </trkpt>
      <trkpt lat="46.97302" lon="8.77908">
        <ele>638</ele>
        <time>2021-08-05T14:00:27.965Z</time>
      </trkpt>
      <trkpt lat="46.97302" lon="8.7791">
        <ele>638</ele>
        <time>2021-08-05T14:00:28.965Z</time>
      </trkpt>
      <trkpt lat="46.97303" lon="8.77912">
        <ele>637</ele>
        <time>2021-08-05T14:00:29.965Z</time>
      </trkpt>
      <trkpt lat="46.97303" lon="8.77915">
        <ele>637</ele>
        <time>2021-08-05T14:00:30.965Z</time>
      </trkpt>
      <trkpt lat="46.97303" lon="8.77916">
        <ele>637</ele>
        <time>2021-08-05T14:00:31.965Z</time>
      </trkpt>
      <trkpt lat="46.97302" lon="8.77917">
        <ele>637</ele>
        <time>2021-08-05T14:00:32.965Z</time>
      </trkpt>
      <trkpt lat="46.97301" lon="8.77918">
        <ele>637</ele>
        <time>2021-08-05T14:00:33.966Z</time>
      </trkpt>
      <trkpt lat="46.973" lon="8.77919">
        <ele>637</ele>
        <time>2021-08-05T14:00:34.966Z</time>
      </trkpt>
      <trkpt lat="46.97299" lon="8.77919">
        <ele>638</ele>
        <time>2021-08-05T14:00:35.966Z</time>
      </trkpt>
      <trkpt lat="46.97298" lon="8.7792">
        <ele>638</ele>
        <time>2021-08-05T14:00:36.966Z</time>
      </trkpt>
      <trkpt lat="46.97298" lon="8.77922">
        <ele>638</ele>
        <time>2021-08-05T14:00:37.966Z</time>
      </trkpt>
      <trkpt lat="46.97298" lon="8.77924">
        <ele>638</ele>
        <time>2021-08-05T14:00:38.965Z</time>
      </trkpt>
      <trkpt lat="46.97297" lon="8.77924">
        <ele>638</ele>
        <time>2021-08-05T14:00:39.966Z</time>
      </trkpt>
      <trkpt lat="46.97296" lon="8.77924">
        <ele>638</ele>
        <time>2021-08-05T14:00:40.966Z</time>
      </trkpt>
      <trkpt lat="46.97295" lon="8.77925">
        <ele>639</ele>
        <time>2021-08-05T14:00:41.965Z</time>
      </trkpt>
      <trkpt lat="46.97294" lon="8.77925">
        <ele>639</ele>
        <time>2021-08-05T14:00:42.966Z</time>
      </trkpt>
      <trkpt lat="46.97294" lon="8.77926">
        <ele>640</ele>
        <time>2021-08-05T14:00:43.965Z</time>
      </trkpt>
      <trkpt lat="46.97293" lon="8.77927">
        <ele>640</ele>
        <time>2021-08-05T14:00:44.966Z</time>
      </trkpt>
      <trkpt lat="46.97293" lon="8.77928">
        <ele>641</ele>
        <time>2021-08-05T14:00:45.965Z</time>
      </trkpt>
      <trkpt lat="46.97293" lon="8.7793">
        <ele>641</ele>
        <time>2021-08-05T14:00:46.966Z</time>
      </trkpt>
      <trkpt lat="46.97292" lon="8.7793">
        <ele>642</ele>
        <time>2021-08-05T14:00:47.965Z</time>
      </trkpt>
      <trkpt lat="46.97292" lon="8.77931">
        <ele>642</ele>
        <time>2021-08-05T14:00:48.966Z</time>
      </trkpt>
      <trkpt lat="46.97292" lon="8.77933">
        <ele>642</ele>
        <time>2021-08-05T14:00:49.966Z</time>
      </trkpt>
      <trkpt lat="46.97292" lon="8.77934">
        <ele>643</ele>
        <time>2021-08-05T14:00:50.966Z</time>
      </trkpt>
      <trkpt lat="46.97292" lon="8.77935">
        <ele>643</ele>
        <time>2021-08-05T14:00:51.966Z</time>
      </trkpt>
      <trkpt lat="46.97292" lon="8.77937">
        <ele>643</ele>
        <time>2021-08-05T14:00:52.966Z</time>
      </trkpt>
      <trkpt lat="46.97292" lon="8.77938">
        <ele>643</ele>
        <time>2021-08-05T14:00:53.966Z</time>
      </trkpt>
      <trkpt lat="46.97291" lon="8.77939">
        <ele>643</ele>
        <time>2021-08-05T14:00:54.966Z</time>
      </trkpt>
      <trkpt lat="46.97291" lon="8.7794">
        <ele>644</ele>
        <time>2021-08-05T14:00:55.965Z</time>
      </trkpt>
      <trkpt lat="46.97291" lon="8.77941">
        <ele>644</ele>
        <time>2021-08-05T14:00:56.966Z</time>
      </trkpt>
      <trkpt lat="46.97291" lon="8.77942">
        <ele>644</ele>
        <time>2021-08-05T14:00:57.965Z</time>
      </trkpt>
      <trkpt lat="46.97291" lon="8.77943">
        <ele>644</ele>
        <time>2021-08-05T14:00:58.966Z</time>
      </trkpt>
      <trkpt lat="46.97291" lon="8.77942">
        <ele>644</ele>
        <time>2021-08-05T14:00:59.966Z</time>
      </trkpt>
      <trkpt lat="46.97291" lon="8.77942">
        <ele>644</ele>
        <time>2021-08-05T14:01:00.966Z</time>
      </trkpt>
      <trkpt lat="46.97291" lon="8.77943">
        <ele>644</ele>
        <time>2021-08-05T14:01:01.965Z</time>
      </trkpt>
      <trkpt lat="46.97291" lon="8.77944">
        <ele>644</ele>
        <time>2021-08-05T14:01:02.966Z</time>
      </trkpt>
      <trkpt lat="46.9729" lon="8.77945">
        <ele>644</ele>
        <time>2021-08-05T14:01:03.966Z</time>
      </trkpt>
      <trkpt lat="46.9729" lon="8.77946">
        <ele>644</ele>
        <time>2021-08-05T14:01:04.966Z</time>
      </trkpt>
      <trkpt lat="46.97289" lon="8.77947">
        <ele>644</ele>
        <time>2021-08-05T14:01:05.966Z</time>
      </trkpt>
      <trkpt lat="46.97289" lon="8.77948">
        <ele>644</ele>
        <time>2021-08-05T14:01:06.966Z</time>
      </trkpt>
      <trkpt lat="46.97288" lon="8.77949">
        <ele>645</ele>
        <time>2021-08-05T14:01:07.965Z</time>
      </trkpt>
      <trkpt lat="46.97288" lon="8.77949">
        <ele>645</ele>
        <time>2021-08-05T14:01:08.966Z</time>
      </trkpt>
      <trkpt lat="46.97287" lon="8.77951">
        <ele>645</ele>
        <time>2021-08-05T14:01:09.966Z</time>
      </trkpt>
      <trkpt lat="46.97286" lon="8.77951">
        <ele>646</ele>
        <time>2021-08-05T14:01:10.965Z</time>
      </trkpt>
      <trkpt lat="46.97285" lon="8.77951">
        <ele>646</ele>
        <time>2021-08-05T14:01:11.966Z</time>
      </trkpt>
      <trkpt lat="46.97283" lon="8.77951">
        <ele>647</ele>
        <time>2021-08-05T14:01:12.966Z</time>
      </trkpt>
      <trkpt lat="46.97282" lon="8.77952">
        <ele>647</ele>
        <time>2021-08-05T14:01:13.966Z</time>
      </trkpt>
      <trkpt lat="46.97282" lon="8.77953">
        <ele>648</ele>
        <time>2021-08-05T14:01:14.966Z</time>
      </trkpt>
      <trkpt lat="46.97281" lon="8.77956">
        <ele>648</ele>
        <time>2021-08-05T14:01:15.966Z</time>
      </trkpt>
      <trkpt lat="46.9728" lon="8.77958">
        <ele>649</ele>
        <time>2021-08-05T14:01:16.965Z</time>
      </trkpt>
      <trkpt lat="46.97281" lon="8.77962">
        <ele>649</ele>
        <time>2021-08-05T14:01:17.965Z</time>
      </trkpt>
      <trkpt lat="46.97281" lon="8.77966">
        <ele>649</ele>
        <time>2021-08-05T14:01:18.966Z</time>
      </trkpt>
      <trkpt lat="46.97281" lon="8.77968">
        <ele>649</ele>
        <time>2021-08-05T14:01:19.966Z</time>
      </trkpt>
      <trkpt lat="46.97281" lon="8.77969">
        <ele>649</ele>
        <time>2021-08-05T14:01:20.966Z</time>
      </trkpt>
      <trkpt lat="46.9728" lon="8.7797">
        <ele>650</ele>
        <time>2021-08-05T14:01:21.966Z</time>
      </trkpt>
      <trkpt lat="46.9728" lon="8.7797">
        <ele>650</ele>
        <time>2021-08-05T14:01:22.966Z</time>
      </trkpt>
      <trkpt lat="46.97279" lon="8.77971">
        <ele>650</ele>
        <time>2021-08-05T14:01:23.966Z</time>
      </trkpt>
      <trkpt lat="46.97278" lon="8.77971">
        <ele>650</ele>
        <time>2021-08-05T14:01:24.966Z</time>
      </trkpt>
      <trkpt lat="46.97277" lon="8.77971">
        <ele>651</ele>
        <time>2021-08-05T14:01:25.966Z</time>
      </trkpt>
      <trkpt lat="46.97276" lon="8.77972">
        <ele>651</ele>
        <time>2021-08-05T14:01:26.965Z</time>
      </trkpt>
      <trkpt lat="46.97276" lon="8.77973">
        <ele>651</ele>
        <time>2021-08-05T14:01:27.966Z</time>
      </trkpt>
      <trkpt lat="46.97276" lon="8.77975">
        <ele>652</ele>
        <time>2021-08-05T14:01:28.965Z</time>
      </trkpt>
      <trkpt lat="46.97275" lon="8.77976">
        <ele>652</ele>
        <time>2021-08-05T14:01:29.966Z</time>
      </trkpt>
      <trkpt lat="46.97275" lon="8.77977">
        <ele>653</ele>
        <time>2021-08-05T14:01:30.966Z</time>
      </trkpt>
      <trkpt lat="46.97274" lon="8.77977">
        <ele>653</ele>
        <time>2021-08-05T14:01:31.965Z</time>
      </trkpt>
      <trkpt lat="46.97273" lon="8.77978">
        <ele>654</ele>
        <time>2021-08-05T14:01:32.965Z</time>
      </trkpt>
      <trkpt lat="46.97274" lon="8.77979">
        <ele>654</ele>
        <time>2021-08-05T14:01:33.965Z</time>
      </trkpt>
      <trkpt lat="46.97274" lon="8.7798">
        <ele>655</ele>
        <time>2021-08-05T14:01:34.966Z</time>
      </trkpt>
      <trkpt lat="46.97273" lon="8.77981">
        <ele>655</ele>
        <time>2021-08-05T14:01:35.965Z</time>
      </trkpt>
      <trkpt lat="46.97273" lon="8.77981">
        <ele>655</ele>
        <time>2021-08-05T14:01:36.966Z</time>
      </trkpt>
      <trkpt lat="46.97272" lon="8.77982">
        <ele>656</ele>
        <time>2021-08-05T14:01:37.966Z</time>
      </trkpt>
      <trkpt lat="46.97272" lon="8.77984">
        <ele>656</ele>
        <time>2021-08-05T14:01:38.965Z</time>
      </trkpt>
      <trkpt lat="46.97271" lon="8.77985">
        <ele>656</ele>
        <time>2021-08-05T14:01:39.966Z</time>
      </trkpt>
      <trkpt lat="46.97271" lon="8.77987">
        <ele>656</ele>
        <time>2021-08-05T14:01:40.965Z</time>
      </trkpt>
      <trkpt lat="46.97271" lon="8.7799">
        <ele>657</ele>
        <time>2021-08-05T14:01:41.966Z</time>
      </trkpt>
      <trkpt lat="46.97271" lon="8.77992">
        <ele>657</ele>
        <time>2021-08-05T14:01:42.965Z</time>
      </trkpt>
      <trkpt lat="46.97271" lon="8.77993">
        <ele>657</ele>
        <time>2021-08-05T14:01:43.965Z</time>
      </trkpt>
      <trkpt lat="46.9727" lon="8.77994">
        <ele>657</ele>
        <time>2021-08-05T14:01:44.966Z</time>
      </trkpt>
      <trkpt lat="46.97269" lon="8.77993">
        <ele>657</ele>
        <time>2021-08-05T14:01:45.966Z</time>
      </trkpt>
      <trkpt lat="46.97268" lon="8.77994">
        <ele>657</ele>
        <time>2021-08-05T14:01:46.966Z</time>
      </trkpt>
      <trkpt lat="46.97268" lon="8.77993">
        <ele>657</ele>
        <time>2021-08-05T14:01:47.966Z</time>
      </trkpt>
      <trkpt lat="46.97268" lon="8.77994">
        <ele>657</ele>
        <time>2021-08-05T14:01:48.966Z</time>
      </trkpt>
      <trkpt lat="46.97267" lon="8.77994">
        <ele>657</ele>
        <time>2021-08-05T14:01:49.966Z</time>
      </trkpt>
      <trkpt lat="46.97268" lon="8.77996">
        <ele>656</ele>
        <time>2021-08-05T14:01:50.966Z</time>
      </trkpt>
      <trkpt lat="46.97268" lon="8.77998">
        <ele>656</ele>
        <time>2021-08-05T14:01:51.966Z</time>
      </trkpt>
      <trkpt lat="46.97268" lon="8.78001">
        <ele>656</ele>
        <time>2021-08-05T14:01:52.966Z</time>
      </trkpt>
      <trkpt lat="46.97268" lon="8.78001">
        <ele>656</ele>
        <time>2021-08-05T14:01:53.965Z</time>
      </trkpt>
      <trkpt lat="46.97267" lon="8.78">
        <ele>655</ele>
        <time>2021-08-05T14:01:54.965Z</time>
      </trkpt>
      <trkpt lat="46.97267" lon="8.78">
        <ele>655</ele>
        <time>2021-08-05T14:01:55.965Z</time>
      </trkpt>
      <trkpt lat="46.97267" lon="8.78001">
        <ele>655</ele>
        <time>2021-08-05T14:01:56.965Z</time>
      </trkpt>
      <trkpt lat="46.97267" lon="8.78002">
        <ele>655</ele>
        <time>2021-08-05T14:01:57.966Z</time>
      </trkpt>
      <trkpt lat="46.97267" lon="8.78003">
        <ele>655</ele>
        <time>2021-08-05T14:01:58.966Z</time>
      </trkpt>
      <trkpt lat="46.97267" lon="8.78005">
        <ele>655</ele>
        <time>2021-08-05T14:01:59.965Z</time>
      </trkpt>
      <trkpt lat="46.97267" lon="8.78007">
        <ele>655</ele>
        <time>2021-08-05T14:02:00.965Z</time>
      </trkpt>
      <trkpt lat="46.97267" lon="8.78009">
        <ele>655</ele>
        <time>2021-08-05T14:02:01.965Z</time>
      </trkpt>
      <trkpt lat="46.97267" lon="8.78011">
        <ele>655</ele>
        <time>2021-08-05T14:02:02.965Z</time>
      </trkpt>
      <trkpt lat="46.97267" lon="8.78013">
        <ele>655</ele>
        <time>2021-08-05T14:02:03.966Z</time>
      </trkpt>
      <trkpt lat="46.97267" lon="8.78015">
        <ele>655</ele>
        <time>2021-08-05T14:02:04.966Z</time>
      </trkpt>
      <trkpt lat="46.97267" lon="8.78017">
        <ele>656</ele>
        <time>2021-08-05T14:02:05.966Z</time>
      </trkpt>
      <trkpt lat="46.97268" lon="8.7802">
        <ele>655</ele>
        <time>2021-08-05T14:02:06.966Z</time>
      </trkpt>
      <trkpt lat="46.97268" lon="8.78022">
        <ele>655</ele>
        <time>2021-08-05T14:02:07.966Z</time>
      </trkpt>
      <trkpt lat="46.97268" lon="8.78024">
        <ele>655</ele>
        <time>2021-08-05T14:02:08.966Z</time>
      </trkpt>
      <trkpt lat="46.97267" lon="8.78027">
        <ele>655</ele>
        <time>2021-08-05T14:02:09.966Z</time>
      </trkpt>
      <trkpt lat="46.97267" lon="8.78029">
        <ele>654</ele>
        <time>2021-08-05T14:02:10.965Z</time>
      </trkpt>
      <trkpt lat="46.97267" lon="8.78031">
        <ele>654</ele>
        <time>2021-08-05T14:02:11.966Z</time>
      </trkpt>
      <trkpt lat="46.97267" lon="8.78034">
        <ele>654</ele>
        <time>2021-08-05T14:02:12.966Z</time>
      </trkpt>
      <trkpt lat="46.97266" lon="8.78036">
        <ele>654</ele>
        <time>2021-08-05T14:02:13.966Z</time>
      </trkpt>
      <trkpt lat="46.97265" lon="8.78039">
        <ele>653</ele>
        <time>2021-08-05T14:02:14.966Z</time>
      </trkpt>
      <trkpt lat="46.97265" lon="8.78042">
        <ele>653</ele>
        <time>2021-08-05T14:02:15.965Z</time>
      </trkpt>
      <trkpt lat="46.97265" lon="8.78044">
        <ele>653</ele>
        <time>2021-08-05T14:02:16.966Z</time>
      </trkpt>
      <trkpt lat="46.97266" lon="8.78045">
        <ele>653</ele>
        <time>2021-08-05T14:02:17.965Z</time>
      </trkpt>
      <trkpt lat="46.97265" lon="8.78046">
        <ele>653</ele>
        <time>2021-08-05T14:02:18.966Z</time>
      </trkpt>
      <trkpt lat="46.97265" lon="8.78047">
        <ele>653</ele>
        <time>2021-08-05T14:02:19.966Z</time>
      </trkpt>
      <trkpt lat="46.97265" lon="8.78049">
        <ele>652</ele>
        <time>2021-08-05T14:02:20.966Z</time>
      </trkpt>
      <trkpt lat="46.97265" lon="8.7805">
        <ele>652</ele>
        <time>2021-08-05T14:02:21.965Z</time>
      </trkpt>
      <trkpt lat="46.97264" lon="8.78052">
        <ele>652</ele>
        <time>2021-08-05T14:02:22.966Z</time>
      </trkpt>
      <trkpt lat="46.97264" lon="8.78053">
        <ele>652</ele>
        <time>2021-08-05T14:02:23.965Z</time>
      </trkpt>
      <trkpt lat="46.97264" lon="8.78055">
        <ele>652</ele>
        <time>2021-08-05T14:02:24.965Z</time>
      </trkpt>
      <trkpt lat="46.97263" lon="8.78056">
        <ele>652</ele>
        <time>2021-08-05T14:02:25.966Z</time>
      </trkpt>
      <trkpt lat="46.97263" lon="8.78058">
        <ele>653</ele>
        <time>2021-08-05T14:02:26.966Z</time>
      </trkpt>
      <trkpt lat="46.97262" lon="8.7806">
        <ele>653</ele>
        <time>2021-08-05T14:02:27.966Z</time>
      </trkpt>
      <trkpt lat="46.97262" lon="8.78061">
        <ele>654</ele>
        <time>2021-08-05T14:02:28.966Z</time>
      </trkpt>
      <trkpt lat="46.97262" lon="8.78063">
        <ele>654</ele>
        <time>2021-08-05T14:02:29.966Z</time>
      </trkpt>
      <trkpt lat="46.97261" lon="8.78065">
        <ele>655</ele>
        <time>2021-08-05T14:02:30.966Z</time>
      </trkpt>
      <trkpt lat="46.97261" lon="8.78066">
        <ele>655</ele>
        <time>2021-08-05T14:02:31.965Z</time>
      </trkpt>
      <trkpt lat="46.9726" lon="8.78067">
        <ele>656</ele>
        <time>2021-08-05T14:02:32.966Z</time>
      </trkpt>
      <trkpt lat="46.9726" lon="8.78068">
        <ele>656</ele>
        <time>2021-08-05T14:02:33.965Z</time>
      </trkpt>
      <trkpt lat="46.97261" lon="8.7807">
        <ele>656</ele>
        <time>2021-08-05T14:02:34.966Z</time>
      </trkpt>
      <trkpt lat="46.97261" lon="8.78072">
        <ele>656</ele>
        <time>2021-08-05T14:02:35.965Z</time>
      </trkpt>
      <trkpt lat="46.97261" lon="8.78073">
        <ele>656</ele>
        <time>2021-08-05T14:02:36.966Z</time>
      </trkpt>
      <trkpt lat="46.97261" lon="8.78075">
        <ele>656</ele>
        <time>2021-08-05T14:02:37.966Z</time>
      </trkpt>
      <trkpt lat="46.9726" lon="8.78075">
        <ele>656</ele>
        <time>2021-08-05T14:02:38.966Z</time>
      </trkpt>
      <trkpt lat="46.97259" lon="8.78077">
        <ele>656</ele>
        <time>2021-08-05T14:02:39.966Z</time>
      </trkpt>
      <trkpt lat="46.97259" lon="8.78078">
        <ele>656</ele>
        <time>2021-08-05T14:02:40.966Z</time>
      </trkpt>
      <trkpt lat="46.97259" lon="8.78079">
        <ele>656</ele>
        <time>2021-08-05T14:02:41.965Z</time>
      </trkpt>
      <trkpt lat="46.9726" lon="8.78081">
        <ele>655</ele>
        <time>2021-08-05T14:02:42.966Z</time>
      </trkpt>
      <trkpt lat="46.9726" lon="8.78082">
        <ele>655</ele>
        <time>2021-08-05T14:02:43.966Z</time>
      </trkpt>
      <trkpt lat="46.9726" lon="8.78083">
        <ele>655</ele>
        <time>2021-08-05T14:02:44.965Z</time>
      </trkpt>
      <trkpt lat="46.9726" lon="8.78085">
        <ele>655</ele>
        <time>2021-08-05T14:02:45.966Z</time>
      </trkpt>
      <trkpt lat="46.9726" lon="8.78086">
        <ele>655</ele>
        <time>2021-08-05T14:02:46.965Z</time>
      </trkpt>
      <trkpt lat="46.97259" lon="8.78088">
        <ele>655</ele>
        <time>2021-08-05T14:02:47.966Z</time>
      </trkpt>
      <trkpt lat="46.97259" lon="8.78089">
        <ele>655</ele>
        <time>2021-08-05T14:02:48.966Z</time>
      </trkpt>
      <trkpt lat="46.97259" lon="8.78091">
        <ele>655</ele>
        <time>2021-08-05T14:02:49.966Z</time>
      </trkpt>
      <trkpt lat="46.97259" lon="8.78092">
        <ele>654</ele>
        <time>2021-08-05T14:02:50.965Z</time>
      </trkpt>
      <trkpt lat="46.97259" lon="8.78093">
        <ele>654</ele>
        <time>2021-08-05T14:02:51.966Z</time>
      </trkpt>
      <trkpt lat="46.97259" lon="8.78095">
        <ele>653</ele>
        <time>2021-08-05T14:02:52.965Z</time>
      </trkpt>
      <trkpt lat="46.97258" lon="8.78096">
        <ele>653</ele>
        <time>2021-08-05T14:02:53.965Z</time>
      </trkpt>
      <trkpt lat="46.97258" lon="8.78097">
        <ele>652</ele>
        <time>2021-08-05T14:02:54.965Z</time>
      </trkpt>
      <trkpt lat="46.97257" lon="8.78098">
        <ele>652</ele>
        <time>2021-08-05T14:02:55.965Z</time>
      </trkpt>
      <trkpt lat="46.97256" lon="8.78099">
        <ele>652</ele>
        <time>2021-08-05T14:03:01.111Z</time>
      </trkpt>
      <trkpt lat="46.97255" lon="8.781">
        <ele>651</ele>
        <time>2021-08-05T14:03:02.111Z</time>
      </trkpt>
      <trkpt lat="46.97255" lon="8.78101">
        <ele>651</ele>
        <time>2021-08-05T14:03:03.110Z</time>
      </trkpt>
      <trkpt lat="46.97254" lon="8.78102">
        <ele>651</ele>
        <time>2021-08-05T14:03:04.110Z</time>
      </trkpt>
      <trkpt lat="46.97253" lon="8.78103">
        <ele>650</ele>
        <time>2021-08-05T14:03:05.110Z</time>
      </trkpt>
      <trkpt lat="46.97253" lon="8.78104">
        <ele>650</ele>
        <time>2021-08-05T14:03:06.110Z</time>
      </trkpt>
      <trkpt lat="46.97252" lon="8.78105">
        <ele>650</ele>
        <time>2021-08-05T14:03:07.110Z</time>
      </trkpt>
      <trkpt lat="46.97252" lon="8.78107">
        <ele>650</ele>
        <time>2021-08-05T14:03:08.111Z</time>
      </trkpt>
      <trkpt lat="46.97252" lon="8.78109">
        <ele>649</ele>
        <time>2021-08-05T14:03:09.110Z</time>
      </trkpt>
      <trkpt lat="46.97252" lon="8.7811">
        <ele>649</ele>
        <time>2021-08-05T14:03:10.110Z</time>
      </trkpt>
      <trkpt lat="46.97253" lon="8.78111">
        <ele>648</ele>
        <time>2021-08-05T14:03:11.111Z</time>
      </trkpt>
      <trkpt lat="46.97253" lon="8.78111">
        <ele>648</ele>
        <time>2021-08-05T14:03:12.110Z</time>
      </trkpt>
      <trkpt lat="46.97253" lon="8.78112">
        <ele>648</ele>
        <time>2021-08-05T14:03:13.111Z</time>
      </trkpt>
      <trkpt lat="46.97253" lon="8.78113">
        <ele>647</ele>
        <time>2021-08-05T14:03:14.111Z</time>
      </trkpt>
      <trkpt lat="46.97253" lon="8.78113">
        <ele>647</ele>
        <time>2021-08-05T14:03:15.111Z</time>
      </trkpt>
      <trkpt lat="46.97254" lon="8.78113">
        <ele>646</ele>
        <time>2021-08-05T14:03:16.110Z</time>
      </trkpt>
      <trkpt lat="46.97254" lon="8.78115">
        <ele>646</ele>
        <time>2021-08-05T14:03:17.110Z</time>
      </trkpt>
      <trkpt lat="46.97255" lon="8.78117">
        <ele>646</ele>
        <time>2021-08-05T14:03:18.111Z</time>
      </trkpt>
      <trkpt lat="46.97255" lon="8.78118">
        <ele>646</ele>
        <time>2021-08-05T14:03:19.111Z</time>
      </trkpt>
      <trkpt lat="46.97256" lon="8.78119">
        <ele>646</ele>
        <time>2021-08-05T14:03:20.111Z</time>
      </trkpt>
      <trkpt lat="46.97256" lon="8.78121">
        <ele>646</ele>
        <time>2021-08-05T14:03:21.111Z</time>
      </trkpt>
      <trkpt lat="46.97256" lon="8.78122">
        <ele>645</ele>
        <time>2021-08-05T14:03:22.110Z</time>
      </trkpt>
      <trkpt lat="46.97256" lon="8.78123">
        <ele>645</ele>
        <time>2021-08-05T14:03:23.110Z</time>
      </trkpt>
      <trkpt lat="46.97256" lon="8.78124">
        <ele>644</ele>
        <time>2021-08-05T14:03:24.111Z</time>
      </trkpt>
      <trkpt lat="46.97255" lon="8.78125">
        <ele>644</ele>
        <time>2021-08-05T14:03:25.111Z</time>
      </trkpt>
      <trkpt lat="46.97255" lon="8.78126">
        <ele>643</ele>
        <time>2021-08-05T14:03:26.110Z</time>
      </trkpt>
      <trkpt lat="46.97254" lon="8.78127">
        <ele>642</ele>
        <time>2021-08-05T14:03:27.110Z</time>
      </trkpt>
      <trkpt lat="46.97253" lon="8.78127">
        <ele>642</ele>
        <time>2021-08-05T14:03:28.111Z</time>
      </trkpt>
      <trkpt lat="46.97253" lon="8.78128">
        <ele>642</ele>
        <time>2021-08-05T14:03:29.111Z</time>
      </trkpt>
      <trkpt lat="46.97253" lon="8.7813">
        <ele>641</ele>
        <time>2021-08-05T14:03:30.110Z</time>
      </trkpt>
      <trkpt lat="46.97252" lon="8.78132">
        <ele>641</ele>
        <time>2021-08-05T14:03:31.111Z</time>
      </trkpt>
      <trkpt lat="46.97252" lon="8.78133">
        <ele>641</ele>
        <time>2021-08-05T14:03:32.110Z</time>
      </trkpt>
      <trkpt lat="46.97251" lon="8.78134">
        <ele>641</ele>
        <time>2021-08-05T14:03:33.111Z</time>
      </trkpt>
      <trkpt lat="46.97251" lon="8.78135">
        <ele>642</ele>
        <time>2021-08-05T14:03:34.111Z</time>
      </trkpt>
      <trkpt lat="46.97251" lon="8.78137">
        <ele>642</ele>
        <time>2021-08-05T14:03:35.111Z</time>
      </trkpt>
      <trkpt lat="46.9725" lon="8.78139">
        <ele>642</ele>
        <time>2021-08-05T14:03:36.111Z</time>
      </trkpt>
      <trkpt lat="46.9725" lon="8.78141">
        <ele>642</ele>
        <time>2021-08-05T14:03:37.110Z</time>
      </trkpt>
      <trkpt lat="46.9725" lon="8.78142">
        <ele>642</ele>
        <time>2021-08-05T14:03:38.110Z</time>
      </trkpt>
      <trkpt lat="46.9725" lon="8.78144">
        <ele>641</ele>
        <time>2021-08-05T14:03:39.110Z</time>
      </trkpt>
      <trkpt lat="46.9725" lon="8.78145">
        <ele>641</ele>
        <time>2021-08-05T14:03:40.111Z</time>
      </trkpt>
      <trkpt lat="46.9725" lon="8.78147">
        <ele>641</ele>
        <time>2021-08-05T14:03:41.110Z</time>
      </trkpt>
      <trkpt lat="46.9725" lon="8.78148">
        <ele>641</ele>
        <time>2021-08-05T14:03:42.111Z</time>
      </trkpt>
      <trkpt lat="46.9725" lon="8.7815">
        <ele>641</ele>
        <time>2021-08-05T14:03:43.110Z</time>
      </trkpt>
      <trkpt lat="46.97249" lon="8.78151">
        <ele>641</ele>
        <time>2021-08-05T14:03:44.111Z</time>
      </trkpt>
      <trkpt lat="46.97249" lon="8.78152">
        <ele>641</ele>
        <time>2021-08-05T14:03:45.111Z</time>
      </trkpt>
      <trkpt lat="46.97248" lon="8.78153">
        <ele>641</ele>
        <time>2021-08-05T14:03:46.110Z</time>
      </trkpt>
      <trkpt lat="46.97248" lon="8.78155">
        <ele>641</ele>
        <time>2021-08-05T14:03:47.110Z</time>
      </trkpt>
      <trkpt lat="46.97248" lon="8.78156">
        <ele>641</ele>
        <time>2021-08-05T14:03:48.110Z</time>
      </trkpt>
      <trkpt lat="46.97248" lon="8.78157">
        <ele>641</ele>
        <time>2021-08-05T14:03:49.110Z</time>
      </trkpt>
      <trkpt lat="46.97247" lon="8.78159">
        <ele>642</ele>
        <time>2021-08-05T14:03:50.110Z</time>
      </trkpt>
      <trkpt lat="46.97247" lon="8.7816">
        <ele>642</ele>
        <time>2021-08-05T14:03:51.110Z</time>
      </trkpt>
      <trkpt lat="46.97246" lon="8.78162">
        <ele>643</ele>
        <time>2021-08-05T14:03:52.110Z</time>
      </trkpt>
      <trkpt lat="46.97246" lon="8.78164">
        <ele>643</ele>
        <time>2021-08-05T14:03:53.110Z</time>
      </trkpt>
      <trkpt lat="46.97245" lon="8.78165">
        <ele>642</ele>
        <time>2021-08-05T14:03:54.110Z</time>
      </trkpt>
      <trkpt lat="46.97244" lon="8.78167">
        <ele>642</ele>
        <time>2021-08-05T14:03:55.110Z</time>
      </trkpt>
      <trkpt lat="46.97244" lon="8.78168">
        <ele>641</ele>
        <time>2021-08-05T14:03:56.110Z</time>
      </trkpt>
      <trkpt lat="46.97243" lon="8.78169">
        <ele>641</ele>
        <time>2021-08-05T14:03:57.110Z</time>
      </trkpt>
      <trkpt lat="46.97243" lon="8.78171">
        <ele>641</ele>
        <time>2021-08-05T14:03:58.110Z</time>
      </trkpt>
      <trkpt lat="46.97242" lon="8.78173">
        <ele>640</ele>
        <time>2021-08-05T14:03:59.111Z</time>
      </trkpt>
      <trkpt lat="46.97242" lon="8.78175">
        <ele>640</ele>
        <time>2021-08-05T14:04:00.110Z</time>
      </trkpt>
      <trkpt lat="46.97241" lon="8.78177">
        <ele>640</ele>
        <time>2021-08-05T14:04:01.111Z</time>
      </trkpt>
      <trkpt lat="46.97241" lon="8.78179">
        <ele>640</ele>
        <time>2021-08-05T14:04:02.111Z</time>
      </trkpt>
      <trkpt lat="46.97239" lon="8.7818">
        <ele>641</ele>
        <time>2021-08-05T14:04:03.110Z</time>
      </trkpt>
      <trkpt lat="46.97238" lon="8.78181">
        <ele>641</ele>
        <time>2021-08-05T14:04:04.110Z</time>
      </trkpt>
      <trkpt lat="46.97238" lon="8.78183">
        <ele>641</ele>
        <time>2021-08-05T14:04:05.111Z</time>
      </trkpt>
      <trkpt lat="46.97239" lon="8.78186">
        <ele>641</ele>
        <time>2021-08-05T14:04:06.110Z</time>
      </trkpt>
      <trkpt lat="46.97238" lon="8.78187">
        <ele>642</ele>
        <time>2021-08-05T14:04:07.111Z</time>
      </trkpt>
      <trkpt lat="46.97238" lon="8.78189">
        <ele>642</ele>
        <time>2021-08-05T14:04:08.110Z</time>
      </trkpt>
      <trkpt lat="46.97238" lon="8.78191">
        <ele>643</ele>
        <time>2021-08-05T14:04:09.111Z</time>
      </trkpt>
      <trkpt lat="46.97237" lon="8.78192">
        <ele>643</ele>
        <time>2021-08-05T14:04:10.110Z</time>
      </trkpt>
      <trkpt lat="46.97237" lon="8.78194">
        <ele>643</ele>
        <time>2021-08-05T14:04:11.110Z</time>
      </trkpt>
      <trkpt lat="46.97237" lon="8.78196">
        <ele>643</ele>
        <time>2021-08-05T14:04:12.110Z</time>
      </trkpt>
      <trkpt lat="46.97237" lon="8.78198">
        <ele>644</ele>
        <time>2021-08-05T14:04:13.110Z</time>
      </trkpt>
      <trkpt lat="46.97237" lon="8.782">
        <ele>644</ele>
        <time>2021-08-05T14:04:14.110Z</time>
      </trkpt>
      <trkpt lat="46.97237" lon="8.78203">
        <ele>644</ele>
        <time>2021-08-05T14:04:15.110Z</time>
      </trkpt>
      <trkpt lat="46.97236" lon="8.78205">
        <ele>644</ele>
        <time>2021-08-05T14:04:16.110Z</time>
      </trkpt>
      <trkpt lat="46.97236" lon="8.78206">
        <ele>644</ele>
        <time>2021-08-05T14:04:17.110Z</time>
      </trkpt>
      <trkpt lat="46.97236" lon="8.78208">
        <ele>644</ele>
        <time>2021-08-05T14:04:18.110Z</time>
      </trkpt>
      <trkpt lat="46.97236" lon="8.7821">
        <ele>644</ele>
        <time>2021-08-05T14:04:19.110Z</time>
      </trkpt>
      <trkpt lat="46.97235" lon="8.78211">
        <ele>644</ele>
        <time>2021-08-05T14:04:20.110Z</time>
      </trkpt>
      <trkpt lat="46.97235" lon="8.78213">
        <ele>645</ele>
        <time>2021-08-05T14:04:21.110Z</time>
      </trkpt>
      <trkpt lat="46.97234" lon="8.78214">
        <ele>645</ele>
        <time>2021-08-05T14:04:22.110Z</time>
      </trkpt>
      <trkpt lat="46.97234" lon="8.78215">
        <ele>645</ele>
        <time>2021-08-05T14:04:23.110Z</time>
      </trkpt>
      <trkpt lat="46.97233" lon="8.78215">
        <ele>646</ele>
        <time>2021-08-05T14:04:24.111Z</time>
      </trkpt>
      <trkpt lat="46.97233" lon="8.78216">
        <ele>646</ele>
        <time>2021-08-05T14:04:25.110Z</time>
      </trkpt>
      <trkpt lat="46.97233" lon="8.78217">
        <ele>646</ele>
        <time>2021-08-05T14:04:26.110Z</time>
      </trkpt>
      <trkpt lat="46.97233" lon="8.78219">
        <ele>645</ele>
        <time>2021-08-05T14:04:27.110Z</time>
      </trkpt>
      <trkpt lat="46.97233" lon="8.78221">
        <ele>645</ele>
        <time>2021-08-05T14:04:28.110Z</time>
      </trkpt>
      <trkpt lat="46.97232" lon="8.78222">
        <ele>644</ele>
        <time>2021-08-05T14:04:29.110Z</time>
      </trkpt>
      <trkpt lat="46.97231" lon="8.78225">
        <ele>644</ele>
        <time>2021-08-05T14:04:30.110Z</time>
      </trkpt>
      <trkpt lat="46.9723" lon="8.78228">
        <ele>643</ele>
        <time>2021-08-05T14:04:31.110Z</time>
      </trkpt>
      <trkpt lat="46.9723" lon="8.7823">
        <ele>642</ele>
        <time>2021-08-05T14:04:32.111Z</time>
      </trkpt>
      <trkpt lat="46.97229" lon="8.78232">
        <ele>642</ele>
        <time>2021-08-05T14:04:33.111Z</time>
      </trkpt>
      <trkpt lat="46.97229" lon="8.78233">
        <ele>641</ele>
        <time>2021-08-05T14:04:34.110Z</time>
      </trkpt>
      <trkpt lat="46.97229" lon="8.78235">
        <ele>641</ele>
        <time>2021-08-05T14:04:35.110Z</time>
      </trkpt>
      <trkpt lat="46.97229" lon="8.78237">
        <ele>640</ele>
        <time>2021-08-05T14:04:36.110Z</time>
      </trkpt>
      <trkpt lat="46.97228" lon="8.78238">
        <ele>640</ele>
        <time>2021-08-05T14:04:37.111Z</time>
      </trkpt>
      <trkpt lat="46.97228" lon="8.78239">
        <ele>640</ele>
        <time>2021-08-05T14:04:38.111Z</time>
      </trkpt>
      <trkpt lat="46.97228" lon="8.78241">
        <ele>640</ele>
        <time>2021-08-05T14:04:39.111Z</time>
      </trkpt>
      <trkpt lat="46.97228" lon="8.78242">
        <ele>640</ele>
        <time>2021-08-05T14:04:40.111Z</time>
      </trkpt>
      <trkpt lat="46.97228" lon="8.78243">
        <ele>640</ele>
        <time>2021-08-05T14:04:41.111Z</time>
      </trkpt>
      <trkpt lat="46.97227" lon="8.78245">
        <ele>641</ele>
        <time>2021-08-05T14:04:42.110Z</time>
      </trkpt>
      <trkpt lat="46.97227" lon="8.78246">
        <ele>641</ele>
        <time>2021-08-05T14:04:43.111Z</time>
      </trkpt>
      <trkpt lat="46.97227" lon="8.78248">
        <ele>641</ele>
        <time>2021-08-05T14:04:44.111Z</time>
      </trkpt>
      <trkpt lat="46.97227" lon="8.7825">
        <ele>641</ele>
        <time>2021-08-05T14:04:45.111Z</time>
      </trkpt>
      <trkpt lat="46.97227" lon="8.78251">
        <ele>642</ele>
        <time>2021-08-05T14:04:46.111Z</time>
      </trkpt>
      <trkpt lat="46.97226" lon="8.78253">
        <ele>642</ele>
        <time>2021-08-05T14:04:47.110Z</time>
      </trkpt>
      <trkpt lat="46.97226" lon="8.78255">
        <ele>642</ele>
        <time>2021-08-05T14:04:48.110Z</time>
      </trkpt>
      <trkpt lat="46.97226" lon="8.78257">
        <ele>642</ele>
        <time>2021-08-05T14:04:49.111Z</time>
      </trkpt>
      <trkpt lat="46.97225" lon="8.78259">
        <ele>641</ele>
        <time>2021-08-05T14:04:50.110Z</time>
      </trkpt>
      <trkpt lat="46.97225" lon="8.7826">
        <ele>641</ele>
        <time>2021-08-05T14:04:51.111Z</time>
      </trkpt>
      <trkpt lat="46.97224" lon="8.78262">
        <ele>641</ele>
        <time>2021-08-05T14:04:52.110Z</time>
      </trkpt>
      <trkpt lat="46.97223" lon="8.78264">
        <ele>641</ele>
        <time>2021-08-05T14:04:53.111Z</time>
      </trkpt>
      <trkpt lat="46.97223" lon="8.78266">
        <ele>641</ele>
        <time>2021-08-05T14:04:54.111Z</time>
      </trkpt>
      <trkpt lat="46.97222" lon="8.78267">
        <ele>641</ele>
        <time>2021-08-05T14:04:55.111Z</time>
      </trkpt>
      <trkpt lat="46.97222" lon="8.78269">
        <ele>640</ele>
        <time>2021-08-05T14:04:56.110Z</time>
      </trkpt>
      <trkpt lat="46.97222" lon="8.78271">
        <ele>640</ele>
        <time>2021-08-05T14:04:57.110Z</time>
      </trkpt>
      <trkpt lat="46.97222" lon="8.78273">
        <ele>640</ele>
        <time>2021-08-05T14:04:58.110Z</time>
      </trkpt>
      <trkpt lat="46.97221" lon="8.78274">
        <ele>640</ele>
        <time>2021-08-05T14:04:59.111Z</time>
      </trkpt>
      <trkpt lat="46.97222" lon="8.78277">
        <ele>640</ele>
        <time>2021-08-05T14:05:00.110Z</time>
      </trkpt>
      <trkpt lat="46.97222" lon="8.78279">
        <ele>640</ele>
        <time>2021-08-05T14:05:01.111Z</time>
      </trkpt>
      <trkpt lat="46.97222" lon="8.78281">
        <ele>640</ele>
        <time>2021-08-05T14:05:02.111Z</time>
      </trkpt>
      <trkpt lat="46.97221" lon="8.78282">
        <ele>640</ele>
        <time>2021-08-05T14:05:03.111Z</time>
      </trkpt>
      <trkpt lat="46.97221" lon="8.78283">
        <ele>640</ele>
        <time>2021-08-05T14:05:04.110Z</time>
      </trkpt>
      <trkpt lat="46.9722" lon="8.78285">
        <ele>640</ele>
        <time>2021-08-05T14:05:05.111Z</time>
      </trkpt>
      <trkpt lat="46.9722" lon="8.78286">
        <ele>640</ele>
        <time>2021-08-05T14:05:06.111Z</time>
      </trkpt>
      <trkpt lat="46.97219" lon="8.78288">
        <ele>640</ele>
        <time>2021-08-05T14:05:07.111Z</time>
      </trkpt>
      <trkpt lat="46.97219" lon="8.78289">
        <ele>640</ele>
        <time>2021-08-05T14:05:08.110Z</time>
      </trkpt>
      <trkpt lat="46.97219" lon="8.78291">
        <ele>640</ele>
        <time>2021-08-05T14:05:09.111Z</time>
      </trkpt>
      <trkpt lat="46.97218" lon="8.78292">
        <ele>640</ele>
        <time>2021-08-05T14:05:10.110Z</time>
      </trkpt>
      <trkpt lat="46.97218" lon="8.78294">
        <ele>639</ele>
        <time>2021-08-05T14:05:11.110Z</time>
      </trkpt>
      <trkpt lat="46.97217" lon="8.78296">
        <ele>639</ele>
        <time>2021-08-05T14:05:12.110Z</time>
      </trkpt>
      <trkpt lat="46.97216" lon="8.78297">
        <ele>640</ele>
        <time>2021-08-05T14:05:13.110Z</time>
      </trkpt>
      <trkpt lat="46.97216" lon="8.78298">
        <ele>640</ele>
        <time>2021-08-05T14:05:14.111Z</time>
      </trkpt>
      <trkpt lat="46.97215" lon="8.78299">
        <ele>640</ele>
        <time>2021-08-05T14:05:15.111Z</time>
      </trkpt>
      <trkpt lat="46.97215" lon="8.78301">
        <ele>641</ele>
        <time>2021-08-05T14:05:16.111Z</time>
      </trkpt>
      <trkpt lat="46.97215" lon="8.78302">
        <ele>641</ele>
        <time>2021-08-05T14:05:17.111Z</time>
      </trkpt>
      <trkpt lat="46.97214" lon="8.78304">
        <ele>641</ele>
        <time>2021-08-05T14:05:18.111Z</time>
      </trkpt>
      <trkpt lat="46.97214" lon="8.78306">
        <ele>641</ele>
        <time>2021-08-05T14:05:19.111Z</time>
      </trkpt>
      <trkpt lat="46.97213" lon="8.78308">
        <ele>641</ele>
        <time>2021-08-05T14:05:20.111Z</time>
      </trkpt>
      <trkpt lat="46.97212" lon="8.7831">
        <ele>641</ele>
        <time>2021-08-05T14:05:21.110Z</time>
      </trkpt>
      <trkpt lat="46.97211" lon="8.78312">
        <ele>641</ele>
        <time>2021-08-05T14:05:22.110Z</time>
      </trkpt>
      <trkpt lat="46.97211" lon="8.78314">
        <ele>641</ele>
        <time>2021-08-05T14:05:23.111Z</time>
      </trkpt>
      <trkpt lat="46.97211" lon="8.78315">
        <ele>641</ele>
        <time>2021-08-05T14:05:24.111Z</time>
      </trkpt>
      <trkpt lat="46.97211" lon="8.78317">
        <ele>641</ele>
        <time>2021-08-05T14:05:25.110Z</time>
      </trkpt>
      <trkpt lat="46.9721" lon="8.78319">
        <ele>641</ele>
        <time>2021-08-05T14:05:26.110Z</time>
      </trkpt>
      <trkpt lat="46.9721" lon="8.7832">
        <ele>641</ele>
        <time>2021-08-05T14:05:27.110Z</time>
      </trkpt>
      <trkpt lat="46.9721" lon="8.78321">
        <ele>641</ele>
        <time>2021-08-05T14:05:28.111Z</time>
      </trkpt>
      <trkpt lat="46.97209" lon="8.78323">
        <ele>642</ele>
        <time>2021-08-05T14:05:29.110Z</time>
      </trkpt>
      <trkpt lat="46.97209" lon="8.78325">
        <ele>642</ele>
        <time>2021-08-05T14:05:30.110Z</time>
      </trkpt>
      <trkpt lat="46.97209" lon="8.78326">
        <ele>642</ele>
        <time>2021-08-05T14:05:31.111Z</time>
      </trkpt>
      <trkpt lat="46.97208" lon="8.78328">
        <ele>642</ele>
        <time>2021-08-05T14:05:32.111Z</time>
      </trkpt>
      <trkpt lat="46.97208" lon="8.78329">
        <ele>642</ele>
        <time>2021-08-05T14:05:33.111Z</time>
      </trkpt>
      <trkpt lat="46.97208" lon="8.78331">
        <ele>641</ele>
        <time>2021-08-05T14:05:34.110Z</time>
      </trkpt>
      <trkpt lat="46.97207" lon="8.78333">
        <ele>641</ele>
        <time>2021-08-05T14:05:35.110Z</time>
      </trkpt>
      <trkpt lat="46.97207" lon="8.78334">
        <ele>641</ele>
        <time>2021-08-05T14:05:36.111Z</time>
      </trkpt>
      <trkpt lat="46.97207" lon="8.78336">
        <ele>641</ele>
        <time>2021-08-05T14:05:37.110Z</time>
      </trkpt>
      <trkpt lat="46.97206" lon="8.78337">
        <ele>641</ele>
        <time>2021-08-05T14:05:38.111Z</time>
      </trkpt>
      <trkpt lat="46.97206" lon="8.78339">
        <ele>641</ele>
        <time>2021-08-05T14:05:39.111Z</time>
      </trkpt>
      <trkpt lat="46.97205" lon="8.7834">
        <ele>641</ele>
        <time>2021-08-05T14:05:40.110Z</time>
      </trkpt>
      <trkpt lat="46.97205" lon="8.78342">
        <ele>641</ele>
        <time>2021-08-05T14:05:41.111Z</time>
      </trkpt>
      <trkpt lat="46.97204" lon="8.78344">
        <ele>641</ele>
        <time>2021-08-05T14:05:42.110Z</time>
      </trkpt>
      <trkpt lat="46.97204" lon="8.78346">
        <ele>641</ele>
        <time>2021-08-05T14:05:43.111Z</time>
      </trkpt>
      <trkpt lat="46.97202" lon="8.78347">
        <ele>641</ele>
        <time>2021-08-05T14:05:44.111Z</time>
      </trkpt>
      <trkpt lat="46.97202" lon="8.78348">
        <ele>641</ele>
        <time>2021-08-05T14:05:45.111Z</time>
      </trkpt>
      <trkpt lat="46.97201" lon="8.7835">
        <ele>641</ele>
        <time>2021-08-05T14:05:46.110Z</time>
      </trkpt>
      <trkpt lat="46.97201" lon="8.78352">
        <ele>641</ele>
        <time>2021-08-05T14:05:47.111Z</time>
      </trkpt>
      <trkpt lat="46.97201" lon="8.78353">
        <ele>641</ele>
        <time>2021-08-05T14:05:48.110Z</time>
      </trkpt>
      <trkpt lat="46.97201" lon="8.78355">
        <ele>640</ele>
        <time>2021-08-05T14:05:49.111Z</time>
      </trkpt>
      <trkpt lat="46.97201" lon="8.78356">
        <ele>640</ele>
        <time>2021-08-05T14:05:50.111Z</time>
      </trkpt>
      <trkpt lat="46.97201" lon="8.78358">
        <ele>640</ele>
        <time>2021-08-05T14:05:51.110Z</time>
      </trkpt>
      <trkpt lat="46.97201" lon="8.78359">
        <ele>640</ele>
        <time>2021-08-05T14:05:52.110Z</time>
      </trkpt>
      <trkpt lat="46.97201" lon="8.78361">
        <ele>641</ele>
        <time>2021-08-05T14:05:53.111Z</time>
      </trkpt>
      <trkpt lat="46.972" lon="8.78363">
        <ele>641</ele>
        <time>2021-08-05T14:05:54.111Z</time>
      </trkpt>
      <trkpt lat="46.972" lon="8.78365">
        <ele>641</ele>
        <time>2021-08-05T14:05:55.110Z</time>
      </trkpt>
      <trkpt lat="46.972" lon="8.78366">
        <ele>641</ele>
        <time>2021-08-05T14:05:56.111Z</time>
      </trkpt>
      <trkpt lat="46.97199" lon="8.78368">
        <ele>641</ele>
        <time>2021-08-05T14:05:57.111Z</time>
      </trkpt>
      <trkpt lat="46.97199" lon="8.78369">
        <ele>642</ele>
        <time>2021-08-05T14:05:58.110Z</time>
      </trkpt>
      <trkpt lat="46.97198" lon="8.78371">
        <ele>642</ele>
        <time>2021-08-05T14:05:59.111Z</time>
      </trkpt>
      <trkpt lat="46.97198" lon="8.78372">
        <ele>642</ele>
        <time>2021-08-05T14:06:00.110Z</time>
      </trkpt>
      <trkpt lat="46.97197" lon="8.78374">
        <ele>643</ele>
        <time>2021-08-05T14:06:01.110Z</time>
      </trkpt>
      <trkpt lat="46.97196" lon="8.78376">
        <ele>644</ele>
        <time>2021-08-05T14:06:02.110Z</time>
      </trkpt>
      <trkpt lat="46.97196" lon="8.78378">
        <ele>644</ele>
        <time>2021-08-05T14:06:03.110Z</time>
      </trkpt>
      <trkpt lat="46.97195" lon="8.7838">
        <ele>645</ele>
        <time>2021-08-05T14:06:04.111Z</time>
      </trkpt>
      <trkpt lat="46.97195" lon="8.78383">
        <ele>646</ele>
        <time>2021-08-05T14:06:05.111Z</time>
      </trkpt>
      <trkpt lat="46.97194" lon="8.78385">
        <ele>646</ele>
        <time>2021-08-05T14:06:06.111Z</time>
      </trkpt>
      <trkpt lat="46.97194" lon="8.78387">
        <ele>647</ele>
        <time>2021-08-05T14:06:07.111Z</time>
      </trkpt>
      <trkpt lat="46.97194" lon="8.78388">
        <ele>647</ele>
        <time>2021-08-05T14:06:08.111Z</time>
      </trkpt>
      <trkpt lat="46.97194" lon="8.7839">
        <ele>647</ele>
        <time>2021-08-05T14:06:09.111Z</time>
      </trkpt>
      <trkpt lat="46.97193" lon="8.78391">
        <ele>647</ele>
        <time>2021-08-05T14:06:10.111Z</time>
      </trkpt>
      <trkpt lat="46.97192" lon="8.78393">
        <ele>648</ele>
        <time>2021-08-05T14:06:11.110Z</time>
      </trkpt>
      <trkpt lat="46.97191" lon="8.78394">
        <ele>648</ele>
        <time>2021-08-05T14:06:12.110Z</time>
      </trkpt>
      <trkpt lat="46.97191" lon="8.78396">
        <ele>648</ele>
        <time>2021-08-05T14:06:13.110Z</time>
      </trkpt>
      <trkpt lat="46.9719" lon="8.78398">
        <ele>648</ele>
        <time>2021-08-05T14:06:14.111Z</time>
      </trkpt>
      <trkpt lat="46.9719" lon="8.784">
        <ele>648</ele>
        <time>2021-08-05T14:06:15.111Z</time>
      </trkpt>
      <trkpt lat="46.97191" lon="8.78403">
        <ele>647</ele>
        <time>2021-08-05T14:06:16.110Z</time>
      </trkpt>
      <trkpt lat="46.97191" lon="8.78404">
        <ele>647</ele>
        <time>2021-08-05T14:06:17.111Z</time>
      </trkpt>
      <trkpt lat="46.97191" lon="8.78406">
        <ele>646</ele>
        <time>2021-08-05T14:06:18.111Z</time>
      </trkpt>
      <trkpt lat="46.9719" lon="8.78407">
        <ele>646</ele>
        <time>2021-08-05T14:06:19.111Z</time>
      </trkpt>
      <trkpt lat="46.9719" lon="8.78409">
        <ele>646</ele>
        <time>2021-08-05T14:06:20.111Z</time>
      </trkpt>
      <trkpt lat="46.97189" lon="8.78411">
        <ele>646</ele>
        <time>2021-08-05T14:06:21.111Z</time>
      </trkpt>
      <trkpt lat="46.97189" lon="8.78412">
        <ele>645</ele>
        <time>2021-08-05T14:06:22.111Z</time>
      </trkpt>
      <trkpt lat="46.97189" lon="8.78415">
        <ele>645</ele>
        <time>2021-08-05T14:06:23.110Z</time>
      </trkpt>
      <trkpt lat="46.97189" lon="8.78417">
        <ele>645</ele>
        <time>2021-08-05T14:06:24.111Z</time>
      </trkpt>
      <trkpt lat="46.97189" lon="8.78418">
        <ele>644</ele>
        <time>2021-08-05T14:06:25.111Z</time>
      </trkpt>
      <trkpt lat="46.97188" lon="8.7842">
        <ele>644</ele>
        <time>2021-08-05T14:06:26.111Z</time>
      </trkpt>
      <trkpt lat="46.97188" lon="8.78421">
        <ele>644</ele>
        <time>2021-08-05T14:06:27.111Z</time>
      </trkpt>
      <trkpt lat="46.97187" lon="8.78423">
        <ele>644</ele>
        <time>2021-08-05T14:06:28.110Z</time>
      </trkpt>
      <trkpt lat="46.97187" lon="8.78424">
        <ele>644</ele>
        <time>2021-08-05T14:06:29.111Z</time>
      </trkpt>
      <trkpt lat="46.97187" lon="8.78425">
        <ele>644</ele>
        <time>2021-08-05T14:06:30.111Z</time>
      </trkpt>
      <trkpt lat="46.97186" lon="8.78426">
        <ele>644</ele>
        <time>2021-08-05T14:06:31.111Z</time>
      </trkpt>
      <trkpt lat="46.97186" lon="8.78428">
        <ele>644</ele>
        <time>2021-08-05T14:06:32.111Z</time>
      </trkpt>
      <trkpt lat="46.97185" lon="8.78429">
        <ele>644</ele>
        <time>2021-08-05T14:06:33.110Z</time>
      </trkpt>
      <trkpt lat="46.97185" lon="8.7843">
        <ele>644</ele>
        <time>2021-08-05T14:06:34.111Z</time>
      </trkpt>
      <trkpt lat="46.97185" lon="8.78432">
        <ele>644</ele>
        <time>2021-08-05T14:06:35.111Z</time>
      </trkpt>
      <trkpt lat="46.97185" lon="8.78433">
        <ele>645</ele>
        <time>2021-08-05T14:06:36.111Z</time>
      </trkpt>
      <trkpt lat="46.97184" lon="8.78435">
        <ele>645</ele>
        <time>2021-08-05T14:06:37.111Z</time>
      </trkpt>
      <trkpt lat="46.97184" lon="8.78436">
        <ele>646</ele>
        <time>2021-08-05T14:06:38.110Z</time>
      </trkpt>
      <trkpt lat="46.97183" lon="8.78437">
        <ele>646</ele>
        <time>2021-08-05T14:06:39.110Z</time>
      </trkpt>
      <trkpt lat="46.97183" lon="8.78439">
        <ele>647</ele>
        <time>2021-08-05T14:06:40.110Z</time>
      </trkpt>
      <trkpt lat="46.97183" lon="8.7844">
        <ele>647</ele>
        <time>2021-08-05T14:06:41.111Z</time>
      </trkpt>
      <trkpt lat="46.97182" lon="8.78441">
        <ele>647</ele>
        <time>2021-08-05T14:06:42.111Z</time>
      </trkpt>
      <trkpt lat="46.97182" lon="8.78443">
        <ele>647</ele>
        <time>2021-08-05T14:06:43.111Z</time>
      </trkpt>
      <trkpt lat="46.97181" lon="8.78445">
        <ele>647</ele>
        <time>2021-08-05T14:06:44.111Z</time>
      </trkpt>
      <trkpt lat="46.97181" lon="8.78446">
        <ele>647</ele>
        <time>2021-08-05T14:06:45.110Z</time>
      </trkpt>
      <trkpt lat="46.97181" lon="8.78449">
        <ele>647</ele>
        <time>2021-08-05T14:06:46.111Z</time>
      </trkpt>
      <trkpt lat="46.9718" lon="8.7845">
        <ele>647</ele>
        <time>2021-08-05T14:06:47.110Z</time>
      </trkpt>
      <trkpt lat="46.9718" lon="8.78452">
        <ele>647</ele>
        <time>2021-08-05T14:06:48.110Z</time>
      </trkpt>
      <trkpt lat="46.9718" lon="8.78453">
        <ele>648</ele>
        <time>2021-08-05T14:06:49.111Z</time>
      </trkpt>
      <trkpt lat="46.9718" lon="8.78454">
        <ele>648</ele>
        <time>2021-08-05T14:06:50.111Z</time>
      </trkpt>
      <trkpt lat="46.97179" lon="8.78456">
        <ele>648</ele>
        <time>2021-08-05T14:06:51.110Z</time>
      </trkpt>
      <trkpt lat="46.97179" lon="8.78458">
        <ele>648</ele>
        <time>2021-08-05T14:06:52.110Z</time>
      </trkpt>
      <trkpt lat="46.97178" lon="8.78459">
        <ele>648</ele>
        <time>2021-08-05T14:06:53.111Z</time>
      </trkpt>
      <trkpt lat="46.97178" lon="8.78461">
        <ele>648</ele>
        <time>2021-08-05T14:06:54.110Z</time>
      </trkpt>
      <trkpt lat="46.97177" lon="8.78464">
        <ele>648</ele>
        <time>2021-08-05T14:06:55.111Z</time>
      </trkpt>
      <trkpt lat="46.97177" lon="8.78466">
        <ele>648</ele>
        <time>2021-08-05T14:06:56.110Z</time>
      </trkpt>
      <trkpt lat="46.97177" lon="8.78467">
        <ele>647</ele>
        <time>2021-08-05T14:06:57.111Z</time>
      </trkpt>
      <trkpt lat="46.97177" lon="8.78468">
        <ele>647</ele>
        <time>2021-08-05T14:06:58.110Z</time>
      </trkpt>
      <trkpt lat="46.97176" lon="8.78469">
        <ele>648</ele>
        <time>2021-08-05T14:06:59.111Z</time>
      </trkpt>
      <trkpt lat="46.97176" lon="8.78471">
        <ele>648</ele>
        <time>2021-08-05T14:07:00.111Z</time>
      </trkpt>
      <trkpt lat="46.97176" lon="8.78473">
        <ele>648</ele>
        <time>2021-08-05T14:07:01.111Z</time>
      </trkpt>
      <trkpt lat="46.97176" lon="8.78474">
        <ele>648</ele>
        <time>2021-08-05T14:07:02.110Z</time>
      </trkpt>
      <trkpt lat="46.97176" lon="8.78475">
        <ele>648</ele>
        <time>2021-08-05T14:07:03.111Z</time>
      </trkpt>
      <trkpt lat="46.97175" lon="8.78477">
        <ele>648</ele>
        <time>2021-08-05T14:07:04.110Z</time>
      </trkpt>
      <trkpt lat="46.97174" lon="8.78479">
        <ele>649</ele>
        <time>2021-08-05T14:07:05.111Z</time>
      </trkpt>
      <trkpt lat="46.97174" lon="8.78481">
        <ele>649</ele>
        <time>2021-08-05T14:07:06.111Z</time>
      </trkpt>
      <trkpt lat="46.97173" lon="8.78482">
        <ele>649</ele>
        <time>2021-08-05T14:07:07.111Z</time>
      </trkpt>
      <trkpt lat="46.97172" lon="8.78484">
        <ele>649</ele>
        <time>2021-08-05T14:07:08.111Z</time>
      </trkpt>
      <trkpt lat="46.97172" lon="8.78486">
        <ele>649</ele>
        <time>2021-08-05T14:07:09.111Z</time>
      </trkpt>
      <trkpt lat="46.97172" lon="8.78488">
        <ele>649</ele>
        <time>2021-08-05T14:07:10.111Z</time>
      </trkpt>
      <trkpt lat="46.97172" lon="8.7849">
        <ele>649</ele>
        <time>2021-08-05T14:07:11.111Z</time>
      </trkpt>
      <trkpt lat="46.97172" lon="8.78492">
        <ele>650</ele>
        <time>2021-08-05T14:07:12.111Z</time>
      </trkpt>
      <trkpt lat="46.9717" lon="8.78493">
        <ele>650</ele>
        <time>2021-08-05T14:07:13.111Z</time>
      </trkpt>
      <trkpt lat="46.9717" lon="8.78495">
        <ele>651</ele>
        <time>2021-08-05T14:07:14.110Z</time>
      </trkpt>
      <trkpt lat="46.97169" lon="8.78496">
        <ele>651</ele>
        <time>2021-08-05T14:07:15.110Z</time>
      </trkpt>
      <trkpt lat="46.97169" lon="8.78498">
        <ele>652</ele>
        <time>2021-08-05T14:07:16.110Z</time>
      </trkpt>
      <trkpt lat="46.97167" lon="8.785">
        <ele>652</ele>
        <time>2021-08-05T14:07:17.111Z</time>
      </trkpt>
      <trkpt lat="46.97166" lon="8.78502">
        <ele>652</ele>
        <time>2021-08-05T14:07:18.111Z</time>
      </trkpt>
      <trkpt lat="46.97166" lon="8.78504">
        <ele>653</ele>
        <time>2021-08-05T14:07:19.110Z</time>
      </trkpt>
      <trkpt lat="46.97165" lon="8.78506">
        <ele>653</ele>
        <time>2021-08-05T14:07:20.110Z</time>
      </trkpt>
      <trkpt lat="46.97165" lon="8.78508">
        <ele>653</ele>
        <time>2021-08-05T14:07:21.110Z</time>
      </trkpt>
      <trkpt lat="46.97165" lon="8.7851">
        <ele>654</ele>
        <time>2021-08-05T14:07:22.110Z</time>
      </trkpt>
      <trkpt lat="46.97164" lon="8.78511">
        <ele>654</ele>
        <time>2021-08-05T14:07:23.110Z</time>
      </trkpt>
      <trkpt lat="46.97164" lon="8.78512">
        <ele>654</ele>
        <time>2021-08-05T14:07:24.110Z</time>
      </trkpt>
      <trkpt lat="46.97164" lon="8.78513">
        <ele>654</ele>
        <time>2021-08-05T14:07:25.111Z</time>
      </trkpt>
      <trkpt lat="46.97164" lon="8.78514">
        <ele>655</ele>
        <time>2021-08-05T14:07:26.111Z</time>
      </trkpt>
      <trkpt lat="46.97163" lon="8.78516">
        <ele>655</ele>
        <time>2021-08-05T14:07:27.110Z</time>
      </trkpt>
      <trkpt lat="46.97163" lon="8.78518">
        <ele>655</ele>
        <time>2021-08-05T14:07:28.110Z</time>
      </trkpt>
      <trkpt lat="46.97163" lon="8.78519">
        <ele>655</ele>
        <time>2021-08-05T14:07:29.110Z</time>
      </trkpt>
      <trkpt lat="46.97163" lon="8.7852">
        <ele>655</ele>
        <time>2021-08-05T14:07:30.110Z</time>
      </trkpt>
      <trkpt lat="46.97163" lon="8.78521">
        <ele>656</ele>
        <time>2021-08-05T14:07:31.110Z</time>
      </trkpt>
      <trkpt lat="46.97163" lon="8.78523">
        <ele>656</ele>
        <time>2021-08-05T14:07:32.110Z</time>
      </trkpt>
      <trkpt lat="46.97163" lon="8.78524">
        <ele>656</ele>
        <time>2021-08-05T14:07:33.111Z</time>
      </trkpt>
      <trkpt lat="46.97163" lon="8.78525">
        <ele>656</ele>
        <time>2021-08-05T14:07:34.110Z</time>
      </trkpt>
      <trkpt lat="46.97162" lon="8.78525">
        <ele>655</ele>
        <time>2021-08-05T14:07:35.110Z</time>
      </trkpt>
      <trkpt lat="46.97161" lon="8.78526">
        <ele>655</ele>
        <time>2021-08-05T14:07:36.111Z</time>
      </trkpt>
      <trkpt lat="46.97161" lon="8.78527">
        <ele>654</ele>
        <time>2021-08-05T14:07:37.111Z</time>
      </trkpt>
      <trkpt lat="46.9716" lon="8.78527">
        <ele>654</ele>
        <time>2021-08-05T14:07:38.110Z</time>
      </trkpt>
      <trkpt lat="46.9716" lon="8.78528">
        <ele>654</ele>
        <time>2021-08-05T14:07:39.110Z</time>
      </trkpt>
      <trkpt lat="46.97159" lon="8.7853">
        <ele>653</ele>
        <time>2021-08-05T14:07:40.110Z</time>
      </trkpt>
      <trkpt lat="46.97159" lon="8.78531">
        <ele>653</ele>
        <time>2021-08-05T14:07:41.110Z</time>
      </trkpt>
      <trkpt lat="46.97158" lon="8.78533">
        <ele>653</ele>
        <time>2021-08-05T14:07:42.110Z</time>
      </trkpt>
      <trkpt lat="46.97158" lon="8.78535">
        <ele>653</ele>
        <time>2021-08-05T14:07:43.111Z</time>
      </trkpt>
      <trkpt lat="46.97157" lon="8.78537">
        <ele>654</ele>
        <time>2021-08-05T14:07:44.111Z</time>
      </trkpt>
      <trkpt lat="46.97157" lon="8.78539">
        <ele>654</ele>
        <time>2021-08-05T14:07:45.110Z</time>
      </trkpt>
      <trkpt lat="46.97156" lon="8.78541">
        <ele>655</ele>
        <time>2021-08-05T14:07:46.110Z</time>
      </trkpt>
      <trkpt lat="46.97156" lon="8.78545">
        <ele>656</ele>
        <time>2021-08-05T14:07:47.111Z</time>
      </trkpt>
      <trkpt lat="46.97156" lon="8.78547">
        <ele>656</ele>
        <time>2021-08-05T14:07:48.110Z</time>
      </trkpt>
      <trkpt lat="46.97156" lon="8.78549">
        <ele>657</ele>
        <time>2021-08-05T14:07:49.110Z</time>
      </trkpt>
      <trkpt lat="46.97155" lon="8.7855">
        <ele>658</ele>
        <time>2021-08-05T14:07:50.110Z</time>
      </trkpt>
      <trkpt lat="46.97155" lon="8.78551">
        <ele>658</ele>
        <time>2021-08-05T14:07:51.111Z</time>
      </trkpt>
      <trkpt lat="46.97155" lon="8.78552">
        <ele>659</ele>
        <time>2021-08-05T14:07:52.110Z</time>
      </trkpt>
      <trkpt lat="46.97155" lon="8.78555">
        <ele>659</ele>
        <time>2021-08-05T14:07:53.111Z</time>
      </trkpt>
      <trkpt lat="46.97154" lon="8.78557">
        <ele>660</ele>
        <time>2021-08-05T14:07:54.110Z</time>
      </trkpt>
      <trkpt lat="46.97154" lon="8.78559">
        <ele>660</ele>
        <time>2021-08-05T14:07:55.111Z</time>
      </trkpt>
      <trkpt lat="46.97153" lon="8.78561">
        <ele>661</ele>
        <time>2021-08-05T14:07:56.111Z</time>
      </trkpt>
      <trkpt lat="46.97154" lon="8.78562">
        <ele>661</ele>
        <time>2021-08-05T14:07:57.110Z</time>
      </trkpt>
      <trkpt lat="46.97153" lon="8.78564">
        <ele>661</ele>
        <time>2021-08-05T14:07:58.110Z</time>
      </trkpt>
      <trkpt lat="46.97152" lon="8.78565">
        <ele>661</ele>
        <time>2021-08-05T14:07:59.110Z</time>
      </trkpt>
      <trkpt lat="46.97152" lon="8.78566">
        <ele>661</ele>
        <time>2021-08-05T14:08:00.110Z</time>
      </trkpt>
      <trkpt lat="46.97151" lon="8.78567">
        <ele>660</ele>
        <time>2021-08-05T14:08:01.110Z</time>
      </trkpt>
      <trkpt lat="46.9715" lon="8.78569">
        <ele>660</ele>
        <time>2021-08-05T14:08:02.111Z</time>
      </trkpt>
      <trkpt lat="46.9715" lon="8.78569">
        <ele>660</ele>
        <time>2021-08-05T14:08:03.110Z</time>
      </trkpt>
      <trkpt lat="46.9715" lon="8.7857">
        <ele>659</ele>
        <time>2021-08-05T14:08:04.110Z</time>
      </trkpt>
      <trkpt lat="46.97149" lon="8.78572">
        <ele>658</ele>
        <time>2021-08-05T14:08:05.111Z</time>
      </trkpt>
      <trkpt lat="46.97148" lon="8.78574">
        <ele>658</ele>
        <time>2021-08-05T14:08:06.110Z</time>
      </trkpt>
      <trkpt lat="46.97147" lon="8.78576">
        <ele>658</ele>
        <time>2021-08-05T14:08:07.111Z</time>
      </trkpt>
      <trkpt lat="46.97147" lon="8.78578">
        <ele>658</ele>
        <time>2021-08-05T14:08:08.111Z</time>
      </trkpt>
      <trkpt lat="46.97147" lon="8.7858">
        <ele>657</ele>
        <time>2021-08-05T14:08:09.111Z</time>
      </trkpt>
      <trkpt lat="46.97146" lon="8.78581">
        <ele>657</ele>
        <time>2021-08-05T14:08:10.110Z</time>
      </trkpt>
      <trkpt lat="46.97146" lon="8.78582">
        <ele>657</ele>
        <time>2021-08-05T14:08:11.111Z</time>
      </trkpt>
      <trkpt lat="46.97145" lon="8.78584">
        <ele>657</ele>
        <time>2021-08-05T14:08:12.110Z</time>
      </trkpt>
      <trkpt lat="46.97145" lon="8.78586">
        <ele>657</ele>
        <time>2021-08-05T14:08:13.111Z</time>
      </trkpt>
      <trkpt lat="46.97145" lon="8.78587">
        <ele>657</ele>
        <time>2021-08-05T14:08:14.111Z</time>
      </trkpt>
      <trkpt lat="46.97144" lon="8.78589">
        <ele>657</ele>
        <time>2021-08-05T14:08:15.110Z</time>
      </trkpt>
      <trkpt lat="46.97144" lon="8.78591">
        <ele>657</ele>
        <time>2021-08-05T14:08:16.110Z</time>
      </trkpt>
      <trkpt lat="46.97144" lon="8.78593">
        <ele>656</ele>
        <time>2021-08-05T14:08:17.110Z</time>
      </trkpt>
      <trkpt lat="46.97144" lon="8.78595">
        <ele>656</ele>
        <time>2021-08-05T14:08:18.110Z</time>
      </trkpt>
      <trkpt lat="46.97143" lon="8.78596">
        <ele>655</ele>
        <time>2021-08-05T14:08:19.110Z</time>
      </trkpt>
      <trkpt lat="46.97143" lon="8.78598">
        <ele>655</ele>
        <time>2021-08-05T14:08:20.110Z</time>
      </trkpt>
      <trkpt lat="46.97142" lon="8.786">
        <ele>654</ele>
        <time>2021-08-05T14:08:21.110Z</time>
      </trkpt>
      <trkpt lat="46.97142" lon="8.78602">
        <ele>654</ele>
        <time>2021-08-05T14:08:22.111Z</time>
      </trkpt>
      <trkpt lat="46.97142" lon="8.78603">
        <ele>654</ele>
        <time>2021-08-05T14:08:23.110Z</time>
      </trkpt>
      <trkpt lat="46.97141" lon="8.78604">
        <ele>654</ele>
        <time>2021-08-05T14:08:24.110Z</time>
      </trkpt>
      <trkpt lat="46.97141" lon="8.78606">
        <ele>654</ele>
        <time>2021-08-05T14:08:25.111Z</time>
      </trkpt>
      <trkpt lat="46.97141" lon="8.78607">
        <ele>654</ele>
        <time>2021-08-05T14:08:26.110Z</time>
      </trkpt>
      <trkpt lat="46.9714" lon="8.78609">
        <ele>654</ele>
        <time>2021-08-05T14:08:27.110Z</time>
      </trkpt>
      <trkpt lat="46.9714" lon="8.78611">
        <ele>654</ele>
        <time>2021-08-05T14:08:28.110Z</time>
      </trkpt>
      <trkpt lat="46.97139" lon="8.78612">
        <ele>653</ele>
        <time>2021-08-05T14:08:29.111Z</time>
      </trkpt>
      <trkpt lat="46.97139" lon="8.78614">
        <ele>653</ele>
        <time>2021-08-05T14:08:30.111Z</time>
      </trkpt>
      <trkpt lat="46.97139" lon="8.78616">
        <ele>653</ele>
        <time>2021-08-05T14:08:31.111Z</time>
      </trkpt>
      <trkpt lat="46.97138" lon="8.78618">
        <ele>652</ele>
        <time>2021-08-05T14:08:32.111Z</time>
      </trkpt>
      <trkpt lat="46.97138" lon="8.7862">
        <ele>652</ele>
        <time>2021-08-05T14:08:33.110Z</time>
      </trkpt>
      <trkpt lat="46.97138" lon="8.78621">
        <ele>653</ele>
        <time>2021-08-05T14:08:34.110Z</time>
      </trkpt>
      <trkpt lat="46.97137" lon="8.78623">
        <ele>653</ele>
        <time>2021-08-05T14:08:35.111Z</time>
      </trkpt>
      <trkpt lat="46.97137" lon="8.78624">
        <ele>653</ele>
        <time>2021-08-05T14:08:36.110Z</time>
      </trkpt>
      <trkpt lat="46.97137" lon="8.78625">
        <ele>653</ele>
        <time>2021-08-05T14:08:37.111Z</time>
      </trkpt>
      <trkpt lat="46.97137" lon="8.78627">
        <ele>653</ele>
        <time>2021-08-05T14:08:38.111Z</time>
      </trkpt>
      <trkpt lat="46.97136" lon="8.78629">
        <ele>653</ele>
        <time>2021-08-05T14:08:39.111Z</time>
      </trkpt>
      <trkpt lat="46.97136" lon="8.7863">
        <ele>653</ele>
        <time>2021-08-05T14:08:40.111Z</time>
      </trkpt>
      <trkpt lat="46.97136" lon="8.78632">
        <ele>652</ele>
        <time>2021-08-05T14:08:41.111Z</time>
      </trkpt>
      <trkpt lat="46.97136" lon="8.78634">
        <ele>652</ele>
        <time>2021-08-05T14:08:42.111Z</time>
      </trkpt>
      <trkpt lat="46.97136" lon="8.78636">
        <ele>651</ele>
        <time>2021-08-05T14:08:43.111Z</time>
      </trkpt>
      <trkpt lat="46.97135" lon="8.78637">
        <ele>651</ele>
        <time>2021-08-05T14:08:44.111Z</time>
      </trkpt>
      <trkpt lat="46.97134" lon="8.78639">
        <ele>651</ele>
        <time>2021-08-05T14:08:45.111Z</time>
      </trkpt>
      <trkpt lat="46.97134" lon="8.78641">
        <ele>651</ele>
        <time>2021-08-05T14:08:46.111Z</time>
      </trkpt>
      <trkpt lat="46.97134" lon="8.78643">
        <ele>651</ele>
        <time>2021-08-05T14:08:47.110Z</time>
      </trkpt>
      <trkpt lat="46.97133" lon="8.78644">
        <ele>651</ele>
        <time>2021-08-05T14:08:48.111Z</time>
      </trkpt>
      <trkpt lat="46.97132" lon="8.78646">
        <ele>651</ele>
        <time>2021-08-05T14:08:49.111Z</time>
      </trkpt>
      <trkpt lat="46.9713" lon="8.78647">
        <ele>651</ele>
        <time>2021-08-05T14:08:50.111Z</time>
      </trkpt>
      <trkpt lat="46.97129" lon="8.78648">
        <ele>651</ele>
        <time>2021-08-05T14:08:51.111Z</time>
      </trkpt>
      <trkpt lat="46.97129" lon="8.78649">
        <ele>651</ele>
        <time>2021-08-05T14:08:52.111Z</time>
      </trkpt>
      <trkpt lat="46.97128" lon="8.7865">
        <ele>651</ele>
        <time>2021-08-05T14:08:53.111Z</time>
      </trkpt>
      <trkpt lat="46.97128" lon="8.7865">
        <ele>650</ele>
        <time>2021-08-05T14:08:54.111Z</time>
      </trkpt>
      <trkpt lat="46.97127" lon="8.78651">
        <ele>649</ele>
        <time>2021-08-05T14:08:55.110Z</time>
      </trkpt>
      <trkpt lat="46.97126" lon="8.78652">
        <ele>648</ele>
        <time>2021-08-05T14:08:56.110Z</time>
      </trkpt>
      <trkpt lat="46.97125" lon="8.78653">
        <ele>648</ele>
        <time>2021-08-05T14:08:57.111Z</time>
      </trkpt>
      <trkpt lat="46.97124" lon="8.78654">
        <ele>647</ele>
        <time>2021-08-05T14:08:58.111Z</time>
      </trkpt>
      <trkpt lat="46.97123" lon="8.78655">
        <ele>647</ele>
        <time>2021-08-05T14:08:59.111Z</time>
      </trkpt>
      <trkpt lat="46.97122" lon="8.78656">
        <ele>647</ele>
        <time>2021-08-05T14:09:00.110Z</time>
      </trkpt>
      <trkpt lat="46.97121" lon="8.78657">
        <ele>646</ele>
        <time>2021-08-05T14:09:01.110Z</time>
      </trkpt>
      <trkpt lat="46.9712" lon="8.78657">
        <ele>645</ele>
        <time>2021-08-05T14:09:02.111Z</time>
      </trkpt>
      <trkpt lat="46.97119" lon="8.78657">
        <ele>645</ele>
        <time>2021-08-05T14:09:03.111Z</time>
      </trkpt>
      <trkpt lat="46.97118" lon="8.78658">
        <ele>644</ele>
        <time>2021-08-05T14:09:04.110Z</time>
      </trkpt>
      <trkpt lat="46.97117" lon="8.78658">
        <ele>644</ele>
        <time>2021-08-05T14:09:05.111Z</time>
      </trkpt>
      <trkpt lat="46.97117" lon="8.78659">
        <ele>644</ele>
        <time>2021-08-05T14:09:06.110Z</time>
      </trkpt>
      <trkpt lat="46.97116" lon="8.78659">
        <ele>643</ele>
        <time>2021-08-05T14:09:07.111Z</time>
      </trkpt>
      <trkpt lat="46.97116" lon="8.78659">
        <ele>643</ele>
        <time>2021-08-05T14:09:08.111Z</time>
      </trkpt>
      <trkpt lat="46.97115" lon="8.78659">
        <ele>643</ele>
        <time>2021-08-05T14:09:09.110Z</time>
      </trkpt>
      <trkpt lat="46.97116" lon="8.78659">
        <ele>642</ele>
        <time>2021-08-05T14:09:10.111Z</time>
      </trkpt>
      <trkpt lat="46.97141" lon="8.7867">
        <ele>641</ele>
        <time>2021-08-05T14:10:53.111Z</time>
      </trkpt>
      <trkpt lat="46.9714" lon="8.78674">
        <ele>639</ele>
        <time>2021-08-05T14:10:54.110Z</time>
      </trkpt>
      <trkpt lat="46.97149" lon="8.78678">
        <ele>639</ele>
        <time>2021-08-05T14:10:55.111Z</time>
      </trkpt>
      <trkpt lat="46.97144" lon="8.78676">
        <ele>638</ele>
        <time>2021-08-05T14:10:56.110Z</time>
      </trkpt>
      <trkpt lat="46.97142" lon="8.78677">
        <ele>637</ele>
        <time>2021-08-05T14:10:57.111Z</time>
      </trkpt>
      <trkpt lat="46.97135" lon="8.78676">
        <ele>637</ele>
        <time>2021-08-05T14:10:58.110Z</time>
      </trkpt>
      <trkpt lat="46.97134" lon="8.78677">
        <ele>637</ele>
        <time>2021-08-05T14:10:59.111Z</time>
      </trkpt>
      <trkpt lat="46.97134" lon="8.78679">
        <ele>637</ele>
        <time>2021-08-05T14:11:00.111Z</time>
      </trkpt>
      <trkpt lat="46.97129" lon="8.78678">
        <ele>638</ele>
        <time>2021-08-05T14:11:01.111Z</time>
      </trkpt>
      <trkpt lat="46.97125" lon="8.78677">
        <ele>640</ele>
        <time>2021-08-05T14:11:02.111Z</time>
      </trkpt>
      <trkpt lat="46.97122" lon="8.78678">
        <ele>641</ele>
        <time>2021-08-05T14:11:03.111Z</time>
      </trkpt>
      <trkpt lat="46.97122" lon="8.7868">
        <ele>642</ele>
        <time>2021-08-05T14:11:04.111Z</time>
      </trkpt>
      <trkpt lat="46.97122" lon="8.78683">
        <ele>644</ele>
        <time>2021-08-05T14:11:05.111Z</time>
      </trkpt>
      <trkpt lat="46.97121" lon="8.78685">
        <ele>645</ele>
        <time>2021-08-05T14:11:06.111Z</time>
      </trkpt>
      <trkpt lat="46.97121" lon="8.78687">
        <ele>646</ele>
        <time>2021-08-05T14:11:07.110Z</time>
      </trkpt>
      <trkpt lat="46.97121" lon="8.78688">
        <ele>646</ele>
        <time>2021-08-05T14:11:08.111Z</time>
      </trkpt>
      <trkpt lat="46.9712" lon="8.7869">
        <ele>647</ele>
        <time>2021-08-05T14:11:09.111Z</time>
      </trkpt>
      <trkpt lat="46.97119" lon="8.78692">
        <ele>647</ele>
        <time>2021-08-05T14:11:10.111Z</time>
      </trkpt>
      <trkpt lat="46.97119" lon="8.78694">
        <ele>647</ele>
        <time>2021-08-05T14:11:11.111Z</time>
      </trkpt>
      <trkpt lat="46.97119" lon="8.78696">
        <ele>646</ele>
        <time>2021-08-05T14:11:12.111Z</time>
      </trkpt>
      <trkpt lat="46.97119" lon="8.78697">
        <ele>646</ele>
        <time>2021-08-05T14:11:13.110Z</time>
      </trkpt>
      <trkpt lat="46.97118" lon="8.78699">
        <ele>646</ele>
        <time>2021-08-05T14:11:14.111Z</time>
      </trkpt>
      <trkpt lat="46.97118" lon="8.78701">
        <ele>646</ele>
        <time>2021-08-05T14:11:15.111Z</time>
      </trkpt>
      <trkpt lat="46.97117" lon="8.78702">
        <ele>646</ele>
        <time>2021-08-05T14:11:16.110Z</time>
      </trkpt>
      <trkpt lat="46.97117" lon="8.78704">
        <ele>646</ele>
        <time>2021-08-05T14:11:17.111Z</time>
      </trkpt>
      <trkpt lat="46.97116" lon="8.78706">
        <ele>646</ele>
        <time>2021-08-05T14:11:18.110Z</time>
      </trkpt>
      <trkpt lat="46.97115" lon="8.78707">
        <ele>647</ele>
        <time>2021-08-05T14:11:19.111Z</time>
      </trkpt>
      <trkpt lat="46.97115" lon="8.7871">
        <ele>647</ele>
        <time>2021-08-05T14:11:20.111Z</time>
      </trkpt>
      <trkpt lat="46.97115" lon="8.78711">
        <ele>646</ele>
        <time>2021-08-05T14:11:21.111Z</time>
      </trkpt>
      <trkpt lat="46.97115" lon="8.78712">
        <ele>646</ele>
        <time>2021-08-05T14:11:22.110Z</time>
      </trkpt>
      <trkpt lat="46.97114" lon="8.78714">
        <ele>646</ele>
        <time>2021-08-05T14:11:23.110Z</time>
      </trkpt>
      <trkpt lat="46.97113" lon="8.78715">
        <ele>646</ele>
        <time>2021-08-05T14:11:24.111Z</time>
      </trkpt>
      <trkpt lat="46.97113" lon="8.78717">
        <ele>647</ele>
        <time>2021-08-05T14:11:25.111Z</time>
      </trkpt>
      <trkpt lat="46.97113" lon="8.78718">
        <ele>648</ele>
        <time>2021-08-05T14:11:26.111Z</time>
      </trkpt>
      <trkpt lat="46.97112" lon="8.7872">
        <ele>648</ele>
        <time>2021-08-05T14:11:27.110Z</time>
      </trkpt>
      <trkpt lat="46.97112" lon="8.78722">
        <ele>649</ele>
        <time>2021-08-05T14:11:28.110Z</time>
      </trkpt>
      <trkpt lat="46.97111" lon="8.78723">
        <ele>649</ele>
        <time>2021-08-05T14:11:29.110Z</time>
      </trkpt>
      <trkpt lat="46.97111" lon="8.78725">
        <ele>650</ele>
        <time>2021-08-05T14:11:30.110Z</time>
      </trkpt>
      <trkpt lat="46.9711" lon="8.78726">
        <ele>650</ele>
        <time>2021-08-05T14:11:32.205Z</time>
      </trkpt>
      <trkpt lat="46.97109" lon="8.78727">
        <ele>650</ele>
        <time>2021-08-05T14:11:33.205Z</time>
      </trkpt>
      <trkpt lat="46.97109" lon="8.78729">
        <ele>650</ele>
        <time>2021-08-05T14:11:34.204Z</time>
      </trkpt>
      <trkpt lat="46.97108" lon="8.78731">
        <ele>650</ele>
        <time>2021-08-05T14:11:35.204Z</time>
      </trkpt>
      <trkpt lat="46.97108" lon="8.78733">
        <ele>651</ele>
        <time>2021-08-05T14:11:36.205Z</time>
      </trkpt>
      <trkpt lat="46.97108" lon="8.78734">
        <ele>651</ele>
        <time>2021-08-05T14:11:47.348Z</time>
      </trkpt>
      <trkpt lat="46.97108" lon="8.78736">
        <ele>652</ele>
        <time>2021-08-05T14:11:48.348Z</time>
      </trkpt>
      <trkpt lat="46.97107" lon="8.78737">
        <ele>652</ele>
        <time>2021-08-05T14:11:49.348Z</time>
      </trkpt>
      <trkpt lat="46.97107" lon="8.78739">
        <ele>652</ele>
        <time>2021-08-05T14:11:50.347Z</time>
      </trkpt>
      <trkpt lat="46.97106" lon="8.78741">
        <ele>652</ele>
        <time>2021-08-05T14:11:51.348Z</time>
      </trkpt>
      <trkpt lat="46.97106" lon="8.78743">
        <ele>652</ele>
        <time>2021-08-05T14:11:52.347Z</time>
      </trkpt>
      <trkpt lat="46.97106" lon="8.78745">
        <ele>652</ele>
        <time>2021-08-05T14:11:53.347Z</time>
      </trkpt>
      <trkpt lat="46.97106" lon="8.78747">
        <ele>652</ele>
        <time>2021-08-05T14:11:54.348Z</time>
      </trkpt>
      <trkpt lat="46.97105" lon="8.78748">
        <ele>652</ele>
        <time>2021-08-05T14:11:55.347Z</time>
      </trkpt>
      <trkpt lat="46.97105" lon="8.7875">
        <ele>653</ele>
        <time>2021-08-05T14:11:56.347Z</time>
      </trkpt>
      <trkpt lat="46.97104" lon="8.78751">
        <ele>653</ele>
        <time>2021-08-05T14:11:57.347Z</time>
      </trkpt>
      <trkpt lat="46.97104" lon="8.78752">
        <ele>653</ele>
        <time>2021-08-05T14:11:58.348Z</time>
      </trkpt>
      <trkpt lat="46.97103" lon="8.78754">
        <ele>654</ele>
        <time>2021-08-05T14:11:59.348Z</time>
      </trkpt>
      <trkpt lat="46.97103" lon="8.78755">
        <ele>654</ele>
        <time>2021-08-05T14:12:00.347Z</time>
      </trkpt>
      <trkpt lat="46.97102" lon="8.78756">
        <ele>654</ele>
        <time>2021-08-05T14:12:01.348Z</time>
      </trkpt>
      <trkpt lat="46.97102" lon="8.78758">
        <ele>654</ele>
        <time>2021-08-05T14:12:02.348Z</time>
      </trkpt>
      <trkpt lat="46.97101" lon="8.78759">
        <ele>654</ele>
        <time>2021-08-05T14:12:03.347Z</time>
      </trkpt>
      <trkpt lat="46.97101" lon="8.7876">
        <ele>654</ele>
        <time>2021-08-05T14:12:04.348Z</time>
      </trkpt>
      <trkpt lat="46.97101" lon="8.78762">
        <ele>654</ele>
        <time>2021-08-05T14:12:05.347Z</time>
      </trkpt>
      <trkpt lat="46.97101" lon="8.78763">
        <ele>654</ele>
        <time>2021-08-05T14:12:06.348Z</time>
      </trkpt>
      <trkpt lat="46.97101" lon="8.78764">
        <ele>655</ele>
        <time>2021-08-05T14:12:07.347Z</time>
      </trkpt>
      <trkpt lat="46.97101" lon="8.78765">
        <ele>655</ele>
        <time>2021-08-05T14:12:08.348Z</time>
      </trkpt>
      <trkpt lat="46.971" lon="8.78765">
        <ele>655</ele>
        <time>2021-08-05T14:12:09.348Z</time>
      </trkpt>
      <trkpt lat="46.97101" lon="8.78765">
        <ele>655</ele>
        <time>2021-08-05T14:12:10.348Z</time>
      </trkpt>
      <trkpt lat="46.97101" lon="8.78765">
        <ele>654</ele>
        <time>2021-08-05T14:12:11.348Z</time>
      </trkpt>
      <trkpt lat="46.97102" lon="8.78765">
        <ele>653</ele>
        <time>2021-08-05T14:12:12.349Z</time>
      </trkpt>
      <trkpt lat="46.97104" lon="8.78767">
        <ele>648</ele>
        <time>2021-08-05T14:12:13.348Z</time>
      </trkpt>
      <trkpt lat="46.97105" lon="8.78768">
        <ele>648</ele>
        <time>2021-08-05T14:12:14.348Z</time>
      </trkpt>
      <trkpt lat="46.97107" lon="8.7877">
        <ele>647</ele>
        <time>2021-08-05T14:12:17.470Z</time>
      </trkpt>
      <trkpt lat="46.97108" lon="8.78766">
        <ele>644</ele>
        <time>2021-08-05T14:12:18.472Z</time>
      </trkpt>
      <trkpt lat="46.97108" lon="8.78766">
        <ele>645</ele>
        <time>2021-08-05T14:12:19.471Z</time>
      </trkpt>
      <trkpt lat="46.97108" lon="8.78765">
        <ele>645</ele>
        <time>2021-08-05T14:12:20.471Z</time>
      </trkpt>
      <trkpt lat="46.9711" lon="8.78769">
        <ele>650</ele>
        <time>2021-08-05T14:12:21.472Z</time>
      </trkpt>
      <trkpt lat="46.97109" lon="8.78768">
        <ele>649</ele>
        <time>2021-08-05T14:12:22.473Z</time>
      </trkpt>
      <trkpt lat="46.97109" lon="8.78767">
        <ele>649</ele>
        <time>2021-08-05T14:12:23.472Z</time>
      </trkpt>
      <trkpt lat="46.97106" lon="8.78765">
        <ele>655</ele>
        <time>2021-08-05T14:12:24.473Z</time>
      </trkpt>
      <trkpt lat="46.97102" lon="8.78765">
        <ele>649</ele>
        <time>2021-08-05T14:12:25.473Z</time>
      </trkpt>
      <trkpt lat="46.97101" lon="8.78763">
        <ele>651</ele>
        <time>2021-08-05T14:12:26.474Z</time>
      </trkpt>
      <trkpt lat="46.971" lon="8.78763">
        <ele>651</ele>
        <time>2021-08-05T14:12:27.475Z</time>
      </trkpt>
      <trkpt lat="46.97099" lon="8.78763">
        <ele>652</ele>
        <time>2021-08-05T14:12:28.474Z</time>
      </trkpt>
      <trkpt lat="46.97098" lon="8.78763">
        <ele>652</ele>
        <time>2021-08-05T14:12:29.474Z</time>
      </trkpt>
      <trkpt lat="46.97097" lon="8.78763">
        <ele>651</ele>
        <time>2021-08-05T14:12:30.474Z</time>
      </trkpt>
      <trkpt lat="46.97096" lon="8.78763">
        <ele>651</ele>
        <time>2021-08-05T14:12:31.475Z</time>
      </trkpt>
      <trkpt lat="46.97095" lon="8.78763">
        <ele>650</ele>
        <time>2021-08-05T14:12:32.475Z</time>
      </trkpt>
      <trkpt lat="46.97095" lon="8.78763">
        <ele>649</ele>
        <time>2021-08-05T14:12:33.474Z</time>
      </trkpt>
      <trkpt lat="46.97095" lon="8.78764">
        <ele>649</ele>
        <time>2021-08-05T14:12:34.474Z</time>
      </trkpt>
      <trkpt lat="46.97095" lon="8.78764">
        <ele>648</ele>
        <time>2021-08-05T14:12:35.474Z</time>
      </trkpt>
      <trkpt lat="46.97095" lon="8.78766">
        <ele>650</ele>
        <time>2021-08-05T14:12:36.475Z</time>
      </trkpt>
      <trkpt lat="46.97095" lon="8.78765">
        <ele>651</ele>
        <time>2021-08-05T14:12:37.475Z</time>
      </trkpt>
      <trkpt lat="46.97093" lon="8.78759">
        <ele>657</ele>
        <time>2021-08-05T14:12:38.476Z</time>
      </trkpt>
      <trkpt lat="46.97093" lon="8.78759">
        <ele>656</ele>
        <time>2021-08-05T14:12:39.476Z</time>
      </trkpt>
      <trkpt lat="46.97095" lon="8.78758">
        <ele>658</ele>
        <time>2021-08-05T14:12:40.476Z</time>
      </trkpt>
      <trkpt lat="46.97095" lon="8.7876">
        <ele>659</ele>
        <time>2021-08-05T14:12:41.476Z</time>
      </trkpt>
      <trkpt lat="46.97095" lon="8.78761">
        <ele>659</ele>
        <time>2021-08-05T14:12:42.476Z</time>
      </trkpt>
      <trkpt lat="46.97092" lon="8.78763">
        <ele>655</ele>
        <time>2021-08-05T14:12:43.477Z</time>
      </trkpt>
      <trkpt lat="46.97092" lon="8.78763">
        <ele>655</ele>
        <time>2021-08-05T14:12:44.477Z</time>
      </trkpt>
      <trkpt lat="46.97092" lon="8.78763">
        <ele>654</ele>
        <time>2021-08-05T14:12:45.476Z</time>
      </trkpt>
      <trkpt lat="46.97092" lon="8.78764">
        <ele>653</ele>
        <time>2021-08-05T14:12:46.477Z</time>
      </trkpt>
      <trkpt lat="46.97092" lon="8.78764">
        <ele>652</ele>
        <time>2021-08-05T14:12:47.477Z</time>
      </trkpt>
      <trkpt lat="46.97092" lon="8.78765">
        <ele>650</ele>
        <time>2021-08-05T14:12:48.477Z</time>
      </trkpt>
      <trkpt lat="46.97091" lon="8.78765">
        <ele>650</ele>
        <time>2021-08-05T14:12:49.477Z</time>
      </trkpt>
      <trkpt lat="46.9709" lon="8.78766">
        <ele>649</ele>
        <time>2021-08-05T14:12:50.476Z</time>
      </trkpt>
      <trkpt lat="46.9709" lon="8.78766">
        <ele>649</ele>
        <time>2021-08-05T14:12:51.476Z</time>
      </trkpt>
      <trkpt lat="46.9709" lon="8.78766">
        <ele>648</ele>
        <time>2021-08-05T14:12:52.476Z</time>
      </trkpt>
      <trkpt lat="46.97091" lon="8.78764">
        <ele>658</ele>
        <time>2021-08-05T14:12:53.477Z</time>
      </trkpt>
      <trkpt lat="46.9709" lon="8.78765">
        <ele>658</ele>
        <time>2021-08-05T14:12:54.477Z</time>
      </trkpt>
      <trkpt lat="46.97089" lon="8.78767">
        <ele>658</ele>
        <time>2021-08-05T14:12:55.477Z</time>
      </trkpt>
      <trkpt lat="46.97088" lon="8.78768">
        <ele>657</ele>
        <time>2021-08-05T14:12:56.478Z</time>
      </trkpt>
      <trkpt lat="46.97087" lon="8.7877">
        <ele>656</ele>
        <time>2021-08-05T14:12:57.477Z</time>
      </trkpt>
      <trkpt lat="46.97086" lon="8.7877">
        <ele>656</ele>
        <time>2021-08-05T14:12:58.478Z</time>
      </trkpt>
      <trkpt lat="46.97086" lon="8.78771">
        <ele>655</ele>
        <time>2021-08-05T14:12:59.477Z</time>
      </trkpt>
      <trkpt lat="46.97085" lon="8.78772">
        <ele>654</ele>
        <time>2021-08-05T14:13:00.478Z</time>
      </trkpt>
      <trkpt lat="46.97085" lon="8.78772">
        <ele>654</ele>
        <time>2021-08-05T14:13:01.477Z</time>
      </trkpt>
      <trkpt lat="46.97084" lon="8.78772">
        <ele>653</ele>
        <time>2021-08-05T14:13:02.478Z</time>
      </trkpt>
      <trkpt lat="46.97083" lon="8.78772">
        <ele>652</ele>
        <time>2021-08-05T14:13:03.478Z</time>
      </trkpt>
      <trkpt lat="46.97083" lon="8.78771">
        <ele>651</ele>
        <time>2021-08-05T14:13:04.478Z</time>
      </trkpt>
      <trkpt lat="46.97082" lon="8.78771">
        <ele>650</ele>
        <time>2021-08-05T14:13:05.478Z</time>
      </trkpt>
      <trkpt lat="46.97082" lon="8.78771">
        <ele>650</ele>
        <time>2021-08-05T14:13:06.478Z</time>
      </trkpt>
      <trkpt lat="46.97083" lon="8.78773">
        <ele>649</ele>
        <time>2021-08-05T14:13:07.477Z</time>
      </trkpt>
      <trkpt lat="46.97083" lon="8.78774">
        <ele>649</ele>
        <time>2021-08-05T14:13:08.478Z</time>
      </trkpt>
      <trkpt lat="46.97082" lon="8.78775">
        <ele>649</ele>
        <time>2021-08-05T14:13:09.478Z</time>
      </trkpt>
      <trkpt lat="46.97082" lon="8.78776">
        <ele>649</ele>
        <time>2021-08-05T14:13:10.478Z</time>
      </trkpt>
      <trkpt lat="46.97081" lon="8.78775">
        <ele>649</ele>
        <time>2021-08-05T14:13:11.478Z</time>
      </trkpt>
      <trkpt lat="46.97083" lon="8.78777">
        <ele>649</ele>
        <time>2021-08-05T14:13:12.478Z</time>
      </trkpt>
      <trkpt lat="46.97083" lon="8.78778">
        <ele>649</ele>
        <time>2021-08-05T14:13:13.478Z</time>
      </trkpt>
      <trkpt lat="46.97083" lon="8.78778">
        <ele>650</ele>
        <time>2021-08-05T14:13:14.478Z</time>
      </trkpt>
      <trkpt lat="46.97083" lon="8.78779">
        <ele>651</ele>
        <time>2021-08-05T14:13:15.479Z</time>
      </trkpt>
      <trkpt lat="46.97083" lon="8.78781">
        <ele>653</ele>
        <time>2021-08-05T14:13:16.479Z</time>
      </trkpt>
      <trkpt lat="46.97083" lon="8.78782">
        <ele>653</ele>
        <time>2021-08-05T14:13:17.480Z</time>
      </trkpt>
      <trkpt lat="46.97083" lon="8.78783">
        <ele>653</ele>
        <time>2021-08-05T14:13:18.479Z</time>
      </trkpt>
      <trkpt lat="46.97082" lon="8.78785">
        <ele>653</ele>
        <time>2021-08-05T14:13:19.479Z</time>
      </trkpt>
      <trkpt lat="46.97082" lon="8.78786">
        <ele>653</ele>
        <time>2021-08-05T14:13:20.479Z</time>
      </trkpt>
      <trkpt lat="46.97082" lon="8.78788">
        <ele>653</ele>
        <time>2021-08-05T14:13:21.480Z</time>
      </trkpt>
      <trkpt lat="46.97082" lon="8.7879">
        <ele>652</ele>
        <time>2021-08-05T14:13:22.480Z</time>
      </trkpt>
      <trkpt lat="46.97081" lon="8.78791">
        <ele>652</ele>
        <time>2021-08-05T14:13:23.480Z</time>
      </trkpt>
      <trkpt lat="46.97081" lon="8.78792">
        <ele>652</ele>
        <time>2021-08-05T14:13:24.480Z</time>
      </trkpt>
      <trkpt lat="46.97081" lon="8.78793">
        <ele>652</ele>
        <time>2021-08-05T14:13:25.480Z</time>
      </trkpt>
      <trkpt lat="46.97081" lon="8.78794">
        <ele>652</ele>
        <time>2021-08-05T14:13:26.479Z</time>
      </trkpt>
      <trkpt lat="46.9708" lon="8.78795">
        <ele>651</ele>
        <time>2021-08-05T14:13:27.480Z</time>
      </trkpt>
      <trkpt lat="46.97079" lon="8.78796">
        <ele>651</ele>
        <time>2021-08-05T14:13:28.479Z</time>
      </trkpt>
      <trkpt lat="46.97079" lon="8.78798">
        <ele>650</ele>
        <time>2021-08-05T14:13:29.480Z</time>
      </trkpt>
      <trkpt lat="46.97078" lon="8.78799">
        <ele>650</ele>
        <time>2021-08-05T14:13:30.480Z</time>
      </trkpt>
      <trkpt lat="46.97077" lon="8.78799">
        <ele>651</ele>
        <time>2021-08-05T14:13:31.480Z</time>
      </trkpt>
      <trkpt lat="46.97077" lon="8.788">
        <ele>651</ele>
        <time>2021-08-05T14:13:32.480Z</time>
      </trkpt>
      <trkpt lat="46.97076" lon="8.788">
        <ele>652</ele>
        <time>2021-08-05T14:13:33.480Z</time>
      </trkpt>
      <trkpt lat="46.97075" lon="8.788">
        <ele>652</ele>
        <time>2021-08-05T14:13:34.480Z</time>
      </trkpt>
      <trkpt lat="46.97073" lon="8.788">
        <ele>652</ele>
        <time>2021-08-05T14:13:35.480Z</time>
      </trkpt>
      <trkpt lat="46.97072" lon="8.788">
        <ele>652</ele>
        <time>2021-08-05T14:13:36.480Z</time>
      </trkpt>
      <trkpt lat="46.97072" lon="8.78801">
        <ele>652</ele>
        <time>2021-08-05T14:13:37.480Z</time>
      </trkpt>
      <trkpt lat="46.97071" lon="8.78802">
        <ele>652</ele>
        <time>2021-08-05T14:13:38.480Z</time>
      </trkpt>
      <trkpt lat="46.9707" lon="8.78802">
        <ele>651</ele>
        <time>2021-08-05T14:13:39.479Z</time>
      </trkpt>
      <trkpt lat="46.97069" lon="8.78803">
        <ele>651</ele>
        <time>2021-08-05T14:13:40.480Z</time>
      </trkpt>
      <trkpt lat="46.97069" lon="8.78805">
        <ele>651</ele>
        <time>2021-08-05T14:13:41.479Z</time>
      </trkpt>
      <trkpt lat="46.97069" lon="8.78806">
        <ele>651</ele>
        <time>2021-08-05T14:13:42.480Z</time>
      </trkpt>
      <trkpt lat="46.97069" lon="8.78808">
        <ele>650</ele>
        <time>2021-08-05T14:13:43.480Z</time>
      </trkpt>
      <trkpt lat="46.97069" lon="8.78809">
        <ele>650</ele>
        <time>2021-08-05T14:13:44.479Z</time>
      </trkpt>
      <trkpt lat="46.97069" lon="8.78811">
        <ele>650</ele>
        <time>2021-08-05T14:13:45.480Z</time>
      </trkpt>
      <trkpt lat="46.97069" lon="8.78812">
        <ele>651</ele>
        <time>2021-08-05T14:13:46.479Z</time>
      </trkpt>
      <trkpt lat="46.97069" lon="8.78813">
        <ele>652</ele>
        <time>2021-08-05T14:13:47.479Z</time>
      </trkpt>
      <trkpt lat="46.97069" lon="8.78815">
        <ele>653</ele>
        <time>2021-08-05T14:13:48.479Z</time>
      </trkpt>
      <trkpt lat="46.97069" lon="8.78817">
        <ele>654</ele>
        <time>2021-08-05T14:13:49.479Z</time>
      </trkpt>
      <trkpt lat="46.97069" lon="8.78818">
        <ele>655</ele>
        <time>2021-08-05T14:13:50.479Z</time>
      </trkpt>
      <trkpt lat="46.97069" lon="8.78819">
        <ele>655</ele>
        <time>2021-08-05T14:13:51.480Z</time>
      </trkpt>
      <trkpt lat="46.97069" lon="8.7882">
        <ele>656</ele>
        <time>2021-08-05T14:13:52.480Z</time>
      </trkpt>
      <trkpt lat="46.97068" lon="8.78822">
        <ele>657</ele>
        <time>2021-08-05T14:13:53.479Z</time>
      </trkpt>
      <trkpt lat="46.97068" lon="8.78823">
        <ele>657</ele>
        <time>2021-08-05T14:13:54.480Z</time>
      </trkpt>
      <trkpt lat="46.97068" lon="8.78825">
        <ele>658</ele>
        <time>2021-08-05T14:13:55.479Z</time>
      </trkpt>
      <trkpt lat="46.97068" lon="8.78827">
        <ele>658</ele>
        <time>2021-08-05T14:13:56.480Z</time>
      </trkpt>
      <trkpt lat="46.97066" lon="8.78829">
        <ele>658</ele>
        <time>2021-08-05T14:13:57.480Z</time>
      </trkpt>
      <trkpt lat="46.97065" lon="8.7883">
        <ele>658</ele>
        <time>2021-08-05T14:13:58.480Z</time>
      </trkpt>
      <trkpt lat="46.97064" lon="8.78831">
        <ele>658</ele>
        <time>2021-08-05T14:13:59.480Z</time>
      </trkpt>
      <trkpt lat="46.97063" lon="8.78831">
        <ele>659</ele>
        <time>2021-08-05T14:14:00.480Z</time>
      </trkpt>
      <trkpt lat="46.97063" lon="8.78832">
        <ele>659</ele>
        <time>2021-08-05T14:14:01.479Z</time>
      </trkpt>
      <trkpt lat="46.97062" lon="8.78832">
        <ele>660</ele>
        <time>2021-08-05T14:14:02.479Z</time>
      </trkpt>
      <trkpt lat="46.97061" lon="8.78833">
        <ele>660</ele>
        <time>2021-08-05T14:14:03.479Z</time>
      </trkpt>
      <trkpt lat="46.97061" lon="8.78834">
        <ele>660</ele>
        <time>2021-08-05T14:14:04.479Z</time>
      </trkpt>
      <trkpt lat="46.9706" lon="8.78835">
        <ele>660</ele>
        <time>2021-08-05T14:14:05.480Z</time>
      </trkpt>
      <trkpt lat="46.9706" lon="8.78836">
        <ele>660</ele>
        <time>2021-08-05T14:14:06.479Z</time>
      </trkpt>
      <trkpt lat="46.9706" lon="8.78836">
        <ele>660</ele>
        <time>2021-08-05T14:14:07.479Z</time>
      </trkpt>
      <trkpt lat="46.9706" lon="8.78836">
        <ele>660</ele>
        <time>2021-08-05T14:14:08.480Z</time>
      </trkpt>
      <trkpt lat="46.97059" lon="8.78836">
        <ele>661</ele>
        <time>2021-08-05T14:14:09.482Z</time>
      </trkpt>
      <trkpt lat="46.9706" lon="8.78835">
        <ele>662</ele>
        <time>2021-08-05T14:14:10.482Z</time>
      </trkpt>
      <trkpt lat="46.9706" lon="8.78835">
        <ele>662</ele>
        <time>2021-08-05T14:14:11.481Z</time>
      </trkpt>
      <trkpt lat="46.97059" lon="8.78834">
        <ele>663</ele>
        <time>2021-08-05T14:14:12.482Z</time>
      </trkpt>
      <trkpt lat="46.97059" lon="8.78833">
        <ele>664</ele>
        <time>2021-08-05T14:14:13.482Z</time>
      </trkpt>
      <trkpt lat="46.97059" lon="8.78833">
        <ele>664</ele>
        <time>2021-08-05T14:14:14.482Z</time>
      </trkpt>
      <trkpt lat="46.97058" lon="8.78833">
        <ele>664</ele>
        <time>2021-08-05T14:14:15.482Z</time>
      </trkpt>
      <trkpt lat="46.97057" lon="8.78832">
        <ele>665</ele>
        <time>2021-08-05T14:14:16.481Z</time>
      </trkpt>
      <trkpt lat="46.97056" lon="8.78831">
        <ele>665</ele>
        <time>2021-08-05T14:14:17.482Z</time>
      </trkpt>
      <trkpt lat="46.97055" lon="8.78831">
        <ele>665</ele>
        <time>2021-08-05T14:14:18.482Z</time>
      </trkpt>
      <trkpt lat="46.97054" lon="8.78832">
        <ele>666</ele>
        <time>2021-08-05T14:14:19.482Z</time>
      </trkpt>
      <trkpt lat="46.97106" lon="8.78913">
        <ele>665</ele>
        <time>2021-08-05T14:14:56.482Z</time>
      </trkpt>
      <trkpt lat="46.97114" lon="8.78899">
        <ele>663</ele>
        <time>2021-08-05T14:14:57.482Z</time>
      </trkpt>
      <trkpt lat="46.97111" lon="8.78883">
        <ele>660</ele>
        <time>2021-08-05T14:14:58.481Z</time>
      </trkpt>
      <trkpt lat="46.97106" lon="8.78872">
        <ele>658</ele>
        <time>2021-08-05T14:14:59.482Z</time>
      </trkpt>
      <trkpt lat="46.971" lon="8.78864">
        <ele>656</ele>
        <time>2021-08-05T14:15:00.482Z</time>
      </trkpt>
      <trkpt lat="46.97095" lon="8.78852">
        <ele>655</ele>
        <time>2021-08-05T14:15:01.482Z</time>
      </trkpt>
      <trkpt lat="46.97092" lon="8.78846">
        <ele>654</ele>
        <time>2021-08-05T14:15:02.482Z</time>
      </trkpt>
      <trkpt lat="46.9709" lon="8.78841">
        <ele>654</ele>
        <time>2021-08-05T14:15:03.481Z</time>
      </trkpt>
      <trkpt lat="46.97089" lon="8.78836">
        <ele>653</ele>
        <time>2021-08-05T14:15:04.482Z</time>
      </trkpt>
      <trkpt lat="46.97088" lon="8.78832">
        <ele>653</ele>
        <time>2021-08-05T14:15:05.482Z</time>
      </trkpt>
      <trkpt lat="46.97086" lon="8.78828">
        <ele>653</ele>
        <time>2021-08-05T14:15:06.482Z</time>
      </trkpt>
      <trkpt lat="46.97084" lon="8.78824">
        <ele>652</ele>
        <time>2021-08-05T14:15:07.481Z</time>
      </trkpt>
      <trkpt lat="46.97082" lon="8.78822">
        <ele>652</ele>
        <time>2021-08-05T14:15:08.481Z</time>
      </trkpt>
      <trkpt lat="46.97081" lon="8.78821">
        <ele>652</ele>
        <time>2021-08-05T14:15:09.482Z</time>
      </trkpt>
      <trkpt lat="46.97081" lon="8.7882">
        <ele>652</ele>
        <time>2021-08-05T14:15:10.482Z</time>
      </trkpt>
      <trkpt lat="46.97081" lon="8.7882">
        <ele>652</ele>
        <time>2021-08-05T14:15:11.482Z</time>
      </trkpt>
      <trkpt lat="46.97082" lon="8.78819">
        <ele>652</ele>
        <time>2021-08-05T14:15:12.481Z</time>
      </trkpt>
      <trkpt lat="46.9708" lon="8.78815">
        <ele>652</ele>
        <time>2021-08-05T14:15:13.483Z</time>
      </trkpt>
      <trkpt lat="46.97079" lon="8.78814">
        <ele>652</ele>
        <time>2021-08-05T14:15:14.483Z</time>
      </trkpt>
      <trkpt lat="46.9708" lon="8.78813">
        <ele>652</ele>
        <time>2021-08-05T14:15:15.483Z</time>
      </trkpt>
      <trkpt lat="46.9708" lon="8.78812">
        <ele>652</ele>
        <time>2021-08-05T14:15:16.482Z</time>
      </trkpt>
      <trkpt lat="46.97081" lon="8.78811">
        <ele>653</ele>
        <time>2021-08-05T14:15:17.482Z</time>
      </trkpt>
      <trkpt lat="46.97081" lon="8.7881">
        <ele>653</ele>
        <time>2021-08-05T14:15:18.482Z</time>
      </trkpt>
      <trkpt lat="46.97081" lon="8.78809">
        <ele>654</ele>
        <time>2021-08-05T14:15:19.483Z</time>
      </trkpt>
      <trkpt lat="46.97081" lon="8.78808">
        <ele>654</ele>
        <time>2021-08-05T14:15:20.483Z</time>
      </trkpt>
      <trkpt lat="46.97081" lon="8.78808">
        <ele>654</ele>
        <time>2021-08-05T14:15:21.483Z</time>
      </trkpt>
      <trkpt lat="46.97082" lon="8.78808">
        <ele>654</ele>
        <time>2021-08-05T14:15:22.482Z</time>
      </trkpt>
      <trkpt lat="46.97084" lon="8.78807">
        <ele>654</ele>
        <time>2021-08-05T14:15:23.482Z</time>
      </trkpt>
      <trkpt lat="46.97085" lon="8.78806">
        <ele>654</ele>
        <time>2021-08-05T14:15:24.483Z</time>
      </trkpt>
      <trkpt lat="46.97086" lon="8.78804">
        <ele>654</ele>
        <time>2021-08-05T14:15:25.482Z</time>
      </trkpt>
      <trkpt lat="46.97086" lon="8.78803">
        <ele>654</ele>
        <time>2021-08-05T14:15:26.483Z</time>
      </trkpt>
      <trkpt lat="46.97087" lon="8.78802">
        <ele>654</ele>
        <time>2021-08-05T14:15:27.482Z</time>
      </trkpt>
      <trkpt lat="46.97088" lon="8.78801">
        <ele>653</ele>
        <time>2021-08-05T14:15:28.483Z</time>
      </trkpt>
      <trkpt lat="46.97089" lon="8.788">
        <ele>653</ele>
        <time>2021-08-05T14:15:29.483Z</time>
      </trkpt>
      <trkpt lat="46.97089" lon="8.78798">
        <ele>653</ele>
        <time>2021-08-05T14:15:30.483Z</time>
      </trkpt>
      <trkpt lat="46.9709" lon="8.78796">
        <ele>653</ele>
        <time>2021-08-05T14:15:31.483Z</time>
      </trkpt>
      <trkpt lat="46.97089" lon="8.78793">
        <ele>653</ele>
        <time>2021-08-05T14:15:32.482Z</time>
      </trkpt>
      <trkpt lat="46.97089" lon="8.78792">
        <ele>654</ele>
        <time>2021-08-05T14:15:33.483Z</time>
      </trkpt>
      <trkpt lat="46.97089" lon="8.78792">
        <ele>654</ele>
        <time>2021-08-05T14:15:34.483Z</time>
      </trkpt>
      <trkpt lat="46.97088" lon="8.78788">
        <ele>658</ele>
        <time>2021-08-05T14:15:35.483Z</time>
      </trkpt>
      <trkpt lat="46.97088" lon="8.78787">
        <ele>657</ele>
        <time>2021-08-05T14:15:36.483Z</time>
      </trkpt>
      <trkpt lat="46.97088" lon="8.78785">
        <ele>657</ele>
        <time>2021-08-05T14:15:37.483Z</time>
      </trkpt>
      <trkpt lat="46.97088" lon="8.78784">
        <ele>657</ele>
        <time>2021-08-05T14:15:38.483Z</time>
      </trkpt>
      <trkpt lat="46.97089" lon="8.78782">
        <ele>657</ele>
        <time>2021-08-05T14:15:39.483Z</time>
      </trkpt>
      <trkpt lat="46.97089" lon="8.78781">
        <ele>656</ele>
        <time>2021-08-05T14:15:40.483Z</time>
      </trkpt>
      <trkpt lat="46.97089" lon="8.7878">
        <ele>656</ele>
        <time>2021-08-05T14:15:41.483Z</time>
      </trkpt>
      <trkpt lat="46.97089" lon="8.7878">
        <ele>656</ele>
        <time>2021-08-05T14:15:42.483Z</time>
      </trkpt>
      <trkpt lat="46.97089" lon="8.78779">
        <ele>655</ele>
        <time>2021-08-05T14:15:43.483Z</time>
      </trkpt>
      <trkpt lat="46.97089" lon="8.78779">
        <ele>655</ele>
        <time>2021-08-05T14:15:44.483Z</time>
      </trkpt>
      <trkpt lat="46.97089" lon="8.78779">
        <ele>655</ele>
        <time>2021-08-05T14:15:45.483Z</time>
      </trkpt>
      <trkpt lat="46.9709" lon="8.78779">
        <ele>655</ele>
        <time>2021-08-05T14:15:46.483Z</time>
      </trkpt>
      <trkpt lat="46.97091" lon="8.78779">
        <ele>655</ele>
        <time>2021-08-05T14:15:47.483Z</time>
      </trkpt>
      <trkpt lat="46.97091" lon="8.78779">
        <ele>654</ele>
        <time>2021-08-05T14:15:48.483Z</time>
      </trkpt>
      <trkpt lat="46.97091" lon="8.7878">
        <ele>654</ele>
        <time>2021-08-05T14:15:49.483Z</time>
      </trkpt>
      <trkpt lat="46.9709" lon="8.7878">
        <ele>653</ele>
        <time>2021-08-05T14:15:50.483Z</time>
      </trkpt>
      <trkpt lat="46.97091" lon="8.7878">
        <ele>652</ele>
        <time>2021-08-05T14:15:51.483Z</time>
      </trkpt>
      <trkpt lat="46.97089" lon="8.78779">
        <ele>652</ele>
        <time>2021-08-05T14:15:52.484Z</time>
      </trkpt>
      <trkpt lat="46.9709" lon="8.78781">
        <ele>652</ele>
        <time>2021-08-05T14:15:53.484Z</time>
      </trkpt>
      <trkpt lat="46.9709" lon="8.78781">
        <ele>652</ele>
        <time>2021-08-05T14:15:54.483Z</time>
      </trkpt>
      <trkpt lat="46.9709" lon="8.78779">
        <ele>652</ele>
        <time>2021-08-05T14:15:55.483Z</time>
      </trkpt>
      <trkpt lat="46.97088" lon="8.78778">
        <ele>652</ele>
        <time>2021-08-05T14:15:56.484Z</time>
      </trkpt>
      <trkpt lat="46.97087" lon="8.78778">
        <ele>652</ele>
        <time>2021-08-05T14:15:57.484Z</time>
      </trkpt>
      <trkpt lat="46.97086" lon="8.78778">
        <ele>653</ele>
        <time>2021-08-05T14:15:58.483Z</time>
      </trkpt>
      <trkpt lat="46.97087" lon="8.78779">
        <ele>653</ele>
        <time>2021-08-05T14:15:59.484Z</time>
      </trkpt>
      <trkpt lat="46.97089" lon="8.78781">
        <ele>657</ele>
        <time>2021-08-05T14:16:00.485Z</time>
      </trkpt>
      <trkpt lat="46.9709" lon="8.78782">
        <ele>657</ele>
        <time>2021-08-05T14:16:01.485Z</time>
      </trkpt>
      <trkpt lat="46.9709" lon="8.78782">
        <ele>657</ele>
        <time>2021-08-05T14:16:02.484Z</time>
      </trkpt>
      <trkpt lat="46.97089" lon="8.78781">
        <ele>657</ele>
        <time>2021-08-05T14:16:03.485Z</time>
      </trkpt>
      <trkpt lat="46.97089" lon="8.7878">
        <ele>657</ele>
        <time>2021-08-05T14:16:04.485Z</time>
      </trkpt>
      <trkpt lat="46.97087" lon="8.78784">
        <ele>661</ele>
        <time>2021-08-05T14:16:05.485Z</time>
      </trkpt>
      <trkpt lat="46.97087" lon="8.78784">
        <ele>662</ele>
        <time>2021-08-05T14:16:06.485Z</time>
      </trkpt>
      <trkpt lat="46.97087" lon="8.78784">
        <ele>660</ele>
        <time>2021-08-05T14:16:07.486Z</time>
      </trkpt>
      <trkpt lat="46.97087" lon="8.78784">
        <ele>659</ele>
        <time>2021-08-05T14:16:08.486Z</time>
      </trkpt>
      <trkpt lat="46.97087" lon="8.78785">
        <ele>659</ele>
        <time>2021-08-05T14:16:09.485Z</time>
      </trkpt>
      <trkpt lat="46.97088" lon="8.78785">
        <ele>659</ele>
        <time>2021-08-05T14:16:10.488Z</time>
      </trkpt>
      <trkpt lat="46.97088" lon="8.78784">
        <ele>659</ele>
        <time>2021-08-05T14:16:11.488Z</time>
      </trkpt>
      <trkpt lat="46.97088" lon="8.78784">
        <ele>654</ele>
        <time>2021-08-05T14:16:12.488Z</time>
      </trkpt>
      <trkpt lat="46.97088" lon="8.78783">
        <ele>654</ele>
        <time>2021-08-05T14:16:13.488Z</time>
      </trkpt>
      <trkpt lat="46.97088" lon="8.78782">
        <ele>654</ele>
        <time>2021-08-05T14:16:14.488Z</time>
      </trkpt>
      <trkpt lat="46.97088" lon="8.78782">
        <ele>654</ele>
        <time>2021-08-05T14:16:15.488Z</time>
      </trkpt>
      <trkpt lat="46.9709" lon="8.78781">
        <ele>654</ele>
        <time>2021-08-05T14:16:16.489Z</time>
      </trkpt>
      <trkpt lat="46.97091" lon="8.7878">
        <ele>655</ele>
        <time>2021-08-05T14:16:17.488Z</time>
      </trkpt>
      <trkpt lat="46.97093" lon="8.78779">
        <ele>655</ele>
        <time>2021-08-05T14:16:18.488Z</time>
      </trkpt>
      <trkpt lat="46.97094" lon="8.78777">
        <ele>656</ele>
        <time>2021-08-05T14:16:19.488Z</time>
      </trkpt>
      <trkpt lat="46.97096" lon="8.78774">
        <ele>657</ele>
        <time>2021-08-05T14:16:20.489Z</time>
      </trkpt>
      <trkpt lat="46.97096" lon="8.78772">
        <ele>658</ele>
        <time>2021-08-05T14:16:21.489Z</time>
      </trkpt>
      <trkpt lat="46.97097" lon="8.7877">
        <ele>658</ele>
        <time>2021-08-05T14:16:22.488Z</time>
      </trkpt>
      <trkpt lat="46.97097" lon="8.78769">
        <ele>658</ele>
        <time>2021-08-05T14:16:23.489Z</time>
      </trkpt>
      <trkpt lat="46.97098" lon="8.78768">
        <ele>658</ele>
        <time>2021-08-05T14:16:24.489Z</time>
      </trkpt>
      <trkpt lat="46.97098" lon="8.78766">
        <ele>657</ele>
        <time>2021-08-05T14:16:25.489Z</time>
      </trkpt>
      <trkpt lat="46.97098" lon="8.78765">
        <ele>657</ele>
        <time>2021-08-05T14:16:26.488Z</time>
      </trkpt>
      <trkpt lat="46.97098" lon="8.78763">
        <ele>657</ele>
        <time>2021-08-05T14:16:27.488Z</time>
      </trkpt>
      <trkpt lat="46.97099" lon="8.78762">
        <ele>657</ele>
        <time>2021-08-05T14:16:28.489Z</time>
      </trkpt>
      <trkpt lat="46.971" lon="8.7876">
        <ele>657</ele>
        <time>2021-08-05T14:16:29.488Z</time>
      </trkpt>
      <trkpt lat="46.971" lon="8.7876">
        <ele>657</ele>
        <time>2021-08-05T14:16:30.489Z</time>
      </trkpt>
      <trkpt lat="46.97101" lon="8.78758">
        <ele>656</ele>
        <time>2021-08-05T14:16:31.489Z</time>
      </trkpt>
      <trkpt lat="46.971" lon="8.78757">
        <ele>656</ele>
        <time>2021-08-05T14:16:32.489Z</time>
      </trkpt>
      <trkpt lat="46.971" lon="8.78756">
        <ele>656</ele>
        <time>2021-08-05T14:16:33.489Z</time>
      </trkpt>
      <trkpt lat="46.971" lon="8.78755">
        <ele>656</ele>
        <time>2021-08-05T14:16:34.489Z</time>
      </trkpt>
      <trkpt lat="46.971" lon="8.78754">
        <ele>656</ele>
        <time>2021-08-05T14:16:35.488Z</time>
      </trkpt>
      <trkpt lat="46.971" lon="8.78753">
        <ele>656</ele>
        <time>2021-08-05T14:16:36.489Z</time>
      </trkpt>
      <trkpt lat="46.971" lon="8.78753">
        <ele>656</ele>
        <time>2021-08-05T14:16:37.489Z</time>
      </trkpt>
      <trkpt lat="46.97096" lon="8.78755">
        <ele>649</ele>
        <time>2021-08-05T14:16:38.488Z</time>
      </trkpt>
      <trkpt lat="46.97096" lon="8.78755">
        <ele>648</ele>
        <time>2021-08-05T14:16:39.488Z</time>
      </trkpt>
      <trkpt lat="46.97095" lon="8.78754">
        <ele>642</ele>
        <time>2021-08-05T14:16:40.490Z</time>
      </trkpt>
      <trkpt lat="46.97095" lon="8.78754">
        <ele>641</ele>
        <time>2021-08-05T14:16:41.489Z</time>
      </trkpt>
      <trkpt lat="46.97095" lon="8.78754">
        <ele>641</ele>
        <time>2021-08-05T14:16:42.490Z</time>
      </trkpt>
      <trkpt lat="46.97096" lon="8.78755">
        <ele>640</ele>
        <time>2021-08-05T14:16:43.490Z</time>
      </trkpt>
      <trkpt lat="46.97096" lon="8.78755">
        <ele>641</ele>
        <time>2021-08-05T14:16:44.490Z</time>
      </trkpt>
      <trkpt lat="46.97096" lon="8.78754">
        <ele>642</ele>
        <time>2021-08-05T14:16:45.489Z</time>
      </trkpt>
      <trkpt lat="46.97099" lon="8.78755">
        <ele>645</ele>
        <time>2021-08-05T14:16:46.491Z</time>
      </trkpt>
      <trkpt lat="46.97099" lon="8.78755">
        <ele>646</ele>
        <time>2021-08-05T14:16:47.490Z</time>
      </trkpt>
      <trkpt lat="46.971" lon="8.78755">
        <ele>647</ele>
        <time>2021-08-05T14:16:48.490Z</time>
      </trkpt>
      <trkpt lat="46.97101" lon="8.78756">
        <ele>648</ele>
        <time>2021-08-05T14:16:49.491Z</time>
      </trkpt>
      <trkpt lat="46.97102" lon="8.78756">
        <ele>650</ele>
        <time>2021-08-05T14:16:50.491Z</time>
      </trkpt>
      <trkpt lat="46.97103" lon="8.78756">
        <ele>651</ele>
        <time>2021-08-05T14:16:51.491Z</time>
      </trkpt>
      <trkpt lat="46.97105" lon="8.78755">
        <ele>651</ele>
        <time>2021-08-05T14:16:52.491Z</time>
      </trkpt>
      <trkpt lat="46.97108" lon="8.78751">
        <ele>652</ele>
        <time>2021-08-05T14:16:53.490Z</time>
      </trkpt>
      <trkpt lat="46.97109" lon="8.78749">
        <ele>653</ele>
        <time>2021-08-05T14:16:54.491Z</time>
      </trkpt>
      <trkpt lat="46.9711" lon="8.78747">
        <ele>653</ele>
        <time>2021-08-05T14:16:55.490Z</time>
      </trkpt>
      <trkpt lat="46.9711" lon="8.78745">
        <ele>654</ele>
        <time>2021-08-05T14:16:56.491Z</time>
      </trkpt>
      <trkpt lat="46.97111" lon="8.78743">
        <ele>654</ele>
        <time>2021-08-05T14:16:57.490Z</time>
      </trkpt>
      <trkpt lat="46.97111" lon="8.78742">
        <ele>655</ele>
        <time>2021-08-05T14:16:58.491Z</time>
      </trkpt>
      <trkpt lat="46.97111" lon="8.7874">
        <ele>655</ele>
        <time>2021-08-05T14:16:59.491Z</time>
      </trkpt>
      <trkpt lat="46.97112" lon="8.78738">
        <ele>654</ele>
        <time>2021-08-05T14:17:00.491Z</time>
      </trkpt>
      <trkpt lat="46.97112" lon="8.78737">
        <ele>654</ele>
        <time>2021-08-05T14:17:01.491Z</time>
      </trkpt>
      <trkpt lat="46.97113" lon="8.78735">
        <ele>654</ele>
        <time>2021-08-05T14:17:02.490Z</time>
      </trkpt>
      <trkpt lat="46.97113" lon="8.78734">
        <ele>654</ele>
        <time>2021-08-05T14:17:03.490Z</time>
      </trkpt>
      <trkpt lat="46.97114" lon="8.78732">
        <ele>654</ele>
        <time>2021-08-05T14:17:04.490Z</time>
      </trkpt>
      <trkpt lat="46.97114" lon="8.78731">
        <ele>654</ele>
        <time>2021-08-05T14:17:05.491Z</time>
      </trkpt>
      <trkpt lat="46.97115" lon="8.78729">
        <ele>654</ele>
        <time>2021-08-05T14:17:06.490Z</time>
      </trkpt>
      <trkpt lat="46.97115" lon="8.78727">
        <ele>655</ele>
        <time>2021-08-05T14:17:07.490Z</time>
      </trkpt>
      <trkpt lat="46.97115" lon="8.78725">
        <ele>655</ele>
        <time>2021-08-05T14:17:08.491Z</time>
      </trkpt>
      <trkpt lat="46.97115" lon="8.78723">
        <ele>655</ele>
        <time>2021-08-05T14:17:09.490Z</time>
      </trkpt>
      <trkpt lat="46.97115" lon="8.78722">
        <ele>654</ele>
        <time>2021-08-05T14:17:10.491Z</time>
      </trkpt>
      <trkpt lat="46.97116" lon="8.78721">
        <ele>654</ele>
        <time>2021-08-05T14:17:11.490Z</time>
      </trkpt>
      <trkpt lat="46.97117" lon="8.78719">
        <ele>653</ele>
        <time>2021-08-05T14:17:12.490Z</time>
      </trkpt>
      <trkpt lat="46.97117" lon="8.78717">
        <ele>652</ele>
        <time>2021-08-05T14:17:13.490Z</time>
      </trkpt>
      <trkpt lat="46.97118" lon="8.78715">
        <ele>651</ele>
        <time>2021-08-05T14:17:14.490Z</time>
      </trkpt>
      <trkpt lat="46.97119" lon="8.78713">
        <ele>651</ele>
        <time>2021-08-05T14:17:15.491Z</time>
      </trkpt>
      <trkpt lat="46.97119" lon="8.78712">
        <ele>651</ele>
        <time>2021-08-05T14:17:16.491Z</time>
      </trkpt>
      <trkpt lat="46.97119" lon="8.7871">
        <ele>651</ele>
        <time>2021-08-05T14:17:17.490Z</time>
      </trkpt>
      <trkpt lat="46.9712" lon="8.78708">
        <ele>651</ele>
        <time>2021-08-05T14:17:18.490Z</time>
      </trkpt>
      <trkpt lat="46.97121" lon="8.78707">
        <ele>651</ele>
        <time>2021-08-05T14:17:19.490Z</time>
      </trkpt>
      <trkpt lat="46.97122" lon="8.78705">
        <ele>651</ele>
        <time>2021-08-05T14:17:20.491Z</time>
      </trkpt>
      <trkpt lat="46.97123" lon="8.78704">
        <ele>651</ele>
        <time>2021-08-05T14:17:21.490Z</time>
      </trkpt>
      <trkpt lat="46.97123" lon="8.78702">
        <ele>651</ele>
        <time>2021-08-05T14:17:22.490Z</time>
      </trkpt>
      <trkpt lat="46.97124" lon="8.787">
        <ele>651</ele>
        <time>2021-08-05T14:17:23.490Z</time>
      </trkpt>
      <trkpt lat="46.97124" lon="8.78699">
        <ele>652</ele>
        <time>2021-08-05T14:17:24.491Z</time>
      </trkpt>
      <trkpt lat="46.97124" lon="8.78698">
        <ele>652</ele>
        <time>2021-08-05T14:17:25.491Z</time>
      </trkpt>
      <trkpt lat="46.97125" lon="8.78698">
        <ele>654</ele>
        <time>2021-08-05T14:17:26.491Z</time>
      </trkpt>
      <trkpt lat="46.97126" lon="8.78696">
        <ele>655</ele>
        <time>2021-08-05T14:17:27.490Z</time>
      </trkpt>
      <trkpt lat="46.97127" lon="8.78695">
        <ele>655</ele>
        <time>2021-08-05T14:17:28.490Z</time>
      </trkpt>
      <trkpt lat="46.97128" lon="8.78693">
        <ele>655</ele>
        <time>2021-08-05T14:17:29.491Z</time>
      </trkpt>
      <trkpt lat="46.97128" lon="8.7869">
        <ele>655</ele>
        <time>2021-08-05T14:17:30.491Z</time>
      </trkpt>
      <trkpt lat="46.97128" lon="8.78687">
        <ele>655</ele>
        <time>2021-08-05T14:17:31.491Z</time>
      </trkpt>
      <trkpt lat="46.97128" lon="8.78685">
        <ele>655</ele>
        <time>2021-08-05T14:17:32.491Z</time>
      </trkpt>
      <trkpt lat="46.97127" lon="8.78683">
        <ele>655</ele>
        <time>2021-08-05T14:17:33.491Z</time>
      </trkpt>
      <trkpt lat="46.97127" lon="8.78681">
        <ele>656</ele>
        <time>2021-08-05T14:17:34.491Z</time>
      </trkpt>
      <trkpt lat="46.97126" lon="8.78679">
        <ele>656</ele>
        <time>2021-08-05T14:17:35.491Z</time>
      </trkpt>
      <trkpt lat="46.97126" lon="8.78677">
        <ele>656</ele>
        <time>2021-08-05T14:17:36.490Z</time>
      </trkpt>
      <trkpt lat="46.97126" lon="8.78675">
        <ele>656</ele>
        <time>2021-08-05T14:17:37.490Z</time>
      </trkpt>
      <trkpt lat="46.97126" lon="8.78673">
        <ele>655</ele>
        <time>2021-08-05T14:17:38.491Z</time>
      </trkpt>
      <trkpt lat="46.97126" lon="8.78672">
        <ele>654</ele>
        <time>2021-08-05T14:17:39.491Z</time>
      </trkpt>
      <trkpt lat="46.97126" lon="8.7867">
        <ele>654</ele>
        <time>2021-08-05T14:17:40.491Z</time>
      </trkpt>
      <trkpt lat="46.97125" lon="8.78668">
        <ele>653</ele>
        <time>2021-08-05T14:17:41.491Z</time>
      </trkpt>
      <trkpt lat="46.97125" lon="8.78666">
        <ele>653</ele>
        <time>2021-08-05T14:17:42.491Z</time>
      </trkpt>
      <trkpt lat="46.97124" lon="8.78664">
        <ele>653</ele>
        <time>2021-08-05T14:17:43.490Z</time>
      </trkpt>
      <trkpt lat="46.97123" lon="8.78663">
        <ele>653</ele>
        <time>2021-08-05T14:17:44.490Z</time>
      </trkpt>
      <trkpt lat="46.97122" lon="8.78661">
        <ele>654</ele>
        <time>2021-08-05T14:17:45.490Z</time>
      </trkpt>
      <trkpt lat="46.97121" lon="8.7866">
        <ele>654</ele>
        <time>2021-08-05T14:17:46.490Z</time>
      </trkpt>
      <trkpt lat="46.9712" lon="8.78659">
        <ele>654</ele>
        <time>2021-08-05T14:17:47.490Z</time>
      </trkpt>
      <trkpt lat="46.9712" lon="8.78658">
        <ele>654</ele>
        <time>2021-08-05T14:17:48.490Z</time>
      </trkpt>
      <trkpt lat="46.97119" lon="8.78658">
        <ele>654</ele>
        <time>2021-08-05T14:17:49.490Z</time>
      </trkpt>
      <trkpt lat="46.9712" lon="8.78657">
        <ele>654</ele>
        <time>2021-08-05T14:17:50.491Z</time>
      </trkpt>
      <trkpt lat="46.97119" lon="8.78656">
        <ele>654</ele>
        <time>2021-08-05T14:17:51.490Z</time>
      </trkpt>
      <trkpt lat="46.97121" lon="8.78683">
        <ele>653</ele>
        <time>2021-08-05T14:28:22.499Z</time>
      </trkpt>
      <trkpt lat="46.97122" lon="8.78683">
        <ele>652</ele>
        <time>2021-08-05T14:28:23.500Z</time>
      </trkpt>
      <trkpt lat="46.97122" lon="8.78683">
        <ele>651</ele>
        <time>2021-08-05T14:28:24.499Z</time>
      </trkpt>
      <trkpt lat="46.97128" lon="8.78676">
        <ele>650</ele>
        <time>2021-08-05T14:28:25.500Z</time>
      </trkpt>
      <trkpt lat="46.97128" lon="8.78678">
        <ele>649</ele>
        <time>2021-08-05T14:28:26.499Z</time>
      </trkpt>
      <trkpt lat="46.97126" lon="8.7868">
        <ele>649</ele>
        <time>2021-08-05T14:28:27.500Z</time>
      </trkpt>
      <trkpt lat="46.97129" lon="8.78684">
        <ele>648</ele>
        <time>2021-08-05T14:28:28.499Z</time>
      </trkpt>
      <trkpt lat="46.97131" lon="8.78687">
        <ele>647</ele>
        <time>2021-08-05T14:28:29.499Z</time>
      </trkpt>
      <trkpt lat="46.97132" lon="8.7869">
        <ele>647</ele>
        <time>2021-08-05T14:28:30.500Z</time>
      </trkpt>
      <trkpt lat="46.97131" lon="8.78694">
        <ele>647</ele>
        <time>2021-08-05T14:28:31.499Z</time>
      </trkpt>
      <trkpt lat="46.97129" lon="8.78699">
        <ele>646</ele>
        <time>2021-08-05T14:28:32.500Z</time>
      </trkpt>
      <trkpt lat="46.97127" lon="8.78705">
        <ele>645</ele>
        <time>2021-08-05T14:28:33.500Z</time>
      </trkpt>
      <trkpt lat="46.97125" lon="8.7871">
        <ele>644</ele>
        <time>2021-08-05T14:28:34.500Z</time>
      </trkpt>
      <trkpt lat="46.97124" lon="8.78713">
        <ele>642</ele>
        <time>2021-08-05T14:28:35.500Z</time>
      </trkpt>
      <trkpt lat="46.97123" lon="8.78713">
        <ele>640</ele>
        <time>2021-08-05T14:28:36.500Z</time>
      </trkpt>
      <trkpt lat="46.97121" lon="8.78713">
        <ele>639</ele>
        <time>2021-08-05T14:28:37.500Z</time>
      </trkpt>
      <trkpt lat="46.9712" lon="8.78713">
        <ele>637</ele>
        <time>2021-08-05T14:28:38.500Z</time>
      </trkpt>
      <trkpt lat="46.9712" lon="8.78714">
        <ele>636</ele>
        <time>2021-08-05T14:28:39.500Z</time>
      </trkpt>
      <trkpt lat="46.97119" lon="8.78716">
        <ele>635</ele>
        <time>2021-08-05T14:28:40.500Z</time>
      </trkpt>
      <trkpt lat="46.97119" lon="8.78717">
        <ele>634</ele>
        <time>2021-08-05T14:28:41.499Z</time>
      </trkpt>
      <trkpt lat="46.97118" lon="8.78718">
        <ele>634</ele>
        <time>2021-08-05T14:28:42.499Z</time>
      </trkpt>
      <trkpt lat="46.97117" lon="8.7872">
        <ele>633</ele>
        <time>2021-08-05T14:28:43.499Z</time>
      </trkpt>
      <trkpt lat="46.97116" lon="8.78721">
        <ele>633</ele>
        <time>2021-08-05T14:28:44.500Z</time>
      </trkpt>
      <trkpt lat="46.97116" lon="8.78722">
        <ele>633</ele>
        <time>2021-08-05T14:28:45.499Z</time>
      </trkpt>
      <trkpt lat="46.97115" lon="8.78723">
        <ele>633</ele>
        <time>2021-08-05T14:28:46.499Z</time>
      </trkpt>
      <trkpt lat="46.97115" lon="8.78725">
        <ele>633</ele>
        <time>2021-08-05T14:28:47.500Z</time>
      </trkpt>
      <trkpt lat="46.97114" lon="8.78726">
        <ele>633</ele>
        <time>2021-08-05T14:28:48.500Z</time>
      </trkpt>
      <trkpt lat="46.97113" lon="8.78728">
        <ele>633</ele>
        <time>2021-08-05T14:28:49.500Z</time>
      </trkpt>
      <trkpt lat="46.97112" lon="8.78729">
        <ele>633</ele>
        <time>2021-08-05T14:28:50.499Z</time>
      </trkpt>
      <trkpt lat="46.97111" lon="8.78731">
        <ele>633</ele>
        <time>2021-08-05T14:28:51.500Z</time>
      </trkpt>
      <trkpt lat="46.97111" lon="8.78732">
        <ele>634</ele>
        <time>2021-08-05T14:28:52.500Z</time>
      </trkpt>
      <trkpt lat="46.9711" lon="8.78735">
        <ele>634</ele>
        <time>2021-08-05T14:28:53.499Z</time>
      </trkpt>
      <trkpt lat="46.9711" lon="8.78736">
        <ele>636</ele>
        <time>2021-08-05T14:28:54.500Z</time>
      </trkpt>
      <trkpt lat="46.9711" lon="8.78738">
        <ele>637</ele>
        <time>2021-08-05T14:28:55.500Z</time>
      </trkpt>
      <trkpt lat="46.9711" lon="8.78739">
        <ele>638</ele>
        <time>2021-08-05T14:28:56.500Z</time>
      </trkpt>
      <trkpt lat="46.97108" lon="8.78741">
        <ele>639</ele>
        <time>2021-08-05T14:28:57.499Z</time>
      </trkpt>
      <trkpt lat="46.97108" lon="8.78742">
        <ele>640</ele>
        <time>2021-08-05T14:28:58.500Z</time>
      </trkpt>
      <trkpt lat="46.97107" lon="8.78745">
        <ele>640</ele>
        <time>2021-08-05T14:28:59.500Z</time>
      </trkpt>
      <trkpt lat="46.97107" lon="8.78747">
        <ele>641</ele>
        <time>2021-08-05T14:29:00.500Z</time>
      </trkpt>
      <trkpt lat="46.97106" lon="8.78748">
        <ele>642</ele>
        <time>2021-08-05T14:29:01.499Z</time>
      </trkpt>
      <trkpt lat="46.97106" lon="8.7875">
        <ele>642</ele>
        <time>2021-08-05T14:29:02.499Z</time>
      </trkpt>
      <trkpt lat="46.97105" lon="8.78751">
        <ele>643</ele>
        <time>2021-08-05T14:29:03.500Z</time>
      </trkpt>
      <trkpt lat="46.97104" lon="8.78752">
        <ele>644</ele>
        <time>2021-08-05T14:29:04.500Z</time>
      </trkpt>
      <trkpt lat="46.97103" lon="8.78754">
        <ele>644</ele>
        <time>2021-08-05T14:29:05.499Z</time>
      </trkpt>
      <trkpt lat="46.97103" lon="8.78755">
        <ele>644</ele>
        <time>2021-08-05T14:29:06.499Z</time>
      </trkpt>
      <trkpt lat="46.97102" lon="8.78757">
        <ele>645</ele>
        <time>2021-08-05T14:29:07.499Z</time>
      </trkpt>
      <trkpt lat="46.97101" lon="8.78759">
        <ele>645</ele>
        <time>2021-08-05T14:29:08.499Z</time>
      </trkpt>
      <trkpt lat="46.97101" lon="8.78761">
        <ele>645</ele>
        <time>2021-08-05T14:29:09.500Z</time>
      </trkpt>
      <trkpt lat="46.971" lon="8.78762">
        <ele>645</ele>
        <time>2021-08-05T14:29:10.500Z</time>
      </trkpt>
      <trkpt lat="46.97099" lon="8.78763">
        <ele>645</ele>
        <time>2021-08-05T14:29:11.500Z</time>
      </trkpt>
      <trkpt lat="46.97099" lon="8.78765">
        <ele>646</ele>
        <time>2021-08-05T14:29:12.500Z</time>
      </trkpt>
      <trkpt lat="46.97098" lon="8.78766">
        <ele>646</ele>
        <time>2021-08-05T14:29:13.500Z</time>
      </trkpt>
      <trkpt lat="46.97096" lon="8.78766">
        <ele>647</ele>
        <time>2021-08-05T14:29:14.500Z</time>
      </trkpt>
      <trkpt lat="46.97095" lon="8.78767">
        <ele>647</ele>
        <time>2021-08-05T14:29:15.500Z</time>
      </trkpt>
      <trkpt lat="46.97094" lon="8.78768">
        <ele>647</ele>
        <time>2021-08-05T14:29:16.500Z</time>
      </trkpt>
      <trkpt lat="46.97092" lon="8.78768">
        <ele>647</ele>
        <time>2021-08-05T14:29:17.500Z</time>
      </trkpt>
      <trkpt lat="46.97091" lon="8.78769">
        <ele>647</ele>
        <time>2021-08-05T14:29:18.500Z</time>
      </trkpt>
      <trkpt lat="46.9709" lon="8.78771">
        <ele>647</ele>
        <time>2021-08-05T14:29:19.500Z</time>
      </trkpt>
      <trkpt lat="46.97089" lon="8.78772">
        <ele>647</ele>
        <time>2021-08-05T14:29:20.499Z</time>
      </trkpt>
      <trkpt lat="46.97088" lon="8.78772">
        <ele>647</ele>
        <time>2021-08-05T14:29:21.500Z</time>
      </trkpt>
      <trkpt lat="46.97088" lon="8.78774">
        <ele>647</ele>
        <time>2021-08-05T14:29:22.499Z</time>
      </trkpt>
      <trkpt lat="46.97087" lon="8.78775">
        <ele>647</ele>
        <time>2021-08-05T14:29:23.500Z</time>
      </trkpt>
      <trkpt lat="46.97086" lon="8.78776">
        <ele>647</ele>
        <time>2021-08-05T14:29:24.499Z</time>
      </trkpt>
      <trkpt lat="46.97086" lon="8.78776">
        <ele>648</ele>
        <time>2021-08-05T14:29:25.500Z</time>
      </trkpt>
      <trkpt lat="46.97084" lon="8.78775">
        <ele>648</ele>
        <time>2021-08-05T14:29:26.500Z</time>
      </trkpt>
      <trkpt lat="46.97083" lon="8.78776">
        <ele>648</ele>
        <time>2021-08-05T14:29:27.500Z</time>
      </trkpt>
      <trkpt lat="46.97082" lon="8.78777">
        <ele>647</ele>
        <time>2021-08-05T14:29:28.500Z</time>
      </trkpt>
      <trkpt lat="46.97082" lon="8.78778">
        <ele>647</ele>
        <time>2021-08-05T14:29:29.500Z</time>
      </trkpt>
      <trkpt lat="46.97081" lon="8.78779">
        <ele>647</ele>
        <time>2021-08-05T14:29:30.500Z</time>
      </trkpt>
      <trkpt lat="46.97081" lon="8.7878">
        <ele>648</ele>
        <time>2021-08-05T14:29:31.500Z</time>
      </trkpt>
      <trkpt lat="46.97082" lon="8.78782">
        <ele>648</ele>
        <time>2021-08-05T14:29:32.500Z</time>
      </trkpt>
      <trkpt lat="46.97082" lon="8.78782">
        <ele>649</ele>
        <time>2021-08-05T14:29:33.499Z</time>
      </trkpt>
      <trkpt lat="46.97083" lon="8.78781">
        <ele>650</ele>
        <time>2021-08-05T14:29:34.500Z</time>
      </trkpt>
      <trkpt lat="46.97084" lon="8.78781">
        <ele>651</ele>
        <time>2021-08-05T14:29:35.500Z</time>
      </trkpt>
      <trkpt lat="46.97085" lon="8.78781">
        <ele>651</ele>
        <time>2021-08-05T14:29:36.499Z</time>
      </trkpt>
      <trkpt lat="46.97085" lon="8.78781">
        <ele>652</ele>
        <time>2021-08-05T14:29:37.500Z</time>
      </trkpt>
      <trkpt lat="46.97086" lon="8.78781">
        <ele>652</ele>
        <time>2021-08-05T14:29:38.499Z</time>
      </trkpt>
      <trkpt lat="46.97085" lon="8.78782">
        <ele>654</ele>
        <time>2021-08-05T14:29:39.500Z</time>
      </trkpt>
      <trkpt lat="46.97083" lon="8.78784">
        <ele>658</ele>
        <time>2021-08-05T14:29:40.500Z</time>
      </trkpt>
      <trkpt lat="46.97084" lon="8.78785">
        <ele>658</ele>
        <time>2021-08-05T14:29:41.500Z</time>
      </trkpt>
      <trkpt lat="46.97084" lon="8.78786">
        <ele>659</ele>
        <time>2021-08-05T14:29:42.499Z</time>
      </trkpt>
      <trkpt lat="46.97084" lon="8.78787">
        <ele>658</ele>
        <time>2021-08-05T14:29:43.499Z</time>
      </trkpt>
      <trkpt lat="46.97085" lon="8.78787">
        <ele>658</ele>
        <time>2021-08-05T14:29:44.500Z</time>
      </trkpt>
      <trkpt lat="46.97085" lon="8.78786">
        <ele>658</ele>
        <time>2021-08-05T14:29:45.500Z</time>
      </trkpt>
      <trkpt lat="46.97086" lon="8.78786">
        <ele>657</ele>
        <time>2021-08-05T14:29:46.500Z</time>
      </trkpt>
      <trkpt lat="46.97087" lon="8.78786">
        <ele>657</ele>
        <time>2021-08-05T14:29:47.500Z</time>
      </trkpt>
      <trkpt lat="46.97088" lon="8.78785">
        <ele>656</ele>
        <time>2021-08-05T14:29:48.499Z</time>
      </trkpt>
      <trkpt lat="46.97084" lon="8.78786">
        <ele>660</ele>
        <time>2021-08-05T14:29:49.500Z</time>
      </trkpt>
      <trkpt lat="46.97084" lon="8.78786">
        <ele>660</ele>
        <time>2021-08-05T14:29:50.500Z</time>
      </trkpt>
      <trkpt lat="46.97084" lon="8.78785">
        <ele>659</ele>
        <time>2021-08-05T14:29:51.500Z</time>
      </trkpt>
      <trkpt lat="46.97084" lon="8.78785">
        <ele>659</ele>
        <time>2021-08-05T14:29:52.501Z</time>
      </trkpt>
      <trkpt lat="46.97086" lon="8.78785">
        <ele>654</ele>
        <time>2021-08-05T14:29:53.502Z</time>
      </trkpt>
      <trkpt lat="46.97086" lon="8.78782">
        <ele>651</ele>
        <time>2021-08-05T14:29:54.503Z</time>
      </trkpt>
      <trkpt lat="46.97087" lon="8.78784">
        <ele>651</ele>
        <time>2021-08-05T14:29:55.503Z</time>
      </trkpt>
      <trkpt lat="46.97087" lon="8.78783">
        <ele>652</ele>
        <time>2021-08-05T14:29:56.503Z</time>
      </trkpt>
      <trkpt lat="46.97087" lon="8.78782">
        <ele>651</ele>
        <time>2021-08-05T14:29:57.503Z</time>
      </trkpt>
      <trkpt lat="46.97088" lon="8.78781">
        <ele>651</ele>
        <time>2021-08-05T14:29:58.502Z</time>
      </trkpt>
      <trkpt lat="46.97089" lon="8.78781">
        <ele>650</ele>
        <time>2021-08-05T14:29:59.503Z</time>
      </trkpt>
      <trkpt lat="46.97089" lon="8.78782">
        <ele>649</ele>
        <time>2021-08-05T14:30:05.632Z</time>
      </trkpt>
      <trkpt lat="46.97088" lon="8.78783">
        <ele>650</ele>
        <time>2021-08-05T14:30:06.632Z</time>
      </trkpt>
      <trkpt lat="46.97087" lon="8.78783">
        <ele>650</ele>
        <time>2021-08-05T14:30:07.632Z</time>
      </trkpt>
      <trkpt lat="46.97087" lon="8.78784">
        <ele>651</ele>
        <time>2021-08-05T14:30:08.632Z</time>
      </trkpt>
      <trkpt lat="46.97086" lon="8.78781">
        <ele>650</ele>
        <time>2021-08-05T14:30:09.635Z</time>
      </trkpt>
      <trkpt lat="46.97086" lon="8.78782">
        <ele>650</ele>
        <time>2021-08-05T14:30:10.634Z</time>
      </trkpt>
      <trkpt lat="46.97085" lon="8.78782">
        <ele>649</ele>
        <time>2021-08-05T14:30:11.634Z</time>
      </trkpt>
      <trkpt lat="46.97086" lon="8.78782">
        <ele>648</ele>
        <time>2021-08-05T14:30:12.634Z</time>
      </trkpt>
      <trkpt lat="46.97085" lon="8.78782">
        <ele>648</ele>
        <time>2021-08-05T14:30:13.634Z</time>
      </trkpt>
      <trkpt lat="46.9708" lon="8.78779">
        <ele>651</ele>
        <time>2021-08-05T14:30:14.636Z</time>
      </trkpt>
      <trkpt lat="46.9708" lon="8.7878">
        <ele>650</ele>
        <time>2021-08-05T14:30:15.635Z</time>
      </trkpt>
      <trkpt lat="46.97081" lon="8.7878">
        <ele>650</ele>
        <time>2021-08-05T14:30:16.636Z</time>
      </trkpt>
      <trkpt lat="46.97075" lon="8.78775">
        <ele>654</ele>
        <time>2021-08-05T14:30:17.636Z</time>
      </trkpt>
      <trkpt lat="46.97075" lon="8.78776">
        <ele>655</ele>
        <time>2021-08-05T14:30:18.636Z</time>
      </trkpt>
      <trkpt lat="46.97075" lon="8.78776">
        <ele>655</ele>
        <time>2021-08-05T14:30:19.636Z</time>
      </trkpt>
      <trkpt lat="46.97075" lon="8.78776">
        <ele>656</ele>
        <time>2021-08-05T14:30:20.636Z</time>
      </trkpt>
      <trkpt lat="46.97075" lon="8.78775">
        <ele>656</ele>
        <time>2021-08-05T14:30:21.636Z</time>
      </trkpt>
      <trkpt lat="46.97078" lon="8.78778">
        <ele>657</ele>
        <time>2021-08-05T14:30:22.636Z</time>
      </trkpt>
      <trkpt lat="46.97079" lon="8.78779">
        <ele>657</ele>
        <time>2021-08-05T14:30:23.637Z</time>
      </trkpt>
      <trkpt lat="46.9708" lon="8.78779">
        <ele>657</ele>
        <time>2021-08-05T14:30:24.637Z</time>
      </trkpt>
      <trkpt lat="46.9708" lon="8.7878">
        <ele>656</ele>
        <time>2021-08-05T14:30:25.636Z</time>
      </trkpt>
      <trkpt lat="46.9708" lon="8.78781">
        <ele>656</ele>
        <time>2021-08-05T14:30:26.636Z</time>
      </trkpt>
      <trkpt lat="46.97081" lon="8.78779">
        <ele>657</ele>
        <time>2021-08-05T14:30:27.638Z</time>
      </trkpt>
      <trkpt lat="46.97081" lon="8.7878">
        <ele>657</ele>
        <time>2021-08-05T14:30:28.638Z</time>
      </trkpt>
      <trkpt lat="46.9708" lon="8.78779">
        <ele>656</ele>
        <time>2021-08-05T14:30:29.638Z</time>
      </trkpt>
      <trkpt lat="46.97083" lon="8.78779">
        <ele>654</ele>
        <time>2021-08-05T14:30:30.638Z</time>
      </trkpt>
      <trkpt lat="46.97084" lon="8.78779">
        <ele>654</ele>
        <time>2021-08-05T14:30:31.638Z</time>
      </trkpt>
      <trkpt lat="46.97085" lon="8.78778">
        <ele>654</ele>
        <time>2021-08-05T14:30:32.637Z</time>
      </trkpt>
      <trkpt lat="46.97085" lon="8.78777">
        <ele>654</ele>
        <time>2021-08-05T14:30:33.638Z</time>
      </trkpt>
      <trkpt lat="46.97085" lon="8.78776">
        <ele>654</ele>
        <time>2021-08-05T14:30:34.637Z</time>
      </trkpt>
      <trkpt lat="46.97085" lon="8.78774">
        <ele>654</ele>
        <time>2021-08-05T14:30:35.637Z</time>
      </trkpt>
      <trkpt lat="46.97085" lon="8.78773">
        <ele>655</ele>
        <time>2021-08-05T14:30:36.637Z</time>
      </trkpt>
      <trkpt lat="46.97084" lon="8.78772">
        <ele>656</ele>
        <time>2021-08-05T14:30:37.638Z</time>
      </trkpt>
      <trkpt lat="46.97083" lon="8.78772">
        <ele>656</ele>
        <time>2021-08-05T14:30:38.637Z</time>
      </trkpt>
      <trkpt lat="46.97083" lon="8.78772">
        <ele>657</ele>
        <time>2021-08-05T14:30:39.637Z</time>
      </trkpt>
      <trkpt lat="46.97083" lon="8.78773">
        <ele>657</ele>
        <time>2021-08-05T14:30:40.638Z</time>
      </trkpt>
      <trkpt lat="46.97083" lon="8.78774">
        <ele>657</ele>
        <time>2021-08-05T14:30:41.638Z</time>
      </trkpt>
      <trkpt lat="46.97088" lon="8.78776">
        <ele>651</ele>
        <time>2021-08-05T14:30:42.639Z</time>
      </trkpt>
      <trkpt lat="46.97088" lon="8.78776">
        <ele>651</ele>
        <time>2021-08-05T14:30:43.639Z</time>
      </trkpt>
      <trkpt lat="46.97088" lon="8.78777">
        <ele>651</ele>
        <time>2021-08-05T14:30:44.639Z</time>
      </trkpt>
      <trkpt lat="46.97088" lon="8.78777">
        <ele>651</ele>
        <time>2021-08-05T14:30:45.638Z</time>
      </trkpt>
      <trkpt lat="46.97088" lon="8.78777">
        <ele>651</ele>
        <time>2021-08-05T14:30:46.638Z</time>
      </trkpt>
      <trkpt lat="46.97088" lon="8.78777">
        <ele>651</ele>
        <time>2021-08-05T14:30:47.639Z</time>
      </trkpt>
      <trkpt lat="46.97089" lon="8.78777">
        <ele>651</ele>
        <time>2021-08-05T14:30:48.638Z</time>
      </trkpt>
      <trkpt lat="46.97088" lon="8.78776">
        <ele>650</ele>
        <time>2021-08-05T14:30:49.640Z</time>
      </trkpt>
      <trkpt lat="46.97088" lon="8.78777">
        <ele>649</ele>
        <time>2021-08-05T14:30:50.640Z</time>
      </trkpt>
      <trkpt lat="46.97087" lon="8.78777">
        <ele>649</ele>
        <time>2021-08-05T14:30:51.639Z</time>
      </trkpt>
      <trkpt lat="46.97086" lon="8.78778">
        <ele>648</ele>
        <time>2021-08-05T14:30:52.639Z</time>
      </trkpt>
      <trkpt lat="46.97084" lon="8.78777">
        <ele>647</ele>
        <time>2021-08-05T14:30:53.640Z</time>
      </trkpt>
      <trkpt lat="46.97083" lon="8.78779">
        <ele>647</ele>
        <time>2021-08-05T14:30:54.639Z</time>
      </trkpt>
      <trkpt lat="46.97082" lon="8.7878">
        <ele>647</ele>
        <time>2021-08-05T14:30:55.640Z</time>
      </trkpt>
      <trkpt lat="46.97082" lon="8.78782">
        <ele>647</ele>
        <time>2021-08-05T14:30:56.640Z</time>
      </trkpt>
      <trkpt lat="46.97082" lon="8.78784">
        <ele>646</ele>
        <time>2021-08-05T14:30:57.640Z</time>
      </trkpt>
      <trkpt lat="46.97083" lon="8.78785">
        <ele>646</ele>
        <time>2021-08-05T14:30:58.640Z</time>
      </trkpt>
      <trkpt lat="46.97083" lon="8.78786">
        <ele>646</ele>
        <time>2021-08-05T14:30:59.640Z</time>
      </trkpt>
      <trkpt lat="46.97083" lon="8.78788">
        <ele>646</ele>
        <time>2021-08-05T14:31:00.640Z</time>
      </trkpt>
      <trkpt lat="46.97083" lon="8.78789">
        <ele>646</ele>
        <time>2021-08-05T14:31:01.639Z</time>
      </trkpt>
      <trkpt lat="46.97082" lon="8.7879">
        <ele>646</ele>
        <time>2021-08-05T14:31:02.640Z</time>
      </trkpt>
      <trkpt lat="46.97082" lon="8.78792">
        <ele>647</ele>
        <time>2021-08-05T14:31:03.640Z</time>
      </trkpt>
      <trkpt lat="46.97082" lon="8.78793">
        <ele>647</ele>
        <time>2021-08-05T14:31:04.639Z</time>
      </trkpt>
      <trkpt lat="46.97081" lon="8.78794">
        <ele>648</ele>
        <time>2021-08-05T14:31:05.640Z</time>
      </trkpt>
      <trkpt lat="46.97081" lon="8.78795">
        <ele>648</ele>
        <time>2021-08-05T14:31:06.640Z</time>
      </trkpt>
      <trkpt lat="46.9708" lon="8.78796">
        <ele>648</ele>
        <time>2021-08-05T14:31:07.640Z</time>
      </trkpt>
      <trkpt lat="46.9708" lon="8.78797">
        <ele>648</ele>
        <time>2021-08-05T14:31:08.639Z</time>
      </trkpt>
      <trkpt lat="46.97079" lon="8.78798">
        <ele>648</ele>
        <time>2021-08-05T14:31:09.640Z</time>
      </trkpt>
      <trkpt lat="46.97078" lon="8.78799">
        <ele>649</ele>
        <time>2021-08-05T14:31:10.640Z</time>
      </trkpt>
      <trkpt lat="46.97077" lon="8.788">
        <ele>649</ele>
        <time>2021-08-05T14:31:11.639Z</time>
      </trkpt>
      <trkpt lat="46.97076" lon="8.78801">
        <ele>649</ele>
        <time>2021-08-05T14:31:12.640Z</time>
      </trkpt>
      <trkpt lat="46.97075" lon="8.78803">
        <ele>649</ele>
        <time>2021-08-05T14:31:13.639Z</time>
      </trkpt>
      <trkpt lat="46.97074" lon="8.78804">
        <ele>649</ele>
        <time>2021-08-05T14:31:14.640Z</time>
      </trkpt>
      <trkpt lat="46.97073" lon="8.78805">
        <ele>649</ele>
        <time>2021-08-05T14:31:15.639Z</time>
      </trkpt>
      <trkpt lat="46.97073" lon="8.78805">
        <ele>649</ele>
        <time>2021-08-05T14:31:16.639Z</time>
      </trkpt>
      <trkpt lat="46.97072" lon="8.78806">
        <ele>649</ele>
        <time>2021-08-05T14:31:17.640Z</time>
      </trkpt>
      <trkpt lat="46.97072" lon="8.78806">
        <ele>649</ele>
        <time>2021-08-05T14:31:18.639Z</time>
      </trkpt>
      <trkpt lat="46.97071" lon="8.78806">
        <ele>648</ele>
        <time>2021-08-05T14:31:19.640Z</time>
      </trkpt>
      <trkpt lat="46.97071" lon="8.78806">
        <ele>648</ele>
        <time>2021-08-05T14:31:20.640Z</time>
      </trkpt>
      <trkpt lat="46.97071" lon="8.78806">
        <ele>648</ele>
        <time>2021-08-05T14:31:21.640Z</time>
      </trkpt>
      <trkpt lat="46.97071" lon="8.78808">
        <ele>647</ele>
        <time>2021-08-05T14:31:22.640Z</time>
      </trkpt>
      <trkpt lat="46.97069" lon="8.78808">
        <ele>647</ele>
        <time>2021-08-05T14:31:23.640Z</time>
      </trkpt>
      <trkpt lat="46.97071" lon="8.78807">
        <ele>654</ele>
        <time>2021-08-05T14:31:24.642Z</time>
      </trkpt>
      <trkpt lat="46.97072" lon="8.78808">
        <ele>655</ele>
        <time>2021-08-05T14:31:25.641Z</time>
      </trkpt>
      <trkpt lat="46.97072" lon="8.78808">
        <ele>655</ele>
        <time>2021-08-05T14:31:26.641Z</time>
      </trkpt>
      <trkpt lat="46.97073" lon="8.78808">
        <ele>659</ele>
        <time>2021-08-05T14:31:27.642Z</time>
      </trkpt>
      <trkpt lat="46.97074" lon="8.78808">
        <ele>660</ele>
        <time>2021-08-05T14:31:28.642Z</time>
      </trkpt>
      <trkpt lat="46.97074" lon="8.78809">
        <ele>660</ele>
        <time>2021-08-05T14:31:29.641Z</time>
      </trkpt>
      <trkpt lat="46.97074" lon="8.78809">
        <ele>661</ele>
        <time>2021-08-05T14:31:30.641Z</time>
      </trkpt>
      <trkpt lat="46.97073" lon="8.78809">
        <ele>661</ele>
        <time>2021-08-05T14:31:31.641Z</time>
      </trkpt>
      <trkpt lat="46.97072" lon="8.7881">
        <ele>661</ele>
        <time>2021-08-05T14:31:32.642Z</time>
      </trkpt>
      <trkpt lat="46.97072" lon="8.7881">
        <ele>661</ele>
        <time>2021-08-05T14:31:33.642Z</time>
      </trkpt>
      <trkpt lat="46.9707" lon="8.78809">
        <ele>661</ele>
        <time>2021-08-05T14:31:34.642Z</time>
      </trkpt>
      <trkpt lat="46.9707" lon="8.78808">
        <ele>660</ele>
        <time>2021-08-05T14:31:35.641Z</time>
      </trkpt>
      <trkpt lat="46.97071" lon="8.78808">
        <ele>660</ele>
        <time>2021-08-05T14:31:36.641Z</time>
      </trkpt>
      <trkpt lat="46.97072" lon="8.78808">
        <ele>660</ele>
        <time>2021-08-05T14:31:37.642Z</time>
      </trkpt>
      <trkpt lat="46.97074" lon="8.78811">
        <ele>660</ele>
        <time>2021-08-05T14:31:38.642Z</time>
      </trkpt>
      <trkpt lat="46.97074" lon="8.78811">
        <ele>659</ele>
        <time>2021-08-05T14:31:39.642Z</time>
      </trkpt>
      <trkpt lat="46.97076" lon="8.78812">
        <ele>651</ele>
        <time>2021-08-05T14:31:40.642Z</time>
      </trkpt>
      <trkpt lat="46.97076" lon="8.78812">
        <ele>650</ele>
        <time>2021-08-05T14:31:41.641Z</time>
      </trkpt>
      <trkpt lat="46.97075" lon="8.78812">
        <ele>649</ele>
        <time>2021-08-05T14:31:42.641Z</time>
      </trkpt>
      <trkpt lat="46.97071" lon="8.7881">
        <ele>647</ele>
        <time>2021-08-05T14:31:43.641Z</time>
      </trkpt>
      <trkpt lat="46.97071" lon="8.7881">
        <ele>648</ele>
        <time>2021-08-05T14:31:44.641Z</time>
      </trkpt>
      <trkpt lat="46.97074" lon="8.78812">
        <ele>652</ele>
        <time>2021-08-05T14:31:45.643Z</time>
      </trkpt>
      <trkpt lat="46.97076" lon="8.78812">
        <ele>659</ele>
        <time>2021-08-05T14:31:46.643Z</time>
      </trkpt>
      <trkpt lat="46.97076" lon="8.78812">
        <ele>659</ele>
        <time>2021-08-05T14:31:47.642Z</time>
      </trkpt>
      <trkpt lat="46.97077" lon="8.78811">
        <ele>659</ele>
        <time>2021-08-05T14:31:48.642Z</time>
      </trkpt>
      <trkpt lat="46.97078" lon="8.7881">
        <ele>659</ele>
        <time>2021-08-05T14:31:49.642Z</time>
      </trkpt>
      <trkpt lat="46.97079" lon="8.78809">
        <ele>659</ele>
        <time>2021-08-05T14:31:50.642Z</time>
      </trkpt>
      <trkpt lat="46.9708" lon="8.78807">
        <ele>658</ele>
        <time>2021-08-05T14:31:51.642Z</time>
      </trkpt>
      <trkpt lat="46.97081" lon="8.78807">
        <ele>658</ele>
        <time>2021-08-05T14:31:52.642Z</time>
      </trkpt>
      <trkpt lat="46.97081" lon="8.78806">
        <ele>658</ele>
        <time>2021-08-05T14:31:53.642Z</time>
      </trkpt>
      <trkpt lat="46.97081" lon="8.78804">
        <ele>658</ele>
        <time>2021-08-05T14:31:54.642Z</time>
      </trkpt>
      <trkpt lat="46.97081" lon="8.78803">
        <ele>658</ele>
        <time>2021-08-05T14:31:55.643Z</time>
      </trkpt>
      <trkpt lat="46.97082" lon="8.78802">
        <ele>658</ele>
        <time>2021-08-05T14:31:56.643Z</time>
      </trkpt>
      <trkpt lat="46.97082" lon="8.78801">
        <ele>658</ele>
        <time>2021-08-05T14:31:57.642Z</time>
      </trkpt>
      <trkpt lat="46.97083" lon="8.788">
        <ele>658</ele>
        <time>2021-08-05T14:31:58.642Z</time>
      </trkpt>
      <trkpt lat="46.97083" lon="8.78798">
        <ele>658</ele>
        <time>2021-08-05T14:31:59.642Z</time>
      </trkpt>
      <trkpt lat="46.97084" lon="8.78797">
        <ele>658</ele>
        <time>2021-08-05T14:32:00.642Z</time>
      </trkpt>
      <trkpt lat="46.97084" lon="8.78795">
        <ele>658</ele>
        <time>2021-08-05T14:32:01.642Z</time>
      </trkpt>
      <trkpt lat="46.97084" lon="8.78793">
        <ele>658</ele>
        <time>2021-08-05T14:32:02.642Z</time>
      </trkpt>
      <trkpt lat="46.97084" lon="8.78793">
        <ele>658</ele>
        <time>2021-08-05T14:32:03.642Z</time>
      </trkpt>
      <trkpt lat="46.97084" lon="8.78792">
        <ele>658</ele>
        <time>2021-08-05T14:32:04.642Z</time>
      </trkpt>
      <trkpt lat="46.97085" lon="8.7879">
        <ele>658</ele>
        <time>2021-08-05T14:32:05.642Z</time>
      </trkpt>
      <trkpt lat="46.97086" lon="8.78788">
        <ele>658</ele>
        <time>2021-08-05T14:32:06.643Z</time>
      </trkpt>
      <trkpt lat="46.97087" lon="8.78787">
        <ele>657</ele>
        <time>2021-08-05T14:32:07.643Z</time>
      </trkpt>
      <trkpt lat="46.97087" lon="8.78786">
        <ele>657</ele>
        <time>2021-08-05T14:32:08.642Z</time>
      </trkpt>
      <trkpt lat="46.97087" lon="8.78784">
        <ele>657</ele>
        <time>2021-08-05T14:32:09.643Z</time>
      </trkpt>
      <trkpt lat="46.97088" lon="8.78784">
        <ele>657</ele>
        <time>2021-08-05T14:32:10.642Z</time>
      </trkpt>
      <trkpt lat="46.97089" lon="8.78784">
        <ele>656</ele>
        <time>2021-08-05T14:32:11.643Z</time>
      </trkpt>
      <trkpt lat="46.9709" lon="8.78784">
        <ele>656</ele>
        <time>2021-08-05T14:32:12.643Z</time>
      </trkpt>
      <trkpt lat="46.97092" lon="8.78785">
        <ele>656</ele>
        <time>2021-08-05T14:32:13.643Z</time>
      </trkpt>
      <trkpt lat="46.97092" lon="8.78784">
        <ele>655</ele>
        <time>2021-08-05T14:32:14.643Z</time>
      </trkpt>
      <trkpt lat="46.97091" lon="8.78784">
        <ele>654</ele>
        <time>2021-08-05T14:32:15.642Z</time>
      </trkpt>
      <trkpt lat="46.97089" lon="8.78784">
        <ele>652</ele>
        <time>2021-08-05T14:32:16.642Z</time>
      </trkpt>
      <trkpt lat="46.9709" lon="8.78784">
        <ele>652</ele>
        <time>2021-08-05T14:32:17.642Z</time>
      </trkpt>
      <trkpt lat="46.9709" lon="8.78784">
        <ele>652</ele>
        <time>2021-08-05T14:32:18.642Z</time>
      </trkpt>
      <trkpt lat="46.9709" lon="8.78784">
        <ele>656</ele>
        <time>2021-08-05T14:32:19.644Z</time>
      </trkpt>
      <trkpt lat="46.9709" lon="8.78785">
        <ele>656</ele>
        <time>2021-08-05T14:32:20.643Z</time>
      </trkpt>
      <trkpt lat="46.97091" lon="8.78784">
        <ele>656</ele>
        <time>2021-08-05T14:32:21.645Z</time>
      </trkpt>
      <trkpt lat="46.97088" lon="8.78782">
        <ele>655</ele>
        <time>2021-08-05T14:32:22.646Z</time>
      </trkpt>
      <trkpt lat="46.97087" lon="8.78781">
        <ele>655</ele>
        <time>2021-08-05T14:32:23.645Z</time>
      </trkpt>
      <trkpt lat="46.97087" lon="8.78781">
        <ele>655</ele>
        <time>2021-08-05T14:32:24.645Z</time>
      </trkpt>
      <trkpt lat="46.97086" lon="8.78781">
        <ele>655</ele>
        <time>2021-08-05T14:32:25.645Z</time>
      </trkpt>
      <trkpt lat="46.97086" lon="8.78782">
        <ele>655</ele>
        <time>2021-08-05T14:32:26.646Z</time>
      </trkpt>
      <trkpt lat="46.97084" lon="8.78785">
        <ele>649</ele>
        <time>2021-08-05T14:32:27.646Z</time>
      </trkpt>
      <trkpt lat="46.97085" lon="8.78786">
        <ele>649</ele>
        <time>2021-08-05T14:32:28.646Z</time>
      </trkpt>
      <trkpt lat="46.97085" lon="8.78788">
        <ele>649</ele>
        <time>2021-08-05T14:32:29.645Z</time>
      </trkpt>
      <trkpt lat="46.97085" lon="8.78789">
        <ele>649</ele>
        <time>2021-08-05T14:32:30.646Z</time>
      </trkpt>
      <trkpt lat="46.97086" lon="8.78789">
        <ele>650</ele>
        <time>2021-08-05T14:32:31.646Z</time>
      </trkpt>
      <trkpt lat="46.97086" lon="8.7879">
        <ele>651</ele>
        <time>2021-08-05T14:32:32.645Z</time>
      </trkpt>
      <trkpt lat="46.97086" lon="8.7879">
        <ele>651</ele>
        <time>2021-08-05T14:32:33.646Z</time>
      </trkpt>
      <trkpt lat="46.97086" lon="8.7879">
        <ele>652</ele>
        <time>2021-08-05T14:32:34.646Z</time>
      </trkpt>
      <trkpt lat="46.97087" lon="8.7879">
        <ele>653</ele>
        <time>2021-08-05T14:32:35.645Z</time>
      </trkpt>
      <trkpt lat="46.97088" lon="8.7879">
        <ele>653</ele>
        <time>2021-08-05T14:32:36.645Z</time>
      </trkpt>
      <trkpt lat="46.9709" lon="8.7879">
        <ele>656</ele>
        <time>2021-08-05T14:32:37.646Z</time>
      </trkpt>
      <trkpt lat="46.97089" lon="8.7879">
        <ele>657</ele>
        <time>2021-08-05T14:32:38.645Z</time>
      </trkpt>
      <trkpt lat="46.97089" lon="8.7879">
        <ele>658</ele>
        <time>2021-08-05T14:32:39.645Z</time>
      </trkpt>
      <trkpt lat="46.9709" lon="8.7879">
        <ele>658</ele>
        <time>2021-08-05T14:32:40.646Z</time>
      </trkpt>
      <trkpt lat="46.9709" lon="8.78789">
        <ele>659</ele>
        <time>2021-08-05T14:32:41.645Z</time>
      </trkpt>
      <trkpt lat="46.97089" lon="8.78787">
        <ele>661</ele>
        <time>2021-08-05T14:32:42.646Z</time>
      </trkpt>
      <trkpt lat="46.97089" lon="8.78786">
        <ele>662</ele>
        <time>2021-08-05T14:32:43.645Z</time>
      </trkpt>
      <trkpt lat="46.9709" lon="8.78785">
        <ele>662</ele>
        <time>2021-08-05T14:32:44.646Z</time>
      </trkpt>
      <trkpt lat="46.9709" lon="8.78785">
        <ele>662</ele>
        <time>2021-08-05T14:32:45.645Z</time>
      </trkpt>
      <trkpt lat="46.9709" lon="8.78784">
        <ele>661</ele>
        <time>2021-08-05T14:32:46.645Z</time>
      </trkpt>
      <trkpt lat="46.9709" lon="8.78784">
        <ele>660</ele>
        <time>2021-08-05T14:32:47.646Z</time>
      </trkpt>
      <trkpt lat="46.97091" lon="8.78784">
        <ele>658</ele>
        <time>2021-08-05T14:32:48.645Z</time>
      </trkpt>
      <trkpt lat="46.97091" lon="8.78784">
        <ele>656</ele>
        <time>2021-08-05T14:32:49.646Z</time>
      </trkpt>
      <trkpt lat="46.97087" lon="8.78786">
        <ele>650</ele>
        <time>2021-08-05T14:32:50.647Z</time>
      </trkpt>
      <trkpt lat="46.97089" lon="8.78786">
        <ele>647</ele>
        <time>2021-08-05T14:32:51.647Z</time>
      </trkpt>
      <trkpt lat="46.97089" lon="8.78786">
        <ele>647</ele>
        <time>2021-08-05T14:32:52.648Z</time>
      </trkpt>
      <trkpt lat="46.97088" lon="8.78781">
        <ele>646</ele>
        <time>2021-08-05T14:32:53.647Z</time>
      </trkpt>
      <trkpt lat="46.97088" lon="8.78781">
        <ele>645</ele>
        <time>2021-08-05T14:32:54.649Z</time>
      </trkpt>
      <trkpt lat="46.97088" lon="8.78781">
        <ele>645</ele>
        <time>2021-08-05T14:32:55.649Z</time>
      </trkpt>
      <trkpt lat="46.97088" lon="8.78781">
        <ele>646</ele>
        <time>2021-08-05T14:32:56.648Z</time>
      </trkpt>
      <trkpt lat="46.97088" lon="8.78782">
        <ele>646</ele>
        <time>2021-08-05T14:32:57.649Z</time>
      </trkpt>
      <trkpt lat="46.97088" lon="8.78782">
        <ele>646</ele>
        <time>2021-08-05T14:32:58.649Z</time>
      </trkpt>
      <trkpt lat="46.97085" lon="8.78786">
        <ele>641</ele>
        <time>2021-08-05T14:32:59.648Z</time>
      </trkpt>
      <trkpt lat="46.97084" lon="8.78786">
        <ele>641</ele>
        <time>2021-08-05T14:33:00.648Z</time>
      </trkpt>
      <trkpt lat="46.97084" lon="8.78786">
        <ele>641</ele>
        <time>2021-08-05T14:33:01.648Z</time>
      </trkpt>
      <trkpt lat="46.97084" lon="8.78787">
        <ele>641</ele>
        <time>2021-08-05T14:33:02.648Z</time>
      </trkpt>
      <trkpt lat="46.97084" lon="8.78786">
        <ele>641</ele>
        <time>2021-08-05T14:33:03.648Z</time>
      </trkpt>
      <trkpt lat="46.97084" lon="8.78786">
        <ele>640</ele>
        <time>2021-08-05T14:33:04.648Z</time>
      </trkpt>
      <trkpt lat="46.97084" lon="8.78785">
        <ele>640</ele>
        <time>2021-08-05T14:33:05.649Z</time>
      </trkpt>
      <trkpt lat="46.97084" lon="8.78784">
        <ele>640</ele>
        <time>2021-08-05T14:33:06.649Z</time>
      </trkpt>
      <trkpt lat="46.97083" lon="8.78782">
        <ele>652</ele>
        <time>2021-08-05T14:33:07.649Z</time>
      </trkpt>
      <trkpt lat="46.97083" lon="8.78782">
        <ele>652</ele>
        <time>2021-08-05T14:33:08.649Z</time>
      </trkpt>
      <trkpt lat="46.97084" lon="8.78783">
        <ele>653</ele>
        <time>2021-08-05T14:33:09.649Z</time>
      </trkpt>
      <trkpt lat="46.97084" lon="8.78783">
        <ele>653</ele>
        <time>2021-08-05T14:33:10.650Z</time>
      </trkpt>
      <trkpt lat="46.97085" lon="8.78782">
        <ele>652</ele>
        <time>2021-08-05T14:33:11.649Z</time>
      </trkpt>
      <trkpt lat="46.97085" lon="8.78783">
        <ele>652</ele>
        <time>2021-08-05T14:33:12.649Z</time>
      </trkpt>
      <trkpt lat="46.97086" lon="8.78782">
        <ele>652</ele>
        <time>2021-08-05T14:33:13.649Z</time>
      </trkpt>
      <trkpt lat="46.97086" lon="8.78782">
        <ele>652</ele>
        <time>2021-08-05T14:33:14.649Z</time>
      </trkpt>
      <trkpt lat="46.97086" lon="8.78781">
        <ele>652</ele>
        <time>2021-08-05T14:33:15.649Z</time>
      </trkpt>
      <trkpt lat="46.97087" lon="8.78781">
        <ele>652</ele>
        <time>2021-08-05T14:33:16.649Z</time>
      </trkpt>
      <trkpt lat="46.97087" lon="8.7878">
        <ele>653</ele>
        <time>2021-08-05T14:33:17.650Z</time>
      </trkpt>
      <trkpt lat="46.97087" lon="8.78781">
        <ele>653</ele>
        <time>2021-08-05T14:33:18.649Z</time>
      </trkpt>
      <trkpt lat="46.97087" lon="8.78782">
        <ele>653</ele>
        <time>2021-08-05T14:33:19.649Z</time>
      </trkpt>
      <trkpt lat="46.97088" lon="8.78783">
        <ele>657</ele>
        <time>2021-08-05T14:33:20.651Z</time>
      </trkpt>
      <trkpt lat="46.97088" lon="8.78782">
        <ele>656</ele>
        <time>2021-08-05T14:33:21.650Z</time>
      </trkpt>
      <trkpt lat="46.97088" lon="8.78782">
        <ele>656</ele>
        <time>2021-08-05T14:33:22.650Z</time>
      </trkpt>
      <trkpt lat="46.97088" lon="8.78782">
        <ele>656</ele>
        <time>2021-08-05T14:33:23.650Z</time>
      </trkpt>
      <trkpt lat="46.97088" lon="8.78781">
        <ele>656</ele>
        <time>2021-08-05T14:33:24.651Z</time>
      </trkpt>
      <trkpt lat="46.97089" lon="8.78781">
        <ele>655</ele>
        <time>2021-08-05T14:33:25.651Z</time>
      </trkpt>
      <trkpt lat="46.97089" lon="8.78781">
        <ele>655</ele>
        <time>2021-08-05T14:33:26.651Z</time>
      </trkpt>
      <trkpt lat="46.97089" lon="8.78781">
        <ele>654</ele>
        <time>2021-08-05T14:33:27.651Z</time>
      </trkpt>
      <trkpt lat="46.97089" lon="8.78781">
        <ele>653</ele>
        <time>2021-08-05T14:33:28.650Z</time>
      </trkpt>
      <trkpt lat="46.97091" lon="8.7878">
        <ele>654</ele>
        <time>2021-08-05T14:33:29.653Z</time>
      </trkpt>
      <trkpt lat="46.97091" lon="8.7878">
        <ele>654</ele>
        <time>2021-08-05T14:33:30.653Z</time>
      </trkpt>
      <trkpt lat="46.9709" lon="8.7878">
        <ele>656</ele>
        <time>2021-08-05T14:33:31.653Z</time>
      </trkpt>
      <trkpt lat="46.9709" lon="8.7878">
        <ele>657</ele>
        <time>2021-08-05T14:33:32.653Z</time>
      </trkpt>
      <trkpt lat="46.9709" lon="8.7878">
        <ele>657</ele>
        <time>2021-08-05T14:33:33.653Z</time>
      </trkpt>
      <trkpt lat="46.9709" lon="8.78781">
        <ele>657</ele>
        <time>2021-08-05T14:33:34.652Z</time>
      </trkpt>
      <trkpt lat="46.9709" lon="8.78781">
        <ele>658</ele>
        <time>2021-08-05T14:33:35.653Z</time>
      </trkpt>
      <trkpt lat="46.9709" lon="8.78781">
        <ele>657</ele>
        <time>2021-08-05T14:33:36.652Z</time>
      </trkpt>
      <trkpt lat="46.9709" lon="8.78782">
        <ele>657</ele>
        <time>2021-08-05T14:33:37.652Z</time>
      </trkpt>
      <trkpt lat="46.97089" lon="8.78782">
        <ele>657</ele>
        <time>2021-08-05T14:33:38.653Z</time>
      </trkpt>
      <trkpt lat="46.97087" lon="8.78782">
        <ele>646</ele>
        <time>2021-08-06T08:25:04.294Z</time>
      </trkpt>
      <trkpt lat="46.97087" lon="8.78782">
        <ele>646</ele>
        <time>2021-08-06T08:25:04.294Z</time>
      </trkpt>
      <trkpt lat="46.97087" lon="8.78782">
        <ele>646</ele>
        <time>2021-08-06T08:25:04.294Z</time>
      </trkpt>
      <trkpt lat="46.97087" lon="8.78782">
        <ele>646</ele>
        <time>2021-08-06T08:25:05.295Z</time>
      </trkpt>
      <trkpt lat="46.97087" lon="8.78782">
        <ele>646</ele>
        <time>2021-08-06T08:25:06.295Z</time>
      </trkpt>
      <trkpt lat="46.97087" lon="8.78782">
        <ele>646</ele>
        <time>2021-08-06T08:25:07.295Z</time>
      </trkpt>
      <trkpt lat="46.97087" lon="8.78782">
        <ele>646</ele>
        <time>2021-08-06T08:25:08.295Z</time>
      </trkpt>
      <trkpt lat="46.97087" lon="8.78782">
        <ele>647</ele>
        <time>2021-08-06T08:25:09.295Z</time>
      </trkpt>
      <trkpt lat="46.97087" lon="8.78782">
        <ele>647</ele>
        <time>2021-08-06T08:25:10.295Z</time>
      </trkpt>
      <trkpt lat="46.97087" lon="8.78782">
        <ele>646</ele>
        <time>2021-08-06T08:25:11.294Z</time>
      </trkpt>
      <trkpt lat="46.97087" lon="8.78783">
        <ele>646</ele>
        <time>2021-08-06T08:25:12.294Z</time>
      </trkpt>
      <trkpt lat="46.97087" lon="8.78783">
        <ele>646</ele>
        <time>2021-08-06T08:25:13.294Z</time>
      </trkpt>
      <trkpt lat="46.97087" lon="8.78784">
        <ele>646</ele>
        <time>2021-08-06T08:25:14.295Z</time>
      </trkpt>
      <trkpt lat="46.97087" lon="8.78785">
        <ele>647</ele>
        <time>2021-08-06T08:25:15.294Z</time>
      </trkpt>
      <trkpt lat="46.97087" lon="8.78785">
        <ele>647</ele>
        <time>2021-08-06T08:25:16.294Z</time>
      </trkpt>
      <trkpt lat="46.97087" lon="8.78785">
        <ele>647</ele>
        <time>2021-08-06T08:25:17.294Z</time>
      </trkpt>
      <trkpt lat="46.97088" lon="8.78785">
        <ele>647</ele>
        <time>2021-08-06T08:25:18.294Z</time>
      </trkpt>
      <trkpt lat="46.97088" lon="8.78784">
        <ele>647</ele>
        <time>2021-08-06T08:25:19.294Z</time>
      </trkpt>
      <trkpt lat="46.97088" lon="8.78785">
        <ele>648</ele>
        <time>2021-08-06T08:25:20.295Z</time>
      </trkpt>
      <trkpt lat="46.97088" lon="8.78785">
        <ele>648</ele>
        <time>2021-08-06T08:25:21.294Z</time>
      </trkpt>
      <trkpt lat="46.97088" lon="8.78785">
        <ele>648</ele>
        <time>2021-08-06T08:25:22.295Z</time>
      </trkpt>
      <trkpt lat="46.97088" lon="8.78785">
        <ele>648</ele>
        <time>2021-08-06T08:25:23.294Z</time>
      </trkpt>
      <trkpt lat="46.97088" lon="8.78785">
        <ele>648</ele>
        <time>2021-08-06T08:25:24.294Z</time>
      </trkpt>
      <trkpt lat="46.97087" lon="8.78785">
        <ele>648</ele>
        <time>2021-08-06T08:25:25.294Z</time>
      </trkpt>
      <trkpt lat="46.97087" lon="8.78785">
        <ele>648</ele>
        <time>2021-08-06T08:25:26.295Z</time>
      </trkpt>
      <trkpt lat="46.97087" lon="8.78785">
        <ele>648</ele>
        <time>2021-08-06T08:25:27.294Z</time>
      </trkpt>
      <trkpt lat="46.97086" lon="8.78784">
        <ele>648</ele>
        <time>2021-08-06T08:25:28.295Z</time>
      </trkpt>
      <trkpt lat="46.97085" lon="8.78783">
        <ele>648</ele>
        <time>2021-08-06T08:25:29.294Z</time>
      </trkpt>
      <trkpt lat="46.97085" lon="8.78783">
        <ele>648</ele>
        <time>2021-08-06T08:25:30.294Z</time>
      </trkpt>
      <trkpt lat="46.97085" lon="8.78784">
        <ele>648</ele>
        <time>2021-08-06T08:25:31.295Z</time>
      </trkpt>
      <trkpt lat="46.97086" lon="8.78785">
        <ele>647</ele>
        <time>2021-08-06T08:25:32.295Z</time>
      </trkpt>
      <trkpt lat="46.97086" lon="8.78785">
        <ele>647</ele>
        <time>2021-08-06T08:25:33.295Z</time>
      </trkpt>
      <trkpt lat="46.97086" lon="8.78785">
        <ele>647</ele>
        <time>2021-08-06T08:25:34.294Z</time>
      </trkpt>
      <trkpt lat="46.97087" lon="8.78785">
        <ele>647</ele>
        <time>2021-08-06T08:25:35.294Z</time>
      </trkpt>
      <trkpt lat="46.97087" lon="8.78786">
        <ele>647</ele>
        <time>2021-08-06T08:25:36.295Z</time>
      </trkpt>
      <trkpt lat="46.97088" lon="8.78786">
        <ele>648</ele>
        <time>2021-08-06T08:25:37.295Z</time>
      </trkpt>
      <trkpt lat="46.97088" lon="8.78786">
        <ele>648</ele>
        <time>2021-08-06T08:25:38.294Z</time>
      </trkpt>
      <trkpt lat="46.97087" lon="8.78786">
        <ele>649</ele>
        <time>2021-08-06T08:25:39.295Z</time>
      </trkpt>
      <trkpt lat="46.97087" lon="8.78786">
        <ele>649</ele>
        <time>2021-08-06T08:25:40.295Z</time>
      </trkpt>
      <trkpt lat="46.97087" lon="8.78787">
        <ele>650</ele>
        <time>2021-08-06T08:25:41.295Z</time>
      </trkpt>
      <trkpt lat="46.97088" lon="8.78787">
        <ele>650</ele>
        <time>2021-08-06T08:25:42.294Z</time>
      </trkpt>
      <trkpt lat="46.97088" lon="8.78788">
        <ele>650</ele>
        <time>2021-08-06T08:25:43.294Z</time>
      </trkpt>
      <trkpt lat="46.97089" lon="8.78788">
        <ele>650</ele>
        <time>2021-08-06T08:25:44.295Z</time>
      </trkpt>
      <trkpt lat="46.97089" lon="8.78787">
        <ele>650</ele>
        <time>2021-08-06T08:25:45.295Z</time>
      </trkpt>
      <trkpt lat="46.97086" lon="8.78784">
        <ele>643</ele>
        <time>2021-08-06T08:25:46.294Z</time>
      </trkpt>
      <trkpt lat="46.97087" lon="8.78785">
        <ele>643</ele>
        <time>2021-08-06T08:25:47.294Z</time>
      </trkpt>
      <trkpt lat="46.97086" lon="8.78783">
        <ele>642</ele>
        <time>2021-08-06T08:25:48.295Z</time>
      </trkpt>
      <trkpt lat="46.9709" lon="8.78785">
        <ele>646</ele>
        <time>2021-08-06T08:25:49.296Z</time>
      </trkpt>
      <trkpt lat="46.9709" lon="8.78785">
        <ele>646</ele>
        <time>2021-08-06T08:25:50.295Z</time>
      </trkpt>
      <trkpt lat="46.97089" lon="8.78784">
        <ele>646</ele>
        <time>2021-08-06T08:25:51.295Z</time>
      </trkpt>
      <trkpt lat="46.97089" lon="8.78784">
        <ele>647</ele>
        <time>2021-08-06T08:25:52.295Z</time>
      </trkpt>
      <trkpt lat="46.97089" lon="8.78785">
        <ele>647</ele>
        <time>2021-08-06T08:25:53.296Z</time>
      </trkpt>
      <trkpt lat="46.97089" lon="8.78786">
        <ele>643</ele>
        <time>2021-08-06T08:25:54.295Z</time>
      </trkpt>
      <trkpt lat="46.9709" lon="8.78787">
        <ele>643</ele>
        <time>2021-08-06T08:25:55.296Z</time>
      </trkpt>
      <trkpt lat="46.9709" lon="8.78788">
        <ele>643</ele>
        <time>2021-08-06T08:25:56.295Z</time>
      </trkpt>
      <trkpt lat="46.97086" lon="8.78785">
        <ele>645</ele>
        <time>2021-08-06T08:25:57.296Z</time>
      </trkpt>
      <trkpt lat="46.97086" lon="8.78785">
        <ele>645</ele>
        <time>2021-08-06T08:25:58.296Z</time>
      </trkpt>
      <trkpt lat="46.97087" lon="8.78786">
        <ele>645</ele>
        <time>2021-08-06T08:25:59.296Z</time>
      </trkpt>
      <trkpt lat="46.97087" lon="8.78786">
        <ele>645</ele>
        <time>2021-08-06T08:26:00.297Z</time>
      </trkpt>
      <trkpt lat="46.97087" lon="8.78787">
        <ele>645</ele>
        <time>2021-08-06T08:26:01.297Z</time>
      </trkpt>
      <trkpt lat="46.97086" lon="8.78785">
        <ele>645</ele>
        <time>2021-08-06T08:26:02.298Z</time>
      </trkpt>
      <trkpt lat="46.97085" lon="8.78784">
        <ele>645</ele>
        <time>2021-08-06T08:26:03.298Z</time>
      </trkpt>
      <trkpt lat="46.97085" lon="8.78786">
        <ele>646</ele>
        <time>2021-08-06T08:26:04.298Z</time>
      </trkpt>
      <trkpt lat="46.97086" lon="8.78787">
        <ele>646</ele>
        <time>2021-08-06T08:26:05.297Z</time>
      </trkpt>
      <trkpt lat="46.97087" lon="8.78787">
        <ele>645</ele>
        <time>2021-08-06T08:26:06.297Z</time>
      </trkpt>
      <trkpt lat="46.97087" lon="8.78787">
        <ele>645</ele>
        <time>2021-08-06T08:26:07.298Z</time>
      </trkpt>
      <trkpt lat="46.97088" lon="8.78786">
        <ele>645</ele>
        <time>2021-08-06T08:26:08.298Z</time>
      </trkpt>
      <trkpt lat="46.97088" lon="8.78786">
        <ele>645</ele>
        <time>2021-08-06T08:26:09.297Z</time>
      </trkpt>
      <trkpt lat="46.97089" lon="8.78786">
        <ele>645</ele>
        <time>2021-08-06T08:26:10.298Z</time>
      </trkpt>
      <trkpt lat="46.97088" lon="8.78782">
        <ele>646</ele>
        <time>2021-08-06T08:26:11.298Z</time>
      </trkpt>
      <trkpt lat="46.97087" lon="8.78781">
        <ele>646</ele>
        <time>2021-08-06T08:26:12.297Z</time>
      </trkpt>
      <trkpt lat="46.97087" lon="8.78782">
        <ele>648</ele>
        <time>2021-08-06T08:26:13.298Z</time>
      </trkpt>
      <trkpt lat="46.97087" lon="8.78782">
        <ele>648</ele>
        <time>2021-08-06T08:26:14.299Z</time>
      </trkpt>
      <trkpt lat="46.97087" lon="8.78782">
        <ele>649</ele>
        <time>2021-08-06T08:26:15.299Z</time>
      </trkpt>
      <trkpt lat="46.97088" lon="8.78783">
        <ele>649</ele>
        <time>2021-08-06T08:26:16.299Z</time>
      </trkpt>
      <trkpt lat="46.97088" lon="8.78784">
        <ele>648</ele>
        <time>2021-08-06T08:26:17.298Z</time>
      </trkpt>
      <trkpt lat="46.97088" lon="8.78784">
        <ele>649</ele>
        <time>2021-08-06T08:26:18.299Z</time>
      </trkpt>
      <trkpt lat="46.97088" lon="8.78784">
        <ele>649</ele>
        <time>2021-08-06T08:26:19.299Z</time>
      </trkpt>
      <trkpt lat="46.97089" lon="8.78784">
        <ele>649</ele>
        <time>2021-08-06T08:26:20.299Z</time>
      </trkpt>
      <trkpt lat="46.97089" lon="8.78783">
        <ele>649</ele>
        <time>2021-08-06T08:26:21.299Z</time>
      </trkpt>
      <trkpt lat="46.97089" lon="8.78781">
        <ele>650</ele>
        <time>2021-08-06T08:26:22.299Z</time>
      </trkpt>
      <trkpt lat="46.97089" lon="8.78781">
        <ele>650</ele>
        <time>2021-08-06T08:26:23.298Z</time>
      </trkpt>
      <trkpt lat="46.97088" lon="8.7878">
        <ele>649</ele>
        <time>2021-08-06T08:26:24.298Z</time>
      </trkpt>
      <trkpt lat="46.97087" lon="8.7878">
        <ele>649</ele>
        <time>2021-08-06T08:26:25.298Z</time>
      </trkpt>
      <trkpt lat="46.97087" lon="8.7878">
        <ele>649</ele>
        <time>2021-08-06T08:26:26.298Z</time>
      </trkpt>
      <trkpt lat="46.97086" lon="8.7878">
        <ele>649</ele>
        <time>2021-08-06T08:26:27.298Z</time>
      </trkpt>
      <trkpt lat="46.97085" lon="8.7878">
        <ele>649</ele>
        <time>2021-08-06T08:26:28.298Z</time>
      </trkpt>
      <trkpt lat="46.97085" lon="8.7878">
        <ele>649</ele>
        <time>2021-08-06T08:26:29.299Z</time>
      </trkpt>
      <trkpt lat="46.97085" lon="8.78781">
        <ele>649</ele>
        <time>2021-08-06T08:26:30.298Z</time>
      </trkpt>
      <trkpt lat="46.97086" lon="8.78782">
        <ele>648</ele>
        <time>2021-08-06T08:26:31.298Z</time>
      </trkpt>
      <trkpt lat="46.97087" lon="8.78782">
        <ele>648</ele>
        <time>2021-08-06T08:26:32.298Z</time>
      </trkpt>
      <trkpt lat="46.97087" lon="8.78783">
        <ele>648</ele>
        <time>2021-08-06T08:26:33.298Z</time>
      </trkpt>
      <trkpt lat="46.97088" lon="8.78783">
        <ele>648</ele>
        <time>2021-08-06T08:26:34.299Z</time>
      </trkpt>
      <trkpt lat="46.97089" lon="8.78783">
        <ele>647</ele>
        <time>2021-08-06T08:26:35.298Z</time>
      </trkpt>
      <trkpt lat="46.9709" lon="8.78783">
        <ele>647</ele>
        <time>2021-08-06T08:26:36.298Z</time>
      </trkpt>
      <trkpt lat="46.97091" lon="8.78783">
        <ele>646</ele>
        <time>2021-08-06T08:26:37.298Z</time>
      </trkpt>
      <trkpt lat="46.97093" lon="8.78783">
        <ele>646</ele>
        <time>2021-08-06T08:26:38.299Z</time>
      </trkpt>
      <trkpt lat="46.97094" lon="8.78782">
        <ele>646</ele>
        <time>2021-08-06T08:26:39.298Z</time>
      </trkpt>
      <trkpt lat="46.97095" lon="8.78781">
        <ele>645</ele>
        <time>2021-08-06T08:26:40.298Z</time>
      </trkpt>
      <trkpt lat="46.97096" lon="8.78781">
        <ele>645</ele>
        <time>2021-08-06T08:26:41.298Z</time>
      </trkpt>
      <trkpt lat="46.97097" lon="8.7878">
        <ele>644</ele>
        <time>2021-08-06T08:26:42.299Z</time>
      </trkpt>
      <trkpt lat="46.97097" lon="8.7878">
        <ele>644</ele>
        <time>2021-08-06T08:26:43.298Z</time>
      </trkpt>
      <trkpt lat="46.97097" lon="8.78778">
        <ele>644</ele>
        <time>2021-08-06T08:26:44.298Z</time>
      </trkpt>
      <trkpt lat="46.97097" lon="8.78776">
        <ele>643</ele>
        <time>2021-08-06T08:26:45.300Z</time>
      </trkpt>
      <trkpt lat="46.97097" lon="8.78776">
        <ele>643</ele>
        <time>2021-08-06T08:26:46.300Z</time>
      </trkpt>
      <trkpt lat="46.97098" lon="8.78776">
        <ele>643</ele>
        <time>2021-08-06T08:26:47.299Z</time>
      </trkpt>
      <trkpt lat="46.97098" lon="8.78776">
        <ele>643</ele>
        <time>2021-08-06T08:26:48.299Z</time>
      </trkpt>
      <trkpt lat="46.97098" lon="8.78777">
        <ele>644</ele>
        <time>2021-08-06T08:26:49.301Z</time>
      </trkpt>
      <trkpt lat="46.97099" lon="8.78776">
        <ele>644</ele>
        <time>2021-08-06T08:26:50.300Z</time>
      </trkpt>
      <trkpt lat="46.971" lon="8.78776">
        <ele>644</ele>
        <time>2021-08-06T08:26:51.301Z</time>
      </trkpt>
      <trkpt lat="46.971" lon="8.78775">
        <ele>644</ele>
        <time>2021-08-06T08:26:52.301Z</time>
      </trkpt>
      <trkpt lat="46.97102" lon="8.78775">
        <ele>644</ele>
        <time>2021-08-06T08:26:53.301Z</time>
      </trkpt>
      <trkpt lat="46.97103" lon="8.78775">
        <ele>644</ele>
        <time>2021-08-06T08:26:54.301Z</time>
      </trkpt>
      <trkpt lat="46.97104" lon="8.78774">
        <ele>645</ele>
        <time>2021-08-06T08:26:55.300Z</time>
      </trkpt>
      <trkpt lat="46.97105" lon="8.78773">
        <ele>645</ele>
        <time>2021-08-06T08:26:56.301Z</time>
      </trkpt>
      <trkpt lat="46.97105" lon="8.78772">
        <ele>645</ele>
        <time>2021-08-06T08:26:57.300Z</time>
      </trkpt>
      <trkpt lat="46.97104" lon="8.78771">
        <ele>645</ele>
        <time>2021-08-06T08:26:58.301Z</time>
      </trkpt>
      <trkpt lat="46.97106" lon="8.7877">
        <ele>649</ele>
        <time>2021-08-06T08:26:59.301Z</time>
      </trkpt>
      <trkpt lat="46.97107" lon="8.7877">
        <ele>649</ele>
        <time>2021-08-06T08:27:00.301Z</time>
      </trkpt>
      <trkpt lat="46.97108" lon="8.78769">
        <ele>649</ele>
        <time>2021-08-06T08:27:01.302Z</time>
      </trkpt>
      <trkpt lat="46.97109" lon="8.78768">
        <ele>650</ele>
        <time>2021-08-06T08:27:02.301Z</time>
      </trkpt>
      <trkpt lat="46.9711" lon="8.78766">
        <ele>650</ele>
        <time>2021-08-06T08:27:03.301Z</time>
      </trkpt>
      <trkpt lat="46.9711" lon="8.78765">
        <ele>650</ele>
        <time>2021-08-06T08:27:04.302Z</time>
      </trkpt>
      <trkpt lat="46.97111" lon="8.78764">
        <ele>650</ele>
        <time>2021-08-06T08:27:05.302Z</time>
      </trkpt>
      <trkpt lat="46.97112" lon="8.78762">
        <ele>650</ele>
        <time>2021-08-06T08:27:06.302Z</time>
      </trkpt>
      <trkpt lat="46.97112" lon="8.78761">
        <ele>650</ele>
        <time>2021-08-06T08:27:07.301Z</time>
      </trkpt>
      <trkpt lat="46.97113" lon="8.78759">
        <ele>650</ele>
        <time>2021-08-06T08:27:08.302Z</time>
      </trkpt>
      <trkpt lat="46.97113" lon="8.78758">
        <ele>650</ele>
        <time>2021-08-06T08:27:09.301Z</time>
      </trkpt>
      <trkpt lat="46.97114" lon="8.78756">
        <ele>649</ele>
        <time>2021-08-06T08:27:10.302Z</time>
      </trkpt>
      <trkpt lat="46.97114" lon="8.78755">
        <ele>649</ele>
        <time>2021-08-06T08:27:11.301Z</time>
      </trkpt>
      <trkpt lat="46.97115" lon="8.78754">
        <ele>648</ele>
        <time>2021-08-06T08:27:12.301Z</time>
      </trkpt>
      <trkpt lat="46.97115" lon="8.78752">
        <ele>648</ele>
        <time>2021-08-06T08:27:13.301Z</time>
      </trkpt>
      <trkpt lat="46.97115" lon="8.78751">
        <ele>648</ele>
        <time>2021-08-06T08:27:14.301Z</time>
      </trkpt>
      <trkpt lat="46.97116" lon="8.7875">
        <ele>647</ele>
        <time>2021-08-06T08:27:15.302Z</time>
      </trkpt>
      <trkpt lat="46.97116" lon="8.78748">
        <ele>647</ele>
        <time>2021-08-06T08:27:16.301Z</time>
      </trkpt>
      <trkpt lat="46.97116" lon="8.78747">
        <ele>647</ele>
        <time>2021-08-06T08:27:17.301Z</time>
      </trkpt>
      <trkpt lat="46.97117" lon="8.78745">
        <ele>646</ele>
        <time>2021-08-06T08:27:18.302Z</time>
      </trkpt>
      <trkpt lat="46.97117" lon="8.78744">
        <ele>646</ele>
        <time>2021-08-06T08:27:19.302Z</time>
      </trkpt>
      <trkpt lat="46.97118" lon="8.78743">
        <ele>646</ele>
        <time>2021-08-06T08:27:20.302Z</time>
      </trkpt>
      <trkpt lat="46.97119" lon="8.78741">
        <ele>646</ele>
        <time>2021-08-06T08:27:21.302Z</time>
      </trkpt>
      <trkpt lat="46.9712" lon="8.7874">
        <ele>646</ele>
        <time>2021-08-06T08:27:22.301Z</time>
      </trkpt>
      <trkpt lat="46.97121" lon="8.78738">
        <ele>647</ele>
        <time>2021-08-06T08:27:23.302Z</time>
      </trkpt>
      <trkpt lat="46.97121" lon="8.78736">
        <ele>647</ele>
        <time>2021-08-06T08:27:24.302Z</time>
      </trkpt>
      <trkpt lat="46.97122" lon="8.78735">
        <ele>648</ele>
        <time>2021-08-06T08:27:25.301Z</time>
      </trkpt>
      <trkpt lat="46.97123" lon="8.78733">
        <ele>648</ele>
        <time>2021-08-06T08:27:26.301Z</time>
      </trkpt>
      <trkpt lat="46.97123" lon="8.78732">
        <ele>647</ele>
        <time>2021-08-06T08:27:27.301Z</time>
      </trkpt>
      <trkpt lat="46.97123" lon="8.7873">
        <ele>647</ele>
        <time>2021-08-06T08:27:28.301Z</time>
      </trkpt>
      <trkpt lat="46.97124" lon="8.78729">
        <ele>647</ele>
        <time>2021-08-06T08:27:29.302Z</time>
      </trkpt>
      <trkpt lat="46.97124" lon="8.78728">
        <ele>647</ele>
        <time>2021-08-06T08:27:30.301Z</time>
      </trkpt>
      <trkpt lat="46.97124" lon="8.78726">
        <ele>647</ele>
        <time>2021-08-06T08:27:31.302Z</time>
      </trkpt>
      <trkpt lat="46.97124" lon="8.78725">
        <ele>646</ele>
        <time>2021-08-06T08:27:32.302Z</time>
      </trkpt>
      <trkpt lat="46.97124" lon="8.78723">
        <ele>646</ele>
        <time>2021-08-06T08:27:33.301Z</time>
      </trkpt>
      <trkpt lat="46.97124" lon="8.78722">
        <ele>646</ele>
        <time>2021-08-06T08:27:34.302Z</time>
      </trkpt>
      <trkpt lat="46.97124" lon="8.7872">
        <ele>646</ele>
        <time>2021-08-06T08:27:35.302Z</time>
      </trkpt>
      <trkpt lat="46.97124" lon="8.78719">
        <ele>646</ele>
        <time>2021-08-06T08:27:36.302Z</time>
      </trkpt>
      <trkpt lat="46.97124" lon="8.78718">
        <ele>646</ele>
        <time>2021-08-06T08:27:37.301Z</time>
      </trkpt>
      <trkpt lat="46.97124" lon="8.78716">
        <ele>646</ele>
        <time>2021-08-06T08:27:38.302Z</time>
      </trkpt>
      <trkpt lat="46.97124" lon="8.78714">
        <ele>647</ele>
        <time>2021-08-06T08:27:39.302Z</time>
      </trkpt>
      <trkpt lat="46.97124" lon="8.78713">
        <ele>647</ele>
        <time>2021-08-06T08:27:40.301Z</time>
      </trkpt>
      <trkpt lat="46.97124" lon="8.78711">
        <ele>647</ele>
        <time>2021-08-06T08:27:41.302Z</time>
      </trkpt>
      <trkpt lat="46.97125" lon="8.7871">
        <ele>647</ele>
        <time>2021-08-06T08:27:42.301Z</time>
      </trkpt>
      <trkpt lat="46.97125" lon="8.78709">
        <ele>647</ele>
        <time>2021-08-06T08:27:43.302Z</time>
      </trkpt>
      <trkpt lat="46.97126" lon="8.78707">
        <ele>647</ele>
        <time>2021-08-06T08:27:44.301Z</time>
      </trkpt>
      <trkpt lat="46.97127" lon="8.78706">
        <ele>647</ele>
        <time>2021-08-06T08:27:45.302Z</time>
      </trkpt>
      <trkpt lat="46.97127" lon="8.78704">
        <ele>646</ele>
        <time>2021-08-06T08:27:46.302Z</time>
      </trkpt>
      <trkpt lat="46.97127" lon="8.78703">
        <ele>646</ele>
        <time>2021-08-06T08:27:47.301Z</time>
      </trkpt>
      <trkpt lat="46.97127" lon="8.78701">
        <ele>646</ele>
        <time>2021-08-06T08:27:48.301Z</time>
      </trkpt>
      <trkpt lat="46.97127" lon="8.787">
        <ele>646</ele>
        <time>2021-08-06T08:27:49.302Z</time>
      </trkpt>
      <trkpt lat="46.97127" lon="8.78698">
        <ele>646</ele>
        <time>2021-08-06T08:27:50.302Z</time>
      </trkpt>
      <trkpt lat="46.97128" lon="8.78696">
        <ele>646</ele>
        <time>2021-08-06T08:27:51.302Z</time>
      </trkpt>
      <trkpt lat="46.97128" lon="8.78694">
        <ele>646</ele>
        <time>2021-08-06T08:27:52.302Z</time>
      </trkpt>
      <trkpt lat="46.97129" lon="8.78693">
        <ele>646</ele>
        <time>2021-08-06T08:27:53.302Z</time>
      </trkpt>
      <trkpt lat="46.9713" lon="8.78691">
        <ele>646</ele>
        <time>2021-08-06T08:27:54.301Z</time>
      </trkpt>
      <trkpt lat="46.97131" lon="8.78689">
        <ele>646</ele>
        <time>2021-08-06T08:27:55.301Z</time>
      </trkpt>
      <trkpt lat="46.97131" lon="8.78688">
        <ele>646</ele>
        <time>2021-08-06T08:27:56.302Z</time>
      </trkpt>
      <trkpt lat="46.97131" lon="8.78686">
        <ele>646</ele>
        <time>2021-08-06T08:27:57.302Z</time>
      </trkpt>
      <trkpt lat="46.97131" lon="8.78685">
        <ele>646</ele>
        <time>2021-08-06T08:27:58.302Z</time>
      </trkpt>
      <trkpt lat="46.97131" lon="8.78683">
        <ele>645</ele>
        <time>2021-08-06T08:27:59.302Z</time>
      </trkpt>
      <trkpt lat="46.97131" lon="8.78681">
        <ele>645</ele>
        <time>2021-08-06T08:28:00.302Z</time>
      </trkpt>
      <trkpt lat="46.97132" lon="8.78679">
        <ele>645</ele>
        <time>2021-08-06T08:28:01.302Z</time>
      </trkpt>
      <trkpt lat="46.97133" lon="8.78677">
        <ele>645</ele>
        <time>2021-08-06T08:28:02.302Z</time>
      </trkpt>
      <trkpt lat="46.97134" lon="8.78676">
        <ele>646</ele>
        <time>2021-08-06T08:28:03.301Z</time>
      </trkpt>
      <trkpt lat="46.97134" lon="8.78674">
        <ele>646</ele>
        <time>2021-08-06T08:28:04.302Z</time>
      </trkpt>
      <trkpt lat="46.97135" lon="8.78673">
        <ele>646</ele>
        <time>2021-08-06T08:28:05.302Z</time>
      </trkpt>
      <trkpt lat="46.97135" lon="8.78671">
        <ele>647</ele>
        <time>2021-08-06T08:28:06.302Z</time>
      </trkpt>
      <trkpt lat="46.97136" lon="8.7867">
        <ele>647</ele>
        <time>2021-08-06T08:28:07.302Z</time>
      </trkpt>
      <trkpt lat="46.97136" lon="8.78668">
        <ele>648</ele>
        <time>2021-08-06T08:28:08.301Z</time>
      </trkpt>
      <trkpt lat="46.97137" lon="8.78666">
        <ele>648</ele>
        <time>2021-08-06T08:28:09.302Z</time>
      </trkpt>
      <trkpt lat="46.97138" lon="8.78665">
        <ele>648</ele>
        <time>2021-08-06T08:28:10.302Z</time>
      </trkpt>
      <trkpt lat="46.97138" lon="8.78663">
        <ele>647</ele>
        <time>2021-08-06T08:28:11.302Z</time>
      </trkpt>
      <trkpt lat="46.97138" lon="8.78662">
        <ele>647</ele>
        <time>2021-08-06T08:28:12.302Z</time>
      </trkpt>
      <trkpt lat="46.97138" lon="8.7866">
        <ele>647</ele>
        <time>2021-08-06T08:28:13.302Z</time>
      </trkpt>
      <trkpt lat="46.97138" lon="8.78658">
        <ele>647</ele>
        <time>2021-08-06T08:28:14.301Z</time>
      </trkpt>
      <trkpt lat="46.97138" lon="8.78656">
        <ele>647</ele>
        <time>2021-08-06T08:28:15.302Z</time>
      </trkpt>
      <trkpt lat="46.97139" lon="8.78654">
        <ele>647</ele>
        <time>2021-08-06T08:28:16.301Z</time>
      </trkpt>
      <trkpt lat="46.97139" lon="8.78653">
        <ele>647</ele>
        <time>2021-08-06T08:28:17.302Z</time>
      </trkpt>
      <trkpt lat="46.9714" lon="8.78651">
        <ele>646</ele>
        <time>2021-08-06T08:28:18.302Z</time>
      </trkpt>
      <trkpt lat="46.97141" lon="8.7865">
        <ele>646</ele>
        <time>2021-08-06T08:28:19.301Z</time>
      </trkpt>
      <trkpt lat="46.97141" lon="8.78648">
        <ele>646</ele>
        <time>2021-08-06T08:28:20.302Z</time>
      </trkpt>
      <trkpt lat="46.97141" lon="8.78647">
        <ele>646</ele>
        <time>2021-08-06T08:28:21.301Z</time>
      </trkpt>
      <trkpt lat="46.97141" lon="8.78646">
        <ele>645</ele>
        <time>2021-08-06T08:28:22.302Z</time>
      </trkpt>
      <trkpt lat="46.97141" lon="8.78644">
        <ele>645</ele>
        <time>2021-08-06T08:28:23.302Z</time>
      </trkpt>
      <trkpt lat="46.97141" lon="8.78642">
        <ele>645</ele>
        <time>2021-08-06T08:28:24.301Z</time>
      </trkpt>
      <trkpt lat="46.97141" lon="8.78641">
        <ele>644</ele>
        <time>2021-08-06T08:28:25.302Z</time>
      </trkpt>
      <trkpt lat="46.97142" lon="8.7864">
        <ele>644</ele>
        <time>2021-08-06T08:28:26.302Z</time>
      </trkpt>
      <trkpt lat="46.97142" lon="8.78638">
        <ele>643</ele>
        <time>2021-08-06T08:28:27.302Z</time>
      </trkpt>
      <trkpt lat="46.97142" lon="8.78637">
        <ele>643</ele>
        <time>2021-08-06T08:28:28.302Z</time>
      </trkpt>
      <trkpt lat="46.97142" lon="8.78635">
        <ele>643</ele>
        <time>2021-08-06T08:28:29.301Z</time>
      </trkpt>
      <trkpt lat="46.97142" lon="8.78634">
        <ele>643</ele>
        <time>2021-08-06T08:28:30.301Z</time>
      </trkpt>
      <trkpt lat="46.97143" lon="8.78633">
        <ele>643</ele>
        <time>2021-08-06T08:28:31.302Z</time>
      </trkpt>
      <trkpt lat="46.97143" lon="8.78632">
        <ele>643</ele>
        <time>2021-08-06T08:28:32.301Z</time>
      </trkpt>
      <trkpt lat="46.97144" lon="8.7863">
        <ele>643</ele>
        <time>2021-08-06T08:28:33.301Z</time>
      </trkpt>
      <trkpt lat="46.97145" lon="8.78629">
        <ele>643</ele>
        <time>2021-08-06T08:28:34.301Z</time>
      </trkpt>
      <trkpt lat="46.97145" lon="8.78627">
        <ele>643</ele>
        <time>2021-08-06T08:28:35.301Z</time>
      </trkpt>
      <trkpt lat="46.97145" lon="8.78626">
        <ele>643</ele>
        <time>2021-08-06T08:28:36.301Z</time>
      </trkpt>
      <trkpt lat="46.97145" lon="8.78625">
        <ele>643</ele>
        <time>2021-08-06T08:28:37.302Z</time>
      </trkpt>
      <trkpt lat="46.97145" lon="8.78624">
        <ele>643</ele>
        <time>2021-08-06T08:28:38.301Z</time>
      </trkpt>
      <trkpt lat="46.97145" lon="8.78622">
        <ele>644</ele>
        <time>2021-08-06T08:28:39.301Z</time>
      </trkpt>
      <trkpt lat="46.97145" lon="8.78621">
        <ele>644</ele>
        <time>2021-08-06T08:28:40.301Z</time>
      </trkpt>
      <trkpt lat="46.97146" lon="8.7862">
        <ele>645</ele>
        <time>2021-08-06T08:28:41.302Z</time>
      </trkpt>
      <trkpt lat="46.97146" lon="8.78618">
        <ele>645</ele>
        <time>2021-08-06T08:28:42.302Z</time>
      </trkpt>
      <trkpt lat="46.97147" lon="8.78617">
        <ele>646</ele>
        <time>2021-08-06T08:28:43.301Z</time>
      </trkpt>
      <trkpt lat="46.97148" lon="8.78615">
        <ele>646</ele>
        <time>2021-08-06T08:28:44.301Z</time>
      </trkpt>
      <trkpt lat="46.97148" lon="8.78614">
        <ele>646</ele>
        <time>2021-08-06T08:28:45.302Z</time>
      </trkpt>
      <trkpt lat="46.97149" lon="8.78612">
        <ele>647</ele>
        <time>2021-08-06T08:28:46.302Z</time>
      </trkpt>
      <trkpt lat="46.97149" lon="8.78611">
        <ele>647</ele>
        <time>2021-08-06T08:28:47.301Z</time>
      </trkpt>
      <trkpt lat="46.9715" lon="8.78609">
        <ele>647</ele>
        <time>2021-08-06T08:28:48.301Z</time>
      </trkpt>
      <trkpt lat="46.9715" lon="8.78607">
        <ele>648</ele>
        <time>2021-08-06T08:28:49.302Z</time>
      </trkpt>
      <trkpt lat="46.9715" lon="8.78605">
        <ele>648</ele>
        <time>2021-08-06T08:28:50.301Z</time>
      </trkpt>
      <trkpt lat="46.97151" lon="8.78603">
        <ele>648</ele>
        <time>2021-08-06T08:28:51.302Z</time>
      </trkpt>
      <trkpt lat="46.97152" lon="8.78601">
        <ele>649</ele>
        <time>2021-08-06T08:28:52.302Z</time>
      </trkpt>
      <trkpt lat="46.97153" lon="8.786">
        <ele>649</ele>
        <time>2021-08-06T08:28:53.302Z</time>
      </trkpt>
      <trkpt lat="46.97153" lon="8.78597">
        <ele>650</ele>
        <time>2021-08-06T08:28:54.301Z</time>
      </trkpt>
      <trkpt lat="46.97153" lon="8.78595">
        <ele>650</ele>
        <time>2021-08-06T08:28:55.301Z</time>
      </trkpt>
      <trkpt lat="46.97153" lon="8.78593">
        <ele>651</ele>
        <time>2021-08-06T08:28:56.302Z</time>
      </trkpt>
      <trkpt lat="46.97154" lon="8.78591">
        <ele>651</ele>
        <time>2021-08-06T08:28:57.302Z</time>
      </trkpt>
      <trkpt lat="46.97155" lon="8.7859">
        <ele>651</ele>
        <time>2021-08-06T08:28:58.301Z</time>
      </trkpt>
      <trkpt lat="46.97155" lon="8.78589">
        <ele>651</ele>
        <time>2021-08-06T08:28:59.301Z</time>
      </trkpt>
      <trkpt lat="46.97155" lon="8.78588">
        <ele>652</ele>
        <time>2021-08-06T08:29:00.302Z</time>
      </trkpt>
      <trkpt lat="46.97156" lon="8.78586">
        <ele>652</ele>
        <time>2021-08-06T08:29:01.302Z</time>
      </trkpt>
      <trkpt lat="46.97156" lon="8.78585">
        <ele>652</ele>
        <time>2021-08-06T08:29:02.302Z</time>
      </trkpt>
      <trkpt lat="46.97157" lon="8.78584">
        <ele>652</ele>
        <time>2021-08-06T08:29:03.301Z</time>
      </trkpt>
      <trkpt lat="46.97158" lon="8.78582">
        <ele>653</ele>
        <time>2021-08-06T08:29:04.302Z</time>
      </trkpt>
      <trkpt lat="46.97158" lon="8.78581">
        <ele>653</ele>
        <time>2021-08-06T08:29:05.301Z</time>
      </trkpt>
      <trkpt lat="46.97159" lon="8.78579">
        <ele>653</ele>
        <time>2021-08-06T08:29:06.302Z</time>
      </trkpt>
      <trkpt lat="46.97159" lon="8.78578">
        <ele>653</ele>
        <time>2021-08-06T08:29:07.302Z</time>
      </trkpt>
      <trkpt lat="46.97159" lon="8.78576">
        <ele>653</ele>
        <time>2021-08-06T08:29:08.302Z</time>
      </trkpt>
      <trkpt lat="46.97159" lon="8.78575">
        <ele>653</ele>
        <time>2021-08-06T08:29:09.301Z</time>
      </trkpt>
      <trkpt lat="46.97159" lon="8.78573">
        <ele>653</ele>
        <time>2021-08-06T08:29:10.301Z</time>
      </trkpt>
      <trkpt lat="46.97159" lon="8.78572">
        <ele>652</ele>
        <time>2021-08-06T08:29:11.301Z</time>
      </trkpt>
      <trkpt lat="46.97159" lon="8.7857">
        <ele>652</ele>
        <time>2021-08-06T08:29:12.302Z</time>
      </trkpt>
      <trkpt lat="46.97159" lon="8.78569">
        <ele>651</ele>
        <time>2021-08-06T08:29:13.302Z</time>
      </trkpt>
      <trkpt lat="46.97159" lon="8.78568">
        <ele>651</ele>
        <time>2021-08-06T08:29:14.302Z</time>
      </trkpt>
      <trkpt lat="46.9716" lon="8.78566">
        <ele>651</ele>
        <time>2021-08-06T08:29:15.301Z</time>
      </trkpt>
      <trkpt lat="46.97161" lon="8.78565">
        <ele>651</ele>
        <time>2021-08-06T08:29:16.301Z</time>
      </trkpt>
      <trkpt lat="46.97161" lon="8.78563">
        <ele>652</ele>
        <time>2021-08-06T08:29:17.302Z</time>
      </trkpt>
      <trkpt lat="46.97162" lon="8.78562">
        <ele>652</ele>
        <time>2021-08-06T08:29:18.301Z</time>
      </trkpt>
      <trkpt lat="46.97162" lon="8.78561">
        <ele>652</ele>
        <time>2021-08-06T08:29:19.302Z</time>
      </trkpt>
      <trkpt lat="46.97162" lon="8.7856">
        <ele>652</ele>
        <time>2021-08-06T08:29:20.301Z</time>
      </trkpt>
      <trkpt lat="46.97163" lon="8.78559">
        <ele>652</ele>
        <time>2021-08-06T08:29:21.301Z</time>
      </trkpt>
      <trkpt lat="46.97163" lon="8.78557">
        <ele>652</ele>
        <time>2021-08-06T08:29:22.302Z</time>
      </trkpt>
      <trkpt lat="46.97163" lon="8.78556">
        <ele>653</ele>
        <time>2021-08-06T08:29:23.301Z</time>
      </trkpt>
      <trkpt lat="46.97163" lon="8.78554">
        <ele>653</ele>
        <time>2021-08-06T08:29:24.302Z</time>
      </trkpt>
      <trkpt lat="46.97162" lon="8.78552">
        <ele>653</ele>
        <time>2021-08-06T08:29:25.301Z</time>
      </trkpt>
      <trkpt lat="46.97162" lon="8.78551">
        <ele>653</ele>
        <time>2021-08-06T08:29:26.302Z</time>
      </trkpt>
      <trkpt lat="46.97162" lon="8.78549">
        <ele>652</ele>
        <time>2021-08-06T08:29:27.301Z</time>
      </trkpt>
      <trkpt lat="46.97162" lon="8.78548">
        <ele>652</ele>
        <time>2021-08-06T08:29:28.302Z</time>
      </trkpt>
      <trkpt lat="46.97162" lon="8.78547">
        <ele>652</ele>
        <time>2021-08-06T08:29:29.301Z</time>
      </trkpt>
      <trkpt lat="46.97162" lon="8.78546">
        <ele>652</ele>
        <time>2021-08-06T08:29:30.302Z</time>
      </trkpt>
      <trkpt lat="46.97162" lon="8.78544">
        <ele>652</ele>
        <time>2021-08-06T08:29:31.301Z</time>
      </trkpt>
      <trkpt lat="46.97162" lon="8.78542">
        <ele>652</ele>
        <time>2021-08-06T08:29:32.301Z</time>
      </trkpt>
      <trkpt lat="46.97163" lon="8.7854">
        <ele>652</ele>
        <time>2021-08-06T08:29:33.302Z</time>
      </trkpt>
      <trkpt lat="46.97163" lon="8.78539">
        <ele>652</ele>
        <time>2021-08-06T08:29:34.301Z</time>
      </trkpt>
      <trkpt lat="46.97162" lon="8.78537">
        <ele>652</ele>
        <time>2021-08-06T08:29:35.302Z</time>
      </trkpt>
      <trkpt lat="46.97162" lon="8.78535">
        <ele>652</ele>
        <time>2021-08-06T08:29:36.302Z</time>
      </trkpt>
      <trkpt lat="46.97163" lon="8.78533">
        <ele>651</ele>
        <time>2021-08-06T08:29:37.301Z</time>
      </trkpt>
      <trkpt lat="46.97163" lon="8.78532">
        <ele>651</ele>
        <time>2021-08-06T08:29:38.301Z</time>
      </trkpt>
      <trkpt lat="46.97163" lon="8.78532">
        <ele>650</ele>
        <time>2021-08-06T08:29:39.301Z</time>
      </trkpt>
      <trkpt lat="46.97164" lon="8.78531">
        <ele>649</ele>
        <time>2021-08-06T08:29:40.301Z</time>
      </trkpt>
      <trkpt lat="46.97164" lon="8.7853">
        <ele>649</ele>
        <time>2021-08-06T08:29:41.301Z</time>
      </trkpt>
      <trkpt lat="46.97165" lon="8.78529">
        <ele>648</ele>
        <time>2021-08-06T08:29:42.301Z</time>
      </trkpt>
      <trkpt lat="46.97166" lon="8.78528">
        <ele>648</ele>
        <time>2021-08-06T08:29:43.301Z</time>
      </trkpt>
      <trkpt lat="46.97167" lon="8.78527">
        <ele>647</ele>
        <time>2021-08-06T08:29:44.301Z</time>
      </trkpt>
      <trkpt lat="46.97168" lon="8.78526">
        <ele>647</ele>
        <time>2021-08-06T08:29:45.301Z</time>
      </trkpt>
      <trkpt lat="46.97168" lon="8.78525">
        <ele>646</ele>
        <time>2021-08-06T08:29:46.302Z</time>
      </trkpt>
      <trkpt lat="46.97168" lon="8.78524">
        <ele>645</ele>
        <time>2021-08-06T08:29:47.301Z</time>
      </trkpt>
      <trkpt lat="46.97168" lon="8.78523">
        <ele>645</ele>
        <time>2021-08-06T08:29:48.302Z</time>
      </trkpt>
      <trkpt lat="46.97169" lon="8.78522">
        <ele>644</ele>
        <time>2021-08-06T08:29:49.301Z</time>
      </trkpt>
      <trkpt lat="46.97168" lon="8.78522">
        <ele>644</ele>
        <time>2021-08-06T08:29:50.302Z</time>
      </trkpt>
      <trkpt lat="46.97167" lon="8.78522">
        <ele>643</ele>
        <time>2021-08-06T08:29:51.301Z</time>
      </trkpt>
      <trkpt lat="46.97166" lon="8.78522">
        <ele>643</ele>
        <time>2021-08-06T08:29:52.302Z</time>
      </trkpt>
      <trkpt lat="46.97163" lon="8.78522">
        <ele>644</ele>
        <time>2021-08-06T08:29:53.302Z</time>
      </trkpt>
      <trkpt lat="46.97161" lon="8.78523">
        <ele>646</ele>
        <time>2021-08-06T08:29:54.302Z</time>
      </trkpt>
      <trkpt lat="46.97161" lon="8.78522">
        <ele>648</ele>
        <time>2021-08-06T08:29:55.303Z</time>
      </trkpt>
      <trkpt lat="46.97161" lon="8.78521">
        <ele>648</ele>
        <time>2021-08-06T08:29:56.303Z</time>
      </trkpt>
      <trkpt lat="46.97161" lon="8.7852">
        <ele>648</ele>
        <time>2021-08-06T08:29:57.302Z</time>
      </trkpt>
      <trkpt lat="46.97161" lon="8.78519">
        <ele>648</ele>
        <time>2021-08-06T08:29:58.303Z</time>
      </trkpt>
      <trkpt lat="46.97161" lon="8.78517">
        <ele>648</ele>
        <time>2021-08-06T08:29:59.303Z</time>
      </trkpt>
      <trkpt lat="46.97161" lon="8.78516">
        <ele>648</ele>
        <time>2021-08-06T08:30:00.302Z</time>
      </trkpt>
      <trkpt lat="46.97161" lon="8.78515">
        <ele>648</ele>
        <time>2021-08-06T08:30:01.302Z</time>
      </trkpt>
      <trkpt lat="46.9716" lon="8.78513">
        <ele>648</ele>
        <time>2021-08-06T08:30:02.302Z</time>
      </trkpt>
      <trkpt lat="46.9716" lon="8.78512">
        <ele>648</ele>
        <time>2021-08-06T08:30:03.303Z</time>
      </trkpt>
      <trkpt lat="46.97161" lon="8.7851">
        <ele>648</ele>
        <time>2021-08-06T08:30:04.302Z</time>
      </trkpt>
      <trkpt lat="46.97161" lon="8.78508">
        <ele>648</ele>
        <time>2021-08-06T08:30:05.303Z</time>
      </trkpt>
      <trkpt lat="46.97162" lon="8.78507">
        <ele>648</ele>
        <time>2021-08-06T08:30:06.303Z</time>
      </trkpt>
      <trkpt lat="46.97163" lon="8.78506">
        <ele>648</ele>
        <time>2021-08-06T08:30:07.303Z</time>
      </trkpt>
      <trkpt lat="46.97163" lon="8.78504">
        <ele>648</ele>
        <time>2021-08-06T08:30:08.303Z</time>
      </trkpt>
      <trkpt lat="46.97164" lon="8.78502">
        <ele>648</ele>
        <time>2021-08-06T08:30:09.303Z</time>
      </trkpt>
      <trkpt lat="46.97165" lon="8.78501">
        <ele>648</ele>
        <time>2021-08-06T08:30:10.302Z</time>
      </trkpt>
      <trkpt lat="46.97165" lon="8.78499">
        <ele>649</ele>
        <time>2021-08-06T08:30:11.302Z</time>
      </trkpt>
      <trkpt lat="46.97166" lon="8.78498">
        <ele>649</ele>
        <time>2021-08-06T08:30:12.302Z</time>
      </trkpt>
      <trkpt lat="46.97167" lon="8.78497">
        <ele>649</ele>
        <time>2021-08-06T08:30:13.302Z</time>
      </trkpt>
      <trkpt lat="46.97168" lon="8.78496">
        <ele>649</ele>
        <time>2021-08-06T08:30:14.303Z</time>
      </trkpt>
      <trkpt lat="46.97169" lon="8.78495">
        <ele>649</ele>
        <time>2021-08-06T08:30:15.302Z</time>
      </trkpt>
      <trkpt lat="46.9717" lon="8.78494">
        <ele>649</ele>
        <time>2021-08-06T08:30:16.303Z</time>
      </trkpt>
      <trkpt lat="46.97172" lon="8.78493">
        <ele>648</ele>
        <time>2021-08-06T08:30:17.303Z</time>
      </trkpt>
      <trkpt lat="46.97173" lon="8.78491">
        <ele>648</ele>
        <time>2021-08-06T08:30:18.302Z</time>
      </trkpt>
      <trkpt lat="46.97174" lon="8.7849">
        <ele>648</ele>
        <time>2021-08-06T08:30:19.303Z</time>
      </trkpt>
      <trkpt lat="46.97176" lon="8.78488">
        <ele>648</ele>
        <time>2021-08-06T08:30:20.302Z</time>
      </trkpt>
      <trkpt lat="46.97176" lon="8.78486">
        <ele>648</ele>
        <time>2021-08-06T08:30:21.302Z</time>
      </trkpt>
      <trkpt lat="46.97177" lon="8.78484">
        <ele>648</ele>
        <time>2021-08-06T08:30:22.303Z</time>
      </trkpt>
      <trkpt lat="46.97178" lon="8.78483">
        <ele>648</ele>
        <time>2021-08-06T08:30:23.302Z</time>
      </trkpt>
      <trkpt lat="46.97178" lon="8.78482">
        <ele>648</ele>
        <time>2021-08-06T08:30:24.302Z</time>
      </trkpt>
      <trkpt lat="46.97178" lon="8.7848">
        <ele>647</ele>
        <time>2021-08-06T08:30:25.303Z</time>
      </trkpt>
      <trkpt lat="46.97178" lon="8.78479">
        <ele>647</ele>
        <time>2021-08-06T08:30:26.303Z</time>
      </trkpt>
      <trkpt lat="46.97179" lon="8.78477">
        <ele>647</ele>
        <time>2021-08-06T08:30:27.303Z</time>
      </trkpt>
      <trkpt lat="46.97179" lon="8.78476">
        <ele>647</ele>
        <time>2021-08-06T08:30:28.302Z</time>
      </trkpt>
      <trkpt lat="46.9718" lon="8.78475">
        <ele>648</ele>
        <time>2021-08-06T08:30:29.302Z</time>
      </trkpt>
      <trkpt lat="46.9718" lon="8.78474">
        <ele>648</ele>
        <time>2021-08-06T08:30:30.303Z</time>
      </trkpt>
      <trkpt lat="46.9718" lon="8.78472">
        <ele>648</ele>
        <time>2021-08-06T08:30:31.303Z</time>
      </trkpt>
      <trkpt lat="46.9718" lon="8.78471">
        <ele>648</ele>
        <time>2021-08-06T08:30:32.303Z</time>
      </trkpt>
      <trkpt lat="46.97181" lon="8.7847">
        <ele>648</ele>
        <time>2021-08-06T08:30:33.303Z</time>
      </trkpt>
      <trkpt lat="46.97181" lon="8.78469">
        <ele>648</ele>
        <time>2021-08-06T08:30:34.302Z</time>
      </trkpt>
      <trkpt lat="46.97182" lon="8.78466">
        <ele>647</ele>
        <time>2021-08-06T08:30:35.302Z</time>
      </trkpt>
      <trkpt lat="46.97182" lon="8.78464">
        <ele>647</ele>
        <time>2021-08-06T08:30:36.302Z</time>
      </trkpt>
      <trkpt lat="46.97183" lon="8.78462">
        <ele>647</ele>
        <time>2021-08-06T08:30:37.302Z</time>
      </trkpt>
      <trkpt lat="46.97183" lon="8.78461">
        <ele>647</ele>
        <time>2021-08-06T08:30:38.302Z</time>
      </trkpt>
      <trkpt lat="46.97184" lon="8.78459">
        <ele>646</ele>
        <time>2021-08-06T08:30:39.302Z</time>
      </trkpt>
      <trkpt lat="46.97184" lon="8.78458">
        <ele>646</ele>
        <time>2021-08-06T08:30:40.303Z</time>
      </trkpt>
      <trkpt lat="46.97185" lon="8.78457">
        <ele>645</ele>
        <time>2021-08-06T08:30:41.303Z</time>
      </trkpt>
      <trkpt lat="46.97185" lon="8.78456">
        <ele>645</ele>
        <time>2021-08-06T08:30:42.302Z</time>
      </trkpt>
      <trkpt lat="46.97185" lon="8.78455">
        <ele>645</ele>
        <time>2021-08-06T08:30:43.302Z</time>
      </trkpt>
      <trkpt lat="46.97186" lon="8.78454">
        <ele>645</ele>
        <time>2021-08-06T08:30:44.302Z</time>
      </trkpt>
      <trkpt lat="46.97186" lon="8.78452">
        <ele>644</ele>
        <time>2021-08-06T08:30:45.303Z</time>
      </trkpt>
      <trkpt lat="46.97186" lon="8.7845">
        <ele>644</ele>
        <time>2021-08-06T08:30:46.303Z</time>
      </trkpt>
      <trkpt lat="46.97187" lon="8.78449">
        <ele>644</ele>
        <time>2021-08-06T08:30:47.303Z</time>
      </trkpt>
      <trkpt lat="46.97188" lon="8.78447">
        <ele>644</ele>
        <time>2021-08-06T08:30:48.303Z</time>
      </trkpt>
      <trkpt lat="46.97189" lon="8.78445">
        <ele>644</ele>
        <time>2021-08-06T08:30:49.302Z</time>
      </trkpt>
      <trkpt lat="46.9719" lon="8.78444">
        <ele>644</ele>
        <time>2021-08-06T08:30:50.303Z</time>
      </trkpt>
      <trkpt lat="46.9719" lon="8.78442">
        <ele>644</ele>
        <time>2021-08-06T08:30:51.302Z</time>
      </trkpt>
      <trkpt lat="46.97191" lon="8.78441">
        <ele>644</ele>
        <time>2021-08-06T08:30:52.303Z</time>
      </trkpt>
      <trkpt lat="46.97191" lon="8.78439">
        <ele>644</ele>
        <time>2021-08-06T08:30:53.303Z</time>
      </trkpt>
      <trkpt lat="46.97191" lon="8.78438">
        <ele>644</ele>
        <time>2021-08-06T08:30:54.303Z</time>
      </trkpt>
      <trkpt lat="46.97192" lon="8.78436">
        <ele>644</ele>
        <time>2021-08-06T08:30:55.303Z</time>
      </trkpt>
      <trkpt lat="46.97192" lon="8.78435">
        <ele>644</ele>
        <time>2021-08-06T08:30:56.303Z</time>
      </trkpt>
      <trkpt lat="46.97192" lon="8.78433">
        <ele>644</ele>
        <time>2021-08-06T08:30:57.302Z</time>
      </trkpt>
      <trkpt lat="46.97192" lon="8.78431">
        <ele>643</ele>
        <time>2021-08-06T08:30:58.302Z</time>
      </trkpt>
      <trkpt lat="46.97193" lon="8.7843">
        <ele>643</ele>
        <time>2021-08-06T08:30:59.302Z</time>
      </trkpt>
      <trkpt lat="46.97193" lon="8.78428">
        <ele>643</ele>
        <time>2021-08-06T08:31:00.302Z</time>
      </trkpt>
      <trkpt lat="46.97193" lon="8.78426">
        <ele>643</ele>
        <time>2021-08-06T08:31:01.302Z</time>
      </trkpt>
      <trkpt lat="46.97195" lon="8.78424">
        <ele>644</ele>
        <time>2021-08-06T08:31:02.303Z</time>
      </trkpt>
      <trkpt lat="46.97195" lon="8.78422">
        <ele>645</ele>
        <time>2021-08-06T08:31:03.302Z</time>
      </trkpt>
      <trkpt lat="46.97196" lon="8.7842">
        <ele>646</ele>
        <time>2021-08-06T08:31:04.303Z</time>
      </trkpt>
      <trkpt lat="46.97196" lon="8.78419">
        <ele>646</ele>
        <time>2021-08-06T08:31:05.302Z</time>
      </trkpt>
      <trkpt lat="46.97197" lon="8.78417">
        <ele>647</ele>
        <time>2021-08-06T08:31:06.302Z</time>
      </trkpt>
      <trkpt lat="46.97197" lon="8.78415">
        <ele>647</ele>
        <time>2021-08-06T08:31:07.303Z</time>
      </trkpt>
      <trkpt lat="46.97197" lon="8.78414">
        <ele>647</ele>
        <time>2021-08-06T08:31:08.302Z</time>
      </trkpt>
      <trkpt lat="46.97198" lon="8.78412">
        <ele>647</ele>
        <time>2021-08-06T08:31:09.302Z</time>
      </trkpt>
      <trkpt lat="46.97198" lon="8.78411">
        <ele>647</ele>
        <time>2021-08-06T08:31:10.302Z</time>
      </trkpt>
      <trkpt lat="46.97199" lon="8.78409">
        <ele>646</ele>
        <time>2021-08-06T08:31:11.302Z</time>
      </trkpt>
      <trkpt lat="46.97199" lon="8.78408">
        <ele>646</ele>
        <time>2021-08-06T08:31:12.302Z</time>
      </trkpt>
      <trkpt lat="46.97199" lon="8.78406">
        <ele>647</ele>
        <time>2021-08-06T08:31:13.302Z</time>
      </trkpt>
      <trkpt lat="46.972" lon="8.78404">
        <ele>647</ele>
        <time>2021-08-06T08:31:14.302Z</time>
      </trkpt>
      <trkpt lat="46.972" lon="8.78402">
        <ele>647</ele>
        <time>2021-08-06T08:31:15.302Z</time>
      </trkpt>
      <trkpt lat="46.97201" lon="8.784">
        <ele>647</ele>
        <time>2021-08-06T08:31:16.302Z</time>
      </trkpt>
      <trkpt lat="46.97201" lon="8.78398">
        <ele>648</ele>
        <time>2021-08-06T08:31:17.302Z</time>
      </trkpt>
      <trkpt lat="46.97202" lon="8.78396">
        <ele>648</ele>
        <time>2021-08-06T08:31:18.302Z</time>
      </trkpt>
      <trkpt lat="46.97203" lon="8.78395">
        <ele>649</ele>
        <time>2021-08-06T08:31:19.302Z</time>
      </trkpt>
      <trkpt lat="46.97203" lon="8.78393">
        <ele>649</ele>
        <time>2021-08-06T08:31:20.302Z</time>
      </trkpt>
      <trkpt lat="46.97203" lon="8.78392">
        <ele>649</ele>
        <time>2021-08-06T08:31:21.302Z</time>
      </trkpt>
      <trkpt lat="46.97203" lon="8.7839">
        <ele>650</ele>
        <time>2021-08-06T08:31:22.302Z</time>
      </trkpt>
      <trkpt lat="46.97203" lon="8.78389">
        <ele>650</ele>
        <time>2021-08-06T08:31:23.303Z</time>
      </trkpt>
      <trkpt lat="46.97203" lon="8.78387">
        <ele>650</ele>
        <time>2021-08-06T08:31:24.302Z</time>
      </trkpt>
      <trkpt lat="46.97203" lon="8.78386">
        <ele>651</ele>
        <time>2021-08-06T08:31:25.303Z</time>
      </trkpt>
      <trkpt lat="46.97204" lon="8.78385">
        <ele>652</ele>
        <time>2021-08-06T08:31:26.303Z</time>
      </trkpt>
      <trkpt lat="46.97204" lon="8.78383">
        <ele>652</ele>
        <time>2021-08-06T08:31:27.303Z</time>
      </trkpt>
      <trkpt lat="46.97205" lon="8.78382">
        <ele>652</ele>
        <time>2021-08-06T08:31:28.303Z</time>
      </trkpt>
      <trkpt lat="46.97206" lon="8.7838">
        <ele>653</ele>
        <time>2021-08-06T08:31:29.303Z</time>
      </trkpt>
      <trkpt lat="46.97208" lon="8.78378">
        <ele>652</ele>
        <time>2021-08-06T08:31:30.303Z</time>
      </trkpt>
      <trkpt lat="46.97209" lon="8.78376">
        <ele>652</ele>
        <time>2021-08-06T08:31:31.303Z</time>
      </trkpt>
      <trkpt lat="46.97209" lon="8.78374">
        <ele>652</ele>
        <time>2021-08-06T08:31:32.303Z</time>
      </trkpt>
      <trkpt lat="46.97209" lon="8.78372">
        <ele>652</ele>
        <time>2021-08-06T08:31:33.302Z</time>
      </trkpt>
      <trkpt lat="46.97209" lon="8.78371">
        <ele>652</ele>
        <time>2021-08-06T08:31:34.302Z</time>
      </trkpt>
      <trkpt lat="46.97209" lon="8.78369">
        <ele>652</ele>
        <time>2021-08-06T08:31:35.303Z</time>
      </trkpt>
      <trkpt lat="46.97209" lon="8.78367">
        <ele>652</ele>
        <time>2021-08-06T08:31:36.303Z</time>
      </trkpt>
      <trkpt lat="46.97209" lon="8.78366">
        <ele>652</ele>
        <time>2021-08-06T08:31:37.303Z</time>
      </trkpt>
      <trkpt lat="46.9721" lon="8.78365">
        <ele>651</ele>
        <time>2021-08-06T08:31:38.303Z</time>
      </trkpt>
      <trkpt lat="46.9721" lon="8.78363">
        <ele>651</ele>
        <time>2021-08-06T08:31:39.303Z</time>
      </trkpt>
      <trkpt lat="46.9721" lon="8.78362">
        <ele>650</ele>
        <time>2021-08-06T08:31:40.302Z</time>
      </trkpt>
      <trkpt lat="46.97209" lon="8.7836">
        <ele>650</ele>
        <time>2021-08-06T08:31:41.302Z</time>
      </trkpt>
      <trkpt lat="46.9721" lon="8.78359">
        <ele>649</ele>
        <time>2021-08-06T08:31:42.302Z</time>
      </trkpt>
      <trkpt lat="46.9721" lon="8.78358">
        <ele>648</ele>
        <time>2021-08-06T08:31:43.302Z</time>
      </trkpt>
      <trkpt lat="46.9721" lon="8.78355">
        <ele>648</ele>
        <time>2021-08-06T08:31:44.303Z</time>
      </trkpt>
      <trkpt lat="46.9721" lon="8.78353">
        <ele>648</ele>
        <time>2021-08-06T08:31:45.302Z</time>
      </trkpt>
      <trkpt lat="46.97209" lon="8.78352">
        <ele>648</ele>
        <time>2021-08-06T08:31:46.303Z</time>
      </trkpt>
      <trkpt lat="46.9721" lon="8.78351">
        <ele>647</ele>
        <time>2021-08-06T08:31:47.303Z</time>
      </trkpt>
      <trkpt lat="46.9721" lon="8.7835">
        <ele>647</ele>
        <time>2021-08-06T08:31:48.303Z</time>
      </trkpt>
      <trkpt lat="46.97211" lon="8.78349">
        <ele>646</ele>
        <time>2021-08-06T08:31:49.303Z</time>
      </trkpt>
      <trkpt lat="46.97211" lon="8.78348">
        <ele>646</ele>
        <time>2021-08-06T08:31:50.302Z</time>
      </trkpt>
      <trkpt lat="46.97212" lon="8.78346">
        <ele>645</ele>
        <time>2021-08-06T08:31:51.302Z</time>
      </trkpt>
      <trkpt lat="46.97212" lon="8.78345">
        <ele>645</ele>
        <time>2021-08-06T08:31:52.303Z</time>
      </trkpt>
      <trkpt lat="46.97212" lon="8.78343">
        <ele>644</ele>
        <time>2021-08-06T08:31:53.303Z</time>
      </trkpt>
      <trkpt lat="46.97212" lon="8.78342">
        <ele>644</ele>
        <time>2021-08-06T08:31:54.302Z</time>
      </trkpt>
      <trkpt lat="46.97212" lon="8.7834">
        <ele>643</ele>
        <time>2021-08-06T08:31:55.303Z</time>
      </trkpt>
      <trkpt lat="46.97212" lon="8.78339">
        <ele>642</ele>
        <time>2021-08-06T08:31:56.303Z</time>
      </trkpt>
      <trkpt lat="46.97212" lon="8.78337">
        <ele>641</ele>
        <time>2021-08-06T08:31:57.303Z</time>
      </trkpt>
      <trkpt lat="46.97213" lon="8.78335">
        <ele>641</ele>
        <time>2021-08-06T08:31:58.302Z</time>
      </trkpt>
      <trkpt lat="46.97213" lon="8.78334">
        <ele>641</ele>
        <time>2021-08-06T08:31:59.302Z</time>
      </trkpt>
      <trkpt lat="46.97213" lon="8.78332">
        <ele>641</ele>
        <time>2021-08-06T08:32:00.302Z</time>
      </trkpt>
      <trkpt lat="46.97213" lon="8.7833">
        <ele>641</ele>
        <time>2021-08-06T08:32:01.302Z</time>
      </trkpt>
      <trkpt lat="46.97213" lon="8.78328">
        <ele>641</ele>
        <time>2021-08-06T08:32:02.303Z</time>
      </trkpt>
      <trkpt lat="46.97213" lon="8.78327">
        <ele>642</ele>
        <time>2021-08-06T08:32:03.302Z</time>
      </trkpt>
      <trkpt lat="46.97214" lon="8.78326">
        <ele>642</ele>
        <time>2021-08-06T08:32:04.303Z</time>
      </trkpt>
      <trkpt lat="46.97214" lon="8.78324">
        <ele>643</ele>
        <time>2021-08-06T08:32:05.303Z</time>
      </trkpt>
      <trkpt lat="46.97214" lon="8.78323">
        <ele>642</ele>
        <time>2021-08-06T08:32:06.302Z</time>
      </trkpt>
      <trkpt lat="46.97215" lon="8.78321">
        <ele>642</ele>
        <time>2021-08-06T08:32:07.303Z</time>
      </trkpt>
      <trkpt lat="46.97215" lon="8.78319">
        <ele>642</ele>
        <time>2021-08-06T08:32:08.303Z</time>
      </trkpt>
      <trkpt lat="46.97215" lon="8.78317">
        <ele>642</ele>
        <time>2021-08-06T08:32:09.302Z</time>
      </trkpt>
      <trkpt lat="46.97216" lon="8.78316">
        <ele>643</ele>
        <time>2021-08-06T08:32:10.302Z</time>
      </trkpt>
      <trkpt lat="46.97216" lon="8.78315">
        <ele>643</ele>
        <time>2021-08-06T08:32:11.302Z</time>
      </trkpt>
      <trkpt lat="46.97216" lon="8.78313">
        <ele>643</ele>
        <time>2021-08-06T08:32:12.303Z</time>
      </trkpt>
      <trkpt lat="46.97216" lon="8.78312">
        <ele>643</ele>
        <time>2021-08-06T08:32:13.303Z</time>
      </trkpt>
      <trkpt lat="46.97216" lon="8.7831">
        <ele>643</ele>
        <time>2021-08-06T08:32:14.303Z</time>
      </trkpt>
      <trkpt lat="46.97216" lon="8.78309">
        <ele>643</ele>
        <time>2021-08-06T08:32:15.302Z</time>
      </trkpt>
      <trkpt lat="46.97216" lon="8.78307">
        <ele>642</ele>
        <time>2021-08-06T08:32:16.302Z</time>
      </trkpt>
      <trkpt lat="46.97216" lon="8.78306">
        <ele>642</ele>
        <time>2021-08-06T08:32:17.303Z</time>
      </trkpt>
      <trkpt lat="46.97217" lon="8.78304">
        <ele>642</ele>
        <time>2021-08-06T08:32:18.303Z</time>
      </trkpt>
      <trkpt lat="46.97217" lon="8.78303">
        <ele>642</ele>
        <time>2021-08-06T08:32:19.302Z</time>
      </trkpt>
      <trkpt lat="46.97217" lon="8.78301">
        <ele>642</ele>
        <time>2021-08-06T08:32:20.303Z</time>
      </trkpt>
      <trkpt lat="46.97217" lon="8.78299">
        <ele>641</ele>
        <time>2021-08-06T08:32:21.303Z</time>
      </trkpt>
      <trkpt lat="46.97217" lon="8.78297">
        <ele>641</ele>
        <time>2021-08-06T08:32:22.303Z</time>
      </trkpt>
      <trkpt lat="46.97218" lon="8.78295">
        <ele>641</ele>
        <time>2021-08-06T08:32:23.303Z</time>
      </trkpt>
      <trkpt lat="46.97218" lon="8.78294">
        <ele>641</ele>
        <time>2021-08-06T08:32:24.303Z</time>
      </trkpt>
      <trkpt lat="46.97218" lon="8.78292">
        <ele>641</ele>
        <time>2021-08-06T08:32:25.302Z</time>
      </trkpt>
      <trkpt lat="46.97218" lon="8.78291">
        <ele>641</ele>
        <time>2021-08-06T08:32:26.302Z</time>
      </trkpt>
      <trkpt lat="46.97219" lon="8.78289">
        <ele>641</ele>
        <time>2021-08-06T08:32:27.303Z</time>
      </trkpt>
      <trkpt lat="46.97219" lon="8.78287">
        <ele>641</ele>
        <time>2021-08-06T08:32:28.302Z</time>
      </trkpt>
      <trkpt lat="46.97219" lon="8.78286">
        <ele>642</ele>
        <time>2021-08-06T08:32:29.302Z</time>
      </trkpt>
      <trkpt lat="46.9722" lon="8.78284">
        <ele>642</ele>
        <time>2021-08-06T08:32:30.302Z</time>
      </trkpt>
      <trkpt lat="46.97221" lon="8.78282">
        <ele>643</ele>
        <time>2021-08-06T08:32:31.302Z</time>
      </trkpt>
      <trkpt lat="46.97221" lon="8.78281">
        <ele>643</ele>
        <time>2021-08-06T08:32:32.303Z</time>
      </trkpt>
      <trkpt lat="46.97222" lon="8.78279">
        <ele>644</ele>
        <time>2021-08-06T08:32:33.302Z</time>
      </trkpt>
      <trkpt lat="46.97222" lon="8.78277">
        <ele>644</ele>
        <time>2021-08-06T08:32:34.302Z</time>
      </trkpt>
      <trkpt lat="46.97222" lon="8.78275">
        <ele>643</ele>
        <time>2021-08-06T08:32:35.302Z</time>
      </trkpt>
      <trkpt lat="46.97223" lon="8.78274">
        <ele>643</ele>
        <time>2021-08-06T08:32:36.303Z</time>
      </trkpt>
      <trkpt lat="46.97223" lon="8.78272">
        <ele>643</ele>
        <time>2021-08-06T08:32:37.303Z</time>
      </trkpt>
      <trkpt lat="46.97224" lon="8.78271">
        <ele>643</ele>
        <time>2021-08-06T08:32:38.303Z</time>
      </trkpt>
      <trkpt lat="46.97224" lon="8.78269">
        <ele>644</ele>
        <time>2021-08-06T08:32:39.303Z</time>
      </trkpt>
      <trkpt lat="46.97225" lon="8.78267">
        <ele>644</ele>
        <time>2021-08-06T08:32:40.302Z</time>
      </trkpt>
      <trkpt lat="46.97226" lon="8.78266">
        <ele>645</ele>
        <time>2021-08-06T08:32:41.302Z</time>
      </trkpt>
      <trkpt lat="46.97226" lon="8.78264">
        <ele>645</ele>
        <time>2021-08-06T08:32:42.302Z</time>
      </trkpt>
      <trkpt lat="46.97227" lon="8.78263">
        <ele>645</ele>
        <time>2021-08-06T08:32:43.302Z</time>
      </trkpt>
      <trkpt lat="46.97227" lon="8.7826">
        <ele>645</ele>
        <time>2021-08-06T08:32:44.302Z</time>
      </trkpt>
      <trkpt lat="46.97228" lon="8.78258">
        <ele>645</ele>
        <time>2021-08-06T08:32:45.302Z</time>
      </trkpt>
      <trkpt lat="46.97228" lon="8.78257">
        <ele>645</ele>
        <time>2021-08-06T08:32:46.303Z</time>
      </trkpt>
      <trkpt lat="46.97228" lon="8.78255">
        <ele>645</ele>
        <time>2021-08-06T08:32:47.302Z</time>
      </trkpt>
      <trkpt lat="46.97228" lon="8.78254">
        <ele>645</ele>
        <time>2021-08-06T08:32:48.303Z</time>
      </trkpt>
      <trkpt lat="46.97228" lon="8.78252">
        <ele>644</ele>
        <time>2021-08-06T08:32:49.302Z</time>
      </trkpt>
      <trkpt lat="46.97229" lon="8.7825">
        <ele>644</ele>
        <time>2021-08-06T08:32:50.302Z</time>
      </trkpt>
      <trkpt lat="46.97229" lon="8.78249">
        <ele>644</ele>
        <time>2021-08-06T08:32:51.302Z</time>
      </trkpt>
      <trkpt lat="46.97229" lon="8.78247">
        <ele>644</ele>
        <time>2021-08-06T08:32:52.303Z</time>
      </trkpt>
      <trkpt lat="46.9723" lon="8.78245">
        <ele>644</ele>
        <time>2021-08-06T08:32:53.302Z</time>
      </trkpt>
      <trkpt lat="46.9723" lon="8.78243">
        <ele>644</ele>
        <time>2021-08-06T08:32:54.302Z</time>
      </trkpt>
      <trkpt lat="46.97231" lon="8.78242">
        <ele>644</ele>
        <time>2021-08-06T08:32:55.302Z</time>
      </trkpt>
      <trkpt lat="46.97231" lon="8.78241">
        <ele>644</ele>
        <time>2021-08-06T08:32:56.303Z</time>
      </trkpt>
      <trkpt lat="46.97232" lon="8.78238">
        <ele>644</ele>
        <time>2021-08-06T08:32:57.303Z</time>
      </trkpt>
      <trkpt lat="46.97232" lon="8.78237">
        <ele>644</ele>
        <time>2021-08-06T08:32:58.302Z</time>
      </trkpt>
      <trkpt lat="46.97233" lon="8.78235">
        <ele>645</ele>
        <time>2021-08-06T08:32:59.302Z</time>
      </trkpt>
      <trkpt lat="46.97233" lon="8.78234">
        <ele>645</ele>
        <time>2021-08-06T08:33:00.302Z</time>
      </trkpt>
      <trkpt lat="46.97234" lon="8.78232">
        <ele>645</ele>
        <time>2021-08-06T08:33:01.302Z</time>
      </trkpt>
      <trkpt lat="46.97234" lon="8.7823">
        <ele>645</ele>
        <time>2021-08-06T08:33:02.302Z</time>
      </trkpt>
      <trkpt lat="46.97234" lon="8.78229">
        <ele>645</ele>
        <time>2021-08-06T08:33:03.302Z</time>
      </trkpt>
      <trkpt lat="46.97235" lon="8.78227">
        <ele>645</ele>
        <time>2021-08-06T08:33:04.302Z</time>
      </trkpt>
      <trkpt lat="46.97235" lon="8.78226">
        <ele>644</ele>
        <time>2021-08-06T08:33:05.302Z</time>
      </trkpt>
      <trkpt lat="46.97236" lon="8.78224">
        <ele>645</ele>
        <time>2021-08-06T08:33:06.302Z</time>
      </trkpt>
      <trkpt lat="46.97236" lon="8.78223">
        <ele>645</ele>
        <time>2021-08-06T08:33:07.302Z</time>
      </trkpt>
      <trkpt lat="46.97237" lon="8.78221">
        <ele>645</ele>
        <time>2021-08-06T08:33:08.302Z</time>
      </trkpt>
      <trkpt lat="46.97237" lon="8.7822">
        <ele>645</ele>
        <time>2021-08-06T08:33:09.302Z</time>
      </trkpt>
      <trkpt lat="46.97237" lon="8.78218">
        <ele>645</ele>
        <time>2021-08-06T08:33:10.302Z</time>
      </trkpt>
      <trkpt lat="46.97237" lon="8.78217">
        <ele>645</ele>
        <time>2021-08-06T08:33:11.302Z</time>
      </trkpt>
      <trkpt lat="46.97238" lon="8.78215">
        <ele>645</ele>
        <time>2021-08-06T08:33:12.302Z</time>
      </trkpt>
      <trkpt lat="46.97238" lon="8.78213">
        <ele>645</ele>
        <time>2021-08-06T08:33:13.302Z</time>
      </trkpt>
      <trkpt lat="46.97239" lon="8.78212">
        <ele>645</ele>
        <time>2021-08-06T08:33:14.303Z</time>
      </trkpt>
      <trkpt lat="46.97239" lon="8.78211">
        <ele>645</ele>
        <time>2021-08-06T08:33:15.302Z</time>
      </trkpt>
      <trkpt lat="46.9724" lon="8.78209">
        <ele>645</ele>
        <time>2021-08-06T08:33:16.303Z</time>
      </trkpt>
      <trkpt lat="46.9724" lon="8.78208">
        <ele>645</ele>
        <time>2021-08-06T08:33:17.303Z</time>
      </trkpt>
      <trkpt lat="46.97241" lon="8.78206">
        <ele>645</ele>
        <time>2021-08-06T08:33:18.302Z</time>
      </trkpt>
      <trkpt lat="46.97241" lon="8.78204">
        <ele>646</ele>
        <time>2021-08-06T08:33:19.302Z</time>
      </trkpt>
      <trkpt lat="46.97242" lon="8.78203">
        <ele>646</ele>
        <time>2021-08-06T08:33:20.303Z</time>
      </trkpt>
      <trkpt lat="46.97243" lon="8.78201">
        <ele>646</ele>
        <time>2021-08-06T08:33:21.303Z</time>
      </trkpt>
      <trkpt lat="46.97243" lon="8.782">
        <ele>646</ele>
        <time>2021-08-06T08:33:22.302Z</time>
      </trkpt>
      <trkpt lat="46.97244" lon="8.78199">
        <ele>647</ele>
        <time>2021-08-06T08:33:23.303Z</time>
      </trkpt>
      <trkpt lat="46.97245" lon="8.78197">
        <ele>647</ele>
        <time>2021-08-06T08:33:24.303Z</time>
      </trkpt>
      <trkpt lat="46.97245" lon="8.78195">
        <ele>647</ele>
        <time>2021-08-06T08:33:25.303Z</time>
      </trkpt>
      <trkpt lat="46.97245" lon="8.78193">
        <ele>648</ele>
        <time>2021-08-06T08:33:26.302Z</time>
      </trkpt>
      <trkpt lat="46.97245" lon="8.78191">
        <ele>648</ele>
        <time>2021-08-06T08:33:27.303Z</time>
      </trkpt>
      <trkpt lat="46.97245" lon="8.78189">
        <ele>648</ele>
        <time>2021-08-06T08:33:28.302Z</time>
      </trkpt>
      <trkpt lat="46.97245" lon="8.78188">
        <ele>648</ele>
        <time>2021-08-06T08:33:29.303Z</time>
      </trkpt>
      <trkpt lat="46.97245" lon="8.78186">
        <ele>647</ele>
        <time>2021-08-06T08:33:30.302Z</time>
      </trkpt>
      <trkpt lat="46.97244" lon="8.78184">
        <ele>646</ele>
        <time>2021-08-06T08:33:31.303Z</time>
      </trkpt>
      <trkpt lat="46.97243" lon="8.78183">
        <ele>646</ele>
        <time>2021-08-06T08:33:32.303Z</time>
      </trkpt>
      <trkpt lat="46.97243" lon="8.78183">
        <ele>645</ele>
        <time>2021-08-06T08:33:33.302Z</time>
      </trkpt>
      <trkpt lat="46.97243" lon="8.78183">
        <ele>645</ele>
        <time>2021-08-06T08:33:34.302Z</time>
      </trkpt>
      <trkpt lat="46.97242" lon="8.78182">
        <ele>643</ele>
        <time>2021-08-06T08:33:35.303Z</time>
      </trkpt>
      <trkpt lat="46.97242" lon="8.78182">
        <ele>642</ele>
        <time>2021-08-06T08:33:36.303Z</time>
      </trkpt>
      <trkpt lat="46.97242" lon="8.78182">
        <ele>641</ele>
        <time>2021-08-06T08:33:37.303Z</time>
      </trkpt>
      <trkpt lat="46.97241" lon="8.78182">
        <ele>641</ele>
        <time>2021-08-06T08:33:38.303Z</time>
      </trkpt>
      <trkpt lat="46.97241" lon="8.78182">
        <ele>639</ele>
        <time>2021-08-06T08:33:39.304Z</time>
      </trkpt>
      <trkpt lat="46.97241" lon="8.78182">
        <ele>639</ele>
        <time>2021-08-06T08:33:40.303Z</time>
      </trkpt>
      <trkpt lat="46.97239" lon="8.78179">
        <ele>637</ele>
        <time>2021-08-06T08:33:41.304Z</time>
      </trkpt>
      <trkpt lat="46.97239" lon="8.78178">
        <ele>638</ele>
        <time>2021-08-06T08:33:42.304Z</time>
      </trkpt>
      <trkpt lat="46.97239" lon="8.78178">
        <ele>639</ele>
        <time>2021-08-06T08:33:43.303Z</time>
      </trkpt>
      <trkpt lat="46.97242" lon="8.78177">
        <ele>649</ele>
        <time>2021-08-06T08:33:44.303Z</time>
      </trkpt>
      <trkpt lat="46.97242" lon="8.78176">
        <ele>649</ele>
        <time>2021-08-06T08:33:45.303Z</time>
      </trkpt>
      <trkpt lat="46.97243" lon="8.78175">
        <ele>649</ele>
        <time>2021-08-06T08:33:46.304Z</time>
      </trkpt>
      <trkpt lat="46.97244" lon="8.78174">
        <ele>649</ele>
        <time>2021-08-06T08:33:47.303Z</time>
      </trkpt>
      <trkpt lat="46.97244" lon="8.78173">
        <ele>648</ele>
        <time>2021-08-06T08:33:48.303Z</time>
      </trkpt>
      <trkpt lat="46.97245" lon="8.78172">
        <ele>648</ele>
        <time>2021-08-06T08:33:49.304Z</time>
      </trkpt>
      <trkpt lat="46.97247" lon="8.78171">
        <ele>647</ele>
        <time>2021-08-06T08:33:50.304Z</time>
      </trkpt>
      <trkpt lat="46.97247" lon="8.78169">
        <ele>647</ele>
        <time>2021-08-06T08:33:51.303Z</time>
      </trkpt>
      <trkpt lat="46.97248" lon="8.78167">
        <ele>647</ele>
        <time>2021-08-06T08:33:52.303Z</time>
      </trkpt>
      <trkpt lat="46.97248" lon="8.78165">
        <ele>647</ele>
        <time>2021-08-06T08:33:53.303Z</time>
      </trkpt>
      <trkpt lat="46.97249" lon="8.78163">
        <ele>647</ele>
        <time>2021-08-06T08:33:54.303Z</time>
      </trkpt>
      <trkpt lat="46.97249" lon="8.78162">
        <ele>646</ele>
        <time>2021-08-06T08:33:55.303Z</time>
      </trkpt>
      <trkpt lat="46.9725" lon="8.7816">
        <ele>646</ele>
        <time>2021-08-06T08:33:56.303Z</time>
      </trkpt>
      <trkpt lat="46.9725" lon="8.78159">
        <ele>646</ele>
        <time>2021-08-06T08:33:57.303Z</time>
      </trkpt>
      <trkpt lat="46.9725" lon="8.78157">
        <ele>646</ele>
        <time>2021-08-06T08:33:58.303Z</time>
      </trkpt>
      <trkpt lat="46.97251" lon="8.78155">
        <ele>646</ele>
        <time>2021-08-06T08:33:59.303Z</time>
      </trkpt>
      <trkpt lat="46.97251" lon="8.78154">
        <ele>646</ele>
        <time>2021-08-06T08:34:00.303Z</time>
      </trkpt>
      <trkpt lat="46.97252" lon="8.78152">
        <ele>646</ele>
        <time>2021-08-06T08:34:01.304Z</time>
      </trkpt>
      <trkpt lat="46.97252" lon="8.78151">
        <ele>646</ele>
        <time>2021-08-06T08:34:02.303Z</time>
      </trkpt>
      <trkpt lat="46.97253" lon="8.78149">
        <ele>646</ele>
        <time>2021-08-06T08:34:03.303Z</time>
      </trkpt>
      <trkpt lat="46.97254" lon="8.78147">
        <ele>646</ele>
        <time>2021-08-06T08:34:04.303Z</time>
      </trkpt>
      <trkpt lat="46.97254" lon="8.78146">
        <ele>646</ele>
        <time>2021-08-06T08:34:05.304Z</time>
      </trkpt>
      <trkpt lat="46.97254" lon="8.78145">
        <ele>645</ele>
        <time>2021-08-06T08:34:06.303Z</time>
      </trkpt>
      <trkpt lat="46.97255" lon="8.78144">
        <ele>645</ele>
        <time>2021-08-06T08:34:07.303Z</time>
      </trkpt>
      <trkpt lat="46.97255" lon="8.78142">
        <ele>645</ele>
        <time>2021-08-06T08:34:08.303Z</time>
      </trkpt>
      <trkpt lat="46.97256" lon="8.7814">
        <ele>644</ele>
        <time>2021-08-06T08:34:09.303Z</time>
      </trkpt>
      <trkpt lat="46.97256" lon="8.78139">
        <ele>644</ele>
        <time>2021-08-06T08:34:10.303Z</time>
      </trkpt>
      <trkpt lat="46.97257" lon="8.78137">
        <ele>644</ele>
        <time>2021-08-06T08:34:11.303Z</time>
      </trkpt>
      <trkpt lat="46.97257" lon="8.78136">
        <ele>644</ele>
        <time>2021-08-06T08:34:12.304Z</time>
      </trkpt>
      <trkpt lat="46.97257" lon="8.78134">
        <ele>644</ele>
        <time>2021-08-06T08:34:13.304Z</time>
      </trkpt>
      <trkpt lat="46.97258" lon="8.78133">
        <ele>644</ele>
        <time>2021-08-06T08:34:14.304Z</time>
      </trkpt>
      <trkpt lat="46.97258" lon="8.78131">
        <ele>644</ele>
        <time>2021-08-06T08:34:15.304Z</time>
      </trkpt>
      <trkpt lat="46.97259" lon="8.78129">
        <ele>644</ele>
        <time>2021-08-06T08:34:16.304Z</time>
      </trkpt>
      <trkpt lat="46.97259" lon="8.78128">
        <ele>644</ele>
        <time>2021-08-06T08:34:17.303Z</time>
      </trkpt>
      <trkpt lat="46.97259" lon="8.78126">
        <ele>644</ele>
        <time>2021-08-06T08:34:18.303Z</time>
      </trkpt>
      <trkpt lat="46.9726" lon="8.78124">
        <ele>643</ele>
        <time>2021-08-06T08:34:19.304Z</time>
      </trkpt>
      <trkpt lat="46.9726" lon="8.78123">
        <ele>643</ele>
        <time>2021-08-06T08:34:20.304Z</time>
      </trkpt>
      <trkpt lat="46.9726" lon="8.78121">
        <ele>643</ele>
        <time>2021-08-06T08:34:21.303Z</time>
      </trkpt>
      <trkpt lat="46.97261" lon="8.7812">
        <ele>643</ele>
        <time>2021-08-06T08:34:22.303Z</time>
      </trkpt>
      <trkpt lat="46.9726" lon="8.78118">
        <ele>643</ele>
        <time>2021-08-06T08:34:23.304Z</time>
      </trkpt>
      <trkpt lat="46.9726" lon="8.78116">
        <ele>643</ele>
        <time>2021-08-06T08:34:24.304Z</time>
      </trkpt>
      <trkpt lat="46.97259" lon="8.78115">
        <ele>643</ele>
        <time>2021-08-06T08:34:25.304Z</time>
      </trkpt>
      <trkpt lat="46.97258" lon="8.78113">
        <ele>643</ele>
        <time>2021-08-06T08:34:26.304Z</time>
      </trkpt>
      <trkpt lat="46.97257" lon="8.78112">
        <ele>643</ele>
        <time>2021-08-06T08:34:27.304Z</time>
      </trkpt>
      <trkpt lat="46.97256" lon="8.7811">
        <ele>643</ele>
        <time>2021-08-06T08:34:28.304Z</time>
      </trkpt>
      <trkpt lat="46.97256" lon="8.78108">
        <ele>643</ele>
        <time>2021-08-06T08:34:29.303Z</time>
      </trkpt>
      <trkpt lat="46.97256" lon="8.78108">
        <ele>643</ele>
        <time>2021-08-06T08:34:30.304Z</time>
      </trkpt>
      <trkpt lat="46.97256" lon="8.78107">
        <ele>644</ele>
        <time>2021-08-06T08:34:31.304Z</time>
      </trkpt>
      <trkpt lat="46.97257" lon="8.78106">
        <ele>644</ele>
        <time>2021-08-06T08:34:32.304Z</time>
      </trkpt>
      <trkpt lat="46.97258" lon="8.78106">
        <ele>644</ele>
        <time>2021-08-06T08:34:33.304Z</time>
      </trkpt>
      <trkpt lat="46.97258" lon="8.78105">
        <ele>644</ele>
        <time>2021-08-06T08:34:34.304Z</time>
      </trkpt>
      <trkpt lat="46.97259" lon="8.78104">
        <ele>645</ele>
        <time>2021-08-06T08:34:35.303Z</time>
      </trkpt>
      <trkpt lat="46.9726" lon="8.78103">
        <ele>645</ele>
        <time>2021-08-06T08:34:36.304Z</time>
      </trkpt>
      <trkpt lat="46.97261" lon="8.78102">
        <ele>645</ele>
        <time>2021-08-06T08:34:37.304Z</time>
      </trkpt>
      <trkpt lat="46.97262" lon="8.78101">
        <ele>646</ele>
        <time>2021-08-06T08:34:38.303Z</time>
      </trkpt>
      <trkpt lat="46.97263" lon="8.78099">
        <ele>646</ele>
        <time>2021-08-06T08:34:39.304Z</time>
      </trkpt>
      <trkpt lat="46.97264" lon="8.78098">
        <ele>647</ele>
        <time>2021-08-06T08:34:40.303Z</time>
      </trkpt>
      <trkpt lat="46.97264" lon="8.78097">
        <ele>647</ele>
        <time>2021-08-06T08:34:41.303Z</time>
      </trkpt>
      <trkpt lat="46.97265" lon="8.78095">
        <ele>646</ele>
        <time>2021-08-06T08:34:42.303Z</time>
      </trkpt>
      <trkpt lat="46.97265" lon="8.78093">
        <ele>646</ele>
        <time>2021-08-06T08:34:43.304Z</time>
      </trkpt>
      <trkpt lat="46.97266" lon="8.78091">
        <ele>645</ele>
        <time>2021-08-06T08:34:44.303Z</time>
      </trkpt>
      <trkpt lat="46.97267" lon="8.7809">
        <ele>644</ele>
        <time>2021-08-06T08:34:45.304Z</time>
      </trkpt>
      <trkpt lat="46.97267" lon="8.78088">
        <ele>644</ele>
        <time>2021-08-06T08:34:46.303Z</time>
      </trkpt>
      <trkpt lat="46.97268" lon="8.78087">
        <ele>644</ele>
        <time>2021-08-06T08:34:47.303Z</time>
      </trkpt>
      <trkpt lat="46.97268" lon="8.78084">
        <ele>643</ele>
        <time>2021-08-06T08:34:48.303Z</time>
      </trkpt>
      <trkpt lat="46.97268" lon="8.78083">
        <ele>643</ele>
        <time>2021-08-06T08:34:49.303Z</time>
      </trkpt>
      <trkpt lat="46.97268" lon="8.78081">
        <ele>642</ele>
        <time>2021-08-06T08:34:50.304Z</time>
      </trkpt>
      <trkpt lat="46.97268" lon="8.78079">
        <ele>642</ele>
        <time>2021-08-06T08:34:51.304Z</time>
      </trkpt>
      <trkpt lat="46.97269" lon="8.78077">
        <ele>642</ele>
        <time>2021-08-06T08:34:52.304Z</time>
      </trkpt>
      <trkpt lat="46.97269" lon="8.78076">
        <ele>642</ele>
        <time>2021-08-06T08:34:53.304Z</time>
      </trkpt>
      <trkpt lat="46.9727" lon="8.78074">
        <ele>641</ele>
        <time>2021-08-06T08:34:54.304Z</time>
      </trkpt>
      <trkpt lat="46.9727" lon="8.78072">
        <ele>641</ele>
        <time>2021-08-06T08:34:55.303Z</time>
      </trkpt>
      <trkpt lat="46.97271" lon="8.78071">
        <ele>641</ele>
        <time>2021-08-06T08:34:56.303Z</time>
      </trkpt>
      <trkpt lat="46.97271" lon="8.78069">
        <ele>641</ele>
        <time>2021-08-06T08:34:57.304Z</time>
      </trkpt>
      <trkpt lat="46.97271" lon="8.78068">
        <ele>641</ele>
        <time>2021-08-06T08:34:58.303Z</time>
      </trkpt>
      <trkpt lat="46.97272" lon="8.78066">
        <ele>641</ele>
        <time>2021-08-06T08:34:59.304Z</time>
      </trkpt>
      <trkpt lat="46.97272" lon="8.78064">
        <ele>641</ele>
        <time>2021-08-06T08:35:00.303Z</time>
      </trkpt>
      <trkpt lat="46.97272" lon="8.78063">
        <ele>641</ele>
        <time>2021-08-06T08:35:01.304Z</time>
      </trkpt>
      <trkpt lat="46.97273" lon="8.78061">
        <ele>641</ele>
        <time>2021-08-06T08:35:02.304Z</time>
      </trkpt>
      <trkpt lat="46.97273" lon="8.78059">
        <ele>642</ele>
        <time>2021-08-06T08:35:03.303Z</time>
      </trkpt>
      <trkpt lat="46.97274" lon="8.78058">
        <ele>643</ele>
        <time>2021-08-06T08:35:04.304Z</time>
      </trkpt>
      <trkpt lat="46.97275" lon="8.78056">
        <ele>643</ele>
        <time>2021-08-06T08:35:05.304Z</time>
      </trkpt>
      <trkpt lat="46.97275" lon="8.78055">
        <ele>643</ele>
        <time>2021-08-06T08:35:06.303Z</time>
      </trkpt>
      <trkpt lat="46.97276" lon="8.78053">
        <ele>644</ele>
        <time>2021-08-06T08:35:07.304Z</time>
      </trkpt>
      <trkpt lat="46.97276" lon="8.78051">
        <ele>644</ele>
        <time>2021-08-06T08:35:08.303Z</time>
      </trkpt>
      <trkpt lat="46.97277" lon="8.78049">
        <ele>644</ele>
        <time>2021-08-06T08:35:09.303Z</time>
      </trkpt>
      <trkpt lat="46.97277" lon="8.78048">
        <ele>644</ele>
        <time>2021-08-06T08:35:10.303Z</time>
      </trkpt>
      <trkpt lat="46.97277" lon="8.78046">
        <ele>643</ele>
        <time>2021-08-06T08:35:11.304Z</time>
      </trkpt>
      <trkpt lat="46.97277" lon="8.78045">
        <ele>643</ele>
        <time>2021-08-06T08:35:12.303Z</time>
      </trkpt>
      <trkpt lat="46.97278" lon="8.78043">
        <ele>643</ele>
        <time>2021-08-06T08:35:13.303Z</time>
      </trkpt>
      <trkpt lat="46.97278" lon="8.78041">
        <ele>643</ele>
        <time>2021-08-06T08:35:14.304Z</time>
      </trkpt>
      <trkpt lat="46.97278" lon="8.7804">
        <ele>642</ele>
        <time>2021-08-06T08:35:15.304Z</time>
      </trkpt>
      <trkpt lat="46.97278" lon="8.78037">
        <ele>642</ele>
        <time>2021-08-06T08:35:16.304Z</time>
      </trkpt>
      <trkpt lat="46.97278" lon="8.78036">
        <ele>642</ele>
        <time>2021-08-06T08:35:17.304Z</time>
      </trkpt>
      <trkpt lat="46.97278" lon="8.78034">
        <ele>642</ele>
        <time>2021-08-06T08:35:18.304Z</time>
      </trkpt>
      <trkpt lat="46.97279" lon="8.78033">
        <ele>641</ele>
        <time>2021-08-06T08:35:19.304Z</time>
      </trkpt>
      <trkpt lat="46.97279" lon="8.78032">
        <ele>641</ele>
        <time>2021-08-06T08:35:20.304Z</time>
      </trkpt>
      <trkpt lat="46.9728" lon="8.7803">
        <ele>641</ele>
        <time>2021-08-06T08:35:21.303Z</time>
      </trkpt>
      <trkpt lat="46.97281" lon="8.78028">
        <ele>641</ele>
        <time>2021-08-06T08:35:22.304Z</time>
      </trkpt>
      <trkpt lat="46.97281" lon="8.78027">
        <ele>641</ele>
        <time>2021-08-06T08:35:23.303Z</time>
      </trkpt>
      <trkpt lat="46.97282" lon="8.78026">
        <ele>641</ele>
        <time>2021-08-06T08:35:24.303Z</time>
      </trkpt>
      <trkpt lat="46.97283" lon="8.78024">
        <ele>641</ele>
        <time>2021-08-06T08:35:25.303Z</time>
      </trkpt>
      <trkpt lat="46.97283" lon="8.78023">
        <ele>642</ele>
        <time>2021-08-06T08:35:26.303Z</time>
      </trkpt>
      <trkpt lat="46.97283" lon="8.78021">
        <ele>642</ele>
        <time>2021-08-06T08:35:27.304Z</time>
      </trkpt>
      <trkpt lat="46.97284" lon="8.78019">
        <ele>642</ele>
        <time>2021-08-06T08:35:28.304Z</time>
      </trkpt>
      <trkpt lat="46.97284" lon="8.78017">
        <ele>642</ele>
        <time>2021-08-06T08:35:29.303Z</time>
      </trkpt>
      <trkpt lat="46.97285" lon="8.78015">
        <ele>642</ele>
        <time>2021-08-06T08:35:30.303Z</time>
      </trkpt>
      <trkpt lat="46.97285" lon="8.78014">
        <ele>643</ele>
        <time>2021-08-06T08:35:31.304Z</time>
      </trkpt>
      <trkpt lat="46.97286" lon="8.78012">
        <ele>643</ele>
        <time>2021-08-06T08:35:32.303Z</time>
      </trkpt>
      <trkpt lat="46.97286" lon="8.78011">
        <ele>642</ele>
        <time>2021-08-06T08:35:33.304Z</time>
      </trkpt>
      <trkpt lat="46.97286" lon="8.78009">
        <ele>642</ele>
        <time>2021-08-06T08:35:34.304Z</time>
      </trkpt>
      <trkpt lat="46.97286" lon="8.78008">
        <ele>642</ele>
        <time>2021-08-06T08:35:35.304Z</time>
      </trkpt>
      <trkpt lat="46.97286" lon="8.78006">
        <ele>641</ele>
        <time>2021-08-06T08:35:36.304Z</time>
      </trkpt>
      <trkpt lat="46.97287" lon="8.78004">
        <ele>641</ele>
        <time>2021-08-06T08:35:37.303Z</time>
      </trkpt>
      <trkpt lat="46.97287" lon="8.78003">
        <ele>641</ele>
        <time>2021-08-06T08:35:38.303Z</time>
      </trkpt>
      <trkpt lat="46.97288" lon="8.78001">
        <ele>641</ele>
        <time>2021-08-06T08:35:39.304Z</time>
      </trkpt>
      <trkpt lat="46.97288" lon="8.78">
        <ele>641</ele>
        <time>2021-08-06T08:35:40.303Z</time>
      </trkpt>
      <trkpt lat="46.97289" lon="8.77998">
        <ele>641</ele>
        <time>2021-08-06T08:35:41.304Z</time>
      </trkpt>
      <trkpt lat="46.97289" lon="8.77996">
        <ele>640</ele>
        <time>2021-08-06T08:35:42.304Z</time>
      </trkpt>
      <trkpt lat="46.97289" lon="8.77994">
        <ele>640</ele>
        <time>2021-08-06T08:35:43.303Z</time>
      </trkpt>
      <trkpt lat="46.9729" lon="8.77992">
        <ele>640</ele>
        <time>2021-08-06T08:35:44.304Z</time>
      </trkpt>
      <trkpt lat="46.9729" lon="8.77991">
        <ele>640</ele>
        <time>2021-08-06T08:35:45.304Z</time>
      </trkpt>
      <trkpt lat="46.9729" lon="8.77989">
        <ele>640</ele>
        <time>2021-08-06T08:35:46.304Z</time>
      </trkpt>
      <trkpt lat="46.97291" lon="8.77988">
        <ele>640</ele>
        <time>2021-08-06T08:35:47.304Z</time>
      </trkpt>
      <trkpt lat="46.97291" lon="8.77986">
        <ele>639</ele>
        <time>2021-08-06T08:35:48.304Z</time>
      </trkpt>
      <trkpt lat="46.97292" lon="8.77984">
        <ele>639</ele>
        <time>2021-08-06T08:35:49.304Z</time>
      </trkpt>
      <trkpt lat="46.97292" lon="8.77983">
        <ele>639</ele>
        <time>2021-08-06T08:35:50.304Z</time>
      </trkpt>
      <trkpt lat="46.97292" lon="8.77981">
        <ele>640</ele>
        <time>2021-08-06T08:35:51.303Z</time>
      </trkpt>
      <trkpt lat="46.97293" lon="8.7798">
        <ele>640</ele>
        <time>2021-08-06T08:35:52.303Z</time>
      </trkpt>
      <trkpt lat="46.97293" lon="8.77978">
        <ele>639</ele>
        <time>2021-08-06T08:35:53.303Z</time>
      </trkpt>
      <trkpt lat="46.97293" lon="8.77976">
        <ele>639</ele>
        <time>2021-08-06T08:35:54.303Z</time>
      </trkpt>
      <trkpt lat="46.97293" lon="8.77975">
        <ele>638</ele>
        <time>2021-08-06T08:35:55.304Z</time>
      </trkpt>
      <trkpt lat="46.97294" lon="8.77973">
        <ele>638</ele>
        <time>2021-08-06T08:35:56.303Z</time>
      </trkpt>
      <trkpt lat="46.97294" lon="8.77971">
        <ele>638</ele>
        <time>2021-08-06T08:35:57.304Z</time>
      </trkpt>
      <trkpt lat="46.97295" lon="8.7797">
        <ele>638</ele>
        <time>2021-08-06T08:35:58.303Z</time>
      </trkpt>
      <trkpt lat="46.97295" lon="8.77968">
        <ele>638</ele>
        <time>2021-08-06T08:35:59.304Z</time>
      </trkpt>
      <trkpt lat="46.97296" lon="8.77966">
        <ele>638</ele>
        <time>2021-08-06T08:36:00.304Z</time>
      </trkpt>
      <trkpt lat="46.97296" lon="8.77965">
        <ele>638</ele>
        <time>2021-08-06T08:36:01.303Z</time>
      </trkpt>
      <trkpt lat="46.97296" lon="8.77963">
        <ele>638</ele>
        <time>2021-08-06T08:36:02.304Z</time>
      </trkpt>
      <trkpt lat="46.97297" lon="8.77962">
        <ele>638</ele>
        <time>2021-08-06T08:36:03.303Z</time>
      </trkpt>
      <trkpt lat="46.97298" lon="8.7796">
        <ele>638</ele>
        <time>2021-08-06T08:36:04.303Z</time>
      </trkpt>
      <trkpt lat="46.97298" lon="8.77959">
        <ele>639</ele>
        <time>2021-08-06T08:36:05.303Z</time>
      </trkpt>
      <trkpt lat="46.97299" lon="8.77957">
        <ele>639</ele>
        <time>2021-08-06T08:36:06.303Z</time>
      </trkpt>
      <trkpt lat="46.97299" lon="8.77955">
        <ele>639</ele>
        <time>2021-08-06T08:36:07.304Z</time>
      </trkpt>
      <trkpt lat="46.973" lon="8.77954">
        <ele>639</ele>
        <time>2021-08-06T08:36:08.303Z</time>
      </trkpt>
      <trkpt lat="46.97301" lon="8.77952">
        <ele>639</ele>
        <time>2021-08-06T08:36:09.304Z</time>
      </trkpt>
      <trkpt lat="46.97301" lon="8.77951">
        <ele>639</ele>
        <time>2021-08-06T08:36:10.304Z</time>
      </trkpt>
      <trkpt lat="46.97302" lon="8.77949">
        <ele>639</ele>
        <time>2021-08-06T08:36:11.303Z</time>
      </trkpt>
      <trkpt lat="46.97303" lon="8.77947">
        <ele>639</ele>
        <time>2021-08-06T08:36:12.304Z</time>
      </trkpt>
      <trkpt lat="46.97304" lon="8.77946">
        <ele>639</ele>
        <time>2021-08-06T08:36:13.304Z</time>
      </trkpt>
      <trkpt lat="46.97304" lon="8.77944">
        <ele>639</ele>
        <time>2021-08-06T08:36:14.304Z</time>
      </trkpt>
      <trkpt lat="46.97305" lon="8.77942">
        <ele>639</ele>
        <time>2021-08-06T08:36:15.303Z</time>
      </trkpt>
      <trkpt lat="46.97307" lon="8.7794">
        <ele>639</ele>
        <time>2021-08-06T08:36:16.304Z</time>
      </trkpt>
      <trkpt lat="46.97307" lon="8.77939">
        <ele>639</ele>
        <time>2021-08-06T08:36:17.304Z</time>
      </trkpt>
      <trkpt lat="46.97308" lon="8.77937">
        <ele>639</ele>
        <time>2021-08-06T08:36:18.303Z</time>
      </trkpt>
      <trkpt lat="46.97309" lon="8.77936">
        <ele>640</ele>
        <time>2021-08-06T08:36:19.304Z</time>
      </trkpt>
      <trkpt lat="46.97309" lon="8.77934">
        <ele>640</ele>
        <time>2021-08-06T08:36:20.304Z</time>
      </trkpt>
      <trkpt lat="46.9731" lon="8.77933">
        <ele>640</ele>
        <time>2021-08-06T08:36:21.303Z</time>
      </trkpt>
      <trkpt lat="46.9731" lon="8.77931">
        <ele>641</ele>
        <time>2021-08-06T08:36:22.304Z</time>
      </trkpt>
      <trkpt lat="46.97311" lon="8.7793">
        <ele>641</ele>
        <time>2021-08-06T08:36:23.304Z</time>
      </trkpt>
      <trkpt lat="46.97311" lon="8.77929">
        <ele>641</ele>
        <time>2021-08-06T08:36:24.303Z</time>
      </trkpt>
      <trkpt lat="46.97311" lon="8.77927">
        <ele>641</ele>
        <time>2021-08-06T08:36:25.304Z</time>
      </trkpt>
      <trkpt lat="46.97311" lon="8.77925">
        <ele>641</ele>
        <time>2021-08-06T08:36:26.304Z</time>
      </trkpt>
      <trkpt lat="46.97311" lon="8.77923">
        <ele>642</ele>
        <time>2021-08-06T08:36:27.303Z</time>
      </trkpt>
      <trkpt lat="46.97312" lon="8.77922">
        <ele>642</ele>
        <time>2021-08-06T08:36:28.303Z</time>
      </trkpt>
      <trkpt lat="46.97313" lon="8.77921">
        <ele>642</ele>
        <time>2021-08-06T08:36:29.303Z</time>
      </trkpt>
      <trkpt lat="46.97314" lon="8.77919">
        <ele>642</ele>
        <time>2021-08-06T08:36:30.303Z</time>
      </trkpt>
      <trkpt lat="46.97314" lon="8.77918">
        <ele>642</ele>
        <time>2021-08-06T08:36:31.303Z</time>
      </trkpt>
      <trkpt lat="46.97314" lon="8.77916">
        <ele>641</ele>
        <time>2021-08-06T08:36:32.304Z</time>
      </trkpt>
      <trkpt lat="46.97313" lon="8.77915">
        <ele>641</ele>
        <time>2021-08-06T08:36:33.304Z</time>
      </trkpt>
      <trkpt lat="46.97314" lon="8.77914">
        <ele>641</ele>
        <time>2021-08-06T08:36:34.303Z</time>
      </trkpt>
      <trkpt lat="46.97314" lon="8.77913">
        <ele>641</ele>
        <time>2021-08-06T08:36:35.304Z</time>
      </trkpt>
      <trkpt lat="46.97314" lon="8.77911">
        <ele>641</ele>
        <time>2021-08-06T08:36:36.304Z</time>
      </trkpt>
      <trkpt lat="46.97315" lon="8.7791">
        <ele>641</ele>
        <time>2021-08-06T08:36:37.304Z</time>
      </trkpt>
      <trkpt lat="46.97315" lon="8.77908">
        <ele>641</ele>
        <time>2021-08-06T08:36:38.304Z</time>
      </trkpt>
      <trkpt lat="46.97315" lon="8.77907">
        <ele>641</ele>
        <time>2021-08-06T08:36:39.303Z</time>
      </trkpt>
      <trkpt lat="46.97316" lon="8.77906">
        <ele>641</ele>
        <time>2021-08-06T08:36:40.303Z</time>
      </trkpt>
      <trkpt lat="46.97316" lon="8.77905">
        <ele>642</ele>
        <time>2021-08-06T08:36:41.303Z</time>
      </trkpt>
      <trkpt lat="46.97316" lon="8.77903">
        <ele>642</ele>
        <time>2021-08-06T08:36:42.303Z</time>
      </trkpt>
      <trkpt lat="46.97316" lon="8.77902">
        <ele>642</ele>
        <time>2021-08-06T08:36:43.304Z</time>
      </trkpt>
      <trkpt lat="46.97316" lon="8.77901">
        <ele>643</ele>
        <time>2021-08-06T08:36:44.303Z</time>
      </trkpt>
      <trkpt lat="46.97316" lon="8.779">
        <ele>643</ele>
        <time>2021-08-06T08:36:45.304Z</time>
      </trkpt>
      <trkpt lat="46.97316" lon="8.77899">
        <ele>643</ele>
        <time>2021-08-06T08:36:46.304Z</time>
      </trkpt>
      <trkpt lat="46.97315" lon="8.77898">
        <ele>643</ele>
        <time>2021-08-06T08:36:47.304Z</time>
      </trkpt>
      <trkpt lat="46.97316" lon="8.77897">
        <ele>643</ele>
        <time>2021-08-06T08:36:48.303Z</time>
      </trkpt>
      <trkpt lat="46.97317" lon="8.77896">
        <ele>644</ele>
        <time>2021-08-06T08:36:49.303Z</time>
      </trkpt>
      <trkpt lat="46.97318" lon="8.77895">
        <ele>645</ele>
        <time>2021-08-06T08:36:50.304Z</time>
      </trkpt>
      <trkpt lat="46.97319" lon="8.77894">
        <ele>645</ele>
        <time>2021-08-06T08:36:51.303Z</time>
      </trkpt>
      <trkpt lat="46.97319" lon="8.77893">
        <ele>645</ele>
        <time>2021-08-06T08:36:52.304Z</time>
      </trkpt>
      <trkpt lat="46.97321" lon="8.77892">
        <ele>646</ele>
        <time>2021-08-06T08:36:53.303Z</time>
      </trkpt>
      <trkpt lat="46.97321" lon="8.7789">
        <ele>646</ele>
        <time>2021-08-06T08:36:54.303Z</time>
      </trkpt>
      <trkpt lat="46.97321" lon="8.77889">
        <ele>647</ele>
        <time>2021-08-06T08:36:55.303Z</time>
      </trkpt>
      <trkpt lat="46.97322" lon="8.77888">
        <ele>647</ele>
        <time>2021-08-06T08:36:56.304Z</time>
      </trkpt>
      <trkpt lat="46.97323" lon="8.77887">
        <ele>648</ele>
        <time>2021-08-06T08:36:57.303Z</time>
      </trkpt>
      <trkpt lat="46.97325" lon="8.77886">
        <ele>648</ele>
        <time>2021-08-06T08:36:58.304Z</time>
      </trkpt>
      <trkpt lat="46.97326" lon="8.77885">
        <ele>649</ele>
        <time>2021-08-06T08:36:59.303Z</time>
      </trkpt>
      <trkpt lat="46.97327" lon="8.77883">
        <ele>649</ele>
        <time>2021-08-06T08:37:00.304Z</time>
      </trkpt>
      <trkpt lat="46.97327" lon="8.77883">
        <ele>650</ele>
        <time>2021-08-06T08:37:01.303Z</time>
      </trkpt>
      <trkpt lat="46.97326" lon="8.77882">
        <ele>650</ele>
        <time>2021-08-06T08:37:02.303Z</time>
      </trkpt>
      <trkpt lat="46.97327" lon="8.77881">
        <ele>650</ele>
        <time>2021-08-06T08:37:03.304Z</time>
      </trkpt>
      <trkpt lat="46.97327" lon="8.77879">
        <ele>650</ele>
        <time>2021-08-06T08:37:04.304Z</time>
      </trkpt>
      <trkpt lat="46.97327" lon="8.77878">
        <ele>650</ele>
        <time>2021-08-06T08:37:05.303Z</time>
      </trkpt>
      <trkpt lat="46.97327" lon="8.77877">
        <ele>650</ele>
        <time>2021-08-06T08:37:06.303Z</time>
      </trkpt>
      <trkpt lat="46.97327" lon="8.77876">
        <ele>650</ele>
        <time>2021-08-06T08:37:07.304Z</time>
      </trkpt>
      <trkpt lat="46.97328" lon="8.77875">
        <ele>650</ele>
        <time>2021-08-06T08:37:08.304Z</time>
      </trkpt>
      <trkpt lat="46.97328" lon="8.77874">
        <ele>650</ele>
        <time>2021-08-06T08:37:09.303Z</time>
      </trkpt>
      <trkpt lat="46.97328" lon="8.77873">
        <ele>650</ele>
        <time>2021-08-06T08:37:10.304Z</time>
      </trkpt>
      <trkpt lat="46.97328" lon="8.77872">
        <ele>650</ele>
        <time>2021-08-06T08:37:11.303Z</time>
      </trkpt>
      <trkpt lat="46.97328" lon="8.7787">
        <ele>649</ele>
        <time>2021-08-06T08:37:12.304Z</time>
      </trkpt>
      <trkpt lat="46.97328" lon="8.77869">
        <ele>649</ele>
        <time>2021-08-06T08:37:13.303Z</time>
      </trkpt>
      <trkpt lat="46.97328" lon="8.77867">
        <ele>649</ele>
        <time>2021-08-06T08:37:14.304Z</time>
      </trkpt>
      <trkpt lat="46.97328" lon="8.77866">
        <ele>649</ele>
        <time>2021-08-06T08:37:15.304Z</time>
      </trkpt>
      <trkpt lat="46.9733" lon="8.77863">
        <ele>648</ele>
        <time>2021-08-06T08:37:16.304Z</time>
      </trkpt>
      <trkpt lat="46.97331" lon="8.77862">
        <ele>648</ele>
        <time>2021-08-06T08:37:17.303Z</time>
      </trkpt>
      <trkpt lat="46.97331" lon="8.7786">
        <ele>648</ele>
        <time>2021-08-06T08:37:18.303Z</time>
      </trkpt>
      <trkpt lat="46.97332" lon="8.77859">
        <ele>648</ele>
        <time>2021-08-06T08:37:19.304Z</time>
      </trkpt>
      <trkpt lat="46.97334" lon="8.77856">
        <ele>648</ele>
        <time>2021-08-06T08:37:20.303Z</time>
      </trkpt>
      <trkpt lat="46.97335" lon="8.77854">
        <ele>648</ele>
        <time>2021-08-06T08:37:21.303Z</time>
      </trkpt>
      <trkpt lat="46.97336" lon="8.77853">
        <ele>648</ele>
        <time>2021-08-06T08:37:22.304Z</time>
      </trkpt>
      <trkpt lat="46.97335" lon="8.77851">
        <ele>648</ele>
        <time>2021-08-06T08:37:23.303Z</time>
      </trkpt>
      <trkpt lat="46.97334" lon="8.7785">
        <ele>648</ele>
        <time>2021-08-06T08:37:24.303Z</time>
      </trkpt>
      <trkpt lat="46.97332" lon="8.77848">
        <ele>647</ele>
        <time>2021-08-06T08:37:25.304Z</time>
      </trkpt>
      <trkpt lat="46.97331" lon="8.77847">
        <ele>646</ele>
        <time>2021-08-06T08:37:26.303Z</time>
      </trkpt>
      <trkpt lat="46.97331" lon="8.77845">
        <ele>646</ele>
        <time>2021-08-06T08:37:27.304Z</time>
      </trkpt>
      <trkpt lat="46.97331" lon="8.77844">
        <ele>646</ele>
        <time>2021-08-06T08:37:28.304Z</time>
      </trkpt>
      <trkpt lat="46.97332" lon="8.77843">
        <ele>645</ele>
        <time>2021-08-06T08:37:29.303Z</time>
      </trkpt>
      <trkpt lat="46.97332" lon="8.77842">
        <ele>645</ele>
        <time>2021-08-06T08:37:30.304Z</time>
      </trkpt>
      <trkpt lat="46.97332" lon="8.7784">
        <ele>645</ele>
        <time>2021-08-06T08:37:31.303Z</time>
      </trkpt>
      <trkpt lat="46.97332" lon="8.77839">
        <ele>644</ele>
        <time>2021-08-06T08:37:32.303Z</time>
      </trkpt>
      <trkpt lat="46.97332" lon="8.77838">
        <ele>644</ele>
        <time>2021-08-06T08:37:33.303Z</time>
      </trkpt>
      <trkpt lat="46.97332" lon="8.77836">
        <ele>644</ele>
        <time>2021-08-06T08:37:34.304Z</time>
      </trkpt>
      <trkpt lat="46.97332" lon="8.77835">
        <ele>644</ele>
        <time>2021-08-06T08:37:35.304Z</time>
      </trkpt>
      <trkpt lat="46.97332" lon="8.77834">
        <ele>644</ele>
        <time>2021-08-06T08:37:36.303Z</time>
      </trkpt>
      <trkpt lat="46.97332" lon="8.77832">
        <ele>643</ele>
        <time>2021-08-06T08:37:37.303Z</time>
      </trkpt>
      <trkpt lat="46.97331" lon="8.7783">
        <ele>643</ele>
        <time>2021-08-06T08:37:38.303Z</time>
      </trkpt>
      <trkpt lat="46.9733" lon="8.77829">
        <ele>642</ele>
        <time>2021-08-06T08:37:39.303Z</time>
      </trkpt>
      <trkpt lat="46.97329" lon="8.77828">
        <ele>642</ele>
        <time>2021-08-06T08:37:40.303Z</time>
      </trkpt>
      <trkpt lat="46.97329" lon="8.77827">
        <ele>642</ele>
        <time>2021-08-06T08:37:41.303Z</time>
      </trkpt>
      <trkpt lat="46.97329" lon="8.77825">
        <ele>642</ele>
        <time>2021-08-06T08:37:42.303Z</time>
      </trkpt>
      <trkpt lat="46.97329" lon="8.77824">
        <ele>642</ele>
        <time>2021-08-06T08:37:43.303Z</time>
      </trkpt>
      <trkpt lat="46.97329" lon="8.77822">
        <ele>642</ele>
        <time>2021-08-06T08:37:44.303Z</time>
      </trkpt>
      <trkpt lat="46.97329" lon="8.77821">
        <ele>642</ele>
        <time>2021-08-06T08:37:45.303Z</time>
      </trkpt>
      <trkpt lat="46.97329" lon="8.77819">
        <ele>642</ele>
        <time>2021-08-06T08:37:46.304Z</time>
      </trkpt>
      <trkpt lat="46.97329" lon="8.77818">
        <ele>642</ele>
        <time>2021-08-06T08:37:47.304Z</time>
      </trkpt>
      <trkpt lat="46.97329" lon="8.77815">
        <ele>643</ele>
        <time>2021-08-06T08:37:48.303Z</time>
      </trkpt>
      <trkpt lat="46.97329" lon="8.77813">
        <ele>643</ele>
        <time>2021-08-06T08:37:49.303Z</time>
      </trkpt>
      <trkpt lat="46.97328" lon="8.7781">
        <ele>643</ele>
        <time>2021-08-06T08:37:50.303Z</time>
      </trkpt>
      <trkpt lat="46.97328" lon="8.77809">
        <ele>643</ele>
        <time>2021-08-06T08:37:51.303Z</time>
      </trkpt>
      <trkpt lat="46.97328" lon="8.77808">
        <ele>644</ele>
        <time>2021-08-06T08:37:52.303Z</time>
      </trkpt>
      <trkpt lat="46.97328" lon="8.77806">
        <ele>645</ele>
        <time>2021-08-06T08:37:53.303Z</time>
      </trkpt>
      <trkpt lat="46.97329" lon="8.77805">
        <ele>645</ele>
        <time>2021-08-06T08:37:54.303Z</time>
      </trkpt>
      <trkpt lat="46.97329" lon="8.77804">
        <ele>645</ele>
        <time>2021-08-06T08:37:55.303Z</time>
      </trkpt>
      <trkpt lat="46.9733" lon="8.77803">
        <ele>645</ele>
        <time>2021-08-06T08:37:56.304Z</time>
      </trkpt>
      <trkpt lat="46.9733" lon="8.77802">
        <ele>644</ele>
        <time>2021-08-06T08:37:57.304Z</time>
      </trkpt>
      <trkpt lat="46.9733" lon="8.77801">
        <ele>644</ele>
        <time>2021-08-06T08:37:58.304Z</time>
      </trkpt>
      <trkpt lat="46.9733" lon="8.778">
        <ele>644</ele>
        <time>2021-08-06T08:37:59.303Z</time>
      </trkpt>
      <trkpt lat="46.97331" lon="8.77799">
        <ele>644</ele>
        <time>2021-08-06T08:38:00.303Z</time>
      </trkpt>
      <trkpt lat="46.97332" lon="8.77798">
        <ele>644</ele>
        <time>2021-08-06T08:38:01.304Z</time>
      </trkpt>
      <trkpt lat="46.97333" lon="8.77797">
        <ele>644</ele>
        <time>2021-08-06T08:38:02.303Z</time>
      </trkpt>
      <trkpt lat="46.97333" lon="8.77795">
        <ele>645</ele>
        <time>2021-08-06T08:38:03.303Z</time>
      </trkpt>
      <trkpt lat="46.97333" lon="8.77794">
        <ele>645</ele>
        <time>2021-08-06T08:38:04.303Z</time>
      </trkpt>
      <trkpt lat="46.97333" lon="8.77793">
        <ele>645</ele>
        <time>2021-08-06T08:38:05.304Z</time>
      </trkpt>
      <trkpt lat="46.97334" lon="8.77792">
        <ele>645</ele>
        <time>2021-08-06T08:38:06.304Z</time>
      </trkpt>
      <trkpt lat="46.97334" lon="8.7779">
        <ele>645</ele>
        <time>2021-08-06T08:38:07.304Z</time>
      </trkpt>
      <trkpt lat="46.97335" lon="8.77789">
        <ele>645</ele>
        <time>2021-08-06T08:38:08.303Z</time>
      </trkpt>
      <trkpt lat="46.97335" lon="8.77788">
        <ele>645</ele>
        <time>2021-08-06T08:38:09.303Z</time>
      </trkpt>
      <trkpt lat="46.97335" lon="8.77787">
        <ele>645</ele>
        <time>2021-08-06T08:38:10.303Z</time>
      </trkpt>
      <trkpt lat="46.97335" lon="8.77786">
        <ele>644</ele>
        <time>2021-08-06T08:38:11.303Z</time>
      </trkpt>
      <trkpt lat="46.97335" lon="8.77784">
        <ele>644</ele>
        <time>2021-08-06T08:38:12.303Z</time>
      </trkpt>
      <trkpt lat="46.97336" lon="8.77783">
        <ele>644</ele>
        <time>2021-08-06T08:38:13.304Z</time>
      </trkpt>
      <trkpt lat="46.97337" lon="8.77781">
        <ele>644</ele>
        <time>2021-08-06T08:38:14.304Z</time>
      </trkpt>
      <trkpt lat="46.97337" lon="8.7778">
        <ele>644</ele>
        <time>2021-08-06T08:38:15.303Z</time>
      </trkpt>
      <trkpt lat="46.97338" lon="8.77778">
        <ele>644</ele>
        <time>2021-08-06T08:38:16.303Z</time>
      </trkpt>
      <trkpt lat="46.97339" lon="8.77776">
        <ele>643</ele>
        <time>2021-08-06T08:38:17.304Z</time>
      </trkpt>
      <trkpt lat="46.9734" lon="8.77774">
        <ele>643</ele>
        <time>2021-08-06T08:38:18.304Z</time>
      </trkpt>
      <trkpt lat="46.97341" lon="8.77772">
        <ele>642</ele>
        <time>2021-08-06T08:38:19.303Z</time>
      </trkpt>
      <trkpt lat="46.97342" lon="8.77771">
        <ele>642</ele>
        <time>2021-08-06T08:38:20.304Z</time>
      </trkpt>
      <trkpt lat="46.97343" lon="8.7777">
        <ele>641</ele>
        <time>2021-08-06T08:38:21.303Z</time>
      </trkpt>
      <trkpt lat="46.97344" lon="8.77769">
        <ele>641</ele>
        <time>2021-08-06T08:38:22.303Z</time>
      </trkpt>
      <trkpt lat="46.97344" lon="8.77768">
        <ele>640</ele>
        <time>2021-08-06T08:38:23.303Z</time>
      </trkpt>
      <trkpt lat="46.97344" lon="8.77767">
        <ele>640</ele>
        <time>2021-08-06T08:38:24.303Z</time>
      </trkpt>
      <trkpt lat="46.97345" lon="8.77766">
        <ele>639</ele>
        <time>2021-08-06T08:38:25.303Z</time>
      </trkpt>
      <trkpt lat="46.97345" lon="8.77764">
        <ele>639</ele>
        <time>2021-08-06T08:38:26.303Z</time>
      </trkpt>
      <trkpt lat="46.97345" lon="8.77763">
        <ele>639</ele>
        <time>2021-08-06T08:38:27.303Z</time>
      </trkpt>
      <trkpt lat="46.97345" lon="8.77761">
        <ele>639</ele>
        <time>2021-08-06T08:38:28.303Z</time>
      </trkpt>
      <trkpt lat="46.97345" lon="8.7776">
        <ele>639</ele>
        <time>2021-08-06T08:38:29.304Z</time>
      </trkpt>
      <trkpt lat="46.97346" lon="8.77758">
        <ele>639</ele>
        <time>2021-08-06T08:38:30.304Z</time>
      </trkpt>
      <trkpt lat="46.97347" lon="8.77757">
        <ele>639</ele>
        <time>2021-08-06T08:38:31.303Z</time>
      </trkpt>
      <trkpt lat="46.97348" lon="8.77755">
        <ele>639</ele>
        <time>2021-08-06T08:38:32.304Z</time>
      </trkpt>
      <trkpt lat="46.97348" lon="8.77754">
        <ele>640</ele>
        <time>2021-08-06T08:38:33.304Z</time>
      </trkpt>
      <trkpt lat="46.97349" lon="8.77752">
        <ele>640</ele>
        <time>2021-08-06T08:38:34.304Z</time>
      </trkpt>
      <trkpt lat="46.97349" lon="8.77751">
        <ele>641</ele>
        <time>2021-08-06T08:38:35.304Z</time>
      </trkpt>
      <trkpt lat="46.9735" lon="8.77749">
        <ele>641</ele>
        <time>2021-08-06T08:38:36.304Z</time>
      </trkpt>
      <trkpt lat="46.9735" lon="8.77747">
        <ele>640</ele>
        <time>2021-08-06T08:38:37.303Z</time>
      </trkpt>
      <trkpt lat="46.9735" lon="8.77746">
        <ele>640</ele>
        <time>2021-08-06T08:38:38.304Z</time>
      </trkpt>
      <trkpt lat="46.9735" lon="8.77744">
        <ele>639</ele>
        <time>2021-08-06T08:38:39.304Z</time>
      </trkpt>
      <trkpt lat="46.9735" lon="8.77742">
        <ele>639</ele>
        <time>2021-08-06T08:38:40.303Z</time>
      </trkpt>
      <trkpt lat="46.9735" lon="8.7774">
        <ele>639</ele>
        <time>2021-08-06T08:38:41.304Z</time>
      </trkpt>
      <trkpt lat="46.97351" lon="8.77738">
        <ele>639</ele>
        <time>2021-08-06T08:38:42.303Z</time>
      </trkpt>
      <trkpt lat="46.9735" lon="8.77736">
        <ele>639</ele>
        <time>2021-08-06T08:38:43.303Z</time>
      </trkpt>
      <trkpt lat="46.9735" lon="8.77734">
        <ele>638</ele>
        <time>2021-08-06T08:38:44.303Z</time>
      </trkpt>
      <trkpt lat="46.9735" lon="8.77733">
        <ele>638</ele>
        <time>2021-08-06T08:38:45.304Z</time>
      </trkpt>
      <trkpt lat="46.97351" lon="8.77731">
        <ele>638</ele>
        <time>2021-08-06T08:38:46.304Z</time>
      </trkpt>
      <trkpt lat="46.9735" lon="8.77729">
        <ele>637</ele>
        <time>2021-08-06T08:38:47.304Z</time>
      </trkpt>
      <trkpt lat="46.97351" lon="8.77727">
        <ele>637</ele>
        <time>2021-08-06T08:38:48.304Z</time>
      </trkpt>
      <trkpt lat="46.97351" lon="8.77727">
        <ele>637</ele>
        <time>2021-08-06T08:38:49.303Z</time>
      </trkpt>
      <trkpt lat="46.97351" lon="8.77725">
        <ele>637</ele>
        <time>2021-08-06T08:38:50.303Z</time>
      </trkpt>
      <trkpt lat="46.97351" lon="8.77723">
        <ele>637</ele>
        <time>2021-08-06T08:38:51.303Z</time>
      </trkpt>
      <trkpt lat="46.97352" lon="8.77722">
        <ele>636</ele>
        <time>2021-08-06T08:38:52.303Z</time>
      </trkpt>
      <trkpt lat="46.97351" lon="8.77721">
        <ele>636</ele>
        <time>2021-08-06T08:38:53.303Z</time>
      </trkpt>
      <trkpt lat="46.97351" lon="8.77719">
        <ele>636</ele>
        <time>2021-08-06T08:38:54.303Z</time>
      </trkpt>
      <trkpt lat="46.97351" lon="8.77718">
        <ele>636</ele>
        <time>2021-08-06T08:38:55.304Z</time>
      </trkpt>
      <trkpt lat="46.97352" lon="8.77717">
        <ele>636</ele>
        <time>2021-08-06T08:38:56.304Z</time>
      </trkpt>
      <trkpt lat="46.97352" lon="8.77716">
        <ele>636</ele>
        <time>2021-08-06T08:38:57.304Z</time>
      </trkpt>
      <trkpt lat="46.97353" lon="8.77714">
        <ele>636</ele>
        <time>2021-08-06T08:38:58.304Z</time>
      </trkpt>
      <trkpt lat="46.97353" lon="8.77713">
        <ele>637</ele>
        <time>2021-08-06T08:38:59.303Z</time>
      </trkpt>
      <trkpt lat="46.97353" lon="8.77712">
        <ele>637</ele>
        <time>2021-08-06T08:39:00.304Z</time>
      </trkpt>
      <trkpt lat="46.97353" lon="8.77711">
        <ele>638</ele>
        <time>2021-08-06T08:39:01.304Z</time>
      </trkpt>
      <trkpt lat="46.97353" lon="8.7771">
        <ele>638</ele>
        <time>2021-08-06T08:39:02.303Z</time>
      </trkpt>
      <trkpt lat="46.97353" lon="8.77709">
        <ele>638</ele>
        <time>2021-08-06T08:39:03.304Z</time>
      </trkpt>
      <trkpt lat="46.97354" lon="8.77707">
        <ele>639</ele>
        <time>2021-08-06T08:39:04.304Z</time>
      </trkpt>
      <trkpt lat="46.97354" lon="8.77705">
        <ele>639</ele>
        <time>2021-08-06T08:39:05.303Z</time>
      </trkpt>
      <trkpt lat="46.97354" lon="8.77704">
        <ele>639</ele>
        <time>2021-08-06T08:39:06.303Z</time>
      </trkpt>
      <trkpt lat="46.97354" lon="8.77703">
        <ele>639</ele>
        <time>2021-08-06T08:39:07.304Z</time>
      </trkpt>
      <trkpt lat="46.97354" lon="8.77701">
        <ele>639</ele>
        <time>2021-08-06T08:39:08.303Z</time>
      </trkpt>
      <trkpt lat="46.97355" lon="8.77699">
        <ele>639</ele>
        <time>2021-08-06T08:39:09.304Z</time>
      </trkpt>
      <trkpt lat="46.97355" lon="8.77698">
        <ele>639</ele>
        <time>2021-08-06T08:39:10.303Z</time>
      </trkpt>
      <trkpt lat="46.97355" lon="8.77696">
        <ele>639</ele>
        <time>2021-08-06T08:39:11.304Z</time>
      </trkpt>
      <trkpt lat="46.97355" lon="8.77695">
        <ele>638</ele>
        <time>2021-08-06T08:39:12.304Z</time>
      </trkpt>
      <trkpt lat="46.97356" lon="8.77694">
        <ele>638</ele>
        <time>2021-08-06T08:39:13.304Z</time>
      </trkpt>
      <trkpt lat="46.97356" lon="8.77693">
        <ele>638</ele>
        <time>2021-08-06T08:39:14.304Z</time>
      </trkpt>
      <trkpt lat="46.97356" lon="8.77692">
        <ele>638</ele>
        <time>2021-08-06T08:39:15.303Z</time>
      </trkpt>
      <trkpt lat="46.97356" lon="8.77691">
        <ele>638</ele>
        <time>2021-08-06T08:39:16.303Z</time>
      </trkpt>
      <trkpt lat="46.97356" lon="8.77689">
        <ele>638</ele>
        <time>2021-08-06T08:39:17.304Z</time>
      </trkpt>
      <trkpt lat="46.97356" lon="8.77688">
        <ele>638</ele>
        <time>2021-08-06T08:39:18.303Z</time>
      </trkpt>
      <trkpt lat="46.97356" lon="8.77686">
        <ele>638</ele>
        <time>2021-08-06T08:39:19.303Z</time>
      </trkpt>
      <trkpt lat="46.97356" lon="8.77685">
        <ele>638</ele>
        <time>2021-08-06T08:39:20.303Z</time>
      </trkpt>
      <trkpt lat="46.97357" lon="8.77684">
        <ele>637</ele>
        <time>2021-08-06T08:39:21.303Z</time>
      </trkpt>
      <trkpt lat="46.97358" lon="8.77683">
        <ele>637</ele>
        <time>2021-08-06T08:39:22.304Z</time>
      </trkpt>
      <trkpt lat="46.97358" lon="8.77681">
        <ele>637</ele>
        <time>2021-08-06T08:39:23.304Z</time>
      </trkpt>
      <trkpt lat="46.97358" lon="8.7768">
        <ele>637</ele>
        <time>2021-08-06T08:39:24.303Z</time>
      </trkpt>
      <trkpt lat="46.97358" lon="8.77679">
        <ele>637</ele>
        <time>2021-08-06T08:39:25.303Z</time>
      </trkpt>
      <trkpt lat="46.97358" lon="8.77677">
        <ele>636</ele>
        <time>2021-08-06T08:39:26.303Z</time>
      </trkpt>
      <trkpt lat="46.97358" lon="8.77676">
        <ele>636</ele>
        <time>2021-08-06T08:39:27.304Z</time>
      </trkpt>
      <trkpt lat="46.97358" lon="8.77674">
        <ele>635</ele>
        <time>2021-08-06T08:39:28.303Z</time>
      </trkpt>
      <trkpt lat="46.97358" lon="8.77673">
        <ele>635</ele>
        <time>2021-08-06T08:39:29.303Z</time>
      </trkpt>
      <trkpt lat="46.97359" lon="8.77672">
        <ele>635</ele>
        <time>2021-08-06T08:39:30.303Z</time>
      </trkpt>
      <trkpt lat="46.97359" lon="8.7767">
        <ele>634</ele>
        <time>2021-08-06T08:39:31.303Z</time>
      </trkpt>
      <trkpt lat="46.97361" lon="8.77669">
        <ele>634</ele>
        <time>2021-08-06T08:39:32.304Z</time>
      </trkpt>
      <trkpt lat="46.97361" lon="8.77668">
        <ele>634</ele>
        <time>2021-08-06T08:39:33.303Z</time>
      </trkpt>
      <trkpt lat="46.97362" lon="8.77666">
        <ele>633</ele>
        <time>2021-08-06T08:39:34.304Z</time>
      </trkpt>
      <trkpt lat="46.97363" lon="8.77665">
        <ele>633</ele>
        <time>2021-08-06T08:39:35.304Z</time>
      </trkpt>
      <trkpt lat="46.97364" lon="8.77664">
        <ele>632</ele>
        <time>2021-08-06T08:39:36.304Z</time>
      </trkpt>
      <trkpt lat="46.97364" lon="8.77663">
        <ele>632</ele>
        <time>2021-08-06T08:39:37.304Z</time>
      </trkpt>
      <trkpt lat="46.97365" lon="8.77661">
        <ele>632</ele>
        <time>2021-08-06T08:39:38.303Z</time>
      </trkpt>
      <trkpt lat="46.97365" lon="8.77659">
        <ele>632</ele>
        <time>2021-08-06T08:39:39.303Z</time>
      </trkpt>
      <trkpt lat="46.97365" lon="8.77656">
        <ele>632</ele>
        <time>2021-08-06T08:39:40.303Z</time>
      </trkpt>
      <trkpt lat="46.97365" lon="8.77654">
        <ele>632</ele>
        <time>2021-08-06T08:39:41.303Z</time>
      </trkpt>
      <trkpt lat="46.97366" lon="8.77653">
        <ele>632</ele>
        <time>2021-08-06T08:39:42.303Z</time>
      </trkpt>
      <trkpt lat="46.97366" lon="8.77651">
        <ele>632</ele>
        <time>2021-08-06T08:39:43.303Z</time>
      </trkpt>
      <trkpt lat="46.97367" lon="8.77649">
        <ele>633</ele>
        <time>2021-08-06T08:39:44.303Z</time>
      </trkpt>
      <trkpt lat="46.97368" lon="8.77648">
        <ele>633</ele>
        <time>2021-08-06T08:39:45.303Z</time>
      </trkpt>
      <trkpt lat="46.97368" lon="8.77646">
        <ele>633</ele>
        <time>2021-08-06T08:39:46.303Z</time>
      </trkpt>
      <trkpt lat="46.97368" lon="8.77645">
        <ele>633</ele>
        <time>2021-08-06T08:39:47.304Z</time>
      </trkpt>
      <trkpt lat="46.97369" lon="8.77644">
        <ele>633</ele>
        <time>2021-08-06T08:39:48.303Z</time>
      </trkpt>
      <trkpt lat="46.97369" lon="8.77642">
        <ele>633</ele>
        <time>2021-08-06T08:39:49.303Z</time>
      </trkpt>
      <trkpt lat="46.97368" lon="8.7764">
        <ele>634</ele>
        <time>2021-08-06T08:39:50.304Z</time>
      </trkpt>
      <trkpt lat="46.97367" lon="8.77638">
        <ele>634</ele>
        <time>2021-08-06T08:39:51.303Z</time>
      </trkpt>
      <trkpt lat="46.97367" lon="8.77636">
        <ele>634</ele>
        <time>2021-08-06T08:39:52.303Z</time>
      </trkpt>
      <trkpt lat="46.97368" lon="8.77635">
        <ele>634</ele>
        <time>2021-08-06T08:39:53.303Z</time>
      </trkpt>
      <trkpt lat="46.97368" lon="8.77632">
        <ele>634</ele>
        <time>2021-08-06T08:39:54.303Z</time>
      </trkpt>
      <trkpt lat="46.97368" lon="8.7763">
        <ele>634</ele>
        <time>2021-08-06T08:39:55.304Z</time>
      </trkpt>
      <trkpt lat="46.97368" lon="8.77629">
        <ele>634</ele>
        <time>2021-08-06T08:39:56.304Z</time>
      </trkpt>
      <trkpt lat="46.97368" lon="8.77627">
        <ele>634</ele>
        <time>2021-08-06T08:39:57.303Z</time>
      </trkpt>
      <trkpt lat="46.97368" lon="8.77625">
        <ele>633</ele>
        <time>2021-08-06T08:39:58.303Z</time>
      </trkpt>
      <trkpt lat="46.97368" lon="8.77624">
        <ele>633</ele>
        <time>2021-08-06T08:39:59.303Z</time>
      </trkpt>
      <trkpt lat="46.97368" lon="8.77622">
        <ele>633</ele>
        <time>2021-08-06T08:40:00.304Z</time>
      </trkpt>
      <trkpt lat="46.97368" lon="8.77621">
        <ele>633</ele>
        <time>2021-08-06T08:40:01.304Z</time>
      </trkpt>
      <trkpt lat="46.97368" lon="8.7762">
        <ele>633</ele>
        <time>2021-08-06T08:40:02.303Z</time>
      </trkpt>
      <trkpt lat="46.97368" lon="8.77619">
        <ele>633</ele>
        <time>2021-08-06T08:40:03.303Z</time>
      </trkpt>
      <trkpt lat="46.97368" lon="8.77617">
        <ele>633</ele>
        <time>2021-08-06T08:40:04.303Z</time>
      </trkpt>
      <trkpt lat="46.97367" lon="8.77615">
        <ele>633</ele>
        <time>2021-08-06T08:40:05.304Z</time>
      </trkpt>
      <trkpt lat="46.97367" lon="8.77614">
        <ele>634</ele>
        <time>2021-08-06T08:40:06.303Z</time>
      </trkpt>
      <trkpt lat="46.97367" lon="8.77612">
        <ele>634</ele>
        <time>2021-08-06T08:40:07.303Z</time>
      </trkpt>
      <trkpt lat="46.97366" lon="8.77611">
        <ele>634</ele>
        <time>2021-08-06T08:40:08.303Z</time>
      </trkpt>
      <trkpt lat="46.97367" lon="8.77609">
        <ele>635</ele>
        <time>2021-08-06T08:40:09.303Z</time>
      </trkpt>
      <trkpt lat="46.97366" lon="8.77607">
        <ele>635</ele>
        <time>2021-08-06T08:40:10.304Z</time>
      </trkpt>
      <trkpt lat="46.97366" lon="8.77605">
        <ele>634</ele>
        <time>2021-08-06T08:40:11.303Z</time>
      </trkpt>
      <trkpt lat="46.97366" lon="8.77603">
        <ele>634</ele>
        <time>2021-08-06T08:40:12.303Z</time>
      </trkpt>
      <trkpt lat="46.97366" lon="8.77601">
        <ele>634</ele>
        <time>2021-08-06T08:40:13.303Z</time>
      </trkpt>
      <trkpt lat="46.97366" lon="8.776">
        <ele>634</ele>
        <time>2021-08-06T08:40:14.303Z</time>
      </trkpt>
      <trkpt lat="46.97367" lon="8.77598">
        <ele>633</ele>
        <time>2021-08-06T08:40:15.303Z</time>
      </trkpt>
      <trkpt lat="46.97367" lon="8.77597">
        <ele>633</ele>
        <time>2021-08-06T08:40:16.304Z</time>
      </trkpt>
      <trkpt lat="46.97366" lon="8.77596">
        <ele>633</ele>
        <time>2021-08-06T08:40:17.303Z</time>
      </trkpt>
      <trkpt lat="46.97366" lon="8.77594">
        <ele>633</ele>
        <time>2021-08-06T08:40:18.303Z</time>
      </trkpt>
      <trkpt lat="46.97366" lon="8.77592">
        <ele>633</ele>
        <time>2021-08-06T08:40:19.303Z</time>
      </trkpt>
      <trkpt lat="46.97366" lon="8.77591">
        <ele>633</ele>
        <time>2021-08-06T08:40:20.303Z</time>
      </trkpt>
      <trkpt lat="46.97365" lon="8.77589">
        <ele>633</ele>
        <time>2021-08-06T08:40:21.304Z</time>
      </trkpt>
      <trkpt lat="46.97364" lon="8.77587">
        <ele>633</ele>
        <time>2021-08-06T08:40:22.303Z</time>
      </trkpt>
      <trkpt lat="46.97364" lon="8.77586">
        <ele>633</ele>
        <time>2021-08-06T08:40:23.303Z</time>
      </trkpt>
      <trkpt lat="46.97364" lon="8.77584">
        <ele>634</ele>
        <time>2021-08-06T08:40:24.303Z</time>
      </trkpt>
      <trkpt lat="46.97364" lon="8.77583">
        <ele>634</ele>
        <time>2021-08-06T08:40:25.303Z</time>
      </trkpt>
      <trkpt lat="46.97364" lon="8.77582">
        <ele>634</ele>
        <time>2021-08-06T08:40:26.304Z</time>
      </trkpt>
      <trkpt lat="46.97364" lon="8.7758">
        <ele>634</ele>
        <time>2021-08-06T08:40:27.303Z</time>
      </trkpt>
      <trkpt lat="46.97364" lon="8.77579">
        <ele>634</ele>
        <time>2021-08-06T08:40:28.303Z</time>
      </trkpt>
      <trkpt lat="46.97364" lon="8.77578">
        <ele>635</ele>
        <time>2021-08-06T08:40:29.303Z</time>
      </trkpt>
      <trkpt lat="46.97365" lon="8.77576">
        <ele>635</ele>
        <time>2021-08-06T08:40:30.304Z</time>
      </trkpt>
      <trkpt lat="46.97365" lon="8.77575">
        <ele>635</ele>
        <time>2021-08-06T08:40:31.303Z</time>
      </trkpt>
      <trkpt lat="46.97365" lon="8.77574">
        <ele>636</ele>
        <time>2021-08-06T08:40:32.304Z</time>
      </trkpt>
      <trkpt lat="46.97364" lon="8.77573">
        <ele>636</ele>
        <time>2021-08-06T08:40:33.303Z</time>
      </trkpt>
      <trkpt lat="46.97364" lon="8.77572">
        <ele>636</ele>
        <time>2021-08-06T08:40:34.304Z</time>
      </trkpt>
      <trkpt lat="46.97364" lon="8.77571">
        <ele>636</ele>
        <time>2021-08-06T08:40:35.303Z</time>
      </trkpt>
      <trkpt lat="46.97364" lon="8.7757">
        <ele>636</ele>
        <time>2021-08-06T08:40:36.303Z</time>
      </trkpt>
      <trkpt lat="46.97363" lon="8.77569">
        <ele>636</ele>
        <time>2021-08-06T08:40:37.304Z</time>
      </trkpt>
      <trkpt lat="46.97363" lon="8.77569">
        <ele>635</ele>
        <time>2021-08-06T08:40:38.303Z</time>
      </trkpt>
      <trkpt lat="46.97363" lon="8.77568">
        <ele>635</ele>
        <time>2021-08-06T08:40:39.303Z</time>
      </trkpt>
      <trkpt lat="46.97364" lon="8.77567">
        <ele>635</ele>
        <time>2021-08-06T08:40:40.303Z</time>
      </trkpt>
      <trkpt lat="46.97364" lon="8.77567">
        <ele>635</ele>
        <time>2021-08-06T08:40:41.303Z</time>
      </trkpt>
      <trkpt lat="46.97365" lon="8.77566">
        <ele>635</ele>
        <time>2021-08-06T08:40:42.303Z</time>
      </trkpt>
      <trkpt lat="46.97365" lon="8.77564">
        <ele>634</ele>
        <time>2021-08-06T08:40:43.303Z</time>
      </trkpt>
      <trkpt lat="46.97365" lon="8.77563">
        <ele>634</ele>
        <time>2021-08-06T08:40:44.303Z</time>
      </trkpt>
      <trkpt lat="46.97365" lon="8.77561">
        <ele>634</ele>
        <time>2021-08-06T08:40:45.304Z</time>
      </trkpt>
      <trkpt lat="46.97364" lon="8.77559">
        <ele>633</ele>
        <time>2021-08-06T08:40:46.303Z</time>
      </trkpt>
      <trkpt lat="46.97365" lon="8.77557">
        <ele>634</ele>
        <time>2021-08-06T08:40:47.303Z</time>
      </trkpt>
      <trkpt lat="46.97365" lon="8.77556">
        <ele>634</ele>
        <time>2021-08-06T08:40:48.303Z</time>
      </trkpt>
      <trkpt lat="46.97365" lon="8.77555">
        <ele>634</ele>
        <time>2021-08-06T08:40:49.303Z</time>
      </trkpt>
      <trkpt lat="46.97365" lon="8.77553">
        <ele>634</ele>
        <time>2021-08-06T08:40:50.304Z</time>
      </trkpt>
      <trkpt lat="46.97364" lon="8.77551">
        <ele>634</ele>
        <time>2021-08-06T08:40:51.304Z</time>
      </trkpt>
      <trkpt lat="46.97364" lon="8.77549">
        <ele>634</ele>
        <time>2021-08-06T08:40:52.303Z</time>
      </trkpt>
      <trkpt lat="46.97364" lon="8.77547">
        <ele>634</ele>
        <time>2021-08-06T08:40:53.303Z</time>
      </trkpt>
      <trkpt lat="46.97364" lon="8.77546">
        <ele>635</ele>
        <time>2021-08-06T08:40:54.303Z</time>
      </trkpt>
      <trkpt lat="46.97364" lon="8.77544">
        <ele>635</ele>
        <time>2021-08-06T08:40:55.304Z</time>
      </trkpt>
      <trkpt lat="46.97363" lon="8.77541">
        <ele>636</ele>
        <time>2021-08-06T08:40:56.303Z</time>
      </trkpt>
      <trkpt lat="46.97363" lon="8.77539">
        <ele>637</ele>
        <time>2021-08-06T08:40:57.303Z</time>
      </trkpt>
      <trkpt lat="46.97363" lon="8.77537">
        <ele>637</ele>
        <time>2021-08-06T08:40:58.304Z</time>
      </trkpt>
      <trkpt lat="46.97363" lon="8.77535">
        <ele>637</ele>
        <time>2021-08-06T08:40:59.303Z</time>
      </trkpt>
      <trkpt lat="46.97362" lon="8.77533">
        <ele>636</ele>
        <time>2021-08-06T08:41:00.303Z</time>
      </trkpt>
      <trkpt lat="46.97362" lon="8.77531">
        <ele>636</ele>
        <time>2021-08-06T08:41:01.303Z</time>
      </trkpt>
      <trkpt lat="46.97361" lon="8.77529">
        <ele>636</ele>
        <time>2021-08-06T08:41:02.303Z</time>
      </trkpt>
      <trkpt lat="46.97361" lon="8.77528">
        <ele>636</ele>
        <time>2021-08-06T08:41:03.303Z</time>
      </trkpt>
      <trkpt lat="46.97361" lon="8.77527">
        <ele>636</ele>
        <time>2021-08-06T08:41:04.303Z</time>
      </trkpt>
      <trkpt lat="46.97361" lon="8.77525">
        <ele>635</ele>
        <time>2021-08-06T08:41:05.303Z</time>
      </trkpt>
      <trkpt lat="46.97361" lon="8.77524">
        <ele>635</ele>
        <time>2021-08-06T08:41:06.303Z</time>
      </trkpt>
      <trkpt lat="46.97361" lon="8.77522">
        <ele>635</ele>
        <time>2021-08-06T08:41:07.303Z</time>
      </trkpt>
      <trkpt lat="46.9736" lon="8.7752">
        <ele>634</ele>
        <time>2021-08-06T08:41:08.303Z</time>
      </trkpt>
      <trkpt lat="46.9736" lon="8.77519">
        <ele>634</ele>
        <time>2021-08-06T08:41:09.303Z</time>
      </trkpt>
      <trkpt lat="46.9736" lon="8.77517">
        <ele>634</ele>
        <time>2021-08-06T08:41:10.303Z</time>
      </trkpt>
      <trkpt lat="46.97359" lon="8.77516">
        <ele>633</ele>
        <time>2021-08-06T08:41:11.304Z</time>
      </trkpt>
      <trkpt lat="46.97359" lon="8.77515">
        <ele>633</ele>
        <time>2021-08-06T08:41:12.304Z</time>
      </trkpt>
      <trkpt lat="46.97359" lon="8.77513">
        <ele>633</ele>
        <time>2021-08-06T08:41:13.303Z</time>
      </trkpt>
      <trkpt lat="46.97358" lon="8.77511">
        <ele>632</ele>
        <time>2021-08-06T08:41:14.303Z</time>
      </trkpt>
      <trkpt lat="46.97358" lon="8.77509">
        <ele>632</ele>
        <time>2021-08-06T08:41:15.303Z</time>
      </trkpt>
      <trkpt lat="46.97358" lon="8.77507">
        <ele>633</ele>
        <time>2021-08-06T08:41:16.304Z</time>
      </trkpt>
      <trkpt lat="46.97358" lon="8.77506">
        <ele>633</ele>
        <time>2021-08-06T08:41:17.303Z</time>
      </trkpt>
      <trkpt lat="46.97358" lon="8.77504">
        <ele>633</ele>
        <time>2021-08-06T08:41:18.303Z</time>
      </trkpt>
      <trkpt lat="46.97357" lon="8.77503">
        <ele>633</ele>
        <time>2021-08-06T08:41:19.303Z</time>
      </trkpt>
      <trkpt lat="46.97357" lon="8.77501">
        <ele>634</ele>
        <time>2021-08-06T08:41:20.303Z</time>
      </trkpt>
      <trkpt lat="46.97357" lon="8.77499">
        <ele>634</ele>
        <time>2021-08-06T08:41:21.303Z</time>
      </trkpt>
      <trkpt lat="46.97356" lon="8.77497">
        <ele>634</ele>
        <time>2021-08-06T08:41:22.304Z</time>
      </trkpt>
      <trkpt lat="46.97356" lon="8.77495">
        <ele>635</ele>
        <time>2021-08-06T08:41:23.303Z</time>
      </trkpt>
      <trkpt lat="46.97356" lon="8.77494">
        <ele>635</ele>
        <time>2021-08-06T08:41:24.303Z</time>
      </trkpt>
      <trkpt lat="46.97355" lon="8.77492">
        <ele>635</ele>
        <time>2021-08-06T08:41:25.303Z</time>
      </trkpt>
      <trkpt lat="46.97355" lon="8.77491">
        <ele>636</ele>
        <time>2021-08-06T08:41:26.303Z</time>
      </trkpt>
      <trkpt lat="46.97354" lon="8.77489">
        <ele>636</ele>
        <time>2021-08-06T08:41:27.303Z</time>
      </trkpt>
      <trkpt lat="46.97355" lon="8.77488">
        <ele>636</ele>
        <time>2021-08-06T08:41:28.304Z</time>
      </trkpt>
      <trkpt lat="46.97354" lon="8.77487">
        <ele>636</ele>
        <time>2021-08-06T08:41:29.303Z</time>
      </trkpt>
      <trkpt lat="46.97354" lon="8.77486">
        <ele>636</ele>
        <time>2021-08-06T08:41:30.303Z</time>
      </trkpt>
      <trkpt lat="46.97354" lon="8.77484">
        <ele>636</ele>
        <time>2021-08-06T08:41:31.303Z</time>
      </trkpt>
      <trkpt lat="46.97354" lon="8.77483">
        <ele>636</ele>
        <time>2021-08-06T08:41:32.303Z</time>
      </trkpt>
      <trkpt lat="46.97353" lon="8.77481">
        <ele>636</ele>
        <time>2021-08-06T08:41:33.303Z</time>
      </trkpt>
      <trkpt lat="46.97353" lon="8.77479">
        <ele>636</ele>
        <time>2021-08-06T08:41:34.303Z</time>
      </trkpt>
      <trkpt lat="46.97352" lon="8.77478">
        <ele>636</ele>
        <time>2021-08-06T08:41:35.304Z</time>
      </trkpt>
      <trkpt lat="46.97352" lon="8.77476">
        <ele>636</ele>
        <time>2021-08-06T08:41:36.303Z</time>
      </trkpt>
      <trkpt lat="46.97351" lon="8.77474">
        <ele>636</ele>
        <time>2021-08-06T08:41:37.303Z</time>
      </trkpt>
      <trkpt lat="46.97351" lon="8.77473">
        <ele>636</ele>
        <time>2021-08-06T08:41:38.303Z</time>
      </trkpt>
      <trkpt lat="46.97351" lon="8.77472">
        <ele>636</ele>
        <time>2021-08-06T08:41:39.303Z</time>
      </trkpt>
      <trkpt lat="46.97351" lon="8.77471">
        <ele>636</ele>
        <time>2021-08-06T08:41:40.304Z</time>
      </trkpt>
      <trkpt lat="46.97351" lon="8.7747">
        <ele>636</ele>
        <time>2021-08-06T08:41:41.304Z</time>
      </trkpt>
      <trkpt lat="46.97351" lon="8.77468">
        <ele>636</ele>
        <time>2021-08-06T08:41:42.304Z</time>
      </trkpt>
      <trkpt lat="46.97351" lon="8.77466">
        <ele>635</ele>
        <time>2021-08-06T08:41:43.303Z</time>
      </trkpt>
      <trkpt lat="46.97352" lon="8.77465">
        <ele>634</ele>
        <time>2021-08-06T08:41:44.303Z</time>
      </trkpt>
      <trkpt lat="46.97352" lon="8.77463">
        <ele>634</ele>
        <time>2021-08-06T08:41:45.303Z</time>
      </trkpt>
      <trkpt lat="46.97352" lon="8.77461">
        <ele>634</ele>
        <time>2021-08-06T08:41:46.303Z</time>
      </trkpt>
      <trkpt lat="46.97351" lon="8.7746">
        <ele>634</ele>
        <time>2021-08-06T08:41:47.303Z</time>
      </trkpt>
      <trkpt lat="46.97351" lon="8.77458">
        <ele>634</ele>
        <time>2021-08-06T08:41:48.303Z</time>
      </trkpt>
      <trkpt lat="46.9735" lon="8.77456">
        <ele>634</ele>
        <time>2021-08-06T08:41:49.303Z</time>
      </trkpt>
      <trkpt lat="46.9735" lon="8.77454">
        <ele>634</ele>
        <time>2021-08-06T08:41:50.303Z</time>
      </trkpt>
      <trkpt lat="46.97349" lon="8.77453">
        <ele>634</ele>
        <time>2021-08-06T08:41:51.303Z</time>
      </trkpt>
      <trkpt lat="46.97349" lon="8.77451">
        <ele>634</ele>
        <time>2021-08-06T08:41:52.303Z</time>
      </trkpt>
      <trkpt lat="46.97349" lon="8.7745">
        <ele>635</ele>
        <time>2021-08-06T08:41:53.304Z</time>
      </trkpt>
      <trkpt lat="46.97349" lon="8.77449">
        <ele>635</ele>
        <time>2021-08-06T08:41:54.304Z</time>
      </trkpt>
      <trkpt lat="46.97348" lon="8.77447">
        <ele>635</ele>
        <time>2021-08-06T08:41:55.303Z</time>
      </trkpt>
      <trkpt lat="46.97347" lon="8.77444">
        <ele>635</ele>
        <time>2021-08-06T08:41:56.303Z</time>
      </trkpt>
      <trkpt lat="46.97346" lon="8.77442">
        <ele>635</ele>
        <time>2021-08-06T08:41:57.303Z</time>
      </trkpt>
      <trkpt lat="46.97345" lon="8.77441">
        <ele>635</ele>
        <time>2021-08-06T08:41:58.304Z</time>
      </trkpt>
      <trkpt lat="46.97345" lon="8.77439">
        <ele>635</ele>
        <time>2021-08-06T08:41:59.303Z</time>
      </trkpt>
      <trkpt lat="46.97346" lon="8.77438">
        <ele>635</ele>
        <time>2021-08-06T08:42:00.303Z</time>
      </trkpt>
      <trkpt lat="46.97346" lon="8.77436">
        <ele>635</ele>
        <time>2021-08-06T08:42:01.303Z</time>
      </trkpt>
      <trkpt lat="46.97345" lon="8.77435">
        <ele>635</ele>
        <time>2021-08-06T08:42:02.303Z</time>
      </trkpt>
      <trkpt lat="46.97345" lon="8.77433">
        <ele>636</ele>
        <time>2021-08-06T08:42:03.304Z</time>
      </trkpt>
      <trkpt lat="46.97344" lon="8.77433">
        <ele>636</ele>
        <time>2021-08-06T08:42:04.303Z</time>
      </trkpt>
      <trkpt lat="46.97343" lon="8.77431">
        <ele>636</ele>
        <time>2021-08-06T08:42:05.304Z</time>
      </trkpt>
      <trkpt lat="46.97342" lon="8.7743">
        <ele>635</ele>
        <time>2021-08-06T08:42:06.303Z</time>
      </trkpt>
      <trkpt lat="46.9734" lon="8.7743">
        <ele>635</ele>
        <time>2021-08-06T08:42:07.304Z</time>
      </trkpt>
      <trkpt lat="46.97338" lon="8.77431">
        <ele>635</ele>
        <time>2021-08-06T08:42:08.303Z</time>
      </trkpt>
      <trkpt lat="46.97336" lon="8.77431">
        <ele>635</ele>
        <time>2021-08-06T08:42:09.303Z</time>
      </trkpt>
      <trkpt lat="46.97335" lon="8.77432">
        <ele>634</ele>
        <time>2021-08-06T08:42:10.303Z</time>
      </trkpt>
      <trkpt lat="46.97334" lon="8.77432">
        <ele>634</ele>
        <time>2021-08-06T08:42:11.303Z</time>
      </trkpt>
      <trkpt lat="46.97332" lon="8.77432">
        <ele>634</ele>
        <time>2021-08-06T08:42:12.304Z</time>
      </trkpt>
      <trkpt lat="46.9733" lon="8.77431">
        <ele>633</ele>
        <time>2021-08-06T08:42:13.304Z</time>
      </trkpt>
      <trkpt lat="46.97329" lon="8.7743">
        <ele>633</ele>
        <time>2021-08-06T08:42:14.303Z</time>
      </trkpt>
      <trkpt lat="46.97328" lon="8.77429">
        <ele>633</ele>
        <time>2021-08-06T08:42:15.303Z</time>
      </trkpt>
      <trkpt lat="46.97327" lon="8.77428">
        <ele>633</ele>
        <time>2021-08-06T08:42:16.304Z</time>
      </trkpt>
      <trkpt lat="46.97326" lon="8.77426">
        <ele>633</ele>
        <time>2021-08-06T08:42:17.303Z</time>
      </trkpt>
      <trkpt lat="46.97325" lon="8.77425">
        <ele>634</ele>
        <time>2021-08-06T08:42:18.303Z</time>
      </trkpt>
      <trkpt lat="46.97325" lon="8.77424">
        <ele>634</ele>
        <time>2021-08-06T08:42:19.303Z</time>
      </trkpt>
      <trkpt lat="46.97324" lon="8.77424">
        <ele>634</ele>
        <time>2021-08-06T08:42:20.303Z</time>
      </trkpt>
      <trkpt lat="46.97323" lon="8.77423">
        <ele>634</ele>
        <time>2021-08-06T08:42:21.304Z</time>
      </trkpt>
      <trkpt lat="46.97323" lon="8.77423">
        <ele>634</ele>
        <time>2021-08-06T08:42:22.303Z</time>
      </trkpt>
      <trkpt lat="46.97322" lon="8.77421">
        <ele>634</ele>
        <time>2021-08-06T08:42:23.303Z</time>
      </trkpt>
      <trkpt lat="46.97322" lon="8.7742">
        <ele>633</ele>
        <time>2021-08-06T08:42:24.303Z</time>
      </trkpt>
      <trkpt lat="46.97322" lon="8.77419">
        <ele>633</ele>
        <time>2021-08-06T08:42:25.304Z</time>
      </trkpt>
      <trkpt lat="46.97321" lon="8.77417">
        <ele>634</ele>
        <time>2021-08-06T08:42:26.303Z</time>
      </trkpt>
      <trkpt lat="46.97321" lon="8.77416">
        <ele>634</ele>
        <time>2021-08-06T08:42:27.303Z</time>
      </trkpt>
      <trkpt lat="46.9732" lon="8.77415">
        <ele>635</ele>
        <time>2021-08-06T08:42:28.304Z</time>
      </trkpt>
      <trkpt lat="46.97319" lon="8.77413">
        <ele>635</ele>
        <time>2021-08-06T08:42:29.303Z</time>
      </trkpt>
      <trkpt lat="46.97318" lon="8.77412">
        <ele>635</ele>
        <time>2021-08-06T08:42:30.303Z</time>
      </trkpt>
      <trkpt lat="46.97318" lon="8.7741">
        <ele>635</ele>
        <time>2021-08-06T08:42:31.304Z</time>
      </trkpt>
      <trkpt lat="46.97318" lon="8.77408">
        <ele>635</ele>
        <time>2021-08-06T08:42:32.304Z</time>
      </trkpt>
      <trkpt lat="46.97317" lon="8.77407">
        <ele>635</ele>
        <time>2021-08-06T08:42:33.304Z</time>
      </trkpt>
      <trkpt lat="46.97317" lon="8.77406">
        <ele>635</ele>
        <time>2021-08-06T08:42:34.303Z</time>
      </trkpt>
      <trkpt lat="46.97315" lon="8.77405">
        <ele>635</ele>
        <time>2021-08-06T08:42:35.304Z</time>
      </trkpt>
      <trkpt lat="46.97314" lon="8.77404">
        <ele>635</ele>
        <time>2021-08-06T08:42:36.303Z</time>
      </trkpt>
      <trkpt lat="46.97313" lon="8.77401">
        <ele>635</ele>
        <time>2021-08-06T08:42:37.303Z</time>
      </trkpt>
      <trkpt lat="46.97312" lon="8.774">
        <ele>635</ele>
        <time>2021-08-06T08:42:38.303Z</time>
      </trkpt>
      <trkpt lat="46.97312" lon="8.77398">
        <ele>635</ele>
        <time>2021-08-06T08:42:39.304Z</time>
      </trkpt>
      <trkpt lat="46.97311" lon="8.77397">
        <ele>635</ele>
        <time>2021-08-06T08:42:40.304Z</time>
      </trkpt>
      <trkpt lat="46.97311" lon="8.77396">
        <ele>635</ele>
        <time>2021-08-06T08:42:41.303Z</time>
      </trkpt>
      <trkpt lat="46.9731" lon="8.77394">
        <ele>636</ele>
        <time>2021-08-06T08:42:42.303Z</time>
      </trkpt>
      <trkpt lat="46.9731" lon="8.77393">
        <ele>636</ele>
        <time>2021-08-06T08:42:43.304Z</time>
      </trkpt>
      <trkpt lat="46.97309" lon="8.77391">
        <ele>636</ele>
        <time>2021-08-06T08:42:44.304Z</time>
      </trkpt>
      <trkpt lat="46.97309" lon="8.7739">
        <ele>636</ele>
        <time>2021-08-06T08:42:45.303Z</time>
      </trkpt>
      <trkpt lat="46.97309" lon="8.77389">
        <ele>636</ele>
        <time>2021-08-06T08:42:46.303Z</time>
      </trkpt>
      <trkpt lat="46.97309" lon="8.77387">
        <ele>636</ele>
        <time>2021-08-06T08:42:47.304Z</time>
      </trkpt>
      <trkpt lat="46.97308" lon="8.77386">
        <ele>636</ele>
        <time>2021-08-06T08:42:48.304Z</time>
      </trkpt>
      <trkpt lat="46.97308" lon="8.77385">
        <ele>635</ele>
        <time>2021-08-06T08:42:49.303Z</time>
      </trkpt>
      <trkpt lat="46.97308" lon="8.77383">
        <ele>635</ele>
        <time>2021-08-06T08:42:50.303Z</time>
      </trkpt>
      <trkpt lat="46.97309" lon="8.77382">
        <ele>634</ele>
        <time>2021-08-06T08:42:51.303Z</time>
      </trkpt>
      <trkpt lat="46.97309" lon="8.77381">
        <ele>634</ele>
        <time>2021-08-06T08:42:52.304Z</time>
      </trkpt>
      <trkpt lat="46.9731" lon="8.77379">
        <ele>634</ele>
        <time>2021-08-06T08:42:53.303Z</time>
      </trkpt>
      <trkpt lat="46.9731" lon="8.77377">
        <ele>634</ele>
        <time>2021-08-06T08:42:54.303Z</time>
      </trkpt>
      <trkpt lat="46.97311" lon="8.77375">
        <ele>634</ele>
        <time>2021-08-06T08:42:55.303Z</time>
      </trkpt>
      <trkpt lat="46.97311" lon="8.77373">
        <ele>634</ele>
        <time>2021-08-06T08:42:56.303Z</time>
      </trkpt>
      <trkpt lat="46.97311" lon="8.77371">
        <ele>635</ele>
        <time>2021-08-06T08:42:57.303Z</time>
      </trkpt>
      <trkpt lat="46.9731" lon="8.7737">
        <ele>635</ele>
        <time>2021-08-06T08:42:58.303Z</time>
      </trkpt>
      <trkpt lat="46.9731" lon="8.77369">
        <ele>635</ele>
        <time>2021-08-06T08:42:59.303Z</time>
      </trkpt>
      <trkpt lat="46.97309" lon="8.77368">
        <ele>635</ele>
        <time>2021-08-06T08:43:00.303Z</time>
      </trkpt>
      <trkpt lat="46.97309" lon="8.77366">
        <ele>635</ele>
        <time>2021-08-06T08:43:01.303Z</time>
      </trkpt>
      <trkpt lat="46.97309" lon="8.77365">
        <ele>635</ele>
        <time>2021-08-06T08:43:02.303Z</time>
      </trkpt>
      <trkpt lat="46.97308" lon="8.77364">
        <ele>634</ele>
        <time>2021-08-06T08:43:03.303Z</time>
      </trkpt>
      <trkpt lat="46.97308" lon="8.77363">
        <ele>634</ele>
        <time>2021-08-06T08:43:04.303Z</time>
      </trkpt>
      <trkpt lat="46.97307" lon="8.77361">
        <ele>633</ele>
        <time>2021-08-06T08:43:05.303Z</time>
      </trkpt>
      <trkpt lat="46.97307" lon="8.77359">
        <ele>633</ele>
        <time>2021-08-06T08:43:06.304Z</time>
      </trkpt>
      <trkpt lat="46.97306" lon="8.77358">
        <ele>633</ele>
        <time>2021-08-06T08:43:07.304Z</time>
      </trkpt>
      <trkpt lat="46.97306" lon="8.77357">
        <ele>633</ele>
        <time>2021-08-06T08:43:08.303Z</time>
      </trkpt>
      <trkpt lat="46.97306" lon="8.77355">
        <ele>633</ele>
        <time>2021-08-06T08:43:09.304Z</time>
      </trkpt>
      <trkpt lat="46.97305" lon="8.77353">
        <ele>633</ele>
        <time>2021-08-06T08:43:10.303Z</time>
      </trkpt>
      <trkpt lat="46.97305" lon="8.77352">
        <ele>633</ele>
        <time>2021-08-06T08:43:11.304Z</time>
      </trkpt>
      <trkpt lat="46.97304" lon="8.7735">
        <ele>633</ele>
        <time>2021-08-06T08:43:12.303Z</time>
      </trkpt>
      <trkpt lat="46.97304" lon="8.77349">
        <ele>633</ele>
        <time>2021-08-06T08:43:13.304Z</time>
      </trkpt>
      <trkpt lat="46.97303" lon="8.77347">
        <ele>633</ele>
        <time>2021-08-06T08:43:14.303Z</time>
      </trkpt>
      <trkpt lat="46.97302" lon="8.77346">
        <ele>633</ele>
        <time>2021-08-06T08:43:15.303Z</time>
      </trkpt>
      <trkpt lat="46.97301" lon="8.77344">
        <ele>633</ele>
        <time>2021-08-06T08:43:16.304Z</time>
      </trkpt>
      <trkpt lat="46.973" lon="8.77342">
        <ele>633</ele>
        <time>2021-08-06T08:43:17.303Z</time>
      </trkpt>
      <trkpt lat="46.97299" lon="8.7734">
        <ele>633</ele>
        <time>2021-08-06T08:43:18.303Z</time>
      </trkpt>
      <trkpt lat="46.97299" lon="8.77338">
        <ele>632</ele>
        <time>2021-08-06T08:43:19.303Z</time>
      </trkpt>
      <trkpt lat="46.97298" lon="8.77336">
        <ele>632</ele>
        <time>2021-08-06T08:43:20.303Z</time>
      </trkpt>
      <trkpt lat="46.97298" lon="8.77335">
        <ele>631</ele>
        <time>2021-08-06T08:43:21.303Z</time>
      </trkpt>
      <trkpt lat="46.97298" lon="8.77334">
        <ele>631</ele>
        <time>2021-08-06T08:43:22.303Z</time>
      </trkpt>
      <trkpt lat="46.97298" lon="8.77332">
        <ele>631</ele>
        <time>2021-08-06T08:43:23.303Z</time>
      </trkpt>
      <trkpt lat="46.97298" lon="8.7733">
        <ele>631</ele>
        <time>2021-08-06T08:43:24.303Z</time>
      </trkpt>
      <trkpt lat="46.97297" lon="8.77328">
        <ele>632</ele>
        <time>2021-08-06T08:43:25.303Z</time>
      </trkpt>
      <trkpt lat="46.97297" lon="8.77327">
        <ele>632</ele>
        <time>2021-08-06T08:43:26.303Z</time>
      </trkpt>
      <trkpt lat="46.97296" lon="8.77325">
        <ele>632</ele>
        <time>2021-08-06T08:43:27.303Z</time>
      </trkpt>
      <trkpt lat="46.97295" lon="8.77324">
        <ele>632</ele>
        <time>2021-08-06T08:43:28.303Z</time>
      </trkpt>
      <trkpt lat="46.97294" lon="8.77322">
        <ele>631</ele>
        <time>2021-08-06T08:43:29.303Z</time>
      </trkpt>
      <trkpt lat="46.97293" lon="8.77321">
        <ele>631</ele>
        <time>2021-08-06T08:43:30.303Z</time>
      </trkpt>
      <trkpt lat="46.97292" lon="8.7732">
        <ele>630</ele>
        <time>2021-08-06T08:43:31.303Z</time>
      </trkpt>
      <trkpt lat="46.97291" lon="8.77319">
        <ele>630</ele>
        <time>2021-08-06T08:43:32.303Z</time>
      </trkpt>
      <trkpt lat="46.97291" lon="8.77317">
        <ele>630</ele>
        <time>2021-08-06T08:43:33.303Z</time>
      </trkpt>
      <trkpt lat="46.9729" lon="8.77316">
        <ele>629</ele>
        <time>2021-08-06T08:43:34.304Z</time>
      </trkpt>
      <trkpt lat="46.97289" lon="8.77315">
        <ele>629</ele>
        <time>2021-08-06T08:43:35.303Z</time>
      </trkpt>
      <trkpt lat="46.97288" lon="8.77313">
        <ele>628</ele>
        <time>2021-08-06T08:43:36.303Z</time>
      </trkpt>
      <trkpt lat="46.97287" lon="8.77312">
        <ele>628</ele>
        <time>2021-08-06T08:43:37.303Z</time>
      </trkpt>
      <trkpt lat="46.97286" lon="8.7731">
        <ele>628</ele>
        <time>2021-08-06T08:43:38.303Z</time>
      </trkpt>
      <trkpt lat="46.97286" lon="8.77308">
        <ele>628</ele>
        <time>2021-08-06T08:43:39.303Z</time>
      </trkpt>
      <trkpt lat="46.97285" lon="8.77306">
        <ele>628</ele>
        <time>2021-08-06T08:43:40.303Z</time>
      </trkpt>
      <trkpt lat="46.97284" lon="8.77305">
        <ele>629</ele>
        <time>2021-08-06T08:43:41.303Z</time>
      </trkpt>
      <trkpt lat="46.97283" lon="8.77304">
        <ele>629</ele>
        <time>2021-08-06T08:43:42.303Z</time>
      </trkpt>
      <trkpt lat="46.97283" lon="8.77302">
        <ele>629</ele>
        <time>2021-08-06T08:43:43.303Z</time>
      </trkpt>
      <trkpt lat="46.97282" lon="8.77301">
        <ele>630</ele>
        <time>2021-08-06T08:43:44.303Z</time>
      </trkpt>
      <trkpt lat="46.97282" lon="8.773">
        <ele>630</ele>
        <time>2021-08-06T08:43:45.303Z</time>
      </trkpt>
      <trkpt lat="46.97282" lon="8.77299">
        <ele>630</ele>
        <time>2021-08-06T08:43:46.303Z</time>
      </trkpt>
      <trkpt lat="46.97281" lon="8.77297">
        <ele>631</ele>
        <time>2021-08-06T08:43:47.303Z</time>
      </trkpt>
      <trkpt lat="46.97281" lon="8.77296">
        <ele>631</ele>
        <time>2021-08-06T08:43:48.303Z</time>
      </trkpt>
      <trkpt lat="46.9728" lon="8.77295">
        <ele>631</ele>
        <time>2021-08-06T08:43:49.303Z</time>
      </trkpt>
      <trkpt lat="46.9728" lon="8.77295">
        <ele>632</ele>
        <time>2021-08-06T08:43:50.303Z</time>
      </trkpt>
      <trkpt lat="46.9728" lon="8.77291">
        <ele>631</ele>
        <time>2021-08-06T08:43:51.305Z</time>
      </trkpt>
      <trkpt lat="46.9728" lon="8.77289">
        <ele>630</ele>
        <time>2021-08-06T08:43:52.305Z</time>
      </trkpt>
      <trkpt lat="46.97279" lon="8.77288">
        <ele>630</ele>
        <time>2021-08-06T08:43:53.304Z</time>
      </trkpt>
      <trkpt lat="46.97279" lon="8.77287">
        <ele>630</ele>
        <time>2021-08-06T08:43:54.305Z</time>
      </trkpt>
      <trkpt lat="46.97279" lon="8.77287">
        <ele>630</ele>
        <time>2021-08-06T08:43:55.305Z</time>
      </trkpt>
      <trkpt lat="46.97278" lon="8.77286">
        <ele>630</ele>
        <time>2021-08-06T08:43:56.305Z</time>
      </trkpt>
      <trkpt lat="46.97278" lon="8.77285">
        <ele>629</ele>
        <time>2021-08-06T08:43:57.305Z</time>
      </trkpt>
      <trkpt lat="46.97277" lon="8.77283">
        <ele>629</ele>
        <time>2021-08-06T08:43:58.305Z</time>
      </trkpt>
      <trkpt lat="46.97276" lon="8.77282">
        <ele>628</ele>
        <time>2021-08-06T08:43:59.305Z</time>
      </trkpt>
      <trkpt lat="46.97276" lon="8.77281">
        <ele>628</ele>
        <time>2021-08-06T08:44:00.305Z</time>
      </trkpt>
      <trkpt lat="46.97276" lon="8.7728">
        <ele>628</ele>
        <time>2021-08-06T08:44:01.304Z</time>
      </trkpt>
      <trkpt lat="46.97275" lon="8.77279">
        <ele>629</ele>
        <time>2021-08-06T08:44:02.304Z</time>
      </trkpt>
      <trkpt lat="46.97275" lon="8.77278">
        <ele>629</ele>
        <time>2021-08-06T08:44:03.305Z</time>
      </trkpt>
      <trkpt lat="46.97274" lon="8.77276">
        <ele>630</ele>
        <time>2021-08-06T08:44:04.305Z</time>
      </trkpt>
      <trkpt lat="46.97274" lon="8.77275">
        <ele>630</ele>
        <time>2021-08-06T08:44:05.305Z</time>
      </trkpt>
      <trkpt lat="46.97273" lon="8.77273">
        <ele>631</ele>
        <time>2021-08-06T08:44:06.304Z</time>
      </trkpt>
      <trkpt lat="46.97273" lon="8.77271">
        <ele>631</ele>
        <time>2021-08-06T08:44:07.304Z</time>
      </trkpt>
      <trkpt lat="46.97272" lon="8.7727">
        <ele>631</ele>
        <time>2021-08-06T08:44:08.304Z</time>
      </trkpt>
      <trkpt lat="46.97271" lon="8.77268">
        <ele>631</ele>
        <time>2021-08-06T08:44:09.304Z</time>
      </trkpt>
      <trkpt lat="46.97271" lon="8.77266">
        <ele>631</ele>
        <time>2021-08-06T08:44:10.304Z</time>
      </trkpt>
      <trkpt lat="46.9727" lon="8.77265">
        <ele>632</ele>
        <time>2021-08-06T08:44:11.305Z</time>
      </trkpt>
      <trkpt lat="46.9727" lon="8.77264">
        <ele>632</ele>
        <time>2021-08-06T08:44:12.305Z</time>
      </trkpt>
      <trkpt lat="46.9727" lon="8.77262">
        <ele>632</ele>
        <time>2021-08-06T08:44:13.304Z</time>
      </trkpt>
      <trkpt lat="46.9727" lon="8.7726">
        <ele>633</ele>
        <time>2021-08-06T08:44:14.305Z</time>
      </trkpt>
      <trkpt lat="46.9727" lon="8.77259">
        <ele>633</ele>
        <time>2021-08-06T08:44:15.304Z</time>
      </trkpt>
      <trkpt lat="46.97269" lon="8.77259">
        <ele>633</ele>
        <time>2021-08-06T08:44:16.304Z</time>
      </trkpt>
      <trkpt lat="46.97269" lon="8.77258">
        <ele>633</ele>
        <time>2021-08-06T08:44:17.305Z</time>
      </trkpt>
      <trkpt lat="46.97268" lon="8.77257">
        <ele>633</ele>
        <time>2021-08-06T08:44:18.305Z</time>
      </trkpt>
      <trkpt lat="46.97267" lon="8.77256">
        <ele>633</ele>
        <time>2021-08-06T08:44:19.305Z</time>
      </trkpt>
      <trkpt lat="46.97267" lon="8.77254">
        <ele>633</ele>
        <time>2021-08-06T08:44:20.305Z</time>
      </trkpt>
      <trkpt lat="46.97268" lon="8.77253">
        <ele>633</ele>
        <time>2021-08-06T08:44:21.305Z</time>
      </trkpt>
      <trkpt lat="46.97268" lon="8.77252">
        <ele>633</ele>
        <time>2021-08-06T08:44:22.304Z</time>
      </trkpt>
      <trkpt lat="46.97268" lon="8.77249">
        <ele>633</ele>
        <time>2021-08-06T08:44:23.304Z</time>
      </trkpt>
      <trkpt lat="46.97267" lon="8.77247">
        <ele>632</ele>
        <time>2021-08-06T08:44:24.305Z</time>
      </trkpt>
      <trkpt lat="46.97267" lon="8.77246">
        <ele>632</ele>
        <time>2021-08-06T08:44:25.305Z</time>
      </trkpt>
      <trkpt lat="46.97266" lon="8.77244">
        <ele>632</ele>
        <time>2021-08-06T08:44:26.305Z</time>
      </trkpt>
      <trkpt lat="46.97266" lon="8.77242">
        <ele>632</ele>
        <time>2021-08-06T08:44:27.305Z</time>
      </trkpt>
      <trkpt lat="46.97265" lon="8.7724">
        <ele>632</ele>
        <time>2021-08-06T08:44:28.305Z</time>
      </trkpt>
      <trkpt lat="46.97264" lon="8.77239">
        <ele>631</ele>
        <time>2021-08-06T08:44:29.305Z</time>
      </trkpt>
      <trkpt lat="46.97263" lon="8.77239">
        <ele>631</ele>
        <time>2021-08-06T08:44:30.305Z</time>
      </trkpt>
      <trkpt lat="46.97263" lon="8.77238">
        <ele>631</ele>
        <time>2021-08-06T08:44:31.305Z</time>
      </trkpt>
      <trkpt lat="46.97262" lon="8.77236">
        <ele>631</ele>
        <time>2021-08-06T08:44:32.305Z</time>
      </trkpt>
      <trkpt lat="46.97262" lon="8.77235">
        <ele>631</ele>
        <time>2021-08-06T08:44:33.304Z</time>
      </trkpt>
      <trkpt lat="46.97261" lon="8.77234">
        <ele>630</ele>
        <time>2021-08-06T08:44:34.305Z</time>
      </trkpt>
      <trkpt lat="46.97261" lon="8.77232">
        <ele>631</ele>
        <time>2021-08-06T08:44:35.304Z</time>
      </trkpt>
      <trkpt lat="46.9726" lon="8.77231">
        <ele>631</ele>
        <time>2021-08-06T08:44:36.305Z</time>
      </trkpt>
      <trkpt lat="46.97259" lon="8.77229">
        <ele>631</ele>
        <time>2021-08-06T08:44:37.304Z</time>
      </trkpt>
      <trkpt lat="46.97259" lon="8.77228">
        <ele>630</ele>
        <time>2021-08-06T08:44:38.304Z</time>
      </trkpt>
      <trkpt lat="46.97258" lon="8.77226">
        <ele>630</ele>
        <time>2021-08-06T08:44:39.304Z</time>
      </trkpt>
      <trkpt lat="46.97257" lon="8.77225">
        <ele>630</ele>
        <time>2021-08-06T08:44:40.305Z</time>
      </trkpt>
      <trkpt lat="46.97256" lon="8.77222">
        <ele>630</ele>
        <time>2021-08-06T08:44:41.304Z</time>
      </trkpt>
      <trkpt lat="46.97255" lon="8.7722">
        <ele>630</ele>
        <time>2021-08-06T08:44:42.305Z</time>
      </trkpt>
      <trkpt lat="46.97254" lon="8.77218">
        <ele>630</ele>
        <time>2021-08-06T08:44:43.305Z</time>
      </trkpt>
      <trkpt lat="46.97254" lon="8.77216">
        <ele>630</ele>
        <time>2021-08-06T08:44:44.304Z</time>
      </trkpt>
      <trkpt lat="46.97253" lon="8.77215">
        <ele>630</ele>
        <time>2021-08-06T08:44:45.305Z</time>
      </trkpt>
      <trkpt lat="46.97253" lon="8.77214">
        <ele>630</ele>
        <time>2021-08-06T08:44:46.305Z</time>
      </trkpt>
      <trkpt lat="46.97252" lon="8.77213">
        <ele>631</ele>
        <time>2021-08-06T08:44:47.305Z</time>
      </trkpt>
      <trkpt lat="46.97251" lon="8.77211">
        <ele>631</ele>
        <time>2021-08-06T08:44:48.304Z</time>
      </trkpt>
      <trkpt lat="46.97251" lon="8.7721">
        <ele>631</ele>
        <time>2021-08-06T08:44:49.304Z</time>
      </trkpt>
      <trkpt lat="46.9725" lon="8.77208">
        <ele>631</ele>
        <time>2021-08-06T08:44:50.305Z</time>
      </trkpt>
      <trkpt lat="46.9725" lon="8.77207">
        <ele>631</ele>
        <time>2021-08-06T08:44:51.304Z</time>
      </trkpt>
      <trkpt lat="46.97249" lon="8.77206">
        <ele>631</ele>
        <time>2021-08-06T08:44:52.305Z</time>
      </trkpt>
      <trkpt lat="46.97249" lon="8.77205">
        <ele>631</ele>
        <time>2021-08-06T08:44:53.305Z</time>
      </trkpt>
      <trkpt lat="46.97249" lon="8.77203">
        <ele>631</ele>
        <time>2021-08-06T08:44:54.305Z</time>
      </trkpt>
      <trkpt lat="46.97249" lon="8.77202">
        <ele>631</ele>
        <time>2021-08-06T08:44:55.305Z</time>
      </trkpt>
      <trkpt lat="46.97249" lon="8.772">
        <ele>631</ele>
        <time>2021-08-06T08:44:56.304Z</time>
      </trkpt>
      <trkpt lat="46.97249" lon="8.77199">
        <ele>631</ele>
        <time>2021-08-06T08:44:57.305Z</time>
      </trkpt>
      <trkpt lat="46.97247" lon="8.77198">
        <ele>631</ele>
        <time>2021-08-06T08:44:58.305Z</time>
      </trkpt>
      <trkpt lat="46.97247" lon="8.77198">
        <ele>631</ele>
        <time>2021-08-06T08:44:59.305Z</time>
      </trkpt>
      <trkpt lat="46.97246" lon="8.77198">
        <ele>631</ele>
        <time>2021-08-06T08:45:00.305Z</time>
      </trkpt>
      <trkpt lat="46.97246" lon="8.77198">
        <ele>631</ele>
        <time>2021-08-06T08:45:01.305Z</time>
      </trkpt>
      <trkpt lat="46.97246" lon="8.77197">
        <ele>630</ele>
        <time>2021-08-06T08:45:02.305Z</time>
      </trkpt>
      <trkpt lat="46.97246" lon="8.77197">
        <ele>630</ele>
        <time>2021-08-06T08:45:03.305Z</time>
      </trkpt>
      <trkpt lat="46.97245" lon="8.77195">
        <ele>631</ele>
        <time>2021-08-06T08:45:04.304Z</time>
      </trkpt>
      <trkpt lat="46.97245" lon="8.77194">
        <ele>631</ele>
        <time>2021-08-06T08:45:05.305Z</time>
      </trkpt>
      <trkpt lat="46.97244" lon="8.77194">
        <ele>631</ele>
        <time>2021-08-06T08:45:06.304Z</time>
      </trkpt>
      <trkpt lat="46.97244" lon="8.77193">
        <ele>631</ele>
        <time>2021-08-06T08:45:07.305Z</time>
      </trkpt>
      <trkpt lat="46.97243" lon="8.77191">
        <ele>631</ele>
        <time>2021-08-06T08:45:08.305Z</time>
      </trkpt>
      <trkpt lat="46.97243" lon="8.7719">
        <ele>631</ele>
        <time>2021-08-06T08:45:09.305Z</time>
      </trkpt>
      <trkpt lat="46.97243" lon="8.77191">
        <ele>631</ele>
        <time>2021-08-06T08:45:10.305Z</time>
      </trkpt>
      <trkpt lat="46.97243" lon="8.77192">
        <ele>631</ele>
        <time>2021-08-06T08:45:11.304Z</time>
      </trkpt>
      <trkpt lat="46.97243" lon="8.77194">
        <ele>631</ele>
        <time>2021-08-06T08:45:12.305Z</time>
      </trkpt>
      <trkpt lat="46.97244" lon="8.77195">
        <ele>631</ele>
        <time>2021-08-06T08:45:13.304Z</time>
      </trkpt>
      <trkpt lat="46.97244" lon="8.77196">
        <ele>632</ele>
        <time>2021-08-06T08:45:14.305Z</time>
      </trkpt>
      <trkpt lat="46.97245" lon="8.77197">
        <ele>632</ele>
        <time>2021-08-06T08:45:15.305Z</time>
      </trkpt>
      <trkpt lat="46.97245" lon="8.77198">
        <ele>633</ele>
        <time>2021-08-06T08:45:16.305Z</time>
      </trkpt>
      <trkpt lat="46.97245" lon="8.772">
        <ele>633</ele>
        <time>2021-08-06T08:45:17.305Z</time>
      </trkpt>
      <trkpt lat="46.97244" lon="8.77202">
        <ele>633</ele>
        <time>2021-08-06T08:45:18.305Z</time>
      </trkpt>
      <trkpt lat="46.97244" lon="8.77204">
        <ele>633</ele>
        <time>2021-08-06T08:45:19.305Z</time>
      </trkpt>
      <trkpt lat="46.97244" lon="8.77205">
        <ele>633</ele>
        <time>2021-08-06T08:45:20.304Z</time>
      </trkpt>
      <trkpt lat="46.97243" lon="8.77206">
        <ele>633</ele>
        <time>2021-08-06T08:45:21.305Z</time>
      </trkpt>
      <trkpt lat="46.97242" lon="8.77207">
        <ele>633</ele>
        <time>2021-08-06T08:45:22.305Z</time>
      </trkpt>
      <trkpt lat="46.97241" lon="8.77207">
        <ele>632</ele>
        <time>2021-08-06T08:45:23.305Z</time>
      </trkpt>
      <trkpt lat="46.9724" lon="8.77207">
        <ele>632</ele>
        <time>2021-08-06T08:45:24.304Z</time>
      </trkpt>
      <trkpt lat="46.97239" lon="8.77207">
        <ele>632</ele>
        <time>2021-08-06T08:45:25.305Z</time>
      </trkpt>
      <trkpt lat="46.97239" lon="8.77207">
        <ele>632</ele>
        <time>2021-08-06T08:45:26.305Z</time>
      </trkpt>
      <trkpt lat="46.97238" lon="8.77208">
        <ele>632</ele>
        <time>2021-08-06T08:45:27.304Z</time>
      </trkpt>
      <trkpt lat="46.97237" lon="8.77208">
        <ele>631</ele>
        <time>2021-08-06T08:45:28.305Z</time>
      </trkpt>
      <trkpt lat="46.97236" lon="8.77208">
        <ele>631</ele>
        <time>2021-08-06T08:45:29.305Z</time>
      </trkpt>
      <trkpt lat="46.97235" lon="8.77208">
        <ele>630</ele>
        <time>2021-08-06T08:45:30.305Z</time>
      </trkpt>
      <trkpt lat="46.97234" lon="8.77208">
        <ele>630</ele>
        <time>2021-08-06T08:45:31.305Z</time>
      </trkpt>
      <trkpt lat="46.97233" lon="8.77208">
        <ele>630</ele>
        <time>2021-08-06T08:45:32.305Z</time>
      </trkpt>
      <trkpt lat="46.97232" lon="8.77208">
        <ele>630</ele>
        <time>2021-08-06T08:45:33.305Z</time>
      </trkpt>
      <trkpt lat="46.9723" lon="8.77209">
        <ele>630</ele>
        <time>2021-08-06T08:45:34.305Z</time>
      </trkpt>
      <trkpt lat="46.97229" lon="8.77209">
        <ele>630</ele>
        <time>2021-08-06T08:45:35.305Z</time>
      </trkpt>
      <trkpt lat="46.97228" lon="8.7721">
        <ele>630</ele>
        <time>2021-08-06T08:45:36.305Z</time>
      </trkpt>
      <trkpt lat="46.97226" lon="8.7721">
        <ele>630</ele>
        <time>2021-08-06T08:45:37.305Z</time>
      </trkpt>
      <trkpt lat="46.97225" lon="8.77211">
        <ele>630</ele>
        <time>2021-08-06T08:45:38.305Z</time>
      </trkpt>
      <trkpt lat="46.97225" lon="8.77211">
        <ele>630</ele>
        <time>2021-08-06T08:45:39.304Z</time>
      </trkpt>
      <trkpt lat="46.97224" lon="8.7721">
        <ele>630</ele>
        <time>2021-08-06T08:45:40.304Z</time>
      </trkpt>
      <trkpt lat="46.97223" lon="8.77211">
        <ele>629</ele>
        <time>2021-08-06T08:45:41.304Z</time>
      </trkpt>
      <trkpt lat="46.97221" lon="8.77211">
        <ele>629</ele>
        <time>2021-08-06T08:45:42.305Z</time>
      </trkpt>
      <trkpt lat="46.9722" lon="8.7721">
        <ele>629</ele>
        <time>2021-08-06T08:45:43.304Z</time>
      </trkpt>
      <trkpt lat="46.97219" lon="8.77211">
        <ele>629</ele>
        <time>2021-08-06T08:45:44.304Z</time>
      </trkpt>
      <trkpt lat="46.97217" lon="8.77211">
        <ele>630</ele>
        <time>2021-08-06T08:45:45.305Z</time>
      </trkpt>
      <trkpt lat="46.97216" lon="8.77211">
        <ele>630</ele>
        <time>2021-08-06T08:45:46.305Z</time>
      </trkpt>
      <trkpt lat="46.97215" lon="8.77211">
        <ele>630</ele>
        <time>2021-08-06T08:45:47.305Z</time>
      </trkpt>
      <trkpt lat="46.97214" lon="8.77211">
        <ele>630</ele>
        <time>2021-08-06T08:45:48.305Z</time>
      </trkpt>
      <trkpt lat="46.97212" lon="8.77211">
        <ele>631</ele>
        <time>2021-08-06T08:45:49.305Z</time>
      </trkpt>
      <trkpt lat="46.97211" lon="8.77212">
        <ele>631</ele>
        <time>2021-08-06T08:45:50.305Z</time>
      </trkpt>
      <trkpt lat="46.97209" lon="8.77212">
        <ele>631</ele>
        <time>2021-08-06T08:45:51.305Z</time>
      </trkpt>
      <trkpt lat="46.97208" lon="8.77213">
        <ele>631</ele>
        <time>2021-08-06T08:45:52.304Z</time>
      </trkpt>
      <trkpt lat="46.97207" lon="8.77213">
        <ele>631</ele>
        <time>2021-08-06T08:45:53.304Z</time>
      </trkpt>
      <trkpt lat="46.97206" lon="8.77213">
        <ele>631</ele>
        <time>2021-08-06T08:45:54.304Z</time>
      </trkpt>
      <trkpt lat="46.97205" lon="8.77213">
        <ele>631</ele>
        <time>2021-08-06T08:45:55.305Z</time>
      </trkpt>
      <trkpt lat="46.97203" lon="8.77213">
        <ele>631</ele>
        <time>2021-08-06T08:45:56.305Z</time>
      </trkpt>
      <trkpt lat="46.97202" lon="8.77213">
        <ele>632</ele>
        <time>2021-08-06T08:45:57.304Z</time>
      </trkpt>
      <trkpt lat="46.972" lon="8.77212">
        <ele>632</ele>
        <time>2021-08-06T08:45:58.305Z</time>
      </trkpt>
      <trkpt lat="46.97199" lon="8.77212">
        <ele>633</ele>
        <time>2021-08-06T08:45:59.304Z</time>
      </trkpt>
      <trkpt lat="46.97197" lon="8.77212">
        <ele>633</ele>
        <time>2021-08-06T08:46:00.305Z</time>
      </trkpt>
      <trkpt lat="46.97196" lon="8.77212">
        <ele>633</ele>
        <time>2021-08-06T08:46:01.305Z</time>
      </trkpt>
      <trkpt lat="46.97195" lon="8.77211">
        <ele>634</ele>
        <time>2021-08-06T08:46:02.305Z</time>
      </trkpt>
      <trkpt lat="46.97193" lon="8.77211">
        <ele>634</ele>
        <time>2021-08-06T08:46:03.305Z</time>
      </trkpt>
      <trkpt lat="46.97192" lon="8.77211">
        <ele>634</ele>
        <time>2021-08-06T08:46:04.304Z</time>
      </trkpt>
      <trkpt lat="46.97191" lon="8.77211">
        <ele>634</ele>
        <time>2021-08-06T08:46:05.304Z</time>
      </trkpt>
      <trkpt lat="46.97189" lon="8.7721">
        <ele>634</ele>
        <time>2021-08-06T08:46:06.304Z</time>
      </trkpt>
      <trkpt lat="46.97188" lon="8.7721">
        <ele>634</ele>
        <time>2021-08-06T08:46:07.304Z</time>
      </trkpt>
      <trkpt lat="46.97187" lon="8.7721">
        <ele>634</ele>
        <time>2021-08-06T08:46:08.305Z</time>
      </trkpt>
      <trkpt lat="46.97186" lon="8.7721">
        <ele>634</ele>
        <time>2021-08-06T08:46:09.305Z</time>
      </trkpt>
      <trkpt lat="46.97185" lon="8.7721">
        <ele>634</ele>
        <time>2021-08-06T08:46:10.304Z</time>
      </trkpt>
      <trkpt lat="46.97185" lon="8.7721">
        <ele>634</ele>
        <time>2021-08-06T08:46:11.304Z</time>
      </trkpt>
      <trkpt lat="46.97184" lon="8.77209">
        <ele>635</ele>
        <time>2021-08-06T08:46:12.305Z</time>
      </trkpt>
      <trkpt lat="46.97183" lon="8.77209">
        <ele>635</ele>
        <time>2021-08-06T08:46:13.305Z</time>
      </trkpt>
      <trkpt lat="46.97182" lon="8.77208">
        <ele>635</ele>
        <time>2021-08-06T08:46:14.305Z</time>
      </trkpt>
      <trkpt lat="46.9718" lon="8.77208">
        <ele>635</ele>
        <time>2021-08-06T08:46:15.304Z</time>
      </trkpt>
      <trkpt lat="46.97179" lon="8.77209">
        <ele>635</ele>
        <time>2021-08-06T08:46:16.304Z</time>
      </trkpt>
      <trkpt lat="46.97178" lon="8.77209">
        <ele>635</ele>
        <time>2021-08-06T08:46:17.305Z</time>
      </trkpt>
      <trkpt lat="46.97177" lon="8.77209">
        <ele>635</ele>
        <time>2021-08-06T08:46:18.304Z</time>
      </trkpt>
      <trkpt lat="46.97177" lon="8.77209">
        <ele>634</ele>
        <time>2021-08-06T08:46:19.305Z</time>
      </trkpt>
      <trkpt lat="46.97176" lon="8.7721">
        <ele>634</ele>
        <time>2021-08-06T08:46:20.304Z</time>
      </trkpt>
      <trkpt lat="46.97175" lon="8.77211">
        <ele>634</ele>
        <time>2021-08-06T08:46:21.304Z</time>
      </trkpt>
      <trkpt lat="46.97174" lon="8.77211">
        <ele>634</ele>
        <time>2021-08-06T08:46:22.304Z</time>
      </trkpt>
      <trkpt lat="46.97173" lon="8.77212">
        <ele>635</ele>
        <time>2021-08-06T08:46:23.305Z</time>
      </trkpt>
      <trkpt lat="46.97172" lon="8.77211">
        <ele>635</ele>
        <time>2021-08-06T08:46:24.305Z</time>
      </trkpt>
      <trkpt lat="46.97172" lon="8.7721">
        <ele>635</ele>
        <time>2021-08-06T08:46:25.304Z</time>
      </trkpt>
      <trkpt lat="46.97171" lon="8.77209">
        <ele>634</ele>
        <time>2021-08-06T08:46:26.304Z</time>
      </trkpt>
      <trkpt lat="46.97171" lon="8.77208">
        <ele>634</ele>
        <time>2021-08-06T08:46:27.304Z</time>
      </trkpt>
      <trkpt lat="46.97171" lon="8.77206">
        <ele>634</ele>
        <time>2021-08-06T08:46:28.305Z</time>
      </trkpt>
      <trkpt lat="46.97171" lon="8.77206">
        <ele>634</ele>
        <time>2021-08-06T08:46:29.304Z</time>
      </trkpt>
      <trkpt lat="46.97171" lon="8.77206">
        <ele>634</ele>
        <time>2021-08-06T08:46:30.304Z</time>
      </trkpt>
      <trkpt lat="46.97172" lon="8.77206">
        <ele>635</ele>
        <time>2021-08-06T08:46:31.304Z</time>
      </trkpt>
      <trkpt lat="46.97172" lon="8.77205">
        <ele>635</ele>
        <time>2021-08-06T08:46:32.304Z</time>
      </trkpt>
      <trkpt lat="46.97171" lon="8.77205">
        <ele>635</ele>
        <time>2021-08-06T08:46:33.305Z</time>
      </trkpt>
      <trkpt lat="46.97171" lon="8.77205">
        <ele>635</ele>
        <time>2021-08-06T08:46:34.305Z</time>
      </trkpt>
      <trkpt lat="46.97171" lon="8.77204">
        <ele>635</ele>
        <time>2021-08-06T08:46:35.304Z</time>
      </trkpt>
      <trkpt lat="46.97172" lon="8.77205">
        <ele>634</ele>
        <time>2021-08-06T08:46:36.304Z</time>
      </trkpt>
      <trkpt lat="46.97172" lon="8.77204">
        <ele>634</ele>
        <time>2021-08-06T08:46:37.304Z</time>
      </trkpt>
      <trkpt lat="46.97172" lon="8.77204">
        <ele>634</ele>
        <time>2021-08-06T08:46:38.304Z</time>
      </trkpt>
      <trkpt lat="46.97173" lon="8.77203">
        <ele>633</ele>
        <time>2021-08-06T08:46:39.305Z</time>
      </trkpt>
      <trkpt lat="46.97173" lon="8.77203">
        <ele>633</ele>
        <time>2021-08-06T08:46:40.304Z</time>
      </trkpt>
      <trkpt lat="46.97174" lon="8.77203">
        <ele>633</ele>
        <time>2021-08-06T08:46:41.304Z</time>
      </trkpt>
      <trkpt lat="46.97174" lon="8.77202">
        <ele>633</ele>
        <time>2021-08-06T08:46:42.304Z</time>
      </trkpt>
      <trkpt lat="46.97174" lon="8.77202">
        <ele>632</ele>
        <time>2021-08-06T08:46:43.305Z</time>
      </trkpt>
      <trkpt lat="46.97174" lon="8.77201">
        <ele>632</ele>
        <time>2021-08-06T08:46:44.304Z</time>
      </trkpt>
      <trkpt lat="46.97173" lon="8.772">
        <ele>632</ele>
        <time>2021-08-06T08:46:45.304Z</time>
      </trkpt>
      <trkpt lat="46.97173" lon="8.77199">
        <ele>632</ele>
        <time>2021-08-06T08:46:46.305Z</time>
      </trkpt>
      <trkpt lat="46.97173" lon="8.77198">
        <ele>632</ele>
        <time>2021-08-06T08:46:47.305Z</time>
      </trkpt>
      <trkpt lat="46.97173" lon="8.77198">
        <ele>633</ele>
        <time>2021-08-06T08:46:48.304Z</time>
      </trkpt>
      <trkpt lat="46.97173" lon="8.77197">
        <ele>633</ele>
        <time>2021-08-06T08:46:49.304Z</time>
      </trkpt>
      <trkpt lat="46.97173" lon="8.77197">
        <ele>633</ele>
        <time>2021-08-06T08:46:50.304Z</time>
      </trkpt>
      <trkpt lat="46.97173" lon="8.77196">
        <ele>633</ele>
        <time>2021-08-06T08:46:51.304Z</time>
      </trkpt>
      <trkpt lat="46.97173" lon="8.77195">
        <ele>634</ele>
        <time>2021-08-06T08:46:52.304Z</time>
      </trkpt>
      <trkpt lat="46.97173" lon="8.77195">
        <ele>634</ele>
        <time>2021-08-06T08:46:53.305Z</time>
      </trkpt>
      <trkpt lat="46.97173" lon="8.77195">
        <ele>634</ele>
        <time>2021-08-06T08:46:54.305Z</time>
      </trkpt>
      <trkpt lat="46.97174" lon="8.77194">
        <ele>635</ele>
        <time>2021-08-06T08:46:55.304Z</time>
      </trkpt>
      <trkpt lat="46.97174" lon="8.77194">
        <ele>636</ele>
        <time>2021-08-06T08:46:56.305Z</time>
      </trkpt>
      <trkpt lat="46.97175" lon="8.77193">
        <ele>636</ele>
        <time>2021-08-06T08:46:57.305Z</time>
      </trkpt>
      <trkpt lat="46.97175" lon="8.77193">
        <ele>636</ele>
        <time>2021-08-06T08:46:58.304Z</time>
      </trkpt>
      <trkpt lat="46.97175" lon="8.77193">
        <ele>636</ele>
        <time>2021-08-06T08:46:59.305Z</time>
      </trkpt>
      <trkpt lat="46.97175" lon="8.77192">
        <ele>636</ele>
        <time>2021-08-06T08:47:00.305Z</time>
      </trkpt>
      <trkpt lat="46.97175" lon="8.77191">
        <ele>637</ele>
        <time>2021-08-06T08:47:01.305Z</time>
      </trkpt>
      <trkpt lat="46.97175" lon="8.77191">
        <ele>637</ele>
        <time>2021-08-06T08:47:02.305Z</time>
      </trkpt>
      <trkpt lat="46.97175" lon="8.77191">
        <ele>638</ele>
        <time>2021-08-06T08:47:03.305Z</time>
      </trkpt>
      <trkpt lat="46.97175" lon="8.7719">
        <ele>638</ele>
        <time>2021-08-06T08:47:04.304Z</time>
      </trkpt>
      <trkpt lat="46.97175" lon="8.7719">
        <ele>639</ele>
        <time>2021-08-06T08:47:05.304Z</time>
      </trkpt>
      <trkpt lat="46.97176" lon="8.77189">
        <ele>639</ele>
        <time>2021-08-06T08:47:06.305Z</time>
      </trkpt>
      <trkpt lat="46.97176" lon="8.77189">
        <ele>639</ele>
        <time>2021-08-06T08:47:07.305Z</time>
      </trkpt>
      <trkpt lat="46.97177" lon="8.77188">
        <ele>639</ele>
        <time>2021-08-06T08:47:08.304Z</time>
      </trkpt>
      <trkpt lat="46.97177" lon="8.77188">
        <ele>639</ele>
        <time>2021-08-06T08:47:09.304Z</time>
      </trkpt>
      <trkpt lat="46.97177" lon="8.77188">
        <ele>639</ele>
        <time>2021-08-06T08:47:10.305Z</time>
      </trkpt>
      <trkpt lat="46.97178" lon="8.77188">
        <ele>640</ele>
        <time>2021-08-06T08:47:11.305Z</time>
      </trkpt>
      <trkpt lat="46.97178" lon="8.77188">
        <ele>640</ele>
        <time>2021-08-06T08:47:12.305Z</time>
      </trkpt>
      <trkpt lat="46.97178" lon="8.77187">
        <ele>640</ele>
        <time>2021-08-06T08:47:13.304Z</time>
      </trkpt>
      <trkpt lat="46.97178" lon="8.77187">
        <ele>640</ele>
        <time>2021-08-06T08:47:14.305Z</time>
      </trkpt>
      <trkpt lat="46.97178" lon="8.77186">
        <ele>641</ele>
        <time>2021-08-06T08:47:15.305Z</time>
      </trkpt>
      <trkpt lat="46.97178" lon="8.77186">
        <ele>641</ele>
        <time>2021-08-06T08:47:16.305Z</time>
      </trkpt>
      <trkpt lat="46.97178" lon="8.77185">
        <ele>641</ele>
        <time>2021-08-06T08:47:17.304Z</time>
      </trkpt>
      <trkpt lat="46.97179" lon="8.77184">
        <ele>642</ele>
        <time>2021-08-06T08:47:18.304Z</time>
      </trkpt>
      <trkpt lat="46.97179" lon="8.77184">
        <ele>642</ele>
        <time>2021-08-06T08:47:19.305Z</time>
      </trkpt>
      <trkpt lat="46.97179" lon="8.77183">
        <ele>643</ele>
        <time>2021-08-06T08:47:20.305Z</time>
      </trkpt>
      <trkpt lat="46.9718" lon="8.77182">
        <ele>643</ele>
        <time>2021-08-06T08:47:21.304Z</time>
      </trkpt>
      <trkpt lat="46.9718" lon="8.77182">
        <ele>643</ele>
        <time>2021-08-06T08:47:22.304Z</time>
      </trkpt>
      <trkpt lat="46.9718" lon="8.77181">
        <ele>643</ele>
        <time>2021-08-06T08:47:23.305Z</time>
      </trkpt>
      <trkpt lat="46.9718" lon="8.7718">
        <ele>643</ele>
        <time>2021-08-06T08:47:24.304Z</time>
      </trkpt>
      <trkpt lat="46.97179" lon="8.77179">
        <ele>644</ele>
        <time>2021-08-06T08:47:25.304Z</time>
      </trkpt>
      <trkpt lat="46.97178" lon="8.77179">
        <ele>644</ele>
        <time>2021-08-06T08:47:26.304Z</time>
      </trkpt>
      <trkpt lat="46.97177" lon="8.77178">
        <ele>644</ele>
        <time>2021-08-06T08:47:27.304Z</time>
      </trkpt>
      <trkpt lat="46.97176" lon="8.77178">
        <ele>644</ele>
        <time>2021-08-06T08:47:28.304Z</time>
      </trkpt>
      <trkpt lat="46.97174" lon="8.77178">
        <ele>644</ele>
        <time>2021-08-06T08:47:29.304Z</time>
      </trkpt>
      <trkpt lat="46.97172" lon="8.77177">
        <ele>644</ele>
        <time>2021-08-06T08:47:30.304Z</time>
      </trkpt>
      <trkpt lat="46.97171" lon="8.77176">
        <ele>644</ele>
        <time>2021-08-06T08:47:31.304Z</time>
      </trkpt>
      <trkpt lat="46.97171" lon="8.77176">
        <ele>643</ele>
        <time>2021-08-06T08:47:32.304Z</time>
      </trkpt>
      <trkpt lat="46.9717" lon="8.77175">
        <ele>643</ele>
        <time>2021-08-06T08:47:33.305Z</time>
      </trkpt>
      <trkpt lat="46.9717" lon="8.77174">
        <ele>644</ele>
        <time>2021-08-06T08:47:34.305Z</time>
      </trkpt>
      <trkpt lat="46.9717" lon="8.77174">
        <ele>645</ele>
        <time>2021-08-06T08:47:35.304Z</time>
      </trkpt>
      <trkpt lat="46.97171" lon="8.77174">
        <ele>647</ele>
        <time>2021-08-06T08:47:36.305Z</time>
      </trkpt>
      <trkpt lat="46.97171" lon="8.77174">
        <ele>647</ele>
        <time>2021-08-06T08:47:37.304Z</time>
      </trkpt>
      <trkpt lat="46.97172" lon="8.77174">
        <ele>648</ele>
        <time>2021-08-06T08:47:38.306Z</time>
      </trkpt>
      <trkpt lat="46.97172" lon="8.77173">
        <ele>649</ele>
        <time>2021-08-06T08:47:39.306Z</time>
      </trkpt>
      <trkpt lat="46.97171" lon="8.77173">
        <ele>649</ele>
        <time>2021-08-06T08:47:40.305Z</time>
      </trkpt>
      <trkpt lat="46.9717" lon="8.77172">
        <ele>650</ele>
        <time>2021-08-06T08:47:41.305Z</time>
      </trkpt>
      <trkpt lat="46.97169" lon="8.77171">
        <ele>650</ele>
        <time>2021-08-06T08:47:42.306Z</time>
      </trkpt>
      <trkpt lat="46.97169" lon="8.77171">
        <ele>650</ele>
        <time>2021-08-06T08:47:43.306Z</time>
      </trkpt>
      <trkpt lat="46.97168" lon="8.77172">
        <ele>650</ele>
        <time>2021-08-06T08:47:44.306Z</time>
      </trkpt>
      <trkpt lat="46.97168" lon="8.77172">
        <ele>650</ele>
        <time>2021-08-06T08:47:45.306Z</time>
      </trkpt>
      <trkpt lat="46.97167" lon="8.77173">
        <ele>651</ele>
        <time>2021-08-06T08:47:46.305Z</time>
      </trkpt>
      <trkpt lat="46.97167" lon="8.77173">
        <ele>651</ele>
        <time>2021-08-06T08:47:47.306Z</time>
      </trkpt>
      <trkpt lat="46.97166" lon="8.77174">
        <ele>650</ele>
        <time>2021-08-06T08:47:48.306Z</time>
      </trkpt>
      <trkpt lat="46.97165" lon="8.77175">
        <ele>650</ele>
        <time>2021-08-06T08:47:49.306Z</time>
      </trkpt>
      <trkpt lat="46.97165" lon="8.77175">
        <ele>650</ele>
        <time>2021-08-06T08:47:50.306Z</time>
      </trkpt>
      <trkpt lat="46.97164" lon="8.77175">
        <ele>649</ele>
        <time>2021-08-06T08:47:51.306Z</time>
      </trkpt>
      <trkpt lat="46.97163" lon="8.77176">
        <ele>649</ele>
        <time>2021-08-06T08:47:52.306Z</time>
      </trkpt>
      <trkpt lat="46.97163" lon="8.77176">
        <ele>649</ele>
        <time>2021-08-06T08:47:53.306Z</time>
      </trkpt>
      <trkpt lat="46.97162" lon="8.77175">
        <ele>648</ele>
        <time>2021-08-06T08:47:54.306Z</time>
      </trkpt>
      <trkpt lat="46.97161" lon="8.77175">
        <ele>648</ele>
        <time>2021-08-06T08:47:55.305Z</time>
      </trkpt>
      <trkpt lat="46.97161" lon="8.77175">
        <ele>649</ele>
        <time>2021-08-06T08:47:56.306Z</time>
      </trkpt>
      <trkpt lat="46.9716" lon="8.77175">
        <ele>649</ele>
        <time>2021-08-06T08:47:57.306Z</time>
      </trkpt>
      <trkpt lat="46.9716" lon="8.77176">
        <ele>648</ele>
        <time>2021-08-06T08:47:58.306Z</time>
      </trkpt>
      <trkpt lat="46.97159" lon="8.77176">
        <ele>648</ele>
        <time>2021-08-06T08:47:59.306Z</time>
      </trkpt>
      <trkpt lat="46.97158" lon="8.77176">
        <ele>648</ele>
        <time>2021-08-06T08:48:00.306Z</time>
      </trkpt>
      <trkpt lat="46.97158" lon="8.77177">
        <ele>649</ele>
        <time>2021-08-06T08:48:01.305Z</time>
      </trkpt>
      <trkpt lat="46.97157" lon="8.77177">
        <ele>649</ele>
        <time>2021-08-06T08:48:02.305Z</time>
      </trkpt>
      <trkpt lat="46.97156" lon="8.77178">
        <ele>650</ele>
        <time>2021-08-06T08:48:03.306Z</time>
      </trkpt>
      <trkpt lat="46.97156" lon="8.77178">
        <ele>650</ele>
        <time>2021-08-06T08:48:04.306Z</time>
      </trkpt>
      <trkpt lat="46.97156" lon="8.77179">
        <ele>651</ele>
        <time>2021-08-06T08:48:05.306Z</time>
      </trkpt>
      <trkpt lat="46.97155" lon="8.77179">
        <ele>651</ele>
        <time>2021-08-06T08:48:06.306Z</time>
      </trkpt>
      <trkpt lat="46.97155" lon="8.7718">
        <ele>651</ele>
        <time>2021-08-06T08:48:07.306Z</time>
      </trkpt>
      <trkpt lat="46.97154" lon="8.7718">
        <ele>651</ele>
        <time>2021-08-06T08:48:08.306Z</time>
      </trkpt>
      <trkpt lat="46.97154" lon="8.77181">
        <ele>651</ele>
        <time>2021-08-06T08:48:09.305Z</time>
      </trkpt>
      <trkpt lat="46.97153" lon="8.77181">
        <ele>651</ele>
        <time>2021-08-06T08:48:10.305Z</time>
      </trkpt>
      <trkpt lat="46.97153" lon="8.77181">
        <ele>651</ele>
        <time>2021-08-06T08:48:11.306Z</time>
      </trkpt>
      <trkpt lat="46.97152" lon="8.77182">
        <ele>650</ele>
        <time>2021-08-06T08:48:12.305Z</time>
      </trkpt>
      <trkpt lat="46.97152" lon="8.77182">
        <ele>650</ele>
        <time>2021-08-06T08:48:13.306Z</time>
      </trkpt>
      <trkpt lat="46.97152" lon="8.77182">
        <ele>650</ele>
        <time>2021-08-06T08:48:14.305Z</time>
      </trkpt>
      <trkpt lat="46.97151" lon="8.77182">
        <ele>650</ele>
        <time>2021-08-06T08:48:15.306Z</time>
      </trkpt>
      <trkpt lat="46.97151" lon="8.77182">
        <ele>650</ele>
        <time>2021-08-06T08:48:16.305Z</time>
      </trkpt>
      <trkpt lat="46.9715" lon="8.77182">
        <ele>650</ele>
        <time>2021-08-06T08:48:17.306Z</time>
      </trkpt>
      <trkpt lat="46.97151" lon="8.77183">
        <ele>651</ele>
        <time>2021-08-06T08:48:18.307Z</time>
      </trkpt>
      <trkpt lat="46.97151" lon="8.77181">
        <ele>651</ele>
        <time>2021-08-06T08:48:19.307Z</time>
      </trkpt>
      <trkpt lat="46.97151" lon="8.77182">
        <ele>650</ele>
        <time>2021-08-06T08:48:20.307Z</time>
      </trkpt>
      <trkpt lat="46.97151" lon="8.77182">
        <ele>650</ele>
        <time>2021-08-06T08:48:21.306Z</time>
      </trkpt>
      <trkpt lat="46.9715" lon="8.77182">
        <ele>650</ele>
        <time>2021-08-06T08:48:22.307Z</time>
      </trkpt>
      <trkpt lat="46.9715" lon="8.77182">
        <ele>650</ele>
        <time>2021-08-06T08:48:23.307Z</time>
      </trkpt>
      <trkpt lat="46.97148" lon="8.77183">
        <ele>652</ele>
        <time>2021-08-06T08:48:24.307Z</time>
      </trkpt>
      <trkpt lat="46.97148" lon="8.77183">
        <ele>652</ele>
        <time>2021-08-06T08:48:25.307Z</time>
      </trkpt>
      <trkpt lat="46.97147" lon="8.77185">
        <ele>652</ele>
        <time>2021-08-06T08:48:26.306Z</time>
      </trkpt>
      <trkpt lat="46.97148" lon="8.77182">
        <ele>652</ele>
        <time>2021-08-06T08:48:27.308Z</time>
      </trkpt>
      <trkpt lat="46.97147" lon="8.77182">
        <ele>653</ele>
        <time>2021-08-06T08:48:28.307Z</time>
      </trkpt>
      <trkpt lat="46.97146" lon="8.77182">
        <ele>653</ele>
        <time>2021-08-06T08:48:29.307Z</time>
      </trkpt>
      <trkpt lat="46.97146" lon="8.77182">
        <ele>653</ele>
        <time>2021-08-06T08:48:30.307Z</time>
      </trkpt>
      <trkpt lat="46.97147" lon="8.77183">
        <ele>654</ele>
        <time>2021-08-06T08:48:31.308Z</time>
      </trkpt>
      <trkpt lat="46.97146" lon="8.77184">
        <ele>655</ele>
        <time>2021-08-06T08:48:32.308Z</time>
      </trkpt>
      <trkpt lat="46.97145" lon="8.77186">
        <ele>655</ele>
        <time>2021-08-06T08:48:33.307Z</time>
      </trkpt>
      <trkpt lat="46.97145" lon="8.77186">
        <ele>656</ele>
        <time>2021-08-06T08:48:34.307Z</time>
      </trkpt>
      <trkpt lat="46.97144" lon="8.77187">
        <ele>656</ele>
        <time>2021-08-06T08:48:35.307Z</time>
      </trkpt>
      <trkpt lat="46.97143" lon="8.77187">
        <ele>656</ele>
        <time>2021-08-06T08:48:36.308Z</time>
      </trkpt>
      <trkpt lat="46.97143" lon="8.77186">
        <ele>657</ele>
        <time>2021-08-06T08:48:37.307Z</time>
      </trkpt>
      <trkpt lat="46.97142" lon="8.77187">
        <ele>657</ele>
        <time>2021-08-06T08:48:38.307Z</time>
      </trkpt>
      <trkpt lat="46.97142" lon="8.77187">
        <ele>657</ele>
        <time>2021-08-06T08:48:39.307Z</time>
      </trkpt>
      <trkpt lat="46.97141" lon="8.77187">
        <ele>657</ele>
        <time>2021-08-06T08:48:40.308Z</time>
      </trkpt>
      <trkpt lat="46.9714" lon="8.77187">
        <ele>657</ele>
        <time>2021-08-06T08:48:41.307Z</time>
      </trkpt>
      <trkpt lat="46.97139" lon="8.77188">
        <ele>658</ele>
        <time>2021-08-06T08:48:42.307Z</time>
      </trkpt>
      <trkpt lat="46.97139" lon="8.77188">
        <ele>658</ele>
        <time>2021-08-06T08:48:43.307Z</time>
      </trkpt>
      <trkpt lat="46.97138" lon="8.77189">
        <ele>658</ele>
        <time>2021-08-06T08:48:44.308Z</time>
      </trkpt>
      <trkpt lat="46.97137" lon="8.77189">
        <ele>658</ele>
        <time>2021-08-06T08:48:45.308Z</time>
      </trkpt>
      <trkpt lat="46.97137" lon="8.7719">
        <ele>658</ele>
        <time>2021-08-06T08:48:46.307Z</time>
      </trkpt>
      <trkpt lat="46.97136" lon="8.7719">
        <ele>657</ele>
        <time>2021-08-06T08:48:47.307Z</time>
      </trkpt>
      <trkpt lat="46.97136" lon="8.77191">
        <ele>657</ele>
        <time>2021-08-06T08:48:48.308Z</time>
      </trkpt>
      <trkpt lat="46.97135" lon="8.77191">
        <ele>657</ele>
        <time>2021-08-06T08:48:49.308Z</time>
      </trkpt>
      <trkpt lat="46.97134" lon="8.77191">
        <ele>657</ele>
        <time>2021-08-06T08:48:50.308Z</time>
      </trkpt>
      <trkpt lat="46.97133" lon="8.77191">
        <ele>657</ele>
        <time>2021-08-06T08:48:51.308Z</time>
      </trkpt>
      <trkpt lat="46.97133" lon="8.77191">
        <ele>657</ele>
        <time>2021-08-06T08:48:52.308Z</time>
      </trkpt>
      <trkpt lat="46.97133" lon="8.77191">
        <ele>657</ele>
        <time>2021-08-06T08:48:53.307Z</time>
      </trkpt>
      <trkpt lat="46.97132" lon="8.77192">
        <ele>658</ele>
        <time>2021-08-06T08:48:54.307Z</time>
      </trkpt>
      <trkpt lat="46.97132" lon="8.77192">
        <ele>658</ele>
        <time>2021-08-06T08:48:55.307Z</time>
      </trkpt>
      <trkpt lat="46.97131" lon="8.77193">
        <ele>657</ele>
        <time>2021-08-06T08:48:56.307Z</time>
      </trkpt>
      <trkpt lat="46.97131" lon="8.77193">
        <ele>657</ele>
        <time>2021-08-06T08:48:57.307Z</time>
      </trkpt>
      <trkpt lat="46.9713" lon="8.77193">
        <ele>657</ele>
        <time>2021-08-06T08:48:58.307Z</time>
      </trkpt>
      <trkpt lat="46.9713" lon="8.77193">
        <ele>657</ele>
        <time>2021-08-06T08:48:59.307Z</time>
      </trkpt>
      <trkpt lat="46.97129" lon="8.77193">
        <ele>657</ele>
        <time>2021-08-06T08:49:00.307Z</time>
      </trkpt>
      <trkpt lat="46.97128" lon="8.77194">
        <ele>658</ele>
        <time>2021-08-06T08:49:01.307Z</time>
      </trkpt>
      <trkpt lat="46.97128" lon="8.77194">
        <ele>659</ele>
        <time>2021-08-06T08:49:02.307Z</time>
      </trkpt>
      <trkpt lat="46.97127" lon="8.77194">
        <ele>659</ele>
        <time>2021-08-06T08:49:03.307Z</time>
      </trkpt>
      <trkpt lat="46.97127" lon="8.77195">
        <ele>659</ele>
        <time>2021-08-06T08:49:04.307Z</time>
      </trkpt>
      <trkpt lat="46.97127" lon="8.77195">
        <ele>659</ele>
        <time>2021-08-06T08:49:05.307Z</time>
      </trkpt>
      <trkpt lat="46.97126" lon="8.77195">
        <ele>659</ele>
        <time>2021-08-06T08:49:06.307Z</time>
      </trkpt>
      <trkpt lat="46.97126" lon="8.77195">
        <ele>659</ele>
        <time>2021-08-06T08:49:07.307Z</time>
      </trkpt>
      <trkpt lat="46.97126" lon="8.77194">
        <ele>658</ele>
        <time>2021-08-06T08:49:08.307Z</time>
      </trkpt>
      <trkpt lat="46.97125" lon="8.77194">
        <ele>658</ele>
        <time>2021-08-06T08:49:09.307Z</time>
      </trkpt>
      <trkpt lat="46.97125" lon="8.77194">
        <ele>658</ele>
        <time>2021-08-06T08:49:10.307Z</time>
      </trkpt>
      <trkpt lat="46.97124" lon="8.77194">
        <ele>658</ele>
        <time>2021-08-06T08:49:11.307Z</time>
      </trkpt>
      <trkpt lat="46.97124" lon="8.77194">
        <ele>659</ele>
        <time>2021-08-06T08:49:12.307Z</time>
      </trkpt>
      <trkpt lat="46.97123" lon="8.77194">
        <ele>659</ele>
        <time>2021-08-06T08:49:13.307Z</time>
      </trkpt>
      <trkpt lat="46.97122" lon="8.77194">
        <ele>659</ele>
        <time>2021-08-06T08:49:14.307Z</time>
      </trkpt>
      <trkpt lat="46.97122" lon="8.77194">
        <ele>659</ele>
        <time>2021-08-06T08:49:15.308Z</time>
      </trkpt>
      <trkpt lat="46.97122" lon="8.77195">
        <ele>659</ele>
        <time>2021-08-06T08:49:16.307Z</time>
      </trkpt>
      <trkpt lat="46.97121" lon="8.77196">
        <ele>658</ele>
        <time>2021-08-06T08:49:17.308Z</time>
      </trkpt>
      <trkpt lat="46.97121" lon="8.77196">
        <ele>658</ele>
        <time>2021-08-06T08:49:18.307Z</time>
      </trkpt>
      <trkpt lat="46.9712" lon="8.77197">
        <ele>658</ele>
        <time>2021-08-06T08:49:19.307Z</time>
      </trkpt>
      <trkpt lat="46.9712" lon="8.77198">
        <ele>658</ele>
        <time>2021-08-06T08:49:20.307Z</time>
      </trkpt>
      <trkpt lat="46.97119" lon="8.77199">
        <ele>658</ele>
        <time>2021-08-06T08:49:21.307Z</time>
      </trkpt>
      <trkpt lat="46.97119" lon="8.77201">
        <ele>658</ele>
        <time>2021-08-06T08:49:22.307Z</time>
      </trkpt>
      <trkpt lat="46.97118" lon="8.77202">
        <ele>658</ele>
        <time>2021-08-06T08:49:23.307Z</time>
      </trkpt>
      <trkpt lat="46.97118" lon="8.77203">
        <ele>658</ele>
        <time>2021-08-06T08:49:24.307Z</time>
      </trkpt>
      <trkpt lat="46.97117" lon="8.77204">
        <ele>658</ele>
        <time>2021-08-06T08:49:25.307Z</time>
      </trkpt>
      <trkpt lat="46.97116" lon="8.77205">
        <ele>659</ele>
        <time>2021-08-06T08:49:26.307Z</time>
      </trkpt>
      <trkpt lat="46.97116" lon="8.77206">
        <ele>659</ele>
        <time>2021-08-06T08:49:27.308Z</time>
      </trkpt>
      <trkpt lat="46.97115" lon="8.77207">
        <ele>660</ele>
        <time>2021-08-06T08:49:28.307Z</time>
      </trkpt>
      <trkpt lat="46.97115" lon="8.77207">
        <ele>660</ele>
        <time>2021-08-06T08:49:29.307Z</time>
      </trkpt>
      <trkpt lat="46.97115" lon="8.77207">
        <ele>661</ele>
        <time>2021-08-06T08:49:30.307Z</time>
      </trkpt>
      <trkpt lat="46.97114" lon="8.77208">
        <ele>661</ele>
        <time>2021-08-06T08:49:31.307Z</time>
      </trkpt>
      <trkpt lat="46.97114" lon="8.77208">
        <ele>662</ele>
        <time>2021-08-06T08:49:32.307Z</time>
      </trkpt>
      <trkpt lat="46.97113" lon="8.77209">
        <ele>662</ele>
        <time>2021-08-06T08:49:33.308Z</time>
      </trkpt>
      <trkpt lat="46.97113" lon="8.77209">
        <ele>663</ele>
        <time>2021-08-06T08:49:34.307Z</time>
      </trkpt>
      <trkpt lat="46.97113" lon="8.7721">
        <ele>663</ele>
        <time>2021-08-06T08:49:35.307Z</time>
      </trkpt>
      <trkpt lat="46.97113" lon="8.77211">
        <ele>663</ele>
        <time>2021-08-06T08:49:36.307Z</time>
      </trkpt>
      <trkpt lat="46.97112" lon="8.77211">
        <ele>662</ele>
        <time>2021-08-06T08:49:37.307Z</time>
      </trkpt>
      <trkpt lat="46.97112" lon="8.77212">
        <ele>661</ele>
        <time>2021-08-06T08:49:38.308Z</time>
      </trkpt>
      <trkpt lat="46.97111" lon="8.77213">
        <ele>661</ele>
        <time>2021-08-06T08:49:39.307Z</time>
      </trkpt>
      <trkpt lat="46.97111" lon="8.77214">
        <ele>660</ele>
        <time>2021-08-06T08:49:40.308Z</time>
      </trkpt>
      <trkpt lat="46.9711" lon="8.77215">
        <ele>660</ele>
        <time>2021-08-06T08:49:41.308Z</time>
      </trkpt>
      <trkpt lat="46.9711" lon="8.77215">
        <ele>660</ele>
        <time>2021-08-06T08:49:42.307Z</time>
      </trkpt>
      <trkpt lat="46.97109" lon="8.77214">
        <ele>660</ele>
        <time>2021-08-06T08:49:43.307Z</time>
      </trkpt>
      <trkpt lat="46.97108" lon="8.77214">
        <ele>661</ele>
        <time>2021-08-06T08:49:44.308Z</time>
      </trkpt>
      <trkpt lat="46.97107" lon="8.77213">
        <ele>661</ele>
        <time>2021-08-06T08:49:45.307Z</time>
      </trkpt>
      <trkpt lat="46.97107" lon="8.77213">
        <ele>661</ele>
        <time>2021-08-06T08:49:46.308Z</time>
      </trkpt>
      <trkpt lat="46.97106" lon="8.77213">
        <ele>661</ele>
        <time>2021-08-06T08:49:47.308Z</time>
      </trkpt>
      <trkpt lat="46.97105" lon="8.77213">
        <ele>662</ele>
        <time>2021-08-06T08:49:48.307Z</time>
      </trkpt>
      <trkpt lat="46.97105" lon="8.77213">
        <ele>662</ele>
        <time>2021-08-06T08:49:49.307Z</time>
      </trkpt>
      <trkpt lat="46.97104" lon="8.77213">
        <ele>662</ele>
        <time>2021-08-06T08:49:50.307Z</time>
      </trkpt>
      <trkpt lat="46.97103" lon="8.77213">
        <ele>662</ele>
        <time>2021-08-06T08:49:51.308Z</time>
      </trkpt>
      <trkpt lat="46.97102" lon="8.77213">
        <ele>663</ele>
        <time>2021-08-06T08:49:52.308Z</time>
      </trkpt>
      <trkpt lat="46.97102" lon="8.77213">
        <ele>663</ele>
        <time>2021-08-06T08:49:53.308Z</time>
      </trkpt>
      <trkpt lat="46.97101" lon="8.77212">
        <ele>663</ele>
        <time>2021-08-06T08:49:54.308Z</time>
      </trkpt>
      <trkpt lat="46.971" lon="8.77212">
        <ele>663</ele>
        <time>2021-08-06T08:49:55.307Z</time>
      </trkpt>
      <trkpt lat="46.971" lon="8.77212">
        <ele>663</ele>
        <time>2021-08-06T08:49:56.307Z</time>
      </trkpt>
      <trkpt lat="46.971" lon="8.77212">
        <ele>663</ele>
        <time>2021-08-06T08:49:57.308Z</time>
      </trkpt>
      <trkpt lat="46.97099" lon="8.77212">
        <ele>662</ele>
        <time>2021-08-06T08:49:58.307Z</time>
      </trkpt>
      <trkpt lat="46.97099" lon="8.77212">
        <ele>662</ele>
        <time>2021-08-06T08:49:59.307Z</time>
      </trkpt>
      <trkpt lat="46.97098" lon="8.77212">
        <ele>663</ele>
        <time>2021-08-06T08:50:00.308Z</time>
      </trkpt>
      <trkpt lat="46.97098" lon="8.77212">
        <ele>663</ele>
        <time>2021-08-06T08:50:01.308Z</time>
      </trkpt>
      <trkpt lat="46.97098" lon="8.77212">
        <ele>663</ele>
        <time>2021-08-06T08:50:02.308Z</time>
      </trkpt>
      <trkpt lat="46.97098" lon="8.77213">
        <ele>663</ele>
        <time>2021-08-06T08:50:03.307Z</time>
      </trkpt>
      <trkpt lat="46.97097" lon="8.77213">
        <ele>663</ele>
        <time>2021-08-06T08:50:04.308Z</time>
      </trkpt>
      <trkpt lat="46.97096" lon="8.77212">
        <ele>663</ele>
        <time>2021-08-06T08:50:05.308Z</time>
      </trkpt>
      <trkpt lat="46.97096" lon="8.77212">
        <ele>663</ele>
        <time>2021-08-06T08:50:06.307Z</time>
      </trkpt>
      <trkpt lat="46.97095" lon="8.77211">
        <ele>664</ele>
        <time>2021-08-06T08:50:07.307Z</time>
      </trkpt>
      <trkpt lat="46.97095" lon="8.77212">
        <ele>664</ele>
        <time>2021-08-06T08:50:08.307Z</time>
      </trkpt>
      <trkpt lat="46.97094" lon="8.77212">
        <ele>665</ele>
        <time>2021-08-06T08:50:09.308Z</time>
      </trkpt>
      <trkpt lat="46.97094" lon="8.77212">
        <ele>665</ele>
        <time>2021-08-06T08:50:10.307Z</time>
      </trkpt>
      <trkpt lat="46.97093" lon="8.77212">
        <ele>665</ele>
        <time>2021-08-06T08:50:11.308Z</time>
      </trkpt>
      <trkpt lat="46.97093" lon="8.77212">
        <ele>665</ele>
        <time>2021-08-06T08:50:12.307Z</time>
      </trkpt>
      <trkpt lat="46.97093" lon="8.77212">
        <ele>666</ele>
        <time>2021-08-06T08:50:13.307Z</time>
      </trkpt>
      <trkpt lat="46.97093" lon="8.77208">
        <ele>666</ele>
        <time>2021-08-06T08:50:14.309Z</time>
      </trkpt>
      <trkpt lat="46.97093" lon="8.77208">
        <ele>666</ele>
        <time>2021-08-06T08:50:15.309Z</time>
      </trkpt>
      <trkpt lat="46.97093" lon="8.77206">
        <ele>667</ele>
        <time>2021-08-06T08:50:16.309Z</time>
      </trkpt>
      <trkpt lat="46.97094" lon="8.77205">
        <ele>668</ele>
        <time>2021-08-06T08:50:17.309Z</time>
      </trkpt>
      <trkpt lat="46.97094" lon="8.77205">
        <ele>668</ele>
        <time>2021-08-06T08:50:18.308Z</time>
      </trkpt>
      <trkpt lat="46.97094" lon="8.77204">
        <ele>669</ele>
        <time>2021-08-06T08:50:19.309Z</time>
      </trkpt>
      <trkpt lat="46.97093" lon="8.77204">
        <ele>669</ele>
        <time>2021-08-06T08:50:20.309Z</time>
      </trkpt>
      <trkpt lat="46.97093" lon="8.77203">
        <ele>669</ele>
        <time>2021-08-06T08:50:21.309Z</time>
      </trkpt>
      <trkpt lat="46.97092" lon="8.77203">
        <ele>670</ele>
        <time>2021-08-06T08:50:22.309Z</time>
      </trkpt>
      <trkpt lat="46.97092" lon="8.77203">
        <ele>670</ele>
        <time>2021-08-06T08:50:23.309Z</time>
      </trkpt>
      <trkpt lat="46.97091" lon="8.77203">
        <ele>671</ele>
        <time>2021-08-06T08:50:24.309Z</time>
      </trkpt>
      <trkpt lat="46.9709" lon="8.77203">
        <ele>671</ele>
        <time>2021-08-06T08:50:25.308Z</time>
      </trkpt>
      <trkpt lat="46.97089" lon="8.77202">
        <ele>672</ele>
        <time>2021-08-06T08:50:26.309Z</time>
      </trkpt>
      <trkpt lat="46.97089" lon="8.77203">
        <ele>672</ele>
        <time>2021-08-06T08:50:27.309Z</time>
      </trkpt>
      <trkpt lat="46.97088" lon="8.77203">
        <ele>673</ele>
        <time>2021-08-06T08:50:28.309Z</time>
      </trkpt>
      <trkpt lat="46.97087" lon="8.77203">
        <ele>674</ele>
        <time>2021-08-06T08:50:29.309Z</time>
      </trkpt>
      <trkpt lat="46.97086" lon="8.77203">
        <ele>674</ele>
        <time>2021-08-06T08:50:30.309Z</time>
      </trkpt>
      <trkpt lat="46.97085" lon="8.77203">
        <ele>675</ele>
        <time>2021-08-06T08:50:31.309Z</time>
      </trkpt>
      <trkpt lat="46.97085" lon="8.77203">
        <ele>675</ele>
        <time>2021-08-06T08:50:32.309Z</time>
      </trkpt>
      <trkpt lat="46.97085" lon="8.77203">
        <ele>676</ele>
        <time>2021-08-06T08:50:33.308Z</time>
      </trkpt>
      <trkpt lat="46.97084" lon="8.77204">
        <ele>676</ele>
        <time>2021-08-06T08:50:34.308Z</time>
      </trkpt>
      <trkpt lat="46.97084" lon="8.77204">
        <ele>677</ele>
        <time>2021-08-06T08:50:35.308Z</time>
      </trkpt>
      <trkpt lat="46.97084" lon="8.77204">
        <ele>677</ele>
        <time>2021-08-06T08:50:36.309Z</time>
      </trkpt>
      <trkpt lat="46.97084" lon="8.77203">
        <ele>677</ele>
        <time>2021-08-06T08:50:37.309Z</time>
      </trkpt>
      <trkpt lat="46.97083" lon="8.77204">
        <ele>678</ele>
        <time>2021-08-06T08:50:38.309Z</time>
      </trkpt>
      <trkpt lat="46.97083" lon="8.77204">
        <ele>678</ele>
        <time>2021-08-06T08:50:39.309Z</time>
      </trkpt>
      <trkpt lat="46.97082" lon="8.77204">
        <ele>677</ele>
        <time>2021-08-06T08:50:40.308Z</time>
      </trkpt>
      <trkpt lat="46.97082" lon="8.77204">
        <ele>677</ele>
        <time>2021-08-06T08:50:41.308Z</time>
      </trkpt>
      <trkpt lat="46.97081" lon="8.77204">
        <ele>677</ele>
        <time>2021-08-06T08:50:42.308Z</time>
      </trkpt>
      <trkpt lat="46.97081" lon="8.77205">
        <ele>676</ele>
        <time>2021-08-06T08:50:43.309Z</time>
      </trkpt>
      <trkpt lat="46.9708" lon="8.77205">
        <ele>676</ele>
        <time>2021-08-06T08:50:44.309Z</time>
      </trkpt>
      <trkpt lat="46.9708" lon="8.77205">
        <ele>676</ele>
        <time>2021-08-06T08:50:45.309Z</time>
      </trkpt>
      <trkpt lat="46.9708" lon="8.77205">
        <ele>676</ele>
        <time>2021-08-06T08:50:46.309Z</time>
      </trkpt>
      <trkpt lat="46.9708" lon="8.77206">
        <ele>676</ele>
        <time>2021-08-06T08:50:47.308Z</time>
      </trkpt>
      <trkpt lat="46.97078" lon="8.77209">
        <ele>672</ele>
        <time>2021-08-06T08:50:48.309Z</time>
      </trkpt>
      <trkpt lat="46.97078" lon="8.7721">
        <ele>672</ele>
        <time>2021-08-06T08:50:49.308Z</time>
      </trkpt>
      <trkpt lat="46.97078" lon="8.77211">
        <ele>672</ele>
        <time>2021-08-06T08:50:50.308Z</time>
      </trkpt>
      <trkpt lat="46.97077" lon="8.77212">
        <ele>672</ele>
        <time>2021-08-06T08:50:51.309Z</time>
      </trkpt>
      <trkpt lat="46.97077" lon="8.77213">
        <ele>672</ele>
        <time>2021-08-06T08:50:52.309Z</time>
      </trkpt>
      <trkpt lat="46.97077" lon="8.77214">
        <ele>672</ele>
        <time>2021-08-06T08:50:53.308Z</time>
      </trkpt>
      <trkpt lat="46.97076" lon="8.77215">
        <ele>672</ele>
        <time>2021-08-06T08:50:54.309Z</time>
      </trkpt>
      <trkpt lat="46.97076" lon="8.77215">
        <ele>672</ele>
        <time>2021-08-06T08:50:55.309Z</time>
      </trkpt>
      <trkpt lat="46.97075" lon="8.77216">
        <ele>672</ele>
        <time>2021-08-06T08:50:56.308Z</time>
      </trkpt>
      <trkpt lat="46.97075" lon="8.77216">
        <ele>671</ele>
        <time>2021-08-06T08:50:57.309Z</time>
      </trkpt>
      <trkpt lat="46.97075" lon="8.77217">
        <ele>671</ele>
        <time>2021-08-06T08:50:58.309Z</time>
      </trkpt>
      <trkpt lat="46.97075" lon="8.77219">
        <ele>671</ele>
        <time>2021-08-06T08:50:59.309Z</time>
      </trkpt>
      <trkpt lat="46.97075" lon="8.7722">
        <ele>671</ele>
        <time>2021-08-06T08:51:00.308Z</time>
      </trkpt>
      <trkpt lat="46.97074" lon="8.77221">
        <ele>671</ele>
        <time>2021-08-06T08:51:01.308Z</time>
      </trkpt>
      <trkpt lat="46.97074" lon="8.77221">
        <ele>672</ele>
        <time>2021-08-06T08:51:02.308Z</time>
      </trkpt>
      <trkpt lat="46.97074" lon="8.77222">
        <ele>673</ele>
        <time>2021-08-06T08:51:03.308Z</time>
      </trkpt>
      <trkpt lat="46.97073" lon="8.77222">
        <ele>673</ele>
        <time>2021-08-06T08:51:04.309Z</time>
      </trkpt>
      <trkpt lat="46.97073" lon="8.77224">
        <ele>674</ele>
        <time>2021-08-06T08:51:05.308Z</time>
      </trkpt>
      <trkpt lat="46.97072" lon="8.77225">
        <ele>674</ele>
        <time>2021-08-06T08:51:06.309Z</time>
      </trkpt>
      <trkpt lat="46.97072" lon="8.77225">
        <ele>675</ele>
        <time>2021-08-06T08:51:07.309Z</time>
      </trkpt>
      <trkpt lat="46.97071" lon="8.77226">
        <ele>675</ele>
        <time>2021-08-06T08:51:08.308Z</time>
      </trkpt>
      <trkpt lat="46.97071" lon="8.77227">
        <ele>675</ele>
        <time>2021-08-06T08:51:09.309Z</time>
      </trkpt>
      <trkpt lat="46.9707" lon="8.77228">
        <ele>675</ele>
        <time>2021-08-06T08:51:10.309Z</time>
      </trkpt>
      <trkpt lat="46.9707" lon="8.77229">
        <ele>675</ele>
        <time>2021-08-06T08:51:11.309Z</time>
      </trkpt>
      <trkpt lat="46.97069" lon="8.77229">
        <ele>675</ele>
        <time>2021-08-06T08:51:12.308Z</time>
      </trkpt>
      <trkpt lat="46.97069" lon="8.7723">
        <ele>675</ele>
        <time>2021-08-06T08:51:13.308Z</time>
      </trkpt>
      <trkpt lat="46.97068" lon="8.77231">
        <ele>675</ele>
        <time>2021-08-06T08:51:14.309Z</time>
      </trkpt>
      <trkpt lat="46.97067" lon="8.77232">
        <ele>676</ele>
        <time>2021-08-06T08:51:15.309Z</time>
      </trkpt>
      <trkpt lat="46.97067" lon="8.77233">
        <ele>675</ele>
        <time>2021-08-06T08:51:16.308Z</time>
      </trkpt>
      <trkpt lat="46.97066" lon="8.77233">
        <ele>675</ele>
        <time>2021-08-06T08:51:17.308Z</time>
      </trkpt>
      <trkpt lat="46.97066" lon="8.77234">
        <ele>675</ele>
        <time>2021-08-06T08:51:18.309Z</time>
      </trkpt>
      <trkpt lat="46.97065" lon="8.77234">
        <ele>675</ele>
        <time>2021-08-06T08:51:19.309Z</time>
      </trkpt>
      <trkpt lat="46.97064" lon="8.77234">
        <ele>675</ele>
        <time>2021-08-06T08:51:20.309Z</time>
      </trkpt>
      <trkpt lat="46.97064" lon="8.77234">
        <ele>675</ele>
        <time>2021-08-06T08:51:21.308Z</time>
      </trkpt>
      <trkpt lat="46.97063" lon="8.77235">
        <ele>675</ele>
        <time>2021-08-06T08:51:22.308Z</time>
      </trkpt>
      <trkpt lat="46.97063" lon="8.77235">
        <ele>675</ele>
        <time>2021-08-06T08:51:23.308Z</time>
      </trkpt>
      <trkpt lat="46.97062" lon="8.77235">
        <ele>675</ele>
        <time>2021-08-06T08:51:24.309Z</time>
      </trkpt>
      <trkpt lat="46.97061" lon="8.77236">
        <ele>675</ele>
        <time>2021-08-06T08:51:25.308Z</time>
      </trkpt>
      <trkpt lat="46.97061" lon="8.77237">
        <ele>675</ele>
        <time>2021-08-06T08:51:26.309Z</time>
      </trkpt>
      <trkpt lat="46.9706" lon="8.77237">
        <ele>675</ele>
        <time>2021-08-06T08:51:27.309Z</time>
      </trkpt>
      <trkpt lat="46.97059" lon="8.77238">
        <ele>675</ele>
        <time>2021-08-06T08:51:28.309Z</time>
      </trkpt>
      <trkpt lat="46.97059" lon="8.77239">
        <ele>675</ele>
        <time>2021-08-06T08:51:29.308Z</time>
      </trkpt>
      <trkpt lat="46.97058" lon="8.77239">
        <ele>676</ele>
        <time>2021-08-06T08:51:30.309Z</time>
      </trkpt>
      <trkpt lat="46.97058" lon="8.7724">
        <ele>676</ele>
        <time>2021-08-06T08:51:31.309Z</time>
      </trkpt>
      <trkpt lat="46.97057" lon="8.7724">
        <ele>677</ele>
        <time>2021-08-06T08:51:32.308Z</time>
      </trkpt>
      <trkpt lat="46.97057" lon="8.77241">
        <ele>677</ele>
        <time>2021-08-06T08:51:33.308Z</time>
      </trkpt>
      <trkpt lat="46.97056" lon="8.77242">
        <ele>678</ele>
        <time>2021-08-06T08:51:34.308Z</time>
      </trkpt>
      <trkpt lat="46.97055" lon="8.77242">
        <ele>678</ele>
        <time>2021-08-06T08:51:35.308Z</time>
      </trkpt>
      <trkpt lat="46.97055" lon="8.77242">
        <ele>678</ele>
        <time>2021-08-06T08:51:36.309Z</time>
      </trkpt>
      <trkpt lat="46.97054" lon="8.77242">
        <ele>677</ele>
        <time>2021-08-06T08:51:37.309Z</time>
      </trkpt>
      <trkpt lat="46.97054" lon="8.77242">
        <ele>677</ele>
        <time>2021-08-06T08:51:38.308Z</time>
      </trkpt>
      <trkpt lat="46.97053" lon="8.77243">
        <ele>676</ele>
        <time>2021-08-06T08:51:39.308Z</time>
      </trkpt>
      <trkpt lat="46.97053" lon="8.77243">
        <ele>676</ele>
        <time>2021-08-06T08:51:40.308Z</time>
      </trkpt>
      <trkpt lat="46.97052" lon="8.77244">
        <ele>676</ele>
        <time>2021-08-06T08:51:41.308Z</time>
      </trkpt>
      <trkpt lat="46.97051" lon="8.77244">
        <ele>676</ele>
        <time>2021-08-06T08:51:42.308Z</time>
      </trkpt>
      <trkpt lat="46.9705" lon="8.77245">
        <ele>677</ele>
        <time>2021-08-06T08:51:43.309Z</time>
      </trkpt>
      <trkpt lat="46.9705" lon="8.77245">
        <ele>677</ele>
        <time>2021-08-06T08:51:44.309Z</time>
      </trkpt>
      <trkpt lat="46.97049" lon="8.77246">
        <ele>678</ele>
        <time>2021-08-06T08:51:45.309Z</time>
      </trkpt>
      <trkpt lat="46.97049" lon="8.77247">
        <ele>678</ele>
        <time>2021-08-06T08:51:46.308Z</time>
      </trkpt>
      <trkpt lat="46.97049" lon="8.77248">
        <ele>679</ele>
        <time>2021-08-06T08:51:47.309Z</time>
      </trkpt>
      <trkpt lat="46.97048" lon="8.77248">
        <ele>680</ele>
        <time>2021-08-06T08:51:48.309Z</time>
      </trkpt>
      <trkpt lat="46.97047" lon="8.77249">
        <ele>680</ele>
        <time>2021-08-06T08:51:49.308Z</time>
      </trkpt>
      <trkpt lat="46.97047" lon="8.77249">
        <ele>681</ele>
        <time>2021-08-06T08:51:50.309Z</time>
      </trkpt>
      <trkpt lat="46.97046" lon="8.77249">
        <ele>682</ele>
        <time>2021-08-06T08:51:51.308Z</time>
      </trkpt>
      <trkpt lat="46.97046" lon="8.7725">
        <ele>682</ele>
        <time>2021-08-06T08:51:52.308Z</time>
      </trkpt>
      <trkpt lat="46.97045" lon="8.7725">
        <ele>682</ele>
        <time>2021-08-06T08:51:53.309Z</time>
      </trkpt>
      <trkpt lat="46.97045" lon="8.77251">
        <ele>682</ele>
        <time>2021-08-06T08:51:54.308Z</time>
      </trkpt>
      <trkpt lat="46.97044" lon="8.77252">
        <ele>682</ele>
        <time>2021-08-06T08:51:55.309Z</time>
      </trkpt>
      <trkpt lat="46.97044" lon="8.77253">
        <ele>682</ele>
        <time>2021-08-06T08:51:56.309Z</time>
      </trkpt>
      <trkpt lat="46.97044" lon="8.77253">
        <ele>682</ele>
        <time>2021-08-06T08:51:57.309Z</time>
      </trkpt>
      <trkpt lat="46.97043" lon="8.77254">
        <ele>682</ele>
        <time>2021-08-06T08:51:58.309Z</time>
      </trkpt>
      <trkpt lat="46.97043" lon="8.77254">
        <ele>682</ele>
        <time>2021-08-06T08:51:59.308Z</time>
      </trkpt>
      <trkpt lat="46.97042" lon="8.77255">
        <ele>682</ele>
        <time>2021-08-06T08:52:00.309Z</time>
      </trkpt>
      <trkpt lat="46.97042" lon="8.77255">
        <ele>682</ele>
        <time>2021-08-06T08:52:01.309Z</time>
      </trkpt>
      <trkpt lat="46.97042" lon="8.77256">
        <ele>682</ele>
        <time>2021-08-06T08:52:02.308Z</time>
      </trkpt>
      <trkpt lat="46.97042" lon="8.77256">
        <ele>681</ele>
        <time>2021-08-06T08:52:03.309Z</time>
      </trkpt>
      <trkpt lat="46.97041" lon="8.77257">
        <ele>681</ele>
        <time>2021-08-06T08:52:04.309Z</time>
      </trkpt>
      <trkpt lat="46.97041" lon="8.77257">
        <ele>681</ele>
        <time>2021-08-06T08:52:05.309Z</time>
      </trkpt>
      <trkpt lat="46.97041" lon="8.77258">
        <ele>680</ele>
        <time>2021-08-06T08:52:06.308Z</time>
      </trkpt>
      <trkpt lat="46.97041" lon="8.77259">
        <ele>679</ele>
        <time>2021-08-06T08:52:07.309Z</time>
      </trkpt>
      <trkpt lat="46.9704" lon="8.77259">
        <ele>679</ele>
        <time>2021-08-06T08:52:08.309Z</time>
      </trkpt>
      <trkpt lat="46.9704" lon="8.7726">
        <ele>679</ele>
        <time>2021-08-06T08:52:09.309Z</time>
      </trkpt>
      <trkpt lat="46.97039" lon="8.7726">
        <ele>679</ele>
        <time>2021-08-06T08:52:10.309Z</time>
      </trkpt>
      <trkpt lat="46.97039" lon="8.77261">
        <ele>679</ele>
        <time>2021-08-06T08:52:11.308Z</time>
      </trkpt>
      <trkpt lat="46.97039" lon="8.77262">
        <ele>680</ele>
        <time>2021-08-06T08:52:12.309Z</time>
      </trkpt>
      <trkpt lat="46.97038" lon="8.77262">
        <ele>680</ele>
        <time>2021-08-06T08:52:13.309Z</time>
      </trkpt>
      <trkpt lat="46.97038" lon="8.77263">
        <ele>681</ele>
        <time>2021-08-06T08:52:14.308Z</time>
      </trkpt>
      <trkpt lat="46.97037" lon="8.77263">
        <ele>681</ele>
        <time>2021-08-06T08:52:15.309Z</time>
      </trkpt>
      <trkpt lat="46.97037" lon="8.77263">
        <ele>682</ele>
        <time>2021-08-06T08:52:16.308Z</time>
      </trkpt>
      <trkpt lat="46.97037" lon="8.77263">
        <ele>682</ele>
        <time>2021-08-06T08:52:17.308Z</time>
      </trkpt>
      <trkpt lat="46.97036" lon="8.77264">
        <ele>682</ele>
        <time>2021-08-06T08:52:18.309Z</time>
      </trkpt>
      <trkpt lat="46.97036" lon="8.77264">
        <ele>683</ele>
        <time>2021-08-06T08:52:19.309Z</time>
      </trkpt>
      <trkpt lat="46.97036" lon="8.77264">
        <ele>684</ele>
        <time>2021-08-06T08:52:20.309Z</time>
      </trkpt>
      <trkpt lat="46.97035" lon="8.77264">
        <ele>684</ele>
        <time>2021-08-06T08:52:21.308Z</time>
      </trkpt>
      <trkpt lat="46.97035" lon="8.77263">
        <ele>685</ele>
        <time>2021-08-06T08:52:22.309Z</time>
      </trkpt>
      <trkpt lat="46.97034" lon="8.77263">
        <ele>685</ele>
        <time>2021-08-06T08:52:23.309Z</time>
      </trkpt>
      <trkpt lat="46.97034" lon="8.77263">
        <ele>686</ele>
        <time>2021-08-06T08:52:24.309Z</time>
      </trkpt>
      <trkpt lat="46.97034" lon="8.77263">
        <ele>686</ele>
        <time>2021-08-06T08:52:25.308Z</time>
      </trkpt>
      <trkpt lat="46.97033" lon="8.77263">
        <ele>686</ele>
        <time>2021-08-06T08:52:26.308Z</time>
      </trkpt>
      <trkpt lat="46.97033" lon="8.77263">
        <ele>686</ele>
        <time>2021-08-06T08:52:27.308Z</time>
      </trkpt>
      <trkpt lat="46.97032" lon="8.77263">
        <ele>686</ele>
        <time>2021-08-06T08:52:28.308Z</time>
      </trkpt>
      <trkpt lat="46.97032" lon="8.77263">
        <ele>685</ele>
        <time>2021-08-06T08:52:29.308Z</time>
      </trkpt>
      <trkpt lat="46.97032" lon="8.77264">
        <ele>686</ele>
        <time>2021-08-06T08:52:30.308Z</time>
      </trkpt>
      <trkpt lat="46.97032" lon="8.77265">
        <ele>686</ele>
        <time>2021-08-06T08:52:31.308Z</time>
      </trkpt>
      <trkpt lat="46.97031" lon="8.77266">
        <ele>686</ele>
        <time>2021-08-06T08:52:32.308Z</time>
      </trkpt>
      <trkpt lat="46.97031" lon="8.77266">
        <ele>686</ele>
        <time>2021-08-06T08:52:33.308Z</time>
      </trkpt>
      <trkpt lat="46.9703" lon="8.77267">
        <ele>686</ele>
        <time>2021-08-06T08:52:34.308Z</time>
      </trkpt>
      <trkpt lat="46.97029" lon="8.77267">
        <ele>686</ele>
        <time>2021-08-06T08:52:35.308Z</time>
      </trkpt>
      <trkpt lat="46.97029" lon="8.77268">
        <ele>686</ele>
        <time>2021-08-06T08:52:36.308Z</time>
      </trkpt>
      <trkpt lat="46.97029" lon="8.77268">
        <ele>686</ele>
        <time>2021-08-06T08:52:37.308Z</time>
      </trkpt>
      <trkpt lat="46.97029" lon="8.7727">
        <ele>686</ele>
        <time>2021-08-06T08:52:38.308Z</time>
      </trkpt>
      <trkpt lat="46.97028" lon="8.77271">
        <ele>687</ele>
        <time>2021-08-06T08:52:39.308Z</time>
      </trkpt>
      <trkpt lat="46.97029" lon="8.77272">
        <ele>687</ele>
        <time>2021-08-06T08:52:40.308Z</time>
      </trkpt>
      <trkpt lat="46.97029" lon="8.77273">
        <ele>688</ele>
        <time>2021-08-06T08:52:41.308Z</time>
      </trkpt>
      <trkpt lat="46.97028" lon="8.77274">
        <ele>688</ele>
        <time>2021-08-06T08:52:42.308Z</time>
      </trkpt>
      <trkpt lat="46.97028" lon="8.77275">
        <ele>688</ele>
        <time>2021-08-06T08:52:43.308Z</time>
      </trkpt>
      <trkpt lat="46.97028" lon="8.77276">
        <ele>688</ele>
        <time>2021-08-06T08:52:44.308Z</time>
      </trkpt>
      <trkpt lat="46.97027" lon="8.77277">
        <ele>688</ele>
        <time>2021-08-06T08:52:45.308Z</time>
      </trkpt>
      <trkpt lat="46.97027" lon="8.77278">
        <ele>689</ele>
        <time>2021-08-06T08:52:46.308Z</time>
      </trkpt>
      <trkpt lat="46.97027" lon="8.77281">
        <ele>689</ele>
        <time>2021-08-06T08:52:47.308Z</time>
      </trkpt>
      <trkpt lat="46.97028" lon="8.77282">
        <ele>689</ele>
        <time>2021-08-06T08:52:48.308Z</time>
      </trkpt>
      <trkpt lat="46.97027" lon="8.77282">
        <ele>689</ele>
        <time>2021-08-06T08:52:49.308Z</time>
      </trkpt>
      <trkpt lat="46.97026" lon="8.77282">
        <ele>689</ele>
        <time>2021-08-06T08:52:50.308Z</time>
      </trkpt>
      <trkpt lat="46.97026" lon="8.77282">
        <ele>689</ele>
        <time>2021-08-06T08:52:51.308Z</time>
      </trkpt>
      <trkpt lat="46.97025" lon="8.77282">
        <ele>689</ele>
        <time>2021-08-06T08:52:52.308Z</time>
      </trkpt>
      <trkpt lat="46.97025" lon="8.77282">
        <ele>689</ele>
        <time>2021-08-06T08:52:53.308Z</time>
      </trkpt>
      <trkpt lat="46.97025" lon="8.77282">
        <ele>689</ele>
        <time>2021-08-06T08:52:54.308Z</time>
      </trkpt>
      <trkpt lat="46.97024" lon="8.77282">
        <ele>690</ele>
        <time>2021-08-06T08:52:55.308Z</time>
      </trkpt>
      <trkpt lat="46.97024" lon="8.77282">
        <ele>690</ele>
        <time>2021-08-06T08:52:56.308Z</time>
      </trkpt>
      <trkpt lat="46.97023" lon="8.77283">
        <ele>689</ele>
        <time>2021-08-06T08:52:57.308Z</time>
      </trkpt>
      <trkpt lat="46.97024" lon="8.77283">
        <ele>689</ele>
        <time>2021-08-06T08:52:58.308Z</time>
      </trkpt>
      <trkpt lat="46.97024" lon="8.77284">
        <ele>689</ele>
        <time>2021-08-06T08:52:59.308Z</time>
      </trkpt>
      <trkpt lat="46.97023" lon="8.77284">
        <ele>689</ele>
        <time>2021-08-06T08:53:00.308Z</time>
      </trkpt>
      <trkpt lat="46.97023" lon="8.77283">
        <ele>690</ele>
        <time>2021-08-06T08:53:01.308Z</time>
      </trkpt>
      <trkpt lat="46.97022" lon="8.77284">
        <ele>690</ele>
        <time>2021-08-06T08:53:02.308Z</time>
      </trkpt>
      <trkpt lat="46.97022" lon="8.77284">
        <ele>690</ele>
        <time>2021-08-06T08:53:03.308Z</time>
      </trkpt>
      <trkpt lat="46.97022" lon="8.77284">
        <ele>690</ele>
        <time>2021-08-06T08:53:04.308Z</time>
      </trkpt>
      <trkpt lat="46.97021" lon="8.77285">
        <ele>690</ele>
        <time>2021-08-06T08:53:05.308Z</time>
      </trkpt>
      <trkpt lat="46.9702" lon="8.77286">
        <ele>690</ele>
        <time>2021-08-06T08:53:06.308Z</time>
      </trkpt>
      <trkpt lat="46.97019" lon="8.77286">
        <ele>690</ele>
        <time>2021-08-06T08:53:07.308Z</time>
      </trkpt>
      <trkpt lat="46.97019" lon="8.77287">
        <ele>690</ele>
        <time>2021-08-06T08:53:08.308Z</time>
      </trkpt>
      <trkpt lat="46.97018" lon="8.77289">
        <ele>689</ele>
        <time>2021-08-06T08:53:09.308Z</time>
      </trkpt>
      <trkpt lat="46.97018" lon="8.7729">
        <ele>689</ele>
        <time>2021-08-06T08:53:10.308Z</time>
      </trkpt>
      <trkpt lat="46.97017" lon="8.77291">
        <ele>688</ele>
        <time>2021-08-06T08:53:11.308Z</time>
      </trkpt>
      <trkpt lat="46.97017" lon="8.77292">
        <ele>688</ele>
        <time>2021-08-06T08:53:12.308Z</time>
      </trkpt>
      <trkpt lat="46.97016" lon="8.77293">
        <ele>688</ele>
        <time>2021-08-06T08:53:13.308Z</time>
      </trkpt>
      <trkpt lat="46.97016" lon="8.77293">
        <ele>688</ele>
        <time>2021-08-06T08:53:14.308Z</time>
      </trkpt>
      <trkpt lat="46.97016" lon="8.77294">
        <ele>688</ele>
        <time>2021-08-06T08:53:15.308Z</time>
      </trkpt>
      <trkpt lat="46.97015" lon="8.77295">
        <ele>688</ele>
        <time>2021-08-06T08:53:16.308Z</time>
      </trkpt>
      <trkpt lat="46.97018" lon="8.77292">
        <ele>689</ele>
        <time>2021-08-06T08:53:17.308Z</time>
      </trkpt>
      <trkpt lat="46.97018" lon="8.77291">
        <ele>690</ele>
        <time>2021-08-06T08:53:18.308Z</time>
      </trkpt>
      <trkpt lat="46.97018" lon="8.77291">
        <ele>691</ele>
        <time>2021-08-06T08:53:19.309Z</time>
      </trkpt>
      <trkpt lat="46.97018" lon="8.77291">
        <ele>692</ele>
        <time>2021-08-06T08:53:20.309Z</time>
      </trkpt>
      <trkpt lat="46.97018" lon="8.77291">
        <ele>693</ele>
        <time>2021-08-06T08:53:21.308Z</time>
      </trkpt>
      <trkpt lat="46.97017" lon="8.77291">
        <ele>693</ele>
        <time>2021-08-06T08:53:22.308Z</time>
      </trkpt>
      <trkpt lat="46.97016" lon="8.77292">
        <ele>693</ele>
        <time>2021-08-06T08:53:23.308Z</time>
      </trkpt>
      <trkpt lat="46.97016" lon="8.77291">
        <ele>694</ele>
        <time>2021-08-06T08:53:24.308Z</time>
      </trkpt>
      <trkpt lat="46.97016" lon="8.77292">
        <ele>691</ele>
        <time>2021-08-06T08:53:25.309Z</time>
      </trkpt>
      <trkpt lat="46.97016" lon="8.77293">
        <ele>690</ele>
        <time>2021-08-06T08:53:26.308Z</time>
      </trkpt>
      <trkpt lat="46.97016" lon="8.77294">
        <ele>689</ele>
        <time>2021-08-06T08:53:27.309Z</time>
      </trkpt>
      <trkpt lat="46.97015" lon="8.77295">
        <ele>689</ele>
        <time>2021-08-06T08:53:28.309Z</time>
      </trkpt>
      <trkpt lat="46.97015" lon="8.77297">
        <ele>688</ele>
        <time>2021-08-06T08:53:29.308Z</time>
      </trkpt>
      <trkpt lat="46.97014" lon="8.77299">
        <ele>688</ele>
        <time>2021-08-06T08:53:30.308Z</time>
      </trkpt>
      <trkpt lat="46.97014" lon="8.773">
        <ele>688</ele>
        <time>2021-08-06T08:53:31.309Z</time>
      </trkpt>
      <trkpt lat="46.97012" lon="8.77301">
        <ele>688</ele>
        <time>2021-08-06T08:53:32.308Z</time>
      </trkpt>
      <trkpt lat="46.97011" lon="8.77301">
        <ele>688</ele>
        <time>2021-08-06T08:53:33.309Z</time>
      </trkpt>
      <trkpt lat="46.97011" lon="8.77302">
        <ele>688</ele>
        <time>2021-08-06T08:53:34.308Z</time>
      </trkpt>
      <trkpt lat="46.9701" lon="8.77304">
        <ele>687</ele>
        <time>2021-08-06T08:53:35.309Z</time>
      </trkpt>
      <trkpt lat="46.9701" lon="8.77305">
        <ele>687</ele>
        <time>2021-08-06T08:53:36.309Z</time>
      </trkpt>
      <trkpt lat="46.97009" lon="8.77305">
        <ele>687</ele>
        <time>2021-08-06T08:53:37.309Z</time>
      </trkpt>
      <trkpt lat="46.97008" lon="8.77306">
        <ele>687</ele>
        <time>2021-08-06T08:53:38.309Z</time>
      </trkpt>
      <trkpt lat="46.97007" lon="8.77307">
        <ele>688</ele>
        <time>2021-08-06T08:53:39.308Z</time>
      </trkpt>
      <trkpt lat="46.97007" lon="8.77308">
        <ele>688</ele>
        <time>2021-08-06T08:53:40.308Z</time>
      </trkpt>
      <trkpt lat="46.97006" lon="8.77308">
        <ele>688</ele>
        <time>2021-08-06T08:53:41.308Z</time>
      </trkpt>
      <trkpt lat="46.97006" lon="8.77307">
        <ele>688</ele>
        <time>2021-08-06T08:53:42.309Z</time>
      </trkpt>
      <trkpt lat="46.97005" lon="8.77307">
        <ele>688</ele>
        <time>2021-08-06T08:53:43.309Z</time>
      </trkpt>
      <trkpt lat="46.97005" lon="8.77307">
        <ele>688</ele>
        <time>2021-08-06T08:53:44.309Z</time>
      </trkpt>
      <trkpt lat="46.97004" lon="8.77307">
        <ele>688</ele>
        <time>2021-08-06T08:53:45.309Z</time>
      </trkpt>
      <trkpt lat="46.97003" lon="8.77307">
        <ele>688</ele>
        <time>2021-08-06T08:53:46.309Z</time>
      </trkpt>
      <trkpt lat="46.97003" lon="8.77308">
        <ele>688</ele>
        <time>2021-08-06T08:53:47.309Z</time>
      </trkpt>
      <trkpt lat="46.97002" lon="8.77308">
        <ele>688</ele>
        <time>2021-08-06T08:53:48.308Z</time>
      </trkpt>
      <trkpt lat="46.97001" lon="8.77308">
        <ele>688</ele>
        <time>2021-08-06T08:53:49.308Z</time>
      </trkpt>
      <trkpt lat="46.97" lon="8.77308">
        <ele>689</ele>
        <time>2021-08-06T08:53:50.308Z</time>
      </trkpt>
      <trkpt lat="46.97" lon="8.77308">
        <ele>689</ele>
        <time>2021-08-06T08:53:51.309Z</time>
      </trkpt>
      <trkpt lat="46.96999" lon="8.77308">
        <ele>690</ele>
        <time>2021-08-06T08:53:52.309Z</time>
      </trkpt>
      <trkpt lat="46.96999" lon="8.77309">
        <ele>691</ele>
        <time>2021-08-06T08:53:53.309Z</time>
      </trkpt>
      <trkpt lat="46.96998" lon="8.77309">
        <ele>691</ele>
        <time>2021-08-06T08:53:54.309Z</time>
      </trkpt>
      <trkpt lat="46.96997" lon="8.7731">
        <ele>692</ele>
        <time>2021-08-06T08:53:55.309Z</time>
      </trkpt>
      <trkpt lat="46.96997" lon="8.7731">
        <ele>693</ele>
        <time>2021-08-06T08:53:56.309Z</time>
      </trkpt>
      <trkpt lat="46.96996" lon="8.77311">
        <ele>694</ele>
        <time>2021-08-06T08:53:57.308Z</time>
      </trkpt>
      <trkpt lat="46.96996" lon="8.77311">
        <ele>694</ele>
        <time>2021-08-06T08:53:58.309Z</time>
      </trkpt>
      <trkpt lat="46.96995" lon="8.77311">
        <ele>695</ele>
        <time>2021-08-06T08:53:59.308Z</time>
      </trkpt>
      <trkpt lat="46.96994" lon="8.77312">
        <ele>695</ele>
        <time>2021-08-06T08:54:00.308Z</time>
      </trkpt>
      <trkpt lat="46.96994" lon="8.77312">
        <ele>696</ele>
        <time>2021-08-06T08:54:01.309Z</time>
      </trkpt>
      <trkpt lat="46.96993" lon="8.77313">
        <ele>696</ele>
        <time>2021-08-06T08:54:02.309Z</time>
      </trkpt>
      <trkpt lat="46.96993" lon="8.77313">
        <ele>697</ele>
        <time>2021-08-06T08:54:03.309Z</time>
      </trkpt>
      <trkpt lat="46.96992" lon="8.77314">
        <ele>698</ele>
        <time>2021-08-06T08:54:04.309Z</time>
      </trkpt>
      <trkpt lat="46.96991" lon="8.77314">
        <ele>698</ele>
        <time>2021-08-06T08:54:05.308Z</time>
      </trkpt>
      <trkpt lat="46.96991" lon="8.77314">
        <ele>698</ele>
        <time>2021-08-06T08:54:06.309Z</time>
      </trkpt>
      <trkpt lat="46.9699" lon="8.77314">
        <ele>699</ele>
        <time>2021-08-06T08:54:07.309Z</time>
      </trkpt>
      <trkpt lat="46.96989" lon="8.77315">
        <ele>699</ele>
        <time>2021-08-06T08:54:08.309Z</time>
      </trkpt>
      <trkpt lat="46.96989" lon="8.77315">
        <ele>699</ele>
        <time>2021-08-06T08:54:09.309Z</time>
      </trkpt>
      <trkpt lat="46.96988" lon="8.77315">
        <ele>699</ele>
        <time>2021-08-06T08:54:10.308Z</time>
      </trkpt>
      <trkpt lat="46.96988" lon="8.77315">
        <ele>699</ele>
        <time>2021-08-06T08:54:11.309Z</time>
      </trkpt>
      <trkpt lat="46.96988" lon="8.77316">
        <ele>698</ele>
        <time>2021-08-06T08:54:12.309Z</time>
      </trkpt>
      <trkpt lat="46.96988" lon="8.77317">
        <ele>698</ele>
        <time>2021-08-06T08:54:13.309Z</time>
      </trkpt>
      <trkpt lat="46.96987" lon="8.77317">
        <ele>699</ele>
        <time>2021-08-06T08:54:14.308Z</time>
      </trkpt>
      <trkpt lat="46.96986" lon="8.77318">
        <ele>699</ele>
        <time>2021-08-06T08:54:15.309Z</time>
      </trkpt>
      <trkpt lat="46.96985" lon="8.77318">
        <ele>699</ele>
        <time>2021-08-06T08:54:16.309Z</time>
      </trkpt>
      <trkpt lat="46.96984" lon="8.77319">
        <ele>699</ele>
        <time>2021-08-06T08:54:17.309Z</time>
      </trkpt>
      <trkpt lat="46.96983" lon="8.77319">
        <ele>700</ele>
        <time>2021-08-06T08:54:18.308Z</time>
      </trkpt>
      <trkpt lat="46.96983" lon="8.7732">
        <ele>700</ele>
        <time>2021-08-06T08:54:19.309Z</time>
      </trkpt>
      <trkpt lat="46.96982" lon="8.77321">
        <ele>700</ele>
        <time>2021-08-06T08:54:20.308Z</time>
      </trkpt>
      <trkpt lat="46.96982" lon="8.77321">
        <ele>700</ele>
        <time>2021-08-06T08:54:21.309Z</time>
      </trkpt>
      <trkpt lat="46.96982" lon="8.77322">
        <ele>699</ele>
        <time>2021-08-06T08:54:22.309Z</time>
      </trkpt>
      <trkpt lat="46.96981" lon="8.77323">
        <ele>699</ele>
        <time>2021-08-06T08:54:23.308Z</time>
      </trkpt>
      <trkpt lat="46.9698" lon="8.77323">
        <ele>699</ele>
        <time>2021-08-06T08:54:24.308Z</time>
      </trkpt>
      <trkpt lat="46.96979" lon="8.77323">
        <ele>699</ele>
        <time>2021-08-06T08:54:25.309Z</time>
      </trkpt>
      <trkpt lat="46.96979" lon="8.77324">
        <ele>699</ele>
        <time>2021-08-06T08:54:26.308Z</time>
      </trkpt>
      <trkpt lat="46.96979" lon="8.77324">
        <ele>699</ele>
        <time>2021-08-06T08:54:27.309Z</time>
      </trkpt>
      <trkpt lat="46.96979" lon="8.77323">
        <ele>698</ele>
        <time>2021-08-06T08:54:28.308Z</time>
      </trkpt>
      <trkpt lat="46.96979" lon="8.77323">
        <ele>698</ele>
        <time>2021-08-06T08:54:29.308Z</time>
      </trkpt>
      <trkpt lat="46.96978" lon="8.77322">
        <ele>698</ele>
        <time>2021-08-06T08:54:30.308Z</time>
      </trkpt>
      <trkpt lat="46.96977" lon="8.77321">
        <ele>698</ele>
        <time>2021-08-06T08:54:31.309Z</time>
      </trkpt>
      <trkpt lat="46.96976" lon="8.77321">
        <ele>698</ele>
        <time>2021-08-06T08:54:32.309Z</time>
      </trkpt>
      <trkpt lat="46.96976" lon="8.7732">
        <ele>698</ele>
        <time>2021-08-06T08:54:33.309Z</time>
      </trkpt>
      <trkpt lat="46.96975" lon="8.7732">
        <ele>698</ele>
        <time>2021-08-06T08:54:34.309Z</time>
      </trkpt>
      <trkpt lat="46.96974" lon="8.77321">
        <ele>699</ele>
        <time>2021-08-06T08:54:35.309Z</time>
      </trkpt>
      <trkpt lat="46.96973" lon="8.77322">
        <ele>699</ele>
        <time>2021-08-06T08:54:36.308Z</time>
      </trkpt>
      <trkpt lat="46.96973" lon="8.77322">
        <ele>699</ele>
        <time>2021-08-06T08:54:37.308Z</time>
      </trkpt>
      <trkpt lat="46.96972" lon="8.77323">
        <ele>699</ele>
        <time>2021-08-06T08:54:38.309Z</time>
      </trkpt>
      <trkpt lat="46.96972" lon="8.77323">
        <ele>699</ele>
        <time>2021-08-06T08:54:39.309Z</time>
      </trkpt>
      <trkpt lat="46.96971" lon="8.77323">
        <ele>699</ele>
        <time>2021-08-06T08:54:40.309Z</time>
      </trkpt>
      <trkpt lat="46.9697" lon="8.77324">
        <ele>699</ele>
        <time>2021-08-06T08:54:41.309Z</time>
      </trkpt>
      <trkpt lat="46.9697" lon="8.77324">
        <ele>699</ele>
        <time>2021-08-06T08:54:42.308Z</time>
      </trkpt>
      <trkpt lat="46.96969" lon="8.77324">
        <ele>699</ele>
        <time>2021-08-06T08:54:43.309Z</time>
      </trkpt>
      <trkpt lat="46.96968" lon="8.77323">
        <ele>699</ele>
        <time>2021-08-06T08:54:44.309Z</time>
      </trkpt>
      <trkpt lat="46.96967" lon="8.77323">
        <ele>700</ele>
        <time>2021-08-06T08:54:45.308Z</time>
      </trkpt>
      <trkpt lat="46.96967" lon="8.77323">
        <ele>700</ele>
        <time>2021-08-06T08:54:46.308Z</time>
      </trkpt>
      <trkpt lat="46.96966" lon="8.77323">
        <ele>700</ele>
        <time>2021-08-06T08:54:47.308Z</time>
      </trkpt>
      <trkpt lat="46.96966" lon="8.77323">
        <ele>700</ele>
        <time>2021-08-06T08:54:48.309Z</time>
      </trkpt>
      <trkpt lat="46.96966" lon="8.77323">
        <ele>701</ele>
        <time>2021-08-06T08:54:49.308Z</time>
      </trkpt>
      <trkpt lat="46.96966" lon="8.77322">
        <ele>700</ele>
        <time>2021-08-06T08:54:50.308Z</time>
      </trkpt>
      <trkpt lat="46.96965" lon="8.77316">
        <ele>699</ele>
        <time>2021-08-06T08:54:51.310Z</time>
      </trkpt>
      <trkpt lat="46.96965" lon="8.77315">
        <ele>698</ele>
        <time>2021-08-06T08:54:52.310Z</time>
      </trkpt>
      <trkpt lat="46.96962" lon="8.77317">
        <ele>697</ele>
        <time>2021-08-06T08:54:53.310Z</time>
      </trkpt>
      <trkpt lat="46.96961" lon="8.77317">
        <ele>698</ele>
        <time>2021-08-06T08:54:54.310Z</time>
      </trkpt>
      <trkpt lat="46.96961" lon="8.77319">
        <ele>699</ele>
        <time>2021-08-06T08:54:55.310Z</time>
      </trkpt>
      <trkpt lat="46.96961" lon="8.7732">
        <ele>700</ele>
        <time>2021-08-06T08:54:56.310Z</time>
      </trkpt>
      <trkpt lat="46.96962" lon="8.77324">
        <ele>701</ele>
        <time>2021-08-06T08:54:57.311Z</time>
      </trkpt>
      <trkpt lat="46.96962" lon="8.77325">
        <ele>701</ele>
        <time>2021-08-06T08:54:58.312Z</time>
      </trkpt>
      <trkpt lat="46.96962" lon="8.77325">
        <ele>702</ele>
        <time>2021-08-06T08:54:59.312Z</time>
      </trkpt>
      <trkpt lat="46.96962" lon="8.77326">
        <ele>702</ele>
        <time>2021-08-06T08:55:00.311Z</time>
      </trkpt>
      <trkpt lat="46.96962" lon="8.77327">
        <ele>702</ele>
        <time>2021-08-06T08:55:01.312Z</time>
      </trkpt>
      <trkpt lat="46.96961" lon="8.77327">
        <ele>702</ele>
        <time>2021-08-06T08:55:02.312Z</time>
      </trkpt>
      <trkpt lat="46.96961" lon="8.77328">
        <ele>702</ele>
        <time>2021-08-06T08:55:03.312Z</time>
      </trkpt>
      <trkpt lat="46.9696" lon="8.77328">
        <ele>702</ele>
        <time>2021-08-06T08:55:04.311Z</time>
      </trkpt>
      <trkpt lat="46.9696" lon="8.77329">
        <ele>702</ele>
        <time>2021-08-06T08:55:05.312Z</time>
      </trkpt>
      <trkpt lat="46.9696" lon="8.7733">
        <ele>703</ele>
        <time>2021-08-06T08:55:06.311Z</time>
      </trkpt>
      <trkpt lat="46.96959" lon="8.77331">
        <ele>703</ele>
        <time>2021-08-06T08:55:07.311Z</time>
      </trkpt>
      <trkpt lat="46.96959" lon="8.77332">
        <ele>703</ele>
        <time>2021-08-06T08:55:08.311Z</time>
      </trkpt>
      <trkpt lat="46.96959" lon="8.77332">
        <ele>703</ele>
        <time>2021-08-06T08:55:09.312Z</time>
      </trkpt>
      <trkpt lat="46.96958" lon="8.77334">
        <ele>703</ele>
        <time>2021-08-06T08:55:10.311Z</time>
      </trkpt>
      <trkpt lat="46.96958" lon="8.77335">
        <ele>704</ele>
        <time>2021-08-06T08:55:11.312Z</time>
      </trkpt>
      <trkpt lat="46.96957" lon="8.77335">
        <ele>704</ele>
        <time>2021-08-06T08:55:12.312Z</time>
      </trkpt>
      <trkpt lat="46.96957" lon="8.77336">
        <ele>704</ele>
        <time>2021-08-06T08:55:13.311Z</time>
      </trkpt>
      <trkpt lat="46.96957" lon="8.77337">
        <ele>704</ele>
        <time>2021-08-06T08:55:14.312Z</time>
      </trkpt>
      <trkpt lat="46.96957" lon="8.77337">
        <ele>704</ele>
        <time>2021-08-06T08:55:15.312Z</time>
      </trkpt>
      <trkpt lat="46.96956" lon="8.77338">
        <ele>705</ele>
        <time>2021-08-06T08:55:16.311Z</time>
      </trkpt>
      <trkpt lat="46.96956" lon="8.7734">
        <ele>705</ele>
        <time>2021-08-06T08:55:17.311Z</time>
      </trkpt>
      <trkpt lat="46.96956" lon="8.7734">
        <ele>706</ele>
        <time>2021-08-06T08:55:18.312Z</time>
      </trkpt>
      <trkpt lat="46.96956" lon="8.77341">
        <ele>706</ele>
        <time>2021-08-06T08:55:19.311Z</time>
      </trkpt>
      <trkpt lat="46.96955" lon="8.77341">
        <ele>707</ele>
        <time>2021-08-06T08:55:20.312Z</time>
      </trkpt>
      <trkpt lat="46.96955" lon="8.77342">
        <ele>707</ele>
        <time>2021-08-06T08:55:21.312Z</time>
      </trkpt>
      <trkpt lat="46.96955" lon="8.77342">
        <ele>708</ele>
        <time>2021-08-06T08:55:22.312Z</time>
      </trkpt>
      <trkpt lat="46.96954" lon="8.77342">
        <ele>708</ele>
        <time>2021-08-06T08:55:23.312Z</time>
      </trkpt>
      <trkpt lat="46.96954" lon="8.77342">
        <ele>708</ele>
        <time>2021-08-06T08:55:24.312Z</time>
      </trkpt>
      <trkpt lat="46.96953" lon="8.77342">
        <ele>708</ele>
        <time>2021-08-06T08:55:25.311Z</time>
      </trkpt>
      <trkpt lat="46.96953" lon="8.77342">
        <ele>708</ele>
        <time>2021-08-06T08:55:26.312Z</time>
      </trkpt>
      <trkpt lat="46.96952" lon="8.77343">
        <ele>708</ele>
        <time>2021-08-06T08:55:27.312Z</time>
      </trkpt>
      <trkpt lat="46.96952" lon="8.77343">
        <ele>708</ele>
        <time>2021-08-06T08:55:28.311Z</time>
      </trkpt>
      <trkpt lat="46.96952" lon="8.77344">
        <ele>708</ele>
        <time>2021-08-06T08:55:29.311Z</time>
      </trkpt>
      <trkpt lat="46.96951" lon="8.77345">
        <ele>709</ele>
        <time>2021-08-06T08:55:30.312Z</time>
      </trkpt>
      <trkpt lat="46.96951" lon="8.77345">
        <ele>709</ele>
        <time>2021-08-06T08:55:31.311Z</time>
      </trkpt>
      <trkpt lat="46.96951" lon="8.77345">
        <ele>709</ele>
        <time>2021-08-06T08:55:32.311Z</time>
      </trkpt>
      <trkpt lat="46.96951" lon="8.77345">
        <ele>709</ele>
        <time>2021-08-06T08:55:33.312Z</time>
      </trkpt>
      <trkpt lat="46.96951" lon="8.77346">
        <ele>709</ele>
        <time>2021-08-06T08:55:34.312Z</time>
      </trkpt>
      <trkpt lat="46.96951" lon="8.77347">
        <ele>709</ele>
        <time>2021-08-06T08:55:35.312Z</time>
      </trkpt>
      <trkpt lat="46.96951" lon="8.77347">
        <ele>709</ele>
        <time>2021-08-06T08:55:36.312Z</time>
      </trkpt>
      <trkpt lat="46.96951" lon="8.77347">
        <ele>709</ele>
        <time>2021-08-06T08:55:37.312Z</time>
      </trkpt>
      <trkpt lat="46.9695" lon="8.77348">
        <ele>709</ele>
        <time>2021-08-06T08:55:38.311Z</time>
      </trkpt>
      <trkpt lat="46.9695" lon="8.77348">
        <ele>710</ele>
        <time>2021-08-06T08:55:39.312Z</time>
      </trkpt>
      <trkpt lat="46.9695" lon="8.77349">
        <ele>709</ele>
        <time>2021-08-06T08:55:40.312Z</time>
      </trkpt>
      <trkpt lat="46.9695" lon="8.77349">
        <ele>709</ele>
        <time>2021-08-06T08:55:41.312Z</time>
      </trkpt>
      <trkpt lat="46.96949" lon="8.7735">
        <ele>709</ele>
        <time>2021-08-06T08:55:42.312Z</time>
      </trkpt>
      <trkpt lat="46.96949" lon="8.7735">
        <ele>709</ele>
        <time>2021-08-06T08:55:43.311Z</time>
      </trkpt>
      <trkpt lat="46.96949" lon="8.7735">
        <ele>709</ele>
        <time>2021-08-06T08:55:44.312Z</time>
      </trkpt>
      <trkpt lat="46.96948" lon="8.7735">
        <ele>710</ele>
        <time>2021-08-06T08:55:45.312Z</time>
      </trkpt>
      <trkpt lat="46.96947" lon="8.7735">
        <ele>710</ele>
        <time>2021-08-06T08:55:46.312Z</time>
      </trkpt>
      <trkpt lat="46.96947" lon="8.7735">
        <ele>710</ele>
        <time>2021-08-06T08:55:47.312Z</time>
      </trkpt>
      <trkpt lat="46.96946" lon="8.7735">
        <ele>710</ele>
        <time>2021-08-06T08:55:48.312Z</time>
      </trkpt>
      <trkpt lat="46.96946" lon="8.77349">
        <ele>710</ele>
        <time>2021-08-06T08:55:49.312Z</time>
      </trkpt>
      <trkpt lat="46.96946" lon="8.77349">
        <ele>710</ele>
        <time>2021-08-06T08:55:50.312Z</time>
      </trkpt>
      <trkpt lat="46.96945" lon="8.77348">
        <ele>710</ele>
        <time>2021-08-06T08:55:51.312Z</time>
      </trkpt>
      <trkpt lat="46.96944" lon="8.77348">
        <ele>710</ele>
        <time>2021-08-06T08:55:52.312Z</time>
      </trkpt>
      <trkpt lat="46.96943" lon="8.77347">
        <ele>710</ele>
        <time>2021-08-06T08:55:53.311Z</time>
      </trkpt>
      <trkpt lat="46.96943" lon="8.77347">
        <ele>711</ele>
        <time>2021-08-06T08:55:54.311Z</time>
      </trkpt>
      <trkpt lat="46.96942" lon="8.77347">
        <ele>711</ele>
        <time>2021-08-06T08:55:55.312Z</time>
      </trkpt>
      <trkpt lat="46.96942" lon="8.77346">
        <ele>712</ele>
        <time>2021-08-06T08:55:56.312Z</time>
      </trkpt>
      <trkpt lat="46.96941" lon="8.77345">
        <ele>712</ele>
        <time>2021-08-06T08:55:57.312Z</time>
      </trkpt>
      <trkpt lat="46.96941" lon="8.77345">
        <ele>712</ele>
        <time>2021-08-06T08:55:58.312Z</time>
      </trkpt>
      <trkpt lat="46.96941" lon="8.77346">
        <ele>712</ele>
        <time>2021-08-06T08:55:59.312Z</time>
      </trkpt>
      <trkpt lat="46.9694" lon="8.77346">
        <ele>712</ele>
        <time>2021-08-06T08:56:00.312Z</time>
      </trkpt>
      <trkpt lat="46.9694" lon="8.77347">
        <ele>713</ele>
        <time>2021-08-06T08:56:01.311Z</time>
      </trkpt>
      <trkpt lat="46.96939" lon="8.77347">
        <ele>713</ele>
        <time>2021-08-06T08:56:02.312Z</time>
      </trkpt>
      <trkpt lat="46.96939" lon="8.77347">
        <ele>714</ele>
        <time>2021-08-06T08:56:03.312Z</time>
      </trkpt>
      <trkpt lat="46.96939" lon="8.77348">
        <ele>715</ele>
        <time>2021-08-06T08:56:04.312Z</time>
      </trkpt>
      <trkpt lat="46.96938" lon="8.77348">
        <ele>715</ele>
        <time>2021-08-06T08:56:05.311Z</time>
      </trkpt>
      <trkpt lat="46.96938" lon="8.77348">
        <ele>716</ele>
        <time>2021-08-06T08:56:06.312Z</time>
      </trkpt>
      <trkpt lat="46.96937" lon="8.7735">
        <ele>716</ele>
        <time>2021-08-06T08:56:07.312Z</time>
      </trkpt>
      <trkpt lat="46.96937" lon="8.77351">
        <ele>716</ele>
        <time>2021-08-06T08:56:08.311Z</time>
      </trkpt>
      <trkpt lat="46.96936" lon="8.77351">
        <ele>716</ele>
        <time>2021-08-06T08:56:09.311Z</time>
      </trkpt>
      <trkpt lat="46.96936" lon="8.77351">
        <ele>716</ele>
        <time>2021-08-06T08:56:10.312Z</time>
      </trkpt>
      <trkpt lat="46.96935" lon="8.77351">
        <ele>716</ele>
        <time>2021-08-06T08:56:11.311Z</time>
      </trkpt>
      <trkpt lat="46.96935" lon="8.7735">
        <ele>717</ele>
        <time>2021-08-06T08:56:12.312Z</time>
      </trkpt>
      <trkpt lat="46.96934" lon="8.77348">
        <ele>717</ele>
        <time>2021-08-06T08:56:13.312Z</time>
      </trkpt>
      <trkpt lat="46.96933" lon="8.77347">
        <ele>718</ele>
        <time>2021-08-06T08:56:14.311Z</time>
      </trkpt>
      <trkpt lat="46.96932" lon="8.77346">
        <ele>718</ele>
        <time>2021-08-06T08:56:15.311Z</time>
      </trkpt>
      <trkpt lat="46.9693" lon="8.77345">
        <ele>719</ele>
        <time>2021-08-06T08:56:16.312Z</time>
      </trkpt>
      <trkpt lat="46.96929" lon="8.77344">
        <ele>719</ele>
        <time>2021-08-06T08:56:17.312Z</time>
      </trkpt>
      <trkpt lat="46.96929" lon="8.77343">
        <ele>720</ele>
        <time>2021-08-06T08:56:18.312Z</time>
      </trkpt>
      <trkpt lat="46.96928" lon="8.77343">
        <ele>721</ele>
        <time>2021-08-06T08:56:19.312Z</time>
      </trkpt>
      <trkpt lat="46.96927" lon="8.77342">
        <ele>722</ele>
        <time>2021-08-06T08:56:20.311Z</time>
      </trkpt>
      <trkpt lat="46.96927" lon="8.77342">
        <ele>723</ele>
        <time>2021-08-06T08:56:21.312Z</time>
      </trkpt>
      <trkpt lat="46.96927" lon="8.77342">
        <ele>724</ele>
        <time>2021-08-06T08:56:22.312Z</time>
      </trkpt>
      <trkpt lat="46.96927" lon="8.77342">
        <ele>725</ele>
        <time>2021-08-06T08:56:23.313Z</time>
      </trkpt>
      <trkpt lat="46.96926" lon="8.77341">
        <ele>726</ele>
        <time>2021-08-06T08:56:24.312Z</time>
      </trkpt>
      <trkpt lat="46.96926" lon="8.7734">
        <ele>726</ele>
        <time>2021-08-06T08:56:25.312Z</time>
      </trkpt>
      <trkpt lat="46.96925" lon="8.7734">
        <ele>726</ele>
        <time>2021-08-06T08:56:26.313Z</time>
      </trkpt>
      <trkpt lat="46.96925" lon="8.7734">
        <ele>725</ele>
        <time>2021-08-06T08:56:27.313Z</time>
      </trkpt>
      <trkpt lat="46.96925" lon="8.77341">
        <ele>725</ele>
        <time>2021-08-06T08:56:28.312Z</time>
      </trkpt>
      <trkpt lat="46.96924" lon="8.77343">
        <ele>724</ele>
        <time>2021-08-06T08:56:29.313Z</time>
      </trkpt>
      <trkpt lat="46.96924" lon="8.77344">
        <ele>724</ele>
        <time>2021-08-06T08:56:30.313Z</time>
      </trkpt>
      <trkpt lat="46.96923" lon="8.77344">
        <ele>724</ele>
        <time>2021-08-06T08:56:31.312Z</time>
      </trkpt>
      <trkpt lat="46.96923" lon="8.77345">
        <ele>725</ele>
        <time>2021-08-06T08:56:32.313Z</time>
      </trkpt>
      <trkpt lat="46.96923" lon="8.77345">
        <ele>725</ele>
        <time>2021-08-06T08:56:33.313Z</time>
      </trkpt>
      <trkpt lat="46.96922" lon="8.77345">
        <ele>725</ele>
        <time>2021-08-06T08:56:34.313Z</time>
      </trkpt>
      <trkpt lat="46.96922" lon="8.77346">
        <ele>725</ele>
        <time>2021-08-06T08:56:35.313Z</time>
      </trkpt>
      <trkpt lat="46.96922" lon="8.77346">
        <ele>725</ele>
        <time>2021-08-06T08:56:36.313Z</time>
      </trkpt>
      <trkpt lat="46.96921" lon="8.77345">
        <ele>725</ele>
        <time>2021-08-06T08:56:37.313Z</time>
      </trkpt>
      <trkpt lat="46.9692" lon="8.77345">
        <ele>724</ele>
        <time>2021-08-06T08:56:38.313Z</time>
      </trkpt>
      <trkpt lat="46.9692" lon="8.77344">
        <ele>724</ele>
        <time>2021-08-06T08:56:39.312Z</time>
      </trkpt>
      <trkpt lat="46.96919" lon="8.77344">
        <ele>725</ele>
        <time>2021-08-06T08:56:40.313Z</time>
      </trkpt>
      <trkpt lat="46.96918" lon="8.77343">
        <ele>725</ele>
        <time>2021-08-06T08:56:41.312Z</time>
      </trkpt>
      <trkpt lat="46.96918" lon="8.77343">
        <ele>726</ele>
        <time>2021-08-06T08:56:42.312Z</time>
      </trkpt>
      <trkpt lat="46.96918" lon="8.77344">
        <ele>726</ele>
        <time>2021-08-06T08:56:43.312Z</time>
      </trkpt>
      <trkpt lat="46.96917" lon="8.77346">
        <ele>727</ele>
        <time>2021-08-06T08:56:44.312Z</time>
      </trkpt>
      <trkpt lat="46.96918" lon="8.77347">
        <ele>727</ele>
        <time>2021-08-06T08:56:45.313Z</time>
      </trkpt>
      <trkpt lat="46.96917" lon="8.77348">
        <ele>728</ele>
        <time>2021-08-06T08:56:46.313Z</time>
      </trkpt>
      <trkpt lat="46.96917" lon="8.77348">
        <ele>728</ele>
        <time>2021-08-06T08:56:47.312Z</time>
      </trkpt>
      <trkpt lat="46.96916" lon="8.77348">
        <ele>727</ele>
        <time>2021-08-06T08:56:48.313Z</time>
      </trkpt>
      <trkpt lat="46.96916" lon="8.77349">
        <ele>727</ele>
        <time>2021-08-06T08:56:49.313Z</time>
      </trkpt>
      <trkpt lat="46.96915" lon="8.77348">
        <ele>727</ele>
        <time>2021-08-06T08:56:50.312Z</time>
      </trkpt>
      <trkpt lat="46.96915" lon="8.77348">
        <ele>727</ele>
        <time>2021-08-06T08:56:51.312Z</time>
      </trkpt>
      <trkpt lat="46.96915" lon="8.77348">
        <ele>728</ele>
        <time>2021-08-06T08:56:52.312Z</time>
      </trkpt>
      <trkpt lat="46.96914" lon="8.77347">
        <ele>728</ele>
        <time>2021-08-06T08:56:53.313Z</time>
      </trkpt>
      <trkpt lat="46.96914" lon="8.77347">
        <ele>728</ele>
        <time>2021-08-06T08:56:54.313Z</time>
      </trkpt>
      <trkpt lat="46.96914" lon="8.77348">
        <ele>728</ele>
        <time>2021-08-06T08:56:55.313Z</time>
      </trkpt>
      <trkpt lat="46.96914" lon="8.77349">
        <ele>728</ele>
        <time>2021-08-06T08:56:56.313Z</time>
      </trkpt>
      <trkpt lat="46.96914" lon="8.7735">
        <ele>728</ele>
        <time>2021-08-06T08:56:57.312Z</time>
      </trkpt>
      <trkpt lat="46.96914" lon="8.77351">
        <ele>728</ele>
        <time>2021-08-06T08:56:58.313Z</time>
      </trkpt>
      <trkpt lat="46.96914" lon="8.77352">
        <ele>727</ele>
        <time>2021-08-06T08:56:59.312Z</time>
      </trkpt>
      <trkpt lat="46.96914" lon="8.77353">
        <ele>727</ele>
        <time>2021-08-06T08:57:00.313Z</time>
      </trkpt>
      <trkpt lat="46.96914" lon="8.77353">
        <ele>728</ele>
        <time>2021-08-06T08:57:01.313Z</time>
      </trkpt>
      <trkpt lat="46.96914" lon="8.77353">
        <ele>728</ele>
        <time>2021-08-06T08:57:02.313Z</time>
      </trkpt>
      <trkpt lat="46.96913" lon="8.77353">
        <ele>729</ele>
        <time>2021-08-06T08:57:03.313Z</time>
      </trkpt>
      <trkpt lat="46.96912" lon="8.77352">
        <ele>729</ele>
        <time>2021-08-06T08:57:04.313Z</time>
      </trkpt>
      <trkpt lat="46.96911" lon="8.77352">
        <ele>729</ele>
        <time>2021-08-06T08:57:05.313Z</time>
      </trkpt>
      <trkpt lat="46.96911" lon="8.77353">
        <ele>728</ele>
        <time>2021-08-06T08:57:06.312Z</time>
      </trkpt>
      <trkpt lat="46.9691" lon="8.77353">
        <ele>728</ele>
        <time>2021-08-06T08:57:07.312Z</time>
      </trkpt>
      <trkpt lat="46.9691" lon="8.77353">
        <ele>728</ele>
        <time>2021-08-06T08:57:08.313Z</time>
      </trkpt>
      <trkpt lat="46.96909" lon="8.77354">
        <ele>728</ele>
        <time>2021-08-06T08:57:09.313Z</time>
      </trkpt>
      <trkpt lat="46.96909" lon="8.77354">
        <ele>728</ele>
        <time>2021-08-06T08:57:10.312Z</time>
      </trkpt>
      <trkpt lat="46.96908" lon="8.77355">
        <ele>728</ele>
        <time>2021-08-06T08:57:11.313Z</time>
      </trkpt>
      <trkpt lat="46.96908" lon="8.77356">
        <ele>728</ele>
        <time>2021-08-06T08:57:12.313Z</time>
      </trkpt>
      <trkpt lat="46.96907" lon="8.77356">
        <ele>728</ele>
        <time>2021-08-06T08:57:13.312Z</time>
      </trkpt>
      <trkpt lat="46.96906" lon="8.77356">
        <ele>728</ele>
        <time>2021-08-06T08:57:14.313Z</time>
      </trkpt>
      <trkpt lat="46.96906" lon="8.77355">
        <ele>727</ele>
        <time>2021-08-06T08:57:15.312Z</time>
      </trkpt>
      <trkpt lat="46.96906" lon="8.77355">
        <ele>727</ele>
        <time>2021-08-06T08:57:16.313Z</time>
      </trkpt>
      <trkpt lat="46.96906" lon="8.77354">
        <ele>727</ele>
        <time>2021-08-06T08:57:17.313Z</time>
      </trkpt>
      <trkpt lat="46.96906" lon="8.77354">
        <ele>727</ele>
        <time>2021-08-06T08:57:18.312Z</time>
      </trkpt>
      <trkpt lat="46.96905" lon="8.77354">
        <ele>727</ele>
        <time>2021-08-06T08:57:19.312Z</time>
      </trkpt>
      <trkpt lat="46.96905" lon="8.77355">
        <ele>727</ele>
        <time>2021-08-06T08:57:20.312Z</time>
      </trkpt>
      <trkpt lat="46.96905" lon="8.77355">
        <ele>727</ele>
        <time>2021-08-06T08:57:21.312Z</time>
      </trkpt>
      <trkpt lat="46.96904" lon="8.77356">
        <ele>727</ele>
        <time>2021-08-06T08:57:22.313Z</time>
      </trkpt>
      <trkpt lat="46.96903" lon="8.77355">
        <ele>727</ele>
        <time>2021-08-06T08:57:23.312Z</time>
      </trkpt>
      <trkpt lat="46.96902" lon="8.77355">
        <ele>727</ele>
        <time>2021-08-06T08:57:24.313Z</time>
      </trkpt>
      <trkpt lat="46.96902" lon="8.77355">
        <ele>726</ele>
        <time>2021-08-06T08:57:25.312Z</time>
      </trkpt>
      <trkpt lat="46.96901" lon="8.77355">
        <ele>726</ele>
        <time>2021-08-06T08:57:26.312Z</time>
      </trkpt>
      <trkpt lat="46.96901" lon="8.77356">
        <ele>725</ele>
        <time>2021-08-06T08:57:27.312Z</time>
      </trkpt>
      <trkpt lat="46.96901" lon="8.77358">
        <ele>725</ele>
        <time>2021-08-06T08:57:28.312Z</time>
      </trkpt>
      <trkpt lat="46.969" lon="8.7736">
        <ele>725</ele>
        <time>2021-08-06T08:57:29.313Z</time>
      </trkpt>
      <trkpt lat="46.969" lon="8.77361">
        <ele>724</ele>
        <time>2021-08-06T08:57:30.313Z</time>
      </trkpt>
      <trkpt lat="46.969" lon="8.77362">
        <ele>724</ele>
        <time>2021-08-06T08:57:31.313Z</time>
      </trkpt>
      <trkpt lat="46.969" lon="8.77363">
        <ele>724</ele>
        <time>2021-08-06T08:57:32.313Z</time>
      </trkpt>
      <trkpt lat="46.96899" lon="8.77364">
        <ele>724</ele>
        <time>2021-08-06T08:57:33.312Z</time>
      </trkpt>
      <trkpt lat="46.96899" lon="8.77364">
        <ele>723</ele>
        <time>2021-08-06T08:57:34.312Z</time>
      </trkpt>
      <trkpt lat="46.96899" lon="8.77365">
        <ele>723</ele>
        <time>2021-08-06T08:57:35.313Z</time>
      </trkpt>
      <trkpt lat="46.96899" lon="8.77365">
        <ele>723</ele>
        <time>2021-08-06T08:57:36.312Z</time>
      </trkpt>
      <trkpt lat="46.96899" lon="8.77365">
        <ele>723</ele>
        <time>2021-08-06T08:57:37.312Z</time>
      </trkpt>
      <trkpt lat="46.96896" lon="8.77362">
        <ele>725</ele>
        <time>2021-08-06T08:57:38.313Z</time>
      </trkpt>
      <trkpt lat="46.96896" lon="8.77364">
        <ele>726</ele>
        <time>2021-08-06T08:57:39.313Z</time>
      </trkpt>
      <trkpt lat="46.96896" lon="8.77366">
        <ele>726</ele>
        <time>2021-08-06T08:57:40.313Z</time>
      </trkpt>
      <trkpt lat="46.96895" lon="8.77367">
        <ele>726</ele>
        <time>2021-08-06T08:57:41.313Z</time>
      </trkpt>
      <trkpt lat="46.96895" lon="8.77369">
        <ele>727</ele>
        <time>2021-08-06T08:57:42.314Z</time>
      </trkpt>
      <trkpt lat="46.96896" lon="8.77371">
        <ele>727</ele>
        <time>2021-08-06T08:57:43.314Z</time>
      </trkpt>
      <trkpt lat="46.96896" lon="8.77372">
        <ele>727</ele>
        <time>2021-08-06T08:57:44.313Z</time>
      </trkpt>
      <trkpt lat="46.96896" lon="8.77373">
        <ele>727</ele>
        <time>2021-08-06T08:57:45.314Z</time>
      </trkpt>
      <trkpt lat="46.96896" lon="8.77375">
        <ele>728</ele>
        <time>2021-08-06T08:57:46.314Z</time>
      </trkpt>
      <trkpt lat="46.96896" lon="8.77376">
        <ele>729</ele>
        <time>2021-08-06T08:57:47.314Z</time>
      </trkpt>
      <trkpt lat="46.96896" lon="8.77377">
        <ele>730</ele>
        <time>2021-08-06T08:57:48.314Z</time>
      </trkpt>
      <trkpt lat="46.96896" lon="8.77378">
        <ele>731</ele>
        <time>2021-08-06T08:57:49.314Z</time>
      </trkpt>
      <trkpt lat="46.96898" lon="8.77379">
        <ele>733</ele>
        <time>2021-08-06T08:57:50.315Z</time>
      </trkpt>
      <trkpt lat="46.96897" lon="8.77381">
        <ele>733</ele>
        <time>2021-08-06T08:57:51.316Z</time>
      </trkpt>
      <trkpt lat="46.96898" lon="8.77383">
        <ele>733</ele>
        <time>2021-08-06T08:57:52.315Z</time>
      </trkpt>
      <trkpt lat="46.96894" lon="8.77381">
        <ele>720</ele>
        <time>2021-08-06T08:57:53.316Z</time>
      </trkpt>
      <trkpt lat="46.96893" lon="8.77381">
        <ele>720</ele>
        <time>2021-08-06T08:57:54.317Z</time>
      </trkpt>
      <trkpt lat="46.96889" lon="8.77382">
        <ele>710</ele>
        <time>2021-08-06T08:57:55.317Z</time>
      </trkpt>
      <trkpt lat="46.96888" lon="8.77382">
        <ele>709</ele>
        <time>2021-08-06T08:57:56.318Z</time>
      </trkpt>
      <trkpt lat="46.96888" lon="8.77382">
        <ele>708</ele>
        <time>2021-08-06T08:57:57.317Z</time>
      </trkpt>
      <trkpt lat="46.96887" lon="8.77382">
        <ele>708</ele>
        <time>2021-08-06T08:57:58.318Z</time>
      </trkpt>
      <trkpt lat="46.96889" lon="8.77383">
        <ele>708</ele>
        <time>2021-08-06T08:57:59.318Z</time>
      </trkpt>
      <trkpt lat="46.96889" lon="8.77384">
        <ele>708</ele>
        <time>2021-08-06T08:58:00.318Z</time>
      </trkpt>
      <trkpt lat="46.96889" lon="8.77384">
        <ele>708</ele>
        <time>2021-08-06T08:58:01.317Z</time>
      </trkpt>
      <trkpt lat="46.96889" lon="8.77385">
        <ele>709</ele>
        <time>2021-08-06T08:58:02.317Z</time>
      </trkpt>
      <trkpt lat="46.9689" lon="8.77387">
        <ele>710</ele>
        <time>2021-08-06T08:58:03.318Z</time>
      </trkpt>
      <trkpt lat="46.9689" lon="8.77387">
        <ele>710</ele>
        <time>2021-08-06T08:58:04.318Z</time>
      </trkpt>
      <trkpt lat="46.96894" lon="8.77384">
        <ele>709</ele>
        <time>2021-08-06T08:58:05.318Z</time>
      </trkpt>
      <trkpt lat="46.96894" lon="8.77384">
        <ele>709</ele>
        <time>2021-08-06T08:58:06.318Z</time>
      </trkpt>
      <trkpt lat="46.96895" lon="8.77385">
        <ele>709</ele>
        <time>2021-08-06T08:58:07.317Z</time>
      </trkpt>
      <trkpt lat="46.96895" lon="8.77386">
        <ele>708</ele>
        <time>2021-08-06T08:58:08.317Z</time>
      </trkpt>
      <trkpt lat="46.96894" lon="8.77393">
        <ele>708</ele>
        <time>2021-08-06T08:58:09.318Z</time>
      </trkpt>
      <trkpt lat="46.96893" lon="8.77395">
        <ele>709</ele>
        <time>2021-08-06T08:58:10.318Z</time>
      </trkpt>
      <trkpt lat="46.96896" lon="8.77397">
        <ele>719</ele>
        <time>2021-08-06T08:58:11.318Z</time>
      </trkpt>
      <trkpt lat="46.96897" lon="8.77397">
        <ele>719</ele>
        <time>2021-08-06T08:58:12.318Z</time>
      </trkpt>
      <trkpt lat="46.96897" lon="8.77398">
        <ele>720</ele>
        <time>2021-08-06T08:58:13.318Z</time>
      </trkpt>
      <trkpt lat="46.96897" lon="8.77398">
        <ele>720</ele>
        <time>2021-08-06T08:58:14.318Z</time>
      </trkpt>
      <trkpt lat="46.96898" lon="8.77394">
        <ele>721</ele>
        <time>2021-08-06T08:58:15.318Z</time>
      </trkpt>
      <trkpt lat="46.96898" lon="8.77393">
        <ele>722</ele>
        <time>2021-08-06T08:58:16.318Z</time>
      </trkpt>
      <trkpt lat="46.96898" lon="8.77392">
        <ele>722</ele>
        <time>2021-08-06T08:58:17.320Z</time>
      </trkpt>
      <trkpt lat="46.96898" lon="8.77393">
        <ele>722</ele>
        <time>2021-08-06T08:58:18.320Z</time>
      </trkpt>
      <trkpt lat="46.96898" lon="8.77392">
        <ele>722</ele>
        <time>2021-08-06T08:58:19.319Z</time>
      </trkpt>
      <trkpt lat="46.96899" lon="8.77393">
        <ele>721</ele>
        <time>2021-08-06T08:58:20.320Z</time>
      </trkpt>
      <trkpt lat="46.96899" lon="8.77393">
        <ele>721</ele>
        <time>2021-08-06T08:58:21.319Z</time>
      </trkpt>
      <trkpt lat="46.96899" lon="8.77392">
        <ele>724</ele>
        <time>2021-08-06T08:58:22.321Z</time>
      </trkpt>
      <trkpt lat="46.96899" lon="8.77393">
        <ele>725</ele>
        <time>2021-08-06T08:58:23.320Z</time>
      </trkpt>
      <trkpt lat="46.96898" lon="8.77394">
        <ele>725</ele>
        <time>2021-08-06T08:58:24.320Z</time>
      </trkpt>
      <trkpt lat="46.96898" lon="8.77395">
        <ele>725</ele>
        <time>2021-08-06T08:58:25.320Z</time>
      </trkpt>
      <trkpt lat="46.96898" lon="8.77397">
        <ele>725</ele>
        <time>2021-08-06T08:58:26.320Z</time>
      </trkpt>
      <trkpt lat="46.96897" lon="8.77398">
        <ele>726</ele>
        <time>2021-08-06T08:58:27.320Z</time>
      </trkpt>
      <trkpt lat="46.96897" lon="8.77399">
        <ele>726</ele>
        <time>2021-08-06T08:58:28.320Z</time>
      </trkpt>
      <trkpt lat="46.96897" lon="8.77401">
        <ele>726</ele>
        <time>2021-08-06T08:58:29.320Z</time>
      </trkpt>
      <trkpt lat="46.96896" lon="8.77402">
        <ele>726</ele>
        <time>2021-08-06T08:58:30.321Z</time>
      </trkpt>
      <trkpt lat="46.96896" lon="8.77403">
        <ele>726</ele>
        <time>2021-08-06T08:58:31.321Z</time>
      </trkpt>
      <trkpt lat="46.96896" lon="8.77405">
        <ele>726</ele>
        <time>2021-08-06T08:58:32.321Z</time>
      </trkpt>
      <trkpt lat="46.96895" lon="8.77406">
        <ele>726</ele>
        <time>2021-08-06T08:58:33.321Z</time>
      </trkpt>
      <trkpt lat="46.96894" lon="8.77408">
        <ele>726</ele>
        <time>2021-08-06T08:58:34.321Z</time>
      </trkpt>
      <trkpt lat="46.96894" lon="8.77408">
        <ele>726</ele>
        <time>2021-08-06T08:58:35.321Z</time>
      </trkpt>
      <trkpt lat="46.96894" lon="8.77409">
        <ele>726</ele>
        <time>2021-08-06T08:58:36.320Z</time>
      </trkpt>
      <trkpt lat="46.96893" lon="8.77409">
        <ele>726</ele>
        <time>2021-08-06T08:58:37.320Z</time>
      </trkpt>
      <trkpt lat="46.96893" lon="8.7741">
        <ele>726</ele>
        <time>2021-08-06T08:58:38.321Z</time>
      </trkpt>
      <trkpt lat="46.96893" lon="8.7741">
        <ele>727</ele>
        <time>2021-08-06T08:58:39.321Z</time>
      </trkpt>
      <trkpt lat="46.96892" lon="8.7741">
        <ele>727</ele>
        <time>2021-08-06T08:58:40.320Z</time>
      </trkpt>
      <trkpt lat="46.96892" lon="8.7741">
        <ele>727</ele>
        <time>2021-08-06T08:58:41.321Z</time>
      </trkpt>
      <trkpt lat="46.96891" lon="8.7741">
        <ele>727</ele>
        <time>2021-08-06T08:58:42.321Z</time>
      </trkpt>
      <trkpt lat="46.9689" lon="8.77411">
        <ele>728</ele>
        <time>2021-08-06T08:58:43.321Z</time>
      </trkpt>
      <trkpt lat="46.96889" lon="8.77412">
        <ele>728</ele>
        <time>2021-08-06T08:58:44.321Z</time>
      </trkpt>
      <trkpt lat="46.96889" lon="8.77412">
        <ele>728</ele>
        <time>2021-08-06T08:58:45.320Z</time>
      </trkpt>
      <trkpt lat="46.96888" lon="8.77413">
        <ele>728</ele>
        <time>2021-08-06T08:58:46.321Z</time>
      </trkpt>
      <trkpt lat="46.96887" lon="8.77413">
        <ele>728</ele>
        <time>2021-08-06T08:58:47.321Z</time>
      </trkpt>
      <trkpt lat="46.96887" lon="8.77413">
        <ele>728</ele>
        <time>2021-08-06T08:58:48.321Z</time>
      </trkpt>
      <trkpt lat="46.96886" lon="8.77412">
        <ele>728</ele>
        <time>2021-08-06T08:58:49.320Z</time>
      </trkpt>
      <trkpt lat="46.96885" lon="8.77413">
        <ele>728</ele>
        <time>2021-08-06T08:58:50.321Z</time>
      </trkpt>
      <trkpt lat="46.96884" lon="8.77413">
        <ele>729</ele>
        <time>2021-08-06T08:58:51.321Z</time>
      </trkpt>
      <trkpt lat="46.96884" lon="8.77413">
        <ele>729</ele>
        <time>2021-08-06T08:58:52.321Z</time>
      </trkpt>
      <trkpt lat="46.96883" lon="8.77412">
        <ele>729</ele>
        <time>2021-08-06T08:58:53.321Z</time>
      </trkpt>
      <trkpt lat="46.96883" lon="8.77411">
        <ele>729</ele>
        <time>2021-08-06T08:58:54.321Z</time>
      </trkpt>
      <trkpt lat="46.96883" lon="8.77411">
        <ele>730</ele>
        <time>2021-08-06T08:58:55.321Z</time>
      </trkpt>
      <trkpt lat="46.96883" lon="8.77409">
        <ele>731</ele>
        <time>2021-08-06T08:58:56.321Z</time>
      </trkpt>
      <trkpt lat="46.96882" lon="8.77408">
        <ele>732</ele>
        <time>2021-08-06T08:58:57.321Z</time>
      </trkpt>
      <trkpt lat="46.96882" lon="8.77406">
        <ele>732</ele>
        <time>2021-08-06T08:58:58.320Z</time>
      </trkpt>
      <trkpt lat="46.96881" lon="8.77405">
        <ele>733</ele>
        <time>2021-08-06T08:58:59.321Z</time>
      </trkpt>
      <trkpt lat="46.9688" lon="8.77404">
        <ele>734</ele>
        <time>2021-08-06T08:59:00.321Z</time>
      </trkpt>
      <trkpt lat="46.9688" lon="8.77404">
        <ele>734</ele>
        <time>2021-08-06T08:59:01.321Z</time>
      </trkpt>
      <trkpt lat="46.9688" lon="8.77404">
        <ele>734</ele>
        <time>2021-08-06T08:59:02.321Z</time>
      </trkpt>
      <trkpt lat="46.96879" lon="8.77404">
        <ele>734</ele>
        <time>2021-08-06T08:59:03.320Z</time>
      </trkpt>
      <trkpt lat="46.96879" lon="8.77405">
        <ele>735</ele>
        <time>2021-08-06T08:59:04.321Z</time>
      </trkpt>
      <trkpt lat="46.96879" lon="8.77406">
        <ele>735</ele>
        <time>2021-08-06T08:59:05.321Z</time>
      </trkpt>
      <trkpt lat="46.96878" lon="8.77406">
        <ele>735</ele>
        <time>2021-08-06T08:59:06.321Z</time>
      </trkpt>
      <trkpt lat="46.96876" lon="8.77405">
        <ele>735</ele>
        <time>2021-08-06T08:59:07.320Z</time>
      </trkpt>
      <trkpt lat="46.96876" lon="8.77406">
        <ele>736</ele>
        <time>2021-08-06T08:59:08.321Z</time>
      </trkpt>
      <trkpt lat="46.96876" lon="8.77406">
        <ele>736</ele>
        <time>2021-08-06T08:59:09.320Z</time>
      </trkpt>
      <trkpt lat="46.96876" lon="8.77405">
        <ele>736</ele>
        <time>2021-08-06T08:59:10.321Z</time>
      </trkpt>
      <trkpt lat="46.96875" lon="8.77405">
        <ele>736</ele>
        <time>2021-08-06T08:59:11.320Z</time>
      </trkpt>
      <trkpt lat="46.96875" lon="8.77405">
        <ele>736</ele>
        <time>2021-08-06T08:59:12.321Z</time>
      </trkpt>
      <trkpt lat="46.96874" lon="8.77404">
        <ele>736</ele>
        <time>2021-08-06T08:59:13.321Z</time>
      </trkpt>
      <trkpt lat="46.96873" lon="8.77404">
        <ele>735</ele>
        <time>2021-08-06T08:59:14.320Z</time>
      </trkpt>
      <trkpt lat="46.96872" lon="8.77404">
        <ele>735</ele>
        <time>2021-08-06T08:59:15.321Z</time>
      </trkpt>
      <trkpt lat="46.96872" lon="8.77404">
        <ele>734</ele>
        <time>2021-08-06T08:59:16.321Z</time>
      </trkpt>
      <trkpt lat="46.96872" lon="8.77406">
        <ele>734</ele>
        <time>2021-08-06T08:59:17.320Z</time>
      </trkpt>
      <trkpt lat="46.96872" lon="8.77407">
        <ele>734</ele>
        <time>2021-08-06T08:59:18.321Z</time>
      </trkpt>
      <trkpt lat="46.96872" lon="8.77408">
        <ele>734</ele>
        <time>2021-08-06T08:59:19.321Z</time>
      </trkpt>
      <trkpt lat="46.96872" lon="8.77411">
        <ele>734</ele>
        <time>2021-08-06T08:59:20.321Z</time>
      </trkpt>
      <trkpt lat="46.96872" lon="8.77412">
        <ele>735</ele>
        <time>2021-08-06T08:59:21.320Z</time>
      </trkpt>
      <trkpt lat="46.96873" lon="8.77412">
        <ele>735</ele>
        <time>2021-08-06T08:59:22.321Z</time>
      </trkpt>
      <trkpt lat="46.96873" lon="8.77413">
        <ele>735</ele>
        <time>2021-08-06T08:59:23.321Z</time>
      </trkpt>
      <trkpt lat="46.96873" lon="8.77413">
        <ele>734</ele>
        <time>2021-08-06T08:59:24.321Z</time>
      </trkpt>
      <trkpt lat="46.96873" lon="8.77413">
        <ele>734</ele>
        <time>2021-08-06T08:59:25.321Z</time>
      </trkpt>
      <trkpt lat="46.96873" lon="8.77422">
        <ele>733</ele>
        <time>2021-08-06T08:59:26.321Z</time>
      </trkpt>
      <trkpt lat="46.96872" lon="8.77424">
        <ele>733</ele>
        <time>2021-08-06T08:59:27.320Z</time>
      </trkpt>
      <trkpt lat="46.96872" lon="8.77426">
        <ele>733</ele>
        <time>2021-08-06T08:59:28.320Z</time>
      </trkpt>
      <trkpt lat="46.96873" lon="8.77427">
        <ele>733</ele>
        <time>2021-08-06T08:59:29.321Z</time>
      </trkpt>
      <trkpt lat="46.96872" lon="8.77428">
        <ele>733</ele>
        <time>2021-08-06T08:59:30.320Z</time>
      </trkpt>
      <trkpt lat="46.96871" lon="8.77428">
        <ele>733</ele>
        <time>2021-08-06T08:59:31.321Z</time>
      </trkpt>
      <trkpt lat="46.96871" lon="8.77428">
        <ele>733</ele>
        <time>2021-08-06T08:59:32.321Z</time>
      </trkpt>
      <trkpt lat="46.9687" lon="8.77428">
        <ele>733</ele>
        <time>2021-08-06T08:59:33.320Z</time>
      </trkpt>
      <trkpt lat="46.9687" lon="8.77428">
        <ele>734</ele>
        <time>2021-08-06T08:59:34.321Z</time>
      </trkpt>
      <trkpt lat="46.9687" lon="8.77429">
        <ele>734</ele>
        <time>2021-08-06T08:59:35.321Z</time>
      </trkpt>
      <trkpt lat="46.96869" lon="8.77429">
        <ele>734</ele>
        <time>2021-08-06T08:59:36.320Z</time>
      </trkpt>
      <trkpt lat="46.96868" lon="8.77429">
        <ele>734</ele>
        <time>2021-08-06T08:59:37.320Z</time>
      </trkpt>
      <trkpt lat="46.96867" lon="8.77429">
        <ele>734</ele>
        <time>2021-08-06T08:59:38.321Z</time>
      </trkpt>
      <trkpt lat="46.96866" lon="8.77428">
        <ele>734</ele>
        <time>2021-08-06T08:59:39.321Z</time>
      </trkpt>
      <trkpt lat="46.96865" lon="8.77428">
        <ele>734</ele>
        <time>2021-08-06T08:59:40.320Z</time>
      </trkpt>
      <trkpt lat="46.96865" lon="8.77428">
        <ele>734</ele>
        <time>2021-08-06T08:59:41.320Z</time>
      </trkpt>
      <trkpt lat="46.96864" lon="8.77428">
        <ele>734</ele>
        <time>2021-08-06T08:59:42.320Z</time>
      </trkpt>
      <trkpt lat="46.96863" lon="8.77427">
        <ele>734</ele>
        <time>2021-08-06T08:59:43.321Z</time>
      </trkpt>
      <trkpt lat="46.96863" lon="8.77428">
        <ele>734</ele>
        <time>2021-08-06T08:59:44.320Z</time>
      </trkpt>
      <trkpt lat="46.96863" lon="8.77428">
        <ele>734</ele>
        <time>2021-08-06T08:59:45.321Z</time>
      </trkpt>
      <trkpt lat="46.96862" lon="8.77429">
        <ele>734</ele>
        <time>2021-08-06T08:59:46.321Z</time>
      </trkpt>
      <trkpt lat="46.96861" lon="8.77429">
        <ele>734</ele>
        <time>2021-08-06T08:59:47.321Z</time>
      </trkpt>
      <trkpt lat="46.96861" lon="8.77429">
        <ele>735</ele>
        <time>2021-08-06T08:59:48.320Z</time>
      </trkpt>
      <trkpt lat="46.9686" lon="8.77429">
        <ele>735</ele>
        <time>2021-08-06T08:59:49.321Z</time>
      </trkpt>
      <trkpt lat="46.9686" lon="8.77429">
        <ele>735</ele>
        <time>2021-08-06T08:59:50.321Z</time>
      </trkpt>
      <trkpt lat="46.96859" lon="8.77428">
        <ele>735</ele>
        <time>2021-08-06T08:59:51.320Z</time>
      </trkpt>
      <trkpt lat="46.96859" lon="8.77428">
        <ele>735</ele>
        <time>2021-08-06T08:59:52.321Z</time>
      </trkpt>
      <trkpt lat="46.96859" lon="8.77428">
        <ele>736</ele>
        <time>2021-08-06T08:59:53.321Z</time>
      </trkpt>
      <trkpt lat="46.96858" lon="8.77428">
        <ele>736</ele>
        <time>2021-08-06T08:59:54.321Z</time>
      </trkpt>
      <trkpt lat="46.96858" lon="8.77429">
        <ele>737</ele>
        <time>2021-08-06T08:59:55.320Z</time>
      </trkpt>
      <trkpt lat="46.96858" lon="8.77429">
        <ele>737</ele>
        <time>2021-08-06T08:59:56.320Z</time>
      </trkpt>
      <trkpt lat="46.96858" lon="8.77429">
        <ele>737</ele>
        <time>2021-08-06T08:59:57.321Z</time>
      </trkpt>
      <trkpt lat="46.96858" lon="8.7743">
        <ele>737</ele>
        <time>2021-08-06T08:59:58.321Z</time>
      </trkpt>
      <trkpt lat="46.96858" lon="8.77432">
        <ele>737</ele>
        <time>2021-08-06T08:59:59.322Z</time>
      </trkpt>
      <trkpt lat="46.96857" lon="8.77433">
        <ele>737</ele>
        <time>2021-08-06T09:00:00.321Z</time>
      </trkpt>
      <trkpt lat="46.96856" lon="8.77433">
        <ele>737</ele>
        <time>2021-08-06T09:00:01.321Z</time>
      </trkpt>
      <trkpt lat="46.96856" lon="8.77433">
        <ele>737</ele>
        <time>2021-08-06T09:00:02.321Z</time>
      </trkpt>
      <trkpt lat="46.96855" lon="8.77433">
        <ele>738</ele>
        <time>2021-08-06T09:00:03.321Z</time>
      </trkpt>
      <trkpt lat="46.96855" lon="8.77433">
        <ele>738</ele>
        <time>2021-08-06T09:00:04.321Z</time>
      </trkpt>
      <trkpt lat="46.96855" lon="8.77434">
        <ele>738</ele>
        <time>2021-08-06T09:00:05.321Z</time>
      </trkpt>
      <trkpt lat="46.96854" lon="8.77436">
        <ele>738</ele>
        <time>2021-08-06T09:00:06.321Z</time>
      </trkpt>
      <trkpt lat="46.96853" lon="8.77437">
        <ele>738</ele>
        <time>2021-08-06T09:00:07.322Z</time>
      </trkpt>
      <trkpt lat="46.96853" lon="8.77438">
        <ele>737</ele>
        <time>2021-08-06T09:00:08.322Z</time>
      </trkpt>
      <trkpt lat="46.96852" lon="8.77439">
        <ele>737</ele>
        <time>2021-08-06T09:00:09.321Z</time>
      </trkpt>
      <trkpt lat="46.96852" lon="8.77438">
        <ele>737</ele>
        <time>2021-08-06T09:00:10.322Z</time>
      </trkpt>
      <trkpt lat="46.96852" lon="8.77439">
        <ele>737</ele>
        <time>2021-08-06T09:00:11.321Z</time>
      </trkpt>
      <trkpt lat="46.96851" lon="8.77439">
        <ele>737</ele>
        <time>2021-08-06T09:00:12.322Z</time>
      </trkpt>
      <trkpt lat="46.96851" lon="8.77438">
        <ele>737</ele>
        <time>2021-08-06T09:00:13.321Z</time>
      </trkpt>
      <trkpt lat="46.9685" lon="8.77438">
        <ele>737</ele>
        <time>2021-08-06T09:00:14.322Z</time>
      </trkpt>
      <trkpt lat="46.9685" lon="8.77437">
        <ele>737</ele>
        <time>2021-08-06T09:00:15.322Z</time>
      </trkpt>
      <trkpt lat="46.96849" lon="8.77436">
        <ele>736</ele>
        <time>2021-08-06T09:00:16.322Z</time>
      </trkpt>
      <trkpt lat="46.96848" lon="8.77436">
        <ele>736</ele>
        <time>2021-08-06T09:00:17.321Z</time>
      </trkpt>
      <trkpt lat="46.96848" lon="8.77436">
        <ele>735</ele>
        <time>2021-08-06T09:00:18.322Z</time>
      </trkpt>
      <trkpt lat="46.96848" lon="8.77437">
        <ele>735</ele>
        <time>2021-08-06T09:00:19.321Z</time>
      </trkpt>
      <trkpt lat="46.96848" lon="8.77437">
        <ele>735</ele>
        <time>2021-08-06T09:00:20.322Z</time>
      </trkpt>
      <trkpt lat="46.96848" lon="8.77438">
        <ele>735</ele>
        <time>2021-08-06T09:00:21.321Z</time>
      </trkpt>
      <trkpt lat="46.96849" lon="8.77439">
        <ele>735</ele>
        <time>2021-08-06T09:00:22.322Z</time>
      </trkpt>
      <trkpt lat="46.96848" lon="8.77439">
        <ele>736</ele>
        <time>2021-08-06T09:00:23.322Z</time>
      </trkpt>
      <trkpt lat="46.96848" lon="8.77439">
        <ele>736</ele>
        <time>2021-08-06T09:00:24.322Z</time>
      </trkpt>
      <trkpt lat="46.96848" lon="8.7744">
        <ele>736</ele>
        <time>2021-08-06T09:00:25.322Z</time>
      </trkpt>
      <trkpt lat="46.96847" lon="8.7744">
        <ele>737</ele>
        <time>2021-08-06T09:00:26.322Z</time>
      </trkpt>
      <trkpt lat="46.96847" lon="8.7744">
        <ele>737</ele>
        <time>2021-08-06T09:00:27.322Z</time>
      </trkpt>
      <trkpt lat="46.96847" lon="8.7744">
        <ele>736</ele>
        <time>2021-08-06T09:00:28.321Z</time>
      </trkpt>
      <trkpt lat="46.96846" lon="8.7744">
        <ele>737</ele>
        <time>2021-08-06T09:00:29.323Z</time>
      </trkpt>
      <trkpt lat="46.96845" lon="8.77439">
        <ele>737</ele>
        <time>2021-08-06T09:00:30.323Z</time>
      </trkpt>
      <trkpt lat="46.96845" lon="8.7744">
        <ele>738</ele>
        <time>2021-08-06T09:00:31.322Z</time>
      </trkpt>
      <trkpt lat="46.96845" lon="8.7744">
        <ele>738</ele>
        <time>2021-08-06T09:00:32.323Z</time>
      </trkpt>
      <trkpt lat="46.96845" lon="8.7744">
        <ele>739</ele>
        <time>2021-08-06T09:00:33.322Z</time>
      </trkpt>
      <trkpt lat="46.96845" lon="8.7744">
        <ele>739</ele>
        <time>2021-08-06T09:00:34.323Z</time>
      </trkpt>
      <trkpt lat="46.96845" lon="8.77441">
        <ele>740</ele>
        <time>2021-08-06T09:00:35.323Z</time>
      </trkpt>
      <trkpt lat="46.96844" lon="8.77442">
        <ele>740</ele>
        <time>2021-08-06T09:00:36.322Z</time>
      </trkpt>
      <trkpt lat="46.96845" lon="8.77444">
        <ele>740</ele>
        <time>2021-08-06T09:00:37.323Z</time>
      </trkpt>
      <trkpt lat="46.96845" lon="8.77443">
        <ele>740</ele>
        <time>2021-08-06T09:00:38.323Z</time>
      </trkpt>
      <trkpt lat="46.96845" lon="8.77443">
        <ele>741</ele>
        <time>2021-08-06T09:00:39.323Z</time>
      </trkpt>
      <trkpt lat="46.96844" lon="8.77443">
        <ele>742</ele>
        <time>2021-08-06T09:00:40.322Z</time>
      </trkpt>
      <trkpt lat="46.96844" lon="8.77443">
        <ele>742</ele>
        <time>2021-08-06T09:00:41.323Z</time>
      </trkpt>
      <trkpt lat="46.96845" lon="8.77443">
        <ele>743</ele>
        <time>2021-08-06T09:00:42.323Z</time>
      </trkpt>
      <trkpt lat="46.96845" lon="8.77443">
        <ele>743</ele>
        <time>2021-08-06T09:00:43.323Z</time>
      </trkpt>
      <trkpt lat="46.96845" lon="8.77444">
        <ele>744</ele>
        <time>2021-08-06T09:00:44.322Z</time>
      </trkpt>
      <trkpt lat="46.96844" lon="8.77444">
        <ele>745</ele>
        <time>2021-08-06T09:00:45.322Z</time>
      </trkpt>
      <trkpt lat="46.96844" lon="8.77445">
        <ele>745</ele>
        <time>2021-08-06T09:00:46.323Z</time>
      </trkpt>
      <trkpt lat="46.96844" lon="8.77445">
        <ele>746</ele>
        <time>2021-08-06T09:00:47.323Z</time>
      </trkpt>
      <trkpt lat="46.96843" lon="8.77446">
        <ele>747</ele>
        <time>2021-08-06T09:00:48.323Z</time>
      </trkpt>
      <trkpt lat="46.96843" lon="8.77446">
        <ele>747</ele>
        <time>2021-08-06T09:00:49.323Z</time>
      </trkpt>
      <trkpt lat="46.96843" lon="8.77447">
        <ele>748</ele>
        <time>2021-08-06T09:00:50.323Z</time>
      </trkpt>
      <trkpt lat="46.96842" lon="8.77447">
        <ele>748</ele>
        <time>2021-08-06T09:00:51.323Z</time>
      </trkpt>
      <trkpt lat="46.96842" lon="8.77446">
        <ele>749</ele>
        <time>2021-08-06T09:00:52.322Z</time>
      </trkpt>
      <trkpt lat="46.96842" lon="8.77446">
        <ele>749</ele>
        <time>2021-08-06T09:00:53.323Z</time>
      </trkpt>
      <trkpt lat="46.96842" lon="8.77445">
        <ele>749</ele>
        <time>2021-08-06T09:00:54.323Z</time>
      </trkpt>
      <trkpt lat="46.96842" lon="8.77445">
        <ele>749</ele>
        <time>2021-08-06T09:00:55.322Z</time>
      </trkpt>
      <trkpt lat="46.96842" lon="8.77444">
        <ele>749</ele>
        <time>2021-08-06T09:00:56.322Z</time>
      </trkpt>
      <trkpt lat="46.96841" lon="8.77444">
        <ele>748</ele>
        <time>2021-08-06T09:00:57.322Z</time>
      </trkpt>
      <trkpt lat="46.9684" lon="8.77443">
        <ele>748</ele>
        <time>2021-08-06T09:00:58.323Z</time>
      </trkpt>
      <trkpt lat="46.9684" lon="8.77443">
        <ele>748</ele>
        <time>2021-08-06T09:00:59.323Z</time>
      </trkpt>
      <trkpt lat="46.96839" lon="8.77442">
        <ele>748</ele>
        <time>2021-08-06T09:01:00.323Z</time>
      </trkpt>
      <trkpt lat="46.96838" lon="8.77442">
        <ele>747</ele>
        <time>2021-08-06T09:01:01.323Z</time>
      </trkpt>
      <trkpt lat="46.96838" lon="8.77442">
        <ele>747</ele>
        <time>2021-08-06T09:01:02.322Z</time>
      </trkpt>
      <trkpt lat="46.96837" lon="8.77443">
        <ele>747</ele>
        <time>2021-08-06T09:01:03.323Z</time>
      </trkpt>
      <trkpt lat="46.96837" lon="8.77443">
        <ele>747</ele>
        <time>2021-08-06T09:01:04.322Z</time>
      </trkpt>
      <trkpt lat="46.96836" lon="8.77444">
        <ele>747</ele>
        <time>2021-08-06T09:01:05.322Z</time>
      </trkpt>
      <trkpt lat="46.96836" lon="8.77444">
        <ele>746</ele>
        <time>2021-08-06T09:01:06.323Z</time>
      </trkpt>
      <trkpt lat="46.96835" lon="8.77444">
        <ele>746</ele>
        <time>2021-08-06T09:01:07.323Z</time>
      </trkpt>
      <trkpt lat="46.96835" lon="8.77445">
        <ele>746</ele>
        <time>2021-08-06T09:01:08.323Z</time>
      </trkpt>
      <trkpt lat="46.96835" lon="8.77445">
        <ele>745</ele>
        <time>2021-08-06T09:01:09.323Z</time>
      </trkpt>
      <trkpt lat="46.96835" lon="8.77446">
        <ele>745</ele>
        <time>2021-08-06T09:01:10.322Z</time>
      </trkpt>
      <trkpt lat="46.96835" lon="8.77447">
        <ele>745</ele>
        <time>2021-08-06T09:01:11.322Z</time>
      </trkpt>
      <trkpt lat="46.96835" lon="8.77448">
        <ele>744</ele>
        <time>2021-08-06T09:01:12.323Z</time>
      </trkpt>
      <trkpt lat="46.96835" lon="8.77448">
        <ele>743</ele>
        <time>2021-08-06T09:01:13.323Z</time>
      </trkpt>
      <trkpt lat="46.96834" lon="8.77448">
        <ele>743</ele>
        <time>2021-08-06T09:01:14.323Z</time>
      </trkpt>
      <trkpt lat="46.96834" lon="8.77449">
        <ele>743</ele>
        <time>2021-08-06T09:01:15.322Z</time>
      </trkpt>
      <trkpt lat="46.96834" lon="8.77449">
        <ele>743</ele>
        <time>2021-08-06T09:01:16.322Z</time>
      </trkpt>
      <trkpt lat="46.96834" lon="8.7745">
        <ele>743</ele>
        <time>2021-08-06T09:01:17.322Z</time>
      </trkpt>
      <trkpt lat="46.96834" lon="8.7745">
        <ele>743</ele>
        <time>2021-08-06T09:01:18.322Z</time>
      </trkpt>
      <trkpt lat="46.96834" lon="8.7745">
        <ele>744</ele>
        <time>2021-08-06T09:01:19.322Z</time>
      </trkpt>
      <trkpt lat="46.96833" lon="8.77449">
        <ele>744</ele>
        <time>2021-08-06T09:01:20.322Z</time>
      </trkpt>
      <trkpt lat="46.96833" lon="8.77449">
        <ele>745</ele>
        <time>2021-08-06T09:01:21.322Z</time>
      </trkpt>
      <trkpt lat="46.96832" lon="8.77447">
        <ele>747</ele>
        <time>2021-08-06T09:01:22.323Z</time>
      </trkpt>
      <trkpt lat="46.96831" lon="8.77447">
        <ele>747</ele>
        <time>2021-08-06T09:01:23.323Z</time>
      </trkpt>
      <trkpt lat="46.9683" lon="8.77446">
        <ele>748</ele>
        <time>2021-08-06T09:01:24.323Z</time>
      </trkpt>
      <trkpt lat="46.96828" lon="8.77446">
        <ele>748</ele>
        <time>2021-08-06T09:01:25.323Z</time>
      </trkpt>
      <trkpt lat="46.96826" lon="8.77447">
        <ele>751</ele>
        <time>2021-08-06T09:01:26.322Z</time>
      </trkpt>
      <trkpt lat="46.96824" lon="8.77446">
        <ele>751</ele>
        <time>2021-08-06T09:01:27.322Z</time>
      </trkpt>
      <trkpt lat="46.96824" lon="8.77445">
        <ele>751</ele>
        <time>2021-08-06T09:01:28.322Z</time>
      </trkpt>
      <trkpt lat="46.96823" lon="8.77445">
        <ele>751</ele>
        <time>2021-08-06T09:01:29.322Z</time>
      </trkpt>
      <trkpt lat="46.96819" lon="8.77449">
        <ele>756</ele>
        <time>2021-08-06T09:01:30.322Z</time>
      </trkpt>
      <trkpt lat="46.96819" lon="8.7745">
        <ele>757</ele>
        <time>2021-08-06T09:01:31.322Z</time>
      </trkpt>
      <trkpt lat="46.96819" lon="8.7745">
        <ele>757</ele>
        <time>2021-08-06T09:01:32.322Z</time>
      </trkpt>
      <trkpt lat="46.96816" lon="8.77447">
        <ele>758</ele>
        <time>2021-08-06T09:01:33.322Z</time>
      </trkpt>
      <trkpt lat="46.96814" lon="8.77446">
        <ele>758</ele>
        <time>2021-08-06T09:01:34.322Z</time>
      </trkpt>
      <trkpt lat="46.96815" lon="8.77445">
        <ele>758</ele>
        <time>2021-08-06T09:01:35.322Z</time>
      </trkpt>
      <trkpt lat="46.96816" lon="8.77446">
        <ele>758</ele>
        <time>2021-08-06T09:01:36.322Z</time>
      </trkpt>
      <trkpt lat="46.96816" lon="8.77446">
        <ele>758</ele>
        <time>2021-08-06T09:01:37.323Z</time>
      </trkpt>
      <trkpt lat="46.96816" lon="8.77445">
        <ele>758</ele>
        <time>2021-08-06T09:01:38.323Z</time>
      </trkpt>
      <trkpt lat="46.96816" lon="8.77445">
        <ele>758</ele>
        <time>2021-08-06T09:01:39.323Z</time>
      </trkpt>
      <trkpt lat="46.96816" lon="8.77445">
        <ele>758</ele>
        <time>2021-08-06T09:01:40.323Z</time>
      </trkpt>
      <trkpt lat="46.96817" lon="8.77446">
        <ele>758</ele>
        <time>2021-08-06T09:01:41.322Z</time>
      </trkpt>
      <trkpt lat="46.96818" lon="8.77447">
        <ele>758</ele>
        <time>2021-08-06T09:01:42.323Z</time>
      </trkpt>
      <trkpt lat="46.96819" lon="8.77449">
        <ele>758</ele>
        <time>2021-08-06T09:01:43.322Z</time>
      </trkpt>
      <trkpt lat="46.96819" lon="8.7745">
        <ele>758</ele>
        <time>2021-08-06T09:01:44.323Z</time>
      </trkpt>
      <trkpt lat="46.96818" lon="8.77449">
        <ele>758</ele>
        <time>2021-08-06T09:01:45.323Z</time>
      </trkpt>
      <trkpt lat="46.96818" lon="8.77449">
        <ele>758</ele>
        <time>2021-08-06T09:01:46.322Z</time>
      </trkpt>
      <trkpt lat="46.96821" lon="8.7745">
        <ele>751</ele>
        <time>2021-08-06T09:01:47.323Z</time>
      </trkpt>
      <trkpt lat="46.96821" lon="8.7745">
        <ele>751</ele>
        <time>2021-08-06T09:01:48.322Z</time>
      </trkpt>
      <trkpt lat="46.96821" lon="8.77451">
        <ele>752</ele>
        <time>2021-08-06T09:01:49.322Z</time>
      </trkpt>
      <trkpt lat="46.96822" lon="8.77453">
        <ele>751</ele>
        <time>2021-08-06T09:01:50.323Z</time>
      </trkpt>
      <trkpt lat="46.96821" lon="8.77453">
        <ele>750</ele>
        <time>2021-08-06T09:01:51.323Z</time>
      </trkpt>
      <trkpt lat="46.96821" lon="8.77453">
        <ele>749</ele>
        <time>2021-08-06T09:01:52.322Z</time>
      </trkpt>
      <trkpt lat="46.96821" lon="8.77453">
        <ele>749</ele>
        <time>2021-08-06T09:01:53.323Z</time>
      </trkpt>
      <trkpt lat="46.96821" lon="8.77453">
        <ele>748</ele>
        <time>2021-08-06T09:01:54.322Z</time>
      </trkpt>
      <trkpt lat="46.96821" lon="8.77453">
        <ele>747</ele>
        <time>2021-08-06T09:01:55.323Z</time>
      </trkpt>
      <trkpt lat="46.96823" lon="8.7745">
        <ele>750</ele>
        <time>2021-08-06T09:01:56.324Z</time>
      </trkpt>
      <trkpt lat="46.96824" lon="8.77451">
        <ele>750</ele>
        <time>2021-08-06T09:01:57.325Z</time>
      </trkpt>
      <trkpt lat="46.96824" lon="8.77451">
        <ele>750</ele>
        <time>2021-08-06T09:01:58.324Z</time>
      </trkpt>
      <trkpt lat="46.96816" lon="8.77451">
        <ele>753</ele>
        <time>2021-08-06T09:01:59.326Z</time>
      </trkpt>
      <trkpt lat="46.96816" lon="8.7745">
        <ele>753</ele>
        <time>2021-08-06T09:02:00.326Z</time>
      </trkpt>
      <trkpt lat="46.96816" lon="8.77451">
        <ele>752</ele>
        <time>2021-08-06T09:02:01.325Z</time>
      </trkpt>
      <trkpt lat="46.96816" lon="8.77451">
        <ele>752</ele>
        <time>2021-08-06T09:02:02.325Z</time>
      </trkpt>
      <trkpt lat="46.96815" lon="8.77451">
        <ele>753</ele>
        <time>2021-08-06T09:02:03.326Z</time>
      </trkpt>
      <trkpt lat="46.96815" lon="8.77452">
        <ele>753</ele>
        <time>2021-08-06T09:02:04.326Z</time>
      </trkpt>
      <trkpt lat="46.96814" lon="8.77453">
        <ele>753</ele>
        <time>2021-08-06T09:02:05.325Z</time>
      </trkpt>
      <trkpt lat="46.96814" lon="8.77453">
        <ele>753</ele>
        <time>2021-08-06T09:02:06.326Z</time>
      </trkpt>
      <trkpt lat="46.96813" lon="8.77453">
        <ele>753</ele>
        <time>2021-08-06T09:02:07.325Z</time>
      </trkpt>
      <trkpt lat="46.96813" lon="8.77454">
        <ele>754</ele>
        <time>2021-08-06T09:02:08.326Z</time>
      </trkpt>
      <trkpt lat="46.96813" lon="8.77454">
        <ele>754</ele>
        <time>2021-08-06T09:02:09.326Z</time>
      </trkpt>
      <trkpt lat="46.96813" lon="8.77454">
        <ele>755</ele>
        <time>2021-08-06T09:02:10.326Z</time>
      </trkpt>
      <trkpt lat="46.96812" lon="8.77454">
        <ele>755</ele>
        <time>2021-08-06T09:02:11.326Z</time>
      </trkpt>
      <trkpt lat="46.96812" lon="8.77454">
        <ele>756</ele>
        <time>2021-08-06T09:02:12.325Z</time>
      </trkpt>
      <trkpt lat="46.96812" lon="8.77454">
        <ele>756</ele>
        <time>2021-08-06T09:02:13.326Z</time>
      </trkpt>
      <trkpt lat="46.96811" lon="8.77455">
        <ele>756</ele>
        <time>2021-08-06T09:02:14.325Z</time>
      </trkpt>
      <trkpt lat="46.9681" lon="8.77457">
        <ele>761</ele>
        <time>2021-08-06T09:02:15.326Z</time>
      </trkpt>
      <trkpt lat="46.9681" lon="8.77457">
        <ele>761</ele>
        <time>2021-08-06T09:02:16.326Z</time>
      </trkpt>
      <trkpt lat="46.9681" lon="8.77457">
        <ele>762</ele>
        <time>2021-08-06T09:02:17.326Z</time>
      </trkpt>
      <trkpt lat="46.9681" lon="8.77457">
        <ele>762</ele>
        <time>2021-08-06T09:02:18.325Z</time>
      </trkpt>
      <trkpt lat="46.96812" lon="8.77457">
        <ele>759</ele>
        <time>2021-08-06T09:02:19.325Z</time>
      </trkpt>
      <trkpt lat="46.96815" lon="8.77448">
        <ele>754</ele>
        <time>2021-08-06T09:02:20.328Z</time>
      </trkpt>
      <trkpt lat="46.96822" lon="8.77443">
        <ele>745</ele>
        <time>2021-08-06T09:02:21.328Z</time>
      </trkpt>
      <trkpt lat="46.96822" lon="8.77443">
        <ele>744</ele>
        <time>2021-08-06T09:02:22.328Z</time>
      </trkpt>
      <trkpt lat="46.96821" lon="8.77445">
        <ele>741</ele>
        <time>2021-08-06T09:02:23.328Z</time>
      </trkpt>
      <trkpt lat="46.96822" lon="8.77446">
        <ele>741</ele>
        <time>2021-08-06T09:02:24.328Z</time>
      </trkpt>
      <trkpt lat="46.96822" lon="8.77447">
        <ele>741</ele>
        <time>2021-08-06T09:02:25.327Z</time>
      </trkpt>
      <trkpt lat="46.96823" lon="8.77447">
        <ele>742</ele>
        <time>2021-08-06T09:02:26.327Z</time>
      </trkpt>
      <trkpt lat="46.96824" lon="8.77448">
        <ele>742</ele>
        <time>2021-08-06T09:02:27.328Z</time>
      </trkpt>
      <trkpt lat="46.96824" lon="8.77448">
        <ele>743</ele>
        <time>2021-08-06T09:02:28.328Z</time>
      </trkpt>
      <trkpt lat="46.96824" lon="8.77448">
        <ele>743</ele>
        <time>2021-08-06T09:02:29.328Z</time>
      </trkpt>
      <trkpt lat="46.96825" lon="8.77448">
        <ele>744</ele>
        <time>2021-08-06T09:02:30.328Z</time>
      </trkpt>
      <trkpt lat="46.96825" lon="8.77447">
        <ele>744</ele>
        <time>2021-08-06T09:02:31.328Z</time>
      </trkpt>
      <trkpt lat="46.96826" lon="8.77447">
        <ele>744</ele>
        <time>2021-08-06T09:02:32.328Z</time>
      </trkpt>
      <trkpt lat="46.96827" lon="8.77447">
        <ele>744</ele>
        <time>2021-08-06T09:02:33.328Z</time>
      </trkpt>
      <trkpt lat="46.96828" lon="8.77448">
        <ele>745</ele>
        <time>2021-08-06T09:02:34.327Z</time>
      </trkpt>
      <trkpt lat="46.96829" lon="8.77448">
        <ele>745</ele>
        <time>2021-08-06T09:02:35.328Z</time>
      </trkpt>
      <trkpt lat="46.96829" lon="8.77449">
        <ele>746</ele>
        <time>2021-08-06T09:02:36.328Z</time>
      </trkpt>
      <trkpt lat="46.96829" lon="8.77449">
        <ele>746</ele>
        <time>2021-08-06T09:02:37.327Z</time>
      </trkpt>
      <trkpt lat="46.9683" lon="8.7745">
        <ele>746</ele>
        <time>2021-08-06T09:02:38.328Z</time>
      </trkpt>
      <trkpt lat="46.9683" lon="8.7745">
        <ele>746</ele>
        <time>2021-08-06T09:02:39.327Z</time>
      </trkpt>
      <trkpt lat="46.96831" lon="8.77449">
        <ele>747</ele>
        <time>2021-08-06T09:02:40.328Z</time>
      </trkpt>
      <trkpt lat="46.96832" lon="8.77449">
        <ele>747</ele>
        <time>2021-08-06T09:02:41.327Z</time>
      </trkpt>
      <trkpt lat="46.96832" lon="8.7745">
        <ele>747</ele>
        <time>2021-08-06T09:02:42.327Z</time>
      </trkpt>
      <trkpt lat="46.96832" lon="8.77449">
        <ele>747</ele>
        <time>2021-08-06T09:02:43.327Z</time>
      </trkpt>
      <trkpt lat="46.96832" lon="8.77449">
        <ele>748</ele>
        <time>2021-08-06T09:02:44.327Z</time>
      </trkpt>
      <trkpt lat="46.96833" lon="8.77448">
        <ele>748</ele>
        <time>2021-08-06T09:02:45.327Z</time>
      </trkpt>
      <trkpt lat="46.96833" lon="8.77447">
        <ele>748</ele>
        <time>2021-08-06T09:02:46.328Z</time>
      </trkpt>
      <trkpt lat="46.96834" lon="8.77446">
        <ele>748</ele>
        <time>2021-08-06T09:02:47.327Z</time>
      </trkpt>
      <trkpt lat="46.96834" lon="8.77446">
        <ele>748</ele>
        <time>2021-08-06T09:02:48.327Z</time>
      </trkpt>
      <trkpt lat="46.96834" lon="8.77445">
        <ele>748</ele>
        <time>2021-08-06T09:02:49.327Z</time>
      </trkpt>
      <trkpt lat="46.96833" lon="8.77444">
        <ele>748</ele>
        <time>2021-08-06T09:02:50.327Z</time>
      </trkpt>
      <trkpt lat="46.96834" lon="8.77444">
        <ele>748</ele>
        <time>2021-08-06T09:02:51.327Z</time>
      </trkpt>
      <trkpt lat="46.96835" lon="8.77444">
        <ele>747</ele>
        <time>2021-08-06T09:02:52.328Z</time>
      </trkpt>
      <trkpt lat="46.96835" lon="8.77444">
        <ele>747</ele>
        <time>2021-08-06T09:02:53.328Z</time>
      </trkpt>
      <trkpt lat="46.96836" lon="8.77444">
        <ele>746</ele>
        <time>2021-08-06T09:02:54.328Z</time>
      </trkpt>
      <trkpt lat="46.96836" lon="8.77445">
        <ele>746</ele>
        <time>2021-08-06T09:02:55.328Z</time>
      </trkpt>
      <trkpt lat="46.96837" lon="8.77445">
        <ele>746</ele>
        <time>2021-08-06T09:02:56.328Z</time>
      </trkpt>
      <trkpt lat="46.96838" lon="8.77446">
        <ele>746</ele>
        <time>2021-08-06T09:02:57.328Z</time>
      </trkpt>
      <trkpt lat="46.96838" lon="8.77446">
        <ele>746</ele>
        <time>2021-08-06T09:02:58.328Z</time>
      </trkpt>
      <trkpt lat="46.96839" lon="8.77447">
        <ele>746</ele>
        <time>2021-08-06T09:02:59.328Z</time>
      </trkpt>
      <trkpt lat="46.9684" lon="8.77446">
        <ele>746</ele>
        <time>2021-08-06T09:03:00.328Z</time>
      </trkpt>
      <trkpt lat="46.9684" lon="8.77447">
        <ele>746</ele>
        <time>2021-08-06T09:03:01.328Z</time>
      </trkpt>
      <trkpt lat="46.96841" lon="8.77447">
        <ele>746</ele>
        <time>2021-08-06T09:03:02.327Z</time>
      </trkpt>
      <trkpt lat="46.96842" lon="8.77446">
        <ele>746</ele>
        <time>2021-08-06T09:03:03.327Z</time>
      </trkpt>
      <trkpt lat="46.96842" lon="8.77446">
        <ele>745</ele>
        <time>2021-08-06T09:03:04.328Z</time>
      </trkpt>
      <trkpt lat="46.96843" lon="8.77446">
        <ele>746</ele>
        <time>2021-08-06T09:03:05.328Z</time>
      </trkpt>
      <trkpt lat="46.96845" lon="8.77446">
        <ele>746</ele>
        <time>2021-08-06T09:03:06.328Z</time>
      </trkpt>
      <trkpt lat="46.96846" lon="8.77446">
        <ele>747</ele>
        <time>2021-08-06T09:03:07.327Z</time>
      </trkpt>
      <trkpt lat="46.96847" lon="8.77445">
        <ele>748</ele>
        <time>2021-08-06T09:03:08.328Z</time>
      </trkpt>
      <trkpt lat="46.96847" lon="8.77445">
        <ele>748</ele>
        <time>2021-08-06T09:03:09.328Z</time>
      </trkpt>
      <trkpt lat="46.96848" lon="8.77444">
        <ele>748</ele>
        <time>2021-08-06T09:03:10.328Z</time>
      </trkpt>
      <trkpt lat="46.96848" lon="8.77444">
        <ele>749</ele>
        <time>2021-08-06T09:03:11.328Z</time>
      </trkpt>
      <trkpt lat="46.96849" lon="8.77444">
        <ele>749</ele>
        <time>2021-08-06T09:03:12.327Z</time>
      </trkpt>
      <trkpt lat="46.96849" lon="8.77444">
        <ele>750</ele>
        <time>2021-08-06T09:03:13.328Z</time>
      </trkpt>
      <trkpt lat="46.9685" lon="8.77444">
        <ele>750</ele>
        <time>2021-08-06T09:03:14.328Z</time>
      </trkpt>
      <trkpt lat="46.9685" lon="8.77445">
        <ele>750</ele>
        <time>2021-08-06T09:03:15.328Z</time>
      </trkpt>
      <trkpt lat="46.9685" lon="8.77445">
        <ele>750</ele>
        <time>2021-08-06T09:03:16.328Z</time>
      </trkpt>
      <trkpt lat="46.96849" lon="8.77447">
        <ele>751</ele>
        <time>2021-08-06T09:03:17.327Z</time>
      </trkpt>
      <trkpt lat="46.96849" lon="8.77447">
        <ele>751</ele>
        <time>2021-08-06T09:03:18.327Z</time>
      </trkpt>
      <trkpt lat="46.96849" lon="8.77446">
        <ele>751</ele>
        <time>2021-08-06T09:03:19.329Z</time>
      </trkpt>
      <trkpt lat="46.96848" lon="8.77444">
        <ele>751</ele>
        <time>2021-08-06T09:03:20.330Z</time>
      </trkpt>
      <trkpt lat="46.96848" lon="8.77444">
        <ele>750</ele>
        <time>2021-08-06T09:03:21.330Z</time>
      </trkpt>
      <trkpt lat="46.96848" lon="8.77444">
        <ele>750</ele>
        <time>2021-08-06T09:03:22.330Z</time>
      </trkpt>
      <trkpt lat="46.96849" lon="8.77444">
        <ele>749</ele>
        <time>2021-08-06T09:03:23.329Z</time>
      </trkpt>
      <trkpt lat="46.9685" lon="8.77445">
        <ele>749</ele>
        <time>2021-08-06T09:03:24.330Z</time>
      </trkpt>
      <trkpt lat="46.9685" lon="8.77445">
        <ele>749</ele>
        <time>2021-08-06T09:03:25.330Z</time>
      </trkpt>
      <trkpt lat="46.96851" lon="8.77446">
        <ele>748</ele>
        <time>2021-08-06T09:03:26.330Z</time>
      </trkpt>
      <trkpt lat="46.96851" lon="8.77445">
        <ele>748</ele>
        <time>2021-08-06T09:03:27.330Z</time>
      </trkpt>
      <trkpt lat="46.96852" lon="8.77444">
        <ele>747</ele>
        <time>2021-08-06T09:03:28.330Z</time>
      </trkpt>
      <trkpt lat="46.96852" lon="8.7744">
        <ele>743</ele>
        <time>2021-08-06T09:03:29.330Z</time>
      </trkpt>
      <trkpt lat="46.96853" lon="8.7744">
        <ele>742</ele>
        <time>2021-08-06T09:03:30.330Z</time>
      </trkpt>
      <trkpt lat="46.96853" lon="8.77439">
        <ele>742</ele>
        <time>2021-08-06T09:03:31.329Z</time>
      </trkpt>
      <trkpt lat="46.96854" lon="8.77438">
        <ele>742</ele>
        <time>2021-08-06T09:03:32.329Z</time>
      </trkpt>
      <trkpt lat="46.96854" lon="8.77437">
        <ele>741</ele>
        <time>2021-08-06T09:03:33.330Z</time>
      </trkpt>
      <trkpt lat="46.96855" lon="8.77437">
        <ele>741</ele>
        <time>2021-08-06T09:03:34.330Z</time>
      </trkpt>
      <trkpt lat="46.96855" lon="8.77437">
        <ele>741</ele>
        <time>2021-08-06T09:03:35.329Z</time>
      </trkpt>
      <trkpt lat="46.96856" lon="8.77437">
        <ele>741</ele>
        <time>2021-08-06T09:03:36.330Z</time>
      </trkpt>
      <trkpt lat="46.96857" lon="8.77436">
        <ele>741</ele>
        <time>2021-08-06T09:03:37.329Z</time>
      </trkpt>
      <trkpt lat="46.96858" lon="8.77435">
        <ele>741</ele>
        <time>2021-08-06T09:03:38.330Z</time>
      </trkpt>
      <trkpt lat="46.96858" lon="8.77434">
        <ele>740</ele>
        <time>2021-08-06T09:03:39.330Z</time>
      </trkpt>
      <trkpt lat="46.96859" lon="8.77433">
        <ele>740</ele>
        <time>2021-08-06T09:03:40.330Z</time>
      </trkpt>
      <trkpt lat="46.96859" lon="8.77433">
        <ele>740</ele>
        <time>2021-08-06T09:03:41.330Z</time>
      </trkpt>
      <trkpt lat="46.96859" lon="8.77432">
        <ele>740</ele>
        <time>2021-08-06T09:03:42.329Z</time>
      </trkpt>
      <trkpt lat="46.96859" lon="8.77432">
        <ele>740</ele>
        <time>2021-08-06T09:03:43.330Z</time>
      </trkpt>
      <trkpt lat="46.96859" lon="8.77432">
        <ele>740</ele>
        <time>2021-08-06T09:03:44.329Z</time>
      </trkpt>
      <trkpt lat="46.96859" lon="8.77431">
        <ele>739</ele>
        <time>2021-08-06T09:03:45.330Z</time>
      </trkpt>
      <trkpt lat="46.96859" lon="8.7743">
        <ele>739</ele>
        <time>2021-08-06T09:03:46.329Z</time>
      </trkpt>
      <trkpt lat="46.96859" lon="8.7743">
        <ele>739</ele>
        <time>2021-08-06T09:03:47.329Z</time>
      </trkpt>
      <trkpt lat="46.9686" lon="8.7743">
        <ele>739</ele>
        <time>2021-08-06T09:03:48.330Z</time>
      </trkpt>
      <trkpt lat="46.9686" lon="8.7743">
        <ele>739</ele>
        <time>2021-08-06T09:03:49.329Z</time>
      </trkpt>
      <trkpt lat="46.9686" lon="8.7743">
        <ele>739</ele>
        <time>2021-08-06T09:03:50.329Z</time>
      </trkpt>
      <trkpt lat="46.9686" lon="8.7743">
        <ele>739</ele>
        <time>2021-08-06T09:03:51.329Z</time>
      </trkpt>
      <trkpt lat="46.9686" lon="8.77431">
        <ele>739</ele>
        <time>2021-08-06T09:03:52.329Z</time>
      </trkpt>
      <trkpt lat="46.96861" lon="8.77431">
        <ele>739</ele>
        <time>2021-08-06T09:03:53.330Z</time>
      </trkpt>
      <trkpt lat="46.96861" lon="8.77431">
        <ele>738</ele>
        <time>2021-08-06T09:03:54.330Z</time>
      </trkpt>
      <trkpt lat="46.96862" lon="8.77431">
        <ele>738</ele>
        <time>2021-08-06T09:03:55.329Z</time>
      </trkpt>
      <trkpt lat="46.96862" lon="8.77431">
        <ele>738</ele>
        <time>2021-08-06T09:03:56.330Z</time>
      </trkpt>
      <trkpt lat="46.96863" lon="8.77431">
        <ele>737</ele>
        <time>2021-08-06T09:03:57.329Z</time>
      </trkpt>
      <trkpt lat="46.96864" lon="8.77431">
        <ele>737</ele>
        <time>2021-08-06T09:03:58.329Z</time>
      </trkpt>
      <trkpt lat="46.96865" lon="8.77431">
        <ele>736</ele>
        <time>2021-08-06T09:03:59.330Z</time>
      </trkpt>
      <trkpt lat="46.96866" lon="8.77431">
        <ele>736</ele>
        <time>2021-08-06T09:04:00.329Z</time>
      </trkpt>
      <trkpt lat="46.96866" lon="8.7743">
        <ele>736</ele>
        <time>2021-08-06T09:04:01.329Z</time>
      </trkpt>
      <trkpt lat="46.96867" lon="8.77429">
        <ele>736</ele>
        <time>2021-08-06T09:04:02.330Z</time>
      </trkpt>
      <trkpt lat="46.96868" lon="8.77428">
        <ele>736</ele>
        <time>2021-08-06T09:04:03.330Z</time>
      </trkpt>
      <trkpt lat="46.96869" lon="8.77428">
        <ele>735</ele>
        <time>2021-08-06T09:04:04.330Z</time>
      </trkpt>
      <trkpt lat="46.9687" lon="8.77427">
        <ele>735</ele>
        <time>2021-08-06T09:04:05.330Z</time>
      </trkpt>
      <trkpt lat="46.96872" lon="8.77426">
        <ele>735</ele>
        <time>2021-08-06T09:04:06.330Z</time>
      </trkpt>
      <trkpt lat="46.96873" lon="8.77425">
        <ele>735</ele>
        <time>2021-08-06T09:04:07.330Z</time>
      </trkpt>
      <trkpt lat="46.96874" lon="8.77423">
        <ele>735</ele>
        <time>2021-08-06T09:04:08.329Z</time>
      </trkpt>
      <trkpt lat="46.96875" lon="8.77422">
        <ele>734</ele>
        <time>2021-08-06T09:04:09.330Z</time>
      </trkpt>
      <trkpt lat="46.96875" lon="8.77421">
        <ele>734</ele>
        <time>2021-08-06T09:04:10.330Z</time>
      </trkpt>
      <trkpt lat="46.96875" lon="8.77419">
        <ele>734</ele>
        <time>2021-08-06T09:04:11.330Z</time>
      </trkpt>
      <trkpt lat="46.96875" lon="8.77417">
        <ele>734</ele>
        <time>2021-08-06T09:04:12.329Z</time>
      </trkpt>
      <trkpt lat="46.96875" lon="8.77416">
        <ele>734</ele>
        <time>2021-08-06T09:04:13.329Z</time>
      </trkpt>
      <trkpt lat="46.96875" lon="8.77415">
        <ele>734</ele>
        <time>2021-08-06T09:04:14.330Z</time>
      </trkpt>
      <trkpt lat="46.96876" lon="8.77413">
        <ele>734</ele>
        <time>2021-08-06T09:04:15.330Z</time>
      </trkpt>
      <trkpt lat="46.96876" lon="8.77413">
        <ele>733</ele>
        <time>2021-08-06T09:04:16.330Z</time>
      </trkpt>
      <trkpt lat="46.96876" lon="8.77413">
        <ele>733</ele>
        <time>2021-08-06T09:04:17.330Z</time>
      </trkpt>
      <trkpt lat="46.96876" lon="8.77413">
        <ele>733</ele>
        <time>2021-08-06T09:04:18.330Z</time>
      </trkpt>
      <trkpt lat="46.96876" lon="8.77414">
        <ele>733</ele>
        <time>2021-08-06T09:04:19.330Z</time>
      </trkpt>
      <trkpt lat="46.96877" lon="8.77413">
        <ele>733</ele>
        <time>2021-08-06T09:04:20.329Z</time>
      </trkpt>
      <trkpt lat="46.96877" lon="8.77412">
        <ele>733</ele>
        <time>2021-08-06T09:04:21.329Z</time>
      </trkpt>
      <trkpt lat="46.96877" lon="8.77411">
        <ele>732</ele>
        <time>2021-08-06T09:04:22.330Z</time>
      </trkpt>
      <trkpt lat="46.96877" lon="8.7741">
        <ele>732</ele>
        <time>2021-08-06T09:04:23.330Z</time>
      </trkpt>
      <trkpt lat="46.96877" lon="8.77409">
        <ele>732</ele>
        <time>2021-08-06T09:04:24.329Z</time>
      </trkpt>
      <trkpt lat="46.96876" lon="8.77407">
        <ele>732</ele>
        <time>2021-08-06T09:04:25.330Z</time>
      </trkpt>
      <trkpt lat="46.96876" lon="8.77405">
        <ele>731</ele>
        <time>2021-08-06T09:04:26.330Z</time>
      </trkpt>
      <trkpt lat="46.96876" lon="8.77404">
        <ele>731</ele>
        <time>2021-08-06T09:04:27.330Z</time>
      </trkpt>
      <trkpt lat="46.96875" lon="8.77403">
        <ele>732</ele>
        <time>2021-08-06T09:04:28.330Z</time>
      </trkpt>
      <trkpt lat="46.96875" lon="8.77402">
        <ele>732</ele>
        <time>2021-08-06T09:04:29.330Z</time>
      </trkpt>
      <trkpt lat="46.96874" lon="8.77402">
        <ele>731</ele>
        <time>2021-08-06T09:04:30.330Z</time>
      </trkpt>
      <trkpt lat="46.96873" lon="8.77403">
        <ele>731</ele>
        <time>2021-08-06T09:04:31.329Z</time>
      </trkpt>
      <trkpt lat="46.96871" lon="8.77407">
        <ele>729</ele>
        <time>2021-08-06T09:04:32.330Z</time>
      </trkpt>
      <trkpt lat="46.96871" lon="8.77408">
        <ele>728</ele>
        <time>2021-08-06T09:04:33.330Z</time>
      </trkpt>
      <trkpt lat="46.9687" lon="8.77408">
        <ele>728</ele>
        <time>2021-08-06T09:04:34.329Z</time>
      </trkpt>
      <trkpt lat="46.9687" lon="8.77408">
        <ele>728</ele>
        <time>2021-08-06T09:04:35.329Z</time>
      </trkpt>
      <trkpt lat="46.9687" lon="8.77409">
        <ele>727</ele>
        <time>2021-08-06T09:04:36.330Z</time>
      </trkpt>
      <trkpt lat="46.96871" lon="8.77409">
        <ele>727</ele>
        <time>2021-08-06T09:04:37.330Z</time>
      </trkpt>
      <trkpt lat="46.96871" lon="8.77408">
        <ele>726</ele>
        <time>2021-08-06T09:04:38.330Z</time>
      </trkpt>
      <trkpt lat="46.96872" lon="8.77404">
        <ele>722</ele>
        <time>2021-08-06T09:04:39.330Z</time>
      </trkpt>
      <trkpt lat="46.96872" lon="8.77403">
        <ele>722</ele>
        <time>2021-08-06T09:04:40.330Z</time>
      </trkpt>
      <trkpt lat="46.96872" lon="8.77401">
        <ele>722</ele>
        <time>2021-08-06T09:04:41.329Z</time>
      </trkpt>
      <trkpt lat="46.96871" lon="8.77399">
        <ele>722</ele>
        <time>2021-08-06T09:04:42.330Z</time>
      </trkpt>
      <trkpt lat="46.96871" lon="8.77398">
        <ele>722</ele>
        <time>2021-08-06T09:04:43.329Z</time>
      </trkpt>
      <trkpt lat="46.96871" lon="8.77396">
        <ele>722</ele>
        <time>2021-08-06T09:04:44.330Z</time>
      </trkpt>
      <trkpt lat="46.96871" lon="8.77394">
        <ele>722</ele>
        <time>2021-08-06T09:04:45.330Z</time>
      </trkpt>
      <trkpt lat="46.9687" lon="8.77392">
        <ele>721</ele>
        <time>2021-08-06T09:04:46.330Z</time>
      </trkpt>
      <trkpt lat="46.96869" lon="8.7739">
        <ele>721</ele>
        <time>2021-08-06T09:04:47.329Z</time>
      </trkpt>
      <trkpt lat="46.96869" lon="8.77389">
        <ele>721</ele>
        <time>2021-08-06T09:04:48.330Z</time>
      </trkpt>
      <trkpt lat="46.96869" lon="8.77387">
        <ele>722</ele>
        <time>2021-08-06T09:04:49.329Z</time>
      </trkpt>
      <trkpt lat="46.96869" lon="8.77385">
        <ele>722</ele>
        <time>2021-08-06T09:04:50.330Z</time>
      </trkpt>
      <trkpt lat="46.96868" lon="8.77383">
        <ele>722</ele>
        <time>2021-08-06T09:04:51.329Z</time>
      </trkpt>
      <trkpt lat="46.96868" lon="8.77381">
        <ele>722</ele>
        <time>2021-08-06T09:04:52.330Z</time>
      </trkpt>
      <trkpt lat="46.96867" lon="8.77379">
        <ele>722</ele>
        <time>2021-08-06T09:04:53.329Z</time>
      </trkpt>
      <trkpt lat="46.96867" lon="8.77377">
        <ele>723</ele>
        <time>2021-08-06T09:04:54.330Z</time>
      </trkpt>
      <trkpt lat="46.96867" lon="8.77376">
        <ele>723</ele>
        <time>2021-08-06T09:04:55.330Z</time>
      </trkpt>
      <trkpt lat="46.96866" lon="8.77374">
        <ele>723</ele>
        <time>2021-08-06T09:04:56.329Z</time>
      </trkpt>
      <trkpt lat="46.96866" lon="8.77372">
        <ele>723</ele>
        <time>2021-08-06T09:04:57.330Z</time>
      </trkpt>
      <trkpt lat="46.96866" lon="8.77371">
        <ele>723</ele>
        <time>2021-08-06T09:04:58.330Z</time>
      </trkpt>
      <trkpt lat="46.96867" lon="8.77371">
        <ele>723</ele>
        <time>2021-08-06T09:04:59.330Z</time>
      </trkpt>
      <trkpt lat="46.96867" lon="8.77372">
        <ele>724</ele>
        <time>2021-08-06T09:05:00.329Z</time>
      </trkpt>
      <trkpt lat="46.96868" lon="8.7737">
        <ele>724</ele>
        <time>2021-08-06T09:05:01.330Z</time>
      </trkpt>
      <trkpt lat="46.96869" lon="8.77369">
        <ele>724</ele>
        <time>2021-08-06T09:05:02.329Z</time>
      </trkpt>
      <trkpt lat="46.96869" lon="8.77368">
        <ele>725</ele>
        <time>2021-08-06T09:05:03.329Z</time>
      </trkpt>
      <trkpt lat="46.96869" lon="8.77367">
        <ele>725</ele>
        <time>2021-08-06T09:05:04.330Z</time>
      </trkpt>
      <trkpt lat="46.96868" lon="8.77366">
        <ele>725</ele>
        <time>2021-08-06T09:05:05.330Z</time>
      </trkpt>
      <trkpt lat="46.96868" lon="8.77365">
        <ele>726</ele>
        <time>2021-08-06T09:05:06.329Z</time>
      </trkpt>
      <trkpt lat="46.96868" lon="8.77365">
        <ele>726</ele>
        <time>2021-08-06T09:05:07.329Z</time>
      </trkpt>
      <trkpt lat="46.96868" lon="8.77364">
        <ele>727</ele>
        <time>2021-08-06T09:05:08.329Z</time>
      </trkpt>
      <trkpt lat="46.96868" lon="8.77363">
        <ele>727</ele>
        <time>2021-08-06T09:05:09.330Z</time>
      </trkpt>
      <trkpt lat="46.96868" lon="8.77362">
        <ele>727</ele>
        <time>2021-08-06T09:05:10.329Z</time>
      </trkpt>
      <trkpt lat="46.96869" lon="8.7736">
        <ele>727</ele>
        <time>2021-08-06T09:05:11.330Z</time>
      </trkpt>
      <trkpt lat="46.96869" lon="8.77359">
        <ele>728</ele>
        <time>2021-08-06T09:05:12.330Z</time>
      </trkpt>
      <trkpt lat="46.96869" lon="8.77357">
        <ele>727</ele>
        <time>2021-08-06T09:05:13.330Z</time>
      </trkpt>
      <trkpt lat="46.96869" lon="8.77356">
        <ele>727</ele>
        <time>2021-08-06T09:05:14.330Z</time>
      </trkpt>
      <trkpt lat="46.9687" lon="8.77356">
        <ele>726</ele>
        <time>2021-08-06T09:05:15.330Z</time>
      </trkpt>
      <trkpt lat="46.9687" lon="8.77355">
        <ele>726</ele>
        <time>2021-08-06T09:05:16.330Z</time>
      </trkpt>
      <trkpt lat="46.9687" lon="8.77354">
        <ele>725</ele>
        <time>2021-08-06T09:05:17.329Z</time>
      </trkpt>
      <trkpt lat="46.96871" lon="8.77354">
        <ele>725</ele>
        <time>2021-08-06T09:05:18.330Z</time>
      </trkpt>
      <trkpt lat="46.9687" lon="8.77356">
        <ele>725</ele>
        <time>2021-08-06T09:05:19.330Z</time>
      </trkpt>
      <trkpt lat="46.9687" lon="8.77355">
        <ele>726</ele>
        <time>2021-08-06T09:05:20.330Z</time>
      </trkpt>
      <trkpt lat="46.96869" lon="8.77355">
        <ele>726</ele>
        <time>2021-08-06T09:05:21.329Z</time>
      </trkpt>
      <trkpt lat="46.96869" lon="8.77355">
        <ele>727</ele>
        <time>2021-08-06T09:05:22.330Z</time>
      </trkpt>
      <trkpt lat="46.96869" lon="8.77355">
        <ele>727</ele>
        <time>2021-08-06T09:05:23.330Z</time>
      </trkpt>
      <trkpt lat="46.96869" lon="8.77356">
        <ele>727</ele>
        <time>2021-08-06T09:05:24.329Z</time>
      </trkpt>
      <trkpt lat="46.96875" lon="8.77358">
        <ele>725</ele>
        <time>2021-08-06T09:05:25.331Z</time>
      </trkpt>
      <trkpt lat="46.96875" lon="8.77357">
        <ele>725</ele>
        <time>2021-08-06T09:05:26.331Z</time>
      </trkpt>
      <trkpt lat="46.96876" lon="8.77356">
        <ele>725</ele>
        <time>2021-08-06T09:05:27.330Z</time>
      </trkpt>
      <trkpt lat="46.96876" lon="8.77355">
        <ele>725</ele>
        <time>2021-08-06T09:05:28.330Z</time>
      </trkpt>
      <trkpt lat="46.96877" lon="8.77354">
        <ele>725</ele>
        <time>2021-08-06T09:05:29.330Z</time>
      </trkpt>
      <trkpt lat="46.96877" lon="8.77353">
        <ele>724</ele>
        <time>2021-08-06T09:05:30.330Z</time>
      </trkpt>
      <trkpt lat="46.96878" lon="8.77352">
        <ele>724</ele>
        <time>2021-08-06T09:05:31.330Z</time>
      </trkpt>
      <trkpt lat="46.96878" lon="8.7735">
        <ele>724</ele>
        <time>2021-08-06T09:05:32.330Z</time>
      </trkpt>
      <trkpt lat="46.96878" lon="8.7735">
        <ele>724</ele>
        <time>2021-08-06T09:05:33.330Z</time>
      </trkpt>
      <trkpt lat="46.96879" lon="8.77349">
        <ele>724</ele>
        <time>2021-08-06T09:05:34.330Z</time>
      </trkpt>
      <trkpt lat="46.96879" lon="8.77348">
        <ele>725</ele>
        <time>2021-08-06T09:05:35.331Z</time>
      </trkpt>
      <trkpt lat="46.9688" lon="8.77347">
        <ele>725</ele>
        <time>2021-08-06T09:05:36.330Z</time>
      </trkpt>
      <trkpt lat="46.96881" lon="8.77346">
        <ele>725</ele>
        <time>2021-08-06T09:05:37.331Z</time>
      </trkpt>
      <trkpt lat="46.96882" lon="8.77345">
        <ele>725</ele>
        <time>2021-08-06T09:05:38.330Z</time>
      </trkpt>
      <trkpt lat="46.96883" lon="8.77344">
        <ele>725</ele>
        <time>2021-08-06T09:05:39.330Z</time>
      </trkpt>
      <trkpt lat="46.96884" lon="8.77342">
        <ele>726</ele>
        <time>2021-08-06T09:05:40.330Z</time>
      </trkpt>
      <trkpt lat="46.96885" lon="8.77342">
        <ele>726</ele>
        <time>2021-08-06T09:05:41.331Z</time>
      </trkpt>
      <trkpt lat="46.96886" lon="8.77339">
        <ele>726</ele>
        <time>2021-08-06T09:05:42.330Z</time>
      </trkpt>
      <trkpt lat="46.96887" lon="8.77339">
        <ele>727</ele>
        <time>2021-08-06T09:05:43.330Z</time>
      </trkpt>
      <trkpt lat="46.96887" lon="8.77338">
        <ele>727</ele>
        <time>2021-08-06T09:05:44.330Z</time>
      </trkpt>
      <trkpt lat="46.96888" lon="8.77337">
        <ele>727</ele>
        <time>2021-08-06T09:05:45.331Z</time>
      </trkpt>
      <trkpt lat="46.96889" lon="8.77336">
        <ele>727</ele>
        <time>2021-08-06T09:05:46.330Z</time>
      </trkpt>
      <trkpt lat="46.9689" lon="8.77335">
        <ele>728</ele>
        <time>2021-08-06T09:05:47.330Z</time>
      </trkpt>
      <trkpt lat="46.96891" lon="8.77334">
        <ele>728</ele>
        <time>2021-08-06T09:05:48.330Z</time>
      </trkpt>
      <trkpt lat="46.96892" lon="8.77333">
        <ele>728</ele>
        <time>2021-08-06T09:05:49.330Z</time>
      </trkpt>
      <trkpt lat="46.96892" lon="8.77331">
        <ele>728</ele>
        <time>2021-08-06T09:05:50.330Z</time>
      </trkpt>
      <trkpt lat="46.96893" lon="8.7733">
        <ele>728</ele>
        <time>2021-08-06T09:05:51.330Z</time>
      </trkpt>
      <trkpt lat="46.96893" lon="8.77329">
        <ele>728</ele>
        <time>2021-08-06T09:05:52.330Z</time>
      </trkpt>
      <trkpt lat="46.96894" lon="8.77327">
        <ele>728</ele>
        <time>2021-08-06T09:05:53.330Z</time>
      </trkpt>
      <trkpt lat="46.96894" lon="8.77326">
        <ele>728</ele>
        <time>2021-08-06T09:05:54.330Z</time>
      </trkpt>
      <trkpt lat="46.96894" lon="8.77325">
        <ele>728</ele>
        <time>2021-08-06T09:05:55.330Z</time>
      </trkpt>
      <trkpt lat="46.96894" lon="8.77323">
        <ele>728</ele>
        <time>2021-08-06T09:05:56.330Z</time>
      </trkpt>
      <trkpt lat="46.96894" lon="8.77322">
        <ele>728</ele>
        <time>2021-08-06T09:05:57.330Z</time>
      </trkpt>
      <trkpt lat="46.96895" lon="8.77321">
        <ele>728</ele>
        <time>2021-08-06T09:05:58.330Z</time>
      </trkpt>
      <trkpt lat="46.96894" lon="8.7732">
        <ele>728</ele>
        <time>2021-08-06T09:05:59.331Z</time>
      </trkpt>
      <trkpt lat="46.96894" lon="8.77319">
        <ele>729</ele>
        <time>2021-08-06T09:06:00.331Z</time>
      </trkpt>
      <trkpt lat="46.96894" lon="8.77318">
        <ele>729</ele>
        <time>2021-08-06T09:06:01.331Z</time>
      </trkpt>
      <trkpt lat="46.96895" lon="8.77316">
        <ele>729</ele>
        <time>2021-08-06T09:06:02.331Z</time>
      </trkpt>
      <trkpt lat="46.96895" lon="8.77315">
        <ele>730</ele>
        <time>2021-08-06T09:06:03.331Z</time>
      </trkpt>
      <trkpt lat="46.96895" lon="8.77314">
        <ele>730</ele>
        <time>2021-08-06T09:06:04.331Z</time>
      </trkpt>
      <trkpt lat="46.96895" lon="8.77312">
        <ele>731</ele>
        <time>2021-08-06T09:06:05.330Z</time>
      </trkpt>
      <trkpt lat="46.96895" lon="8.77311">
        <ele>731</ele>
        <time>2021-08-06T09:06:06.331Z</time>
      </trkpt>
      <trkpt lat="46.96895" lon="8.7731">
        <ele>732</ele>
        <time>2021-08-06T09:06:07.331Z</time>
      </trkpt>
      <trkpt lat="46.96894" lon="8.77308">
        <ele>732</ele>
        <time>2021-08-06T09:06:08.330Z</time>
      </trkpt>
      <trkpt lat="46.96894" lon="8.77306">
        <ele>733</ele>
        <time>2021-08-06T09:06:09.331Z</time>
      </trkpt>
      <trkpt lat="46.96894" lon="8.77305">
        <ele>733</ele>
        <time>2021-08-06T09:06:10.331Z</time>
      </trkpt>
      <trkpt lat="46.96894" lon="8.77303">
        <ele>733</ele>
        <time>2021-08-06T09:06:11.331Z</time>
      </trkpt>
      <trkpt lat="46.96893" lon="8.77301">
        <ele>733</ele>
        <time>2021-08-06T09:06:12.331Z</time>
      </trkpt>
      <trkpt lat="46.96893" lon="8.773">
        <ele>733</ele>
        <time>2021-08-06T09:06:13.331Z</time>
      </trkpt>
      <trkpt lat="46.96893" lon="8.77299">
        <ele>734</ele>
        <time>2021-08-06T09:06:14.331Z</time>
      </trkpt>
      <trkpt lat="46.96893" lon="8.77298">
        <ele>734</ele>
        <time>2021-08-06T09:06:15.331Z</time>
      </trkpt>
      <trkpt lat="46.96893" lon="8.77297">
        <ele>734</ele>
        <time>2021-08-06T09:06:16.330Z</time>
      </trkpt>
      <trkpt lat="46.96894" lon="8.77295">
        <ele>734</ele>
        <time>2021-08-06T09:06:17.331Z</time>
      </trkpt>
      <trkpt lat="46.96894" lon="8.77294">
        <ele>735</ele>
        <time>2021-08-06T09:06:18.331Z</time>
      </trkpt>
      <trkpt lat="46.96894" lon="8.77292">
        <ele>735</ele>
        <time>2021-08-06T09:06:19.330Z</time>
      </trkpt>
      <trkpt lat="46.96894" lon="8.7729">
        <ele>736</ele>
        <time>2021-08-06T09:06:20.331Z</time>
      </trkpt>
      <trkpt lat="46.96894" lon="8.77289">
        <ele>736</ele>
        <time>2021-08-06T09:06:21.331Z</time>
      </trkpt>
      <trkpt lat="46.96894" lon="8.77288">
        <ele>736</ele>
        <time>2021-08-06T09:06:22.331Z</time>
      </trkpt>
      <trkpt lat="46.96895" lon="8.77287">
        <ele>736</ele>
        <time>2021-08-06T09:06:23.330Z</time>
      </trkpt>
      <trkpt lat="46.96895" lon="8.77286">
        <ele>736</ele>
        <time>2021-08-06T09:06:24.331Z</time>
      </trkpt>
      <trkpt lat="46.96896" lon="8.77285">
        <ele>736</ele>
        <time>2021-08-06T09:06:25.330Z</time>
      </trkpt>
      <trkpt lat="46.96897" lon="8.77283">
        <ele>737</ele>
        <time>2021-08-06T09:06:26.331Z</time>
      </trkpt>
      <trkpt lat="46.96897" lon="8.77283">
        <ele>737</ele>
        <time>2021-08-06T09:06:27.331Z</time>
      </trkpt>
      <trkpt lat="46.96897" lon="8.77282">
        <ele>738</ele>
        <time>2021-08-06T09:06:28.331Z</time>
      </trkpt>
      <trkpt lat="46.96897" lon="8.77281">
        <ele>738</ele>
        <time>2021-08-06T09:06:29.331Z</time>
      </trkpt>
      <trkpt lat="46.96898" lon="8.77281">
        <ele>739</ele>
        <time>2021-08-06T09:06:30.330Z</time>
      </trkpt>
      <trkpt lat="46.96898" lon="8.7728">
        <ele>739</ele>
        <time>2021-08-06T09:06:31.331Z</time>
      </trkpt>
      <trkpt lat="46.96899" lon="8.7728">
        <ele>739</ele>
        <time>2021-08-06T09:06:32.330Z</time>
      </trkpt>
      <trkpt lat="46.96899" lon="8.77279">
        <ele>739</ele>
        <time>2021-08-06T09:06:33.330Z</time>
      </trkpt>
      <trkpt lat="46.969" lon="8.77278">
        <ele>739</ele>
        <time>2021-08-06T09:06:34.331Z</time>
      </trkpt>
      <trkpt lat="46.96901" lon="8.77278">
        <ele>739</ele>
        <time>2021-08-06T09:06:35.331Z</time>
      </trkpt>
      <trkpt lat="46.96901" lon="8.77277">
        <ele>740</ele>
        <time>2021-08-06T09:06:36.331Z</time>
      </trkpt>
      <trkpt lat="46.96902" lon="8.77276">
        <ele>740</ele>
        <time>2021-08-06T09:06:37.331Z</time>
      </trkpt>
      <trkpt lat="46.96903" lon="8.77275">
        <ele>740</ele>
        <time>2021-08-06T09:06:38.331Z</time>
      </trkpt>
      <trkpt lat="46.96904" lon="8.77274">
        <ele>740</ele>
        <time>2021-08-06T09:06:39.331Z</time>
      </trkpt>
      <trkpt lat="46.96904" lon="8.77272">
        <ele>741</ele>
        <time>2021-08-06T09:06:40.331Z</time>
      </trkpt>
      <trkpt lat="46.96905" lon="8.77271">
        <ele>741</ele>
        <time>2021-08-06T09:06:41.331Z</time>
      </trkpt>
      <trkpt lat="46.96905" lon="8.77271">
        <ele>741</ele>
        <time>2021-08-06T09:06:42.331Z</time>
      </trkpt>
      <trkpt lat="46.96906" lon="8.7727">
        <ele>742</ele>
        <time>2021-08-06T09:06:43.330Z</time>
      </trkpt>
      <trkpt lat="46.96907" lon="8.77269">
        <ele>742</ele>
        <time>2021-08-06T09:06:44.331Z</time>
      </trkpt>
      <trkpt lat="46.96908" lon="8.77268">
        <ele>743</ele>
        <time>2021-08-06T09:06:45.331Z</time>
      </trkpt>
      <trkpt lat="46.96908" lon="8.77268">
        <ele>743</ele>
        <time>2021-08-06T09:06:46.331Z</time>
      </trkpt>
      <trkpt lat="46.96909" lon="8.77268">
        <ele>743</ele>
        <time>2021-08-06T09:06:47.330Z</time>
      </trkpt>
      <trkpt lat="46.9691" lon="8.77267">
        <ele>744</ele>
        <time>2021-08-06T09:06:48.330Z</time>
      </trkpt>
      <trkpt lat="46.96911" lon="8.77266">
        <ele>744</ele>
        <time>2021-08-06T09:06:49.330Z</time>
      </trkpt>
      <trkpt lat="46.96912" lon="8.77265">
        <ele>744</ele>
        <time>2021-08-06T09:06:50.331Z</time>
      </trkpt>
      <trkpt lat="46.96913" lon="8.77264">
        <ele>744</ele>
        <time>2021-08-06T09:06:51.331Z</time>
      </trkpt>
      <trkpt lat="46.96913" lon="8.77264">
        <ele>745</ele>
        <time>2021-08-06T09:06:52.331Z</time>
      </trkpt>
      <trkpt lat="46.96914" lon="8.77263">
        <ele>745</ele>
        <time>2021-08-06T09:06:53.330Z</time>
      </trkpt>
      <trkpt lat="46.96915" lon="8.77262">
        <ele>745</ele>
        <time>2021-08-06T09:06:54.331Z</time>
      </trkpt>
      <trkpt lat="46.96915" lon="8.77261">
        <ele>745</ele>
        <time>2021-08-06T09:06:55.330Z</time>
      </trkpt>
      <trkpt lat="46.96916" lon="8.7726">
        <ele>745</ele>
        <time>2021-08-06T09:06:56.330Z</time>
      </trkpt>
      <trkpt lat="46.96916" lon="8.77259">
        <ele>746</ele>
        <time>2021-08-06T09:06:57.331Z</time>
      </trkpt>
      <trkpt lat="46.96917" lon="8.77258">
        <ele>746</ele>
        <time>2021-08-06T09:06:58.331Z</time>
      </trkpt>
      <trkpt lat="46.96918" lon="8.77257">
        <ele>746</ele>
        <time>2021-08-06T09:06:59.331Z</time>
      </trkpt>
      <trkpt lat="46.96918" lon="8.77256">
        <ele>746</ele>
        <time>2021-08-06T09:07:00.331Z</time>
      </trkpt>
      <trkpt lat="46.96919" lon="8.77255">
        <ele>747</ele>
        <time>2021-08-06T09:07:01.330Z</time>
      </trkpt>
      <trkpt lat="46.96919" lon="8.77254">
        <ele>747</ele>
        <time>2021-08-06T09:07:02.331Z</time>
      </trkpt>
      <trkpt lat="46.9692" lon="8.77253">
        <ele>747</ele>
        <time>2021-08-06T09:07:03.330Z</time>
      </trkpt>
      <trkpt lat="46.9692" lon="8.77253">
        <ele>748</ele>
        <time>2021-08-06T09:07:04.331Z</time>
      </trkpt>
      <trkpt lat="46.9692" lon="8.77253">
        <ele>748</ele>
        <time>2021-08-06T09:07:05.331Z</time>
      </trkpt>
      <trkpt lat="46.96921" lon="8.77253">
        <ele>752</ele>
        <time>2021-08-06T09:07:06.331Z</time>
      </trkpt>
      <trkpt lat="46.96921" lon="8.77253">
        <ele>753</ele>
        <time>2021-08-06T09:07:07.331Z</time>
      </trkpt>
      <trkpt lat="46.96921" lon="8.77252">
        <ele>754</ele>
        <time>2021-08-06T09:07:08.330Z</time>
      </trkpt>
      <trkpt lat="46.96921" lon="8.77252">
        <ele>755</ele>
        <time>2021-08-06T09:07:09.331Z</time>
      </trkpt>
      <trkpt lat="46.96921" lon="8.77251">
        <ele>755</ele>
        <time>2021-08-06T09:07:10.331Z</time>
      </trkpt>
      <trkpt lat="46.96922" lon="8.7725">
        <ele>756</ele>
        <time>2021-08-06T09:07:11.331Z</time>
      </trkpt>
      <trkpt lat="46.96922" lon="8.77249">
        <ele>756</ele>
        <time>2021-08-06T09:07:12.331Z</time>
      </trkpt>
      <trkpt lat="46.96923" lon="8.77248">
        <ele>757</ele>
        <time>2021-08-06T09:07:13.330Z</time>
      </trkpt>
      <trkpt lat="46.96924" lon="8.77246">
        <ele>757</ele>
        <time>2021-08-06T09:07:14.331Z</time>
      </trkpt>
      <trkpt lat="46.96924" lon="8.77245">
        <ele>757</ele>
        <time>2021-08-06T09:07:15.330Z</time>
      </trkpt>
      <trkpt lat="46.96924" lon="8.77244">
        <ele>758</ele>
        <time>2021-08-06T09:07:16.330Z</time>
      </trkpt>
      <trkpt lat="46.96925" lon="8.77243">
        <ele>758</ele>
        <time>2021-08-06T09:07:17.330Z</time>
      </trkpt>
      <trkpt lat="46.96926" lon="8.77241">
        <ele>758</ele>
        <time>2021-08-06T09:07:18.330Z</time>
      </trkpt>
      <trkpt lat="46.96926" lon="8.7724">
        <ele>759</ele>
        <time>2021-08-06T09:07:19.330Z</time>
      </trkpt>
      <trkpt lat="46.96926" lon="8.77239">
        <ele>759</ele>
        <time>2021-08-06T09:07:20.331Z</time>
      </trkpt>
      <trkpt lat="46.96926" lon="8.77238">
        <ele>759</ele>
        <time>2021-08-06T09:07:21.330Z</time>
      </trkpt>
      <trkpt lat="46.96927" lon="8.77237">
        <ele>759</ele>
        <time>2021-08-06T09:07:22.330Z</time>
      </trkpt>
      <trkpt lat="46.96927" lon="8.77236">
        <ele>759</ele>
        <time>2021-08-06T09:07:23.330Z</time>
      </trkpt>
      <trkpt lat="46.96927" lon="8.77235">
        <ele>759</ele>
        <time>2021-08-06T09:07:24.330Z</time>
      </trkpt>
      <trkpt lat="46.96927" lon="8.77233">
        <ele>759</ele>
        <time>2021-08-06T09:07:25.330Z</time>
      </trkpt>
      <trkpt lat="46.96927" lon="8.77232">
        <ele>759</ele>
        <time>2021-08-06T09:07:26.330Z</time>
      </trkpt>
      <trkpt lat="46.96927" lon="8.77231">
        <ele>759</ele>
        <time>2021-08-06T09:07:27.330Z</time>
      </trkpt>
      <trkpt lat="46.96928" lon="8.77229">
        <ele>759</ele>
        <time>2021-08-06T09:07:28.330Z</time>
      </trkpt>
      <trkpt lat="46.96929" lon="8.77228">
        <ele>758</ele>
        <time>2021-08-06T09:07:29.330Z</time>
      </trkpt>
      <trkpt lat="46.9693" lon="8.77227">
        <ele>758</ele>
        <time>2021-08-06T09:07:30.330Z</time>
      </trkpt>
      <trkpt lat="46.9693" lon="8.77225">
        <ele>758</ele>
        <time>2021-08-06T09:07:31.331Z</time>
      </trkpt>
      <trkpt lat="46.9693" lon="8.77224">
        <ele>758</ele>
        <time>2021-08-06T09:07:32.330Z</time>
      </trkpt>
      <trkpt lat="46.9693" lon="8.77222">
        <ele>757</ele>
        <time>2021-08-06T09:07:33.330Z</time>
      </trkpt>
      <trkpt lat="46.96929" lon="8.77221">
        <ele>757</ele>
        <time>2021-08-06T09:07:34.330Z</time>
      </trkpt>
      <trkpt lat="46.9693" lon="8.77219">
        <ele>757</ele>
        <time>2021-08-06T09:07:35.330Z</time>
      </trkpt>
      <trkpt lat="46.9693" lon="8.77218">
        <ele>756</ele>
        <time>2021-08-06T09:07:36.330Z</time>
      </trkpt>
      <trkpt lat="46.9693" lon="8.77218">
        <ele>756</ele>
        <time>2021-08-06T09:07:37.330Z</time>
      </trkpt>
      <trkpt lat="46.9693" lon="8.77217">
        <ele>756</ele>
        <time>2021-08-06T09:07:38.331Z</time>
      </trkpt>
      <trkpt lat="46.9693" lon="8.77215">
        <ele>755</ele>
        <time>2021-08-06T09:07:39.330Z</time>
      </trkpt>
      <trkpt lat="46.96931" lon="8.77214">
        <ele>755</ele>
        <time>2021-08-06T09:07:40.330Z</time>
      </trkpt>
      <trkpt lat="46.96931" lon="8.77213">
        <ele>755</ele>
        <time>2021-08-06T09:07:41.330Z</time>
      </trkpt>
      <trkpt lat="46.96932" lon="8.77212">
        <ele>755</ele>
        <time>2021-08-06T09:07:42.330Z</time>
      </trkpt>
      <trkpt lat="46.96932" lon="8.77211">
        <ele>754</ele>
        <time>2021-08-06T09:07:43.330Z</time>
      </trkpt>
      <trkpt lat="46.96932" lon="8.7721">
        <ele>754</ele>
        <time>2021-08-06T09:07:44.330Z</time>
      </trkpt>
      <trkpt lat="46.96932" lon="8.77209">
        <ele>755</ele>
        <time>2021-08-06T09:07:45.330Z</time>
      </trkpt>
      <trkpt lat="46.96933" lon="8.77208">
        <ele>755</ele>
        <time>2021-08-06T09:07:46.331Z</time>
      </trkpt>
      <trkpt lat="46.96934" lon="8.77206">
        <ele>756</ele>
        <time>2021-08-06T09:07:47.331Z</time>
      </trkpt>
      <trkpt lat="46.96935" lon="8.77205">
        <ele>756</ele>
        <time>2021-08-06T09:07:48.330Z</time>
      </trkpt>
      <trkpt lat="46.96935" lon="8.77204">
        <ele>756</ele>
        <time>2021-08-06T09:07:49.330Z</time>
      </trkpt>
      <trkpt lat="46.96936" lon="8.77204">
        <ele>757</ele>
        <time>2021-08-06T09:07:50.330Z</time>
      </trkpt>
      <trkpt lat="46.96937" lon="8.77203">
        <ele>757</ele>
        <time>2021-08-06T09:07:51.330Z</time>
      </trkpt>
      <trkpt lat="46.96938" lon="8.77201">
        <ele>757</ele>
        <time>2021-08-06T09:07:52.331Z</time>
      </trkpt>
      <trkpt lat="46.96938" lon="8.772">
        <ele>757</ele>
        <time>2021-08-06T09:07:53.330Z</time>
      </trkpt>
      <trkpt lat="46.96939" lon="8.77199">
        <ele>758</ele>
        <time>2021-08-06T09:07:54.331Z</time>
      </trkpt>
      <trkpt lat="46.96939" lon="8.77198">
        <ele>758</ele>
        <time>2021-08-06T09:07:55.331Z</time>
      </trkpt>
      <trkpt lat="46.9694" lon="8.77197">
        <ele>759</ele>
        <time>2021-08-06T09:07:56.331Z</time>
      </trkpt>
      <trkpt lat="46.9694" lon="8.77196">
        <ele>759</ele>
        <time>2021-08-06T09:07:57.331Z</time>
      </trkpt>
      <trkpt lat="46.9694" lon="8.77195">
        <ele>758</ele>
        <time>2021-08-06T09:07:58.331Z</time>
      </trkpt>
      <trkpt lat="46.9694" lon="8.77194">
        <ele>758</ele>
        <time>2021-08-06T09:07:59.331Z</time>
      </trkpt>
      <trkpt lat="46.9694" lon="8.77193">
        <ele>757</ele>
        <time>2021-08-06T09:08:00.330Z</time>
      </trkpt>
      <trkpt lat="46.9694" lon="8.77192">
        <ele>757</ele>
        <time>2021-08-06T09:08:01.331Z</time>
      </trkpt>
      <trkpt lat="46.9694" lon="8.77191">
        <ele>756</ele>
        <time>2021-08-06T09:08:02.331Z</time>
      </trkpt>
      <trkpt lat="46.9694" lon="8.77189">
        <ele>755</ele>
        <time>2021-08-06T09:08:03.331Z</time>
      </trkpt>
      <trkpt lat="46.9694" lon="8.77188">
        <ele>755</ele>
        <time>2021-08-06T09:08:04.331Z</time>
      </trkpt>
      <trkpt lat="46.9694" lon="8.77187">
        <ele>755</ele>
        <time>2021-08-06T09:08:05.331Z</time>
      </trkpt>
      <trkpt lat="46.96941" lon="8.77185">
        <ele>755</ele>
        <time>2021-08-06T09:08:06.330Z</time>
      </trkpt>
      <trkpt lat="46.96941" lon="8.77184">
        <ele>755</ele>
        <time>2021-08-06T09:08:07.331Z</time>
      </trkpt>
      <trkpt lat="46.96941" lon="8.77182">
        <ele>755</ele>
        <time>2021-08-06T09:08:08.331Z</time>
      </trkpt>
      <trkpt lat="46.96941" lon="8.77181">
        <ele>754</ele>
        <time>2021-08-06T09:08:09.331Z</time>
      </trkpt>
      <trkpt lat="46.96942" lon="8.7718">
        <ele>754</ele>
        <time>2021-08-06T09:08:10.330Z</time>
      </trkpt>
      <trkpt lat="46.96942" lon="8.77178">
        <ele>753</ele>
        <time>2021-08-06T09:08:11.330Z</time>
      </trkpt>
      <trkpt lat="46.96943" lon="8.77177">
        <ele>753</ele>
        <time>2021-08-06T09:08:12.330Z</time>
      </trkpt>
      <trkpt lat="46.96943" lon="8.77175">
        <ele>752</ele>
        <time>2021-08-06T09:08:13.330Z</time>
      </trkpt>
      <trkpt lat="46.96943" lon="8.77174">
        <ele>752</ele>
        <time>2021-08-06T09:08:14.330Z</time>
      </trkpt>
      <trkpt lat="46.96943" lon="8.77173">
        <ele>751</ele>
        <time>2021-08-06T09:08:15.331Z</time>
      </trkpt>
      <trkpt lat="46.96943" lon="8.77171">
        <ele>751</ele>
        <time>2021-08-06T09:08:16.331Z</time>
      </trkpt>
      <trkpt lat="46.96943" lon="8.7717">
        <ele>751</ele>
        <time>2021-08-06T09:08:17.331Z</time>
      </trkpt>
      <trkpt lat="46.96943" lon="8.77169">
        <ele>751</ele>
        <time>2021-08-06T09:08:18.330Z</time>
      </trkpt>
      <trkpt lat="46.96944" lon="8.77167">
        <ele>751</ele>
        <time>2021-08-06T09:08:19.331Z</time>
      </trkpt>
      <trkpt lat="46.96944" lon="8.77166">
        <ele>752</ele>
        <time>2021-08-06T09:08:20.331Z</time>
      </trkpt>
      <trkpt lat="46.96944" lon="8.77164">
        <ele>752</ele>
        <time>2021-08-06T09:08:21.331Z</time>
      </trkpt>
      <trkpt lat="46.96944" lon="8.77163">
        <ele>752</ele>
        <time>2021-08-06T09:08:22.330Z</time>
      </trkpt>
      <trkpt lat="46.96945" lon="8.77162">
        <ele>752</ele>
        <time>2021-08-06T09:08:23.331Z</time>
      </trkpt>
      <trkpt lat="46.96946" lon="8.77161">
        <ele>751</ele>
        <time>2021-08-06T09:08:24.331Z</time>
      </trkpt>
      <trkpt lat="46.96947" lon="8.7716">
        <ele>751</ele>
        <time>2021-08-06T09:08:25.331Z</time>
      </trkpt>
      <trkpt lat="46.96947" lon="8.77158">
        <ele>751</ele>
        <time>2021-08-06T09:08:26.331Z</time>
      </trkpt>
      <trkpt lat="46.96947" lon="8.77157">
        <ele>751</ele>
        <time>2021-08-06T09:08:27.330Z</time>
      </trkpt>
      <trkpt lat="46.96947" lon="8.77156">
        <ele>751</ele>
        <time>2021-08-06T09:08:28.331Z</time>
      </trkpt>
      <trkpt lat="46.96947" lon="8.77155">
        <ele>751</ele>
        <time>2021-08-06T09:08:29.331Z</time>
      </trkpt>
      <trkpt lat="46.96947" lon="8.77154">
        <ele>751</ele>
        <time>2021-08-06T09:08:30.331Z</time>
      </trkpt>
      <trkpt lat="46.96948" lon="8.77153">
        <ele>751</ele>
        <time>2021-08-06T09:08:31.331Z</time>
      </trkpt>
      <trkpt lat="46.96948" lon="8.77152">
        <ele>751</ele>
        <time>2021-08-06T09:08:32.331Z</time>
      </trkpt>
      <trkpt lat="46.96949" lon="8.7715">
        <ele>751</ele>
        <time>2021-08-06T09:08:33.330Z</time>
      </trkpt>
      <trkpt lat="46.96949" lon="8.77149">
        <ele>751</ele>
        <time>2021-08-06T09:08:34.331Z</time>
      </trkpt>
      <trkpt lat="46.9695" lon="8.77148">
        <ele>751</ele>
        <time>2021-08-06T09:08:35.331Z</time>
      </trkpt>
      <trkpt lat="46.9695" lon="8.77146">
        <ele>751</ele>
        <time>2021-08-06T09:08:36.330Z</time>
      </trkpt>
      <trkpt lat="46.96951" lon="8.77145">
        <ele>751</ele>
        <time>2021-08-06T09:08:37.331Z</time>
      </trkpt>
      <trkpt lat="46.96952" lon="8.77144">
        <ele>751</ele>
        <time>2021-08-06T09:08:38.330Z</time>
      </trkpt>
      <trkpt lat="46.96952" lon="8.77142">
        <ele>751</ele>
        <time>2021-08-06T09:08:39.330Z</time>
      </trkpt>
      <trkpt lat="46.96953" lon="8.77141">
        <ele>750</ele>
        <time>2021-08-06T09:08:40.331Z</time>
      </trkpt>
      <trkpt lat="46.96953" lon="8.7714">
        <ele>750</ele>
        <time>2021-08-06T09:08:41.330Z</time>
      </trkpt>
      <trkpt lat="46.96953" lon="8.77139">
        <ele>751</ele>
        <time>2021-08-06T09:08:42.330Z</time>
      </trkpt>
      <trkpt lat="46.96953" lon="8.77137">
        <ele>751</ele>
        <time>2021-08-06T09:08:43.330Z</time>
      </trkpt>
      <trkpt lat="46.96954" lon="8.77136">
        <ele>751</ele>
        <time>2021-08-06T09:08:44.331Z</time>
      </trkpt>
      <trkpt lat="46.96954" lon="8.77135">
        <ele>752</ele>
        <time>2021-08-06T09:08:45.331Z</time>
      </trkpt>
      <trkpt lat="46.96954" lon="8.77134">
        <ele>752</ele>
        <time>2021-08-06T09:08:46.330Z</time>
      </trkpt>
      <trkpt lat="46.96955" lon="8.77133">
        <ele>752</ele>
        <time>2021-08-06T09:08:47.330Z</time>
      </trkpt>
      <trkpt lat="46.96955" lon="8.77131">
        <ele>752</ele>
        <time>2021-08-06T09:08:48.331Z</time>
      </trkpt>
      <trkpt lat="46.96955" lon="8.7713">
        <ele>752</ele>
        <time>2021-08-06T09:08:49.330Z</time>
      </trkpt>
      <trkpt lat="46.96955" lon="8.77129">
        <ele>753</ele>
        <time>2021-08-06T09:08:50.330Z</time>
      </trkpt>
      <trkpt lat="46.96956" lon="8.77127">
        <ele>753</ele>
        <time>2021-08-06T09:08:51.331Z</time>
      </trkpt>
      <trkpt lat="46.96956" lon="8.77126">
        <ele>754</ele>
        <time>2021-08-06T09:08:52.331Z</time>
      </trkpt>
      <trkpt lat="46.96957" lon="8.77125">
        <ele>754</ele>
        <time>2021-08-06T09:08:53.330Z</time>
      </trkpt>
      <trkpt lat="46.96957" lon="8.77124">
        <ele>755</ele>
        <time>2021-08-06T09:08:54.331Z</time>
      </trkpt>
      <trkpt lat="46.96958" lon="8.77123">
        <ele>755</ele>
        <time>2021-08-06T09:08:55.331Z</time>
      </trkpt>
      <trkpt lat="46.96959" lon="8.77122">
        <ele>756</ele>
        <time>2021-08-06T09:08:56.331Z</time>
      </trkpt>
      <trkpt lat="46.96959" lon="8.77121">
        <ele>757</ele>
        <time>2021-08-06T09:08:57.330Z</time>
      </trkpt>
      <trkpt lat="46.9696" lon="8.7712">
        <ele>758</ele>
        <time>2021-08-06T09:08:58.331Z</time>
      </trkpt>
      <trkpt lat="46.9696" lon="8.77118">
        <ele>758</ele>
        <time>2021-08-06T09:08:59.331Z</time>
      </trkpt>
      <trkpt lat="46.96961" lon="8.77117">
        <ele>758</ele>
        <time>2021-08-06T09:09:00.330Z</time>
      </trkpt>
      <trkpt lat="46.96961" lon="8.77116">
        <ele>758</ele>
        <time>2021-08-06T09:09:01.331Z</time>
      </trkpt>
      <trkpt lat="46.96962" lon="8.77114">
        <ele>758</ele>
        <time>2021-08-06T09:09:02.330Z</time>
      </trkpt>
      <trkpt lat="46.96962" lon="8.77113">
        <ele>758</ele>
        <time>2021-08-06T09:09:03.331Z</time>
      </trkpt>
      <trkpt lat="46.96962" lon="8.77112">
        <ele>758</ele>
        <time>2021-08-06T09:09:04.331Z</time>
      </trkpt>
      <trkpt lat="46.96963" lon="8.77111">
        <ele>758</ele>
        <time>2021-08-06T09:09:05.331Z</time>
      </trkpt>
      <trkpt lat="46.96963" lon="8.77109">
        <ele>758</ele>
        <time>2021-08-06T09:09:06.331Z</time>
      </trkpt>
      <trkpt lat="46.96963" lon="8.77108">
        <ele>758</ele>
        <time>2021-08-06T09:09:07.330Z</time>
      </trkpt>
      <trkpt lat="46.96963" lon="8.77106">
        <ele>758</ele>
        <time>2021-08-06T09:09:08.330Z</time>
      </trkpt>
      <trkpt lat="46.96963" lon="8.77104">
        <ele>758</ele>
        <time>2021-08-06T09:09:09.330Z</time>
      </trkpt>
      <trkpt lat="46.96963" lon="8.77103">
        <ele>758</ele>
        <time>2021-08-06T09:09:10.331Z</time>
      </trkpt>
      <trkpt lat="46.96963" lon="8.77102">
        <ele>758</ele>
        <time>2021-08-06T09:09:11.331Z</time>
      </trkpt>
      <trkpt lat="46.96963" lon="8.771">
        <ele>758</ele>
        <time>2021-08-06T09:09:12.331Z</time>
      </trkpt>
      <trkpt lat="46.96963" lon="8.77099">
        <ele>758</ele>
        <time>2021-08-06T09:09:13.330Z</time>
      </trkpt>
      <trkpt lat="46.96964" lon="8.77097">
        <ele>758</ele>
        <time>2021-08-06T09:09:14.331Z</time>
      </trkpt>
      <trkpt lat="46.96964" lon="8.77096">
        <ele>758</ele>
        <time>2021-08-06T09:09:15.331Z</time>
      </trkpt>
      <trkpt lat="46.96963" lon="8.77095">
        <ele>757</ele>
        <time>2021-08-06T09:09:16.331Z</time>
      </trkpt>
      <trkpt lat="46.96963" lon="8.77094">
        <ele>757</ele>
        <time>2021-08-06T09:09:17.330Z</time>
      </trkpt>
      <trkpt lat="46.96963" lon="8.77092">
        <ele>757</ele>
        <time>2021-08-06T09:09:18.331Z</time>
      </trkpt>
      <trkpt lat="46.96963" lon="8.77091">
        <ele>757</ele>
        <time>2021-08-06T09:09:19.331Z</time>
      </trkpt>
      <trkpt lat="46.96962" lon="8.7709">
        <ele>757</ele>
        <time>2021-08-06T09:09:20.331Z</time>
      </trkpt>
      <trkpt lat="46.96962" lon="8.77088">
        <ele>757</ele>
        <time>2021-08-06T09:09:21.330Z</time>
      </trkpt>
      <trkpt lat="46.96961" lon="8.77087">
        <ele>757</ele>
        <time>2021-08-06T09:09:22.331Z</time>
      </trkpt>
      <trkpt lat="46.9696" lon="8.77085">
        <ele>757</ele>
        <time>2021-08-06T09:09:23.331Z</time>
      </trkpt>
      <trkpt lat="46.96959" lon="8.77084">
        <ele>757</ele>
        <time>2021-08-06T09:09:24.330Z</time>
      </trkpt>
      <trkpt lat="46.96959" lon="8.77082">
        <ele>757</ele>
        <time>2021-08-06T09:09:25.330Z</time>
      </trkpt>
      <trkpt lat="46.96958" lon="8.7708">
        <ele>756</ele>
        <time>2021-08-06T09:09:26.330Z</time>
      </trkpt>
      <trkpt lat="46.96957" lon="8.77079">
        <ele>756</ele>
        <time>2021-08-06T09:09:27.330Z</time>
      </trkpt>
      <trkpt lat="46.96957" lon="8.77078">
        <ele>755</ele>
        <time>2021-08-06T09:09:28.331Z</time>
      </trkpt>
      <trkpt lat="46.96956" lon="8.77077">
        <ele>755</ele>
        <time>2021-08-06T09:09:29.331Z</time>
      </trkpt>
      <trkpt lat="46.96956" lon="8.77075">
        <ele>755</ele>
        <time>2021-08-06T09:09:30.331Z</time>
      </trkpt>
      <trkpt lat="46.96956" lon="8.77074">
        <ele>755</ele>
        <time>2021-08-06T09:09:31.330Z</time>
      </trkpt>
      <trkpt lat="46.96955" lon="8.77073">
        <ele>755</ele>
        <time>2021-08-06T09:09:32.331Z</time>
      </trkpt>
      <trkpt lat="46.96954" lon="8.77072">
        <ele>755</ele>
        <time>2021-08-06T09:09:33.331Z</time>
      </trkpt>
      <trkpt lat="46.96954" lon="8.77071">
        <ele>754</ele>
        <time>2021-08-06T09:09:34.331Z</time>
      </trkpt>
      <trkpt lat="46.96953" lon="8.7707">
        <ele>754</ele>
        <time>2021-08-06T09:09:35.331Z</time>
      </trkpt>
      <trkpt lat="46.96953" lon="8.77069">
        <ele>754</ele>
        <time>2021-08-06T09:09:36.331Z</time>
      </trkpt>
      <trkpt lat="46.96952" lon="8.77068">
        <ele>753</ele>
        <time>2021-08-06T09:09:37.330Z</time>
      </trkpt>
      <trkpt lat="46.96952" lon="8.77067">
        <ele>753</ele>
        <time>2021-08-06T09:09:38.330Z</time>
      </trkpt>
      <trkpt lat="46.96952" lon="8.77065">
        <ele>753</ele>
        <time>2021-08-06T09:09:39.330Z</time>
      </trkpt>
      <trkpt lat="46.96951" lon="8.77064">
        <ele>752</ele>
        <time>2021-08-06T09:09:40.330Z</time>
      </trkpt>
      <trkpt lat="46.96951" lon="8.77063">
        <ele>752</ele>
        <time>2021-08-06T09:09:41.330Z</time>
      </trkpt>
      <trkpt lat="46.9695" lon="8.77062">
        <ele>753</ele>
        <time>2021-08-06T09:09:42.331Z</time>
      </trkpt>
      <trkpt lat="46.9695" lon="8.77061">
        <ele>753</ele>
        <time>2021-08-06T09:09:43.330Z</time>
      </trkpt>
      <trkpt lat="46.96949" lon="8.77059">
        <ele>753</ele>
        <time>2021-08-06T09:09:44.331Z</time>
      </trkpt>
      <trkpt lat="46.96948" lon="8.77058">
        <ele>753</ele>
        <time>2021-08-06T09:09:45.331Z</time>
      </trkpt>
      <trkpt lat="46.96947" lon="8.77056">
        <ele>753</ele>
        <time>2021-08-06T09:09:46.330Z</time>
      </trkpt>
      <trkpt lat="46.96947" lon="8.77055">
        <ele>754</ele>
        <time>2021-08-06T09:09:47.331Z</time>
      </trkpt>
      <trkpt lat="46.96946" lon="8.77054">
        <ele>754</ele>
        <time>2021-08-06T09:09:48.330Z</time>
      </trkpt>
      <trkpt lat="46.96946" lon="8.77053">
        <ele>754</ele>
        <time>2021-08-06T09:09:49.331Z</time>
      </trkpt>
      <trkpt lat="46.96946" lon="8.77052">
        <ele>755</ele>
        <time>2021-08-06T09:09:50.330Z</time>
      </trkpt>
      <trkpt lat="46.96946" lon="8.77051">
        <ele>755</ele>
        <time>2021-08-06T09:09:51.330Z</time>
      </trkpt>
      <trkpt lat="46.96945" lon="8.7705">
        <ele>755</ele>
        <time>2021-08-06T09:09:52.331Z</time>
      </trkpt>
      <trkpt lat="46.96945" lon="8.77048">
        <ele>756</ele>
        <time>2021-08-06T09:09:53.331Z</time>
      </trkpt>
      <trkpt lat="46.96944" lon="8.77047">
        <ele>756</ele>
        <time>2021-08-06T09:09:54.331Z</time>
      </trkpt>
      <trkpt lat="46.96944" lon="8.77045">
        <ele>757</ele>
        <time>2021-08-06T09:09:55.331Z</time>
      </trkpt>
      <trkpt lat="46.96943" lon="8.77044">
        <ele>757</ele>
        <time>2021-08-06T09:09:56.331Z</time>
      </trkpt>
      <trkpt lat="46.96942" lon="8.77043">
        <ele>758</ele>
        <time>2021-08-06T09:09:57.331Z</time>
      </trkpt>
      <trkpt lat="46.96942" lon="8.77042">
        <ele>758</ele>
        <time>2021-08-06T09:09:58.330Z</time>
      </trkpt>
      <trkpt lat="46.96941" lon="8.77041">
        <ele>758</ele>
        <time>2021-08-06T09:09:59.331Z</time>
      </trkpt>
      <trkpt lat="46.96941" lon="8.77041">
        <ele>758</ele>
        <time>2021-08-06T09:10:00.330Z</time>
      </trkpt>
      <trkpt lat="46.96941" lon="8.7704">
        <ele>758</ele>
        <time>2021-08-06T09:10:01.331Z</time>
      </trkpt>
      <trkpt lat="46.96941" lon="8.77039">
        <ele>758</ele>
        <time>2021-08-06T09:10:02.331Z</time>
      </trkpt>
      <trkpt lat="46.96941" lon="8.77038">
        <ele>758</ele>
        <time>2021-08-06T09:10:03.330Z</time>
      </trkpt>
      <trkpt lat="46.9694" lon="8.77036">
        <ele>759</ele>
        <time>2021-08-06T09:10:04.331Z</time>
      </trkpt>
      <trkpt lat="46.9694" lon="8.77035">
        <ele>759</ele>
        <time>2021-08-06T09:10:05.331Z</time>
      </trkpt>
      <trkpt lat="46.9694" lon="8.77034">
        <ele>759</ele>
        <time>2021-08-06T09:10:06.330Z</time>
      </trkpt>
      <trkpt lat="46.96939" lon="8.77033">
        <ele>760</ele>
        <time>2021-08-06T09:10:07.330Z</time>
      </trkpt>
      <trkpt lat="46.96939" lon="8.77032">
        <ele>760</ele>
        <time>2021-08-06T09:10:08.331Z</time>
      </trkpt>
      <trkpt lat="46.96939" lon="8.77031">
        <ele>759</ele>
        <time>2021-08-06T09:10:09.331Z</time>
      </trkpt>
      <trkpt lat="46.96938" lon="8.77029">
        <ele>759</ele>
        <time>2021-08-06T09:10:10.330Z</time>
      </trkpt>
      <trkpt lat="46.96938" lon="8.77028">
        <ele>759</ele>
        <time>2021-08-06T09:10:11.330Z</time>
      </trkpt>
      <trkpt lat="46.96938" lon="8.77027">
        <ele>759</ele>
        <time>2021-08-06T09:10:12.331Z</time>
      </trkpt>
      <trkpt lat="46.96938" lon="8.77026">
        <ele>759</ele>
        <time>2021-08-06T09:10:13.330Z</time>
      </trkpt>
      <trkpt lat="46.96938" lon="8.77025">
        <ele>759</ele>
        <time>2021-08-06T09:10:14.330Z</time>
      </trkpt>
      <trkpt lat="46.96937" lon="8.77024">
        <ele>760</ele>
        <time>2021-08-06T09:10:15.330Z</time>
      </trkpt>
      <trkpt lat="46.96936" lon="8.77023">
        <ele>760</ele>
        <time>2021-08-06T09:10:16.330Z</time>
      </trkpt>
      <trkpt lat="46.96936" lon="8.77022">
        <ele>761</ele>
        <time>2021-08-06T09:10:17.331Z</time>
      </trkpt>
      <trkpt lat="46.96935" lon="8.77021">
        <ele>761</ele>
        <time>2021-08-06T09:10:18.331Z</time>
      </trkpt>
      <trkpt lat="46.96935" lon="8.7702">
        <ele>762</ele>
        <time>2021-08-06T09:10:19.330Z</time>
      </trkpt>
      <trkpt lat="46.96934" lon="8.77018">
        <ele>762</ele>
        <time>2021-08-06T09:10:20.331Z</time>
      </trkpt>
      <trkpt lat="46.96934" lon="8.77017">
        <ele>763</ele>
        <time>2021-08-06T09:10:21.331Z</time>
      </trkpt>
      <trkpt lat="46.96934" lon="8.77016">
        <ele>763</ele>
        <time>2021-08-06T09:10:22.331Z</time>
      </trkpt>
      <trkpt lat="46.96933" lon="8.77014">
        <ele>763</ele>
        <time>2021-08-06T09:10:23.330Z</time>
      </trkpt>
      <trkpt lat="46.96933" lon="8.77013">
        <ele>763</ele>
        <time>2021-08-06T09:10:24.330Z</time>
      </trkpt>
      <trkpt lat="46.96932" lon="8.77012">
        <ele>764</ele>
        <time>2021-08-06T09:10:25.330Z</time>
      </trkpt>
      <trkpt lat="46.96932" lon="8.77011">
        <ele>764</ele>
        <time>2021-08-06T09:10:26.330Z</time>
      </trkpt>
      <trkpt lat="46.96932" lon="8.7701">
        <ele>763</ele>
        <time>2021-08-06T09:10:27.330Z</time>
      </trkpt>
      <trkpt lat="46.96931" lon="8.77009">
        <ele>763</ele>
        <time>2021-08-06T09:10:28.330Z</time>
      </trkpt>
      <trkpt lat="46.96931" lon="8.77008">
        <ele>762</ele>
        <time>2021-08-06T09:10:29.331Z</time>
      </trkpt>
      <trkpt lat="46.96931" lon="8.77007">
        <ele>763</ele>
        <time>2021-08-06T09:10:30.331Z</time>
      </trkpt>
      <trkpt lat="46.9693" lon="8.77006">
        <ele>763</ele>
        <time>2021-08-06T09:10:31.330Z</time>
      </trkpt>
      <trkpt lat="46.96929" lon="8.77005">
        <ele>764</ele>
        <time>2021-08-06T09:10:32.331Z</time>
      </trkpt>
      <trkpt lat="46.96928" lon="8.77003">
        <ele>764</ele>
        <time>2021-08-06T09:10:33.331Z</time>
      </trkpt>
      <trkpt lat="46.96928" lon="8.77002">
        <ele>765</ele>
        <time>2021-08-06T09:10:34.330Z</time>
      </trkpt>
      <trkpt lat="46.96927" lon="8.77001">
        <ele>765</ele>
        <time>2021-08-06T09:10:35.330Z</time>
      </trkpt>
      <trkpt lat="46.96927" lon="8.77">
        <ele>765</ele>
        <time>2021-08-06T09:10:36.331Z</time>
      </trkpt>
      <trkpt lat="46.96927" lon="8.76999">
        <ele>765</ele>
        <time>2021-08-06T09:10:37.331Z</time>
      </trkpt>
      <trkpt lat="46.96926" lon="8.76998">
        <ele>765</ele>
        <time>2021-08-06T09:10:38.330Z</time>
      </trkpt>
      <trkpt lat="46.96926" lon="8.76997">
        <ele>766</ele>
        <time>2021-08-06T09:10:39.330Z</time>
      </trkpt>
      <trkpt lat="46.96925" lon="8.76996">
        <ele>766</ele>
        <time>2021-08-06T09:10:40.330Z</time>
      </trkpt>
      <trkpt lat="46.96925" lon="8.76994">
        <ele>766</ele>
        <time>2021-08-06T09:10:41.330Z</time>
      </trkpt>
      <trkpt lat="46.96924" lon="8.76993">
        <ele>767</ele>
        <time>2021-08-06T09:10:42.330Z</time>
      </trkpt>
      <trkpt lat="46.96924" lon="8.76992">
        <ele>767</ele>
        <time>2021-08-06T09:10:43.330Z</time>
      </trkpt>
      <trkpt lat="46.96923" lon="8.76991">
        <ele>767</ele>
        <time>2021-08-06T09:10:44.330Z</time>
      </trkpt>
      <trkpt lat="46.96923" lon="8.76989">
        <ele>767</ele>
        <time>2021-08-06T09:10:45.330Z</time>
      </trkpt>
      <trkpt lat="46.96922" lon="8.76988">
        <ele>768</ele>
        <time>2021-08-06T09:10:46.331Z</time>
      </trkpt>
      <trkpt lat="46.96922" lon="8.76987">
        <ele>768</ele>
        <time>2021-08-06T09:10:47.330Z</time>
      </trkpt>
      <trkpt lat="46.96921" lon="8.76986">
        <ele>768</ele>
        <time>2021-08-06T09:10:48.331Z</time>
      </trkpt>
      <trkpt lat="46.96921" lon="8.76984">
        <ele>768</ele>
        <time>2021-08-06T09:10:49.330Z</time>
      </trkpt>
      <trkpt lat="46.9692" lon="8.76983">
        <ele>768</ele>
        <time>2021-08-06T09:10:50.331Z</time>
      </trkpt>
      <trkpt lat="46.9692" lon="8.76982">
        <ele>768</ele>
        <time>2021-08-06T09:10:51.330Z</time>
      </trkpt>
      <trkpt lat="46.96919" lon="8.76981">
        <ele>768</ele>
        <time>2021-08-06T09:10:52.331Z</time>
      </trkpt>
      <trkpt lat="46.96918" lon="8.7698">
        <ele>768</ele>
        <time>2021-08-06T09:10:53.331Z</time>
      </trkpt>
      <trkpt lat="46.96918" lon="8.76978">
        <ele>768</ele>
        <time>2021-08-06T09:10:54.331Z</time>
      </trkpt>
      <trkpt lat="46.96917" lon="8.76977">
        <ele>768</ele>
        <time>2021-08-06T09:10:55.330Z</time>
      </trkpt>
      <trkpt lat="46.96916" lon="8.76976">
        <ele>769</ele>
        <time>2021-08-06T09:10:56.331Z</time>
      </trkpt>
      <trkpt lat="46.96916" lon="8.76975">
        <ele>769</ele>
        <time>2021-08-06T09:10:57.330Z</time>
      </trkpt>
      <trkpt lat="46.96915" lon="8.76973">
        <ele>769</ele>
        <time>2021-08-06T09:10:58.330Z</time>
      </trkpt>
      <trkpt lat="46.96915" lon="8.76972">
        <ele>769</ele>
        <time>2021-08-06T09:10:59.330Z</time>
      </trkpt>
      <trkpt lat="46.96914" lon="8.76971">
        <ele>769</ele>
        <time>2021-08-06T09:11:00.331Z</time>
      </trkpt>
      <trkpt lat="46.96913" lon="8.7697">
        <ele>769</ele>
        <time>2021-08-06T09:11:01.331Z</time>
      </trkpt>
      <trkpt lat="46.96913" lon="8.76969">
        <ele>769</ele>
        <time>2021-08-06T09:11:02.330Z</time>
      </trkpt>
      <trkpt lat="46.96912" lon="8.76968">
        <ele>769</ele>
        <time>2021-08-06T09:11:03.330Z</time>
      </trkpt>
      <trkpt lat="46.96912" lon="8.76966">
        <ele>769</ele>
        <time>2021-08-06T09:11:04.330Z</time>
      </trkpt>
      <trkpt lat="46.96911" lon="8.76965">
        <ele>769</ele>
        <time>2021-08-06T09:11:05.331Z</time>
      </trkpt>
      <trkpt lat="46.9691" lon="8.76964">
        <ele>769</ele>
        <time>2021-08-06T09:11:06.331Z</time>
      </trkpt>
      <trkpt lat="46.9691" lon="8.76963">
        <ele>769</ele>
        <time>2021-08-06T09:11:07.331Z</time>
      </trkpt>
      <trkpt lat="46.96909" lon="8.76962">
        <ele>770</ele>
        <time>2021-08-06T09:11:08.331Z</time>
      </trkpt>
      <trkpt lat="46.96908" lon="8.76962">
        <ele>770</ele>
        <time>2021-08-06T09:11:09.331Z</time>
      </trkpt>
      <trkpt lat="46.96907" lon="8.76961">
        <ele>770</ele>
        <time>2021-08-06T09:11:10.330Z</time>
      </trkpt>
      <trkpt lat="46.96907" lon="8.7696">
        <ele>770</ele>
        <time>2021-08-06T09:11:11.331Z</time>
      </trkpt>
      <trkpt lat="46.96907" lon="8.76958">
        <ele>770</ele>
        <time>2021-08-06T09:11:12.330Z</time>
      </trkpt>
      <trkpt lat="46.96906" lon="8.76958">
        <ele>770</ele>
        <time>2021-08-06T09:11:13.331Z</time>
      </trkpt>
      <trkpt lat="46.96905" lon="8.76957">
        <ele>770</ele>
        <time>2021-08-06T09:11:14.330Z</time>
      </trkpt>
      <trkpt lat="46.96905" lon="8.76956">
        <ele>770</ele>
        <time>2021-08-06T09:11:15.331Z</time>
      </trkpt>
      <trkpt lat="46.96904" lon="8.76955">
        <ele>771</ele>
        <time>2021-08-06T09:11:16.330Z</time>
      </trkpt>
      <trkpt lat="46.96903" lon="8.76954">
        <ele>772</ele>
        <time>2021-08-06T09:11:17.330Z</time>
      </trkpt>
      <trkpt lat="46.96902" lon="8.76953">
        <ele>773</ele>
        <time>2021-08-06T09:11:18.331Z</time>
      </trkpt>
      <trkpt lat="46.96902" lon="8.76952">
        <ele>773</ele>
        <time>2021-08-06T09:11:19.331Z</time>
      </trkpt>
      <trkpt lat="46.96901" lon="8.76951">
        <ele>774</ele>
        <time>2021-08-06T09:11:20.331Z</time>
      </trkpt>
      <trkpt lat="46.969" lon="8.7695">
        <ele>774</ele>
        <time>2021-08-06T09:11:21.330Z</time>
      </trkpt>
      <trkpt lat="46.969" lon="8.7695">
        <ele>773</ele>
        <time>2021-08-06T09:11:22.330Z</time>
      </trkpt>
      <trkpt lat="46.96899" lon="8.76949">
        <ele>773</ele>
        <time>2021-08-06T09:11:23.331Z</time>
      </trkpt>
      <trkpt lat="46.96899" lon="8.76948">
        <ele>773</ele>
        <time>2021-08-06T09:11:24.330Z</time>
      </trkpt>
      <trkpt lat="46.96898" lon="8.76947">
        <ele>773</ele>
        <time>2021-08-06T09:11:25.331Z</time>
      </trkpt>
      <trkpt lat="46.96898" lon="8.76946">
        <ele>773</ele>
        <time>2021-08-06T09:11:26.331Z</time>
      </trkpt>
      <trkpt lat="46.96897" lon="8.76944">
        <ele>773</ele>
        <time>2021-08-06T09:11:27.330Z</time>
      </trkpt>
      <trkpt lat="46.96896" lon="8.76943">
        <ele>773</ele>
        <time>2021-08-06T09:11:28.330Z</time>
      </trkpt>
      <trkpt lat="46.96896" lon="8.76943">
        <ele>773</ele>
        <time>2021-08-06T09:11:29.331Z</time>
      </trkpt>
      <trkpt lat="46.96895" lon="8.76942">
        <ele>773</ele>
        <time>2021-08-06T09:11:30.330Z</time>
      </trkpt>
      <trkpt lat="46.96894" lon="8.76941">
        <ele>772</ele>
        <time>2021-08-06T09:11:31.331Z</time>
      </trkpt>
      <trkpt lat="46.96893" lon="8.7694">
        <ele>772</ele>
        <time>2021-08-06T09:11:32.331Z</time>
      </trkpt>
      <trkpt lat="46.96892" lon="8.76939">
        <ele>772</ele>
        <time>2021-08-06T09:11:33.331Z</time>
      </trkpt>
      <trkpt lat="46.96892" lon="8.76938">
        <ele>772</ele>
        <time>2021-08-06T09:11:34.331Z</time>
      </trkpt>
      <trkpt lat="46.96891" lon="8.76937">
        <ele>773</ele>
        <time>2021-08-06T09:11:35.331Z</time>
      </trkpt>
      <trkpt lat="46.96891" lon="8.76936">
        <ele>773</ele>
        <time>2021-08-06T09:11:36.330Z</time>
      </trkpt>
      <trkpt lat="46.9689" lon="8.76935">
        <ele>773</ele>
        <time>2021-08-06T09:11:37.331Z</time>
      </trkpt>
      <trkpt lat="46.96889" lon="8.76934">
        <ele>773</ele>
        <time>2021-08-06T09:11:38.330Z</time>
      </trkpt>
      <trkpt lat="46.96888" lon="8.76932">
        <ele>774</ele>
        <time>2021-08-06T09:11:39.330Z</time>
      </trkpt>
      <trkpt lat="46.96887" lon="8.76931">
        <ele>774</ele>
        <time>2021-08-06T09:11:40.330Z</time>
      </trkpt>
      <trkpt lat="46.96887" lon="8.7693">
        <ele>774</ele>
        <time>2021-08-06T09:11:41.331Z</time>
      </trkpt>
      <trkpt lat="46.96886" lon="8.76928">
        <ele>775</ele>
        <time>2021-08-06T09:11:42.331Z</time>
      </trkpt>
      <trkpt lat="46.96885" lon="8.76927">
        <ele>775</ele>
        <time>2021-08-06T09:11:43.330Z</time>
      </trkpt>
      <trkpt lat="46.96885" lon="8.76926">
        <ele>776</ele>
        <time>2021-08-06T09:11:44.330Z</time>
      </trkpt>
      <trkpt lat="46.96884" lon="8.76926">
        <ele>776</ele>
        <time>2021-08-06T09:11:45.331Z</time>
      </trkpt>
      <trkpt lat="46.96883" lon="8.76925">
        <ele>776</ele>
        <time>2021-08-06T09:11:46.330Z</time>
      </trkpt>
      <trkpt lat="46.96883" lon="8.76924">
        <ele>776</ele>
        <time>2021-08-06T09:11:47.331Z</time>
      </trkpt>
      <trkpt lat="46.96882" lon="8.76923">
        <ele>776</ele>
        <time>2021-08-06T09:11:48.330Z</time>
      </trkpt>
      <trkpt lat="46.96881" lon="8.76922">
        <ele>776</ele>
        <time>2021-08-06T09:11:49.330Z</time>
      </trkpt>
      <trkpt lat="46.9688" lon="8.76921">
        <ele>776</ele>
        <time>2021-08-06T09:11:50.330Z</time>
      </trkpt>
      <trkpt lat="46.9688" lon="8.7692">
        <ele>777</ele>
        <time>2021-08-06T09:11:51.331Z</time>
      </trkpt>
      <trkpt lat="46.96879" lon="8.76919">
        <ele>777</ele>
        <time>2021-08-06T09:11:52.330Z</time>
      </trkpt>
      <trkpt lat="46.96878" lon="8.76918">
        <ele>777</ele>
        <time>2021-08-06T09:11:53.330Z</time>
      </trkpt>
      <trkpt lat="46.96877" lon="8.76917">
        <ele>778</ele>
        <time>2021-08-06T09:11:54.330Z</time>
      </trkpt>
      <trkpt lat="46.96876" lon="8.76916">
        <ele>778</ele>
        <time>2021-08-06T09:11:55.330Z</time>
      </trkpt>
      <trkpt lat="46.96876" lon="8.76915">
        <ele>778</ele>
        <time>2021-08-06T09:11:56.330Z</time>
      </trkpt>
      <trkpt lat="46.96875" lon="8.76914">
        <ele>778</ele>
        <time>2021-08-06T09:11:57.330Z</time>
      </trkpt>
      <trkpt lat="46.96875" lon="8.76913">
        <ele>778</ele>
        <time>2021-08-06T09:11:58.330Z</time>
      </trkpt>
      <trkpt lat="46.96874" lon="8.76912">
        <ele>778</ele>
        <time>2021-08-06T09:11:59.330Z</time>
      </trkpt>
      <trkpt lat="46.96873" lon="8.76911">
        <ele>778</ele>
        <time>2021-08-06T09:12:00.330Z</time>
      </trkpt>
      <trkpt lat="46.96872" lon="8.7691">
        <ele>778</ele>
        <time>2021-08-06T09:12:01.330Z</time>
      </trkpt>
      <trkpt lat="46.96872" lon="8.76909">
        <ele>778</ele>
        <time>2021-08-06T09:12:02.330Z</time>
      </trkpt>
      <trkpt lat="46.96871" lon="8.76908">
        <ele>778</ele>
        <time>2021-08-06T09:12:03.330Z</time>
      </trkpt>
      <trkpt lat="46.9687" lon="8.76907">
        <ele>779</ele>
        <time>2021-08-06T09:12:04.330Z</time>
      </trkpt>
      <trkpt lat="46.96869" lon="8.76905">
        <ele>779</ele>
        <time>2021-08-06T09:12:05.330Z</time>
      </trkpt>
      <trkpt lat="46.96869" lon="8.76904">
        <ele>780</ele>
        <time>2021-08-06T09:12:06.330Z</time>
      </trkpt>
      <trkpt lat="46.96869" lon="8.76903">
        <ele>780</ele>
        <time>2021-08-06T09:12:07.330Z</time>
      </trkpt>
      <trkpt lat="46.96868" lon="8.76902">
        <ele>781</ele>
        <time>2021-08-06T09:12:08.331Z</time>
      </trkpt>
      <trkpt lat="46.96868" lon="8.76902">
        <ele>781</ele>
        <time>2021-08-06T09:12:09.330Z</time>
      </trkpt>
      <trkpt lat="46.96868" lon="8.76902">
        <ele>781</ele>
        <time>2021-08-06T09:12:10.330Z</time>
      </trkpt>
      <trkpt lat="46.96868" lon="8.76903">
        <ele>780</ele>
        <time>2021-08-06T09:12:11.330Z</time>
      </trkpt>
      <trkpt lat="46.96867" lon="8.76907">
        <ele>778</ele>
        <time>2021-08-06T09:12:12.330Z</time>
      </trkpt>
      <trkpt lat="46.96867" lon="8.76907">
        <ele>778</ele>
        <time>2021-08-06T09:12:13.331Z</time>
      </trkpt>
      <trkpt lat="46.96867" lon="8.76907">
        <ele>777</ele>
        <time>2021-08-06T09:12:14.330Z</time>
      </trkpt>
      <trkpt lat="46.96866" lon="8.76906">
        <ele>777</ele>
        <time>2021-08-06T09:12:15.330Z</time>
      </trkpt>
      <trkpt lat="46.96866" lon="8.76904">
        <ele>777</ele>
        <time>2021-08-06T09:12:16.331Z</time>
      </trkpt>
      <trkpt lat="46.96866" lon="8.76903">
        <ele>777</ele>
        <time>2021-08-06T09:12:17.330Z</time>
      </trkpt>
      <trkpt lat="46.96865" lon="8.76902">
        <ele>777</ele>
        <time>2021-08-06T09:12:18.330Z</time>
      </trkpt>
      <trkpt lat="46.96864" lon="8.76901">
        <ele>777</ele>
        <time>2021-08-06T09:12:19.330Z</time>
      </trkpt>
      <trkpt lat="46.96864" lon="8.769">
        <ele>777</ele>
        <time>2021-08-06T09:12:20.331Z</time>
      </trkpt>
      <trkpt lat="46.96863" lon="8.76899">
        <ele>776</ele>
        <time>2021-08-06T09:12:21.330Z</time>
      </trkpt>
      <trkpt lat="46.96863" lon="8.76898">
        <ele>776</ele>
        <time>2021-08-06T09:12:22.331Z</time>
      </trkpt>
      <trkpt lat="46.96862" lon="8.76896">
        <ele>776</ele>
        <time>2021-08-06T09:12:23.331Z</time>
      </trkpt>
      <trkpt lat="46.96861" lon="8.76896">
        <ele>776</ele>
        <time>2021-08-06T09:12:24.331Z</time>
      </trkpt>
      <trkpt lat="46.9686" lon="8.76895">
        <ele>776</ele>
        <time>2021-08-06T09:12:25.331Z</time>
      </trkpt>
      <trkpt lat="46.96859" lon="8.76894">
        <ele>776</ele>
        <time>2021-08-06T09:12:26.331Z</time>
      </trkpt>
      <trkpt lat="46.96858" lon="8.76893">
        <ele>776</ele>
        <time>2021-08-06T09:12:27.331Z</time>
      </trkpt>
      <trkpt lat="46.96858" lon="8.76892">
        <ele>777</ele>
        <time>2021-08-06T09:12:28.331Z</time>
      </trkpt>
      <trkpt lat="46.96858" lon="8.76892">
        <ele>778</ele>
        <time>2021-08-06T09:12:29.330Z</time>
      </trkpt>
      <trkpt lat="46.96857" lon="8.76891">
        <ele>778</ele>
        <time>2021-08-06T09:12:30.331Z</time>
      </trkpt>
      <trkpt lat="46.96857" lon="8.7689">
        <ele>777</ele>
        <time>2021-08-06T09:12:31.331Z</time>
      </trkpt>
      <trkpt lat="46.96856" lon="8.76888">
        <ele>777</ele>
        <time>2021-08-06T09:12:32.330Z</time>
      </trkpt>
      <trkpt lat="46.96856" lon="8.76887">
        <ele>777</ele>
        <time>2021-08-06T09:12:33.331Z</time>
      </trkpt>
      <trkpt lat="46.96855" lon="8.76886">
        <ele>777</ele>
        <time>2021-08-06T09:12:34.331Z</time>
      </trkpt>
      <trkpt lat="46.96855" lon="8.76885">
        <ele>778</ele>
        <time>2021-08-06T09:12:35.331Z</time>
      </trkpt>
      <trkpt lat="46.96855" lon="8.76884">
        <ele>778</ele>
        <time>2021-08-06T09:12:36.331Z</time>
      </trkpt>
      <trkpt lat="46.96854" lon="8.76883">
        <ele>777</ele>
        <time>2021-08-06T09:12:37.330Z</time>
      </trkpt>
      <trkpt lat="46.96854" lon="8.76882">
        <ele>777</ele>
        <time>2021-08-06T09:12:38.331Z</time>
      </trkpt>
      <trkpt lat="46.96854" lon="8.7688">
        <ele>777</ele>
        <time>2021-08-06T09:12:39.331Z</time>
      </trkpt>
      <trkpt lat="46.96854" lon="8.76879">
        <ele>777</ele>
        <time>2021-08-06T09:12:40.331Z</time>
      </trkpt>
      <trkpt lat="46.96854" lon="8.76878">
        <ele>777</ele>
        <time>2021-08-06T09:12:41.330Z</time>
      </trkpt>
      <trkpt lat="46.96854" lon="8.76877">
        <ele>777</ele>
        <time>2021-08-06T09:12:42.331Z</time>
      </trkpt>
      <trkpt lat="46.96854" lon="8.76877">
        <ele>777</ele>
        <time>2021-08-06T09:12:43.330Z</time>
      </trkpt>
      <trkpt lat="46.96853" lon="8.76877">
        <ele>777</ele>
        <time>2021-08-06T09:12:44.330Z</time>
      </trkpt>
      <trkpt lat="46.96853" lon="8.76877">
        <ele>777</ele>
        <time>2021-08-06T09:12:45.331Z</time>
      </trkpt>
      <trkpt lat="46.96853" lon="8.76877">
        <ele>778</ele>
        <time>2021-08-06T09:12:46.331Z</time>
      </trkpt>
      <trkpt lat="46.96854" lon="8.76876">
        <ele>778</ele>
        <time>2021-08-06T09:12:47.331Z</time>
      </trkpt>
      <trkpt lat="46.96854" lon="8.76875">
        <ele>778</ele>
        <time>2021-08-06T09:12:48.331Z</time>
      </trkpt>
      <trkpt lat="46.96855" lon="8.76874">
        <ele>779</ele>
        <time>2021-08-06T09:12:49.331Z</time>
      </trkpt>
      <trkpt lat="46.96855" lon="8.76873">
        <ele>780</ele>
        <time>2021-08-06T09:12:50.330Z</time>
      </trkpt>
      <trkpt lat="46.96855" lon="8.76872">
        <ele>781</ele>
        <time>2021-08-06T09:12:51.330Z</time>
      </trkpt>
      <trkpt lat="46.96855" lon="8.7687">
        <ele>781</ele>
        <time>2021-08-06T09:12:52.330Z</time>
      </trkpt>
      <trkpt lat="46.96855" lon="8.76869">
        <ele>781</ele>
        <time>2021-08-06T09:12:53.331Z</time>
      </trkpt>
      <trkpt lat="46.96855" lon="8.76868">
        <ele>781</ele>
        <time>2021-08-06T09:12:54.331Z</time>
      </trkpt>
      <trkpt lat="46.96855" lon="8.76866">
        <ele>781</ele>
        <time>2021-08-06T09:12:55.331Z</time>
      </trkpt>
      <trkpt lat="46.96855" lon="8.76865">
        <ele>780</ele>
        <time>2021-08-06T09:12:56.330Z</time>
      </trkpt>
      <trkpt lat="46.96855" lon="8.76863">
        <ele>780</ele>
        <time>2021-08-06T09:12:57.330Z</time>
      </trkpt>
      <trkpt lat="46.96855" lon="8.76862">
        <ele>780</ele>
        <time>2021-08-06T09:12:58.330Z</time>
      </trkpt>
      <trkpt lat="46.96855" lon="8.76861">
        <ele>780</ele>
        <time>2021-08-06T09:12:59.331Z</time>
      </trkpt>
      <trkpt lat="46.96855" lon="8.7686">
        <ele>779</ele>
        <time>2021-08-06T09:13:00.330Z</time>
      </trkpt>
      <trkpt lat="46.96855" lon="8.76858">
        <ele>779</ele>
        <time>2021-08-06T09:13:01.331Z</time>
      </trkpt>
      <trkpt lat="46.96855" lon="8.76857">
        <ele>779</ele>
        <time>2021-08-06T09:13:02.331Z</time>
      </trkpt>
      <trkpt lat="46.96855" lon="8.76856">
        <ele>779</ele>
        <time>2021-08-06T09:13:03.330Z</time>
      </trkpt>
      <trkpt lat="46.96855" lon="8.76855">
        <ele>778</ele>
        <time>2021-08-06T09:13:04.330Z</time>
      </trkpt>
      <trkpt lat="46.96855" lon="8.76853">
        <ele>778</ele>
        <time>2021-08-06T09:13:05.331Z</time>
      </trkpt>
      <trkpt lat="46.96856" lon="8.76852">
        <ele>778</ele>
        <time>2021-08-06T09:13:06.331Z</time>
      </trkpt>
      <trkpt lat="46.96856" lon="8.76851">
        <ele>778</ele>
        <time>2021-08-06T09:13:07.330Z</time>
      </trkpt>
      <trkpt lat="46.96856" lon="8.7685">
        <ele>779</ele>
        <time>2021-08-06T09:13:08.331Z</time>
      </trkpt>
      <trkpt lat="46.96855" lon="8.76848">
        <ele>779</ele>
        <time>2021-08-06T09:13:09.331Z</time>
      </trkpt>
      <trkpt lat="46.96855" lon="8.76847">
        <ele>780</ele>
        <time>2021-08-06T09:13:10.331Z</time>
      </trkpt>
      <trkpt lat="46.96856" lon="8.76846">
        <ele>780</ele>
        <time>2021-08-06T09:13:11.330Z</time>
      </trkpt>
      <trkpt lat="46.96856" lon="8.76845">
        <ele>781</ele>
        <time>2021-08-06T09:13:12.330Z</time>
      </trkpt>
      <trkpt lat="46.96856" lon="8.76844">
        <ele>781</ele>
        <time>2021-08-06T09:13:13.330Z</time>
      </trkpt>
      <trkpt lat="46.96856" lon="8.76843">
        <ele>781</ele>
        <time>2021-08-06T09:13:14.331Z</time>
      </trkpt>
      <trkpt lat="46.96857" lon="8.76842">
        <ele>781</ele>
        <time>2021-08-06T09:13:15.330Z</time>
      </trkpt>
      <trkpt lat="46.96856" lon="8.76841">
        <ele>781</ele>
        <time>2021-08-06T09:13:16.330Z</time>
      </trkpt>
      <trkpt lat="46.96856" lon="8.76839">
        <ele>781</ele>
        <time>2021-08-06T09:13:17.331Z</time>
      </trkpt>
      <trkpt lat="46.96856" lon="8.76838">
        <ele>781</ele>
        <time>2021-08-06T09:13:18.331Z</time>
      </trkpt>
      <trkpt lat="46.96856" lon="8.76836">
        <ele>781</ele>
        <time>2021-08-06T09:13:19.331Z</time>
      </trkpt>
      <trkpt lat="46.96856" lon="8.76835">
        <ele>782</ele>
        <time>2021-08-06T09:13:20.330Z</time>
      </trkpt>
      <trkpt lat="46.96855" lon="8.76833">
        <ele>782</ele>
        <time>2021-08-06T09:13:21.330Z</time>
      </trkpt>
      <trkpt lat="46.96855" lon="8.76832">
        <ele>782</ele>
        <time>2021-08-06T09:13:22.331Z</time>
      </trkpt>
      <trkpt lat="46.96854" lon="8.76831">
        <ele>782</ele>
        <time>2021-08-06T09:13:23.331Z</time>
      </trkpt>
      <trkpt lat="46.96853" lon="8.7683">
        <ele>782</ele>
        <time>2021-08-06T09:13:24.331Z</time>
      </trkpt>
      <trkpt lat="46.96853" lon="8.76829">
        <ele>782</ele>
        <time>2021-08-06T09:13:25.331Z</time>
      </trkpt>
      <trkpt lat="46.96852" lon="8.76828">
        <ele>782</ele>
        <time>2021-08-06T09:13:26.331Z</time>
      </trkpt>
      <trkpt lat="46.96852" lon="8.76827">
        <ele>781</ele>
        <time>2021-08-06T09:13:27.331Z</time>
      </trkpt>
      <trkpt lat="46.96851" lon="8.76826">
        <ele>782</ele>
        <time>2021-08-06T09:13:28.331Z</time>
      </trkpt>
      <trkpt lat="46.96851" lon="8.76825">
        <ele>782</ele>
        <time>2021-08-06T09:13:29.331Z</time>
      </trkpt>
      <trkpt lat="46.9685" lon="8.76825">
        <ele>783</ele>
        <time>2021-08-06T09:13:30.330Z</time>
      </trkpt>
      <trkpt lat="46.9685" lon="8.76825">
        <ele>783</ele>
        <time>2021-08-06T09:13:31.330Z</time>
      </trkpt>
      <trkpt lat="46.9685" lon="8.76825">
        <ele>785</ele>
        <time>2021-08-06T09:13:32.331Z</time>
      </trkpt>
      <trkpt lat="46.96848" lon="8.76824">
        <ele>786</ele>
        <time>2021-08-06T09:13:33.331Z</time>
      </trkpt>
      <trkpt lat="46.96847" lon="8.76822">
        <ele>786</ele>
        <time>2021-08-06T09:13:34.331Z</time>
      </trkpt>
      <trkpt lat="46.96846" lon="8.76821">
        <ele>787</ele>
        <time>2021-08-06T09:13:35.331Z</time>
      </trkpt>
      <trkpt lat="46.96846" lon="8.7682">
        <ele>787</ele>
        <time>2021-08-06T09:13:36.331Z</time>
      </trkpt>
      <trkpt lat="46.96845" lon="8.76818">
        <ele>787</ele>
        <time>2021-08-06T09:13:37.331Z</time>
      </trkpt>
      <trkpt lat="46.96844" lon="8.76817">
        <ele>787</ele>
        <time>2021-08-06T09:13:38.331Z</time>
      </trkpt>
      <trkpt lat="46.96844" lon="8.76816">
        <ele>787</ele>
        <time>2021-08-06T09:13:39.331Z</time>
      </trkpt>
      <trkpt lat="46.96843" lon="8.76814">
        <ele>787</ele>
        <time>2021-08-06T09:13:40.331Z</time>
      </trkpt>
      <trkpt lat="46.96843" lon="8.76813">
        <ele>787</ele>
        <time>2021-08-06T09:13:41.331Z</time>
      </trkpt>
      <trkpt lat="46.96842" lon="8.76812">
        <ele>788</ele>
        <time>2021-08-06T09:13:42.332Z</time>
      </trkpt>
      <trkpt lat="46.96841" lon="8.7681">
        <ele>788</ele>
        <time>2021-08-06T09:13:43.332Z</time>
      </trkpt>
      <trkpt lat="46.96841" lon="8.76809">
        <ele>788</ele>
        <time>2021-08-06T09:13:44.331Z</time>
      </trkpt>
      <trkpt lat="46.9684" lon="8.76807">
        <ele>789</ele>
        <time>2021-08-06T09:13:45.331Z</time>
      </trkpt>
      <trkpt lat="46.96839" lon="8.76806">
        <ele>789</ele>
        <time>2021-08-06T09:13:46.331Z</time>
      </trkpt>
      <trkpt lat="46.96839" lon="8.76804">
        <ele>789</ele>
        <time>2021-08-06T09:13:47.331Z</time>
      </trkpt>
      <trkpt lat="46.96838" lon="8.76803">
        <ele>789</ele>
        <time>2021-08-06T09:13:48.331Z</time>
      </trkpt>
      <trkpt lat="46.96837" lon="8.76802">
        <ele>788</ele>
        <time>2021-08-06T09:13:49.331Z</time>
      </trkpt>
      <trkpt lat="46.96837" lon="8.76801">
        <ele>788</ele>
        <time>2021-08-06T09:13:50.332Z</time>
      </trkpt>
      <trkpt lat="46.96836" lon="8.76799">
        <ele>788</ele>
        <time>2021-08-06T09:13:51.331Z</time>
      </trkpt>
      <trkpt lat="46.96836" lon="8.76798">
        <ele>788</ele>
        <time>2021-08-06T09:13:52.331Z</time>
      </trkpt>
      <trkpt lat="46.96835" lon="8.76797">
        <ele>788</ele>
        <time>2021-08-06T09:13:53.331Z</time>
      </trkpt>
      <trkpt lat="46.96834" lon="8.76796">
        <ele>788</ele>
        <time>2021-08-06T09:13:54.331Z</time>
      </trkpt>
      <trkpt lat="46.96834" lon="8.76795">
        <ele>787</ele>
        <time>2021-08-06T09:13:55.332Z</time>
      </trkpt>
      <trkpt lat="46.96833" lon="8.76794">
        <ele>786</ele>
        <time>2021-08-06T09:13:56.331Z</time>
      </trkpt>
      <trkpt lat="46.96833" lon="8.76793">
        <ele>786</ele>
        <time>2021-08-06T09:13:57.331Z</time>
      </trkpt>
      <trkpt lat="46.96832" lon="8.76792">
        <ele>785</ele>
        <time>2021-08-06T09:13:58.332Z</time>
      </trkpt>
      <trkpt lat="46.96832" lon="8.7679">
        <ele>785</ele>
        <time>2021-08-06T09:13:59.331Z</time>
      </trkpt>
      <trkpt lat="46.96831" lon="8.76789">
        <ele>786</ele>
        <time>2021-08-06T09:14:00.332Z</time>
      </trkpt>
      <trkpt lat="46.96831" lon="8.76788">
        <ele>786</ele>
        <time>2021-08-06T09:14:01.332Z</time>
      </trkpt>
      <trkpt lat="46.9683" lon="8.76787">
        <ele>786</ele>
        <time>2021-08-06T09:14:02.331Z</time>
      </trkpt>
      <trkpt lat="46.96829" lon="8.76785">
        <ele>787</ele>
        <time>2021-08-06T09:14:03.331Z</time>
      </trkpt>
      <trkpt lat="46.96829" lon="8.76785">
        <ele>787</ele>
        <time>2021-08-06T09:14:04.331Z</time>
      </trkpt>
      <trkpt lat="46.96828" lon="8.76783">
        <ele>787</ele>
        <time>2021-08-06T09:14:05.331Z</time>
      </trkpt>
      <trkpt lat="46.96828" lon="8.76781">
        <ele>788</ele>
        <time>2021-08-06T09:14:06.331Z</time>
      </trkpt>
      <trkpt lat="46.96828" lon="8.7678">
        <ele>788</ele>
        <time>2021-08-06T09:14:07.331Z</time>
      </trkpt>
      <trkpt lat="46.96827" lon="8.76779">
        <ele>788</ele>
        <time>2021-08-06T09:14:08.331Z</time>
      </trkpt>
      <trkpt lat="46.96827" lon="8.76778">
        <ele>788</ele>
        <time>2021-08-06T09:14:09.332Z</time>
      </trkpt>
      <trkpt lat="46.96827" lon="8.76776">
        <ele>788</ele>
        <time>2021-08-06T09:14:10.332Z</time>
      </trkpt>
      <trkpt lat="46.96826" lon="8.76775">
        <ele>788</ele>
        <time>2021-08-06T09:14:11.331Z</time>
      </trkpt>
      <trkpt lat="46.96826" lon="8.76774">
        <ele>788</ele>
        <time>2021-08-06T09:14:12.331Z</time>
      </trkpt>
      <trkpt lat="46.96826" lon="8.76773">
        <ele>787</ele>
        <time>2021-08-06T09:14:13.332Z</time>
      </trkpt>
      <trkpt lat="46.96826" lon="8.76771">
        <ele>788</ele>
        <time>2021-08-06T09:14:14.332Z</time>
      </trkpt>
      <trkpt lat="46.96826" lon="8.7677">
        <ele>787</ele>
        <time>2021-08-06T09:14:15.332Z</time>
      </trkpt>
      <trkpt lat="46.96826" lon="8.76769">
        <ele>787</ele>
        <time>2021-08-06T09:14:16.332Z</time>
      </trkpt>
      <trkpt lat="46.96826" lon="8.76767">
        <ele>787</ele>
        <time>2021-08-06T09:14:17.331Z</time>
      </trkpt>
      <trkpt lat="46.96826" lon="8.76766">
        <ele>786</ele>
        <time>2021-08-06T09:14:18.332Z</time>
      </trkpt>
      <trkpt lat="46.96826" lon="8.76765">
        <ele>786</ele>
        <time>2021-08-06T09:14:19.331Z</time>
      </trkpt>
      <trkpt lat="46.96826" lon="8.76763">
        <ele>785</ele>
        <time>2021-08-06T09:14:20.331Z</time>
      </trkpt>
      <trkpt lat="46.96826" lon="8.76762">
        <ele>785</ele>
        <time>2021-08-06T09:14:21.331Z</time>
      </trkpt>
      <trkpt lat="46.96826" lon="8.7676">
        <ele>784</ele>
        <time>2021-08-06T09:14:22.331Z</time>
      </trkpt>
      <trkpt lat="46.96826" lon="8.76759">
        <ele>784</ele>
        <time>2021-08-06T09:14:23.331Z</time>
      </trkpt>
      <trkpt lat="46.96826" lon="8.76758">
        <ele>784</ele>
        <time>2021-08-06T09:14:24.331Z</time>
      </trkpt>
      <trkpt lat="46.96826" lon="8.76757">
        <ele>783</ele>
        <time>2021-08-06T09:14:25.331Z</time>
      </trkpt>
      <trkpt lat="46.96826" lon="8.76756">
        <ele>783</ele>
        <time>2021-08-06T09:14:26.331Z</time>
      </trkpt>
      <trkpt lat="46.96826" lon="8.76754">
        <ele>783</ele>
        <time>2021-08-06T09:14:27.332Z</time>
      </trkpt>
      <trkpt lat="46.96826" lon="8.76753">
        <ele>783</ele>
        <time>2021-08-06T09:14:28.331Z</time>
      </trkpt>
      <trkpt lat="46.96826" lon="8.76752">
        <ele>783</ele>
        <time>2021-08-06T09:14:29.332Z</time>
      </trkpt>
      <trkpt lat="46.96826" lon="8.76751">
        <ele>783</ele>
        <time>2021-08-06T09:14:30.331Z</time>
      </trkpt>
      <trkpt lat="46.96826" lon="8.76749">
        <ele>784</ele>
        <time>2021-08-06T09:14:31.332Z</time>
      </trkpt>
      <trkpt lat="46.96826" lon="8.76748">
        <ele>784</ele>
        <time>2021-08-06T09:14:32.331Z</time>
      </trkpt>
      <trkpt lat="46.96826" lon="8.76747">
        <ele>785</ele>
        <time>2021-08-06T09:14:33.331Z</time>
      </trkpt>
      <trkpt lat="46.96826" lon="8.76746">
        <ele>785</ele>
        <time>2021-08-06T09:14:34.331Z</time>
      </trkpt>
      <trkpt lat="46.96826" lon="8.76744">
        <ele>786</ele>
        <time>2021-08-06T09:14:35.331Z</time>
      </trkpt>
      <trkpt lat="46.96825" lon="8.76743">
        <ele>786</ele>
        <time>2021-08-06T09:14:36.331Z</time>
      </trkpt>
      <trkpt lat="46.96825" lon="8.76742">
        <ele>786</ele>
        <time>2021-08-06T09:14:37.331Z</time>
      </trkpt>
      <trkpt lat="46.96825" lon="8.76741">
        <ele>787</ele>
        <time>2021-08-06T09:14:38.331Z</time>
      </trkpt>
      <trkpt lat="46.96825" lon="8.7674">
        <ele>787</ele>
        <time>2021-08-06T09:14:39.331Z</time>
      </trkpt>
      <trkpt lat="46.96825" lon="8.76738">
        <ele>786</ele>
        <time>2021-08-06T09:14:40.331Z</time>
      </trkpt>
      <trkpt lat="46.96825" lon="8.76737">
        <ele>786</ele>
        <time>2021-08-06T09:14:41.331Z</time>
      </trkpt>
      <trkpt lat="46.96825" lon="8.76735">
        <ele>786</ele>
        <time>2021-08-06T09:14:42.331Z</time>
      </trkpt>
      <trkpt lat="46.96825" lon="8.76734">
        <ele>787</ele>
        <time>2021-08-06T09:14:43.331Z</time>
      </trkpt>
      <trkpt lat="46.96825" lon="8.76733">
        <ele>786</ele>
        <time>2021-08-06T09:14:44.331Z</time>
      </trkpt>
      <trkpt lat="46.96825" lon="8.76731">
        <ele>786</ele>
        <time>2021-08-06T09:14:45.331Z</time>
      </trkpt>
      <trkpt lat="46.96825" lon="8.76729">
        <ele>787</ele>
        <time>2021-08-06T09:14:46.331Z</time>
      </trkpt>
      <trkpt lat="46.96825" lon="8.76728">
        <ele>787</ele>
        <time>2021-08-06T09:14:47.332Z</time>
      </trkpt>
      <trkpt lat="46.96825" lon="8.76727">
        <ele>787</ele>
        <time>2021-08-06T09:14:48.331Z</time>
      </trkpt>
      <trkpt lat="46.96825" lon="8.76725">
        <ele>787</ele>
        <time>2021-08-06T09:14:49.331Z</time>
      </trkpt>
      <trkpt lat="46.96825" lon="8.76724">
        <ele>787</ele>
        <time>2021-08-06T09:14:50.331Z</time>
      </trkpt>
      <trkpt lat="46.96825" lon="8.76723">
        <ele>787</ele>
        <time>2021-08-06T09:14:51.331Z</time>
      </trkpt>
      <trkpt lat="46.96824" lon="8.76721">
        <ele>787</ele>
        <time>2021-08-06T09:14:52.331Z</time>
      </trkpt>
      <trkpt lat="46.96824" lon="8.7672">
        <ele>787</ele>
        <time>2021-08-06T09:14:53.331Z</time>
      </trkpt>
      <trkpt lat="46.96823" lon="8.76718">
        <ele>787</ele>
        <time>2021-08-06T09:14:54.331Z</time>
      </trkpt>
      <trkpt lat="46.96823" lon="8.76717">
        <ele>787</ele>
        <time>2021-08-06T09:14:55.331Z</time>
      </trkpt>
      <trkpt lat="46.96823" lon="8.76716">
        <ele>787</ele>
        <time>2021-08-06T09:14:56.331Z</time>
      </trkpt>
      <trkpt lat="46.96823" lon="8.76714">
        <ele>787</ele>
        <time>2021-08-06T09:14:57.331Z</time>
      </trkpt>
      <trkpt lat="46.96822" lon="8.76712">
        <ele>787</ele>
        <time>2021-08-06T09:14:58.331Z</time>
      </trkpt>
      <trkpt lat="46.96822" lon="8.76711">
        <ele>787</ele>
        <time>2021-08-06T09:14:59.331Z</time>
      </trkpt>
      <trkpt lat="46.96822" lon="8.76709">
        <ele>787</ele>
        <time>2021-08-06T09:15:00.331Z</time>
      </trkpt>
      <trkpt lat="46.96822" lon="8.76708">
        <ele>787</ele>
        <time>2021-08-06T09:15:01.331Z</time>
      </trkpt>
      <trkpt lat="46.96822" lon="8.76707">
        <ele>787</ele>
        <time>2021-08-06T09:15:02.331Z</time>
      </trkpt>
      <trkpt lat="46.96821" lon="8.76705">
        <ele>787</ele>
        <time>2021-08-06T09:15:03.331Z</time>
      </trkpt>
      <trkpt lat="46.96821" lon="8.76704">
        <ele>787</ele>
        <time>2021-08-06T09:15:04.332Z</time>
      </trkpt>
      <trkpt lat="46.96821" lon="8.76703">
        <ele>787</ele>
        <time>2021-08-06T09:15:05.331Z</time>
      </trkpt>
      <trkpt lat="46.96821" lon="8.76702">
        <ele>787</ele>
        <time>2021-08-06T09:15:06.331Z</time>
      </trkpt>
      <trkpt lat="46.96821" lon="8.767">
        <ele>787</ele>
        <time>2021-08-06T09:15:07.331Z</time>
      </trkpt>
      <trkpt lat="46.96821" lon="8.76698">
        <ele>788</ele>
        <time>2021-08-06T09:15:08.331Z</time>
      </trkpt>
      <trkpt lat="46.9682" lon="8.76697">
        <ele>788</ele>
        <time>2021-08-06T09:15:09.331Z</time>
      </trkpt>
      <trkpt lat="46.9682" lon="8.76696">
        <ele>788</ele>
        <time>2021-08-06T09:15:10.331Z</time>
      </trkpt>
      <trkpt lat="46.9682" lon="8.76695">
        <ele>788</ele>
        <time>2021-08-06T09:15:11.331Z</time>
      </trkpt>
      <trkpt lat="46.96819" lon="8.76693">
        <ele>788</ele>
        <time>2021-08-06T09:15:12.332Z</time>
      </trkpt>
      <trkpt lat="46.96819" lon="8.76692">
        <ele>788</ele>
        <time>2021-08-06T09:15:13.332Z</time>
      </trkpt>
      <trkpt lat="46.96819" lon="8.7669">
        <ele>789</ele>
        <time>2021-08-06T09:15:14.331Z</time>
      </trkpt>
      <trkpt lat="46.96818" lon="8.76689">
        <ele>790</ele>
        <time>2021-08-06T09:15:15.332Z</time>
      </trkpt>
      <trkpt lat="46.96818" lon="8.76688">
        <ele>790</ele>
        <time>2021-08-06T09:15:16.331Z</time>
      </trkpt>
      <trkpt lat="46.96819" lon="8.76686">
        <ele>790</ele>
        <time>2021-08-06T09:15:17.331Z</time>
      </trkpt>
      <trkpt lat="46.96818" lon="8.76685">
        <ele>789</ele>
        <time>2021-08-06T09:15:18.331Z</time>
      </trkpt>
      <trkpt lat="46.96818" lon="8.76684">
        <ele>789</ele>
        <time>2021-08-06T09:15:19.331Z</time>
      </trkpt>
      <trkpt lat="46.96818" lon="8.76683">
        <ele>788</ele>
        <time>2021-08-06T09:15:20.331Z</time>
      </trkpt>
      <trkpt lat="46.96818" lon="8.76681">
        <ele>788</ele>
        <time>2021-08-06T09:15:21.331Z</time>
      </trkpt>
      <trkpt lat="46.96818" lon="8.7668">
        <ele>788</ele>
        <time>2021-08-06T09:15:22.331Z</time>
      </trkpt>
      <trkpt lat="46.96817" lon="8.76678">
        <ele>787</ele>
        <time>2021-08-06T09:15:23.331Z</time>
      </trkpt>
      <trkpt lat="46.96817" lon="8.76677">
        <ele>787</ele>
        <time>2021-08-06T09:15:24.331Z</time>
      </trkpt>
      <trkpt lat="46.96817" lon="8.76676">
        <ele>788</ele>
        <time>2021-08-06T09:15:25.331Z</time>
      </trkpt>
      <trkpt lat="46.96817" lon="8.76674">
        <ele>788</ele>
        <time>2021-08-06T09:15:26.331Z</time>
      </trkpt>
      <trkpt lat="46.96817" lon="8.76673">
        <ele>788</ele>
        <time>2021-08-06T09:15:27.331Z</time>
      </trkpt>
      <trkpt lat="46.96817" lon="8.76671">
        <ele>789</ele>
        <time>2021-08-06T09:15:28.331Z</time>
      </trkpt>
      <trkpt lat="46.96816" lon="8.7667">
        <ele>789</ele>
        <time>2021-08-06T09:15:29.332Z</time>
      </trkpt>
      <trkpt lat="46.96816" lon="8.76668">
        <ele>789</ele>
        <time>2021-08-06T09:15:30.331Z</time>
      </trkpt>
      <trkpt lat="46.96816" lon="8.76667">
        <ele>789</ele>
        <time>2021-08-06T09:15:31.332Z</time>
      </trkpt>
      <trkpt lat="46.96816" lon="8.76666">
        <ele>789</ele>
        <time>2021-08-06T09:15:32.332Z</time>
      </trkpt>
      <trkpt lat="46.96816" lon="8.76665">
        <ele>788</ele>
        <time>2021-08-06T09:15:33.331Z</time>
      </trkpt>
      <trkpt lat="46.96815" lon="8.76663">
        <ele>788</ele>
        <time>2021-08-06T09:15:34.331Z</time>
      </trkpt>
      <trkpt lat="46.96815" lon="8.76662">
        <ele>789</ele>
        <time>2021-08-06T09:15:35.331Z</time>
      </trkpt>
      <trkpt lat="46.96815" lon="8.7666">
        <ele>789</ele>
        <time>2021-08-06T09:15:36.331Z</time>
      </trkpt>
      <trkpt lat="46.96815" lon="8.76659">
        <ele>789</ele>
        <time>2021-08-06T09:15:37.332Z</time>
      </trkpt>
      <trkpt lat="46.96815" lon="8.76658">
        <ele>790</ele>
        <time>2021-08-06T09:15:38.331Z</time>
      </trkpt>
      <trkpt lat="46.96814" lon="8.76656">
        <ele>791</ele>
        <time>2021-08-06T09:15:39.332Z</time>
      </trkpt>
      <trkpt lat="46.96814" lon="8.76655">
        <ele>791</ele>
        <time>2021-08-06T09:15:40.332Z</time>
      </trkpt>
      <trkpt lat="46.96813" lon="8.76654">
        <ele>792</ele>
        <time>2021-08-06T09:15:41.331Z</time>
      </trkpt>
      <trkpt lat="46.96813" lon="8.76652">
        <ele>792</ele>
        <time>2021-08-06T09:15:42.331Z</time>
      </trkpt>
      <trkpt lat="46.96813" lon="8.76651">
        <ele>792</ele>
        <time>2021-08-06T09:15:43.331Z</time>
      </trkpt>
      <trkpt lat="46.96813" lon="8.76649">
        <ele>792</ele>
        <time>2021-08-06T09:15:44.331Z</time>
      </trkpt>
      <trkpt lat="46.96812" lon="8.76648">
        <ele>793</ele>
        <time>2021-08-06T09:15:45.331Z</time>
      </trkpt>
      <trkpt lat="46.96812" lon="8.76646">
        <ele>793</ele>
        <time>2021-08-06T09:15:46.332Z</time>
      </trkpt>
      <trkpt lat="46.96811" lon="8.76645">
        <ele>793</ele>
        <time>2021-08-06T09:15:47.331Z</time>
      </trkpt>
      <trkpt lat="46.96811" lon="8.76644">
        <ele>794</ele>
        <time>2021-08-06T09:15:48.332Z</time>
      </trkpt>
      <trkpt lat="46.9681" lon="8.76643">
        <ele>794</ele>
        <time>2021-08-06T09:15:49.331Z</time>
      </trkpt>
      <trkpt lat="46.9681" lon="8.76642">
        <ele>793</ele>
        <time>2021-08-06T09:15:50.331Z</time>
      </trkpt>
      <trkpt lat="46.9681" lon="8.7664">
        <ele>793</ele>
        <time>2021-08-06T09:15:51.331Z</time>
      </trkpt>
      <trkpt lat="46.9681" lon="8.76639">
        <ele>793</ele>
        <time>2021-08-06T09:15:52.332Z</time>
      </trkpt>
      <trkpt lat="46.96809" lon="8.76637">
        <ele>794</ele>
        <time>2021-08-06T09:15:53.332Z</time>
      </trkpt>
      <trkpt lat="46.96809" lon="8.76636">
        <ele>794</ele>
        <time>2021-08-06T09:15:54.331Z</time>
      </trkpt>
      <trkpt lat="46.96809" lon="8.76634">
        <ele>794</ele>
        <time>2021-08-06T09:15:55.331Z</time>
      </trkpt>
      <trkpt lat="46.96808" lon="8.76633">
        <ele>794</ele>
        <time>2021-08-06T09:15:56.331Z</time>
      </trkpt>
      <trkpt lat="46.96808" lon="8.76631">
        <ele>793</ele>
        <time>2021-08-06T09:15:57.331Z</time>
      </trkpt>
      <trkpt lat="46.96808" lon="8.7663">
        <ele>793</ele>
        <time>2021-08-06T09:15:58.331Z</time>
      </trkpt>
      <trkpt lat="46.96808" lon="8.76629">
        <ele>793</ele>
        <time>2021-08-06T09:15:59.331Z</time>
      </trkpt>
      <trkpt lat="46.96808" lon="8.76628">
        <ele>792</ele>
        <time>2021-08-06T09:16:00.331Z</time>
      </trkpt>
      <trkpt lat="46.96807" lon="8.76626">
        <ele>792</ele>
        <time>2021-08-06T09:16:01.331Z</time>
      </trkpt>
      <trkpt lat="46.96807" lon="8.76625">
        <ele>791</ele>
        <time>2021-08-06T09:16:02.331Z</time>
      </trkpt>
      <trkpt lat="46.96807" lon="8.76623">
        <ele>791</ele>
        <time>2021-08-06T09:16:03.331Z</time>
      </trkpt>
      <trkpt lat="46.96807" lon="8.76622">
        <ele>791</ele>
        <time>2021-08-06T09:16:04.331Z</time>
      </trkpt>
      <trkpt lat="46.96807" lon="8.76621">
        <ele>791</ele>
        <time>2021-08-06T09:16:05.331Z</time>
      </trkpt>
      <trkpt lat="46.96807" lon="8.76619">
        <ele>791</ele>
        <time>2021-08-06T09:16:06.331Z</time>
      </trkpt>
      <trkpt lat="46.96807" lon="8.76617">
        <ele>792</ele>
        <time>2021-08-06T09:16:07.331Z</time>
      </trkpt>
      <trkpt lat="46.96807" lon="8.76616">
        <ele>792</ele>
        <time>2021-08-06T09:16:08.331Z</time>
      </trkpt>
      <trkpt lat="46.96808" lon="8.76614">
        <ele>792</ele>
        <time>2021-08-06T09:16:09.331Z</time>
      </trkpt>
      <trkpt lat="46.96807" lon="8.76613">
        <ele>793</ele>
        <time>2021-08-06T09:16:10.332Z</time>
      </trkpt>
      <trkpt lat="46.96807" lon="8.76612">
        <ele>793</ele>
        <time>2021-08-06T09:16:11.331Z</time>
      </trkpt>
      <trkpt lat="46.96807" lon="8.76611">
        <ele>794</ele>
        <time>2021-08-06T09:16:12.332Z</time>
      </trkpt>
      <trkpt lat="46.96807" lon="8.7661">
        <ele>794</ele>
        <time>2021-08-06T09:16:13.331Z</time>
      </trkpt>
      <trkpt lat="46.96807" lon="8.76608">
        <ele>794</ele>
        <time>2021-08-06T09:16:14.331Z</time>
      </trkpt>
      <trkpt lat="46.96807" lon="8.76607">
        <ele>795</ele>
        <time>2021-08-06T09:16:15.331Z</time>
      </trkpt>
      <trkpt lat="46.96807" lon="8.76606">
        <ele>795</ele>
        <time>2021-08-06T09:16:16.331Z</time>
      </trkpt>
      <trkpt lat="46.96806" lon="8.76604">
        <ele>795</ele>
        <time>2021-08-06T09:16:17.331Z</time>
      </trkpt>
      <trkpt lat="46.96806" lon="8.76603">
        <ele>795</ele>
        <time>2021-08-06T09:16:18.332Z</time>
      </trkpt>
      <trkpt lat="46.96806" lon="8.766">
        <ele>796</ele>
        <time>2021-08-06T09:16:19.331Z</time>
      </trkpt>
      <trkpt lat="46.96806" lon="8.76598">
        <ele>797</ele>
        <time>2021-08-06T09:16:20.332Z</time>
      </trkpt>
      <trkpt lat="46.96806" lon="8.76597">
        <ele>798</ele>
        <time>2021-08-06T09:16:21.332Z</time>
      </trkpt>
      <trkpt lat="46.96805" lon="8.76596">
        <ele>798</ele>
        <time>2021-08-06T09:16:22.332Z</time>
      </trkpt>
      <trkpt lat="46.96805" lon="8.76594">
        <ele>799</ele>
        <time>2021-08-06T09:16:23.331Z</time>
      </trkpt>
      <trkpt lat="46.96805" lon="8.76593">
        <ele>800</ele>
        <time>2021-08-06T09:16:24.331Z</time>
      </trkpt>
      <trkpt lat="46.96805" lon="8.76592">
        <ele>800</ele>
        <time>2021-08-06T09:16:25.332Z</time>
      </trkpt>
      <trkpt lat="46.96805" lon="8.76591">
        <ele>800</ele>
        <time>2021-08-06T09:16:26.332Z</time>
      </trkpt>
      <trkpt lat="46.96805" lon="8.76589">
        <ele>800</ele>
        <time>2021-08-06T09:16:27.332Z</time>
      </trkpt>
      <trkpt lat="46.96806" lon="8.76588">
        <ele>800</ele>
        <time>2021-08-06T09:16:28.332Z</time>
      </trkpt>
      <trkpt lat="46.96806" lon="8.76587">
        <ele>799</ele>
        <time>2021-08-06T09:16:29.332Z</time>
      </trkpt>
      <trkpt lat="46.96807" lon="8.76586">
        <ele>799</ele>
        <time>2021-08-06T09:16:30.331Z</time>
      </trkpt>
      <trkpt lat="46.96806" lon="8.76585">
        <ele>799</ele>
        <time>2021-08-06T09:16:31.331Z</time>
      </trkpt>
      <trkpt lat="46.96805" lon="8.76583">
        <ele>799</ele>
        <time>2021-08-06T09:16:32.331Z</time>
      </trkpt>
      <trkpt lat="46.96805" lon="8.76582">
        <ele>799</ele>
        <time>2021-08-06T09:16:33.331Z</time>
      </trkpt>
      <trkpt lat="46.96805" lon="8.7658">
        <ele>799</ele>
        <time>2021-08-06T09:16:34.332Z</time>
      </trkpt>
      <trkpt lat="46.96805" lon="8.76579">
        <ele>799</ele>
        <time>2021-08-06T09:16:35.331Z</time>
      </trkpt>
      <trkpt lat="46.96805" lon="8.76578">
        <ele>799</ele>
        <time>2021-08-06T09:16:36.332Z</time>
      </trkpt>
      <trkpt lat="46.96805" lon="8.76577">
        <ele>799</ele>
        <time>2021-08-06T09:16:37.331Z</time>
      </trkpt>
      <trkpt lat="46.96805" lon="8.76575">
        <ele>798</ele>
        <time>2021-08-06T09:16:38.332Z</time>
      </trkpt>
      <trkpt lat="46.96806" lon="8.76574">
        <ele>798</ele>
        <time>2021-08-06T09:16:39.331Z</time>
      </trkpt>
      <trkpt lat="46.96805" lon="8.76573">
        <ele>798</ele>
        <time>2021-08-06T09:16:40.331Z</time>
      </trkpt>
      <trkpt lat="46.96805" lon="8.76572">
        <ele>799</ele>
        <time>2021-08-06T09:16:41.332Z</time>
      </trkpt>
      <trkpt lat="46.96805" lon="8.76571">
        <ele>798</ele>
        <time>2021-08-06T09:16:42.331Z</time>
      </trkpt>
      <trkpt lat="46.96805" lon="8.7657">
        <ele>798</ele>
        <time>2021-08-06T09:16:43.331Z</time>
      </trkpt>
      <trkpt lat="46.96806" lon="8.76568">
        <ele>798</ele>
        <time>2021-08-06T09:16:44.332Z</time>
      </trkpt>
      <trkpt lat="46.96805" lon="8.76567">
        <ele>798</ele>
        <time>2021-08-06T09:16:45.331Z</time>
      </trkpt>
      <trkpt lat="46.96805" lon="8.76566">
        <ele>798</ele>
        <time>2021-08-06T09:16:46.331Z</time>
      </trkpt>
      <trkpt lat="46.96805" lon="8.76564">
        <ele>798</ele>
        <time>2021-08-06T09:16:47.331Z</time>
      </trkpt>
      <trkpt lat="46.96805" lon="8.76563">
        <ele>797</ele>
        <time>2021-08-06T09:16:48.332Z</time>
      </trkpt>
      <trkpt lat="46.96805" lon="8.76561">
        <ele>797</ele>
        <time>2021-08-06T09:16:49.331Z</time>
      </trkpt>
      <trkpt lat="46.96805" lon="8.7656">
        <ele>797</ele>
        <time>2021-08-06T09:16:50.332Z</time>
      </trkpt>
      <trkpt lat="46.96805" lon="8.76558">
        <ele>797</ele>
        <time>2021-08-06T09:16:51.331Z</time>
      </trkpt>
      <trkpt lat="46.96806" lon="8.76557">
        <ele>796</ele>
        <time>2021-08-06T09:16:52.332Z</time>
      </trkpt>
      <trkpt lat="46.96805" lon="8.76556">
        <ele>796</ele>
        <time>2021-08-06T09:16:53.331Z</time>
      </trkpt>
      <trkpt lat="46.96805" lon="8.76555">
        <ele>796</ele>
        <time>2021-08-06T09:16:54.331Z</time>
      </trkpt>
      <trkpt lat="46.96805" lon="8.76553">
        <ele>796</ele>
        <time>2021-08-06T09:16:55.331Z</time>
      </trkpt>
      <trkpt lat="46.96804" lon="8.76552">
        <ele>796</ele>
        <time>2021-08-06T09:16:56.331Z</time>
      </trkpt>
      <trkpt lat="46.96804" lon="8.76551">
        <ele>797</ele>
        <time>2021-08-06T09:16:57.331Z</time>
      </trkpt>
      <trkpt lat="46.96803" lon="8.76549">
        <ele>797</ele>
        <time>2021-08-06T09:16:58.331Z</time>
      </trkpt>
      <trkpt lat="46.96803" lon="8.76548">
        <ele>797</ele>
        <time>2021-08-06T09:16:59.332Z</time>
      </trkpt>
      <trkpt lat="46.96802" lon="8.76547">
        <ele>797</ele>
        <time>2021-08-06T09:17:00.331Z</time>
      </trkpt>
      <trkpt lat="46.96802" lon="8.76545">
        <ele>798</ele>
        <time>2021-08-06T09:17:01.331Z</time>
      </trkpt>
      <trkpt lat="46.96802" lon="8.76543">
        <ele>798</ele>
        <time>2021-08-06T09:17:02.331Z</time>
      </trkpt>
      <trkpt lat="46.96802" lon="8.76542">
        <ele>798</ele>
        <time>2021-08-06T09:17:03.331Z</time>
      </trkpt>
      <trkpt lat="46.96802" lon="8.76541">
        <ele>799</ele>
        <time>2021-08-06T09:17:04.331Z</time>
      </trkpt>
      <trkpt lat="46.96801" lon="8.7654">
        <ele>799</ele>
        <time>2021-08-06T09:17:05.332Z</time>
      </trkpt>
      <trkpt lat="46.96801" lon="8.76539">
        <ele>799</ele>
        <time>2021-08-06T09:17:06.331Z</time>
      </trkpt>
      <trkpt lat="46.96801" lon="8.76538">
        <ele>799</ele>
        <time>2021-08-06T09:17:07.332Z</time>
      </trkpt>
      <trkpt lat="46.96801" lon="8.76537">
        <ele>799</ele>
        <time>2021-08-06T09:17:08.332Z</time>
      </trkpt>
      <trkpt lat="46.96801" lon="8.76535">
        <ele>799</ele>
        <time>2021-08-06T09:17:09.331Z</time>
      </trkpt>
      <trkpt lat="46.96801" lon="8.76534">
        <ele>799</ele>
        <time>2021-08-06T09:17:10.331Z</time>
      </trkpt>
      <trkpt lat="46.968" lon="8.76532">
        <ele>800</ele>
        <time>2021-08-06T09:17:11.331Z</time>
      </trkpt>
      <trkpt lat="46.968" lon="8.76531">
        <ele>800</ele>
        <time>2021-08-06T09:17:12.331Z</time>
      </trkpt>
      <trkpt lat="46.968" lon="8.7653">
        <ele>800</ele>
        <time>2021-08-06T09:17:13.331Z</time>
      </trkpt>
      <trkpt lat="46.968" lon="8.76529">
        <ele>800</ele>
        <time>2021-08-06T09:17:14.331Z</time>
      </trkpt>
      <trkpt lat="46.96799" lon="8.76527">
        <ele>800</ele>
        <time>2021-08-06T09:17:15.331Z</time>
      </trkpt>
      <trkpt lat="46.96799" lon="8.76527">
        <ele>800</ele>
        <time>2021-08-06T09:17:16.331Z</time>
      </trkpt>
      <trkpt lat="46.96799" lon="8.76525">
        <ele>801</ele>
        <time>2021-08-06T09:17:17.331Z</time>
      </trkpt>
      <trkpt lat="46.96798" lon="8.76524">
        <ele>802</ele>
        <time>2021-08-06T09:17:18.331Z</time>
      </trkpt>
      <trkpt lat="46.96798" lon="8.76523">
        <ele>802</ele>
        <time>2021-08-06T09:17:19.331Z</time>
      </trkpt>
      <trkpt lat="46.96798" lon="8.76522">
        <ele>803</ele>
        <time>2021-08-06T09:17:20.332Z</time>
      </trkpt>
      <trkpt lat="46.96798" lon="8.76521">
        <ele>804</ele>
        <time>2021-08-06T09:17:21.332Z</time>
      </trkpt>
      <trkpt lat="46.96798" lon="8.76519">
        <ele>805</ele>
        <time>2021-08-06T09:17:22.332Z</time>
      </trkpt>
      <trkpt lat="46.96798" lon="8.76517">
        <ele>805</ele>
        <time>2021-08-06T09:17:23.331Z</time>
      </trkpt>
      <trkpt lat="46.96798" lon="8.76516">
        <ele>806</ele>
        <time>2021-08-06T09:17:24.331Z</time>
      </trkpt>
      <trkpt lat="46.96798" lon="8.76515">
        <ele>806</ele>
        <time>2021-08-06T09:17:25.331Z</time>
      </trkpt>
      <trkpt lat="46.96798" lon="8.76514">
        <ele>806</ele>
        <time>2021-08-06T09:17:26.331Z</time>
      </trkpt>
      <trkpt lat="46.96798" lon="8.76513">
        <ele>807</ele>
        <time>2021-08-06T09:17:27.331Z</time>
      </trkpt>
      <trkpt lat="46.96798" lon="8.76511">
        <ele>806</ele>
        <time>2021-08-06T09:17:28.332Z</time>
      </trkpt>
      <trkpt lat="46.96799" lon="8.76509">
        <ele>806</ele>
        <time>2021-08-06T09:17:29.331Z</time>
      </trkpt>
      <trkpt lat="46.96799" lon="8.76508">
        <ele>806</ele>
        <time>2021-08-06T09:17:30.331Z</time>
      </trkpt>
      <trkpt lat="46.96799" lon="8.76507">
        <ele>806</ele>
        <time>2021-08-06T09:17:31.331Z</time>
      </trkpt>
      <trkpt lat="46.96798" lon="8.76506">
        <ele>806</ele>
        <time>2021-08-06T09:17:32.331Z</time>
      </trkpt>
      <trkpt lat="46.96798" lon="8.76505">
        <ele>806</ele>
        <time>2021-08-06T09:17:33.331Z</time>
      </trkpt>
      <trkpt lat="46.96798" lon="8.76503">
        <ele>806</ele>
        <time>2021-08-06T09:17:34.331Z</time>
      </trkpt>
      <trkpt lat="46.96798" lon="8.76502">
        <ele>806</ele>
        <time>2021-08-06T09:17:35.332Z</time>
      </trkpt>
      <trkpt lat="46.96798" lon="8.765">
        <ele>806</ele>
        <time>2021-08-06T09:17:36.331Z</time>
      </trkpt>
      <trkpt lat="46.96799" lon="8.76498">
        <ele>806</ele>
        <time>2021-08-06T09:17:37.332Z</time>
      </trkpt>
      <trkpt lat="46.96799" lon="8.76497">
        <ele>806</ele>
        <time>2021-08-06T09:17:38.331Z</time>
      </trkpt>
      <trkpt lat="46.96799" lon="8.76495">
        <ele>806</ele>
        <time>2021-08-06T09:17:39.331Z</time>
      </trkpt>
      <trkpt lat="46.96799" lon="8.76494">
        <ele>805</ele>
        <time>2021-08-06T09:17:40.331Z</time>
      </trkpt>
      <trkpt lat="46.96799" lon="8.76492">
        <ele>805</ele>
        <time>2021-08-06T09:17:41.331Z</time>
      </trkpt>
      <trkpt lat="46.96798" lon="8.76491">
        <ele>806</ele>
        <time>2021-08-06T09:17:42.331Z</time>
      </trkpt>
      <trkpt lat="46.96799" lon="8.7649">
        <ele>806</ele>
        <time>2021-08-06T09:17:43.331Z</time>
      </trkpt>
      <trkpt lat="46.96799" lon="8.76488">
        <ele>807</ele>
        <time>2021-08-06T09:17:44.331Z</time>
      </trkpt>
      <trkpt lat="46.96799" lon="8.76486">
        <ele>807</ele>
        <time>2021-08-06T09:17:45.331Z</time>
      </trkpt>
      <trkpt lat="46.96798" lon="8.76484">
        <ele>808</ele>
        <time>2021-08-06T09:17:46.332Z</time>
      </trkpt>
      <trkpt lat="46.96799" lon="8.76482">
        <ele>808</ele>
        <time>2021-08-06T09:17:47.331Z</time>
      </trkpt>
      <trkpt lat="46.968" lon="8.7648">
        <ele>807</ele>
        <time>2021-08-06T09:17:48.332Z</time>
      </trkpt>
      <trkpt lat="46.968" lon="8.76479">
        <ele>807</ele>
        <time>2021-08-06T09:17:49.331Z</time>
      </trkpt>
      <trkpt lat="46.96799" lon="8.76478">
        <ele>807</ele>
        <time>2021-08-06T09:17:50.332Z</time>
      </trkpt>
      <trkpt lat="46.96799" lon="8.76476">
        <ele>806</ele>
        <time>2021-08-06T09:17:51.331Z</time>
      </trkpt>
      <trkpt lat="46.968" lon="8.76474">
        <ele>805</ele>
        <time>2021-08-06T09:17:52.331Z</time>
      </trkpt>
      <trkpt lat="46.968" lon="8.76472">
        <ele>804</ele>
        <time>2021-08-06T09:17:53.331Z</time>
      </trkpt>
      <trkpt lat="46.968" lon="8.76471">
        <ele>804</ele>
        <time>2021-08-06T09:17:54.332Z</time>
      </trkpt>
      <trkpt lat="46.968" lon="8.76469">
        <ele>803</ele>
        <time>2021-08-06T09:17:55.331Z</time>
      </trkpt>
      <trkpt lat="46.968" lon="8.76467">
        <ele>803</ele>
        <time>2021-08-06T09:17:56.332Z</time>
      </trkpt>
      <trkpt lat="46.968" lon="8.76465">
        <ele>803</ele>
        <time>2021-08-06T09:17:57.332Z</time>
      </trkpt>
      <trkpt lat="46.96801" lon="8.76464">
        <ele>803</ele>
        <time>2021-08-06T09:17:58.331Z</time>
      </trkpt>
      <trkpt lat="46.96801" lon="8.76462">
        <ele>803</ele>
        <time>2021-08-06T09:17:59.331Z</time>
      </trkpt>
      <trkpt lat="46.96802" lon="8.76461">
        <ele>803</ele>
        <time>2021-08-06T09:18:00.332Z</time>
      </trkpt>
      <trkpt lat="46.96802" lon="8.7646">
        <ele>803</ele>
        <time>2021-08-06T09:18:01.331Z</time>
      </trkpt>
      <trkpt lat="46.96802" lon="8.76458">
        <ele>803</ele>
        <time>2021-08-06T09:18:02.332Z</time>
      </trkpt>
      <trkpt lat="46.96802" lon="8.76456">
        <ele>804</ele>
        <time>2021-08-06T09:18:03.331Z</time>
      </trkpt>
      <trkpt lat="46.96802" lon="8.76455">
        <ele>804</ele>
        <time>2021-08-06T09:18:04.331Z</time>
      </trkpt>
      <trkpt lat="46.96803" lon="8.76453">
        <ele>804</ele>
        <time>2021-08-06T09:18:05.332Z</time>
      </trkpt>
      <trkpt lat="46.96803" lon="8.76451">
        <ele>805</ele>
        <time>2021-08-06T09:18:06.331Z</time>
      </trkpt>
      <trkpt lat="46.96804" lon="8.7645">
        <ele>805</ele>
        <time>2021-08-06T09:18:07.331Z</time>
      </trkpt>
      <trkpt lat="46.96804" lon="8.76449">
        <ele>806</ele>
        <time>2021-08-06T09:18:08.331Z</time>
      </trkpt>
      <trkpt lat="46.96804" lon="8.76448">
        <ele>807</ele>
        <time>2021-08-06T09:18:09.332Z</time>
      </trkpt>
      <trkpt lat="46.96804" lon="8.76446">
        <ele>808</ele>
        <time>2021-08-06T09:18:10.331Z</time>
      </trkpt>
      <trkpt lat="46.96804" lon="8.76446">
        <ele>809</ele>
        <time>2021-08-06T09:18:11.331Z</time>
      </trkpt>
      <trkpt lat="46.96804" lon="8.76444">
        <ele>810</ele>
        <time>2021-08-06T09:18:12.331Z</time>
      </trkpt>
      <trkpt lat="46.96804" lon="8.76443">
        <ele>811</ele>
        <time>2021-08-06T09:18:13.331Z</time>
      </trkpt>
      <trkpt lat="46.96804" lon="8.76442">
        <ele>811</ele>
        <time>2021-08-06T09:18:14.331Z</time>
      </trkpt>
      <trkpt lat="46.96804" lon="8.76441">
        <ele>812</ele>
        <time>2021-08-06T09:18:15.331Z</time>
      </trkpt>
      <trkpt lat="46.96804" lon="8.76439">
        <ele>813</ele>
        <time>2021-08-06T09:18:16.332Z</time>
      </trkpt>
      <trkpt lat="46.96805" lon="8.76438">
        <ele>814</ele>
        <time>2021-08-06T09:18:17.332Z</time>
      </trkpt>
      <trkpt lat="46.96805" lon="8.76437">
        <ele>814</ele>
        <time>2021-08-06T09:18:18.331Z</time>
      </trkpt>
      <trkpt lat="46.96805" lon="8.76435">
        <ele>814</ele>
        <time>2021-08-06T09:18:19.331Z</time>
      </trkpt>
      <trkpt lat="46.96804" lon="8.76434">
        <ele>815</ele>
        <time>2021-08-06T09:18:20.332Z</time>
      </trkpt>
      <trkpt lat="46.96804" lon="8.76433">
        <ele>815</ele>
        <time>2021-08-06T09:18:21.331Z</time>
      </trkpt>
      <trkpt lat="46.96803" lon="8.76432">
        <ele>815</ele>
        <time>2021-08-06T09:18:22.332Z</time>
      </trkpt>
      <trkpt lat="46.96802" lon="8.7643">
        <ele>816</ele>
        <time>2021-08-06T09:18:23.331Z</time>
      </trkpt>
      <trkpt lat="46.96802" lon="8.76428">
        <ele>817</ele>
        <time>2021-08-06T09:18:24.331Z</time>
      </trkpt>
      <trkpt lat="46.96802" lon="8.76427">
        <ele>818</ele>
        <time>2021-08-06T09:18:25.332Z</time>
      </trkpt>
      <trkpt lat="46.96801" lon="8.76426">
        <ele>818</ele>
        <time>2021-08-06T09:18:26.331Z</time>
      </trkpt>
      <trkpt lat="46.96801" lon="8.76425">
        <ele>819</ele>
        <time>2021-08-06T09:18:27.332Z</time>
      </trkpt>
      <trkpt lat="46.96801" lon="8.76423">
        <ele>820</ele>
        <time>2021-08-06T09:18:28.332Z</time>
      </trkpt>
      <trkpt lat="46.96801" lon="8.76422">
        <ele>821</ele>
        <time>2021-08-06T09:18:29.332Z</time>
      </trkpt>
      <trkpt lat="46.968" lon="8.76421">
        <ele>822</ele>
        <time>2021-08-06T09:18:30.331Z</time>
      </trkpt>
      <trkpt lat="46.96799" lon="8.7642">
        <ele>822</ele>
        <time>2021-08-06T09:18:31.331Z</time>
      </trkpt>
      <trkpt lat="46.96798" lon="8.76419">
        <ele>823</ele>
        <time>2021-08-06T09:18:32.331Z</time>
      </trkpt>
      <trkpt lat="46.96798" lon="8.76418">
        <ele>823</ele>
        <time>2021-08-06T09:18:33.332Z</time>
      </trkpt>
      <trkpt lat="46.96796" lon="8.76419">
        <ele>823</ele>
        <time>2021-08-06T09:18:34.331Z</time>
      </trkpt>
      <trkpt lat="46.96795" lon="8.76419">
        <ele>824</ele>
        <time>2021-08-06T09:18:35.332Z</time>
      </trkpt>
      <trkpt lat="46.96794" lon="8.76418">
        <ele>824</ele>
        <time>2021-08-06T09:18:36.331Z</time>
      </trkpt>
      <trkpt lat="46.96793" lon="8.76418">
        <ele>824</ele>
        <time>2021-08-06T09:18:37.331Z</time>
      </trkpt>
      <trkpt lat="46.96792" lon="8.76418">
        <ele>824</ele>
        <time>2021-08-06T09:18:38.332Z</time>
      </trkpt>
      <trkpt lat="46.96792" lon="8.76417">
        <ele>824</ele>
        <time>2021-08-06T09:18:39.331Z</time>
      </trkpt>
      <trkpt lat="46.96791" lon="8.76417">
        <ele>824</ele>
        <time>2021-08-06T09:18:40.331Z</time>
      </trkpt>
      <trkpt lat="46.96791" lon="8.76417">
        <ele>825</ele>
        <time>2021-08-06T09:18:41.331Z</time>
      </trkpt>
      <trkpt lat="46.9679" lon="8.76417">
        <ele>826</ele>
        <time>2021-08-06T09:18:42.331Z</time>
      </trkpt>
      <trkpt lat="46.9679" lon="8.76418">
        <ele>826</ele>
        <time>2021-08-06T09:18:43.332Z</time>
      </trkpt>
      <trkpt lat="46.9679" lon="8.76419">
        <ele>826</ele>
        <time>2021-08-06T09:18:44.331Z</time>
      </trkpt>
      <trkpt lat="46.96789" lon="8.7642">
        <ele>826</ele>
        <time>2021-08-06T09:18:45.332Z</time>
      </trkpt>
      <trkpt lat="46.96788" lon="8.76421">
        <ele>826</ele>
        <time>2021-08-06T09:18:46.331Z</time>
      </trkpt>
      <trkpt lat="46.96788" lon="8.76422">
        <ele>825</ele>
        <time>2021-08-06T09:18:47.331Z</time>
      </trkpt>
      <trkpt lat="46.96787" lon="8.76423">
        <ele>825</ele>
        <time>2021-08-06T09:18:48.331Z</time>
      </trkpt>
      <trkpt lat="46.96787" lon="8.76424">
        <ele>825</ele>
        <time>2021-08-06T09:18:49.331Z</time>
      </trkpt>
      <trkpt lat="46.96786" lon="8.76425">
        <ele>825</ele>
        <time>2021-08-06T09:18:50.332Z</time>
      </trkpt>
      <trkpt lat="46.96786" lon="8.76426">
        <ele>825</ele>
        <time>2021-08-06T09:18:51.331Z</time>
      </trkpt>
      <trkpt lat="46.96786" lon="8.76428">
        <ele>825</ele>
        <time>2021-08-06T09:18:52.331Z</time>
      </trkpt>
      <trkpt lat="46.96786" lon="8.7643">
        <ele>825</ele>
        <time>2021-08-06T09:18:53.331Z</time>
      </trkpt>
      <trkpt lat="46.96787" lon="8.76431">
        <ele>825</ele>
        <time>2021-08-06T09:18:54.331Z</time>
      </trkpt>
      <trkpt lat="46.96787" lon="8.76432">
        <ele>825</ele>
        <time>2021-08-06T09:18:55.331Z</time>
      </trkpt>
      <trkpt lat="46.96788" lon="8.76433">
        <ele>825</ele>
        <time>2021-08-06T09:18:56.331Z</time>
      </trkpt>
      <trkpt lat="46.96789" lon="8.76435">
        <ele>825</ele>
        <time>2021-08-06T09:18:57.331Z</time>
      </trkpt>
      <trkpt lat="46.9679" lon="8.76437">
        <ele>825</ele>
        <time>2021-08-06T09:18:58.331Z</time>
      </trkpt>
      <trkpt lat="46.9679" lon="8.76439">
        <ele>825</ele>
        <time>2021-08-06T09:18:59.332Z</time>
      </trkpt>
      <trkpt lat="46.9679" lon="8.76441">
        <ele>825</ele>
        <time>2021-08-06T09:19:00.331Z</time>
      </trkpt>
      <trkpt lat="46.9679" lon="8.76443">
        <ele>825</ele>
        <time>2021-08-06T09:19:01.331Z</time>
      </trkpt>
      <trkpt lat="46.9679" lon="8.76444">
        <ele>826</ele>
        <time>2021-08-06T09:19:02.331Z</time>
      </trkpt>
      <trkpt lat="46.96791" lon="8.76446">
        <ele>826</ele>
        <time>2021-08-06T09:19:03.332Z</time>
      </trkpt>
      <trkpt lat="46.96792" lon="8.76448">
        <ele>826</ele>
        <time>2021-08-06T09:19:04.332Z</time>
      </trkpt>
      <trkpt lat="46.96792" lon="8.7645">
        <ele>826</ele>
        <time>2021-08-06T09:19:05.331Z</time>
      </trkpt>
      <trkpt lat="46.96792" lon="8.76452">
        <ele>826</ele>
        <time>2021-08-06T09:19:06.331Z</time>
      </trkpt>
      <trkpt lat="46.96792" lon="8.76453">
        <ele>826</ele>
        <time>2021-08-06T09:19:07.331Z</time>
      </trkpt>
      <trkpt lat="46.96791" lon="8.76455">
        <ele>826</ele>
        <time>2021-08-06T09:19:08.331Z</time>
      </trkpt>
      <trkpt lat="46.96791" lon="8.76457">
        <ele>827</ele>
        <time>2021-08-06T09:19:09.331Z</time>
      </trkpt>
      <trkpt lat="46.96791" lon="8.76459">
        <ele>827</ele>
        <time>2021-08-06T09:19:10.331Z</time>
      </trkpt>
      <trkpt lat="46.96791" lon="8.7646">
        <ele>827</ele>
        <time>2021-08-06T09:19:11.331Z</time>
      </trkpt>
      <trkpt lat="46.96791" lon="8.7646">
        <ele>827</ele>
        <time>2021-08-06T09:19:12.331Z</time>
      </trkpt>
      <trkpt lat="46.9679" lon="8.76461">
        <ele>827</ele>
        <time>2021-08-06T09:19:13.331Z</time>
      </trkpt>
      <trkpt lat="46.9679" lon="8.76463">
        <ele>827</ele>
        <time>2021-08-06T09:19:14.331Z</time>
      </trkpt>
      <trkpt lat="46.9679" lon="8.76464">
        <ele>827</ele>
        <time>2021-08-06T09:19:15.331Z</time>
      </trkpt>
      <trkpt lat="46.96791" lon="8.76466">
        <ele>826</ele>
        <time>2021-08-06T09:19:16.331Z</time>
      </trkpt>
      <trkpt lat="46.96792" lon="8.76467">
        <ele>826</ele>
        <time>2021-08-06T09:19:17.331Z</time>
      </trkpt>
      <trkpt lat="46.96792" lon="8.76468">
        <ele>826</ele>
        <time>2021-08-06T09:19:18.331Z</time>
      </trkpt>
      <trkpt lat="46.96792" lon="8.76469">
        <ele>826</ele>
        <time>2021-08-06T09:19:19.331Z</time>
      </trkpt>
      <trkpt lat="46.96792" lon="8.76472">
        <ele>826</ele>
        <time>2021-08-06T09:19:20.331Z</time>
      </trkpt>
      <trkpt lat="46.96791" lon="8.76473">
        <ele>826</ele>
        <time>2021-08-06T09:19:21.331Z</time>
      </trkpt>
      <trkpt lat="46.96791" lon="8.76474">
        <ele>826</ele>
        <time>2021-08-06T09:19:22.331Z</time>
      </trkpt>
      <trkpt lat="46.96791" lon="8.76475">
        <ele>826</ele>
        <time>2021-08-06T09:19:23.331Z</time>
      </trkpt>
      <trkpt lat="46.96792" lon="8.76476">
        <ele>826</ele>
        <time>2021-08-06T09:19:24.331Z</time>
      </trkpt>
      <trkpt lat="46.96792" lon="8.76478">
        <ele>826</ele>
        <time>2021-08-06T09:19:25.331Z</time>
      </trkpt>
      <trkpt lat="46.96791" lon="8.76479">
        <ele>826</ele>
        <time>2021-08-06T09:19:26.332Z</time>
      </trkpt>
      <trkpt lat="46.9679" lon="8.76481">
        <ele>826</ele>
        <time>2021-08-06T09:19:27.332Z</time>
      </trkpt>
      <trkpt lat="46.9679" lon="8.76482">
        <ele>825</ele>
        <time>2021-08-06T09:19:28.332Z</time>
      </trkpt>
      <trkpt lat="46.96789" lon="8.76483">
        <ele>825</ele>
        <time>2021-08-06T09:19:29.332Z</time>
      </trkpt>
      <trkpt lat="46.96789" lon="8.76484">
        <ele>825</ele>
        <time>2021-08-06T09:19:30.331Z</time>
      </trkpt>
      <trkpt lat="46.96788" lon="8.76485">
        <ele>824</ele>
        <time>2021-08-06T09:19:31.331Z</time>
      </trkpt>
      <trkpt lat="46.96787" lon="8.76486">
        <ele>824</ele>
        <time>2021-08-06T09:19:32.331Z</time>
      </trkpt>
      <trkpt lat="46.96787" lon="8.76487">
        <ele>824</ele>
        <time>2021-08-06T09:19:33.331Z</time>
      </trkpt>
      <trkpt lat="46.96787" lon="8.76489">
        <ele>823</ele>
        <time>2021-08-06T09:19:34.332Z</time>
      </trkpt>
      <trkpt lat="46.96786" lon="8.7649">
        <ele>823</ele>
        <time>2021-08-06T09:19:35.331Z</time>
      </trkpt>
      <trkpt lat="46.96785" lon="8.76492">
        <ele>822</ele>
        <time>2021-08-06T09:19:36.331Z</time>
      </trkpt>
      <trkpt lat="46.96784" lon="8.76493">
        <ele>822</ele>
        <time>2021-08-06T09:19:37.331Z</time>
      </trkpt>
      <trkpt lat="46.96784" lon="8.76494">
        <ele>821</ele>
        <time>2021-08-06T09:19:38.331Z</time>
      </trkpt>
      <trkpt lat="46.96783" lon="8.76495">
        <ele>821</ele>
        <time>2021-08-06T09:19:39.332Z</time>
      </trkpt>
      <trkpt lat="46.96782" lon="8.76497">
        <ele>821</ele>
        <time>2021-08-06T09:19:40.332Z</time>
      </trkpt>
      <trkpt lat="46.96781" lon="8.76498">
        <ele>821</ele>
        <time>2021-08-06T09:19:41.332Z</time>
      </trkpt>
      <trkpt lat="46.96781" lon="8.765">
        <ele>822</ele>
        <time>2021-08-06T09:19:42.331Z</time>
      </trkpt>
      <trkpt lat="46.96781" lon="8.76503">
        <ele>822</ele>
        <time>2021-08-06T09:19:43.331Z</time>
      </trkpt>
      <trkpt lat="46.9678" lon="8.76504">
        <ele>823</ele>
        <time>2021-08-06T09:19:44.331Z</time>
      </trkpt>
      <trkpt lat="46.9678" lon="8.76505">
        <ele>823</ele>
        <time>2021-08-06T09:19:45.331Z</time>
      </trkpt>
      <trkpt lat="46.96779" lon="8.76505">
        <ele>824</ele>
        <time>2021-08-06T09:19:46.331Z</time>
      </trkpt>
      <trkpt lat="46.96779" lon="8.76506">
        <ele>824</ele>
        <time>2021-08-06T09:19:47.332Z</time>
      </trkpt>
      <trkpt lat="46.96779" lon="8.76508">
        <ele>825</ele>
        <time>2021-08-06T09:19:48.331Z</time>
      </trkpt>
      <trkpt lat="46.96779" lon="8.76509">
        <ele>826</ele>
        <time>2021-08-06T09:19:49.332Z</time>
      </trkpt>
      <trkpt lat="46.96779" lon="8.7651">
        <ele>826</ele>
        <time>2021-08-06T09:19:50.331Z</time>
      </trkpt>
      <trkpt lat="46.96779" lon="8.76511">
        <ele>826</ele>
        <time>2021-08-06T09:19:51.332Z</time>
      </trkpt>
      <trkpt lat="46.9678" lon="8.76511">
        <ele>827</ele>
        <time>2021-08-06T09:19:52.331Z</time>
      </trkpt>
      <trkpt lat="46.9678" lon="8.76511">
        <ele>827</ele>
        <time>2021-08-06T09:19:53.331Z</time>
      </trkpt>
      <trkpt lat="46.96779" lon="8.76513">
        <ele>827</ele>
        <time>2021-08-06T09:19:54.331Z</time>
      </trkpt>
      <trkpt lat="46.96779" lon="8.76516">
        <ele>827</ele>
        <time>2021-08-06T09:19:55.331Z</time>
      </trkpt>
      <trkpt lat="46.9678" lon="8.76517">
        <ele>827</ele>
        <time>2021-08-06T09:19:56.331Z</time>
      </trkpt>
      <trkpt lat="46.9678" lon="8.76517">
        <ele>827</ele>
        <time>2021-08-06T09:19:57.331Z</time>
      </trkpt>
      <trkpt lat="46.96781" lon="8.76518">
        <ele>827</ele>
        <time>2021-08-06T09:19:58.331Z</time>
      </trkpt>
      <trkpt lat="46.96781" lon="8.76519">
        <ele>827</ele>
        <time>2021-08-06T09:19:59.332Z</time>
      </trkpt>
      <trkpt lat="46.96781" lon="8.76521">
        <ele>827</ele>
        <time>2021-08-06T09:20:00.331Z</time>
      </trkpt>
      <trkpt lat="46.96781" lon="8.76523">
        <ele>827</ele>
        <time>2021-08-06T09:20:01.332Z</time>
      </trkpt>
      <trkpt lat="46.96781" lon="8.76525">
        <ele>827</ele>
        <time>2021-08-06T09:20:02.331Z</time>
      </trkpt>
      <trkpt lat="46.96781" lon="8.76526">
        <ele>827</ele>
        <time>2021-08-06T09:20:03.332Z</time>
      </trkpt>
      <trkpt lat="46.96781" lon="8.76528">
        <ele>827</ele>
        <time>2021-08-06T09:20:04.331Z</time>
      </trkpt>
      <trkpt lat="46.96781" lon="8.76529">
        <ele>827</ele>
        <time>2021-08-06T09:20:05.331Z</time>
      </trkpt>
      <trkpt lat="46.96781" lon="8.76531">
        <ele>827</ele>
        <time>2021-08-06T09:20:06.331Z</time>
      </trkpt>
      <trkpt lat="46.96781" lon="8.76533">
        <ele>827</ele>
        <time>2021-08-06T09:20:07.331Z</time>
      </trkpt>
      <trkpt lat="46.96781" lon="8.76535">
        <ele>827</ele>
        <time>2021-08-06T09:20:08.331Z</time>
      </trkpt>
      <trkpt lat="46.96781" lon="8.76537">
        <ele>828</ele>
        <time>2021-08-06T09:20:09.331Z</time>
      </trkpt>
      <trkpt lat="46.9678" lon="8.76538">
        <ele>828</ele>
        <time>2021-08-06T09:20:10.331Z</time>
      </trkpt>
      <trkpt lat="46.9678" lon="8.76539">
        <ele>828</ele>
        <time>2021-08-06T09:20:11.332Z</time>
      </trkpt>
      <trkpt lat="46.9678" lon="8.76541">
        <ele>829</ele>
        <time>2021-08-06T09:20:12.332Z</time>
      </trkpt>
      <trkpt lat="46.96779" lon="8.76543">
        <ele>829</ele>
        <time>2021-08-06T09:20:13.331Z</time>
      </trkpt>
      <trkpt lat="46.96779" lon="8.76546">
        <ele>830</ele>
        <time>2021-08-06T09:20:14.331Z</time>
      </trkpt>
      <trkpt lat="46.96778" lon="8.76548">
        <ele>830</ele>
        <time>2021-08-06T09:20:15.331Z</time>
      </trkpt>
      <trkpt lat="46.96778" lon="8.7655">
        <ele>830</ele>
        <time>2021-08-06T09:20:16.331Z</time>
      </trkpt>
      <trkpt lat="46.96778" lon="8.76552">
        <ele>831</ele>
        <time>2021-08-06T09:20:17.331Z</time>
      </trkpt>
      <trkpt lat="46.9678" lon="8.76554">
        <ele>831</ele>
        <time>2021-08-06T09:20:18.331Z</time>
      </trkpt>
      <trkpt lat="46.96781" lon="8.76557">
        <ele>832</ele>
        <time>2021-08-06T09:20:19.332Z</time>
      </trkpt>
      <trkpt lat="46.96781" lon="8.76559">
        <ele>832</ele>
        <time>2021-08-06T09:20:20.331Z</time>
      </trkpt>
      <trkpt lat="46.9678" lon="8.76561">
        <ele>832</ele>
        <time>2021-08-06T09:20:21.331Z</time>
      </trkpt>
      <trkpt lat="46.9678" lon="8.76562">
        <ele>833</ele>
        <time>2021-08-06T09:20:22.331Z</time>
      </trkpt>
      <trkpt lat="46.9678" lon="8.76564">
        <ele>833</ele>
        <time>2021-08-06T09:20:23.331Z</time>
      </trkpt>
      <trkpt lat="46.96779" lon="8.76565">
        <ele>834</ele>
        <time>2021-08-06T09:20:24.332Z</time>
      </trkpt>
      <trkpt lat="46.96779" lon="8.76566">
        <ele>834</ele>
        <time>2021-08-06T09:20:25.331Z</time>
      </trkpt>
      <trkpt lat="46.96779" lon="8.76567">
        <ele>834</ele>
        <time>2021-08-06T09:20:26.331Z</time>
      </trkpt>
      <trkpt lat="46.96778" lon="8.76569">
        <ele>835</ele>
        <time>2021-08-06T09:20:27.332Z</time>
      </trkpt>
      <trkpt lat="46.96778" lon="8.7657">
        <ele>835</ele>
        <time>2021-08-06T09:20:28.331Z</time>
      </trkpt>
      <trkpt lat="46.96778" lon="8.76571">
        <ele>835</ele>
        <time>2021-08-06T09:20:29.332Z</time>
      </trkpt>
      <trkpt lat="46.96777" lon="8.76572">
        <ele>836</ele>
        <time>2021-08-06T09:20:30.332Z</time>
      </trkpt>
      <trkpt lat="46.96777" lon="8.76574">
        <ele>836</ele>
        <time>2021-08-06T09:20:31.331Z</time>
      </trkpt>
      <trkpt lat="46.96777" lon="8.76576">
        <ele>836</ele>
        <time>2021-08-06T09:20:32.332Z</time>
      </trkpt>
      <trkpt lat="46.96777" lon="8.76578">
        <ele>836</ele>
        <time>2021-08-06T09:20:33.331Z</time>
      </trkpt>
      <trkpt lat="46.96776" lon="8.76579">
        <ele>836</ele>
        <time>2021-08-06T09:20:34.331Z</time>
      </trkpt>
      <trkpt lat="46.96776" lon="8.7658">
        <ele>836</ele>
        <time>2021-08-06T09:20:35.331Z</time>
      </trkpt>
      <trkpt lat="46.96777" lon="8.76582">
        <ele>836</ele>
        <time>2021-08-06T09:20:36.331Z</time>
      </trkpt>
      <trkpt lat="46.96778" lon="8.76583">
        <ele>836</ele>
        <time>2021-08-06T09:20:37.331Z</time>
      </trkpt>
      <trkpt lat="46.96778" lon="8.76583">
        <ele>837</ele>
        <time>2021-08-06T09:20:38.331Z</time>
      </trkpt>
      <trkpt lat="46.96778" lon="8.76585">
        <ele>837</ele>
        <time>2021-08-06T09:20:39.331Z</time>
      </trkpt>
      <trkpt lat="46.96779" lon="8.76586">
        <ele>837</ele>
        <time>2021-08-06T09:20:40.332Z</time>
      </trkpt>
      <trkpt lat="46.96779" lon="8.76588">
        <ele>837</ele>
        <time>2021-08-06T09:20:41.331Z</time>
      </trkpt>
      <trkpt lat="46.96779" lon="8.76589">
        <ele>838</ele>
        <time>2021-08-06T09:20:42.331Z</time>
      </trkpt>
      <trkpt lat="46.96779" lon="8.7659">
        <ele>838</ele>
        <time>2021-08-06T09:20:43.331Z</time>
      </trkpt>
      <trkpt lat="46.96779" lon="8.76592">
        <ele>838</ele>
        <time>2021-08-06T09:20:44.331Z</time>
      </trkpt>
      <trkpt lat="46.96779" lon="8.76593">
        <ele>838</ele>
        <time>2021-08-06T09:20:45.331Z</time>
      </trkpt>
      <trkpt lat="46.96779" lon="8.76594">
        <ele>838</ele>
        <time>2021-08-06T09:20:46.331Z</time>
      </trkpt>
      <trkpt lat="46.96778" lon="8.76595">
        <ele>838</ele>
        <time>2021-08-06T09:20:47.332Z</time>
      </trkpt>
      <trkpt lat="46.96778" lon="8.76597">
        <ele>838</ele>
        <time>2021-08-06T09:20:48.331Z</time>
      </trkpt>
      <trkpt lat="46.96778" lon="8.76598">
        <ele>838</ele>
        <time>2021-08-06T09:20:49.331Z</time>
      </trkpt>
      <trkpt lat="46.96779" lon="8.766">
        <ele>839</ele>
        <time>2021-08-06T09:20:50.331Z</time>
      </trkpt>
      <trkpt lat="46.96779" lon="8.76601">
        <ele>839</ele>
        <time>2021-08-06T09:20:51.332Z</time>
      </trkpt>
      <trkpt lat="46.96779" lon="8.76603">
        <ele>839</ele>
        <time>2021-08-06T09:20:52.331Z</time>
      </trkpt>
      <trkpt lat="46.96779" lon="8.76605">
        <ele>839</ele>
        <time>2021-08-06T09:20:53.331Z</time>
      </trkpt>
      <trkpt lat="46.96779" lon="8.76606">
        <ele>839</ele>
        <time>2021-08-06T09:20:54.332Z</time>
      </trkpt>
      <trkpt lat="46.96779" lon="8.76607">
        <ele>839</ele>
        <time>2021-08-06T09:20:55.331Z</time>
      </trkpt>
      <trkpt lat="46.96779" lon="8.76607">
        <ele>839</ele>
        <time>2021-08-06T09:20:56.332Z</time>
      </trkpt>
      <trkpt lat="46.96778" lon="8.76608">
        <ele>839</ele>
        <time>2021-08-06T09:20:57.332Z</time>
      </trkpt>
      <trkpt lat="46.96778" lon="8.76609">
        <ele>839</ele>
        <time>2021-08-06T09:20:58.331Z</time>
      </trkpt>
      <trkpt lat="46.96777" lon="8.76611">
        <ele>839</ele>
        <time>2021-08-06T09:20:59.331Z</time>
      </trkpt>
      <trkpt lat="46.96777" lon="8.76612">
        <ele>839</ele>
        <time>2021-08-06T09:21:00.331Z</time>
      </trkpt>
      <trkpt lat="46.96776" lon="8.76614">
        <ele>839</ele>
        <time>2021-08-06T09:21:01.331Z</time>
      </trkpt>
      <trkpt lat="46.96776" lon="8.76616">
        <ele>839</ele>
        <time>2021-08-06T09:21:02.331Z</time>
      </trkpt>
      <trkpt lat="46.96776" lon="8.76618">
        <ele>839</ele>
        <time>2021-08-06T09:21:03.331Z</time>
      </trkpt>
      <trkpt lat="46.96776" lon="8.7662">
        <ele>839</ele>
        <time>2021-08-06T09:21:04.331Z</time>
      </trkpt>
      <trkpt lat="46.96776" lon="8.76621">
        <ele>839</ele>
        <time>2021-08-06T09:21:05.331Z</time>
      </trkpt>
      <trkpt lat="46.96775" lon="8.76623">
        <ele>838</ele>
        <time>2021-08-06T09:21:06.331Z</time>
      </trkpt>
      <trkpt lat="46.96775" lon="8.76624">
        <ele>838</ele>
        <time>2021-08-06T09:21:07.332Z</time>
      </trkpt>
      <trkpt lat="46.96775" lon="8.76625">
        <ele>838</ele>
        <time>2021-08-06T09:21:08.332Z</time>
      </trkpt>
      <trkpt lat="46.96775" lon="8.76626">
        <ele>838</ele>
        <time>2021-08-06T09:21:09.331Z</time>
      </trkpt>
      <trkpt lat="46.96775" lon="8.76627">
        <ele>838</ele>
        <time>2021-08-06T09:21:10.332Z</time>
      </trkpt>
      <trkpt lat="46.96775" lon="8.76628">
        <ele>838</ele>
        <time>2021-08-06T09:21:11.332Z</time>
      </trkpt>
      <trkpt lat="46.96774" lon="8.76629">
        <ele>839</ele>
        <time>2021-08-06T09:21:12.331Z</time>
      </trkpt>
      <trkpt lat="46.96774" lon="8.7663">
        <ele>839</ele>
        <time>2021-08-06T09:21:13.331Z</time>
      </trkpt>
      <trkpt lat="46.96773" lon="8.76631">
        <ele>839</ele>
        <time>2021-08-06T09:21:14.331Z</time>
      </trkpt>
      <trkpt lat="46.96772" lon="8.76632">
        <ele>839</ele>
        <time>2021-08-06T09:21:15.331Z</time>
      </trkpt>
      <trkpt lat="46.96772" lon="8.76634">
        <ele>840</ele>
        <time>2021-08-06T09:21:16.331Z</time>
      </trkpt>
      <trkpt lat="46.96771" lon="8.76634">
        <ele>840</ele>
        <time>2021-08-06T09:21:17.331Z</time>
      </trkpt>
      <trkpt lat="46.9677" lon="8.76636">
        <ele>840</ele>
        <time>2021-08-06T09:21:18.331Z</time>
      </trkpt>
      <trkpt lat="46.96768" lon="8.76638">
        <ele>840</ele>
        <time>2021-08-06T09:21:19.332Z</time>
      </trkpt>
      <trkpt lat="46.96768" lon="8.7664">
        <ele>840</ele>
        <time>2021-08-06T09:21:20.331Z</time>
      </trkpt>
      <trkpt lat="46.96768" lon="8.76641">
        <ele>840</ele>
        <time>2021-08-06T09:21:21.331Z</time>
      </trkpt>
      <trkpt lat="46.96768" lon="8.76642">
        <ele>840</ele>
        <time>2021-08-06T09:21:22.331Z</time>
      </trkpt>
      <trkpt lat="46.96768" lon="8.76642">
        <ele>840</ele>
        <time>2021-08-06T09:21:23.332Z</time>
      </trkpt>
      <trkpt lat="46.96767" lon="8.76644">
        <ele>840</ele>
        <time>2021-08-06T09:21:24.331Z</time>
      </trkpt>
      <trkpt lat="46.96766" lon="8.76645">
        <ele>841</ele>
        <time>2021-08-06T09:21:25.331Z</time>
      </trkpt>
      <trkpt lat="46.96765" lon="8.76646">
        <ele>841</ele>
        <time>2021-08-06T09:21:26.331Z</time>
      </trkpt>
      <trkpt lat="46.96765" lon="8.76648">
        <ele>841</ele>
        <time>2021-08-06T09:21:27.331Z</time>
      </trkpt>
      <trkpt lat="46.96764" lon="8.76649">
        <ele>841</ele>
        <time>2021-08-06T09:21:28.332Z</time>
      </trkpt>
      <trkpt lat="46.96763" lon="8.7665">
        <ele>842</ele>
        <time>2021-08-06T09:21:29.331Z</time>
      </trkpt>
      <trkpt lat="46.96763" lon="8.76652">
        <ele>842</ele>
        <time>2021-08-06T09:21:30.331Z</time>
      </trkpt>
      <trkpt lat="46.96763" lon="8.76653">
        <ele>842</ele>
        <time>2021-08-06T09:21:31.331Z</time>
      </trkpt>
      <trkpt lat="46.96763" lon="8.76654">
        <ele>843</ele>
        <time>2021-08-06T09:21:32.331Z</time>
      </trkpt>
      <trkpt lat="46.96764" lon="8.76655">
        <ele>843</ele>
        <time>2021-08-06T09:21:33.331Z</time>
      </trkpt>
      <trkpt lat="46.96764" lon="8.76656">
        <ele>844</ele>
        <time>2021-08-06T09:21:34.331Z</time>
      </trkpt>
      <trkpt lat="46.96764" lon="8.76657">
        <ele>844</ele>
        <time>2021-08-06T09:21:35.332Z</time>
      </trkpt>
      <trkpt lat="46.96764" lon="8.76658">
        <ele>844</ele>
        <time>2021-08-06T09:21:36.332Z</time>
      </trkpt>
      <trkpt lat="46.96765" lon="8.76659">
        <ele>845</ele>
        <time>2021-08-06T09:21:37.331Z</time>
      </trkpt>
      <trkpt lat="46.96766" lon="8.76661">
        <ele>845</ele>
        <time>2021-08-06T09:21:38.331Z</time>
      </trkpt>
      <trkpt lat="46.96767" lon="8.76662">
        <ele>845</ele>
        <time>2021-08-06T09:21:39.331Z</time>
      </trkpt>
      <trkpt lat="46.96767" lon="8.76663">
        <ele>846</ele>
        <time>2021-08-06T09:21:40.331Z</time>
      </trkpt>
      <trkpt lat="46.96768" lon="8.76664">
        <ele>846</ele>
        <time>2021-08-06T09:21:41.331Z</time>
      </trkpt>
      <trkpt lat="46.96768" lon="8.76665">
        <ele>846</ele>
        <time>2021-08-06T09:21:42.331Z</time>
      </trkpt>
      <trkpt lat="46.96769" lon="8.76666">
        <ele>846</ele>
        <time>2021-08-06T09:21:43.331Z</time>
      </trkpt>
      <trkpt lat="46.96769" lon="8.76667">
        <ele>845</ele>
        <time>2021-08-06T09:21:44.331Z</time>
      </trkpt>
      <trkpt lat="46.96769" lon="8.76669">
        <ele>845</ele>
        <time>2021-08-06T09:21:45.331Z</time>
      </trkpt>
      <trkpt lat="46.96769" lon="8.7667">
        <ele>845</ele>
        <time>2021-08-06T09:21:46.331Z</time>
      </trkpt>
      <trkpt lat="46.9677" lon="8.76672">
        <ele>844</ele>
        <time>2021-08-06T09:21:47.332Z</time>
      </trkpt>
      <trkpt lat="46.9677" lon="8.76673">
        <ele>844</ele>
        <time>2021-08-06T09:21:48.332Z</time>
      </trkpt>
      <trkpt lat="46.9677" lon="8.76674">
        <ele>844</ele>
        <time>2021-08-06T09:21:49.331Z</time>
      </trkpt>
      <trkpt lat="46.9677" lon="8.76675">
        <ele>843</ele>
        <time>2021-08-06T09:21:50.331Z</time>
      </trkpt>
      <trkpt lat="46.9677" lon="8.76676">
        <ele>843</ele>
        <time>2021-08-06T09:21:51.331Z</time>
      </trkpt>
      <trkpt lat="46.96769" lon="8.76677">
        <ele>843</ele>
        <time>2021-08-06T09:21:52.332Z</time>
      </trkpt>
      <trkpt lat="46.96769" lon="8.76678">
        <ele>842</ele>
        <time>2021-08-06T09:21:53.331Z</time>
      </trkpt>
      <trkpt lat="46.96769" lon="8.76678">
        <ele>842</ele>
        <time>2021-08-06T09:21:54.332Z</time>
      </trkpt>
      <trkpt lat="46.96769" lon="8.76679">
        <ele>842</ele>
        <time>2021-08-06T09:21:55.331Z</time>
      </trkpt>
      <trkpt lat="46.9677" lon="8.7668">
        <ele>841</ele>
        <time>2021-08-06T09:21:56.331Z</time>
      </trkpt>
      <trkpt lat="46.9677" lon="8.76681">
        <ele>841</ele>
        <time>2021-08-06T09:21:57.331Z</time>
      </trkpt>
      <trkpt lat="46.9677" lon="8.76683">
        <ele>841</ele>
        <time>2021-08-06T09:21:58.331Z</time>
      </trkpt>
      <trkpt lat="46.9677" lon="8.76685">
        <ele>841</ele>
        <time>2021-08-06T09:21:59.332Z</time>
      </trkpt>
      <trkpt lat="46.96771" lon="8.76686">
        <ele>841</ele>
        <time>2021-08-06T09:22:00.332Z</time>
      </trkpt>
      <trkpt lat="46.96772" lon="8.76688">
        <ele>840</ele>
        <time>2021-08-06T09:22:01.331Z</time>
      </trkpt>
      <trkpt lat="46.96773" lon="8.7669">
        <ele>840</ele>
        <time>2021-08-06T09:22:02.331Z</time>
      </trkpt>
      <trkpt lat="46.96773" lon="8.76691">
        <ele>840</ele>
        <time>2021-08-06T09:22:03.332Z</time>
      </trkpt>
      <trkpt lat="46.96773" lon="8.76692">
        <ele>840</ele>
        <time>2021-08-06T09:22:04.331Z</time>
      </trkpt>
      <trkpt lat="46.96771" lon="8.76693">
        <ele>840</ele>
        <time>2021-08-06T09:22:05.332Z</time>
      </trkpt>
      <trkpt lat="46.96772" lon="8.76695">
        <ele>840</ele>
        <time>2021-08-06T09:22:06.331Z</time>
      </trkpt>
      <trkpt lat="46.96772" lon="8.76696">
        <ele>840</ele>
        <time>2021-08-06T09:22:07.331Z</time>
      </trkpt>
      <trkpt lat="46.96772" lon="8.76698">
        <ele>840</ele>
        <time>2021-08-06T09:22:08.331Z</time>
      </trkpt>
      <trkpt lat="46.96772" lon="8.76699">
        <ele>840</ele>
        <time>2021-08-06T09:22:09.332Z</time>
      </trkpt>
      <trkpt lat="46.96773" lon="8.76699">
        <ele>840</ele>
        <time>2021-08-06T09:22:10.332Z</time>
      </trkpt>
      <trkpt lat="46.96773" lon="8.767">
        <ele>840</ele>
        <time>2021-08-06T09:22:11.331Z</time>
      </trkpt>
      <trkpt lat="46.96773" lon="8.76701">
        <ele>840</ele>
        <time>2021-08-06T09:22:12.332Z</time>
      </trkpt>
      <trkpt lat="46.96773" lon="8.76702">
        <ele>840</ele>
        <time>2021-08-06T09:22:13.331Z</time>
      </trkpt>
      <trkpt lat="46.96772" lon="8.76703">
        <ele>840</ele>
        <time>2021-08-06T09:22:14.332Z</time>
      </trkpt>
      <trkpt lat="46.96772" lon="8.76705">
        <ele>840</ele>
        <time>2021-08-06T09:22:15.332Z</time>
      </trkpt>
      <trkpt lat="46.96772" lon="8.76706">
        <ele>839</ele>
        <time>2021-08-06T09:22:16.332Z</time>
      </trkpt>
      <trkpt lat="46.96773" lon="8.76707">
        <ele>839</ele>
        <time>2021-08-06T09:22:17.331Z</time>
      </trkpt>
      <trkpt lat="46.96773" lon="8.76708">
        <ele>839</ele>
        <time>2021-08-06T09:22:18.331Z</time>
      </trkpt>
      <trkpt lat="46.96774" lon="8.76709">
        <ele>838</ele>
        <time>2021-08-06T09:22:19.331Z</time>
      </trkpt>
      <trkpt lat="46.96774" lon="8.76709">
        <ele>838</ele>
        <time>2021-08-06T09:22:20.332Z</time>
      </trkpt>
      <trkpt lat="46.96773" lon="8.76711">
        <ele>838</ele>
        <time>2021-08-06T09:22:21.331Z</time>
      </trkpt>
      <trkpt lat="46.96772" lon="8.76712">
        <ele>838</ele>
        <time>2021-08-06T09:22:22.331Z</time>
      </trkpt>
      <trkpt lat="46.96772" lon="8.76713">
        <ele>837</ele>
        <time>2021-08-06T09:22:23.331Z</time>
      </trkpt>
      <trkpt lat="46.96772" lon="8.76716">
        <ele>837</ele>
        <time>2021-08-06T09:22:24.331Z</time>
      </trkpt>
      <trkpt lat="46.96773" lon="8.76717">
        <ele>837</ele>
        <time>2021-08-06T09:22:25.332Z</time>
      </trkpt>
      <trkpt lat="46.96773" lon="8.76719">
        <ele>837</ele>
        <time>2021-08-06T09:22:26.331Z</time>
      </trkpt>
      <trkpt lat="46.96774" lon="8.7672">
        <ele>837</ele>
        <time>2021-08-06T09:22:27.331Z</time>
      </trkpt>
      <trkpt lat="46.96774" lon="8.76721">
        <ele>836</ele>
        <time>2021-08-06T09:22:28.332Z</time>
      </trkpt>
      <trkpt lat="46.96774" lon="8.76722">
        <ele>836</ele>
        <time>2021-08-06T09:22:29.331Z</time>
      </trkpt>
      <trkpt lat="46.96773" lon="8.76723">
        <ele>836</ele>
        <time>2021-08-06T09:22:30.331Z</time>
      </trkpt>
      <trkpt lat="46.96773" lon="8.76725">
        <ele>836</ele>
        <time>2021-08-06T09:22:31.332Z</time>
      </trkpt>
      <trkpt lat="46.96773" lon="8.76726">
        <ele>836</ele>
        <time>2021-08-06T09:22:32.331Z</time>
      </trkpt>
      <trkpt lat="46.96773" lon="8.76727">
        <ele>836</ele>
        <time>2021-08-06T09:22:33.331Z</time>
      </trkpt>
      <trkpt lat="46.96773" lon="8.76727">
        <ele>836</ele>
        <time>2021-08-06T09:22:34.332Z</time>
      </trkpt>
      <trkpt lat="46.96773" lon="8.76728">
        <ele>836</ele>
        <time>2021-08-06T09:22:35.332Z</time>
      </trkpt>
      <trkpt lat="46.96773" lon="8.76729">
        <ele>836</ele>
        <time>2021-08-06T09:22:36.331Z</time>
      </trkpt>
      <trkpt lat="46.96773" lon="8.7673">
        <ele>835</ele>
        <time>2021-08-06T09:22:37.331Z</time>
      </trkpt>
      <trkpt lat="46.96772" lon="8.76731">
        <ele>835</ele>
        <time>2021-08-06T09:22:38.331Z</time>
      </trkpt>
      <trkpt lat="46.96772" lon="8.76733">
        <ele>835</ele>
        <time>2021-08-06T09:22:39.332Z</time>
      </trkpt>
      <trkpt lat="46.96772" lon="8.76733">
        <ele>835</ele>
        <time>2021-08-06T09:22:40.331Z</time>
      </trkpt>
      <trkpt lat="46.96773" lon="8.76735">
        <ele>835</ele>
        <time>2021-08-06T09:22:41.332Z</time>
      </trkpt>
      <trkpt lat="46.96772" lon="8.76736">
        <ele>835</ele>
        <time>2021-08-06T09:22:42.331Z</time>
      </trkpt>
      <trkpt lat="46.9677" lon="8.76737">
        <ele>835</ele>
        <time>2021-08-06T09:22:43.331Z</time>
      </trkpt>
      <trkpt lat="46.9677" lon="8.76739">
        <ele>835</ele>
        <time>2021-08-06T09:22:44.331Z</time>
      </trkpt>
      <trkpt lat="46.96769" lon="8.76741">
        <ele>835</ele>
        <time>2021-08-06T09:22:45.331Z</time>
      </trkpt>
      <trkpt lat="46.96768" lon="8.76742">
        <ele>836</ele>
        <time>2021-08-06T09:22:46.331Z</time>
      </trkpt>
      <trkpt lat="46.96768" lon="8.76742">
        <ele>836</ele>
        <time>2021-08-06T09:22:47.331Z</time>
      </trkpt>
      <trkpt lat="46.96768" lon="8.76743">
        <ele>836</ele>
        <time>2021-08-06T09:22:48.331Z</time>
      </trkpt>
      <trkpt lat="46.96768" lon="8.76744">
        <ele>836</ele>
        <time>2021-08-06T09:22:49.332Z</time>
      </trkpt>
      <trkpt lat="46.96768" lon="8.76746">
        <ele>836</ele>
        <time>2021-08-06T09:22:50.332Z</time>
      </trkpt>
      <trkpt lat="46.96767" lon="8.76747">
        <ele>836</ele>
        <time>2021-08-06T09:22:51.331Z</time>
      </trkpt>
      <trkpt lat="46.96767" lon="8.76748">
        <ele>836</ele>
        <time>2021-08-06T09:22:52.331Z</time>
      </trkpt>
      <trkpt lat="46.96766" lon="8.76749">
        <ele>836</ele>
        <time>2021-08-06T09:22:53.331Z</time>
      </trkpt>
      <trkpt lat="46.96766" lon="8.76751">
        <ele>836</ele>
        <time>2021-08-06T09:22:54.331Z</time>
      </trkpt>
      <trkpt lat="46.96765" lon="8.76752">
        <ele>836</ele>
        <time>2021-08-06T09:22:55.332Z</time>
      </trkpt>
      <trkpt lat="46.96764" lon="8.76753">
        <ele>837</ele>
        <time>2021-08-06T09:22:56.331Z</time>
      </trkpt>
      <trkpt lat="46.96764" lon="8.76755">
        <ele>837</ele>
        <time>2021-08-06T09:22:57.331Z</time>
      </trkpt>
      <trkpt lat="46.96763" lon="8.76756">
        <ele>837</ele>
        <time>2021-08-06T09:22:58.332Z</time>
      </trkpt>
      <trkpt lat="46.96763" lon="8.76757">
        <ele>837</ele>
        <time>2021-08-06T09:22:59.331Z</time>
      </trkpt>
      <trkpt lat="46.96763" lon="8.76758">
        <ele>838</ele>
        <time>2021-08-06T09:23:00.332Z</time>
      </trkpt>
      <trkpt lat="46.96762" lon="8.7676">
        <ele>838</ele>
        <time>2021-08-06T09:23:01.331Z</time>
      </trkpt>
      <trkpt lat="46.96761" lon="8.76762">
        <ele>838</ele>
        <time>2021-08-06T09:23:02.332Z</time>
      </trkpt>
      <trkpt lat="46.9676" lon="8.76763">
        <ele>839</ele>
        <time>2021-08-06T09:23:03.332Z</time>
      </trkpt>
      <trkpt lat="46.96761" lon="8.76765">
        <ele>839</ele>
        <time>2021-08-06T09:23:04.331Z</time>
      </trkpt>
      <trkpt lat="46.96761" lon="8.76767">
        <ele>839</ele>
        <time>2021-08-06T09:23:05.332Z</time>
      </trkpt>
      <trkpt lat="46.96761" lon="8.76768">
        <ele>839</ele>
        <time>2021-08-06T09:23:06.331Z</time>
      </trkpt>
      <trkpt lat="46.96761" lon="8.76769">
        <ele>840</ele>
        <time>2021-08-06T09:23:07.331Z</time>
      </trkpt>
      <trkpt lat="46.96761" lon="8.7677">
        <ele>840</ele>
        <time>2021-08-06T09:23:08.331Z</time>
      </trkpt>
      <trkpt lat="46.96761" lon="8.76772">
        <ele>840</ele>
        <time>2021-08-06T09:23:09.331Z</time>
      </trkpt>
      <trkpt lat="46.96761" lon="8.76773">
        <ele>841</ele>
        <time>2021-08-06T09:23:10.331Z</time>
      </trkpt>
      <trkpt lat="46.9676" lon="8.76774">
        <ele>841</ele>
        <time>2021-08-06T09:23:11.332Z</time>
      </trkpt>
      <trkpt lat="46.96761" lon="8.76774">
        <ele>841</ele>
        <time>2021-08-06T09:23:12.331Z</time>
      </trkpt>
      <trkpt lat="46.96761" lon="8.76775">
        <ele>842</ele>
        <time>2021-08-06T09:23:13.332Z</time>
      </trkpt>
      <trkpt lat="46.96762" lon="8.76777">
        <ele>842</ele>
        <time>2021-08-06T09:23:14.331Z</time>
      </trkpt>
      <trkpt lat="46.96763" lon="8.76778">
        <ele>842</ele>
        <time>2021-08-06T09:23:15.331Z</time>
      </trkpt>
      <trkpt lat="46.96763" lon="8.7678">
        <ele>843</ele>
        <time>2021-08-06T09:23:16.331Z</time>
      </trkpt>
      <trkpt lat="46.96764" lon="8.76781">
        <ele>843</ele>
        <time>2021-08-06T09:23:17.332Z</time>
      </trkpt>
      <trkpt lat="46.96764" lon="8.76783">
        <ele>843</ele>
        <time>2021-08-06T09:23:18.331Z</time>
      </trkpt>
      <trkpt lat="46.96763" lon="8.76785">
        <ele>843</ele>
        <time>2021-08-06T09:23:19.332Z</time>
      </trkpt>
      <trkpt lat="46.96763" lon="8.76786">
        <ele>843</ele>
        <time>2021-08-06T09:23:20.331Z</time>
      </trkpt>
      <trkpt lat="46.96763" lon="8.76787">
        <ele>843</ele>
        <time>2021-08-06T09:23:21.331Z</time>
      </trkpt>
      <trkpt lat="46.96763" lon="8.76788">
        <ele>843</ele>
        <time>2021-08-06T09:23:22.331Z</time>
      </trkpt>
      <trkpt lat="46.96762" lon="8.76788">
        <ele>843</ele>
        <time>2021-08-06T09:23:23.331Z</time>
      </trkpt>
      <trkpt lat="46.96761" lon="8.76789">
        <ele>843</ele>
        <time>2021-08-06T09:23:24.332Z</time>
      </trkpt>
      <trkpt lat="46.96761" lon="8.7679">
        <ele>843</ele>
        <time>2021-08-06T09:23:25.332Z</time>
      </trkpt>
      <trkpt lat="46.96761" lon="8.76792">
        <ele>843</ele>
        <time>2021-08-06T09:23:26.332Z</time>
      </trkpt>
      <trkpt lat="46.96761" lon="8.76793">
        <ele>843</ele>
        <time>2021-08-06T09:23:27.331Z</time>
      </trkpt>
      <trkpt lat="46.96761" lon="8.76795">
        <ele>844</ele>
        <time>2021-08-06T09:23:28.332Z</time>
      </trkpt>
      <trkpt lat="46.96761" lon="8.76797">
        <ele>844</ele>
        <time>2021-08-06T09:23:29.332Z</time>
      </trkpt>
      <trkpt lat="46.96761" lon="8.768">
        <ele>844</ele>
        <time>2021-08-06T09:23:30.331Z</time>
      </trkpt>
      <trkpt lat="46.9676" lon="8.76801">
        <ele>844</ele>
        <time>2021-08-06T09:23:31.331Z</time>
      </trkpt>
      <trkpt lat="46.9676" lon="8.76802">
        <ele>844</ele>
        <time>2021-08-06T09:23:32.331Z</time>
      </trkpt>
      <trkpt lat="46.9676" lon="8.76804">
        <ele>845</ele>
        <time>2021-08-06T09:23:33.332Z</time>
      </trkpt>
      <trkpt lat="46.9676" lon="8.76805">
        <ele>845</ele>
        <time>2021-08-06T09:23:34.332Z</time>
      </trkpt>
      <trkpt lat="46.96759" lon="8.76806">
        <ele>846</ele>
        <time>2021-08-06T09:23:35.331Z</time>
      </trkpt>
      <trkpt lat="46.96758" lon="8.76808">
        <ele>847</ele>
        <time>2021-08-06T09:23:36.331Z</time>
      </trkpt>
      <trkpt lat="46.96758" lon="8.76809">
        <ele>847</ele>
        <time>2021-08-06T09:23:37.331Z</time>
      </trkpt>
      <trkpt lat="46.96757" lon="8.76811">
        <ele>848</ele>
        <time>2021-08-06T09:23:38.331Z</time>
      </trkpt>
      <trkpt lat="46.96757" lon="8.76813">
        <ele>849</ele>
        <time>2021-08-06T09:23:39.331Z</time>
      </trkpt>
      <trkpt lat="46.96757" lon="8.76813">
        <ele>849</ele>
        <time>2021-08-06T09:23:40.331Z</time>
      </trkpt>
      <trkpt lat="46.96756" lon="8.76813">
        <ele>850</ele>
        <time>2021-08-06T09:23:41.331Z</time>
      </trkpt>
      <trkpt lat="46.96756" lon="8.76812">
        <ele>850</ele>
        <time>2021-08-06T09:23:42.332Z</time>
      </trkpt>
      <trkpt lat="46.96756" lon="8.76812">
        <ele>850</ele>
        <time>2021-08-06T09:23:43.331Z</time>
      </trkpt>
      <trkpt lat="46.96757" lon="8.76811">
        <ele>850</ele>
        <time>2021-08-06T09:23:44.332Z</time>
      </trkpt>
      <trkpt lat="46.96757" lon="8.7681">
        <ele>850</ele>
        <time>2021-08-06T09:23:45.331Z</time>
      </trkpt>
      <trkpt lat="46.96757" lon="8.7681">
        <ele>850</ele>
        <time>2021-08-06T09:23:46.332Z</time>
      </trkpt>
      <trkpt lat="46.96756" lon="8.76809">
        <ele>849</ele>
        <time>2021-08-06T09:23:47.332Z</time>
      </trkpt>
      <trkpt lat="46.96756" lon="8.76809">
        <ele>849</ele>
        <time>2021-08-06T09:23:48.332Z</time>
      </trkpt>
      <trkpt lat="46.96757" lon="8.76809">
        <ele>849</ele>
        <time>2021-08-06T09:23:49.331Z</time>
      </trkpt>
      <trkpt lat="46.96758" lon="8.76808">
        <ele>848</ele>
        <time>2021-08-06T09:23:50.331Z</time>
      </trkpt>
      <trkpt lat="46.96758" lon="8.76808">
        <ele>848</ele>
        <time>2021-08-06T09:23:51.331Z</time>
      </trkpt>
      <trkpt lat="46.96758" lon="8.76808">
        <ele>848</ele>
        <time>2021-08-06T09:23:52.331Z</time>
      </trkpt>
      <trkpt lat="46.96759" lon="8.76807">
        <ele>848</ele>
        <time>2021-08-06T09:23:53.331Z</time>
      </trkpt>
      <trkpt lat="46.96759" lon="8.76807">
        <ele>848</ele>
        <time>2021-08-06T09:23:54.331Z</time>
      </trkpt>
      <trkpt lat="46.96759" lon="8.76807">
        <ele>847</ele>
        <time>2021-08-06T09:23:55.331Z</time>
      </trkpt>
      <trkpt lat="46.96759" lon="8.76806">
        <ele>847</ele>
        <time>2021-08-06T09:23:56.331Z</time>
      </trkpt>
      <trkpt lat="46.9676" lon="8.76806">
        <ele>847</ele>
        <time>2021-08-06T09:23:57.331Z</time>
      </trkpt>
      <trkpt lat="46.9676" lon="8.76806">
        <ele>847</ele>
        <time>2021-08-06T09:23:58.331Z</time>
      </trkpt>
      <trkpt lat="46.9676" lon="8.76805">
        <ele>847</ele>
        <time>2021-08-06T09:23:59.331Z</time>
      </trkpt>
      <trkpt lat="46.96761" lon="8.76805">
        <ele>847</ele>
        <time>2021-08-06T09:24:00.331Z</time>
      </trkpt>
      <trkpt lat="46.96761" lon="8.76804">
        <ele>847</ele>
        <time>2021-08-06T09:24:01.331Z</time>
      </trkpt>
      <trkpt lat="46.96762" lon="8.76803">
        <ele>847</ele>
        <time>2021-08-06T09:24:02.331Z</time>
      </trkpt>
      <trkpt lat="46.96762" lon="8.76802">
        <ele>848</ele>
        <time>2021-08-06T09:24:03.331Z</time>
      </trkpt>
      <trkpt lat="46.96761" lon="8.76802">
        <ele>847</ele>
        <time>2021-08-06T09:24:04.331Z</time>
      </trkpt>
      <trkpt lat="46.9676" lon="8.76801">
        <ele>847</ele>
        <time>2021-08-06T09:24:05.331Z</time>
      </trkpt>
      <trkpt lat="46.96759" lon="8.76801">
        <ele>847</ele>
        <time>2021-08-06T09:24:06.332Z</time>
      </trkpt>
      <trkpt lat="46.96759" lon="8.768">
        <ele>847</ele>
        <time>2021-08-06T09:24:07.332Z</time>
      </trkpt>
      <trkpt lat="46.96759" lon="8.768">
        <ele>847</ele>
        <time>2021-08-06T09:24:08.331Z</time>
      </trkpt>
      <trkpt lat="46.9676" lon="8.768">
        <ele>847</ele>
        <time>2021-08-06T09:24:09.332Z</time>
      </trkpt>
      <trkpt lat="46.9676" lon="8.76799">
        <ele>846</ele>
        <time>2021-08-06T09:24:10.332Z</time>
      </trkpt>
      <trkpt lat="46.96759" lon="8.76798">
        <ele>846</ele>
        <time>2021-08-06T09:24:11.331Z</time>
      </trkpt>
      <trkpt lat="46.96759" lon="8.76798">
        <ele>846</ele>
        <time>2021-08-06T09:24:12.331Z</time>
      </trkpt>
      <trkpt lat="46.96759" lon="8.76797">
        <ele>846</ele>
        <time>2021-08-06T09:24:13.331Z</time>
      </trkpt>
      <trkpt lat="46.96758" lon="8.76797">
        <ele>845</ele>
        <time>2021-08-06T09:24:14.332Z</time>
      </trkpt>
      <trkpt lat="46.96757" lon="8.76797">
        <ele>845</ele>
        <time>2021-08-06T09:24:15.331Z</time>
      </trkpt>
      <trkpt lat="46.96757" lon="8.76798">
        <ele>846</ele>
        <time>2021-08-06T09:24:16.331Z</time>
      </trkpt>
      <trkpt lat="46.96757" lon="8.76798">
        <ele>846</ele>
        <time>2021-08-06T09:24:17.331Z</time>
      </trkpt>
      <trkpt lat="46.96757" lon="8.76799">
        <ele>846</ele>
        <time>2021-08-06T09:24:18.332Z</time>
      </trkpt>
      <trkpt lat="46.96757" lon="8.76799">
        <ele>846</ele>
        <time>2021-08-06T09:24:19.332Z</time>
      </trkpt>
      <trkpt lat="46.96756" lon="8.76798">
        <ele>846</ele>
        <time>2021-08-06T09:24:20.331Z</time>
      </trkpt>
      <trkpt lat="46.96756" lon="8.76797">
        <ele>846</ele>
        <time>2021-08-06T09:24:21.331Z</time>
      </trkpt>
      <trkpt lat="46.96756" lon="8.76796">
        <ele>847</ele>
        <time>2021-08-06T09:24:22.331Z</time>
      </trkpt>
      <trkpt lat="46.96756" lon="8.76796">
        <ele>847</ele>
        <time>2021-08-06T09:24:23.332Z</time>
      </trkpt>
      <trkpt lat="46.96756" lon="8.76795">
        <ele>848</ele>
        <time>2021-08-06T09:24:24.331Z</time>
      </trkpt>
      <trkpt lat="46.96756" lon="8.76792">
        <ele>849</ele>
        <time>2021-08-06T09:24:25.332Z</time>
      </trkpt>
      <trkpt lat="46.96755" lon="8.76792">
        <ele>850</ele>
        <time>2021-08-06T09:24:26.332Z</time>
      </trkpt>
      <trkpt lat="46.96755" lon="8.76791">
        <ele>850</ele>
        <time>2021-08-06T09:24:27.332Z</time>
      </trkpt>
      <trkpt lat="46.96755" lon="8.76789">
        <ele>850</ele>
        <time>2021-08-06T09:24:28.332Z</time>
      </trkpt>
      <trkpt lat="46.96755" lon="8.76788">
        <ele>850</ele>
        <time>2021-08-06T09:24:29.332Z</time>
      </trkpt>
      <trkpt lat="46.96755" lon="8.76787">
        <ele>850</ele>
        <time>2021-08-06T09:24:30.332Z</time>
      </trkpt>
      <trkpt lat="46.96755" lon="8.76787">
        <ele>850</ele>
        <time>2021-08-06T09:24:31.332Z</time>
      </trkpt>
      <trkpt lat="46.96754" lon="8.76786">
        <ele>850</ele>
        <time>2021-08-06T09:24:32.332Z</time>
      </trkpt>
      <trkpt lat="46.96754" lon="8.76785">
        <ele>850</ele>
        <time>2021-08-06T09:24:33.332Z</time>
      </trkpt>
      <trkpt lat="46.96755" lon="8.76785">
        <ele>851</ele>
        <time>2021-08-06T09:24:34.332Z</time>
      </trkpt>
      <trkpt lat="46.96756" lon="8.76784">
        <ele>852</ele>
        <time>2021-08-06T09:24:35.332Z</time>
      </trkpt>
      <trkpt lat="46.96756" lon="8.76783">
        <ele>852</ele>
        <time>2021-08-06T09:24:36.332Z</time>
      </trkpt>
      <trkpt lat="46.96757" lon="8.76782">
        <ele>853</ele>
        <time>2021-08-06T09:24:37.332Z</time>
      </trkpt>
      <trkpt lat="46.96756" lon="8.76781">
        <ele>854</ele>
        <time>2021-08-06T09:24:38.332Z</time>
      </trkpt>
      <trkpt lat="46.96756" lon="8.76781">
        <ele>855</ele>
        <time>2021-08-06T09:24:39.332Z</time>
      </trkpt>
      <trkpt lat="46.96756" lon="8.7678">
        <ele>855</ele>
        <time>2021-08-06T09:24:40.332Z</time>
      </trkpt>
      <trkpt lat="46.96757" lon="8.76779">
        <ele>856</ele>
        <time>2021-08-06T09:24:41.332Z</time>
      </trkpt>
      <trkpt lat="46.96757" lon="8.76779">
        <ele>857</ele>
        <time>2021-08-06T09:24:42.332Z</time>
      </trkpt>
      <trkpt lat="46.96758" lon="8.76778">
        <ele>857</ele>
        <time>2021-08-06T09:24:43.332Z</time>
      </trkpt>
      <trkpt lat="46.96758" lon="8.76777">
        <ele>858</ele>
        <time>2021-08-06T09:24:44.332Z</time>
      </trkpt>
      <trkpt lat="46.96759" lon="8.76776">
        <ele>859</ele>
        <time>2021-08-06T09:24:45.332Z</time>
      </trkpt>
      <trkpt lat="46.96759" lon="8.76775">
        <ele>860</ele>
        <time>2021-08-06T09:24:46.332Z</time>
      </trkpt>
      <trkpt lat="46.96759" lon="8.76774">
        <ele>861</ele>
        <time>2021-08-06T09:24:47.332Z</time>
      </trkpt>
      <trkpt lat="46.96759" lon="8.76774">
        <ele>862</ele>
        <time>2021-08-06T09:24:48.332Z</time>
      </trkpt>
      <trkpt lat="46.96758" lon="8.76774">
        <ele>863</ele>
        <time>2021-08-06T09:24:49.332Z</time>
      </trkpt>
      <trkpt lat="46.96758" lon="8.76774">
        <ele>863</ele>
        <time>2021-08-06T09:24:50.332Z</time>
      </trkpt>
      <trkpt lat="46.96758" lon="8.76773">
        <ele>863</ele>
        <time>2021-08-06T09:24:51.332Z</time>
      </trkpt>
      <trkpt lat="46.96758" lon="8.76773">
        <ele>863</ele>
        <time>2021-08-06T09:24:52.332Z</time>
      </trkpt>
      <trkpt lat="46.96757" lon="8.76772">
        <ele>864</ele>
        <time>2021-08-06T09:24:53.332Z</time>
      </trkpt>
      <trkpt lat="46.96756" lon="8.76765">
        <ele>865</ele>
        <time>2021-08-06T09:24:54.333Z</time>
      </trkpt>
      <trkpt lat="46.96756" lon="8.76765">
        <ele>865</ele>
        <time>2021-08-06T09:24:55.333Z</time>
      </trkpt>
      <trkpt lat="46.96756" lon="8.76765">
        <ele>865</ele>
        <time>2021-08-06T09:24:56.332Z</time>
      </trkpt>
      <trkpt lat="46.96755" lon="8.76764">
        <ele>865</ele>
        <time>2021-08-06T09:24:57.333Z</time>
      </trkpt>
      <trkpt lat="46.96753" lon="8.76764">
        <ele>864</ele>
        <time>2021-08-06T09:24:58.333Z</time>
      </trkpt>
      <trkpt lat="46.96753" lon="8.76765">
        <ele>864</ele>
        <time>2021-08-06T09:24:59.333Z</time>
      </trkpt>
      <trkpt lat="46.96754" lon="8.76769">
        <ele>865</ele>
        <time>2021-08-06T09:25:00.334Z</time>
      </trkpt>
      <trkpt lat="46.96754" lon="8.7677">
        <ele>865</ele>
        <time>2021-08-06T09:25:01.333Z</time>
      </trkpt>
      <trkpt lat="46.96754" lon="8.7677">
        <ele>865</ele>
        <time>2021-08-06T09:25:02.333Z</time>
      </trkpt>
      <trkpt lat="46.96753" lon="8.76777">
        <ele>860</ele>
        <time>2021-08-06T09:25:03.333Z</time>
      </trkpt>
      <trkpt lat="46.96753" lon="8.76778">
        <ele>860</ele>
        <time>2021-08-06T09:25:04.333Z</time>
      </trkpt>
      <trkpt lat="46.96753" lon="8.76778">
        <ele>860</ele>
        <time>2021-08-06T09:25:05.333Z</time>
      </trkpt>
      <trkpt lat="46.96753" lon="8.76779">
        <ele>860</ele>
        <time>2021-08-06T09:25:06.333Z</time>
      </trkpt>
      <trkpt lat="46.96753" lon="8.7678">
        <ele>860</ele>
        <time>2021-08-06T09:25:07.334Z</time>
      </trkpt>
      <trkpt lat="46.96753" lon="8.7678">
        <ele>860</ele>
        <time>2021-08-06T09:25:08.333Z</time>
      </trkpt>
      <trkpt lat="46.96754" lon="8.76779">
        <ele>860</ele>
        <time>2021-08-06T09:25:09.333Z</time>
      </trkpt>
      <trkpt lat="46.96755" lon="8.76779">
        <ele>860</ele>
        <time>2021-08-06T09:25:10.333Z</time>
      </trkpt>
      <trkpt lat="46.96754" lon="8.7678">
        <ele>860</ele>
        <time>2021-08-06T09:25:11.334Z</time>
      </trkpt>
      <trkpt lat="46.96754" lon="8.7678">
        <ele>860</ele>
        <time>2021-08-06T09:25:12.334Z</time>
      </trkpt>
      <trkpt lat="46.96755" lon="8.7678">
        <ele>857</ele>
        <time>2021-08-06T09:25:13.333Z</time>
      </trkpt>
      <trkpt lat="46.96755" lon="8.7678">
        <ele>857</ele>
        <time>2021-08-06T09:25:14.333Z</time>
      </trkpt>
      <trkpt lat="46.96755" lon="8.7678">
        <ele>857</ele>
        <time>2021-08-06T09:25:15.333Z</time>
      </trkpt>
      <trkpt lat="46.96755" lon="8.7678">
        <ele>857</ele>
        <time>2021-08-06T09:25:16.333Z</time>
      </trkpt>
      <trkpt lat="46.96754" lon="8.7678">
        <ele>856</ele>
        <time>2021-08-06T09:25:17.333Z</time>
      </trkpt>
      <trkpt lat="46.96754" lon="8.7678">
        <ele>856</ele>
        <time>2021-08-06T09:25:18.333Z</time>
      </trkpt>
      <trkpt lat="46.96754" lon="8.7678">
        <ele>856</ele>
        <time>2021-08-06T09:25:19.334Z</time>
      </trkpt>
      <trkpt lat="46.96753" lon="8.76779">
        <ele>856</ele>
        <time>2021-08-06T09:25:20.333Z</time>
      </trkpt>
      <trkpt lat="46.96755" lon="8.76783">
        <ele>833</ele>
        <time>2021-08-06T09:25:21.334Z</time>
      </trkpt>
      <trkpt lat="46.96755" lon="8.76784">
        <ele>833</ele>
        <time>2021-08-06T09:25:22.333Z</time>
      </trkpt>
      <trkpt lat="46.96755" lon="8.76785">
        <ele>832</ele>
        <time>2021-08-06T09:25:23.333Z</time>
      </trkpt>
      <trkpt lat="46.96756" lon="8.76779">
        <ele>842</ele>
        <time>2021-08-06T09:25:24.333Z</time>
      </trkpt>
      <trkpt lat="46.96756" lon="8.76779">
        <ele>843</ele>
        <time>2021-08-06T09:25:25.333Z</time>
      </trkpt>
      <trkpt lat="46.96757" lon="8.76776">
        <ele>846</ele>
        <time>2021-08-06T09:25:26.334Z</time>
      </trkpt>
      <trkpt lat="46.96757" lon="8.76775">
        <ele>847</ele>
        <time>2021-08-06T09:25:27.334Z</time>
      </trkpt>
      <trkpt lat="46.96757" lon="8.76772">
        <ele>849</ele>
        <time>2021-08-06T09:25:28.337Z</time>
      </trkpt>
      <trkpt lat="46.96757" lon="8.76771">
        <ele>849</ele>
        <time>2021-08-06T09:25:29.336Z</time>
      </trkpt>
      <trkpt lat="46.96756" lon="8.7677">
        <ele>850</ele>
        <time>2021-08-06T09:25:30.336Z</time>
      </trkpt>
      <trkpt lat="46.96756" lon="8.76769">
        <ele>851</ele>
        <time>2021-08-06T09:25:31.336Z</time>
      </trkpt>
      <trkpt lat="46.96756" lon="8.76768">
        <ele>852</ele>
        <time>2021-08-06T09:25:32.337Z</time>
      </trkpt>
      <trkpt lat="46.96755" lon="8.76766">
        <ele>852</ele>
        <time>2021-08-06T09:25:33.336Z</time>
      </trkpt>
      <trkpt lat="46.96756" lon="8.76765">
        <ele>853</ele>
        <time>2021-08-06T09:25:34.336Z</time>
      </trkpt>
      <trkpt lat="46.96757" lon="8.76764">
        <ele>853</ele>
        <time>2021-08-06T09:25:35.337Z</time>
      </trkpt>
      <trkpt lat="46.96756" lon="8.76762">
        <ele>853</ele>
        <time>2021-08-06T09:25:36.337Z</time>
      </trkpt>
      <trkpt lat="46.96755" lon="8.76761">
        <ele>853</ele>
        <time>2021-08-06T09:25:37.336Z</time>
      </trkpt>
      <trkpt lat="46.96754" lon="8.7676">
        <ele>853</ele>
        <time>2021-08-06T09:25:38.336Z</time>
      </trkpt>
      <trkpt lat="46.96754" lon="8.7676">
        <ele>852</ele>
        <time>2021-08-06T09:25:39.337Z</time>
      </trkpt>
      <trkpt lat="46.96754" lon="8.76759">
        <ele>851</ele>
        <time>2021-08-06T09:25:40.336Z</time>
      </trkpt>
      <trkpt lat="46.96753" lon="8.76759">
        <ele>851</ele>
        <time>2021-08-06T09:25:41.336Z</time>
      </trkpt>
      <trkpt lat="46.96752" lon="8.76758">
        <ele>851</ele>
        <time>2021-08-06T09:25:42.336Z</time>
      </trkpt>
      <trkpt lat="46.96753" lon="8.76758">
        <ele>851</ele>
        <time>2021-08-06T09:25:43.336Z</time>
      </trkpt>
      <trkpt lat="46.96754" lon="8.76757">
        <ele>850</ele>
        <time>2021-08-06T09:25:44.336Z</time>
      </trkpt>
      <trkpt lat="46.96754" lon="8.76755">
        <ele>850</ele>
        <time>2021-08-06T09:25:45.336Z</time>
      </trkpt>
      <trkpt lat="46.96754" lon="8.76754">
        <ele>850</ele>
        <time>2021-08-06T09:25:46.337Z</time>
      </trkpt>
      <trkpt lat="46.96754" lon="8.76753">
        <ele>849</ele>
        <time>2021-08-06T09:25:47.336Z</time>
      </trkpt>
      <trkpt lat="46.96754" lon="8.76753">
        <ele>849</ele>
        <time>2021-08-06T09:25:48.337Z</time>
      </trkpt>
      <trkpt lat="46.96755" lon="8.76752">
        <ele>849</ele>
        <time>2021-08-06T09:25:49.337Z</time>
      </trkpt>
      <trkpt lat="46.96754" lon="8.76751">
        <ele>849</ele>
        <time>2021-08-06T09:25:50.337Z</time>
      </trkpt>
      <trkpt lat="46.96753" lon="8.7675">
        <ele>848</ele>
        <time>2021-08-06T09:25:51.337Z</time>
      </trkpt>
      <trkpt lat="46.96752" lon="8.7675">
        <ele>848</ele>
        <time>2021-08-06T09:25:52.336Z</time>
      </trkpt>
      <trkpt lat="46.96752" lon="8.76749">
        <ele>847</ele>
        <time>2021-08-06T09:25:53.336Z</time>
      </trkpt>
      <trkpt lat="46.96752" lon="8.76749">
        <ele>846</ele>
        <time>2021-08-06T09:25:54.336Z</time>
      </trkpt>
      <trkpt lat="46.96752" lon="8.76748">
        <ele>846</ele>
        <time>2021-08-06T09:25:55.336Z</time>
      </trkpt>
      <trkpt lat="46.96751" lon="8.76747">
        <ele>846</ele>
        <time>2021-08-06T09:25:56.337Z</time>
      </trkpt>
      <trkpt lat="46.96751" lon="8.76747">
        <ele>845</ele>
        <time>2021-08-06T09:25:57.336Z</time>
      </trkpt>
      <trkpt lat="46.96751" lon="8.76747">
        <ele>845</ele>
        <time>2021-08-06T09:25:58.336Z</time>
      </trkpt>
      <trkpt lat="46.9675" lon="8.76746">
        <ele>845</ele>
        <time>2021-08-06T09:25:59.336Z</time>
      </trkpt>
      <trkpt lat="46.96749" lon="8.76745">
        <ele>845</ele>
        <time>2021-08-06T09:26:00.336Z</time>
      </trkpt>
      <trkpt lat="46.96749" lon="8.76745">
        <ele>845</ele>
        <time>2021-08-06T09:26:01.336Z</time>
      </trkpt>
      <trkpt lat="46.96748" lon="8.76744">
        <ele>845</ele>
        <time>2021-08-06T09:26:02.336Z</time>
      </trkpt>
      <trkpt lat="46.96748" lon="8.76744">
        <ele>845</ele>
        <time>2021-08-06T09:26:03.336Z</time>
      </trkpt>
      <trkpt lat="46.96748" lon="8.76743">
        <ele>846</ele>
        <time>2021-08-06T09:26:04.336Z</time>
      </trkpt>
      <trkpt lat="46.96747" lon="8.76743">
        <ele>846</ele>
        <time>2021-08-06T09:26:05.336Z</time>
      </trkpt>
      <trkpt lat="46.96747" lon="8.76743">
        <ele>847</ele>
        <time>2021-08-06T09:26:06.336Z</time>
      </trkpt>
      <trkpt lat="46.96747" lon="8.76742">
        <ele>848</ele>
        <time>2021-08-06T09:26:07.336Z</time>
      </trkpt>
      <trkpt lat="46.96748" lon="8.76741">
        <ele>848</ele>
        <time>2021-08-06T09:26:08.336Z</time>
      </trkpt>
      <trkpt lat="46.96748" lon="8.7674">
        <ele>849</ele>
        <time>2021-08-06T09:26:09.337Z</time>
      </trkpt>
      <trkpt lat="46.96748" lon="8.76739">
        <ele>850</ele>
        <time>2021-08-06T09:26:10.336Z</time>
      </trkpt>
      <trkpt lat="46.96747" lon="8.76739">
        <ele>850</ele>
        <time>2021-08-06T09:26:11.336Z</time>
      </trkpt>
      <trkpt lat="46.96747" lon="8.76738">
        <ele>851</ele>
        <time>2021-08-06T09:26:12.336Z</time>
      </trkpt>
      <trkpt lat="46.96746" lon="8.76738">
        <ele>852</ele>
        <time>2021-08-06T09:26:13.336Z</time>
      </trkpt>
      <trkpt lat="46.96745" lon="8.76737">
        <ele>852</ele>
        <time>2021-08-06T09:26:14.336Z</time>
      </trkpt>
      <trkpt lat="46.96744" lon="8.76737">
        <ele>853</ele>
        <time>2021-08-06T09:26:15.336Z</time>
      </trkpt>
      <trkpt lat="46.96744" lon="8.76737">
        <ele>854</ele>
        <time>2021-08-06T09:26:16.336Z</time>
      </trkpt>
      <trkpt lat="46.96743" lon="8.76736">
        <ele>855</ele>
        <time>2021-08-06T09:26:17.336Z</time>
      </trkpt>
      <trkpt lat="46.96742" lon="8.76736">
        <ele>856</ele>
        <time>2021-08-06T09:26:18.336Z</time>
      </trkpt>
      <trkpt lat="46.96742" lon="8.76736">
        <ele>857</ele>
        <time>2021-08-06T09:26:19.337Z</time>
      </trkpt>
      <trkpt lat="46.96741" lon="8.76735">
        <ele>858</ele>
        <time>2021-08-06T09:26:20.336Z</time>
      </trkpt>
      <trkpt lat="46.9674" lon="8.76734">
        <ele>858</ele>
        <time>2021-08-06T09:26:21.336Z</time>
      </trkpt>
      <trkpt lat="46.9674" lon="8.76734">
        <ele>859</ele>
        <time>2021-08-06T09:26:22.336Z</time>
      </trkpt>
      <trkpt lat="46.96739" lon="8.76734">
        <ele>859</ele>
        <time>2021-08-06T09:26:23.336Z</time>
      </trkpt>
      <trkpt lat="46.96739" lon="8.76733">
        <ele>859</ele>
        <time>2021-08-06T09:26:24.336Z</time>
      </trkpt>
      <trkpt lat="46.96739" lon="8.76733">
        <ele>859</ele>
        <time>2021-08-06T09:26:25.336Z</time>
      </trkpt>
      <trkpt lat="46.96738" lon="8.76732">
        <ele>859</ele>
        <time>2021-08-06T09:26:26.336Z</time>
      </trkpt>
      <trkpt lat="46.96737" lon="8.76732">
        <ele>859</ele>
        <time>2021-08-06T09:26:27.336Z</time>
      </trkpt>
      <trkpt lat="46.96737" lon="8.76731">
        <ele>860</ele>
        <time>2021-08-06T09:26:28.336Z</time>
      </trkpt>
      <trkpt lat="46.96736" lon="8.76731">
        <ele>860</ele>
        <time>2021-08-06T09:26:29.336Z</time>
      </trkpt>
      <trkpt lat="46.96736" lon="8.7673">
        <ele>860</ele>
        <time>2021-08-06T09:26:30.336Z</time>
      </trkpt>
      <trkpt lat="46.96735" lon="8.76729">
        <ele>860</ele>
        <time>2021-08-06T09:26:31.336Z</time>
      </trkpt>
      <trkpt lat="46.96734" lon="8.76728">
        <ele>860</ele>
        <time>2021-08-06T09:26:32.336Z</time>
      </trkpt>
      <trkpt lat="46.96734" lon="8.76728">
        <ele>861</ele>
        <time>2021-08-06T09:26:33.337Z</time>
      </trkpt>
      <trkpt lat="46.96734" lon="8.76728">
        <ele>861</ele>
        <time>2021-08-06T09:26:34.336Z</time>
      </trkpt>
      <trkpt lat="46.96734" lon="8.76728">
        <ele>862</ele>
        <time>2021-08-06T09:26:35.336Z</time>
      </trkpt>
      <trkpt lat="46.96734" lon="8.76727">
        <ele>863</ele>
        <time>2021-08-06T09:26:36.336Z</time>
      </trkpt>
      <trkpt lat="46.96733" lon="8.76726">
        <ele>864</ele>
        <time>2021-08-06T09:26:37.336Z</time>
      </trkpt>
      <trkpt lat="46.96731" lon="8.76724">
        <ele>864</ele>
        <time>2021-08-06T09:26:38.336Z</time>
      </trkpt>
      <trkpt lat="46.9673" lon="8.76722">
        <ele>865</ele>
        <time>2021-08-06T09:26:39.336Z</time>
      </trkpt>
      <trkpt lat="46.9673" lon="8.7672">
        <ele>866</ele>
        <time>2021-08-06T09:26:40.337Z</time>
      </trkpt>
      <trkpt lat="46.96729" lon="8.76719">
        <ele>866</ele>
        <time>2021-08-06T09:26:41.336Z</time>
      </trkpt>
      <trkpt lat="46.96728" lon="8.76718">
        <ele>866</ele>
        <time>2021-08-06T09:26:42.337Z</time>
      </trkpt>
      <trkpt lat="46.96728" lon="8.76717">
        <ele>866</ele>
        <time>2021-08-06T09:26:43.337Z</time>
      </trkpt>
      <trkpt lat="46.96728" lon="8.76715">
        <ele>866</ele>
        <time>2021-08-06T09:26:44.336Z</time>
      </trkpt>
      <trkpt lat="46.96729" lon="8.76714">
        <ele>866</ele>
        <time>2021-08-06T09:26:45.336Z</time>
      </trkpt>
      <trkpt lat="46.96728" lon="8.76713">
        <ele>865</ele>
        <time>2021-08-06T09:26:46.336Z</time>
      </trkpt>
      <trkpt lat="46.96729" lon="8.76712">
        <ele>865</ele>
        <time>2021-08-06T09:26:47.337Z</time>
      </trkpt>
      <trkpt lat="46.96729" lon="8.76711">
        <ele>864</ele>
        <time>2021-08-06T09:26:48.336Z</time>
      </trkpt>
      <trkpt lat="46.96728" lon="8.76711">
        <ele>864</ele>
        <time>2021-08-06T09:26:49.336Z</time>
      </trkpt>
      <trkpt lat="46.96727" lon="8.76711">
        <ele>864</ele>
        <time>2021-08-06T09:26:50.336Z</time>
      </trkpt>
      <trkpt lat="46.96727" lon="8.76711">
        <ele>864</ele>
        <time>2021-08-06T09:26:51.336Z</time>
      </trkpt>
      <trkpt lat="46.96726" lon="8.76711">
        <ele>865</ele>
        <time>2021-08-06T09:26:52.336Z</time>
      </trkpt>
      <trkpt lat="46.96725" lon="8.76711">
        <ele>865</ele>
        <time>2021-08-06T09:26:53.336Z</time>
      </trkpt>
      <trkpt lat="46.96724" lon="8.7671">
        <ele>866</ele>
        <time>2021-08-06T09:26:54.337Z</time>
      </trkpt>
      <trkpt lat="46.96723" lon="8.7671">
        <ele>866</ele>
        <time>2021-08-06T09:26:55.336Z</time>
      </trkpt>
      <trkpt lat="46.96723" lon="8.7671">
        <ele>866</ele>
        <time>2021-08-06T09:26:56.337Z</time>
      </trkpt>
      <trkpt lat="46.96723" lon="8.76709">
        <ele>866</ele>
        <time>2021-08-06T09:26:57.336Z</time>
      </trkpt>
      <trkpt lat="46.96722" lon="8.76709">
        <ele>866</ele>
        <time>2021-08-06T09:26:58.336Z</time>
      </trkpt>
      <trkpt lat="46.96721" lon="8.76709">
        <ele>866</ele>
        <time>2021-08-06T09:26:59.337Z</time>
      </trkpt>
      <trkpt lat="46.9672" lon="8.76708">
        <ele>866</ele>
        <time>2021-08-06T09:27:00.336Z</time>
      </trkpt>
      <trkpt lat="46.96719" lon="8.76708">
        <ele>866</ele>
        <time>2021-08-06T09:27:01.337Z</time>
      </trkpt>
      <trkpt lat="46.96718" lon="8.76708">
        <ele>867</ele>
        <time>2021-08-06T09:27:02.337Z</time>
      </trkpt>
      <trkpt lat="46.96717" lon="8.76708">
        <ele>867</ele>
        <time>2021-08-06T09:27:03.337Z</time>
      </trkpt>
      <trkpt lat="46.96716" lon="8.76707">
        <ele>868</ele>
        <time>2021-08-06T09:27:04.336Z</time>
      </trkpt>
      <trkpt lat="46.96715" lon="8.76707">
        <ele>868</ele>
        <time>2021-08-06T09:27:05.336Z</time>
      </trkpt>
      <trkpt lat="46.96714" lon="8.76707">
        <ele>868</ele>
        <time>2021-08-06T09:27:06.336Z</time>
      </trkpt>
      <trkpt lat="46.96714" lon="8.76706">
        <ele>869</ele>
        <time>2021-08-06T09:27:07.337Z</time>
      </trkpt>
      <trkpt lat="46.96713" lon="8.76706">
        <ele>869</ele>
        <time>2021-08-06T09:27:08.336Z</time>
      </trkpt>
      <trkpt lat="46.96713" lon="8.76705">
        <ele>869</ele>
        <time>2021-08-06T09:27:09.336Z</time>
      </trkpt>
      <trkpt lat="46.96713" lon="8.76704">
        <ele>870</ele>
        <time>2021-08-06T09:27:10.336Z</time>
      </trkpt>
      <trkpt lat="46.96713" lon="8.76703">
        <ele>871</ele>
        <time>2021-08-06T09:27:11.336Z</time>
      </trkpt>
      <trkpt lat="46.96713" lon="8.76702">
        <ele>873</ele>
        <time>2021-08-06T09:27:12.337Z</time>
      </trkpt>
      <trkpt lat="46.96715" lon="8.76699">
        <ele>876</ele>
        <time>2021-08-06T09:27:13.337Z</time>
      </trkpt>
      <trkpt lat="46.96715" lon="8.76699">
        <ele>876</ele>
        <time>2021-08-06T09:27:14.337Z</time>
      </trkpt>
      <trkpt lat="46.96715" lon="8.76698">
        <ele>877</ele>
        <time>2021-08-06T09:27:15.337Z</time>
      </trkpt>
      <trkpt lat="46.96715" lon="8.76697">
        <ele>877</ele>
        <time>2021-08-06T09:27:16.338Z</time>
      </trkpt>
      <trkpt lat="46.96714" lon="8.76697">
        <ele>878</ele>
        <time>2021-08-06T09:27:17.338Z</time>
      </trkpt>
      <trkpt lat="46.96714" lon="8.76696">
        <ele>879</ele>
        <time>2021-08-06T09:27:18.338Z</time>
      </trkpt>
      <trkpt lat="46.96713" lon="8.76696">
        <ele>879</ele>
        <time>2021-08-06T09:27:19.338Z</time>
      </trkpt>
      <trkpt lat="46.96712" lon="8.76698">
        <ele>880</ele>
        <time>2021-08-06T09:27:20.338Z</time>
      </trkpt>
      <trkpt lat="46.96712" lon="8.76699">
        <ele>881</ele>
        <time>2021-08-06T09:27:21.337Z</time>
      </trkpt>
      <trkpt lat="46.96712" lon="8.76699">
        <ele>881</ele>
        <time>2021-08-06T09:27:22.338Z</time>
      </trkpt>
      <trkpt lat="46.96711" lon="8.767">
        <ele>881</ele>
        <time>2021-08-06T09:27:23.338Z</time>
      </trkpt>
      <trkpt lat="46.96711" lon="8.767">
        <ele>881</ele>
        <time>2021-08-06T09:27:24.338Z</time>
      </trkpt>
      <trkpt lat="46.96709" lon="8.76701">
        <ele>881</ele>
        <time>2021-08-06T09:27:25.338Z</time>
      </trkpt>
      <trkpt lat="46.96708" lon="8.76701">
        <ele>882</ele>
        <time>2021-08-06T09:27:26.338Z</time>
      </trkpt>
      <trkpt lat="46.96708" lon="8.767">
        <ele>882</ele>
        <time>2021-08-06T09:27:27.337Z</time>
      </trkpt>
      <trkpt lat="46.96709" lon="8.767">
        <ele>882</ele>
        <time>2021-08-06T09:27:28.337Z</time>
      </trkpt>
      <trkpt lat="46.9671" lon="8.76699">
        <ele>881</ele>
        <time>2021-08-06T09:27:29.338Z</time>
      </trkpt>
      <trkpt lat="46.9671" lon="8.76699">
        <ele>881</ele>
        <time>2021-08-06T09:27:30.338Z</time>
      </trkpt>
      <trkpt lat="46.96711" lon="8.76698">
        <ele>880</ele>
        <time>2021-08-06T09:27:31.338Z</time>
      </trkpt>
      <trkpt lat="46.96711" lon="8.76697">
        <ele>880</ele>
        <time>2021-08-06T09:27:32.337Z</time>
      </trkpt>
      <trkpt lat="46.9671" lon="8.76696">
        <ele>880</ele>
        <time>2021-08-06T09:27:33.337Z</time>
      </trkpt>
      <trkpt lat="46.9671" lon="8.76696">
        <ele>880</ele>
        <time>2021-08-06T09:27:34.337Z</time>
      </trkpt>
      <trkpt lat="46.96709" lon="8.76695">
        <ele>881</ele>
        <time>2021-08-06T09:27:35.338Z</time>
      </trkpt>
      <trkpt lat="46.96709" lon="8.76694">
        <ele>881</ele>
        <time>2021-08-06T09:27:36.337Z</time>
      </trkpt>
      <trkpt lat="46.96709" lon="8.76693">
        <ele>882</ele>
        <time>2021-08-06T09:27:37.337Z</time>
      </trkpt>
      <trkpt lat="46.96708" lon="8.76693">
        <ele>882</ele>
        <time>2021-08-06T09:27:38.337Z</time>
      </trkpt>
      <trkpt lat="46.96708" lon="8.76693">
        <ele>883</ele>
        <time>2021-08-06T09:27:39.337Z</time>
      </trkpt>
      <trkpt lat="46.96707" lon="8.76693">
        <ele>883</ele>
        <time>2021-08-06T09:27:40.337Z</time>
      </trkpt>
      <trkpt lat="46.96707" lon="8.76693">
        <ele>884</ele>
        <time>2021-08-06T09:27:41.337Z</time>
      </trkpt>
      <trkpt lat="46.96706" lon="8.76693">
        <ele>884</ele>
        <time>2021-08-06T09:27:42.338Z</time>
      </trkpt>
      <trkpt lat="46.96705" lon="8.76694">
        <ele>884</ele>
        <time>2021-08-06T09:27:43.338Z</time>
      </trkpt>
      <trkpt lat="46.96705" lon="8.76694">
        <ele>885</ele>
        <time>2021-08-06T09:27:44.337Z</time>
      </trkpt>
      <trkpt lat="46.96705" lon="8.76693">
        <ele>886</ele>
        <time>2021-08-06T09:27:45.337Z</time>
      </trkpt>
      <trkpt lat="46.96704" lon="8.76693">
        <ele>887</ele>
        <time>2021-08-06T09:27:46.338Z</time>
      </trkpt>
      <trkpt lat="46.96704" lon="8.76692">
        <ele>888</ele>
        <time>2021-08-06T09:27:47.338Z</time>
      </trkpt>
      <trkpt lat="46.96703" lon="8.76692">
        <ele>889</ele>
        <time>2021-08-06T09:27:48.338Z</time>
      </trkpt>
      <trkpt lat="46.96702" lon="8.76692">
        <ele>889</ele>
        <time>2021-08-06T09:27:49.337Z</time>
      </trkpt>
      <trkpt lat="46.96701" lon="8.76692">
        <ele>890</ele>
        <time>2021-08-06T09:27:50.337Z</time>
      </trkpt>
      <trkpt lat="46.967" lon="8.76692">
        <ele>890</ele>
        <time>2021-08-06T09:27:51.337Z</time>
      </trkpt>
      <trkpt lat="46.967" lon="8.76692">
        <ele>890</ele>
        <time>2021-08-06T09:27:52.337Z</time>
      </trkpt>
      <trkpt lat="46.96701" lon="8.76691">
        <ele>890</ele>
        <time>2021-08-06T09:27:53.338Z</time>
      </trkpt>
      <trkpt lat="46.96703" lon="8.76691">
        <ele>889</ele>
        <time>2021-08-06T09:27:54.337Z</time>
      </trkpt>
      <trkpt lat="46.96704" lon="8.7669">
        <ele>888</ele>
        <time>2021-08-06T09:27:55.337Z</time>
      </trkpt>
      <trkpt lat="46.96705" lon="8.76689">
        <ele>888</ele>
        <time>2021-08-06T09:27:56.338Z</time>
      </trkpt>
      <trkpt lat="46.96707" lon="8.76688">
        <ele>888</ele>
        <time>2021-08-06T09:27:57.338Z</time>
      </trkpt>
      <trkpt lat="46.96707" lon="8.76688">
        <ele>888</ele>
        <time>2021-08-06T09:27:58.338Z</time>
      </trkpt>
      <trkpt lat="46.96705" lon="8.76688">
        <ele>888</ele>
        <time>2021-08-06T09:27:59.338Z</time>
      </trkpt>
      <trkpt lat="46.96705" lon="8.76688">
        <ele>888</ele>
        <time>2021-08-06T09:28:00.338Z</time>
      </trkpt>
      <trkpt lat="46.96704" lon="8.76689">
        <ele>888</ele>
        <time>2021-08-06T09:28:01.338Z</time>
      </trkpt>
      <trkpt lat="46.96704" lon="8.76688">
        <ele>888</ele>
        <time>2021-08-06T09:28:02.338Z</time>
      </trkpt>
      <trkpt lat="46.96704" lon="8.76688">
        <ele>887</ele>
        <time>2021-08-06T09:28:03.338Z</time>
      </trkpt>
      <trkpt lat="46.96705" lon="8.76686">
        <ele>887</ele>
        <time>2021-08-06T09:28:04.339Z</time>
      </trkpt>
      <trkpt lat="46.96705" lon="8.76685">
        <ele>886</ele>
        <time>2021-08-06T09:28:05.339Z</time>
      </trkpt>
      <trkpt lat="46.96705" lon="8.76684">
        <ele>886</ele>
        <time>2021-08-06T09:28:06.338Z</time>
      </trkpt>
      <trkpt lat="46.96704" lon="8.76684">
        <ele>886</ele>
        <time>2021-08-06T09:28:07.339Z</time>
      </trkpt>
      <trkpt lat="46.96703" lon="8.76683">
        <ele>887</ele>
        <time>2021-08-06T09:28:08.339Z</time>
      </trkpt>
      <trkpt lat="46.96702" lon="8.76683">
        <ele>887</ele>
        <time>2021-08-06T09:28:09.339Z</time>
      </trkpt>
      <trkpt lat="46.96701" lon="8.76684">
        <ele>886</ele>
        <time>2021-08-06T09:28:10.339Z</time>
      </trkpt>
      <trkpt lat="46.96701" lon="8.76685">
        <ele>886</ele>
        <time>2021-08-06T09:28:11.339Z</time>
      </trkpt>
      <trkpt lat="46.96701" lon="8.76686">
        <ele>886</ele>
        <time>2021-08-06T09:28:12.339Z</time>
      </trkpt>
      <trkpt lat="46.967" lon="8.76687">
        <ele>887</ele>
        <time>2021-08-06T09:28:13.339Z</time>
      </trkpt>
      <trkpt lat="46.96701" lon="8.76687">
        <ele>887</ele>
        <time>2021-08-06T09:28:14.339Z</time>
      </trkpt>
      <trkpt lat="46.967" lon="8.76687">
        <ele>887</ele>
        <time>2021-08-06T09:28:15.338Z</time>
      </trkpt>
      <trkpt lat="46.967" lon="8.76686">
        <ele>886</ele>
        <time>2021-08-06T09:28:16.339Z</time>
      </trkpt>
      <trkpt lat="46.967" lon="8.76686">
        <ele>886</ele>
        <time>2021-08-06T09:28:17.339Z</time>
      </trkpt>
      <trkpt lat="46.967" lon="8.76685">
        <ele>886</ele>
        <time>2021-08-06T09:28:18.338Z</time>
      </trkpt>
      <trkpt lat="46.967" lon="8.76684">
        <ele>886</ele>
        <time>2021-08-06T09:28:19.338Z</time>
      </trkpt>
      <trkpt lat="46.967" lon="8.76683">
        <ele>886</ele>
        <time>2021-08-06T09:28:20.339Z</time>
      </trkpt>
      <trkpt lat="46.967" lon="8.76683">
        <ele>886</ele>
        <time>2021-08-06T09:28:21.339Z</time>
      </trkpt>
      <trkpt lat="46.967" lon="8.76682">
        <ele>885</ele>
        <time>2021-08-06T09:28:22.339Z</time>
      </trkpt>
      <trkpt lat="46.967" lon="8.76681">
        <ele>885</ele>
        <time>2021-08-06T09:28:23.339Z</time>
      </trkpt>
      <trkpt lat="46.96699" lon="8.76681">
        <ele>885</ele>
        <time>2021-08-06T09:28:24.339Z</time>
      </trkpt>
      <trkpt lat="46.96699" lon="8.76681">
        <ele>885</ele>
        <time>2021-08-06T09:28:25.338Z</time>
      </trkpt>
      <trkpt lat="46.96698" lon="8.76679">
        <ele>885</ele>
        <time>2021-08-06T09:28:26.339Z</time>
      </trkpt>
      <trkpt lat="46.96697" lon="8.76677">
        <ele>885</ele>
        <time>2021-08-06T09:28:27.338Z</time>
      </trkpt>
      <trkpt lat="46.96696" lon="8.76676">
        <ele>885</ele>
        <time>2021-08-06T09:28:28.339Z</time>
      </trkpt>
      <trkpt lat="46.96695" lon="8.76675">
        <ele>885</ele>
        <time>2021-08-06T09:28:29.339Z</time>
      </trkpt>
      <trkpt lat="46.96695" lon="8.76675">
        <ele>886</ele>
        <time>2021-08-06T09:28:30.339Z</time>
      </trkpt>
      <trkpt lat="46.96694" lon="8.76674">
        <ele>886</ele>
        <time>2021-08-06T09:28:31.339Z</time>
      </trkpt>
      <trkpt lat="46.96694" lon="8.76673">
        <ele>886</ele>
        <time>2021-08-06T09:28:32.338Z</time>
      </trkpt>
      <trkpt lat="46.96694" lon="8.76672">
        <ele>887</ele>
        <time>2021-08-06T09:28:33.339Z</time>
      </trkpt>
      <trkpt lat="46.96694" lon="8.76671">
        <ele>887</ele>
        <time>2021-08-06T09:28:34.339Z</time>
      </trkpt>
      <trkpt lat="46.96695" lon="8.76671">
        <ele>888</ele>
        <time>2021-08-06T09:28:35.339Z</time>
      </trkpt>
      <trkpt lat="46.96696" lon="8.7667">
        <ele>888</ele>
        <time>2021-08-06T09:28:36.339Z</time>
      </trkpt>
      <trkpt lat="46.96697" lon="8.76669">
        <ele>888</ele>
        <time>2021-08-06T09:28:37.338Z</time>
      </trkpt>
      <trkpt lat="46.96697" lon="8.76669">
        <ele>888</ele>
        <time>2021-08-06T09:28:38.338Z</time>
      </trkpt>
      <trkpt lat="46.96697" lon="8.76668">
        <ele>889</ele>
        <time>2021-08-06T09:28:39.339Z</time>
      </trkpt>
      <trkpt lat="46.96697" lon="8.76667">
        <ele>889</ele>
        <time>2021-08-06T09:28:40.339Z</time>
      </trkpt>
      <trkpt lat="46.96696" lon="8.76667">
        <ele>889</ele>
        <time>2021-08-06T09:28:41.339Z</time>
      </trkpt>
      <trkpt lat="46.96696" lon="8.76667">
        <ele>890</ele>
        <time>2021-08-06T09:28:42.339Z</time>
      </trkpt>
      <trkpt lat="46.96696" lon="8.76667">
        <ele>890</ele>
        <time>2021-08-06T09:28:43.339Z</time>
      </trkpt>
      <trkpt lat="46.96695" lon="8.76666">
        <ele>891</ele>
        <time>2021-08-06T09:28:44.340Z</time>
      </trkpt>
      <trkpt lat="46.96695" lon="8.76665">
        <ele>891</ele>
        <time>2021-08-06T09:28:45.339Z</time>
      </trkpt>
      <trkpt lat="46.96694" lon="8.76665">
        <ele>891</ele>
        <time>2021-08-06T09:28:46.340Z</time>
      </trkpt>
      <trkpt lat="46.96693" lon="8.76665">
        <ele>891</ele>
        <time>2021-08-06T09:28:47.339Z</time>
      </trkpt>
      <trkpt lat="46.96692" lon="8.76665">
        <ele>890</ele>
        <time>2021-08-06T09:28:48.340Z</time>
      </trkpt>
      <trkpt lat="46.96692" lon="8.76664">
        <ele>890</ele>
        <time>2021-08-06T09:28:49.340Z</time>
      </trkpt>
      <trkpt lat="46.96692" lon="8.76664">
        <ele>889</ele>
        <time>2021-08-06T09:28:50.340Z</time>
      </trkpt>
      <trkpt lat="46.96691" lon="8.76663">
        <ele>889</ele>
        <time>2021-08-06T09:28:51.340Z</time>
      </trkpt>
      <trkpt lat="46.9669" lon="8.76662">
        <ele>888</ele>
        <time>2021-08-06T09:28:52.340Z</time>
      </trkpt>
      <trkpt lat="46.9669" lon="8.76662">
        <ele>887</ele>
        <time>2021-08-06T09:28:53.340Z</time>
      </trkpt>
      <trkpt lat="46.9669" lon="8.76661">
        <ele>886</ele>
        <time>2021-08-06T09:28:54.340Z</time>
      </trkpt>
      <trkpt lat="46.96689" lon="8.76661">
        <ele>885</ele>
        <time>2021-08-06T09:28:55.340Z</time>
      </trkpt>
      <trkpt lat="46.96689" lon="8.76661">
        <ele>884</ele>
        <time>2021-08-06T09:28:56.340Z</time>
      </trkpt>
      <trkpt lat="46.96688" lon="8.76661">
        <ele>884</ele>
        <time>2021-08-06T09:28:57.340Z</time>
      </trkpt>
      <trkpt lat="46.96688" lon="8.7666">
        <ele>883</ele>
        <time>2021-08-06T09:28:58.339Z</time>
      </trkpt>
      <trkpt lat="46.96689" lon="8.7666">
        <ele>882</ele>
        <time>2021-08-06T09:28:59.340Z</time>
      </trkpt>
      <trkpt lat="46.96688" lon="8.76659">
        <ele>882</ele>
        <time>2021-08-06T09:29:00.340Z</time>
      </trkpt>
      <trkpt lat="46.96687" lon="8.76659">
        <ele>882</ele>
        <time>2021-08-06T09:29:01.340Z</time>
      </trkpt>
      <trkpt lat="46.96686" lon="8.7666">
        <ele>882</ele>
        <time>2021-08-06T09:29:02.340Z</time>
      </trkpt>
      <trkpt lat="46.96685" lon="8.76661">
        <ele>881</ele>
        <time>2021-08-06T09:29:03.340Z</time>
      </trkpt>
      <trkpt lat="46.96684" lon="8.76662">
        <ele>881</ele>
        <time>2021-08-06T09:29:04.340Z</time>
      </trkpt>
      <trkpt lat="46.96684" lon="8.76664">
        <ele>881</ele>
        <time>2021-08-06T09:29:05.340Z</time>
      </trkpt>
      <trkpt lat="46.96684" lon="8.76665">
        <ele>881</ele>
        <time>2021-08-06T09:29:06.340Z</time>
      </trkpt>
      <trkpt lat="46.96684" lon="8.76666">
        <ele>882</ele>
        <time>2021-08-06T09:29:07.339Z</time>
      </trkpt>
      <trkpt lat="46.96684" lon="8.76669">
        <ele>883</ele>
        <time>2021-08-06T09:29:08.340Z</time>
      </trkpt>
      <trkpt lat="46.96683" lon="8.76671">
        <ele>884</ele>
        <time>2021-08-06T09:29:09.339Z</time>
      </trkpt>
      <trkpt lat="46.96682" lon="8.76672">
        <ele>885</ele>
        <time>2021-08-06T09:29:10.339Z</time>
      </trkpt>
      <trkpt lat="46.96681" lon="8.76673">
        <ele>885</ele>
        <time>2021-08-06T09:29:11.340Z</time>
      </trkpt>
      <trkpt lat="46.96681" lon="8.76674">
        <ele>886</ele>
        <time>2021-08-06T09:29:12.339Z</time>
      </trkpt>
      <trkpt lat="46.9668" lon="8.76675">
        <ele>886</ele>
        <time>2021-08-06T09:29:13.339Z</time>
      </trkpt>
      <trkpt lat="46.9668" lon="8.76676">
        <ele>887</ele>
        <time>2021-08-06T09:29:14.339Z</time>
      </trkpt>
      <trkpt lat="46.9668" lon="8.76677">
        <ele>887</ele>
        <time>2021-08-06T09:29:15.339Z</time>
      </trkpt>
      <trkpt lat="46.9668" lon="8.76678">
        <ele>887</ele>
        <time>2021-08-06T09:29:16.340Z</time>
      </trkpt>
      <trkpt lat="46.96679" lon="8.76679">
        <ele>888</ele>
        <time>2021-08-06T09:29:17.339Z</time>
      </trkpt>
      <trkpt lat="46.96678" lon="8.7668">
        <ele>888</ele>
        <time>2021-08-06T09:29:18.339Z</time>
      </trkpt>
      <trkpt lat="46.96676" lon="8.7668">
        <ele>888</ele>
        <time>2021-08-06T09:29:19.340Z</time>
      </trkpt>
      <trkpt lat="46.96675" lon="8.7668">
        <ele>889</ele>
        <time>2021-08-06T09:29:20.339Z</time>
      </trkpt>
      <trkpt lat="46.96675" lon="8.7668">
        <ele>889</ele>
        <time>2021-08-06T09:29:21.339Z</time>
      </trkpt>
      <trkpt lat="46.96675" lon="8.76679">
        <ele>890</ele>
        <time>2021-08-06T09:29:22.340Z</time>
      </trkpt>
      <trkpt lat="46.96675" lon="8.76679">
        <ele>890</ele>
        <time>2021-08-06T09:29:23.340Z</time>
      </trkpt>
      <trkpt lat="46.96675" lon="8.76679">
        <ele>891</ele>
        <time>2021-08-06T09:29:24.339Z</time>
      </trkpt>
      <trkpt lat="46.96675" lon="8.76677">
        <ele>892</ele>
        <time>2021-08-06T09:29:25.340Z</time>
      </trkpt>
      <trkpt lat="46.96675" lon="8.76675">
        <ele>893</ele>
        <time>2021-08-06T09:29:26.340Z</time>
      </trkpt>
      <trkpt lat="46.96675" lon="8.76674">
        <ele>893</ele>
        <time>2021-08-06T09:29:27.339Z</time>
      </trkpt>
      <trkpt lat="46.96675" lon="8.76673">
        <ele>892</ele>
        <time>2021-08-06T09:29:28.340Z</time>
      </trkpt>
      <trkpt lat="46.96675" lon="8.76671">
        <ele>892</ele>
        <time>2021-08-06T09:29:29.339Z</time>
      </trkpt>
      <trkpt lat="46.96675" lon="8.7667">
        <ele>892</ele>
        <time>2021-08-06T09:29:30.339Z</time>
      </trkpt>
      <trkpt lat="46.96675" lon="8.76669">
        <ele>892</ele>
        <time>2021-08-06T09:29:31.339Z</time>
      </trkpt>
      <trkpt lat="46.96676" lon="8.76667">
        <ele>892</ele>
        <time>2021-08-06T09:29:32.339Z</time>
      </trkpt>
      <trkpt lat="46.96675" lon="8.76666">
        <ele>891</ele>
        <time>2021-08-06T09:29:33.340Z</time>
      </trkpt>
      <trkpt lat="46.96676" lon="8.76665">
        <ele>891</ele>
        <time>2021-08-06T09:29:34.340Z</time>
      </trkpt>
      <trkpt lat="46.96676" lon="8.76664">
        <ele>891</ele>
        <time>2021-08-06T09:29:35.340Z</time>
      </trkpt>
      <trkpt lat="46.96677" lon="8.76662">
        <ele>891</ele>
        <time>2021-08-06T09:29:36.339Z</time>
      </trkpt>
      <trkpt lat="46.96677" lon="8.7666">
        <ele>891</ele>
        <time>2021-08-06T09:29:37.340Z</time>
      </trkpt>
      <trkpt lat="46.96676" lon="8.76658">
        <ele>892</ele>
        <time>2021-08-06T09:29:38.340Z</time>
      </trkpt>
      <trkpt lat="46.96676" lon="8.76656">
        <ele>892</ele>
        <time>2021-08-06T09:29:39.339Z</time>
      </trkpt>
      <trkpt lat="46.96677" lon="8.76654">
        <ele>892</ele>
        <time>2021-08-06T09:29:40.339Z</time>
      </trkpt>
      <trkpt lat="46.96677" lon="8.76651">
        <ele>892</ele>
        <time>2021-08-06T09:29:41.339Z</time>
      </trkpt>
      <trkpt lat="46.96677" lon="8.76649">
        <ele>893</ele>
        <time>2021-08-06T09:29:42.340Z</time>
      </trkpt>
      <trkpt lat="46.96674" lon="8.76647">
        <ele>893</ele>
        <time>2021-08-06T09:29:43.340Z</time>
      </trkpt>
      <trkpt lat="46.96673" lon="8.76645">
        <ele>894</ele>
        <time>2021-08-06T09:29:44.339Z</time>
      </trkpt>
      <trkpt lat="46.96672" lon="8.76644">
        <ele>894</ele>
        <time>2021-08-06T09:29:45.339Z</time>
      </trkpt>
      <trkpt lat="46.96672" lon="8.76642">
        <ele>895</ele>
        <time>2021-08-06T09:29:46.340Z</time>
      </trkpt>
      <trkpt lat="46.96672" lon="8.7664">
        <ele>896</ele>
        <time>2021-08-06T09:29:47.340Z</time>
      </trkpt>
      <trkpt lat="46.96671" lon="8.76637">
        <ele>896</ele>
        <time>2021-08-06T09:29:48.339Z</time>
      </trkpt>
      <trkpt lat="46.9667" lon="8.76635">
        <ele>897</ele>
        <time>2021-08-06T09:29:49.340Z</time>
      </trkpt>
      <trkpt lat="46.96671" lon="8.76633">
        <ele>898</ele>
        <time>2021-08-06T09:29:50.339Z</time>
      </trkpt>
      <trkpt lat="46.96671" lon="8.76631">
        <ele>899</ele>
        <time>2021-08-06T09:29:51.340Z</time>
      </trkpt>
      <trkpt lat="46.96671" lon="8.7663">
        <ele>900</ele>
        <time>2021-08-06T09:29:52.339Z</time>
      </trkpt>
      <trkpt lat="46.96671" lon="8.76629">
        <ele>900</ele>
        <time>2021-08-06T09:29:53.339Z</time>
      </trkpt>
      <trkpt lat="46.96671" lon="8.76628">
        <ele>901</ele>
        <time>2021-08-06T09:29:54.339Z</time>
      </trkpt>
      <trkpt lat="46.96671" lon="8.76627">
        <ele>902</ele>
        <time>2021-08-06T09:29:55.340Z</time>
      </trkpt>
      <trkpt lat="46.96671" lon="8.76625">
        <ele>902</ele>
        <time>2021-08-06T09:29:56.339Z</time>
      </trkpt>
      <trkpt lat="46.9667" lon="8.76624">
        <ele>903</ele>
        <time>2021-08-06T09:29:57.339Z</time>
      </trkpt>
      <trkpt lat="46.96669" lon="8.76623">
        <ele>903</ele>
        <time>2021-08-06T09:29:58.340Z</time>
      </trkpt>
      <trkpt lat="46.96668" lon="8.76622">
        <ele>904</ele>
        <time>2021-08-06T09:29:59.339Z</time>
      </trkpt>
      <trkpt lat="46.96668" lon="8.76621">
        <ele>904</ele>
        <time>2021-08-06T09:30:00.340Z</time>
      </trkpt>
      <trkpt lat="46.96668" lon="8.76621">
        <ele>905</ele>
        <time>2021-08-06T09:30:01.340Z</time>
      </trkpt>
      <trkpt lat="46.96668" lon="8.76621">
        <ele>905</ele>
        <time>2021-08-06T09:30:02.340Z</time>
      </trkpt>
      <trkpt lat="46.96667" lon="8.76622">
        <ele>905</ele>
        <time>2021-08-06T09:30:03.340Z</time>
      </trkpt>
      <trkpt lat="46.96667" lon="8.76621">
        <ele>905</ele>
        <time>2021-08-06T09:30:04.340Z</time>
      </trkpt>
      <trkpt lat="46.96667" lon="8.7662">
        <ele>905</ele>
        <time>2021-08-06T09:30:05.339Z</time>
      </trkpt>
      <trkpt lat="46.96667" lon="8.76621">
        <ele>905</ele>
        <time>2021-08-06T09:30:06.339Z</time>
      </trkpt>
      <trkpt lat="46.96667" lon="8.7662">
        <ele>905</ele>
        <time>2021-08-06T09:30:07.339Z</time>
      </trkpt>
      <trkpt lat="46.96667" lon="8.7662">
        <ele>906</ele>
        <time>2021-08-06T09:30:08.339Z</time>
      </trkpt>
      <trkpt lat="46.96666" lon="8.7662">
        <ele>906</ele>
        <time>2021-08-06T09:30:09.339Z</time>
      </trkpt>
      <trkpt lat="46.96667" lon="8.7662">
        <ele>905</ele>
        <time>2021-08-06T09:30:10.340Z</time>
      </trkpt>
      <trkpt lat="46.96667" lon="8.76619">
        <ele>905</ele>
        <time>2021-08-06T09:30:11.339Z</time>
      </trkpt>
      <trkpt lat="46.96668" lon="8.76619">
        <ele>905</ele>
        <time>2021-08-06T09:30:12.340Z</time>
      </trkpt>
      <trkpt lat="46.96669" lon="8.76619">
        <ele>905</ele>
        <time>2021-08-06T09:30:13.340Z</time>
      </trkpt>
      <trkpt lat="46.9667" lon="8.76618">
        <ele>905</ele>
        <time>2021-08-06T09:30:14.340Z</time>
      </trkpt>
      <trkpt lat="46.9667" lon="8.76617">
        <ele>905</ele>
        <time>2021-08-06T09:30:15.340Z</time>
      </trkpt>
      <trkpt lat="46.9667" lon="8.76616">
        <ele>905</ele>
        <time>2021-08-06T09:30:16.340Z</time>
      </trkpt>
      <trkpt lat="46.9667" lon="8.76616">
        <ele>905</ele>
        <time>2021-08-06T09:30:17.340Z</time>
      </trkpt>
      <trkpt lat="46.9667" lon="8.76615">
        <ele>906</ele>
        <time>2021-08-06T09:30:18.340Z</time>
      </trkpt>
      <trkpt lat="46.9667" lon="8.76614">
        <ele>906</ele>
        <time>2021-08-06T09:30:19.340Z</time>
      </trkpt>
      <trkpt lat="46.9667" lon="8.76614">
        <ele>906</ele>
        <time>2021-08-06T09:30:20.339Z</time>
      </trkpt>
      <trkpt lat="46.9667" lon="8.76613">
        <ele>906</ele>
        <time>2021-08-06T09:30:21.340Z</time>
      </trkpt>
      <trkpt lat="46.9667" lon="8.76613">
        <ele>907</ele>
        <time>2021-08-06T09:30:22.340Z</time>
      </trkpt>
      <trkpt lat="46.9667" lon="8.76613">
        <ele>907</ele>
        <time>2021-08-06T09:30:23.340Z</time>
      </trkpt>
      <trkpt lat="46.96669" lon="8.76614">
        <ele>907</ele>
        <time>2021-08-06T09:30:24.340Z</time>
      </trkpt>
      <trkpt lat="46.96669" lon="8.76614">
        <ele>906</ele>
        <time>2021-08-06T09:30:25.339Z</time>
      </trkpt>
      <trkpt lat="46.96668" lon="8.76613">
        <ele>906</ele>
        <time>2021-08-06T09:30:26.339Z</time>
      </trkpt>
      <trkpt lat="46.96668" lon="8.76612">
        <ele>906</ele>
        <time>2021-08-06T09:30:27.340Z</time>
      </trkpt>
      <trkpt lat="46.96668" lon="8.76611">
        <ele>906</ele>
        <time>2021-08-06T09:30:28.339Z</time>
      </trkpt>
      <trkpt lat="46.9667" lon="8.76612">
        <ele>901</ele>
        <time>2021-08-06T09:30:29.341Z</time>
      </trkpt>
      <trkpt lat="46.9667" lon="8.76611">
        <ele>901</ele>
        <time>2021-08-06T09:30:30.341Z</time>
      </trkpt>
      <trkpt lat="46.9667" lon="8.76611">
        <ele>901</ele>
        <time>2021-08-06T09:30:31.340Z</time>
      </trkpt>
      <trkpt lat="46.96669" lon="8.76611">
        <ele>901</ele>
        <time>2021-08-06T09:30:32.341Z</time>
      </trkpt>
      <trkpt lat="46.96668" lon="8.7661">
        <ele>901</ele>
        <time>2021-08-06T09:30:33.340Z</time>
      </trkpt>
      <trkpt lat="46.96668" lon="8.76609">
        <ele>901</ele>
        <time>2021-08-06T09:30:34.341Z</time>
      </trkpt>
      <trkpt lat="46.96668" lon="8.76609">
        <ele>900</ele>
        <time>2021-08-06T09:30:35.340Z</time>
      </trkpt>
      <trkpt lat="46.96668" lon="8.76608">
        <ele>900</ele>
        <time>2021-08-06T09:30:36.341Z</time>
      </trkpt>
      <trkpt lat="46.96668" lon="8.76607">
        <ele>900</ele>
        <time>2021-08-06T09:30:37.341Z</time>
      </trkpt>
      <trkpt lat="46.96669" lon="8.76607">
        <ele>901</ele>
        <time>2021-08-06T09:30:38.341Z</time>
      </trkpt>
      <trkpt lat="46.9667" lon="8.76606">
        <ele>901</ele>
        <time>2021-08-06T09:30:39.341Z</time>
      </trkpt>
      <trkpt lat="46.9667" lon="8.76604">
        <ele>902</ele>
        <time>2021-08-06T09:30:40.341Z</time>
      </trkpt>
      <trkpt lat="46.96671" lon="8.76603">
        <ele>903</ele>
        <time>2021-08-06T09:30:41.340Z</time>
      </trkpt>
      <trkpt lat="46.96671" lon="8.76602">
        <ele>904</ele>
        <time>2021-08-06T09:30:42.341Z</time>
      </trkpt>
      <trkpt lat="46.96671" lon="8.76601">
        <ele>904</ele>
        <time>2021-08-06T09:30:43.341Z</time>
      </trkpt>
      <trkpt lat="46.96671" lon="8.766">
        <ele>905</ele>
        <time>2021-08-06T09:30:44.341Z</time>
      </trkpt>
      <trkpt lat="46.96671" lon="8.76599">
        <ele>905</ele>
        <time>2021-08-06T09:30:45.340Z</time>
      </trkpt>
      <trkpt lat="46.96671" lon="8.76599">
        <ele>906</ele>
        <time>2021-08-06T09:30:46.341Z</time>
      </trkpt>
      <trkpt lat="46.96671" lon="8.76598">
        <ele>906</ele>
        <time>2021-08-06T09:30:47.341Z</time>
      </trkpt>
      <trkpt lat="46.96671" lon="8.76597">
        <ele>907</ele>
        <time>2021-08-06T09:30:48.340Z</time>
      </trkpt>
      <trkpt lat="46.96672" lon="8.76595">
        <ele>907</ele>
        <time>2021-08-06T09:30:49.341Z</time>
      </trkpt>
      <trkpt lat="46.96671" lon="8.76594">
        <ele>908</ele>
        <time>2021-08-06T09:30:50.341Z</time>
      </trkpt>
      <trkpt lat="46.96672" lon="8.76593">
        <ele>908</ele>
        <time>2021-08-06T09:30:51.341Z</time>
      </trkpt>
      <trkpt lat="46.96672" lon="8.76593">
        <ele>909</ele>
        <time>2021-08-06T09:30:52.341Z</time>
      </trkpt>
      <trkpt lat="46.96673" lon="8.76593">
        <ele>910</ele>
        <time>2021-08-06T09:30:53.341Z</time>
      </trkpt>
      <trkpt lat="46.96674" lon="8.76593">
        <ele>910</ele>
        <time>2021-08-06T09:30:54.341Z</time>
      </trkpt>
      <trkpt lat="46.96674" lon="8.76592">
        <ele>911</ele>
        <time>2021-08-06T09:30:55.341Z</time>
      </trkpt>
      <trkpt lat="46.96675" lon="8.76591">
        <ele>912</ele>
        <time>2021-08-06T09:30:56.340Z</time>
      </trkpt>
      <trkpt lat="46.96675" lon="8.76589">
        <ele>912</ele>
        <time>2021-08-06T09:30:57.341Z</time>
      </trkpt>
      <trkpt lat="46.96675" lon="8.76588">
        <ele>913</ele>
        <time>2021-08-06T09:30:58.340Z</time>
      </trkpt>
      <trkpt lat="46.96676" lon="8.76587">
        <ele>913</ele>
        <time>2021-08-06T09:30:59.341Z</time>
      </trkpt>
      <trkpt lat="46.96677" lon="8.76587">
        <ele>914</ele>
        <time>2021-08-06T09:31:00.340Z</time>
      </trkpt>
      <trkpt lat="46.96677" lon="8.76585">
        <ele>914</ele>
        <time>2021-08-06T09:31:01.341Z</time>
      </trkpt>
      <trkpt lat="46.96678" lon="8.76584">
        <ele>915</ele>
        <time>2021-08-06T09:31:02.341Z</time>
      </trkpt>
      <trkpt lat="46.96678" lon="8.76583">
        <ele>915</ele>
        <time>2021-08-06T09:31:03.340Z</time>
      </trkpt>
      <trkpt lat="46.96679" lon="8.76582">
        <ele>916</ele>
        <time>2021-08-06T09:31:04.340Z</time>
      </trkpt>
      <trkpt lat="46.9668" lon="8.76581">
        <ele>916</ele>
        <time>2021-08-06T09:31:05.340Z</time>
      </trkpt>
      <trkpt lat="46.9668" lon="8.7658">
        <ele>916</ele>
        <time>2021-08-06T09:31:06.340Z</time>
      </trkpt>
      <trkpt lat="46.96679" lon="8.76579">
        <ele>916</ele>
        <time>2021-08-06T09:31:07.341Z</time>
      </trkpt>
      <trkpt lat="46.9668" lon="8.76578">
        <ele>916</ele>
        <time>2021-08-06T09:31:08.340Z</time>
      </trkpt>
      <trkpt lat="46.9668" lon="8.76577">
        <ele>915</ele>
        <time>2021-08-06T09:31:09.341Z</time>
      </trkpt>
      <trkpt lat="46.9668" lon="8.76576">
        <ele>915</ele>
        <time>2021-08-06T09:31:10.341Z</time>
      </trkpt>
      <trkpt lat="46.96682" lon="8.76574">
        <ele>915</ele>
        <time>2021-08-06T09:31:11.341Z</time>
      </trkpt>
      <trkpt lat="46.96682" lon="8.76572">
        <ele>915</ele>
        <time>2021-08-06T09:31:12.341Z</time>
      </trkpt>
      <trkpt lat="46.96682" lon="8.7657">
        <ele>915</ele>
        <time>2021-08-06T09:31:13.341Z</time>
      </trkpt>
      <trkpt lat="46.96681" lon="8.76569">
        <ele>915</ele>
        <time>2021-08-06T09:31:14.341Z</time>
      </trkpt>
      <trkpt lat="46.9668" lon="8.76568">
        <ele>914</ele>
        <time>2021-08-06T09:31:15.341Z</time>
      </trkpt>
      <trkpt lat="46.9668" lon="8.76568">
        <ele>915</ele>
        <time>2021-08-06T09:31:16.341Z</time>
      </trkpt>
      <trkpt lat="46.96681" lon="8.76567">
        <ele>915</ele>
        <time>2021-08-06T09:31:17.341Z</time>
      </trkpt>
      <trkpt lat="46.96682" lon="8.76567">
        <ele>915</ele>
        <time>2021-08-06T09:31:18.341Z</time>
      </trkpt>
      <trkpt lat="46.96682" lon="8.76566">
        <ele>915</ele>
        <time>2021-08-06T09:31:19.341Z</time>
      </trkpt>
      <trkpt lat="46.96682" lon="8.76565">
        <ele>915</ele>
        <time>2021-08-06T09:31:20.341Z</time>
      </trkpt>
      <trkpt lat="46.96682" lon="8.76564">
        <ele>915</ele>
        <time>2021-08-06T09:31:21.341Z</time>
      </trkpt>
      <trkpt lat="46.96682" lon="8.76562">
        <ele>915</ele>
        <time>2021-08-06T09:31:22.340Z</time>
      </trkpt>
      <trkpt lat="46.96682" lon="8.76561">
        <ele>914</ele>
        <time>2021-08-06T09:31:23.341Z</time>
      </trkpt>
      <trkpt lat="46.96683" lon="8.7656">
        <ele>914</ele>
        <time>2021-08-06T09:31:24.340Z</time>
      </trkpt>
      <trkpt lat="46.96683" lon="8.76559">
        <ele>914</ele>
        <time>2021-08-06T09:31:25.341Z</time>
      </trkpt>
      <trkpt lat="46.96684" lon="8.76558">
        <ele>913</ele>
        <time>2021-08-06T09:31:26.340Z</time>
      </trkpt>
      <trkpt lat="46.96684" lon="8.76557">
        <ele>913</ele>
        <time>2021-08-06T09:31:27.341Z</time>
      </trkpt>
      <trkpt lat="46.96684" lon="8.76556">
        <ele>912</ele>
        <time>2021-08-06T09:31:28.340Z</time>
      </trkpt>
      <trkpt lat="46.96684" lon="8.76555">
        <ele>911</ele>
        <time>2021-08-06T09:31:29.340Z</time>
      </trkpt>
      <trkpt lat="46.96684" lon="8.76554">
        <ele>910</ele>
        <time>2021-08-06T09:31:30.341Z</time>
      </trkpt>
      <trkpt lat="46.96684" lon="8.76553">
        <ele>909</ele>
        <time>2021-08-06T09:31:31.341Z</time>
      </trkpt>
      <trkpt lat="46.96685" lon="8.76551">
        <ele>908</ele>
        <time>2021-08-06T09:31:32.341Z</time>
      </trkpt>
      <trkpt lat="46.96686" lon="8.7655">
        <ele>908</ele>
        <time>2021-08-06T09:31:33.340Z</time>
      </trkpt>
      <trkpt lat="46.96686" lon="8.76548">
        <ele>907</ele>
        <time>2021-08-06T09:31:34.340Z</time>
      </trkpt>
      <trkpt lat="46.96686" lon="8.76547">
        <ele>906</ele>
        <time>2021-08-06T09:31:35.340Z</time>
      </trkpt>
      <trkpt lat="46.96686" lon="8.76546">
        <ele>905</ele>
        <time>2021-08-06T09:31:36.341Z</time>
      </trkpt>
      <trkpt lat="46.96686" lon="8.76545">
        <ele>904</ele>
        <time>2021-08-06T09:31:37.340Z</time>
      </trkpt>
      <trkpt lat="46.96686" lon="8.76543">
        <ele>904</ele>
        <time>2021-08-06T09:31:38.341Z</time>
      </trkpt>
      <trkpt lat="46.96686" lon="8.76541">
        <ele>903</ele>
        <time>2021-08-06T09:31:39.340Z</time>
      </trkpt>
      <trkpt lat="46.96687" lon="8.7654">
        <ele>903</ele>
        <time>2021-08-06T09:31:40.341Z</time>
      </trkpt>
      <trkpt lat="46.96687" lon="8.76538">
        <ele>903</ele>
        <time>2021-08-06T09:31:41.341Z</time>
      </trkpt>
      <trkpt lat="46.96686" lon="8.76537">
        <ele>903</ele>
        <time>2021-08-06T09:31:42.340Z</time>
      </trkpt>
      <trkpt lat="46.96686" lon="8.76535">
        <ele>903</ele>
        <time>2021-08-06T09:31:43.341Z</time>
      </trkpt>
      <trkpt lat="46.96684" lon="8.76535">
        <ele>903</ele>
        <time>2021-08-06T09:31:44.341Z</time>
      </trkpt>
      <trkpt lat="46.96683" lon="8.76535">
        <ele>903</ele>
        <time>2021-08-06T09:31:45.341Z</time>
      </trkpt>
      <trkpt lat="46.96682" lon="8.76535">
        <ele>903</ele>
        <time>2021-08-06T09:31:46.341Z</time>
      </trkpt>
      <trkpt lat="46.96682" lon="8.76534">
        <ele>902</ele>
        <time>2021-08-06T09:31:47.341Z</time>
      </trkpt>
      <trkpt lat="46.96682" lon="8.76533">
        <ele>902</ele>
        <time>2021-08-06T09:31:48.341Z</time>
      </trkpt>
      <trkpt lat="46.96682" lon="8.76532">
        <ele>903</ele>
        <time>2021-08-06T09:31:49.341Z</time>
      </trkpt>
      <trkpt lat="46.96682" lon="8.76531">
        <ele>903</ele>
        <time>2021-08-06T09:31:50.341Z</time>
      </trkpt>
      <trkpt lat="46.96682" lon="8.76529">
        <ele>904</ele>
        <time>2021-08-06T09:31:51.340Z</time>
      </trkpt>
      <trkpt lat="46.96682" lon="8.76528">
        <ele>904</ele>
        <time>2021-08-06T09:31:52.341Z</time>
      </trkpt>
      <trkpt lat="46.96681" lon="8.76527">
        <ele>904</ele>
        <time>2021-08-06T09:31:53.341Z</time>
      </trkpt>
      <trkpt lat="46.96681" lon="8.76526">
        <ele>904</ele>
        <time>2021-08-06T09:31:54.340Z</time>
      </trkpt>
      <trkpt lat="46.96681" lon="8.76525">
        <ele>905</ele>
        <time>2021-08-06T09:31:55.341Z</time>
      </trkpt>
      <trkpt lat="46.96681" lon="8.76523">
        <ele>905</ele>
        <time>2021-08-06T09:31:56.340Z</time>
      </trkpt>
      <trkpt lat="46.96681" lon="8.76522">
        <ele>906</ele>
        <time>2021-08-06T09:31:57.341Z</time>
      </trkpt>
      <trkpt lat="46.96681" lon="8.76521">
        <ele>906</ele>
        <time>2021-08-06T09:31:58.341Z</time>
      </trkpt>
      <trkpt lat="46.96681" lon="8.76519">
        <ele>906</ele>
        <time>2021-08-06T09:31:59.341Z</time>
      </trkpt>
      <trkpt lat="46.96681" lon="8.76518">
        <ele>906</ele>
        <time>2021-08-06T09:32:00.340Z</time>
      </trkpt>
      <trkpt lat="46.96681" lon="8.76517">
        <ele>906</ele>
        <time>2021-08-06T09:32:01.341Z</time>
      </trkpt>
      <trkpt lat="46.9668" lon="8.76515">
        <ele>905</ele>
        <time>2021-08-06T09:32:02.341Z</time>
      </trkpt>
      <trkpt lat="46.9668" lon="8.76514">
        <ele>905</ele>
        <time>2021-08-06T09:32:03.340Z</time>
      </trkpt>
      <trkpt lat="46.9668" lon="8.76513">
        <ele>905</ele>
        <time>2021-08-06T09:32:04.341Z</time>
      </trkpt>
      <trkpt lat="46.9668" lon="8.76512">
        <ele>905</ele>
        <time>2021-08-06T09:32:05.341Z</time>
      </trkpt>
      <trkpt lat="46.96679" lon="8.76511">
        <ele>905</ele>
        <time>2021-08-06T09:32:06.341Z</time>
      </trkpt>
      <trkpt lat="46.96679" lon="8.7651">
        <ele>905</ele>
        <time>2021-08-06T09:32:07.340Z</time>
      </trkpt>
      <trkpt lat="46.96679" lon="8.76509">
        <ele>904</ele>
        <time>2021-08-06T09:32:08.341Z</time>
      </trkpt>
      <trkpt lat="46.96679" lon="8.76508">
        <ele>904</ele>
        <time>2021-08-06T09:32:09.340Z</time>
      </trkpt>
      <trkpt lat="46.96678" lon="8.76507">
        <ele>904</ele>
        <time>2021-08-06T09:32:10.341Z</time>
      </trkpt>
      <trkpt lat="46.96678" lon="8.76505">
        <ele>904</ele>
        <time>2021-08-06T09:32:11.341Z</time>
      </trkpt>
      <trkpt lat="46.96677" lon="8.76503">
        <ele>904</ele>
        <time>2021-08-06T09:32:12.340Z</time>
      </trkpt>
      <trkpt lat="46.96677" lon="8.76501">
        <ele>904</ele>
        <time>2021-08-06T09:32:13.341Z</time>
      </trkpt>
      <trkpt lat="46.96677" lon="8.76499">
        <ele>904</ele>
        <time>2021-08-06T09:32:14.340Z</time>
      </trkpt>
      <trkpt lat="46.96676" lon="8.76498">
        <ele>904</ele>
        <time>2021-08-06T09:32:15.341Z</time>
      </trkpt>
      <trkpt lat="46.96675" lon="8.76497">
        <ele>904</ele>
        <time>2021-08-06T09:32:16.341Z</time>
      </trkpt>
      <trkpt lat="46.96674" lon="8.76496">
        <ele>904</ele>
        <time>2021-08-06T09:32:17.341Z</time>
      </trkpt>
      <trkpt lat="46.96673" lon="8.76495">
        <ele>904</ele>
        <time>2021-08-06T09:32:18.340Z</time>
      </trkpt>
      <trkpt lat="46.96673" lon="8.76494">
        <ele>905</ele>
        <time>2021-08-06T09:32:19.341Z</time>
      </trkpt>
      <trkpt lat="46.96672" lon="8.76493">
        <ele>905</ele>
        <time>2021-08-06T09:32:20.341Z</time>
      </trkpt>
      <trkpt lat="46.96672" lon="8.76492">
        <ele>905</ele>
        <time>2021-08-06T09:32:21.341Z</time>
      </trkpt>
      <trkpt lat="46.96672" lon="8.76491">
        <ele>905</ele>
        <time>2021-08-06T09:32:22.341Z</time>
      </trkpt>
      <trkpt lat="46.96671" lon="8.7649">
        <ele>905</ele>
        <time>2021-08-06T09:32:23.340Z</time>
      </trkpt>
      <trkpt lat="46.96671" lon="8.76488">
        <ele>904</ele>
        <time>2021-08-06T09:32:24.340Z</time>
      </trkpt>
      <trkpt lat="46.96669" lon="8.76487">
        <ele>904</ele>
        <time>2021-08-06T09:32:25.340Z</time>
      </trkpt>
      <trkpt lat="46.96668" lon="8.76486">
        <ele>904</ele>
        <time>2021-08-06T09:32:26.341Z</time>
      </trkpt>
      <trkpt lat="46.96668" lon="8.76485">
        <ele>904</ele>
        <time>2021-08-06T09:32:27.341Z</time>
      </trkpt>
      <trkpt lat="46.96667" lon="8.76484">
        <ele>904</ele>
        <time>2021-08-06T09:32:28.341Z</time>
      </trkpt>
      <trkpt lat="46.96666" lon="8.76483">
        <ele>905</ele>
        <time>2021-08-06T09:32:29.340Z</time>
      </trkpt>
      <trkpt lat="46.96665" lon="8.76482">
        <ele>905</ele>
        <time>2021-08-06T09:32:30.341Z</time>
      </trkpt>
      <trkpt lat="46.96665" lon="8.76481">
        <ele>904</ele>
        <time>2021-08-06T09:32:31.340Z</time>
      </trkpt>
      <trkpt lat="46.96665" lon="8.7648">
        <ele>904</ele>
        <time>2021-08-06T09:32:32.340Z</time>
      </trkpt>
      <trkpt lat="46.96665" lon="8.76479">
        <ele>905</ele>
        <time>2021-08-06T09:32:33.341Z</time>
      </trkpt>
      <trkpt lat="46.96665" lon="8.76478">
        <ele>905</ele>
        <time>2021-08-06T09:32:34.341Z</time>
      </trkpt>
      <trkpt lat="46.96665" lon="8.76477">
        <ele>905</ele>
        <time>2021-08-06T09:32:35.341Z</time>
      </trkpt>
      <trkpt lat="46.96665" lon="8.76476">
        <ele>906</ele>
        <time>2021-08-06T09:32:36.341Z</time>
      </trkpt>
      <trkpt lat="46.96664" lon="8.76476">
        <ele>906</ele>
        <time>2021-08-06T09:32:37.340Z</time>
      </trkpt>
      <trkpt lat="46.96663" lon="8.76475">
        <ele>906</ele>
        <time>2021-08-06T09:32:38.340Z</time>
      </trkpt>
      <trkpt lat="46.96662" lon="8.76474">
        <ele>906</ele>
        <time>2021-08-06T09:32:39.341Z</time>
      </trkpt>
      <trkpt lat="46.96662" lon="8.76473">
        <ele>907</ele>
        <time>2021-08-06T09:32:40.340Z</time>
      </trkpt>
      <trkpt lat="46.96662" lon="8.76472">
        <ele>907</ele>
        <time>2021-08-06T09:32:41.340Z</time>
      </trkpt>
      <trkpt lat="46.96662" lon="8.76471">
        <ele>907</ele>
        <time>2021-08-06T09:32:42.341Z</time>
      </trkpt>
      <trkpt lat="46.96661" lon="8.7647">
        <ele>907</ele>
        <time>2021-08-06T09:32:43.340Z</time>
      </trkpt>
      <trkpt lat="46.96661" lon="8.76469">
        <ele>908</ele>
        <time>2021-08-06T09:32:44.341Z</time>
      </trkpt>
      <trkpt lat="46.96661" lon="8.76468">
        <ele>908</ele>
        <time>2021-08-06T09:32:45.341Z</time>
      </trkpt>
      <trkpt lat="46.96661" lon="8.76467">
        <ele>909</ele>
        <time>2021-08-06T09:32:46.341Z</time>
      </trkpt>
      <trkpt lat="46.9666" lon="8.76467">
        <ele>910</ele>
        <time>2021-08-06T09:32:47.341Z</time>
      </trkpt>
      <trkpt lat="46.9666" lon="8.76466">
        <ele>911</ele>
        <time>2021-08-06T09:32:48.341Z</time>
      </trkpt>
      <trkpt lat="46.96659" lon="8.76465">
        <ele>912</ele>
        <time>2021-08-06T09:32:49.341Z</time>
      </trkpt>
      <trkpt lat="46.96659" lon="8.76464">
        <ele>912</ele>
        <time>2021-08-06T09:32:50.340Z</time>
      </trkpt>
      <trkpt lat="46.96658" lon="8.76463">
        <ele>913</ele>
        <time>2021-08-06T09:32:51.341Z</time>
      </trkpt>
      <trkpt lat="46.96657" lon="8.76462">
        <ele>914</ele>
        <time>2021-08-06T09:32:52.341Z</time>
      </trkpt>
      <trkpt lat="46.96656" lon="8.7646">
        <ele>915</ele>
        <time>2021-08-06T09:32:53.341Z</time>
      </trkpt>
      <trkpt lat="46.96655" lon="8.76459">
        <ele>916</ele>
        <time>2021-08-06T09:32:54.340Z</time>
      </trkpt>
      <trkpt lat="46.96654" lon="8.76458">
        <ele>916</ele>
        <time>2021-08-06T09:32:55.340Z</time>
      </trkpt>
      <trkpt lat="46.96653" lon="8.76457">
        <ele>917</ele>
        <time>2021-08-06T09:32:56.341Z</time>
      </trkpt>
      <trkpt lat="46.96652" lon="8.76456">
        <ele>917</ele>
        <time>2021-08-06T09:32:57.341Z</time>
      </trkpt>
      <trkpt lat="46.96651" lon="8.76455">
        <ele>918</ele>
        <time>2021-08-06T09:32:58.341Z</time>
      </trkpt>
      <trkpt lat="46.9665" lon="8.76454">
        <ele>918</ele>
        <time>2021-08-06T09:32:59.341Z</time>
      </trkpt>
      <trkpt lat="46.9665" lon="8.76453">
        <ele>918</ele>
        <time>2021-08-06T09:33:00.341Z</time>
      </trkpt>
      <trkpt lat="46.96649" lon="8.76453">
        <ele>919</ele>
        <time>2021-08-06T09:33:01.341Z</time>
      </trkpt>
      <trkpt lat="46.96649" lon="8.76452">
        <ele>918</ele>
        <time>2021-08-06T09:33:02.341Z</time>
      </trkpt>
      <trkpt lat="46.96649" lon="8.7645">
        <ele>918</ele>
        <time>2021-08-06T09:33:03.341Z</time>
      </trkpt>
      <trkpt lat="46.96649" lon="8.76449">
        <ele>918</ele>
        <time>2021-08-06T09:33:04.341Z</time>
      </trkpt>
      <trkpt lat="46.96649" lon="8.76448">
        <ele>918</ele>
        <time>2021-08-06T09:33:05.341Z</time>
      </trkpt>
      <trkpt lat="46.96649" lon="8.76447">
        <ele>917</ele>
        <time>2021-08-06T09:33:06.340Z</time>
      </trkpt>
      <trkpt lat="46.96649" lon="8.76446">
        <ele>917</ele>
        <time>2021-08-06T09:33:07.341Z</time>
      </trkpt>
      <trkpt lat="46.96649" lon="8.76444">
        <ele>918</ele>
        <time>2021-08-06T09:33:08.340Z</time>
      </trkpt>
      <trkpt lat="46.96649" lon="8.76443">
        <ele>918</ele>
        <time>2021-08-06T09:33:09.341Z</time>
      </trkpt>
      <trkpt lat="46.96649" lon="8.76442">
        <ele>918</ele>
        <time>2021-08-06T09:33:10.340Z</time>
      </trkpt>
      <trkpt lat="46.96649" lon="8.76441">
        <ele>918</ele>
        <time>2021-08-06T09:33:11.341Z</time>
      </trkpt>
      <trkpt lat="46.96649" lon="8.7644">
        <ele>919</ele>
        <time>2021-08-06T09:33:12.341Z</time>
      </trkpt>
      <trkpt lat="46.96648" lon="8.76439">
        <ele>919</ele>
        <time>2021-08-06T09:33:13.340Z</time>
      </trkpt>
      <trkpt lat="46.96648" lon="8.76437">
        <ele>920</ele>
        <time>2021-08-06T09:33:14.341Z</time>
      </trkpt>
      <trkpt lat="46.96648" lon="8.76435">
        <ele>920</ele>
        <time>2021-08-06T09:33:15.340Z</time>
      </trkpt>
      <trkpt lat="46.96648" lon="8.76434">
        <ele>920</ele>
        <time>2021-08-06T09:33:16.341Z</time>
      </trkpt>
      <trkpt lat="46.96649" lon="8.76432">
        <ele>921</ele>
        <time>2021-08-06T09:33:17.341Z</time>
      </trkpt>
      <trkpt lat="46.96649" lon="8.76429">
        <ele>921</ele>
        <time>2021-08-06T09:33:18.341Z</time>
      </trkpt>
      <trkpt lat="46.96648" lon="8.76426">
        <ele>922</ele>
        <time>2021-08-06T09:33:19.340Z</time>
      </trkpt>
      <trkpt lat="46.96647" lon="8.76425">
        <ele>924</ele>
        <time>2021-08-06T09:33:20.340Z</time>
      </trkpt>
      <trkpt lat="46.96647" lon="8.76425">
        <ele>925</ele>
        <time>2021-08-06T09:33:21.340Z</time>
      </trkpt>
      <trkpt lat="46.96646" lon="8.76423">
        <ele>926</ele>
        <time>2021-08-06T09:33:22.341Z</time>
      </trkpt>
      <trkpt lat="46.96646" lon="8.76422">
        <ele>926</ele>
        <time>2021-08-06T09:33:23.340Z</time>
      </trkpt>
      <trkpt lat="46.96645" lon="8.76421">
        <ele>927</ele>
        <time>2021-08-06T09:33:24.340Z</time>
      </trkpt>
      <trkpt lat="46.96645" lon="8.76419">
        <ele>928</ele>
        <time>2021-08-06T09:33:25.341Z</time>
      </trkpt>
      <trkpt lat="46.96644" lon="8.76418">
        <ele>928</ele>
        <time>2021-08-06T09:33:26.341Z</time>
      </trkpt>
      <trkpt lat="46.96644" lon="8.76417">
        <ele>929</ele>
        <time>2021-08-06T09:33:27.340Z</time>
      </trkpt>
      <trkpt lat="46.96644" lon="8.76415">
        <ele>929</ele>
        <time>2021-08-06T09:33:28.340Z</time>
      </trkpt>
      <trkpt lat="46.96644" lon="8.76414">
        <ele>930</ele>
        <time>2021-08-06T09:33:29.341Z</time>
      </trkpt>
      <trkpt lat="46.96644" lon="8.76413">
        <ele>930</ele>
        <time>2021-08-06T09:33:30.341Z</time>
      </trkpt>
      <trkpt lat="46.96644" lon="8.76412">
        <ele>930</ele>
        <time>2021-08-06T09:33:31.341Z</time>
      </trkpt>
      <trkpt lat="46.96646" lon="8.7641">
        <ele>929</ele>
        <time>2021-08-06T09:33:32.340Z</time>
      </trkpt>
      <trkpt lat="46.96646" lon="8.76408">
        <ele>929</ele>
        <time>2021-08-06T09:33:33.340Z</time>
      </trkpt>
      <trkpt lat="46.96647" lon="8.76407">
        <ele>929</ele>
        <time>2021-08-06T09:33:34.340Z</time>
      </trkpt>
      <trkpt lat="46.96647" lon="8.76406">
        <ele>928</ele>
        <time>2021-08-06T09:33:35.340Z</time>
      </trkpt>
      <trkpt lat="46.96647" lon="8.76405">
        <ele>928</ele>
        <time>2021-08-06T09:33:36.340Z</time>
      </trkpt>
      <trkpt lat="46.96647" lon="8.76404">
        <ele>927</ele>
        <time>2021-08-06T09:33:37.340Z</time>
      </trkpt>
      <trkpt lat="46.96646" lon="8.76403">
        <ele>927</ele>
        <time>2021-08-06T09:33:38.341Z</time>
      </trkpt>
      <trkpt lat="46.96646" lon="8.76403">
        <ele>926</ele>
        <time>2021-08-06T09:33:39.340Z</time>
      </trkpt>
      <trkpt lat="46.96645" lon="8.76402">
        <ele>926</ele>
        <time>2021-08-06T09:33:40.340Z</time>
      </trkpt>
      <trkpt lat="46.96644" lon="8.76401">
        <ele>926</ele>
        <time>2021-08-06T09:33:41.340Z</time>
      </trkpt>
      <trkpt lat="46.96644" lon="8.76401">
        <ele>925</ele>
        <time>2021-08-06T09:33:42.341Z</time>
      </trkpt>
      <trkpt lat="46.96644" lon="8.764">
        <ele>925</ele>
        <time>2021-08-06T09:33:43.341Z</time>
      </trkpt>
      <trkpt lat="46.96645" lon="8.76399">
        <ele>925</ele>
        <time>2021-08-06T09:33:44.341Z</time>
      </trkpt>
      <trkpt lat="46.96645" lon="8.76397">
        <ele>924</ele>
        <time>2021-08-06T09:33:45.341Z</time>
      </trkpt>
      <trkpt lat="46.96644" lon="8.76396">
        <ele>924</ele>
        <time>2021-08-06T09:33:46.340Z</time>
      </trkpt>
      <trkpt lat="46.96643" lon="8.76395">
        <ele>924</ele>
        <time>2021-08-06T09:33:47.341Z</time>
      </trkpt>
      <trkpt lat="46.96643" lon="8.76393">
        <ele>924</ele>
        <time>2021-08-06T09:33:48.340Z</time>
      </trkpt>
      <trkpt lat="46.96642" lon="8.76392">
        <ele>924</ele>
        <time>2021-08-06T09:33:49.340Z</time>
      </trkpt>
      <trkpt lat="46.96641" lon="8.76391">
        <ele>924</ele>
        <time>2021-08-06T09:33:50.341Z</time>
      </trkpt>
      <trkpt lat="46.9664" lon="8.7639">
        <ele>924</ele>
        <time>2021-08-06T09:33:51.341Z</time>
      </trkpt>
      <trkpt lat="46.96639" lon="8.76389">
        <ele>924</ele>
        <time>2021-08-06T09:33:52.341Z</time>
      </trkpt>
      <trkpt lat="46.96639" lon="8.76388">
        <ele>925</ele>
        <time>2021-08-06T09:33:53.341Z</time>
      </trkpt>
      <trkpt lat="46.96638" lon="8.76387">
        <ele>925</ele>
        <time>2021-08-06T09:33:54.340Z</time>
      </trkpt>
      <trkpt lat="46.96638" lon="8.76386">
        <ele>926</ele>
        <time>2021-08-06T09:33:55.341Z</time>
      </trkpt>
      <trkpt lat="46.96638" lon="8.76385">
        <ele>926</ele>
        <time>2021-08-06T09:33:56.341Z</time>
      </trkpt>
      <trkpt lat="46.96638" lon="8.76384">
        <ele>927</ele>
        <time>2021-08-06T09:33:57.341Z</time>
      </trkpt>
      <trkpt lat="46.96638" lon="8.76383">
        <ele>928</ele>
        <time>2021-08-06T09:33:58.341Z</time>
      </trkpt>
      <trkpt lat="46.96637" lon="8.76382">
        <ele>928</ele>
        <time>2021-08-06T09:33:59.341Z</time>
      </trkpt>
      <trkpt lat="46.96637" lon="8.7638">
        <ele>929</ele>
        <time>2021-08-06T09:34:00.341Z</time>
      </trkpt>
      <trkpt lat="46.96638" lon="8.7638">
        <ele>930</ele>
        <time>2021-08-06T09:34:01.341Z</time>
      </trkpt>
      <trkpt lat="46.96638" lon="8.76379">
        <ele>930</ele>
        <time>2021-08-06T09:34:02.341Z</time>
      </trkpt>
      <trkpt lat="46.96639" lon="8.76378">
        <ele>931</ele>
        <time>2021-08-06T09:34:03.341Z</time>
      </trkpt>
      <trkpt lat="46.96639" lon="8.76377">
        <ele>932</ele>
        <time>2021-08-06T09:34:04.341Z</time>
      </trkpt>
      <trkpt lat="46.9664" lon="8.76376">
        <ele>932</ele>
        <time>2021-08-06T09:34:05.341Z</time>
      </trkpt>
      <trkpt lat="46.9664" lon="8.76375">
        <ele>933</ele>
        <time>2021-08-06T09:34:06.341Z</time>
      </trkpt>
      <trkpt lat="46.96641" lon="8.76373">
        <ele>934</ele>
        <time>2021-08-06T09:34:07.341Z</time>
      </trkpt>
      <trkpt lat="46.96641" lon="8.76372">
        <ele>936</ele>
        <time>2021-08-06T09:34:08.341Z</time>
      </trkpt>
      <trkpt lat="46.96641" lon="8.76371">
        <ele>937</ele>
        <time>2021-08-06T09:34:09.341Z</time>
      </trkpt>
      <trkpt lat="46.96642" lon="8.76371">
        <ele>938</ele>
        <time>2021-08-06T09:34:10.341Z</time>
      </trkpt>
      <trkpt lat="46.96642" lon="8.7637">
        <ele>939</ele>
        <time>2021-08-06T09:34:11.341Z</time>
      </trkpt>
      <trkpt lat="46.96642" lon="8.76371">
        <ele>940</ele>
        <time>2021-08-06T09:34:12.340Z</time>
      </trkpt>
      <trkpt lat="46.96642" lon="8.7637">
        <ele>941</ele>
        <time>2021-08-06T09:34:13.341Z</time>
      </trkpt>
      <trkpt lat="46.96642" lon="8.76369">
        <ele>941</ele>
        <time>2021-08-06T09:34:14.341Z</time>
      </trkpt>
      <trkpt lat="46.96642" lon="8.76369">
        <ele>942</ele>
        <time>2021-08-06T09:34:15.341Z</time>
      </trkpt>
      <trkpt lat="46.96642" lon="8.76369">
        <ele>944</ele>
        <time>2021-08-06T09:34:16.341Z</time>
      </trkpt>
      <trkpt lat="46.96642" lon="8.76369">
        <ele>945</ele>
        <time>2021-08-06T09:34:17.340Z</time>
      </trkpt>
      <trkpt lat="46.96643" lon="8.76367">
        <ele>946</ele>
        <time>2021-08-06T09:34:18.340Z</time>
      </trkpt>
      <trkpt lat="46.96643" lon="8.76366">
        <ele>948</ele>
        <time>2021-08-06T09:34:19.341Z</time>
      </trkpt>
      <trkpt lat="46.96644" lon="8.76365">
        <ele>949</ele>
        <time>2021-08-06T09:34:20.341Z</time>
      </trkpt>
      <trkpt lat="46.96644" lon="8.76364">
        <ele>950</ele>
        <time>2021-08-06T09:34:21.340Z</time>
      </trkpt>
      <trkpt lat="46.96645" lon="8.76363">
        <ele>952</ele>
        <time>2021-08-06T09:34:22.341Z</time>
      </trkpt>
      <trkpt lat="46.96645" lon="8.76363">
        <ele>953</ele>
        <time>2021-08-06T09:34:23.341Z</time>
      </trkpt>
      <trkpt lat="46.96645" lon="8.76362">
        <ele>954</ele>
        <time>2021-08-06T09:34:24.341Z</time>
      </trkpt>
      <trkpt lat="46.96645" lon="8.76361">
        <ele>955</ele>
        <time>2021-08-06T09:34:25.340Z</time>
      </trkpt>
      <trkpt lat="46.96646" lon="8.7636">
        <ele>956</ele>
        <time>2021-08-06T09:34:26.341Z</time>
      </trkpt>
      <trkpt lat="46.96647" lon="8.76359">
        <ele>957</ele>
        <time>2021-08-06T09:34:27.340Z</time>
      </trkpt>
      <trkpt lat="46.96647" lon="8.76358">
        <ele>958</ele>
        <time>2021-08-06T09:34:28.340Z</time>
      </trkpt>
      <trkpt lat="46.96648" lon="8.76357">
        <ele>959</ele>
        <time>2021-08-06T09:34:29.341Z</time>
      </trkpt>
      <trkpt lat="46.96649" lon="8.76355">
        <ele>960</ele>
        <time>2021-08-06T09:34:30.341Z</time>
      </trkpt>
      <trkpt lat="46.96651" lon="8.76354">
        <ele>960</ele>
        <time>2021-08-06T09:34:31.340Z</time>
      </trkpt>
      <trkpt lat="46.96652" lon="8.76353">
        <ele>961</ele>
        <time>2021-08-06T09:34:32.341Z</time>
      </trkpt>
      <trkpt lat="46.96653" lon="8.76352">
        <ele>961</ele>
        <time>2021-08-06T09:34:33.341Z</time>
      </trkpt>
      <trkpt lat="46.96653" lon="8.76351">
        <ele>962</ele>
        <time>2021-08-06T09:34:34.340Z</time>
      </trkpt>
      <trkpt lat="46.96654" lon="8.7635">
        <ele>962</ele>
        <time>2021-08-06T09:34:35.340Z</time>
      </trkpt>
      <trkpt lat="46.96655" lon="8.76349">
        <ele>962</ele>
        <time>2021-08-06T09:34:36.340Z</time>
      </trkpt>
      <trkpt lat="46.96655" lon="8.76348">
        <ele>963</ele>
        <time>2021-08-06T09:34:37.341Z</time>
      </trkpt>
      <trkpt lat="46.96656" lon="8.76347">
        <ele>964</ele>
        <time>2021-08-06T09:34:38.340Z</time>
      </trkpt>
      <trkpt lat="46.96656" lon="8.76347">
        <ele>964</ele>
        <time>2021-08-06T09:34:39.341Z</time>
      </trkpt>
      <trkpt lat="46.96657" lon="8.76346">
        <ele>964</ele>
        <time>2021-08-06T09:34:40.340Z</time>
      </trkpt>
      <trkpt lat="46.96658" lon="8.76345">
        <ele>965</ele>
        <time>2021-08-06T09:34:41.341Z</time>
      </trkpt>
      <trkpt lat="46.96659" lon="8.76344">
        <ele>965</ele>
        <time>2021-08-06T09:34:42.340Z</time>
      </trkpt>
      <trkpt lat="46.96659" lon="8.76343">
        <ele>966</ele>
        <time>2021-08-06T09:34:43.340Z</time>
      </trkpt>
      <trkpt lat="46.9666" lon="8.76343">
        <ele>966</ele>
        <time>2021-08-06T09:34:44.341Z</time>
      </trkpt>
      <trkpt lat="46.9666" lon="8.76341">
        <ele>965</ele>
        <time>2021-08-06T09:34:45.340Z</time>
      </trkpt>
      <trkpt lat="46.9666" lon="8.7634">
        <ele>965</ele>
        <time>2021-08-06T09:34:46.341Z</time>
      </trkpt>
      <trkpt lat="46.9666" lon="8.76338">
        <ele>964</ele>
        <time>2021-08-06T09:34:47.341Z</time>
      </trkpt>
      <trkpt lat="46.96659" lon="8.76337">
        <ele>964</ele>
        <time>2021-08-06T09:34:48.340Z</time>
      </trkpt>
      <trkpt lat="46.96659" lon="8.76336">
        <ele>963</ele>
        <time>2021-08-06T09:34:49.341Z</time>
      </trkpt>
      <trkpt lat="46.96658" lon="8.76335">
        <ele>962</ele>
        <time>2021-08-06T09:34:50.341Z</time>
      </trkpt>
      <trkpt lat="46.96658" lon="8.76334">
        <ele>961</ele>
        <time>2021-08-06T09:34:51.341Z</time>
      </trkpt>
      <trkpt lat="46.96658" lon="8.76332">
        <ele>960</ele>
        <time>2021-08-06T09:34:52.341Z</time>
      </trkpt>
      <trkpt lat="46.96658" lon="8.76331">
        <ele>958</ele>
        <time>2021-08-06T09:34:53.341Z</time>
      </trkpt>
      <trkpt lat="46.96658" lon="8.76329">
        <ele>957</ele>
        <time>2021-08-06T09:34:54.340Z</time>
      </trkpt>
      <trkpt lat="46.96657" lon="8.76328">
        <ele>956</ele>
        <time>2021-08-06T09:34:55.341Z</time>
      </trkpt>
      <trkpt lat="46.96656" lon="8.76327">
        <ele>954</ele>
        <time>2021-08-06T09:34:56.341Z</time>
      </trkpt>
      <trkpt lat="46.96656" lon="8.76325">
        <ele>953</ele>
        <time>2021-08-06T09:34:57.341Z</time>
      </trkpt>
      <trkpt lat="46.96655" lon="8.76323">
        <ele>952</ele>
        <time>2021-08-06T09:34:58.340Z</time>
      </trkpt>
      <trkpt lat="46.96654" lon="8.76322">
        <ele>951</ele>
        <time>2021-08-06T09:34:59.340Z</time>
      </trkpt>
      <trkpt lat="46.96655" lon="8.7632">
        <ele>949</ele>
        <time>2021-08-06T09:35:00.341Z</time>
      </trkpt>
      <trkpt lat="46.96655" lon="8.76319">
        <ele>948</ele>
        <time>2021-08-06T09:35:01.341Z</time>
      </trkpt>
      <trkpt lat="46.96654" lon="8.76317">
        <ele>948</ele>
        <time>2021-08-06T09:35:02.341Z</time>
      </trkpt>
      <trkpt lat="46.96653" lon="8.76315">
        <ele>947</ele>
        <time>2021-08-06T09:35:03.341Z</time>
      </trkpt>
      <trkpt lat="46.96653" lon="8.76314">
        <ele>946</ele>
        <time>2021-08-06T09:35:04.340Z</time>
      </trkpt>
      <trkpt lat="46.96652" lon="8.76312">
        <ele>946</ele>
        <time>2021-08-06T09:35:05.341Z</time>
      </trkpt>
      <trkpt lat="46.96651" lon="8.76311">
        <ele>946</ele>
        <time>2021-08-06T09:35:06.341Z</time>
      </trkpt>
      <trkpt lat="46.9665" lon="8.76309">
        <ele>945</ele>
        <time>2021-08-06T09:35:07.340Z</time>
      </trkpt>
      <trkpt lat="46.9665" lon="8.76308">
        <ele>945</ele>
        <time>2021-08-06T09:35:08.340Z</time>
      </trkpt>
      <trkpt lat="46.96649" lon="8.76306">
        <ele>944</ele>
        <time>2021-08-06T09:35:09.341Z</time>
      </trkpt>
      <trkpt lat="46.96647" lon="8.76306">
        <ele>943</ele>
        <time>2021-08-06T09:35:10.341Z</time>
      </trkpt>
      <trkpt lat="46.96647" lon="8.76305">
        <ele>942</ele>
        <time>2021-08-06T09:35:11.341Z</time>
      </trkpt>
      <trkpt lat="46.96646" lon="8.76304">
        <ele>941</ele>
        <time>2021-08-06T09:35:12.341Z</time>
      </trkpt>
      <trkpt lat="46.96645" lon="8.76302">
        <ele>940</ele>
        <time>2021-08-06T09:35:13.340Z</time>
      </trkpt>
      <trkpt lat="46.96646" lon="8.763">
        <ele>939</ele>
        <time>2021-08-06T09:35:14.340Z</time>
      </trkpt>
      <trkpt lat="46.96646" lon="8.76299">
        <ele>939</ele>
        <time>2021-08-06T09:35:15.341Z</time>
      </trkpt>
      <trkpt lat="46.96647" lon="8.76297">
        <ele>939</ele>
        <time>2021-08-06T09:35:16.341Z</time>
      </trkpt>
      <trkpt lat="46.96646" lon="8.76296">
        <ele>938</ele>
        <time>2021-08-06T09:35:17.340Z</time>
      </trkpt>
      <trkpt lat="46.96646" lon="8.76296">
        <ele>938</ele>
        <time>2021-08-06T09:35:18.341Z</time>
      </trkpt>
      <trkpt lat="46.96645" lon="8.76294">
        <ele>938</ele>
        <time>2021-08-06T09:35:19.341Z</time>
      </trkpt>
      <trkpt lat="46.96645" lon="8.76294">
        <ele>938</ele>
        <time>2021-08-06T09:35:20.341Z</time>
      </trkpt>
      <trkpt lat="46.96644" lon="8.76293">
        <ele>939</ele>
        <time>2021-08-06T09:35:21.340Z</time>
      </trkpt>
      <trkpt lat="46.96643" lon="8.76292">
        <ele>939</ele>
        <time>2021-08-06T09:35:22.341Z</time>
      </trkpt>
      <trkpt lat="46.96643" lon="8.76292">
        <ele>938</ele>
        <time>2021-08-06T09:35:23.341Z</time>
      </trkpt>
      <trkpt lat="46.96642" lon="8.76291">
        <ele>938</ele>
        <time>2021-08-06T09:35:24.341Z</time>
      </trkpt>
      <trkpt lat="46.96642" lon="8.7629">
        <ele>938</ele>
        <time>2021-08-06T09:35:25.340Z</time>
      </trkpt>
      <trkpt lat="46.96641" lon="8.7629">
        <ele>938</ele>
        <time>2021-08-06T09:35:26.341Z</time>
      </trkpt>
      <trkpt lat="46.96641" lon="8.76289">
        <ele>938</ele>
        <time>2021-08-06T09:35:27.340Z</time>
      </trkpt>
      <trkpt lat="46.96641" lon="8.76287">
        <ele>937</ele>
        <time>2021-08-06T09:35:28.341Z</time>
      </trkpt>
      <trkpt lat="46.96641" lon="8.76286">
        <ele>937</ele>
        <time>2021-08-06T09:35:29.341Z</time>
      </trkpt>
      <trkpt lat="46.96641" lon="8.76285">
        <ele>937</ele>
        <time>2021-08-06T09:35:30.340Z</time>
      </trkpt>
      <trkpt lat="46.96641" lon="8.76283">
        <ele>937</ele>
        <time>2021-08-06T09:35:31.341Z</time>
      </trkpt>
      <trkpt lat="46.96641" lon="8.76282">
        <ele>937</ele>
        <time>2021-08-06T09:35:32.341Z</time>
      </trkpt>
      <trkpt lat="46.96641" lon="8.7628">
        <ele>937</ele>
        <time>2021-08-06T09:35:33.340Z</time>
      </trkpt>
      <trkpt lat="46.96641" lon="8.76279">
        <ele>936</ele>
        <time>2021-08-06T09:35:34.340Z</time>
      </trkpt>
      <trkpt lat="46.96642" lon="8.76277">
        <ele>936</ele>
        <time>2021-08-06T09:35:35.341Z</time>
      </trkpt>
      <trkpt lat="46.96642" lon="8.76275">
        <ele>936</ele>
        <time>2021-08-06T09:35:36.341Z</time>
      </trkpt>
      <trkpt lat="46.96643" lon="8.76274">
        <ele>936</ele>
        <time>2021-08-06T09:35:37.341Z</time>
      </trkpt>
      <trkpt lat="46.96643" lon="8.76272">
        <ele>936</ele>
        <time>2021-08-06T09:35:38.341Z</time>
      </trkpt>
      <trkpt lat="46.96643" lon="8.76271">
        <ele>936</ele>
        <time>2021-08-06T09:35:39.340Z</time>
      </trkpt>
      <trkpt lat="46.96643" lon="8.7627">
        <ele>937</ele>
        <time>2021-08-06T09:35:40.341Z</time>
      </trkpt>
      <trkpt lat="46.96644" lon="8.76268">
        <ele>937</ele>
        <time>2021-08-06T09:35:41.340Z</time>
      </trkpt>
      <trkpt lat="46.96645" lon="8.76267">
        <ele>937</ele>
        <time>2021-08-06T09:35:42.341Z</time>
      </trkpt>
      <trkpt lat="46.96646" lon="8.76265">
        <ele>938</ele>
        <time>2021-08-06T09:35:43.340Z</time>
      </trkpt>
      <trkpt lat="46.96646" lon="8.76265">
        <ele>938</ele>
        <time>2021-08-06T09:35:44.341Z</time>
      </trkpt>
      <trkpt lat="46.96647" lon="8.76264">
        <ele>939</ele>
        <time>2021-08-06T09:35:45.340Z</time>
      </trkpt>
      <trkpt lat="46.96647" lon="8.76262">
        <ele>939</ele>
        <time>2021-08-06T09:35:46.341Z</time>
      </trkpt>
      <trkpt lat="46.96646" lon="8.76261">
        <ele>938</ele>
        <time>2021-08-06T09:35:47.341Z</time>
      </trkpt>
      <trkpt lat="46.96646" lon="8.7626">
        <ele>938</ele>
        <time>2021-08-06T09:35:48.340Z</time>
      </trkpt>
      <trkpt lat="46.96646" lon="8.76258">
        <ele>938</ele>
        <time>2021-08-06T09:35:49.341Z</time>
      </trkpt>
      <trkpt lat="46.96646" lon="8.76256">
        <ele>938</ele>
        <time>2021-08-06T09:35:50.341Z</time>
      </trkpt>
      <trkpt lat="46.96646" lon="8.76255">
        <ele>938</ele>
        <time>2021-08-06T09:35:51.340Z</time>
      </trkpt>
      <trkpt lat="46.96647" lon="8.76253">
        <ele>937</ele>
        <time>2021-08-06T09:35:52.341Z</time>
      </trkpt>
      <trkpt lat="46.96648" lon="8.76252">
        <ele>937</ele>
        <time>2021-08-06T09:35:53.340Z</time>
      </trkpt>
      <trkpt lat="46.96648" lon="8.7625">
        <ele>937</ele>
        <time>2021-08-06T09:35:54.341Z</time>
      </trkpt>
      <trkpt lat="46.96648" lon="8.76249">
        <ele>937</ele>
        <time>2021-08-06T09:35:55.340Z</time>
      </trkpt>
      <trkpt lat="46.96649" lon="8.76247">
        <ele>937</ele>
        <time>2021-08-06T09:35:56.341Z</time>
      </trkpt>
      <trkpt lat="46.96648" lon="8.76246">
        <ele>936</ele>
        <time>2021-08-06T09:35:57.341Z</time>
      </trkpt>
      <trkpt lat="46.96648" lon="8.76245">
        <ele>936</ele>
        <time>2021-08-06T09:35:58.341Z</time>
      </trkpt>
      <trkpt lat="46.96648" lon="8.76243">
        <ele>936</ele>
        <time>2021-08-06T09:35:59.340Z</time>
      </trkpt>
      <trkpt lat="46.96648" lon="8.76242">
        <ele>935</ele>
        <time>2021-08-06T09:36:00.341Z</time>
      </trkpt>
      <trkpt lat="46.96648" lon="8.76241">
        <ele>935</ele>
        <time>2021-08-06T09:36:01.340Z</time>
      </trkpt>
      <trkpt lat="46.96647" lon="8.7624">
        <ele>935</ele>
        <time>2021-08-06T09:36:02.340Z</time>
      </trkpt>
      <trkpt lat="46.96647" lon="8.76239">
        <ele>935</ele>
        <time>2021-08-06T09:36:03.341Z</time>
      </trkpt>
      <trkpt lat="46.96647" lon="8.76238">
        <ele>935</ele>
        <time>2021-08-06T09:36:04.340Z</time>
      </trkpt>
      <trkpt lat="46.96647" lon="8.76236">
        <ele>935</ele>
        <time>2021-08-06T09:36:05.340Z</time>
      </trkpt>
      <trkpt lat="46.96647" lon="8.76235">
        <ele>935</ele>
        <time>2021-08-06T09:36:06.341Z</time>
      </trkpt>
      <trkpt lat="46.96646" lon="8.76234">
        <ele>935</ele>
        <time>2021-08-06T09:36:07.340Z</time>
      </trkpt>
      <trkpt lat="46.96645" lon="8.76233">
        <ele>935</ele>
        <time>2021-08-06T09:36:08.341Z</time>
      </trkpt>
      <trkpt lat="46.96645" lon="8.76231">
        <ele>935</ele>
        <time>2021-08-06T09:36:09.341Z</time>
      </trkpt>
      <trkpt lat="46.96644" lon="8.7623">
        <ele>935</ele>
        <time>2021-08-06T09:36:10.340Z</time>
      </trkpt>
      <trkpt lat="46.96644" lon="8.76229">
        <ele>936</ele>
        <time>2021-08-06T09:36:11.341Z</time>
      </trkpt>
      <trkpt lat="46.96644" lon="8.76227">
        <ele>936</ele>
        <time>2021-08-06T09:36:12.341Z</time>
      </trkpt>
      <trkpt lat="46.96644" lon="8.76226">
        <ele>936</ele>
        <time>2021-08-06T09:36:13.341Z</time>
      </trkpt>
      <trkpt lat="46.96644" lon="8.76223">
        <ele>936</ele>
        <time>2021-08-06T09:36:14.341Z</time>
      </trkpt>
      <trkpt lat="46.96644" lon="8.76222">
        <ele>936</ele>
        <time>2021-08-06T09:36:15.341Z</time>
      </trkpt>
      <trkpt lat="46.96643" lon="8.76221">
        <ele>936</ele>
        <time>2021-08-06T09:36:16.341Z</time>
      </trkpt>
      <trkpt lat="46.96643" lon="8.76219">
        <ele>937</ele>
        <time>2021-08-06T09:36:17.341Z</time>
      </trkpt>
      <trkpt lat="46.96642" lon="8.76218">
        <ele>937</ele>
        <time>2021-08-06T09:36:18.341Z</time>
      </trkpt>
      <trkpt lat="46.96642" lon="8.76216">
        <ele>937</ele>
        <time>2021-08-06T09:36:19.341Z</time>
      </trkpt>
      <trkpt lat="46.96641" lon="8.76215">
        <ele>937</ele>
        <time>2021-08-06T09:36:20.340Z</time>
      </trkpt>
      <trkpt lat="46.96641" lon="8.76214">
        <ele>938</ele>
        <time>2021-08-06T09:36:21.340Z</time>
      </trkpt>
      <trkpt lat="46.9664" lon="8.76213">
        <ele>938</ele>
        <time>2021-08-06T09:36:22.341Z</time>
      </trkpt>
      <trkpt lat="46.9664" lon="8.76211">
        <ele>938</ele>
        <time>2021-08-06T09:36:23.341Z</time>
      </trkpt>
      <trkpt lat="46.9664" lon="8.76209">
        <ele>939</ele>
        <time>2021-08-06T09:36:24.341Z</time>
      </trkpt>
      <trkpt lat="46.9664" lon="8.76207">
        <ele>940</ele>
        <time>2021-08-06T09:36:25.340Z</time>
      </trkpt>
      <trkpt lat="46.9664" lon="8.76207">
        <ele>941</ele>
        <time>2021-08-06T09:36:26.341Z</time>
      </trkpt>
      <trkpt lat="46.9664" lon="8.76205">
        <ele>942</ele>
        <time>2021-08-06T09:36:27.341Z</time>
      </trkpt>
      <trkpt lat="46.9664" lon="8.76204">
        <ele>943</ele>
        <time>2021-08-06T09:36:28.341Z</time>
      </trkpt>
      <trkpt lat="46.9664" lon="8.76202">
        <ele>943</ele>
        <time>2021-08-06T09:36:29.341Z</time>
      </trkpt>
      <trkpt lat="46.9664" lon="8.76201">
        <ele>944</ele>
        <time>2021-08-06T09:36:30.341Z</time>
      </trkpt>
      <trkpt lat="46.9664" lon="8.76199">
        <ele>944</ele>
        <time>2021-08-06T09:36:31.341Z</time>
      </trkpt>
      <trkpt lat="46.9664" lon="8.76198">
        <ele>945</ele>
        <time>2021-08-06T09:36:32.341Z</time>
      </trkpt>
      <trkpt lat="46.96639" lon="8.76196">
        <ele>945</ele>
        <time>2021-08-06T09:36:33.341Z</time>
      </trkpt>
      <trkpt lat="46.96639" lon="8.76195">
        <ele>946</ele>
        <time>2021-08-06T09:36:34.341Z</time>
      </trkpt>
      <trkpt lat="46.96639" lon="8.76193">
        <ele>946</ele>
        <time>2021-08-06T09:36:35.341Z</time>
      </trkpt>
      <trkpt lat="46.96639" lon="8.76192">
        <ele>946</ele>
        <time>2021-08-06T09:36:36.341Z</time>
      </trkpt>
      <trkpt lat="46.96639" lon="8.76191">
        <ele>946</ele>
        <time>2021-08-06T09:36:37.341Z</time>
      </trkpt>
      <trkpt lat="46.96638" lon="8.76189">
        <ele>947</ele>
        <time>2021-08-06T09:36:38.341Z</time>
      </trkpt>
      <trkpt lat="46.96637" lon="8.76187">
        <ele>947</ele>
        <time>2021-08-06T09:36:39.341Z</time>
      </trkpt>
      <trkpt lat="46.96637" lon="8.76186">
        <ele>947</ele>
        <time>2021-08-06T09:36:40.341Z</time>
      </trkpt>
      <trkpt lat="46.96636" lon="8.76185">
        <ele>947</ele>
        <time>2021-08-06T09:36:41.341Z</time>
      </trkpt>
      <trkpt lat="46.96636" lon="8.76184">
        <ele>946</ele>
        <time>2021-08-06T09:36:42.340Z</time>
      </trkpt>
      <trkpt lat="46.96636" lon="8.76182">
        <ele>946</ele>
        <time>2021-08-06T09:36:43.340Z</time>
      </trkpt>
      <trkpt lat="46.96636" lon="8.76181">
        <ele>946</ele>
        <time>2021-08-06T09:36:44.341Z</time>
      </trkpt>
      <trkpt lat="46.96635" lon="8.76179">
        <ele>946</ele>
        <time>2021-08-06T09:36:45.341Z</time>
      </trkpt>
      <trkpt lat="46.96635" lon="8.76178">
        <ele>946</ele>
        <time>2021-08-06T09:36:46.341Z</time>
      </trkpt>
      <trkpt lat="46.96635" lon="8.76177">
        <ele>946</ele>
        <time>2021-08-06T09:36:47.341Z</time>
      </trkpt>
      <trkpt lat="46.96635" lon="8.76175">
        <ele>946</ele>
        <time>2021-08-06T09:36:48.340Z</time>
      </trkpt>
      <trkpt lat="46.96634" lon="8.76174">
        <ele>946</ele>
        <time>2021-08-06T09:36:49.341Z</time>
      </trkpt>
      <trkpt lat="46.96634" lon="8.76172">
        <ele>945</ele>
        <time>2021-08-06T09:36:50.341Z</time>
      </trkpt>
      <trkpt lat="46.96633" lon="8.76171">
        <ele>945</ele>
        <time>2021-08-06T09:36:51.341Z</time>
      </trkpt>
      <trkpt lat="46.96633" lon="8.7617">
        <ele>945</ele>
        <time>2021-08-06T09:36:52.341Z</time>
      </trkpt>
      <trkpt lat="46.96633" lon="8.7617">
        <ele>944</ele>
        <time>2021-08-06T09:36:53.341Z</time>
      </trkpt>
      <trkpt lat="46.96632" lon="8.76169">
        <ele>944</ele>
        <time>2021-08-06T09:36:54.341Z</time>
      </trkpt>
      <trkpt lat="46.96632" lon="8.76168">
        <ele>944</ele>
        <time>2021-08-06T09:36:55.341Z</time>
      </trkpt>
      <trkpt lat="46.96632" lon="8.76166">
        <ele>944</ele>
        <time>2021-08-06T09:36:56.341Z</time>
      </trkpt>
      <trkpt lat="46.96632" lon="8.76165">
        <ele>943</ele>
        <time>2021-08-06T09:36:57.340Z</time>
      </trkpt>
      <trkpt lat="46.96631" lon="8.76163">
        <ele>943</ele>
        <time>2021-08-06T09:36:58.341Z</time>
      </trkpt>
      <trkpt lat="46.9663" lon="8.76162">
        <ele>943</ele>
        <time>2021-08-06T09:36:59.341Z</time>
      </trkpt>
      <trkpt lat="46.9663" lon="8.76161">
        <ele>943</ele>
        <time>2021-08-06T09:37:00.340Z</time>
      </trkpt>
      <trkpt lat="46.9663" lon="8.76159">
        <ele>943</ele>
        <time>2021-08-06T09:37:01.340Z</time>
      </trkpt>
      <trkpt lat="46.9663" lon="8.76159">
        <ele>943</ele>
        <time>2021-08-06T09:37:02.341Z</time>
      </trkpt>
      <trkpt lat="46.96631" lon="8.76157">
        <ele>942</ele>
        <time>2021-08-06T09:37:03.341Z</time>
      </trkpt>
      <trkpt lat="46.96631" lon="8.76155">
        <ele>942</ele>
        <time>2021-08-06T09:37:04.341Z</time>
      </trkpt>
      <trkpt lat="46.96631" lon="8.76154">
        <ele>942</ele>
        <time>2021-08-06T09:37:05.341Z</time>
      </trkpt>
      <trkpt lat="46.9663" lon="8.76152">
        <ele>943</ele>
        <time>2021-08-06T09:37:06.340Z</time>
      </trkpt>
      <trkpt lat="46.9663" lon="8.76151">
        <ele>943</ele>
        <time>2021-08-06T09:37:07.340Z</time>
      </trkpt>
      <trkpt lat="46.9663" lon="8.76149">
        <ele>943</ele>
        <time>2021-08-06T09:37:08.341Z</time>
      </trkpt>
      <trkpt lat="46.96629" lon="8.76148">
        <ele>944</ele>
        <time>2021-08-06T09:37:09.341Z</time>
      </trkpt>
      <trkpt lat="46.9663" lon="8.76147">
        <ele>944</ele>
        <time>2021-08-06T09:37:10.341Z</time>
      </trkpt>
      <trkpt lat="46.9663" lon="8.76145">
        <ele>945</ele>
        <time>2021-08-06T09:37:11.341Z</time>
      </trkpt>
      <trkpt lat="46.96629" lon="8.76144">
        <ele>946</ele>
        <time>2021-08-06T09:37:12.341Z</time>
      </trkpt>
      <trkpt lat="46.96629" lon="8.76143">
        <ele>946</ele>
        <time>2021-08-06T09:37:13.340Z</time>
      </trkpt>
      <trkpt lat="46.9663" lon="8.76142">
        <ele>947</ele>
        <time>2021-08-06T09:37:14.341Z</time>
      </trkpt>
      <trkpt lat="46.96629" lon="8.76141">
        <ele>947</ele>
        <time>2021-08-06T09:37:15.341Z</time>
      </trkpt>
      <trkpt lat="46.96629" lon="8.7614">
        <ele>948</ele>
        <time>2021-08-06T09:37:16.340Z</time>
      </trkpt>
      <trkpt lat="46.9663" lon="8.76139">
        <ele>949</ele>
        <time>2021-08-06T09:37:17.341Z</time>
      </trkpt>
      <trkpt lat="46.96629" lon="8.76138">
        <ele>949</ele>
        <time>2021-08-06T09:37:18.341Z</time>
      </trkpt>
      <trkpt lat="46.96629" lon="8.76136">
        <ele>949</ele>
        <time>2021-08-06T09:37:19.341Z</time>
      </trkpt>
      <trkpt lat="46.96629" lon="8.76135">
        <ele>949</ele>
        <time>2021-08-06T09:37:20.340Z</time>
      </trkpt>
      <trkpt lat="46.96629" lon="8.76134">
        <ele>948</ele>
        <time>2021-08-06T09:37:21.340Z</time>
      </trkpt>
      <trkpt lat="46.96628" lon="8.76133">
        <ele>948</ele>
        <time>2021-08-06T09:37:22.340Z</time>
      </trkpt>
      <trkpt lat="46.96628" lon="8.76133">
        <ele>948</ele>
        <time>2021-08-06T09:37:23.341Z</time>
      </trkpt>
      <trkpt lat="46.96629" lon="8.76131">
        <ele>948</ele>
        <time>2021-08-06T09:37:24.340Z</time>
      </trkpt>
      <trkpt lat="46.9663" lon="8.7613">
        <ele>948</ele>
        <time>2021-08-06T09:37:25.341Z</time>
      </trkpt>
      <trkpt lat="46.96629" lon="8.76129">
        <ele>949</ele>
        <time>2021-08-06T09:37:26.340Z</time>
      </trkpt>
      <trkpt lat="46.96628" lon="8.76128">
        <ele>949</ele>
        <time>2021-08-06T09:37:27.340Z</time>
      </trkpt>
      <trkpt lat="46.96628" lon="8.76127">
        <ele>949</ele>
        <time>2021-08-06T09:37:28.340Z</time>
      </trkpt>
      <trkpt lat="46.96627" lon="8.76126">
        <ele>949</ele>
        <time>2021-08-06T09:37:29.340Z</time>
      </trkpt>
      <trkpt lat="46.96627" lon="8.76124">
        <ele>949</ele>
        <time>2021-08-06T09:37:30.340Z</time>
      </trkpt>
      <trkpt lat="46.96627" lon="8.76123">
        <ele>950</ele>
        <time>2021-08-06T09:37:31.340Z</time>
      </trkpt>
      <trkpt lat="46.96627" lon="8.76122">
        <ele>950</ele>
        <time>2021-08-06T09:37:32.340Z</time>
      </trkpt>
      <trkpt lat="46.96627" lon="8.76121">
        <ele>951</ele>
        <time>2021-08-06T09:37:33.340Z</time>
      </trkpt>
      <trkpt lat="46.96626" lon="8.7612">
        <ele>951</ele>
        <time>2021-08-06T09:37:34.340Z</time>
      </trkpt>
      <trkpt lat="46.96626" lon="8.76119">
        <ele>951</ele>
        <time>2021-08-06T09:37:35.340Z</time>
      </trkpt>
      <trkpt lat="46.96625" lon="8.76118">
        <ele>951</ele>
        <time>2021-08-06T09:37:36.340Z</time>
      </trkpt>
      <trkpt lat="46.96624" lon="8.76117">
        <ele>952</ele>
        <time>2021-08-06T09:37:37.341Z</time>
      </trkpt>
      <trkpt lat="46.96623" lon="8.76116">
        <ele>952</ele>
        <time>2021-08-06T09:37:38.340Z</time>
      </trkpt>
      <trkpt lat="46.96622" lon="8.76115">
        <ele>952</ele>
        <time>2021-08-06T09:37:39.341Z</time>
      </trkpt>
      <trkpt lat="46.96622" lon="8.76113">
        <ele>953</ele>
        <time>2021-08-06T09:37:40.341Z</time>
      </trkpt>
      <trkpt lat="46.96621" lon="8.76112">
        <ele>954</ele>
        <time>2021-08-06T09:37:41.340Z</time>
      </trkpt>
      <trkpt lat="46.9662" lon="8.76112">
        <ele>954</ele>
        <time>2021-08-06T09:37:42.341Z</time>
      </trkpt>
      <trkpt lat="46.96619" lon="8.76111">
        <ele>955</ele>
        <time>2021-08-06T09:37:43.341Z</time>
      </trkpt>
      <trkpt lat="46.96619" lon="8.7611">
        <ele>956</ele>
        <time>2021-08-06T09:37:44.341Z</time>
      </trkpt>
      <trkpt lat="46.96619" lon="8.76108">
        <ele>956</ele>
        <time>2021-08-06T09:37:45.341Z</time>
      </trkpt>
      <trkpt lat="46.96618" lon="8.76107">
        <ele>957</ele>
        <time>2021-08-06T09:37:46.341Z</time>
      </trkpt>
      <trkpt lat="46.96617" lon="8.76106">
        <ele>957</ele>
        <time>2021-08-06T09:37:47.341Z</time>
      </trkpt>
      <trkpt lat="46.96616" lon="8.76104">
        <ele>957</ele>
        <time>2021-08-06T09:37:48.341Z</time>
      </trkpt>
      <trkpt lat="46.96615" lon="8.76103">
        <ele>957</ele>
        <time>2021-08-06T09:37:49.341Z</time>
      </trkpt>
      <trkpt lat="46.96614" lon="8.76102">
        <ele>957</ele>
        <time>2021-08-06T09:37:50.341Z</time>
      </trkpt>
      <trkpt lat="46.96614" lon="8.761">
        <ele>957</ele>
        <time>2021-08-06T09:37:51.341Z</time>
      </trkpt>
      <trkpt lat="46.96614" lon="8.76099">
        <ele>957</ele>
        <time>2021-08-06T09:37:52.340Z</time>
      </trkpt>
      <trkpt lat="46.96614" lon="8.76097">
        <ele>956</ele>
        <time>2021-08-06T09:37:53.341Z</time>
      </trkpt>
      <trkpt lat="46.96614" lon="8.76096">
        <ele>956</ele>
        <time>2021-08-06T09:37:54.341Z</time>
      </trkpt>
      <trkpt lat="46.96614" lon="8.76094">
        <ele>955</ele>
        <time>2021-08-06T09:37:55.341Z</time>
      </trkpt>
      <trkpt lat="46.96613" lon="8.76094">
        <ele>955</ele>
        <time>2021-08-06T09:37:56.341Z</time>
      </trkpt>
      <trkpt lat="46.96613" lon="8.76093">
        <ele>955</ele>
        <time>2021-08-06T09:37:57.341Z</time>
      </trkpt>
      <trkpt lat="46.96613" lon="8.76091">
        <ele>955</ele>
        <time>2021-08-06T09:37:58.341Z</time>
      </trkpt>
      <trkpt lat="46.96613" lon="8.76089">
        <ele>955</ele>
        <time>2021-08-06T09:37:59.341Z</time>
      </trkpt>
      <trkpt lat="46.96613" lon="8.76086">
        <ele>955</ele>
        <time>2021-08-06T09:38:00.341Z</time>
      </trkpt>
      <trkpt lat="46.96614" lon="8.76084">
        <ele>955</ele>
        <time>2021-08-06T09:38:01.341Z</time>
      </trkpt>
      <trkpt lat="46.96614" lon="8.76083">
        <ele>956</ele>
        <time>2021-08-06T09:38:02.340Z</time>
      </trkpt>
      <trkpt lat="46.96614" lon="8.76082">
        <ele>956</ele>
        <time>2021-08-06T09:38:03.340Z</time>
      </trkpt>
      <trkpt lat="46.96612" lon="8.76081">
        <ele>956</ele>
        <time>2021-08-06T09:38:04.341Z</time>
      </trkpt>
      <trkpt lat="46.96612" lon="8.76079">
        <ele>956</ele>
        <time>2021-08-06T09:38:05.341Z</time>
      </trkpt>
      <trkpt lat="46.96612" lon="8.76077">
        <ele>957</ele>
        <time>2021-08-06T09:38:06.341Z</time>
      </trkpt>
      <trkpt lat="46.96612" lon="8.76074">
        <ele>957</ele>
        <time>2021-08-06T09:38:07.341Z</time>
      </trkpt>
      <trkpt lat="46.96611" lon="8.76073">
        <ele>956</ele>
        <time>2021-08-06T09:38:08.340Z</time>
      </trkpt>
      <trkpt lat="46.96611" lon="8.76072">
        <ele>957</ele>
        <time>2021-08-06T09:38:09.340Z</time>
      </trkpt>
      <trkpt lat="46.96612" lon="8.76071">
        <ele>957</ele>
        <time>2021-08-06T09:38:10.340Z</time>
      </trkpt>
      <trkpt lat="46.96611" lon="8.7607">
        <ele>958</ele>
        <time>2021-08-06T09:38:11.340Z</time>
      </trkpt>
      <trkpt lat="46.96609" lon="8.76068">
        <ele>958</ele>
        <time>2021-08-06T09:38:12.340Z</time>
      </trkpt>
      <trkpt lat="46.96608" lon="8.76067">
        <ele>959</ele>
        <time>2021-08-06T09:38:13.340Z</time>
      </trkpt>
      <trkpt lat="46.96606" lon="8.76066">
        <ele>959</ele>
        <time>2021-08-06T09:38:14.340Z</time>
      </trkpt>
      <trkpt lat="46.96604" lon="8.76065">
        <ele>959</ele>
        <time>2021-08-06T09:38:15.340Z</time>
      </trkpt>
      <trkpt lat="46.96603" lon="8.76064">
        <ele>959</ele>
        <time>2021-08-06T09:38:16.340Z</time>
      </trkpt>
      <trkpt lat="46.96602" lon="8.76063">
        <ele>959</ele>
        <time>2021-08-06T09:38:17.341Z</time>
      </trkpt>
      <trkpt lat="46.96602" lon="8.76062">
        <ele>959</ele>
        <time>2021-08-06T09:38:18.340Z</time>
      </trkpt>
      <trkpt lat="46.96601" lon="8.76061">
        <ele>958</ele>
        <time>2021-08-06T09:38:19.341Z</time>
      </trkpt>
      <trkpt lat="46.966" lon="8.76059">
        <ele>958</ele>
        <time>2021-08-06T09:38:20.341Z</time>
      </trkpt>
      <trkpt lat="46.966" lon="8.76058">
        <ele>957</ele>
        <time>2021-08-06T09:38:21.341Z</time>
      </trkpt>
      <trkpt lat="46.96599" lon="8.76057">
        <ele>957</ele>
        <time>2021-08-06T09:38:22.341Z</time>
      </trkpt>
      <trkpt lat="46.96598" lon="8.76056">
        <ele>957</ele>
        <time>2021-08-06T09:38:23.340Z</time>
      </trkpt>
      <trkpt lat="46.96597" lon="8.76054">
        <ele>956</ele>
        <time>2021-08-06T09:38:24.341Z</time>
      </trkpt>
      <trkpt lat="46.96597" lon="8.76053">
        <ele>956</ele>
        <time>2021-08-06T09:38:25.341Z</time>
      </trkpt>
      <trkpt lat="46.96597" lon="8.76052">
        <ele>956</ele>
        <time>2021-08-06T09:38:26.341Z</time>
      </trkpt>
      <trkpt lat="46.96596" lon="8.7605">
        <ele>956</ele>
        <time>2021-08-06T09:38:27.341Z</time>
      </trkpt>
      <trkpt lat="46.96596" lon="8.7605">
        <ele>956</ele>
        <time>2021-08-06T09:38:28.340Z</time>
      </trkpt>
      <trkpt lat="46.96596" lon="8.76049">
        <ele>955</ele>
        <time>2021-08-06T09:38:29.341Z</time>
      </trkpt>
      <trkpt lat="46.96596" lon="8.76047">
        <ele>956</ele>
        <time>2021-08-06T09:38:30.341Z</time>
      </trkpt>
      <trkpt lat="46.96596" lon="8.76046">
        <ele>956</ele>
        <time>2021-08-06T09:38:31.341Z</time>
      </trkpt>
      <trkpt lat="46.96596" lon="8.76045">
        <ele>956</ele>
        <time>2021-08-06T09:38:32.341Z</time>
      </trkpt>
      <trkpt lat="46.96596" lon="8.76044">
        <ele>957</ele>
        <time>2021-08-06T09:38:33.340Z</time>
      </trkpt>
      <trkpt lat="46.96597" lon="8.76041">
        <ele>957</ele>
        <time>2021-08-06T09:38:34.341Z</time>
      </trkpt>
      <trkpt lat="46.96596" lon="8.7604">
        <ele>958</ele>
        <time>2021-08-06T09:38:35.340Z</time>
      </trkpt>
      <trkpt lat="46.96596" lon="8.76039">
        <ele>958</ele>
        <time>2021-08-06T09:38:36.341Z</time>
      </trkpt>
      <trkpt lat="46.96597" lon="8.76036">
        <ele>959</ele>
        <time>2021-08-06T09:38:37.340Z</time>
      </trkpt>
      <trkpt lat="46.96596" lon="8.76035">
        <ele>959</ele>
        <time>2021-08-06T09:38:38.340Z</time>
      </trkpt>
      <trkpt lat="46.96596" lon="8.76033">
        <ele>960</ele>
        <time>2021-08-06T09:38:39.340Z</time>
      </trkpt>
      <trkpt lat="46.96596" lon="8.76031">
        <ele>960</ele>
        <time>2021-08-06T09:38:40.341Z</time>
      </trkpt>
      <trkpt lat="46.96596" lon="8.7603">
        <ele>961</ele>
        <time>2021-08-06T09:38:41.340Z</time>
      </trkpt>
      <trkpt lat="46.96596" lon="8.76029">
        <ele>962</ele>
        <time>2021-08-06T09:38:42.341Z</time>
      </trkpt>
      <trkpt lat="46.96596" lon="8.76027">
        <ele>963</ele>
        <time>2021-08-06T09:38:43.341Z</time>
      </trkpt>
      <trkpt lat="46.96596" lon="8.76026">
        <ele>963</ele>
        <time>2021-08-06T09:38:44.341Z</time>
      </trkpt>
      <trkpt lat="46.96597" lon="8.76024">
        <ele>964</ele>
        <time>2021-08-06T09:38:45.341Z</time>
      </trkpt>
      <trkpt lat="46.96597" lon="8.76022">
        <ele>964</ele>
        <time>2021-08-06T09:38:46.341Z</time>
      </trkpt>
      <trkpt lat="46.96596" lon="8.76021">
        <ele>964</ele>
        <time>2021-08-06T09:38:47.340Z</time>
      </trkpt>
      <trkpt lat="46.96596" lon="8.7602">
        <ele>965</ele>
        <time>2021-08-06T09:38:48.340Z</time>
      </trkpt>
      <trkpt lat="46.96597" lon="8.76018">
        <ele>965</ele>
        <time>2021-08-06T09:38:49.340Z</time>
      </trkpt>
      <trkpt lat="46.96597" lon="8.76017">
        <ele>965</ele>
        <time>2021-08-06T09:38:50.341Z</time>
      </trkpt>
      <trkpt lat="46.96597" lon="8.76016">
        <ele>966</ele>
        <time>2021-08-06T09:38:51.341Z</time>
      </trkpt>
      <trkpt lat="46.96597" lon="8.76014">
        <ele>966</ele>
        <time>2021-08-06T09:38:52.341Z</time>
      </trkpt>
      <trkpt lat="46.96597" lon="8.76013">
        <ele>966</ele>
        <time>2021-08-06T09:38:53.340Z</time>
      </trkpt>
      <trkpt lat="46.96597" lon="8.76012">
        <ele>966</ele>
        <time>2021-08-06T09:38:54.341Z</time>
      </trkpt>
      <trkpt lat="46.96597" lon="8.76011">
        <ele>967</ele>
        <time>2021-08-06T09:38:55.341Z</time>
      </trkpt>
      <trkpt lat="46.96596" lon="8.7601">
        <ele>967</ele>
        <time>2021-08-06T09:38:56.341Z</time>
      </trkpt>
      <trkpt lat="46.96596" lon="8.76009">
        <ele>967</ele>
        <time>2021-08-06T09:38:57.340Z</time>
      </trkpt>
      <trkpt lat="46.96595" lon="8.76008">
        <ele>967</ele>
        <time>2021-08-06T09:38:58.341Z</time>
      </trkpt>
      <trkpt lat="46.96595" lon="8.76006">
        <ele>968</ele>
        <time>2021-08-06T09:38:59.340Z</time>
      </trkpt>
      <trkpt lat="46.96595" lon="8.76005">
        <ele>968</ele>
        <time>2021-08-06T09:39:00.340Z</time>
      </trkpt>
      <trkpt lat="46.96595" lon="8.76004">
        <ele>968</ele>
        <time>2021-08-06T09:39:01.341Z</time>
      </trkpt>
      <trkpt lat="46.96596" lon="8.76002">
        <ele>968</ele>
        <time>2021-08-06T09:39:02.341Z</time>
      </trkpt>
      <trkpt lat="46.96596" lon="8.76">
        <ele>967</ele>
        <time>2021-08-06T09:39:03.341Z</time>
      </trkpt>
      <trkpt lat="46.96596" lon="8.75999">
        <ele>967</ele>
        <time>2021-08-06T09:39:04.341Z</time>
      </trkpt>
      <trkpt lat="46.96595" lon="8.75997">
        <ele>967</ele>
        <time>2021-08-06T09:39:05.340Z</time>
      </trkpt>
      <trkpt lat="46.96595" lon="8.75996">
        <ele>968</ele>
        <time>2021-08-06T09:39:06.341Z</time>
      </trkpt>
      <trkpt lat="46.96594" lon="8.75995">
        <ele>968</ele>
        <time>2021-08-06T09:39:07.341Z</time>
      </trkpt>
      <trkpt lat="46.96592" lon="8.75994">
        <ele>969</ele>
        <time>2021-08-06T09:39:08.341Z</time>
      </trkpt>
      <trkpt lat="46.96592" lon="8.75993">
        <ele>969</ele>
        <time>2021-08-06T09:39:09.341Z</time>
      </trkpt>
      <trkpt lat="46.96592" lon="8.75991">
        <ele>969</ele>
        <time>2021-08-06T09:39:10.340Z</time>
      </trkpt>
      <trkpt lat="46.96591" lon="8.7599">
        <ele>969</ele>
        <time>2021-08-06T09:39:11.341Z</time>
      </trkpt>
      <trkpt lat="46.96591" lon="8.75989">
        <ele>969</ele>
        <time>2021-08-06T09:39:12.341Z</time>
      </trkpt>
      <trkpt lat="46.9659" lon="8.75988">
        <ele>969</ele>
        <time>2021-08-06T09:39:13.341Z</time>
      </trkpt>
      <trkpt lat="46.96588" lon="8.75987">
        <ele>970</ele>
        <time>2021-08-06T09:39:14.340Z</time>
      </trkpt>
      <trkpt lat="46.96587" lon="8.75986">
        <ele>970</ele>
        <time>2021-08-06T09:39:15.341Z</time>
      </trkpt>
      <trkpt lat="46.96587" lon="8.75984">
        <ele>970</ele>
        <time>2021-08-06T09:39:16.341Z</time>
      </trkpt>
      <trkpt lat="46.96587" lon="8.75983">
        <ele>970</ele>
        <time>2021-08-06T09:39:17.341Z</time>
      </trkpt>
      <trkpt lat="46.96587" lon="8.75981">
        <ele>970</ele>
        <time>2021-08-06T09:39:18.341Z</time>
      </trkpt>
      <trkpt lat="46.96586" lon="8.7598">
        <ele>970</ele>
        <time>2021-08-06T09:39:19.341Z</time>
      </trkpt>
      <trkpt lat="46.96584" lon="8.75979">
        <ele>970</ele>
        <time>2021-08-06T09:39:20.341Z</time>
      </trkpt>
      <trkpt lat="46.96583" lon="8.75978">
        <ele>970</ele>
        <time>2021-08-06T09:39:21.341Z</time>
      </trkpt>
      <trkpt lat="46.96581" lon="8.75977">
        <ele>970</ele>
        <time>2021-08-06T09:39:22.341Z</time>
      </trkpt>
      <trkpt lat="46.96581" lon="8.75977">
        <ele>969</ele>
        <time>2021-08-06T09:39:23.340Z</time>
      </trkpt>
      <trkpt lat="46.96581" lon="8.75976">
        <ele>970</ele>
        <time>2021-08-06T09:39:24.340Z</time>
      </trkpt>
      <trkpt lat="46.96581" lon="8.75975">
        <ele>970</ele>
        <time>2021-08-06T09:39:25.340Z</time>
      </trkpt>
      <trkpt lat="46.9658" lon="8.75975">
        <ele>970</ele>
        <time>2021-08-06T09:39:26.341Z</time>
      </trkpt>
      <trkpt lat="46.96579" lon="8.75974">
        <ele>970</ele>
        <time>2021-08-06T09:39:27.341Z</time>
      </trkpt>
      <trkpt lat="46.96578" lon="8.75973">
        <ele>970</ele>
        <time>2021-08-06T09:39:28.341Z</time>
      </trkpt>
      <trkpt lat="46.96577" lon="8.75973">
        <ele>970</ele>
        <time>2021-08-06T09:39:29.341Z</time>
      </trkpt>
      <trkpt lat="46.96577" lon="8.75972">
        <ele>969</ele>
        <time>2021-08-06T09:39:30.341Z</time>
      </trkpt>
      <trkpt lat="46.96576" lon="8.75971">
        <ele>968</ele>
        <time>2021-08-06T09:39:31.341Z</time>
      </trkpt>
      <trkpt lat="46.96576" lon="8.75969">
        <ele>967</ele>
        <time>2021-08-06T09:39:32.341Z</time>
      </trkpt>
      <trkpt lat="46.96576" lon="8.75968">
        <ele>966</ele>
        <time>2021-08-06T09:39:33.341Z</time>
      </trkpt>
      <trkpt lat="46.96576" lon="8.75966">
        <ele>965</ele>
        <time>2021-08-06T09:39:34.340Z</time>
      </trkpt>
      <trkpt lat="46.96575" lon="8.75964">
        <ele>964</ele>
        <time>2021-08-06T09:39:35.341Z</time>
      </trkpt>
      <trkpt lat="46.96575" lon="8.75962">
        <ele>964</ele>
        <time>2021-08-06T09:39:36.341Z</time>
      </trkpt>
      <trkpt lat="46.96574" lon="8.7596">
        <ele>963</ele>
        <time>2021-08-06T09:39:37.341Z</time>
      </trkpt>
      <trkpt lat="46.96574" lon="8.75959">
        <ele>963</ele>
        <time>2021-08-06T09:39:38.341Z</time>
      </trkpt>
      <trkpt lat="46.96573" lon="8.75957">
        <ele>963</ele>
        <time>2021-08-06T09:39:39.340Z</time>
      </trkpt>
      <trkpt lat="46.96572" lon="8.75955">
        <ele>963</ele>
        <time>2021-08-06T09:39:40.340Z</time>
      </trkpt>
      <trkpt lat="46.96572" lon="8.75954">
        <ele>963</ele>
        <time>2021-08-06T09:39:41.341Z</time>
      </trkpt>
      <trkpt lat="46.96571" lon="8.75952">
        <ele>963</ele>
        <time>2021-08-06T09:39:42.340Z</time>
      </trkpt>
      <trkpt lat="46.96571" lon="8.75951">
        <ele>963</ele>
        <time>2021-08-06T09:39:43.341Z</time>
      </trkpt>
      <trkpt lat="46.9657" lon="8.75949">
        <ele>963</ele>
        <time>2021-08-06T09:39:44.341Z</time>
      </trkpt>
      <trkpt lat="46.9657" lon="8.75947">
        <ele>963</ele>
        <time>2021-08-06T09:39:45.340Z</time>
      </trkpt>
      <trkpt lat="46.9657" lon="8.75946">
        <ele>963</ele>
        <time>2021-08-06T09:39:46.341Z</time>
      </trkpt>
      <trkpt lat="46.9657" lon="8.75944">
        <ele>963</ele>
        <time>2021-08-06T09:39:47.341Z</time>
      </trkpt>
      <trkpt lat="46.96569" lon="8.75942">
        <ele>963</ele>
        <time>2021-08-06T09:39:48.340Z</time>
      </trkpt>
      <trkpt lat="46.96569" lon="8.7594">
        <ele>962</ele>
        <time>2021-08-06T09:39:49.341Z</time>
      </trkpt>
      <trkpt lat="46.96569" lon="8.75939">
        <ele>962</ele>
        <time>2021-08-06T09:39:50.341Z</time>
      </trkpt>
      <trkpt lat="46.96569" lon="8.75936">
        <ele>962</ele>
        <time>2021-08-06T09:39:51.341Z</time>
      </trkpt>
      <trkpt lat="46.9657" lon="8.75934">
        <ele>962</ele>
        <time>2021-08-06T09:39:52.340Z</time>
      </trkpt>
      <trkpt lat="46.9657" lon="8.75932">
        <ele>962</ele>
        <time>2021-08-06T09:39:53.341Z</time>
      </trkpt>
      <trkpt lat="46.9657" lon="8.7593">
        <ele>962</ele>
        <time>2021-08-06T09:39:54.340Z</time>
      </trkpt>
      <trkpt lat="46.9657" lon="8.75928">
        <ele>963</ele>
        <time>2021-08-06T09:39:55.340Z</time>
      </trkpt>
      <trkpt lat="46.9657" lon="8.75925">
        <ele>963</ele>
        <time>2021-08-06T09:39:56.341Z</time>
      </trkpt>
      <trkpt lat="46.9657" lon="8.75924">
        <ele>963</ele>
        <time>2021-08-06T09:39:57.341Z</time>
      </trkpt>
      <trkpt lat="46.96569" lon="8.75922">
        <ele>964</ele>
        <time>2021-08-06T09:39:58.341Z</time>
      </trkpt>
      <trkpt lat="46.96569" lon="8.75921">
        <ele>964</ele>
        <time>2021-08-06T09:39:59.341Z</time>
      </trkpt>
      <trkpt lat="46.96569" lon="8.75919">
        <ele>964</ele>
        <time>2021-08-06T09:40:00.341Z</time>
      </trkpt>
      <trkpt lat="46.96568" lon="8.75918">
        <ele>965</ele>
        <time>2021-08-06T09:40:01.340Z</time>
      </trkpt>
      <trkpt lat="46.96567" lon="8.75917">
        <ele>965</ele>
        <time>2021-08-06T09:40:02.340Z</time>
      </trkpt>
      <trkpt lat="46.96566" lon="8.75915">
        <ele>965</ele>
        <time>2021-08-06T09:40:03.341Z</time>
      </trkpt>
      <trkpt lat="46.96565" lon="8.75914">
        <ele>965</ele>
        <time>2021-08-06T09:40:04.341Z</time>
      </trkpt>
      <trkpt lat="46.96564" lon="8.75912">
        <ele>965</ele>
        <time>2021-08-06T09:40:05.341Z</time>
      </trkpt>
      <trkpt lat="46.96564" lon="8.7591">
        <ele>965</ele>
        <time>2021-08-06T09:40:06.340Z</time>
      </trkpt>
      <trkpt lat="46.96564" lon="8.75908">
        <ele>965</ele>
        <time>2021-08-06T09:40:07.340Z</time>
      </trkpt>
      <trkpt lat="46.96564" lon="8.75906">
        <ele>965</ele>
        <time>2021-08-06T09:40:08.341Z</time>
      </trkpt>
      <trkpt lat="46.96562" lon="8.75905">
        <ele>966</ele>
        <time>2021-08-06T09:40:09.341Z</time>
      </trkpt>
      <trkpt lat="46.96561" lon="8.75904">
        <ele>966</ele>
        <time>2021-08-06T09:40:10.340Z</time>
      </trkpt>
      <trkpt lat="46.9656" lon="8.75902">
        <ele>966</ele>
        <time>2021-08-06T09:40:11.341Z</time>
      </trkpt>
      <trkpt lat="46.9656" lon="8.75901">
        <ele>967</ele>
        <time>2021-08-06T09:40:12.340Z</time>
      </trkpt>
      <trkpt lat="46.9656" lon="8.75899">
        <ele>967</ele>
        <time>2021-08-06T09:40:13.341Z</time>
      </trkpt>
      <trkpt lat="46.9656" lon="8.75897">
        <ele>967</ele>
        <time>2021-08-06T09:40:14.340Z</time>
      </trkpt>
      <trkpt lat="46.96559" lon="8.75896">
        <ele>967</ele>
        <time>2021-08-06T09:40:15.341Z</time>
      </trkpt>
      <trkpt lat="46.96559" lon="8.75895">
        <ele>968</ele>
        <time>2021-08-06T09:40:16.341Z</time>
      </trkpt>
      <trkpt lat="46.96559" lon="8.75893">
        <ele>969</ele>
        <time>2021-08-06T09:40:17.340Z</time>
      </trkpt>
      <trkpt lat="46.96558" lon="8.75892">
        <ele>969</ele>
        <time>2021-08-06T09:40:18.341Z</time>
      </trkpt>
      <trkpt lat="46.96557" lon="8.75891">
        <ele>970</ele>
        <time>2021-08-06T09:40:19.341Z</time>
      </trkpt>
      <trkpt lat="46.96556" lon="8.7589">
        <ele>970</ele>
        <time>2021-08-06T09:40:20.341Z</time>
      </trkpt>
      <trkpt lat="46.96556" lon="8.75889">
        <ele>971</ele>
        <time>2021-08-06T09:40:21.341Z</time>
      </trkpt>
      <trkpt lat="46.96555" lon="8.75888">
        <ele>971</ele>
        <time>2021-08-06T09:40:22.340Z</time>
      </trkpt>
      <trkpt lat="46.96555" lon="8.75886">
        <ele>971</ele>
        <time>2021-08-06T09:40:23.341Z</time>
      </trkpt>
      <trkpt lat="46.96553" lon="8.75885">
        <ele>971</ele>
        <time>2021-08-06T09:40:24.341Z</time>
      </trkpt>
      <trkpt lat="46.96553" lon="8.75884">
        <ele>972</ele>
        <time>2021-08-06T09:40:25.341Z</time>
      </trkpt>
      <trkpt lat="46.96551" lon="8.75884">
        <ele>972</ele>
        <time>2021-08-06T09:40:26.341Z</time>
      </trkpt>
      <trkpt lat="46.96551" lon="8.75882">
        <ele>972</ele>
        <time>2021-08-06T09:40:27.340Z</time>
      </trkpt>
      <trkpt lat="46.96551" lon="8.7588">
        <ele>972</ele>
        <time>2021-08-06T09:40:28.341Z</time>
      </trkpt>
      <trkpt lat="46.96549" lon="8.7588">
        <ele>972</ele>
        <time>2021-08-06T09:40:29.341Z</time>
      </trkpt>
      <trkpt lat="46.96548" lon="8.75879">
        <ele>973</ele>
        <time>2021-08-06T09:40:30.340Z</time>
      </trkpt>
      <trkpt lat="46.96548" lon="8.75877">
        <ele>973</ele>
        <time>2021-08-06T09:40:31.341Z</time>
      </trkpt>
      <trkpt lat="46.96547" lon="8.75876">
        <ele>973</ele>
        <time>2021-08-06T09:40:32.341Z</time>
      </trkpt>
      <trkpt lat="46.96547" lon="8.75875">
        <ele>973</ele>
        <time>2021-08-06T09:40:33.341Z</time>
      </trkpt>
      <trkpt lat="46.96545" lon="8.75874">
        <ele>973</ele>
        <time>2021-08-06T09:40:34.340Z</time>
      </trkpt>
      <trkpt lat="46.96545" lon="8.75873">
        <ele>973</ele>
        <time>2021-08-06T09:40:35.341Z</time>
      </trkpt>
      <trkpt lat="46.96544" lon="8.75871">
        <ele>974</ele>
        <time>2021-08-06T09:40:36.341Z</time>
      </trkpt>
      <trkpt lat="46.96544" lon="8.7587">
        <ele>974</ele>
        <time>2021-08-06T09:40:37.341Z</time>
      </trkpt>
      <trkpt lat="46.96543" lon="8.75868">
        <ele>974</ele>
        <time>2021-08-06T09:40:38.340Z</time>
      </trkpt>
      <trkpt lat="46.96542" lon="8.75867">
        <ele>974</ele>
        <time>2021-08-06T09:40:39.341Z</time>
      </trkpt>
      <trkpt lat="46.96543" lon="8.75865">
        <ele>974</ele>
        <time>2021-08-06T09:40:40.341Z</time>
      </trkpt>
      <trkpt lat="46.96542" lon="8.75863">
        <ele>975</ele>
        <time>2021-08-06T09:40:41.341Z</time>
      </trkpt>
      <trkpt lat="46.96542" lon="8.75862">
        <ele>975</ele>
        <time>2021-08-06T09:40:42.340Z</time>
      </trkpt>
      <trkpt lat="46.96541" lon="8.7586">
        <ele>976</ele>
        <time>2021-08-06T09:40:43.341Z</time>
      </trkpt>
      <trkpt lat="46.96541" lon="8.75859">
        <ele>976</ele>
        <time>2021-08-06T09:40:44.341Z</time>
      </trkpt>
      <trkpt lat="46.96541" lon="8.75857">
        <ele>977</ele>
        <time>2021-08-06T09:40:45.341Z</time>
      </trkpt>
      <trkpt lat="46.96541" lon="8.75855">
        <ele>977</ele>
        <time>2021-08-06T09:40:46.341Z</time>
      </trkpt>
      <trkpt lat="46.96541" lon="8.75854">
        <ele>977</ele>
        <time>2021-08-06T09:40:47.340Z</time>
      </trkpt>
      <trkpt lat="46.9654" lon="8.75853">
        <ele>978</ele>
        <time>2021-08-06T09:40:48.341Z</time>
      </trkpt>
      <trkpt lat="46.9654" lon="8.75851">
        <ele>978</ele>
        <time>2021-08-06T09:40:49.341Z</time>
      </trkpt>
      <trkpt lat="46.9654" lon="8.75849">
        <ele>978</ele>
        <time>2021-08-06T09:40:50.341Z</time>
      </trkpt>
      <trkpt lat="46.9654" lon="8.75847">
        <ele>978</ele>
        <time>2021-08-06T09:40:51.340Z</time>
      </trkpt>
      <trkpt lat="46.9654" lon="8.75846">
        <ele>978</ele>
        <time>2021-08-06T09:40:52.341Z</time>
      </trkpt>
      <trkpt lat="46.96539" lon="8.75844">
        <ele>978</ele>
        <time>2021-08-06T09:40:53.341Z</time>
      </trkpt>
      <trkpt lat="46.96539" lon="8.75843">
        <ele>978</ele>
        <time>2021-08-06T09:40:54.341Z</time>
      </trkpt>
      <trkpt lat="46.96538" lon="8.75842">
        <ele>978</ele>
        <time>2021-08-06T09:40:55.341Z</time>
      </trkpt>
      <trkpt lat="46.96538" lon="8.7584">
        <ele>977</ele>
        <time>2021-08-06T09:40:56.341Z</time>
      </trkpt>
      <trkpt lat="46.96538" lon="8.75839">
        <ele>977</ele>
        <time>2021-08-06T09:40:57.341Z</time>
      </trkpt>
      <trkpt lat="46.96537" lon="8.75837">
        <ele>977</ele>
        <time>2021-08-06T09:40:58.341Z</time>
      </trkpt>
      <trkpt lat="46.96537" lon="8.75836">
        <ele>976</ele>
        <time>2021-08-06T09:40:59.341Z</time>
      </trkpt>
      <trkpt lat="46.96538" lon="8.75835">
        <ele>976</ele>
        <time>2021-08-06T09:41:00.341Z</time>
      </trkpt>
      <trkpt lat="46.96538" lon="8.75834">
        <ele>976</ele>
        <time>2021-08-06T09:41:01.341Z</time>
      </trkpt>
      <trkpt lat="46.96539" lon="8.75833">
        <ele>975</ele>
        <time>2021-08-06T09:41:02.341Z</time>
      </trkpt>
      <trkpt lat="46.96539" lon="8.75832">
        <ele>975</ele>
        <time>2021-08-06T09:41:03.340Z</time>
      </trkpt>
      <trkpt lat="46.9654" lon="8.75828">
        <ele>973</ele>
        <time>2021-08-06T09:41:04.341Z</time>
      </trkpt>
      <trkpt lat="46.9654" lon="8.75826">
        <ele>973</ele>
        <time>2021-08-06T09:41:05.341Z</time>
      </trkpt>
      <trkpt lat="46.9654" lon="8.75825">
        <ele>973</ele>
        <time>2021-08-06T09:41:06.341Z</time>
      </trkpt>
      <trkpt lat="46.96539" lon="8.75824">
        <ele>973</ele>
        <time>2021-08-06T09:41:07.341Z</time>
      </trkpt>
      <trkpt lat="46.96539" lon="8.75823">
        <ele>973</ele>
        <time>2021-08-06T09:41:08.341Z</time>
      </trkpt>
      <trkpt lat="46.96538" lon="8.75821">
        <ele>974</ele>
        <time>2021-08-06T09:41:09.341Z</time>
      </trkpt>
      <trkpt lat="46.96538" lon="8.7582">
        <ele>974</ele>
        <time>2021-08-06T09:41:10.341Z</time>
      </trkpt>
      <trkpt lat="46.96538" lon="8.75819">
        <ele>975</ele>
        <time>2021-08-06T09:41:11.341Z</time>
      </trkpt>
      <trkpt lat="46.96537" lon="8.75818">
        <ele>975</ele>
        <time>2021-08-06T09:41:12.340Z</time>
      </trkpt>
      <trkpt lat="46.96537" lon="8.75816">
        <ele>976</ele>
        <time>2021-08-06T09:41:13.341Z</time>
      </trkpt>
      <trkpt lat="46.96536" lon="8.75815">
        <ele>976</ele>
        <time>2021-08-06T09:41:14.340Z</time>
      </trkpt>
      <trkpt lat="46.96536" lon="8.75814">
        <ele>977</ele>
        <time>2021-08-06T09:41:15.340Z</time>
      </trkpt>
      <trkpt lat="46.96536" lon="8.75813">
        <ele>977</ele>
        <time>2021-08-06T09:41:16.341Z</time>
      </trkpt>
      <trkpt lat="46.96536" lon="8.75812">
        <ele>977</ele>
        <time>2021-08-06T09:41:17.340Z</time>
      </trkpt>
      <trkpt lat="46.96536" lon="8.7581">
        <ele>977</ele>
        <time>2021-08-06T09:41:18.340Z</time>
      </trkpt>
      <trkpt lat="46.96535" lon="8.75809">
        <ele>977</ele>
        <time>2021-08-06T09:41:19.340Z</time>
      </trkpt>
      <trkpt lat="46.96534" lon="8.75809">
        <ele>977</ele>
        <time>2021-08-06T09:41:20.340Z</time>
      </trkpt>
      <trkpt lat="46.96533" lon="8.75808">
        <ele>978</ele>
        <time>2021-08-06T09:41:21.341Z</time>
      </trkpt>
      <trkpt lat="46.96532" lon="8.75806">
        <ele>978</ele>
        <time>2021-08-06T09:41:22.340Z</time>
      </trkpt>
      <trkpt lat="46.96532" lon="8.75805">
        <ele>978</ele>
        <time>2021-08-06T09:41:23.340Z</time>
      </trkpt>
      <trkpt lat="46.96531" lon="8.75804">
        <ele>978</ele>
        <time>2021-08-06T09:41:24.340Z</time>
      </trkpt>
      <trkpt lat="46.96532" lon="8.75802">
        <ele>978</ele>
        <time>2021-08-06T09:41:25.340Z</time>
      </trkpt>
      <trkpt lat="46.96533" lon="8.758">
        <ele>978</ele>
        <time>2021-08-06T09:41:26.341Z</time>
      </trkpt>
      <trkpt lat="46.96532" lon="8.75799">
        <ele>978</ele>
        <time>2021-08-06T09:41:27.341Z</time>
      </trkpt>
      <trkpt lat="46.96532" lon="8.75797">
        <ele>978</ele>
        <time>2021-08-06T09:41:28.340Z</time>
      </trkpt>
      <trkpt lat="46.96531" lon="8.75796">
        <ele>978</ele>
        <time>2021-08-06T09:41:29.340Z</time>
      </trkpt>
      <trkpt lat="46.96531" lon="8.75795">
        <ele>978</ele>
        <time>2021-08-06T09:41:30.340Z</time>
      </trkpt>
      <trkpt lat="46.9653" lon="8.75795">
        <ele>978</ele>
        <time>2021-08-06T09:41:31.340Z</time>
      </trkpt>
      <trkpt lat="46.9653" lon="8.75794">
        <ele>978</ele>
        <time>2021-08-06T09:41:32.340Z</time>
      </trkpt>
      <trkpt lat="46.9653" lon="8.75793">
        <ele>977</ele>
        <time>2021-08-06T09:41:33.340Z</time>
      </trkpt>
      <trkpt lat="46.9653" lon="8.75792">
        <ele>977</ele>
        <time>2021-08-06T09:41:34.340Z</time>
      </trkpt>
      <trkpt lat="46.9653" lon="8.75791">
        <ele>978</ele>
        <time>2021-08-06T09:41:35.340Z</time>
      </trkpt>
      <trkpt lat="46.9653" lon="8.7579">
        <ele>978</ele>
        <time>2021-08-06T09:41:36.340Z</time>
      </trkpt>
      <trkpt lat="46.96529" lon="8.75789">
        <ele>978</ele>
        <time>2021-08-06T09:41:37.340Z</time>
      </trkpt>
      <trkpt lat="46.96529" lon="8.75788">
        <ele>979</ele>
        <time>2021-08-06T09:41:38.340Z</time>
      </trkpt>
      <trkpt lat="46.96529" lon="8.75787">
        <ele>980</ele>
        <time>2021-08-06T09:41:39.340Z</time>
      </trkpt>
      <trkpt lat="46.96528" lon="8.75785">
        <ele>981</ele>
        <time>2021-08-06T09:41:40.340Z</time>
      </trkpt>
      <trkpt lat="46.96528" lon="8.75783">
        <ele>982</ele>
        <time>2021-08-06T09:41:41.340Z</time>
      </trkpt>
      <trkpt lat="46.96528" lon="8.75782">
        <ele>983</ele>
        <time>2021-08-06T09:41:42.340Z</time>
      </trkpt>
      <trkpt lat="46.96527" lon="8.75781">
        <ele>983</ele>
        <time>2021-08-06T09:41:43.341Z</time>
      </trkpt>
      <trkpt lat="46.96527" lon="8.7578">
        <ele>984</ele>
        <time>2021-08-06T09:41:44.341Z</time>
      </trkpt>
      <trkpt lat="46.96526" lon="8.75778">
        <ele>985</ele>
        <time>2021-08-06T09:41:45.340Z</time>
      </trkpt>
      <trkpt lat="46.96526" lon="8.75777">
        <ele>985</ele>
        <time>2021-08-06T09:41:46.340Z</time>
      </trkpt>
      <trkpt lat="46.96525" lon="8.75776">
        <ele>986</ele>
        <time>2021-08-06T09:41:47.341Z</time>
      </trkpt>
      <trkpt lat="46.96526" lon="8.75774">
        <ele>986</ele>
        <time>2021-08-06T09:41:48.341Z</time>
      </trkpt>
      <trkpt lat="46.96526" lon="8.75772">
        <ele>986</ele>
        <time>2021-08-06T09:41:49.341Z</time>
      </trkpt>
      <trkpt lat="46.96526" lon="8.75771">
        <ele>987</ele>
        <time>2021-08-06T09:41:50.341Z</time>
      </trkpt>
      <trkpt lat="46.96526" lon="8.75769">
        <ele>987</ele>
        <time>2021-08-06T09:41:51.341Z</time>
      </trkpt>
      <trkpt lat="46.96526" lon="8.75768">
        <ele>987</ele>
        <time>2021-08-06T09:41:52.341Z</time>
      </trkpt>
      <trkpt lat="46.96526" lon="8.75766">
        <ele>987</ele>
        <time>2021-08-06T09:41:53.341Z</time>
      </trkpt>
      <trkpt lat="46.96525" lon="8.75765">
        <ele>987</ele>
        <time>2021-08-06T09:41:54.341Z</time>
      </trkpt>
      <trkpt lat="46.96525" lon="8.75763">
        <ele>987</ele>
        <time>2021-08-06T09:41:55.341Z</time>
      </trkpt>
      <trkpt lat="46.96524" lon="8.75761">
        <ele>987</ele>
        <time>2021-08-06T09:41:56.341Z</time>
      </trkpt>
      <trkpt lat="46.96526" lon="8.75758">
        <ele>987</ele>
        <time>2021-08-06T09:41:57.340Z</time>
      </trkpt>
      <trkpt lat="46.96526" lon="8.75757">
        <ele>987</ele>
        <time>2021-08-06T09:41:58.341Z</time>
      </trkpt>
      <trkpt lat="46.96526" lon="8.75755">
        <ele>987</ele>
        <time>2021-08-06T09:41:59.341Z</time>
      </trkpt>
      <trkpt lat="46.96526" lon="8.75754">
        <ele>988</ele>
        <time>2021-08-06T09:42:00.341Z</time>
      </trkpt>
      <trkpt lat="46.96526" lon="8.75753">
        <ele>988</ele>
        <time>2021-08-06T09:42:01.341Z</time>
      </trkpt>
      <trkpt lat="46.96526" lon="8.75752">
        <ele>987</ele>
        <time>2021-08-06T09:42:02.340Z</time>
      </trkpt>
      <trkpt lat="46.96526" lon="8.75751">
        <ele>987</ele>
        <time>2021-08-06T09:42:03.341Z</time>
      </trkpt>
      <trkpt lat="46.96526" lon="8.75749">
        <ele>987</ele>
        <time>2021-08-06T09:42:04.341Z</time>
      </trkpt>
      <trkpt lat="46.96526" lon="8.75747">
        <ele>986</ele>
        <time>2021-08-06T09:42:05.341Z</time>
      </trkpt>
      <trkpt lat="46.96527" lon="8.75745">
        <ele>986</ele>
        <time>2021-08-06T09:42:06.341Z</time>
      </trkpt>
      <trkpt lat="46.96526" lon="8.75744">
        <ele>986</ele>
        <time>2021-08-06T09:42:07.341Z</time>
      </trkpt>
      <trkpt lat="46.96526" lon="8.75743">
        <ele>985</ele>
        <time>2021-08-06T09:42:08.341Z</time>
      </trkpt>
      <trkpt lat="46.96526" lon="8.75742">
        <ele>984</ele>
        <time>2021-08-06T09:42:09.340Z</time>
      </trkpt>
      <trkpt lat="46.96526" lon="8.7574">
        <ele>984</ele>
        <time>2021-08-06T09:42:10.341Z</time>
      </trkpt>
      <trkpt lat="46.96526" lon="8.75739">
        <ele>983</ele>
        <time>2021-08-06T09:42:11.340Z</time>
      </trkpt>
      <trkpt lat="46.96525" lon="8.75738">
        <ele>983</ele>
        <time>2021-08-06T09:42:12.340Z</time>
      </trkpt>
      <trkpt lat="46.96525" lon="8.75736">
        <ele>982</ele>
        <time>2021-08-06T09:42:13.341Z</time>
      </trkpt>
      <trkpt lat="46.96525" lon="8.75734">
        <ele>982</ele>
        <time>2021-08-06T09:42:14.341Z</time>
      </trkpt>
      <trkpt lat="46.96525" lon="8.75733">
        <ele>982</ele>
        <time>2021-08-06T09:42:15.341Z</time>
      </trkpt>
      <trkpt lat="46.96525" lon="8.75732">
        <ele>983</ele>
        <time>2021-08-06T09:42:16.341Z</time>
      </trkpt>
      <trkpt lat="46.96524" lon="8.7573">
        <ele>983</ele>
        <time>2021-08-06T09:42:17.341Z</time>
      </trkpt>
      <trkpt lat="46.96524" lon="8.75729">
        <ele>984</ele>
        <time>2021-08-06T09:42:18.341Z</time>
      </trkpt>
      <trkpt lat="46.96524" lon="8.75728">
        <ele>984</ele>
        <time>2021-08-06T09:42:19.341Z</time>
      </trkpt>
      <trkpt lat="46.96525" lon="8.75726">
        <ele>984</ele>
        <time>2021-08-06T09:42:20.340Z</time>
      </trkpt>
      <trkpt lat="46.96525" lon="8.75725">
        <ele>985</ele>
        <time>2021-08-06T09:42:21.341Z</time>
      </trkpt>
      <trkpt lat="46.96524" lon="8.75723">
        <ele>985</ele>
        <time>2021-08-06T09:42:22.341Z</time>
      </trkpt>
      <trkpt lat="46.96524" lon="8.75722">
        <ele>985</ele>
        <time>2021-08-06T09:42:23.341Z</time>
      </trkpt>
      <trkpt lat="46.96523" lon="8.75721">
        <ele>985</ele>
        <time>2021-08-06T09:42:24.340Z</time>
      </trkpt>
      <trkpt lat="46.96522" lon="8.7572">
        <ele>985</ele>
        <time>2021-08-06T09:42:25.341Z</time>
      </trkpt>
      <trkpt lat="46.96522" lon="8.75718">
        <ele>985</ele>
        <time>2021-08-06T09:42:26.340Z</time>
      </trkpt>
      <trkpt lat="46.96522" lon="8.75717">
        <ele>986</ele>
        <time>2021-08-06T09:42:27.340Z</time>
      </trkpt>
      <trkpt lat="46.96522" lon="8.75715">
        <ele>986</ele>
        <time>2021-08-06T09:42:28.341Z</time>
      </trkpt>
      <trkpt lat="46.96522" lon="8.75714">
        <ele>986</ele>
        <time>2021-08-06T09:42:29.340Z</time>
      </trkpt>
      <trkpt lat="46.96522" lon="8.75712">
        <ele>987</ele>
        <time>2021-08-06T09:42:30.340Z</time>
      </trkpt>
      <trkpt lat="46.96522" lon="8.75711">
        <ele>987</ele>
        <time>2021-08-06T09:42:31.340Z</time>
      </trkpt>
      <trkpt lat="46.96522" lon="8.7571">
        <ele>987</ele>
        <time>2021-08-06T09:42:32.341Z</time>
      </trkpt>
      <trkpt lat="46.96521" lon="8.75708">
        <ele>988</ele>
        <time>2021-08-06T09:42:33.341Z</time>
      </trkpt>
      <trkpt lat="46.96521" lon="8.75707">
        <ele>988</ele>
        <time>2021-08-06T09:42:34.340Z</time>
      </trkpt>
      <trkpt lat="46.9652" lon="8.75705">
        <ele>988</ele>
        <time>2021-08-06T09:42:35.340Z</time>
      </trkpt>
      <trkpt lat="46.9652" lon="8.75704">
        <ele>988</ele>
        <time>2021-08-06T09:42:36.340Z</time>
      </trkpt>
      <trkpt lat="46.96521" lon="8.75702">
        <ele>988</ele>
        <time>2021-08-06T09:42:37.340Z</time>
      </trkpt>
      <trkpt lat="46.96521" lon="8.75701">
        <ele>988</ele>
        <time>2021-08-06T09:42:38.341Z</time>
      </trkpt>
      <trkpt lat="46.96521" lon="8.75699">
        <ele>987</ele>
        <time>2021-08-06T09:42:39.340Z</time>
      </trkpt>
      <trkpt lat="46.96521" lon="8.75698">
        <ele>987</ele>
        <time>2021-08-06T09:42:40.341Z</time>
      </trkpt>
      <trkpt lat="46.9652" lon="8.75696">
        <ele>987</ele>
        <time>2021-08-06T09:42:41.341Z</time>
      </trkpt>
      <trkpt lat="46.96519" lon="8.75695">
        <ele>988</ele>
        <time>2021-08-06T09:42:42.340Z</time>
      </trkpt>
      <trkpt lat="46.96519" lon="8.75693">
        <ele>988</ele>
        <time>2021-08-06T09:42:43.341Z</time>
      </trkpt>
      <trkpt lat="46.96519" lon="8.75692">
        <ele>989</ele>
        <time>2021-08-06T09:42:44.340Z</time>
      </trkpt>
      <trkpt lat="46.96518" lon="8.75691">
        <ele>990</ele>
        <time>2021-08-06T09:42:45.340Z</time>
      </trkpt>
      <trkpt lat="46.96518" lon="8.75689">
        <ele>991</ele>
        <time>2021-08-06T09:42:46.341Z</time>
      </trkpt>
      <trkpt lat="46.96518" lon="8.75688">
        <ele>991</ele>
        <time>2021-08-06T09:42:47.341Z</time>
      </trkpt>
      <trkpt lat="46.96517" lon="8.75686">
        <ele>991</ele>
        <time>2021-08-06T09:42:48.341Z</time>
      </trkpt>
      <trkpt lat="46.96517" lon="8.75685">
        <ele>992</ele>
        <time>2021-08-06T09:42:49.341Z</time>
      </trkpt>
      <trkpt lat="46.96516" lon="8.75684">
        <ele>992</ele>
        <time>2021-08-06T09:42:50.341Z</time>
      </trkpt>
      <trkpt lat="46.96516" lon="8.75683">
        <ele>992</ele>
        <time>2021-08-06T09:42:51.341Z</time>
      </trkpt>
      <trkpt lat="46.96515" lon="8.75682">
        <ele>992</ele>
        <time>2021-08-06T09:42:52.341Z</time>
      </trkpt>
      <trkpt lat="46.96515" lon="8.7568">
        <ele>993</ele>
        <time>2021-08-06T09:42:53.341Z</time>
      </trkpt>
      <trkpt lat="46.96514" lon="8.75679">
        <ele>993</ele>
        <time>2021-08-06T09:42:54.341Z</time>
      </trkpt>
      <trkpt lat="46.96514" lon="8.75678">
        <ele>993</ele>
        <time>2021-08-06T09:42:55.341Z</time>
      </trkpt>
      <trkpt lat="46.96513" lon="8.75678">
        <ele>993</ele>
        <time>2021-08-06T09:42:56.341Z</time>
      </trkpt>
      <trkpt lat="46.96513" lon="8.75676">
        <ele>993</ele>
        <time>2021-08-06T09:42:57.341Z</time>
      </trkpt>
      <trkpt lat="46.96513" lon="8.75675">
        <ele>993</ele>
        <time>2021-08-06T09:42:58.341Z</time>
      </trkpt>
      <trkpt lat="46.96513" lon="8.75674">
        <ele>993</ele>
        <time>2021-08-06T09:42:59.341Z</time>
      </trkpt>
      <trkpt lat="46.96512" lon="8.75673">
        <ele>993</ele>
        <time>2021-08-06T09:43:00.341Z</time>
      </trkpt>
      <trkpt lat="46.96511" lon="8.75672">
        <ele>993</ele>
        <time>2021-08-06T09:43:01.340Z</time>
      </trkpt>
      <trkpt lat="46.96511" lon="8.75671">
        <ele>994</ele>
        <time>2021-08-06T09:43:02.341Z</time>
      </trkpt>
      <trkpt lat="46.96511" lon="8.75669">
        <ele>994</ele>
        <time>2021-08-06T09:43:03.340Z</time>
      </trkpt>
      <trkpt lat="46.96511" lon="8.75668">
        <ele>994</ele>
        <time>2021-08-06T09:43:04.341Z</time>
      </trkpt>
      <trkpt lat="46.9651" lon="8.75667">
        <ele>995</ele>
        <time>2021-08-06T09:43:05.341Z</time>
      </trkpt>
      <trkpt lat="46.9651" lon="8.75666">
        <ele>995</ele>
        <time>2021-08-06T09:43:06.341Z</time>
      </trkpt>
      <trkpt lat="46.9651" lon="8.75664">
        <ele>995</ele>
        <time>2021-08-06T09:43:07.341Z</time>
      </trkpt>
      <trkpt lat="46.9651" lon="8.75663">
        <ele>996</ele>
        <time>2021-08-06T09:43:08.341Z</time>
      </trkpt>
      <trkpt lat="46.9651" lon="8.75661">
        <ele>996</ele>
        <time>2021-08-06T09:43:09.340Z</time>
      </trkpt>
      <trkpt lat="46.9651" lon="8.7566">
        <ele>996</ele>
        <time>2021-08-06T09:43:10.340Z</time>
      </trkpt>
      <trkpt lat="46.96511" lon="8.75659">
        <ele>996</ele>
        <time>2021-08-06T09:43:11.340Z</time>
      </trkpt>
      <trkpt lat="46.9651" lon="8.75657">
        <ele>996</ele>
        <time>2021-08-06T09:43:12.341Z</time>
      </trkpt>
      <trkpt lat="46.9651" lon="8.75655">
        <ele>997</ele>
        <time>2021-08-06T09:43:13.341Z</time>
      </trkpt>
      <trkpt lat="46.9651" lon="8.75654">
        <ele>997</ele>
        <time>2021-08-06T09:43:14.340Z</time>
      </trkpt>
      <trkpt lat="46.9651" lon="8.75652">
        <ele>996</ele>
        <time>2021-08-06T09:43:15.341Z</time>
      </trkpt>
      <trkpt lat="46.96509" lon="8.7565">
        <ele>996</ele>
        <time>2021-08-06T09:43:16.341Z</time>
      </trkpt>
      <trkpt lat="46.9651" lon="8.75649">
        <ele>996</ele>
        <time>2021-08-06T09:43:17.340Z</time>
      </trkpt>
      <trkpt lat="46.9651" lon="8.75648">
        <ele>995</ele>
        <time>2021-08-06T09:43:18.340Z</time>
      </trkpt>
      <trkpt lat="46.9651" lon="8.75647">
        <ele>995</ele>
        <time>2021-08-06T09:43:19.340Z</time>
      </trkpt>
      <trkpt lat="46.9651" lon="8.75645">
        <ele>995</ele>
        <time>2021-08-06T09:43:20.340Z</time>
      </trkpt>
      <trkpt lat="46.9651" lon="8.75643">
        <ele>994</ele>
        <time>2021-08-06T09:43:21.341Z</time>
      </trkpt>
      <trkpt lat="46.9651" lon="8.75642">
        <ele>995</ele>
        <time>2021-08-06T09:43:22.340Z</time>
      </trkpt>
      <trkpt lat="46.96508" lon="8.75641">
        <ele>994</ele>
        <time>2021-08-06T09:43:23.340Z</time>
      </trkpt>
      <trkpt lat="46.96508" lon="8.75639">
        <ele>994</ele>
        <time>2021-08-06T09:43:24.341Z</time>
      </trkpt>
      <trkpt lat="46.96508" lon="8.75637">
        <ele>994</ele>
        <time>2021-08-06T09:43:25.341Z</time>
      </trkpt>
      <trkpt lat="46.96508" lon="8.75635">
        <ele>994</ele>
        <time>2021-08-06T09:43:26.341Z</time>
      </trkpt>
      <trkpt lat="46.96508" lon="8.75634">
        <ele>994</ele>
        <time>2021-08-06T09:43:27.341Z</time>
      </trkpt>
      <trkpt lat="46.96507" lon="8.75633">
        <ele>994</ele>
        <time>2021-08-06T09:43:28.341Z</time>
      </trkpt>
      <trkpt lat="46.96507" lon="8.75632">
        <ele>994</ele>
        <time>2021-08-06T09:43:29.341Z</time>
      </trkpt>
      <trkpt lat="46.96507" lon="8.75631">
        <ele>995</ele>
        <time>2021-08-06T09:43:30.341Z</time>
      </trkpt>
      <trkpt lat="46.96506" lon="8.75629">
        <ele>995</ele>
        <time>2021-08-06T09:43:31.341Z</time>
      </trkpt>
      <trkpt lat="46.96507" lon="8.75627">
        <ele>995</ele>
        <time>2021-08-06T09:43:32.341Z</time>
      </trkpt>
      <trkpt lat="46.96507" lon="8.75626">
        <ele>996</ele>
        <time>2021-08-06T09:43:33.340Z</time>
      </trkpt>
      <trkpt lat="46.96507" lon="8.75625">
        <ele>996</ele>
        <time>2021-08-06T09:43:34.341Z</time>
      </trkpt>
      <trkpt lat="46.96507" lon="8.75624">
        <ele>996</ele>
        <time>2021-08-06T09:43:35.341Z</time>
      </trkpt>
      <trkpt lat="46.96506" lon="8.75623">
        <ele>996</ele>
        <time>2021-08-06T09:43:36.340Z</time>
      </trkpt>
      <trkpt lat="46.96506" lon="8.75621">
        <ele>997</ele>
        <time>2021-08-06T09:43:37.341Z</time>
      </trkpt>
      <trkpt lat="46.96505" lon="8.7562">
        <ele>997</ele>
        <time>2021-08-06T09:43:38.341Z</time>
      </trkpt>
      <trkpt lat="46.96506" lon="8.75618">
        <ele>998</ele>
        <time>2021-08-06T09:43:39.341Z</time>
      </trkpt>
      <trkpt lat="46.96506" lon="8.75616">
        <ele>998</ele>
        <time>2021-08-06T09:43:40.341Z</time>
      </trkpt>
      <trkpt lat="46.96506" lon="8.75615">
        <ele>999</ele>
        <time>2021-08-06T09:43:41.340Z</time>
      </trkpt>
      <trkpt lat="46.96506" lon="8.75614">
        <ele>999</ele>
        <time>2021-08-06T09:43:42.341Z</time>
      </trkpt>
      <trkpt lat="46.96506" lon="8.75613">
        <ele>1000</ele>
        <time>2021-08-06T09:43:43.341Z</time>
      </trkpt>
      <trkpt lat="46.96506" lon="8.75611">
        <ele>1000</ele>
        <time>2021-08-06T09:43:44.341Z</time>
      </trkpt>
      <trkpt lat="46.96505" lon="8.7561">
        <ele>1000</ele>
        <time>2021-08-06T09:43:45.341Z</time>
      </trkpt>
      <trkpt lat="46.96506" lon="8.75609">
        <ele>1000</ele>
        <time>2021-08-06T09:43:46.340Z</time>
      </trkpt>
      <trkpt lat="46.96505" lon="8.75607">
        <ele>1000</ele>
        <time>2021-08-06T09:43:47.340Z</time>
      </trkpt>
      <trkpt lat="46.96505" lon="8.75606">
        <ele>1000</ele>
        <time>2021-08-06T09:43:48.340Z</time>
      </trkpt>
      <trkpt lat="46.96505" lon="8.75605">
        <ele>1000</ele>
        <time>2021-08-06T09:43:49.341Z</time>
      </trkpt>
      <trkpt lat="46.96504" lon="8.75603">
        <ele>1000</ele>
        <time>2021-08-06T09:43:50.340Z</time>
      </trkpt>
      <trkpt lat="46.96504" lon="8.75602">
        <ele>1000</ele>
        <time>2021-08-06T09:43:51.341Z</time>
      </trkpt>
      <trkpt lat="46.96503" lon="8.75601">
        <ele>1001</ele>
        <time>2021-08-06T09:43:52.340Z</time>
      </trkpt>
      <trkpt lat="46.96503" lon="8.75599">
        <ele>1001</ele>
        <time>2021-08-06T09:43:53.341Z</time>
      </trkpt>
      <trkpt lat="46.96503" lon="8.75597">
        <ele>1002</ele>
        <time>2021-08-06T09:43:54.340Z</time>
      </trkpt>
      <trkpt lat="46.96503" lon="8.75596">
        <ele>1002</ele>
        <time>2021-08-06T09:43:55.340Z</time>
      </trkpt>
      <trkpt lat="46.96502" lon="8.75594">
        <ele>1002</ele>
        <time>2021-08-06T09:43:56.341Z</time>
      </trkpt>
      <trkpt lat="46.96502" lon="8.75593">
        <ele>1003</ele>
        <time>2021-08-06T09:43:57.341Z</time>
      </trkpt>
      <trkpt lat="46.96502" lon="8.75591">
        <ele>1003</ele>
        <time>2021-08-06T09:43:58.341Z</time>
      </trkpt>
      <trkpt lat="46.96501" lon="8.75589">
        <ele>1004</ele>
        <time>2021-08-06T09:43:59.340Z</time>
      </trkpt>
      <trkpt lat="46.96501" lon="8.75589">
        <ele>1004</ele>
        <time>2021-08-06T09:44:00.341Z</time>
      </trkpt>
      <trkpt lat="46.965" lon="8.75588">
        <ele>1005</ele>
        <time>2021-08-06T09:44:01.340Z</time>
      </trkpt>
      <trkpt lat="46.965" lon="8.75587">
        <ele>1005</ele>
        <time>2021-08-06T09:44:02.340Z</time>
      </trkpt>
      <trkpt lat="46.96499" lon="8.75585">
        <ele>1005</ele>
        <time>2021-08-06T09:44:03.341Z</time>
      </trkpt>
      <trkpt lat="46.96499" lon="8.75583">
        <ele>1005</ele>
        <time>2021-08-06T09:44:04.341Z</time>
      </trkpt>
      <trkpt lat="46.96499" lon="8.75582">
        <ele>1005</ele>
        <time>2021-08-06T09:44:05.340Z</time>
      </trkpt>
      <trkpt lat="46.96499" lon="8.75581">
        <ele>1005</ele>
        <time>2021-08-06T09:44:06.340Z</time>
      </trkpt>
      <trkpt lat="46.96498" lon="8.7558">
        <ele>1005</ele>
        <time>2021-08-06T09:44:07.341Z</time>
      </trkpt>
      <trkpt lat="46.96498" lon="8.75579">
        <ele>1005</ele>
        <time>2021-08-06T09:44:08.340Z</time>
      </trkpt>
      <trkpt lat="46.96497" lon="8.75578">
        <ele>1005</ele>
        <time>2021-08-06T09:44:09.341Z</time>
      </trkpt>
      <trkpt lat="46.96497" lon="8.75577">
        <ele>1005</ele>
        <time>2021-08-06T09:44:10.340Z</time>
      </trkpt>
      <trkpt lat="46.96498" lon="8.75576">
        <ele>1004</ele>
        <time>2021-08-06T09:44:11.341Z</time>
      </trkpt>
      <trkpt lat="46.96497" lon="8.75575">
        <ele>1004</ele>
        <time>2021-08-06T09:44:12.341Z</time>
      </trkpt>
      <trkpt lat="46.96497" lon="8.75574">
        <ele>1004</ele>
        <time>2021-08-06T09:44:13.341Z</time>
      </trkpt>
      <trkpt lat="46.96497" lon="8.75573">
        <ele>1003</ele>
        <time>2021-08-06T09:44:14.341Z</time>
      </trkpt>
      <trkpt lat="46.96497" lon="8.75571">
        <ele>1003</ele>
        <time>2021-08-06T09:44:15.340Z</time>
      </trkpt>
      <trkpt lat="46.96497" lon="8.7557">
        <ele>1003</ele>
        <time>2021-08-06T09:44:16.341Z</time>
      </trkpt>
      <trkpt lat="46.96497" lon="8.75568">
        <ele>1003</ele>
        <time>2021-08-06T09:44:17.341Z</time>
      </trkpt>
      <trkpt lat="46.96497" lon="8.75566">
        <ele>1003</ele>
        <time>2021-08-06T09:44:18.341Z</time>
      </trkpt>
      <trkpt lat="46.96497" lon="8.75565">
        <ele>1003</ele>
        <time>2021-08-06T09:44:19.341Z</time>
      </trkpt>
      <trkpt lat="46.96497" lon="8.75563">
        <ele>1003</ele>
        <time>2021-08-06T09:44:20.341Z</time>
      </trkpt>
      <trkpt lat="46.96496" lon="8.75562">
        <ele>1002</ele>
        <time>2021-08-06T09:44:21.341Z</time>
      </trkpt>
      <trkpt lat="46.96496" lon="8.7556">
        <ele>1002</ele>
        <time>2021-08-06T09:44:22.341Z</time>
      </trkpt>
      <trkpt lat="46.96496" lon="8.75559">
        <ele>1002</ele>
        <time>2021-08-06T09:44:23.340Z</time>
      </trkpt>
      <trkpt lat="46.96496" lon="8.75558">
        <ele>1002</ele>
        <time>2021-08-06T09:44:24.341Z</time>
      </trkpt>
      <trkpt lat="46.96495" lon="8.75558">
        <ele>1002</ele>
        <time>2021-08-06T09:44:25.341Z</time>
      </trkpt>
      <trkpt lat="46.96495" lon="8.75556">
        <ele>1003</ele>
        <time>2021-08-06T09:44:26.341Z</time>
      </trkpt>
      <trkpt lat="46.96495" lon="8.75555">
        <ele>1003</ele>
        <time>2021-08-06T09:44:27.341Z</time>
      </trkpt>
      <trkpt lat="46.96495" lon="8.75553">
        <ele>1003</ele>
        <time>2021-08-06T09:44:28.340Z</time>
      </trkpt>
      <trkpt lat="46.96496" lon="8.75551">
        <ele>1004</ele>
        <time>2021-08-06T09:44:29.341Z</time>
      </trkpt>
      <trkpt lat="46.96496" lon="8.7555">
        <ele>1004</ele>
        <time>2021-08-06T09:44:30.341Z</time>
      </trkpt>
      <trkpt lat="46.96496" lon="8.75549">
        <ele>1004</ele>
        <time>2021-08-06T09:44:31.341Z</time>
      </trkpt>
      <trkpt lat="46.96496" lon="8.75547">
        <ele>1005</ele>
        <time>2021-08-06T09:44:32.341Z</time>
      </trkpt>
      <trkpt lat="46.96496" lon="8.75546">
        <ele>1005</ele>
        <time>2021-08-06T09:44:33.341Z</time>
      </trkpt>
      <trkpt lat="46.96495" lon="8.75546">
        <ele>1006</ele>
        <time>2021-08-06T09:44:34.340Z</time>
      </trkpt>
      <trkpt lat="46.96494" lon="8.75545">
        <ele>1006</ele>
        <time>2021-08-06T09:44:35.341Z</time>
      </trkpt>
      <trkpt lat="46.96494" lon="8.75544">
        <ele>1007</ele>
        <time>2021-08-06T09:44:36.341Z</time>
      </trkpt>
      <trkpt lat="46.96494" lon="8.75543">
        <ele>1008</ele>
        <time>2021-08-06T09:44:37.341Z</time>
      </trkpt>
      <trkpt lat="46.96493" lon="8.75542">
        <ele>1009</ele>
        <time>2021-08-06T09:44:38.341Z</time>
      </trkpt>
      <trkpt lat="46.96492" lon="8.75541">
        <ele>1010</ele>
        <time>2021-08-06T09:44:39.340Z</time>
      </trkpt>
      <trkpt lat="46.96491" lon="8.7554">
        <ele>1011</ele>
        <time>2021-08-06T09:44:40.341Z</time>
      </trkpt>
      <trkpt lat="46.96491" lon="8.75539">
        <ele>1012</ele>
        <time>2021-08-06T09:44:41.341Z</time>
      </trkpt>
      <trkpt lat="46.9649" lon="8.75538">
        <ele>1012</ele>
        <time>2021-08-06T09:44:42.341Z</time>
      </trkpt>
      <trkpt lat="46.9649" lon="8.75536">
        <ele>1013</ele>
        <time>2021-08-06T09:44:43.341Z</time>
      </trkpt>
      <trkpt lat="46.9649" lon="8.75535">
        <ele>1013</ele>
        <time>2021-08-06T09:44:44.341Z</time>
      </trkpt>
      <trkpt lat="46.9649" lon="8.75534">
        <ele>1014</ele>
        <time>2021-08-06T09:44:45.341Z</time>
      </trkpt>
      <trkpt lat="46.9649" lon="8.75532">
        <ele>1014</ele>
        <time>2021-08-06T09:44:46.341Z</time>
      </trkpt>
      <trkpt lat="46.9649" lon="8.7553">
        <ele>1014</ele>
        <time>2021-08-06T09:44:47.340Z</time>
      </trkpt>
      <trkpt lat="46.9649" lon="8.75529">
        <ele>1015</ele>
        <time>2021-08-06T09:44:48.341Z</time>
      </trkpt>
      <trkpt lat="46.96489" lon="8.75528">
        <ele>1015</ele>
        <time>2021-08-06T09:44:49.341Z</time>
      </trkpt>
      <trkpt lat="46.96488" lon="8.75527">
        <ele>1015</ele>
        <time>2021-08-06T09:44:50.340Z</time>
      </trkpt>
      <trkpt lat="46.96487" lon="8.75526">
        <ele>1015</ele>
        <time>2021-08-06T09:44:51.340Z</time>
      </trkpt>
      <trkpt lat="46.96486" lon="8.75525">
        <ele>1016</ele>
        <time>2021-08-06T09:44:52.340Z</time>
      </trkpt>
      <trkpt lat="46.96485" lon="8.75525">
        <ele>1016</ele>
        <time>2021-08-06T09:44:53.341Z</time>
      </trkpt>
      <trkpt lat="46.96484" lon="8.75524">
        <ele>1016</ele>
        <time>2021-08-06T09:44:54.340Z</time>
      </trkpt>
      <trkpt lat="46.96483" lon="8.75523">
        <ele>1016</ele>
        <time>2021-08-06T09:44:55.341Z</time>
      </trkpt>
      <trkpt lat="46.96483" lon="8.75522">
        <ele>1016</ele>
        <time>2021-08-06T09:44:56.341Z</time>
      </trkpt>
      <trkpt lat="46.96483" lon="8.7552">
        <ele>1017</ele>
        <time>2021-08-06T09:44:57.341Z</time>
      </trkpt>
      <trkpt lat="46.96483" lon="8.75518">
        <ele>1017</ele>
        <time>2021-08-06T09:44:58.340Z</time>
      </trkpt>
      <trkpt lat="46.96483" lon="8.75517">
        <ele>1017</ele>
        <time>2021-08-06T09:44:59.340Z</time>
      </trkpt>
      <trkpt lat="46.96482" lon="8.75516">
        <ele>1017</ele>
        <time>2021-08-06T09:45:00.340Z</time>
      </trkpt>
      <trkpt lat="46.96481" lon="8.75515">
        <ele>1018</ele>
        <time>2021-08-06T09:45:01.341Z</time>
      </trkpt>
      <trkpt lat="46.9648" lon="8.75514">
        <ele>1018</ele>
        <time>2021-08-06T09:45:02.341Z</time>
      </trkpt>
      <trkpt lat="46.96479" lon="8.75512">
        <ele>1019</ele>
        <time>2021-08-06T09:45:03.341Z</time>
      </trkpt>
      <trkpt lat="46.96478" lon="8.75511">
        <ele>1019</ele>
        <time>2021-08-06T09:45:04.341Z</time>
      </trkpt>
      <trkpt lat="46.96478" lon="8.75509">
        <ele>1020</ele>
        <time>2021-08-06T09:45:05.341Z</time>
      </trkpt>
      <trkpt lat="46.96477" lon="8.75508">
        <ele>1021</ele>
        <time>2021-08-06T09:45:06.341Z</time>
      </trkpt>
      <trkpt lat="46.96476" lon="8.75506">
        <ele>1022</ele>
        <time>2021-08-06T09:45:07.341Z</time>
      </trkpt>
      <trkpt lat="46.96476" lon="8.75505">
        <ele>1023</ele>
        <time>2021-08-06T09:45:08.340Z</time>
      </trkpt>
      <trkpt lat="46.96475" lon="8.75504">
        <ele>1024</ele>
        <time>2021-08-06T09:45:09.341Z</time>
      </trkpt>
      <trkpt lat="46.96475" lon="8.75503">
        <ele>1024</ele>
        <time>2021-08-06T09:45:10.340Z</time>
      </trkpt>
      <trkpt lat="46.96475" lon="8.75502">
        <ele>1024</ele>
        <time>2021-08-06T09:45:11.341Z</time>
      </trkpt>
      <trkpt lat="46.96475" lon="8.755">
        <ele>1024</ele>
        <time>2021-08-06T09:45:12.341Z</time>
      </trkpt>
      <trkpt lat="46.96474" lon="8.75499">
        <ele>1024</ele>
        <time>2021-08-06T09:45:13.341Z</time>
      </trkpt>
      <trkpt lat="46.96473" lon="8.75498">
        <ele>1023</ele>
        <time>2021-08-06T09:45:14.341Z</time>
      </trkpt>
      <trkpt lat="46.96472" lon="8.75497">
        <ele>1022</ele>
        <time>2021-08-06T09:45:15.340Z</time>
      </trkpt>
      <trkpt lat="46.96472" lon="8.75495">
        <ele>1022</ele>
        <time>2021-08-06T09:45:16.340Z</time>
      </trkpt>
      <trkpt lat="46.96471" lon="8.75494">
        <ele>1021</ele>
        <time>2021-08-06T09:45:17.341Z</time>
      </trkpt>
      <trkpt lat="46.96471" lon="8.75493">
        <ele>1020</ele>
        <time>2021-08-06T09:45:18.341Z</time>
      </trkpt>
      <trkpt lat="46.9647" lon="8.75491">
        <ele>1020</ele>
        <time>2021-08-06T09:45:19.341Z</time>
      </trkpt>
      <trkpt lat="46.96469" lon="8.7549">
        <ele>1019</ele>
        <time>2021-08-06T09:45:20.341Z</time>
      </trkpt>
      <trkpt lat="46.96469" lon="8.75489">
        <ele>1018</ele>
        <time>2021-08-06T09:45:21.341Z</time>
      </trkpt>
      <trkpt lat="46.96469" lon="8.75487">
        <ele>1018</ele>
        <time>2021-08-06T09:45:22.341Z</time>
      </trkpt>
      <trkpt lat="46.96468" lon="8.75485">
        <ele>1018</ele>
        <time>2021-08-06T09:45:23.340Z</time>
      </trkpt>
      <trkpt lat="46.96468" lon="8.75483">
        <ele>1017</ele>
        <time>2021-08-06T09:45:24.341Z</time>
      </trkpt>
      <trkpt lat="46.96467" lon="8.75481">
        <ele>1017</ele>
        <time>2021-08-06T09:45:25.341Z</time>
      </trkpt>
      <trkpt lat="46.96467" lon="8.7548">
        <ele>1017</ele>
        <time>2021-08-06T09:45:26.340Z</time>
      </trkpt>
      <trkpt lat="46.96466" lon="8.75479">
        <ele>1017</ele>
        <time>2021-08-06T09:45:27.340Z</time>
      </trkpt>
      <trkpt lat="46.96466" lon="8.75477">
        <ele>1017</ele>
        <time>2021-08-06T09:45:28.341Z</time>
      </trkpt>
      <trkpt lat="46.96466" lon="8.75475">
        <ele>1017</ele>
        <time>2021-08-06T09:45:29.340Z</time>
      </trkpt>
      <trkpt lat="46.96467" lon="8.75473">
        <ele>1017</ele>
        <time>2021-08-06T09:45:30.341Z</time>
      </trkpt>
      <trkpt lat="46.96467" lon="8.75471">
        <ele>1017</ele>
        <time>2021-08-06T09:45:31.340Z</time>
      </trkpt>
      <trkpt lat="46.96468" lon="8.7547">
        <ele>1017</ele>
        <time>2021-08-06T09:45:32.341Z</time>
      </trkpt>
      <trkpt lat="46.96468" lon="8.75468">
        <ele>1018</ele>
        <time>2021-08-06T09:45:33.340Z</time>
      </trkpt>
      <trkpt lat="46.96469" lon="8.75466">
        <ele>1018</ele>
        <time>2021-08-06T09:45:34.341Z</time>
      </trkpt>
      <trkpt lat="46.96468" lon="8.75465">
        <ele>1018</ele>
        <time>2021-08-06T09:45:35.341Z</time>
      </trkpt>
      <trkpt lat="46.96467" lon="8.75464">
        <ele>1017</ele>
        <time>2021-08-06T09:45:36.341Z</time>
      </trkpt>
      <trkpt lat="46.96466" lon="8.75462">
        <ele>1017</ele>
        <time>2021-08-06T09:45:37.341Z</time>
      </trkpt>
      <trkpt lat="46.96466" lon="8.75461">
        <ele>1017</ele>
        <time>2021-08-06T09:45:38.341Z</time>
      </trkpt>
      <trkpt lat="46.96466" lon="8.7546">
        <ele>1017</ele>
        <time>2021-08-06T09:45:39.340Z</time>
      </trkpt>
      <trkpt lat="46.96467" lon="8.75458">
        <ele>1017</ele>
        <time>2021-08-06T09:45:40.341Z</time>
      </trkpt>
      <trkpt lat="46.96468" lon="8.75457">
        <ele>1017</ele>
        <time>2021-08-06T09:45:41.341Z</time>
      </trkpt>
      <trkpt lat="46.96468" lon="8.75455">
        <ele>1017</ele>
        <time>2021-08-06T09:45:42.341Z</time>
      </trkpt>
      <trkpt lat="46.96468" lon="8.75454">
        <ele>1017</ele>
        <time>2021-08-06T09:45:43.341Z</time>
      </trkpt>
      <trkpt lat="46.96468" lon="8.75453">
        <ele>1018</ele>
        <time>2021-08-06T09:45:44.341Z</time>
      </trkpt>
      <trkpt lat="46.96466" lon="8.75451">
        <ele>1018</ele>
        <time>2021-08-06T09:45:45.341Z</time>
      </trkpt>
      <trkpt lat="46.96465" lon="8.75449">
        <ele>1018</ele>
        <time>2021-08-06T09:45:46.340Z</time>
      </trkpt>
      <trkpt lat="46.96464" lon="8.75448">
        <ele>1018</ele>
        <time>2021-08-06T09:45:47.341Z</time>
      </trkpt>
      <trkpt lat="46.96463" lon="8.75447">
        <ele>1018</ele>
        <time>2021-08-06T09:45:48.340Z</time>
      </trkpt>
      <trkpt lat="46.96463" lon="8.75445">
        <ele>1018</ele>
        <time>2021-08-06T09:45:49.341Z</time>
      </trkpt>
      <trkpt lat="46.96463" lon="8.75444">
        <ele>1018</ele>
        <time>2021-08-06T09:45:50.341Z</time>
      </trkpt>
      <trkpt lat="46.96463" lon="8.75443">
        <ele>1018</ele>
        <time>2021-08-06T09:45:51.341Z</time>
      </trkpt>
      <trkpt lat="46.96463" lon="8.75442">
        <ele>1018</ele>
        <time>2021-08-06T09:45:52.341Z</time>
      </trkpt>
      <trkpt lat="46.96464" lon="8.75441">
        <ele>1017</ele>
        <time>2021-08-06T09:45:53.340Z</time>
      </trkpt>
      <trkpt lat="46.96464" lon="8.7544">
        <ele>1017</ele>
        <time>2021-08-06T09:45:54.340Z</time>
      </trkpt>
      <trkpt lat="46.96463" lon="8.75439">
        <ele>1017</ele>
        <time>2021-08-06T09:45:55.340Z</time>
      </trkpt>
      <trkpt lat="46.96463" lon="8.75438">
        <ele>1017</ele>
        <time>2021-08-06T09:45:56.341Z</time>
      </trkpt>
      <trkpt lat="46.96462" lon="8.75437">
        <ele>1017</ele>
        <time>2021-08-06T09:45:57.341Z</time>
      </trkpt>
      <trkpt lat="46.96462" lon="8.75436">
        <ele>1018</ele>
        <time>2021-08-06T09:45:58.341Z</time>
      </trkpt>
      <trkpt lat="46.96461" lon="8.75436">
        <ele>1018</ele>
        <time>2021-08-06T09:45:59.341Z</time>
      </trkpt>
      <trkpt lat="46.96461" lon="8.75435">
        <ele>1018</ele>
        <time>2021-08-06T09:46:00.341Z</time>
      </trkpt>
      <trkpt lat="46.96461" lon="8.75434">
        <ele>1019</ele>
        <time>2021-08-06T09:46:01.340Z</time>
      </trkpt>
      <trkpt lat="46.9646" lon="8.75433">
        <ele>1019</ele>
        <time>2021-08-06T09:46:02.341Z</time>
      </trkpt>
      <trkpt lat="46.96459" lon="8.75432">
        <ele>1019</ele>
        <time>2021-08-06T09:46:03.341Z</time>
      </trkpt>
      <trkpt lat="46.96458" lon="8.75431">
        <ele>1020</ele>
        <time>2021-08-06T09:46:04.341Z</time>
      </trkpt>
      <trkpt lat="46.96457" lon="8.7543">
        <ele>1020</ele>
        <time>2021-08-06T09:46:05.340Z</time>
      </trkpt>
      <trkpt lat="46.96455" lon="8.75429">
        <ele>1020</ele>
        <time>2021-08-06T09:46:06.340Z</time>
      </trkpt>
      <trkpt lat="46.96454" lon="8.75428">
        <ele>1020</ele>
        <time>2021-08-06T09:46:07.341Z</time>
      </trkpt>
      <trkpt lat="46.96454" lon="8.75427">
        <ele>1020</ele>
        <time>2021-08-06T09:46:08.341Z</time>
      </trkpt>
      <trkpt lat="46.96452" lon="8.75425">
        <ele>1020</ele>
        <time>2021-08-06T09:46:09.340Z</time>
      </trkpt>
      <trkpt lat="46.9645" lon="8.75424">
        <ele>1020</ele>
        <time>2021-08-06T09:46:10.341Z</time>
      </trkpt>
      <trkpt lat="46.96449" lon="8.75422">
        <ele>1019</ele>
        <time>2021-08-06T09:46:11.341Z</time>
      </trkpt>
      <trkpt lat="46.96449" lon="8.75421">
        <ele>1019</ele>
        <time>2021-08-06T09:46:12.340Z</time>
      </trkpt>
      <trkpt lat="46.96449" lon="8.75419">
        <ele>1018</ele>
        <time>2021-08-06T09:46:13.340Z</time>
      </trkpt>
      <trkpt lat="46.96449" lon="8.75418">
        <ele>1017</ele>
        <time>2021-08-06T09:46:14.341Z</time>
      </trkpt>
      <trkpt lat="46.96448" lon="8.75417">
        <ele>1017</ele>
        <time>2021-08-06T09:46:15.341Z</time>
      </trkpt>
      <trkpt lat="46.96447" lon="8.75416">
        <ele>1017</ele>
        <time>2021-08-06T09:46:16.340Z</time>
      </trkpt>
      <trkpt lat="46.96447" lon="8.75416">
        <ele>1016</ele>
        <time>2021-08-06T09:46:17.340Z</time>
      </trkpt>
      <trkpt lat="46.96446" lon="8.75415">
        <ele>1016</ele>
        <time>2021-08-06T09:46:18.340Z</time>
      </trkpt>
      <trkpt lat="46.96446" lon="8.75413">
        <ele>1015</ele>
        <time>2021-08-06T09:46:19.341Z</time>
      </trkpt>
      <trkpt lat="46.96446" lon="8.75411">
        <ele>1015</ele>
        <time>2021-08-06T09:46:20.340Z</time>
      </trkpt>
      <trkpt lat="46.96446" lon="8.75408">
        <ele>1014</ele>
        <time>2021-08-06T09:46:21.340Z</time>
      </trkpt>
      <trkpt lat="46.96446" lon="8.75406">
        <ele>1014</ele>
        <time>2021-08-06T09:46:22.340Z</time>
      </trkpt>
      <trkpt lat="46.96447" lon="8.75403">
        <ele>1013</ele>
        <time>2021-08-06T09:46:23.340Z</time>
      </trkpt>
      <trkpt lat="46.96447" lon="8.75401">
        <ele>1013</ele>
        <time>2021-08-06T09:46:24.340Z</time>
      </trkpt>
      <trkpt lat="46.96447" lon="8.75399">
        <ele>1013</ele>
        <time>2021-08-06T09:46:25.340Z</time>
      </trkpt>
      <trkpt lat="46.96446" lon="8.75398">
        <ele>1013</ele>
        <time>2021-08-06T09:46:26.340Z</time>
      </trkpt>
      <trkpt lat="46.96445" lon="8.75397">
        <ele>1013</ele>
        <time>2021-08-06T09:46:27.340Z</time>
      </trkpt>
      <trkpt lat="46.96444" lon="8.75396">
        <ele>1013</ele>
        <time>2021-08-06T09:46:28.340Z</time>
      </trkpt>
      <trkpt lat="46.96443" lon="8.75395">
        <ele>1013</ele>
        <time>2021-08-06T09:46:29.341Z</time>
      </trkpt>
      <trkpt lat="46.96442" lon="8.75394">
        <ele>1013</ele>
        <time>2021-08-06T09:46:30.340Z</time>
      </trkpt>
      <trkpt lat="46.96441" lon="8.75393">
        <ele>1014</ele>
        <time>2021-08-06T09:46:31.341Z</time>
      </trkpt>
      <trkpt lat="46.9644" lon="8.75392">
        <ele>1014</ele>
        <time>2021-08-06T09:46:32.340Z</time>
      </trkpt>
      <trkpt lat="46.96439" lon="8.7539">
        <ele>1014</ele>
        <time>2021-08-06T09:46:33.341Z</time>
      </trkpt>
      <trkpt lat="46.96438" lon="8.75389">
        <ele>1014</ele>
        <time>2021-08-06T09:46:34.341Z</time>
      </trkpt>
      <trkpt lat="46.96438" lon="8.75388">
        <ele>1014</ele>
        <time>2021-08-06T09:46:35.341Z</time>
      </trkpt>
      <trkpt lat="46.96437" lon="8.75387">
        <ele>1014</ele>
        <time>2021-08-06T09:46:36.340Z</time>
      </trkpt>
      <trkpt lat="46.96436" lon="8.75386">
        <ele>1014</ele>
        <time>2021-08-06T09:46:37.340Z</time>
      </trkpt>
      <trkpt lat="46.96435" lon="8.75386">
        <ele>1014</ele>
        <time>2021-08-06T09:46:38.340Z</time>
      </trkpt>
      <trkpt lat="46.96434" lon="8.75385">
        <ele>1014</ele>
        <time>2021-08-06T09:46:39.341Z</time>
      </trkpt>
      <trkpt lat="46.96433" lon="8.75384">
        <ele>1014</ele>
        <time>2021-08-06T09:46:40.341Z</time>
      </trkpt>
      <trkpt lat="46.96432" lon="8.75383">
        <ele>1014</ele>
        <time>2021-08-06T09:46:41.340Z</time>
      </trkpt>
      <trkpt lat="46.96431" lon="8.75382">
        <ele>1015</ele>
        <time>2021-08-06T09:46:42.341Z</time>
      </trkpt>
      <trkpt lat="46.9643" lon="8.75381">
        <ele>1016</ele>
        <time>2021-08-06T09:46:43.341Z</time>
      </trkpt>
      <trkpt lat="46.9643" lon="8.7538">
        <ele>1016</ele>
        <time>2021-08-06T09:46:44.340Z</time>
      </trkpt>
      <trkpt lat="46.9643" lon="8.75378">
        <ele>1017</ele>
        <time>2021-08-06T09:46:45.341Z</time>
      </trkpt>
      <trkpt lat="46.96429" lon="8.75377">
        <ele>1018</ele>
        <time>2021-08-06T09:46:46.341Z</time>
      </trkpt>
      <trkpt lat="46.96429" lon="8.75376">
        <ele>1018</ele>
        <time>2021-08-06T09:46:47.341Z</time>
      </trkpt>
      <trkpt lat="46.96428" lon="8.75375">
        <ele>1018</ele>
        <time>2021-08-06T09:46:48.340Z</time>
      </trkpt>
      <trkpt lat="46.96428" lon="8.75374">
        <ele>1019</ele>
        <time>2021-08-06T09:46:49.340Z</time>
      </trkpt>
      <trkpt lat="46.96427" lon="8.75373">
        <ele>1019</ele>
        <time>2021-08-06T09:46:50.340Z</time>
      </trkpt>
      <trkpt lat="46.96426" lon="8.75372">
        <ele>1019</ele>
        <time>2021-08-06T09:46:51.340Z</time>
      </trkpt>
      <trkpt lat="46.96425" lon="8.75371">
        <ele>1020</ele>
        <time>2021-08-06T09:46:52.341Z</time>
      </trkpt>
      <trkpt lat="46.96425" lon="8.75371">
        <ele>1020</ele>
        <time>2021-08-06T09:46:53.340Z</time>
      </trkpt>
      <trkpt lat="46.96425" lon="8.7537">
        <ele>1021</ele>
        <time>2021-08-06T09:46:54.341Z</time>
      </trkpt>
      <trkpt lat="46.96425" lon="8.7537">
        <ele>1021</ele>
        <time>2021-08-06T09:46:55.341Z</time>
      </trkpt>
      <trkpt lat="46.96425" lon="8.7537">
        <ele>1022</ele>
        <time>2021-08-06T09:46:56.340Z</time>
      </trkpt>
      <trkpt lat="46.96422" lon="8.75368">
        <ele>1026</ele>
        <time>2021-08-06T09:46:57.342Z</time>
      </trkpt>
      <trkpt lat="46.96421" lon="8.75368">
        <ele>1026</ele>
        <time>2021-08-06T09:46:58.342Z</time>
      </trkpt>
      <trkpt lat="46.9642" lon="8.75367">
        <ele>1027</ele>
        <time>2021-08-06T09:46:59.341Z</time>
      </trkpt>
      <trkpt lat="46.96419" lon="8.75367">
        <ele>1028</ele>
        <time>2021-08-06T09:47:00.341Z</time>
      </trkpt>
      <trkpt lat="46.9642" lon="8.75365">
        <ele>1029</ele>
        <time>2021-08-06T09:47:01.342Z</time>
      </trkpt>
      <trkpt lat="46.96419" lon="8.75364">
        <ele>1029</ele>
        <time>2021-08-06T09:47:02.342Z</time>
      </trkpt>
      <trkpt lat="46.96418" lon="8.75362">
        <ele>1030</ele>
        <time>2021-08-06T09:47:03.341Z</time>
      </trkpt>
      <trkpt lat="46.96417" lon="8.75361">
        <ele>1030</ele>
        <time>2021-08-06T09:47:04.341Z</time>
      </trkpt>
      <trkpt lat="46.96417" lon="8.75359">
        <ele>1030</ele>
        <time>2021-08-06T09:47:05.342Z</time>
      </trkpt>
      <trkpt lat="46.96416" lon="8.75358">
        <ele>1031</ele>
        <time>2021-08-06T09:47:06.342Z</time>
      </trkpt>
      <trkpt lat="46.96416" lon="8.75357">
        <ele>1031</ele>
        <time>2021-08-06T09:47:07.341Z</time>
      </trkpt>
      <trkpt lat="46.96416" lon="8.75356">
        <ele>1031</ele>
        <time>2021-08-06T09:47:08.342Z</time>
      </trkpt>
      <trkpt lat="46.96416" lon="8.75356">
        <ele>1030</ele>
        <time>2021-08-06T09:47:09.341Z</time>
      </trkpt>
      <trkpt lat="46.96415" lon="8.75355">
        <ele>1030</ele>
        <time>2021-08-06T09:47:10.342Z</time>
      </trkpt>
      <trkpt lat="46.96414" lon="8.75354">
        <ele>1029</ele>
        <time>2021-08-06T09:47:11.341Z</time>
      </trkpt>
      <trkpt lat="46.96414" lon="8.75353">
        <ele>1029</ele>
        <time>2021-08-06T09:47:12.342Z</time>
      </trkpt>
      <trkpt lat="46.96414" lon="8.75351">
        <ele>1028</ele>
        <time>2021-08-06T09:47:13.342Z</time>
      </trkpt>
      <trkpt lat="46.96414" lon="8.75349">
        <ele>1028</ele>
        <time>2021-08-06T09:47:14.342Z</time>
      </trkpt>
      <trkpt lat="46.96413" lon="8.75349">
        <ele>1028</ele>
        <time>2021-08-06T09:47:15.342Z</time>
      </trkpt>
      <trkpt lat="46.96412" lon="8.75348">
        <ele>1027</ele>
        <time>2021-08-06T09:47:16.342Z</time>
      </trkpt>
      <trkpt lat="46.96412" lon="8.75347">
        <ele>1027</ele>
        <time>2021-08-06T09:47:17.341Z</time>
      </trkpt>
      <trkpt lat="46.96412" lon="8.75345">
        <ele>1027</ele>
        <time>2021-08-06T09:47:18.342Z</time>
      </trkpt>
      <trkpt lat="46.96411" lon="8.75344">
        <ele>1027</ele>
        <time>2021-08-06T09:47:19.342Z</time>
      </trkpt>
      <trkpt lat="46.9641" lon="8.75343">
        <ele>1026</ele>
        <time>2021-08-06T09:47:20.341Z</time>
      </trkpt>
      <trkpt lat="46.96409" lon="8.75343">
        <ele>1027</ele>
        <time>2021-08-06T09:47:21.342Z</time>
      </trkpt>
      <trkpt lat="46.96409" lon="8.75342">
        <ele>1027</ele>
        <time>2021-08-06T09:47:22.342Z</time>
      </trkpt>
      <trkpt lat="46.96408" lon="8.75341">
        <ele>1027</ele>
        <time>2021-08-06T09:47:23.341Z</time>
      </trkpt>
      <trkpt lat="46.96408" lon="8.75341">
        <ele>1027</ele>
        <time>2021-08-06T09:47:24.342Z</time>
      </trkpt>
      <trkpt lat="46.96408" lon="8.7534">
        <ele>1027</ele>
        <time>2021-08-06T09:47:25.341Z</time>
      </trkpt>
      <trkpt lat="46.96408" lon="8.75339">
        <ele>1027</ele>
        <time>2021-08-06T09:47:26.342Z</time>
      </trkpt>
      <trkpt lat="46.96408" lon="8.75338">
        <ele>1027</ele>
        <time>2021-08-06T09:47:27.342Z</time>
      </trkpt>
      <trkpt lat="46.96408" lon="8.75338">
        <ele>1028</ele>
        <time>2021-08-06T09:47:28.342Z</time>
      </trkpt>
      <trkpt lat="46.96408" lon="8.75337">
        <ele>1029</ele>
        <time>2021-08-06T09:47:29.342Z</time>
      </trkpt>
      <trkpt lat="46.96408" lon="8.75337">
        <ele>1030</ele>
        <time>2021-08-06T09:47:30.342Z</time>
      </trkpt>
      <trkpt lat="46.96408" lon="8.75337">
        <ele>1030</ele>
        <time>2021-08-06T09:47:31.342Z</time>
      </trkpt>
      <trkpt lat="46.96408" lon="8.75336">
        <ele>1031</ele>
        <time>2021-08-06T09:47:32.342Z</time>
      </trkpt>
      <trkpt lat="46.96407" lon="8.75335">
        <ele>1032</ele>
        <time>2021-08-06T09:47:33.341Z</time>
      </trkpt>
      <trkpt lat="46.96407" lon="8.75334">
        <ele>1033</ele>
        <time>2021-08-06T09:47:34.341Z</time>
      </trkpt>
      <trkpt lat="46.96406" lon="8.75332">
        <ele>1034</ele>
        <time>2021-08-06T09:47:35.341Z</time>
      </trkpt>
      <trkpt lat="46.96406" lon="8.75331">
        <ele>1035</ele>
        <time>2021-08-06T09:47:36.341Z</time>
      </trkpt>
      <trkpt lat="46.96405" lon="8.7533">
        <ele>1036</ele>
        <time>2021-08-06T09:47:37.341Z</time>
      </trkpt>
      <trkpt lat="46.96404" lon="8.75329">
        <ele>1037</ele>
        <time>2021-08-06T09:47:38.341Z</time>
      </trkpt>
      <trkpt lat="46.96403" lon="8.75328">
        <ele>1038</ele>
        <time>2021-08-06T09:47:39.341Z</time>
      </trkpt>
      <trkpt lat="46.96402" lon="8.75327">
        <ele>1038</ele>
        <time>2021-08-06T09:47:40.341Z</time>
      </trkpt>
      <trkpt lat="46.96401" lon="8.75326">
        <ele>1039</ele>
        <time>2021-08-06T09:47:41.342Z</time>
      </trkpt>
      <trkpt lat="46.964" lon="8.75325">
        <ele>1039</ele>
        <time>2021-08-06T09:47:42.341Z</time>
      </trkpt>
      <trkpt lat="46.964" lon="8.75325">
        <ele>1039</ele>
        <time>2021-08-06T09:47:43.342Z</time>
      </trkpt>
      <trkpt lat="46.96399" lon="8.75324">
        <ele>1039</ele>
        <time>2021-08-06T09:47:44.342Z</time>
      </trkpt>
      <trkpt lat="46.96399" lon="8.75323">
        <ele>1039</ele>
        <time>2021-08-06T09:47:45.342Z</time>
      </trkpt>
      <trkpt lat="46.96399" lon="8.75322">
        <ele>1039</ele>
        <time>2021-08-06T09:47:46.341Z</time>
      </trkpt>
      <trkpt lat="46.96399" lon="8.75321">
        <ele>1039</ele>
        <time>2021-08-06T09:47:47.341Z</time>
      </trkpt>
      <trkpt lat="46.96397" lon="8.75319">
        <ele>1039</ele>
        <time>2021-08-06T09:47:48.342Z</time>
      </trkpt>
      <trkpt lat="46.96396" lon="8.75319">
        <ele>1039</ele>
        <time>2021-08-06T09:47:49.341Z</time>
      </trkpt>
      <trkpt lat="46.96395" lon="8.75319">
        <ele>1039</ele>
        <time>2021-08-06T09:47:50.342Z</time>
      </trkpt>
      <trkpt lat="46.96394" lon="8.75317">
        <ele>1039</ele>
        <time>2021-08-06T09:47:51.341Z</time>
      </trkpt>
      <trkpt lat="46.96392" lon="8.75316">
        <ele>1039</ele>
        <time>2021-08-06T09:47:52.341Z</time>
      </trkpt>
      <trkpt lat="46.9639" lon="8.75314">
        <ele>1039</ele>
        <time>2021-08-06T09:47:53.341Z</time>
      </trkpt>
      <trkpt lat="46.96389" lon="8.75312">
        <ele>1038</ele>
        <time>2021-08-06T09:47:54.342Z</time>
      </trkpt>
      <trkpt lat="46.96387" lon="8.7531">
        <ele>1038</ele>
        <time>2021-08-06T09:47:55.341Z</time>
      </trkpt>
      <trkpt lat="46.96385" lon="8.7531">
        <ele>1038</ele>
        <time>2021-08-06T09:47:56.341Z</time>
      </trkpt>
      <trkpt lat="46.96384" lon="8.75309">
        <ele>1037</ele>
        <time>2021-08-06T09:47:57.341Z</time>
      </trkpt>
      <trkpt lat="46.96383" lon="8.75307">
        <ele>1037</ele>
        <time>2021-08-06T09:47:58.342Z</time>
      </trkpt>
      <trkpt lat="46.96382" lon="8.75306">
        <ele>1037</ele>
        <time>2021-08-06T09:47:59.341Z</time>
      </trkpt>
      <trkpt lat="46.96381" lon="8.75305">
        <ele>1037</ele>
        <time>2021-08-06T09:48:00.341Z</time>
      </trkpt>
      <trkpt lat="46.9638" lon="8.75304">
        <ele>1036</ele>
        <time>2021-08-06T09:48:01.342Z</time>
      </trkpt>
      <trkpt lat="46.9638" lon="8.75303">
        <ele>1036</ele>
        <time>2021-08-06T09:48:02.341Z</time>
      </trkpt>
      <trkpt lat="46.96379" lon="8.75302">
        <ele>1035</ele>
        <time>2021-08-06T09:48:03.342Z</time>
      </trkpt>
      <trkpt lat="46.96378" lon="8.75301">
        <ele>1034</ele>
        <time>2021-08-06T09:48:04.341Z</time>
      </trkpt>
      <trkpt lat="46.96377" lon="8.75299">
        <ele>1034</ele>
        <time>2021-08-06T09:48:05.342Z</time>
      </trkpt>
      <trkpt lat="46.96377" lon="8.75298">
        <ele>1033</ele>
        <time>2021-08-06T09:48:06.341Z</time>
      </trkpt>
      <trkpt lat="46.96377" lon="8.75296">
        <ele>1032</ele>
        <time>2021-08-06T09:48:07.341Z</time>
      </trkpt>
      <trkpt lat="46.96376" lon="8.75295">
        <ele>1032</ele>
        <time>2021-08-06T09:48:08.341Z</time>
      </trkpt>
      <trkpt lat="46.96375" lon="8.75294">
        <ele>1031</ele>
        <time>2021-08-06T09:48:09.342Z</time>
      </trkpt>
      <trkpt lat="46.96374" lon="8.75293">
        <ele>1030</ele>
        <time>2021-08-06T09:48:10.341Z</time>
      </trkpt>
      <trkpt lat="46.96373" lon="8.75292">
        <ele>1029</ele>
        <time>2021-08-06T09:48:11.341Z</time>
      </trkpt>
      <trkpt lat="46.96372" lon="8.75291">
        <ele>1029</ele>
        <time>2021-08-06T09:48:12.341Z</time>
      </trkpt>
      <trkpt lat="46.9637" lon="8.7529">
        <ele>1029</ele>
        <time>2021-08-06T09:48:13.341Z</time>
      </trkpt>
      <trkpt lat="46.96369" lon="8.75289">
        <ele>1029</ele>
        <time>2021-08-06T09:48:14.341Z</time>
      </trkpt>
      <trkpt lat="46.96369" lon="8.75288">
        <ele>1029</ele>
        <time>2021-08-06T09:48:15.342Z</time>
      </trkpt>
      <trkpt lat="46.96368" lon="8.75286">
        <ele>1029</ele>
        <time>2021-08-06T09:48:16.341Z</time>
      </trkpt>
      <trkpt lat="46.96366" lon="8.75284">
        <ele>1030</ele>
        <time>2021-08-06T09:48:17.341Z</time>
      </trkpt>
      <trkpt lat="46.96366" lon="8.75282">
        <ele>1030</ele>
        <time>2021-08-06T09:48:18.341Z</time>
      </trkpt>
      <trkpt lat="46.96365" lon="8.7528">
        <ele>1029</ele>
        <time>2021-08-06T09:48:19.341Z</time>
      </trkpt>
      <trkpt lat="46.96364" lon="8.75279">
        <ele>1029</ele>
        <time>2021-08-06T09:48:20.341Z</time>
      </trkpt>
      <trkpt lat="46.96363" lon="8.75277">
        <ele>1029</ele>
        <time>2021-08-06T09:48:21.341Z</time>
      </trkpt>
      <trkpt lat="46.96363" lon="8.75275">
        <ele>1029</ele>
        <time>2021-08-06T09:48:22.341Z</time>
      </trkpt>
      <trkpt lat="46.96363" lon="8.75273">
        <ele>1028</ele>
        <time>2021-08-06T09:48:23.342Z</time>
      </trkpt>
      <trkpt lat="46.96363" lon="8.75271">
        <ele>1028</ele>
        <time>2021-08-06T09:48:24.341Z</time>
      </trkpt>
      <trkpt lat="46.96362" lon="8.75269">
        <ele>1029</ele>
        <time>2021-08-06T09:48:25.341Z</time>
      </trkpt>
      <trkpt lat="46.96362" lon="8.75267">
        <ele>1029</ele>
        <time>2021-08-06T09:48:26.341Z</time>
      </trkpt>
      <trkpt lat="46.96362" lon="8.75266">
        <ele>1029</ele>
        <time>2021-08-06T09:48:27.341Z</time>
      </trkpt>
      <trkpt lat="46.96361" lon="8.75264">
        <ele>1029</ele>
        <time>2021-08-06T09:48:28.342Z</time>
      </trkpt>
      <trkpt lat="46.96361" lon="8.75263">
        <ele>1030</ele>
        <time>2021-08-06T09:48:29.342Z</time>
      </trkpt>
      <trkpt lat="46.96359" lon="8.75261">
        <ele>1030</ele>
        <time>2021-08-06T09:48:30.341Z</time>
      </trkpt>
      <trkpt lat="46.96357" lon="8.7526">
        <ele>1030</ele>
        <time>2021-08-06T09:48:31.341Z</time>
      </trkpt>
      <trkpt lat="46.96354" lon="8.75258">
        <ele>1031</ele>
        <time>2021-08-06T09:48:32.342Z</time>
      </trkpt>
      <trkpt lat="46.96354" lon="8.75256">
        <ele>1031</ele>
        <time>2021-08-06T09:48:33.341Z</time>
      </trkpt>
      <trkpt lat="46.96353" lon="8.75255">
        <ele>1032</ele>
        <time>2021-08-06T09:48:34.341Z</time>
      </trkpt>
      <trkpt lat="46.96353" lon="8.75253">
        <ele>1032</ele>
        <time>2021-08-06T09:48:35.341Z</time>
      </trkpt>
      <trkpt lat="46.96353" lon="8.75252">
        <ele>1033</ele>
        <time>2021-08-06T09:48:36.341Z</time>
      </trkpt>
      <trkpt lat="46.96352" lon="8.7525">
        <ele>1033</ele>
        <time>2021-08-06T09:48:37.341Z</time>
      </trkpt>
      <trkpt lat="46.96352" lon="8.75249">
        <ele>1033</ele>
        <time>2021-08-06T09:48:38.342Z</time>
      </trkpt>
      <trkpt lat="46.96351" lon="8.75248">
        <ele>1033</ele>
        <time>2021-08-06T09:48:39.341Z</time>
      </trkpt>
      <trkpt lat="46.9635" lon="8.75247">
        <ele>1032</ele>
        <time>2021-08-06T09:48:40.341Z</time>
      </trkpt>
      <trkpt lat="46.9635" lon="8.75245">
        <ele>1032</ele>
        <time>2021-08-06T09:48:41.342Z</time>
      </trkpt>
      <trkpt lat="46.9635" lon="8.75243">
        <ele>1032</ele>
        <time>2021-08-06T09:48:42.341Z</time>
      </trkpt>
      <trkpt lat="46.96349" lon="8.75242">
        <ele>1032</ele>
        <time>2021-08-06T09:48:43.341Z</time>
      </trkpt>
      <trkpt lat="46.96349" lon="8.7524">
        <ele>1032</ele>
        <time>2021-08-06T09:48:44.341Z</time>
      </trkpt>
      <trkpt lat="46.96349" lon="8.75238">
        <ele>1032</ele>
        <time>2021-08-06T09:48:45.341Z</time>
      </trkpt>
      <trkpt lat="46.96348" lon="8.75237">
        <ele>1032</ele>
        <time>2021-08-06T09:48:46.341Z</time>
      </trkpt>
      <trkpt lat="46.96348" lon="8.75236">
        <ele>1032</ele>
        <time>2021-08-06T09:48:47.341Z</time>
      </trkpt>
      <trkpt lat="46.96348" lon="8.75234">
        <ele>1032</ele>
        <time>2021-08-06T09:48:48.341Z</time>
      </trkpt>
      <trkpt lat="46.96347" lon="8.75232">
        <ele>1032</ele>
        <time>2021-08-06T09:48:49.341Z</time>
      </trkpt>
      <trkpt lat="46.96347" lon="8.75231">
        <ele>1032</ele>
        <time>2021-08-06T09:48:50.341Z</time>
      </trkpt>
      <trkpt lat="46.96346" lon="8.75229">
        <ele>1032</ele>
        <time>2021-08-06T09:48:51.341Z</time>
      </trkpt>
      <trkpt lat="46.96346" lon="8.75227">
        <ele>1032</ele>
        <time>2021-08-06T09:48:52.341Z</time>
      </trkpt>
      <trkpt lat="46.96346" lon="8.75226">
        <ele>1033</ele>
        <time>2021-08-06T09:48:53.342Z</time>
      </trkpt>
      <trkpt lat="46.96346" lon="8.75223">
        <ele>1033</ele>
        <time>2021-08-06T09:48:54.341Z</time>
      </trkpt>
      <trkpt lat="46.96346" lon="8.75221">
        <ele>1033</ele>
        <time>2021-08-06T09:48:55.341Z</time>
      </trkpt>
      <trkpt lat="46.96345" lon="8.75218">
        <ele>1033</ele>
        <time>2021-08-06T09:48:56.341Z</time>
      </trkpt>
      <trkpt lat="46.96343" lon="8.75217">
        <ele>1034</ele>
        <time>2021-08-06T09:48:57.341Z</time>
      </trkpt>
      <trkpt lat="46.96341" lon="8.75215">
        <ele>1034</ele>
        <time>2021-08-06T09:48:58.341Z</time>
      </trkpt>
      <trkpt lat="46.9634" lon="8.75213">
        <ele>1034</ele>
        <time>2021-08-06T09:48:59.341Z</time>
      </trkpt>
      <trkpt lat="46.9634" lon="8.75212">
        <ele>1035</ele>
        <time>2021-08-06T09:49:00.341Z</time>
      </trkpt>
      <trkpt lat="46.96339" lon="8.75211">
        <ele>1035</ele>
        <time>2021-08-06T09:49:01.342Z</time>
      </trkpt>
      <trkpt lat="46.96338" lon="8.7521">
        <ele>1035</ele>
        <time>2021-08-06T09:49:02.341Z</time>
      </trkpt>
      <trkpt lat="46.96338" lon="8.75208">
        <ele>1036</ele>
        <time>2021-08-06T09:49:03.341Z</time>
      </trkpt>
      <trkpt lat="46.96337" lon="8.75207">
        <ele>1036</ele>
        <time>2021-08-06T09:49:04.341Z</time>
      </trkpt>
      <trkpt lat="46.96336" lon="8.75205">
        <ele>1036</ele>
        <time>2021-08-06T09:49:05.341Z</time>
      </trkpt>
      <trkpt lat="46.96335" lon="8.75204">
        <ele>1036</ele>
        <time>2021-08-06T09:49:06.341Z</time>
      </trkpt>
      <trkpt lat="46.96334" lon="8.75203">
        <ele>1036</ele>
        <time>2021-08-06T09:49:07.341Z</time>
      </trkpt>
      <trkpt lat="46.96334" lon="8.75201">
        <ele>1036</ele>
        <time>2021-08-06T09:49:08.341Z</time>
      </trkpt>
      <trkpt lat="46.96333" lon="8.752">
        <ele>1036</ele>
        <time>2021-08-06T09:49:09.342Z</time>
      </trkpt>
      <trkpt lat="46.96332" lon="8.75198">
        <ele>1036</ele>
        <time>2021-08-06T09:49:10.341Z</time>
      </trkpt>
      <trkpt lat="46.96331" lon="8.75197">
        <ele>1036</ele>
        <time>2021-08-06T09:49:11.341Z</time>
      </trkpt>
      <trkpt lat="46.96331" lon="8.75196">
        <ele>1036</ele>
        <time>2021-08-06T09:49:12.341Z</time>
      </trkpt>
      <trkpt lat="46.96331" lon="8.75194">
        <ele>1036</ele>
        <time>2021-08-06T09:49:13.342Z</time>
      </trkpt>
      <trkpt lat="46.96332" lon="8.75193">
        <ele>1036</ele>
        <time>2021-08-06T09:49:14.342Z</time>
      </trkpt>
      <trkpt lat="46.96332" lon="8.75191">
        <ele>1036</ele>
        <time>2021-08-06T09:49:15.342Z</time>
      </trkpt>
      <trkpt lat="46.96332" lon="8.7519">
        <ele>1036</ele>
        <time>2021-08-06T09:49:16.341Z</time>
      </trkpt>
      <trkpt lat="46.96331" lon="8.75188">
        <ele>1035</ele>
        <time>2021-08-06T09:49:17.341Z</time>
      </trkpt>
      <trkpt lat="46.96331" lon="8.75187">
        <ele>1035</ele>
        <time>2021-08-06T09:49:18.341Z</time>
      </trkpt>
      <trkpt lat="46.9633" lon="8.75185">
        <ele>1036</ele>
        <time>2021-08-06T09:49:19.341Z</time>
      </trkpt>
      <trkpt lat="46.96329" lon="8.75184">
        <ele>1036</ele>
        <time>2021-08-06T09:49:20.342Z</time>
      </trkpt>
      <trkpt lat="46.96329" lon="8.75182">
        <ele>1036</ele>
        <time>2021-08-06T09:49:21.341Z</time>
      </trkpt>
      <trkpt lat="46.96328" lon="8.7518">
        <ele>1035</ele>
        <time>2021-08-06T09:49:22.342Z</time>
      </trkpt>
      <trkpt lat="46.96328" lon="8.75179">
        <ele>1035</ele>
        <time>2021-08-06T09:49:23.341Z</time>
      </trkpt>
      <trkpt lat="46.96327" lon="8.75178">
        <ele>1035</ele>
        <time>2021-08-06T09:49:24.341Z</time>
      </trkpt>
      <trkpt lat="46.96327" lon="8.75176">
        <ele>1035</ele>
        <time>2021-08-06T09:49:25.341Z</time>
      </trkpt>
      <trkpt lat="46.96325" lon="8.75175">
        <ele>1035</ele>
        <time>2021-08-06T09:49:26.342Z</time>
      </trkpt>
      <trkpt lat="46.96326" lon="8.75173">
        <ele>1035</ele>
        <time>2021-08-06T09:49:27.342Z</time>
      </trkpt>
      <trkpt lat="46.96324" lon="8.75172">
        <ele>1035</ele>
        <time>2021-08-06T09:49:28.342Z</time>
      </trkpt>
      <trkpt lat="46.96324" lon="8.7517">
        <ele>1035</ele>
        <time>2021-08-06T09:49:29.341Z</time>
      </trkpt>
      <trkpt lat="46.96323" lon="8.75169">
        <ele>1035</ele>
        <time>2021-08-06T09:49:30.342Z</time>
      </trkpt>
      <trkpt lat="46.96323" lon="8.75167">
        <ele>1036</ele>
        <time>2021-08-06T09:49:31.341Z</time>
      </trkpt>
      <trkpt lat="46.96322" lon="8.75165">
        <ele>1036</ele>
        <time>2021-08-06T09:49:32.341Z</time>
      </trkpt>
      <trkpt lat="46.96322" lon="8.75163">
        <ele>1036</ele>
        <time>2021-08-06T09:49:33.341Z</time>
      </trkpt>
      <trkpt lat="46.96322" lon="8.75162">
        <ele>1036</ele>
        <time>2021-08-06T09:49:34.341Z</time>
      </trkpt>
      <trkpt lat="46.96321" lon="8.7516">
        <ele>1036</ele>
        <time>2021-08-06T09:49:35.341Z</time>
      </trkpt>
      <trkpt lat="46.96321" lon="8.75159">
        <ele>1036</ele>
        <time>2021-08-06T09:49:36.341Z</time>
      </trkpt>
      <trkpt lat="46.9632" lon="8.75157">
        <ele>1036</ele>
        <time>2021-08-06T09:49:37.341Z</time>
      </trkpt>
      <trkpt lat="46.9632" lon="8.75156">
        <ele>1037</ele>
        <time>2021-08-06T09:49:38.341Z</time>
      </trkpt>
      <trkpt lat="46.9632" lon="8.75154">
        <ele>1037</ele>
        <time>2021-08-06T09:49:39.341Z</time>
      </trkpt>
      <trkpt lat="46.96319" lon="8.75152">
        <ele>1037</ele>
        <time>2021-08-06T09:49:40.341Z</time>
      </trkpt>
      <trkpt lat="46.96318" lon="8.75151">
        <ele>1037</ele>
        <time>2021-08-06T09:49:41.341Z</time>
      </trkpt>
      <trkpt lat="46.96318" lon="8.7515">
        <ele>1037</ele>
        <time>2021-08-06T09:49:42.342Z</time>
      </trkpt>
      <trkpt lat="46.96317" lon="8.75149">
        <ele>1037</ele>
        <time>2021-08-06T09:49:43.341Z</time>
      </trkpt>
      <trkpt lat="46.96317" lon="8.75147">
        <ele>1037</ele>
        <time>2021-08-06T09:49:44.341Z</time>
      </trkpt>
      <trkpt lat="46.96316" lon="8.75146">
        <ele>1037</ele>
        <time>2021-08-06T09:49:45.341Z</time>
      </trkpt>
      <trkpt lat="46.96316" lon="8.75145">
        <ele>1037</ele>
        <time>2021-08-06T09:49:46.341Z</time>
      </trkpt>
      <trkpt lat="46.96315" lon="8.75143">
        <ele>1037</ele>
        <time>2021-08-06T09:49:47.341Z</time>
      </trkpt>
      <trkpt lat="46.96314" lon="8.75142">
        <ele>1037</ele>
        <time>2021-08-06T09:49:48.341Z</time>
      </trkpt>
      <trkpt lat="46.96312" lon="8.75141">
        <ele>1037</ele>
        <time>2021-08-06T09:49:49.341Z</time>
      </trkpt>
      <trkpt lat="46.96311" lon="8.75141">
        <ele>1037</ele>
        <time>2021-08-06T09:49:50.342Z</time>
      </trkpt>
      <trkpt lat="46.9631" lon="8.7514">
        <ele>1037</ele>
        <time>2021-08-06T09:49:51.341Z</time>
      </trkpt>
      <trkpt lat="46.96309" lon="8.75139">
        <ele>1037</ele>
        <time>2021-08-06T09:49:52.341Z</time>
      </trkpt>
      <trkpt lat="46.96307" lon="8.75138">
        <ele>1036</ele>
        <time>2021-08-06T09:49:53.341Z</time>
      </trkpt>
      <trkpt lat="46.96306" lon="8.75138">
        <ele>1036</ele>
        <time>2021-08-06T09:49:54.341Z</time>
      </trkpt>
      <trkpt lat="46.96306" lon="8.75137">
        <ele>1037</ele>
        <time>2021-08-06T09:49:55.341Z</time>
      </trkpt>
      <trkpt lat="46.96306" lon="8.75136">
        <ele>1037</ele>
        <time>2021-08-06T09:49:56.341Z</time>
      </trkpt>
      <trkpt lat="46.96306" lon="8.75134">
        <ele>1038</ele>
        <time>2021-08-06T09:49:57.341Z</time>
      </trkpt>
      <trkpt lat="46.96306" lon="8.75134">
        <ele>1038</ele>
        <time>2021-08-06T09:49:58.342Z</time>
      </trkpt>
      <trkpt lat="46.96306" lon="8.75134">
        <ele>1038</ele>
        <time>2021-08-06T09:49:59.342Z</time>
      </trkpt>
      <trkpt lat="46.96306" lon="8.75135">
        <ele>1040</ele>
        <time>2021-08-06T09:50:00.343Z</time>
      </trkpt>
      <trkpt lat="46.96306" lon="8.75134">
        <ele>1041</ele>
        <time>2021-08-06T09:50:01.342Z</time>
      </trkpt>
      <trkpt lat="46.96306" lon="8.75134">
        <ele>1041</ele>
        <time>2021-08-06T09:50:02.343Z</time>
      </trkpt>
      <trkpt lat="46.96306" lon="8.75134">
        <ele>1042</ele>
        <time>2021-08-06T09:50:03.342Z</time>
      </trkpt>
      <trkpt lat="46.96306" lon="8.75134">
        <ele>1043</ele>
        <time>2021-08-06T09:50:04.343Z</time>
      </trkpt>
      <trkpt lat="46.96306" lon="8.75134">
        <ele>1044</ele>
        <time>2021-08-06T09:50:05.343Z</time>
      </trkpt>
      <trkpt lat="46.96307" lon="8.75134">
        <ele>1045</ele>
        <time>2021-08-06T09:50:06.343Z</time>
      </trkpt>
      <trkpt lat="46.96308" lon="8.75133">
        <ele>1046</ele>
        <time>2021-08-06T09:50:07.343Z</time>
      </trkpt>
      <trkpt lat="46.96308" lon="8.75132">
        <ele>1051</ele>
        <time>2021-08-06T09:50:08.345Z</time>
      </trkpt>
      <trkpt lat="46.96309" lon="8.75132">
        <ele>1052</ele>
        <time>2021-08-06T09:50:09.344Z</time>
      </trkpt>
      <trkpt lat="46.96309" lon="8.75132">
        <ele>1052</ele>
        <time>2021-08-06T09:50:10.344Z</time>
      </trkpt>
      <trkpt lat="46.96309" lon="8.75132">
        <ele>1053</ele>
        <time>2021-08-06T09:50:11.345Z</time>
      </trkpt>
      <trkpt lat="46.96309" lon="8.75132">
        <ele>1053</ele>
        <time>2021-08-06T09:50:12.345Z</time>
      </trkpt>
      <trkpt lat="46.96309" lon="8.75132">
        <ele>1053</ele>
        <time>2021-08-06T09:50:13.345Z</time>
      </trkpt>
      <trkpt lat="46.96309" lon="8.75131">
        <ele>1053</ele>
        <time>2021-08-06T09:50:14.345Z</time>
      </trkpt>
      <trkpt lat="46.96306" lon="8.75133">
        <ele>1052</ele>
        <time>2021-08-06T09:50:15.346Z</time>
      </trkpt>
      <trkpt lat="46.96306" lon="8.75133">
        <ele>1051</ele>
        <time>2021-08-06T09:50:16.346Z</time>
      </trkpt>
      <trkpt lat="46.96305" lon="8.75132">
        <ele>1051</ele>
        <time>2021-08-06T09:50:17.345Z</time>
      </trkpt>
      <trkpt lat="46.96305" lon="8.75132">
        <ele>1051</ele>
        <time>2021-08-06T09:50:18.346Z</time>
      </trkpt>
      <trkpt lat="46.96304" lon="8.75132">
        <ele>1051</ele>
        <time>2021-08-06T09:50:19.346Z</time>
      </trkpt>
      <trkpt lat="46.96304" lon="8.75131">
        <ele>1052</ele>
        <time>2021-08-06T09:50:20.346Z</time>
      </trkpt>
      <trkpt lat="46.96306" lon="8.7513">
        <ele>1055</ele>
        <time>2021-08-06T09:50:21.348Z</time>
      </trkpt>
      <trkpt lat="46.96306" lon="8.7513">
        <ele>1056</ele>
        <time>2021-08-06T09:50:22.348Z</time>
      </trkpt>
      <trkpt lat="46.96306" lon="8.7513">
        <ele>1056</ele>
        <time>2021-08-06T09:50:23.347Z</time>
      </trkpt>
      <trkpt lat="46.96306" lon="8.7513">
        <ele>1056</ele>
        <time>2021-08-06T09:50:24.349Z</time>
      </trkpt>
      <trkpt lat="46.96305" lon="8.7513">
        <ele>1056</ele>
        <time>2021-08-06T09:50:25.348Z</time>
      </trkpt>
      <trkpt lat="46.96304" lon="8.7513">
        <ele>1056</ele>
        <time>2021-08-06T09:50:26.348Z</time>
      </trkpt>
      <trkpt lat="46.96304" lon="8.7513">
        <ele>1056</ele>
        <time>2021-08-06T09:50:27.349Z</time>
      </trkpt>
      <trkpt lat="46.96304" lon="8.7513">
        <ele>1055</ele>
        <time>2021-08-06T09:50:28.348Z</time>
      </trkpt>
      <trkpt lat="46.96306" lon="8.75131">
        <ele>1053</ele>
        <time>2021-08-06T09:50:29.350Z</time>
      </trkpt>
      <trkpt lat="46.96306" lon="8.75131">
        <ele>1052</ele>
        <time>2021-08-06T09:50:30.350Z</time>
      </trkpt>
      <trkpt lat="46.96306" lon="8.75131">
        <ele>1052</ele>
        <time>2021-08-06T09:50:31.350Z</time>
      </trkpt>
      <trkpt lat="46.96307" lon="8.75132">
        <ele>1051</ele>
        <time>2021-08-06T09:50:32.350Z</time>
      </trkpt>
      <trkpt lat="46.96307" lon="8.75132">
        <ele>1051</ele>
        <time>2021-08-06T09:50:33.349Z</time>
      </trkpt>
      <trkpt lat="46.96308" lon="8.75132">
        <ele>1050</ele>
        <time>2021-08-06T09:50:34.349Z</time>
      </trkpt>
      <trkpt lat="46.96308" lon="8.75132">
        <ele>1050</ele>
        <time>2021-08-06T09:50:35.349Z</time>
      </trkpt>
      <trkpt lat="46.96308" lon="8.75133">
        <ele>1050</ele>
        <time>2021-08-06T09:50:36.349Z</time>
      </trkpt>
      <trkpt lat="46.96308" lon="8.75133">
        <ele>1049</ele>
        <time>2021-08-06T09:50:37.349Z</time>
      </trkpt>
      <trkpt lat="46.96303" lon="8.75134">
        <ele>1045</ele>
        <time>2021-08-06T09:50:38.349Z</time>
      </trkpt>
      <trkpt lat="46.96304" lon="8.75134">
        <ele>1045</ele>
        <time>2021-08-06T09:50:39.350Z</time>
      </trkpt>
      <trkpt lat="46.96305" lon="8.75133">
        <ele>1045</ele>
        <time>2021-08-06T09:50:40.350Z</time>
      </trkpt>
      <trkpt lat="46.96308" lon="8.75134">
        <ele>1044</ele>
        <time>2021-08-06T09:50:41.350Z</time>
      </trkpt>
      <trkpt lat="46.96308" lon="8.75137">
        <ele>1045</ele>
        <time>2021-08-06T09:50:42.351Z</time>
      </trkpt>
      <trkpt lat="46.96307" lon="8.75137">
        <ele>1045</ele>
        <time>2021-08-06T09:50:43.351Z</time>
      </trkpt>
      <trkpt lat="46.96308" lon="8.75137">
        <ele>1044</ele>
        <time>2021-08-06T09:50:44.352Z</time>
      </trkpt>
      <trkpt lat="46.96308" lon="8.75137">
        <ele>1044</ele>
        <time>2021-08-06T09:50:45.352Z</time>
      </trkpt>
      <trkpt lat="46.96309" lon="8.75137">
        <ele>1044</ele>
        <time>2021-08-06T09:50:46.351Z</time>
      </trkpt>
      <trkpt lat="46.96308" lon="8.75134">
        <ele>1045</ele>
        <time>2021-08-06T09:50:47.353Z</time>
      </trkpt>
      <trkpt lat="46.96308" lon="8.75135">
        <ele>1045</ele>
        <time>2021-08-06T09:50:48.353Z</time>
      </trkpt>
      <trkpt lat="46.96308" lon="8.75135">
        <ele>1045</ele>
        <time>2021-08-06T09:50:49.353Z</time>
      </trkpt>
      <trkpt lat="46.96308" lon="8.75135">
        <ele>1045</ele>
        <time>2021-08-06T09:50:50.352Z</time>
      </trkpt>
      <trkpt lat="46.96307" lon="8.75135">
        <ele>1044</ele>
        <time>2021-08-06T09:50:51.353Z</time>
      </trkpt>
      <trkpt lat="46.96306" lon="8.75135">
        <ele>1043</ele>
        <time>2021-08-06T09:50:52.352Z</time>
      </trkpt>
      <trkpt lat="46.96305" lon="8.75135">
        <ele>1042</ele>
        <time>2021-08-06T09:50:53.352Z</time>
      </trkpt>
      <trkpt lat="46.96305" lon="8.75135">
        <ele>1041</ele>
        <time>2021-08-06T09:50:54.352Z</time>
      </trkpt>
      <trkpt lat="46.96304" lon="8.75135">
        <ele>1041</ele>
        <time>2021-08-06T09:50:55.353Z</time>
      </trkpt>
      <trkpt lat="46.96305" lon="8.75135">
        <ele>1040</ele>
        <time>2021-08-06T09:50:56.353Z</time>
      </trkpt>
      <trkpt lat="46.96305" lon="8.75136">
        <ele>1039</ele>
        <time>2021-08-06T09:50:57.353Z</time>
      </trkpt>
      <trkpt lat="46.96306" lon="8.75135">
        <ele>1039</ele>
        <time>2021-08-06T09:50:58.352Z</time>
      </trkpt>
      <trkpt lat="46.96304" lon="8.75138">
        <ele>1026</ele>
        <time>2021-08-06T09:50:59.352Z</time>
      </trkpt>
      <trkpt lat="46.96304" lon="8.75138">
        <ele>1026</ele>
        <time>2021-08-06T09:51:00.352Z</time>
      </trkpt>
      <trkpt lat="46.96306" lon="8.75135">
        <ele>1027</ele>
        <time>2021-08-06T09:51:01.353Z</time>
      </trkpt>
      <trkpt lat="46.96305" lon="8.75135">
        <ele>1028</ele>
        <time>2021-08-06T09:51:02.353Z</time>
      </trkpt>
      <trkpt lat="46.96305" lon="8.75136">
        <ele>1032</ele>
        <time>2021-08-06T09:51:03.353Z</time>
      </trkpt>
      <trkpt lat="46.96305" lon="8.75136">
        <ele>1032</ele>
        <time>2021-08-06T09:51:04.353Z</time>
      </trkpt>
      <trkpt lat="46.96304" lon="8.75135">
        <ele>1033</ele>
        <time>2021-08-06T09:51:05.353Z</time>
      </trkpt>
      <trkpt lat="46.96303" lon="8.75135">
        <ele>1034</ele>
        <time>2021-08-06T09:51:06.352Z</time>
      </trkpt>
      <trkpt lat="46.96302" lon="8.75135">
        <ele>1034</ele>
        <time>2021-08-06T09:51:07.352Z</time>
      </trkpt>
      <trkpt lat="46.96301" lon="8.75135">
        <ele>1035</ele>
        <time>2021-08-06T09:51:08.353Z</time>
      </trkpt>
      <trkpt lat="46.96301" lon="8.75135">
        <ele>1035</ele>
        <time>2021-08-06T09:51:09.353Z</time>
      </trkpt>
      <trkpt lat="46.96301" lon="8.75135">
        <ele>1035</ele>
        <time>2021-08-06T09:51:10.352Z</time>
      </trkpt>
      <trkpt lat="46.96301" lon="8.75135">
        <ele>1036</ele>
        <time>2021-08-06T09:51:11.352Z</time>
      </trkpt>
      <trkpt lat="46.963" lon="8.75135">
        <ele>1036</ele>
        <time>2021-08-06T09:51:12.353Z</time>
      </trkpt>
      <trkpt lat="46.963" lon="8.75134">
        <ele>1037</ele>
        <time>2021-08-06T09:51:13.353Z</time>
      </trkpt>
      <trkpt lat="46.96299" lon="8.75134">
        <ele>1038</ele>
        <time>2021-08-06T09:51:14.353Z</time>
      </trkpt>
      <trkpt lat="46.96299" lon="8.75133">
        <ele>1038</ele>
        <time>2021-08-06T09:51:15.353Z</time>
      </trkpt>
      <trkpt lat="46.96298" lon="8.75133">
        <ele>1039</ele>
        <time>2021-08-06T09:51:16.352Z</time>
      </trkpt>
      <trkpt lat="46.96297" lon="8.75132">
        <ele>1040</ele>
        <time>2021-08-06T09:51:17.353Z</time>
      </trkpt>
      <trkpt lat="46.96296" lon="8.75131">
        <ele>1040</ele>
        <time>2021-08-06T09:51:18.353Z</time>
      </trkpt>
      <trkpt lat="46.96295" lon="8.75131">
        <ele>1041</ele>
        <time>2021-08-06T09:51:19.353Z</time>
      </trkpt>
      <trkpt lat="46.96295" lon="8.75131">
        <ele>1042</ele>
        <time>2021-08-06T09:51:20.353Z</time>
      </trkpt>
      <trkpt lat="46.96294" lon="8.7513">
        <ele>1042</ele>
        <time>2021-08-06T09:51:21.353Z</time>
      </trkpt>
      <trkpt lat="46.96294" lon="8.7513">
        <ele>1043</ele>
        <time>2021-08-06T09:51:22.352Z</time>
      </trkpt>
      <trkpt lat="46.96295" lon="8.75129">
        <ele>1044</ele>
        <time>2021-08-06T09:51:23.352Z</time>
      </trkpt>
      <trkpt lat="46.96294" lon="8.75129">
        <ele>1044</ele>
        <time>2021-08-06T09:51:24.352Z</time>
      </trkpt>
      <trkpt lat="46.96294" lon="8.75128">
        <ele>1045</ele>
        <time>2021-08-06T09:51:25.353Z</time>
      </trkpt>
      <trkpt lat="46.96293" lon="8.75128">
        <ele>1045</ele>
        <time>2021-08-06T09:51:26.353Z</time>
      </trkpt>
      <trkpt lat="46.96293" lon="8.75127">
        <ele>1045</ele>
        <time>2021-08-06T09:51:27.352Z</time>
      </trkpt>
      <trkpt lat="46.96292" lon="8.75125">
        <ele>1045</ele>
        <time>2021-08-06T09:51:28.353Z</time>
      </trkpt>
      <trkpt lat="46.96292" lon="8.75124">
        <ele>1045</ele>
        <time>2021-08-06T09:51:29.353Z</time>
      </trkpt>
      <trkpt lat="46.96291" lon="8.75123">
        <ele>1045</ele>
        <time>2021-08-06T09:51:30.352Z</time>
      </trkpt>
      <trkpt lat="46.9629" lon="8.75123">
        <ele>1045</ele>
        <time>2021-08-06T09:51:31.353Z</time>
      </trkpt>
      <trkpt lat="46.9629" lon="8.75122">
        <ele>1045</ele>
        <time>2021-08-06T09:51:32.353Z</time>
      </trkpt>
      <trkpt lat="46.9629" lon="8.75121">
        <ele>1044</ele>
        <time>2021-08-06T09:51:33.353Z</time>
      </trkpt>
      <trkpt lat="46.9629" lon="8.7512">
        <ele>1044</ele>
        <time>2021-08-06T09:51:34.352Z</time>
      </trkpt>
      <trkpt lat="46.9629" lon="8.75119">
        <ele>1044</ele>
        <time>2021-08-06T09:51:35.353Z</time>
      </trkpt>
      <trkpt lat="46.9629" lon="8.75118">
        <ele>1043</ele>
        <time>2021-08-06T09:51:36.352Z</time>
      </trkpt>
      <trkpt lat="46.96289" lon="8.75117">
        <ele>1043</ele>
        <time>2021-08-06T09:51:37.352Z</time>
      </trkpt>
      <trkpt lat="46.96288" lon="8.75117">
        <ele>1043</ele>
        <time>2021-08-06T09:51:38.353Z</time>
      </trkpt>
      <trkpt lat="46.96287" lon="8.75116">
        <ele>1044</ele>
        <time>2021-08-06T09:51:39.352Z</time>
      </trkpt>
      <trkpt lat="46.96286" lon="8.75115">
        <ele>1044</ele>
        <time>2021-08-06T09:51:40.353Z</time>
      </trkpt>
      <trkpt lat="46.96284" lon="8.75114">
        <ele>1044</ele>
        <time>2021-08-06T09:51:41.352Z</time>
      </trkpt>
      <trkpt lat="46.96283" lon="8.75114">
        <ele>1045</ele>
        <time>2021-08-06T09:51:42.353Z</time>
      </trkpt>
      <trkpt lat="46.96282" lon="8.75113">
        <ele>1046</ele>
        <time>2021-08-06T09:51:43.352Z</time>
      </trkpt>
      <trkpt lat="46.96282" lon="8.75112">
        <ele>1046</ele>
        <time>2021-08-06T09:51:44.352Z</time>
      </trkpt>
      <trkpt lat="46.96281" lon="8.75112">
        <ele>1047</ele>
        <time>2021-08-06T09:51:45.353Z</time>
      </trkpt>
      <trkpt lat="46.96281" lon="8.75112">
        <ele>1048</ele>
        <time>2021-08-06T09:51:46.353Z</time>
      </trkpt>
      <trkpt lat="46.96281" lon="8.75112">
        <ele>1048</ele>
        <time>2021-08-06T09:51:47.353Z</time>
      </trkpt>
      <trkpt lat="46.9628" lon="8.75111">
        <ele>1049</ele>
        <time>2021-08-06T09:51:48.353Z</time>
      </trkpt>
      <trkpt lat="46.9628" lon="8.7511">
        <ele>1050</ele>
        <time>2021-08-06T09:51:49.352Z</time>
      </trkpt>
      <trkpt lat="46.96279" lon="8.75109">
        <ele>1050</ele>
        <time>2021-08-06T09:51:50.352Z</time>
      </trkpt>
      <trkpt lat="46.96278" lon="8.75108">
        <ele>1051</ele>
        <time>2021-08-06T09:51:51.352Z</time>
      </trkpt>
      <trkpt lat="46.96278" lon="8.75107">
        <ele>1050</ele>
        <time>2021-08-06T09:51:52.353Z</time>
      </trkpt>
      <trkpt lat="46.96278" lon="8.75106">
        <ele>1050</ele>
        <time>2021-08-06T09:51:53.353Z</time>
      </trkpt>
      <trkpt lat="46.96278" lon="8.75105">
        <ele>1050</ele>
        <time>2021-08-06T09:51:54.353Z</time>
      </trkpt>
      <trkpt lat="46.96278" lon="8.75105">
        <ele>1050</ele>
        <time>2021-08-06T09:51:55.353Z</time>
      </trkpt>
      <trkpt lat="46.96277" lon="8.75104">
        <ele>1050</ele>
        <time>2021-08-06T09:51:56.353Z</time>
      </trkpt>
      <trkpt lat="46.96277" lon="8.75103">
        <ele>1050</ele>
        <time>2021-08-06T09:51:57.353Z</time>
      </trkpt>
      <trkpt lat="46.96277" lon="8.75103">
        <ele>1050</ele>
        <time>2021-08-06T09:51:58.353Z</time>
      </trkpt>
      <trkpt lat="46.96278" lon="8.75101">
        <ele>1050</ele>
        <time>2021-08-06T09:51:59.352Z</time>
      </trkpt>
      <trkpt lat="46.96279" lon="8.75099">
        <ele>1050</ele>
        <time>2021-08-06T09:52:00.353Z</time>
      </trkpt>
      <trkpt lat="46.96279" lon="8.75098">
        <ele>1050</ele>
        <time>2021-08-06T09:52:01.353Z</time>
      </trkpt>
      <trkpt lat="46.9628" lon="8.75097">
        <ele>1050</ele>
        <time>2021-08-06T09:52:02.352Z</time>
      </trkpt>
      <trkpt lat="46.9628" lon="8.75096">
        <ele>1049</ele>
        <time>2021-08-06T09:52:03.352Z</time>
      </trkpt>
      <trkpt lat="46.9628" lon="8.75095">
        <ele>1049</ele>
        <time>2021-08-06T09:52:04.352Z</time>
      </trkpt>
      <trkpt lat="46.96281" lon="8.75094">
        <ele>1049</ele>
        <time>2021-08-06T09:52:05.353Z</time>
      </trkpt>
      <trkpt lat="46.96281" lon="8.75093">
        <ele>1049</ele>
        <time>2021-08-06T09:52:06.352Z</time>
      </trkpt>
      <trkpt lat="46.96281" lon="8.75092">
        <ele>1048</ele>
        <time>2021-08-06T09:52:07.352Z</time>
      </trkpt>
      <trkpt lat="46.9628" lon="8.75091">
        <ele>1048</ele>
        <time>2021-08-06T09:52:08.353Z</time>
      </trkpt>
      <trkpt lat="46.96279" lon="8.7509">
        <ele>1047</ele>
        <time>2021-08-06T09:52:09.352Z</time>
      </trkpt>
      <trkpt lat="46.96278" lon="8.7509">
        <ele>1046</ele>
        <time>2021-08-06T09:52:10.352Z</time>
      </trkpt>
      <trkpt lat="46.96278" lon="8.75089">
        <ele>1045</ele>
        <time>2021-08-06T09:52:11.352Z</time>
      </trkpt>
      <trkpt lat="46.96277" lon="8.75089">
        <ele>1044</ele>
        <time>2021-08-06T09:52:12.352Z</time>
      </trkpt>
      <trkpt lat="46.96276" lon="8.75088">
        <ele>1044</ele>
        <time>2021-08-06T09:52:13.352Z</time>
      </trkpt>
      <trkpt lat="46.96275" lon="8.75088">
        <ele>1043</ele>
        <time>2021-08-06T09:52:14.352Z</time>
      </trkpt>
      <trkpt lat="46.96275" lon="8.75087">
        <ele>1043</ele>
        <time>2021-08-06T09:52:15.352Z</time>
      </trkpt>
      <trkpt lat="46.96274" lon="8.75086">
        <ele>1043</ele>
        <time>2021-08-06T09:52:16.352Z</time>
      </trkpt>
      <trkpt lat="46.96273" lon="8.75086">
        <ele>1042</ele>
        <time>2021-08-06T09:52:17.353Z</time>
      </trkpt>
      <trkpt lat="46.96271" lon="8.75086">
        <ele>1042</ele>
        <time>2021-08-06T09:52:18.352Z</time>
      </trkpt>
      <trkpt lat="46.9627" lon="8.75085">
        <ele>1041</ele>
        <time>2021-08-06T09:52:19.352Z</time>
      </trkpt>
      <trkpt lat="46.96269" lon="8.75085">
        <ele>1041</ele>
        <time>2021-08-06T09:52:20.352Z</time>
      </trkpt>
      <trkpt lat="46.96269" lon="8.75083">
        <ele>1041</ele>
        <time>2021-08-06T09:52:21.352Z</time>
      </trkpt>
      <trkpt lat="46.9627" lon="8.75082">
        <ele>1041</ele>
        <time>2021-08-06T09:52:22.352Z</time>
      </trkpt>
      <trkpt lat="46.9627" lon="8.75081">
        <ele>1041</ele>
        <time>2021-08-06T09:52:23.352Z</time>
      </trkpt>
      <trkpt lat="46.9627" lon="8.75079">
        <ele>1042</ele>
        <time>2021-08-06T09:52:24.352Z</time>
      </trkpt>
      <trkpt lat="46.9627" lon="8.75079">
        <ele>1043</ele>
        <time>2021-08-06T09:52:25.352Z</time>
      </trkpt>
      <trkpt lat="46.9627" lon="8.75078">
        <ele>1043</ele>
        <time>2021-08-06T09:52:26.352Z</time>
      </trkpt>
      <trkpt lat="46.96269" lon="8.75077">
        <ele>1044</ele>
        <time>2021-08-06T09:52:27.352Z</time>
      </trkpt>
      <trkpt lat="46.96269" lon="8.75077">
        <ele>1045</ele>
        <time>2021-08-06T09:52:28.352Z</time>
      </trkpt>
      <trkpt lat="46.96269" lon="8.75076">
        <ele>1046</ele>
        <time>2021-08-06T09:52:29.352Z</time>
      </trkpt>
      <trkpt lat="46.96269" lon="8.75075">
        <ele>1046</ele>
        <time>2021-08-06T09:52:30.352Z</time>
      </trkpt>
      <trkpt lat="46.96268" lon="8.75074">
        <ele>1047</ele>
        <time>2021-08-06T09:52:31.352Z</time>
      </trkpt>
      <trkpt lat="46.96269" lon="8.75073">
        <ele>1048</ele>
        <time>2021-08-06T09:52:32.353Z</time>
      </trkpt>
      <trkpt lat="46.96268" lon="8.75073">
        <ele>1048</ele>
        <time>2021-08-06T09:52:33.352Z</time>
      </trkpt>
      <trkpt lat="46.96268" lon="8.75072">
        <ele>1049</ele>
        <time>2021-08-06T09:52:34.353Z</time>
      </trkpt>
      <trkpt lat="46.96268" lon="8.75071">
        <ele>1050</ele>
        <time>2021-08-06T09:52:35.353Z</time>
      </trkpt>
      <trkpt lat="46.96268" lon="8.75071">
        <ele>1051</ele>
        <time>2021-08-06T09:52:36.353Z</time>
      </trkpt>
      <trkpt lat="46.96268" lon="8.7507">
        <ele>1052</ele>
        <time>2021-08-06T09:52:37.353Z</time>
      </trkpt>
      <trkpt lat="46.96267" lon="8.75069">
        <ele>1052</ele>
        <time>2021-08-06T09:52:38.352Z</time>
      </trkpt>
      <trkpt lat="46.96266" lon="8.75068">
        <ele>1053</ele>
        <time>2021-08-06T09:52:39.353Z</time>
      </trkpt>
      <trkpt lat="46.96266" lon="8.75068">
        <ele>1053</ele>
        <time>2021-08-06T09:52:40.352Z</time>
      </trkpt>
      <trkpt lat="46.96265" lon="8.75067">
        <ele>1053</ele>
        <time>2021-08-06T09:52:41.353Z</time>
      </trkpt>
      <trkpt lat="46.96265" lon="8.75066">
        <ele>1053</ele>
        <time>2021-08-06T09:52:42.353Z</time>
      </trkpt>
      <trkpt lat="46.96264" lon="8.75066">
        <ele>1053</ele>
        <time>2021-08-06T09:52:43.353Z</time>
      </trkpt>
      <trkpt lat="46.96263" lon="8.75065">
        <ele>1054</ele>
        <time>2021-08-06T09:52:44.353Z</time>
      </trkpt>
      <trkpt lat="46.96262" lon="8.75064">
        <ele>1054</ele>
        <time>2021-08-06T09:52:45.353Z</time>
      </trkpt>
      <trkpt lat="46.96261" lon="8.75063">
        <ele>1054</ele>
        <time>2021-08-06T09:52:46.353Z</time>
      </trkpt>
      <trkpt lat="46.9626" lon="8.75062">
        <ele>1054</ele>
        <time>2021-08-06T09:52:47.352Z</time>
      </trkpt>
      <trkpt lat="46.96259" lon="8.75061">
        <ele>1054</ele>
        <time>2021-08-06T09:52:48.353Z</time>
      </trkpt>
      <trkpt lat="46.96258" lon="8.7506">
        <ele>1054</ele>
        <time>2021-08-06T09:52:49.353Z</time>
      </trkpt>
      <trkpt lat="46.96257" lon="8.75059">
        <ele>1054</ele>
        <time>2021-08-06T09:52:50.352Z</time>
      </trkpt>
      <trkpt lat="46.96256" lon="8.75058">
        <ele>1054</ele>
        <time>2021-08-06T09:52:51.352Z</time>
      </trkpt>
      <trkpt lat="46.96255" lon="8.75056">
        <ele>1054</ele>
        <time>2021-08-06T09:52:52.352Z</time>
      </trkpt>
      <trkpt lat="46.96253" lon="8.75055">
        <ele>1053</ele>
        <time>2021-08-06T09:52:53.352Z</time>
      </trkpt>
      <trkpt lat="46.96253" lon="8.75053">
        <ele>1053</ele>
        <time>2021-08-06T09:52:54.352Z</time>
      </trkpt>
      <trkpt lat="46.96253" lon="8.75052">
        <ele>1054</ele>
        <time>2021-08-06T09:52:55.352Z</time>
      </trkpt>
      <trkpt lat="46.96254" lon="8.7505">
        <ele>1054</ele>
        <time>2021-08-06T09:52:56.352Z</time>
      </trkpt>
      <trkpt lat="46.96254" lon="8.75048">
        <ele>1054</ele>
        <time>2021-08-06T09:52:57.352Z</time>
      </trkpt>
      <trkpt lat="46.96253" lon="8.75047">
        <ele>1054</ele>
        <time>2021-08-06T09:52:58.352Z</time>
      </trkpt>
      <trkpt lat="46.96251" lon="8.75046">
        <ele>1054</ele>
        <time>2021-08-06T09:52:59.352Z</time>
      </trkpt>
      <trkpt lat="46.96251" lon="8.75045">
        <ele>1054</ele>
        <time>2021-08-06T09:53:00.352Z</time>
      </trkpt>
      <trkpt lat="46.9625" lon="8.75044">
        <ele>1054</ele>
        <time>2021-08-06T09:53:01.352Z</time>
      </trkpt>
      <trkpt lat="46.9625" lon="8.75043">
        <ele>1054</ele>
        <time>2021-08-06T09:53:02.352Z</time>
      </trkpt>
      <trkpt lat="46.9625" lon="8.75041">
        <ele>1054</ele>
        <time>2021-08-06T09:53:03.352Z</time>
      </trkpt>
      <trkpt lat="46.9625" lon="8.75039">
        <ele>1054</ele>
        <time>2021-08-06T09:53:04.353Z</time>
      </trkpt>
      <trkpt lat="46.96249" lon="8.75038">
        <ele>1054</ele>
        <time>2021-08-06T09:53:05.353Z</time>
      </trkpt>
      <trkpt lat="46.96248" lon="8.75037">
        <ele>1055</ele>
        <time>2021-08-06T09:53:06.353Z</time>
      </trkpt>
      <trkpt lat="46.96247" lon="8.75036">
        <ele>1055</ele>
        <time>2021-08-06T09:53:07.353Z</time>
      </trkpt>
      <trkpt lat="46.96246" lon="8.75035">
        <ele>1055</ele>
        <time>2021-08-06T09:53:08.353Z</time>
      </trkpt>
      <trkpt lat="46.96243" lon="8.75035">
        <ele>1055</ele>
        <time>2021-08-06T09:53:09.353Z</time>
      </trkpt>
      <trkpt lat="46.96242" lon="8.75035">
        <ele>1055</ele>
        <time>2021-08-06T09:53:10.353Z</time>
      </trkpt>
      <trkpt lat="46.96241" lon="8.75035">
        <ele>1055</ele>
        <time>2021-08-06T09:53:11.352Z</time>
      </trkpt>
      <trkpt lat="46.96239" lon="8.75037">
        <ele>1053</ele>
        <time>2021-08-06T09:53:12.353Z</time>
      </trkpt>
      <trkpt lat="46.96239" lon="8.75037">
        <ele>1052</ele>
        <time>2021-08-06T09:53:13.353Z</time>
      </trkpt>
      <trkpt lat="46.9624" lon="8.75036">
        <ele>1051</ele>
        <time>2021-08-06T09:53:14.353Z</time>
      </trkpt>
      <trkpt lat="46.9624" lon="8.75032">
        <ele>1051</ele>
        <time>2021-08-06T09:53:15.355Z</time>
      </trkpt>
      <trkpt lat="46.96239" lon="8.75032">
        <ele>1050</ele>
        <time>2021-08-06T09:53:16.355Z</time>
      </trkpt>
      <trkpt lat="46.96239" lon="8.75031">
        <ele>1050</ele>
        <time>2021-08-06T09:53:17.355Z</time>
      </trkpt>
      <trkpt lat="46.96238" lon="8.75031">
        <ele>1050</ele>
        <time>2021-08-06T09:53:18.354Z</time>
      </trkpt>
      <trkpt lat="46.96237" lon="8.7503">
        <ele>1050</ele>
        <time>2021-08-06T09:53:19.354Z</time>
      </trkpt>
      <trkpt lat="46.96237" lon="8.75029">
        <ele>1050</ele>
        <time>2021-08-06T09:53:20.355Z</time>
      </trkpt>
      <trkpt lat="46.96236" lon="8.75029">
        <ele>1050</ele>
        <time>2021-08-06T09:53:21.354Z</time>
      </trkpt>
      <trkpt lat="46.96235" lon="8.75028">
        <ele>1050</ele>
        <time>2021-08-06T09:53:22.355Z</time>
      </trkpt>
      <trkpt lat="46.96235" lon="8.75027">
        <ele>1050</ele>
        <time>2021-08-06T09:53:23.355Z</time>
      </trkpt>
      <trkpt lat="46.96234" lon="8.75026">
        <ele>1050</ele>
        <time>2021-08-06T09:53:24.354Z</time>
      </trkpt>
      <trkpt lat="46.96234" lon="8.75025">
        <ele>1050</ele>
        <time>2021-08-06T09:53:25.354Z</time>
      </trkpt>
      <trkpt lat="46.96233" lon="8.75024">
        <ele>1050</ele>
        <time>2021-08-06T09:53:26.355Z</time>
      </trkpt>
      <trkpt lat="46.96233" lon="8.75023">
        <ele>1051</ele>
        <time>2021-08-06T09:53:27.355Z</time>
      </trkpt>
      <trkpt lat="46.96233" lon="8.75022">
        <ele>1051</ele>
        <time>2021-08-06T09:53:28.355Z</time>
      </trkpt>
      <trkpt lat="46.96233" lon="8.75021">
        <ele>1051</ele>
        <time>2021-08-06T09:53:29.355Z</time>
      </trkpt>
      <trkpt lat="46.96232" lon="8.7502">
        <ele>1051</ele>
        <time>2021-08-06T09:53:30.355Z</time>
      </trkpt>
      <trkpt lat="46.96231" lon="8.7502">
        <ele>1051</ele>
        <time>2021-08-06T09:53:31.355Z</time>
      </trkpt>
      <trkpt lat="46.96229" lon="8.7502">
        <ele>1051</ele>
        <time>2021-08-06T09:53:32.355Z</time>
      </trkpt>
      <trkpt lat="46.96229" lon="8.75019">
        <ele>1051</ele>
        <time>2021-08-06T09:53:33.355Z</time>
      </trkpt>
      <trkpt lat="46.96227" lon="8.75018">
        <ele>1052</ele>
        <time>2021-08-06T09:53:34.355Z</time>
      </trkpt>
      <trkpt lat="46.96226" lon="8.75017">
        <ele>1053</ele>
        <time>2021-08-06T09:53:35.354Z</time>
      </trkpt>
      <trkpt lat="46.96225" lon="8.75017">
        <ele>1053</ele>
        <time>2021-08-06T09:53:36.355Z</time>
      </trkpt>
      <trkpt lat="46.96224" lon="8.75016">
        <ele>1053</ele>
        <time>2021-08-06T09:53:37.354Z</time>
      </trkpt>
      <trkpt lat="46.96224" lon="8.75015">
        <ele>1054</ele>
        <time>2021-08-06T09:53:38.355Z</time>
      </trkpt>
      <trkpt lat="46.96224" lon="8.75013">
        <ele>1054</ele>
        <time>2021-08-06T09:53:39.355Z</time>
      </trkpt>
      <trkpt lat="46.96224" lon="8.75012">
        <ele>1055</ele>
        <time>2021-08-06T09:53:40.355Z</time>
      </trkpt>
      <trkpt lat="46.96224" lon="8.7501">
        <ele>1055</ele>
        <time>2021-08-06T09:53:41.355Z</time>
      </trkpt>
      <trkpt lat="46.96223" lon="8.75009">
        <ele>1056</ele>
        <time>2021-08-06T09:53:42.355Z</time>
      </trkpt>
      <trkpt lat="46.96223" lon="8.75008">
        <ele>1056</ele>
        <time>2021-08-06T09:53:43.355Z</time>
      </trkpt>
      <trkpt lat="46.96222" lon="8.75008">
        <ele>1057</ele>
        <time>2021-08-06T09:53:44.355Z</time>
      </trkpt>
      <trkpt lat="46.96222" lon="8.75007">
        <ele>1057</ele>
        <time>2021-08-06T09:53:45.354Z</time>
      </trkpt>
      <trkpt lat="46.96221" lon="8.75006">
        <ele>1058</ele>
        <time>2021-08-06T09:53:46.355Z</time>
      </trkpt>
      <trkpt lat="46.96221" lon="8.75005">
        <ele>1058</ele>
        <time>2021-08-06T09:53:47.355Z</time>
      </trkpt>
      <trkpt lat="46.96221" lon="8.75004">
        <ele>1059</ele>
        <time>2021-08-06T09:53:48.355Z</time>
      </trkpt>
      <trkpt lat="46.9622" lon="8.75003">
        <ele>1059</ele>
        <time>2021-08-06T09:53:49.355Z</time>
      </trkpt>
      <trkpt lat="46.9622" lon="8.75002">
        <ele>1059</ele>
        <time>2021-08-06T09:53:50.355Z</time>
      </trkpt>
      <trkpt lat="46.9622" lon="8.75">
        <ele>1059</ele>
        <time>2021-08-06T09:53:51.355Z</time>
      </trkpt>
      <trkpt lat="46.96219" lon="8.74999">
        <ele>1060</ele>
        <time>2021-08-06T09:53:52.355Z</time>
      </trkpt>
      <trkpt lat="46.96219" lon="8.74998">
        <ele>1060</ele>
        <time>2021-08-06T09:53:53.354Z</time>
      </trkpt>
      <trkpt lat="46.96219" lon="8.74997">
        <ele>1060</ele>
        <time>2021-08-06T09:53:54.354Z</time>
      </trkpt>
      <trkpt lat="46.96218" lon="8.74996">
        <ele>1061</ele>
        <time>2021-08-06T09:53:55.355Z</time>
      </trkpt>
      <trkpt lat="46.96218" lon="8.74995">
        <ele>1061</ele>
        <time>2021-08-06T09:53:56.355Z</time>
      </trkpt>
      <trkpt lat="46.96218" lon="8.74994">
        <ele>1061</ele>
        <time>2021-08-06T09:53:57.355Z</time>
      </trkpt>
      <trkpt lat="46.96217" lon="8.74994">
        <ele>1061</ele>
        <time>2021-08-06T09:53:58.354Z</time>
      </trkpt>
      <trkpt lat="46.96218" lon="8.74992">
        <ele>1061</ele>
        <time>2021-08-06T09:53:59.354Z</time>
      </trkpt>
      <trkpt lat="46.96218" lon="8.74991">
        <ele>1061</ele>
        <time>2021-08-06T09:54:00.355Z</time>
      </trkpt>
      <trkpt lat="46.96218" lon="8.7499">
        <ele>1061</ele>
        <time>2021-08-06T09:54:01.354Z</time>
      </trkpt>
      <trkpt lat="46.96218" lon="8.74988">
        <ele>1061</ele>
        <time>2021-08-06T09:54:02.355Z</time>
      </trkpt>
      <trkpt lat="46.96219" lon="8.74987">
        <ele>1062</ele>
        <time>2021-08-06T09:54:03.355Z</time>
      </trkpt>
      <trkpt lat="46.96218" lon="8.74986">
        <ele>1062</ele>
        <time>2021-08-06T09:54:04.354Z</time>
      </trkpt>
      <trkpt lat="46.96218" lon="8.74985">
        <ele>1062</ele>
        <time>2021-08-06T09:54:05.355Z</time>
      </trkpt>
      <trkpt lat="46.96218" lon="8.74983">
        <ele>1062</ele>
        <time>2021-08-06T09:54:06.354Z</time>
      </trkpt>
      <trkpt lat="46.96217" lon="8.74982">
        <ele>1062</ele>
        <time>2021-08-06T09:54:07.354Z</time>
      </trkpt>
      <trkpt lat="46.96217" lon="8.74981">
        <ele>1063</ele>
        <time>2021-08-06T09:54:08.355Z</time>
      </trkpt>
      <trkpt lat="46.96217" lon="8.7498">
        <ele>1063</ele>
        <time>2021-08-06T09:54:09.355Z</time>
      </trkpt>
      <trkpt lat="46.96216" lon="8.74979">
        <ele>1063</ele>
        <time>2021-08-06T09:54:10.354Z</time>
      </trkpt>
      <trkpt lat="46.96216" lon="8.74978">
        <ele>1064</ele>
        <time>2021-08-06T09:54:11.354Z</time>
      </trkpt>
      <trkpt lat="46.96215" lon="8.74977">
        <ele>1064</ele>
        <time>2021-08-06T09:54:12.354Z</time>
      </trkpt>
      <trkpt lat="46.96215" lon="8.74976">
        <ele>1065</ele>
        <time>2021-08-06T09:54:13.354Z</time>
      </trkpt>
      <trkpt lat="46.96214" lon="8.74975">
        <ele>1065</ele>
        <time>2021-08-06T09:54:14.354Z</time>
      </trkpt>
      <trkpt lat="46.96213" lon="8.74975">
        <ele>1065</ele>
        <time>2021-08-06T09:54:15.354Z</time>
      </trkpt>
      <trkpt lat="46.96212" lon="8.74974">
        <ele>1065</ele>
        <time>2021-08-06T09:54:16.354Z</time>
      </trkpt>
      <trkpt lat="46.96212" lon="8.74972">
        <ele>1065</ele>
        <time>2021-08-06T09:54:17.354Z</time>
      </trkpt>
      <trkpt lat="46.96211" lon="8.74971">
        <ele>1064</ele>
        <time>2021-08-06T09:54:18.354Z</time>
      </trkpt>
      <trkpt lat="46.96211" lon="8.7497">
        <ele>1064</ele>
        <time>2021-08-06T09:54:19.354Z</time>
      </trkpt>
      <trkpt lat="46.96212" lon="8.74968">
        <ele>1064</ele>
        <time>2021-08-06T09:54:20.354Z</time>
      </trkpt>
      <trkpt lat="46.96213" lon="8.74966">
        <ele>1064</ele>
        <time>2021-08-06T09:54:21.354Z</time>
      </trkpt>
      <trkpt lat="46.96213" lon="8.74964">
        <ele>1064</ele>
        <time>2021-08-06T09:54:22.354Z</time>
      </trkpt>
      <trkpt lat="46.96213" lon="8.74963">
        <ele>1064</ele>
        <time>2021-08-06T09:54:23.354Z</time>
      </trkpt>
      <trkpt lat="46.96212" lon="8.74962">
        <ele>1065</ele>
        <time>2021-08-06T09:54:24.354Z</time>
      </trkpt>
      <trkpt lat="46.96211" lon="8.74961">
        <ele>1065</ele>
        <time>2021-08-06T09:54:25.354Z</time>
      </trkpt>
      <trkpt lat="46.9621" lon="8.7496">
        <ele>1066</ele>
        <time>2021-08-06T09:54:26.354Z</time>
      </trkpt>
      <trkpt lat="46.96209" lon="8.7496">
        <ele>1066</ele>
        <time>2021-08-06T09:54:27.354Z</time>
      </trkpt>
      <trkpt lat="46.96209" lon="8.74959">
        <ele>1067</ele>
        <time>2021-08-06T09:54:28.354Z</time>
      </trkpt>
      <trkpt lat="46.96208" lon="8.74957">
        <ele>1067</ele>
        <time>2021-08-06T09:54:29.354Z</time>
      </trkpt>
      <trkpt lat="46.96207" lon="8.74956">
        <ele>1067</ele>
        <time>2021-08-06T09:54:30.354Z</time>
      </trkpt>
      <trkpt lat="46.96207" lon="8.74956">
        <ele>1067</ele>
        <time>2021-08-06T09:54:31.354Z</time>
      </trkpt>
      <trkpt lat="46.96206" lon="8.74954">
        <ele>1067</ele>
        <time>2021-08-06T09:54:32.354Z</time>
      </trkpt>
      <trkpt lat="46.96206" lon="8.74953">
        <ele>1067</ele>
        <time>2021-08-06T09:54:33.354Z</time>
      </trkpt>
      <trkpt lat="46.96206" lon="8.74952">
        <ele>1067</ele>
        <time>2021-08-06T09:54:34.354Z</time>
      </trkpt>
      <trkpt lat="46.96206" lon="8.7495">
        <ele>1068</ele>
        <time>2021-08-06T09:54:35.354Z</time>
      </trkpt>
      <trkpt lat="46.96205" lon="8.74949">
        <ele>1068</ele>
        <time>2021-08-06T09:54:36.354Z</time>
      </trkpt>
      <trkpt lat="46.96204" lon="8.74948">
        <ele>1068</ele>
        <time>2021-08-06T09:54:37.355Z</time>
      </trkpt>
      <trkpt lat="46.96204" lon="8.74947">
        <ele>1068</ele>
        <time>2021-08-06T09:54:38.354Z</time>
      </trkpt>
      <trkpt lat="46.96204" lon="8.74945">
        <ele>1069</ele>
        <time>2021-08-06T09:54:39.355Z</time>
      </trkpt>
      <trkpt lat="46.96203" lon="8.74944">
        <ele>1070</ele>
        <time>2021-08-06T09:54:40.355Z</time>
      </trkpt>
      <trkpt lat="46.96203" lon="8.74942">
        <ele>1070</ele>
        <time>2021-08-06T09:54:41.354Z</time>
      </trkpt>
      <trkpt lat="46.96202" lon="8.74941">
        <ele>1070</ele>
        <time>2021-08-06T09:54:42.355Z</time>
      </trkpt>
      <trkpt lat="46.96202" lon="8.7494">
        <ele>1070</ele>
        <time>2021-08-06T09:54:43.355Z</time>
      </trkpt>
      <trkpt lat="46.96201" lon="8.74938">
        <ele>1070</ele>
        <time>2021-08-06T09:54:44.354Z</time>
      </trkpt>
      <trkpt lat="46.96201" lon="8.74937">
        <ele>1069</ele>
        <time>2021-08-06T09:54:45.355Z</time>
      </trkpt>
      <trkpt lat="46.96201" lon="8.74935">
        <ele>1069</ele>
        <time>2021-08-06T09:54:46.355Z</time>
      </trkpt>
      <trkpt lat="46.96201" lon="8.74934">
        <ele>1069</ele>
        <time>2021-08-06T09:54:47.354Z</time>
      </trkpt>
      <trkpt lat="46.96201" lon="8.74933">
        <ele>1070</ele>
        <time>2021-08-06T09:54:48.354Z</time>
      </trkpt>
      <trkpt lat="46.96202" lon="8.74931">
        <ele>1070</ele>
        <time>2021-08-06T09:54:49.354Z</time>
      </trkpt>
      <trkpt lat="46.96202" lon="8.7493">
        <ele>1071</ele>
        <time>2021-08-06T09:54:50.354Z</time>
      </trkpt>
      <trkpt lat="46.96202" lon="8.74929">
        <ele>1072</ele>
        <time>2021-08-06T09:54:51.355Z</time>
      </trkpt>
      <trkpt lat="46.96202" lon="8.74927">
        <ele>1072</ele>
        <time>2021-08-06T09:54:52.354Z</time>
      </trkpt>
      <trkpt lat="46.96202" lon="8.74926">
        <ele>1072</ele>
        <time>2021-08-06T09:54:53.355Z</time>
      </trkpt>
      <trkpt lat="46.96202" lon="8.74924">
        <ele>1072</ele>
        <time>2021-08-06T09:54:54.354Z</time>
      </trkpt>
      <trkpt lat="46.96202" lon="8.74923">
        <ele>1073</ele>
        <time>2021-08-06T09:54:55.354Z</time>
      </trkpt>
      <trkpt lat="46.96202" lon="8.74922">
        <ele>1073</ele>
        <time>2021-08-06T09:54:56.354Z</time>
      </trkpt>
      <trkpt lat="46.96202" lon="8.74921">
        <ele>1073</ele>
        <time>2021-08-06T09:54:57.355Z</time>
      </trkpt>
      <trkpt lat="46.96201" lon="8.74919">
        <ele>1074</ele>
        <time>2021-08-06T09:54:58.354Z</time>
      </trkpt>
      <trkpt lat="46.96201" lon="8.74918">
        <ele>1074</ele>
        <time>2021-08-06T09:54:59.355Z</time>
      </trkpt>
      <trkpt lat="46.96201" lon="8.74917">
        <ele>1074</ele>
        <time>2021-08-06T09:55:00.355Z</time>
      </trkpt>
      <trkpt lat="46.96201" lon="8.74916">
        <ele>1074</ele>
        <time>2021-08-06T09:55:01.354Z</time>
      </trkpt>
      <trkpt lat="46.962" lon="8.74915">
        <ele>1074</ele>
        <time>2021-08-06T09:55:02.354Z</time>
      </trkpt>
      <trkpt lat="46.962" lon="8.74914">
        <ele>1074</ele>
        <time>2021-08-06T09:55:03.355Z</time>
      </trkpt>
      <trkpt lat="46.962" lon="8.74913">
        <ele>1074</ele>
        <time>2021-08-06T09:55:04.355Z</time>
      </trkpt>
      <trkpt lat="46.96199" lon="8.74911">
        <ele>1074</ele>
        <time>2021-08-06T09:55:05.355Z</time>
      </trkpt>
      <trkpt lat="46.96199" lon="8.7491">
        <ele>1074</ele>
        <time>2021-08-06T09:55:06.354Z</time>
      </trkpt>
      <trkpt lat="46.96199" lon="8.74909">
        <ele>1075</ele>
        <time>2021-08-06T09:55:07.354Z</time>
      </trkpt>
      <trkpt lat="46.96198" lon="8.74908">
        <ele>1075</ele>
        <time>2021-08-06T09:55:08.355Z</time>
      </trkpt>
      <trkpt lat="46.96198" lon="8.74906">
        <ele>1074</ele>
        <time>2021-08-06T09:55:09.355Z</time>
      </trkpt>
      <trkpt lat="46.96197" lon="8.74905">
        <ele>1074</ele>
        <time>2021-08-06T09:55:10.354Z</time>
      </trkpt>
      <trkpt lat="46.96196" lon="8.74904">
        <ele>1074</ele>
        <time>2021-08-06T09:55:11.355Z</time>
      </trkpt>
      <trkpt lat="46.96195" lon="8.74903">
        <ele>1074</ele>
        <time>2021-08-06T09:55:12.355Z</time>
      </trkpt>
      <trkpt lat="46.96195" lon="8.74902">
        <ele>1075</ele>
        <time>2021-08-06T09:55:13.354Z</time>
      </trkpt>
      <trkpt lat="46.96194" lon="8.74901">
        <ele>1075</ele>
        <time>2021-08-06T09:55:14.354Z</time>
      </trkpt>
      <trkpt lat="46.96194" lon="8.749">
        <ele>1075</ele>
        <time>2021-08-06T09:55:15.354Z</time>
      </trkpt>
      <trkpt lat="46.96194" lon="8.74898">
        <ele>1074</ele>
        <time>2021-08-06T09:55:16.354Z</time>
      </trkpt>
      <trkpt lat="46.96193" lon="8.74897">
        <ele>1074</ele>
        <time>2021-08-06T09:55:17.355Z</time>
      </trkpt>
      <trkpt lat="46.96192" lon="8.74895">
        <ele>1074</ele>
        <time>2021-08-06T09:55:18.354Z</time>
      </trkpt>
      <trkpt lat="46.9619" lon="8.74894">
        <ele>1073</ele>
        <time>2021-08-06T09:55:19.355Z</time>
      </trkpt>
      <trkpt lat="46.9619" lon="8.74892">
        <ele>1073</ele>
        <time>2021-08-06T09:55:20.354Z</time>
      </trkpt>
      <trkpt lat="46.9619" lon="8.74891">
        <ele>1072</ele>
        <time>2021-08-06T09:55:21.355Z</time>
      </trkpt>
      <trkpt lat="46.96189" lon="8.74889">
        <ele>1072</ele>
        <time>2021-08-06T09:55:22.355Z</time>
      </trkpt>
      <trkpt lat="46.96189" lon="8.74887">
        <ele>1072</ele>
        <time>2021-08-06T09:55:23.355Z</time>
      </trkpt>
      <trkpt lat="46.96188" lon="8.74887">
        <ele>1072</ele>
        <time>2021-08-06T09:55:24.355Z</time>
      </trkpt>
      <trkpt lat="46.96187" lon="8.74885">
        <ele>1072</ele>
        <time>2021-08-06T09:55:25.355Z</time>
      </trkpt>
      <trkpt lat="46.96186" lon="8.74884">
        <ele>1072</ele>
        <time>2021-08-06T09:55:26.355Z</time>
      </trkpt>
      <trkpt lat="46.96185" lon="8.74883">
        <ele>1071</ele>
        <time>2021-08-06T09:55:27.355Z</time>
      </trkpt>
      <trkpt lat="46.96185" lon="8.74882">
        <ele>1071</ele>
        <time>2021-08-06T09:55:28.355Z</time>
      </trkpt>
      <trkpt lat="46.96184" lon="8.74881">
        <ele>1071</ele>
        <time>2021-08-06T09:55:29.354Z</time>
      </trkpt>
      <trkpt lat="46.96184" lon="8.7488">
        <ele>1071</ele>
        <time>2021-08-06T09:55:30.354Z</time>
      </trkpt>
      <trkpt lat="46.96184" lon="8.74878">
        <ele>1072</ele>
        <time>2021-08-06T09:55:31.355Z</time>
      </trkpt>
      <trkpt lat="46.96184" lon="8.74877">
        <ele>1072</ele>
        <time>2021-08-06T09:55:32.355Z</time>
      </trkpt>
      <trkpt lat="46.96183" lon="8.74875">
        <ele>1073</ele>
        <time>2021-08-06T09:55:33.355Z</time>
      </trkpt>
      <trkpt lat="46.96183" lon="8.74874">
        <ele>1073</ele>
        <time>2021-08-06T09:55:34.354Z</time>
      </trkpt>
      <trkpt lat="46.96183" lon="8.74872">
        <ele>1074</ele>
        <time>2021-08-06T09:55:35.354Z</time>
      </trkpt>
      <trkpt lat="46.96183" lon="8.74871">
        <ele>1074</ele>
        <time>2021-08-06T09:55:36.355Z</time>
      </trkpt>
      <trkpt lat="46.96181" lon="8.7487">
        <ele>1074</ele>
        <time>2021-08-06T09:55:37.354Z</time>
      </trkpt>
      <trkpt lat="46.9618" lon="8.74869">
        <ele>1074</ele>
        <time>2021-08-06T09:55:38.355Z</time>
      </trkpt>
      <trkpt lat="46.9618" lon="8.74868">
        <ele>1074</ele>
        <time>2021-08-06T09:55:39.355Z</time>
      </trkpt>
      <trkpt lat="46.9618" lon="8.74866">
        <ele>1074</ele>
        <time>2021-08-06T09:55:40.354Z</time>
      </trkpt>
      <trkpt lat="46.9618" lon="8.74865">
        <ele>1074</ele>
        <time>2021-08-06T09:55:41.355Z</time>
      </trkpt>
      <trkpt lat="46.96179" lon="8.74863">
        <ele>1074</ele>
        <time>2021-08-06T09:55:42.355Z</time>
      </trkpt>
      <trkpt lat="46.96179" lon="8.74862">
        <ele>1074</ele>
        <time>2021-08-06T09:55:43.354Z</time>
      </trkpt>
      <trkpt lat="46.96179" lon="8.74861">
        <ele>1074</ele>
        <time>2021-08-06T09:55:44.355Z</time>
      </trkpt>
      <trkpt lat="46.96177" lon="8.74859">
        <ele>1074</ele>
        <time>2021-08-06T09:55:45.354Z</time>
      </trkpt>
      <trkpt lat="46.96176" lon="8.74858">
        <ele>1074</ele>
        <time>2021-08-06T09:55:46.354Z</time>
      </trkpt>
      <trkpt lat="46.96177" lon="8.74856">
        <ele>1074</ele>
        <time>2021-08-06T09:55:47.355Z</time>
      </trkpt>
      <trkpt lat="46.96176" lon="8.74855">
        <ele>1075</ele>
        <time>2021-08-06T09:55:48.355Z</time>
      </trkpt>
      <trkpt lat="46.96175" lon="8.74854">
        <ele>1075</ele>
        <time>2021-08-06T09:55:49.355Z</time>
      </trkpt>
      <trkpt lat="46.96174" lon="8.74853">
        <ele>1076</ele>
        <time>2021-08-06T09:55:50.355Z</time>
      </trkpt>
      <trkpt lat="46.96174" lon="8.74851">
        <ele>1076</ele>
        <time>2021-08-06T09:55:51.355Z</time>
      </trkpt>
      <trkpt lat="46.96173" lon="8.7485">
        <ele>1077</ele>
        <time>2021-08-06T09:55:52.355Z</time>
      </trkpt>
      <trkpt lat="46.96172" lon="8.74849">
        <ele>1077</ele>
        <time>2021-08-06T09:55:53.355Z</time>
      </trkpt>
      <trkpt lat="46.96172" lon="8.74847">
        <ele>1077</ele>
        <time>2021-08-06T09:55:54.355Z</time>
      </trkpt>
      <trkpt lat="46.96171" lon="8.74846">
        <ele>1078</ele>
        <time>2021-08-06T09:55:55.354Z</time>
      </trkpt>
      <trkpt lat="46.9617" lon="8.74845">
        <ele>1078</ele>
        <time>2021-08-06T09:55:56.354Z</time>
      </trkpt>
      <trkpt lat="46.9617" lon="8.74844">
        <ele>1078</ele>
        <time>2021-08-06T09:55:57.355Z</time>
      </trkpt>
      <trkpt lat="46.9617" lon="8.74842">
        <ele>1078</ele>
        <time>2021-08-06T09:55:58.354Z</time>
      </trkpt>
      <trkpt lat="46.96169" lon="8.7484">
        <ele>1078</ele>
        <time>2021-08-06T09:55:59.354Z</time>
      </trkpt>
      <trkpt lat="46.96168" lon="8.74839">
        <ele>1078</ele>
        <time>2021-08-06T09:56:00.354Z</time>
      </trkpt>
      <trkpt lat="46.96167" lon="8.74838">
        <ele>1078</ele>
        <time>2021-08-06T09:56:01.355Z</time>
      </trkpt>
      <trkpt lat="46.96166" lon="8.74837">
        <ele>1078</ele>
        <time>2021-08-06T09:56:02.354Z</time>
      </trkpt>
      <trkpt lat="46.96166" lon="8.74835">
        <ele>1078</ele>
        <time>2021-08-06T09:56:03.355Z</time>
      </trkpt>
      <trkpt lat="46.96165" lon="8.74834">
        <ele>1077</ele>
        <time>2021-08-06T09:56:04.355Z</time>
      </trkpt>
      <trkpt lat="46.96165" lon="8.74832">
        <ele>1077</ele>
        <time>2021-08-06T09:56:05.355Z</time>
      </trkpt>
      <trkpt lat="46.96164" lon="8.74831">
        <ele>1077</ele>
        <time>2021-08-06T09:56:06.355Z</time>
      </trkpt>
      <trkpt lat="46.96163" lon="8.74829">
        <ele>1078</ele>
        <time>2021-08-06T09:56:07.354Z</time>
      </trkpt>
      <trkpt lat="46.96161" lon="8.74829">
        <ele>1078</ele>
        <time>2021-08-06T09:56:08.355Z</time>
      </trkpt>
      <trkpt lat="46.96158" lon="8.74829">
        <ele>1078</ele>
        <time>2021-08-06T09:56:09.354Z</time>
      </trkpt>
      <trkpt lat="46.96157" lon="8.74828">
        <ele>1078</ele>
        <time>2021-08-06T09:56:10.355Z</time>
      </trkpt>
      <trkpt lat="46.96156" lon="8.74827">
        <ele>1078</ele>
        <time>2021-08-06T09:56:11.354Z</time>
      </trkpt>
      <trkpt lat="46.96155" lon="8.74827">
        <ele>1079</ele>
        <time>2021-08-06T09:56:12.355Z</time>
      </trkpt>
      <trkpt lat="46.96155" lon="8.74827">
        <ele>1079</ele>
        <time>2021-08-06T09:56:13.355Z</time>
      </trkpt>
      <trkpt lat="46.96154" lon="8.74825">
        <ele>1079</ele>
        <time>2021-08-06T09:56:14.355Z</time>
      </trkpt>
      <trkpt lat="46.96153" lon="8.74824">
        <ele>1079</ele>
        <time>2021-08-06T09:56:15.355Z</time>
      </trkpt>
      <trkpt lat="46.96153" lon="8.74823">
        <ele>1080</ele>
        <time>2021-08-06T09:56:16.355Z</time>
      </trkpt>
      <trkpt lat="46.96153" lon="8.74822">
        <ele>1080</ele>
        <time>2021-08-06T09:56:17.354Z</time>
      </trkpt>
      <trkpt lat="46.96152" lon="8.74821">
        <ele>1081</ele>
        <time>2021-08-06T09:56:18.354Z</time>
      </trkpt>
      <trkpt lat="46.96151" lon="8.74821">
        <ele>1082</ele>
        <time>2021-08-06T09:56:19.354Z</time>
      </trkpt>
      <trkpt lat="46.96149" lon="8.7482">
        <ele>1082</ele>
        <time>2021-08-06T09:56:20.355Z</time>
      </trkpt>
      <trkpt lat="46.96148" lon="8.74819">
        <ele>1082</ele>
        <time>2021-08-06T09:56:21.355Z</time>
      </trkpt>
      <trkpt lat="46.96148" lon="8.74818">
        <ele>1082</ele>
        <time>2021-08-06T09:56:22.355Z</time>
      </trkpt>
      <trkpt lat="46.96147" lon="8.74817">
        <ele>1082</ele>
        <time>2021-08-06T09:56:23.355Z</time>
      </trkpt>
      <trkpt lat="46.96147" lon="8.74816">
        <ele>1083</ele>
        <time>2021-08-06T09:56:24.354Z</time>
      </trkpt>
      <trkpt lat="46.96147" lon="8.74815">
        <ele>1083</ele>
        <time>2021-08-06T09:56:25.355Z</time>
      </trkpt>
      <trkpt lat="46.96146" lon="8.74814">
        <ele>1083</ele>
        <time>2021-08-06T09:56:26.354Z</time>
      </trkpt>
      <trkpt lat="46.96146" lon="8.74812">
        <ele>1083</ele>
        <time>2021-08-06T09:56:27.354Z</time>
      </trkpt>
      <trkpt lat="46.96145" lon="8.74811">
        <ele>1084</ele>
        <time>2021-08-06T09:56:28.355Z</time>
      </trkpt>
      <trkpt lat="46.96144" lon="8.7481">
        <ele>1084</ele>
        <time>2021-08-06T09:56:29.355Z</time>
      </trkpt>
      <trkpt lat="46.96143" lon="8.74809">
        <ele>1084</ele>
        <time>2021-08-06T09:56:30.355Z</time>
      </trkpt>
      <trkpt lat="46.96142" lon="8.74807">
        <ele>1084</ele>
        <time>2021-08-06T09:56:31.355Z</time>
      </trkpt>
      <trkpt lat="46.96142" lon="8.74806">
        <ele>1084</ele>
        <time>2021-08-06T09:56:32.355Z</time>
      </trkpt>
      <trkpt lat="46.96141" lon="8.74805">
        <ele>1084</ele>
        <time>2021-08-06T09:56:33.354Z</time>
      </trkpt>
      <trkpt lat="46.96141" lon="8.74803">
        <ele>1083</ele>
        <time>2021-08-06T09:56:34.354Z</time>
      </trkpt>
      <trkpt lat="46.9614" lon="8.74802">
        <ele>1083</ele>
        <time>2021-08-06T09:56:35.354Z</time>
      </trkpt>
      <trkpt lat="46.9614" lon="8.748">
        <ele>1083</ele>
        <time>2021-08-06T09:56:36.354Z</time>
      </trkpt>
      <trkpt lat="46.96139" lon="8.74799">
        <ele>1083</ele>
        <time>2021-08-06T09:56:37.355Z</time>
      </trkpt>
      <trkpt lat="46.96139" lon="8.74798">
        <ele>1083</ele>
        <time>2021-08-06T09:56:38.355Z</time>
      </trkpt>
      <trkpt lat="46.96139" lon="8.74797">
        <ele>1083</ele>
        <time>2021-08-06T09:56:39.355Z</time>
      </trkpt>
      <trkpt lat="46.96138" lon="8.74796">
        <ele>1083</ele>
        <time>2021-08-06T09:56:40.355Z</time>
      </trkpt>
      <trkpt lat="46.96137" lon="8.74795">
        <ele>1083</ele>
        <time>2021-08-06T09:56:41.355Z</time>
      </trkpt>
      <trkpt lat="46.96137" lon="8.74793">
        <ele>1083</ele>
        <time>2021-08-06T09:56:42.355Z</time>
      </trkpt>
      <trkpt lat="46.96136" lon="8.74792">
        <ele>1082</ele>
        <time>2021-08-06T09:56:43.355Z</time>
      </trkpt>
      <trkpt lat="46.96135" lon="8.74791">
        <ele>1082</ele>
        <time>2021-08-06T09:56:44.355Z</time>
      </trkpt>
      <trkpt lat="46.96135" lon="8.7479">
        <ele>1082</ele>
        <time>2021-08-06T09:56:45.355Z</time>
      </trkpt>
      <trkpt lat="46.96135" lon="8.74788">
        <ele>1082</ele>
        <time>2021-08-06T09:56:46.355Z</time>
      </trkpt>
      <trkpt lat="46.96135" lon="8.74786">
        <ele>1082</ele>
        <time>2021-08-06T09:56:47.355Z</time>
      </trkpt>
      <trkpt lat="46.96135" lon="8.74784">
        <ele>1082</ele>
        <time>2021-08-06T09:56:48.355Z</time>
      </trkpt>
      <trkpt lat="46.96134" lon="8.74783">
        <ele>1082</ele>
        <time>2021-08-06T09:56:49.355Z</time>
      </trkpt>
      <trkpt lat="46.96134" lon="8.74782">
        <ele>1082</ele>
        <time>2021-08-06T09:56:50.354Z</time>
      </trkpt>
      <trkpt lat="46.96134" lon="8.7478">
        <ele>1082</ele>
        <time>2021-08-06T09:56:51.355Z</time>
      </trkpt>
      <trkpt lat="46.96133" lon="8.74779">
        <ele>1082</ele>
        <time>2021-08-06T09:56:52.355Z</time>
      </trkpt>
      <trkpt lat="46.96131" lon="8.74778">
        <ele>1082</ele>
        <time>2021-08-06T09:56:53.354Z</time>
      </trkpt>
      <trkpt lat="46.9613" lon="8.74777">
        <ele>1082</ele>
        <time>2021-08-06T09:56:54.355Z</time>
      </trkpt>
      <trkpt lat="46.9613" lon="8.74775">
        <ele>1082</ele>
        <time>2021-08-06T09:56:55.355Z</time>
      </trkpt>
      <trkpt lat="46.9613" lon="8.74774">
        <ele>1082</ele>
        <time>2021-08-06T09:56:56.355Z</time>
      </trkpt>
      <trkpt lat="46.96129" lon="8.74773">
        <ele>1082</ele>
        <time>2021-08-06T09:56:57.354Z</time>
      </trkpt>
      <trkpt lat="46.96128" lon="8.74772">
        <ele>1082</ele>
        <time>2021-08-06T09:56:58.355Z</time>
      </trkpt>
      <trkpt lat="46.96128" lon="8.74771">
        <ele>1082</ele>
        <time>2021-08-06T09:56:59.354Z</time>
      </trkpt>
      <trkpt lat="46.96128" lon="8.7477">
        <ele>1081</ele>
        <time>2021-08-06T09:57:00.355Z</time>
      </trkpt>
      <trkpt lat="46.96127" lon="8.74769">
        <ele>1081</ele>
        <time>2021-08-06T09:57:01.355Z</time>
      </trkpt>
      <trkpt lat="46.96127" lon="8.74768">
        <ele>1082</ele>
        <time>2021-08-06T09:57:02.354Z</time>
      </trkpt>
      <trkpt lat="46.96127" lon="8.74766">
        <ele>1082</ele>
        <time>2021-08-06T09:57:03.354Z</time>
      </trkpt>
      <trkpt lat="46.96126" lon="8.74765">
        <ele>1082</ele>
        <time>2021-08-06T09:57:04.355Z</time>
      </trkpt>
      <trkpt lat="46.96126" lon="8.74763">
        <ele>1082</ele>
        <time>2021-08-06T09:57:05.355Z</time>
      </trkpt>
      <trkpt lat="46.96125" lon="8.74762">
        <ele>1082</ele>
        <time>2021-08-06T09:57:06.354Z</time>
      </trkpt>
      <trkpt lat="46.96125" lon="8.74761">
        <ele>1082</ele>
        <time>2021-08-06T09:57:07.354Z</time>
      </trkpt>
      <trkpt lat="46.96124" lon="8.7476">
        <ele>1082</ele>
        <time>2021-08-06T09:57:08.354Z</time>
      </trkpt>
      <trkpt lat="46.96124" lon="8.74758">
        <ele>1082</ele>
        <time>2021-08-06T09:57:09.354Z</time>
      </trkpt>
      <trkpt lat="46.96124" lon="8.74757">
        <ele>1082</ele>
        <time>2021-08-06T09:57:10.354Z</time>
      </trkpt>
      <trkpt lat="46.96124" lon="8.74755">
        <ele>1082</ele>
        <time>2021-08-06T09:57:11.354Z</time>
      </trkpt>
      <trkpt lat="46.96124" lon="8.74754">
        <ele>1082</ele>
        <time>2021-08-06T09:57:12.354Z</time>
      </trkpt>
      <trkpt lat="46.96123" lon="8.74753">
        <ele>1082</ele>
        <time>2021-08-06T09:57:13.355Z</time>
      </trkpt>
      <trkpt lat="46.96124" lon="8.74751">
        <ele>1082</ele>
        <time>2021-08-06T09:57:14.354Z</time>
      </trkpt>
      <trkpt lat="46.96124" lon="8.74749">
        <ele>1083</ele>
        <time>2021-08-06T09:57:15.355Z</time>
      </trkpt>
      <trkpt lat="46.96124" lon="8.74748">
        <ele>1083</ele>
        <time>2021-08-06T09:57:16.355Z</time>
      </trkpt>
      <trkpt lat="46.96124" lon="8.74747">
        <ele>1083</ele>
        <time>2021-08-06T09:57:17.355Z</time>
      </trkpt>
      <trkpt lat="46.96124" lon="8.74746">
        <ele>1084</ele>
        <time>2021-08-06T09:57:18.354Z</time>
      </trkpt>
      <trkpt lat="46.96124" lon="8.74744">
        <ele>1084</ele>
        <time>2021-08-06T09:57:19.355Z</time>
      </trkpt>
      <trkpt lat="46.96124" lon="8.74743">
        <ele>1084</ele>
        <time>2021-08-06T09:57:20.355Z</time>
      </trkpt>
      <trkpt lat="46.96125" lon="8.74741">
        <ele>1084</ele>
        <time>2021-08-06T09:57:21.354Z</time>
      </trkpt>
      <trkpt lat="46.96125" lon="8.7474">
        <ele>1084</ele>
        <time>2021-08-06T09:57:22.354Z</time>
      </trkpt>
      <trkpt lat="46.96125" lon="8.7474">
        <ele>1084</ele>
        <time>2021-08-06T09:57:23.354Z</time>
      </trkpt>
      <trkpt lat="46.96126" lon="8.74739">
        <ele>1085</ele>
        <time>2021-08-06T09:57:24.354Z</time>
      </trkpt>
      <trkpt lat="46.96126" lon="8.74738">
        <ele>1086</ele>
        <time>2021-08-06T09:57:25.355Z</time>
      </trkpt>
      <trkpt lat="46.96126" lon="8.74737">
        <ele>1086</ele>
        <time>2021-08-06T09:57:26.355Z</time>
      </trkpt>
      <trkpt lat="46.96126" lon="8.74736">
        <ele>1087</ele>
        <time>2021-08-06T09:57:27.355Z</time>
      </trkpt>
      <trkpt lat="46.96126" lon="8.74734">
        <ele>1087</ele>
        <time>2021-08-06T09:57:28.354Z</time>
      </trkpt>
      <trkpt lat="46.96127" lon="8.74733">
        <ele>1088</ele>
        <time>2021-08-06T09:57:29.355Z</time>
      </trkpt>
      <trkpt lat="46.96127" lon="8.74732">
        <ele>1088</ele>
        <time>2021-08-06T09:57:30.354Z</time>
      </trkpt>
      <trkpt lat="46.96127" lon="8.74731">
        <ele>1088</ele>
        <time>2021-08-06T09:57:31.355Z</time>
      </trkpt>
      <trkpt lat="46.96126" lon="8.7473">
        <ele>1088</ele>
        <time>2021-08-06T09:57:32.355Z</time>
      </trkpt>
      <trkpt lat="46.96126" lon="8.74729">
        <ele>1088</ele>
        <time>2021-08-06T09:57:33.355Z</time>
      </trkpt>
      <trkpt lat="46.96125" lon="8.74728">
        <ele>1088</ele>
        <time>2021-08-06T09:57:34.355Z</time>
      </trkpt>
      <trkpt lat="46.96125" lon="8.74727">
        <ele>1088</ele>
        <time>2021-08-06T09:57:35.355Z</time>
      </trkpt>
      <trkpt lat="46.96125" lon="8.74726">
        <ele>1088</ele>
        <time>2021-08-06T09:57:36.354Z</time>
      </trkpt>
      <trkpt lat="46.96126" lon="8.74723">
        <ele>1088</ele>
        <time>2021-08-06T09:57:37.355Z</time>
      </trkpt>
      <trkpt lat="46.96125" lon="8.74722">
        <ele>1088</ele>
        <time>2021-08-06T09:57:38.354Z</time>
      </trkpt>
      <trkpt lat="46.96126" lon="8.74721">
        <ele>1089</ele>
        <time>2021-08-06T09:57:39.354Z</time>
      </trkpt>
      <trkpt lat="46.96127" lon="8.74719">
        <ele>1089</ele>
        <time>2021-08-06T09:57:40.355Z</time>
      </trkpt>
      <trkpt lat="46.96127" lon="8.74717">
        <ele>1090</ele>
        <time>2021-08-06T09:57:41.355Z</time>
      </trkpt>
      <trkpt lat="46.96127" lon="8.74715">
        <ele>1091</ele>
        <time>2021-08-06T09:57:42.355Z</time>
      </trkpt>
      <trkpt lat="46.96128" lon="8.74714">
        <ele>1092</ele>
        <time>2021-08-06T09:57:43.354Z</time>
      </trkpt>
      <trkpt lat="46.96128" lon="8.74712">
        <ele>1092</ele>
        <time>2021-08-06T09:57:44.354Z</time>
      </trkpt>
      <trkpt lat="46.96127" lon="8.74711">
        <ele>1093</ele>
        <time>2021-08-06T09:57:45.354Z</time>
      </trkpt>
      <trkpt lat="46.96126" lon="8.7471">
        <ele>1094</ele>
        <time>2021-08-06T09:57:46.355Z</time>
      </trkpt>
      <trkpt lat="46.96126" lon="8.74708">
        <ele>1095</ele>
        <time>2021-08-06T09:57:47.355Z</time>
      </trkpt>
      <trkpt lat="46.96125" lon="8.74707">
        <ele>1095</ele>
        <time>2021-08-06T09:57:48.355Z</time>
      </trkpt>
      <trkpt lat="46.96125" lon="8.74705">
        <ele>1095</ele>
        <time>2021-08-06T09:57:49.355Z</time>
      </trkpt>
      <trkpt lat="46.96125" lon="8.74704">
        <ele>1096</ele>
        <time>2021-08-06T09:57:50.355Z</time>
      </trkpt>
      <trkpt lat="46.96124" lon="8.74703">
        <ele>1096</ele>
        <time>2021-08-06T09:57:51.355Z</time>
      </trkpt>
      <trkpt lat="46.96123" lon="8.74702">
        <ele>1096</ele>
        <time>2021-08-06T09:57:52.354Z</time>
      </trkpt>
      <trkpt lat="46.96122" lon="8.74702">
        <ele>1096</ele>
        <time>2021-08-06T09:57:53.354Z</time>
      </trkpt>
      <trkpt lat="46.96121" lon="8.74701">
        <ele>1096</ele>
        <time>2021-08-06T09:57:54.355Z</time>
      </trkpt>
      <trkpt lat="46.96121" lon="8.74699">
        <ele>1096</ele>
        <time>2021-08-06T09:57:55.355Z</time>
      </trkpt>
      <trkpt lat="46.9612" lon="8.74698">
        <ele>1096</ele>
        <time>2021-08-06T09:57:56.354Z</time>
      </trkpt>
      <trkpt lat="46.96119" lon="8.74696">
        <ele>1096</ele>
        <time>2021-08-06T09:57:57.355Z</time>
      </trkpt>
      <trkpt lat="46.96118" lon="8.74695">
        <ele>1096</ele>
        <time>2021-08-06T09:57:58.355Z</time>
      </trkpt>
      <trkpt lat="46.96116" lon="8.74694">
        <ele>1095</ele>
        <time>2021-08-06T09:57:59.355Z</time>
      </trkpt>
      <trkpt lat="46.96114" lon="8.74693">
        <ele>1095</ele>
        <time>2021-08-06T09:58:00.354Z</time>
      </trkpt>
      <trkpt lat="46.96112" lon="8.74692">
        <ele>1095</ele>
        <time>2021-08-06T09:58:01.354Z</time>
      </trkpt>
      <trkpt lat="46.96112" lon="8.74691">
        <ele>1095</ele>
        <time>2021-08-06T09:58:02.355Z</time>
      </trkpt>
      <trkpt lat="46.96112" lon="8.74691">
        <ele>1095</ele>
        <time>2021-08-06T09:58:03.355Z</time>
      </trkpt>
      <trkpt lat="46.96111" lon="8.7469">
        <ele>1095</ele>
        <time>2021-08-06T09:58:04.355Z</time>
      </trkpt>
      <trkpt lat="46.9611" lon="8.74689">
        <ele>1096</ele>
        <time>2021-08-06T09:58:05.355Z</time>
      </trkpt>
      <trkpt lat="46.9611" lon="8.74688">
        <ele>1096</ele>
        <time>2021-08-06T09:58:06.355Z</time>
      </trkpt>
      <trkpt lat="46.96109" lon="8.74687">
        <ele>1096</ele>
        <time>2021-08-06T09:58:07.355Z</time>
      </trkpt>
      <trkpt lat="46.96108" lon="8.74686">
        <ele>1096</ele>
        <time>2021-08-06T09:58:08.355Z</time>
      </trkpt>
      <trkpt lat="46.96107" lon="8.74686">
        <ele>1096</ele>
        <time>2021-08-06T09:58:09.355Z</time>
      </trkpt>
      <trkpt lat="46.96106" lon="8.74686">
        <ele>1097</ele>
        <time>2021-08-06T09:58:10.354Z</time>
      </trkpt>
      <trkpt lat="46.96105" lon="8.74686">
        <ele>1097</ele>
        <time>2021-08-06T09:58:11.355Z</time>
      </trkpt>
      <trkpt lat="46.96103" lon="8.74685">
        <ele>1098</ele>
        <time>2021-08-06T09:58:12.354Z</time>
      </trkpt>
      <trkpt lat="46.96102" lon="8.74685">
        <ele>1098</ele>
        <time>2021-08-06T09:58:13.354Z</time>
      </trkpt>
      <trkpt lat="46.96101" lon="8.74684">
        <ele>1099</ele>
        <time>2021-08-06T09:58:14.355Z</time>
      </trkpt>
      <trkpt lat="46.96101" lon="8.74682">
        <ele>1099</ele>
        <time>2021-08-06T09:58:15.354Z</time>
      </trkpt>
      <trkpt lat="46.96101" lon="8.74681">
        <ele>1100</ele>
        <time>2021-08-06T09:58:16.354Z</time>
      </trkpt>
      <trkpt lat="46.961" lon="8.7468">
        <ele>1100</ele>
        <time>2021-08-06T09:58:17.355Z</time>
      </trkpt>
      <trkpt lat="46.96099" lon="8.74679">
        <ele>1100</ele>
        <time>2021-08-06T09:58:18.355Z</time>
      </trkpt>
      <trkpt lat="46.96098" lon="8.74678">
        <ele>1100</ele>
        <time>2021-08-06T09:58:19.355Z</time>
      </trkpt>
      <trkpt lat="46.96097" lon="8.74678">
        <ele>1099</ele>
        <time>2021-08-06T09:58:20.354Z</time>
      </trkpt>
      <trkpt lat="46.96096" lon="8.74677">
        <ele>1099</ele>
        <time>2021-08-06T09:58:21.354Z</time>
      </trkpt>
      <trkpt lat="46.96095" lon="8.74677">
        <ele>1099</ele>
        <time>2021-08-06T09:58:22.355Z</time>
      </trkpt>
      <trkpt lat="46.96095" lon="8.74676">
        <ele>1098</ele>
        <time>2021-08-06T09:58:23.354Z</time>
      </trkpt>
      <trkpt lat="46.96094" lon="8.74675">
        <ele>1098</ele>
        <time>2021-08-06T09:58:24.355Z</time>
      </trkpt>
      <trkpt lat="46.96094" lon="8.74674">
        <ele>1098</ele>
        <time>2021-08-06T09:58:25.355Z</time>
      </trkpt>
      <trkpt lat="46.96093" lon="8.74673">
        <ele>1098</ele>
        <time>2021-08-06T09:58:26.354Z</time>
      </trkpt>
      <trkpt lat="46.96092" lon="8.74673">
        <ele>1098</ele>
        <time>2021-08-06T09:58:27.355Z</time>
      </trkpt>
      <trkpt lat="46.96091" lon="8.74672">
        <ele>1098</ele>
        <time>2021-08-06T09:58:28.354Z</time>
      </trkpt>
      <trkpt lat="46.9609" lon="8.74671">
        <ele>1098</ele>
        <time>2021-08-06T09:58:29.355Z</time>
      </trkpt>
      <trkpt lat="46.96089" lon="8.7467">
        <ele>1098</ele>
        <time>2021-08-06T09:58:30.355Z</time>
      </trkpt>
      <trkpt lat="46.96088" lon="8.7467">
        <ele>1097</ele>
        <time>2021-08-06T09:58:31.355Z</time>
      </trkpt>
      <trkpt lat="46.96087" lon="8.74668">
        <ele>1097</ele>
        <time>2021-08-06T09:58:32.355Z</time>
      </trkpt>
      <trkpt lat="46.96086" lon="8.74668">
        <ele>1096</ele>
        <time>2021-08-06T09:58:33.354Z</time>
      </trkpt>
      <trkpt lat="46.96085" lon="8.74666">
        <ele>1096</ele>
        <time>2021-08-06T09:58:34.354Z</time>
      </trkpt>
      <trkpt lat="46.96085" lon="8.74665">
        <ele>1095</ele>
        <time>2021-08-06T09:58:35.354Z</time>
      </trkpt>
      <trkpt lat="46.96084" lon="8.74664">
        <ele>1095</ele>
        <time>2021-08-06T09:58:36.355Z</time>
      </trkpt>
      <trkpt lat="46.96084" lon="8.74662">
        <ele>1095</ele>
        <time>2021-08-06T09:58:37.355Z</time>
      </trkpt>
      <trkpt lat="46.96083" lon="8.74661">
        <ele>1095</ele>
        <time>2021-08-06T09:58:38.355Z</time>
      </trkpt>
      <trkpt lat="46.96083" lon="8.7466">
        <ele>1096</ele>
        <time>2021-08-06T09:58:39.354Z</time>
      </trkpt>
      <trkpt lat="46.96082" lon="8.7466">
        <ele>1096</ele>
        <time>2021-08-06T09:58:40.355Z</time>
      </trkpt>
      <trkpt lat="46.96081" lon="8.74659">
        <ele>1095</ele>
        <time>2021-08-06T09:58:41.354Z</time>
      </trkpt>
      <trkpt lat="46.9608" lon="8.74658">
        <ele>1095</ele>
        <time>2021-08-06T09:58:42.354Z</time>
      </trkpt>
      <trkpt lat="46.9608" lon="8.74657">
        <ele>1094</ele>
        <time>2021-08-06T09:58:43.355Z</time>
      </trkpt>
      <trkpt lat="46.96079" lon="8.74657">
        <ele>1093</ele>
        <time>2021-08-06T09:58:44.355Z</time>
      </trkpt>
      <trkpt lat="46.96078" lon="8.74656">
        <ele>1093</ele>
        <time>2021-08-06T09:58:45.354Z</time>
      </trkpt>
      <trkpt lat="46.96078" lon="8.74656">
        <ele>1093</ele>
        <time>2021-08-06T09:58:46.355Z</time>
      </trkpt>
      <trkpt lat="46.96077" lon="8.74655">
        <ele>1092</ele>
        <time>2021-08-06T09:58:47.355Z</time>
      </trkpt>
      <trkpt lat="46.96076" lon="8.74654">
        <ele>1092</ele>
        <time>2021-08-06T09:58:48.355Z</time>
      </trkpt>
      <trkpt lat="46.96075" lon="8.74653">
        <ele>1092</ele>
        <time>2021-08-06T09:58:49.355Z</time>
      </trkpt>
      <trkpt lat="46.96074" lon="8.74652">
        <ele>1092</ele>
        <time>2021-08-06T09:58:50.355Z</time>
      </trkpt>
      <trkpt lat="46.96073" lon="8.74651">
        <ele>1091</ele>
        <time>2021-08-06T09:58:51.355Z</time>
      </trkpt>
      <trkpt lat="46.96072" lon="8.7465">
        <ele>1091</ele>
        <time>2021-08-06T09:58:52.354Z</time>
      </trkpt>
      <trkpt lat="46.96071" lon="8.74649">
        <ele>1091</ele>
        <time>2021-08-06T09:58:53.354Z</time>
      </trkpt>
      <trkpt lat="46.96069" lon="8.74648">
        <ele>1091</ele>
        <time>2021-08-06T09:58:54.355Z</time>
      </trkpt>
      <trkpt lat="46.96068" lon="8.74646">
        <ele>1091</ele>
        <time>2021-08-06T09:58:55.355Z</time>
      </trkpt>
      <trkpt lat="46.96067" lon="8.74646">
        <ele>1091</ele>
        <time>2021-08-06T09:58:56.354Z</time>
      </trkpt>
      <trkpt lat="46.96065" lon="8.74645">
        <ele>1091</ele>
        <time>2021-08-06T09:58:57.354Z</time>
      </trkpt>
      <trkpt lat="46.96064" lon="8.74644">
        <ele>1091</ele>
        <time>2021-08-06T09:58:58.355Z</time>
      </trkpt>
      <trkpt lat="46.96062" lon="8.74643">
        <ele>1091</ele>
        <time>2021-08-06T09:58:59.354Z</time>
      </trkpt>
      <trkpt lat="46.96061" lon="8.74643">
        <ele>1091</ele>
        <time>2021-08-06T09:59:00.355Z</time>
      </trkpt>
      <trkpt lat="46.9606" lon="8.74642">
        <ele>1091</ele>
        <time>2021-08-06T09:59:01.355Z</time>
      </trkpt>
      <trkpt lat="46.96059" lon="8.74641">
        <ele>1091</ele>
        <time>2021-08-06T09:59:02.354Z</time>
      </trkpt>
      <trkpt lat="46.96058" lon="8.74641">
        <ele>1092</ele>
        <time>2021-08-06T09:59:03.354Z</time>
      </trkpt>
      <trkpt lat="46.96058" lon="8.74641">
        <ele>1092</ele>
        <time>2021-08-06T09:59:04.355Z</time>
      </trkpt>
      <trkpt lat="46.96057" lon="8.7464">
        <ele>1092</ele>
        <time>2021-08-06T09:59:05.354Z</time>
      </trkpt>
      <trkpt lat="46.96056" lon="8.74639">
        <ele>1092</ele>
        <time>2021-08-06T09:59:06.354Z</time>
      </trkpt>
      <trkpt lat="46.96054" lon="8.74638">
        <ele>1092</ele>
        <time>2021-08-06T09:59:07.354Z</time>
      </trkpt>
      <trkpt lat="46.96052" lon="8.74637">
        <ele>1092</ele>
        <time>2021-08-06T09:59:08.355Z</time>
      </trkpt>
      <trkpt lat="46.9605" lon="8.74637">
        <ele>1093</ele>
        <time>2021-08-06T09:59:09.354Z</time>
      </trkpt>
      <trkpt lat="46.96049" lon="8.74636">
        <ele>1093</ele>
        <time>2021-08-06T09:59:10.354Z</time>
      </trkpt>
      <trkpt lat="46.96048" lon="8.74635">
        <ele>1093</ele>
        <time>2021-08-06T09:59:11.355Z</time>
      </trkpt>
      <trkpt lat="46.96046" lon="8.74635">
        <ele>1092</ele>
        <time>2021-08-06T09:59:12.354Z</time>
      </trkpt>
      <trkpt lat="46.96045" lon="8.74634">
        <ele>1093</ele>
        <time>2021-08-06T09:59:13.354Z</time>
      </trkpt>
      <trkpt lat="46.96044" lon="8.74634">
        <ele>1093</ele>
        <time>2021-08-06T09:59:14.355Z</time>
      </trkpt>
      <trkpt lat="46.96043" lon="8.74634">
        <ele>1094</ele>
        <time>2021-08-06T09:59:15.355Z</time>
      </trkpt>
      <trkpt lat="46.96042" lon="8.74633">
        <ele>1094</ele>
        <time>2021-08-06T09:59:16.355Z</time>
      </trkpt>
      <trkpt lat="46.96042" lon="8.74633">
        <ele>1094</ele>
        <time>2021-08-06T09:59:17.354Z</time>
      </trkpt>
      <trkpt lat="46.96042" lon="8.74632">
        <ele>1095</ele>
        <time>2021-08-06T09:59:18.355Z</time>
      </trkpt>
      <trkpt lat="46.96041" lon="8.74632">
        <ele>1095</ele>
        <time>2021-08-06T09:59:19.354Z</time>
      </trkpt>
      <trkpt lat="46.9604" lon="8.74632">
        <ele>1095</ele>
        <time>2021-08-06T09:59:20.354Z</time>
      </trkpt>
      <trkpt lat="46.96039" lon="8.74632">
        <ele>1095</ele>
        <time>2021-08-06T09:59:21.354Z</time>
      </trkpt>
      <trkpt lat="46.96038" lon="8.74631">
        <ele>1096</ele>
        <time>2021-08-06T09:59:22.355Z</time>
      </trkpt>
      <trkpt lat="46.96036" lon="8.74631">
        <ele>1096</ele>
        <time>2021-08-06T09:59:23.355Z</time>
      </trkpt>
      <trkpt lat="46.96035" lon="8.7463">
        <ele>1096</ele>
        <time>2021-08-06T09:59:24.354Z</time>
      </trkpt>
      <trkpt lat="46.96034" lon="8.7463">
        <ele>1096</ele>
        <time>2021-08-06T09:59:25.354Z</time>
      </trkpt>
      <trkpt lat="46.96034" lon="8.74629">
        <ele>1096</ele>
        <time>2021-08-06T09:59:26.355Z</time>
      </trkpt>
      <trkpt lat="46.96034" lon="8.74628">
        <ele>1097</ele>
        <time>2021-08-06T09:59:27.355Z</time>
      </trkpt>
      <trkpt lat="46.96034" lon="8.74627">
        <ele>1097</ele>
        <time>2021-08-06T09:59:28.354Z</time>
      </trkpt>
      <trkpt lat="46.96034" lon="8.74625">
        <ele>1097</ele>
        <time>2021-08-06T09:59:29.354Z</time>
      </trkpt>
      <trkpt lat="46.96035" lon="8.74624">
        <ele>1097</ele>
        <time>2021-08-06T09:59:30.354Z</time>
      </trkpt>
      <trkpt lat="46.96036" lon="8.74622">
        <ele>1097</ele>
        <time>2021-08-06T09:59:31.355Z</time>
      </trkpt>
      <trkpt lat="46.96036" lon="8.74621">
        <ele>1097</ele>
        <time>2021-08-06T09:59:32.355Z</time>
      </trkpt>
      <trkpt lat="46.96035" lon="8.7462">
        <ele>1097</ele>
        <time>2021-08-06T09:59:33.355Z</time>
      </trkpt>
      <trkpt lat="46.96034" lon="8.74619">
        <ele>1097</ele>
        <time>2021-08-06T09:59:34.355Z</time>
      </trkpt>
      <trkpt lat="46.96033" lon="8.74619">
        <ele>1097</ele>
        <time>2021-08-06T09:59:35.354Z</time>
      </trkpt>
      <trkpt lat="46.96032" lon="8.74618">
        <ele>1097</ele>
        <time>2021-08-06T09:59:36.355Z</time>
      </trkpt>
      <trkpt lat="46.96029" lon="8.74619">
        <ele>1097</ele>
        <time>2021-08-06T09:59:37.355Z</time>
      </trkpt>
      <trkpt lat="46.96026" lon="8.74619">
        <ele>1097</ele>
        <time>2021-08-06T09:59:38.355Z</time>
      </trkpt>
      <trkpt lat="46.96024" lon="8.74619">
        <ele>1096</ele>
        <time>2021-08-06T09:59:39.354Z</time>
      </trkpt>
      <trkpt lat="46.96023" lon="8.74617">
        <ele>1096</ele>
        <time>2021-08-06T09:59:40.354Z</time>
      </trkpt>
      <trkpt lat="46.96023" lon="8.74616">
        <ele>1096</ele>
        <time>2021-08-06T09:59:41.355Z</time>
      </trkpt>
      <trkpt lat="46.96023" lon="8.74614">
        <ele>1096</ele>
        <time>2021-08-06T09:59:42.355Z</time>
      </trkpt>
      <trkpt lat="46.96023" lon="8.74613">
        <ele>1097</ele>
        <time>2021-08-06T09:59:43.354Z</time>
      </trkpt>
      <trkpt lat="46.96023" lon="8.74612">
        <ele>1097</ele>
        <time>2021-08-06T09:59:44.354Z</time>
      </trkpt>
      <trkpt lat="46.96023" lon="8.74611">
        <ele>1097</ele>
        <time>2021-08-06T09:59:45.354Z</time>
      </trkpt>
      <trkpt lat="46.96024" lon="8.74609">
        <ele>1098</ele>
        <time>2021-08-06T09:59:46.354Z</time>
      </trkpt>
      <trkpt lat="46.96025" lon="8.74608">
        <ele>1099</ele>
        <time>2021-08-06T09:59:47.355Z</time>
      </trkpt>
      <trkpt lat="46.96024" lon="8.74608">
        <ele>1099</ele>
        <time>2021-08-06T09:59:48.354Z</time>
      </trkpt>
      <trkpt lat="46.96023" lon="8.74608">
        <ele>1100</ele>
        <time>2021-08-06T09:59:49.355Z</time>
      </trkpt>
      <trkpt lat="46.96022" lon="8.74607">
        <ele>1100</ele>
        <time>2021-08-06T09:59:50.355Z</time>
      </trkpt>
      <trkpt lat="46.9602" lon="8.74607">
        <ele>1100</ele>
        <time>2021-08-06T09:59:51.355Z</time>
      </trkpt>
      <trkpt lat="46.96019" lon="8.74606">
        <ele>1100</ele>
        <time>2021-08-06T09:59:52.355Z</time>
      </trkpt>
      <trkpt lat="46.96017" lon="8.74605">
        <ele>1100</ele>
        <time>2021-08-06T09:59:53.354Z</time>
      </trkpt>
      <trkpt lat="46.96015" lon="8.74604">
        <ele>1100</ele>
        <time>2021-08-06T09:59:54.354Z</time>
      </trkpt>
      <trkpt lat="46.96014" lon="8.74604">
        <ele>1100</ele>
        <time>2021-08-06T09:59:55.355Z</time>
      </trkpt>
      <trkpt lat="46.96012" lon="8.74603">
        <ele>1100</ele>
        <time>2021-08-06T09:59:56.354Z</time>
      </trkpt>
      <trkpt lat="46.96011" lon="8.74602">
        <ele>1100</ele>
        <time>2021-08-06T09:59:57.354Z</time>
      </trkpt>
      <trkpt lat="46.96011" lon="8.74601">
        <ele>1100</ele>
        <time>2021-08-06T09:59:58.354Z</time>
      </trkpt>
      <trkpt lat="46.96011" lon="8.746">
        <ele>1099</ele>
        <time>2021-08-06T09:59:59.355Z</time>
      </trkpt>
      <trkpt lat="46.96009" lon="8.74599">
        <ele>1099</ele>
        <time>2021-08-06T10:00:00.355Z</time>
      </trkpt>
      <trkpt lat="46.96008" lon="8.74598">
        <ele>1100</ele>
        <time>2021-08-06T10:00:01.355Z</time>
      </trkpt>
      <trkpt lat="46.96007" lon="8.74597">
        <ele>1100</ele>
        <time>2021-08-06T10:00:02.354Z</time>
      </trkpt>
      <trkpt lat="46.96006" lon="8.74596">
        <ele>1100</ele>
        <time>2021-08-06T10:00:03.354Z</time>
      </trkpt>
      <trkpt lat="46.96005" lon="8.74595">
        <ele>1100</ele>
        <time>2021-08-06T10:00:04.355Z</time>
      </trkpt>
      <trkpt lat="46.96004" lon="8.74594">
        <ele>1100</ele>
        <time>2021-08-06T10:00:05.355Z</time>
      </trkpt>
      <trkpt lat="46.96002" lon="8.74593">
        <ele>1100</ele>
        <time>2021-08-06T10:00:06.354Z</time>
      </trkpt>
      <trkpt lat="46.96001" lon="8.74593">
        <ele>1100</ele>
        <time>2021-08-06T10:00:07.354Z</time>
      </trkpt>
      <trkpt lat="46.96" lon="8.74592">
        <ele>1101</ele>
        <time>2021-08-06T10:00:08.354Z</time>
      </trkpt>
      <trkpt lat="46.96" lon="8.74591">
        <ele>1102</ele>
        <time>2021-08-06T10:00:09.355Z</time>
      </trkpt>
      <trkpt lat="46.96" lon="8.74589">
        <ele>1102</ele>
        <time>2021-08-06T10:00:10.355Z</time>
      </trkpt>
      <trkpt lat="46.95999" lon="8.74588">
        <ele>1103</ele>
        <time>2021-08-06T10:00:11.355Z</time>
      </trkpt>
      <trkpt lat="46.95997" lon="8.74587">
        <ele>1104</ele>
        <time>2021-08-06T10:00:12.354Z</time>
      </trkpt>
      <trkpt lat="46.95996" lon="8.74586">
        <ele>1104</ele>
        <time>2021-08-06T10:00:13.354Z</time>
      </trkpt>
      <trkpt lat="46.95994" lon="8.74585">
        <ele>1105</ele>
        <time>2021-08-06T10:00:14.355Z</time>
      </trkpt>
      <trkpt lat="46.95992" lon="8.74584">
        <ele>1105</ele>
        <time>2021-08-06T10:00:15.355Z</time>
      </trkpt>
      <trkpt lat="46.95991" lon="8.74583">
        <ele>1106</ele>
        <time>2021-08-06T10:00:16.355Z</time>
      </trkpt>
      <trkpt lat="46.95991" lon="8.74582">
        <ele>1106</ele>
        <time>2021-08-06T10:00:17.355Z</time>
      </trkpt>
      <trkpt lat="46.95989" lon="8.74581">
        <ele>1106</ele>
        <time>2021-08-06T10:00:18.354Z</time>
      </trkpt>
      <trkpt lat="46.95988" lon="8.74581">
        <ele>1107</ele>
        <time>2021-08-06T10:00:19.355Z</time>
      </trkpt>
      <trkpt lat="46.95987" lon="8.7458">
        <ele>1107</ele>
        <time>2021-08-06T10:00:20.354Z</time>
      </trkpt>
      <trkpt lat="46.95987" lon="8.74579">
        <ele>1108</ele>
        <time>2021-08-06T10:00:21.355Z</time>
      </trkpt>
      <trkpt lat="46.95987" lon="8.74578">
        <ele>1109</ele>
        <time>2021-08-06T10:00:22.354Z</time>
      </trkpt>
      <trkpt lat="46.95986" lon="8.74577">
        <ele>1109</ele>
        <time>2021-08-06T10:00:23.354Z</time>
      </trkpt>
      <trkpt lat="46.95986" lon="8.74576">
        <ele>1109</ele>
        <time>2021-08-06T10:00:24.355Z</time>
      </trkpt>
      <trkpt lat="46.95985" lon="8.74574">
        <ele>1109</ele>
        <time>2021-08-06T10:00:25.355Z</time>
      </trkpt>
      <trkpt lat="46.95985" lon="8.74573">
        <ele>1109</ele>
        <time>2021-08-06T10:00:26.354Z</time>
      </trkpt>
      <trkpt lat="46.95986" lon="8.74571">
        <ele>1109</ele>
        <time>2021-08-06T10:00:27.354Z</time>
      </trkpt>
      <trkpt lat="46.95986" lon="8.7457">
        <ele>1109</ele>
        <time>2021-08-06T10:00:28.355Z</time>
      </trkpt>
      <trkpt lat="46.95987" lon="8.74568">
        <ele>1109</ele>
        <time>2021-08-06T10:00:29.355Z</time>
      </trkpt>
      <trkpt lat="46.95989" lon="8.74566">
        <ele>1110</ele>
        <time>2021-08-06T10:00:30.355Z</time>
      </trkpt>
      <trkpt lat="46.95991" lon="8.74564">
        <ele>1110</ele>
        <time>2021-08-06T10:00:31.355Z</time>
      </trkpt>
      <trkpt lat="46.95992" lon="8.74562">
        <ele>1110</ele>
        <time>2021-08-06T10:00:32.355Z</time>
      </trkpt>
      <trkpt lat="46.95994" lon="8.74559">
        <ele>1111</ele>
        <time>2021-08-06T10:00:33.355Z</time>
      </trkpt>
      <trkpt lat="46.95995" lon="8.74559">
        <ele>1112</ele>
        <time>2021-08-06T10:00:34.354Z</time>
      </trkpt>
      <trkpt lat="46.95997" lon="8.74557">
        <ele>1112</ele>
        <time>2021-08-06T10:00:35.354Z</time>
      </trkpt>
      <trkpt lat="46.95997" lon="8.74556">
        <ele>1113</ele>
        <time>2021-08-06T10:00:36.355Z</time>
      </trkpt>
      <trkpt lat="46.95996" lon="8.74555">
        <ele>1113</ele>
        <time>2021-08-06T10:00:37.355Z</time>
      </trkpt>
      <trkpt lat="46.95997" lon="8.74554">
        <ele>1113</ele>
        <time>2021-08-06T10:00:38.355Z</time>
      </trkpt>
      <trkpt lat="46.95996" lon="8.74553">
        <ele>1114</ele>
        <time>2021-08-06T10:00:39.354Z</time>
      </trkpt>
      <trkpt lat="46.95996" lon="8.74551">
        <ele>1114</ele>
        <time>2021-08-06T10:00:40.355Z</time>
      </trkpt>
      <trkpt lat="46.95996" lon="8.7455">
        <ele>1114</ele>
        <time>2021-08-06T10:00:41.355Z</time>
      </trkpt>
      <trkpt lat="46.95996" lon="8.74549">
        <ele>1115</ele>
        <time>2021-08-06T10:00:42.354Z</time>
      </trkpt>
      <trkpt lat="46.95996" lon="8.74547">
        <ele>1115</ele>
        <time>2021-08-06T10:00:43.354Z</time>
      </trkpt>
      <trkpt lat="46.95996" lon="8.74546">
        <ele>1116</ele>
        <time>2021-08-06T10:00:44.354Z</time>
      </trkpt>
      <trkpt lat="46.95996" lon="8.74545">
        <ele>1116</ele>
        <time>2021-08-06T10:00:45.355Z</time>
      </trkpt>
      <trkpt lat="46.95997" lon="8.74543">
        <ele>1116</ele>
        <time>2021-08-06T10:00:46.354Z</time>
      </trkpt>
      <trkpt lat="46.95997" lon="8.74542">
        <ele>1117</ele>
        <time>2021-08-06T10:00:47.355Z</time>
      </trkpt>
      <trkpt lat="46.95998" lon="8.74541">
        <ele>1117</ele>
        <time>2021-08-06T10:00:48.354Z</time>
      </trkpt>
      <trkpt lat="46.95998" lon="8.74539">
        <ele>1117</ele>
        <time>2021-08-06T10:00:49.355Z</time>
      </trkpt>
      <trkpt lat="46.95998" lon="8.74538">
        <ele>1117</ele>
        <time>2021-08-06T10:00:50.354Z</time>
      </trkpt>
      <trkpt lat="46.95998" lon="8.74537">
        <ele>1117</ele>
        <time>2021-08-06T10:00:51.354Z</time>
      </trkpt>
      <trkpt lat="46.95998" lon="8.74536">
        <ele>1117</ele>
        <time>2021-08-06T10:00:52.354Z</time>
      </trkpt>
      <trkpt lat="46.95999" lon="8.74534">
        <ele>1117</ele>
        <time>2021-08-06T10:00:53.354Z</time>
      </trkpt>
      <trkpt lat="46.96" lon="8.74532">
        <ele>1117</ele>
        <time>2021-08-06T10:00:54.355Z</time>
      </trkpt>
      <trkpt lat="46.95999" lon="8.7453">
        <ele>1118</ele>
        <time>2021-08-06T10:00:55.355Z</time>
      </trkpt>
      <trkpt lat="46.95997" lon="8.7453">
        <ele>1119</ele>
        <time>2021-08-06T10:00:56.354Z</time>
      </trkpt>
      <trkpt lat="46.95996" lon="8.7453">
        <ele>1119</ele>
        <time>2021-08-06T10:00:57.354Z</time>
      </trkpt>
      <trkpt lat="46.95997" lon="8.74529">
        <ele>1119</ele>
        <time>2021-08-06T10:00:58.354Z</time>
      </trkpt>
      <trkpt lat="46.95997" lon="8.74527">
        <ele>1120</ele>
        <time>2021-08-06T10:00:59.355Z</time>
      </trkpt>
      <trkpt lat="46.95997" lon="8.74526">
        <ele>1120</ele>
        <time>2021-08-06T10:01:00.355Z</time>
      </trkpt>
      <trkpt lat="46.95997" lon="8.74524">
        <ele>1121</ele>
        <time>2021-08-06T10:01:01.355Z</time>
      </trkpt>
      <trkpt lat="46.95997" lon="8.74523">
        <ele>1121</ele>
        <time>2021-08-06T10:01:02.354Z</time>
      </trkpt>
      <trkpt lat="46.95998" lon="8.74521">
        <ele>1121</ele>
        <time>2021-08-06T10:01:03.354Z</time>
      </trkpt>
      <trkpt lat="46.95999" lon="8.7452">
        <ele>1122</ele>
        <time>2021-08-06T10:01:04.355Z</time>
      </trkpt>
      <trkpt lat="46.95999" lon="8.74518">
        <ele>1122</ele>
        <time>2021-08-06T10:01:05.354Z</time>
      </trkpt>
      <trkpt lat="46.95999" lon="8.74517">
        <ele>1123</ele>
        <time>2021-08-06T10:01:06.355Z</time>
      </trkpt>
      <trkpt lat="46.95999" lon="8.74515">
        <ele>1123</ele>
        <time>2021-08-06T10:01:07.354Z</time>
      </trkpt>
      <trkpt lat="46.95999" lon="8.74514">
        <ele>1123</ele>
        <time>2021-08-06T10:01:08.355Z</time>
      </trkpt>
      <trkpt lat="46.95999" lon="8.74513">
        <ele>1123</ele>
        <time>2021-08-06T10:01:09.355Z</time>
      </trkpt>
      <trkpt lat="46.95999" lon="8.74512">
        <ele>1123</ele>
        <time>2021-08-06T10:01:10.355Z</time>
      </trkpt>
      <trkpt lat="46.95999" lon="8.7451">
        <ele>1123</ele>
        <time>2021-08-06T10:01:11.354Z</time>
      </trkpt>
      <trkpt lat="46.96" lon="8.74508">
        <ele>1123</ele>
        <time>2021-08-06T10:01:12.355Z</time>
      </trkpt>
      <trkpt lat="46.96001" lon="8.74506">
        <ele>1123</ele>
        <time>2021-08-06T10:01:13.354Z</time>
      </trkpt>
      <trkpt lat="46.96002" lon="8.74503">
        <ele>1123</ele>
        <time>2021-08-06T10:01:14.354Z</time>
      </trkpt>
      <trkpt lat="46.96003" lon="8.74501">
        <ele>1123</ele>
        <time>2021-08-06T10:01:15.355Z</time>
      </trkpt>
      <trkpt lat="46.96003" lon="8.745">
        <ele>1123</ele>
        <time>2021-08-06T10:01:16.355Z</time>
      </trkpt>
      <trkpt lat="46.96004" lon="8.74499">
        <ele>1123</ele>
        <time>2021-08-06T10:01:17.354Z</time>
      </trkpt>
      <trkpt lat="46.96005" lon="8.74497">
        <ele>1124</ele>
        <time>2021-08-06T10:01:18.354Z</time>
      </trkpt>
      <trkpt lat="46.96005" lon="8.74495">
        <ele>1125</ele>
        <time>2021-08-06T10:01:19.354Z</time>
      </trkpt>
      <trkpt lat="46.96006" lon="8.74494">
        <ele>1126</ele>
        <time>2021-08-06T10:01:20.355Z</time>
      </trkpt>
      <trkpt lat="46.96006" lon="8.74492">
        <ele>1126</ele>
        <time>2021-08-06T10:01:21.354Z</time>
      </trkpt>
      <trkpt lat="46.96007" lon="8.74491">
        <ele>1127</ele>
        <time>2021-08-06T10:01:22.355Z</time>
      </trkpt>
      <trkpt lat="46.96007" lon="8.7449">
        <ele>1127</ele>
        <time>2021-08-06T10:01:23.354Z</time>
      </trkpt>
      <trkpt lat="46.96006" lon="8.74489">
        <ele>1128</ele>
        <time>2021-08-06T10:01:24.354Z</time>
      </trkpt>
      <trkpt lat="46.96003" lon="8.74489">
        <ele>1128</ele>
        <time>2021-08-06T10:01:25.354Z</time>
      </trkpt>
      <trkpt lat="46.96001" lon="8.74487">
        <ele>1128</ele>
        <time>2021-08-06T10:01:26.354Z</time>
      </trkpt>
      <trkpt lat="46.96" lon="8.74486">
        <ele>1128</ele>
        <time>2021-08-06T10:01:27.354Z</time>
      </trkpt>
      <trkpt lat="46.95999" lon="8.74485">
        <ele>1128</ele>
        <time>2021-08-06T10:01:28.354Z</time>
      </trkpt>
      <trkpt lat="46.95998" lon="8.74484">
        <ele>1128</ele>
        <time>2021-08-06T10:01:29.354Z</time>
      </trkpt>
      <trkpt lat="46.95998" lon="8.74483">
        <ele>1128</ele>
        <time>2021-08-06T10:01:30.354Z</time>
      </trkpt>
      <trkpt lat="46.95998" lon="8.74482">
        <ele>1128</ele>
        <time>2021-08-06T10:01:31.355Z</time>
      </trkpt>
      <trkpt lat="46.95998" lon="8.7448">
        <ele>1128</ele>
        <time>2021-08-06T10:01:32.354Z</time>
      </trkpt>
      <trkpt lat="46.95998" lon="8.74479">
        <ele>1128</ele>
        <time>2021-08-06T10:01:33.354Z</time>
      </trkpt>
      <trkpt lat="46.95998" lon="8.74478">
        <ele>1128</ele>
        <time>2021-08-06T10:01:34.354Z</time>
      </trkpt>
      <trkpt lat="46.95998" lon="8.74477">
        <ele>1129</ele>
        <time>2021-08-06T10:01:35.354Z</time>
      </trkpt>
      <trkpt lat="46.95998" lon="8.74476">
        <ele>1128</ele>
        <time>2021-08-06T10:01:36.354Z</time>
      </trkpt>
      <trkpt lat="46.95997" lon="8.74475">
        <ele>1128</ele>
        <time>2021-08-06T10:01:37.354Z</time>
      </trkpt>
      <trkpt lat="46.95997" lon="8.74474">
        <ele>1128</ele>
        <time>2021-08-06T10:01:38.354Z</time>
      </trkpt>
      <trkpt lat="46.95996" lon="8.74474">
        <ele>1128</ele>
        <time>2021-08-06T10:01:39.354Z</time>
      </trkpt>
      <trkpt lat="46.95996" lon="8.74473">
        <ele>1128</ele>
        <time>2021-08-06T10:01:40.354Z</time>
      </trkpt>
      <trkpt lat="46.95995" lon="8.74472">
        <ele>1128</ele>
        <time>2021-08-06T10:01:41.354Z</time>
      </trkpt>
      <trkpt lat="46.95994" lon="8.74471">
        <ele>1127</ele>
        <time>2021-08-06T10:01:42.354Z</time>
      </trkpt>
      <trkpt lat="46.95993" lon="8.7447">
        <ele>1127</ele>
        <time>2021-08-06T10:01:43.354Z</time>
      </trkpt>
      <trkpt lat="46.95993" lon="8.74469">
        <ele>1127</ele>
        <time>2021-08-06T10:01:44.354Z</time>
      </trkpt>
      <trkpt lat="46.95993" lon="8.74468">
        <ele>1127</ele>
        <time>2021-08-06T10:01:45.354Z</time>
      </trkpt>
      <trkpt lat="46.95992" lon="8.74467">
        <ele>1127</ele>
        <time>2021-08-06T10:01:46.354Z</time>
      </trkpt>
      <trkpt lat="46.95992" lon="8.74466">
        <ele>1127</ele>
        <time>2021-08-06T10:01:47.354Z</time>
      </trkpt>
      <trkpt lat="46.95991" lon="8.74466">
        <ele>1127</ele>
        <time>2021-08-06T10:01:48.355Z</time>
      </trkpt>
      <trkpt lat="46.9599" lon="8.74465">
        <ele>1127</ele>
        <time>2021-08-06T10:01:49.354Z</time>
      </trkpt>
      <trkpt lat="46.9599" lon="8.74465">
        <ele>1127</ele>
        <time>2021-08-06T10:01:50.355Z</time>
      </trkpt>
      <trkpt lat="46.95989" lon="8.74465">
        <ele>1126</ele>
        <time>2021-08-06T10:01:51.355Z</time>
      </trkpt>
      <trkpt lat="46.95988" lon="8.74465">
        <ele>1126</ele>
        <time>2021-08-06T10:01:52.355Z</time>
      </trkpt>
      <trkpt lat="46.95988" lon="8.74464">
        <ele>1126</ele>
        <time>2021-08-06T10:01:53.355Z</time>
      </trkpt>
      <trkpt lat="46.95988" lon="8.74463">
        <ele>1126</ele>
        <time>2021-08-06T10:01:54.355Z</time>
      </trkpt>
      <trkpt lat="46.95988" lon="8.74462">
        <ele>1125</ele>
        <time>2021-08-06T10:01:55.354Z</time>
      </trkpt>
      <trkpt lat="46.95988" lon="8.74461">
        <ele>1125</ele>
        <time>2021-08-06T10:01:56.355Z</time>
      </trkpt>
      <trkpt lat="46.95988" lon="8.7446">
        <ele>1125</ele>
        <time>2021-08-06T10:01:57.354Z</time>
      </trkpt>
      <trkpt lat="46.95988" lon="8.74459">
        <ele>1125</ele>
        <time>2021-08-06T10:01:58.355Z</time>
      </trkpt>
      <trkpt lat="46.95988" lon="8.74459">
        <ele>1125</ele>
        <time>2021-08-06T10:01:59.355Z</time>
      </trkpt>
      <trkpt lat="46.95988" lon="8.74458">
        <ele>1125</ele>
        <time>2021-08-06T10:02:00.355Z</time>
      </trkpt>
      <trkpt lat="46.95987" lon="8.74458">
        <ele>1125</ele>
        <time>2021-08-06T10:02:01.354Z</time>
      </trkpt>
      <trkpt lat="46.95986" lon="8.74457">
        <ele>1125</ele>
        <time>2021-08-06T10:02:02.354Z</time>
      </trkpt>
      <trkpt lat="46.95986" lon="8.74456">
        <ele>1125</ele>
        <time>2021-08-06T10:02:03.355Z</time>
      </trkpt>
      <trkpt lat="46.95987" lon="8.74455">
        <ele>1125</ele>
        <time>2021-08-06T10:02:04.355Z</time>
      </trkpt>
      <trkpt lat="46.95988" lon="8.74453">
        <ele>1125</ele>
        <time>2021-08-06T10:02:05.355Z</time>
      </trkpt>
      <trkpt lat="46.95989" lon="8.74452">
        <ele>1125</ele>
        <time>2021-08-06T10:02:06.354Z</time>
      </trkpt>
      <trkpt lat="46.9599" lon="8.74451">
        <ele>1125</ele>
        <time>2021-08-06T10:02:07.355Z</time>
      </trkpt>
      <trkpt lat="46.9599" lon="8.7445">
        <ele>1126</ele>
        <time>2021-08-06T10:02:08.355Z</time>
      </trkpt>
      <trkpt lat="46.9599" lon="8.74449">
        <ele>1126</ele>
        <time>2021-08-06T10:02:09.355Z</time>
      </trkpt>
      <trkpt lat="46.95991" lon="8.74448">
        <ele>1126</ele>
        <time>2021-08-06T10:02:10.355Z</time>
      </trkpt>
      <trkpt lat="46.95993" lon="8.74446">
        <ele>1127</ele>
        <time>2021-08-06T10:02:11.355Z</time>
      </trkpt>
      <trkpt lat="46.95995" lon="8.74443">
        <ele>1128</ele>
        <time>2021-08-06T10:02:12.355Z</time>
      </trkpt>
      <trkpt lat="46.95997" lon="8.74441">
        <ele>1128</ele>
        <time>2021-08-06T10:02:13.355Z</time>
      </trkpt>
      <trkpt lat="46.95998" lon="8.74438">
        <ele>1128</ele>
        <time>2021-08-06T10:02:14.355Z</time>
      </trkpt>
      <trkpt lat="46.95999" lon="8.74437">
        <ele>1129</ele>
        <time>2021-08-06T10:02:15.354Z</time>
      </trkpt>
      <trkpt lat="46.96" lon="8.74436">
        <ele>1130</ele>
        <time>2021-08-06T10:02:16.355Z</time>
      </trkpt>
      <trkpt lat="46.96" lon="8.74435">
        <ele>1130</ele>
        <time>2021-08-06T10:02:17.355Z</time>
      </trkpt>
      <trkpt lat="46.96" lon="8.74433">
        <ele>1131</ele>
        <time>2021-08-06T10:02:18.355Z</time>
      </trkpt>
      <trkpt lat="46.95999" lon="8.74433">
        <ele>1132</ele>
        <time>2021-08-06T10:02:19.355Z</time>
      </trkpt>
      <trkpt lat="46.95998" lon="8.74433">
        <ele>1132</ele>
        <time>2021-08-06T10:02:20.355Z</time>
      </trkpt>
      <trkpt lat="46.95998" lon="8.74433">
        <ele>1133</ele>
        <time>2021-08-06T10:02:21.355Z</time>
      </trkpt>
      <trkpt lat="46.95997" lon="8.74432">
        <ele>1134</ele>
        <time>2021-08-06T10:02:22.355Z</time>
      </trkpt>
      <trkpt lat="46.95997" lon="8.74432">
        <ele>1134</ele>
        <time>2021-08-06T10:02:23.355Z</time>
      </trkpt>
      <trkpt lat="46.95996" lon="8.74432">
        <ele>1135</ele>
        <time>2021-08-06T10:02:24.354Z</time>
      </trkpt>
      <trkpt lat="46.95995" lon="8.74431">
        <ele>1135</ele>
        <time>2021-08-06T10:02:25.355Z</time>
      </trkpt>
      <trkpt lat="46.95994" lon="8.74431">
        <ele>1136</ele>
        <time>2021-08-06T10:02:26.355Z</time>
      </trkpt>
      <trkpt lat="46.95994" lon="8.7443">
        <ele>1136</ele>
        <time>2021-08-06T10:02:27.355Z</time>
      </trkpt>
      <trkpt lat="46.95994" lon="8.74429">
        <ele>1136</ele>
        <time>2021-08-06T10:02:28.354Z</time>
      </trkpt>
      <trkpt lat="46.95993" lon="8.74428">
        <ele>1136</ele>
        <time>2021-08-06T10:02:29.354Z</time>
      </trkpt>
      <trkpt lat="46.95992" lon="8.74427">
        <ele>1136</ele>
        <time>2021-08-06T10:02:30.355Z</time>
      </trkpt>
      <trkpt lat="46.95991" lon="8.74426">
        <ele>1135</ele>
        <time>2021-08-06T10:02:31.355Z</time>
      </trkpt>
      <trkpt lat="46.95991" lon="8.74425">
        <ele>1135</ele>
        <time>2021-08-06T10:02:32.355Z</time>
      </trkpt>
      <trkpt lat="46.95991" lon="8.74424">
        <ele>1134</ele>
        <time>2021-08-06T10:02:33.354Z</time>
      </trkpt>
      <trkpt lat="46.95991" lon="8.74423">
        <ele>1134</ele>
        <time>2021-08-06T10:02:34.355Z</time>
      </trkpt>
      <trkpt lat="46.95991" lon="8.74422">
        <ele>1134</ele>
        <time>2021-08-06T10:02:35.355Z</time>
      </trkpt>
      <trkpt lat="46.95991" lon="8.74421">
        <ele>1134</ele>
        <time>2021-08-06T10:02:36.354Z</time>
      </trkpt>
      <trkpt lat="46.9599" lon="8.74421">
        <ele>1134</ele>
        <time>2021-08-06T10:02:37.355Z</time>
      </trkpt>
      <trkpt lat="46.95989" lon="8.7442">
        <ele>1134</ele>
        <time>2021-08-06T10:02:38.355Z</time>
      </trkpt>
      <trkpt lat="46.95988" lon="8.74419">
        <ele>1134</ele>
        <time>2021-08-06T10:02:39.354Z</time>
      </trkpt>
      <trkpt lat="46.95988" lon="8.74418">
        <ele>1134</ele>
        <time>2021-08-06T10:02:40.355Z</time>
      </trkpt>
      <trkpt lat="46.95987" lon="8.74416">
        <ele>1134</ele>
        <time>2021-08-06T10:02:41.354Z</time>
      </trkpt>
      <trkpt lat="46.95987" lon="8.74416">
        <ele>1134</ele>
        <time>2021-08-06T10:02:42.355Z</time>
      </trkpt>
      <trkpt lat="46.95987" lon="8.74415">
        <ele>1134</ele>
        <time>2021-08-06T10:02:43.355Z</time>
      </trkpt>
      <trkpt lat="46.95986" lon="8.74414">
        <ele>1134</ele>
        <time>2021-08-06T10:02:44.354Z</time>
      </trkpt>
      <trkpt lat="46.95986" lon="8.74413">
        <ele>1134</ele>
        <time>2021-08-06T10:02:45.355Z</time>
      </trkpt>
      <trkpt lat="46.95985" lon="8.74413">
        <ele>1134</ele>
        <time>2021-08-06T10:02:46.354Z</time>
      </trkpt>
      <trkpt lat="46.95985" lon="8.74412">
        <ele>1134</ele>
        <time>2021-08-06T10:02:47.354Z</time>
      </trkpt>
      <trkpt lat="46.95984" lon="8.74412">
        <ele>1133</ele>
        <time>2021-08-06T10:02:48.355Z</time>
      </trkpt>
      <trkpt lat="46.95984" lon="8.74411">
        <ele>1133</ele>
        <time>2021-08-06T10:02:49.355Z</time>
      </trkpt>
      <trkpt lat="46.95983" lon="8.7441">
        <ele>1133</ele>
        <time>2021-08-06T10:02:50.355Z</time>
      </trkpt>
      <trkpt lat="46.95983" lon="8.74409">
        <ele>1133</ele>
        <time>2021-08-06T10:02:51.355Z</time>
      </trkpt>
      <trkpt lat="46.95983" lon="8.74408">
        <ele>1133</ele>
        <time>2021-08-06T10:02:52.354Z</time>
      </trkpt>
      <trkpt lat="46.95983" lon="8.74407">
        <ele>1133</ele>
        <time>2021-08-06T10:02:53.355Z</time>
      </trkpt>
      <trkpt lat="46.95982" lon="8.74406">
        <ele>1134</ele>
        <time>2021-08-06T10:02:54.354Z</time>
      </trkpt>
      <trkpt lat="46.95982" lon="8.74405">
        <ele>1134</ele>
        <time>2021-08-06T10:02:55.354Z</time>
      </trkpt>
      <trkpt lat="46.95982" lon="8.74404">
        <ele>1134</ele>
        <time>2021-08-06T10:02:56.355Z</time>
      </trkpt>
      <trkpt lat="46.95982" lon="8.74404">
        <ele>1134</ele>
        <time>2021-08-06T10:02:57.354Z</time>
      </trkpt>
      <trkpt lat="46.95982" lon="8.74403">
        <ele>1134</ele>
        <time>2021-08-06T10:02:58.355Z</time>
      </trkpt>
      <trkpt lat="46.95982" lon="8.74401">
        <ele>1134</ele>
        <time>2021-08-06T10:02:59.355Z</time>
      </trkpt>
      <trkpt lat="46.95982" lon="8.74401">
        <ele>1134</ele>
        <time>2021-08-06T10:03:00.355Z</time>
      </trkpt>
      <trkpt lat="46.95981" lon="8.744">
        <ele>1135</ele>
        <time>2021-08-06T10:03:01.354Z</time>
      </trkpt>
      <trkpt lat="46.95979" lon="8.74399">
        <ele>1135</ele>
        <time>2021-08-06T10:03:02.354Z</time>
      </trkpt>
      <trkpt lat="46.95977" lon="8.74398">
        <ele>1135</ele>
        <time>2021-08-06T10:03:03.354Z</time>
      </trkpt>
      <trkpt lat="46.95975" lon="8.74396">
        <ele>1136</ele>
        <time>2021-08-06T10:03:04.355Z</time>
      </trkpt>
      <trkpt lat="46.95973" lon="8.74393">
        <ele>1136</ele>
        <time>2021-08-06T10:03:05.355Z</time>
      </trkpt>
      <trkpt lat="46.95973" lon="8.7439">
        <ele>1137</ele>
        <time>2021-08-06T10:03:06.355Z</time>
      </trkpt>
      <trkpt lat="46.95972" lon="8.74387">
        <ele>1137</ele>
        <time>2021-08-06T10:03:07.354Z</time>
      </trkpt>
      <trkpt lat="46.95972" lon="8.74386">
        <ele>1137</ele>
        <time>2021-08-06T10:03:08.355Z</time>
      </trkpt>
      <trkpt lat="46.9597" lon="8.74385">
        <ele>1137</ele>
        <time>2021-08-06T10:03:09.354Z</time>
      </trkpt>
      <trkpt lat="46.95969" lon="8.74383">
        <ele>1137</ele>
        <time>2021-08-06T10:03:10.355Z</time>
      </trkpt>
      <trkpt lat="46.95969" lon="8.74381">
        <ele>1137</ele>
        <time>2021-08-06T10:03:11.354Z</time>
      </trkpt>
      <trkpt lat="46.95968" lon="8.74381">
        <ele>1137</ele>
        <time>2021-08-06T10:03:12.354Z</time>
      </trkpt>
      <trkpt lat="46.95967" lon="8.7438">
        <ele>1138</ele>
        <time>2021-08-06T10:03:13.354Z</time>
      </trkpt>
      <trkpt lat="46.95967" lon="8.7438">
        <ele>1138</ele>
        <time>2021-08-06T10:03:14.355Z</time>
      </trkpt>
      <trkpt lat="46.95968" lon="8.74379">
        <ele>1138</ele>
        <time>2021-08-06T10:03:15.355Z</time>
      </trkpt>
      <trkpt lat="46.95968" lon="8.74377">
        <ele>1139</ele>
        <time>2021-08-06T10:03:16.354Z</time>
      </trkpt>
      <trkpt lat="46.95968" lon="8.74377">
        <ele>1140</ele>
        <time>2021-08-06T10:03:17.354Z</time>
      </trkpt>
      <trkpt lat="46.95968" lon="8.74376">
        <ele>1140</ele>
        <time>2021-08-06T10:03:18.355Z</time>
      </trkpt>
      <trkpt lat="46.95967" lon="8.74376">
        <ele>1141</ele>
        <time>2021-08-06T10:03:19.355Z</time>
      </trkpt>
      <trkpt lat="46.95965" lon="8.74376">
        <ele>1141</ele>
        <time>2021-08-06T10:03:20.355Z</time>
      </trkpt>
      <trkpt lat="46.95964" lon="8.74376">
        <ele>1141</ele>
        <time>2021-08-06T10:03:21.355Z</time>
      </trkpt>
      <trkpt lat="46.95963" lon="8.74377">
        <ele>1141</ele>
        <time>2021-08-06T10:03:22.355Z</time>
      </trkpt>
      <trkpt lat="46.95962" lon="8.74376">
        <ele>1141</ele>
        <time>2021-08-06T10:03:23.355Z</time>
      </trkpt>
      <trkpt lat="46.95961" lon="8.74375">
        <ele>1141</ele>
        <time>2021-08-06T10:03:24.355Z</time>
      </trkpt>
      <trkpt lat="46.95961" lon="8.74374">
        <ele>1141</ele>
        <time>2021-08-06T10:03:25.355Z</time>
      </trkpt>
      <trkpt lat="46.95961" lon="8.74373">
        <ele>1140</ele>
        <time>2021-08-06T10:03:26.355Z</time>
      </trkpt>
      <trkpt lat="46.95961" lon="8.74372">
        <ele>1140</ele>
        <time>2021-08-06T10:03:27.355Z</time>
      </trkpt>
      <trkpt lat="46.95961" lon="8.74371">
        <ele>1140</ele>
        <time>2021-08-06T10:03:28.355Z</time>
      </trkpt>
      <trkpt lat="46.95962" lon="8.7437">
        <ele>1140</ele>
        <time>2021-08-06T10:03:29.355Z</time>
      </trkpt>
      <trkpt lat="46.95961" lon="8.7437">
        <ele>1140</ele>
        <time>2021-08-06T10:03:30.355Z</time>
      </trkpt>
      <trkpt lat="46.95961" lon="8.7437">
        <ele>1140</ele>
        <time>2021-08-06T10:03:31.355Z</time>
      </trkpt>
      <trkpt lat="46.9596" lon="8.7437">
        <ele>1139</ele>
        <time>2021-08-06T10:03:32.355Z</time>
      </trkpt>
      <trkpt lat="46.9596" lon="8.7437">
        <ele>1139</ele>
        <time>2021-08-06T10:03:33.355Z</time>
      </trkpt>
      <trkpt lat="46.9596" lon="8.74369">
        <ele>1139</ele>
        <time>2021-08-06T10:03:34.355Z</time>
      </trkpt>
      <trkpt lat="46.9596" lon="8.74368">
        <ele>1139</ele>
        <time>2021-08-06T10:03:35.354Z</time>
      </trkpt>
      <trkpt lat="46.95962" lon="8.74366">
        <ele>1139</ele>
        <time>2021-08-06T10:03:36.355Z</time>
      </trkpt>
      <trkpt lat="46.95962" lon="8.74365">
        <ele>1140</ele>
        <time>2021-08-06T10:03:37.354Z</time>
      </trkpt>
      <trkpt lat="46.95962" lon="8.74363">
        <ele>1140</ele>
        <time>2021-08-06T10:03:38.355Z</time>
      </trkpt>
      <trkpt lat="46.95963" lon="8.74362">
        <ele>1141</ele>
        <time>2021-08-06T10:03:39.355Z</time>
      </trkpt>
      <trkpt lat="46.95963" lon="8.74361">
        <ele>1141</ele>
        <time>2021-08-06T10:03:40.354Z</time>
      </trkpt>
      <trkpt lat="46.95963" lon="8.74361">
        <ele>1141</ele>
        <time>2021-08-06T10:03:41.354Z</time>
      </trkpt>
      <trkpt lat="46.95963" lon="8.74361">
        <ele>1142</ele>
        <time>2021-08-06T10:03:42.354Z</time>
      </trkpt>
      <trkpt lat="46.95962" lon="8.7436">
        <ele>1142</ele>
        <time>2021-08-06T10:03:43.354Z</time>
      </trkpt>
      <trkpt lat="46.95961" lon="8.7436">
        <ele>1142</ele>
        <time>2021-08-06T10:03:44.354Z</time>
      </trkpt>
      <trkpt lat="46.95961" lon="8.7436">
        <ele>1142</ele>
        <time>2021-08-06T10:03:45.355Z</time>
      </trkpt>
      <trkpt lat="46.95961" lon="8.7436">
        <ele>1141</ele>
        <time>2021-08-06T10:03:46.355Z</time>
      </trkpt>
      <trkpt lat="46.95961" lon="8.74359">
        <ele>1141</ele>
        <time>2021-08-06T10:03:47.354Z</time>
      </trkpt>
      <trkpt lat="46.9596" lon="8.74358">
        <ele>1141</ele>
        <time>2021-08-06T10:03:48.355Z</time>
      </trkpt>
      <trkpt lat="46.9596" lon="8.74357">
        <ele>1141</ele>
        <time>2021-08-06T10:03:49.355Z</time>
      </trkpt>
      <trkpt lat="46.95959" lon="8.74357">
        <ele>1141</ele>
        <time>2021-08-06T10:03:50.354Z</time>
      </trkpt>
      <trkpt lat="46.95959" lon="8.74356">
        <ele>1141</ele>
        <time>2021-08-06T10:03:51.355Z</time>
      </trkpt>
      <trkpt lat="46.95958" lon="8.74356">
        <ele>1141</ele>
        <time>2021-08-06T10:03:52.355Z</time>
      </trkpt>
      <trkpt lat="46.95958" lon="8.74355">
        <ele>1141</ele>
        <time>2021-08-06T10:03:53.355Z</time>
      </trkpt>
      <trkpt lat="46.95958" lon="8.74354">
        <ele>1141</ele>
        <time>2021-08-06T10:03:54.355Z</time>
      </trkpt>
      <trkpt lat="46.95958" lon="8.74353">
        <ele>1141</ele>
        <time>2021-08-06T10:03:55.355Z</time>
      </trkpt>
      <trkpt lat="46.95957" lon="8.74352">
        <ele>1141</ele>
        <time>2021-08-06T10:03:56.355Z</time>
      </trkpt>
      <trkpt lat="46.95957" lon="8.74351">
        <ele>1141</ele>
        <time>2021-08-06T10:03:57.355Z</time>
      </trkpt>
      <trkpt lat="46.95958" lon="8.7435">
        <ele>1141</ele>
        <time>2021-08-06T10:03:58.354Z</time>
      </trkpt>
      <trkpt lat="46.95958" lon="8.74349">
        <ele>1141</ele>
        <time>2021-08-06T10:03:59.355Z</time>
      </trkpt>
      <trkpt lat="46.95959" lon="8.74348">
        <ele>1141</ele>
        <time>2021-08-06T10:04:00.355Z</time>
      </trkpt>
      <trkpt lat="46.9596" lon="8.74345">
        <ele>1141</ele>
        <time>2021-08-06T10:04:01.354Z</time>
      </trkpt>
      <trkpt lat="46.95962" lon="8.74342">
        <ele>1141</ele>
        <time>2021-08-06T10:04:02.355Z</time>
      </trkpt>
      <trkpt lat="46.95962" lon="8.74338">
        <ele>1141</ele>
        <time>2021-08-06T10:04:03.355Z</time>
      </trkpt>
      <trkpt lat="46.95963" lon="8.74334">
        <ele>1141</ele>
        <time>2021-08-06T10:04:04.355Z</time>
      </trkpt>
      <trkpt lat="46.95964" lon="8.7433">
        <ele>1141</ele>
        <time>2021-08-06T10:04:05.355Z</time>
      </trkpt>
      <trkpt lat="46.95964" lon="8.74328">
        <ele>1141</ele>
        <time>2021-08-06T10:04:06.354Z</time>
      </trkpt>
      <trkpt lat="46.95963" lon="8.74327">
        <ele>1142</ele>
        <time>2021-08-06T10:04:07.355Z</time>
      </trkpt>
      <trkpt lat="46.95963" lon="8.74326">
        <ele>1142</ele>
        <time>2021-08-06T10:04:08.354Z</time>
      </trkpt>
      <trkpt lat="46.95964" lon="8.74325">
        <ele>1142</ele>
        <time>2021-08-06T10:04:09.355Z</time>
      </trkpt>
      <trkpt lat="46.95965" lon="8.74322">
        <ele>1142</ele>
        <time>2021-08-06T10:04:10.355Z</time>
      </trkpt>
      <trkpt lat="46.95966" lon="8.7432">
        <ele>1142</ele>
        <time>2021-08-06T10:04:11.354Z</time>
      </trkpt>
      <trkpt lat="46.95965" lon="8.74319">
        <ele>1142</ele>
        <time>2021-08-06T10:04:12.355Z</time>
      </trkpt>
      <trkpt lat="46.95965" lon="8.74317">
        <ele>1143</ele>
        <time>2021-08-06T10:04:13.355Z</time>
      </trkpt>
      <trkpt lat="46.95964" lon="8.74316">
        <ele>1143</ele>
        <time>2021-08-06T10:04:14.354Z</time>
      </trkpt>
      <trkpt lat="46.95964" lon="8.74315">
        <ele>1143</ele>
        <time>2021-08-06T10:04:15.355Z</time>
      </trkpt>
      <trkpt lat="46.95964" lon="8.74314">
        <ele>1144</ele>
        <time>2021-08-06T10:04:16.354Z</time>
      </trkpt>
      <trkpt lat="46.95964" lon="8.74313">
        <ele>1144</ele>
        <time>2021-08-06T10:04:17.354Z</time>
      </trkpt>
      <trkpt lat="46.95965" lon="8.74312">
        <ele>1144</ele>
        <time>2021-08-06T10:04:18.355Z</time>
      </trkpt>
      <trkpt lat="46.95965" lon="8.74311">
        <ele>1145</ele>
        <time>2021-08-06T10:04:19.355Z</time>
      </trkpt>
      <trkpt lat="46.95965" lon="8.74311">
        <ele>1145</ele>
        <time>2021-08-06T10:04:20.355Z</time>
      </trkpt>
      <trkpt lat="46.95965" lon="8.74309">
        <ele>1145</ele>
        <time>2021-08-06T10:04:21.355Z</time>
      </trkpt>
      <trkpt lat="46.95964" lon="8.74308">
        <ele>1145</ele>
        <time>2021-08-06T10:04:22.355Z</time>
      </trkpt>
      <trkpt lat="46.95963" lon="8.74307">
        <ele>1145</ele>
        <time>2021-08-06T10:04:23.355Z</time>
      </trkpt>
      <trkpt lat="46.95963" lon="8.74306">
        <ele>1144</ele>
        <time>2021-08-06T10:04:24.355Z</time>
      </trkpt>
      <trkpt lat="46.95963" lon="8.74305">
        <ele>1144</ele>
        <time>2021-08-06T10:04:25.355Z</time>
      </trkpt>
      <trkpt lat="46.95963" lon="8.74303">
        <ele>1144</ele>
        <time>2021-08-06T10:04:26.354Z</time>
      </trkpt>
      <trkpt lat="46.95963" lon="8.74302">
        <ele>1144</ele>
        <time>2021-08-06T10:04:27.354Z</time>
      </trkpt>
      <trkpt lat="46.95963" lon="8.74301">
        <ele>1144</ele>
        <time>2021-08-06T10:04:28.355Z</time>
      </trkpt>
      <trkpt lat="46.95963" lon="8.74299">
        <ele>1144</ele>
        <time>2021-08-06T10:04:29.355Z</time>
      </trkpt>
      <trkpt lat="46.95964" lon="8.74298">
        <ele>1145</ele>
        <time>2021-08-06T10:04:30.355Z</time>
      </trkpt>
      <trkpt lat="46.95964" lon="8.74296">
        <ele>1145</ele>
        <time>2021-08-06T10:04:31.354Z</time>
      </trkpt>
      <trkpt lat="46.95964" lon="8.74295">
        <ele>1145</ele>
        <time>2021-08-06T10:04:32.355Z</time>
      </trkpt>
      <trkpt lat="46.95964" lon="8.74294">
        <ele>1146</ele>
        <time>2021-08-06T10:04:33.354Z</time>
      </trkpt>
      <trkpt lat="46.95964" lon="8.74292">
        <ele>1146</ele>
        <time>2021-08-06T10:04:34.355Z</time>
      </trkpt>
      <trkpt lat="46.95964" lon="8.74291">
        <ele>1146</ele>
        <time>2021-08-06T10:04:35.355Z</time>
      </trkpt>
      <trkpt lat="46.95964" lon="8.74289">
        <ele>1147</ele>
        <time>2021-08-06T10:04:36.355Z</time>
      </trkpt>
      <trkpt lat="46.95964" lon="8.74288">
        <ele>1147</ele>
        <time>2021-08-06T10:04:37.355Z</time>
      </trkpt>
      <trkpt lat="46.95964" lon="8.74287">
        <ele>1147</ele>
        <time>2021-08-06T10:04:38.354Z</time>
      </trkpt>
      <trkpt lat="46.95965" lon="8.74286">
        <ele>1147</ele>
        <time>2021-08-06T10:04:39.355Z</time>
      </trkpt>
      <trkpt lat="46.95966" lon="8.74284">
        <ele>1147</ele>
        <time>2021-08-06T10:04:40.355Z</time>
      </trkpt>
      <trkpt lat="46.95965" lon="8.74283">
        <ele>1148</ele>
        <time>2021-08-06T10:04:41.355Z</time>
      </trkpt>
      <trkpt lat="46.95966" lon="8.74281">
        <ele>1149</ele>
        <time>2021-08-06T10:04:42.355Z</time>
      </trkpt>
      <trkpt lat="46.95966" lon="8.7428">
        <ele>1149</ele>
        <time>2021-08-06T10:04:43.355Z</time>
      </trkpt>
      <trkpt lat="46.95967" lon="8.74279">
        <ele>1149</ele>
        <time>2021-08-06T10:04:44.354Z</time>
      </trkpt>
      <trkpt lat="46.95967" lon="8.74277">
        <ele>1150</ele>
        <time>2021-08-06T10:04:45.354Z</time>
      </trkpt>
      <trkpt lat="46.95968" lon="8.74275">
        <ele>1150</ele>
        <time>2021-08-06T10:04:46.355Z</time>
      </trkpt>
      <trkpt lat="46.95967" lon="8.74273">
        <ele>1151</ele>
        <time>2021-08-06T10:04:47.355Z</time>
      </trkpt>
      <trkpt lat="46.95967" lon="8.74271">
        <ele>1151</ele>
        <time>2021-08-06T10:04:48.354Z</time>
      </trkpt>
      <trkpt lat="46.95967" lon="8.7427">
        <ele>1151</ele>
        <time>2021-08-06T10:04:49.355Z</time>
      </trkpt>
      <trkpt lat="46.95966" lon="8.74268">
        <ele>1152</ele>
        <time>2021-08-06T10:04:50.354Z</time>
      </trkpt>
      <trkpt lat="46.95965" lon="8.74267">
        <ele>1152</ele>
        <time>2021-08-06T10:04:51.354Z</time>
      </trkpt>
      <trkpt lat="46.95965" lon="8.74266">
        <ele>1152</ele>
        <time>2021-08-06T10:04:52.354Z</time>
      </trkpt>
      <trkpt lat="46.95964" lon="8.74265">
        <ele>1152</ele>
        <time>2021-08-06T10:04:53.355Z</time>
      </trkpt>
      <trkpt lat="46.95963" lon="8.74263">
        <ele>1153</ele>
        <time>2021-08-06T10:04:54.355Z</time>
      </trkpt>
      <trkpt lat="46.95963" lon="8.74262">
        <ele>1153</ele>
        <time>2021-08-06T10:04:55.354Z</time>
      </trkpt>
      <trkpt lat="46.95963" lon="8.74261">
        <ele>1153</ele>
        <time>2021-08-06T10:04:56.354Z</time>
      </trkpt>
      <trkpt lat="46.95963" lon="8.7426">
        <ele>1153</ele>
        <time>2021-08-06T10:04:57.355Z</time>
      </trkpt>
      <trkpt lat="46.95962" lon="8.74258">
        <ele>1153</ele>
        <time>2021-08-06T10:04:58.355Z</time>
      </trkpt>
      <trkpt lat="46.95962" lon="8.74257">
        <ele>1154</ele>
        <time>2021-08-06T10:04:59.355Z</time>
      </trkpt>
      <trkpt lat="46.95962" lon="8.74255">
        <ele>1154</ele>
        <time>2021-08-06T10:05:00.354Z</time>
      </trkpt>
      <trkpt lat="46.95961" lon="8.74254">
        <ele>1155</ele>
        <time>2021-08-06T10:05:01.354Z</time>
      </trkpt>
      <trkpt lat="46.95961" lon="8.74253">
        <ele>1155</ele>
        <time>2021-08-06T10:05:02.355Z</time>
      </trkpt>
      <trkpt lat="46.9596" lon="8.74252">
        <ele>1155</ele>
        <time>2021-08-06T10:05:03.355Z</time>
      </trkpt>
      <trkpt lat="46.95959" lon="8.7425">
        <ele>1155</ele>
        <time>2021-08-06T10:05:04.354Z</time>
      </trkpt>
      <trkpt lat="46.95958" lon="8.74248">
        <ele>1156</ele>
        <time>2021-08-06T10:05:05.355Z</time>
      </trkpt>
      <trkpt lat="46.95958" lon="8.74247">
        <ele>1156</ele>
        <time>2021-08-06T10:05:06.355Z</time>
      </trkpt>
      <trkpt lat="46.95958" lon="8.74245">
        <ele>1156</ele>
        <time>2021-08-06T10:05:07.354Z</time>
      </trkpt>
      <trkpt lat="46.95958" lon="8.74244">
        <ele>1156</ele>
        <time>2021-08-06T10:05:08.355Z</time>
      </trkpt>
      <trkpt lat="46.95958" lon="8.74243">
        <ele>1156</ele>
        <time>2021-08-06T10:05:09.355Z</time>
      </trkpt>
      <trkpt lat="46.95958" lon="8.74242">
        <ele>1156</ele>
        <time>2021-08-06T10:05:10.355Z</time>
      </trkpt>
      <trkpt lat="46.95959" lon="8.7424">
        <ele>1156</ele>
        <time>2021-08-06T10:05:11.354Z</time>
      </trkpt>
      <trkpt lat="46.95959" lon="8.74239">
        <ele>1156</ele>
        <time>2021-08-06T10:05:12.355Z</time>
      </trkpt>
      <trkpt lat="46.95959" lon="8.74237">
        <ele>1155</ele>
        <time>2021-08-06T10:05:13.355Z</time>
      </trkpt>
      <trkpt lat="46.95959" lon="8.74236">
        <ele>1155</ele>
        <time>2021-08-06T10:05:14.355Z</time>
      </trkpt>
      <trkpt lat="46.95959" lon="8.74234">
        <ele>1155</ele>
        <time>2021-08-06T10:05:15.355Z</time>
      </trkpt>
      <trkpt lat="46.9596" lon="8.74232">
        <ele>1155</ele>
        <time>2021-08-06T10:05:16.355Z</time>
      </trkpt>
      <trkpt lat="46.95959" lon="8.7423">
        <ele>1155</ele>
        <time>2021-08-06T10:05:17.355Z</time>
      </trkpt>
      <trkpt lat="46.95959" lon="8.74229">
        <ele>1155</ele>
        <time>2021-08-06T10:05:18.355Z</time>
      </trkpt>
      <trkpt lat="46.9596" lon="8.74227">
        <ele>1155</ele>
        <time>2021-08-06T10:05:19.355Z</time>
      </trkpt>
      <trkpt lat="46.95961" lon="8.74225">
        <ele>1155</ele>
        <time>2021-08-06T10:05:20.354Z</time>
      </trkpt>
      <trkpt lat="46.95961" lon="8.74223">
        <ele>1155</ele>
        <time>2021-08-06T10:05:21.354Z</time>
      </trkpt>
      <trkpt lat="46.95961" lon="8.74221">
        <ele>1155</ele>
        <time>2021-08-06T10:05:22.354Z</time>
      </trkpt>
      <trkpt lat="46.95961" lon="8.74219">
        <ele>1155</ele>
        <time>2021-08-06T10:05:23.354Z</time>
      </trkpt>
      <trkpt lat="46.9596" lon="8.74218">
        <ele>1155</ele>
        <time>2021-08-06T10:05:24.355Z</time>
      </trkpt>
      <trkpt lat="46.9596" lon="8.74217">
        <ele>1155</ele>
        <time>2021-08-06T10:05:25.355Z</time>
      </trkpt>
      <trkpt lat="46.9596" lon="8.74215">
        <ele>1155</ele>
        <time>2021-08-06T10:05:26.355Z</time>
      </trkpt>
      <trkpt lat="46.9596" lon="8.74214">
        <ele>1155</ele>
        <time>2021-08-06T10:05:27.354Z</time>
      </trkpt>
      <trkpt lat="46.95959" lon="8.74212">
        <ele>1156</ele>
        <time>2021-08-06T10:05:28.354Z</time>
      </trkpt>
      <trkpt lat="46.95959" lon="8.74212">
        <ele>1156</ele>
        <time>2021-08-06T10:05:29.354Z</time>
      </trkpt>
      <trkpt lat="46.95958" lon="8.74211">
        <ele>1157</ele>
        <time>2021-08-06T10:05:30.355Z</time>
      </trkpt>
      <trkpt lat="46.95959" lon="8.74209">
        <ele>1158</ele>
        <time>2021-08-06T10:05:31.354Z</time>
      </trkpt>
      <trkpt lat="46.9596" lon="8.74207">
        <ele>1158</ele>
        <time>2021-08-06T10:05:32.354Z</time>
      </trkpt>
      <trkpt lat="46.9596" lon="8.74206">
        <ele>1159</ele>
        <time>2021-08-06T10:05:33.355Z</time>
      </trkpt>
      <trkpt lat="46.9596" lon="8.74204">
        <ele>1159</ele>
        <time>2021-08-06T10:05:34.355Z</time>
      </trkpt>
      <trkpt lat="46.95959" lon="8.74203">
        <ele>1160</ele>
        <time>2021-08-06T10:05:35.354Z</time>
      </trkpt>
      <trkpt lat="46.95958" lon="8.74202">
        <ele>1160</ele>
        <time>2021-08-06T10:05:36.354Z</time>
      </trkpt>
      <trkpt lat="46.95957" lon="8.74201">
        <ele>1160</ele>
        <time>2021-08-06T10:05:37.354Z</time>
      </trkpt>
      <trkpt lat="46.95956" lon="8.742">
        <ele>1160</ele>
        <time>2021-08-06T10:05:38.355Z</time>
      </trkpt>
      <trkpt lat="46.95956" lon="8.74198">
        <ele>1160</ele>
        <time>2021-08-06T10:05:39.354Z</time>
      </trkpt>
      <trkpt lat="46.95955" lon="8.74197">
        <ele>1160</ele>
        <time>2021-08-06T10:05:40.355Z</time>
      </trkpt>
      <trkpt lat="46.95955" lon="8.74196">
        <ele>1160</ele>
        <time>2021-08-06T10:05:41.354Z</time>
      </trkpt>
      <trkpt lat="46.95955" lon="8.74194">
        <ele>1161</ele>
        <time>2021-08-06T10:05:42.355Z</time>
      </trkpt>
      <trkpt lat="46.95955" lon="8.74193">
        <ele>1160</ele>
        <time>2021-08-06T10:05:43.355Z</time>
      </trkpt>
      <trkpt lat="46.95955" lon="8.74191">
        <ele>1160</ele>
        <time>2021-08-06T10:05:44.354Z</time>
      </trkpt>
      <trkpt lat="46.95954" lon="8.7419">
        <ele>1160</ele>
        <time>2021-08-06T10:05:45.354Z</time>
      </trkpt>
      <trkpt lat="46.95954" lon="8.74189">
        <ele>1160</ele>
        <time>2021-08-06T10:05:46.355Z</time>
      </trkpt>
      <trkpt lat="46.95954" lon="8.74188">
        <ele>1160</ele>
        <time>2021-08-06T10:05:47.355Z</time>
      </trkpt>
      <trkpt lat="46.95953" lon="8.74187">
        <ele>1160</ele>
        <time>2021-08-06T10:05:48.354Z</time>
      </trkpt>
      <trkpt lat="46.95952" lon="8.74186">
        <ele>1160</ele>
        <time>2021-08-06T10:05:49.354Z</time>
      </trkpt>
      <trkpt lat="46.95952" lon="8.74184">
        <ele>1159</ele>
        <time>2021-08-06T10:05:50.354Z</time>
      </trkpt>
      <trkpt lat="46.95952" lon="8.74183">
        <ele>1159</ele>
        <time>2021-08-06T10:05:51.355Z</time>
      </trkpt>
      <trkpt lat="46.95953" lon="8.74181">
        <ele>1159</ele>
        <time>2021-08-06T10:05:52.354Z</time>
      </trkpt>
      <trkpt lat="46.95953" lon="8.7418">
        <ele>1159</ele>
        <time>2021-08-06T10:05:53.354Z</time>
      </trkpt>
      <trkpt lat="46.95953" lon="8.74178">
        <ele>1159</ele>
        <time>2021-08-06T10:05:54.355Z</time>
      </trkpt>
      <trkpt lat="46.95954" lon="8.74177">
        <ele>1159</ele>
        <time>2021-08-06T10:05:55.355Z</time>
      </trkpt>
      <trkpt lat="46.95954" lon="8.74175">
        <ele>1159</ele>
        <time>2021-08-06T10:05:56.354Z</time>
      </trkpt>
      <trkpt lat="46.95954" lon="8.74174">
        <ele>1160</ele>
        <time>2021-08-06T10:05:57.354Z</time>
      </trkpt>
      <trkpt lat="46.95953" lon="8.74174">
        <ele>1160</ele>
        <time>2021-08-06T10:05:58.354Z</time>
      </trkpt>
      <trkpt lat="46.95952" lon="8.74173">
        <ele>1160</ele>
        <time>2021-08-06T10:05:59.355Z</time>
      </trkpt>
      <trkpt lat="46.95952" lon="8.74171">
        <ele>1161</ele>
        <time>2021-08-06T10:06:00.355Z</time>
      </trkpt>
      <trkpt lat="46.95953" lon="8.7417">
        <ele>1161</ele>
        <time>2021-08-06T10:06:01.354Z</time>
      </trkpt>
      <trkpt lat="46.95953" lon="8.74169">
        <ele>1162</ele>
        <time>2021-08-06T10:06:02.354Z</time>
      </trkpt>
      <trkpt lat="46.95954" lon="8.74168">
        <ele>1163</ele>
        <time>2021-08-06T10:06:03.354Z</time>
      </trkpt>
      <trkpt lat="46.95954" lon="8.74168">
        <ele>1163</ele>
        <time>2021-08-06T10:06:04.354Z</time>
      </trkpt>
      <trkpt lat="46.95953" lon="8.74168">
        <ele>1164</ele>
        <time>2021-08-06T10:06:05.355Z</time>
      </trkpt>
      <trkpt lat="46.95951" lon="8.74167">
        <ele>1165</ele>
        <time>2021-08-06T10:06:06.355Z</time>
      </trkpt>
      <trkpt lat="46.9595" lon="8.74166">
        <ele>1165</ele>
        <time>2021-08-06T10:06:07.354Z</time>
      </trkpt>
      <trkpt lat="46.95949" lon="8.74165">
        <ele>1166</ele>
        <time>2021-08-06T10:06:08.354Z</time>
      </trkpt>
      <trkpt lat="46.95949" lon="8.74165">
        <ele>1166</ele>
        <time>2021-08-06T10:06:09.354Z</time>
      </trkpt>
      <trkpt lat="46.95948" lon="8.74164">
        <ele>1166</ele>
        <time>2021-08-06T10:06:10.355Z</time>
      </trkpt>
      <trkpt lat="46.95948" lon="8.74163">
        <ele>1166</ele>
        <time>2021-08-06T10:06:11.354Z</time>
      </trkpt>
      <trkpt lat="46.95947" lon="8.74162">
        <ele>1166</ele>
        <time>2021-08-06T10:06:12.354Z</time>
      </trkpt>
      <trkpt lat="46.95947" lon="8.7416">
        <ele>1166</ele>
        <time>2021-08-06T10:06:13.354Z</time>
      </trkpt>
      <trkpt lat="46.95946" lon="8.74159">
        <ele>1166</ele>
        <time>2021-08-06T10:06:14.354Z</time>
      </trkpt>
      <trkpt lat="46.95946" lon="8.74158">
        <ele>1166</ele>
        <time>2021-08-06T10:06:15.354Z</time>
      </trkpt>
      <trkpt lat="46.95945" lon="8.74156">
        <ele>1166</ele>
        <time>2021-08-06T10:06:16.354Z</time>
      </trkpt>
      <trkpt lat="46.95945" lon="8.74154">
        <ele>1166</ele>
        <time>2021-08-06T10:06:17.354Z</time>
      </trkpt>
      <trkpt lat="46.95945" lon="8.74153">
        <ele>1166</ele>
        <time>2021-08-06T10:06:18.355Z</time>
      </trkpt>
      <trkpt lat="46.95945" lon="8.74152">
        <ele>1166</ele>
        <time>2021-08-06T10:06:19.354Z</time>
      </trkpt>
      <trkpt lat="46.95945" lon="8.7415">
        <ele>1166</ele>
        <time>2021-08-06T10:06:20.354Z</time>
      </trkpt>
      <trkpt lat="46.95945" lon="8.74148">
        <ele>1166</ele>
        <time>2021-08-06T10:06:21.354Z</time>
      </trkpt>
      <trkpt lat="46.95945" lon="8.74146">
        <ele>1166</ele>
        <time>2021-08-06T10:06:22.354Z</time>
      </trkpt>
      <trkpt lat="46.95943" lon="8.74144">
        <ele>1166</ele>
        <time>2021-08-06T10:06:23.354Z</time>
      </trkpt>
      <trkpt lat="46.95942" lon="8.74142">
        <ele>1166</ele>
        <time>2021-08-06T10:06:24.354Z</time>
      </trkpt>
      <trkpt lat="46.95941" lon="8.7414">
        <ele>1166</ele>
        <time>2021-08-06T10:06:25.354Z</time>
      </trkpt>
      <trkpt lat="46.9594" lon="8.74138">
        <ele>1166</ele>
        <time>2021-08-06T10:06:26.354Z</time>
      </trkpt>
      <trkpt lat="46.95939" lon="8.74135">
        <ele>1166</ele>
        <time>2021-08-06T10:06:27.354Z</time>
      </trkpt>
      <trkpt lat="46.9594" lon="8.74134">
        <ele>1165</ele>
        <time>2021-08-06T10:06:28.354Z</time>
      </trkpt>
      <trkpt lat="46.95939" lon="8.74132">
        <ele>1165</ele>
        <time>2021-08-06T10:06:29.354Z</time>
      </trkpt>
      <trkpt lat="46.95939" lon="8.74131">
        <ele>1165</ele>
        <time>2021-08-06T10:06:30.354Z</time>
      </trkpt>
      <trkpt lat="46.95938" lon="8.74129">
        <ele>1165</ele>
        <time>2021-08-06T10:06:31.354Z</time>
      </trkpt>
      <trkpt lat="46.95938" lon="8.74128">
        <ele>1164</ele>
        <time>2021-08-06T10:06:32.355Z</time>
      </trkpt>
      <trkpt lat="46.95937" lon="8.74126">
        <ele>1164</ele>
        <time>2021-08-06T10:06:33.354Z</time>
      </trkpt>
      <trkpt lat="46.95937" lon="8.74125">
        <ele>1164</ele>
        <time>2021-08-06T10:06:34.354Z</time>
      </trkpt>
      <trkpt lat="46.95937" lon="8.74123">
        <ele>1165</ele>
        <time>2021-08-06T10:06:35.354Z</time>
      </trkpt>
      <trkpt lat="46.95937" lon="8.74122">
        <ele>1165</ele>
        <time>2021-08-06T10:06:36.355Z</time>
      </trkpt>
      <trkpt lat="46.95937" lon="8.74121">
        <ele>1165</ele>
        <time>2021-08-06T10:06:37.354Z</time>
      </trkpt>
      <trkpt lat="46.95936" lon="8.7412">
        <ele>1165</ele>
        <time>2021-08-06T10:06:38.355Z</time>
      </trkpt>
      <trkpt lat="46.95936" lon="8.74119">
        <ele>1165</ele>
        <time>2021-08-06T10:06:39.354Z</time>
      </trkpt>
      <trkpt lat="46.95936" lon="8.74118">
        <ele>1165</ele>
        <time>2021-08-06T10:06:40.354Z</time>
      </trkpt>
      <trkpt lat="46.95936" lon="8.74116">
        <ele>1165</ele>
        <time>2021-08-06T10:06:41.354Z</time>
      </trkpt>
      <trkpt lat="46.95935" lon="8.74114">
        <ele>1165</ele>
        <time>2021-08-06T10:06:42.354Z</time>
      </trkpt>
      <trkpt lat="46.95935" lon="8.74112">
        <ele>1165</ele>
        <time>2021-08-06T10:06:43.354Z</time>
      </trkpt>
      <trkpt lat="46.95935" lon="8.74109">
        <ele>1165</ele>
        <time>2021-08-06T10:06:44.355Z</time>
      </trkpt>
      <trkpt lat="46.95935" lon="8.74107">
        <ele>1165</ele>
        <time>2021-08-06T10:06:45.354Z</time>
      </trkpt>
      <trkpt lat="46.95936" lon="8.74106">
        <ele>1165</ele>
        <time>2021-08-06T10:06:46.354Z</time>
      </trkpt>
      <trkpt lat="46.95936" lon="8.74104">
        <ele>1166</ele>
        <time>2021-08-06T10:06:47.354Z</time>
      </trkpt>
      <trkpt lat="46.95935" lon="8.74102">
        <ele>1166</ele>
        <time>2021-08-06T10:06:48.354Z</time>
      </trkpt>
      <trkpt lat="46.95935" lon="8.74101">
        <ele>1167</ele>
        <time>2021-08-06T10:06:49.355Z</time>
      </trkpt>
      <trkpt lat="46.95936" lon="8.74099">
        <ele>1167</ele>
        <time>2021-08-06T10:06:50.355Z</time>
      </trkpt>
      <trkpt lat="46.95935" lon="8.74098">
        <ele>1168</ele>
        <time>2021-08-06T10:06:51.354Z</time>
      </trkpt>
      <trkpt lat="46.95935" lon="8.74097">
        <ele>1168</ele>
        <time>2021-08-06T10:06:52.355Z</time>
      </trkpt>
      <trkpt lat="46.95935" lon="8.74095">
        <ele>1169</ele>
        <time>2021-08-06T10:06:53.355Z</time>
      </trkpt>
      <trkpt lat="46.95936" lon="8.74093">
        <ele>1169</ele>
        <time>2021-08-06T10:06:54.355Z</time>
      </trkpt>
      <trkpt lat="46.95936" lon="8.74092">
        <ele>1170</ele>
        <time>2021-08-06T10:06:55.355Z</time>
      </trkpt>
      <trkpt lat="46.95935" lon="8.7409">
        <ele>1171</ele>
        <time>2021-08-06T10:06:56.355Z</time>
      </trkpt>
      <trkpt lat="46.95934" lon="8.74088">
        <ele>1172</ele>
        <time>2021-08-06T10:06:57.355Z</time>
      </trkpt>
      <trkpt lat="46.95932" lon="8.74086">
        <ele>1172</ele>
        <time>2021-08-06T10:06:58.355Z</time>
      </trkpt>
      <trkpt lat="46.9593" lon="8.74084">
        <ele>1173</ele>
        <time>2021-08-06T10:06:59.355Z</time>
      </trkpt>
      <trkpt lat="46.9593" lon="8.74082">
        <ele>1174</ele>
        <time>2021-08-06T10:07:00.355Z</time>
      </trkpt>
      <trkpt lat="46.95929" lon="8.7408">
        <ele>1175</ele>
        <time>2021-08-06T10:07:01.355Z</time>
      </trkpt>
      <trkpt lat="46.95928" lon="8.74079">
        <ele>1175</ele>
        <time>2021-08-06T10:07:02.355Z</time>
      </trkpt>
      <trkpt lat="46.95928" lon="8.74078">
        <ele>1176</ele>
        <time>2021-08-06T10:07:03.354Z</time>
      </trkpt>
      <trkpt lat="46.95928" lon="8.74076">
        <ele>1176</ele>
        <time>2021-08-06T10:07:04.354Z</time>
      </trkpt>
      <trkpt lat="46.95928" lon="8.74075">
        <ele>1177</ele>
        <time>2021-08-06T10:07:05.355Z</time>
      </trkpt>
      <trkpt lat="46.95927" lon="8.74073">
        <ele>1177</ele>
        <time>2021-08-06T10:07:06.354Z</time>
      </trkpt>
      <trkpt lat="46.95927" lon="8.74073">
        <ele>1177</ele>
        <time>2021-08-06T10:07:07.355Z</time>
      </trkpt>
      <trkpt lat="46.95926" lon="8.74072">
        <ele>1177</ele>
        <time>2021-08-06T10:07:08.354Z</time>
      </trkpt>
      <trkpt lat="46.95926" lon="8.74072">
        <ele>1177</ele>
        <time>2021-08-06T10:07:09.354Z</time>
      </trkpt>
      <trkpt lat="46.95926" lon="8.74071">
        <ele>1177</ele>
        <time>2021-08-06T10:07:10.355Z</time>
      </trkpt>
      <trkpt lat="46.95926" lon="8.7407">
        <ele>1177</ele>
        <time>2021-08-06T10:07:11.354Z</time>
      </trkpt>
      <trkpt lat="46.95925" lon="8.7407">
        <ele>1177</ele>
        <time>2021-08-06T10:07:12.354Z</time>
      </trkpt>
      <trkpt lat="46.95924" lon="8.74069">
        <ele>1177</ele>
        <time>2021-08-06T10:07:13.354Z</time>
      </trkpt>
      <trkpt lat="46.95922" lon="8.74069">
        <ele>1176</ele>
        <time>2021-08-06T10:07:14.355Z</time>
      </trkpt>
      <trkpt lat="46.95922" lon="8.74068">
        <ele>1176</ele>
        <time>2021-08-06T10:07:15.355Z</time>
      </trkpt>
      <trkpt lat="46.95922" lon="8.74066">
        <ele>1176</ele>
        <time>2021-08-06T10:07:16.355Z</time>
      </trkpt>
      <trkpt lat="46.95922" lon="8.74065">
        <ele>1176</ele>
        <time>2021-08-06T10:07:17.355Z</time>
      </trkpt>
      <trkpt lat="46.95922" lon="8.74064">
        <ele>1175</ele>
        <time>2021-08-06T10:07:18.354Z</time>
      </trkpt>
      <trkpt lat="46.95923" lon="8.74062">
        <ele>1175</ele>
        <time>2021-08-06T10:07:19.355Z</time>
      </trkpt>
      <trkpt lat="46.95924" lon="8.7406">
        <ele>1175</ele>
        <time>2021-08-06T10:07:20.355Z</time>
      </trkpt>
      <trkpt lat="46.95924" lon="8.74059">
        <ele>1175</ele>
        <time>2021-08-06T10:07:21.355Z</time>
      </trkpt>
      <trkpt lat="46.95924" lon="8.74058">
        <ele>1175</ele>
        <time>2021-08-06T10:07:22.355Z</time>
      </trkpt>
      <trkpt lat="46.95925" lon="8.74056">
        <ele>1175</ele>
        <time>2021-08-06T10:07:23.355Z</time>
      </trkpt>
      <trkpt lat="46.95925" lon="8.74054">
        <ele>1175</ele>
        <time>2021-08-06T10:07:24.354Z</time>
      </trkpt>
      <trkpt lat="46.95925" lon="8.74053">
        <ele>1175</ele>
        <time>2021-08-06T10:07:25.355Z</time>
      </trkpt>
      <trkpt lat="46.95924" lon="8.74052">
        <ele>1174</ele>
        <time>2021-08-06T10:07:26.354Z</time>
      </trkpt>
      <trkpt lat="46.95924" lon="8.74051">
        <ele>1174</ele>
        <time>2021-08-06T10:07:27.354Z</time>
      </trkpt>
      <trkpt lat="46.95922" lon="8.74051">
        <ele>1173</ele>
        <time>2021-08-06T10:07:28.354Z</time>
      </trkpt>
      <trkpt lat="46.9592" lon="8.74051">
        <ele>1173</ele>
        <time>2021-08-06T10:07:29.354Z</time>
      </trkpt>
      <trkpt lat="46.95919" lon="8.74051">
        <ele>1172</ele>
        <time>2021-08-06T10:07:30.355Z</time>
      </trkpt>
      <trkpt lat="46.95918" lon="8.7405">
        <ele>1171</ele>
        <time>2021-08-06T10:07:31.354Z</time>
      </trkpt>
      <trkpt lat="46.95917" lon="8.7405">
        <ele>1171</ele>
        <time>2021-08-06T10:07:32.355Z</time>
      </trkpt>
      <trkpt lat="46.95917" lon="8.74048">
        <ele>1170</ele>
        <time>2021-08-06T10:07:33.354Z</time>
      </trkpt>
      <trkpt lat="46.95917" lon="8.74047">
        <ele>1169</ele>
        <time>2021-08-06T10:07:34.354Z</time>
      </trkpt>
      <trkpt lat="46.95916" lon="8.74045">
        <ele>1168</ele>
        <time>2021-08-06T10:07:35.355Z</time>
      </trkpt>
      <trkpt lat="46.95915" lon="8.74044">
        <ele>1167</ele>
        <time>2021-08-06T10:07:36.355Z</time>
      </trkpt>
      <trkpt lat="46.95915" lon="8.74043">
        <ele>1167</ele>
        <time>2021-08-06T10:07:37.355Z</time>
      </trkpt>
      <trkpt lat="46.95916" lon="8.74042">
        <ele>1167</ele>
        <time>2021-08-06T10:07:38.354Z</time>
      </trkpt>
      <trkpt lat="46.95916" lon="8.7404">
        <ele>1166</ele>
        <time>2021-08-06T10:07:39.355Z</time>
      </trkpt>
      <trkpt lat="46.95916" lon="8.74038">
        <ele>1167</ele>
        <time>2021-08-06T10:07:40.354Z</time>
      </trkpt>
      <trkpt lat="46.95916" lon="8.74037">
        <ele>1167</ele>
        <time>2021-08-06T10:07:41.354Z</time>
      </trkpt>
      <trkpt lat="46.95916" lon="8.74035">
        <ele>1167</ele>
        <time>2021-08-06T10:07:42.354Z</time>
      </trkpt>
      <trkpt lat="46.95915" lon="8.74034">
        <ele>1167</ele>
        <time>2021-08-06T10:07:43.354Z</time>
      </trkpt>
      <trkpt lat="46.95914" lon="8.74033">
        <ele>1167</ele>
        <time>2021-08-06T10:07:44.355Z</time>
      </trkpt>
      <trkpt lat="46.95913" lon="8.74032">
        <ele>1168</ele>
        <time>2021-08-06T10:07:45.355Z</time>
      </trkpt>
      <trkpt lat="46.95913" lon="8.7403">
        <ele>1168</ele>
        <time>2021-08-06T10:07:46.355Z</time>
      </trkpt>
      <trkpt lat="46.95912" lon="8.74029">
        <ele>1169</ele>
        <time>2021-08-06T10:07:47.355Z</time>
      </trkpt>
      <trkpt lat="46.95911" lon="8.74028">
        <ele>1169</ele>
        <time>2021-08-06T10:07:48.355Z</time>
      </trkpt>
      <trkpt lat="46.9591" lon="8.74027">
        <ele>1169</ele>
        <time>2021-08-06T10:07:49.355Z</time>
      </trkpt>
      <trkpt lat="46.95909" lon="8.74026">
        <ele>1170</ele>
        <time>2021-08-06T10:07:50.355Z</time>
      </trkpt>
      <trkpt lat="46.95908" lon="8.74025">
        <ele>1170</ele>
        <time>2021-08-06T10:07:51.355Z</time>
      </trkpt>
      <trkpt lat="46.95908" lon="8.74024">
        <ele>1171</ele>
        <time>2021-08-06T10:07:52.355Z</time>
      </trkpt>
      <trkpt lat="46.95907" lon="8.74022">
        <ele>1172</ele>
        <time>2021-08-06T10:07:53.355Z</time>
      </trkpt>
      <trkpt lat="46.95906" lon="8.74022">
        <ele>1172</ele>
        <time>2021-08-06T10:07:54.354Z</time>
      </trkpt>
      <trkpt lat="46.95905" lon="8.74021">
        <ele>1172</ele>
        <time>2021-08-06T10:07:55.355Z</time>
      </trkpt>
      <trkpt lat="46.95904" lon="8.7402">
        <ele>1173</ele>
        <time>2021-08-06T10:07:56.355Z</time>
      </trkpt>
      <trkpt lat="46.95903" lon="8.74019">
        <ele>1173</ele>
        <time>2021-08-06T10:07:57.355Z</time>
      </trkpt>
      <trkpt lat="46.95902" lon="8.74019">
        <ele>1173</ele>
        <time>2021-08-06T10:07:58.355Z</time>
      </trkpt>
      <trkpt lat="46.95902" lon="8.74017">
        <ele>1174</ele>
        <time>2021-08-06T10:07:59.354Z</time>
      </trkpt>
      <trkpt lat="46.95901" lon="8.74016">
        <ele>1174</ele>
        <time>2021-08-06T10:08:00.355Z</time>
      </trkpt>
      <trkpt lat="46.959" lon="8.74016">
        <ele>1174</ele>
        <time>2021-08-06T10:08:01.354Z</time>
      </trkpt>
      <trkpt lat="46.95897" lon="8.74015">
        <ele>1174</ele>
        <time>2021-08-06T10:08:02.355Z</time>
      </trkpt>
      <trkpt lat="46.95895" lon="8.74015">
        <ele>1174</ele>
        <time>2021-08-06T10:08:03.355Z</time>
      </trkpt>
      <trkpt lat="46.95894" lon="8.74014">
        <ele>1174</ele>
        <time>2021-08-06T10:08:04.355Z</time>
      </trkpt>
      <trkpt lat="46.95893" lon="8.74013">
        <ele>1173</ele>
        <time>2021-08-06T10:08:05.355Z</time>
      </trkpt>
      <trkpt lat="46.95893" lon="8.74012">
        <ele>1173</ele>
        <time>2021-08-06T10:08:06.354Z</time>
      </trkpt>
      <trkpt lat="46.95894" lon="8.7401">
        <ele>1173</ele>
        <time>2021-08-06T10:08:07.355Z</time>
      </trkpt>
      <trkpt lat="46.95893" lon="8.74009">
        <ele>1174</ele>
        <time>2021-08-06T10:08:08.355Z</time>
      </trkpt>
      <trkpt lat="46.95892" lon="8.74008">
        <ele>1174</ele>
        <time>2021-08-06T10:08:09.354Z</time>
      </trkpt>
      <trkpt lat="46.95891" lon="8.74008">
        <ele>1174</ele>
        <time>2021-08-06T10:08:10.355Z</time>
      </trkpt>
      <trkpt lat="46.95891" lon="8.74008">
        <ele>1174</ele>
        <time>2021-08-06T10:08:11.354Z</time>
      </trkpt>
      <trkpt lat="46.9589" lon="8.74007">
        <ele>1174</ele>
        <time>2021-08-06T10:08:12.355Z</time>
      </trkpt>
      <trkpt lat="46.9589" lon="8.74007">
        <ele>1174</ele>
        <time>2021-08-06T10:08:13.355Z</time>
      </trkpt>
      <trkpt lat="46.95888" lon="8.74007">
        <ele>1174</ele>
        <time>2021-08-06T10:08:14.355Z</time>
      </trkpt>
      <trkpt lat="46.95887" lon="8.74006">
        <ele>1174</ele>
        <time>2021-08-06T10:08:15.355Z</time>
      </trkpt>
      <trkpt lat="46.95886" lon="8.74006">
        <ele>1174</ele>
        <time>2021-08-06T10:08:16.355Z</time>
      </trkpt>
      <trkpt lat="46.95886" lon="8.74005">
        <ele>1175</ele>
        <time>2021-08-06T10:08:17.354Z</time>
      </trkpt>
      <trkpt lat="46.95886" lon="8.74004">
        <ele>1175</ele>
        <time>2021-08-06T10:08:18.354Z</time>
      </trkpt>
      <trkpt lat="46.95884" lon="8.74003">
        <ele>1176</ele>
        <time>2021-08-06T10:08:19.355Z</time>
      </trkpt>
      <trkpt lat="46.95883" lon="8.74002">
        <ele>1176</ele>
        <time>2021-08-06T10:08:20.355Z</time>
      </trkpt>
      <trkpt lat="46.95882" lon="8.74001">
        <ele>1177</ele>
        <time>2021-08-06T10:08:21.354Z</time>
      </trkpt>
      <trkpt lat="46.95881" lon="8.74001">
        <ele>1177</ele>
        <time>2021-08-06T10:08:22.354Z</time>
      </trkpt>
      <trkpt lat="46.9588" lon="8.74001">
        <ele>1177</ele>
        <time>2021-08-06T10:08:23.355Z</time>
      </trkpt>
      <trkpt lat="46.95878" lon="8.74001">
        <ele>1176</ele>
        <time>2021-08-06T10:08:24.354Z</time>
      </trkpt>
      <trkpt lat="46.95877" lon="8.74">
        <ele>1176</ele>
        <time>2021-08-06T10:08:25.355Z</time>
      </trkpt>
      <trkpt lat="46.95877" lon="8.73999">
        <ele>1175</ele>
        <time>2021-08-06T10:08:26.354Z</time>
      </trkpt>
      <trkpt lat="46.95876" lon="8.73998">
        <ele>1175</ele>
        <time>2021-08-06T10:08:27.355Z</time>
      </trkpt>
      <trkpt lat="46.95876" lon="8.73997">
        <ele>1175</ele>
        <time>2021-08-06T10:08:28.355Z</time>
      </trkpt>
      <trkpt lat="46.95875" lon="8.73996">
        <ele>1175</ele>
        <time>2021-08-06T10:08:29.355Z</time>
      </trkpt>
      <trkpt lat="46.95874" lon="8.73996">
        <ele>1175</ele>
        <time>2021-08-06T10:08:30.355Z</time>
      </trkpt>
      <trkpt lat="46.95874" lon="8.73995">
        <ele>1175</ele>
        <time>2021-08-06T10:08:31.355Z</time>
      </trkpt>
      <trkpt lat="46.95873" lon="8.73994">
        <ele>1175</ele>
        <time>2021-08-06T10:08:32.355Z</time>
      </trkpt>
      <trkpt lat="46.95871" lon="8.73994">
        <ele>1175</ele>
        <time>2021-08-06T10:08:33.355Z</time>
      </trkpt>
      <trkpt lat="46.9587" lon="8.73994">
        <ele>1175</ele>
        <time>2021-08-06T10:08:34.354Z</time>
      </trkpt>
      <trkpt lat="46.95869" lon="8.73993">
        <ele>1175</ele>
        <time>2021-08-06T10:08:35.354Z</time>
      </trkpt>
      <trkpt lat="46.95868" lon="8.73992">
        <ele>1175</ele>
        <time>2021-08-06T10:08:36.354Z</time>
      </trkpt>
      <trkpt lat="46.95868" lon="8.73992">
        <ele>1175</ele>
        <time>2021-08-06T10:08:37.354Z</time>
      </trkpt>
      <trkpt lat="46.95867" lon="8.73991">
        <ele>1175</ele>
        <time>2021-08-06T10:08:38.355Z</time>
      </trkpt>
      <trkpt lat="46.95867" lon="8.73991">
        <ele>1175</ele>
        <time>2021-08-06T10:08:39.355Z</time>
      </trkpt>
      <trkpt lat="46.95865" lon="8.7399">
        <ele>1175</ele>
        <time>2021-08-06T10:08:40.355Z</time>
      </trkpt>
      <trkpt lat="46.95864" lon="8.7399">
        <ele>1175</ele>
        <time>2021-08-06T10:08:41.355Z</time>
      </trkpt>
      <trkpt lat="46.95863" lon="8.73989">
        <ele>1175</ele>
        <time>2021-08-06T10:08:42.354Z</time>
      </trkpt>
      <trkpt lat="46.95862" lon="8.73989">
        <ele>1175</ele>
        <time>2021-08-06T10:08:43.355Z</time>
      </trkpt>
      <trkpt lat="46.95861" lon="8.73988">
        <ele>1175</ele>
        <time>2021-08-06T10:08:44.355Z</time>
      </trkpt>
      <trkpt lat="46.95861" lon="8.73988">
        <ele>1175</ele>
        <time>2021-08-06T10:08:45.354Z</time>
      </trkpt>
      <trkpt lat="46.95862" lon="8.73987">
        <ele>1175</ele>
        <time>2021-08-06T10:08:46.354Z</time>
      </trkpt>
      <trkpt lat="46.95862" lon="8.73985">
        <ele>1175</ele>
        <time>2021-08-06T10:08:47.354Z</time>
      </trkpt>
      <trkpt lat="46.95861" lon="8.73984">
        <ele>1175</ele>
        <time>2021-08-06T10:08:48.354Z</time>
      </trkpt>
      <trkpt lat="46.95861" lon="8.73983">
        <ele>1175</ele>
        <time>2021-08-06T10:08:49.354Z</time>
      </trkpt>
      <trkpt lat="46.95861" lon="8.73982">
        <ele>1174</ele>
        <time>2021-08-06T10:08:50.354Z</time>
      </trkpt>
      <trkpt lat="46.95861" lon="8.7398">
        <ele>1174</ele>
        <time>2021-08-06T10:08:51.354Z</time>
      </trkpt>
      <trkpt lat="46.95861" lon="8.73979">
        <ele>1174</ele>
        <time>2021-08-06T10:08:52.354Z</time>
      </trkpt>
      <trkpt lat="46.95861" lon="8.73978">
        <ele>1174</ele>
        <time>2021-08-06T10:08:53.354Z</time>
      </trkpt>
      <trkpt lat="46.95861" lon="8.73977">
        <ele>1174</ele>
        <time>2021-08-06T10:08:54.354Z</time>
      </trkpt>
      <trkpt lat="46.9586" lon="8.73976">
        <ele>1174</ele>
        <time>2021-08-06T10:08:55.355Z</time>
      </trkpt>
      <trkpt lat="46.95859" lon="8.73976">
        <ele>1174</ele>
        <time>2021-08-06T10:08:56.355Z</time>
      </trkpt>
      <trkpt lat="46.95859" lon="8.73975">
        <ele>1175</ele>
        <time>2021-08-06T10:08:57.354Z</time>
      </trkpt>
      <trkpt lat="46.95858" lon="8.73974">
        <ele>1175</ele>
        <time>2021-08-06T10:08:58.355Z</time>
      </trkpt>
      <trkpt lat="46.95858" lon="8.73973">
        <ele>1176</ele>
        <time>2021-08-06T10:08:59.354Z</time>
      </trkpt>
      <trkpt lat="46.95858" lon="8.73972">
        <ele>1176</ele>
        <time>2021-08-06T10:09:00.355Z</time>
      </trkpt>
      <trkpt lat="46.95858" lon="8.73971">
        <ele>1177</ele>
        <time>2021-08-06T10:09:01.355Z</time>
      </trkpt>
      <trkpt lat="46.95858" lon="8.73971">
        <ele>1177</ele>
        <time>2021-08-06T10:09:02.354Z</time>
      </trkpt>
      <trkpt lat="46.95858" lon="8.7397">
        <ele>1178</ele>
        <time>2021-08-06T10:09:03.355Z</time>
      </trkpt>
      <trkpt lat="46.95858" lon="8.73969">
        <ele>1178</ele>
        <time>2021-08-06T10:09:04.355Z</time>
      </trkpt>
      <trkpt lat="46.95858" lon="8.73968">
        <ele>1179</ele>
        <time>2021-08-06T10:09:05.354Z</time>
      </trkpt>
      <trkpt lat="46.95857" lon="8.73967">
        <ele>1180</ele>
        <time>2021-08-06T10:09:06.354Z</time>
      </trkpt>
      <trkpt lat="46.95857" lon="8.73966">
        <ele>1180</ele>
        <time>2021-08-06T10:09:07.355Z</time>
      </trkpt>
      <trkpt lat="46.95857" lon="8.73965">
        <ele>1181</ele>
        <time>2021-08-06T10:09:08.354Z</time>
      </trkpt>
      <trkpt lat="46.95856" lon="8.73964">
        <ele>1181</ele>
        <time>2021-08-06T10:09:09.354Z</time>
      </trkpt>
      <trkpt lat="46.95854" lon="8.73964">
        <ele>1182</ele>
        <time>2021-08-06T10:09:10.354Z</time>
      </trkpt>
      <trkpt lat="46.95853" lon="8.73963">
        <ele>1182</ele>
        <time>2021-08-06T10:09:11.354Z</time>
      </trkpt>
      <trkpt lat="46.95854" lon="8.73962">
        <ele>1182</ele>
        <time>2021-08-06T10:09:12.354Z</time>
      </trkpt>
      <trkpt lat="46.95854" lon="8.73961">
        <ele>1183</ele>
        <time>2021-08-06T10:09:13.354Z</time>
      </trkpt>
      <trkpt lat="46.95854" lon="8.7396">
        <ele>1183</ele>
        <time>2021-08-06T10:09:14.354Z</time>
      </trkpt>
      <trkpt lat="46.95855" lon="8.73959">
        <ele>1184</ele>
        <time>2021-08-06T10:09:15.354Z</time>
      </trkpt>
      <trkpt lat="46.95854" lon="8.73958">
        <ele>1185</ele>
        <time>2021-08-06T10:09:16.354Z</time>
      </trkpt>
      <trkpt lat="46.95854" lon="8.73958">
        <ele>1185</ele>
        <time>2021-08-06T10:09:17.355Z</time>
      </trkpt>
      <trkpt lat="46.95853" lon="8.73957">
        <ele>1185</ele>
        <time>2021-08-06T10:09:18.355Z</time>
      </trkpt>
      <trkpt lat="46.95852" lon="8.73956">
        <ele>1185</ele>
        <time>2021-08-06T10:09:19.354Z</time>
      </trkpt>
      <trkpt lat="46.95852" lon="8.73955">
        <ele>1186</ele>
        <time>2021-08-06T10:09:20.355Z</time>
      </trkpt>
      <trkpt lat="46.95852" lon="8.73954">
        <ele>1186</ele>
        <time>2021-08-06T10:09:21.355Z</time>
      </trkpt>
      <trkpt lat="46.95851" lon="8.73953">
        <ele>1186</ele>
        <time>2021-08-06T10:09:22.355Z</time>
      </trkpt>
      <trkpt lat="46.9585" lon="8.73952">
        <ele>1186</ele>
        <time>2021-08-06T10:09:23.354Z</time>
      </trkpt>
      <trkpt lat="46.95849" lon="8.73952">
        <ele>1186</ele>
        <time>2021-08-06T10:09:24.355Z</time>
      </trkpt>
      <trkpt lat="46.95848" lon="8.73951">
        <ele>1185</ele>
        <time>2021-08-06T10:09:25.354Z</time>
      </trkpt>
      <trkpt lat="46.95848" lon="8.7395">
        <ele>1185</ele>
        <time>2021-08-06T10:09:26.355Z</time>
      </trkpt>
      <trkpt lat="46.95848" lon="8.73949">
        <ele>1185</ele>
        <time>2021-08-06T10:09:27.354Z</time>
      </trkpt>
      <trkpt lat="46.95848" lon="8.73948">
        <ele>1185</ele>
        <time>2021-08-06T10:09:28.354Z</time>
      </trkpt>
      <trkpt lat="46.95848" lon="8.73947">
        <ele>1185</ele>
        <time>2021-08-06T10:09:29.355Z</time>
      </trkpt>
      <trkpt lat="46.95848" lon="8.73946">
        <ele>1185</ele>
        <time>2021-08-06T10:09:30.355Z</time>
      </trkpt>
      <trkpt lat="46.95847" lon="8.73945">
        <ele>1185</ele>
        <time>2021-08-06T10:09:31.354Z</time>
      </trkpt>
      <trkpt lat="46.95847" lon="8.73944">
        <ele>1186</ele>
        <time>2021-08-06T10:09:32.355Z</time>
      </trkpt>
      <trkpt lat="46.95846" lon="8.73944">
        <ele>1186</ele>
        <time>2021-08-06T10:09:33.354Z</time>
      </trkpt>
      <trkpt lat="46.95846" lon="8.73943">
        <ele>1186</ele>
        <time>2021-08-06T10:09:34.355Z</time>
      </trkpt>
      <trkpt lat="46.95846" lon="8.73941">
        <ele>1187</ele>
        <time>2021-08-06T10:09:35.354Z</time>
      </trkpt>
      <trkpt lat="46.95846" lon="8.7394">
        <ele>1187</ele>
        <time>2021-08-06T10:09:36.355Z</time>
      </trkpt>
      <trkpt lat="46.95846" lon="8.73939">
        <ele>1188</ele>
        <time>2021-08-06T10:09:37.354Z</time>
      </trkpt>
      <trkpt lat="46.95846" lon="8.73939">
        <ele>1189</ele>
        <time>2021-08-06T10:09:38.355Z</time>
      </trkpt>
      <trkpt lat="46.95846" lon="8.73937">
        <ele>1190</ele>
        <time>2021-08-06T10:09:39.354Z</time>
      </trkpt>
      <trkpt lat="46.95845" lon="8.73937">
        <ele>1191</ele>
        <time>2021-08-06T10:09:40.355Z</time>
      </trkpt>
      <trkpt lat="46.95844" lon="8.73936">
        <ele>1192</ele>
        <time>2021-08-06T10:09:41.355Z</time>
      </trkpt>
      <trkpt lat="46.95844" lon="8.73935">
        <ele>1192</ele>
        <time>2021-08-06T10:09:42.354Z</time>
      </trkpt>
      <trkpt lat="46.95843" lon="8.73933">
        <ele>1192</ele>
        <time>2021-08-06T10:09:43.355Z</time>
      </trkpt>
      <trkpt lat="46.95843" lon="8.73932">
        <ele>1192</ele>
        <time>2021-08-06T10:09:44.355Z</time>
      </trkpt>
      <trkpt lat="46.95842" lon="8.73931">
        <ele>1192</ele>
        <time>2021-08-06T10:09:45.355Z</time>
      </trkpt>
      <trkpt lat="46.95841" lon="8.7393">
        <ele>1193</ele>
        <time>2021-08-06T10:09:46.354Z</time>
      </trkpt>
      <trkpt lat="46.95841" lon="8.73929">
        <ele>1193</ele>
        <time>2021-08-06T10:09:47.355Z</time>
      </trkpt>
      <trkpt lat="46.9584" lon="8.73928">
        <ele>1193</ele>
        <time>2021-08-06T10:09:48.355Z</time>
      </trkpt>
      <trkpt lat="46.9584" lon="8.73927">
        <ele>1193</ele>
        <time>2021-08-06T10:09:49.354Z</time>
      </trkpt>
      <trkpt lat="46.9584" lon="8.73926">
        <ele>1193</ele>
        <time>2021-08-06T10:09:50.355Z</time>
      </trkpt>
      <trkpt lat="46.9584" lon="8.73925">
        <ele>1193</ele>
        <time>2021-08-06T10:09:51.354Z</time>
      </trkpt>
      <trkpt lat="46.9584" lon="8.73924">
        <ele>1193</ele>
        <time>2021-08-06T10:09:52.355Z</time>
      </trkpt>
      <trkpt lat="46.95839" lon="8.73923">
        <ele>1192</ele>
        <time>2021-08-06T10:09:53.355Z</time>
      </trkpt>
      <trkpt lat="46.95839" lon="8.73922">
        <ele>1192</ele>
        <time>2021-08-06T10:09:54.355Z</time>
      </trkpt>
      <trkpt lat="46.95838" lon="8.73922">
        <ele>1192</ele>
        <time>2021-08-06T10:09:55.355Z</time>
      </trkpt>
      <trkpt lat="46.95837" lon="8.73922">
        <ele>1192</ele>
        <time>2021-08-06T10:09:56.354Z</time>
      </trkpt>
      <trkpt lat="46.95836" lon="8.73921">
        <ele>1192</ele>
        <time>2021-08-06T10:09:57.355Z</time>
      </trkpt>
      <trkpt lat="46.95834" lon="8.73921">
        <ele>1192</ele>
        <time>2021-08-06T10:09:58.355Z</time>
      </trkpt>
      <trkpt lat="46.95834" lon="8.7392">
        <ele>1191</ele>
        <time>2021-08-06T10:09:59.355Z</time>
      </trkpt>
      <trkpt lat="46.95834" lon="8.73919">
        <ele>1191</ele>
        <time>2021-08-06T10:10:00.354Z</time>
      </trkpt>
      <trkpt lat="46.95834" lon="8.73918">
        <ele>1191</ele>
        <time>2021-08-06T10:10:01.355Z</time>
      </trkpt>
      <trkpt lat="46.95833" lon="8.73917">
        <ele>1191</ele>
        <time>2021-08-06T10:10:02.354Z</time>
      </trkpt>
      <trkpt lat="46.95833" lon="8.73915">
        <ele>1191</ele>
        <time>2021-08-06T10:10:03.355Z</time>
      </trkpt>
      <trkpt lat="46.95832" lon="8.73914">
        <ele>1191</ele>
        <time>2021-08-06T10:10:04.354Z</time>
      </trkpt>
      <trkpt lat="46.95833" lon="8.73913">
        <ele>1191</ele>
        <time>2021-08-06T10:10:05.355Z</time>
      </trkpt>
      <trkpt lat="46.95833" lon="8.73912">
        <ele>1191</ele>
        <time>2021-08-06T10:10:06.355Z</time>
      </trkpt>
      <trkpt lat="46.95833" lon="8.73911">
        <ele>1191</ele>
        <time>2021-08-06T10:10:07.354Z</time>
      </trkpt>
      <trkpt lat="46.95833" lon="8.73909">
        <ele>1191</ele>
        <time>2021-08-06T10:10:08.355Z</time>
      </trkpt>
      <trkpt lat="46.95833" lon="8.73908">
        <ele>1191</ele>
        <time>2021-08-06T10:10:09.354Z</time>
      </trkpt>
      <trkpt lat="46.95832" lon="8.73907">
        <ele>1191</ele>
        <time>2021-08-06T10:10:10.355Z</time>
      </trkpt>
      <trkpt lat="46.95831" lon="8.73907">
        <ele>1191</ele>
        <time>2021-08-06T10:10:11.355Z</time>
      </trkpt>
      <trkpt lat="46.9583" lon="8.73907">
        <ele>1191</ele>
        <time>2021-08-06T10:10:12.354Z</time>
      </trkpt>
      <trkpt lat="46.95829" lon="8.73907">
        <ele>1190</ele>
        <time>2021-08-06T10:10:13.354Z</time>
      </trkpt>
      <trkpt lat="46.95828" lon="8.73907">
        <ele>1190</ele>
        <time>2021-08-06T10:10:14.355Z</time>
      </trkpt>
      <trkpt lat="46.95828" lon="8.73907">
        <ele>1190</ele>
        <time>2021-08-06T10:10:15.355Z</time>
      </trkpt>
      <trkpt lat="46.95828" lon="8.73906">
        <ele>1189</ele>
        <time>2021-08-06T10:10:16.355Z</time>
      </trkpt>
      <trkpt lat="46.95828" lon="8.73905">
        <ele>1189</ele>
        <time>2021-08-06T10:10:17.355Z</time>
      </trkpt>
      <trkpt lat="46.95829" lon="8.73904">
        <ele>1189</ele>
        <time>2021-08-06T10:10:18.354Z</time>
      </trkpt>
      <trkpt lat="46.9583" lon="8.73902">
        <ele>1189</ele>
        <time>2021-08-06T10:10:19.354Z</time>
      </trkpt>
      <trkpt lat="46.9583" lon="8.739">
        <ele>1189</ele>
        <time>2021-08-06T10:10:20.354Z</time>
      </trkpt>
      <trkpt lat="46.95829" lon="8.73898">
        <ele>1189</ele>
        <time>2021-08-06T10:10:21.354Z</time>
      </trkpt>
      <trkpt lat="46.95828" lon="8.73897">
        <ele>1189</ele>
        <time>2021-08-06T10:10:22.354Z</time>
      </trkpt>
      <trkpt lat="46.95827" lon="8.73895">
        <ele>1189</ele>
        <time>2021-08-06T10:10:23.354Z</time>
      </trkpt>
      <trkpt lat="46.95826" lon="8.73893">
        <ele>1189</ele>
        <time>2021-08-06T10:10:24.355Z</time>
      </trkpt>
      <trkpt lat="46.95824" lon="8.73892">
        <ele>1189</ele>
        <time>2021-08-06T10:10:25.354Z</time>
      </trkpt>
      <trkpt lat="46.95823" lon="8.7389">
        <ele>1189</ele>
        <time>2021-08-06T10:10:26.355Z</time>
      </trkpt>
      <trkpt lat="46.95822" lon="8.73889">
        <ele>1189</ele>
        <time>2021-08-06T10:10:27.355Z</time>
      </trkpt>
      <trkpt lat="46.95821" lon="8.73887">
        <ele>1189</ele>
        <time>2021-08-06T10:10:28.355Z</time>
      </trkpt>
      <trkpt lat="46.95821" lon="8.73886">
        <ele>1189</ele>
        <time>2021-08-06T10:10:29.355Z</time>
      </trkpt>
      <trkpt lat="46.9582" lon="8.73884">
        <ele>1189</ele>
        <time>2021-08-06T10:10:30.355Z</time>
      </trkpt>
      <trkpt lat="46.9582" lon="8.73883">
        <ele>1190</ele>
        <time>2021-08-06T10:10:31.355Z</time>
      </trkpt>
      <trkpt lat="46.9582" lon="8.73881">
        <ele>1190</ele>
        <time>2021-08-06T10:10:32.355Z</time>
      </trkpt>
      <trkpt lat="46.9582" lon="8.73879">
        <ele>1190</ele>
        <time>2021-08-06T10:10:33.355Z</time>
      </trkpt>
      <trkpt lat="46.9582" lon="8.73877">
        <ele>1191</ele>
        <time>2021-08-06T10:10:34.355Z</time>
      </trkpt>
      <trkpt lat="46.95819" lon="8.73876">
        <ele>1191</ele>
        <time>2021-08-06T10:10:35.354Z</time>
      </trkpt>
      <trkpt lat="46.95818" lon="8.73874">
        <ele>1192</ele>
        <time>2021-08-06T10:10:36.355Z</time>
      </trkpt>
      <trkpt lat="46.95818" lon="8.73872">
        <ele>1192</ele>
        <time>2021-08-06T10:10:37.355Z</time>
      </trkpt>
      <trkpt lat="46.95817" lon="8.73871">
        <ele>1193</ele>
        <time>2021-08-06T10:10:38.355Z</time>
      </trkpt>
      <trkpt lat="46.95816" lon="8.73869">
        <ele>1193</ele>
        <time>2021-08-06T10:10:39.354Z</time>
      </trkpt>
      <trkpt lat="46.95815" lon="8.73867">
        <ele>1194</ele>
        <time>2021-08-06T10:10:40.354Z</time>
      </trkpt>
      <trkpt lat="46.95814" lon="8.73866">
        <ele>1194</ele>
        <time>2021-08-06T10:10:41.355Z</time>
      </trkpt>
      <trkpt lat="46.95814" lon="8.73865">
        <ele>1194</ele>
        <time>2021-08-06T10:10:42.354Z</time>
      </trkpt>
      <trkpt lat="46.95814" lon="8.73864">
        <ele>1195</ele>
        <time>2021-08-06T10:10:43.355Z</time>
      </trkpt>
      <trkpt lat="46.95813" lon="8.73863">
        <ele>1195</ele>
        <time>2021-08-06T10:10:44.354Z</time>
      </trkpt>
      <trkpt lat="46.95814" lon="8.73862">
        <ele>1195</ele>
        <time>2021-08-06T10:10:45.355Z</time>
      </trkpt>
      <trkpt lat="46.95814" lon="8.7386">
        <ele>1195</ele>
        <time>2021-08-06T10:10:46.354Z</time>
      </trkpt>
      <trkpt lat="46.95814" lon="8.73858">
        <ele>1195</ele>
        <time>2021-08-06T10:10:47.355Z</time>
      </trkpt>
      <trkpt lat="46.95813" lon="8.73857">
        <ele>1195</ele>
        <time>2021-08-06T10:10:48.355Z</time>
      </trkpt>
      <trkpt lat="46.95813" lon="8.73856">
        <ele>1195</ele>
        <time>2021-08-06T10:10:49.354Z</time>
      </trkpt>
      <trkpt lat="46.95811" lon="8.73855">
        <ele>1196</ele>
        <time>2021-08-06T10:10:50.355Z</time>
      </trkpt>
      <trkpt lat="46.9581" lon="8.73855">
        <ele>1196</ele>
        <time>2021-08-06T10:10:51.354Z</time>
      </trkpt>
      <trkpt lat="46.95808" lon="8.73853">
        <ele>1197</ele>
        <time>2021-08-06T10:10:52.354Z</time>
      </trkpt>
      <trkpt lat="46.95807" lon="8.73852">
        <ele>1197</ele>
        <time>2021-08-06T10:10:53.355Z</time>
      </trkpt>
      <trkpt lat="46.95807" lon="8.7385">
        <ele>1198</ele>
        <time>2021-08-06T10:10:54.354Z</time>
      </trkpt>
      <trkpt lat="46.95806" lon="8.73849">
        <ele>1198</ele>
        <time>2021-08-06T10:10:55.355Z</time>
      </trkpt>
      <trkpt lat="46.95805" lon="8.73847">
        <ele>1199</ele>
        <time>2021-08-06T10:10:56.354Z</time>
      </trkpt>
      <trkpt lat="46.95805" lon="8.73846">
        <ele>1199</ele>
        <time>2021-08-06T10:10:57.355Z</time>
      </trkpt>
      <trkpt lat="46.95804" lon="8.73844">
        <ele>1200</ele>
        <time>2021-08-06T10:10:58.355Z</time>
      </trkpt>
      <trkpt lat="46.95803" lon="8.73843">
        <ele>1200</ele>
        <time>2021-08-06T10:10:59.355Z</time>
      </trkpt>
      <trkpt lat="46.95802" lon="8.73843">
        <ele>1201</ele>
        <time>2021-08-06T10:11:00.355Z</time>
      </trkpt>
      <trkpt lat="46.958" lon="8.73842">
        <ele>1201</ele>
        <time>2021-08-06T10:11:01.355Z</time>
      </trkpt>
      <trkpt lat="46.95799" lon="8.73841">
        <ele>1201</ele>
        <time>2021-08-06T10:11:02.354Z</time>
      </trkpt>
      <trkpt lat="46.95798" lon="8.7384">
        <ele>1202</ele>
        <time>2021-08-06T10:11:03.355Z</time>
      </trkpt>
      <trkpt lat="46.95797" lon="8.73839">
        <ele>1202</ele>
        <time>2021-08-06T10:11:04.354Z</time>
      </trkpt>
      <trkpt lat="46.95797" lon="8.73838">
        <ele>1203</ele>
        <time>2021-08-06T10:11:05.355Z</time>
      </trkpt>
      <trkpt lat="46.95796" lon="8.73837">
        <ele>1203</ele>
        <time>2021-08-06T10:11:06.355Z</time>
      </trkpt>
      <trkpt lat="46.95795" lon="8.73836">
        <ele>1203</ele>
        <time>2021-08-06T10:11:07.355Z</time>
      </trkpt>
      <trkpt lat="46.95795" lon="8.73835">
        <ele>1202</ele>
        <time>2021-08-06T10:11:08.354Z</time>
      </trkpt>
      <trkpt lat="46.95794" lon="8.73835">
        <ele>1202</ele>
        <time>2021-08-06T10:11:09.355Z</time>
      </trkpt>
      <trkpt lat="46.95793" lon="8.73834">
        <ele>1202</ele>
        <time>2021-08-06T10:11:10.355Z</time>
      </trkpt>
      <trkpt lat="46.95792" lon="8.73833">
        <ele>1201</ele>
        <time>2021-08-06T10:11:11.355Z</time>
      </trkpt>
      <trkpt lat="46.95791" lon="8.73832">
        <ele>1201</ele>
        <time>2021-08-06T10:11:12.354Z</time>
      </trkpt>
      <trkpt lat="46.95791" lon="8.73831">
        <ele>1200</ele>
        <time>2021-08-06T10:11:13.355Z</time>
      </trkpt>
      <trkpt lat="46.9579" lon="8.7383">
        <ele>1200</ele>
        <time>2021-08-06T10:11:14.355Z</time>
      </trkpt>
      <trkpt lat="46.95789" lon="8.7383">
        <ele>1199</ele>
        <time>2021-08-06T10:11:15.354Z</time>
      </trkpt>
      <trkpt lat="46.95788" lon="8.73829">
        <ele>1199</ele>
        <time>2021-08-06T10:11:16.355Z</time>
      </trkpt>
      <trkpt lat="46.95788" lon="8.73828">
        <ele>1199</ele>
        <time>2021-08-06T10:11:17.354Z</time>
      </trkpt>
      <trkpt lat="46.95787" lon="8.73828">
        <ele>1199</ele>
        <time>2021-08-06T10:11:18.355Z</time>
      </trkpt>
      <trkpt lat="46.95786" lon="8.73826">
        <ele>1199</ele>
        <time>2021-08-06T10:11:19.354Z</time>
      </trkpt>
      <trkpt lat="46.95785" lon="8.73825">
        <ele>1199</ele>
        <time>2021-08-06T10:11:20.354Z</time>
      </trkpt>
      <trkpt lat="46.95783" lon="8.73824">
        <ele>1198</ele>
        <time>2021-08-06T10:11:21.355Z</time>
      </trkpt>
      <trkpt lat="46.95782" lon="8.73823">
        <ele>1198</ele>
        <time>2021-08-06T10:11:22.355Z</time>
      </trkpt>
      <trkpt lat="46.9578" lon="8.73823">
        <ele>1198</ele>
        <time>2021-08-06T10:11:23.354Z</time>
      </trkpt>
      <trkpt lat="46.9578" lon="8.73822">
        <ele>1197</ele>
        <time>2021-08-06T10:11:24.355Z</time>
      </trkpt>
      <trkpt lat="46.95779" lon="8.73822">
        <ele>1197</ele>
        <time>2021-08-06T10:11:25.355Z</time>
      </trkpt>
      <trkpt lat="46.95778" lon="8.73821">
        <ele>1197</ele>
        <time>2021-08-06T10:11:26.355Z</time>
      </trkpt>
      <trkpt lat="46.95777" lon="8.7382">
        <ele>1197</ele>
        <time>2021-08-06T10:11:27.354Z</time>
      </trkpt>
      <trkpt lat="46.95777" lon="8.73819">
        <ele>1197</ele>
        <time>2021-08-06T10:11:28.355Z</time>
      </trkpt>
      <trkpt lat="46.95776" lon="8.73818">
        <ele>1197</ele>
        <time>2021-08-06T10:11:29.355Z</time>
      </trkpt>
      <trkpt lat="46.95775" lon="8.73818">
        <ele>1198</ele>
        <time>2021-08-06T10:11:30.355Z</time>
      </trkpt>
      <trkpt lat="46.95774" lon="8.73817">
        <ele>1198</ele>
        <time>2021-08-06T10:11:31.355Z</time>
      </trkpt>
      <trkpt lat="46.95773" lon="8.73816">
        <ele>1198</ele>
        <time>2021-08-06T10:11:32.355Z</time>
      </trkpt>
      <trkpt lat="46.95773" lon="8.73815">
        <ele>1198</ele>
        <time>2021-08-06T10:11:33.355Z</time>
      </trkpt>
      <trkpt lat="46.95772" lon="8.73814">
        <ele>1198</ele>
        <time>2021-08-06T10:11:34.355Z</time>
      </trkpt>
      <trkpt lat="46.95772" lon="8.73813">
        <ele>1199</ele>
        <time>2021-08-06T10:11:35.354Z</time>
      </trkpt>
      <trkpt lat="46.95771" lon="8.73812">
        <ele>1199</ele>
        <time>2021-08-06T10:11:36.355Z</time>
      </trkpt>
      <trkpt lat="46.9577" lon="8.73811">
        <ele>1200</ele>
        <time>2021-08-06T10:11:37.355Z</time>
      </trkpt>
      <trkpt lat="46.95768" lon="8.73809">
        <ele>1200</ele>
        <time>2021-08-06T10:11:38.355Z</time>
      </trkpt>
      <trkpt lat="46.95768" lon="8.73809">
        <ele>1200</ele>
        <time>2021-08-06T10:11:39.355Z</time>
      </trkpt>
      <trkpt lat="46.95766" lon="8.73808">
        <ele>1200</ele>
        <time>2021-08-06T10:11:40.355Z</time>
      </trkpt>
      <trkpt lat="46.95765" lon="8.73808">
        <ele>1200</ele>
        <time>2021-08-06T10:11:41.354Z</time>
      </trkpt>
      <trkpt lat="46.95765" lon="8.73808">
        <ele>1201</ele>
        <time>2021-08-06T10:11:42.354Z</time>
      </trkpt>
      <trkpt lat="46.95764" lon="8.73808">
        <ele>1201</ele>
        <time>2021-08-06T10:11:43.355Z</time>
      </trkpt>
      <trkpt lat="46.95763" lon="8.73806">
        <ele>1201</ele>
        <time>2021-08-06T10:11:44.355Z</time>
      </trkpt>
      <trkpt lat="46.95763" lon="8.73804">
        <ele>1201</ele>
        <time>2021-08-06T10:11:45.355Z</time>
      </trkpt>
      <trkpt lat="46.95763" lon="8.73802">
        <ele>1201</ele>
        <time>2021-08-06T10:11:46.355Z</time>
      </trkpt>
      <trkpt lat="46.95762" lon="8.73801">
        <ele>1201</ele>
        <time>2021-08-06T10:11:47.355Z</time>
      </trkpt>
      <trkpt lat="46.95761" lon="8.73801">
        <ele>1201</ele>
        <time>2021-08-06T10:11:48.355Z</time>
      </trkpt>
      <trkpt lat="46.9576" lon="8.73801">
        <ele>1201</ele>
        <time>2021-08-06T10:11:49.354Z</time>
      </trkpt>
      <trkpt lat="46.95759" lon="8.738">
        <ele>1202</ele>
        <time>2021-08-06T10:11:50.355Z</time>
      </trkpt>
      <trkpt lat="46.95759" lon="8.73798">
        <ele>1202</ele>
        <time>2021-08-06T10:11:51.355Z</time>
      </trkpt>
      <trkpt lat="46.95759" lon="8.73797">
        <ele>1202</ele>
        <time>2021-08-06T10:11:52.354Z</time>
      </trkpt>
      <trkpt lat="46.95759" lon="8.73796">
        <ele>1203</ele>
        <time>2021-08-06T10:11:53.355Z</time>
      </trkpt>
      <trkpt lat="46.95759" lon="8.73795">
        <ele>1203</ele>
        <time>2021-08-06T10:11:54.355Z</time>
      </trkpt>
      <trkpt lat="46.95759" lon="8.73794">
        <ele>1204</ele>
        <time>2021-08-06T10:11:55.355Z</time>
      </trkpt>
      <trkpt lat="46.95758" lon="8.73793">
        <ele>1204</ele>
        <time>2021-08-06T10:11:56.354Z</time>
      </trkpt>
      <trkpt lat="46.95757" lon="8.73792">
        <ele>1204</ele>
        <time>2021-08-06T10:11:57.354Z</time>
      </trkpt>
      <trkpt lat="46.95756" lon="8.73792">
        <ele>1204</ele>
        <time>2021-08-06T10:11:58.355Z</time>
      </trkpt>
      <trkpt lat="46.95755" lon="8.73791">
        <ele>1205</ele>
        <time>2021-08-06T10:11:59.354Z</time>
      </trkpt>
      <trkpt lat="46.95754" lon="8.7379">
        <ele>1205</ele>
        <time>2021-08-06T10:12:00.355Z</time>
      </trkpt>
      <trkpt lat="46.95753" lon="8.73789">
        <ele>1205</ele>
        <time>2021-08-06T10:12:01.355Z</time>
      </trkpt>
      <trkpt lat="46.95752" lon="8.73788">
        <ele>1206</ele>
        <time>2021-08-06T10:12:02.355Z</time>
      </trkpt>
      <trkpt lat="46.95751" lon="8.73787">
        <ele>1206</ele>
        <time>2021-08-06T10:12:03.354Z</time>
      </trkpt>
      <trkpt lat="46.95751" lon="8.73786">
        <ele>1206</ele>
        <time>2021-08-06T10:12:04.355Z</time>
      </trkpt>
      <trkpt lat="46.9575" lon="8.73785">
        <ele>1206</ele>
        <time>2021-08-06T10:12:05.354Z</time>
      </trkpt>
      <trkpt lat="46.95749" lon="8.73784">
        <ele>1207</ele>
        <time>2021-08-06T10:12:06.355Z</time>
      </trkpt>
      <trkpt lat="46.95749" lon="8.73783">
        <ele>1208</ele>
        <time>2021-08-06T10:12:07.355Z</time>
      </trkpt>
      <trkpt lat="46.95748" lon="8.73782">
        <ele>1208</ele>
        <time>2021-08-06T10:12:08.354Z</time>
      </trkpt>
      <trkpt lat="46.95748" lon="8.73781">
        <ele>1209</ele>
        <time>2021-08-06T10:12:09.355Z</time>
      </trkpt>
      <trkpt lat="46.95748" lon="8.7378">
        <ele>1209</ele>
        <time>2021-08-06T10:12:10.354Z</time>
      </trkpt>
      <trkpt lat="46.95748" lon="8.73779">
        <ele>1210</ele>
        <time>2021-08-06T10:12:11.354Z</time>
      </trkpt>
      <trkpt lat="46.95748" lon="8.73777">
        <ele>1210</ele>
        <time>2021-08-06T10:12:12.354Z</time>
      </trkpt>
      <trkpt lat="46.95748" lon="8.73776">
        <ele>1210</ele>
        <time>2021-08-06T10:12:13.355Z</time>
      </trkpt>
      <trkpt lat="46.95748" lon="8.73775">
        <ele>1211</ele>
        <time>2021-08-06T10:12:14.355Z</time>
      </trkpt>
      <trkpt lat="46.95748" lon="8.73774">
        <ele>1212</ele>
        <time>2021-08-06T10:12:15.355Z</time>
      </trkpt>
      <trkpt lat="46.95748" lon="8.73773">
        <ele>1212</ele>
        <time>2021-08-06T10:12:16.355Z</time>
      </trkpt>
      <trkpt lat="46.95748" lon="8.73772">
        <ele>1213</ele>
        <time>2021-08-06T10:12:17.355Z</time>
      </trkpt>
      <trkpt lat="46.95747" lon="8.73771">
        <ele>1214</ele>
        <time>2021-08-06T10:12:18.355Z</time>
      </trkpt>
      <trkpt lat="46.95746" lon="8.7377">
        <ele>1214</ele>
        <time>2021-08-06T10:12:19.355Z</time>
      </trkpt>
      <trkpt lat="46.95745" lon="8.73769">
        <ele>1214</ele>
        <time>2021-08-06T10:12:20.355Z</time>
      </trkpt>
      <trkpt lat="46.95744" lon="8.73768">
        <ele>1214</ele>
        <time>2021-08-06T10:12:21.354Z</time>
      </trkpt>
      <trkpt lat="46.95744" lon="8.73767">
        <ele>1215</ele>
        <time>2021-08-06T10:12:22.354Z</time>
      </trkpt>
      <trkpt lat="46.95743" lon="8.73766">
        <ele>1215</ele>
        <time>2021-08-06T10:12:23.354Z</time>
      </trkpt>
      <trkpt lat="46.95743" lon="8.73765">
        <ele>1216</ele>
        <time>2021-08-06T10:12:24.355Z</time>
      </trkpt>
      <trkpt lat="46.95742" lon="8.73763">
        <ele>1216</ele>
        <time>2021-08-06T10:12:25.354Z</time>
      </trkpt>
      <trkpt lat="46.95742" lon="8.73762">
        <ele>1217</ele>
        <time>2021-08-06T10:12:26.354Z</time>
      </trkpt>
      <trkpt lat="46.95741" lon="8.7376">
        <ele>1217</ele>
        <time>2021-08-06T10:12:27.354Z</time>
      </trkpt>
      <trkpt lat="46.95741" lon="8.73759">
        <ele>1217</ele>
        <time>2021-08-06T10:12:28.354Z</time>
      </trkpt>
      <trkpt lat="46.9574" lon="8.73757">
        <ele>1218</ele>
        <time>2021-08-06T10:12:29.354Z</time>
      </trkpt>
      <trkpt lat="46.9574" lon="8.73756">
        <ele>1218</ele>
        <time>2021-08-06T10:12:30.355Z</time>
      </trkpt>
      <trkpt lat="46.95739" lon="8.73755">
        <ele>1219</ele>
        <time>2021-08-06T10:12:31.354Z</time>
      </trkpt>
      <trkpt lat="46.95738" lon="8.73754">
        <ele>1219</ele>
        <time>2021-08-06T10:12:32.355Z</time>
      </trkpt>
      <trkpt lat="46.95736" lon="8.73753">
        <ele>1219</ele>
        <time>2021-08-06T10:12:33.354Z</time>
      </trkpt>
      <trkpt lat="46.95734" lon="8.73752">
        <ele>1220</ele>
        <time>2021-08-06T10:12:34.355Z</time>
      </trkpt>
      <trkpt lat="46.95733" lon="8.7375">
        <ele>1220</ele>
        <time>2021-08-06T10:12:35.355Z</time>
      </trkpt>
      <trkpt lat="46.95731" lon="8.73748">
        <ele>1220</ele>
        <time>2021-08-06T10:12:36.355Z</time>
      </trkpt>
      <trkpt lat="46.95731" lon="8.73746">
        <ele>1220</ele>
        <time>2021-08-06T10:12:37.355Z</time>
      </trkpt>
      <trkpt lat="46.9573" lon="8.73744">
        <ele>1220</ele>
        <time>2021-08-06T10:12:38.354Z</time>
      </trkpt>
      <trkpt lat="46.95729" lon="8.73742">
        <ele>1219</ele>
        <time>2021-08-06T10:12:39.354Z</time>
      </trkpt>
      <trkpt lat="46.95727" lon="8.7374">
        <ele>1219</ele>
        <time>2021-08-06T10:12:40.355Z</time>
      </trkpt>
      <trkpt lat="46.95726" lon="8.73739">
        <ele>1219</ele>
        <time>2021-08-06T10:12:41.355Z</time>
      </trkpt>
      <trkpt lat="46.95726" lon="8.73737">
        <ele>1218</ele>
        <time>2021-08-06T10:12:42.355Z</time>
      </trkpt>
      <trkpt lat="46.95725" lon="8.73736">
        <ele>1218</ele>
        <time>2021-08-06T10:12:43.355Z</time>
      </trkpt>
      <trkpt lat="46.95723" lon="8.73734">
        <ele>1218</ele>
        <time>2021-08-06T10:12:44.355Z</time>
      </trkpt>
      <trkpt lat="46.95722" lon="8.73733">
        <ele>1218</ele>
        <time>2021-08-06T10:12:45.354Z</time>
      </trkpt>
      <trkpt lat="46.95721" lon="8.73732">
        <ele>1217</ele>
        <time>2021-08-06T10:12:46.355Z</time>
      </trkpt>
      <trkpt lat="46.95719" lon="8.73732">
        <ele>1217</ele>
        <time>2021-08-06T10:12:47.355Z</time>
      </trkpt>
      <trkpt lat="46.95718" lon="8.73732">
        <ele>1216</ele>
        <time>2021-08-06T10:12:48.355Z</time>
      </trkpt>
      <trkpt lat="46.95717" lon="8.73731">
        <ele>1216</ele>
        <time>2021-08-06T10:12:49.355Z</time>
      </trkpt>
      <trkpt lat="46.95717" lon="8.7373">
        <ele>1215</ele>
        <time>2021-08-06T10:12:50.355Z</time>
      </trkpt>
      <trkpt lat="46.95716" lon="8.73728">
        <ele>1215</ele>
        <time>2021-08-06T10:12:51.355Z</time>
      </trkpt>
      <trkpt lat="46.95715" lon="8.73726">
        <ele>1214</ele>
        <time>2021-08-06T10:12:52.355Z</time>
      </trkpt>
      <trkpt lat="46.95714" lon="8.73724">
        <ele>1214</ele>
        <time>2021-08-06T10:12:53.355Z</time>
      </trkpt>
      <trkpt lat="46.95713" lon="8.73722">
        <ele>1214</ele>
        <time>2021-08-06T10:12:54.355Z</time>
      </trkpt>
      <trkpt lat="46.95712" lon="8.7372">
        <ele>1214</ele>
        <time>2021-08-06T10:12:55.355Z</time>
      </trkpt>
      <trkpt lat="46.95711" lon="8.73719">
        <ele>1213</ele>
        <time>2021-08-06T10:12:56.355Z</time>
      </trkpt>
      <trkpt lat="46.95711" lon="8.73717">
        <ele>1213</ele>
        <time>2021-08-06T10:12:57.355Z</time>
      </trkpt>
      <trkpt lat="46.95711" lon="8.73715">
        <ele>1213</ele>
        <time>2021-08-06T10:12:58.355Z</time>
      </trkpt>
      <trkpt lat="46.9571" lon="8.73714">
        <ele>1213</ele>
        <time>2021-08-06T10:12:59.354Z</time>
      </trkpt>
      <trkpt lat="46.9571" lon="8.73713">
        <ele>1213</ele>
        <time>2021-08-06T10:13:00.355Z</time>
      </trkpt>
      <trkpt lat="46.9571" lon="8.73711">
        <ele>1212</ele>
        <time>2021-08-06T10:13:01.355Z</time>
      </trkpt>
      <trkpt lat="46.95709" lon="8.73709">
        <ele>1213</ele>
        <time>2021-08-06T10:13:02.354Z</time>
      </trkpt>
      <trkpt lat="46.95709" lon="8.73707">
        <ele>1213</ele>
        <time>2021-08-06T10:13:03.355Z</time>
      </trkpt>
      <trkpt lat="46.95708" lon="8.73706">
        <ele>1212</ele>
        <time>2021-08-06T10:13:04.355Z</time>
      </trkpt>
      <trkpt lat="46.95708" lon="8.73705">
        <ele>1212</ele>
        <time>2021-08-06T10:13:05.355Z</time>
      </trkpt>
      <trkpt lat="46.95708" lon="8.73703">
        <ele>1212</ele>
        <time>2021-08-06T10:13:06.355Z</time>
      </trkpt>
      <trkpt lat="46.95709" lon="8.73701">
        <ele>1212</ele>
        <time>2021-08-06T10:13:07.354Z</time>
      </trkpt>
      <trkpt lat="46.9571" lon="8.737">
        <ele>1212</ele>
        <time>2021-08-06T10:13:08.355Z</time>
      </trkpt>
      <trkpt lat="46.95711" lon="8.73698">
        <ele>1212</ele>
        <time>2021-08-06T10:13:09.354Z</time>
      </trkpt>
      <trkpt lat="46.95711" lon="8.73696">
        <ele>1212</ele>
        <time>2021-08-06T10:13:10.355Z</time>
      </trkpt>
      <trkpt lat="46.95711" lon="8.73694">
        <ele>1212</ele>
        <time>2021-08-06T10:13:11.355Z</time>
      </trkpt>
      <trkpt lat="46.95711" lon="8.73692">
        <ele>1212</ele>
        <time>2021-08-06T10:13:12.354Z</time>
      </trkpt>
      <trkpt lat="46.95711" lon="8.7369">
        <ele>1212</ele>
        <time>2021-08-06T10:13:13.355Z</time>
      </trkpt>
      <trkpt lat="46.95712" lon="8.73689">
        <ele>1212</ele>
        <time>2021-08-06T10:13:14.355Z</time>
      </trkpt>
      <trkpt lat="46.95712" lon="8.73687">
        <ele>1212</ele>
        <time>2021-08-06T10:13:15.355Z</time>
      </trkpt>
      <trkpt lat="46.95713" lon="8.73686">
        <ele>1211</ele>
        <time>2021-08-06T10:13:16.355Z</time>
      </trkpt>
      <trkpt lat="46.95713" lon="8.73685">
        <ele>1211</ele>
        <time>2021-08-06T10:13:17.355Z</time>
      </trkpt>
      <trkpt lat="46.95714" lon="8.73684">
        <ele>1211</ele>
        <time>2021-08-06T10:13:18.354Z</time>
      </trkpt>
      <trkpt lat="46.95715" lon="8.73682">
        <ele>1211</ele>
        <time>2021-08-06T10:13:19.354Z</time>
      </trkpt>
      <trkpt lat="46.95716" lon="8.73681">
        <ele>1211</ele>
        <time>2021-08-06T10:13:20.354Z</time>
      </trkpt>
      <trkpt lat="46.95716" lon="8.73681">
        <ele>1211</ele>
        <time>2021-08-06T10:13:21.354Z</time>
      </trkpt>
      <trkpt lat="46.95717" lon="8.73681">
        <ele>1210</ele>
        <time>2021-08-06T10:13:22.355Z</time>
      </trkpt>
      <trkpt lat="46.95718" lon="8.7368">
        <ele>1210</ele>
        <time>2021-08-06T10:13:23.354Z</time>
      </trkpt>
      <trkpt lat="46.95719" lon="8.73679">
        <ele>1210</ele>
        <time>2021-08-06T10:13:24.355Z</time>
      </trkpt>
      <trkpt lat="46.9572" lon="8.73679">
        <ele>1210</ele>
        <time>2021-08-06T10:13:25.354Z</time>
      </trkpt>
      <trkpt lat="46.95721" lon="8.73678">
        <ele>1210</ele>
        <time>2021-08-06T10:13:26.355Z</time>
      </trkpt>
      <trkpt lat="46.95722" lon="8.73677">
        <ele>1210</ele>
        <time>2021-08-06T10:13:27.354Z</time>
      </trkpt>
      <trkpt lat="46.95723" lon="8.73676">
        <ele>1210</ele>
        <time>2021-08-06T10:13:28.354Z</time>
      </trkpt>
      <trkpt lat="46.95724" lon="8.73674">
        <ele>1210</ele>
        <time>2021-08-06T10:13:29.354Z</time>
      </trkpt>
      <trkpt lat="46.95726" lon="8.73673">
        <ele>1210</ele>
        <time>2021-08-06T10:13:30.355Z</time>
      </trkpt>
      <trkpt lat="46.95727" lon="8.73671">
        <ele>1210</ele>
        <time>2021-08-06T10:13:31.355Z</time>
      </trkpt>
      <trkpt lat="46.95728" lon="8.7367">
        <ele>1210</ele>
        <time>2021-08-06T10:13:32.354Z</time>
      </trkpt>
      <trkpt lat="46.95728" lon="8.73667">
        <ele>1210</ele>
        <time>2021-08-06T10:13:33.355Z</time>
      </trkpt>
      <trkpt lat="46.95729" lon="8.73665">
        <ele>1210</ele>
        <time>2021-08-06T10:13:34.355Z</time>
      </trkpt>
      <trkpt lat="46.9573" lon="8.73663">
        <ele>1210</ele>
        <time>2021-08-06T10:13:35.354Z</time>
      </trkpt>
      <trkpt lat="46.9573" lon="8.73661">
        <ele>1210</ele>
        <time>2021-08-06T10:13:36.355Z</time>
      </trkpt>
      <trkpt lat="46.9573" lon="8.73659">
        <ele>1210</ele>
        <time>2021-08-06T10:13:37.355Z</time>
      </trkpt>
      <trkpt lat="46.9573" lon="8.73657">
        <ele>1211</ele>
        <time>2021-08-06T10:13:38.355Z</time>
      </trkpt>
      <trkpt lat="46.95729" lon="8.73655">
        <ele>1211</ele>
        <time>2021-08-06T10:13:39.354Z</time>
      </trkpt>
      <trkpt lat="46.95728" lon="8.73653">
        <ele>1211</ele>
        <time>2021-08-06T10:13:40.355Z</time>
      </trkpt>
      <trkpt lat="46.95727" lon="8.73651">
        <ele>1211</ele>
        <time>2021-08-06T10:13:41.354Z</time>
      </trkpt>
      <trkpt lat="46.95726" lon="8.7365">
        <ele>1211</ele>
        <time>2021-08-06T10:13:42.355Z</time>
      </trkpt>
      <trkpt lat="46.95725" lon="8.73648">
        <ele>1212</ele>
        <time>2021-08-06T10:13:43.354Z</time>
      </trkpt>
      <trkpt lat="46.95724" lon="8.73647">
        <ele>1212</ele>
        <time>2021-08-06T10:13:44.355Z</time>
      </trkpt>
      <trkpt lat="46.95723" lon="8.73646">
        <ele>1212</ele>
        <time>2021-08-06T10:13:45.355Z</time>
      </trkpt>
      <trkpt lat="46.95722" lon="8.73644">
        <ele>1212</ele>
        <time>2021-08-06T10:13:46.355Z</time>
      </trkpt>
      <trkpt lat="46.95722" lon="8.73643">
        <ele>1212</ele>
        <time>2021-08-06T10:13:47.354Z</time>
      </trkpt>
      <trkpt lat="46.9572" lon="8.73642">
        <ele>1212</ele>
        <time>2021-08-06T10:13:48.354Z</time>
      </trkpt>
      <trkpt lat="46.95719" lon="8.73641">
        <ele>1212</ele>
        <time>2021-08-06T10:13:49.355Z</time>
      </trkpt>
      <trkpt lat="46.95717" lon="8.7364">
        <ele>1213</ele>
        <time>2021-08-06T10:13:50.355Z</time>
      </trkpt>
      <trkpt lat="46.95716" lon="8.73639">
        <ele>1213</ele>
        <time>2021-08-06T10:13:51.355Z</time>
      </trkpt>
      <trkpt lat="46.95715" lon="8.73638">
        <ele>1213</ele>
        <time>2021-08-06T10:13:52.355Z</time>
      </trkpt>
      <trkpt lat="46.95714" lon="8.73638">
        <ele>1214</ele>
        <time>2021-08-06T10:13:53.354Z</time>
      </trkpt>
      <trkpt lat="46.95713" lon="8.73637">
        <ele>1214</ele>
        <time>2021-08-06T10:13:54.355Z</time>
      </trkpt>
      <trkpt lat="46.95712" lon="8.73636">
        <ele>1215</ele>
        <time>2021-08-06T10:13:55.355Z</time>
      </trkpt>
      <trkpt lat="46.95711" lon="8.73635">
        <ele>1215</ele>
        <time>2021-08-06T10:13:56.354Z</time>
      </trkpt>
      <trkpt lat="46.9571" lon="8.73635">
        <ele>1215</ele>
        <time>2021-08-06T10:13:57.355Z</time>
      </trkpt>
      <trkpt lat="46.95709" lon="8.73634">
        <ele>1215</ele>
        <time>2021-08-06T10:13:58.354Z</time>
      </trkpt>
      <trkpt lat="46.95708" lon="8.73634">
        <ele>1215</ele>
        <time>2021-08-06T10:13:59.355Z</time>
      </trkpt>
      <trkpt lat="46.95707" lon="8.73634">
        <ele>1215</ele>
        <time>2021-08-06T10:14:00.354Z</time>
      </trkpt>
      <trkpt lat="46.95707" lon="8.73633">
        <ele>1215</ele>
        <time>2021-08-06T10:14:01.355Z</time>
      </trkpt>
      <trkpt lat="46.95707" lon="8.73632">
        <ele>1215</ele>
        <time>2021-08-06T10:14:02.355Z</time>
      </trkpt>
      <trkpt lat="46.95706" lon="8.73631">
        <ele>1215</ele>
        <time>2021-08-06T10:14:03.355Z</time>
      </trkpt>
      <trkpt lat="46.95706" lon="8.7363">
        <ele>1215</ele>
        <time>2021-08-06T10:14:04.355Z</time>
      </trkpt>
      <trkpt lat="46.95704" lon="8.7363">
        <ele>1215</ele>
        <time>2021-08-06T10:14:05.354Z</time>
      </trkpt>
      <trkpt lat="46.95703" lon="8.73629">
        <ele>1215</ele>
        <time>2021-08-06T10:14:06.354Z</time>
      </trkpt>
      <trkpt lat="46.95702" lon="8.73628">
        <ele>1215</ele>
        <time>2021-08-06T10:14:07.354Z</time>
      </trkpt>
      <trkpt lat="46.95701" lon="8.73627">
        <ele>1215</ele>
        <time>2021-08-06T10:14:08.354Z</time>
      </trkpt>
      <trkpt lat="46.957" lon="8.73626">
        <ele>1215</ele>
        <time>2021-08-06T10:14:09.355Z</time>
      </trkpt>
      <trkpt lat="46.95699" lon="8.73625">
        <ele>1216</ele>
        <time>2021-08-06T10:14:10.355Z</time>
      </trkpt>
      <trkpt lat="46.95699" lon="8.73623">
        <ele>1216</ele>
        <time>2021-08-06T10:14:11.354Z</time>
      </trkpt>
      <trkpt lat="46.95699" lon="8.73622">
        <ele>1216</ele>
        <time>2021-08-06T10:14:12.355Z</time>
      </trkpt>
      <trkpt lat="46.95699" lon="8.73621">
        <ele>1217</ele>
        <time>2021-08-06T10:14:13.354Z</time>
      </trkpt>
      <trkpt lat="46.95699" lon="8.73619">
        <ele>1217</ele>
        <time>2021-08-06T10:14:14.354Z</time>
      </trkpt>
      <trkpt lat="46.95698" lon="8.73618">
        <ele>1217</ele>
        <time>2021-08-06T10:14:15.355Z</time>
      </trkpt>
      <trkpt lat="46.95697" lon="8.73617">
        <ele>1218</ele>
        <time>2021-08-06T10:14:16.354Z</time>
      </trkpt>
      <trkpt lat="46.95697" lon="8.73616">
        <ele>1218</ele>
        <time>2021-08-06T10:14:17.354Z</time>
      </trkpt>
      <trkpt lat="46.95696" lon="8.73615">
        <ele>1218</ele>
        <time>2021-08-06T10:14:18.354Z</time>
      </trkpt>
      <trkpt lat="46.95696" lon="8.73613">
        <ele>1218</ele>
        <time>2021-08-06T10:14:19.355Z</time>
      </trkpt>
      <trkpt lat="46.95695" lon="8.73612">
        <ele>1218</ele>
        <time>2021-08-06T10:14:20.354Z</time>
      </trkpt>
      <trkpt lat="46.95694" lon="8.73611">
        <ele>1219</ele>
        <time>2021-08-06T10:14:21.355Z</time>
      </trkpt>
      <trkpt lat="46.95693" lon="8.73609">
        <ele>1219</ele>
        <time>2021-08-06T10:14:22.354Z</time>
      </trkpt>
      <trkpt lat="46.95693" lon="8.73608">
        <ele>1220</ele>
        <time>2021-08-06T10:14:23.354Z</time>
      </trkpt>
      <trkpt lat="46.95692" lon="8.73607">
        <ele>1220</ele>
        <time>2021-08-06T10:14:24.354Z</time>
      </trkpt>
      <trkpt lat="46.95692" lon="8.73606">
        <ele>1221</ele>
        <time>2021-08-06T10:14:25.355Z</time>
      </trkpt>
      <trkpt lat="46.95692" lon="8.73604">
        <ele>1221</ele>
        <time>2021-08-06T10:14:26.354Z</time>
      </trkpt>
      <trkpt lat="46.95692" lon="8.73603">
        <ele>1222</ele>
        <time>2021-08-06T10:14:27.355Z</time>
      </trkpt>
      <trkpt lat="46.95692" lon="8.73602">
        <ele>1223</ele>
        <time>2021-08-06T10:14:28.354Z</time>
      </trkpt>
      <trkpt lat="46.95692" lon="8.736">
        <ele>1223</ele>
        <time>2021-08-06T10:14:29.355Z</time>
      </trkpt>
      <trkpt lat="46.95692" lon="8.73598">
        <ele>1224</ele>
        <time>2021-08-06T10:14:30.355Z</time>
      </trkpt>
      <trkpt lat="46.95692" lon="8.73596">
        <ele>1224</ele>
        <time>2021-08-06T10:14:31.355Z</time>
      </trkpt>
      <trkpt lat="46.95692" lon="8.73594">
        <ele>1225</ele>
        <time>2021-08-06T10:14:32.354Z</time>
      </trkpt>
      <trkpt lat="46.95692" lon="8.73592">
        <ele>1225</ele>
        <time>2021-08-06T10:14:33.354Z</time>
      </trkpt>
      <trkpt lat="46.95693" lon="8.7359">
        <ele>1225</ele>
        <time>2021-08-06T10:14:34.355Z</time>
      </trkpt>
      <trkpt lat="46.95693" lon="8.73588">
        <ele>1226</ele>
        <time>2021-08-06T10:14:35.355Z</time>
      </trkpt>
      <trkpt lat="46.95694" lon="8.73586">
        <ele>1227</ele>
        <time>2021-08-06T10:14:36.355Z</time>
      </trkpt>
      <trkpt lat="46.95695" lon="8.73584">
        <ele>1228</ele>
        <time>2021-08-06T10:14:37.355Z</time>
      </trkpt>
      <trkpt lat="46.95695" lon="8.73583">
        <ele>1229</ele>
        <time>2021-08-06T10:14:38.355Z</time>
      </trkpt>
      <trkpt lat="46.95695" lon="8.73581">
        <ele>1230</ele>
        <time>2021-08-06T10:14:39.355Z</time>
      </trkpt>
      <trkpt lat="46.95696" lon="8.7358">
        <ele>1230</ele>
        <time>2021-08-06T10:14:40.355Z</time>
      </trkpt>
      <trkpt lat="46.95696" lon="8.73579">
        <ele>1231</ele>
        <time>2021-08-06T10:14:41.355Z</time>
      </trkpt>
      <trkpt lat="46.95698" lon="8.73578">
        <ele>1231</ele>
        <time>2021-08-06T10:14:42.355Z</time>
      </trkpt>
      <trkpt lat="46.95699" lon="8.73577">
        <ele>1231</ele>
        <time>2021-08-06T10:14:43.354Z</time>
      </trkpt>
      <trkpt lat="46.95699" lon="8.73576">
        <ele>1231</ele>
        <time>2021-08-06T10:14:44.355Z</time>
      </trkpt>
      <trkpt lat="46.957" lon="8.73575">
        <ele>1231</ele>
        <time>2021-08-06T10:14:45.354Z</time>
      </trkpt>
      <trkpt lat="46.95701" lon="8.73574">
        <ele>1232</ele>
        <time>2021-08-06T10:14:46.354Z</time>
      </trkpt>
      <trkpt lat="46.95701" lon="8.73573">
        <ele>1232</ele>
        <time>2021-08-06T10:14:47.354Z</time>
      </trkpt>
      <trkpt lat="46.957" lon="8.73572">
        <ele>1232</ele>
        <time>2021-08-06T10:14:48.354Z</time>
      </trkpt>
      <trkpt lat="46.957" lon="8.7357">
        <ele>1233</ele>
        <time>2021-08-06T10:14:49.355Z</time>
      </trkpt>
      <trkpt lat="46.95701" lon="8.73569">
        <ele>1233</ele>
        <time>2021-08-06T10:14:50.355Z</time>
      </trkpt>
      <trkpt lat="46.95701" lon="8.73567">
        <ele>1233</ele>
        <time>2021-08-06T10:14:51.354Z</time>
      </trkpt>
      <trkpt lat="46.95702" lon="8.73566">
        <ele>1233</ele>
        <time>2021-08-06T10:14:52.355Z</time>
      </trkpt>
      <trkpt lat="46.95701" lon="8.73564">
        <ele>1234</ele>
        <time>2021-08-06T10:14:53.355Z</time>
      </trkpt>
      <trkpt lat="46.95701" lon="8.73563">
        <ele>1234</ele>
        <time>2021-08-06T10:14:54.355Z</time>
      </trkpt>
      <trkpt lat="46.957" lon="8.73561">
        <ele>1234</ele>
        <time>2021-08-06T10:14:55.354Z</time>
      </trkpt>
      <trkpt lat="46.957" lon="8.7356">
        <ele>1235</ele>
        <time>2021-08-06T10:14:56.355Z</time>
      </trkpt>
      <trkpt lat="46.957" lon="8.73558">
        <ele>1235</ele>
        <time>2021-08-06T10:14:57.355Z</time>
      </trkpt>
      <trkpt lat="46.957" lon="8.73557">
        <ele>1235</ele>
        <time>2021-08-06T10:14:58.355Z</time>
      </trkpt>
      <trkpt lat="46.957" lon="8.73556">
        <ele>1235</ele>
        <time>2021-08-06T10:14:59.355Z</time>
      </trkpt>
      <trkpt lat="46.95699" lon="8.73555">
        <ele>1235</ele>
        <time>2021-08-06T10:15:00.355Z</time>
      </trkpt>
      <trkpt lat="46.957" lon="8.73554">
        <ele>1235</ele>
        <time>2021-08-06T10:15:01.354Z</time>
      </trkpt>
      <trkpt lat="46.957" lon="8.73553">
        <ele>1235</ele>
        <time>2021-08-06T10:15:02.355Z</time>
      </trkpt>
      <trkpt lat="46.95701" lon="8.73552">
        <ele>1235</ele>
        <time>2021-08-06T10:15:03.355Z</time>
      </trkpt>
      <trkpt lat="46.95701" lon="8.7355">
        <ele>1234</ele>
        <time>2021-08-06T10:15:04.355Z</time>
      </trkpt>
      <trkpt lat="46.95701" lon="8.7355">
        <ele>1234</ele>
        <time>2021-08-06T10:15:05.355Z</time>
      </trkpt>
      <trkpt lat="46.957" lon="8.73549">
        <ele>1234</ele>
        <time>2021-08-06T10:15:06.355Z</time>
      </trkpt>
      <trkpt lat="46.95699" lon="8.73549">
        <ele>1233</ele>
        <time>2021-08-06T10:15:07.354Z</time>
      </trkpt>
      <trkpt lat="46.95697" lon="8.73548">
        <ele>1233</ele>
        <time>2021-08-06T10:15:08.355Z</time>
      </trkpt>
      <trkpt lat="46.95698" lon="8.73548">
        <ele>1232</ele>
        <time>2021-08-06T10:15:09.354Z</time>
      </trkpt>
      <trkpt lat="46.95697" lon="8.73547">
        <ele>1232</ele>
        <time>2021-08-06T10:15:10.355Z</time>
      </trkpt>
      <trkpt lat="46.95697" lon="8.73546">
        <ele>1232</ele>
        <time>2021-08-06T10:15:11.355Z</time>
      </trkpt>
      <trkpt lat="46.95697" lon="8.73545">
        <ele>1232</ele>
        <time>2021-08-06T10:15:12.355Z</time>
      </trkpt>
      <trkpt lat="46.95697" lon="8.73544">
        <ele>1232</ele>
        <time>2021-08-06T10:15:13.355Z</time>
      </trkpt>
      <trkpt lat="46.95697" lon="8.73543">
        <ele>1232</ele>
        <time>2021-08-06T10:15:14.355Z</time>
      </trkpt>
      <trkpt lat="46.95696" lon="8.73542">
        <ele>1232</ele>
        <time>2021-08-06T10:15:15.355Z</time>
      </trkpt>
      <trkpt lat="46.95696" lon="8.73541">
        <ele>1232</ele>
        <time>2021-08-06T10:15:16.354Z</time>
      </trkpt>
      <trkpt lat="46.95696" lon="8.7354">
        <ele>1232</ele>
        <time>2021-08-06T10:15:17.355Z</time>
      </trkpt>
      <trkpt lat="46.95696" lon="8.73539">
        <ele>1232</ele>
        <time>2021-08-06T10:15:18.354Z</time>
      </trkpt>
      <trkpt lat="46.95695" lon="8.73538">
        <ele>1232</ele>
        <time>2021-08-06T10:15:19.355Z</time>
      </trkpt>
      <trkpt lat="46.95696" lon="8.73537">
        <ele>1232</ele>
        <time>2021-08-06T10:15:20.355Z</time>
      </trkpt>
      <trkpt lat="46.95696" lon="8.73536">
        <ele>1232</ele>
        <time>2021-08-06T10:15:21.355Z</time>
      </trkpt>
      <trkpt lat="46.95696" lon="8.73534">
        <ele>1231</ele>
        <time>2021-08-06T10:15:22.355Z</time>
      </trkpt>
      <trkpt lat="46.95696" lon="8.73533">
        <ele>1231</ele>
        <time>2021-08-06T10:15:23.355Z</time>
      </trkpt>
      <trkpt lat="46.95696" lon="8.73532">
        <ele>1231</ele>
        <time>2021-08-06T10:15:24.355Z</time>
      </trkpt>
      <trkpt lat="46.95696" lon="8.7353">
        <ele>1231</ele>
        <time>2021-08-06T10:15:25.354Z</time>
      </trkpt>
      <trkpt lat="46.95697" lon="8.73529">
        <ele>1231</ele>
        <time>2021-08-06T10:15:26.355Z</time>
      </trkpt>
      <trkpt lat="46.95698" lon="8.73528">
        <ele>1231</ele>
        <time>2021-08-06T10:15:27.355Z</time>
      </trkpt>
      <trkpt lat="46.95698" lon="8.73527">
        <ele>1231</ele>
        <time>2021-08-06T10:15:28.355Z</time>
      </trkpt>
      <trkpt lat="46.95697" lon="8.73526">
        <ele>1231</ele>
        <time>2021-08-06T10:15:29.355Z</time>
      </trkpt>
      <trkpt lat="46.95696" lon="8.73525">
        <ele>1231</ele>
        <time>2021-08-06T10:15:30.354Z</time>
      </trkpt>
      <trkpt lat="46.95696" lon="8.73523">
        <ele>1231</ele>
        <time>2021-08-06T10:15:31.354Z</time>
      </trkpt>
      <trkpt lat="46.95696" lon="8.73521">
        <ele>1231</ele>
        <time>2021-08-06T10:15:32.354Z</time>
      </trkpt>
      <trkpt lat="46.95696" lon="8.73519">
        <ele>1231</ele>
        <time>2021-08-06T10:15:33.354Z</time>
      </trkpt>
      <trkpt lat="46.95696" lon="8.73518">
        <ele>1231</ele>
        <time>2021-08-06T10:15:34.355Z</time>
      </trkpt>
      <trkpt lat="46.95696" lon="8.73517">
        <ele>1231</ele>
        <time>2021-08-06T10:15:35.354Z</time>
      </trkpt>
      <trkpt lat="46.95696" lon="8.73515">
        <ele>1232</ele>
        <time>2021-08-06T10:15:36.354Z</time>
      </trkpt>
      <trkpt lat="46.95695" lon="8.73515">
        <ele>1232</ele>
        <time>2021-08-06T10:15:37.355Z</time>
      </trkpt>
      <trkpt lat="46.95692" lon="8.73514">
        <ele>1233</ele>
        <time>2021-08-06T10:15:38.355Z</time>
      </trkpt>
      <trkpt lat="46.9569" lon="8.73513">
        <ele>1233</ele>
        <time>2021-08-06T10:15:39.354Z</time>
      </trkpt>
      <trkpt lat="46.9569" lon="8.73514">
        <ele>1233</ele>
        <time>2021-08-06T10:15:40.355Z</time>
      </trkpt>
      <trkpt lat="46.95689" lon="8.73514">
        <ele>1233</ele>
        <time>2021-08-06T10:15:41.354Z</time>
      </trkpt>
      <trkpt lat="46.95688" lon="8.73514">
        <ele>1233</ele>
        <time>2021-08-06T10:15:42.354Z</time>
      </trkpt>
      <trkpt lat="46.95687" lon="8.73514">
        <ele>1233</ele>
        <time>2021-08-06T10:15:43.354Z</time>
      </trkpt>
      <trkpt lat="46.95685" lon="8.73513">
        <ele>1233</ele>
        <time>2021-08-06T10:15:44.355Z</time>
      </trkpt>
      <trkpt lat="46.95684" lon="8.73513">
        <ele>1233</ele>
        <time>2021-08-06T10:15:45.354Z</time>
      </trkpt>
      <trkpt lat="46.95683" lon="8.73512">
        <ele>1233</ele>
        <time>2021-08-06T10:15:46.355Z</time>
      </trkpt>
      <trkpt lat="46.95683" lon="8.73513">
        <ele>1233</ele>
        <time>2021-08-06T10:15:47.355Z</time>
      </trkpt>
      <trkpt lat="46.95683" lon="8.73513">
        <ele>1233</ele>
        <time>2021-08-06T10:15:48.355Z</time>
      </trkpt>
      <trkpt lat="46.95682" lon="8.73513">
        <ele>1233</ele>
        <time>2021-08-06T10:15:49.355Z</time>
      </trkpt>
      <trkpt lat="46.95682" lon="8.73513">
        <ele>1233</ele>
        <time>2021-08-06T10:15:50.355Z</time>
      </trkpt>
      <trkpt lat="46.9568" lon="8.73512">
        <ele>1233</ele>
        <time>2021-08-06T10:15:51.355Z</time>
      </trkpt>
      <trkpt lat="46.9568" lon="8.73512">
        <ele>1233</ele>
        <time>2021-08-06T10:15:52.354Z</time>
      </trkpt>
      <trkpt lat="46.9568" lon="8.73512">
        <ele>1232</ele>
        <time>2021-08-06T10:15:53.355Z</time>
      </trkpt>
      <trkpt lat="46.95678" lon="8.73511">
        <ele>1232</ele>
        <time>2021-08-06T10:15:54.354Z</time>
      </trkpt>
      <trkpt lat="46.95678" lon="8.7351">
        <ele>1232</ele>
        <time>2021-08-06T10:15:55.355Z</time>
      </trkpt>
      <trkpt lat="46.95677" lon="8.7351">
        <ele>1232</ele>
        <time>2021-08-06T10:15:56.354Z</time>
      </trkpt>
      <trkpt lat="46.95676" lon="8.73509">
        <ele>1232</ele>
        <time>2021-08-06T10:15:57.354Z</time>
      </trkpt>
      <trkpt lat="46.95675" lon="8.73508">
        <ele>1232</ele>
        <time>2021-08-06T10:15:58.354Z</time>
      </trkpt>
      <trkpt lat="46.95674" lon="8.73508">
        <ele>1232</ele>
        <time>2021-08-06T10:15:59.355Z</time>
      </trkpt>
      <trkpt lat="46.95673" lon="8.73507">
        <ele>1232</ele>
        <time>2021-08-06T10:16:00.355Z</time>
      </trkpt>
      <trkpt lat="46.95672" lon="8.73507">
        <ele>1233</ele>
        <time>2021-08-06T10:16:01.354Z</time>
      </trkpt>
      <trkpt lat="46.95672" lon="8.73506">
        <ele>1233</ele>
        <time>2021-08-06T10:16:02.354Z</time>
      </trkpt>
      <trkpt lat="46.95672" lon="8.73505">
        <ele>1234</ele>
        <time>2021-08-06T10:16:03.355Z</time>
      </trkpt>
      <trkpt lat="46.95673" lon="8.73504">
        <ele>1234</ele>
        <time>2021-08-06T10:16:04.355Z</time>
      </trkpt>
      <trkpt lat="46.95673" lon="8.73504">
        <ele>1234</ele>
        <time>2021-08-06T10:16:05.355Z</time>
      </trkpt>
      <trkpt lat="46.95674" lon="8.73504">
        <ele>1235</ele>
        <time>2021-08-06T10:16:06.354Z</time>
      </trkpt>
      <trkpt lat="46.95676" lon="8.73503">
        <ele>1235</ele>
        <time>2021-08-06T10:16:07.355Z</time>
      </trkpt>
      <trkpt lat="46.95677" lon="8.73503">
        <ele>1236</ele>
        <time>2021-08-06T10:16:08.354Z</time>
      </trkpt>
      <trkpt lat="46.95678" lon="8.73502">
        <ele>1236</ele>
        <time>2021-08-06T10:16:09.355Z</time>
      </trkpt>
      <trkpt lat="46.95678" lon="8.73502">
        <ele>1237</ele>
        <time>2021-08-06T10:16:10.355Z</time>
      </trkpt>
      <trkpt lat="46.95679" lon="8.73501">
        <ele>1237</ele>
        <time>2021-08-06T10:16:11.354Z</time>
      </trkpt>
      <trkpt lat="46.9568" lon="8.73501">
        <ele>1238</ele>
        <time>2021-08-06T10:16:12.354Z</time>
      </trkpt>
      <trkpt lat="46.95682" lon="8.73502">
        <ele>1238</ele>
        <time>2021-08-06T10:16:13.354Z</time>
      </trkpt>
      <trkpt lat="46.95683" lon="8.73501">
        <ele>1239</ele>
        <time>2021-08-06T10:16:14.355Z</time>
      </trkpt>
      <trkpt lat="46.95684" lon="8.73501">
        <ele>1240</ele>
        <time>2021-08-06T10:16:15.354Z</time>
      </trkpt>
      <trkpt lat="46.95684" lon="8.735">
        <ele>1241</ele>
        <time>2021-08-06T10:16:16.355Z</time>
      </trkpt>
      <trkpt lat="46.95685" lon="8.73499">
        <ele>1241</ele>
        <time>2021-08-06T10:16:17.354Z</time>
      </trkpt>
      <trkpt lat="46.95686" lon="8.73498">
        <ele>1242</ele>
        <time>2021-08-06T10:16:18.354Z</time>
      </trkpt>
      <trkpt lat="46.95688" lon="8.73497">
        <ele>1242</ele>
        <time>2021-08-06T10:16:19.354Z</time>
      </trkpt>
      <trkpt lat="46.95689" lon="8.73496">
        <ele>1243</ele>
        <time>2021-08-06T10:16:20.354Z</time>
      </trkpt>
      <trkpt lat="46.9569" lon="8.73496">
        <ele>1244</ele>
        <time>2021-08-06T10:16:21.354Z</time>
      </trkpt>
      <trkpt lat="46.95691" lon="8.73495">
        <ele>1244</ele>
        <time>2021-08-06T10:16:22.354Z</time>
      </trkpt>
      <trkpt lat="46.95692" lon="8.73494">
        <ele>1245</ele>
        <time>2021-08-06T10:16:23.354Z</time>
      </trkpt>
      <trkpt lat="46.95693" lon="8.73493">
        <ele>1245</ele>
        <time>2021-08-06T10:16:24.355Z</time>
      </trkpt>
      <trkpt lat="46.95694" lon="8.73492">
        <ele>1245</ele>
        <time>2021-08-06T10:16:25.355Z</time>
      </trkpt>
      <trkpt lat="46.95695" lon="8.73492">
        <ele>1246</ele>
        <time>2021-08-06T10:16:26.354Z</time>
      </trkpt>
      <trkpt lat="46.95696" lon="8.73491">
        <ele>1246</ele>
        <time>2021-08-06T10:16:27.355Z</time>
      </trkpt>
      <trkpt lat="46.95696" lon="8.73491">
        <ele>1246</ele>
        <time>2021-08-06T10:16:28.354Z</time>
      </trkpt>
      <trkpt lat="46.95696" lon="8.7349">
        <ele>1245</ele>
        <time>2021-08-06T10:16:29.355Z</time>
      </trkpt>
      <trkpt lat="46.95697" lon="8.7349">
        <ele>1245</ele>
        <time>2021-08-06T10:16:30.355Z</time>
      </trkpt>
      <trkpt lat="46.95697" lon="8.73489">
        <ele>1245</ele>
        <time>2021-08-06T10:16:31.354Z</time>
      </trkpt>
      <trkpt lat="46.95698" lon="8.73488">
        <ele>1244</ele>
        <time>2021-08-06T10:16:32.355Z</time>
      </trkpt>
      <trkpt lat="46.957" lon="8.73488">
        <ele>1244</ele>
        <time>2021-08-06T10:16:33.355Z</time>
      </trkpt>
      <trkpt lat="46.95701" lon="8.73487">
        <ele>1243</ele>
        <time>2021-08-06T10:16:34.355Z</time>
      </trkpt>
      <trkpt lat="46.95702" lon="8.73486">
        <ele>1243</ele>
        <time>2021-08-06T10:16:35.355Z</time>
      </trkpt>
      <trkpt lat="46.95702" lon="8.73486">
        <ele>1242</ele>
        <time>2021-08-06T10:16:36.355Z</time>
      </trkpt>
      <trkpt lat="46.95703" lon="8.73485">
        <ele>1241</ele>
        <time>2021-08-06T10:16:37.355Z</time>
      </trkpt>
      <trkpt lat="46.95704" lon="8.73484">
        <ele>1240</ele>
        <time>2021-08-06T10:16:38.354Z</time>
      </trkpt>
      <trkpt lat="46.95705" lon="8.73484">
        <ele>1240</ele>
        <time>2021-08-06T10:16:39.354Z</time>
      </trkpt>
      <trkpt lat="46.95706" lon="8.73484">
        <ele>1239</ele>
        <time>2021-08-06T10:16:40.355Z</time>
      </trkpt>
      <trkpt lat="46.95706" lon="8.73483">
        <ele>1239</ele>
        <time>2021-08-06T10:16:41.355Z</time>
      </trkpt>
      <trkpt lat="46.95707" lon="8.73483">
        <ele>1238</ele>
        <time>2021-08-06T10:16:42.355Z</time>
      </trkpt>
      <trkpt lat="46.95707" lon="8.73483">
        <ele>1237</ele>
        <time>2021-08-06T10:16:43.355Z</time>
      </trkpt>
      <trkpt lat="46.95708" lon="8.73483">
        <ele>1237</ele>
        <time>2021-08-06T10:16:44.355Z</time>
      </trkpt>
      <trkpt lat="46.95708" lon="8.73483">
        <ele>1236</ele>
        <time>2021-08-06T10:16:45.354Z</time>
      </trkpt>
      <trkpt lat="46.95709" lon="8.73482">
        <ele>1236</ele>
        <time>2021-08-06T10:16:46.355Z</time>
      </trkpt>
      <trkpt lat="46.9571" lon="8.73482">
        <ele>1236</ele>
        <time>2021-08-06T10:16:47.354Z</time>
      </trkpt>
      <trkpt lat="46.95711" lon="8.73482">
        <ele>1236</ele>
        <time>2021-08-06T10:16:48.354Z</time>
      </trkpt>
      <trkpt lat="46.95712" lon="8.73482">
        <ele>1236</ele>
        <time>2021-08-06T10:16:49.355Z</time>
      </trkpt>
      <trkpt lat="46.95712" lon="8.73482">
        <ele>1236</ele>
        <time>2021-08-06T10:16:50.355Z</time>
      </trkpt>
      <trkpt lat="46.95713" lon="8.73482">
        <ele>1236</ele>
        <time>2021-08-06T10:16:51.355Z</time>
      </trkpt>
      <trkpt lat="46.95714" lon="8.73481">
        <ele>1236</ele>
        <time>2021-08-06T10:16:52.355Z</time>
      </trkpt>
      <trkpt lat="46.95715" lon="8.73479">
        <ele>1236</ele>
        <time>2021-08-06T10:16:53.355Z</time>
      </trkpt>
      <trkpt lat="46.95716" lon="8.73477">
        <ele>1236</ele>
        <time>2021-08-06T10:16:54.354Z</time>
      </trkpt>
      <trkpt lat="46.95717" lon="8.73476">
        <ele>1236</ele>
        <time>2021-08-06T10:16:55.355Z</time>
      </trkpt>
      <trkpt lat="46.95718" lon="8.73474">
        <ele>1236</ele>
        <time>2021-08-06T10:16:56.355Z</time>
      </trkpt>
      <trkpt lat="46.95718" lon="8.73472">
        <ele>1237</ele>
        <time>2021-08-06T10:16:57.355Z</time>
      </trkpt>
      <trkpt lat="46.95717" lon="8.73471">
        <ele>1237</ele>
        <time>2021-08-06T10:16:58.355Z</time>
      </trkpt>
      <trkpt lat="46.95715" lon="8.7347">
        <ele>1238</ele>
        <time>2021-08-06T10:16:59.355Z</time>
      </trkpt>
      <trkpt lat="46.95714" lon="8.73469">
        <ele>1238</ele>
        <time>2021-08-06T10:17:00.355Z</time>
      </trkpt>
      <trkpt lat="46.95714" lon="8.73467">
        <ele>1239</ele>
        <time>2021-08-06T10:17:01.354Z</time>
      </trkpt>
      <trkpt lat="46.95712" lon="8.73467">
        <ele>1239</ele>
        <time>2021-08-06T10:17:02.355Z</time>
      </trkpt>
      <trkpt lat="46.95711" lon="8.73466">
        <ele>1240</ele>
        <time>2021-08-06T10:17:03.355Z</time>
      </trkpt>
      <trkpt lat="46.95709" lon="8.73466">
        <ele>1241</ele>
        <time>2021-08-06T10:17:04.355Z</time>
      </trkpt>
      <trkpt lat="46.95707" lon="8.73465">
        <ele>1241</ele>
        <time>2021-08-06T10:17:05.355Z</time>
      </trkpt>
      <trkpt lat="46.95706" lon="8.73464">
        <ele>1242</ele>
        <time>2021-08-06T10:17:06.355Z</time>
      </trkpt>
      <trkpt lat="46.95704" lon="8.73463">
        <ele>1243</ele>
        <time>2021-08-06T10:17:07.354Z</time>
      </trkpt>
      <trkpt lat="46.95703" lon="8.73462">
        <ele>1243</ele>
        <time>2021-08-06T10:17:08.354Z</time>
      </trkpt>
      <trkpt lat="46.95702" lon="8.73462">
        <ele>1244</ele>
        <time>2021-08-06T10:17:09.354Z</time>
      </trkpt>
      <trkpt lat="46.95701" lon="8.73461">
        <ele>1246</ele>
        <time>2021-08-06T10:17:10.354Z</time>
      </trkpt>
      <trkpt lat="46.95701" lon="8.7346">
        <ele>1246</ele>
        <time>2021-08-06T10:17:11.354Z</time>
      </trkpt>
      <trkpt lat="46.957" lon="8.73459">
        <ele>1247</ele>
        <time>2021-08-06T10:17:12.355Z</time>
      </trkpt>
      <trkpt lat="46.95699" lon="8.73458">
        <ele>1248</ele>
        <time>2021-08-06T10:17:13.355Z</time>
      </trkpt>
      <trkpt lat="46.95699" lon="8.73457">
        <ele>1248</ele>
        <time>2021-08-06T10:17:14.355Z</time>
      </trkpt>
      <trkpt lat="46.95699" lon="8.73457">
        <ele>1249</ele>
        <time>2021-08-06T10:17:15.354Z</time>
      </trkpt>
      <trkpt lat="46.95698" lon="8.73456">
        <ele>1249</ele>
        <time>2021-08-06T10:17:16.355Z</time>
      </trkpt>
      <trkpt lat="46.95697" lon="8.73456">
        <ele>1250</ele>
        <time>2021-08-06T10:17:17.355Z</time>
      </trkpt>
      <trkpt lat="46.95695" lon="8.73455">
        <ele>1250</ele>
        <time>2021-08-06T10:17:18.355Z</time>
      </trkpt>
      <trkpt lat="46.95694" lon="8.73454">
        <ele>1251</ele>
        <time>2021-08-06T10:17:19.355Z</time>
      </trkpt>
      <trkpt lat="46.95694" lon="8.73454">
        <ele>1251</ele>
        <time>2021-08-06T10:17:20.354Z</time>
      </trkpt>
      <trkpt lat="46.95694" lon="8.73454">
        <ele>1252</ele>
        <time>2021-08-06T10:17:21.355Z</time>
      </trkpt>
      <trkpt lat="46.95693" lon="8.73453">
        <ele>1252</ele>
        <time>2021-08-06T10:17:22.355Z</time>
      </trkpt>
      <trkpt lat="46.95692" lon="8.73453">
        <ele>1252</ele>
        <time>2021-08-06T10:17:23.354Z</time>
      </trkpt>
      <trkpt lat="46.95691" lon="8.73453">
        <ele>1252</ele>
        <time>2021-08-06T10:17:24.355Z</time>
      </trkpt>
      <trkpt lat="46.9569" lon="8.73452">
        <ele>1252</ele>
        <time>2021-08-06T10:17:25.355Z</time>
      </trkpt>
      <trkpt lat="46.9569" lon="8.73452">
        <ele>1252</ele>
        <time>2021-08-06T10:17:26.355Z</time>
      </trkpt>
      <trkpt lat="46.95689" lon="8.73451">
        <ele>1253</ele>
        <time>2021-08-06T10:17:27.354Z</time>
      </trkpt>
      <trkpt lat="46.95689" lon="8.7345">
        <ele>1253</ele>
        <time>2021-08-06T10:17:28.354Z</time>
      </trkpt>
      <trkpt lat="46.95688" lon="8.7345">
        <ele>1253</ele>
        <time>2021-08-06T10:17:29.355Z</time>
      </trkpt>
      <trkpt lat="46.95687" lon="8.73449">
        <ele>1254</ele>
        <time>2021-08-06T10:17:30.354Z</time>
      </trkpt>
      <trkpt lat="46.95686" lon="8.73449">
        <ele>1254</ele>
        <time>2021-08-06T10:17:31.354Z</time>
      </trkpt>
      <trkpt lat="46.95685" lon="8.73449">
        <ele>1254</ele>
        <time>2021-08-06T10:17:32.354Z</time>
      </trkpt>
      <trkpt lat="46.95685" lon="8.73449">
        <ele>1254</ele>
        <time>2021-08-06T10:17:33.354Z</time>
      </trkpt>
      <trkpt lat="46.95684" lon="8.73447">
        <ele>1254</ele>
        <time>2021-08-06T10:17:34.355Z</time>
      </trkpt>
      <trkpt lat="46.95684" lon="8.73446">
        <ele>1254</ele>
        <time>2021-08-06T10:17:35.354Z</time>
      </trkpt>
      <trkpt lat="46.95683" lon="8.73445">
        <ele>1255</ele>
        <time>2021-08-06T10:17:36.354Z</time>
      </trkpt>
      <trkpt lat="46.95682" lon="8.73445">
        <ele>1255</ele>
        <time>2021-08-06T10:17:37.355Z</time>
      </trkpt>
      <trkpt lat="46.95681" lon="8.73445">
        <ele>1255</ele>
        <time>2021-08-06T10:17:38.354Z</time>
      </trkpt>
      <trkpt lat="46.95681" lon="8.73444">
        <ele>1255</ele>
        <time>2021-08-06T10:17:39.354Z</time>
      </trkpt>
      <trkpt lat="46.9568" lon="8.73444">
        <ele>1256</ele>
        <time>2021-08-06T10:17:40.354Z</time>
      </trkpt>
      <trkpt lat="46.95679" lon="8.73443">
        <ele>1256</ele>
        <time>2021-08-06T10:17:41.355Z</time>
      </trkpt>
      <trkpt lat="46.95678" lon="8.73443">
        <ele>1256</ele>
        <time>2021-08-06T10:17:42.355Z</time>
      </trkpt>
      <trkpt lat="46.95678" lon="8.73442">
        <ele>1256</ele>
        <time>2021-08-06T10:17:43.355Z</time>
      </trkpt>
      <trkpt lat="46.95677" lon="8.73441">
        <ele>1256</ele>
        <time>2021-08-06T10:17:44.355Z</time>
      </trkpt>
      <trkpt lat="46.95677" lon="8.7344">
        <ele>1256</ele>
        <time>2021-08-06T10:17:45.355Z</time>
      </trkpt>
      <trkpt lat="46.95677" lon="8.73439">
        <ele>1257</ele>
        <time>2021-08-06T10:17:46.355Z</time>
      </trkpt>
      <trkpt lat="46.95677" lon="8.73438">
        <ele>1257</ele>
        <time>2021-08-06T10:17:47.355Z</time>
      </trkpt>
      <trkpt lat="46.95677" lon="8.73437">
        <ele>1257</ele>
        <time>2021-08-06T10:17:48.355Z</time>
      </trkpt>
      <trkpt lat="46.95677" lon="8.73436">
        <ele>1257</ele>
        <time>2021-08-06T10:17:49.355Z</time>
      </trkpt>
      <trkpt lat="46.95677" lon="8.73436">
        <ele>1258</ele>
        <time>2021-08-06T10:17:50.355Z</time>
      </trkpt>
      <trkpt lat="46.95676" lon="8.73435">
        <ele>1258</ele>
        <time>2021-08-06T10:17:51.354Z</time>
      </trkpt>
      <trkpt lat="46.95676" lon="8.73434">
        <ele>1258</ele>
        <time>2021-08-06T10:17:52.355Z</time>
      </trkpt>
      <trkpt lat="46.95677" lon="8.73433">
        <ele>1257</ele>
        <time>2021-08-06T10:17:53.355Z</time>
      </trkpt>
      <trkpt lat="46.95676" lon="8.73431">
        <ele>1257</ele>
        <time>2021-08-06T10:17:54.355Z</time>
      </trkpt>
      <trkpt lat="46.95676" lon="8.73431">
        <ele>1257</ele>
        <time>2021-08-06T10:17:55.354Z</time>
      </trkpt>
      <trkpt lat="46.95675" lon="8.73429">
        <ele>1258</ele>
        <time>2021-08-06T10:17:56.355Z</time>
      </trkpt>
      <trkpt lat="46.95674" lon="8.73428">
        <ele>1258</ele>
        <time>2021-08-06T10:17:57.355Z</time>
      </trkpt>
      <trkpt lat="46.95674" lon="8.73427">
        <ele>1258</ele>
        <time>2021-08-06T10:17:58.355Z</time>
      </trkpt>
      <trkpt lat="46.95673" lon="8.73426">
        <ele>1258</ele>
        <time>2021-08-06T10:17:59.354Z</time>
      </trkpt>
      <trkpt lat="46.95673" lon="8.73425">
        <ele>1258</ele>
        <time>2021-08-06T10:18:00.355Z</time>
      </trkpt>
      <trkpt lat="46.95673" lon="8.73425">
        <ele>1258</ele>
        <time>2021-08-06T10:18:01.355Z</time>
      </trkpt>
      <trkpt lat="46.95673" lon="8.73423">
        <ele>1257</ele>
        <time>2021-08-06T10:18:02.355Z</time>
      </trkpt>
      <trkpt lat="46.95673" lon="8.73422">
        <ele>1257</ele>
        <time>2021-08-06T10:18:03.355Z</time>
      </trkpt>
      <trkpt lat="46.95673" lon="8.73421">
        <ele>1257</ele>
        <time>2021-08-06T10:18:04.354Z</time>
      </trkpt>
      <trkpt lat="46.95673" lon="8.7342">
        <ele>1257</ele>
        <time>2021-08-06T10:18:05.354Z</time>
      </trkpt>
      <trkpt lat="46.95673" lon="8.73419">
        <ele>1257</ele>
        <time>2021-08-06T10:18:06.355Z</time>
      </trkpt>
      <trkpt lat="46.95673" lon="8.73418">
        <ele>1256</ele>
        <time>2021-08-06T10:18:07.355Z</time>
      </trkpt>
      <trkpt lat="46.95674" lon="8.73416">
        <ele>1256</ele>
        <time>2021-08-06T10:18:08.354Z</time>
      </trkpt>
      <trkpt lat="46.95673" lon="8.73415">
        <ele>1256</ele>
        <time>2021-08-06T10:18:09.355Z</time>
      </trkpt>
      <trkpt lat="46.95672" lon="8.73414">
        <ele>1255</ele>
        <time>2021-08-06T10:18:10.354Z</time>
      </trkpt>
      <trkpt lat="46.95671" lon="8.73413">
        <ele>1255</ele>
        <time>2021-08-06T10:18:11.354Z</time>
      </trkpt>
      <trkpt lat="46.9567" lon="8.73412">
        <ele>1255</ele>
        <time>2021-08-06T10:18:12.355Z</time>
      </trkpt>
      <trkpt lat="46.9567" lon="8.73412">
        <ele>1255</ele>
        <time>2021-08-06T10:18:13.355Z</time>
      </trkpt>
      <trkpt lat="46.95669" lon="8.73411">
        <ele>1255</ele>
        <time>2021-08-06T10:18:14.354Z</time>
      </trkpt>
      <trkpt lat="46.95668" lon="8.7341">
        <ele>1256</ele>
        <time>2021-08-06T10:18:15.355Z</time>
      </trkpt>
      <trkpt lat="46.95668" lon="8.73409">
        <ele>1256</ele>
        <time>2021-08-06T10:18:16.355Z</time>
      </trkpt>
      <trkpt lat="46.95667" lon="8.73407">
        <ele>1256</ele>
        <time>2021-08-06T10:18:17.355Z</time>
      </trkpt>
      <trkpt lat="46.95666" lon="8.73406">
        <ele>1256</ele>
        <time>2021-08-06T10:18:18.355Z</time>
      </trkpt>
      <trkpt lat="46.95664" lon="8.73405">
        <ele>1256</ele>
        <time>2021-08-06T10:18:19.355Z</time>
      </trkpt>
      <trkpt lat="46.95664" lon="8.73404">
        <ele>1256</ele>
        <time>2021-08-06T10:18:20.355Z</time>
      </trkpt>
      <trkpt lat="46.95663" lon="8.73403">
        <ele>1257</ele>
        <time>2021-08-06T10:18:21.355Z</time>
      </trkpt>
      <trkpt lat="46.95663" lon="8.73402">
        <ele>1257</ele>
        <time>2021-08-06T10:18:22.355Z</time>
      </trkpt>
      <trkpt lat="46.95663" lon="8.73401">
        <ele>1258</ele>
        <time>2021-08-06T10:18:23.355Z</time>
      </trkpt>
      <trkpt lat="46.95662" lon="8.734">
        <ele>1258</ele>
        <time>2021-08-06T10:18:24.355Z</time>
      </trkpt>
      <trkpt lat="46.95662" lon="8.734">
        <ele>1259</ele>
        <time>2021-08-06T10:18:25.355Z</time>
      </trkpt>
      <trkpt lat="46.95661" lon="8.73399">
        <ele>1259</ele>
        <time>2021-08-06T10:18:26.355Z</time>
      </trkpt>
      <trkpt lat="46.9566" lon="8.73398">
        <ele>1259</ele>
        <time>2021-08-06T10:18:27.355Z</time>
      </trkpt>
      <trkpt lat="46.95659" lon="8.73396">
        <ele>1260</ele>
        <time>2021-08-06T10:18:28.355Z</time>
      </trkpt>
      <trkpt lat="46.95658" lon="8.73395">
        <ele>1260</ele>
        <time>2021-08-06T10:18:29.354Z</time>
      </trkpt>
      <trkpt lat="46.95657" lon="8.73394">
        <ele>1260</ele>
        <time>2021-08-06T10:18:30.354Z</time>
      </trkpt>
      <trkpt lat="46.95656" lon="8.73394">
        <ele>1260</ele>
        <time>2021-08-06T10:18:31.355Z</time>
      </trkpt>
      <trkpt lat="46.95655" lon="8.73394">
        <ele>1260</ele>
        <time>2021-08-06T10:18:32.355Z</time>
      </trkpt>
      <trkpt lat="46.95654" lon="8.73393">
        <ele>1260</ele>
        <time>2021-08-06T10:18:33.355Z</time>
      </trkpt>
      <trkpt lat="46.95652" lon="8.73391">
        <ele>1260</ele>
        <time>2021-08-06T10:18:34.355Z</time>
      </trkpt>
      <trkpt lat="46.95652" lon="8.73391">
        <ele>1260</ele>
        <time>2021-08-06T10:18:35.356Z</time>
      </trkpt>
      <trkpt lat="46.95653" lon="8.73391">
        <ele>1259</ele>
        <time>2021-08-06T10:18:36.355Z</time>
      </trkpt>
      <trkpt lat="46.95653" lon="8.7339">
        <ele>1259</ele>
        <time>2021-08-06T10:18:37.356Z</time>
      </trkpt>
      <trkpt lat="46.95654" lon="8.73389">
        <ele>1259</ele>
        <time>2021-08-06T10:18:38.355Z</time>
      </trkpt>
      <trkpt lat="46.95654" lon="8.73389">
        <ele>1259</ele>
        <time>2021-08-06T10:18:39.355Z</time>
      </trkpt>
      <trkpt lat="46.95654" lon="8.73388">
        <ele>1258</ele>
        <time>2021-08-06T10:18:40.356Z</time>
      </trkpt>
      <trkpt lat="46.95654" lon="8.73387">
        <ele>1258</ele>
        <time>2021-08-06T10:18:41.356Z</time>
      </trkpt>
      <trkpt lat="46.95654" lon="8.73386">
        <ele>1258</ele>
        <time>2021-08-06T10:18:42.356Z</time>
      </trkpt>
      <trkpt lat="46.95653" lon="8.73385">
        <ele>1258</ele>
        <time>2021-08-06T10:18:43.356Z</time>
      </trkpt>
      <trkpt lat="46.95653" lon="8.73384">
        <ele>1258</ele>
        <time>2021-08-06T10:18:44.355Z</time>
      </trkpt>
      <trkpt lat="46.95652" lon="8.73383">
        <ele>1258</ele>
        <time>2021-08-06T10:18:45.356Z</time>
      </trkpt>
      <trkpt lat="46.95651" lon="8.73382">
        <ele>1258</ele>
        <time>2021-08-06T10:18:46.356Z</time>
      </trkpt>
      <trkpt lat="46.95651" lon="8.73382">
        <ele>1259</ele>
        <time>2021-08-06T10:18:47.355Z</time>
      </trkpt>
      <trkpt lat="46.9565" lon="8.73381">
        <ele>1259</ele>
        <time>2021-08-06T10:18:48.356Z</time>
      </trkpt>
      <trkpt lat="46.9565" lon="8.7338">
        <ele>1259</ele>
        <time>2021-08-06T10:18:49.356Z</time>
      </trkpt>
      <trkpt lat="46.9565" lon="8.73379">
        <ele>1259</ele>
        <time>2021-08-06T10:18:50.356Z</time>
      </trkpt>
      <trkpt lat="46.95651" lon="8.73379">
        <ele>1260</ele>
        <time>2021-08-06T10:18:51.356Z</time>
      </trkpt>
      <trkpt lat="46.95651" lon="8.73378">
        <ele>1260</ele>
        <time>2021-08-06T10:18:52.355Z</time>
      </trkpt>
      <trkpt lat="46.95651" lon="8.73377">
        <ele>1260</ele>
        <time>2021-08-06T10:18:53.355Z</time>
      </trkpt>
      <trkpt lat="46.9565" lon="8.73376">
        <ele>1260</ele>
        <time>2021-08-06T10:18:54.356Z</time>
      </trkpt>
      <trkpt lat="46.95649" lon="8.73376">
        <ele>1260</ele>
        <time>2021-08-06T10:18:55.356Z</time>
      </trkpt>
      <trkpt lat="46.95648" lon="8.73375">
        <ele>1261</ele>
        <time>2021-08-06T10:18:56.355Z</time>
      </trkpt>
      <trkpt lat="46.95647" lon="8.73374">
        <ele>1261</ele>
        <time>2021-08-06T10:18:57.355Z</time>
      </trkpt>
      <trkpt lat="46.95647" lon="8.73373">
        <ele>1261</ele>
        <time>2021-08-06T10:18:58.356Z</time>
      </trkpt>
      <trkpt lat="46.95646" lon="8.73373">
        <ele>1261</ele>
        <time>2021-08-06T10:18:59.356Z</time>
      </trkpt>
      <trkpt lat="46.95646" lon="8.73372">
        <ele>1261</ele>
        <time>2021-08-06T10:19:00.355Z</time>
      </trkpt>
      <trkpt lat="46.95646" lon="8.73371">
        <ele>1261</ele>
        <time>2021-08-06T10:19:01.355Z</time>
      </trkpt>
      <trkpt lat="46.95645" lon="8.73371">
        <ele>1261</ele>
        <time>2021-08-06T10:19:02.355Z</time>
      </trkpt>
      <trkpt lat="46.95645" lon="8.7337">
        <ele>1262</ele>
        <time>2021-08-06T10:19:03.356Z</time>
      </trkpt>
      <trkpt lat="46.95645" lon="8.7337">
        <ele>1262</ele>
        <time>2021-08-06T10:19:04.356Z</time>
      </trkpt>
      <trkpt lat="46.95645" lon="8.73369">
        <ele>1262</ele>
        <time>2021-08-06T10:19:05.356Z</time>
      </trkpt>
      <trkpt lat="46.95645" lon="8.73369">
        <ele>1262</ele>
        <time>2021-08-06T10:19:06.356Z</time>
      </trkpt>
      <trkpt lat="46.95645" lon="8.73368">
        <ele>1262</ele>
        <time>2021-08-06T10:19:07.355Z</time>
      </trkpt>
      <trkpt lat="46.95645" lon="8.73367">
        <ele>1262</ele>
        <time>2021-08-06T10:19:08.355Z</time>
      </trkpt>
      <trkpt lat="46.95645" lon="8.73367">
        <ele>1262</ele>
        <time>2021-08-06T10:19:09.355Z</time>
      </trkpt>
      <trkpt lat="46.95644" lon="8.73366">
        <ele>1262</ele>
        <time>2021-08-06T10:19:10.356Z</time>
      </trkpt>
      <trkpt lat="46.95643" lon="8.73366">
        <ele>1262</ele>
        <time>2021-08-06T10:19:11.355Z</time>
      </trkpt>
      <trkpt lat="46.95643" lon="8.73365">
        <ele>1263</ele>
        <time>2021-08-06T10:19:12.355Z</time>
      </trkpt>
      <trkpt lat="46.95643" lon="8.73365">
        <ele>1264</ele>
        <time>2021-08-06T10:19:13.356Z</time>
      </trkpt>
      <trkpt lat="46.95643" lon="8.73363">
        <ele>1264</ele>
        <time>2021-08-06T10:19:14.356Z</time>
      </trkpt>
      <trkpt lat="46.95644" lon="8.73363">
        <ele>1264</ele>
        <time>2021-08-06T10:19:15.356Z</time>
      </trkpt>
      <trkpt lat="46.95643" lon="8.73362">
        <ele>1264</ele>
        <time>2021-08-06T10:19:16.356Z</time>
      </trkpt>
      <trkpt lat="46.95643" lon="8.7336">
        <ele>1264</ele>
        <time>2021-08-06T10:19:17.356Z</time>
      </trkpt>
      <trkpt lat="46.95643" lon="8.7336">
        <ele>1264</ele>
        <time>2021-08-06T10:19:18.356Z</time>
      </trkpt>
      <trkpt lat="46.95643" lon="8.73359">
        <ele>1264</ele>
        <time>2021-08-06T10:19:19.356Z</time>
      </trkpt>
      <trkpt lat="46.95643" lon="8.73359">
        <ele>1264</ele>
        <time>2021-08-06T10:19:20.356Z</time>
      </trkpt>
      <trkpt lat="46.95642" lon="8.73359">
        <ele>1263</ele>
        <time>2021-08-06T10:19:21.356Z</time>
      </trkpt>
      <trkpt lat="46.95642" lon="8.73358">
        <ele>1263</ele>
        <time>2021-08-06T10:19:22.355Z</time>
      </trkpt>
      <trkpt lat="46.95642" lon="8.73357">
        <ele>1263</ele>
        <time>2021-08-06T10:19:23.355Z</time>
      </trkpt>
      <trkpt lat="46.95642" lon="8.73357">
        <ele>1263</ele>
        <time>2021-08-06T10:19:24.355Z</time>
      </trkpt>
      <trkpt lat="46.95642" lon="8.73356">
        <ele>1263</ele>
        <time>2021-08-06T10:19:25.355Z</time>
      </trkpt>
      <trkpt lat="46.95641" lon="8.73356">
        <ele>1263</ele>
        <time>2021-08-06T10:19:26.356Z</time>
      </trkpt>
      <trkpt lat="46.95641" lon="8.73355">
        <ele>1263</ele>
        <time>2021-08-06T10:19:27.355Z</time>
      </trkpt>
      <trkpt lat="46.9564" lon="8.73354">
        <ele>1263</ele>
        <time>2021-08-06T10:19:28.356Z</time>
      </trkpt>
      <trkpt lat="46.95639" lon="8.73354">
        <ele>1263</ele>
        <time>2021-08-06T10:19:29.355Z</time>
      </trkpt>
      <trkpt lat="46.95639" lon="8.73353">
        <ele>1263</ele>
        <time>2021-08-06T10:19:30.356Z</time>
      </trkpt>
      <trkpt lat="46.95639" lon="8.73352">
        <ele>1263</ele>
        <time>2021-08-06T10:19:31.356Z</time>
      </trkpt>
      <trkpt lat="46.95639" lon="8.73351">
        <ele>1263</ele>
        <time>2021-08-06T10:19:32.356Z</time>
      </trkpt>
      <trkpt lat="46.95638" lon="8.7335">
        <ele>1263</ele>
        <time>2021-08-06T10:19:33.355Z</time>
      </trkpt>
      <trkpt lat="46.95636" lon="8.73349">
        <ele>1264</ele>
        <time>2021-08-06T10:19:34.356Z</time>
      </trkpt>
      <trkpt lat="46.95636" lon="8.73349">
        <ele>1264</ele>
        <time>2021-08-06T10:19:35.355Z</time>
      </trkpt>
      <trkpt lat="46.95635" lon="8.73348">
        <ele>1264</ele>
        <time>2021-08-06T10:19:36.355Z</time>
      </trkpt>
      <trkpt lat="46.95635" lon="8.73347">
        <ele>1264</ele>
        <time>2021-08-06T10:19:37.355Z</time>
      </trkpt>
      <trkpt lat="46.95636" lon="8.73346">
        <ele>1264</ele>
        <time>2021-08-06T10:19:38.355Z</time>
      </trkpt>
      <trkpt lat="46.95636" lon="8.73345">
        <ele>1264</ele>
        <time>2021-08-06T10:19:39.356Z</time>
      </trkpt>
      <trkpt lat="46.95636" lon="8.73344">
        <ele>1264</ele>
        <time>2021-08-06T10:19:40.355Z</time>
      </trkpt>
      <trkpt lat="46.95636" lon="8.73343">
        <ele>1264</ele>
        <time>2021-08-06T10:19:41.356Z</time>
      </trkpt>
      <trkpt lat="46.95635" lon="8.73342">
        <ele>1265</ele>
        <time>2021-08-06T10:19:42.355Z</time>
      </trkpt>
      <trkpt lat="46.95635" lon="8.73341">
        <ele>1265</ele>
        <time>2021-08-06T10:19:43.355Z</time>
      </trkpt>
      <trkpt lat="46.95634" lon="8.7334">
        <ele>1265</ele>
        <time>2021-08-06T10:19:44.356Z</time>
      </trkpt>
      <trkpt lat="46.95633" lon="8.73339">
        <ele>1265</ele>
        <time>2021-08-06T10:19:45.355Z</time>
      </trkpt>
      <trkpt lat="46.95632" lon="8.73338">
        <ele>1265</ele>
        <time>2021-08-06T10:19:46.355Z</time>
      </trkpt>
      <trkpt lat="46.95631" lon="8.73336">
        <ele>1265</ele>
        <time>2021-08-06T10:19:47.356Z</time>
      </trkpt>
      <trkpt lat="46.95631" lon="8.73335">
        <ele>1265</ele>
        <time>2021-08-06T10:19:48.355Z</time>
      </trkpt>
      <trkpt lat="46.9563" lon="8.73333">
        <ele>1266</ele>
        <time>2021-08-06T10:19:49.356Z</time>
      </trkpt>
      <trkpt lat="46.95629" lon="8.73331">
        <ele>1266</ele>
        <time>2021-08-06T10:19:50.355Z</time>
      </trkpt>
      <trkpt lat="46.95628" lon="8.73329">
        <ele>1266</ele>
        <time>2021-08-06T10:19:51.355Z</time>
      </trkpt>
      <trkpt lat="46.95628" lon="8.73328">
        <ele>1266</ele>
        <time>2021-08-06T10:19:52.355Z</time>
      </trkpt>
      <trkpt lat="46.95627" lon="8.73326">
        <ele>1266</ele>
        <time>2021-08-06T10:19:53.356Z</time>
      </trkpt>
      <trkpt lat="46.95627" lon="8.73325">
        <ele>1267</ele>
        <time>2021-08-06T10:19:54.356Z</time>
      </trkpt>
      <trkpt lat="46.95627" lon="8.73325">
        <ele>1267</ele>
        <time>2021-08-06T10:19:55.356Z</time>
      </trkpt>
      <trkpt lat="46.95628" lon="8.73324">
        <ele>1267</ele>
        <time>2021-08-06T10:19:56.356Z</time>
      </trkpt>
      <trkpt lat="46.95628" lon="8.73324">
        <ele>1267</ele>
        <time>2021-08-06T10:19:57.356Z</time>
      </trkpt>
      <trkpt lat="46.95628" lon="8.73324">
        <ele>1267</ele>
        <time>2021-08-06T10:19:58.355Z</time>
      </trkpt>
      <trkpt lat="46.95628" lon="8.73323">
        <ele>1267</ele>
        <time>2021-08-06T10:19:59.355Z</time>
      </trkpt>
      <trkpt lat="46.95628" lon="8.73322">
        <ele>1267</ele>
        <time>2021-08-06T10:20:00.356Z</time>
      </trkpt>
      <trkpt lat="46.95628" lon="8.73321">
        <ele>1267</ele>
        <time>2021-08-06T10:20:01.355Z</time>
      </trkpt>
      <trkpt lat="46.95628" lon="8.7332">
        <ele>1267</ele>
        <time>2021-08-06T10:20:02.356Z</time>
      </trkpt>
      <trkpt lat="46.95628" lon="8.73319">
        <ele>1266</ele>
        <time>2021-08-06T10:20:03.356Z</time>
      </trkpt>
      <trkpt lat="46.95627" lon="8.73318">
        <ele>1266</ele>
        <time>2021-08-06T10:20:04.355Z</time>
      </trkpt>
      <trkpt lat="46.95627" lon="8.73317">
        <ele>1266</ele>
        <time>2021-08-06T10:20:05.356Z</time>
      </trkpt>
      <trkpt lat="46.95626" lon="8.73317">
        <ele>1266</ele>
        <time>2021-08-06T10:20:06.355Z</time>
      </trkpt>
      <trkpt lat="46.95626" lon="8.73316">
        <ele>1266</ele>
        <time>2021-08-06T10:20:07.356Z</time>
      </trkpt>
      <trkpt lat="46.95626" lon="8.73316">
        <ele>1266</ele>
        <time>2021-08-06T10:20:08.355Z</time>
      </trkpt>
      <trkpt lat="46.95625" lon="8.73315">
        <ele>1266</ele>
        <time>2021-08-06T10:20:09.355Z</time>
      </trkpt>
      <trkpt lat="46.95625" lon="8.73314">
        <ele>1266</ele>
        <time>2021-08-06T10:20:10.355Z</time>
      </trkpt>
      <trkpt lat="46.95625" lon="8.73313">
        <ele>1266</ele>
        <time>2021-08-06T10:20:11.355Z</time>
      </trkpt>
      <trkpt lat="46.95624" lon="8.73312">
        <ele>1266</ele>
        <time>2021-08-06T10:20:12.355Z</time>
      </trkpt>
      <trkpt lat="46.95623" lon="8.73312">
        <ele>1266</ele>
        <time>2021-08-06T10:20:13.356Z</time>
      </trkpt>
      <trkpt lat="46.95623" lon="8.7331">
        <ele>1267</ele>
        <time>2021-08-06T10:20:14.355Z</time>
      </trkpt>
      <trkpt lat="46.95623" lon="8.7331">
        <ele>1267</ele>
        <time>2021-08-06T10:20:15.356Z</time>
      </trkpt>
      <trkpt lat="46.95623" lon="8.73308">
        <ele>1267</ele>
        <time>2021-08-06T10:20:16.355Z</time>
      </trkpt>
      <trkpt lat="46.95622" lon="8.73307">
        <ele>1267</ele>
        <time>2021-08-06T10:20:17.356Z</time>
      </trkpt>
      <trkpt lat="46.95622" lon="8.73305">
        <ele>1267</ele>
        <time>2021-08-06T10:20:18.356Z</time>
      </trkpt>
      <trkpt lat="46.95621" lon="8.73304">
        <ele>1267</ele>
        <time>2021-08-06T10:20:19.355Z</time>
      </trkpt>
      <trkpt lat="46.95621" lon="8.73304">
        <ele>1267</ele>
        <time>2021-08-06T10:20:20.355Z</time>
      </trkpt>
      <trkpt lat="46.9562" lon="8.73303">
        <ele>1268</ele>
        <time>2021-08-06T10:20:21.355Z</time>
      </trkpt>
      <trkpt lat="46.9562" lon="8.73302">
        <ele>1268</ele>
        <time>2021-08-06T10:20:22.356Z</time>
      </trkpt>
      <trkpt lat="46.95619" lon="8.73301">
        <ele>1269</ele>
        <time>2021-08-06T10:20:23.356Z</time>
      </trkpt>
      <trkpt lat="46.95619" lon="8.733">
        <ele>1269</ele>
        <time>2021-08-06T10:20:24.355Z</time>
      </trkpt>
      <trkpt lat="46.95618" lon="8.733">
        <ele>1270</ele>
        <time>2021-08-06T10:20:25.356Z</time>
      </trkpt>
      <trkpt lat="46.95618" lon="8.73299">
        <ele>1271</ele>
        <time>2021-08-06T10:20:26.355Z</time>
      </trkpt>
      <trkpt lat="46.95618" lon="8.73298">
        <ele>1272</ele>
        <time>2021-08-06T10:20:27.356Z</time>
      </trkpt>
      <trkpt lat="46.95618" lon="8.73297">
        <ele>1272</ele>
        <time>2021-08-06T10:20:28.355Z</time>
      </trkpt>
      <trkpt lat="46.95618" lon="8.73296">
        <ele>1273</ele>
        <time>2021-08-06T10:20:29.355Z</time>
      </trkpt>
      <trkpt lat="46.95618" lon="8.73294">
        <ele>1274</ele>
        <time>2021-08-06T10:20:30.356Z</time>
      </trkpt>
      <trkpt lat="46.95618" lon="8.73293">
        <ele>1274</ele>
        <time>2021-08-06T10:20:31.355Z</time>
      </trkpt>
      <trkpt lat="46.95617" lon="8.73292">
        <ele>1274</ele>
        <time>2021-08-06T10:20:32.356Z</time>
      </trkpt>
      <trkpt lat="46.95617" lon="8.73291">
        <ele>1274</ele>
        <time>2021-08-06T10:20:33.355Z</time>
      </trkpt>
      <trkpt lat="46.95617" lon="8.73291">
        <ele>1275</ele>
        <time>2021-08-06T10:20:34.355Z</time>
      </trkpt>
      <trkpt lat="46.95617" lon="8.7329">
        <ele>1275</ele>
        <time>2021-08-06T10:20:35.356Z</time>
      </trkpt>
      <trkpt lat="46.95616" lon="8.7329">
        <ele>1275</ele>
        <time>2021-08-06T10:20:36.355Z</time>
      </trkpt>
      <trkpt lat="46.95616" lon="8.73289">
        <ele>1275</ele>
        <time>2021-08-06T10:20:37.355Z</time>
      </trkpt>
      <trkpt lat="46.95616" lon="8.73288">
        <ele>1275</ele>
        <time>2021-08-06T10:20:38.355Z</time>
      </trkpt>
      <trkpt lat="46.95615" lon="8.73287">
        <ele>1276</ele>
        <time>2021-08-06T10:20:39.355Z</time>
      </trkpt>
      <trkpt lat="46.95614" lon="8.73286">
        <ele>1276</ele>
        <time>2021-08-06T10:20:40.355Z</time>
      </trkpt>
      <trkpt lat="46.95614" lon="8.73285">
        <ele>1277</ele>
        <time>2021-08-06T10:20:41.355Z</time>
      </trkpt>
      <trkpt lat="46.95613" lon="8.73285">
        <ele>1277</ele>
        <time>2021-08-06T10:20:42.356Z</time>
      </trkpt>
      <trkpt lat="46.95613" lon="8.73284">
        <ele>1277</ele>
        <time>2021-08-06T10:20:43.355Z</time>
      </trkpt>
      <trkpt lat="46.95613" lon="8.73284">
        <ele>1277</ele>
        <time>2021-08-06T10:20:44.356Z</time>
      </trkpt>
      <trkpt lat="46.95613" lon="8.73283">
        <ele>1277</ele>
        <time>2021-08-06T10:20:45.355Z</time>
      </trkpt>
      <trkpt lat="46.95613" lon="8.73282">
        <ele>1277</ele>
        <time>2021-08-06T10:20:46.355Z</time>
      </trkpt>
      <trkpt lat="46.95614" lon="8.73281">
        <ele>1277</ele>
        <time>2021-08-06T10:20:47.355Z</time>
      </trkpt>
      <trkpt lat="46.95614" lon="8.73281">
        <ele>1276</ele>
        <time>2021-08-06T10:20:48.355Z</time>
      </trkpt>
      <trkpt lat="46.95613" lon="8.73279">
        <ele>1276</ele>
        <time>2021-08-06T10:20:49.355Z</time>
      </trkpt>
      <trkpt lat="46.95613" lon="8.73278">
        <ele>1275</ele>
        <time>2021-08-06T10:20:50.355Z</time>
      </trkpt>
      <trkpt lat="46.95612" lon="8.73277">
        <ele>1275</ele>
        <time>2021-08-06T10:20:51.355Z</time>
      </trkpt>
      <trkpt lat="46.95611" lon="8.73276">
        <ele>1275</ele>
        <time>2021-08-06T10:20:52.355Z</time>
      </trkpt>
      <trkpt lat="46.95611" lon="8.73276">
        <ele>1275</ele>
        <time>2021-08-06T10:20:53.356Z</time>
      </trkpt>
      <trkpt lat="46.9561" lon="8.73275">
        <ele>1275</ele>
        <time>2021-08-06T10:20:54.355Z</time>
      </trkpt>
      <trkpt lat="46.95609" lon="8.73274">
        <ele>1276</ele>
        <time>2021-08-06T10:20:55.355Z</time>
      </trkpt>
      <trkpt lat="46.95607" lon="8.73273">
        <ele>1277</ele>
        <time>2021-08-06T10:20:56.355Z</time>
      </trkpt>
      <trkpt lat="46.95607" lon="8.73272">
        <ele>1277</ele>
        <time>2021-08-06T10:20:57.356Z</time>
      </trkpt>
      <trkpt lat="46.95606" lon="8.73272">
        <ele>1278</ele>
        <time>2021-08-06T10:20:58.356Z</time>
      </trkpt>
      <trkpt lat="46.95606" lon="8.73271">
        <ele>1278</ele>
        <time>2021-08-06T10:20:59.356Z</time>
      </trkpt>
      <trkpt lat="46.95606" lon="8.7327">
        <ele>1278</ele>
        <time>2021-08-06T10:21:00.355Z</time>
      </trkpt>
      <trkpt lat="46.95606" lon="8.73269">
        <ele>1278</ele>
        <time>2021-08-06T10:21:01.355Z</time>
      </trkpt>
      <trkpt lat="46.95606" lon="8.73268">
        <ele>1277</ele>
        <time>2021-08-06T10:21:02.356Z</time>
      </trkpt>
      <trkpt lat="46.95605" lon="8.73267">
        <ele>1277</ele>
        <time>2021-08-06T10:21:03.355Z</time>
      </trkpt>
      <trkpt lat="46.95605" lon="8.73265">
        <ele>1277</ele>
        <time>2021-08-06T10:21:04.356Z</time>
      </trkpt>
      <trkpt lat="46.95605" lon="8.73264">
        <ele>1276</ele>
        <time>2021-08-06T10:21:05.356Z</time>
      </trkpt>
      <trkpt lat="46.95606" lon="8.73263">
        <ele>1276</ele>
        <time>2021-08-06T10:21:06.355Z</time>
      </trkpt>
      <trkpt lat="46.95606" lon="8.73262">
        <ele>1275</ele>
        <time>2021-08-06T10:21:07.356Z</time>
      </trkpt>
      <trkpt lat="46.95606" lon="8.73261">
        <ele>1275</ele>
        <time>2021-08-06T10:21:08.356Z</time>
      </trkpt>
      <trkpt lat="46.95607" lon="8.73261">
        <ele>1275</ele>
        <time>2021-08-06T10:21:09.355Z</time>
      </trkpt>
      <trkpt lat="46.95607" lon="8.7326">
        <ele>1275</ele>
        <time>2021-08-06T10:21:10.355Z</time>
      </trkpt>
      <trkpt lat="46.95606" lon="8.73261">
        <ele>1276</ele>
        <time>2021-08-06T10:21:11.356Z</time>
      </trkpt>
      <trkpt lat="46.95605" lon="8.73262">
        <ele>1277</ele>
        <time>2021-08-06T10:21:12.356Z</time>
      </trkpt>
      <trkpt lat="46.95605" lon="8.73263">
        <ele>1278</ele>
        <time>2021-08-06T10:21:13.356Z</time>
      </trkpt>
      <trkpt lat="46.95605" lon="8.73263">
        <ele>1279</ele>
        <time>2021-08-06T10:21:14.355Z</time>
      </trkpt>
      <trkpt lat="46.95606" lon="8.73264">
        <ele>1281</ele>
        <time>2021-08-06T10:21:15.355Z</time>
      </trkpt>
      <trkpt lat="46.95607" lon="8.73264">
        <ele>1282</ele>
        <time>2021-08-06T10:21:16.355Z</time>
      </trkpt>
      <trkpt lat="46.95607" lon="8.73264">
        <ele>1283</ele>
        <time>2021-08-06T10:21:17.356Z</time>
      </trkpt>
      <trkpt lat="46.95608" lon="8.73263">
        <ele>1285</ele>
        <time>2021-08-06T10:21:18.355Z</time>
      </trkpt>
      <trkpt lat="46.95608" lon="8.73263">
        <ele>1286</ele>
        <time>2021-08-06T10:21:19.356Z</time>
      </trkpt>
      <trkpt lat="46.95608" lon="8.73264">
        <ele>1287</ele>
        <time>2021-08-06T10:21:20.356Z</time>
      </trkpt>
      <trkpt lat="46.95607" lon="8.73263">
        <ele>1287</ele>
        <time>2021-08-06T10:21:21.355Z</time>
      </trkpt>
      <trkpt lat="46.95606" lon="8.73262">
        <ele>1288</ele>
        <time>2021-08-06T10:21:22.356Z</time>
      </trkpt>
      <trkpt lat="46.95606" lon="8.73261">
        <ele>1288</ele>
        <time>2021-08-06T10:21:23.356Z</time>
      </trkpt>
      <trkpt lat="46.95607" lon="8.7326">
        <ele>1285</ele>
        <time>2021-08-06T10:21:24.355Z</time>
      </trkpt>
      <trkpt lat="46.95607" lon="8.7326">
        <ele>1285</ele>
        <time>2021-08-06T10:21:25.356Z</time>
      </trkpt>
      <trkpt lat="46.95606" lon="8.73259">
        <ele>1285</ele>
        <time>2021-08-06T10:21:26.355Z</time>
      </trkpt>
      <trkpt lat="46.95605" lon="8.73259">
        <ele>1285</ele>
        <time>2021-08-06T10:21:27.355Z</time>
      </trkpt>
      <trkpt lat="46.95605" lon="8.73259">
        <ele>1285</ele>
        <time>2021-08-06T10:21:28.356Z</time>
      </trkpt>
      <trkpt lat="46.95604" lon="8.73259">
        <ele>1285</ele>
        <time>2021-08-06T10:21:29.355Z</time>
      </trkpt>
      <trkpt lat="46.95604" lon="8.73259">
        <ele>1285</ele>
        <time>2021-08-06T10:21:30.355Z</time>
      </trkpt>
      <trkpt lat="46.95604" lon="8.7326">
        <ele>1288</ele>
        <time>2021-08-06T10:21:31.355Z</time>
      </trkpt>
      <trkpt lat="46.95604" lon="8.7326">
        <ele>1288</ele>
        <time>2021-08-06T10:21:32.356Z</time>
      </trkpt>
      <trkpt lat="46.95604" lon="8.7326">
        <ele>1288</ele>
        <time>2021-08-06T10:21:33.355Z</time>
      </trkpt>
      <trkpt lat="46.95604" lon="8.7326">
        <ele>1288</ele>
        <time>2021-08-06T10:21:34.356Z</time>
      </trkpt>
      <trkpt lat="46.95604" lon="8.7326">
        <ele>1288</ele>
        <time>2021-08-06T10:21:35.355Z</time>
      </trkpt>
      <trkpt lat="46.95605" lon="8.73261">
        <ele>1285</ele>
        <time>2021-08-06T10:21:36.356Z</time>
      </trkpt>
      <trkpt lat="46.95605" lon="8.73261">
        <ele>1285</ele>
        <time>2021-08-06T10:21:37.355Z</time>
      </trkpt>
      <trkpt lat="46.95605" lon="8.73261">
        <ele>1285</ele>
        <time>2021-08-06T10:21:38.356Z</time>
      </trkpt>
      <trkpt lat="46.95605" lon="8.73261">
        <ele>1285</ele>
        <time>2021-08-06T10:21:39.356Z</time>
      </trkpt>
      <trkpt lat="46.95605" lon="8.73261">
        <ele>1285</ele>
        <time>2021-08-06T10:21:40.356Z</time>
      </trkpt>
      <trkpt lat="46.95603" lon="8.73258">
        <ele>1284</ele>
        <time>2021-08-06T10:21:41.356Z</time>
      </trkpt>
      <trkpt lat="46.95604" lon="8.73258">
        <ele>1283</ele>
        <time>2021-08-06T10:21:42.356Z</time>
      </trkpt>
      <trkpt lat="46.95604" lon="8.73259">
        <ele>1283</ele>
        <time>2021-08-06T10:21:43.356Z</time>
      </trkpt>
      <trkpt lat="46.95602" lon="8.73262">
        <ele>1284</ele>
        <time>2021-08-06T10:21:44.357Z</time>
      </trkpt>
      <trkpt lat="46.95601" lon="8.73262">
        <ele>1284</ele>
        <time>2021-08-06T10:21:45.356Z</time>
      </trkpt>
      <trkpt lat="46.95601" lon="8.73262">
        <ele>1283</ele>
        <time>2021-08-06T10:21:46.356Z</time>
      </trkpt>
      <trkpt lat="46.95601" lon="8.73262">
        <ele>1283</ele>
        <time>2021-08-06T10:21:47.356Z</time>
      </trkpt>
      <trkpt lat="46.956" lon="8.73258">
        <ele>1282</ele>
        <time>2021-08-06T10:21:48.356Z</time>
      </trkpt>
      <trkpt lat="46.95599" lon="8.73257">
        <ele>1282</ele>
        <time>2021-08-06T10:21:49.356Z</time>
      </trkpt>
      <trkpt lat="46.95599" lon="8.73256">
        <ele>1282</ele>
        <time>2021-08-06T10:21:50.357Z</time>
      </trkpt>
      <trkpt lat="46.95599" lon="8.73255">
        <ele>1282</ele>
        <time>2021-08-06T10:21:51.356Z</time>
      </trkpt>
      <trkpt lat="46.95599" lon="8.73254">
        <ele>1282</ele>
        <time>2021-08-06T10:21:52.356Z</time>
      </trkpt>
      <trkpt lat="46.95599" lon="8.73253">
        <ele>1282</ele>
        <time>2021-08-06T10:21:53.356Z</time>
      </trkpt>
      <trkpt lat="46.95598" lon="8.73251">
        <ele>1282</ele>
        <time>2021-08-06T10:21:54.356Z</time>
      </trkpt>
      <trkpt lat="46.95598" lon="8.7325">
        <ele>1282</ele>
        <time>2021-08-06T10:21:55.356Z</time>
      </trkpt>
      <trkpt lat="46.95597" lon="8.73249">
        <ele>1282</ele>
        <time>2021-08-06T10:21:56.356Z</time>
      </trkpt>
      <trkpt lat="46.95597" lon="8.73249">
        <ele>1282</ele>
        <time>2021-08-06T10:21:57.356Z</time>
      </trkpt>
      <trkpt lat="46.95597" lon="8.73248">
        <ele>1282</ele>
        <time>2021-08-06T10:21:58.356Z</time>
      </trkpt>
      <trkpt lat="46.95597" lon="8.73247">
        <ele>1282</ele>
        <time>2021-08-06T10:21:59.357Z</time>
      </trkpt>
      <trkpt lat="46.95597" lon="8.73247">
        <ele>1282</ele>
        <time>2021-08-06T10:22:00.356Z</time>
      </trkpt>
      <trkpt lat="46.95598" lon="8.73247">
        <ele>1282</ele>
        <time>2021-08-06T10:22:01.356Z</time>
      </trkpt>
      <trkpt lat="46.95598" lon="8.73247">
        <ele>1282</ele>
        <time>2021-08-06T10:22:02.356Z</time>
      </trkpt>
      <trkpt lat="46.95598" lon="8.73246">
        <ele>1282</ele>
        <time>2021-08-06T10:22:03.356Z</time>
      </trkpt>
      <trkpt lat="46.95598" lon="8.73244">
        <ele>1282</ele>
        <time>2021-08-06T10:22:04.357Z</time>
      </trkpt>
      <trkpt lat="46.95597" lon="8.73243">
        <ele>1281</ele>
        <time>2021-08-06T10:22:05.357Z</time>
      </trkpt>
      <trkpt lat="46.95596" lon="8.73242">
        <ele>1282</ele>
        <time>2021-08-06T10:22:06.356Z</time>
      </trkpt>
      <trkpt lat="46.95596" lon="8.73241">
        <ele>1282</ele>
        <time>2021-08-06T10:22:07.356Z</time>
      </trkpt>
      <trkpt lat="46.95595" lon="8.7324">
        <ele>1282</ele>
        <time>2021-08-06T10:22:08.356Z</time>
      </trkpt>
      <trkpt lat="46.95595" lon="8.7324">
        <ele>1283</ele>
        <time>2021-08-06T10:22:09.356Z</time>
      </trkpt>
      <trkpt lat="46.95594" lon="8.73239">
        <ele>1283</ele>
        <time>2021-08-06T10:22:10.356Z</time>
      </trkpt>
      <trkpt lat="46.95594" lon="8.73239">
        <ele>1283</ele>
        <time>2021-08-06T10:22:11.356Z</time>
      </trkpt>
      <trkpt lat="46.95594" lon="8.73238">
        <ele>1283</ele>
        <time>2021-08-06T10:22:12.356Z</time>
      </trkpt>
      <trkpt lat="46.95594" lon="8.73237">
        <ele>1282</ele>
        <time>2021-08-06T10:22:13.356Z</time>
      </trkpt>
      <trkpt lat="46.95594" lon="8.73237">
        <ele>1282</ele>
        <time>2021-08-06T10:22:14.356Z</time>
      </trkpt>
      <trkpt lat="46.95594" lon="8.73237">
        <ele>1282</ele>
        <time>2021-08-06T10:22:15.357Z</time>
      </trkpt>
      <trkpt lat="46.95593" lon="8.73236">
        <ele>1282</ele>
        <time>2021-08-06T10:22:16.356Z</time>
      </trkpt>
      <trkpt lat="46.95593" lon="8.73235">
        <ele>1283</ele>
        <time>2021-08-06T10:22:17.356Z</time>
      </trkpt>
      <trkpt lat="46.95593" lon="8.73235">
        <ele>1283</ele>
        <time>2021-08-06T10:22:18.356Z</time>
      </trkpt>
      <trkpt lat="46.95592" lon="8.73234">
        <ele>1283</ele>
        <time>2021-08-06T10:22:19.356Z</time>
      </trkpt>
      <trkpt lat="46.95592" lon="8.73234">
        <ele>1283</ele>
        <time>2021-08-06T10:22:20.357Z</time>
      </trkpt>
      <trkpt lat="46.95592" lon="8.73233">
        <ele>1283</ele>
        <time>2021-08-06T10:22:21.356Z</time>
      </trkpt>
      <trkpt lat="46.95592" lon="8.73232">
        <ele>1282</ele>
        <time>2021-08-06T10:22:22.356Z</time>
      </trkpt>
      <trkpt lat="46.95591" lon="8.73231">
        <ele>1281</ele>
        <time>2021-08-06T10:22:23.356Z</time>
      </trkpt>
      <trkpt lat="46.95591" lon="8.73231">
        <ele>1281</ele>
        <time>2021-08-06T10:22:24.357Z</time>
      </trkpt>
      <trkpt lat="46.95591" lon="8.7323">
        <ele>1281</ele>
        <time>2021-08-06T10:22:25.356Z</time>
      </trkpt>
      <trkpt lat="46.9559" lon="8.7323">
        <ele>1281</ele>
        <time>2021-08-06T10:22:26.356Z</time>
      </trkpt>
      <trkpt lat="46.9559" lon="8.73229">
        <ele>1281</ele>
        <time>2021-08-06T10:22:27.356Z</time>
      </trkpt>
      <trkpt lat="46.9559" lon="8.73229">
        <ele>1281</ele>
        <time>2021-08-06T10:22:28.356Z</time>
      </trkpt>
      <trkpt lat="46.9559" lon="8.73228">
        <ele>1281</ele>
        <time>2021-08-06T10:22:29.356Z</time>
      </trkpt>
      <trkpt lat="46.9559" lon="8.73227">
        <ele>1282</ele>
        <time>2021-08-06T10:22:30.356Z</time>
      </trkpt>
      <trkpt lat="46.9559" lon="8.73226">
        <ele>1282</ele>
        <time>2021-08-06T10:22:31.356Z</time>
      </trkpt>
      <trkpt lat="46.95589" lon="8.73226">
        <ele>1282</ele>
        <time>2021-08-06T10:22:32.357Z</time>
      </trkpt>
      <trkpt lat="46.95589" lon="8.73225">
        <ele>1282</ele>
        <time>2021-08-06T10:22:33.356Z</time>
      </trkpt>
      <trkpt lat="46.95589" lon="8.73225">
        <ele>1281</ele>
        <time>2021-08-06T10:22:34.356Z</time>
      </trkpt>
      <trkpt lat="46.95588" lon="8.73224">
        <ele>1281</ele>
        <time>2021-08-06T10:22:35.356Z</time>
      </trkpt>
      <trkpt lat="46.95588" lon="8.73224">
        <ele>1280</ele>
        <time>2021-08-06T10:22:36.356Z</time>
      </trkpt>
      <trkpt lat="46.95588" lon="8.73224">
        <ele>1279</ele>
        <time>2021-08-06T10:22:37.356Z</time>
      </trkpt>
      <trkpt lat="46.95588" lon="8.73224">
        <ele>1279</ele>
        <time>2021-08-06T10:22:38.356Z</time>
      </trkpt>
      <trkpt lat="46.95588" lon="8.73223">
        <ele>1279</ele>
        <time>2021-08-06T10:22:39.357Z</time>
      </trkpt>
      <trkpt lat="46.95587" lon="8.73223">
        <ele>1278</ele>
        <time>2021-08-06T10:22:40.356Z</time>
      </trkpt>
      <trkpt lat="46.95587" lon="8.73222">
        <ele>1278</ele>
        <time>2021-08-06T10:22:41.356Z</time>
      </trkpt>
      <trkpt lat="46.95587" lon="8.73222">
        <ele>1278</ele>
        <time>2021-08-06T10:22:42.357Z</time>
      </trkpt>
      <trkpt lat="46.95587" lon="8.73221">
        <ele>1278</ele>
        <time>2021-08-06T10:22:43.356Z</time>
      </trkpt>
      <trkpt lat="46.95586" lon="8.7322">
        <ele>1278</ele>
        <time>2021-08-06T10:22:44.357Z</time>
      </trkpt>
      <trkpt lat="46.95586" lon="8.7322">
        <ele>1279</ele>
        <time>2021-08-06T10:22:45.356Z</time>
      </trkpt>
      <trkpt lat="46.95586" lon="8.73219">
        <ele>1279</ele>
        <time>2021-08-06T10:22:46.356Z</time>
      </trkpt>
      <trkpt lat="46.95586" lon="8.73218">
        <ele>1280</ele>
        <time>2021-08-06T10:22:47.356Z</time>
      </trkpt>
      <trkpt lat="46.95585" lon="8.73217">
        <ele>1281</ele>
        <time>2021-08-06T10:22:48.356Z</time>
      </trkpt>
      <trkpt lat="46.95585" lon="8.73217">
        <ele>1282</ele>
        <time>2021-08-06T10:22:49.356Z</time>
      </trkpt>
      <trkpt lat="46.95585" lon="8.73216">
        <ele>1282</ele>
        <time>2021-08-06T10:22:50.356Z</time>
      </trkpt>
      <trkpt lat="46.95585" lon="8.73216">
        <ele>1283</ele>
        <time>2021-08-06T10:22:51.356Z</time>
      </trkpt>
      <trkpt lat="46.95585" lon="8.73215">
        <ele>1283</ele>
        <time>2021-08-06T10:22:52.357Z</time>
      </trkpt>
      <trkpt lat="46.95585" lon="8.73214">
        <ele>1283</ele>
        <time>2021-08-06T10:22:53.356Z</time>
      </trkpt>
      <trkpt lat="46.95585" lon="8.73213">
        <ele>1283</ele>
        <time>2021-08-06T10:22:54.356Z</time>
      </trkpt>
      <trkpt lat="46.95584" lon="8.73213">
        <ele>1284</ele>
        <time>2021-08-06T10:22:55.357Z</time>
      </trkpt>
      <trkpt lat="46.95584" lon="8.73212">
        <ele>1284</ele>
        <time>2021-08-06T10:22:56.356Z</time>
      </trkpt>
      <trkpt lat="46.95584" lon="8.73212">
        <ele>1285</ele>
        <time>2021-08-06T10:22:57.357Z</time>
      </trkpt>
      <trkpt lat="46.95584" lon="8.73211">
        <ele>1285</ele>
        <time>2021-08-06T10:22:58.356Z</time>
      </trkpt>
      <trkpt lat="46.95584" lon="8.7321">
        <ele>1285</ele>
        <time>2021-08-06T10:22:59.357Z</time>
      </trkpt>
      <trkpt lat="46.95583" lon="8.7321">
        <ele>1284</ele>
        <time>2021-08-06T10:23:00.356Z</time>
      </trkpt>
      <trkpt lat="46.95583" lon="8.73209">
        <ele>1284</ele>
        <time>2021-08-06T10:23:01.356Z</time>
      </trkpt>
      <trkpt lat="46.95583" lon="8.73209">
        <ele>1284</ele>
        <time>2021-08-06T10:23:02.356Z</time>
      </trkpt>
      <trkpt lat="46.95583" lon="8.73208">
        <ele>1283</ele>
        <time>2021-08-06T10:23:03.356Z</time>
      </trkpt>
      <trkpt lat="46.95583" lon="8.73207">
        <ele>1283</ele>
        <time>2021-08-06T10:23:04.356Z</time>
      </trkpt>
      <trkpt lat="46.95583" lon="8.73206">
        <ele>1283</ele>
        <time>2021-08-06T10:23:05.356Z</time>
      </trkpt>
      <trkpt lat="46.95582" lon="8.73206">
        <ele>1283</ele>
        <time>2021-08-06T10:23:06.356Z</time>
      </trkpt>
      <trkpt lat="46.95582" lon="8.73205">
        <ele>1283</ele>
        <time>2021-08-06T10:23:07.356Z</time>
      </trkpt>
      <trkpt lat="46.95581" lon="8.73205">
        <ele>1283</ele>
        <time>2021-08-06T10:23:08.356Z</time>
      </trkpt>
      <trkpt lat="46.9558" lon="8.73205">
        <ele>1282</ele>
        <time>2021-08-06T10:23:09.356Z</time>
      </trkpt>
      <trkpt lat="46.9558" lon="8.73204">
        <ele>1282</ele>
        <time>2021-08-06T10:23:10.356Z</time>
      </trkpt>
      <trkpt lat="46.9558" lon="8.73203">
        <ele>1281</ele>
        <time>2021-08-06T10:23:11.356Z</time>
      </trkpt>
      <trkpt lat="46.9558" lon="8.73203">
        <ele>1281</ele>
        <time>2021-08-06T10:23:12.356Z</time>
      </trkpt>
      <trkpt lat="46.9558" lon="8.73202">
        <ele>1280</ele>
        <time>2021-08-06T10:23:13.357Z</time>
      </trkpt>
      <trkpt lat="46.95579" lon="8.73202">
        <ele>1280</ele>
        <time>2021-08-06T10:23:14.357Z</time>
      </trkpt>
      <trkpt lat="46.95579" lon="8.73201">
        <ele>1280</ele>
        <time>2021-08-06T10:23:15.356Z</time>
      </trkpt>
      <trkpt lat="46.9558" lon="8.73201">
        <ele>1280</ele>
        <time>2021-08-06T10:23:16.356Z</time>
      </trkpt>
      <trkpt lat="46.95579" lon="8.732">
        <ele>1283</ele>
        <time>2021-08-06T10:23:17.356Z</time>
      </trkpt>
      <trkpt lat="46.95578" lon="8.732">
        <ele>1284</ele>
        <time>2021-08-06T10:23:18.357Z</time>
      </trkpt>
      <trkpt lat="46.95578" lon="8.73199">
        <ele>1284</ele>
        <time>2021-08-06T10:23:19.357Z</time>
      </trkpt>
      <trkpt lat="46.95577" lon="8.73198">
        <ele>1285</ele>
        <time>2021-08-06T10:23:20.357Z</time>
      </trkpt>
      <trkpt lat="46.95577" lon="8.73197">
        <ele>1285</ele>
        <time>2021-08-06T10:23:21.356Z</time>
      </trkpt>
      <trkpt lat="46.95576" lon="8.73197">
        <ele>1285</ele>
        <time>2021-08-06T10:23:22.356Z</time>
      </trkpt>
      <trkpt lat="46.95576" lon="8.73196">
        <ele>1285</ele>
        <time>2021-08-06T10:23:23.357Z</time>
      </trkpt>
      <trkpt lat="46.95576" lon="8.73196">
        <ele>1285</ele>
        <time>2021-08-06T10:23:24.356Z</time>
      </trkpt>
      <trkpt lat="46.95575" lon="8.73195">
        <ele>1284</ele>
        <time>2021-08-06T10:23:25.356Z</time>
      </trkpt>
      <trkpt lat="46.95575" lon="8.73194">
        <ele>1284</ele>
        <time>2021-08-06T10:23:26.356Z</time>
      </trkpt>
      <trkpt lat="46.95575" lon="8.73194">
        <ele>1284</ele>
        <time>2021-08-06T10:23:27.356Z</time>
      </trkpt>
      <trkpt lat="46.95575" lon="8.73193">
        <ele>1284</ele>
        <time>2021-08-06T10:23:28.357Z</time>
      </trkpt>
      <trkpt lat="46.95575" lon="8.73192">
        <ele>1284</ele>
        <time>2021-08-06T10:23:29.356Z</time>
      </trkpt>
      <trkpt lat="46.95575" lon="8.73191">
        <ele>1285</ele>
        <time>2021-08-06T10:23:30.357Z</time>
      </trkpt>
      <trkpt lat="46.95574" lon="8.73191">
        <ele>1285</ele>
        <time>2021-08-06T10:23:31.356Z</time>
      </trkpt>
      <trkpt lat="46.95574" lon="8.7319">
        <ele>1286</ele>
        <time>2021-08-06T10:23:32.356Z</time>
      </trkpt>
      <trkpt lat="46.95574" lon="8.73189">
        <ele>1286</ele>
        <time>2021-08-06T10:23:33.357Z</time>
      </trkpt>
      <trkpt lat="46.95574" lon="8.73188">
        <ele>1286</ele>
        <time>2021-08-06T10:23:34.356Z</time>
      </trkpt>
      <trkpt lat="46.95574" lon="8.73187">
        <ele>1286</ele>
        <time>2021-08-06T10:23:35.357Z</time>
      </trkpt>
      <trkpt lat="46.95574" lon="8.73186">
        <ele>1286</ele>
        <time>2021-08-06T10:23:36.356Z</time>
      </trkpt>
      <trkpt lat="46.95574" lon="8.73185">
        <ele>1286</ele>
        <time>2021-08-06T10:23:37.357Z</time>
      </trkpt>
      <trkpt lat="46.95574" lon="8.73184">
        <ele>1286</ele>
        <time>2021-08-06T10:23:38.356Z</time>
      </trkpt>
      <trkpt lat="46.95574" lon="8.73183">
        <ele>1286</ele>
        <time>2021-08-06T10:23:39.356Z</time>
      </trkpt>
      <trkpt lat="46.95574" lon="8.73182">
        <ele>1287</ele>
        <time>2021-08-06T10:23:40.356Z</time>
      </trkpt>
      <trkpt lat="46.95573" lon="8.73182">
        <ele>1287</ele>
        <time>2021-08-06T10:23:41.356Z</time>
      </trkpt>
      <trkpt lat="46.95573" lon="8.73181">
        <ele>1287</ele>
        <time>2021-08-06T10:23:42.356Z</time>
      </trkpt>
      <trkpt lat="46.95573" lon="8.73181">
        <ele>1288</ele>
        <time>2021-08-06T10:23:43.356Z</time>
      </trkpt>
      <trkpt lat="46.95573" lon="8.7318">
        <ele>1288</ele>
        <time>2021-08-06T10:23:44.356Z</time>
      </trkpt>
      <trkpt lat="46.95573" lon="8.73179">
        <ele>1289</ele>
        <time>2021-08-06T10:23:45.357Z</time>
      </trkpt>
      <trkpt lat="46.95573" lon="8.73178">
        <ele>1290</ele>
        <time>2021-08-06T10:23:46.356Z</time>
      </trkpt>
      <trkpt lat="46.95573" lon="8.73177">
        <ele>1290</ele>
        <time>2021-08-06T10:23:47.356Z</time>
      </trkpt>
      <trkpt lat="46.95573" lon="8.73176">
        <ele>1289</ele>
        <time>2021-08-06T10:23:48.356Z</time>
      </trkpt>
      <trkpt lat="46.95573" lon="8.73175">
        <ele>1289</ele>
        <time>2021-08-06T10:23:49.357Z</time>
      </trkpt>
      <trkpt lat="46.95572" lon="8.73174">
        <ele>1289</ele>
        <time>2021-08-06T10:23:50.357Z</time>
      </trkpt>
      <trkpt lat="46.95572" lon="8.73173">
        <ele>1288</ele>
        <time>2021-08-06T10:23:51.357Z</time>
      </trkpt>
      <trkpt lat="46.95572" lon="8.73171">
        <ele>1287</ele>
        <time>2021-08-06T10:23:52.356Z</time>
      </trkpt>
      <trkpt lat="46.95572" lon="8.73171">
        <ele>1286</ele>
        <time>2021-08-06T10:23:53.357Z</time>
      </trkpt>
      <trkpt lat="46.95571" lon="8.7317">
        <ele>1287</ele>
        <time>2021-08-06T10:23:54.356Z</time>
      </trkpt>
      <trkpt lat="46.95571" lon="8.73169">
        <ele>1287</ele>
        <time>2021-08-06T10:23:55.356Z</time>
      </trkpt>
      <trkpt lat="46.95571" lon="8.73168">
        <ele>1288</ele>
        <time>2021-08-06T10:23:56.357Z</time>
      </trkpt>
      <trkpt lat="46.95571" lon="8.73167">
        <ele>1288</ele>
        <time>2021-08-06T10:23:57.357Z</time>
      </trkpt>
      <trkpt lat="46.95571" lon="8.73166">
        <ele>1288</ele>
        <time>2021-08-06T10:23:58.356Z</time>
      </trkpt>
      <trkpt lat="46.95571" lon="8.73165">
        <ele>1289</ele>
        <time>2021-08-06T10:23:59.357Z</time>
      </trkpt>
      <trkpt lat="46.95571" lon="8.73163">
        <ele>1289</ele>
        <time>2021-08-06T10:24:00.356Z</time>
      </trkpt>
      <trkpt lat="46.95571" lon="8.73162">
        <ele>1289</ele>
        <time>2021-08-06T10:24:01.356Z</time>
      </trkpt>
      <trkpt lat="46.95571" lon="8.73161">
        <ele>1289</ele>
        <time>2021-08-06T10:24:02.356Z</time>
      </trkpt>
      <trkpt lat="46.95571" lon="8.7316">
        <ele>1289</ele>
        <time>2021-08-06T10:24:03.356Z</time>
      </trkpt>
      <trkpt lat="46.9557" lon="8.73159">
        <ele>1289</ele>
        <time>2021-08-06T10:24:04.357Z</time>
      </trkpt>
      <trkpt lat="46.9557" lon="8.73158">
        <ele>1289</ele>
        <time>2021-08-06T10:24:05.357Z</time>
      </trkpt>
      <trkpt lat="46.95568" lon="8.73157">
        <ele>1290</ele>
        <time>2021-08-06T10:24:06.356Z</time>
      </trkpt>
      <trkpt lat="46.95568" lon="8.73156">
        <ele>1290</ele>
        <time>2021-08-06T10:24:07.356Z</time>
      </trkpt>
      <trkpt lat="46.95568" lon="8.73155">
        <ele>1291</ele>
        <time>2021-08-06T10:24:08.357Z</time>
      </trkpt>
      <trkpt lat="46.95568" lon="8.73154">
        <ele>1292</ele>
        <time>2021-08-06T10:24:09.357Z</time>
      </trkpt>
      <trkpt lat="46.95568" lon="8.73153">
        <ele>1292</ele>
        <time>2021-08-06T10:24:10.356Z</time>
      </trkpt>
      <trkpt lat="46.95568" lon="8.73152">
        <ele>1293</ele>
        <time>2021-08-06T10:24:11.357Z</time>
      </trkpt>
      <trkpt lat="46.95568" lon="8.7315">
        <ele>1293</ele>
        <time>2021-08-06T10:24:12.357Z</time>
      </trkpt>
      <trkpt lat="46.95568" lon="8.73149">
        <ele>1294</ele>
        <time>2021-08-06T10:24:13.356Z</time>
      </trkpt>
      <trkpt lat="46.95568" lon="8.73147">
        <ele>1294</ele>
        <time>2021-08-06T10:24:14.357Z</time>
      </trkpt>
      <trkpt lat="46.95567" lon="8.73146">
        <ele>1294</ele>
        <time>2021-08-06T10:24:15.356Z</time>
      </trkpt>
      <trkpt lat="46.95567" lon="8.73146">
        <ele>1295</ele>
        <time>2021-08-06T10:24:16.356Z</time>
      </trkpt>
      <trkpt lat="46.95567" lon="8.73145">
        <ele>1295</ele>
        <time>2021-08-06T10:24:17.357Z</time>
      </trkpt>
      <trkpt lat="46.95567" lon="8.73144">
        <ele>1295</ele>
        <time>2021-08-06T10:24:18.357Z</time>
      </trkpt>
      <trkpt lat="46.95567" lon="8.73144">
        <ele>1295</ele>
        <time>2021-08-06T10:24:19.357Z</time>
      </trkpt>
      <trkpt lat="46.95567" lon="8.73143">
        <ele>1295</ele>
        <time>2021-08-06T10:24:20.356Z</time>
      </trkpt>
      <trkpt lat="46.95567" lon="8.73142">
        <ele>1294</ele>
        <time>2021-08-06T10:24:21.356Z</time>
      </trkpt>
      <trkpt lat="46.95567" lon="8.73142">
        <ele>1294</ele>
        <time>2021-08-06T10:24:22.357Z</time>
      </trkpt>
      <trkpt lat="46.95567" lon="8.73141">
        <ele>1293</ele>
        <time>2021-08-06T10:24:23.356Z</time>
      </trkpt>
      <trkpt lat="46.95566" lon="8.7314">
        <ele>1292</ele>
        <time>2021-08-06T10:24:24.357Z</time>
      </trkpt>
      <trkpt lat="46.95566" lon="8.73139">
        <ele>1292</ele>
        <time>2021-08-06T10:24:25.357Z</time>
      </trkpt>
      <trkpt lat="46.95566" lon="8.73139">
        <ele>1291</ele>
        <time>2021-08-06T10:24:26.356Z</time>
      </trkpt>
      <trkpt lat="46.95566" lon="8.73138">
        <ele>1291</ele>
        <time>2021-08-06T10:24:27.356Z</time>
      </trkpt>
      <trkpt lat="46.95566" lon="8.73137">
        <ele>1291</ele>
        <time>2021-08-06T10:24:28.357Z</time>
      </trkpt>
      <trkpt lat="46.95566" lon="8.73135">
        <ele>1292</ele>
        <time>2021-08-06T10:24:29.357Z</time>
      </trkpt>
      <trkpt lat="46.95566" lon="8.73135">
        <ele>1292</ele>
        <time>2021-08-06T10:24:30.357Z</time>
      </trkpt>
      <trkpt lat="46.95565" lon="8.73134">
        <ele>1293</ele>
        <time>2021-08-06T10:24:31.356Z</time>
      </trkpt>
      <trkpt lat="46.95565" lon="8.73133">
        <ele>1293</ele>
        <time>2021-08-06T10:24:32.356Z</time>
      </trkpt>
      <trkpt lat="46.95565" lon="8.73133">
        <ele>1294</ele>
        <time>2021-08-06T10:24:33.357Z</time>
      </trkpt>
      <trkpt lat="46.95565" lon="8.73132">
        <ele>1295</ele>
        <time>2021-08-06T10:24:34.357Z</time>
      </trkpt>
      <trkpt lat="46.95564" lon="8.73131">
        <ele>1295</ele>
        <time>2021-08-06T10:24:35.356Z</time>
      </trkpt>
      <trkpt lat="46.95564" lon="8.7313">
        <ele>1296</ele>
        <time>2021-08-06T10:24:36.357Z</time>
      </trkpt>
      <trkpt lat="46.95564" lon="8.73128">
        <ele>1296</ele>
        <time>2021-08-06T10:24:37.356Z</time>
      </trkpt>
      <trkpt lat="46.95564" lon="8.73127">
        <ele>1296</ele>
        <time>2021-08-06T10:24:38.356Z</time>
      </trkpt>
      <trkpt lat="46.95563" lon="8.73127">
        <ele>1297</ele>
        <time>2021-08-06T10:24:39.356Z</time>
      </trkpt>
      <trkpt lat="46.95562" lon="8.73127">
        <ele>1297</ele>
        <time>2021-08-06T10:24:40.357Z</time>
      </trkpt>
      <trkpt lat="46.95562" lon="8.73127">
        <ele>1297</ele>
        <time>2021-08-06T10:24:41.357Z</time>
      </trkpt>
      <trkpt lat="46.95562" lon="8.73126">
        <ele>1297</ele>
        <time>2021-08-06T10:24:42.357Z</time>
      </trkpt>
      <trkpt lat="46.95562" lon="8.73125">
        <ele>1297</ele>
        <time>2021-08-06T10:24:43.357Z</time>
      </trkpt>
      <trkpt lat="46.95561" lon="8.73124">
        <ele>1297</ele>
        <time>2021-08-06T10:24:44.356Z</time>
      </trkpt>
      <trkpt lat="46.95561" lon="8.73123">
        <ele>1298</ele>
        <time>2021-08-06T10:24:45.356Z</time>
      </trkpt>
      <trkpt lat="46.95561" lon="8.73122">
        <ele>1299</ele>
        <time>2021-08-06T10:24:46.356Z</time>
      </trkpt>
      <trkpt lat="46.9556" lon="8.7312">
        <ele>1300</ele>
        <time>2021-08-06T10:24:47.356Z</time>
      </trkpt>
      <trkpt lat="46.9556" lon="8.73119">
        <ele>1300</ele>
        <time>2021-08-06T10:24:48.357Z</time>
      </trkpt>
      <trkpt lat="46.9556" lon="8.73118">
        <ele>1301</ele>
        <time>2021-08-06T10:24:49.357Z</time>
      </trkpt>
      <trkpt lat="46.95559" lon="8.73117">
        <ele>1301</ele>
        <time>2021-08-06T10:24:50.357Z</time>
      </trkpt>
      <trkpt lat="46.95559" lon="8.73117">
        <ele>1301</ele>
        <time>2021-08-06T10:24:51.356Z</time>
      </trkpt>
      <trkpt lat="46.95559" lon="8.73115">
        <ele>1301</ele>
        <time>2021-08-06T10:24:52.356Z</time>
      </trkpt>
      <trkpt lat="46.95559" lon="8.73114">
        <ele>1301</ele>
        <time>2021-08-06T10:24:53.356Z</time>
      </trkpt>
      <trkpt lat="46.95559" lon="8.73113">
        <ele>1301</ele>
        <time>2021-08-06T10:24:54.356Z</time>
      </trkpt>
      <trkpt lat="46.95559" lon="8.73111">
        <ele>1301</ele>
        <time>2021-08-06T10:24:55.357Z</time>
      </trkpt>
      <trkpt lat="46.95559" lon="8.7311">
        <ele>1301</ele>
        <time>2021-08-06T10:24:56.356Z</time>
      </trkpt>
      <trkpt lat="46.95559" lon="8.73109">
        <ele>1302</ele>
        <time>2021-08-06T10:24:57.357Z</time>
      </trkpt>
      <trkpt lat="46.95558" lon="8.73109">
        <ele>1302</ele>
        <time>2021-08-06T10:24:58.357Z</time>
      </trkpt>
      <trkpt lat="46.95558" lon="8.73108">
        <ele>1302</ele>
        <time>2021-08-06T10:24:59.356Z</time>
      </trkpt>
      <trkpt lat="46.95557" lon="8.73107">
        <ele>1302</ele>
        <time>2021-08-06T10:25:00.357Z</time>
      </trkpt>
      <trkpt lat="46.95556" lon="8.73106">
        <ele>1302</ele>
        <time>2021-08-06T10:25:01.357Z</time>
      </trkpt>
      <trkpt lat="46.95556" lon="8.73105">
        <ele>1301</ele>
        <time>2021-08-06T10:25:02.356Z</time>
      </trkpt>
      <trkpt lat="46.95555" lon="8.73104">
        <ele>1301</ele>
        <time>2021-08-06T10:25:03.356Z</time>
      </trkpt>
      <trkpt lat="46.95554" lon="8.73104">
        <ele>1300</ele>
        <time>2021-08-06T10:25:04.357Z</time>
      </trkpt>
      <trkpt lat="46.95553" lon="8.73103">
        <ele>1300</ele>
        <time>2021-08-06T10:25:05.356Z</time>
      </trkpt>
      <trkpt lat="46.95553" lon="8.73102">
        <ele>1300</ele>
        <time>2021-08-06T10:25:06.356Z</time>
      </trkpt>
      <trkpt lat="46.95552" lon="8.731">
        <ele>1300</ele>
        <time>2021-08-06T10:25:07.356Z</time>
      </trkpt>
      <trkpt lat="46.95552" lon="8.73099">
        <ele>1299</ele>
        <time>2021-08-06T10:25:08.356Z</time>
      </trkpt>
      <trkpt lat="46.95552" lon="8.73098">
        <ele>1299</ele>
        <time>2021-08-06T10:25:09.356Z</time>
      </trkpt>
      <trkpt lat="46.95552" lon="8.73096">
        <ele>1299</ele>
        <time>2021-08-06T10:25:10.356Z</time>
      </trkpt>
      <trkpt lat="46.95551" lon="8.73095">
        <ele>1298</ele>
        <time>2021-08-06T10:25:11.356Z</time>
      </trkpt>
      <trkpt lat="46.95551" lon="8.73094">
        <ele>1298</ele>
        <time>2021-08-06T10:25:12.356Z</time>
      </trkpt>
      <trkpt lat="46.9555" lon="8.73093">
        <ele>1299</ele>
        <time>2021-08-06T10:25:13.357Z</time>
      </trkpt>
      <trkpt lat="46.9555" lon="8.73093">
        <ele>1299</ele>
        <time>2021-08-06T10:25:14.357Z</time>
      </trkpt>
      <trkpt lat="46.95549" lon="8.73092">
        <ele>1300</ele>
        <time>2021-08-06T10:25:15.356Z</time>
      </trkpt>
      <trkpt lat="46.95549" lon="8.73091">
        <ele>1300</ele>
        <time>2021-08-06T10:25:16.357Z</time>
      </trkpt>
      <trkpt lat="46.95549" lon="8.7309">
        <ele>1301</ele>
        <time>2021-08-06T10:25:17.356Z</time>
      </trkpt>
      <trkpt lat="46.95548" lon="8.73089">
        <ele>1302</ele>
        <time>2021-08-06T10:25:18.357Z</time>
      </trkpt>
      <trkpt lat="46.95548" lon="8.73088">
        <ele>1303</ele>
        <time>2021-08-06T10:25:19.357Z</time>
      </trkpt>
      <trkpt lat="46.95548" lon="8.73087">
        <ele>1303</ele>
        <time>2021-08-06T10:25:20.356Z</time>
      </trkpt>
      <trkpt lat="46.95547" lon="8.73085">
        <ele>1303</ele>
        <time>2021-08-06T10:25:21.356Z</time>
      </trkpt>
      <trkpt lat="46.95547" lon="8.73084">
        <ele>1303</ele>
        <time>2021-08-06T10:25:22.357Z</time>
      </trkpt>
      <trkpt lat="46.95547" lon="8.73083">
        <ele>1303</ele>
        <time>2021-08-06T10:25:23.357Z</time>
      </trkpt>
      <trkpt lat="46.95546" lon="8.73082">
        <ele>1303</ele>
        <time>2021-08-06T10:25:24.356Z</time>
      </trkpt>
      <trkpt lat="46.95545" lon="8.73081">
        <ele>1303</ele>
        <time>2021-08-06T10:25:25.356Z</time>
      </trkpt>
      <trkpt lat="46.95544" lon="8.73081">
        <ele>1303</ele>
        <time>2021-08-06T10:25:26.356Z</time>
      </trkpt>
      <trkpt lat="46.95544" lon="8.7308">
        <ele>1304</ele>
        <time>2021-08-06T10:25:27.357Z</time>
      </trkpt>
      <trkpt lat="46.95543" lon="8.73079">
        <ele>1304</ele>
        <time>2021-08-06T10:25:28.357Z</time>
      </trkpt>
      <trkpt lat="46.95542" lon="8.73078">
        <ele>1304</ele>
        <time>2021-08-06T10:25:29.356Z</time>
      </trkpt>
      <trkpt lat="46.95541" lon="8.73077">
        <ele>1304</ele>
        <time>2021-08-06T10:25:30.356Z</time>
      </trkpt>
      <trkpt lat="46.9554" lon="8.73076">
        <ele>1304</ele>
        <time>2021-08-06T10:25:31.356Z</time>
      </trkpt>
      <trkpt lat="46.95539" lon="8.73075">
        <ele>1304</ele>
        <time>2021-08-06T10:25:32.356Z</time>
      </trkpt>
      <trkpt lat="46.95538" lon="8.73075">
        <ele>1304</ele>
        <time>2021-08-06T10:25:33.356Z</time>
      </trkpt>
      <trkpt lat="46.95537" lon="8.73074">
        <ele>1304</ele>
        <time>2021-08-06T10:25:34.356Z</time>
      </trkpt>
      <trkpt lat="46.95536" lon="8.73073">
        <ele>1304</ele>
        <time>2021-08-06T10:25:35.357Z</time>
      </trkpt>
      <trkpt lat="46.95535" lon="8.73072">
        <ele>1305</ele>
        <time>2021-08-06T10:25:36.356Z</time>
      </trkpt>
      <trkpt lat="46.95534" lon="8.73071">
        <ele>1306</ele>
        <time>2021-08-06T10:25:37.357Z</time>
      </trkpt>
      <trkpt lat="46.95533" lon="8.7307">
        <ele>1306</ele>
        <time>2021-08-06T10:25:38.356Z</time>
      </trkpt>
      <trkpt lat="46.95531" lon="8.7307">
        <ele>1306</ele>
        <time>2021-08-06T10:25:39.356Z</time>
      </trkpt>
      <trkpt lat="46.9553" lon="8.7307">
        <ele>1306</ele>
        <time>2021-08-06T10:25:40.356Z</time>
      </trkpt>
      <trkpt lat="46.95529" lon="8.73069">
        <ele>1305</ele>
        <time>2021-08-06T10:25:41.356Z</time>
      </trkpt>
      <trkpt lat="46.95528" lon="8.73069">
        <ele>1305</ele>
        <time>2021-08-06T10:25:42.356Z</time>
      </trkpt>
      <trkpt lat="46.95527" lon="8.73069">
        <ele>1306</ele>
        <time>2021-08-06T10:25:43.357Z</time>
      </trkpt>
      <trkpt lat="46.95526" lon="8.73069">
        <ele>1306</ele>
        <time>2021-08-06T10:25:44.356Z</time>
      </trkpt>
      <trkpt lat="46.95525" lon="8.73068">
        <ele>1306</ele>
        <time>2021-08-06T10:25:45.357Z</time>
      </trkpt>
      <trkpt lat="46.95525" lon="8.73068">
        <ele>1306</ele>
        <time>2021-08-06T10:26:11.474Z</time>
      </trkpt>
      <trkpt lat="46.95524" lon="8.73068">
        <ele>1306</ele>
        <time>2021-08-06T10:26:12.474Z</time>
      </trkpt>
      <trkpt lat="46.95522" lon="8.73068">
        <ele>1306</ele>
        <time>2021-08-06T10:26:27.355Z</time>
      </trkpt>
      <trkpt lat="46.95521" lon="8.73068">
        <ele>1306</ele>
        <time>2021-08-06T10:26:38.216Z</time>
      </trkpt>
      <trkpt lat="46.9552" lon="8.73067">
        <ele>1305</ele>
        <time>2021-08-06T10:26:39.217Z</time>
      </trkpt>
      <trkpt lat="46.9552" lon="8.73067">
        <ele>1305</ele>
        <time>2021-08-06T10:26:40.217Z</time>
      </trkpt>
      <trkpt lat="46.95519" lon="8.73067">
        <ele>1304</ele>
        <time>2021-08-06T10:26:41.216Z</time>
      </trkpt>
      <trkpt lat="46.95518" lon="8.73067">
        <ele>1303</ele>
        <time>2021-08-06T10:26:42.216Z</time>
      </trkpt>
      <trkpt lat="46.95517" lon="8.73067">
        <ele>1303</ele>
        <time>2021-08-06T10:26:56.342Z</time>
      </trkpt>
      <trkpt lat="46.95516" lon="8.73066">
        <ele>1302</ele>
        <time>2021-08-06T10:26:57.342Z</time>
      </trkpt>
      <trkpt lat="46.95516" lon="8.73066">
        <ele>1302</ele>
        <time>2021-08-06T10:26:58.343Z</time>
      </trkpt>
      <trkpt lat="46.95515" lon="8.73066">
        <ele>1302</ele>
        <time>2021-08-06T10:27:23.461Z</time>
      </trkpt>
      <trkpt lat="46.95514" lon="8.73065">
        <ele>1302</ele>
        <time>2021-08-06T10:27:24.462Z</time>
      </trkpt>
      <trkpt lat="46.95513" lon="8.73065">
        <ele>1302</ele>
        <time>2021-08-06T10:27:25.462Z</time>
      </trkpt>
      <trkpt lat="46.95513" lon="8.73064">
        <ele>1302</ele>
        <time>2021-08-06T10:27:26.461Z</time>
      </trkpt>
      <trkpt lat="46.95512" lon="8.73063">
        <ele>1303</ele>
        <time>2021-08-06T10:27:27.462Z</time>
      </trkpt>
      <trkpt lat="46.95511" lon="8.73062">
        <ele>1304</ele>
        <time>2021-08-06T10:27:30.578Z</time>
      </trkpt>
      <trkpt lat="46.95511" lon="8.73062">
        <ele>1304</ele>
        <time>2021-08-06T10:27:31.579Z</time>
      </trkpt>
      <trkpt lat="46.9551" lon="8.73061">
        <ele>1305</ele>
        <time>2021-08-06T10:27:38.487Z</time>
      </trkpt>
      <trkpt lat="46.95509" lon="8.7306">
        <ele>1306</ele>
        <time>2021-08-06T10:27:39.488Z</time>
      </trkpt>
      <trkpt lat="46.95509" lon="8.73059">
        <ele>1306</ele>
        <time>2021-08-06T10:27:40.487Z</time>
      </trkpt>
      <trkpt lat="46.95508" lon="8.73059">
        <ele>1307</ele>
        <time>2021-08-06T10:27:41.488Z</time>
      </trkpt>
      <trkpt lat="46.95508" lon="8.73058">
        <ele>1307</ele>
        <time>2021-08-06T10:27:42.487Z</time>
      </trkpt>
      <trkpt lat="46.95507" lon="8.73057">
        <ele>1307</ele>
        <time>2021-08-06T10:27:43.487Z</time>
      </trkpt>
      <trkpt lat="46.95507" lon="8.73057">
        <ele>1307</ele>
        <time>2021-08-06T10:27:44.487Z</time>
      </trkpt>
      <trkpt lat="46.95506" lon="8.73056">
        <ele>1308</ele>
        <time>2021-08-06T10:27:49.592Z</time>
      </trkpt>
      <trkpt lat="46.95506" lon="8.73055">
        <ele>1307</ele>
        <time>2021-08-06T10:27:50.593Z</time>
      </trkpt>
      <trkpt lat="46.95506" lon="8.73054">
        <ele>1307</ele>
        <time>2021-08-06T10:28:00.471Z</time>
      </trkpt>
      <trkpt lat="46.95505" lon="8.73053">
        <ele>1307</ele>
        <time>2021-08-06T10:28:01.471Z</time>
      </trkpt>
      <trkpt lat="46.95505" lon="8.73053">
        <ele>1306</ele>
        <time>2021-08-06T10:28:02.471Z</time>
      </trkpt>
      <trkpt lat="46.95504" lon="8.73052">
        <ele>1305</ele>
        <time>2021-08-06T10:28:03.472Z</time>
      </trkpt>
      <trkpt lat="46.95504" lon="8.73052">
        <ele>1305</ele>
        <time>2021-08-06T10:28:04.471Z</time>
      </trkpt>
      <trkpt lat="46.95503" lon="8.73051">
        <ele>1305</ele>
        <time>2021-08-06T10:28:05.472Z</time>
      </trkpt>
      <trkpt lat="46.95503" lon="8.73051">
        <ele>1305</ele>
        <time>2021-08-06T10:28:06.471Z</time>
      </trkpt>
      <trkpt lat="46.95503" lon="8.7305">
        <ele>1305</ele>
        <time>2021-08-06T10:28:07.472Z</time>
      </trkpt>
      <trkpt lat="46.95502" lon="8.73049">
        <ele>1305</ele>
        <time>2021-08-06T10:28:08.472Z</time>
      </trkpt>
      <trkpt lat="46.95502" lon="8.73048">
        <ele>1305</ele>
        <time>2021-08-06T10:28:09.471Z</time>
      </trkpt>
      <trkpt lat="46.95502" lon="8.73048">
        <ele>1305</ele>
        <time>2021-08-06T10:28:10.472Z</time>
      </trkpt>
      <trkpt lat="46.95501" lon="8.73047">
        <ele>1306</ele>
        <time>2021-08-06T10:28:11.471Z</time>
      </trkpt>
      <trkpt lat="46.95501" lon="8.73047">
        <ele>1306</ele>
        <time>2021-08-06T10:28:12.471Z</time>
      </trkpt>
      <trkpt lat="46.95501" lon="8.73046">
        <ele>1307</ele>
        <time>2021-08-06T10:28:13.472Z</time>
      </trkpt>
      <trkpt lat="46.955" lon="8.73046">
        <ele>1307</ele>
        <time>2021-08-06T10:28:14.471Z</time>
      </trkpt>
      <trkpt lat="46.955" lon="8.73045">
        <ele>1307</ele>
        <time>2021-08-06T10:28:15.472Z</time>
      </trkpt>
      <trkpt lat="46.955" lon="8.73045">
        <ele>1307</ele>
        <time>2021-08-06T10:28:16.472Z</time>
      </trkpt>
      <trkpt lat="46.95499" lon="8.73044">
        <ele>1307</ele>
        <time>2021-08-06T10:28:17.472Z</time>
      </trkpt>
      <trkpt lat="46.95499" lon="8.73043">
        <ele>1307</ele>
        <time>2021-08-06T10:28:18.471Z</time>
      </trkpt>
      <trkpt lat="46.95499" lon="8.73043">
        <ele>1306</ele>
        <time>2021-08-06T10:28:19.471Z</time>
      </trkpt>
      <trkpt lat="46.95499" lon="8.73042">
        <ele>1306</ele>
        <time>2021-08-06T10:28:20.472Z</time>
      </trkpt>
      <trkpt lat="46.95498" lon="8.73041">
        <ele>1306</ele>
        <time>2021-08-06T10:28:21.471Z</time>
      </trkpt>
      <trkpt lat="46.95498" lon="8.7304">
        <ele>1305</ele>
        <time>2021-08-06T10:28:22.471Z</time>
      </trkpt>
      <trkpt lat="46.95497" lon="8.73039">
        <ele>1305</ele>
        <time>2021-08-06T10:28:23.472Z</time>
      </trkpt>
      <trkpt lat="46.95497" lon="8.73038">
        <ele>1305</ele>
        <time>2021-08-06T10:28:24.471Z</time>
      </trkpt>
      <trkpt lat="46.95496" lon="8.73037">
        <ele>1305</ele>
        <time>2021-08-06T10:28:25.471Z</time>
      </trkpt>
      <trkpt lat="46.95496" lon="8.73036">
        <ele>1305</ele>
        <time>2021-08-06T10:28:26.471Z</time>
      </trkpt>
      <trkpt lat="46.95496" lon="8.73034">
        <ele>1306</ele>
        <time>2021-08-06T10:28:27.471Z</time>
      </trkpt>
      <trkpt lat="46.95496" lon="8.73033">
        <ele>1306</ele>
        <time>2021-08-06T10:28:28.471Z</time>
      </trkpt>
      <trkpt lat="46.95496" lon="8.73032">
        <ele>1306</ele>
        <time>2021-08-06T10:28:29.471Z</time>
      </trkpt>
      <trkpt lat="46.95496" lon="8.73032">
        <ele>1306</ele>
        <time>2021-08-06T10:28:30.472Z</time>
      </trkpt>
      <trkpt lat="46.95495" lon="8.73031">
        <ele>1306</ele>
        <time>2021-08-06T10:28:31.471Z</time>
      </trkpt>
      <trkpt lat="46.95495" lon="8.73031">
        <ele>1306</ele>
        <time>2021-08-06T10:28:40.590Z</time>
      </trkpt>
      <trkpt lat="46.95495" lon="8.7303">
        <ele>1305</ele>
        <time>2021-08-06T10:28:41.590Z</time>
      </trkpt>
      <trkpt lat="46.95495" lon="8.73029">
        <ele>1306</ele>
        <time>2021-08-06T10:28:42.590Z</time>
      </trkpt>
      <trkpt lat="46.95495" lon="8.73028">
        <ele>1307</ele>
        <time>2021-08-06T10:28:43.590Z</time>
      </trkpt>
      <trkpt lat="46.95495" lon="8.73026">
        <ele>1307</ele>
        <time>2021-08-06T10:28:53.690Z</time>
      </trkpt>
      <trkpt lat="46.95494" lon="8.73026">
        <ele>1308</ele>
        <time>2021-08-06T10:28:54.690Z</time>
      </trkpt>
      <trkpt lat="46.95494" lon="8.73025">
        <ele>1309</ele>
        <time>2021-08-06T10:28:55.691Z</time>
      </trkpt>
      <trkpt lat="46.95494" lon="8.73024">
        <ele>1309</ele>
        <time>2021-08-06T10:28:56.691Z</time>
      </trkpt>
      <trkpt lat="46.95494" lon="8.73024">
        <ele>1310</ele>
        <time>2021-08-06T10:28:57.690Z</time>
      </trkpt>
      <trkpt lat="46.95494" lon="8.73024">
        <ele>1310</ele>
        <time>2021-08-06T10:28:58.691Z</time>
      </trkpt>
      <trkpt lat="46.95494" lon="8.73023">
        <ele>1310</ele>
        <time>2021-08-06T10:28:59.691Z</time>
      </trkpt>
      <trkpt lat="46.95494" lon="8.73022">
        <ele>1309</ele>
        <time>2021-08-06T10:29:00.690Z</time>
      </trkpt>
      <trkpt lat="46.95493" lon="8.73022">
        <ele>1310</ele>
        <time>2021-08-06T10:29:01.691Z</time>
      </trkpt>
      <trkpt lat="46.95493" lon="8.73021">
        <ele>1310</ele>
        <time>2021-08-06T10:29:02.690Z</time>
      </trkpt>
      <trkpt lat="46.95493" lon="8.73021">
        <ele>1310</ele>
        <time>2021-08-06T10:29:11.715Z</time>
      </trkpt>
      <trkpt lat="46.95493" lon="8.7302">
        <ele>1309</ele>
        <time>2021-08-06T10:29:12.715Z</time>
      </trkpt>
      <trkpt lat="46.95492" lon="8.73019">
        <ele>1309</ele>
        <time>2021-08-06T10:29:13.715Z</time>
      </trkpt>
      <trkpt lat="46.95492" lon="8.73018">
        <ele>1309</ele>
        <time>2021-08-06T10:29:14.715Z</time>
      </trkpt>
      <trkpt lat="46.95492" lon="8.73017">
        <ele>1309</ele>
        <time>2021-08-06T10:29:15.715Z</time>
      </trkpt>
      <trkpt lat="46.95492" lon="8.73016">
        <ele>1308</ele>
        <time>2021-08-06T10:29:16.715Z</time>
      </trkpt>
      <trkpt lat="46.95491" lon="8.73015">
        <ele>1308</ele>
        <time>2021-08-06T10:29:17.715Z</time>
      </trkpt>
      <trkpt lat="46.95491" lon="8.73014">
        <ele>1309</ele>
        <time>2021-08-06T10:29:18.715Z</time>
      </trkpt>
      <trkpt lat="46.9549" lon="8.73013">
        <ele>1310</ele>
        <time>2021-08-06T10:29:19.715Z</time>
      </trkpt>
      <trkpt lat="46.9549" lon="8.73012">
        <ele>1310</ele>
        <time>2021-08-06T10:29:20.715Z</time>
      </trkpt>
      <trkpt lat="46.95489" lon="8.73012">
        <ele>1311</ele>
        <time>2021-08-06T10:29:21.716Z</time>
      </trkpt>
      <trkpt lat="46.95489" lon="8.73011">
        <ele>1311</ele>
        <time>2021-08-06T10:29:22.715Z</time>
      </trkpt>
      <trkpt lat="46.95488" lon="8.7301">
        <ele>1311</ele>
        <time>2021-08-06T10:29:23.715Z</time>
      </trkpt>
      <trkpt lat="46.95488" lon="8.73009">
        <ele>1312</ele>
        <time>2021-08-06T10:29:24.715Z</time>
      </trkpt>
      <trkpt lat="46.95488" lon="8.73008">
        <ele>1312</ele>
        <time>2021-08-06T10:29:25.715Z</time>
      </trkpt>
      <trkpt lat="46.95487" lon="8.73007">
        <ele>1313</ele>
        <time>2021-08-06T10:29:26.716Z</time>
      </trkpt>
      <trkpt lat="46.95487" lon="8.73006">
        <ele>1313</ele>
        <time>2021-08-06T10:29:27.715Z</time>
      </trkpt>
      <trkpt lat="46.95487" lon="8.73005">
        <ele>1313</ele>
        <time>2021-08-06T10:29:28.715Z</time>
      </trkpt>
      <trkpt lat="46.95486" lon="8.73004">
        <ele>1313</ele>
        <time>2021-08-06T10:29:29.715Z</time>
      </trkpt>
      <trkpt lat="46.95485" lon="8.73003">
        <ele>1313</ele>
        <time>2021-08-06T10:29:30.716Z</time>
      </trkpt>
      <trkpt lat="46.95485" lon="8.73003">
        <ele>1313</ele>
        <time>2021-08-06T10:29:31.715Z</time>
      </trkpt>
      <trkpt lat="46.95485" lon="8.73002">
        <ele>1313</ele>
        <time>2021-08-06T10:29:32.715Z</time>
      </trkpt>
      <trkpt lat="46.95484" lon="8.73001">
        <ele>1313</ele>
        <time>2021-08-06T10:29:33.715Z</time>
      </trkpt>
      <trkpt lat="46.95484" lon="8.73">
        <ele>1313</ele>
        <time>2021-08-06T10:29:34.715Z</time>
      </trkpt>
      <trkpt lat="46.95483" lon="8.73">
        <ele>1313</ele>
        <time>2021-08-06T10:29:35.715Z</time>
      </trkpt>
      <trkpt lat="46.95483" lon="8.72999">
        <ele>1313</ele>
        <time>2021-08-06T10:29:36.715Z</time>
      </trkpt>
      <trkpt lat="46.95483" lon="8.72999">
        <ele>1313</ele>
        <time>2021-08-06T10:29:37.716Z</time>
      </trkpt>
      <trkpt lat="46.95482" lon="8.72998">
        <ele>1314</ele>
        <time>2021-08-06T10:29:38.716Z</time>
      </trkpt>
      <trkpt lat="46.95482" lon="8.72998">
        <ele>1314</ele>
        <time>2021-08-06T10:29:39.715Z</time>
      </trkpt>
      <trkpt lat="46.95481" lon="8.72997">
        <ele>1315</ele>
        <time>2021-08-06T10:29:40.716Z</time>
      </trkpt>
      <trkpt lat="46.95481" lon="8.72996">
        <ele>1315</ele>
        <time>2021-08-06T10:29:41.716Z</time>
      </trkpt>
      <trkpt lat="46.95481" lon="8.72995">
        <ele>1315</ele>
        <time>2021-08-06T10:29:42.715Z</time>
      </trkpt>
      <trkpt lat="46.9548" lon="8.72994">
        <ele>1315</ele>
        <time>2021-08-06T10:29:43.715Z</time>
      </trkpt>
      <trkpt lat="46.9548" lon="8.72993">
        <ele>1315</ele>
        <time>2021-08-06T10:29:44.715Z</time>
      </trkpt>
      <trkpt lat="46.95479" lon="8.72993">
        <ele>1315</ele>
        <time>2021-08-06T10:29:45.716Z</time>
      </trkpt>
      <trkpt lat="46.95479" lon="8.72992">
        <ele>1316</ele>
        <time>2021-08-06T10:29:46.716Z</time>
      </trkpt>
      <trkpt lat="46.95479" lon="8.72991">
        <ele>1316</ele>
        <time>2021-08-06T10:29:47.716Z</time>
      </trkpt>
      <trkpt lat="46.95478" lon="8.7299">
        <ele>1316</ele>
        <time>2021-08-06T10:29:48.716Z</time>
      </trkpt>
      <trkpt lat="46.95478" lon="8.72989">
        <ele>1316</ele>
        <time>2021-08-06T10:29:49.715Z</time>
      </trkpt>
      <trkpt lat="46.95477" lon="8.72989">
        <ele>1316</ele>
        <time>2021-08-06T10:29:50.715Z</time>
      </trkpt>
      <trkpt lat="46.95477" lon="8.72988">
        <ele>1315</ele>
        <time>2021-08-06T10:29:51.715Z</time>
      </trkpt>
      <trkpt lat="46.95477" lon="8.72987">
        <ele>1315</ele>
        <time>2021-08-06T10:29:52.716Z</time>
      </trkpt>
      <trkpt lat="46.95476" lon="8.72986">
        <ele>1316</ele>
        <time>2021-08-06T10:29:53.715Z</time>
      </trkpt>
      <trkpt lat="46.95476" lon="8.72985">
        <ele>1316</ele>
        <time>2021-08-06T10:29:54.716Z</time>
      </trkpt>
      <trkpt lat="46.95476" lon="8.72985">
        <ele>1317</ele>
        <time>2021-08-06T10:29:55.715Z</time>
      </trkpt>
      <trkpt lat="46.95476" lon="8.72984">
        <ele>1317</ele>
        <time>2021-08-06T10:29:56.715Z</time>
      </trkpt>
      <trkpt lat="46.95475" lon="8.72983">
        <ele>1318</ele>
        <time>2021-08-06T10:29:57.715Z</time>
      </trkpt>
      <trkpt lat="46.95475" lon="8.72983">
        <ele>1318</ele>
        <time>2021-08-06T10:29:58.716Z</time>
      </trkpt>
      <trkpt lat="46.95474" lon="8.72982">
        <ele>1317</ele>
        <time>2021-08-06T10:29:59.715Z</time>
      </trkpt>
      <trkpt lat="46.95474" lon="8.72981">
        <ele>1317</ele>
        <time>2021-08-06T10:30:00.716Z</time>
      </trkpt>
      <trkpt lat="46.95474" lon="8.72981">
        <ele>1317</ele>
        <time>2021-08-06T10:30:01.716Z</time>
      </trkpt>
      <trkpt lat="46.95474" lon="8.7298">
        <ele>1317</ele>
        <time>2021-08-06T10:30:02.715Z</time>
      </trkpt>
      <trkpt lat="46.95473" lon="8.72979">
        <ele>1317</ele>
        <time>2021-08-06T10:30:03.715Z</time>
      </trkpt>
      <trkpt lat="46.95473" lon="8.72978">
        <ele>1317</ele>
        <time>2021-08-06T10:30:04.715Z</time>
      </trkpt>
      <trkpt lat="46.95473" lon="8.72977">
        <ele>1316</ele>
        <time>2021-08-06T10:30:05.715Z</time>
      </trkpt>
      <trkpt lat="46.95472" lon="8.72977">
        <ele>1316</ele>
        <time>2021-08-06T10:30:06.716Z</time>
      </trkpt>
      <trkpt lat="46.95472" lon="8.72976">
        <ele>1315</ele>
        <time>2021-08-06T10:30:07.715Z</time>
      </trkpt>
      <trkpt lat="46.95472" lon="8.72975">
        <ele>1315</ele>
        <time>2021-08-06T10:30:08.715Z</time>
      </trkpt>
      <trkpt lat="46.95472" lon="8.72974">
        <ele>1314</ele>
        <time>2021-08-06T10:30:09.716Z</time>
      </trkpt>
      <trkpt lat="46.95472" lon="8.72973">
        <ele>1314</ele>
        <time>2021-08-06T10:30:10.715Z</time>
      </trkpt>
      <trkpt lat="46.95472" lon="8.72972">
        <ele>1314</ele>
        <time>2021-08-06T10:30:11.715Z</time>
      </trkpt>
      <trkpt lat="46.95471" lon="8.72972">
        <ele>1315</ele>
        <time>2021-08-06T10:30:12.716Z</time>
      </trkpt>
      <trkpt lat="46.95471" lon="8.72971">
        <ele>1315</ele>
        <time>2021-08-06T10:30:13.715Z</time>
      </trkpt>
      <trkpt lat="46.95471" lon="8.7297">
        <ele>1315</ele>
        <time>2021-08-06T10:30:14.716Z</time>
      </trkpt>
      <trkpt lat="46.95471" lon="8.72969">
        <ele>1315</ele>
        <time>2021-08-06T10:30:15.715Z</time>
      </trkpt>
      <trkpt lat="46.9547" lon="8.72968">
        <ele>1315</ele>
        <time>2021-08-06T10:30:16.715Z</time>
      </trkpt>
      <trkpt lat="46.9547" lon="8.72967">
        <ele>1315</ele>
        <time>2021-08-06T10:30:17.716Z</time>
      </trkpt>
      <trkpt lat="46.9547" lon="8.72966">
        <ele>1315</ele>
        <time>2021-08-06T10:30:18.716Z</time>
      </trkpt>
      <trkpt lat="46.9547" lon="8.72966">
        <ele>1316</ele>
        <time>2021-08-06T10:30:19.716Z</time>
      </trkpt>
      <trkpt lat="46.9547" lon="8.72964">
        <ele>1316</ele>
        <time>2021-08-06T10:30:20.716Z</time>
      </trkpt>
      <trkpt lat="46.9547" lon="8.72963">
        <ele>1316</ele>
        <time>2021-08-06T10:30:21.715Z</time>
      </trkpt>
      <trkpt lat="46.9547" lon="8.72962">
        <ele>1317</ele>
        <time>2021-08-06T10:30:22.716Z</time>
      </trkpt>
      <trkpt lat="46.9547" lon="8.72961">
        <ele>1318</ele>
        <time>2021-08-06T10:30:23.715Z</time>
      </trkpt>
      <trkpt lat="46.9547" lon="8.7296">
        <ele>1319</ele>
        <time>2021-08-06T10:30:24.715Z</time>
      </trkpt>
      <trkpt lat="46.9547" lon="8.7296">
        <ele>1319</ele>
        <time>2021-08-06T10:30:25.715Z</time>
      </trkpt>
      <trkpt lat="46.9547" lon="8.72959">
        <ele>1320</ele>
        <time>2021-08-06T10:30:26.716Z</time>
      </trkpt>
      <trkpt lat="46.9547" lon="8.72958">
        <ele>1321</ele>
        <time>2021-08-06T10:30:27.715Z</time>
      </trkpt>
      <trkpt lat="46.9547" lon="8.72958">
        <ele>1322</ele>
        <time>2021-08-06T10:30:28.716Z</time>
      </trkpt>
      <trkpt lat="46.9547" lon="8.72957">
        <ele>1323</ele>
        <time>2021-08-06T10:30:29.715Z</time>
      </trkpt>
      <trkpt lat="46.9547" lon="8.72956">
        <ele>1323</ele>
        <time>2021-08-06T10:30:30.715Z</time>
      </trkpt>
      <trkpt lat="46.95469" lon="8.72955">
        <ele>1324</ele>
        <time>2021-08-06T10:30:31.715Z</time>
      </trkpt>
      <trkpt lat="46.95469" lon="8.72954">
        <ele>1324</ele>
        <time>2021-08-06T10:30:32.715Z</time>
      </trkpt>
      <trkpt lat="46.95469" lon="8.72953">
        <ele>1325</ele>
        <time>2021-08-06T10:30:33.715Z</time>
      </trkpt>
      <trkpt lat="46.95469" lon="8.72952">
        <ele>1325</ele>
        <time>2021-08-06T10:30:34.715Z</time>
      </trkpt>
      <trkpt lat="46.95469" lon="8.72951">
        <ele>1325</ele>
        <time>2021-08-06T10:30:35.715Z</time>
      </trkpt>
      <trkpt lat="46.9547" lon="8.7295">
        <ele>1324</ele>
        <time>2021-08-06T10:30:36.715Z</time>
      </trkpt>
      <trkpt lat="46.9547" lon="8.72949">
        <ele>1324</ele>
        <time>2021-08-06T10:30:37.715Z</time>
      </trkpt>
      <trkpt lat="46.95469" lon="8.72948">
        <ele>1323</ele>
        <time>2021-08-06T10:30:38.716Z</time>
      </trkpt>
      <trkpt lat="46.95469" lon="8.72947">
        <ele>1322</ele>
        <time>2021-08-06T10:30:39.715Z</time>
      </trkpt>
      <trkpt lat="46.95469" lon="8.72946">
        <ele>1321</ele>
        <time>2021-08-06T10:30:40.716Z</time>
      </trkpt>
      <trkpt lat="46.95469" lon="8.72945">
        <ele>1321</ele>
        <time>2021-08-06T10:30:41.715Z</time>
      </trkpt>
      <trkpt lat="46.95469" lon="8.72944">
        <ele>1320</ele>
        <time>2021-08-06T10:30:42.715Z</time>
      </trkpt>
      <trkpt lat="46.95469" lon="8.72943">
        <ele>1319</ele>
        <time>2021-08-06T10:30:43.715Z</time>
      </trkpt>
      <trkpt lat="46.95469" lon="8.72942">
        <ele>1318</ele>
        <time>2021-08-06T10:30:44.715Z</time>
      </trkpt>
      <trkpt lat="46.95469" lon="8.72941">
        <ele>1318</ele>
        <time>2021-08-06T10:30:45.715Z</time>
      </trkpt>
      <trkpt lat="46.95469" lon="8.7294">
        <ele>1317</ele>
        <time>2021-08-06T10:30:46.715Z</time>
      </trkpt>
      <trkpt lat="46.95469" lon="8.72938">
        <ele>1316</ele>
        <time>2021-08-06T10:30:47.715Z</time>
      </trkpt>
      <trkpt lat="46.95469" lon="8.72937">
        <ele>1316</ele>
        <time>2021-08-06T10:30:48.715Z</time>
      </trkpt>
      <trkpt lat="46.95469" lon="8.72936">
        <ele>1315</ele>
        <time>2021-08-06T10:30:49.715Z</time>
      </trkpt>
      <trkpt lat="46.95469" lon="8.72935">
        <ele>1314</ele>
        <time>2021-08-06T10:30:50.716Z</time>
      </trkpt>
      <trkpt lat="46.95469" lon="8.72935">
        <ele>1314</ele>
        <time>2021-08-06T10:30:51.715Z</time>
      </trkpt>
      <trkpt lat="46.95469" lon="8.72934">
        <ele>1314</ele>
        <time>2021-08-06T10:30:52.715Z</time>
      </trkpt>
      <trkpt lat="46.95469" lon="8.72933">
        <ele>1314</ele>
        <time>2021-08-06T10:30:53.715Z</time>
      </trkpt>
      <trkpt lat="46.95469" lon="8.72932">
        <ele>1315</ele>
        <time>2021-08-06T10:30:54.715Z</time>
      </trkpt>
      <trkpt lat="46.95469" lon="8.72931">
        <ele>1316</ele>
        <time>2021-08-06T10:30:55.715Z</time>
      </trkpt>
      <trkpt lat="46.95469" lon="8.7293">
        <ele>1317</ele>
        <time>2021-08-06T10:30:56.715Z</time>
      </trkpt>
      <trkpt lat="46.95468" lon="8.72929">
        <ele>1318</ele>
        <time>2021-08-06T10:30:57.716Z</time>
      </trkpt>
      <trkpt lat="46.95468" lon="8.72929">
        <ele>1319</ele>
        <time>2021-08-06T10:30:58.716Z</time>
      </trkpt>
      <trkpt lat="46.95468" lon="8.72928">
        <ele>1320</ele>
        <time>2021-08-06T10:30:59.715Z</time>
      </trkpt>
      <trkpt lat="46.95468" lon="8.72927">
        <ele>1321</ele>
        <time>2021-08-06T10:31:00.715Z</time>
      </trkpt>
      <trkpt lat="46.95468" lon="8.72926">
        <ele>1322</ele>
        <time>2021-08-06T10:31:01.715Z</time>
      </trkpt>
      <trkpt lat="46.95467" lon="8.72925">
        <ele>1323</ele>
        <time>2021-08-06T10:31:02.716Z</time>
      </trkpt>
      <trkpt lat="46.95467" lon="8.72924">
        <ele>1324</ele>
        <time>2021-08-06T10:31:03.715Z</time>
      </trkpt>
      <trkpt lat="46.95467" lon="8.72923">
        <ele>1324</ele>
        <time>2021-08-06T10:31:04.715Z</time>
      </trkpt>
      <trkpt lat="46.95466" lon="8.72921">
        <ele>1324</ele>
        <time>2021-08-06T10:31:05.716Z</time>
      </trkpt>
      <trkpt lat="46.95466" lon="8.7292">
        <ele>1324</ele>
        <time>2021-08-06T10:31:06.715Z</time>
      </trkpt>
      <trkpt lat="46.95466" lon="8.7292">
        <ele>1325</ele>
        <time>2021-08-06T10:31:07.715Z</time>
      </trkpt>
      <trkpt lat="46.95465" lon="8.72919">
        <ele>1325</ele>
        <time>2021-08-06T10:31:08.715Z</time>
      </trkpt>
      <trkpt lat="46.95465" lon="8.72918">
        <ele>1325</ele>
        <time>2021-08-06T10:31:09.716Z</time>
      </trkpt>
      <trkpt lat="46.95464" lon="8.72917">
        <ele>1326</ele>
        <time>2021-08-06T10:31:10.715Z</time>
      </trkpt>
      <trkpt lat="46.95464" lon="8.72916">
        <ele>1326</ele>
        <time>2021-08-06T10:31:11.715Z</time>
      </trkpt>
      <trkpt lat="46.95463" lon="8.72916">
        <ele>1326</ele>
        <time>2021-08-06T10:31:12.715Z</time>
      </trkpt>
      <trkpt lat="46.95463" lon="8.72915">
        <ele>1327</ele>
        <time>2021-08-06T10:31:13.715Z</time>
      </trkpt>
      <trkpt lat="46.95462" lon="8.72914">
        <ele>1327</ele>
        <time>2021-08-06T10:31:14.716Z</time>
      </trkpt>
      <trkpt lat="46.95462" lon="8.72914">
        <ele>1327</ele>
        <time>2021-08-06T10:31:15.715Z</time>
      </trkpt>
      <trkpt lat="46.95462" lon="8.72912">
        <ele>1327</ele>
        <time>2021-08-06T10:31:16.716Z</time>
      </trkpt>
      <trkpt lat="46.95462" lon="8.72911">
        <ele>1327</ele>
        <time>2021-08-06T10:31:17.716Z</time>
      </trkpt>
      <trkpt lat="46.95461" lon="8.72911">
        <ele>1327</ele>
        <time>2021-08-06T10:31:18.715Z</time>
      </trkpt>
      <trkpt lat="46.9546" lon="8.7291">
        <ele>1327</ele>
        <time>2021-08-06T10:31:19.715Z</time>
      </trkpt>
      <trkpt lat="46.9546" lon="8.72909">
        <ele>1327</ele>
        <time>2021-08-06T10:31:20.715Z</time>
      </trkpt>
      <trkpt lat="46.95459" lon="8.72908">
        <ele>1327</ele>
        <time>2021-08-06T10:31:21.715Z</time>
      </trkpt>
      <trkpt lat="46.95458" lon="8.72907">
        <ele>1327</ele>
        <time>2021-08-06T10:31:22.716Z</time>
      </trkpt>
      <trkpt lat="46.95458" lon="8.72906">
        <ele>1327</ele>
        <time>2021-08-06T10:31:23.715Z</time>
      </trkpt>
      <trkpt lat="46.95457" lon="8.72905">
        <ele>1327</ele>
        <time>2021-08-06T10:31:24.715Z</time>
      </trkpt>
      <trkpt lat="46.95456" lon="8.72904">
        <ele>1326</ele>
        <time>2021-08-06T10:31:25.715Z</time>
      </trkpt>
      <trkpt lat="46.95456" lon="8.72903">
        <ele>1326</ele>
        <time>2021-08-06T10:31:26.715Z</time>
      </trkpt>
      <trkpt lat="46.95455" lon="8.72902">
        <ele>1326</ele>
        <time>2021-08-06T10:31:27.715Z</time>
      </trkpt>
      <trkpt lat="46.95455" lon="8.72901">
        <ele>1326</ele>
        <time>2021-08-06T10:31:28.716Z</time>
      </trkpt>
      <trkpt lat="46.95454" lon="8.729">
        <ele>1326</ele>
        <time>2021-08-06T10:31:29.715Z</time>
      </trkpt>
      <trkpt lat="46.95454" lon="8.72899">
        <ele>1327</ele>
        <time>2021-08-06T10:31:30.715Z</time>
      </trkpt>
      <trkpt lat="46.95453" lon="8.72898">
        <ele>1327</ele>
        <time>2021-08-06T10:31:31.716Z</time>
      </trkpt>
      <trkpt lat="46.95453" lon="8.72897">
        <ele>1326</ele>
        <time>2021-08-06T10:31:32.715Z</time>
      </trkpt>
      <trkpt lat="46.95452" lon="8.72896">
        <ele>1326</ele>
        <time>2021-08-06T10:31:33.715Z</time>
      </trkpt>
      <trkpt lat="46.95452" lon="8.72895">
        <ele>1326</ele>
        <time>2021-08-06T10:31:34.715Z</time>
      </trkpt>
      <trkpt lat="46.95451" lon="8.72893">
        <ele>1326</ele>
        <time>2021-08-06T10:31:35.715Z</time>
      </trkpt>
      <trkpt lat="46.95451" lon="8.72892">
        <ele>1326</ele>
        <time>2021-08-06T10:31:36.716Z</time>
      </trkpt>
      <trkpt lat="46.95451" lon="8.72891">
        <ele>1326</ele>
        <time>2021-08-06T10:31:37.716Z</time>
      </trkpt>
      <trkpt lat="46.9545" lon="8.7289">
        <ele>1325</ele>
        <time>2021-08-06T10:31:38.716Z</time>
      </trkpt>
      <trkpt lat="46.95449" lon="8.72888">
        <ele>1325</ele>
        <time>2021-08-06T10:31:39.715Z</time>
      </trkpt>
      <trkpt lat="46.95449" lon="8.72887">
        <ele>1325</ele>
        <time>2021-08-06T10:31:40.715Z</time>
      </trkpt>
      <trkpt lat="46.95448" lon="8.72886">
        <ele>1325</ele>
        <time>2021-08-06T10:31:41.715Z</time>
      </trkpt>
      <trkpt lat="46.95448" lon="8.72884">
        <ele>1325</ele>
        <time>2021-08-06T10:31:42.716Z</time>
      </trkpt>
      <trkpt lat="46.95447" lon="8.72883">
        <ele>1325</ele>
        <time>2021-08-06T10:31:43.715Z</time>
      </trkpt>
      <trkpt lat="46.95447" lon="8.72882">
        <ele>1325</ele>
        <time>2021-08-06T10:31:44.715Z</time>
      </trkpt>
      <trkpt lat="46.95446" lon="8.72881">
        <ele>1325</ele>
        <time>2021-08-06T10:31:45.716Z</time>
      </trkpt>
      <trkpt lat="46.95446" lon="8.7288">
        <ele>1325</ele>
        <time>2021-08-06T10:31:46.716Z</time>
      </trkpt>
      <trkpt lat="46.95445" lon="8.7288">
        <ele>1325</ele>
        <time>2021-08-06T10:31:47.715Z</time>
      </trkpt>
      <trkpt lat="46.95445" lon="8.72879">
        <ele>1325</ele>
        <time>2021-08-06T10:31:48.715Z</time>
      </trkpt>
      <trkpt lat="46.95444" lon="8.72878">
        <ele>1325</ele>
        <time>2021-08-06T10:31:49.715Z</time>
      </trkpt>
      <trkpt lat="46.95444" lon="8.72877">
        <ele>1325</ele>
        <time>2021-08-06T10:31:50.715Z</time>
      </trkpt>
      <trkpt lat="46.95443" lon="8.72876">
        <ele>1325</ele>
        <time>2021-08-06T10:31:51.715Z</time>
      </trkpt>
      <trkpt lat="46.95443" lon="8.72875">
        <ele>1325</ele>
        <time>2021-08-06T10:31:52.715Z</time>
      </trkpt>
      <trkpt lat="46.95443" lon="8.72874">
        <ele>1326</ele>
        <time>2021-08-06T10:31:53.716Z</time>
      </trkpt>
      <trkpt lat="46.95442" lon="8.72874">
        <ele>1327</ele>
        <time>2021-08-06T10:31:54.716Z</time>
      </trkpt>
      <trkpt lat="46.95442" lon="8.72873">
        <ele>1327</ele>
        <time>2021-08-06T10:31:55.716Z</time>
      </trkpt>
      <trkpt lat="46.95441" lon="8.72872">
        <ele>1328</ele>
        <time>2021-08-06T10:31:56.715Z</time>
      </trkpt>
      <trkpt lat="46.95441" lon="8.72872">
        <ele>1328</ele>
        <time>2021-08-06T10:31:57.716Z</time>
      </trkpt>
      <trkpt lat="46.9544" lon="8.72871">
        <ele>1328</ele>
        <time>2021-08-06T10:31:58.715Z</time>
      </trkpt>
      <trkpt lat="46.95439" lon="8.7287">
        <ele>1329</ele>
        <time>2021-08-06T10:31:59.715Z</time>
      </trkpt>
      <trkpt lat="46.95439" lon="8.72869">
        <ele>1329</ele>
        <time>2021-08-06T10:32:00.715Z</time>
      </trkpt>
      <trkpt lat="46.95438" lon="8.72868">
        <ele>1329</ele>
        <time>2021-08-06T10:32:01.715Z</time>
      </trkpt>
      <trkpt lat="46.95438" lon="8.72867">
        <ele>1328</ele>
        <time>2021-08-06T10:32:02.716Z</time>
      </trkpt>
      <trkpt lat="46.95437" lon="8.72866">
        <ele>1329</ele>
        <time>2021-08-06T10:32:03.715Z</time>
      </trkpt>
      <trkpt lat="46.95436" lon="8.72865">
        <ele>1329</ele>
        <time>2021-08-06T10:32:24.814Z</time>
      </trkpt>
      <trkpt lat="46.95436" lon="8.72865">
        <ele>1329</ele>
        <time>2021-08-06T10:32:25.814Z</time>
      </trkpt>
      <trkpt lat="46.95436" lon="8.72864">
        <ele>1328</ele>
        <time>2021-08-06T10:32:32.744Z</time>
      </trkpt>
      <trkpt lat="46.95435" lon="8.72863">
        <ele>1328</ele>
        <time>2021-08-06T10:32:36.569Z</time>
      </trkpt>
      <trkpt lat="46.95434" lon="8.72862">
        <ele>1327</ele>
        <time>2021-08-06T10:32:37.569Z</time>
      </trkpt>
      <trkpt lat="46.95434" lon="8.72861">
        <ele>1328</ele>
        <time>2021-08-06T10:32:38.568Z</time>
      </trkpt>
      <trkpt lat="46.95434" lon="8.7286">
        <ele>1328</ele>
        <time>2021-08-06T10:32:39.568Z</time>
      </trkpt>
      <trkpt lat="46.95433" lon="8.7286">
        <ele>1328</ele>
        <time>2021-08-06T10:32:40.568Z</time>
      </trkpt>
      <trkpt lat="46.95433" lon="8.72859">
        <ele>1328</ele>
        <time>2021-08-06T10:32:41.568Z</time>
      </trkpt>
      <trkpt lat="46.95432" lon="8.72858">
        <ele>1328</ele>
        <time>2021-08-06T10:32:42.569Z</time>
      </trkpt>
      <trkpt lat="46.95432" lon="8.72858">
        <ele>1327</ele>
        <time>2021-08-06T10:32:43.568Z</time>
      </trkpt>
      <trkpt lat="46.95432" lon="8.72858">
        <ele>1327</ele>
        <time>2021-08-06T10:32:44.569Z</time>
      </trkpt>
      <trkpt lat="46.95433" lon="8.72857">
        <ele>1326</ele>
        <time>2021-08-06T10:32:45.570Z</time>
      </trkpt>
      <trkpt lat="46.95433" lon="8.72856">
        <ele>1326</ele>
        <time>2021-08-06T10:32:46.570Z</time>
      </trkpt>
      <trkpt lat="46.95432" lon="8.72855">
        <ele>1326</ele>
        <time>2021-08-06T10:32:47.569Z</time>
      </trkpt>
      <trkpt lat="46.95431" lon="8.72854">
        <ele>1326</ele>
        <time>2021-08-06T10:32:48.570Z</time>
      </trkpt>
      <trkpt lat="46.95431" lon="8.72854">
        <ele>1327</ele>
        <time>2021-08-06T10:32:49.569Z</time>
      </trkpt>
      <trkpt lat="46.9543" lon="8.72854">
        <ele>1327</ele>
        <time>2021-08-06T10:32:50.569Z</time>
      </trkpt>
      <trkpt lat="46.9543" lon="8.72854">
        <ele>1327</ele>
        <time>2021-08-06T10:32:51.570Z</time>
      </trkpt>
      <trkpt lat="46.95431" lon="8.72852">
        <ele>1329</ele>
        <time>2021-08-06T10:32:52.569Z</time>
      </trkpt>
      <trkpt lat="46.95431" lon="8.72851">
        <ele>1329</ele>
        <time>2021-08-06T10:32:53.569Z</time>
      </trkpt>
      <trkpt lat="46.95431" lon="8.7285">
        <ele>1329</ele>
        <time>2021-08-06T10:32:54.569Z</time>
      </trkpt>
      <trkpt lat="46.95431" lon="8.72849">
        <ele>1329</ele>
        <time>2021-08-06T10:32:55.570Z</time>
      </trkpt>
      <trkpt lat="46.95431" lon="8.72848">
        <ele>1330</ele>
        <time>2021-08-06T10:32:56.570Z</time>
      </trkpt>
      <trkpt lat="46.95431" lon="8.72847">
        <ele>1330</ele>
        <time>2021-08-06T10:32:57.569Z</time>
      </trkpt>
      <trkpt lat="46.95431" lon="8.72846">
        <ele>1330</ele>
        <time>2021-08-06T10:32:58.570Z</time>
      </trkpt>
      <trkpt lat="46.9543" lon="8.72845">
        <ele>1331</ele>
        <time>2021-08-06T10:32:59.570Z</time>
      </trkpt>
      <trkpt lat="46.9543" lon="8.72844">
        <ele>1331</ele>
        <time>2021-08-06T10:33:00.570Z</time>
      </trkpt>
      <trkpt lat="46.95429" lon="8.72844">
        <ele>1331</ele>
        <time>2021-08-06T10:33:01.570Z</time>
      </trkpt>
      <trkpt lat="46.95429" lon="8.72843">
        <ele>1331</ele>
        <time>2021-08-06T10:33:02.570Z</time>
      </trkpt>
      <trkpt lat="46.95429" lon="8.72842">
        <ele>1331</ele>
        <time>2021-08-06T10:33:03.570Z</time>
      </trkpt>
      <trkpt lat="46.95429" lon="8.72841">
        <ele>1332</ele>
        <time>2021-08-06T10:33:04.569Z</time>
      </trkpt>
      <trkpt lat="46.95429" lon="8.7284">
        <ele>1332</ele>
        <time>2021-08-06T10:33:05.569Z</time>
      </trkpt>
      <trkpt lat="46.95429" lon="8.72839">
        <ele>1332</ele>
        <time>2021-08-06T10:33:06.570Z</time>
      </trkpt>
      <trkpt lat="46.95429" lon="8.72838">
        <ele>1333</ele>
        <time>2021-08-06T10:33:07.570Z</time>
      </trkpt>
      <trkpt lat="46.95428" lon="8.72837">
        <ele>1333</ele>
        <time>2021-08-06T10:33:08.569Z</time>
      </trkpt>
      <trkpt lat="46.95428" lon="8.72836">
        <ele>1334</ele>
        <time>2021-08-06T10:33:09.570Z</time>
      </trkpt>
      <trkpt lat="46.95428" lon="8.72835">
        <ele>1334</ele>
        <time>2021-08-06T10:33:10.569Z</time>
      </trkpt>
      <trkpt lat="46.95427" lon="8.72834">
        <ele>1334</ele>
        <time>2021-08-06T10:33:11.569Z</time>
      </trkpt>
      <trkpt lat="46.95427" lon="8.72833">
        <ele>1334</ele>
        <time>2021-08-06T10:33:12.569Z</time>
      </trkpt>
      <trkpt lat="46.95427" lon="8.72832">
        <ele>1335</ele>
        <time>2021-08-06T10:33:13.570Z</time>
      </trkpt>
      <trkpt lat="46.95427" lon="8.72831">
        <ele>1335</ele>
        <time>2021-08-06T10:33:14.569Z</time>
      </trkpt>
      <trkpt lat="46.95427" lon="8.7283">
        <ele>1335</ele>
        <time>2021-08-06T10:33:15.569Z</time>
      </trkpt>
      <trkpt lat="46.95426" lon="8.72829">
        <ele>1336</ele>
        <time>2021-08-06T10:33:16.570Z</time>
      </trkpt>
      <trkpt lat="46.95425" lon="8.72828">
        <ele>1336</ele>
        <time>2021-08-06T10:33:17.569Z</time>
      </trkpt>
      <trkpt lat="46.95425" lon="8.72827">
        <ele>1335</ele>
        <time>2021-08-06T10:33:18.569Z</time>
      </trkpt>
      <trkpt lat="46.95425" lon="8.72826">
        <ele>1335</ele>
        <time>2021-08-06T10:33:19.570Z</time>
      </trkpt>
      <trkpt lat="46.95424" lon="8.72825">
        <ele>1335</ele>
        <time>2021-08-06T10:33:20.570Z</time>
      </trkpt>
      <trkpt lat="46.95424" lon="8.72824">
        <ele>1335</ele>
        <time>2021-08-06T10:33:21.569Z</time>
      </trkpt>
      <trkpt lat="46.95424" lon="8.72823">
        <ele>1334</ele>
        <time>2021-08-06T10:33:22.570Z</time>
      </trkpt>
      <trkpt lat="46.95423" lon="8.72822">
        <ele>1334</ele>
        <time>2021-08-06T10:33:23.570Z</time>
      </trkpt>
      <trkpt lat="46.95422" lon="8.72821">
        <ele>1334</ele>
        <time>2021-08-06T10:33:24.570Z</time>
      </trkpt>
      <trkpt lat="46.95422" lon="8.7282">
        <ele>1334</ele>
        <time>2021-08-06T10:33:25.570Z</time>
      </trkpt>
      <trkpt lat="46.95421" lon="8.72819">
        <ele>1334</ele>
        <time>2021-08-06T10:33:26.569Z</time>
      </trkpt>
      <trkpt lat="46.9542" lon="8.72818">
        <ele>1335</ele>
        <time>2021-08-06T10:33:27.570Z</time>
      </trkpt>
      <trkpt lat="46.9542" lon="8.72817">
        <ele>1334</ele>
        <time>2021-08-06T10:33:28.570Z</time>
      </trkpt>
      <trkpt lat="46.95419" lon="8.72816">
        <ele>1334</ele>
        <time>2021-08-06T10:33:29.570Z</time>
      </trkpt>
      <trkpt lat="46.95419" lon="8.72815">
        <ele>1334</ele>
        <time>2021-08-06T10:33:30.570Z</time>
      </trkpt>
      <trkpt lat="46.95419" lon="8.72814">
        <ele>1334</ele>
        <time>2021-08-06T10:33:31.570Z</time>
      </trkpt>
      <trkpt lat="46.95418" lon="8.72813">
        <ele>1334</ele>
        <time>2021-08-06T10:33:32.570Z</time>
      </trkpt>
      <trkpt lat="46.95417" lon="8.72812">
        <ele>1334</ele>
        <time>2021-08-06T10:33:33.570Z</time>
      </trkpt>
      <trkpt lat="46.95417" lon="8.72811">
        <ele>1333</ele>
        <time>2021-08-06T10:33:34.569Z</time>
      </trkpt>
      <trkpt lat="46.95416" lon="8.7281">
        <ele>1333</ele>
        <time>2021-08-06T10:33:35.570Z</time>
      </trkpt>
      <trkpt lat="46.95416" lon="8.72808">
        <ele>1332</ele>
        <time>2021-08-06T10:33:36.570Z</time>
      </trkpt>
      <trkpt lat="46.95415" lon="8.72807">
        <ele>1332</ele>
        <time>2021-08-06T10:33:37.570Z</time>
      </trkpt>
      <trkpt lat="46.95415" lon="8.72806">
        <ele>1332</ele>
        <time>2021-08-06T10:33:38.570Z</time>
      </trkpt>
      <trkpt lat="46.95414" lon="8.72804">
        <ele>1332</ele>
        <time>2021-08-06T10:33:39.569Z</time>
      </trkpt>
      <trkpt lat="46.95413" lon="8.72803">
        <ele>1332</ele>
        <time>2021-08-06T10:33:40.569Z</time>
      </trkpt>
      <trkpt lat="46.95413" lon="8.72802">
        <ele>1332</ele>
        <time>2021-08-06T10:33:41.570Z</time>
      </trkpt>
      <trkpt lat="46.95412" lon="8.72801">
        <ele>1332</ele>
        <time>2021-08-06T10:33:42.570Z</time>
      </trkpt>
      <trkpt lat="46.95412" lon="8.728">
        <ele>1333</ele>
        <time>2021-08-06T10:33:43.570Z</time>
      </trkpt>
      <trkpt lat="46.95411" lon="8.72798">
        <ele>1333</ele>
        <time>2021-08-06T10:33:44.569Z</time>
      </trkpt>
      <trkpt lat="46.9541" lon="8.72797">
        <ele>1333</ele>
        <time>2021-08-06T10:33:45.570Z</time>
      </trkpt>
      <trkpt lat="46.9541" lon="8.72797">
        <ele>1333</ele>
        <time>2021-08-06T10:33:46.569Z</time>
      </trkpt>
      <trkpt lat="46.9541" lon="8.72796">
        <ele>1333</ele>
        <time>2021-08-06T10:33:47.570Z</time>
      </trkpt>
      <trkpt lat="46.9541" lon="8.72795">
        <ele>1332</ele>
        <time>2021-08-06T10:33:48.570Z</time>
      </trkpt>
      <trkpt lat="46.95409" lon="8.72794">
        <ele>1332</ele>
        <time>2021-08-06T10:33:49.570Z</time>
      </trkpt>
      <trkpt lat="46.95409" lon="8.72793">
        <ele>1331</ele>
        <time>2021-08-06T10:33:50.570Z</time>
      </trkpt>
      <trkpt lat="46.95409" lon="8.72792">
        <ele>1331</ele>
        <time>2021-08-06T10:33:51.570Z</time>
      </trkpt>
      <trkpt lat="46.95408" lon="8.72791">
        <ele>1330</ele>
        <time>2021-08-06T10:33:52.569Z</time>
      </trkpt>
      <trkpt lat="46.95408" lon="8.7279">
        <ele>1330</ele>
        <time>2021-08-06T10:33:53.569Z</time>
      </trkpt>
      <trkpt lat="46.95408" lon="8.7279">
        <ele>1330</ele>
        <time>2021-08-06T10:33:54.570Z</time>
      </trkpt>
      <trkpt lat="46.95407" lon="8.72789">
        <ele>1329</ele>
        <time>2021-08-06T10:33:55.570Z</time>
      </trkpt>
      <trkpt lat="46.95407" lon="8.72788">
        <ele>1329</ele>
        <time>2021-08-06T10:33:56.569Z</time>
      </trkpt>
      <trkpt lat="46.95407" lon="8.72787">
        <ele>1329</ele>
        <time>2021-08-06T10:33:57.570Z</time>
      </trkpt>
      <trkpt lat="46.95406" lon="8.72786">
        <ele>1329</ele>
        <time>2021-08-06T10:33:58.569Z</time>
      </trkpt>
      <trkpt lat="46.95406" lon="8.72785">
        <ele>1329</ele>
        <time>2021-08-06T10:33:59.570Z</time>
      </trkpt>
      <trkpt lat="46.95405" lon="8.72785">
        <ele>1329</ele>
        <time>2021-08-06T10:34:00.569Z</time>
      </trkpt>
      <trkpt lat="46.95405" lon="8.72784">
        <ele>1329</ele>
        <time>2021-08-06T10:34:01.570Z</time>
      </trkpt>
      <trkpt lat="46.95404" lon="8.72783">
        <ele>1330</ele>
        <time>2021-08-06T10:34:02.569Z</time>
      </trkpt>
      <trkpt lat="46.95404" lon="8.72783">
        <ele>1330</ele>
        <time>2021-08-06T10:34:03.570Z</time>
      </trkpt>
      <trkpt lat="46.95404" lon="8.72782">
        <ele>1331</ele>
        <time>2021-08-06T10:34:04.570Z</time>
      </trkpt>
      <trkpt lat="46.95403" lon="8.72781">
        <ele>1331</ele>
        <time>2021-08-06T10:34:05.569Z</time>
      </trkpt>
      <trkpt lat="46.95403" lon="8.7278">
        <ele>1332</ele>
        <time>2021-08-06T10:34:06.569Z</time>
      </trkpt>
      <trkpt lat="46.95402" lon="8.72779">
        <ele>1332</ele>
        <time>2021-08-06T10:34:07.570Z</time>
      </trkpt>
      <trkpt lat="46.95402" lon="8.72778">
        <ele>1332</ele>
        <time>2021-08-06T10:34:08.569Z</time>
      </trkpt>
      <trkpt lat="46.95402" lon="8.72777">
        <ele>1333</ele>
        <time>2021-08-06T10:34:09.569Z</time>
      </trkpt>
      <trkpt lat="46.95401" lon="8.72776">
        <ele>1333</ele>
        <time>2021-08-06T10:34:10.570Z</time>
      </trkpt>
      <trkpt lat="46.954" lon="8.72775">
        <ele>1333</ele>
        <time>2021-08-06T10:34:11.570Z</time>
      </trkpt>
      <trkpt lat="46.954" lon="8.72774">
        <ele>1333</ele>
        <time>2021-08-06T10:34:12.569Z</time>
      </trkpt>
      <trkpt lat="46.954" lon="8.72773">
        <ele>1333</ele>
        <time>2021-08-06T10:34:13.570Z</time>
      </trkpt>
      <trkpt lat="46.95399" lon="8.72773">
        <ele>1333</ele>
        <time>2021-08-06T10:34:14.569Z</time>
      </trkpt>
      <trkpt lat="46.95398" lon="8.72772">
        <ele>1334</ele>
        <time>2021-08-06T10:34:15.570Z</time>
      </trkpt>
      <trkpt lat="46.95398" lon="8.72771">
        <ele>1335</ele>
        <time>2021-08-06T10:34:16.569Z</time>
      </trkpt>
      <trkpt lat="46.95397" lon="8.7277">
        <ele>1336</ele>
        <time>2021-08-06T10:34:17.570Z</time>
      </trkpt>
      <trkpt lat="46.95396" lon="8.72769">
        <ele>1336</ele>
        <time>2021-08-06T10:34:18.569Z</time>
      </trkpt>
      <trkpt lat="46.95396" lon="8.72769">
        <ele>1336</ele>
        <time>2021-08-06T10:34:19.570Z</time>
      </trkpt>
      <trkpt lat="46.95396" lon="8.72767">
        <ele>1336</ele>
        <time>2021-08-06T10:34:20.569Z</time>
      </trkpt>
      <trkpt lat="46.95395" lon="8.72766">
        <ele>1336</ele>
        <time>2021-08-06T10:34:21.570Z</time>
      </trkpt>
      <trkpt lat="46.95394" lon="8.72765">
        <ele>1336</ele>
        <time>2021-08-06T10:34:22.570Z</time>
      </trkpt>
      <trkpt lat="46.95394" lon="8.72763">
        <ele>1335</ele>
        <time>2021-08-06T10:34:23.569Z</time>
      </trkpt>
      <trkpt lat="46.95393" lon="8.72762">
        <ele>1335</ele>
        <time>2021-08-06T10:34:24.569Z</time>
      </trkpt>
      <trkpt lat="46.95393" lon="8.72762">
        <ele>1335</ele>
        <time>2021-08-06T10:34:25.570Z</time>
      </trkpt>
      <trkpt lat="46.95393" lon="8.72761">
        <ele>1335</ele>
        <time>2021-08-06T10:34:26.569Z</time>
      </trkpt>
      <trkpt lat="46.95394" lon="8.72762">
        <ele>1341</ele>
        <time>2021-08-06T10:34:27.570Z</time>
      </trkpt>
      <trkpt lat="46.95393" lon="8.72762">
        <ele>1343</ele>
        <time>2021-08-06T10:34:28.570Z</time>
      </trkpt>
      <trkpt lat="46.95392" lon="8.72761">
        <ele>1339</ele>
        <time>2021-08-06T10:34:29.571Z</time>
      </trkpt>
      <trkpt lat="46.95391" lon="8.7276">
        <ele>1338</ele>
        <time>2021-08-06T10:34:30.571Z</time>
      </trkpt>
      <trkpt lat="46.95391" lon="8.72758">
        <ele>1336</ele>
        <time>2021-08-06T10:34:31.571Z</time>
      </trkpt>
      <trkpt lat="46.95391" lon="8.72756">
        <ele>1336</ele>
        <time>2021-08-06T10:34:32.571Z</time>
      </trkpt>
      <trkpt lat="46.9539" lon="8.72755">
        <ele>1335</ele>
        <time>2021-08-06T10:34:33.571Z</time>
      </trkpt>
      <trkpt lat="46.95389" lon="8.72754">
        <ele>1335</ele>
        <time>2021-08-06T10:34:34.570Z</time>
      </trkpt>
      <trkpt lat="46.95388" lon="8.72753">
        <ele>1335</ele>
        <time>2021-08-06T10:34:35.571Z</time>
      </trkpt>
      <trkpt lat="46.95388" lon="8.72752">
        <ele>1334</ele>
        <time>2021-08-06T10:34:36.570Z</time>
      </trkpt>
      <trkpt lat="46.95387" lon="8.72751">
        <ele>1334</ele>
        <time>2021-08-06T10:34:37.571Z</time>
      </trkpt>
      <trkpt lat="46.95386" lon="8.72751">
        <ele>1334</ele>
        <time>2021-08-06T10:34:38.571Z</time>
      </trkpt>
      <trkpt lat="46.95386" lon="8.7275">
        <ele>1333</ele>
        <time>2021-08-06T10:34:39.571Z</time>
      </trkpt>
      <trkpt lat="46.95386" lon="8.7275">
        <ele>1332</ele>
        <time>2021-08-06T10:34:40.570Z</time>
      </trkpt>
      <trkpt lat="46.95385" lon="8.72749">
        <ele>1331</ele>
        <time>2021-08-06T10:34:41.570Z</time>
      </trkpt>
      <trkpt lat="46.95385" lon="8.72748">
        <ele>1331</ele>
        <time>2021-08-06T10:34:42.570Z</time>
      </trkpt>
      <trkpt lat="46.95384" lon="8.72747">
        <ele>1330</ele>
        <time>2021-08-06T10:34:43.571Z</time>
      </trkpt>
      <trkpt lat="46.95383" lon="8.72746">
        <ele>1330</ele>
        <time>2021-08-06T10:34:44.570Z</time>
      </trkpt>
      <trkpt lat="46.95382" lon="8.72746">
        <ele>1330</ele>
        <time>2021-08-06T10:34:45.571Z</time>
      </trkpt>
      <trkpt lat="46.95381" lon="8.72745">
        <ele>1331</ele>
        <time>2021-08-06T10:34:46.570Z</time>
      </trkpt>
      <trkpt lat="46.9538" lon="8.72744">
        <ele>1332</ele>
        <time>2021-08-06T10:34:47.571Z</time>
      </trkpt>
      <trkpt lat="46.9538" lon="8.72743">
        <ele>1333</ele>
        <time>2021-08-06T10:34:48.570Z</time>
      </trkpt>
      <trkpt lat="46.95379" lon="8.72742">
        <ele>1334</ele>
        <time>2021-08-06T10:34:49.571Z</time>
      </trkpt>
      <trkpt lat="46.95378" lon="8.72741">
        <ele>1335</ele>
        <time>2021-08-06T10:34:50.571Z</time>
      </trkpt>
      <trkpt lat="46.95377" lon="8.7274">
        <ele>1336</ele>
        <time>2021-08-06T10:34:51.571Z</time>
      </trkpt>
      <trkpt lat="46.95376" lon="8.72739">
        <ele>1337</ele>
        <time>2021-08-06T10:34:52.571Z</time>
      </trkpt>
      <trkpt lat="46.95375" lon="8.72738">
        <ele>1338</ele>
        <time>2021-08-06T10:34:53.570Z</time>
      </trkpt>
      <trkpt lat="46.95374" lon="8.72738">
        <ele>1339</ele>
        <time>2021-08-06T10:34:54.571Z</time>
      </trkpt>
      <trkpt lat="46.95373" lon="8.72737">
        <ele>1339</ele>
        <time>2021-08-06T10:34:55.571Z</time>
      </trkpt>
      <trkpt lat="46.95372" lon="8.72737">
        <ele>1340</ele>
        <time>2021-08-06T10:34:56.571Z</time>
      </trkpt>
      <trkpt lat="46.95371" lon="8.72736">
        <ele>1340</ele>
        <time>2021-08-06T10:34:57.571Z</time>
      </trkpt>
      <trkpt lat="46.9537" lon="8.72735">
        <ele>1341</ele>
        <time>2021-08-06T10:34:58.571Z</time>
      </trkpt>
      <trkpt lat="46.9537" lon="8.72735">
        <ele>1341</ele>
        <time>2021-08-06T10:34:59.570Z</time>
      </trkpt>
      <trkpt lat="46.95369" lon="8.72734">
        <ele>1341</ele>
        <time>2021-08-06T10:35:00.570Z</time>
      </trkpt>
      <trkpt lat="46.95368" lon="8.72734">
        <ele>1340</ele>
        <time>2021-08-06T10:35:01.570Z</time>
      </trkpt>
      <trkpt lat="46.95367" lon="8.72733">
        <ele>1339</ele>
        <time>2021-08-06T10:35:02.571Z</time>
      </trkpt>
      <trkpt lat="46.95366" lon="8.72732">
        <ele>1339</ele>
        <time>2021-08-06T10:35:03.570Z</time>
      </trkpt>
      <trkpt lat="46.95366" lon="8.72731">
        <ele>1339</ele>
        <time>2021-08-06T10:35:04.570Z</time>
      </trkpt>
      <trkpt lat="46.95365" lon="8.72731">
        <ele>1339</ele>
        <time>2021-08-06T10:35:05.570Z</time>
      </trkpt>
      <trkpt lat="46.95364" lon="8.7273">
        <ele>1339</ele>
        <time>2021-08-06T10:35:06.571Z</time>
      </trkpt>
      <trkpt lat="46.95363" lon="8.72729">
        <ele>1340</ele>
        <time>2021-08-06T10:35:07.570Z</time>
      </trkpt>
      <trkpt lat="46.95362" lon="8.72729">
        <ele>1340</ele>
        <time>2021-08-06T10:35:08.571Z</time>
      </trkpt>
      <trkpt lat="46.95361" lon="8.72728">
        <ele>1341</ele>
        <time>2021-08-06T10:35:09.571Z</time>
      </trkpt>
      <trkpt lat="46.9536" lon="8.72728">
        <ele>1341</ele>
        <time>2021-08-06T10:35:10.571Z</time>
      </trkpt>
      <trkpt lat="46.95359" lon="8.72727">
        <ele>1340</ele>
        <time>2021-08-06T10:35:11.571Z</time>
      </trkpt>
      <trkpt lat="46.95358" lon="8.72726">
        <ele>1340</ele>
        <time>2021-08-06T10:35:12.570Z</time>
      </trkpt>
      <trkpt lat="46.95357" lon="8.72725">
        <ele>1340</ele>
        <time>2021-08-06T10:35:13.570Z</time>
      </trkpt>
      <trkpt lat="46.95357" lon="8.72724">
        <ele>1341</ele>
        <time>2021-08-06T10:35:14.571Z</time>
      </trkpt>
      <trkpt lat="46.95356" lon="8.72724">
        <ele>1341</ele>
        <time>2021-08-06T10:35:15.571Z</time>
      </trkpt>
      <trkpt lat="46.95355" lon="8.72723">
        <ele>1341</ele>
        <time>2021-08-06T10:35:16.571Z</time>
      </trkpt>
      <trkpt lat="46.95354" lon="8.72722">
        <ele>1341</ele>
        <time>2021-08-06T10:35:17.571Z</time>
      </trkpt>
      <trkpt lat="46.95353" lon="8.72722">
        <ele>1342</ele>
        <time>2021-08-06T10:35:18.571Z</time>
      </trkpt>
      <trkpt lat="46.95352" lon="8.72721">
        <ele>1342</ele>
        <time>2021-08-06T10:35:19.571Z</time>
      </trkpt>
      <trkpt lat="46.95351" lon="8.72721">
        <ele>1343</ele>
        <time>2021-08-06T10:35:20.571Z</time>
      </trkpt>
      <trkpt lat="46.9535" lon="8.72721">
        <ele>1343</ele>
        <time>2021-08-06T10:35:21.570Z</time>
      </trkpt>
      <trkpt lat="46.95349" lon="8.7272">
        <ele>1344</ele>
        <time>2021-08-06T10:35:22.571Z</time>
      </trkpt>
      <trkpt lat="46.95348" lon="8.7272">
        <ele>1344</ele>
        <time>2021-08-06T10:35:23.571Z</time>
      </trkpt>
      <trkpt lat="46.95347" lon="8.7272">
        <ele>1344</ele>
        <time>2021-08-06T10:35:24.571Z</time>
      </trkpt>
      <trkpt lat="46.95346" lon="8.72719">
        <ele>1345</ele>
        <time>2021-08-06T10:35:25.571Z</time>
      </trkpt>
      <trkpt lat="46.95345" lon="8.72719">
        <ele>1345</ele>
        <time>2021-08-06T10:35:26.571Z</time>
      </trkpt>
      <trkpt lat="46.95344" lon="8.72719">
        <ele>1345</ele>
        <time>2021-08-06T10:35:27.570Z</time>
      </trkpt>
      <trkpt lat="46.95343" lon="8.72719">
        <ele>1345</ele>
        <time>2021-08-06T10:35:28.571Z</time>
      </trkpt>
      <trkpt lat="46.95342" lon="8.72718">
        <ele>1346</ele>
        <time>2021-08-06T10:35:29.570Z</time>
      </trkpt>
      <trkpt lat="46.95341" lon="8.72717">
        <ele>1345</ele>
        <time>2021-08-06T10:35:30.571Z</time>
      </trkpt>
      <trkpt lat="46.95341" lon="8.72717">
        <ele>1346</ele>
        <time>2021-08-06T10:35:31.571Z</time>
      </trkpt>
      <trkpt lat="46.9534" lon="8.72716">
        <ele>1346</ele>
        <time>2021-08-06T10:35:32.571Z</time>
      </trkpt>
      <trkpt lat="46.95339" lon="8.72716">
        <ele>1346</ele>
        <time>2021-08-06T10:35:33.571Z</time>
      </trkpt>
      <trkpt lat="46.95338" lon="8.72716">
        <ele>1345</ele>
        <time>2021-08-06T10:35:34.571Z</time>
      </trkpt>
      <trkpt lat="46.95337" lon="8.72716">
        <ele>1345</ele>
        <time>2021-08-06T10:35:35.571Z</time>
      </trkpt>
      <trkpt lat="46.95337" lon="8.72715">
        <ele>1345</ele>
        <time>2021-08-06T10:35:36.571Z</time>
      </trkpt>
      <trkpt lat="46.95336" lon="8.72715">
        <ele>1345</ele>
        <time>2021-08-06T10:35:37.571Z</time>
      </trkpt>
      <trkpt lat="46.95335" lon="8.72715">
        <ele>1345</ele>
        <time>2021-08-06T10:35:38.571Z</time>
      </trkpt>
      <trkpt lat="46.95334" lon="8.72715">
        <ele>1346</ele>
        <time>2021-08-06T10:35:39.571Z</time>
      </trkpt>
      <trkpt lat="46.95333" lon="8.72714">
        <ele>1346</ele>
        <time>2021-08-06T10:35:40.571Z</time>
      </trkpt>
      <trkpt lat="46.95333" lon="8.72714">
        <ele>1345</ele>
        <time>2021-08-06T10:35:41.571Z</time>
      </trkpt>
      <trkpt lat="46.95332" lon="8.72713">
        <ele>1345</ele>
        <time>2021-08-06T10:35:42.571Z</time>
      </trkpt>
      <trkpt lat="46.95331" lon="8.72713">
        <ele>1346</ele>
        <time>2021-08-06T10:35:43.571Z</time>
      </trkpt>
      <trkpt lat="46.9533" lon="8.72713">
        <ele>1346</ele>
        <time>2021-08-06T10:35:44.570Z</time>
      </trkpt>
      <trkpt lat="46.9533" lon="8.72712">
        <ele>1346</ele>
        <time>2021-08-06T10:35:45.570Z</time>
      </trkpt>
      <trkpt lat="46.95329" lon="8.72712">
        <ele>1346</ele>
        <time>2021-08-06T10:35:46.571Z</time>
      </trkpt>
      <trkpt lat="46.95328" lon="8.72711">
        <ele>1346</ele>
        <time>2021-08-06T10:35:47.571Z</time>
      </trkpt>
      <trkpt lat="46.95328" lon="8.72711">
        <ele>1347</ele>
        <time>2021-08-06T10:35:48.571Z</time>
      </trkpt>
      <trkpt lat="46.95327" lon="8.7271">
        <ele>1347</ele>
        <time>2021-08-06T10:35:49.571Z</time>
      </trkpt>
      <trkpt lat="46.95327" lon="8.7271">
        <ele>1348</ele>
        <time>2021-08-06T10:35:50.570Z</time>
      </trkpt>
      <trkpt lat="46.95326" lon="8.72709">
        <ele>1348</ele>
        <time>2021-08-06T10:35:51.571Z</time>
      </trkpt>
      <trkpt lat="46.95326" lon="8.72708">
        <ele>1349</ele>
        <time>2021-08-06T10:35:52.571Z</time>
      </trkpt>
      <trkpt lat="46.95325" lon="8.72708">
        <ele>1349</ele>
        <time>2021-08-06T10:35:53.571Z</time>
      </trkpt>
      <trkpt lat="46.95324" lon="8.72708">
        <ele>1348</ele>
        <time>2021-08-06T10:35:54.570Z</time>
      </trkpt>
      <trkpt lat="46.95324" lon="8.72708">
        <ele>1349</ele>
        <time>2021-08-06T10:35:55.571Z</time>
      </trkpt>
      <trkpt lat="46.95323" lon="8.72708">
        <ele>1349</ele>
        <time>2021-08-06T10:35:56.570Z</time>
      </trkpt>
      <trkpt lat="46.95322" lon="8.72707">
        <ele>1348</ele>
        <time>2021-08-06T10:35:57.571Z</time>
      </trkpt>
      <trkpt lat="46.95322" lon="8.72706">
        <ele>1348</ele>
        <time>2021-08-06T10:35:58.570Z</time>
      </trkpt>
      <trkpt lat="46.95321" lon="8.72706">
        <ele>1347</ele>
        <time>2021-08-06T10:35:59.570Z</time>
      </trkpt>
      <trkpt lat="46.9532" lon="8.72705">
        <ele>1347</ele>
        <time>2021-08-06T10:36:00.571Z</time>
      </trkpt>
      <trkpt lat="46.9532" lon="8.72704">
        <ele>1347</ele>
        <time>2021-08-06T10:36:01.570Z</time>
      </trkpt>
      <trkpt lat="46.95319" lon="8.72704">
        <ele>1346</ele>
        <time>2021-08-06T10:36:02.570Z</time>
      </trkpt>
      <trkpt lat="46.95319" lon="8.72703">
        <ele>1346</ele>
        <time>2021-08-06T10:36:03.570Z</time>
      </trkpt>
      <trkpt lat="46.95318" lon="8.72702">
        <ele>1347</ele>
        <time>2021-08-06T10:36:04.571Z</time>
      </trkpt>
      <trkpt lat="46.95318" lon="8.72701">
        <ele>1347</ele>
        <time>2021-08-06T10:36:05.571Z</time>
      </trkpt>
      <trkpt lat="46.95317" lon="8.727">
        <ele>1346</ele>
        <time>2021-08-06T10:36:06.570Z</time>
      </trkpt>
      <trkpt lat="46.95316" lon="8.72698">
        <ele>1346</ele>
        <time>2021-08-06T10:36:07.570Z</time>
      </trkpt>
      <trkpt lat="46.95315" lon="8.72697">
        <ele>1345</ele>
        <time>2021-08-06T10:36:08.571Z</time>
      </trkpt>
      <trkpt lat="46.95315" lon="8.72696">
        <ele>1345</ele>
        <time>2021-08-06T10:36:09.570Z</time>
      </trkpt>
      <trkpt lat="46.95314" lon="8.72696">
        <ele>1345</ele>
        <time>2021-08-06T10:36:10.571Z</time>
      </trkpt>
      <trkpt lat="46.95313" lon="8.72695">
        <ele>1345</ele>
        <time>2021-08-06T10:36:11.571Z</time>
      </trkpt>
      <trkpt lat="46.95313" lon="8.72694">
        <ele>1344</ele>
        <time>2021-08-06T10:36:12.571Z</time>
      </trkpt>
      <trkpt lat="46.95311" lon="8.72693">
        <ele>1345</ele>
        <time>2021-08-06T10:36:13.570Z</time>
      </trkpt>
      <trkpt lat="46.9531" lon="8.72692">
        <ele>1345</ele>
        <time>2021-08-06T10:36:14.571Z</time>
      </trkpt>
      <trkpt lat="46.95309" lon="8.72691">
        <ele>1345</ele>
        <time>2021-08-06T10:36:15.571Z</time>
      </trkpt>
      <trkpt lat="46.95309" lon="8.7269">
        <ele>1346</ele>
        <time>2021-08-06T10:36:18.721Z</time>
      </trkpt>
      <trkpt lat="46.95308" lon="8.72689">
        <ele>1347</ele>
        <time>2021-08-06T10:36:19.722Z</time>
      </trkpt>
      <trkpt lat="46.95307" lon="8.72688">
        <ele>1347</ele>
        <time>2021-08-06T10:36:20.721Z</time>
      </trkpt>
      <trkpt lat="46.95307" lon="8.72687">
        <ele>1347</ele>
        <time>2021-08-06T10:36:28.891Z</time>
      </trkpt>
      <trkpt lat="46.95306" lon="8.72686">
        <ele>1347</ele>
        <time>2021-08-06T10:36:29.891Z</time>
      </trkpt>
      <trkpt lat="46.95306" lon="8.72685">
        <ele>1347</ele>
        <time>2021-08-06T10:36:30.892Z</time>
      </trkpt>
      <trkpt lat="46.95305" lon="8.72684">
        <ele>1347</ele>
        <time>2021-08-06T10:36:42.972Z</time>
      </trkpt>
      <trkpt lat="46.95305" lon="8.72683">
        <ele>1347</ele>
        <time>2021-08-06T10:36:43.972Z</time>
      </trkpt>
      <trkpt lat="46.95305" lon="8.72682">
        <ele>1347</ele>
        <time>2021-08-06T10:37:05.856Z</time>
      </trkpt>
      <trkpt lat="46.95304" lon="8.72681">
        <ele>1346</ele>
        <time>2021-08-06T10:37:06.856Z</time>
      </trkpt>
      <trkpt lat="46.95304" lon="8.7268">
        <ele>1346</ele>
        <time>2021-08-06T10:37:07.857Z</time>
      </trkpt>
      <trkpt lat="46.95303" lon="8.72679">
        <ele>1346</ele>
        <time>2021-08-06T10:37:08.857Z</time>
      </trkpt>
      <trkpt lat="46.95303" lon="8.72678">
        <ele>1346</ele>
        <time>2021-08-06T10:37:09.857Z</time>
      </trkpt>
      <trkpt lat="46.95302" lon="8.72677">
        <ele>1346</ele>
        <time>2021-08-06T10:37:10.857Z</time>
      </trkpt>
      <trkpt lat="46.95302" lon="8.72676">
        <ele>1347</ele>
        <time>2021-08-06T10:37:11.857Z</time>
      </trkpt>
      <trkpt lat="46.95302" lon="8.72675">
        <ele>1346</ele>
        <time>2021-08-06T10:37:12.857Z</time>
      </trkpt>
      <trkpt lat="46.95302" lon="8.72674">
        <ele>1346</ele>
        <time>2021-08-06T10:37:13.857Z</time>
      </trkpt>
      <trkpt lat="46.95301" lon="8.72674">
        <ele>1346</ele>
        <time>2021-08-06T10:37:14.857Z</time>
      </trkpt>
      <trkpt lat="46.95302" lon="8.72673">
        <ele>1346</ele>
        <time>2021-08-06T10:37:15.857Z</time>
      </trkpt>
      <trkpt lat="46.95302" lon="8.72673">
        <ele>1346</ele>
        <time>2021-08-06T10:37:16.856Z</time>
      </trkpt>
      <trkpt lat="46.95302" lon="8.72672">
        <ele>1346</ele>
        <time>2021-08-06T10:37:17.857Z</time>
      </trkpt>
      <trkpt lat="46.95303" lon="8.72672">
        <ele>1345</ele>
        <time>2021-08-06T10:37:18.857Z</time>
      </trkpt>
      <trkpt lat="46.95303" lon="8.72671">
        <ele>1345</ele>
        <time>2021-08-06T10:37:19.856Z</time>
      </trkpt>
      <trkpt lat="46.95302" lon="8.72671">
        <ele>1345</ele>
        <time>2021-08-06T10:37:20.857Z</time>
      </trkpt>
      <trkpt lat="46.95302" lon="8.72672">
        <ele>1345</ele>
        <time>2021-08-06T10:37:21.856Z</time>
      </trkpt>
      <trkpt lat="46.95301" lon="8.72672">
        <ele>1345</ele>
        <time>2021-08-06T10:37:22.856Z</time>
      </trkpt>
      <trkpt lat="46.95301" lon="8.72672">
        <ele>1345</ele>
        <time>2021-08-06T10:37:23.857Z</time>
      </trkpt>
      <trkpt lat="46.953" lon="8.72672">
        <ele>1344</ele>
        <time>2021-08-06T10:37:24.856Z</time>
      </trkpt>
      <trkpt lat="46.95299" lon="8.72671">
        <ele>1344</ele>
        <time>2021-08-06T10:37:25.856Z</time>
      </trkpt>
      <trkpt lat="46.95298" lon="8.72671">
        <ele>1344</ele>
        <time>2021-08-06T10:37:26.856Z</time>
      </trkpt>
      <trkpt lat="46.95296" lon="8.72671">
        <ele>1344</ele>
        <time>2021-08-06T10:37:27.856Z</time>
      </trkpt>
      <trkpt lat="46.95295" lon="8.72671">
        <ele>1344</ele>
        <time>2021-08-06T10:37:28.856Z</time>
      </trkpt>
      <trkpt lat="46.95295" lon="8.7267">
        <ele>1344</ele>
        <time>2021-08-06T10:37:29.856Z</time>
      </trkpt>
      <trkpt lat="46.95294" lon="8.72669">
        <ele>1344</ele>
        <time>2021-08-06T10:37:30.857Z</time>
      </trkpt>
      <trkpt lat="46.95293" lon="8.72667">
        <ele>1345</ele>
        <time>2021-08-06T10:37:31.856Z</time>
      </trkpt>
      <trkpt lat="46.95292" lon="8.72667">
        <ele>1346</ele>
        <time>2021-08-06T10:37:32.856Z</time>
      </trkpt>
      <trkpt lat="46.9529" lon="8.72666">
        <ele>1346</ele>
        <time>2021-08-06T10:37:33.856Z</time>
      </trkpt>
      <trkpt lat="46.95289" lon="8.72665">
        <ele>1347</ele>
        <time>2021-08-06T10:37:34.857Z</time>
      </trkpt>
      <trkpt lat="46.95288" lon="8.72664">
        <ele>1347</ele>
        <time>2021-08-06T10:37:35.856Z</time>
      </trkpt>
      <trkpt lat="46.95288" lon="8.72663">
        <ele>1348</ele>
        <time>2021-08-06T10:37:36.856Z</time>
      </trkpt>
      <trkpt lat="46.95287" lon="8.72663">
        <ele>1349</ele>
        <time>2021-08-06T10:37:37.856Z</time>
      </trkpt>
      <trkpt lat="46.95286" lon="8.72662">
        <ele>1349</ele>
        <time>2021-08-06T10:37:38.856Z</time>
      </trkpt>
      <trkpt lat="46.95285" lon="8.72662">
        <ele>1350</ele>
        <time>2021-08-06T10:37:39.857Z</time>
      </trkpt>
      <trkpt lat="46.95284" lon="8.72662">
        <ele>1350</ele>
        <time>2021-08-06T10:37:40.856Z</time>
      </trkpt>
      <trkpt lat="46.95283" lon="8.72662">
        <ele>1350</ele>
        <time>2021-08-06T10:37:41.856Z</time>
      </trkpt>
      <trkpt lat="46.95282" lon="8.72662">
        <ele>1349</ele>
        <time>2021-08-06T10:37:42.856Z</time>
      </trkpt>
      <trkpt lat="46.95281" lon="8.72661">
        <ele>1349</ele>
        <time>2021-08-06T10:37:43.856Z</time>
      </trkpt>
      <trkpt lat="46.9528" lon="8.72661">
        <ele>1349</ele>
        <time>2021-08-06T10:37:44.856Z</time>
      </trkpt>
      <trkpt lat="46.95279" lon="8.72661">
        <ele>1350</ele>
        <time>2021-08-06T10:37:45.856Z</time>
      </trkpt>
      <trkpt lat="46.95278" lon="8.7266">
        <ele>1350</ele>
        <time>2021-08-06T10:37:46.856Z</time>
      </trkpt>
      <trkpt lat="46.95277" lon="8.7266">
        <ele>1350</ele>
        <time>2021-08-06T10:37:47.856Z</time>
      </trkpt>
      <trkpt lat="46.95277" lon="8.7266">
        <ele>1351</ele>
        <time>2021-08-06T10:37:48.856Z</time>
      </trkpt>
      <trkpt lat="46.95277" lon="8.7266">
        <ele>1351</ele>
        <time>2021-08-06T10:37:49.856Z</time>
      </trkpt>
      <trkpt lat="46.95276" lon="8.7266">
        <ele>1351</ele>
        <time>2021-08-06T10:37:50.856Z</time>
      </trkpt>
      <trkpt lat="46.95276" lon="8.7266">
        <ele>1351</ele>
        <time>2021-08-06T10:37:51.856Z</time>
      </trkpt>
      <trkpt lat="46.95275" lon="8.7266">
        <ele>1356</ele>
        <time>2021-08-06T10:37:52.857Z</time>
      </trkpt>
      <trkpt lat="46.95275" lon="8.72661">
        <ele>1356</ele>
        <time>2021-08-06T10:37:53.857Z</time>
      </trkpt>
      <trkpt lat="46.95274" lon="8.72661">
        <ele>1356</ele>
        <time>2021-08-06T10:37:54.857Z</time>
      </trkpt>
      <trkpt lat="46.95273" lon="8.72661">
        <ele>1355</ele>
        <time>2021-08-06T10:37:55.857Z</time>
      </trkpt>
      <trkpt lat="46.95272" lon="8.7266">
        <ele>1355</ele>
        <time>2021-08-06T10:37:56.857Z</time>
      </trkpt>
      <trkpt lat="46.9527" lon="8.7266">
        <ele>1355</ele>
        <time>2021-08-06T10:37:57.857Z</time>
      </trkpt>
      <trkpt lat="46.9527" lon="8.7266">
        <ele>1354</ele>
        <time>2021-08-06T10:37:58.856Z</time>
      </trkpt>
      <trkpt lat="46.95269" lon="8.72659">
        <ele>1354</ele>
        <time>2021-08-06T10:37:59.857Z</time>
      </trkpt>
      <trkpt lat="46.95268" lon="8.72659">
        <ele>1353</ele>
        <time>2021-08-06T10:38:00.857Z</time>
      </trkpt>
      <trkpt lat="46.95267" lon="8.72659">
        <ele>1352</ele>
        <time>2021-08-06T10:38:01.857Z</time>
      </trkpt>
      <trkpt lat="46.95266" lon="8.72658">
        <ele>1352</ele>
        <time>2021-08-06T10:38:02.857Z</time>
      </trkpt>
      <trkpt lat="46.95265" lon="8.72658">
        <ele>1351</ele>
        <time>2021-08-06T10:38:03.857Z</time>
      </trkpt>
      <trkpt lat="46.95264" lon="8.72657">
        <ele>1351</ele>
        <time>2021-08-06T10:38:04.857Z</time>
      </trkpt>
      <trkpt lat="46.95263" lon="8.72657">
        <ele>1350</ele>
        <time>2021-08-06T10:38:05.857Z</time>
      </trkpt>
      <trkpt lat="46.95263" lon="8.72656">
        <ele>1350</ele>
        <time>2021-08-06T10:38:06.857Z</time>
      </trkpt>
      <trkpt lat="46.95262" lon="8.72656">
        <ele>1350</ele>
        <time>2021-08-06T10:38:07.856Z</time>
      </trkpt>
      <trkpt lat="46.95262" lon="8.72655">
        <ele>1351</ele>
        <time>2021-08-06T10:38:08.857Z</time>
      </trkpt>
      <trkpt lat="46.95261" lon="8.72654">
        <ele>1351</ele>
        <time>2021-08-06T10:38:09.857Z</time>
      </trkpt>
      <trkpt lat="46.9526" lon="8.72653">
        <ele>1351</ele>
        <time>2021-08-06T10:38:10.857Z</time>
      </trkpt>
      <trkpt lat="46.95259" lon="8.72652">
        <ele>1351</ele>
        <time>2021-08-06T10:38:11.857Z</time>
      </trkpt>
      <trkpt lat="46.95258" lon="8.72652">
        <ele>1351</ele>
        <time>2021-08-06T10:38:12.857Z</time>
      </trkpt>
      <trkpt lat="46.95257" lon="8.72651">
        <ele>1351</ele>
        <time>2021-08-06T10:38:13.857Z</time>
      </trkpt>
      <trkpt lat="46.95256" lon="8.7265">
        <ele>1351</ele>
        <time>2021-08-06T10:38:14.856Z</time>
      </trkpt>
      <trkpt lat="46.95255" lon="8.72649">
        <ele>1352</ele>
        <time>2021-08-06T10:38:15.856Z</time>
      </trkpt>
      <trkpt lat="46.95254" lon="8.72649">
        <ele>1352</ele>
        <time>2021-08-06T10:38:16.857Z</time>
      </trkpt>
      <trkpt lat="46.95253" lon="8.72648">
        <ele>1353</ele>
        <time>2021-08-06T10:38:17.857Z</time>
      </trkpt>
      <trkpt lat="46.95252" lon="8.72646">
        <ele>1353</ele>
        <time>2021-08-06T10:38:18.857Z</time>
      </trkpt>
      <trkpt lat="46.95251" lon="8.72646">
        <ele>1353</ele>
        <time>2021-08-06T10:38:19.856Z</time>
      </trkpt>
      <trkpt lat="46.9525" lon="8.72645">
        <ele>1353</ele>
        <time>2021-08-06T10:38:20.856Z</time>
      </trkpt>
      <trkpt lat="46.9525" lon="8.72644">
        <ele>1353</ele>
        <time>2021-08-06T10:38:21.857Z</time>
      </trkpt>
      <trkpt lat="46.95249" lon="8.72643">
        <ele>1353</ele>
        <time>2021-08-06T10:38:22.857Z</time>
      </trkpt>
      <trkpt lat="46.95248" lon="8.72642">
        <ele>1352</ele>
        <time>2021-08-06T10:38:23.856Z</time>
      </trkpt>
      <trkpt lat="46.95247" lon="8.72642">
        <ele>1352</ele>
        <time>2021-08-06T10:38:24.857Z</time>
      </trkpt>
      <trkpt lat="46.95246" lon="8.72641">
        <ele>1352</ele>
        <time>2021-08-06T10:38:25.857Z</time>
      </trkpt>
      <trkpt lat="46.95245" lon="8.7264">
        <ele>1352</ele>
        <time>2021-08-06T10:38:26.857Z</time>
      </trkpt>
      <trkpt lat="46.95244" lon="8.72639">
        <ele>1352</ele>
        <time>2021-08-06T10:38:27.856Z</time>
      </trkpt>
      <trkpt lat="46.95244" lon="8.72638">
        <ele>1352</ele>
        <time>2021-08-06T10:38:28.857Z</time>
      </trkpt>
      <trkpt lat="46.95243" lon="8.72638">
        <ele>1351</ele>
        <time>2021-08-06T10:38:29.856Z</time>
      </trkpt>
      <trkpt lat="46.95242" lon="8.72637">
        <ele>1351</ele>
        <time>2021-08-06T10:38:30.857Z</time>
      </trkpt>
      <trkpt lat="46.95241" lon="8.72636">
        <ele>1351</ele>
        <time>2021-08-06T10:38:31.856Z</time>
      </trkpt>
      <trkpt lat="46.9524" lon="8.72635">
        <ele>1352</ele>
        <time>2021-08-06T10:38:32.857Z</time>
      </trkpt>
      <trkpt lat="46.95239" lon="8.72634">
        <ele>1353</ele>
        <time>2021-08-06T10:38:33.857Z</time>
      </trkpt>
      <trkpt lat="46.95238" lon="8.72633">
        <ele>1353</ele>
        <time>2021-08-06T10:38:34.856Z</time>
      </trkpt>
      <trkpt lat="46.95238" lon="8.72633">
        <ele>1353</ele>
        <time>2021-08-06T10:38:35.856Z</time>
      </trkpt>
      <trkpt lat="46.95237" lon="8.72632">
        <ele>1353</ele>
        <time>2021-08-06T10:38:36.857Z</time>
      </trkpt>
      <trkpt lat="46.95237" lon="8.72631">
        <ele>1352</ele>
        <time>2021-08-06T10:38:37.856Z</time>
      </trkpt>
      <trkpt lat="46.95236" lon="8.7263">
        <ele>1352</ele>
        <time>2021-08-06T10:38:38.857Z</time>
      </trkpt>
      <trkpt lat="46.95235" lon="8.72629">
        <ele>1352</ele>
        <time>2021-08-06T10:38:39.857Z</time>
      </trkpt>
      <trkpt lat="46.95234" lon="8.72628">
        <ele>1352</ele>
        <time>2021-08-06T10:38:40.857Z</time>
      </trkpt>
      <trkpt lat="46.95233" lon="8.72627">
        <ele>1352</ele>
        <time>2021-08-06T10:38:41.857Z</time>
      </trkpt>
      <trkpt lat="46.95232" lon="8.72627">
        <ele>1353</ele>
        <time>2021-08-06T10:38:42.857Z</time>
      </trkpt>
      <trkpt lat="46.95231" lon="8.72626">
        <ele>1353</ele>
        <time>2021-08-06T10:38:43.857Z</time>
      </trkpt>
      <trkpt lat="46.95231" lon="8.72625">
        <ele>1353</ele>
        <time>2021-08-06T10:38:44.856Z</time>
      </trkpt>
      <trkpt lat="46.9523" lon="8.72624">
        <ele>1353</ele>
        <time>2021-08-06T10:38:45.857Z</time>
      </trkpt>
      <trkpt lat="46.95229" lon="8.72624">
        <ele>1352</ele>
        <time>2021-08-06T10:38:46.857Z</time>
      </trkpt>
      <trkpt lat="46.95229" lon="8.72623">
        <ele>1352</ele>
        <time>2021-08-06T10:38:47.857Z</time>
      </trkpt>
      <trkpt lat="46.95228" lon="8.72623">
        <ele>1352</ele>
        <time>2021-08-06T10:38:48.857Z</time>
      </trkpt>
      <trkpt lat="46.95227" lon="8.72622">
        <ele>1352</ele>
        <time>2021-08-06T10:38:49.857Z</time>
      </trkpt>
      <trkpt lat="46.95226" lon="8.72621">
        <ele>1352</ele>
        <time>2021-08-06T10:38:50.857Z</time>
      </trkpt>
      <trkpt lat="46.95225" lon="8.72621">
        <ele>1353</ele>
        <time>2021-08-06T10:38:51.856Z</time>
      </trkpt>
      <trkpt lat="46.95224" lon="8.7262">
        <ele>1353</ele>
        <time>2021-08-06T10:38:52.857Z</time>
      </trkpt>
      <trkpt lat="46.95223" lon="8.7262">
        <ele>1353</ele>
        <time>2021-08-06T10:38:53.857Z</time>
      </trkpt>
      <trkpt lat="46.95222" lon="8.72619">
        <ele>1353</ele>
        <time>2021-08-06T10:38:54.857Z</time>
      </trkpt>
      <trkpt lat="46.95222" lon="8.72619">
        <ele>1353</ele>
        <time>2021-08-06T10:38:55.857Z</time>
      </trkpt>
      <trkpt lat="46.95221" lon="8.72618">
        <ele>1353</ele>
        <time>2021-08-06T10:38:56.857Z</time>
      </trkpt>
      <trkpt lat="46.9522" lon="8.72617">
        <ele>1353</ele>
        <time>2021-08-06T10:38:57.857Z</time>
      </trkpt>
      <trkpt lat="46.9522" lon="8.72617">
        <ele>1353</ele>
        <time>2021-08-06T10:38:58.857Z</time>
      </trkpt>
      <trkpt lat="46.95219" lon="8.72616">
        <ele>1353</ele>
        <time>2021-08-06T10:38:59.857Z</time>
      </trkpt>
      <trkpt lat="46.95218" lon="8.72616">
        <ele>1354</ele>
        <time>2021-08-06T10:39:00.857Z</time>
      </trkpt>
      <trkpt lat="46.95217" lon="8.72615">
        <ele>1354</ele>
        <time>2021-08-06T10:39:01.857Z</time>
      </trkpt>
      <trkpt lat="46.95216" lon="8.72615">
        <ele>1355</ele>
        <time>2021-08-06T10:39:02.857Z</time>
      </trkpt>
      <trkpt lat="46.95216" lon="8.72615">
        <ele>1355</ele>
        <time>2021-08-06T10:39:03.857Z</time>
      </trkpt>
      <trkpt lat="46.95215" lon="8.72615">
        <ele>1355</ele>
        <time>2021-08-06T10:39:04.857Z</time>
      </trkpt>
      <trkpt lat="46.95214" lon="8.72614">
        <ele>1355</ele>
        <time>2021-08-06T10:39:05.856Z</time>
      </trkpt>
      <trkpt lat="46.95213" lon="8.72614">
        <ele>1355</ele>
        <time>2021-08-06T10:39:06.856Z</time>
      </trkpt>
      <trkpt lat="46.95212" lon="8.72613">
        <ele>1355</ele>
        <time>2021-08-06T10:39:07.856Z</time>
      </trkpt>
      <trkpt lat="46.95211" lon="8.72613">
        <ele>1355</ele>
        <time>2021-08-06T10:39:08.856Z</time>
      </trkpt>
      <trkpt lat="46.9521" lon="8.72612">
        <ele>1355</ele>
        <time>2021-08-06T10:39:09.856Z</time>
      </trkpt>
      <trkpt lat="46.95209" lon="8.72612">
        <ele>1355</ele>
        <time>2021-08-06T10:39:10.856Z</time>
      </trkpt>
      <trkpt lat="46.95208" lon="8.72612">
        <ele>1355</ele>
        <time>2021-08-06T10:39:11.857Z</time>
      </trkpt>
      <trkpt lat="46.95206" lon="8.72612">
        <ele>1355</ele>
        <time>2021-08-06T10:39:12.857Z</time>
      </trkpt>
      <trkpt lat="46.95206" lon="8.72612">
        <ele>1355</ele>
        <time>2021-08-06T10:39:13.857Z</time>
      </trkpt>
      <trkpt lat="46.95204" lon="8.72612">
        <ele>1355</ele>
        <time>2021-08-06T10:39:14.856Z</time>
      </trkpt>
      <trkpt lat="46.95203" lon="8.72613">
        <ele>1356</ele>
        <time>2021-08-06T10:39:15.856Z</time>
      </trkpt>
      <trkpt lat="46.95202" lon="8.72614">
        <ele>1356</ele>
        <time>2021-08-06T10:39:16.856Z</time>
      </trkpt>
      <trkpt lat="46.95202" lon="8.72615">
        <ele>1356</ele>
        <time>2021-08-06T10:39:17.857Z</time>
      </trkpt>
      <trkpt lat="46.95201" lon="8.72616">
        <ele>1356</ele>
        <time>2021-08-06T10:39:18.856Z</time>
      </trkpt>
      <trkpt lat="46.952" lon="8.72618">
        <ele>1356</ele>
        <time>2021-08-06T10:39:19.857Z</time>
      </trkpt>
      <trkpt lat="46.95199" lon="8.72619">
        <ele>1356</ele>
        <time>2021-08-06T10:39:20.857Z</time>
      </trkpt>
      <trkpt lat="46.95199" lon="8.7262">
        <ele>1356</ele>
        <time>2021-08-06T10:39:21.857Z</time>
      </trkpt>
      <trkpt lat="46.95198" lon="8.72622">
        <ele>1356</ele>
        <time>2021-08-06T10:39:22.857Z</time>
      </trkpt>
      <trkpt lat="46.95198" lon="8.72624">
        <ele>1356</ele>
        <time>2021-08-06T10:39:23.857Z</time>
      </trkpt>
      <trkpt lat="46.95198" lon="8.72625">
        <ele>1357</ele>
        <time>2021-08-06T10:39:24.856Z</time>
      </trkpt>
      <trkpt lat="46.95198" lon="8.72627">
        <ele>1357</ele>
        <time>2021-08-06T10:39:25.857Z</time>
      </trkpt>
      <trkpt lat="46.95198" lon="8.72628">
        <ele>1356</ele>
        <time>2021-08-06T10:39:26.856Z</time>
      </trkpt>
      <trkpt lat="46.95198" lon="8.7263">
        <ele>1356</ele>
        <time>2021-08-06T10:39:27.857Z</time>
      </trkpt>
      <trkpt lat="46.95198" lon="8.72631">
        <ele>1355</ele>
        <time>2021-08-06T10:39:28.856Z</time>
      </trkpt>
      <trkpt lat="46.95198" lon="8.72633">
        <ele>1355</ele>
        <time>2021-08-06T10:39:29.856Z</time>
      </trkpt>
      <trkpt lat="46.95198" lon="8.72634">
        <ele>1355</ele>
        <time>2021-08-06T10:39:30.857Z</time>
      </trkpt>
      <trkpt lat="46.95199" lon="8.72636">
        <ele>1356</ele>
        <time>2021-08-06T10:39:31.857Z</time>
      </trkpt>
      <trkpt lat="46.95199" lon="8.72637">
        <ele>1357</ele>
        <time>2021-08-06T10:39:32.856Z</time>
      </trkpt>
      <trkpt lat="46.95199" lon="8.72638">
        <ele>1357</ele>
        <time>2021-08-06T10:39:33.856Z</time>
      </trkpt>
      <trkpt lat="46.952" lon="8.7264">
        <ele>1358</ele>
        <time>2021-08-06T10:39:34.856Z</time>
      </trkpt>
      <trkpt lat="46.952" lon="8.72641">
        <ele>1358</ele>
        <time>2021-08-06T10:39:35.856Z</time>
      </trkpt>
      <trkpt lat="46.95201" lon="8.72642">
        <ele>1358</ele>
        <time>2021-08-06T10:39:36.857Z</time>
      </trkpt>
      <trkpt lat="46.95201" lon="8.72644">
        <ele>1359</ele>
        <time>2021-08-06T10:39:37.857Z</time>
      </trkpt>
      <trkpt lat="46.95201" lon="8.72645">
        <ele>1359</ele>
        <time>2021-08-06T10:39:38.857Z</time>
      </trkpt>
      <trkpt lat="46.95202" lon="8.72646">
        <ele>1359</ele>
        <time>2021-08-06T10:39:39.857Z</time>
      </trkpt>
      <trkpt lat="46.95202" lon="8.72647">
        <ele>1359</ele>
        <time>2021-08-06T10:39:40.857Z</time>
      </trkpt>
      <trkpt lat="46.95203" lon="8.72648">
        <ele>1359</ele>
        <time>2021-08-06T10:39:41.856Z</time>
      </trkpt>
      <trkpt lat="46.95203" lon="8.72649">
        <ele>1358</ele>
        <time>2021-08-06T10:39:42.857Z</time>
      </trkpt>
      <trkpt lat="46.95204" lon="8.72651">
        <ele>1358</ele>
        <time>2021-08-06T10:39:43.856Z</time>
      </trkpt>
      <trkpt lat="46.95204" lon="8.72652">
        <ele>1358</ele>
        <time>2021-08-06T10:39:44.856Z</time>
      </trkpt>
      <trkpt lat="46.95204" lon="8.72653">
        <ele>1358</ele>
        <time>2021-08-06T10:39:45.857Z</time>
      </trkpt>
      <trkpt lat="46.95204" lon="8.72654">
        <ele>1358</ele>
        <time>2021-08-06T10:39:46.857Z</time>
      </trkpt>
      <trkpt lat="46.95205" lon="8.72655">
        <ele>1358</ele>
        <time>2021-08-06T10:39:47.857Z</time>
      </trkpt>
      <trkpt lat="46.95205" lon="8.72656">
        <ele>1358</ele>
        <time>2021-08-06T10:39:48.856Z</time>
      </trkpt>
      <trkpt lat="46.95205" lon="8.72657">
        <ele>1357</ele>
        <time>2021-08-06T10:39:49.857Z</time>
      </trkpt>
      <trkpt lat="46.95205" lon="8.72658">
        <ele>1357</ele>
        <time>2021-08-06T10:39:50.857Z</time>
      </trkpt>
      <trkpt lat="46.95205" lon="8.72659">
        <ele>1358</ele>
        <time>2021-08-06T10:39:51.857Z</time>
      </trkpt>
      <trkpt lat="46.95205" lon="8.7266">
        <ele>1358</ele>
        <time>2021-08-06T10:39:52.856Z</time>
      </trkpt>
      <trkpt lat="46.95205" lon="8.7266">
        <ele>1358</ele>
        <time>2021-08-06T10:39:53.857Z</time>
      </trkpt>
      <trkpt lat="46.95205" lon="8.72661">
        <ele>1358</ele>
        <time>2021-08-06T10:39:54.856Z</time>
      </trkpt>
      <trkpt lat="46.95205" lon="8.72662">
        <ele>1358</ele>
        <time>2021-08-06T10:39:55.857Z</time>
      </trkpt>
      <trkpt lat="46.95205" lon="8.72663">
        <ele>1359</ele>
        <time>2021-08-06T10:39:56.857Z</time>
      </trkpt>
      <trkpt lat="46.95205" lon="8.72664">
        <ele>1359</ele>
        <time>2021-08-06T10:39:57.857Z</time>
      </trkpt>
      <trkpt lat="46.95205" lon="8.72665">
        <ele>1360</ele>
        <time>2021-08-06T10:39:58.857Z</time>
      </trkpt>
      <trkpt lat="46.95206" lon="8.72666">
        <ele>1360</ele>
        <time>2021-08-06T10:39:59.857Z</time>
      </trkpt>
      <trkpt lat="46.95206" lon="8.72667">
        <ele>1361</ele>
        <time>2021-08-06T10:40:00.857Z</time>
      </trkpt>
      <trkpt lat="46.95206" lon="8.72667">
        <ele>1361</ele>
        <time>2021-08-06T10:40:01.857Z</time>
      </trkpt>
      <trkpt lat="46.95205" lon="8.72668">
        <ele>1362</ele>
        <time>2021-08-06T10:40:02.857Z</time>
      </trkpt>
      <trkpt lat="46.95205" lon="8.72669">
        <ele>1362</ele>
        <time>2021-08-06T10:40:03.856Z</time>
      </trkpt>
      <trkpt lat="46.95205" lon="8.7267">
        <ele>1362</ele>
        <time>2021-08-06T10:40:04.856Z</time>
      </trkpt>
      <trkpt lat="46.95205" lon="8.7267">
        <ele>1362</ele>
        <time>2021-08-06T10:40:05.857Z</time>
      </trkpt>
      <trkpt lat="46.95205" lon="8.72671">
        <ele>1362</ele>
        <time>2021-08-06T10:40:06.857Z</time>
      </trkpt>
      <trkpt lat="46.95205" lon="8.72672">
        <ele>1361</ele>
        <time>2021-08-06T10:40:07.856Z</time>
      </trkpt>
      <trkpt lat="46.95204" lon="8.72672">
        <ele>1362</ele>
        <time>2021-08-06T10:40:08.856Z</time>
      </trkpt>
      <trkpt lat="46.95204" lon="8.72673">
        <ele>1362</ele>
        <time>2021-08-06T10:40:09.857Z</time>
      </trkpt>
      <trkpt lat="46.95204" lon="8.72674">
        <ele>1362</ele>
        <time>2021-08-06T10:40:10.856Z</time>
      </trkpt>
      <trkpt lat="46.95204" lon="8.72675">
        <ele>1362</ele>
        <time>2021-08-06T10:40:11.857Z</time>
      </trkpt>
      <trkpt lat="46.95204" lon="8.72676">
        <ele>1362</ele>
        <time>2021-08-06T10:40:12.856Z</time>
      </trkpt>
      <trkpt lat="46.95204" lon="8.72677">
        <ele>1362</ele>
        <time>2021-08-06T10:40:13.857Z</time>
      </trkpt>
      <trkpt lat="46.95203" lon="8.72678">
        <ele>1362</ele>
        <time>2021-08-06T10:40:14.856Z</time>
      </trkpt>
      <trkpt lat="46.95203" lon="8.72679">
        <ele>1362</ele>
        <time>2021-08-06T10:40:15.857Z</time>
      </trkpt>
      <trkpt lat="46.95203" lon="8.7268">
        <ele>1362</ele>
        <time>2021-08-06T10:40:16.856Z</time>
      </trkpt>
      <trkpt lat="46.95202" lon="8.7268">
        <ele>1362</ele>
        <time>2021-08-06T10:40:17.857Z</time>
      </trkpt>
      <trkpt lat="46.95202" lon="8.72681">
        <ele>1362</ele>
        <time>2021-08-06T10:40:18.856Z</time>
      </trkpt>
      <trkpt lat="46.95202" lon="8.72682">
        <ele>1363</ele>
        <time>2021-08-06T10:40:19.857Z</time>
      </trkpt>
      <trkpt lat="46.95202" lon="8.72683">
        <ele>1362</ele>
        <time>2021-08-06T10:40:20.856Z</time>
      </trkpt>
      <trkpt lat="46.95202" lon="8.72684">
        <ele>1363</ele>
        <time>2021-08-06T10:40:21.856Z</time>
      </trkpt>
      <trkpt lat="46.95202" lon="8.72685">
        <ele>1363</ele>
        <time>2021-08-06T10:40:22.857Z</time>
      </trkpt>
      <trkpt lat="46.95202" lon="8.72685">
        <ele>1363</ele>
        <time>2021-08-06T10:40:23.857Z</time>
      </trkpt>
      <trkpt lat="46.95202" lon="8.72686">
        <ele>1363</ele>
        <time>2021-08-06T10:40:24.856Z</time>
      </trkpt>
      <trkpt lat="46.95202" lon="8.72687">
        <ele>1363</ele>
        <time>2021-08-06T10:40:25.857Z</time>
      </trkpt>
      <trkpt lat="46.95201" lon="8.72688">
        <ele>1362</ele>
        <time>2021-08-06T10:40:26.856Z</time>
      </trkpt>
      <trkpt lat="46.95201" lon="8.72689">
        <ele>1361</ele>
        <time>2021-08-06T10:40:27.857Z</time>
      </trkpt>
      <trkpt lat="46.95201" lon="8.7269">
        <ele>1361</ele>
        <time>2021-08-06T10:40:28.856Z</time>
      </trkpt>
      <trkpt lat="46.95201" lon="8.72691">
        <ele>1360</ele>
        <time>2021-08-06T10:40:29.857Z</time>
      </trkpt>
      <trkpt lat="46.952" lon="8.72692">
        <ele>1360</ele>
        <time>2021-08-06T10:40:30.856Z</time>
      </trkpt>
      <trkpt lat="46.952" lon="8.72693">
        <ele>1360</ele>
        <time>2021-08-06T10:40:31.856Z</time>
      </trkpt>
      <trkpt lat="46.952" lon="8.72694">
        <ele>1361</ele>
        <time>2021-08-06T10:40:32.856Z</time>
      </trkpt>
      <trkpt lat="46.952" lon="8.72694">
        <ele>1361</ele>
        <time>2021-08-06T10:40:33.856Z</time>
      </trkpt>
      <trkpt lat="46.952" lon="8.72695">
        <ele>1362</ele>
        <time>2021-08-06T10:40:34.857Z</time>
      </trkpt>
      <trkpt lat="46.952" lon="8.72696">
        <ele>1362</ele>
        <time>2021-08-06T10:40:35.856Z</time>
      </trkpt>
      <trkpt lat="46.952" lon="8.72696">
        <ele>1362</ele>
        <time>2021-08-06T10:40:36.857Z</time>
      </trkpt>
      <trkpt lat="46.952" lon="8.72698">
        <ele>1362</ele>
        <time>2021-08-06T10:40:37.856Z</time>
      </trkpt>
      <trkpt lat="46.952" lon="8.72698">
        <ele>1363</ele>
        <time>2021-08-06T10:40:38.857Z</time>
      </trkpt>
      <trkpt lat="46.952" lon="8.72699">
        <ele>1363</ele>
        <time>2021-08-06T10:40:39.856Z</time>
      </trkpt>
      <trkpt lat="46.952" lon="8.727">
        <ele>1363</ele>
        <time>2021-08-06T10:40:40.856Z</time>
      </trkpt>
      <trkpt lat="46.952" lon="8.72701">
        <ele>1364</ele>
        <time>2021-08-06T10:40:41.856Z</time>
      </trkpt>
      <trkpt lat="46.952" lon="8.72702">
        <ele>1364</ele>
        <time>2021-08-06T10:40:42.856Z</time>
      </trkpt>
      <trkpt lat="46.952" lon="8.72704">
        <ele>1364</ele>
        <time>2021-08-06T10:40:43.857Z</time>
      </trkpt>
      <trkpt lat="46.95199" lon="8.72704">
        <ele>1364</ele>
        <time>2021-08-06T10:40:44.856Z</time>
      </trkpt>
      <trkpt lat="46.95199" lon="8.72705">
        <ele>1365</ele>
        <time>2021-08-06T10:40:45.857Z</time>
      </trkpt>
      <trkpt lat="46.95199" lon="8.72707">
        <ele>1365</ele>
        <time>2021-08-06T10:40:46.856Z</time>
      </trkpt>
      <trkpt lat="46.95199" lon="8.72708">
        <ele>1365</ele>
        <time>2021-08-06T10:40:47.856Z</time>
      </trkpt>
      <trkpt lat="46.95199" lon="8.72709">
        <ele>1366</ele>
        <time>2021-08-06T10:40:48.857Z</time>
      </trkpt>
      <trkpt lat="46.95199" lon="8.7271">
        <ele>1366</ele>
        <time>2021-08-06T10:40:49.857Z</time>
      </trkpt>
      <trkpt lat="46.95199" lon="8.72711">
        <ele>1366</ele>
        <time>2021-08-06T10:40:50.856Z</time>
      </trkpt>
      <trkpt lat="46.95199" lon="8.72711">
        <ele>1366</ele>
        <time>2021-08-06T10:40:51.857Z</time>
      </trkpt>
      <trkpt lat="46.95199" lon="8.72712">
        <ele>1366</ele>
        <time>2021-08-06T10:40:52.856Z</time>
      </trkpt>
      <trkpt lat="46.95199" lon="8.72713">
        <ele>1366</ele>
        <time>2021-08-06T10:40:53.856Z</time>
      </trkpt>
      <trkpt lat="46.95199" lon="8.72714">
        <ele>1366</ele>
        <time>2021-08-06T10:40:54.856Z</time>
      </trkpt>
      <trkpt lat="46.95199" lon="8.72714">
        <ele>1367</ele>
        <time>2021-08-06T10:40:55.856Z</time>
      </trkpt>
      <trkpt lat="46.95199" lon="8.72715">
        <ele>1367</ele>
        <time>2021-08-06T10:40:56.857Z</time>
      </trkpt>
      <trkpt lat="46.95199" lon="8.72716">
        <ele>1367</ele>
        <time>2021-08-06T10:40:57.856Z</time>
      </trkpt>
      <trkpt lat="46.95199" lon="8.72717">
        <ele>1367</ele>
        <time>2021-08-06T10:40:58.856Z</time>
      </trkpt>
      <trkpt lat="46.95199" lon="8.72718">
        <ele>1367</ele>
        <time>2021-08-06T10:40:59.856Z</time>
      </trkpt>
      <trkpt lat="46.95199" lon="8.72719">
        <ele>1368</ele>
        <time>2021-08-06T10:41:00.856Z</time>
      </trkpt>
      <trkpt lat="46.95199" lon="8.72719">
        <ele>1369</ele>
        <time>2021-08-06T10:41:01.856Z</time>
      </trkpt>
      <trkpt lat="46.95198" lon="8.72721">
        <ele>1369</ele>
        <time>2021-08-06T10:41:02.856Z</time>
      </trkpt>
      <trkpt lat="46.95198" lon="8.72722">
        <ele>1370</ele>
        <time>2021-08-06T10:41:03.857Z</time>
      </trkpt>
      <trkpt lat="46.95198" lon="8.72723">
        <ele>1370</ele>
        <time>2021-08-06T10:41:04.856Z</time>
      </trkpt>
      <trkpt lat="46.95198" lon="8.72724">
        <ele>1370</ele>
        <time>2021-08-06T10:41:05.856Z</time>
      </trkpt>
      <trkpt lat="46.95198" lon="8.72725">
        <ele>1370</ele>
        <time>2021-08-06T10:41:06.856Z</time>
      </trkpt>
      <trkpt lat="46.95198" lon="8.72725">
        <ele>1370</ele>
        <time>2021-08-06T10:41:07.856Z</time>
      </trkpt>
      <trkpt lat="46.95198" lon="8.72726">
        <ele>1370</ele>
        <time>2021-08-06T10:41:08.856Z</time>
      </trkpt>
      <trkpt lat="46.95197" lon="8.72728">
        <ele>1370</ele>
        <time>2021-08-06T10:41:09.856Z</time>
      </trkpt>
      <trkpt lat="46.95197" lon="8.72728">
        <ele>1370</ele>
        <time>2021-08-06T10:41:10.856Z</time>
      </trkpt>
      <trkpt lat="46.95197" lon="8.7273">
        <ele>1371</ele>
        <time>2021-08-06T10:41:11.857Z</time>
      </trkpt>
      <trkpt lat="46.95196" lon="8.72731">
        <ele>1371</ele>
        <time>2021-08-06T10:41:12.857Z</time>
      </trkpt>
      <trkpt lat="46.95196" lon="8.72732">
        <ele>1371</ele>
        <time>2021-08-06T10:41:13.857Z</time>
      </trkpt>
      <trkpt lat="46.95195" lon="8.72733">
        <ele>1371</ele>
        <time>2021-08-06T10:41:14.857Z</time>
      </trkpt>
      <trkpt lat="46.95195" lon="8.72734">
        <ele>1371</ele>
        <time>2021-08-06T10:41:15.856Z</time>
      </trkpt>
      <trkpt lat="46.95195" lon="8.72735">
        <ele>1371</ele>
        <time>2021-08-06T10:41:16.857Z</time>
      </trkpt>
      <trkpt lat="46.95195" lon="8.72735">
        <ele>1372</ele>
        <time>2021-08-06T10:41:17.857Z</time>
      </trkpt>
      <trkpt lat="46.95195" lon="8.72736">
        <ele>1372</ele>
        <time>2021-08-06T10:41:18.857Z</time>
      </trkpt>
      <trkpt lat="46.95195" lon="8.72737">
        <ele>1372</ele>
        <time>2021-08-06T10:41:19.856Z</time>
      </trkpt>
      <trkpt lat="46.95196" lon="8.72738">
        <ele>1372</ele>
        <time>2021-08-06T10:41:20.857Z</time>
      </trkpt>
      <trkpt lat="46.95196" lon="8.72739">
        <ele>1372</ele>
        <time>2021-08-06T10:41:21.857Z</time>
      </trkpt>
      <trkpt lat="46.95195" lon="8.7274">
        <ele>1372</ele>
        <time>2021-08-06T10:41:22.857Z</time>
      </trkpt>
      <trkpt lat="46.95195" lon="8.72741">
        <ele>1372</ele>
        <time>2021-08-06T10:41:23.857Z</time>
      </trkpt>
      <trkpt lat="46.95195" lon="8.72742">
        <ele>1373</ele>
        <time>2021-08-06T10:41:24.856Z</time>
      </trkpt>
      <trkpt lat="46.95195" lon="8.72743">
        <ele>1373</ele>
        <time>2021-08-06T10:41:25.857Z</time>
      </trkpt>
      <trkpt lat="46.95195" lon="8.72744">
        <ele>1373</ele>
        <time>2021-08-06T10:41:26.857Z</time>
      </trkpt>
      <trkpt lat="46.95194" lon="8.72745">
        <ele>1373</ele>
        <time>2021-08-06T10:41:27.857Z</time>
      </trkpt>
      <trkpt lat="46.95194" lon="8.72746">
        <ele>1373</ele>
        <time>2021-08-06T10:41:28.857Z</time>
      </trkpt>
      <trkpt lat="46.95194" lon="8.72747">
        <ele>1373</ele>
        <time>2021-08-06T10:41:29.856Z</time>
      </trkpt>
      <trkpt lat="46.95194" lon="8.72749">
        <ele>1373</ele>
        <time>2021-08-06T10:41:30.857Z</time>
      </trkpt>
      <trkpt lat="46.95194" lon="8.72749">
        <ele>1373</ele>
        <time>2021-08-06T10:41:31.857Z</time>
      </trkpt>
      <trkpt lat="46.95194" lon="8.7275">
        <ele>1373</ele>
        <time>2021-08-06T10:41:32.857Z</time>
      </trkpt>
      <trkpt lat="46.95193" lon="8.72751">
        <ele>1373</ele>
        <time>2021-08-06T10:41:33.857Z</time>
      </trkpt>
      <trkpt lat="46.95194" lon="8.72752">
        <ele>1373</ele>
        <time>2021-08-06T10:41:34.857Z</time>
      </trkpt>
      <trkpt lat="46.95194" lon="8.72753">
        <ele>1373</ele>
        <time>2021-08-06T10:41:35.856Z</time>
      </trkpt>
      <trkpt lat="46.95194" lon="8.72754">
        <ele>1373</ele>
        <time>2021-08-06T10:41:36.857Z</time>
      </trkpt>
      <trkpt lat="46.95194" lon="8.72755">
        <ele>1373</ele>
        <time>2021-08-06T10:41:37.857Z</time>
      </trkpt>
      <trkpt lat="46.95194" lon="8.72757">
        <ele>1373</ele>
        <time>2021-08-06T10:41:38.856Z</time>
      </trkpt>
      <trkpt lat="46.95194" lon="8.72758">
        <ele>1373</ele>
        <time>2021-08-06T10:41:39.856Z</time>
      </trkpt>
      <trkpt lat="46.95194" lon="8.72759">
        <ele>1373</ele>
        <time>2021-08-06T10:41:40.857Z</time>
      </trkpt>
      <trkpt lat="46.95193" lon="8.72761">
        <ele>1374</ele>
        <time>2021-08-06T10:41:41.856Z</time>
      </trkpt>
      <trkpt lat="46.95193" lon="8.72762">
        <ele>1374</ele>
        <time>2021-08-06T10:41:42.856Z</time>
      </trkpt>
      <trkpt lat="46.95193" lon="8.72763">
        <ele>1375</ele>
        <time>2021-08-06T10:41:43.857Z</time>
      </trkpt>
      <trkpt lat="46.95193" lon="8.72764">
        <ele>1375</ele>
        <time>2021-08-06T10:41:44.857Z</time>
      </trkpt>
      <trkpt lat="46.95193" lon="8.72765">
        <ele>1375</ele>
        <time>2021-08-06T10:41:45.856Z</time>
      </trkpt>
      <trkpt lat="46.95193" lon="8.72766">
        <ele>1375</ele>
        <time>2021-08-06T10:41:46.856Z</time>
      </trkpt>
      <trkpt lat="46.95193" lon="8.72767">
        <ele>1375</ele>
        <time>2021-08-06T10:41:47.857Z</time>
      </trkpt>
      <trkpt lat="46.95193" lon="8.72768">
        <ele>1375</ele>
        <time>2021-08-06T10:41:48.857Z</time>
      </trkpt>
      <trkpt lat="46.95193" lon="8.72769">
        <ele>1374</ele>
        <time>2021-08-06T10:41:49.857Z</time>
      </trkpt>
      <trkpt lat="46.95194" lon="8.72769">
        <ele>1373</ele>
        <time>2021-08-06T10:41:50.857Z</time>
      </trkpt>
      <trkpt lat="46.95194" lon="8.7277">
        <ele>1373</ele>
        <time>2021-08-06T10:41:51.857Z</time>
      </trkpt>
      <trkpt lat="46.95194" lon="8.72771">
        <ele>1374</ele>
        <time>2021-08-06T10:41:52.856Z</time>
      </trkpt>
      <trkpt lat="46.95194" lon="8.72772">
        <ele>1374</ele>
        <time>2021-08-06T10:41:53.857Z</time>
      </trkpt>
      <trkpt lat="46.95194" lon="8.72773">
        <ele>1375</ele>
        <time>2021-08-06T10:41:54.857Z</time>
      </trkpt>
      <trkpt lat="46.95194" lon="8.72774">
        <ele>1375</ele>
        <time>2021-08-06T10:41:55.856Z</time>
      </trkpt>
      <trkpt lat="46.95195" lon="8.72775">
        <ele>1375</ele>
        <time>2021-08-06T10:41:56.857Z</time>
      </trkpt>
      <trkpt lat="46.95195" lon="8.72777">
        <ele>1375</ele>
        <time>2021-08-06T10:41:57.857Z</time>
      </trkpt>
      <trkpt lat="46.95195" lon="8.72778">
        <ele>1375</ele>
        <time>2021-08-06T10:41:58.857Z</time>
      </trkpt>
      <trkpt lat="46.95195" lon="8.72779">
        <ele>1375</ele>
        <time>2021-08-06T10:41:59.857Z</time>
      </trkpt>
      <trkpt lat="46.95196" lon="8.7278">
        <ele>1376</ele>
        <time>2021-08-06T10:42:00.857Z</time>
      </trkpt>
      <trkpt lat="46.95196" lon="8.72781">
        <ele>1376</ele>
        <time>2021-08-06T10:42:01.857Z</time>
      </trkpt>
      <trkpt lat="46.95196" lon="8.72782">
        <ele>1376</ele>
        <time>2021-08-06T10:42:02.857Z</time>
      </trkpt>
      <trkpt lat="46.95196" lon="8.72783">
        <ele>1376</ele>
        <time>2021-08-06T10:42:03.857Z</time>
      </trkpt>
      <trkpt lat="46.95197" lon="8.72784">
        <ele>1376</ele>
        <time>2021-08-06T10:42:04.856Z</time>
      </trkpt>
      <trkpt lat="46.95197" lon="8.72785">
        <ele>1376</ele>
        <time>2021-08-06T10:42:05.857Z</time>
      </trkpt>
      <trkpt lat="46.95197" lon="8.72786">
        <ele>1375</ele>
        <time>2021-08-06T10:42:06.857Z</time>
      </trkpt>
      <trkpt lat="46.95197" lon="8.72787">
        <ele>1375</ele>
        <time>2021-08-06T10:42:07.857Z</time>
      </trkpt>
      <trkpt lat="46.95197" lon="8.72788">
        <ele>1375</ele>
        <time>2021-08-06T10:42:08.856Z</time>
      </trkpt>
      <trkpt lat="46.95197" lon="8.72787">
        <ele>1375</ele>
        <time>2021-08-06T10:42:09.857Z</time>
      </trkpt>
      <trkpt lat="46.95197" lon="8.72787">
        <ele>1375</ele>
        <time>2021-08-06T10:42:10.856Z</time>
      </trkpt>
      <trkpt lat="46.95197" lon="8.72785">
        <ele>1375</ele>
        <time>2021-08-06T10:42:11.857Z</time>
      </trkpt>
      <trkpt lat="46.95197" lon="8.72786">
        <ele>1375</ele>
        <time>2021-08-06T10:42:12.858Z</time>
      </trkpt>
      <trkpt lat="46.95197" lon="8.72787">
        <ele>1375</ele>
        <time>2021-08-06T10:42:13.857Z</time>
      </trkpt>
      <trkpt lat="46.95196" lon="8.72791">
        <ele>1377</ele>
        <time>2021-08-06T10:42:14.858Z</time>
      </trkpt>
      <trkpt lat="46.95195" lon="8.72791">
        <ele>1377</ele>
        <time>2021-08-06T10:42:15.858Z</time>
      </trkpt>
      <trkpt lat="46.95195" lon="8.72791">
        <ele>1377</ele>
        <time>2021-08-06T10:42:16.857Z</time>
      </trkpt>
      <trkpt lat="46.95194" lon="8.72791">
        <ele>1378</ele>
        <time>2021-08-06T10:42:17.857Z</time>
      </trkpt>
      <trkpt lat="46.95193" lon="8.72791">
        <ele>1378</ele>
        <time>2021-08-06T10:42:18.858Z</time>
      </trkpt>
      <trkpt lat="46.95192" lon="8.72791">
        <ele>1378</ele>
        <time>2021-08-06T10:42:19.858Z</time>
      </trkpt>
      <trkpt lat="46.95192" lon="8.72791">
        <ele>1377</ele>
        <time>2021-08-06T10:42:20.857Z</time>
      </trkpt>
      <trkpt lat="46.95191" lon="8.72791">
        <ele>1377</ele>
        <time>2021-08-06T10:42:21.857Z</time>
      </trkpt>
      <trkpt lat="46.9519" lon="8.72791">
        <ele>1377</ele>
        <time>2021-08-06T10:42:22.858Z</time>
      </trkpt>
      <trkpt lat="46.9519" lon="8.72791">
        <ele>1377</ele>
        <time>2021-08-06T10:42:23.858Z</time>
      </trkpt>
      <trkpt lat="46.95189" lon="8.72789">
        <ele>1377</ele>
        <time>2021-08-06T10:42:24.858Z</time>
      </trkpt>
      <trkpt lat="46.95188" lon="8.72789">
        <ele>1377</ele>
        <time>2021-08-06T10:42:25.858Z</time>
      </trkpt>
      <trkpt lat="46.95188" lon="8.72788">
        <ele>1377</ele>
        <time>2021-08-06T10:42:26.857Z</time>
      </trkpt>
      <trkpt lat="46.95187" lon="8.72787">
        <ele>1377</ele>
        <time>2021-08-06T10:42:27.857Z</time>
      </trkpt>
      <trkpt lat="46.95186" lon="8.72787">
        <ele>1377</ele>
        <time>2021-08-06T10:42:28.858Z</time>
      </trkpt>
      <trkpt lat="46.95186" lon="8.72786">
        <ele>1378</ele>
        <time>2021-08-06T10:42:29.858Z</time>
      </trkpt>
      <trkpt lat="46.95186" lon="8.72785">
        <ele>1378</ele>
        <time>2021-08-06T10:42:30.858Z</time>
      </trkpt>
      <trkpt lat="46.95185" lon="8.72785">
        <ele>1378</ele>
        <time>2021-08-06T10:42:31.858Z</time>
      </trkpt>
      <trkpt lat="46.95185" lon="8.72784">
        <ele>1378</ele>
        <time>2021-08-06T10:42:32.857Z</time>
      </trkpt>
      <trkpt lat="46.95185" lon="8.72783">
        <ele>1378</ele>
        <time>2021-08-06T10:42:33.858Z</time>
      </trkpt>
      <trkpt lat="46.95184" lon="8.72782">
        <ele>1378</ele>
        <time>2021-08-06T10:42:34.858Z</time>
      </trkpt>
      <trkpt lat="46.95183" lon="8.72782">
        <ele>1378</ele>
        <time>2021-08-06T10:42:35.858Z</time>
      </trkpt>
      <trkpt lat="46.95183" lon="8.72781">
        <ele>1378</ele>
        <time>2021-08-06T10:42:36.858Z</time>
      </trkpt>
      <trkpt lat="46.95182" lon="8.72781">
        <ele>1378</ele>
        <time>2021-08-06T10:42:37.857Z</time>
      </trkpt>
      <trkpt lat="46.95182" lon="8.7278">
        <ele>1379</ele>
        <time>2021-08-06T10:42:38.857Z</time>
      </trkpt>
      <trkpt lat="46.95182" lon="8.72779">
        <ele>1379</ele>
        <time>2021-08-06T10:42:39.858Z</time>
      </trkpt>
      <trkpt lat="46.95181" lon="8.72778">
        <ele>1379</ele>
        <time>2021-08-06T10:42:40.858Z</time>
      </trkpt>
      <trkpt lat="46.95181" lon="8.72778">
        <ele>1379</ele>
        <time>2021-08-06T10:42:41.858Z</time>
      </trkpt>
      <trkpt lat="46.9518" lon="8.72777">
        <ele>1379</ele>
        <time>2021-08-06T10:42:42.858Z</time>
      </trkpt>
      <trkpt lat="46.9518" lon="8.72776">
        <ele>1380</ele>
        <time>2021-08-06T10:42:43.858Z</time>
      </trkpt>
      <trkpt lat="46.95179" lon="8.72776">
        <ele>1380</ele>
        <time>2021-08-06T10:42:44.858Z</time>
      </trkpt>
      <trkpt lat="46.95179" lon="8.72774">
        <ele>1381</ele>
        <time>2021-08-06T10:42:45.858Z</time>
      </trkpt>
      <trkpt lat="46.95179" lon="8.72774">
        <ele>1381</ele>
        <time>2021-08-06T10:42:46.858Z</time>
      </trkpt>
      <trkpt lat="46.95178" lon="8.72773">
        <ele>1381</ele>
        <time>2021-08-06T10:42:47.858Z</time>
      </trkpt>
      <trkpt lat="46.95177" lon="8.72772">
        <ele>1382</ele>
        <time>2021-08-06T10:42:48.858Z</time>
      </trkpt>
      <trkpt lat="46.95177" lon="8.7277">
        <ele>1382</ele>
        <time>2021-08-06T10:42:49.858Z</time>
      </trkpt>
      <trkpt lat="46.95176" lon="8.72769">
        <ele>1382</ele>
        <time>2021-08-06T10:42:50.858Z</time>
      </trkpt>
      <trkpt lat="46.95176" lon="8.72766">
        <ele>1383</ele>
        <time>2021-08-06T10:42:51.857Z</time>
      </trkpt>
      <trkpt lat="46.95177" lon="8.72765">
        <ele>1383</ele>
        <time>2021-08-06T10:42:52.857Z</time>
      </trkpt>
      <trkpt lat="46.95177" lon="8.72765">
        <ele>1384</ele>
        <time>2021-08-06T10:42:53.858Z</time>
      </trkpt>
      <trkpt lat="46.95177" lon="8.72764">
        <ele>1384</ele>
        <time>2021-08-06T10:42:54.857Z</time>
      </trkpt>
      <trkpt lat="46.95177" lon="8.72763">
        <ele>1385</ele>
        <time>2021-08-06T10:42:55.858Z</time>
      </trkpt>
      <trkpt lat="46.95177" lon="8.72761">
        <ele>1386</ele>
        <time>2021-08-06T10:42:56.857Z</time>
      </trkpt>
      <trkpt lat="46.95177" lon="8.7276">
        <ele>1386</ele>
        <time>2021-08-06T10:42:57.858Z</time>
      </trkpt>
      <trkpt lat="46.95177" lon="8.72759">
        <ele>1386</ele>
        <time>2021-08-06T10:42:58.857Z</time>
      </trkpt>
      <trkpt lat="46.95176" lon="8.72758">
        <ele>1387</ele>
        <time>2021-08-06T10:42:59.857Z</time>
      </trkpt>
      <trkpt lat="46.95176" lon="8.72757">
        <ele>1387</ele>
        <time>2021-08-06T10:43:00.857Z</time>
      </trkpt>
      <trkpt lat="46.95175" lon="8.72756">
        <ele>1387</ele>
        <time>2021-08-06T10:43:01.858Z</time>
      </trkpt>
      <trkpt lat="46.95175" lon="8.72755">
        <ele>1388</ele>
        <time>2021-08-06T10:43:02.857Z</time>
      </trkpt>
      <trkpt lat="46.95175" lon="8.72753">
        <ele>1388</ele>
        <time>2021-08-06T10:43:03.858Z</time>
      </trkpt>
      <trkpt lat="46.95174" lon="8.72752">
        <ele>1388</ele>
        <time>2021-08-06T10:43:04.858Z</time>
      </trkpt>
      <trkpt lat="46.95173" lon="8.72751">
        <ele>1388</ele>
        <time>2021-08-06T10:43:05.858Z</time>
      </trkpt>
      <trkpt lat="46.95173" lon="8.7275">
        <ele>1388</ele>
        <time>2021-08-06T10:43:06.858Z</time>
      </trkpt>
      <trkpt lat="46.95173" lon="8.72749">
        <ele>1387</ele>
        <time>2021-08-06T10:43:07.857Z</time>
      </trkpt>
      <trkpt lat="46.95172" lon="8.72748">
        <ele>1387</ele>
        <time>2021-08-06T10:43:08.858Z</time>
      </trkpt>
      <trkpt lat="46.95172" lon="8.72747">
        <ele>1386</ele>
        <time>2021-08-06T10:43:09.858Z</time>
      </trkpt>
      <trkpt lat="46.95172" lon="8.72746">
        <ele>1386</ele>
        <time>2021-08-06T10:43:10.857Z</time>
      </trkpt>
      <trkpt lat="46.95173" lon="8.72745">
        <ele>1386</ele>
        <time>2021-08-06T10:43:11.858Z</time>
      </trkpt>
      <trkpt lat="46.95173" lon="8.72745">
        <ele>1386</ele>
        <time>2021-08-06T10:43:12.858Z</time>
      </trkpt>
      <trkpt lat="46.95173" lon="8.72744">
        <ele>1386</ele>
        <time>2021-08-06T10:43:13.858Z</time>
      </trkpt>
      <trkpt lat="46.95172" lon="8.72742">
        <ele>1386</ele>
        <time>2021-08-06T10:43:14.858Z</time>
      </trkpt>
      <trkpt lat="46.95172" lon="8.72741">
        <ele>1385</ele>
        <time>2021-08-06T10:43:15.858Z</time>
      </trkpt>
      <trkpt lat="46.95172" lon="8.7274">
        <ele>1385</ele>
        <time>2021-08-06T10:43:16.858Z</time>
      </trkpt>
      <trkpt lat="46.95171" lon="8.72739">
        <ele>1385</ele>
        <time>2021-08-06T10:43:17.858Z</time>
      </trkpt>
      <trkpt lat="46.95171" lon="8.72738">
        <ele>1386</ele>
        <time>2021-08-06T10:43:18.857Z</time>
      </trkpt>
      <trkpt lat="46.9517" lon="8.72737">
        <ele>1386</ele>
        <time>2021-08-06T10:43:19.858Z</time>
      </trkpt>
      <trkpt lat="46.9517" lon="8.72736">
        <ele>1386</ele>
        <time>2021-08-06T10:43:20.857Z</time>
      </trkpt>
      <trkpt lat="46.95169" lon="8.72735">
        <ele>1386</ele>
        <time>2021-08-06T10:43:21.857Z</time>
      </trkpt>
      <trkpt lat="46.95169" lon="8.72734">
        <ele>1387</ele>
        <time>2021-08-06T10:43:22.858Z</time>
      </trkpt>
      <trkpt lat="46.95169" lon="8.72733">
        <ele>1387</ele>
        <time>2021-08-06T10:43:23.858Z</time>
      </trkpt>
      <trkpt lat="46.95168" lon="8.72732">
        <ele>1387</ele>
        <time>2021-08-06T10:43:24.858Z</time>
      </trkpt>
      <trkpt lat="46.95167" lon="8.72732">
        <ele>1388</ele>
        <time>2021-08-06T10:43:25.858Z</time>
      </trkpt>
      <trkpt lat="46.95167" lon="8.72731">
        <ele>1388</ele>
        <time>2021-08-06T10:43:26.858Z</time>
      </trkpt>
      <trkpt lat="46.95166" lon="8.7273">
        <ele>1389</ele>
        <time>2021-08-06T10:43:27.857Z</time>
      </trkpt>
      <trkpt lat="46.95166" lon="8.72729">
        <ele>1389</ele>
        <time>2021-08-06T10:43:28.858Z</time>
      </trkpt>
      <trkpt lat="46.95165" lon="8.72728">
        <ele>1389</ele>
        <time>2021-08-06T10:43:29.857Z</time>
      </trkpt>
      <trkpt lat="46.95164" lon="8.72727">
        <ele>1389</ele>
        <time>2021-08-06T10:43:30.858Z</time>
      </trkpt>
      <trkpt lat="46.95164" lon="8.72725">
        <ele>1389</ele>
        <time>2021-08-06T10:43:31.857Z</time>
      </trkpt>
      <trkpt lat="46.95164" lon="8.72724">
        <ele>1389</ele>
        <time>2021-08-06T10:43:32.857Z</time>
      </trkpt>
      <trkpt lat="46.95163" lon="8.72722">
        <ele>1389</ele>
        <time>2021-08-06T10:43:33.858Z</time>
      </trkpt>
      <trkpt lat="46.95163" lon="8.72721">
        <ele>1389</ele>
        <time>2021-08-06T10:43:34.858Z</time>
      </trkpt>
      <trkpt lat="46.95163" lon="8.72719">
        <ele>1389</ele>
        <time>2021-08-06T10:43:35.858Z</time>
      </trkpt>
      <trkpt lat="46.95163" lon="8.72719">
        <ele>1388</ele>
        <time>2021-08-06T10:43:36.857Z</time>
      </trkpt>
      <trkpt lat="46.95162" lon="8.72718">
        <ele>1388</ele>
        <time>2021-08-06T10:43:37.858Z</time>
      </trkpt>
      <trkpt lat="46.95162" lon="8.72716">
        <ele>1387</ele>
        <time>2021-08-06T10:43:38.858Z</time>
      </trkpt>
      <trkpt lat="46.95162" lon="8.72716">
        <ele>1387</ele>
        <time>2021-08-06T10:43:39.857Z</time>
      </trkpt>
      <trkpt lat="46.95161" lon="8.72715">
        <ele>1387</ele>
        <time>2021-08-06T10:43:40.858Z</time>
      </trkpt>
      <trkpt lat="46.95161" lon="8.72715">
        <ele>1387</ele>
        <time>2021-08-06T10:43:41.858Z</time>
      </trkpt>
      <trkpt lat="46.9516" lon="8.72714">
        <ele>1388</ele>
        <time>2021-08-06T10:43:42.858Z</time>
      </trkpt>
      <trkpt lat="46.9516" lon="8.72713">
        <ele>1388</ele>
        <time>2021-08-06T10:43:43.857Z</time>
      </trkpt>
      <trkpt lat="46.95159" lon="8.72712">
        <ele>1389</ele>
        <time>2021-08-06T10:43:44.858Z</time>
      </trkpt>
      <trkpt lat="46.95159" lon="8.72712">
        <ele>1389</ele>
        <time>2021-08-06T10:43:45.858Z</time>
      </trkpt>
      <trkpt lat="46.95158" lon="8.72711">
        <ele>1389</ele>
        <time>2021-08-06T10:43:46.858Z</time>
      </trkpt>
      <trkpt lat="46.95158" lon="8.7271">
        <ele>1389</ele>
        <time>2021-08-06T10:43:47.858Z</time>
      </trkpt>
      <trkpt lat="46.95158" lon="8.7271">
        <ele>1389</ele>
        <time>2021-08-06T10:43:48.858Z</time>
      </trkpt>
      <trkpt lat="46.95157" lon="8.72709">
        <ele>1389</ele>
        <time>2021-08-06T10:43:49.858Z</time>
      </trkpt>
      <trkpt lat="46.95157" lon="8.72708">
        <ele>1390</ele>
        <time>2021-08-06T10:43:50.858Z</time>
      </trkpt>
      <trkpt lat="46.95157" lon="8.72707">
        <ele>1390</ele>
        <time>2021-08-06T10:43:51.858Z</time>
      </trkpt>
      <trkpt lat="46.95156" lon="8.72707">
        <ele>1391</ele>
        <time>2021-08-06T10:43:52.858Z</time>
      </trkpt>
      <trkpt lat="46.95156" lon="8.72706">
        <ele>1391</ele>
        <time>2021-08-06T10:43:53.858Z</time>
      </trkpt>
      <trkpt lat="46.95155" lon="8.72705">
        <ele>1392</ele>
        <time>2021-08-06T10:43:54.857Z</time>
      </trkpt>
      <trkpt lat="46.95155" lon="8.72704">
        <ele>1392</ele>
        <time>2021-08-06T10:43:55.857Z</time>
      </trkpt>
      <trkpt lat="46.95155" lon="8.72703">
        <ele>1392</ele>
        <time>2021-08-06T10:43:56.857Z</time>
      </trkpt>
      <trkpt lat="46.95154" lon="8.72702">
        <ele>1391</ele>
        <time>2021-08-06T10:43:57.858Z</time>
      </trkpt>
      <trkpt lat="46.95154" lon="8.72702">
        <ele>1390</ele>
        <time>2021-08-06T10:43:58.857Z</time>
      </trkpt>
      <trkpt lat="46.95153" lon="8.72701">
        <ele>1390</ele>
        <time>2021-08-06T10:43:59.858Z</time>
      </trkpt>
      <trkpt lat="46.95153" lon="8.727">
        <ele>1389</ele>
        <time>2021-08-06T10:44:00.858Z</time>
      </trkpt>
      <trkpt lat="46.95152" lon="8.72699">
        <ele>1389</ele>
        <time>2021-08-06T10:44:01.858Z</time>
      </trkpt>
      <trkpt lat="46.95151" lon="8.72698">
        <ele>1389</ele>
        <time>2021-08-06T10:44:02.858Z</time>
      </trkpt>
      <trkpt lat="46.95151" lon="8.72697">
        <ele>1389</ele>
        <time>2021-08-06T10:44:03.857Z</time>
      </trkpt>
      <trkpt lat="46.9515" lon="8.72696">
        <ele>1389</ele>
        <time>2021-08-06T10:44:04.857Z</time>
      </trkpt>
      <trkpt lat="46.9515" lon="8.72695">
        <ele>1389</ele>
        <time>2021-08-06T10:44:05.858Z</time>
      </trkpt>
      <trkpt lat="46.95149" lon="8.72694">
        <ele>1389</ele>
        <time>2021-08-06T10:44:06.858Z</time>
      </trkpt>
      <trkpt lat="46.95149" lon="8.72694">
        <ele>1390</ele>
        <time>2021-08-06T10:44:07.858Z</time>
      </trkpt>
      <trkpt lat="46.95149" lon="8.72693">
        <ele>1390</ele>
        <time>2021-08-06T10:44:08.858Z</time>
      </trkpt>
      <trkpt lat="46.95149" lon="8.72693">
        <ele>1390</ele>
        <time>2021-08-06T10:44:09.858Z</time>
      </trkpt>
      <trkpt lat="46.95148" lon="8.72692">
        <ele>1390</ele>
        <time>2021-08-06T10:44:10.858Z</time>
      </trkpt>
      <trkpt lat="46.95148" lon="8.72691">
        <ele>1390</ele>
        <time>2021-08-06T10:44:11.858Z</time>
      </trkpt>
      <trkpt lat="46.95147" lon="8.72691">
        <ele>1390</ele>
        <time>2021-08-06T10:44:12.857Z</time>
      </trkpt>
      <trkpt lat="46.95147" lon="8.7269">
        <ele>1390</ele>
        <time>2021-08-06T10:44:13.858Z</time>
      </trkpt>
      <trkpt lat="46.95146" lon="8.7269">
        <ele>1390</ele>
        <time>2021-08-06T10:44:14.858Z</time>
      </trkpt>
      <trkpt lat="46.95145" lon="8.72689">
        <ele>1390</ele>
        <time>2021-08-06T10:44:15.858Z</time>
      </trkpt>
      <trkpt lat="46.95145" lon="8.72688">
        <ele>1391</ele>
        <time>2021-08-06T10:44:16.858Z</time>
      </trkpt>
      <trkpt lat="46.95144" lon="8.72687">
        <ele>1392</ele>
        <time>2021-08-06T10:44:17.858Z</time>
      </trkpt>
      <trkpt lat="46.95144" lon="8.72686">
        <ele>1393</ele>
        <time>2021-08-06T10:44:18.857Z</time>
      </trkpt>
      <trkpt lat="46.95143" lon="8.72685">
        <ele>1394</ele>
        <time>2021-08-06T10:44:19.857Z</time>
      </trkpt>
      <trkpt lat="46.95143" lon="8.72685">
        <ele>1394</ele>
        <time>2021-08-06T10:44:20.857Z</time>
      </trkpt>
      <trkpt lat="46.95142" lon="8.72684">
        <ele>1394</ele>
        <time>2021-08-06T10:44:21.858Z</time>
      </trkpt>
      <trkpt lat="46.95142" lon="8.72684">
        <ele>1395</ele>
        <time>2021-08-06T10:44:22.858Z</time>
      </trkpt>
      <trkpt lat="46.95141" lon="8.72684">
        <ele>1395</ele>
        <time>2021-08-06T10:44:23.858Z</time>
      </trkpt>
      <trkpt lat="46.95141" lon="8.72683">
        <ele>1396</ele>
        <time>2021-08-06T10:44:24.857Z</time>
      </trkpt>
      <trkpt lat="46.9514" lon="8.72682">
        <ele>1396</ele>
        <time>2021-08-06T10:44:25.858Z</time>
      </trkpt>
      <trkpt lat="46.95139" lon="8.72681">
        <ele>1397</ele>
        <time>2021-08-06T10:44:26.858Z</time>
      </trkpt>
      <trkpt lat="46.95139" lon="8.72681">
        <ele>1398</ele>
        <time>2021-08-06T10:44:27.857Z</time>
      </trkpt>
      <trkpt lat="46.95138" lon="8.7268">
        <ele>1398</ele>
        <time>2021-08-06T10:44:28.858Z</time>
      </trkpt>
      <trkpt lat="46.95138" lon="8.7268">
        <ele>1399</ele>
        <time>2021-08-06T10:44:29.857Z</time>
      </trkpt>
      <trkpt lat="46.95138" lon="8.72679">
        <ele>1399</ele>
        <time>2021-08-06T10:44:30.858Z</time>
      </trkpt>
      <trkpt lat="46.95137" lon="8.72679">
        <ele>1400</ele>
        <time>2021-08-06T10:44:31.857Z</time>
      </trkpt>
      <trkpt lat="46.95137" lon="8.72678">
        <ele>1401</ele>
        <time>2021-08-06T10:44:32.857Z</time>
      </trkpt>
      <trkpt lat="46.95137" lon="8.72677">
        <ele>1402</ele>
        <time>2021-08-06T10:44:33.858Z</time>
      </trkpt>
      <trkpt lat="46.95136" lon="8.72676">
        <ele>1402</ele>
        <time>2021-08-06T10:44:34.858Z</time>
      </trkpt>
      <trkpt lat="46.95136" lon="8.72676">
        <ele>1403</ele>
        <time>2021-08-06T10:44:35.857Z</time>
      </trkpt>
      <trkpt lat="46.95135" lon="8.72676">
        <ele>1403</ele>
        <time>2021-08-06T10:44:36.858Z</time>
      </trkpt>
      <trkpt lat="46.95135" lon="8.72675">
        <ele>1403</ele>
        <time>2021-08-06T10:44:37.858Z</time>
      </trkpt>
      <trkpt lat="46.95134" lon="8.72675">
        <ele>1403</ele>
        <time>2021-08-06T10:44:38.858Z</time>
      </trkpt>
      <trkpt lat="46.95134" lon="8.72674">
        <ele>1402</ele>
        <time>2021-08-06T10:44:39.858Z</time>
      </trkpt>
      <trkpt lat="46.95133" lon="8.72674">
        <ele>1402</ele>
        <time>2021-08-06T10:44:40.857Z</time>
      </trkpt>
      <trkpt lat="46.95133" lon="8.72673">
        <ele>1402</ele>
        <time>2021-08-06T10:44:41.858Z</time>
      </trkpt>
      <trkpt lat="46.95133" lon="8.72672">
        <ele>1402</ele>
        <time>2021-08-06T10:44:42.857Z</time>
      </trkpt>
      <trkpt lat="46.95132" lon="8.72671">
        <ele>1402</ele>
        <time>2021-08-06T10:44:43.858Z</time>
      </trkpt>
      <trkpt lat="46.95132" lon="8.72671">
        <ele>1402</ele>
        <time>2021-08-06T10:44:44.857Z</time>
      </trkpt>
      <trkpt lat="46.95132" lon="8.7267">
        <ele>1403</ele>
        <time>2021-08-06T10:44:45.858Z</time>
      </trkpt>
      <trkpt lat="46.95131" lon="8.72669">
        <ele>1403</ele>
        <time>2021-08-06T10:44:46.858Z</time>
      </trkpt>
      <trkpt lat="46.9513" lon="8.72668">
        <ele>1402</ele>
        <time>2021-08-06T10:44:47.858Z</time>
      </trkpt>
      <trkpt lat="46.9513" lon="8.72668">
        <ele>1402</ele>
        <time>2021-08-06T10:44:48.858Z</time>
      </trkpt>
      <trkpt lat="46.9513" lon="8.72667">
        <ele>1402</ele>
        <time>2021-08-06T10:44:49.858Z</time>
      </trkpt>
      <trkpt lat="46.95129" lon="8.72667">
        <ele>1402</ele>
        <time>2021-08-06T10:44:50.857Z</time>
      </trkpt>
      <trkpt lat="46.95128" lon="8.72666">
        <ele>1402</ele>
        <time>2021-08-06T10:44:51.858Z</time>
      </trkpt>
      <trkpt lat="46.95127" lon="8.72666">
        <ele>1401</ele>
        <time>2021-08-06T10:44:52.858Z</time>
      </trkpt>
      <trkpt lat="46.95127" lon="8.72665">
        <ele>1401</ele>
        <time>2021-08-06T10:44:53.857Z</time>
      </trkpt>
      <trkpt lat="46.95126" lon="8.72665">
        <ele>1401</ele>
        <time>2021-08-06T10:44:54.857Z</time>
      </trkpt>
      <trkpt lat="46.95126" lon="8.72664">
        <ele>1401</ele>
        <time>2021-08-06T10:44:55.858Z</time>
      </trkpt>
      <trkpt lat="46.95125" lon="8.72664">
        <ele>1401</ele>
        <time>2021-08-06T10:44:56.857Z</time>
      </trkpt>
      <trkpt lat="46.95125" lon="8.72663">
        <ele>1401</ele>
        <time>2021-08-06T10:44:57.858Z</time>
      </trkpt>
      <trkpt lat="46.95123" lon="8.72662">
        <ele>1402</ele>
        <time>2021-08-06T10:44:58.857Z</time>
      </trkpt>
      <trkpt lat="46.95123" lon="8.72661">
        <ele>1402</ele>
        <time>2021-08-06T10:44:59.858Z</time>
      </trkpt>
      <trkpt lat="46.95123" lon="8.72659">
        <ele>1403</ele>
        <time>2021-08-06T10:45:00.858Z</time>
      </trkpt>
      <trkpt lat="46.95123" lon="8.72658">
        <ele>1403</ele>
        <time>2021-08-06T10:45:01.858Z</time>
      </trkpt>
      <trkpt lat="46.95122" lon="8.72658">
        <ele>1404</ele>
        <time>2021-08-06T10:45:02.858Z</time>
      </trkpt>
      <trkpt lat="46.95122" lon="8.72657">
        <ele>1405</ele>
        <time>2021-08-06T10:45:03.858Z</time>
      </trkpt>
      <trkpt lat="46.95121" lon="8.72656">
        <ele>1405</ele>
        <time>2021-08-06T10:45:04.858Z</time>
      </trkpt>
      <trkpt lat="46.9512" lon="8.72655">
        <ele>1406</ele>
        <time>2021-08-06T10:45:05.857Z</time>
      </trkpt>
      <trkpt lat="46.95119" lon="8.72655">
        <ele>1406</ele>
        <time>2021-08-06T10:45:06.858Z</time>
      </trkpt>
      <trkpt lat="46.95118" lon="8.72655">
        <ele>1406</ele>
        <time>2021-08-06T10:45:07.858Z</time>
      </trkpt>
      <trkpt lat="46.95117" lon="8.72655">
        <ele>1406</ele>
        <time>2021-08-06T10:45:08.858Z</time>
      </trkpt>
      <trkpt lat="46.95117" lon="8.72654">
        <ele>1406</ele>
        <time>2021-08-06T10:45:09.857Z</time>
      </trkpt>
      <trkpt lat="46.95116" lon="8.72654">
        <ele>1406</ele>
        <time>2021-08-06T10:45:10.857Z</time>
      </trkpt>
      <trkpt lat="46.95115" lon="8.72653">
        <ele>1406</ele>
        <time>2021-08-06T10:45:11.858Z</time>
      </trkpt>
      <trkpt lat="46.95115" lon="8.72653">
        <ele>1407</ele>
        <time>2021-08-06T10:45:12.857Z</time>
      </trkpt>
      <trkpt lat="46.95114" lon="8.72652">
        <ele>1407</ele>
        <time>2021-08-06T10:45:13.858Z</time>
      </trkpt>
      <trkpt lat="46.95114" lon="8.72652">
        <ele>1408</ele>
        <time>2021-08-06T10:45:14.858Z</time>
      </trkpt>
      <trkpt lat="46.95114" lon="8.72652">
        <ele>1408</ele>
        <time>2021-08-06T10:45:15.858Z</time>
      </trkpt>
      <trkpt lat="46.95113" lon="8.72651">
        <ele>1409</ele>
        <time>2021-08-06T10:45:16.858Z</time>
      </trkpt>
      <trkpt lat="46.95113" lon="8.72651">
        <ele>1409</ele>
        <time>2021-08-06T10:45:17.858Z</time>
      </trkpt>
      <trkpt lat="46.95112" lon="8.72652">
        <ele>1409</ele>
        <time>2021-08-06T10:45:18.858Z</time>
      </trkpt>
      <trkpt lat="46.95112" lon="8.72652">
        <ele>1409</ele>
        <time>2021-08-06T10:45:19.858Z</time>
      </trkpt>
      <trkpt lat="46.95111" lon="8.72652">
        <ele>1409</ele>
        <time>2021-08-06T10:45:20.858Z</time>
      </trkpt>
      <trkpt lat="46.9511" lon="8.72652">
        <ele>1409</ele>
        <time>2021-08-06T10:45:21.858Z</time>
      </trkpt>
      <trkpt lat="46.9511" lon="8.72651">
        <ele>1409</ele>
        <time>2021-08-06T10:45:22.857Z</time>
      </trkpt>
      <trkpt lat="46.95109" lon="8.72651">
        <ele>1409</ele>
        <time>2021-08-06T10:45:23.858Z</time>
      </trkpt>
      <trkpt lat="46.95108" lon="8.7265">
        <ele>1409</ele>
        <time>2021-08-06T10:45:24.858Z</time>
      </trkpt>
      <trkpt lat="46.95108" lon="8.7265">
        <ele>1410</ele>
        <time>2021-08-06T10:45:25.858Z</time>
      </trkpt>
      <trkpt lat="46.95107" lon="8.72649">
        <ele>1410</ele>
        <time>2021-08-06T10:45:26.857Z</time>
      </trkpt>
      <trkpt lat="46.95107" lon="8.72648">
        <ele>1411</ele>
        <time>2021-08-06T10:45:27.858Z</time>
      </trkpt>
      <trkpt lat="46.95106" lon="8.72647">
        <ele>1411</ele>
        <time>2021-08-06T10:45:28.857Z</time>
      </trkpt>
      <trkpt lat="46.95106" lon="8.72646">
        <ele>1411</ele>
        <time>2021-08-06T10:45:29.858Z</time>
      </trkpt>
      <trkpt lat="46.95106" lon="8.72645">
        <ele>1412</ele>
        <time>2021-08-06T10:45:30.857Z</time>
      </trkpt>
      <trkpt lat="46.95105" lon="8.72644">
        <ele>1412</ele>
        <time>2021-08-06T10:45:31.858Z</time>
      </trkpt>
      <trkpt lat="46.95105" lon="8.72644">
        <ele>1413</ele>
        <time>2021-08-06T10:45:32.858Z</time>
      </trkpt>
      <trkpt lat="46.95105" lon="8.72643">
        <ele>1413</ele>
        <time>2021-08-06T10:45:33.857Z</time>
      </trkpt>
      <trkpt lat="46.95104" lon="8.72643">
        <ele>1414</ele>
        <time>2021-08-06T10:45:34.858Z</time>
      </trkpt>
      <trkpt lat="46.95104" lon="8.72642">
        <ele>1414</ele>
        <time>2021-08-06T10:45:35.858Z</time>
      </trkpt>
      <trkpt lat="46.95103" lon="8.7264">
        <ele>1414</ele>
        <time>2021-08-06T10:45:36.857Z</time>
      </trkpt>
      <trkpt lat="46.95103" lon="8.72638">
        <ele>1414</ele>
        <time>2021-08-06T10:45:37.857Z</time>
      </trkpt>
      <trkpt lat="46.95103" lon="8.72635">
        <ele>1414</ele>
        <time>2021-08-06T10:45:38.858Z</time>
      </trkpt>
      <trkpt lat="46.95102" lon="8.72633">
        <ele>1414</ele>
        <time>2021-08-06T10:45:39.858Z</time>
      </trkpt>
      <trkpt lat="46.95101" lon="8.72633">
        <ele>1414</ele>
        <time>2021-08-06T10:45:40.858Z</time>
      </trkpt>
      <trkpt lat="46.95101" lon="8.72633">
        <ele>1414</ele>
        <time>2021-08-06T10:45:41.857Z</time>
      </trkpt>
      <trkpt lat="46.95101" lon="8.72632">
        <ele>1414</ele>
        <time>2021-08-06T10:45:42.858Z</time>
      </trkpt>
      <trkpt lat="46.95101" lon="8.72631">
        <ele>1414</ele>
        <time>2021-08-06T10:45:43.858Z</time>
      </trkpt>
      <trkpt lat="46.95101" lon="8.7263">
        <ele>1413</ele>
        <time>2021-08-06T10:45:44.858Z</time>
      </trkpt>
      <trkpt lat="46.951" lon="8.7263">
        <ele>1413</ele>
        <time>2021-08-06T10:45:45.858Z</time>
      </trkpt>
      <trkpt lat="46.951" lon="8.72629">
        <ele>1412</ele>
        <time>2021-08-06T10:45:46.858Z</time>
      </trkpt>
      <trkpt lat="46.951" lon="8.72629">
        <ele>1411</ele>
        <time>2021-08-06T10:45:47.857Z</time>
      </trkpt>
      <trkpt lat="46.95099" lon="8.72629">
        <ele>1411</ele>
        <time>2021-08-06T10:45:48.858Z</time>
      </trkpt>
      <trkpt lat="46.95099" lon="8.72629">
        <ele>1410</ele>
        <time>2021-08-06T10:45:49.857Z</time>
      </trkpt>
      <trkpt lat="46.95098" lon="8.72628">
        <ele>1410</ele>
        <time>2021-08-06T10:45:50.857Z</time>
      </trkpt>
      <trkpt lat="46.95098" lon="8.72628">
        <ele>1410</ele>
        <time>2021-08-06T10:45:51.858Z</time>
      </trkpt>
      <trkpt lat="46.95097" lon="8.72627">
        <ele>1409</ele>
        <time>2021-08-06T10:45:52.858Z</time>
      </trkpt>
      <trkpt lat="46.95097" lon="8.72627">
        <ele>1409</ele>
        <time>2021-08-06T10:45:53.858Z</time>
      </trkpt>
      <trkpt lat="46.95097" lon="8.72627">
        <ele>1408</ele>
        <time>2021-08-06T10:45:54.858Z</time>
      </trkpt>
      <trkpt lat="46.95097" lon="8.72626">
        <ele>1408</ele>
        <time>2021-08-06T10:45:55.858Z</time>
      </trkpt>
      <trkpt lat="46.95096" lon="8.72625">
        <ele>1407</ele>
        <time>2021-08-06T10:45:56.858Z</time>
      </trkpt>
      <trkpt lat="46.95095" lon="8.72625">
        <ele>1407</ele>
        <time>2021-08-06T10:45:57.858Z</time>
      </trkpt>
      <trkpt lat="46.95095" lon="8.72625">
        <ele>1407</ele>
        <time>2021-08-06T10:45:58.858Z</time>
      </trkpt>
      <trkpt lat="46.95095" lon="8.72624">
        <ele>1407</ele>
        <time>2021-08-06T10:45:59.858Z</time>
      </trkpt>
      <trkpt lat="46.95094" lon="8.72624">
        <ele>1408</ele>
        <time>2021-08-06T10:46:00.857Z</time>
      </trkpt>
      <trkpt lat="46.95094" lon="8.72623">
        <ele>1408</ele>
        <time>2021-08-06T10:46:01.857Z</time>
      </trkpt>
      <trkpt lat="46.95094" lon="8.72622">
        <ele>1409</ele>
        <time>2021-08-06T10:46:02.858Z</time>
      </trkpt>
      <trkpt lat="46.95093" lon="8.7262">
        <ele>1409</ele>
        <time>2021-08-06T10:46:03.858Z</time>
      </trkpt>
      <trkpt lat="46.95091" lon="8.72619">
        <ele>1409</ele>
        <time>2021-08-06T10:46:04.857Z</time>
      </trkpt>
      <trkpt lat="46.95091" lon="8.72619">
        <ele>1409</ele>
        <time>2021-08-06T10:46:05.857Z</time>
      </trkpt>
      <trkpt lat="46.95091" lon="8.72617">
        <ele>1409</ele>
        <time>2021-08-06T10:46:06.858Z</time>
      </trkpt>
      <trkpt lat="46.9509" lon="8.72617">
        <ele>1410</ele>
        <time>2021-08-06T10:46:07.858Z</time>
      </trkpt>
      <trkpt lat="46.95089" lon="8.72615">
        <ele>1410</ele>
        <time>2021-08-06T10:46:08.858Z</time>
      </trkpt>
      <trkpt lat="46.95089" lon="8.72614">
        <ele>1411</ele>
        <time>2021-08-06T10:46:09.857Z</time>
      </trkpt>
      <trkpt lat="46.95088" lon="8.72613">
        <ele>1411</ele>
        <time>2021-08-06T10:46:10.858Z</time>
      </trkpt>
      <trkpt lat="46.95088" lon="8.72612">
        <ele>1412</ele>
        <time>2021-08-06T10:46:11.858Z</time>
      </trkpt>
      <trkpt lat="46.95088" lon="8.72611">
        <ele>1412</ele>
        <time>2021-08-06T10:46:12.858Z</time>
      </trkpt>
      <trkpt lat="46.95088" lon="8.72611">
        <ele>1412</ele>
        <time>2021-08-06T10:46:13.858Z</time>
      </trkpt>
      <trkpt lat="46.95088" lon="8.7261">
        <ele>1413</ele>
        <time>2021-08-06T10:46:14.857Z</time>
      </trkpt>
      <trkpt lat="46.95087" lon="8.7261">
        <ele>1413</ele>
        <time>2021-08-06T10:46:15.857Z</time>
      </trkpt>
      <trkpt lat="46.95086" lon="8.72609">
        <ele>1413</ele>
        <time>2021-08-06T10:46:16.858Z</time>
      </trkpt>
      <trkpt lat="46.95085" lon="8.72609">
        <ele>1413</ele>
        <time>2021-08-06T10:46:17.857Z</time>
      </trkpt>
      <trkpt lat="46.95085" lon="8.72608">
        <ele>1414</ele>
        <time>2021-08-06T10:46:18.858Z</time>
      </trkpt>
      <trkpt lat="46.95084" lon="8.72607">
        <ele>1414</ele>
        <time>2021-08-06T10:46:19.858Z</time>
      </trkpt>
      <trkpt lat="46.95084" lon="8.72606">
        <ele>1414</ele>
        <time>2021-08-06T10:46:20.857Z</time>
      </trkpt>
      <trkpt lat="46.95084" lon="8.72606">
        <ele>1415</ele>
        <time>2021-08-06T10:46:21.858Z</time>
      </trkpt>
      <trkpt lat="46.95084" lon="8.72605">
        <ele>1416</ele>
        <time>2021-08-06T10:46:22.858Z</time>
      </trkpt>
      <trkpt lat="46.95083" lon="8.72604">
        <ele>1416</ele>
        <time>2021-08-06T10:46:23.858Z</time>
      </trkpt>
      <trkpt lat="46.95083" lon="8.72603">
        <ele>1416</ele>
        <time>2021-08-06T10:46:24.857Z</time>
      </trkpt>
      <trkpt lat="46.95083" lon="8.72602">
        <ele>1417</ele>
        <time>2021-08-06T10:46:25.858Z</time>
      </trkpt>
      <trkpt lat="46.95082" lon="8.72602">
        <ele>1417</ele>
        <time>2021-08-06T10:46:26.857Z</time>
      </trkpt>
      <trkpt lat="46.95082" lon="8.72601">
        <ele>1416</ele>
        <time>2021-08-06T10:46:27.858Z</time>
      </trkpt>
      <trkpt lat="46.95082" lon="8.72601">
        <ele>1416</ele>
        <time>2021-08-06T10:46:28.857Z</time>
      </trkpt>
      <trkpt lat="46.95082" lon="8.726">
        <ele>1416</ele>
        <time>2021-08-06T10:46:29.858Z</time>
      </trkpt>
      <trkpt lat="46.95081" lon="8.72599">
        <ele>1416</ele>
        <time>2021-08-06T10:46:30.857Z</time>
      </trkpt>
      <trkpt lat="46.95081" lon="8.72598">
        <ele>1416</ele>
        <time>2021-08-06T10:46:31.858Z</time>
      </trkpt>
      <trkpt lat="46.9508" lon="8.72597">
        <ele>1417</ele>
        <time>2021-08-06T10:46:32.858Z</time>
      </trkpt>
      <trkpt lat="46.9508" lon="8.72596">
        <ele>1417</ele>
        <time>2021-08-06T10:46:33.858Z</time>
      </trkpt>
      <trkpt lat="46.9508" lon="8.72595">
        <ele>1417</ele>
        <time>2021-08-06T10:46:34.857Z</time>
      </trkpt>
      <trkpt lat="46.9508" lon="8.72595">
        <ele>1418</ele>
        <time>2021-08-06T10:46:35.857Z</time>
      </trkpt>
      <trkpt lat="46.95079" lon="8.72594">
        <ele>1417</ele>
        <time>2021-08-06T10:46:36.858Z</time>
      </trkpt>
      <trkpt lat="46.95078" lon="8.72593">
        <ele>1417</ele>
        <time>2021-08-06T10:46:37.858Z</time>
      </trkpt>
      <trkpt lat="46.95078" lon="8.72593">
        <ele>1417</ele>
        <time>2021-08-06T10:46:38.857Z</time>
      </trkpt>
      <trkpt lat="46.95078" lon="8.72591">
        <ele>1417</ele>
        <time>2021-08-06T10:46:39.858Z</time>
      </trkpt>
      <trkpt lat="46.95078" lon="8.7259">
        <ele>1417</ele>
        <time>2021-08-06T10:46:40.857Z</time>
      </trkpt>
      <trkpt lat="46.95078" lon="8.72588">
        <ele>1417</ele>
        <time>2021-08-06T10:46:41.858Z</time>
      </trkpt>
      <trkpt lat="46.95078" lon="8.72586">
        <ele>1416</ele>
        <time>2021-08-06T10:46:42.857Z</time>
      </trkpt>
      <trkpt lat="46.95078" lon="8.72585">
        <ele>1416</ele>
        <time>2021-08-06T10:46:43.858Z</time>
      </trkpt>
      <trkpt lat="46.95078" lon="8.72584">
        <ele>1416</ele>
        <time>2021-08-06T10:46:44.858Z</time>
      </trkpt>
      <trkpt lat="46.95078" lon="8.72583">
        <ele>1415</ele>
        <time>2021-08-06T10:46:45.858Z</time>
      </trkpt>
      <trkpt lat="46.95077" lon="8.72583">
        <ele>1415</ele>
        <time>2021-08-06T10:46:46.857Z</time>
      </trkpt>
      <trkpt lat="46.95077" lon="8.72582">
        <ele>1416</ele>
        <time>2021-08-06T10:46:47.858Z</time>
      </trkpt>
      <trkpt lat="46.95076" lon="8.72582">
        <ele>1416</ele>
        <time>2021-08-06T10:46:48.858Z</time>
      </trkpt>
      <trkpt lat="46.95076" lon="8.72581">
        <ele>1416</ele>
        <time>2021-08-06T10:46:49.858Z</time>
      </trkpt>
      <trkpt lat="46.95075" lon="8.7258">
        <ele>1416</ele>
        <time>2021-08-06T10:46:50.858Z</time>
      </trkpt>
      <trkpt lat="46.95074" lon="8.7258">
        <ele>1417</ele>
        <time>2021-08-06T10:46:51.858Z</time>
      </trkpt>
      <trkpt lat="46.95074" lon="8.7258">
        <ele>1417</ele>
        <time>2021-08-06T10:46:52.858Z</time>
      </trkpt>
      <trkpt lat="46.95073" lon="8.72579">
        <ele>1416</ele>
        <time>2021-08-06T10:46:53.858Z</time>
      </trkpt>
      <trkpt lat="46.95073" lon="8.72579">
        <ele>1416</ele>
        <time>2021-08-06T10:46:54.857Z</time>
      </trkpt>
      <trkpt lat="46.95073" lon="8.72578">
        <ele>1416</ele>
        <time>2021-08-06T10:46:55.857Z</time>
      </trkpt>
      <trkpt lat="46.95073" lon="8.72585">
        <ele>1414</ele>
        <time>2021-08-06T10:46:56.857Z</time>
      </trkpt>
      <trkpt lat="46.95073" lon="8.72585">
        <ele>1414</ele>
        <time>2021-08-06T10:46:57.858Z</time>
      </trkpt>
      <trkpt lat="46.95073" lon="8.72584">
        <ele>1414</ele>
        <time>2021-08-06T10:46:58.857Z</time>
      </trkpt>
      <trkpt lat="46.95072" lon="8.72582">
        <ele>1414</ele>
        <time>2021-08-06T10:46:59.858Z</time>
      </trkpt>
      <trkpt lat="46.95072" lon="8.72581">
        <ele>1414</ele>
        <time>2021-08-06T10:47:00.858Z</time>
      </trkpt>
      <trkpt lat="46.95072" lon="8.72581">
        <ele>1413</ele>
        <time>2021-08-06T10:47:01.858Z</time>
      </trkpt>
      <trkpt lat="46.95072" lon="8.7258">
        <ele>1413</ele>
        <time>2021-08-06T10:47:02.859Z</time>
      </trkpt>
      <trkpt lat="46.95071" lon="8.72579">
        <ele>1413</ele>
        <time>2021-08-06T10:47:03.859Z</time>
      </trkpt>
      <trkpt lat="46.9507" lon="8.72579">
        <ele>1414</ele>
        <time>2021-08-06T10:47:04.859Z</time>
      </trkpt>
      <trkpt lat="46.95069" lon="8.72577">
        <ele>1414</ele>
        <time>2021-08-06T10:47:05.858Z</time>
      </trkpt>
      <trkpt lat="46.95069" lon="8.72576">
        <ele>1415</ele>
        <time>2021-08-06T10:47:06.858Z</time>
      </trkpt>
      <trkpt lat="46.95068" lon="8.72575">
        <ele>1415</ele>
        <time>2021-08-06T10:47:07.859Z</time>
      </trkpt>
      <trkpt lat="46.95067" lon="8.72574">
        <ele>1416</ele>
        <time>2021-08-06T10:47:08.858Z</time>
      </trkpt>
      <trkpt lat="46.95066" lon="8.72574">
        <ele>1417</ele>
        <time>2021-08-06T10:47:09.859Z</time>
      </trkpt>
      <trkpt lat="46.95066" lon="8.72573">
        <ele>1418</ele>
        <time>2021-08-06T10:47:10.858Z</time>
      </trkpt>
      <trkpt lat="46.95066" lon="8.72572">
        <ele>1418</ele>
        <time>2021-08-06T10:47:11.858Z</time>
      </trkpt>
      <trkpt lat="46.95065" lon="8.72572">
        <ele>1418</ele>
        <time>2021-08-06T10:47:12.858Z</time>
      </trkpt>
      <trkpt lat="46.95064" lon="8.72572">
        <ele>1418</ele>
        <time>2021-08-06T10:47:20.008Z</time>
      </trkpt>
      <trkpt lat="46.95063" lon="8.72572">
        <ele>1418</ele>
        <time>2021-08-06T10:47:21.009Z</time>
      </trkpt>
      <trkpt lat="46.95063" lon="8.72572">
        <ele>1417</ele>
        <time>2021-08-06T10:47:22.008Z</time>
      </trkpt>
      <trkpt lat="46.95062" lon="8.72572">
        <ele>1417</ele>
        <time>2021-08-06T10:47:23.008Z</time>
      </trkpt>
      <trkpt lat="46.95062" lon="8.72572">
        <ele>1417</ele>
        <time>2021-08-06T10:47:24.008Z</time>
      </trkpt>
      <trkpt lat="46.95061" lon="8.72571">
        <ele>1417</ele>
        <time>2021-08-06T10:47:25.009Z</time>
      </trkpt>
      <trkpt lat="46.95061" lon="8.7257">
        <ele>1417</ele>
        <time>2021-08-06T10:47:26.009Z</time>
      </trkpt>
      <trkpt lat="46.9506" lon="8.72569">
        <ele>1417</ele>
        <time>2021-08-06T10:47:27.009Z</time>
      </trkpt>
      <trkpt lat="46.9506" lon="8.72568">
        <ele>1416</ele>
        <time>2021-08-06T10:47:28.008Z</time>
      </trkpt>
      <trkpt lat="46.95059" lon="8.72568">
        <ele>1416</ele>
        <time>2021-08-06T10:47:29.009Z</time>
      </trkpt>
      <trkpt lat="46.95059" lon="8.72567">
        <ele>1416</ele>
        <time>2021-08-06T10:47:30.009Z</time>
      </trkpt>
      <trkpt lat="46.95058" lon="8.72566">
        <ele>1416</ele>
        <time>2021-08-06T10:47:31.009Z</time>
      </trkpt>
      <trkpt lat="46.95058" lon="8.72565">
        <ele>1416</ele>
        <time>2021-08-06T10:47:32.008Z</time>
      </trkpt>
      <trkpt lat="46.95057" lon="8.72565">
        <ele>1416</ele>
        <time>2021-08-06T10:47:33.009Z</time>
      </trkpt>
      <trkpt lat="46.95057" lon="8.72564">
        <ele>1415</ele>
        <time>2021-08-06T10:47:34.009Z</time>
      </trkpt>
      <trkpt lat="46.95057" lon="8.72563">
        <ele>1415</ele>
        <time>2021-08-06T10:47:35.008Z</time>
      </trkpt>
      <trkpt lat="46.95056" lon="8.72563">
        <ele>1415</ele>
        <time>2021-08-06T10:47:36.009Z</time>
      </trkpt>
      <trkpt lat="46.95056" lon="8.72562">
        <ele>1415</ele>
        <time>2021-08-06T10:47:37.009Z</time>
      </trkpt>
      <trkpt lat="46.95055" lon="8.72561">
        <ele>1415</ele>
        <time>2021-08-06T10:47:38.009Z</time>
      </trkpt>
      <trkpt lat="46.95055" lon="8.7256">
        <ele>1415</ele>
        <time>2021-08-06T10:47:39.009Z</time>
      </trkpt>
      <trkpt lat="46.95054" lon="8.72559">
        <ele>1415</ele>
        <time>2021-08-06T10:47:40.009Z</time>
      </trkpt>
      <trkpt lat="46.95054" lon="8.72558">
        <ele>1416</ele>
        <time>2021-08-06T10:47:41.008Z</time>
      </trkpt>
      <trkpt lat="46.95053" lon="8.72557">
        <ele>1417</ele>
        <time>2021-08-06T10:47:42.008Z</time>
      </trkpt>
      <trkpt lat="46.95053" lon="8.72557">
        <ele>1417</ele>
        <time>2021-08-06T10:47:43.008Z</time>
      </trkpt>
      <trkpt lat="46.95053" lon="8.72556">
        <ele>1417</ele>
        <time>2021-08-06T10:47:44.008Z</time>
      </trkpt>
      <trkpt lat="46.95053" lon="8.72555">
        <ele>1417</ele>
        <time>2021-08-06T10:47:45.008Z</time>
      </trkpt>
      <trkpt lat="46.95052" lon="8.72554">
        <ele>1417</ele>
        <time>2021-08-06T10:47:46.008Z</time>
      </trkpt>
      <trkpt lat="46.95052" lon="8.72553">
        <ele>1418</ele>
        <time>2021-08-06T10:47:47.008Z</time>
      </trkpt>
      <trkpt lat="46.95051" lon="8.72552">
        <ele>1417</ele>
        <time>2021-08-06T10:47:48.008Z</time>
      </trkpt>
      <trkpt lat="46.95051" lon="8.72551">
        <ele>1417</ele>
        <time>2021-08-06T10:47:49.008Z</time>
      </trkpt>
      <trkpt lat="46.95051" lon="8.72551">
        <ele>1416</ele>
        <time>2021-08-06T10:47:50.009Z</time>
      </trkpt>
      <trkpt lat="46.95051" lon="8.7255">
        <ele>1416</ele>
        <time>2021-08-06T10:47:51.008Z</time>
      </trkpt>
      <trkpt lat="46.95051" lon="8.72549">
        <ele>1416</ele>
        <time>2021-08-06T10:47:52.009Z</time>
      </trkpt>
      <trkpt lat="46.95051" lon="8.72548">
        <ele>1416</ele>
        <time>2021-08-06T10:47:53.009Z</time>
      </trkpt>
      <trkpt lat="46.9505" lon="8.72547">
        <ele>1417</ele>
        <time>2021-08-06T10:47:54.009Z</time>
      </trkpt>
      <trkpt lat="46.95051" lon="8.72544">
        <ele>1417</ele>
        <time>2021-08-06T10:47:55.008Z</time>
      </trkpt>
      <trkpt lat="46.9505" lon="8.72543">
        <ele>1417</ele>
        <time>2021-08-06T10:47:56.008Z</time>
      </trkpt>
      <trkpt lat="46.9505" lon="8.72542">
        <ele>1417</ele>
        <time>2021-08-06T10:47:57.008Z</time>
      </trkpt>
      <trkpt lat="46.9505" lon="8.7254">
        <ele>1417</ele>
        <time>2021-08-06T10:47:58.008Z</time>
      </trkpt>
      <trkpt lat="46.95049" lon="8.7254">
        <ele>1417</ele>
        <time>2021-08-06T10:47:59.009Z</time>
      </trkpt>
      <trkpt lat="46.95049" lon="8.72539">
        <ele>1417</ele>
        <time>2021-08-06T10:48:00.009Z</time>
      </trkpt>
      <trkpt lat="46.95048" lon="8.72538">
        <ele>1418</ele>
        <time>2021-08-06T10:48:01.009Z</time>
      </trkpt>
      <trkpt lat="46.95049" lon="8.72536">
        <ele>1418</ele>
        <time>2021-08-06T10:48:02.008Z</time>
      </trkpt>
      <trkpt lat="46.95048" lon="8.72535">
        <ele>1418</ele>
        <time>2021-08-06T10:48:03.009Z</time>
      </trkpt>
      <trkpt lat="46.95047" lon="8.72535">
        <ele>1418</ele>
        <time>2021-08-06T10:48:04.009Z</time>
      </trkpt>
      <trkpt lat="46.95047" lon="8.72534">
        <ele>1418</ele>
        <time>2021-08-06T10:48:05.009Z</time>
      </trkpt>
      <trkpt lat="46.95046" lon="8.72533">
        <ele>1418</ele>
        <time>2021-08-06T10:48:06.008Z</time>
      </trkpt>
      <trkpt lat="46.95046" lon="8.72531">
        <ele>1418</ele>
        <time>2021-08-06T10:48:07.008Z</time>
      </trkpt>
      <trkpt lat="46.95046" lon="8.7253">
        <ele>1418</ele>
        <time>2021-08-06T10:48:08.009Z</time>
      </trkpt>
      <trkpt lat="46.95045" lon="8.72529">
        <ele>1418</ele>
        <time>2021-08-06T10:48:09.008Z</time>
      </trkpt>
      <trkpt lat="46.95044" lon="8.72528">
        <ele>1419</ele>
        <time>2021-08-06T10:48:10.008Z</time>
      </trkpt>
      <trkpt lat="46.95043" lon="8.72528">
        <ele>1419</ele>
        <time>2021-08-06T10:48:11.008Z</time>
      </trkpt>
      <trkpt lat="46.95042" lon="8.72528">
        <ele>1420</ele>
        <time>2021-08-06T10:48:12.009Z</time>
      </trkpt>
      <trkpt lat="46.95042" lon="8.72528">
        <ele>1421</ele>
        <time>2021-08-06T10:48:13.008Z</time>
      </trkpt>
      <trkpt lat="46.95041" lon="8.72527">
        <ele>1421</ele>
        <time>2021-08-06T10:48:14.009Z</time>
      </trkpt>
      <trkpt lat="46.95041" lon="8.72526">
        <ele>1422</ele>
        <time>2021-08-06T10:48:15.009Z</time>
      </trkpt>
      <trkpt lat="46.9504" lon="8.72525">
        <ele>1422</ele>
        <time>2021-08-06T10:48:16.008Z</time>
      </trkpt>
      <trkpt lat="46.9504" lon="8.72524">
        <ele>1422</ele>
        <time>2021-08-06T10:48:17.009Z</time>
      </trkpt>
      <trkpt lat="46.95039" lon="8.72524">
        <ele>1423</ele>
        <time>2021-08-06T10:48:18.008Z</time>
      </trkpt>
      <trkpt lat="46.95039" lon="8.72523">
        <ele>1422</ele>
        <time>2021-08-06T10:48:19.009Z</time>
      </trkpt>
      <trkpt lat="46.95038" lon="8.72522">
        <ele>1422</ele>
        <time>2021-08-06T10:48:20.008Z</time>
      </trkpt>
      <trkpt lat="46.95038" lon="8.72522">
        <ele>1422</ele>
        <time>2021-08-06T10:48:21.008Z</time>
      </trkpt>
      <trkpt lat="46.95037" lon="8.72522">
        <ele>1421</ele>
        <time>2021-08-06T10:48:22.009Z</time>
      </trkpt>
      <trkpt lat="46.95036" lon="8.72521">
        <ele>1421</ele>
        <time>2021-08-06T10:48:23.008Z</time>
      </trkpt>
      <trkpt lat="46.95035" lon="8.7252">
        <ele>1420</ele>
        <time>2021-08-06T10:48:24.008Z</time>
      </trkpt>
      <trkpt lat="46.95035" lon="8.7252">
        <ele>1420</ele>
        <time>2021-08-06T10:48:25.008Z</time>
      </trkpt>
      <trkpt lat="46.95034" lon="8.72519">
        <ele>1420</ele>
        <time>2021-08-06T10:48:26.009Z</time>
      </trkpt>
      <trkpt lat="46.95033" lon="8.72518">
        <ele>1421</ele>
        <time>2021-08-06T10:48:27.008Z</time>
      </trkpt>
      <trkpt lat="46.95032" lon="8.72518">
        <ele>1421</ele>
        <time>2021-08-06T10:48:28.009Z</time>
      </trkpt>
      <trkpt lat="46.95031" lon="8.72518">
        <ele>1422</ele>
        <time>2021-08-06T10:48:29.008Z</time>
      </trkpt>
      <trkpt lat="46.9503" lon="8.72518">
        <ele>1423</ele>
        <time>2021-08-06T10:48:30.009Z</time>
      </trkpt>
      <trkpt lat="46.9503" lon="8.72518">
        <ele>1424</ele>
        <time>2021-08-06T10:48:45.129Z</time>
      </trkpt>
      <trkpt lat="46.95029" lon="8.72517">
        <ele>1424</ele>
        <time>2021-08-06T10:48:46.129Z</time>
      </trkpt>
      <trkpt lat="46.95028" lon="8.72517">
        <ele>1425</ele>
        <time>2021-08-06T10:48:48.972Z</time>
      </trkpt>
      <trkpt lat="46.95027" lon="8.72516">
        <ele>1426</ele>
        <time>2021-08-06T10:48:49.971Z</time>
      </trkpt>
      <trkpt lat="46.95026" lon="8.72517">
        <ele>1427</ele>
        <time>2021-08-06T10:48:50.972Z</time>
      </trkpt>
      <trkpt lat="46.95025" lon="8.72517">
        <ele>1428</ele>
        <time>2021-08-06T10:48:51.972Z</time>
      </trkpt>
      <trkpt lat="46.95025" lon="8.72516">
        <ele>1429</ele>
        <time>2021-08-06T10:48:52.972Z</time>
      </trkpt>
      <trkpt lat="46.95024" lon="8.72516">
        <ele>1429</ele>
        <time>2021-08-06T10:48:53.971Z</time>
      </trkpt>
      <trkpt lat="46.95023" lon="8.72515">
        <ele>1429</ele>
        <time>2021-08-06T10:48:54.971Z</time>
      </trkpt>
      <trkpt lat="46.95022" lon="8.72513">
        <ele>1430</ele>
        <time>2021-08-06T10:48:55.972Z</time>
      </trkpt>
      <trkpt lat="46.95022" lon="8.72513">
        <ele>1430</ele>
        <time>2021-08-06T10:48:56.972Z</time>
      </trkpt>
      <trkpt lat="46.95021" lon="8.72513">
        <ele>1431</ele>
        <time>2021-08-06T10:48:57.971Z</time>
      </trkpt>
      <trkpt lat="46.95019" lon="8.72513">
        <ele>1432</ele>
        <time>2021-08-06T10:48:58.971Z</time>
      </trkpt>
      <trkpt lat="46.95019" lon="8.72513">
        <ele>1433</ele>
        <time>2021-08-06T10:48:59.972Z</time>
      </trkpt>
      <trkpt lat="46.95018" lon="8.72513">
        <ele>1433</ele>
        <time>2021-08-06T10:49:00.972Z</time>
      </trkpt>
      <trkpt lat="46.95018" lon="8.72514">
        <ele>1433</ele>
        <time>2021-08-06T10:49:01.972Z</time>
      </trkpt>
      <trkpt lat="46.95018" lon="8.72514">
        <ele>1434</ele>
        <time>2021-08-06T10:49:02.971Z</time>
      </trkpt>
      <trkpt lat="46.95017" lon="8.72513">
        <ele>1433</ele>
        <time>2021-08-06T10:49:03.972Z</time>
      </trkpt>
      <trkpt lat="46.95017" lon="8.72512">
        <ele>1433</ele>
        <time>2021-08-06T10:49:04.972Z</time>
      </trkpt>
      <trkpt lat="46.95016" lon="8.72512">
        <ele>1433</ele>
        <time>2021-08-06T10:49:05.971Z</time>
      </trkpt>
      <trkpt lat="46.95015" lon="8.72511">
        <ele>1433</ele>
        <time>2021-08-06T10:49:06.971Z</time>
      </trkpt>
      <trkpt lat="46.95014" lon="8.72511">
        <ele>1432</ele>
        <time>2021-08-06T10:49:07.971Z</time>
      </trkpt>
      <trkpt lat="46.95014" lon="8.7251">
        <ele>1432</ele>
        <time>2021-08-06T10:49:08.972Z</time>
      </trkpt>
      <trkpt lat="46.95013" lon="8.72509">
        <ele>1431</ele>
        <time>2021-08-06T10:49:09.972Z</time>
      </trkpt>
      <trkpt lat="46.95013" lon="8.72509">
        <ele>1431</ele>
        <time>2021-08-06T10:49:10.972Z</time>
      </trkpt>
      <trkpt lat="46.95012" lon="8.7251">
        <ele>1432</ele>
        <time>2021-08-06T10:49:11.971Z</time>
      </trkpt>
      <trkpt lat="46.95009" lon="8.72515">
        <ele>1430</ele>
        <time>2021-08-06T10:49:12.971Z</time>
      </trkpt>
      <trkpt lat="46.95005" lon="8.72513">
        <ele>1430</ele>
        <time>2021-08-06T10:49:13.972Z</time>
      </trkpt>
      <trkpt lat="46.95005" lon="8.72512">
        <ele>1430</ele>
        <time>2021-08-06T10:49:14.972Z</time>
      </trkpt>
      <trkpt lat="46.95006" lon="8.72512">
        <ele>1430</ele>
        <time>2021-08-06T10:49:15.973Z</time>
      </trkpt>
      <trkpt lat="46.95007" lon="8.72512">
        <ele>1430</ele>
        <time>2021-08-06T10:49:16.973Z</time>
      </trkpt>
      <trkpt lat="46.95008" lon="8.72512">
        <ele>1431</ele>
        <time>2021-08-06T10:49:17.972Z</time>
      </trkpt>
      <trkpt lat="46.95011" lon="8.72511">
        <ele>1440</ele>
        <time>2021-08-06T10:49:18.973Z</time>
      </trkpt>
      <trkpt lat="46.95011" lon="8.72511">
        <ele>1440</ele>
        <time>2021-08-06T10:49:19.973Z</time>
      </trkpt>
      <trkpt lat="46.9501" lon="8.72508">
        <ele>1445</ele>
        <time>2021-08-06T10:49:20.972Z</time>
      </trkpt>
      <trkpt lat="46.95011" lon="8.72509">
        <ele>1445</ele>
        <time>2021-08-06T10:49:21.972Z</time>
      </trkpt>
      <trkpt lat="46.95011" lon="8.72509">
        <ele>1446</ele>
        <time>2021-08-06T10:49:22.973Z</time>
      </trkpt>
      <trkpt lat="46.95011" lon="8.72509">
        <ele>1446</ele>
        <time>2021-08-06T10:49:23.972Z</time>
      </trkpt>
      <trkpt lat="46.9501" lon="8.72508">
        <ele>1446</ele>
        <time>2021-08-06T10:49:24.973Z</time>
      </trkpt>
      <trkpt lat="46.95009" lon="8.72507">
        <ele>1446</ele>
        <time>2021-08-06T10:49:25.972Z</time>
      </trkpt>
      <trkpt lat="46.95009" lon="8.72507">
        <ele>1447</ele>
        <time>2021-08-06T10:49:26.972Z</time>
      </trkpt>
      <trkpt lat="46.95009" lon="8.72507">
        <ele>1450</ele>
        <time>2021-08-06T10:49:27.974Z</time>
      </trkpt>
      <trkpt lat="46.95009" lon="8.72507">
        <ele>1449</ele>
        <time>2021-08-06T10:49:28.973Z</time>
      </trkpt>
      <trkpt lat="46.9501" lon="8.72506">
        <ele>1448</ele>
        <time>2021-08-06T10:49:29.974Z</time>
      </trkpt>
      <trkpt lat="46.9501" lon="8.72506">
        <ele>1447</ele>
        <time>2021-08-06T10:49:30.974Z</time>
      </trkpt>
      <trkpt lat="46.9501" lon="8.72505">
        <ele>1445</ele>
        <time>2021-08-06T10:49:31.974Z</time>
      </trkpt>
      <trkpt lat="46.9501" lon="8.72505">
        <ele>1444</ele>
        <time>2021-08-06T10:49:32.973Z</time>
      </trkpt>
      <trkpt lat="46.95009" lon="8.72504">
        <ele>1444</ele>
        <time>2021-08-06T10:49:33.973Z</time>
      </trkpt>
      <trkpt lat="46.95008" lon="8.72504">
        <ele>1443</ele>
        <time>2021-08-06T10:49:34.974Z</time>
      </trkpt>
      <trkpt lat="46.95007" lon="8.72504">
        <ele>1443</ele>
        <time>2021-08-06T10:49:35.974Z</time>
      </trkpt>
      <trkpt lat="46.95006" lon="8.72503">
        <ele>1443</ele>
        <time>2021-08-06T10:49:36.974Z</time>
      </trkpt>
      <trkpt lat="46.95005" lon="8.72503">
        <ele>1442</ele>
        <time>2021-08-06T10:49:37.974Z</time>
      </trkpt>
      <trkpt lat="46.95005" lon="8.72503">
        <ele>1442</ele>
        <time>2021-08-06T10:49:38.974Z</time>
      </trkpt>
      <trkpt lat="46.95004" lon="8.72503">
        <ele>1441</ele>
        <time>2021-08-06T10:49:39.974Z</time>
      </trkpt>
      <trkpt lat="46.95002" lon="8.72502">
        <ele>1440</ele>
        <time>2021-08-06T10:49:40.974Z</time>
      </trkpt>
      <trkpt lat="46.95001" lon="8.725">
        <ele>1440</ele>
        <time>2021-08-06T10:49:41.974Z</time>
      </trkpt>
      <trkpt lat="46.95" lon="8.72498">
        <ele>1439</ele>
        <time>2021-08-06T10:49:42.974Z</time>
      </trkpt>
      <trkpt lat="46.95" lon="8.72498">
        <ele>1438</ele>
        <time>2021-08-06T10:49:43.974Z</time>
      </trkpt>
      <trkpt lat="46.94999" lon="8.72498">
        <ele>1437</ele>
        <time>2021-08-06T10:49:44.974Z</time>
      </trkpt>
      <trkpt lat="46.94998" lon="8.72497">
        <ele>1437</ele>
        <time>2021-08-06T10:49:45.974Z</time>
      </trkpt>
      <trkpt lat="46.94997" lon="8.72496">
        <ele>1436</ele>
        <time>2021-08-06T10:49:46.974Z</time>
      </trkpt>
      <trkpt lat="46.94997" lon="8.72495">
        <ele>1436</ele>
        <time>2021-08-06T10:49:47.973Z</time>
      </trkpt>
      <trkpt lat="46.94996" lon="8.72494">
        <ele>1436</ele>
        <time>2021-08-06T10:49:48.974Z</time>
      </trkpt>
      <trkpt lat="46.94995" lon="8.72493">
        <ele>1436</ele>
        <time>2021-08-06T10:49:49.974Z</time>
      </trkpt>
      <trkpt lat="46.94994" lon="8.72492">
        <ele>1436</ele>
        <time>2021-08-06T10:49:50.973Z</time>
      </trkpt>
      <trkpt lat="46.94994" lon="8.72491">
        <ele>1435</ele>
        <time>2021-08-06T10:49:51.973Z</time>
      </trkpt>
      <trkpt lat="46.94993" lon="8.7249">
        <ele>1435</ele>
        <time>2021-08-06T10:49:52.973Z</time>
      </trkpt>
      <trkpt lat="46.94993" lon="8.72488">
        <ele>1435</ele>
        <time>2021-08-06T10:49:53.974Z</time>
      </trkpt>
      <trkpt lat="46.94992" lon="8.72488">
        <ele>1435</ele>
        <time>2021-08-06T10:49:54.973Z</time>
      </trkpt>
      <trkpt lat="46.94991" lon="8.72487">
        <ele>1435</ele>
        <time>2021-08-06T10:49:55.973Z</time>
      </trkpt>
      <trkpt lat="46.9499" lon="8.72487">
        <ele>1435</ele>
        <time>2021-08-06T10:49:56.973Z</time>
      </trkpt>
      <trkpt lat="46.94989" lon="8.72486">
        <ele>1435</ele>
        <time>2021-08-06T10:49:57.973Z</time>
      </trkpt>
      <trkpt lat="46.94988" lon="8.72484">
        <ele>1434</ele>
        <time>2021-08-06T10:49:58.974Z</time>
      </trkpt>
      <trkpt lat="46.94987" lon="8.72482">
        <ele>1434</ele>
        <time>2021-08-06T10:49:59.974Z</time>
      </trkpt>
      <trkpt lat="46.94986" lon="8.72481">
        <ele>1434</ele>
        <time>2021-08-06T10:50:00.974Z</time>
      </trkpt>
      <trkpt lat="46.94986" lon="8.7248">
        <ele>1433</ele>
        <time>2021-08-06T10:50:01.974Z</time>
      </trkpt>
      <trkpt lat="46.94986" lon="8.72478">
        <ele>1433</ele>
        <time>2021-08-06T10:50:02.974Z</time>
      </trkpt>
      <trkpt lat="46.94986" lon="8.72477">
        <ele>1433</ele>
        <time>2021-08-06T10:50:03.973Z</time>
      </trkpt>
      <trkpt lat="46.94985" lon="8.72476">
        <ele>1433</ele>
        <time>2021-08-06T10:50:04.973Z</time>
      </trkpt>
      <trkpt lat="46.94985" lon="8.72475">
        <ele>1433</ele>
        <time>2021-08-06T10:50:05.973Z</time>
      </trkpt>
      <trkpt lat="46.94984" lon="8.72474">
        <ele>1433</ele>
        <time>2021-08-06T10:50:06.973Z</time>
      </trkpt>
      <trkpt lat="46.94983" lon="8.72473">
        <ele>1433</ele>
        <time>2021-08-06T10:50:07.974Z</time>
      </trkpt>
      <trkpt lat="46.94983" lon="8.72472">
        <ele>1432</ele>
        <time>2021-08-06T10:50:08.973Z</time>
      </trkpt>
      <trkpt lat="46.94982" lon="8.7247">
        <ele>1432</ele>
        <time>2021-08-06T10:50:09.973Z</time>
      </trkpt>
      <trkpt lat="46.94982" lon="8.72469">
        <ele>1432</ele>
        <time>2021-08-06T10:50:10.973Z</time>
      </trkpt>
      <trkpt lat="46.94982" lon="8.72467">
        <ele>1431</ele>
        <time>2021-08-06T10:50:11.973Z</time>
      </trkpt>
      <trkpt lat="46.94981" lon="8.72465">
        <ele>1430</ele>
        <time>2021-08-06T10:50:12.973Z</time>
      </trkpt>
      <trkpt lat="46.94981" lon="8.72463">
        <ele>1428</ele>
        <time>2021-08-06T10:50:13.974Z</time>
      </trkpt>
      <trkpt lat="46.9498" lon="8.72461">
        <ele>1427</ele>
        <time>2021-08-06T10:50:14.973Z</time>
      </trkpt>
      <trkpt lat="46.94979" lon="8.7246">
        <ele>1426</ele>
        <time>2021-08-06T10:50:15.973Z</time>
      </trkpt>
      <trkpt lat="46.94978" lon="8.72459">
        <ele>1425</ele>
        <time>2021-08-06T10:50:16.974Z</time>
      </trkpt>
      <trkpt lat="46.94977" lon="8.72458">
        <ele>1425</ele>
        <time>2021-08-06T10:50:17.973Z</time>
      </trkpt>
      <trkpt lat="46.94977" lon="8.72457">
        <ele>1424</ele>
        <time>2021-08-06T10:50:18.973Z</time>
      </trkpt>
      <trkpt lat="46.94976" lon="8.72455">
        <ele>1424</ele>
        <time>2021-08-06T10:50:19.973Z</time>
      </trkpt>
      <trkpt lat="46.94976" lon="8.72454">
        <ele>1423</ele>
        <time>2021-08-06T10:50:20.974Z</time>
      </trkpt>
      <trkpt lat="46.94976" lon="8.72452">
        <ele>1423</ele>
        <time>2021-08-06T10:50:21.974Z</time>
      </trkpt>
      <trkpt lat="46.94975" lon="8.72451">
        <ele>1422</ele>
        <time>2021-08-06T10:50:22.974Z</time>
      </trkpt>
      <trkpt lat="46.94974" lon="8.7245">
        <ele>1421</ele>
        <time>2021-08-06T10:50:23.973Z</time>
      </trkpt>
      <trkpt lat="46.94973" lon="8.72448">
        <ele>1420</ele>
        <time>2021-08-06T10:50:24.974Z</time>
      </trkpt>
      <trkpt lat="46.94972" lon="8.72447">
        <ele>1419</ele>
        <time>2021-08-06T10:50:25.974Z</time>
      </trkpt>
      <trkpt lat="46.94972" lon="8.72445">
        <ele>1419</ele>
        <time>2021-08-06T10:50:26.974Z</time>
      </trkpt>
      <trkpt lat="46.94972" lon="8.72444">
        <ele>1418</ele>
        <time>2021-08-06T10:50:27.973Z</time>
      </trkpt>
      <trkpt lat="46.94972" lon="8.72443">
        <ele>1418</ele>
        <time>2021-08-06T10:50:28.974Z</time>
      </trkpt>
      <trkpt lat="46.94971" lon="8.72441">
        <ele>1419</ele>
        <time>2021-08-06T10:50:29.974Z</time>
      </trkpt>
      <trkpt lat="46.94971" lon="8.7244">
        <ele>1419</ele>
        <time>2021-08-06T10:50:30.974Z</time>
      </trkpt>
      <trkpt lat="46.94971" lon="8.72438">
        <ele>1419</ele>
        <time>2021-08-06T10:50:31.974Z</time>
      </trkpt>
      <trkpt lat="46.94972" lon="8.72436">
        <ele>1419</ele>
        <time>2021-08-06T10:50:32.973Z</time>
      </trkpt>
      <trkpt lat="46.94971" lon="8.72434">
        <ele>1419</ele>
        <time>2021-08-06T10:50:33.974Z</time>
      </trkpt>
      <trkpt lat="46.94971" lon="8.72432">
        <ele>1419</ele>
        <time>2021-08-06T10:50:34.974Z</time>
      </trkpt>
      <trkpt lat="46.9497" lon="8.7243">
        <ele>1419</ele>
        <time>2021-08-06T10:50:35.974Z</time>
      </trkpt>
      <trkpt lat="46.9497" lon="8.72429">
        <ele>1418</ele>
        <time>2021-08-06T10:50:36.973Z</time>
      </trkpt>
      <trkpt lat="46.94969" lon="8.72428">
        <ele>1418</ele>
        <time>2021-08-06T10:50:37.974Z</time>
      </trkpt>
      <trkpt lat="46.94968" lon="8.72427">
        <ele>1417</ele>
        <time>2021-08-06T10:50:38.974Z</time>
      </trkpt>
      <trkpt lat="46.94967" lon="8.72425">
        <ele>1417</ele>
        <time>2021-08-06T10:50:39.974Z</time>
      </trkpt>
      <trkpt lat="46.94967" lon="8.72423">
        <ele>1416</ele>
        <time>2021-08-06T10:50:40.974Z</time>
      </trkpt>
      <trkpt lat="46.94967" lon="8.72422">
        <ele>1416</ele>
        <time>2021-08-06T10:50:41.974Z</time>
      </trkpt>
      <trkpt lat="46.94966" lon="8.72421">
        <ele>1416</ele>
        <time>2021-08-06T10:50:42.973Z</time>
      </trkpt>
      <trkpt lat="46.94966" lon="8.72419">
        <ele>1416</ele>
        <time>2021-08-06T10:50:43.973Z</time>
      </trkpt>
      <trkpt lat="46.94965" lon="8.72417">
        <ele>1415</ele>
        <time>2021-08-06T10:50:44.974Z</time>
      </trkpt>
      <trkpt lat="46.94965" lon="8.72415">
        <ele>1415</ele>
        <time>2021-08-06T10:50:45.974Z</time>
      </trkpt>
      <trkpt lat="46.94964" lon="8.72414">
        <ele>1415</ele>
        <time>2021-08-06T10:50:46.974Z</time>
      </trkpt>
      <trkpt lat="46.94964" lon="8.72412">
        <ele>1415</ele>
        <time>2021-08-06T10:50:47.973Z</time>
      </trkpt>
      <trkpt lat="46.94963" lon="8.7241">
        <ele>1416</ele>
        <time>2021-08-06T10:50:48.974Z</time>
      </trkpt>
      <trkpt lat="46.94963" lon="8.72408">
        <ele>1416</ele>
        <time>2021-08-06T10:50:49.974Z</time>
      </trkpt>
      <trkpt lat="46.94963" lon="8.72406">
        <ele>1417</ele>
        <time>2021-08-06T10:50:50.974Z</time>
      </trkpt>
      <trkpt lat="46.94963" lon="8.72405">
        <ele>1417</ele>
        <time>2021-08-06T10:50:51.974Z</time>
      </trkpt>
      <trkpt lat="46.94963" lon="8.72403">
        <ele>1418</ele>
        <time>2021-08-06T10:50:52.974Z</time>
      </trkpt>
      <trkpt lat="46.94963" lon="8.72402">
        <ele>1418</ele>
        <time>2021-08-06T10:50:53.973Z</time>
      </trkpt>
      <trkpt lat="46.94963" lon="8.724">
        <ele>1419</ele>
        <time>2021-08-06T10:50:54.973Z</time>
      </trkpt>
      <trkpt lat="46.94962" lon="8.72398">
        <ele>1419</ele>
        <time>2021-08-06T10:50:55.973Z</time>
      </trkpt>
      <trkpt lat="46.94962" lon="8.72397">
        <ele>1419</ele>
        <time>2021-08-06T10:50:56.974Z</time>
      </trkpt>
      <trkpt lat="46.94962" lon="8.72395">
        <ele>1419</ele>
        <time>2021-08-06T10:50:57.974Z</time>
      </trkpt>
      <trkpt lat="46.94962" lon="8.72394">
        <ele>1419</ele>
        <time>2021-08-06T10:50:58.973Z</time>
      </trkpt>
      <trkpt lat="46.94962" lon="8.72392">
        <ele>1419</ele>
        <time>2021-08-06T10:50:59.974Z</time>
      </trkpt>
      <trkpt lat="46.94962" lon="8.72391">
        <ele>1418</ele>
        <time>2021-08-06T10:51:00.974Z</time>
      </trkpt>
      <trkpt lat="46.94961" lon="8.72389">
        <ele>1418</ele>
        <time>2021-08-06T10:51:01.973Z</time>
      </trkpt>
      <trkpt lat="46.94961" lon="8.72388">
        <ele>1418</ele>
        <time>2021-08-06T10:51:02.974Z</time>
      </trkpt>
      <trkpt lat="46.94961" lon="8.72387">
        <ele>1418</ele>
        <time>2021-08-06T10:51:03.974Z</time>
      </trkpt>
      <trkpt lat="46.94961" lon="8.72385">
        <ele>1418</ele>
        <time>2021-08-06T10:51:04.973Z</time>
      </trkpt>
      <trkpt lat="46.94961" lon="8.72383">
        <ele>1417</ele>
        <time>2021-08-06T10:51:05.974Z</time>
      </trkpt>
      <trkpt lat="46.94961" lon="8.72381">
        <ele>1417</ele>
        <time>2021-08-06T10:51:06.974Z</time>
      </trkpt>
      <trkpt lat="46.94961" lon="8.72379">
        <ele>1416</ele>
        <time>2021-08-06T10:51:07.974Z</time>
      </trkpt>
      <trkpt lat="46.94961" lon="8.72377">
        <ele>1415</ele>
        <time>2021-08-06T10:51:08.974Z</time>
      </trkpt>
      <trkpt lat="46.94961" lon="8.72376">
        <ele>1416</ele>
        <time>2021-08-06T10:51:09.973Z</time>
      </trkpt>
      <trkpt lat="46.9496" lon="8.72375">
        <ele>1416</ele>
        <time>2021-08-06T10:51:10.974Z</time>
      </trkpt>
      <trkpt lat="46.9496" lon="8.72374">
        <ele>1417</ele>
        <time>2021-08-06T10:51:11.974Z</time>
      </trkpt>
      <trkpt lat="46.9496" lon="8.72372">
        <ele>1417</ele>
        <time>2021-08-06T10:51:12.974Z</time>
      </trkpt>
      <trkpt lat="46.9496" lon="8.72371">
        <ele>1417</ele>
        <time>2021-08-06T10:51:13.974Z</time>
      </trkpt>
      <trkpt lat="46.9496" lon="8.72369">
        <ele>1418</ele>
        <time>2021-08-06T10:51:14.974Z</time>
      </trkpt>
      <trkpt lat="46.9496" lon="8.72367">
        <ele>1418</ele>
        <time>2021-08-06T10:51:15.974Z</time>
      </trkpt>
      <trkpt lat="46.94959" lon="8.72366">
        <ele>1418</ele>
        <time>2021-08-06T10:51:16.974Z</time>
      </trkpt>
      <trkpt lat="46.94959" lon="8.72364">
        <ele>1418</ele>
        <time>2021-08-06T10:51:17.974Z</time>
      </trkpt>
      <trkpt lat="46.94959" lon="8.72362">
        <ele>1418</ele>
        <time>2021-08-06T10:51:22.082Z</time>
      </trkpt>
      <trkpt lat="46.94959" lon="8.72361">
        <ele>1418</ele>
        <time>2021-08-06T10:51:24.830Z</time>
      </trkpt>
      <trkpt lat="46.94959" lon="8.72359">
        <ele>1418</ele>
        <time>2021-08-06T10:51:25.830Z</time>
      </trkpt>
      <trkpt lat="46.94959" lon="8.72357">
        <ele>1418</ele>
        <time>2021-08-06T10:51:26.830Z</time>
      </trkpt>
      <trkpt lat="46.94959" lon="8.72356">
        <ele>1418</ele>
        <time>2021-08-06T10:51:28.561Z</time>
      </trkpt>
      <trkpt lat="46.94959" lon="8.72354">
        <ele>1418</ele>
        <time>2021-08-06T10:51:29.561Z</time>
      </trkpt>
      <trkpt lat="46.94959" lon="8.72352">
        <ele>1418</ele>
        <time>2021-08-06T10:51:30.561Z</time>
      </trkpt>
      <trkpt lat="46.94959" lon="8.72351">
        <ele>1418</ele>
        <time>2021-08-06T10:51:31.561Z</time>
      </trkpt>
      <trkpt lat="46.9496" lon="8.72349">
        <ele>1418</ele>
        <time>2021-08-06T10:51:32.560Z</time>
      </trkpt>
      <trkpt lat="46.9496" lon="8.72348">
        <ele>1419</ele>
        <time>2021-08-06T10:51:33.560Z</time>
      </trkpt>
      <trkpt lat="46.9496" lon="8.72347">
        <ele>1419</ele>
        <time>2021-08-06T10:51:34.561Z</time>
      </trkpt>
      <trkpt lat="46.9496" lon="8.72345">
        <ele>1419</ele>
        <time>2021-08-06T10:51:35.561Z</time>
      </trkpt>
      <trkpt lat="46.94961" lon="8.72343">
        <ele>1418</ele>
        <time>2021-08-06T10:51:36.561Z</time>
      </trkpt>
      <trkpt lat="46.94961" lon="8.72341">
        <ele>1417</ele>
        <time>2021-08-06T10:51:37.560Z</time>
      </trkpt>
      <trkpt lat="46.94961" lon="8.72339">
        <ele>1417</ele>
        <time>2021-08-06T10:51:38.560Z</time>
      </trkpt>
      <trkpt lat="46.94962" lon="8.72337">
        <ele>1416</ele>
        <time>2021-08-06T10:51:39.560Z</time>
      </trkpt>
      <trkpt lat="46.94962" lon="8.72335">
        <ele>1416</ele>
        <time>2021-08-06T10:51:40.561Z</time>
      </trkpt>
      <trkpt lat="46.94962" lon="8.72333">
        <ele>1415</ele>
        <time>2021-08-06T10:51:41.561Z</time>
      </trkpt>
      <trkpt lat="46.94963" lon="8.72331">
        <ele>1414</ele>
        <time>2021-08-06T10:51:42.561Z</time>
      </trkpt>
      <trkpt lat="46.94963" lon="8.72329">
        <ele>1414</ele>
        <time>2021-08-06T10:51:43.560Z</time>
      </trkpt>
      <trkpt lat="46.94963" lon="8.72327">
        <ele>1414</ele>
        <time>2021-08-06T10:51:44.561Z</time>
      </trkpt>
      <trkpt lat="46.94963" lon="8.72325">
        <ele>1413</ele>
        <time>2021-08-06T10:51:45.561Z</time>
      </trkpt>
      <trkpt lat="46.94963" lon="8.72324">
        <ele>1414</ele>
        <time>2021-08-06T10:51:46.561Z</time>
      </trkpt>
      <trkpt lat="46.94964" lon="8.72322">
        <ele>1414</ele>
        <time>2021-08-06T10:51:47.561Z</time>
      </trkpt>
      <trkpt lat="46.94964" lon="8.72321">
        <ele>1414</ele>
        <time>2021-08-06T10:51:48.560Z</time>
      </trkpt>
      <trkpt lat="46.94965" lon="8.72319">
        <ele>1414</ele>
        <time>2021-08-06T10:51:49.561Z</time>
      </trkpt>
      <trkpt lat="46.94966" lon="8.72318">
        <ele>1414</ele>
        <time>2021-08-06T10:51:50.561Z</time>
      </trkpt>
      <trkpt lat="46.94967" lon="8.72317">
        <ele>1415</ele>
        <time>2021-08-06T10:51:51.560Z</time>
      </trkpt>
      <trkpt lat="46.94969" lon="8.72316">
        <ele>1416</ele>
        <time>2021-08-06T10:51:52.560Z</time>
      </trkpt>
      <trkpt lat="46.9497" lon="8.72315">
        <ele>1416</ele>
        <time>2021-08-06T10:51:53.561Z</time>
      </trkpt>
      <trkpt lat="46.94971" lon="8.72314">
        <ele>1417</ele>
        <time>2021-08-06T10:51:54.561Z</time>
      </trkpt>
      <trkpt lat="46.94972" lon="8.72313">
        <ele>1417</ele>
        <time>2021-08-06T10:51:55.561Z</time>
      </trkpt>
      <trkpt lat="46.94973" lon="8.72313">
        <ele>1418</ele>
        <time>2021-08-06T10:51:56.561Z</time>
      </trkpt>
      <trkpt lat="46.94973" lon="8.72312">
        <ele>1418</ele>
        <time>2021-08-06T10:51:57.561Z</time>
      </trkpt>
      <trkpt lat="46.94974" lon="8.72312">
        <ele>1418</ele>
        <time>2021-08-06T10:51:58.561Z</time>
      </trkpt>
      <trkpt lat="46.94975" lon="8.72311">
        <ele>1417</ele>
        <time>2021-08-06T10:51:59.561Z</time>
      </trkpt>
      <trkpt lat="46.94975" lon="8.7231">
        <ele>1417</ele>
        <time>2021-08-06T10:52:00.561Z</time>
      </trkpt>
      <trkpt lat="46.94976" lon="8.72309">
        <ele>1416</ele>
        <time>2021-08-06T10:52:01.561Z</time>
      </trkpt>
      <trkpt lat="46.94977" lon="8.72309">
        <ele>1415</ele>
        <time>2021-08-06T10:52:02.560Z</time>
      </trkpt>
      <trkpt lat="46.94977" lon="8.72309">
        <ele>1415</ele>
        <time>2021-08-06T10:52:03.561Z</time>
      </trkpt>
      <trkpt lat="46.94977" lon="8.7231">
        <ele>1414</ele>
        <time>2021-08-06T10:52:04.560Z</time>
      </trkpt>
      <trkpt lat="46.94978" lon="8.7231">
        <ele>1414</ele>
        <time>2021-08-06T10:52:05.561Z</time>
      </trkpt>
      <trkpt lat="46.94978" lon="8.72311">
        <ele>1414</ele>
        <time>2021-08-06T10:52:06.561Z</time>
      </trkpt>
      <trkpt lat="46.94978" lon="8.72312">
        <ele>1413</ele>
        <time>2021-08-06T10:52:07.560Z</time>
      </trkpt>
      <trkpt lat="46.94979" lon="8.72313">
        <ele>1412</ele>
        <time>2021-08-06T10:52:10.559Z</time>
      </trkpt>
      <trkpt lat="46.94979" lon="8.72313">
        <ele>1412</ele>
        <time>2021-08-06T10:52:14.356Z</time>
      </trkpt>
      <trkpt lat="46.9498" lon="8.72314">
        <ele>1411</ele>
        <time>2021-08-06T10:52:15.356Z</time>
      </trkpt>
      <trkpt lat="46.94981" lon="8.72314">
        <ele>1411</ele>
        <time>2021-08-06T10:52:16.356Z</time>
      </trkpt>
      <trkpt lat="46.94981" lon="8.72315">
        <ele>1410</ele>
        <time>2021-08-06T10:52:17.355Z</time>
      </trkpt>
      <trkpt lat="46.94982" lon="8.72315">
        <ele>1410</ele>
        <time>2021-08-06T10:52:18.356Z</time>
      </trkpt>
      <trkpt lat="46.94983" lon="8.72316">
        <ele>1410</ele>
        <time>2021-08-06T10:52:24.492Z</time>
      </trkpt>
      <trkpt lat="46.94983" lon="8.72317">
        <ele>1409</ele>
        <time>2021-08-06T10:52:25.492Z</time>
      </trkpt>
      <trkpt lat="46.94984" lon="8.72317">
        <ele>1409</ele>
        <time>2021-08-06T10:52:26.493Z</time>
      </trkpt>
      <trkpt lat="46.94985" lon="8.72318">
        <ele>1408</ele>
        <time>2021-08-06T10:52:48.597Z</time>
      </trkpt>
      <trkpt lat="46.94985" lon="8.72318">
        <ele>1408</ele>
        <time>2021-08-06T10:52:50.435Z</time>
      </trkpt>
      <trkpt lat="46.94986" lon="8.72319">
        <ele>1407</ele>
        <time>2021-08-06T10:52:51.435Z</time>
      </trkpt>
      <trkpt lat="46.94987" lon="8.72319">
        <ele>1407</ele>
        <time>2021-08-06T10:52:52.435Z</time>
      </trkpt>
      <trkpt lat="46.94987" lon="8.72318">
        <ele>1406</ele>
        <time>2021-08-06T10:52:53.436Z</time>
      </trkpt>
      <trkpt lat="46.94988" lon="8.72318">
        <ele>1406</ele>
        <time>2021-08-06T10:53:01.467Z</time>
      </trkpt>
      <trkpt lat="46.94989" lon="8.72318">
        <ele>1406</ele>
        <time>2021-08-06T10:53:02.467Z</time>
      </trkpt>
      <trkpt lat="46.9499" lon="8.72318">
        <ele>1406</ele>
        <time>2021-08-06T10:53:03.467Z</time>
      </trkpt>
      <trkpt lat="46.9499" lon="8.72317">
        <ele>1406</ele>
        <time>2021-08-06T10:53:04.467Z</time>
      </trkpt>
      <trkpt lat="46.94991" lon="8.72316">
        <ele>1406</ele>
        <time>2021-08-06T10:53:05.467Z</time>
      </trkpt>
      <trkpt lat="46.94992" lon="8.72315">
        <ele>1406</ele>
        <time>2021-08-06T10:53:06.467Z</time>
      </trkpt>
      <trkpt lat="46.94992" lon="8.72315">
        <ele>1406</ele>
        <time>2021-08-06T10:53:07.467Z</time>
      </trkpt>
      <trkpt lat="46.94993" lon="8.72315">
        <ele>1406</ele>
        <time>2021-08-06T10:53:08.467Z</time>
      </trkpt>
      <trkpt lat="46.94994" lon="8.72314">
        <ele>1407</ele>
        <time>2021-08-06T10:53:09.467Z</time>
      </trkpt>
      <trkpt lat="46.94994" lon="8.72312">
        <ele>1407</ele>
        <time>2021-08-06T10:53:10.467Z</time>
      </trkpt>
      <trkpt lat="46.94995" lon="8.72312">
        <ele>1408</ele>
        <time>2021-08-06T10:53:11.467Z</time>
      </trkpt>
      <trkpt lat="46.94995" lon="8.72311">
        <ele>1409</ele>
        <time>2021-08-06T10:53:12.467Z</time>
      </trkpt>
      <trkpt lat="46.94996" lon="8.7231">
        <ele>1409</ele>
        <time>2021-08-06T10:53:13.466Z</time>
      </trkpt>
      <trkpt lat="46.94996" lon="8.7231">
        <ele>1410</ele>
        <time>2021-08-06T10:53:14.467Z</time>
      </trkpt>
      <trkpt lat="46.94997" lon="8.72309">
        <ele>1411</ele>
        <time>2021-08-06T10:53:15.466Z</time>
      </trkpt>
      <trkpt lat="46.94998" lon="8.72309">
        <ele>1411</ele>
        <time>2021-08-06T10:53:16.467Z</time>
      </trkpt>
      <trkpt lat="46.94999" lon="8.72309">
        <ele>1412</ele>
        <time>2021-08-06T10:53:17.467Z</time>
      </trkpt>
      <trkpt lat="46.94999" lon="8.72308">
        <ele>1412</ele>
        <time>2021-08-06T10:53:18.467Z</time>
      </trkpt>
      <trkpt lat="46.95" lon="8.72307">
        <ele>1413</ele>
        <time>2021-08-06T10:53:19.466Z</time>
      </trkpt>
      <trkpt lat="46.95001" lon="8.72306">
        <ele>1413</ele>
        <time>2021-08-06T10:53:20.467Z</time>
      </trkpt>
      <trkpt lat="46.95002" lon="8.72305">
        <ele>1413</ele>
        <time>2021-08-06T10:53:21.466Z</time>
      </trkpt>
      <trkpt lat="46.95003" lon="8.72304">
        <ele>1414</ele>
        <time>2021-08-06T10:53:22.467Z</time>
      </trkpt>
      <trkpt lat="46.95004" lon="8.72304">
        <ele>1415</ele>
        <time>2021-08-06T10:53:23.466Z</time>
      </trkpt>
      <trkpt lat="46.95005" lon="8.72303">
        <ele>1415</ele>
        <time>2021-08-06T10:53:24.466Z</time>
      </trkpt>
      <trkpt lat="46.95006" lon="8.72302">
        <ele>1416</ele>
        <time>2021-08-06T10:53:25.467Z</time>
      </trkpt>
      <trkpt lat="46.95007" lon="8.72301">
        <ele>1416</ele>
        <time>2021-08-06T10:53:26.467Z</time>
      </trkpt>
      <trkpt lat="46.95007" lon="8.723">
        <ele>1417</ele>
        <time>2021-08-06T10:53:27.467Z</time>
      </trkpt>
      <trkpt lat="46.95008" lon="8.72299">
        <ele>1418</ele>
        <time>2021-08-06T10:53:28.467Z</time>
      </trkpt>
      <trkpt lat="46.95008" lon="8.72298">
        <ele>1418</ele>
        <time>2021-08-06T10:53:29.466Z</time>
      </trkpt>
      <trkpt lat="46.95008" lon="8.72297">
        <ele>1418</ele>
        <time>2021-08-06T10:53:30.467Z</time>
      </trkpt>
      <trkpt lat="46.95009" lon="8.72296">
        <ele>1418</ele>
        <time>2021-08-06T10:53:31.467Z</time>
      </trkpt>
      <trkpt lat="46.9501" lon="8.72296">
        <ele>1419</ele>
        <time>2021-08-06T10:53:32.467Z</time>
      </trkpt>
      <trkpt lat="46.9501" lon="8.72295">
        <ele>1419</ele>
        <time>2021-08-06T10:53:33.467Z</time>
      </trkpt>
      <trkpt lat="46.95011" lon="8.72295">
        <ele>1420</ele>
        <time>2021-08-06T10:53:34.467Z</time>
      </trkpt>
      <trkpt lat="46.95011" lon="8.72294">
        <ele>1421</ele>
        <time>2021-08-06T10:53:35.467Z</time>
      </trkpt>
      <trkpt lat="46.95012" lon="8.72293">
        <ele>1422</ele>
        <time>2021-08-06T10:53:36.467Z</time>
      </trkpt>
      <trkpt lat="46.95012" lon="8.72293">
        <ele>1423</ele>
        <time>2021-08-06T10:53:37.466Z</time>
      </trkpt>
      <trkpt lat="46.95013" lon="8.72292">
        <ele>1423</ele>
        <time>2021-08-06T10:53:38.467Z</time>
      </trkpt>
      <trkpt lat="46.95013" lon="8.72291">
        <ele>1423</ele>
        <time>2021-08-06T10:53:39.467Z</time>
      </trkpt>
      <trkpt lat="46.95013" lon="8.72291">
        <ele>1423</ele>
        <time>2021-08-06T10:53:40.467Z</time>
      </trkpt>
      <trkpt lat="46.95014" lon="8.7229">
        <ele>1423</ele>
        <time>2021-08-06T10:53:41.466Z</time>
      </trkpt>
      <trkpt lat="46.95014" lon="8.72289">
        <ele>1423</ele>
        <time>2021-08-06T10:53:42.466Z</time>
      </trkpt>
      <trkpt lat="46.95015" lon="8.72288">
        <ele>1422</ele>
        <time>2021-08-06T10:53:43.467Z</time>
      </trkpt>
      <trkpt lat="46.95015" lon="8.72287">
        <ele>1422</ele>
        <time>2021-08-06T10:53:44.466Z</time>
      </trkpt>
      <trkpt lat="46.95015" lon="8.72286">
        <ele>1422</ele>
        <time>2021-08-06T10:53:45.466Z</time>
      </trkpt>
      <trkpt lat="46.95016" lon="8.72285">
        <ele>1422</ele>
        <time>2021-08-06T10:53:46.467Z</time>
      </trkpt>
      <trkpt lat="46.95016" lon="8.72284">
        <ele>1422</ele>
        <time>2021-08-06T10:53:47.466Z</time>
      </trkpt>
      <trkpt lat="46.95017" lon="8.72284">
        <ele>1423</ele>
        <time>2021-08-06T10:53:48.466Z</time>
      </trkpt>
      <trkpt lat="46.95017" lon="8.72282">
        <ele>1423</ele>
        <time>2021-08-06T10:53:49.467Z</time>
      </trkpt>
      <trkpt lat="46.95018" lon="8.72282">
        <ele>1423</ele>
        <time>2021-08-06T10:53:50.467Z</time>
      </trkpt>
      <trkpt lat="46.95018" lon="8.72281">
        <ele>1423</ele>
        <time>2021-08-06T10:53:51.467Z</time>
      </trkpt>
      <trkpt lat="46.95019" lon="8.72279">
        <ele>1422</ele>
        <time>2021-08-06T10:53:52.467Z</time>
      </trkpt>
      <trkpt lat="46.95019" lon="8.72279">
        <ele>1422</ele>
        <time>2021-08-06T10:53:53.467Z</time>
      </trkpt>
      <trkpt lat="46.9502" lon="8.72278">
        <ele>1422</ele>
        <time>2021-08-06T10:53:54.466Z</time>
      </trkpt>
      <trkpt lat="46.9502" lon="8.72277">
        <ele>1422</ele>
        <time>2021-08-06T10:53:55.467Z</time>
      </trkpt>
      <trkpt lat="46.9502" lon="8.72276">
        <ele>1422</ele>
        <time>2021-08-06T10:53:56.466Z</time>
      </trkpt>
      <trkpt lat="46.9502" lon="8.72275">
        <ele>1422</ele>
        <time>2021-08-06T10:53:57.467Z</time>
      </trkpt>
      <trkpt lat="46.95021" lon="8.72274">
        <ele>1422</ele>
        <time>2021-08-06T10:53:58.467Z</time>
      </trkpt>
      <trkpt lat="46.95021" lon="8.72273">
        <ele>1422</ele>
        <time>2021-08-06T10:53:59.467Z</time>
      </trkpt>
      <trkpt lat="46.95021" lon="8.72272">
        <ele>1422</ele>
        <time>2021-08-06T10:54:00.467Z</time>
      </trkpt>
      <trkpt lat="46.95021" lon="8.72272">
        <ele>1422</ele>
        <time>2021-08-06T10:54:01.467Z</time>
      </trkpt>
      <trkpt lat="46.95022" lon="8.72271">
        <ele>1422</ele>
        <time>2021-08-06T10:54:02.467Z</time>
      </trkpt>
      <trkpt lat="46.95022" lon="8.7227">
        <ele>1422</ele>
        <time>2021-08-06T10:54:03.467Z</time>
      </trkpt>
      <trkpt lat="46.95023" lon="8.72269">
        <ele>1422</ele>
        <time>2021-08-06T10:54:04.467Z</time>
      </trkpt>
      <trkpt lat="46.95024" lon="8.72269">
        <ele>1422</ele>
        <time>2021-08-06T10:54:05.466Z</time>
      </trkpt>
      <trkpt lat="46.95024" lon="8.72268">
        <ele>1422</ele>
        <time>2021-08-06T10:54:06.467Z</time>
      </trkpt>
      <trkpt lat="46.95025" lon="8.72269">
        <ele>1422</ele>
        <time>2021-08-06T10:54:07.467Z</time>
      </trkpt>
      <trkpt lat="46.95026" lon="8.72268">
        <ele>1422</ele>
        <time>2021-08-06T10:54:08.467Z</time>
      </trkpt>
      <trkpt lat="46.95026" lon="8.72268">
        <ele>1422</ele>
        <time>2021-08-06T10:54:09.466Z</time>
      </trkpt>
      <trkpt lat="46.95027" lon="8.72268">
        <ele>1423</ele>
        <time>2021-08-06T10:54:10.467Z</time>
      </trkpt>
      <trkpt lat="46.95028" lon="8.72269">
        <ele>1423</ele>
        <time>2021-08-06T10:54:11.466Z</time>
      </trkpt>
      <trkpt lat="46.95028" lon="8.72269">
        <ele>1424</ele>
        <time>2021-08-06T10:54:12.466Z</time>
      </trkpt>
      <trkpt lat="46.95029" lon="8.72268">
        <ele>1424</ele>
        <time>2021-08-06T10:54:13.466Z</time>
      </trkpt>
      <trkpt lat="46.9503" lon="8.72268">
        <ele>1424</ele>
        <time>2021-08-06T10:54:14.467Z</time>
      </trkpt>
      <trkpt lat="46.95031" lon="8.72268">
        <ele>1424</ele>
        <time>2021-08-06T10:54:15.467Z</time>
      </trkpt>
      <trkpt lat="46.95031" lon="8.72268">
        <ele>1423</ele>
        <time>2021-08-06T10:54:16.467Z</time>
      </trkpt>
      <trkpt lat="46.95032" lon="8.72268">
        <ele>1423</ele>
        <time>2021-08-06T10:54:17.466Z</time>
      </trkpt>
      <trkpt lat="46.95032" lon="8.72268">
        <ele>1423</ele>
        <time>2021-08-06T10:54:18.466Z</time>
      </trkpt>
      <trkpt lat="46.95033" lon="8.72268">
        <ele>1423</ele>
        <time>2021-08-06T10:54:19.466Z</time>
      </trkpt>
      <trkpt lat="46.95034" lon="8.72268">
        <ele>1423</ele>
        <time>2021-08-06T10:54:20.467Z</time>
      </trkpt>
      <trkpt lat="46.95034" lon="8.72269">
        <ele>1423</ele>
        <time>2021-08-06T10:54:21.467Z</time>
      </trkpt>
      <trkpt lat="46.95035" lon="8.7227">
        <ele>1423</ele>
        <time>2021-08-06T10:54:22.466Z</time>
      </trkpt>
      <trkpt lat="46.95036" lon="8.72271">
        <ele>1423</ele>
        <time>2021-08-06T10:54:23.466Z</time>
      </trkpt>
      <trkpt lat="46.95036" lon="8.72272">
        <ele>1424</ele>
        <time>2021-08-06T10:54:24.467Z</time>
      </trkpt>
      <trkpt lat="46.95037" lon="8.72273">
        <ele>1425</ele>
        <time>2021-08-06T10:54:25.467Z</time>
      </trkpt>
      <trkpt lat="46.95037" lon="8.72274">
        <ele>1425</ele>
        <time>2021-08-06T10:54:26.467Z</time>
      </trkpt>
      <trkpt lat="46.95038" lon="8.72275">
        <ele>1426</ele>
        <time>2021-08-06T10:54:27.467Z</time>
      </trkpt>
      <trkpt lat="46.95038" lon="8.72275">
        <ele>1426</ele>
        <time>2021-08-06T10:54:28.467Z</time>
      </trkpt>
      <trkpt lat="46.95039" lon="8.72275">
        <ele>1427</ele>
        <time>2021-08-06T10:54:29.466Z</time>
      </trkpt>
      <trkpt lat="46.9504" lon="8.72275">
        <ele>1427</ele>
        <time>2021-08-06T10:54:30.467Z</time>
      </trkpt>
      <trkpt lat="46.9504" lon="8.72275">
        <ele>1427</ele>
        <time>2021-08-06T10:54:31.466Z</time>
      </trkpt>
      <trkpt lat="46.95041" lon="8.72275">
        <ele>1427</ele>
        <time>2021-08-06T10:54:32.467Z</time>
      </trkpt>
      <trkpt lat="46.95041" lon="8.72274">
        <ele>1427</ele>
        <time>2021-08-06T10:54:33.466Z</time>
      </trkpt>
      <trkpt lat="46.95042" lon="8.72274">
        <ele>1427</ele>
        <time>2021-08-06T10:54:34.466Z</time>
      </trkpt>
      <trkpt lat="46.95042" lon="8.72275">
        <ele>1427</ele>
        <time>2021-08-06T10:54:35.467Z</time>
      </trkpt>
      <trkpt lat="46.95043" lon="8.72275">
        <ele>1427</ele>
        <time>2021-08-06T10:54:36.467Z</time>
      </trkpt>
      <trkpt lat="46.95044" lon="8.72275">
        <ele>1427</ele>
        <time>2021-08-06T10:54:37.466Z</time>
      </trkpt>
      <trkpt lat="46.95045" lon="8.72275">
        <ele>1427</ele>
        <time>2021-08-06T10:54:38.466Z</time>
      </trkpt>
      <trkpt lat="46.95045" lon="8.72276">
        <ele>1428</ele>
        <time>2021-08-06T10:54:39.467Z</time>
      </trkpt>
      <trkpt lat="46.95046" lon="8.72276">
        <ele>1428</ele>
        <time>2021-08-06T10:54:40.467Z</time>
      </trkpt>
      <trkpt lat="46.95047" lon="8.72276">
        <ele>1429</ele>
        <time>2021-08-06T10:54:41.467Z</time>
      </trkpt>
      <trkpt lat="46.95047" lon="8.72276">
        <ele>1429</ele>
        <time>2021-08-06T10:54:42.467Z</time>
      </trkpt>
      <trkpt lat="46.95048" lon="8.72276">
        <ele>1429</ele>
        <time>2021-08-06T10:54:49.489Z</time>
      </trkpt>
      <trkpt lat="46.95049" lon="8.72275">
        <ele>1429</ele>
        <time>2021-08-06T10:54:50.488Z</time>
      </trkpt>
      <trkpt lat="46.9505" lon="8.72275">
        <ele>1429</ele>
        <time>2021-08-06T10:54:53.335Z</time>
      </trkpt>
      <trkpt lat="46.9505" lon="8.72275">
        <ele>1429</ele>
        <time>2021-08-06T10:54:54.335Z</time>
      </trkpt>
      <trkpt lat="46.95051" lon="8.72275">
        <ele>1429</ele>
        <time>2021-08-06T10:54:55.334Z</time>
      </trkpt>
      <trkpt lat="46.95052" lon="8.72274">
        <ele>1429</ele>
        <time>2021-08-06T10:54:56.335Z</time>
      </trkpt>
      <trkpt lat="46.95053" lon="8.72274">
        <ele>1430</ele>
        <time>2021-08-06T10:54:57.335Z</time>
      </trkpt>
      <trkpt lat="46.95053" lon="8.72274">
        <ele>1430</ele>
        <time>2021-08-06T10:54:58.335Z</time>
      </trkpt>
      <trkpt lat="46.95054" lon="8.72275">
        <ele>1430</ele>
        <time>2021-08-06T10:54:59.335Z</time>
      </trkpt>
      <trkpt lat="46.95055" lon="8.72274">
        <ele>1430</ele>
        <time>2021-08-06T10:55:00.334Z</time>
      </trkpt>
      <trkpt lat="46.95056" lon="8.72274">
        <ele>1430</ele>
        <time>2021-08-06T10:55:01.334Z</time>
      </trkpt>
      <trkpt lat="46.95056" lon="8.72274">
        <ele>1430</ele>
        <time>2021-08-06T10:55:02.334Z</time>
      </trkpt>
      <trkpt lat="46.95057" lon="8.72274">
        <ele>1430</ele>
        <time>2021-08-06T10:55:03.335Z</time>
      </trkpt>
      <trkpt lat="46.95058" lon="8.72274">
        <ele>1430</ele>
        <time>2021-08-06T10:55:04.334Z</time>
      </trkpt>
      <trkpt lat="46.95059" lon="8.72275">
        <ele>1430</ele>
        <time>2021-08-06T10:55:05.335Z</time>
      </trkpt>
      <trkpt lat="46.95059" lon="8.72275">
        <ele>1430</ele>
        <time>2021-08-06T10:55:06.335Z</time>
      </trkpt>
      <trkpt lat="46.9506" lon="8.72274">
        <ele>1430</ele>
        <time>2021-08-06T10:55:07.335Z</time>
      </trkpt>
      <trkpt lat="46.95061" lon="8.72274">
        <ele>1430</ele>
        <time>2021-08-06T10:55:08.334Z</time>
      </trkpt>
      <trkpt lat="46.95062" lon="8.72273">
        <ele>1431</ele>
        <time>2021-08-06T10:55:09.335Z</time>
      </trkpt>
      <trkpt lat="46.95063" lon="8.72273">
        <ele>1431</ele>
        <time>2021-08-06T10:55:10.334Z</time>
      </trkpt>
      <trkpt lat="46.95063" lon="8.72272">
        <ele>1431</ele>
        <time>2021-08-06T10:55:11.334Z</time>
      </trkpt>
      <trkpt lat="46.95064" lon="8.72272">
        <ele>1431</ele>
        <time>2021-08-06T10:55:12.335Z</time>
      </trkpt>
      <trkpt lat="46.95065" lon="8.72272">
        <ele>1431</ele>
        <time>2021-08-06T10:55:13.334Z</time>
      </trkpt>
      <trkpt lat="46.95066" lon="8.72272">
        <ele>1431</ele>
        <time>2021-08-06T10:55:14.335Z</time>
      </trkpt>
      <trkpt lat="46.95066" lon="8.72272">
        <ele>1431</ele>
        <time>2021-08-06T10:55:20.479Z</time>
      </trkpt>
      <trkpt lat="46.95067" lon="8.72272">
        <ele>1431</ele>
        <time>2021-08-06T10:55:21.479Z</time>
      </trkpt>
      <trkpt lat="46.95068" lon="8.72272">
        <ele>1431</ele>
        <time>2021-08-06T10:55:22.479Z</time>
      </trkpt>
      <trkpt lat="46.95069" lon="8.72273">
        <ele>1431</ele>
        <time>2021-08-06T10:55:23.480Z</time>
      </trkpt>
      <trkpt lat="46.9507" lon="8.72273">
        <ele>1431</ele>
        <time>2021-08-06T10:55:24.479Z</time>
      </trkpt>
      <trkpt lat="46.95071" lon="8.72273">
        <ele>1431</ele>
        <time>2021-08-06T10:55:25.479Z</time>
      </trkpt>
      <trkpt lat="46.95072" lon="8.72273">
        <ele>1432</ele>
        <time>2021-08-06T10:55:26.479Z</time>
      </trkpt>
      <trkpt lat="46.95073" lon="8.72273">
        <ele>1432</ele>
        <time>2021-08-06T10:55:27.479Z</time>
      </trkpt>
      <trkpt lat="46.95074" lon="8.72273">
        <ele>1432</ele>
        <time>2021-08-06T10:55:28.480Z</time>
      </trkpt>
      <trkpt lat="46.95074" lon="8.72273">
        <ele>1433</ele>
        <time>2021-08-06T10:55:32.589Z</time>
      </trkpt>
      <trkpt lat="46.95075" lon="8.72274">
        <ele>1433</ele>
        <time>2021-08-06T10:55:39.338Z</time>
      </trkpt>
      <trkpt lat="46.95076" lon="8.72274">
        <ele>1433</ele>
        <time>2021-08-06T10:55:40.339Z</time>
      </trkpt>
      <trkpt lat="46.95077" lon="8.72275">
        <ele>1434</ele>
        <time>2021-08-06T10:55:41.339Z</time>
      </trkpt>
      <trkpt lat="46.95078" lon="8.72275">
        <ele>1434</ele>
        <time>2021-08-06T10:55:42.338Z</time>
      </trkpt>
      <trkpt lat="46.95079" lon="8.72276">
        <ele>1434</ele>
        <time>2021-08-06T10:55:43.338Z</time>
      </trkpt>
      <trkpt lat="46.9508" lon="8.72276">
        <ele>1434</ele>
        <time>2021-08-06T10:55:44.338Z</time>
      </trkpt>
      <trkpt lat="46.95081" lon="8.72277">
        <ele>1434</ele>
        <time>2021-08-06T10:55:45.338Z</time>
      </trkpt>
      <trkpt lat="46.95082" lon="8.72278">
        <ele>1435</ele>
        <time>2021-08-06T10:55:46.338Z</time>
      </trkpt>
      <trkpt lat="46.95083" lon="8.72279">
        <ele>1435</ele>
        <time>2021-08-06T10:55:47.338Z</time>
      </trkpt>
      <trkpt lat="46.95084" lon="8.72279">
        <ele>1435</ele>
        <time>2021-08-06T10:55:48.339Z</time>
      </trkpt>
      <trkpt lat="46.95085" lon="8.7228">
        <ele>1435</ele>
        <time>2021-08-06T10:55:49.338Z</time>
      </trkpt>
      <trkpt lat="46.95086" lon="8.7228">
        <ele>1435</ele>
        <time>2021-08-06T10:56:01.453Z</time>
      </trkpt>
      <trkpt lat="46.95087" lon="8.7228">
        <ele>1435</ele>
        <time>2021-08-06T10:56:02.454Z</time>
      </trkpt>
      <trkpt lat="46.95088" lon="8.72281">
        <ele>1435</ele>
        <time>2021-08-06T10:56:03.453Z</time>
      </trkpt>
      <trkpt lat="46.95089" lon="8.72281">
        <ele>1434</ele>
        <time>2021-08-06T10:56:04.453Z</time>
      </trkpt>
      <trkpt lat="46.9509" lon="8.72282">
        <ele>1434</ele>
        <time>2021-08-06T10:56:05.453Z</time>
      </trkpt>
      <trkpt lat="46.95092" lon="8.72282">
        <ele>1434</ele>
        <time>2021-08-06T10:56:06.454Z</time>
      </trkpt>
      <trkpt lat="46.95093" lon="8.72282">
        <ele>1434</ele>
        <time>2021-08-06T10:56:07.454Z</time>
      </trkpt>
      <trkpt lat="46.95094" lon="8.72283">
        <ele>1434</ele>
        <time>2021-08-06T10:56:08.454Z</time>
      </trkpt>
      <trkpt lat="46.95095" lon="8.72283">
        <ele>1434</ele>
        <time>2021-08-06T10:56:09.453Z</time>
      </trkpt>
      <trkpt lat="46.95096" lon="8.72283">
        <ele>1433</ele>
        <time>2021-08-06T10:56:10.454Z</time>
      </trkpt>
      <trkpt lat="46.95097" lon="8.72284">
        <ele>1433</ele>
        <time>2021-08-06T10:56:11.453Z</time>
      </trkpt>
      <trkpt lat="46.95099" lon="8.72284">
        <ele>1433</ele>
        <time>2021-08-06T10:56:12.454Z</time>
      </trkpt>
      <trkpt lat="46.951" lon="8.72285">
        <ele>1432</ele>
        <time>2021-08-06T10:56:13.454Z</time>
      </trkpt>
      <trkpt lat="46.951" lon="8.72285">
        <ele>1432</ele>
        <time>2021-08-06T10:56:14.454Z</time>
      </trkpt>
      <trkpt lat="46.95101" lon="8.72285">
        <ele>1431</ele>
        <time>2021-08-06T10:56:15.453Z</time>
      </trkpt>
      <trkpt lat="46.95103" lon="8.72286">
        <ele>1431</ele>
        <time>2021-08-06T10:56:16.453Z</time>
      </trkpt>
      <trkpt lat="46.95104" lon="8.72286">
        <ele>1430</ele>
        <time>2021-08-06T10:56:17.453Z</time>
      </trkpt>
      <trkpt lat="46.95104" lon="8.72286">
        <ele>1430</ele>
        <time>2021-08-06T10:56:18.453Z</time>
      </trkpt>
      <trkpt lat="46.95105" lon="8.72286">
        <ele>1430</ele>
        <time>2021-08-06T10:56:19.453Z</time>
      </trkpt>
      <trkpt lat="46.95106" lon="8.72286">
        <ele>1431</ele>
        <time>2021-08-06T10:56:20.453Z</time>
      </trkpt>
      <trkpt lat="46.95106" lon="8.72286">
        <ele>1431</ele>
        <time>2021-08-06T10:56:21.453Z</time>
      </trkpt>
      <trkpt lat="46.95107" lon="8.72286">
        <ele>1431</ele>
        <time>2021-08-06T10:56:22.454Z</time>
      </trkpt>
      <trkpt lat="46.95108" lon="8.72286">
        <ele>1432</ele>
        <time>2021-08-06T10:56:23.453Z</time>
      </trkpt>
      <trkpt lat="46.95109" lon="8.72286">
        <ele>1432</ele>
        <time>2021-08-06T10:56:24.453Z</time>
      </trkpt>
      <trkpt lat="46.9511" lon="8.72286">
        <ele>1432</ele>
        <time>2021-08-06T10:56:25.453Z</time>
      </trkpt>
      <trkpt lat="46.95111" lon="8.72287">
        <ele>1433</ele>
        <time>2021-08-06T10:56:26.454Z</time>
      </trkpt>
      <trkpt lat="46.95112" lon="8.72287">
        <ele>1433</ele>
        <time>2021-08-06T10:56:27.453Z</time>
      </trkpt>
      <trkpt lat="46.95113" lon="8.72288">
        <ele>1433</ele>
        <time>2021-08-06T10:56:28.453Z</time>
      </trkpt>
      <trkpt lat="46.95114" lon="8.72288">
        <ele>1433</ele>
        <time>2021-08-06T10:56:29.453Z</time>
      </trkpt>
      <trkpt lat="46.95115" lon="8.72287">
        <ele>1433</ele>
        <time>2021-08-06T10:56:30.454Z</time>
      </trkpt>
      <trkpt lat="46.95116" lon="8.72287">
        <ele>1433</ele>
        <time>2021-08-06T10:56:31.453Z</time>
      </trkpt>
      <trkpt lat="46.95117" lon="8.72287">
        <ele>1433</ele>
        <time>2021-08-06T10:56:32.454Z</time>
      </trkpt>
      <trkpt lat="46.95118" lon="8.72287">
        <ele>1433</ele>
        <time>2021-08-06T10:56:33.453Z</time>
      </trkpt>
      <trkpt lat="46.95118" lon="8.72288">
        <ele>1433</ele>
        <time>2021-08-06T10:56:34.453Z</time>
      </trkpt>
      <trkpt lat="46.95119" lon="8.72288">
        <ele>1433</ele>
        <time>2021-08-06T10:56:35.453Z</time>
      </trkpt>
      <trkpt lat="46.9512" lon="8.72289">
        <ele>1433</ele>
        <time>2021-08-06T10:56:36.453Z</time>
      </trkpt>
      <trkpt lat="46.95122" lon="8.72288">
        <ele>1433</ele>
        <time>2021-08-06T10:56:37.454Z</time>
      </trkpt>
      <trkpt lat="46.95123" lon="8.72288">
        <ele>1434</ele>
        <time>2021-08-06T10:56:38.454Z</time>
      </trkpt>
      <trkpt lat="46.95124" lon="8.72288">
        <ele>1434</ele>
        <time>2021-08-06T10:56:39.454Z</time>
      </trkpt>
      <trkpt lat="46.95125" lon="8.72288">
        <ele>1434</ele>
        <time>2021-08-06T10:56:40.453Z</time>
      </trkpt>
      <trkpt lat="46.95125" lon="8.72288">
        <ele>1434</ele>
        <time>2021-08-06T10:56:41.454Z</time>
      </trkpt>
      <trkpt lat="46.95126" lon="8.72289">
        <ele>1433</ele>
        <time>2021-08-06T10:56:42.454Z</time>
      </trkpt>
      <trkpt lat="46.95127" lon="8.72289">
        <ele>1433</ele>
        <time>2021-08-06T10:56:43.454Z</time>
      </trkpt>
      <trkpt lat="46.95128" lon="8.72289">
        <ele>1433</ele>
        <time>2021-08-06T10:56:44.453Z</time>
      </trkpt>
      <trkpt lat="46.95129" lon="8.7229">
        <ele>1433</ele>
        <time>2021-08-06T10:56:45.454Z</time>
      </trkpt>
      <trkpt lat="46.9513" lon="8.7229">
        <ele>1433</ele>
        <time>2021-08-06T10:56:46.454Z</time>
      </trkpt>
      <trkpt lat="46.95131" lon="8.72291">
        <ele>1433</ele>
        <time>2021-08-06T10:56:47.454Z</time>
      </trkpt>
      <trkpt lat="46.95133" lon="8.72291">
        <ele>1434</ele>
        <time>2021-08-06T10:56:48.454Z</time>
      </trkpt>
      <trkpt lat="46.95134" lon="8.72291">
        <ele>1434</ele>
        <time>2021-08-06T10:56:49.454Z</time>
      </trkpt>
      <trkpt lat="46.95135" lon="8.72292">
        <ele>1434</ele>
        <time>2021-08-06T10:56:50.453Z</time>
      </trkpt>
      <trkpt lat="46.95136" lon="8.72292">
        <ele>1433</ele>
        <time>2021-08-06T10:56:51.453Z</time>
      </trkpt>
      <trkpt lat="46.95137" lon="8.72293">
        <ele>1433</ele>
        <time>2021-08-06T10:56:52.454Z</time>
      </trkpt>
      <trkpt lat="46.95138" lon="8.72292">
        <ele>1433</ele>
        <time>2021-08-06T10:56:53.454Z</time>
      </trkpt>
      <trkpt lat="46.95138" lon="8.72292">
        <ele>1433</ele>
        <time>2021-08-06T10:56:54.454Z</time>
      </trkpt>
      <trkpt lat="46.95139" lon="8.72292">
        <ele>1433</ele>
        <time>2021-08-06T10:56:55.454Z</time>
      </trkpt>
      <trkpt lat="46.9514" lon="8.72293">
        <ele>1433</ele>
        <time>2021-08-06T10:56:56.453Z</time>
      </trkpt>
      <trkpt lat="46.95141" lon="8.72293">
        <ele>1433</ele>
        <time>2021-08-06T10:56:57.454Z</time>
      </trkpt>
      <trkpt lat="46.95142" lon="8.72294">
        <ele>1433</ele>
        <time>2021-08-06T10:56:58.454Z</time>
      </trkpt>
      <trkpt lat="46.95143" lon="8.72294">
        <ele>1433</ele>
        <time>2021-08-06T10:56:59.454Z</time>
      </trkpt>
      <trkpt lat="46.95144" lon="8.72295">
        <ele>1434</ele>
        <time>2021-08-06T10:57:00.454Z</time>
      </trkpt>
      <trkpt lat="46.95145" lon="8.72295">
        <ele>1434</ele>
        <time>2021-08-06T10:57:01.453Z</time>
      </trkpt>
      <trkpt lat="46.95146" lon="8.72296">
        <ele>1434</ele>
        <time>2021-08-06T10:57:02.453Z</time>
      </trkpt>
      <trkpt lat="46.95147" lon="8.72297">
        <ele>1434</ele>
        <time>2021-08-06T10:57:03.453Z</time>
      </trkpt>
      <trkpt lat="46.95148" lon="8.72298">
        <ele>1434</ele>
        <time>2021-08-06T10:57:04.454Z</time>
      </trkpt>
      <trkpt lat="46.9515" lon="8.72298">
        <ele>1434</ele>
        <time>2021-08-06T10:57:05.454Z</time>
      </trkpt>
      <trkpt lat="46.95151" lon="8.72298">
        <ele>1433</ele>
        <time>2021-08-06T10:57:06.453Z</time>
      </trkpt>
      <trkpt lat="46.95152" lon="8.72299">
        <ele>1433</ele>
        <time>2021-08-06T10:57:07.454Z</time>
      </trkpt>
      <trkpt lat="46.95153" lon="8.72299">
        <ele>1432</ele>
        <time>2021-08-06T10:57:08.454Z</time>
      </trkpt>
      <trkpt lat="46.95154" lon="8.72299">
        <ele>1432</ele>
        <time>2021-08-06T10:57:09.454Z</time>
      </trkpt>
      <trkpt lat="46.95155" lon="8.723">
        <ele>1432</ele>
        <time>2021-08-06T10:57:10.454Z</time>
      </trkpt>
      <trkpt lat="46.95156" lon="8.723">
        <ele>1433</ele>
        <time>2021-08-06T10:57:11.454Z</time>
      </trkpt>
      <trkpt lat="46.95157" lon="8.72301">
        <ele>1433</ele>
        <time>2021-08-06T10:57:12.453Z</time>
      </trkpt>
      <trkpt lat="46.95158" lon="8.72301">
        <ele>1433</ele>
        <time>2021-08-06T10:57:13.454Z</time>
      </trkpt>
      <trkpt lat="46.95159" lon="8.72301">
        <ele>1433</ele>
        <time>2021-08-06T10:57:14.453Z</time>
      </trkpt>
      <trkpt lat="46.9516" lon="8.72302">
        <ele>1433</ele>
        <time>2021-08-06T10:57:15.454Z</time>
      </trkpt>
      <trkpt lat="46.95161" lon="8.72302">
        <ele>1433</ele>
        <time>2021-08-06T10:57:16.454Z</time>
      </trkpt>
      <trkpt lat="46.95162" lon="8.72302">
        <ele>1433</ele>
        <time>2021-08-06T10:57:17.454Z</time>
      </trkpt>
      <trkpt lat="46.95163" lon="8.72302">
        <ele>1433</ele>
        <time>2021-08-06T10:57:18.454Z</time>
      </trkpt>
      <trkpt lat="46.95163" lon="8.72302">
        <ele>1433</ele>
        <time>2021-08-06T10:57:19.453Z</time>
      </trkpt>
      <trkpt lat="46.95164" lon="8.72302">
        <ele>1433</ele>
        <time>2021-08-06T10:57:20.454Z</time>
      </trkpt>
      <trkpt lat="46.95165" lon="8.72302">
        <ele>1433</ele>
        <time>2021-08-06T10:57:21.453Z</time>
      </trkpt>
      <trkpt lat="46.95165" lon="8.72302">
        <ele>1434</ele>
        <time>2021-08-06T10:57:22.454Z</time>
      </trkpt>
      <trkpt lat="46.95166" lon="8.72302">
        <ele>1434</ele>
        <time>2021-08-06T10:57:23.454Z</time>
      </trkpt>
      <trkpt lat="46.95166" lon="8.72302">
        <ele>1435</ele>
        <time>2021-08-06T10:57:24.453Z</time>
      </trkpt>
      <trkpt lat="46.95167" lon="8.72302">
        <ele>1435</ele>
        <time>2021-08-06T10:57:25.454Z</time>
      </trkpt>
      <trkpt lat="46.95168" lon="8.72301">
        <ele>1435</ele>
        <time>2021-08-06T10:57:26.454Z</time>
      </trkpt>
      <trkpt lat="46.95168" lon="8.72301">
        <ele>1435</ele>
        <time>2021-08-06T10:57:27.453Z</time>
      </trkpt>
      <trkpt lat="46.95169" lon="8.72301">
        <ele>1435</ele>
        <time>2021-08-06T10:57:28.454Z</time>
      </trkpt>
      <trkpt lat="46.95169" lon="8.723">
        <ele>1435</ele>
        <time>2021-08-06T10:57:30.592Z</time>
      </trkpt>
      <trkpt lat="46.9517" lon="8.723">
        <ele>1435</ele>
        <time>2021-08-06T10:57:31.592Z</time>
      </trkpt>
      <trkpt lat="46.95171" lon="8.723">
        <ele>1436</ele>
        <time>2021-08-06T10:57:32.591Z</time>
      </trkpt>
      <trkpt lat="46.95172" lon="8.72299">
        <ele>1436</ele>
        <time>2021-08-06T10:57:33.591Z</time>
      </trkpt>
      <trkpt lat="46.95172" lon="8.72299">
        <ele>1437</ele>
        <time>2021-08-06T10:57:34.591Z</time>
      </trkpt>
      <trkpt lat="46.95173" lon="8.72298">
        <ele>1437</ele>
        <time>2021-08-06T10:57:35.592Z</time>
      </trkpt>
      <trkpt lat="46.95174" lon="8.72298">
        <ele>1437</ele>
        <time>2021-08-06T10:57:36.592Z</time>
      </trkpt>
      <trkpt lat="46.95174" lon="8.72297">
        <ele>1437</ele>
        <time>2021-08-06T10:57:37.592Z</time>
      </trkpt>
      <trkpt lat="46.95175" lon="8.72296">
        <ele>1437</ele>
        <time>2021-08-06T10:57:38.592Z</time>
      </trkpt>
      <trkpt lat="46.95176" lon="8.72296">
        <ele>1437</ele>
        <time>2021-08-06T10:57:39.591Z</time>
      </trkpt>
      <trkpt lat="46.95177" lon="8.72295">
        <ele>1437</ele>
        <time>2021-08-06T10:57:40.592Z</time>
      </trkpt>
      <trkpt lat="46.95177" lon="8.72294">
        <ele>1437</ele>
        <time>2021-08-06T10:57:41.591Z</time>
      </trkpt>
      <trkpt lat="46.95178" lon="8.72293">
        <ele>1437</ele>
        <time>2021-08-06T10:57:42.592Z</time>
      </trkpt>
      <trkpt lat="46.95179" lon="8.72292">
        <ele>1438</ele>
        <time>2021-08-06T10:57:43.591Z</time>
      </trkpt>
      <trkpt lat="46.95179" lon="8.72291">
        <ele>1438</ele>
        <time>2021-08-06T10:57:44.592Z</time>
      </trkpt>
      <trkpt lat="46.9518" lon="8.7229">
        <ele>1439</ele>
        <time>2021-08-06T10:57:45.592Z</time>
      </trkpt>
      <trkpt lat="46.95181" lon="8.72289">
        <ele>1439</ele>
        <time>2021-08-06T10:57:46.591Z</time>
      </trkpt>
      <trkpt lat="46.95181" lon="8.72288">
        <ele>1440</ele>
        <time>2021-08-06T10:57:47.592Z</time>
      </trkpt>
      <trkpt lat="46.95182" lon="8.72286">
        <ele>1440</ele>
        <time>2021-08-06T10:57:48.592Z</time>
      </trkpt>
      <trkpt lat="46.95182" lon="8.72285">
        <ele>1441</ele>
        <time>2021-08-06T10:57:49.592Z</time>
      </trkpt>
      <trkpt lat="46.95183" lon="8.72284">
        <ele>1441</ele>
        <time>2021-08-06T10:57:50.592Z</time>
      </trkpt>
      <trkpt lat="46.95183" lon="8.72282">
        <ele>1441</ele>
        <time>2021-08-06T10:57:51.591Z</time>
      </trkpt>
      <trkpt lat="46.95183" lon="8.7228">
        <ele>1441</ele>
        <time>2021-08-06T10:57:52.592Z</time>
      </trkpt>
      <trkpt lat="46.95183" lon="8.72279">
        <ele>1441</ele>
        <time>2021-08-06T10:57:53.591Z</time>
      </trkpt>
      <trkpt lat="46.95183" lon="8.72277">
        <ele>1441</ele>
        <time>2021-08-06T10:57:54.592Z</time>
      </trkpt>
      <trkpt lat="46.95183" lon="8.72276">
        <ele>1440</ele>
        <time>2021-08-06T10:57:55.592Z</time>
      </trkpt>
      <trkpt lat="46.95183" lon="8.72274">
        <ele>1440</ele>
        <time>2021-08-06T10:57:56.591Z</time>
      </trkpt>
      <trkpt lat="46.95182" lon="8.72273">
        <ele>1440</ele>
        <time>2021-08-06T10:57:57.591Z</time>
      </trkpt>
      <trkpt lat="46.95181" lon="8.72271">
        <ele>1440</ele>
        <time>2021-08-06T10:57:58.592Z</time>
      </trkpt>
      <trkpt lat="46.9518" lon="8.7227">
        <ele>1440</ele>
        <time>2021-08-06T10:57:59.592Z</time>
      </trkpt>
      <trkpt lat="46.95179" lon="8.72268">
        <ele>1439</ele>
        <time>2021-08-06T10:58:00.592Z</time>
      </trkpt>
      <trkpt lat="46.95179" lon="8.72268">
        <ele>1439</ele>
        <time>2021-08-06T10:58:01.592Z</time>
      </trkpt>
      <trkpt lat="46.95178" lon="8.72266">
        <ele>1439</ele>
        <time>2021-08-06T10:58:02.591Z</time>
      </trkpt>
      <trkpt lat="46.95177" lon="8.72265">
        <ele>1439</ele>
        <time>2021-08-06T10:58:03.591Z</time>
      </trkpt>
      <trkpt lat="46.95176" lon="8.72264">
        <ele>1440</ele>
        <time>2021-08-06T10:58:04.592Z</time>
      </trkpt>
      <trkpt lat="46.95175" lon="8.72263">
        <ele>1440</ele>
        <time>2021-08-06T10:58:05.592Z</time>
      </trkpt>
      <trkpt lat="46.95173" lon="8.72262">
        <ele>1439</ele>
        <time>2021-08-06T10:58:06.591Z</time>
      </trkpt>
      <trkpt lat="46.95172" lon="8.72261">
        <ele>1439</ele>
        <time>2021-08-06T10:58:07.592Z</time>
      </trkpt>
      <trkpt lat="46.95171" lon="8.7226">
        <ele>1439</ele>
        <time>2021-08-06T10:58:08.592Z</time>
      </trkpt>
      <trkpt lat="46.9517" lon="8.72259">
        <ele>1438</ele>
        <time>2021-08-06T10:58:09.591Z</time>
      </trkpt>
      <trkpt lat="46.95169" lon="8.72259">
        <ele>1437</ele>
        <time>2021-08-06T10:58:10.592Z</time>
      </trkpt>
      <trkpt lat="46.95168" lon="8.72258">
        <ele>1437</ele>
        <time>2021-08-06T10:58:11.592Z</time>
      </trkpt>
      <trkpt lat="46.95167" lon="8.72258">
        <ele>1436</ele>
        <time>2021-08-06T10:58:12.592Z</time>
      </trkpt>
      <trkpt lat="46.95166" lon="8.72257">
        <ele>1436</ele>
        <time>2021-08-06T10:58:13.592Z</time>
      </trkpt>
      <trkpt lat="46.95165" lon="8.72256">
        <ele>1435</ele>
        <time>2021-08-06T10:58:14.592Z</time>
      </trkpt>
      <trkpt lat="46.95165" lon="8.72255">
        <ele>1434</ele>
        <time>2021-08-06T10:58:15.591Z</time>
      </trkpt>
      <trkpt lat="46.95164" lon="8.72255">
        <ele>1434</ele>
        <time>2021-08-06T10:58:16.591Z</time>
      </trkpt>
      <trkpt lat="46.95163" lon="8.72254">
        <ele>1433</ele>
        <time>2021-08-06T10:58:17.592Z</time>
      </trkpt>
      <trkpt lat="46.95163" lon="8.72253">
        <ele>1433</ele>
        <time>2021-08-06T10:58:18.592Z</time>
      </trkpt>
      <trkpt lat="46.95162" lon="8.72252">
        <ele>1433</ele>
        <time>2021-08-06T10:58:19.592Z</time>
      </trkpt>
      <trkpt lat="46.95161" lon="8.72252">
        <ele>1433</ele>
        <time>2021-08-06T10:58:23.740Z</time>
      </trkpt>
      <trkpt lat="46.95161" lon="8.72252">
        <ele>1433</ele>
        <time>2021-08-06T10:58:24.739Z</time>
      </trkpt>
      <trkpt lat="46.9516" lon="8.72252">
        <ele>1433</ele>
        <time>2021-08-06T10:58:25.740Z</time>
      </trkpt>
      <trkpt lat="46.9516" lon="8.72251">
        <ele>1433</ele>
        <time>2021-08-06T10:58:26.739Z</time>
      </trkpt>
      <trkpt lat="46.95159" lon="8.72252">
        <ele>1433</ele>
        <time>2021-08-06T10:58:27.740Z</time>
      </trkpt>
      <trkpt lat="46.95159" lon="8.72253">
        <ele>1434</ele>
        <time>2021-08-06T10:58:28.739Z</time>
      </trkpt>
      <trkpt lat="46.95159" lon="8.72253">
        <ele>1435</ele>
        <time>2021-08-06T10:58:29.740Z</time>
      </trkpt>
      <trkpt lat="46.95158" lon="8.72252">
        <ele>1435</ele>
        <time>2021-08-06T10:58:52.885Z</time>
      </trkpt>
      <trkpt lat="46.95157" lon="8.72252">
        <ele>1435</ele>
        <time>2021-08-06T10:58:53.884Z</time>
      </trkpt>
      <trkpt lat="46.95157" lon="8.72251">
        <ele>1435</ele>
        <time>2021-08-06T10:58:54.884Z</time>
      </trkpt>
      <trkpt lat="46.95156" lon="8.7225">
        <ele>1435</ele>
        <time>2021-08-06T10:58:55.885Z</time>
      </trkpt>
      <trkpt lat="46.95156" lon="8.7225">
        <ele>1435</ele>
        <time>2021-08-06T10:58:56.885Z</time>
      </trkpt>
      <trkpt lat="46.95155" lon="8.7225">
        <ele>1435</ele>
        <time>2021-08-06T10:58:57.884Z</time>
      </trkpt>
      <trkpt lat="46.95154" lon="8.72249">
        <ele>1436</ele>
        <time>2021-08-06T10:58:58.885Z</time>
      </trkpt>
      <trkpt lat="46.95153" lon="8.72248">
        <ele>1436</ele>
        <time>2021-08-06T10:58:59.885Z</time>
      </trkpt>
      <trkpt lat="46.95152" lon="8.72248">
        <ele>1436</ele>
        <time>2021-08-06T10:59:00.885Z</time>
      </trkpt>
      <trkpt lat="46.9515" lon="8.72247">
        <ele>1436</ele>
        <time>2021-08-06T10:59:01.885Z</time>
      </trkpt>
      <trkpt lat="46.95149" lon="8.72245">
        <ele>1436</ele>
        <time>2021-08-06T10:59:02.885Z</time>
      </trkpt>
      <trkpt lat="46.95148" lon="8.72244">
        <ele>1436</ele>
        <time>2021-08-06T10:59:03.884Z</time>
      </trkpt>
      <trkpt lat="46.95147" lon="8.72243">
        <ele>1437</ele>
        <time>2021-08-06T10:59:04.884Z</time>
      </trkpt>
      <trkpt lat="46.95146" lon="8.72243">
        <ele>1437</ele>
        <time>2021-08-06T10:59:05.884Z</time>
      </trkpt>
      <trkpt lat="46.95145" lon="8.72243">
        <ele>1438</ele>
        <time>2021-08-06T10:59:06.885Z</time>
      </trkpt>
      <trkpt lat="46.95144" lon="8.72243">
        <ele>1438</ele>
        <time>2021-08-06T10:59:07.885Z</time>
      </trkpt>
      <trkpt lat="46.95142" lon="8.72243">
        <ele>1439</ele>
        <time>2021-08-06T10:59:08.885Z</time>
      </trkpt>
      <trkpt lat="46.95142" lon="8.72242">
        <ele>1440</ele>
        <time>2021-08-06T10:59:09.885Z</time>
      </trkpt>
      <trkpt lat="46.9514" lon="8.72242">
        <ele>1440</ele>
        <time>2021-08-06T10:59:10.885Z</time>
      </trkpt>
      <trkpt lat="46.9514" lon="8.72242">
        <ele>1441</ele>
        <time>2021-08-06T10:59:11.884Z</time>
      </trkpt>
      <trkpt lat="46.95139" lon="8.72241">
        <ele>1441</ele>
        <time>2021-08-06T10:59:12.885Z</time>
      </trkpt>
      <trkpt lat="46.95138" lon="8.72239">
        <ele>1441</ele>
        <time>2021-08-06T10:59:13.884Z</time>
      </trkpt>
      <trkpt lat="46.95137" lon="8.72239">
        <ele>1441</ele>
        <time>2021-08-06T10:59:14.885Z</time>
      </trkpt>
      <trkpt lat="46.95136" lon="8.72238">
        <ele>1441</ele>
        <time>2021-08-06T10:59:15.885Z</time>
      </trkpt>
      <trkpt lat="46.95135" lon="8.72238">
        <ele>1440</ele>
        <time>2021-08-06T10:59:16.884Z</time>
      </trkpt>
      <trkpt lat="46.95134" lon="8.72238">
        <ele>1441</ele>
        <time>2021-08-06T10:59:17.884Z</time>
      </trkpt>
      <trkpt lat="46.95134" lon="8.72238">
        <ele>1441</ele>
        <time>2021-08-06T10:59:18.884Z</time>
      </trkpt>
      <trkpt lat="46.95133" lon="8.72238">
        <ele>1440</ele>
        <time>2021-08-06T10:59:19.884Z</time>
      </trkpt>
      <trkpt lat="46.95133" lon="8.72239">
        <ele>1440</ele>
        <time>2021-08-06T10:59:20.884Z</time>
      </trkpt>
      <trkpt lat="46.95132" lon="8.72239">
        <ele>1440</ele>
        <time>2021-08-06T10:59:21.884Z</time>
      </trkpt>
      <trkpt lat="46.95132" lon="8.72238">
        <ele>1440</ele>
        <time>2021-08-06T10:59:22.884Z</time>
      </trkpt>
      <trkpt lat="46.95131" lon="8.72238">
        <ele>1439</ele>
        <time>2021-08-06T10:59:23.884Z</time>
      </trkpt>
      <trkpt lat="46.9513" lon="8.72237">
        <ele>1439</ele>
        <time>2021-08-06T10:59:24.885Z</time>
      </trkpt>
      <trkpt lat="46.95129" lon="8.72237">
        <ele>1439</ele>
        <time>2021-08-06T10:59:25.884Z</time>
      </trkpt>
      <trkpt lat="46.95128" lon="8.72237">
        <ele>1438</ele>
        <time>2021-08-06T10:59:26.884Z</time>
      </trkpt>
      <trkpt lat="46.95127" lon="8.72237">
        <ele>1439</ele>
        <time>2021-08-06T10:59:27.884Z</time>
      </trkpt>
      <trkpt lat="46.95126" lon="8.72236">
        <ele>1438</ele>
        <time>2021-08-06T10:59:28.884Z</time>
      </trkpt>
      <trkpt lat="46.95125" lon="8.72235">
        <ele>1439</ele>
        <time>2021-08-06T10:59:29.884Z</time>
      </trkpt>
      <trkpt lat="46.95124" lon="8.72235">
        <ele>1439</ele>
        <time>2021-08-06T10:59:30.884Z</time>
      </trkpt>
      <trkpt lat="46.95123" lon="8.72235">
        <ele>1439</ele>
        <time>2021-08-06T10:59:31.884Z</time>
      </trkpt>
      <trkpt lat="46.95122" lon="8.72233">
        <ele>1439</ele>
        <time>2021-08-06T10:59:32.884Z</time>
      </trkpt>
      <trkpt lat="46.95121" lon="8.72232">
        <ele>1439</ele>
        <time>2021-08-06T10:59:33.884Z</time>
      </trkpt>
      <trkpt lat="46.9512" lon="8.72231">
        <ele>1439</ele>
        <time>2021-08-06T10:59:34.884Z</time>
      </trkpt>
      <trkpt lat="46.95119" lon="8.7223">
        <ele>1440</ele>
        <time>2021-08-06T10:59:35.884Z</time>
      </trkpt>
      <trkpt lat="46.95118" lon="8.72229">
        <ele>1440</ele>
        <time>2021-08-06T10:59:36.884Z</time>
      </trkpt>
      <trkpt lat="46.95117" lon="8.72229">
        <ele>1440</ele>
        <time>2021-08-06T10:59:37.885Z</time>
      </trkpt>
      <trkpt lat="46.95116" lon="8.72228">
        <ele>1441</ele>
        <time>2021-08-06T10:59:38.884Z</time>
      </trkpt>
      <trkpt lat="46.95115" lon="8.72228">
        <ele>1441</ele>
        <time>2021-08-06T10:59:39.884Z</time>
      </trkpt>
      <trkpt lat="46.95115" lon="8.72227">
        <ele>1442</ele>
        <time>2021-08-06T10:59:40.884Z</time>
      </trkpt>
      <trkpt lat="46.95114" lon="8.72227">
        <ele>1442</ele>
        <time>2021-08-06T10:59:41.885Z</time>
      </trkpt>
      <trkpt lat="46.95113" lon="8.72226">
        <ele>1442</ele>
        <time>2021-08-06T10:59:42.885Z</time>
      </trkpt>
      <trkpt lat="46.95113" lon="8.72226">
        <ele>1442</ele>
        <time>2021-08-06T10:59:43.885Z</time>
      </trkpt>
      <trkpt lat="46.95111" lon="8.72225">
        <ele>1442</ele>
        <time>2021-08-06T10:59:44.884Z</time>
      </trkpt>
      <trkpt lat="46.9511" lon="8.72224">
        <ele>1442</ele>
        <time>2021-08-06T10:59:45.884Z</time>
      </trkpt>
      <trkpt lat="46.95109" lon="8.72223">
        <ele>1442</ele>
        <time>2021-08-06T10:59:46.884Z</time>
      </trkpt>
      <trkpt lat="46.95108" lon="8.72222">
        <ele>1443</ele>
        <time>2021-08-06T10:59:47.885Z</time>
      </trkpt>
      <trkpt lat="46.95107" lon="8.72221">
        <ele>1443</ele>
        <time>2021-08-06T10:59:48.884Z</time>
      </trkpt>
      <trkpt lat="46.95106" lon="8.72221">
        <ele>1443</ele>
        <time>2021-08-06T10:59:49.885Z</time>
      </trkpt>
      <trkpt lat="46.95105" lon="8.7222">
        <ele>1443</ele>
        <time>2021-08-06T10:59:50.885Z</time>
      </trkpt>
      <trkpt lat="46.95104" lon="8.7222">
        <ele>1443</ele>
        <time>2021-08-06T10:59:51.885Z</time>
      </trkpt>
      <trkpt lat="46.95103" lon="8.7222">
        <ele>1444</ele>
        <time>2021-08-06T10:59:52.885Z</time>
      </trkpt>
      <trkpt lat="46.95103" lon="8.72219">
        <ele>1444</ele>
        <time>2021-08-06T10:59:53.884Z</time>
      </trkpt>
      <trkpt lat="46.95102" lon="8.72218">
        <ele>1443</ele>
        <time>2021-08-06T10:59:54.885Z</time>
      </trkpt>
      <trkpt lat="46.95101" lon="8.72217">
        <ele>1443</ele>
        <time>2021-08-06T10:59:55.885Z</time>
      </trkpt>
      <trkpt lat="46.95101" lon="8.72217">
        <ele>1443</ele>
        <time>2021-08-06T10:59:56.884Z</time>
      </trkpt>
      <trkpt lat="46.951" lon="8.72217">
        <ele>1442</ele>
        <time>2021-08-06T10:59:57.884Z</time>
      </trkpt>
      <trkpt lat="46.95099" lon="8.72216">
        <ele>1442</ele>
        <time>2021-08-06T10:59:58.885Z</time>
      </trkpt>
      <trkpt lat="46.95098" lon="8.72216">
        <ele>1441</ele>
        <time>2021-08-06T10:59:59.885Z</time>
      </trkpt>
      <trkpt lat="46.95098" lon="8.72216">
        <ele>1441</ele>
        <time>2021-08-06T11:00:00.884Z</time>
      </trkpt>
      <trkpt lat="46.95097" lon="8.72217">
        <ele>1441</ele>
        <time>2021-08-06T11:00:01.884Z</time>
      </trkpt>
      <trkpt lat="46.95097" lon="8.72217">
        <ele>1441</ele>
        <time>2021-08-06T11:00:02.885Z</time>
      </trkpt>
      <trkpt lat="46.95096" lon="8.72217">
        <ele>1441</ele>
        <time>2021-08-06T11:00:03.885Z</time>
      </trkpt>
      <trkpt lat="46.95095" lon="8.72217">
        <ele>1441</ele>
        <time>2021-08-06T11:00:04.885Z</time>
      </trkpt>
      <trkpt lat="46.95095" lon="8.72218">
        <ele>1441</ele>
        <time>2021-08-06T11:00:05.884Z</time>
      </trkpt>
      <trkpt lat="46.95094" lon="8.72218">
        <ele>1442</ele>
        <time>2021-08-06T11:00:06.884Z</time>
      </trkpt>
      <trkpt lat="46.95093" lon="8.72218">
        <ele>1442</ele>
        <time>2021-08-06T11:00:07.885Z</time>
      </trkpt>
      <trkpt lat="46.95093" lon="8.72218">
        <ele>1442</ele>
        <time>2021-08-06T11:00:08.885Z</time>
      </trkpt>
      <trkpt lat="46.95092" lon="8.72218">
        <ele>1443</ele>
        <time>2021-08-06T11:00:09.885Z</time>
      </trkpt>
      <trkpt lat="46.95091" lon="8.72218">
        <ele>1443</ele>
        <time>2021-08-06T11:00:10.885Z</time>
      </trkpt>
      <trkpt lat="46.95091" lon="8.72218">
        <ele>1443</ele>
        <time>2021-08-06T11:00:11.885Z</time>
      </trkpt>
      <trkpt lat="46.95091" lon="8.72217">
        <ele>1443</ele>
        <time>2021-08-06T11:00:12.884Z</time>
      </trkpt>
      <trkpt lat="46.9509" lon="8.72217">
        <ele>1443</ele>
        <time>2021-08-06T11:00:13.885Z</time>
      </trkpt>
      <trkpt lat="46.9509" lon="8.72216">
        <ele>1443</ele>
        <time>2021-08-06T11:00:14.884Z</time>
      </trkpt>
      <trkpt lat="46.9509" lon="8.72216">
        <ele>1444</ele>
        <time>2021-08-06T11:00:15.885Z</time>
      </trkpt>
      <trkpt lat="46.95089" lon="8.72215">
        <ele>1444</ele>
        <time>2021-08-06T11:00:16.885Z</time>
      </trkpt>
      <trkpt lat="46.95088" lon="8.72214">
        <ele>1444</ele>
        <time>2021-08-06T11:00:17.885Z</time>
      </trkpt>
      <trkpt lat="46.95088" lon="8.72212">
        <ele>1444</ele>
        <time>2021-08-06T11:00:18.885Z</time>
      </trkpt>
      <trkpt lat="46.95088" lon="8.72211">
        <ele>1444</ele>
        <time>2021-08-06T11:00:23.980Z</time>
      </trkpt>
      <trkpt lat="46.95088" lon="8.72209">
        <ele>1444</ele>
        <time>2021-08-06T11:00:39.851Z</time>
      </trkpt>
      <trkpt lat="46.95088" lon="8.72209">
        <ele>1444</ele>
        <time>2021-08-06T11:00:40.851Z</time>
      </trkpt>
      <trkpt lat="46.95088" lon="8.72208">
        <ele>1444</ele>
        <time>2021-08-06T11:00:41.851Z</time>
      </trkpt>
      <trkpt lat="46.95088" lon="8.72207">
        <ele>1445</ele>
        <time>2021-08-06T11:00:42.851Z</time>
      </trkpt>
      <trkpt lat="46.95088" lon="8.72207">
        <ele>1445</ele>
        <time>2021-08-06T11:00:43.851Z</time>
      </trkpt>
      <trkpt lat="46.95088" lon="8.72206">
        <ele>1445</ele>
        <time>2021-08-06T11:00:48.010Z</time>
      </trkpt>
      <trkpt lat="46.95088" lon="8.72205">
        <ele>1445</ele>
        <time>2021-08-06T11:00:49.009Z</time>
      </trkpt>
      <trkpt lat="46.95088" lon="8.72203">
        <ele>1445</ele>
        <time>2021-08-06T11:00:50.010Z</time>
      </trkpt>
      <trkpt lat="46.95089" lon="8.72202">
        <ele>1445</ele>
        <time>2021-08-06T11:00:51.010Z</time>
      </trkpt>
      <trkpt lat="46.95089" lon="8.72201">
        <ele>1445</ele>
        <time>2021-08-06T11:00:52.010Z</time>
      </trkpt>
      <trkpt lat="46.95089" lon="8.72199">
        <ele>1444</ele>
        <time>2021-08-06T11:00:53.010Z</time>
      </trkpt>
      <trkpt lat="46.95089" lon="8.722">
        <ele>1444</ele>
        <time>2021-08-06T11:00:54.010Z</time>
      </trkpt>
      <trkpt lat="46.95089" lon="8.722">
        <ele>1444</ele>
        <time>2021-08-06T11:00:55.010Z</time>
      </trkpt>
      <trkpt lat="46.95089" lon="8.722">
        <ele>1444</ele>
        <time>2021-08-06T11:00:56.009Z</time>
      </trkpt>
      <trkpt lat="46.95088" lon="8.72199">
        <ele>1444</ele>
        <time>2021-08-06T11:00:57.010Z</time>
      </trkpt>
      <trkpt lat="46.95087" lon="8.72199">
        <ele>1444</ele>
        <time>2021-08-06T11:00:58.009Z</time>
      </trkpt>
      <trkpt lat="46.95086" lon="8.72199">
        <ele>1443</ele>
        <time>2021-08-06T11:00:59.010Z</time>
      </trkpt>
      <trkpt lat="46.95085" lon="8.722">
        <ele>1443</ele>
        <time>2021-08-06T11:01:00.009Z</time>
      </trkpt>
      <trkpt lat="46.95084" lon="8.722">
        <ele>1443</ele>
        <time>2021-08-06T11:01:01.009Z</time>
      </trkpt>
      <trkpt lat="46.95084" lon="8.72201">
        <ele>1443</ele>
        <time>2021-08-06T11:01:02.009Z</time>
      </trkpt>
      <trkpt lat="46.95083" lon="8.72201">
        <ele>1443</ele>
        <time>2021-08-06T11:01:03.010Z</time>
      </trkpt>
      <trkpt lat="46.95082" lon="8.72201">
        <ele>1443</ele>
        <time>2021-08-06T11:01:04.009Z</time>
      </trkpt>
      <trkpt lat="46.95082" lon="8.72202">
        <ele>1443</ele>
        <time>2021-08-06T11:01:05.009Z</time>
      </trkpt>
      <trkpt lat="46.95082" lon="8.72202">
        <ele>1443</ele>
        <time>2021-08-06T11:01:06.010Z</time>
      </trkpt>
      <trkpt lat="46.95084" lon="8.72201">
        <ele>1440</ele>
        <time>2021-08-06T11:01:07.011Z</time>
      </trkpt>
      <trkpt lat="46.95083" lon="8.72201">
        <ele>1440</ele>
        <time>2021-08-06T11:01:08.011Z</time>
      </trkpt>
      <trkpt lat="46.95083" lon="8.72202">
        <ele>1440</ele>
        <time>2021-08-06T11:01:09.011Z</time>
      </trkpt>
      <trkpt lat="46.95083" lon="8.72201">
        <ele>1441</ele>
        <time>2021-08-06T11:01:10.010Z</time>
      </trkpt>
      <trkpt lat="46.95083" lon="8.72201">
        <ele>1441</ele>
        <time>2021-08-06T11:01:11.011Z</time>
      </trkpt>
      <trkpt lat="46.95083" lon="8.72199">
        <ele>1441</ele>
        <time>2021-08-06T11:01:12.010Z</time>
      </trkpt>
      <trkpt lat="46.95084" lon="8.72198">
        <ele>1440</ele>
        <time>2021-08-06T11:01:13.011Z</time>
      </trkpt>
      <trkpt lat="46.95084" lon="8.72201">
        <ele>1434</ele>
        <time>2021-08-06T11:01:14.011Z</time>
      </trkpt>
      <trkpt lat="46.95083" lon="8.72201">
        <ele>1435</ele>
        <time>2021-08-06T11:01:15.011Z</time>
      </trkpt>
      <trkpt lat="46.95083" lon="8.72199">
        <ele>1437</ele>
        <time>2021-08-06T11:01:16.011Z</time>
      </trkpt>
      <trkpt lat="46.95083" lon="8.72199">
        <ele>1437</ele>
        <time>2021-08-06T11:01:17.012Z</time>
      </trkpt>
      <trkpt lat="46.95083" lon="8.72201">
        <ele>1442</ele>
        <time>2021-08-06T11:01:18.011Z</time>
      </trkpt>
      <trkpt lat="46.95083" lon="8.72201">
        <ele>1443</ele>
        <time>2021-08-06T11:01:19.011Z</time>
      </trkpt>
      <trkpt lat="46.95084" lon="8.722">
        <ele>1444</ele>
        <time>2021-08-06T11:01:20.011Z</time>
      </trkpt>
      <trkpt lat="46.95084" lon="8.72199">
        <ele>1445</ele>
        <time>2021-08-06T11:01:21.012Z</time>
      </trkpt>
      <trkpt lat="46.95084" lon="8.72199">
        <ele>1445</ele>
        <time>2021-08-06T11:01:22.011Z</time>
      </trkpt>
      <trkpt lat="46.95084" lon="8.72199">
        <ele>1446</ele>
        <time>2021-08-06T11:01:23.012Z</time>
      </trkpt>
      <trkpt lat="46.95085" lon="8.72199">
        <ele>1447</ele>
        <time>2021-08-06T11:01:26.079Z</time>
      </trkpt>
      <trkpt lat="46.95085" lon="8.72198">
        <ele>1448</ele>
        <time>2021-08-06T11:01:27.079Z</time>
      </trkpt>
      <trkpt lat="46.95085" lon="8.72197">
        <ele>1449</ele>
        <time>2021-08-06T11:01:28.080Z</time>
      </trkpt>
      <trkpt lat="46.95085" lon="8.72196">
        <ele>1449</ele>
        <time>2021-08-06T11:01:29.080Z</time>
      </trkpt>
      <trkpt lat="46.95085" lon="8.72195">
        <ele>1449</ele>
        <time>2021-08-06T11:01:30.079Z</time>
      </trkpt>
      <trkpt lat="46.95084" lon="8.72193">
        <ele>1450</ele>
        <time>2021-08-06T11:01:31.080Z</time>
      </trkpt>
      <trkpt lat="46.95083" lon="8.72192">
        <ele>1450</ele>
        <time>2021-08-06T11:01:32.080Z</time>
      </trkpt>
      <trkpt lat="46.95082" lon="8.72191">
        <ele>1450</ele>
        <time>2021-08-06T11:01:33.080Z</time>
      </trkpt>
      <trkpt lat="46.95082" lon="8.7219">
        <ele>1451</ele>
        <time>2021-08-06T11:01:34.079Z</time>
      </trkpt>
      <trkpt lat="46.95081" lon="8.72189">
        <ele>1451</ele>
        <time>2021-08-06T11:01:35.079Z</time>
      </trkpt>
      <trkpt lat="46.9508" lon="8.72187">
        <ele>1451</ele>
        <time>2021-08-06T11:01:36.080Z</time>
      </trkpt>
      <trkpt lat="46.95079" lon="8.72186">
        <ele>1452</ele>
        <time>2021-08-06T11:01:37.079Z</time>
      </trkpt>
      <trkpt lat="46.95078" lon="8.72185">
        <ele>1453</ele>
        <time>2021-08-06T11:01:38.080Z</time>
      </trkpt>
      <trkpt lat="46.95076" lon="8.72185">
        <ele>1453</ele>
        <time>2021-08-06T11:01:39.080Z</time>
      </trkpt>
      <trkpt lat="46.95075" lon="8.72184">
        <ele>1453</ele>
        <time>2021-08-06T11:01:40.079Z</time>
      </trkpt>
      <trkpt lat="46.95075" lon="8.72183">
        <ele>1452</ele>
        <time>2021-08-06T11:01:41.080Z</time>
      </trkpt>
      <trkpt lat="46.95074" lon="8.72183">
        <ele>1452</ele>
        <time>2021-08-06T11:01:42.080Z</time>
      </trkpt>
      <trkpt lat="46.95073" lon="8.72183">
        <ele>1452</ele>
        <time>2021-08-06T11:01:43.080Z</time>
      </trkpt>
      <trkpt lat="46.95073" lon="8.72182">
        <ele>1452</ele>
        <time>2021-08-06T11:01:44.080Z</time>
      </trkpt>
      <trkpt lat="46.95072" lon="8.72182">
        <ele>1452</ele>
        <time>2021-08-06T11:01:45.080Z</time>
      </trkpt>
      <trkpt lat="46.95071" lon="8.72182">
        <ele>1452</ele>
        <time>2021-08-06T11:01:46.080Z</time>
      </trkpt>
      <trkpt lat="46.95071" lon="8.72181">
        <ele>1452</ele>
        <time>2021-08-06T11:01:47.080Z</time>
      </trkpt>
      <trkpt lat="46.9507" lon="8.72181">
        <ele>1452</ele>
        <time>2021-08-06T11:01:48.079Z</time>
      </trkpt>
      <trkpt lat="46.95069" lon="8.72181">
        <ele>1453</ele>
        <time>2021-08-06T11:01:49.080Z</time>
      </trkpt>
      <trkpt lat="46.95068" lon="8.7218">
        <ele>1453</ele>
        <time>2021-08-06T11:01:50.080Z</time>
      </trkpt>
      <trkpt lat="46.95068" lon="8.72179">
        <ele>1453</ele>
        <time>2021-08-06T11:01:51.080Z</time>
      </trkpt>
      <trkpt lat="46.95067" lon="8.72178">
        <ele>1453</ele>
        <time>2021-08-06T11:01:52.079Z</time>
      </trkpt>
      <trkpt lat="46.95066" lon="8.72177">
        <ele>1453</ele>
        <time>2021-08-06T11:01:53.080Z</time>
      </trkpt>
      <trkpt lat="46.95065" lon="8.72177">
        <ele>1453</ele>
        <time>2021-08-06T11:01:54.079Z</time>
      </trkpt>
      <trkpt lat="46.95064" lon="8.72176">
        <ele>1453</ele>
        <time>2021-08-06T11:01:55.080Z</time>
      </trkpt>
      <trkpt lat="46.95063" lon="8.72175">
        <ele>1452</ele>
        <time>2021-08-06T11:01:56.080Z</time>
      </trkpt>
      <trkpt lat="46.95062" lon="8.72174">
        <ele>1452</ele>
        <time>2021-08-06T11:01:57.080Z</time>
      </trkpt>
      <trkpt lat="46.95061" lon="8.72173">
        <ele>1451</ele>
        <time>2021-08-06T11:01:58.080Z</time>
      </trkpt>
      <trkpt lat="46.9506" lon="8.72172">
        <ele>1451</ele>
        <time>2021-08-06T11:01:59.080Z</time>
      </trkpt>
      <trkpt lat="46.9506" lon="8.72171">
        <ele>1450</ele>
        <time>2021-08-06T11:02:00.080Z</time>
      </trkpt>
      <trkpt lat="46.95059" lon="8.72171">
        <ele>1450</ele>
        <time>2021-08-06T11:02:01.080Z</time>
      </trkpt>
      <trkpt lat="46.95058" lon="8.7217">
        <ele>1449</ele>
        <time>2021-08-06T11:02:02.079Z</time>
      </trkpt>
      <trkpt lat="46.95058" lon="8.72169">
        <ele>1449</ele>
        <time>2021-08-06T11:02:03.080Z</time>
      </trkpt>
      <trkpt lat="46.95057" lon="8.72168">
        <ele>1448</ele>
        <time>2021-08-06T11:02:04.079Z</time>
      </trkpt>
      <trkpt lat="46.95057" lon="8.72167">
        <ele>1448</ele>
        <time>2021-08-06T11:02:05.080Z</time>
      </trkpt>
      <trkpt lat="46.95056" lon="8.72166">
        <ele>1448</ele>
        <time>2021-08-06T11:02:06.080Z</time>
      </trkpt>
      <trkpt lat="46.95056" lon="8.72166">
        <ele>1448</ele>
        <time>2021-08-06T11:02:07.080Z</time>
      </trkpt>
      <trkpt lat="46.95055" lon="8.72164">
        <ele>1449</ele>
        <time>2021-08-06T11:02:08.080Z</time>
      </trkpt>
      <trkpt lat="46.95054" lon="8.72163">
        <ele>1449</ele>
        <time>2021-08-06T11:02:09.079Z</time>
      </trkpt>
      <trkpt lat="46.95054" lon="8.72162">
        <ele>1450</ele>
        <time>2021-08-06T11:02:10.080Z</time>
      </trkpt>
      <trkpt lat="46.95053" lon="8.7216">
        <ele>1451</ele>
        <time>2021-08-06T11:02:11.080Z</time>
      </trkpt>
      <trkpt lat="46.95052" lon="8.72159">
        <ele>1452</ele>
        <time>2021-08-06T11:02:12.080Z</time>
      </trkpt>
      <trkpt lat="46.95051" lon="8.72158">
        <ele>1452</ele>
        <time>2021-08-06T11:02:13.080Z</time>
      </trkpt>
      <trkpt lat="46.95051" lon="8.72157">
        <ele>1453</ele>
        <time>2021-08-06T11:02:14.079Z</time>
      </trkpt>
      <trkpt lat="46.9505" lon="8.72156">
        <ele>1453</ele>
        <time>2021-08-06T11:02:15.080Z</time>
      </trkpt>
      <trkpt lat="46.9505" lon="8.72155">
        <ele>1453</ele>
        <time>2021-08-06T11:02:17.206Z</time>
      </trkpt>
      <trkpt lat="46.9505" lon="8.72155">
        <ele>1452</ele>
        <time>2021-08-06T11:02:18.206Z</time>
      </trkpt>
      <trkpt lat="46.95049" lon="8.72154">
        <ele>1452</ele>
        <time>2021-08-06T11:02:19.206Z</time>
      </trkpt>
      <trkpt lat="46.95048" lon="8.72154">
        <ele>1452</ele>
        <time>2021-08-06T11:02:21.182Z</time>
      </trkpt>
      <trkpt lat="46.95048" lon="8.72153">
        <ele>1452</ele>
        <time>2021-08-06T11:02:22.183Z</time>
      </trkpt>
      <trkpt lat="46.95048" lon="8.72152">
        <ele>1452</ele>
        <time>2021-08-06T11:02:23.183Z</time>
      </trkpt>
      <trkpt lat="46.95047" lon="8.72152">
        <ele>1452</ele>
        <time>2021-08-06T11:02:24.182Z</time>
      </trkpt>
      <trkpt lat="46.95047" lon="8.7215">
        <ele>1452</ele>
        <time>2021-08-06T11:02:25.183Z</time>
      </trkpt>
      <trkpt lat="46.95045" lon="8.72148">
        <ele>1452</ele>
        <time>2021-08-06T11:02:26.183Z</time>
      </trkpt>
      <trkpt lat="46.95044" lon="8.72146">
        <ele>1452</ele>
        <time>2021-08-06T11:02:27.183Z</time>
      </trkpt>
      <trkpt lat="46.95043" lon="8.72144">
        <ele>1452</ele>
        <time>2021-08-06T11:02:28.183Z</time>
      </trkpt>
      <trkpt lat="46.95043" lon="8.72143">
        <ele>1451</ele>
        <time>2021-08-06T11:02:29.182Z</time>
      </trkpt>
      <trkpt lat="46.95042" lon="8.72141">
        <ele>1451</ele>
        <time>2021-08-06T11:02:30.182Z</time>
      </trkpt>
      <trkpt lat="46.95041" lon="8.72141">
        <ele>1450</ele>
        <time>2021-08-06T11:02:31.183Z</time>
      </trkpt>
      <trkpt lat="46.95041" lon="8.72141">
        <ele>1450</ele>
        <time>2021-08-06T11:02:32.183Z</time>
      </trkpt>
      <trkpt lat="46.9504" lon="8.72141">
        <ele>1451</ele>
        <time>2021-08-06T11:02:33.183Z</time>
      </trkpt>
      <trkpt lat="46.95041" lon="8.7214">
        <ele>1451</ele>
        <time>2021-08-06T11:02:34.183Z</time>
      </trkpt>
      <trkpt lat="46.95041" lon="8.72139">
        <ele>1451</ele>
        <time>2021-08-06T11:02:35.182Z</time>
      </trkpt>
      <trkpt lat="46.9504" lon="8.72138">
        <ele>1451</ele>
        <time>2021-08-06T11:02:36.182Z</time>
      </trkpt>
      <trkpt lat="46.9504" lon="8.72136">
        <ele>1451</ele>
        <time>2021-08-06T11:02:37.183Z</time>
      </trkpt>
      <trkpt lat="46.95039" lon="8.72135">
        <ele>1450</ele>
        <time>2021-08-06T11:02:38.182Z</time>
      </trkpt>
      <trkpt lat="46.95038" lon="8.72134">
        <ele>1451</ele>
        <time>2021-08-06T11:02:39.183Z</time>
      </trkpt>
      <trkpt lat="46.95037" lon="8.72134">
        <ele>1451</ele>
        <time>2021-08-06T11:02:40.182Z</time>
      </trkpt>
      <trkpt lat="46.95036" lon="8.72133">
        <ele>1452</ele>
        <time>2021-08-06T11:02:41.182Z</time>
      </trkpt>
      <trkpt lat="46.95035" lon="8.72133">
        <ele>1451</ele>
        <time>2021-08-06T11:02:42.182Z</time>
      </trkpt>
      <trkpt lat="46.95034" lon="8.72132">
        <ele>1451</ele>
        <time>2021-08-06T11:02:43.183Z</time>
      </trkpt>
      <trkpt lat="46.95033" lon="8.72131">
        <ele>1451</ele>
        <time>2021-08-06T11:02:44.182Z</time>
      </trkpt>
      <trkpt lat="46.95032" lon="8.7213">
        <ele>1451</ele>
        <time>2021-08-06T11:02:45.182Z</time>
      </trkpt>
      <trkpt lat="46.95031" lon="8.72129">
        <ele>1452</ele>
        <time>2021-08-06T11:02:46.183Z</time>
      </trkpt>
      <trkpt lat="46.95031" lon="8.72128">
        <ele>1452</ele>
        <time>2021-08-06T11:02:47.183Z</time>
      </trkpt>
      <trkpt lat="46.9503" lon="8.72127">
        <ele>1453</ele>
        <time>2021-08-06T11:02:48.183Z</time>
      </trkpt>
      <trkpt lat="46.95029" lon="8.72126">
        <ele>1453</ele>
        <time>2021-08-06T11:02:49.183Z</time>
      </trkpt>
      <trkpt lat="46.95029" lon="8.72125">
        <ele>1454</ele>
        <time>2021-08-06T11:02:50.183Z</time>
      </trkpt>
      <trkpt lat="46.95028" lon="8.72124">
        <ele>1454</ele>
        <time>2021-08-06T11:02:51.183Z</time>
      </trkpt>
      <trkpt lat="46.95027" lon="8.72123">
        <ele>1455</ele>
        <time>2021-08-06T11:02:52.183Z</time>
      </trkpt>
      <trkpt lat="46.95027" lon="8.72122">
        <ele>1455</ele>
        <time>2021-08-06T11:02:53.183Z</time>
      </trkpt>
      <trkpt lat="46.95027" lon="8.7212">
        <ele>1455</ele>
        <time>2021-08-06T11:02:54.183Z</time>
      </trkpt>
      <trkpt lat="46.95026" lon="8.72119">
        <ele>1456</ele>
        <time>2021-08-06T11:02:55.183Z</time>
      </trkpt>
      <trkpt lat="46.95026" lon="8.72117">
        <ele>1456</ele>
        <time>2021-08-06T11:02:56.183Z</time>
      </trkpt>
      <trkpt lat="46.95025" lon="8.72116">
        <ele>1456</ele>
        <time>2021-08-06T11:02:57.182Z</time>
      </trkpt>
      <trkpt lat="46.95024" lon="8.72115">
        <ele>1456</ele>
        <time>2021-08-06T11:02:58.183Z</time>
      </trkpt>
      <trkpt lat="46.95023" lon="8.72114">
        <ele>1455</ele>
        <time>2021-08-06T11:02:59.182Z</time>
      </trkpt>
      <trkpt lat="46.95023" lon="8.72114">
        <ele>1455</ele>
        <time>2021-08-06T11:03:00.183Z</time>
      </trkpt>
      <trkpt lat="46.95022" lon="8.72113">
        <ele>1455</ele>
        <time>2021-08-06T11:03:01.182Z</time>
      </trkpt>
      <trkpt lat="46.95021" lon="8.72113">
        <ele>1455</ele>
        <time>2021-08-06T11:03:02.183Z</time>
      </trkpt>
      <trkpt lat="46.95022" lon="8.72112">
        <ele>1454</ele>
        <time>2021-08-06T11:03:03.183Z</time>
      </trkpt>
      <trkpt lat="46.95022" lon="8.72112">
        <ele>1454</ele>
        <time>2021-08-06T11:03:04.183Z</time>
      </trkpt>
      <trkpt lat="46.95023" lon="8.7211">
        <ele>1453</ele>
        <time>2021-08-06T11:03:05.183Z</time>
      </trkpt>
      <trkpt lat="46.95023" lon="8.7211">
        <ele>1453</ele>
        <time>2021-08-06T11:03:06.184Z</time>
      </trkpt>
      <trkpt lat="46.95023" lon="8.72109">
        <ele>1453</ele>
        <time>2021-08-06T11:03:07.183Z</time>
      </trkpt>
      <trkpt lat="46.95021" lon="8.72108">
        <ele>1453</ele>
        <time>2021-08-06T11:03:08.184Z</time>
      </trkpt>
      <trkpt lat="46.9502" lon="8.72109">
        <ele>1453</ele>
        <time>2021-08-06T11:03:09.184Z</time>
      </trkpt>
      <trkpt lat="46.9502" lon="8.72111">
        <ele>1453</ele>
        <time>2021-08-06T11:03:10.183Z</time>
      </trkpt>
      <trkpt lat="46.9502" lon="8.72111">
        <ele>1452</ele>
        <time>2021-08-06T11:03:11.184Z</time>
      </trkpt>
      <trkpt lat="46.95021" lon="8.72111">
        <ele>1452</ele>
        <time>2021-08-06T11:03:12.184Z</time>
      </trkpt>
      <trkpt lat="46.9502" lon="8.72112">
        <ele>1451</ele>
        <time>2021-08-06T11:03:13.184Z</time>
      </trkpt>
      <trkpt lat="46.9502" lon="8.72112">
        <ele>1454</ele>
        <time>2021-08-06T11:03:14.186Z</time>
      </trkpt>
      <trkpt lat="46.95019" lon="8.72111">
        <ele>1455</ele>
        <time>2021-08-06T11:03:15.185Z</time>
      </trkpt>
      <trkpt lat="46.95019" lon="8.7211">
        <ele>1455</ele>
        <time>2021-08-06T11:03:16.186Z</time>
      </trkpt>
      <trkpt lat="46.95019" lon="8.72109">
        <ele>1456</ele>
        <time>2021-08-06T11:03:17.185Z</time>
      </trkpt>
      <trkpt lat="46.95019" lon="8.72109">
        <ele>1456</ele>
        <time>2021-08-06T11:03:18.186Z</time>
      </trkpt>
      <trkpt lat="46.95018" lon="8.72108">
        <ele>1456</ele>
        <time>2021-08-06T11:03:19.186Z</time>
      </trkpt>
      <trkpt lat="46.95017" lon="8.72108">
        <ele>1456</ele>
        <time>2021-08-06T11:03:20.186Z</time>
      </trkpt>
      <trkpt lat="46.95017" lon="8.72107">
        <ele>1456</ele>
        <time>2021-08-06T11:03:21.186Z</time>
      </trkpt>
      <trkpt lat="46.95017" lon="8.72106">
        <ele>1456</ele>
        <time>2021-08-06T11:03:22.186Z</time>
      </trkpt>
      <trkpt lat="46.95016" lon="8.72106">
        <ele>1456</ele>
        <time>2021-08-06T11:03:23.185Z</time>
      </trkpt>
      <trkpt lat="46.95015" lon="8.72105">
        <ele>1457</ele>
        <time>2021-08-06T11:03:24.185Z</time>
      </trkpt>
      <trkpt lat="46.95014" lon="8.72105">
        <ele>1457</ele>
        <time>2021-08-06T11:03:25.185Z</time>
      </trkpt>
      <trkpt lat="46.95014" lon="8.72104">
        <ele>1458</ele>
        <time>2021-08-06T11:03:26.186Z</time>
      </trkpt>
      <trkpt lat="46.95014" lon="8.72103">
        <ele>1458</ele>
        <time>2021-08-06T11:03:27.186Z</time>
      </trkpt>
      <trkpt lat="46.95014" lon="8.72102">
        <ele>1458</ele>
        <time>2021-08-06T11:03:28.186Z</time>
      </trkpt>
      <trkpt lat="46.95013" lon="8.72102">
        <ele>1458</ele>
        <time>2021-08-06T11:03:29.186Z</time>
      </trkpt>
      <trkpt lat="46.95013" lon="8.721">
        <ele>1458</ele>
        <time>2021-08-06T11:03:30.186Z</time>
      </trkpt>
      <trkpt lat="46.95013" lon="8.72099">
        <ele>1458</ele>
        <time>2021-08-06T11:03:31.185Z</time>
      </trkpt>
      <trkpt lat="46.95012" lon="8.72098">
        <ele>1458</ele>
        <time>2021-08-06T11:03:32.186Z</time>
      </trkpt>
      <trkpt lat="46.95012" lon="8.72097">
        <ele>1458</ele>
        <time>2021-08-06T11:03:43.242Z</time>
      </trkpt>
      <trkpt lat="46.95012" lon="8.72096">
        <ele>1458</ele>
        <time>2021-08-06T11:03:44.243Z</time>
      </trkpt>
      <trkpt lat="46.95011" lon="8.72095">
        <ele>1458</ele>
        <time>2021-08-06T11:03:45.243Z</time>
      </trkpt>
      <trkpt lat="46.9501" lon="8.72094">
        <ele>1458</ele>
        <time>2021-08-06T11:03:46.243Z</time>
      </trkpt>
      <trkpt lat="46.9501" lon="8.72093">
        <ele>1457</ele>
        <time>2021-08-06T11:03:47.242Z</time>
      </trkpt>
      <trkpt lat="46.9501" lon="8.72091">
        <ele>1457</ele>
        <time>2021-08-06T11:03:48.242Z</time>
      </trkpt>
      <trkpt lat="46.9501" lon="8.7209">
        <ele>1457</ele>
        <time>2021-08-06T11:03:49.243Z</time>
      </trkpt>
      <trkpt lat="46.9501" lon="8.72089">
        <ele>1458</ele>
        <time>2021-08-06T11:03:50.243Z</time>
      </trkpt>
      <trkpt lat="46.95009" lon="8.72088">
        <ele>1458</ele>
        <time>2021-08-06T11:03:51.243Z</time>
      </trkpt>
      <trkpt lat="46.95008" lon="8.72087">
        <ele>1458</ele>
        <time>2021-08-06T11:03:52.243Z</time>
      </trkpt>
      <trkpt lat="46.95008" lon="8.72087">
        <ele>1459</ele>
        <time>2021-08-06T11:03:53.242Z</time>
      </trkpt>
      <trkpt lat="46.95008" lon="8.72086">
        <ele>1459</ele>
        <time>2021-08-06T11:03:54.243Z</time>
      </trkpt>
      <trkpt lat="46.95007" lon="8.72086">
        <ele>1460</ele>
        <time>2021-08-06T11:03:58.380Z</time>
      </trkpt>
      <trkpt lat="46.95006" lon="8.72086">
        <ele>1460</ele>
        <time>2021-08-06T11:03:59.379Z</time>
      </trkpt>
      <trkpt lat="46.95006" lon="8.72086">
        <ele>1460</ele>
        <time>2021-08-06T11:04:00.380Z</time>
      </trkpt>
      <trkpt lat="46.95005" lon="8.72086">
        <ele>1460</ele>
        <time>2021-08-06T11:04:40.487Z</time>
      </trkpt>
      <trkpt lat="46.95004" lon="8.72086">
        <ele>1460</ele>
        <time>2021-08-06T11:04:41.487Z</time>
      </trkpt>
      <trkpt lat="46.95003" lon="8.72085">
        <ele>1461</ele>
        <time>2021-08-06T11:04:54.358Z</time>
      </trkpt>
      <trkpt lat="46.95003" lon="8.72085">
        <ele>1461</ele>
        <time>2021-08-06T11:04:55.358Z</time>
      </trkpt>
      <trkpt lat="46.95002" lon="8.72084">
        <ele>1461</ele>
        <time>2021-08-06T11:04:56.358Z</time>
      </trkpt>
      <trkpt lat="46.95001" lon="8.72084">
        <ele>1460</ele>
        <time>2021-08-06T11:04:57.357Z</time>
      </trkpt>
      <trkpt lat="46.95001" lon="8.72084">
        <ele>1459</ele>
        <time>2021-08-06T11:05:01.324Z</time>
      </trkpt>
      <trkpt lat="46.95" lon="8.72084">
        <ele>1459</ele>
        <time>2021-08-06T11:05:02.324Z</time>
      </trkpt>
      <trkpt lat="46.94999" lon="8.72083">
        <ele>1458</ele>
        <time>2021-08-06T11:05:03.325Z</time>
      </trkpt>
      <trkpt lat="46.94999" lon="8.72083">
        <ele>1457</ele>
        <time>2021-08-06T11:05:04.324Z</time>
      </trkpt>
      <trkpt lat="46.94998" lon="8.72083">
        <ele>1457</ele>
        <time>2021-08-06T11:05:10.330Z</time>
      </trkpt>
      <trkpt lat="46.94997" lon="8.72083">
        <ele>1457</ele>
        <time>2021-08-06T11:05:11.331Z</time>
      </trkpt>
      <trkpt lat="46.94996" lon="8.72083">
        <ele>1458</ele>
        <time>2021-08-06T11:05:18.222Z</time>
      </trkpt>
      <trkpt lat="46.94995" lon="8.72084">
        <ele>1458</ele>
        <time>2021-08-06T11:05:19.221Z</time>
      </trkpt>
      <trkpt lat="46.94995" lon="8.72084">
        <ele>1459</ele>
        <time>2021-08-06T11:05:20.221Z</time>
      </trkpt>
      <trkpt lat="46.94994" lon="8.72083">
        <ele>1459</ele>
        <time>2021-08-06T11:05:21.222Z</time>
      </trkpt>
      <trkpt lat="46.94993" lon="8.72083">
        <ele>1459</ele>
        <time>2021-08-06T11:05:26.377Z</time>
      </trkpt>
      <trkpt lat="46.94992" lon="8.72083">
        <ele>1460</ele>
        <time>2021-08-06T11:05:30.227Z</time>
      </trkpt>
      <trkpt lat="46.94991" lon="8.72082">
        <ele>1460</ele>
        <time>2021-08-06T11:05:44.103Z</time>
      </trkpt>
      <trkpt lat="46.9499" lon="8.72082">
        <ele>1460</ele>
        <time>2021-08-06T11:05:45.103Z</time>
      </trkpt>
      <trkpt lat="46.94989" lon="8.72082">
        <ele>1461</ele>
        <time>2021-08-06T11:05:46.104Z</time>
      </trkpt>
      <trkpt lat="46.94988" lon="8.72083">
        <ele>1461</ele>
        <time>2021-08-06T11:05:47.104Z</time>
      </trkpt>
      <trkpt lat="46.94987" lon="8.72083">
        <ele>1461</ele>
        <time>2021-08-06T11:05:57.086Z</time>
      </trkpt>
      <trkpt lat="46.94986" lon="8.72083">
        <ele>1462</ele>
        <time>2021-08-06T11:05:58.085Z</time>
      </trkpt>
      <trkpt lat="46.94985" lon="8.72083">
        <ele>1462</ele>
        <time>2021-08-06T11:06:15.000Z</time>
      </trkpt>
      <trkpt lat="46.94984" lon="8.72083">
        <ele>1462</ele>
        <time>2021-08-06T11:06:16.000Z</time>
      </trkpt>
      <trkpt lat="46.94983" lon="8.72082">
        <ele>1462</ele>
        <time>2021-08-06T11:06:21.899Z</time>
      </trkpt>
      <trkpt lat="46.94983" lon="8.72082">
        <ele>1462</ele>
        <time>2021-08-06T11:06:22.899Z</time>
      </trkpt>
      <trkpt lat="46.94982" lon="8.72081">
        <ele>1462</ele>
        <time>2021-08-06T11:06:23.898Z</time>
      </trkpt>
      <trkpt lat="46.94981" lon="8.7208">
        <ele>1462</ele>
        <time>2021-08-06T11:06:31.945Z</time>
      </trkpt>
      <trkpt lat="46.9498" lon="8.72079">
        <ele>1461</ele>
        <time>2021-08-06T11:06:32.946Z</time>
      </trkpt>
      <trkpt lat="46.9498" lon="8.72078">
        <ele>1461</ele>
        <time>2021-08-06T11:06:33.946Z</time>
      </trkpt>
      <trkpt lat="46.94979" lon="8.72078">
        <ele>1461</ele>
        <time>2021-08-06T11:06:34.945Z</time>
      </trkpt>
      <trkpt lat="46.94978" lon="8.72077">
        <ele>1461</ele>
        <time>2021-08-06T11:06:35.945Z</time>
      </trkpt>
      <trkpt lat="46.94978" lon="8.72077">
        <ele>1461</ele>
        <time>2021-08-06T11:06:36.945Z</time>
      </trkpt>
      <trkpt lat="46.94977" lon="8.72077">
        <ele>1461</ele>
        <time>2021-08-06T11:06:37.946Z</time>
      </trkpt>
      <trkpt lat="46.94976" lon="8.72076">
        <ele>1460</ele>
        <time>2021-08-06T11:06:38.946Z</time>
      </trkpt>
      <trkpt lat="46.94975" lon="8.72075">
        <ele>1460</ele>
        <time>2021-08-06T11:06:39.946Z</time>
      </trkpt>
      <trkpt lat="46.94974" lon="8.72073">
        <ele>1460</ele>
        <time>2021-08-06T11:06:40.946Z</time>
      </trkpt>
      <trkpt lat="46.94974" lon="8.72072">
        <ele>1461</ele>
        <time>2021-08-06T11:06:41.945Z</time>
      </trkpt>
      <trkpt lat="46.94974" lon="8.72071">
        <ele>1461</ele>
        <time>2021-08-06T11:06:42.945Z</time>
      </trkpt>
      <trkpt lat="46.94974" lon="8.7207">
        <ele>1460</ele>
        <time>2021-08-06T11:06:43.946Z</time>
      </trkpt>
      <trkpt lat="46.94973" lon="8.72069">
        <ele>1460</ele>
        <time>2021-08-06T11:06:44.946Z</time>
      </trkpt>
      <trkpt lat="46.94973" lon="8.72068">
        <ele>1460</ele>
        <time>2021-08-06T11:06:45.945Z</time>
      </trkpt>
      <trkpt lat="46.94972" lon="8.72066">
        <ele>1460</ele>
        <time>2021-08-06T11:06:46.945Z</time>
      </trkpt>
      <trkpt lat="46.94972" lon="8.72065">
        <ele>1459</ele>
        <time>2021-08-06T11:06:47.946Z</time>
      </trkpt>
      <trkpt lat="46.94971" lon="8.72064">
        <ele>1459</ele>
        <time>2021-08-06T11:06:48.946Z</time>
      </trkpt>
      <trkpt lat="46.9497" lon="8.72062">
        <ele>1458</ele>
        <time>2021-08-06T11:06:49.945Z</time>
      </trkpt>
      <trkpt lat="46.9497" lon="8.72061">
        <ele>1458</ele>
        <time>2021-08-06T11:06:50.945Z</time>
      </trkpt>
      <trkpt lat="46.94969" lon="8.7206">
        <ele>1459</ele>
        <time>2021-08-06T11:06:51.945Z</time>
      </trkpt>
      <trkpt lat="46.94968" lon="8.72059">
        <ele>1459</ele>
        <time>2021-08-06T11:06:52.946Z</time>
      </trkpt>
      <trkpt lat="46.94968" lon="8.72058">
        <ele>1459</ele>
        <time>2021-08-06T11:06:53.945Z</time>
      </trkpt>
      <trkpt lat="46.94967" lon="8.72057">
        <ele>1459</ele>
        <time>2021-08-06T11:06:54.945Z</time>
      </trkpt>
      <trkpt lat="46.94967" lon="8.72056">
        <ele>1459</ele>
        <time>2021-08-06T11:06:55.945Z</time>
      </trkpt>
      <trkpt lat="46.94966" lon="8.72055">
        <ele>1460</ele>
        <time>2021-08-06T11:06:56.945Z</time>
      </trkpt>
      <trkpt lat="46.94965" lon="8.72054">
        <ele>1460</ele>
        <time>2021-08-06T11:06:57.945Z</time>
      </trkpt>
      <trkpt lat="46.94964" lon="8.72053">
        <ele>1460</ele>
        <time>2021-08-06T11:06:58.946Z</time>
      </trkpt>
      <trkpt lat="46.94963" lon="8.72052">
        <ele>1461</ele>
        <time>2021-08-06T11:06:59.945Z</time>
      </trkpt>
      <trkpt lat="46.94962" lon="8.72052">
        <ele>1461</ele>
        <time>2021-08-06T11:07:00.945Z</time>
      </trkpt>
      <trkpt lat="46.94961" lon="8.72052">
        <ele>1461</ele>
        <time>2021-08-06T11:07:01.945Z</time>
      </trkpt>
      <trkpt lat="46.9496" lon="8.72052">
        <ele>1462</ele>
        <time>2021-08-06T11:07:02.946Z</time>
      </trkpt>
      <trkpt lat="46.94959" lon="8.72052">
        <ele>1462</ele>
        <time>2021-08-06T11:07:03.946Z</time>
      </trkpt>
      <trkpt lat="46.94958" lon="8.72051">
        <ele>1462</ele>
        <time>2021-08-06T11:07:04.946Z</time>
      </trkpt>
      <trkpt lat="46.94957" lon="8.72051">
        <ele>1462</ele>
        <time>2021-08-06T11:07:05.946Z</time>
      </trkpt>
      <trkpt lat="46.94956" lon="8.72051">
        <ele>1462</ele>
        <time>2021-08-06T11:07:06.946Z</time>
      </trkpt>
      <trkpt lat="46.94954" lon="8.7205">
        <ele>1462</ele>
        <time>2021-08-06T11:07:07.946Z</time>
      </trkpt>
      <trkpt lat="46.94953" lon="8.7205">
        <ele>1463</ele>
        <time>2021-08-06T11:07:08.945Z</time>
      </trkpt>
      <trkpt lat="46.94953" lon="8.7205">
        <ele>1463</ele>
        <time>2021-08-06T11:07:09.946Z</time>
      </trkpt>
      <trkpt lat="46.94952" lon="8.7205">
        <ele>1464</ele>
        <time>2021-08-06T11:07:10.945Z</time>
      </trkpt>
      <trkpt lat="46.94951" lon="8.7205">
        <ele>1464</ele>
        <time>2021-08-06T11:07:11.945Z</time>
      </trkpt>
      <trkpt lat="46.9495" lon="8.72049">
        <ele>1465</ele>
        <time>2021-08-06T11:07:12.946Z</time>
      </trkpt>
      <trkpt lat="46.94949" lon="8.72049">
        <ele>1465</ele>
        <time>2021-08-06T11:07:13.946Z</time>
      </trkpt>
      <trkpt lat="46.94948" lon="8.72048">
        <ele>1465</ele>
        <time>2021-08-06T11:07:14.945Z</time>
      </trkpt>
      <trkpt lat="46.94947" lon="8.72048">
        <ele>1465</ele>
        <time>2021-08-06T11:07:15.945Z</time>
      </trkpt>
      <trkpt lat="46.94946" lon="8.72047">
        <ele>1465</ele>
        <time>2021-08-06T11:07:16.946Z</time>
      </trkpt>
      <trkpt lat="46.94945" lon="8.72046">
        <ele>1465</ele>
        <time>2021-08-06T11:07:17.946Z</time>
      </trkpt>
      <trkpt lat="46.94945" lon="8.72046">
        <ele>1465</ele>
        <time>2021-08-06T11:07:18.946Z</time>
      </trkpt>
      <trkpt lat="46.94944" lon="8.72046">
        <ele>1466</ele>
        <time>2021-08-06T11:07:19.945Z</time>
      </trkpt>
      <trkpt lat="46.94943" lon="8.72046">
        <ele>1466</ele>
        <time>2021-08-06T11:07:20.945Z</time>
      </trkpt>
      <trkpt lat="46.94942" lon="8.72046">
        <ele>1467</ele>
        <time>2021-08-06T11:07:21.945Z</time>
      </trkpt>
      <trkpt lat="46.94942" lon="8.72046">
        <ele>1467</ele>
        <time>2021-08-06T11:07:22.946Z</time>
      </trkpt>
      <trkpt lat="46.94941" lon="8.72045">
        <ele>1468</ele>
        <time>2021-08-06T11:07:23.946Z</time>
      </trkpt>
      <trkpt lat="46.9494" lon="8.72045">
        <ele>1469</ele>
        <time>2021-08-06T11:07:24.945Z</time>
      </trkpt>
      <trkpt lat="46.9494" lon="8.72045">
        <ele>1470</ele>
        <time>2021-08-06T11:07:25.946Z</time>
      </trkpt>
      <trkpt lat="46.9494" lon="8.72043">
        <ele>1470</ele>
        <time>2021-08-06T11:07:26.945Z</time>
      </trkpt>
      <trkpt lat="46.9494" lon="8.72042">
        <ele>1470</ele>
        <time>2021-08-06T11:07:27.946Z</time>
      </trkpt>
      <trkpt lat="46.94941" lon="8.72041">
        <ele>1471</ele>
        <time>2021-08-06T11:07:28.945Z</time>
      </trkpt>
      <trkpt lat="46.94941" lon="8.7204">
        <ele>1471</ele>
        <time>2021-08-06T11:07:29.945Z</time>
      </trkpt>
      <trkpt lat="46.94941" lon="8.72039">
        <ele>1470</ele>
        <time>2021-08-06T11:07:30.945Z</time>
      </trkpt>
      <trkpt lat="46.9494" lon="8.72038">
        <ele>1470</ele>
        <time>2021-08-06T11:07:31.946Z</time>
      </trkpt>
      <trkpt lat="46.9494" lon="8.72037">
        <ele>1470</ele>
        <time>2021-08-06T11:07:32.945Z</time>
      </trkpt>
      <trkpt lat="46.94939" lon="8.72036">
        <ele>1470</ele>
        <time>2021-08-06T11:07:33.946Z</time>
      </trkpt>
      <trkpt lat="46.94939" lon="8.72035">
        <ele>1470</ele>
        <time>2021-08-06T11:07:34.945Z</time>
      </trkpt>
      <trkpt lat="46.94939" lon="8.72034">
        <ele>1470</ele>
        <time>2021-08-06T11:08:05.022Z</time>
      </trkpt>
      <trkpt lat="46.94938" lon="8.72033">
        <ele>1470</ele>
        <time>2021-08-06T11:08:06.022Z</time>
      </trkpt>
      <trkpt lat="46.94938" lon="8.72032">
        <ele>1470</ele>
        <time>2021-08-06T11:08:07.022Z</time>
      </trkpt>
      <trkpt lat="46.94937" lon="8.72031">
        <ele>1471</ele>
        <time>2021-08-06T11:08:08.021Z</time>
      </trkpt>
      <trkpt lat="46.94937" lon="8.7203">
        <ele>1471</ele>
        <time>2021-08-06T11:08:09.021Z</time>
      </trkpt>
      <trkpt lat="46.94937" lon="8.72029">
        <ele>1471</ele>
        <time>2021-08-06T11:08:10.021Z</time>
      </trkpt>
      <trkpt lat="46.94936" lon="8.72028">
        <ele>1471</ele>
        <time>2021-08-06T11:08:11.022Z</time>
      </trkpt>
      <trkpt lat="46.94936" lon="8.72026">
        <ele>1471</ele>
        <time>2021-08-06T11:08:12.021Z</time>
      </trkpt>
      <trkpt lat="46.94936" lon="8.72025">
        <ele>1471</ele>
        <time>2021-08-06T11:08:13.022Z</time>
      </trkpt>
      <trkpt lat="46.94935" lon="8.72023">
        <ele>1471</ele>
        <time>2021-08-06T11:08:14.022Z</time>
      </trkpt>
      <trkpt lat="46.94935" lon="8.72022">
        <ele>1471</ele>
        <time>2021-08-06T11:08:15.022Z</time>
      </trkpt>
      <trkpt lat="46.94935" lon="8.7202">
        <ele>1471</ele>
        <time>2021-08-06T11:08:16.022Z</time>
      </trkpt>
      <trkpt lat="46.94935" lon="8.72019">
        <ele>1471</ele>
        <time>2021-08-06T11:08:17.022Z</time>
      </trkpt>
      <trkpt lat="46.94935" lon="8.72017">
        <ele>1472</ele>
        <time>2021-08-06T11:08:18.021Z</time>
      </trkpt>
      <trkpt lat="46.94934" lon="8.72016">
        <ele>1472</ele>
        <time>2021-08-06T11:08:19.022Z</time>
      </trkpt>
      <trkpt lat="46.94934" lon="8.72015">
        <ele>1472</ele>
        <time>2021-08-06T11:08:20.021Z</time>
      </trkpt>
      <trkpt lat="46.94934" lon="8.72014">
        <ele>1472</ele>
        <time>2021-08-06T11:08:21.021Z</time>
      </trkpt>
      <trkpt lat="46.94934" lon="8.72013">
        <ele>1473</ele>
        <time>2021-08-06T11:08:22.022Z</time>
      </trkpt>
      <trkpt lat="46.94933" lon="8.72011">
        <ele>1473</ele>
        <time>2021-08-06T11:08:23.022Z</time>
      </trkpt>
      <trkpt lat="46.94933" lon="8.7201">
        <ele>1473</ele>
        <time>2021-08-06T11:08:24.022Z</time>
      </trkpt>
      <trkpt lat="46.94933" lon="8.72009">
        <ele>1473</ele>
        <time>2021-08-06T11:08:25.022Z</time>
      </trkpt>
      <trkpt lat="46.94932" lon="8.72007">
        <ele>1473</ele>
        <time>2021-08-06T11:08:26.022Z</time>
      </trkpt>
      <trkpt lat="46.94931" lon="8.72006">
        <ele>1473</ele>
        <time>2021-08-06T11:08:27.022Z</time>
      </trkpt>
      <trkpt lat="46.94931" lon="8.72005">
        <ele>1473</ele>
        <time>2021-08-06T11:08:28.022Z</time>
      </trkpt>
      <trkpt lat="46.9493" lon="8.72005">
        <ele>1473</ele>
        <time>2021-08-06T11:08:29.022Z</time>
      </trkpt>
      <trkpt lat="46.94929" lon="8.72005">
        <ele>1473</ele>
        <time>2021-08-06T11:08:30.022Z</time>
      </trkpt>
      <trkpt lat="46.94928" lon="8.72005">
        <ele>1473</ele>
        <time>2021-08-06T11:08:31.022Z</time>
      </trkpt>
      <trkpt lat="46.94928" lon="8.72004">
        <ele>1473</ele>
        <time>2021-08-06T11:08:32.022Z</time>
      </trkpt>
      <trkpt lat="46.94927" lon="8.72005">
        <ele>1474</ele>
        <time>2021-08-06T11:08:33.022Z</time>
      </trkpt>
      <trkpt lat="46.94926" lon="8.72006">
        <ele>1474</ele>
        <time>2021-08-06T11:08:34.021Z</time>
      </trkpt>
      <trkpt lat="46.94925" lon="8.72006">
        <ele>1474</ele>
        <time>2021-08-06T11:08:35.022Z</time>
      </trkpt>
      <trkpt lat="46.94924" lon="8.72007">
        <ele>1474</ele>
        <time>2021-08-06T11:08:36.022Z</time>
      </trkpt>
      <trkpt lat="46.94923" lon="8.72007">
        <ele>1475</ele>
        <time>2021-08-06T11:08:37.021Z</time>
      </trkpt>
      <trkpt lat="46.94922" lon="8.72007">
        <ele>1474</ele>
        <time>2021-08-06T11:08:41.118Z</time>
      </trkpt>
      <trkpt lat="46.94921" lon="8.72008">
        <ele>1474</ele>
        <time>2021-08-06T11:08:42.118Z</time>
      </trkpt>
      <trkpt lat="46.9492" lon="8.72008">
        <ele>1473</ele>
        <time>2021-08-06T11:08:43.119Z</time>
      </trkpt>
      <trkpt lat="46.9492" lon="8.72009">
        <ele>1473</ele>
        <time>2021-08-06T11:08:44.119Z</time>
      </trkpt>
      <trkpt lat="46.94919" lon="8.72009">
        <ele>1473</ele>
        <time>2021-08-06T11:08:48.206Z</time>
      </trkpt>
      <trkpt lat="46.94918" lon="8.7201">
        <ele>1472</ele>
        <time>2021-08-06T11:08:49.206Z</time>
      </trkpt>
      <trkpt lat="46.94916" lon="8.7201">
        <ele>1472</ele>
        <time>2021-08-06T11:08:50.206Z</time>
      </trkpt>
      <trkpt lat="46.94916" lon="8.72011">
        <ele>1472</ele>
        <time>2021-08-06T11:08:51.206Z</time>
      </trkpt>
      <trkpt lat="46.94915" lon="8.72011">
        <ele>1472</ele>
        <time>2021-08-06T11:08:52.205Z</time>
      </trkpt>
      <trkpt lat="46.94914" lon="8.72012">
        <ele>1471</ele>
        <time>2021-08-06T11:08:53.206Z</time>
      </trkpt>
      <trkpt lat="46.94913" lon="8.72013">
        <ele>1471</ele>
        <time>2021-08-06T11:08:54.206Z</time>
      </trkpt>
      <trkpt lat="46.94913" lon="8.72013">
        <ele>1471</ele>
        <time>2021-08-06T11:08:55.206Z</time>
      </trkpt>
      <trkpt lat="46.94912" lon="8.72014">
        <ele>1471</ele>
        <time>2021-08-06T11:08:56.205Z</time>
      </trkpt>
      <trkpt lat="46.94911" lon="8.72015">
        <ele>1471</ele>
        <time>2021-08-06T11:08:57.205Z</time>
      </trkpt>
      <trkpt lat="46.9491" lon="8.72015">
        <ele>1471</ele>
        <time>2021-08-06T11:08:58.205Z</time>
      </trkpt>
      <trkpt lat="46.9491" lon="8.72016">
        <ele>1471</ele>
        <time>2021-08-06T11:08:59.206Z</time>
      </trkpt>
      <trkpt lat="46.94909" lon="8.72016">
        <ele>1471</ele>
        <time>2021-08-06T11:09:00.206Z</time>
      </trkpt>
      <trkpt lat="46.94908" lon="8.72016">
        <ele>1472</ele>
        <time>2021-08-06T11:09:01.206Z</time>
      </trkpt>
      <trkpt lat="46.94907" lon="8.72016">
        <ele>1472</ele>
        <time>2021-08-06T11:09:02.205Z</time>
      </trkpt>
      <trkpt lat="46.94907" lon="8.72016">
        <ele>1472</ele>
        <time>2021-08-06T11:09:03.206Z</time>
      </trkpt>
      <trkpt lat="46.94906" lon="8.72015">
        <ele>1473</ele>
        <time>2021-08-06T11:09:04.206Z</time>
      </trkpt>
      <trkpt lat="46.94905" lon="8.72015">
        <ele>1473</ele>
        <time>2021-08-06T11:09:05.206Z</time>
      </trkpt>
      <trkpt lat="46.94905" lon="8.72015">
        <ele>1474</ele>
        <time>2021-08-06T11:09:06.205Z</time>
      </trkpt>
      <trkpt lat="46.94905" lon="8.72015">
        <ele>1474</ele>
        <time>2021-08-06T11:09:07.206Z</time>
      </trkpt>
      <trkpt lat="46.94904" lon="8.72014">
        <ele>1475</ele>
        <time>2021-08-06T11:09:08.206Z</time>
      </trkpt>
      <trkpt lat="46.94903" lon="8.72012">
        <ele>1475</ele>
        <time>2021-08-06T11:09:09.206Z</time>
      </trkpt>
      <trkpt lat="46.94902" lon="8.72011">
        <ele>1475</ele>
        <time>2021-08-06T11:09:10.206Z</time>
      </trkpt>
      <trkpt lat="46.94901" lon="8.7201">
        <ele>1476</ele>
        <time>2021-08-06T11:09:11.205Z</time>
      </trkpt>
      <trkpt lat="46.949" lon="8.72009">
        <ele>1476</ele>
        <time>2021-08-06T11:09:12.205Z</time>
      </trkpt>
      <trkpt lat="46.94899" lon="8.72008">
        <ele>1476</ele>
        <time>2021-08-06T11:09:13.205Z</time>
      </trkpt>
      <trkpt lat="46.94898" lon="8.72008">
        <ele>1477</ele>
        <time>2021-08-06T11:09:19.357Z</time>
      </trkpt>
      <trkpt lat="46.94897" lon="8.72007">
        <ele>1477</ele>
        <time>2021-08-06T11:09:20.358Z</time>
      </trkpt>
      <trkpt lat="46.94897" lon="8.72007">
        <ele>1477</ele>
        <time>2021-08-06T11:09:21.358Z</time>
      </trkpt>
      <trkpt lat="46.94896" lon="8.72006">
        <ele>1477</ele>
        <time>2021-08-06T11:09:22.358Z</time>
      </trkpt>
      <trkpt lat="46.94896" lon="8.72006">
        <ele>1477</ele>
        <time>2021-08-06T11:09:23.358Z</time>
      </trkpt>
      <trkpt lat="46.94896" lon="8.72005">
        <ele>1477</ele>
        <time>2021-08-06T11:09:24.357Z</time>
      </trkpt>
      <trkpt lat="46.94895" lon="8.72003">
        <ele>1477</ele>
        <time>2021-08-06T11:09:25.357Z</time>
      </trkpt>
      <trkpt lat="46.94895" lon="8.72002">
        <ele>1477</ele>
        <time>2021-08-06T11:09:26.357Z</time>
      </trkpt>
      <trkpt lat="46.94894" lon="8.72001">
        <ele>1477</ele>
        <time>2021-08-06T11:09:27.358Z</time>
      </trkpt>
      <trkpt lat="46.94894" lon="8.72">
        <ele>1477</ele>
        <time>2021-08-06T11:09:28.357Z</time>
      </trkpt>
      <trkpt lat="46.94893" lon="8.71999">
        <ele>1476</ele>
        <time>2021-08-06T11:09:29.358Z</time>
      </trkpt>
      <trkpt lat="46.94892" lon="8.71997">
        <ele>1476</ele>
        <time>2021-08-06T11:09:30.358Z</time>
      </trkpt>
      <trkpt lat="46.94892" lon="8.71996">
        <ele>1476</ele>
        <time>2021-08-06T11:09:31.357Z</time>
      </trkpt>
      <trkpt lat="46.94891" lon="8.71995">
        <ele>1476</ele>
        <time>2021-08-06T11:09:32.358Z</time>
      </trkpt>
      <trkpt lat="46.9489" lon="8.71995">
        <ele>1476</ele>
        <time>2021-08-06T11:09:33.357Z</time>
      </trkpt>
      <trkpt lat="46.9489" lon="8.71994">
        <ele>1477</ele>
        <time>2021-08-06T11:09:36.456Z</time>
      </trkpt>
      <trkpt lat="46.94889" lon="8.71993">
        <ele>1477</ele>
        <time>2021-08-06T11:09:37.455Z</time>
      </trkpt>
      <trkpt lat="46.94888" lon="8.71994">
        <ele>1478</ele>
        <time>2021-08-06T11:09:38.456Z</time>
      </trkpt>
      <trkpt lat="46.94887" lon="8.71993">
        <ele>1478</ele>
        <time>2021-08-06T11:09:39.456Z</time>
      </trkpt>
      <trkpt lat="46.94887" lon="8.71993">
        <ele>1478</ele>
        <time>2021-08-06T11:09:41.443Z</time>
      </trkpt>
      <trkpt lat="46.94886" lon="8.71992">
        <ele>1478</ele>
        <time>2021-08-06T11:09:42.443Z</time>
      </trkpt>
      <trkpt lat="46.94886" lon="8.71992">
        <ele>1478</ele>
        <time>2021-08-06T11:09:43.442Z</time>
      </trkpt>
      <trkpt lat="46.94885" lon="8.71991">
        <ele>1478</ele>
        <time>2021-08-06T11:09:44.443Z</time>
      </trkpt>
      <trkpt lat="46.94885" lon="8.7199">
        <ele>1478</ele>
        <time>2021-08-06T11:09:45.443Z</time>
      </trkpt>
      <trkpt lat="46.94885" lon="8.71988">
        <ele>1479</ele>
        <time>2021-08-06T11:09:46.443Z</time>
      </trkpt>
      <trkpt lat="46.94885" lon="8.71987">
        <ele>1478</ele>
        <time>2021-08-06T11:09:47.443Z</time>
      </trkpt>
      <trkpt lat="46.94885" lon="8.71986">
        <ele>1478</ele>
        <time>2021-08-06T11:09:48.442Z</time>
      </trkpt>
      <trkpt lat="46.94885" lon="8.71985">
        <ele>1478</ele>
        <time>2021-08-06T11:09:49.443Z</time>
      </trkpt>
      <trkpt lat="46.94884" lon="8.71983">
        <ele>1478</ele>
        <time>2021-08-06T11:09:50.443Z</time>
      </trkpt>
      <trkpt lat="46.94884" lon="8.71983">
        <ele>1478</ele>
        <time>2021-08-06T11:09:51.442Z</time>
      </trkpt>
      <trkpt lat="46.94883" lon="8.71982">
        <ele>1478</ele>
        <time>2021-08-06T11:09:52.442Z</time>
      </trkpt>
      <trkpt lat="46.94882" lon="8.71982">
        <ele>1478</ele>
        <time>2021-08-06T11:09:53.443Z</time>
      </trkpt>
      <trkpt lat="46.94882" lon="8.71982">
        <ele>1478</ele>
        <time>2021-08-06T11:09:54.442Z</time>
      </trkpt>
      <trkpt lat="46.94881" lon="8.71982">
        <ele>1478</ele>
        <time>2021-08-06T11:09:55.443Z</time>
      </trkpt>
      <trkpt lat="46.9488" lon="8.71982">
        <ele>1479</ele>
        <time>2021-08-06T11:09:56.443Z</time>
      </trkpt>
      <trkpt lat="46.9488" lon="8.71981">
        <ele>1479</ele>
        <time>2021-08-06T11:09:57.443Z</time>
      </trkpt>
      <trkpt lat="46.94878" lon="8.71981">
        <ele>1480</ele>
        <time>2021-08-06T11:09:58.443Z</time>
      </trkpt>
      <trkpt lat="46.94877" lon="8.71981">
        <ele>1480</ele>
        <time>2021-08-06T11:09:59.442Z</time>
      </trkpt>
      <trkpt lat="46.94877" lon="8.7198">
        <ele>1480</ele>
        <time>2021-08-06T11:10:00.442Z</time>
      </trkpt>
      <trkpt lat="46.94876" lon="8.7198">
        <ele>1480</ele>
        <time>2021-08-06T11:10:01.443Z</time>
      </trkpt>
      <trkpt lat="46.94876" lon="8.71979">
        <ele>1480</ele>
        <time>2021-08-06T11:10:02.443Z</time>
      </trkpt>
      <trkpt lat="46.94876" lon="8.71978">
        <ele>1480</ele>
        <time>2021-08-06T11:10:03.443Z</time>
      </trkpt>
      <trkpt lat="46.94876" lon="8.71978">
        <ele>1480</ele>
        <time>2021-08-06T11:10:04.442Z</time>
      </trkpt>
      <trkpt lat="46.94876" lon="8.71977">
        <ele>1480</ele>
        <time>2021-08-06T11:10:05.443Z</time>
      </trkpt>
      <trkpt lat="46.94876" lon="8.71977">
        <ele>1480</ele>
        <time>2021-08-06T11:10:06.442Z</time>
      </trkpt>
      <trkpt lat="46.94876" lon="8.71977">
        <ele>1479</ele>
        <time>2021-08-06T11:10:07.442Z</time>
      </trkpt>
      <trkpt lat="46.94874" lon="8.71977">
        <ele>1479</ele>
        <time>2021-08-06T11:10:08.442Z</time>
      </trkpt>
      <trkpt lat="46.94874" lon="8.71976">
        <ele>1479</ele>
        <time>2021-08-06T11:10:09.443Z</time>
      </trkpt>
      <trkpt lat="46.94873" lon="8.71975">
        <ele>1479</ele>
        <time>2021-08-06T11:10:10.442Z</time>
      </trkpt>
      <trkpt lat="46.94872" lon="8.71974">
        <ele>1479</ele>
        <time>2021-08-06T11:10:11.443Z</time>
      </trkpt>
      <trkpt lat="46.94871" lon="8.71974">
        <ele>1479</ele>
        <time>2021-08-06T11:10:12.443Z</time>
      </trkpt>
      <trkpt lat="46.9487" lon="8.71973">
        <ele>1479</ele>
        <time>2021-08-06T11:10:13.443Z</time>
      </trkpt>
      <trkpt lat="46.9487" lon="8.71973">
        <ele>1478</ele>
        <time>2021-08-06T11:10:14.443Z</time>
      </trkpt>
      <trkpt lat="46.94869" lon="8.71973">
        <ele>1478</ele>
        <time>2021-08-06T11:10:18.627Z</time>
      </trkpt>
      <trkpt lat="46.94868" lon="8.71973">
        <ele>1479</ele>
        <time>2021-08-06T11:10:19.626Z</time>
      </trkpt>
      <trkpt lat="46.94867" lon="8.71973">
        <ele>1479</ele>
        <time>2021-08-06T11:10:20.627Z</time>
      </trkpt>
      <trkpt lat="46.94868" lon="8.71973">
        <ele>1480</ele>
        <time>2021-08-06T11:10:21.627Z</time>
      </trkpt>
      <trkpt lat="46.94868" lon="8.71973">
        <ele>1481</ele>
        <time>2021-08-06T11:10:27.754Z</time>
      </trkpt>
      <trkpt lat="46.94869" lon="8.71973">
        <ele>1481</ele>
        <time>2021-08-06T11:10:28.753Z</time>
      </trkpt>
      <trkpt lat="46.9487" lon="8.71972">
        <ele>1481</ele>
        <time>2021-08-06T11:10:29.753Z</time>
      </trkpt>
      <trkpt lat="46.9487" lon="8.71972">
        <ele>1480</ele>
        <time>2021-08-06T11:10:39.833Z</time>
      </trkpt>
      <trkpt lat="46.9487" lon="8.71972">
        <ele>1480</ele>
        <time>2021-08-06T11:10:40.833Z</time>
      </trkpt>
      <trkpt lat="46.94868" lon="8.71971">
        <ele>1481</ele>
        <time>2021-08-06T11:10:41.834Z</time>
      </trkpt>
      <trkpt lat="46.94868" lon="8.71971">
        <ele>1481</ele>
        <time>2021-08-06T11:10:47.877Z</time>
      </trkpt>
      <trkpt lat="46.94868" lon="8.71972">
        <ele>1481</ele>
        <time>2021-08-06T11:10:48.876Z</time>
      </trkpt>
      <trkpt lat="46.94868" lon="8.71973">
        <ele>1481</ele>
        <time>2021-08-06T11:10:49.877Z</time>
      </trkpt>
      <trkpt lat="46.94868" lon="8.71973">
        <ele>1481</ele>
        <time>2021-08-06T11:10:50.876Z</time>
      </trkpt>
      <trkpt lat="46.94868" lon="8.71974">
        <ele>1480</ele>
        <time>2021-08-06T11:10:51.877Z</time>
      </trkpt>
      <trkpt lat="46.94869" lon="8.71975">
        <ele>1480</ele>
        <time>2021-08-06T11:10:52.876Z</time>
      </trkpt>
      <trkpt lat="46.94867" lon="8.71971">
        <ele>1477</ele>
        <time>2021-08-06T11:10:53.878Z</time>
      </trkpt>
      <trkpt lat="46.94867" lon="8.71971">
        <ele>1478</ele>
        <time>2021-08-06T11:10:55.978Z</time>
      </trkpt>
      <trkpt lat="46.94866" lon="8.71972">
        <ele>1478</ele>
        <time>2021-08-06T11:10:56.977Z</time>
      </trkpt>
      <trkpt lat="46.94865" lon="8.71974">
        <ele>1478</ele>
        <time>2021-08-06T11:10:57.978Z</time>
      </trkpt>
      <trkpt lat="46.94865" lon="8.71975">
        <ele>1478</ele>
        <time>2021-08-06T11:10:58.979Z</time>
      </trkpt>
      <trkpt lat="46.94865" lon="8.71975">
        <ele>1478</ele>
        <time>2021-08-06T11:10:59.978Z</time>
      </trkpt>
      <trkpt lat="46.94865" lon="8.71974">
        <ele>1478</ele>
        <time>2021-08-06T11:11:00.979Z</time>
      </trkpt>
      <trkpt lat="46.94865" lon="8.71973">
        <ele>1477</ele>
        <time>2021-08-06T11:11:01.979Z</time>
      </trkpt>
      <trkpt lat="46.94865" lon="8.71973">
        <ele>1477</ele>
        <time>2021-08-06T11:11:02.979Z</time>
      </trkpt>
      <trkpt lat="46.94865" lon="8.71972">
        <ele>1476</ele>
        <time>2021-08-06T11:11:26.091Z</time>
      </trkpt>
      <trkpt lat="46.94864" lon="8.71971">
        <ele>1475</ele>
        <time>2021-08-06T11:11:27.090Z</time>
      </trkpt>
      <trkpt lat="46.94864" lon="8.71971">
        <ele>1475</ele>
        <time>2021-08-06T11:11:28.091Z</time>
      </trkpt>
      <trkpt lat="46.94863" lon="8.7197">
        <ele>1475</ele>
        <time>2021-08-06T11:11:37.215Z</time>
      </trkpt>
      <trkpt lat="46.94863" lon="8.71969">
        <ele>1475</ele>
        <time>2021-08-06T11:11:38.215Z</time>
      </trkpt>
      <trkpt lat="46.94862" lon="8.71969">
        <ele>1475</ele>
        <time>2021-08-06T11:11:39.216Z</time>
      </trkpt>
      <trkpt lat="46.94862" lon="8.71968">
        <ele>1475</ele>
        <time>2021-08-06T11:11:40.216Z</time>
      </trkpt>
      <trkpt lat="46.94863" lon="8.71968">
        <ele>1475</ele>
        <time>2021-08-06T11:11:41.216Z</time>
      </trkpt>
      <trkpt lat="46.94862" lon="8.71967">
        <ele>1475</ele>
        <time>2021-08-06T11:11:42.216Z</time>
      </trkpt>
      <trkpt lat="46.94862" lon="8.71966">
        <ele>1475</ele>
        <time>2021-08-06T11:12:06.371Z</time>
      </trkpt>
      <trkpt lat="46.94861" lon="8.71965">
        <ele>1475</ele>
        <time>2021-08-06T11:12:07.371Z</time>
      </trkpt>
      <trkpt lat="46.94861" lon="8.71964">
        <ele>1475</ele>
        <time>2021-08-06T11:12:08.372Z</time>
      </trkpt>
      <trkpt lat="46.94861" lon="8.71963">
        <ele>1476</ele>
        <time>2021-08-06T11:12:26.466Z</time>
      </trkpt>
      <trkpt lat="46.9486" lon="8.71963">
        <ele>1476</ele>
        <time>2021-08-06T11:12:27.467Z</time>
      </trkpt>
      <trkpt lat="46.9486" lon="8.71964">
        <ele>1476</ele>
        <time>2021-08-06T11:12:28.466Z</time>
      </trkpt>
      <trkpt lat="46.94861" lon="8.71962">
        <ele>1479</ele>
        <time>2021-08-06T11:12:29.467Z</time>
      </trkpt>
      <trkpt lat="46.94861" lon="8.71961">
        <ele>1479</ele>
        <time>2021-08-06T11:12:30.467Z</time>
      </trkpt>
      <trkpt lat="46.9486" lon="8.7196">
        <ele>1479</ele>
        <time>2021-08-06T11:12:31.466Z</time>
      </trkpt>
      <trkpt lat="46.9486" lon="8.7196">
        <ele>1480</ele>
        <time>2021-08-06T11:12:32.466Z</time>
      </trkpt>
      <trkpt lat="46.94859" lon="8.71959">
        <ele>1480</ele>
        <time>2021-08-06T11:12:33.466Z</time>
      </trkpt>
      <trkpt lat="46.94858" lon="8.71958">
        <ele>1480</ele>
        <time>2021-08-06T11:12:34.466Z</time>
      </trkpt>
      <trkpt lat="46.94857" lon="8.71957">
        <ele>1480</ele>
        <time>2021-08-06T11:12:35.466Z</time>
      </trkpt>
      <trkpt lat="46.94857" lon="8.71956">
        <ele>1480</ele>
        <time>2021-08-06T11:12:36.467Z</time>
      </trkpt>
      <trkpt lat="46.94856" lon="8.71955">
        <ele>1480</ele>
        <time>2021-08-06T11:12:37.467Z</time>
      </trkpt>
      <trkpt lat="46.94856" lon="8.71954">
        <ele>1480</ele>
        <time>2021-08-06T11:12:38.467Z</time>
      </trkpt>
      <trkpt lat="46.94855" lon="8.71954">
        <ele>1480</ele>
        <time>2021-08-06T11:12:39.467Z</time>
      </trkpt>
      <trkpt lat="46.94854" lon="8.71953">
        <ele>1480</ele>
        <time>2021-08-06T11:12:40.467Z</time>
      </trkpt>
      <trkpt lat="46.94854" lon="8.71953">
        <ele>1480</ele>
        <time>2021-08-06T11:12:41.466Z</time>
      </trkpt>
      <trkpt lat="46.94853" lon="8.71952">
        <ele>1480</ele>
        <time>2021-08-06T11:12:51.611Z</time>
      </trkpt>
      <trkpt lat="46.94853" lon="8.71952">
        <ele>1479</ele>
        <time>2021-08-06T11:12:52.612Z</time>
      </trkpt>
      <trkpt lat="46.94851" lon="8.71951">
        <ele>1479</ele>
        <time>2021-08-06T11:12:53.612Z</time>
      </trkpt>
      <trkpt lat="46.94851" lon="8.7195">
        <ele>1479</ele>
        <time>2021-08-06T11:12:54.612Z</time>
      </trkpt>
      <trkpt lat="46.9485" lon="8.71949">
        <ele>1479</ele>
        <time>2021-08-06T11:13:03.760Z</time>
      </trkpt>
      <trkpt lat="46.94849" lon="8.71948">
        <ele>1478</ele>
        <time>2021-08-06T11:13:19.616Z</time>
      </trkpt>
      <trkpt lat="46.94848" lon="8.71948">
        <ele>1478</ele>
        <time>2021-08-06T11:13:55.452Z</time>
      </trkpt>
      <trkpt lat="46.94847" lon="8.71948">
        <ele>1477</ele>
        <time>2021-08-06T11:13:56.453Z</time>
      </trkpt>
      <trkpt lat="46.94846" lon="8.71947">
        <ele>1477</ele>
        <time>2021-08-06T11:14:09.269Z</time>
      </trkpt>
      <trkpt lat="46.94845" lon="8.71946">
        <ele>1477</ele>
        <time>2021-08-06T11:14:10.270Z</time>
      </trkpt>
      <trkpt lat="46.94844" lon="8.71946">
        <ele>1476</ele>
        <time>2021-08-06T11:14:11.270Z</time>
      </trkpt>
      <trkpt lat="46.94842" lon="8.71945">
        <ele>1476</ele>
        <time>2021-08-06T11:14:12.270Z</time>
      </trkpt>
      <trkpt lat="46.94841" lon="8.71945">
        <ele>1475</ele>
        <time>2021-08-06T11:14:13.269Z</time>
      </trkpt>
      <trkpt lat="46.9484" lon="8.71944">
        <ele>1475</ele>
        <time>2021-08-06T11:14:14.270Z</time>
      </trkpt>
      <trkpt lat="46.94839" lon="8.71944">
        <ele>1475</ele>
        <time>2021-08-06T11:14:15.270Z</time>
      </trkpt>
      <trkpt lat="46.94838" lon="8.71944">
        <ele>1475</ele>
        <time>2021-08-06T11:14:16.269Z</time>
      </trkpt>
      <trkpt lat="46.94837" lon="8.71943">
        <ele>1475</ele>
        <time>2021-08-06T11:14:17.270Z</time>
      </trkpt>
      <trkpt lat="46.94837" lon="8.71943">
        <ele>1475</ele>
        <time>2021-08-06T11:14:18.269Z</time>
      </trkpt>
      <trkpt lat="46.94836" lon="8.71942">
        <ele>1475</ele>
        <time>2021-08-06T11:14:19.270Z</time>
      </trkpt>
      <trkpt lat="46.94835" lon="8.71942">
        <ele>1475</ele>
        <time>2021-08-06T11:14:20.270Z</time>
      </trkpt>
      <trkpt lat="46.94835" lon="8.71942">
        <ele>1475</ele>
        <time>2021-08-06T11:14:21.270Z</time>
      </trkpt>
      <trkpt lat="46.94834" lon="8.71941">
        <ele>1475</ele>
        <time>2021-08-06T11:14:22.270Z</time>
      </trkpt>
      <trkpt lat="46.94833" lon="8.71941">
        <ele>1475</ele>
        <time>2021-08-06T11:14:23.269Z</time>
      </trkpt>
      <trkpt lat="46.94832" lon="8.7194">
        <ele>1476</ele>
        <time>2021-08-06T11:14:24.270Z</time>
      </trkpt>
      <trkpt lat="46.94831" lon="8.71939">
        <ele>1476</ele>
        <time>2021-08-06T11:14:25.269Z</time>
      </trkpt>
      <trkpt lat="46.94831" lon="8.71938">
        <ele>1476</ele>
        <time>2021-08-06T11:14:26.270Z</time>
      </trkpt>
      <trkpt lat="46.9483" lon="8.71937">
        <ele>1477</ele>
        <time>2021-08-06T11:14:27.269Z</time>
      </trkpt>
      <trkpt lat="46.94829" lon="8.71936">
        <ele>1477</ele>
        <time>2021-08-06T11:14:28.269Z</time>
      </trkpt>
      <trkpt lat="46.94828" lon="8.71935">
        <ele>1477</ele>
        <time>2021-08-06T11:14:29.270Z</time>
      </trkpt>
      <trkpt lat="46.94828" lon="8.71934">
        <ele>1478</ele>
        <time>2021-08-06T11:14:30.270Z</time>
      </trkpt>
      <trkpt lat="46.94827" lon="8.71934">
        <ele>1478</ele>
        <time>2021-08-06T11:14:31.269Z</time>
      </trkpt>
      <trkpt lat="46.94827" lon="8.71933">
        <ele>1478</ele>
        <time>2021-08-06T11:14:32.269Z</time>
      </trkpt>
      <trkpt lat="46.94826" lon="8.71932">
        <ele>1479</ele>
        <time>2021-08-06T11:14:33.269Z</time>
      </trkpt>
      <trkpt lat="46.94825" lon="8.71931">
        <ele>1479</ele>
        <time>2021-08-06T11:14:34.270Z</time>
      </trkpt>
      <trkpt lat="46.94823" lon="8.7193">
        <ele>1479</ele>
        <time>2021-08-06T11:14:35.269Z</time>
      </trkpt>
      <trkpt lat="46.94823" lon="8.71929">
        <ele>1479</ele>
        <time>2021-08-06T11:14:36.270Z</time>
      </trkpt>
      <trkpt lat="46.94822" lon="8.71928">
        <ele>1479</ele>
        <time>2021-08-06T11:14:37.269Z</time>
      </trkpt>
      <trkpt lat="46.94821" lon="8.71927">
        <ele>1479</ele>
        <time>2021-08-06T11:14:38.269Z</time>
      </trkpt>
      <trkpt lat="46.94821" lon="8.71926">
        <ele>1480</ele>
        <time>2021-08-06T11:14:39.270Z</time>
      </trkpt>
      <trkpt lat="46.94821" lon="8.71925">
        <ele>1480</ele>
        <time>2021-08-06T11:14:40.269Z</time>
      </trkpt>
      <trkpt lat="46.9482" lon="8.71924">
        <ele>1480</ele>
        <time>2021-08-06T11:14:41.270Z</time>
      </trkpt>
      <trkpt lat="46.9482" lon="8.71923">
        <ele>1480</ele>
        <time>2021-08-06T11:14:42.269Z</time>
      </trkpt>
      <trkpt lat="46.9482" lon="8.71922">
        <ele>1480</ele>
        <time>2021-08-06T11:14:43.269Z</time>
      </trkpt>
      <trkpt lat="46.94819" lon="8.71921">
        <ele>1481</ele>
        <time>2021-08-06T11:14:44.269Z</time>
      </trkpt>
      <trkpt lat="46.94819" lon="8.7192">
        <ele>1481</ele>
        <time>2021-08-06T11:14:45.270Z</time>
      </trkpt>
      <trkpt lat="46.94819" lon="8.71919">
        <ele>1481</ele>
        <time>2021-08-06T11:14:46.269Z</time>
      </trkpt>
      <trkpt lat="46.94819" lon="8.71917">
        <ele>1482</ele>
        <time>2021-08-06T11:14:47.269Z</time>
      </trkpt>
      <trkpt lat="46.94818" lon="8.71916">
        <ele>1482</ele>
        <time>2021-08-06T11:14:48.269Z</time>
      </trkpt>
      <trkpt lat="46.94817" lon="8.71916">
        <ele>1482</ele>
        <time>2021-08-06T11:14:49.270Z</time>
      </trkpt>
      <trkpt lat="46.94817" lon="8.71915">
        <ele>1482</ele>
        <time>2021-08-06T11:14:50.269Z</time>
      </trkpt>
      <trkpt lat="46.94816" lon="8.71914">
        <ele>1482</ele>
        <time>2021-08-06T11:14:51.269Z</time>
      </trkpt>
      <trkpt lat="46.94815" lon="8.71913">
        <ele>1482</ele>
        <time>2021-08-06T11:14:52.269Z</time>
      </trkpt>
      <trkpt lat="46.94815" lon="8.71912">
        <ele>1481</ele>
        <time>2021-08-06T11:14:53.270Z</time>
      </trkpt>
      <trkpt lat="46.94815" lon="8.71911">
        <ele>1481</ele>
        <time>2021-08-06T11:14:54.269Z</time>
      </trkpt>
      <trkpt lat="46.94815" lon="8.7191">
        <ele>1481</ele>
        <time>2021-08-06T11:14:55.269Z</time>
      </trkpt>
      <trkpt lat="46.94814" lon="8.71909">
        <ele>1481</ele>
        <time>2021-08-06T11:14:56.270Z</time>
      </trkpt>
      <trkpt lat="46.94813" lon="8.71908">
        <ele>1481</ele>
        <time>2021-08-06T11:14:57.270Z</time>
      </trkpt>
      <trkpt lat="46.94813" lon="8.71907">
        <ele>1481</ele>
        <time>2021-08-06T11:14:58.270Z</time>
      </trkpt>
      <trkpt lat="46.94812" lon="8.71906">
        <ele>1480</ele>
        <time>2021-08-06T11:14:59.270Z</time>
      </trkpt>
      <trkpt lat="46.94812" lon="8.71905">
        <ele>1480</ele>
        <time>2021-08-06T11:15:00.269Z</time>
      </trkpt>
      <trkpt lat="46.94811" lon="8.71904">
        <ele>1480</ele>
        <time>2021-08-06T11:15:01.270Z</time>
      </trkpt>
      <trkpt lat="46.94811" lon="8.71902">
        <ele>1480</ele>
        <time>2021-08-06T11:15:02.270Z</time>
      </trkpt>
      <trkpt lat="46.9481" lon="8.71901">
        <ele>1480</ele>
        <time>2021-08-06T11:15:03.270Z</time>
      </trkpt>
      <trkpt lat="46.94809" lon="8.71901">
        <ele>1480</ele>
        <time>2021-08-06T11:15:04.270Z</time>
      </trkpt>
      <trkpt lat="46.94808" lon="8.719">
        <ele>1480</ele>
        <time>2021-08-06T11:15:06.350Z</time>
      </trkpt>
      <trkpt lat="46.94808" lon="8.71899">
        <ele>1481</ele>
        <time>2021-08-06T11:15:13.186Z</time>
      </trkpt>
      <trkpt lat="46.94807" lon="8.71899">
        <ele>1480</ele>
        <time>2021-08-06T11:15:14.186Z</time>
      </trkpt>
      <trkpt lat="46.94807" lon="8.71898">
        <ele>1480</ele>
        <time>2021-08-06T11:15:15.186Z</time>
      </trkpt>
      <trkpt lat="46.94806" lon="8.71896">
        <ele>1480</ele>
        <time>2021-08-06T11:15:16.187Z</time>
      </trkpt>
      <trkpt lat="46.94805" lon="8.71894">
        <ele>1480</ele>
        <time>2021-08-06T11:15:17.187Z</time>
      </trkpt>
      <trkpt lat="46.94804" lon="8.71893">
        <ele>1480</ele>
        <time>2021-08-06T11:15:18.186Z</time>
      </trkpt>
      <trkpt lat="46.94803" lon="8.71892">
        <ele>1480</ele>
        <time>2021-08-06T11:15:19.187Z</time>
      </trkpt>
      <trkpt lat="46.94802" lon="8.71891">
        <ele>1480</ele>
        <time>2021-08-06T11:15:20.187Z</time>
      </trkpt>
      <trkpt lat="46.94801" lon="8.7189">
        <ele>1480</ele>
        <time>2021-08-06T11:15:21.186Z</time>
      </trkpt>
      <trkpt lat="46.94801" lon="8.71888">
        <ele>1481</ele>
        <time>2021-08-06T11:15:25.225Z</time>
      </trkpt>
      <trkpt lat="46.948" lon="8.71887">
        <ele>1481</ele>
        <time>2021-08-06T11:15:26.225Z</time>
      </trkpt>
      <trkpt lat="46.94799" lon="8.71885">
        <ele>1481</ele>
        <time>2021-08-06T11:15:27.226Z</time>
      </trkpt>
      <trkpt lat="46.94799" lon="8.71884">
        <ele>1482</ele>
        <time>2021-08-06T11:15:28.226Z</time>
      </trkpt>
      <trkpt lat="46.94798" lon="8.71883">
        <ele>1482</ele>
        <time>2021-08-06T11:15:29.226Z</time>
      </trkpt>
      <trkpt lat="46.94798" lon="8.71882">
        <ele>1482</ele>
        <time>2021-08-06T11:15:30.225Z</time>
      </trkpt>
      <trkpt lat="46.94797" lon="8.71881">
        <ele>1482</ele>
        <time>2021-08-06T11:15:31.226Z</time>
      </trkpt>
      <trkpt lat="46.94796" lon="8.7188">
        <ele>1482</ele>
        <time>2021-08-06T11:15:32.226Z</time>
      </trkpt>
      <trkpt lat="46.94795" lon="8.71878">
        <ele>1482</ele>
        <time>2021-08-06T11:15:33.225Z</time>
      </trkpt>
      <trkpt lat="46.94794" lon="8.71877">
        <ele>1481</ele>
        <time>2021-08-06T11:15:34.226Z</time>
      </trkpt>
      <trkpt lat="46.94793" lon="8.71876">
        <ele>1481</ele>
        <time>2021-08-06T11:15:35.225Z</time>
      </trkpt>
      <trkpt lat="46.94792" lon="8.71875">
        <ele>1481</ele>
        <time>2021-08-06T11:15:36.226Z</time>
      </trkpt>
      <trkpt lat="46.94791" lon="8.71874">
        <ele>1480</ele>
        <time>2021-08-06T11:15:37.225Z</time>
      </trkpt>
      <trkpt lat="46.9479" lon="8.71873">
        <ele>1480</ele>
        <time>2021-08-06T11:15:38.226Z</time>
      </trkpt>
      <trkpt lat="46.9479" lon="8.71872">
        <ele>1480</ele>
        <time>2021-08-06T11:15:39.225Z</time>
      </trkpt>
      <trkpt lat="46.94789" lon="8.71871">
        <ele>1480</ele>
        <time>2021-08-06T11:15:40.226Z</time>
      </trkpt>
      <trkpt lat="46.94789" lon="8.71871">
        <ele>1480</ele>
        <time>2021-08-06T11:15:41.226Z</time>
      </trkpt>
      <trkpt lat="46.94788" lon="8.7187">
        <ele>1480</ele>
        <time>2021-08-06T11:15:42.225Z</time>
      </trkpt>
      <trkpt lat="46.94788" lon="8.7187">
        <ele>1479</ele>
        <time>2021-08-06T11:15:43.225Z</time>
      </trkpt>
      <trkpt lat="46.94787" lon="8.71869">
        <ele>1479</ele>
        <time>2021-08-06T11:15:44.226Z</time>
      </trkpt>
      <trkpt lat="46.94787" lon="8.71868">
        <ele>1479</ele>
        <time>2021-08-06T11:15:45.226Z</time>
      </trkpt>
      <trkpt lat="46.94786" lon="8.71867">
        <ele>1478</ele>
        <time>2021-08-06T11:15:46.226Z</time>
      </trkpt>
      <trkpt lat="46.94785" lon="8.71866">
        <ele>1478</ele>
        <time>2021-08-06T11:15:47.226Z</time>
      </trkpt>
      <trkpt lat="46.94784" lon="8.71865">
        <ele>1478</ele>
        <time>2021-08-06T11:15:48.225Z</time>
      </trkpt>
      <trkpt lat="46.94784" lon="8.71864">
        <ele>1479</ele>
        <time>2021-08-06T11:15:49.225Z</time>
      </trkpt>
      <trkpt lat="46.94784" lon="8.71863">
        <ele>1479</ele>
        <time>2021-08-06T11:15:50.225Z</time>
      </trkpt>
      <trkpt lat="46.94783" lon="8.71862">
        <ele>1480</ele>
        <time>2021-08-06T11:15:51.225Z</time>
      </trkpt>
      <trkpt lat="46.94782" lon="8.71861">
        <ele>1480</ele>
        <time>2021-08-06T11:15:52.226Z</time>
      </trkpt>
      <trkpt lat="46.94782" lon="8.7186">
        <ele>1480</ele>
        <time>2021-08-06T11:15:53.226Z</time>
      </trkpt>
      <trkpt lat="46.94781" lon="8.71859">
        <ele>1481</ele>
        <time>2021-08-06T11:15:54.226Z</time>
      </trkpt>
      <trkpt lat="46.9478" lon="8.71858">
        <ele>1481</ele>
        <time>2021-08-06T11:15:55.225Z</time>
      </trkpt>
      <trkpt lat="46.94779" lon="8.71858">
        <ele>1481</ele>
        <time>2021-08-06T11:15:56.226Z</time>
      </trkpt>
      <trkpt lat="46.94778" lon="8.71858">
        <ele>1481</ele>
        <time>2021-08-06T11:15:57.225Z</time>
      </trkpt>
      <trkpt lat="46.94777" lon="8.71858">
        <ele>1481</ele>
        <time>2021-08-06T11:15:58.225Z</time>
      </trkpt>
      <trkpt lat="46.94776" lon="8.71858">
        <ele>1480</ele>
        <time>2021-08-06T11:15:59.225Z</time>
      </trkpt>
      <trkpt lat="46.94775" lon="8.71858">
        <ele>1479</ele>
        <time>2021-08-06T11:16:00.226Z</time>
      </trkpt>
      <trkpt lat="46.94774" lon="8.71857">
        <ele>1479</ele>
        <time>2021-08-06T11:16:01.225Z</time>
      </trkpt>
      <trkpt lat="46.94773" lon="8.71856">
        <ele>1479</ele>
        <time>2021-08-06T11:16:02.226Z</time>
      </trkpt>
      <trkpt lat="46.94772" lon="8.71855">
        <ele>1479</ele>
        <time>2021-08-06T11:16:03.226Z</time>
      </trkpt>
      <trkpt lat="46.94771" lon="8.71854">
        <ele>1479</ele>
        <time>2021-08-06T11:16:04.226Z</time>
      </trkpt>
      <trkpt lat="46.94771" lon="8.71853">
        <ele>1479</ele>
        <time>2021-08-06T11:16:05.225Z</time>
      </trkpt>
      <trkpt lat="46.9477" lon="8.71852">
        <ele>1479</ele>
        <time>2021-08-06T11:16:06.225Z</time>
      </trkpt>
      <trkpt lat="46.9477" lon="8.71851">
        <ele>1479</ele>
        <time>2021-08-06T11:16:07.226Z</time>
      </trkpt>
      <trkpt lat="46.9477" lon="8.71849">
        <ele>1479</ele>
        <time>2021-08-06T11:16:08.225Z</time>
      </trkpt>
      <trkpt lat="46.94769" lon="8.71848">
        <ele>1479</ele>
        <time>2021-08-06T11:16:09.225Z</time>
      </trkpt>
      <trkpt lat="46.94768" lon="8.71847">
        <ele>1480</ele>
        <time>2021-08-06T11:16:10.225Z</time>
      </trkpt>
      <trkpt lat="46.94767" lon="8.71846">
        <ele>1479</ele>
        <time>2021-08-06T11:16:11.226Z</time>
      </trkpt>
      <trkpt lat="46.94766" lon="8.71845">
        <ele>1479</ele>
        <time>2021-08-06T11:16:12.226Z</time>
      </trkpt>
      <trkpt lat="46.94764" lon="8.71844">
        <ele>1478</ele>
        <time>2021-08-06T11:16:13.225Z</time>
      </trkpt>
      <trkpt lat="46.94763" lon="8.71844">
        <ele>1478</ele>
        <time>2021-08-06T11:16:14.226Z</time>
      </trkpt>
      <trkpt lat="46.94762" lon="8.71844">
        <ele>1477</ele>
        <time>2021-08-06T11:16:17.324Z</time>
      </trkpt>
      <trkpt lat="46.94762" lon="8.71844">
        <ele>1477</ele>
        <time>2021-08-06T11:16:18.325Z</time>
      </trkpt>
      <trkpt lat="46.94761" lon="8.71843">
        <ele>1477</ele>
        <time>2021-08-06T11:16:19.324Z</time>
      </trkpt>
      <trkpt lat="46.9476" lon="8.71842">
        <ele>1476</ele>
        <time>2021-08-06T11:16:20.325Z</time>
      </trkpt>
      <trkpt lat="46.9476" lon="8.71842">
        <ele>1477</ele>
        <time>2021-08-06T11:16:21.324Z</time>
      </trkpt>
      <trkpt lat="46.9476" lon="8.71841">
        <ele>1477</ele>
        <time>2021-08-06T11:16:22.325Z</time>
      </trkpt>
      <trkpt lat="46.94759" lon="8.71841">
        <ele>1477</ele>
        <time>2021-08-06T11:16:23.325Z</time>
      </trkpt>
      <trkpt lat="46.94758" lon="8.7184">
        <ele>1476</ele>
        <time>2021-08-06T11:16:24.325Z</time>
      </trkpt>
      <trkpt lat="46.94758" lon="8.7184">
        <ele>1476</ele>
        <time>2021-08-06T11:16:25.325Z</time>
      </trkpt>
      <trkpt lat="46.94758" lon="8.7184">
        <ele>1476</ele>
        <time>2021-08-06T11:16:26.324Z</time>
      </trkpt>
      <trkpt lat="46.94757" lon="8.71838">
        <ele>1476</ele>
        <time>2021-08-06T11:16:27.325Z</time>
      </trkpt>
      <trkpt lat="46.94757" lon="8.71837">
        <ele>1476</ele>
        <time>2021-08-06T11:16:28.324Z</time>
      </trkpt>
      <trkpt lat="46.94756" lon="8.71836">
        <ele>1475</ele>
        <time>2021-08-06T11:16:29.324Z</time>
      </trkpt>
      <trkpt lat="46.94755" lon="8.71835">
        <ele>1475</ele>
        <time>2021-08-06T11:16:43.313Z</time>
      </trkpt>
      <trkpt lat="46.94755" lon="8.71833">
        <ele>1475</ele>
        <time>2021-08-06T11:16:44.312Z</time>
      </trkpt>
      <trkpt lat="46.94754" lon="8.71832">
        <ele>1475</ele>
        <time>2021-08-06T11:16:45.313Z</time>
      </trkpt>
      <trkpt lat="46.94753" lon="8.71831">
        <ele>1475</ele>
        <time>2021-08-06T11:16:46.313Z</time>
      </trkpt>
      <trkpt lat="46.94751" lon="8.7183">
        <ele>1475</ele>
        <time>2021-08-06T11:16:47.313Z</time>
      </trkpt>
      <trkpt lat="46.94751" lon="8.71829">
        <ele>1475</ele>
        <time>2021-08-06T11:16:48.313Z</time>
      </trkpt>
      <trkpt lat="46.9475" lon="8.71827">
        <ele>1475</ele>
        <time>2021-08-06T11:16:49.313Z</time>
      </trkpt>
      <trkpt lat="46.94749" lon="8.71825">
        <ele>1475</ele>
        <time>2021-08-06T11:16:54.311Z</time>
      </trkpt>
      <trkpt lat="46.94748" lon="8.71824">
        <ele>1476</ele>
        <time>2021-08-06T11:16:55.312Z</time>
      </trkpt>
      <trkpt lat="46.94747" lon="8.71823">
        <ele>1476</ele>
        <time>2021-08-06T11:16:56.312Z</time>
      </trkpt>
      <trkpt lat="46.94746" lon="8.71822">
        <ele>1476</ele>
        <time>2021-08-06T11:16:57.312Z</time>
      </trkpt>
      <trkpt lat="46.94745" lon="8.71822">
        <ele>1476</ele>
        <time>2021-08-06T11:16:58.311Z</time>
      </trkpt>
      <trkpt lat="46.94744" lon="8.71821">
        <ele>1476</ele>
        <time>2021-08-06T11:16:59.312Z</time>
      </trkpt>
      <trkpt lat="46.94743" lon="8.71818">
        <ele>1476</ele>
        <time>2021-08-06T11:17:00.312Z</time>
      </trkpt>
      <trkpt lat="46.94742" lon="8.71816">
        <ele>1476</ele>
        <time>2021-08-06T11:17:01.311Z</time>
      </trkpt>
      <trkpt lat="46.94741" lon="8.71813">
        <ele>1476</ele>
        <time>2021-08-06T11:17:02.312Z</time>
      </trkpt>
      <trkpt lat="46.9474" lon="8.71811">
        <ele>1476</ele>
        <time>2021-08-06T11:17:03.311Z</time>
      </trkpt>
      <trkpt lat="46.9474" lon="8.7181">
        <ele>1475</ele>
        <time>2021-08-06T11:17:04.311Z</time>
      </trkpt>
      <trkpt lat="46.94739" lon="8.7181">
        <ele>1474</ele>
        <time>2021-08-06T11:17:05.312Z</time>
      </trkpt>
      <trkpt lat="46.94739" lon="8.7181">
        <ele>1474</ele>
        <time>2021-08-06T11:17:06.312Z</time>
      </trkpt>
      <trkpt lat="46.94741" lon="8.71811">
        <ele>1471</ele>
        <time>2021-08-06T11:17:07.313Z</time>
      </trkpt>
      <trkpt lat="46.9474" lon="8.71812">
        <ele>1471</ele>
        <time>2021-08-06T11:17:08.313Z</time>
      </trkpt>
      <trkpt lat="46.94739" lon="8.71813">
        <ele>1471</ele>
        <time>2021-08-06T11:17:09.313Z</time>
      </trkpt>
      <trkpt lat="46.94738" lon="8.71814">
        <ele>1470</ele>
        <time>2021-08-06T11:17:10.312Z</time>
      </trkpt>
      <trkpt lat="46.94737" lon="8.71815">
        <ele>1470</ele>
        <time>2021-08-06T11:17:11.313Z</time>
      </trkpt>
      <trkpt lat="46.94736" lon="8.71815">
        <ele>1470</ele>
        <time>2021-08-06T11:17:12.313Z</time>
      </trkpt>
      <trkpt lat="46.94735" lon="8.71816">
        <ele>1469</ele>
        <time>2021-08-06T11:17:13.312Z</time>
      </trkpt>
      <trkpt lat="46.94734" lon="8.71815">
        <ele>1466</ele>
        <time>2021-08-06T11:17:14.313Z</time>
      </trkpt>
      <trkpt lat="46.94734" lon="8.71814">
        <ele>1467</ele>
        <time>2021-08-06T11:17:15.313Z</time>
      </trkpt>
      <trkpt lat="46.94733" lon="8.71814">
        <ele>1467</ele>
        <time>2021-08-06T11:17:16.313Z</time>
      </trkpt>
      <trkpt lat="46.94733" lon="8.71814">
        <ele>1467</ele>
        <time>2021-08-06T11:17:17.312Z</time>
      </trkpt>
      <trkpt lat="46.94734" lon="8.71811">
        <ele>1466</ele>
        <time>2021-08-06T11:17:18.313Z</time>
      </trkpt>
      <trkpt lat="46.94735" lon="8.7181">
        <ele>1466</ele>
        <time>2021-08-06T11:17:19.313Z</time>
      </trkpt>
      <trkpt lat="46.94735" lon="8.71809">
        <ele>1466</ele>
        <time>2021-08-06T11:17:20.312Z</time>
      </trkpt>
      <trkpt lat="46.94736" lon="8.71808">
        <ele>1466</ele>
        <time>2021-08-06T11:17:21.313Z</time>
      </trkpt>
      <trkpt lat="46.94735" lon="8.71806">
        <ele>1467</ele>
        <time>2021-08-06T11:17:22.313Z</time>
      </trkpt>
      <trkpt lat="46.94735" lon="8.71804">
        <ele>1468</ele>
        <time>2021-08-06T11:17:23.313Z</time>
      </trkpt>
      <trkpt lat="46.94734" lon="8.71803">
        <ele>1468</ele>
        <time>2021-08-06T11:17:24.312Z</time>
      </trkpt>
      <trkpt lat="46.94734" lon="8.71802">
        <ele>1469</ele>
        <time>2021-08-06T11:17:25.313Z</time>
      </trkpt>
      <trkpt lat="46.94734" lon="8.718">
        <ele>1470</ele>
        <time>2021-08-06T11:17:26.313Z</time>
      </trkpt>
      <trkpt lat="46.94734" lon="8.71799">
        <ele>1470</ele>
        <time>2021-08-06T11:17:27.312Z</time>
      </trkpt>
      <trkpt lat="46.94734" lon="8.71798">
        <ele>1470</ele>
        <time>2021-08-06T11:17:28.313Z</time>
      </trkpt>
      <trkpt lat="46.94735" lon="8.71797">
        <ele>1471</ele>
        <time>2021-08-06T11:17:29.312Z</time>
      </trkpt>
      <trkpt lat="46.94735" lon="8.71795">
        <ele>1471</ele>
        <time>2021-08-06T11:17:30.313Z</time>
      </trkpt>
      <trkpt lat="46.94735" lon="8.71794">
        <ele>1472</ele>
        <time>2021-08-06T11:17:31.313Z</time>
      </trkpt>
      <trkpt lat="46.94735" lon="8.71792">
        <ele>1473</ele>
        <time>2021-08-06T11:17:32.313Z</time>
      </trkpt>
      <trkpt lat="46.94735" lon="8.71791">
        <ele>1473</ele>
        <time>2021-08-06T11:17:33.312Z</time>
      </trkpt>
      <trkpt lat="46.94735" lon="8.71789">
        <ele>1474</ele>
        <time>2021-08-06T11:17:37.333Z</time>
      </trkpt>
      <trkpt lat="46.94735" lon="8.71788">
        <ele>1474</ele>
        <time>2021-08-06T11:17:38.334Z</time>
      </trkpt>
      <trkpt lat="46.94735" lon="8.71786">
        <ele>1475</ele>
        <time>2021-08-06T11:17:39.334Z</time>
      </trkpt>
      <trkpt lat="46.94736" lon="8.71784">
        <ele>1475</ele>
        <time>2021-08-06T11:17:40.334Z</time>
      </trkpt>
      <trkpt lat="46.94737" lon="8.71783">
        <ele>1476</ele>
        <time>2021-08-06T11:17:41.334Z</time>
      </trkpt>
      <trkpt lat="46.94737" lon="8.71782">
        <ele>1476</ele>
        <time>2021-08-06T11:17:42.334Z</time>
      </trkpt>
      <trkpt lat="46.94737" lon="8.7178">
        <ele>1477</ele>
        <time>2021-08-06T11:17:59.460Z</time>
      </trkpt>
      <trkpt lat="46.94738" lon="8.71779">
        <ele>1477</ele>
        <time>2021-08-06T11:18:00.459Z</time>
      </trkpt>
      <trkpt lat="46.94738" lon="8.71778">
        <ele>1478</ele>
        <time>2021-08-06T11:18:01.460Z</time>
      </trkpt>
      <trkpt lat="46.94738" lon="8.71777">
        <ele>1478</ele>
        <time>2021-08-06T11:18:02.460Z</time>
      </trkpt>
      <trkpt lat="46.94738" lon="8.71775">
        <ele>1478</ele>
        <time>2021-08-06T11:18:03.459Z</time>
      </trkpt>
      <trkpt lat="46.94739" lon="8.71773">
        <ele>1478</ele>
        <time>2021-08-06T11:18:04.459Z</time>
      </trkpt>
      <trkpt lat="46.94738" lon="8.71771">
        <ele>1478</ele>
        <time>2021-08-06T11:18:05.459Z</time>
      </trkpt>
      <trkpt lat="46.94738" lon="8.7177">
        <ele>1478</ele>
        <time>2021-08-06T11:18:06.459Z</time>
      </trkpt>
      <trkpt lat="46.94738" lon="8.71769">
        <ele>1478</ele>
        <time>2021-08-06T11:18:07.460Z</time>
      </trkpt>
      <trkpt lat="46.94738" lon="8.71768">
        <ele>1478</ele>
        <time>2021-08-06T11:18:08.460Z</time>
      </trkpt>
      <trkpt lat="46.94738" lon="8.71766">
        <ele>1478</ele>
        <time>2021-08-06T11:18:09.460Z</time>
      </trkpt>
      <trkpt lat="46.94739" lon="8.71765">
        <ele>1479</ele>
        <time>2021-08-06T11:18:10.460Z</time>
      </trkpt>
      <trkpt lat="46.94739" lon="8.71764">
        <ele>1479</ele>
        <time>2021-08-06T11:18:11.460Z</time>
      </trkpt>
      <trkpt lat="46.94739" lon="8.71763">
        <ele>1479</ele>
        <time>2021-08-06T11:18:12.460Z</time>
      </trkpt>
      <trkpt lat="46.94739" lon="8.71761">
        <ele>1480</ele>
        <time>2021-08-06T11:18:13.460Z</time>
      </trkpt>
      <trkpt lat="46.94738" lon="8.7176">
        <ele>1480</ele>
        <time>2021-08-06T11:18:14.460Z</time>
      </trkpt>
      <trkpt lat="46.94738" lon="8.71758">
        <ele>1480</ele>
        <time>2021-08-06T11:18:15.460Z</time>
      </trkpt>
      <trkpt lat="46.94737" lon="8.71757">
        <ele>1480</ele>
        <time>2021-08-06T11:18:16.459Z</time>
      </trkpt>
      <trkpt lat="46.94737" lon="8.71755">
        <ele>1481</ele>
        <time>2021-08-06T11:18:17.460Z</time>
      </trkpt>
      <trkpt lat="46.94736" lon="8.71754">
        <ele>1481</ele>
        <time>2021-08-06T11:18:18.460Z</time>
      </trkpt>
      <trkpt lat="46.94735" lon="8.71752">
        <ele>1481</ele>
        <time>2021-08-06T11:18:19.460Z</time>
      </trkpt>
      <trkpt lat="46.94735" lon="8.71751">
        <ele>1480</ele>
        <time>2021-08-06T11:18:20.459Z</time>
      </trkpt>
      <trkpt lat="46.94735" lon="8.71748">
        <ele>1480</ele>
        <time>2021-08-06T11:18:21.460Z</time>
      </trkpt>
      <trkpt lat="46.94735" lon="8.71746">
        <ele>1480</ele>
        <time>2021-08-06T11:18:22.460Z</time>
      </trkpt>
      <trkpt lat="46.94734" lon="8.71744">
        <ele>1480</ele>
        <time>2021-08-06T11:18:23.460Z</time>
      </trkpt>
      <trkpt lat="46.94734" lon="8.71743">
        <ele>1481</ele>
        <time>2021-08-06T11:18:24.459Z</time>
      </trkpt>
      <trkpt lat="46.94734" lon="8.71742">
        <ele>1481</ele>
        <time>2021-08-06T11:18:25.459Z</time>
      </trkpt>
      <trkpt lat="46.94733" lon="8.7174">
        <ele>1481</ele>
        <time>2021-08-06T11:18:26.460Z</time>
      </trkpt>
      <trkpt lat="46.94733" lon="8.71738">
        <ele>1481</ele>
        <time>2021-08-06T11:18:27.460Z</time>
      </trkpt>
      <trkpt lat="46.94732" lon="8.71737">
        <ele>1481</ele>
        <time>2021-08-06T11:18:28.460Z</time>
      </trkpt>
      <trkpt lat="46.94733" lon="8.71736">
        <ele>1481</ele>
        <time>2021-08-06T11:18:29.460Z</time>
      </trkpt>
      <trkpt lat="46.94733" lon="8.71734">
        <ele>1481</ele>
        <time>2021-08-06T11:18:30.459Z</time>
      </trkpt>
      <trkpt lat="46.94733" lon="8.71733">
        <ele>1481</ele>
        <time>2021-08-06T11:18:31.460Z</time>
      </trkpt>
      <trkpt lat="46.94733" lon="8.71732">
        <ele>1481</ele>
        <time>2021-08-06T11:18:32.459Z</time>
      </trkpt>
      <trkpt lat="46.94733" lon="8.71731">
        <ele>1481</ele>
        <time>2021-08-06T11:18:33.460Z</time>
      </trkpt>
      <trkpt lat="46.94733" lon="8.7173">
        <ele>1481</ele>
        <time>2021-08-06T11:18:34.460Z</time>
      </trkpt>
      <trkpt lat="46.94734" lon="8.71729">
        <ele>1481</ele>
        <time>2021-08-06T11:18:35.460Z</time>
      </trkpt>
      <trkpt lat="46.94733" lon="8.71727">
        <ele>1482</ele>
        <time>2021-08-06T11:18:36.460Z</time>
      </trkpt>
      <trkpt lat="46.94733" lon="8.71725">
        <ele>1483</ele>
        <time>2021-08-06T11:18:37.459Z</time>
      </trkpt>
      <trkpt lat="46.94733" lon="8.71724">
        <ele>1484</ele>
        <time>2021-08-06T11:18:38.459Z</time>
      </trkpt>
      <trkpt lat="46.94733" lon="8.71723">
        <ele>1485</ele>
        <time>2021-08-06T11:18:39.460Z</time>
      </trkpt>
      <trkpt lat="46.94734" lon="8.71722">
        <ele>1486</ele>
        <time>2021-08-06T11:18:40.460Z</time>
      </trkpt>
      <trkpt lat="46.94734" lon="8.71721">
        <ele>1487</ele>
        <time>2021-08-06T11:18:41.459Z</time>
      </trkpt>
      <trkpt lat="46.94734" lon="8.7172">
        <ele>1488</ele>
        <time>2021-08-06T11:18:42.460Z</time>
      </trkpt>
      <trkpt lat="46.94733" lon="8.71718">
        <ele>1489</ele>
        <time>2021-08-06T11:18:43.459Z</time>
      </trkpt>
      <trkpt lat="46.94733" lon="8.71717">
        <ele>1489</ele>
        <time>2021-08-06T11:18:44.460Z</time>
      </trkpt>
      <trkpt lat="46.94732" lon="8.71715">
        <ele>1490</ele>
        <time>2021-08-06T11:18:45.460Z</time>
      </trkpt>
      <trkpt lat="46.94732" lon="8.71714">
        <ele>1491</ele>
        <time>2021-08-06T11:18:46.459Z</time>
      </trkpt>
      <trkpt lat="46.94731" lon="8.71712">
        <ele>1492</ele>
        <time>2021-08-06T11:18:47.460Z</time>
      </trkpt>
      <trkpt lat="46.94731" lon="8.7171">
        <ele>1492</ele>
        <time>2021-08-06T11:18:48.459Z</time>
      </trkpt>
      <trkpt lat="46.9473" lon="8.71709">
        <ele>1493</ele>
        <time>2021-08-06T11:18:49.459Z</time>
      </trkpt>
      <trkpt lat="46.9473" lon="8.71707">
        <ele>1493</ele>
        <time>2021-08-06T11:18:50.459Z</time>
      </trkpt>
      <trkpt lat="46.94729" lon="8.71705">
        <ele>1493</ele>
        <time>2021-08-06T11:18:51.460Z</time>
      </trkpt>
      <trkpt lat="46.94729" lon="8.71704">
        <ele>1493</ele>
        <time>2021-08-06T11:18:52.460Z</time>
      </trkpt>
      <trkpt lat="46.9473" lon="8.71702">
        <ele>1493</ele>
        <time>2021-08-06T11:18:53.459Z</time>
      </trkpt>
      <trkpt lat="46.9473" lon="8.71701">
        <ele>1492</ele>
        <time>2021-08-06T11:18:54.460Z</time>
      </trkpt>
      <trkpt lat="46.9473" lon="8.71699">
        <ele>1492</ele>
        <time>2021-08-06T11:18:55.460Z</time>
      </trkpt>
      <trkpt lat="46.9473" lon="8.71698">
        <ele>1492</ele>
        <time>2021-08-06T11:18:56.460Z</time>
      </trkpt>
      <trkpt lat="46.94729" lon="8.71696">
        <ele>1492</ele>
        <time>2021-08-06T11:18:57.460Z</time>
      </trkpt>
      <trkpt lat="46.94729" lon="8.71694">
        <ele>1492</ele>
        <time>2021-08-06T11:18:58.460Z</time>
      </trkpt>
      <trkpt lat="46.94729" lon="8.71693">
        <ele>1491</ele>
        <time>2021-08-06T11:18:59.460Z</time>
      </trkpt>
      <trkpt lat="46.94729" lon="8.71691">
        <ele>1491</ele>
        <time>2021-08-06T11:19:00.459Z</time>
      </trkpt>
      <trkpt lat="46.94729" lon="8.71689">
        <ele>1491</ele>
        <time>2021-08-06T11:19:01.460Z</time>
      </trkpt>
      <trkpt lat="46.94729" lon="8.71687">
        <ele>1491</ele>
        <time>2021-08-06T11:19:02.459Z</time>
      </trkpt>
      <trkpt lat="46.9473" lon="8.71685">
        <ele>1491</ele>
        <time>2021-08-06T11:19:03.460Z</time>
      </trkpt>
      <trkpt lat="46.9473" lon="8.71684">
        <ele>1492</ele>
        <time>2021-08-06T11:19:04.459Z</time>
      </trkpt>
      <trkpt lat="46.9473" lon="8.71682">
        <ele>1492</ele>
        <time>2021-08-06T11:19:05.460Z</time>
      </trkpt>
      <trkpt lat="46.9473" lon="8.7168">
        <ele>1492</ele>
        <time>2021-08-06T11:19:06.459Z</time>
      </trkpt>
      <trkpt lat="46.9473" lon="8.71678">
        <ele>1492</ele>
        <time>2021-08-06T11:19:07.460Z</time>
      </trkpt>
      <trkpt lat="46.94729" lon="8.71676">
        <ele>1491</ele>
        <time>2021-08-06T11:19:08.460Z</time>
      </trkpt>
      <trkpt lat="46.94729" lon="8.71674">
        <ele>1491</ele>
        <time>2021-08-06T11:19:09.460Z</time>
      </trkpt>
      <trkpt lat="46.94729" lon="8.71673">
        <ele>1491</ele>
        <time>2021-08-06T11:19:10.460Z</time>
      </trkpt>
      <trkpt lat="46.94728" lon="8.71672">
        <ele>1491</ele>
        <time>2021-08-06T11:19:11.460Z</time>
      </trkpt>
      <trkpt lat="46.94728" lon="8.7167">
        <ele>1491</ele>
        <time>2021-08-06T11:19:12.459Z</time>
      </trkpt>
      <trkpt lat="46.94728" lon="8.71668">
        <ele>1492</ele>
        <time>2021-08-06T11:19:13.460Z</time>
      </trkpt>
      <trkpt lat="46.94728" lon="8.71667">
        <ele>1492</ele>
        <time>2021-08-06T11:19:14.460Z</time>
      </trkpt>
      <trkpt lat="46.94729" lon="8.71665">
        <ele>1492</ele>
        <time>2021-08-06T11:19:15.459Z</time>
      </trkpt>
      <trkpt lat="46.94729" lon="8.71664">
        <ele>1492</ele>
        <time>2021-08-06T11:19:16.460Z</time>
      </trkpt>
      <trkpt lat="46.94729" lon="8.71662">
        <ele>1491</ele>
        <time>2021-08-06T11:19:17.460Z</time>
      </trkpt>
      <trkpt lat="46.94729" lon="8.71661">
        <ele>1491</ele>
        <time>2021-08-06T11:19:18.459Z</time>
      </trkpt>
      <trkpt lat="46.94729" lon="8.71659">
        <ele>1491</ele>
        <time>2021-08-06T11:19:19.460Z</time>
      </trkpt>
      <trkpt lat="46.94729" lon="8.71658">
        <ele>1490</ele>
        <time>2021-08-06T11:19:20.460Z</time>
      </trkpt>
      <trkpt lat="46.94729" lon="8.71656">
        <ele>1490</ele>
        <time>2021-08-06T11:19:21.459Z</time>
      </trkpt>
      <trkpt lat="46.94729" lon="8.71655">
        <ele>1489</ele>
        <time>2021-08-06T11:19:22.460Z</time>
      </trkpt>
      <trkpt lat="46.94729" lon="8.71654">
        <ele>1488</ele>
        <time>2021-08-06T11:19:23.460Z</time>
      </trkpt>
      <trkpt lat="46.94729" lon="8.71652">
        <ele>1488</ele>
        <time>2021-08-06T11:19:24.459Z</time>
      </trkpt>
      <trkpt lat="46.94729" lon="8.71651">
        <ele>1487</ele>
        <time>2021-08-06T11:19:25.460Z</time>
      </trkpt>
      <trkpt lat="46.94729" lon="8.71649">
        <ele>1487</ele>
        <time>2021-08-06T11:19:26.460Z</time>
      </trkpt>
      <trkpt lat="46.94728" lon="8.71647">
        <ele>1487</ele>
        <time>2021-08-06T11:19:27.460Z</time>
      </trkpt>
      <trkpt lat="46.94728" lon="8.71646">
        <ele>1487</ele>
        <time>2021-08-06T11:19:28.460Z</time>
      </trkpt>
      <trkpt lat="46.94728" lon="8.71645">
        <ele>1486</ele>
        <time>2021-08-06T11:19:29.460Z</time>
      </trkpt>
      <trkpt lat="46.94727" lon="8.71643">
        <ele>1486</ele>
        <time>2021-08-06T11:19:30.460Z</time>
      </trkpt>
      <trkpt lat="46.94727" lon="8.71642">
        <ele>1486</ele>
        <time>2021-08-06T11:19:31.460Z</time>
      </trkpt>
      <trkpt lat="46.94727" lon="8.7164">
        <ele>1485</ele>
        <time>2021-08-06T11:19:32.460Z</time>
      </trkpt>
      <trkpt lat="46.94727" lon="8.71639">
        <ele>1485</ele>
        <time>2021-08-06T11:19:33.460Z</time>
      </trkpt>
      <trkpt lat="46.94727" lon="8.71637">
        <ele>1485</ele>
        <time>2021-08-06T11:19:34.460Z</time>
      </trkpt>
      <trkpt lat="46.94727" lon="8.71636">
        <ele>1485</ele>
        <time>2021-08-06T11:19:35.460Z</time>
      </trkpt>
      <trkpt lat="46.94728" lon="8.71634">
        <ele>1485</ele>
        <time>2021-08-06T11:19:36.460Z</time>
      </trkpt>
      <trkpt lat="46.94728" lon="8.71632">
        <ele>1485</ele>
        <time>2021-08-06T11:19:37.460Z</time>
      </trkpt>
      <trkpt lat="46.94727" lon="8.7163">
        <ele>1484</ele>
        <time>2021-08-06T11:19:38.460Z</time>
      </trkpt>
      <trkpt lat="46.94727" lon="8.71628">
        <ele>1483</ele>
        <time>2021-08-06T11:19:39.460Z</time>
      </trkpt>
      <trkpt lat="46.94727" lon="8.71627">
        <ele>1483</ele>
        <time>2021-08-06T11:19:44.476Z</time>
      </trkpt>
      <trkpt lat="46.94727" lon="8.71625">
        <ele>1482</ele>
        <time>2021-08-06T11:19:45.475Z</time>
      </trkpt>
      <trkpt lat="46.94726" lon="8.71623">
        <ele>1482</ele>
        <time>2021-08-06T11:19:46.476Z</time>
      </trkpt>
      <trkpt lat="46.94726" lon="8.71621">
        <ele>1482</ele>
        <time>2021-08-06T11:19:47.476Z</time>
      </trkpt>
      <trkpt lat="46.94725" lon="8.7162">
        <ele>1481</ele>
        <time>2021-08-06T11:19:48.476Z</time>
      </trkpt>
      <trkpt lat="46.94725" lon="8.71618">
        <ele>1481</ele>
        <time>2021-08-06T11:19:49.476Z</time>
      </trkpt>
      <trkpt lat="46.94724" lon="8.71616">
        <ele>1481</ele>
        <time>2021-08-06T11:19:50.475Z</time>
      </trkpt>
      <trkpt lat="46.94724" lon="8.71614">
        <ele>1481</ele>
        <time>2021-08-06T11:19:51.476Z</time>
      </trkpt>
      <trkpt lat="46.94724" lon="8.71613">
        <ele>1481</ele>
        <time>2021-08-06T11:19:52.475Z</time>
      </trkpt>
      <trkpt lat="46.94724" lon="8.71612">
        <ele>1481</ele>
        <time>2021-08-06T11:19:53.475Z</time>
      </trkpt>
      <trkpt lat="46.94724" lon="8.7161">
        <ele>1481</ele>
        <time>2021-08-06T11:19:54.475Z</time>
      </trkpt>
      <trkpt lat="46.94724" lon="8.71609">
        <ele>1481</ele>
        <time>2021-08-06T11:19:55.476Z</time>
      </trkpt>
      <trkpt lat="46.94724" lon="8.71607">
        <ele>1481</ele>
        <time>2021-08-06T11:19:56.475Z</time>
      </trkpt>
      <trkpt lat="46.94724" lon="8.71606">
        <ele>1482</ele>
        <time>2021-08-06T11:19:57.475Z</time>
      </trkpt>
      <trkpt lat="46.94723" lon="8.71604">
        <ele>1482</ele>
        <time>2021-08-06T11:19:58.476Z</time>
      </trkpt>
      <trkpt lat="46.94723" lon="8.71603">
        <ele>1483</ele>
        <time>2021-08-06T11:19:59.476Z</time>
      </trkpt>
      <trkpt lat="46.94722" lon="8.71602">
        <ele>1483</ele>
        <time>2021-08-06T11:20:00.476Z</time>
      </trkpt>
      <trkpt lat="46.94721" lon="8.716">
        <ele>1484</ele>
        <time>2021-08-06T11:20:01.476Z</time>
      </trkpt>
      <trkpt lat="46.9472" lon="8.71599">
        <ele>1484</ele>
        <time>2021-08-06T11:20:02.476Z</time>
      </trkpt>
      <trkpt lat="46.9472" lon="8.71597">
        <ele>1484</ele>
        <time>2021-08-06T11:20:03.475Z</time>
      </trkpt>
      <trkpt lat="46.94719" lon="8.71596">
        <ele>1483</ele>
        <time>2021-08-06T11:20:04.476Z</time>
      </trkpt>
      <trkpt lat="46.94719" lon="8.71594">
        <ele>1483</ele>
        <time>2021-08-06T11:20:05.476Z</time>
      </trkpt>
      <trkpt lat="46.94719" lon="8.71593">
        <ele>1483</ele>
        <time>2021-08-06T11:20:06.475Z</time>
      </trkpt>
      <trkpt lat="46.94719" lon="8.71591">
        <ele>1483</ele>
        <time>2021-08-06T11:20:07.476Z</time>
      </trkpt>
      <trkpt lat="46.94719" lon="8.7159">
        <ele>1483</ele>
        <time>2021-08-06T11:20:08.476Z</time>
      </trkpt>
      <trkpt lat="46.94719" lon="8.71588">
        <ele>1483</ele>
        <time>2021-08-06T11:20:09.476Z</time>
      </trkpt>
      <trkpt lat="46.94718" lon="8.71587">
        <ele>1484</ele>
        <time>2021-08-06T11:20:10.475Z</time>
      </trkpt>
      <trkpt lat="46.94718" lon="8.71585">
        <ele>1484</ele>
        <time>2021-08-06T11:20:11.475Z</time>
      </trkpt>
      <trkpt lat="46.94718" lon="8.71584">
        <ele>1484</ele>
        <time>2021-08-06T11:20:12.476Z</time>
      </trkpt>
      <trkpt lat="46.94717" lon="8.71582">
        <ele>1484</ele>
        <time>2021-08-06T11:20:13.476Z</time>
      </trkpt>
      <trkpt lat="46.94716" lon="8.7158">
        <ele>1484</ele>
        <time>2021-08-06T11:20:14.475Z</time>
      </trkpt>
      <trkpt lat="46.94716" lon="8.71578">
        <ele>1483</ele>
        <time>2021-08-06T11:20:15.476Z</time>
      </trkpt>
      <trkpt lat="46.94716" lon="8.71576">
        <ele>1483</ele>
        <time>2021-08-06T11:20:16.475Z</time>
      </trkpt>
      <trkpt lat="46.94716" lon="8.71574">
        <ele>1483</ele>
        <time>2021-08-06T11:20:17.475Z</time>
      </trkpt>
      <trkpt lat="46.94716" lon="8.71572">
        <ele>1484</ele>
        <time>2021-08-06T11:20:18.476Z</time>
      </trkpt>
      <trkpt lat="46.94717" lon="8.71571">
        <ele>1484</ele>
        <time>2021-08-06T11:20:19.476Z</time>
      </trkpt>
      <trkpt lat="46.94716" lon="8.71569">
        <ele>1484</ele>
        <time>2021-08-06T11:20:20.475Z</time>
      </trkpt>
      <trkpt lat="46.94716" lon="8.71568">
        <ele>1484</ele>
        <time>2021-08-06T11:20:21.475Z</time>
      </trkpt>
      <trkpt lat="46.94715" lon="8.71566">
        <ele>1484</ele>
        <time>2021-08-06T11:20:22.476Z</time>
      </trkpt>
      <trkpt lat="46.94714" lon="8.71565">
        <ele>1483</ele>
        <time>2021-08-06T11:20:23.476Z</time>
      </trkpt>
      <trkpt lat="46.94714" lon="8.71564">
        <ele>1483</ele>
        <time>2021-08-06T11:20:24.476Z</time>
      </trkpt>
      <trkpt lat="46.94713" lon="8.71563">
        <ele>1483</ele>
        <time>2021-08-06T11:20:25.475Z</time>
      </trkpt>
      <trkpt lat="46.94712" lon="8.71562">
        <ele>1482</ele>
        <time>2021-08-06T11:20:26.476Z</time>
      </trkpt>
      <trkpt lat="46.94711" lon="8.71561">
        <ele>1482</ele>
        <time>2021-08-06T11:20:27.476Z</time>
      </trkpt>
      <trkpt lat="46.9471" lon="8.7156">
        <ele>1482</ele>
        <time>2021-08-06T11:20:28.476Z</time>
      </trkpt>
      <trkpt lat="46.94709" lon="8.71559">
        <ele>1482</ele>
        <time>2021-08-06T11:20:29.476Z</time>
      </trkpt>
      <trkpt lat="46.94708" lon="8.71558">
        <ele>1482</ele>
        <time>2021-08-06T11:20:30.476Z</time>
      </trkpt>
      <trkpt lat="46.94707" lon="8.71557">
        <ele>1482</ele>
        <time>2021-08-06T11:20:31.476Z</time>
      </trkpt>
      <trkpt lat="46.94706" lon="8.71556">
        <ele>1483</ele>
        <time>2021-08-06T11:20:32.476Z</time>
      </trkpt>
      <trkpt lat="46.94706" lon="8.71555">
        <ele>1483</ele>
        <time>2021-08-06T11:20:33.476Z</time>
      </trkpt>
      <trkpt lat="46.94705" lon="8.71554">
        <ele>1483</ele>
        <time>2021-08-06T11:20:34.475Z</time>
      </trkpt>
      <trkpt lat="46.94704" lon="8.71553">
        <ele>1483</ele>
        <time>2021-08-06T11:20:35.476Z</time>
      </trkpt>
      <trkpt lat="46.94704" lon="8.71553">
        <ele>1483</ele>
        <time>2021-08-06T11:20:36.475Z</time>
      </trkpt>
      <trkpt lat="46.94703" lon="8.71552">
        <ele>1483</ele>
        <time>2021-08-06T11:20:37.476Z</time>
      </trkpt>
      <trkpt lat="46.94702" lon="8.71552">
        <ele>1483</ele>
        <time>2021-08-06T11:20:38.476Z</time>
      </trkpt>
      <trkpt lat="46.94701" lon="8.71552">
        <ele>1483</ele>
        <time>2021-08-06T11:20:39.475Z</time>
      </trkpt>
      <trkpt lat="46.947" lon="8.71551">
        <ele>1483</ele>
        <time>2021-08-06T11:20:40.476Z</time>
      </trkpt>
      <trkpt lat="46.94699" lon="8.71551">
        <ele>1483</ele>
        <time>2021-08-06T11:20:41.476Z</time>
      </trkpt>
      <trkpt lat="46.94698" lon="8.7155">
        <ele>1482</ele>
        <time>2021-08-06T11:20:42.476Z</time>
      </trkpt>
      <trkpt lat="46.94698" lon="8.71549">
        <ele>1482</ele>
        <time>2021-08-06T11:20:43.476Z</time>
      </trkpt>
      <trkpt lat="46.94697" lon="8.71548">
        <ele>1482</ele>
        <time>2021-08-06T11:20:44.476Z</time>
      </trkpt>
      <trkpt lat="46.94696" lon="8.71548">
        <ele>1482</ele>
        <time>2021-08-06T11:20:45.476Z</time>
      </trkpt>
      <trkpt lat="46.94695" lon="8.71547">
        <ele>1482</ele>
        <time>2021-08-06T11:20:46.476Z</time>
      </trkpt>
      <trkpt lat="46.94694" lon="8.71546">
        <ele>1482</ele>
        <time>2021-08-06T11:20:47.475Z</time>
      </trkpt>
      <trkpt lat="46.94694" lon="8.71544">
        <ele>1482</ele>
        <time>2021-08-06T11:20:48.476Z</time>
      </trkpt>
      <trkpt lat="46.94693" lon="8.71542">
        <ele>1481</ele>
        <time>2021-08-06T11:20:49.476Z</time>
      </trkpt>
      <trkpt lat="46.94692" lon="8.71541">
        <ele>1481</ele>
        <time>2021-08-06T11:20:50.475Z</time>
      </trkpt>
      <trkpt lat="46.94691" lon="8.71541">
        <ele>1481</ele>
        <time>2021-08-06T11:20:51.476Z</time>
      </trkpt>
      <trkpt lat="46.9469" lon="8.71539">
        <ele>1481</ele>
        <time>2021-08-06T11:20:52.475Z</time>
      </trkpt>
      <trkpt lat="46.94688" lon="8.71538">
        <ele>1481</ele>
        <time>2021-08-06T11:20:53.476Z</time>
      </trkpt>
      <trkpt lat="46.94686" lon="8.71537">
        <ele>1481</ele>
        <time>2021-08-06T11:20:54.475Z</time>
      </trkpt>
      <trkpt lat="46.94685" lon="8.71536">
        <ele>1481</ele>
        <time>2021-08-06T11:20:55.476Z</time>
      </trkpt>
      <trkpt lat="46.94683" lon="8.71535">
        <ele>1482</ele>
        <time>2021-08-06T11:20:56.476Z</time>
      </trkpt>
      <trkpt lat="46.94682" lon="8.71533">
        <ele>1482</ele>
        <time>2021-08-06T11:20:57.476Z</time>
      </trkpt>
      <trkpt lat="46.9468" lon="8.7153">
        <ele>1482</ele>
        <time>2021-08-06T11:20:58.476Z</time>
      </trkpt>
      <trkpt lat="46.94679" lon="8.7153">
        <ele>1482</ele>
        <time>2021-08-06T11:20:59.475Z</time>
      </trkpt>
      <trkpt lat="46.94678" lon="8.71528">
        <ele>1482</ele>
        <time>2021-08-06T11:21:00.476Z</time>
      </trkpt>
      <trkpt lat="46.94677" lon="8.71527">
        <ele>1482</ele>
        <time>2021-08-06T11:21:01.475Z</time>
      </trkpt>
      <trkpt lat="46.94677" lon="8.71526">
        <ele>1482</ele>
        <time>2021-08-06T11:21:02.475Z</time>
      </trkpt>
      <trkpt lat="46.94677" lon="8.71524">
        <ele>1482</ele>
        <time>2021-08-06T11:21:03.476Z</time>
      </trkpt>
      <trkpt lat="46.94677" lon="8.71523">
        <ele>1482</ele>
        <time>2021-08-06T11:21:04.476Z</time>
      </trkpt>
      <trkpt lat="46.94678" lon="8.71522">
        <ele>1482</ele>
        <time>2021-08-06T11:21:05.476Z</time>
      </trkpt>
      <trkpt lat="46.94678" lon="8.7152">
        <ele>1482</ele>
        <time>2021-08-06T11:21:06.476Z</time>
      </trkpt>
      <trkpt lat="46.94678" lon="8.71519">
        <ele>1482</ele>
        <time>2021-08-06T11:21:07.476Z</time>
      </trkpt>
      <trkpt lat="46.94678" lon="8.71518">
        <ele>1482</ele>
        <time>2021-08-06T11:21:08.476Z</time>
      </trkpt>
      <trkpt lat="46.94678" lon="8.71516">
        <ele>1482</ele>
        <time>2021-08-06T11:21:09.476Z</time>
      </trkpt>
      <trkpt lat="46.94677" lon="8.71515">
        <ele>1482</ele>
        <time>2021-08-06T11:21:10.475Z</time>
      </trkpt>
      <trkpt lat="46.94677" lon="8.71513">
        <ele>1483</ele>
        <time>2021-08-06T11:21:11.476Z</time>
      </trkpt>
      <trkpt lat="46.94677" lon="8.71512">
        <ele>1483</ele>
        <time>2021-08-06T11:21:12.475Z</time>
      </trkpt>
      <trkpt lat="46.94677" lon="8.7151">
        <ele>1483</ele>
        <time>2021-08-06T11:21:13.476Z</time>
      </trkpt>
      <trkpt lat="46.94677" lon="8.71508">
        <ele>1483</ele>
        <time>2021-08-06T11:21:14.476Z</time>
      </trkpt>
      <trkpt lat="46.94677" lon="8.71507">
        <ele>1483</ele>
        <time>2021-08-06T11:21:15.475Z</time>
      </trkpt>
      <trkpt lat="46.94677" lon="8.71505">
        <ele>1483</ele>
        <time>2021-08-06T11:21:16.476Z</time>
      </trkpt>
      <trkpt lat="46.94677" lon="8.71504">
        <ele>1484</ele>
        <time>2021-08-06T11:21:17.476Z</time>
      </trkpt>
      <trkpt lat="46.94678" lon="8.71502">
        <ele>1484</ele>
        <time>2021-08-06T11:21:18.476Z</time>
      </trkpt>
      <trkpt lat="46.94679" lon="8.71501">
        <ele>1484</ele>
        <time>2021-08-06T11:21:19.476Z</time>
      </trkpt>
      <trkpt lat="46.94679" lon="8.715">
        <ele>1484</ele>
        <time>2021-08-06T11:21:20.475Z</time>
      </trkpt>
      <trkpt lat="46.94679" lon="8.71499">
        <ele>1483</ele>
        <time>2021-08-06T11:21:21.475Z</time>
      </trkpt>
      <trkpt lat="46.94679" lon="8.71497">
        <ele>1483</ele>
        <time>2021-08-06T11:21:22.476Z</time>
      </trkpt>
      <trkpt lat="46.94679" lon="8.71496">
        <ele>1483</ele>
        <time>2021-08-06T11:21:23.476Z</time>
      </trkpt>
      <trkpt lat="46.9468" lon="8.71494">
        <ele>1483</ele>
        <time>2021-08-06T11:21:24.476Z</time>
      </trkpt>
      <trkpt lat="46.9468" lon="8.71492">
        <ele>1483</ele>
        <time>2021-08-06T11:21:25.475Z</time>
      </trkpt>
      <trkpt lat="46.94679" lon="8.71491">
        <ele>1484</ele>
        <time>2021-08-06T11:21:26.475Z</time>
      </trkpt>
      <trkpt lat="46.94679" lon="8.7149">
        <ele>1484</ele>
        <time>2021-08-06T11:21:27.476Z</time>
      </trkpt>
      <trkpt lat="46.94679" lon="8.71489">
        <ele>1484</ele>
        <time>2021-08-06T11:21:28.476Z</time>
      </trkpt>
      <trkpt lat="46.94678" lon="8.71487">
        <ele>1484</ele>
        <time>2021-08-06T11:21:29.476Z</time>
      </trkpt>
      <trkpt lat="46.94678" lon="8.71486">
        <ele>1483</ele>
        <time>2021-08-06T11:21:30.475Z</time>
      </trkpt>
      <trkpt lat="46.94677" lon="8.71484">
        <ele>1483</ele>
        <time>2021-08-06T11:21:31.475Z</time>
      </trkpt>
      <trkpt lat="46.94677" lon="8.71481">
        <ele>1483</ele>
        <time>2021-08-06T11:21:32.475Z</time>
      </trkpt>
      <trkpt lat="46.94677" lon="8.7148">
        <ele>1483</ele>
        <time>2021-08-06T11:21:33.476Z</time>
      </trkpt>
      <trkpt lat="46.94677" lon="8.71479">
        <ele>1483</ele>
        <time>2021-08-06T11:21:34.476Z</time>
      </trkpt>
      <trkpt lat="46.94677" lon="8.71477">
        <ele>1483</ele>
        <time>2021-08-06T11:21:35.476Z</time>
      </trkpt>
      <trkpt lat="46.94677" lon="8.71476">
        <ele>1483</ele>
        <time>2021-08-06T11:21:36.475Z</time>
      </trkpt>
      <trkpt lat="46.94676" lon="8.71475">
        <ele>1482</ele>
        <time>2021-08-06T11:21:37.476Z</time>
      </trkpt>
      <trkpt lat="46.94676" lon="8.71474">
        <ele>1482</ele>
        <time>2021-08-06T11:21:38.476Z</time>
      </trkpt>
      <trkpt lat="46.94676" lon="8.71474">
        <ele>1482</ele>
        <time>2021-08-06T11:21:39.476Z</time>
      </trkpt>
      <trkpt lat="46.94675" lon="8.71474">
        <ele>1482</ele>
        <time>2021-08-06T11:21:40.476Z</time>
      </trkpt>
      <trkpt lat="46.94672" lon="8.71476">
        <ele>1479</ele>
        <time>2021-08-06T11:21:41.476Z</time>
      </trkpt>
      <trkpt lat="46.94671" lon="8.71476">
        <ele>1478</ele>
        <time>2021-08-06T11:21:42.475Z</time>
      </trkpt>
      <trkpt lat="46.9467" lon="8.71476">
        <ele>1478</ele>
        <time>2021-08-06T11:21:43.475Z</time>
      </trkpt>
      <trkpt lat="46.9467" lon="8.71476">
        <ele>1478</ele>
        <time>2021-08-06T11:21:44.476Z</time>
      </trkpt>
      <trkpt lat="46.94669" lon="8.71476">
        <ele>1478</ele>
        <time>2021-08-06T11:21:45.475Z</time>
      </trkpt>
      <trkpt lat="46.94668" lon="8.71477">
        <ele>1478</ele>
        <time>2021-08-06T11:21:46.475Z</time>
      </trkpt>
      <trkpt lat="46.94667" lon="8.71478">
        <ele>1478</ele>
        <time>2021-08-06T11:21:47.475Z</time>
      </trkpt>
      <trkpt lat="46.94666" lon="8.71479">
        <ele>1478</ele>
        <time>2021-08-06T11:21:48.475Z</time>
      </trkpt>
      <trkpt lat="46.94665" lon="8.7148">
        <ele>1478</ele>
        <time>2021-08-06T11:21:49.475Z</time>
      </trkpt>
      <trkpt lat="46.94664" lon="8.71481">
        <ele>1478</ele>
        <time>2021-08-06T11:21:50.475Z</time>
      </trkpt>
      <trkpt lat="46.94664" lon="8.71482">
        <ele>1477</ele>
        <time>2021-08-06T11:21:51.476Z</time>
      </trkpt>
      <trkpt lat="46.94663" lon="8.71483">
        <ele>1477</ele>
        <time>2021-08-06T11:21:52.475Z</time>
      </trkpt>
      <trkpt lat="46.94662" lon="8.71483">
        <ele>1477</ele>
        <time>2021-08-06T11:21:53.475Z</time>
      </trkpt>
      <trkpt lat="46.94662" lon="8.71484">
        <ele>1476</ele>
        <time>2021-08-06T11:21:54.476Z</time>
      </trkpt>
      <trkpt lat="46.94661" lon="8.71484">
        <ele>1476</ele>
        <time>2021-08-06T11:21:55.476Z</time>
      </trkpt>
      <trkpt lat="46.9466" lon="8.71484">
        <ele>1476</ele>
        <time>2021-08-06T11:21:56.475Z</time>
      </trkpt>
      <trkpt lat="46.94658" lon="8.71485">
        <ele>1476</ele>
        <time>2021-08-06T11:21:57.476Z</time>
      </trkpt>
      <trkpt lat="46.94658" lon="8.71485">
        <ele>1476</ele>
        <time>2021-08-06T11:21:58.476Z</time>
      </trkpt>
      <trkpt lat="46.94657" lon="8.71486">
        <ele>1476</ele>
        <time>2021-08-06T11:21:59.476Z</time>
      </trkpt>
      <trkpt lat="46.94656" lon="8.71488">
        <ele>1476</ele>
        <time>2021-08-06T11:22:00.475Z</time>
      </trkpt>
      <trkpt lat="46.94655" lon="8.7149">
        <ele>1476</ele>
        <time>2021-08-06T11:22:01.475Z</time>
      </trkpt>
      <trkpt lat="46.94655" lon="8.71491">
        <ele>1476</ele>
        <time>2021-08-06T11:22:02.475Z</time>
      </trkpt>
      <trkpt lat="46.94655" lon="8.71493">
        <ele>1476</ele>
        <time>2021-08-06T11:22:03.475Z</time>
      </trkpt>
      <trkpt lat="46.94655" lon="8.71494">
        <ele>1476</ele>
        <time>2021-08-06T11:22:04.475Z</time>
      </trkpt>
      <trkpt lat="46.94654" lon="8.71494">
        <ele>1475</ele>
        <time>2021-08-06T11:22:05.476Z</time>
      </trkpt>
      <trkpt lat="46.94653" lon="8.71494">
        <ele>1475</ele>
        <time>2021-08-06T11:22:06.476Z</time>
      </trkpt>
      <trkpt lat="46.94653" lon="8.71494">
        <ele>1475</ele>
        <time>2021-08-06T11:22:07.476Z</time>
      </trkpt>
      <trkpt lat="46.94652" lon="8.71493">
        <ele>1475</ele>
        <time>2021-08-06T11:22:08.475Z</time>
      </trkpt>
      <trkpt lat="46.94651" lon="8.71493">
        <ele>1476</ele>
        <time>2021-08-06T11:22:09.476Z</time>
      </trkpt>
      <trkpt lat="46.9465" lon="8.71494">
        <ele>1476</ele>
        <time>2021-08-06T11:22:10.476Z</time>
      </trkpt>
      <trkpt lat="46.94649" lon="8.71495">
        <ele>1476</ele>
        <time>2021-08-06T11:22:11.475Z</time>
      </trkpt>
      <trkpt lat="46.94649" lon="8.71495">
        <ele>1476</ele>
        <time>2021-08-06T11:22:12.475Z</time>
      </trkpt>
      <trkpt lat="46.94649" lon="8.71496">
        <ele>1476</ele>
        <time>2021-08-06T11:22:13.476Z</time>
      </trkpt>
      <trkpt lat="46.94649" lon="8.71496">
        <ele>1476</ele>
        <time>2021-08-06T11:22:14.476Z</time>
      </trkpt>
      <trkpt lat="46.94648" lon="8.71497">
        <ele>1476</ele>
        <time>2021-08-06T11:22:15.475Z</time>
      </trkpt>
      <trkpt lat="46.94648" lon="8.71498">
        <ele>1476</ele>
        <time>2021-08-06T11:22:16.475Z</time>
      </trkpt>
      <trkpt lat="46.94648" lon="8.71499">
        <ele>1476</ele>
        <time>2021-08-06T11:22:17.475Z</time>
      </trkpt>
      <trkpt lat="46.94647" lon="8.715">
        <ele>1476</ele>
        <time>2021-08-06T11:22:18.475Z</time>
      </trkpt>
      <trkpt lat="46.94646" lon="8.715">
        <ele>1477</ele>
        <time>2021-08-06T11:22:19.476Z</time>
      </trkpt>
      <trkpt lat="46.94646" lon="8.71501">
        <ele>1477</ele>
        <time>2021-08-06T11:22:20.476Z</time>
      </trkpt>
      <trkpt lat="46.94645" lon="8.71502">
        <ele>1476</ele>
        <time>2021-08-06T11:22:21.475Z</time>
      </trkpt>
      <trkpt lat="46.94644" lon="8.71502">
        <ele>1476</ele>
        <time>2021-08-06T11:22:22.476Z</time>
      </trkpt>
      <trkpt lat="46.94643" lon="8.71503">
        <ele>1476</ele>
        <time>2021-08-06T11:22:23.476Z</time>
      </trkpt>
      <trkpt lat="46.94642" lon="8.71504">
        <ele>1475</ele>
        <time>2021-08-06T11:22:24.475Z</time>
      </trkpt>
      <trkpt lat="46.94642" lon="8.71505">
        <ele>1475</ele>
        <time>2021-08-06T11:22:25.476Z</time>
      </trkpt>
      <trkpt lat="46.94641" lon="8.71506">
        <ele>1475</ele>
        <time>2021-08-06T11:22:26.475Z</time>
      </trkpt>
      <trkpt lat="46.94641" lon="8.71506">
        <ele>1475</ele>
        <time>2021-08-06T11:22:27.476Z</time>
      </trkpt>
      <trkpt lat="46.9464" lon="8.71507">
        <ele>1475</ele>
        <time>2021-08-06T11:22:28.475Z</time>
      </trkpt>
      <trkpt lat="46.94639" lon="8.71507">
        <ele>1476</ele>
        <time>2021-08-06T11:22:29.475Z</time>
      </trkpt>
      <trkpt lat="46.94639" lon="8.71507">
        <ele>1476</ele>
        <time>2021-08-06T11:22:30.475Z</time>
      </trkpt>
      <trkpt lat="46.94638" lon="8.71505">
        <ele>1476</ele>
        <time>2021-08-06T11:22:31.475Z</time>
      </trkpt>
      <trkpt lat="46.94636" lon="8.71504">
        <ele>1476</ele>
        <time>2021-08-06T11:22:32.475Z</time>
      </trkpt>
      <trkpt lat="46.94635" lon="8.71502">
        <ele>1475</ele>
        <time>2021-08-06T11:22:33.475Z</time>
      </trkpt>
      <trkpt lat="46.94634" lon="8.71501">
        <ele>1475</ele>
        <time>2021-08-06T11:22:34.475Z</time>
      </trkpt>
      <trkpt lat="46.94634" lon="8.71499">
        <ele>1475</ele>
        <time>2021-08-06T11:22:35.475Z</time>
      </trkpt>
      <trkpt lat="46.94634" lon="8.71499">
        <ele>1475</ele>
        <time>2021-08-06T11:22:36.475Z</time>
      </trkpt>
      <trkpt lat="46.94634" lon="8.71499">
        <ele>1475</ele>
        <time>2021-08-06T11:22:37.475Z</time>
      </trkpt>
      <trkpt lat="46.94634" lon="8.71498">
        <ele>1475</ele>
        <time>2021-08-06T11:22:38.475Z</time>
      </trkpt>
      <trkpt lat="46.94633" lon="8.71498">
        <ele>1475</ele>
        <time>2021-08-06T11:22:39.476Z</time>
      </trkpt>
      <trkpt lat="46.94634" lon="8.71498">
        <ele>1475</ele>
        <time>2021-08-06T11:22:40.475Z</time>
      </trkpt>
      <trkpt lat="46.94634" lon="8.71498">
        <ele>1475</ele>
        <time>2021-08-06T11:22:41.475Z</time>
      </trkpt>
      <trkpt lat="46.94633" lon="8.71499">
        <ele>1475</ele>
        <time>2021-08-06T11:22:42.475Z</time>
      </trkpt>
      <trkpt lat="46.94631" lon="8.71498">
        <ele>1475</ele>
        <time>2021-08-06T11:22:43.475Z</time>
      </trkpt>
      <trkpt lat="46.9463" lon="8.71498">
        <ele>1475</ele>
        <time>2021-08-06T11:22:44.475Z</time>
      </trkpt>
      <trkpt lat="46.94628" lon="8.71498">
        <ele>1475</ele>
        <time>2021-08-06T11:22:45.475Z</time>
      </trkpt>
      <trkpt lat="46.94628" lon="8.71498">
        <ele>1475</ele>
        <time>2021-08-06T11:22:46.475Z</time>
      </trkpt>
      <trkpt lat="46.94627" lon="8.71497">
        <ele>1474</ele>
        <time>2021-08-06T11:22:47.475Z</time>
      </trkpt>
      <trkpt lat="46.94626" lon="8.71496">
        <ele>1474</ele>
        <time>2021-08-06T11:22:48.476Z</time>
      </trkpt>
      <trkpt lat="46.94624" lon="8.71494">
        <ele>1474</ele>
        <time>2021-08-06T11:22:49.476Z</time>
      </trkpt>
      <trkpt lat="46.94623" lon="8.71492">
        <ele>1474</ele>
        <time>2021-08-06T11:22:50.476Z</time>
      </trkpt>
      <trkpt lat="46.94623" lon="8.71494">
        <ele>1474</ele>
        <time>2021-08-06T11:22:51.476Z</time>
      </trkpt>
      <trkpt lat="46.94622" lon="8.71495">
        <ele>1474</ele>
        <time>2021-08-06T11:22:52.476Z</time>
      </trkpt>
      <trkpt lat="46.94621" lon="8.71495">
        <ele>1474</ele>
        <time>2021-08-06T11:22:53.476Z</time>
      </trkpt>
      <trkpt lat="46.9462" lon="8.71496">
        <ele>1474</ele>
        <time>2021-08-06T11:22:54.476Z</time>
      </trkpt>
      <trkpt lat="46.94619" lon="8.71496">
        <ele>1475</ele>
        <time>2021-08-06T11:22:55.476Z</time>
      </trkpt>
      <trkpt lat="46.94618" lon="8.71497">
        <ele>1475</ele>
        <time>2021-08-06T11:22:56.475Z</time>
      </trkpt>
      <trkpt lat="46.94617" lon="8.71497">
        <ele>1475</ele>
        <time>2021-08-06T11:22:57.476Z</time>
      </trkpt>
      <trkpt lat="46.94617" lon="8.71496">
        <ele>1475</ele>
        <time>2021-08-06T11:22:58.476Z</time>
      </trkpt>
      <trkpt lat="46.94617" lon="8.71495">
        <ele>1475</ele>
        <time>2021-08-06T11:22:59.476Z</time>
      </trkpt>
      <trkpt lat="46.94616" lon="8.71495">
        <ele>1475</ele>
        <time>2021-08-06T11:23:00.476Z</time>
      </trkpt>
      <trkpt lat="46.94616" lon="8.71495">
        <ele>1475</ele>
        <time>2021-08-06T11:23:01.476Z</time>
      </trkpt>
      <trkpt lat="46.94615" lon="8.71495">
        <ele>1475</ele>
        <time>2021-08-06T11:23:02.475Z</time>
      </trkpt>
      <trkpt lat="46.94615" lon="8.71495">
        <ele>1475</ele>
        <time>2021-08-06T11:23:03.476Z</time>
      </trkpt>
      <trkpt lat="46.94614" lon="8.71495">
        <ele>1475</ele>
        <time>2021-08-06T11:23:04.476Z</time>
      </trkpt>
      <trkpt lat="46.94613" lon="8.71495">
        <ele>1474</ele>
        <time>2021-08-06T11:23:05.476Z</time>
      </trkpt>
      <trkpt lat="46.94612" lon="8.71494">
        <ele>1474</ele>
        <time>2021-08-06T11:23:06.476Z</time>
      </trkpt>
      <trkpt lat="46.94612" lon="8.71494">
        <ele>1473</ele>
        <time>2021-08-06T11:23:07.476Z</time>
      </trkpt>
      <trkpt lat="46.94611" lon="8.71493">
        <ele>1473</ele>
        <time>2021-08-06T11:23:08.475Z</time>
      </trkpt>
      <trkpt lat="46.94611" lon="8.71493">
        <ele>1473</ele>
        <time>2021-08-06T11:23:09.476Z</time>
      </trkpt>
      <trkpt lat="46.9461" lon="8.71494">
        <ele>1472</ele>
        <time>2021-08-06T11:23:10.475Z</time>
      </trkpt>
      <trkpt lat="46.9461" lon="8.71494">
        <ele>1472</ele>
        <time>2021-08-06T11:23:11.476Z</time>
      </trkpt>
      <trkpt lat="46.94609" lon="8.71494">
        <ele>1472</ele>
        <time>2021-08-06T11:23:12.476Z</time>
      </trkpt>
      <trkpt lat="46.94608" lon="8.71494">
        <ele>1473</ele>
        <time>2021-08-06T11:23:13.476Z</time>
      </trkpt>
      <trkpt lat="46.94608" lon="8.71493">
        <ele>1473</ele>
        <time>2021-08-06T11:23:14.476Z</time>
      </trkpt>
      <trkpt lat="46.94607" lon="8.71493">
        <ele>1473</ele>
        <time>2021-08-06T11:23:15.476Z</time>
      </trkpt>
      <trkpt lat="46.94607" lon="8.71493">
        <ele>1474</ele>
        <time>2021-08-06T11:23:16.476Z</time>
      </trkpt>
      <trkpt lat="46.94607" lon="8.71493">
        <ele>1475</ele>
        <time>2021-08-06T11:23:17.476Z</time>
      </trkpt>
      <trkpt lat="46.94606" lon="8.71493">
        <ele>1475</ele>
        <time>2021-08-06T11:23:18.475Z</time>
      </trkpt>
      <trkpt lat="46.94606" lon="8.71493">
        <ele>1476</ele>
        <time>2021-08-06T11:23:19.476Z</time>
      </trkpt>
      <trkpt lat="46.94606" lon="8.71493">
        <ele>1476</ele>
        <time>2021-08-06T11:23:20.476Z</time>
      </trkpt>
      <trkpt lat="46.94605" lon="8.71492">
        <ele>1477</ele>
        <time>2021-08-06T11:23:21.476Z</time>
      </trkpt>
      <trkpt lat="46.94605" lon="8.71492">
        <ele>1478</ele>
        <time>2021-08-06T11:23:22.476Z</time>
      </trkpt>
      <trkpt lat="46.94605" lon="8.71492">
        <ele>1479</ele>
        <time>2021-08-06T11:23:23.476Z</time>
      </trkpt>
      <trkpt lat="46.94605" lon="8.71492">
        <ele>1480</ele>
        <time>2021-08-06T11:23:24.475Z</time>
      </trkpt>
      <trkpt lat="46.94604" lon="8.71492">
        <ele>1481</ele>
        <time>2021-08-06T11:23:25.475Z</time>
      </trkpt>
      <trkpt lat="46.94603" lon="8.71492">
        <ele>1481</ele>
        <time>2021-08-06T11:23:26.476Z</time>
      </trkpt>
      <trkpt lat="46.94602" lon="8.71493">
        <ele>1481</ele>
        <time>2021-08-06T11:23:27.476Z</time>
      </trkpt>
      <trkpt lat="46.94602" lon="8.71493">
        <ele>1481</ele>
        <time>2021-08-06T11:23:28.475Z</time>
      </trkpt>
      <trkpt lat="46.94601" lon="8.71493">
        <ele>1481</ele>
        <time>2021-08-06T11:23:29.476Z</time>
      </trkpt>
      <trkpt lat="46.946" lon="8.71493">
        <ele>1481</ele>
        <time>2021-08-06T11:23:30.476Z</time>
      </trkpt>
      <trkpt lat="46.946" lon="8.71493">
        <ele>1481</ele>
        <time>2021-08-06T11:23:31.475Z</time>
      </trkpt>
      <trkpt lat="46.94599" lon="8.71493">
        <ele>1480</ele>
        <time>2021-08-06T11:23:32.476Z</time>
      </trkpt>
      <trkpt lat="46.94599" lon="8.71492">
        <ele>1481</ele>
        <time>2021-08-06T11:23:33.476Z</time>
      </trkpt>
      <trkpt lat="46.94599" lon="8.71492">
        <ele>1481</ele>
        <time>2021-08-06T11:23:34.476Z</time>
      </trkpt>
      <trkpt lat="46.94598" lon="8.71492">
        <ele>1481</ele>
        <time>2021-08-06T11:23:35.475Z</time>
      </trkpt>
      <trkpt lat="46.94598" lon="8.71492">
        <ele>1481</ele>
        <time>2021-08-06T11:23:36.475Z</time>
      </trkpt>
      <trkpt lat="46.94598" lon="8.71492">
        <ele>1482</ele>
        <time>2021-08-06T11:23:37.475Z</time>
      </trkpt>
      <trkpt lat="46.94598" lon="8.71492">
        <ele>1482</ele>
        <time>2021-08-06T11:23:38.475Z</time>
      </trkpt>
      <trkpt lat="46.94597" lon="8.71492">
        <ele>1482</ele>
        <time>2021-08-06T11:23:39.475Z</time>
      </trkpt>
      <trkpt lat="46.94597" lon="8.71492">
        <ele>1482</ele>
        <time>2021-08-06T11:23:40.476Z</time>
      </trkpt>
      <trkpt lat="46.94596" lon="8.71492">
        <ele>1482</ele>
        <time>2021-08-06T11:23:41.475Z</time>
      </trkpt>
      <trkpt lat="46.94597" lon="8.71492">
        <ele>1482</ele>
        <time>2021-08-06T11:23:42.475Z</time>
      </trkpt>
      <trkpt lat="46.94597" lon="8.71492">
        <ele>1482</ele>
        <time>2021-08-06T11:23:43.476Z</time>
      </trkpt>
      <trkpt lat="46.94597" lon="8.71492">
        <ele>1482</ele>
        <time>2021-08-06T11:23:44.475Z</time>
      </trkpt>
      <trkpt lat="46.94597" lon="8.71493">
        <ele>1481</ele>
        <time>2021-08-06T11:23:45.475Z</time>
      </trkpt>
      <trkpt lat="46.94596" lon="8.71493">
        <ele>1480</ele>
        <time>2021-08-06T11:23:46.476Z</time>
      </trkpt>
      <trkpt lat="46.94596" lon="8.71493">
        <ele>1480</ele>
        <time>2021-08-06T11:23:47.476Z</time>
      </trkpt>
      <trkpt lat="46.94596" lon="8.71494">
        <ele>1479</ele>
        <time>2021-08-06T11:23:48.475Z</time>
      </trkpt>
      <trkpt lat="46.94596" lon="8.71494">
        <ele>1479</ele>
        <time>2021-08-06T11:23:49.475Z</time>
      </trkpt>
      <trkpt lat="46.94596" lon="8.71495">
        <ele>1479</ele>
        <time>2021-08-06T11:23:50.476Z</time>
      </trkpt>
      <trkpt lat="46.94595" lon="8.71496">
        <ele>1478</ele>
        <time>2021-08-06T11:23:51.476Z</time>
      </trkpt>
      <trkpt lat="46.94595" lon="8.71497">
        <ele>1478</ele>
        <time>2021-08-06T11:23:52.476Z</time>
      </trkpt>
      <trkpt lat="46.94595" lon="8.71497">
        <ele>1478</ele>
        <time>2021-08-06T11:23:53.476Z</time>
      </trkpt>
      <trkpt lat="46.94596" lon="8.71496">
        <ele>1479</ele>
        <time>2021-08-06T11:23:54.478Z</time>
      </trkpt>
      <trkpt lat="46.94596" lon="8.71495">
        <ele>1479</ele>
        <time>2021-08-06T11:23:55.477Z</time>
      </trkpt>
      <trkpt lat="46.94595" lon="8.71495">
        <ele>1479</ele>
        <time>2021-08-06T11:23:56.478Z</time>
      </trkpt>
      <trkpt lat="46.94594" lon="8.71495">
        <ele>1479</ele>
        <time>2021-08-06T11:23:57.478Z</time>
      </trkpt>
      <trkpt lat="46.94594" lon="8.71495">
        <ele>1479</ele>
        <time>2021-08-06T11:23:58.477Z</time>
      </trkpt>
      <trkpt lat="46.94593" lon="8.71494">
        <ele>1479</ele>
        <time>2021-08-06T11:23:59.477Z</time>
      </trkpt>
      <trkpt lat="46.94593" lon="8.71494">
        <ele>1480</ele>
        <time>2021-08-06T11:24:00.478Z</time>
      </trkpt>
      <trkpt lat="46.94592" lon="8.71494">
        <ele>1480</ele>
        <time>2021-08-06T11:24:01.478Z</time>
      </trkpt>
      <trkpt lat="46.94591" lon="8.71494">
        <ele>1480</ele>
        <time>2021-08-06T11:24:02.477Z</time>
      </trkpt>
      <trkpt lat="46.9459" lon="8.71493">
        <ele>1480</ele>
        <time>2021-08-06T11:24:03.477Z</time>
      </trkpt>
      <trkpt lat="46.94589" lon="8.71493">
        <ele>1481</ele>
        <time>2021-08-06T11:24:04.477Z</time>
      </trkpt>
      <trkpt lat="46.94588" lon="8.71492">
        <ele>1481</ele>
        <time>2021-08-06T11:24:05.477Z</time>
      </trkpt>
      <trkpt lat="46.94588" lon="8.71492">
        <ele>1481</ele>
        <time>2021-08-06T11:24:06.477Z</time>
      </trkpt>
      <trkpt lat="46.94587" lon="8.71491">
        <ele>1481</ele>
        <time>2021-08-06T11:24:07.477Z</time>
      </trkpt>
      <trkpt lat="46.94586" lon="8.71491">
        <ele>1482</ele>
        <time>2021-08-06T11:24:08.478Z</time>
      </trkpt>
      <trkpt lat="46.94585" lon="8.7149">
        <ele>1482</ele>
        <time>2021-08-06T11:24:09.477Z</time>
      </trkpt>
      <trkpt lat="46.94585" lon="8.7149">
        <ele>1482</ele>
        <time>2021-08-06T11:24:10.478Z</time>
      </trkpt>
      <trkpt lat="46.94584" lon="8.7149">
        <ele>1482</ele>
        <time>2021-08-06T11:24:11.477Z</time>
      </trkpt>
      <trkpt lat="46.94584" lon="8.7149">
        <ele>1482</ele>
        <time>2021-08-06T11:24:12.478Z</time>
      </trkpt>
      <trkpt lat="46.94583" lon="8.7149">
        <ele>1482</ele>
        <time>2021-08-06T11:24:13.477Z</time>
      </trkpt>
      <trkpt lat="46.94581" lon="8.71489">
        <ele>1482</ele>
        <time>2021-08-06T11:24:14.478Z</time>
      </trkpt>
      <trkpt lat="46.9458" lon="8.71489">
        <ele>1482</ele>
        <time>2021-08-06T11:24:15.478Z</time>
      </trkpt>
      <trkpt lat="46.9458" lon="8.71488">
        <ele>1482</ele>
        <time>2021-08-06T11:24:16.477Z</time>
      </trkpt>
      <trkpt lat="46.9458" lon="8.71487">
        <ele>1482</ele>
        <time>2021-08-06T11:24:17.477Z</time>
      </trkpt>
      <trkpt lat="46.9458" lon="8.71486">
        <ele>1482</ele>
        <time>2021-08-06T11:24:18.477Z</time>
      </trkpt>
      <trkpt lat="46.94581" lon="8.71485">
        <ele>1482</ele>
        <time>2021-08-06T11:24:19.477Z</time>
      </trkpt>
      <trkpt lat="46.94581" lon="8.71484">
        <ele>1483</ele>
        <time>2021-08-06T11:24:20.477Z</time>
      </trkpt>
      <trkpt lat="46.94581" lon="8.71483">
        <ele>1483</ele>
        <time>2021-08-06T11:24:21.477Z</time>
      </trkpt>
      <trkpt lat="46.94581" lon="8.71482">
        <ele>1483</ele>
        <time>2021-08-06T11:24:22.477Z</time>
      </trkpt>
      <trkpt lat="46.94582" lon="8.71482">
        <ele>1484</ele>
        <time>2021-08-06T11:24:23.477Z</time>
      </trkpt>
      <trkpt lat="46.94582" lon="8.71481">
        <ele>1484</ele>
        <time>2021-08-06T11:24:24.477Z</time>
      </trkpt>
      <trkpt lat="46.94583" lon="8.71481">
        <ele>1484</ele>
        <time>2021-08-06T11:24:25.477Z</time>
      </trkpt>
      <trkpt lat="46.94584" lon="8.7148">
        <ele>1484</ele>
        <time>2021-08-06T11:24:26.477Z</time>
      </trkpt>
      <trkpt lat="46.94584" lon="8.71479">
        <ele>1485</ele>
        <time>2021-08-06T11:24:27.478Z</time>
      </trkpt>
      <trkpt lat="46.94585" lon="8.71478">
        <ele>1485</ele>
        <time>2021-08-06T11:24:28.478Z</time>
      </trkpt>
      <trkpt lat="46.94586" lon="8.71477">
        <ele>1485</ele>
        <time>2021-08-06T11:24:29.477Z</time>
      </trkpt>
      <trkpt lat="46.94586" lon="8.71476">
        <ele>1485</ele>
        <time>2021-08-06T11:24:30.477Z</time>
      </trkpt>
      <trkpt lat="46.94585" lon="8.71475">
        <ele>1486</ele>
        <time>2021-08-06T11:24:31.478Z</time>
      </trkpt>
      <trkpt lat="46.94585" lon="8.71474">
        <ele>1486</ele>
        <time>2021-08-06T11:24:32.478Z</time>
      </trkpt>
      <trkpt lat="46.94584" lon="8.71473">
        <ele>1486</ele>
        <time>2021-08-06T11:24:33.477Z</time>
      </trkpt>
      <trkpt lat="46.94584" lon="8.71471">
        <ele>1486</ele>
        <time>2021-08-06T11:24:34.478Z</time>
      </trkpt>
      <trkpt lat="46.94583" lon="8.7147">
        <ele>1486</ele>
        <time>2021-08-06T11:24:35.477Z</time>
      </trkpt>
      <trkpt lat="46.94582" lon="8.7147">
        <ele>1486</ele>
        <time>2021-08-06T11:24:36.477Z</time>
      </trkpt>
      <trkpt lat="46.94582" lon="8.71469">
        <ele>1486</ele>
        <time>2021-08-06T11:24:37.477Z</time>
      </trkpt>
      <trkpt lat="46.94581" lon="8.71468">
        <ele>1487</ele>
        <time>2021-08-06T11:24:38.477Z</time>
      </trkpt>
      <trkpt lat="46.94581" lon="8.71466">
        <ele>1487</ele>
        <time>2021-08-06T11:24:39.477Z</time>
      </trkpt>
      <trkpt lat="46.9458" lon="8.71465">
        <ele>1487</ele>
        <time>2021-08-06T11:24:40.477Z</time>
      </trkpt>
      <trkpt lat="46.9458" lon="8.71463">
        <ele>1486</ele>
        <time>2021-08-06T11:24:41.477Z</time>
      </trkpt>
      <trkpt lat="46.9458" lon="8.71463">
        <ele>1486</ele>
        <time>2021-08-06T11:24:42.477Z</time>
      </trkpt>
      <trkpt lat="46.94579" lon="8.71462">
        <ele>1486</ele>
        <time>2021-08-06T11:24:43.477Z</time>
      </trkpt>
      <trkpt lat="46.94579" lon="8.71461">
        <ele>1486</ele>
        <time>2021-08-06T11:24:44.478Z</time>
      </trkpt>
      <trkpt lat="46.94579" lon="8.7146">
        <ele>1486</ele>
        <time>2021-08-06T11:24:45.477Z</time>
      </trkpt>
      <trkpt lat="46.94578" lon="8.71458">
        <ele>1486</ele>
        <time>2021-08-06T11:24:46.478Z</time>
      </trkpt>
      <trkpt lat="46.94577" lon="8.71456">
        <ele>1486</ele>
        <time>2021-08-06T11:24:47.478Z</time>
      </trkpt>
      <trkpt lat="46.94576" lon="8.71455">
        <ele>1486</ele>
        <time>2021-08-06T11:24:48.477Z</time>
      </trkpt>
      <trkpt lat="46.94575" lon="8.71453">
        <ele>1486</ele>
        <time>2021-08-06T11:24:49.477Z</time>
      </trkpt>
      <trkpt lat="46.94575" lon="8.71452">
        <ele>1487</ele>
        <time>2021-08-06T11:24:54.580Z</time>
      </trkpt>
      <trkpt lat="46.94574" lon="8.71451">
        <ele>1487</ele>
        <time>2021-08-06T11:24:55.580Z</time>
      </trkpt>
      <trkpt lat="46.94574" lon="8.71451">
        <ele>1487</ele>
        <time>2021-08-06T11:24:56.581Z</time>
      </trkpt>
      <trkpt lat="46.94574" lon="8.7145">
        <ele>1487</ele>
        <time>2021-08-06T11:24:57.581Z</time>
      </trkpt>
      <trkpt lat="46.94573" lon="8.7145">
        <ele>1486</ele>
        <time>2021-08-06T11:24:58.581Z</time>
      </trkpt>
      <trkpt lat="46.94572" lon="8.71449">
        <ele>1486</ele>
        <time>2021-08-06T11:24:59.581Z</time>
      </trkpt>
      <trkpt lat="46.94571" lon="8.71447">
        <ele>1486</ele>
        <time>2021-08-06T11:25:00.581Z</time>
      </trkpt>
      <trkpt lat="46.9457" lon="8.71446">
        <ele>1485</ele>
        <time>2021-08-06T11:25:01.581Z</time>
      </trkpt>
      <trkpt lat="46.9457" lon="8.71445">
        <ele>1486</ele>
        <time>2021-08-06T11:25:02.581Z</time>
      </trkpt>
      <trkpt lat="46.94569" lon="8.71444">
        <ele>1486</ele>
        <time>2021-08-06T11:25:03.580Z</time>
      </trkpt>
      <trkpt lat="46.94568" lon="8.71443">
        <ele>1486</ele>
        <time>2021-08-06T11:25:04.580Z</time>
      </trkpt>
      <trkpt lat="46.94567" lon="8.71442">
        <ele>1486</ele>
        <time>2021-08-06T11:25:05.581Z</time>
      </trkpt>
      <trkpt lat="46.94566" lon="8.7144">
        <ele>1486</ele>
        <time>2021-08-06T11:25:06.580Z</time>
      </trkpt>
      <trkpt lat="46.94566" lon="8.71438">
        <ele>1487</ele>
        <time>2021-08-06T11:25:07.581Z</time>
      </trkpt>
      <trkpt lat="46.94565" lon="8.71437">
        <ele>1487</ele>
        <time>2021-08-06T11:25:08.581Z</time>
      </trkpt>
      <trkpt lat="46.94564" lon="8.71435">
        <ele>1487</ele>
        <time>2021-08-06T11:25:09.581Z</time>
      </trkpt>
      <trkpt lat="46.94564" lon="8.71433">
        <ele>1487</ele>
        <time>2021-08-06T11:25:10.581Z</time>
      </trkpt>
      <trkpt lat="46.94563" lon="8.71432">
        <ele>1488</ele>
        <time>2021-08-06T11:25:11.581Z</time>
      </trkpt>
      <trkpt lat="46.94563" lon="8.71432">
        <ele>1488</ele>
        <time>2021-08-06T11:25:12.580Z</time>
      </trkpt>
      <trkpt lat="46.94562" lon="8.71431">
        <ele>1488</ele>
        <time>2021-08-06T11:25:13.581Z</time>
      </trkpt>
      <trkpt lat="46.94562" lon="8.7143">
        <ele>1488</ele>
        <time>2021-08-06T11:25:14.581Z</time>
      </trkpt>
      <trkpt lat="46.94561" lon="8.71429">
        <ele>1488</ele>
        <time>2021-08-06T11:25:15.581Z</time>
      </trkpt>
      <trkpt lat="46.94561" lon="8.71428">
        <ele>1488</ele>
        <time>2021-08-06T11:25:16.580Z</time>
      </trkpt>
      <trkpt lat="46.9456" lon="8.71428">
        <ele>1487</ele>
        <time>2021-08-06T11:25:17.581Z</time>
      </trkpt>
      <trkpt lat="46.9456" lon="8.71428">
        <ele>1487</ele>
        <time>2021-08-06T11:25:18.580Z</time>
      </trkpt>
      <trkpt lat="46.94559" lon="8.71428">
        <ele>1487</ele>
        <time>2021-08-06T11:25:19.580Z</time>
      </trkpt>
      <trkpt lat="46.94559" lon="8.71428">
        <ele>1487</ele>
        <time>2021-08-06T11:25:20.581Z</time>
      </trkpt>
      <trkpt lat="46.94558" lon="8.71428">
        <ele>1487</ele>
        <time>2021-08-06T11:25:21.581Z</time>
      </trkpt>
      <trkpt lat="46.94557" lon="8.71428">
        <ele>1488</ele>
        <time>2021-08-06T11:25:22.581Z</time>
      </trkpt>
      <trkpt lat="46.94557" lon="8.71429">
        <ele>1488</ele>
        <time>2021-08-06T11:25:23.581Z</time>
      </trkpt>
      <trkpt lat="46.94556" lon="8.71429">
        <ele>1488</ele>
        <time>2021-08-06T11:25:24.581Z</time>
      </trkpt>
      <trkpt lat="46.94556" lon="8.7143">
        <ele>1489</ele>
        <time>2021-08-06T11:25:25.581Z</time>
      </trkpt>
      <trkpt lat="46.94555" lon="8.71431">
        <ele>1489</ele>
        <time>2021-08-06T11:25:26.581Z</time>
      </trkpt>
      <trkpt lat="46.94555" lon="8.71431">
        <ele>1489</ele>
        <time>2021-08-06T11:25:27.581Z</time>
      </trkpt>
      <trkpt lat="46.94554" lon="8.71432">
        <ele>1489</ele>
        <time>2021-08-06T11:25:29.675Z</time>
      </trkpt>
      <trkpt lat="46.94553" lon="8.71432">
        <ele>1489</ele>
        <time>2021-08-06T11:25:30.675Z</time>
      </trkpt>
      <trkpt lat="46.94553" lon="8.71432">
        <ele>1489</ele>
        <time>2021-08-06T11:25:31.675Z</time>
      </trkpt>
      <trkpt lat="46.94552" lon="8.71433">
        <ele>1490</ele>
        <time>2021-08-06T11:25:32.674Z</time>
      </trkpt>
      <trkpt lat="46.94552" lon="8.71433">
        <ele>1490</ele>
        <time>2021-08-06T11:25:33.674Z</time>
      </trkpt>
      <trkpt lat="46.94551" lon="8.71433">
        <ele>1490</ele>
        <time>2021-08-06T11:25:34.674Z</time>
      </trkpt>
      <trkpt lat="46.94551" lon="8.71432">
        <ele>1491</ele>
        <time>2021-08-06T11:25:35.674Z</time>
      </trkpt>
      <trkpt lat="46.9455" lon="8.71431">
        <ele>1491</ele>
        <time>2021-08-06T11:25:36.675Z</time>
      </trkpt>
      <trkpt lat="46.94549" lon="8.7143">
        <ele>1491</ele>
        <time>2021-08-06T11:25:37.674Z</time>
      </trkpt>
      <trkpt lat="46.94549" lon="8.7143">
        <ele>1491</ele>
        <time>2021-08-06T11:25:38.675Z</time>
      </trkpt>
      <trkpt lat="46.94548" lon="8.71429">
        <ele>1492</ele>
        <time>2021-08-06T11:25:39.674Z</time>
      </trkpt>
      <trkpt lat="46.94547" lon="8.71428">
        <ele>1492</ele>
        <time>2021-08-06T11:25:40.675Z</time>
      </trkpt>
      <trkpt lat="46.94547" lon="8.71427">
        <ele>1493</ele>
        <time>2021-08-06T11:25:41.674Z</time>
      </trkpt>
      <trkpt lat="46.94547" lon="8.71425">
        <ele>1493</ele>
        <time>2021-08-06T11:25:42.674Z</time>
      </trkpt>
      <trkpt lat="46.94548" lon="8.71424">
        <ele>1493</ele>
        <time>2021-08-06T11:25:43.675Z</time>
      </trkpt>
      <trkpt lat="46.94548" lon="8.71424">
        <ele>1494</ele>
        <time>2021-08-06T11:25:44.675Z</time>
      </trkpt>
      <trkpt lat="46.94548" lon="8.71423">
        <ele>1494</ele>
        <time>2021-08-06T11:25:45.675Z</time>
      </trkpt>
      <trkpt lat="46.94548" lon="8.71422">
        <ele>1494</ele>
        <time>2021-08-06T11:25:46.674Z</time>
      </trkpt>
      <trkpt lat="46.94549" lon="8.71421">
        <ele>1494</ele>
        <time>2021-08-06T11:25:47.675Z</time>
      </trkpt>
      <trkpt lat="46.94549" lon="8.7142">
        <ele>1495</ele>
        <time>2021-08-06T11:25:48.675Z</time>
      </trkpt>
      <trkpt lat="46.94549" lon="8.71419">
        <ele>1495</ele>
        <time>2021-08-06T11:25:49.675Z</time>
      </trkpt>
      <trkpt lat="46.94549" lon="8.71419">
        <ele>1495</ele>
        <time>2021-08-06T11:25:50.675Z</time>
      </trkpt>
      <trkpt lat="46.94549" lon="8.71418">
        <ele>1495</ele>
        <time>2021-08-06T11:25:51.675Z</time>
      </trkpt>
      <trkpt lat="46.94548" lon="8.71417">
        <ele>1496</ele>
        <time>2021-08-06T11:25:52.675Z</time>
      </trkpt>
      <trkpt lat="46.94548" lon="8.71417">
        <ele>1496</ele>
        <time>2021-08-06T11:25:53.675Z</time>
      </trkpt>
      <trkpt lat="46.94547" lon="8.71417">
        <ele>1496</ele>
        <time>2021-08-06T11:25:54.675Z</time>
      </trkpt>
      <trkpt lat="46.94546" lon="8.71417">
        <ele>1496</ele>
        <time>2021-08-06T11:25:55.675Z</time>
      </trkpt>
      <trkpt lat="46.94545" lon="8.71417">
        <ele>1497</ele>
        <time>2021-08-06T11:25:56.675Z</time>
      </trkpt>
      <trkpt lat="46.94545" lon="8.71417">
        <ele>1497</ele>
        <time>2021-08-06T11:25:57.675Z</time>
      </trkpt>
      <trkpt lat="46.94544" lon="8.71417">
        <ele>1497</ele>
        <time>2021-08-06T11:25:58.675Z</time>
      </trkpt>
      <trkpt lat="46.94543" lon="8.71417">
        <ele>1498</ele>
        <time>2021-08-06T11:25:59.675Z</time>
      </trkpt>
      <trkpt lat="46.94543" lon="8.71417">
        <ele>1498</ele>
        <time>2021-08-06T11:26:00.674Z</time>
      </trkpt>
      <trkpt lat="46.94542" lon="8.71418">
        <ele>1499</ele>
        <time>2021-08-06T11:26:01.675Z</time>
      </trkpt>
      <trkpt lat="46.94541" lon="8.71418">
        <ele>1499</ele>
        <time>2021-08-06T11:26:02.675Z</time>
      </trkpt>
      <trkpt lat="46.9454" lon="8.71418">
        <ele>1500</ele>
        <time>2021-08-06T11:26:03.675Z</time>
      </trkpt>
      <trkpt lat="46.94539" lon="8.71418">
        <ele>1501</ele>
        <time>2021-08-06T11:26:04.675Z</time>
      </trkpt>
      <trkpt lat="46.94539" lon="8.71419">
        <ele>1501</ele>
        <time>2021-08-06T11:26:05.675Z</time>
      </trkpt>
      <trkpt lat="46.94538" lon="8.71419">
        <ele>1502</ele>
        <time>2021-08-06T11:26:06.674Z</time>
      </trkpt>
      <trkpt lat="46.94538" lon="8.7142">
        <ele>1502</ele>
        <time>2021-08-06T11:26:07.674Z</time>
      </trkpt>
      <trkpt lat="46.94537" lon="8.71419">
        <ele>1503</ele>
        <time>2021-08-06T11:26:08.675Z</time>
      </trkpt>
      <trkpt lat="46.94536" lon="8.71419">
        <ele>1503</ele>
        <time>2021-08-06T11:26:09.675Z</time>
      </trkpt>
      <trkpt lat="46.94536" lon="8.71419">
        <ele>1503</ele>
        <time>2021-08-06T11:26:10.675Z</time>
      </trkpt>
      <trkpt lat="46.94535" lon="8.71419">
        <ele>1504</ele>
        <time>2021-08-06T11:26:11.675Z</time>
      </trkpt>
      <trkpt lat="46.94534" lon="8.7142">
        <ele>1504</ele>
        <time>2021-08-06T11:26:12.675Z</time>
      </trkpt>
      <trkpt lat="46.94533" lon="8.71421">
        <ele>1505</ele>
        <time>2021-08-06T11:26:13.674Z</time>
      </trkpt>
      <trkpt lat="46.94532" lon="8.71422">
        <ele>1505</ele>
        <time>2021-08-06T11:26:14.674Z</time>
      </trkpt>
      <trkpt lat="46.94531" lon="8.71422">
        <ele>1505</ele>
        <time>2021-08-06T11:26:21.730Z</time>
      </trkpt>
      <trkpt lat="46.94531" lon="8.71423">
        <ele>1505</ele>
        <time>2021-08-06T11:26:22.730Z</time>
      </trkpt>
      <trkpt lat="46.94531" lon="8.71423">
        <ele>1506</ele>
        <time>2021-08-06T11:26:23.729Z</time>
      </trkpt>
      <trkpt lat="46.9453" lon="8.71423">
        <ele>1506</ele>
        <time>2021-08-06T11:26:24.730Z</time>
      </trkpt>
      <trkpt lat="46.9453" lon="8.71422">
        <ele>1507</ele>
        <time>2021-08-06T11:26:25.730Z</time>
      </trkpt>
      <trkpt lat="46.94529" lon="8.71422">
        <ele>1507</ele>
        <time>2021-08-06T11:26:26.730Z</time>
      </trkpt>
      <trkpt lat="46.94529" lon="8.71422">
        <ele>1508</ele>
        <time>2021-08-06T11:26:27.730Z</time>
      </trkpt>
      <trkpt lat="46.94528" lon="8.71422">
        <ele>1508</ele>
        <time>2021-08-06T11:26:28.729Z</time>
      </trkpt>
      <trkpt lat="46.94528" lon="8.71422">
        <ele>1508</ele>
        <time>2021-08-06T11:26:29.730Z</time>
      </trkpt>
      <trkpt lat="46.94527" lon="8.71423">
        <ele>1510</ele>
        <time>2021-08-06T11:26:30.731Z</time>
      </trkpt>
      <trkpt lat="46.94526" lon="8.71424">
        <ele>1511</ele>
        <time>2021-08-06T11:26:31.731Z</time>
      </trkpt>
      <trkpt lat="46.94526" lon="8.71424">
        <ele>1511</ele>
        <time>2021-08-06T11:26:32.731Z</time>
      </trkpt>
      <trkpt lat="46.94525" lon="8.71423">
        <ele>1512</ele>
        <time>2021-08-06T11:26:33.731Z</time>
      </trkpt>
      <trkpt lat="46.94525" lon="8.71423">
        <ele>1513</ele>
        <time>2021-08-06T11:26:34.731Z</time>
      </trkpt>
      <trkpt lat="46.94524" lon="8.71423">
        <ele>1513</ele>
        <time>2021-08-06T11:26:35.730Z</time>
      </trkpt>
      <trkpt lat="46.94524" lon="8.71423">
        <ele>1514</ele>
        <time>2021-08-06T11:26:36.730Z</time>
      </trkpt>
      <trkpt lat="46.94524" lon="8.71423">
        <ele>1515</ele>
        <time>2021-08-06T11:26:37.730Z</time>
      </trkpt>
      <trkpt lat="46.94523" lon="8.71424">
        <ele>1515</ele>
        <time>2021-08-06T11:26:38.731Z</time>
      </trkpt>
      <trkpt lat="46.94522" lon="8.71424">
        <ele>1515</ele>
        <time>2021-08-06T11:26:39.731Z</time>
      </trkpt>
      <trkpt lat="46.94522" lon="8.71424">
        <ele>1515</ele>
        <time>2021-08-06T11:26:40.730Z</time>
      </trkpt>
      <trkpt lat="46.94522" lon="8.71422">
        <ele>1515</ele>
        <time>2021-08-06T11:26:41.731Z</time>
      </trkpt>
      <trkpt lat="46.94521" lon="8.71421">
        <ele>1516</ele>
        <time>2021-08-06T11:26:42.730Z</time>
      </trkpt>
      <trkpt lat="46.9452" lon="8.71419">
        <ele>1516</ele>
        <time>2021-08-06T11:26:43.730Z</time>
      </trkpt>
      <trkpt lat="46.94519" lon="8.71418">
        <ele>1515</ele>
        <time>2021-08-06T11:26:44.731Z</time>
      </trkpt>
      <trkpt lat="46.94518" lon="8.71418">
        <ele>1515</ele>
        <time>2021-08-06T11:26:45.731Z</time>
      </trkpt>
      <trkpt lat="46.94517" lon="8.71417">
        <ele>1515</ele>
        <time>2021-08-06T11:26:46.731Z</time>
      </trkpt>
      <trkpt lat="46.94516" lon="8.71417">
        <ele>1515</ele>
        <time>2021-08-06T11:26:47.731Z</time>
      </trkpt>
      <trkpt lat="46.94516" lon="8.71418">
        <ele>1514</ele>
        <time>2021-08-06T11:26:48.731Z</time>
      </trkpt>
      <trkpt lat="46.94516" lon="8.71418">
        <ele>1513</ele>
        <time>2021-08-06T11:26:49.730Z</time>
      </trkpt>
      <trkpt lat="46.94516" lon="8.71418">
        <ele>1513</ele>
        <time>2021-08-06T11:26:50.731Z</time>
      </trkpt>
      <trkpt lat="46.94516" lon="8.71418">
        <ele>1512</ele>
        <time>2021-08-06T11:26:51.730Z</time>
      </trkpt>
      <trkpt lat="46.94515" lon="8.71419">
        <ele>1511</ele>
        <time>2021-08-06T11:26:52.731Z</time>
      </trkpt>
      <trkpt lat="46.94515" lon="8.7142">
        <ele>1510</ele>
        <time>2021-08-06T11:26:53.731Z</time>
      </trkpt>
      <trkpt lat="46.94514" lon="8.7142">
        <ele>1510</ele>
        <time>2021-08-06T11:26:54.731Z</time>
      </trkpt>
      <trkpt lat="46.94513" lon="8.71421">
        <ele>1509</ele>
        <time>2021-08-06T11:26:55.731Z</time>
      </trkpt>
      <trkpt lat="46.94513" lon="8.71422">
        <ele>1508</ele>
        <time>2021-08-06T11:26:56.731Z</time>
      </trkpt>
      <trkpt lat="46.94512" lon="8.71424">
        <ele>1508</ele>
        <time>2021-08-06T11:26:57.731Z</time>
      </trkpt>
      <trkpt lat="46.94512" lon="8.71425">
        <ele>1508</ele>
        <time>2021-08-06T11:26:58.731Z</time>
      </trkpt>
      <trkpt lat="46.94512" lon="8.71425">
        <ele>1507</ele>
        <time>2021-08-06T11:26:59.730Z</time>
      </trkpt>
      <trkpt lat="46.94511" lon="8.71426">
        <ele>1507</ele>
        <time>2021-08-06T11:27:00.731Z</time>
      </trkpt>
      <trkpt lat="46.94511" lon="8.71427">
        <ele>1507</ele>
        <time>2021-08-06T11:27:01.731Z</time>
      </trkpt>
      <trkpt lat="46.94512" lon="8.71428">
        <ele>1506</ele>
        <time>2021-08-06T11:27:02.731Z</time>
      </trkpt>
      <trkpt lat="46.94512" lon="8.71429">
        <ele>1506</ele>
        <time>2021-08-06T11:27:03.731Z</time>
      </trkpt>
      <trkpt lat="46.94512" lon="8.71431">
        <ele>1506</ele>
        <time>2021-08-06T11:27:04.730Z</time>
      </trkpt>
      <trkpt lat="46.94512" lon="8.71431">
        <ele>1505</ele>
        <time>2021-08-06T11:27:05.730Z</time>
      </trkpt>
      <trkpt lat="46.94511" lon="8.71432">
        <ele>1505</ele>
        <time>2021-08-06T11:27:06.731Z</time>
      </trkpt>
      <trkpt lat="46.94511" lon="8.71433">
        <ele>1505</ele>
        <time>2021-08-06T11:27:07.730Z</time>
      </trkpt>
      <trkpt lat="46.9451" lon="8.71434">
        <ele>1505</ele>
        <time>2021-08-06T11:27:08.730Z</time>
      </trkpt>
      <trkpt lat="46.94509" lon="8.71435">
        <ele>1505</ele>
        <time>2021-08-06T11:27:09.730Z</time>
      </trkpt>
      <trkpt lat="46.94509" lon="8.71437">
        <ele>1505</ele>
        <time>2021-08-06T11:27:10.730Z</time>
      </trkpt>
      <trkpt lat="46.94508" lon="8.71438">
        <ele>1506</ele>
        <time>2021-08-06T11:27:11.730Z</time>
      </trkpt>
      <trkpt lat="46.94508" lon="8.71438">
        <ele>1506</ele>
        <time>2021-08-06T11:27:12.731Z</time>
      </trkpt>
      <trkpt lat="46.94509" lon="8.71438">
        <ele>1507</ele>
        <time>2021-08-06T11:27:13.731Z</time>
      </trkpt>
      <trkpt lat="46.94509" lon="8.71437">
        <ele>1508</ele>
        <time>2021-08-06T11:27:14.730Z</time>
      </trkpt>
      <trkpt lat="46.94509" lon="8.71435">
        <ele>1509</ele>
        <time>2021-08-06T11:27:15.731Z</time>
      </trkpt>
      <trkpt lat="46.94509" lon="8.71434">
        <ele>1510</ele>
        <time>2021-08-06T11:27:16.731Z</time>
      </trkpt>
      <trkpt lat="46.94509" lon="8.71433">
        <ele>1511</ele>
        <time>2021-08-06T11:27:17.731Z</time>
      </trkpt>
      <trkpt lat="46.94509" lon="8.71432">
        <ele>1512</ele>
        <time>2021-08-06T11:27:18.730Z</time>
      </trkpt>
      <trkpt lat="46.94508" lon="8.71431">
        <ele>1512</ele>
        <time>2021-08-06T11:27:19.731Z</time>
      </trkpt>
      <trkpt lat="46.94508" lon="8.71431">
        <ele>1513</ele>
        <time>2021-08-06T11:27:20.730Z</time>
      </trkpt>
      <trkpt lat="46.94508" lon="8.71429">
        <ele>1514</ele>
        <time>2021-08-06T11:27:21.731Z</time>
      </trkpt>
      <trkpt lat="46.94507" lon="8.71427">
        <ele>1514</ele>
        <time>2021-08-06T11:27:22.730Z</time>
      </trkpt>
      <trkpt lat="46.94507" lon="8.71426">
        <ele>1514</ele>
        <time>2021-08-06T11:27:23.731Z</time>
      </trkpt>
      <trkpt lat="46.94507" lon="8.71425">
        <ele>1514</ele>
        <time>2021-08-06T11:27:24.731Z</time>
      </trkpt>
      <trkpt lat="46.94506" lon="8.71426">
        <ele>1515</ele>
        <time>2021-08-06T11:27:25.730Z</time>
      </trkpt>
      <trkpt lat="46.94506" lon="8.71427">
        <ele>1515</ele>
        <time>2021-08-06T11:27:26.731Z</time>
      </trkpt>
      <trkpt lat="46.94506" lon="8.71426">
        <ele>1515</ele>
        <time>2021-08-06T11:27:27.731Z</time>
      </trkpt>
      <trkpt lat="46.94506" lon="8.71426">
        <ele>1515</ele>
        <time>2021-08-06T11:27:28.731Z</time>
      </trkpt>
      <trkpt lat="46.94506" lon="8.71425">
        <ele>1515</ele>
        <time>2021-08-06T11:27:29.731Z</time>
      </trkpt>
      <trkpt lat="46.94506" lon="8.71424">
        <ele>1516</ele>
        <time>2021-08-06T11:27:30.731Z</time>
      </trkpt>
      <trkpt lat="46.94506" lon="8.71424">
        <ele>1516</ele>
        <time>2021-08-06T11:27:31.732Z</time>
      </trkpt>
      <trkpt lat="46.94506" lon="8.71424">
        <ele>1517</ele>
        <time>2021-08-06T11:27:32.731Z</time>
      </trkpt>
      <trkpt lat="46.94506" lon="8.71423">
        <ele>1517</ele>
        <time>2021-08-06T11:27:33.731Z</time>
      </trkpt>
      <trkpt lat="46.94506" lon="8.71423">
        <ele>1518</ele>
        <time>2021-08-06T11:27:34.732Z</time>
      </trkpt>
      <trkpt lat="46.94505" lon="8.71423">
        <ele>1518</ele>
        <time>2021-08-06T11:27:35.732Z</time>
      </trkpt>
      <trkpt lat="46.94505" lon="8.71423">
        <ele>1518</ele>
        <time>2021-08-06T11:27:36.732Z</time>
      </trkpt>
      <trkpt lat="46.94505" lon="8.71424">
        <ele>1518</ele>
        <time>2021-08-06T11:27:37.732Z</time>
      </trkpt>
      <trkpt lat="46.94504" lon="8.71423">
        <ele>1518</ele>
        <time>2021-08-06T11:27:38.731Z</time>
      </trkpt>
      <trkpt lat="46.94504" lon="8.71423">
        <ele>1518</ele>
        <time>2021-08-06T11:27:39.732Z</time>
      </trkpt>
      <trkpt lat="46.94504" lon="8.71423">
        <ele>1518</ele>
        <time>2021-08-06T11:27:40.732Z</time>
      </trkpt>
      <trkpt lat="46.94504" lon="8.71423">
        <ele>1519</ele>
        <time>2021-08-06T11:27:41.732Z</time>
      </trkpt>
      <trkpt lat="46.94503" lon="8.71423">
        <ele>1519</ele>
        <time>2021-08-06T11:27:42.732Z</time>
      </trkpt>
      <trkpt lat="46.94503" lon="8.71423">
        <ele>1520</ele>
        <time>2021-08-06T11:27:43.732Z</time>
      </trkpt>
      <trkpt lat="46.94502" lon="8.71423">
        <ele>1520</ele>
        <time>2021-08-06T11:27:44.731Z</time>
      </trkpt>
      <trkpt lat="46.94502" lon="8.71423">
        <ele>1520</ele>
        <time>2021-08-06T11:27:45.731Z</time>
      </trkpt>
      <trkpt lat="46.94501" lon="8.71423">
        <ele>1520</ele>
        <time>2021-08-06T11:27:46.732Z</time>
      </trkpt>
      <trkpt lat="46.94501" lon="8.71423">
        <ele>1520</ele>
        <time>2021-08-06T11:27:47.732Z</time>
      </trkpt>
      <trkpt lat="46.94501" lon="8.71422">
        <ele>1520</ele>
        <time>2021-08-06T11:27:48.732Z</time>
      </trkpt>
      <trkpt lat="46.94501" lon="8.71422">
        <ele>1520</ele>
        <time>2021-08-06T11:27:49.731Z</time>
      </trkpt>
      <trkpt lat="46.945" lon="8.71421">
        <ele>1519</ele>
        <time>2021-08-06T11:27:50.731Z</time>
      </trkpt>
      <trkpt lat="46.945" lon="8.71421">
        <ele>1519</ele>
        <time>2021-08-06T11:27:51.732Z</time>
      </trkpt>
      <trkpt lat="46.94499" lon="8.71421">
        <ele>1519</ele>
        <time>2021-08-06T11:27:52.731Z</time>
      </trkpt>
      <trkpt lat="46.94499" lon="8.71421">
        <ele>1519</ele>
        <time>2021-08-06T11:27:53.731Z</time>
      </trkpt>
      <trkpt lat="46.94499" lon="8.71421">
        <ele>1519</ele>
        <time>2021-08-06T11:27:54.731Z</time>
      </trkpt>
      <trkpt lat="46.94498" lon="8.7142">
        <ele>1521</ele>
        <time>2021-08-06T11:27:55.732Z</time>
      </trkpt>
      <trkpt lat="46.94497" lon="8.7142">
        <ele>1521</ele>
        <time>2021-08-06T11:27:56.731Z</time>
      </trkpt>
      <trkpt lat="46.94497" lon="8.7142">
        <ele>1521</ele>
        <time>2021-08-06T11:27:57.731Z</time>
      </trkpt>
      <trkpt lat="46.94497" lon="8.71419">
        <ele>1522</ele>
        <time>2021-08-06T11:27:58.731Z</time>
      </trkpt>
      <trkpt lat="46.94496" lon="8.71419">
        <ele>1522</ele>
        <time>2021-08-06T11:27:59.731Z</time>
      </trkpt>
      <trkpt lat="46.94495" lon="8.71418">
        <ele>1522</ele>
        <time>2021-08-06T11:28:00.731Z</time>
      </trkpt>
      <trkpt lat="46.94495" lon="8.71418">
        <ele>1523</ele>
        <time>2021-08-06T11:28:01.731Z</time>
      </trkpt>
      <trkpt lat="46.94494" lon="8.71418">
        <ele>1523</ele>
        <time>2021-08-06T11:28:02.731Z</time>
      </trkpt>
      <trkpt lat="46.94494" lon="8.71418">
        <ele>1523</ele>
        <time>2021-08-06T11:28:03.731Z</time>
      </trkpt>
      <trkpt lat="46.94493" lon="8.71417">
        <ele>1524</ele>
        <time>2021-08-06T11:28:04.732Z</time>
      </trkpt>
      <trkpt lat="46.94493" lon="8.71417">
        <ele>1524</ele>
        <time>2021-08-06T11:28:05.731Z</time>
      </trkpt>
      <trkpt lat="46.94492" lon="8.71416">
        <ele>1524</ele>
        <time>2021-08-06T11:28:06.731Z</time>
      </trkpt>
      <trkpt lat="46.94492" lon="8.71416">
        <ele>1524</ele>
        <time>2021-08-06T11:28:07.731Z</time>
      </trkpt>
      <trkpt lat="46.94491" lon="8.71416">
        <ele>1524</ele>
        <time>2021-08-06T11:28:08.732Z</time>
      </trkpt>
      <trkpt lat="46.94491" lon="8.71415">
        <ele>1525</ele>
        <time>2021-08-06T11:28:09.731Z</time>
      </trkpt>
      <trkpt lat="46.9449" lon="8.71415">
        <ele>1525</ele>
        <time>2021-08-06T11:28:10.731Z</time>
      </trkpt>
      <trkpt lat="46.9449" lon="8.71415">
        <ele>1526</ele>
        <time>2021-08-06T11:28:11.732Z</time>
      </trkpt>
      <trkpt lat="46.94489" lon="8.71415">
        <ele>1526</ele>
        <time>2021-08-06T11:28:12.732Z</time>
      </trkpt>
      <trkpt lat="46.94489" lon="8.71415">
        <ele>1527</ele>
        <time>2021-08-06T11:28:13.732Z</time>
      </trkpt>
      <trkpt lat="46.94488" lon="8.71415">
        <ele>1527</ele>
        <time>2021-08-06T11:28:14.731Z</time>
      </trkpt>
      <trkpt lat="46.94487" lon="8.71416">
        <ele>1527</ele>
        <time>2021-08-06T11:28:15.731Z</time>
      </trkpt>
      <trkpt lat="46.94486" lon="8.71416">
        <ele>1527</ele>
        <time>2021-08-06T11:28:16.732Z</time>
      </trkpt>
      <trkpt lat="46.94485" lon="8.71416">
        <ele>1527</ele>
        <time>2021-08-06T11:28:17.732Z</time>
      </trkpt>
      <trkpt lat="46.94484" lon="8.71417">
        <ele>1526</ele>
        <time>2021-08-06T11:28:18.732Z</time>
      </trkpt>
      <trkpt lat="46.94484" lon="8.71418">
        <ele>1526</ele>
        <time>2021-08-06T11:28:19.732Z</time>
      </trkpt>
      <trkpt lat="46.94484" lon="8.71419">
        <ele>1525</ele>
        <time>2021-08-06T11:28:20.731Z</time>
      </trkpt>
      <trkpt lat="46.94484" lon="8.71421">
        <ele>1525</ele>
        <time>2021-08-06T11:28:21.732Z</time>
      </trkpt>
      <trkpt lat="46.94485" lon="8.71422">
        <ele>1524</ele>
        <time>2021-08-06T11:28:22.732Z</time>
      </trkpt>
      <trkpt lat="46.94485" lon="8.71424">
        <ele>1523</ele>
        <time>2021-08-06T11:28:23.731Z</time>
      </trkpt>
      <trkpt lat="46.94484" lon="8.71425">
        <ele>1522</ele>
        <time>2021-08-06T11:28:24.732Z</time>
      </trkpt>
      <trkpt lat="46.94483" lon="8.71425">
        <ele>1522</ele>
        <time>2021-08-06T11:28:25.731Z</time>
      </trkpt>
      <trkpt lat="46.94483" lon="8.71425">
        <ele>1522</ele>
        <time>2021-08-06T11:28:26.732Z</time>
      </trkpt>
      <trkpt lat="46.94484" lon="8.71425">
        <ele>1521</ele>
        <time>2021-08-06T11:28:27.732Z</time>
      </trkpt>
      <trkpt lat="46.94483" lon="8.71426">
        <ele>1521</ele>
        <time>2021-08-06T11:28:28.732Z</time>
      </trkpt>
      <trkpt lat="46.94483" lon="8.71427">
        <ele>1521</ele>
        <time>2021-08-06T11:28:29.732Z</time>
      </trkpt>
      <trkpt lat="46.94483" lon="8.71428">
        <ele>1520</ele>
        <time>2021-08-06T11:28:30.732Z</time>
      </trkpt>
      <trkpt lat="46.94483" lon="8.71429">
        <ele>1520</ele>
        <time>2021-08-06T11:28:31.731Z</time>
      </trkpt>
      <trkpt lat="46.94484" lon="8.71429">
        <ele>1520</ele>
        <time>2021-08-06T11:28:32.732Z</time>
      </trkpt>
      <trkpt lat="46.94484" lon="8.7143">
        <ele>1519</ele>
        <time>2021-08-06T11:28:33.731Z</time>
      </trkpt>
      <trkpt lat="46.94483" lon="8.71429">
        <ele>1519</ele>
        <time>2021-08-06T11:28:34.731Z</time>
      </trkpt>
      <trkpt lat="46.94482" lon="8.7143">
        <ele>1519</ele>
        <time>2021-08-06T11:28:35.732Z</time>
      </trkpt>
      <trkpt lat="46.94482" lon="8.71431">
        <ele>1519</ele>
        <time>2021-08-06T11:28:36.732Z</time>
      </trkpt>
      <trkpt lat="46.94482" lon="8.71431">
        <ele>1519</ele>
        <time>2021-08-06T11:28:37.732Z</time>
      </trkpt>
      <trkpt lat="46.94482" lon="8.71432">
        <ele>1518</ele>
        <time>2021-08-06T11:28:38.732Z</time>
      </trkpt>
      <trkpt lat="46.94483" lon="8.71432">
        <ele>1518</ele>
        <time>2021-08-06T11:28:39.732Z</time>
      </trkpt>
      <trkpt lat="46.94484" lon="8.71431">
        <ele>1518</ele>
        <time>2021-08-06T11:28:40.731Z</time>
      </trkpt>
      <trkpt lat="46.94485" lon="8.71431">
        <ele>1518</ele>
        <time>2021-08-06T11:28:41.732Z</time>
      </trkpt>
      <trkpt lat="46.94486" lon="8.71431">
        <ele>1518</ele>
        <time>2021-08-06T11:28:42.732Z</time>
      </trkpt>
      <trkpt lat="46.94488" lon="8.7143">
        <ele>1518</ele>
        <time>2021-08-06T11:28:43.732Z</time>
      </trkpt>
      <trkpt lat="46.94489" lon="8.7143">
        <ele>1518</ele>
        <time>2021-08-06T11:28:44.731Z</time>
      </trkpt>
      <trkpt lat="46.94487" lon="8.7143">
        <ele>1523</ele>
        <time>2021-08-06T11:28:45.732Z</time>
      </trkpt>
      <trkpt lat="46.94486" lon="8.7143">
        <ele>1522</ele>
        <time>2021-08-06T11:28:46.733Z</time>
      </trkpt>
      <trkpt lat="46.94486" lon="8.71431">
        <ele>1522</ele>
        <time>2021-08-06T11:28:47.733Z</time>
      </trkpt>
      <trkpt lat="46.94485" lon="8.7143">
        <ele>1523</ele>
        <time>2021-08-06T11:28:48.735Z</time>
      </trkpt>
      <trkpt lat="46.94485" lon="8.71431">
        <ele>1523</ele>
        <time>2021-08-06T11:28:49.734Z</time>
      </trkpt>
      <trkpt lat="46.94485" lon="8.71432">
        <ele>1523</ele>
        <time>2021-08-06T11:28:50.734Z</time>
      </trkpt>
      <trkpt lat="46.94486" lon="8.71433">
        <ele>1523</ele>
        <time>2021-08-06T11:28:51.735Z</time>
      </trkpt>
      <trkpt lat="46.94485" lon="8.71433">
        <ele>1523</ele>
        <time>2021-08-06T11:28:52.735Z</time>
      </trkpt>
      <trkpt lat="46.94485" lon="8.71434">
        <ele>1523</ele>
        <time>2021-08-06T11:28:53.734Z</time>
      </trkpt>
      <trkpt lat="46.94485" lon="8.71435">
        <ele>1523</ele>
        <time>2021-08-06T11:28:54.734Z</time>
      </trkpt>
      <trkpt lat="46.94484" lon="8.71436">
        <ele>1524</ele>
        <time>2021-08-06T11:28:55.734Z</time>
      </trkpt>
      <trkpt lat="46.94484" lon="8.71437">
        <ele>1524</ele>
        <time>2021-08-06T11:28:56.735Z</time>
      </trkpt>
      <trkpt lat="46.94484" lon="8.71437">
        <ele>1525</ele>
        <time>2021-08-06T11:28:57.735Z</time>
      </trkpt>
      <trkpt lat="46.94484" lon="8.71438">
        <ele>1525</ele>
        <time>2021-08-06T11:28:58.734Z</time>
      </trkpt>
      <trkpt lat="46.94484" lon="8.71438">
        <ele>1525</ele>
        <time>2021-08-06T11:28:59.735Z</time>
      </trkpt>
      <trkpt lat="46.94483" lon="8.71439">
        <ele>1526</ele>
        <time>2021-08-06T11:29:00.734Z</time>
      </trkpt>
      <trkpt lat="46.94483" lon="8.71441">
        <ele>1526</ele>
        <time>2021-08-06T11:29:01.735Z</time>
      </trkpt>
      <trkpt lat="46.94483" lon="8.71442">
        <ele>1527</ele>
        <time>2021-08-06T11:29:02.735Z</time>
      </trkpt>
      <trkpt lat="46.94483" lon="8.71442">
        <ele>1527</ele>
        <time>2021-08-06T11:29:03.734Z</time>
      </trkpt>
      <trkpt lat="46.94483" lon="8.71443">
        <ele>1528</ele>
        <time>2021-08-06T11:29:04.734Z</time>
      </trkpt>
      <trkpt lat="46.94483" lon="8.71444">
        <ele>1528</ele>
        <time>2021-08-06T11:29:05.735Z</time>
      </trkpt>
      <trkpt lat="46.94483" lon="8.71444">
        <ele>1529</ele>
        <time>2021-08-06T11:29:06.735Z</time>
      </trkpt>
      <trkpt lat="46.94483" lon="8.71444">
        <ele>1529</ele>
        <time>2021-08-06T11:29:07.735Z</time>
      </trkpt>
      <trkpt lat="46.94483" lon="8.71445">
        <ele>1529</ele>
        <time>2021-08-06T11:29:08.734Z</time>
      </trkpt>
      <trkpt lat="46.94483" lon="8.71446">
        <ele>1530</ele>
        <time>2021-08-06T11:29:09.734Z</time>
      </trkpt>
      <trkpt lat="46.94483" lon="8.71447">
        <ele>1530</ele>
        <time>2021-08-06T11:29:10.735Z</time>
      </trkpt>
      <trkpt lat="46.94483" lon="8.71449">
        <ele>1530</ele>
        <time>2021-08-06T11:29:11.735Z</time>
      </trkpt>
      <trkpt lat="46.94482" lon="8.7145">
        <ele>1530</ele>
        <time>2021-08-06T11:29:12.735Z</time>
      </trkpt>
      <trkpt lat="46.94482" lon="8.71451">
        <ele>1531</ele>
        <time>2021-08-06T11:29:13.735Z</time>
      </trkpt>
      <trkpt lat="46.94482" lon="8.71452">
        <ele>1531</ele>
        <time>2021-08-06T11:29:14.735Z</time>
      </trkpt>
      <trkpt lat="46.94482" lon="8.71453">
        <ele>1531</ele>
        <time>2021-08-06T11:29:15.735Z</time>
      </trkpt>
      <trkpt lat="46.94482" lon="8.71454">
        <ele>1531</ele>
        <time>2021-08-06T11:29:16.735Z</time>
      </trkpt>
      <trkpt lat="46.94482" lon="8.71455">
        <ele>1531</ele>
        <time>2021-08-06T11:29:17.734Z</time>
      </trkpt>
      <trkpt lat="46.94482" lon="8.71456">
        <ele>1531</ele>
        <time>2021-08-06T11:29:18.734Z</time>
      </trkpt>
      <trkpt lat="46.94482" lon="8.71455">
        <ele>1531</ele>
        <time>2021-08-06T11:29:19.735Z</time>
      </trkpt>
      <trkpt lat="46.94482" lon="8.71455">
        <ele>1531</ele>
        <time>2021-08-06T11:29:20.735Z</time>
      </trkpt>
      <trkpt lat="46.9448" lon="8.71455">
        <ele>1531</ele>
        <time>2021-08-06T11:29:21.736Z</time>
      </trkpt>
      <trkpt lat="46.9448" lon="8.71456">
        <ele>1532</ele>
        <time>2021-08-06T11:29:22.735Z</time>
      </trkpt>
      <trkpt lat="46.9448" lon="8.71458">
        <ele>1532</ele>
        <time>2021-08-06T11:29:23.735Z</time>
      </trkpt>
      <trkpt lat="46.9448" lon="8.71459">
        <ele>1532</ele>
        <time>2021-08-06T11:29:24.735Z</time>
      </trkpt>
      <trkpt lat="46.9448" lon="8.71461">
        <ele>1532</ele>
        <time>2021-08-06T11:29:25.735Z</time>
      </trkpt>
      <trkpt lat="46.9448" lon="8.71462">
        <ele>1532</ele>
        <time>2021-08-06T11:29:26.735Z</time>
      </trkpt>
      <trkpt lat="46.9448" lon="8.71463">
        <ele>1532</ele>
        <time>2021-08-06T11:29:27.735Z</time>
      </trkpt>
      <trkpt lat="46.94479" lon="8.71463">
        <ele>1531</ele>
        <time>2021-08-06T11:29:28.735Z</time>
      </trkpt>
      <trkpt lat="46.94479" lon="8.71464">
        <ele>1531</ele>
        <time>2021-08-06T11:29:29.735Z</time>
      </trkpt>
      <trkpt lat="46.94478" lon="8.71464">
        <ele>1531</ele>
        <time>2021-08-06T11:29:30.735Z</time>
      </trkpt>
      <trkpt lat="46.94478" lon="8.71463">
        <ele>1531</ele>
        <time>2021-08-06T11:29:31.736Z</time>
      </trkpt>
      <trkpt lat="46.94478" lon="8.71462">
        <ele>1532</ele>
        <time>2021-08-06T11:29:32.736Z</time>
      </trkpt>
      <trkpt lat="46.94477" lon="8.7146">
        <ele>1532</ele>
        <time>2021-08-06T11:29:33.736Z</time>
      </trkpt>
      <trkpt lat="46.94477" lon="8.7146">
        <ele>1531</ele>
        <time>2021-08-06T11:29:34.736Z</time>
      </trkpt>
      <trkpt lat="46.94477" lon="8.7146">
        <ele>1531</ele>
        <time>2021-08-06T11:29:35.735Z</time>
      </trkpt>
      <trkpt lat="46.94476" lon="8.71459">
        <ele>1531</ele>
        <time>2021-08-06T11:29:36.736Z</time>
      </trkpt>
      <trkpt lat="46.94476" lon="8.71459">
        <ele>1531</ele>
        <time>2021-08-06T11:29:37.736Z</time>
      </trkpt>
      <trkpt lat="46.94476" lon="8.71458">
        <ele>1531</ele>
        <time>2021-08-06T11:29:38.736Z</time>
      </trkpt>
      <trkpt lat="46.94475" lon="8.71458">
        <ele>1530</ele>
        <time>2021-08-06T11:29:39.736Z</time>
      </trkpt>
      <trkpt lat="46.94475" lon="8.71458">
        <ele>1530</ele>
        <time>2021-08-06T11:29:40.736Z</time>
      </trkpt>
      <trkpt lat="46.94475" lon="8.71458">
        <ele>1531</ele>
        <time>2021-08-06T11:29:41.736Z</time>
      </trkpt>
      <trkpt lat="46.94475" lon="8.71457">
        <ele>1533</ele>
        <time>2021-08-06T11:29:42.737Z</time>
      </trkpt>
      <trkpt lat="46.94474" lon="8.71456">
        <ele>1533</ele>
        <time>2021-08-06T11:29:43.737Z</time>
      </trkpt>
      <trkpt lat="46.94474" lon="8.71456">
        <ele>1534</ele>
        <time>2021-08-06T11:29:44.736Z</time>
      </trkpt>
      <trkpt lat="46.94473" lon="8.71455">
        <ele>1534</ele>
        <time>2021-08-06T11:29:45.737Z</time>
      </trkpt>
      <trkpt lat="46.94473" lon="8.71455">
        <ele>1535</ele>
        <time>2021-08-06T11:29:46.737Z</time>
      </trkpt>
      <trkpt lat="46.94473" lon="8.71454">
        <ele>1535</ele>
        <time>2021-08-06T11:29:47.737Z</time>
      </trkpt>
      <trkpt lat="46.94473" lon="8.71454">
        <ele>1535</ele>
        <time>2021-08-06T11:29:48.737Z</time>
      </trkpt>
      <trkpt lat="46.94473" lon="8.71453">
        <ele>1535</ele>
        <time>2021-08-06T11:29:49.736Z</time>
      </trkpt>
      <trkpt lat="46.94473" lon="8.71452">
        <ele>1535</ele>
        <time>2021-08-06T11:29:50.737Z</time>
      </trkpt>
      <trkpt lat="46.94473" lon="8.71451">
        <ele>1536</ele>
        <time>2021-08-06T11:29:51.736Z</time>
      </trkpt>
      <trkpt lat="46.94473" lon="8.71451">
        <ele>1536</ele>
        <time>2021-08-06T11:29:52.737Z</time>
      </trkpt>
      <trkpt lat="46.94472" lon="8.71451">
        <ele>1536</ele>
        <time>2021-08-06T11:29:53.736Z</time>
      </trkpt>
      <trkpt lat="46.94472" lon="8.71451">
        <ele>1538</ele>
        <time>2021-08-06T11:29:54.736Z</time>
      </trkpt>
      <trkpt lat="46.94471" lon="8.71451">
        <ele>1538</ele>
        <time>2021-08-06T11:29:55.736Z</time>
      </trkpt>
      <trkpt lat="46.94471" lon="8.7145">
        <ele>1539</ele>
        <time>2021-08-06T11:29:56.737Z</time>
      </trkpt>
      <trkpt lat="46.9447" lon="8.71448">
        <ele>1541</ele>
        <time>2021-08-06T11:29:57.736Z</time>
      </trkpt>
      <trkpt lat="46.9447" lon="8.71448">
        <ele>1542</ele>
        <time>2021-08-06T11:29:58.737Z</time>
      </trkpt>
      <trkpt lat="46.94469" lon="8.71448">
        <ele>1542</ele>
        <time>2021-08-06T11:29:59.736Z</time>
      </trkpt>
      <trkpt lat="46.94469" lon="8.71447">
        <ele>1542</ele>
        <time>2021-08-06T11:30:00.736Z</time>
      </trkpt>
      <trkpt lat="46.94468" lon="8.71447">
        <ele>1541</ele>
        <time>2021-08-06T11:30:01.737Z</time>
      </trkpt>
      <trkpt lat="46.94468" lon="8.71447">
        <ele>1541</ele>
        <time>2021-08-06T11:30:02.737Z</time>
      </trkpt>
      <trkpt lat="46.94467" lon="8.71446">
        <ele>1541</ele>
        <time>2021-08-06T11:30:03.737Z</time>
      </trkpt>
      <trkpt lat="46.94467" lon="8.71446">
        <ele>1541</ele>
        <time>2021-08-06T11:30:04.736Z</time>
      </trkpt>
      <trkpt lat="46.94467" lon="8.71445">
        <ele>1540</ele>
        <time>2021-08-06T11:30:05.736Z</time>
      </trkpt>
      <trkpt lat="46.94467" lon="8.71445">
        <ele>1541</ele>
        <time>2021-08-06T11:30:06.737Z</time>
      </trkpt>
      <trkpt lat="46.94466" lon="8.71446">
        <ele>1541</ele>
        <time>2021-08-06T11:30:07.736Z</time>
      </trkpt>
      <trkpt lat="46.94466" lon="8.71446">
        <ele>1541</ele>
        <time>2021-08-06T11:30:08.737Z</time>
      </trkpt>
      <trkpt lat="46.94465" lon="8.71446">
        <ele>1541</ele>
        <time>2021-08-06T11:30:09.737Z</time>
      </trkpt>
      <trkpt lat="46.94465" lon="8.71445">
        <ele>1541</ele>
        <time>2021-08-06T11:30:10.737Z</time>
      </trkpt>
      <trkpt lat="46.94465" lon="8.71446">
        <ele>1541</ele>
        <time>2021-08-06T11:30:11.737Z</time>
      </trkpt>
      <trkpt lat="46.94464" lon="8.71446">
        <ele>1541</ele>
        <time>2021-08-06T11:30:12.737Z</time>
      </trkpt>
      <trkpt lat="46.94463" lon="8.71445">
        <ele>1541</ele>
        <time>2021-08-06T11:30:13.737Z</time>
      </trkpt>
      <trkpt lat="46.94462" lon="8.71446">
        <ele>1542</ele>
        <time>2021-08-06T11:30:14.736Z</time>
      </trkpt>
      <trkpt lat="46.94462" lon="8.71446">
        <ele>1542</ele>
        <time>2021-08-06T11:30:15.737Z</time>
      </trkpt>
      <trkpt lat="46.94462" lon="8.71445">
        <ele>1542</ele>
        <time>2021-08-06T11:30:16.737Z</time>
      </trkpt>
      <trkpt lat="46.94461" lon="8.71445">
        <ele>1541</ele>
        <time>2021-08-06T11:30:17.737Z</time>
      </trkpt>
      <trkpt lat="46.9446" lon="8.71446">
        <ele>1541</ele>
        <time>2021-08-06T11:30:18.737Z</time>
      </trkpt>
      <trkpt lat="46.9446" lon="8.71446">
        <ele>1540</ele>
        <time>2021-08-06T11:30:19.737Z</time>
      </trkpt>
      <trkpt lat="46.9446" lon="8.71447">
        <ele>1540</ele>
        <time>2021-08-06T11:30:20.736Z</time>
      </trkpt>
      <trkpt lat="46.9446" lon="8.71448">
        <ele>1540</ele>
        <time>2021-08-06T11:30:21.737Z</time>
      </trkpt>
      <trkpt lat="46.9446" lon="8.71448">
        <ele>1540</ele>
        <time>2021-08-06T11:30:22.736Z</time>
      </trkpt>
      <trkpt lat="46.94459" lon="8.71449">
        <ele>1540</ele>
        <time>2021-08-06T11:30:23.737Z</time>
      </trkpt>
      <trkpt lat="46.94459" lon="8.7145">
        <ele>1540</ele>
        <time>2021-08-06T11:30:24.737Z</time>
      </trkpt>
      <trkpt lat="46.94458" lon="8.71451">
        <ele>1540</ele>
        <time>2021-08-06T11:30:25.737Z</time>
      </trkpt>
      <trkpt lat="46.94457" lon="8.71452">
        <ele>1540</ele>
        <time>2021-08-06T11:30:26.736Z</time>
      </trkpt>
      <trkpt lat="46.94457" lon="8.71452">
        <ele>1540</ele>
        <time>2021-08-06T11:30:27.736Z</time>
      </trkpt>
      <trkpt lat="46.94456" lon="8.71452">
        <ele>1540</ele>
        <time>2021-08-06T11:30:28.736Z</time>
      </trkpt>
      <trkpt lat="46.94456" lon="8.71453">
        <ele>1540</ele>
        <time>2021-08-06T11:30:29.737Z</time>
      </trkpt>
      <trkpt lat="46.94455" lon="8.71453">
        <ele>1541</ele>
        <time>2021-08-06T11:30:30.737Z</time>
      </trkpt>
      <trkpt lat="46.94455" lon="8.71453">
        <ele>1541</ele>
        <time>2021-08-06T11:30:31.737Z</time>
      </trkpt>
      <trkpt lat="46.94455" lon="8.71453">
        <ele>1541</ele>
        <time>2021-08-06T11:30:32.737Z</time>
      </trkpt>
      <trkpt lat="46.94454" lon="8.71453">
        <ele>1541</ele>
        <time>2021-08-06T11:30:33.736Z</time>
      </trkpt>
      <trkpt lat="46.94453" lon="8.71452">
        <ele>1542</ele>
        <time>2021-08-06T11:30:34.736Z</time>
      </trkpt>
      <trkpt lat="46.94452" lon="8.71452">
        <ele>1542</ele>
        <time>2021-08-06T11:30:35.737Z</time>
      </trkpt>
      <trkpt lat="46.94452" lon="8.71453">
        <ele>1542</ele>
        <time>2021-08-06T11:30:36.737Z</time>
      </trkpt>
      <trkpt lat="46.94451" lon="8.71453">
        <ele>1543</ele>
        <time>2021-08-06T11:30:37.736Z</time>
      </trkpt>
      <trkpt lat="46.94451" lon="8.71453">
        <ele>1543</ele>
        <time>2021-08-06T11:30:38.737Z</time>
      </trkpt>
      <trkpt lat="46.94451" lon="8.71453">
        <ele>1544</ele>
        <time>2021-08-06T11:30:39.737Z</time>
      </trkpt>
      <trkpt lat="46.9445" lon="8.71454">
        <ele>1543</ele>
        <time>2021-08-06T11:30:40.738Z</time>
      </trkpt>
      <trkpt lat="46.9445" lon="8.71454">
        <ele>1543</ele>
        <time>2021-08-06T11:30:41.738Z</time>
      </trkpt>
      <trkpt lat="46.9445" lon="8.71453">
        <ele>1543</ele>
        <time>2021-08-06T11:30:42.737Z</time>
      </trkpt>
      <trkpt lat="46.94449" lon="8.71453">
        <ele>1543</ele>
        <time>2021-08-06T11:30:43.738Z</time>
      </trkpt>
      <trkpt lat="46.94449" lon="8.71452">
        <ele>1544</ele>
        <time>2021-08-06T11:30:44.738Z</time>
      </trkpt>
      <trkpt lat="46.94448" lon="8.71452">
        <ele>1544</ele>
        <time>2021-08-06T11:30:45.738Z</time>
      </trkpt>
      <trkpt lat="46.94448" lon="8.71452">
        <ele>1545</ele>
        <time>2021-08-06T11:30:46.738Z</time>
      </trkpt>
      <trkpt lat="46.94447" lon="8.71452">
        <ele>1545</ele>
        <time>2021-08-06T11:30:47.738Z</time>
      </trkpt>
      <trkpt lat="46.94447" lon="8.71452">
        <ele>1545</ele>
        <time>2021-08-06T11:30:48.738Z</time>
      </trkpt>
      <trkpt lat="46.94447" lon="8.71452">
        <ele>1546</ele>
        <time>2021-08-06T11:30:49.738Z</time>
      </trkpt>
      <trkpt lat="46.94446" lon="8.71452">
        <ele>1546</ele>
        <time>2021-08-06T11:30:50.738Z</time>
      </trkpt>
      <trkpt lat="46.94446" lon="8.71451">
        <ele>1546</ele>
        <time>2021-08-06T11:30:51.738Z</time>
      </trkpt>
      <trkpt lat="46.94446" lon="8.71451">
        <ele>1547</ele>
        <time>2021-08-06T11:30:52.737Z</time>
      </trkpt>
      <trkpt lat="46.94446" lon="8.7145">
        <ele>1547</ele>
        <time>2021-08-06T11:30:53.737Z</time>
      </trkpt>
      <trkpt lat="46.94445" lon="8.7145">
        <ele>1548</ele>
        <time>2021-08-06T11:30:54.737Z</time>
      </trkpt>
      <trkpt lat="46.94445" lon="8.7145">
        <ele>1548</ele>
        <time>2021-08-06T11:30:55.737Z</time>
      </trkpt>
      <trkpt lat="46.94445" lon="8.7145">
        <ele>1548</ele>
        <time>2021-08-06T11:30:56.738Z</time>
      </trkpt>
      <trkpt lat="46.94445" lon="8.71449">
        <ele>1548</ele>
        <time>2021-08-06T11:30:57.737Z</time>
      </trkpt>
      <trkpt lat="46.94445" lon="8.71448">
        <ele>1549</ele>
        <time>2021-08-06T11:30:58.737Z</time>
      </trkpt>
      <trkpt lat="46.94445" lon="8.71447">
        <ele>1549</ele>
        <time>2021-08-06T11:30:59.737Z</time>
      </trkpt>
      <trkpt lat="46.94445" lon="8.71446">
        <ele>1549</ele>
        <time>2021-08-06T11:31:00.738Z</time>
      </trkpt>
      <trkpt lat="46.94445" lon="8.71446">
        <ele>1549</ele>
        <time>2021-08-06T11:31:01.738Z</time>
      </trkpt>
      <trkpt lat="46.94445" lon="8.71445">
        <ele>1550</ele>
        <time>2021-08-06T11:31:02.738Z</time>
      </trkpt>
      <trkpt lat="46.94445" lon="8.71444">
        <ele>1550</ele>
        <time>2021-08-06T11:31:03.738Z</time>
      </trkpt>
      <trkpt lat="46.94445" lon="8.71443">
        <ele>1550</ele>
        <time>2021-08-06T11:31:04.738Z</time>
      </trkpt>
      <trkpt lat="46.94445" lon="8.71442">
        <ele>1550</ele>
        <time>2021-08-06T11:31:05.738Z</time>
      </trkpt>
      <trkpt lat="46.94444" lon="8.71442">
        <ele>1550</ele>
        <time>2021-08-06T11:31:06.738Z</time>
      </trkpt>
      <trkpt lat="46.94444" lon="8.71441">
        <ele>1549</ele>
        <time>2021-08-06T11:31:07.737Z</time>
      </trkpt>
      <trkpt lat="46.94443" lon="8.7144">
        <ele>1549</ele>
        <time>2021-08-06T11:31:08.737Z</time>
      </trkpt>
      <trkpt lat="46.94443" lon="8.7144">
        <ele>1549</ele>
        <time>2021-08-06T11:31:09.738Z</time>
      </trkpt>
      <trkpt lat="46.94443" lon="8.71439">
        <ele>1548</ele>
        <time>2021-08-06T11:31:10.738Z</time>
      </trkpt>
      <trkpt lat="46.94443" lon="8.71439">
        <ele>1548</ele>
        <time>2021-08-06T11:31:11.737Z</time>
      </trkpt>
      <trkpt lat="46.94444" lon="8.71439">
        <ele>1548</ele>
        <time>2021-08-06T11:31:12.737Z</time>
      </trkpt>
      <trkpt lat="46.94444" lon="8.71437">
        <ele>1548</ele>
        <time>2021-08-06T11:31:13.738Z</time>
      </trkpt>
      <trkpt lat="46.94445" lon="8.71435">
        <ele>1548</ele>
        <time>2021-08-06T11:31:14.737Z</time>
      </trkpt>
      <trkpt lat="46.94444" lon="8.71434">
        <ele>1548</ele>
        <time>2021-08-06T11:31:15.738Z</time>
      </trkpt>
      <trkpt lat="46.94444" lon="8.71433">
        <ele>1548</ele>
        <time>2021-08-06T11:31:16.738Z</time>
      </trkpt>
      <trkpt lat="46.94444" lon="8.71432">
        <ele>1548</ele>
        <time>2021-08-06T11:31:17.738Z</time>
      </trkpt>
      <trkpt lat="46.94444" lon="8.71431">
        <ele>1549</ele>
        <time>2021-08-06T11:31:18.738Z</time>
      </trkpt>
      <trkpt lat="46.94443" lon="8.71431">
        <ele>1549</ele>
        <time>2021-08-06T11:31:19.738Z</time>
      </trkpt>
      <trkpt lat="46.94443" lon="8.7143">
        <ele>1550</ele>
        <time>2021-08-06T11:31:20.738Z</time>
      </trkpt>
      <trkpt lat="46.94443" lon="8.71429">
        <ele>1550</ele>
        <time>2021-08-06T11:31:21.738Z</time>
      </trkpt>
      <trkpt lat="46.94443" lon="8.71428">
        <ele>1551</ele>
        <time>2021-08-06T11:31:22.738Z</time>
      </trkpt>
      <trkpt lat="46.94443" lon="8.71428">
        <ele>1552</ele>
        <time>2021-08-06T11:31:23.737Z</time>
      </trkpt>
      <trkpt lat="46.94442" lon="8.71427">
        <ele>1552</ele>
        <time>2021-08-06T11:31:24.738Z</time>
      </trkpt>
      <trkpt lat="46.94442" lon="8.71426">
        <ele>1552</ele>
        <time>2021-08-06T11:31:25.738Z</time>
      </trkpt>
      <trkpt lat="46.94442" lon="8.71425">
        <ele>1553</ele>
        <time>2021-08-06T11:31:26.737Z</time>
      </trkpt>
      <trkpt lat="46.94442" lon="8.71424">
        <ele>1553</ele>
        <time>2021-08-06T11:31:27.738Z</time>
      </trkpt>
      <trkpt lat="46.94442" lon="8.71424">
        <ele>1553</ele>
        <time>2021-08-06T11:31:28.737Z</time>
      </trkpt>
      <trkpt lat="46.94441" lon="8.71423">
        <ele>1554</ele>
        <time>2021-08-06T11:31:29.738Z</time>
      </trkpt>
      <trkpt lat="46.94441" lon="8.71423">
        <ele>1554</ele>
        <time>2021-08-06T11:31:30.738Z</time>
      </trkpt>
      <trkpt lat="46.9444" lon="8.71423">
        <ele>1554</ele>
        <time>2021-08-06T11:31:31.737Z</time>
      </trkpt>
      <trkpt lat="46.9444" lon="8.71422">
        <ele>1554</ele>
        <time>2021-08-06T11:31:32.738Z</time>
      </trkpt>
      <trkpt lat="46.94439" lon="8.71422">
        <ele>1554</ele>
        <time>2021-08-06T11:31:33.738Z</time>
      </trkpt>
      <trkpt lat="46.94439" lon="8.7142">
        <ele>1554</ele>
        <time>2021-08-06T11:31:34.737Z</time>
      </trkpt>
      <trkpt lat="46.94438" lon="8.7142">
        <ele>1555</ele>
        <time>2021-08-06T11:31:35.738Z</time>
      </trkpt>
      <trkpt lat="46.94438" lon="8.71419">
        <ele>1555</ele>
        <time>2021-08-06T11:31:36.737Z</time>
      </trkpt>
      <trkpt lat="46.94438" lon="8.71418">
        <ele>1555</ele>
        <time>2021-08-06T11:31:37.737Z</time>
      </trkpt>
      <trkpt lat="46.94437" lon="8.71418">
        <ele>1555</ele>
        <time>2021-08-06T11:31:38.737Z</time>
      </trkpt>
      <trkpt lat="46.94436" lon="8.71417">
        <ele>1555</ele>
        <time>2021-08-06T11:31:39.738Z</time>
      </trkpt>
      <trkpt lat="46.94436" lon="8.71417">
        <ele>1555</ele>
        <time>2021-08-06T11:31:40.737Z</time>
      </trkpt>
      <trkpt lat="46.94436" lon="8.71416">
        <ele>1555</ele>
        <time>2021-08-06T11:31:41.738Z</time>
      </trkpt>
      <trkpt lat="46.94435" lon="8.71415">
        <ele>1556</ele>
        <time>2021-08-06T11:31:42.737Z</time>
      </trkpt>
      <trkpt lat="46.94435" lon="8.71414">
        <ele>1556</ele>
        <time>2021-08-06T11:31:43.737Z</time>
      </trkpt>
      <trkpt lat="46.94435" lon="8.71413">
        <ele>1556</ele>
        <time>2021-08-06T11:31:44.738Z</time>
      </trkpt>
      <trkpt lat="46.94435" lon="8.71412">
        <ele>1556</ele>
        <time>2021-08-06T11:31:45.737Z</time>
      </trkpt>
      <trkpt lat="46.94434" lon="8.71411">
        <ele>1557</ele>
        <time>2021-08-06T11:31:46.738Z</time>
      </trkpt>
      <trkpt lat="46.94434" lon="8.71411">
        <ele>1558</ele>
        <time>2021-08-06T11:31:47.737Z</time>
      </trkpt>
      <trkpt lat="46.94433" lon="8.71411">
        <ele>1558</ele>
        <time>2021-08-06T11:31:48.738Z</time>
      </trkpt>
      <trkpt lat="46.94433" lon="8.7141">
        <ele>1558</ele>
        <time>2021-08-06T11:31:49.738Z</time>
      </trkpt>
      <trkpt lat="46.94432" lon="8.7141">
        <ele>1559</ele>
        <time>2021-08-06T11:31:50.737Z</time>
      </trkpt>
      <trkpt lat="46.94432" lon="8.71411">
        <ele>1558</ele>
        <time>2021-08-06T11:31:51.737Z</time>
      </trkpt>
      <trkpt lat="46.94431" lon="8.7141">
        <ele>1558</ele>
        <time>2021-08-06T11:31:52.737Z</time>
      </trkpt>
      <trkpt lat="46.94431" lon="8.7141">
        <ele>1559</ele>
        <time>2021-08-06T11:31:53.737Z</time>
      </trkpt>
      <trkpt lat="46.94431" lon="8.71409">
        <ele>1559</ele>
        <time>2021-08-06T11:31:54.738Z</time>
      </trkpt>
      <trkpt lat="46.9443" lon="8.71409">
        <ele>1559</ele>
        <time>2021-08-06T11:31:55.738Z</time>
      </trkpt>
      <trkpt lat="46.9443" lon="8.71409">
        <ele>1559</ele>
        <time>2021-08-06T11:31:56.738Z</time>
      </trkpt>
      <trkpt lat="46.9443" lon="8.71409">
        <ele>1559</ele>
        <time>2021-08-06T11:31:57.738Z</time>
      </trkpt>
      <trkpt lat="46.9443" lon="8.71408">
        <ele>1559</ele>
        <time>2021-08-06T11:31:58.737Z</time>
      </trkpt>
      <trkpt lat="46.94429" lon="8.71408">
        <ele>1559</ele>
        <time>2021-08-06T11:31:59.738Z</time>
      </trkpt>
      <trkpt lat="46.94428" lon="8.71408">
        <ele>1559</ele>
        <time>2021-08-06T11:32:00.738Z</time>
      </trkpt>
      <trkpt lat="46.94428" lon="8.71408">
        <ele>1559</ele>
        <time>2021-08-06T11:32:01.738Z</time>
      </trkpt>
      <trkpt lat="46.94427" lon="8.71408">
        <ele>1559</ele>
        <time>2021-08-06T11:32:02.738Z</time>
      </trkpt>
      <trkpt lat="46.94426" lon="8.71407">
        <ele>1559</ele>
        <time>2021-08-06T11:32:03.738Z</time>
      </trkpt>
      <trkpt lat="46.94426" lon="8.71406">
        <ele>1559</ele>
        <time>2021-08-06T11:32:04.737Z</time>
      </trkpt>
      <trkpt lat="46.94426" lon="8.71406">
        <ele>1560</ele>
        <time>2021-08-06T11:32:05.737Z</time>
      </trkpt>
      <trkpt lat="46.94425" lon="8.71405">
        <ele>1560</ele>
        <time>2021-08-06T11:32:06.738Z</time>
      </trkpt>
      <trkpt lat="46.94425" lon="8.71403">
        <ele>1561</ele>
        <time>2021-08-06T11:32:07.737Z</time>
      </trkpt>
      <trkpt lat="46.94425" lon="8.71403">
        <ele>1561</ele>
        <time>2021-08-06T11:32:08.737Z</time>
      </trkpt>
      <trkpt lat="46.94425" lon="8.71403">
        <ele>1561</ele>
        <time>2021-08-06T11:32:09.737Z</time>
      </trkpt>
      <trkpt lat="46.94425" lon="8.71402">
        <ele>1561</ele>
        <time>2021-08-06T11:32:10.739Z</time>
      </trkpt>
      <trkpt lat="46.94424" lon="8.71402">
        <ele>1561</ele>
        <time>2021-08-06T11:32:11.738Z</time>
      </trkpt>
      <trkpt lat="46.94425" lon="8.71402">
        <ele>1561</ele>
        <time>2021-08-06T11:32:12.738Z</time>
      </trkpt>
      <trkpt lat="46.94425" lon="8.71401">
        <ele>1561</ele>
        <time>2021-08-06T11:32:13.739Z</time>
      </trkpt>
      <trkpt lat="46.94425" lon="8.714">
        <ele>1561</ele>
        <time>2021-08-06T11:32:14.738Z</time>
      </trkpt>
      <trkpt lat="46.94425" lon="8.71399">
        <ele>1561</ele>
        <time>2021-08-06T11:32:15.738Z</time>
      </trkpt>
      <trkpt lat="46.94425" lon="8.71398">
        <ele>1561</ele>
        <time>2021-08-06T11:32:16.738Z</time>
      </trkpt>
      <trkpt lat="46.94424" lon="8.71398">
        <ele>1562</ele>
        <time>2021-08-06T11:32:17.739Z</time>
      </trkpt>
      <trkpt lat="46.94424" lon="8.71397">
        <ele>1562</ele>
        <time>2021-08-06T11:32:18.739Z</time>
      </trkpt>
      <trkpt lat="46.94424" lon="8.71397">
        <ele>1562</ele>
        <time>2021-08-06T11:32:19.739Z</time>
      </trkpt>
      <trkpt lat="46.94424" lon="8.71396">
        <ele>1562</ele>
        <time>2021-08-06T11:32:20.739Z</time>
      </trkpt>
      <trkpt lat="46.94423" lon="8.71396">
        <ele>1563</ele>
        <time>2021-08-06T11:32:21.739Z</time>
      </trkpt>
      <trkpt lat="46.94423" lon="8.71395">
        <ele>1563</ele>
        <time>2021-08-06T11:32:22.739Z</time>
      </trkpt>
      <trkpt lat="46.94423" lon="8.71395">
        <ele>1563</ele>
        <time>2021-08-06T11:32:23.738Z</time>
      </trkpt>
      <trkpt lat="46.94423" lon="8.71394">
        <ele>1563</ele>
        <time>2021-08-06T11:32:24.738Z</time>
      </trkpt>
      <trkpt lat="46.94423" lon="8.71394">
        <ele>1563</ele>
        <time>2021-08-06T11:32:25.739Z</time>
      </trkpt>
      <trkpt lat="46.94423" lon="8.71393">
        <ele>1564</ele>
        <time>2021-08-06T11:32:26.738Z</time>
      </trkpt>
      <trkpt lat="46.94423" lon="8.71393">
        <ele>1564</ele>
        <time>2021-08-06T11:32:27.738Z</time>
      </trkpt>
      <trkpt lat="46.94424" lon="8.71392">
        <ele>1564</ele>
        <time>2021-08-06T11:32:28.739Z</time>
      </trkpt>
      <trkpt lat="46.94424" lon="8.71392">
        <ele>1565</ele>
        <time>2021-08-06T11:32:29.739Z</time>
      </trkpt>
      <trkpt lat="46.94424" lon="8.71391">
        <ele>1565</ele>
        <time>2021-08-06T11:32:30.739Z</time>
      </trkpt>
      <trkpt lat="46.94424" lon="8.7139">
        <ele>1565</ele>
        <time>2021-08-06T11:32:31.738Z</time>
      </trkpt>
      <trkpt lat="46.94423" lon="8.71389">
        <ele>1565</ele>
        <time>2021-08-06T11:32:32.739Z</time>
      </trkpt>
      <trkpt lat="46.94422" lon="8.71388">
        <ele>1565</ele>
        <time>2021-08-06T11:32:33.738Z</time>
      </trkpt>
      <trkpt lat="46.94422" lon="8.71388">
        <ele>1564</ele>
        <time>2021-08-06T11:32:34.739Z</time>
      </trkpt>
      <trkpt lat="46.94421" lon="8.71388">
        <ele>1564</ele>
        <time>2021-08-06T11:32:35.739Z</time>
      </trkpt>
      <trkpt lat="46.94421" lon="8.71388">
        <ele>1564</ele>
        <time>2021-08-06T11:32:36.739Z</time>
      </trkpt>
      <trkpt lat="46.94421" lon="8.71388">
        <ele>1563</ele>
        <time>2021-08-06T11:32:37.739Z</time>
      </trkpt>
      <trkpt lat="46.9442" lon="8.71388">
        <ele>1563</ele>
        <time>2021-08-06T11:32:38.740Z</time>
      </trkpt>
      <trkpt lat="46.94419" lon="8.71388">
        <ele>1563</ele>
        <time>2021-08-06T11:32:39.739Z</time>
      </trkpt>
      <trkpt lat="46.94418" lon="8.71389">
        <ele>1563</ele>
        <time>2021-08-06T11:32:40.740Z</time>
      </trkpt>
      <trkpt lat="46.94417" lon="8.71389">
        <ele>1562</ele>
        <time>2021-08-06T11:32:41.740Z</time>
      </trkpt>
      <trkpt lat="46.94417" lon="8.7139">
        <ele>1562</ele>
        <time>2021-08-06T11:32:42.740Z</time>
      </trkpt>
      <trkpt lat="46.94416" lon="8.71391">
        <ele>1562</ele>
        <time>2021-08-06T11:32:43.740Z</time>
      </trkpt>
      <trkpt lat="46.94416" lon="8.7139">
        <ele>1562</ele>
        <time>2021-08-06T11:32:44.740Z</time>
      </trkpt>
      <trkpt lat="46.94414" lon="8.71392">
        <ele>1561</ele>
        <time>2021-08-06T11:32:45.739Z</time>
      </trkpt>
      <trkpt lat="46.94413" lon="8.71393">
        <ele>1561</ele>
        <time>2021-08-06T11:32:46.739Z</time>
      </trkpt>
      <trkpt lat="46.94413" lon="8.71394">
        <ele>1561</ele>
        <time>2021-08-06T11:32:47.740Z</time>
      </trkpt>
      <trkpt lat="46.94412" lon="8.71393">
        <ele>1561</ele>
        <time>2021-08-06T11:32:48.739Z</time>
      </trkpt>
      <trkpt lat="46.94412" lon="8.71394">
        <ele>1561</ele>
        <time>2021-08-06T11:32:49.740Z</time>
      </trkpt>
      <trkpt lat="46.94411" lon="8.71394">
        <ele>1560</ele>
        <time>2021-08-06T11:32:50.740Z</time>
      </trkpt>
      <trkpt lat="46.94411" lon="8.71394">
        <ele>1560</ele>
        <time>2021-08-06T11:32:51.740Z</time>
      </trkpt>
      <trkpt lat="46.94411" lon="8.71395">
        <ele>1560</ele>
        <time>2021-08-06T11:32:52.740Z</time>
      </trkpt>
      <trkpt lat="46.94411" lon="8.71395">
        <ele>1560</ele>
        <time>2021-08-06T11:32:53.740Z</time>
      </trkpt>
      <trkpt lat="46.9441" lon="8.71394">
        <ele>1559</ele>
        <time>2021-08-06T11:32:54.740Z</time>
      </trkpt>
      <trkpt lat="46.94409" lon="8.71393">
        <ele>1559</ele>
        <time>2021-08-06T11:32:55.740Z</time>
      </trkpt>
      <trkpt lat="46.94409" lon="8.71393">
        <ele>1559</ele>
        <time>2021-08-06T11:32:56.740Z</time>
      </trkpt>
      <trkpt lat="46.94408" lon="8.71392">
        <ele>1559</ele>
        <time>2021-08-06T11:32:57.740Z</time>
      </trkpt>
      <trkpt lat="46.94408" lon="8.71391">
        <ele>1559</ele>
        <time>2021-08-06T11:32:58.739Z</time>
      </trkpt>
      <trkpt lat="46.94408" lon="8.71391">
        <ele>1559</ele>
        <time>2021-08-06T11:32:59.739Z</time>
      </trkpt>
      <trkpt lat="46.94409" lon="8.7139">
        <ele>1559</ele>
        <time>2021-08-06T11:33:00.739Z</time>
      </trkpt>
      <trkpt lat="46.94409" lon="8.7139">
        <ele>1559</ele>
        <time>2021-08-06T11:33:01.740Z</time>
      </trkpt>
      <trkpt lat="46.9441" lon="8.71391">
        <ele>1559</ele>
        <time>2021-08-06T11:33:02.740Z</time>
      </trkpt>
      <trkpt lat="46.94411" lon="8.71391">
        <ele>1559</ele>
        <time>2021-08-06T11:33:03.739Z</time>
      </trkpt>
      <trkpt lat="46.94412" lon="8.71389">
        <ele>1559</ele>
        <time>2021-08-06T11:33:04.740Z</time>
      </trkpt>
      <trkpt lat="46.94413" lon="8.71389">
        <ele>1559</ele>
        <time>2021-08-06T11:33:05.740Z</time>
      </trkpt>
      <trkpt lat="46.94413" lon="8.71389">
        <ele>1559</ele>
        <time>2021-08-06T11:33:06.740Z</time>
      </trkpt>
      <trkpt lat="46.94411" lon="8.7139">
        <ele>1561</ele>
        <time>2021-08-06T11:33:07.741Z</time>
      </trkpt>
      <trkpt lat="46.94411" lon="8.7139">
        <ele>1561</ele>
        <time>2021-08-06T11:33:08.740Z</time>
      </trkpt>
      <trkpt lat="46.94411" lon="8.7139">
        <ele>1562</ele>
        <time>2021-08-06T11:33:09.741Z</time>
      </trkpt>
      <trkpt lat="46.9441" lon="8.71389">
        <ele>1562</ele>
        <time>2021-08-06T11:33:10.741Z</time>
      </trkpt>
      <trkpt lat="46.9441" lon="8.71389">
        <ele>1562</ele>
        <time>2021-08-06T11:33:11.741Z</time>
      </trkpt>
      <trkpt lat="46.9441" lon="8.71389">
        <ele>1562</ele>
        <time>2021-08-06T11:33:12.740Z</time>
      </trkpt>
      <trkpt lat="46.9441" lon="8.71389">
        <ele>1562</ele>
        <time>2021-08-06T11:33:13.741Z</time>
      </trkpt>
      <trkpt lat="46.9441" lon="8.71389">
        <ele>1562</ele>
        <time>2021-08-06T11:33:14.741Z</time>
      </trkpt>
      <trkpt lat="46.9441" lon="8.71388">
        <ele>1562</ele>
        <time>2021-08-06T11:33:15.740Z</time>
      </trkpt>
      <trkpt lat="46.9441" lon="8.71392">
        <ele>1565</ele>
        <time>2021-08-06T11:33:16.741Z</time>
      </trkpt>
      <trkpt lat="46.9441" lon="8.71393">
        <ele>1566</ele>
        <time>2021-08-06T11:33:17.742Z</time>
      </trkpt>
      <trkpt lat="46.9441" lon="8.71393">
        <ele>1566</ele>
        <time>2021-08-06T11:33:18.742Z</time>
      </trkpt>
      <trkpt lat="46.9441" lon="8.71393">
        <ele>1565</ele>
        <time>2021-08-06T11:33:19.742Z</time>
      </trkpt>
      <trkpt lat="46.94413" lon="8.71391">
        <ele>1563</ele>
        <time>2021-08-06T11:33:20.743Z</time>
      </trkpt>
      <trkpt lat="46.94414" lon="8.7139">
        <ele>1564</ele>
        <time>2021-08-06T11:33:21.742Z</time>
      </trkpt>
      <trkpt lat="46.94415" lon="8.71389">
        <ele>1564</ele>
        <time>2021-08-06T11:33:22.742Z</time>
      </trkpt>
      <trkpt lat="46.94415" lon="8.71388">
        <ele>1564</ele>
        <time>2021-08-06T11:33:23.742Z</time>
      </trkpt>
      <trkpt lat="46.94414" lon="8.71388">
        <ele>1564</ele>
        <time>2021-08-06T11:33:24.743Z</time>
      </trkpt>
      <trkpt lat="46.94414" lon="8.71388">
        <ele>1564</ele>
        <time>2021-08-06T11:33:25.742Z</time>
      </trkpt>
      <trkpt lat="46.94414" lon="8.71388">
        <ele>1564</ele>
        <time>2021-08-06T11:33:26.742Z</time>
      </trkpt>
      <trkpt lat="46.94414" lon="8.71386">
        <ele>1564</ele>
        <time>2021-08-06T11:33:27.742Z</time>
      </trkpt>
      <trkpt lat="46.94414" lon="8.71386">
        <ele>1563</ele>
        <time>2021-08-06T11:33:28.742Z</time>
      </trkpt>
      <trkpt lat="46.94415" lon="8.71386">
        <ele>1563</ele>
        <time>2021-08-06T11:33:29.743Z</time>
      </trkpt>
      <trkpt lat="46.94416" lon="8.71386">
        <ele>1563</ele>
        <time>2021-08-06T11:33:30.743Z</time>
      </trkpt>
      <trkpt lat="46.94416" lon="8.71384">
        <ele>1563</ele>
        <time>2021-08-06T11:33:31.743Z</time>
      </trkpt>
      <trkpt lat="46.94416" lon="8.71383">
        <ele>1563</ele>
        <time>2021-08-06T11:33:32.742Z</time>
      </trkpt>
      <trkpt lat="46.94415" lon="8.71382">
        <ele>1563</ele>
        <time>2021-08-06T11:33:33.742Z</time>
      </trkpt>
      <trkpt lat="46.94415" lon="8.71382">
        <ele>1563</ele>
        <time>2021-08-06T11:33:34.742Z</time>
      </trkpt>
      <trkpt lat="46.94414" lon="8.71381">
        <ele>1563</ele>
        <time>2021-08-06T11:33:35.742Z</time>
      </trkpt>
      <trkpt lat="46.94414" lon="8.7138">
        <ele>1563</ele>
        <time>2021-08-06T11:33:36.743Z</time>
      </trkpt>
      <trkpt lat="46.94414" lon="8.7138">
        <ele>1563</ele>
        <time>2021-08-06T11:33:37.743Z</time>
      </trkpt>
      <trkpt lat="46.94413" lon="8.71379">
        <ele>1562</ele>
        <time>2021-08-06T11:33:38.742Z</time>
      </trkpt>
      <trkpt lat="46.94413" lon="8.71378">
        <ele>1562</ele>
        <time>2021-08-06T11:33:39.742Z</time>
      </trkpt>
      <trkpt lat="46.94413" lon="8.71377">
        <ele>1563</ele>
        <time>2021-08-06T11:33:40.742Z</time>
      </trkpt>
      <trkpt lat="46.94412" lon="8.71377">
        <ele>1563</ele>
        <time>2021-08-06T11:33:41.743Z</time>
      </trkpt>
      <trkpt lat="46.94412" lon="8.71376">
        <ele>1563</ele>
        <time>2021-08-06T11:33:42.742Z</time>
      </trkpt>
      <trkpt lat="46.94412" lon="8.71376">
        <ele>1563</ele>
        <time>2021-08-06T11:33:43.742Z</time>
      </trkpt>
      <trkpt lat="46.94411" lon="8.71375">
        <ele>1563</ele>
        <time>2021-08-06T11:33:44.742Z</time>
      </trkpt>
      <trkpt lat="46.94411" lon="8.71375">
        <ele>1563</ele>
        <time>2021-08-06T11:33:45.743Z</time>
      </trkpt>
      <trkpt lat="46.9441" lon="8.71375">
        <ele>1563</ele>
        <time>2021-08-06T11:33:46.743Z</time>
      </trkpt>
      <trkpt lat="46.94408" lon="8.71375">
        <ele>1563</ele>
        <time>2021-08-06T11:33:47.743Z</time>
      </trkpt>
      <trkpt lat="46.94407" lon="8.71376">
        <ele>1563</ele>
        <time>2021-08-06T11:33:48.742Z</time>
      </trkpt>
      <trkpt lat="46.94407" lon="8.71375">
        <ele>1563</ele>
        <time>2021-08-06T11:33:49.742Z</time>
      </trkpt>
      <trkpt lat="46.94408" lon="8.71374">
        <ele>1564</ele>
        <time>2021-08-06T11:33:50.742Z</time>
      </trkpt>
      <trkpt lat="46.94408" lon="8.71374">
        <ele>1564</ele>
        <time>2021-08-06T11:33:51.742Z</time>
      </trkpt>
      <trkpt lat="46.94408" lon="8.71373">
        <ele>1564</ele>
        <time>2021-08-06T11:33:52.742Z</time>
      </trkpt>
      <trkpt lat="46.94409" lon="8.71372">
        <ele>1564</ele>
        <time>2021-08-06T11:33:53.742Z</time>
      </trkpt>
      <trkpt lat="46.9441" lon="8.71372">
        <ele>1564</ele>
        <time>2021-08-06T11:33:54.743Z</time>
      </trkpt>
      <trkpt lat="46.9441" lon="8.71371">
        <ele>1564</ele>
        <time>2021-08-06T11:33:55.743Z</time>
      </trkpt>
      <trkpt lat="46.9441" lon="8.71371">
        <ele>1564</ele>
        <time>2021-08-06T11:33:56.743Z</time>
      </trkpt>
      <trkpt lat="46.94411" lon="8.7137">
        <ele>1565</ele>
        <time>2021-08-06T11:33:57.742Z</time>
      </trkpt>
      <trkpt lat="46.94411" lon="8.7137">
        <ele>1565</ele>
        <time>2021-08-06T11:33:58.743Z</time>
      </trkpt>
      <trkpt lat="46.94412" lon="8.71369">
        <ele>1566</ele>
        <time>2021-08-06T11:33:59.743Z</time>
      </trkpt>
      <trkpt lat="46.94412" lon="8.71368">
        <ele>1566</ele>
        <time>2021-08-06T11:34:00.743Z</time>
      </trkpt>
      <trkpt lat="46.94412" lon="8.71368">
        <ele>1567</ele>
        <time>2021-08-06T11:34:01.743Z</time>
      </trkpt>
      <trkpt lat="46.94412" lon="8.71367">
        <ele>1568</ele>
        <time>2021-08-06T11:34:02.743Z</time>
      </trkpt>
      <trkpt lat="46.94413" lon="8.71366">
        <ele>1568</ele>
        <time>2021-08-06T11:34:03.743Z</time>
      </trkpt>
      <trkpt lat="46.94414" lon="8.71365">
        <ele>1569</ele>
        <time>2021-08-06T11:34:04.743Z</time>
      </trkpt>
      <trkpt lat="46.94414" lon="8.71365">
        <ele>1569</ele>
        <time>2021-08-06T11:34:05.742Z</time>
      </trkpt>
      <trkpt lat="46.94414" lon="8.71364">
        <ele>1569</ele>
        <time>2021-08-06T11:34:06.743Z</time>
      </trkpt>
      <trkpt lat="46.94415" lon="8.71363">
        <ele>1569</ele>
        <time>2021-08-06T11:34:07.742Z</time>
      </trkpt>
      <trkpt lat="46.94415" lon="8.71362">
        <ele>1570</ele>
        <time>2021-08-06T11:34:08.742Z</time>
      </trkpt>
      <trkpt lat="46.94415" lon="8.71361">
        <ele>1570</ele>
        <time>2021-08-06T11:34:09.743Z</time>
      </trkpt>
      <trkpt lat="46.94415" lon="8.71361">
        <ele>1571</ele>
        <time>2021-08-06T11:34:10.743Z</time>
      </trkpt>
      <trkpt lat="46.94414" lon="8.7136">
        <ele>1572</ele>
        <time>2021-08-06T11:34:11.742Z</time>
      </trkpt>
      <trkpt lat="46.94414" lon="8.7136">
        <ele>1573</ele>
        <time>2021-08-06T11:34:12.742Z</time>
      </trkpt>
      <trkpt lat="46.94415" lon="8.71358">
        <ele>1573</ele>
        <time>2021-08-06T11:34:13.742Z</time>
      </trkpt>
      <trkpt lat="46.94415" lon="8.71355">
        <ele>1574</ele>
        <time>2021-08-06T11:34:14.743Z</time>
      </trkpt>
      <trkpt lat="46.94416" lon="8.71353">
        <ele>1575</ele>
        <time>2021-08-06T11:34:15.742Z</time>
      </trkpt>
      <trkpt lat="46.94416" lon="8.71352">
        <ele>1575</ele>
        <time>2021-08-06T11:34:16.743Z</time>
      </trkpt>
      <trkpt lat="46.94417" lon="8.71352">
        <ele>1576</ele>
        <time>2021-08-06T11:34:17.743Z</time>
      </trkpt>
      <trkpt lat="46.94417" lon="8.71351">
        <ele>1577</ele>
        <time>2021-08-06T11:34:18.743Z</time>
      </trkpt>
      <trkpt lat="46.94417" lon="8.7135">
        <ele>1578</ele>
        <time>2021-08-06T11:34:19.742Z</time>
      </trkpt>
      <trkpt lat="46.94417" lon="8.7135">
        <ele>1579</ele>
        <time>2021-08-06T11:34:20.742Z</time>
      </trkpt>
      <trkpt lat="46.94417" lon="8.7135">
        <ele>1579</ele>
        <time>2021-08-06T11:34:21.743Z</time>
      </trkpt>
      <trkpt lat="46.94417" lon="8.71349">
        <ele>1580</ele>
        <time>2021-08-06T11:34:22.742Z</time>
      </trkpt>
      <trkpt lat="46.94416" lon="8.71348">
        <ele>1580</ele>
        <time>2021-08-06T11:34:23.743Z</time>
      </trkpt>
      <trkpt lat="46.94416" lon="8.71346">
        <ele>1581</ele>
        <time>2021-08-06T11:34:24.743Z</time>
      </trkpt>
      <trkpt lat="46.94416" lon="8.71345">
        <ele>1581</ele>
        <time>2021-08-06T11:34:25.742Z</time>
      </trkpt>
      <trkpt lat="46.94416" lon="8.71344">
        <ele>1581</ele>
        <time>2021-08-06T11:34:26.743Z</time>
      </trkpt>
      <trkpt lat="46.94415" lon="8.71342">
        <ele>1581</ele>
        <time>2021-08-06T11:34:27.743Z</time>
      </trkpt>
      <trkpt lat="46.94415" lon="8.71341">
        <ele>1581</ele>
        <time>2021-08-06T11:34:28.743Z</time>
      </trkpt>
      <trkpt lat="46.94415" lon="8.7134">
        <ele>1581</ele>
        <time>2021-08-06T11:34:29.743Z</time>
      </trkpt>
      <trkpt lat="46.94416" lon="8.71339">
        <ele>1581</ele>
        <time>2021-08-06T11:34:30.742Z</time>
      </trkpt>
      <trkpt lat="46.94416" lon="8.71338">
        <ele>1581</ele>
        <time>2021-08-06T11:34:31.742Z</time>
      </trkpt>
      <trkpt lat="46.94416" lon="8.71336">
        <ele>1581</ele>
        <time>2021-08-06T11:34:32.742Z</time>
      </trkpt>
      <trkpt lat="46.94416" lon="8.71335">
        <ele>1581</ele>
        <time>2021-08-06T11:34:33.742Z</time>
      </trkpt>
      <trkpt lat="46.94416" lon="8.71333">
        <ele>1581</ele>
        <time>2021-08-06T11:34:34.742Z</time>
      </trkpt>
      <trkpt lat="46.94416" lon="8.71332">
        <ele>1581</ele>
        <time>2021-08-06T11:34:35.742Z</time>
      </trkpt>
      <trkpt lat="46.94415" lon="8.7133">
        <ele>1581</ele>
        <time>2021-08-06T11:34:36.742Z</time>
      </trkpt>
      <trkpt lat="46.94414" lon="8.71329">
        <ele>1581</ele>
        <time>2021-08-06T11:34:37.742Z</time>
      </trkpt>
      <trkpt lat="46.94413" lon="8.71328">
        <ele>1581</ele>
        <time>2021-08-06T11:34:38.742Z</time>
      </trkpt>
      <trkpt lat="46.94413" lon="8.71327">
        <ele>1581</ele>
        <time>2021-08-06T11:34:39.742Z</time>
      </trkpt>
      <trkpt lat="46.94413" lon="8.71326">
        <ele>1580</ele>
        <time>2021-08-06T11:34:40.742Z</time>
      </trkpt>
      <trkpt lat="46.94414" lon="8.71324">
        <ele>1580</ele>
        <time>2021-08-06T11:34:41.742Z</time>
      </trkpt>
      <trkpt lat="46.94414" lon="8.71323">
        <ele>1580</ele>
        <time>2021-08-06T11:34:42.743Z</time>
      </trkpt>
      <trkpt lat="46.94414" lon="8.71322">
        <ele>1580</ele>
        <time>2021-08-06T11:34:43.742Z</time>
      </trkpt>
      <trkpt lat="46.94414" lon="8.71322">
        <ele>1580</ele>
        <time>2021-08-06T11:34:44.743Z</time>
      </trkpt>
      <trkpt lat="46.94414" lon="8.71321">
        <ele>1580</ele>
        <time>2021-08-06T11:34:45.743Z</time>
      </trkpt>
      <trkpt lat="46.94414" lon="8.7132">
        <ele>1580</ele>
        <time>2021-08-06T11:34:46.742Z</time>
      </trkpt>
      <trkpt lat="46.94414" lon="8.71319">
        <ele>1579</ele>
        <time>2021-08-06T11:34:47.742Z</time>
      </trkpt>
      <trkpt lat="46.94415" lon="8.71319">
        <ele>1579</ele>
        <time>2021-08-06T11:34:48.743Z</time>
      </trkpt>
      <trkpt lat="46.94415" lon="8.71318">
        <ele>1579</ele>
        <time>2021-08-06T11:34:49.742Z</time>
      </trkpt>
      <trkpt lat="46.94415" lon="8.71317">
        <ele>1579</ele>
        <time>2021-08-06T11:34:50.743Z</time>
      </trkpt>
      <trkpt lat="46.94415" lon="8.71316">
        <ele>1579</ele>
        <time>2021-08-06T11:34:51.742Z</time>
      </trkpt>
      <trkpt lat="46.94415" lon="8.71316">
        <ele>1579</ele>
        <time>2021-08-06T11:34:52.742Z</time>
      </trkpt>
      <trkpt lat="46.94415" lon="8.71315">
        <ele>1579</ele>
        <time>2021-08-06T11:34:53.742Z</time>
      </trkpt>
      <trkpt lat="46.94415" lon="8.71314">
        <ele>1579</ele>
        <time>2021-08-06T11:34:54.743Z</time>
      </trkpt>
      <trkpt lat="46.94415" lon="8.71314">
        <ele>1579</ele>
        <time>2021-08-06T11:34:55.743Z</time>
      </trkpt>
      <trkpt lat="46.94414" lon="8.71313">
        <ele>1578</ele>
        <time>2021-08-06T11:34:56.742Z</time>
      </trkpt>
      <trkpt lat="46.94413" lon="8.71312">
        <ele>1578</ele>
        <time>2021-08-06T11:34:57.742Z</time>
      </trkpt>
      <trkpt lat="46.94413" lon="8.71312">
        <ele>1578</ele>
        <time>2021-08-06T11:34:58.742Z</time>
      </trkpt>
      <trkpt lat="46.94412" lon="8.71311">
        <ele>1577</ele>
        <time>2021-08-06T11:34:59.742Z</time>
      </trkpt>
      <trkpt lat="46.94412" lon="8.71311">
        <ele>1577</ele>
        <time>2021-08-06T11:35:00.742Z</time>
      </trkpt>
      <trkpt lat="46.94412" lon="8.71311">
        <ele>1577</ele>
        <time>2021-08-06T11:35:01.742Z</time>
      </trkpt>
      <trkpt lat="46.94412" lon="8.71308">
        <ele>1576</ele>
        <time>2021-08-06T11:35:02.742Z</time>
      </trkpt>
      <trkpt lat="46.94412" lon="8.71307">
        <ele>1576</ele>
        <time>2021-08-06T11:35:03.743Z</time>
      </trkpt>
      <trkpt lat="46.94412" lon="8.71305">
        <ele>1575</ele>
        <time>2021-08-06T11:35:04.742Z</time>
      </trkpt>
      <trkpt lat="46.94412" lon="8.71304">
        <ele>1575</ele>
        <time>2021-08-06T11:35:05.743Z</time>
      </trkpt>
      <trkpt lat="46.94412" lon="8.71303">
        <ele>1575</ele>
        <time>2021-08-06T11:35:06.742Z</time>
      </trkpt>
      <trkpt lat="46.94411" lon="8.71302">
        <ele>1574</ele>
        <time>2021-08-06T11:35:07.743Z</time>
      </trkpt>
      <trkpt lat="46.94411" lon="8.71301">
        <ele>1574</ele>
        <time>2021-08-06T11:35:08.742Z</time>
      </trkpt>
      <trkpt lat="46.94411" lon="8.71299">
        <ele>1575</ele>
        <time>2021-08-06T11:35:09.743Z</time>
      </trkpt>
      <trkpt lat="46.94411" lon="8.71298">
        <ele>1574</ele>
        <time>2021-08-06T11:35:10.743Z</time>
      </trkpt>
      <trkpt lat="46.94412" lon="8.71296">
        <ele>1574</ele>
        <time>2021-08-06T11:35:11.743Z</time>
      </trkpt>
      <trkpt lat="46.94412" lon="8.71295">
        <ele>1574</ele>
        <time>2021-08-06T11:35:12.742Z</time>
      </trkpt>
      <trkpt lat="46.94411" lon="8.71293">
        <ele>1574</ele>
        <time>2021-08-06T11:35:13.743Z</time>
      </trkpt>
      <trkpt lat="46.94411" lon="8.71292">
        <ele>1574</ele>
        <time>2021-08-06T11:35:14.742Z</time>
      </trkpt>
      <trkpt lat="46.94411" lon="8.7129">
        <ele>1574</ele>
        <time>2021-08-06T11:35:15.742Z</time>
      </trkpt>
      <trkpt lat="46.9441" lon="8.71288">
        <ele>1574</ele>
        <time>2021-08-06T11:35:16.742Z</time>
      </trkpt>
      <trkpt lat="46.94409" lon="8.71287">
        <ele>1574</ele>
        <time>2021-08-06T11:35:17.743Z</time>
      </trkpt>
      <trkpt lat="46.94409" lon="8.71285">
        <ele>1574</ele>
        <time>2021-08-06T11:35:18.742Z</time>
      </trkpt>
      <trkpt lat="46.94408" lon="8.71283">
        <ele>1575</ele>
        <time>2021-08-06T11:35:19.742Z</time>
      </trkpt>
      <trkpt lat="46.94408" lon="8.71282">
        <ele>1574</ele>
        <time>2021-08-06T11:35:20.742Z</time>
      </trkpt>
      <trkpt lat="46.94408" lon="8.71281">
        <ele>1574</ele>
        <time>2021-08-06T11:35:21.742Z</time>
      </trkpt>
      <trkpt lat="46.94408" lon="8.7128">
        <ele>1574</ele>
        <time>2021-08-06T11:35:22.742Z</time>
      </trkpt>
      <trkpt lat="46.94408" lon="8.71279">
        <ele>1573</ele>
        <time>2021-08-06T11:35:23.742Z</time>
      </trkpt>
      <trkpt lat="46.94407" lon="8.71278">
        <ele>1573</ele>
        <time>2021-08-06T11:35:24.743Z</time>
      </trkpt>
      <trkpt lat="46.94407" lon="8.71278">
        <ele>1573</ele>
        <time>2021-08-06T11:35:25.742Z</time>
      </trkpt>
      <trkpt lat="46.94407" lon="8.71277">
        <ele>1573</ele>
        <time>2021-08-06T11:35:26.743Z</time>
      </trkpt>
      <trkpt lat="46.94407" lon="8.71275">
        <ele>1572</ele>
        <time>2021-08-06T11:35:27.742Z</time>
      </trkpt>
      <trkpt lat="46.94406" lon="8.71274">
        <ele>1572</ele>
        <time>2021-08-06T11:35:28.743Z</time>
      </trkpt>
      <trkpt lat="46.94406" lon="8.71272">
        <ele>1572</ele>
        <time>2021-08-06T11:35:29.743Z</time>
      </trkpt>
      <trkpt lat="46.94406" lon="8.71271">
        <ele>1572</ele>
        <time>2021-08-06T11:35:30.743Z</time>
      </trkpt>
      <trkpt lat="46.94406" lon="8.7127">
        <ele>1572</ele>
        <time>2021-08-06T11:35:31.742Z</time>
      </trkpt>
      <trkpt lat="46.94405" lon="8.7127">
        <ele>1572</ele>
        <time>2021-08-06T11:35:32.742Z</time>
      </trkpt>
      <trkpt lat="46.94405" lon="8.71269">
        <ele>1571</ele>
        <time>2021-08-06T11:35:33.743Z</time>
      </trkpt>
      <trkpt lat="46.94404" lon="8.71268">
        <ele>1571</ele>
        <time>2021-08-06T11:35:34.743Z</time>
      </trkpt>
      <trkpt lat="46.94403" lon="8.71267">
        <ele>1571</ele>
        <time>2021-08-06T11:35:35.742Z</time>
      </trkpt>
      <trkpt lat="46.94403" lon="8.71266">
        <ele>1571</ele>
        <time>2021-08-06T11:35:36.743Z</time>
      </trkpt>
      <trkpt lat="46.94403" lon="8.71264">
        <ele>1571</ele>
        <time>2021-08-06T11:35:37.742Z</time>
      </trkpt>
      <trkpt lat="46.94404" lon="8.71262">
        <ele>1570</ele>
        <time>2021-08-06T11:35:38.742Z</time>
      </trkpt>
      <trkpt lat="46.94404" lon="8.71261">
        <ele>1570</ele>
        <time>2021-08-06T11:35:39.742Z</time>
      </trkpt>
      <trkpt lat="46.94404" lon="8.71259">
        <ele>1569</ele>
        <time>2021-08-06T11:35:40.743Z</time>
      </trkpt>
      <trkpt lat="46.94404" lon="8.71258">
        <ele>1569</ele>
        <time>2021-08-06T11:35:41.743Z</time>
      </trkpt>
      <trkpt lat="46.94404" lon="8.71256">
        <ele>1569</ele>
        <time>2021-08-06T11:35:42.742Z</time>
      </trkpt>
      <trkpt lat="46.94403" lon="8.71254">
        <ele>1569</ele>
        <time>2021-08-06T11:35:43.742Z</time>
      </trkpt>
      <trkpt lat="46.94402" lon="8.71252">
        <ele>1569</ele>
        <time>2021-08-06T11:35:44.742Z</time>
      </trkpt>
      <trkpt lat="46.94402" lon="8.7125">
        <ele>1568</ele>
        <time>2021-08-06T11:35:45.742Z</time>
      </trkpt>
      <trkpt lat="46.94402" lon="8.71248">
        <ele>1568</ele>
        <time>2021-08-06T11:35:46.742Z</time>
      </trkpt>
      <trkpt lat="46.94402" lon="8.71246">
        <ele>1567</ele>
        <time>2021-08-06T11:35:47.742Z</time>
      </trkpt>
      <trkpt lat="46.94401" lon="8.71245">
        <ele>1567</ele>
        <time>2021-08-06T11:35:48.742Z</time>
      </trkpt>
      <trkpt lat="46.94401" lon="8.71243">
        <ele>1566</ele>
        <time>2021-08-06T11:35:49.743Z</time>
      </trkpt>
      <trkpt lat="46.94401" lon="8.71242">
        <ele>1565</ele>
        <time>2021-08-06T11:35:50.742Z</time>
      </trkpt>
      <trkpt lat="46.944" lon="8.7124">
        <ele>1565</ele>
        <time>2021-08-06T11:35:51.742Z</time>
      </trkpt>
      <trkpt lat="46.944" lon="8.71239">
        <ele>1564</ele>
        <time>2021-08-06T11:35:52.742Z</time>
      </trkpt>
      <trkpt lat="46.944" lon="8.71238">
        <ele>1564</ele>
        <time>2021-08-06T11:35:53.743Z</time>
      </trkpt>
      <trkpt lat="46.94399" lon="8.71237">
        <ele>1564</ele>
        <time>2021-08-06T11:35:54.743Z</time>
      </trkpt>
      <trkpt lat="46.94399" lon="8.71235">
        <ele>1563</ele>
        <time>2021-08-06T11:35:55.742Z</time>
      </trkpt>
      <trkpt lat="46.94399" lon="8.71233">
        <ele>1563</ele>
        <time>2021-08-06T11:35:56.742Z</time>
      </trkpt>
      <trkpt lat="46.94399" lon="8.71232">
        <ele>1563</ele>
        <time>2021-08-06T11:35:57.742Z</time>
      </trkpt>
      <trkpt lat="46.94399" lon="8.7123">
        <ele>1563</ele>
        <time>2021-08-06T11:35:58.742Z</time>
      </trkpt>
      <trkpt lat="46.94399" lon="8.71228">
        <ele>1562</ele>
        <time>2021-08-06T11:35:59.743Z</time>
      </trkpt>
      <trkpt lat="46.94399" lon="8.71227">
        <ele>1562</ele>
        <time>2021-08-06T11:36:00.742Z</time>
      </trkpt>
      <trkpt lat="46.94399" lon="8.71226">
        <ele>1562</ele>
        <time>2021-08-06T11:36:01.743Z</time>
      </trkpt>
      <trkpt lat="46.94399" lon="8.71224">
        <ele>1563</ele>
        <time>2021-08-06T11:36:02.742Z</time>
      </trkpt>
      <trkpt lat="46.94399" lon="8.71223">
        <ele>1563</ele>
        <time>2021-08-06T11:36:03.742Z</time>
      </trkpt>
      <trkpt lat="46.94398" lon="8.71222">
        <ele>1563</ele>
        <time>2021-08-06T11:36:04.742Z</time>
      </trkpt>
      <trkpt lat="46.94398" lon="8.7122">
        <ele>1563</ele>
        <time>2021-08-06T11:36:05.742Z</time>
      </trkpt>
      <trkpt lat="46.94398" lon="8.71219">
        <ele>1563</ele>
        <time>2021-08-06T11:36:06.742Z</time>
      </trkpt>
      <trkpt lat="46.94397" lon="8.71218">
        <ele>1563</ele>
        <time>2021-08-06T11:36:07.743Z</time>
      </trkpt>
      <trkpt lat="46.94397" lon="8.71217">
        <ele>1564</ele>
        <time>2021-08-06T11:36:08.742Z</time>
      </trkpt>
      <trkpt lat="46.94398" lon="8.71216">
        <ele>1564</ele>
        <time>2021-08-06T11:36:09.742Z</time>
      </trkpt>
      <trkpt lat="46.94398" lon="8.71214">
        <ele>1564</ele>
        <time>2021-08-06T11:36:10.742Z</time>
      </trkpt>
      <trkpt lat="46.94398" lon="8.71213">
        <ele>1563</ele>
        <time>2021-08-06T11:36:11.743Z</time>
      </trkpt>
      <trkpt lat="46.94397" lon="8.71211">
        <ele>1563</ele>
        <time>2021-08-06T11:36:12.742Z</time>
      </trkpt>
      <trkpt lat="46.94397" lon="8.7121">
        <ele>1562</ele>
        <time>2021-08-06T11:36:13.742Z</time>
      </trkpt>
      <trkpt lat="46.94397" lon="8.71208">
        <ele>1562</ele>
        <time>2021-08-06T11:36:14.743Z</time>
      </trkpt>
      <trkpt lat="46.94397" lon="8.71207">
        <ele>1562</ele>
        <time>2021-08-06T11:36:15.742Z</time>
      </trkpt>
      <trkpt lat="46.94396" lon="8.71205">
        <ele>1562</ele>
        <time>2021-08-06T11:36:16.743Z</time>
      </trkpt>
      <trkpt lat="46.94396" lon="8.71204">
        <ele>1562</ele>
        <time>2021-08-06T11:36:17.742Z</time>
      </trkpt>
      <trkpt lat="46.94396" lon="8.71202">
        <ele>1563</ele>
        <time>2021-08-06T11:36:18.742Z</time>
      </trkpt>
      <trkpt lat="46.94395" lon="8.71201">
        <ele>1563</ele>
        <time>2021-08-06T11:36:19.743Z</time>
      </trkpt>
      <trkpt lat="46.94395" lon="8.712">
        <ele>1563</ele>
        <time>2021-08-06T11:36:20.742Z</time>
      </trkpt>
      <trkpt lat="46.94395" lon="8.71199">
        <ele>1564</ele>
        <time>2021-08-06T11:36:21.742Z</time>
      </trkpt>
      <trkpt lat="46.94395" lon="8.71196">
        <ele>1564</ele>
        <time>2021-08-06T11:36:22.742Z</time>
      </trkpt>
      <trkpt lat="46.94395" lon="8.71195">
        <ele>1564</ele>
        <time>2021-08-06T11:36:23.743Z</time>
      </trkpt>
      <trkpt lat="46.94394" lon="8.71195">
        <ele>1564</ele>
        <time>2021-08-06T11:36:24.743Z</time>
      </trkpt>
      <trkpt lat="46.94394" lon="8.71194">
        <ele>1564</ele>
        <time>2021-08-06T11:36:25.742Z</time>
      </trkpt>
      <trkpt lat="46.94393" lon="8.71193">
        <ele>1564</ele>
        <time>2021-08-06T11:36:26.743Z</time>
      </trkpt>
      <trkpt lat="46.94393" lon="8.71193">
        <ele>1564</ele>
        <time>2021-08-06T11:36:27.742Z</time>
      </trkpt>
      <trkpt lat="46.94392" lon="8.71192">
        <ele>1563</ele>
        <time>2021-08-06T11:36:28.742Z</time>
      </trkpt>
      <trkpt lat="46.94392" lon="8.71191">
        <ele>1563</ele>
        <time>2021-08-06T11:36:29.742Z</time>
      </trkpt>
      <trkpt lat="46.94392" lon="8.71191">
        <ele>1563</ele>
        <time>2021-08-06T11:36:30.742Z</time>
      </trkpt>
      <trkpt lat="46.94392" lon="8.7119">
        <ele>1563</ele>
        <time>2021-08-06T11:36:31.742Z</time>
      </trkpt>
      <trkpt lat="46.94392" lon="8.71189">
        <ele>1563</ele>
        <time>2021-08-06T11:36:33.837Z</time>
      </trkpt>
      <trkpt lat="46.94391" lon="8.71187">
        <ele>1564</ele>
        <time>2021-08-06T11:36:34.836Z</time>
      </trkpt>
      <trkpt lat="46.94391" lon="8.71186">
        <ele>1564</ele>
        <time>2021-08-06T11:36:35.836Z</time>
      </trkpt>
      <trkpt lat="46.9439" lon="8.71185">
        <ele>1564</ele>
        <time>2021-08-06T11:36:36.836Z</time>
      </trkpt>
      <trkpt lat="46.9439" lon="8.71184">
        <ele>1563</ele>
        <time>2021-08-06T11:36:39.959Z</time>
      </trkpt>
      <trkpt lat="46.9439" lon="8.71183">
        <ele>1563</ele>
        <time>2021-08-06T11:36:40.960Z</time>
      </trkpt>
      <trkpt lat="46.94389" lon="8.71181">
        <ele>1564</ele>
        <time>2021-08-06T11:36:42.820Z</time>
      </trkpt>
      <trkpt lat="46.94388" lon="8.7118">
        <ele>1564</ele>
        <time>2021-08-06T11:36:43.820Z</time>
      </trkpt>
      <trkpt lat="46.94387" lon="8.71179">
        <ele>1564</ele>
        <time>2021-08-06T11:36:44.820Z</time>
      </trkpt>
      <trkpt lat="46.94387" lon="8.71178">
        <ele>1564</ele>
        <time>2021-08-06T11:36:45.820Z</time>
      </trkpt>
      <trkpt lat="46.94386" lon="8.71177">
        <ele>1564</ele>
        <time>2021-08-06T11:36:46.821Z</time>
      </trkpt>
      <trkpt lat="46.94386" lon="8.71176">
        <ele>1563</ele>
        <time>2021-08-06T11:36:47.820Z</time>
      </trkpt>
      <trkpt lat="46.94386" lon="8.71175">
        <ele>1563</ele>
        <time>2021-08-06T11:36:48.820Z</time>
      </trkpt>
      <trkpt lat="46.94385" lon="8.71174">
        <ele>1563</ele>
        <time>2021-08-06T11:36:49.820Z</time>
      </trkpt>
      <trkpt lat="46.94384" lon="8.71173">
        <ele>1563</ele>
        <time>2021-08-06T11:36:50.821Z</time>
      </trkpt>
      <trkpt lat="46.94383" lon="8.71173">
        <ele>1563</ele>
        <time>2021-08-06T11:36:51.821Z</time>
      </trkpt>
      <trkpt lat="46.94382" lon="8.71173">
        <ele>1563</ele>
        <time>2021-08-06T11:36:52.820Z</time>
      </trkpt>
      <trkpt lat="46.94382" lon="8.71172">
        <ele>1563</ele>
        <time>2021-08-06T11:36:53.820Z</time>
      </trkpt>
      <trkpt lat="46.94381" lon="8.71171">
        <ele>1563</ele>
        <time>2021-08-06T11:36:54.821Z</time>
      </trkpt>
      <trkpt lat="46.9438" lon="8.71171">
        <ele>1563</ele>
        <time>2021-08-06T11:36:55.821Z</time>
      </trkpt>
      <trkpt lat="46.94379" lon="8.7117">
        <ele>1563</ele>
        <time>2021-08-06T11:36:56.820Z</time>
      </trkpt>
      <trkpt lat="46.94379" lon="8.71169">
        <ele>1564</ele>
        <time>2021-08-06T11:36:57.821Z</time>
      </trkpt>
      <trkpt lat="46.94378" lon="8.71168">
        <ele>1564</ele>
        <time>2021-08-06T11:36:58.821Z</time>
      </trkpt>
      <trkpt lat="46.94377" lon="8.71167">
        <ele>1563</ele>
        <time>2021-08-06T11:36:59.820Z</time>
      </trkpt>
      <trkpt lat="46.94376" lon="8.71166">
        <ele>1563</ele>
        <time>2021-08-06T11:37:00.820Z</time>
      </trkpt>
      <trkpt lat="46.94376" lon="8.71165">
        <ele>1563</ele>
        <time>2021-08-06T11:37:01.820Z</time>
      </trkpt>
      <trkpt lat="46.94376" lon="8.71164">
        <ele>1563</ele>
        <time>2021-08-06T11:37:02.820Z</time>
      </trkpt>
      <trkpt lat="46.94376" lon="8.71163">
        <ele>1563</ele>
        <time>2021-08-06T11:37:03.820Z</time>
      </trkpt>
      <trkpt lat="46.94375" lon="8.71163">
        <ele>1563</ele>
        <time>2021-08-06T11:37:04.820Z</time>
      </trkpt>
      <trkpt lat="46.94374" lon="8.71163">
        <ele>1563</ele>
        <time>2021-08-06T11:37:05.821Z</time>
      </trkpt>
      <trkpt lat="46.94374" lon="8.71163">
        <ele>1564</ele>
        <time>2021-08-06T11:37:06.821Z</time>
      </trkpt>
      <trkpt lat="46.94374" lon="8.71163">
        <ele>1564</ele>
        <time>2021-08-06T11:37:07.821Z</time>
      </trkpt>
      <trkpt lat="46.94374" lon="8.71164">
        <ele>1565</ele>
        <time>2021-08-06T11:37:08.823Z</time>
      </trkpt>
      <trkpt lat="46.94374" lon="8.71164">
        <ele>1566</ele>
        <time>2021-08-06T11:37:09.823Z</time>
      </trkpt>
      <trkpt lat="46.94374" lon="8.71164">
        <ele>1566</ele>
        <time>2021-08-06T11:37:10.822Z</time>
      </trkpt>
      <trkpt lat="46.94375" lon="8.71167">
        <ele>1569</ele>
        <time>2021-08-06T11:37:11.823Z</time>
      </trkpt>
      <trkpt lat="46.94374" lon="8.71167">
        <ele>1569</ele>
        <time>2021-08-06T11:37:12.822Z</time>
      </trkpt>
      <trkpt lat="46.94374" lon="8.71167">
        <ele>1570</ele>
        <time>2021-08-06T11:37:13.824Z</time>
      </trkpt>
      <trkpt lat="46.94374" lon="8.71167">
        <ele>1570</ele>
        <time>2021-08-06T11:37:14.824Z</time>
      </trkpt>
      <trkpt lat="46.94375" lon="8.71168">
        <ele>1570</ele>
        <time>2021-08-06T11:37:15.823Z</time>
      </trkpt>
      <trkpt lat="46.94375" lon="8.71168">
        <ele>1571</ele>
        <time>2021-08-06T11:37:16.823Z</time>
      </trkpt>
      <trkpt lat="46.94376" lon="8.71168">
        <ele>1574</ele>
        <time>2021-08-06T11:37:22.889Z</time>
      </trkpt>
      <trkpt lat="46.94376" lon="8.71169">
        <ele>1574</ele>
        <time>2021-08-06T11:37:23.889Z</time>
      </trkpt>
      <trkpt lat="46.94376" lon="8.71168">
        <ele>1574</ele>
        <time>2021-08-06T11:37:24.888Z</time>
      </trkpt>
      <trkpt lat="46.94376" lon="8.71168">
        <ele>1574</ele>
        <time>2021-08-06T11:37:25.889Z</time>
      </trkpt>
      <trkpt lat="46.94375" lon="8.71168">
        <ele>1574</ele>
        <time>2021-08-06T11:37:26.889Z</time>
      </trkpt>
      <trkpt lat="46.94375" lon="8.71167">
        <ele>1572</ele>
        <time>2021-08-06T11:37:27.889Z</time>
      </trkpt>
      <trkpt lat="46.94375" lon="8.71167">
        <ele>1571</ele>
        <time>2021-08-06T11:37:28.889Z</time>
      </trkpt>
      <trkpt lat="46.94375" lon="8.71166">
        <ele>1571</ele>
        <time>2021-08-06T11:37:29.888Z</time>
      </trkpt>
      <trkpt lat="46.94375" lon="8.71166">
        <ele>1571</ele>
        <time>2021-08-06T11:37:30.888Z</time>
      </trkpt>
      <trkpt lat="46.94374" lon="8.71165">
        <ele>1570</ele>
        <time>2021-08-06T11:37:31.890Z</time>
      </trkpt>
      <trkpt lat="46.94374" lon="8.71165">
        <ele>1570</ele>
        <time>2021-08-06T11:37:32.890Z</time>
      </trkpt>
      <trkpt lat="46.94373" lon="8.71165">
        <ele>1571</ele>
        <time>2021-08-06T11:37:33.889Z</time>
      </trkpt>
      <trkpt lat="46.94372" lon="8.71163">
        <ele>1573</ele>
        <time>2021-08-06T11:37:34.890Z</time>
      </trkpt>
      <trkpt lat="46.94372" lon="8.71163">
        <ele>1573</ele>
        <time>2021-08-06T11:37:35.890Z</time>
      </trkpt>
      <trkpt lat="46.94371" lon="8.71163">
        <ele>1573</ele>
        <time>2021-08-06T11:37:36.891Z</time>
      </trkpt>
      <trkpt lat="46.94371" lon="8.71163">
        <ele>1573</ele>
        <time>2021-08-06T11:37:37.891Z</time>
      </trkpt>
      <trkpt lat="46.9437" lon="8.71162">
        <ele>1573</ele>
        <time>2021-08-06T11:37:38.891Z</time>
      </trkpt>
      <trkpt lat="46.9437" lon="8.71163">
        <ele>1574</ele>
        <time>2021-08-06T11:37:39.890Z</time>
      </trkpt>
      <trkpt lat="46.94369" lon="8.71164">
        <ele>1574</ele>
        <time>2021-08-06T11:37:40.891Z</time>
      </trkpt>
      <trkpt lat="46.94369" lon="8.71164">
        <ele>1574</ele>
        <time>2021-08-06T11:37:41.890Z</time>
      </trkpt>
      <trkpt lat="46.94368" lon="8.71164">
        <ele>1574</ele>
        <time>2021-08-06T11:37:42.891Z</time>
      </trkpt>
      <trkpt lat="46.94368" lon="8.71164">
        <ele>1574</ele>
        <time>2021-08-06T11:37:43.890Z</time>
      </trkpt>
      <trkpt lat="46.94368" lon="8.71164">
        <ele>1574</ele>
        <time>2021-08-06T11:37:44.890Z</time>
      </trkpt>
      <trkpt lat="46.94368" lon="8.71163">
        <ele>1574</ele>
        <time>2021-08-06T11:37:45.892Z</time>
      </trkpt>
      <trkpt lat="46.94367" lon="8.71163">
        <ele>1575</ele>
        <time>2021-08-06T11:37:46.892Z</time>
      </trkpt>
      <trkpt lat="46.94366" lon="8.71163">
        <ele>1575</ele>
        <time>2021-08-06T11:37:47.891Z</time>
      </trkpt>
      <trkpt lat="46.94366" lon="8.71163">
        <ele>1575</ele>
        <time>2021-08-06T11:37:48.892Z</time>
      </trkpt>
      <trkpt lat="46.94366" lon="8.71163">
        <ele>1574</ele>
        <time>2021-08-06T11:37:49.892Z</time>
      </trkpt>
      <trkpt lat="46.94365" lon="8.71163">
        <ele>1574</ele>
        <time>2021-08-06T11:37:50.891Z</time>
      </trkpt>
      <trkpt lat="46.94365" lon="8.71163">
        <ele>1574</ele>
        <time>2021-08-06T11:37:51.891Z</time>
      </trkpt>
      <trkpt lat="46.94365" lon="8.71163">
        <ele>1575</ele>
        <time>2021-08-06T11:37:57.022Z</time>
      </trkpt>
      <trkpt lat="46.94365" lon="8.71163">
        <ele>1575</ele>
        <time>2021-08-06T11:37:58.022Z</time>
      </trkpt>
      <trkpt lat="46.94365" lon="8.71162">
        <ele>1576</ele>
        <time>2021-08-06T11:38:01.854Z</time>
      </trkpt>
      <trkpt lat="46.94364" lon="8.71161">
        <ele>1576</ele>
        <time>2021-08-06T11:38:02.853Z</time>
      </trkpt>
      <trkpt lat="46.94364" lon="8.71161">
        <ele>1577</ele>
        <time>2021-08-06T11:38:10.767Z</time>
      </trkpt>
      <trkpt lat="46.94364" lon="8.71161">
        <ele>1577</ele>
        <time>2021-08-06T11:38:11.766Z</time>
      </trkpt>
      <trkpt lat="46.94363" lon="8.71161">
        <ele>1578</ele>
        <time>2021-08-06T11:38:17.646Z</time>
      </trkpt>
      <trkpt lat="46.94363" lon="8.71161">
        <ele>1578</ele>
        <time>2021-08-06T11:38:18.646Z</time>
      </trkpt>
      <trkpt lat="46.94363" lon="8.7116">
        <ele>1578</ele>
        <time>2021-08-06T11:38:19.646Z</time>
      </trkpt>
      <trkpt lat="46.94363" lon="8.7116">
        <ele>1578</ele>
        <time>2021-08-06T11:38:31.752Z</time>
      </trkpt>
      <trkpt lat="46.94362" lon="8.7116">
        <ele>1578</ele>
        <time>2021-08-06T11:38:32.751Z</time>
      </trkpt>
      <trkpt lat="46.94361" lon="8.71161">
        <ele>1578</ele>
        <time>2021-08-06T11:38:33.751Z</time>
      </trkpt>
      <trkpt lat="46.94361" lon="8.71161">
        <ele>1578</ele>
        <time>2021-08-06T11:38:34.752Z</time>
      </trkpt>
      <trkpt lat="46.9436" lon="8.71162">
        <ele>1578</ele>
        <time>2021-08-06T11:38:35.751Z</time>
      </trkpt>
      <trkpt lat="46.94359" lon="8.71163">
        <ele>1578</ele>
        <time>2021-08-06T11:38:36.752Z</time>
      </trkpt>
      <trkpt lat="46.94358" lon="8.71162">
        <ele>1577</ele>
        <time>2021-08-06T11:38:37.752Z</time>
      </trkpt>
      <trkpt lat="46.94358" lon="8.71162">
        <ele>1577</ele>
        <time>2021-08-06T11:38:43.896Z</time>
      </trkpt>
      <trkpt lat="46.94358" lon="8.71162">
        <ele>1577</ele>
        <time>2021-08-06T11:38:44.897Z</time>
      </trkpt>
      <trkpt lat="46.94358" lon="8.71162">
        <ele>1576</ele>
        <time>2021-08-06T11:38:45.897Z</time>
      </trkpt>
      <trkpt lat="46.94358" lon="8.71161">
        <ele>1576</ele>
        <time>2021-08-06T11:38:51.978Z</time>
      </trkpt>
      <trkpt lat="46.94358" lon="8.7116">
        <ele>1576</ele>
        <time>2021-08-06T11:38:52.977Z</time>
      </trkpt>
      <trkpt lat="46.94358" lon="8.71159">
        <ele>1575</ele>
        <time>2021-08-06T11:38:53.977Z</time>
      </trkpt>
      <trkpt lat="46.94359" lon="8.71157">
        <ele>1575</ele>
        <time>2021-08-06T11:38:57.716Z</time>
      </trkpt>
      <trkpt lat="46.9436" lon="8.71157">
        <ele>1575</ele>
        <time>2021-08-06T11:38:58.716Z</time>
      </trkpt>
      <trkpt lat="46.94361" lon="8.71157">
        <ele>1575</ele>
        <time>2021-08-06T11:39:04.858Z</time>
      </trkpt>
      <trkpt lat="46.94361" lon="8.71156">
        <ele>1575</ele>
        <time>2021-08-06T11:39:05.857Z</time>
      </trkpt>
      <trkpt lat="46.94361" lon="8.71156">
        <ele>1575</ele>
        <time>2021-08-06T11:39:06.857Z</time>
      </trkpt>
      <trkpt lat="46.94362" lon="8.71156">
        <ele>1576</ele>
        <time>2021-08-06T11:39:36.765Z</time>
      </trkpt>
      <trkpt lat="46.94362" lon="8.71156">
        <ele>1576</ele>
        <time>2021-08-06T11:39:37.765Z</time>
      </trkpt>
      <trkpt lat="46.94362" lon="8.71155">
        <ele>1576</ele>
        <time>2021-08-06T11:39:57.849Z</time>
      </trkpt>
      <trkpt lat="46.94362" lon="8.71154">
        <ele>1576</ele>
        <time>2021-08-06T11:39:58.849Z</time>
      </trkpt>
      <trkpt lat="46.94362" lon="8.71154">
        <ele>1576</ele>
        <time>2021-08-06T11:39:59.849Z</time>
      </trkpt>
      <trkpt lat="46.94362" lon="8.71154">
        <ele>1576</ele>
        <time>2021-08-06T11:40:03.993Z</time>
      </trkpt>
      <trkpt lat="46.94362" lon="8.71153">
        <ele>1576</ele>
        <time>2021-08-06T11:40:04.993Z</time>
      </trkpt>
      <trkpt lat="46.94363" lon="8.71153">
        <ele>1576</ele>
        <time>2021-08-06T11:40:07.746Z</time>
      </trkpt>
      <trkpt lat="46.94363" lon="8.71153">
        <ele>1576</ele>
        <time>2021-08-06T11:40:08.745Z</time>
      </trkpt>
      <trkpt lat="46.94363" lon="8.71153">
        <ele>1576</ele>
        <time>2021-08-06T11:40:09.745Z</time>
      </trkpt>
      <trkpt lat="46.94363" lon="8.71152">
        <ele>1576</ele>
        <time>2021-08-06T11:40:10.745Z</time>
      </trkpt>
      <trkpt lat="46.94364" lon="8.71151">
        <ele>1576</ele>
        <time>2021-08-06T11:40:11.745Z</time>
      </trkpt>
      <trkpt lat="46.94365" lon="8.71151">
        <ele>1576</ele>
        <time>2021-08-06T11:40:12.745Z</time>
      </trkpt>
      <trkpt lat="46.94365" lon="8.71151">
        <ele>1576</ele>
        <time>2021-08-06T11:40:13.745Z</time>
      </trkpt>
      <trkpt lat="46.94365" lon="8.71151">
        <ele>1577</ele>
        <time>2021-08-06T11:40:14.745Z</time>
      </trkpt>
      <trkpt lat="46.94365" lon="8.71151">
        <ele>1577</ele>
        <time>2021-08-06T11:40:15.745Z</time>
      </trkpt>
      <trkpt lat="46.94365" lon="8.7115">
        <ele>1578</ele>
        <time>2021-08-06T11:40:16.745Z</time>
      </trkpt>
      <trkpt lat="46.94364" lon="8.71149">
        <ele>1580</ele>
        <time>2021-08-06T11:40:17.745Z</time>
      </trkpt>
      <trkpt lat="46.94363" lon="8.71149">
        <ele>1581</ele>
        <time>2021-08-06T11:40:18.745Z</time>
      </trkpt>
      <trkpt lat="46.94362" lon="8.71149">
        <ele>1581</ele>
        <time>2021-08-06T11:40:19.745Z</time>
      </trkpt>
      <trkpt lat="46.94362" lon="8.71147">
        <ele>1582</ele>
        <time>2021-08-06T11:40:20.745Z</time>
      </trkpt>
      <trkpt lat="46.94361" lon="8.71146">
        <ele>1582</ele>
        <time>2021-08-06T11:40:21.745Z</time>
      </trkpt>
      <trkpt lat="46.94361" lon="8.71145">
        <ele>1582</ele>
        <time>2021-08-06T11:40:22.746Z</time>
      </trkpt>
      <trkpt lat="46.94361" lon="8.71144">
        <ele>1582</ele>
        <time>2021-08-06T11:40:23.746Z</time>
      </trkpt>
      <trkpt lat="46.9436" lon="8.71144">
        <ele>1582</ele>
        <time>2021-08-06T11:40:24.746Z</time>
      </trkpt>
      <trkpt lat="46.9436" lon="8.71144">
        <ele>1582</ele>
        <time>2021-08-06T11:40:25.746Z</time>
      </trkpt>
      <trkpt lat="46.9436" lon="8.71144">
        <ele>1582</ele>
        <time>2021-08-06T11:40:26.746Z</time>
      </trkpt>
      <trkpt lat="46.94359" lon="8.71143">
        <ele>1582</ele>
        <time>2021-08-06T11:40:27.746Z</time>
      </trkpt>
      <trkpt lat="46.9436" lon="8.71142">
        <ele>1583</ele>
        <time>2021-08-06T11:40:28.746Z</time>
      </trkpt>
      <trkpt lat="46.9436" lon="8.71141">
        <ele>1583</ele>
        <time>2021-08-06T11:40:29.746Z</time>
      </trkpt>
      <trkpt lat="46.9436" lon="8.71141">
        <ele>1583</ele>
        <time>2021-08-06T11:40:30.745Z</time>
      </trkpt>
      <trkpt lat="46.94361" lon="8.7114">
        <ele>1583</ele>
        <time>2021-08-06T11:40:31.746Z</time>
      </trkpt>
      <trkpt lat="46.9436" lon="8.71142">
        <ele>1583</ele>
        <time>2021-08-06T11:40:32.747Z</time>
      </trkpt>
      <trkpt lat="46.94359" lon="8.71143">
        <ele>1583</ele>
        <time>2021-08-06T11:40:33.747Z</time>
      </trkpt>
      <trkpt lat="46.94358" lon="8.71143">
        <ele>1582</ele>
        <time>2021-08-06T11:40:34.746Z</time>
      </trkpt>
      <trkpt lat="46.94357" lon="8.71143">
        <ele>1582</ele>
        <time>2021-08-06T11:40:35.747Z</time>
      </trkpt>
      <trkpt lat="46.94356" lon="8.71144">
        <ele>1582</ele>
        <time>2021-08-06T11:40:36.746Z</time>
      </trkpt>
      <trkpt lat="46.94355" lon="8.71144">
        <ele>1582</ele>
        <time>2021-08-06T11:40:37.747Z</time>
      </trkpt>
      <trkpt lat="46.94355" lon="8.71145">
        <ele>1582</ele>
        <time>2021-08-06T11:40:38.747Z</time>
      </trkpt>
      <trkpt lat="46.94355" lon="8.71146">
        <ele>1582</ele>
        <time>2021-08-06T11:40:39.747Z</time>
      </trkpt>
      <trkpt lat="46.94355" lon="8.71146">
        <ele>1582</ele>
        <time>2021-08-06T11:40:40.747Z</time>
      </trkpt>
      <trkpt lat="46.94354" lon="8.71145">
        <ele>1584</ele>
        <time>2021-08-06T11:40:41.746Z</time>
      </trkpt>
      <trkpt lat="46.94354" lon="8.71145">
        <ele>1584</ele>
        <time>2021-08-06T11:40:42.746Z</time>
      </trkpt>
      <trkpt lat="46.94354" lon="8.71143">
        <ele>1584</ele>
        <time>2021-08-06T11:40:43.746Z</time>
      </trkpt>
      <trkpt lat="46.94354" lon="8.71142">
        <ele>1583</ele>
        <time>2021-08-06T11:40:44.747Z</time>
      </trkpt>
      <trkpt lat="46.94353" lon="8.71141">
        <ele>1583</ele>
        <time>2021-08-06T11:40:45.747Z</time>
      </trkpt>
      <trkpt lat="46.94353" lon="8.7114">
        <ele>1583</ele>
        <time>2021-08-06T11:40:46.747Z</time>
      </trkpt>
      <trkpt lat="46.94352" lon="8.7114">
        <ele>1583</ele>
        <time>2021-08-06T11:40:47.746Z</time>
      </trkpt>
      <trkpt lat="46.94351" lon="8.71139">
        <ele>1583</ele>
        <time>2021-08-06T11:40:48.747Z</time>
      </trkpt>
      <trkpt lat="46.94351" lon="8.71139">
        <ele>1583</ele>
        <time>2021-08-06T11:40:49.747Z</time>
      </trkpt>
      <trkpt lat="46.9435" lon="8.71138">
        <ele>1584</ele>
        <time>2021-08-06T11:40:50.747Z</time>
      </trkpt>
      <trkpt lat="46.9435" lon="8.71138">
        <ele>1584</ele>
        <time>2021-08-06T11:40:51.747Z</time>
      </trkpt>
      <trkpt lat="46.94349" lon="8.71137">
        <ele>1584</ele>
        <time>2021-08-06T11:40:52.746Z</time>
      </trkpt>
      <trkpt lat="46.94349" lon="8.71136">
        <ele>1585</ele>
        <time>2021-08-06T11:40:53.746Z</time>
      </trkpt>
      <trkpt lat="46.94349" lon="8.71135">
        <ele>1585</ele>
        <time>2021-08-06T11:40:54.747Z</time>
      </trkpt>
      <trkpt lat="46.94349" lon="8.71134">
        <ele>1585</ele>
        <time>2021-08-06T11:40:55.747Z</time>
      </trkpt>
      <trkpt lat="46.94348" lon="8.71133">
        <ele>1584</ele>
        <time>2021-08-06T11:40:56.746Z</time>
      </trkpt>
      <trkpt lat="46.94348" lon="8.71132">
        <ele>1584</ele>
        <time>2021-08-06T11:40:57.746Z</time>
      </trkpt>
      <trkpt lat="46.94348" lon="8.71131">
        <ele>1583</ele>
        <time>2021-08-06T11:40:58.747Z</time>
      </trkpt>
      <trkpt lat="46.94348" lon="8.7113">
        <ele>1583</ele>
        <time>2021-08-06T11:40:59.746Z</time>
      </trkpt>
      <trkpt lat="46.94347" lon="8.71129">
        <ele>1583</ele>
        <time>2021-08-06T11:41:00.746Z</time>
      </trkpt>
      <trkpt lat="46.94347" lon="8.71128">
        <ele>1583</ele>
        <time>2021-08-06T11:41:01.747Z</time>
      </trkpt>
      <trkpt lat="46.94346" lon="8.71127">
        <ele>1583</ele>
        <time>2021-08-06T11:41:02.746Z</time>
      </trkpt>
      <trkpt lat="46.94346" lon="8.71126">
        <ele>1583</ele>
        <time>2021-08-06T11:41:03.746Z</time>
      </trkpt>
      <trkpt lat="46.94346" lon="8.71125">
        <ele>1583</ele>
        <time>2021-08-06T11:41:04.746Z</time>
      </trkpt>
      <trkpt lat="46.94345" lon="8.71125">
        <ele>1583</ele>
        <time>2021-08-06T11:41:05.747Z</time>
      </trkpt>
      <trkpt lat="46.94345" lon="8.71124">
        <ele>1583</ele>
        <time>2021-08-06T11:41:06.747Z</time>
      </trkpt>
      <trkpt lat="46.94344" lon="8.71124">
        <ele>1582</ele>
        <time>2021-08-06T11:41:07.746Z</time>
      </trkpt>
      <trkpt lat="46.94344" lon="8.71123">
        <ele>1583</ele>
        <time>2021-08-06T11:41:08.746Z</time>
      </trkpt>
      <trkpt lat="46.94344" lon="8.71123">
        <ele>1582</ele>
        <time>2021-08-06T11:41:09.747Z</time>
      </trkpt>
      <trkpt lat="46.94344" lon="8.71122">
        <ele>1582</ele>
        <time>2021-08-06T11:41:10.746Z</time>
      </trkpt>
      <trkpt lat="46.94344" lon="8.71121">
        <ele>1581</ele>
        <time>2021-08-06T11:41:11.746Z</time>
      </trkpt>
      <trkpt lat="46.94344" lon="8.7112">
        <ele>1581</ele>
        <time>2021-08-06T11:41:12.746Z</time>
      </trkpt>
      <trkpt lat="46.94344" lon="8.71119">
        <ele>1581</ele>
        <time>2021-08-06T11:41:13.747Z</time>
      </trkpt>
      <trkpt lat="46.94344" lon="8.71119">
        <ele>1581</ele>
        <time>2021-08-06T11:41:14.747Z</time>
      </trkpt>
      <trkpt lat="46.94344" lon="8.71118">
        <ele>1581</ele>
        <time>2021-08-06T11:41:15.747Z</time>
      </trkpt>
      <trkpt lat="46.94344" lon="8.71117">
        <ele>1581</ele>
        <time>2021-08-06T11:41:16.747Z</time>
      </trkpt>
      <trkpt lat="46.94343" lon="8.71117">
        <ele>1581</ele>
        <time>2021-08-06T11:41:17.747Z</time>
      </trkpt>
      <trkpt lat="46.94343" lon="8.71116">
        <ele>1582</ele>
        <time>2021-08-06T11:41:18.747Z</time>
      </trkpt>
      <trkpt lat="46.94343" lon="8.71116">
        <ele>1583</ele>
        <time>2021-08-06T11:41:19.747Z</time>
      </trkpt>
      <trkpt lat="46.94342" lon="8.71115">
        <ele>1583</ele>
        <time>2021-08-06T11:41:20.747Z</time>
      </trkpt>
      <trkpt lat="46.94341" lon="8.71115">
        <ele>1583</ele>
        <time>2021-08-06T11:41:21.747Z</time>
      </trkpt>
      <trkpt lat="46.94341" lon="8.71114">
        <ele>1584</ele>
        <time>2021-08-06T11:41:22.746Z</time>
      </trkpt>
      <trkpt lat="46.9434" lon="8.71113">
        <ele>1584</ele>
        <time>2021-08-06T11:41:23.746Z</time>
      </trkpt>
      <trkpt lat="46.94339" lon="8.71113">
        <ele>1585</ele>
        <time>2021-08-06T11:41:24.746Z</time>
      </trkpt>
      <trkpt lat="46.94339" lon="8.71112">
        <ele>1585</ele>
        <time>2021-08-06T11:41:25.746Z</time>
      </trkpt>
      <trkpt lat="46.94338" lon="8.71112">
        <ele>1586</ele>
        <time>2021-08-06T11:41:26.746Z</time>
      </trkpt>
      <trkpt lat="46.94338" lon="8.71111">
        <ele>1586</ele>
        <time>2021-08-06T11:41:27.747Z</time>
      </trkpt>
      <trkpt lat="46.94337" lon="8.71112">
        <ele>1587</ele>
        <time>2021-08-06T11:41:28.746Z</time>
      </trkpt>
      <trkpt lat="46.94336" lon="8.71112">
        <ele>1587</ele>
        <time>2021-08-06T11:41:29.746Z</time>
      </trkpt>
      <trkpt lat="46.94336" lon="8.71112">
        <ele>1588</ele>
        <time>2021-08-06T11:41:30.746Z</time>
      </trkpt>
      <trkpt lat="46.94335" lon="8.71113">
        <ele>1589</ele>
        <time>2021-08-06T11:41:31.746Z</time>
      </trkpt>
      <trkpt lat="46.94334" lon="8.71113">
        <ele>1589</ele>
        <time>2021-08-06T11:41:32.746Z</time>
      </trkpt>
      <trkpt lat="46.94334" lon="8.71113">
        <ele>1590</ele>
        <time>2021-08-06T11:41:33.746Z</time>
      </trkpt>
      <trkpt lat="46.94333" lon="8.71113">
        <ele>1589</ele>
        <time>2021-08-06T11:41:34.747Z</time>
      </trkpt>
      <trkpt lat="46.94333" lon="8.71114">
        <ele>1589</ele>
        <time>2021-08-06T11:41:35.747Z</time>
      </trkpt>
      <trkpt lat="46.94333" lon="8.71114">
        <ele>1589</ele>
        <time>2021-08-06T11:41:36.746Z</time>
      </trkpt>
      <trkpt lat="46.94332" lon="8.71114">
        <ele>1589</ele>
        <time>2021-08-06T11:41:37.747Z</time>
      </trkpt>
      <trkpt lat="46.94332" lon="8.71113">
        <ele>1589</ele>
        <time>2021-08-06T11:41:38.747Z</time>
      </trkpt>
      <trkpt lat="46.94331" lon="8.71114">
        <ele>1589</ele>
        <time>2021-08-06T11:41:39.747Z</time>
      </trkpt>
      <trkpt lat="46.94331" lon="8.71114">
        <ele>1589</ele>
        <time>2021-08-06T11:41:40.747Z</time>
      </trkpt>
      <trkpt lat="46.9433" lon="8.71114">
        <ele>1589</ele>
        <time>2021-08-06T11:41:41.747Z</time>
      </trkpt>
      <trkpt lat="46.9433" lon="8.71114">
        <ele>1589</ele>
        <time>2021-08-06T11:41:42.747Z</time>
      </trkpt>
      <trkpt lat="46.94329" lon="8.71113">
        <ele>1589</ele>
        <time>2021-08-06T11:41:43.747Z</time>
      </trkpt>
      <trkpt lat="46.94328" lon="8.71113">
        <ele>1589</ele>
        <time>2021-08-06T11:41:44.746Z</time>
      </trkpt>
      <trkpt lat="46.94328" lon="8.71113">
        <ele>1589</ele>
        <time>2021-08-06T11:41:45.747Z</time>
      </trkpt>
      <trkpt lat="46.94327" lon="8.71114">
        <ele>1588</ele>
        <time>2021-08-06T11:41:46.747Z</time>
      </trkpt>
      <trkpt lat="46.94327" lon="8.71114">
        <ele>1588</ele>
        <time>2021-08-06T11:41:47.746Z</time>
      </trkpt>
      <trkpt lat="46.94327" lon="8.71114">
        <ele>1587</ele>
        <time>2021-08-06T11:41:48.747Z</time>
      </trkpt>
      <trkpt lat="46.94327" lon="8.71114">
        <ele>1587</ele>
        <time>2021-08-06T11:41:49.746Z</time>
      </trkpt>
      <trkpt lat="46.94327" lon="8.71114">
        <ele>1587</ele>
        <time>2021-08-06T11:41:50.747Z</time>
      </trkpt>
      <trkpt lat="46.94326" lon="8.71113">
        <ele>1590</ele>
        <time>2021-08-06T11:41:53.855Z</time>
      </trkpt>
      <trkpt lat="46.94325" lon="8.71113">
        <ele>1590</ele>
        <time>2021-08-06T11:41:54.855Z</time>
      </trkpt>
      <trkpt lat="46.94324" lon="8.71112">
        <ele>1589</ele>
        <time>2021-08-06T11:41:55.855Z</time>
      </trkpt>
      <trkpt lat="46.94324" lon="8.71112">
        <ele>1590</ele>
        <time>2021-08-06T11:41:56.855Z</time>
      </trkpt>
      <trkpt lat="46.94324" lon="8.71112">
        <ele>1590</ele>
        <time>2021-08-06T11:41:57.855Z</time>
      </trkpt>
      <trkpt lat="46.94323" lon="8.71111">
        <ele>1590</ele>
        <time>2021-08-06T11:41:58.855Z</time>
      </trkpt>
      <trkpt lat="46.94323" lon="8.71111">
        <ele>1590</ele>
        <time>2021-08-06T11:41:59.855Z</time>
      </trkpt>
      <trkpt lat="46.94322" lon="8.71111">
        <ele>1590</ele>
        <time>2021-08-06T11:42:00.856Z</time>
      </trkpt>
      <trkpt lat="46.94322" lon="8.71111">
        <ele>1591</ele>
        <time>2021-08-06T11:42:01.856Z</time>
      </trkpt>
      <trkpt lat="46.94321" lon="8.7111">
        <ele>1591</ele>
        <time>2021-08-06T11:42:02.855Z</time>
      </trkpt>
      <trkpt lat="46.94321" lon="8.71109">
        <ele>1591</ele>
        <time>2021-08-06T11:42:03.856Z</time>
      </trkpt>
      <trkpt lat="46.94321" lon="8.71109">
        <ele>1591</ele>
        <time>2021-08-06T11:42:04.855Z</time>
      </trkpt>
      <trkpt lat="46.94321" lon="8.71108">
        <ele>1592</ele>
        <time>2021-08-06T11:42:05.856Z</time>
      </trkpt>
      <trkpt lat="46.9432" lon="8.71108">
        <ele>1592</ele>
        <time>2021-08-06T11:42:06.856Z</time>
      </trkpt>
      <trkpt lat="46.94319" lon="8.71108">
        <ele>1593</ele>
        <time>2021-08-06T11:42:07.856Z</time>
      </trkpt>
      <trkpt lat="46.94319" lon="8.71107">
        <ele>1593</ele>
        <time>2021-08-06T11:42:08.856Z</time>
      </trkpt>
      <trkpt lat="46.94319" lon="8.71107">
        <ele>1593</ele>
        <time>2021-08-06T11:42:09.856Z</time>
      </trkpt>
      <trkpt lat="46.94318" lon="8.71106">
        <ele>1593</ele>
        <time>2021-08-06T11:42:10.856Z</time>
      </trkpt>
      <trkpt lat="46.94318" lon="8.71105">
        <ele>1593</ele>
        <time>2021-08-06T11:42:11.855Z</time>
      </trkpt>
      <trkpt lat="46.94318" lon="8.71105">
        <ele>1594</ele>
        <time>2021-08-06T11:42:12.855Z</time>
      </trkpt>
      <trkpt lat="46.94317" lon="8.71105">
        <ele>1594</ele>
        <time>2021-08-06T11:42:13.856Z</time>
      </trkpt>
      <trkpt lat="46.94317" lon="8.71105">
        <ele>1595</ele>
        <time>2021-08-06T11:42:14.855Z</time>
      </trkpt>
      <trkpt lat="46.94316" lon="8.71105">
        <ele>1595</ele>
        <time>2021-08-06T11:42:15.856Z</time>
      </trkpt>
      <trkpt lat="46.94316" lon="8.71105">
        <ele>1595</ele>
        <time>2021-08-06T11:42:16.855Z</time>
      </trkpt>
      <trkpt lat="46.94315" lon="8.71105">
        <ele>1596</ele>
        <time>2021-08-06T11:42:17.856Z</time>
      </trkpt>
      <trkpt lat="46.94315" lon="8.71105">
        <ele>1596</ele>
        <time>2021-08-06T11:42:18.856Z</time>
      </trkpt>
      <trkpt lat="46.94314" lon="8.71105">
        <ele>1597</ele>
        <time>2021-08-06T11:42:19.855Z</time>
      </trkpt>
      <trkpt lat="46.94313" lon="8.71105">
        <ele>1597</ele>
        <time>2021-08-06T11:42:20.855Z</time>
      </trkpt>
      <trkpt lat="46.94313" lon="8.71105">
        <ele>1597</ele>
        <time>2021-08-06T11:42:21.855Z</time>
      </trkpt>
      <trkpt lat="46.94313" lon="8.71105">
        <ele>1598</ele>
        <time>2021-08-06T11:42:22.855Z</time>
      </trkpt>
      <trkpt lat="46.94312" lon="8.71105">
        <ele>1598</ele>
        <time>2021-08-06T11:42:23.855Z</time>
      </trkpt>
      <trkpt lat="46.94312" lon="8.71105">
        <ele>1599</ele>
        <time>2021-08-06T11:42:24.857Z</time>
      </trkpt>
      <trkpt lat="46.94311" lon="8.71105">
        <ele>1599</ele>
        <time>2021-08-06T11:42:25.856Z</time>
      </trkpt>
      <trkpt lat="46.9431" lon="8.71106">
        <ele>1599</ele>
        <time>2021-08-06T11:42:26.857Z</time>
      </trkpt>
      <trkpt lat="46.9431" lon="8.71106">
        <ele>1599</ele>
        <time>2021-08-06T11:42:27.857Z</time>
      </trkpt>
      <trkpt lat="46.9431" lon="8.71106">
        <ele>1599</ele>
        <time>2021-08-06T11:42:28.856Z</time>
      </trkpt>
      <trkpt lat="46.94309" lon="8.71105">
        <ele>1599</ele>
        <time>2021-08-06T11:42:29.856Z</time>
      </trkpt>
      <trkpt lat="46.94309" lon="8.71105">
        <ele>1599</ele>
        <time>2021-08-06T11:42:30.856Z</time>
      </trkpt>
      <trkpt lat="46.94308" lon="8.71105">
        <ele>1599</ele>
        <time>2021-08-06T11:42:31.856Z</time>
      </trkpt>
      <trkpt lat="46.94308" lon="8.71106">
        <ele>1599</ele>
        <time>2021-08-06T11:42:32.856Z</time>
      </trkpt>
      <trkpt lat="46.94307" lon="8.71106">
        <ele>1599</ele>
        <time>2021-08-06T11:42:33.857Z</time>
      </trkpt>
      <trkpt lat="46.94307" lon="8.71106">
        <ele>1600</ele>
        <time>2021-08-06T11:42:34.857Z</time>
      </trkpt>
      <trkpt lat="46.94307" lon="8.71106">
        <ele>1600</ele>
        <time>2021-08-06T11:42:35.857Z</time>
      </trkpt>
      <trkpt lat="46.94306" lon="8.71106">
        <ele>1600</ele>
        <time>2021-08-06T11:42:36.856Z</time>
      </trkpt>
      <trkpt lat="46.94306" lon="8.71106">
        <ele>1600</ele>
        <time>2021-08-06T11:42:37.857Z</time>
      </trkpt>
      <trkpt lat="46.94305" lon="8.71106">
        <ele>1601</ele>
        <time>2021-08-06T11:42:41.988Z</time>
      </trkpt>
      <trkpt lat="46.94305" lon="8.71106">
        <ele>1601</ele>
        <time>2021-08-06T11:42:44.832Z</time>
      </trkpt>
      <trkpt lat="46.94304" lon="8.71106">
        <ele>1602</ele>
        <time>2021-08-06T11:42:45.832Z</time>
      </trkpt>
      <trkpt lat="46.94304" lon="8.71106">
        <ele>1602</ele>
        <time>2021-08-06T11:42:46.833Z</time>
      </trkpt>
      <trkpt lat="46.94304" lon="8.71106">
        <ele>1602</ele>
        <time>2021-08-06T11:42:47.833Z</time>
      </trkpt>
      <trkpt lat="46.94303" lon="8.71105">
        <ele>1602</ele>
        <time>2021-08-06T11:42:48.833Z</time>
      </trkpt>
      <trkpt lat="46.94303" lon="8.71105">
        <ele>1602</ele>
        <time>2021-08-06T11:42:49.832Z</time>
      </trkpt>
      <trkpt lat="46.94302" lon="8.71104">
        <ele>1602</ele>
        <time>2021-08-06T11:42:57.028Z</time>
      </trkpt>
      <trkpt lat="46.94302" lon="8.71104">
        <ele>1602</ele>
        <time>2021-08-06T11:42:58.027Z</time>
      </trkpt>
      <trkpt lat="46.94301" lon="8.71104">
        <ele>1602</ele>
        <time>2021-08-06T11:42:59.027Z</time>
      </trkpt>
      <trkpt lat="46.94301" lon="8.71103">
        <ele>1602</ele>
        <time>2021-08-06T11:43:00.027Z</time>
      </trkpt>
      <trkpt lat="46.94301" lon="8.71103">
        <ele>1602</ele>
        <time>2021-08-06T11:43:01.028Z</time>
      </trkpt>
      <trkpt lat="46.94301" lon="8.71103">
        <ele>1602</ele>
        <time>2021-08-06T11:43:02.027Z</time>
      </trkpt>
      <trkpt lat="46.943" lon="8.71103">
        <ele>1602</ele>
        <time>2021-08-06T11:43:03.028Z</time>
      </trkpt>
      <trkpt lat="46.943" lon="8.71102">
        <ele>1602</ele>
        <time>2021-08-06T11:43:04.027Z</time>
      </trkpt>
      <trkpt lat="46.94299" lon="8.71102">
        <ele>1603</ele>
        <time>2021-08-06T11:43:05.028Z</time>
      </trkpt>
      <trkpt lat="46.94299" lon="8.71102">
        <ele>1603</ele>
        <time>2021-08-06T11:43:06.027Z</time>
      </trkpt>
      <trkpt lat="46.94298" lon="8.71102">
        <ele>1603</ele>
        <time>2021-08-06T11:43:07.028Z</time>
      </trkpt>
      <trkpt lat="46.94298" lon="8.71101">
        <ele>1603</ele>
        <time>2021-08-06T11:43:08.028Z</time>
      </trkpt>
      <trkpt lat="46.94297" lon="8.711">
        <ele>1603</ele>
        <time>2021-08-06T11:43:11.105Z</time>
      </trkpt>
      <trkpt lat="46.94297" lon="8.711">
        <ele>1603</ele>
        <time>2021-08-06T11:43:12.106Z</time>
      </trkpt>
      <trkpt lat="46.94296" lon="8.711">
        <ele>1602</ele>
        <time>2021-08-06T11:43:13.106Z</time>
      </trkpt>
      <trkpt lat="46.94295" lon="8.71099">
        <ele>1602</ele>
        <time>2021-08-06T11:43:14.105Z</time>
      </trkpt>
      <trkpt lat="46.94295" lon="8.71098">
        <ele>1601</ele>
        <time>2021-08-06T11:43:15.106Z</time>
      </trkpt>
      <trkpt lat="46.94294" lon="8.71097">
        <ele>1601</ele>
        <time>2021-08-06T11:43:16.106Z</time>
      </trkpt>
      <trkpt lat="46.94294" lon="8.71097">
        <ele>1601</ele>
        <time>2021-08-06T11:43:17.105Z</time>
      </trkpt>
      <trkpt lat="46.94293" lon="8.71096">
        <ele>1600</ele>
        <time>2021-08-06T11:43:18.106Z</time>
      </trkpt>
      <trkpt lat="46.94292" lon="8.71095">
        <ele>1600</ele>
        <time>2021-08-06T11:43:19.106Z</time>
      </trkpt>
      <trkpt lat="46.94292" lon="8.71095">
        <ele>1599</ele>
        <time>2021-08-06T11:43:20.106Z</time>
      </trkpt>
      <trkpt lat="46.94292" lon="8.71094">
        <ele>1599</ele>
        <time>2021-08-06T11:43:21.106Z</time>
      </trkpt>
      <trkpt lat="46.94291" lon="8.71093">
        <ele>1599</ele>
        <time>2021-08-06T11:43:22.105Z</time>
      </trkpt>
      <trkpt lat="46.94291" lon="8.71093">
        <ele>1599</ele>
        <time>2021-08-06T11:43:23.106Z</time>
      </trkpt>
      <trkpt lat="46.9429" lon="8.71092">
        <ele>1599</ele>
        <time>2021-08-06T11:43:24.105Z</time>
      </trkpt>
      <trkpt lat="46.94289" lon="8.71092">
        <ele>1599</ele>
        <time>2021-08-06T11:43:25.106Z</time>
      </trkpt>
      <trkpt lat="46.94289" lon="8.7109">
        <ele>1599</ele>
        <time>2021-08-06T11:43:26.106Z</time>
      </trkpt>
      <trkpt lat="46.94289" lon="8.71089">
        <ele>1599</ele>
        <time>2021-08-06T11:43:27.106Z</time>
      </trkpt>
      <trkpt lat="46.94288" lon="8.71088">
        <ele>1599</ele>
        <time>2021-08-06T11:43:28.106Z</time>
      </trkpt>
      <trkpt lat="46.94288" lon="8.71088">
        <ele>1599</ele>
        <time>2021-08-06T11:43:29.106Z</time>
      </trkpt>
      <trkpt lat="46.94288" lon="8.71087">
        <ele>1599</ele>
        <time>2021-08-06T11:43:30.105Z</time>
      </trkpt>
      <trkpt lat="46.94287" lon="8.71086">
        <ele>1600</ele>
        <time>2021-08-06T11:43:31.106Z</time>
      </trkpt>
      <trkpt lat="46.94286" lon="8.71086">
        <ele>1600</ele>
        <time>2021-08-06T11:43:32.106Z</time>
      </trkpt>
      <trkpt lat="46.94286" lon="8.71086">
        <ele>1600</ele>
        <time>2021-08-06T11:43:33.106Z</time>
      </trkpt>
      <trkpt lat="46.94285" lon="8.71085">
        <ele>1600</ele>
        <time>2021-08-06T11:43:34.106Z</time>
      </trkpt>
      <trkpt lat="46.94285" lon="8.71084">
        <ele>1600</ele>
        <time>2021-08-06T11:43:35.106Z</time>
      </trkpt>
      <trkpt lat="46.94284" lon="8.71084">
        <ele>1600</ele>
        <time>2021-08-06T11:43:36.106Z</time>
      </trkpt>
      <trkpt lat="46.94283" lon="8.71083">
        <ele>1600</ele>
        <time>2021-08-06T11:43:37.105Z</time>
      </trkpt>
      <trkpt lat="46.94283" lon="8.71082">
        <ele>1600</ele>
        <time>2021-08-06T11:43:38.106Z</time>
      </trkpt>
      <trkpt lat="46.94282" lon="8.71082">
        <ele>1600</ele>
        <time>2021-08-06T11:43:41.090Z</time>
      </trkpt>
      <trkpt lat="46.94282" lon="8.71082">
        <ele>1599</ele>
        <time>2021-08-06T11:43:42.090Z</time>
      </trkpt>
      <trkpt lat="46.94281" lon="8.71083">
        <ele>1599</ele>
        <time>2021-08-06T11:43:43.090Z</time>
      </trkpt>
      <trkpt lat="46.9428" lon="8.71082">
        <ele>1599</ele>
        <time>2021-08-06T11:43:44.090Z</time>
      </trkpt>
      <trkpt lat="46.9428" lon="8.71082">
        <ele>1599</ele>
        <time>2021-08-06T11:43:45.090Z</time>
      </trkpt>
      <trkpt lat="46.94279" lon="8.71082">
        <ele>1599</ele>
        <time>2021-08-06T11:43:46.090Z</time>
      </trkpt>
      <trkpt lat="46.94279" lon="8.71082">
        <ele>1599</ele>
        <time>2021-08-06T11:43:47.091Z</time>
      </trkpt>
      <trkpt lat="46.94278" lon="8.71082">
        <ele>1599</ele>
        <time>2021-08-06T11:43:48.090Z</time>
      </trkpt>
      <trkpt lat="46.94278" lon="8.71082">
        <ele>1600</ele>
        <time>2021-08-06T11:43:49.090Z</time>
      </trkpt>
      <trkpt lat="46.94278" lon="8.71081">
        <ele>1600</ele>
        <time>2021-08-06T11:43:50.090Z</time>
      </trkpt>
      <trkpt lat="46.94277" lon="8.7108">
        <ele>1600</ele>
        <time>2021-08-06T11:43:51.090Z</time>
      </trkpt>
      <trkpt lat="46.94277" lon="8.7108">
        <ele>1600</ele>
        <time>2021-08-06T11:43:52.090Z</time>
      </trkpt>
      <trkpt lat="46.94277" lon="8.7108">
        <ele>1601</ele>
        <time>2021-08-06T11:43:53.090Z</time>
      </trkpt>
      <trkpt lat="46.94276" lon="8.71079">
        <ele>1601</ele>
        <time>2021-08-06T11:43:54.090Z</time>
      </trkpt>
      <trkpt lat="46.94276" lon="8.71078">
        <ele>1601</ele>
        <time>2021-08-06T11:43:55.090Z</time>
      </trkpt>
      <trkpt lat="46.94276" lon="8.71077">
        <ele>1601</ele>
        <time>2021-08-06T11:43:56.090Z</time>
      </trkpt>
      <trkpt lat="46.94276" lon="8.71076">
        <ele>1601</ele>
        <time>2021-08-06T11:43:57.090Z</time>
      </trkpt>
      <trkpt lat="46.94275" lon="8.71076">
        <ele>1601</ele>
        <time>2021-08-06T11:43:58.091Z</time>
      </trkpt>
      <trkpt lat="46.94275" lon="8.71075">
        <ele>1602</ele>
        <time>2021-08-06T11:43:59.090Z</time>
      </trkpt>
      <trkpt lat="46.94275" lon="8.71075">
        <ele>1602</ele>
        <time>2021-08-06T11:44:00.090Z</time>
      </trkpt>
      <trkpt lat="46.94274" lon="8.71075">
        <ele>1602</ele>
        <time>2021-08-06T11:44:01.090Z</time>
      </trkpt>
      <trkpt lat="46.94274" lon="8.71074">
        <ele>1602</ele>
        <time>2021-08-06T11:44:02.090Z</time>
      </trkpt>
      <trkpt lat="46.94275" lon="8.71074">
        <ele>1602</ele>
        <time>2021-08-06T11:44:03.090Z</time>
      </trkpt>
      <trkpt lat="46.94274" lon="8.71073">
        <ele>1603</ele>
        <time>2021-08-06T11:44:04.090Z</time>
      </trkpt>
      <trkpt lat="46.94274" lon="8.71072">
        <ele>1603</ele>
        <time>2021-08-06T11:44:07.126Z</time>
      </trkpt>
      <trkpt lat="46.94274" lon="8.71071">
        <ele>1603</ele>
        <time>2021-08-06T11:44:08.125Z</time>
      </trkpt>
      <trkpt lat="46.94274" lon="8.71071">
        <ele>1604</ele>
        <time>2021-08-06T11:44:09.126Z</time>
      </trkpt>
      <trkpt lat="46.94273" lon="8.71069">
        <ele>1604</ele>
        <time>2021-08-06T11:44:10.126Z</time>
      </trkpt>
      <trkpt lat="46.94272" lon="8.71068">
        <ele>1604</ele>
        <time>2021-08-06T11:44:11.126Z</time>
      </trkpt>
      <trkpt lat="46.94272" lon="8.71067">
        <ele>1604</ele>
        <time>2021-08-06T11:44:12.126Z</time>
      </trkpt>
      <trkpt lat="46.94272" lon="8.71066">
        <ele>1605</ele>
        <time>2021-08-06T11:44:13.126Z</time>
      </trkpt>
      <trkpt lat="46.94271" lon="8.71066">
        <ele>1605</ele>
        <time>2021-08-06T11:44:14.126Z</time>
      </trkpt>
      <trkpt lat="46.94271" lon="8.71066">
        <ele>1605</ele>
        <time>2021-08-06T11:44:15.126Z</time>
      </trkpt>
      <trkpt lat="46.9427" lon="8.71066">
        <ele>1605</ele>
        <time>2021-08-06T11:44:16.126Z</time>
      </trkpt>
      <trkpt lat="46.9427" lon="8.71066">
        <ele>1606</ele>
        <time>2021-08-06T11:44:17.126Z</time>
      </trkpt>
      <trkpt lat="46.94271" lon="8.71065">
        <ele>1606</ele>
        <time>2021-08-06T11:44:18.126Z</time>
      </trkpt>
      <trkpt lat="46.9427" lon="8.71064">
        <ele>1606</ele>
        <time>2021-08-06T11:44:19.126Z</time>
      </trkpt>
      <trkpt lat="46.9427" lon="8.71064">
        <ele>1606</ele>
        <time>2021-08-06T11:44:20.126Z</time>
      </trkpt>
      <trkpt lat="46.9427" lon="8.71064">
        <ele>1606</ele>
        <time>2021-08-06T11:44:21.126Z</time>
      </trkpt>
      <trkpt lat="46.9427" lon="8.71064">
        <ele>1607</ele>
        <time>2021-08-06T11:44:22.125Z</time>
      </trkpt>
      <trkpt lat="46.94269" lon="8.71065">
        <ele>1608</ele>
        <time>2021-08-06T11:44:23.126Z</time>
      </trkpt>
      <trkpt lat="46.9427" lon="8.71065">
        <ele>1608</ele>
        <time>2021-08-06T11:44:25.228Z</time>
      </trkpt>
      <trkpt lat="46.9427" lon="8.71065">
        <ele>1609</ele>
        <time>2021-08-06T11:44:26.227Z</time>
      </trkpt>
      <trkpt lat="46.94269" lon="8.71064">
        <ele>1609</ele>
        <time>2021-08-06T11:44:27.227Z</time>
      </trkpt>
      <trkpt lat="46.94269" lon="8.71063">
        <ele>1609</ele>
        <time>2021-08-06T11:44:28.227Z</time>
      </trkpt>
      <trkpt lat="46.94269" lon="8.71063">
        <ele>1610</ele>
        <time>2021-08-06T11:44:29.227Z</time>
      </trkpt>
      <trkpt lat="46.94268" lon="8.71062">
        <ele>1610</ele>
        <time>2021-08-06T11:44:30.228Z</time>
      </trkpt>
      <trkpt lat="46.94268" lon="8.7106">
        <ele>1610</ele>
        <time>2021-08-06T11:44:31.227Z</time>
      </trkpt>
      <trkpt lat="46.94269" lon="8.71059">
        <ele>1610</ele>
        <time>2021-08-06T11:44:32.228Z</time>
      </trkpt>
      <trkpt lat="46.94269" lon="8.71058">
        <ele>1610</ele>
        <time>2021-08-06T11:44:33.227Z</time>
      </trkpt>
      <trkpt lat="46.94268" lon="8.71057">
        <ele>1610</ele>
        <time>2021-08-06T11:44:34.227Z</time>
      </trkpt>
      <trkpt lat="46.94268" lon="8.71057">
        <ele>1610</ele>
        <time>2021-08-06T11:44:35.227Z</time>
      </trkpt>
      <trkpt lat="46.94267" lon="8.71056">
        <ele>1610</ele>
        <time>2021-08-06T11:44:36.227Z</time>
      </trkpt>
      <trkpt lat="46.94267" lon="8.71056">
        <ele>1610</ele>
        <time>2021-08-06T11:44:37.227Z</time>
      </trkpt>
      <trkpt lat="46.94266" lon="8.71055">
        <ele>1610</ele>
        <time>2021-08-06T11:44:38.227Z</time>
      </trkpt>
      <trkpt lat="46.94266" lon="8.71054">
        <ele>1611</ele>
        <time>2021-08-06T11:44:39.228Z</time>
      </trkpt>
      <trkpt lat="46.94266" lon="8.71054">
        <ele>1612</ele>
        <time>2021-08-06T11:44:40.227Z</time>
      </trkpt>
      <trkpt lat="46.94266" lon="8.71053">
        <ele>1613</ele>
        <time>2021-08-06T11:44:41.227Z</time>
      </trkpt>
      <trkpt lat="46.94266" lon="8.71052">
        <ele>1613</ele>
        <time>2021-08-06T11:44:42.228Z</time>
      </trkpt>
      <trkpt lat="46.94266" lon="8.71052">
        <ele>1614</ele>
        <time>2021-08-06T11:44:43.228Z</time>
      </trkpt>
      <trkpt lat="46.94267" lon="8.71052">
        <ele>1613</ele>
        <time>2021-08-06T11:44:44.227Z</time>
      </trkpt>
      <trkpt lat="46.94267" lon="8.71052">
        <ele>1613</ele>
        <time>2021-08-06T11:44:45.228Z</time>
      </trkpt>
      <trkpt lat="46.94267" lon="8.71052">
        <ele>1613</ele>
        <time>2021-08-06T11:44:46.228Z</time>
      </trkpt>
      <trkpt lat="46.94266" lon="8.71051">
        <ele>1614</ele>
        <time>2021-08-06T11:44:47.227Z</time>
      </trkpt>
      <trkpt lat="46.94266" lon="8.71051">
        <ele>1614</ele>
        <time>2021-08-06T11:44:48.228Z</time>
      </trkpt>
      <trkpt lat="46.94265" lon="8.71051">
        <ele>1615</ele>
        <time>2021-08-06T11:44:49.228Z</time>
      </trkpt>
      <trkpt lat="46.94265" lon="8.7105">
        <ele>1615</ele>
        <time>2021-08-06T11:44:50.228Z</time>
      </trkpt>
      <trkpt lat="46.94265" lon="8.7105">
        <ele>1616</ele>
        <time>2021-08-06T11:44:51.228Z</time>
      </trkpt>
      <trkpt lat="46.94265" lon="8.7105">
        <ele>1616</ele>
        <time>2021-08-06T11:44:52.227Z</time>
      </trkpt>
      <trkpt lat="46.94264" lon="8.71048">
        <ele>1618</ele>
        <time>2021-08-06T11:44:53.229Z</time>
      </trkpt>
      <trkpt lat="46.94263" lon="8.71048">
        <ele>1618</ele>
        <time>2021-08-06T11:44:54.229Z</time>
      </trkpt>
      <trkpt lat="46.94263" lon="8.71048">
        <ele>1617</ele>
        <time>2021-08-06T11:44:55.228Z</time>
      </trkpt>
      <trkpt lat="46.94262" lon="8.71048">
        <ele>1617</ele>
        <time>2021-08-06T11:44:56.228Z</time>
      </trkpt>
      <trkpt lat="46.94261" lon="8.71047">
        <ele>1617</ele>
        <time>2021-08-06T11:44:57.228Z</time>
      </trkpt>
      <trkpt lat="46.94261" lon="8.71046">
        <ele>1617</ele>
        <time>2021-08-06T11:44:58.229Z</time>
      </trkpt>
      <trkpt lat="46.9426" lon="8.71046">
        <ele>1617</ele>
        <time>2021-08-06T11:44:59.228Z</time>
      </trkpt>
      <trkpt lat="46.9426" lon="8.71045">
        <ele>1617</ele>
        <time>2021-08-06T11:45:00.228Z</time>
      </trkpt>
      <trkpt lat="46.9426" lon="8.71044">
        <ele>1617</ele>
        <time>2021-08-06T11:45:01.228Z</time>
      </trkpt>
      <trkpt lat="46.94259" lon="8.71043">
        <ele>1617</ele>
        <time>2021-08-06T11:45:02.229Z</time>
      </trkpt>
      <trkpt lat="46.94258" lon="8.71043">
        <ele>1616</ele>
        <time>2021-08-06T11:45:03.229Z</time>
      </trkpt>
      <trkpt lat="46.94258" lon="8.71042">
        <ele>1616</ele>
        <time>2021-08-06T11:45:04.228Z</time>
      </trkpt>
      <trkpt lat="46.94258" lon="8.71042">
        <ele>1616</ele>
        <time>2021-08-06T11:45:05.228Z</time>
      </trkpt>
      <trkpt lat="46.94257" lon="8.71041">
        <ele>1615</ele>
        <time>2021-08-06T11:45:06.228Z</time>
      </trkpt>
      <trkpt lat="46.94257" lon="8.7104">
        <ele>1615</ele>
        <time>2021-08-06T11:45:07.228Z</time>
      </trkpt>
      <trkpt lat="46.94256" lon="8.7104">
        <ele>1615</ele>
        <time>2021-08-06T11:45:08.229Z</time>
      </trkpt>
      <trkpt lat="46.94255" lon="8.71039">
        <ele>1614</ele>
        <time>2021-08-06T11:45:12.379Z</time>
      </trkpt>
      <trkpt lat="46.94254" lon="8.71039">
        <ele>1613</ele>
        <time>2021-08-06T11:45:13.379Z</time>
      </trkpt>
      <trkpt lat="46.94253" lon="8.71038">
        <ele>1613</ele>
        <time>2021-08-06T11:45:14.379Z</time>
      </trkpt>
      <trkpt lat="46.94253" lon="8.71038">
        <ele>1613</ele>
        <time>2021-08-06T11:45:15.379Z</time>
      </trkpt>
      <trkpt lat="46.94252" lon="8.71038">
        <ele>1612</ele>
        <time>2021-08-06T11:45:16.379Z</time>
      </trkpt>
      <trkpt lat="46.94252" lon="8.71037">
        <ele>1612</ele>
        <time>2021-08-06T11:45:17.379Z</time>
      </trkpt>
      <trkpt lat="46.94251" lon="8.71037">
        <ele>1612</ele>
        <time>2021-08-06T11:45:18.379Z</time>
      </trkpt>
      <trkpt lat="46.94251" lon="8.71037">
        <ele>1612</ele>
        <time>2021-08-06T11:45:19.379Z</time>
      </trkpt>
      <trkpt lat="46.94251" lon="8.71037">
        <ele>1612</ele>
        <time>2021-08-06T11:45:20.379Z</time>
      </trkpt>
      <trkpt lat="46.9425" lon="8.71037">
        <ele>1612</ele>
        <time>2021-08-06T11:45:21.379Z</time>
      </trkpt>
      <trkpt lat="46.9425" lon="8.71037">
        <ele>1613</ele>
        <time>2021-08-06T11:45:22.379Z</time>
      </trkpt>
      <trkpt lat="46.9425" lon="8.71037">
        <ele>1613</ele>
        <time>2021-08-06T11:45:23.379Z</time>
      </trkpt>
      <trkpt lat="46.94249" lon="8.71038">
        <ele>1612</ele>
        <time>2021-08-06T11:45:24.380Z</time>
      </trkpt>
      <trkpt lat="46.94249" lon="8.71037">
        <ele>1612</ele>
        <time>2021-08-06T11:45:25.379Z</time>
      </trkpt>
      <trkpt lat="46.94249" lon="8.71036">
        <ele>1612</ele>
        <time>2021-08-06T11:45:26.380Z</time>
      </trkpt>
      <trkpt lat="46.94248" lon="8.71036">
        <ele>1612</ele>
        <time>2021-08-06T11:45:27.379Z</time>
      </trkpt>
      <trkpt lat="46.94248" lon="8.71035">
        <ele>1612</ele>
        <time>2021-08-06T11:45:28.379Z</time>
      </trkpt>
      <trkpt lat="46.94247" lon="8.71035">
        <ele>1613</ele>
        <time>2021-08-06T11:45:29.379Z</time>
      </trkpt>
      <trkpt lat="46.94246" lon="8.71034">
        <ele>1613</ele>
        <time>2021-08-06T11:45:30.379Z</time>
      </trkpt>
      <trkpt lat="46.94245" lon="8.71034">
        <ele>1613</ele>
        <time>2021-08-06T11:45:31.379Z</time>
      </trkpt>
      <trkpt lat="46.94245" lon="8.71034">
        <ele>1612</ele>
        <time>2021-08-06T11:45:40.393Z</time>
      </trkpt>
      <trkpt lat="46.94244" lon="8.71033">
        <ele>1612</ele>
        <time>2021-08-06T11:45:41.393Z</time>
      </trkpt>
      <trkpt lat="46.94244" lon="8.71032">
        <ele>1612</ele>
        <time>2021-08-06T11:45:42.393Z</time>
      </trkpt>
      <trkpt lat="46.94244" lon="8.71031">
        <ele>1612</ele>
        <time>2021-08-06T11:45:43.393Z</time>
      </trkpt>
      <trkpt lat="46.94244" lon="8.71031">
        <ele>1612</ele>
        <time>2021-08-06T11:45:44.393Z</time>
      </trkpt>
      <trkpt lat="46.94244" lon="8.7103">
        <ele>1612</ele>
        <time>2021-08-06T11:45:45.392Z</time>
      </trkpt>
      <trkpt lat="46.94244" lon="8.7103">
        <ele>1613</ele>
        <time>2021-08-06T11:45:46.393Z</time>
      </trkpt>
      <trkpt lat="46.94244" lon="8.71029">
        <ele>1613</ele>
        <time>2021-08-06T11:45:47.393Z</time>
      </trkpt>
      <trkpt lat="46.94243" lon="8.71029">
        <ele>1613</ele>
        <time>2021-08-06T11:45:48.393Z</time>
      </trkpt>
      <trkpt lat="46.94243" lon="8.71028">
        <ele>1612</ele>
        <time>2021-08-06T11:45:49.392Z</time>
      </trkpt>
      <trkpt lat="46.94242" lon="8.71027">
        <ele>1612</ele>
        <time>2021-08-06T11:45:50.392Z</time>
      </trkpt>
      <trkpt lat="46.94242" lon="8.71027">
        <ele>1611</ele>
        <time>2021-08-06T11:45:51.393Z</time>
      </trkpt>
      <trkpt lat="46.94242" lon="8.71026">
        <ele>1611</ele>
        <time>2021-08-06T11:45:52.392Z</time>
      </trkpt>
      <trkpt lat="46.94242" lon="8.71026">
        <ele>1610</ele>
        <time>2021-08-06T11:45:53.393Z</time>
      </trkpt>
      <trkpt lat="46.94241" lon="8.71025">
        <ele>1610</ele>
        <time>2021-08-06T11:45:54.393Z</time>
      </trkpt>
      <trkpt lat="46.94241" lon="8.71024">
        <ele>1610</ele>
        <time>2021-08-06T11:45:55.392Z</time>
      </trkpt>
      <trkpt lat="46.9424" lon="8.71024">
        <ele>1609</ele>
        <time>2021-08-06T11:45:56.393Z</time>
      </trkpt>
      <trkpt lat="46.9424" lon="8.71023">
        <ele>1609</ele>
        <time>2021-08-06T11:45:57.392Z</time>
      </trkpt>
      <trkpt lat="46.94239" lon="8.71022">
        <ele>1610</ele>
        <time>2021-08-06T11:45:58.393Z</time>
      </trkpt>
      <trkpt lat="46.94239" lon="8.71022">
        <ele>1610</ele>
        <time>2021-08-06T11:45:59.392Z</time>
      </trkpt>
      <trkpt lat="46.94238" lon="8.71021">
        <ele>1611</ele>
        <time>2021-08-06T11:46:00.393Z</time>
      </trkpt>
      <trkpt lat="46.94238" lon="8.71021">
        <ele>1611</ele>
        <time>2021-08-06T11:46:01.393Z</time>
      </trkpt>
      <trkpt lat="46.94237" lon="8.7102">
        <ele>1612</ele>
        <time>2021-08-06T11:46:02.393Z</time>
      </trkpt>
      <trkpt lat="46.94237" lon="8.71019">
        <ele>1612</ele>
        <time>2021-08-06T11:46:03.393Z</time>
      </trkpt>
      <trkpt lat="46.94236" lon="8.71018">
        <ele>1613</ele>
        <time>2021-08-06T11:46:04.393Z</time>
      </trkpt>
      <trkpt lat="46.94236" lon="8.71018">
        <ele>1614</ele>
        <time>2021-08-06T11:46:05.392Z</time>
      </trkpt>
      <trkpt lat="46.94235" lon="8.71017">
        <ele>1614</ele>
        <time>2021-08-06T11:46:06.392Z</time>
      </trkpt>
      <trkpt lat="46.94235" lon="8.71016">
        <ele>1615</ele>
        <time>2021-08-06T11:46:07.392Z</time>
      </trkpt>
      <trkpt lat="46.94235" lon="8.71016">
        <ele>1616</ele>
        <time>2021-08-06T11:46:08.393Z</time>
      </trkpt>
      <trkpt lat="46.94234" lon="8.71016">
        <ele>1616</ele>
        <time>2021-08-06T11:46:09.392Z</time>
      </trkpt>
      <trkpt lat="46.94234" lon="8.71015">
        <ele>1617</ele>
        <time>2021-08-06T11:46:10.393Z</time>
      </trkpt>
      <trkpt lat="46.94234" lon="8.71014">
        <ele>1618</ele>
        <time>2021-08-06T11:46:11.393Z</time>
      </trkpt>
      <trkpt lat="46.94233" lon="8.71014">
        <ele>1619</ele>
        <time>2021-08-06T11:46:12.393Z</time>
      </trkpt>
      <trkpt lat="46.94233" lon="8.71013">
        <ele>1619</ele>
        <time>2021-08-06T11:46:13.392Z</time>
      </trkpt>
      <trkpt lat="46.94232" lon="8.71013">
        <ele>1620</ele>
        <time>2021-08-06T11:46:14.392Z</time>
      </trkpt>
      <trkpt lat="46.94232" lon="8.71013">
        <ele>1620</ele>
        <time>2021-08-06T11:46:15.393Z</time>
      </trkpt>
      <trkpt lat="46.94232" lon="8.71013">
        <ele>1620</ele>
        <time>2021-08-06T11:46:16.392Z</time>
      </trkpt>
      <trkpt lat="46.94231" lon="8.71013">
        <ele>1620</ele>
        <time>2021-08-06T11:46:17.393Z</time>
      </trkpt>
      <trkpt lat="46.9423" lon="8.71012">
        <ele>1619</ele>
        <time>2021-08-06T11:46:18.393Z</time>
      </trkpt>
      <trkpt lat="46.9423" lon="8.71012">
        <ele>1619</ele>
        <time>2021-08-06T11:46:19.393Z</time>
      </trkpt>
      <trkpt lat="46.9423" lon="8.71011">
        <ele>1620</ele>
        <time>2021-08-06T11:46:20.393Z</time>
      </trkpt>
      <trkpt lat="46.9423" lon="8.71011">
        <ele>1620</ele>
        <time>2021-08-06T11:46:21.393Z</time>
      </trkpt>
      <trkpt lat="46.94229" lon="8.7101">
        <ele>1620</ele>
        <time>2021-08-06T11:46:22.393Z</time>
      </trkpt>
      <trkpt lat="46.94229" lon="8.7101">
        <ele>1620</ele>
        <time>2021-08-06T11:46:23.393Z</time>
      </trkpt>
      <trkpt lat="46.94229" lon="8.71009">
        <ele>1619</ele>
        <time>2021-08-06T11:46:24.393Z</time>
      </trkpt>
      <trkpt lat="46.94229" lon="8.71008">
        <ele>1619</ele>
        <time>2021-08-06T11:46:25.392Z</time>
      </trkpt>
      <trkpt lat="46.94229" lon="8.71008">
        <ele>1619</ele>
        <time>2021-08-06T11:46:26.392Z</time>
      </trkpt>
      <trkpt lat="46.94228" lon="8.71008">
        <ele>1619</ele>
        <time>2021-08-06T11:46:27.393Z</time>
      </trkpt>
      <trkpt lat="46.94228" lon="8.71007">
        <ele>1619</ele>
        <time>2021-08-06T11:46:28.392Z</time>
      </trkpt>
      <trkpt lat="46.94228" lon="8.71006">
        <ele>1619</ele>
        <time>2021-08-06T11:46:29.392Z</time>
      </trkpt>
      <trkpt lat="46.94228" lon="8.71006">
        <ele>1619</ele>
        <time>2021-08-06T11:46:30.393Z</time>
      </trkpt>
      <trkpt lat="46.94229" lon="8.71005">
        <ele>1620</ele>
        <time>2021-08-06T11:46:31.392Z</time>
      </trkpt>
      <trkpt lat="46.94229" lon="8.71005">
        <ele>1621</ele>
        <time>2021-08-06T11:46:32.393Z</time>
      </trkpt>
      <trkpt lat="46.94229" lon="8.71004">
        <ele>1621</ele>
        <time>2021-08-06T11:46:33.393Z</time>
      </trkpt>
      <trkpt lat="46.94228" lon="8.71004">
        <ele>1621</ele>
        <time>2021-08-06T11:46:34.393Z</time>
      </trkpt>
      <trkpt lat="46.94228" lon="8.71003">
        <ele>1622</ele>
        <time>2021-08-06T11:46:35.392Z</time>
      </trkpt>
      <trkpt lat="46.94228" lon="8.71003">
        <ele>1622</ele>
        <time>2021-08-06T11:46:36.393Z</time>
      </trkpt>
      <trkpt lat="46.94228" lon="8.71002">
        <ele>1622</ele>
        <time>2021-08-06T11:46:37.393Z</time>
      </trkpt>
      <trkpt lat="46.94227" lon="8.71001">
        <ele>1623</ele>
        <time>2021-08-06T11:46:38.392Z</time>
      </trkpt>
      <trkpt lat="46.94227" lon="8.71">
        <ele>1623</ele>
        <time>2021-08-06T11:46:39.393Z</time>
      </trkpt>
      <trkpt lat="46.94226" lon="8.71">
        <ele>1623</ele>
        <time>2021-08-06T11:46:40.393Z</time>
      </trkpt>
      <trkpt lat="46.94226" lon="8.70999">
        <ele>1624</ele>
        <time>2021-08-06T11:46:41.393Z</time>
      </trkpt>
      <trkpt lat="46.94226" lon="8.70998">
        <ele>1624</ele>
        <time>2021-08-06T11:46:42.393Z</time>
      </trkpt>
      <trkpt lat="46.94225" lon="8.70998">
        <ele>1624</ele>
        <time>2021-08-06T11:46:43.393Z</time>
      </trkpt>
      <trkpt lat="46.94225" lon="8.70997">
        <ele>1624</ele>
        <time>2021-08-06T11:46:44.393Z</time>
      </trkpt>
      <trkpt lat="46.94225" lon="8.70996">
        <ele>1624</ele>
        <time>2021-08-06T11:46:45.392Z</time>
      </trkpt>
      <trkpt lat="46.94225" lon="8.70995">
        <ele>1624</ele>
        <time>2021-08-06T11:46:46.393Z</time>
      </trkpt>
      <trkpt lat="46.94225" lon="8.70994">
        <ele>1624</ele>
        <time>2021-08-06T11:46:47.393Z</time>
      </trkpt>
      <trkpt lat="46.94224" lon="8.70994">
        <ele>1624</ele>
        <time>2021-08-06T11:46:48.392Z</time>
      </trkpt>
      <trkpt lat="46.94224" lon="8.70994">
        <ele>1624</ele>
        <time>2021-08-06T11:46:49.393Z</time>
      </trkpt>
      <trkpt lat="46.94223" lon="8.70993">
        <ele>1624</ele>
        <time>2021-08-06T11:46:50.392Z</time>
      </trkpt>
      <trkpt lat="46.94224" lon="8.70993">
        <ele>1625</ele>
        <time>2021-08-06T11:46:51.393Z</time>
      </trkpt>
      <trkpt lat="46.94224" lon="8.70992">
        <ele>1625</ele>
        <time>2021-08-06T11:46:52.393Z</time>
      </trkpt>
      <trkpt lat="46.94224" lon="8.70991">
        <ele>1625</ele>
        <time>2021-08-06T11:46:53.392Z</time>
      </trkpt>
      <trkpt lat="46.94224" lon="8.70991">
        <ele>1626</ele>
        <time>2021-08-06T11:46:54.392Z</time>
      </trkpt>
      <trkpt lat="46.94224" lon="8.7099">
        <ele>1626</ele>
        <time>2021-08-06T11:46:55.393Z</time>
      </trkpt>
      <trkpt lat="46.94224" lon="8.70989">
        <ele>1627</ele>
        <time>2021-08-06T11:46:56.392Z</time>
      </trkpt>
      <trkpt lat="46.94224" lon="8.70988">
        <ele>1628</ele>
        <time>2021-08-06T11:46:57.392Z</time>
      </trkpt>
      <trkpt lat="46.94224" lon="8.70987">
        <ele>1629</ele>
        <time>2021-08-06T11:46:58.392Z</time>
      </trkpt>
      <trkpt lat="46.94224" lon="8.70986">
        <ele>1630</ele>
        <time>2021-08-06T11:46:59.393Z</time>
      </trkpt>
      <trkpt lat="46.94223" lon="8.70985">
        <ele>1631</ele>
        <time>2021-08-06T11:47:00.393Z</time>
      </trkpt>
      <trkpt lat="46.94223" lon="8.70985">
        <ele>1631</ele>
        <time>2021-08-06T11:47:01.393Z</time>
      </trkpt>
      <trkpt lat="46.94223" lon="8.70984">
        <ele>1631</ele>
        <time>2021-08-06T11:47:02.393Z</time>
      </trkpt>
      <trkpt lat="46.94222" lon="8.70984">
        <ele>1631</ele>
        <time>2021-08-06T11:47:03.392Z</time>
      </trkpt>
      <trkpt lat="46.94221" lon="8.70983">
        <ele>1631</ele>
        <time>2021-08-06T11:47:04.392Z</time>
      </trkpt>
      <trkpt lat="46.94221" lon="8.70983">
        <ele>1631</ele>
        <time>2021-08-06T11:47:05.392Z</time>
      </trkpt>
      <trkpt lat="46.94221" lon="8.70982">
        <ele>1631</ele>
        <time>2021-08-06T11:47:06.393Z</time>
      </trkpt>
      <trkpt lat="46.94221" lon="8.70981">
        <ele>1631</ele>
        <time>2021-08-06T11:47:07.393Z</time>
      </trkpt>
      <trkpt lat="46.94221" lon="8.7098">
        <ele>1631</ele>
        <time>2021-08-06T11:47:08.393Z</time>
      </trkpt>
      <trkpt lat="46.94221" lon="8.70979">
        <ele>1632</ele>
        <time>2021-08-06T11:47:09.393Z</time>
      </trkpt>
      <trkpt lat="46.9422" lon="8.70978">
        <ele>1632</ele>
        <time>2021-08-06T11:47:10.392Z</time>
      </trkpt>
      <trkpt lat="46.9422" lon="8.70977">
        <ele>1633</ele>
        <time>2021-08-06T11:47:11.392Z</time>
      </trkpt>
      <trkpt lat="46.94219" lon="8.70977">
        <ele>1633</ele>
        <time>2021-08-06T11:47:12.393Z</time>
      </trkpt>
      <trkpt lat="46.94218" lon="8.70976">
        <ele>1634</ele>
        <time>2021-08-06T11:47:13.393Z</time>
      </trkpt>
      <trkpt lat="46.94218" lon="8.70974">
        <ele>1634</ele>
        <time>2021-08-06T11:47:14.393Z</time>
      </trkpt>
      <trkpt lat="46.94217" lon="8.70974">
        <ele>1634</ele>
        <time>2021-08-06T11:47:15.393Z</time>
      </trkpt>
      <trkpt lat="46.94216" lon="8.70972">
        <ele>1634</ele>
        <time>2021-08-06T11:47:16.393Z</time>
      </trkpt>
      <trkpt lat="46.94215" lon="8.70972">
        <ele>1634</ele>
        <time>2021-08-06T11:47:17.393Z</time>
      </trkpt>
      <trkpt lat="46.94214" lon="8.70971">
        <ele>1634</ele>
        <time>2021-08-06T11:47:18.392Z</time>
      </trkpt>
      <trkpt lat="46.94213" lon="8.7097">
        <ele>1634</ele>
        <time>2021-08-06T11:47:19.392Z</time>
      </trkpt>
      <trkpt lat="46.94213" lon="8.70969">
        <ele>1633</ele>
        <time>2021-08-06T11:47:20.393Z</time>
      </trkpt>
      <trkpt lat="46.94212" lon="8.70969">
        <ele>1633</ele>
        <time>2021-08-06T11:47:21.393Z</time>
      </trkpt>
      <trkpt lat="46.94211" lon="8.70967">
        <ele>1632</ele>
        <time>2021-08-06T11:47:22.393Z</time>
      </trkpt>
      <trkpt lat="46.94211" lon="8.70966">
        <ele>1632</ele>
        <time>2021-08-06T11:47:23.392Z</time>
      </trkpt>
      <trkpt lat="46.94211" lon="8.70965">
        <ele>1632</ele>
        <time>2021-08-06T11:47:24.393Z</time>
      </trkpt>
      <trkpt lat="46.9421" lon="8.70964">
        <ele>1632</ele>
        <time>2021-08-06T11:47:25.393Z</time>
      </trkpt>
      <trkpt lat="46.9421" lon="8.70963">
        <ele>1632</ele>
        <time>2021-08-06T11:47:26.393Z</time>
      </trkpt>
      <trkpt lat="46.94209" lon="8.70962">
        <ele>1631</ele>
        <time>2021-08-06T11:47:27.393Z</time>
      </trkpt>
      <trkpt lat="46.94208" lon="8.7096">
        <ele>1630</ele>
        <time>2021-08-06T11:47:28.393Z</time>
      </trkpt>
      <trkpt lat="46.94208" lon="8.7096">
        <ele>1629</ele>
        <time>2021-08-06T11:47:29.393Z</time>
      </trkpt>
      <trkpt lat="46.94208" lon="8.70959">
        <ele>1628</ele>
        <time>2021-08-06T11:47:30.392Z</time>
      </trkpt>
      <trkpt lat="46.94207" lon="8.70959">
        <ele>1627</ele>
        <time>2021-08-06T11:47:31.393Z</time>
      </trkpt>
      <trkpt lat="46.94207" lon="8.70958">
        <ele>1627</ele>
        <time>2021-08-06T11:47:32.392Z</time>
      </trkpt>
      <trkpt lat="46.94207" lon="8.70957">
        <ele>1627</ele>
        <time>2021-08-06T11:47:33.393Z</time>
      </trkpt>
      <trkpt lat="46.94207" lon="8.70957">
        <ele>1627</ele>
        <time>2021-08-06T11:47:34.393Z</time>
      </trkpt>
      <trkpt lat="46.94207" lon="8.70956">
        <ele>1627</ele>
        <time>2021-08-06T11:47:35.393Z</time>
      </trkpt>
      <trkpt lat="46.94207" lon="8.70955">
        <ele>1627</ele>
        <time>2021-08-06T11:47:36.393Z</time>
      </trkpt>
      <trkpt lat="46.94207" lon="8.70954">
        <ele>1627</ele>
        <time>2021-08-06T11:47:37.392Z</time>
      </trkpt>
      <trkpt lat="46.94207" lon="8.70953">
        <ele>1627</ele>
        <time>2021-08-06T11:47:38.393Z</time>
      </trkpt>
      <trkpt lat="46.94207" lon="8.70952">
        <ele>1626</ele>
        <time>2021-08-06T11:47:39.393Z</time>
      </trkpt>
      <trkpt lat="46.94206" lon="8.70951">
        <ele>1626</ele>
        <time>2021-08-06T11:47:40.393Z</time>
      </trkpt>
      <trkpt lat="46.94206" lon="8.70951">
        <ele>1626</ele>
        <time>2021-08-06T11:47:41.393Z</time>
      </trkpt>
      <trkpt lat="46.94205" lon="8.7095">
        <ele>1626</ele>
        <time>2021-08-06T11:47:42.392Z</time>
      </trkpt>
      <trkpt lat="46.94204" lon="8.70949">
        <ele>1626</ele>
        <time>2021-08-06T11:47:43.393Z</time>
      </trkpt>
      <trkpt lat="46.94203" lon="8.70948">
        <ele>1627</ele>
        <time>2021-08-06T11:47:44.393Z</time>
      </trkpt>
      <trkpt lat="46.94203" lon="8.70947">
        <ele>1627</ele>
        <time>2021-08-06T11:47:45.392Z</time>
      </trkpt>
      <trkpt lat="46.94203" lon="8.70946">
        <ele>1627</ele>
        <time>2021-08-06T11:47:46.393Z</time>
      </trkpt>
      <trkpt lat="46.94202" lon="8.70944">
        <ele>1628</ele>
        <time>2021-08-06T11:47:47.392Z</time>
      </trkpt>
      <trkpt lat="46.94202" lon="8.70943">
        <ele>1628</ele>
        <time>2021-08-06T11:47:48.393Z</time>
      </trkpt>
      <trkpt lat="46.94201" lon="8.70942">
        <ele>1628</ele>
        <time>2021-08-06T11:47:49.393Z</time>
      </trkpt>
      <trkpt lat="46.94201" lon="8.70939">
        <ele>1628</ele>
        <time>2021-08-06T11:47:50.392Z</time>
      </trkpt>
      <trkpt lat="46.942" lon="8.70937">
        <ele>1629</ele>
        <time>2021-08-06T11:47:51.393Z</time>
      </trkpt>
      <trkpt lat="46.94199" lon="8.70937">
        <ele>1629</ele>
        <time>2021-08-06T11:47:52.392Z</time>
      </trkpt>
      <trkpt lat="46.94199" lon="8.70936">
        <ele>1629</ele>
        <time>2021-08-06T11:47:53.393Z</time>
      </trkpt>
      <trkpt lat="46.94199" lon="8.70937">
        <ele>1630</ele>
        <time>2021-08-06T11:47:54.393Z</time>
      </trkpt>
      <trkpt lat="46.94199" lon="8.70936">
        <ele>1630</ele>
        <time>2021-08-06T11:47:55.393Z</time>
      </trkpt>
      <trkpt lat="46.94198" lon="8.70935">
        <ele>1630</ele>
        <time>2021-08-06T11:47:56.392Z</time>
      </trkpt>
      <trkpt lat="46.94198" lon="8.70934">
        <ele>1630</ele>
        <time>2021-08-06T11:47:57.393Z</time>
      </trkpt>
      <trkpt lat="46.94197" lon="8.70933">
        <ele>1631</ele>
        <time>2021-08-06T11:47:58.393Z</time>
      </trkpt>
      <trkpt lat="46.94196" lon="8.70932">
        <ele>1631</ele>
        <time>2021-08-06T11:47:59.392Z</time>
      </trkpt>
      <trkpt lat="46.94196" lon="8.70931">
        <ele>1632</ele>
        <time>2021-08-06T11:48:00.393Z</time>
      </trkpt>
      <trkpt lat="46.94195" lon="8.7093">
        <ele>1632</ele>
        <time>2021-08-06T11:48:01.393Z</time>
      </trkpt>
      <trkpt lat="46.94195" lon="8.70929">
        <ele>1633</ele>
        <time>2021-08-06T11:48:02.393Z</time>
      </trkpt>
      <trkpt lat="46.94195" lon="8.70928">
        <ele>1633</ele>
        <time>2021-08-06T11:48:03.392Z</time>
      </trkpt>
      <trkpt lat="46.94194" lon="8.70927">
        <ele>1633</ele>
        <time>2021-08-06T11:48:04.393Z</time>
      </trkpt>
      <trkpt lat="46.94193" lon="8.70926">
        <ele>1633</ele>
        <time>2021-08-06T11:48:05.393Z</time>
      </trkpt>
      <trkpt lat="46.94192" lon="8.70925">
        <ele>1633</ele>
        <time>2021-08-06T11:48:06.393Z</time>
      </trkpt>
      <trkpt lat="46.94191" lon="8.70923">
        <ele>1633</ele>
        <time>2021-08-06T11:48:07.393Z</time>
      </trkpt>
      <trkpt lat="46.94191" lon="8.70922">
        <ele>1634</ele>
        <time>2021-08-06T11:48:08.392Z</time>
      </trkpt>
      <trkpt lat="46.9419" lon="8.70921">
        <ele>1633</ele>
        <time>2021-08-06T11:48:09.392Z</time>
      </trkpt>
      <trkpt lat="46.9419" lon="8.70921">
        <ele>1633</ele>
        <time>2021-08-06T11:48:10.393Z</time>
      </trkpt>
      <trkpt lat="46.94189" lon="8.7092">
        <ele>1634</ele>
        <time>2021-08-06T11:48:11.393Z</time>
      </trkpt>
      <trkpt lat="46.94189" lon="8.70919">
        <ele>1633</ele>
        <time>2021-08-06T11:48:12.393Z</time>
      </trkpt>
      <trkpt lat="46.94189" lon="8.70917">
        <ele>1633</ele>
        <time>2021-08-06T11:48:13.392Z</time>
      </trkpt>
      <trkpt lat="46.94189" lon="8.70916">
        <ele>1632</ele>
        <time>2021-08-06T11:48:14.393Z</time>
      </trkpt>
      <trkpt lat="46.94188" lon="8.70915">
        <ele>1632</ele>
        <time>2021-08-06T11:48:15.392Z</time>
      </trkpt>
      <trkpt lat="46.94188" lon="8.70914">
        <ele>1632</ele>
        <time>2021-08-06T11:48:16.392Z</time>
      </trkpt>
      <trkpt lat="46.94188" lon="8.70913">
        <ele>1633</ele>
        <time>2021-08-06T11:48:17.392Z</time>
      </trkpt>
      <trkpt lat="46.94188" lon="8.70911">
        <ele>1633</ele>
        <time>2021-08-06T11:48:18.393Z</time>
      </trkpt>
      <trkpt lat="46.94187" lon="8.70911">
        <ele>1633</ele>
        <time>2021-08-06T11:48:19.393Z</time>
      </trkpt>
      <trkpt lat="46.94186" lon="8.70911">
        <ele>1634</ele>
        <time>2021-08-06T11:48:20.392Z</time>
      </trkpt>
      <trkpt lat="46.94185" lon="8.7091">
        <ele>1634</ele>
        <time>2021-08-06T11:48:21.393Z</time>
      </trkpt>
      <trkpt lat="46.94184" lon="8.7091">
        <ele>1633</ele>
        <time>2021-08-06T11:48:22.393Z</time>
      </trkpt>
      <trkpt lat="46.94184" lon="8.70908">
        <ele>1633</ele>
        <time>2021-08-06T11:48:23.393Z</time>
      </trkpt>
      <trkpt lat="46.94184" lon="8.70907">
        <ele>1634</ele>
        <time>2021-08-06T11:48:24.393Z</time>
      </trkpt>
      <trkpt lat="46.94183" lon="8.70906">
        <ele>1634</ele>
        <time>2021-08-06T11:48:25.392Z</time>
      </trkpt>
      <trkpt lat="46.94183" lon="8.70905">
        <ele>1634</ele>
        <time>2021-08-06T11:48:26.392Z</time>
      </trkpt>
      <trkpt lat="46.94183" lon="8.70904">
        <ele>1634</ele>
        <time>2021-08-06T11:48:27.392Z</time>
      </trkpt>
      <trkpt lat="46.94182" lon="8.70903">
        <ele>1634</ele>
        <time>2021-08-06T11:48:28.393Z</time>
      </trkpt>
      <trkpt lat="46.94181" lon="8.70902">
        <ele>1634</ele>
        <time>2021-08-06T11:48:29.393Z</time>
      </trkpt>
      <trkpt lat="46.94181" lon="8.70901">
        <ele>1635</ele>
        <time>2021-08-06T11:48:30.392Z</time>
      </trkpt>
      <trkpt lat="46.9418" lon="8.70901">
        <ele>1635</ele>
        <time>2021-08-06T11:48:31.393Z</time>
      </trkpt>
      <trkpt lat="46.9418" lon="8.709">
        <ele>1635</ele>
        <time>2021-08-06T11:48:32.393Z</time>
      </trkpt>
      <trkpt lat="46.94179" lon="8.709">
        <ele>1635</ele>
        <time>2021-08-06T11:48:33.393Z</time>
      </trkpt>
      <trkpt lat="46.94178" lon="8.709">
        <ele>1635</ele>
        <time>2021-08-06T11:48:34.393Z</time>
      </trkpt>
      <trkpt lat="46.94178" lon="8.709">
        <ele>1635</ele>
        <time>2021-08-06T11:48:35.393Z</time>
      </trkpt>
      <trkpt lat="46.94177" lon="8.70899">
        <ele>1635</ele>
        <time>2021-08-06T11:48:36.392Z</time>
      </trkpt>
      <trkpt lat="46.94176" lon="8.70899">
        <ele>1634</ele>
        <time>2021-08-06T11:48:37.392Z</time>
      </trkpt>
      <trkpt lat="46.94175" lon="8.70898">
        <ele>1634</ele>
        <time>2021-08-06T11:48:38.392Z</time>
      </trkpt>
      <trkpt lat="46.94174" lon="8.70898">
        <ele>1634</ele>
        <time>2021-08-06T11:48:39.393Z</time>
      </trkpt>
      <trkpt lat="46.94174" lon="8.70897">
        <ele>1634</ele>
        <time>2021-08-06T11:48:40.393Z</time>
      </trkpt>
      <trkpt lat="46.94173" lon="8.70897">
        <ele>1635</ele>
        <time>2021-08-06T11:48:41.393Z</time>
      </trkpt>
      <trkpt lat="46.94173" lon="8.70897">
        <ele>1635</ele>
        <time>2021-08-06T11:48:42.393Z</time>
      </trkpt>
      <trkpt lat="46.94172" lon="8.70896">
        <ele>1635</ele>
        <time>2021-08-06T11:48:43.393Z</time>
      </trkpt>
      <trkpt lat="46.94171" lon="8.70896">
        <ele>1635</ele>
        <time>2021-08-06T11:48:44.392Z</time>
      </trkpt>
      <trkpt lat="46.94171" lon="8.70895">
        <ele>1635</ele>
        <time>2021-08-06T11:48:45.393Z</time>
      </trkpt>
      <trkpt lat="46.9417" lon="8.70895">
        <ele>1635</ele>
        <time>2021-08-06T11:48:46.393Z</time>
      </trkpt>
      <trkpt lat="46.94169" lon="8.70895">
        <ele>1635</ele>
        <time>2021-08-06T11:48:47.393Z</time>
      </trkpt>
      <trkpt lat="46.94169" lon="8.70894">
        <ele>1635</ele>
        <time>2021-08-06T11:48:48.393Z</time>
      </trkpt>
      <trkpt lat="46.94169" lon="8.70894">
        <ele>1635</ele>
        <time>2021-08-06T11:48:49.393Z</time>
      </trkpt>
      <trkpt lat="46.94168" lon="8.70895">
        <ele>1634</ele>
        <time>2021-08-06T11:48:50.393Z</time>
      </trkpt>
      <trkpt lat="46.94168" lon="8.70895">
        <ele>1634</ele>
        <time>2021-08-06T11:48:51.393Z</time>
      </trkpt>
      <trkpt lat="46.94167" lon="8.70895">
        <ele>1633</ele>
        <time>2021-08-06T11:48:52.393Z</time>
      </trkpt>
      <trkpt lat="46.94167" lon="8.70895">
        <ele>1633</ele>
        <time>2021-08-06T11:48:53.393Z</time>
      </trkpt>
      <trkpt lat="46.94166" lon="8.70895">
        <ele>1633</ele>
        <time>2021-08-06T11:48:54.392Z</time>
      </trkpt>
      <trkpt lat="46.94165" lon="8.70895">
        <ele>1633</ele>
        <time>2021-08-06T11:48:55.393Z</time>
      </trkpt>
      <trkpt lat="46.94164" lon="8.70895">
        <ele>1633</ele>
        <time>2021-08-06T11:48:56.392Z</time>
      </trkpt>
      <trkpt lat="46.94163" lon="8.70896">
        <ele>1632</ele>
        <time>2021-08-06T11:48:57.393Z</time>
      </trkpt>
      <trkpt lat="46.94162" lon="8.70897">
        <ele>1632</ele>
        <time>2021-08-06T11:48:58.393Z</time>
      </trkpt>
      <trkpt lat="46.94161" lon="8.70897">
        <ele>1632</ele>
        <time>2021-08-06T11:48:59.393Z</time>
      </trkpt>
      <trkpt lat="46.9416" lon="8.70897">
        <ele>1632</ele>
        <time>2021-08-06T11:49:00.393Z</time>
      </trkpt>
      <trkpt lat="46.9416" lon="8.70897">
        <ele>1632</ele>
        <time>2021-08-06T11:49:01.393Z</time>
      </trkpt>
      <trkpt lat="46.94159" lon="8.70897">
        <ele>1632</ele>
        <time>2021-08-06T11:49:02.393Z</time>
      </trkpt>
      <trkpt lat="46.94158" lon="8.70897">
        <ele>1632</ele>
        <time>2021-08-06T11:49:03.393Z</time>
      </trkpt>
      <trkpt lat="46.94158" lon="8.70898">
        <ele>1632</ele>
        <time>2021-08-06T11:49:04.393Z</time>
      </trkpt>
      <trkpt lat="46.94157" lon="8.70898">
        <ele>1632</ele>
        <time>2021-08-06T11:49:05.393Z</time>
      </trkpt>
      <trkpt lat="46.94157" lon="8.70898">
        <ele>1631</ele>
        <time>2021-08-06T11:49:06.392Z</time>
      </trkpt>
      <trkpt lat="46.94156" lon="8.70899">
        <ele>1631</ele>
        <time>2021-08-06T11:49:07.393Z</time>
      </trkpt>
      <trkpt lat="46.94156" lon="8.70899">
        <ele>1631</ele>
        <time>2021-08-06T11:49:08.393Z</time>
      </trkpt>
      <trkpt lat="46.94155" lon="8.70899">
        <ele>1631</ele>
        <time>2021-08-06T11:49:09.392Z</time>
      </trkpt>
      <trkpt lat="46.94154" lon="8.709">
        <ele>1631</ele>
        <time>2021-08-06T11:49:10.392Z</time>
      </trkpt>
      <trkpt lat="46.94154" lon="8.709">
        <ele>1631</ele>
        <time>2021-08-06T11:49:11.393Z</time>
      </trkpt>
      <trkpt lat="46.94153" lon="8.709">
        <ele>1631</ele>
        <time>2021-08-06T11:49:12.392Z</time>
      </trkpt>
      <trkpt lat="46.94153" lon="8.709">
        <ele>1631</ele>
        <time>2021-08-06T11:49:13.393Z</time>
      </trkpt>
      <trkpt lat="46.94152" lon="8.70899">
        <ele>1631</ele>
        <time>2021-08-06T11:49:14.393Z</time>
      </trkpt>
      <trkpt lat="46.94151" lon="8.70899">
        <ele>1632</ele>
        <time>2021-08-06T11:49:15.393Z</time>
      </trkpt>
      <trkpt lat="46.94151" lon="8.709">
        <ele>1632</ele>
        <time>2021-08-06T11:49:16.393Z</time>
      </trkpt>
      <trkpt lat="46.9415" lon="8.709">
        <ele>1632</ele>
        <time>2021-08-06T11:49:17.393Z</time>
      </trkpt>
      <trkpt lat="46.94149" lon="8.709">
        <ele>1632</ele>
        <time>2021-08-06T11:49:18.393Z</time>
      </trkpt>
      <trkpt lat="46.94149" lon="8.709">
        <ele>1633</ele>
        <time>2021-08-06T11:49:19.392Z</time>
      </trkpt>
      <trkpt lat="46.94148" lon="8.709">
        <ele>1633</ele>
        <time>2021-08-06T11:49:20.393Z</time>
      </trkpt>
      <trkpt lat="46.94148" lon="8.709">
        <ele>1633</ele>
        <time>2021-08-06T11:49:21.392Z</time>
      </trkpt>
      <trkpt lat="46.94147" lon="8.709">
        <ele>1634</ele>
        <time>2021-08-06T11:49:22.392Z</time>
      </trkpt>
      <trkpt lat="46.94146" lon="8.709">
        <ele>1634</ele>
        <time>2021-08-06T11:49:23.393Z</time>
      </trkpt>
      <trkpt lat="46.94146" lon="8.709">
        <ele>1635</ele>
        <time>2021-08-06T11:49:24.393Z</time>
      </trkpt>
      <trkpt lat="46.94145" lon="8.70899">
        <ele>1635</ele>
        <time>2021-08-06T11:49:25.392Z</time>
      </trkpt>
      <trkpt lat="46.94144" lon="8.70899">
        <ele>1635</ele>
        <time>2021-08-06T11:49:26.392Z</time>
      </trkpt>
      <trkpt lat="46.94144" lon="8.70899">
        <ele>1634</ele>
        <time>2021-08-06T11:49:27.393Z</time>
      </trkpt>
      <trkpt lat="46.94143" lon="8.70899">
        <ele>1634</ele>
        <time>2021-08-06T11:49:28.393Z</time>
      </trkpt>
      <trkpt lat="46.94142" lon="8.70898">
        <ele>1634</ele>
        <time>2021-08-06T11:49:29.393Z</time>
      </trkpt>
      <trkpt lat="46.94141" lon="8.70898">
        <ele>1634</ele>
        <time>2021-08-06T11:49:30.393Z</time>
      </trkpt>
      <trkpt lat="46.94141" lon="8.70898">
        <ele>1634</ele>
        <time>2021-08-06T11:49:31.393Z</time>
      </trkpt>
      <trkpt lat="46.9414" lon="8.70897">
        <ele>1635</ele>
        <time>2021-08-06T11:49:32.393Z</time>
      </trkpt>
      <trkpt lat="46.94139" lon="8.70897">
        <ele>1635</ele>
        <time>2021-08-06T11:49:33.393Z</time>
      </trkpt>
      <trkpt lat="46.94139" lon="8.70897">
        <ele>1635</ele>
        <time>2021-08-06T11:49:34.393Z</time>
      </trkpt>
      <trkpt lat="46.94138" lon="8.70897">
        <ele>1635</ele>
        <time>2021-08-06T11:49:35.393Z</time>
      </trkpt>
      <trkpt lat="46.94137" lon="8.70897">
        <ele>1635</ele>
        <time>2021-08-06T11:49:36.393Z</time>
      </trkpt>
      <trkpt lat="46.94136" lon="8.70896">
        <ele>1635</ele>
        <time>2021-08-06T11:49:37.393Z</time>
      </trkpt>
      <trkpt lat="46.94135" lon="8.70896">
        <ele>1635</ele>
        <time>2021-08-06T11:49:38.393Z</time>
      </trkpt>
      <trkpt lat="46.94135" lon="8.70895">
        <ele>1636</ele>
        <time>2021-08-06T11:49:39.393Z</time>
      </trkpt>
      <trkpt lat="46.94134" lon="8.70895">
        <ele>1636</ele>
        <time>2021-08-06T11:49:40.392Z</time>
      </trkpt>
      <trkpt lat="46.94133" lon="8.70895">
        <ele>1636</ele>
        <time>2021-08-06T11:49:41.392Z</time>
      </trkpt>
      <trkpt lat="46.94133" lon="8.70895">
        <ele>1636</ele>
        <time>2021-08-06T11:49:42.392Z</time>
      </trkpt>
      <trkpt lat="46.94133" lon="8.70895">
        <ele>1637</ele>
        <time>2021-08-06T11:49:43.392Z</time>
      </trkpt>
      <trkpt lat="46.94132" lon="8.70894">
        <ele>1637</ele>
        <time>2021-08-06T11:49:44.392Z</time>
      </trkpt>
      <trkpt lat="46.94132" lon="8.70893">
        <ele>1638</ele>
        <time>2021-08-06T11:49:45.392Z</time>
      </trkpt>
      <trkpt lat="46.94132" lon="8.70893">
        <ele>1638</ele>
        <time>2021-08-06T11:49:46.392Z</time>
      </trkpt>
      <trkpt lat="46.94131" lon="8.70892">
        <ele>1638</ele>
        <time>2021-08-06T11:49:47.392Z</time>
      </trkpt>
      <trkpt lat="46.94131" lon="8.7089">
        <ele>1639</ele>
        <time>2021-08-06T11:49:48.392Z</time>
      </trkpt>
      <trkpt lat="46.94131" lon="8.7089">
        <ele>1639</ele>
        <time>2021-08-06T11:49:49.392Z</time>
      </trkpt>
      <trkpt lat="46.9413" lon="8.70889">
        <ele>1639</ele>
        <time>2021-08-06T11:49:50.392Z</time>
      </trkpt>
      <trkpt lat="46.9413" lon="8.70889">
        <ele>1640</ele>
        <time>2021-08-06T11:49:51.392Z</time>
      </trkpt>
      <trkpt lat="46.9413" lon="8.70888">
        <ele>1640</ele>
        <time>2021-08-06T11:49:52.392Z</time>
      </trkpt>
      <trkpt lat="46.94129" lon="8.70888">
        <ele>1641</ele>
        <time>2021-08-06T11:49:53.392Z</time>
      </trkpt>
      <trkpt lat="46.94129" lon="8.70887">
        <ele>1641</ele>
        <time>2021-08-06T11:49:54.392Z</time>
      </trkpt>
      <trkpt lat="46.94129" lon="8.70886">
        <ele>1641</ele>
        <time>2021-08-06T11:49:55.392Z</time>
      </trkpt>
      <trkpt lat="46.94129" lon="8.70885">
        <ele>1642</ele>
        <time>2021-08-06T11:49:56.392Z</time>
      </trkpt>
      <trkpt lat="46.94128" lon="8.70884">
        <ele>1642</ele>
        <time>2021-08-06T11:49:57.392Z</time>
      </trkpt>
      <trkpt lat="46.94128" lon="8.70882">
        <ele>1642</ele>
        <time>2021-08-06T11:49:58.392Z</time>
      </trkpt>
      <trkpt lat="46.94128" lon="8.70882">
        <ele>1643</ele>
        <time>2021-08-06T11:49:59.392Z</time>
      </trkpt>
      <trkpt lat="46.94128" lon="8.70881">
        <ele>1643</ele>
        <time>2021-08-06T11:50:00.392Z</time>
      </trkpt>
      <trkpt lat="46.94128" lon="8.70881">
        <ele>1643</ele>
        <time>2021-08-06T11:50:01.393Z</time>
      </trkpt>
      <trkpt lat="46.94127" lon="8.7088">
        <ele>1643</ele>
        <time>2021-08-06T11:50:02.392Z</time>
      </trkpt>
      <trkpt lat="46.94127" lon="8.70879">
        <ele>1644</ele>
        <time>2021-08-06T11:50:03.392Z</time>
      </trkpt>
      <trkpt lat="46.94126" lon="8.70879">
        <ele>1644</ele>
        <time>2021-08-06T11:50:04.392Z</time>
      </trkpt>
      <trkpt lat="46.94126" lon="8.70878">
        <ele>1644</ele>
        <time>2021-08-06T11:50:05.392Z</time>
      </trkpt>
      <trkpt lat="46.94125" lon="8.70877">
        <ele>1645</ele>
        <time>2021-08-06T11:50:06.393Z</time>
      </trkpt>
      <trkpt lat="46.94125" lon="8.70876">
        <ele>1645</ele>
        <time>2021-08-06T11:50:07.392Z</time>
      </trkpt>
      <trkpt lat="46.94125" lon="8.70875">
        <ele>1646</ele>
        <time>2021-08-06T11:50:08.392Z</time>
      </trkpt>
      <trkpt lat="46.94124" lon="8.70874">
        <ele>1646</ele>
        <time>2021-08-06T11:50:09.392Z</time>
      </trkpt>
      <trkpt lat="46.94123" lon="8.70873">
        <ele>1646</ele>
        <time>2021-08-06T11:50:10.392Z</time>
      </trkpt>
      <trkpt lat="46.94123" lon="8.70872">
        <ele>1646</ele>
        <time>2021-08-06T11:50:11.392Z</time>
      </trkpt>
      <trkpt lat="46.94122" lon="8.70872">
        <ele>1646</ele>
        <time>2021-08-06T11:50:12.392Z</time>
      </trkpt>
      <trkpt lat="46.94122" lon="8.70872">
        <ele>1646</ele>
        <time>2021-08-06T11:50:13.392Z</time>
      </trkpt>
      <trkpt lat="46.94121" lon="8.70872">
        <ele>1646</ele>
        <time>2021-08-06T11:50:14.393Z</time>
      </trkpt>
      <trkpt lat="46.94121" lon="8.7087">
        <ele>1646</ele>
        <time>2021-08-06T11:50:15.392Z</time>
      </trkpt>
      <trkpt lat="46.94121" lon="8.70869">
        <ele>1646</ele>
        <time>2021-08-06T11:50:16.392Z</time>
      </trkpt>
      <trkpt lat="46.94121" lon="8.70869">
        <ele>1647</ele>
        <time>2021-08-06T11:50:17.392Z</time>
      </trkpt>
      <trkpt lat="46.94121" lon="8.70868">
        <ele>1647</ele>
        <time>2021-08-06T11:50:18.392Z</time>
      </trkpt>
      <trkpt lat="46.94121" lon="8.70868">
        <ele>1648</ele>
        <time>2021-08-06T11:50:19.393Z</time>
      </trkpt>
      <trkpt lat="46.94121" lon="8.70867">
        <ele>1648</ele>
        <time>2021-08-06T11:50:20.392Z</time>
      </trkpt>
      <trkpt lat="46.94121" lon="8.70867">
        <ele>1649</ele>
        <time>2021-08-06T11:50:21.392Z</time>
      </trkpt>
      <trkpt lat="46.9412" lon="8.70866">
        <ele>1649</ele>
        <time>2021-08-06T11:50:22.392Z</time>
      </trkpt>
      <trkpt lat="46.9412" lon="8.70865">
        <ele>1649</ele>
        <time>2021-08-06T11:50:23.392Z</time>
      </trkpt>
      <trkpt lat="46.94119" lon="8.70865">
        <ele>1650</ele>
        <time>2021-08-06T11:50:24.392Z</time>
      </trkpt>
      <trkpt lat="46.94119" lon="8.70864">
        <ele>1650</ele>
        <time>2021-08-06T11:50:25.392Z</time>
      </trkpt>
      <trkpt lat="46.94119" lon="8.70863">
        <ele>1650</ele>
        <time>2021-08-06T11:50:26.393Z</time>
      </trkpt>
      <trkpt lat="46.94118" lon="8.70863">
        <ele>1650</ele>
        <time>2021-08-06T11:50:27.392Z</time>
      </trkpt>
      <trkpt lat="46.94117" lon="8.70863">
        <ele>1650</ele>
        <time>2021-08-06T11:50:28.392Z</time>
      </trkpt>
      <trkpt lat="46.94117" lon="8.70862">
        <ele>1650</ele>
        <time>2021-08-06T11:50:29.392Z</time>
      </trkpt>
      <trkpt lat="46.94117" lon="8.70861">
        <ele>1650</ele>
        <time>2021-08-06T11:50:30.392Z</time>
      </trkpt>
      <trkpt lat="46.94117" lon="8.7086">
        <ele>1649</ele>
        <time>2021-08-06T11:50:31.392Z</time>
      </trkpt>
      <trkpt lat="46.94117" lon="8.70859">
        <ele>1649</ele>
        <time>2021-08-06T11:50:32.392Z</time>
      </trkpt>
      <trkpt lat="46.94117" lon="8.70858">
        <ele>1649</ele>
        <time>2021-08-06T11:50:33.392Z</time>
      </trkpt>
      <trkpt lat="46.94116" lon="8.70858">
        <ele>1649</ele>
        <time>2021-08-06T11:50:34.392Z</time>
      </trkpt>
      <trkpt lat="46.94115" lon="8.70857">
        <ele>1649</ele>
        <time>2021-08-06T11:50:35.392Z</time>
      </trkpt>
      <trkpt lat="46.94115" lon="8.70857">
        <ele>1649</ele>
        <time>2021-08-06T11:50:36.392Z</time>
      </trkpt>
      <trkpt lat="46.94115" lon="8.70856">
        <ele>1648</ele>
        <time>2021-08-06T11:50:37.392Z</time>
      </trkpt>
      <trkpt lat="46.94116" lon="8.70855">
        <ele>1648</ele>
        <time>2021-08-06T11:50:38.392Z</time>
      </trkpt>
      <trkpt lat="46.94116" lon="8.70854">
        <ele>1647</ele>
        <time>2021-08-06T11:50:39.392Z</time>
      </trkpt>
      <trkpt lat="46.94117" lon="8.70853">
        <ele>1647</ele>
        <time>2021-08-06T11:50:40.393Z</time>
      </trkpt>
      <trkpt lat="46.94117" lon="8.70852">
        <ele>1646</ele>
        <time>2021-08-06T11:50:41.392Z</time>
      </trkpt>
      <trkpt lat="46.94117" lon="8.70851">
        <ele>1646</ele>
        <time>2021-08-06T11:50:42.393Z</time>
      </trkpt>
      <trkpt lat="46.94118" lon="8.7085">
        <ele>1646</ele>
        <time>2021-08-06T11:50:43.393Z</time>
      </trkpt>
      <trkpt lat="46.94118" lon="8.70849">
        <ele>1646</ele>
        <time>2021-08-06T11:50:44.392Z</time>
      </trkpt>
      <trkpt lat="46.94118" lon="8.70848">
        <ele>1646</ele>
        <time>2021-08-06T11:50:45.393Z</time>
      </trkpt>
      <trkpt lat="46.94118" lon="8.70847">
        <ele>1646</ele>
        <time>2021-08-06T11:50:46.392Z</time>
      </trkpt>
      <trkpt lat="46.94119" lon="8.70847">
        <ele>1646</ele>
        <time>2021-08-06T11:50:47.393Z</time>
      </trkpt>
      <trkpt lat="46.94119" lon="8.70846">
        <ele>1646</ele>
        <time>2021-08-06T11:50:48.393Z</time>
      </trkpt>
      <trkpt lat="46.9412" lon="8.70845">
        <ele>1646</ele>
        <time>2021-08-06T11:50:49.393Z</time>
      </trkpt>
      <trkpt lat="46.9412" lon="8.70845">
        <ele>1646</ele>
        <time>2021-08-06T11:50:50.393Z</time>
      </trkpt>
      <trkpt lat="46.9412" lon="8.70844">
        <ele>1646</ele>
        <time>2021-08-06T11:50:51.393Z</time>
      </trkpt>
      <trkpt lat="46.94121" lon="8.70843">
        <ele>1646</ele>
        <time>2021-08-06T11:50:52.393Z</time>
      </trkpt>
      <trkpt lat="46.94121" lon="8.70842">
        <ele>1646</ele>
        <time>2021-08-06T11:50:53.393Z</time>
      </trkpt>
      <trkpt lat="46.94122" lon="8.70841">
        <ele>1647</ele>
        <time>2021-08-06T11:50:54.393Z</time>
      </trkpt>
      <trkpt lat="46.94122" lon="8.7084">
        <ele>1648</ele>
        <time>2021-08-06T11:50:55.393Z</time>
      </trkpt>
      <trkpt lat="46.94122" lon="8.7084">
        <ele>1648</ele>
        <time>2021-08-06T11:50:56.393Z</time>
      </trkpt>
      <trkpt lat="46.94123" lon="8.70839">
        <ele>1648</ele>
        <time>2021-08-06T11:50:57.392Z</time>
      </trkpt>
      <trkpt lat="46.94122" lon="8.70838">
        <ele>1648</ele>
        <time>2021-08-06T11:50:58.393Z</time>
      </trkpt>
      <trkpt lat="46.94122" lon="8.70837">
        <ele>1648</ele>
        <time>2021-08-06T11:50:59.392Z</time>
      </trkpt>
      <trkpt lat="46.94121" lon="8.70836">
        <ele>1649</ele>
        <time>2021-08-06T11:51:00.393Z</time>
      </trkpt>
      <trkpt lat="46.94121" lon="8.70835">
        <ele>1649</ele>
        <time>2021-08-06T11:51:01.393Z</time>
      </trkpt>
      <trkpt lat="46.9412" lon="8.70835">
        <ele>1649</ele>
        <time>2021-08-06T11:51:02.393Z</time>
      </trkpt>
      <trkpt lat="46.94119" lon="8.70834">
        <ele>1649</ele>
        <time>2021-08-06T11:51:03.392Z</time>
      </trkpt>
      <trkpt lat="46.94118" lon="8.70834">
        <ele>1649</ele>
        <time>2021-08-06T11:51:04.393Z</time>
      </trkpt>
      <trkpt lat="46.94117" lon="8.70835">
        <ele>1649</ele>
        <time>2021-08-06T11:51:05.393Z</time>
      </trkpt>
      <trkpt lat="46.94117" lon="8.70835">
        <ele>1650</ele>
        <time>2021-08-06T11:51:06.393Z</time>
      </trkpt>
      <trkpt lat="46.94116" lon="8.70834">
        <ele>1650</ele>
        <time>2021-08-06T11:51:07.393Z</time>
      </trkpt>
      <trkpt lat="46.94115" lon="8.70833">
        <ele>1650</ele>
        <time>2021-08-06T11:51:08.393Z</time>
      </trkpt>
      <trkpt lat="46.94114" lon="8.70833">
        <ele>1651</ele>
        <time>2021-08-06T11:51:09.392Z</time>
      </trkpt>
      <trkpt lat="46.94114" lon="8.70832">
        <ele>1651</ele>
        <time>2021-08-06T11:51:10.393Z</time>
      </trkpt>
      <trkpt lat="46.94114" lon="8.70832">
        <ele>1651</ele>
        <time>2021-08-06T11:51:11.393Z</time>
      </trkpt>
      <trkpt lat="46.94114" lon="8.70831">
        <ele>1652</ele>
        <time>2021-08-06T11:51:12.393Z</time>
      </trkpt>
      <trkpt lat="46.94113" lon="8.70831">
        <ele>1652</ele>
        <time>2021-08-06T11:51:13.392Z</time>
      </trkpt>
      <trkpt lat="46.94113" lon="8.7083">
        <ele>1653</ele>
        <time>2021-08-06T11:51:14.393Z</time>
      </trkpt>
      <trkpt lat="46.94113" lon="8.70829">
        <ele>1653</ele>
        <time>2021-08-06T11:51:15.393Z</time>
      </trkpt>
      <trkpt lat="46.94113" lon="8.70829">
        <ele>1654</ele>
        <time>2021-08-06T11:51:16.392Z</time>
      </trkpt>
      <trkpt lat="46.94112" lon="8.70828">
        <ele>1654</ele>
        <time>2021-08-06T11:51:17.393Z</time>
      </trkpt>
      <trkpt lat="46.94112" lon="8.70827">
        <ele>1655</ele>
        <time>2021-08-06T11:51:18.393Z</time>
      </trkpt>
      <trkpt lat="46.94112" lon="8.70827">
        <ele>1656</ele>
        <time>2021-08-06T11:51:19.392Z</time>
      </trkpt>
      <trkpt lat="46.94111" lon="8.70827">
        <ele>1657</ele>
        <time>2021-08-06T11:51:20.392Z</time>
      </trkpt>
      <trkpt lat="46.94111" lon="8.70826">
        <ele>1658</ele>
        <time>2021-08-06T11:51:21.393Z</time>
      </trkpt>
      <trkpt lat="46.94111" lon="8.70825">
        <ele>1658</ele>
        <time>2021-08-06T11:51:22.392Z</time>
      </trkpt>
      <trkpt lat="46.94111" lon="8.70824">
        <ele>1659</ele>
        <time>2021-08-06T11:51:23.392Z</time>
      </trkpt>
      <trkpt lat="46.9411" lon="8.70824">
        <ele>1659</ele>
        <time>2021-08-06T11:51:24.392Z</time>
      </trkpt>
      <trkpt lat="46.9411" lon="8.70823">
        <ele>1659</ele>
        <time>2021-08-06T11:51:25.392Z</time>
      </trkpt>
      <trkpt lat="46.9411" lon="8.70822">
        <ele>1659</ele>
        <time>2021-08-06T11:51:26.392Z</time>
      </trkpt>
      <trkpt lat="46.94109" lon="8.70822">
        <ele>1659</ele>
        <time>2021-08-06T11:51:27.392Z</time>
      </trkpt>
      <trkpt lat="46.94109" lon="8.70822">
        <ele>1659</ele>
        <time>2021-08-06T11:51:28.392Z</time>
      </trkpt>
      <trkpt lat="46.94108" lon="8.70821">
        <ele>1659</ele>
        <time>2021-08-06T11:51:29.393Z</time>
      </trkpt>
      <trkpt lat="46.94108" lon="8.70821">
        <ele>1660</ele>
        <time>2021-08-06T11:51:30.392Z</time>
      </trkpt>
      <trkpt lat="46.94107" lon="8.7082">
        <ele>1660</ele>
        <time>2021-08-06T11:51:31.393Z</time>
      </trkpt>
      <trkpt lat="46.94106" lon="8.7082">
        <ele>1661</ele>
        <time>2021-08-06T11:51:32.393Z</time>
      </trkpt>
      <trkpt lat="46.94106" lon="8.70819">
        <ele>1660</ele>
        <time>2021-08-06T11:51:33.392Z</time>
      </trkpt>
      <trkpt lat="46.94105" lon="8.70818">
        <ele>1660</ele>
        <time>2021-08-06T11:51:34.393Z</time>
      </trkpt>
      <trkpt lat="46.94104" lon="8.70818">
        <ele>1660</ele>
        <time>2021-08-06T11:51:35.393Z</time>
      </trkpt>
      <trkpt lat="46.94104" lon="8.70817">
        <ele>1660</ele>
        <time>2021-08-06T11:51:36.393Z</time>
      </trkpt>
      <trkpt lat="46.94103" lon="8.70816">
        <ele>1659</ele>
        <time>2021-08-06T11:51:37.393Z</time>
      </trkpt>
      <trkpt lat="46.94103" lon="8.70815">
        <ele>1659</ele>
        <time>2021-08-06T11:51:38.392Z</time>
      </trkpt>
      <trkpt lat="46.94102" lon="8.70814">
        <ele>1659</ele>
        <time>2021-08-06T11:51:39.392Z</time>
      </trkpt>
      <trkpt lat="46.94101" lon="8.70813">
        <ele>1659</ele>
        <time>2021-08-06T11:51:40.393Z</time>
      </trkpt>
      <trkpt lat="46.94101" lon="8.70813">
        <ele>1659</ele>
        <time>2021-08-06T11:51:41.393Z</time>
      </trkpt>
      <trkpt lat="46.941" lon="8.70812">
        <ele>1660</ele>
        <time>2021-08-06T11:51:42.393Z</time>
      </trkpt>
      <trkpt lat="46.941" lon="8.70812">
        <ele>1660</ele>
        <time>2021-08-06T11:51:43.393Z</time>
      </trkpt>
      <trkpt lat="46.941" lon="8.70811">
        <ele>1659</ele>
        <time>2021-08-06T11:51:44.393Z</time>
      </trkpt>
      <trkpt lat="46.941" lon="8.70811">
        <ele>1659</ele>
        <time>2021-08-06T11:51:45.392Z</time>
      </trkpt>
      <trkpt lat="46.94099" lon="8.7081">
        <ele>1659</ele>
        <time>2021-08-06T11:51:46.392Z</time>
      </trkpt>
      <trkpt lat="46.94098" lon="8.7081">
        <ele>1659</ele>
        <time>2021-08-06T11:51:47.393Z</time>
      </trkpt>
      <trkpt lat="46.94098" lon="8.70809">
        <ele>1659</ele>
        <time>2021-08-06T11:51:48.392Z</time>
      </trkpt>
      <trkpt lat="46.94097" lon="8.70808">
        <ele>1659</ele>
        <time>2021-08-06T11:51:49.393Z</time>
      </trkpt>
      <trkpt lat="46.94098" lon="8.70808">
        <ele>1659</ele>
        <time>2021-08-06T11:51:50.393Z</time>
      </trkpt>
      <trkpt lat="46.94098" lon="8.70807">
        <ele>1659</ele>
        <time>2021-08-06T11:51:51.393Z</time>
      </trkpt>
      <trkpt lat="46.94099" lon="8.70807">
        <ele>1660</ele>
        <time>2021-08-06T11:51:52.392Z</time>
      </trkpt>
      <trkpt lat="46.94099" lon="8.70807">
        <ele>1660</ele>
        <time>2021-08-06T11:51:53.393Z</time>
      </trkpt>
      <trkpt lat="46.94098" lon="8.70806">
        <ele>1660</ele>
        <time>2021-08-06T11:51:54.393Z</time>
      </trkpt>
      <trkpt lat="46.94098" lon="8.70806">
        <ele>1660</ele>
        <time>2021-08-06T11:51:55.393Z</time>
      </trkpt>
      <trkpt lat="46.94097" lon="8.70805">
        <ele>1661</ele>
        <time>2021-08-06T11:51:56.392Z</time>
      </trkpt>
      <trkpt lat="46.94097" lon="8.70804">
        <ele>1661</ele>
        <time>2021-08-06T11:51:57.392Z</time>
      </trkpt>
      <trkpt lat="46.94096" lon="8.70803">
        <ele>1661</ele>
        <time>2021-08-06T11:51:58.392Z</time>
      </trkpt>
      <trkpt lat="46.94096" lon="8.70803">
        <ele>1661</ele>
        <time>2021-08-06T11:51:59.393Z</time>
      </trkpt>
      <trkpt lat="46.94096" lon="8.70802">
        <ele>1661</ele>
        <time>2021-08-06T11:52:00.393Z</time>
      </trkpt>
      <trkpt lat="46.94095" lon="8.70802">
        <ele>1661</ele>
        <time>2021-08-06T11:52:01.393Z</time>
      </trkpt>
      <trkpt lat="46.94095" lon="8.70801">
        <ele>1661</ele>
        <time>2021-08-06T11:52:02.393Z</time>
      </trkpt>
      <trkpt lat="46.94095" lon="8.70801">
        <ele>1661</ele>
        <time>2021-08-06T11:52:03.392Z</time>
      </trkpt>
      <trkpt lat="46.94095" lon="8.708">
        <ele>1661</ele>
        <time>2021-08-06T11:52:04.393Z</time>
      </trkpt>
      <trkpt lat="46.94095" lon="8.708">
        <ele>1661</ele>
        <time>2021-08-06T11:52:05.393Z</time>
      </trkpt>
      <trkpt lat="46.94095" lon="8.708">
        <ele>1661</ele>
        <time>2021-08-06T11:52:06.393Z</time>
      </trkpt>
      <trkpt lat="46.94094" lon="8.70799">
        <ele>1661</ele>
        <time>2021-08-06T11:52:07.393Z</time>
      </trkpt>
      <trkpt lat="46.94094" lon="8.70799">
        <ele>1661</ele>
        <time>2021-08-06T11:52:08.393Z</time>
      </trkpt>
      <trkpt lat="46.94094" lon="8.70799">
        <ele>1661</ele>
        <time>2021-08-06T11:52:09.392Z</time>
      </trkpt>
      <trkpt lat="46.94093" lon="8.70799">
        <ele>1661</ele>
        <time>2021-08-06T11:52:10.392Z</time>
      </trkpt>
      <trkpt lat="46.94092" lon="8.70799">
        <ele>1661</ele>
        <time>2021-08-06T11:52:11.393Z</time>
      </trkpt>
      <trkpt lat="46.94091" lon="8.70798">
        <ele>1660</ele>
        <time>2021-08-06T11:52:12.392Z</time>
      </trkpt>
      <trkpt lat="46.94091" lon="8.70798">
        <ele>1660</ele>
        <time>2021-08-06T11:52:13.393Z</time>
      </trkpt>
      <trkpt lat="46.9409" lon="8.70797">
        <ele>1661</ele>
        <time>2021-08-06T11:52:14.393Z</time>
      </trkpt>
      <trkpt lat="46.9409" lon="8.70797">
        <ele>1661</ele>
        <time>2021-08-06T11:52:15.393Z</time>
      </trkpt>
      <trkpt lat="46.94089" lon="8.70797">
        <ele>1661</ele>
        <time>2021-08-06T11:52:16.392Z</time>
      </trkpt>
      <trkpt lat="46.94089" lon="8.70797">
        <ele>1662</ele>
        <time>2021-08-06T11:52:17.393Z</time>
      </trkpt>
      <trkpt lat="46.94089" lon="8.70798">
        <ele>1662</ele>
        <time>2021-08-06T11:52:18.392Z</time>
      </trkpt>
      <trkpt lat="46.94089" lon="8.70798">
        <ele>1662</ele>
        <time>2021-08-06T11:52:19.392Z</time>
      </trkpt>
      <trkpt lat="46.94089" lon="8.70798">
        <ele>1663</ele>
        <time>2021-08-06T11:52:20.392Z</time>
      </trkpt>
      <trkpt lat="46.9409" lon="8.70798">
        <ele>1663</ele>
        <time>2021-08-06T11:52:21.392Z</time>
      </trkpt>
      <trkpt lat="46.94089" lon="8.70797">
        <ele>1663</ele>
        <time>2021-08-06T11:52:22.393Z</time>
      </trkpt>
      <trkpt lat="46.94089" lon="8.70796">
        <ele>1664</ele>
        <time>2021-08-06T11:52:23.392Z</time>
      </trkpt>
      <trkpt lat="46.94088" lon="8.70795">
        <ele>1664</ele>
        <time>2021-08-06T11:52:24.393Z</time>
      </trkpt>
      <trkpt lat="46.94088" lon="8.70795">
        <ele>1664</ele>
        <time>2021-08-06T11:52:25.393Z</time>
      </trkpt>
      <trkpt lat="46.94087" lon="8.70794">
        <ele>1664</ele>
        <time>2021-08-06T11:52:26.393Z</time>
      </trkpt>
      <trkpt lat="46.94087" lon="8.70794">
        <ele>1664</ele>
        <time>2021-08-06T11:52:27.393Z</time>
      </trkpt>
      <trkpt lat="46.94087" lon="8.70794">
        <ele>1664</ele>
        <time>2021-08-06T11:52:28.393Z</time>
      </trkpt>
      <trkpt lat="46.94086" lon="8.70793">
        <ele>1664</ele>
        <time>2021-08-06T11:52:29.393Z</time>
      </trkpt>
      <trkpt lat="46.94085" lon="8.70793">
        <ele>1664</ele>
        <time>2021-08-06T11:52:30.393Z</time>
      </trkpt>
      <trkpt lat="46.94085" lon="8.70793">
        <ele>1665</ele>
        <time>2021-08-06T11:52:31.392Z</time>
      </trkpt>
      <trkpt lat="46.94085" lon="8.70793">
        <ele>1665</ele>
        <time>2021-08-06T11:52:32.393Z</time>
      </trkpt>
      <trkpt lat="46.94084" lon="8.70792">
        <ele>1665</ele>
        <time>2021-08-06T11:52:33.393Z</time>
      </trkpt>
      <trkpt lat="46.94084" lon="8.70793">
        <ele>1665</ele>
        <time>2021-08-06T11:52:34.393Z</time>
      </trkpt>
      <trkpt lat="46.94084" lon="8.70792">
        <ele>1665</ele>
        <time>2021-08-06T11:52:35.393Z</time>
      </trkpt>
      <trkpt lat="46.94083" lon="8.70792">
        <ele>1665</ele>
        <time>2021-08-06T11:52:36.392Z</time>
      </trkpt>
      <trkpt lat="46.94083" lon="8.70791">
        <ele>1665</ele>
        <time>2021-08-06T11:52:37.393Z</time>
      </trkpt>
      <trkpt lat="46.94083" lon="8.7079">
        <ele>1665</ele>
        <time>2021-08-06T11:52:38.393Z</time>
      </trkpt>
      <trkpt lat="46.94083" lon="8.70789">
        <ele>1666</ele>
        <time>2021-08-06T11:52:39.393Z</time>
      </trkpt>
      <trkpt lat="46.94082" lon="8.70788">
        <ele>1666</ele>
        <time>2021-08-06T11:52:40.393Z</time>
      </trkpt>
      <trkpt lat="46.94082" lon="8.70788">
        <ele>1666</ele>
        <time>2021-08-06T11:52:41.393Z</time>
      </trkpt>
      <trkpt lat="46.94082" lon="8.70788">
        <ele>1666</ele>
        <time>2021-08-06T11:52:42.393Z</time>
      </trkpt>
      <trkpt lat="46.94081" lon="8.70787">
        <ele>1666</ele>
        <time>2021-08-06T11:52:43.393Z</time>
      </trkpt>
      <trkpt lat="46.9408" lon="8.70787">
        <ele>1666</ele>
        <time>2021-08-06T11:52:44.392Z</time>
      </trkpt>
      <trkpt lat="46.9408" lon="8.70787">
        <ele>1666</ele>
        <time>2021-08-06T11:52:45.392Z</time>
      </trkpt>
      <trkpt lat="46.94079" lon="8.70787">
        <ele>1667</ele>
        <time>2021-08-06T11:52:46.393Z</time>
      </trkpt>
      <trkpt lat="46.94078" lon="8.70787">
        <ele>1667</ele>
        <time>2021-08-06T11:52:47.393Z</time>
      </trkpt>
      <trkpt lat="46.94078" lon="8.70786">
        <ele>1667</ele>
        <time>2021-08-06T11:52:48.392Z</time>
      </trkpt>
      <trkpt lat="46.94078" lon="8.70786">
        <ele>1666</ele>
        <time>2021-08-06T11:52:49.392Z</time>
      </trkpt>
      <trkpt lat="46.94077" lon="8.70786">
        <ele>1666</ele>
        <time>2021-08-06T11:52:50.392Z</time>
      </trkpt>
      <trkpt lat="46.94077" lon="8.70786">
        <ele>1666</ele>
        <time>2021-08-06T11:52:51.392Z</time>
      </trkpt>
      <trkpt lat="46.94076" lon="8.70786">
        <ele>1665</ele>
        <time>2021-08-06T11:52:52.392Z</time>
      </trkpt>
      <trkpt lat="46.94076" lon="8.70785">
        <ele>1665</ele>
        <time>2021-08-06T11:52:53.392Z</time>
      </trkpt>
      <trkpt lat="46.94075" lon="8.70785">
        <ele>1665</ele>
        <time>2021-08-06T11:52:54.392Z</time>
      </trkpt>
      <trkpt lat="46.94075" lon="8.70784">
        <ele>1665</ele>
        <time>2021-08-06T11:52:55.392Z</time>
      </trkpt>
      <trkpt lat="46.94074" lon="8.70784">
        <ele>1665</ele>
        <time>2021-08-06T11:52:56.392Z</time>
      </trkpt>
      <trkpt lat="46.94073" lon="8.70783">
        <ele>1664</ele>
        <time>2021-08-06T11:52:57.393Z</time>
      </trkpt>
      <trkpt lat="46.94072" lon="8.70782">
        <ele>1664</ele>
        <time>2021-08-06T11:52:58.393Z</time>
      </trkpt>
      <trkpt lat="46.94072" lon="8.70782">
        <ele>1664</ele>
        <time>2021-08-06T11:52:59.392Z</time>
      </trkpt>
      <trkpt lat="46.94072" lon="8.70782">
        <ele>1664</ele>
        <time>2021-08-06T11:53:00.392Z</time>
      </trkpt>
      <trkpt lat="46.94072" lon="8.70781">
        <ele>1665</ele>
        <time>2021-08-06T11:53:01.392Z</time>
      </trkpt>
      <trkpt lat="46.94072" lon="8.70781">
        <ele>1665</ele>
        <time>2021-08-06T11:53:02.393Z</time>
      </trkpt>
      <trkpt lat="46.94071" lon="8.70781">
        <ele>1665</ele>
        <time>2021-08-06T11:53:03.392Z</time>
      </trkpt>
      <trkpt lat="46.94071" lon="8.70781">
        <ele>1665</ele>
        <time>2021-08-06T11:53:04.392Z</time>
      </trkpt>
      <trkpt lat="46.94071" lon="8.7078">
        <ele>1665</ele>
        <time>2021-08-06T11:53:05.393Z</time>
      </trkpt>
      <trkpt lat="46.94071" lon="8.7078">
        <ele>1665</ele>
        <time>2021-08-06T11:53:06.393Z</time>
      </trkpt>
      <trkpt lat="46.94071" lon="8.7078">
        <ele>1666</ele>
        <time>2021-08-06T11:53:07.393Z</time>
      </trkpt>
      <trkpt lat="46.9407" lon="8.70782">
        <ele>1667</ele>
        <time>2021-08-06T11:53:08.393Z</time>
      </trkpt>
      <trkpt lat="46.9407" lon="8.70783">
        <ele>1667</ele>
        <time>2021-08-06T11:53:09.393Z</time>
      </trkpt>
      <trkpt lat="46.94072" lon="8.70782">
        <ele>1664</ele>
        <time>2021-08-06T11:53:10.393Z</time>
      </trkpt>
      <trkpt lat="46.9407" lon="8.70784">
        <ele>1663</ele>
        <time>2021-08-06T11:53:11.393Z</time>
      </trkpt>
      <trkpt lat="46.9407" lon="8.70785">
        <ele>1663</ele>
        <time>2021-08-06T11:53:12.393Z</time>
      </trkpt>
      <trkpt lat="46.9407" lon="8.70785">
        <ele>1663</ele>
        <time>2021-08-06T11:53:13.392Z</time>
      </trkpt>
      <trkpt lat="46.94069" lon="8.70785">
        <ele>1663</ele>
        <time>2021-08-06T11:53:14.393Z</time>
      </trkpt>
      <trkpt lat="46.94069" lon="8.70786">
        <ele>1665</ele>
        <time>2021-08-06T11:53:15.392Z</time>
      </trkpt>
      <trkpt lat="46.94068" lon="8.70785">
        <ele>1666</ele>
        <time>2021-08-06T11:53:16.393Z</time>
      </trkpt>
      <trkpt lat="46.94068" lon="8.70785">
        <ele>1666</ele>
        <time>2021-08-06T11:53:17.392Z</time>
      </trkpt>
      <trkpt lat="46.94068" lon="8.70784">
        <ele>1667</ele>
        <time>2021-08-06T11:53:18.393Z</time>
      </trkpt>
      <trkpt lat="46.94068" lon="8.70784">
        <ele>1667</ele>
        <time>2021-08-06T11:53:19.392Z</time>
      </trkpt>
      <trkpt lat="46.94068" lon="8.70784">
        <ele>1668</ele>
        <time>2021-08-06T11:53:20.392Z</time>
      </trkpt>
      <trkpt lat="46.94069" lon="8.70785">
        <ele>1668</ele>
        <time>2021-08-06T11:53:21.393Z</time>
      </trkpt>
      <trkpt lat="46.94069" lon="8.70785">
        <ele>1668</ele>
        <time>2021-08-06T11:53:22.392Z</time>
      </trkpt>
      <trkpt lat="46.9407" lon="8.70785">
        <ele>1669</ele>
        <time>2021-08-06T11:53:23.392Z</time>
      </trkpt>
      <trkpt lat="46.94071" lon="8.70785">
        <ele>1669</ele>
        <time>2021-08-06T11:53:24.393Z</time>
      </trkpt>
      <trkpt lat="46.94072" lon="8.70785">
        <ele>1670</ele>
        <time>2021-08-06T11:53:25.392Z</time>
      </trkpt>
      <trkpt lat="46.94072" lon="8.70786">
        <ele>1670</ele>
        <time>2021-08-06T11:53:26.392Z</time>
      </trkpt>
      <trkpt lat="46.94072" lon="8.70786">
        <ele>1670</ele>
        <time>2021-08-06T11:53:27.393Z</time>
      </trkpt>
      <trkpt lat="46.94072" lon="8.70787">
        <ele>1670</ele>
        <time>2021-08-06T11:53:28.392Z</time>
      </trkpt>
      <trkpt lat="46.94072" lon="8.70787">
        <ele>1670</ele>
        <time>2021-08-06T11:53:29.393Z</time>
      </trkpt>
      <trkpt lat="46.94073" lon="8.70787">
        <ele>1670</ele>
        <time>2021-08-06T11:53:30.392Z</time>
      </trkpt>
      <trkpt lat="46.94073" lon="8.70787">
        <ele>1671</ele>
        <time>2021-08-06T11:53:31.393Z</time>
      </trkpt>
      <trkpt lat="46.94073" lon="8.70788">
        <ele>1672</ele>
        <time>2021-08-06T11:53:32.394Z</time>
      </trkpt>
      <trkpt lat="46.94072" lon="8.70788">
        <ele>1673</ele>
        <time>2021-08-06T11:53:33.393Z</time>
      </trkpt>
      <trkpt lat="46.94071" lon="8.70786">
        <ele>1681</ele>
        <time>2021-08-06T11:53:34.394Z</time>
      </trkpt>
      <trkpt lat="46.94071" lon="8.70785">
        <ele>1681</ele>
        <time>2021-08-06T11:53:35.394Z</time>
      </trkpt>
      <trkpt lat="46.94071" lon="8.70785">
        <ele>1680</ele>
        <time>2021-08-06T11:53:36.393Z</time>
      </trkpt>
      <trkpt lat="46.94068" lon="8.70788">
        <ele>1671</ele>
        <time>2021-08-06T11:53:37.393Z</time>
      </trkpt>
      <trkpt lat="46.94068" lon="8.70788">
        <ele>1671</ele>
        <time>2021-08-06T11:53:38.393Z</time>
      </trkpt>
      <trkpt lat="46.94068" lon="8.70788">
        <ele>1672</ele>
        <time>2021-08-06T11:53:39.394Z</time>
      </trkpt>
      <trkpt lat="46.94069" lon="8.70785">
        <ele>1678</ele>
        <time>2021-08-06T11:53:40.394Z</time>
      </trkpt>
      <trkpt lat="46.94069" lon="8.70786">
        <ele>1677</ele>
        <time>2021-08-06T11:53:41.394Z</time>
      </trkpt>
      <trkpt lat="46.9407" lon="8.70781">
        <ele>1675</ele>
        <time>2021-08-06T11:53:42.395Z</time>
      </trkpt>
      <trkpt lat="46.9407" lon="8.7078">
        <ele>1675</ele>
        <time>2021-08-06T11:53:43.394Z</time>
      </trkpt>
      <trkpt lat="46.94069" lon="8.7078">
        <ele>1674</ele>
        <time>2021-08-06T11:53:44.395Z</time>
      </trkpt>
      <trkpt lat="46.94069" lon="8.70779">
        <ele>1674</ele>
        <time>2021-08-06T11:53:45.394Z</time>
      </trkpt>
      <trkpt lat="46.94069" lon="8.70778">
        <ele>1674</ele>
        <time>2021-08-06T11:53:46.394Z</time>
      </trkpt>
      <trkpt lat="46.94069" lon="8.70777">
        <ele>1673</ele>
        <time>2021-08-06T11:53:47.394Z</time>
      </trkpt>
      <trkpt lat="46.94069" lon="8.70776">
        <ele>1673</ele>
        <time>2021-08-06T11:53:48.394Z</time>
      </trkpt>
      <trkpt lat="46.94069" lon="8.70775">
        <ele>1673</ele>
        <time>2021-08-06T11:53:49.394Z</time>
      </trkpt>
      <trkpt lat="46.94068" lon="8.70774">
        <ele>1672</ele>
        <time>2021-08-06T11:53:50.395Z</time>
      </trkpt>
      <trkpt lat="46.94068" lon="8.70773">
        <ele>1672</ele>
        <time>2021-08-06T11:53:51.395Z</time>
      </trkpt>
      <trkpt lat="46.94068" lon="8.70772">
        <ele>1671</ele>
        <time>2021-08-06T11:53:52.394Z</time>
      </trkpt>
      <trkpt lat="46.94067" lon="8.70771">
        <ele>1671</ele>
        <time>2021-08-06T11:53:53.394Z</time>
      </trkpt>
      <trkpt lat="46.94066" lon="8.7077">
        <ele>1671</ele>
        <time>2021-08-06T11:53:54.394Z</time>
      </trkpt>
      <trkpt lat="46.94066" lon="8.70768">
        <ele>1670</ele>
        <time>2021-08-06T11:53:55.394Z</time>
      </trkpt>
      <trkpt lat="46.94066" lon="8.70768">
        <ele>1669</ele>
        <time>2021-08-06T11:53:56.394Z</time>
      </trkpt>
      <trkpt lat="46.94065" lon="8.70766">
        <ele>1668</ele>
        <time>2021-08-06T11:53:57.394Z</time>
      </trkpt>
      <trkpt lat="46.94065" lon="8.70765">
        <ele>1668</ele>
        <time>2021-08-06T11:53:58.394Z</time>
      </trkpt>
      <trkpt lat="46.94064" lon="8.70763">
        <ele>1668</ele>
        <time>2021-08-06T11:53:59.395Z</time>
      </trkpt>
      <trkpt lat="46.94064" lon="8.70762">
        <ele>1668</ele>
        <time>2021-08-06T11:54:00.395Z</time>
      </trkpt>
      <trkpt lat="46.94063" lon="8.70761">
        <ele>1668</ele>
        <time>2021-08-06T11:54:01.394Z</time>
      </trkpt>
      <trkpt lat="46.94062" lon="8.7076">
        <ele>1668</ele>
        <time>2021-08-06T11:54:02.394Z</time>
      </trkpt>
      <trkpt lat="46.94062" lon="8.70759">
        <ele>1668</ele>
        <time>2021-08-06T11:54:03.394Z</time>
      </trkpt>
      <trkpt lat="46.94061" lon="8.70758">
        <ele>1668</ele>
        <time>2021-08-06T11:54:04.394Z</time>
      </trkpt>
      <trkpt lat="46.94061" lon="8.70757">
        <ele>1667</ele>
        <time>2021-08-06T11:54:05.394Z</time>
      </trkpt>
      <trkpt lat="46.9406" lon="8.70755">
        <ele>1667</ele>
        <time>2021-08-06T11:54:06.394Z</time>
      </trkpt>
      <trkpt lat="46.94059" lon="8.70754">
        <ele>1667</ele>
        <time>2021-08-06T11:54:07.394Z</time>
      </trkpt>
      <trkpt lat="46.94059" lon="8.70754">
        <ele>1667</ele>
        <time>2021-08-06T11:54:08.394Z</time>
      </trkpt>
      <trkpt lat="46.94058" lon="8.70753">
        <ele>1667</ele>
        <time>2021-08-06T11:54:09.394Z</time>
      </trkpt>
      <trkpt lat="46.94057" lon="8.70752">
        <ele>1667</ele>
        <time>2021-08-06T11:54:10.394Z</time>
      </trkpt>
      <trkpt lat="46.94057" lon="8.70751">
        <ele>1667</ele>
        <time>2021-08-06T11:54:11.394Z</time>
      </trkpt>
      <trkpt lat="46.94056" lon="8.7075">
        <ele>1667</ele>
        <time>2021-08-06T11:54:12.395Z</time>
      </trkpt>
      <trkpt lat="46.94056" lon="8.70749">
        <ele>1667</ele>
        <time>2021-08-06T11:54:13.394Z</time>
      </trkpt>
      <trkpt lat="46.94056" lon="8.70748">
        <ele>1667</ele>
        <time>2021-08-06T11:54:14.394Z</time>
      </trkpt>
      <trkpt lat="46.94055" lon="8.70748">
        <ele>1667</ele>
        <time>2021-08-06T11:54:15.394Z</time>
      </trkpt>
      <trkpt lat="46.94054" lon="8.70747">
        <ele>1667</ele>
        <time>2021-08-06T11:54:16.395Z</time>
      </trkpt>
      <trkpt lat="46.94054" lon="8.70747">
        <ele>1667</ele>
        <time>2021-08-06T11:54:17.394Z</time>
      </trkpt>
      <trkpt lat="46.94053" lon="8.70746">
        <ele>1667</ele>
        <time>2021-08-06T11:54:18.394Z</time>
      </trkpt>
      <trkpt lat="46.94053" lon="8.70745">
        <ele>1667</ele>
        <time>2021-08-06T11:54:19.395Z</time>
      </trkpt>
      <trkpt lat="46.94052" lon="8.70745">
        <ele>1667</ele>
        <time>2021-08-06T11:54:20.395Z</time>
      </trkpt>
      <trkpt lat="46.94052" lon="8.70744">
        <ele>1667</ele>
        <time>2021-08-06T11:54:21.394Z</time>
      </trkpt>
      <trkpt lat="46.94051" lon="8.70744">
        <ele>1667</ele>
        <time>2021-08-06T11:54:22.395Z</time>
      </trkpt>
      <trkpt lat="46.94051" lon="8.70743">
        <ele>1667</ele>
        <time>2021-08-06T11:54:23.394Z</time>
      </trkpt>
      <trkpt lat="46.9405" lon="8.70742">
        <ele>1667</ele>
        <time>2021-08-06T11:54:24.394Z</time>
      </trkpt>
      <trkpt lat="46.94049" lon="8.70741">
        <ele>1667</ele>
        <time>2021-08-06T11:54:25.394Z</time>
      </trkpt>
      <trkpt lat="46.94049" lon="8.7074">
        <ele>1667</ele>
        <time>2021-08-06T11:54:26.394Z</time>
      </trkpt>
      <trkpt lat="46.94048" lon="8.70739">
        <ele>1668</ele>
        <time>2021-08-06T11:54:27.394Z</time>
      </trkpt>
      <trkpt lat="46.94048" lon="8.70738">
        <ele>1668</ele>
        <time>2021-08-06T11:54:28.394Z</time>
      </trkpt>
      <trkpt lat="46.94047" lon="8.70738">
        <ele>1668</ele>
        <time>2021-08-06T11:54:29.394Z</time>
      </trkpt>
      <trkpt lat="46.94047" lon="8.70738">
        <ele>1669</ele>
        <time>2021-08-06T11:54:30.394Z</time>
      </trkpt>
      <trkpt lat="46.94046" lon="8.70737">
        <ele>1669</ele>
        <time>2021-08-06T11:54:31.394Z</time>
      </trkpt>
      <trkpt lat="46.94046" lon="8.70736">
        <ele>1669</ele>
        <time>2021-08-06T11:54:32.395Z</time>
      </trkpt>
      <trkpt lat="46.94045" lon="8.70735">
        <ele>1669</ele>
        <time>2021-08-06T11:54:33.394Z</time>
      </trkpt>
      <trkpt lat="46.94045" lon="8.70735">
        <ele>1669</ele>
        <time>2021-08-06T11:54:34.394Z</time>
      </trkpt>
      <trkpt lat="46.94044" lon="8.70734">
        <ele>1669</ele>
        <time>2021-08-06T11:54:35.394Z</time>
      </trkpt>
      <trkpt lat="46.94043" lon="8.70733">
        <ele>1670</ele>
        <time>2021-08-06T11:54:36.395Z</time>
      </trkpt>
      <trkpt lat="46.94043" lon="8.70733">
        <ele>1669</ele>
        <time>2021-08-06T11:54:37.394Z</time>
      </trkpt>
      <trkpt lat="46.94042" lon="8.70732">
        <ele>1669</ele>
        <time>2021-08-06T11:54:38.395Z</time>
      </trkpt>
      <trkpt lat="46.94042" lon="8.70731">
        <ele>1669</ele>
        <time>2021-08-06T11:54:39.395Z</time>
      </trkpt>
      <trkpt lat="46.94041" lon="8.7073">
        <ele>1669</ele>
        <time>2021-08-06T11:54:40.395Z</time>
      </trkpt>
      <trkpt lat="46.94041" lon="8.70728">
        <ele>1669</ele>
        <time>2021-08-06T11:54:41.394Z</time>
      </trkpt>
      <trkpt lat="46.94041" lon="8.70727">
        <ele>1668</ele>
        <time>2021-08-06T11:54:42.394Z</time>
      </trkpt>
      <trkpt lat="46.9404" lon="8.70726">
        <ele>1668</ele>
        <time>2021-08-06T11:54:43.394Z</time>
      </trkpt>
      <trkpt lat="46.9404" lon="8.70725">
        <ele>1668</ele>
        <time>2021-08-06T11:54:44.395Z</time>
      </trkpt>
      <trkpt lat="46.9404" lon="8.70724">
        <ele>1669</ele>
        <time>2021-08-06T11:54:45.394Z</time>
      </trkpt>
      <trkpt lat="46.94039" lon="8.70723">
        <ele>1670</ele>
        <time>2021-08-06T11:54:46.394Z</time>
      </trkpt>
      <trkpt lat="46.94039" lon="8.70722">
        <ele>1670</ele>
        <time>2021-08-06T11:54:47.394Z</time>
      </trkpt>
      <trkpt lat="46.94039" lon="8.70721">
        <ele>1670</ele>
        <time>2021-08-06T11:54:48.394Z</time>
      </trkpt>
      <trkpt lat="46.94039" lon="8.70719">
        <ele>1671</ele>
        <time>2021-08-06T11:54:49.395Z</time>
      </trkpt>
      <trkpt lat="46.94039" lon="8.70717">
        <ele>1670</ele>
        <time>2021-08-06T11:54:50.394Z</time>
      </trkpt>
      <trkpt lat="46.94039" lon="8.70715">
        <ele>1671</ele>
        <time>2021-08-06T11:54:51.394Z</time>
      </trkpt>
      <trkpt lat="46.94039" lon="8.70714">
        <ele>1671</ele>
        <time>2021-08-06T11:54:52.394Z</time>
      </trkpt>
      <trkpt lat="46.94039" lon="8.70712">
        <ele>1671</ele>
        <time>2021-08-06T11:54:53.395Z</time>
      </trkpt>
      <trkpt lat="46.94039" lon="8.70711">
        <ele>1671</ele>
        <time>2021-08-06T11:54:54.394Z</time>
      </trkpt>
      <trkpt lat="46.94039" lon="8.7071">
        <ele>1671</ele>
        <time>2021-08-06T11:54:55.394Z</time>
      </trkpt>
      <trkpt lat="46.9404" lon="8.70708">
        <ele>1671</ele>
        <time>2021-08-06T11:54:56.394Z</time>
      </trkpt>
      <trkpt lat="46.9404" lon="8.70706">
        <ele>1671</ele>
        <time>2021-08-06T11:54:57.395Z</time>
      </trkpt>
      <trkpt lat="46.9404" lon="8.70705">
        <ele>1672</ele>
        <time>2021-08-06T11:54:58.394Z</time>
      </trkpt>
      <trkpt lat="46.9404" lon="8.70703">
        <ele>1672</ele>
        <time>2021-08-06T11:54:59.395Z</time>
      </trkpt>
      <trkpt lat="46.94041" lon="8.70702">
        <ele>1672</ele>
        <time>2021-08-06T11:55:00.395Z</time>
      </trkpt>
      <trkpt lat="46.94041" lon="8.70701">
        <ele>1672</ele>
        <time>2021-08-06T11:55:01.394Z</time>
      </trkpt>
      <trkpt lat="46.94041" lon="8.70699">
        <ele>1673</ele>
        <time>2021-08-06T11:55:02.394Z</time>
      </trkpt>
      <trkpt lat="46.94041" lon="8.70698">
        <ele>1673</ele>
        <time>2021-08-06T11:55:03.394Z</time>
      </trkpt>
      <trkpt lat="46.9404" lon="8.70697">
        <ele>1672</ele>
        <time>2021-08-06T11:55:04.395Z</time>
      </trkpt>
      <trkpt lat="46.9404" lon="8.70696">
        <ele>1673</ele>
        <time>2021-08-06T11:55:05.394Z</time>
      </trkpt>
      <trkpt lat="46.9404" lon="8.70694">
        <ele>1673</ele>
        <time>2021-08-06T11:55:06.395Z</time>
      </trkpt>
      <trkpt lat="46.9404" lon="8.70693">
        <ele>1673</ele>
        <time>2021-08-06T11:55:07.394Z</time>
      </trkpt>
      <trkpt lat="46.9404" lon="8.70691">
        <ele>1673</ele>
        <time>2021-08-06T11:55:08.394Z</time>
      </trkpt>
      <trkpt lat="46.9404" lon="8.7069">
        <ele>1673</ele>
        <time>2021-08-06T11:55:09.394Z</time>
      </trkpt>
      <trkpt lat="46.94039" lon="8.70689">
        <ele>1673</ele>
        <time>2021-08-06T11:55:10.394Z</time>
      </trkpt>
      <trkpt lat="46.94039" lon="8.70687">
        <ele>1673</ele>
        <time>2021-08-06T11:55:11.394Z</time>
      </trkpt>
      <trkpt lat="46.94039" lon="8.70686">
        <ele>1673</ele>
        <time>2021-08-06T11:55:12.394Z</time>
      </trkpt>
      <trkpt lat="46.94039" lon="8.70684">
        <ele>1673</ele>
        <time>2021-08-06T11:55:13.395Z</time>
      </trkpt>
      <trkpt lat="46.94039" lon="8.70682">
        <ele>1673</ele>
        <time>2021-08-06T11:55:14.394Z</time>
      </trkpt>
      <trkpt lat="46.94038" lon="8.70681">
        <ele>1673</ele>
        <time>2021-08-06T11:55:15.394Z</time>
      </trkpt>
      <trkpt lat="46.94038" lon="8.70679">
        <ele>1672</ele>
        <time>2021-08-06T11:55:16.395Z</time>
      </trkpt>
      <trkpt lat="46.94037" lon="8.70678">
        <ele>1672</ele>
        <time>2021-08-06T11:55:17.394Z</time>
      </trkpt>
      <trkpt lat="46.94036" lon="8.70677">
        <ele>1672</ele>
        <time>2021-08-06T11:55:18.394Z</time>
      </trkpt>
      <trkpt lat="46.94036" lon="8.70676">
        <ele>1672</ele>
        <time>2021-08-06T11:55:19.395Z</time>
      </trkpt>
      <trkpt lat="46.94035" lon="8.70675">
        <ele>1672</ele>
        <time>2021-08-06T11:55:20.394Z</time>
      </trkpt>
      <trkpt lat="46.94034" lon="8.70674">
        <ele>1672</ele>
        <time>2021-08-06T11:55:21.395Z</time>
      </trkpt>
      <trkpt lat="46.94033" lon="8.70673">
        <ele>1671</ele>
        <time>2021-08-06T11:55:22.394Z</time>
      </trkpt>
      <trkpt lat="46.94032" lon="8.70672">
        <ele>1671</ele>
        <time>2021-08-06T11:55:23.394Z</time>
      </trkpt>
      <trkpt lat="46.94031" lon="8.70671">
        <ele>1671</ele>
        <time>2021-08-06T11:55:24.394Z</time>
      </trkpt>
      <trkpt lat="46.9403" lon="8.7067">
        <ele>1670</ele>
        <time>2021-08-06T11:55:25.394Z</time>
      </trkpt>
      <trkpt lat="46.94029" lon="8.70669">
        <ele>1670</ele>
        <time>2021-08-06T11:55:26.394Z</time>
      </trkpt>
      <trkpt lat="46.94029" lon="8.70667">
        <ele>1670</ele>
        <time>2021-08-06T11:55:27.394Z</time>
      </trkpt>
      <trkpt lat="46.94028" lon="8.70666">
        <ele>1670</ele>
        <time>2021-08-06T11:55:28.394Z</time>
      </trkpt>
      <trkpt lat="46.94027" lon="8.70665">
        <ele>1669</ele>
        <time>2021-08-06T11:55:29.394Z</time>
      </trkpt>
      <trkpt lat="46.94026" lon="8.70664">
        <ele>1669</ele>
        <time>2021-08-06T11:55:30.395Z</time>
      </trkpt>
      <trkpt lat="46.94026" lon="8.70663">
        <ele>1669</ele>
        <time>2021-08-06T11:55:31.394Z</time>
      </trkpt>
      <trkpt lat="46.94025" lon="8.70661">
        <ele>1668</ele>
        <time>2021-08-06T11:55:32.395Z</time>
      </trkpt>
      <trkpt lat="46.94024" lon="8.7066">
        <ele>1668</ele>
        <time>2021-08-06T11:55:33.394Z</time>
      </trkpt>
      <trkpt lat="46.94024" lon="8.70659">
        <ele>1668</ele>
        <time>2021-08-06T11:55:34.394Z</time>
      </trkpt>
      <trkpt lat="46.94023" lon="8.70657">
        <ele>1667</ele>
        <time>2021-08-06T11:55:35.394Z</time>
      </trkpt>
      <trkpt lat="46.94023" lon="8.70656">
        <ele>1667</ele>
        <time>2021-08-06T11:55:36.394Z</time>
      </trkpt>
      <trkpt lat="46.94022" lon="8.70654">
        <ele>1667</ele>
        <time>2021-08-06T11:55:37.394Z</time>
      </trkpt>
      <trkpt lat="46.94022" lon="8.70653">
        <ele>1666</ele>
        <time>2021-08-06T11:55:38.394Z</time>
      </trkpt>
      <trkpt lat="46.94021" lon="8.70651">
        <ele>1666</ele>
        <time>2021-08-06T11:55:39.394Z</time>
      </trkpt>
      <trkpt lat="46.9402" lon="8.7065">
        <ele>1665</ele>
        <time>2021-08-06T11:55:40.394Z</time>
      </trkpt>
      <trkpt lat="46.94019" lon="8.70649">
        <ele>1665</ele>
        <time>2021-08-06T11:55:41.394Z</time>
      </trkpt>
      <trkpt lat="46.94018" lon="8.70647">
        <ele>1665</ele>
        <time>2021-08-06T11:55:42.394Z</time>
      </trkpt>
      <trkpt lat="46.94017" lon="8.70646">
        <ele>1665</ele>
        <time>2021-08-06T11:55:43.394Z</time>
      </trkpt>
      <trkpt lat="46.94016" lon="8.70645">
        <ele>1665</ele>
        <time>2021-08-06T11:55:44.394Z</time>
      </trkpt>
      <trkpt lat="46.94015" lon="8.70645">
        <ele>1665</ele>
        <time>2021-08-06T11:55:45.394Z</time>
      </trkpt>
      <trkpt lat="46.94014" lon="8.70644">
        <ele>1665</ele>
        <time>2021-08-06T11:55:46.394Z</time>
      </trkpt>
      <trkpt lat="46.94013" lon="8.70644">
        <ele>1666</ele>
        <time>2021-08-06T11:55:47.394Z</time>
      </trkpt>
      <trkpt lat="46.94012" lon="8.70643">
        <ele>1666</ele>
        <time>2021-08-06T11:55:48.394Z</time>
      </trkpt>
      <trkpt lat="46.94011" lon="8.70642">
        <ele>1666</ele>
        <time>2021-08-06T11:55:49.395Z</time>
      </trkpt>
      <trkpt lat="46.9401" lon="8.70641">
        <ele>1667</ele>
        <time>2021-08-06T11:55:50.395Z</time>
      </trkpt>
      <trkpt lat="46.94009" lon="8.7064">
        <ele>1667</ele>
        <time>2021-08-06T11:55:51.394Z</time>
      </trkpt>
      <trkpt lat="46.94008" lon="8.7064">
        <ele>1666</ele>
        <time>2021-08-06T11:55:52.394Z</time>
      </trkpt>
      <trkpt lat="46.94007" lon="8.70639">
        <ele>1666</ele>
        <time>2021-08-06T11:55:53.394Z</time>
      </trkpt>
      <trkpt lat="46.94006" lon="8.70638">
        <ele>1665</ele>
        <time>2021-08-06T11:55:54.394Z</time>
      </trkpt>
      <trkpt lat="46.94005" lon="8.70638">
        <ele>1665</ele>
        <time>2021-08-06T11:55:55.394Z</time>
      </trkpt>
      <trkpt lat="46.94004" lon="8.70637">
        <ele>1665</ele>
        <time>2021-08-06T11:55:56.394Z</time>
      </trkpt>
      <trkpt lat="46.94003" lon="8.70636">
        <ele>1665</ele>
        <time>2021-08-06T11:55:57.394Z</time>
      </trkpt>
      <trkpt lat="46.94002" lon="8.70636">
        <ele>1665</ele>
        <time>2021-08-06T11:55:58.394Z</time>
      </trkpt>
      <trkpt lat="46.94002" lon="8.70636">
        <ele>1665</ele>
        <time>2021-08-06T11:55:59.395Z</time>
      </trkpt>
      <trkpt lat="46.94001" lon="8.70635">
        <ele>1665</ele>
        <time>2021-08-06T11:56:00.394Z</time>
      </trkpt>
      <trkpt lat="46.94" lon="8.70635">
        <ele>1665</ele>
        <time>2021-08-06T11:56:01.394Z</time>
      </trkpt>
      <trkpt lat="46.93999" lon="8.70634">
        <ele>1665</ele>
        <time>2021-08-06T11:56:02.394Z</time>
      </trkpt>
      <trkpt lat="46.93998" lon="8.70633">
        <ele>1665</ele>
        <time>2021-08-06T11:56:03.394Z</time>
      </trkpt>
      <trkpt lat="46.93998" lon="8.70632">
        <ele>1665</ele>
        <time>2021-08-06T11:56:04.394Z</time>
      </trkpt>
      <trkpt lat="46.93997" lon="8.70631">
        <ele>1665</ele>
        <time>2021-08-06T11:56:05.394Z</time>
      </trkpt>
      <trkpt lat="46.93996" lon="8.70631">
        <ele>1665</ele>
        <time>2021-08-06T11:56:06.394Z</time>
      </trkpt>
      <trkpt lat="46.93995" lon="8.7063">
        <ele>1665</ele>
        <time>2021-08-06T11:56:07.394Z</time>
      </trkpt>
      <trkpt lat="46.93995" lon="8.70629">
        <ele>1665</ele>
        <time>2021-08-06T11:56:08.395Z</time>
      </trkpt>
      <trkpt lat="46.93994" lon="8.70629">
        <ele>1665</ele>
        <time>2021-08-06T11:56:09.395Z</time>
      </trkpt>
      <trkpt lat="46.93994" lon="8.70628">
        <ele>1666</ele>
        <time>2021-08-06T11:56:10.394Z</time>
      </trkpt>
      <trkpt lat="46.93993" lon="8.70628">
        <ele>1666</ele>
        <time>2021-08-06T11:56:11.394Z</time>
      </trkpt>
      <trkpt lat="46.93993" lon="8.70627">
        <ele>1666</ele>
        <time>2021-08-06T11:56:12.394Z</time>
      </trkpt>
      <trkpt lat="46.93992" lon="8.70626">
        <ele>1666</ele>
        <time>2021-08-06T11:56:13.394Z</time>
      </trkpt>
      <trkpt lat="46.93992" lon="8.70625">
        <ele>1666</ele>
        <time>2021-08-06T11:56:14.395Z</time>
      </trkpt>
      <trkpt lat="46.93992" lon="8.70624">
        <ele>1667</ele>
        <time>2021-08-06T11:56:19.508Z</time>
      </trkpt>
      <trkpt lat="46.93992" lon="8.70624">
        <ele>1667</ele>
        <time>2021-08-06T11:56:20.508Z</time>
      </trkpt>
      <trkpt lat="46.93992" lon="8.70623">
        <ele>1667</ele>
        <time>2021-08-06T11:56:21.509Z</time>
      </trkpt>
      <trkpt lat="46.93993" lon="8.70622">
        <ele>1667</ele>
        <time>2021-08-06T11:56:22.508Z</time>
      </trkpt>
      <trkpt lat="46.93993" lon="8.70621">
        <ele>1668</ele>
        <time>2021-08-06T11:56:23.508Z</time>
      </trkpt>
      <trkpt lat="46.93994" lon="8.7062">
        <ele>1668</ele>
        <time>2021-08-06T11:56:24.508Z</time>
      </trkpt>
      <trkpt lat="46.93994" lon="8.70618">
        <ele>1668</ele>
        <time>2021-08-06T11:56:25.508Z</time>
      </trkpt>
      <trkpt lat="46.93994" lon="8.70617">
        <ele>1669</ele>
        <time>2021-08-06T11:56:26.508Z</time>
      </trkpt>
      <trkpt lat="46.93994" lon="8.70616">
        <ele>1669</ele>
        <time>2021-08-06T11:56:27.508Z</time>
      </trkpt>
      <trkpt lat="46.93994" lon="8.70614">
        <ele>1669</ele>
        <time>2021-08-06T11:56:28.509Z</time>
      </trkpt>
      <trkpt lat="46.93994" lon="8.70613">
        <ele>1669</ele>
        <time>2021-08-06T11:56:29.509Z</time>
      </trkpt>
      <trkpt lat="46.93993" lon="8.70611">
        <ele>1669</ele>
        <time>2021-08-06T11:56:30.509Z</time>
      </trkpt>
      <trkpt lat="46.93992" lon="8.7061">
        <ele>1669</ele>
        <time>2021-08-06T11:56:31.508Z</time>
      </trkpt>
      <trkpt lat="46.93991" lon="8.70609">
        <ele>1669</ele>
        <time>2021-08-06T11:56:32.508Z</time>
      </trkpt>
      <trkpt lat="46.93991" lon="8.70608">
        <ele>1669</ele>
        <time>2021-08-06T11:56:33.508Z</time>
      </trkpt>
      <trkpt lat="46.9399" lon="8.70607">
        <ele>1669</ele>
        <time>2021-08-06T11:56:34.508Z</time>
      </trkpt>
      <trkpt lat="46.9399" lon="8.70606">
        <ele>1669</ele>
        <time>2021-08-06T11:56:35.508Z</time>
      </trkpt>
      <trkpt lat="46.93989" lon="8.70606">
        <ele>1669</ele>
        <time>2021-08-06T11:56:36.509Z</time>
      </trkpt>
      <trkpt lat="46.93988" lon="8.70605">
        <ele>1669</ele>
        <time>2021-08-06T11:56:37.508Z</time>
      </trkpt>
      <trkpt lat="46.93988" lon="8.70605">
        <ele>1669</ele>
        <time>2021-08-06T11:56:38.508Z</time>
      </trkpt>
      <trkpt lat="46.93987" lon="8.70604">
        <ele>1669</ele>
        <time>2021-08-06T11:56:39.508Z</time>
      </trkpt>
      <trkpt lat="46.93987" lon="8.70603">
        <ele>1669</ele>
        <time>2021-08-06T11:56:40.509Z</time>
      </trkpt>
      <trkpt lat="46.93987" lon="8.70602">
        <ele>1669</ele>
        <time>2021-08-06T11:56:41.508Z</time>
      </trkpt>
      <trkpt lat="46.93986" lon="8.70601">
        <ele>1669</ele>
        <time>2021-08-06T11:56:42.508Z</time>
      </trkpt>
      <trkpt lat="46.93986" lon="8.706">
        <ele>1669</ele>
        <time>2021-08-06T11:56:43.508Z</time>
      </trkpt>
      <trkpt lat="46.93986" lon="8.70599">
        <ele>1669</ele>
        <time>2021-08-06T11:56:44.509Z</time>
      </trkpt>
      <trkpt lat="46.93985" lon="8.70598">
        <ele>1669</ele>
        <time>2021-08-06T11:56:45.508Z</time>
      </trkpt>
      <trkpt lat="46.93984" lon="8.70597">
        <ele>1669</ele>
        <time>2021-08-06T11:56:46.508Z</time>
      </trkpt>
      <trkpt lat="46.93984" lon="8.70597">
        <ele>1669</ele>
        <time>2021-08-06T11:56:47.508Z</time>
      </trkpt>
      <trkpt lat="46.93983" lon="8.70596">
        <ele>1669</ele>
        <time>2021-08-06T11:56:48.508Z</time>
      </trkpt>
      <trkpt lat="46.93983" lon="8.70596">
        <ele>1669</ele>
        <time>2021-08-06T11:56:49.509Z</time>
      </trkpt>
      <trkpt lat="46.93982" lon="8.70595">
        <ele>1669</ele>
        <time>2021-08-06T11:56:50.508Z</time>
      </trkpt>
      <trkpt lat="46.93982" lon="8.70594">
        <ele>1669</ele>
        <time>2021-08-06T11:56:51.508Z</time>
      </trkpt>
      <trkpt lat="46.93981" lon="8.70593">
        <ele>1669</ele>
        <time>2021-08-06T11:56:52.509Z</time>
      </trkpt>
      <trkpt lat="46.93981" lon="8.70592">
        <ele>1669</ele>
        <time>2021-08-06T11:56:53.508Z</time>
      </trkpt>
      <trkpt lat="46.9398" lon="8.70591">
        <ele>1670</ele>
        <time>2021-08-06T11:56:54.508Z</time>
      </trkpt>
      <trkpt lat="46.9398" lon="8.7059">
        <ele>1670</ele>
        <time>2021-08-06T11:56:55.508Z</time>
      </trkpt>
      <trkpt lat="46.93979" lon="8.70589">
        <ele>1670</ele>
        <time>2021-08-06T11:56:56.508Z</time>
      </trkpt>
      <trkpt lat="46.93978" lon="8.70588">
        <ele>1670</ele>
        <time>2021-08-06T11:56:57.508Z</time>
      </trkpt>
      <trkpt lat="46.93978" lon="8.70587">
        <ele>1670</ele>
        <time>2021-08-06T11:56:58.508Z</time>
      </trkpt>
      <trkpt lat="46.93977" lon="8.70587">
        <ele>1670</ele>
        <time>2021-08-06T11:56:59.508Z</time>
      </trkpt>
      <trkpt lat="46.93976" lon="8.70587">
        <ele>1670</ele>
        <time>2021-08-06T11:57:00.508Z</time>
      </trkpt>
      <trkpt lat="46.93976" lon="8.70586">
        <ele>1671</ele>
        <time>2021-08-06T11:57:01.508Z</time>
      </trkpt>
      <trkpt lat="46.93975" lon="8.70586">
        <ele>1671</ele>
        <time>2021-08-06T11:57:02.509Z</time>
      </trkpt>
      <trkpt lat="46.93974" lon="8.70586">
        <ele>1671</ele>
        <time>2021-08-06T11:57:03.508Z</time>
      </trkpt>
      <trkpt lat="46.93973" lon="8.70586">
        <ele>1671</ele>
        <time>2021-08-06T11:57:04.508Z</time>
      </trkpt>
      <trkpt lat="46.93973" lon="8.70587">
        <ele>1671</ele>
        <time>2021-08-06T11:57:05.508Z</time>
      </trkpt>
      <trkpt lat="46.93972" lon="8.70586">
        <ele>1671</ele>
        <time>2021-08-06T11:57:06.509Z</time>
      </trkpt>
      <trkpt lat="46.93972" lon="8.70586">
        <ele>1671</ele>
        <time>2021-08-06T11:57:07.508Z</time>
      </trkpt>
      <trkpt lat="46.93971" lon="8.70586">
        <ele>1670</ele>
        <time>2021-08-06T11:57:08.508Z</time>
      </trkpt>
      <trkpt lat="46.93971" lon="8.70586">
        <ele>1670</ele>
        <time>2021-08-06T11:57:09.509Z</time>
      </trkpt>
      <trkpt lat="46.9397" lon="8.70585">
        <ele>1670</ele>
        <time>2021-08-06T11:57:10.508Z</time>
      </trkpt>
      <trkpt lat="46.9397" lon="8.70585">
        <ele>1670</ele>
        <time>2021-08-06T11:57:11.508Z</time>
      </trkpt>
      <trkpt lat="46.93969" lon="8.70584">
        <ele>1670</ele>
        <time>2021-08-06T11:57:12.509Z</time>
      </trkpt>
      <trkpt lat="46.93969" lon="8.70583">
        <ele>1670</ele>
        <time>2021-08-06T11:57:13.508Z</time>
      </trkpt>
      <trkpt lat="46.93968" lon="8.70583">
        <ele>1671</ele>
        <time>2021-08-06T11:57:14.508Z</time>
      </trkpt>
      <trkpt lat="46.93968" lon="8.70582">
        <ele>1671</ele>
        <time>2021-08-06T11:57:15.508Z</time>
      </trkpt>
      <trkpt lat="46.93967" lon="8.70581">
        <ele>1671</ele>
        <time>2021-08-06T11:57:16.508Z</time>
      </trkpt>
      <trkpt lat="46.93967" lon="8.7058">
        <ele>1671</ele>
        <time>2021-08-06T11:57:17.509Z</time>
      </trkpt>
      <trkpt lat="46.93967" lon="8.7058">
        <ele>1672</ele>
        <time>2021-08-06T11:57:18.508Z</time>
      </trkpt>
      <trkpt lat="46.93966" lon="8.70579">
        <ele>1672</ele>
        <time>2021-08-06T11:57:19.508Z</time>
      </trkpt>
      <trkpt lat="46.93965" lon="8.70578">
        <ele>1672</ele>
        <time>2021-08-06T11:57:20.508Z</time>
      </trkpt>
      <trkpt lat="46.93965" lon="8.70577">
        <ele>1672</ele>
        <time>2021-08-06T11:57:21.508Z</time>
      </trkpt>
      <trkpt lat="46.93965" lon="8.70576">
        <ele>1672</ele>
        <time>2021-08-06T11:57:22.509Z</time>
      </trkpt>
      <trkpt lat="46.93964" lon="8.70575">
        <ele>1672</ele>
        <time>2021-08-06T11:57:23.508Z</time>
      </trkpt>
      <trkpt lat="46.93964" lon="8.70574">
        <ele>1673</ele>
        <time>2021-08-06T11:57:24.509Z</time>
      </trkpt>
      <trkpt lat="46.93964" lon="8.70573">
        <ele>1673</ele>
        <time>2021-08-06T11:57:25.509Z</time>
      </trkpt>
      <trkpt lat="46.93963" lon="8.70572">
        <ele>1674</ele>
        <time>2021-08-06T11:57:26.509Z</time>
      </trkpt>
      <trkpt lat="46.93963" lon="8.70571">
        <ele>1674</ele>
        <time>2021-08-06T11:57:27.508Z</time>
      </trkpt>
      <trkpt lat="46.93963" lon="8.70571">
        <ele>1674</ele>
        <time>2021-08-06T11:57:28.508Z</time>
      </trkpt>
      <trkpt lat="46.93962" lon="8.7057">
        <ele>1674</ele>
        <time>2021-08-06T11:57:29.508Z</time>
      </trkpt>
      <trkpt lat="46.93962" lon="8.70569">
        <ele>1674</ele>
        <time>2021-08-06T11:57:30.508Z</time>
      </trkpt>
      <trkpt lat="46.93961" lon="8.70568">
        <ele>1674</ele>
        <time>2021-08-06T11:57:31.508Z</time>
      </trkpt>
      <trkpt lat="46.93961" lon="8.70566">
        <ele>1674</ele>
        <time>2021-08-06T11:57:32.508Z</time>
      </trkpt>
      <trkpt lat="46.93961" lon="8.70566">
        <ele>1674</ele>
        <time>2021-08-06T11:57:33.509Z</time>
      </trkpt>
      <trkpt lat="46.9396" lon="8.70565">
        <ele>1674</ele>
        <time>2021-08-06T11:57:34.508Z</time>
      </trkpt>
      <trkpt lat="46.9396" lon="8.70564">
        <ele>1674</ele>
        <time>2021-08-06T11:57:35.508Z</time>
      </trkpt>
      <trkpt lat="46.9396" lon="8.70564">
        <ele>1674</ele>
        <time>2021-08-06T11:57:36.508Z</time>
      </trkpt>
      <trkpt lat="46.93959" lon="8.70564">
        <ele>1674</ele>
        <time>2021-08-06T11:57:37.508Z</time>
      </trkpt>
      <trkpt lat="46.93959" lon="8.70563">
        <ele>1675</ele>
        <time>2021-08-06T11:57:38.508Z</time>
      </trkpt>
      <trkpt lat="46.93959" lon="8.70563">
        <ele>1675</ele>
        <time>2021-08-06T11:57:39.508Z</time>
      </trkpt>
      <trkpt lat="46.93958" lon="8.70562">
        <ele>1675</ele>
        <time>2021-08-06T11:57:40.508Z</time>
      </trkpt>
      <trkpt lat="46.93958" lon="8.70561">
        <ele>1675</ele>
        <time>2021-08-06T11:57:41.509Z</time>
      </trkpt>
      <trkpt lat="46.93957" lon="8.7056">
        <ele>1674</ele>
        <time>2021-08-06T11:57:42.509Z</time>
      </trkpt>
      <trkpt lat="46.93956" lon="8.7056">
        <ele>1674</ele>
        <time>2021-08-06T11:57:43.508Z</time>
      </trkpt>
      <trkpt lat="46.93955" lon="8.7056">
        <ele>1674</ele>
        <time>2021-08-06T11:57:44.508Z</time>
      </trkpt>
      <trkpt lat="46.93955" lon="8.7056">
        <ele>1674</ele>
        <time>2021-08-06T11:57:45.509Z</time>
      </trkpt>
      <trkpt lat="46.93955" lon="8.7056">
        <ele>1674</ele>
        <time>2021-08-06T11:57:46.508Z</time>
      </trkpt>
      <trkpt lat="46.93954" lon="8.7056">
        <ele>1674</ele>
        <time>2021-08-06T11:57:47.508Z</time>
      </trkpt>
      <trkpt lat="46.93954" lon="8.7056">
        <ele>1674</ele>
        <time>2021-08-06T11:57:48.508Z</time>
      </trkpt>
      <trkpt lat="46.93953" lon="8.7056">
        <ele>1673</ele>
        <time>2021-08-06T11:57:49.508Z</time>
      </trkpt>
      <trkpt lat="46.93953" lon="8.7056">
        <ele>1673</ele>
        <time>2021-08-06T11:57:50.508Z</time>
      </trkpt>
      <trkpt lat="46.93953" lon="8.70561">
        <ele>1673</ele>
        <time>2021-08-06T11:57:51.509Z</time>
      </trkpt>
      <trkpt lat="46.93952" lon="8.70562">
        <ele>1672</ele>
        <time>2021-08-06T11:57:52.508Z</time>
      </trkpt>
      <trkpt lat="46.93952" lon="8.70563">
        <ele>1672</ele>
        <time>2021-08-06T11:57:53.508Z</time>
      </trkpt>
      <trkpt lat="46.93952" lon="8.70564">
        <ele>1672</ele>
        <time>2021-08-06T11:57:54.508Z</time>
      </trkpt>
      <trkpt lat="46.93951" lon="8.70564">
        <ele>1672</ele>
        <time>2021-08-06T11:57:55.509Z</time>
      </trkpt>
      <trkpt lat="46.93951" lon="8.70564">
        <ele>1672</ele>
        <time>2021-08-06T11:57:56.508Z</time>
      </trkpt>
      <trkpt lat="46.9395" lon="8.70564">
        <ele>1672</ele>
        <time>2021-08-06T11:57:57.509Z</time>
      </trkpt>
      <trkpt lat="46.9395" lon="8.70564">
        <ele>1672</ele>
        <time>2021-08-06T11:57:58.509Z</time>
      </trkpt>
      <trkpt lat="46.93949" lon="8.70564">
        <ele>1672</ele>
        <time>2021-08-06T11:57:59.509Z</time>
      </trkpt>
      <trkpt lat="46.93948" lon="8.70563">
        <ele>1672</ele>
        <time>2021-08-06T11:58:00.509Z</time>
      </trkpt>
      <trkpt lat="46.93948" lon="8.70563">
        <ele>1672</ele>
        <time>2021-08-06T11:58:01.508Z</time>
      </trkpt>
      <trkpt lat="46.93948" lon="8.70563">
        <ele>1672</ele>
        <time>2021-08-06T11:58:02.509Z</time>
      </trkpt>
      <trkpt lat="46.93947" lon="8.70564">
        <ele>1673</ele>
        <time>2021-08-06T11:58:03.508Z</time>
      </trkpt>
      <trkpt lat="46.93947" lon="8.70565">
        <ele>1673</ele>
        <time>2021-08-06T11:58:04.508Z</time>
      </trkpt>
      <trkpt lat="46.93947" lon="8.70566">
        <ele>1673</ele>
        <time>2021-08-06T11:58:05.508Z</time>
      </trkpt>
      <trkpt lat="46.93947" lon="8.70566">
        <ele>1674</ele>
        <time>2021-08-06T11:58:06.508Z</time>
      </trkpt>
      <trkpt lat="46.93946" lon="8.70566">
        <ele>1674</ele>
        <time>2021-08-06T11:58:07.508Z</time>
      </trkpt>
      <trkpt lat="46.93946" lon="8.70565">
        <ele>1674</ele>
        <time>2021-08-06T11:58:08.508Z</time>
      </trkpt>
      <trkpt lat="46.93946" lon="8.70565">
        <ele>1675</ele>
        <time>2021-08-06T11:58:09.509Z</time>
      </trkpt>
      <trkpt lat="46.93945" lon="8.70565">
        <ele>1675</ele>
        <time>2021-08-06T11:58:10.508Z</time>
      </trkpt>
      <trkpt lat="46.93945" lon="8.70565">
        <ele>1675</ele>
        <time>2021-08-06T11:58:11.509Z</time>
      </trkpt>
      <trkpt lat="46.93945" lon="8.70565">
        <ele>1676</ele>
        <time>2021-08-06T11:58:12.509Z</time>
      </trkpt>
      <trkpt lat="46.93945" lon="8.70566">
        <ele>1676</ele>
        <time>2021-08-06T11:58:13.509Z</time>
      </trkpt>
      <trkpt lat="46.93944" lon="8.70566">
        <ele>1676</ele>
        <time>2021-08-06T11:58:14.508Z</time>
      </trkpt>
      <trkpt lat="46.93944" lon="8.70566">
        <ele>1677</ele>
        <time>2021-08-06T11:58:15.508Z</time>
      </trkpt>
      <trkpt lat="46.93943" lon="8.70566">
        <ele>1677</ele>
        <time>2021-08-06T11:58:16.508Z</time>
      </trkpt>
      <trkpt lat="46.93943" lon="8.70565">
        <ele>1677</ele>
        <time>2021-08-06T11:58:17.509Z</time>
      </trkpt>
      <trkpt lat="46.93942" lon="8.70563">
        <ele>1678</ele>
        <time>2021-08-06T11:58:18.508Z</time>
      </trkpt>
      <trkpt lat="46.93942" lon="8.70561">
        <ele>1678</ele>
        <time>2021-08-06T11:58:19.509Z</time>
      </trkpt>
      <trkpt lat="46.93941" lon="8.70561">
        <ele>1679</ele>
        <time>2021-08-06T11:58:20.508Z</time>
      </trkpt>
      <trkpt lat="46.93941" lon="8.7056">
        <ele>1679</ele>
        <time>2021-08-06T11:58:21.509Z</time>
      </trkpt>
      <trkpt lat="46.9394" lon="8.7056">
        <ele>1680</ele>
        <time>2021-08-06T11:58:22.508Z</time>
      </trkpt>
      <trkpt lat="46.93939" lon="8.7056">
        <ele>1680</ele>
        <time>2021-08-06T11:58:23.508Z</time>
      </trkpt>
      <trkpt lat="46.93939" lon="8.7056">
        <ele>1680</ele>
        <time>2021-08-06T11:58:24.508Z</time>
      </trkpt>
      <trkpt lat="46.93938" lon="8.7056">
        <ele>1681</ele>
        <time>2021-08-06T11:58:25.508Z</time>
      </trkpt>
      <trkpt lat="46.93938" lon="8.70559">
        <ele>1681</ele>
        <time>2021-08-06T11:58:26.508Z</time>
      </trkpt>
      <trkpt lat="46.93939" lon="8.70559">
        <ele>1681</ele>
        <time>2021-08-06T11:58:27.508Z</time>
      </trkpt>
      <trkpt lat="46.93939" lon="8.70558">
        <ele>1681</ele>
        <time>2021-08-06T11:58:28.508Z</time>
      </trkpt>
      <trkpt lat="46.93939" lon="8.70555">
        <ele>1681</ele>
        <time>2021-08-06T11:58:29.508Z</time>
      </trkpt>
      <trkpt lat="46.93939" lon="8.70553">
        <ele>1682</ele>
        <time>2021-08-06T11:58:30.508Z</time>
      </trkpt>
      <trkpt lat="46.9394" lon="8.70551">
        <ele>1682</ele>
        <time>2021-08-06T11:58:31.508Z</time>
      </trkpt>
      <trkpt lat="46.9394" lon="8.7055">
        <ele>1682</ele>
        <time>2021-08-06T11:58:32.508Z</time>
      </trkpt>
      <trkpt lat="46.9394" lon="8.70548">
        <ele>1682</ele>
        <time>2021-08-06T11:58:33.508Z</time>
      </trkpt>
      <trkpt lat="46.9394" lon="8.70547">
        <ele>1682</ele>
        <time>2021-08-06T11:58:34.509Z</time>
      </trkpt>
      <trkpt lat="46.9394" lon="8.70546">
        <ele>1682</ele>
        <time>2021-08-06T11:58:35.508Z</time>
      </trkpt>
      <trkpt lat="46.93939" lon="8.70545">
        <ele>1682</ele>
        <time>2021-08-06T11:58:36.508Z</time>
      </trkpt>
      <trkpt lat="46.93939" lon="8.70544">
        <ele>1682</ele>
        <time>2021-08-06T11:58:37.509Z</time>
      </trkpt>
      <trkpt lat="46.93939" lon="8.70543">
        <ele>1682</ele>
        <time>2021-08-06T11:58:38.508Z</time>
      </trkpt>
      <trkpt lat="46.93938" lon="8.70542">
        <ele>1682</ele>
        <time>2021-08-06T11:58:39.508Z</time>
      </trkpt>
      <trkpt lat="46.93939" lon="8.70541">
        <ele>1682</ele>
        <time>2021-08-06T11:58:40.509Z</time>
      </trkpt>
      <trkpt lat="46.93939" lon="8.7054">
        <ele>1682</ele>
        <time>2021-08-06T11:58:41.508Z</time>
      </trkpt>
      <trkpt lat="46.93939" lon="8.70539">
        <ele>1682</ele>
        <time>2021-08-06T11:58:42.508Z</time>
      </trkpt>
      <trkpt lat="46.93939" lon="8.70538">
        <ele>1682</ele>
        <time>2021-08-06T11:58:43.508Z</time>
      </trkpt>
      <trkpt lat="46.93939" lon="8.70537">
        <ele>1682</ele>
        <time>2021-08-06T11:58:44.508Z</time>
      </trkpt>
      <trkpt lat="46.93939" lon="8.70536">
        <ele>1682</ele>
        <time>2021-08-06T11:58:45.509Z</time>
      </trkpt>
      <trkpt lat="46.9394" lon="8.70534">
        <ele>1682</ele>
        <time>2021-08-06T11:58:46.508Z</time>
      </trkpt>
      <trkpt lat="46.9394" lon="8.70533">
        <ele>1683</ele>
        <time>2021-08-06T11:58:47.508Z</time>
      </trkpt>
      <trkpt lat="46.9394" lon="8.70532">
        <ele>1683</ele>
        <time>2021-08-06T11:58:48.508Z</time>
      </trkpt>
      <trkpt lat="46.9394" lon="8.70531">
        <ele>1683</ele>
        <time>2021-08-06T11:58:49.508Z</time>
      </trkpt>
      <trkpt lat="46.9394" lon="8.7053">
        <ele>1683</ele>
        <time>2021-08-06T11:58:50.508Z</time>
      </trkpt>
      <trkpt lat="46.9394" lon="8.70529">
        <ele>1682</ele>
        <time>2021-08-06T11:58:51.508Z</time>
      </trkpt>
      <trkpt lat="46.9394" lon="8.70528">
        <ele>1682</ele>
        <time>2021-08-06T11:58:52.508Z</time>
      </trkpt>
      <trkpt lat="46.9394" lon="8.70527">
        <ele>1682</ele>
        <time>2021-08-06T11:58:53.508Z</time>
      </trkpt>
      <trkpt lat="46.93939" lon="8.70525">
        <ele>1681</ele>
        <time>2021-08-06T11:58:54.508Z</time>
      </trkpt>
      <trkpt lat="46.93939" lon="8.70524">
        <ele>1681</ele>
        <time>2021-08-06T11:58:55.508Z</time>
      </trkpt>
      <trkpt lat="46.9394" lon="8.70523">
        <ele>1681</ele>
        <time>2021-08-06T11:58:56.508Z</time>
      </trkpt>
      <trkpt lat="46.9394" lon="8.70524">
        <ele>1681</ele>
        <time>2021-08-06T11:58:57.508Z</time>
      </trkpt>
      <trkpt lat="46.9394" lon="8.70523">
        <ele>1680</ele>
        <time>2021-08-06T11:58:58.509Z</time>
      </trkpt>
      <trkpt lat="46.9394" lon="8.70522">
        <ele>1680</ele>
        <time>2021-08-06T11:58:59.509Z</time>
      </trkpt>
      <trkpt lat="46.9394" lon="8.70521">
        <ele>1680</ele>
        <time>2021-08-06T11:59:00.508Z</time>
      </trkpt>
      <trkpt lat="46.9394" lon="8.7052">
        <ele>1680</ele>
        <time>2021-08-06T11:59:01.508Z</time>
      </trkpt>
      <trkpt lat="46.93941" lon="8.70519">
        <ele>1680</ele>
        <time>2021-08-06T11:59:02.508Z</time>
      </trkpt>
      <trkpt lat="46.93941" lon="8.70518">
        <ele>1680</ele>
        <time>2021-08-06T11:59:03.509Z</time>
      </trkpt>
      <trkpt lat="46.93941" lon="8.70517">
        <ele>1680</ele>
        <time>2021-08-06T11:59:04.508Z</time>
      </trkpt>
      <trkpt lat="46.93941" lon="8.70516">
        <ele>1680</ele>
        <time>2021-08-06T11:59:05.508Z</time>
      </trkpt>
      <trkpt lat="46.93942" lon="8.70514">
        <ele>1679</ele>
        <time>2021-08-06T11:59:06.508Z</time>
      </trkpt>
      <trkpt lat="46.93942" lon="8.70513">
        <ele>1679</ele>
        <time>2021-08-06T11:59:07.509Z</time>
      </trkpt>
      <trkpt lat="46.93942" lon="8.70513">
        <ele>1679</ele>
        <time>2021-08-06T11:59:08.509Z</time>
      </trkpt>
      <trkpt lat="46.93942" lon="8.70511">
        <ele>1679</ele>
        <time>2021-08-06T11:59:09.509Z</time>
      </trkpt>
      <trkpt lat="46.93942" lon="8.7051">
        <ele>1679</ele>
        <time>2021-08-06T11:59:10.509Z</time>
      </trkpt>
      <trkpt lat="46.93942" lon="8.70509">
        <ele>1679</ele>
        <time>2021-08-06T11:59:11.508Z</time>
      </trkpt>
      <trkpt lat="46.93942" lon="8.70508">
        <ele>1679</ele>
        <time>2021-08-06T11:59:12.508Z</time>
      </trkpt>
      <trkpt lat="46.93942" lon="8.70506">
        <ele>1679</ele>
        <time>2021-08-06T11:59:13.508Z</time>
      </trkpt>
      <trkpt lat="46.93942" lon="8.70505">
        <ele>1679</ele>
        <time>2021-08-06T11:59:14.508Z</time>
      </trkpt>
      <trkpt lat="46.93943" lon="8.70503">
        <ele>1679</ele>
        <time>2021-08-06T11:59:15.508Z</time>
      </trkpt>
      <trkpt lat="46.93943" lon="8.70502">
        <ele>1679</ele>
        <time>2021-08-06T11:59:16.508Z</time>
      </trkpt>
      <trkpt lat="46.93943" lon="8.705">
        <ele>1678</ele>
        <time>2021-08-06T11:59:17.509Z</time>
      </trkpt>
      <trkpt lat="46.93943" lon="8.70499">
        <ele>1678</ele>
        <time>2021-08-06T11:59:18.508Z</time>
      </trkpt>
      <trkpt lat="46.93943" lon="8.70497">
        <ele>1677</ele>
        <time>2021-08-06T11:59:19.509Z</time>
      </trkpt>
      <trkpt lat="46.93944" lon="8.70496">
        <ele>1677</ele>
        <time>2021-08-06T11:59:20.508Z</time>
      </trkpt>
      <trkpt lat="46.93943" lon="8.70495">
        <ele>1676</ele>
        <time>2021-08-06T11:59:21.508Z</time>
      </trkpt>
      <trkpt lat="46.93943" lon="8.70494">
        <ele>1676</ele>
        <time>2021-08-06T11:59:22.509Z</time>
      </trkpt>
      <trkpt lat="46.93943" lon="8.70493">
        <ele>1675</ele>
        <time>2021-08-06T11:59:23.508Z</time>
      </trkpt>
      <trkpt lat="46.93943" lon="8.70491">
        <ele>1675</ele>
        <time>2021-08-06T11:59:24.508Z</time>
      </trkpt>
      <trkpt lat="46.93943" lon="8.7049">
        <ele>1675</ele>
        <time>2021-08-06T11:59:25.508Z</time>
      </trkpt>
      <trkpt lat="46.93942" lon="8.70488">
        <ele>1674</ele>
        <time>2021-08-06T11:59:26.509Z</time>
      </trkpt>
      <trkpt lat="46.93942" lon="8.70488">
        <ele>1674</ele>
        <time>2021-08-06T11:59:27.509Z</time>
      </trkpt>
      <trkpt lat="46.93941" lon="8.70487">
        <ele>1674</ele>
        <time>2021-08-06T11:59:28.508Z</time>
      </trkpt>
      <trkpt lat="46.9394" lon="8.70486">
        <ele>1673</ele>
        <time>2021-08-06T11:59:29.509Z</time>
      </trkpt>
      <trkpt lat="46.93939" lon="8.70486">
        <ele>1673</ele>
        <time>2021-08-06T11:59:30.508Z</time>
      </trkpt>
      <trkpt lat="46.93938" lon="8.70485">
        <ele>1673</ele>
        <time>2021-08-06T11:59:31.508Z</time>
      </trkpt>
      <trkpt lat="46.93937" lon="8.70484">
        <ele>1673</ele>
        <time>2021-08-06T11:59:32.509Z</time>
      </trkpt>
      <trkpt lat="46.93936" lon="8.70483">
        <ele>1672</ele>
        <time>2021-08-06T11:59:33.508Z</time>
      </trkpt>
      <trkpt lat="46.93935" lon="8.70483">
        <ele>1672</ele>
        <time>2021-08-06T11:59:34.508Z</time>
      </trkpt>
      <trkpt lat="46.93934" lon="8.70482">
        <ele>1672</ele>
        <time>2021-08-06T11:59:35.508Z</time>
      </trkpt>
      <trkpt lat="46.93933" lon="8.70481">
        <ele>1671</ele>
        <time>2021-08-06T11:59:36.508Z</time>
      </trkpt>
      <trkpt lat="46.93932" lon="8.7048">
        <ele>1671</ele>
        <time>2021-08-06T11:59:37.508Z</time>
      </trkpt>
      <trkpt lat="46.93931" lon="8.70479">
        <ele>1671</ele>
        <time>2021-08-06T11:59:38.509Z</time>
      </trkpt>
      <trkpt lat="46.9393" lon="8.70478">
        <ele>1671</ele>
        <time>2021-08-06T11:59:39.508Z</time>
      </trkpt>
      <trkpt lat="46.93929" lon="8.70478">
        <ele>1671</ele>
        <time>2021-08-06T11:59:40.509Z</time>
      </trkpt>
      <trkpt lat="46.93927" lon="8.70477">
        <ele>1670</ele>
        <time>2021-08-06T11:59:41.509Z</time>
      </trkpt>
      <trkpt lat="46.93926" lon="8.70476">
        <ele>1670</ele>
        <time>2021-08-06T11:59:42.509Z</time>
      </trkpt>
      <trkpt lat="46.93926" lon="8.70475">
        <ele>1670</ele>
        <time>2021-08-06T11:59:43.508Z</time>
      </trkpt>
      <trkpt lat="46.93925" lon="8.70474">
        <ele>1670</ele>
        <time>2021-08-06T11:59:44.508Z</time>
      </trkpt>
      <trkpt lat="46.93924" lon="8.70473">
        <ele>1669</ele>
        <time>2021-08-06T11:59:45.508Z</time>
      </trkpt>
      <trkpt lat="46.93923" lon="8.70472">
        <ele>1669</ele>
        <time>2021-08-06T11:59:46.508Z</time>
      </trkpt>
      <trkpt lat="46.93922" lon="8.7047">
        <ele>1669</ele>
        <time>2021-08-06T11:59:47.509Z</time>
      </trkpt>
      <trkpt lat="46.93922" lon="8.70469">
        <ele>1669</ele>
        <time>2021-08-06T11:59:48.509Z</time>
      </trkpt>
      <trkpt lat="46.93922" lon="8.70468">
        <ele>1670</ele>
        <time>2021-08-06T11:59:49.508Z</time>
      </trkpt>
      <trkpt lat="46.93921" lon="8.70467">
        <ele>1670</ele>
        <time>2021-08-06T11:59:50.508Z</time>
      </trkpt>
      <trkpt lat="46.93921" lon="8.70466">
        <ele>1671</ele>
        <time>2021-08-06T11:59:51.508Z</time>
      </trkpt>
      <trkpt lat="46.9392" lon="8.70464">
        <ele>1671</ele>
        <time>2021-08-06T11:59:52.508Z</time>
      </trkpt>
      <trkpt lat="46.9392" lon="8.70463">
        <ele>1671</ele>
        <time>2021-08-06T11:59:53.508Z</time>
      </trkpt>
      <trkpt lat="46.93919" lon="8.70462">
        <ele>1672</ele>
        <time>2021-08-06T11:59:54.508Z</time>
      </trkpt>
      <trkpt lat="46.93919" lon="8.70461">
        <ele>1672</ele>
        <time>2021-08-06T11:59:55.508Z</time>
      </trkpt>
      <trkpt lat="46.93918" lon="8.7046">
        <ele>1672</ele>
        <time>2021-08-06T11:59:56.509Z</time>
      </trkpt>
      <trkpt lat="46.93918" lon="8.70459">
        <ele>1672</ele>
        <time>2021-08-06T11:59:57.508Z</time>
      </trkpt>
      <trkpt lat="46.93917" lon="8.70458">
        <ele>1672</ele>
        <time>2021-08-06T11:59:58.508Z</time>
      </trkpt>
      <trkpt lat="46.93916" lon="8.70457">
        <ele>1673</ele>
        <time>2021-08-06T11:59:59.508Z</time>
      </trkpt>
      <trkpt lat="46.93915" lon="8.70456">
        <ele>1672</ele>
        <time>2021-08-06T12:00:00.508Z</time>
      </trkpt>
      <trkpt lat="46.93915" lon="8.70455">
        <ele>1672</ele>
        <time>2021-08-06T12:00:01.508Z</time>
      </trkpt>
      <trkpt lat="46.93914" lon="8.70454">
        <ele>1672</ele>
        <time>2021-08-06T12:00:02.508Z</time>
      </trkpt>
      <trkpt lat="46.93914" lon="8.70453">
        <ele>1672</ele>
        <time>2021-08-06T12:00:03.508Z</time>
      </trkpt>
      <trkpt lat="46.93913" lon="8.70452">
        <ele>1672</ele>
        <time>2021-08-06T12:00:04.508Z</time>
      </trkpt>
      <trkpt lat="46.93913" lon="8.7045">
        <ele>1672</ele>
        <time>2021-08-06T12:00:05.508Z</time>
      </trkpt>
      <trkpt lat="46.93912" lon="8.70448">
        <ele>1672</ele>
        <time>2021-08-06T12:00:06.508Z</time>
      </trkpt>
      <trkpt lat="46.93912" lon="8.70447">
        <ele>1673</ele>
        <time>2021-08-06T12:00:07.509Z</time>
      </trkpt>
      <trkpt lat="46.93912" lon="8.70445">
        <ele>1672</ele>
        <time>2021-08-06T12:00:08.508Z</time>
      </trkpt>
      <trkpt lat="46.93912" lon="8.70444">
        <ele>1672</ele>
        <time>2021-08-06T12:00:09.508Z</time>
      </trkpt>
      <trkpt lat="46.93912" lon="8.70443">
        <ele>1673</ele>
        <time>2021-08-06T12:00:10.508Z</time>
      </trkpt>
      <trkpt lat="46.93911" lon="8.70441">
        <ele>1673</ele>
        <time>2021-08-06T12:00:11.509Z</time>
      </trkpt>
      <trkpt lat="46.93911" lon="8.7044">
        <ele>1673</ele>
        <time>2021-08-06T12:00:12.508Z</time>
      </trkpt>
      <trkpt lat="46.93911" lon="8.70439">
        <ele>1674</ele>
        <time>2021-08-06T12:00:13.509Z</time>
      </trkpt>
      <trkpt lat="46.93911" lon="8.70437">
        <ele>1674</ele>
        <time>2021-08-06T12:00:14.508Z</time>
      </trkpt>
      <trkpt lat="46.93911" lon="8.70435">
        <ele>1674</ele>
        <time>2021-08-06T12:00:15.508Z</time>
      </trkpt>
      <trkpt lat="46.93911" lon="8.70434">
        <ele>1674</ele>
        <time>2021-08-06T12:00:16.508Z</time>
      </trkpt>
      <trkpt lat="46.93911" lon="8.70433">
        <ele>1674</ele>
        <time>2021-08-06T12:00:17.509Z</time>
      </trkpt>
      <trkpt lat="46.93912" lon="8.70432">
        <ele>1674</ele>
        <time>2021-08-06T12:00:18.509Z</time>
      </trkpt>
      <trkpt lat="46.93912" lon="8.70431">
        <ele>1674</ele>
        <time>2021-08-06T12:00:19.508Z</time>
      </trkpt>
      <trkpt lat="46.93913" lon="8.70431">
        <ele>1674</ele>
        <time>2021-08-06T12:00:20.508Z</time>
      </trkpt>
      <trkpt lat="46.93914" lon="8.7043">
        <ele>1674</ele>
        <time>2021-08-06T12:00:21.508Z</time>
      </trkpt>
      <trkpt lat="46.93914" lon="8.70429">
        <ele>1674</ele>
        <time>2021-08-06T12:00:22.508Z</time>
      </trkpt>
      <trkpt lat="46.93915" lon="8.70428">
        <ele>1674</ele>
        <time>2021-08-06T12:00:23.508Z</time>
      </trkpt>
      <trkpt lat="46.93916" lon="8.70427">
        <ele>1675</ele>
        <time>2021-08-06T12:00:24.508Z</time>
      </trkpt>
      <trkpt lat="46.93916" lon="8.70426">
        <ele>1675</ele>
        <time>2021-08-06T12:00:25.508Z</time>
      </trkpt>
      <trkpt lat="46.93917" lon="8.70426">
        <ele>1676</ele>
        <time>2021-08-06T12:00:26.509Z</time>
      </trkpt>
      <trkpt lat="46.93918" lon="8.70425">
        <ele>1676</ele>
        <time>2021-08-06T12:00:27.509Z</time>
      </trkpt>
      <trkpt lat="46.93919" lon="8.70424">
        <ele>1677</ele>
        <time>2021-08-06T12:00:28.509Z</time>
      </trkpt>
      <trkpt lat="46.9392" lon="8.70423">
        <ele>1678</ele>
        <time>2021-08-06T12:00:29.509Z</time>
      </trkpt>
      <trkpt lat="46.93921" lon="8.70422">
        <ele>1679</ele>
        <time>2021-08-06T12:00:30.508Z</time>
      </trkpt>
      <trkpt lat="46.93922" lon="8.70422">
        <ele>1680</ele>
        <time>2021-08-06T12:00:31.508Z</time>
      </trkpt>
      <trkpt lat="46.93922" lon="8.70421">
        <ele>1681</ele>
        <time>2021-08-06T12:00:32.508Z</time>
      </trkpt>
      <trkpt lat="46.93924" lon="8.7042">
        <ele>1682</ele>
        <time>2021-08-06T12:00:33.508Z</time>
      </trkpt>
      <trkpt lat="46.93924" lon="8.70419">
        <ele>1684</ele>
        <time>2021-08-06T12:00:34.509Z</time>
      </trkpt>
      <trkpt lat="46.93925" lon="8.70419">
        <ele>1685</ele>
        <time>2021-08-06T12:00:35.508Z</time>
      </trkpt>
      <trkpt lat="46.93926" lon="8.70418">
        <ele>1686</ele>
        <time>2021-08-06T12:00:36.508Z</time>
      </trkpt>
      <trkpt lat="46.93928" lon="8.70418">
        <ele>1687</ele>
        <time>2021-08-06T12:00:37.508Z</time>
      </trkpt>
      <trkpt lat="46.93929" lon="8.70417">
        <ele>1688</ele>
        <time>2021-08-06T12:00:38.508Z</time>
      </trkpt>
      <trkpt lat="46.9393" lon="8.70417">
        <ele>1689</ele>
        <time>2021-08-06T12:00:39.508Z</time>
      </trkpt>
      <trkpt lat="46.93931" lon="8.70416">
        <ele>1690</ele>
        <time>2021-08-06T12:00:40.508Z</time>
      </trkpt>
      <trkpt lat="46.93932" lon="8.70415">
        <ele>1691</ele>
        <time>2021-08-06T12:00:41.509Z</time>
      </trkpt>
      <trkpt lat="46.93933" lon="8.70414">
        <ele>1692</ele>
        <time>2021-08-06T12:00:42.508Z</time>
      </trkpt>
      <trkpt lat="46.93933" lon="8.70414">
        <ele>1692</ele>
        <time>2021-08-06T12:00:43.509Z</time>
      </trkpt>
      <trkpt lat="46.93934" lon="8.70413">
        <ele>1693</ele>
        <time>2021-08-06T12:00:44.508Z</time>
      </trkpt>
      <trkpt lat="46.93936" lon="8.70413">
        <ele>1693</ele>
        <time>2021-08-06T12:00:45.508Z</time>
      </trkpt>
      <trkpt lat="46.93937" lon="8.70413">
        <ele>1694</ele>
        <time>2021-08-06T12:00:46.508Z</time>
      </trkpt>
      <trkpt lat="46.93939" lon="8.70413">
        <ele>1694</ele>
        <time>2021-08-06T12:00:47.508Z</time>
      </trkpt>
      <trkpt lat="46.9394" lon="8.70412">
        <ele>1695</ele>
        <time>2021-08-06T12:00:48.508Z</time>
      </trkpt>
      <trkpt lat="46.93941" lon="8.70412">
        <ele>1696</ele>
        <time>2021-08-06T12:00:49.509Z</time>
      </trkpt>
      <trkpt lat="46.93942" lon="8.70411">
        <ele>1696</ele>
        <time>2021-08-06T12:00:50.508Z</time>
      </trkpt>
      <trkpt lat="46.93942" lon="8.7041">
        <ele>1696</ele>
        <time>2021-08-06T12:00:51.508Z</time>
      </trkpt>
      <trkpt lat="46.93942" lon="8.70409">
        <ele>1696</ele>
        <time>2021-08-06T12:00:52.508Z</time>
      </trkpt>
      <trkpt lat="46.93941" lon="8.70408">
        <ele>1696</ele>
        <time>2021-08-06T12:00:53.508Z</time>
      </trkpt>
      <trkpt lat="46.9394" lon="8.70407">
        <ele>1695</ele>
        <time>2021-08-06T12:00:54.508Z</time>
      </trkpt>
      <trkpt lat="46.9394" lon="8.70406">
        <ele>1694</ele>
        <time>2021-08-06T12:00:55.509Z</time>
      </trkpt>
      <trkpt lat="46.9394" lon="8.70404">
        <ele>1693</ele>
        <time>2021-08-06T12:00:56.508Z</time>
      </trkpt>
      <trkpt lat="46.9394" lon="8.70403">
        <ele>1692</ele>
        <time>2021-08-06T12:00:57.508Z</time>
      </trkpt>
      <trkpt lat="46.9394" lon="8.70403">
        <ele>1691</ele>
        <time>2021-08-06T12:00:58.508Z</time>
      </trkpt>
      <trkpt lat="46.93941" lon="8.70402">
        <ele>1690</ele>
        <time>2021-08-06T12:00:59.508Z</time>
      </trkpt>
      <trkpt lat="46.93941" lon="8.70401">
        <ele>1689</ele>
        <time>2021-08-06T12:01:00.508Z</time>
      </trkpt>
      <trkpt lat="46.93941" lon="8.704">
        <ele>1689</ele>
        <time>2021-08-06T12:01:01.508Z</time>
      </trkpt>
      <trkpt lat="46.93941" lon="8.70399">
        <ele>1688</ele>
        <time>2021-08-06T12:01:02.508Z</time>
      </trkpt>
      <trkpt lat="46.93941" lon="8.70398">
        <ele>1687</ele>
        <time>2021-08-06T12:01:03.509Z</time>
      </trkpt>
      <trkpt lat="46.93941" lon="8.70397">
        <ele>1686</ele>
        <time>2021-08-06T12:01:04.508Z</time>
      </trkpt>
      <trkpt lat="46.93941" lon="8.70396">
        <ele>1686</ele>
        <time>2021-08-06T12:01:05.508Z</time>
      </trkpt>
      <trkpt lat="46.9394" lon="8.70396">
        <ele>1685</ele>
        <time>2021-08-06T12:01:06.508Z</time>
      </trkpt>
      <trkpt lat="46.93939" lon="8.70395">
        <ele>1684</ele>
        <time>2021-08-06T12:01:07.508Z</time>
      </trkpt>
      <trkpt lat="46.93939" lon="8.70394">
        <ele>1684</ele>
        <time>2021-08-06T12:01:08.508Z</time>
      </trkpt>
      <trkpt lat="46.9394" lon="8.70393">
        <ele>1684</ele>
        <time>2021-08-06T12:01:09.508Z</time>
      </trkpt>
      <trkpt lat="46.9394" lon="8.70392">
        <ele>1684</ele>
        <time>2021-08-06T12:01:10.509Z</time>
      </trkpt>
      <trkpt lat="46.9394" lon="8.70391">
        <ele>1683</ele>
        <time>2021-08-06T12:01:11.508Z</time>
      </trkpt>
      <trkpt lat="46.93939" lon="8.70389">
        <ele>1683</ele>
        <time>2021-08-06T12:01:12.508Z</time>
      </trkpt>
      <trkpt lat="46.9394" lon="8.70388">
        <ele>1683</ele>
        <time>2021-08-06T12:01:13.509Z</time>
      </trkpt>
      <trkpt lat="46.9394" lon="8.70388">
        <ele>1683</ele>
        <time>2021-08-06T12:01:14.508Z</time>
      </trkpt>
      <trkpt lat="46.93941" lon="8.70387">
        <ele>1683</ele>
        <time>2021-08-06T12:01:15.508Z</time>
      </trkpt>
      <trkpt lat="46.93941" lon="8.70385">
        <ele>1683</ele>
        <time>2021-08-06T12:01:16.508Z</time>
      </trkpt>
      <trkpt lat="46.9394" lon="8.70384">
        <ele>1683</ele>
        <time>2021-08-06T12:01:17.508Z</time>
      </trkpt>
      <trkpt lat="46.9394" lon="8.70384">
        <ele>1683</ele>
        <time>2021-08-06T12:01:18.508Z</time>
      </trkpt>
      <trkpt lat="46.9394" lon="8.70382">
        <ele>1683</ele>
        <time>2021-08-06T12:01:19.508Z</time>
      </trkpt>
      <trkpt lat="46.93939" lon="8.70381">
        <ele>1683</ele>
        <time>2021-08-06T12:01:20.508Z</time>
      </trkpt>
      <trkpt lat="46.93939" lon="8.7038">
        <ele>1682</ele>
        <time>2021-08-06T12:01:21.508Z</time>
      </trkpt>
      <trkpt lat="46.93938" lon="8.7038">
        <ele>1682</ele>
        <time>2021-08-06T12:01:22.508Z</time>
      </trkpt>
      <trkpt lat="46.93938" lon="8.7038">
        <ele>1682</ele>
        <time>2021-08-06T12:01:23.509Z</time>
      </trkpt>
      <trkpt lat="46.93935" lon="8.70379">
        <ele>1685</ele>
        <time>2021-08-06T12:01:24.510Z</time>
      </trkpt>
      <trkpt lat="46.93935" lon="8.70379">
        <ele>1685</ele>
        <time>2021-08-06T12:01:25.509Z</time>
      </trkpt>
      <trkpt lat="46.93935" lon="8.70378">
        <ele>1684</ele>
        <time>2021-08-06T12:01:26.509Z</time>
      </trkpt>
      <trkpt lat="46.93935" lon="8.70377">
        <ele>1684</ele>
        <time>2021-08-06T12:01:27.509Z</time>
      </trkpt>
      <trkpt lat="46.93934" lon="8.70376">
        <ele>1684</ele>
        <time>2021-08-06T12:01:28.509Z</time>
      </trkpt>
      <trkpt lat="46.93933" lon="8.70375">
        <ele>1684</ele>
        <time>2021-08-06T12:01:29.509Z</time>
      </trkpt>
      <trkpt lat="46.93932" lon="8.70374">
        <ele>1684</ele>
        <time>2021-08-06T12:01:30.509Z</time>
      </trkpt>
      <trkpt lat="46.93931" lon="8.70373">
        <ele>1683</ele>
        <time>2021-08-06T12:01:31.509Z</time>
      </trkpt>
      <trkpt lat="46.9393" lon="8.70373">
        <ele>1683</ele>
        <time>2021-08-06T12:01:32.509Z</time>
      </trkpt>
      <trkpt lat="46.93929" lon="8.70372">
        <ele>1682</ele>
        <time>2021-08-06T12:01:33.509Z</time>
      </trkpt>
      <trkpt lat="46.93928" lon="8.70372">
        <ele>1682</ele>
        <time>2021-08-06T12:01:34.509Z</time>
      </trkpt>
      <trkpt lat="46.93928" lon="8.70371">
        <ele>1682</ele>
        <time>2021-08-06T12:01:35.510Z</time>
      </trkpt>
      <trkpt lat="46.93927" lon="8.7037">
        <ele>1682</ele>
        <time>2021-08-06T12:01:36.509Z</time>
      </trkpt>
      <trkpt lat="46.93926" lon="8.70369">
        <ele>1682</ele>
        <time>2021-08-06T12:01:37.509Z</time>
      </trkpt>
      <trkpt lat="46.93925" lon="8.70368">
        <ele>1683</ele>
        <time>2021-08-06T12:01:38.509Z</time>
      </trkpt>
      <trkpt lat="46.93924" lon="8.70367">
        <ele>1682</ele>
        <time>2021-08-06T12:01:39.509Z</time>
      </trkpt>
      <trkpt lat="46.93924" lon="8.70367">
        <ele>1682</ele>
        <time>2021-08-06T12:01:40.509Z</time>
      </trkpt>
      <trkpt lat="46.93923" lon="8.70366">
        <ele>1682</ele>
        <time>2021-08-06T12:01:41.509Z</time>
      </trkpt>
      <trkpt lat="46.93922" lon="8.70365">
        <ele>1681</ele>
        <time>2021-08-06T12:01:42.509Z</time>
      </trkpt>
      <trkpt lat="46.93921" lon="8.70364">
        <ele>1681</ele>
        <time>2021-08-06T12:01:43.509Z</time>
      </trkpt>
      <trkpt lat="46.93921" lon="8.70363">
        <ele>1680</ele>
        <time>2021-08-06T12:01:44.509Z</time>
      </trkpt>
      <trkpt lat="46.9392" lon="8.70362">
        <ele>1680</ele>
        <time>2021-08-06T12:01:45.509Z</time>
      </trkpt>
      <trkpt lat="46.93919" lon="8.70361">
        <ele>1680</ele>
        <time>2021-08-06T12:01:46.509Z</time>
      </trkpt>
      <trkpt lat="46.93919" lon="8.70359">
        <ele>1681</ele>
        <time>2021-08-06T12:01:47.509Z</time>
      </trkpt>
      <trkpt lat="46.93918" lon="8.70358">
        <ele>1681</ele>
        <time>2021-08-06T12:01:48.510Z</time>
      </trkpt>
      <trkpt lat="46.93917" lon="8.70357">
        <ele>1681</ele>
        <time>2021-08-06T12:01:49.510Z</time>
      </trkpt>
      <trkpt lat="46.93916" lon="8.70356">
        <ele>1682</ele>
        <time>2021-08-06T12:01:50.509Z</time>
      </trkpt>
      <trkpt lat="46.93915" lon="8.70355">
        <ele>1682</ele>
        <time>2021-08-06T12:01:51.509Z</time>
      </trkpt>
      <trkpt lat="46.93915" lon="8.70354">
        <ele>1682</ele>
        <time>2021-08-06T12:01:52.509Z</time>
      </trkpt>
      <trkpt lat="46.93914" lon="8.70354">
        <ele>1682</ele>
        <time>2021-08-06T12:01:53.509Z</time>
      </trkpt>
      <trkpt lat="46.93914" lon="8.70353">
        <ele>1682</ele>
        <time>2021-08-06T12:01:54.509Z</time>
      </trkpt>
      <trkpt lat="46.93913" lon="8.70353">
        <ele>1682</ele>
        <time>2021-08-06T12:01:55.509Z</time>
      </trkpt>
      <trkpt lat="46.93912" lon="8.70352">
        <ele>1682</ele>
        <time>2021-08-06T12:01:56.509Z</time>
      </trkpt>
      <trkpt lat="46.93912" lon="8.70351">
        <ele>1682</ele>
        <time>2021-08-06T12:01:57.509Z</time>
      </trkpt>
      <trkpt lat="46.93911" lon="8.7035">
        <ele>1682</ele>
        <time>2021-08-06T12:01:58.509Z</time>
      </trkpt>
      <trkpt lat="46.9391" lon="8.7035">
        <ele>1683</ele>
        <time>2021-08-06T12:01:59.509Z</time>
      </trkpt>
      <trkpt lat="46.93909" lon="8.70349">
        <ele>1683</ele>
        <time>2021-08-06T12:02:00.509Z</time>
      </trkpt>
      <trkpt lat="46.93909" lon="8.70349">
        <ele>1683</ele>
        <time>2021-08-06T12:02:01.509Z</time>
      </trkpt>
      <trkpt lat="46.93908" lon="8.70348">
        <ele>1683</ele>
        <time>2021-08-06T12:02:02.509Z</time>
      </trkpt>
      <trkpt lat="46.93907" lon="8.70348">
        <ele>1684</ele>
        <time>2021-08-06T12:02:03.509Z</time>
      </trkpt>
      <trkpt lat="46.93906" lon="8.70348">
        <ele>1684</ele>
        <time>2021-08-06T12:02:04.509Z</time>
      </trkpt>
      <trkpt lat="46.93905" lon="8.70347">
        <ele>1684</ele>
        <time>2021-08-06T12:02:05.509Z</time>
      </trkpt>
      <trkpt lat="46.93904" lon="8.70347">
        <ele>1683</ele>
        <time>2021-08-06T12:02:06.509Z</time>
      </trkpt>
      <trkpt lat="46.93903" lon="8.70346">
        <ele>1683</ele>
        <time>2021-08-06T12:02:07.509Z</time>
      </trkpt>
      <trkpt lat="46.93902" lon="8.70346">
        <ele>1682</ele>
        <time>2021-08-06T12:02:08.509Z</time>
      </trkpt>
      <trkpt lat="46.93901" lon="8.70345">
        <ele>1682</ele>
        <time>2021-08-06T12:02:09.509Z</time>
      </trkpt>
      <trkpt lat="46.939" lon="8.70344">
        <ele>1682</ele>
        <time>2021-08-06T12:02:10.509Z</time>
      </trkpt>
      <trkpt lat="46.93899" lon="8.70343">
        <ele>1682</ele>
        <time>2021-08-06T12:02:11.509Z</time>
      </trkpt>
      <trkpt lat="46.93898" lon="8.70343">
        <ele>1682</ele>
        <time>2021-08-06T12:02:14.612Z</time>
      </trkpt>
      <trkpt lat="46.93897" lon="8.70342">
        <ele>1682</ele>
        <time>2021-08-06T12:02:15.612Z</time>
      </trkpt>
      <trkpt lat="46.93896" lon="8.70342">
        <ele>1682</ele>
        <time>2021-08-06T12:02:16.612Z</time>
      </trkpt>
      <trkpt lat="46.93895" lon="8.70341">
        <ele>1683</ele>
        <time>2021-08-06T12:02:17.612Z</time>
      </trkpt>
      <trkpt lat="46.93894" lon="8.70341">
        <ele>1683</ele>
        <time>2021-08-06T12:02:18.612Z</time>
      </trkpt>
      <trkpt lat="46.93893" lon="8.7034">
        <ele>1683</ele>
        <time>2021-08-06T12:02:19.612Z</time>
      </trkpt>
      <trkpt lat="46.93892" lon="8.7034">
        <ele>1683</ele>
        <time>2021-08-06T12:02:20.612Z</time>
      </trkpt>
      <trkpt lat="46.93892" lon="8.7034">
        <ele>1683</ele>
        <time>2021-08-06T12:02:21.613Z</time>
      </trkpt>
      <trkpt lat="46.93891" lon="8.70339">
        <ele>1683</ele>
        <time>2021-08-06T12:02:22.612Z</time>
      </trkpt>
      <trkpt lat="46.9389" lon="8.70339">
        <ele>1684</ele>
        <time>2021-08-06T12:02:23.612Z</time>
      </trkpt>
      <trkpt lat="46.93889" lon="8.70339">
        <ele>1684</ele>
        <time>2021-08-06T12:02:24.612Z</time>
      </trkpt>
      <trkpt lat="46.93889" lon="8.70339">
        <ele>1684</ele>
        <time>2021-08-06T12:02:25.612Z</time>
      </trkpt>
      <trkpt lat="46.93888" lon="8.70338">
        <ele>1684</ele>
        <time>2021-08-06T12:02:26.613Z</time>
      </trkpt>
      <trkpt lat="46.93888" lon="8.70338">
        <ele>1685</ele>
        <time>2021-08-06T12:02:27.612Z</time>
      </trkpt>
      <trkpt lat="46.93887" lon="8.70338">
        <ele>1685</ele>
        <time>2021-08-06T12:02:28.613Z</time>
      </trkpt>
      <trkpt lat="46.93887" lon="8.70337">
        <ele>1685</ele>
        <time>2021-08-06T12:02:29.612Z</time>
      </trkpt>
      <trkpt lat="46.93886" lon="8.70336">
        <ele>1686</ele>
        <time>2021-08-06T12:02:30.612Z</time>
      </trkpt>
      <trkpt lat="46.93886" lon="8.70335">
        <ele>1687</ele>
        <time>2021-08-06T12:02:31.612Z</time>
      </trkpt>
      <trkpt lat="46.93886" lon="8.70335">
        <ele>1687</ele>
        <time>2021-08-06T12:02:32.612Z</time>
      </trkpt>
      <trkpt lat="46.93886" lon="8.70333">
        <ele>1688</ele>
        <time>2021-08-06T12:02:33.612Z</time>
      </trkpt>
      <trkpt lat="46.93886" lon="8.70332">
        <ele>1688</ele>
        <time>2021-08-06T12:02:34.612Z</time>
      </trkpt>
      <trkpt lat="46.93886" lon="8.70331">
        <ele>1689</ele>
        <time>2021-08-06T12:02:35.612Z</time>
      </trkpt>
      <trkpt lat="46.93886" lon="8.7033">
        <ele>1689</ele>
        <time>2021-08-06T12:02:36.612Z</time>
      </trkpt>
      <trkpt lat="46.93886" lon="8.70328">
        <ele>1690</ele>
        <time>2021-08-06T12:02:37.612Z</time>
      </trkpt>
      <trkpt lat="46.93887" lon="8.70327">
        <ele>1690</ele>
        <time>2021-08-06T12:02:38.612Z</time>
      </trkpt>
      <trkpt lat="46.93887" lon="8.70326">
        <ele>1690</ele>
        <time>2021-08-06T12:02:39.613Z</time>
      </trkpt>
      <trkpt lat="46.93887" lon="8.70325">
        <ele>1690</ele>
        <time>2021-08-06T12:02:40.612Z</time>
      </trkpt>
      <trkpt lat="46.93887" lon="8.70324">
        <ele>1690</ele>
        <time>2021-08-06T12:02:41.612Z</time>
      </trkpt>
      <trkpt lat="46.93888" lon="8.70322">
        <ele>1690</ele>
        <time>2021-08-06T12:02:42.612Z</time>
      </trkpt>
      <trkpt lat="46.93888" lon="8.70321">
        <ele>1690</ele>
        <time>2021-08-06T12:02:43.612Z</time>
      </trkpt>
      <trkpt lat="46.93889" lon="8.70319">
        <ele>1690</ele>
        <time>2021-08-06T12:02:44.612Z</time>
      </trkpt>
      <trkpt lat="46.93889" lon="8.70318">
        <ele>1691</ele>
        <time>2021-08-06T12:02:45.612Z</time>
      </trkpt>
      <trkpt lat="46.9389" lon="8.70316">
        <ele>1691</ele>
        <time>2021-08-06T12:02:46.612Z</time>
      </trkpt>
      <trkpt lat="46.9389" lon="8.70315">
        <ele>1692</ele>
        <time>2021-08-06T12:02:47.612Z</time>
      </trkpt>
      <trkpt lat="46.93889" lon="8.70313">
        <ele>1692</ele>
        <time>2021-08-06T12:02:48.612Z</time>
      </trkpt>
      <trkpt lat="46.93889" lon="8.70312">
        <ele>1693</ele>
        <time>2021-08-06T12:02:49.612Z</time>
      </trkpt>
      <trkpt lat="46.93889" lon="8.70311">
        <ele>1693</ele>
        <time>2021-08-06T12:02:50.612Z</time>
      </trkpt>
      <trkpt lat="46.93889" lon="8.70309">
        <ele>1694</ele>
        <time>2021-08-06T12:02:51.612Z</time>
      </trkpt>
      <trkpt lat="46.93889" lon="8.70307">
        <ele>1694</ele>
        <time>2021-08-06T12:02:52.612Z</time>
      </trkpt>
      <trkpt lat="46.93889" lon="8.70306">
        <ele>1693</ele>
        <time>2021-08-06T12:02:53.612Z</time>
      </trkpt>
      <trkpt lat="46.93889" lon="8.70305">
        <ele>1693</ele>
        <time>2021-08-06T12:02:54.612Z</time>
      </trkpt>
      <trkpt lat="46.93889" lon="8.70304">
        <ele>1693</ele>
        <time>2021-08-06T12:02:55.612Z</time>
      </trkpt>
      <trkpt lat="46.93889" lon="8.70302">
        <ele>1693</ele>
        <time>2021-08-06T12:02:56.612Z</time>
      </trkpt>
      <trkpt lat="46.93889" lon="8.70301">
        <ele>1693</ele>
        <time>2021-08-06T12:02:57.613Z</time>
      </trkpt>
      <trkpt lat="46.93889" lon="8.70301">
        <ele>1693</ele>
        <time>2021-08-06T12:02:58.612Z</time>
      </trkpt>
      <trkpt lat="46.9389" lon="8.703">
        <ele>1693</ele>
        <time>2021-08-06T12:02:59.612Z</time>
      </trkpt>
      <trkpt lat="46.93891" lon="8.70299">
        <ele>1693</ele>
        <time>2021-08-06T12:03:00.613Z</time>
      </trkpt>
      <trkpt lat="46.93892" lon="8.70298">
        <ele>1693</ele>
        <time>2021-08-06T12:03:01.613Z</time>
      </trkpt>
      <trkpt lat="46.93892" lon="8.70297">
        <ele>1693</ele>
        <time>2021-08-06T12:03:02.612Z</time>
      </trkpt>
      <trkpt lat="46.93892" lon="8.70296">
        <ele>1693</ele>
        <time>2021-08-06T12:03:03.612Z</time>
      </trkpt>
      <trkpt lat="46.93893" lon="8.70295">
        <ele>1694</ele>
        <time>2021-08-06T12:03:04.612Z</time>
      </trkpt>
      <trkpt lat="46.93892" lon="8.70293">
        <ele>1694</ele>
        <time>2021-08-06T12:03:07.750Z</time>
      </trkpt>
      <trkpt lat="46.93892" lon="8.70291">
        <ele>1694</ele>
        <time>2021-08-06T12:03:08.751Z</time>
      </trkpt>
      <trkpt lat="46.93891" lon="8.7029">
        <ele>1694</ele>
        <time>2021-08-06T12:03:09.750Z</time>
      </trkpt>
      <trkpt lat="46.93891" lon="8.70289">
        <ele>1693</ele>
        <time>2021-08-06T12:03:10.750Z</time>
      </trkpt>
      <trkpt lat="46.9389" lon="8.70288">
        <ele>1693</ele>
        <time>2021-08-06T12:03:11.751Z</time>
      </trkpt>
      <trkpt lat="46.9389" lon="8.70288">
        <ele>1692</ele>
        <time>2021-08-06T12:03:12.750Z</time>
      </trkpt>
      <trkpt lat="46.9389" lon="8.70287">
        <ele>1691</ele>
        <time>2021-08-06T12:03:13.750Z</time>
      </trkpt>
      <trkpt lat="46.9389" lon="8.70286">
        <ele>1691</ele>
        <time>2021-08-06T12:03:14.750Z</time>
      </trkpt>
      <trkpt lat="46.9389" lon="8.70286">
        <ele>1690</ele>
        <time>2021-08-06T12:03:15.750Z</time>
      </trkpt>
      <trkpt lat="46.93889" lon="8.70287">
        <ele>1689</ele>
        <time>2021-08-06T12:03:16.751Z</time>
      </trkpt>
      <trkpt lat="46.93889" lon="8.70287">
        <ele>1689</ele>
        <time>2021-08-06T12:03:17.751Z</time>
      </trkpt>
      <trkpt lat="46.93889" lon="8.70288">
        <ele>1688</ele>
        <time>2021-08-06T12:03:18.750Z</time>
      </trkpt>
      <trkpt lat="46.93888" lon="8.70287">
        <ele>1686</ele>
        <time>2021-08-06T12:03:19.750Z</time>
      </trkpt>
      <trkpt lat="46.93887" lon="8.70287">
        <ele>1686</ele>
        <time>2021-08-06T12:03:20.750Z</time>
      </trkpt>
      <trkpt lat="46.93888" lon="8.70287">
        <ele>1685</ele>
        <time>2021-08-06T12:03:21.750Z</time>
      </trkpt>
      <trkpt lat="46.93886" lon="8.70289">
        <ele>1683</ele>
        <time>2021-08-06T12:03:22.751Z</time>
      </trkpt>
      <trkpt lat="46.93885" lon="8.7029">
        <ele>1683</ele>
        <time>2021-08-06T12:03:23.750Z</time>
      </trkpt>
      <trkpt lat="46.93885" lon="8.7029">
        <ele>1682</ele>
        <time>2021-08-06T12:03:24.750Z</time>
      </trkpt>
      <trkpt lat="46.93886" lon="8.70287">
        <ele>1688</ele>
        <time>2021-08-06T12:03:25.751Z</time>
      </trkpt>
      <trkpt lat="46.93887" lon="8.70287">
        <ele>1688</ele>
        <time>2021-08-06T12:03:26.750Z</time>
      </trkpt>
      <trkpt lat="46.93888" lon="8.70286">
        <ele>1689</ele>
        <time>2021-08-06T12:03:27.750Z</time>
      </trkpt>
      <trkpt lat="46.93887" lon="8.70287">
        <ele>1689</ele>
        <time>2021-08-06T12:03:28.751Z</time>
      </trkpt>
      <trkpt lat="46.93887" lon="8.70287">
        <ele>1689</ele>
        <time>2021-08-06T12:03:29.751Z</time>
      </trkpt>
      <trkpt lat="46.93887" lon="8.70288">
        <ele>1689</ele>
        <time>2021-08-06T12:03:30.752Z</time>
      </trkpt>
      <trkpt lat="46.93886" lon="8.70287">
        <ele>1686</ele>
        <time>2021-08-06T12:03:31.751Z</time>
      </trkpt>
      <trkpt lat="46.93887" lon="8.70288">
        <ele>1687</ele>
        <time>2021-08-06T12:03:32.752Z</time>
      </trkpt>
      <trkpt lat="46.93887" lon="8.70287">
        <ele>1687</ele>
        <time>2021-08-06T12:03:33.751Z</time>
      </trkpt>
      <trkpt lat="46.93887" lon="8.70287">
        <ele>1687</ele>
        <time>2021-08-06T12:03:34.752Z</time>
      </trkpt>
      <trkpt lat="46.93887" lon="8.70287">
        <ele>1688</ele>
        <time>2021-08-06T12:03:35.752Z</time>
      </trkpt>
      <trkpt lat="46.93888" lon="8.70292">
        <ele>1684</ele>
        <time>2021-08-06T12:03:36.752Z</time>
      </trkpt>
      <trkpt lat="46.93888" lon="8.70294">
        <ele>1683</ele>
        <time>2021-08-06T12:03:37.753Z</time>
      </trkpt>
      <trkpt lat="46.93888" lon="8.70294">
        <ele>1682</ele>
        <time>2021-08-06T12:03:38.752Z</time>
      </trkpt>
      <trkpt lat="46.93886" lon="8.70294">
        <ele>1679</ele>
        <time>2021-08-06T12:03:39.752Z</time>
      </trkpt>
      <trkpt lat="46.93886" lon="8.70295">
        <ele>1678</ele>
        <time>2021-08-06T12:03:40.752Z</time>
      </trkpt>
      <trkpt lat="46.93887" lon="8.70293">
        <ele>1681</ele>
        <time>2021-08-06T12:03:41.754Z</time>
      </trkpt>
      <trkpt lat="46.93887" lon="8.70293">
        <ele>1682</ele>
        <time>2021-08-06T12:03:42.755Z</time>
      </trkpt>
      <trkpt lat="46.93887" lon="8.70293">
        <ele>1683</ele>
        <time>2021-08-06T12:03:43.754Z</time>
      </trkpt>
      <trkpt lat="46.9389" lon="8.70294">
        <ele>1691</ele>
        <time>2021-08-06T12:03:44.755Z</time>
      </trkpt>
      <trkpt lat="46.9389" lon="8.70294">
        <ele>1692</ele>
        <time>2021-08-06T12:03:45.755Z</time>
      </trkpt>
      <trkpt lat="46.93893" lon="8.70289">
        <ele>1695</ele>
        <time>2021-08-06T12:03:46.756Z</time>
      </trkpt>
      <trkpt lat="46.93891" lon="8.70288">
        <ele>1694</ele>
        <time>2021-08-06T12:03:47.755Z</time>
      </trkpt>
      <trkpt lat="46.9389" lon="8.70288">
        <ele>1693</ele>
        <time>2021-08-06T12:03:48.755Z</time>
      </trkpt>
      <trkpt lat="46.93889" lon="8.70287">
        <ele>1692</ele>
        <time>2021-08-06T12:03:49.756Z</time>
      </trkpt>
      <trkpt lat="46.93888" lon="8.70287">
        <ele>1691</ele>
        <time>2021-08-06T12:03:50.756Z</time>
      </trkpt>
      <trkpt lat="46.93887" lon="8.70286">
        <ele>1690</ele>
        <time>2021-08-06T12:03:51.756Z</time>
      </trkpt>
      <trkpt lat="46.93887" lon="8.70285">
        <ele>1690</ele>
        <time>2021-08-06T12:03:52.755Z</time>
      </trkpt>
      <trkpt lat="46.93886" lon="8.70284">
        <ele>1689</ele>
        <time>2021-08-06T12:03:53.755Z</time>
      </trkpt>
      <trkpt lat="46.93886" lon="8.70283">
        <ele>1688</ele>
        <time>2021-08-06T12:03:54.756Z</time>
      </trkpt>
      <trkpt lat="46.93885" lon="8.70282">
        <ele>1688</ele>
        <time>2021-08-06T12:03:55.756Z</time>
      </trkpt>
      <trkpt lat="46.93884" lon="8.70281">
        <ele>1687</ele>
        <time>2021-08-06T12:03:56.756Z</time>
      </trkpt>
      <trkpt lat="46.93883" lon="8.70281">
        <ele>1687</ele>
        <time>2021-08-06T12:03:57.756Z</time>
      </trkpt>
      <trkpt lat="46.93883" lon="8.7028">
        <ele>1687</ele>
        <time>2021-08-06T12:03:58.756Z</time>
      </trkpt>
      <trkpt lat="46.93882" lon="8.7028">
        <ele>1686</ele>
        <time>2021-08-06T12:03:59.755Z</time>
      </trkpt>
      <trkpt lat="46.93882" lon="8.70279">
        <ele>1686</ele>
        <time>2021-08-06T12:04:00.756Z</time>
      </trkpt>
      <trkpt lat="46.93881" lon="8.70277">
        <ele>1686</ele>
        <time>2021-08-06T12:04:01.756Z</time>
      </trkpt>
      <trkpt lat="46.93881" lon="8.70277">
        <ele>1686</ele>
        <time>2021-08-06T12:04:02.756Z</time>
      </trkpt>
      <trkpt lat="46.93881" lon="8.70276">
        <ele>1685</ele>
        <time>2021-08-06T12:04:03.756Z</time>
      </trkpt>
      <trkpt lat="46.9388" lon="8.70275">
        <ele>1686</ele>
        <time>2021-08-06T12:04:04.756Z</time>
      </trkpt>
      <trkpt lat="46.9388" lon="8.70274">
        <ele>1686</ele>
        <time>2021-08-06T12:04:05.756Z</time>
      </trkpt>
      <trkpt lat="46.9388" lon="8.70273">
        <ele>1686</ele>
        <time>2021-08-06T12:04:06.756Z</time>
      </trkpt>
      <trkpt lat="46.9388" lon="8.70273">
        <ele>1686</ele>
        <time>2021-08-06T12:04:07.756Z</time>
      </trkpt>
      <trkpt lat="46.9388" lon="8.70272">
        <ele>1686</ele>
        <time>2021-08-06T12:04:08.756Z</time>
      </trkpt>
      <trkpt lat="46.9388" lon="8.70271">
        <ele>1687</ele>
        <time>2021-08-06T12:04:09.755Z</time>
      </trkpt>
      <trkpt lat="46.93881" lon="8.70271">
        <ele>1687</ele>
        <time>2021-08-06T12:04:10.756Z</time>
      </trkpt>
      <trkpt lat="46.93881" lon="8.7027">
        <ele>1687</ele>
        <time>2021-08-06T12:04:11.756Z</time>
      </trkpt>
      <trkpt lat="46.93881" lon="8.7027">
        <ele>1687</ele>
        <time>2021-08-06T12:04:12.756Z</time>
      </trkpt>
      <trkpt lat="46.93881" lon="8.70269">
        <ele>1687</ele>
        <time>2021-08-06T12:04:13.756Z</time>
      </trkpt>
      <trkpt lat="46.93881" lon="8.70268">
        <ele>1687</ele>
        <time>2021-08-06T12:04:14.755Z</time>
      </trkpt>
      <trkpt lat="46.9388" lon="8.70267">
        <ele>1687</ele>
        <time>2021-08-06T12:04:15.756Z</time>
      </trkpt>
      <trkpt lat="46.9388" lon="8.70267">
        <ele>1688</ele>
        <time>2021-08-06T12:04:16.756Z</time>
      </trkpt>
      <trkpt lat="46.9388" lon="8.70266">
        <ele>1688</ele>
        <time>2021-08-06T12:04:17.756Z</time>
      </trkpt>
      <trkpt lat="46.9388" lon="8.70265">
        <ele>1689</ele>
        <time>2021-08-06T12:04:18.756Z</time>
      </trkpt>
      <trkpt lat="46.9388" lon="8.70264">
        <ele>1689</ele>
        <time>2021-08-06T12:04:19.755Z</time>
      </trkpt>
      <trkpt lat="46.93879" lon="8.70263">
        <ele>1690</ele>
        <time>2021-08-06T12:04:20.755Z</time>
      </trkpt>
      <trkpt lat="46.93879" lon="8.70261">
        <ele>1690</ele>
        <time>2021-08-06T12:04:21.755Z</time>
      </trkpt>
      <trkpt lat="46.93878" lon="8.70261">
        <ele>1690</ele>
        <time>2021-08-06T12:04:22.756Z</time>
      </trkpt>
      <trkpt lat="46.93877" lon="8.7026">
        <ele>1689</ele>
        <time>2021-08-06T12:04:23.756Z</time>
      </trkpt>
      <trkpt lat="46.93876" lon="8.70259">
        <ele>1689</ele>
        <time>2021-08-06T12:04:24.755Z</time>
      </trkpt>
      <trkpt lat="46.93875" lon="8.70258">
        <ele>1688</ele>
        <time>2021-08-06T12:04:25.756Z</time>
      </trkpt>
      <trkpt lat="46.93874" lon="8.70258">
        <ele>1688</ele>
        <time>2021-08-06T12:04:26.756Z</time>
      </trkpt>
      <trkpt lat="46.93873" lon="8.70257">
        <ele>1688</ele>
        <time>2021-08-06T12:04:27.756Z</time>
      </trkpt>
      <trkpt lat="46.93873" lon="8.70256">
        <ele>1688</ele>
        <time>2021-08-06T12:04:28.756Z</time>
      </trkpt>
      <trkpt lat="46.93872" lon="8.70256">
        <ele>1688</ele>
        <time>2021-08-06T12:04:29.755Z</time>
      </trkpt>
      <trkpt lat="46.93871" lon="8.70255">
        <ele>1688</ele>
        <time>2021-08-06T12:04:30.755Z</time>
      </trkpt>
      <trkpt lat="46.9387" lon="8.70254">
        <ele>1688</ele>
        <time>2021-08-06T12:04:31.755Z</time>
      </trkpt>
      <trkpt lat="46.93869" lon="8.70253">
        <ele>1688</ele>
        <time>2021-08-06T12:04:32.756Z</time>
      </trkpt>
      <trkpt lat="46.93868" lon="8.70252">
        <ele>1688</ele>
        <time>2021-08-06T12:04:33.756Z</time>
      </trkpt>
      <trkpt lat="46.93867" lon="8.70251">
        <ele>1689</ele>
        <time>2021-08-06T12:04:34.756Z</time>
      </trkpt>
      <trkpt lat="46.93866" lon="8.7025">
        <ele>1689</ele>
        <time>2021-08-06T12:04:35.755Z</time>
      </trkpt>
      <trkpt lat="46.93865" lon="8.70249">
        <ele>1689</ele>
        <time>2021-08-06T12:04:36.756Z</time>
      </trkpt>
      <trkpt lat="46.93865" lon="8.70249">
        <ele>1690</ele>
        <time>2021-08-06T12:04:37.755Z</time>
      </trkpt>
      <trkpt lat="46.93864" lon="8.70248">
        <ele>1690</ele>
        <time>2021-08-06T12:04:38.755Z</time>
      </trkpt>
      <trkpt lat="46.93863" lon="8.70247">
        <ele>1690</ele>
        <time>2021-08-06T12:04:39.756Z</time>
      </trkpt>
      <trkpt lat="46.93862" lon="8.70246">
        <ele>1690</ele>
        <time>2021-08-06T12:04:40.756Z</time>
      </trkpt>
      <trkpt lat="46.93862" lon="8.70245">
        <ele>1690</ele>
        <time>2021-08-06T12:04:41.755Z</time>
      </trkpt>
      <trkpt lat="46.93861" lon="8.70244">
        <ele>1690</ele>
        <time>2021-08-06T12:04:42.756Z</time>
      </trkpt>
      <trkpt lat="46.9386" lon="8.70242">
        <ele>1690</ele>
        <time>2021-08-06T12:04:43.756Z</time>
      </trkpt>
      <trkpt lat="46.9386" lon="8.70241">
        <ele>1690</ele>
        <time>2021-08-06T12:04:44.756Z</time>
      </trkpt>
      <trkpt lat="46.93859" lon="8.70241">
        <ele>1689</ele>
        <time>2021-08-06T12:04:45.756Z</time>
      </trkpt>
      <trkpt lat="46.93859" lon="8.7024">
        <ele>1689</ele>
        <time>2021-08-06T12:04:46.756Z</time>
      </trkpt>
      <trkpt lat="46.93858" lon="8.70238">
        <ele>1689</ele>
        <time>2021-08-06T12:04:47.756Z</time>
      </trkpt>
      <trkpt lat="46.93858" lon="8.70237">
        <ele>1689</ele>
        <time>2021-08-06T12:04:48.756Z</time>
      </trkpt>
      <trkpt lat="46.93858" lon="8.70236">
        <ele>1689</ele>
        <time>2021-08-06T12:04:49.756Z</time>
      </trkpt>
      <trkpt lat="46.93857" lon="8.70235">
        <ele>1689</ele>
        <time>2021-08-06T12:04:50.756Z</time>
      </trkpt>
      <trkpt lat="46.93856" lon="8.70234">
        <ele>1688</ele>
        <time>2021-08-06T12:04:51.756Z</time>
      </trkpt>
      <trkpt lat="46.93856" lon="8.70233">
        <ele>1688</ele>
        <time>2021-08-06T12:04:52.756Z</time>
      </trkpt>
      <trkpt lat="46.93856" lon="8.70231">
        <ele>1688</ele>
        <time>2021-08-06T12:04:53.755Z</time>
      </trkpt>
      <trkpt lat="46.93856" lon="8.7023">
        <ele>1689</ele>
        <time>2021-08-06T12:04:54.756Z</time>
      </trkpt>
      <trkpt lat="46.93856" lon="8.70229">
        <ele>1689</ele>
        <time>2021-08-06T12:04:55.755Z</time>
      </trkpt>
      <trkpt lat="46.93856" lon="8.70228">
        <ele>1689</ele>
        <time>2021-08-06T12:04:56.756Z</time>
      </trkpt>
      <trkpt lat="46.93856" lon="8.70227">
        <ele>1689</ele>
        <time>2021-08-06T12:04:57.755Z</time>
      </trkpt>
      <trkpt lat="46.93856" lon="8.70225">
        <ele>1690</ele>
        <time>2021-08-06T12:04:58.755Z</time>
      </trkpt>
      <trkpt lat="46.93856" lon="8.70224">
        <ele>1690</ele>
        <time>2021-08-06T12:04:59.755Z</time>
      </trkpt>
      <trkpt lat="46.93856" lon="8.70223">
        <ele>1690</ele>
        <time>2021-08-06T12:05:00.755Z</time>
      </trkpt>
      <trkpt lat="46.93856" lon="8.70222">
        <ele>1690</ele>
        <time>2021-08-06T12:05:01.756Z</time>
      </trkpt>
      <trkpt lat="46.93856" lon="8.70221">
        <ele>1691</ele>
        <time>2021-08-06T12:05:02.756Z</time>
      </trkpt>
      <trkpt lat="46.93857" lon="8.7022">
        <ele>1691</ele>
        <time>2021-08-06T12:05:03.756Z</time>
      </trkpt>
      <trkpt lat="46.93857" lon="8.70219">
        <ele>1692</ele>
        <time>2021-08-06T12:05:04.756Z</time>
      </trkpt>
      <trkpt lat="46.93857" lon="8.70218">
        <ele>1693</ele>
        <time>2021-08-06T12:05:05.755Z</time>
      </trkpt>
      <trkpt lat="46.93858" lon="8.70217">
        <ele>1693</ele>
        <time>2021-08-06T12:05:06.756Z</time>
      </trkpt>
      <trkpt lat="46.93858" lon="8.70216">
        <ele>1694</ele>
        <time>2021-08-06T12:05:07.756Z</time>
      </trkpt>
      <trkpt lat="46.93859" lon="8.70215">
        <ele>1694</ele>
        <time>2021-08-06T12:05:08.756Z</time>
      </trkpt>
      <trkpt lat="46.93859" lon="8.70214">
        <ele>1695</ele>
        <time>2021-08-06T12:05:09.756Z</time>
      </trkpt>
      <trkpt lat="46.93859" lon="8.70213">
        <ele>1695</ele>
        <time>2021-08-06T12:05:10.756Z</time>
      </trkpt>
      <trkpt lat="46.93859" lon="8.70212">
        <ele>1695</ele>
        <time>2021-08-06T12:05:11.756Z</time>
      </trkpt>
      <trkpt lat="46.9386" lon="8.70211">
        <ele>1695</ele>
        <time>2021-08-06T12:05:12.756Z</time>
      </trkpt>
      <trkpt lat="46.93861" lon="8.7021">
        <ele>1696</ele>
        <time>2021-08-06T12:05:13.756Z</time>
      </trkpt>
      <trkpt lat="46.93862" lon="8.70209">
        <ele>1697</ele>
        <time>2021-08-06T12:05:14.756Z</time>
      </trkpt>
      <trkpt lat="46.93863" lon="8.70209">
        <ele>1697</ele>
        <time>2021-08-06T12:05:15.755Z</time>
      </trkpt>
      <trkpt lat="46.93863" lon="8.70208">
        <ele>1697</ele>
        <time>2021-08-06T12:05:16.756Z</time>
      </trkpt>
      <trkpt lat="46.93863" lon="8.70208">
        <ele>1697</ele>
        <time>2021-08-06T12:05:17.755Z</time>
      </trkpt>
      <trkpt lat="46.93864" lon="8.70207">
        <ele>1697</ele>
        <time>2021-08-06T12:05:20.850Z</time>
      </trkpt>
      <trkpt lat="46.93864" lon="8.70206">
        <ele>1697</ele>
        <time>2021-08-06T12:05:21.850Z</time>
      </trkpt>
      <trkpt lat="46.93865" lon="8.70205">
        <ele>1697</ele>
        <time>2021-08-06T12:05:22.850Z</time>
      </trkpt>
      <trkpt lat="46.93867" lon="8.70205">
        <ele>1697</ele>
        <time>2021-08-06T12:05:23.850Z</time>
      </trkpt>
      <trkpt lat="46.93867" lon="8.70204">
        <ele>1697</ele>
        <time>2021-08-06T12:05:24.850Z</time>
      </trkpt>
      <trkpt lat="46.93868" lon="8.70203">
        <ele>1696</ele>
        <time>2021-08-06T12:05:26.986Z</time>
      </trkpt>
      <trkpt lat="46.93869" lon="8.70202">
        <ele>1696</ele>
        <time>2021-08-06T12:05:28.831Z</time>
      </trkpt>
      <trkpt lat="46.93869" lon="8.702">
        <ele>1696</ele>
        <time>2021-08-06T12:05:29.831Z</time>
      </trkpt>
      <trkpt lat="46.9387" lon="8.70199">
        <ele>1696</ele>
        <time>2021-08-06T12:05:30.831Z</time>
      </trkpt>
      <trkpt lat="46.93871" lon="8.70198">
        <ele>1695</ele>
        <time>2021-08-06T12:05:41.006Z</time>
      </trkpt>
      <trkpt lat="46.93871" lon="8.70197">
        <ele>1695</ele>
        <time>2021-08-06T12:05:42.006Z</time>
      </trkpt>
      <trkpt lat="46.93872" lon="8.70196">
        <ele>1695</ele>
        <time>2021-08-06T12:05:43.006Z</time>
      </trkpt>
      <trkpt lat="46.93872" lon="8.70195">
        <ele>1695</ele>
        <time>2021-08-06T12:05:44.006Z</time>
      </trkpt>
      <trkpt lat="46.93873" lon="8.70193">
        <ele>1696</ele>
        <time>2021-08-06T12:05:45.006Z</time>
      </trkpt>
      <trkpt lat="46.93873" lon="8.70192">
        <ele>1696</ele>
        <time>2021-08-06T12:05:46.006Z</time>
      </trkpt>
      <trkpt lat="46.93873" lon="8.7019">
        <ele>1696</ele>
        <time>2021-08-06T12:05:47.006Z</time>
      </trkpt>
      <trkpt lat="46.93873" lon="8.70189">
        <ele>1696</ele>
        <time>2021-08-06T12:05:53.113Z</time>
      </trkpt>
      <trkpt lat="46.93872" lon="8.70187">
        <ele>1696</ele>
        <time>2021-08-06T12:05:54.114Z</time>
      </trkpt>
      <trkpt lat="46.93871" lon="8.70185">
        <ele>1696</ele>
        <time>2021-08-06T12:05:55.114Z</time>
      </trkpt>
      <trkpt lat="46.9387" lon="8.70184">
        <ele>1696</ele>
        <time>2021-08-06T12:05:56.114Z</time>
      </trkpt>
      <trkpt lat="46.9387" lon="8.70182">
        <ele>1696</ele>
        <time>2021-08-06T12:05:57.114Z</time>
      </trkpt>
      <trkpt lat="46.93869" lon="8.70181">
        <ele>1696</ele>
        <time>2021-08-06T12:05:58.114Z</time>
      </trkpt>
      <trkpt lat="46.93869" lon="8.70179">
        <ele>1696</ele>
        <time>2021-08-06T12:06:08.254Z</time>
      </trkpt>
      <trkpt lat="46.93868" lon="8.70177">
        <ele>1696</ele>
        <time>2021-08-06T12:06:09.254Z</time>
      </trkpt>
      <trkpt lat="46.93868" lon="8.70175">
        <ele>1696</ele>
        <time>2021-08-06T12:06:10.254Z</time>
      </trkpt>
      <trkpt lat="46.93868" lon="8.70174">
        <ele>1695</ele>
        <time>2021-08-06T12:06:17.371Z</time>
      </trkpt>
      <trkpt lat="46.93868" lon="8.70173">
        <ele>1695</ele>
        <time>2021-08-06T12:06:18.370Z</time>
      </trkpt>
      <trkpt lat="46.93868" lon="8.70171">
        <ele>1695</ele>
        <time>2021-08-06T12:06:19.370Z</time>
      </trkpt>
      <trkpt lat="46.93868" lon="8.70169">
        <ele>1694</ele>
        <time>2021-08-06T12:06:20.371Z</time>
      </trkpt>
      <trkpt lat="46.93867" lon="8.70167">
        <ele>1694</ele>
        <time>2021-08-06T12:06:21.370Z</time>
      </trkpt>
      <trkpt lat="46.93868" lon="8.70165">
        <ele>1694</ele>
        <time>2021-08-06T12:06:25.519Z</time>
      </trkpt>
      <trkpt lat="46.93868" lon="8.70163">
        <ele>1694</ele>
        <time>2021-08-06T12:06:26.518Z</time>
      </trkpt>
      <trkpt lat="46.93868" lon="8.70162">
        <ele>1694</ele>
        <time>2021-08-06T12:06:27.518Z</time>
      </trkpt>
      <trkpt lat="46.93868" lon="8.7016">
        <ele>1694</ele>
        <time>2021-08-06T12:06:28.519Z</time>
      </trkpt>
      <trkpt lat="46.93869" lon="8.7016">
        <ele>1694</ele>
        <time>2021-08-06T12:06:29.518Z</time>
      </trkpt>
      <trkpt lat="46.93869" lon="8.70158">
        <ele>1695</ele>
        <time>2021-08-06T12:06:34.625Z</time>
      </trkpt>
      <trkpt lat="46.93869" lon="8.70156">
        <ele>1695</ele>
        <time>2021-08-06T12:06:35.626Z</time>
      </trkpt>
      <trkpt lat="46.9387" lon="8.70154">
        <ele>1695</ele>
        <time>2021-08-06T12:06:36.625Z</time>
      </trkpt>
      <trkpt lat="46.9387" lon="8.70153">
        <ele>1696</ele>
        <time>2021-08-06T12:06:37.625Z</time>
      </trkpt>
      <trkpt lat="46.93871" lon="8.70152">
        <ele>1697</ele>
        <time>2021-08-06T12:06:55.779Z</time>
      </trkpt>
      <trkpt lat="46.93872" lon="8.70151">
        <ele>1697</ele>
        <time>2021-08-06T12:06:56.779Z</time>
      </trkpt>
      <trkpt lat="46.93872" lon="8.70149">
        <ele>1698</ele>
        <time>2021-08-06T12:07:03.877Z</time>
      </trkpt>
      <trkpt lat="46.93873" lon="8.70148">
        <ele>1699</ele>
        <time>2021-08-06T12:07:04.877Z</time>
      </trkpt>
      <trkpt lat="46.93873" lon="8.70148">
        <ele>1699</ele>
        <time>2021-08-06T12:07:15.727Z</time>
      </trkpt>
      <trkpt lat="46.93873" lon="8.70146">
        <ele>1700</ele>
        <time>2021-08-06T12:07:16.728Z</time>
      </trkpt>
      <trkpt lat="46.93874" lon="8.70146">
        <ele>1701</ele>
        <time>2021-08-06T12:07:25.602Z</time>
      </trkpt>
      <trkpt lat="46.93875" lon="8.70145">
        <ele>1701</ele>
        <time>2021-08-06T12:07:26.601Z</time>
      </trkpt>
      <trkpt lat="46.93875" lon="8.70144">
        <ele>1701</ele>
        <time>2021-08-06T12:07:27.601Z</time>
      </trkpt>
      <trkpt lat="46.93874" lon="8.70143">
        <ele>1701</ele>
        <time>2021-08-06T12:07:42.728Z</time>
      </trkpt>
      <trkpt lat="46.93874" lon="8.70143">
        <ele>1701</ele>
        <time>2021-08-06T12:07:43.728Z</time>
      </trkpt>
      <trkpt lat="46.93873" lon="8.70142">
        <ele>1701</ele>
        <time>2021-08-06T12:07:44.728Z</time>
      </trkpt>
      <trkpt lat="46.93873" lon="8.7014">
        <ele>1701</ele>
        <time>2021-08-06T12:07:45.728Z</time>
      </trkpt>
      <trkpt lat="46.93873" lon="8.70139">
        <ele>1701</ele>
        <time>2021-08-06T12:07:46.728Z</time>
      </trkpt>
      <trkpt lat="46.93872" lon="8.70138">
        <ele>1701</ele>
        <time>2021-08-06T12:07:47.728Z</time>
      </trkpt>
      <trkpt lat="46.93872" lon="8.70137">
        <ele>1700</ele>
        <time>2021-08-06T12:07:48.728Z</time>
      </trkpt>
      <trkpt lat="46.93873" lon="8.70136">
        <ele>1700</ele>
        <time>2021-08-06T12:07:49.727Z</time>
      </trkpt>
      <trkpt lat="46.93873" lon="8.70135">
        <ele>1700</ele>
        <time>2021-08-06T12:07:50.728Z</time>
      </trkpt>
      <trkpt lat="46.93873" lon="8.70134">
        <ele>1699</ele>
        <time>2021-08-06T12:07:51.728Z</time>
      </trkpt>
      <trkpt lat="46.93873" lon="8.70133">
        <ele>1699</ele>
        <time>2021-08-06T12:07:52.728Z</time>
      </trkpt>
      <trkpt lat="46.93874" lon="8.70132">
        <ele>1699</ele>
        <time>2021-08-06T12:07:53.728Z</time>
      </trkpt>
      <trkpt lat="46.93874" lon="8.70131">
        <ele>1699</ele>
        <time>2021-08-06T12:08:18.710Z</time>
      </trkpt>
      <trkpt lat="46.93874" lon="8.7013">
        <ele>1699</ele>
        <time>2021-08-06T12:08:19.710Z</time>
      </trkpt>
      <trkpt lat="46.93874" lon="8.70128">
        <ele>1699</ele>
        <time>2021-08-06T12:08:26.584Z</time>
      </trkpt>
      <trkpt lat="46.93874" lon="8.70127">
        <ele>1699</ele>
        <time>2021-08-06T12:08:28.462Z</time>
      </trkpt>
      <trkpt lat="46.93874" lon="8.70126">
        <ele>1699</ele>
        <time>2021-08-06T12:08:34.390Z</time>
      </trkpt>
      <trkpt lat="46.93874" lon="8.70126">
        <ele>1700</ele>
        <time>2021-08-06T12:08:35.390Z</time>
      </trkpt>
      <trkpt lat="46.93874" lon="8.70125">
        <ele>1700</ele>
        <time>2021-08-06T12:08:36.390Z</time>
      </trkpt>
      <trkpt lat="46.93874" lon="8.70124">
        <ele>1700</ele>
        <time>2021-08-06T12:08:37.390Z</time>
      </trkpt>
      <trkpt lat="46.93874" lon="8.70123">
        <ele>1700</ele>
        <time>2021-08-06T12:08:38.390Z</time>
      </trkpt>
      <trkpt lat="46.93874" lon="8.70122">
        <ele>1700</ele>
        <time>2021-08-06T12:08:39.390Z</time>
      </trkpt>
      <trkpt lat="46.93874" lon="8.7012">
        <ele>1700</ele>
        <time>2021-08-06T12:08:40.389Z</time>
      </trkpt>
      <trkpt lat="46.93874" lon="8.70119">
        <ele>1700</ele>
        <time>2021-08-06T12:08:41.390Z</time>
      </trkpt>
      <trkpt lat="46.93874" lon="8.70118">
        <ele>1699</ele>
        <time>2021-08-06T12:08:42.390Z</time>
      </trkpt>
      <trkpt lat="46.93874" lon="8.70116">
        <ele>1699</ele>
        <time>2021-08-06T12:08:43.390Z</time>
      </trkpt>
      <trkpt lat="46.93874" lon="8.70115">
        <ele>1699</ele>
        <time>2021-08-06T12:08:44.390Z</time>
      </trkpt>
      <trkpt lat="46.93874" lon="8.70113">
        <ele>1699</ele>
        <time>2021-08-06T12:08:45.390Z</time>
      </trkpt>
      <trkpt lat="46.93873" lon="8.70113">
        <ele>1699</ele>
        <time>2021-08-06T12:08:46.390Z</time>
      </trkpt>
      <trkpt lat="46.93873" lon="8.70112">
        <ele>1699</ele>
        <time>2021-08-06T12:08:47.390Z</time>
      </trkpt>
      <trkpt lat="46.93872" lon="8.7011">
        <ele>1699</ele>
        <time>2021-08-06T12:08:48.390Z</time>
      </trkpt>
      <trkpt lat="46.93871" lon="8.70109">
        <ele>1699</ele>
        <time>2021-08-06T12:08:49.390Z</time>
      </trkpt>
      <trkpt lat="46.93871" lon="8.70107">
        <ele>1699</ele>
        <time>2021-08-06T12:08:50.389Z</time>
      </trkpt>
      <trkpt lat="46.93869" lon="8.70105">
        <ele>1698</ele>
        <time>2021-08-06T12:08:51.389Z</time>
      </trkpt>
      <trkpt lat="46.93868" lon="8.70103">
        <ele>1698</ele>
        <time>2021-08-06T12:08:52.390Z</time>
      </trkpt>
      <trkpt lat="46.93868" lon="8.70102">
        <ele>1698</ele>
        <time>2021-08-06T12:08:53.390Z</time>
      </trkpt>
      <trkpt lat="46.93867" lon="8.701">
        <ele>1698</ele>
        <time>2021-08-06T12:08:54.390Z</time>
      </trkpt>
      <trkpt lat="46.93867" lon="8.70099">
        <ele>1698</ele>
        <time>2021-08-06T12:08:55.390Z</time>
      </trkpt>
      <trkpt lat="46.93867" lon="8.70097">
        <ele>1698</ele>
        <time>2021-08-06T12:08:56.389Z</time>
      </trkpt>
      <trkpt lat="46.93866" lon="8.70095">
        <ele>1697</ele>
        <time>2021-08-06T12:08:57.390Z</time>
      </trkpt>
      <trkpt lat="46.93865" lon="8.70094">
        <ele>1697</ele>
        <time>2021-08-06T12:08:58.390Z</time>
      </trkpt>
      <trkpt lat="46.93866" lon="8.70093">
        <ele>1698</ele>
        <time>2021-08-06T12:08:59.390Z</time>
      </trkpt>
      <trkpt lat="46.93866" lon="8.70091">
        <ele>1698</ele>
        <time>2021-08-06T12:09:00.390Z</time>
      </trkpt>
      <trkpt lat="46.93866" lon="8.7009">
        <ele>1699</ele>
        <time>2021-08-06T12:09:01.389Z</time>
      </trkpt>
      <trkpt lat="46.93867" lon="8.70089">
        <ele>1699</ele>
        <time>2021-08-06T12:09:02.389Z</time>
      </trkpt>
      <trkpt lat="46.93866" lon="8.70088">
        <ele>1700</ele>
        <time>2021-08-06T12:09:03.390Z</time>
      </trkpt>
      <trkpt lat="46.93867" lon="8.70086">
        <ele>1700</ele>
        <time>2021-08-06T12:09:04.389Z</time>
      </trkpt>
      <trkpt lat="46.93867" lon="8.70084">
        <ele>1700</ele>
        <time>2021-08-06T12:09:05.390Z</time>
      </trkpt>
      <trkpt lat="46.93866" lon="8.70083">
        <ele>1700</ele>
        <time>2021-08-06T12:09:06.389Z</time>
      </trkpt>
      <trkpt lat="46.93866" lon="8.70081">
        <ele>1700</ele>
        <time>2021-08-06T12:09:07.390Z</time>
      </trkpt>
      <trkpt lat="46.93865" lon="8.70081">
        <ele>1699</ele>
        <time>2021-08-06T12:09:08.389Z</time>
      </trkpt>
      <trkpt lat="46.93865" lon="8.70079">
        <ele>1699</ele>
        <time>2021-08-06T12:09:09.390Z</time>
      </trkpt>
      <trkpt lat="46.93865" lon="8.70077">
        <ele>1698</ele>
        <time>2021-08-06T12:09:10.389Z</time>
      </trkpt>
      <trkpt lat="46.93865" lon="8.70075">
        <ele>1698</ele>
        <time>2021-08-06T12:09:11.390Z</time>
      </trkpt>
      <trkpt lat="46.93864" lon="8.70074">
        <ele>1697</ele>
        <time>2021-08-06T12:09:12.389Z</time>
      </trkpt>
      <trkpt lat="46.93865" lon="8.70072">
        <ele>1697</ele>
        <time>2021-08-06T12:09:13.389Z</time>
      </trkpt>
      <trkpt lat="46.93865" lon="8.70071">
        <ele>1696</ele>
        <time>2021-08-06T12:09:14.389Z</time>
      </trkpt>
      <trkpt lat="46.93864" lon="8.70069">
        <ele>1696</ele>
        <time>2021-08-06T12:09:15.390Z</time>
      </trkpt>
      <trkpt lat="46.93864" lon="8.70067">
        <ele>1696</ele>
        <time>2021-08-06T12:09:16.390Z</time>
      </trkpt>
      <trkpt lat="46.93864" lon="8.70066">
        <ele>1695</ele>
        <time>2021-08-06T12:09:17.390Z</time>
      </trkpt>
      <trkpt lat="46.93863" lon="8.70065">
        <ele>1695</ele>
        <time>2021-08-06T12:09:18.390Z</time>
      </trkpt>
      <trkpt lat="46.93862" lon="8.70065">
        <ele>1695</ele>
        <time>2021-08-06T12:09:20.489Z</time>
      </trkpt>
      <trkpt lat="46.93861" lon="8.70064">
        <ele>1696</ele>
        <time>2021-08-06T12:09:21.488Z</time>
      </trkpt>
      <trkpt lat="46.9386" lon="8.70063">
        <ele>1695</ele>
        <time>2021-08-06T12:09:22.488Z</time>
      </trkpt>
      <trkpt lat="46.93859" lon="8.70063">
        <ele>1695</ele>
        <time>2021-08-06T12:09:23.489Z</time>
      </trkpt>
      <trkpt lat="46.93858" lon="8.70062">
        <ele>1695</ele>
        <time>2021-08-06T12:09:24.489Z</time>
      </trkpt>
      <trkpt lat="46.93857" lon="8.70061">
        <ele>1695</ele>
        <time>2021-08-06T12:09:25.489Z</time>
      </trkpt>
      <trkpt lat="46.93856" lon="8.7006">
        <ele>1694</ele>
        <time>2021-08-06T12:09:26.488Z</time>
      </trkpt>
      <trkpt lat="46.93855" lon="8.70058">
        <ele>1693</ele>
        <time>2021-08-06T12:09:27.488Z</time>
      </trkpt>
      <trkpt lat="46.93854" lon="8.70057">
        <ele>1693</ele>
        <time>2021-08-06T12:09:28.488Z</time>
      </trkpt>
      <trkpt lat="46.93854" lon="8.70055">
        <ele>1693</ele>
        <time>2021-08-06T12:09:29.489Z</time>
      </trkpt>
      <trkpt lat="46.93853" lon="8.70055">
        <ele>1693</ele>
        <time>2021-08-06T12:09:30.489Z</time>
      </trkpt>
      <trkpt lat="46.93852" lon="8.70053">
        <ele>1692</ele>
        <time>2021-08-06T12:09:31.488Z</time>
      </trkpt>
      <trkpt lat="46.93851" lon="8.70052">
        <ele>1692</ele>
        <time>2021-08-06T12:09:32.489Z</time>
      </trkpt>
      <trkpt lat="46.9385" lon="8.70051">
        <ele>1692</ele>
        <time>2021-08-06T12:09:33.489Z</time>
      </trkpt>
      <trkpt lat="46.93849" lon="8.7005">
        <ele>1691</ele>
        <time>2021-08-06T12:09:34.489Z</time>
      </trkpt>
      <trkpt lat="46.93848" lon="8.7005">
        <ele>1691</ele>
        <time>2021-08-06T12:09:35.488Z</time>
      </trkpt>
      <trkpt lat="46.93847" lon="8.70049">
        <ele>1691</ele>
        <time>2021-08-06T12:09:36.489Z</time>
      </trkpt>
      <trkpt lat="46.93846" lon="8.70048">
        <ele>1690</ele>
        <time>2021-08-06T12:09:37.489Z</time>
      </trkpt>
      <trkpt lat="46.93846" lon="8.70047">
        <ele>1690</ele>
        <time>2021-08-06T12:09:38.488Z</time>
      </trkpt>
      <trkpt lat="46.93847" lon="8.70045">
        <ele>1689</ele>
        <time>2021-08-06T12:09:39.489Z</time>
      </trkpt>
      <trkpt lat="46.93847" lon="8.70044">
        <ele>1689</ele>
        <time>2021-08-06T12:09:40.489Z</time>
      </trkpt>
      <trkpt lat="46.93847" lon="8.70042">
        <ele>1689</ele>
        <time>2021-08-06T12:09:41.488Z</time>
      </trkpt>
      <trkpt lat="46.93847" lon="8.7004">
        <ele>1689</ele>
        <time>2021-08-06T12:09:42.489Z</time>
      </trkpt>
      <trkpt lat="46.93847" lon="8.70038">
        <ele>1689</ele>
        <time>2021-08-06T12:09:43.488Z</time>
      </trkpt>
      <trkpt lat="46.93847" lon="8.70036">
        <ele>1689</ele>
        <time>2021-08-06T12:09:44.488Z</time>
      </trkpt>
      <trkpt lat="46.93847" lon="8.70035">
        <ele>1689</ele>
        <time>2021-08-06T12:09:45.489Z</time>
      </trkpt>
      <trkpt lat="46.93847" lon="8.70033">
        <ele>1689</ele>
        <time>2021-08-06T12:09:46.489Z</time>
      </trkpt>
      <trkpt lat="46.93847" lon="8.70032">
        <ele>1690</ele>
        <time>2021-08-06T12:09:47.489Z</time>
      </trkpt>
      <trkpt lat="46.93847" lon="8.70031">
        <ele>1690</ele>
        <time>2021-08-06T12:09:48.488Z</time>
      </trkpt>
      <trkpt lat="46.93846" lon="8.7003">
        <ele>1690</ele>
        <time>2021-08-06T12:09:49.488Z</time>
      </trkpt>
      <trkpt lat="46.93846" lon="8.70029">
        <ele>1690</ele>
        <time>2021-08-06T12:09:50.489Z</time>
      </trkpt>
      <trkpt lat="46.93846" lon="8.70027">
        <ele>1690</ele>
        <time>2021-08-06T12:09:51.489Z</time>
      </trkpt>
      <trkpt lat="46.93846" lon="8.70026">
        <ele>1690</ele>
        <time>2021-08-06T12:09:52.489Z</time>
      </trkpt>
      <trkpt lat="46.93846" lon="8.70025">
        <ele>1690</ele>
        <time>2021-08-06T12:09:53.488Z</time>
      </trkpt>
      <trkpt lat="46.93847" lon="8.70024">
        <ele>1690</ele>
        <time>2021-08-06T12:09:54.489Z</time>
      </trkpt>
      <trkpt lat="46.93847" lon="8.70022">
        <ele>1691</ele>
        <time>2021-08-06T12:09:55.489Z</time>
      </trkpt>
      <trkpt lat="46.93847" lon="8.70021">
        <ele>1691</ele>
        <time>2021-08-06T12:09:56.489Z</time>
      </trkpt>
      <trkpt lat="46.93849" lon="8.7002">
        <ele>1692</ele>
        <time>2021-08-06T12:09:57.488Z</time>
      </trkpt>
      <trkpt lat="46.93849" lon="8.70019">
        <ele>1692</ele>
        <time>2021-08-06T12:09:58.488Z</time>
      </trkpt>
      <trkpt lat="46.93849" lon="8.70017">
        <ele>1692</ele>
        <time>2021-08-06T12:09:59.488Z</time>
      </trkpt>
      <trkpt lat="46.93849" lon="8.70016">
        <ele>1692</ele>
        <time>2021-08-06T12:10:00.488Z</time>
      </trkpt>
      <trkpt lat="46.93849" lon="8.70014">
        <ele>1692</ele>
        <time>2021-08-06T12:10:01.488Z</time>
      </trkpt>
      <trkpt lat="46.93849" lon="8.70013">
        <ele>1692</ele>
        <time>2021-08-06T12:10:02.488Z</time>
      </trkpt>
      <trkpt lat="46.93848" lon="8.70011">
        <ele>1693</ele>
        <time>2021-08-06T12:10:03.488Z</time>
      </trkpt>
      <trkpt lat="46.93848" lon="8.70009">
        <ele>1693</ele>
        <time>2021-08-06T12:10:04.488Z</time>
      </trkpt>
      <trkpt lat="46.93847" lon="8.70007">
        <ele>1693</ele>
        <time>2021-08-06T12:10:05.488Z</time>
      </trkpt>
      <trkpt lat="46.93847" lon="8.70006">
        <ele>1693</ele>
        <time>2021-08-06T12:10:06.488Z</time>
      </trkpt>
      <trkpt lat="46.93847" lon="8.70004">
        <ele>1693</ele>
        <time>2021-08-06T12:10:07.488Z</time>
      </trkpt>
      <trkpt lat="46.93846" lon="8.70003">
        <ele>1693</ele>
        <time>2021-08-06T12:10:08.488Z</time>
      </trkpt>
      <trkpt lat="46.93846" lon="8.70001">
        <ele>1692</ele>
        <time>2021-08-06T12:10:09.488Z</time>
      </trkpt>
      <trkpt lat="46.93846" lon="8.7">
        <ele>1692</ele>
        <time>2021-08-06T12:10:10.489Z</time>
      </trkpt>
      <trkpt lat="46.93845" lon="8.69999">
        <ele>1691</ele>
        <time>2021-08-06T12:10:11.489Z</time>
      </trkpt>
      <trkpt lat="46.93844" lon="8.69997">
        <ele>1691</ele>
        <time>2021-08-06T12:10:12.488Z</time>
      </trkpt>
      <trkpt lat="46.93844" lon="8.69996">
        <ele>1690</ele>
        <time>2021-08-06T12:10:13.489Z</time>
      </trkpt>
      <trkpt lat="46.93843" lon="8.69995">
        <ele>1689</ele>
        <time>2021-08-06T12:10:14.489Z</time>
      </trkpt>
      <trkpt lat="46.93843" lon="8.69995">
        <ele>1689</ele>
        <time>2021-08-06T12:10:15.489Z</time>
      </trkpt>
      <trkpt lat="46.93843" lon="8.69994">
        <ele>1689</ele>
        <time>2021-08-06T12:10:16.489Z</time>
      </trkpt>
      <trkpt lat="46.93842" lon="8.69993">
        <ele>1688</ele>
        <time>2021-08-06T12:10:17.489Z</time>
      </trkpt>
      <trkpt lat="46.93842" lon="8.69991">
        <ele>1688</ele>
        <time>2021-08-06T12:10:18.488Z</time>
      </trkpt>
      <trkpt lat="46.93841" lon="8.69989">
        <ele>1688</ele>
        <time>2021-08-06T12:10:19.489Z</time>
      </trkpt>
      <trkpt lat="46.9384" lon="8.69988">
        <ele>1688</ele>
        <time>2021-08-06T12:10:20.488Z</time>
      </trkpt>
      <trkpt lat="46.9384" lon="8.69986">
        <ele>1687</ele>
        <time>2021-08-06T12:10:21.488Z</time>
      </trkpt>
      <trkpt lat="46.93839" lon="8.69985">
        <ele>1687</ele>
        <time>2021-08-06T12:10:22.489Z</time>
      </trkpt>
      <trkpt lat="46.93839" lon="8.69984">
        <ele>1688</ele>
        <time>2021-08-06T12:10:23.489Z</time>
      </trkpt>
      <trkpt lat="46.93838" lon="8.69983">
        <ele>1688</ele>
        <time>2021-08-06T12:10:24.489Z</time>
      </trkpt>
      <trkpt lat="46.93838" lon="8.69982">
        <ele>1688</ele>
        <time>2021-08-06T12:10:25.488Z</time>
      </trkpt>
      <trkpt lat="46.93838" lon="8.69981">
        <ele>1689</ele>
        <time>2021-08-06T12:10:26.488Z</time>
      </trkpt>
      <trkpt lat="46.93837" lon="8.6998">
        <ele>1689</ele>
        <time>2021-08-06T12:10:27.489Z</time>
      </trkpt>
      <trkpt lat="46.93837" lon="8.69978">
        <ele>1690</ele>
        <time>2021-08-06T12:10:28.488Z</time>
      </trkpt>
      <trkpt lat="46.93837" lon="8.69976">
        <ele>1690</ele>
        <time>2021-08-06T12:10:29.489Z</time>
      </trkpt>
      <trkpt lat="46.93837" lon="8.69974">
        <ele>1690</ele>
        <time>2021-08-06T12:10:30.489Z</time>
      </trkpt>
      <trkpt lat="46.93837" lon="8.69972">
        <ele>1691</ele>
        <time>2021-08-06T12:10:31.489Z</time>
      </trkpt>
      <trkpt lat="46.93837" lon="8.6997">
        <ele>1691</ele>
        <time>2021-08-06T12:10:32.489Z</time>
      </trkpt>
      <trkpt lat="46.93837" lon="8.69969">
        <ele>1691</ele>
        <time>2021-08-06T12:10:33.489Z</time>
      </trkpt>
      <trkpt lat="46.93837" lon="8.69967">
        <ele>1690</ele>
        <time>2021-08-06T12:10:34.489Z</time>
      </trkpt>
      <trkpt lat="46.93837" lon="8.69966">
        <ele>1690</ele>
        <time>2021-08-06T12:10:35.489Z</time>
      </trkpt>
      <trkpt lat="46.93836" lon="8.69964">
        <ele>1690</ele>
        <time>2021-08-06T12:10:36.488Z</time>
      </trkpt>
      <trkpt lat="46.93836" lon="8.69963">
        <ele>1690</ele>
        <time>2021-08-06T12:10:37.488Z</time>
      </trkpt>
      <trkpt lat="46.93836" lon="8.69961">
        <ele>1689</ele>
        <time>2021-08-06T12:10:38.489Z</time>
      </trkpt>
      <trkpt lat="46.93837" lon="8.69959">
        <ele>1688</ele>
        <time>2021-08-06T12:10:39.489Z</time>
      </trkpt>
      <trkpt lat="46.93837" lon="8.69957">
        <ele>1688</ele>
        <time>2021-08-06T12:10:40.488Z</time>
      </trkpt>
      <trkpt lat="46.93837" lon="8.69955">
        <ele>1687</ele>
        <time>2021-08-06T12:10:41.488Z</time>
      </trkpt>
      <trkpt lat="46.93838" lon="8.69954">
        <ele>1687</ele>
        <time>2021-08-06T12:10:42.489Z</time>
      </trkpt>
      <trkpt lat="46.93838" lon="8.69953">
        <ele>1687</ele>
        <time>2021-08-06T12:10:43.489Z</time>
      </trkpt>
      <trkpt lat="46.93839" lon="8.69951">
        <ele>1687</ele>
        <time>2021-08-06T12:10:48.475Z</time>
      </trkpt>
      <trkpt lat="46.9384" lon="8.69949">
        <ele>1687</ele>
        <time>2021-08-06T12:10:49.474Z</time>
      </trkpt>
      <trkpt lat="46.9384" lon="8.69948">
        <ele>1686</ele>
        <time>2021-08-06T12:10:50.475Z</time>
      </trkpt>
      <trkpt lat="46.9384" lon="8.69946">
        <ele>1686</ele>
        <time>2021-08-06T12:10:58.650Z</time>
      </trkpt>
      <trkpt lat="46.9384" lon="8.69945">
        <ele>1686</ele>
        <time>2021-08-06T12:10:59.650Z</time>
      </trkpt>
      <trkpt lat="46.93841" lon="8.69943">
        <ele>1685</ele>
        <time>2021-08-06T12:11:00.650Z</time>
      </trkpt>
      <trkpt lat="46.93841" lon="8.69941">
        <ele>1685</ele>
        <time>2021-08-06T12:11:01.650Z</time>
      </trkpt>
      <trkpt lat="46.93842" lon="8.6994">
        <ele>1685</ele>
        <time>2021-08-06T12:11:02.649Z</time>
      </trkpt>
      <trkpt lat="46.93842" lon="8.69938">
        <ele>1685</ele>
        <time>2021-08-06T12:11:03.649Z</time>
      </trkpt>
      <trkpt lat="46.93842" lon="8.69936">
        <ele>1684</ele>
        <time>2021-08-06T12:11:04.650Z</time>
      </trkpt>
      <trkpt lat="46.93841" lon="8.69935">
        <ele>1684</ele>
        <time>2021-08-06T12:11:05.650Z</time>
      </trkpt>
      <trkpt lat="46.93841" lon="8.69933">
        <ele>1684</ele>
        <time>2021-08-06T12:11:06.650Z</time>
      </trkpt>
      <trkpt lat="46.93841" lon="8.69931">
        <ele>1683</ele>
        <time>2021-08-06T12:11:07.650Z</time>
      </trkpt>
      <trkpt lat="46.9384" lon="8.6993">
        <ele>1683</ele>
        <time>2021-08-06T12:11:08.650Z</time>
      </trkpt>
      <trkpt lat="46.9384" lon="8.69928">
        <ele>1683</ele>
        <time>2021-08-06T12:11:09.650Z</time>
      </trkpt>
      <trkpt lat="46.93839" lon="8.69927">
        <ele>1682</ele>
        <time>2021-08-06T12:11:10.650Z</time>
      </trkpt>
      <trkpt lat="46.93839" lon="8.69926">
        <ele>1681</ele>
        <time>2021-08-06T12:11:11.650Z</time>
      </trkpt>
      <trkpt lat="46.93838" lon="8.69924">
        <ele>1681</ele>
        <time>2021-08-06T12:11:12.650Z</time>
      </trkpt>
      <trkpt lat="46.93838" lon="8.69923">
        <ele>1681</ele>
        <time>2021-08-06T12:11:13.650Z</time>
      </trkpt>
      <trkpt lat="46.93837" lon="8.69922">
        <ele>1682</ele>
        <time>2021-08-06T12:11:14.649Z</time>
      </trkpt>
      <trkpt lat="46.93837" lon="8.69922">
        <ele>1682</ele>
        <time>2021-08-06T12:11:15.649Z</time>
      </trkpt>
      <trkpt lat="46.93836" lon="8.69922">
        <ele>1682</ele>
        <time>2021-08-06T12:11:16.649Z</time>
      </trkpt>
      <trkpt lat="46.93836" lon="8.6992">
        <ele>1680</ele>
        <time>2021-08-06T12:11:17.651Z</time>
      </trkpt>
      <trkpt lat="46.93836" lon="8.69918">
        <ele>1681</ele>
        <time>2021-08-06T12:11:18.650Z</time>
      </trkpt>
      <trkpt lat="46.93836" lon="8.69916">
        <ele>1681</ele>
        <time>2021-08-06T12:11:19.651Z</time>
      </trkpt>
      <trkpt lat="46.93836" lon="8.69914">
        <ele>1682</ele>
        <time>2021-08-06T12:11:20.650Z</time>
      </trkpt>
      <trkpt lat="46.93835" lon="8.69912">
        <ele>1682</ele>
        <time>2021-08-06T12:11:21.650Z</time>
      </trkpt>
      <trkpt lat="46.93835" lon="8.6991">
        <ele>1682</ele>
        <time>2021-08-06T12:11:22.651Z</time>
      </trkpt>
      <trkpt lat="46.93835" lon="8.69909">
        <ele>1682</ele>
        <time>2021-08-06T12:11:23.651Z</time>
      </trkpt>
      <trkpt lat="46.93835" lon="8.69907">
        <ele>1682</ele>
        <time>2021-08-06T12:11:24.651Z</time>
      </trkpt>
      <trkpt lat="46.93834" lon="8.69906">
        <ele>1681</ele>
        <time>2021-08-06T12:11:25.651Z</time>
      </trkpt>
      <trkpt lat="46.93834" lon="8.69905">
        <ele>1681</ele>
        <time>2021-08-06T12:11:26.651Z</time>
      </trkpt>
      <trkpt lat="46.93834" lon="8.69903">
        <ele>1681</ele>
        <time>2021-08-06T12:11:27.651Z</time>
      </trkpt>
      <trkpt lat="46.93833" lon="8.69902">
        <ele>1680</ele>
        <time>2021-08-06T12:11:28.651Z</time>
      </trkpt>
      <trkpt lat="46.93833" lon="8.69902">
        <ele>1680</ele>
        <time>2021-08-06T12:11:29.651Z</time>
      </trkpt>
      <trkpt lat="46.93832" lon="8.69901">
        <ele>1679</ele>
        <time>2021-08-06T12:11:30.650Z</time>
      </trkpt>
      <trkpt lat="46.93832" lon="8.69901">
        <ele>1678</ele>
        <time>2021-08-06T12:11:31.650Z</time>
      </trkpt>
      <trkpt lat="46.93831" lon="8.69901">
        <ele>1677</ele>
        <time>2021-08-06T12:11:32.650Z</time>
      </trkpt>
      <trkpt lat="46.9383" lon="8.69901">
        <ele>1676</ele>
        <time>2021-08-06T12:11:33.652Z</time>
      </trkpt>
      <trkpt lat="46.93829" lon="8.699">
        <ele>1676</ele>
        <time>2021-08-06T12:11:34.651Z</time>
      </trkpt>
      <trkpt lat="46.93828" lon="8.69898">
        <ele>1677</ele>
        <time>2021-08-06T12:11:35.651Z</time>
      </trkpt>
      <trkpt lat="46.93827" lon="8.69897">
        <ele>1677</ele>
        <time>2021-08-06T12:11:36.651Z</time>
      </trkpt>
      <trkpt lat="46.93826" lon="8.69895">
        <ele>1677</ele>
        <time>2021-08-06T12:11:37.652Z</time>
      </trkpt>
      <trkpt lat="46.93826" lon="8.69895">
        <ele>1678</ele>
        <time>2021-08-06T12:11:38.652Z</time>
      </trkpt>
      <trkpt lat="46.93825" lon="8.69894">
        <ele>1678</ele>
        <time>2021-08-06T12:11:39.652Z</time>
      </trkpt>
      <trkpt lat="46.93824" lon="8.69894">
        <ele>1678</ele>
        <time>2021-08-06T12:11:40.652Z</time>
      </trkpt>
      <trkpt lat="46.93823" lon="8.69893">
        <ele>1678</ele>
        <time>2021-08-06T12:11:41.652Z</time>
      </trkpt>
      <trkpt lat="46.93823" lon="8.69893">
        <ele>1678</ele>
        <time>2021-08-06T12:11:42.652Z</time>
      </trkpt>
      <trkpt lat="46.93823" lon="8.69893">
        <ele>1678</ele>
        <time>2021-08-06T12:11:43.651Z</time>
      </trkpt>
      <trkpt lat="46.93822" lon="8.69892">
        <ele>1678</ele>
        <time>2021-08-06T12:11:44.651Z</time>
      </trkpt>
      <trkpt lat="46.93822" lon="8.69891">
        <ele>1678</ele>
        <time>2021-08-06T12:11:45.651Z</time>
      </trkpt>
      <trkpt lat="46.93822" lon="8.6989">
        <ele>1678</ele>
        <time>2021-08-06T12:11:46.651Z</time>
      </trkpt>
      <trkpt lat="46.93822" lon="8.69889">
        <ele>1678</ele>
        <time>2021-08-06T12:11:47.652Z</time>
      </trkpt>
      <trkpt lat="46.93822" lon="8.69887">
        <ele>1678</ele>
        <time>2021-08-06T12:11:48.651Z</time>
      </trkpt>
      <trkpt lat="46.93822" lon="8.69886">
        <ele>1677</ele>
        <time>2021-08-06T12:11:49.652Z</time>
      </trkpt>
      <trkpt lat="46.93822" lon="8.69885">
        <ele>1677</ele>
        <time>2021-08-06T12:11:50.652Z</time>
      </trkpt>
      <trkpt lat="46.93822" lon="8.69883">
        <ele>1677</ele>
        <time>2021-08-06T12:11:51.652Z</time>
      </trkpt>
      <trkpt lat="46.93822" lon="8.69882">
        <ele>1676</ele>
        <time>2021-08-06T12:11:52.652Z</time>
      </trkpt>
      <trkpt lat="46.93821" lon="8.6988">
        <ele>1676</ele>
        <time>2021-08-06T12:11:53.652Z</time>
      </trkpt>
      <trkpt lat="46.93821" lon="8.69879">
        <ele>1676</ele>
        <time>2021-08-06T12:11:54.651Z</time>
      </trkpt>
      <trkpt lat="46.93821" lon="8.69877">
        <ele>1676</ele>
        <time>2021-08-06T12:11:55.651Z</time>
      </trkpt>
      <trkpt lat="46.9382" lon="8.69876">
        <ele>1676</ele>
        <time>2021-08-06T12:11:56.651Z</time>
      </trkpt>
      <trkpt lat="46.9382" lon="8.69875">
        <ele>1676</ele>
        <time>2021-08-06T12:11:57.651Z</time>
      </trkpt>
      <trkpt lat="46.93819" lon="8.69873">
        <ele>1676</ele>
        <time>2021-08-06T12:11:58.652Z</time>
      </trkpt>
      <trkpt lat="46.93819" lon="8.69871">
        <ele>1676</ele>
        <time>2021-08-06T12:11:59.651Z</time>
      </trkpt>
      <trkpt lat="46.93819" lon="8.6987">
        <ele>1676</ele>
        <time>2021-08-06T12:12:00.652Z</time>
      </trkpt>
      <trkpt lat="46.93818" lon="8.69868">
        <ele>1676</ele>
        <time>2021-08-06T12:12:01.651Z</time>
      </trkpt>
      <trkpt lat="46.93817" lon="8.69867">
        <ele>1676</ele>
        <time>2021-08-06T12:12:02.651Z</time>
      </trkpt>
      <trkpt lat="46.93816" lon="8.69865">
        <ele>1675</ele>
        <time>2021-08-06T12:12:03.651Z</time>
      </trkpt>
      <trkpt lat="46.93815" lon="8.69864">
        <ele>1675</ele>
        <time>2021-08-06T12:12:04.651Z</time>
      </trkpt>
      <trkpt lat="46.93815" lon="8.69862">
        <ele>1674</ele>
        <time>2021-08-06T12:12:05.651Z</time>
      </trkpt>
      <trkpt lat="46.93815" lon="8.69861">
        <ele>1673</ele>
        <time>2021-08-06T12:12:06.651Z</time>
      </trkpt>
      <trkpt lat="46.93814" lon="8.6986">
        <ele>1672</ele>
        <time>2021-08-06T12:12:07.651Z</time>
      </trkpt>
      <trkpt lat="46.93814" lon="8.69859">
        <ele>1672</ele>
        <time>2021-08-06T12:12:08.651Z</time>
      </trkpt>
      <trkpt lat="46.93813" lon="8.69858">
        <ele>1671</ele>
        <time>2021-08-06T12:12:09.651Z</time>
      </trkpt>
      <trkpt lat="46.93812" lon="8.69857">
        <ele>1671</ele>
        <time>2021-08-06T12:12:10.651Z</time>
      </trkpt>
      <trkpt lat="46.93811" lon="8.69856">
        <ele>1671</ele>
        <time>2021-08-06T12:12:11.651Z</time>
      </trkpt>
      <trkpt lat="46.93811" lon="8.69855">
        <ele>1670</ele>
        <time>2021-08-06T12:12:12.651Z</time>
      </trkpt>
      <trkpt lat="46.9381" lon="8.69855">
        <ele>1670</ele>
        <time>2021-08-06T12:12:13.652Z</time>
      </trkpt>
      <trkpt lat="46.93809" lon="8.69854">
        <ele>1670</ele>
        <time>2021-08-06T12:12:14.651Z</time>
      </trkpt>
      <trkpt lat="46.93808" lon="8.69853">
        <ele>1669</ele>
        <time>2021-08-06T12:12:15.651Z</time>
      </trkpt>
      <trkpt lat="46.93807" lon="8.69852">
        <ele>1669</ele>
        <time>2021-08-06T12:12:16.652Z</time>
      </trkpt>
      <trkpt lat="46.93806" lon="8.69851">
        <ele>1670</ele>
        <time>2021-08-06T12:12:17.651Z</time>
      </trkpt>
      <trkpt lat="46.93805" lon="8.6985">
        <ele>1669</ele>
        <time>2021-08-06T12:12:18.652Z</time>
      </trkpt>
      <trkpt lat="46.93805" lon="8.69849">
        <ele>1669</ele>
        <time>2021-08-06T12:12:19.652Z</time>
      </trkpt>
      <trkpt lat="46.93804" lon="8.69848">
        <ele>1668</ele>
        <time>2021-08-06T12:12:20.651Z</time>
      </trkpt>
      <trkpt lat="46.93804" lon="8.69847">
        <ele>1668</ele>
        <time>2021-08-06T12:12:21.651Z</time>
      </trkpt>
      <trkpt lat="46.93804" lon="8.69845">
        <ele>1668</ele>
        <time>2021-08-06T12:12:22.652Z</time>
      </trkpt>
      <trkpt lat="46.93804" lon="8.69843">
        <ele>1668</ele>
        <time>2021-08-06T12:12:23.652Z</time>
      </trkpt>
      <trkpt lat="46.93804" lon="8.69841">
        <ele>1668</ele>
        <time>2021-08-06T12:12:24.652Z</time>
      </trkpt>
      <trkpt lat="46.93804" lon="8.69839">
        <ele>1668</ele>
        <time>2021-08-06T12:12:25.651Z</time>
      </trkpt>
      <trkpt lat="46.93804" lon="8.69838">
        <ele>1668</ele>
        <time>2021-08-06T12:12:26.652Z</time>
      </trkpt>
      <trkpt lat="46.93804" lon="8.69836">
        <ele>1668</ele>
        <time>2021-08-06T12:12:27.652Z</time>
      </trkpt>
      <trkpt lat="46.93804" lon="8.69835">
        <ele>1668</ele>
        <time>2021-08-06T12:12:28.651Z</time>
      </trkpt>
      <trkpt lat="46.93804" lon="8.69835">
        <ele>1668</ele>
        <time>2021-08-06T12:12:29.652Z</time>
      </trkpt>
      <trkpt lat="46.93804" lon="8.69836">
        <ele>1668</ele>
        <time>2021-08-06T12:12:30.652Z</time>
      </trkpt>
      <trkpt lat="46.93805" lon="8.69838">
        <ele>1668</ele>
        <time>2021-08-06T12:12:31.652Z</time>
      </trkpt>
      <trkpt lat="46.93805" lon="8.6984">
        <ele>1667</ele>
        <time>2021-08-06T12:12:32.652Z</time>
      </trkpt>
      <trkpt lat="46.93805" lon="8.69841">
        <ele>1667</ele>
        <time>2021-08-06T12:12:33.652Z</time>
      </trkpt>
      <trkpt lat="46.93806" lon="8.6984">
        <ele>1667</ele>
        <time>2021-08-06T12:12:34.652Z</time>
      </trkpt>
      <trkpt lat="46.93807" lon="8.69839">
        <ele>1667</ele>
        <time>2021-08-06T12:12:35.651Z</time>
      </trkpt>
      <trkpt lat="46.93807" lon="8.69839">
        <ele>1667</ele>
        <time>2021-08-06T12:12:36.651Z</time>
      </trkpt>
      <trkpt lat="46.93807" lon="8.69839">
        <ele>1667</ele>
        <time>2021-08-06T12:12:37.652Z</time>
      </trkpt>
      <trkpt lat="46.93807" lon="8.69838">
        <ele>1667</ele>
        <time>2021-08-06T12:12:38.652Z</time>
      </trkpt>
      <trkpt lat="46.93807" lon="8.69838">
        <ele>1667</ele>
        <time>2021-08-06T12:12:39.652Z</time>
      </trkpt>
      <trkpt lat="46.93806" lon="8.69838">
        <ele>1667</ele>
        <time>2021-08-06T12:12:40.651Z</time>
      </trkpt>
      <trkpt lat="46.93806" lon="8.69838">
        <ele>1667</ele>
        <time>2021-08-06T12:12:41.652Z</time>
      </trkpt>
      <trkpt lat="46.93805" lon="8.69837">
        <ele>1668</ele>
        <time>2021-08-06T12:12:42.652Z</time>
      </trkpt>
      <trkpt lat="46.93805" lon="8.69836">
        <ele>1668</ele>
        <time>2021-08-06T12:12:43.651Z</time>
      </trkpt>
      <trkpt lat="46.93805" lon="8.69835">
        <ele>1668</ele>
        <time>2021-08-06T12:12:44.651Z</time>
      </trkpt>
      <trkpt lat="46.93805" lon="8.69833">
        <ele>1669</ele>
        <time>2021-08-06T12:12:45.652Z</time>
      </trkpt>
      <trkpt lat="46.93806" lon="8.69833">
        <ele>1669</ele>
        <time>2021-08-06T12:12:46.652Z</time>
      </trkpt>
      <trkpt lat="46.93805" lon="8.69831">
        <ele>1669</ele>
        <time>2021-08-06T12:12:47.651Z</time>
      </trkpt>
      <trkpt lat="46.93805" lon="8.6983">
        <ele>1669</ele>
        <time>2021-08-06T12:12:48.651Z</time>
      </trkpt>
      <trkpt lat="46.93806" lon="8.6983">
        <ele>1670</ele>
        <time>2021-08-06T12:12:49.652Z</time>
      </trkpt>
      <trkpt lat="46.93805" lon="8.69829">
        <ele>1670</ele>
        <time>2021-08-06T12:12:50.652Z</time>
      </trkpt>
      <trkpt lat="46.93805" lon="8.69828">
        <ele>1670</ele>
        <time>2021-08-06T12:12:51.651Z</time>
      </trkpt>
      <trkpt lat="46.93804" lon="8.69828">
        <ele>1670</ele>
        <time>2021-08-06T12:12:52.652Z</time>
      </trkpt>
      <trkpt lat="46.93803" lon="8.69827">
        <ele>1670</ele>
        <time>2021-08-06T12:12:53.652Z</time>
      </trkpt>
      <trkpt lat="46.93802" lon="8.69826">
        <ele>1670</ele>
        <time>2021-08-06T12:12:54.652Z</time>
      </trkpt>
      <trkpt lat="46.93801" lon="8.69824">
        <ele>1670</ele>
        <time>2021-08-06T12:12:55.652Z</time>
      </trkpt>
      <trkpt lat="46.93799" lon="8.69823">
        <ele>1670</ele>
        <time>2021-08-06T12:12:56.652Z</time>
      </trkpt>
      <trkpt lat="46.93799" lon="8.69823">
        <ele>1670</ele>
        <time>2021-08-06T12:12:57.651Z</time>
      </trkpt>
      <trkpt lat="46.93799" lon="8.69822">
        <ele>1671</ele>
        <time>2021-08-06T12:12:58.651Z</time>
      </trkpt>
      <trkpt lat="46.93798" lon="8.69821">
        <ele>1671</ele>
        <time>2021-08-06T12:12:59.652Z</time>
      </trkpt>
      <trkpt lat="46.93797" lon="8.69821">
        <ele>1671</ele>
        <time>2021-08-06T12:13:00.651Z</time>
      </trkpt>
      <trkpt lat="46.93796" lon="8.6982">
        <ele>1672</ele>
        <time>2021-08-06T12:13:01.651Z</time>
      </trkpt>
      <trkpt lat="46.93796" lon="8.6982">
        <ele>1672</ele>
        <time>2021-08-06T12:13:02.651Z</time>
      </trkpt>
      <trkpt lat="46.93795" lon="8.69819">
        <ele>1672</ele>
        <time>2021-08-06T12:13:03.652Z</time>
      </trkpt>
      <trkpt lat="46.93795" lon="8.69817">
        <ele>1671</ele>
        <time>2021-08-06T12:13:04.651Z</time>
      </trkpt>
      <trkpt lat="46.93794" lon="8.69817">
        <ele>1670</ele>
        <time>2021-08-06T12:13:05.651Z</time>
      </trkpt>
      <trkpt lat="46.93793" lon="8.69816">
        <ele>1670</ele>
        <time>2021-08-06T12:13:06.652Z</time>
      </trkpt>
      <trkpt lat="46.93793" lon="8.69815">
        <ele>1669</ele>
        <time>2021-08-06T12:13:07.652Z</time>
      </trkpt>
      <trkpt lat="46.93792" lon="8.69815">
        <ele>1669</ele>
        <time>2021-08-06T12:13:08.652Z</time>
      </trkpt>
      <trkpt lat="46.93792" lon="8.69816">
        <ele>1669</ele>
        <time>2021-08-06T12:13:09.652Z</time>
      </trkpt>
      <trkpt lat="46.93791" lon="8.69816">
        <ele>1669</ele>
        <time>2021-08-06T12:13:10.652Z</time>
      </trkpt>
      <trkpt lat="46.93791" lon="8.69815">
        <ele>1669</ele>
        <time>2021-08-06T12:13:11.652Z</time>
      </trkpt>
      <trkpt lat="46.93791" lon="8.69815">
        <ele>1669</ele>
        <time>2021-08-06T12:13:12.651Z</time>
      </trkpt>
      <trkpt lat="46.9379" lon="8.69814">
        <ele>1669</ele>
        <time>2021-08-06T12:13:13.652Z</time>
      </trkpt>
      <trkpt lat="46.93789" lon="8.69814">
        <ele>1669</ele>
        <time>2021-08-06T12:13:14.652Z</time>
      </trkpt>
      <trkpt lat="46.93789" lon="8.69813">
        <ele>1670</ele>
        <time>2021-08-06T12:13:15.651Z</time>
      </trkpt>
      <trkpt lat="46.93789" lon="8.69813">
        <ele>1669</ele>
        <time>2021-08-06T12:13:16.652Z</time>
      </trkpt>
      <trkpt lat="46.93788" lon="8.69813">
        <ele>1669</ele>
        <time>2021-08-06T12:13:17.651Z</time>
      </trkpt>
      <trkpt lat="46.93788" lon="8.69813">
        <ele>1669</ele>
        <time>2021-08-06T12:13:18.652Z</time>
      </trkpt>
      <trkpt lat="46.93787" lon="8.69813">
        <ele>1670</ele>
        <time>2021-08-06T12:13:19.651Z</time>
      </trkpt>
      <trkpt lat="46.93786" lon="8.69813">
        <ele>1670</ele>
        <time>2021-08-06T12:13:20.652Z</time>
      </trkpt>
      <trkpt lat="46.93786" lon="8.69813">
        <ele>1670</ele>
        <time>2021-08-06T12:13:21.652Z</time>
      </trkpt>
      <trkpt lat="46.93786" lon="8.69812">
        <ele>1670</ele>
        <time>2021-08-06T12:13:22.652Z</time>
      </trkpt>
      <trkpt lat="46.93785" lon="8.69812">
        <ele>1670</ele>
        <time>2021-08-06T12:13:23.651Z</time>
      </trkpt>
      <trkpt lat="46.93785" lon="8.69811">
        <ele>1670</ele>
        <time>2021-08-06T12:13:24.652Z</time>
      </trkpt>
      <trkpt lat="46.93786" lon="8.69811">
        <ele>1670</ele>
        <time>2021-08-06T12:13:25.651Z</time>
      </trkpt>
      <trkpt lat="46.93784" lon="8.69811">
        <ele>1670</ele>
        <time>2021-08-06T12:13:26.652Z</time>
      </trkpt>
      <trkpt lat="46.93784" lon="8.69811">
        <ele>1670</ele>
        <time>2021-08-06T12:13:27.652Z</time>
      </trkpt>
      <trkpt lat="46.93783" lon="8.69811">
        <ele>1670</ele>
        <time>2021-08-06T12:13:28.651Z</time>
      </trkpt>
      <trkpt lat="46.93783" lon="8.69811">
        <ele>1670</ele>
        <time>2021-08-06T12:13:29.652Z</time>
      </trkpt>
      <trkpt lat="46.93782" lon="8.69811">
        <ele>1670</ele>
        <time>2021-08-06T12:13:30.652Z</time>
      </trkpt>
      <trkpt lat="46.93782" lon="8.6981">
        <ele>1671</ele>
        <time>2021-08-06T12:13:31.652Z</time>
      </trkpt>
      <trkpt lat="46.93781" lon="8.6981">
        <ele>1671</ele>
        <time>2021-08-06T12:13:32.652Z</time>
      </trkpt>
      <trkpt lat="46.93781" lon="8.6981">
        <ele>1671</ele>
        <time>2021-08-06T12:13:33.652Z</time>
      </trkpt>
      <trkpt lat="46.9378" lon="8.6981">
        <ele>1672</ele>
        <time>2021-08-06T12:13:34.652Z</time>
      </trkpt>
      <trkpt lat="46.93779" lon="8.6981">
        <ele>1672</ele>
        <time>2021-08-06T12:13:35.652Z</time>
      </trkpt>
      <trkpt lat="46.93779" lon="8.6981">
        <ele>1672</ele>
        <time>2021-08-06T12:13:36.652Z</time>
      </trkpt>
      <trkpt lat="46.93778" lon="8.6981">
        <ele>1672</ele>
        <time>2021-08-06T12:13:37.652Z</time>
      </trkpt>
      <trkpt lat="46.93778" lon="8.69809">
        <ele>1672</ele>
        <time>2021-08-06T12:13:38.652Z</time>
      </trkpt>
      <trkpt lat="46.93778" lon="8.69809">
        <ele>1672</ele>
        <time>2021-08-06T12:13:39.652Z</time>
      </trkpt>
      <trkpt lat="46.93777" lon="8.69809">
        <ele>1672</ele>
        <time>2021-08-06T12:13:40.652Z</time>
      </trkpt>
      <trkpt lat="46.93777" lon="8.69809">
        <ele>1672</ele>
        <time>2021-08-06T12:13:41.651Z</time>
      </trkpt>
      <trkpt lat="46.93776" lon="8.6981">
        <ele>1672</ele>
        <time>2021-08-06T12:13:42.652Z</time>
      </trkpt>
      <trkpt lat="46.93775" lon="8.69811">
        <ele>1673</ele>
        <time>2021-08-06T12:13:43.651Z</time>
      </trkpt>
      <trkpt lat="46.93774" lon="8.6981">
        <ele>1673</ele>
        <time>2021-08-06T12:13:44.652Z</time>
      </trkpt>
      <trkpt lat="46.93773" lon="8.69811">
        <ele>1674</ele>
        <time>2021-08-06T12:13:45.652Z</time>
      </trkpt>
      <trkpt lat="46.93773" lon="8.69811">
        <ele>1674</ele>
        <time>2021-08-06T12:13:46.652Z</time>
      </trkpt>
      <trkpt lat="46.93772" lon="8.69811">
        <ele>1675</ele>
        <time>2021-08-06T12:13:47.651Z</time>
      </trkpt>
      <trkpt lat="46.93771" lon="8.69811">
        <ele>1675</ele>
        <time>2021-08-06T12:13:48.652Z</time>
      </trkpt>
      <trkpt lat="46.93771" lon="8.69811">
        <ele>1675</ele>
        <time>2021-08-06T12:13:49.651Z</time>
      </trkpt>
      <trkpt lat="46.93771" lon="8.69811">
        <ele>1675</ele>
        <time>2021-08-06T12:13:50.652Z</time>
      </trkpt>
      <trkpt lat="46.9377" lon="8.69812">
        <ele>1675</ele>
        <time>2021-08-06T12:13:51.652Z</time>
      </trkpt>
      <trkpt lat="46.93769" lon="8.69812">
        <ele>1674</ele>
        <time>2021-08-06T12:13:52.651Z</time>
      </trkpt>
      <trkpt lat="46.93769" lon="8.69812">
        <ele>1674</ele>
        <time>2021-08-06T12:13:53.652Z</time>
      </trkpt>
      <trkpt lat="46.93768" lon="8.69812">
        <ele>1673</ele>
        <time>2021-08-06T12:13:54.652Z</time>
      </trkpt>
      <trkpt lat="46.93768" lon="8.69812">
        <ele>1673</ele>
        <time>2021-08-06T12:13:55.652Z</time>
      </trkpt>
      <trkpt lat="46.93767" lon="8.69812">
        <ele>1672</ele>
        <time>2021-08-06T12:13:56.651Z</time>
      </trkpt>
      <trkpt lat="46.93767" lon="8.69811">
        <ele>1672</ele>
        <time>2021-08-06T12:13:57.652Z</time>
      </trkpt>
      <trkpt lat="46.93766" lon="8.69811">
        <ele>1672</ele>
        <time>2021-08-06T12:13:58.651Z</time>
      </trkpt>
      <trkpt lat="46.93766" lon="8.69811">
        <ele>1672</ele>
        <time>2021-08-06T12:13:59.652Z</time>
      </trkpt>
      <trkpt lat="46.93765" lon="8.6981">
        <ele>1673</ele>
        <time>2021-08-06T12:14:00.651Z</time>
      </trkpt>
      <trkpt lat="46.93765" lon="8.69809">
        <ele>1673</ele>
        <time>2021-08-06T12:14:01.652Z</time>
      </trkpt>
      <trkpt lat="46.93764" lon="8.69809">
        <ele>1673</ele>
        <time>2021-08-06T12:14:02.652Z</time>
      </trkpt>
      <trkpt lat="46.93764" lon="8.69808">
        <ele>1673</ele>
        <time>2021-08-06T12:14:03.652Z</time>
      </trkpt>
      <trkpt lat="46.93764" lon="8.69808">
        <ele>1674</ele>
        <time>2021-08-06T12:14:04.651Z</time>
      </trkpt>
      <trkpt lat="46.93764" lon="8.69808">
        <ele>1674</ele>
        <time>2021-08-06T12:14:05.652Z</time>
      </trkpt>
      <trkpt lat="46.93763" lon="8.69807">
        <ele>1674</ele>
        <time>2021-08-06T12:14:06.651Z</time>
      </trkpt>
      <trkpt lat="46.93763" lon="8.69807">
        <ele>1674</ele>
        <time>2021-08-06T12:14:07.652Z</time>
      </trkpt>
      <trkpt lat="46.93763" lon="8.69807">
        <ele>1674</ele>
        <time>2021-08-06T12:14:08.652Z</time>
      </trkpt>
      <trkpt lat="46.93763" lon="8.69806">
        <ele>1675</ele>
        <time>2021-08-06T12:14:09.652Z</time>
      </trkpt>
      <trkpt lat="46.93762" lon="8.69806">
        <ele>1675</ele>
        <time>2021-08-06T12:14:10.652Z</time>
      </trkpt>
      <trkpt lat="46.93762" lon="8.69805">
        <ele>1675</ele>
        <time>2021-08-06T12:14:11.652Z</time>
      </trkpt>
      <trkpt lat="46.93762" lon="8.69804">
        <ele>1675</ele>
        <time>2021-08-06T12:14:12.651Z</time>
      </trkpt>
      <trkpt lat="46.93761" lon="8.69804">
        <ele>1675</ele>
        <time>2021-08-06T12:14:13.652Z</time>
      </trkpt>
      <trkpt lat="46.93761" lon="8.69803">
        <ele>1675</ele>
        <time>2021-08-06T12:14:14.651Z</time>
      </trkpt>
      <trkpt lat="46.93761" lon="8.69803">
        <ele>1675</ele>
        <time>2021-08-06T12:14:15.651Z</time>
      </trkpt>
      <trkpt lat="46.9376" lon="8.69802">
        <ele>1675</ele>
        <time>2021-08-06T12:14:16.652Z</time>
      </trkpt>
      <trkpt lat="46.9376" lon="8.69801">
        <ele>1675</ele>
        <time>2021-08-06T12:14:17.652Z</time>
      </trkpt>
      <trkpt lat="46.93759" lon="8.698">
        <ele>1675</ele>
        <time>2021-08-06T12:14:18.651Z</time>
      </trkpt>
      <trkpt lat="46.93759" lon="8.69799">
        <ele>1675</ele>
        <time>2021-08-06T12:14:19.652Z</time>
      </trkpt>
      <trkpt lat="46.93759" lon="8.69799">
        <ele>1675</ele>
        <time>2021-08-06T12:14:20.651Z</time>
      </trkpt>
      <trkpt lat="46.93758" lon="8.69798">
        <ele>1675</ele>
        <time>2021-08-06T12:14:21.652Z</time>
      </trkpt>
      <trkpt lat="46.93758" lon="8.69798">
        <ele>1675</ele>
        <time>2021-08-06T12:14:22.651Z</time>
      </trkpt>
      <trkpt lat="46.93758" lon="8.69798">
        <ele>1675</ele>
        <time>2021-08-06T12:14:23.652Z</time>
      </trkpt>
      <trkpt lat="46.93757" lon="8.69797">
        <ele>1675</ele>
        <time>2021-08-06T12:14:24.651Z</time>
      </trkpt>
      <trkpt lat="46.93757" lon="8.69796">
        <ele>1676</ele>
        <time>2021-08-06T12:14:25.652Z</time>
      </trkpt>
      <trkpt lat="46.93757" lon="8.69795">
        <ele>1676</ele>
        <time>2021-08-06T12:14:26.651Z</time>
      </trkpt>
      <trkpt lat="46.93756" lon="8.69794">
        <ele>1677</ele>
        <time>2021-08-06T12:14:27.652Z</time>
      </trkpt>
      <trkpt lat="46.93756" lon="8.69792">
        <ele>1677</ele>
        <time>2021-08-06T12:14:28.652Z</time>
      </trkpt>
      <trkpt lat="46.93755" lon="8.69792">
        <ele>1678</ele>
        <time>2021-08-06T12:14:29.652Z</time>
      </trkpt>
      <trkpt lat="46.93755" lon="8.69791">
        <ele>1678</ele>
        <time>2021-08-06T12:14:30.651Z</time>
      </trkpt>
      <trkpt lat="46.93754" lon="8.6979">
        <ele>1678</ele>
        <time>2021-08-06T12:14:31.652Z</time>
      </trkpt>
      <trkpt lat="46.93754" lon="8.69789">
        <ele>1679</ele>
        <time>2021-08-06T12:14:32.652Z</time>
      </trkpt>
      <trkpt lat="46.93754" lon="8.69789">
        <ele>1679</ele>
        <time>2021-08-06T12:14:33.651Z</time>
      </trkpt>
      <trkpt lat="46.93753" lon="8.69787">
        <ele>1680</ele>
        <time>2021-08-06T12:14:34.651Z</time>
      </trkpt>
      <trkpt lat="46.93752" lon="8.69786">
        <ele>1680</ele>
        <time>2021-08-06T12:14:35.651Z</time>
      </trkpt>
      <trkpt lat="46.93752" lon="8.69786">
        <ele>1681</ele>
        <time>2021-08-06T12:14:36.651Z</time>
      </trkpt>
      <trkpt lat="46.93751" lon="8.69785">
        <ele>1681</ele>
        <time>2021-08-06T12:14:37.652Z</time>
      </trkpt>
      <trkpt lat="46.93751" lon="8.69784">
        <ele>1681</ele>
        <time>2021-08-06T12:14:38.651Z</time>
      </trkpt>
      <trkpt lat="46.93752" lon="8.69783">
        <ele>1682</ele>
        <time>2021-08-06T12:14:39.652Z</time>
      </trkpt>
      <trkpt lat="46.93752" lon="8.69781">
        <ele>1682</ele>
        <time>2021-08-06T12:14:40.652Z</time>
      </trkpt>
      <trkpt lat="46.93753" lon="8.6978">
        <ele>1683</ele>
        <time>2021-08-06T12:14:41.652Z</time>
      </trkpt>
      <trkpt lat="46.93754" lon="8.69778">
        <ele>1683</ele>
        <time>2021-08-06T12:14:42.652Z</time>
      </trkpt>
      <trkpt lat="46.93754" lon="8.69777">
        <ele>1683</ele>
        <time>2021-08-06T12:14:43.651Z</time>
      </trkpt>
      <trkpt lat="46.93755" lon="8.69775">
        <ele>1684</ele>
        <time>2021-08-06T12:14:44.652Z</time>
      </trkpt>
      <trkpt lat="46.93754" lon="8.69774">
        <ele>1684</ele>
        <time>2021-08-06T12:14:45.652Z</time>
      </trkpt>
      <trkpt lat="46.93754" lon="8.69773">
        <ele>1685</ele>
        <time>2021-08-06T12:14:46.652Z</time>
      </trkpt>
      <trkpt lat="46.93753" lon="8.69773">
        <ele>1685</ele>
        <time>2021-08-06T12:14:47.652Z</time>
      </trkpt>
      <trkpt lat="46.93752" lon="8.69772">
        <ele>1685</ele>
        <time>2021-08-06T12:14:48.652Z</time>
      </trkpt>
      <trkpt lat="46.93752" lon="8.69771">
        <ele>1685</ele>
        <time>2021-08-06T12:14:49.652Z</time>
      </trkpt>
      <trkpt lat="46.93751" lon="8.69771">
        <ele>1685</ele>
        <time>2021-08-06T12:14:50.651Z</time>
      </trkpt>
      <trkpt lat="46.9375" lon="8.6977">
        <ele>1685</ele>
        <time>2021-08-06T12:14:51.651Z</time>
      </trkpt>
      <trkpt lat="46.93749" lon="8.6977">
        <ele>1685</ele>
        <time>2021-08-06T12:14:52.651Z</time>
      </trkpt>
      <trkpt lat="46.93748" lon="8.69769">
        <ele>1685</ele>
        <time>2021-08-06T12:14:53.652Z</time>
      </trkpt>
      <trkpt lat="46.93747" lon="8.69769">
        <ele>1684</ele>
        <time>2021-08-06T12:14:54.651Z</time>
      </trkpt>
      <trkpt lat="46.93746" lon="8.69768">
        <ele>1684</ele>
        <time>2021-08-06T12:14:55.651Z</time>
      </trkpt>
      <trkpt lat="46.93746" lon="8.69768">
        <ele>1683</ele>
        <time>2021-08-06T12:14:56.651Z</time>
      </trkpt>
      <trkpt lat="46.93745" lon="8.69768">
        <ele>1683</ele>
        <time>2021-08-06T12:14:57.652Z</time>
      </trkpt>
      <trkpt lat="46.93745" lon="8.69767">
        <ele>1682</ele>
        <time>2021-08-06T12:14:58.652Z</time>
      </trkpt>
      <trkpt lat="46.93745" lon="8.69766">
        <ele>1682</ele>
        <time>2021-08-06T12:14:59.652Z</time>
      </trkpt>
      <trkpt lat="46.93744" lon="8.69765">
        <ele>1682</ele>
        <time>2021-08-06T12:15:00.652Z</time>
      </trkpt>
      <trkpt lat="46.93744" lon="8.69764">
        <ele>1682</ele>
        <time>2021-08-06T12:15:01.652Z</time>
      </trkpt>
      <trkpt lat="46.93744" lon="8.69763">
        <ele>1682</ele>
        <time>2021-08-06T12:15:02.652Z</time>
      </trkpt>
      <trkpt lat="46.93743" lon="8.69762">
        <ele>1681</ele>
        <time>2021-08-06T12:15:03.651Z</time>
      </trkpt>
      <trkpt lat="46.93743" lon="8.6976">
        <ele>1680</ele>
        <time>2021-08-06T12:15:04.651Z</time>
      </trkpt>
      <trkpt lat="46.93743" lon="8.69758">
        <ele>1680</ele>
        <time>2021-08-06T12:15:05.651Z</time>
      </trkpt>
      <trkpt lat="46.93743" lon="8.69757">
        <ele>1680</ele>
        <time>2021-08-06T12:15:06.652Z</time>
      </trkpt>
      <trkpt lat="46.93742" lon="8.69755">
        <ele>1679</ele>
        <time>2021-08-06T12:15:07.652Z</time>
      </trkpt>
      <trkpt lat="46.93742" lon="8.69753">
        <ele>1679</ele>
        <time>2021-08-06T12:15:08.651Z</time>
      </trkpt>
      <trkpt lat="46.93742" lon="8.69752">
        <ele>1679</ele>
        <time>2021-08-06T12:15:09.652Z</time>
      </trkpt>
      <trkpt lat="46.93742" lon="8.6975">
        <ele>1679</ele>
        <time>2021-08-06T12:15:10.651Z</time>
      </trkpt>
      <trkpt lat="46.93741" lon="8.69749">
        <ele>1679</ele>
        <time>2021-08-06T12:15:11.651Z</time>
      </trkpt>
      <trkpt lat="46.93742" lon="8.69748">
        <ele>1679</ele>
        <time>2021-08-06T12:15:12.652Z</time>
      </trkpt>
      <trkpt lat="46.93742" lon="8.69747">
        <ele>1679</ele>
        <time>2021-08-06T12:15:13.651Z</time>
      </trkpt>
      <trkpt lat="46.93742" lon="8.69745">
        <ele>1680</ele>
        <time>2021-08-06T12:15:14.651Z</time>
      </trkpt>
      <trkpt lat="46.93742" lon="8.69743">
        <ele>1679</ele>
        <time>2021-08-06T12:15:15.651Z</time>
      </trkpt>
      <trkpt lat="46.93742" lon="8.69742">
        <ele>1679</ele>
        <time>2021-08-06T12:15:16.651Z</time>
      </trkpt>
      <trkpt lat="46.93742" lon="8.6974">
        <ele>1680</ele>
        <time>2021-08-06T12:15:17.651Z</time>
      </trkpt>
      <trkpt lat="46.93742" lon="8.69739">
        <ele>1680</ele>
        <time>2021-08-06T12:15:18.652Z</time>
      </trkpt>
      <trkpt lat="46.93743" lon="8.69738">
        <ele>1680</ele>
        <time>2021-08-06T12:15:19.651Z</time>
      </trkpt>
      <trkpt lat="46.93743" lon="8.69737">
        <ele>1681</ele>
        <time>2021-08-06T12:15:20.651Z</time>
      </trkpt>
      <trkpt lat="46.93743" lon="8.69736">
        <ele>1681</ele>
        <time>2021-08-06T12:15:21.651Z</time>
      </trkpt>
      <trkpt lat="46.93743" lon="8.69734">
        <ele>1682</ele>
        <time>2021-08-06T12:15:22.651Z</time>
      </trkpt>
      <trkpt lat="46.93743" lon="8.69733">
        <ele>1682</ele>
        <time>2021-08-06T12:15:23.651Z</time>
      </trkpt>
      <trkpt lat="46.93743" lon="8.69732">
        <ele>1683</ele>
        <time>2021-08-06T12:15:24.651Z</time>
      </trkpt>
      <trkpt lat="46.93743" lon="8.69731">
        <ele>1683</ele>
        <time>2021-08-06T12:15:25.651Z</time>
      </trkpt>
      <trkpt lat="46.93743" lon="8.69729">
        <ele>1683</ele>
        <time>2021-08-06T12:15:26.651Z</time>
      </trkpt>
      <trkpt lat="46.93743" lon="8.69728">
        <ele>1683</ele>
        <time>2021-08-06T12:15:27.651Z</time>
      </trkpt>
      <trkpt lat="46.93743" lon="8.69727">
        <ele>1683</ele>
        <time>2021-08-06T12:15:28.651Z</time>
      </trkpt>
      <trkpt lat="46.93743" lon="8.69726">
        <ele>1684</ele>
        <time>2021-08-06T12:15:29.652Z</time>
      </trkpt>
      <trkpt lat="46.93743" lon="8.69724">
        <ele>1685</ele>
        <time>2021-08-06T12:15:30.651Z</time>
      </trkpt>
      <trkpt lat="46.93743" lon="8.69722">
        <ele>1686</ele>
        <time>2021-08-06T12:15:31.651Z</time>
      </trkpt>
      <trkpt lat="46.93743" lon="8.69721">
        <ele>1687</ele>
        <time>2021-08-06T12:15:32.651Z</time>
      </trkpt>
      <trkpt lat="46.93743" lon="8.69719">
        <ele>1688</ele>
        <time>2021-08-06T12:15:33.651Z</time>
      </trkpt>
      <trkpt lat="46.93742" lon="8.69718">
        <ele>1688</ele>
        <time>2021-08-06T12:15:34.651Z</time>
      </trkpt>
      <trkpt lat="46.93742" lon="8.69717">
        <ele>1689</ele>
        <time>2021-08-06T12:15:35.652Z</time>
      </trkpt>
      <trkpt lat="46.93741" lon="8.69715">
        <ele>1689</ele>
        <time>2021-08-06T12:15:36.651Z</time>
      </trkpt>
      <trkpt lat="46.9374" lon="8.69714">
        <ele>1690</ele>
        <time>2021-08-06T12:15:37.651Z</time>
      </trkpt>
      <trkpt lat="46.9374" lon="8.69713">
        <ele>1690</ele>
        <time>2021-08-06T12:15:38.651Z</time>
      </trkpt>
      <trkpt lat="46.93739" lon="8.69712">
        <ele>1691</ele>
        <time>2021-08-06T12:15:39.652Z</time>
      </trkpt>
      <trkpt lat="46.93739" lon="8.69711">
        <ele>1691</ele>
        <time>2021-08-06T12:15:40.651Z</time>
      </trkpt>
      <trkpt lat="46.93737" lon="8.69711">
        <ele>1691</ele>
        <time>2021-08-06T12:15:41.651Z</time>
      </trkpt>
      <trkpt lat="46.93737" lon="8.6971">
        <ele>1691</ele>
        <time>2021-08-06T12:15:42.652Z</time>
      </trkpt>
      <trkpt lat="46.93735" lon="8.69709">
        <ele>1691</ele>
        <time>2021-08-06T12:15:43.652Z</time>
      </trkpt>
      <trkpt lat="46.93735" lon="8.69708">
        <ele>1691</ele>
        <time>2021-08-06T12:15:44.652Z</time>
      </trkpt>
      <trkpt lat="46.93734" lon="8.69707">
        <ele>1690</ele>
        <time>2021-08-06T12:15:45.652Z</time>
      </trkpt>
      <trkpt lat="46.93733" lon="8.69706">
        <ele>1690</ele>
        <time>2021-08-06T12:15:46.652Z</time>
      </trkpt>
      <trkpt lat="46.93732" lon="8.69705">
        <ele>1690</ele>
        <time>2021-08-06T12:15:47.651Z</time>
      </trkpt>
      <trkpt lat="46.93731" lon="8.69704">
        <ele>1689</ele>
        <time>2021-08-06T12:15:48.651Z</time>
      </trkpt>
      <trkpt lat="46.9373" lon="8.69703">
        <ele>1689</ele>
        <time>2021-08-06T12:15:49.651Z</time>
      </trkpt>
      <trkpt lat="46.93729" lon="8.69702">
        <ele>1689</ele>
        <time>2021-08-06T12:15:50.651Z</time>
      </trkpt>
      <trkpt lat="46.93728" lon="8.69701">
        <ele>1689</ele>
        <time>2021-08-06T12:15:51.652Z</time>
      </trkpt>
      <trkpt lat="46.93727" lon="8.697">
        <ele>1689</ele>
        <time>2021-08-06T12:15:52.652Z</time>
      </trkpt>
      <trkpt lat="46.93726" lon="8.697">
        <ele>1689</ele>
        <time>2021-08-06T12:15:53.651Z</time>
      </trkpt>
      <trkpt lat="46.93725" lon="8.69699">
        <ele>1689</ele>
        <time>2021-08-06T12:15:54.651Z</time>
      </trkpt>
      <trkpt lat="46.93724" lon="8.69698">
        <ele>1689</ele>
        <time>2021-08-06T12:15:55.652Z</time>
      </trkpt>
      <trkpt lat="46.93723" lon="8.69698">
        <ele>1689</ele>
        <time>2021-08-06T12:15:56.651Z</time>
      </trkpt>
      <trkpt lat="46.93722" lon="8.69697">
        <ele>1689</ele>
        <time>2021-08-06T12:15:57.651Z</time>
      </trkpt>
      <trkpt lat="46.93721" lon="8.69698">
        <ele>1689</ele>
        <time>2021-08-06T12:15:58.652Z</time>
      </trkpt>
      <trkpt lat="46.93721" lon="8.69697">
        <ele>1689</ele>
        <time>2021-08-06T12:15:59.651Z</time>
      </trkpt>
      <trkpt lat="46.9372" lon="8.69696">
        <ele>1690</ele>
        <time>2021-08-06T12:16:00.652Z</time>
      </trkpt>
      <trkpt lat="46.93719" lon="8.69696">
        <ele>1690</ele>
        <time>2021-08-06T12:16:01.652Z</time>
      </trkpt>
      <trkpt lat="46.93718" lon="8.69694">
        <ele>1690</ele>
        <time>2021-08-06T12:16:02.652Z</time>
      </trkpt>
      <trkpt lat="46.93718" lon="8.69694">
        <ele>1690</ele>
        <time>2021-08-06T12:16:03.652Z</time>
      </trkpt>
      <trkpt lat="46.93717" lon="8.69693">
        <ele>1691</ele>
        <time>2021-08-06T12:16:04.651Z</time>
      </trkpt>
      <trkpt lat="46.93716" lon="8.69692">
        <ele>1691</ele>
        <time>2021-08-06T12:16:05.652Z</time>
      </trkpt>
      <trkpt lat="46.93715" lon="8.6969">
        <ele>1692</ele>
        <time>2021-08-06T12:16:06.652Z</time>
      </trkpt>
      <trkpt lat="46.93714" lon="8.69688">
        <ele>1692</ele>
        <time>2021-08-06T12:16:07.651Z</time>
      </trkpt>
      <trkpt lat="46.93714" lon="8.69687">
        <ele>1692</ele>
        <time>2021-08-06T12:16:08.652Z</time>
      </trkpt>
      <trkpt lat="46.93713" lon="8.69686">
        <ele>1693</ele>
        <time>2021-08-06T12:16:09.652Z</time>
      </trkpt>
      <trkpt lat="46.93713" lon="8.69686">
        <ele>1693</ele>
        <time>2021-08-06T12:16:10.651Z</time>
      </trkpt>
      <trkpt lat="46.93712" lon="8.69685">
        <ele>1693</ele>
        <time>2021-08-06T12:16:11.651Z</time>
      </trkpt>
      <trkpt lat="46.93711" lon="8.69684">
        <ele>1693</ele>
        <time>2021-08-06T12:16:12.652Z</time>
      </trkpt>
      <trkpt lat="46.93711" lon="8.69683">
        <ele>1693</ele>
        <time>2021-08-06T12:16:13.652Z</time>
      </trkpt>
      <trkpt lat="46.93711" lon="8.69682">
        <ele>1693</ele>
        <time>2021-08-06T12:16:14.651Z</time>
      </trkpt>
      <trkpt lat="46.93711" lon="8.69681">
        <ele>1693</ele>
        <time>2021-08-06T12:16:15.651Z</time>
      </trkpt>
      <trkpt lat="46.93711" lon="8.6968">
        <ele>1694</ele>
        <time>2021-08-06T12:16:16.651Z</time>
      </trkpt>
      <trkpt lat="46.93711" lon="8.69679">
        <ele>1694</ele>
        <time>2021-08-06T12:16:17.651Z</time>
      </trkpt>
      <trkpt lat="46.93711" lon="8.69679">
        <ele>1695</ele>
        <time>2021-08-06T12:16:18.652Z</time>
      </trkpt>
      <trkpt lat="46.93711" lon="8.69678">
        <ele>1695</ele>
        <time>2021-08-06T12:16:19.652Z</time>
      </trkpt>
      <trkpt lat="46.93711" lon="8.69678">
        <ele>1695</ele>
        <time>2021-08-06T12:16:20.652Z</time>
      </trkpt>
      <trkpt lat="46.9371" lon="8.69678">
        <ele>1695</ele>
        <time>2021-08-06T12:16:21.652Z</time>
      </trkpt>
      <trkpt lat="46.9371" lon="8.69677">
        <ele>1694</ele>
        <time>2021-08-06T12:16:22.651Z</time>
      </trkpt>
      <trkpt lat="46.93709" lon="8.69676">
        <ele>1694</ele>
        <time>2021-08-06T12:16:23.652Z</time>
      </trkpt>
      <trkpt lat="46.93709" lon="8.69675">
        <ele>1693</ele>
        <time>2021-08-06T12:16:24.652Z</time>
      </trkpt>
      <trkpt lat="46.93709" lon="8.69675">
        <ele>1693</ele>
        <time>2021-08-06T12:16:25.651Z</time>
      </trkpt>
      <trkpt lat="46.93708" lon="8.69674">
        <ele>1693</ele>
        <time>2021-08-06T12:16:26.652Z</time>
      </trkpt>
      <trkpt lat="46.93709" lon="8.69672">
        <ele>1693</ele>
        <time>2021-08-06T12:16:27.651Z</time>
      </trkpt>
      <trkpt lat="46.93708" lon="8.69671">
        <ele>1693</ele>
        <time>2021-08-06T12:16:28.651Z</time>
      </trkpt>
      <trkpt lat="46.93708" lon="8.69671">
        <ele>1693</ele>
        <time>2021-08-06T12:16:29.652Z</time>
      </trkpt>
      <trkpt lat="46.93708" lon="8.6967">
        <ele>1693</ele>
        <time>2021-08-06T12:16:30.651Z</time>
      </trkpt>
      <trkpt lat="46.93707" lon="8.6967">
        <ele>1693</ele>
        <time>2021-08-06T12:16:31.652Z</time>
      </trkpt>
      <trkpt lat="46.93706" lon="8.6967">
        <ele>1694</ele>
        <time>2021-08-06T12:16:32.652Z</time>
      </trkpt>
      <trkpt lat="46.93706" lon="8.6967">
        <ele>1694</ele>
        <time>2021-08-06T12:16:33.652Z</time>
      </trkpt>
      <trkpt lat="46.93706" lon="8.69669">
        <ele>1693</ele>
        <time>2021-08-06T12:16:34.651Z</time>
      </trkpt>
      <trkpt lat="46.93705" lon="8.69668">
        <ele>1693</ele>
        <time>2021-08-06T12:16:35.651Z</time>
      </trkpt>
      <trkpt lat="46.93704" lon="8.69667">
        <ele>1692</ele>
        <time>2021-08-06T12:16:36.652Z</time>
      </trkpt>
      <trkpt lat="46.93704" lon="8.69666">
        <ele>1692</ele>
        <time>2021-08-06T12:16:37.652Z</time>
      </trkpt>
      <trkpt lat="46.93703" lon="8.69666">
        <ele>1691</ele>
        <time>2021-08-06T12:16:38.652Z</time>
      </trkpt>
      <trkpt lat="46.93703" lon="8.69664">
        <ele>1691</ele>
        <time>2021-08-06T12:16:39.652Z</time>
      </trkpt>
      <trkpt lat="46.93703" lon="8.69664">
        <ele>1691</ele>
        <time>2021-08-06T12:16:40.651Z</time>
      </trkpt>
      <trkpt lat="46.93703" lon="8.69663">
        <ele>1691</ele>
        <time>2021-08-06T12:16:41.651Z</time>
      </trkpt>
      <trkpt lat="46.93702" lon="8.69662">
        <ele>1691</ele>
        <time>2021-08-06T12:16:42.652Z</time>
      </trkpt>
      <trkpt lat="46.93701" lon="8.69662">
        <ele>1690</ele>
        <time>2021-08-06T12:16:43.651Z</time>
      </trkpt>
      <trkpt lat="46.937" lon="8.69661">
        <ele>1690</ele>
        <time>2021-08-06T12:16:44.652Z</time>
      </trkpt>
      <trkpt lat="46.93699" lon="8.6966">
        <ele>1690</ele>
        <time>2021-08-06T12:16:45.651Z</time>
      </trkpt>
      <trkpt lat="46.93698" lon="8.69659">
        <ele>1690</ele>
        <time>2021-08-06T12:16:46.652Z</time>
      </trkpt>
      <trkpt lat="46.93698" lon="8.69658">
        <ele>1690</ele>
        <time>2021-08-06T12:16:47.652Z</time>
      </trkpt>
      <trkpt lat="46.93697" lon="8.69657">
        <ele>1690</ele>
        <time>2021-08-06T12:16:48.651Z</time>
      </trkpt>
      <trkpt lat="46.93696" lon="8.69657">
        <ele>1689</ele>
        <time>2021-08-06T12:16:49.652Z</time>
      </trkpt>
      <trkpt lat="46.93697" lon="8.69657">
        <ele>1690</ele>
        <time>2021-08-06T12:16:50.651Z</time>
      </trkpt>
      <trkpt lat="46.93697" lon="8.69656">
        <ele>1690</ele>
        <time>2021-08-06T12:16:51.651Z</time>
      </trkpt>
      <trkpt lat="46.93697" lon="8.69656">
        <ele>1691</ele>
        <time>2021-08-06T12:16:52.651Z</time>
      </trkpt>
      <trkpt lat="46.93696" lon="8.69655">
        <ele>1691</ele>
        <time>2021-08-06T12:16:53.651Z</time>
      </trkpt>
      <trkpt lat="46.93694" lon="8.69654">
        <ele>1692</ele>
        <time>2021-08-06T12:16:54.652Z</time>
      </trkpt>
      <trkpt lat="46.93693" lon="8.69654">
        <ele>1692</ele>
        <time>2021-08-06T12:16:55.652Z</time>
      </trkpt>
      <trkpt lat="46.93693" lon="8.69654">
        <ele>1692</ele>
        <time>2021-08-06T12:16:56.651Z</time>
      </trkpt>
      <trkpt lat="46.93692" lon="8.69654">
        <ele>1693</ele>
        <time>2021-08-06T12:16:57.652Z</time>
      </trkpt>
      <trkpt lat="46.93692" lon="8.69654">
        <ele>1693</ele>
        <time>2021-08-06T12:16:58.652Z</time>
      </trkpt>
      <trkpt lat="46.93691" lon="8.69654">
        <ele>1693</ele>
        <time>2021-08-06T12:16:59.651Z</time>
      </trkpt>
      <trkpt lat="46.9369" lon="8.69654">
        <ele>1693</ele>
        <time>2021-08-06T12:17:00.651Z</time>
      </trkpt>
      <trkpt lat="46.9369" lon="8.69654">
        <ele>1693</ele>
        <time>2021-08-06T12:17:01.651Z</time>
      </trkpt>
      <trkpt lat="46.93689" lon="8.69654">
        <ele>1693</ele>
        <time>2021-08-06T12:17:02.652Z</time>
      </trkpt>
      <trkpt lat="46.93689" lon="8.69654">
        <ele>1693</ele>
        <time>2021-08-06T12:17:03.651Z</time>
      </trkpt>
      <trkpt lat="46.93689" lon="8.69654">
        <ele>1693</ele>
        <time>2021-08-06T12:17:04.652Z</time>
      </trkpt>
      <trkpt lat="46.93688" lon="8.69654">
        <ele>1693</ele>
        <time>2021-08-06T12:17:05.651Z</time>
      </trkpt>
      <trkpt lat="46.93687" lon="8.69653">
        <ele>1693</ele>
        <time>2021-08-06T12:17:06.652Z</time>
      </trkpt>
      <trkpt lat="46.93687" lon="8.69653">
        <ele>1693</ele>
        <time>2021-08-06T12:17:07.652Z</time>
      </trkpt>
      <trkpt lat="46.93686" lon="8.69652">
        <ele>1694</ele>
        <time>2021-08-06T12:17:08.651Z</time>
      </trkpt>
      <trkpt lat="46.93685" lon="8.69651">
        <ele>1694</ele>
        <time>2021-08-06T12:17:09.651Z</time>
      </trkpt>
      <trkpt lat="46.93684" lon="8.6965">
        <ele>1694</ele>
        <time>2021-08-06T12:17:10.651Z</time>
      </trkpt>
      <trkpt lat="46.93683" lon="8.6965">
        <ele>1694</ele>
        <time>2021-08-06T12:17:11.652Z</time>
      </trkpt>
      <trkpt lat="46.93683" lon="8.69649">
        <ele>1695</ele>
        <time>2021-08-06T12:17:12.651Z</time>
      </trkpt>
      <trkpt lat="46.93683" lon="8.69649">
        <ele>1695</ele>
        <time>2021-08-06T12:17:13.651Z</time>
      </trkpt>
      <trkpt lat="46.93682" lon="8.69649">
        <ele>1695</ele>
        <time>2021-08-06T12:17:14.651Z</time>
      </trkpt>
      <trkpt lat="46.93686" lon="8.69647">
        <ele>1698</ele>
        <time>2021-08-06T12:17:15.652Z</time>
      </trkpt>
      <trkpt lat="46.93686" lon="8.69647">
        <ele>1699</ele>
        <time>2021-08-06T12:17:16.651Z</time>
      </trkpt>
      <trkpt lat="46.93685" lon="8.69646">
        <ele>1699</ele>
        <time>2021-08-06T12:17:17.651Z</time>
      </trkpt>
      <trkpt lat="46.93685" lon="8.69645">
        <ele>1699</ele>
        <time>2021-08-06T12:17:18.652Z</time>
      </trkpt>
      <trkpt lat="46.93684" lon="8.69644">
        <ele>1700</ele>
        <time>2021-08-06T12:17:19.652Z</time>
      </trkpt>
      <trkpt lat="46.93684" lon="8.69643">
        <ele>1700</ele>
        <time>2021-08-06T12:17:20.652Z</time>
      </trkpt>
      <trkpt lat="46.93682" lon="8.69642">
        <ele>1701</ele>
        <time>2021-08-06T12:17:21.652Z</time>
      </trkpt>
      <trkpt lat="46.93682" lon="8.69642">
        <ele>1701</ele>
        <time>2021-08-06T12:17:22.651Z</time>
      </trkpt>
      <trkpt lat="46.93681" lon="8.69641">
        <ele>1701</ele>
        <time>2021-08-06T12:17:23.652Z</time>
      </trkpt>
      <trkpt lat="46.93681" lon="8.6964">
        <ele>1702</ele>
        <time>2021-08-06T12:17:24.651Z</time>
      </trkpt>
      <trkpt lat="46.9368" lon="8.69639">
        <ele>1702</ele>
        <time>2021-08-06T12:17:25.652Z</time>
      </trkpt>
      <trkpt lat="46.93679" lon="8.69638">
        <ele>1702</ele>
        <time>2021-08-06T12:17:26.652Z</time>
      </trkpt>
      <trkpt lat="46.93678" lon="8.69638">
        <ele>1703</ele>
        <time>2021-08-06T12:17:27.652Z</time>
      </trkpt>
      <trkpt lat="46.93677" lon="8.69637">
        <ele>1703</ele>
        <time>2021-08-06T12:17:28.652Z</time>
      </trkpt>
      <trkpt lat="46.93676" lon="8.69636">
        <ele>1704</ele>
        <time>2021-08-06T12:17:29.651Z</time>
      </trkpt>
      <trkpt lat="46.93675" lon="8.69636">
        <ele>1704</ele>
        <time>2021-08-06T12:17:30.652Z</time>
      </trkpt>
      <trkpt lat="46.93675" lon="8.69635">
        <ele>1705</ele>
        <time>2021-08-06T12:17:31.652Z</time>
      </trkpt>
      <trkpt lat="46.93673" lon="8.69635">
        <ele>1705</ele>
        <time>2021-08-06T12:17:32.652Z</time>
      </trkpt>
      <trkpt lat="46.93672" lon="8.69633">
        <ele>1706</ele>
        <time>2021-08-06T12:17:33.652Z</time>
      </trkpt>
      <trkpt lat="46.93671" lon="8.69631">
        <ele>1707</ele>
        <time>2021-08-06T12:17:34.652Z</time>
      </trkpt>
      <trkpt lat="46.9367" lon="8.6963">
        <ele>1707</ele>
        <time>2021-08-06T12:17:35.652Z</time>
      </trkpt>
      <trkpt lat="46.93669" lon="8.6963">
        <ele>1708</ele>
        <time>2021-08-06T12:17:36.652Z</time>
      </trkpt>
      <trkpt lat="46.93669" lon="8.69629">
        <ele>1709</ele>
        <time>2021-08-06T12:17:37.652Z</time>
      </trkpt>
      <trkpt lat="46.93669" lon="8.69628">
        <ele>1709</ele>
        <time>2021-08-06T12:17:38.652Z</time>
      </trkpt>
      <trkpt lat="46.93668" lon="8.69627">
        <ele>1710</ele>
        <time>2021-08-06T12:17:39.652Z</time>
      </trkpt>
      <trkpt lat="46.93667" lon="8.69625">
        <ele>1711</ele>
        <time>2021-08-06T12:17:40.652Z</time>
      </trkpt>
      <trkpt lat="46.93667" lon="8.69624">
        <ele>1712</ele>
        <time>2021-08-06T12:17:41.652Z</time>
      </trkpt>
      <trkpt lat="46.93666" lon="8.69623">
        <ele>1712</ele>
        <time>2021-08-06T12:17:42.652Z</time>
      </trkpt>
      <trkpt lat="46.93665" lon="8.69621">
        <ele>1713</ele>
        <time>2021-08-06T12:17:43.652Z</time>
      </trkpt>
      <trkpt lat="46.93664" lon="8.69621">
        <ele>1713</ele>
        <time>2021-08-06T12:17:44.652Z</time>
      </trkpt>
      <trkpt lat="46.93664" lon="8.6962">
        <ele>1713</ele>
        <time>2021-08-06T12:17:45.652Z</time>
      </trkpt>
      <trkpt lat="46.93663" lon="8.69621">
        <ele>1714</ele>
        <time>2021-08-06T12:17:46.652Z</time>
      </trkpt>
      <trkpt lat="46.93663" lon="8.69621">
        <ele>1715</ele>
        <time>2021-08-06T12:17:47.652Z</time>
      </trkpt>
      <trkpt lat="46.93663" lon="8.69622">
        <ele>1715</ele>
        <time>2021-08-06T12:17:48.652Z</time>
      </trkpt>
      <trkpt lat="46.93663" lon="8.69621">
        <ele>1715</ele>
        <time>2021-08-06T12:17:49.652Z</time>
      </trkpt>
      <trkpt lat="46.93663" lon="8.6962">
        <ele>1715</ele>
        <time>2021-08-06T12:17:50.652Z</time>
      </trkpt>
      <trkpt lat="46.93663" lon="8.6962">
        <ele>1715</ele>
        <time>2021-08-06T12:17:51.652Z</time>
      </trkpt>
      <trkpt lat="46.93663" lon="8.6962">
        <ele>1714</ele>
        <time>2021-08-06T12:17:52.651Z</time>
      </trkpt>
      <trkpt lat="46.93663" lon="8.69619">
        <ele>1714</ele>
        <time>2021-08-06T12:17:53.652Z</time>
      </trkpt>
      <trkpt lat="46.93663" lon="8.69618">
        <ele>1713</ele>
        <time>2021-08-06T12:17:54.652Z</time>
      </trkpt>
      <trkpt lat="46.93663" lon="8.69617">
        <ele>1713</ele>
        <time>2021-08-06T12:17:55.652Z</time>
      </trkpt>
      <trkpt lat="46.93663" lon="8.69617">
        <ele>1713</ele>
        <time>2021-08-06T12:17:56.652Z</time>
      </trkpt>
      <trkpt lat="46.93662" lon="8.69617">
        <ele>1713</ele>
        <time>2021-08-06T12:17:57.651Z</time>
      </trkpt>
      <trkpt lat="46.93662" lon="8.69616">
        <ele>1712</ele>
        <time>2021-08-06T12:17:58.652Z</time>
      </trkpt>
      <trkpt lat="46.93661" lon="8.69616">
        <ele>1712</ele>
        <time>2021-08-06T12:17:59.651Z</time>
      </trkpt>
      <trkpt lat="46.9366" lon="8.69615">
        <ele>1712</ele>
        <time>2021-08-06T12:18:00.652Z</time>
      </trkpt>
      <trkpt lat="46.93659" lon="8.69615">
        <ele>1712</ele>
        <time>2021-08-06T12:18:01.652Z</time>
      </trkpt>
      <trkpt lat="46.93659" lon="8.69615">
        <ele>1713</ele>
        <time>2021-08-06T12:18:02.652Z</time>
      </trkpt>
      <trkpt lat="46.93658" lon="8.69615">
        <ele>1713</ele>
        <time>2021-08-06T12:18:03.652Z</time>
      </trkpt>
      <trkpt lat="46.93658" lon="8.69615">
        <ele>1713</ele>
        <time>2021-08-06T12:18:04.651Z</time>
      </trkpt>
      <trkpt lat="46.93658" lon="8.69615">
        <ele>1713</ele>
        <time>2021-08-06T12:18:05.652Z</time>
      </trkpt>
      <trkpt lat="46.93657" lon="8.69615">
        <ele>1713</ele>
        <time>2021-08-06T12:18:06.652Z</time>
      </trkpt>
      <trkpt lat="46.93656" lon="8.69616">
        <ele>1713</ele>
        <time>2021-08-06T12:18:07.651Z</time>
      </trkpt>
      <trkpt lat="46.93655" lon="8.69616">
        <ele>1713</ele>
        <time>2021-08-06T12:18:08.652Z</time>
      </trkpt>
      <trkpt lat="46.93655" lon="8.69616">
        <ele>1712</ele>
        <time>2021-08-06T12:18:09.652Z</time>
      </trkpt>
      <trkpt lat="46.93654" lon="8.69615">
        <ele>1712</ele>
        <time>2021-08-06T12:18:10.651Z</time>
      </trkpt>
      <trkpt lat="46.93654" lon="8.69616">
        <ele>1712</ele>
        <time>2021-08-06T12:18:11.651Z</time>
      </trkpt>
      <trkpt lat="46.93653" lon="8.69617">
        <ele>1712</ele>
        <time>2021-08-06T12:18:12.652Z</time>
      </trkpt>
      <trkpt lat="46.93652" lon="8.69617">
        <ele>1712</ele>
        <time>2021-08-06T12:18:13.651Z</time>
      </trkpt>
      <trkpt lat="46.93651" lon="8.69617">
        <ele>1712</ele>
        <time>2021-08-06T12:18:14.652Z</time>
      </trkpt>
      <trkpt lat="46.9365" lon="8.69618">
        <ele>1711</ele>
        <time>2021-08-06T12:18:15.652Z</time>
      </trkpt>
      <trkpt lat="46.9365" lon="8.69617">
        <ele>1710</ele>
        <time>2021-08-06T12:18:16.651Z</time>
      </trkpt>
      <trkpt lat="46.93649" lon="8.69617">
        <ele>1710</ele>
        <time>2021-08-06T12:18:17.652Z</time>
      </trkpt>
      <trkpt lat="46.93649" lon="8.69618">
        <ele>1709</ele>
        <time>2021-08-06T12:18:18.652Z</time>
      </trkpt>
      <trkpt lat="46.93648" lon="8.69618">
        <ele>1709</ele>
        <time>2021-08-06T12:18:19.652Z</time>
      </trkpt>
      <trkpt lat="46.93648" lon="8.69618">
        <ele>1709</ele>
        <time>2021-08-06T12:18:20.652Z</time>
      </trkpt>
      <trkpt lat="46.93648" lon="8.69617">
        <ele>1708</ele>
        <time>2021-08-06T12:18:21.652Z</time>
      </trkpt>
      <trkpt lat="46.93648" lon="8.69617">
        <ele>1708</ele>
        <time>2021-08-06T12:18:22.651Z</time>
      </trkpt>
      <trkpt lat="46.93647" lon="8.69616">
        <ele>1707</ele>
        <time>2021-08-06T12:18:23.652Z</time>
      </trkpt>
      <trkpt lat="46.93647" lon="8.69616">
        <ele>1706</ele>
        <time>2021-08-06T12:18:24.652Z</time>
      </trkpt>
      <trkpt lat="46.93647" lon="8.69616">
        <ele>1706</ele>
        <time>2021-08-06T12:18:25.652Z</time>
      </trkpt>
      <trkpt lat="46.93646" lon="8.69615">
        <ele>1705</ele>
        <time>2021-08-06T12:18:26.652Z</time>
      </trkpt>
      <trkpt lat="46.93645" lon="8.69615">
        <ele>1705</ele>
        <time>2021-08-06T12:18:27.652Z</time>
      </trkpt>
      <trkpt lat="46.93645" lon="8.69614">
        <ele>1704</ele>
        <time>2021-08-06T12:18:28.652Z</time>
      </trkpt>
      <trkpt lat="46.93644" lon="8.69613">
        <ele>1704</ele>
        <time>2021-08-06T12:18:29.652Z</time>
      </trkpt>
      <trkpt lat="46.93643" lon="8.69613">
        <ele>1704</ele>
        <time>2021-08-06T12:18:30.651Z</time>
      </trkpt>
      <trkpt lat="46.93643" lon="8.69612">
        <ele>1704</ele>
        <time>2021-08-06T12:18:31.652Z</time>
      </trkpt>
      <trkpt lat="46.93642" lon="8.69611">
        <ele>1704</ele>
        <time>2021-08-06T12:18:32.651Z</time>
      </trkpt>
      <trkpt lat="46.93641" lon="8.6961">
        <ele>1704</ele>
        <time>2021-08-06T12:18:33.652Z</time>
      </trkpt>
      <trkpt lat="46.9364" lon="8.69609">
        <ele>1704</ele>
        <time>2021-08-06T12:18:34.652Z</time>
      </trkpt>
      <trkpt lat="46.93639" lon="8.69609">
        <ele>1705</ele>
        <time>2021-08-06T12:18:35.652Z</time>
      </trkpt>
      <trkpt lat="46.93639" lon="8.69608">
        <ele>1705</ele>
        <time>2021-08-06T12:18:36.652Z</time>
      </trkpt>
      <trkpt lat="46.93638" lon="8.69607">
        <ele>1705</ele>
        <time>2021-08-06T12:18:37.651Z</time>
      </trkpt>
      <trkpt lat="46.93638" lon="8.69607">
        <ele>1706</ele>
        <time>2021-08-06T12:18:38.652Z</time>
      </trkpt>
      <trkpt lat="46.93637" lon="8.69606">
        <ele>1706</ele>
        <time>2021-08-06T12:18:39.652Z</time>
      </trkpt>
      <trkpt lat="46.93636" lon="8.69605">
        <ele>1707</ele>
        <time>2021-08-06T12:18:40.651Z</time>
      </trkpt>
      <trkpt lat="46.93636" lon="8.69604">
        <ele>1707</ele>
        <time>2021-08-06T12:18:41.652Z</time>
      </trkpt>
      <trkpt lat="46.93635" lon="8.69604">
        <ele>1707</ele>
        <time>2021-08-06T12:18:42.652Z</time>
      </trkpt>
      <trkpt lat="46.93634" lon="8.69603">
        <ele>1707</ele>
        <time>2021-08-06T12:18:43.652Z</time>
      </trkpt>
      <trkpt lat="46.93633" lon="8.69603">
        <ele>1707</ele>
        <time>2021-08-06T12:18:44.652Z</time>
      </trkpt>
      <trkpt lat="46.93632" lon="8.69604">
        <ele>1707</ele>
        <time>2021-08-06T12:18:45.652Z</time>
      </trkpt>
      <trkpt lat="46.93632" lon="8.69603">
        <ele>1707</ele>
        <time>2021-08-06T12:18:46.651Z</time>
      </trkpt>
      <trkpt lat="46.93632" lon="8.69602">
        <ele>1707</ele>
        <time>2021-08-06T12:18:47.652Z</time>
      </trkpt>
      <trkpt lat="46.93632" lon="8.69603">
        <ele>1707</ele>
        <time>2021-08-06T12:18:48.652Z</time>
      </trkpt>
      <trkpt lat="46.93634" lon="8.69608">
        <ele>1705</ele>
        <time>2021-08-06T12:18:49.651Z</time>
      </trkpt>
      <trkpt lat="46.93634" lon="8.69608">
        <ele>1704</ele>
        <time>2021-08-06T12:18:50.652Z</time>
      </trkpt>
      <trkpt lat="46.93633" lon="8.69608">
        <ele>1704</ele>
        <time>2021-08-06T12:18:51.651Z</time>
      </trkpt>
      <trkpt lat="46.93633" lon="8.69607">
        <ele>1704</ele>
        <time>2021-08-06T12:18:52.652Z</time>
      </trkpt>
      <trkpt lat="46.93633" lon="8.69606">
        <ele>1704</ele>
        <time>2021-08-06T12:18:53.652Z</time>
      </trkpt>
      <trkpt lat="46.93632" lon="8.69604">
        <ele>1704</ele>
        <time>2021-08-06T12:18:54.651Z</time>
      </trkpt>
      <trkpt lat="46.93632" lon="8.69603">
        <ele>1705</ele>
        <time>2021-08-06T12:18:55.651Z</time>
      </trkpt>
      <trkpt lat="46.93631" lon="8.69602">
        <ele>1705</ele>
        <time>2021-08-06T12:18:56.651Z</time>
      </trkpt>
      <trkpt lat="46.9363" lon="8.69601">
        <ele>1705</ele>
        <time>2021-08-06T12:18:57.651Z</time>
      </trkpt>
      <trkpt lat="46.93629" lon="8.696">
        <ele>1706</ele>
        <time>2021-08-06T12:18:58.651Z</time>
      </trkpt>
      <trkpt lat="46.93629" lon="8.69599">
        <ele>1706</ele>
        <time>2021-08-06T12:18:59.651Z</time>
      </trkpt>
      <trkpt lat="46.93628" lon="8.69598">
        <ele>1707</ele>
        <time>2021-08-06T12:19:00.651Z</time>
      </trkpt>
      <trkpt lat="46.93627" lon="8.69597">
        <ele>1707</ele>
        <time>2021-08-06T12:19:01.652Z</time>
      </trkpt>
      <trkpt lat="46.93626" lon="8.69596">
        <ele>1708</ele>
        <time>2021-08-06T12:19:02.652Z</time>
      </trkpt>
      <trkpt lat="46.93626" lon="8.69595">
        <ele>1708</ele>
        <time>2021-08-06T12:19:03.652Z</time>
      </trkpt>
      <trkpt lat="46.93626" lon="8.69595">
        <ele>1708</ele>
        <time>2021-08-06T12:19:04.652Z</time>
      </trkpt>
      <trkpt lat="46.93626" lon="8.69595">
        <ele>1708</ele>
        <time>2021-08-06T12:19:05.652Z</time>
      </trkpt>
      <trkpt lat="46.93625" lon="8.69595">
        <ele>1708</ele>
        <time>2021-08-06T12:19:06.652Z</time>
      </trkpt>
      <trkpt lat="46.93624" lon="8.69594">
        <ele>1708</ele>
        <time>2021-08-06T12:19:07.652Z</time>
      </trkpt>
      <trkpt lat="46.93624" lon="8.69594">
        <ele>1708</ele>
        <time>2021-08-06T12:19:08.651Z</time>
      </trkpt>
      <trkpt lat="46.93623" lon="8.69594">
        <ele>1708</ele>
        <time>2021-08-06T12:19:09.651Z</time>
      </trkpt>
      <trkpt lat="46.93622" lon="8.69594">
        <ele>1708</ele>
        <time>2021-08-06T12:19:10.652Z</time>
      </trkpt>
      <trkpt lat="46.93621" lon="8.69593">
        <ele>1708</ele>
        <time>2021-08-06T12:19:11.651Z</time>
      </trkpt>
      <trkpt lat="46.9362" lon="8.69593">
        <ele>1709</ele>
        <time>2021-08-06T12:19:12.652Z</time>
      </trkpt>
      <trkpt lat="46.9362" lon="8.69592">
        <ele>1709</ele>
        <time>2021-08-06T12:19:13.652Z</time>
      </trkpt>
      <trkpt lat="46.93619" lon="8.69591">
        <ele>1709</ele>
        <time>2021-08-06T12:19:14.652Z</time>
      </trkpt>
      <trkpt lat="46.93619" lon="8.6959">
        <ele>1708</ele>
        <time>2021-08-06T12:19:15.652Z</time>
      </trkpt>
      <trkpt lat="46.93618" lon="8.69589">
        <ele>1708</ele>
        <time>2021-08-06T12:19:16.651Z</time>
      </trkpt>
      <trkpt lat="46.93617" lon="8.69588">
        <ele>1708</ele>
        <time>2021-08-06T12:19:17.652Z</time>
      </trkpt>
      <trkpt lat="46.93616" lon="8.69587">
        <ele>1708</ele>
        <time>2021-08-06T12:19:18.652Z</time>
      </trkpt>
      <trkpt lat="46.93615" lon="8.69587">
        <ele>1708</ele>
        <time>2021-08-06T12:19:19.651Z</time>
      </trkpt>
      <trkpt lat="46.93614" lon="8.69586">
        <ele>1707</ele>
        <time>2021-08-06T12:19:20.651Z</time>
      </trkpt>
      <trkpt lat="46.93613" lon="8.69586">
        <ele>1707</ele>
        <time>2021-08-06T12:19:21.651Z</time>
      </trkpt>
      <trkpt lat="46.93612" lon="8.69586">
        <ele>1707</ele>
        <time>2021-08-06T12:19:22.652Z</time>
      </trkpt>
      <trkpt lat="46.93611" lon="8.69585">
        <ele>1707</ele>
        <time>2021-08-06T12:19:23.652Z</time>
      </trkpt>
      <trkpt lat="46.93611" lon="8.69584">
        <ele>1707</ele>
        <time>2021-08-06T12:19:24.651Z</time>
      </trkpt>
      <trkpt lat="46.93611" lon="8.69584">
        <ele>1707</ele>
        <time>2021-08-06T12:19:25.652Z</time>
      </trkpt>
      <trkpt lat="46.93611" lon="8.69583">
        <ele>1708</ele>
        <time>2021-08-06T12:19:26.651Z</time>
      </trkpt>
      <trkpt lat="46.9361" lon="8.69582">
        <ele>1708</ele>
        <time>2021-08-06T12:19:27.652Z</time>
      </trkpt>
      <trkpt lat="46.93609" lon="8.69582">
        <ele>1709</ele>
        <time>2021-08-06T12:19:28.652Z</time>
      </trkpt>
      <trkpt lat="46.93609" lon="8.69581">
        <ele>1708</ele>
        <time>2021-08-06T12:19:29.652Z</time>
      </trkpt>
      <trkpt lat="46.93608" lon="8.6958">
        <ele>1708</ele>
        <time>2021-08-06T12:19:30.652Z</time>
      </trkpt>
      <trkpt lat="46.93607" lon="8.69579">
        <ele>1708</ele>
        <time>2021-08-06T12:19:31.651Z</time>
      </trkpt>
      <trkpt lat="46.93605" lon="8.69579">
        <ele>1708</ele>
        <time>2021-08-06T12:19:32.651Z</time>
      </trkpt>
      <trkpt lat="46.93604" lon="8.69579">
        <ele>1708</ele>
        <time>2021-08-06T12:19:33.652Z</time>
      </trkpt>
      <trkpt lat="46.93604" lon="8.69578">
        <ele>1707</ele>
        <time>2021-08-06T12:19:34.652Z</time>
      </trkpt>
      <trkpt lat="46.93603" lon="8.69577">
        <ele>1707</ele>
        <time>2021-08-06T12:19:35.652Z</time>
      </trkpt>
      <trkpt lat="46.93602" lon="8.69577">
        <ele>1707</ele>
        <time>2021-08-06T12:19:36.651Z</time>
      </trkpt>
      <trkpt lat="46.93601" lon="8.69577">
        <ele>1708</ele>
        <time>2021-08-06T12:19:37.652Z</time>
      </trkpt>
      <trkpt lat="46.936" lon="8.69577">
        <ele>1708</ele>
        <time>2021-08-06T12:19:38.652Z</time>
      </trkpt>
      <trkpt lat="46.936" lon="8.69576">
        <ele>1708</ele>
        <time>2021-08-06T12:19:39.652Z</time>
      </trkpt>
      <trkpt lat="46.93599" lon="8.69576">
        <ele>1708</ele>
        <time>2021-08-06T12:19:40.651Z</time>
      </trkpt>
      <trkpt lat="46.93599" lon="8.69575">
        <ele>1708</ele>
        <time>2021-08-06T12:19:41.652Z</time>
      </trkpt>
      <trkpt lat="46.93598" lon="8.69575">
        <ele>1709</ele>
        <time>2021-08-06T12:19:42.652Z</time>
      </trkpt>
      <trkpt lat="46.93598" lon="8.69574">
        <ele>1709</ele>
        <time>2021-08-06T12:19:43.652Z</time>
      </trkpt>
      <trkpt lat="46.93597" lon="8.69574">
        <ele>1709</ele>
        <time>2021-08-06T12:19:44.652Z</time>
      </trkpt>
      <trkpt lat="46.93597" lon="8.69575">
        <ele>1709</ele>
        <time>2021-08-06T12:19:45.651Z</time>
      </trkpt>
      <trkpt lat="46.93596" lon="8.69575">
        <ele>1709</ele>
        <time>2021-08-06T12:19:46.652Z</time>
      </trkpt>
      <trkpt lat="46.93596" lon="8.69575">
        <ele>1709</ele>
        <time>2021-08-06T12:19:47.652Z</time>
      </trkpt>
      <trkpt lat="46.93595" lon="8.69576">
        <ele>1710</ele>
        <time>2021-08-06T12:19:48.652Z</time>
      </trkpt>
      <trkpt lat="46.93594" lon="8.69575">
        <ele>1710</ele>
        <time>2021-08-06T12:19:49.652Z</time>
      </trkpt>
      <trkpt lat="46.93593" lon="8.69574">
        <ele>1710</ele>
        <time>2021-08-06T12:19:50.651Z</time>
      </trkpt>
      <trkpt lat="46.93593" lon="8.69575">
        <ele>1711</ele>
        <time>2021-08-06T12:19:51.652Z</time>
      </trkpt>
      <trkpt lat="46.93592" lon="8.69575">
        <ele>1711</ele>
        <time>2021-08-06T12:19:52.651Z</time>
      </trkpt>
      <trkpt lat="46.93592" lon="8.69575">
        <ele>1711</ele>
        <time>2021-08-06T12:19:53.651Z</time>
      </trkpt>
      <trkpt lat="46.93591" lon="8.69575">
        <ele>1712</ele>
        <time>2021-08-06T12:19:54.652Z</time>
      </trkpt>
      <trkpt lat="46.9359" lon="8.69575">
        <ele>1712</ele>
        <time>2021-08-06T12:19:55.652Z</time>
      </trkpt>
      <trkpt lat="46.93589" lon="8.69575">
        <ele>1713</ele>
        <time>2021-08-06T12:19:56.652Z</time>
      </trkpt>
      <trkpt lat="46.93589" lon="8.69575">
        <ele>1713</ele>
        <time>2021-08-06T12:19:57.652Z</time>
      </trkpt>
      <trkpt lat="46.93588" lon="8.69575">
        <ele>1714</ele>
        <time>2021-08-06T12:19:58.652Z</time>
      </trkpt>
      <trkpt lat="46.93588" lon="8.69575">
        <ele>1714</ele>
        <time>2021-08-06T12:19:59.652Z</time>
      </trkpt>
      <trkpt lat="46.93587" lon="8.69575">
        <ele>1714</ele>
        <time>2021-08-06T12:20:00.652Z</time>
      </trkpt>
      <trkpt lat="46.93587" lon="8.69575">
        <ele>1715</ele>
        <time>2021-08-06T12:20:01.652Z</time>
      </trkpt>
      <trkpt lat="46.93587" lon="8.69575">
        <ele>1716</ele>
        <time>2021-08-06T12:20:02.652Z</time>
      </trkpt>
      <trkpt lat="46.93586" lon="8.69575">
        <ele>1716</ele>
        <time>2021-08-06T12:20:03.652Z</time>
      </trkpt>
      <trkpt lat="46.93586" lon="8.69575">
        <ele>1717</ele>
        <time>2021-08-06T12:20:04.651Z</time>
      </trkpt>
      <trkpt lat="46.93585" lon="8.69575">
        <ele>1717</ele>
        <time>2021-08-06T12:20:05.652Z</time>
      </trkpt>
      <trkpt lat="46.93585" lon="8.69576">
        <ele>1718</ele>
        <time>2021-08-06T12:20:06.652Z</time>
      </trkpt>
      <trkpt lat="46.93584" lon="8.69577">
        <ele>1718</ele>
        <time>2021-08-06T12:20:07.652Z</time>
      </trkpt>
      <trkpt lat="46.93583" lon="8.69578">
        <ele>1718</ele>
        <time>2021-08-06T12:20:08.652Z</time>
      </trkpt>
      <trkpt lat="46.93583" lon="8.69579">
        <ele>1717</ele>
        <time>2021-08-06T12:20:09.652Z</time>
      </trkpt>
      <trkpt lat="46.93582" lon="8.69579">
        <ele>1717</ele>
        <time>2021-08-06T12:20:10.652Z</time>
      </trkpt>
      <trkpt lat="46.93582" lon="8.69579">
        <ele>1717</ele>
        <time>2021-08-06T12:20:11.652Z</time>
      </trkpt>
      <trkpt lat="46.93582" lon="8.69579">
        <ele>1717</ele>
        <time>2021-08-06T12:20:12.652Z</time>
      </trkpt>
      <trkpt lat="46.93581" lon="8.69579">
        <ele>1717</ele>
        <time>2021-08-06T12:20:13.651Z</time>
      </trkpt>
      <trkpt lat="46.93581" lon="8.69579">
        <ele>1716</ele>
        <time>2021-08-06T12:20:14.652Z</time>
      </trkpt>
      <trkpt lat="46.93581" lon="8.69578">
        <ele>1716</ele>
        <time>2021-08-06T12:20:15.652Z</time>
      </trkpt>
      <trkpt lat="46.9358" lon="8.69578">
        <ele>1716</ele>
        <time>2021-08-06T12:20:16.651Z</time>
      </trkpt>
      <trkpt lat="46.9358" lon="8.69578">
        <ele>1716</ele>
        <time>2021-08-06T12:20:17.651Z</time>
      </trkpt>
      <trkpt lat="46.9358" lon="8.69577">
        <ele>1716</ele>
        <time>2021-08-06T12:20:18.652Z</time>
      </trkpt>
      <trkpt lat="46.9358" lon="8.69577">
        <ele>1717</ele>
        <time>2021-08-06T12:20:19.652Z</time>
      </trkpt>
      <trkpt lat="46.9358" lon="8.69576">
        <ele>1717</ele>
        <time>2021-08-06T12:20:20.652Z</time>
      </trkpt>
      <trkpt lat="46.9358" lon="8.69575">
        <ele>1717</ele>
        <time>2021-08-06T12:20:21.652Z</time>
      </trkpt>
      <trkpt lat="46.93579" lon="8.69575">
        <ele>1717</ele>
        <time>2021-08-06T12:20:22.652Z</time>
      </trkpt>
      <trkpt lat="46.93579" lon="8.69574">
        <ele>1717</ele>
        <time>2021-08-06T12:20:23.652Z</time>
      </trkpt>
      <trkpt lat="46.93579" lon="8.69573">
        <ele>1717</ele>
        <time>2021-08-06T12:20:24.651Z</time>
      </trkpt>
      <trkpt lat="46.93579" lon="8.69572">
        <ele>1718</ele>
        <time>2021-08-06T12:20:25.651Z</time>
      </trkpt>
      <trkpt lat="46.93579" lon="8.69572">
        <ele>1718</ele>
        <time>2021-08-06T12:20:26.652Z</time>
      </trkpt>
      <trkpt lat="46.93579" lon="8.69571">
        <ele>1718</ele>
        <time>2021-08-06T12:20:27.652Z</time>
      </trkpt>
      <trkpt lat="46.93579" lon="8.69571">
        <ele>1718</ele>
        <time>2021-08-06T12:20:28.652Z</time>
      </trkpt>
      <trkpt lat="46.93579" lon="8.6957">
        <ele>1718</ele>
        <time>2021-08-06T12:20:29.652Z</time>
      </trkpt>
      <trkpt lat="46.93579" lon="8.69569">
        <ele>1718</ele>
        <time>2021-08-06T12:20:30.652Z</time>
      </trkpt>
      <trkpt lat="46.93579" lon="8.69569">
        <ele>1718</ele>
        <time>2021-08-06T12:20:31.652Z</time>
      </trkpt>
      <trkpt lat="46.93579" lon="8.69569">
        <ele>1719</ele>
        <time>2021-08-06T12:20:32.651Z</time>
      </trkpt>
      <trkpt lat="46.9358" lon="8.69569">
        <ele>1719</ele>
        <time>2021-08-06T12:20:33.652Z</time>
      </trkpt>
      <trkpt lat="46.93581" lon="8.69568">
        <ele>1719</ele>
        <time>2021-08-06T12:20:34.652Z</time>
      </trkpt>
      <trkpt lat="46.93581" lon="8.69568">
        <ele>1719</ele>
        <time>2021-08-06T12:20:35.651Z</time>
      </trkpt>
      <trkpt lat="46.93581" lon="8.69567">
        <ele>1720</ele>
        <time>2021-08-06T12:20:36.652Z</time>
      </trkpt>
      <trkpt lat="46.93581" lon="8.69566">
        <ele>1720</ele>
        <time>2021-08-06T12:20:37.651Z</time>
      </trkpt>
      <trkpt lat="46.93581" lon="8.69565">
        <ele>1720</ele>
        <time>2021-08-06T12:20:38.651Z</time>
      </trkpt>
      <trkpt lat="46.93581" lon="8.69564">
        <ele>1720</ele>
        <time>2021-08-06T12:20:39.652Z</time>
      </trkpt>
      <trkpt lat="46.93581" lon="8.69563">
        <ele>1720</ele>
        <time>2021-08-06T12:20:40.651Z</time>
      </trkpt>
      <trkpt lat="46.93581" lon="8.69562">
        <ele>1721</ele>
        <time>2021-08-06T12:20:41.652Z</time>
      </trkpt>
      <trkpt lat="46.9358" lon="8.6956">
        <ele>1721</ele>
        <time>2021-08-06T12:20:42.651Z</time>
      </trkpt>
      <trkpt lat="46.9358" lon="8.69559">
        <ele>1721</ele>
        <time>2021-08-06T12:20:43.652Z</time>
      </trkpt>
      <trkpt lat="46.9358" lon="8.69558">
        <ele>1722</ele>
        <time>2021-08-06T12:20:44.652Z</time>
      </trkpt>
      <trkpt lat="46.9358" lon="8.69557">
        <ele>1722</ele>
        <time>2021-08-06T12:20:45.652Z</time>
      </trkpt>
      <trkpt lat="46.9358" lon="8.69557">
        <ele>1722</ele>
        <time>2021-08-06T12:20:46.652Z</time>
      </trkpt>
      <trkpt lat="46.9358" lon="8.69557">
        <ele>1722</ele>
        <time>2021-08-06T12:20:47.652Z</time>
      </trkpt>
      <trkpt lat="46.93579" lon="8.69558">
        <ele>1723</ele>
        <time>2021-08-06T12:20:48.652Z</time>
      </trkpt>
      <trkpt lat="46.93578" lon="8.69558">
        <ele>1723</ele>
        <time>2021-08-06T12:20:49.652Z</time>
      </trkpt>
      <trkpt lat="46.93577" lon="8.69558">
        <ele>1723</ele>
        <time>2021-08-06T12:20:50.652Z</time>
      </trkpt>
      <trkpt lat="46.93577" lon="8.69557">
        <ele>1723</ele>
        <time>2021-08-06T12:20:51.652Z</time>
      </trkpt>
      <trkpt lat="46.93576" lon="8.69556">
        <ele>1723</ele>
        <time>2021-08-06T12:20:52.651Z</time>
      </trkpt>
      <trkpt lat="46.93576" lon="8.69556">
        <ele>1723</ele>
        <time>2021-08-06T12:20:53.651Z</time>
      </trkpt>
      <trkpt lat="46.93575" lon="8.69555">
        <ele>1723</ele>
        <time>2021-08-06T12:20:54.651Z</time>
      </trkpt>
      <trkpt lat="46.93574" lon="8.69555">
        <ele>1723</ele>
        <time>2021-08-06T12:20:55.652Z</time>
      </trkpt>
      <trkpt lat="46.93574" lon="8.69556">
        <ele>1723</ele>
        <time>2021-08-06T12:20:56.651Z</time>
      </trkpt>
      <trkpt lat="46.93574" lon="8.69556">
        <ele>1723</ele>
        <time>2021-08-06T12:20:57.652Z</time>
      </trkpt>
      <trkpt lat="46.93573" lon="8.69556">
        <ele>1722</ele>
        <time>2021-08-06T12:20:58.653Z</time>
      </trkpt>
      <trkpt lat="46.93572" lon="8.69555">
        <ele>1722</ele>
        <time>2021-08-06T12:20:59.652Z</time>
      </trkpt>
      <trkpt lat="46.93571" lon="8.69554">
        <ele>1722</ele>
        <time>2021-08-06T12:21:00.652Z</time>
      </trkpt>
      <trkpt lat="46.9357" lon="8.69552">
        <ele>1722</ele>
        <time>2021-08-06T12:21:01.653Z</time>
      </trkpt>
      <trkpt lat="46.9357" lon="8.69551">
        <ele>1723</ele>
        <time>2021-08-06T12:21:02.652Z</time>
      </trkpt>
      <trkpt lat="46.93569" lon="8.69551">
        <ele>1723</ele>
        <time>2021-08-06T12:21:03.653Z</time>
      </trkpt>
      <trkpt lat="46.93569" lon="8.6955">
        <ele>1724</ele>
        <time>2021-08-06T12:21:04.653Z</time>
      </trkpt>
      <trkpt lat="46.93568" lon="8.69549">
        <ele>1724</ele>
        <time>2021-08-06T12:21:05.653Z</time>
      </trkpt>
      <trkpt lat="46.93567" lon="8.69548">
        <ele>1725</ele>
        <time>2021-08-06T12:21:06.652Z</time>
      </trkpt>
      <trkpt lat="46.93566" lon="8.69547">
        <ele>1725</ele>
        <time>2021-08-06T12:21:07.653Z</time>
      </trkpt>
      <trkpt lat="46.93566" lon="8.69546">
        <ele>1726</ele>
        <time>2021-08-06T12:21:08.653Z</time>
      </trkpt>
      <trkpt lat="46.93565" lon="8.69545">
        <ele>1726</ele>
        <time>2021-08-06T12:21:09.653Z</time>
      </trkpt>
      <trkpt lat="46.93564" lon="8.69544">
        <ele>1726</ele>
        <time>2021-08-06T12:21:10.653Z</time>
      </trkpt>
      <trkpt lat="46.93564" lon="8.69544">
        <ele>1726</ele>
        <time>2021-08-06T12:21:11.652Z</time>
      </trkpt>
      <trkpt lat="46.93563" lon="8.69543">
        <ele>1726</ele>
        <time>2021-08-06T12:21:12.653Z</time>
      </trkpt>
      <trkpt lat="46.93563" lon="8.69543">
        <ele>1726</ele>
        <time>2021-08-06T12:21:13.653Z</time>
      </trkpt>
      <trkpt lat="46.93562" lon="8.69543">
        <ele>1726</ele>
        <time>2021-08-06T12:21:14.652Z</time>
      </trkpt>
      <trkpt lat="46.93561" lon="8.69543">
        <ele>1726</ele>
        <time>2021-08-06T12:21:15.653Z</time>
      </trkpt>
      <trkpt lat="46.9356" lon="8.69542">
        <ele>1727</ele>
        <time>2021-08-06T12:21:16.652Z</time>
      </trkpt>
      <trkpt lat="46.93559" lon="8.69541">
        <ele>1727</ele>
        <time>2021-08-06T12:21:17.653Z</time>
      </trkpt>
      <trkpt lat="46.93559" lon="8.69541">
        <ele>1727</ele>
        <time>2021-08-06T12:21:18.653Z</time>
      </trkpt>
      <trkpt lat="46.93558" lon="8.69541">
        <ele>1728</ele>
        <time>2021-08-06T12:21:20.710Z</time>
      </trkpt>
      <trkpt lat="46.93557" lon="8.69541">
        <ele>1728</ele>
        <time>2021-08-06T12:21:21.711Z</time>
      </trkpt>
      <trkpt lat="46.93557" lon="8.6954">
        <ele>1728</ele>
        <time>2021-08-06T12:21:22.710Z</time>
      </trkpt>
      <trkpt lat="46.93556" lon="8.6954">
        <ele>1729</ele>
        <time>2021-08-06T12:21:23.710Z</time>
      </trkpt>
      <trkpt lat="46.93555" lon="8.69539">
        <ele>1729</ele>
        <time>2021-08-06T12:21:24.711Z</time>
      </trkpt>
      <trkpt lat="46.93554" lon="8.69538">
        <ele>1729</ele>
        <time>2021-08-06T12:21:25.710Z</time>
      </trkpt>
      <trkpt lat="46.93553" lon="8.69537">
        <ele>1730</ele>
        <time>2021-08-06T12:21:26.710Z</time>
      </trkpt>
      <trkpt lat="46.93552" lon="8.69537">
        <ele>1730</ele>
        <time>2021-08-06T12:21:27.710Z</time>
      </trkpt>
      <trkpt lat="46.93551" lon="8.69536">
        <ele>1730</ele>
        <time>2021-08-06T12:21:28.710Z</time>
      </trkpt>
      <trkpt lat="46.9355" lon="8.69535">
        <ele>1730</ele>
        <time>2021-08-06T12:21:29.711Z</time>
      </trkpt>
      <trkpt lat="46.9355" lon="8.69535">
        <ele>1730</ele>
        <time>2021-08-06T12:21:30.710Z</time>
      </trkpt>
      <trkpt lat="46.93549" lon="8.69534">
        <ele>1731</ele>
        <time>2021-08-06T12:21:31.710Z</time>
      </trkpt>
      <trkpt lat="46.93548" lon="8.69532">
        <ele>1731</ele>
        <time>2021-08-06T12:21:32.710Z</time>
      </trkpt>
      <trkpt lat="46.93547" lon="8.6953">
        <ele>1731</ele>
        <time>2021-08-06T12:21:33.710Z</time>
      </trkpt>
      <trkpt lat="46.93546" lon="8.69529">
        <ele>1732</ele>
        <time>2021-08-06T12:21:34.711Z</time>
      </trkpt>
      <trkpt lat="46.93545" lon="8.69528">
        <ele>1732</ele>
        <time>2021-08-06T12:21:35.710Z</time>
      </trkpt>
      <trkpt lat="46.93544" lon="8.69528">
        <ele>1733</ele>
        <time>2021-08-06T12:21:36.711Z</time>
      </trkpt>
      <trkpt lat="46.93544" lon="8.69527">
        <ele>1733</ele>
        <time>2021-08-06T12:21:37.710Z</time>
      </trkpt>
      <trkpt lat="46.93543" lon="8.69527">
        <ele>1733</ele>
        <time>2021-08-06T12:21:38.711Z</time>
      </trkpt>
      <trkpt lat="46.93542" lon="8.69526">
        <ele>1734</ele>
        <time>2021-08-06T12:21:39.711Z</time>
      </trkpt>
      <trkpt lat="46.93541" lon="8.69526">
        <ele>1734</ele>
        <time>2021-08-06T12:21:40.711Z</time>
      </trkpt>
      <trkpt lat="46.9354" lon="8.69526">
        <ele>1734</ele>
        <time>2021-08-06T12:21:41.710Z</time>
      </trkpt>
      <trkpt lat="46.9354" lon="8.69525">
        <ele>1734</ele>
        <time>2021-08-06T12:21:42.711Z</time>
      </trkpt>
      <trkpt lat="46.9354" lon="8.69524">
        <ele>1734</ele>
        <time>2021-08-06T12:21:43.711Z</time>
      </trkpt>
      <trkpt lat="46.93539" lon="8.69523">
        <ele>1734</ele>
        <time>2021-08-06T12:21:44.711Z</time>
      </trkpt>
      <trkpt lat="46.93539" lon="8.69523">
        <ele>1734</ele>
        <time>2021-08-06T12:21:45.711Z</time>
      </trkpt>
      <trkpt lat="46.93538" lon="8.69524">
        <ele>1734</ele>
        <time>2021-08-06T12:21:46.711Z</time>
      </trkpt>
      <trkpt lat="46.93537" lon="8.69523">
        <ele>1734</ele>
        <time>2021-08-06T12:21:47.710Z</time>
      </trkpt>
      <trkpt lat="46.93537" lon="8.69524">
        <ele>1734</ele>
        <time>2021-08-06T12:21:48.711Z</time>
      </trkpt>
      <trkpt lat="46.93536" lon="8.69524">
        <ele>1734</ele>
        <time>2021-08-06T12:21:49.710Z</time>
      </trkpt>
      <trkpt lat="46.93535" lon="8.69524">
        <ele>1734</ele>
        <time>2021-08-06T12:21:50.711Z</time>
      </trkpt>
      <trkpt lat="46.93534" lon="8.69523">
        <ele>1734</ele>
        <time>2021-08-06T12:21:51.711Z</time>
      </trkpt>
      <trkpt lat="46.93534" lon="8.69522">
        <ele>1734</ele>
        <time>2021-08-06T12:21:52.711Z</time>
      </trkpt>
      <trkpt lat="46.93534" lon="8.69521">
        <ele>1734</ele>
        <time>2021-08-06T12:21:53.711Z</time>
      </trkpt>
      <trkpt lat="46.93533" lon="8.69521">
        <ele>1734</ele>
        <time>2021-08-06T12:21:54.711Z</time>
      </trkpt>
      <trkpt lat="46.93534" lon="8.69521">
        <ele>1734</ele>
        <time>2021-08-06T12:21:55.711Z</time>
      </trkpt>
      <trkpt lat="46.93533" lon="8.69519">
        <ele>1735</ele>
        <time>2021-08-06T12:21:56.711Z</time>
      </trkpt>
      <trkpt lat="46.93532" lon="8.69517">
        <ele>1735</ele>
        <time>2021-08-06T12:21:57.711Z</time>
      </trkpt>
      <trkpt lat="46.93531" lon="8.69517">
        <ele>1735</ele>
        <time>2021-08-06T12:21:58.711Z</time>
      </trkpt>
      <trkpt lat="46.9353" lon="8.69516">
        <ele>1734</ele>
        <time>2021-08-06T12:21:59.710Z</time>
      </trkpt>
      <trkpt lat="46.93529" lon="8.69516">
        <ele>1734</ele>
        <time>2021-08-06T12:22:00.711Z</time>
      </trkpt>
      <trkpt lat="46.93528" lon="8.69516">
        <ele>1734</ele>
        <time>2021-08-06T12:22:01.711Z</time>
      </trkpt>
      <trkpt lat="46.93528" lon="8.69515">
        <ele>1734</ele>
        <time>2021-08-06T12:22:02.710Z</time>
      </trkpt>
      <trkpt lat="46.93527" lon="8.69515">
        <ele>1734</ele>
        <time>2021-08-06T12:22:03.711Z</time>
      </trkpt>
      <trkpt lat="46.93526" lon="8.69514">
        <ele>1734</ele>
        <time>2021-08-06T12:22:04.710Z</time>
      </trkpt>
      <trkpt lat="46.93526" lon="8.69513">
        <ele>1733</ele>
        <time>2021-08-06T12:22:05.711Z</time>
      </trkpt>
      <trkpt lat="46.93525" lon="8.69511">
        <ele>1733</ele>
        <time>2021-08-06T12:22:06.711Z</time>
      </trkpt>
      <trkpt lat="46.93525" lon="8.6951">
        <ele>1733</ele>
        <time>2021-08-06T12:22:07.710Z</time>
      </trkpt>
      <trkpt lat="46.93525" lon="8.69509">
        <ele>1733</ele>
        <time>2021-08-06T12:22:08.711Z</time>
      </trkpt>
      <trkpt lat="46.93524" lon="8.69508">
        <ele>1733</ele>
        <time>2021-08-06T12:22:09.711Z</time>
      </trkpt>
      <trkpt lat="46.93523" lon="8.69507">
        <ele>1733</ele>
        <time>2021-08-06T12:22:10.710Z</time>
      </trkpt>
      <trkpt lat="46.93523" lon="8.69506">
        <ele>1732</ele>
        <time>2021-08-06T12:22:11.711Z</time>
      </trkpt>
      <trkpt lat="46.93523" lon="8.69504">
        <ele>1732</ele>
        <time>2021-08-06T12:22:12.711Z</time>
      </trkpt>
      <trkpt lat="46.93523" lon="8.69503">
        <ele>1732</ele>
        <time>2021-08-06T12:22:13.711Z</time>
      </trkpt>
      <trkpt lat="46.93522" lon="8.69501">
        <ele>1732</ele>
        <time>2021-08-06T12:22:14.711Z</time>
      </trkpt>
      <trkpt lat="46.93522" lon="8.695">
        <ele>1732</ele>
        <time>2021-08-06T12:22:15.711Z</time>
      </trkpt>
      <trkpt lat="46.93521" lon="8.69499">
        <ele>1732</ele>
        <time>2021-08-06T12:22:16.711Z</time>
      </trkpt>
      <trkpt lat="46.93521" lon="8.69497">
        <ele>1732</ele>
        <time>2021-08-06T12:22:17.711Z</time>
      </trkpt>
      <trkpt lat="46.93521" lon="8.69494">
        <ele>1732</ele>
        <time>2021-08-06T12:22:18.711Z</time>
      </trkpt>
      <trkpt lat="46.9352" lon="8.69493">
        <ele>1732</ele>
        <time>2021-08-06T12:22:19.711Z</time>
      </trkpt>
      <trkpt lat="46.9352" lon="8.69492">
        <ele>1732</ele>
        <time>2021-08-06T12:22:20.711Z</time>
      </trkpt>
      <trkpt lat="46.9352" lon="8.69491">
        <ele>1732</ele>
        <time>2021-08-06T12:22:21.710Z</time>
      </trkpt>
      <trkpt lat="46.93521" lon="8.6949">
        <ele>1732</ele>
        <time>2021-08-06T12:22:22.711Z</time>
      </trkpt>
      <trkpt lat="46.9352" lon="8.69489">
        <ele>1732</ele>
        <time>2021-08-06T12:22:23.711Z</time>
      </trkpt>
      <trkpt lat="46.9352" lon="8.69489">
        <ele>1732</ele>
        <time>2021-08-06T12:22:24.710Z</time>
      </trkpt>
      <trkpt lat="46.93519" lon="8.69489">
        <ele>1732</ele>
        <time>2021-08-06T12:22:25.711Z</time>
      </trkpt>
      <trkpt lat="46.93519" lon="8.69489">
        <ele>1733</ele>
        <time>2021-08-06T12:22:26.711Z</time>
      </trkpt>
      <trkpt lat="46.93518" lon="8.69487">
        <ele>1733</ele>
        <time>2021-08-06T12:22:27.711Z</time>
      </trkpt>
      <trkpt lat="46.93517" lon="8.69484">
        <ele>1733</ele>
        <time>2021-08-06T12:22:28.711Z</time>
      </trkpt>
      <trkpt lat="46.93517" lon="8.69483">
        <ele>1733</ele>
        <time>2021-08-06T12:22:29.711Z</time>
      </trkpt>
      <trkpt lat="46.93517" lon="8.69481">
        <ele>1734</ele>
        <time>2021-08-06T12:22:30.711Z</time>
      </trkpt>
      <trkpt lat="46.93518" lon="8.6948">
        <ele>1734</ele>
        <time>2021-08-06T12:22:31.710Z</time>
      </trkpt>
      <trkpt lat="46.93517" lon="8.69479">
        <ele>1734</ele>
        <time>2021-08-06T12:22:32.710Z</time>
      </trkpt>
      <trkpt lat="46.93516" lon="8.69478">
        <ele>1734</ele>
        <time>2021-08-06T12:22:33.710Z</time>
      </trkpt>
      <trkpt lat="46.93515" lon="8.69477">
        <ele>1734</ele>
        <time>2021-08-06T12:22:34.711Z</time>
      </trkpt>
      <trkpt lat="46.93514" lon="8.69476">
        <ele>1733</ele>
        <time>2021-08-06T12:22:35.710Z</time>
      </trkpt>
      <trkpt lat="46.93513" lon="8.69475">
        <ele>1733</ele>
        <time>2021-08-06T12:22:36.710Z</time>
      </trkpt>
      <trkpt lat="46.93512" lon="8.69475">
        <ele>1733</ele>
        <time>2021-08-06T12:22:37.710Z</time>
      </trkpt>
      <trkpt lat="46.93512" lon="8.69474">
        <ele>1733</ele>
        <time>2021-08-06T12:22:38.710Z</time>
      </trkpt>
      <trkpt lat="46.93511" lon="8.69474">
        <ele>1733</ele>
        <time>2021-08-06T12:22:39.711Z</time>
      </trkpt>
      <trkpt lat="46.93511" lon="8.69473">
        <ele>1733</ele>
        <time>2021-08-06T12:22:40.710Z</time>
      </trkpt>
      <trkpt lat="46.9351" lon="8.69472">
        <ele>1733</ele>
        <time>2021-08-06T12:22:41.711Z</time>
      </trkpt>
      <trkpt lat="46.93509" lon="8.69472">
        <ele>1733</ele>
        <time>2021-08-06T12:22:42.711Z</time>
      </trkpt>
      <trkpt lat="46.93508" lon="8.69471">
        <ele>1733</ele>
        <time>2021-08-06T12:22:43.711Z</time>
      </trkpt>
      <trkpt lat="46.93507" lon="8.6947">
        <ele>1734</ele>
        <time>2021-08-06T12:22:44.710Z</time>
      </trkpt>
      <trkpt lat="46.93507" lon="8.6947">
        <ele>1734</ele>
        <time>2021-08-06T12:22:45.710Z</time>
      </trkpt>
      <trkpt lat="46.93506" lon="8.69469">
        <ele>1734</ele>
        <time>2021-08-06T12:22:46.711Z</time>
      </trkpt>
      <trkpt lat="46.93505" lon="8.69467">
        <ele>1734</ele>
        <time>2021-08-06T12:22:47.711Z</time>
      </trkpt>
      <trkpt lat="46.93505" lon="8.69466">
        <ele>1734</ele>
        <time>2021-08-06T12:22:48.711Z</time>
      </trkpt>
      <trkpt lat="46.93504" lon="8.69464">
        <ele>1734</ele>
        <time>2021-08-06T12:22:49.711Z</time>
      </trkpt>
      <trkpt lat="46.93503" lon="8.69462">
        <ele>1734</ele>
        <time>2021-08-06T12:22:50.711Z</time>
      </trkpt>
      <trkpt lat="46.93502" lon="8.69461">
        <ele>1734</ele>
        <time>2021-08-06T12:22:51.711Z</time>
      </trkpt>
      <trkpt lat="46.93502" lon="8.6946">
        <ele>1734</ele>
        <time>2021-08-06T12:22:52.711Z</time>
      </trkpt>
      <trkpt lat="46.93501" lon="8.69458">
        <ele>1734</ele>
        <time>2021-08-06T12:22:53.710Z</time>
      </trkpt>
      <trkpt lat="46.93501" lon="8.69456">
        <ele>1734</ele>
        <time>2021-08-06T12:22:54.711Z</time>
      </trkpt>
      <trkpt lat="46.93501" lon="8.69454">
        <ele>1734</ele>
        <time>2021-08-06T12:22:55.710Z</time>
      </trkpt>
      <trkpt lat="46.93502" lon="8.69453">
        <ele>1734</ele>
        <time>2021-08-06T12:22:56.711Z</time>
      </trkpt>
      <trkpt lat="46.93501" lon="8.69451">
        <ele>1734</ele>
        <time>2021-08-06T12:22:57.710Z</time>
      </trkpt>
      <trkpt lat="46.93499" lon="8.6945">
        <ele>1734</ele>
        <time>2021-08-06T12:22:58.710Z</time>
      </trkpt>
      <trkpt lat="46.93498" lon="8.6945">
        <ele>1734</ele>
        <time>2021-08-06T12:22:59.711Z</time>
      </trkpt>
      <trkpt lat="46.93498" lon="8.69449">
        <ele>1734</ele>
        <time>2021-08-06T12:23:00.711Z</time>
      </trkpt>
      <trkpt lat="46.93497" lon="8.69449">
        <ele>1734</ele>
        <time>2021-08-06T12:23:01.711Z</time>
      </trkpt>
      <trkpt lat="46.93497" lon="8.69448">
        <ele>1734</ele>
        <time>2021-08-06T12:23:02.710Z</time>
      </trkpt>
      <trkpt lat="46.93496" lon="8.69448">
        <ele>1734</ele>
        <time>2021-08-06T12:23:03.710Z</time>
      </trkpt>
      <trkpt lat="46.93495" lon="8.69447">
        <ele>1734</ele>
        <time>2021-08-06T12:23:04.711Z</time>
      </trkpt>
      <trkpt lat="46.93494" lon="8.69446">
        <ele>1733</ele>
        <time>2021-08-06T12:23:05.711Z</time>
      </trkpt>
      <trkpt lat="46.93493" lon="8.69444">
        <ele>1733</ele>
        <time>2021-08-06T12:23:06.711Z</time>
      </trkpt>
      <trkpt lat="46.93492" lon="8.69443">
        <ele>1733</ele>
        <time>2021-08-06T12:23:07.711Z</time>
      </trkpt>
      <trkpt lat="46.93492" lon="8.69442">
        <ele>1733</ele>
        <time>2021-08-06T12:23:08.711Z</time>
      </trkpt>
      <trkpt lat="46.93492" lon="8.6944">
        <ele>1732</ele>
        <time>2021-08-06T12:23:09.710Z</time>
      </trkpt>
      <trkpt lat="46.93492" lon="8.69439">
        <ele>1732</ele>
        <time>2021-08-06T12:23:10.711Z</time>
      </trkpt>
      <trkpt lat="46.93492" lon="8.69438">
        <ele>1732</ele>
        <time>2021-08-06T12:23:11.711Z</time>
      </trkpt>
      <trkpt lat="46.93493" lon="8.69436">
        <ele>1732</ele>
        <time>2021-08-06T12:23:12.711Z</time>
      </trkpt>
      <trkpt lat="46.93493" lon="8.69436">
        <ele>1732</ele>
        <time>2021-08-06T12:23:13.711Z</time>
      </trkpt>
      <trkpt lat="46.93493" lon="8.69435">
        <ele>1732</ele>
        <time>2021-08-06T12:23:14.710Z</time>
      </trkpt>
      <trkpt lat="46.93494" lon="8.69436">
        <ele>1732</ele>
        <time>2021-08-06T12:23:15.710Z</time>
      </trkpt>
      <trkpt lat="46.93494" lon="8.69435">
        <ele>1733</ele>
        <time>2021-08-06T12:23:16.712Z</time>
      </trkpt>
      <trkpt lat="46.93494" lon="8.69434">
        <ele>1733</ele>
        <time>2021-08-06T12:23:17.711Z</time>
      </trkpt>
      <trkpt lat="46.93493" lon="8.69433">
        <ele>1733</ele>
        <time>2021-08-06T12:23:18.711Z</time>
      </trkpt>
      <trkpt lat="46.93493" lon="8.69433">
        <ele>1733</ele>
        <time>2021-08-06T12:23:19.711Z</time>
      </trkpt>
      <trkpt lat="46.93492" lon="8.69433">
        <ele>1733</ele>
        <time>2021-08-06T12:23:20.712Z</time>
      </trkpt>
      <trkpt lat="46.93491" lon="8.69432">
        <ele>1733</ele>
        <time>2021-08-06T12:23:21.712Z</time>
      </trkpt>
      <trkpt lat="46.9349" lon="8.69431">
        <ele>1733</ele>
        <time>2021-08-06T12:23:22.711Z</time>
      </trkpt>
      <trkpt lat="46.9349" lon="8.6943">
        <ele>1733</ele>
        <time>2021-08-06T12:23:23.712Z</time>
      </trkpt>
      <trkpt lat="46.93489" lon="8.69428">
        <ele>1733</ele>
        <time>2021-08-06T12:23:24.712Z</time>
      </trkpt>
      <trkpt lat="46.93488" lon="8.69427">
        <ele>1733</ele>
        <time>2021-08-06T12:23:25.712Z</time>
      </trkpt>
      <trkpt lat="46.93488" lon="8.69426">
        <ele>1733</ele>
        <time>2021-08-06T12:23:26.711Z</time>
      </trkpt>
      <trkpt lat="46.93488" lon="8.69425">
        <ele>1733</ele>
        <time>2021-08-06T12:23:27.712Z</time>
      </trkpt>
      <trkpt lat="46.93488" lon="8.69423">
        <ele>1734</ele>
        <time>2021-08-06T12:23:28.712Z</time>
      </trkpt>
      <trkpt lat="46.93487" lon="8.69422">
        <ele>1734</ele>
        <time>2021-08-06T12:23:29.711Z</time>
      </trkpt>
      <trkpt lat="46.93487" lon="8.69421">
        <ele>1735</ele>
        <time>2021-08-06T12:23:30.712Z</time>
      </trkpt>
      <trkpt lat="46.93487" lon="8.69419">
        <ele>1735</ele>
        <time>2021-08-06T12:23:31.711Z</time>
      </trkpt>
      <trkpt lat="46.93486" lon="8.69417">
        <ele>1735</ele>
        <time>2021-08-06T12:23:32.712Z</time>
      </trkpt>
      <trkpt lat="46.93486" lon="8.69414">
        <ele>1735</ele>
        <time>2021-08-06T12:23:33.712Z</time>
      </trkpt>
      <trkpt lat="46.93485" lon="8.69412">
        <ele>1736</ele>
        <time>2021-08-06T12:23:34.711Z</time>
      </trkpt>
      <trkpt lat="46.93485" lon="8.69411">
        <ele>1736</ele>
        <time>2021-08-06T12:23:35.712Z</time>
      </trkpt>
      <trkpt lat="46.93485" lon="8.6941">
        <ele>1736</ele>
        <time>2021-08-06T12:23:36.711Z</time>
      </trkpt>
      <trkpt lat="46.93485" lon="8.69409">
        <ele>1735</ele>
        <time>2021-08-06T12:23:37.712Z</time>
      </trkpt>
      <trkpt lat="46.93485" lon="8.69408">
        <ele>1735</ele>
        <time>2021-08-06T12:23:38.712Z</time>
      </trkpt>
      <trkpt lat="46.93484" lon="8.69406">
        <ele>1735</ele>
        <time>2021-08-06T12:23:39.712Z</time>
      </trkpt>
      <trkpt lat="46.93484" lon="8.69404">
        <ele>1735</ele>
        <time>2021-08-06T12:23:40.711Z</time>
      </trkpt>
      <trkpt lat="46.93483" lon="8.69403">
        <ele>1734</ele>
        <time>2021-08-06T12:23:41.712Z</time>
      </trkpt>
      <trkpt lat="46.93482" lon="8.69402">
        <ele>1734</ele>
        <time>2021-08-06T12:23:42.712Z</time>
      </trkpt>
      <trkpt lat="46.93481" lon="8.694">
        <ele>1734</ele>
        <time>2021-08-06T12:23:43.711Z</time>
      </trkpt>
      <trkpt lat="46.93481" lon="8.69399">
        <ele>1733</ele>
        <time>2021-08-06T12:23:44.711Z</time>
      </trkpt>
      <trkpt lat="46.9348" lon="8.69397">
        <ele>1733</ele>
        <time>2021-08-06T12:23:45.712Z</time>
      </trkpt>
      <trkpt lat="46.9348" lon="8.69396">
        <ele>1732</ele>
        <time>2021-08-06T12:23:46.711Z</time>
      </trkpt>
      <trkpt lat="46.93479" lon="8.69394">
        <ele>1732</ele>
        <time>2021-08-06T12:23:47.712Z</time>
      </trkpt>
      <trkpt lat="46.93479" lon="8.69392">
        <ele>1732</ele>
        <time>2021-08-06T12:23:48.711Z</time>
      </trkpt>
      <trkpt lat="46.93478" lon="8.69391">
        <ele>1731</ele>
        <time>2021-08-06T12:23:49.711Z</time>
      </trkpt>
      <trkpt lat="46.93477" lon="8.6939">
        <ele>1731</ele>
        <time>2021-08-06T12:23:50.712Z</time>
      </trkpt>
      <trkpt lat="46.93477" lon="8.69389">
        <ele>1731</ele>
        <time>2021-08-06T12:23:51.711Z</time>
      </trkpt>
      <trkpt lat="46.93477" lon="8.69387">
        <ele>1730</ele>
        <time>2021-08-06T12:23:52.711Z</time>
      </trkpt>
      <trkpt lat="46.93477" lon="8.69386">
        <ele>1730</ele>
        <time>2021-08-06T12:23:53.712Z</time>
      </trkpt>
      <trkpt lat="46.93477" lon="8.69385">
        <ele>1730</ele>
        <time>2021-08-06T12:23:54.711Z</time>
      </trkpt>
      <trkpt lat="46.93477" lon="8.69384">
        <ele>1730</ele>
        <time>2021-08-06T12:23:55.712Z</time>
      </trkpt>
      <trkpt lat="46.93477" lon="8.69382">
        <ele>1730</ele>
        <time>2021-08-06T12:23:56.712Z</time>
      </trkpt>
      <trkpt lat="46.93478" lon="8.6938">
        <ele>1731</ele>
        <time>2021-08-06T12:23:57.712Z</time>
      </trkpt>
      <trkpt lat="46.93478" lon="8.69378">
        <ele>1731</ele>
        <time>2021-08-06T12:23:58.712Z</time>
      </trkpt>
      <trkpt lat="46.93479" lon="8.69377">
        <ele>1730</ele>
        <time>2021-08-06T12:23:59.712Z</time>
      </trkpt>
      <trkpt lat="46.93479" lon="8.69375">
        <ele>1730</ele>
        <time>2021-08-06T12:24:00.712Z</time>
      </trkpt>
      <trkpt lat="46.93479" lon="8.69374">
        <ele>1730</ele>
        <time>2021-08-06T12:24:01.712Z</time>
      </trkpt>
      <trkpt lat="46.93479" lon="8.69373">
        <ele>1729</ele>
        <time>2021-08-06T12:24:02.712Z</time>
      </trkpt>
      <trkpt lat="46.93479" lon="8.69371">
        <ele>1729</ele>
        <time>2021-08-06T12:24:03.712Z</time>
      </trkpt>
      <trkpt lat="46.9348" lon="8.6937">
        <ele>1729</ele>
        <time>2021-08-06T12:24:04.711Z</time>
      </trkpt>
      <trkpt lat="46.9348" lon="8.69369">
        <ele>1729</ele>
        <time>2021-08-06T12:24:05.712Z</time>
      </trkpt>
      <trkpt lat="46.93481" lon="8.69368">
        <ele>1729</ele>
        <time>2021-08-06T12:24:06.712Z</time>
      </trkpt>
      <trkpt lat="46.93482" lon="8.69367">
        <ele>1729</ele>
        <time>2021-08-06T12:24:07.712Z</time>
      </trkpt>
      <trkpt lat="46.93482" lon="8.69366">
        <ele>1729</ele>
        <time>2021-08-06T12:24:08.711Z</time>
      </trkpt>
      <trkpt lat="46.93482" lon="8.69364">
        <ele>1729</ele>
        <time>2021-08-06T12:24:09.712Z</time>
      </trkpt>
      <trkpt lat="46.93482" lon="8.69363">
        <ele>1729</ele>
        <time>2021-08-06T12:24:10.712Z</time>
      </trkpt>
      <trkpt lat="46.93482" lon="8.69361">
        <ele>1730</ele>
        <time>2021-08-06T12:24:11.712Z</time>
      </trkpt>
      <trkpt lat="46.93483" lon="8.6936">
        <ele>1730</ele>
        <time>2021-08-06T12:24:12.712Z</time>
      </trkpt>
      <trkpt lat="46.93483" lon="8.6936">
        <ele>1731</ele>
        <time>2021-08-06T12:24:13.712Z</time>
      </trkpt>
      <trkpt lat="46.93482" lon="8.69359">
        <ele>1731</ele>
        <time>2021-08-06T12:24:14.712Z</time>
      </trkpt>
      <trkpt lat="46.93481" lon="8.69357">
        <ele>1732</ele>
        <time>2021-08-06T12:24:15.712Z</time>
      </trkpt>
      <trkpt lat="46.93481" lon="8.69356">
        <ele>1732</ele>
        <time>2021-08-06T12:24:16.711Z</time>
      </trkpt>
      <trkpt lat="46.93482" lon="8.69354">
        <ele>1732</ele>
        <time>2021-08-06T12:24:17.712Z</time>
      </trkpt>
      <trkpt lat="46.93482" lon="8.69354">
        <ele>1732</ele>
        <time>2021-08-06T12:24:18.711Z</time>
      </trkpt>
      <trkpt lat="46.93482" lon="8.69352">
        <ele>1732</ele>
        <time>2021-08-06T12:24:19.712Z</time>
      </trkpt>
      <trkpt lat="46.93482" lon="8.69352">
        <ele>1733</ele>
        <time>2021-08-06T12:24:20.711Z</time>
      </trkpt>
      <trkpt lat="46.93483" lon="8.69351">
        <ele>1733</ele>
        <time>2021-08-06T12:24:21.712Z</time>
      </trkpt>
      <trkpt lat="46.93483" lon="8.6935">
        <ele>1733</ele>
        <time>2021-08-06T12:24:22.712Z</time>
      </trkpt>
      <trkpt lat="46.93483" lon="8.6935">
        <ele>1734</ele>
        <time>2021-08-06T12:24:23.712Z</time>
      </trkpt>
      <trkpt lat="46.93483" lon="8.69348">
        <ele>1734</ele>
        <time>2021-08-06T12:24:24.712Z</time>
      </trkpt>
      <trkpt lat="46.93483" lon="8.69347">
        <ele>1735</ele>
        <time>2021-08-06T12:24:25.712Z</time>
      </trkpt>
      <trkpt lat="46.93484" lon="8.69346">
        <ele>1735</ele>
        <time>2021-08-06T12:24:26.712Z</time>
      </trkpt>
      <trkpt lat="46.93485" lon="8.69345">
        <ele>1736</ele>
        <time>2021-08-06T12:24:27.712Z</time>
      </trkpt>
      <trkpt lat="46.93485" lon="8.69344">
        <ele>1736</ele>
        <time>2021-08-06T12:24:28.712Z</time>
      </trkpt>
      <trkpt lat="46.93486" lon="8.69343">
        <ele>1737</ele>
        <time>2021-08-06T12:24:29.711Z</time>
      </trkpt>
      <trkpt lat="46.93487" lon="8.69341">
        <ele>1737</ele>
        <time>2021-08-06T12:24:30.711Z</time>
      </trkpt>
      <trkpt lat="46.93487" lon="8.6934">
        <ele>1737</ele>
        <time>2021-08-06T12:24:31.711Z</time>
      </trkpt>
      <trkpt lat="46.93488" lon="8.69339">
        <ele>1738</ele>
        <time>2021-08-06T12:24:32.712Z</time>
      </trkpt>
      <trkpt lat="46.93489" lon="8.69338">
        <ele>1738</ele>
        <time>2021-08-06T12:24:33.712Z</time>
      </trkpt>
      <trkpt lat="46.9349" lon="8.69337">
        <ele>1738</ele>
        <time>2021-08-06T12:24:34.711Z</time>
      </trkpt>
      <trkpt lat="46.93491" lon="8.69335">
        <ele>1738</ele>
        <time>2021-08-06T12:24:35.712Z</time>
      </trkpt>
      <trkpt lat="46.93492" lon="8.69334">
        <ele>1738</ele>
        <time>2021-08-06T12:24:36.711Z</time>
      </trkpt>
      <trkpt lat="46.93494" lon="8.69333">
        <ele>1739</ele>
        <time>2021-08-06T12:24:37.712Z</time>
      </trkpt>
      <trkpt lat="46.93496" lon="8.69332">
        <ele>1739</ele>
        <time>2021-08-06T12:24:38.711Z</time>
      </trkpt>
      <trkpt lat="46.93496" lon="8.69331">
        <ele>1739</ele>
        <time>2021-08-06T12:24:39.712Z</time>
      </trkpt>
      <trkpt lat="46.93497" lon="8.6933">
        <ele>1740</ele>
        <time>2021-08-06T12:24:40.711Z</time>
      </trkpt>
      <trkpt lat="46.93497" lon="8.69329">
        <ele>1740</ele>
        <time>2021-08-06T12:24:41.712Z</time>
      </trkpt>
      <trkpt lat="46.93497" lon="8.69328">
        <ele>1740</ele>
        <time>2021-08-06T12:24:42.711Z</time>
      </trkpt>
      <trkpt lat="46.93497" lon="8.69328">
        <ele>1740</ele>
        <time>2021-08-06T12:24:43.712Z</time>
      </trkpt>
      <trkpt lat="46.93497" lon="8.69328">
        <ele>1740</ele>
        <time>2021-08-06T12:24:44.712Z</time>
      </trkpt>
      <trkpt lat="46.93498" lon="8.69328">
        <ele>1740</ele>
        <time>2021-08-06T12:24:45.712Z</time>
      </trkpt>
      <trkpt lat="46.93499" lon="8.69328">
        <ele>1740</ele>
        <time>2021-08-06T12:24:46.712Z</time>
      </trkpt>
      <trkpt lat="46.93499" lon="8.69327">
        <ele>1740</ele>
        <time>2021-08-06T12:24:47.712Z</time>
      </trkpt>
      <trkpt lat="46.935" lon="8.69326">
        <ele>1740</ele>
        <time>2021-08-06T12:24:48.712Z</time>
      </trkpt>
      <trkpt lat="46.93501" lon="8.69325">
        <ele>1740</ele>
        <time>2021-08-06T12:24:49.712Z</time>
      </trkpt>
      <trkpt lat="46.93501" lon="8.69324">
        <ele>1739</ele>
        <time>2021-08-06T12:24:50.711Z</time>
      </trkpt>
      <trkpt lat="46.93501" lon="8.69323">
        <ele>1739</ele>
        <time>2021-08-06T12:24:51.712Z</time>
      </trkpt>
      <trkpt lat="46.93502" lon="8.69322">
        <ele>1739</ele>
        <time>2021-08-06T12:24:52.712Z</time>
      </trkpt>
      <trkpt lat="46.93502" lon="8.69321">
        <ele>1739</ele>
        <time>2021-08-06T12:24:53.712Z</time>
      </trkpt>
      <trkpt lat="46.93503" lon="8.6932">
        <ele>1739</ele>
        <time>2021-08-06T12:24:54.712Z</time>
      </trkpt>
      <trkpt lat="46.93503" lon="8.69319">
        <ele>1739</ele>
        <time>2021-08-06T12:24:55.711Z</time>
      </trkpt>
      <trkpt lat="46.93503" lon="8.69318">
        <ele>1739</ele>
        <time>2021-08-06T12:24:56.712Z</time>
      </trkpt>
      <trkpt lat="46.93502" lon="8.69317">
        <ele>1738</ele>
        <time>2021-08-06T12:24:57.712Z</time>
      </trkpt>
      <trkpt lat="46.93502" lon="8.69315">
        <ele>1738</ele>
        <time>2021-08-06T12:24:58.711Z</time>
      </trkpt>
      <trkpt lat="46.93503" lon="8.69313">
        <ele>1737</ele>
        <time>2021-08-06T12:24:59.712Z</time>
      </trkpt>
      <trkpt lat="46.93504" lon="8.69312">
        <ele>1737</ele>
        <time>2021-08-06T12:25:00.711Z</time>
      </trkpt>
      <trkpt lat="46.93504" lon="8.6931">
        <ele>1737</ele>
        <time>2021-08-06T12:25:01.712Z</time>
      </trkpt>
      <trkpt lat="46.93505" lon="8.69309">
        <ele>1736</ele>
        <time>2021-08-06T12:25:02.712Z</time>
      </trkpt>
      <trkpt lat="46.93505" lon="8.69308">
        <ele>1736</ele>
        <time>2021-08-06T12:25:03.712Z</time>
      </trkpt>
      <trkpt lat="46.93505" lon="8.69306">
        <ele>1736</ele>
        <time>2021-08-06T12:25:04.712Z</time>
      </trkpt>
      <trkpt lat="46.93505" lon="8.69305">
        <ele>1735</ele>
        <time>2021-08-06T12:25:05.711Z</time>
      </trkpt>
      <trkpt lat="46.93505" lon="8.69303">
        <ele>1735</ele>
        <time>2021-08-06T12:25:06.712Z</time>
      </trkpt>
      <trkpt lat="46.93506" lon="8.69302">
        <ele>1735</ele>
        <time>2021-08-06T12:25:07.712Z</time>
      </trkpt>
      <trkpt lat="46.93506" lon="8.69301">
        <ele>1735</ele>
        <time>2021-08-06T12:25:08.712Z</time>
      </trkpt>
      <trkpt lat="46.93506" lon="8.693">
        <ele>1735</ele>
        <time>2021-08-06T12:25:09.712Z</time>
      </trkpt>
      <trkpt lat="46.93506" lon="8.69298">
        <ele>1735</ele>
        <time>2021-08-06T12:25:10.712Z</time>
      </trkpt>
      <trkpt lat="46.93506" lon="8.69297">
        <ele>1735</ele>
        <time>2021-08-06T12:25:11.712Z</time>
      </trkpt>
      <trkpt lat="46.93506" lon="8.69296">
        <ele>1734</ele>
        <time>2021-08-06T12:25:12.711Z</time>
      </trkpt>
      <trkpt lat="46.93507" lon="8.69296">
        <ele>1734</ele>
        <time>2021-08-06T12:25:13.712Z</time>
      </trkpt>
      <trkpt lat="46.93507" lon="8.69295">
        <ele>1734</ele>
        <time>2021-08-06T12:25:14.711Z</time>
      </trkpt>
      <trkpt lat="46.93507" lon="8.69294">
        <ele>1734</ele>
        <time>2021-08-06T12:25:15.712Z</time>
      </trkpt>
      <trkpt lat="46.93507" lon="8.69293">
        <ele>1734</ele>
        <time>2021-08-06T12:25:16.711Z</time>
      </trkpt>
      <trkpt lat="46.93508" lon="8.69292">
        <ele>1734</ele>
        <time>2021-08-06T12:25:17.712Z</time>
      </trkpt>
      <trkpt lat="46.93508" lon="8.69292">
        <ele>1735</ele>
        <time>2021-08-06T12:25:18.712Z</time>
      </trkpt>
      <trkpt lat="46.93508" lon="8.69292">
        <ele>1735</ele>
        <time>2021-08-06T12:25:19.712Z</time>
      </trkpt>
      <trkpt lat="46.93507" lon="8.69291">
        <ele>1735</ele>
        <time>2021-08-06T12:25:20.711Z</time>
      </trkpt>
      <trkpt lat="46.93507" lon="8.69291">
        <ele>1735</ele>
        <time>2021-08-06T12:25:21.711Z</time>
      </trkpt>
      <trkpt lat="46.93507" lon="8.6929">
        <ele>1736</ele>
        <time>2021-08-06T12:25:22.711Z</time>
      </trkpt>
      <trkpt lat="46.93507" lon="8.6929">
        <ele>1736</ele>
        <time>2021-08-06T12:25:23.712Z</time>
      </trkpt>
      <trkpt lat="46.93507" lon="8.69289">
        <ele>1736</ele>
        <time>2021-08-06T12:25:24.711Z</time>
      </trkpt>
      <trkpt lat="46.93507" lon="8.69287">
        <ele>1735</ele>
        <time>2021-08-06T12:25:25.712Z</time>
      </trkpt>
      <trkpt lat="46.93508" lon="8.69287">
        <ele>1735</ele>
        <time>2021-08-06T12:25:26.711Z</time>
      </trkpt>
      <trkpt lat="46.93508" lon="8.69277">
        <ele>1727</ele>
        <time>2021-08-07T06:46:31.592Z</time>
      </trkpt>
      <trkpt lat="46.93508" lon="8.69277">
        <ele>1727</ele>
        <time>2021-08-07T06:46:31.592Z</time>
      </trkpt>
      <trkpt lat="46.93508" lon="8.69277">
        <ele>1727</ele>
        <time>2021-08-07T06:46:31.592Z</time>
      </trkpt>
      <trkpt lat="46.93508" lon="8.69277">
        <ele>1727</ele>
        <time>2021-08-07T06:46:32.592Z</time>
      </trkpt>
      <trkpt lat="46.93508" lon="8.69276">
        <ele>1726</ele>
        <time>2021-08-07T06:46:33.592Z</time>
      </trkpt>
      <trkpt lat="46.93507" lon="8.69277">
        <ele>1726</ele>
        <time>2021-08-07T06:46:34.592Z</time>
      </trkpt>
      <trkpt lat="46.93507" lon="8.69277">
        <ele>1726</ele>
        <time>2021-08-07T06:46:35.592Z</time>
      </trkpt>
      <trkpt lat="46.93507" lon="8.69278">
        <ele>1726</ele>
        <time>2021-08-07T06:46:36.592Z</time>
      </trkpt>
      <trkpt lat="46.93506" lon="8.69279">
        <ele>1726</ele>
        <time>2021-08-07T06:46:37.592Z</time>
      </trkpt>
      <trkpt lat="46.93506" lon="8.6928">
        <ele>1726</ele>
        <time>2021-08-07T06:46:38.592Z</time>
      </trkpt>
      <trkpt lat="46.93505" lon="8.69281">
        <ele>1726</ele>
        <time>2021-08-07T06:46:39.592Z</time>
      </trkpt>
      <trkpt lat="46.93505" lon="8.69281">
        <ele>1726</ele>
        <time>2021-08-07T06:46:40.592Z</time>
      </trkpt>
      <trkpt lat="46.93504" lon="8.69282">
        <ele>1725</ele>
        <time>2021-08-07T06:46:41.592Z</time>
      </trkpt>
      <trkpt lat="46.93503" lon="8.69283">
        <ele>1725</ele>
        <time>2021-08-07T06:46:42.592Z</time>
      </trkpt>
      <trkpt lat="46.93502" lon="8.69284">
        <ele>1725</ele>
        <time>2021-08-07T06:46:43.592Z</time>
      </trkpt>
      <trkpt lat="46.93502" lon="8.69285">
        <ele>1725</ele>
        <time>2021-08-07T06:46:44.592Z</time>
      </trkpt>
      <trkpt lat="46.93502" lon="8.69285">
        <ele>1724</ele>
        <time>2021-08-07T06:46:45.592Z</time>
      </trkpt>
      <trkpt lat="46.93502" lon="8.69285">
        <ele>1724</ele>
        <time>2021-08-07T06:46:46.592Z</time>
      </trkpt>
      <trkpt lat="46.93501" lon="8.69285">
        <ele>1723</ele>
        <time>2021-08-07T06:46:47.592Z</time>
      </trkpt>
      <trkpt lat="46.93501" lon="8.69285">
        <ele>1723</ele>
        <time>2021-08-07T06:46:48.592Z</time>
      </trkpt>
      <trkpt lat="46.93501" lon="8.69284">
        <ele>1722</ele>
        <time>2021-08-07T06:46:49.592Z</time>
      </trkpt>
      <trkpt lat="46.93501" lon="8.69284">
        <ele>1722</ele>
        <time>2021-08-07T06:46:50.592Z</time>
      </trkpt>
      <trkpt lat="46.93501" lon="8.69284">
        <ele>1722</ele>
        <time>2021-08-07T06:46:51.592Z</time>
      </trkpt>
      <trkpt lat="46.93501" lon="8.69284">
        <ele>1722</ele>
        <time>2021-08-07T06:46:52.592Z</time>
      </trkpt>
      <trkpt lat="46.93501" lon="8.69284">
        <ele>1722</ele>
        <time>2021-08-07T06:46:53.592Z</time>
      </trkpt>
      <trkpt lat="46.93501" lon="8.69284">
        <ele>1722</ele>
        <time>2021-08-07T06:46:54.592Z</time>
      </trkpt>
      <trkpt lat="46.93501" lon="8.69284">
        <ele>1722</ele>
        <time>2021-08-07T06:46:55.592Z</time>
      </trkpt>
      <trkpt lat="46.93501" lon="8.69284">
        <ele>1722</ele>
        <time>2021-08-07T06:46:56.592Z</time>
      </trkpt>
      <trkpt lat="46.935" lon="8.69284">
        <ele>1722</ele>
        <time>2021-08-07T06:46:57.592Z</time>
      </trkpt>
      <trkpt lat="46.93501" lon="8.69284">
        <ele>1723</ele>
        <time>2021-08-07T06:46:58.592Z</time>
      </trkpt>
      <trkpt lat="46.93501" lon="8.69284">
        <ele>1724</ele>
        <time>2021-08-07T06:46:59.592Z</time>
      </trkpt>
      <trkpt lat="46.93501" lon="8.69285">
        <ele>1725</ele>
        <time>2021-08-07T06:47:00.592Z</time>
      </trkpt>
      <trkpt lat="46.93502" lon="8.69285">
        <ele>1726</ele>
        <time>2021-08-07T06:47:01.592Z</time>
      </trkpt>
      <trkpt lat="46.93502" lon="8.69285">
        <ele>1726</ele>
        <time>2021-08-07T06:47:02.592Z</time>
      </trkpt>
      <trkpt lat="46.93502" lon="8.69285">
        <ele>1726</ele>
        <time>2021-08-07T06:47:03.592Z</time>
      </trkpt>
      <trkpt lat="46.93501" lon="8.69285">
        <ele>1727</ele>
        <time>2021-08-07T06:47:04.592Z</time>
      </trkpt>
      <trkpt lat="46.93501" lon="8.69285">
        <ele>1727</ele>
        <time>2021-08-07T06:47:05.592Z</time>
      </trkpt>
      <trkpt lat="46.93501" lon="8.69286">
        <ele>1727</ele>
        <time>2021-08-07T06:47:06.592Z</time>
      </trkpt>
      <trkpt lat="46.93501" lon="8.69285">
        <ele>1727</ele>
        <time>2021-08-07T06:47:07.592Z</time>
      </trkpt>
      <trkpt lat="46.935" lon="8.69285">
        <ele>1727</ele>
        <time>2021-08-07T06:47:08.592Z</time>
      </trkpt>
      <trkpt lat="46.935" lon="8.69286">
        <ele>1727</ele>
        <time>2021-08-07T06:47:09.592Z</time>
      </trkpt>
      <trkpt lat="46.935" lon="8.69288">
        <ele>1727</ele>
        <time>2021-08-07T06:47:10.592Z</time>
      </trkpt>
      <trkpt lat="46.935" lon="8.69289">
        <ele>1727</ele>
        <time>2021-08-07T06:47:11.592Z</time>
      </trkpt>
      <trkpt lat="46.935" lon="8.6929">
        <ele>1727</ele>
        <time>2021-08-07T06:47:12.592Z</time>
      </trkpt>
      <trkpt lat="46.935" lon="8.69291">
        <ele>1728</ele>
        <time>2021-08-07T06:47:13.592Z</time>
      </trkpt>
      <trkpt lat="46.935" lon="8.69291">
        <ele>1728</ele>
        <time>2021-08-07T06:47:14.592Z</time>
      </trkpt>
      <trkpt lat="46.93497" lon="8.69289">
        <ele>1727</ele>
        <time>2021-08-07T06:47:15.592Z</time>
      </trkpt>
      <trkpt lat="46.93497" lon="8.69289">
        <ele>1727</ele>
        <time>2021-08-07T06:47:16.592Z</time>
      </trkpt>
      <trkpt lat="46.93496" lon="8.69289">
        <ele>1727</ele>
        <time>2021-08-07T06:47:17.593Z</time>
      </trkpt>
      <trkpt lat="46.93496" lon="8.69289">
        <ele>1726</ele>
        <time>2021-08-07T06:47:18.593Z</time>
      </trkpt>
      <trkpt lat="46.93495" lon="8.69289">
        <ele>1726</ele>
        <time>2021-08-07T06:47:19.592Z</time>
      </trkpt>
      <trkpt lat="46.93494" lon="8.69289">
        <ele>1726</ele>
        <time>2021-08-07T06:47:20.592Z</time>
      </trkpt>
      <trkpt lat="46.93494" lon="8.69289">
        <ele>1726</ele>
        <time>2021-08-07T06:47:21.592Z</time>
      </trkpt>
      <trkpt lat="46.93493" lon="8.69289">
        <ele>1726</ele>
        <time>2021-08-07T06:47:22.592Z</time>
      </trkpt>
      <trkpt lat="46.93493" lon="8.6929">
        <ele>1726</ele>
        <time>2021-08-07T06:47:23.593Z</time>
      </trkpt>
      <trkpt lat="46.93492" lon="8.6929">
        <ele>1726</ele>
        <time>2021-08-07T06:47:24.593Z</time>
      </trkpt>
      <trkpt lat="46.93492" lon="8.6929">
        <ele>1727</ele>
        <time>2021-08-07T06:47:25.593Z</time>
      </trkpt>
      <trkpt lat="46.93492" lon="8.6929">
        <ele>1727</ele>
        <time>2021-08-07T06:47:26.592Z</time>
      </trkpt>
      <trkpt lat="46.93492" lon="8.6929">
        <ele>1726</ele>
        <time>2021-08-07T06:47:27.592Z</time>
      </trkpt>
      <trkpt lat="46.93491" lon="8.6929">
        <ele>1726</ele>
        <time>2021-08-07T06:47:28.592Z</time>
      </trkpt>
      <trkpt lat="46.9349" lon="8.6929">
        <ele>1726</ele>
        <time>2021-08-07T06:47:29.593Z</time>
      </trkpt>
      <trkpt lat="46.9349" lon="8.6929">
        <ele>1726</ele>
        <time>2021-08-07T06:47:30.593Z</time>
      </trkpt>
      <trkpt lat="46.93489" lon="8.69287">
        <ele>1730</ele>
        <time>2021-08-07T06:47:31.594Z</time>
      </trkpt>
      <trkpt lat="46.93489" lon="8.69288">
        <ele>1730</ele>
        <time>2021-08-07T06:47:32.593Z</time>
      </trkpt>
      <trkpt lat="46.93486" lon="8.69289">
        <ele>1730</ele>
        <time>2021-08-07T06:47:33.593Z</time>
      </trkpt>
      <trkpt lat="46.93486" lon="8.69288">
        <ele>1730</ele>
        <time>2021-08-07T06:47:34.594Z</time>
      </trkpt>
      <trkpt lat="46.93486" lon="8.69288">
        <ele>1730</ele>
        <time>2021-08-07T06:47:35.593Z</time>
      </trkpt>
      <trkpt lat="46.93485" lon="8.69288">
        <ele>1730</ele>
        <time>2021-08-07T06:47:36.594Z</time>
      </trkpt>
      <trkpt lat="46.93484" lon="8.69287">
        <ele>1730</ele>
        <time>2021-08-07T06:47:37.594Z</time>
      </trkpt>
      <trkpt lat="46.93484" lon="8.69287">
        <ele>1730</ele>
        <time>2021-08-07T06:47:38.594Z</time>
      </trkpt>
      <trkpt lat="46.93484" lon="8.69286">
        <ele>1730</ele>
        <time>2021-08-07T06:47:39.594Z</time>
      </trkpt>
      <trkpt lat="46.93483" lon="8.69287">
        <ele>1730</ele>
        <time>2021-08-07T06:47:40.594Z</time>
      </trkpt>
      <trkpt lat="46.93483" lon="8.69288">
        <ele>1730</ele>
        <time>2021-08-07T06:47:41.594Z</time>
      </trkpt>
      <trkpt lat="46.93482" lon="8.69288">
        <ele>1730</ele>
        <time>2021-08-07T06:47:42.593Z</time>
      </trkpt>
      <trkpt lat="46.93482" lon="8.69288">
        <ele>1730</ele>
        <time>2021-08-07T06:47:43.593Z</time>
      </trkpt>
      <trkpt lat="46.93481" lon="8.69289">
        <ele>1730</ele>
        <time>2021-08-07T06:47:44.594Z</time>
      </trkpt>
      <trkpt lat="46.9348" lon="8.69289">
        <ele>1731</ele>
        <time>2021-08-07T06:47:45.594Z</time>
      </trkpt>
      <trkpt lat="46.9348" lon="8.69289">
        <ele>1731</ele>
        <time>2021-08-07T06:47:46.594Z</time>
      </trkpt>
      <trkpt lat="46.93479" lon="8.69289">
        <ele>1732</ele>
        <time>2021-08-07T06:47:47.594Z</time>
      </trkpt>
      <trkpt lat="46.93479" lon="8.69289">
        <ele>1732</ele>
        <time>2021-08-07T06:47:48.593Z</time>
      </trkpt>
      <trkpt lat="46.93479" lon="8.69289">
        <ele>1732</ele>
        <time>2021-08-07T06:47:49.594Z</time>
      </trkpt>
      <trkpt lat="46.93478" lon="8.69289">
        <ele>1733</ele>
        <time>2021-08-07T06:47:50.593Z</time>
      </trkpt>
      <trkpt lat="46.93478" lon="8.69289">
        <ele>1733</ele>
        <time>2021-08-07T06:47:51.593Z</time>
      </trkpt>
      <trkpt lat="46.93477" lon="8.69289">
        <ele>1733</ele>
        <time>2021-08-07T06:47:52.594Z</time>
      </trkpt>
      <trkpt lat="46.93477" lon="8.69289">
        <ele>1733</ele>
        <time>2021-08-07T06:47:53.593Z</time>
      </trkpt>
      <trkpt lat="46.93476" lon="8.69289">
        <ele>1733</ele>
        <time>2021-08-07T06:47:54.593Z</time>
      </trkpt>
      <trkpt lat="46.93476" lon="8.6929">
        <ele>1733</ele>
        <time>2021-08-07T06:47:55.594Z</time>
      </trkpt>
      <trkpt lat="46.93475" lon="8.6929">
        <ele>1733</ele>
        <time>2021-08-07T06:47:56.594Z</time>
      </trkpt>
      <trkpt lat="46.93475" lon="8.6929">
        <ele>1733</ele>
        <time>2021-08-07T06:47:57.594Z</time>
      </trkpt>
      <trkpt lat="46.93474" lon="8.69291">
        <ele>1733</ele>
        <time>2021-08-07T06:47:58.594Z</time>
      </trkpt>
      <trkpt lat="46.93473" lon="8.69291">
        <ele>1733</ele>
        <time>2021-08-07T06:47:59.594Z</time>
      </trkpt>
      <trkpt lat="46.93472" lon="8.69291">
        <ele>1733</ele>
        <time>2021-08-07T06:48:00.594Z</time>
      </trkpt>
      <trkpt lat="46.93471" lon="8.69291">
        <ele>1734</ele>
        <time>2021-08-07T06:48:01.594Z</time>
      </trkpt>
      <trkpt lat="46.9347" lon="8.69291">
        <ele>1734</ele>
        <time>2021-08-07T06:48:02.594Z</time>
      </trkpt>
      <trkpt lat="46.93469" lon="8.69291">
        <ele>1734</ele>
        <time>2021-08-07T06:48:03.594Z</time>
      </trkpt>
      <trkpt lat="46.93468" lon="8.69291">
        <ele>1734</ele>
        <time>2021-08-07T06:48:04.593Z</time>
      </trkpt>
      <trkpt lat="46.93466" lon="8.69292">
        <ele>1734</ele>
        <time>2021-08-07T06:48:05.593Z</time>
      </trkpt>
      <trkpt lat="46.93465" lon="8.69292">
        <ele>1735</ele>
        <time>2021-08-07T06:48:06.593Z</time>
      </trkpt>
      <trkpt lat="46.93465" lon="8.69291">
        <ele>1735</ele>
        <time>2021-08-07T06:48:07.593Z</time>
      </trkpt>
      <trkpt lat="46.93464" lon="8.69292">
        <ele>1736</ele>
        <time>2021-08-07T06:48:08.594Z</time>
      </trkpt>
      <trkpt lat="46.93463" lon="8.69292">
        <ele>1736</ele>
        <time>2021-08-07T06:48:09.594Z</time>
      </trkpt>
      <trkpt lat="46.93462" lon="8.69292">
        <ele>1736</ele>
        <time>2021-08-07T06:48:10.594Z</time>
      </trkpt>
      <trkpt lat="46.93461" lon="8.69291">
        <ele>1736</ele>
        <time>2021-08-07T06:48:11.594Z</time>
      </trkpt>
      <trkpt lat="46.93461" lon="8.69291">
        <ele>1737</ele>
        <time>2021-08-07T06:48:12.594Z</time>
      </trkpt>
      <trkpt lat="46.93459" lon="8.69291">
        <ele>1737</ele>
        <time>2021-08-07T06:48:13.594Z</time>
      </trkpt>
      <trkpt lat="46.93459" lon="8.69291">
        <ele>1737</ele>
        <time>2021-08-07T06:48:14.593Z</time>
      </trkpt>
      <trkpt lat="46.93458" lon="8.69291">
        <ele>1737</ele>
        <time>2021-08-07T06:48:15.594Z</time>
      </trkpt>
      <trkpt lat="46.93457" lon="8.6929">
        <ele>1737</ele>
        <time>2021-08-07T06:48:16.594Z</time>
      </trkpt>
      <trkpt lat="46.93457" lon="8.6929">
        <ele>1737</ele>
        <time>2021-08-07T06:48:17.593Z</time>
      </trkpt>
      <trkpt lat="46.93456" lon="8.69289">
        <ele>1737</ele>
        <time>2021-08-07T06:48:18.594Z</time>
      </trkpt>
      <trkpt lat="46.93456" lon="8.69289">
        <ele>1736</ele>
        <time>2021-08-07T06:48:19.594Z</time>
      </trkpt>
      <trkpt lat="46.93456" lon="8.69289">
        <ele>1736</ele>
        <time>2021-08-07T06:48:20.594Z</time>
      </trkpt>
      <trkpt lat="46.93456" lon="8.69288">
        <ele>1736</ele>
        <time>2021-08-07T06:48:21.594Z</time>
      </trkpt>
      <trkpt lat="46.93455" lon="8.69288">
        <ele>1736</ele>
        <time>2021-08-07T06:48:22.594Z</time>
      </trkpt>
      <trkpt lat="46.93455" lon="8.69287">
        <ele>1737</ele>
        <time>2021-08-07T06:48:23.594Z</time>
      </trkpt>
      <trkpt lat="46.93454" lon="8.69286">
        <ele>1737</ele>
        <time>2021-08-07T06:48:24.594Z</time>
      </trkpt>
      <trkpt lat="46.93454" lon="8.69286">
        <ele>1737</ele>
        <time>2021-08-07T06:48:25.594Z</time>
      </trkpt>
      <trkpt lat="46.93454" lon="8.69286">
        <ele>1738</ele>
        <time>2021-08-07T06:48:26.594Z</time>
      </trkpt>
      <trkpt lat="46.93453" lon="8.69286">
        <ele>1738</ele>
        <time>2021-08-07T06:48:27.594Z</time>
      </trkpt>
      <trkpt lat="46.93453" lon="8.69286">
        <ele>1738</ele>
        <time>2021-08-07T06:48:28.594Z</time>
      </trkpt>
      <trkpt lat="46.93452" lon="8.69286">
        <ele>1739</ele>
        <time>2021-08-07T06:48:29.594Z</time>
      </trkpt>
      <trkpt lat="46.93452" lon="8.69286">
        <ele>1739</ele>
        <time>2021-08-07T06:48:30.593Z</time>
      </trkpt>
      <trkpt lat="46.93452" lon="8.69285">
        <ele>1739</ele>
        <time>2021-08-07T06:48:31.594Z</time>
      </trkpt>
      <trkpt lat="46.93452" lon="8.69284">
        <ele>1740</ele>
        <time>2021-08-07T06:48:32.594Z</time>
      </trkpt>
      <trkpt lat="46.93452" lon="8.69283">
        <ele>1740</ele>
        <time>2021-08-07T06:48:33.594Z</time>
      </trkpt>
      <trkpt lat="46.93453" lon="8.69283">
        <ele>1740</ele>
        <time>2021-08-07T06:48:34.594Z</time>
      </trkpt>
      <trkpt lat="46.93453" lon="8.69282">
        <ele>1741</ele>
        <time>2021-08-07T06:48:35.594Z</time>
      </trkpt>
      <trkpt lat="46.93454" lon="8.69281">
        <ele>1741</ele>
        <time>2021-08-07T06:48:36.594Z</time>
      </trkpt>
      <trkpt lat="46.93454" lon="8.6928">
        <ele>1742</ele>
        <time>2021-08-07T06:48:37.594Z</time>
      </trkpt>
      <trkpt lat="46.93454" lon="8.69279">
        <ele>1742</ele>
        <time>2021-08-07T06:48:38.594Z</time>
      </trkpt>
      <trkpt lat="46.93454" lon="8.69278">
        <ele>1742</ele>
        <time>2021-08-07T06:48:39.594Z</time>
      </trkpt>
      <trkpt lat="46.93454" lon="8.69277">
        <ele>1741</ele>
        <time>2021-08-07T06:48:40.594Z</time>
      </trkpt>
      <trkpt lat="46.93454" lon="8.69277">
        <ele>1741</ele>
        <time>2021-08-07T06:48:41.594Z</time>
      </trkpt>
      <trkpt lat="46.93454" lon="8.69276">
        <ele>1740</ele>
        <time>2021-08-07T06:48:42.594Z</time>
      </trkpt>
      <trkpt lat="46.93454" lon="8.69274">
        <ele>1739</ele>
        <time>2021-08-07T06:48:43.594Z</time>
      </trkpt>
      <trkpt lat="46.93453" lon="8.69274">
        <ele>1739</ele>
        <time>2021-08-07T06:48:44.594Z</time>
      </trkpt>
      <trkpt lat="46.93453" lon="8.69273">
        <ele>1739</ele>
        <time>2021-08-07T06:48:45.593Z</time>
      </trkpt>
      <trkpt lat="46.93453" lon="8.69272">
        <ele>1738</ele>
        <time>2021-08-07T06:48:46.593Z</time>
      </trkpt>
      <trkpt lat="46.93453" lon="8.69271">
        <ele>1738</ele>
        <time>2021-08-07T06:48:47.594Z</time>
      </trkpt>
      <trkpt lat="46.93453" lon="8.6927">
        <ele>1738</ele>
        <time>2021-08-07T06:48:48.594Z</time>
      </trkpt>
      <trkpt lat="46.93453" lon="8.69269">
        <ele>1738</ele>
        <time>2021-08-07T06:48:49.594Z</time>
      </trkpt>
      <trkpt lat="46.93453" lon="8.69268">
        <ele>1738</ele>
        <time>2021-08-07T06:48:50.593Z</time>
      </trkpt>
      <trkpt lat="46.93453" lon="8.69267">
        <ele>1738</ele>
        <time>2021-08-07T06:48:51.594Z</time>
      </trkpt>
      <trkpt lat="46.93453" lon="8.69266">
        <ele>1738</ele>
        <time>2021-08-07T06:48:52.594Z</time>
      </trkpt>
      <trkpt lat="46.93453" lon="8.69266">
        <ele>1739</ele>
        <time>2021-08-07T06:48:53.594Z</time>
      </trkpt>
      <trkpt lat="46.93452" lon="8.69265">
        <ele>1740</ele>
        <time>2021-08-07T06:48:54.593Z</time>
      </trkpt>
      <trkpt lat="46.93452" lon="8.69264">
        <ele>1740</ele>
        <time>2021-08-07T06:48:55.593Z</time>
      </trkpt>
      <trkpt lat="46.93452" lon="8.69263">
        <ele>1741</ele>
        <time>2021-08-07T06:48:56.594Z</time>
      </trkpt>
      <trkpt lat="46.93451" lon="8.69262">
        <ele>1741</ele>
        <time>2021-08-07T06:48:57.593Z</time>
      </trkpt>
      <trkpt lat="46.93451" lon="8.69262">
        <ele>1741</ele>
        <time>2021-08-07T06:48:58.593Z</time>
      </trkpt>
      <trkpt lat="46.9345" lon="8.69262">
        <ele>1742</ele>
        <time>2021-08-07T06:48:59.593Z</time>
      </trkpt>
      <trkpt lat="46.93449" lon="8.69261">
        <ele>1743</ele>
        <time>2021-08-07T06:49:00.593Z</time>
      </trkpt>
      <trkpt lat="46.93449" lon="8.69261">
        <ele>1743</ele>
        <time>2021-08-07T06:49:01.593Z</time>
      </trkpt>
      <trkpt lat="46.93449" lon="8.6926">
        <ele>1743</ele>
        <time>2021-08-07T06:49:02.594Z</time>
      </trkpt>
      <trkpt lat="46.93449" lon="8.69259">
        <ele>1743</ele>
        <time>2021-08-07T06:49:03.593Z</time>
      </trkpt>
      <trkpt lat="46.93449" lon="8.69259">
        <ele>1743</ele>
        <time>2021-08-07T06:49:04.593Z</time>
      </trkpt>
      <trkpt lat="46.93448" lon="8.69259">
        <ele>1743</ele>
        <time>2021-08-07T06:49:05.593Z</time>
      </trkpt>
      <trkpt lat="46.93448" lon="8.69259">
        <ele>1743</ele>
        <time>2021-08-07T06:49:06.593Z</time>
      </trkpt>
      <trkpt lat="46.93447" lon="8.69258">
        <ele>1746</ele>
        <time>2021-08-07T06:49:07.594Z</time>
      </trkpt>
      <trkpt lat="46.93446" lon="8.69256">
        <ele>1745</ele>
        <time>2021-08-07T06:49:08.595Z</time>
      </trkpt>
      <trkpt lat="46.93446" lon="8.69255">
        <ele>1745</ele>
        <time>2021-08-07T06:49:09.596Z</time>
      </trkpt>
      <trkpt lat="46.93446" lon="8.69253">
        <ele>1745</ele>
        <time>2021-08-07T06:49:10.596Z</time>
      </trkpt>
      <trkpt lat="46.93446" lon="8.69253">
        <ele>1745</ele>
        <time>2021-08-07T06:49:11.596Z</time>
      </trkpt>
      <trkpt lat="46.93446" lon="8.69252">
        <ele>1745</ele>
        <time>2021-08-07T06:49:12.595Z</time>
      </trkpt>
      <trkpt lat="46.93446" lon="8.6925">
        <ele>1744</ele>
        <time>2021-08-07T06:49:13.595Z</time>
      </trkpt>
      <trkpt lat="46.93446" lon="8.69248">
        <ele>1744</ele>
        <time>2021-08-07T06:49:14.596Z</time>
      </trkpt>
      <trkpt lat="46.93446" lon="8.69247">
        <ele>1744</ele>
        <time>2021-08-07T06:49:15.595Z</time>
      </trkpt>
      <trkpt lat="46.93446" lon="8.69246">
        <ele>1744</ele>
        <time>2021-08-07T06:49:16.596Z</time>
      </trkpt>
      <trkpt lat="46.93447" lon="8.69245">
        <ele>1744</ele>
        <time>2021-08-07T06:49:17.596Z</time>
      </trkpt>
      <trkpt lat="46.93447" lon="8.69245">
        <ele>1744</ele>
        <time>2021-08-07T06:49:18.596Z</time>
      </trkpt>
      <trkpt lat="46.93447" lon="8.69244">
        <ele>1745</ele>
        <time>2021-08-07T06:49:19.595Z</time>
      </trkpt>
      <trkpt lat="46.93447" lon="8.69242">
        <ele>1745</ele>
        <time>2021-08-07T06:49:20.596Z</time>
      </trkpt>
      <trkpt lat="46.93446" lon="8.6924">
        <ele>1746</ele>
        <time>2021-08-07T06:49:21.595Z</time>
      </trkpt>
      <trkpt lat="46.93445" lon="8.69238">
        <ele>1746</ele>
        <time>2021-08-07T06:49:22.595Z</time>
      </trkpt>
      <trkpt lat="46.93444" lon="8.69236">
        <ele>1747</ele>
        <time>2021-08-07T06:49:23.595Z</time>
      </trkpt>
      <trkpt lat="46.93444" lon="8.69234">
        <ele>1747</ele>
        <time>2021-08-07T06:49:24.595Z</time>
      </trkpt>
      <trkpt lat="46.93443" lon="8.69233">
        <ele>1747</ele>
        <time>2021-08-07T06:49:25.595Z</time>
      </trkpt>
      <trkpt lat="46.93442" lon="8.69232">
        <ele>1747</ele>
        <time>2021-08-07T06:49:26.595Z</time>
      </trkpt>
      <trkpt lat="46.93441" lon="8.69231">
        <ele>1747</ele>
        <time>2021-08-07T06:49:27.595Z</time>
      </trkpt>
      <trkpt lat="46.9344" lon="8.6923">
        <ele>1746</ele>
        <time>2021-08-07T06:49:28.596Z</time>
      </trkpt>
      <trkpt lat="46.93439" lon="8.69229">
        <ele>1746</ele>
        <time>2021-08-07T06:49:29.595Z</time>
      </trkpt>
      <trkpt lat="46.93439" lon="8.69228">
        <ele>1745</ele>
        <time>2021-08-07T06:49:30.596Z</time>
      </trkpt>
      <trkpt lat="46.93438" lon="8.69226">
        <ele>1745</ele>
        <time>2021-08-07T06:49:31.595Z</time>
      </trkpt>
      <trkpt lat="46.93437" lon="8.69225">
        <ele>1744</ele>
        <time>2021-08-07T06:49:32.595Z</time>
      </trkpt>
      <trkpt lat="46.93437" lon="8.69224">
        <ele>1744</ele>
        <time>2021-08-07T06:49:33.595Z</time>
      </trkpt>
      <trkpt lat="46.93436" lon="8.69223">
        <ele>1744</ele>
        <time>2021-08-07T06:49:34.595Z</time>
      </trkpt>
      <trkpt lat="46.93435" lon="8.69222">
        <ele>1744</ele>
        <time>2021-08-07T06:49:35.595Z</time>
      </trkpt>
      <trkpt lat="46.93435" lon="8.69221">
        <ele>1744</ele>
        <time>2021-08-07T06:49:36.595Z</time>
      </trkpt>
      <trkpt lat="46.93435" lon="8.69219">
        <ele>1744</ele>
        <time>2021-08-07T06:49:37.595Z</time>
      </trkpt>
      <trkpt lat="46.93434" lon="8.69218">
        <ele>1743</ele>
        <time>2021-08-07T06:49:38.595Z</time>
      </trkpt>
      <trkpt lat="46.93434" lon="8.69217">
        <ele>1743</ele>
        <time>2021-08-07T06:49:39.595Z</time>
      </trkpt>
      <trkpt lat="46.93433" lon="8.69216">
        <ele>1743</ele>
        <time>2021-08-07T06:49:40.595Z</time>
      </trkpt>
      <trkpt lat="46.93433" lon="8.69215">
        <ele>1742</ele>
        <time>2021-08-07T06:49:41.595Z</time>
      </trkpt>
      <trkpt lat="46.93432" lon="8.69214">
        <ele>1742</ele>
        <time>2021-08-07T06:49:42.595Z</time>
      </trkpt>
      <trkpt lat="46.93432" lon="8.69213">
        <ele>1741</ele>
        <time>2021-08-07T06:49:43.595Z</time>
      </trkpt>
      <trkpt lat="46.93431" lon="8.69211">
        <ele>1741</ele>
        <time>2021-08-07T06:49:44.595Z</time>
      </trkpt>
      <trkpt lat="46.93431" lon="8.6921">
        <ele>1741</ele>
        <time>2021-08-07T06:49:45.595Z</time>
      </trkpt>
      <trkpt lat="46.93431" lon="8.69209">
        <ele>1741</ele>
        <time>2021-08-07T06:49:46.595Z</time>
      </trkpt>
      <trkpt lat="46.93431" lon="8.69208">
        <ele>1741</ele>
        <time>2021-08-07T06:49:47.595Z</time>
      </trkpt>
      <trkpt lat="46.93431" lon="8.69207">
        <ele>1741</ele>
        <time>2021-08-07T06:49:48.596Z</time>
      </trkpt>
      <trkpt lat="46.9343" lon="8.69205">
        <ele>1741</ele>
        <time>2021-08-07T06:49:49.596Z</time>
      </trkpt>
      <trkpt lat="46.9343" lon="8.69204">
        <ele>1741</ele>
        <time>2021-08-07T06:49:50.595Z</time>
      </trkpt>
      <trkpt lat="46.9343" lon="8.69203">
        <ele>1741</ele>
        <time>2021-08-07T06:49:51.596Z</time>
      </trkpt>
      <trkpt lat="46.9343" lon="8.69202">
        <ele>1741</ele>
        <time>2021-08-07T06:49:52.595Z</time>
      </trkpt>
      <trkpt lat="46.9343" lon="8.69201">
        <ele>1741</ele>
        <time>2021-08-07T06:49:53.596Z</time>
      </trkpt>
      <trkpt lat="46.93431" lon="8.692">
        <ele>1741</ele>
        <time>2021-08-07T06:49:54.595Z</time>
      </trkpt>
      <trkpt lat="46.93431" lon="8.69199">
        <ele>1741</ele>
        <time>2021-08-07T06:49:55.596Z</time>
      </trkpt>
      <trkpt lat="46.93431" lon="8.69198">
        <ele>1741</ele>
        <time>2021-08-07T06:49:56.596Z</time>
      </trkpt>
      <trkpt lat="46.93431" lon="8.69197">
        <ele>1742</ele>
        <time>2021-08-07T06:49:57.596Z</time>
      </trkpt>
      <trkpt lat="46.93431" lon="8.69196">
        <ele>1742</ele>
        <time>2021-08-07T06:49:58.595Z</time>
      </trkpt>
      <trkpt lat="46.93431" lon="8.69194">
        <ele>1742</ele>
        <time>2021-08-07T06:49:59.595Z</time>
      </trkpt>
      <trkpt lat="46.93431" lon="8.69193">
        <ele>1742</ele>
        <time>2021-08-07T06:50:00.595Z</time>
      </trkpt>
      <trkpt lat="46.9343" lon="8.69192">
        <ele>1743</ele>
        <time>2021-08-07T06:50:01.595Z</time>
      </trkpt>
      <trkpt lat="46.9343" lon="8.6919">
        <ele>1743</ele>
        <time>2021-08-07T06:50:02.595Z</time>
      </trkpt>
      <trkpt lat="46.93429" lon="8.69188">
        <ele>1743</ele>
        <time>2021-08-07T06:50:03.595Z</time>
      </trkpt>
      <trkpt lat="46.93429" lon="8.69187">
        <ele>1743</ele>
        <time>2021-08-07T06:50:04.596Z</time>
      </trkpt>
      <trkpt lat="46.93428" lon="8.69184">
        <ele>1743</ele>
        <time>2021-08-07T06:50:05.595Z</time>
      </trkpt>
      <trkpt lat="46.93428" lon="8.69184">
        <ele>1743</ele>
        <time>2021-08-07T06:50:06.596Z</time>
      </trkpt>
      <trkpt lat="46.93428" lon="8.69182">
        <ele>1744</ele>
        <time>2021-08-07T06:50:07.595Z</time>
      </trkpt>
      <trkpt lat="46.93428" lon="8.6918">
        <ele>1744</ele>
        <time>2021-08-07T06:50:08.596Z</time>
      </trkpt>
      <trkpt lat="46.93427" lon="8.69179">
        <ele>1744</ele>
        <time>2021-08-07T06:50:09.595Z</time>
      </trkpt>
      <trkpt lat="46.93427" lon="8.69178">
        <ele>1745</ele>
        <time>2021-08-07T06:50:10.596Z</time>
      </trkpt>
      <trkpt lat="46.93427" lon="8.69177">
        <ele>1745</ele>
        <time>2021-08-07T06:50:11.596Z</time>
      </trkpt>
      <trkpt lat="46.93427" lon="8.69176">
        <ele>1746</ele>
        <time>2021-08-07T06:50:12.595Z</time>
      </trkpt>
      <trkpt lat="46.93426" lon="8.69175">
        <ele>1746</ele>
        <time>2021-08-07T06:50:13.596Z</time>
      </trkpt>
      <trkpt lat="46.93426" lon="8.69174">
        <ele>1747</ele>
        <time>2021-08-07T06:50:14.595Z</time>
      </trkpt>
      <trkpt lat="46.93426" lon="8.69173">
        <ele>1747</ele>
        <time>2021-08-07T06:50:15.595Z</time>
      </trkpt>
      <trkpt lat="46.93426" lon="8.69171">
        <ele>1746</ele>
        <time>2021-08-07T06:50:16.596Z</time>
      </trkpt>
      <trkpt lat="46.93425" lon="8.69169">
        <ele>1747</ele>
        <time>2021-08-07T06:50:17.595Z</time>
      </trkpt>
      <trkpt lat="46.93425" lon="8.69168">
        <ele>1747</ele>
        <time>2021-08-07T06:50:18.596Z</time>
      </trkpt>
      <trkpt lat="46.93425" lon="8.69167">
        <ele>1747</ele>
        <time>2021-08-07T06:50:19.596Z</time>
      </trkpt>
      <trkpt lat="46.93424" lon="8.69165">
        <ele>1747</ele>
        <time>2021-08-07T06:50:20.595Z</time>
      </trkpt>
      <trkpt lat="46.93424" lon="8.69164">
        <ele>1747</ele>
        <time>2021-08-07T06:50:21.596Z</time>
      </trkpt>
      <trkpt lat="46.93423" lon="8.69163">
        <ele>1747</ele>
        <time>2021-08-07T06:50:22.596Z</time>
      </trkpt>
      <trkpt lat="46.93423" lon="8.69162">
        <ele>1747</ele>
        <time>2021-08-07T06:50:23.596Z</time>
      </trkpt>
      <trkpt lat="46.93422" lon="8.69161">
        <ele>1747</ele>
        <time>2021-08-07T06:50:24.596Z</time>
      </trkpt>
      <trkpt lat="46.93421" lon="8.6916">
        <ele>1747</ele>
        <time>2021-08-07T06:50:25.595Z</time>
      </trkpt>
      <trkpt lat="46.93421" lon="8.69159">
        <ele>1747</ele>
        <time>2021-08-07T06:50:26.596Z</time>
      </trkpt>
      <trkpt lat="46.9342" lon="8.69158">
        <ele>1747</ele>
        <time>2021-08-07T06:50:27.595Z</time>
      </trkpt>
      <trkpt lat="46.9342" lon="8.69157">
        <ele>1746</ele>
        <time>2021-08-07T06:50:28.596Z</time>
      </trkpt>
      <trkpt lat="46.93419" lon="8.69157">
        <ele>1746</ele>
        <time>2021-08-07T06:50:29.596Z</time>
      </trkpt>
      <trkpt lat="46.93419" lon="8.69156">
        <ele>1746</ele>
        <time>2021-08-07T06:50:30.596Z</time>
      </trkpt>
      <trkpt lat="46.93419" lon="8.69155">
        <ele>1746</ele>
        <time>2021-08-07T06:50:31.596Z</time>
      </trkpt>
      <trkpt lat="46.93418" lon="8.69155">
        <ele>1745</ele>
        <time>2021-08-07T06:50:32.595Z</time>
      </trkpt>
      <trkpt lat="46.93418" lon="8.69154">
        <ele>1745</ele>
        <time>2021-08-07T06:50:33.595Z</time>
      </trkpt>
      <trkpt lat="46.93417" lon="8.69154">
        <ele>1745</ele>
        <time>2021-08-07T06:50:34.596Z</time>
      </trkpt>
      <trkpt lat="46.93416" lon="8.69153">
        <ele>1746</ele>
        <time>2021-08-07T06:50:35.595Z</time>
      </trkpt>
      <trkpt lat="46.93415" lon="8.69152">
        <ele>1746</ele>
        <time>2021-08-07T06:50:36.596Z</time>
      </trkpt>
      <trkpt lat="46.93415" lon="8.69151">
        <ele>1746</ele>
        <time>2021-08-07T06:50:37.596Z</time>
      </trkpt>
      <trkpt lat="46.93414" lon="8.6915">
        <ele>1746</ele>
        <time>2021-08-07T06:50:38.596Z</time>
      </trkpt>
      <trkpt lat="46.93413" lon="8.69149">
        <ele>1747</ele>
        <time>2021-08-07T06:50:39.595Z</time>
      </trkpt>
      <trkpt lat="46.93412" lon="8.69149">
        <ele>1747</ele>
        <time>2021-08-07T06:50:40.596Z</time>
      </trkpt>
      <trkpt lat="46.93411" lon="8.69148">
        <ele>1747</ele>
        <time>2021-08-07T06:50:41.596Z</time>
      </trkpt>
      <trkpt lat="46.93411" lon="8.69148">
        <ele>1748</ele>
        <time>2021-08-07T06:50:42.596Z</time>
      </trkpt>
      <trkpt lat="46.9341" lon="8.69147">
        <ele>1748</ele>
        <time>2021-08-07T06:50:43.595Z</time>
      </trkpt>
      <trkpt lat="46.93409" lon="8.69146">
        <ele>1748</ele>
        <time>2021-08-07T06:50:44.596Z</time>
      </trkpt>
      <trkpt lat="46.93409" lon="8.69146">
        <ele>1748</ele>
        <time>2021-08-07T06:50:45.596Z</time>
      </trkpt>
      <trkpt lat="46.93409" lon="8.69145">
        <ele>1748</ele>
        <time>2021-08-07T06:50:46.596Z</time>
      </trkpt>
      <trkpt lat="46.93408" lon="8.69145">
        <ele>1748</ele>
        <time>2021-08-07T06:50:47.596Z</time>
      </trkpt>
      <trkpt lat="46.93408" lon="8.69144">
        <ele>1747</ele>
        <time>2021-08-07T06:50:48.595Z</time>
      </trkpt>
      <trkpt lat="46.93408" lon="8.69144">
        <ele>1747</ele>
        <time>2021-08-07T06:50:49.596Z</time>
      </trkpt>
      <trkpt lat="46.93408" lon="8.69143">
        <ele>1746</ele>
        <time>2021-08-07T06:50:50.596Z</time>
      </trkpt>
      <trkpt lat="46.93407" lon="8.69143">
        <ele>1746</ele>
        <time>2021-08-07T06:50:51.595Z</time>
      </trkpt>
      <trkpt lat="46.93407" lon="8.69142">
        <ele>1746</ele>
        <time>2021-08-07T06:50:52.595Z</time>
      </trkpt>
      <trkpt lat="46.93406" lon="8.69142">
        <ele>1745</ele>
        <time>2021-08-07T06:50:53.595Z</time>
      </trkpt>
      <trkpt lat="46.93406" lon="8.69141">
        <ele>1745</ele>
        <time>2021-08-07T06:50:54.595Z</time>
      </trkpt>
      <trkpt lat="46.93406" lon="8.69141">
        <ele>1745</ele>
        <time>2021-08-07T06:50:55.595Z</time>
      </trkpt>
      <trkpt lat="46.93405" lon="8.6914">
        <ele>1745</ele>
        <time>2021-08-07T06:50:56.596Z</time>
      </trkpt>
      <trkpt lat="46.93404" lon="8.6914">
        <ele>1745</ele>
        <time>2021-08-07T06:50:57.596Z</time>
      </trkpt>
      <trkpt lat="46.93403" lon="8.69139">
        <ele>1746</ele>
        <time>2021-08-07T06:50:58.595Z</time>
      </trkpt>
      <trkpt lat="46.93403" lon="8.69139">
        <ele>1747</ele>
        <time>2021-08-07T06:50:59.595Z</time>
      </trkpt>
      <trkpt lat="46.93402" lon="8.69138">
        <ele>1747</ele>
        <time>2021-08-07T06:51:00.595Z</time>
      </trkpt>
      <trkpt lat="46.93401" lon="8.69138">
        <ele>1748</ele>
        <time>2021-08-07T06:51:01.596Z</time>
      </trkpt>
      <trkpt lat="46.934" lon="8.69137">
        <ele>1749</ele>
        <time>2021-08-07T06:51:02.596Z</time>
      </trkpt>
      <trkpt lat="46.93399" lon="8.69137">
        <ele>1750</ele>
        <time>2021-08-07T06:51:03.596Z</time>
      </trkpt>
      <trkpt lat="46.93398" lon="8.69136">
        <ele>1750</ele>
        <time>2021-08-07T06:51:04.596Z</time>
      </trkpt>
      <trkpt lat="46.93398" lon="8.69136">
        <ele>1750</ele>
        <time>2021-08-07T06:51:05.595Z</time>
      </trkpt>
      <trkpt lat="46.93397" lon="8.69135">
        <ele>1750</ele>
        <time>2021-08-07T06:51:06.596Z</time>
      </trkpt>
      <trkpt lat="46.93396" lon="8.69134">
        <ele>1750</ele>
        <time>2021-08-07T06:51:07.596Z</time>
      </trkpt>
      <trkpt lat="46.93395" lon="8.69134">
        <ele>1750</ele>
        <time>2021-08-07T06:51:08.595Z</time>
      </trkpt>
      <trkpt lat="46.93394" lon="8.69133">
        <ele>1750</ele>
        <time>2021-08-07T06:51:09.595Z</time>
      </trkpt>
      <trkpt lat="46.93393" lon="8.69132">
        <ele>1750</ele>
        <time>2021-08-07T06:51:10.595Z</time>
      </trkpt>
      <trkpt lat="46.93393" lon="8.69132">
        <ele>1749</ele>
        <time>2021-08-07T06:51:11.596Z</time>
      </trkpt>
      <trkpt lat="46.93392" lon="8.69131">
        <ele>1749</ele>
        <time>2021-08-07T06:51:12.596Z</time>
      </trkpt>
      <trkpt lat="46.93391" lon="8.6913">
        <ele>1749</ele>
        <time>2021-08-07T06:51:13.596Z</time>
      </trkpt>
      <trkpt lat="46.9339" lon="8.69129">
        <ele>1750</ele>
        <time>2021-08-07T06:51:14.596Z</time>
      </trkpt>
      <trkpt lat="46.93389" lon="8.69128">
        <ele>1750</ele>
        <time>2021-08-07T06:51:15.596Z</time>
      </trkpt>
      <trkpt lat="46.93389" lon="8.69127">
        <ele>1750</ele>
        <time>2021-08-07T06:51:16.596Z</time>
      </trkpt>
      <trkpt lat="46.93388" lon="8.69127">
        <ele>1750</ele>
        <time>2021-08-07T06:51:17.595Z</time>
      </trkpt>
      <trkpt lat="46.93387" lon="8.69126">
        <ele>1750</ele>
        <time>2021-08-07T06:51:18.596Z</time>
      </trkpt>
      <trkpt lat="46.93387" lon="8.69125">
        <ele>1750</ele>
        <time>2021-08-07T06:51:19.596Z</time>
      </trkpt>
      <trkpt lat="46.93386" lon="8.69125">
        <ele>1750</ele>
        <time>2021-08-07T06:51:20.596Z</time>
      </trkpt>
      <trkpt lat="46.93385" lon="8.69125">
        <ele>1750</ele>
        <time>2021-08-07T06:51:21.596Z</time>
      </trkpt>
      <trkpt lat="46.93385" lon="8.69124">
        <ele>1750</ele>
        <time>2021-08-07T06:51:22.596Z</time>
      </trkpt>
      <trkpt lat="46.93384" lon="8.69124">
        <ele>1750</ele>
        <time>2021-08-07T06:51:23.596Z</time>
      </trkpt>
      <trkpt lat="46.93384" lon="8.69123">
        <ele>1750</ele>
        <time>2021-08-07T06:51:24.596Z</time>
      </trkpt>
      <trkpt lat="46.93383" lon="8.69122">
        <ele>1749</ele>
        <time>2021-08-07T06:51:25.596Z</time>
      </trkpt>
      <trkpt lat="46.93383" lon="8.69121">
        <ele>1749</ele>
        <time>2021-08-07T06:51:26.596Z</time>
      </trkpt>
      <trkpt lat="46.93382" lon="8.6912">
        <ele>1749</ele>
        <time>2021-08-07T06:51:27.596Z</time>
      </trkpt>
      <trkpt lat="46.93381" lon="8.69119">
        <ele>1749</ele>
        <time>2021-08-07T06:51:28.595Z</time>
      </trkpt>
      <trkpt lat="46.93381" lon="8.69118">
        <ele>1749</ele>
        <time>2021-08-07T06:51:29.596Z</time>
      </trkpt>
      <trkpt lat="46.9338" lon="8.69117">
        <ele>1749</ele>
        <time>2021-08-07T06:51:30.596Z</time>
      </trkpt>
      <trkpt lat="46.93379" lon="8.69116">
        <ele>1749</ele>
        <time>2021-08-07T06:51:31.595Z</time>
      </trkpt>
      <trkpt lat="46.93379" lon="8.69114">
        <ele>1748</ele>
        <time>2021-08-07T06:51:32.595Z</time>
      </trkpt>
      <trkpt lat="46.93378" lon="8.69114">
        <ele>1748</ele>
        <time>2021-08-07T06:51:33.596Z</time>
      </trkpt>
      <trkpt lat="46.93377" lon="8.69113">
        <ele>1748</ele>
        <time>2021-08-07T06:51:34.596Z</time>
      </trkpt>
      <trkpt lat="46.93376" lon="8.69112">
        <ele>1748</ele>
        <time>2021-08-07T06:51:35.596Z</time>
      </trkpt>
      <trkpt lat="46.93376" lon="8.69112">
        <ele>1747</ele>
        <time>2021-08-07T06:51:36.595Z</time>
      </trkpt>
      <trkpt lat="46.93375" lon="8.69111">
        <ele>1747</ele>
        <time>2021-08-07T06:51:37.595Z</time>
      </trkpt>
      <trkpt lat="46.93375" lon="8.69111">
        <ele>1747</ele>
        <time>2021-08-07T06:51:38.596Z</time>
      </trkpt>
      <trkpt lat="46.93374" lon="8.6911">
        <ele>1747</ele>
        <time>2021-08-07T06:51:39.596Z</time>
      </trkpt>
      <trkpt lat="46.93373" lon="8.6911">
        <ele>1747</ele>
        <time>2021-08-07T06:51:40.596Z</time>
      </trkpt>
      <trkpt lat="46.93372" lon="8.69109">
        <ele>1747</ele>
        <time>2021-08-07T06:51:41.596Z</time>
      </trkpt>
      <trkpt lat="46.93372" lon="8.69108">
        <ele>1747</ele>
        <time>2021-08-07T06:51:42.596Z</time>
      </trkpt>
      <trkpt lat="46.93371" lon="8.69108">
        <ele>1748</ele>
        <time>2021-08-07T06:51:43.596Z</time>
      </trkpt>
      <trkpt lat="46.9337" lon="8.69107">
        <ele>1747</ele>
        <time>2021-08-07T06:51:44.596Z</time>
      </trkpt>
      <trkpt lat="46.93369" lon="8.69107">
        <ele>1747</ele>
        <time>2021-08-07T06:51:45.596Z</time>
      </trkpt>
      <trkpt lat="46.93368" lon="8.69106">
        <ele>1747</ele>
        <time>2021-08-07T06:51:46.596Z</time>
      </trkpt>
      <trkpt lat="46.93368" lon="8.69106">
        <ele>1747</ele>
        <time>2021-08-07T06:51:47.596Z</time>
      </trkpt>
      <trkpt lat="46.93367" lon="8.69105">
        <ele>1747</ele>
        <time>2021-08-07T06:51:48.596Z</time>
      </trkpt>
      <trkpt lat="46.93366" lon="8.69104">
        <ele>1747</ele>
        <time>2021-08-07T06:51:49.596Z</time>
      </trkpt>
      <trkpt lat="46.93365" lon="8.69104">
        <ele>1747</ele>
        <time>2021-08-07T06:51:50.595Z</time>
      </trkpt>
      <trkpt lat="46.93365" lon="8.69103">
        <ele>1747</ele>
        <time>2021-08-07T06:51:51.596Z</time>
      </trkpt>
      <trkpt lat="46.93364" lon="8.69103">
        <ele>1747</ele>
        <time>2021-08-07T06:51:52.596Z</time>
      </trkpt>
      <trkpt lat="46.93363" lon="8.69103">
        <ele>1747</ele>
        <time>2021-08-07T06:51:53.596Z</time>
      </trkpt>
      <trkpt lat="46.93363" lon="8.69103">
        <ele>1747</ele>
        <time>2021-08-07T06:51:54.596Z</time>
      </trkpt>
      <trkpt lat="46.93362" lon="8.69103">
        <ele>1747</ele>
        <time>2021-08-07T06:51:55.595Z</time>
      </trkpt>
      <trkpt lat="46.93361" lon="8.69103">
        <ele>1748</ele>
        <time>2021-08-07T06:51:56.596Z</time>
      </trkpt>
      <trkpt lat="46.93361" lon="8.69102">
        <ele>1748</ele>
        <time>2021-08-07T06:51:57.596Z</time>
      </trkpt>
      <trkpt lat="46.9336" lon="8.69102">
        <ele>1747</ele>
        <time>2021-08-07T06:51:58.595Z</time>
      </trkpt>
      <trkpt lat="46.93359" lon="8.69102">
        <ele>1747</ele>
        <time>2021-08-07T06:51:59.596Z</time>
      </trkpt>
      <trkpt lat="46.93358" lon="8.69102">
        <ele>1748</ele>
        <time>2021-08-07T06:52:00.596Z</time>
      </trkpt>
      <trkpt lat="46.93358" lon="8.69102">
        <ele>1748</ele>
        <time>2021-08-07T06:52:01.596Z</time>
      </trkpt>
      <trkpt lat="46.93357" lon="8.69102">
        <ele>1748</ele>
        <time>2021-08-07T06:52:02.596Z</time>
      </trkpt>
      <trkpt lat="46.93357" lon="8.69102">
        <ele>1748</ele>
        <time>2021-08-07T06:52:03.595Z</time>
      </trkpt>
      <trkpt lat="46.93356" lon="8.69102">
        <ele>1749</ele>
        <time>2021-08-07T06:52:04.595Z</time>
      </trkpt>
      <trkpt lat="46.93355" lon="8.69102">
        <ele>1749</ele>
        <time>2021-08-07T06:52:05.595Z</time>
      </trkpt>
      <trkpt lat="46.93354" lon="8.69102">
        <ele>1750</ele>
        <time>2021-08-07T06:52:06.595Z</time>
      </trkpt>
      <trkpt lat="46.93353" lon="8.69102">
        <ele>1750</ele>
        <time>2021-08-07T06:52:07.596Z</time>
      </trkpt>
      <trkpt lat="46.93353" lon="8.69102">
        <ele>1750</ele>
        <time>2021-08-07T06:52:08.595Z</time>
      </trkpt>
      <trkpt lat="46.93352" lon="8.69102">
        <ele>1751</ele>
        <time>2021-08-07T06:52:09.596Z</time>
      </trkpt>
      <trkpt lat="46.93351" lon="8.69102">
        <ele>1751</ele>
        <time>2021-08-07T06:52:10.595Z</time>
      </trkpt>
      <trkpt lat="46.93351" lon="8.69102">
        <ele>1751</ele>
        <time>2021-08-07T06:52:11.595Z</time>
      </trkpt>
      <trkpt lat="46.9335" lon="8.69102">
        <ele>1752</ele>
        <time>2021-08-07T06:52:12.596Z</time>
      </trkpt>
      <trkpt lat="46.93349" lon="8.69102">
        <ele>1752</ele>
        <time>2021-08-07T06:52:13.596Z</time>
      </trkpt>
      <trkpt lat="46.93349" lon="8.69102">
        <ele>1753</ele>
        <time>2021-08-07T06:52:14.595Z</time>
      </trkpt>
      <trkpt lat="46.93348" lon="8.69102">
        <ele>1753</ele>
        <time>2021-08-07T06:52:15.596Z</time>
      </trkpt>
      <trkpt lat="46.93347" lon="8.69102">
        <ele>1753</ele>
        <time>2021-08-07T06:52:16.595Z</time>
      </trkpt>
      <trkpt lat="46.93347" lon="8.69102">
        <ele>1753</ele>
        <time>2021-08-07T06:52:17.595Z</time>
      </trkpt>
      <trkpt lat="46.93346" lon="8.69102">
        <ele>1753</ele>
        <time>2021-08-07T06:52:18.595Z</time>
      </trkpt>
      <trkpt lat="46.93344" lon="8.69102">
        <ele>1753</ele>
        <time>2021-08-07T06:52:19.595Z</time>
      </trkpt>
      <trkpt lat="46.93343" lon="8.69102">
        <ele>1753</ele>
        <time>2021-08-07T06:52:20.596Z</time>
      </trkpt>
      <trkpt lat="46.93342" lon="8.69102">
        <ele>1752</ele>
        <time>2021-08-07T06:52:21.596Z</time>
      </trkpt>
      <trkpt lat="46.93341" lon="8.69102">
        <ele>1752</ele>
        <time>2021-08-07T06:52:22.596Z</time>
      </trkpt>
      <trkpt lat="46.93341" lon="8.69102">
        <ele>1751</ele>
        <time>2021-08-07T06:52:23.596Z</time>
      </trkpt>
      <trkpt lat="46.93339" lon="8.69103">
        <ele>1751</ele>
        <time>2021-08-07T06:52:24.596Z</time>
      </trkpt>
      <trkpt lat="46.93338" lon="8.69102">
        <ele>1751</ele>
        <time>2021-08-07T06:52:25.595Z</time>
      </trkpt>
      <trkpt lat="46.93337" lon="8.69102">
        <ele>1751</ele>
        <time>2021-08-07T06:52:26.596Z</time>
      </trkpt>
      <trkpt lat="46.93336" lon="8.69103">
        <ele>1751</ele>
        <time>2021-08-07T06:52:27.596Z</time>
      </trkpt>
      <trkpt lat="46.93336" lon="8.69103">
        <ele>1751</ele>
        <time>2021-08-07T06:52:28.596Z</time>
      </trkpt>
      <trkpt lat="46.93335" lon="8.69103">
        <ele>1751</ele>
        <time>2021-08-07T06:52:29.595Z</time>
      </trkpt>
      <trkpt lat="46.93334" lon="8.69103">
        <ele>1751</ele>
        <time>2021-08-07T06:52:30.595Z</time>
      </trkpt>
      <trkpt lat="46.93333" lon="8.69104">
        <ele>1751</ele>
        <time>2021-08-07T06:52:31.596Z</time>
      </trkpt>
      <trkpt lat="46.93332" lon="8.69103">
        <ele>1751</ele>
        <time>2021-08-07T06:52:32.596Z</time>
      </trkpt>
      <trkpt lat="46.93332" lon="8.69103">
        <ele>1751</ele>
        <time>2021-08-07T06:52:33.595Z</time>
      </trkpt>
      <trkpt lat="46.93331" lon="8.69103">
        <ele>1750</ele>
        <time>2021-08-07T06:52:34.596Z</time>
      </trkpt>
      <trkpt lat="46.9333" lon="8.69103">
        <ele>1751</ele>
        <time>2021-08-07T06:52:35.596Z</time>
      </trkpt>
      <trkpt lat="46.9333" lon="8.69103">
        <ele>1751</ele>
        <time>2021-08-07T06:52:36.595Z</time>
      </trkpt>
      <trkpt lat="46.93329" lon="8.69103">
        <ele>1751</ele>
        <time>2021-08-07T06:52:37.595Z</time>
      </trkpt>
      <trkpt lat="46.93329" lon="8.69103">
        <ele>1751</ele>
        <time>2021-08-07T06:52:38.595Z</time>
      </trkpt>
      <trkpt lat="46.93329" lon="8.69103">
        <ele>1751</ele>
        <time>2021-08-07T06:52:39.596Z</time>
      </trkpt>
      <trkpt lat="46.93328" lon="8.69103">
        <ele>1751</ele>
        <time>2021-08-07T06:52:40.596Z</time>
      </trkpt>
      <trkpt lat="46.93328" lon="8.69103">
        <ele>1751</ele>
        <time>2021-08-07T06:52:41.596Z</time>
      </trkpt>
      <trkpt lat="46.93327" lon="8.69103">
        <ele>1752</ele>
        <time>2021-08-07T06:52:42.596Z</time>
      </trkpt>
      <trkpt lat="46.93327" lon="8.69103">
        <ele>1752</ele>
        <time>2021-08-07T06:52:43.595Z</time>
      </trkpt>
      <trkpt lat="46.93326" lon="8.69103">
        <ele>1752</ele>
        <time>2021-08-07T06:52:44.595Z</time>
      </trkpt>
      <trkpt lat="46.93325" lon="8.69104">
        <ele>1753</ele>
        <time>2021-08-07T06:52:45.595Z</time>
      </trkpt>
      <trkpt lat="46.93325" lon="8.69103">
        <ele>1753</ele>
        <time>2021-08-07T06:52:46.595Z</time>
      </trkpt>
      <trkpt lat="46.93324" lon="8.69103">
        <ele>1753</ele>
        <time>2021-08-07T06:52:47.595Z</time>
      </trkpt>
      <trkpt lat="46.93323" lon="8.69103">
        <ele>1753</ele>
        <time>2021-08-07T06:52:48.596Z</time>
      </trkpt>
      <trkpt lat="46.93323" lon="8.69102">
        <ele>1754</ele>
        <time>2021-08-07T06:52:49.596Z</time>
      </trkpt>
      <trkpt lat="46.93322" lon="8.69102">
        <ele>1754</ele>
        <time>2021-08-07T06:52:50.596Z</time>
      </trkpt>
      <trkpt lat="46.93321" lon="8.69102">
        <ele>1754</ele>
        <time>2021-08-07T06:52:51.596Z</time>
      </trkpt>
      <trkpt lat="46.9332" lon="8.69102">
        <ele>1754</ele>
        <time>2021-08-07T06:52:52.596Z</time>
      </trkpt>
      <trkpt lat="46.93319" lon="8.69102">
        <ele>1755</ele>
        <time>2021-08-07T06:52:53.596Z</time>
      </trkpt>
      <trkpt lat="46.93318" lon="8.69102">
        <ele>1755</ele>
        <time>2021-08-07T06:52:54.595Z</time>
      </trkpt>
      <trkpt lat="46.93318" lon="8.69102">
        <ele>1755</ele>
        <time>2021-08-07T06:52:55.596Z</time>
      </trkpt>
      <trkpt lat="46.93317" lon="8.69102">
        <ele>1756</ele>
        <time>2021-08-07T06:52:56.595Z</time>
      </trkpt>
      <trkpt lat="46.93316" lon="8.69102">
        <ele>1756</ele>
        <time>2021-08-07T06:52:57.596Z</time>
      </trkpt>
      <trkpt lat="46.93315" lon="8.69101">
        <ele>1756</ele>
        <time>2021-08-07T06:52:58.596Z</time>
      </trkpt>
      <trkpt lat="46.93314" lon="8.69101">
        <ele>1756</ele>
        <time>2021-08-07T06:52:59.596Z</time>
      </trkpt>
      <trkpt lat="46.93313" lon="8.69101">
        <ele>1756</ele>
        <time>2021-08-07T06:53:00.596Z</time>
      </trkpt>
      <trkpt lat="46.93312" lon="8.69101">
        <ele>1756</ele>
        <time>2021-08-07T06:53:01.595Z</time>
      </trkpt>
      <trkpt lat="46.93311" lon="8.69101">
        <ele>1756</ele>
        <time>2021-08-07T06:53:02.596Z</time>
      </trkpt>
      <trkpt lat="46.93311" lon="8.69101">
        <ele>1757</ele>
        <time>2021-08-07T06:53:03.596Z</time>
      </trkpt>
      <trkpt lat="46.9331" lon="8.69101">
        <ele>1757</ele>
        <time>2021-08-07T06:53:04.596Z</time>
      </trkpt>
      <trkpt lat="46.93309" lon="8.69101">
        <ele>1757</ele>
        <time>2021-08-07T06:53:05.596Z</time>
      </trkpt>
      <trkpt lat="46.93309" lon="8.69101">
        <ele>1757</ele>
        <time>2021-08-07T06:53:06.595Z</time>
      </trkpt>
      <trkpt lat="46.93308" lon="8.69101">
        <ele>1757</ele>
        <time>2021-08-07T06:53:07.595Z</time>
      </trkpt>
      <trkpt lat="46.93307" lon="8.69101">
        <ele>1757</ele>
        <time>2021-08-07T06:53:08.596Z</time>
      </trkpt>
      <trkpt lat="46.93306" lon="8.69101">
        <ele>1757</ele>
        <time>2021-08-07T06:53:09.596Z</time>
      </trkpt>
      <trkpt lat="46.93306" lon="8.69101">
        <ele>1757</ele>
        <time>2021-08-07T06:53:10.596Z</time>
      </trkpt>
      <trkpt lat="46.93305" lon="8.691">
        <ele>1757</ele>
        <time>2021-08-07T06:53:11.596Z</time>
      </trkpt>
      <trkpt lat="46.93304" lon="8.691">
        <ele>1757</ele>
        <time>2021-08-07T06:53:12.596Z</time>
      </trkpt>
      <trkpt lat="46.93303" lon="8.691">
        <ele>1757</ele>
        <time>2021-08-07T06:53:13.596Z</time>
      </trkpt>
      <trkpt lat="46.93303" lon="8.691">
        <ele>1757</ele>
        <time>2021-08-07T06:53:14.596Z</time>
      </trkpt>
      <trkpt lat="46.93302" lon="8.691">
        <ele>1757</ele>
        <time>2021-08-07T06:53:15.595Z</time>
      </trkpt>
      <trkpt lat="46.93301" lon="8.691">
        <ele>1758</ele>
        <time>2021-08-07T06:53:16.595Z</time>
      </trkpt>
      <trkpt lat="46.933" lon="8.691">
        <ele>1759</ele>
        <time>2021-08-07T06:53:17.596Z</time>
      </trkpt>
      <trkpt lat="46.93299" lon="8.691">
        <ele>1759</ele>
        <time>2021-08-07T06:53:18.596Z</time>
      </trkpt>
      <trkpt lat="46.93298" lon="8.69099">
        <ele>1760</ele>
        <time>2021-08-07T06:53:19.596Z</time>
      </trkpt>
      <trkpt lat="46.93297" lon="8.69099">
        <ele>1760</ele>
        <time>2021-08-07T06:53:20.596Z</time>
      </trkpt>
      <trkpt lat="46.93296" lon="8.69098">
        <ele>1761</ele>
        <time>2021-08-07T06:53:21.596Z</time>
      </trkpt>
      <trkpt lat="46.93295" lon="8.69098">
        <ele>1761</ele>
        <time>2021-08-07T06:53:22.595Z</time>
      </trkpt>
      <trkpt lat="46.93294" lon="8.69097">
        <ele>1761</ele>
        <time>2021-08-07T06:53:23.596Z</time>
      </trkpt>
      <trkpt lat="46.93294" lon="8.69097">
        <ele>1761</ele>
        <time>2021-08-07T06:53:24.596Z</time>
      </trkpt>
      <trkpt lat="46.93293" lon="8.69097">
        <ele>1761</ele>
        <time>2021-08-07T06:53:25.595Z</time>
      </trkpt>
      <trkpt lat="46.93292" lon="8.69097">
        <ele>1761</ele>
        <time>2021-08-07T06:53:26.596Z</time>
      </trkpt>
      <trkpt lat="46.93291" lon="8.69097">
        <ele>1761</ele>
        <time>2021-08-07T06:53:27.596Z</time>
      </trkpt>
      <trkpt lat="46.9329" lon="8.69096">
        <ele>1761</ele>
        <time>2021-08-07T06:53:28.596Z</time>
      </trkpt>
      <trkpt lat="46.9329" lon="8.69096">
        <ele>1762</ele>
        <time>2021-08-07T06:53:29.595Z</time>
      </trkpt>
      <trkpt lat="46.93289" lon="8.69096">
        <ele>1762</ele>
        <time>2021-08-07T06:53:30.595Z</time>
      </trkpt>
      <trkpt lat="46.93288" lon="8.69096">
        <ele>1762</ele>
        <time>2021-08-07T06:53:31.596Z</time>
      </trkpt>
      <trkpt lat="46.93287" lon="8.69095">
        <ele>1762</ele>
        <time>2021-08-07T06:53:32.596Z</time>
      </trkpt>
      <trkpt lat="46.93287" lon="8.69095">
        <ele>1763</ele>
        <time>2021-08-07T06:53:33.596Z</time>
      </trkpt>
      <trkpt lat="46.93286" lon="8.69094">
        <ele>1763</ele>
        <time>2021-08-07T06:53:34.596Z</time>
      </trkpt>
      <trkpt lat="46.93285" lon="8.69093">
        <ele>1763</ele>
        <time>2021-08-07T06:53:35.596Z</time>
      </trkpt>
      <trkpt lat="46.93284" lon="8.69092">
        <ele>1763</ele>
        <time>2021-08-07T06:53:36.596Z</time>
      </trkpt>
      <trkpt lat="46.93283" lon="8.69092">
        <ele>1763</ele>
        <time>2021-08-07T06:53:37.596Z</time>
      </trkpt>
      <trkpt lat="46.93283" lon="8.69091">
        <ele>1762</ele>
        <time>2021-08-07T06:53:38.596Z</time>
      </trkpt>
      <trkpt lat="46.93281" lon="8.69091">
        <ele>1763</ele>
        <time>2021-08-07T06:53:39.595Z</time>
      </trkpt>
      <trkpt lat="46.93281" lon="8.6909">
        <ele>1763</ele>
        <time>2021-08-07T06:53:40.596Z</time>
      </trkpt>
      <trkpt lat="46.9328" lon="8.6909">
        <ele>1763</ele>
        <time>2021-08-07T06:53:41.596Z</time>
      </trkpt>
      <trkpt lat="46.93279" lon="8.69089">
        <ele>1763</ele>
        <time>2021-08-07T06:53:42.596Z</time>
      </trkpt>
      <trkpt lat="46.93278" lon="8.69088">
        <ele>1763</ele>
        <time>2021-08-07T06:53:43.596Z</time>
      </trkpt>
      <trkpt lat="46.93277" lon="8.69088">
        <ele>1764</ele>
        <time>2021-08-07T06:53:44.595Z</time>
      </trkpt>
      <trkpt lat="46.93277" lon="8.69088">
        <ele>1763</ele>
        <time>2021-08-07T06:53:45.596Z</time>
      </trkpt>
      <trkpt lat="46.93276" lon="8.69088">
        <ele>1763</ele>
        <time>2021-08-07T06:53:46.596Z</time>
      </trkpt>
      <trkpt lat="46.93275" lon="8.69088">
        <ele>1763</ele>
        <time>2021-08-07T06:53:47.595Z</time>
      </trkpt>
      <trkpt lat="46.93275" lon="8.69087">
        <ele>1763</ele>
        <time>2021-08-07T06:53:48.595Z</time>
      </trkpt>
      <trkpt lat="46.93274" lon="8.69087">
        <ele>1763</ele>
        <time>2021-08-07T06:53:49.595Z</time>
      </trkpt>
      <trkpt lat="46.93273" lon="8.69087">
        <ele>1763</ele>
        <time>2021-08-07T06:53:50.595Z</time>
      </trkpt>
      <trkpt lat="46.93272" lon="8.69086">
        <ele>1763</ele>
        <time>2021-08-07T06:53:51.595Z</time>
      </trkpt>
      <trkpt lat="46.93271" lon="8.69084">
        <ele>1763</ele>
        <time>2021-08-07T06:53:52.595Z</time>
      </trkpt>
      <trkpt lat="46.93271" lon="8.69083">
        <ele>1763</ele>
        <time>2021-08-07T06:53:53.595Z</time>
      </trkpt>
      <trkpt lat="46.9327" lon="8.69082">
        <ele>1763</ele>
        <time>2021-08-07T06:53:54.596Z</time>
      </trkpt>
      <trkpt lat="46.93269" lon="8.69081">
        <ele>1763</ele>
        <time>2021-08-07T06:53:55.595Z</time>
      </trkpt>
      <trkpt lat="46.93269" lon="8.6908">
        <ele>1762</ele>
        <time>2021-08-07T06:53:56.595Z</time>
      </trkpt>
      <trkpt lat="46.93269" lon="8.6908">
        <ele>1762</ele>
        <time>2021-08-07T06:53:57.595Z</time>
      </trkpt>
      <trkpt lat="46.93268" lon="8.69079">
        <ele>1762</ele>
        <time>2021-08-07T06:53:58.595Z</time>
      </trkpt>
      <trkpt lat="46.93268" lon="8.69078">
        <ele>1761</ele>
        <time>2021-08-07T06:53:59.595Z</time>
      </trkpt>
      <trkpt lat="46.93268" lon="8.69076">
        <ele>1761</ele>
        <time>2021-08-07T06:54:00.595Z</time>
      </trkpt>
      <trkpt lat="46.93268" lon="8.69075">
        <ele>1761</ele>
        <time>2021-08-07T06:54:01.595Z</time>
      </trkpt>
      <trkpt lat="46.93268" lon="8.69074">
        <ele>1761</ele>
        <time>2021-08-07T06:54:02.595Z</time>
      </trkpt>
      <trkpt lat="46.93267" lon="8.69073">
        <ele>1761</ele>
        <time>2021-08-07T06:54:03.595Z</time>
      </trkpt>
      <trkpt lat="46.93266" lon="8.69072">
        <ele>1761</ele>
        <time>2021-08-07T06:54:04.595Z</time>
      </trkpt>
      <trkpt lat="46.93265" lon="8.69071">
        <ele>1761</ele>
        <time>2021-08-07T06:54:05.595Z</time>
      </trkpt>
      <trkpt lat="46.93264" lon="8.6907">
        <ele>1761</ele>
        <time>2021-08-07T06:54:06.595Z</time>
      </trkpt>
      <trkpt lat="46.93263" lon="8.6907">
        <ele>1761</ele>
        <time>2021-08-07T06:54:07.595Z</time>
      </trkpt>
      <trkpt lat="46.93262" lon="8.69069">
        <ele>1761</ele>
        <time>2021-08-07T06:54:08.595Z</time>
      </trkpt>
      <trkpt lat="46.93261" lon="8.69069">
        <ele>1761</ele>
        <time>2021-08-07T06:54:09.595Z</time>
      </trkpt>
      <trkpt lat="46.93261" lon="8.69068">
        <ele>1762</ele>
        <time>2021-08-07T06:54:10.595Z</time>
      </trkpt>
      <trkpt lat="46.9326" lon="8.69068">
        <ele>1762</ele>
        <time>2021-08-07T06:54:11.595Z</time>
      </trkpt>
      <trkpt lat="46.93259" lon="8.69067">
        <ele>1762</ele>
        <time>2021-08-07T06:54:12.595Z</time>
      </trkpt>
      <trkpt lat="46.93259" lon="8.69067">
        <ele>1762</ele>
        <time>2021-08-07T06:54:13.595Z</time>
      </trkpt>
      <trkpt lat="46.93258" lon="8.69066">
        <ele>1762</ele>
        <time>2021-08-07T06:54:14.595Z</time>
      </trkpt>
      <trkpt lat="46.93257" lon="8.69066">
        <ele>1762</ele>
        <time>2021-08-07T06:54:15.595Z</time>
      </trkpt>
      <trkpt lat="46.93257" lon="8.69065">
        <ele>1762</ele>
        <time>2021-08-07T06:54:16.595Z</time>
      </trkpt>
      <trkpt lat="46.93256" lon="8.69065">
        <ele>1762</ele>
        <time>2021-08-07T06:54:17.595Z</time>
      </trkpt>
      <trkpt lat="46.93256" lon="8.69065">
        <ele>1762</ele>
        <time>2021-08-07T06:54:18.595Z</time>
      </trkpt>
      <trkpt lat="46.93255" lon="8.69064">
        <ele>1762</ele>
        <time>2021-08-07T06:54:19.595Z</time>
      </trkpt>
      <trkpt lat="46.93254" lon="8.69064">
        <ele>1762</ele>
        <time>2021-08-07T06:54:20.595Z</time>
      </trkpt>
      <trkpt lat="46.93254" lon="8.69063">
        <ele>1762</ele>
        <time>2021-08-07T06:54:21.596Z</time>
      </trkpt>
      <trkpt lat="46.93253" lon="8.69063">
        <ele>1763</ele>
        <time>2021-08-07T06:54:22.595Z</time>
      </trkpt>
      <trkpt lat="46.93253" lon="8.69063">
        <ele>1763</ele>
        <time>2021-08-07T06:54:23.595Z</time>
      </trkpt>
      <trkpt lat="46.93253" lon="8.69063">
        <ele>1763</ele>
        <time>2021-08-07T06:54:24.595Z</time>
      </trkpt>
      <trkpt lat="46.93253" lon="8.69062">
        <ele>1763</ele>
        <time>2021-08-07T06:54:25.595Z</time>
      </trkpt>
      <trkpt lat="46.93252" lon="8.69062">
        <ele>1764</ele>
        <time>2021-08-07T06:54:26.595Z</time>
      </trkpt>
      <trkpt lat="46.93251" lon="8.6906">
        <ele>1769</ele>
        <time>2021-08-07T06:54:27.595Z</time>
      </trkpt>
      <trkpt lat="46.93251" lon="8.6906">
        <ele>1771</ele>
        <time>2021-08-07T06:54:28.596Z</time>
      </trkpt>
      <trkpt lat="46.93251" lon="8.69061">
        <ele>1772</ele>
        <time>2021-08-07T06:54:29.595Z</time>
      </trkpt>
      <trkpt lat="46.93251" lon="8.69064">
        <ele>1773</ele>
        <time>2021-08-07T06:54:30.596Z</time>
      </trkpt>
      <trkpt lat="46.93251" lon="8.69065">
        <ele>1775</ele>
        <time>2021-08-07T06:54:31.596Z</time>
      </trkpt>
      <trkpt lat="46.93251" lon="8.69067">
        <ele>1775</ele>
        <time>2021-08-07T06:54:32.596Z</time>
      </trkpt>
      <trkpt lat="46.93251" lon="8.69068">
        <ele>1775</ele>
        <time>2021-08-07T06:54:33.596Z</time>
      </trkpt>
      <trkpt lat="46.93252" lon="8.69069">
        <ele>1775</ele>
        <time>2021-08-07T06:54:34.596Z</time>
      </trkpt>
      <trkpt lat="46.93252" lon="8.6907">
        <ele>1775</ele>
        <time>2021-08-07T06:54:35.596Z</time>
      </trkpt>
      <trkpt lat="46.93253" lon="8.69071">
        <ele>1774</ele>
        <time>2021-08-07T06:54:36.596Z</time>
      </trkpt>
      <trkpt lat="46.93253" lon="8.69072">
        <ele>1773</ele>
        <time>2021-08-07T06:54:37.596Z</time>
      </trkpt>
      <trkpt lat="46.93253" lon="8.69073">
        <ele>1772</ele>
        <time>2021-08-07T06:54:38.596Z</time>
      </trkpt>
      <trkpt lat="46.93253" lon="8.69074">
        <ele>1771</ele>
        <time>2021-08-07T06:54:39.596Z</time>
      </trkpt>
      <trkpt lat="46.93252" lon="8.69075">
        <ele>1770</ele>
        <time>2021-08-07T06:54:40.596Z</time>
      </trkpt>
      <trkpt lat="46.93251" lon="8.69076">
        <ele>1770</ele>
        <time>2021-08-07T06:54:41.595Z</time>
      </trkpt>
      <trkpt lat="46.93251" lon="8.69076">
        <ele>1769</ele>
        <time>2021-08-07T06:54:42.596Z</time>
      </trkpt>
      <trkpt lat="46.9325" lon="8.69076">
        <ele>1768</ele>
        <time>2021-08-07T06:54:43.595Z</time>
      </trkpt>
      <trkpt lat="46.93249" lon="8.69077">
        <ele>1768</ele>
        <time>2021-08-07T06:54:44.596Z</time>
      </trkpt>
      <trkpt lat="46.93248" lon="8.69077">
        <ele>1767</ele>
        <time>2021-08-07T06:54:45.595Z</time>
      </trkpt>
      <trkpt lat="46.93247" lon="8.69077">
        <ele>1766</ele>
        <time>2021-08-07T06:54:46.595Z</time>
      </trkpt>
      <trkpt lat="46.93246" lon="8.69077">
        <ele>1765</ele>
        <time>2021-08-07T06:54:47.596Z</time>
      </trkpt>
      <trkpt lat="46.93245" lon="8.69077">
        <ele>1765</ele>
        <time>2021-08-07T06:54:48.595Z</time>
      </trkpt>
      <trkpt lat="46.93244" lon="8.69078">
        <ele>1765</ele>
        <time>2021-08-07T06:54:49.596Z</time>
      </trkpt>
      <trkpt lat="46.93243" lon="8.69078">
        <ele>1765</ele>
        <time>2021-08-07T06:54:50.596Z</time>
      </trkpt>
      <trkpt lat="46.93242" lon="8.69079">
        <ele>1765</ele>
        <time>2021-08-07T06:54:51.596Z</time>
      </trkpt>
      <trkpt lat="46.93242" lon="8.69079">
        <ele>1764</ele>
        <time>2021-08-07T06:54:52.596Z</time>
      </trkpt>
      <trkpt lat="46.93241" lon="8.6908">
        <ele>1764</ele>
        <time>2021-08-07T06:54:53.595Z</time>
      </trkpt>
      <trkpt lat="46.9324" lon="8.6908">
        <ele>1763</ele>
        <time>2021-08-07T06:54:54.595Z</time>
      </trkpt>
      <trkpt lat="46.93239" lon="8.69081">
        <ele>1763</ele>
        <time>2021-08-07T06:54:55.595Z</time>
      </trkpt>
      <trkpt lat="46.93239" lon="8.69081">
        <ele>1763</ele>
        <time>2021-08-07T06:54:56.596Z</time>
      </trkpt>
      <trkpt lat="46.93238" lon="8.69081">
        <ele>1762</ele>
        <time>2021-08-07T06:54:57.596Z</time>
      </trkpt>
      <trkpt lat="46.93237" lon="8.6908">
        <ele>1762</ele>
        <time>2021-08-07T06:54:58.596Z</time>
      </trkpt>
      <trkpt lat="46.93237" lon="8.6908">
        <ele>1762</ele>
        <time>2021-08-07T06:54:59.595Z</time>
      </trkpt>
      <trkpt lat="46.93236" lon="8.69079">
        <ele>1762</ele>
        <time>2021-08-07T06:55:00.595Z</time>
      </trkpt>
      <trkpt lat="46.93235" lon="8.69079">
        <ele>1762</ele>
        <time>2021-08-07T06:55:01.595Z</time>
      </trkpt>
      <trkpt lat="46.93235" lon="8.69079">
        <ele>1761</ele>
        <time>2021-08-07T06:55:02.596Z</time>
      </trkpt>
      <trkpt lat="46.93234" lon="8.6908">
        <ele>1761</ele>
        <time>2021-08-07T06:55:03.596Z</time>
      </trkpt>
      <trkpt lat="46.93233" lon="8.6908">
        <ele>1761</ele>
        <time>2021-08-07T06:55:04.595Z</time>
      </trkpt>
      <trkpt lat="46.93233" lon="8.6908">
        <ele>1762</ele>
        <time>2021-08-07T06:55:05.596Z</time>
      </trkpt>
      <trkpt lat="46.93232" lon="8.6908">
        <ele>1762</ele>
        <time>2021-08-07T06:55:06.596Z</time>
      </trkpt>
      <trkpt lat="46.93231" lon="8.69079">
        <ele>1762</ele>
        <time>2021-08-07T06:55:07.596Z</time>
      </trkpt>
      <trkpt lat="46.9323" lon="8.69078">
        <ele>1763</ele>
        <time>2021-08-07T06:55:08.596Z</time>
      </trkpt>
      <trkpt lat="46.9323" lon="8.69077">
        <ele>1763</ele>
        <time>2021-08-07T06:55:09.596Z</time>
      </trkpt>
      <trkpt lat="46.93229" lon="8.69077">
        <ele>1763</ele>
        <time>2021-08-07T06:55:10.596Z</time>
      </trkpt>
      <trkpt lat="46.93229" lon="8.69077">
        <ele>1763</ele>
        <time>2021-08-07T06:55:11.596Z</time>
      </trkpt>
      <trkpt lat="46.93228" lon="8.69077">
        <ele>1763</ele>
        <time>2021-08-07T06:55:12.595Z</time>
      </trkpt>
      <trkpt lat="46.93227" lon="8.69078">
        <ele>1763</ele>
        <time>2021-08-07T06:55:13.596Z</time>
      </trkpt>
      <trkpt lat="46.93227" lon="8.69078">
        <ele>1763</ele>
        <time>2021-08-07T06:55:14.596Z</time>
      </trkpt>
      <trkpt lat="46.93227" lon="8.69078">
        <ele>1763</ele>
        <time>2021-08-07T06:55:15.595Z</time>
      </trkpt>
      <trkpt lat="46.93227" lon="8.69078">
        <ele>1762</ele>
        <time>2021-08-07T06:55:16.596Z</time>
      </trkpt>
      <trkpt lat="46.93226" lon="8.69077">
        <ele>1762</ele>
        <time>2021-08-07T06:55:17.597Z</time>
      </trkpt>
      <trkpt lat="46.93226" lon="8.69077">
        <ele>1762</ele>
        <time>2021-08-07T06:55:18.596Z</time>
      </trkpt>
      <trkpt lat="46.93226" lon="8.69076">
        <ele>1762</ele>
        <time>2021-08-07T06:55:19.597Z</time>
      </trkpt>
      <trkpt lat="46.93227" lon="8.69076">
        <ele>1762</ele>
        <time>2021-08-07T06:55:20.596Z</time>
      </trkpt>
      <trkpt lat="46.93227" lon="8.69075">
        <ele>1762</ele>
        <time>2021-08-07T06:55:21.596Z</time>
      </trkpt>
      <trkpt lat="46.93225" lon="8.69075">
        <ele>1762</ele>
        <time>2021-08-07T06:55:22.599Z</time>
      </trkpt>
      <trkpt lat="46.93225" lon="8.69076">
        <ele>1762</ele>
        <time>2021-08-07T06:55:23.599Z</time>
      </trkpt>
      <trkpt lat="46.93225" lon="8.69078">
        <ele>1762</ele>
        <time>2021-08-07T06:55:24.598Z</time>
      </trkpt>
      <trkpt lat="46.93226" lon="8.69079">
        <ele>1761</ele>
        <time>2021-08-07T06:55:25.599Z</time>
      </trkpt>
      <trkpt lat="46.93226" lon="8.6908">
        <ele>1761</ele>
        <time>2021-08-07T06:55:26.598Z</time>
      </trkpt>
      <trkpt lat="46.93227" lon="8.6908">
        <ele>1761</ele>
        <time>2021-08-07T06:55:27.598Z</time>
      </trkpt>
      <trkpt lat="46.93227" lon="8.69081">
        <ele>1760</ele>
        <time>2021-08-07T06:55:28.599Z</time>
      </trkpt>
      <trkpt lat="46.93227" lon="8.6908">
        <ele>1760</ele>
        <time>2021-08-07T06:55:29.599Z</time>
      </trkpt>
      <trkpt lat="46.93226" lon="8.6908">
        <ele>1759</ele>
        <time>2021-08-07T06:55:30.599Z</time>
      </trkpt>
      <trkpt lat="46.93225" lon="8.6908">
        <ele>1759</ele>
        <time>2021-08-07T06:55:31.599Z</time>
      </trkpt>
      <trkpt lat="46.93224" lon="8.6908">
        <ele>1759</ele>
        <time>2021-08-07T06:55:32.598Z</time>
      </trkpt>
      <trkpt lat="46.93223" lon="8.69082">
        <ele>1759</ele>
        <time>2021-08-07T06:55:33.599Z</time>
      </trkpt>
      <trkpt lat="46.93223" lon="8.69084">
        <ele>1759</ele>
        <time>2021-08-07T06:55:34.598Z</time>
      </trkpt>
      <trkpt lat="46.93222" lon="8.69084">
        <ele>1759</ele>
        <time>2021-08-07T06:55:35.598Z</time>
      </trkpt>
      <trkpt lat="46.93221" lon="8.69085">
        <ele>1759</ele>
        <time>2021-08-07T06:55:36.599Z</time>
      </trkpt>
      <trkpt lat="46.9322" lon="8.69084">
        <ele>1759</ele>
        <time>2021-08-07T06:55:37.599Z</time>
      </trkpt>
      <trkpt lat="46.93219" lon="8.69084">
        <ele>1760</ele>
        <time>2021-08-07T06:55:38.599Z</time>
      </trkpt>
      <trkpt lat="46.93218" lon="8.69083">
        <ele>1760</ele>
        <time>2021-08-07T06:55:39.599Z</time>
      </trkpt>
      <trkpt lat="46.93216" lon="8.69082">
        <ele>1761</ele>
        <time>2021-08-07T06:55:40.599Z</time>
      </trkpt>
      <trkpt lat="46.93215" lon="8.69082">
        <ele>1762</ele>
        <time>2021-08-07T06:55:41.599Z</time>
      </trkpt>
      <trkpt lat="46.93214" lon="8.69081">
        <ele>1763</ele>
        <time>2021-08-07T06:55:42.599Z</time>
      </trkpt>
      <trkpt lat="46.93213" lon="8.69081">
        <ele>1764</ele>
        <time>2021-08-07T06:55:43.599Z</time>
      </trkpt>
      <trkpt lat="46.93211" lon="8.69081">
        <ele>1764</ele>
        <time>2021-08-07T06:55:44.599Z</time>
      </trkpt>
      <trkpt lat="46.93211" lon="8.69081">
        <ele>1764</ele>
        <time>2021-08-07T06:55:45.598Z</time>
      </trkpt>
      <trkpt lat="46.93211" lon="8.69084">
        <ele>1764</ele>
        <time>2021-08-07T06:55:46.598Z</time>
      </trkpt>
      <trkpt lat="46.93211" lon="8.69087">
        <ele>1763</ele>
        <time>2021-08-07T06:55:47.599Z</time>
      </trkpt>
      <trkpt lat="46.93211" lon="8.69087">
        <ele>1762</ele>
        <time>2021-08-07T06:55:48.599Z</time>
      </trkpt>
      <trkpt lat="46.9321" lon="8.69086">
        <ele>1761</ele>
        <time>2021-08-07T06:55:49.598Z</time>
      </trkpt>
      <trkpt lat="46.9321" lon="8.69086">
        <ele>1761</ele>
        <time>2021-08-07T06:55:50.599Z</time>
      </trkpt>
      <trkpt lat="46.93209" lon="8.69085">
        <ele>1760</ele>
        <time>2021-08-07T06:55:51.599Z</time>
      </trkpt>
      <trkpt lat="46.93209" lon="8.69084">
        <ele>1759</ele>
        <time>2021-08-07T06:55:52.599Z</time>
      </trkpt>
      <trkpt lat="46.93208" lon="8.69083">
        <ele>1759</ele>
        <time>2021-08-07T06:55:53.598Z</time>
      </trkpt>
      <trkpt lat="46.93207" lon="8.69082">
        <ele>1759</ele>
        <time>2021-08-07T06:55:54.599Z</time>
      </trkpt>
      <trkpt lat="46.93206" lon="8.69081">
        <ele>1759</ele>
        <time>2021-08-07T06:55:55.599Z</time>
      </trkpt>
      <trkpt lat="46.93206" lon="8.6908">
        <ele>1760</ele>
        <time>2021-08-07T06:55:56.599Z</time>
      </trkpt>
      <trkpt lat="46.93205" lon="8.69079">
        <ele>1761</ele>
        <time>2021-08-07T06:55:57.599Z</time>
      </trkpt>
      <trkpt lat="46.93204" lon="8.69077">
        <ele>1761</ele>
        <time>2021-08-07T06:55:58.599Z</time>
      </trkpt>
      <trkpt lat="46.93203" lon="8.69076">
        <ele>1762</ele>
        <time>2021-08-07T06:55:59.599Z</time>
      </trkpt>
      <trkpt lat="46.93202" lon="8.69075">
        <ele>1762</ele>
        <time>2021-08-07T06:56:00.599Z</time>
      </trkpt>
      <trkpt lat="46.93202" lon="8.69073">
        <ele>1762</ele>
        <time>2021-08-07T06:56:01.599Z</time>
      </trkpt>
      <trkpt lat="46.93201" lon="8.69072">
        <ele>1763</ele>
        <time>2021-08-07T06:56:02.598Z</time>
      </trkpt>
      <trkpt lat="46.932" lon="8.69071">
        <ele>1763</ele>
        <time>2021-08-07T06:56:03.598Z</time>
      </trkpt>
      <trkpt lat="46.93199" lon="8.69069">
        <ele>1763</ele>
        <time>2021-08-07T06:56:04.599Z</time>
      </trkpt>
      <trkpt lat="46.93199" lon="8.69068">
        <ele>1763</ele>
        <time>2021-08-07T06:56:05.599Z</time>
      </trkpt>
      <trkpt lat="46.93198" lon="8.69067">
        <ele>1763</ele>
        <time>2021-08-07T06:56:06.598Z</time>
      </trkpt>
      <trkpt lat="46.93198" lon="8.69066">
        <ele>1764</ele>
        <time>2021-08-07T06:56:07.599Z</time>
      </trkpt>
      <trkpt lat="46.93197" lon="8.69065">
        <ele>1764</ele>
        <time>2021-08-07T06:56:08.599Z</time>
      </trkpt>
      <trkpt lat="46.93197" lon="8.69064">
        <ele>1764</ele>
        <time>2021-08-07T06:56:09.599Z</time>
      </trkpt>
      <trkpt lat="46.93196" lon="8.69064">
        <ele>1764</ele>
        <time>2021-08-07T06:56:10.599Z</time>
      </trkpt>
      <trkpt lat="46.93195" lon="8.69063">
        <ele>1764</ele>
        <time>2021-08-07T06:56:11.599Z</time>
      </trkpt>
      <trkpt lat="46.93194" lon="8.69063">
        <ele>1764</ele>
        <time>2021-08-07T06:56:12.599Z</time>
      </trkpt>
      <trkpt lat="46.93194" lon="8.69063">
        <ele>1765</ele>
        <time>2021-08-07T06:56:13.599Z</time>
      </trkpt>
      <trkpt lat="46.93193" lon="8.69062">
        <ele>1765</ele>
        <time>2021-08-07T06:56:14.599Z</time>
      </trkpt>
      <trkpt lat="46.93193" lon="8.69062">
        <ele>1765</ele>
        <time>2021-08-07T06:56:15.598Z</time>
      </trkpt>
      <trkpt lat="46.93192" lon="8.69061">
        <ele>1766</ele>
        <time>2021-08-07T06:56:16.599Z</time>
      </trkpt>
      <trkpt lat="46.93191" lon="8.69061">
        <ele>1766</ele>
        <time>2021-08-07T06:56:17.598Z</time>
      </trkpt>
      <trkpt lat="46.93191" lon="8.6906">
        <ele>1766</ele>
        <time>2021-08-07T06:56:18.598Z</time>
      </trkpt>
      <trkpt lat="46.9319" lon="8.69059">
        <ele>1766</ele>
        <time>2021-08-07T06:56:19.599Z</time>
      </trkpt>
      <trkpt lat="46.9319" lon="8.69059">
        <ele>1766</ele>
        <time>2021-08-07T06:56:20.599Z</time>
      </trkpt>
      <trkpt lat="46.9319" lon="8.69058">
        <ele>1766</ele>
        <time>2021-08-07T06:56:21.599Z</time>
      </trkpt>
      <trkpt lat="46.9319" lon="8.69058">
        <ele>1766</ele>
        <time>2021-08-07T06:56:22.599Z</time>
      </trkpt>
      <trkpt lat="46.93189" lon="8.69057">
        <ele>1765</ele>
        <time>2021-08-07T06:56:23.599Z</time>
      </trkpt>
      <trkpt lat="46.93188" lon="8.69056">
        <ele>1765</ele>
        <time>2021-08-07T06:56:24.599Z</time>
      </trkpt>
      <trkpt lat="46.93187" lon="8.69055">
        <ele>1765</ele>
        <time>2021-08-07T06:56:25.599Z</time>
      </trkpt>
      <trkpt lat="46.93187" lon="8.69054">
        <ele>1765</ele>
        <time>2021-08-07T06:56:26.598Z</time>
      </trkpt>
      <trkpt lat="46.93186" lon="8.69053">
        <ele>1764</ele>
        <time>2021-08-07T06:56:27.599Z</time>
      </trkpt>
      <trkpt lat="46.93185" lon="8.69052">
        <ele>1764</ele>
        <time>2021-08-07T06:56:28.598Z</time>
      </trkpt>
      <trkpt lat="46.93184" lon="8.69051">
        <ele>1765</ele>
        <time>2021-08-07T06:56:29.599Z</time>
      </trkpt>
      <trkpt lat="46.93183" lon="8.6905">
        <ele>1765</ele>
        <time>2021-08-07T06:56:30.599Z</time>
      </trkpt>
      <trkpt lat="46.93183" lon="8.6905">
        <ele>1766</ele>
        <time>2021-08-07T06:56:31.598Z</time>
      </trkpt>
      <trkpt lat="46.93182" lon="8.6905">
        <ele>1766</ele>
        <time>2021-08-07T06:56:32.598Z</time>
      </trkpt>
      <trkpt lat="46.93182" lon="8.69049">
        <ele>1767</ele>
        <time>2021-08-07T06:56:33.599Z</time>
      </trkpt>
      <trkpt lat="46.93181" lon="8.69048">
        <ele>1767</ele>
        <time>2021-08-07T06:56:34.598Z</time>
      </trkpt>
      <trkpt lat="46.9318" lon="8.69048">
        <ele>1767</ele>
        <time>2021-08-07T06:56:35.599Z</time>
      </trkpt>
      <trkpt lat="46.93179" lon="8.69047">
        <ele>1768</ele>
        <time>2021-08-07T06:56:36.598Z</time>
      </trkpt>
      <trkpt lat="46.93178" lon="8.69046">
        <ele>1768</ele>
        <time>2021-08-07T06:56:37.599Z</time>
      </trkpt>
      <trkpt lat="46.93178" lon="8.69046">
        <ele>1769</ele>
        <time>2021-08-07T06:56:38.598Z</time>
      </trkpt>
      <trkpt lat="46.93177" lon="8.69046">
        <ele>1769</ele>
        <time>2021-08-07T06:56:39.599Z</time>
      </trkpt>
      <trkpt lat="46.93176" lon="8.69046">
        <ele>1769</ele>
        <time>2021-08-07T06:56:40.598Z</time>
      </trkpt>
      <trkpt lat="46.93176" lon="8.69046">
        <ele>1769</ele>
        <time>2021-08-07T06:56:41.599Z</time>
      </trkpt>
      <trkpt lat="46.93175" lon="8.69045">
        <ele>1770</ele>
        <time>2021-08-07T06:56:42.599Z</time>
      </trkpt>
      <trkpt lat="46.93175" lon="8.69045">
        <ele>1770</ele>
        <time>2021-08-07T06:56:43.599Z</time>
      </trkpt>
      <trkpt lat="46.93174" lon="8.69045">
        <ele>1770</ele>
        <time>2021-08-07T06:56:44.599Z</time>
      </trkpt>
      <trkpt lat="46.93174" lon="8.69045">
        <ele>1770</ele>
        <time>2021-08-07T06:56:45.599Z</time>
      </trkpt>
      <trkpt lat="46.93173" lon="8.69044">
        <ele>1771</ele>
        <time>2021-08-07T06:56:46.599Z</time>
      </trkpt>
      <trkpt lat="46.93172" lon="8.69044">
        <ele>1771</ele>
        <time>2021-08-07T06:56:47.599Z</time>
      </trkpt>
      <trkpt lat="46.93171" lon="8.69044">
        <ele>1771</ele>
        <time>2021-08-07T06:56:48.598Z</time>
      </trkpt>
      <trkpt lat="46.93171" lon="8.69044">
        <ele>1771</ele>
        <time>2021-08-07T06:56:49.599Z</time>
      </trkpt>
      <trkpt lat="46.93171" lon="8.69043">
        <ele>1771</ele>
        <time>2021-08-07T06:56:50.599Z</time>
      </trkpt>
      <trkpt lat="46.9317" lon="8.69043">
        <ele>1772</ele>
        <time>2021-08-07T06:56:51.598Z</time>
      </trkpt>
      <trkpt lat="46.9317" lon="8.69043">
        <ele>1772</ele>
        <time>2021-08-07T06:56:52.599Z</time>
      </trkpt>
      <trkpt lat="46.93169" lon="8.69043">
        <ele>1772</ele>
        <time>2021-08-07T06:56:53.598Z</time>
      </trkpt>
      <trkpt lat="46.93169" lon="8.69043">
        <ele>1772</ele>
        <time>2021-08-07T06:56:54.599Z</time>
      </trkpt>
      <trkpt lat="46.93168" lon="8.69043">
        <ele>1772</ele>
        <time>2021-08-07T06:56:55.599Z</time>
      </trkpt>
      <trkpt lat="46.93168" lon="8.69044">
        <ele>1772</ele>
        <time>2021-08-07T06:56:56.598Z</time>
      </trkpt>
      <trkpt lat="46.93167" lon="8.69044">
        <ele>1772</ele>
        <time>2021-08-07T06:56:57.598Z</time>
      </trkpt>
      <trkpt lat="46.93167" lon="8.69045">
        <ele>1771</ele>
        <time>2021-08-07T06:56:58.599Z</time>
      </trkpt>
      <trkpt lat="46.93167" lon="8.69045">
        <ele>1771</ele>
        <time>2021-08-07T06:56:59.599Z</time>
      </trkpt>
      <trkpt lat="46.93167" lon="8.69046">
        <ele>1770</ele>
        <time>2021-08-07T06:57:00.599Z</time>
      </trkpt>
      <trkpt lat="46.93166" lon="8.69046">
        <ele>1770</ele>
        <time>2021-08-07T06:57:01.599Z</time>
      </trkpt>
      <trkpt lat="46.93166" lon="8.69046">
        <ele>1770</ele>
        <time>2021-08-07T06:57:02.599Z</time>
      </trkpt>
      <trkpt lat="46.93165" lon="8.69047">
        <ele>1770</ele>
        <time>2021-08-07T06:57:03.599Z</time>
      </trkpt>
      <trkpt lat="46.93165" lon="8.69047">
        <ele>1770</ele>
        <time>2021-08-07T06:57:04.598Z</time>
      </trkpt>
      <trkpt lat="46.93164" lon="8.69047">
        <ele>1770</ele>
        <time>2021-08-07T06:57:05.599Z</time>
      </trkpt>
      <trkpt lat="46.93163" lon="8.69047">
        <ele>1770</ele>
        <time>2021-08-07T06:57:06.599Z</time>
      </trkpt>
      <trkpt lat="46.93163" lon="8.69047">
        <ele>1770</ele>
        <time>2021-08-07T06:57:07.598Z</time>
      </trkpt>
      <trkpt lat="46.93164" lon="8.69047">
        <ele>1769</ele>
        <time>2021-08-07T06:57:08.599Z</time>
      </trkpt>
      <trkpt lat="46.93164" lon="8.69048">
        <ele>1769</ele>
        <time>2021-08-07T06:57:09.598Z</time>
      </trkpt>
      <trkpt lat="46.93164" lon="8.69047">
        <ele>1769</ele>
        <time>2021-08-07T06:57:10.599Z</time>
      </trkpt>
      <trkpt lat="46.93165" lon="8.69047">
        <ele>1769</ele>
        <time>2021-08-07T06:57:11.598Z</time>
      </trkpt>
      <trkpt lat="46.93164" lon="8.69046">
        <ele>1770</ele>
        <time>2021-08-07T06:57:12.598Z</time>
      </trkpt>
      <trkpt lat="46.93164" lon="8.69046">
        <ele>1770</ele>
        <time>2021-08-07T06:57:13.599Z</time>
      </trkpt>
      <trkpt lat="46.93163" lon="8.69046">
        <ele>1769</ele>
        <time>2021-08-07T06:57:14.598Z</time>
      </trkpt>
      <trkpt lat="46.93162" lon="8.69046">
        <ele>1769</ele>
        <time>2021-08-07T06:57:15.599Z</time>
      </trkpt>
      <trkpt lat="46.93162" lon="8.69046">
        <ele>1769</ele>
        <time>2021-08-07T06:57:16.599Z</time>
      </trkpt>
      <trkpt lat="46.93161" lon="8.69047">
        <ele>1769</ele>
        <time>2021-08-07T06:57:17.599Z</time>
      </trkpt>
      <trkpt lat="46.9316" lon="8.69048">
        <ele>1769</ele>
        <time>2021-08-07T06:57:18.599Z</time>
      </trkpt>
      <trkpt lat="46.9316" lon="8.69048">
        <ele>1769</ele>
        <time>2021-08-07T06:57:19.599Z</time>
      </trkpt>
      <trkpt lat="46.9316" lon="8.69048">
        <ele>1771</ele>
        <time>2021-08-07T06:57:20.600Z</time>
      </trkpt>
      <trkpt lat="46.93159" lon="8.69048">
        <ele>1772</ele>
        <time>2021-08-07T06:57:21.601Z</time>
      </trkpt>
      <trkpt lat="46.93158" lon="8.69048">
        <ele>1772</ele>
        <time>2021-08-07T06:57:22.600Z</time>
      </trkpt>
      <trkpt lat="46.93158" lon="8.69047">
        <ele>1773</ele>
        <time>2021-08-07T06:57:23.600Z</time>
      </trkpt>
      <trkpt lat="46.93159" lon="8.69047">
        <ele>1773</ele>
        <time>2021-08-07T06:57:24.600Z</time>
      </trkpt>
      <trkpt lat="46.93159" lon="8.69046">
        <ele>1774</ele>
        <time>2021-08-07T06:57:25.601Z</time>
      </trkpt>
      <trkpt lat="46.93159" lon="8.69045">
        <ele>1774</ele>
        <time>2021-08-07T06:57:26.601Z</time>
      </trkpt>
      <trkpt lat="46.93159" lon="8.69045">
        <ele>1774</ele>
        <time>2021-08-07T06:57:27.601Z</time>
      </trkpt>
      <trkpt lat="46.9316" lon="8.69045">
        <ele>1774</ele>
        <time>2021-08-07T06:57:28.601Z</time>
      </trkpt>
      <trkpt lat="46.9316" lon="8.69044">
        <ele>1774</ele>
        <time>2021-08-07T06:57:29.601Z</time>
      </trkpt>
      <trkpt lat="46.9316" lon="8.69044">
        <ele>1774</ele>
        <time>2021-08-07T06:57:30.601Z</time>
      </trkpt>
      <trkpt lat="46.93161" lon="8.69043">
        <ele>1774</ele>
        <time>2021-08-07T06:57:31.600Z</time>
      </trkpt>
      <trkpt lat="46.93161" lon="8.69043">
        <ele>1774</ele>
        <time>2021-08-07T06:57:32.601Z</time>
      </trkpt>
      <trkpt lat="46.9316" lon="8.69042">
        <ele>1774</ele>
        <time>2021-08-07T06:57:33.601Z</time>
      </trkpt>
      <trkpt lat="46.9316" lon="8.69041">
        <ele>1774</ele>
        <time>2021-08-07T06:57:34.600Z</time>
      </trkpt>
      <trkpt lat="46.93159" lon="8.69039">
        <ele>1773</ele>
        <time>2021-08-07T06:57:35.601Z</time>
      </trkpt>
      <trkpt lat="46.93159" lon="8.69038">
        <ele>1773</ele>
        <time>2021-08-07T06:57:36.601Z</time>
      </trkpt>
      <trkpt lat="46.93159" lon="8.69036">
        <ele>1773</ele>
        <time>2021-08-07T06:57:37.601Z</time>
      </trkpt>
      <trkpt lat="46.93159" lon="8.69035">
        <ele>1773</ele>
        <time>2021-08-07T06:57:38.601Z</time>
      </trkpt>
      <trkpt lat="46.93159" lon="8.69035">
        <ele>1773</ele>
        <time>2021-08-07T06:57:39.600Z</time>
      </trkpt>
      <trkpt lat="46.93158" lon="8.69034">
        <ele>1773</ele>
        <time>2021-08-07T06:57:40.600Z</time>
      </trkpt>
      <trkpt lat="46.93158" lon="8.69034">
        <ele>1773</ele>
        <time>2021-08-07T06:57:41.601Z</time>
      </trkpt>
      <trkpt lat="46.93157" lon="8.69033">
        <ele>1773</ele>
        <time>2021-08-07T06:57:42.601Z</time>
      </trkpt>
      <trkpt lat="46.93157" lon="8.69032">
        <ele>1773</ele>
        <time>2021-08-07T06:57:43.601Z</time>
      </trkpt>
      <trkpt lat="46.93156" lon="8.69031">
        <ele>1773</ele>
        <time>2021-08-07T06:57:44.601Z</time>
      </trkpt>
      <trkpt lat="46.93156" lon="8.6903">
        <ele>1773</ele>
        <time>2021-08-07T06:57:45.601Z</time>
      </trkpt>
      <trkpt lat="46.93156" lon="8.69029">
        <ele>1773</ele>
        <time>2021-08-07T06:57:46.600Z</time>
      </trkpt>
      <trkpt lat="46.93156" lon="8.69028">
        <ele>1773</ele>
        <time>2021-08-07T06:57:47.600Z</time>
      </trkpt>
      <trkpt lat="46.93156" lon="8.69027">
        <ele>1773</ele>
        <time>2021-08-07T06:57:48.601Z</time>
      </trkpt>
      <trkpt lat="46.93155" lon="8.69026">
        <ele>1773</ele>
        <time>2021-08-07T06:57:49.601Z</time>
      </trkpt>
      <trkpt lat="46.93155" lon="8.69025">
        <ele>1773</ele>
        <time>2021-08-07T06:57:50.601Z</time>
      </trkpt>
      <trkpt lat="46.93154" lon="8.69024">
        <ele>1774</ele>
        <time>2021-08-07T06:57:51.600Z</time>
      </trkpt>
      <trkpt lat="46.93154" lon="8.69023">
        <ele>1774</ele>
        <time>2021-08-07T06:57:52.601Z</time>
      </trkpt>
      <trkpt lat="46.93153" lon="8.69022">
        <ele>1775</ele>
        <time>2021-08-07T06:57:53.601Z</time>
      </trkpt>
      <trkpt lat="46.93153" lon="8.69021">
        <ele>1776</ele>
        <time>2021-08-07T06:57:54.601Z</time>
      </trkpt>
      <trkpt lat="46.93152" lon="8.6902">
        <ele>1776</ele>
        <time>2021-08-07T06:57:55.600Z</time>
      </trkpt>
      <trkpt lat="46.93151" lon="8.69019">
        <ele>1777</ele>
        <time>2021-08-07T06:57:56.601Z</time>
      </trkpt>
      <trkpt lat="46.93151" lon="8.69018">
        <ele>1777</ele>
        <time>2021-08-07T06:57:57.601Z</time>
      </trkpt>
      <trkpt lat="46.9315" lon="8.69018">
        <ele>1777</ele>
        <time>2021-08-07T06:57:58.601Z</time>
      </trkpt>
      <trkpt lat="46.9315" lon="8.69017">
        <ele>1778</ele>
        <time>2021-08-07T06:57:59.601Z</time>
      </trkpt>
      <trkpt lat="46.9315" lon="8.69017">
        <ele>1778</ele>
        <time>2021-08-07T06:58:00.600Z</time>
      </trkpt>
      <trkpt lat="46.9315" lon="8.69016">
        <ele>1778</ele>
        <time>2021-08-07T06:58:01.601Z</time>
      </trkpt>
      <trkpt lat="46.93149" lon="8.69016">
        <ele>1778</ele>
        <time>2021-08-07T06:58:02.601Z</time>
      </trkpt>
      <trkpt lat="46.93149" lon="8.69016">
        <ele>1778</ele>
        <time>2021-08-07T06:58:03.601Z</time>
      </trkpt>
      <trkpt lat="46.93149" lon="8.69015">
        <ele>1778</ele>
        <time>2021-08-07T06:58:04.600Z</time>
      </trkpt>
      <trkpt lat="46.93148" lon="8.69015">
        <ele>1778</ele>
        <time>2021-08-07T06:58:05.601Z</time>
      </trkpt>
      <trkpt lat="46.93148" lon="8.69015">
        <ele>1778</ele>
        <time>2021-08-07T06:58:06.601Z</time>
      </trkpt>
      <trkpt lat="46.93147" lon="8.69014">
        <ele>1779</ele>
        <time>2021-08-07T06:58:07.600Z</time>
      </trkpt>
      <trkpt lat="46.93147" lon="8.69013">
        <ele>1779</ele>
        <time>2021-08-07T06:58:08.601Z</time>
      </trkpt>
      <trkpt lat="46.93146" lon="8.69013">
        <ele>1780</ele>
        <time>2021-08-07T06:58:09.600Z</time>
      </trkpt>
      <trkpt lat="46.93146" lon="8.69012">
        <ele>1780</ele>
        <time>2021-08-07T06:58:10.601Z</time>
      </trkpt>
      <trkpt lat="46.93145" lon="8.69012">
        <ele>1780</ele>
        <time>2021-08-07T06:58:11.601Z</time>
      </trkpt>
      <trkpt lat="46.93144" lon="8.69012">
        <ele>1780</ele>
        <time>2021-08-07T06:58:12.600Z</time>
      </trkpt>
      <trkpt lat="46.93143" lon="8.69012">
        <ele>1779</ele>
        <time>2021-08-07T06:58:13.601Z</time>
      </trkpt>
      <trkpt lat="46.93143" lon="8.69012">
        <ele>1779</ele>
        <time>2021-08-07T06:58:14.601Z</time>
      </trkpt>
      <trkpt lat="46.93142" lon="8.69013">
        <ele>1779</ele>
        <time>2021-08-07T06:58:15.601Z</time>
      </trkpt>
      <trkpt lat="46.93142" lon="8.69013">
        <ele>1779</ele>
        <time>2021-08-07T06:58:16.601Z</time>
      </trkpt>
      <trkpt lat="46.93141" lon="8.69014">
        <ele>1779</ele>
        <time>2021-08-07T06:58:17.601Z</time>
      </trkpt>
      <trkpt lat="46.9314" lon="8.69014">
        <ele>1779</ele>
        <time>2021-08-07T06:58:18.601Z</time>
      </trkpt>
      <trkpt lat="46.9314" lon="8.69015">
        <ele>1780</ele>
        <time>2021-08-07T06:58:19.601Z</time>
      </trkpt>
      <trkpt lat="46.93139" lon="8.69015">
        <ele>1780</ele>
        <time>2021-08-07T06:58:20.601Z</time>
      </trkpt>
      <trkpt lat="46.93139" lon="8.69016">
        <ele>1780</ele>
        <time>2021-08-07T06:58:21.600Z</time>
      </trkpt>
      <trkpt lat="46.93138" lon="8.69016">
        <ele>1779</ele>
        <time>2021-08-07T06:58:22.601Z</time>
      </trkpt>
      <trkpt lat="46.93137" lon="8.69017">
        <ele>1779</ele>
        <time>2021-08-07T06:58:23.601Z</time>
      </trkpt>
      <trkpt lat="46.93136" lon="8.69017">
        <ele>1779</ele>
        <time>2021-08-07T06:58:24.600Z</time>
      </trkpt>
      <trkpt lat="46.93136" lon="8.69017">
        <ele>1779</ele>
        <time>2021-08-07T06:58:25.601Z</time>
      </trkpt>
      <trkpt lat="46.93135" lon="8.69018">
        <ele>1779</ele>
        <time>2021-08-07T06:58:26.600Z</time>
      </trkpt>
      <trkpt lat="46.93134" lon="8.69018">
        <ele>1778</ele>
        <time>2021-08-07T06:58:27.600Z</time>
      </trkpt>
      <trkpt lat="46.93133" lon="8.69018">
        <ele>1779</ele>
        <time>2021-08-07T06:58:28.600Z</time>
      </trkpt>
      <trkpt lat="46.93132" lon="8.69018">
        <ele>1778</ele>
        <time>2021-08-07T06:58:29.601Z</time>
      </trkpt>
      <trkpt lat="46.93132" lon="8.69018">
        <ele>1778</ele>
        <time>2021-08-07T06:58:30.600Z</time>
      </trkpt>
      <trkpt lat="46.93131" lon="8.69018">
        <ele>1778</ele>
        <time>2021-08-07T06:58:31.601Z</time>
      </trkpt>
      <trkpt lat="46.9313" lon="8.69019">
        <ele>1777</ele>
        <time>2021-08-07T06:58:32.600Z</time>
      </trkpt>
      <trkpt lat="46.9313" lon="8.6902">
        <ele>1776</ele>
        <time>2021-08-07T06:58:33.601Z</time>
      </trkpt>
      <trkpt lat="46.93129" lon="8.6902">
        <ele>1776</ele>
        <time>2021-08-07T06:58:34.600Z</time>
      </trkpt>
      <trkpt lat="46.93129" lon="8.69022">
        <ele>1775</ele>
        <time>2021-08-07T06:58:35.601Z</time>
      </trkpt>
      <trkpt lat="46.93129" lon="8.69022">
        <ele>1774</ele>
        <time>2021-08-07T06:58:36.601Z</time>
      </trkpt>
      <trkpt lat="46.93128" lon="8.69022">
        <ele>1773</ele>
        <time>2021-08-07T06:58:37.601Z</time>
      </trkpt>
      <trkpt lat="46.93127" lon="8.69022">
        <ele>1773</ele>
        <time>2021-08-07T06:58:38.601Z</time>
      </trkpt>
      <trkpt lat="46.93127" lon="8.69021">
        <ele>1773</ele>
        <time>2021-08-07T06:58:39.601Z</time>
      </trkpt>
      <trkpt lat="46.93126" lon="8.69021">
        <ele>1773</ele>
        <time>2021-08-07T06:58:40.601Z</time>
      </trkpt>
      <trkpt lat="46.93126" lon="8.69022">
        <ele>1772</ele>
        <time>2021-08-07T06:58:41.601Z</time>
      </trkpt>
      <trkpt lat="46.93125" lon="8.69022">
        <ele>1772</ele>
        <time>2021-08-07T06:58:42.601Z</time>
      </trkpt>
      <trkpt lat="46.93124" lon="8.69022">
        <ele>1772</ele>
        <time>2021-08-07T06:58:43.601Z</time>
      </trkpt>
      <trkpt lat="46.93124" lon="8.69022">
        <ele>1773</ele>
        <time>2021-08-07T06:58:44.601Z</time>
      </trkpt>
      <trkpt lat="46.93124" lon="8.69022">
        <ele>1774</ele>
        <time>2021-08-07T06:58:45.601Z</time>
      </trkpt>
      <trkpt lat="46.93123" lon="8.69023">
        <ele>1774</ele>
        <time>2021-08-07T06:58:46.601Z</time>
      </trkpt>
      <trkpt lat="46.93123" lon="8.69023">
        <ele>1775</ele>
        <time>2021-08-07T06:58:47.601Z</time>
      </trkpt>
      <trkpt lat="46.93123" lon="8.69023">
        <ele>1776</ele>
        <time>2021-08-07T06:58:48.601Z</time>
      </trkpt>
      <trkpt lat="46.93122" lon="8.69023">
        <ele>1776</ele>
        <time>2021-08-07T06:58:49.601Z</time>
      </trkpt>
      <trkpt lat="46.93122" lon="8.69024">
        <ele>1776</ele>
        <time>2021-08-07T06:58:50.600Z</time>
      </trkpt>
      <trkpt lat="46.93121" lon="8.69024">
        <ele>1776</ele>
        <time>2021-08-07T06:58:51.601Z</time>
      </trkpt>
      <trkpt lat="46.93121" lon="8.69024">
        <ele>1777</ele>
        <time>2021-08-07T06:58:52.601Z</time>
      </trkpt>
      <trkpt lat="46.9312" lon="8.69024">
        <ele>1777</ele>
        <time>2021-08-07T06:58:53.601Z</time>
      </trkpt>
      <trkpt lat="46.93119" lon="8.69024">
        <ele>1777</ele>
        <time>2021-08-07T06:58:54.600Z</time>
      </trkpt>
      <trkpt lat="46.93118" lon="8.69024">
        <ele>1777</ele>
        <time>2021-08-07T06:58:55.601Z</time>
      </trkpt>
      <trkpt lat="46.93118" lon="8.69024">
        <ele>1777</ele>
        <time>2021-08-07T06:58:56.600Z</time>
      </trkpt>
      <trkpt lat="46.93117" lon="8.69024">
        <ele>1777</ele>
        <time>2021-08-07T06:58:57.600Z</time>
      </trkpt>
      <trkpt lat="46.93117" lon="8.69025">
        <ele>1776</ele>
        <time>2021-08-07T06:58:58.601Z</time>
      </trkpt>
      <trkpt lat="46.93117" lon="8.69026">
        <ele>1777</ele>
        <time>2021-08-07T06:58:59.600Z</time>
      </trkpt>
      <trkpt lat="46.93116" lon="8.69026">
        <ele>1777</ele>
        <time>2021-08-07T06:59:00.600Z</time>
      </trkpt>
      <trkpt lat="46.93116" lon="8.69026">
        <ele>1777</ele>
        <time>2021-08-07T06:59:01.600Z</time>
      </trkpt>
      <trkpt lat="46.93116" lon="8.69028">
        <ele>1778</ele>
        <time>2021-08-07T06:59:02.601Z</time>
      </trkpt>
      <trkpt lat="46.93115" lon="8.69028">
        <ele>1779</ele>
        <time>2021-08-07T06:59:03.601Z</time>
      </trkpt>
      <trkpt lat="46.93115" lon="8.69028">
        <ele>1780</ele>
        <time>2021-08-07T06:59:04.600Z</time>
      </trkpt>
      <trkpt lat="46.93115" lon="8.69028">
        <ele>1780</ele>
        <time>2021-08-07T06:59:05.600Z</time>
      </trkpt>
      <trkpt lat="46.93114" lon="8.69028">
        <ele>1783</ele>
        <time>2021-08-07T06:59:06.600Z</time>
      </trkpt>
      <trkpt lat="46.93115" lon="8.69028">
        <ele>1784</ele>
        <time>2021-08-07T06:59:07.600Z</time>
      </trkpt>
      <trkpt lat="46.93115" lon="8.69028">
        <ele>1784</ele>
        <time>2021-08-07T06:59:08.600Z</time>
      </trkpt>
      <trkpt lat="46.93115" lon="8.69029">
        <ele>1784</ele>
        <time>2021-08-07T06:59:09.601Z</time>
      </trkpt>
      <trkpt lat="46.93115" lon="8.69029">
        <ele>1784</ele>
        <time>2021-08-07T06:59:10.600Z</time>
      </trkpt>
      <trkpt lat="46.93113" lon="8.69028">
        <ele>1783</ele>
        <time>2021-08-07T06:59:11.602Z</time>
      </trkpt>
      <trkpt lat="46.93113" lon="8.69028">
        <ele>1783</ele>
        <time>2021-08-07T06:59:12.602Z</time>
      </trkpt>
      <trkpt lat="46.93114" lon="8.69029">
        <ele>1783</ele>
        <time>2021-08-07T06:59:13.601Z</time>
      </trkpt>
      <trkpt lat="46.93115" lon="8.6903">
        <ele>1783</ele>
        <time>2021-08-07T06:59:14.602Z</time>
      </trkpt>
      <trkpt lat="46.93115" lon="8.6903">
        <ele>1783</ele>
        <time>2021-08-07T06:59:15.601Z</time>
      </trkpt>
      <trkpt lat="46.93114" lon="8.6903">
        <ele>1782</ele>
        <time>2021-08-07T06:59:16.601Z</time>
      </trkpt>
      <trkpt lat="46.93113" lon="8.6903">
        <ele>1782</ele>
        <time>2021-08-07T06:59:17.602Z</time>
      </trkpt>
      <trkpt lat="46.93112" lon="8.6903">
        <ele>1782</ele>
        <time>2021-08-07T06:59:18.601Z</time>
      </trkpt>
      <trkpt lat="46.93111" lon="8.6903">
        <ele>1782</ele>
        <time>2021-08-07T06:59:19.602Z</time>
      </trkpt>
      <trkpt lat="46.9311" lon="8.6903">
        <ele>1782</ele>
        <time>2021-08-07T06:59:20.602Z</time>
      </trkpt>
      <trkpt lat="46.93109" lon="8.6903">
        <ele>1781</ele>
        <time>2021-08-07T06:59:21.601Z</time>
      </trkpt>
      <trkpt lat="46.93108" lon="8.6903">
        <ele>1781</ele>
        <time>2021-08-07T06:59:22.602Z</time>
      </trkpt>
      <trkpt lat="46.93107" lon="8.69031">
        <ele>1780</ele>
        <time>2021-08-07T06:59:23.602Z</time>
      </trkpt>
      <trkpt lat="46.93106" lon="8.69031">
        <ele>1780</ele>
        <time>2021-08-07T06:59:24.602Z</time>
      </trkpt>
      <trkpt lat="46.93106" lon="8.69032">
        <ele>1779</ele>
        <time>2021-08-07T06:59:25.602Z</time>
      </trkpt>
      <trkpt lat="46.93106" lon="8.69033">
        <ele>1779</ele>
        <time>2021-08-07T06:59:26.601Z</time>
      </trkpt>
      <trkpt lat="46.93105" lon="8.69034">
        <ele>1778</ele>
        <time>2021-08-07T06:59:27.602Z</time>
      </trkpt>
      <trkpt lat="46.93104" lon="8.69035">
        <ele>1777</ele>
        <time>2021-08-07T06:59:28.601Z</time>
      </trkpt>
      <trkpt lat="46.93103" lon="8.69036">
        <ele>1777</ele>
        <time>2021-08-07T06:59:29.601Z</time>
      </trkpt>
      <trkpt lat="46.93103" lon="8.69036">
        <ele>1776</ele>
        <time>2021-08-07T06:59:30.602Z</time>
      </trkpt>
      <trkpt lat="46.93102" lon="8.69036">
        <ele>1775</ele>
        <time>2021-08-07T06:59:31.602Z</time>
      </trkpt>
      <trkpt lat="46.93102" lon="8.69037">
        <ele>1774</ele>
        <time>2021-08-07T06:59:32.602Z</time>
      </trkpt>
      <trkpt lat="46.93101" lon="8.69038">
        <ele>1774</ele>
        <time>2021-08-07T06:59:33.601Z</time>
      </trkpt>
      <trkpt lat="46.93101" lon="8.69039">
        <ele>1774</ele>
        <time>2021-08-07T06:59:34.601Z</time>
      </trkpt>
      <trkpt lat="46.931" lon="8.69039">
        <ele>1774</ele>
        <time>2021-08-07T06:59:35.602Z</time>
      </trkpt>
      <trkpt lat="46.931" lon="8.6904">
        <ele>1774</ele>
        <time>2021-08-07T06:59:36.601Z</time>
      </trkpt>
      <trkpt lat="46.93099" lon="8.69041">
        <ele>1773</ele>
        <time>2021-08-07T06:59:37.602Z</time>
      </trkpt>
      <trkpt lat="46.93099" lon="8.69042">
        <ele>1773</ele>
        <time>2021-08-07T06:59:38.601Z</time>
      </trkpt>
      <trkpt lat="46.93099" lon="8.69043">
        <ele>1774</ele>
        <time>2021-08-07T06:59:39.601Z</time>
      </trkpt>
      <trkpt lat="46.93099" lon="8.69044">
        <ele>1774</ele>
        <time>2021-08-07T06:59:40.602Z</time>
      </trkpt>
      <trkpt lat="46.93098" lon="8.69044">
        <ele>1775</ele>
        <time>2021-08-07T06:59:41.602Z</time>
      </trkpt>
      <trkpt lat="46.93098" lon="8.69044">
        <ele>1776</ele>
        <time>2021-08-07T06:59:42.601Z</time>
      </trkpt>
      <trkpt lat="46.93098" lon="8.69045">
        <ele>1777</ele>
        <time>2021-08-07T06:59:43.602Z</time>
      </trkpt>
      <trkpt lat="46.93097" lon="8.69046">
        <ele>1778</ele>
        <time>2021-08-07T06:59:44.601Z</time>
      </trkpt>
      <trkpt lat="46.93096" lon="8.69046">
        <ele>1779</ele>
        <time>2021-08-07T06:59:45.602Z</time>
      </trkpt>
      <trkpt lat="46.93096" lon="8.69046">
        <ele>1780</ele>
        <time>2021-08-07T06:59:46.601Z</time>
      </trkpt>
      <trkpt lat="46.93095" lon="8.69047">
        <ele>1780</ele>
        <time>2021-08-07T06:59:47.602Z</time>
      </trkpt>
      <trkpt lat="46.93094" lon="8.69047">
        <ele>1781</ele>
        <time>2021-08-07T06:59:48.602Z</time>
      </trkpt>
      <trkpt lat="46.93093" lon="8.69047">
        <ele>1781</ele>
        <time>2021-08-07T06:59:49.601Z</time>
      </trkpt>
      <trkpt lat="46.93093" lon="8.69048">
        <ele>1782</ele>
        <time>2021-08-07T06:59:50.602Z</time>
      </trkpt>
      <trkpt lat="46.93092" lon="8.69049">
        <ele>1782</ele>
        <time>2021-08-07T06:59:51.602Z</time>
      </trkpt>
      <trkpt lat="46.93091" lon="8.69049">
        <ele>1782</ele>
        <time>2021-08-07T06:59:52.602Z</time>
      </trkpt>
      <trkpt lat="46.93091" lon="8.6905">
        <ele>1782</ele>
        <time>2021-08-07T06:59:53.602Z</time>
      </trkpt>
      <trkpt lat="46.9309" lon="8.69051">
        <ele>1782</ele>
        <time>2021-08-07T06:59:54.601Z</time>
      </trkpt>
      <trkpt lat="46.9309" lon="8.69052">
        <ele>1782</ele>
        <time>2021-08-07T06:59:55.602Z</time>
      </trkpt>
      <trkpt lat="46.9309" lon="8.69053">
        <ele>1781</ele>
        <time>2021-08-07T06:59:56.602Z</time>
      </trkpt>
      <trkpt lat="46.93089" lon="8.69054">
        <ele>1781</ele>
        <time>2021-08-07T06:59:57.602Z</time>
      </trkpt>
      <trkpt lat="46.93088" lon="8.69054">
        <ele>1782</ele>
        <time>2021-08-07T06:59:58.601Z</time>
      </trkpt>
      <trkpt lat="46.93087" lon="8.69054">
        <ele>1783</ele>
        <time>2021-08-07T06:59:59.601Z</time>
      </trkpt>
      <trkpt lat="46.93085" lon="8.69054">
        <ele>1785</ele>
        <time>2021-08-07T07:00:00.601Z</time>
      </trkpt>
      <trkpt lat="46.93085" lon="8.69055">
        <ele>1786</ele>
        <time>2021-08-07T07:00:01.602Z</time>
      </trkpt>
      <trkpt lat="46.93084" lon="8.69055">
        <ele>1788</ele>
        <time>2021-08-07T07:00:02.602Z</time>
      </trkpt>
      <trkpt lat="46.93083" lon="8.69056">
        <ele>1789</ele>
        <time>2021-08-07T07:00:03.602Z</time>
      </trkpt>
      <trkpt lat="46.93082" lon="8.69057">
        <ele>1790</ele>
        <time>2021-08-07T07:00:04.602Z</time>
      </trkpt>
      <trkpt lat="46.93082" lon="8.69057">
        <ele>1791</ele>
        <time>2021-08-07T07:00:05.602Z</time>
      </trkpt>
      <trkpt lat="46.93082" lon="8.69059">
        <ele>1791</ele>
        <time>2021-08-07T07:00:06.601Z</time>
      </trkpt>
      <trkpt lat="46.93084" lon="8.6906">
        <ele>1792</ele>
        <time>2021-08-07T07:00:07.602Z</time>
      </trkpt>
      <trkpt lat="46.93085" lon="8.69062">
        <ele>1792</ele>
        <time>2021-08-07T07:00:08.601Z</time>
      </trkpt>
      <trkpt lat="46.93086" lon="8.69063">
        <ele>1793</ele>
        <time>2021-08-07T07:00:09.602Z</time>
      </trkpt>
      <trkpt lat="46.93085" lon="8.69063">
        <ele>1793</ele>
        <time>2021-08-07T07:00:10.601Z</time>
      </trkpt>
      <trkpt lat="46.93085" lon="8.69064">
        <ele>1794</ele>
        <time>2021-08-07T07:00:11.602Z</time>
      </trkpt>
      <trkpt lat="46.93085" lon="8.69064">
        <ele>1797</ele>
        <time>2021-08-07T07:00:12.603Z</time>
      </trkpt>
      <trkpt lat="46.93085" lon="8.69064">
        <ele>1797</ele>
        <time>2021-08-07T07:00:13.603Z</time>
      </trkpt>
      <trkpt lat="46.93082" lon="8.69062">
        <ele>1798</ele>
        <time>2021-08-07T07:00:14.603Z</time>
      </trkpt>
      <trkpt lat="46.93081" lon="8.69062">
        <ele>1798</ele>
        <time>2021-08-07T07:00:15.603Z</time>
      </trkpt>
      <trkpt lat="46.93081" lon="8.69062">
        <ele>1798</ele>
        <time>2021-08-07T07:00:16.602Z</time>
      </trkpt>
      <trkpt lat="46.9308" lon="8.69062">
        <ele>1798</ele>
        <time>2021-08-07T07:00:17.602Z</time>
      </trkpt>
      <trkpt lat="46.9308" lon="8.69062">
        <ele>1798</ele>
        <time>2021-08-07T07:00:18.602Z</time>
      </trkpt>
      <trkpt lat="46.9308" lon="8.69062">
        <ele>1798</ele>
        <time>2021-08-07T07:00:19.603Z</time>
      </trkpt>
      <trkpt lat="46.9308" lon="8.69063">
        <ele>1798</ele>
        <time>2021-08-07T07:00:20.602Z</time>
      </trkpt>
      <trkpt lat="46.93079" lon="8.69063">
        <ele>1798</ele>
        <time>2021-08-07T07:00:21.603Z</time>
      </trkpt>
      <trkpt lat="46.93078" lon="8.69063">
        <ele>1798</ele>
        <time>2021-08-07T07:00:22.603Z</time>
      </trkpt>
      <trkpt lat="46.93077" lon="8.69063">
        <ele>1797</ele>
        <time>2021-08-07T07:00:23.603Z</time>
      </trkpt>
      <trkpt lat="46.93077" lon="8.69063">
        <ele>1797</ele>
        <time>2021-08-07T07:00:24.602Z</time>
      </trkpt>
      <trkpt lat="46.93077" lon="8.69064">
        <ele>1796</ele>
        <time>2021-08-07T07:00:25.602Z</time>
      </trkpt>
      <trkpt lat="46.93076" lon="8.69065">
        <ele>1796</ele>
        <time>2021-08-07T07:00:26.603Z</time>
      </trkpt>
      <trkpt lat="46.93076" lon="8.69066">
        <ele>1795</ele>
        <time>2021-08-07T07:00:27.603Z</time>
      </trkpt>
      <trkpt lat="46.93076" lon="8.69067">
        <ele>1795</ele>
        <time>2021-08-07T07:00:28.603Z</time>
      </trkpt>
      <trkpt lat="46.93075" lon="8.69067">
        <ele>1794</ele>
        <time>2021-08-07T07:00:29.603Z</time>
      </trkpt>
      <trkpt lat="46.93074" lon="8.69067">
        <ele>1794</ele>
        <time>2021-08-07T07:00:30.602Z</time>
      </trkpt>
      <trkpt lat="46.93073" lon="8.69067">
        <ele>1794</ele>
        <time>2021-08-07T07:00:31.603Z</time>
      </trkpt>
      <trkpt lat="46.93072" lon="8.69067">
        <ele>1794</ele>
        <time>2021-08-07T07:00:32.603Z</time>
      </trkpt>
      <trkpt lat="46.93071" lon="8.69068">
        <ele>1793</ele>
        <time>2021-08-07T07:00:33.603Z</time>
      </trkpt>
      <trkpt lat="46.93071" lon="8.69068">
        <ele>1793</ele>
        <time>2021-08-07T07:00:34.603Z</time>
      </trkpt>
      <trkpt lat="46.9307" lon="8.69069">
        <ele>1793</ele>
        <time>2021-08-07T07:00:35.603Z</time>
      </trkpt>
      <trkpt lat="46.9307" lon="8.6907">
        <ele>1792</ele>
        <time>2021-08-07T07:00:36.603Z</time>
      </trkpt>
      <trkpt lat="46.93069" lon="8.69071">
        <ele>1792</ele>
        <time>2021-08-07T07:00:37.603Z</time>
      </trkpt>
      <trkpt lat="46.93069" lon="8.69073">
        <ele>1791</ele>
        <time>2021-08-07T07:00:38.602Z</time>
      </trkpt>
      <trkpt lat="46.93068" lon="8.69074">
        <ele>1791</ele>
        <time>2021-08-07T07:00:39.603Z</time>
      </trkpt>
      <trkpt lat="46.93068" lon="8.69075">
        <ele>1791</ele>
        <time>2021-08-07T07:00:40.602Z</time>
      </trkpt>
      <trkpt lat="46.93067" lon="8.69075">
        <ele>1790</ele>
        <time>2021-08-07T07:00:41.603Z</time>
      </trkpt>
      <trkpt lat="46.93066" lon="8.69076">
        <ele>1790</ele>
        <time>2021-08-07T07:00:42.603Z</time>
      </trkpt>
      <trkpt lat="46.93065" lon="8.69076">
        <ele>1790</ele>
        <time>2021-08-07T07:00:43.602Z</time>
      </trkpt>
      <trkpt lat="46.93065" lon="8.69076">
        <ele>1791</ele>
        <time>2021-08-07T07:00:44.603Z</time>
      </trkpt>
      <trkpt lat="46.93064" lon="8.69076">
        <ele>1791</ele>
        <time>2021-08-07T07:00:45.602Z</time>
      </trkpt>
      <trkpt lat="46.93064" lon="8.69077">
        <ele>1791</ele>
        <time>2021-08-07T07:00:46.603Z</time>
      </trkpt>
      <trkpt lat="46.93064" lon="8.69078">
        <ele>1791</ele>
        <time>2021-08-07T07:00:47.603Z</time>
      </trkpt>
      <trkpt lat="46.93064" lon="8.69079">
        <ele>1791</ele>
        <time>2021-08-07T07:00:48.602Z</time>
      </trkpt>
      <trkpt lat="46.93063" lon="8.69079">
        <ele>1790</ele>
        <time>2021-08-07T07:00:49.602Z</time>
      </trkpt>
      <trkpt lat="46.93063" lon="8.6908">
        <ele>1790</ele>
        <time>2021-08-07T07:00:50.603Z</time>
      </trkpt>
      <trkpt lat="46.93062" lon="8.6908">
        <ele>1789</ele>
        <time>2021-08-07T07:00:51.602Z</time>
      </trkpt>
      <trkpt lat="46.93062" lon="8.69081">
        <ele>1789</ele>
        <time>2021-08-07T07:00:52.602Z</time>
      </trkpt>
      <trkpt lat="46.93061" lon="8.69081">
        <ele>1788</ele>
        <time>2021-08-07T07:00:53.603Z</time>
      </trkpt>
      <trkpt lat="46.9306" lon="8.69082">
        <ele>1788</ele>
        <time>2021-08-07T07:00:54.603Z</time>
      </trkpt>
      <trkpt lat="46.93059" lon="8.69082">
        <ele>1788</ele>
        <time>2021-08-07T07:00:55.603Z</time>
      </trkpt>
      <trkpt lat="46.93058" lon="8.69082">
        <ele>1788</ele>
        <time>2021-08-07T07:00:56.603Z</time>
      </trkpt>
      <trkpt lat="46.93057" lon="8.69082">
        <ele>1788</ele>
        <time>2021-08-07T07:00:57.603Z</time>
      </trkpt>
      <trkpt lat="46.93057" lon="8.69083">
        <ele>1788</ele>
        <time>2021-08-07T07:00:58.603Z</time>
      </trkpt>
      <trkpt lat="46.93056" lon="8.69082">
        <ele>1788</ele>
        <time>2021-08-07T07:00:59.603Z</time>
      </trkpt>
      <trkpt lat="46.93056" lon="8.69082">
        <ele>1788</ele>
        <time>2021-08-07T07:01:00.603Z</time>
      </trkpt>
      <trkpt lat="46.93056" lon="8.69082">
        <ele>1788</ele>
        <time>2021-08-07T07:01:01.603Z</time>
      </trkpt>
      <trkpt lat="46.93054" lon="8.6908">
        <ele>1787</ele>
        <time>2021-08-07T07:01:02.602Z</time>
      </trkpt>
      <trkpt lat="46.93053" lon="8.69079">
        <ele>1787</ele>
        <time>2021-08-07T07:01:03.603Z</time>
      </trkpt>
      <trkpt lat="46.93052" lon="8.69078">
        <ele>1787</ele>
        <time>2021-08-07T07:01:04.602Z</time>
      </trkpt>
      <trkpt lat="46.93051" lon="8.69077">
        <ele>1787</ele>
        <time>2021-08-07T07:01:05.603Z</time>
      </trkpt>
      <trkpt lat="46.93051" lon="8.69076">
        <ele>1788</ele>
        <time>2021-08-07T07:01:06.603Z</time>
      </trkpt>
      <trkpt lat="46.93051" lon="8.69075">
        <ele>1788</ele>
        <time>2021-08-07T07:01:07.603Z</time>
      </trkpt>
      <trkpt lat="46.9305" lon="8.69074">
        <ele>1789</ele>
        <time>2021-08-07T07:01:08.603Z</time>
      </trkpt>
      <trkpt lat="46.93049" lon="8.69072">
        <ele>1789</ele>
        <time>2021-08-07T07:01:09.602Z</time>
      </trkpt>
      <trkpt lat="46.93049" lon="8.69071">
        <ele>1789</ele>
        <time>2021-08-07T07:01:10.603Z</time>
      </trkpt>
      <trkpt lat="46.93048" lon="8.6907">
        <ele>1790</ele>
        <time>2021-08-07T07:01:11.603Z</time>
      </trkpt>
      <trkpt lat="46.93047" lon="8.69069">
        <ele>1790</ele>
        <time>2021-08-07T07:01:12.603Z</time>
      </trkpt>
      <trkpt lat="46.93045" lon="8.69069">
        <ele>1791</ele>
        <time>2021-08-07T07:01:13.603Z</time>
      </trkpt>
      <trkpt lat="46.93044" lon="8.69068">
        <ele>1791</ele>
        <time>2021-08-07T07:01:14.602Z</time>
      </trkpt>
      <trkpt lat="46.93043" lon="8.69067">
        <ele>1791</ele>
        <time>2021-08-07T07:01:15.603Z</time>
      </trkpt>
      <trkpt lat="46.93043" lon="8.69067">
        <ele>1792</ele>
        <time>2021-08-07T07:01:16.603Z</time>
      </trkpt>
      <trkpt lat="46.93042" lon="8.69067">
        <ele>1792</ele>
        <time>2021-08-07T07:01:17.603Z</time>
      </trkpt>
      <trkpt lat="46.9304" lon="8.69067">
        <ele>1792</ele>
        <time>2021-08-07T07:01:18.602Z</time>
      </trkpt>
      <trkpt lat="46.93039" lon="8.69068">
        <ele>1792</ele>
        <time>2021-08-07T07:01:19.603Z</time>
      </trkpt>
      <trkpt lat="46.93039" lon="8.69069">
        <ele>1792</ele>
        <time>2021-08-07T07:01:20.602Z</time>
      </trkpt>
      <trkpt lat="46.93039" lon="8.69071">
        <ele>1792</ele>
        <time>2021-08-07T07:01:21.603Z</time>
      </trkpt>
      <trkpt lat="46.93038" lon="8.69072">
        <ele>1792</ele>
        <time>2021-08-07T07:01:22.603Z</time>
      </trkpt>
      <trkpt lat="46.93036" lon="8.69073">
        <ele>1792</ele>
        <time>2021-08-07T07:01:23.602Z</time>
      </trkpt>
      <trkpt lat="46.93036" lon="8.69074">
        <ele>1792</ele>
        <time>2021-08-07T07:01:24.603Z</time>
      </trkpt>
      <trkpt lat="46.93035" lon="8.69075">
        <ele>1792</ele>
        <time>2021-08-07T07:01:25.602Z</time>
      </trkpt>
      <trkpt lat="46.93034" lon="8.69076">
        <ele>1792</ele>
        <time>2021-08-07T07:01:26.602Z</time>
      </trkpt>
      <trkpt lat="46.93034" lon="8.69077">
        <ele>1791</ele>
        <time>2021-08-07T07:01:27.603Z</time>
      </trkpt>
      <trkpt lat="46.93033" lon="8.69078">
        <ele>1791</ele>
        <time>2021-08-07T07:01:28.603Z</time>
      </trkpt>
      <trkpt lat="46.93032" lon="8.69079">
        <ele>1791</ele>
        <time>2021-08-07T07:01:29.602Z</time>
      </trkpt>
      <trkpt lat="46.93031" lon="8.69079">
        <ele>1791</ele>
        <time>2021-08-07T07:01:30.603Z</time>
      </trkpt>
      <trkpt lat="46.9303" lon="8.69079">
        <ele>1791</ele>
        <time>2021-08-07T07:01:31.603Z</time>
      </trkpt>
      <trkpt lat="46.93029" lon="8.69079">
        <ele>1791</ele>
        <time>2021-08-07T07:01:32.603Z</time>
      </trkpt>
      <trkpt lat="46.93028" lon="8.69079">
        <ele>1790</ele>
        <time>2021-08-07T07:01:33.603Z</time>
      </trkpt>
      <trkpt lat="46.93028" lon="8.69079">
        <ele>1790</ele>
        <time>2021-08-07T07:01:34.603Z</time>
      </trkpt>
      <trkpt lat="46.93028" lon="8.69079">
        <ele>1790</ele>
        <time>2021-08-07T07:01:35.602Z</time>
      </trkpt>
      <trkpt lat="46.93027" lon="8.6908">
        <ele>1790</ele>
        <time>2021-08-07T07:01:36.603Z</time>
      </trkpt>
      <trkpt lat="46.93027" lon="8.6908">
        <ele>1790</ele>
        <time>2021-08-07T07:01:37.603Z</time>
      </trkpt>
      <trkpt lat="46.93027" lon="8.6908">
        <ele>1790</ele>
        <time>2021-08-07T07:01:38.602Z</time>
      </trkpt>
      <trkpt lat="46.93027" lon="8.69081">
        <ele>1790</ele>
        <time>2021-08-07T07:01:39.603Z</time>
      </trkpt>
      <trkpt lat="46.93027" lon="8.69082">
        <ele>1790</ele>
        <time>2021-08-07T07:01:40.603Z</time>
      </trkpt>
      <trkpt lat="46.93027" lon="8.69082">
        <ele>1790</ele>
        <time>2021-08-07T07:01:41.603Z</time>
      </trkpt>
      <trkpt lat="46.93026" lon="8.69082">
        <ele>1790</ele>
        <time>2021-08-07T07:01:42.603Z</time>
      </trkpt>
      <trkpt lat="46.93025" lon="8.69082">
        <ele>1789</ele>
        <time>2021-08-07T07:01:43.602Z</time>
      </trkpt>
      <trkpt lat="46.93025" lon="8.69083">
        <ele>1789</ele>
        <time>2021-08-07T07:01:44.603Z</time>
      </trkpt>
      <trkpt lat="46.93024" lon="8.69083">
        <ele>1789</ele>
        <time>2021-08-07T07:01:45.603Z</time>
      </trkpt>
      <trkpt lat="46.93024" lon="8.69082">
        <ele>1788</ele>
        <time>2021-08-07T07:01:46.603Z</time>
      </trkpt>
      <trkpt lat="46.93025" lon="8.69081">
        <ele>1789</ele>
        <time>2021-08-07T07:01:47.603Z</time>
      </trkpt>
      <trkpt lat="46.93024" lon="8.69081">
        <ele>1789</ele>
        <time>2021-08-07T07:01:48.602Z</time>
      </trkpt>
      <trkpt lat="46.93024" lon="8.69081">
        <ele>1789</ele>
        <time>2021-08-07T07:01:49.602Z</time>
      </trkpt>
      <trkpt lat="46.93024" lon="8.69081">
        <ele>1789</ele>
        <time>2021-08-07T07:01:50.603Z</time>
      </trkpt>
      <trkpt lat="46.93023" lon="8.6908">
        <ele>1788</ele>
        <time>2021-08-07T07:01:51.604Z</time>
      </trkpt>
      <trkpt lat="46.93023" lon="8.6908">
        <ele>1787</ele>
        <time>2021-08-07T07:01:52.605Z</time>
      </trkpt>
      <trkpt lat="46.93022" lon="8.69079">
        <ele>1787</ele>
        <time>2021-08-07T07:01:53.604Z</time>
      </trkpt>
      <trkpt lat="46.93021" lon="8.69078">
        <ele>1787</ele>
        <time>2021-08-07T07:01:54.605Z</time>
      </trkpt>
      <trkpt lat="46.9302" lon="8.69077">
        <ele>1787</ele>
        <time>2021-08-07T07:01:55.605Z</time>
      </trkpt>
      <trkpt lat="46.93019" lon="8.69077">
        <ele>1787</ele>
        <time>2021-08-07T07:01:56.605Z</time>
      </trkpt>
      <trkpt lat="46.93018" lon="8.69077">
        <ele>1787</ele>
        <time>2021-08-07T07:01:57.604Z</time>
      </trkpt>
      <trkpt lat="46.93018" lon="8.69077">
        <ele>1787</ele>
        <time>2021-08-07T07:01:58.605Z</time>
      </trkpt>
      <trkpt lat="46.93016" lon="8.69076">
        <ele>1787</ele>
        <time>2021-08-07T07:01:59.605Z</time>
      </trkpt>
      <trkpt lat="46.93015" lon="8.69076">
        <ele>1787</ele>
        <time>2021-08-07T07:02:00.604Z</time>
      </trkpt>
      <trkpt lat="46.93014" lon="8.69076">
        <ele>1787</ele>
        <time>2021-08-07T07:02:01.605Z</time>
      </trkpt>
      <trkpt lat="46.93013" lon="8.69075">
        <ele>1787</ele>
        <time>2021-08-07T07:02:02.605Z</time>
      </trkpt>
      <trkpt lat="46.93012" lon="8.69075">
        <ele>1787</ele>
        <time>2021-08-07T07:02:03.604Z</time>
      </trkpt>
      <trkpt lat="46.93011" lon="8.69074">
        <ele>1788</ele>
        <time>2021-08-07T07:02:04.604Z</time>
      </trkpt>
      <trkpt lat="46.9301" lon="8.69073">
        <ele>1788</ele>
        <time>2021-08-07T07:02:05.605Z</time>
      </trkpt>
      <trkpt lat="46.93008" lon="8.69073">
        <ele>1788</ele>
        <time>2021-08-07T07:02:06.605Z</time>
      </trkpt>
      <trkpt lat="46.93007" lon="8.69072">
        <ele>1789</ele>
        <time>2021-08-07T07:02:07.605Z</time>
      </trkpt>
      <trkpt lat="46.93008" lon="8.69073">
        <ele>1788</ele>
        <time>2021-08-07T07:02:08.605Z</time>
      </trkpt>
      <trkpt lat="46.93006" lon="8.69072">
        <ele>1788</ele>
        <time>2021-08-07T07:02:09.605Z</time>
      </trkpt>
      <trkpt lat="46.93005" lon="8.69071">
        <ele>1788</ele>
        <time>2021-08-07T07:02:10.604Z</time>
      </trkpt>
      <trkpt lat="46.93004" lon="8.69071">
        <ele>1788</ele>
        <time>2021-08-07T07:02:11.605Z</time>
      </trkpt>
      <trkpt lat="46.93003" lon="8.69071">
        <ele>1788</ele>
        <time>2021-08-07T07:02:12.605Z</time>
      </trkpt>
      <trkpt lat="46.93002" lon="8.6907">
        <ele>1789</ele>
        <time>2021-08-07T07:02:13.605Z</time>
      </trkpt>
      <trkpt lat="46.93002" lon="8.6907">
        <ele>1789</ele>
        <time>2021-08-07T07:02:14.604Z</time>
      </trkpt>
      <trkpt lat="46.93002" lon="8.6907">
        <ele>1790</ele>
        <time>2021-08-07T07:02:15.605Z</time>
      </trkpt>
      <trkpt lat="46.93001" lon="8.69068">
        <ele>1790</ele>
        <time>2021-08-07T07:02:16.605Z</time>
      </trkpt>
      <trkpt lat="46.93" lon="8.69067">
        <ele>1790</ele>
        <time>2021-08-07T07:02:17.604Z</time>
      </trkpt>
      <trkpt lat="46.93" lon="8.69067">
        <ele>1790</ele>
        <time>2021-08-07T07:02:18.605Z</time>
      </trkpt>
      <trkpt lat="46.92999" lon="8.69067">
        <ele>1790</ele>
        <time>2021-08-07T07:02:19.604Z</time>
      </trkpt>
      <trkpt lat="46.92998" lon="8.69066">
        <ele>1790</ele>
        <time>2021-08-07T07:02:20.605Z</time>
      </trkpt>
      <trkpt lat="46.92997" lon="8.69065">
        <ele>1790</ele>
        <time>2021-08-07T07:02:21.605Z</time>
      </trkpt>
      <trkpt lat="46.92996" lon="8.69063">
        <ele>1790</ele>
        <time>2021-08-07T07:02:22.604Z</time>
      </trkpt>
      <trkpt lat="46.92994" lon="8.69062">
        <ele>1791</ele>
        <time>2021-08-07T07:02:23.605Z</time>
      </trkpt>
      <trkpt lat="46.92993" lon="8.69061">
        <ele>1791</ele>
        <time>2021-08-07T07:02:24.604Z</time>
      </trkpt>
      <trkpt lat="46.92992" lon="8.69061">
        <ele>1791</ele>
        <time>2021-08-07T07:02:25.604Z</time>
      </trkpt>
      <trkpt lat="46.92991" lon="8.69061">
        <ele>1792</ele>
        <time>2021-08-07T07:02:26.605Z</time>
      </trkpt>
      <trkpt lat="46.92991" lon="8.69061">
        <ele>1793</ele>
        <time>2021-08-07T07:02:27.605Z</time>
      </trkpt>
      <trkpt lat="46.92991" lon="8.69062">
        <ele>1793</ele>
        <time>2021-08-07T07:02:28.605Z</time>
      </trkpt>
      <trkpt lat="46.92991" lon="8.69063">
        <ele>1793</ele>
        <time>2021-08-07T07:02:29.605Z</time>
      </trkpt>
      <trkpt lat="46.92991" lon="8.69064">
        <ele>1793</ele>
        <time>2021-08-07T07:02:30.604Z</time>
      </trkpt>
      <trkpt lat="46.9299" lon="8.69064">
        <ele>1793</ele>
        <time>2021-08-07T07:02:31.604Z</time>
      </trkpt>
      <trkpt lat="46.9299" lon="8.69064">
        <ele>1793</ele>
        <time>2021-08-07T07:02:32.604Z</time>
      </trkpt>
      <trkpt lat="46.92989" lon="8.69064">
        <ele>1794</ele>
        <time>2021-08-07T07:02:33.604Z</time>
      </trkpt>
      <trkpt lat="46.92988" lon="8.69063">
        <ele>1794</ele>
        <time>2021-08-07T07:02:34.605Z</time>
      </trkpt>
      <trkpt lat="46.92987" lon="8.69063">
        <ele>1794</ele>
        <time>2021-08-07T07:02:35.604Z</time>
      </trkpt>
      <trkpt lat="46.92987" lon="8.69064">
        <ele>1794</ele>
        <time>2021-08-07T07:02:36.605Z</time>
      </trkpt>
      <trkpt lat="46.92986" lon="8.69064">
        <ele>1794</ele>
        <time>2021-08-07T07:02:37.605Z</time>
      </trkpt>
      <trkpt lat="46.92985" lon="8.69063">
        <ele>1794</ele>
        <time>2021-08-07T07:02:38.605Z</time>
      </trkpt>
      <trkpt lat="46.92984" lon="8.69064">
        <ele>1794</ele>
        <time>2021-08-07T07:02:39.605Z</time>
      </trkpt>
      <trkpt lat="46.92983" lon="8.69064">
        <ele>1794</ele>
        <time>2021-08-07T07:02:40.605Z</time>
      </trkpt>
      <trkpt lat="46.92983" lon="8.69065">
        <ele>1794</ele>
        <time>2021-08-07T07:02:41.604Z</time>
      </trkpt>
      <trkpt lat="46.92982" lon="8.69064">
        <ele>1793</ele>
        <time>2021-08-07T07:02:42.605Z</time>
      </trkpt>
      <trkpt lat="46.92981" lon="8.69064">
        <ele>1793</ele>
        <time>2021-08-07T07:02:43.604Z</time>
      </trkpt>
      <trkpt lat="46.9298" lon="8.69063">
        <ele>1792</ele>
        <time>2021-08-07T07:02:44.605Z</time>
      </trkpt>
      <trkpt lat="46.92979" lon="8.69063">
        <ele>1792</ele>
        <time>2021-08-07T07:02:45.604Z</time>
      </trkpt>
      <trkpt lat="46.92978" lon="8.69062">
        <ele>1792</ele>
        <time>2021-08-07T07:02:46.605Z</time>
      </trkpt>
      <trkpt lat="46.92977" lon="8.69062">
        <ele>1792</ele>
        <time>2021-08-07T07:02:47.604Z</time>
      </trkpt>
      <trkpt lat="46.92977" lon="8.69061">
        <ele>1792</ele>
        <time>2021-08-07T07:02:48.604Z</time>
      </trkpt>
      <trkpt lat="46.92976" lon="8.69061">
        <ele>1792</ele>
        <time>2021-08-07T07:02:49.604Z</time>
      </trkpt>
      <trkpt lat="46.92975" lon="8.6906">
        <ele>1793</ele>
        <time>2021-08-07T07:02:50.605Z</time>
      </trkpt>
      <trkpt lat="46.92974" lon="8.69059">
        <ele>1794</ele>
        <time>2021-08-07T07:02:51.605Z</time>
      </trkpt>
      <trkpt lat="46.92973" lon="8.69057">
        <ele>1794</ele>
        <time>2021-08-07T07:02:52.605Z</time>
      </trkpt>
      <trkpt lat="46.92972" lon="8.69056">
        <ele>1795</ele>
        <time>2021-08-07T07:02:53.604Z</time>
      </trkpt>
      <trkpt lat="46.92971" lon="8.69056">
        <ele>1796</ele>
        <time>2021-08-07T07:02:54.605Z</time>
      </trkpt>
      <trkpt lat="46.92971" lon="8.69056">
        <ele>1796</ele>
        <time>2021-08-07T07:02:55.604Z</time>
      </trkpt>
      <trkpt lat="46.9297" lon="8.69055">
        <ele>1797</ele>
        <time>2021-08-07T07:02:56.605Z</time>
      </trkpt>
      <trkpt lat="46.9297" lon="8.69054">
        <ele>1797</ele>
        <time>2021-08-07T07:02:57.605Z</time>
      </trkpt>
      <trkpt lat="46.9297" lon="8.69055">
        <ele>1797</ele>
        <time>2021-08-07T07:02:58.605Z</time>
      </trkpt>
      <trkpt lat="46.9297" lon="8.69055">
        <ele>1798</ele>
        <time>2021-08-07T07:02:59.605Z</time>
      </trkpt>
      <trkpt lat="46.92968" lon="8.69052">
        <ele>1798</ele>
        <time>2021-08-07T07:03:00.605Z</time>
      </trkpt>
      <trkpt lat="46.92966" lon="8.69051">
        <ele>1799</ele>
        <time>2021-08-07T07:03:01.604Z</time>
      </trkpt>
      <trkpt lat="46.92966" lon="8.6905">
        <ele>1799</ele>
        <time>2021-08-07T07:03:02.605Z</time>
      </trkpt>
      <trkpt lat="46.92965" lon="8.69045">
        <ele>1800</ele>
        <time>2021-08-07T07:03:03.605Z</time>
      </trkpt>
      <trkpt lat="46.92964" lon="8.69043">
        <ele>1801</ele>
        <time>2021-08-07T07:03:04.605Z</time>
      </trkpt>
      <trkpt lat="46.92963" lon="8.69042">
        <ele>1802</ele>
        <time>2021-08-07T07:03:05.605Z</time>
      </trkpt>
      <trkpt lat="46.92963" lon="8.69042">
        <ele>1803</ele>
        <time>2021-08-07T07:03:06.604Z</time>
      </trkpt>
      <trkpt lat="46.92963" lon="8.69042">
        <ele>1804</ele>
        <time>2021-08-07T07:03:07.605Z</time>
      </trkpt>
      <trkpt lat="46.92963" lon="8.69043">
        <ele>1806</ele>
        <time>2021-08-07T07:03:08.605Z</time>
      </trkpt>
      <trkpt lat="46.92963" lon="8.69044">
        <ele>1806</ele>
        <time>2021-08-07T07:03:09.605Z</time>
      </trkpt>
      <trkpt lat="46.92963" lon="8.69045">
        <ele>1807</ele>
        <time>2021-08-07T07:03:10.604Z</time>
      </trkpt>
      <trkpt lat="46.92962" lon="8.69045">
        <ele>1807</ele>
        <time>2021-08-07T07:03:11.604Z</time>
      </trkpt>
      <trkpt lat="46.92962" lon="8.69045">
        <ele>1807</ele>
        <time>2021-08-07T07:03:12.605Z</time>
      </trkpt>
      <trkpt lat="46.92961" lon="8.69045">
        <ele>1808</ele>
        <time>2021-08-07T07:03:13.604Z</time>
      </trkpt>
      <trkpt lat="46.92961" lon="8.69046">
        <ele>1808</ele>
        <time>2021-08-07T07:03:14.605Z</time>
      </trkpt>
      <trkpt lat="46.92961" lon="8.69047">
        <ele>1808</ele>
        <time>2021-08-07T07:03:15.605Z</time>
      </trkpt>
      <trkpt lat="46.92961" lon="8.69048">
        <ele>1808</ele>
        <time>2021-08-07T07:03:16.605Z</time>
      </trkpt>
      <trkpt lat="46.92961" lon="8.69049">
        <ele>1809</ele>
        <time>2021-08-07T07:03:17.605Z</time>
      </trkpt>
      <trkpt lat="46.9296" lon="8.69049">
        <ele>1809</ele>
        <time>2021-08-07T07:03:18.605Z</time>
      </trkpt>
      <trkpt lat="46.92959" lon="8.69049">
        <ele>1809</ele>
        <time>2021-08-07T07:03:19.605Z</time>
      </trkpt>
      <trkpt lat="46.92959" lon="8.69048">
        <ele>1810</ele>
        <time>2021-08-07T07:03:20.605Z</time>
      </trkpt>
      <trkpt lat="46.92958" lon="8.69048">
        <ele>1810</ele>
        <time>2021-08-07T07:03:21.605Z</time>
      </trkpt>
      <trkpt lat="46.92958" lon="8.69049">
        <ele>1811</ele>
        <time>2021-08-07T07:03:22.604Z</time>
      </trkpt>
      <trkpt lat="46.92958" lon="8.69051">
        <ele>1811</ele>
        <time>2021-08-07T07:03:23.605Z</time>
      </trkpt>
      <trkpt lat="46.92957" lon="8.69051">
        <ele>1811</ele>
        <time>2021-08-07T07:03:24.604Z</time>
      </trkpt>
      <trkpt lat="46.92956" lon="8.69052">
        <ele>1812</ele>
        <time>2021-08-07T07:03:25.605Z</time>
      </trkpt>
      <trkpt lat="46.92956" lon="8.69054">
        <ele>1811</ele>
        <time>2021-08-07T07:03:26.605Z</time>
      </trkpt>
      <trkpt lat="46.92955" lon="8.69055">
        <ele>1811</ele>
        <time>2021-08-07T07:03:27.604Z</time>
      </trkpt>
      <trkpt lat="46.92956" lon="8.69056">
        <ele>1811</ele>
        <time>2021-08-07T07:03:28.605Z</time>
      </trkpt>
      <trkpt lat="46.92955" lon="8.69056">
        <ele>1811</ele>
        <time>2021-08-07T07:03:29.605Z</time>
      </trkpt>
      <trkpt lat="46.92955" lon="8.69057">
        <ele>1811</ele>
        <time>2021-08-07T07:03:30.604Z</time>
      </trkpt>
      <trkpt lat="46.92955" lon="8.69058">
        <ele>1811</ele>
        <time>2021-08-07T07:03:31.605Z</time>
      </trkpt>
      <trkpt lat="46.92955" lon="8.69059">
        <ele>1811</ele>
        <time>2021-08-07T07:03:32.605Z</time>
      </trkpt>
      <trkpt lat="46.92955" lon="8.69059">
        <ele>1811</ele>
        <time>2021-08-07T07:03:33.605Z</time>
      </trkpt>
      <trkpt lat="46.92955" lon="8.6906">
        <ele>1810</ele>
        <time>2021-08-07T07:03:34.605Z</time>
      </trkpt>
      <trkpt lat="46.92955" lon="8.69061">
        <ele>1810</ele>
        <time>2021-08-07T07:03:35.605Z</time>
      </trkpt>
      <trkpt lat="46.92954" lon="8.69061">
        <ele>1809</ele>
        <time>2021-08-07T07:03:36.605Z</time>
      </trkpt>
      <trkpt lat="46.92953" lon="8.69061">
        <ele>1808</ele>
        <time>2021-08-07T07:03:37.604Z</time>
      </trkpt>
      <trkpt lat="46.92953" lon="8.69062">
        <ele>1808</ele>
        <time>2021-08-07T07:03:38.604Z</time>
      </trkpt>
      <trkpt lat="46.92952" lon="8.69063">
        <ele>1807</ele>
        <time>2021-08-07T07:03:39.604Z</time>
      </trkpt>
      <trkpt lat="46.92952" lon="8.69063">
        <ele>1806</ele>
        <time>2021-08-07T07:03:40.605Z</time>
      </trkpt>
      <trkpt lat="46.92951" lon="8.69063">
        <ele>1806</ele>
        <time>2021-08-07T07:03:41.605Z</time>
      </trkpt>
      <trkpt lat="46.9295" lon="8.69063">
        <ele>1805</ele>
        <time>2021-08-07T07:03:42.605Z</time>
      </trkpt>
      <trkpt lat="46.9295" lon="8.69063">
        <ele>1805</ele>
        <time>2021-08-07T07:03:43.605Z</time>
      </trkpt>
      <trkpt lat="46.92949" lon="8.69064">
        <ele>1804</ele>
        <time>2021-08-07T07:03:44.605Z</time>
      </trkpt>
      <trkpt lat="46.92948" lon="8.69063">
        <ele>1804</ele>
        <time>2021-08-07T07:03:45.605Z</time>
      </trkpt>
      <trkpt lat="46.92948" lon="8.69063">
        <ele>1803</ele>
        <time>2021-08-07T07:03:46.605Z</time>
      </trkpt>
      <trkpt lat="46.92947" lon="8.69065">
        <ele>1803</ele>
        <time>2021-08-07T07:03:47.604Z</time>
      </trkpt>
      <trkpt lat="46.92946" lon="8.69066">
        <ele>1803</ele>
        <time>2021-08-07T07:03:48.605Z</time>
      </trkpt>
      <trkpt lat="46.92946" lon="8.69066">
        <ele>1802</ele>
        <time>2021-08-07T07:03:49.605Z</time>
      </trkpt>
      <trkpt lat="46.92946" lon="8.69066">
        <ele>1802</ele>
        <time>2021-08-07T07:03:50.605Z</time>
      </trkpt>
      <trkpt lat="46.92949" lon="8.69065">
        <ele>1802</ele>
        <time>2021-08-07T07:03:51.605Z</time>
      </trkpt>
      <trkpt lat="46.92949" lon="8.69065">
        <ele>1803</ele>
        <time>2021-08-07T07:03:52.605Z</time>
      </trkpt>
      <trkpt lat="46.92949" lon="8.69063">
        <ele>1803</ele>
        <time>2021-08-07T07:03:53.605Z</time>
      </trkpt>
      <trkpt lat="46.92948" lon="8.69061">
        <ele>1803</ele>
        <time>2021-08-07T07:03:54.605Z</time>
      </trkpt>
      <trkpt lat="46.92946" lon="8.6906">
        <ele>1804</ele>
        <time>2021-08-07T07:03:55.605Z</time>
      </trkpt>
      <trkpt lat="46.92945" lon="8.6906">
        <ele>1805</ele>
        <time>2021-08-07T07:03:56.605Z</time>
      </trkpt>
      <trkpt lat="46.92944" lon="8.69059">
        <ele>1805</ele>
        <time>2021-08-07T07:03:57.604Z</time>
      </trkpt>
      <trkpt lat="46.92943" lon="8.69059">
        <ele>1806</ele>
        <time>2021-08-07T07:03:58.605Z</time>
      </trkpt>
      <trkpt lat="46.92942" lon="8.6906">
        <ele>1806</ele>
        <time>2021-08-07T07:03:59.604Z</time>
      </trkpt>
      <trkpt lat="46.92941" lon="8.6906">
        <ele>1807</ele>
        <time>2021-08-07T07:04:00.605Z</time>
      </trkpt>
      <trkpt lat="46.9294" lon="8.69061">
        <ele>1807</ele>
        <time>2021-08-07T07:04:01.604Z</time>
      </trkpt>
      <trkpt lat="46.9294" lon="8.69061">
        <ele>1808</ele>
        <time>2021-08-07T07:04:02.605Z</time>
      </trkpt>
      <trkpt lat="46.92939" lon="8.69062">
        <ele>1808</ele>
        <time>2021-08-07T07:04:03.604Z</time>
      </trkpt>
      <trkpt lat="46.92938" lon="8.69062">
        <ele>1808</ele>
        <time>2021-08-07T07:04:04.604Z</time>
      </trkpt>
      <trkpt lat="46.92937" lon="8.69062">
        <ele>1808</ele>
        <time>2021-08-07T07:04:05.605Z</time>
      </trkpt>
      <trkpt lat="46.92937" lon="8.69062">
        <ele>1808</ele>
        <time>2021-08-07T07:04:06.605Z</time>
      </trkpt>
      <trkpt lat="46.92936" lon="8.69063">
        <ele>1807</ele>
        <time>2021-08-07T07:04:07.605Z</time>
      </trkpt>
      <trkpt lat="46.92936" lon="8.69063">
        <ele>1807</ele>
        <time>2021-08-07T07:04:08.605Z</time>
      </trkpt>
      <trkpt lat="46.92935" lon="8.69064">
        <ele>1806</ele>
        <time>2021-08-07T07:04:09.604Z</time>
      </trkpt>
      <trkpt lat="46.92933" lon="8.69065">
        <ele>1806</ele>
        <time>2021-08-07T07:04:10.605Z</time>
      </trkpt>
      <trkpt lat="46.92933" lon="8.69065">
        <ele>1805</ele>
        <time>2021-08-07T07:04:11.605Z</time>
      </trkpt>
      <trkpt lat="46.92933" lon="8.69065">
        <ele>1805</ele>
        <time>2021-08-07T07:04:12.604Z</time>
      </trkpt>
      <trkpt lat="46.92933" lon="8.69066">
        <ele>1804</ele>
        <time>2021-08-07T07:04:13.604Z</time>
      </trkpt>
      <trkpt lat="46.92933" lon="8.69068">
        <ele>1804</ele>
        <time>2021-08-07T07:04:14.605Z</time>
      </trkpt>
      <trkpt lat="46.92933" lon="8.69069">
        <ele>1804</ele>
        <time>2021-08-07T07:04:15.605Z</time>
      </trkpt>
      <trkpt lat="46.92933" lon="8.69069">
        <ele>1804</ele>
        <time>2021-08-07T07:04:16.605Z</time>
      </trkpt>
      <trkpt lat="46.92932" lon="8.69069">
        <ele>1804</ele>
        <time>2021-08-07T07:04:17.605Z</time>
      </trkpt>
      <trkpt lat="46.92931" lon="8.69069">
        <ele>1804</ele>
        <time>2021-08-07T07:04:18.605Z</time>
      </trkpt>
      <trkpt lat="46.9293" lon="8.69068">
        <ele>1804</ele>
        <time>2021-08-07T07:04:19.605Z</time>
      </trkpt>
      <trkpt lat="46.9293" lon="8.69068">
        <ele>1804</ele>
        <time>2021-08-07T07:04:20.604Z</time>
      </trkpt>
      <trkpt lat="46.9293" lon="8.69068">
        <ele>1805</ele>
        <time>2021-08-07T07:04:21.605Z</time>
      </trkpt>
      <trkpt lat="46.92929" lon="8.69069">
        <ele>1805</ele>
        <time>2021-08-07T07:04:22.605Z</time>
      </trkpt>
      <trkpt lat="46.92928" lon="8.69069">
        <ele>1805</ele>
        <time>2021-08-07T07:04:23.605Z</time>
      </trkpt>
      <trkpt lat="46.92927" lon="8.69069">
        <ele>1805</ele>
        <time>2021-08-07T07:04:24.605Z</time>
      </trkpt>
      <trkpt lat="46.92926" lon="8.69069">
        <ele>1806</ele>
        <time>2021-08-07T07:04:25.604Z</time>
      </trkpt>
      <trkpt lat="46.92925" lon="8.6907">
        <ele>1806</ele>
        <time>2021-08-07T07:04:26.605Z</time>
      </trkpt>
      <trkpt lat="46.92924" lon="8.6907">
        <ele>1806</ele>
        <time>2021-08-07T07:04:27.605Z</time>
      </trkpt>
      <trkpt lat="46.92923" lon="8.6907">
        <ele>1806</ele>
        <time>2021-08-07T07:04:28.604Z</time>
      </trkpt>
      <trkpt lat="46.92921" lon="8.6907">
        <ele>1807</ele>
        <time>2021-08-07T07:04:29.605Z</time>
      </trkpt>
      <trkpt lat="46.9292" lon="8.6907">
        <ele>1807</ele>
        <time>2021-08-07T07:04:30.605Z</time>
      </trkpt>
      <trkpt lat="46.92919" lon="8.6907">
        <ele>1807</ele>
        <time>2021-08-07T07:04:31.605Z</time>
      </trkpt>
      <trkpt lat="46.92917" lon="8.69069">
        <ele>1807</ele>
        <time>2021-08-07T07:04:32.605Z</time>
      </trkpt>
      <trkpt lat="46.92916" lon="8.69069">
        <ele>1807</ele>
        <time>2021-08-07T07:04:33.605Z</time>
      </trkpt>
      <trkpt lat="46.92916" lon="8.6907">
        <ele>1808</ele>
        <time>2021-08-07T07:04:34.605Z</time>
      </trkpt>
      <trkpt lat="46.92915" lon="8.69071">
        <ele>1808</ele>
        <time>2021-08-07T07:04:35.605Z</time>
      </trkpt>
      <trkpt lat="46.92914" lon="8.69071">
        <ele>1808</ele>
        <time>2021-08-07T07:04:36.605Z</time>
      </trkpt>
      <trkpt lat="46.92913" lon="8.69072">
        <ele>1808</ele>
        <time>2021-08-07T07:04:37.605Z</time>
      </trkpt>
      <trkpt lat="46.92913" lon="8.69073">
        <ele>1808</ele>
        <time>2021-08-07T07:04:38.605Z</time>
      </trkpt>
      <trkpt lat="46.92913" lon="8.69073">
        <ele>1808</ele>
        <time>2021-08-07T07:04:39.605Z</time>
      </trkpt>
      <trkpt lat="46.92912" lon="8.69074">
        <ele>1808</ele>
        <time>2021-08-07T07:04:40.605Z</time>
      </trkpt>
      <trkpt lat="46.92912" lon="8.69074">
        <ele>1808</ele>
        <time>2021-08-07T07:04:41.605Z</time>
      </trkpt>
      <trkpt lat="46.92911" lon="8.69074">
        <ele>1808</ele>
        <time>2021-08-07T07:04:42.605Z</time>
      </trkpt>
      <trkpt lat="46.9291" lon="8.69074">
        <ele>1808</ele>
        <time>2021-08-07T07:04:43.605Z</time>
      </trkpt>
      <trkpt lat="46.9291" lon="8.69075">
        <ele>1808</ele>
        <time>2021-08-07T07:04:44.605Z</time>
      </trkpt>
      <trkpt lat="46.92909" lon="8.69075">
        <ele>1807</ele>
        <time>2021-08-07T07:04:45.605Z</time>
      </trkpt>
      <trkpt lat="46.92908" lon="8.69076">
        <ele>1807</ele>
        <time>2021-08-07T07:04:46.604Z</time>
      </trkpt>
      <trkpt lat="46.92907" lon="8.69076">
        <ele>1806</ele>
        <time>2021-08-07T07:04:47.605Z</time>
      </trkpt>
      <trkpt lat="46.92906" lon="8.69076">
        <ele>1806</ele>
        <time>2021-08-07T07:04:48.604Z</time>
      </trkpt>
      <trkpt lat="46.92905" lon="8.69075">
        <ele>1806</ele>
        <time>2021-08-07T07:04:49.605Z</time>
      </trkpt>
      <trkpt lat="46.92905" lon="8.69077">
        <ele>1806</ele>
        <time>2021-08-07T07:04:50.605Z</time>
      </trkpt>
      <trkpt lat="46.92904" lon="8.69077">
        <ele>1805</ele>
        <time>2021-08-07T07:04:51.604Z</time>
      </trkpt>
      <trkpt lat="46.92904" lon="8.69077">
        <ele>1805</ele>
        <time>2021-08-07T07:04:52.604Z</time>
      </trkpt>
      <trkpt lat="46.92902" lon="8.69076">
        <ele>1804</ele>
        <time>2021-08-07T07:04:53.605Z</time>
      </trkpt>
      <trkpt lat="46.92901" lon="8.69076">
        <ele>1805</ele>
        <time>2021-08-07T07:04:54.604Z</time>
      </trkpt>
      <trkpt lat="46.929" lon="8.69076">
        <ele>1805</ele>
        <time>2021-08-07T07:04:55.605Z</time>
      </trkpt>
      <trkpt lat="46.92899" lon="8.69076">
        <ele>1805</ele>
        <time>2021-08-07T07:04:56.605Z</time>
      </trkpt>
      <trkpt lat="46.92898" lon="8.69076">
        <ele>1806</ele>
        <time>2021-08-07T07:04:57.605Z</time>
      </trkpt>
      <trkpt lat="46.92898" lon="8.69077">
        <ele>1806</ele>
        <time>2021-08-07T07:04:58.605Z</time>
      </trkpt>
      <trkpt lat="46.92897" lon="8.69078">
        <ele>1806</ele>
        <time>2021-08-07T07:04:59.604Z</time>
      </trkpt>
      <trkpt lat="46.92897" lon="8.69078">
        <ele>1807</ele>
        <time>2021-08-07T07:05:00.605Z</time>
      </trkpt>
      <trkpt lat="46.92896" lon="8.6908">
        <ele>1807</ele>
        <time>2021-08-07T07:05:01.605Z</time>
      </trkpt>
      <trkpt lat="46.92896" lon="8.6908">
        <ele>1807</ele>
        <time>2021-08-07T07:05:02.604Z</time>
      </trkpt>
      <trkpt lat="46.92895" lon="8.6908">
        <ele>1807</ele>
        <time>2021-08-07T07:05:03.604Z</time>
      </trkpt>
      <trkpt lat="46.92894" lon="8.6908">
        <ele>1807</ele>
        <time>2021-08-07T07:05:04.604Z</time>
      </trkpt>
      <trkpt lat="46.92893" lon="8.6908">
        <ele>1807</ele>
        <time>2021-08-07T07:05:05.604Z</time>
      </trkpt>
      <trkpt lat="46.92892" lon="8.6908">
        <ele>1807</ele>
        <time>2021-08-07T07:05:06.605Z</time>
      </trkpt>
      <trkpt lat="46.92892" lon="8.69079">
        <ele>1808</ele>
        <time>2021-08-07T07:05:07.604Z</time>
      </trkpt>
      <trkpt lat="46.92892" lon="8.69079">
        <ele>1808</ele>
        <time>2021-08-07T07:05:08.605Z</time>
      </trkpt>
      <trkpt lat="46.92891" lon="8.69079">
        <ele>1808</ele>
        <time>2021-08-07T07:05:09.605Z</time>
      </trkpt>
      <trkpt lat="46.9289" lon="8.69079">
        <ele>1809</ele>
        <time>2021-08-07T07:05:10.605Z</time>
      </trkpt>
      <trkpt lat="46.9289" lon="8.69079">
        <ele>1809</ele>
        <time>2021-08-07T07:05:11.605Z</time>
      </trkpt>
      <trkpt lat="46.92889" lon="8.69078">
        <ele>1809</ele>
        <time>2021-08-07T07:05:12.604Z</time>
      </trkpt>
      <trkpt lat="46.92889" lon="8.69078">
        <ele>1809</ele>
        <time>2021-08-07T07:05:13.605Z</time>
      </trkpt>
      <trkpt lat="46.92888" lon="8.69078">
        <ele>1809</ele>
        <time>2021-08-07T07:05:14.605Z</time>
      </trkpt>
      <trkpt lat="46.92887" lon="8.69078">
        <ele>1808</ele>
        <time>2021-08-07T07:05:15.605Z</time>
      </trkpt>
      <trkpt lat="46.92886" lon="8.69078">
        <ele>1808</ele>
        <time>2021-08-07T07:05:16.605Z</time>
      </trkpt>
      <trkpt lat="46.92885" lon="8.69078">
        <ele>1808</ele>
        <time>2021-08-07T07:05:17.605Z</time>
      </trkpt>
      <trkpt lat="46.92885" lon="8.69079">
        <ele>1807</ele>
        <time>2021-08-07T07:05:18.605Z</time>
      </trkpt>
      <trkpt lat="46.92885" lon="8.69079">
        <ele>1807</ele>
        <time>2021-08-07T07:05:19.605Z</time>
      </trkpt>
      <trkpt lat="46.92885" lon="8.6908">
        <ele>1807</ele>
        <time>2021-08-07T07:05:20.605Z</time>
      </trkpt>
      <trkpt lat="46.92885" lon="8.6908">
        <ele>1806</ele>
        <time>2021-08-07T07:05:21.605Z</time>
      </trkpt>
      <trkpt lat="46.92885" lon="8.6908">
        <ele>1806</ele>
        <time>2021-08-07T07:05:22.605Z</time>
      </trkpt>
      <trkpt lat="46.92885" lon="8.6908">
        <ele>1805</ele>
        <time>2021-08-07T07:05:23.605Z</time>
      </trkpt>
      <trkpt lat="46.92884" lon="8.6908">
        <ele>1804</ele>
        <time>2021-08-07T07:05:24.604Z</time>
      </trkpt>
      <trkpt lat="46.92884" lon="8.6908">
        <ele>1804</ele>
        <time>2021-08-07T07:05:25.604Z</time>
      </trkpt>
      <trkpt lat="46.92883" lon="8.6908">
        <ele>1804</ele>
        <time>2021-08-07T07:05:26.605Z</time>
      </trkpt>
      <trkpt lat="46.92883" lon="8.6908">
        <ele>1803</ele>
        <time>2021-08-07T07:05:27.604Z</time>
      </trkpt>
      <trkpt lat="46.92883" lon="8.6908">
        <ele>1803</ele>
        <time>2021-08-07T07:05:28.604Z</time>
      </trkpt>
      <trkpt lat="46.92883" lon="8.6908">
        <ele>1803</ele>
        <time>2021-08-07T07:05:29.604Z</time>
      </trkpt>
      <trkpt lat="46.92882" lon="8.69079">
        <ele>1803</ele>
        <time>2021-08-07T07:05:30.604Z</time>
      </trkpt>
      <trkpt lat="46.92882" lon="8.69079">
        <ele>1802</ele>
        <time>2021-08-07T07:05:31.604Z</time>
      </trkpt>
      <trkpt lat="46.92882" lon="8.69078">
        <ele>1802</ele>
        <time>2021-08-07T07:05:32.604Z</time>
      </trkpt>
      <trkpt lat="46.92881" lon="8.69078">
        <ele>1803</ele>
        <time>2021-08-07T07:05:33.604Z</time>
      </trkpt>
      <trkpt lat="46.9288" lon="8.69077">
        <ele>1803</ele>
        <time>2021-08-07T07:05:34.604Z</time>
      </trkpt>
      <trkpt lat="46.9288" lon="8.69077">
        <ele>1804</ele>
        <time>2021-08-07T07:05:35.604Z</time>
      </trkpt>
      <trkpt lat="46.9288" lon="8.69077">
        <ele>1804</ele>
        <time>2021-08-07T07:05:36.604Z</time>
      </trkpt>
      <trkpt lat="46.92879" lon="8.69077">
        <ele>1804</ele>
        <time>2021-08-07T07:05:37.604Z</time>
      </trkpt>
      <trkpt lat="46.92879" lon="8.69077">
        <ele>1804</ele>
        <time>2021-08-07T07:05:38.604Z</time>
      </trkpt>
      <trkpt lat="46.92879" lon="8.69076">
        <ele>1804</ele>
        <time>2021-08-07T07:05:39.604Z</time>
      </trkpt>
      <trkpt lat="46.92879" lon="8.69076">
        <ele>1804</ele>
        <time>2021-08-07T07:05:40.605Z</time>
      </trkpt>
      <trkpt lat="46.92878" lon="8.69076">
        <ele>1804</ele>
        <time>2021-08-07T07:05:41.604Z</time>
      </trkpt>
      <trkpt lat="46.92877" lon="8.69076">
        <ele>1804</ele>
        <time>2021-08-07T07:05:42.604Z</time>
      </trkpt>
      <trkpt lat="46.92877" lon="8.69076">
        <ele>1804</ele>
        <time>2021-08-07T07:05:43.604Z</time>
      </trkpt>
      <trkpt lat="46.92876" lon="8.69077">
        <ele>1804</ele>
        <time>2021-08-07T07:05:44.604Z</time>
      </trkpt>
      <trkpt lat="46.92876" lon="8.69078">
        <ele>1805</ele>
        <time>2021-08-07T07:05:45.605Z</time>
      </trkpt>
      <trkpt lat="46.92875" lon="8.69078">
        <ele>1805</ele>
        <time>2021-08-07T07:05:46.605Z</time>
      </trkpt>
      <trkpt lat="46.92874" lon="8.69079">
        <ele>1804</ele>
        <time>2021-08-07T07:05:47.605Z</time>
      </trkpt>
      <trkpt lat="46.92873" lon="8.69079">
        <ele>1805</ele>
        <time>2021-08-07T07:05:48.604Z</time>
      </trkpt>
      <trkpt lat="46.92873" lon="8.6908">
        <ele>1804</ele>
        <time>2021-08-07T07:05:49.605Z</time>
      </trkpt>
      <trkpt lat="46.92872" lon="8.69081">
        <ele>1804</ele>
        <time>2021-08-07T07:05:50.605Z</time>
      </trkpt>
      <trkpt lat="46.92872" lon="8.69081">
        <ele>1804</ele>
        <time>2021-08-07T07:05:51.605Z</time>
      </trkpt>
      <trkpt lat="46.92871" lon="8.69082">
        <ele>1804</ele>
        <time>2021-08-07T07:05:52.605Z</time>
      </trkpt>
      <trkpt lat="46.9287" lon="8.69082">
        <ele>1804</ele>
        <time>2021-08-07T07:05:53.605Z</time>
      </trkpt>
      <trkpt lat="46.92869" lon="8.69082">
        <ele>1804</ele>
        <time>2021-08-07T07:05:54.604Z</time>
      </trkpt>
      <trkpt lat="46.92868" lon="8.69082">
        <ele>1804</ele>
        <time>2021-08-07T07:05:55.605Z</time>
      </trkpt>
      <trkpt lat="46.92867" lon="8.69082">
        <ele>1804</ele>
        <time>2021-08-07T07:05:56.605Z</time>
      </trkpt>
      <trkpt lat="46.92867" lon="8.69082">
        <ele>1804</ele>
        <time>2021-08-07T07:05:57.605Z</time>
      </trkpt>
      <trkpt lat="46.92866" lon="8.69082">
        <ele>1804</ele>
        <time>2021-08-07T07:05:58.605Z</time>
      </trkpt>
      <trkpt lat="46.92866" lon="8.69083">
        <ele>1805</ele>
        <time>2021-08-07T07:05:59.604Z</time>
      </trkpt>
      <trkpt lat="46.92866" lon="8.69083">
        <ele>1805</ele>
        <time>2021-08-07T07:06:00.605Z</time>
      </trkpt>
      <trkpt lat="46.92868" lon="8.69083">
        <ele>1805</ele>
        <time>2021-08-07T07:06:01.606Z</time>
      </trkpt>
      <trkpt lat="46.92868" lon="8.69084">
        <ele>1805</ele>
        <time>2021-08-07T07:06:02.605Z</time>
      </trkpt>
      <trkpt lat="46.92868" lon="8.69084">
        <ele>1805</ele>
        <time>2021-08-07T07:06:03.605Z</time>
      </trkpt>
      <trkpt lat="46.92867" lon="8.69084">
        <ele>1805</ele>
        <time>2021-08-07T07:06:04.605Z</time>
      </trkpt>
      <trkpt lat="46.92866" lon="8.69083">
        <ele>1806</ele>
        <time>2021-08-07T07:06:05.605Z</time>
      </trkpt>
      <trkpt lat="46.92865" lon="8.69083">
        <ele>1806</ele>
        <time>2021-08-07T07:06:06.606Z</time>
      </trkpt>
      <trkpt lat="46.92865" lon="8.69084">
        <ele>1807</ele>
        <time>2021-08-07T07:06:07.605Z</time>
      </trkpt>
      <trkpt lat="46.92864" lon="8.69085">
        <ele>1807</ele>
        <time>2021-08-07T07:06:08.606Z</time>
      </trkpt>
      <trkpt lat="46.92863" lon="8.69085">
        <ele>1807</ele>
        <time>2021-08-07T07:06:09.605Z</time>
      </trkpt>
      <trkpt lat="46.92862" lon="8.69085">
        <ele>1807</ele>
        <time>2021-08-07T07:06:10.605Z</time>
      </trkpt>
      <trkpt lat="46.92862" lon="8.69086">
        <ele>1807</ele>
        <time>2021-08-07T07:06:11.606Z</time>
      </trkpt>
      <trkpt lat="46.92861" lon="8.69086">
        <ele>1808</ele>
        <time>2021-08-07T07:06:12.605Z</time>
      </trkpt>
      <trkpt lat="46.9286" lon="8.69087">
        <ele>1808</ele>
        <time>2021-08-07T07:06:13.606Z</time>
      </trkpt>
      <trkpt lat="46.9286" lon="8.69088">
        <ele>1808</ele>
        <time>2021-08-07T07:06:14.606Z</time>
      </trkpt>
      <trkpt lat="46.9286" lon="8.69088">
        <ele>1809</ele>
        <time>2021-08-07T07:06:15.606Z</time>
      </trkpt>
      <trkpt lat="46.92861" lon="8.69088">
        <ele>1809</ele>
        <time>2021-08-07T07:06:16.605Z</time>
      </trkpt>
      <trkpt lat="46.92861" lon="8.69088">
        <ele>1809</ele>
        <time>2021-08-07T07:06:17.605Z</time>
      </trkpt>
      <trkpt lat="46.92861" lon="8.69088">
        <ele>1809</ele>
        <time>2021-08-07T07:06:18.605Z</time>
      </trkpt>
      <trkpt lat="46.9286" lon="8.69089">
        <ele>1809</ele>
        <time>2021-08-07T07:06:19.606Z</time>
      </trkpt>
      <trkpt lat="46.92859" lon="8.6909">
        <ele>1809</ele>
        <time>2021-08-07T07:06:20.606Z</time>
      </trkpt>
      <trkpt lat="46.92859" lon="8.69091">
        <ele>1809</ele>
        <time>2021-08-07T07:06:21.606Z</time>
      </trkpt>
      <trkpt lat="46.92859" lon="8.69092">
        <ele>1810</ele>
        <time>2021-08-07T07:06:22.605Z</time>
      </trkpt>
      <trkpt lat="46.92858" lon="8.69092">
        <ele>1810</ele>
        <time>2021-08-07T07:06:23.606Z</time>
      </trkpt>
      <trkpt lat="46.92859" lon="8.69094">
        <ele>1810</ele>
        <time>2021-08-07T07:06:24.605Z</time>
      </trkpt>
      <trkpt lat="46.92858" lon="8.69095">
        <ele>1810</ele>
        <time>2021-08-07T07:06:25.606Z</time>
      </trkpt>
      <trkpt lat="46.92858" lon="8.69096">
        <ele>1810</ele>
        <time>2021-08-07T07:06:26.606Z</time>
      </trkpt>
      <trkpt lat="46.92858" lon="8.69098">
        <ele>1810</ele>
        <time>2021-08-07T07:06:27.606Z</time>
      </trkpt>
      <trkpt lat="46.92857" lon="8.69098">
        <ele>1810</ele>
        <time>2021-08-07T07:06:28.606Z</time>
      </trkpt>
      <trkpt lat="46.92856" lon="8.69099">
        <ele>1810</ele>
        <time>2021-08-07T07:06:29.606Z</time>
      </trkpt>
      <trkpt lat="46.92855" lon="8.691">
        <ele>1810</ele>
        <time>2021-08-07T07:06:30.605Z</time>
      </trkpt>
      <trkpt lat="46.92854" lon="8.69101">
        <ele>1810</ele>
        <time>2021-08-07T07:06:31.606Z</time>
      </trkpt>
      <trkpt lat="46.92853" lon="8.69102">
        <ele>1810</ele>
        <time>2021-08-07T07:06:32.606Z</time>
      </trkpt>
      <trkpt lat="46.92852" lon="8.69103">
        <ele>1810</ele>
        <time>2021-08-07T07:06:33.606Z</time>
      </trkpt>
      <trkpt lat="46.92851" lon="8.69103">
        <ele>1810</ele>
        <time>2021-08-07T07:06:34.606Z</time>
      </trkpt>
      <trkpt lat="46.9285" lon="8.69104">
        <ele>1810</ele>
        <time>2021-08-07T07:06:35.605Z</time>
      </trkpt>
      <trkpt lat="46.92849" lon="8.69105">
        <ele>1810</ele>
        <time>2021-08-07T07:06:36.606Z</time>
      </trkpt>
      <trkpt lat="46.92848" lon="8.69105">
        <ele>1810</ele>
        <time>2021-08-07T07:06:37.605Z</time>
      </trkpt>
      <trkpt lat="46.92847" lon="8.69106">
        <ele>1810</ele>
        <time>2021-08-07T07:06:38.606Z</time>
      </trkpt>
      <trkpt lat="46.92846" lon="8.69106">
        <ele>1810</ele>
        <time>2021-08-07T07:06:39.605Z</time>
      </trkpt>
      <trkpt lat="46.92845" lon="8.69107">
        <ele>1810</ele>
        <time>2021-08-07T07:06:40.606Z</time>
      </trkpt>
      <trkpt lat="46.92843" lon="8.69107">
        <ele>1810</ele>
        <time>2021-08-07T07:06:41.606Z</time>
      </trkpt>
      <trkpt lat="46.92842" lon="8.69107">
        <ele>1810</ele>
        <time>2021-08-07T07:06:42.606Z</time>
      </trkpt>
      <trkpt lat="46.92841" lon="8.69108">
        <ele>1810</ele>
        <time>2021-08-07T07:06:43.605Z</time>
      </trkpt>
      <trkpt lat="46.9284" lon="8.69109">
        <ele>1810</ele>
        <time>2021-08-07T07:06:44.606Z</time>
      </trkpt>
      <trkpt lat="46.92839" lon="8.6911">
        <ele>1810</ele>
        <time>2021-08-07T07:06:45.606Z</time>
      </trkpt>
      <trkpt lat="46.92838" lon="8.69111">
        <ele>1810</ele>
        <time>2021-08-07T07:06:46.606Z</time>
      </trkpt>
      <trkpt lat="46.92838" lon="8.69112">
        <ele>1810</ele>
        <time>2021-08-07T07:06:47.606Z</time>
      </trkpt>
      <trkpt lat="46.92837" lon="8.69111">
        <ele>1810</ele>
        <time>2021-08-07T07:06:48.606Z</time>
      </trkpt>
      <trkpt lat="46.92835" lon="8.69112">
        <ele>1810</ele>
        <time>2021-08-07T07:06:49.605Z</time>
      </trkpt>
      <trkpt lat="46.92834" lon="8.69112">
        <ele>1810</ele>
        <time>2021-08-07T07:06:50.606Z</time>
      </trkpt>
      <trkpt lat="46.92833" lon="8.69113">
        <ele>1810</ele>
        <time>2021-08-07T07:06:51.605Z</time>
      </trkpt>
      <trkpt lat="46.92832" lon="8.69113">
        <ele>1810</ele>
        <time>2021-08-07T07:06:52.605Z</time>
      </trkpt>
      <trkpt lat="46.92831" lon="8.69114">
        <ele>1809</ele>
        <time>2021-08-07T07:06:53.605Z</time>
      </trkpt>
      <trkpt lat="46.92831" lon="8.69115">
        <ele>1809</ele>
        <time>2021-08-07T07:06:54.605Z</time>
      </trkpt>
      <trkpt lat="46.9283" lon="8.69115">
        <ele>1809</ele>
        <time>2021-08-07T07:06:55.606Z</time>
      </trkpt>
      <trkpt lat="46.92829" lon="8.69116">
        <ele>1809</ele>
        <time>2021-08-07T07:06:56.605Z</time>
      </trkpt>
      <trkpt lat="46.92828" lon="8.69116">
        <ele>1809</ele>
        <time>2021-08-07T07:06:57.605Z</time>
      </trkpt>
      <trkpt lat="46.92827" lon="8.69116">
        <ele>1809</ele>
        <time>2021-08-07T07:06:58.605Z</time>
      </trkpt>
      <trkpt lat="46.92827" lon="8.69117">
        <ele>1809</ele>
        <time>2021-08-07T07:06:59.605Z</time>
      </trkpt>
      <trkpt lat="46.92826" lon="8.69117">
        <ele>1809</ele>
        <time>2021-08-07T07:07:00.605Z</time>
      </trkpt>
      <trkpt lat="46.92825" lon="8.69118">
        <ele>1809</ele>
        <time>2021-08-07T07:07:01.605Z</time>
      </trkpt>
      <trkpt lat="46.92824" lon="8.69118">
        <ele>1809</ele>
        <time>2021-08-07T07:07:02.605Z</time>
      </trkpt>
      <trkpt lat="46.92823" lon="8.69118">
        <ele>1809</ele>
        <time>2021-08-07T07:07:03.605Z</time>
      </trkpt>
      <trkpt lat="46.92822" lon="8.69118">
        <ele>1809</ele>
        <time>2021-08-07T07:07:04.606Z</time>
      </trkpt>
      <trkpt lat="46.92821" lon="8.69119">
        <ele>1809</ele>
        <time>2021-08-07T07:07:05.606Z</time>
      </trkpt>
      <trkpt lat="46.9282" lon="8.69119">
        <ele>1809</ele>
        <time>2021-08-07T07:07:06.605Z</time>
      </trkpt>
      <trkpt lat="46.92819" lon="8.6912">
        <ele>1809</ele>
        <time>2021-08-07T07:07:07.606Z</time>
      </trkpt>
      <trkpt lat="46.92818" lon="8.6912">
        <ele>1810</ele>
        <time>2021-08-07T07:07:08.606Z</time>
      </trkpt>
      <trkpt lat="46.92816" lon="8.6912">
        <ele>1810</ele>
        <time>2021-08-07T07:07:09.606Z</time>
      </trkpt>
      <trkpt lat="46.92815" lon="8.69121">
        <ele>1810</ele>
        <time>2021-08-07T07:07:10.605Z</time>
      </trkpt>
      <trkpt lat="46.92814" lon="8.69121">
        <ele>1810</ele>
        <time>2021-08-07T07:07:11.605Z</time>
      </trkpt>
      <trkpt lat="46.92813" lon="8.69122">
        <ele>1810</ele>
        <time>2021-08-07T07:07:12.606Z</time>
      </trkpt>
      <trkpt lat="46.92813" lon="8.69123">
        <ele>1810</ele>
        <time>2021-08-07T07:07:13.605Z</time>
      </trkpt>
      <trkpt lat="46.92812" lon="8.69124">
        <ele>1809</ele>
        <time>2021-08-07T07:07:14.605Z</time>
      </trkpt>
      <trkpt lat="46.92811" lon="8.69125">
        <ele>1809</ele>
        <time>2021-08-07T07:07:15.606Z</time>
      </trkpt>
      <trkpt lat="46.92811" lon="8.69125">
        <ele>1810</ele>
        <time>2021-08-07T07:07:16.605Z</time>
      </trkpt>
      <trkpt lat="46.92809" lon="8.69126">
        <ele>1810</ele>
        <time>2021-08-07T07:07:17.606Z</time>
      </trkpt>
      <trkpt lat="46.92808" lon="8.69126">
        <ele>1810</ele>
        <time>2021-08-07T07:07:18.605Z</time>
      </trkpt>
      <trkpt lat="46.92807" lon="8.69126">
        <ele>1810</ele>
        <time>2021-08-07T07:07:19.606Z</time>
      </trkpt>
      <trkpt lat="46.92806" lon="8.69127">
        <ele>1810</ele>
        <time>2021-08-07T07:07:20.605Z</time>
      </trkpt>
      <trkpt lat="46.92805" lon="8.69127">
        <ele>1810</ele>
        <time>2021-08-07T07:07:21.606Z</time>
      </trkpt>
      <trkpt lat="46.92805" lon="8.69128">
        <ele>1810</ele>
        <time>2021-08-07T07:07:22.606Z</time>
      </trkpt>
      <trkpt lat="46.92804" lon="8.69128">
        <ele>1810</ele>
        <time>2021-08-07T07:07:23.605Z</time>
      </trkpt>
      <trkpt lat="46.92803" lon="8.69129">
        <ele>1811</ele>
        <time>2021-08-07T07:07:24.605Z</time>
      </trkpt>
      <trkpt lat="46.92802" lon="8.69129">
        <ele>1811</ele>
        <time>2021-08-07T07:07:25.606Z</time>
      </trkpt>
      <trkpt lat="46.92801" lon="8.6913">
        <ele>1811</ele>
        <time>2021-08-07T07:07:26.605Z</time>
      </trkpt>
      <trkpt lat="46.928" lon="8.69131">
        <ele>1812</ele>
        <time>2021-08-07T07:07:27.605Z</time>
      </trkpt>
      <trkpt lat="46.92799" lon="8.69131">
        <ele>1812</ele>
        <time>2021-08-07T07:07:28.605Z</time>
      </trkpt>
      <trkpt lat="46.92798" lon="8.69131">
        <ele>1812</ele>
        <time>2021-08-07T07:07:29.605Z</time>
      </trkpt>
      <trkpt lat="46.92797" lon="8.69132">
        <ele>1812</ele>
        <time>2021-08-07T07:07:30.605Z</time>
      </trkpt>
      <trkpt lat="46.92796" lon="8.69133">
        <ele>1812</ele>
        <time>2021-08-07T07:07:31.605Z</time>
      </trkpt>
      <trkpt lat="46.92795" lon="8.69133">
        <ele>1812</ele>
        <time>2021-08-07T07:07:32.605Z</time>
      </trkpt>
      <trkpt lat="46.92795" lon="8.69134">
        <ele>1813</ele>
        <time>2021-08-07T07:07:33.605Z</time>
      </trkpt>
      <trkpt lat="46.92794" lon="8.69135">
        <ele>1813</ele>
        <time>2021-08-07T07:07:34.605Z</time>
      </trkpt>
      <trkpt lat="46.92793" lon="8.69135">
        <ele>1813</ele>
        <time>2021-08-07T07:07:35.605Z</time>
      </trkpt>
      <trkpt lat="46.92792" lon="8.69136">
        <ele>1814</ele>
        <time>2021-08-07T07:07:36.605Z</time>
      </trkpt>
      <trkpt lat="46.92791" lon="8.69136">
        <ele>1814</ele>
        <time>2021-08-07T07:07:37.605Z</time>
      </trkpt>
      <trkpt lat="46.92791" lon="8.69137">
        <ele>1814</ele>
        <time>2021-08-07T07:07:38.605Z</time>
      </trkpt>
      <trkpt lat="46.9279" lon="8.69137">
        <ele>1813</ele>
        <time>2021-08-07T07:07:39.605Z</time>
      </trkpt>
      <trkpt lat="46.9279" lon="8.69138">
        <ele>1813</ele>
        <time>2021-08-07T07:07:40.605Z</time>
      </trkpt>
      <trkpt lat="46.9279" lon="8.69138">
        <ele>1813</ele>
        <time>2021-08-07T07:07:41.605Z</time>
      </trkpt>
      <trkpt lat="46.92789" lon="8.69138">
        <ele>1813</ele>
        <time>2021-08-07T07:07:42.606Z</time>
      </trkpt>
      <trkpt lat="46.92788" lon="8.69139">
        <ele>1814</ele>
        <time>2021-08-07T07:07:43.606Z</time>
      </trkpt>
      <trkpt lat="46.92788" lon="8.69139">
        <ele>1814</ele>
        <time>2021-08-07T07:07:44.606Z</time>
      </trkpt>
      <trkpt lat="46.92788" lon="8.6914">
        <ele>1814</ele>
        <time>2021-08-07T07:07:45.607Z</time>
      </trkpt>
      <trkpt lat="46.92787" lon="8.69141">
        <ele>1814</ele>
        <time>2021-08-07T07:07:46.606Z</time>
      </trkpt>
      <trkpt lat="46.92787" lon="8.69141">
        <ele>1814</ele>
        <time>2021-08-07T07:07:47.606Z</time>
      </trkpt>
      <trkpt lat="46.92785" lon="8.69141">
        <ele>1814</ele>
        <time>2021-08-07T07:07:48.606Z</time>
      </trkpt>
      <trkpt lat="46.92785" lon="8.69142">
        <ele>1815</ele>
        <time>2021-08-07T07:07:49.606Z</time>
      </trkpt>
      <trkpt lat="46.92784" lon="8.69143">
        <ele>1815</ele>
        <time>2021-08-07T07:07:50.606Z</time>
      </trkpt>
      <trkpt lat="46.92784" lon="8.69144">
        <ele>1815</ele>
        <time>2021-08-07T07:07:51.606Z</time>
      </trkpt>
      <trkpt lat="46.92783" lon="8.69145">
        <ele>1815</ele>
        <time>2021-08-07T07:07:52.606Z</time>
      </trkpt>
      <trkpt lat="46.92782" lon="8.69145">
        <ele>1815</ele>
        <time>2021-08-07T07:07:53.606Z</time>
      </trkpt>
      <trkpt lat="46.9278" lon="8.69146">
        <ele>1815</ele>
        <time>2021-08-07T07:07:54.606Z</time>
      </trkpt>
      <trkpt lat="46.9278" lon="8.69148">
        <ele>1815</ele>
        <time>2021-08-07T07:07:55.607Z</time>
      </trkpt>
      <trkpt lat="46.92779" lon="8.69149">
        <ele>1816</ele>
        <time>2021-08-07T07:07:56.607Z</time>
      </trkpt>
      <trkpt lat="46.92778" lon="8.69151">
        <ele>1816</ele>
        <time>2021-08-07T07:07:57.606Z</time>
      </trkpt>
      <trkpt lat="46.92777" lon="8.69153">
        <ele>1817</ele>
        <time>2021-08-07T07:07:58.607Z</time>
      </trkpt>
      <trkpt lat="46.92776" lon="8.69154">
        <ele>1817</ele>
        <time>2021-08-07T07:07:59.606Z</time>
      </trkpt>
      <trkpt lat="46.92776" lon="8.69155">
        <ele>1817</ele>
        <time>2021-08-07T07:08:00.607Z</time>
      </trkpt>
      <trkpt lat="46.92775" lon="8.69156">
        <ele>1818</ele>
        <time>2021-08-07T07:08:01.606Z</time>
      </trkpt>
      <trkpt lat="46.92774" lon="8.69157">
        <ele>1818</ele>
        <time>2021-08-07T07:08:02.607Z</time>
      </trkpt>
      <trkpt lat="46.92773" lon="8.69157">
        <ele>1818</ele>
        <time>2021-08-07T07:08:03.607Z</time>
      </trkpt>
      <trkpt lat="46.92772" lon="8.69157">
        <ele>1818</ele>
        <time>2021-08-07T07:08:04.607Z</time>
      </trkpt>
      <trkpt lat="46.92771" lon="8.69157">
        <ele>1819</ele>
        <time>2021-08-07T07:08:05.606Z</time>
      </trkpt>
      <trkpt lat="46.92771" lon="8.69158">
        <ele>1819</ele>
        <time>2021-08-07T07:08:06.606Z</time>
      </trkpt>
      <trkpt lat="46.9277" lon="8.69159">
        <ele>1820</ele>
        <time>2021-08-07T07:08:07.607Z</time>
      </trkpt>
      <trkpt lat="46.92771" lon="8.6916">
        <ele>1820</ele>
        <time>2021-08-07T07:08:08.607Z</time>
      </trkpt>
      <trkpt lat="46.92771" lon="8.69161">
        <ele>1820</ele>
        <time>2021-08-07T07:08:09.606Z</time>
      </trkpt>
      <trkpt lat="46.92771" lon="8.69162">
        <ele>1820</ele>
        <time>2021-08-07T07:08:10.606Z</time>
      </trkpt>
      <trkpt lat="46.9277" lon="8.69162">
        <ele>1820</ele>
        <time>2021-08-07T07:08:11.606Z</time>
      </trkpt>
      <trkpt lat="46.9277" lon="8.69163">
        <ele>1820</ele>
        <time>2021-08-07T07:08:12.606Z</time>
      </trkpt>
      <trkpt lat="46.92769" lon="8.69163">
        <ele>1820</ele>
        <time>2021-08-07T07:08:13.606Z</time>
      </trkpt>
      <trkpt lat="46.92769" lon="8.69164">
        <ele>1820</ele>
        <time>2021-08-07T07:08:14.606Z</time>
      </trkpt>
      <trkpt lat="46.92768" lon="8.69164">
        <ele>1819</ele>
        <time>2021-08-07T07:08:15.606Z</time>
      </trkpt>
      <trkpt lat="46.92768" lon="8.69165">
        <ele>1819</ele>
        <time>2021-08-07T07:08:16.606Z</time>
      </trkpt>
      <trkpt lat="46.92767" lon="8.69166">
        <ele>1819</ele>
        <time>2021-08-07T07:08:17.607Z</time>
      </trkpt>
      <trkpt lat="46.92767" lon="8.69167">
        <ele>1819</ele>
        <time>2021-08-07T07:08:18.607Z</time>
      </trkpt>
      <trkpt lat="46.92768" lon="8.69169">
        <ele>1819</ele>
        <time>2021-08-07T07:08:19.606Z</time>
      </trkpt>
      <trkpt lat="46.92767" lon="8.69169">
        <ele>1819</ele>
        <time>2021-08-07T07:08:20.606Z</time>
      </trkpt>
      <trkpt lat="46.92766" lon="8.6917">
        <ele>1819</ele>
        <time>2021-08-07T07:08:21.606Z</time>
      </trkpt>
      <trkpt lat="46.92766" lon="8.69171">
        <ele>1819</ele>
        <time>2021-08-07T07:08:22.607Z</time>
      </trkpt>
      <trkpt lat="46.92765" lon="8.69172">
        <ele>1819</ele>
        <time>2021-08-07T07:08:23.606Z</time>
      </trkpt>
      <trkpt lat="46.92764" lon="8.69172">
        <ele>1819</ele>
        <time>2021-08-07T07:08:24.607Z</time>
      </trkpt>
      <trkpt lat="46.92764" lon="8.69173">
        <ele>1819</ele>
        <time>2021-08-07T07:08:25.607Z</time>
      </trkpt>
      <trkpt lat="46.92764" lon="8.69173">
        <ele>1819</ele>
        <time>2021-08-07T07:08:26.607Z</time>
      </trkpt>
      <trkpt lat="46.92763" lon="8.69174">
        <ele>1819</ele>
        <time>2021-08-07T07:08:27.606Z</time>
      </trkpt>
      <trkpt lat="46.92763" lon="8.69175">
        <ele>1819</ele>
        <time>2021-08-07T07:08:28.606Z</time>
      </trkpt>
      <trkpt lat="46.92762" lon="8.69176">
        <ele>1819</ele>
        <time>2021-08-07T07:08:29.607Z</time>
      </trkpt>
      <trkpt lat="46.92762" lon="8.69178">
        <ele>1819</ele>
        <time>2021-08-07T07:08:30.607Z</time>
      </trkpt>
      <trkpt lat="46.92762" lon="8.69179">
        <ele>1819</ele>
        <time>2021-08-07T07:08:31.606Z</time>
      </trkpt>
      <trkpt lat="46.92761" lon="8.69179">
        <ele>1820</ele>
        <time>2021-08-07T07:08:32.606Z</time>
      </trkpt>
      <trkpt lat="46.9276" lon="8.69179">
        <ele>1820</ele>
        <time>2021-08-07T07:08:33.606Z</time>
      </trkpt>
      <trkpt lat="46.92759" lon="8.69179">
        <ele>1820</ele>
        <time>2021-08-07T07:08:34.606Z</time>
      </trkpt>
      <trkpt lat="46.92758" lon="8.6918">
        <ele>1821</ele>
        <time>2021-08-07T07:08:35.607Z</time>
      </trkpt>
      <trkpt lat="46.92758" lon="8.6918">
        <ele>1821</ele>
        <time>2021-08-07T07:08:36.607Z</time>
      </trkpt>
      <trkpt lat="46.92758" lon="8.6918">
        <ele>1821</ele>
        <time>2021-08-07T07:08:37.607Z</time>
      </trkpt>
      <trkpt lat="46.92758" lon="8.69181">
        <ele>1821</ele>
        <time>2021-08-07T07:08:38.606Z</time>
      </trkpt>
      <trkpt lat="46.92757" lon="8.69181">
        <ele>1821</ele>
        <time>2021-08-07T07:08:39.606Z</time>
      </trkpt>
      <trkpt lat="46.92757" lon="8.69181">
        <ele>1821</ele>
        <time>2021-08-07T07:08:40.606Z</time>
      </trkpt>
      <trkpt lat="46.92757" lon="8.69183">
        <ele>1821</ele>
        <time>2021-08-07T07:08:41.607Z</time>
      </trkpt>
      <trkpt lat="46.92757" lon="8.69183">
        <ele>1821</ele>
        <time>2021-08-07T07:08:42.606Z</time>
      </trkpt>
      <trkpt lat="46.92757" lon="8.69183">
        <ele>1821</ele>
        <time>2021-08-07T07:08:43.607Z</time>
      </trkpt>
      <trkpt lat="46.92757" lon="8.69184">
        <ele>1820</ele>
        <time>2021-08-07T07:08:44.606Z</time>
      </trkpt>
      <trkpt lat="46.92758" lon="8.69184">
        <ele>1820</ele>
        <time>2021-08-07T07:08:45.606Z</time>
      </trkpt>
      <trkpt lat="46.92757" lon="8.69185">
        <ele>1819</ele>
        <time>2021-08-07T07:08:46.606Z</time>
      </trkpt>
      <trkpt lat="46.92758" lon="8.69186">
        <ele>1819</ele>
        <time>2021-08-07T07:08:47.606Z</time>
      </trkpt>
      <trkpt lat="46.92757" lon="8.69186">
        <ele>1819</ele>
        <time>2021-08-07T07:08:48.607Z</time>
      </trkpt>
      <trkpt lat="46.92756" lon="8.69186">
        <ele>1819</ele>
        <time>2021-08-07T07:08:49.606Z</time>
      </trkpt>
      <trkpt lat="46.92755" lon="8.69187">
        <ele>1819</ele>
        <time>2021-08-07T07:08:50.607Z</time>
      </trkpt>
      <trkpt lat="46.92754" lon="8.69187">
        <ele>1818</ele>
        <time>2021-08-07T07:08:51.606Z</time>
      </trkpt>
      <trkpt lat="46.92754" lon="8.69187">
        <ele>1818</ele>
        <time>2021-08-07T07:08:52.607Z</time>
      </trkpt>
      <trkpt lat="46.92753" lon="8.69188">
        <ele>1819</ele>
        <time>2021-08-07T07:08:53.606Z</time>
      </trkpt>
      <trkpt lat="46.92753" lon="8.69188">
        <ele>1819</ele>
        <time>2021-08-07T07:08:54.606Z</time>
      </trkpt>
      <trkpt lat="46.92752" lon="8.69189">
        <ele>1819</ele>
        <time>2021-08-07T07:08:55.606Z</time>
      </trkpt>
      <trkpt lat="46.92752" lon="8.69189">
        <ele>1819</ele>
        <time>2021-08-07T07:08:56.607Z</time>
      </trkpt>
      <trkpt lat="46.92751" lon="8.6919">
        <ele>1820</ele>
        <time>2021-08-07T07:08:57.606Z</time>
      </trkpt>
      <trkpt lat="46.92751" lon="8.6919">
        <ele>1820</ele>
        <time>2021-08-07T07:08:58.606Z</time>
      </trkpt>
      <trkpt lat="46.9275" lon="8.69191">
        <ele>1820</ele>
        <time>2021-08-07T07:08:59.607Z</time>
      </trkpt>
      <trkpt lat="46.9275" lon="8.69192">
        <ele>1820</ele>
        <time>2021-08-07T07:09:00.607Z</time>
      </trkpt>
      <trkpt lat="46.92749" lon="8.69192">
        <ele>1820</ele>
        <time>2021-08-07T07:09:01.606Z</time>
      </trkpt>
      <trkpt lat="46.92748" lon="8.69193">
        <ele>1820</ele>
        <time>2021-08-07T07:09:02.606Z</time>
      </trkpt>
      <trkpt lat="46.92747" lon="8.69193">
        <ele>1820</ele>
        <time>2021-08-07T07:09:03.606Z</time>
      </trkpt>
      <trkpt lat="46.92747" lon="8.69194">
        <ele>1820</ele>
        <time>2021-08-07T07:09:04.606Z</time>
      </trkpt>
      <trkpt lat="46.92746" lon="8.69195">
        <ele>1820</ele>
        <time>2021-08-07T07:09:05.606Z</time>
      </trkpt>
      <trkpt lat="46.92746" lon="8.69196">
        <ele>1820</ele>
        <time>2021-08-07T07:09:06.606Z</time>
      </trkpt>
      <trkpt lat="46.92745" lon="8.69196">
        <ele>1821</ele>
        <time>2021-08-07T07:09:07.607Z</time>
      </trkpt>
      <trkpt lat="46.92745" lon="8.69197">
        <ele>1821</ele>
        <time>2021-08-07T07:09:08.606Z</time>
      </trkpt>
      <trkpt lat="46.92745" lon="8.69198">
        <ele>1822</ele>
        <time>2021-08-07T07:09:09.607Z</time>
      </trkpt>
      <trkpt lat="46.92745" lon="8.69198">
        <ele>1822</ele>
        <time>2021-08-07T07:09:10.606Z</time>
      </trkpt>
      <trkpt lat="46.92745" lon="8.692">
        <ele>1823</ele>
        <time>2021-08-07T07:09:11.606Z</time>
      </trkpt>
      <trkpt lat="46.92745" lon="8.692">
        <ele>1823</ele>
        <time>2021-08-07T07:09:12.606Z</time>
      </trkpt>
      <trkpt lat="46.92744" lon="8.69201">
        <ele>1823</ele>
        <time>2021-08-07T07:09:13.607Z</time>
      </trkpt>
      <trkpt lat="46.92744" lon="8.69202">
        <ele>1823</ele>
        <time>2021-08-07T07:09:14.607Z</time>
      </trkpt>
      <trkpt lat="46.92744" lon="8.69202">
        <ele>1823</ele>
        <time>2021-08-07T07:09:15.606Z</time>
      </trkpt>
      <trkpt lat="46.92743" lon="8.69203">
        <ele>1823</ele>
        <time>2021-08-07T07:09:16.606Z</time>
      </trkpt>
      <trkpt lat="46.92743" lon="8.69203">
        <ele>1823</ele>
        <time>2021-08-07T07:09:17.606Z</time>
      </trkpt>
      <trkpt lat="46.92742" lon="8.69203">
        <ele>1824</ele>
        <time>2021-08-07T07:09:18.607Z</time>
      </trkpt>
      <trkpt lat="46.92742" lon="8.69204">
        <ele>1824</ele>
        <time>2021-08-07T07:09:19.606Z</time>
      </trkpt>
      <trkpt lat="46.92742" lon="8.69204">
        <ele>1824</ele>
        <time>2021-08-07T07:09:20.607Z</time>
      </trkpt>
      <trkpt lat="46.92741" lon="8.69205">
        <ele>1824</ele>
        <time>2021-08-07T07:09:21.607Z</time>
      </trkpt>
      <trkpt lat="46.92741" lon="8.69205">
        <ele>1825</ele>
        <time>2021-08-07T07:09:22.607Z</time>
      </trkpt>
      <trkpt lat="46.9274" lon="8.69205">
        <ele>1825</ele>
        <time>2021-08-07T07:09:23.606Z</time>
      </trkpt>
      <trkpt lat="46.92739" lon="8.69205">
        <ele>1825</ele>
        <time>2021-08-07T07:09:24.606Z</time>
      </trkpt>
      <trkpt lat="46.92739" lon="8.69205">
        <ele>1825</ele>
        <time>2021-08-07T07:09:25.607Z</time>
      </trkpt>
      <trkpt lat="46.92738" lon="8.69205">
        <ele>1824</ele>
        <time>2021-08-07T07:09:26.606Z</time>
      </trkpt>
      <trkpt lat="46.92737" lon="8.69205">
        <ele>1824</ele>
        <time>2021-08-07T07:09:27.607Z</time>
      </trkpt>
      <trkpt lat="46.92737" lon="8.69205">
        <ele>1824</ele>
        <time>2021-08-07T07:09:28.606Z</time>
      </trkpt>
      <trkpt lat="46.92736" lon="8.69206">
        <ele>1824</ele>
        <time>2021-08-07T07:09:29.606Z</time>
      </trkpt>
      <trkpt lat="46.92735" lon="8.69206">
        <ele>1824</ele>
        <time>2021-08-07T07:09:30.606Z</time>
      </trkpt>
      <trkpt lat="46.92735" lon="8.69206">
        <ele>1825</ele>
        <time>2021-08-07T07:09:31.606Z</time>
      </trkpt>
      <trkpt lat="46.92735" lon="8.69208">
        <ele>1825</ele>
        <time>2021-08-07T07:09:32.606Z</time>
      </trkpt>
      <trkpt lat="46.92735" lon="8.69209">
        <ele>1825</ele>
        <time>2021-08-07T07:09:33.606Z</time>
      </trkpt>
      <trkpt lat="46.92734" lon="8.69209">
        <ele>1825</ele>
        <time>2021-08-07T07:09:34.606Z</time>
      </trkpt>
      <trkpt lat="46.92734" lon="8.6921">
        <ele>1826</ele>
        <time>2021-08-07T07:09:35.606Z</time>
      </trkpt>
      <trkpt lat="46.92734" lon="8.69212">
        <ele>1826</ele>
        <time>2021-08-07T07:09:36.606Z</time>
      </trkpt>
      <trkpt lat="46.92733" lon="8.69212">
        <ele>1826</ele>
        <time>2021-08-07T07:09:37.606Z</time>
      </trkpt>
      <trkpt lat="46.92732" lon="8.69212">
        <ele>1826</ele>
        <time>2021-08-07T07:09:38.606Z</time>
      </trkpt>
      <trkpt lat="46.92731" lon="8.69213">
        <ele>1827</ele>
        <time>2021-08-07T07:09:39.607Z</time>
      </trkpt>
      <trkpt lat="46.9273" lon="8.69213">
        <ele>1827</ele>
        <time>2021-08-07T07:09:40.606Z</time>
      </trkpt>
      <trkpt lat="46.92729" lon="8.69213">
        <ele>1827</ele>
        <time>2021-08-07T07:09:41.606Z</time>
      </trkpt>
      <trkpt lat="46.92728" lon="8.69214">
        <ele>1828</ele>
        <time>2021-08-07T07:09:42.607Z</time>
      </trkpt>
      <trkpt lat="46.92728" lon="8.69214">
        <ele>1828</ele>
        <time>2021-08-07T07:09:43.607Z</time>
      </trkpt>
      <trkpt lat="46.92727" lon="8.69215">
        <ele>1828</ele>
        <time>2021-08-07T07:09:44.606Z</time>
      </trkpt>
      <trkpt lat="46.92727" lon="8.69215">
        <ele>1828</ele>
        <time>2021-08-07T07:09:45.606Z</time>
      </trkpt>
      <trkpt lat="46.92727" lon="8.69215">
        <ele>1828</ele>
        <time>2021-08-07T07:09:46.606Z</time>
      </trkpt>
      <trkpt lat="46.92726" lon="8.69216">
        <ele>1828</ele>
        <time>2021-08-07T07:09:47.606Z</time>
      </trkpt>
      <trkpt lat="46.92726" lon="8.69216">
        <ele>1828</ele>
        <time>2021-08-07T07:09:48.606Z</time>
      </trkpt>
      <trkpt lat="46.92725" lon="8.69216">
        <ele>1828</ele>
        <time>2021-08-07T07:09:49.606Z</time>
      </trkpt>
      <trkpt lat="46.92725" lon="8.69217">
        <ele>1829</ele>
        <time>2021-08-07T07:09:50.607Z</time>
      </trkpt>
      <trkpt lat="46.92724" lon="8.69217">
        <ele>1829</ele>
        <time>2021-08-07T07:09:51.607Z</time>
      </trkpt>
      <trkpt lat="46.92723" lon="8.69217">
        <ele>1829</ele>
        <time>2021-08-07T07:09:52.607Z</time>
      </trkpt>
      <trkpt lat="46.92723" lon="8.69217">
        <ele>1829</ele>
        <time>2021-08-07T07:09:53.606Z</time>
      </trkpt>
      <trkpt lat="46.92722" lon="8.69217">
        <ele>1829</ele>
        <time>2021-08-07T07:09:54.607Z</time>
      </trkpt>
      <trkpt lat="46.92721" lon="8.69217">
        <ele>1829</ele>
        <time>2021-08-07T07:09:55.606Z</time>
      </trkpt>
      <trkpt lat="46.92719" lon="8.69216">
        <ele>1830</ele>
        <time>2021-08-07T07:09:56.606Z</time>
      </trkpt>
      <trkpt lat="46.92718" lon="8.69217">
        <ele>1830</ele>
        <time>2021-08-07T07:09:57.607Z</time>
      </trkpt>
      <trkpt lat="46.92718" lon="8.69217">
        <ele>1830</ele>
        <time>2021-08-07T07:09:58.607Z</time>
      </trkpt>
      <trkpt lat="46.92717" lon="8.69218">
        <ele>1830</ele>
        <time>2021-08-07T07:09:59.607Z</time>
      </trkpt>
      <trkpt lat="46.92717" lon="8.69219">
        <ele>1830</ele>
        <time>2021-08-07T07:10:00.607Z</time>
      </trkpt>
      <trkpt lat="46.92717" lon="8.69219">
        <ele>1830</ele>
        <time>2021-08-07T07:10:01.606Z</time>
      </trkpt>
      <trkpt lat="46.92716" lon="8.69219">
        <ele>1830</ele>
        <time>2021-08-07T07:10:02.606Z</time>
      </trkpt>
      <trkpt lat="46.92715" lon="8.69218">
        <ele>1830</ele>
        <time>2021-08-07T07:10:03.606Z</time>
      </trkpt>
      <trkpt lat="46.92714" lon="8.69217">
        <ele>1831</ele>
        <time>2021-08-07T07:10:04.607Z</time>
      </trkpt>
      <trkpt lat="46.92714" lon="8.69216">
        <ele>1831</ele>
        <time>2021-08-07T07:10:05.606Z</time>
      </trkpt>
      <trkpt lat="46.92715" lon="8.69219">
        <ele>1828</ele>
        <time>2021-08-07T07:10:06.606Z</time>
      </trkpt>
      <trkpt lat="46.92716" lon="8.69219">
        <ele>1825</ele>
        <time>2021-08-07T07:10:07.607Z</time>
      </trkpt>
      <trkpt lat="46.92716" lon="8.69219">
        <ele>1825</ele>
        <time>2021-08-07T07:10:08.607Z</time>
      </trkpt>
      <trkpt lat="46.92716" lon="8.69219">
        <ele>1825</ele>
        <time>2021-08-07T07:10:09.607Z</time>
      </trkpt>
      <trkpt lat="46.92716" lon="8.69219">
        <ele>1825</ele>
        <time>2021-08-07T07:10:10.607Z</time>
      </trkpt>
      <trkpt lat="46.92716" lon="8.69219">
        <ele>1825</ele>
        <time>2021-08-07T07:10:11.607Z</time>
      </trkpt>
      <trkpt lat="46.92718" lon="8.6922">
        <ele>1822</ele>
        <time>2021-08-07T07:10:12.608Z</time>
      </trkpt>
      <trkpt lat="46.92718" lon="8.69219">
        <ele>1822</ele>
        <time>2021-08-07T07:10:13.608Z</time>
      </trkpt>
      <trkpt lat="46.92719" lon="8.6922">
        <ele>1825</ele>
        <time>2021-08-07T07:10:14.609Z</time>
      </trkpt>
      <trkpt lat="46.92719" lon="8.6922">
        <ele>1825</ele>
        <time>2021-08-07T07:10:15.609Z</time>
      </trkpt>
      <trkpt lat="46.92719" lon="8.6922">
        <ele>1825</ele>
        <time>2021-08-07T07:10:16.609Z</time>
      </trkpt>
      <trkpt lat="46.92719" lon="8.6922">
        <ele>1826</ele>
        <time>2021-08-07T07:10:17.609Z</time>
      </trkpt>
      <trkpt lat="46.92718" lon="8.69218">
        <ele>1827</ele>
        <time>2021-08-07T07:10:18.610Z</time>
      </trkpt>
      <trkpt lat="46.92717" lon="8.69218">
        <ele>1827</ele>
        <time>2021-08-07T07:10:19.610Z</time>
      </trkpt>
      <trkpt lat="46.92717" lon="8.69217">
        <ele>1827</ele>
        <time>2021-08-07T07:10:20.610Z</time>
      </trkpt>
      <trkpt lat="46.92717" lon="8.69217">
        <ele>1827</ele>
        <time>2021-08-07T07:10:21.610Z</time>
      </trkpt>
      <trkpt lat="46.92717" lon="8.69217">
        <ele>1828</ele>
        <time>2021-08-07T07:10:22.609Z</time>
      </trkpt>
      <trkpt lat="46.92718" lon="8.69218">
        <ele>1829</ele>
        <time>2021-08-07T07:10:23.611Z</time>
      </trkpt>
      <trkpt lat="46.92717" lon="8.69217">
        <ele>1830</ele>
        <time>2021-08-07T07:10:24.611Z</time>
      </trkpt>
      <trkpt lat="46.92717" lon="8.69217">
        <ele>1831</ele>
        <time>2021-08-07T07:10:25.611Z</time>
      </trkpt>
      <trkpt lat="46.92717" lon="8.69217">
        <ele>1832</ele>
        <time>2021-08-07T07:10:26.611Z</time>
      </trkpt>
      <trkpt lat="46.92717" lon="8.69217">
        <ele>1832</ele>
        <time>2021-08-07T07:10:27.611Z</time>
      </trkpt>
      <trkpt lat="46.92716" lon="8.69217">
        <ele>1832</ele>
        <time>2021-08-07T07:10:28.611Z</time>
      </trkpt>
      <trkpt lat="46.92717" lon="8.69218">
        <ele>1832</ele>
        <time>2021-08-07T07:10:29.611Z</time>
      </trkpt>
      <trkpt lat="46.92717" lon="8.69218">
        <ele>1832</ele>
        <time>2021-08-07T07:10:30.611Z</time>
      </trkpt>
      <trkpt lat="46.92717" lon="8.69218">
        <ele>1832</ele>
        <time>2021-08-07T07:10:31.610Z</time>
      </trkpt>
      <trkpt lat="46.92718" lon="8.69218">
        <ele>1831</ele>
        <time>2021-08-07T07:10:32.611Z</time>
      </trkpt>
      <trkpt lat="46.92718" lon="8.69219">
        <ele>1831</ele>
        <time>2021-08-07T07:10:33.611Z</time>
      </trkpt>
      <trkpt lat="46.92719" lon="8.69219">
        <ele>1831</ele>
        <time>2021-08-07T07:10:34.611Z</time>
      </trkpt>
      <trkpt lat="46.92719" lon="8.69219">
        <ele>1831</ele>
        <time>2021-08-07T07:10:35.611Z</time>
      </trkpt>
      <trkpt lat="46.9272" lon="8.6922">
        <ele>1831</ele>
        <time>2021-08-07T07:10:36.611Z</time>
      </trkpt>
      <trkpt lat="46.92719" lon="8.69221">
        <ele>1831</ele>
        <time>2021-08-07T07:10:37.611Z</time>
      </trkpt>
      <trkpt lat="46.92718" lon="8.69221">
        <ele>1830</ele>
        <time>2021-08-07T07:10:38.611Z</time>
      </trkpt>
      <trkpt lat="46.92717" lon="8.69221">
        <ele>1830</ele>
        <time>2021-08-07T07:10:39.611Z</time>
      </trkpt>
      <trkpt lat="46.92715" lon="8.6922">
        <ele>1830</ele>
        <time>2021-08-07T07:10:40.611Z</time>
      </trkpt>
      <trkpt lat="46.92713" lon="8.69218">
        <ele>1830</ele>
        <time>2021-08-07T07:10:41.610Z</time>
      </trkpt>
      <trkpt lat="46.92712" lon="8.69218">
        <ele>1829</ele>
        <time>2021-08-07T07:10:42.610Z</time>
      </trkpt>
      <trkpt lat="46.92711" lon="8.69219">
        <ele>1829</ele>
        <time>2021-08-07T07:10:43.610Z</time>
      </trkpt>
      <trkpt lat="46.9271" lon="8.69219">
        <ele>1829</ele>
        <time>2021-08-07T07:10:44.611Z</time>
      </trkpt>
      <trkpt lat="46.92709" lon="8.69219">
        <ele>1829</ele>
        <time>2021-08-07T07:10:45.610Z</time>
      </trkpt>
      <trkpt lat="46.92708" lon="8.6922">
        <ele>1829</ele>
        <time>2021-08-07T07:10:46.611Z</time>
      </trkpt>
      <trkpt lat="46.92707" lon="8.6922">
        <ele>1828</ele>
        <time>2021-08-07T07:10:47.611Z</time>
      </trkpt>
      <trkpt lat="46.92706" lon="8.69219">
        <ele>1828</ele>
        <time>2021-08-07T07:10:48.610Z</time>
      </trkpt>
      <trkpt lat="46.92705" lon="8.69219">
        <ele>1828</ele>
        <time>2021-08-07T07:10:49.611Z</time>
      </trkpt>
      <trkpt lat="46.92703" lon="8.69217">
        <ele>1828</ele>
        <time>2021-08-07T07:10:50.611Z</time>
      </trkpt>
      <trkpt lat="46.92702" lon="8.69216">
        <ele>1828</ele>
        <time>2021-08-07T07:10:51.611Z</time>
      </trkpt>
      <trkpt lat="46.927" lon="8.69216">
        <ele>1828</ele>
        <time>2021-08-07T07:10:52.610Z</time>
      </trkpt>
      <trkpt lat="46.92699" lon="8.69215">
        <ele>1827</ele>
        <time>2021-08-07T07:10:53.611Z</time>
      </trkpt>
      <trkpt lat="46.92699" lon="8.69215">
        <ele>1827</ele>
        <time>2021-08-07T07:10:54.611Z</time>
      </trkpt>
      <trkpt lat="46.92698" lon="8.69215">
        <ele>1827</ele>
        <time>2021-08-07T07:10:55.610Z</time>
      </trkpt>
      <trkpt lat="46.92698" lon="8.69215">
        <ele>1826</ele>
        <time>2021-08-07T07:10:56.610Z</time>
      </trkpt>
      <trkpt lat="46.92698" lon="8.69215">
        <ele>1826</ele>
        <time>2021-08-07T07:10:57.611Z</time>
      </trkpt>
      <trkpt lat="46.92697" lon="8.69215">
        <ele>1826</ele>
        <time>2021-08-07T07:10:58.611Z</time>
      </trkpt>
      <trkpt lat="46.92696" lon="8.69214">
        <ele>1826</ele>
        <time>2021-08-07T07:10:59.611Z</time>
      </trkpt>
      <trkpt lat="46.92695" lon="8.69214">
        <ele>1826</ele>
        <time>2021-08-07T07:11:00.611Z</time>
      </trkpt>
      <trkpt lat="46.92694" lon="8.69213">
        <ele>1826</ele>
        <time>2021-08-07T07:11:01.610Z</time>
      </trkpt>
      <trkpt lat="46.92693" lon="8.69213">
        <ele>1826</ele>
        <time>2021-08-07T07:11:02.611Z</time>
      </trkpt>
      <trkpt lat="46.92692" lon="8.69213">
        <ele>1826</ele>
        <time>2021-08-07T07:11:03.611Z</time>
      </trkpt>
      <trkpt lat="46.92692" lon="8.69213">
        <ele>1825</ele>
        <time>2021-08-07T07:11:04.611Z</time>
      </trkpt>
      <trkpt lat="46.92691" lon="8.69213">
        <ele>1825</ele>
        <time>2021-08-07T07:11:05.611Z</time>
      </trkpt>
      <trkpt lat="46.9269" lon="8.69212">
        <ele>1825</ele>
        <time>2021-08-07T07:11:06.611Z</time>
      </trkpt>
      <trkpt lat="46.92689" lon="8.69212">
        <ele>1825</ele>
        <time>2021-08-07T07:11:07.611Z</time>
      </trkpt>
      <trkpt lat="46.92687" lon="8.69212">
        <ele>1825</ele>
        <time>2021-08-07T07:11:08.611Z</time>
      </trkpt>
      <trkpt lat="46.92686" lon="8.69212">
        <ele>1825</ele>
        <time>2021-08-07T07:11:09.611Z</time>
      </trkpt>
      <trkpt lat="46.92685" lon="8.69211">
        <ele>1825</ele>
        <time>2021-08-07T07:11:10.610Z</time>
      </trkpt>
      <trkpt lat="46.92684" lon="8.69211">
        <ele>1825</ele>
        <time>2021-08-07T07:11:11.611Z</time>
      </trkpt>
      <trkpt lat="46.92683" lon="8.69211">
        <ele>1825</ele>
        <time>2021-08-07T07:11:12.611Z</time>
      </trkpt>
      <trkpt lat="46.92682" lon="8.69211">
        <ele>1825</ele>
        <time>2021-08-07T07:11:13.611Z</time>
      </trkpt>
      <trkpt lat="46.92681" lon="8.69211">
        <ele>1825</ele>
        <time>2021-08-07T07:11:14.610Z</time>
      </trkpt>
      <trkpt lat="46.9268" lon="8.69212">
        <ele>1825</ele>
        <time>2021-08-07T07:11:15.611Z</time>
      </trkpt>
      <trkpt lat="46.92679" lon="8.69212">
        <ele>1826</ele>
        <time>2021-08-07T07:11:16.610Z</time>
      </trkpt>
      <trkpt lat="46.92678" lon="8.69212">
        <ele>1826</ele>
        <time>2021-08-07T07:11:17.611Z</time>
      </trkpt>
      <trkpt lat="46.92677" lon="8.69212">
        <ele>1826</ele>
        <time>2021-08-07T07:11:18.610Z</time>
      </trkpt>
      <trkpt lat="46.92675" lon="8.69212">
        <ele>1827</ele>
        <time>2021-08-07T07:11:19.611Z</time>
      </trkpt>
      <trkpt lat="46.92674" lon="8.69212">
        <ele>1827</ele>
        <time>2021-08-07T07:11:20.611Z</time>
      </trkpt>
      <trkpt lat="46.92673" lon="8.69213">
        <ele>1827</ele>
        <time>2021-08-07T07:11:21.610Z</time>
      </trkpt>
      <trkpt lat="46.92672" lon="8.69212">
        <ele>1827</ele>
        <time>2021-08-07T07:11:22.610Z</time>
      </trkpt>
      <trkpt lat="46.92671" lon="8.69212">
        <ele>1826</ele>
        <time>2021-08-07T07:11:23.611Z</time>
      </trkpt>
      <trkpt lat="46.92671" lon="8.69213">
        <ele>1826</ele>
        <time>2021-08-07T07:11:24.610Z</time>
      </trkpt>
      <trkpt lat="46.9267" lon="8.69214">
        <ele>1826</ele>
        <time>2021-08-07T07:11:25.610Z</time>
      </trkpt>
      <trkpt lat="46.92669" lon="8.69214">
        <ele>1826</ele>
        <time>2021-08-07T07:11:26.610Z</time>
      </trkpt>
      <trkpt lat="46.92669" lon="8.69214">
        <ele>1825</ele>
        <time>2021-08-07T07:11:27.611Z</time>
      </trkpt>
      <trkpt lat="46.92668" lon="8.69215">
        <ele>1825</ele>
        <time>2021-08-07T07:11:28.611Z</time>
      </trkpt>
      <trkpt lat="46.92667" lon="8.69215">
        <ele>1824</ele>
        <time>2021-08-07T07:11:29.611Z</time>
      </trkpt>
      <trkpt lat="46.92665" lon="8.69216">
        <ele>1824</ele>
        <time>2021-08-07T07:11:30.610Z</time>
      </trkpt>
      <trkpt lat="46.92665" lon="8.69216">
        <ele>1824</ele>
        <time>2021-08-07T07:11:31.611Z</time>
      </trkpt>
      <trkpt lat="46.92665" lon="8.69218">
        <ele>1824</ele>
        <time>2021-08-07T07:11:32.610Z</time>
      </trkpt>
      <trkpt lat="46.92665" lon="8.69219">
        <ele>1824</ele>
        <time>2021-08-07T07:11:33.611Z</time>
      </trkpt>
      <trkpt lat="46.92663" lon="8.69219">
        <ele>1824</ele>
        <time>2021-08-07T07:11:34.610Z</time>
      </trkpt>
      <trkpt lat="46.92662" lon="8.69219">
        <ele>1824</ele>
        <time>2021-08-07T07:11:35.610Z</time>
      </trkpt>
      <trkpt lat="46.92662" lon="8.6922">
        <ele>1825</ele>
        <time>2021-08-07T07:11:36.611Z</time>
      </trkpt>
      <trkpt lat="46.92661" lon="8.69221">
        <ele>1825</ele>
        <time>2021-08-07T07:11:37.610Z</time>
      </trkpt>
      <trkpt lat="46.9266" lon="8.69222">
        <ele>1825</ele>
        <time>2021-08-07T07:11:38.610Z</time>
      </trkpt>
      <trkpt lat="46.92659" lon="8.69222">
        <ele>1825</ele>
        <time>2021-08-07T07:11:39.610Z</time>
      </trkpt>
      <trkpt lat="46.92658" lon="8.69223">
        <ele>1825</ele>
        <time>2021-08-07T07:11:40.611Z</time>
      </trkpt>
      <trkpt lat="46.92657" lon="8.69223">
        <ele>1825</ele>
        <time>2021-08-07T07:11:41.611Z</time>
      </trkpt>
      <trkpt lat="46.92656" lon="8.69223">
        <ele>1824</ele>
        <time>2021-08-07T07:11:42.611Z</time>
      </trkpt>
      <trkpt lat="46.92655" lon="8.69224">
        <ele>1824</ele>
        <time>2021-08-07T07:11:43.610Z</time>
      </trkpt>
      <trkpt lat="46.92654" lon="8.69225">
        <ele>1824</ele>
        <time>2021-08-07T07:11:44.611Z</time>
      </trkpt>
      <trkpt lat="46.92653" lon="8.69226">
        <ele>1824</ele>
        <time>2021-08-07T07:11:45.610Z</time>
      </trkpt>
      <trkpt lat="46.92652" lon="8.69226">
        <ele>1824</ele>
        <time>2021-08-07T07:11:46.611Z</time>
      </trkpt>
      <trkpt lat="46.92651" lon="8.69227">
        <ele>1824</ele>
        <time>2021-08-07T07:11:47.610Z</time>
      </trkpt>
      <trkpt lat="46.9265" lon="8.69228">
        <ele>1824</ele>
        <time>2021-08-07T07:11:48.611Z</time>
      </trkpt>
      <trkpt lat="46.92649" lon="8.69228">
        <ele>1824</ele>
        <time>2021-08-07T07:11:49.610Z</time>
      </trkpt>
      <trkpt lat="46.92647" lon="8.69228">
        <ele>1823</ele>
        <time>2021-08-07T07:11:50.611Z</time>
      </trkpt>
      <trkpt lat="46.92646" lon="8.69229">
        <ele>1823</ele>
        <time>2021-08-07T07:11:51.610Z</time>
      </trkpt>
      <trkpt lat="46.92645" lon="8.69229">
        <ele>1823</ele>
        <time>2021-08-07T07:11:52.611Z</time>
      </trkpt>
      <trkpt lat="46.92644" lon="8.69229">
        <ele>1822</ele>
        <time>2021-08-07T07:11:53.611Z</time>
      </trkpt>
      <trkpt lat="46.92644" lon="8.69229">
        <ele>1822</ele>
        <time>2021-08-07T07:11:54.611Z</time>
      </trkpt>
      <trkpt lat="46.92644" lon="8.69229">
        <ele>1822</ele>
        <time>2021-08-07T07:11:55.611Z</time>
      </trkpt>
      <trkpt lat="46.92643" lon="8.69229">
        <ele>1821</ele>
        <time>2021-08-07T07:11:56.611Z</time>
      </trkpt>
      <trkpt lat="46.92642" lon="8.6923">
        <ele>1821</ele>
        <time>2021-08-07T07:11:57.611Z</time>
      </trkpt>
      <trkpt lat="46.92641" lon="8.6923">
        <ele>1821</ele>
        <time>2021-08-07T07:11:58.611Z</time>
      </trkpt>
      <trkpt lat="46.92641" lon="8.6923">
        <ele>1820</ele>
        <time>2021-08-07T07:11:59.610Z</time>
      </trkpt>
      <trkpt lat="46.92641" lon="8.69231">
        <ele>1820</ele>
        <time>2021-08-07T07:12:00.611Z</time>
      </trkpt>
      <trkpt lat="46.9264" lon="8.69231">
        <ele>1819</ele>
        <time>2021-08-07T07:12:01.611Z</time>
      </trkpt>
      <trkpt lat="46.9264" lon="8.69233">
        <ele>1819</ele>
        <time>2021-08-07T07:12:02.611Z</time>
      </trkpt>
      <trkpt lat="46.9264" lon="8.69233">
        <ele>1819</ele>
        <time>2021-08-07T07:12:03.611Z</time>
      </trkpt>
      <trkpt lat="46.9264" lon="8.69234">
        <ele>1819</ele>
        <time>2021-08-07T07:12:04.611Z</time>
      </trkpt>
      <trkpt lat="46.92639" lon="8.69233">
        <ele>1818</ele>
        <time>2021-08-07T07:12:05.610Z</time>
      </trkpt>
      <trkpt lat="46.92638" lon="8.69234">
        <ele>1818</ele>
        <time>2021-08-07T07:12:06.610Z</time>
      </trkpt>
      <trkpt lat="46.92637" lon="8.69233">
        <ele>1818</ele>
        <time>2021-08-07T07:12:07.610Z</time>
      </trkpt>
      <trkpt lat="46.92637" lon="8.69233">
        <ele>1818</ele>
        <time>2021-08-07T07:12:08.611Z</time>
      </trkpt>
      <trkpt lat="46.92636" lon="8.69233">
        <ele>1818</ele>
        <time>2021-08-07T07:12:09.611Z</time>
      </trkpt>
      <trkpt lat="46.92635" lon="8.69234">
        <ele>1818</ele>
        <time>2021-08-07T07:12:10.611Z</time>
      </trkpt>
      <trkpt lat="46.92635" lon="8.69234">
        <ele>1818</ele>
        <time>2021-08-07T07:12:11.610Z</time>
      </trkpt>
      <trkpt lat="46.92634" lon="8.69235">
        <ele>1818</ele>
        <time>2021-08-07T07:12:12.610Z</time>
      </trkpt>
      <trkpt lat="46.92633" lon="8.69235">
        <ele>1819</ele>
        <time>2021-08-07T07:12:13.611Z</time>
      </trkpt>
      <trkpt lat="46.92633" lon="8.69235">
        <ele>1819</ele>
        <time>2021-08-07T07:12:14.611Z</time>
      </trkpt>
      <trkpt lat="46.92632" lon="8.69236">
        <ele>1820</ele>
        <time>2021-08-07T07:12:15.611Z</time>
      </trkpt>
      <trkpt lat="46.92632" lon="8.69237">
        <ele>1820</ele>
        <time>2021-08-07T07:12:16.610Z</time>
      </trkpt>
      <trkpt lat="46.92631" lon="8.69238">
        <ele>1820</ele>
        <time>2021-08-07T07:12:17.611Z</time>
      </trkpt>
      <trkpt lat="46.9263" lon="8.69239">
        <ele>1821</ele>
        <time>2021-08-07T07:12:18.611Z</time>
      </trkpt>
      <trkpt lat="46.92631" lon="8.6924">
        <ele>1821</ele>
        <time>2021-08-07T07:12:19.611Z</time>
      </trkpt>
      <trkpt lat="46.92631" lon="8.69241">
        <ele>1822</ele>
        <time>2021-08-07T07:12:20.610Z</time>
      </trkpt>
      <trkpt lat="46.92631" lon="8.69242">
        <ele>1823</ele>
        <time>2021-08-07T07:12:21.610Z</time>
      </trkpt>
      <trkpt lat="46.9263" lon="8.69243">
        <ele>1824</ele>
        <time>2021-08-07T07:12:22.610Z</time>
      </trkpt>
      <trkpt lat="46.92629" lon="8.69244">
        <ele>1825</ele>
        <time>2021-08-07T07:12:23.611Z</time>
      </trkpt>
      <trkpt lat="46.92628" lon="8.69245">
        <ele>1826</ele>
        <time>2021-08-07T07:12:24.611Z</time>
      </trkpt>
      <trkpt lat="46.92628" lon="8.69245">
        <ele>1827</ele>
        <time>2021-08-07T07:12:25.611Z</time>
      </trkpt>
      <trkpt lat="46.92627" lon="8.69246">
        <ele>1828</ele>
        <time>2021-08-07T07:12:26.611Z</time>
      </trkpt>
      <trkpt lat="46.92627" lon="8.69246">
        <ele>1828</ele>
        <time>2021-08-07T07:12:27.611Z</time>
      </trkpt>
      <trkpt lat="46.92627" lon="8.69247">
        <ele>1829</ele>
        <time>2021-08-07T07:12:28.611Z</time>
      </trkpt>
      <trkpt lat="46.92626" lon="8.69247">
        <ele>1829</ele>
        <time>2021-08-07T07:12:29.610Z</time>
      </trkpt>
      <trkpt lat="46.92625" lon="8.69248">
        <ele>1829</ele>
        <time>2021-08-07T07:12:30.611Z</time>
      </trkpt>
      <trkpt lat="46.92624" lon="8.69248">
        <ele>1829</ele>
        <time>2021-08-07T07:12:31.610Z</time>
      </trkpt>
      <trkpt lat="46.92623" lon="8.69249">
        <ele>1829</ele>
        <time>2021-08-07T07:12:32.610Z</time>
      </trkpt>
      <trkpt lat="46.92623" lon="8.69249">
        <ele>1829</ele>
        <time>2021-08-07T07:12:33.611Z</time>
      </trkpt>
      <trkpt lat="46.92622" lon="8.6925">
        <ele>1830</ele>
        <time>2021-08-07T07:12:34.610Z</time>
      </trkpt>
      <trkpt lat="46.92622" lon="8.69251">
        <ele>1830</ele>
        <time>2021-08-07T07:12:35.611Z</time>
      </trkpt>
      <trkpt lat="46.92621" lon="8.69252">
        <ele>1830</ele>
        <time>2021-08-07T07:12:36.610Z</time>
      </trkpt>
      <trkpt lat="46.92621" lon="8.69252">
        <ele>1830</ele>
        <time>2021-08-07T07:12:37.610Z</time>
      </trkpt>
      <trkpt lat="46.9262" lon="8.69253">
        <ele>1830</ele>
        <time>2021-08-07T07:12:38.610Z</time>
      </trkpt>
      <trkpt lat="46.92619" lon="8.69254">
        <ele>1829</ele>
        <time>2021-08-07T07:12:39.611Z</time>
      </trkpt>
      <trkpt lat="46.92619" lon="8.69255">
        <ele>1829</ele>
        <time>2021-08-07T07:12:40.611Z</time>
      </trkpt>
      <trkpt lat="46.92618" lon="8.69256">
        <ele>1829</ele>
        <time>2021-08-07T07:12:41.610Z</time>
      </trkpt>
      <trkpt lat="46.92617" lon="8.69256">
        <ele>1829</ele>
        <time>2021-08-07T07:12:42.611Z</time>
      </trkpt>
      <trkpt lat="46.92617" lon="8.69257">
        <ele>1828</ele>
        <time>2021-08-07T07:12:43.611Z</time>
      </trkpt>
      <trkpt lat="46.92616" lon="8.69258">
        <ele>1828</ele>
        <time>2021-08-07T07:12:44.610Z</time>
      </trkpt>
      <trkpt lat="46.92615" lon="8.69258">
        <ele>1828</ele>
        <time>2021-08-07T07:12:45.610Z</time>
      </trkpt>
      <trkpt lat="46.92614" lon="8.69259">
        <ele>1828</ele>
        <time>2021-08-07T07:12:46.610Z</time>
      </trkpt>
      <trkpt lat="46.92613" lon="8.69259">
        <ele>1828</ele>
        <time>2021-08-07T07:12:47.611Z</time>
      </trkpt>
      <trkpt lat="46.92613" lon="8.6926">
        <ele>1828</ele>
        <time>2021-08-07T07:12:48.611Z</time>
      </trkpt>
      <trkpt lat="46.92612" lon="8.6926">
        <ele>1828</ele>
        <time>2021-08-07T07:12:49.610Z</time>
      </trkpt>
      <trkpt lat="46.92611" lon="8.6926">
        <ele>1828</ele>
        <time>2021-08-07T07:12:50.610Z</time>
      </trkpt>
      <trkpt lat="46.9261" lon="8.69261">
        <ele>1828</ele>
        <time>2021-08-07T07:12:51.610Z</time>
      </trkpt>
      <trkpt lat="46.92609" lon="8.69261">
        <ele>1828</ele>
        <time>2021-08-07T07:12:52.611Z</time>
      </trkpt>
      <trkpt lat="46.92608" lon="8.69261">
        <ele>1828</ele>
        <time>2021-08-07T07:12:53.610Z</time>
      </trkpt>
      <trkpt lat="46.92607" lon="8.69261">
        <ele>1829</ele>
        <time>2021-08-07T07:12:54.611Z</time>
      </trkpt>
      <trkpt lat="46.92607" lon="8.69261">
        <ele>1829</ele>
        <time>2021-08-07T07:12:55.610Z</time>
      </trkpt>
      <trkpt lat="46.92606" lon="8.69261">
        <ele>1829</ele>
        <time>2021-08-07T07:12:56.611Z</time>
      </trkpt>
      <trkpt lat="46.92605" lon="8.69261">
        <ele>1830</ele>
        <time>2021-08-07T07:12:57.610Z</time>
      </trkpt>
      <trkpt lat="46.92604" lon="8.69261">
        <ele>1830</ele>
        <time>2021-08-07T07:12:58.611Z</time>
      </trkpt>
      <trkpt lat="46.92604" lon="8.69261">
        <ele>1830</ele>
        <time>2021-08-07T07:12:59.610Z</time>
      </trkpt>
      <trkpt lat="46.92603" lon="8.69261">
        <ele>1831</ele>
        <time>2021-08-07T07:13:00.610Z</time>
      </trkpt>
      <trkpt lat="46.92603" lon="8.69261">
        <ele>1831</ele>
        <time>2021-08-07T07:13:01.611Z</time>
      </trkpt>
      <trkpt lat="46.92602" lon="8.69262">
        <ele>1831</ele>
        <time>2021-08-07T07:13:02.610Z</time>
      </trkpt>
      <trkpt lat="46.92601" lon="8.69262">
        <ele>1832</ele>
        <time>2021-08-07T07:13:03.610Z</time>
      </trkpt>
      <trkpt lat="46.926" lon="8.69262">
        <ele>1832</ele>
        <time>2021-08-07T07:13:04.611Z</time>
      </trkpt>
      <trkpt lat="46.926" lon="8.69261">
        <ele>1833</ele>
        <time>2021-08-07T07:13:05.611Z</time>
      </trkpt>
      <trkpt lat="46.92599" lon="8.69261">
        <ele>1833</ele>
        <time>2021-08-07T07:13:06.610Z</time>
      </trkpt>
      <trkpt lat="46.92598" lon="8.69261">
        <ele>1833</ele>
        <time>2021-08-07T07:13:07.611Z</time>
      </trkpt>
      <trkpt lat="46.92597" lon="8.69261">
        <ele>1834</ele>
        <time>2021-08-07T07:13:08.611Z</time>
      </trkpt>
      <trkpt lat="46.92596" lon="8.69261">
        <ele>1834</ele>
        <time>2021-08-07T07:13:09.611Z</time>
      </trkpt>
      <trkpt lat="46.92595" lon="8.6926">
        <ele>1835</ele>
        <time>2021-08-07T07:13:10.611Z</time>
      </trkpt>
      <trkpt lat="46.92594" lon="8.69261">
        <ele>1835</ele>
        <time>2021-08-07T07:13:11.610Z</time>
      </trkpt>
      <trkpt lat="46.92594" lon="8.69261">
        <ele>1836</ele>
        <time>2021-08-07T07:13:12.611Z</time>
      </trkpt>
      <trkpt lat="46.92593" lon="8.6926">
        <ele>1836</ele>
        <time>2021-08-07T07:13:13.610Z</time>
      </trkpt>
      <trkpt lat="46.92593" lon="8.6926">
        <ele>1836</ele>
        <time>2021-08-07T07:13:14.610Z</time>
      </trkpt>
      <trkpt lat="46.92592" lon="8.6926">
        <ele>1836</ele>
        <time>2021-08-07T07:13:15.611Z</time>
      </trkpt>
      <trkpt lat="46.92592" lon="8.6926">
        <ele>1836</ele>
        <time>2021-08-07T07:13:16.610Z</time>
      </trkpt>
      <trkpt lat="46.92591" lon="8.6926">
        <ele>1836</ele>
        <time>2021-08-07T07:13:17.611Z</time>
      </trkpt>
      <trkpt lat="46.92591" lon="8.6926">
        <ele>1835</ele>
        <time>2021-08-07T07:13:18.611Z</time>
      </trkpt>
      <trkpt lat="46.9259" lon="8.69259">
        <ele>1835</ele>
        <time>2021-08-07T07:13:19.611Z</time>
      </trkpt>
      <trkpt lat="46.92589" lon="8.69259">
        <ele>1835</ele>
        <time>2021-08-07T07:13:20.611Z</time>
      </trkpt>
      <trkpt lat="46.92588" lon="8.69259">
        <ele>1835</ele>
        <time>2021-08-07T07:13:21.610Z</time>
      </trkpt>
      <trkpt lat="46.92588" lon="8.69259">
        <ele>1835</ele>
        <time>2021-08-07T07:13:22.610Z</time>
      </trkpt>
      <trkpt lat="46.92588" lon="8.6926">
        <ele>1835</ele>
        <time>2021-08-07T07:13:23.611Z</time>
      </trkpt>
      <trkpt lat="46.92587" lon="8.6926">
        <ele>1835</ele>
        <time>2021-08-07T07:13:24.611Z</time>
      </trkpt>
      <trkpt lat="46.92586" lon="8.6926">
        <ele>1835</ele>
        <time>2021-08-07T07:13:25.610Z</time>
      </trkpt>
      <trkpt lat="46.92585" lon="8.6926">
        <ele>1835</ele>
        <time>2021-08-07T07:13:26.610Z</time>
      </trkpt>
      <trkpt lat="46.92585" lon="8.6926">
        <ele>1835</ele>
        <time>2021-08-07T07:13:27.610Z</time>
      </trkpt>
      <trkpt lat="46.92584" lon="8.6926">
        <ele>1835</ele>
        <time>2021-08-07T07:13:28.611Z</time>
      </trkpt>
      <trkpt lat="46.92584" lon="8.6926">
        <ele>1835</ele>
        <time>2021-08-07T07:13:29.611Z</time>
      </trkpt>
      <trkpt lat="46.92584" lon="8.69261">
        <ele>1836</ele>
        <time>2021-08-07T07:13:30.611Z</time>
      </trkpt>
      <trkpt lat="46.92583" lon="8.69261">
        <ele>1836</ele>
        <time>2021-08-07T07:13:31.610Z</time>
      </trkpt>
      <trkpt lat="46.92582" lon="8.69261">
        <ele>1837</ele>
        <time>2021-08-07T07:13:32.611Z</time>
      </trkpt>
      <trkpt lat="46.92582" lon="8.69262">
        <ele>1837</ele>
        <time>2021-08-07T07:13:33.611Z</time>
      </trkpt>
      <trkpt lat="46.92582" lon="8.69263">
        <ele>1837</ele>
        <time>2021-08-07T07:13:34.611Z</time>
      </trkpt>
      <trkpt lat="46.92581" lon="8.69263">
        <ele>1837</ele>
        <time>2021-08-07T07:13:35.611Z</time>
      </trkpt>
      <trkpt lat="46.92581" lon="8.69264">
        <ele>1838</ele>
        <time>2021-08-07T07:13:36.611Z</time>
      </trkpt>
      <trkpt lat="46.9258" lon="8.69264">
        <ele>1838</ele>
        <time>2021-08-07T07:13:37.611Z</time>
      </trkpt>
      <trkpt lat="46.9258" lon="8.69265">
        <ele>1838</ele>
        <time>2021-08-07T07:13:38.611Z</time>
      </trkpt>
      <trkpt lat="46.92579" lon="8.69265">
        <ele>1838</ele>
        <time>2021-08-07T07:13:39.610Z</time>
      </trkpt>
      <trkpt lat="46.92579" lon="8.69266">
        <ele>1838</ele>
        <time>2021-08-07T07:13:40.611Z</time>
      </trkpt>
      <trkpt lat="46.92578" lon="8.69266">
        <ele>1839</ele>
        <time>2021-08-07T07:13:41.611Z</time>
      </trkpt>
      <trkpt lat="46.92578" lon="8.69267">
        <ele>1839</ele>
        <time>2021-08-07T07:13:42.611Z</time>
      </trkpt>
      <trkpt lat="46.92577" lon="8.69268">
        <ele>1839</ele>
        <time>2021-08-07T07:13:43.610Z</time>
      </trkpt>
      <trkpt lat="46.92576" lon="8.69268">
        <ele>1839</ele>
        <time>2021-08-07T07:13:44.611Z</time>
      </trkpt>
      <trkpt lat="46.92576" lon="8.69269">
        <ele>1839</ele>
        <time>2021-08-07T07:13:45.610Z</time>
      </trkpt>
      <trkpt lat="46.92575" lon="8.6927">
        <ele>1839</ele>
        <time>2021-08-07T07:13:46.610Z</time>
      </trkpt>
      <trkpt lat="46.92575" lon="8.69271">
        <ele>1838</ele>
        <time>2021-08-07T07:13:47.610Z</time>
      </trkpt>
      <trkpt lat="46.92574" lon="8.69272">
        <ele>1838</ele>
        <time>2021-08-07T07:13:48.611Z</time>
      </trkpt>
      <trkpt lat="46.92574" lon="8.69273">
        <ele>1837</ele>
        <time>2021-08-07T07:13:49.611Z</time>
      </trkpt>
      <trkpt lat="46.92573" lon="8.69274">
        <ele>1837</ele>
        <time>2021-08-07T07:13:50.610Z</time>
      </trkpt>
      <trkpt lat="46.92573" lon="8.69275">
        <ele>1837</ele>
        <time>2021-08-07T07:13:51.610Z</time>
      </trkpt>
      <trkpt lat="46.92572" lon="8.69275">
        <ele>1837</ele>
        <time>2021-08-07T07:13:52.611Z</time>
      </trkpt>
      <trkpt lat="46.92571" lon="8.69276">
        <ele>1837</ele>
        <time>2021-08-07T07:13:53.611Z</time>
      </trkpt>
      <trkpt lat="46.92571" lon="8.69276">
        <ele>1837</ele>
        <time>2021-08-07T07:13:54.610Z</time>
      </trkpt>
      <trkpt lat="46.9257" lon="8.69277">
        <ele>1837</ele>
        <time>2021-08-07T07:13:55.611Z</time>
      </trkpt>
      <trkpt lat="46.9257" lon="8.69277">
        <ele>1838</ele>
        <time>2021-08-07T07:13:56.611Z</time>
      </trkpt>
      <trkpt lat="46.92569" lon="8.69277">
        <ele>1838</ele>
        <time>2021-08-07T07:13:57.611Z</time>
      </trkpt>
      <trkpt lat="46.92568" lon="8.69277">
        <ele>1838</ele>
        <time>2021-08-07T07:13:58.610Z</time>
      </trkpt>
      <trkpt lat="46.92568" lon="8.69277">
        <ele>1839</ele>
        <time>2021-08-07T07:13:59.610Z</time>
      </trkpt>
      <trkpt lat="46.92567" lon="8.69277">
        <ele>1839</ele>
        <time>2021-08-07T07:14:00.611Z</time>
      </trkpt>
      <trkpt lat="46.92566" lon="8.69278">
        <ele>1840</ele>
        <time>2021-08-07T07:14:01.610Z</time>
      </trkpt>
      <trkpt lat="46.92566" lon="8.69278">
        <ele>1840</ele>
        <time>2021-08-07T07:14:02.610Z</time>
      </trkpt>
      <trkpt lat="46.92565" lon="8.69278">
        <ele>1841</ele>
        <time>2021-08-07T07:14:03.611Z</time>
      </trkpt>
      <trkpt lat="46.92565" lon="8.69279">
        <ele>1841</ele>
        <time>2021-08-07T07:14:04.611Z</time>
      </trkpt>
      <trkpt lat="46.92564" lon="8.69279">
        <ele>1841</ele>
        <time>2021-08-07T07:14:05.610Z</time>
      </trkpt>
      <trkpt lat="46.92564" lon="8.6928">
        <ele>1842</ele>
        <time>2021-08-07T07:14:06.611Z</time>
      </trkpt>
      <trkpt lat="46.92563" lon="8.6928">
        <ele>1842</ele>
        <time>2021-08-07T07:14:07.611Z</time>
      </trkpt>
      <trkpt lat="46.92563" lon="8.6928">
        <ele>1842</ele>
        <time>2021-08-07T07:14:08.611Z</time>
      </trkpt>
      <trkpt lat="46.92562" lon="8.69281">
        <ele>1843</ele>
        <time>2021-08-07T07:14:09.611Z</time>
      </trkpt>
      <trkpt lat="46.92562" lon="8.69281">
        <ele>1843</ele>
        <time>2021-08-07T07:14:10.610Z</time>
      </trkpt>
      <trkpt lat="46.92561" lon="8.69281">
        <ele>1844</ele>
        <time>2021-08-07T07:14:11.610Z</time>
      </trkpt>
      <trkpt lat="46.92561" lon="8.69282">
        <ele>1845</ele>
        <time>2021-08-07T07:14:12.610Z</time>
      </trkpt>
      <trkpt lat="46.9256" lon="8.69282">
        <ele>1845</ele>
        <time>2021-08-07T07:14:13.611Z</time>
      </trkpt>
      <trkpt lat="46.9256" lon="8.69283">
        <ele>1846</ele>
        <time>2021-08-07T07:14:14.611Z</time>
      </trkpt>
      <trkpt lat="46.92559" lon="8.69283">
        <ele>1846</ele>
        <time>2021-08-07T07:14:15.611Z</time>
      </trkpt>
      <trkpt lat="46.92559" lon="8.69284">
        <ele>1846</ele>
        <time>2021-08-07T07:14:16.610Z</time>
      </trkpt>
      <trkpt lat="46.92558" lon="8.69285">
        <ele>1846</ele>
        <time>2021-08-07T07:14:17.610Z</time>
      </trkpt>
      <trkpt lat="46.92557" lon="8.69285">
        <ele>1846</ele>
        <time>2021-08-07T07:14:18.610Z</time>
      </trkpt>
      <trkpt lat="46.92557" lon="8.69286">
        <ele>1846</ele>
        <time>2021-08-07T07:14:19.610Z</time>
      </trkpt>
      <trkpt lat="46.92557" lon="8.69286">
        <ele>1847</ele>
        <time>2021-08-07T07:14:20.610Z</time>
      </trkpt>
      <trkpt lat="46.92556" lon="8.69287">
        <ele>1847</ele>
        <time>2021-08-07T07:14:21.610Z</time>
      </trkpt>
      <trkpt lat="46.92555" lon="8.69287">
        <ele>1847</ele>
        <time>2021-08-07T07:14:22.611Z</time>
      </trkpt>
      <trkpt lat="46.92555" lon="8.69287">
        <ele>1847</ele>
        <time>2021-08-07T07:14:23.610Z</time>
      </trkpt>
      <trkpt lat="46.92554" lon="8.69286">
        <ele>1847</ele>
        <time>2021-08-07T07:14:24.610Z</time>
      </trkpt>
      <trkpt lat="46.92553" lon="8.69287">
        <ele>1847</ele>
        <time>2021-08-07T07:14:25.610Z</time>
      </trkpt>
      <trkpt lat="46.92552" lon="8.69287">
        <ele>1847</ele>
        <time>2021-08-07T07:14:26.611Z</time>
      </trkpt>
      <trkpt lat="46.92551" lon="8.69287">
        <ele>1847</ele>
        <time>2021-08-07T07:14:27.611Z</time>
      </trkpt>
      <trkpt lat="46.92551" lon="8.69287">
        <ele>1847</ele>
        <time>2021-08-07T07:14:28.610Z</time>
      </trkpt>
      <trkpt lat="46.9255" lon="8.69287">
        <ele>1847</ele>
        <time>2021-08-07T07:14:29.610Z</time>
      </trkpt>
      <trkpt lat="46.92549" lon="8.69287">
        <ele>1847</ele>
        <time>2021-08-07T07:14:30.610Z</time>
      </trkpt>
      <trkpt lat="46.92548" lon="8.69287">
        <ele>1847</ele>
        <time>2021-08-07T07:14:31.610Z</time>
      </trkpt>
      <trkpt lat="46.92548" lon="8.69287">
        <ele>1847</ele>
        <time>2021-08-07T07:14:32.610Z</time>
      </trkpt>
      <trkpt lat="46.92547" lon="8.69287">
        <ele>1848</ele>
        <time>2021-08-07T07:14:33.610Z</time>
      </trkpt>
      <trkpt lat="46.92546" lon="8.69287">
        <ele>1848</ele>
        <time>2021-08-07T07:14:34.610Z</time>
      </trkpt>
      <trkpt lat="46.92545" lon="8.69287">
        <ele>1848</ele>
        <time>2021-08-07T07:14:35.610Z</time>
      </trkpt>
      <trkpt lat="46.92544" lon="8.69286">
        <ele>1848</ele>
        <time>2021-08-07T07:14:36.610Z</time>
      </trkpt>
      <trkpt lat="46.92543" lon="8.69286">
        <ele>1848</ele>
        <time>2021-08-07T07:14:37.611Z</time>
      </trkpt>
      <trkpt lat="46.92542" lon="8.69287">
        <ele>1847</ele>
        <time>2021-08-07T07:14:38.611Z</time>
      </trkpt>
      <trkpt lat="46.92542" lon="8.69287">
        <ele>1847</ele>
        <time>2021-08-07T07:14:39.611Z</time>
      </trkpt>
      <trkpt lat="46.92541" lon="8.69288">
        <ele>1847</ele>
        <time>2021-08-07T07:14:40.611Z</time>
      </trkpt>
      <trkpt lat="46.92541" lon="8.69289">
        <ele>1847</ele>
        <time>2021-08-07T07:14:41.611Z</time>
      </trkpt>
      <trkpt lat="46.92541" lon="8.69289">
        <ele>1847</ele>
        <time>2021-08-07T07:14:42.610Z</time>
      </trkpt>
      <trkpt lat="46.92541" lon="8.69289">
        <ele>1847</ele>
        <time>2021-08-07T07:14:43.611Z</time>
      </trkpt>
      <trkpt lat="46.9254" lon="8.69289">
        <ele>1847</ele>
        <time>2021-08-07T07:14:44.611Z</time>
      </trkpt>
      <trkpt lat="46.92539" lon="8.69288">
        <ele>1847</ele>
        <time>2021-08-07T07:14:45.610Z</time>
      </trkpt>
      <trkpt lat="46.92538" lon="8.69287">
        <ele>1847</ele>
        <time>2021-08-07T07:14:46.611Z</time>
      </trkpt>
      <trkpt lat="46.92538" lon="8.69287">
        <ele>1847</ele>
        <time>2021-08-07T07:14:47.611Z</time>
      </trkpt>
      <trkpt lat="46.92538" lon="8.69287">
        <ele>1848</ele>
        <time>2021-08-07T07:14:48.611Z</time>
      </trkpt>
      <trkpt lat="46.92537" lon="8.69287">
        <ele>1848</ele>
        <time>2021-08-07T07:14:49.610Z</time>
      </trkpt>
      <trkpt lat="46.92537" lon="8.69287">
        <ele>1848</ele>
        <time>2021-08-07T07:14:50.611Z</time>
      </trkpt>
      <trkpt lat="46.92536" lon="8.69286">
        <ele>1849</ele>
        <time>2021-08-07T07:14:51.611Z</time>
      </trkpt>
      <trkpt lat="46.92536" lon="8.69285">
        <ele>1848</ele>
        <time>2021-08-07T07:14:52.611Z</time>
      </trkpt>
      <trkpt lat="46.92536" lon="8.69285">
        <ele>1848</ele>
        <time>2021-08-07T07:14:53.610Z</time>
      </trkpt>
      <trkpt lat="46.92536" lon="8.69285">
        <ele>1848</ele>
        <time>2021-08-07T07:14:54.610Z</time>
      </trkpt>
      <trkpt lat="46.92535" lon="8.69285">
        <ele>1848</ele>
        <time>2021-08-07T07:14:55.611Z</time>
      </trkpt>
      <trkpt lat="46.92534" lon="8.69285">
        <ele>1848</ele>
        <time>2021-08-07T07:14:56.610Z</time>
      </trkpt>
      <trkpt lat="46.92533" lon="8.69284">
        <ele>1848</ele>
        <time>2021-08-07T07:14:57.610Z</time>
      </trkpt>
      <trkpt lat="46.92533" lon="8.69285">
        <ele>1849</ele>
        <time>2021-08-07T07:14:58.610Z</time>
      </trkpt>
      <trkpt lat="46.92532" lon="8.69285">
        <ele>1849</ele>
        <time>2021-08-07T07:14:59.611Z</time>
      </trkpt>
      <trkpt lat="46.92531" lon="8.69285">
        <ele>1849</ele>
        <time>2021-08-07T07:15:00.610Z</time>
      </trkpt>
      <trkpt lat="46.9253" lon="8.69284">
        <ele>1849</ele>
        <time>2021-08-07T07:15:01.611Z</time>
      </trkpt>
      <trkpt lat="46.92529" lon="8.69283">
        <ele>1849</ele>
        <time>2021-08-07T07:15:02.611Z</time>
      </trkpt>
      <trkpt lat="46.92528" lon="8.69283">
        <ele>1848</ele>
        <time>2021-08-07T07:15:03.610Z</time>
      </trkpt>
      <trkpt lat="46.92528" lon="8.69282">
        <ele>1848</ele>
        <time>2021-08-07T07:15:04.610Z</time>
      </trkpt>
      <trkpt lat="46.92527" lon="8.69281">
        <ele>1847</ele>
        <time>2021-08-07T07:15:05.611Z</time>
      </trkpt>
      <trkpt lat="46.92526" lon="8.6928">
        <ele>1847</ele>
        <time>2021-08-07T07:15:06.611Z</time>
      </trkpt>
      <trkpt lat="46.92524" lon="8.69279">
        <ele>1847</ele>
        <time>2021-08-07T07:15:07.611Z</time>
      </trkpt>
      <trkpt lat="46.92524" lon="8.69279">
        <ele>1847</ele>
        <time>2021-08-07T07:15:08.610Z</time>
      </trkpt>
      <trkpt lat="46.92523" lon="8.69279">
        <ele>1847</ele>
        <time>2021-08-07T07:15:09.610Z</time>
      </trkpt>
      <trkpt lat="46.92523" lon="8.69279">
        <ele>1846</ele>
        <time>2021-08-07T07:15:10.610Z</time>
      </trkpt>
      <trkpt lat="46.92522" lon="8.69279">
        <ele>1846</ele>
        <time>2021-08-07T07:15:11.610Z</time>
      </trkpt>
      <trkpt lat="46.92523" lon="8.69279">
        <ele>1846</ele>
        <time>2021-08-07T07:15:12.612Z</time>
      </trkpt>
      <trkpt lat="46.92523" lon="8.6928">
        <ele>1846</ele>
        <time>2021-08-07T07:15:13.611Z</time>
      </trkpt>
      <trkpt lat="46.92523" lon="8.69279">
        <ele>1845</ele>
        <time>2021-08-07T07:15:14.612Z</time>
      </trkpt>
      <trkpt lat="46.92523" lon="8.6928">
        <ele>1845</ele>
        <time>2021-08-07T07:15:15.611Z</time>
      </trkpt>
      <trkpt lat="46.92522" lon="8.69279">
        <ele>1847</ele>
        <time>2021-08-07T07:15:16.612Z</time>
      </trkpt>
      <trkpt lat="46.92522" lon="8.69278">
        <ele>1847</ele>
        <time>2021-08-07T07:15:17.612Z</time>
      </trkpt>
      <trkpt lat="46.92522" lon="8.69277">
        <ele>1847</ele>
        <time>2021-08-07T07:15:18.611Z</time>
      </trkpt>
      <trkpt lat="46.92522" lon="8.69276">
        <ele>1848</ele>
        <time>2021-08-07T07:15:19.612Z</time>
      </trkpt>
      <trkpt lat="46.92522" lon="8.69274">
        <ele>1848</ele>
        <time>2021-08-07T07:15:20.612Z</time>
      </trkpt>
      <trkpt lat="46.92522" lon="8.69273">
        <ele>1848</ele>
        <time>2021-08-07T07:15:21.612Z</time>
      </trkpt>
      <trkpt lat="46.92521" lon="8.69272">
        <ele>1849</ele>
        <time>2021-08-07T07:15:22.612Z</time>
      </trkpt>
      <trkpt lat="46.9252" lon="8.69271">
        <ele>1849</ele>
        <time>2021-08-07T07:15:23.611Z</time>
      </trkpt>
      <trkpt lat="46.9252" lon="8.6927">
        <ele>1850</ele>
        <time>2021-08-07T07:15:24.612Z</time>
      </trkpt>
      <trkpt lat="46.92519" lon="8.6927">
        <ele>1850</ele>
        <time>2021-08-07T07:15:25.612Z</time>
      </trkpt>
      <trkpt lat="46.92519" lon="8.6927">
        <ele>1850</ele>
        <time>2021-08-07T07:15:26.612Z</time>
      </trkpt>
      <trkpt lat="46.92518" lon="8.69269">
        <ele>1850</ele>
        <time>2021-08-07T07:15:27.613Z</time>
      </trkpt>
      <trkpt lat="46.92517" lon="8.69268">
        <ele>1850</ele>
        <time>2021-08-07T07:15:28.613Z</time>
      </trkpt>
      <trkpt lat="46.92517" lon="8.69267">
        <ele>1851</ele>
        <time>2021-08-07T07:15:29.612Z</time>
      </trkpt>
      <trkpt lat="46.92517" lon="8.69267">
        <ele>1851</ele>
        <time>2021-08-07T07:15:30.613Z</time>
      </trkpt>
      <trkpt lat="46.92517" lon="8.69268">
        <ele>1851</ele>
        <time>2021-08-07T07:15:31.612Z</time>
      </trkpt>
      <trkpt lat="46.92517" lon="8.69268">
        <ele>1851</ele>
        <time>2021-08-07T07:15:32.613Z</time>
      </trkpt>
      <trkpt lat="46.92516" lon="8.69268">
        <ele>1851</ele>
        <time>2021-08-07T07:15:33.613Z</time>
      </trkpt>
      <trkpt lat="46.92515" lon="8.69267">
        <ele>1851</ele>
        <time>2021-08-07T07:15:34.612Z</time>
      </trkpt>
      <trkpt lat="46.92515" lon="8.69266">
        <ele>1851</ele>
        <time>2021-08-07T07:15:35.612Z</time>
      </trkpt>
      <trkpt lat="46.92514" lon="8.69265">
        <ele>1851</ele>
        <time>2021-08-07T07:15:36.612Z</time>
      </trkpt>
      <trkpt lat="46.92513" lon="8.69265">
        <ele>1851</ele>
        <time>2021-08-07T07:15:37.613Z</time>
      </trkpt>
      <trkpt lat="46.92513" lon="8.69264">
        <ele>1852</ele>
        <time>2021-08-07T07:15:38.613Z</time>
      </trkpt>
      <trkpt lat="46.92513" lon="8.69264">
        <ele>1852</ele>
        <time>2021-08-07T07:15:39.612Z</time>
      </trkpt>
      <trkpt lat="46.92512" lon="8.69264">
        <ele>1853</ele>
        <time>2021-08-07T07:15:40.612Z</time>
      </trkpt>
      <trkpt lat="46.92511" lon="8.69264">
        <ele>1853</ele>
        <time>2021-08-07T07:15:41.612Z</time>
      </trkpt>
      <trkpt lat="46.9251" lon="8.69264">
        <ele>1854</ele>
        <time>2021-08-07T07:15:42.612Z</time>
      </trkpt>
      <trkpt lat="46.9251" lon="8.69264">
        <ele>1854</ele>
        <time>2021-08-07T07:15:43.613Z</time>
      </trkpt>
      <trkpt lat="46.9251" lon="8.69264">
        <ele>1854</ele>
        <time>2021-08-07T07:15:44.612Z</time>
      </trkpt>
      <trkpt lat="46.92508" lon="8.69263">
        <ele>1855</ele>
        <time>2021-08-07T07:15:45.612Z</time>
      </trkpt>
      <trkpt lat="46.92507" lon="8.69262">
        <ele>1855</ele>
        <time>2021-08-07T07:15:46.612Z</time>
      </trkpt>
      <trkpt lat="46.92507" lon="8.69262">
        <ele>1856</ele>
        <time>2021-08-07T07:15:47.612Z</time>
      </trkpt>
      <trkpt lat="46.92506" lon="8.69261">
        <ele>1856</ele>
        <time>2021-08-07T07:15:48.612Z</time>
      </trkpt>
      <trkpt lat="46.92506" lon="8.6926">
        <ele>1856</ele>
        <time>2021-08-07T07:15:49.612Z</time>
      </trkpt>
      <trkpt lat="46.92505" lon="8.69261">
        <ele>1857</ele>
        <time>2021-08-07T07:15:50.612Z</time>
      </trkpt>
      <trkpt lat="46.92505" lon="8.69261">
        <ele>1857</ele>
        <time>2021-08-07T07:15:51.612Z</time>
      </trkpt>
      <trkpt lat="46.92504" lon="8.6926">
        <ele>1857</ele>
        <time>2021-08-07T07:15:52.612Z</time>
      </trkpt>
      <trkpt lat="46.92504" lon="8.6926">
        <ele>1857</ele>
        <time>2021-08-07T07:15:53.612Z</time>
      </trkpt>
      <trkpt lat="46.92503" lon="8.6926">
        <ele>1857</ele>
        <time>2021-08-07T07:15:54.613Z</time>
      </trkpt>
      <trkpt lat="46.92503" lon="8.69258">
        <ele>1857</ele>
        <time>2021-08-07T07:15:55.612Z</time>
      </trkpt>
      <trkpt lat="46.92503" lon="8.69257">
        <ele>1857</ele>
        <time>2021-08-07T07:15:56.612Z</time>
      </trkpt>
      <trkpt lat="46.92502" lon="8.69256">
        <ele>1857</ele>
        <time>2021-08-07T07:15:57.612Z</time>
      </trkpt>
      <trkpt lat="46.92502" lon="8.69255">
        <ele>1857</ele>
        <time>2021-08-07T07:15:58.613Z</time>
      </trkpt>
      <trkpt lat="46.92501" lon="8.69254">
        <ele>1857</ele>
        <time>2021-08-07T07:15:59.612Z</time>
      </trkpt>
      <trkpt lat="46.92501" lon="8.69255">
        <ele>1857</ele>
        <time>2021-08-07T07:16:00.613Z</time>
      </trkpt>
      <trkpt lat="46.92501" lon="8.69254">
        <ele>1857</ele>
        <time>2021-08-07T07:16:01.613Z</time>
      </trkpt>
      <trkpt lat="46.92501" lon="8.69254">
        <ele>1857</ele>
        <time>2021-08-07T07:16:02.612Z</time>
      </trkpt>
      <trkpt lat="46.925" lon="8.69254">
        <ele>1857</ele>
        <time>2021-08-07T07:16:03.612Z</time>
      </trkpt>
      <trkpt lat="46.92499" lon="8.69253">
        <ele>1858</ele>
        <time>2021-08-07T07:16:04.612Z</time>
      </trkpt>
      <trkpt lat="46.92498" lon="8.69253">
        <ele>1858</ele>
        <time>2021-08-07T07:16:05.613Z</time>
      </trkpt>
      <trkpt lat="46.92496" lon="8.69253">
        <ele>1858</ele>
        <time>2021-08-07T07:16:06.612Z</time>
      </trkpt>
      <trkpt lat="46.92495" lon="8.69252">
        <ele>1858</ele>
        <time>2021-08-07T07:16:07.612Z</time>
      </trkpt>
      <trkpt lat="46.92494" lon="8.69251">
        <ele>1858</ele>
        <time>2021-08-07T07:16:08.612Z</time>
      </trkpt>
      <trkpt lat="46.92493" lon="8.6925">
        <ele>1858</ele>
        <time>2021-08-07T07:16:09.613Z</time>
      </trkpt>
      <trkpt lat="46.92492" lon="8.69251">
        <ele>1858</ele>
        <time>2021-08-07T07:16:10.612Z</time>
      </trkpt>
      <trkpt lat="46.92491" lon="8.69252">
        <ele>1857</ele>
        <time>2021-08-07T07:16:11.612Z</time>
      </trkpt>
      <trkpt lat="46.9249" lon="8.69252">
        <ele>1857</ele>
        <time>2021-08-07T07:16:12.612Z</time>
      </trkpt>
      <trkpt lat="46.92489" lon="8.69252">
        <ele>1857</ele>
        <time>2021-08-07T07:16:13.612Z</time>
      </trkpt>
      <trkpt lat="46.92489" lon="8.69251">
        <ele>1857</ele>
        <time>2021-08-07T07:16:14.612Z</time>
      </trkpt>
      <trkpt lat="46.92488" lon="8.6925">
        <ele>1856</ele>
        <time>2021-08-07T07:16:15.612Z</time>
      </trkpt>
      <trkpt lat="46.92487" lon="8.6925">
        <ele>1856</ele>
        <time>2021-08-07T07:16:16.612Z</time>
      </trkpt>
      <trkpt lat="46.92486" lon="8.6925">
        <ele>1856</ele>
        <time>2021-08-07T07:16:17.612Z</time>
      </trkpt>
      <trkpt lat="46.92485" lon="8.6925">
        <ele>1856</ele>
        <time>2021-08-07T07:16:18.612Z</time>
      </trkpt>
      <trkpt lat="46.92485" lon="8.6925">
        <ele>1856</ele>
        <time>2021-08-07T07:16:19.613Z</time>
      </trkpt>
      <trkpt lat="46.92484" lon="8.69248">
        <ele>1856</ele>
        <time>2021-08-07T07:16:20.612Z</time>
      </trkpt>
      <trkpt lat="46.92483" lon="8.69248">
        <ele>1856</ele>
        <time>2021-08-07T07:16:21.612Z</time>
      </trkpt>
      <trkpt lat="46.92482" lon="8.69247">
        <ele>1856</ele>
        <time>2021-08-07T07:16:22.612Z</time>
      </trkpt>
      <trkpt lat="46.92481" lon="8.69247">
        <ele>1856</ele>
        <time>2021-08-07T07:16:23.612Z</time>
      </trkpt>
      <trkpt lat="46.9248" lon="8.69245">
        <ele>1857</ele>
        <time>2021-08-07T07:16:24.612Z</time>
      </trkpt>
      <trkpt lat="46.92479" lon="8.69244">
        <ele>1857</ele>
        <time>2021-08-07T07:16:25.613Z</time>
      </trkpt>
      <trkpt lat="46.92479" lon="8.69244">
        <ele>1857</ele>
        <time>2021-08-07T07:16:26.612Z</time>
      </trkpt>
      <trkpt lat="46.92479" lon="8.69244">
        <ele>1858</ele>
        <time>2021-08-07T07:16:27.612Z</time>
      </trkpt>
      <trkpt lat="46.92479" lon="8.69243">
        <ele>1859</ele>
        <time>2021-08-07T07:16:28.612Z</time>
      </trkpt>
      <trkpt lat="46.92478" lon="8.69242">
        <ele>1859</ele>
        <time>2021-08-07T07:16:29.613Z</time>
      </trkpt>
      <trkpt lat="46.92477" lon="8.69241">
        <ele>1859</ele>
        <time>2021-08-07T07:16:30.612Z</time>
      </trkpt>
      <trkpt lat="46.92477" lon="8.6924">
        <ele>1859</ele>
        <time>2021-08-07T07:16:31.613Z</time>
      </trkpt>
      <trkpt lat="46.92476" lon="8.6924">
        <ele>1859</ele>
        <time>2021-08-07T07:16:32.613Z</time>
      </trkpt>
      <trkpt lat="46.92475" lon="8.69239">
        <ele>1859</ele>
        <time>2021-08-07T07:16:33.613Z</time>
      </trkpt>
      <trkpt lat="46.92475" lon="8.69238">
        <ele>1859</ele>
        <time>2021-08-07T07:16:34.613Z</time>
      </trkpt>
      <trkpt lat="46.92474" lon="8.69237">
        <ele>1859</ele>
        <time>2021-08-07T07:16:35.613Z</time>
      </trkpt>
      <trkpt lat="46.92473" lon="8.69236">
        <ele>1859</ele>
        <time>2021-08-07T07:16:36.613Z</time>
      </trkpt>
      <trkpt lat="46.92472" lon="8.69236">
        <ele>1859</ele>
        <time>2021-08-07T07:16:37.613Z</time>
      </trkpt>
      <trkpt lat="46.92471" lon="8.69235">
        <ele>1859</ele>
        <time>2021-08-07T07:16:38.613Z</time>
      </trkpt>
      <trkpt lat="46.92471" lon="8.69235">
        <ele>1859</ele>
        <time>2021-08-07T07:16:39.613Z</time>
      </trkpt>
      <trkpt lat="46.9247" lon="8.69234">
        <ele>1860</ele>
        <time>2021-08-07T07:16:40.612Z</time>
      </trkpt>
      <trkpt lat="46.92469" lon="8.69234">
        <ele>1860</ele>
        <time>2021-08-07T07:16:41.612Z</time>
      </trkpt>
      <trkpt lat="46.92468" lon="8.69233">
        <ele>1860</ele>
        <time>2021-08-07T07:16:42.612Z</time>
      </trkpt>
      <trkpt lat="46.92467" lon="8.69232">
        <ele>1860</ele>
        <time>2021-08-07T07:16:43.613Z</time>
      </trkpt>
      <trkpt lat="46.92467" lon="8.69232">
        <ele>1861</ele>
        <time>2021-08-07T07:16:44.612Z</time>
      </trkpt>
      <trkpt lat="46.92466" lon="8.69232">
        <ele>1861</ele>
        <time>2021-08-07T07:16:45.613Z</time>
      </trkpt>
      <trkpt lat="46.92466" lon="8.69232">
        <ele>1861</ele>
        <time>2021-08-07T07:16:46.612Z</time>
      </trkpt>
      <trkpt lat="46.92465" lon="8.69232">
        <ele>1862</ele>
        <time>2021-08-07T07:16:47.613Z</time>
      </trkpt>
      <trkpt lat="46.92464" lon="8.69232">
        <ele>1862</ele>
        <time>2021-08-07T07:16:48.612Z</time>
      </trkpt>
      <trkpt lat="46.92464" lon="8.69232">
        <ele>1863</ele>
        <time>2021-08-07T07:16:49.613Z</time>
      </trkpt>
      <trkpt lat="46.92463" lon="8.69232">
        <ele>1863</ele>
        <time>2021-08-07T07:16:50.613Z</time>
      </trkpt>
      <trkpt lat="46.92463" lon="8.69232">
        <ele>1864</ele>
        <time>2021-08-07T07:16:51.612Z</time>
      </trkpt>
      <trkpt lat="46.92462" lon="8.69232">
        <ele>1864</ele>
        <time>2021-08-07T07:16:52.613Z</time>
      </trkpt>
      <trkpt lat="46.92461" lon="8.69232">
        <ele>1865</ele>
        <time>2021-08-07T07:16:53.612Z</time>
      </trkpt>
      <trkpt lat="46.9246" lon="8.69232">
        <ele>1865</ele>
        <time>2021-08-07T07:16:54.612Z</time>
      </trkpt>
      <trkpt lat="46.92459" lon="8.69231">
        <ele>1865</ele>
        <time>2021-08-07T07:16:55.613Z</time>
      </trkpt>
      <trkpt lat="46.92458" lon="8.69231">
        <ele>1865</ele>
        <time>2021-08-07T07:16:56.612Z</time>
      </trkpt>
      <trkpt lat="46.92457" lon="8.69231">
        <ele>1865</ele>
        <time>2021-08-07T07:16:57.613Z</time>
      </trkpt>
      <trkpt lat="46.92457" lon="8.69231">
        <ele>1866</ele>
        <time>2021-08-07T07:16:58.612Z</time>
      </trkpt>
      <trkpt lat="46.92456" lon="8.6923">
        <ele>1866</ele>
        <time>2021-08-07T07:16:59.613Z</time>
      </trkpt>
      <trkpt lat="46.92456" lon="8.6923">
        <ele>1866</ele>
        <time>2021-08-07T07:17:00.613Z</time>
      </trkpt>
      <trkpt lat="46.92455" lon="8.69229">
        <ele>1866</ele>
        <time>2021-08-07T07:17:01.612Z</time>
      </trkpt>
      <trkpt lat="46.92454" lon="8.69228">
        <ele>1866</ele>
        <time>2021-08-07T07:17:02.613Z</time>
      </trkpt>
      <trkpt lat="46.92453" lon="8.69228">
        <ele>1866</ele>
        <time>2021-08-07T07:17:03.613Z</time>
      </trkpt>
      <trkpt lat="46.92452" lon="8.69227">
        <ele>1866</ele>
        <time>2021-08-07T07:17:04.612Z</time>
      </trkpt>
      <trkpt lat="46.92451" lon="8.69226">
        <ele>1866</ele>
        <time>2021-08-07T07:17:05.612Z</time>
      </trkpt>
      <trkpt lat="46.92451" lon="8.69225">
        <ele>1866</ele>
        <time>2021-08-07T07:17:06.613Z</time>
      </trkpt>
      <trkpt lat="46.9245" lon="8.69223">
        <ele>1866</ele>
        <time>2021-08-07T07:17:07.613Z</time>
      </trkpt>
      <trkpt lat="46.92449" lon="8.69222">
        <ele>1867</ele>
        <time>2021-08-07T07:17:08.612Z</time>
      </trkpt>
      <trkpt lat="46.92449" lon="8.69221">
        <ele>1867</ele>
        <time>2021-08-07T07:17:09.612Z</time>
      </trkpt>
      <trkpt lat="46.92448" lon="8.69221">
        <ele>1867</ele>
        <time>2021-08-07T07:17:10.612Z</time>
      </trkpt>
      <trkpt lat="46.92448" lon="8.69221">
        <ele>1867</ele>
        <time>2021-08-07T07:17:11.612Z</time>
      </trkpt>
      <trkpt lat="46.92448" lon="8.69222">
        <ele>1867</ele>
        <time>2021-08-07T07:17:12.613Z</time>
      </trkpt>
      <trkpt lat="46.92447" lon="8.69221">
        <ele>1867</ele>
        <time>2021-08-07T07:17:13.612Z</time>
      </trkpt>
      <trkpt lat="46.92446" lon="8.69221">
        <ele>1867</ele>
        <time>2021-08-07T07:17:14.612Z</time>
      </trkpt>
      <trkpt lat="46.92445" lon="8.6922">
        <ele>1867</ele>
        <time>2021-08-07T07:17:15.613Z</time>
      </trkpt>
      <trkpt lat="46.92444" lon="8.6922">
        <ele>1867</ele>
        <time>2021-08-07T07:17:16.613Z</time>
      </trkpt>
      <trkpt lat="46.92444" lon="8.6922">
        <ele>1868</ele>
        <time>2021-08-07T07:17:17.613Z</time>
      </trkpt>
      <trkpt lat="46.92442" lon="8.69219">
        <ele>1868</ele>
        <time>2021-08-07T07:17:18.613Z</time>
      </trkpt>
      <trkpt lat="46.92441" lon="8.69218">
        <ele>1868</ele>
        <time>2021-08-07T07:17:19.612Z</time>
      </trkpt>
      <trkpt lat="46.92441" lon="8.69217">
        <ele>1868</ele>
        <time>2021-08-07T07:17:20.613Z</time>
      </trkpt>
      <trkpt lat="46.9244" lon="8.69217">
        <ele>1869</ele>
        <time>2021-08-07T07:17:21.613Z</time>
      </trkpt>
      <trkpt lat="46.9244" lon="8.69216">
        <ele>1869</ele>
        <time>2021-08-07T07:17:22.613Z</time>
      </trkpt>
      <trkpt lat="46.92439" lon="8.69216">
        <ele>1869</ele>
        <time>2021-08-07T07:17:23.612Z</time>
      </trkpt>
      <trkpt lat="46.92439" lon="8.69215">
        <ele>1870</ele>
        <time>2021-08-07T07:17:24.612Z</time>
      </trkpt>
      <trkpt lat="46.92438" lon="8.69214">
        <ele>1870</ele>
        <time>2021-08-07T07:17:25.613Z</time>
      </trkpt>
      <trkpt lat="46.92437" lon="8.69213">
        <ele>1870</ele>
        <time>2021-08-07T07:17:26.613Z</time>
      </trkpt>
      <trkpt lat="46.92437" lon="8.69213">
        <ele>1870</ele>
        <time>2021-08-07T07:17:27.613Z</time>
      </trkpt>
      <trkpt lat="46.92436" lon="8.69213">
        <ele>1871</ele>
        <time>2021-08-07T07:17:28.612Z</time>
      </trkpt>
      <trkpt lat="46.92436" lon="8.69213">
        <ele>1871</ele>
        <time>2021-08-07T07:17:29.612Z</time>
      </trkpt>
      <trkpt lat="46.92435" lon="8.69213">
        <ele>1871</ele>
        <time>2021-08-07T07:17:30.612Z</time>
      </trkpt>
      <trkpt lat="46.92435" lon="8.69213">
        <ele>1872</ele>
        <time>2021-08-07T07:17:31.613Z</time>
      </trkpt>
      <trkpt lat="46.92434" lon="8.69213">
        <ele>1872</ele>
        <time>2021-08-07T07:17:32.612Z</time>
      </trkpt>
      <trkpt lat="46.92434" lon="8.69212">
        <ele>1872</ele>
        <time>2021-08-07T07:17:33.612Z</time>
      </trkpt>
      <trkpt lat="46.92433" lon="8.69212">
        <ele>1872</ele>
        <time>2021-08-07T07:17:34.613Z</time>
      </trkpt>
      <trkpt lat="46.92433" lon="8.69212">
        <ele>1871</ele>
        <time>2021-08-07T07:17:35.613Z</time>
      </trkpt>
      <trkpt lat="46.92431" lon="8.6921">
        <ele>1868</ele>
        <time>2021-08-07T07:17:36.613Z</time>
      </trkpt>
      <trkpt lat="46.92432" lon="8.6921">
        <ele>1868</ele>
        <time>2021-08-07T07:17:37.612Z</time>
      </trkpt>
      <trkpt lat="46.92432" lon="8.69209">
        <ele>1864</ele>
        <time>2021-08-07T07:17:38.613Z</time>
      </trkpt>
      <trkpt lat="46.92432" lon="8.69209">
        <ele>1863</ele>
        <time>2021-08-07T07:17:39.613Z</time>
      </trkpt>
      <trkpt lat="46.92432" lon="8.69209">
        <ele>1862</ele>
        <time>2021-08-07T07:17:40.612Z</time>
      </trkpt>
      <trkpt lat="46.92431" lon="8.69209">
        <ele>1862</ele>
        <time>2021-08-07T07:17:41.612Z</time>
      </trkpt>
      <trkpt lat="46.92431" lon="8.69208">
        <ele>1862</ele>
        <time>2021-08-07T07:17:42.612Z</time>
      </trkpt>
      <trkpt lat="46.9243" lon="8.69208">
        <ele>1862</ele>
        <time>2021-08-07T07:17:43.613Z</time>
      </trkpt>
      <trkpt lat="46.9243" lon="8.69208">
        <ele>1862</ele>
        <time>2021-08-07T07:17:44.613Z</time>
      </trkpt>
      <trkpt lat="46.9243" lon="8.69208">
        <ele>1862</ele>
        <time>2021-08-07T07:17:45.613Z</time>
      </trkpt>
      <trkpt lat="46.92428" lon="8.69207">
        <ele>1860</ele>
        <time>2021-08-07T07:17:46.613Z</time>
      </trkpt>
      <trkpt lat="46.92428" lon="8.69206">
        <ele>1860</ele>
        <time>2021-08-07T07:17:47.614Z</time>
      </trkpt>
      <trkpt lat="46.92427" lon="8.69206">
        <ele>1859</ele>
        <time>2021-08-07T07:17:48.613Z</time>
      </trkpt>
      <trkpt lat="46.92427" lon="8.69206">
        <ele>1859</ele>
        <time>2021-08-07T07:17:49.613Z</time>
      </trkpt>
      <trkpt lat="46.92427" lon="8.69206">
        <ele>1859</ele>
        <time>2021-08-07T07:17:50.613Z</time>
      </trkpt>
      <trkpt lat="46.92426" lon="8.69207">
        <ele>1859</ele>
        <time>2021-08-07T07:17:51.614Z</time>
      </trkpt>
      <trkpt lat="46.92425" lon="8.69207">
        <ele>1859</ele>
        <time>2021-08-07T07:17:52.614Z</time>
      </trkpt>
      <trkpt lat="46.92425" lon="8.69207">
        <ele>1859</ele>
        <time>2021-08-07T07:17:53.614Z</time>
      </trkpt>
      <trkpt lat="46.92424" lon="8.69207">
        <ele>1860</ele>
        <time>2021-08-07T07:17:54.613Z</time>
      </trkpt>
      <trkpt lat="46.92423" lon="8.69206">
        <ele>1860</ele>
        <time>2021-08-07T07:17:55.614Z</time>
      </trkpt>
      <trkpt lat="46.92422" lon="8.69205">
        <ele>1860</ele>
        <time>2021-08-07T07:17:56.614Z</time>
      </trkpt>
      <trkpt lat="46.92422" lon="8.69205">
        <ele>1860</ele>
        <time>2021-08-07T07:17:57.613Z</time>
      </trkpt>
      <trkpt lat="46.92421" lon="8.69205">
        <ele>1860</ele>
        <time>2021-08-07T07:17:58.614Z</time>
      </trkpt>
      <trkpt lat="46.92421" lon="8.69205">
        <ele>1860</ele>
        <time>2021-08-07T07:17:59.613Z</time>
      </trkpt>
      <trkpt lat="46.9242" lon="8.69204">
        <ele>1861</ele>
        <time>2021-08-07T07:18:00.614Z</time>
      </trkpt>
      <trkpt lat="46.92418" lon="8.69204">
        <ele>1861</ele>
        <time>2021-08-07T07:18:01.614Z</time>
      </trkpt>
      <trkpt lat="46.92417" lon="8.69203">
        <ele>1861</ele>
        <time>2021-08-07T07:18:02.614Z</time>
      </trkpt>
      <trkpt lat="46.92416" lon="8.69203">
        <ele>1861</ele>
        <time>2021-08-07T07:18:03.613Z</time>
      </trkpt>
      <trkpt lat="46.92416" lon="8.69203">
        <ele>1861</ele>
        <time>2021-08-07T07:18:04.614Z</time>
      </trkpt>
      <trkpt lat="46.92415" lon="8.69202">
        <ele>1861</ele>
        <time>2021-08-07T07:18:05.614Z</time>
      </trkpt>
      <trkpt lat="46.92414" lon="8.69202">
        <ele>1861</ele>
        <time>2021-08-07T07:18:06.613Z</time>
      </trkpt>
      <trkpt lat="46.92414" lon="8.69201">
        <ele>1861</ele>
        <time>2021-08-07T07:18:07.614Z</time>
      </trkpt>
      <trkpt lat="46.92413" lon="8.692">
        <ele>1861</ele>
        <time>2021-08-07T07:18:08.614Z</time>
      </trkpt>
      <trkpt lat="46.92413" lon="8.69199">
        <ele>1861</ele>
        <time>2021-08-07T07:18:09.613Z</time>
      </trkpt>
      <trkpt lat="46.92412" lon="8.69198">
        <ele>1862</ele>
        <time>2021-08-07T07:18:10.614Z</time>
      </trkpt>
      <trkpt lat="46.92412" lon="8.69197">
        <ele>1862</ele>
        <time>2021-08-07T07:18:11.613Z</time>
      </trkpt>
      <trkpt lat="46.92411" lon="8.69196">
        <ele>1862</ele>
        <time>2021-08-07T07:18:12.614Z</time>
      </trkpt>
      <trkpt lat="46.92411" lon="8.69195">
        <ele>1862</ele>
        <time>2021-08-07T07:18:13.613Z</time>
      </trkpt>
      <trkpt lat="46.92411" lon="8.69194">
        <ele>1862</ele>
        <time>2021-08-07T07:18:14.614Z</time>
      </trkpt>
      <trkpt lat="46.9241" lon="8.69193">
        <ele>1862</ele>
        <time>2021-08-07T07:18:15.613Z</time>
      </trkpt>
      <trkpt lat="46.9241" lon="8.69193">
        <ele>1862</ele>
        <time>2021-08-07T07:18:16.613Z</time>
      </trkpt>
      <trkpt lat="46.92409" lon="8.69194">
        <ele>1862</ele>
        <time>2021-08-07T07:18:17.613Z</time>
      </trkpt>
      <trkpt lat="46.92409" lon="8.69194">
        <ele>1862</ele>
        <time>2021-08-07T07:18:18.614Z</time>
      </trkpt>
      <trkpt lat="46.92408" lon="8.69193">
        <ele>1862</ele>
        <time>2021-08-07T07:18:19.614Z</time>
      </trkpt>
      <trkpt lat="46.92408" lon="8.69193">
        <ele>1862</ele>
        <time>2021-08-07T07:18:20.613Z</time>
      </trkpt>
      <trkpt lat="46.92407" lon="8.69192">
        <ele>1862</ele>
        <time>2021-08-07T07:18:21.613Z</time>
      </trkpt>
      <trkpt lat="46.92407" lon="8.69191">
        <ele>1862</ele>
        <time>2021-08-07T07:18:22.613Z</time>
      </trkpt>
      <trkpt lat="46.92406" lon="8.6919">
        <ele>1862</ele>
        <time>2021-08-07T07:18:23.614Z</time>
      </trkpt>
      <trkpt lat="46.92406" lon="8.69189">
        <ele>1862</ele>
        <time>2021-08-07T07:18:24.613Z</time>
      </trkpt>
      <trkpt lat="46.92405" lon="8.69189">
        <ele>1862</ele>
        <time>2021-08-07T07:18:25.614Z</time>
      </trkpt>
      <trkpt lat="46.92405" lon="8.69188">
        <ele>1862</ele>
        <time>2021-08-07T07:18:26.614Z</time>
      </trkpt>
      <trkpt lat="46.92405" lon="8.69187">
        <ele>1862</ele>
        <time>2021-08-07T07:18:27.613Z</time>
      </trkpt>
      <trkpt lat="46.92404" lon="8.69185">
        <ele>1862</ele>
        <time>2021-08-07T07:18:28.613Z</time>
      </trkpt>
      <trkpt lat="46.92403" lon="8.69185">
        <ele>1862</ele>
        <time>2021-08-07T07:18:29.614Z</time>
      </trkpt>
      <trkpt lat="46.92403" lon="8.69184">
        <ele>1862</ele>
        <time>2021-08-07T07:18:30.613Z</time>
      </trkpt>
      <trkpt lat="46.92403" lon="8.69184">
        <ele>1862</ele>
        <time>2021-08-07T07:18:31.614Z</time>
      </trkpt>
      <trkpt lat="46.92403" lon="8.69183">
        <ele>1862</ele>
        <time>2021-08-07T07:18:32.614Z</time>
      </trkpt>
      <trkpt lat="46.92403" lon="8.69182">
        <ele>1862</ele>
        <time>2021-08-07T07:18:33.614Z</time>
      </trkpt>
      <trkpt lat="46.92404" lon="8.69181">
        <ele>1862</ele>
        <time>2021-08-07T07:18:34.613Z</time>
      </trkpt>
      <trkpt lat="46.92403" lon="8.69181">
        <ele>1862</ele>
        <time>2021-08-07T07:18:35.613Z</time>
      </trkpt>
      <trkpt lat="46.92402" lon="8.6918">
        <ele>1862</ele>
        <time>2021-08-07T07:18:36.613Z</time>
      </trkpt>
      <trkpt lat="46.92403" lon="8.69176">
        <ele>1861</ele>
        <time>2021-08-07T07:18:37.615Z</time>
      </trkpt>
      <trkpt lat="46.92404" lon="8.69175">
        <ele>1861</ele>
        <time>2021-08-07T07:18:38.615Z</time>
      </trkpt>
      <trkpt lat="46.92404" lon="8.69174">
        <ele>1861</ele>
        <time>2021-08-07T07:18:39.614Z</time>
      </trkpt>
      <trkpt lat="46.92404" lon="8.69175">
        <ele>1861</ele>
        <time>2021-08-07T07:18:40.615Z</time>
      </trkpt>
      <trkpt lat="46.92403" lon="8.69175">
        <ele>1860</ele>
        <time>2021-08-07T07:18:41.615Z</time>
      </trkpt>
      <trkpt lat="46.92404" lon="8.69172">
        <ele>1860</ele>
        <time>2021-08-07T07:18:42.614Z</time>
      </trkpt>
      <trkpt lat="46.92404" lon="8.69171">
        <ele>1860</ele>
        <time>2021-08-07T07:18:43.614Z</time>
      </trkpt>
      <trkpt lat="46.92405" lon="8.6917">
        <ele>1860</ele>
        <time>2021-08-07T07:18:44.615Z</time>
      </trkpt>
      <trkpt lat="46.92405" lon="8.69169">
        <ele>1859</ele>
        <time>2021-08-07T07:18:45.615Z</time>
      </trkpt>
      <trkpt lat="46.92405" lon="8.69168">
        <ele>1859</ele>
        <time>2021-08-07T07:18:46.615Z</time>
      </trkpt>
      <trkpt lat="46.92404" lon="8.69168">
        <ele>1859</ele>
        <time>2021-08-07T07:18:47.615Z</time>
      </trkpt>
      <trkpt lat="46.92404" lon="8.69167">
        <ele>1859</ele>
        <time>2021-08-07T07:18:48.615Z</time>
      </trkpt>
      <trkpt lat="46.92403" lon="8.69167">
        <ele>1859</ele>
        <time>2021-08-07T07:18:49.615Z</time>
      </trkpt>
      <trkpt lat="46.92403" lon="8.69167">
        <ele>1859</ele>
        <time>2021-08-07T07:18:50.614Z</time>
      </trkpt>
      <trkpt lat="46.92402" lon="8.69166">
        <ele>1859</ele>
        <time>2021-08-07T07:18:51.614Z</time>
      </trkpt>
      <trkpt lat="46.92402" lon="8.69166">
        <ele>1859</ele>
        <time>2021-08-07T07:18:52.615Z</time>
      </trkpt>
      <trkpt lat="46.92401" lon="8.69165">
        <ele>1859</ele>
        <time>2021-08-07T07:18:53.615Z</time>
      </trkpt>
      <trkpt lat="46.924" lon="8.69165">
        <ele>1859</ele>
        <time>2021-08-07T07:18:54.614Z</time>
      </trkpt>
      <trkpt lat="46.924" lon="8.69164">
        <ele>1858</ele>
        <time>2021-08-07T07:18:55.615Z</time>
      </trkpt>
      <trkpt lat="46.924" lon="8.69163">
        <ele>1858</ele>
        <time>2021-08-07T07:18:56.615Z</time>
      </trkpt>
      <trkpt lat="46.924" lon="8.69163">
        <ele>1858</ele>
        <time>2021-08-07T07:18:57.615Z</time>
      </trkpt>
      <trkpt lat="46.92399" lon="8.69163">
        <ele>1858</ele>
        <time>2021-08-07T07:18:58.614Z</time>
      </trkpt>
      <trkpt lat="46.92397" lon="8.69163">
        <ele>1858</ele>
        <time>2021-08-07T07:18:59.615Z</time>
      </trkpt>
      <trkpt lat="46.92397" lon="8.69163">
        <ele>1858</ele>
        <time>2021-08-07T07:19:00.615Z</time>
      </trkpt>
      <trkpt lat="46.92396" lon="8.69162">
        <ele>1858</ele>
        <time>2021-08-07T07:19:01.614Z</time>
      </trkpt>
      <trkpt lat="46.92396" lon="8.69161">
        <ele>1857</ele>
        <time>2021-08-07T07:19:02.615Z</time>
      </trkpt>
      <trkpt lat="46.92396" lon="8.6916">
        <ele>1857</ele>
        <time>2021-08-07T07:19:03.615Z</time>
      </trkpt>
      <trkpt lat="46.92396" lon="8.69159">
        <ele>1857</ele>
        <time>2021-08-07T07:19:04.614Z</time>
      </trkpt>
      <trkpt lat="46.92396" lon="8.69158">
        <ele>1857</ele>
        <time>2021-08-07T07:19:05.615Z</time>
      </trkpt>
      <trkpt lat="46.92395" lon="8.69159">
        <ele>1857</ele>
        <time>2021-08-07T07:19:06.614Z</time>
      </trkpt>
      <trkpt lat="46.92394" lon="8.69159">
        <ele>1857</ele>
        <time>2021-08-07T07:19:07.614Z</time>
      </trkpt>
      <trkpt lat="46.92394" lon="8.69158">
        <ele>1857</ele>
        <time>2021-08-07T07:19:08.614Z</time>
      </trkpt>
      <trkpt lat="46.92394" lon="8.69158">
        <ele>1857</ele>
        <time>2021-08-07T07:19:09.614Z</time>
      </trkpt>
      <trkpt lat="46.92394" lon="8.69157">
        <ele>1856</ele>
        <time>2021-08-07T07:19:10.615Z</time>
      </trkpt>
      <trkpt lat="46.92393" lon="8.69157">
        <ele>1856</ele>
        <time>2021-08-07T07:19:11.615Z</time>
      </trkpt>
      <trkpt lat="46.92392" lon="8.69156">
        <ele>1857</ele>
        <time>2021-08-07T07:19:12.615Z</time>
      </trkpt>
      <trkpt lat="46.92391" lon="8.69156">
        <ele>1857</ele>
        <time>2021-08-07T07:19:13.614Z</time>
      </trkpt>
      <trkpt lat="46.9239" lon="8.69156">
        <ele>1857</ele>
        <time>2021-08-07T07:19:14.615Z</time>
      </trkpt>
      <trkpt lat="46.92389" lon="8.69155">
        <ele>1857</ele>
        <time>2021-08-07T07:19:15.615Z</time>
      </trkpt>
      <trkpt lat="46.92389" lon="8.69154">
        <ele>1858</ele>
        <time>2021-08-07T07:19:16.615Z</time>
      </trkpt>
      <trkpt lat="46.92388" lon="8.69154">
        <ele>1858</ele>
        <time>2021-08-07T07:19:17.615Z</time>
      </trkpt>
      <trkpt lat="46.92387" lon="8.69154">
        <ele>1858</ele>
        <time>2021-08-07T07:19:18.615Z</time>
      </trkpt>
      <trkpt lat="46.92387" lon="8.69154">
        <ele>1858</ele>
        <time>2021-08-07T07:19:19.614Z</time>
      </trkpt>
      <trkpt lat="46.92387" lon="8.69154">
        <ele>1858</ele>
        <time>2021-08-07T07:19:20.614Z</time>
      </trkpt>
      <trkpt lat="46.92387" lon="8.69154">
        <ele>1858</ele>
        <time>2021-08-07T07:19:21.615Z</time>
      </trkpt>
      <trkpt lat="46.92386" lon="8.69154">
        <ele>1857</ele>
        <time>2021-08-07T07:19:22.616Z</time>
      </trkpt>
      <trkpt lat="46.92385" lon="8.69153">
        <ele>1857</ele>
        <time>2021-08-07T07:19:23.615Z</time>
      </trkpt>
      <trkpt lat="46.92384" lon="8.69153">
        <ele>1856</ele>
        <time>2021-08-07T07:19:24.615Z</time>
      </trkpt>
      <trkpt lat="46.92383" lon="8.69153">
        <ele>1856</ele>
        <time>2021-08-07T07:19:25.615Z</time>
      </trkpt>
      <trkpt lat="46.92383" lon="8.69153">
        <ele>1855</ele>
        <time>2021-08-07T07:19:26.615Z</time>
      </trkpt>
      <trkpt lat="46.92382" lon="8.69154">
        <ele>1855</ele>
        <time>2021-08-07T07:19:27.615Z</time>
      </trkpt>
      <trkpt lat="46.92378" lon="8.69157">
        <ele>1859</ele>
        <time>2021-08-07T07:19:28.617Z</time>
      </trkpt>
      <trkpt lat="46.92377" lon="8.69157">
        <ele>1859</ele>
        <time>2021-08-07T07:19:29.616Z</time>
      </trkpt>
      <trkpt lat="46.92377" lon="8.69156">
        <ele>1860</ele>
        <time>2021-08-07T07:19:30.617Z</time>
      </trkpt>
      <trkpt lat="46.92376" lon="8.69157">
        <ele>1860</ele>
        <time>2021-08-07T07:19:31.617Z</time>
      </trkpt>
      <trkpt lat="46.92376" lon="8.69158">
        <ele>1858</ele>
        <time>2021-08-07T07:19:32.617Z</time>
      </trkpt>
      <trkpt lat="46.92376" lon="8.69159">
        <ele>1858</ele>
        <time>2021-08-07T07:19:33.617Z</time>
      </trkpt>
      <trkpt lat="46.92376" lon="8.6916">
        <ele>1858</ele>
        <time>2021-08-07T07:19:34.616Z</time>
      </trkpt>
      <trkpt lat="46.92373" lon="8.69161">
        <ele>1857</ele>
        <time>2021-08-07T07:19:35.616Z</time>
      </trkpt>
      <trkpt lat="46.92373" lon="8.69161">
        <ele>1856</ele>
        <time>2021-08-07T07:19:36.617Z</time>
      </trkpt>
      <trkpt lat="46.92372" lon="8.6916">
        <ele>1856</ele>
        <time>2021-08-07T07:19:37.617Z</time>
      </trkpt>
      <trkpt lat="46.92372" lon="8.6916">
        <ele>1856</ele>
        <time>2021-08-07T07:19:38.617Z</time>
      </trkpt>
      <trkpt lat="46.92371" lon="8.69159">
        <ele>1856</ele>
        <time>2021-08-07T07:19:39.617Z</time>
      </trkpt>
      <trkpt lat="46.9237" lon="8.69158">
        <ele>1857</ele>
        <time>2021-08-07T07:19:40.616Z</time>
      </trkpt>
      <trkpt lat="46.92369" lon="8.69158">
        <ele>1857</ele>
        <time>2021-08-07T07:19:41.616Z</time>
      </trkpt>
      <trkpt lat="46.92368" lon="8.69158">
        <ele>1857</ele>
        <time>2021-08-07T07:19:42.617Z</time>
      </trkpt>
      <trkpt lat="46.92368" lon="8.6916">
        <ele>1857</ele>
        <time>2021-08-07T07:19:43.616Z</time>
      </trkpt>
      <trkpt lat="46.92367" lon="8.6916">
        <ele>1856</ele>
        <time>2021-08-07T07:19:44.617Z</time>
      </trkpt>
      <trkpt lat="46.92365" lon="8.69159">
        <ele>1855</ele>
        <time>2021-08-07T07:19:45.618Z</time>
      </trkpt>
      <trkpt lat="46.92364" lon="8.69159">
        <ele>1855</ele>
        <time>2021-08-07T07:19:46.617Z</time>
      </trkpt>
      <trkpt lat="46.92364" lon="8.6916">
        <ele>1855</ele>
        <time>2021-08-07T07:19:47.618Z</time>
      </trkpt>
      <trkpt lat="46.92363" lon="8.6916">
        <ele>1855</ele>
        <time>2021-08-07T07:19:48.618Z</time>
      </trkpt>
      <trkpt lat="46.92363" lon="8.69161">
        <ele>1855</ele>
        <time>2021-08-07T07:19:49.618Z</time>
      </trkpt>
      <trkpt lat="46.92362" lon="8.69161">
        <ele>1855</ele>
        <time>2021-08-07T07:19:50.618Z</time>
      </trkpt>
      <trkpt lat="46.92361" lon="8.69161">
        <ele>1855</ele>
        <time>2021-08-07T07:19:51.617Z</time>
      </trkpt>
      <trkpt lat="46.9236" lon="8.69161">
        <ele>1855</ele>
        <time>2021-08-07T07:19:52.617Z</time>
      </trkpt>
      <trkpt lat="46.9236" lon="8.69161">
        <ele>1856</ele>
        <time>2021-08-07T07:19:53.617Z</time>
      </trkpt>
      <trkpt lat="46.92358" lon="8.69161">
        <ele>1856</ele>
        <time>2021-08-07T07:19:54.617Z</time>
      </trkpt>
      <trkpt lat="46.92358" lon="8.6916">
        <ele>1856</ele>
        <time>2021-08-07T07:19:55.617Z</time>
      </trkpt>
      <trkpt lat="46.92357" lon="8.6916">
        <ele>1857</ele>
        <time>2021-08-07T07:19:56.618Z</time>
      </trkpt>
      <trkpt lat="46.92357" lon="8.6916">
        <ele>1858</ele>
        <time>2021-08-07T07:19:57.618Z</time>
      </trkpt>
      <trkpt lat="46.92356" lon="8.6916">
        <ele>1859</ele>
        <time>2021-08-07T07:19:58.617Z</time>
      </trkpt>
      <trkpt lat="46.92356" lon="8.6916">
        <ele>1860</ele>
        <time>2021-08-07T07:19:59.617Z</time>
      </trkpt>
      <trkpt lat="46.92356" lon="8.69159">
        <ele>1863</ele>
        <time>2021-08-07T07:20:00.619Z</time>
      </trkpt>
      <trkpt lat="46.92356" lon="8.69159">
        <ele>1864</ele>
        <time>2021-08-07T07:20:01.619Z</time>
      </trkpt>
      <trkpt lat="46.92356" lon="8.69157">
        <ele>1864</ele>
        <time>2021-08-07T07:20:02.620Z</time>
      </trkpt>
      <trkpt lat="46.92356" lon="8.69156">
        <ele>1865</ele>
        <time>2021-08-07T07:20:03.619Z</time>
      </trkpt>
      <trkpt lat="46.92356" lon="8.69155">
        <ele>1865</ele>
        <time>2021-08-07T07:20:04.619Z</time>
      </trkpt>
      <trkpt lat="46.92355" lon="8.69155">
        <ele>1865</ele>
        <time>2021-08-07T07:20:05.620Z</time>
      </trkpt>
      <trkpt lat="46.92354" lon="8.69154">
        <ele>1865</ele>
        <time>2021-08-07T07:20:06.620Z</time>
      </trkpt>
      <trkpt lat="46.92354" lon="8.69153">
        <ele>1866</ele>
        <time>2021-08-07T07:20:07.620Z</time>
      </trkpt>
      <trkpt lat="46.92353" lon="8.69153">
        <ele>1865</ele>
        <time>2021-08-07T07:20:08.620Z</time>
      </trkpt>
      <trkpt lat="46.92353" lon="8.69153">
        <ele>1865</ele>
        <time>2021-08-07T07:20:09.620Z</time>
      </trkpt>
      <trkpt lat="46.92352" lon="8.69153">
        <ele>1865</ele>
        <time>2021-08-07T07:20:10.620Z</time>
      </trkpt>
      <trkpt lat="46.92351" lon="8.69152">
        <ele>1865</ele>
        <time>2021-08-07T07:20:11.619Z</time>
      </trkpt>
      <trkpt lat="46.92349" lon="8.69151">
        <ele>1865</ele>
        <time>2021-08-07T07:20:12.620Z</time>
      </trkpt>
      <trkpt lat="46.92349" lon="8.69152">
        <ele>1865</ele>
        <time>2021-08-07T07:20:13.619Z</time>
      </trkpt>
      <trkpt lat="46.92348" lon="8.69152">
        <ele>1864</ele>
        <time>2021-08-07T07:20:14.619Z</time>
      </trkpt>
      <trkpt lat="46.92347" lon="8.69151">
        <ele>1864</ele>
        <time>2021-08-07T07:20:15.620Z</time>
      </trkpt>
      <trkpt lat="46.92347" lon="8.69152">
        <ele>1863</ele>
        <time>2021-08-07T07:20:16.620Z</time>
      </trkpt>
      <trkpt lat="46.92348" lon="8.69152">
        <ele>1863</ele>
        <time>2021-08-07T07:20:17.619Z</time>
      </trkpt>
      <trkpt lat="46.92347" lon="8.6915">
        <ele>1862</ele>
        <time>2021-08-07T07:20:18.620Z</time>
      </trkpt>
      <trkpt lat="46.92347" lon="8.69149">
        <ele>1862</ele>
        <time>2021-08-07T07:20:19.619Z</time>
      </trkpt>
      <trkpt lat="46.92346" lon="8.69148">
        <ele>1862</ele>
        <time>2021-08-07T07:20:20.619Z</time>
      </trkpt>
      <trkpt lat="46.92346" lon="8.69147">
        <ele>1861</ele>
        <time>2021-08-07T07:20:21.620Z</time>
      </trkpt>
      <trkpt lat="46.92345" lon="8.69145">
        <ele>1861</ele>
        <time>2021-08-07T07:20:22.619Z</time>
      </trkpt>
      <trkpt lat="46.92345" lon="8.69146">
        <ele>1861</ele>
        <time>2021-08-07T07:20:23.620Z</time>
      </trkpt>
      <trkpt lat="46.92345" lon="8.69146">
        <ele>1861</ele>
        <time>2021-08-07T07:20:24.620Z</time>
      </trkpt>
      <trkpt lat="46.92344" lon="8.69146">
        <ele>1861</ele>
        <time>2021-08-07T07:20:25.619Z</time>
      </trkpt>
      <trkpt lat="46.92346" lon="8.69147">
        <ele>1861</ele>
        <time>2021-08-07T07:20:26.620Z</time>
      </trkpt>
      <trkpt lat="46.92347" lon="8.69146">
        <ele>1861</ele>
        <time>2021-08-07T07:20:27.620Z</time>
      </trkpt>
      <trkpt lat="46.92347" lon="8.69146">
        <ele>1862</ele>
        <time>2021-08-07T07:20:28.620Z</time>
      </trkpt>
      <trkpt lat="46.92346" lon="8.69145">
        <ele>1862</ele>
        <time>2021-08-07T07:20:29.620Z</time>
      </trkpt>
      <trkpt lat="46.92346" lon="8.69145">
        <ele>1863</ele>
        <time>2021-08-07T07:20:30.620Z</time>
      </trkpt>
      <trkpt lat="46.92345" lon="8.69145">
        <ele>1863</ele>
        <time>2021-08-07T07:20:31.619Z</time>
      </trkpt>
      <trkpt lat="46.92345" lon="8.69145">
        <ele>1863</ele>
        <time>2021-08-07T07:20:32.619Z</time>
      </trkpt>
      <trkpt lat="46.92344" lon="8.69145">
        <ele>1866</ele>
        <time>2021-08-07T07:20:33.621Z</time>
      </trkpt>
      <trkpt lat="46.92344" lon="8.69145">
        <ele>1866</ele>
        <time>2021-08-07T07:20:34.620Z</time>
      </trkpt>
      <trkpt lat="46.92343" lon="8.69144">
        <ele>1866</ele>
        <time>2021-08-07T07:20:35.621Z</time>
      </trkpt>
      <trkpt lat="46.92342" lon="8.69143">
        <ele>1867</ele>
        <time>2021-08-07T07:20:36.621Z</time>
      </trkpt>
      <trkpt lat="46.92341" lon="8.69141">
        <ele>1867</ele>
        <time>2021-08-07T07:20:37.621Z</time>
      </trkpt>
      <trkpt lat="46.92341" lon="8.69141">
        <ele>1868</ele>
        <time>2021-08-07T07:20:38.620Z</time>
      </trkpt>
      <trkpt lat="46.92341" lon="8.69141">
        <ele>1869</ele>
        <time>2021-08-07T07:20:39.622Z</time>
      </trkpt>
      <trkpt lat="46.92341" lon="8.69141">
        <ele>1870</ele>
        <time>2021-08-07T07:20:40.623Z</time>
      </trkpt>
      <trkpt lat="46.92341" lon="8.69141">
        <ele>1870</ele>
        <time>2021-08-07T07:20:41.622Z</time>
      </trkpt>
      <trkpt lat="46.92341" lon="8.69141">
        <ele>1871</ele>
        <time>2021-08-07T07:20:42.623Z</time>
      </trkpt>
      <trkpt lat="46.9234" lon="8.69139">
        <ele>1873</ele>
        <time>2021-08-07T07:20:43.623Z</time>
      </trkpt>
      <trkpt lat="46.9234" lon="8.69138">
        <ele>1873</ele>
        <time>2021-08-07T07:20:44.623Z</time>
      </trkpt>
      <trkpt lat="46.9234" lon="8.69138">
        <ele>1873</ele>
        <time>2021-08-07T07:20:45.623Z</time>
      </trkpt>
      <trkpt lat="46.92339" lon="8.69139">
        <ele>1871</ele>
        <time>2021-08-07T07:20:46.624Z</time>
      </trkpt>
      <trkpt lat="46.92338" lon="8.69139">
        <ele>1870</ele>
        <time>2021-08-07T07:20:47.624Z</time>
      </trkpt>
      <trkpt lat="46.92338" lon="8.69138">
        <ele>1870</ele>
        <time>2021-08-07T07:20:48.623Z</time>
      </trkpt>
      <trkpt lat="46.92337" lon="8.69138">
        <ele>1869</ele>
        <time>2021-08-07T07:20:49.623Z</time>
      </trkpt>
      <trkpt lat="46.92337" lon="8.69137">
        <ele>1869</ele>
        <time>2021-08-07T07:20:50.623Z</time>
      </trkpt>
      <trkpt lat="46.92337" lon="8.69137">
        <ele>1868</ele>
        <time>2021-08-07T07:20:51.623Z</time>
      </trkpt>
      <trkpt lat="46.92336" lon="8.69137">
        <ele>1868</ele>
        <time>2021-08-07T07:20:52.623Z</time>
      </trkpt>
      <trkpt lat="46.92335" lon="8.69136">
        <ele>1869</ele>
        <time>2021-08-07T07:20:53.623Z</time>
      </trkpt>
      <trkpt lat="46.92334" lon="8.69135">
        <ele>1869</ele>
        <time>2021-08-07T07:20:54.623Z</time>
      </trkpt>
      <trkpt lat="46.92333" lon="8.69134">
        <ele>1869</ele>
        <time>2021-08-07T07:20:55.623Z</time>
      </trkpt>
      <trkpt lat="46.92333" lon="8.69134">
        <ele>1869</ele>
        <time>2021-08-07T07:20:56.623Z</time>
      </trkpt>
      <trkpt lat="46.92332" lon="8.69133">
        <ele>1870</ele>
        <time>2021-08-07T07:20:57.623Z</time>
      </trkpt>
      <trkpt lat="46.92331" lon="8.69133">
        <ele>1870</ele>
        <time>2021-08-07T07:20:58.623Z</time>
      </trkpt>
      <trkpt lat="46.92331" lon="8.69133">
        <ele>1871</ele>
        <time>2021-08-07T07:20:59.623Z</time>
      </trkpt>
      <trkpt lat="46.9233" lon="8.69133">
        <ele>1872</ele>
        <time>2021-08-07T07:21:00.623Z</time>
      </trkpt>
      <trkpt lat="46.9233" lon="8.69133">
        <ele>1872</ele>
        <time>2021-08-07T07:21:01.623Z</time>
      </trkpt>
      <trkpt lat="46.92329" lon="8.69133">
        <ele>1872</ele>
        <time>2021-08-07T07:21:02.623Z</time>
      </trkpt>
      <trkpt lat="46.92329" lon="8.69133">
        <ele>1873</ele>
        <time>2021-08-07T07:21:03.624Z</time>
      </trkpt>
      <trkpt lat="46.92328" lon="8.69133">
        <ele>1873</ele>
        <time>2021-08-07T07:21:04.623Z</time>
      </trkpt>
      <trkpt lat="46.92327" lon="8.69131">
        <ele>1873</ele>
        <time>2021-08-07T07:21:05.623Z</time>
      </trkpt>
      <trkpt lat="46.92326" lon="8.69131">
        <ele>1873</ele>
        <time>2021-08-07T07:21:06.624Z</time>
      </trkpt>
      <trkpt lat="46.92325" lon="8.69131">
        <ele>1873</ele>
        <time>2021-08-07T07:21:07.624Z</time>
      </trkpt>
      <trkpt lat="46.92324" lon="8.6913">
        <ele>1873</ele>
        <time>2021-08-07T07:21:08.624Z</time>
      </trkpt>
      <trkpt lat="46.92323" lon="8.69129">
        <ele>1873</ele>
        <time>2021-08-07T07:21:09.623Z</time>
      </trkpt>
      <trkpt lat="46.92323" lon="8.69129">
        <ele>1874</ele>
        <time>2021-08-07T07:21:10.623Z</time>
      </trkpt>
      <trkpt lat="46.92322" lon="8.69128">
        <ele>1874</ele>
        <time>2021-08-07T07:21:11.624Z</time>
      </trkpt>
      <trkpt lat="46.92321" lon="8.69128">
        <ele>1874</ele>
        <time>2021-08-07T07:21:12.623Z</time>
      </trkpt>
      <trkpt lat="46.92321" lon="8.69128">
        <ele>1874</ele>
        <time>2021-08-07T07:21:13.624Z</time>
      </trkpt>
      <trkpt lat="46.92321" lon="8.69128">
        <ele>1874</ele>
        <time>2021-08-07T07:21:14.624Z</time>
      </trkpt>
      <trkpt lat="46.92321" lon="8.69129">
        <ele>1875</ele>
        <time>2021-08-07T07:21:15.624Z</time>
      </trkpt>
      <trkpt lat="46.92321" lon="8.69129">
        <ele>1875</ele>
        <time>2021-08-07T07:21:16.624Z</time>
      </trkpt>
      <trkpt lat="46.92321" lon="8.69129">
        <ele>1875</ele>
        <time>2021-08-07T07:21:17.624Z</time>
      </trkpt>
      <trkpt lat="46.9232" lon="8.69128">
        <ele>1876</ele>
        <time>2021-08-07T07:21:18.624Z</time>
      </trkpt>
      <trkpt lat="46.9232" lon="8.69128">
        <ele>1875</ele>
        <time>2021-08-07T07:21:19.624Z</time>
      </trkpt>
      <trkpt lat="46.92319" lon="8.69128">
        <ele>1875</ele>
        <time>2021-08-07T07:21:20.623Z</time>
      </trkpt>
      <trkpt lat="46.92318" lon="8.69128">
        <ele>1875</ele>
        <time>2021-08-07T07:21:21.623Z</time>
      </trkpt>
      <trkpt lat="46.92318" lon="8.69127">
        <ele>1875</ele>
        <time>2021-08-07T07:21:22.624Z</time>
      </trkpt>
      <trkpt lat="46.92317" lon="8.69127">
        <ele>1875</ele>
        <time>2021-08-07T07:21:23.624Z</time>
      </trkpt>
      <trkpt lat="46.92316" lon="8.69127">
        <ele>1875</ele>
        <time>2021-08-07T07:21:24.624Z</time>
      </trkpt>
      <trkpt lat="46.92316" lon="8.69127">
        <ele>1876</ele>
        <time>2021-08-07T07:21:25.624Z</time>
      </trkpt>
      <trkpt lat="46.92315" lon="8.69127">
        <ele>1876</ele>
        <time>2021-08-07T07:21:26.624Z</time>
      </trkpt>
      <trkpt lat="46.92315" lon="8.69126">
        <ele>1876</ele>
        <time>2021-08-07T07:21:27.623Z</time>
      </trkpt>
      <trkpt lat="46.92314" lon="8.69126">
        <ele>1876</ele>
        <time>2021-08-07T07:21:28.624Z</time>
      </trkpt>
      <trkpt lat="46.92313" lon="8.69126">
        <ele>1876</ele>
        <time>2021-08-07T07:21:29.624Z</time>
      </trkpt>
      <trkpt lat="46.92312" lon="8.69126">
        <ele>1876</ele>
        <time>2021-08-07T07:21:30.624Z</time>
      </trkpt>
      <trkpt lat="46.92312" lon="8.69126">
        <ele>1876</ele>
        <time>2021-08-07T07:21:31.624Z</time>
      </trkpt>
      <trkpt lat="46.9231" lon="8.69125">
        <ele>1875</ele>
        <time>2021-08-07T07:21:32.624Z</time>
      </trkpt>
      <trkpt lat="46.9231" lon="8.69125">
        <ele>1875</ele>
        <time>2021-08-07T07:21:33.623Z</time>
      </trkpt>
      <trkpt lat="46.92309" lon="8.69124">
        <ele>1875</ele>
        <time>2021-08-07T07:21:34.623Z</time>
      </trkpt>
      <trkpt lat="46.92309" lon="8.69124">
        <ele>1876</ele>
        <time>2021-08-07T07:21:35.623Z</time>
      </trkpt>
      <trkpt lat="46.92308" lon="8.69124">
        <ele>1876</ele>
        <time>2021-08-07T07:21:36.624Z</time>
      </trkpt>
      <trkpt lat="46.92308" lon="8.69124">
        <ele>1876</ele>
        <time>2021-08-07T07:21:37.623Z</time>
      </trkpt>
      <trkpt lat="46.92307" lon="8.69123">
        <ele>1876</ele>
        <time>2021-08-07T07:21:38.624Z</time>
      </trkpt>
      <trkpt lat="46.92306" lon="8.69123">
        <ele>1876</ele>
        <time>2021-08-07T07:21:39.623Z</time>
      </trkpt>
      <trkpt lat="46.92305" lon="8.69122">
        <ele>1877</ele>
        <time>2021-08-07T07:21:40.623Z</time>
      </trkpt>
      <trkpt lat="46.92305" lon="8.69122">
        <ele>1877</ele>
        <time>2021-08-07T07:21:41.624Z</time>
      </trkpt>
      <trkpt lat="46.92306" lon="8.69122">
        <ele>1877</ele>
        <time>2021-08-07T07:21:42.623Z</time>
      </trkpt>
      <trkpt lat="46.92305" lon="8.6912">
        <ele>1878</ele>
        <time>2021-08-07T07:21:43.624Z</time>
      </trkpt>
      <trkpt lat="46.92304" lon="8.69119">
        <ele>1878</ele>
        <time>2021-08-07T07:21:44.623Z</time>
      </trkpt>
      <trkpt lat="46.92304" lon="8.69118">
        <ele>1878</ele>
        <time>2021-08-07T07:21:45.624Z</time>
      </trkpt>
      <trkpt lat="46.92303" lon="8.69117">
        <ele>1878</ele>
        <time>2021-08-07T07:21:46.624Z</time>
      </trkpt>
      <trkpt lat="46.92303" lon="8.69117">
        <ele>1878</ele>
        <time>2021-08-07T07:21:47.623Z</time>
      </trkpt>
      <trkpt lat="46.92302" lon="8.69117">
        <ele>1879</ele>
        <time>2021-08-07T07:21:48.623Z</time>
      </trkpt>
      <trkpt lat="46.92301" lon="8.69116">
        <ele>1879</ele>
        <time>2021-08-07T07:21:49.624Z</time>
      </trkpt>
      <trkpt lat="46.92301" lon="8.69116">
        <ele>1879</ele>
        <time>2021-08-07T07:21:50.624Z</time>
      </trkpt>
      <trkpt lat="46.923" lon="8.69116">
        <ele>1879</ele>
        <time>2021-08-07T07:21:51.623Z</time>
      </trkpt>
      <trkpt lat="46.923" lon="8.69116">
        <ele>1880</ele>
        <time>2021-08-07T07:21:52.623Z</time>
      </trkpt>
      <trkpt lat="46.923" lon="8.69115">
        <ele>1879</ele>
        <time>2021-08-07T07:21:53.623Z</time>
      </trkpt>
      <trkpt lat="46.92299" lon="8.69115">
        <ele>1879</ele>
        <time>2021-08-07T07:21:54.623Z</time>
      </trkpt>
      <trkpt lat="46.92299" lon="8.69114">
        <ele>1879</ele>
        <time>2021-08-07T07:21:55.623Z</time>
      </trkpt>
      <trkpt lat="46.92298" lon="8.69114">
        <ele>1879</ele>
        <time>2021-08-07T07:21:56.623Z</time>
      </trkpt>
      <trkpt lat="46.92297" lon="8.69114">
        <ele>1879</ele>
        <time>2021-08-07T07:21:57.624Z</time>
      </trkpt>
      <trkpt lat="46.92296" lon="8.69114">
        <ele>1879</ele>
        <time>2021-08-07T07:21:58.624Z</time>
      </trkpt>
      <trkpt lat="46.92296" lon="8.69113">
        <ele>1879</ele>
        <time>2021-08-07T07:21:59.623Z</time>
      </trkpt>
      <trkpt lat="46.92295" lon="8.69113">
        <ele>1879</ele>
        <time>2021-08-07T07:22:00.623Z</time>
      </trkpt>
      <trkpt lat="46.92295" lon="8.69112">
        <ele>1879</ele>
        <time>2021-08-07T07:22:01.623Z</time>
      </trkpt>
      <trkpt lat="46.92294" lon="8.69111">
        <ele>1879</ele>
        <time>2021-08-07T07:22:02.624Z</time>
      </trkpt>
      <trkpt lat="46.92294" lon="8.69111">
        <ele>1879</ele>
        <time>2021-08-07T07:22:03.624Z</time>
      </trkpt>
      <trkpt lat="46.92293" lon="8.69111">
        <ele>1879</ele>
        <time>2021-08-07T07:22:04.623Z</time>
      </trkpt>
      <trkpt lat="46.92293" lon="8.6911">
        <ele>1880</ele>
        <time>2021-08-07T07:22:05.623Z</time>
      </trkpt>
      <trkpt lat="46.92293" lon="8.6911">
        <ele>1880</ele>
        <time>2021-08-07T07:22:06.623Z</time>
      </trkpt>
      <trkpt lat="46.92296" lon="8.69113">
        <ele>1877</ele>
        <time>2021-08-07T07:22:07.625Z</time>
      </trkpt>
      <trkpt lat="46.92296" lon="8.69113">
        <ele>1877</ele>
        <time>2021-08-07T07:22:08.625Z</time>
      </trkpt>
      <trkpt lat="46.92296" lon="8.69113">
        <ele>1877</ele>
        <time>2021-08-07T07:22:09.625Z</time>
      </trkpt>
      <trkpt lat="46.92294" lon="8.69108">
        <ele>1879</ele>
        <time>2021-08-07T07:22:10.626Z</time>
      </trkpt>
      <trkpt lat="46.92295" lon="8.69109">
        <ele>1879</ele>
        <time>2021-08-07T07:22:11.625Z</time>
      </trkpt>
      <trkpt lat="46.92295" lon="8.69109">
        <ele>1879</ele>
        <time>2021-08-07T07:22:12.625Z</time>
      </trkpt>
      <trkpt lat="46.92295" lon="8.69109">
        <ele>1880</ele>
        <time>2021-08-07T07:22:13.626Z</time>
      </trkpt>
      <trkpt lat="46.92297" lon="8.6911">
        <ele>1879</ele>
        <time>2021-08-07T07:22:14.625Z</time>
      </trkpt>
      <trkpt lat="46.92296" lon="8.69109">
        <ele>1879</ele>
        <time>2021-08-07T07:22:15.625Z</time>
      </trkpt>
      <trkpt lat="46.92296" lon="8.69108">
        <ele>1878</ele>
        <time>2021-08-07T07:22:16.626Z</time>
      </trkpt>
      <trkpt lat="46.92295" lon="8.69107">
        <ele>1878</ele>
        <time>2021-08-07T07:22:17.626Z</time>
      </trkpt>
      <trkpt lat="46.92294" lon="8.69107">
        <ele>1877</ele>
        <time>2021-08-07T07:22:18.626Z</time>
      </trkpt>
      <trkpt lat="46.92294" lon="8.69108">
        <ele>1873</ele>
        <time>2021-08-07T07:22:19.627Z</time>
      </trkpt>
      <trkpt lat="46.92294" lon="8.69108">
        <ele>1872</ele>
        <time>2021-08-07T07:22:20.627Z</time>
      </trkpt>
      <trkpt lat="46.92292" lon="8.69104">
        <ele>1871</ele>
        <time>2021-08-07T07:22:21.627Z</time>
      </trkpt>
      <trkpt lat="46.92291" lon="8.69104">
        <ele>1871</ele>
        <time>2021-08-07T07:22:22.627Z</time>
      </trkpt>
      <trkpt lat="46.92291" lon="8.69105">
        <ele>1871</ele>
        <time>2021-08-07T07:22:23.627Z</time>
      </trkpt>
      <trkpt lat="46.92291" lon="8.69105">
        <ele>1872</ele>
        <time>2021-08-07T07:22:24.627Z</time>
      </trkpt>
      <trkpt lat="46.92292" lon="8.69105">
        <ele>1872</ele>
        <time>2021-08-07T07:22:25.626Z</time>
      </trkpt>
      <trkpt lat="46.92292" lon="8.69105">
        <ele>1872</ele>
        <time>2021-08-07T07:22:26.627Z</time>
      </trkpt>
      <trkpt lat="46.92291" lon="8.69104">
        <ele>1871</ele>
        <time>2021-08-07T07:22:27.627Z</time>
      </trkpt>
      <trkpt lat="46.92291" lon="8.69104">
        <ele>1866</ele>
        <time>2021-08-07T07:22:28.627Z</time>
      </trkpt>
      <trkpt lat="46.92291" lon="8.69104">
        <ele>1866</ele>
        <time>2021-08-07T07:22:29.627Z</time>
      </trkpt>
      <trkpt lat="46.92291" lon="8.69103">
        <ele>1866</ele>
        <time>2021-08-07T07:22:30.627Z</time>
      </trkpt>
      <trkpt lat="46.9229" lon="8.69103">
        <ele>1865</ele>
        <time>2021-08-07T07:22:31.627Z</time>
      </trkpt>
      <trkpt lat="46.9229" lon="8.69102">
        <ele>1865</ele>
        <time>2021-08-07T07:22:32.627Z</time>
      </trkpt>
      <trkpt lat="46.92289" lon="8.69102">
        <ele>1865</ele>
        <time>2021-08-07T07:22:33.628Z</time>
      </trkpt>
      <trkpt lat="46.92289" lon="8.69101">
        <ele>1865</ele>
        <time>2021-08-07T07:22:34.628Z</time>
      </trkpt>
      <trkpt lat="46.92289" lon="8.691">
        <ele>1865</ele>
        <time>2021-08-07T07:22:35.627Z</time>
      </trkpt>
      <trkpt lat="46.92289" lon="8.69099">
        <ele>1865</ele>
        <time>2021-08-07T07:22:36.628Z</time>
      </trkpt>
      <trkpt lat="46.92289" lon="8.69099">
        <ele>1865</ele>
        <time>2021-08-07T07:22:37.627Z</time>
      </trkpt>
      <trkpt lat="46.92289" lon="8.69099">
        <ele>1865</ele>
        <time>2021-08-07T07:22:38.627Z</time>
      </trkpt>
      <trkpt lat="46.9229" lon="8.69101">
        <ele>1864</ele>
        <time>2021-08-07T07:22:39.628Z</time>
      </trkpt>
      <trkpt lat="46.9229" lon="8.69097">
        <ele>1865</ele>
        <time>2021-08-07T07:22:40.628Z</time>
      </trkpt>
      <trkpt lat="46.92289" lon="8.69096">
        <ele>1865</ele>
        <time>2021-08-07T07:22:41.628Z</time>
      </trkpt>
      <trkpt lat="46.92289" lon="8.69095">
        <ele>1866</ele>
        <time>2021-08-07T07:22:42.627Z</time>
      </trkpt>
      <trkpt lat="46.92289" lon="8.69094">
        <ele>1866</ele>
        <time>2021-08-07T07:22:43.627Z</time>
      </trkpt>
      <trkpt lat="46.92289" lon="8.69093">
        <ele>1867</ele>
        <time>2021-08-07T07:22:44.628Z</time>
      </trkpt>
      <trkpt lat="46.92289" lon="8.69093">
        <ele>1867</ele>
        <time>2021-08-07T07:22:45.628Z</time>
      </trkpt>
      <trkpt lat="46.92289" lon="8.69092">
        <ele>1868</ele>
        <time>2021-08-07T07:22:46.628Z</time>
      </trkpt>
      <trkpt lat="46.92289" lon="8.69091">
        <ele>1868</ele>
        <time>2021-08-07T07:22:47.627Z</time>
      </trkpt>
      <trkpt lat="46.92288" lon="8.69091">
        <ele>1868</ele>
        <time>2021-08-07T07:22:48.627Z</time>
      </trkpt>
      <trkpt lat="46.92288" lon="8.69089">
        <ele>1868</ele>
        <time>2021-08-07T07:22:49.628Z</time>
      </trkpt>
      <trkpt lat="46.92287" lon="8.69089">
        <ele>1868</ele>
        <time>2021-08-07T07:22:50.628Z</time>
      </trkpt>
      <trkpt lat="46.92287" lon="8.69088">
        <ele>1869</ele>
        <time>2021-08-07T07:22:51.628Z</time>
      </trkpt>
      <trkpt lat="46.92286" lon="8.69087">
        <ele>1869</ele>
        <time>2021-08-07T07:22:52.627Z</time>
      </trkpt>
      <trkpt lat="46.92285" lon="8.69086">
        <ele>1869</ele>
        <time>2021-08-07T07:22:53.627Z</time>
      </trkpt>
      <trkpt lat="46.92285" lon="8.69085">
        <ele>1869</ele>
        <time>2021-08-07T07:22:54.628Z</time>
      </trkpt>
      <trkpt lat="46.92284" lon="8.69085">
        <ele>1869</ele>
        <time>2021-08-07T07:22:55.628Z</time>
      </trkpt>
      <trkpt lat="46.92284" lon="8.69085">
        <ele>1870</ele>
        <time>2021-08-07T07:22:56.628Z</time>
      </trkpt>
      <trkpt lat="46.92285" lon="8.69084">
        <ele>1870</ele>
        <time>2021-08-07T07:22:57.628Z</time>
      </trkpt>
      <trkpt lat="46.92286" lon="8.69083">
        <ele>1871</ele>
        <time>2021-08-07T07:22:58.627Z</time>
      </trkpt>
      <trkpt lat="46.92286" lon="8.69083">
        <ele>1871</ele>
        <time>2021-08-07T07:22:59.627Z</time>
      </trkpt>
      <trkpt lat="46.92286" lon="8.69083">
        <ele>1872</ele>
        <time>2021-08-07T07:23:00.627Z</time>
      </trkpt>
      <trkpt lat="46.92285" lon="8.69082">
        <ele>1872</ele>
        <time>2021-08-07T07:23:01.628Z</time>
      </trkpt>
      <trkpt lat="46.92285" lon="8.69081">
        <ele>1873</ele>
        <time>2021-08-07T07:23:02.628Z</time>
      </trkpt>
      <trkpt lat="46.92284" lon="8.69081">
        <ele>1873</ele>
        <time>2021-08-07T07:23:03.627Z</time>
      </trkpt>
      <trkpt lat="46.92283" lon="8.69082">
        <ele>1873</ele>
        <time>2021-08-07T07:23:04.628Z</time>
      </trkpt>
      <trkpt lat="46.92282" lon="8.69081">
        <ele>1873</ele>
        <time>2021-08-07T07:23:05.627Z</time>
      </trkpt>
      <trkpt lat="46.92282" lon="8.69081">
        <ele>1873</ele>
        <time>2021-08-07T07:23:06.628Z</time>
      </trkpt>
      <trkpt lat="46.92281" lon="8.69081">
        <ele>1873</ele>
        <time>2021-08-07T07:23:07.627Z</time>
      </trkpt>
      <trkpt lat="46.9228" lon="8.69081">
        <ele>1873</ele>
        <time>2021-08-07T07:23:08.627Z</time>
      </trkpt>
      <trkpt lat="46.9228" lon="8.69082">
        <ele>1873</ele>
        <time>2021-08-07T07:23:09.627Z</time>
      </trkpt>
      <trkpt lat="46.92279" lon="8.69082">
        <ele>1873</ele>
        <time>2021-08-07T07:23:10.627Z</time>
      </trkpt>
      <trkpt lat="46.92278" lon="8.69081">
        <ele>1873</ele>
        <time>2021-08-07T07:23:11.628Z</time>
      </trkpt>
      <trkpt lat="46.92278" lon="8.69081">
        <ele>1873</ele>
        <time>2021-08-07T07:23:12.627Z</time>
      </trkpt>
      <trkpt lat="46.92277" lon="8.6908">
        <ele>1873</ele>
        <time>2021-08-07T07:23:13.627Z</time>
      </trkpt>
      <trkpt lat="46.92277" lon="8.69079">
        <ele>1873</ele>
        <time>2021-08-07T07:23:14.627Z</time>
      </trkpt>
      <trkpt lat="46.92276" lon="8.69078">
        <ele>1873</ele>
        <time>2021-08-07T07:23:15.628Z</time>
      </trkpt>
      <trkpt lat="46.92276" lon="8.69078">
        <ele>1873</ele>
        <time>2021-08-07T07:23:16.628Z</time>
      </trkpt>
      <trkpt lat="46.92275" lon="8.69077">
        <ele>1874</ele>
        <time>2021-08-07T07:23:17.627Z</time>
      </trkpt>
      <trkpt lat="46.92275" lon="8.69077">
        <ele>1874</ele>
        <time>2021-08-07T07:23:18.628Z</time>
      </trkpt>
      <trkpt lat="46.92275" lon="8.69076">
        <ele>1874</ele>
        <time>2021-08-07T07:23:19.628Z</time>
      </trkpt>
      <trkpt lat="46.92275" lon="8.69076">
        <ele>1875</ele>
        <time>2021-08-07T07:23:20.628Z</time>
      </trkpt>
      <trkpt lat="46.92274" lon="8.69075">
        <ele>1875</ele>
        <time>2021-08-07T07:23:21.628Z</time>
      </trkpt>
      <trkpt lat="46.92273" lon="8.69075">
        <ele>1876</ele>
        <time>2021-08-07T07:23:22.628Z</time>
      </trkpt>
      <trkpt lat="46.92273" lon="8.69074">
        <ele>1876</ele>
        <time>2021-08-07T07:23:23.628Z</time>
      </trkpt>
      <trkpt lat="46.92272" lon="8.69074">
        <ele>1876</ele>
        <time>2021-08-07T07:23:24.627Z</time>
      </trkpt>
      <trkpt lat="46.92271" lon="8.69073">
        <ele>1877</ele>
        <time>2021-08-07T07:23:25.628Z</time>
      </trkpt>
      <trkpt lat="46.9227" lon="8.69072">
        <ele>1877</ele>
        <time>2021-08-07T07:23:26.628Z</time>
      </trkpt>
      <trkpt lat="46.9227" lon="8.69072">
        <ele>1877</ele>
        <time>2021-08-07T07:23:27.628Z</time>
      </trkpt>
      <trkpt lat="46.92269" lon="8.69071">
        <ele>1878</ele>
        <time>2021-08-07T07:23:28.627Z</time>
      </trkpt>
      <trkpt lat="46.92269" lon="8.69071">
        <ele>1878</ele>
        <time>2021-08-07T07:23:29.627Z</time>
      </trkpt>
      <trkpt lat="46.92268" lon="8.6907">
        <ele>1878</ele>
        <time>2021-08-07T07:23:30.627Z</time>
      </trkpt>
      <trkpt lat="46.92268" lon="8.6907">
        <ele>1878</ele>
        <time>2021-08-07T07:23:31.628Z</time>
      </trkpt>
      <trkpt lat="46.92267" lon="8.6907">
        <ele>1879</ele>
        <time>2021-08-07T07:23:32.628Z</time>
      </trkpt>
      <trkpt lat="46.92266" lon="8.6907">
        <ele>1880</ele>
        <time>2021-08-07T07:23:33.627Z</time>
      </trkpt>
      <trkpt lat="46.92265" lon="8.6907">
        <ele>1881</ele>
        <time>2021-08-07T07:23:34.628Z</time>
      </trkpt>
      <trkpt lat="46.92265" lon="8.6907">
        <ele>1881</ele>
        <time>2021-08-07T07:23:35.628Z</time>
      </trkpt>
      <trkpt lat="46.92264" lon="8.69069">
        <ele>1881</ele>
        <time>2021-08-07T07:23:36.627Z</time>
      </trkpt>
      <trkpt lat="46.92263" lon="8.69069">
        <ele>1882</ele>
        <time>2021-08-07T07:23:37.627Z</time>
      </trkpt>
      <trkpt lat="46.92262" lon="8.69068">
        <ele>1882</ele>
        <time>2021-08-07T07:23:38.628Z</time>
      </trkpt>
      <trkpt lat="46.92261" lon="8.69068">
        <ele>1883</ele>
        <time>2021-08-07T07:23:39.628Z</time>
      </trkpt>
      <trkpt lat="46.9226" lon="8.69068">
        <ele>1883</ele>
        <time>2021-08-07T07:23:40.628Z</time>
      </trkpt>
      <trkpt lat="46.92259" lon="8.69069">
        <ele>1884</ele>
        <time>2021-08-07T07:23:41.628Z</time>
      </trkpt>
      <trkpt lat="46.92259" lon="8.69069">
        <ele>1884</ele>
        <time>2021-08-07T07:23:42.627Z</time>
      </trkpt>
      <trkpt lat="46.92258" lon="8.69068">
        <ele>1884</ele>
        <time>2021-08-07T07:23:43.628Z</time>
      </trkpt>
      <trkpt lat="46.92258" lon="8.69068">
        <ele>1884</ele>
        <time>2021-08-07T07:23:44.628Z</time>
      </trkpt>
      <trkpt lat="46.92258" lon="8.69068">
        <ele>1885</ele>
        <time>2021-08-07T07:23:45.628Z</time>
      </trkpt>
      <trkpt lat="46.92258" lon="8.69068">
        <ele>1885</ele>
        <time>2021-08-07T07:23:46.627Z</time>
      </trkpt>
      <trkpt lat="46.92256" lon="8.69067">
        <ele>1885</ele>
        <time>2021-08-07T07:23:47.628Z</time>
      </trkpt>
      <trkpt lat="46.92256" lon="8.69067">
        <ele>1885</ele>
        <time>2021-08-07T07:23:48.628Z</time>
      </trkpt>
      <trkpt lat="46.92256" lon="8.69068">
        <ele>1885</ele>
        <time>2021-08-07T07:23:49.628Z</time>
      </trkpt>
      <trkpt lat="46.92255" lon="8.69067">
        <ele>1885</ele>
        <time>2021-08-07T07:23:50.628Z</time>
      </trkpt>
      <trkpt lat="46.92254" lon="8.69066">
        <ele>1885</ele>
        <time>2021-08-07T07:23:51.628Z</time>
      </trkpt>
      <trkpt lat="46.92254" lon="8.69066">
        <ele>1885</ele>
        <time>2021-08-07T07:23:52.627Z</time>
      </trkpt>
      <trkpt lat="46.92253" lon="8.69066">
        <ele>1885</ele>
        <time>2021-08-07T07:23:53.628Z</time>
      </trkpt>
      <trkpt lat="46.92253" lon="8.69065">
        <ele>1885</ele>
        <time>2021-08-07T07:23:54.628Z</time>
      </trkpt>
      <trkpt lat="46.92252" lon="8.69064">
        <ele>1886</ele>
        <time>2021-08-07T07:23:55.627Z</time>
      </trkpt>
      <trkpt lat="46.92252" lon="8.69063">
        <ele>1886</ele>
        <time>2021-08-07T07:23:56.627Z</time>
      </trkpt>
      <trkpt lat="46.92253" lon="8.69062">
        <ele>1887</ele>
        <time>2021-08-07T07:23:57.628Z</time>
      </trkpt>
      <trkpt lat="46.92253" lon="8.69062">
        <ele>1888</ele>
        <time>2021-08-07T07:23:58.627Z</time>
      </trkpt>
      <trkpt lat="46.92251" lon="8.69062">
        <ele>1892</ele>
        <time>2021-08-07T07:23:59.629Z</time>
      </trkpt>
      <trkpt lat="46.9225" lon="8.69062">
        <ele>1892</ele>
        <time>2021-08-07T07:24:00.630Z</time>
      </trkpt>
      <trkpt lat="46.92248" lon="8.69062">
        <ele>1891</ele>
        <time>2021-08-07T07:24:01.629Z</time>
      </trkpt>
      <trkpt lat="46.92248" lon="8.69062">
        <ele>1891</ele>
        <time>2021-08-07T07:24:02.630Z</time>
      </trkpt>
      <trkpt lat="46.92247" lon="8.69063">
        <ele>1890</ele>
        <time>2021-08-07T07:24:03.629Z</time>
      </trkpt>
      <trkpt lat="46.92246" lon="8.69063">
        <ele>1890</ele>
        <time>2021-08-07T07:24:04.630Z</time>
      </trkpt>
      <trkpt lat="46.92247" lon="8.69064">
        <ele>1890</ele>
        <time>2021-08-07T07:24:05.630Z</time>
      </trkpt>
      <trkpt lat="46.92247" lon="8.69063">
        <ele>1890</ele>
        <time>2021-08-07T07:24:06.630Z</time>
      </trkpt>
      <trkpt lat="46.92246" lon="8.69062">
        <ele>1889</ele>
        <time>2021-08-07T07:24:07.630Z</time>
      </trkpt>
      <trkpt lat="46.92246" lon="8.69061">
        <ele>1889</ele>
        <time>2021-08-07T07:24:08.629Z</time>
      </trkpt>
      <trkpt lat="46.92245" lon="8.69062">
        <ele>1889</ele>
        <time>2021-08-07T07:24:09.630Z</time>
      </trkpt>
      <trkpt lat="46.92245" lon="8.69062">
        <ele>1889</ele>
        <time>2021-08-07T07:24:10.630Z</time>
      </trkpt>
      <trkpt lat="46.92244" lon="8.69062">
        <ele>1888</ele>
        <time>2021-08-07T07:24:11.630Z</time>
      </trkpt>
      <trkpt lat="46.92243" lon="8.69061">
        <ele>1888</ele>
        <time>2021-08-07T07:24:12.630Z</time>
      </trkpt>
      <trkpt lat="46.92243" lon="8.69061">
        <ele>1887</ele>
        <time>2021-08-07T07:24:13.630Z</time>
      </trkpt>
      <trkpt lat="46.92242" lon="8.6906">
        <ele>1887</ele>
        <time>2021-08-07T07:24:14.630Z</time>
      </trkpt>
      <trkpt lat="46.92242" lon="8.69059">
        <ele>1887</ele>
        <time>2021-08-07T07:24:15.630Z</time>
      </trkpt>
      <trkpt lat="46.92242" lon="8.69059">
        <ele>1887</ele>
        <time>2021-08-07T07:24:16.630Z</time>
      </trkpt>
      <trkpt lat="46.92243" lon="8.69059">
        <ele>1887</ele>
        <time>2021-08-07T07:24:17.630Z</time>
      </trkpt>
      <trkpt lat="46.92243" lon="8.69059">
        <ele>1887</ele>
        <time>2021-08-07T07:24:18.630Z</time>
      </trkpt>
      <trkpt lat="46.92244" lon="8.69058">
        <ele>1887</ele>
        <time>2021-08-07T07:24:19.629Z</time>
      </trkpt>
      <trkpt lat="46.92244" lon="8.69057">
        <ele>1887</ele>
        <time>2021-08-07T07:24:20.629Z</time>
      </trkpt>
      <trkpt lat="46.92244" lon="8.69057">
        <ele>1887</ele>
        <time>2021-08-07T07:24:21.630Z</time>
      </trkpt>
      <trkpt lat="46.92244" lon="8.69056">
        <ele>1888</ele>
        <time>2021-08-07T07:24:22.629Z</time>
      </trkpt>
      <trkpt lat="46.92244" lon="8.69055">
        <ele>1888</ele>
        <time>2021-08-07T07:24:23.629Z</time>
      </trkpt>
      <trkpt lat="46.92245" lon="8.69055">
        <ele>1888</ele>
        <time>2021-08-07T07:24:24.630Z</time>
      </trkpt>
      <trkpt lat="46.92245" lon="8.69054">
        <ele>1888</ele>
        <time>2021-08-07T07:24:25.629Z</time>
      </trkpt>
      <trkpt lat="46.92246" lon="8.69053">
        <ele>1888</ele>
        <time>2021-08-07T07:24:26.630Z</time>
      </trkpt>
      <trkpt lat="46.92246" lon="8.69053">
        <ele>1888</ele>
        <time>2021-08-07T07:24:27.630Z</time>
      </trkpt>
      <trkpt lat="46.92247" lon="8.69052">
        <ele>1887</ele>
        <time>2021-08-07T07:24:28.630Z</time>
      </trkpt>
      <trkpt lat="46.92247" lon="8.69051">
        <ele>1887</ele>
        <time>2021-08-07T07:24:29.630Z</time>
      </trkpt>
      <trkpt lat="46.92248" lon="8.6905">
        <ele>1887</ele>
        <time>2021-08-07T07:24:30.629Z</time>
      </trkpt>
      <trkpt lat="46.92248" lon="8.69049">
        <ele>1887</ele>
        <time>2021-08-07T07:24:31.630Z</time>
      </trkpt>
      <trkpt lat="46.92249" lon="8.69048">
        <ele>1887</ele>
        <time>2021-08-07T07:24:32.630Z</time>
      </trkpt>
      <trkpt lat="46.92249" lon="8.69047">
        <ele>1887</ele>
        <time>2021-08-07T07:24:33.630Z</time>
      </trkpt>
      <trkpt lat="46.92248" lon="8.69045">
        <ele>1888</ele>
        <time>2021-08-07T07:24:34.630Z</time>
      </trkpt>
      <trkpt lat="46.92247" lon="8.69044">
        <ele>1888</ele>
        <time>2021-08-07T07:24:35.630Z</time>
      </trkpt>
      <trkpt lat="46.92246" lon="8.69043">
        <ele>1888</ele>
        <time>2021-08-07T07:24:36.630Z</time>
      </trkpt>
      <trkpt lat="46.92245" lon="8.69043">
        <ele>1888</ele>
        <time>2021-08-07T07:24:37.629Z</time>
      </trkpt>
      <trkpt lat="46.92244" lon="8.69042">
        <ele>1889</ele>
        <time>2021-08-07T07:24:38.630Z</time>
      </trkpt>
      <trkpt lat="46.92243" lon="8.69041">
        <ele>1889</ele>
        <time>2021-08-07T07:24:39.630Z</time>
      </trkpt>
      <trkpt lat="46.92242" lon="8.69039">
        <ele>1889</ele>
        <time>2021-08-07T07:24:40.630Z</time>
      </trkpt>
      <trkpt lat="46.92242" lon="8.69038">
        <ele>1890</ele>
        <time>2021-08-07T07:24:41.630Z</time>
      </trkpt>
      <trkpt lat="46.92242" lon="8.69037">
        <ele>1891</ele>
        <time>2021-08-07T07:24:42.629Z</time>
      </trkpt>
      <trkpt lat="46.92242" lon="8.69037">
        <ele>1891</ele>
        <time>2021-08-07T07:24:43.629Z</time>
      </trkpt>
      <trkpt lat="46.92242" lon="8.69037">
        <ele>1891</ele>
        <time>2021-08-07T07:24:44.630Z</time>
      </trkpt>
      <trkpt lat="46.92241" lon="8.69036">
        <ele>1891</ele>
        <time>2021-08-07T07:24:45.630Z</time>
      </trkpt>
      <trkpt lat="46.92241" lon="8.69035">
        <ele>1891</ele>
        <time>2021-08-07T07:24:46.629Z</time>
      </trkpt>
      <trkpt lat="46.9224" lon="8.69034">
        <ele>1891</ele>
        <time>2021-08-07T07:24:47.629Z</time>
      </trkpt>
      <trkpt lat="46.92239" lon="8.69033">
        <ele>1890</ele>
        <time>2021-08-07T07:24:48.629Z</time>
      </trkpt>
      <trkpt lat="46.92239" lon="8.69032">
        <ele>1890</ele>
        <time>2021-08-07T07:24:49.629Z</time>
      </trkpt>
      <trkpt lat="46.92238" lon="8.69031">
        <ele>1890</ele>
        <time>2021-08-07T07:24:50.630Z</time>
      </trkpt>
      <trkpt lat="46.92237" lon="8.6903">
        <ele>1891</ele>
        <time>2021-08-07T07:24:51.630Z</time>
      </trkpt>
      <trkpt lat="46.92236" lon="8.69029">
        <ele>1891</ele>
        <time>2021-08-07T07:24:52.630Z</time>
      </trkpt>
      <trkpt lat="46.92235" lon="8.69028">
        <ele>1891</ele>
        <time>2021-08-07T07:24:53.630Z</time>
      </trkpt>
      <trkpt lat="46.92234" lon="8.69027">
        <ele>1892</ele>
        <time>2021-08-07T07:24:54.630Z</time>
      </trkpt>
      <trkpt lat="46.92234" lon="8.69027">
        <ele>1892</ele>
        <time>2021-08-07T07:24:55.630Z</time>
      </trkpt>
      <trkpt lat="46.92233" lon="8.69027">
        <ele>1892</ele>
        <time>2021-08-07T07:24:56.630Z</time>
      </trkpt>
      <trkpt lat="46.92233" lon="8.69027">
        <ele>1892</ele>
        <time>2021-08-07T07:24:57.630Z</time>
      </trkpt>
      <trkpt lat="46.92232" lon="8.69027">
        <ele>1892</ele>
        <time>2021-08-07T07:24:58.629Z</time>
      </trkpt>
      <trkpt lat="46.92231" lon="8.69026">
        <ele>1892</ele>
        <time>2021-08-07T07:24:59.629Z</time>
      </trkpt>
      <trkpt lat="46.9223" lon="8.69026">
        <ele>1892</ele>
        <time>2021-08-07T07:25:00.630Z</time>
      </trkpt>
      <trkpt lat="46.9223" lon="8.69025">
        <ele>1892</ele>
        <time>2021-08-07T07:25:01.629Z</time>
      </trkpt>
      <trkpt lat="46.9223" lon="8.69025">
        <ele>1891</ele>
        <time>2021-08-07T07:25:02.629Z</time>
      </trkpt>
      <trkpt lat="46.9223" lon="8.69025">
        <ele>1891</ele>
        <time>2021-08-07T07:25:03.629Z</time>
      </trkpt>
      <trkpt lat="46.92229" lon="8.69024">
        <ele>1891</ele>
        <time>2021-08-07T07:25:04.630Z</time>
      </trkpt>
      <trkpt lat="46.92229" lon="8.69024">
        <ele>1891</ele>
        <time>2021-08-07T07:25:05.630Z</time>
      </trkpt>
      <trkpt lat="46.92228" lon="8.69023">
        <ele>1891</ele>
        <time>2021-08-07T07:25:06.630Z</time>
      </trkpt>
      <trkpt lat="46.92227" lon="8.69022">
        <ele>1891</ele>
        <time>2021-08-07T07:25:07.630Z</time>
      </trkpt>
      <trkpt lat="46.92226" lon="8.69021">
        <ele>1892</ele>
        <time>2021-08-07T07:25:08.629Z</time>
      </trkpt>
      <trkpt lat="46.92225" lon="8.69021">
        <ele>1892</ele>
        <time>2021-08-07T07:25:09.629Z</time>
      </trkpt>
      <trkpt lat="46.92225" lon="8.6902">
        <ele>1893</ele>
        <time>2021-08-07T07:25:10.630Z</time>
      </trkpt>
      <trkpt lat="46.92224" lon="8.69019">
        <ele>1893</ele>
        <time>2021-08-07T07:25:11.629Z</time>
      </trkpt>
      <trkpt lat="46.92223" lon="8.69018">
        <ele>1894</ele>
        <time>2021-08-07T07:25:12.630Z</time>
      </trkpt>
      <trkpt lat="46.92223" lon="8.69017">
        <ele>1895</ele>
        <time>2021-08-07T07:25:13.630Z</time>
      </trkpt>
      <trkpt lat="46.92222" lon="8.69016">
        <ele>1895</ele>
        <time>2021-08-07T07:25:14.630Z</time>
      </trkpt>
      <trkpt lat="46.92222" lon="8.69015">
        <ele>1895</ele>
        <time>2021-08-07T07:25:15.629Z</time>
      </trkpt>
      <trkpt lat="46.92221" lon="8.69015">
        <ele>1895</ele>
        <time>2021-08-07T07:25:16.630Z</time>
      </trkpt>
      <trkpt lat="46.9222" lon="8.69014">
        <ele>1895</ele>
        <time>2021-08-07T07:25:17.630Z</time>
      </trkpt>
      <trkpt lat="46.92219" lon="8.69013">
        <ele>1895</ele>
        <time>2021-08-07T07:25:18.630Z</time>
      </trkpt>
      <trkpt lat="46.92218" lon="8.69012">
        <ele>1896</ele>
        <time>2021-08-07T07:25:19.630Z</time>
      </trkpt>
      <trkpt lat="46.92217" lon="8.69011">
        <ele>1896</ele>
        <time>2021-08-07T07:25:20.629Z</time>
      </trkpt>
      <trkpt lat="46.92216" lon="8.69011">
        <ele>1897</ele>
        <time>2021-08-07T07:25:21.630Z</time>
      </trkpt>
      <trkpt lat="46.92216" lon="8.6901">
        <ele>1897</ele>
        <time>2021-08-07T07:25:22.629Z</time>
      </trkpt>
      <trkpt lat="46.92215" lon="8.69009">
        <ele>1898</ele>
        <time>2021-08-07T07:25:23.629Z</time>
      </trkpt>
      <trkpt lat="46.92214" lon="8.69007">
        <ele>1898</ele>
        <time>2021-08-07T07:25:24.630Z</time>
      </trkpt>
      <trkpt lat="46.92213" lon="8.69006">
        <ele>1899</ele>
        <time>2021-08-07T07:25:25.630Z</time>
      </trkpt>
      <trkpt lat="46.92212" lon="8.69005">
        <ele>1899</ele>
        <time>2021-08-07T07:25:26.630Z</time>
      </trkpt>
      <trkpt lat="46.92212" lon="8.69005">
        <ele>1900</ele>
        <time>2021-08-07T07:25:27.630Z</time>
      </trkpt>
      <trkpt lat="46.92212" lon="8.69004">
        <ele>1900</ele>
        <time>2021-08-07T07:25:28.630Z</time>
      </trkpt>
      <trkpt lat="46.92211" lon="8.69003">
        <ele>1901</ele>
        <time>2021-08-07T07:25:29.630Z</time>
      </trkpt>
      <trkpt lat="46.92211" lon="8.69002">
        <ele>1901</ele>
        <time>2021-08-07T07:25:30.629Z</time>
      </trkpt>
      <trkpt lat="46.9221" lon="8.69002">
        <ele>1901</ele>
        <time>2021-08-07T07:25:31.630Z</time>
      </trkpt>
      <trkpt lat="46.9221" lon="8.69001">
        <ele>1901</ele>
        <time>2021-08-07T07:25:32.630Z</time>
      </trkpt>
      <trkpt lat="46.92209" lon="8.69">
        <ele>1901</ele>
        <time>2021-08-07T07:25:33.629Z</time>
      </trkpt>
      <trkpt lat="46.92207" lon="8.69">
        <ele>1901</ele>
        <time>2021-08-07T07:25:34.629Z</time>
      </trkpt>
      <trkpt lat="46.92207" lon="8.68999">
        <ele>1901</ele>
        <time>2021-08-07T07:25:35.630Z</time>
      </trkpt>
      <trkpt lat="46.92206" lon="8.68999">
        <ele>1901</ele>
        <time>2021-08-07T07:25:36.630Z</time>
      </trkpt>
      <trkpt lat="46.92205" lon="8.68999">
        <ele>1900</ele>
        <time>2021-08-07T07:25:37.630Z</time>
      </trkpt>
      <trkpt lat="46.92204" lon="8.68998">
        <ele>1900</ele>
        <time>2021-08-07T07:25:38.630Z</time>
      </trkpt>
      <trkpt lat="46.92203" lon="8.68998">
        <ele>1900</ele>
        <time>2021-08-07T07:25:39.629Z</time>
      </trkpt>
      <trkpt lat="46.92203" lon="8.68998">
        <ele>1899</ele>
        <time>2021-08-07T07:25:40.630Z</time>
      </trkpt>
      <trkpt lat="46.92202" lon="8.68998">
        <ele>1899</ele>
        <time>2021-08-07T07:25:41.629Z</time>
      </trkpt>
      <trkpt lat="46.92202" lon="8.68998">
        <ele>1898</ele>
        <time>2021-08-07T07:25:42.630Z</time>
      </trkpt>
      <trkpt lat="46.92201" lon="8.68998">
        <ele>1898</ele>
        <time>2021-08-07T07:25:43.629Z</time>
      </trkpt>
      <trkpt lat="46.92201" lon="8.68998">
        <ele>1898</ele>
        <time>2021-08-07T07:25:44.629Z</time>
      </trkpt>
      <trkpt lat="46.92201" lon="8.68997">
        <ele>1898</ele>
        <time>2021-08-07T07:25:45.630Z</time>
      </trkpt>
      <trkpt lat="46.92201" lon="8.68997">
        <ele>1899</ele>
        <time>2021-08-07T07:25:46.629Z</time>
      </trkpt>
      <trkpt lat="46.92201" lon="8.68996">
        <ele>1899</ele>
        <time>2021-08-07T07:25:47.630Z</time>
      </trkpt>
      <trkpt lat="46.92201" lon="8.68995">
        <ele>1899</ele>
        <time>2021-08-07T07:25:48.630Z</time>
      </trkpt>
      <trkpt lat="46.92202" lon="8.68995">
        <ele>1898</ele>
        <time>2021-08-07T07:25:49.630Z</time>
      </trkpt>
      <trkpt lat="46.92202" lon="8.68994">
        <ele>1898</ele>
        <time>2021-08-07T07:25:50.630Z</time>
      </trkpt>
      <trkpt lat="46.92201" lon="8.68993">
        <ele>1899</ele>
        <time>2021-08-07T07:25:51.630Z</time>
      </trkpt>
      <trkpt lat="46.92201" lon="8.68992">
        <ele>1899</ele>
        <time>2021-08-07T07:25:52.630Z</time>
      </trkpt>
      <trkpt lat="46.92201" lon="8.68991">
        <ele>1899</ele>
        <time>2021-08-07T07:25:53.629Z</time>
      </trkpt>
      <trkpt lat="46.922" lon="8.68991">
        <ele>1899</ele>
        <time>2021-08-07T07:25:54.630Z</time>
      </trkpt>
      <trkpt lat="46.92199" lon="8.68991">
        <ele>1900</ele>
        <time>2021-08-07T07:25:55.629Z</time>
      </trkpt>
      <trkpt lat="46.92199" lon="8.68991">
        <ele>1900</ele>
        <time>2021-08-07T07:25:56.629Z</time>
      </trkpt>
      <trkpt lat="46.92198" lon="8.6899">
        <ele>1901</ele>
        <time>2021-08-07T07:25:57.630Z</time>
      </trkpt>
      <trkpt lat="46.92197" lon="8.68989">
        <ele>1901</ele>
        <time>2021-08-07T07:25:58.630Z</time>
      </trkpt>
      <trkpt lat="46.92197" lon="8.68989">
        <ele>1901</ele>
        <time>2021-08-07T07:25:59.629Z</time>
      </trkpt>
      <trkpt lat="46.92196" lon="8.68989">
        <ele>1902</ele>
        <time>2021-08-07T07:26:00.630Z</time>
      </trkpt>
      <trkpt lat="46.92196" lon="8.68988">
        <ele>1902</ele>
        <time>2021-08-07T07:26:01.630Z</time>
      </trkpt>
      <trkpt lat="46.92195" lon="8.68987">
        <ele>1902</ele>
        <time>2021-08-07T07:26:02.629Z</time>
      </trkpt>
      <trkpt lat="46.92195" lon="8.68986">
        <ele>1903</ele>
        <time>2021-08-07T07:26:03.630Z</time>
      </trkpt>
      <trkpt lat="46.92194" lon="8.68986">
        <ele>1903</ele>
        <time>2021-08-07T07:26:04.630Z</time>
      </trkpt>
      <trkpt lat="46.92194" lon="8.68985">
        <ele>1903</ele>
        <time>2021-08-07T07:26:05.629Z</time>
      </trkpt>
      <trkpt lat="46.92194" lon="8.68984">
        <ele>1903</ele>
        <time>2021-08-07T07:26:06.630Z</time>
      </trkpt>
      <trkpt lat="46.92194" lon="8.68984">
        <ele>1904</ele>
        <time>2021-08-07T07:26:07.630Z</time>
      </trkpt>
      <trkpt lat="46.92193" lon="8.68983">
        <ele>1904</ele>
        <time>2021-08-07T07:26:08.630Z</time>
      </trkpt>
      <trkpt lat="46.92192" lon="8.68982">
        <ele>1904</ele>
        <time>2021-08-07T07:26:09.629Z</time>
      </trkpt>
      <trkpt lat="46.92191" lon="8.68981">
        <ele>1904</ele>
        <time>2021-08-07T07:26:10.630Z</time>
      </trkpt>
      <trkpt lat="46.92191" lon="8.6898">
        <ele>1904</ele>
        <time>2021-08-07T07:26:11.630Z</time>
      </trkpt>
      <trkpt lat="46.9219" lon="8.68979">
        <ele>1904</ele>
        <time>2021-08-07T07:26:12.630Z</time>
      </trkpt>
      <trkpt lat="46.92189" lon="8.68978">
        <ele>1903</ele>
        <time>2021-08-07T07:26:13.630Z</time>
      </trkpt>
      <trkpt lat="46.92188" lon="8.68977">
        <ele>1903</ele>
        <time>2021-08-07T07:26:14.630Z</time>
      </trkpt>
      <trkpt lat="46.92187" lon="8.68976">
        <ele>1903</ele>
        <time>2021-08-07T07:26:15.630Z</time>
      </trkpt>
      <trkpt lat="46.92187" lon="8.68976">
        <ele>1903</ele>
        <time>2021-08-07T07:26:16.630Z</time>
      </trkpt>
      <trkpt lat="46.92186" lon="8.68975">
        <ele>1903</ele>
        <time>2021-08-07T07:26:17.630Z</time>
      </trkpt>
      <trkpt lat="46.92186" lon="8.68974">
        <ele>1902</ele>
        <time>2021-08-07T07:26:18.630Z</time>
      </trkpt>
      <trkpt lat="46.92185" lon="8.68973">
        <ele>1903</ele>
        <time>2021-08-07T07:26:19.630Z</time>
      </trkpt>
      <trkpt lat="46.92184" lon="8.68972">
        <ele>1903</ele>
        <time>2021-08-07T07:26:20.630Z</time>
      </trkpt>
      <trkpt lat="46.92184" lon="8.68972">
        <ele>1903</ele>
        <time>2021-08-07T07:26:21.629Z</time>
      </trkpt>
      <trkpt lat="46.92184" lon="8.68971">
        <ele>1903</ele>
        <time>2021-08-07T07:26:22.630Z</time>
      </trkpt>
      <trkpt lat="46.92184" lon="8.68971">
        <ele>1904</ele>
        <time>2021-08-07T07:26:23.630Z</time>
      </trkpt>
      <trkpt lat="46.92184" lon="8.6897">
        <ele>1904</ele>
        <time>2021-08-07T07:26:24.630Z</time>
      </trkpt>
      <trkpt lat="46.92183" lon="8.68969">
        <ele>1904</ele>
        <time>2021-08-07T07:26:25.630Z</time>
      </trkpt>
      <trkpt lat="46.92183" lon="8.68968">
        <ele>1903</ele>
        <time>2021-08-07T07:26:26.630Z</time>
      </trkpt>
      <trkpt lat="46.92183" lon="8.68967">
        <ele>1903</ele>
        <time>2021-08-07T07:26:27.629Z</time>
      </trkpt>
      <trkpt lat="46.92183" lon="8.68967">
        <ele>1903</ele>
        <time>2021-08-07T07:26:28.630Z</time>
      </trkpt>
      <trkpt lat="46.92183" lon="8.68967">
        <ele>1904</ele>
        <time>2021-08-07T07:26:29.630Z</time>
      </trkpt>
      <trkpt lat="46.92183" lon="8.68966">
        <ele>1904</ele>
        <time>2021-08-07T07:26:30.630Z</time>
      </trkpt>
      <trkpt lat="46.92182" lon="8.68965">
        <ele>1904</ele>
        <time>2021-08-07T07:26:31.630Z</time>
      </trkpt>
      <trkpt lat="46.92182" lon="8.68965">
        <ele>1904</ele>
        <time>2021-08-07T07:26:32.629Z</time>
      </trkpt>
      <trkpt lat="46.92182" lon="8.68964">
        <ele>1904</ele>
        <time>2021-08-07T07:26:33.630Z</time>
      </trkpt>
      <trkpt lat="46.92182" lon="8.68964">
        <ele>1903</ele>
        <time>2021-08-07T07:26:34.629Z</time>
      </trkpt>
      <trkpt lat="46.92181" lon="8.68964">
        <ele>1903</ele>
        <time>2021-08-07T07:26:35.629Z</time>
      </trkpt>
      <trkpt lat="46.92181" lon="8.68964">
        <ele>1903</ele>
        <time>2021-08-07T07:26:36.630Z</time>
      </trkpt>
      <trkpt lat="46.92181" lon="8.68963">
        <ele>1903</ele>
        <time>2021-08-07T07:26:37.629Z</time>
      </trkpt>
      <trkpt lat="46.92181" lon="8.68963">
        <ele>1903</ele>
        <time>2021-08-07T07:26:38.630Z</time>
      </trkpt>
      <trkpt lat="46.92181" lon="8.68963">
        <ele>1903</ele>
        <time>2021-08-07T07:26:39.629Z</time>
      </trkpt>
      <trkpt lat="46.92181" lon="8.68962">
        <ele>1903</ele>
        <time>2021-08-07T07:26:40.629Z</time>
      </trkpt>
      <trkpt lat="46.92181" lon="8.68961">
        <ele>1903</ele>
        <time>2021-08-07T07:26:41.630Z</time>
      </trkpt>
      <trkpt lat="46.92181" lon="8.68961">
        <ele>1903</ele>
        <time>2021-08-07T07:26:42.630Z</time>
      </trkpt>
      <trkpt lat="46.92181" lon="8.6896">
        <ele>1903</ele>
        <time>2021-08-07T07:26:43.630Z</time>
      </trkpt>
      <trkpt lat="46.9218" lon="8.6896">
        <ele>1903</ele>
        <time>2021-08-07T07:26:44.630Z</time>
      </trkpt>
      <trkpt lat="46.9218" lon="8.68959">
        <ele>1904</ele>
        <time>2021-08-07T07:26:45.630Z</time>
      </trkpt>
      <trkpt lat="46.9218" lon="8.68958">
        <ele>1905</ele>
        <time>2021-08-07T07:26:46.630Z</time>
      </trkpt>
      <trkpt lat="46.9218" lon="8.68957">
        <ele>1905</ele>
        <time>2021-08-07T07:26:47.629Z</time>
      </trkpt>
      <trkpt lat="46.92179" lon="8.68956">
        <ele>1905</ele>
        <time>2021-08-07T07:26:48.629Z</time>
      </trkpt>
      <trkpt lat="46.92179" lon="8.68956">
        <ele>1905</ele>
        <time>2021-08-07T07:26:49.630Z</time>
      </trkpt>
      <trkpt lat="46.92179" lon="8.68956">
        <ele>1905</ele>
        <time>2021-08-07T07:26:50.630Z</time>
      </trkpt>
      <trkpt lat="46.9218" lon="8.68957">
        <ele>1904</ele>
        <time>2021-08-07T07:26:51.630Z</time>
      </trkpt>
      <trkpt lat="46.9218" lon="8.68957">
        <ele>1904</ele>
        <time>2021-08-07T07:26:52.629Z</time>
      </trkpt>
      <trkpt lat="46.92182" lon="8.68958">
        <ele>1903</ele>
        <time>2021-08-07T07:26:53.630Z</time>
      </trkpt>
      <trkpt lat="46.92182" lon="8.68957">
        <ele>1903</ele>
        <time>2021-08-07T07:26:54.630Z</time>
      </trkpt>
      <trkpt lat="46.92182" lon="8.68957">
        <ele>1903</ele>
        <time>2021-08-07T07:26:55.630Z</time>
      </trkpt>
      <trkpt lat="46.92183" lon="8.68956">
        <ele>1903</ele>
        <time>2021-08-07T07:26:56.630Z</time>
      </trkpt>
      <trkpt lat="46.92183" lon="8.68955">
        <ele>1903</ele>
        <time>2021-08-07T07:26:57.630Z</time>
      </trkpt>
      <trkpt lat="46.92184" lon="8.68954">
        <ele>1904</ele>
        <time>2021-08-07T07:26:58.630Z</time>
      </trkpt>
      <trkpt lat="46.92184" lon="8.68953">
        <ele>1904</ele>
        <time>2021-08-07T07:26:59.630Z</time>
      </trkpt>
      <trkpt lat="46.92184" lon="8.68952">
        <ele>1904</ele>
        <time>2021-08-07T07:27:00.630Z</time>
      </trkpt>
      <trkpt lat="46.92184" lon="8.68951">
        <ele>1905</ele>
        <time>2021-08-07T07:27:01.629Z</time>
      </trkpt>
      <trkpt lat="46.92184" lon="8.6895">
        <ele>1905</ele>
        <time>2021-08-07T07:27:02.629Z</time>
      </trkpt>
      <trkpt lat="46.92183" lon="8.6895">
        <ele>1906</ele>
        <time>2021-08-07T07:27:03.630Z</time>
      </trkpt>
      <trkpt lat="46.92183" lon="8.6895">
        <ele>1906</ele>
        <time>2021-08-07T07:27:04.629Z</time>
      </trkpt>
      <trkpt lat="46.92182" lon="8.68948">
        <ele>1907</ele>
        <time>2021-08-07T07:27:05.630Z</time>
      </trkpt>
      <trkpt lat="46.92182" lon="8.68947">
        <ele>1908</ele>
        <time>2021-08-07T07:27:06.630Z</time>
      </trkpt>
      <trkpt lat="46.92182" lon="8.68946">
        <ele>1909</ele>
        <time>2021-08-07T07:27:07.629Z</time>
      </trkpt>
      <trkpt lat="46.9218" lon="8.68944">
        <ele>1909</ele>
        <time>2021-08-07T07:27:08.629Z</time>
      </trkpt>
      <trkpt lat="46.9218" lon="8.68943">
        <ele>1909</ele>
        <time>2021-08-07T07:27:09.630Z</time>
      </trkpt>
      <trkpt lat="46.92179" lon="8.68943">
        <ele>1910</ele>
        <time>2021-08-07T07:27:10.630Z</time>
      </trkpt>
      <trkpt lat="46.92179" lon="8.68943">
        <ele>1910</ele>
        <time>2021-08-07T07:27:11.630Z</time>
      </trkpt>
      <trkpt lat="46.92179" lon="8.68943">
        <ele>1910</ele>
        <time>2021-08-07T07:27:12.629Z</time>
      </trkpt>
      <trkpt lat="46.92177" lon="8.68941">
        <ele>1909</ele>
        <time>2021-08-07T07:27:13.630Z</time>
      </trkpt>
      <trkpt lat="46.92177" lon="8.68941">
        <ele>1909</ele>
        <time>2021-08-07T07:27:14.630Z</time>
      </trkpt>
      <trkpt lat="46.92177" lon="8.6894">
        <ele>1909</ele>
        <time>2021-08-07T07:27:15.630Z</time>
      </trkpt>
      <trkpt lat="46.92177" lon="8.6894">
        <ele>1909</ele>
        <time>2021-08-07T07:27:16.630Z</time>
      </trkpt>
      <trkpt lat="46.92177" lon="8.68941">
        <ele>1909</ele>
        <time>2021-08-07T07:27:17.630Z</time>
      </trkpt>
      <trkpt lat="46.92178" lon="8.68942">
        <ele>1909</ele>
        <time>2021-08-07T07:27:18.630Z</time>
      </trkpt>
      <trkpt lat="46.92178" lon="8.68942">
        <ele>1908</ele>
        <time>2021-08-07T07:27:19.630Z</time>
      </trkpt>
      <trkpt lat="46.92179" lon="8.68942">
        <ele>1908</ele>
        <time>2021-08-07T07:27:20.629Z</time>
      </trkpt>
      <trkpt lat="46.9218" lon="8.68942">
        <ele>1908</ele>
        <time>2021-08-07T07:27:21.629Z</time>
      </trkpt>
      <trkpt lat="46.92181" lon="8.68941">
        <ele>1909</ele>
        <time>2021-08-07T07:27:22.629Z</time>
      </trkpt>
      <trkpt lat="46.92181" lon="8.68941">
        <ele>1909</ele>
        <time>2021-08-07T07:27:23.629Z</time>
      </trkpt>
      <trkpt lat="46.92181" lon="8.6894">
        <ele>1909</ele>
        <time>2021-08-07T07:27:24.629Z</time>
      </trkpt>
      <trkpt lat="46.92181" lon="8.6894">
        <ele>1909</ele>
        <time>2021-08-07T07:27:25.630Z</time>
      </trkpt>
      <trkpt lat="46.9218" lon="8.68938">
        <ele>1910</ele>
        <time>2021-08-07T07:27:26.629Z</time>
      </trkpt>
      <trkpt lat="46.9218" lon="8.68938">
        <ele>1911</ele>
        <time>2021-08-07T07:27:27.629Z</time>
      </trkpt>
      <trkpt lat="46.92181" lon="8.68938">
        <ele>1911</ele>
        <time>2021-08-07T07:27:28.629Z</time>
      </trkpt>
      <trkpt lat="46.92181" lon="8.68937">
        <ele>1912</ele>
        <time>2021-08-07T07:27:29.631Z</time>
      </trkpt>
      <trkpt lat="46.92182" lon="8.68937">
        <ele>1912</ele>
        <time>2021-08-07T07:27:30.632Z</time>
      </trkpt>
      <trkpt lat="46.92182" lon="8.68937">
        <ele>1912</ele>
        <time>2021-08-07T07:27:31.632Z</time>
      </trkpt>
      <trkpt lat="46.92182" lon="8.68937">
        <ele>1912</ele>
        <time>2021-08-07T07:27:32.632Z</time>
      </trkpt>
      <trkpt lat="46.92182" lon="8.68937">
        <ele>1912</ele>
        <time>2021-08-07T07:27:33.632Z</time>
      </trkpt>
      <trkpt lat="46.92183" lon="8.68937">
        <ele>1912</ele>
        <time>2021-08-07T07:27:34.632Z</time>
      </trkpt>
      <trkpt lat="46.92183" lon="8.68937">
        <ele>1912</ele>
        <time>2021-08-07T07:27:35.631Z</time>
      </trkpt>
      <trkpt lat="46.92184" lon="8.68937">
        <ele>1912</ele>
        <time>2021-08-07T07:27:36.632Z</time>
      </trkpt>
      <trkpt lat="46.92184" lon="8.68936">
        <ele>1911</ele>
        <time>2021-08-07T07:27:37.632Z</time>
      </trkpt>
      <trkpt lat="46.92184" lon="8.68936">
        <ele>1911</ele>
        <time>2021-08-07T07:27:38.633Z</time>
      </trkpt>
      <trkpt lat="46.92185" lon="8.68936">
        <ele>1911</ele>
        <time>2021-08-07T07:27:39.632Z</time>
      </trkpt>
      <trkpt lat="46.92185" lon="8.68935">
        <ele>1911</ele>
        <time>2021-08-07T07:27:40.632Z</time>
      </trkpt>
      <trkpt lat="46.92185" lon="8.68934">
        <ele>1911</ele>
        <time>2021-08-07T07:27:41.632Z</time>
      </trkpt>
      <trkpt lat="46.92184" lon="8.68933">
        <ele>1911</ele>
        <time>2021-08-07T07:27:42.632Z</time>
      </trkpt>
      <trkpt lat="46.92183" lon="8.68933">
        <ele>1911</ele>
        <time>2021-08-07T07:27:43.633Z</time>
      </trkpt>
      <trkpt lat="46.92182" lon="8.68933">
        <ele>1911</ele>
        <time>2021-08-07T07:27:44.633Z</time>
      </trkpt>
      <trkpt lat="46.92182" lon="8.68935">
        <ele>1911</ele>
        <time>2021-08-07T07:27:45.634Z</time>
      </trkpt>
      <trkpt lat="46.92181" lon="8.68935">
        <ele>1911</ele>
        <time>2021-08-07T07:27:46.634Z</time>
      </trkpt>
      <trkpt lat="46.9218" lon="8.68933">
        <ele>1912</ele>
        <time>2021-08-07T07:27:47.635Z</time>
      </trkpt>
      <trkpt lat="46.92181" lon="8.68933">
        <ele>1913</ele>
        <time>2021-08-07T07:27:48.634Z</time>
      </trkpt>
      <trkpt lat="46.92181" lon="8.68933">
        <ele>1913</ele>
        <time>2021-08-07T07:27:49.634Z</time>
      </trkpt>
      <trkpt lat="46.92181" lon="8.68932">
        <ele>1914</ele>
        <time>2021-08-07T07:27:50.635Z</time>
      </trkpt>
      <trkpt lat="46.9218" lon="8.68934">
        <ele>1914</ele>
        <time>2021-08-07T07:27:51.636Z</time>
      </trkpt>
      <trkpt lat="46.92179" lon="8.68934">
        <ele>1915</ele>
        <time>2021-08-07T07:27:52.636Z</time>
      </trkpt>
      <trkpt lat="46.92179" lon="8.68935">
        <ele>1916</ele>
        <time>2021-08-07T07:27:53.635Z</time>
      </trkpt>
      <trkpt lat="46.92178" lon="8.68937">
        <ele>1922</ele>
        <time>2021-08-07T07:27:54.636Z</time>
      </trkpt>
      <trkpt lat="46.92178" lon="8.68936">
        <ele>1921</ele>
        <time>2021-08-07T07:27:55.636Z</time>
      </trkpt>
      <trkpt lat="46.92178" lon="8.68936">
        <ele>1920</ele>
        <time>2021-08-07T07:27:56.635Z</time>
      </trkpt>
      <trkpt lat="46.92177" lon="8.68936">
        <ele>1920</ele>
        <time>2021-08-07T07:27:57.636Z</time>
      </trkpt>
      <trkpt lat="46.92178" lon="8.68937">
        <ele>1919</ele>
        <time>2021-08-07T07:27:58.635Z</time>
      </trkpt>
      <trkpt lat="46.92178" lon="8.68939">
        <ele>1919</ele>
        <time>2021-08-07T07:27:59.636Z</time>
      </trkpt>
      <trkpt lat="46.92178" lon="8.6894">
        <ele>1917</ele>
        <time>2021-08-07T07:28:00.637Z</time>
      </trkpt>
      <trkpt lat="46.92178" lon="8.6894">
        <ele>1917</ele>
        <time>2021-08-07T07:28:01.638Z</time>
      </trkpt>
      <trkpt lat="46.92178" lon="8.6894">
        <ele>1916</ele>
        <time>2021-08-07T07:28:02.638Z</time>
      </trkpt>
      <trkpt lat="46.92181" lon="8.68941">
        <ele>1915</ele>
        <time>2021-08-07T07:28:03.639Z</time>
      </trkpt>
      <trkpt lat="46.92181" lon="8.68941">
        <ele>1917</ele>
        <time>2021-08-07T07:28:04.639Z</time>
      </trkpt>
      <trkpt lat="46.92181" lon="8.68942">
        <ele>1919</ele>
        <time>2021-08-07T07:28:05.638Z</time>
      </trkpt>
      <trkpt lat="46.92181" lon="8.68942">
        <ele>1920</ele>
        <time>2021-08-07T07:28:06.639Z</time>
      </trkpt>
      <trkpt lat="46.92181" lon="8.6894">
        <ele>1927</ele>
        <time>2021-08-07T07:28:07.639Z</time>
      </trkpt>
      <trkpt lat="46.9218" lon="8.6894">
        <ele>1927</ele>
        <time>2021-08-07T07:28:08.639Z</time>
      </trkpt>
      <trkpt lat="46.9218" lon="8.68938">
        <ele>1927</ele>
        <time>2021-08-07T07:28:09.638Z</time>
      </trkpt>
      <trkpt lat="46.92179" lon="8.68937">
        <ele>1927</ele>
        <time>2021-08-07T07:28:10.638Z</time>
      </trkpt>
      <trkpt lat="46.92178" lon="8.68937">
        <ele>1927</ele>
        <time>2021-08-07T07:28:11.639Z</time>
      </trkpt>
      <trkpt lat="46.92177" lon="8.68936">
        <ele>1927</ele>
        <time>2021-08-07T07:28:12.638Z</time>
      </trkpt>
      <trkpt lat="46.92176" lon="8.68936">
        <ele>1927</ele>
        <time>2021-08-07T07:28:13.638Z</time>
      </trkpt>
      <trkpt lat="46.92175" lon="8.68936">
        <ele>1927</ele>
        <time>2021-08-07T07:28:14.638Z</time>
      </trkpt>
      <trkpt lat="46.92174" lon="8.68934">
        <ele>1927</ele>
        <time>2021-08-07T07:28:15.639Z</time>
      </trkpt>
      <trkpt lat="46.92174" lon="8.68934">
        <ele>1927</ele>
        <time>2021-08-07T07:28:16.639Z</time>
      </trkpt>
      <trkpt lat="46.92173" lon="8.68933">
        <ele>1926</ele>
        <time>2021-08-07T07:28:17.639Z</time>
      </trkpt>
      <trkpt lat="46.92173" lon="8.68933">
        <ele>1926</ele>
        <time>2021-08-07T07:28:18.639Z</time>
      </trkpt>
      <trkpt lat="46.92169" lon="8.6893">
        <ele>1925</ele>
        <time>2021-08-07T07:28:19.640Z</time>
      </trkpt>
      <trkpt lat="46.92168" lon="8.68929">
        <ele>1925</ele>
        <time>2021-08-07T07:28:20.639Z</time>
      </trkpt>
      <trkpt lat="46.92167" lon="8.68928">
        <ele>1924</ele>
        <time>2021-08-07T07:28:21.639Z</time>
      </trkpt>
      <trkpt lat="46.92167" lon="8.68928">
        <ele>1923</ele>
        <time>2021-08-07T07:28:22.639Z</time>
      </trkpt>
      <trkpt lat="46.92166" lon="8.68927">
        <ele>1923</ele>
        <time>2021-08-07T07:28:23.639Z</time>
      </trkpt>
      <trkpt lat="46.92165" lon="8.68927">
        <ele>1922</ele>
        <time>2021-08-07T07:28:24.639Z</time>
      </trkpt>
      <trkpt lat="46.92164" lon="8.68926">
        <ele>1921</ele>
        <time>2021-08-07T07:28:25.640Z</time>
      </trkpt>
      <trkpt lat="46.92164" lon="8.68927">
        <ele>1921</ele>
        <time>2021-08-07T07:28:26.640Z</time>
      </trkpt>
      <trkpt lat="46.92164" lon="8.68927">
        <ele>1920</ele>
        <time>2021-08-07T07:28:27.639Z</time>
      </trkpt>
      <trkpt lat="46.92164" lon="8.68928">
        <ele>1920</ele>
        <time>2021-08-07T07:28:28.639Z</time>
      </trkpt>
      <trkpt lat="46.92163" lon="8.68928">
        <ele>1920</ele>
        <time>2021-08-07T07:28:29.639Z</time>
      </trkpt>
      <trkpt lat="46.92163" lon="8.68928">
        <ele>1919</ele>
        <time>2021-08-07T07:28:30.639Z</time>
      </trkpt>
      <trkpt lat="46.92162" lon="8.68928">
        <ele>1919</ele>
        <time>2021-08-07T07:28:31.639Z</time>
      </trkpt>
      <trkpt lat="46.92161" lon="8.68927">
        <ele>1918</ele>
        <time>2021-08-07T07:28:32.640Z</time>
      </trkpt>
      <trkpt lat="46.92161" lon="8.68927">
        <ele>1918</ele>
        <time>2021-08-07T07:28:33.639Z</time>
      </trkpt>
      <trkpt lat="46.9216" lon="8.68927">
        <ele>1917</ele>
        <time>2021-08-07T07:28:34.640Z</time>
      </trkpt>
      <trkpt lat="46.9216" lon="8.68927">
        <ele>1917</ele>
        <time>2021-08-07T07:28:35.639Z</time>
      </trkpt>
      <trkpt lat="46.92159" lon="8.68926">
        <ele>1916</ele>
        <time>2021-08-07T07:28:36.640Z</time>
      </trkpt>
      <trkpt lat="46.92159" lon="8.68926">
        <ele>1915</ele>
        <time>2021-08-07T07:28:37.640Z</time>
      </trkpt>
      <trkpt lat="46.92158" lon="8.68926">
        <ele>1915</ele>
        <time>2021-08-07T07:28:38.639Z</time>
      </trkpt>
      <trkpt lat="46.92158" lon="8.68926">
        <ele>1914</ele>
        <time>2021-08-07T07:28:39.639Z</time>
      </trkpt>
      <trkpt lat="46.92157" lon="8.68926">
        <ele>1914</ele>
        <time>2021-08-07T07:28:40.639Z</time>
      </trkpt>
      <trkpt lat="46.92157" lon="8.68926">
        <ele>1914</ele>
        <time>2021-08-07T07:28:41.639Z</time>
      </trkpt>
      <trkpt lat="46.92156" lon="8.68926">
        <ele>1914</ele>
        <time>2021-08-07T07:28:42.639Z</time>
      </trkpt>
      <trkpt lat="46.92156" lon="8.68925">
        <ele>1914</ele>
        <time>2021-08-07T07:28:43.640Z</time>
      </trkpt>
      <trkpt lat="46.92155" lon="8.68925">
        <ele>1914</ele>
        <time>2021-08-07T07:28:44.640Z</time>
      </trkpt>
      <trkpt lat="46.92155" lon="8.68925">
        <ele>1914</ele>
        <time>2021-08-07T07:28:45.639Z</time>
      </trkpt>
      <trkpt lat="46.92154" lon="8.68925">
        <ele>1914</ele>
        <time>2021-08-07T07:28:46.639Z</time>
      </trkpt>
      <trkpt lat="46.92154" lon="8.68924">
        <ele>1915</ele>
        <time>2021-08-07T07:28:47.639Z</time>
      </trkpt>
      <trkpt lat="46.92153" lon="8.68924">
        <ele>1915</ele>
        <time>2021-08-07T07:28:48.639Z</time>
      </trkpt>
      <trkpt lat="46.92153" lon="8.68924">
        <ele>1915</ele>
        <time>2021-08-07T07:28:49.639Z</time>
      </trkpt>
      <trkpt lat="46.92152" lon="8.68924">
        <ele>1915</ele>
        <time>2021-08-07T07:28:50.640Z</time>
      </trkpt>
      <trkpt lat="46.92152" lon="8.68923">
        <ele>1915</ele>
        <time>2021-08-07T07:28:51.639Z</time>
      </trkpt>
      <trkpt lat="46.92151" lon="8.68923">
        <ele>1916</ele>
        <time>2021-08-07T07:28:52.640Z</time>
      </trkpt>
      <trkpt lat="46.92151" lon="8.68922">
        <ele>1916</ele>
        <time>2021-08-07T07:28:53.640Z</time>
      </trkpt>
      <trkpt lat="46.9215" lon="8.68922">
        <ele>1917</ele>
        <time>2021-08-07T07:28:54.639Z</time>
      </trkpt>
      <trkpt lat="46.92149" lon="8.68921">
        <ele>1917</ele>
        <time>2021-08-07T07:28:55.639Z</time>
      </trkpt>
      <trkpt lat="46.92149" lon="8.68921">
        <ele>1918</ele>
        <time>2021-08-07T07:28:56.640Z</time>
      </trkpt>
      <trkpt lat="46.92148" lon="8.6892">
        <ele>1918</ele>
        <time>2021-08-07T07:28:57.640Z</time>
      </trkpt>
      <trkpt lat="46.92148" lon="8.6892">
        <ele>1918</ele>
        <time>2021-08-07T07:28:58.639Z</time>
      </trkpt>
      <trkpt lat="46.92147" lon="8.6892">
        <ele>1918</ele>
        <time>2021-08-07T07:28:59.639Z</time>
      </trkpt>
      <trkpt lat="46.92147" lon="8.68919">
        <ele>1918</ele>
        <time>2021-08-07T07:29:00.640Z</time>
      </trkpt>
      <trkpt lat="46.92146" lon="8.68919">
        <ele>1918</ele>
        <time>2021-08-07T07:29:01.640Z</time>
      </trkpt>
      <trkpt lat="46.92145" lon="8.68919">
        <ele>1919</ele>
        <time>2021-08-07T07:29:02.639Z</time>
      </trkpt>
      <trkpt lat="46.92145" lon="8.68918">
        <ele>1919</ele>
        <time>2021-08-07T07:29:03.640Z</time>
      </trkpt>
      <trkpt lat="46.92144" lon="8.68918">
        <ele>1920</ele>
        <time>2021-08-07T07:29:04.639Z</time>
      </trkpt>
      <trkpt lat="46.92142" lon="8.68917">
        <ele>1920</ele>
        <time>2021-08-07T07:29:05.639Z</time>
      </trkpt>
      <trkpt lat="46.92142" lon="8.68917">
        <ele>1921</ele>
        <time>2021-08-07T07:29:06.639Z</time>
      </trkpt>
      <trkpt lat="46.92141" lon="8.68916">
        <ele>1921</ele>
        <time>2021-08-07T07:29:07.639Z</time>
      </trkpt>
      <trkpt lat="46.9214" lon="8.68916">
        <ele>1921</ele>
        <time>2021-08-07T07:29:08.639Z</time>
      </trkpt>
      <trkpt lat="46.9214" lon="8.68916">
        <ele>1921</ele>
        <time>2021-08-07T07:29:09.639Z</time>
      </trkpt>
      <trkpt lat="46.92139" lon="8.68916">
        <ele>1922</ele>
        <time>2021-08-07T07:29:10.639Z</time>
      </trkpt>
      <trkpt lat="46.92139" lon="8.68916">
        <ele>1922</ele>
        <time>2021-08-07T07:29:11.639Z</time>
      </trkpt>
      <trkpt lat="46.92138" lon="8.68915">
        <ele>1922</ele>
        <time>2021-08-07T07:29:12.639Z</time>
      </trkpt>
      <trkpt lat="46.92138" lon="8.68914">
        <ele>1922</ele>
        <time>2021-08-07T07:29:13.639Z</time>
      </trkpt>
      <trkpt lat="46.92138" lon="8.68914">
        <ele>1922</ele>
        <time>2021-08-07T07:29:14.639Z</time>
      </trkpt>
      <trkpt lat="46.92137" lon="8.68914">
        <ele>1922</ele>
        <time>2021-08-07T07:29:15.639Z</time>
      </trkpt>
      <trkpt lat="46.92136" lon="8.68913">
        <ele>1922</ele>
        <time>2021-08-07T07:29:16.640Z</time>
      </trkpt>
      <trkpt lat="46.92135" lon="8.68913">
        <ele>1922</ele>
        <time>2021-08-07T07:29:17.639Z</time>
      </trkpt>
      <trkpt lat="46.92135" lon="8.68913">
        <ele>1922</ele>
        <time>2021-08-07T07:29:18.639Z</time>
      </trkpt>
      <trkpt lat="46.92134" lon="8.68913">
        <ele>1922</ele>
        <time>2021-08-07T07:29:19.640Z</time>
      </trkpt>
      <trkpt lat="46.92134" lon="8.68913">
        <ele>1921</ele>
        <time>2021-08-07T07:29:20.639Z</time>
      </trkpt>
      <trkpt lat="46.92133" lon="8.68913">
        <ele>1922</ele>
        <time>2021-08-07T07:29:21.640Z</time>
      </trkpt>
      <trkpt lat="46.92133" lon="8.68913">
        <ele>1922</ele>
        <time>2021-08-07T07:29:22.639Z</time>
      </trkpt>
      <trkpt lat="46.92132" lon="8.68912">
        <ele>1922</ele>
        <time>2021-08-07T07:29:23.640Z</time>
      </trkpt>
      <trkpt lat="46.92132" lon="8.68912">
        <ele>1922</ele>
        <time>2021-08-07T07:29:24.640Z</time>
      </trkpt>
      <trkpt lat="46.92132" lon="8.68912">
        <ele>1922</ele>
        <time>2021-08-07T07:29:25.639Z</time>
      </trkpt>
      <trkpt lat="46.92131" lon="8.68912">
        <ele>1921</ele>
        <time>2021-08-07T07:29:26.639Z</time>
      </trkpt>
      <trkpt lat="46.92131" lon="8.68911">
        <ele>1921</ele>
        <time>2021-08-07T07:29:27.639Z</time>
      </trkpt>
      <trkpt lat="46.9213" lon="8.68911">
        <ele>1921</ele>
        <time>2021-08-07T07:29:28.640Z</time>
      </trkpt>
      <trkpt lat="46.92129" lon="8.68911">
        <ele>1921</ele>
        <time>2021-08-07T07:29:29.639Z</time>
      </trkpt>
      <trkpt lat="46.92128" lon="8.6891">
        <ele>1921</ele>
        <time>2021-08-07T07:29:30.639Z</time>
      </trkpt>
      <trkpt lat="46.92127" lon="8.6891">
        <ele>1922</ele>
        <time>2021-08-07T07:29:31.639Z</time>
      </trkpt>
      <trkpt lat="46.92127" lon="8.68909">
        <ele>1922</ele>
        <time>2021-08-07T07:29:32.639Z</time>
      </trkpt>
      <trkpt lat="46.92126" lon="8.68909">
        <ele>1922</ele>
        <time>2021-08-07T07:29:33.639Z</time>
      </trkpt>
      <trkpt lat="46.92126" lon="8.68909">
        <ele>1923</ele>
        <time>2021-08-07T07:29:34.639Z</time>
      </trkpt>
      <trkpt lat="46.92125" lon="8.68909">
        <ele>1923</ele>
        <time>2021-08-07T07:29:35.639Z</time>
      </trkpt>
      <trkpt lat="46.92125" lon="8.68909">
        <ele>1924</ele>
        <time>2021-08-07T07:29:36.640Z</time>
      </trkpt>
      <trkpt lat="46.92124" lon="8.68909">
        <ele>1924</ele>
        <time>2021-08-07T07:29:37.639Z</time>
      </trkpt>
      <trkpt lat="46.92123" lon="8.68908">
        <ele>1925</ele>
        <time>2021-08-07T07:29:38.639Z</time>
      </trkpt>
      <trkpt lat="46.92123" lon="8.68908">
        <ele>1925</ele>
        <time>2021-08-07T07:29:39.640Z</time>
      </trkpt>
      <trkpt lat="46.92122" lon="8.68908">
        <ele>1925</ele>
        <time>2021-08-07T07:29:40.639Z</time>
      </trkpt>
      <trkpt lat="46.92122" lon="8.68908">
        <ele>1925</ele>
        <time>2021-08-07T07:29:41.639Z</time>
      </trkpt>
      <trkpt lat="46.92121" lon="8.68908">
        <ele>1926</ele>
        <time>2021-08-07T07:29:42.639Z</time>
      </trkpt>
      <trkpt lat="46.9212" lon="8.68908">
        <ele>1926</ele>
        <time>2021-08-07T07:29:43.639Z</time>
      </trkpt>
      <trkpt lat="46.92119" lon="8.68907">
        <ele>1926</ele>
        <time>2021-08-07T07:29:44.639Z</time>
      </trkpt>
      <trkpt lat="46.92119" lon="8.68907">
        <ele>1926</ele>
        <time>2021-08-07T07:29:45.639Z</time>
      </trkpt>
      <trkpt lat="46.92118" lon="8.68907">
        <ele>1926</ele>
        <time>2021-08-07T07:29:46.640Z</time>
      </trkpt>
      <trkpt lat="46.92118" lon="8.68907">
        <ele>1926</ele>
        <time>2021-08-07T07:29:47.639Z</time>
      </trkpt>
      <trkpt lat="46.92117" lon="8.68906">
        <ele>1926</ele>
        <time>2021-08-07T07:29:48.640Z</time>
      </trkpt>
      <trkpt lat="46.92117" lon="8.68906">
        <ele>1926</ele>
        <time>2021-08-07T07:29:49.639Z</time>
      </trkpt>
      <trkpt lat="46.92116" lon="8.68906">
        <ele>1926</ele>
        <time>2021-08-07T07:29:50.640Z</time>
      </trkpt>
      <trkpt lat="46.92116" lon="8.68906">
        <ele>1926</ele>
        <time>2021-08-07T07:29:51.639Z</time>
      </trkpt>
      <trkpt lat="46.92115" lon="8.68906">
        <ele>1926</ele>
        <time>2021-08-07T07:29:52.639Z</time>
      </trkpt>
      <trkpt lat="46.92114" lon="8.68906">
        <ele>1926</ele>
        <time>2021-08-07T07:29:53.639Z</time>
      </trkpt>
      <trkpt lat="46.92114" lon="8.68906">
        <ele>1926</ele>
        <time>2021-08-07T07:29:54.639Z</time>
      </trkpt>
      <trkpt lat="46.92113" lon="8.68905">
        <ele>1926</ele>
        <time>2021-08-07T07:29:55.639Z</time>
      </trkpt>
      <trkpt lat="46.92112" lon="8.68906">
        <ele>1926</ele>
        <time>2021-08-07T07:29:56.639Z</time>
      </trkpt>
      <trkpt lat="46.92112" lon="8.68906">
        <ele>1926</ele>
        <time>2021-08-07T07:29:57.640Z</time>
      </trkpt>
      <trkpt lat="46.92112" lon="8.68906">
        <ele>1926</ele>
        <time>2021-08-07T07:29:58.639Z</time>
      </trkpt>
      <trkpt lat="46.92111" lon="8.68906">
        <ele>1925</ele>
        <time>2021-08-07T07:29:59.639Z</time>
      </trkpt>
      <trkpt lat="46.92111" lon="8.68906">
        <ele>1925</ele>
        <time>2021-08-07T07:30:00.639Z</time>
      </trkpt>
      <trkpt lat="46.92111" lon="8.68906">
        <ele>1925</ele>
        <time>2021-08-07T07:30:01.639Z</time>
      </trkpt>
      <trkpt lat="46.9211" lon="8.68906">
        <ele>1925</ele>
        <time>2021-08-07T07:30:02.639Z</time>
      </trkpt>
      <trkpt lat="46.92109" lon="8.68906">
        <ele>1925</ele>
        <time>2021-08-07T07:30:03.639Z</time>
      </trkpt>
      <trkpt lat="46.92108" lon="8.68905">
        <ele>1925</ele>
        <time>2021-08-07T07:30:04.639Z</time>
      </trkpt>
      <trkpt lat="46.92108" lon="8.68904">
        <ele>1926</ele>
        <time>2021-08-07T07:30:05.639Z</time>
      </trkpt>
      <trkpt lat="46.92107" lon="8.68904">
        <ele>1926</ele>
        <time>2021-08-07T07:30:06.639Z</time>
      </trkpt>
      <trkpt lat="46.92107" lon="8.68903">
        <ele>1927</ele>
        <time>2021-08-07T07:30:07.640Z</time>
      </trkpt>
      <trkpt lat="46.92106" lon="8.68903">
        <ele>1928</ele>
        <time>2021-08-07T07:30:08.639Z</time>
      </trkpt>
      <trkpt lat="46.92106" lon="8.68903">
        <ele>1928</ele>
        <time>2021-08-07T07:30:09.639Z</time>
      </trkpt>
      <trkpt lat="46.92106" lon="8.68903">
        <ele>1929</ele>
        <time>2021-08-07T07:30:10.639Z</time>
      </trkpt>
      <trkpt lat="46.92106" lon="8.68903">
        <ele>1929</ele>
        <time>2021-08-07T07:30:11.639Z</time>
      </trkpt>
      <trkpt lat="46.92106" lon="8.68903">
        <ele>1930</ele>
        <time>2021-08-07T07:30:12.640Z</time>
      </trkpt>
      <trkpt lat="46.92104" lon="8.68902">
        <ele>1930</ele>
        <time>2021-08-07T07:30:13.640Z</time>
      </trkpt>
      <trkpt lat="46.92104" lon="8.68901">
        <ele>1931</ele>
        <time>2021-08-07T07:30:14.639Z</time>
      </trkpt>
      <trkpt lat="46.92103" lon="8.689">
        <ele>1931</ele>
        <time>2021-08-07T07:30:15.639Z</time>
      </trkpt>
      <trkpt lat="46.92102" lon="8.68899">
        <ele>1932</ele>
        <time>2021-08-07T07:30:16.640Z</time>
      </trkpt>
      <trkpt lat="46.92101" lon="8.68898">
        <ele>1932</ele>
        <time>2021-08-07T07:30:17.640Z</time>
      </trkpt>
      <trkpt lat="46.921" lon="8.68897">
        <ele>1933</ele>
        <time>2021-08-07T07:30:18.639Z</time>
      </trkpt>
      <trkpt lat="46.92099" lon="8.68897">
        <ele>1934</ele>
        <time>2021-08-07T07:30:19.639Z</time>
      </trkpt>
      <trkpt lat="46.92098" lon="8.68897">
        <ele>1934</ele>
        <time>2021-08-07T07:30:20.639Z</time>
      </trkpt>
      <trkpt lat="46.92097" lon="8.68897">
        <ele>1934</ele>
        <time>2021-08-07T07:30:21.640Z</time>
      </trkpt>
      <trkpt lat="46.92097" lon="8.68896">
        <ele>1934</ele>
        <time>2021-08-07T07:30:22.639Z</time>
      </trkpt>
      <trkpt lat="46.92096" lon="8.68896">
        <ele>1934</ele>
        <time>2021-08-07T07:30:23.639Z</time>
      </trkpt>
      <trkpt lat="46.92095" lon="8.68896">
        <ele>1935</ele>
        <time>2021-08-07T07:30:24.640Z</time>
      </trkpt>
      <trkpt lat="46.92095" lon="8.68896">
        <ele>1934</ele>
        <time>2021-08-07T07:30:25.640Z</time>
      </trkpt>
      <trkpt lat="46.92095" lon="8.68896">
        <ele>1934</ele>
        <time>2021-08-07T07:30:26.640Z</time>
      </trkpt>
      <trkpt lat="46.92094" lon="8.68897">
        <ele>1934</ele>
        <time>2021-08-07T07:30:27.639Z</time>
      </trkpt>
      <trkpt lat="46.92093" lon="8.68897">
        <ele>1934</ele>
        <time>2021-08-07T07:30:28.639Z</time>
      </trkpt>
      <trkpt lat="46.92093" lon="8.68897">
        <ele>1934</ele>
        <time>2021-08-07T07:30:29.639Z</time>
      </trkpt>
      <trkpt lat="46.92092" lon="8.68896">
        <ele>1933</ele>
        <time>2021-08-07T07:30:30.640Z</time>
      </trkpt>
      <trkpt lat="46.92092" lon="8.68896">
        <ele>1933</ele>
        <time>2021-08-07T07:30:31.640Z</time>
      </trkpt>
      <trkpt lat="46.92091" lon="8.68896">
        <ele>1933</ele>
        <time>2021-08-07T07:30:32.639Z</time>
      </trkpt>
      <trkpt lat="46.92091" lon="8.68896">
        <ele>1933</ele>
        <time>2021-08-07T07:30:33.639Z</time>
      </trkpt>
      <trkpt lat="46.9209" lon="8.68896">
        <ele>1933</ele>
        <time>2021-08-07T07:30:34.640Z</time>
      </trkpt>
      <trkpt lat="46.9209" lon="8.68897">
        <ele>1933</ele>
        <time>2021-08-07T07:30:35.639Z</time>
      </trkpt>
      <trkpt lat="46.9209" lon="8.68897">
        <ele>1933</ele>
        <time>2021-08-07T07:30:36.639Z</time>
      </trkpt>
      <trkpt lat="46.92089" lon="8.68897">
        <ele>1934</ele>
        <time>2021-08-07T07:30:37.640Z</time>
      </trkpt>
      <trkpt lat="46.92088" lon="8.68898">
        <ele>1934</ele>
        <time>2021-08-07T07:30:38.639Z</time>
      </trkpt>
      <trkpt lat="46.92088" lon="8.68898">
        <ele>1934</ele>
        <time>2021-08-07T07:30:39.640Z</time>
      </trkpt>
      <trkpt lat="46.92087" lon="8.68899">
        <ele>1934</ele>
        <time>2021-08-07T07:30:40.640Z</time>
      </trkpt>
      <trkpt lat="46.92087" lon="8.689">
        <ele>1934</ele>
        <time>2021-08-07T07:30:41.640Z</time>
      </trkpt>
      <trkpt lat="46.92087" lon="8.68901">
        <ele>1934</ele>
        <time>2021-08-07T07:30:42.639Z</time>
      </trkpt>
      <trkpt lat="46.92087" lon="8.68901">
        <ele>1934</ele>
        <time>2021-08-07T07:30:43.640Z</time>
      </trkpt>
      <trkpt lat="46.92086" lon="8.68901">
        <ele>1934</ele>
        <time>2021-08-07T07:30:44.640Z</time>
      </trkpt>
      <trkpt lat="46.92085" lon="8.68901">
        <ele>1934</ele>
        <time>2021-08-07T07:30:45.640Z</time>
      </trkpt>
      <trkpt lat="46.92085" lon="8.68901">
        <ele>1934</ele>
        <time>2021-08-07T07:30:46.639Z</time>
      </trkpt>
      <trkpt lat="46.92084" lon="8.68901">
        <ele>1934</ele>
        <time>2021-08-07T07:30:47.639Z</time>
      </trkpt>
      <trkpt lat="46.92084" lon="8.68901">
        <ele>1934</ele>
        <time>2021-08-07T07:30:48.640Z</time>
      </trkpt>
      <trkpt lat="46.92084" lon="8.68902">
        <ele>1935</ele>
        <time>2021-08-07T07:30:49.640Z</time>
      </trkpt>
      <trkpt lat="46.92083" lon="8.68903">
        <ele>1935</ele>
        <time>2021-08-07T07:30:50.639Z</time>
      </trkpt>
      <trkpt lat="46.92083" lon="8.68904">
        <ele>1935</ele>
        <time>2021-08-07T07:30:51.640Z</time>
      </trkpt>
      <trkpt lat="46.92083" lon="8.68904">
        <ele>1935</ele>
        <time>2021-08-07T07:30:52.640Z</time>
      </trkpt>
      <trkpt lat="46.92083" lon="8.68903">
        <ele>1934</ele>
        <time>2021-08-07T07:30:53.640Z</time>
      </trkpt>
      <trkpt lat="46.92082" lon="8.68903">
        <ele>1934</ele>
        <time>2021-08-07T07:30:54.639Z</time>
      </trkpt>
      <trkpt lat="46.92082" lon="8.68902">
        <ele>1935</ele>
        <time>2021-08-07T07:30:55.640Z</time>
      </trkpt>
      <trkpt lat="46.92081" lon="8.68902">
        <ele>1935</ele>
        <time>2021-08-07T07:30:56.640Z</time>
      </trkpt>
      <trkpt lat="46.92081" lon="8.68902">
        <ele>1935</ele>
        <time>2021-08-07T07:30:57.639Z</time>
      </trkpt>
      <trkpt lat="46.92081" lon="8.68902">
        <ele>1936</ele>
        <time>2021-08-07T07:30:58.639Z</time>
      </trkpt>
      <trkpt lat="46.92081" lon="8.68903">
        <ele>1936</ele>
        <time>2021-08-07T07:30:59.639Z</time>
      </trkpt>
      <trkpt lat="46.9208" lon="8.68903">
        <ele>1936</ele>
        <time>2021-08-07T07:31:00.640Z</time>
      </trkpt>
      <trkpt lat="46.92079" lon="8.68904">
        <ele>1937</ele>
        <time>2021-08-07T07:31:01.639Z</time>
      </trkpt>
      <trkpt lat="46.92078" lon="8.68905">
        <ele>1937</ele>
        <time>2021-08-07T07:31:02.640Z</time>
      </trkpt>
      <trkpt lat="46.92078" lon="8.68905">
        <ele>1937</ele>
        <time>2021-08-07T07:31:03.639Z</time>
      </trkpt>
      <trkpt lat="46.92078" lon="8.68906">
        <ele>1938</ele>
        <time>2021-08-07T07:31:04.640Z</time>
      </trkpt>
      <trkpt lat="46.92078" lon="8.68906">
        <ele>1938</ele>
        <time>2021-08-07T07:31:05.640Z</time>
      </trkpt>
      <trkpt lat="46.92077" lon="8.68907">
        <ele>1939</ele>
        <time>2021-08-07T07:31:06.640Z</time>
      </trkpt>
      <trkpt lat="46.92077" lon="8.68907">
        <ele>1939</ele>
        <time>2021-08-07T07:31:07.639Z</time>
      </trkpt>
      <trkpt lat="46.92076" lon="8.68908">
        <ele>1939</ele>
        <time>2021-08-07T07:31:08.639Z</time>
      </trkpt>
      <trkpt lat="46.92075" lon="8.68908">
        <ele>1940</ele>
        <time>2021-08-07T07:31:09.639Z</time>
      </trkpt>
      <trkpt lat="46.92075" lon="8.68909">
        <ele>1941</ele>
        <time>2021-08-07T07:31:10.640Z</time>
      </trkpt>
      <trkpt lat="46.92074" lon="8.6891">
        <ele>1941</ele>
        <time>2021-08-07T07:31:11.640Z</time>
      </trkpt>
      <trkpt lat="46.92074" lon="8.6891">
        <ele>1941</ele>
        <time>2021-08-07T07:31:12.640Z</time>
      </trkpt>
      <trkpt lat="46.92073" lon="8.6891">
        <ele>1941</ele>
        <time>2021-08-07T07:31:13.639Z</time>
      </trkpt>
      <trkpt lat="46.92073" lon="8.68911">
        <ele>1942</ele>
        <time>2021-08-07T07:31:14.640Z</time>
      </trkpt>
      <trkpt lat="46.92072" lon="8.68911">
        <ele>1942</ele>
        <time>2021-08-07T07:31:15.640Z</time>
      </trkpt>
      <trkpt lat="46.92072" lon="8.68911">
        <ele>1942</ele>
        <time>2021-08-07T07:31:16.640Z</time>
      </trkpt>
      <trkpt lat="46.92071" lon="8.6891">
        <ele>1942</ele>
        <time>2021-08-07T07:31:17.639Z</time>
      </trkpt>
      <trkpt lat="46.9207" lon="8.68909">
        <ele>1941</ele>
        <time>2021-08-07T07:31:18.640Z</time>
      </trkpt>
      <trkpt lat="46.92069" lon="8.68908">
        <ele>1941</ele>
        <time>2021-08-07T07:31:19.640Z</time>
      </trkpt>
      <trkpt lat="46.92069" lon="8.68907">
        <ele>1941</ele>
        <time>2021-08-07T07:31:20.639Z</time>
      </trkpt>
      <trkpt lat="46.92069" lon="8.68906">
        <ele>1941</ele>
        <time>2021-08-07T07:31:21.640Z</time>
      </trkpt>
      <trkpt lat="46.92068" lon="8.68905">
        <ele>1940</ele>
        <time>2021-08-07T07:31:22.639Z</time>
      </trkpt>
      <trkpt lat="46.92068" lon="8.68905">
        <ele>1940</ele>
        <time>2021-08-07T07:31:23.640Z</time>
      </trkpt>
      <trkpt lat="46.92067" lon="8.68905">
        <ele>1940</ele>
        <time>2021-08-07T07:31:24.639Z</time>
      </trkpt>
      <trkpt lat="46.92067" lon="8.68904">
        <ele>1939</ele>
        <time>2021-08-07T07:31:25.640Z</time>
      </trkpt>
      <trkpt lat="46.92067" lon="8.68904">
        <ele>1939</ele>
        <time>2021-08-07T07:31:26.640Z</time>
      </trkpt>
      <trkpt lat="46.92067" lon="8.68905">
        <ele>1939</ele>
        <time>2021-08-07T07:31:27.640Z</time>
      </trkpt>
      <trkpt lat="46.92066" lon="8.68904">
        <ele>1939</ele>
        <time>2021-08-07T07:31:28.639Z</time>
      </trkpt>
      <trkpt lat="46.92066" lon="8.68904">
        <ele>1939</ele>
        <time>2021-08-07T07:31:29.640Z</time>
      </trkpt>
      <trkpt lat="46.92066" lon="8.68904">
        <ele>1939</ele>
        <time>2021-08-07T07:31:30.640Z</time>
      </trkpt>
      <trkpt lat="46.92067" lon="8.68903">
        <ele>1939</ele>
        <time>2021-08-07T07:31:31.639Z</time>
      </trkpt>
      <trkpt lat="46.92067" lon="8.68903">
        <ele>1938</ele>
        <time>2021-08-07T07:31:32.640Z</time>
      </trkpt>
      <trkpt lat="46.92066" lon="8.68903">
        <ele>1938</ele>
        <time>2021-08-07T07:31:33.640Z</time>
      </trkpt>
      <trkpt lat="46.92066" lon="8.68904">
        <ele>1938</ele>
        <time>2021-08-07T07:31:34.639Z</time>
      </trkpt>
      <trkpt lat="46.92066" lon="8.68904">
        <ele>1938</ele>
        <time>2021-08-07T07:31:35.639Z</time>
      </trkpt>
      <trkpt lat="46.92066" lon="8.68905">
        <ele>1938</ele>
        <time>2021-08-07T07:31:36.639Z</time>
      </trkpt>
      <trkpt lat="46.92066" lon="8.68905">
        <ele>1938</ele>
        <time>2021-08-07T07:31:37.639Z</time>
      </trkpt>
      <trkpt lat="46.92066" lon="8.68905">
        <ele>1937</ele>
        <time>2021-08-07T07:31:38.639Z</time>
      </trkpt>
      <trkpt lat="46.92067" lon="8.68905">
        <ele>1937</ele>
        <time>2021-08-07T07:31:39.640Z</time>
      </trkpt>
      <trkpt lat="46.92067" lon="8.68905">
        <ele>1937</ele>
        <time>2021-08-07T07:31:40.640Z</time>
      </trkpt>
      <trkpt lat="46.92067" lon="8.68905">
        <ele>1937</ele>
        <time>2021-08-07T07:31:41.639Z</time>
      </trkpt>
      <trkpt lat="46.92068" lon="8.68905">
        <ele>1937</ele>
        <time>2021-08-07T07:31:42.641Z</time>
      </trkpt>
      <trkpt lat="46.92068" lon="8.68905">
        <ele>1937</ele>
        <time>2021-08-07T07:31:43.640Z</time>
      </trkpt>
      <trkpt lat="46.92068" lon="8.68906">
        <ele>1937</ele>
        <time>2021-08-07T07:31:44.640Z</time>
      </trkpt>
      <trkpt lat="46.92069" lon="8.68906">
        <ele>1937</ele>
        <time>2021-08-07T07:31:45.640Z</time>
      </trkpt>
      <trkpt lat="46.9207" lon="8.68907">
        <ele>1937</ele>
        <time>2021-08-07T07:31:46.641Z</time>
      </trkpt>
      <trkpt lat="46.9207" lon="8.68907">
        <ele>1937</ele>
        <time>2021-08-07T07:31:47.641Z</time>
      </trkpt>
      <trkpt lat="46.92071" lon="8.68907">
        <ele>1937</ele>
        <time>2021-08-07T07:31:48.641Z</time>
      </trkpt>
      <trkpt lat="46.9207" lon="8.68907">
        <ele>1938</ele>
        <time>2021-08-07T07:31:49.641Z</time>
      </trkpt>
      <trkpt lat="46.9207" lon="8.68906">
        <ele>1938</ele>
        <time>2021-08-07T07:31:50.641Z</time>
      </trkpt>
      <trkpt lat="46.92069" lon="8.68906">
        <ele>1938</ele>
        <time>2021-08-07T07:31:51.641Z</time>
      </trkpt>
      <trkpt lat="46.92069" lon="8.68906">
        <ele>1939</ele>
        <time>2021-08-07T07:31:52.641Z</time>
      </trkpt>
      <trkpt lat="46.92069" lon="8.68905">
        <ele>1940</ele>
        <time>2021-08-07T07:31:53.641Z</time>
      </trkpt>
      <trkpt lat="46.92069" lon="8.68905">
        <ele>1940</ele>
        <time>2021-08-07T07:31:54.642Z</time>
      </trkpt>
      <trkpt lat="46.92069" lon="8.68906">
        <ele>1940</ele>
        <time>2021-08-07T07:31:55.641Z</time>
      </trkpt>
      <trkpt lat="46.92068" lon="8.68906">
        <ele>1940</ele>
        <time>2021-08-07T07:31:56.642Z</time>
      </trkpt>
      <trkpt lat="46.92067" lon="8.68907">
        <ele>1941</ele>
        <time>2021-08-07T07:31:57.642Z</time>
      </trkpt>
      <trkpt lat="46.92066" lon="8.68907">
        <ele>1941</ele>
        <time>2021-08-07T07:31:58.642Z</time>
      </trkpt>
      <trkpt lat="46.92066" lon="8.68907">
        <ele>1941</ele>
        <time>2021-08-07T07:31:59.642Z</time>
      </trkpt>
      <trkpt lat="46.92067" lon="8.68907">
        <ele>1941</ele>
        <time>2021-08-07T07:32:00.641Z</time>
      </trkpt>
      <trkpt lat="46.92066" lon="8.68905">
        <ele>1941</ele>
        <time>2021-08-07T07:32:01.642Z</time>
      </trkpt>
      <trkpt lat="46.92066" lon="8.68903">
        <ele>1941</ele>
        <time>2021-08-07T07:32:02.641Z</time>
      </trkpt>
      <trkpt lat="46.92065" lon="8.68902">
        <ele>1941</ele>
        <time>2021-08-07T07:32:03.641Z</time>
      </trkpt>
      <trkpt lat="46.92063" lon="8.68902">
        <ele>1941</ele>
        <time>2021-08-07T07:32:04.642Z</time>
      </trkpt>
      <trkpt lat="46.92062" lon="8.68901">
        <ele>1941</ele>
        <time>2021-08-07T07:32:05.641Z</time>
      </trkpt>
      <trkpt lat="46.92061" lon="8.68901">
        <ele>1941</ele>
        <time>2021-08-07T07:32:06.641Z</time>
      </trkpt>
      <trkpt lat="46.9206" lon="8.68901">
        <ele>1941</ele>
        <time>2021-08-07T07:32:07.642Z</time>
      </trkpt>
      <trkpt lat="46.9206" lon="8.68901">
        <ele>1941</ele>
        <time>2021-08-07T07:32:08.641Z</time>
      </trkpt>
      <trkpt lat="46.92061" lon="8.68901">
        <ele>1941</ele>
        <time>2021-08-07T07:32:09.642Z</time>
      </trkpt>
      <trkpt lat="46.92061" lon="8.68902">
        <ele>1941</ele>
        <time>2021-08-07T07:32:10.642Z</time>
      </trkpt>
      <trkpt lat="46.92061" lon="8.68902">
        <ele>1941</ele>
        <time>2021-08-07T07:32:11.641Z</time>
      </trkpt>
      <trkpt lat="46.92061" lon="8.68903">
        <ele>1941</ele>
        <time>2021-08-07T07:32:12.641Z</time>
      </trkpt>
      <trkpt lat="46.92061" lon="8.68903">
        <ele>1941</ele>
        <time>2021-08-07T07:32:13.641Z</time>
      </trkpt>
      <trkpt lat="46.92061" lon="8.68902">
        <ele>1941</ele>
        <time>2021-08-07T07:32:14.642Z</time>
      </trkpt>
      <trkpt lat="46.92061" lon="8.68901">
        <ele>1940</ele>
        <time>2021-08-07T07:32:15.643Z</time>
      </trkpt>
      <trkpt lat="46.92061" lon="8.689">
        <ele>1940</ele>
        <time>2021-08-07T07:32:16.642Z</time>
      </trkpt>
      <trkpt lat="46.92061" lon="8.68901">
        <ele>1940</ele>
        <time>2021-08-07T07:32:17.642Z</time>
      </trkpt>
      <trkpt lat="46.92062" lon="8.68901">
        <ele>1940</ele>
        <time>2021-08-07T07:32:18.642Z</time>
      </trkpt>
      <trkpt lat="46.92061" lon="8.68902">
        <ele>1940</ele>
        <time>2021-08-07T07:32:19.643Z</time>
      </trkpt>
      <trkpt lat="46.92061" lon="8.68902">
        <ele>1940</ele>
        <time>2021-08-07T07:32:20.642Z</time>
      </trkpt>
      <trkpt lat="46.92061" lon="8.68903">
        <ele>1939</ele>
        <time>2021-08-07T07:32:21.643Z</time>
      </trkpt>
      <trkpt lat="46.9206" lon="8.68904">
        <ele>1940</ele>
        <time>2021-08-07T07:32:22.643Z</time>
      </trkpt>
      <trkpt lat="46.9206" lon="8.68904">
        <ele>1940</ele>
        <time>2021-08-07T07:32:23.643Z</time>
      </trkpt>
      <trkpt lat="46.92059" lon="8.68904">
        <ele>1940</ele>
        <time>2021-08-07T07:32:24.643Z</time>
      </trkpt>
      <trkpt lat="46.92058" lon="8.68904">
        <ele>1940</ele>
        <time>2021-08-07T07:32:25.643Z</time>
      </trkpt>
      <trkpt lat="46.92057" lon="8.68903">
        <ele>1941</ele>
        <time>2021-08-07T07:32:26.643Z</time>
      </trkpt>
      <trkpt lat="46.92056" lon="8.68903">
        <ele>1941</ele>
        <time>2021-08-07T07:32:27.643Z</time>
      </trkpt>
      <trkpt lat="46.92055" lon="8.68903">
        <ele>1941</ele>
        <time>2021-08-07T07:32:28.643Z</time>
      </trkpt>
      <trkpt lat="46.92055" lon="8.68903">
        <ele>1941</ele>
        <time>2021-08-07T07:32:29.643Z</time>
      </trkpt>
      <trkpt lat="46.92055" lon="8.68903">
        <ele>1941</ele>
        <time>2021-08-07T07:32:30.642Z</time>
      </trkpt>
      <trkpt lat="46.92054" lon="8.68903">
        <ele>1942</ele>
        <time>2021-08-07T07:32:31.643Z</time>
      </trkpt>
      <trkpt lat="46.92054" lon="8.68903">
        <ele>1942</ele>
        <time>2021-08-07T07:32:32.643Z</time>
      </trkpt>
      <trkpt lat="46.92053" lon="8.68903">
        <ele>1943</ele>
        <time>2021-08-07T07:32:33.642Z</time>
      </trkpt>
      <trkpt lat="46.92053" lon="8.68903">
        <ele>1943</ele>
        <time>2021-08-07T07:32:34.642Z</time>
      </trkpt>
      <trkpt lat="46.92052" lon="8.68903">
        <ele>1943</ele>
        <time>2021-08-07T07:32:35.643Z</time>
      </trkpt>
      <trkpt lat="46.92052" lon="8.68903">
        <ele>1943</ele>
        <time>2021-08-07T07:32:36.642Z</time>
      </trkpt>
      <trkpt lat="46.92051" lon="8.68903">
        <ele>1943</ele>
        <time>2021-08-07T07:32:37.643Z</time>
      </trkpt>
      <trkpt lat="46.9205" lon="8.68903">
        <ele>1943</ele>
        <time>2021-08-07T07:32:38.643Z</time>
      </trkpt>
      <trkpt lat="46.9205" lon="8.68904">
        <ele>1943</ele>
        <time>2021-08-07T07:32:39.643Z</time>
      </trkpt>
      <trkpt lat="46.9205" lon="8.68904">
        <ele>1944</ele>
        <time>2021-08-07T07:32:40.643Z</time>
      </trkpt>
      <trkpt lat="46.92049" lon="8.68904">
        <ele>1944</ele>
        <time>2021-08-07T07:32:41.642Z</time>
      </trkpt>
      <trkpt lat="46.92049" lon="8.68904">
        <ele>1944</ele>
        <time>2021-08-07T07:32:42.643Z</time>
      </trkpt>
      <trkpt lat="46.92048" lon="8.68904">
        <ele>1945</ele>
        <time>2021-08-07T07:32:43.642Z</time>
      </trkpt>
      <trkpt lat="46.92048" lon="8.68904">
        <ele>1945</ele>
        <time>2021-08-07T07:32:44.643Z</time>
      </trkpt>
      <trkpt lat="46.92048" lon="8.68904">
        <ele>1945</ele>
        <time>2021-08-07T07:32:45.643Z</time>
      </trkpt>
      <trkpt lat="46.92048" lon="8.68904">
        <ele>1946</ele>
        <time>2021-08-07T07:32:46.642Z</time>
      </trkpt>
      <trkpt lat="46.92047" lon="8.68904">
        <ele>1947</ele>
        <time>2021-08-07T07:32:47.643Z</time>
      </trkpt>
      <trkpt lat="46.92047" lon="8.68904">
        <ele>1947</ele>
        <time>2021-08-07T07:32:48.642Z</time>
      </trkpt>
      <trkpt lat="46.92046" lon="8.68903">
        <ele>1948</ele>
        <time>2021-08-07T07:32:49.643Z</time>
      </trkpt>
      <trkpt lat="46.92046" lon="8.68903">
        <ele>1948</ele>
        <time>2021-08-07T07:32:50.643Z</time>
      </trkpt>
      <trkpt lat="46.92046" lon="8.68903">
        <ele>1948</ele>
        <time>2021-08-07T07:32:51.643Z</time>
      </trkpt>
      <trkpt lat="46.92045" lon="8.68903">
        <ele>1949</ele>
        <time>2021-08-07T07:32:52.643Z</time>
      </trkpt>
      <trkpt lat="46.92045" lon="8.68903">
        <ele>1949</ele>
        <time>2021-08-07T07:32:53.643Z</time>
      </trkpt>
      <trkpt lat="46.92045" lon="8.68903">
        <ele>1950</ele>
        <time>2021-08-07T07:32:54.642Z</time>
      </trkpt>
      <trkpt lat="46.92044" lon="8.68902">
        <ele>1950</ele>
        <time>2021-08-07T07:32:55.643Z</time>
      </trkpt>
      <trkpt lat="46.92044" lon="8.68902">
        <ele>1950</ele>
        <time>2021-08-07T07:32:56.642Z</time>
      </trkpt>
      <trkpt lat="46.92043" lon="8.68902">
        <ele>1950</ele>
        <time>2021-08-07T07:32:57.642Z</time>
      </trkpt>
      <trkpt lat="46.92043" lon="8.68902">
        <ele>1951</ele>
        <time>2021-08-07T07:32:58.642Z</time>
      </trkpt>
      <trkpt lat="46.92042" lon="8.68902">
        <ele>1951</ele>
        <time>2021-08-07T07:32:59.642Z</time>
      </trkpt>
      <trkpt lat="46.92042" lon="8.68902">
        <ele>1951</ele>
        <time>2021-08-07T07:33:00.642Z</time>
      </trkpt>
      <trkpt lat="46.92041" lon="8.68902">
        <ele>1951</ele>
        <time>2021-08-07T07:33:01.642Z</time>
      </trkpt>
      <trkpt lat="46.92041" lon="8.68901">
        <ele>1951</ele>
        <time>2021-08-07T07:33:02.642Z</time>
      </trkpt>
      <trkpt lat="46.9204" lon="8.68901">
        <ele>1951</ele>
        <time>2021-08-07T07:33:03.642Z</time>
      </trkpt>
      <trkpt lat="46.9204" lon="8.68901">
        <ele>1951</ele>
        <time>2021-08-07T07:33:04.642Z</time>
      </trkpt>
      <trkpt lat="46.92039" lon="8.689">
        <ele>1952</ele>
        <time>2021-08-07T07:33:05.642Z</time>
      </trkpt>
      <trkpt lat="46.92039" lon="8.689">
        <ele>1952</ele>
        <time>2021-08-07T07:33:06.642Z</time>
      </trkpt>
      <trkpt lat="46.92038" lon="8.689">
        <ele>1952</ele>
        <time>2021-08-07T07:33:07.643Z</time>
      </trkpt>
      <trkpt lat="46.92038" lon="8.68899">
        <ele>1952</ele>
        <time>2021-08-07T07:33:08.642Z</time>
      </trkpt>
      <trkpt lat="46.92038" lon="8.68899">
        <ele>1952</ele>
        <time>2021-08-07T07:33:09.643Z</time>
      </trkpt>
      <trkpt lat="46.92037" lon="8.68899">
        <ele>1953</ele>
        <time>2021-08-07T07:33:10.642Z</time>
      </trkpt>
      <trkpt lat="46.92037" lon="8.68898">
        <ele>1953</ele>
        <time>2021-08-07T07:33:11.643Z</time>
      </trkpt>
      <trkpt lat="46.92037" lon="8.68898">
        <ele>1953</ele>
        <time>2021-08-07T07:33:12.642Z</time>
      </trkpt>
      <trkpt lat="46.92036" lon="8.68897">
        <ele>1953</ele>
        <time>2021-08-07T07:33:13.642Z</time>
      </trkpt>
      <trkpt lat="46.92036" lon="8.68897">
        <ele>1952</ele>
        <time>2021-08-07T07:33:14.642Z</time>
      </trkpt>
      <trkpt lat="46.92036" lon="8.68897">
        <ele>1952</ele>
        <time>2021-08-07T07:33:15.642Z</time>
      </trkpt>
      <trkpt lat="46.92035" lon="8.68897">
        <ele>1953</ele>
        <time>2021-08-07T07:33:16.643Z</time>
      </trkpt>
      <trkpt lat="46.92035" lon="8.68896">
        <ele>1953</ele>
        <time>2021-08-07T07:33:17.643Z</time>
      </trkpt>
      <trkpt lat="46.92034" lon="8.68896">
        <ele>1953</ele>
        <time>2021-08-07T07:33:18.642Z</time>
      </trkpt>
      <trkpt lat="46.92034" lon="8.68896">
        <ele>1953</ele>
        <time>2021-08-07T07:33:19.642Z</time>
      </trkpt>
      <trkpt lat="46.92034" lon="8.68896">
        <ele>1954</ele>
        <time>2021-08-07T07:33:20.643Z</time>
      </trkpt>
      <trkpt lat="46.92033" lon="8.68895">
        <ele>1954</ele>
        <time>2021-08-07T07:33:21.643Z</time>
      </trkpt>
      <trkpt lat="46.92032" lon="8.68894">
        <ele>1954</ele>
        <time>2021-08-07T07:33:22.642Z</time>
      </trkpt>
      <trkpt lat="46.92032" lon="8.68894">
        <ele>1954</ele>
        <time>2021-08-07T07:33:23.642Z</time>
      </trkpt>
      <trkpt lat="46.92032" lon="8.68894">
        <ele>1955</ele>
        <time>2021-08-07T07:33:24.643Z</time>
      </trkpt>
      <trkpt lat="46.92032" lon="8.68893">
        <ele>1955</ele>
        <time>2021-08-07T07:33:25.642Z</time>
      </trkpt>
      <trkpt lat="46.92032" lon="8.68893">
        <ele>1956</ele>
        <time>2021-08-07T07:33:26.643Z</time>
      </trkpt>
      <trkpt lat="46.92032" lon="8.68892">
        <ele>1956</ele>
        <time>2021-08-07T07:33:27.642Z</time>
      </trkpt>
      <trkpt lat="46.92031" lon="8.68891">
        <ele>1956</ele>
        <time>2021-08-07T07:33:28.643Z</time>
      </trkpt>
      <trkpt lat="46.9203" lon="8.6889">
        <ele>1956</ele>
        <time>2021-08-07T07:33:29.642Z</time>
      </trkpt>
      <trkpt lat="46.9203" lon="8.6889">
        <ele>1956</ele>
        <time>2021-08-07T07:33:30.642Z</time>
      </trkpt>
      <trkpt lat="46.9203" lon="8.6889">
        <ele>1956</ele>
        <time>2021-08-07T07:33:31.642Z</time>
      </trkpt>
      <trkpt lat="46.9203" lon="8.6889">
        <ele>1955</ele>
        <time>2021-08-07T07:33:32.643Z</time>
      </trkpt>
      <trkpt lat="46.9203" lon="8.6889">
        <ele>1955</ele>
        <time>2021-08-07T07:33:33.644Z</time>
      </trkpt>
      <trkpt lat="46.92029" lon="8.68889">
        <ele>1955</ele>
        <time>2021-08-07T07:33:34.643Z</time>
      </trkpt>
      <trkpt lat="46.92028" lon="8.68887">
        <ele>1955</ele>
        <time>2021-08-07T07:33:35.644Z</time>
      </trkpt>
      <trkpt lat="46.92027" lon="8.68886">
        <ele>1955</ele>
        <time>2021-08-07T07:33:36.644Z</time>
      </trkpt>
      <trkpt lat="46.92026" lon="8.68885">
        <ele>1954</ele>
        <time>2021-08-07T07:33:37.643Z</time>
      </trkpt>
      <trkpt lat="46.92025" lon="8.68884">
        <ele>1954</ele>
        <time>2021-08-07T07:33:38.644Z</time>
      </trkpt>
      <trkpt lat="46.92025" lon="8.68884">
        <ele>1954</ele>
        <time>2021-08-07T07:33:39.643Z</time>
      </trkpt>
      <trkpt lat="46.92025" lon="8.68884">
        <ele>1953</ele>
        <time>2021-08-07T07:33:40.643Z</time>
      </trkpt>
      <trkpt lat="46.92025" lon="8.68885">
        <ele>1951</ele>
        <time>2021-08-07T07:33:41.645Z</time>
      </trkpt>
      <trkpt lat="46.92024" lon="8.68884">
        <ele>1954</ele>
        <time>2021-08-07T07:33:42.646Z</time>
      </trkpt>
      <trkpt lat="46.92023" lon="8.68885">
        <ele>1954</ele>
        <time>2021-08-07T07:33:43.645Z</time>
      </trkpt>
      <trkpt lat="46.92023" lon="8.68885">
        <ele>1953</ele>
        <time>2021-08-07T07:33:44.645Z</time>
      </trkpt>
      <trkpt lat="46.92022" lon="8.68886">
        <ele>1953</ele>
        <time>2021-08-07T07:33:45.646Z</time>
      </trkpt>
      <trkpt lat="46.92022" lon="8.68887">
        <ele>1954</ele>
        <time>2021-08-07T07:33:46.646Z</time>
      </trkpt>
      <trkpt lat="46.92022" lon="8.68887">
        <ele>1954</ele>
        <time>2021-08-07T07:33:47.645Z</time>
      </trkpt>
      <trkpt lat="46.92022" lon="8.68888">
        <ele>1953</ele>
        <time>2021-08-07T07:33:48.645Z</time>
      </trkpt>
      <trkpt lat="46.92021" lon="8.68888">
        <ele>1953</ele>
        <time>2021-08-07T07:33:49.646Z</time>
      </trkpt>
      <trkpt lat="46.92021" lon="8.68887">
        <ele>1953</ele>
        <time>2021-08-07T07:33:50.646Z</time>
      </trkpt>
      <trkpt lat="46.9202" lon="8.68887">
        <ele>1953</ele>
        <time>2021-08-07T07:33:51.646Z</time>
      </trkpt>
      <trkpt lat="46.92019" lon="8.68886">
        <ele>1953</ele>
        <time>2021-08-07T07:33:52.645Z</time>
      </trkpt>
      <trkpt lat="46.92019" lon="8.68885">
        <ele>1953</ele>
        <time>2021-08-07T07:33:53.646Z</time>
      </trkpt>
      <trkpt lat="46.92019" lon="8.68885">
        <ele>1953</ele>
        <time>2021-08-07T07:33:54.645Z</time>
      </trkpt>
      <trkpt lat="46.92017" lon="8.68885">
        <ele>1953</ele>
        <time>2021-08-07T07:33:55.646Z</time>
      </trkpt>
      <trkpt lat="46.92016" lon="8.68885">
        <ele>1953</ele>
        <time>2021-08-07T07:33:56.646Z</time>
      </trkpt>
      <trkpt lat="46.92016" lon="8.68884">
        <ele>1954</ele>
        <time>2021-08-07T07:33:57.646Z</time>
      </trkpt>
      <trkpt lat="46.92015" lon="8.68884">
        <ele>1954</ele>
        <time>2021-08-07T07:33:58.646Z</time>
      </trkpt>
      <trkpt lat="46.92014" lon="8.68884">
        <ele>1955</ele>
        <time>2021-08-07T07:33:59.646Z</time>
      </trkpt>
      <trkpt lat="46.92013" lon="8.68884">
        <ele>1955</ele>
        <time>2021-08-07T07:34:00.646Z</time>
      </trkpt>
      <trkpt lat="46.92013" lon="8.68885">
        <ele>1956</ele>
        <time>2021-08-07T07:34:01.646Z</time>
      </trkpt>
      <trkpt lat="46.92012" lon="8.68885">
        <ele>1956</ele>
        <time>2021-08-07T07:34:02.645Z</time>
      </trkpt>
      <trkpt lat="46.92013" lon="8.68886">
        <ele>1956</ele>
        <time>2021-08-07T07:34:03.645Z</time>
      </trkpt>
      <trkpt lat="46.92011" lon="8.68885">
        <ele>1956</ele>
        <time>2021-08-07T07:34:04.646Z</time>
      </trkpt>
      <trkpt lat="46.9201" lon="8.68885">
        <ele>1957</ele>
        <time>2021-08-07T07:34:05.645Z</time>
      </trkpt>
      <trkpt lat="46.9201" lon="8.68885">
        <ele>1957</ele>
        <time>2021-08-07T07:34:06.646Z</time>
      </trkpt>
      <trkpt lat="46.92009" lon="8.68886">
        <ele>1957</ele>
        <time>2021-08-07T07:34:07.646Z</time>
      </trkpt>
      <trkpt lat="46.92009" lon="8.68886">
        <ele>1957</ele>
        <time>2021-08-07T07:34:08.646Z</time>
      </trkpt>
      <trkpt lat="46.92008" lon="8.68887">
        <ele>1957</ele>
        <time>2021-08-07T07:34:09.645Z</time>
      </trkpt>
      <trkpt lat="46.92008" lon="8.68887">
        <ele>1957</ele>
        <time>2021-08-07T07:34:10.646Z</time>
      </trkpt>
      <trkpt lat="46.92007" lon="8.68886">
        <ele>1958</ele>
        <time>2021-08-07T07:34:11.646Z</time>
      </trkpt>
      <trkpt lat="46.92007" lon="8.68887">
        <ele>1958</ele>
        <time>2021-08-07T07:34:12.646Z</time>
      </trkpt>
      <trkpt lat="46.92006" lon="8.68887">
        <ele>1959</ele>
        <time>2021-08-07T07:34:13.646Z</time>
      </trkpt>
      <trkpt lat="46.92005" lon="8.68887">
        <ele>1959</ele>
        <time>2021-08-07T07:34:14.646Z</time>
      </trkpt>
      <trkpt lat="46.92004" lon="8.68886">
        <ele>1959</ele>
        <time>2021-08-07T07:34:15.645Z</time>
      </trkpt>
      <trkpt lat="46.92003" lon="8.68886">
        <ele>1959</ele>
        <time>2021-08-07T07:34:16.645Z</time>
      </trkpt>
      <trkpt lat="46.92002" lon="8.68885">
        <ele>1960</ele>
        <time>2021-08-07T07:34:17.646Z</time>
      </trkpt>
      <trkpt lat="46.92001" lon="8.68884">
        <ele>1960</ele>
        <time>2021-08-07T07:34:18.645Z</time>
      </trkpt>
      <trkpt lat="46.92" lon="8.68884">
        <ele>1961</ele>
        <time>2021-08-07T07:34:19.645Z</time>
      </trkpt>
      <trkpt lat="46.91999" lon="8.68884">
        <ele>1962</ele>
        <time>2021-08-07T07:34:20.646Z</time>
      </trkpt>
      <trkpt lat="46.91998" lon="8.68884">
        <ele>1962</ele>
        <time>2021-08-07T07:34:21.646Z</time>
      </trkpt>
      <trkpt lat="46.91998" lon="8.68885">
        <ele>1963</ele>
        <time>2021-08-07T07:34:22.646Z</time>
      </trkpt>
      <trkpt lat="46.91997" lon="8.68885">
        <ele>1963</ele>
        <time>2021-08-07T07:34:23.646Z</time>
      </trkpt>
      <trkpt lat="46.91996" lon="8.68885">
        <ele>1963</ele>
        <time>2021-08-07T07:34:24.646Z</time>
      </trkpt>
      <trkpt lat="46.91996" lon="8.68886">
        <ele>1964</ele>
        <time>2021-08-07T07:34:25.646Z</time>
      </trkpt>
      <trkpt lat="46.91995" lon="8.68886">
        <ele>1964</ele>
        <time>2021-08-07T07:34:26.646Z</time>
      </trkpt>
      <trkpt lat="46.91995" lon="8.68886">
        <ele>1964</ele>
        <time>2021-08-07T07:34:27.645Z</time>
      </trkpt>
      <trkpt lat="46.91994" lon="8.68886">
        <ele>1965</ele>
        <time>2021-08-07T07:34:28.646Z</time>
      </trkpt>
      <trkpt lat="46.91993" lon="8.68886">
        <ele>1966</ele>
        <time>2021-08-07T07:34:29.645Z</time>
      </trkpt>
      <trkpt lat="46.91992" lon="8.68886">
        <ele>1966</ele>
        <time>2021-08-07T07:34:30.645Z</time>
      </trkpt>
      <trkpt lat="46.91992" lon="8.68886">
        <ele>1966</ele>
        <time>2021-08-07T07:34:31.645Z</time>
      </trkpt>
      <trkpt lat="46.91991" lon="8.68886">
        <ele>1966</ele>
        <time>2021-08-07T07:34:32.646Z</time>
      </trkpt>
      <trkpt lat="46.9199" lon="8.68886">
        <ele>1966</ele>
        <time>2021-08-07T07:34:33.646Z</time>
      </trkpt>
      <trkpt lat="46.9199" lon="8.68886">
        <ele>1966</ele>
        <time>2021-08-07T07:34:34.646Z</time>
      </trkpt>
      <trkpt lat="46.91989" lon="8.68886">
        <ele>1966</ele>
        <time>2021-08-07T07:34:35.646Z</time>
      </trkpt>
      <trkpt lat="46.91989" lon="8.68886">
        <ele>1966</ele>
        <time>2021-08-07T07:34:36.646Z</time>
      </trkpt>
      <trkpt lat="46.91988" lon="8.68886">
        <ele>1966</ele>
        <time>2021-08-07T07:34:37.646Z</time>
      </trkpt>
      <trkpt lat="46.91987" lon="8.68886">
        <ele>1966</ele>
        <time>2021-08-07T07:34:38.646Z</time>
      </trkpt>
      <trkpt lat="46.91987" lon="8.68886">
        <ele>1967</ele>
        <time>2021-08-07T07:34:39.646Z</time>
      </trkpt>
      <trkpt lat="46.91986" lon="8.68885">
        <ele>1967</ele>
        <time>2021-08-07T07:34:40.645Z</time>
      </trkpt>
      <trkpt lat="46.91985" lon="8.68884">
        <ele>1968</ele>
        <time>2021-08-07T07:34:41.646Z</time>
      </trkpt>
      <trkpt lat="46.91984" lon="8.68884">
        <ele>1968</ele>
        <time>2021-08-07T07:34:42.645Z</time>
      </trkpt>
      <trkpt lat="46.91983" lon="8.68883">
        <ele>1968</ele>
        <time>2021-08-07T07:34:43.646Z</time>
      </trkpt>
      <trkpt lat="46.91982" lon="8.68883">
        <ele>1968</ele>
        <time>2021-08-07T07:34:44.646Z</time>
      </trkpt>
      <trkpt lat="46.91981" lon="8.68883">
        <ele>1968</ele>
        <time>2021-08-07T07:34:45.645Z</time>
      </trkpt>
      <trkpt lat="46.91981" lon="8.68883">
        <ele>1968</ele>
        <time>2021-08-07T07:34:46.645Z</time>
      </trkpt>
      <trkpt lat="46.9198" lon="8.68882">
        <ele>1967</ele>
        <time>2021-08-07T07:34:47.646Z</time>
      </trkpt>
      <trkpt lat="46.91979" lon="8.68882">
        <ele>1967</ele>
        <time>2021-08-07T07:34:48.645Z</time>
      </trkpt>
      <trkpt lat="46.91978" lon="8.68882">
        <ele>1967</ele>
        <time>2021-08-07T07:34:49.646Z</time>
      </trkpt>
      <trkpt lat="46.91979" lon="8.68883">
        <ele>1966</ele>
        <time>2021-08-07T07:34:50.646Z</time>
      </trkpt>
      <trkpt lat="46.91979" lon="8.68882">
        <ele>1966</ele>
        <time>2021-08-07T07:34:51.645Z</time>
      </trkpt>
      <trkpt lat="46.91979" lon="8.68882">
        <ele>1966</ele>
        <time>2021-08-07T07:34:52.646Z</time>
      </trkpt>
      <trkpt lat="46.91978" lon="8.68882">
        <ele>1965</ele>
        <time>2021-08-07T07:34:53.645Z</time>
      </trkpt>
      <trkpt lat="46.91977" lon="8.68881">
        <ele>1965</ele>
        <time>2021-08-07T07:34:54.645Z</time>
      </trkpt>
      <trkpt lat="46.91977" lon="8.68881">
        <ele>1965</ele>
        <time>2021-08-07T07:34:55.646Z</time>
      </trkpt>
      <trkpt lat="46.91975" lon="8.6888">
        <ele>1965</ele>
        <time>2021-08-07T07:34:56.646Z</time>
      </trkpt>
      <trkpt lat="46.91974" lon="8.68879">
        <ele>1965</ele>
        <time>2021-08-07T07:34:57.646Z</time>
      </trkpt>
      <trkpt lat="46.91972" lon="8.68878">
        <ele>1965</ele>
        <time>2021-08-07T07:34:58.646Z</time>
      </trkpt>
      <trkpt lat="46.91972" lon="8.68878">
        <ele>1964</ele>
        <time>2021-08-07T07:34:59.646Z</time>
      </trkpt>
      <trkpt lat="46.91971" lon="8.68878">
        <ele>1964</ele>
        <time>2021-08-07T07:35:00.645Z</time>
      </trkpt>
      <trkpt lat="46.91971" lon="8.68877">
        <ele>1964</ele>
        <time>2021-08-07T07:35:01.645Z</time>
      </trkpt>
      <trkpt lat="46.9197" lon="8.68877">
        <ele>1963</ele>
        <time>2021-08-07T07:35:02.646Z</time>
      </trkpt>
      <trkpt lat="46.9197" lon="8.68878">
        <ele>1963</ele>
        <time>2021-08-07T07:35:03.646Z</time>
      </trkpt>
      <trkpt lat="46.91969" lon="8.68878">
        <ele>1963</ele>
        <time>2021-08-07T07:35:04.646Z</time>
      </trkpt>
      <trkpt lat="46.91968" lon="8.68879">
        <ele>1963</ele>
        <time>2021-08-07T07:35:05.645Z</time>
      </trkpt>
      <trkpt lat="46.91968" lon="8.68879">
        <ele>1963</ele>
        <time>2021-08-07T07:35:06.646Z</time>
      </trkpt>
      <trkpt lat="46.91967" lon="8.6888">
        <ele>1962</ele>
        <time>2021-08-07T07:35:07.646Z</time>
      </trkpt>
      <trkpt lat="46.91966" lon="8.68881">
        <ele>1962</ele>
        <time>2021-08-07T07:35:08.646Z</time>
      </trkpt>
      <trkpt lat="46.91966" lon="8.68882">
        <ele>1962</ele>
        <time>2021-08-07T07:35:09.646Z</time>
      </trkpt>
      <trkpt lat="46.91966" lon="8.68884">
        <ele>1962</ele>
        <time>2021-08-07T07:35:10.645Z</time>
      </trkpt>
      <trkpt lat="46.91966" lon="8.68885">
        <ele>1962</ele>
        <time>2021-08-07T07:35:11.646Z</time>
      </trkpt>
      <trkpt lat="46.91965" lon="8.68886">
        <ele>1962</ele>
        <time>2021-08-07T07:35:12.645Z</time>
      </trkpt>
      <trkpt lat="46.91965" lon="8.68886">
        <ele>1962</ele>
        <time>2021-08-07T07:35:13.645Z</time>
      </trkpt>
      <trkpt lat="46.91965" lon="8.68886">
        <ele>1962</ele>
        <time>2021-08-07T07:35:14.646Z</time>
      </trkpt>
      <trkpt lat="46.91964" lon="8.68886">
        <ele>1962</ele>
        <time>2021-08-07T07:35:15.645Z</time>
      </trkpt>
      <trkpt lat="46.91962" lon="8.68886">
        <ele>1965</ele>
        <time>2021-08-07T07:35:16.646Z</time>
      </trkpt>
      <trkpt lat="46.91962" lon="8.68888">
        <ele>1966</ele>
        <time>2021-08-07T07:35:17.646Z</time>
      </trkpt>
      <trkpt lat="46.91961" lon="8.68888">
        <ele>1966</ele>
        <time>2021-08-07T07:35:18.645Z</time>
      </trkpt>
      <trkpt lat="46.91961" lon="8.68888">
        <ele>1966</ele>
        <time>2021-08-07T07:35:19.646Z</time>
      </trkpt>
      <trkpt lat="46.9196" lon="8.68888">
        <ele>1966</ele>
        <time>2021-08-07T07:35:20.646Z</time>
      </trkpt>
      <trkpt lat="46.91959" lon="8.68888">
        <ele>1965</ele>
        <time>2021-08-07T07:35:21.645Z</time>
      </trkpt>
      <trkpt lat="46.91958" lon="8.68889">
        <ele>1965</ele>
        <time>2021-08-07T07:35:22.645Z</time>
      </trkpt>
      <trkpt lat="46.91957" lon="8.6889">
        <ele>1965</ele>
        <time>2021-08-07T07:35:23.645Z</time>
      </trkpt>
      <trkpt lat="46.91956" lon="8.6889">
        <ele>1965</ele>
        <time>2021-08-07T07:35:24.646Z</time>
      </trkpt>
      <trkpt lat="46.91955" lon="8.6889">
        <ele>1965</ele>
        <time>2021-08-07T07:35:25.646Z</time>
      </trkpt>
      <trkpt lat="46.91955" lon="8.68891">
        <ele>1965</ele>
        <time>2021-08-07T07:35:26.645Z</time>
      </trkpt>
      <trkpt lat="46.91954" lon="8.68892">
        <ele>1966</ele>
        <time>2021-08-07T07:35:27.646Z</time>
      </trkpt>
      <trkpt lat="46.91954" lon="8.68892">
        <ele>1966</ele>
        <time>2021-08-07T07:35:28.646Z</time>
      </trkpt>
      <trkpt lat="46.91953" lon="8.68892">
        <ele>1966</ele>
        <time>2021-08-07T07:35:29.646Z</time>
      </trkpt>
      <trkpt lat="46.91952" lon="8.68892">
        <ele>1967</ele>
        <time>2021-08-07T07:35:30.646Z</time>
      </trkpt>
      <trkpt lat="46.91952" lon="8.68892">
        <ele>1968</ele>
        <time>2021-08-07T07:35:31.645Z</time>
      </trkpt>
      <trkpt lat="46.91952" lon="8.68892">
        <ele>1968</ele>
        <time>2021-08-07T07:35:32.645Z</time>
      </trkpt>
      <trkpt lat="46.91951" lon="8.68892">
        <ele>1969</ele>
        <time>2021-08-07T07:35:33.645Z</time>
      </trkpt>
      <trkpt lat="46.9195" lon="8.68892">
        <ele>1969</ele>
        <time>2021-08-07T07:35:34.646Z</time>
      </trkpt>
      <trkpt lat="46.9195" lon="8.68892">
        <ele>1969</ele>
        <time>2021-08-07T07:35:35.646Z</time>
      </trkpt>
      <trkpt lat="46.91949" lon="8.68892">
        <ele>1969</ele>
        <time>2021-08-07T07:35:36.646Z</time>
      </trkpt>
      <trkpt lat="46.91948" lon="8.68892">
        <ele>1970</ele>
        <time>2021-08-07T07:35:37.645Z</time>
      </trkpt>
      <trkpt lat="46.91947" lon="8.68892">
        <ele>1971</ele>
        <time>2021-08-07T07:35:38.646Z</time>
      </trkpt>
      <trkpt lat="46.91946" lon="8.68892">
        <ele>1971</ele>
        <time>2021-08-07T07:35:39.646Z</time>
      </trkpt>
      <trkpt lat="46.91945" lon="8.68892">
        <ele>1972</ele>
        <time>2021-08-07T07:35:40.646Z</time>
      </trkpt>
      <trkpt lat="46.91944" lon="8.68892">
        <ele>1972</ele>
        <time>2021-08-07T07:35:41.646Z</time>
      </trkpt>
      <trkpt lat="46.91943" lon="8.68893">
        <ele>1972</ele>
        <time>2021-08-07T07:35:42.646Z</time>
      </trkpt>
      <trkpt lat="46.91943" lon="8.68894">
        <ele>1973</ele>
        <time>2021-08-07T07:35:43.646Z</time>
      </trkpt>
      <trkpt lat="46.91942" lon="8.68893">
        <ele>1973</ele>
        <time>2021-08-07T07:35:44.645Z</time>
      </trkpt>
      <trkpt lat="46.91943" lon="8.68894">
        <ele>1973</ele>
        <time>2021-08-07T07:35:45.645Z</time>
      </trkpt>
      <trkpt lat="46.91942" lon="8.68894">
        <ele>1973</ele>
        <time>2021-08-07T07:35:46.646Z</time>
      </trkpt>
      <trkpt lat="46.91941" lon="8.68894">
        <ele>1974</ele>
        <time>2021-08-07T07:35:47.646Z</time>
      </trkpt>
      <trkpt lat="46.9194" lon="8.68894">
        <ele>1974</ele>
        <time>2021-08-07T07:35:48.645Z</time>
      </trkpt>
      <trkpt lat="46.9194" lon="8.68894">
        <ele>1974</ele>
        <time>2021-08-07T07:35:49.646Z</time>
      </trkpt>
      <trkpt lat="46.9194" lon="8.68894">
        <ele>1973</ele>
        <time>2021-08-07T07:35:50.646Z</time>
      </trkpt>
      <trkpt lat="46.91936" lon="8.6889">
        <ele>1970</ele>
        <time>2021-08-07T07:35:51.647Z</time>
      </trkpt>
      <trkpt lat="46.91935" lon="8.68889">
        <ele>1970</ele>
        <time>2021-08-07T07:35:52.647Z</time>
      </trkpt>
      <trkpt lat="46.91935" lon="8.68888">
        <ele>1970</ele>
        <time>2021-08-07T07:35:53.646Z</time>
      </trkpt>
      <trkpt lat="46.91935" lon="8.68887">
        <ele>1970</ele>
        <time>2021-08-07T07:35:54.646Z</time>
      </trkpt>
      <trkpt lat="46.91934" lon="8.68886">
        <ele>1971</ele>
        <time>2021-08-07T07:35:55.647Z</time>
      </trkpt>
      <trkpt lat="46.91935" lon="8.68886">
        <ele>1971</ele>
        <time>2021-08-07T07:35:56.647Z</time>
      </trkpt>
      <trkpt lat="46.91935" lon="8.68885">
        <ele>1971</ele>
        <time>2021-08-07T07:35:57.647Z</time>
      </trkpt>
      <trkpt lat="46.91935" lon="8.68884">
        <ele>1971</ele>
        <time>2021-08-07T07:35:58.647Z</time>
      </trkpt>
      <trkpt lat="46.91935" lon="8.68883">
        <ele>1971</ele>
        <time>2021-08-07T07:35:59.647Z</time>
      </trkpt>
      <trkpt lat="46.91936" lon="8.68882">
        <ele>1971</ele>
        <time>2021-08-07T07:36:00.647Z</time>
      </trkpt>
      <trkpt lat="46.91937" lon="8.68882">
        <ele>1971</ele>
        <time>2021-08-07T07:36:01.647Z</time>
      </trkpt>
      <trkpt lat="46.91937" lon="8.68881">
        <ele>1972</ele>
        <time>2021-08-07T07:36:02.647Z</time>
      </trkpt>
      <trkpt lat="46.91937" lon="8.68879">
        <ele>1972</ele>
        <time>2021-08-07T07:36:03.647Z</time>
      </trkpt>
      <trkpt lat="46.91937" lon="8.68878">
        <ele>1972</ele>
        <time>2021-08-07T07:36:04.646Z</time>
      </trkpt>
      <trkpt lat="46.91937" lon="8.68877">
        <ele>1972</ele>
        <time>2021-08-07T07:36:05.646Z</time>
      </trkpt>
      <trkpt lat="46.91937" lon="8.68876">
        <ele>1973</ele>
        <time>2021-08-07T07:36:06.646Z</time>
      </trkpt>
      <trkpt lat="46.91937" lon="8.68875">
        <ele>1973</ele>
        <time>2021-08-07T07:36:07.647Z</time>
      </trkpt>
      <trkpt lat="46.91937" lon="8.68875">
        <ele>1973</ele>
        <time>2021-08-07T07:36:08.647Z</time>
      </trkpt>
      <trkpt lat="46.91937" lon="8.68875">
        <ele>1973</ele>
        <time>2021-08-07T07:36:09.647Z</time>
      </trkpt>
      <trkpt lat="46.91937" lon="8.68875">
        <ele>1974</ele>
        <time>2021-08-07T07:36:10.646Z</time>
      </trkpt>
      <trkpt lat="46.91936" lon="8.68876">
        <ele>1975</ele>
        <time>2021-08-07T07:36:11.647Z</time>
      </trkpt>
      <trkpt lat="46.91936" lon="8.68877">
        <ele>1976</ele>
        <time>2021-08-07T07:36:12.647Z</time>
      </trkpt>
      <trkpt lat="46.91935" lon="8.68878">
        <ele>1977</ele>
        <time>2021-08-07T07:36:13.647Z</time>
      </trkpt>
      <trkpt lat="46.91935" lon="8.6888">
        <ele>1978</ele>
        <time>2021-08-07T07:36:14.646Z</time>
      </trkpt>
      <trkpt lat="46.91935" lon="8.68881">
        <ele>1979</ele>
        <time>2021-08-07T07:36:15.647Z</time>
      </trkpt>
      <trkpt lat="46.91935" lon="8.68881">
        <ele>1980</ele>
        <time>2021-08-07T07:36:16.646Z</time>
      </trkpt>
      <trkpt lat="46.91937" lon="8.68879">
        <ele>1978</ele>
        <time>2021-08-07T07:36:17.646Z</time>
      </trkpt>
      <trkpt lat="46.91937" lon="8.6888">
        <ele>1977</ele>
        <time>2021-08-07T07:36:18.647Z</time>
      </trkpt>
      <trkpt lat="46.91938" lon="8.68881">
        <ele>1977</ele>
        <time>2021-08-07T07:36:19.647Z</time>
      </trkpt>
      <trkpt lat="46.91938" lon="8.68883">
        <ele>1976</ele>
        <time>2021-08-07T07:36:20.647Z</time>
      </trkpt>
      <trkpt lat="46.91938" lon="8.68885">
        <ele>1976</ele>
        <time>2021-08-07T07:36:21.647Z</time>
      </trkpt>
      <trkpt lat="46.91938" lon="8.68887">
        <ele>1976</ele>
        <time>2021-08-07T07:36:22.647Z</time>
      </trkpt>
      <trkpt lat="46.91938" lon="8.68888">
        <ele>1975</ele>
        <time>2021-08-07T07:36:23.647Z</time>
      </trkpt>
      <trkpt lat="46.91938" lon="8.68889">
        <ele>1975</ele>
        <time>2021-08-07T07:36:24.647Z</time>
      </trkpt>
      <trkpt lat="46.91938" lon="8.68891">
        <ele>1976</ele>
        <time>2021-08-07T07:36:25.647Z</time>
      </trkpt>
      <trkpt lat="46.91938" lon="8.68892">
        <ele>1975</ele>
        <time>2021-08-07T07:36:26.647Z</time>
      </trkpt>
      <trkpt lat="46.91938" lon="8.68893">
        <ele>1975</ele>
        <time>2021-08-07T07:36:27.647Z</time>
      </trkpt>
      <trkpt lat="46.91937" lon="8.68894">
        <ele>1975</ele>
        <time>2021-08-07T07:36:28.647Z</time>
      </trkpt>
      <trkpt lat="46.91937" lon="8.68895">
        <ele>1975</ele>
        <time>2021-08-07T07:36:29.647Z</time>
      </trkpt>
      <trkpt lat="46.91938" lon="8.68896">
        <ele>1975</ele>
        <time>2021-08-07T07:36:30.647Z</time>
      </trkpt>
      <trkpt lat="46.91938" lon="8.68896">
        <ele>1974</ele>
        <time>2021-08-07T07:36:31.646Z</time>
      </trkpt>
      <trkpt lat="46.91939" lon="8.68897">
        <ele>1974</ele>
        <time>2021-08-07T07:36:32.646Z</time>
      </trkpt>
      <trkpt lat="46.91939" lon="8.68897">
        <ele>1974</ele>
        <time>2021-08-07T07:36:33.646Z</time>
      </trkpt>
      <trkpt lat="46.9194" lon="8.68897">
        <ele>1973</ele>
        <time>2021-08-07T07:36:34.646Z</time>
      </trkpt>
      <trkpt lat="46.9194" lon="8.68898">
        <ele>1973</ele>
        <time>2021-08-07T07:36:35.646Z</time>
      </trkpt>
      <trkpt lat="46.91939" lon="8.68893">
        <ele>1969</ele>
        <time>2021-08-07T07:36:36.648Z</time>
      </trkpt>
      <trkpt lat="46.9194" lon="8.68893">
        <ele>1968</ele>
        <time>2021-08-07T07:36:37.648Z</time>
      </trkpt>
      <trkpt lat="46.9194" lon="8.68892">
        <ele>1968</ele>
        <time>2021-08-07T07:36:38.648Z</time>
      </trkpt>
      <trkpt lat="46.9194" lon="8.68892">
        <ele>1968</ele>
        <time>2021-08-07T07:36:39.648Z</time>
      </trkpt>
      <trkpt lat="46.9194" lon="8.68891">
        <ele>1967</ele>
        <time>2021-08-07T07:36:40.647Z</time>
      </trkpt>
      <trkpt lat="46.9194" lon="8.6889">
        <ele>1967</ele>
        <time>2021-08-07T07:36:41.648Z</time>
      </trkpt>
      <trkpt lat="46.9194" lon="8.68888">
        <ele>1967</ele>
        <time>2021-08-07T07:36:42.647Z</time>
      </trkpt>
      <trkpt lat="46.9194" lon="8.68887">
        <ele>1966</ele>
        <time>2021-08-07T07:36:43.647Z</time>
      </trkpt>
      <trkpt lat="46.9194" lon="8.68885">
        <ele>1967</ele>
        <time>2021-08-07T07:36:44.647Z</time>
      </trkpt>
      <trkpt lat="46.91939" lon="8.68884">
        <ele>1967</ele>
        <time>2021-08-07T07:36:45.648Z</time>
      </trkpt>
      <trkpt lat="46.91939" lon="8.68882">
        <ele>1968</ele>
        <time>2021-08-07T07:36:46.647Z</time>
      </trkpt>
      <trkpt lat="46.91939" lon="8.68881">
        <ele>1969</ele>
        <time>2021-08-07T07:36:47.648Z</time>
      </trkpt>
      <trkpt lat="46.91939" lon="8.68879">
        <ele>1969</ele>
        <time>2021-08-07T07:36:48.647Z</time>
      </trkpt>
      <trkpt lat="46.91939" lon="8.68877">
        <ele>1970</ele>
        <time>2021-08-07T07:36:49.647Z</time>
      </trkpt>
      <trkpt lat="46.91939" lon="8.68876">
        <ele>1971</ele>
        <time>2021-08-07T07:36:50.648Z</time>
      </trkpt>
      <trkpt lat="46.9194" lon="8.68874">
        <ele>1972</ele>
        <time>2021-08-07T07:36:51.648Z</time>
      </trkpt>
      <trkpt lat="46.9194" lon="8.68872">
        <ele>1973</ele>
        <time>2021-08-07T07:36:52.648Z</time>
      </trkpt>
      <trkpt lat="46.9194" lon="8.68871">
        <ele>1974</ele>
        <time>2021-08-07T07:36:53.648Z</time>
      </trkpt>
      <trkpt lat="46.9194" lon="8.6887">
        <ele>1974</ele>
        <time>2021-08-07T07:36:54.647Z</time>
      </trkpt>
      <trkpt lat="46.91939" lon="8.68868">
        <ele>1975</ele>
        <time>2021-08-07T07:36:55.648Z</time>
      </trkpt>
      <trkpt lat="46.91939" lon="8.68868">
        <ele>1976</ele>
        <time>2021-08-07T07:36:56.648Z</time>
      </trkpt>
      <trkpt lat="46.9194" lon="8.68866">
        <ele>1976</ele>
        <time>2021-08-07T07:36:57.647Z</time>
      </trkpt>
      <trkpt lat="46.9194" lon="8.68864">
        <ele>1976</ele>
        <time>2021-08-07T07:36:58.647Z</time>
      </trkpt>
      <trkpt lat="46.9194" lon="8.68864">
        <ele>1976</ele>
        <time>2021-08-07T07:36:59.648Z</time>
      </trkpt>
      <trkpt lat="46.91941" lon="8.68863">
        <ele>1976</ele>
        <time>2021-08-07T07:37:00.648Z</time>
      </trkpt>
      <trkpt lat="46.91941" lon="8.68861">
        <ele>1976</ele>
        <time>2021-08-07T07:37:01.648Z</time>
      </trkpt>
      <trkpt lat="46.91941" lon="8.6886">
        <ele>1977</ele>
        <time>2021-08-07T07:37:02.647Z</time>
      </trkpt>
      <trkpt lat="46.91942" lon="8.68859">
        <ele>1977</ele>
        <time>2021-08-07T07:37:03.648Z</time>
      </trkpt>
      <trkpt lat="46.91942" lon="8.68858">
        <ele>1978</ele>
        <time>2021-08-07T07:37:04.648Z</time>
      </trkpt>
      <trkpt lat="46.91942" lon="8.68857">
        <ele>1978</ele>
        <time>2021-08-07T07:37:05.648Z</time>
      </trkpt>
      <trkpt lat="46.91942" lon="8.68855">
        <ele>1978</ele>
        <time>2021-08-07T07:37:06.648Z</time>
      </trkpt>
      <trkpt lat="46.91943" lon="8.68854">
        <ele>1978</ele>
        <time>2021-08-07T07:37:07.648Z</time>
      </trkpt>
      <trkpt lat="46.91943" lon="8.68853">
        <ele>1978</ele>
        <time>2021-08-07T07:37:08.647Z</time>
      </trkpt>
      <trkpt lat="46.91943" lon="8.68851">
        <ele>1978</ele>
        <time>2021-08-07T07:37:09.647Z</time>
      </trkpt>
      <trkpt lat="46.91943" lon="8.6885">
        <ele>1978</ele>
        <time>2021-08-07T07:37:10.648Z</time>
      </trkpt>
      <trkpt lat="46.91944" lon="8.68849">
        <ele>1979</ele>
        <time>2021-08-07T07:37:11.648Z</time>
      </trkpt>
      <trkpt lat="46.91945" lon="8.68848">
        <ele>1979</ele>
        <time>2021-08-07T07:37:12.648Z</time>
      </trkpt>
      <trkpt lat="46.91945" lon="8.68847">
        <ele>1979</ele>
        <time>2021-08-07T07:37:13.648Z</time>
      </trkpt>
      <trkpt lat="46.91946" lon="8.68846">
        <ele>1979</ele>
        <time>2021-08-07T07:37:14.647Z</time>
      </trkpt>
      <trkpt lat="46.91947" lon="8.68844">
        <ele>1979</ele>
        <time>2021-08-07T07:37:15.648Z</time>
      </trkpt>
      <trkpt lat="46.91947" lon="8.68843">
        <ele>1978</ele>
        <time>2021-08-07T07:37:16.648Z</time>
      </trkpt>
      <trkpt lat="46.91948" lon="8.68842">
        <ele>1978</ele>
        <time>2021-08-07T07:37:17.648Z</time>
      </trkpt>
      <trkpt lat="46.91949" lon="8.68841">
        <ele>1978</ele>
        <time>2021-08-07T07:37:18.648Z</time>
      </trkpt>
      <trkpt lat="46.9195" lon="8.68841">
        <ele>1978</ele>
        <time>2021-08-07T07:37:19.647Z</time>
      </trkpt>
      <trkpt lat="46.9195" lon="8.6884">
        <ele>1978</ele>
        <time>2021-08-07T07:37:20.648Z</time>
      </trkpt>
      <trkpt lat="46.91951" lon="8.68839">
        <ele>1979</ele>
        <time>2021-08-07T07:37:21.648Z</time>
      </trkpt>
      <trkpt lat="46.91952" lon="8.68839">
        <ele>1979</ele>
        <time>2021-08-07T07:37:22.647Z</time>
      </trkpt>
      <trkpt lat="46.91952" lon="8.68838">
        <ele>1978</ele>
        <time>2021-08-07T07:37:23.647Z</time>
      </trkpt>
      <trkpt lat="46.91953" lon="8.68838">
        <ele>1978</ele>
        <time>2021-08-07T07:37:24.648Z</time>
      </trkpt>
      <trkpt lat="46.91954" lon="8.68837">
        <ele>1977</ele>
        <time>2021-08-07T07:37:25.648Z</time>
      </trkpt>
      <trkpt lat="46.91955" lon="8.68837">
        <ele>1977</ele>
        <time>2021-08-07T07:37:26.648Z</time>
      </trkpt>
      <trkpt lat="46.91955" lon="8.68836">
        <ele>1977</ele>
        <time>2021-08-07T07:37:27.648Z</time>
      </trkpt>
      <trkpt lat="46.91956" lon="8.68835">
        <ele>1977</ele>
        <time>2021-08-07T07:37:28.647Z</time>
      </trkpt>
      <trkpt lat="46.91957" lon="8.68834">
        <ele>1977</ele>
        <time>2021-08-07T07:37:29.647Z</time>
      </trkpt>
      <trkpt lat="46.91958" lon="8.68834">
        <ele>1977</ele>
        <time>2021-08-07T07:37:30.648Z</time>
      </trkpt>
      <trkpt lat="46.91958" lon="8.68834">
        <ele>1978</ele>
        <time>2021-08-07T07:37:31.647Z</time>
      </trkpt>
      <trkpt lat="46.91959" lon="8.68833">
        <ele>1978</ele>
        <time>2021-08-07T07:37:32.648Z</time>
      </trkpt>
      <trkpt lat="46.9196" lon="8.68832">
        <ele>1978</ele>
        <time>2021-08-07T07:37:33.648Z</time>
      </trkpt>
      <trkpt lat="46.9196" lon="8.68831">
        <ele>1977</ele>
        <time>2021-08-07T07:37:34.648Z</time>
      </trkpt>
      <trkpt lat="46.91961" lon="8.6883">
        <ele>1977</ele>
        <time>2021-08-07T07:37:35.648Z</time>
      </trkpt>
      <trkpt lat="46.91961" lon="8.68829">
        <ele>1977</ele>
        <time>2021-08-07T07:37:36.648Z</time>
      </trkpt>
      <trkpt lat="46.91962" lon="8.68827">
        <ele>1977</ele>
        <time>2021-08-07T07:37:37.647Z</time>
      </trkpt>
      <trkpt lat="46.91962" lon="8.68826">
        <ele>1976</ele>
        <time>2021-08-07T07:37:38.648Z</time>
      </trkpt>
      <trkpt lat="46.91963" lon="8.68825">
        <ele>1976</ele>
        <time>2021-08-07T07:37:39.648Z</time>
      </trkpt>
      <trkpt lat="46.91963" lon="8.68823">
        <ele>1976</ele>
        <time>2021-08-07T07:37:40.647Z</time>
      </trkpt>
      <trkpt lat="46.91963" lon="8.68822">
        <ele>1976</ele>
        <time>2021-08-07T07:37:41.648Z</time>
      </trkpt>
      <trkpt lat="46.91962" lon="8.68821">
        <ele>1976</ele>
        <time>2021-08-07T07:37:42.647Z</time>
      </trkpt>
      <trkpt lat="46.91962" lon="8.68819">
        <ele>1977</ele>
        <time>2021-08-07T07:37:43.648Z</time>
      </trkpt>
      <trkpt lat="46.91962" lon="8.68817">
        <ele>1977</ele>
        <time>2021-08-07T07:37:44.648Z</time>
      </trkpt>
      <trkpt lat="46.91962" lon="8.68816">
        <ele>1977</ele>
        <time>2021-08-07T07:37:45.648Z</time>
      </trkpt>
      <trkpt lat="46.91962" lon="8.68815">
        <ele>1977</ele>
        <time>2021-08-07T07:37:46.648Z</time>
      </trkpt>
      <trkpt lat="46.91962" lon="8.68814">
        <ele>1977</ele>
        <time>2021-08-07T07:37:47.647Z</time>
      </trkpt>
      <trkpt lat="46.91962" lon="8.68812">
        <ele>1977</ele>
        <time>2021-08-07T07:37:48.648Z</time>
      </trkpt>
      <trkpt lat="46.91962" lon="8.68811">
        <ele>1977</ele>
        <time>2021-08-07T07:37:49.648Z</time>
      </trkpt>
      <trkpt lat="46.91962" lon="8.6881">
        <ele>1977</ele>
        <time>2021-08-07T07:37:50.648Z</time>
      </trkpt>
      <trkpt lat="46.91962" lon="8.68809">
        <ele>1976</ele>
        <time>2021-08-07T07:37:51.648Z</time>
      </trkpt>
      <trkpt lat="46.91963" lon="8.68808">
        <ele>1977</ele>
        <time>2021-08-07T07:37:52.648Z</time>
      </trkpt>
      <trkpt lat="46.91963" lon="8.68806">
        <ele>1977</ele>
        <time>2021-08-07T07:37:53.648Z</time>
      </trkpt>
      <trkpt lat="46.91963" lon="8.68805">
        <ele>1978</ele>
        <time>2021-08-07T07:37:54.647Z</time>
      </trkpt>
      <trkpt lat="46.91964" lon="8.68804">
        <ele>1978</ele>
        <time>2021-08-07T07:37:55.647Z</time>
      </trkpt>
      <trkpt lat="46.91964" lon="8.68803">
        <ele>1979</ele>
        <time>2021-08-07T07:37:56.647Z</time>
      </trkpt>
      <trkpt lat="46.91966" lon="8.68801">
        <ele>1979</ele>
        <time>2021-08-07T07:37:57.647Z</time>
      </trkpt>
      <trkpt lat="46.91967" lon="8.688">
        <ele>1979</ele>
        <time>2021-08-07T07:37:58.648Z</time>
      </trkpt>
      <trkpt lat="46.91967" lon="8.68798">
        <ele>1979</ele>
        <time>2021-08-07T07:37:59.647Z</time>
      </trkpt>
      <trkpt lat="46.91968" lon="8.68796">
        <ele>1978</ele>
        <time>2021-08-07T07:38:00.648Z</time>
      </trkpt>
      <trkpt lat="46.91968" lon="8.68794">
        <ele>1979</ele>
        <time>2021-08-07T07:38:01.647Z</time>
      </trkpt>
      <trkpt lat="46.91969" lon="8.68792">
        <ele>1979</ele>
        <time>2021-08-07T07:38:02.648Z</time>
      </trkpt>
      <trkpt lat="46.91969" lon="8.68791">
        <ele>1979</ele>
        <time>2021-08-07T07:38:03.647Z</time>
      </trkpt>
      <trkpt lat="46.9197" lon="8.68789">
        <ele>1980</ele>
        <time>2021-08-07T07:38:04.647Z</time>
      </trkpt>
      <trkpt lat="46.9197" lon="8.68787">
        <ele>1980</ele>
        <time>2021-08-07T07:38:05.647Z</time>
      </trkpt>
      <trkpt lat="46.91969" lon="8.68786">
        <ele>1981</ele>
        <time>2021-08-07T07:38:06.647Z</time>
      </trkpt>
      <trkpt lat="46.91969" lon="8.68784">
        <ele>1981</ele>
        <time>2021-08-07T07:38:07.647Z</time>
      </trkpt>
      <trkpt lat="46.91968" lon="8.68782">
        <ele>1982</ele>
        <time>2021-08-07T07:38:08.647Z</time>
      </trkpt>
      <trkpt lat="46.91967" lon="8.6878">
        <ele>1983</ele>
        <time>2021-08-07T07:38:09.647Z</time>
      </trkpt>
      <trkpt lat="46.91966" lon="8.68779">
        <ele>1983</ele>
        <time>2021-08-07T07:38:10.647Z</time>
      </trkpt>
      <trkpt lat="46.91966" lon="8.68778">
        <ele>1984</ele>
        <time>2021-08-07T07:38:11.647Z</time>
      </trkpt>
      <trkpt lat="46.91965" lon="8.68777">
        <ele>1984</ele>
        <time>2021-08-07T07:38:12.647Z</time>
      </trkpt>
      <trkpt lat="46.91965" lon="8.68775">
        <ele>1984</ele>
        <time>2021-08-07T07:38:13.647Z</time>
      </trkpt>
      <trkpt lat="46.91966" lon="8.68774">
        <ele>1984</ele>
        <time>2021-08-07T07:38:14.647Z</time>
      </trkpt>
      <trkpt lat="46.91966" lon="8.68773">
        <ele>1984</ele>
        <time>2021-08-07T07:38:15.647Z</time>
      </trkpt>
      <trkpt lat="46.91968" lon="8.68771">
        <ele>1983</ele>
        <time>2021-08-07T07:38:16.647Z</time>
      </trkpt>
      <trkpt lat="46.91969" lon="8.68771">
        <ele>1983</ele>
        <time>2021-08-07T07:38:17.647Z</time>
      </trkpt>
      <trkpt lat="46.9197" lon="8.68771">
        <ele>1982</ele>
        <time>2021-08-07T07:38:18.647Z</time>
      </trkpt>
      <trkpt lat="46.91971" lon="8.68771">
        <ele>1982</ele>
        <time>2021-08-07T07:38:19.647Z</time>
      </trkpt>
      <trkpt lat="46.91972" lon="8.6877">
        <ele>1981</ele>
        <time>2021-08-07T07:38:20.648Z</time>
      </trkpt>
      <trkpt lat="46.91973" lon="8.68769">
        <ele>1980</ele>
        <time>2021-08-07T07:38:21.648Z</time>
      </trkpt>
      <trkpt lat="46.91974" lon="8.68768">
        <ele>1980</ele>
        <time>2021-08-07T07:38:22.647Z</time>
      </trkpt>
      <trkpt lat="46.91975" lon="8.68767">
        <ele>1980</ele>
        <time>2021-08-07T07:38:23.648Z</time>
      </trkpt>
      <trkpt lat="46.91976" lon="8.68766">
        <ele>1980</ele>
        <time>2021-08-07T07:38:24.648Z</time>
      </trkpt>
      <trkpt lat="46.91977" lon="8.68765">
        <ele>1980</ele>
        <time>2021-08-07T07:38:25.648Z</time>
      </trkpt>
      <trkpt lat="46.91978" lon="8.68764">
        <ele>1980</ele>
        <time>2021-08-07T07:38:26.647Z</time>
      </trkpt>
      <trkpt lat="46.91979" lon="8.68763">
        <ele>1979</ele>
        <time>2021-08-07T07:38:27.648Z</time>
      </trkpt>
      <trkpt lat="46.9198" lon="8.68763">
        <ele>1979</ele>
        <time>2021-08-07T07:38:28.648Z</time>
      </trkpt>
      <trkpt lat="46.91981" lon="8.68762">
        <ele>1978</ele>
        <time>2021-08-07T07:38:29.648Z</time>
      </trkpt>
      <trkpt lat="46.91981" lon="8.68762">
        <ele>1978</ele>
        <time>2021-08-07T07:38:30.647Z</time>
      </trkpt>
      <trkpt lat="46.91982" lon="8.68761">
        <ele>1978</ele>
        <time>2021-08-07T07:38:31.648Z</time>
      </trkpt>
      <trkpt lat="46.91983" lon="8.68761">
        <ele>1979</ele>
        <time>2021-08-07T07:38:32.648Z</time>
      </trkpt>
      <trkpt lat="46.91984" lon="8.6876">
        <ele>1979</ele>
        <time>2021-08-07T07:38:33.648Z</time>
      </trkpt>
      <trkpt lat="46.91985" lon="8.68759">
        <ele>1980</ele>
        <time>2021-08-07T07:38:34.648Z</time>
      </trkpt>
      <trkpt lat="46.91986" lon="8.68759">
        <ele>1980</ele>
        <time>2021-08-07T07:38:35.648Z</time>
      </trkpt>
      <trkpt lat="46.91986" lon="8.68758">
        <ele>1981</ele>
        <time>2021-08-07T07:38:36.648Z</time>
      </trkpt>
      <trkpt lat="46.91987" lon="8.68757">
        <ele>1981</ele>
        <time>2021-08-07T07:38:37.647Z</time>
      </trkpt>
      <trkpt lat="46.91988" lon="8.68757">
        <ele>1981</ele>
        <time>2021-08-07T07:38:38.648Z</time>
      </trkpt>
      <trkpt lat="46.91989" lon="8.68757">
        <ele>1982</ele>
        <time>2021-08-07T07:38:39.647Z</time>
      </trkpt>
      <trkpt lat="46.9199" lon="8.68757">
        <ele>1982</ele>
        <time>2021-08-07T07:38:40.648Z</time>
      </trkpt>
      <trkpt lat="46.91991" lon="8.68757">
        <ele>1982</ele>
        <time>2021-08-07T07:38:41.647Z</time>
      </trkpt>
      <trkpt lat="46.91992" lon="8.68757">
        <ele>1982</ele>
        <time>2021-08-07T07:38:42.648Z</time>
      </trkpt>
      <trkpt lat="46.91993" lon="8.68757">
        <ele>1982</ele>
        <time>2021-08-07T07:38:43.648Z</time>
      </trkpt>
      <trkpt lat="46.91994" lon="8.68756">
        <ele>1982</ele>
        <time>2021-08-07T07:38:44.647Z</time>
      </trkpt>
      <trkpt lat="46.91994" lon="8.68755">
        <ele>1982</ele>
        <time>2021-08-07T07:38:45.648Z</time>
      </trkpt>
      <trkpt lat="46.91994" lon="8.68754">
        <ele>1982</ele>
        <time>2021-08-07T07:38:46.647Z</time>
      </trkpt>
      <trkpt lat="46.91994" lon="8.68753">
        <ele>1982</ele>
        <time>2021-08-07T07:38:47.648Z</time>
      </trkpt>
      <trkpt lat="46.91994" lon="8.68753">
        <ele>1982</ele>
        <time>2021-08-07T07:38:48.648Z</time>
      </trkpt>
      <trkpt lat="46.91995" lon="8.68752">
        <ele>1982</ele>
        <time>2021-08-07T07:38:49.647Z</time>
      </trkpt>
      <trkpt lat="46.91995" lon="8.68751">
        <ele>1981</ele>
        <time>2021-08-07T07:38:50.648Z</time>
      </trkpt>
      <trkpt lat="46.91995" lon="8.68751">
        <ele>1982</ele>
        <time>2021-08-07T07:38:51.648Z</time>
      </trkpt>
      <trkpt lat="46.91996" lon="8.68751">
        <ele>1982</ele>
        <time>2021-08-07T07:38:52.648Z</time>
      </trkpt>
      <trkpt lat="46.91996" lon="8.68751">
        <ele>1982</ele>
        <time>2021-08-07T07:38:53.647Z</time>
      </trkpt>
      <trkpt lat="46.91997" lon="8.68751">
        <ele>1983</ele>
        <time>2021-08-07T07:38:54.647Z</time>
      </trkpt>
      <trkpt lat="46.91998" lon="8.6875">
        <ele>1982</ele>
        <time>2021-08-07T07:38:55.648Z</time>
      </trkpt>
      <trkpt lat="46.91998" lon="8.6875">
        <ele>1982</ele>
        <time>2021-08-07T07:38:56.647Z</time>
      </trkpt>
      <trkpt lat="46.91998" lon="8.68749">
        <ele>1982</ele>
        <time>2021-08-07T07:38:57.648Z</time>
      </trkpt>
      <trkpt lat="46.91999" lon="8.68748">
        <ele>1981</ele>
        <time>2021-08-07T07:38:58.648Z</time>
      </trkpt>
      <trkpt lat="46.91999" lon="8.68748">
        <ele>1981</ele>
        <time>2021-08-07T07:38:59.648Z</time>
      </trkpt>
      <trkpt lat="46.92" lon="8.68748">
        <ele>1981</ele>
        <time>2021-08-07T07:39:00.648Z</time>
      </trkpt>
      <trkpt lat="46.92001" lon="8.68748">
        <ele>1982</ele>
        <time>2021-08-07T07:39:01.648Z</time>
      </trkpt>
      <trkpt lat="46.92001" lon="8.68747">
        <ele>1982</ele>
        <time>2021-08-07T07:39:02.647Z</time>
      </trkpt>
      <trkpt lat="46.92002" lon="8.68746">
        <ele>1982</ele>
        <time>2021-08-07T07:39:03.648Z</time>
      </trkpt>
      <trkpt lat="46.92003" lon="8.68745">
        <ele>1981</ele>
        <time>2021-08-07T07:39:04.648Z</time>
      </trkpt>
      <trkpt lat="46.92003" lon="8.68744">
        <ele>1981</ele>
        <time>2021-08-07T07:39:05.647Z</time>
      </trkpt>
      <trkpt lat="46.92004" lon="8.68744">
        <ele>1981</ele>
        <time>2021-08-07T07:39:06.647Z</time>
      </trkpt>
      <trkpt lat="46.92004" lon="8.68743">
        <ele>1981</ele>
        <time>2021-08-07T07:39:07.648Z</time>
      </trkpt>
      <trkpt lat="46.92004" lon="8.68742">
        <ele>1980</ele>
        <time>2021-08-07T07:39:08.648Z</time>
      </trkpt>
      <trkpt lat="46.92004" lon="8.68741">
        <ele>1980</ele>
        <time>2021-08-07T07:39:09.647Z</time>
      </trkpt>
      <trkpt lat="46.92005" lon="8.68741">
        <ele>1980</ele>
        <time>2021-08-07T07:39:10.648Z</time>
      </trkpt>
      <trkpt lat="46.92005" lon="8.6874">
        <ele>1980</ele>
        <time>2021-08-07T07:39:11.648Z</time>
      </trkpt>
      <trkpt lat="46.92005" lon="8.6874">
        <ele>1980</ele>
        <time>2021-08-07T07:39:12.648Z</time>
      </trkpt>
      <trkpt lat="46.92006" lon="8.68739">
        <ele>1980</ele>
        <time>2021-08-07T07:39:13.648Z</time>
      </trkpt>
      <trkpt lat="46.92006" lon="8.68738">
        <ele>1980</ele>
        <time>2021-08-07T07:39:14.647Z</time>
      </trkpt>
      <trkpt lat="46.92006" lon="8.68738">
        <ele>1981</ele>
        <time>2021-08-07T07:39:15.648Z</time>
      </trkpt>
      <trkpt lat="46.92006" lon="8.68737">
        <ele>1981</ele>
        <time>2021-08-07T07:39:16.647Z</time>
      </trkpt>
      <trkpt lat="46.92006" lon="8.68736">
        <ele>1981</ele>
        <time>2021-08-07T07:39:17.648Z</time>
      </trkpt>
      <trkpt lat="46.92006" lon="8.68736">
        <ele>1981</ele>
        <time>2021-08-07T07:39:18.648Z</time>
      </trkpt>
      <trkpt lat="46.92004" lon="8.68735">
        <ele>1984</ele>
        <time>2021-08-07T07:39:19.649Z</time>
      </trkpt>
      <trkpt lat="46.92004" lon="8.68734">
        <ele>1984</ele>
        <time>2021-08-07T07:39:20.648Z</time>
      </trkpt>
      <trkpt lat="46.92005" lon="8.68734">
        <ele>1989</ele>
        <time>2021-08-07T07:39:21.650Z</time>
      </trkpt>
      <trkpt lat="46.92005" lon="8.68734">
        <ele>1989</ele>
        <time>2021-08-07T07:39:22.649Z</time>
      </trkpt>
      <trkpt lat="46.92005" lon="8.68734">
        <ele>1990</ele>
        <time>2021-08-07T07:39:23.649Z</time>
      </trkpt>
      <trkpt lat="46.92007" lon="8.68732">
        <ele>1991</ele>
        <time>2021-08-07T07:39:24.649Z</time>
      </trkpt>
      <trkpt lat="46.92007" lon="8.68732">
        <ele>1991</ele>
        <time>2021-08-07T07:39:25.649Z</time>
      </trkpt>
      <trkpt lat="46.92007" lon="8.68731">
        <ele>1991</ele>
        <time>2021-08-07T07:39:26.649Z</time>
      </trkpt>
      <trkpt lat="46.92008" lon="8.6873">
        <ele>1991</ele>
        <time>2021-08-07T07:39:27.650Z</time>
      </trkpt>
      <trkpt lat="46.92008" lon="8.6873">
        <ele>1991</ele>
        <time>2021-08-07T07:39:28.649Z</time>
      </trkpt>
      <trkpt lat="46.92009" lon="8.68729">
        <ele>1991</ele>
        <time>2021-08-07T07:39:29.650Z</time>
      </trkpt>
      <trkpt lat="46.92009" lon="8.68729">
        <ele>1990</ele>
        <time>2021-08-07T07:39:30.649Z</time>
      </trkpt>
      <trkpt lat="46.92009" lon="8.68729">
        <ele>1990</ele>
        <time>2021-08-07T07:39:31.650Z</time>
      </trkpt>
      <trkpt lat="46.9201" lon="8.68728">
        <ele>1991</ele>
        <time>2021-08-07T07:39:32.649Z</time>
      </trkpt>
      <trkpt lat="46.9201" lon="8.68728">
        <ele>1991</ele>
        <time>2021-08-07T07:39:33.650Z</time>
      </trkpt>
      <trkpt lat="46.9201" lon="8.68727">
        <ele>1992</ele>
        <time>2021-08-07T07:39:34.649Z</time>
      </trkpt>
      <trkpt lat="46.92009" lon="8.68727">
        <ele>1993</ele>
        <time>2021-08-07T07:39:35.650Z</time>
      </trkpt>
      <trkpt lat="46.92009" lon="8.68727">
        <ele>1993</ele>
        <time>2021-08-07T07:39:36.650Z</time>
      </trkpt>
      <trkpt lat="46.92009" lon="8.68726">
        <ele>1993</ele>
        <time>2021-08-07T07:39:37.650Z</time>
      </trkpt>
      <trkpt lat="46.92008" lon="8.68726">
        <ele>1994</ele>
        <time>2021-08-07T07:39:38.650Z</time>
      </trkpt>
      <trkpt lat="46.92007" lon="8.68726">
        <ele>1994</ele>
        <time>2021-08-07T07:39:39.650Z</time>
      </trkpt>
      <trkpt lat="46.92007" lon="8.68725">
        <ele>1994</ele>
        <time>2021-08-07T07:39:40.650Z</time>
      </trkpt>
      <trkpt lat="46.92007" lon="8.68726">
        <ele>1993</ele>
        <time>2021-08-07T07:39:41.650Z</time>
      </trkpt>
      <trkpt lat="46.92007" lon="8.68726">
        <ele>1993</ele>
        <time>2021-08-07T07:39:42.650Z</time>
      </trkpt>
      <trkpt lat="46.92005" lon="8.68723">
        <ele>1999</ele>
        <time>2021-08-07T07:39:43.650Z</time>
      </trkpt>
      <trkpt lat="46.92005" lon="8.68723">
        <ele>1999</ele>
        <time>2021-08-07T07:39:44.650Z</time>
      </trkpt>
      <trkpt lat="46.92005" lon="8.68722">
        <ele>1999</ele>
        <time>2021-08-07T07:39:45.650Z</time>
      </trkpt>
      <trkpt lat="46.92005" lon="8.68721">
        <ele>1999</ele>
        <time>2021-08-07T07:39:46.651Z</time>
      </trkpt>
      <trkpt lat="46.92004" lon="8.6872">
        <ele>1998</ele>
        <time>2021-08-07T07:39:47.651Z</time>
      </trkpt>
      <trkpt lat="46.92004" lon="8.6872">
        <ele>1998</ele>
        <time>2021-08-07T07:39:48.650Z</time>
      </trkpt>
      <trkpt lat="46.92003" lon="8.68719">
        <ele>1998</ele>
        <time>2021-08-07T07:39:49.650Z</time>
      </trkpt>
      <trkpt lat="46.92001" lon="8.68718">
        <ele>1997</ele>
        <time>2021-08-07T07:39:50.652Z</time>
      </trkpt>
      <trkpt lat="46.92002" lon="8.68719">
        <ele>1995</ele>
        <time>2021-08-07T07:39:51.652Z</time>
      </trkpt>
      <trkpt lat="46.92003" lon="8.68719">
        <ele>1995</ele>
        <time>2021-08-07T07:39:52.651Z</time>
      </trkpt>
      <trkpt lat="46.92003" lon="8.68719">
        <ele>1995</ele>
        <time>2021-08-07T07:39:53.651Z</time>
      </trkpt>
      <trkpt lat="46.92003" lon="8.68719">
        <ele>1995</ele>
        <time>2021-08-07T07:39:54.652Z</time>
      </trkpt>
      <trkpt lat="46.92004" lon="8.68718">
        <ele>1995</ele>
        <time>2021-08-07T07:39:55.651Z</time>
      </trkpt>
      <trkpt lat="46.92004" lon="8.68718">
        <ele>1996</ele>
        <time>2021-08-07T07:39:56.652Z</time>
      </trkpt>
      <trkpt lat="46.92004" lon="8.68717">
        <ele>1996</ele>
        <time>2021-08-07T07:39:57.651Z</time>
      </trkpt>
      <trkpt lat="46.92004" lon="8.68716">
        <ele>1997</ele>
        <time>2021-08-07T07:39:58.652Z</time>
      </trkpt>
      <trkpt lat="46.92003" lon="8.68716">
        <ele>1997</ele>
        <time>2021-08-07T07:39:59.651Z</time>
      </trkpt>
      <trkpt lat="46.92002" lon="8.68717">
        <ele>1996</ele>
        <time>2021-08-07T07:40:00.652Z</time>
      </trkpt>
      <trkpt lat="46.92005" lon="8.68714">
        <ele>1995</ele>
        <time>2021-08-07T07:40:01.652Z</time>
      </trkpt>
      <trkpt lat="46.92005" lon="8.68714">
        <ele>1991</ele>
        <time>2021-08-07T07:40:02.653Z</time>
      </trkpt>
      <trkpt lat="46.92005" lon="8.68714">
        <ele>1991</ele>
        <time>2021-08-07T07:40:03.653Z</time>
      </trkpt>
      <trkpt lat="46.92004" lon="8.68713">
        <ele>1991</ele>
        <time>2021-08-07T07:40:04.652Z</time>
      </trkpt>
      <trkpt lat="46.92003" lon="8.68712">
        <ele>1991</ele>
        <time>2021-08-07T07:40:05.653Z</time>
      </trkpt>
      <trkpt lat="46.92002" lon="8.68711">
        <ele>1992</ele>
        <time>2021-08-07T07:40:06.653Z</time>
      </trkpt>
      <trkpt lat="46.92001" lon="8.68711">
        <ele>1993</ele>
        <time>2021-08-07T07:40:07.653Z</time>
      </trkpt>
      <trkpt lat="46.92001" lon="8.68711">
        <ele>1994</ele>
        <time>2021-08-07T07:40:08.653Z</time>
      </trkpt>
      <trkpt lat="46.92" lon="8.68711">
        <ele>1995</ele>
        <time>2021-08-07T07:40:09.653Z</time>
      </trkpt>
      <trkpt lat="46.91999" lon="8.6871">
        <ele>1996</ele>
        <time>2021-08-07T07:40:10.652Z</time>
      </trkpt>
      <trkpt lat="46.91999" lon="8.6871">
        <ele>1996</ele>
        <time>2021-08-07T07:40:11.653Z</time>
      </trkpt>
      <trkpt lat="46.91998" lon="8.68709">
        <ele>1997</ele>
        <time>2021-08-07T07:40:12.653Z</time>
      </trkpt>
      <trkpt lat="46.91997" lon="8.68709">
        <ele>1997</ele>
        <time>2021-08-07T07:40:13.653Z</time>
      </trkpt>
      <trkpt lat="46.91997" lon="8.68708">
        <ele>1997</ele>
        <time>2021-08-07T07:40:14.653Z</time>
      </trkpt>
      <trkpt lat="46.91997" lon="8.68708">
        <ele>1998</ele>
        <time>2021-08-07T07:40:15.653Z</time>
      </trkpt>
      <trkpt lat="46.91997" lon="8.68708">
        <ele>1998</ele>
        <time>2021-08-07T07:40:16.653Z</time>
      </trkpt>
      <trkpt lat="46.91997" lon="8.68708">
        <ele>1999</ele>
        <time>2021-08-07T07:40:17.652Z</time>
      </trkpt>
      <trkpt lat="46.91997" lon="8.68707">
        <ele>1999</ele>
        <time>2021-08-07T07:40:18.653Z</time>
      </trkpt>
      <trkpt lat="46.91997" lon="8.68706">
        <ele>1999</ele>
        <time>2021-08-07T07:40:19.652Z</time>
      </trkpt>
      <trkpt lat="46.91996" lon="8.68706">
        <ele>1999</ele>
        <time>2021-08-07T07:40:20.652Z</time>
      </trkpt>
      <trkpt lat="46.91996" lon="8.68706">
        <ele>1998</ele>
        <time>2021-08-07T07:40:21.652Z</time>
      </trkpt>
      <trkpt lat="46.91995" lon="8.68706">
        <ele>1998</ele>
        <time>2021-08-07T07:40:22.652Z</time>
      </trkpt>
      <trkpt lat="46.91995" lon="8.68707">
        <ele>1998</ele>
        <time>2021-08-07T07:40:23.652Z</time>
      </trkpt>
      <trkpt lat="46.91994" lon="8.68707">
        <ele>1998</ele>
        <time>2021-08-07T07:40:24.652Z</time>
      </trkpt>
      <trkpt lat="46.91993" lon="8.68707">
        <ele>1998</ele>
        <time>2021-08-07T07:40:25.653Z</time>
      </trkpt>
      <trkpt lat="46.91993" lon="8.68707">
        <ele>1998</ele>
        <time>2021-08-07T07:40:26.653Z</time>
      </trkpt>
      <trkpt lat="46.91993" lon="8.68706">
        <ele>1998</ele>
        <time>2021-08-07T07:40:27.653Z</time>
      </trkpt>
      <trkpt lat="46.91992" lon="8.68706">
        <ele>1998</ele>
        <time>2021-08-07T07:40:28.652Z</time>
      </trkpt>
      <trkpt lat="46.91991" lon="8.68705">
        <ele>1998</ele>
        <time>2021-08-07T07:40:29.653Z</time>
      </trkpt>
      <trkpt lat="46.91991" lon="8.68704">
        <ele>1998</ele>
        <time>2021-08-07T07:40:30.652Z</time>
      </trkpt>
      <trkpt lat="46.9199" lon="8.68703">
        <ele>1998</ele>
        <time>2021-08-07T07:40:31.652Z</time>
      </trkpt>
      <trkpt lat="46.9199" lon="8.68703">
        <ele>1998</ele>
        <time>2021-08-07T07:40:32.652Z</time>
      </trkpt>
      <trkpt lat="46.9199" lon="8.68702">
        <ele>1997</ele>
        <time>2021-08-07T07:40:33.653Z</time>
      </trkpt>
      <trkpt lat="46.91989" lon="8.68702">
        <ele>1997</ele>
        <time>2021-08-07T07:40:34.652Z</time>
      </trkpt>
      <trkpt lat="46.91989" lon="8.68701">
        <ele>1997</ele>
        <time>2021-08-07T07:40:35.652Z</time>
      </trkpt>
      <trkpt lat="46.91989" lon="8.687">
        <ele>1997</ele>
        <time>2021-08-07T07:40:36.653Z</time>
      </trkpt>
      <trkpt lat="46.91989" lon="8.687">
        <ele>1997</ele>
        <time>2021-08-07T07:40:37.652Z</time>
      </trkpt>
      <trkpt lat="46.91989" lon="8.687">
        <ele>1997</ele>
        <time>2021-08-07T07:40:38.652Z</time>
      </trkpt>
      <trkpt lat="46.91988" lon="8.687">
        <ele>1998</ele>
        <time>2021-08-07T07:40:39.653Z</time>
      </trkpt>
      <trkpt lat="46.91988" lon="8.68701">
        <ele>1998</ele>
        <time>2021-08-07T07:40:40.653Z</time>
      </trkpt>
      <trkpt lat="46.91988" lon="8.68702">
        <ele>1999</ele>
        <time>2021-08-07T07:40:41.653Z</time>
      </trkpt>
      <trkpt lat="46.91988" lon="8.68703">
        <ele>1999</ele>
        <time>2021-08-07T07:40:42.653Z</time>
      </trkpt>
      <trkpt lat="46.91987" lon="8.68702">
        <ele>1999</ele>
        <time>2021-08-07T07:40:43.654Z</time>
      </trkpt>
      <trkpt lat="46.91986" lon="8.68701">
        <ele>2000</ele>
        <time>2021-08-07T07:40:44.653Z</time>
      </trkpt>
      <trkpt lat="46.91985" lon="8.68701">
        <ele>2000</ele>
        <time>2021-08-07T07:40:45.653Z</time>
      </trkpt>
      <trkpt lat="46.91984" lon="8.68701">
        <ele>2000</ele>
        <time>2021-08-07T07:40:46.654Z</time>
      </trkpt>
      <trkpt lat="46.91984" lon="8.68701">
        <ele>2000</ele>
        <time>2021-08-07T07:40:47.653Z</time>
      </trkpt>
      <trkpt lat="46.91982" lon="8.687">
        <ele>2000</ele>
        <time>2021-08-07T07:40:48.653Z</time>
      </trkpt>
      <trkpt lat="46.9198" lon="8.687">
        <ele>2000</ele>
        <time>2021-08-07T07:40:49.654Z</time>
      </trkpt>
      <trkpt lat="46.9198" lon="8.68699">
        <ele>2000</ele>
        <time>2021-08-07T07:40:50.654Z</time>
      </trkpt>
      <trkpt lat="46.9198" lon="8.68699">
        <ele>2000</ele>
        <time>2021-08-07T07:40:51.653Z</time>
      </trkpt>
      <trkpt lat="46.91979" lon="8.68699">
        <ele>2000</ele>
        <time>2021-08-07T07:40:52.654Z</time>
      </trkpt>
      <trkpt lat="46.9198" lon="8.68698">
        <ele>2000</ele>
        <time>2021-08-07T07:40:53.654Z</time>
      </trkpt>
      <trkpt lat="46.9198" lon="8.68697">
        <ele>2000</ele>
        <time>2021-08-07T07:40:54.654Z</time>
      </trkpt>
      <trkpt lat="46.9198" lon="8.68696">
        <ele>2000</ele>
        <time>2021-08-07T07:40:55.654Z</time>
      </trkpt>
      <trkpt lat="46.9198" lon="8.68695">
        <ele>2000</ele>
        <time>2021-08-07T07:40:56.654Z</time>
      </trkpt>
      <trkpt lat="46.9198" lon="8.68694">
        <ele>2001</ele>
        <time>2021-08-07T07:40:57.654Z</time>
      </trkpt>
      <trkpt lat="46.91981" lon="8.68694">
        <ele>2001</ele>
        <time>2021-08-07T07:40:58.654Z</time>
      </trkpt>
      <trkpt lat="46.91981" lon="8.68695">
        <ele>2002</ele>
        <time>2021-08-07T07:40:59.653Z</time>
      </trkpt>
      <trkpt lat="46.91982" lon="8.68694">
        <ele>2002</ele>
        <time>2021-08-07T07:41:00.653Z</time>
      </trkpt>
      <trkpt lat="46.91982" lon="8.68694">
        <ele>2003</ele>
        <time>2021-08-07T07:41:01.653Z</time>
      </trkpt>
      <trkpt lat="46.91981" lon="8.68693">
        <ele>2003</ele>
        <time>2021-08-07T07:41:02.653Z</time>
      </trkpt>
      <trkpt lat="46.91981" lon="8.68693">
        <ele>2004</ele>
        <time>2021-08-07T07:41:03.653Z</time>
      </trkpt>
      <trkpt lat="46.9198" lon="8.68693">
        <ele>2004</ele>
        <time>2021-08-07T07:41:04.653Z</time>
      </trkpt>
      <trkpt lat="46.91979" lon="8.68692">
        <ele>2005</ele>
        <time>2021-08-07T07:41:05.653Z</time>
      </trkpt>
      <trkpt lat="46.91979" lon="8.68691">
        <ele>2005</ele>
        <time>2021-08-07T07:41:06.653Z</time>
      </trkpt>
      <trkpt lat="46.91979" lon="8.68691">
        <ele>2006</ele>
        <time>2021-08-07T07:41:07.653Z</time>
      </trkpt>
      <trkpt lat="46.9198" lon="8.68691">
        <ele>2006</ele>
        <time>2021-08-07T07:41:08.653Z</time>
      </trkpt>
      <trkpt lat="46.9198" lon="8.6869">
        <ele>2007</ele>
        <time>2021-08-07T07:41:09.653Z</time>
      </trkpt>
      <trkpt lat="46.9198" lon="8.6869">
        <ele>2007</ele>
        <time>2021-08-07T07:41:10.653Z</time>
      </trkpt>
      <trkpt lat="46.91979" lon="8.68691">
        <ele>2007</ele>
        <time>2021-08-07T07:41:11.653Z</time>
      </trkpt>
      <trkpt lat="46.91979" lon="8.68691">
        <ele>2008</ele>
        <time>2021-08-07T07:41:12.653Z</time>
      </trkpt>
      <trkpt lat="46.91978" lon="8.68691">
        <ele>2008</ele>
        <time>2021-08-07T07:41:13.654Z</time>
      </trkpt>
      <trkpt lat="46.91978" lon="8.6869">
        <ele>2008</ele>
        <time>2021-08-07T07:41:14.654Z</time>
      </trkpt>
      <trkpt lat="46.91977" lon="8.6869">
        <ele>2009</ele>
        <time>2021-08-07T07:41:15.654Z</time>
      </trkpt>
      <trkpt lat="46.91977" lon="8.68689">
        <ele>2009</ele>
        <time>2021-08-07T07:41:16.653Z</time>
      </trkpt>
      <trkpt lat="46.91977" lon="8.68688">
        <ele>2009</ele>
        <time>2021-08-07T07:41:17.653Z</time>
      </trkpt>
      <trkpt lat="46.91976" lon="8.68686">
        <ele>2010</ele>
        <time>2021-08-07T07:41:18.653Z</time>
      </trkpt>
      <trkpt lat="46.91975" lon="8.68685">
        <ele>2010</ele>
        <time>2021-08-07T07:41:19.653Z</time>
      </trkpt>
      <trkpt lat="46.91975" lon="8.68683">
        <ele>2011</ele>
        <time>2021-08-07T07:41:20.654Z</time>
      </trkpt>
      <trkpt lat="46.91974" lon="8.68682">
        <ele>2011</ele>
        <time>2021-08-07T07:41:21.654Z</time>
      </trkpt>
      <trkpt lat="46.91974" lon="8.68682">
        <ele>2012</ele>
        <time>2021-08-07T07:41:22.653Z</time>
      </trkpt>
      <trkpt lat="46.91974" lon="8.68682">
        <ele>2012</ele>
        <time>2021-08-07T07:41:23.653Z</time>
      </trkpt>
      <trkpt lat="46.91974" lon="8.68681">
        <ele>2012</ele>
        <time>2021-08-07T07:41:24.654Z</time>
      </trkpt>
      <trkpt lat="46.91974" lon="8.6868">
        <ele>2012</ele>
        <time>2021-08-07T07:41:25.653Z</time>
      </trkpt>
      <trkpt lat="46.91974" lon="8.68679">
        <ele>2012</ele>
        <time>2021-08-07T07:41:26.653Z</time>
      </trkpt>
      <trkpt lat="46.91974" lon="8.68679">
        <ele>2011</ele>
        <time>2021-08-07T07:41:27.653Z</time>
      </trkpt>
      <trkpt lat="46.91974" lon="8.68679">
        <ele>2011</ele>
        <time>2021-08-07T07:41:28.654Z</time>
      </trkpt>
      <trkpt lat="46.91973" lon="8.68677">
        <ele>2012</ele>
        <time>2021-08-07T07:41:29.655Z</time>
      </trkpt>
      <trkpt lat="46.91972" lon="8.68676">
        <ele>2013</ele>
        <time>2021-08-07T07:41:30.655Z</time>
      </trkpt>
      <trkpt lat="46.91971" lon="8.68676">
        <ele>2013</ele>
        <time>2021-08-07T07:41:31.654Z</time>
      </trkpt>
      <trkpt lat="46.91971" lon="8.68675">
        <ele>2014</ele>
        <time>2021-08-07T07:41:32.654Z</time>
      </trkpt>
      <trkpt lat="46.9197" lon="8.68675">
        <ele>2014</ele>
        <time>2021-08-07T07:41:33.654Z</time>
      </trkpt>
      <trkpt lat="46.91969" lon="8.68674">
        <ele>2014</ele>
        <time>2021-08-07T07:41:34.654Z</time>
      </trkpt>
      <trkpt lat="46.91969" lon="8.68673">
        <ele>2014</ele>
        <time>2021-08-07T07:41:35.654Z</time>
      </trkpt>
      <trkpt lat="46.91968" lon="8.68673">
        <ele>2014</ele>
        <time>2021-08-07T07:41:36.655Z</time>
      </trkpt>
      <trkpt lat="46.91968" lon="8.68674">
        <ele>2013</ele>
        <time>2021-08-07T07:41:37.654Z</time>
      </trkpt>
      <trkpt lat="46.91967" lon="8.68674">
        <ele>2013</ele>
        <time>2021-08-07T07:41:38.654Z</time>
      </trkpt>
      <trkpt lat="46.91967" lon="8.68674">
        <ele>2013</ele>
        <time>2021-08-07T07:41:39.654Z</time>
      </trkpt>
      <trkpt lat="46.91966" lon="8.68674">
        <ele>2013</ele>
        <time>2021-08-07T07:41:40.655Z</time>
      </trkpt>
      <trkpt lat="46.91966" lon="8.68673">
        <ele>2013</ele>
        <time>2021-08-07T07:41:41.655Z</time>
      </trkpt>
      <trkpt lat="46.91966" lon="8.68674">
        <ele>2013</ele>
        <time>2021-08-07T07:41:42.655Z</time>
      </trkpt>
      <trkpt lat="46.91965" lon="8.68674">
        <ele>2013</ele>
        <time>2021-08-07T07:41:43.655Z</time>
      </trkpt>
      <trkpt lat="46.91965" lon="8.68673">
        <ele>2013</ele>
        <time>2021-08-07T07:41:44.655Z</time>
      </trkpt>
      <trkpt lat="46.91964" lon="8.68673">
        <ele>2013</ele>
        <time>2021-08-07T07:41:45.655Z</time>
      </trkpt>
      <trkpt lat="46.91963" lon="8.68672">
        <ele>2013</ele>
        <time>2021-08-07T07:41:46.654Z</time>
      </trkpt>
      <trkpt lat="46.91962" lon="8.68671">
        <ele>2012</ele>
        <time>2021-08-07T07:41:47.654Z</time>
      </trkpt>
      <trkpt lat="46.91961" lon="8.6867">
        <ele>2012</ele>
        <time>2021-08-07T07:41:48.654Z</time>
      </trkpt>
      <trkpt lat="46.9196" lon="8.68669">
        <ele>2012</ele>
        <time>2021-08-07T07:41:49.655Z</time>
      </trkpt>
      <trkpt lat="46.91959" lon="8.68669">
        <ele>2012</ele>
        <time>2021-08-07T07:41:50.655Z</time>
      </trkpt>
      <trkpt lat="46.91959" lon="8.68668">
        <ele>2012</ele>
        <time>2021-08-07T07:41:51.655Z</time>
      </trkpt>
      <trkpt lat="46.91958" lon="8.68668">
        <ele>2011</ele>
        <time>2021-08-07T07:41:52.655Z</time>
      </trkpt>
      <trkpt lat="46.91958" lon="8.68668">
        <ele>2011</ele>
        <time>2021-08-07T07:41:53.654Z</time>
      </trkpt>
      <trkpt lat="46.91957" lon="8.68668">
        <ele>2011</ele>
        <time>2021-08-07T07:41:54.654Z</time>
      </trkpt>
      <trkpt lat="46.91957" lon="8.68669">
        <ele>2011</ele>
        <time>2021-08-07T07:41:55.655Z</time>
      </trkpt>
      <trkpt lat="46.91956" lon="8.68669">
        <ele>2012</ele>
        <time>2021-08-07T07:41:56.655Z</time>
      </trkpt>
      <trkpt lat="46.91956" lon="8.68671">
        <ele>2012</ele>
        <time>2021-08-07T07:41:57.655Z</time>
      </trkpt>
      <trkpt lat="46.91955" lon="8.68672">
        <ele>2012</ele>
        <time>2021-08-07T07:41:58.654Z</time>
      </trkpt>
      <trkpt lat="46.91955" lon="8.68672">
        <ele>2012</ele>
        <time>2021-08-07T07:41:59.655Z</time>
      </trkpt>
      <trkpt lat="46.91955" lon="8.68672">
        <ele>2013</ele>
        <time>2021-08-07T07:42:00.655Z</time>
      </trkpt>
      <trkpt lat="46.91956" lon="8.68672">
        <ele>2013</ele>
        <time>2021-08-07T07:42:01.655Z</time>
      </trkpt>
      <trkpt lat="46.91956" lon="8.68671">
        <ele>2013</ele>
        <time>2021-08-07T07:42:02.654Z</time>
      </trkpt>
      <trkpt lat="46.91956" lon="8.6867">
        <ele>2013</ele>
        <time>2021-08-07T07:42:03.655Z</time>
      </trkpt>
      <trkpt lat="46.91955" lon="8.68669">
        <ele>2013</ele>
        <time>2021-08-07T07:42:04.655Z</time>
      </trkpt>
      <trkpt lat="46.91955" lon="8.6867">
        <ele>2014</ele>
        <time>2021-08-07T07:42:05.655Z</time>
      </trkpt>
      <trkpt lat="46.91954" lon="8.6867">
        <ele>2014</ele>
        <time>2021-08-07T07:42:06.655Z</time>
      </trkpt>
      <trkpt lat="46.91954" lon="8.6867">
        <ele>2014</ele>
        <time>2021-08-07T07:42:07.655Z</time>
      </trkpt>
      <trkpt lat="46.91953" lon="8.68668">
        <ele>2015</ele>
        <time>2021-08-07T07:42:08.655Z</time>
      </trkpt>
      <trkpt lat="46.91952" lon="8.68667">
        <ele>2015</ele>
        <time>2021-08-07T07:42:09.655Z</time>
      </trkpt>
      <trkpt lat="46.91951" lon="8.68666">
        <ele>2015</ele>
        <time>2021-08-07T07:42:10.655Z</time>
      </trkpt>
      <trkpt lat="46.91952" lon="8.68666">
        <ele>2016</ele>
        <time>2021-08-07T07:42:11.654Z</time>
      </trkpt>
      <trkpt lat="46.91952" lon="8.68666">
        <ele>2016</ele>
        <time>2021-08-07T07:42:12.654Z</time>
      </trkpt>
      <trkpt lat="46.91951" lon="8.68665">
        <ele>2017</ele>
        <time>2021-08-07T07:42:13.655Z</time>
      </trkpt>
      <trkpt lat="46.91951" lon="8.68665">
        <ele>2018</ele>
        <time>2021-08-07T07:42:14.655Z</time>
      </trkpt>
      <trkpt lat="46.91951" lon="8.68664">
        <ele>2019</ele>
        <time>2021-08-07T07:42:15.655Z</time>
      </trkpt>
      <trkpt lat="46.9195" lon="8.68663">
        <ele>2020</ele>
        <time>2021-08-07T07:42:16.655Z</time>
      </trkpt>
      <trkpt lat="46.91949" lon="8.68662">
        <ele>2020</ele>
        <time>2021-08-07T07:42:17.655Z</time>
      </trkpt>
      <trkpt lat="46.91948" lon="8.68661">
        <ele>2021</ele>
        <time>2021-08-07T07:42:18.655Z</time>
      </trkpt>
      <trkpt lat="46.91948" lon="8.68661">
        <ele>2021</ele>
        <time>2021-08-07T07:42:19.655Z</time>
      </trkpt>
      <trkpt lat="46.91947" lon="8.68661">
        <ele>2021</ele>
        <time>2021-08-07T07:42:20.655Z</time>
      </trkpt>
      <trkpt lat="46.91948" lon="8.68662">
        <ele>2021</ele>
        <time>2021-08-07T07:42:21.655Z</time>
      </trkpt>
      <trkpt lat="46.91948" lon="8.68661">
        <ele>2020</ele>
        <time>2021-08-07T07:42:22.654Z</time>
      </trkpt>
      <trkpt lat="46.91947" lon="8.6866">
        <ele>2020</ele>
        <time>2021-08-07T07:42:23.655Z</time>
      </trkpt>
      <trkpt lat="46.91947" lon="8.6866">
        <ele>2020</ele>
        <time>2021-08-07T07:42:24.655Z</time>
      </trkpt>
      <trkpt lat="46.91947" lon="8.68659">
        <ele>2020</ele>
        <time>2021-08-07T07:42:25.654Z</time>
      </trkpt>
      <trkpt lat="46.91947" lon="8.68659">
        <ele>2021</ele>
        <time>2021-08-07T07:42:26.655Z</time>
      </trkpt>
      <trkpt lat="46.91946" lon="8.68659">
        <ele>2021</ele>
        <time>2021-08-07T07:42:27.654Z</time>
      </trkpt>
      <trkpt lat="46.91945" lon="8.68658">
        <ele>2021</ele>
        <time>2021-08-07T07:42:28.654Z</time>
      </trkpt>
      <trkpt lat="46.91945" lon="8.68658">
        <ele>2021</ele>
        <time>2021-08-07T07:42:29.654Z</time>
      </trkpt>
      <trkpt lat="46.91945" lon="8.68657">
        <ele>2021</ele>
        <time>2021-08-07T07:42:30.654Z</time>
      </trkpt>
      <trkpt lat="46.91944" lon="8.68657">
        <ele>2021</ele>
        <time>2021-08-07T07:42:31.656Z</time>
      </trkpt>
      <trkpt lat="46.91944" lon="8.68657">
        <ele>2021</ele>
        <time>2021-08-07T07:42:32.655Z</time>
      </trkpt>
      <trkpt lat="46.91943" lon="8.68657">
        <ele>2021</ele>
        <time>2021-08-07T07:42:33.656Z</time>
      </trkpt>
      <trkpt lat="46.91943" lon="8.68656">
        <ele>2021</ele>
        <time>2021-08-07T07:42:34.656Z</time>
      </trkpt>
      <trkpt lat="46.91943" lon="8.68656">
        <ele>2020</ele>
        <time>2021-08-07T07:42:35.656Z</time>
      </trkpt>
      <trkpt lat="46.91943" lon="8.68656">
        <ele>2019</ele>
        <time>2021-08-07T07:42:36.656Z</time>
      </trkpt>
      <trkpt lat="46.91942" lon="8.68654">
        <ele>2018</ele>
        <time>2021-08-07T07:42:37.656Z</time>
      </trkpt>
      <trkpt lat="46.91941" lon="8.68654">
        <ele>2018</ele>
        <time>2021-08-07T07:42:38.655Z</time>
      </trkpt>
      <trkpt lat="46.9194" lon="8.68654">
        <ele>2018</ele>
        <time>2021-08-07T07:42:39.655Z</time>
      </trkpt>
      <trkpt lat="46.91941" lon="8.68655">
        <ele>2018</ele>
        <time>2021-08-07T07:42:40.656Z</time>
      </trkpt>
      <trkpt lat="46.9194" lon="8.68656">
        <ele>2018</ele>
        <time>2021-08-07T07:42:41.656Z</time>
      </trkpt>
      <trkpt lat="46.9194" lon="8.68656">
        <ele>2018</ele>
        <time>2021-08-07T07:42:42.655Z</time>
      </trkpt>
      <trkpt lat="46.91939" lon="8.68655">
        <ele>2018</ele>
        <time>2021-08-07T07:42:43.656Z</time>
      </trkpt>
      <trkpt lat="46.91939" lon="8.68655">
        <ele>2018</ele>
        <time>2021-08-07T07:42:44.656Z</time>
      </trkpt>
      <trkpt lat="46.91938" lon="8.68654">
        <ele>2017</ele>
        <time>2021-08-07T07:42:45.656Z</time>
      </trkpt>
      <trkpt lat="46.91937" lon="8.68653">
        <ele>2017</ele>
        <time>2021-08-07T07:42:46.655Z</time>
      </trkpt>
      <trkpt lat="46.91937" lon="8.68653">
        <ele>2017</ele>
        <time>2021-08-07T07:42:47.655Z</time>
      </trkpt>
      <trkpt lat="46.91937" lon="8.68653">
        <ele>2017</ele>
        <time>2021-08-07T07:42:48.656Z</time>
      </trkpt>
      <trkpt lat="46.91936" lon="8.68652">
        <ele>2017</ele>
        <time>2021-08-07T07:42:49.655Z</time>
      </trkpt>
      <trkpt lat="46.91936" lon="8.68651">
        <ele>2017</ele>
        <time>2021-08-07T07:42:50.656Z</time>
      </trkpt>
      <trkpt lat="46.91935" lon="8.68651">
        <ele>2017</ele>
        <time>2021-08-07T07:42:51.656Z</time>
      </trkpt>
      <trkpt lat="46.91934" lon="8.68651">
        <ele>2017</ele>
        <time>2021-08-07T07:42:52.656Z</time>
      </trkpt>
      <trkpt lat="46.91934" lon="8.68652">
        <ele>2018</ele>
        <time>2021-08-07T07:42:53.655Z</time>
      </trkpt>
      <trkpt lat="46.91933" lon="8.68652">
        <ele>2018</ele>
        <time>2021-08-07T07:42:54.655Z</time>
      </trkpt>
      <trkpt lat="46.91933" lon="8.68651">
        <ele>2018</ele>
        <time>2021-08-07T07:42:55.656Z</time>
      </trkpt>
      <trkpt lat="46.91932" lon="8.68651">
        <ele>2018</ele>
        <time>2021-08-07T07:42:56.655Z</time>
      </trkpt>
      <trkpt lat="46.91932" lon="8.68651">
        <ele>2018</ele>
        <time>2021-08-07T07:42:57.655Z</time>
      </trkpt>
      <trkpt lat="46.91931" lon="8.68651">
        <ele>2019</ele>
        <time>2021-08-07T07:42:58.655Z</time>
      </trkpt>
      <trkpt lat="46.9193" lon="8.68651">
        <ele>2019</ele>
        <time>2021-08-07T07:42:59.656Z</time>
      </trkpt>
      <trkpt lat="46.9193" lon="8.68651">
        <ele>2020</ele>
        <time>2021-08-07T07:43:00.656Z</time>
      </trkpt>
      <trkpt lat="46.9193" lon="8.68651">
        <ele>2020</ele>
        <time>2021-08-07T07:43:01.655Z</time>
      </trkpt>
      <trkpt lat="46.91929" lon="8.68649">
        <ele>2022</ele>
        <time>2021-08-07T07:43:02.655Z</time>
      </trkpt>
      <trkpt lat="46.91929" lon="8.68649">
        <ele>2022</ele>
        <time>2021-08-07T07:43:03.655Z</time>
      </trkpt>
      <trkpt lat="46.91929" lon="8.68649">
        <ele>2022</ele>
        <time>2021-08-07T07:43:04.655Z</time>
      </trkpt>
      <trkpt lat="46.91928" lon="8.68648">
        <ele>2023</ele>
        <time>2021-08-07T07:43:05.655Z</time>
      </trkpt>
      <trkpt lat="46.91928" lon="8.68648">
        <ele>2024</ele>
        <time>2021-08-07T07:43:06.655Z</time>
      </trkpt>
      <trkpt lat="46.91928" lon="8.68648">
        <ele>2024</ele>
        <time>2021-08-07T07:43:07.655Z</time>
      </trkpt>
      <trkpt lat="46.91929" lon="8.68647">
        <ele>2025</ele>
        <time>2021-08-07T07:43:08.656Z</time>
      </trkpt>
      <trkpt lat="46.9193" lon="8.68647">
        <ele>2025</ele>
        <time>2021-08-07T07:43:09.655Z</time>
      </trkpt>
      <trkpt lat="46.9193" lon="8.68646">
        <ele>2026</ele>
        <time>2021-08-07T07:43:10.655Z</time>
      </trkpt>
      <trkpt lat="46.9193" lon="8.68646">
        <ele>2026</ele>
        <time>2021-08-07T07:43:11.656Z</time>
      </trkpt>
      <trkpt lat="46.91929" lon="8.68645">
        <ele>2026</ele>
        <time>2021-08-07T07:43:12.655Z</time>
      </trkpt>
      <trkpt lat="46.91928" lon="8.68644">
        <ele>2026</ele>
        <time>2021-08-07T07:43:13.655Z</time>
      </trkpt>
      <trkpt lat="46.91928" lon="8.68644">
        <ele>2025</ele>
        <time>2021-08-07T07:43:14.655Z</time>
      </trkpt>
      <trkpt lat="46.91928" lon="8.68643">
        <ele>2025</ele>
        <time>2021-08-07T07:43:15.656Z</time>
      </trkpt>
      <trkpt lat="46.91928" lon="8.68643">
        <ele>2025</ele>
        <time>2021-08-07T07:43:16.656Z</time>
      </trkpt>
      <trkpt lat="46.91929" lon="8.68642">
        <ele>2025</ele>
        <time>2021-08-07T07:43:17.655Z</time>
      </trkpt>
      <trkpt lat="46.91928" lon="8.68642">
        <ele>2026</ele>
        <time>2021-08-07T07:43:18.656Z</time>
      </trkpt>
      <trkpt lat="46.91928" lon="8.68642">
        <ele>2026</ele>
        <time>2021-08-07T07:43:19.655Z</time>
      </trkpt>
      <trkpt lat="46.91928" lon="8.68641">
        <ele>2026</ele>
        <time>2021-08-07T07:43:20.655Z</time>
      </trkpt>
      <trkpt lat="46.91928" lon="8.6864">
        <ele>2026</ele>
        <time>2021-08-07T07:43:21.655Z</time>
      </trkpt>
      <trkpt lat="46.91928" lon="8.68639">
        <ele>2026</ele>
        <time>2021-08-07T07:43:22.655Z</time>
      </trkpt>
      <trkpt lat="46.91928" lon="8.68639">
        <ele>2026</ele>
        <time>2021-08-07T07:43:23.655Z</time>
      </trkpt>
      <trkpt lat="46.91928" lon="8.68638">
        <ele>2027</ele>
        <time>2021-08-07T07:43:24.655Z</time>
      </trkpt>
      <trkpt lat="46.91927" lon="8.68637">
        <ele>2027</ele>
        <time>2021-08-07T07:43:25.655Z</time>
      </trkpt>
      <trkpt lat="46.91927" lon="8.68637">
        <ele>2028</ele>
        <time>2021-08-07T07:43:26.655Z</time>
      </trkpt>
      <trkpt lat="46.91927" lon="8.68637">
        <ele>2029</ele>
        <time>2021-08-07T07:43:27.655Z</time>
      </trkpt>
      <trkpt lat="46.91927" lon="8.68636">
        <ele>2029</ele>
        <time>2021-08-07T07:43:28.656Z</time>
      </trkpt>
      <trkpt lat="46.91927" lon="8.68636">
        <ele>2030</ele>
        <time>2021-08-07T07:43:29.655Z</time>
      </trkpt>
      <trkpt lat="46.91926" lon="8.68635">
        <ele>2030</ele>
        <time>2021-08-07T07:43:30.655Z</time>
      </trkpt>
      <trkpt lat="46.91926" lon="8.68634">
        <ele>2030</ele>
        <time>2021-08-07T07:43:31.656Z</time>
      </trkpt>
      <trkpt lat="46.91925" lon="8.68634">
        <ele>2030</ele>
        <time>2021-08-07T07:43:32.655Z</time>
      </trkpt>
      <trkpt lat="46.91923" lon="8.68632">
        <ele>2030</ele>
        <time>2021-08-07T07:43:33.656Z</time>
      </trkpt>
      <trkpt lat="46.91923" lon="8.68632">
        <ele>2030</ele>
        <time>2021-08-07T07:43:34.656Z</time>
      </trkpt>
      <trkpt lat="46.91922" lon="8.68632">
        <ele>2030</ele>
        <time>2021-08-07T07:43:35.655Z</time>
      </trkpt>
      <trkpt lat="46.91921" lon="8.68632">
        <ele>2030</ele>
        <time>2021-08-07T07:43:36.655Z</time>
      </trkpt>
      <trkpt lat="46.91921" lon="8.68631">
        <ele>2030</ele>
        <time>2021-08-07T07:43:37.656Z</time>
      </trkpt>
      <trkpt lat="46.9192" lon="8.68631">
        <ele>2030</ele>
        <time>2021-08-07T07:43:38.655Z</time>
      </trkpt>
      <trkpt lat="46.91919" lon="8.68631">
        <ele>2030</ele>
        <time>2021-08-07T07:43:39.656Z</time>
      </trkpt>
      <trkpt lat="46.91919" lon="8.68631">
        <ele>2030</ele>
        <time>2021-08-07T07:43:40.655Z</time>
      </trkpt>
      <trkpt lat="46.91918" lon="8.6863">
        <ele>2030</ele>
        <time>2021-08-07T07:43:41.655Z</time>
      </trkpt>
      <trkpt lat="46.91918" lon="8.6863">
        <ele>2030</ele>
        <time>2021-08-07T07:43:42.655Z</time>
      </trkpt>
      <trkpt lat="46.91918" lon="8.68629">
        <ele>2030</ele>
        <time>2021-08-07T07:43:43.655Z</time>
      </trkpt>
      <trkpt lat="46.91917" lon="8.68629">
        <ele>2030</ele>
        <time>2021-08-07T07:43:44.656Z</time>
      </trkpt>
      <trkpt lat="46.91918" lon="8.68628">
        <ele>2029</ele>
        <time>2021-08-07T07:43:45.656Z</time>
      </trkpt>
      <trkpt lat="46.91918" lon="8.68628">
        <ele>2029</ele>
        <time>2021-08-07T07:43:46.656Z</time>
      </trkpt>
      <trkpt lat="46.91918" lon="8.68627">
        <ele>2029</ele>
        <time>2021-08-07T07:43:47.655Z</time>
      </trkpt>
      <trkpt lat="46.91918" lon="8.68626">
        <ele>2029</ele>
        <time>2021-08-07T07:43:48.655Z</time>
      </trkpt>
      <trkpt lat="46.91917" lon="8.68626">
        <ele>2029</ele>
        <time>2021-08-07T07:43:49.655Z</time>
      </trkpt>
      <trkpt lat="46.91917" lon="8.68625">
        <ele>2029</ele>
        <time>2021-08-07T07:43:50.655Z</time>
      </trkpt>
      <trkpt lat="46.91916" lon="8.68625">
        <ele>2029</ele>
        <time>2021-08-07T07:43:51.655Z</time>
      </trkpt>
      <trkpt lat="46.91916" lon="8.68625">
        <ele>2029</ele>
        <time>2021-08-07T07:43:52.656Z</time>
      </trkpt>
      <trkpt lat="46.91915" lon="8.68625">
        <ele>2029</ele>
        <time>2021-08-07T07:43:53.655Z</time>
      </trkpt>
      <trkpt lat="46.91915" lon="8.68626">
        <ele>2029</ele>
        <time>2021-08-07T07:43:54.655Z</time>
      </trkpt>
      <trkpt lat="46.91915" lon="8.68625">
        <ele>2028</ele>
        <time>2021-08-07T07:43:55.656Z</time>
      </trkpt>
      <trkpt lat="46.91915" lon="8.68625">
        <ele>2028</ele>
        <time>2021-08-07T07:43:56.655Z</time>
      </trkpt>
      <trkpt lat="46.91914" lon="8.68624">
        <ele>2028</ele>
        <time>2021-08-07T07:43:57.655Z</time>
      </trkpt>
      <trkpt lat="46.91914" lon="8.68624">
        <ele>2028</ele>
        <time>2021-08-07T07:43:58.656Z</time>
      </trkpt>
      <trkpt lat="46.91914" lon="8.68624">
        <ele>2028</ele>
        <time>2021-08-07T07:43:59.655Z</time>
      </trkpt>
      <trkpt lat="46.91913" lon="8.68623">
        <ele>2028</ele>
        <time>2021-08-07T07:44:00.656Z</time>
      </trkpt>
      <trkpt lat="46.91913" lon="8.68623">
        <ele>2028</ele>
        <time>2021-08-07T07:44:01.655Z</time>
      </trkpt>
      <trkpt lat="46.91913" lon="8.68623">
        <ele>2028</ele>
        <time>2021-08-07T07:44:02.655Z</time>
      </trkpt>
      <trkpt lat="46.91912" lon="8.68622">
        <ele>2028</ele>
        <time>2021-08-07T07:44:03.655Z</time>
      </trkpt>
      <trkpt lat="46.91912" lon="8.68621">
        <ele>2028</ele>
        <time>2021-08-07T07:44:04.656Z</time>
      </trkpt>
      <trkpt lat="46.91911" lon="8.6862">
        <ele>2028</ele>
        <time>2021-08-07T07:44:05.655Z</time>
      </trkpt>
      <trkpt lat="46.91911" lon="8.68619">
        <ele>2028</ele>
        <time>2021-08-07T07:44:06.655Z</time>
      </trkpt>
      <trkpt lat="46.9191" lon="8.68618">
        <ele>2028</ele>
        <time>2021-08-07T07:44:07.655Z</time>
      </trkpt>
      <trkpt lat="46.91909" lon="8.68618">
        <ele>2028</ele>
        <time>2021-08-07T07:44:08.655Z</time>
      </trkpt>
      <trkpt lat="46.91909" lon="8.68617">
        <ele>2028</ele>
        <time>2021-08-07T07:44:09.656Z</time>
      </trkpt>
      <trkpt lat="46.91909" lon="8.68617">
        <ele>2028</ele>
        <time>2021-08-07T07:44:10.655Z</time>
      </trkpt>
      <trkpt lat="46.91908" lon="8.68616">
        <ele>2028</ele>
        <time>2021-08-07T07:44:11.655Z</time>
      </trkpt>
      <trkpt lat="46.91908" lon="8.68616">
        <ele>2029</ele>
        <time>2021-08-07T07:44:12.655Z</time>
      </trkpt>
      <trkpt lat="46.91907" lon="8.68616">
        <ele>2030</ele>
        <time>2021-08-07T07:44:13.656Z</time>
      </trkpt>
      <trkpt lat="46.91907" lon="8.68617">
        <ele>2031</ele>
        <time>2021-08-07T07:44:14.655Z</time>
      </trkpt>
      <trkpt lat="46.91906" lon="8.68617">
        <ele>2031</ele>
        <time>2021-08-07T07:44:15.655Z</time>
      </trkpt>
      <trkpt lat="46.91905" lon="8.68617">
        <ele>2032</ele>
        <time>2021-08-07T07:44:16.655Z</time>
      </trkpt>
      <trkpt lat="46.91904" lon="8.68616">
        <ele>2033</ele>
        <time>2021-08-07T07:44:17.655Z</time>
      </trkpt>
      <trkpt lat="46.91904" lon="8.68616">
        <ele>2034</ele>
        <time>2021-08-07T07:44:18.655Z</time>
      </trkpt>
      <trkpt lat="46.91903" lon="8.68614">
        <ele>2035</ele>
        <time>2021-08-07T07:44:19.655Z</time>
      </trkpt>
      <trkpt lat="46.91902" lon="8.68613">
        <ele>2035</ele>
        <time>2021-08-07T07:44:20.656Z</time>
      </trkpt>
      <trkpt lat="46.91902" lon="8.68613">
        <ele>2036</ele>
        <time>2021-08-07T07:44:21.656Z</time>
      </trkpt>
      <trkpt lat="46.91902" lon="8.68612">
        <ele>2036</ele>
        <time>2021-08-07T07:44:22.655Z</time>
      </trkpt>
      <trkpt lat="46.91901" lon="8.68613">
        <ele>2036</ele>
        <time>2021-08-07T07:44:23.655Z</time>
      </trkpt>
      <trkpt lat="46.91901" lon="8.68613">
        <ele>2036</ele>
        <time>2021-08-07T07:44:24.655Z</time>
      </trkpt>
      <trkpt lat="46.91901" lon="8.68613">
        <ele>2036</ele>
        <time>2021-08-07T07:44:25.655Z</time>
      </trkpt>
      <trkpt lat="46.919" lon="8.68613">
        <ele>2036</ele>
        <time>2021-08-07T07:44:26.655Z</time>
      </trkpt>
      <trkpt lat="46.91899" lon="8.68612">
        <ele>2036</ele>
        <time>2021-08-07T07:44:27.655Z</time>
      </trkpt>
      <trkpt lat="46.91899" lon="8.68612">
        <ele>2036</ele>
        <time>2021-08-07T07:44:28.655Z</time>
      </trkpt>
      <trkpt lat="46.91899" lon="8.68611">
        <ele>2036</ele>
        <time>2021-08-07T07:44:29.656Z</time>
      </trkpt>
      <trkpt lat="46.91898" lon="8.6861">
        <ele>2036</ele>
        <time>2021-08-07T07:44:30.655Z</time>
      </trkpt>
      <trkpt lat="46.91897" lon="8.68609">
        <ele>2036</ele>
        <time>2021-08-07T07:44:31.655Z</time>
      </trkpt>
      <trkpt lat="46.91897" lon="8.68609">
        <ele>2036</ele>
        <time>2021-08-07T07:44:32.655Z</time>
      </trkpt>
      <trkpt lat="46.91896" lon="8.68608">
        <ele>2036</ele>
        <time>2021-08-07T07:44:33.656Z</time>
      </trkpt>
      <trkpt lat="46.91897" lon="8.68609">
        <ele>2036</ele>
        <time>2021-08-07T07:44:34.655Z</time>
      </trkpt>
      <trkpt lat="46.91897" lon="8.6861">
        <ele>2036</ele>
        <time>2021-08-07T07:44:35.655Z</time>
      </trkpt>
      <trkpt lat="46.91897" lon="8.68611">
        <ele>2036</ele>
        <time>2021-08-07T07:44:36.655Z</time>
      </trkpt>
      <trkpt lat="46.91896" lon="8.68611">
        <ele>2036</ele>
        <time>2021-08-07T07:44:37.655Z</time>
      </trkpt>
      <trkpt lat="46.91896" lon="8.68611">
        <ele>2036</ele>
        <time>2021-08-07T07:44:38.656Z</time>
      </trkpt>
      <trkpt lat="46.91895" lon="8.68611">
        <ele>2036</ele>
        <time>2021-08-07T07:44:39.655Z</time>
      </trkpt>
      <trkpt lat="46.91895" lon="8.6861">
        <ele>2036</ele>
        <time>2021-08-07T07:44:40.655Z</time>
      </trkpt>
      <trkpt lat="46.91895" lon="8.6861">
        <ele>2036</ele>
        <time>2021-08-07T07:44:41.655Z</time>
      </trkpt>
      <trkpt lat="46.91895" lon="8.6861">
        <ele>2035</ele>
        <time>2021-08-07T07:44:42.655Z</time>
      </trkpt>
      <trkpt lat="46.91895" lon="8.6861">
        <ele>2036</ele>
        <time>2021-08-07T07:44:43.656Z</time>
      </trkpt>
      <trkpt lat="46.91895" lon="8.68609">
        <ele>2036</ele>
        <time>2021-08-07T07:44:44.656Z</time>
      </trkpt>
      <trkpt lat="46.91895" lon="8.68608">
        <ele>2036</ele>
        <time>2021-08-07T07:44:45.656Z</time>
      </trkpt>
      <trkpt lat="46.91894" lon="8.68607">
        <ele>2036</ele>
        <time>2021-08-07T07:44:46.657Z</time>
      </trkpt>
      <trkpt lat="46.91894" lon="8.68607">
        <ele>2036</ele>
        <time>2021-08-07T07:44:47.656Z</time>
      </trkpt>
      <trkpt lat="46.91894" lon="8.68606">
        <ele>2036</ele>
        <time>2021-08-07T07:44:48.657Z</time>
      </trkpt>
      <trkpt lat="46.91894" lon="8.68606">
        <ele>2036</ele>
        <time>2021-08-07T07:44:49.657Z</time>
      </trkpt>
      <trkpt lat="46.91893" lon="8.68606">
        <ele>2036</ele>
        <time>2021-08-07T07:44:50.656Z</time>
      </trkpt>
      <trkpt lat="46.91893" lon="8.68606">
        <ele>2036</ele>
        <time>2021-08-07T07:44:51.657Z</time>
      </trkpt>
      <trkpt lat="46.91894" lon="8.68606">
        <ele>2037</ele>
        <time>2021-08-07T07:44:52.656Z</time>
      </trkpt>
      <trkpt lat="46.91894" lon="8.68605">
        <ele>2038</ele>
        <time>2021-08-07T07:44:53.656Z</time>
      </trkpt>
      <trkpt lat="46.91893" lon="8.68604">
        <ele>2038</ele>
        <time>2021-08-07T07:44:54.656Z</time>
      </trkpt>
      <trkpt lat="46.91892" lon="8.68604">
        <ele>2039</ele>
        <time>2021-08-07T07:44:55.656Z</time>
      </trkpt>
      <trkpt lat="46.91892" lon="8.68604">
        <ele>2039</ele>
        <time>2021-08-07T07:44:56.656Z</time>
      </trkpt>
      <trkpt lat="46.91891" lon="8.68603">
        <ele>2040</ele>
        <time>2021-08-07T07:44:57.656Z</time>
      </trkpt>
      <trkpt lat="46.9189" lon="8.68603">
        <ele>2040</ele>
        <time>2021-08-07T07:44:58.656Z</time>
      </trkpt>
      <trkpt lat="46.9189" lon="8.68602">
        <ele>2041</ele>
        <time>2021-08-07T07:44:59.656Z</time>
      </trkpt>
      <trkpt lat="46.91889" lon="8.68601">
        <ele>2041</ele>
        <time>2021-08-07T07:45:00.656Z</time>
      </trkpt>
      <trkpt lat="46.91889" lon="8.68601">
        <ele>2041</ele>
        <time>2021-08-07T07:45:01.656Z</time>
      </trkpt>
      <trkpt lat="46.91889" lon="8.686">
        <ele>2040</ele>
        <time>2021-08-07T07:45:02.656Z</time>
      </trkpt>
      <trkpt lat="46.91888" lon="8.686">
        <ele>2040</ele>
        <time>2021-08-07T07:45:03.656Z</time>
      </trkpt>
      <trkpt lat="46.91888" lon="8.68599">
        <ele>2040</ele>
        <time>2021-08-07T07:45:04.656Z</time>
      </trkpt>
      <trkpt lat="46.91887" lon="8.68598">
        <ele>2040</ele>
        <time>2021-08-07T07:45:05.656Z</time>
      </trkpt>
      <trkpt lat="46.91887" lon="8.68598">
        <ele>2040</ele>
        <time>2021-08-07T07:45:06.656Z</time>
      </trkpt>
      <trkpt lat="46.91886" lon="8.68597">
        <ele>2040</ele>
        <time>2021-08-07T07:45:07.656Z</time>
      </trkpt>
      <trkpt lat="46.91886" lon="8.68597">
        <ele>2041</ele>
        <time>2021-08-07T07:45:08.656Z</time>
      </trkpt>
      <trkpt lat="46.91886" lon="8.68596">
        <ele>2041</ele>
        <time>2021-08-07T07:45:09.656Z</time>
      </trkpt>
      <trkpt lat="46.91885" lon="8.68596">
        <ele>2041</ele>
        <time>2021-08-07T07:45:10.656Z</time>
      </trkpt>
      <trkpt lat="46.91884" lon="8.68595">
        <ele>2041</ele>
        <time>2021-08-07T07:45:11.656Z</time>
      </trkpt>
      <trkpt lat="46.91884" lon="8.68594">
        <ele>2041</ele>
        <time>2021-08-07T07:45:12.656Z</time>
      </trkpt>
      <trkpt lat="46.91883" lon="8.68594">
        <ele>2041</ele>
        <time>2021-08-07T07:45:13.656Z</time>
      </trkpt>
      <trkpt lat="46.91883" lon="8.68593">
        <ele>2041</ele>
        <time>2021-08-07T07:45:14.656Z</time>
      </trkpt>
      <trkpt lat="46.91883" lon="8.68593">
        <ele>2041</ele>
        <time>2021-08-07T07:45:15.656Z</time>
      </trkpt>
      <trkpt lat="46.91882" lon="8.68592">
        <ele>2041</ele>
        <time>2021-08-07T07:45:16.656Z</time>
      </trkpt>
      <trkpt lat="46.91882" lon="8.68592">
        <ele>2041</ele>
        <time>2021-08-07T07:45:17.656Z</time>
      </trkpt>
      <trkpt lat="46.91882" lon="8.68592">
        <ele>2041</ele>
        <time>2021-08-07T07:45:18.656Z</time>
      </trkpt>
      <trkpt lat="46.91882" lon="8.68591">
        <ele>2042</ele>
        <time>2021-08-07T07:45:19.656Z</time>
      </trkpt>
      <trkpt lat="46.91882" lon="8.68591">
        <ele>2042</ele>
        <time>2021-08-07T07:45:20.656Z</time>
      </trkpt>
      <trkpt lat="46.91882" lon="8.6859">
        <ele>2042</ele>
        <time>2021-08-07T07:45:21.656Z</time>
      </trkpt>
      <trkpt lat="46.91881" lon="8.6859">
        <ele>2043</ele>
        <time>2021-08-07T07:45:22.656Z</time>
      </trkpt>
      <trkpt lat="46.91882" lon="8.6859">
        <ele>2044</ele>
        <time>2021-08-07T07:45:23.656Z</time>
      </trkpt>
      <trkpt lat="46.91881" lon="8.68588">
        <ele>2045</ele>
        <time>2021-08-07T07:45:24.657Z</time>
      </trkpt>
      <trkpt lat="46.9188" lon="8.68587">
        <ele>2045</ele>
        <time>2021-08-07T07:45:25.657Z</time>
      </trkpt>
      <trkpt lat="46.9188" lon="8.68587">
        <ele>2045</ele>
        <time>2021-08-07T07:45:26.657Z</time>
      </trkpt>
      <trkpt lat="46.9188" lon="8.68587">
        <ele>2044</ele>
        <time>2021-08-07T07:45:27.657Z</time>
      </trkpt>
      <trkpt lat="46.9188" lon="8.68586">
        <ele>2044</ele>
        <time>2021-08-07T07:45:28.656Z</time>
      </trkpt>
      <trkpt lat="46.91879" lon="8.68586">
        <ele>2045</ele>
        <time>2021-08-07T07:45:29.657Z</time>
      </trkpt>
      <trkpt lat="46.91879" lon="8.68586">
        <ele>2045</ele>
        <time>2021-08-07T07:45:30.657Z</time>
      </trkpt>
      <trkpt lat="46.91879" lon="8.68585">
        <ele>2046</ele>
        <time>2021-08-07T07:45:31.657Z</time>
      </trkpt>
      <trkpt lat="46.91878" lon="8.68585">
        <ele>2047</ele>
        <time>2021-08-07T07:45:32.657Z</time>
      </trkpt>
      <trkpt lat="46.91878" lon="8.68585">
        <ele>2047</ele>
        <time>2021-08-07T07:45:33.656Z</time>
      </trkpt>
      <trkpt lat="46.91878" lon="8.68585">
        <ele>2048</ele>
        <time>2021-08-07T07:45:34.656Z</time>
      </trkpt>
      <trkpt lat="46.91877" lon="8.68585">
        <ele>2048</ele>
        <time>2021-08-07T07:45:35.657Z</time>
      </trkpt>
      <trkpt lat="46.91877" lon="8.68584">
        <ele>2048</ele>
        <time>2021-08-07T07:45:36.656Z</time>
      </trkpt>
      <trkpt lat="46.91877" lon="8.68585">
        <ele>2049</ele>
        <time>2021-08-07T07:45:37.657Z</time>
      </trkpt>
      <trkpt lat="46.91877" lon="8.68585">
        <ele>2049</ele>
        <time>2021-08-07T07:45:38.657Z</time>
      </trkpt>
      <trkpt lat="46.91877" lon="8.68585">
        <ele>2049</ele>
        <time>2021-08-07T07:45:39.657Z</time>
      </trkpt>
      <trkpt lat="46.91876" lon="8.68584">
        <ele>2049</ele>
        <time>2021-08-07T07:45:40.657Z</time>
      </trkpt>
      <trkpt lat="46.91876" lon="8.68584">
        <ele>2049</ele>
        <time>2021-08-07T07:45:41.657Z</time>
      </trkpt>
      <trkpt lat="46.91875" lon="8.68584">
        <ele>2049</ele>
        <time>2021-08-07T07:45:42.656Z</time>
      </trkpt>
      <trkpt lat="46.91874" lon="8.68584">
        <ele>2049</ele>
        <time>2021-08-07T07:45:43.656Z</time>
      </trkpt>
      <trkpt lat="46.91874" lon="8.68584">
        <ele>2049</ele>
        <time>2021-08-07T07:45:44.657Z</time>
      </trkpt>
      <trkpt lat="46.91874" lon="8.68585">
        <ele>2049</ele>
        <time>2021-08-07T07:45:45.657Z</time>
      </trkpt>
      <trkpt lat="46.91873" lon="8.68585">
        <ele>2049</ele>
        <time>2021-08-07T07:45:46.657Z</time>
      </trkpt>
      <trkpt lat="46.91873" lon="8.68585">
        <ele>2049</ele>
        <time>2021-08-07T07:45:47.656Z</time>
      </trkpt>
      <trkpt lat="46.91872" lon="8.68586">
        <ele>2050</ele>
        <time>2021-08-07T07:45:48.656Z</time>
      </trkpt>
      <trkpt lat="46.91872" lon="8.68587">
        <ele>2049</ele>
        <time>2021-08-07T07:45:49.657Z</time>
      </trkpt>
      <trkpt lat="46.91871" lon="8.68587">
        <ele>2049</ele>
        <time>2021-08-07T07:45:50.657Z</time>
      </trkpt>
      <trkpt lat="46.91871" lon="8.68588">
        <ele>2050</ele>
        <time>2021-08-07T07:45:51.657Z</time>
      </trkpt>
      <trkpt lat="46.91871" lon="8.68589">
        <ele>2050</ele>
        <time>2021-08-07T07:45:52.656Z</time>
      </trkpt>
      <trkpt lat="46.9187" lon="8.68589">
        <ele>2050</ele>
        <time>2021-08-07T07:45:53.657Z</time>
      </trkpt>
      <trkpt lat="46.9187" lon="8.68589">
        <ele>2050</ele>
        <time>2021-08-07T07:45:54.656Z</time>
      </trkpt>
      <trkpt lat="46.91869" lon="8.68589">
        <ele>2049</ele>
        <time>2021-08-07T07:45:55.657Z</time>
      </trkpt>
      <trkpt lat="46.91869" lon="8.68588">
        <ele>2049</ele>
        <time>2021-08-07T07:45:56.656Z</time>
      </trkpt>
      <trkpt lat="46.91869" lon="8.68587">
        <ele>2049</ele>
        <time>2021-08-07T07:45:57.656Z</time>
      </trkpt>
      <trkpt lat="46.91869" lon="8.68587">
        <ele>2049</ele>
        <time>2021-08-07T07:45:58.656Z</time>
      </trkpt>
      <trkpt lat="46.91869" lon="8.68586">
        <ele>2049</ele>
        <time>2021-08-07T07:45:59.657Z</time>
      </trkpt>
      <trkpt lat="46.91869" lon="8.68586">
        <ele>2050</ele>
        <time>2021-08-07T07:46:00.657Z</time>
      </trkpt>
      <trkpt lat="46.91869" lon="8.68585">
        <ele>2050</ele>
        <time>2021-08-07T07:46:01.656Z</time>
      </trkpt>
      <trkpt lat="46.91868" lon="8.68585">
        <ele>2050</ele>
        <time>2021-08-07T07:46:02.656Z</time>
      </trkpt>
      <trkpt lat="46.91869" lon="8.68584">
        <ele>2051</ele>
        <time>2021-08-07T07:46:03.656Z</time>
      </trkpt>
      <trkpt lat="46.91868" lon="8.68583">
        <ele>2052</ele>
        <time>2021-08-07T07:46:04.656Z</time>
      </trkpt>
      <trkpt lat="46.91868" lon="8.68582">
        <ele>2052</ele>
        <time>2021-08-07T07:46:05.657Z</time>
      </trkpt>
      <trkpt lat="46.91867" lon="8.68582">
        <ele>2052</ele>
        <time>2021-08-07T07:46:06.657Z</time>
      </trkpt>
      <trkpt lat="46.91866" lon="8.68581">
        <ele>2053</ele>
        <time>2021-08-07T07:46:07.657Z</time>
      </trkpt>
      <trkpt lat="46.91866" lon="8.6858">
        <ele>2053</ele>
        <time>2021-08-07T07:46:08.657Z</time>
      </trkpt>
      <trkpt lat="46.91866" lon="8.6858">
        <ele>2053</ele>
        <time>2021-08-07T07:46:09.657Z</time>
      </trkpt>
      <trkpt lat="46.91866" lon="8.6858">
        <ele>2053</ele>
        <time>2021-08-07T07:46:10.656Z</time>
      </trkpt>
      <trkpt lat="46.91866" lon="8.68579">
        <ele>2053</ele>
        <time>2021-08-07T07:46:11.657Z</time>
      </trkpt>
      <trkpt lat="46.91864" lon="8.68577">
        <ele>2056</ele>
        <time>2021-08-07T07:46:12.657Z</time>
      </trkpt>
      <trkpt lat="46.91864" lon="8.68576">
        <ele>2056</ele>
        <time>2021-08-07T07:46:13.657Z</time>
      </trkpt>
      <trkpt lat="46.91864" lon="8.68576">
        <ele>2057</ele>
        <time>2021-08-07T07:46:14.656Z</time>
      </trkpt>
      <trkpt lat="46.91864" lon="8.68573">
        <ele>2058</ele>
        <time>2021-08-07T07:46:15.657Z</time>
      </trkpt>
      <trkpt lat="46.91863" lon="8.68572">
        <ele>2059</ele>
        <time>2021-08-07T07:46:16.657Z</time>
      </trkpt>
      <trkpt lat="46.91863" lon="8.68571">
        <ele>2059</ele>
        <time>2021-08-07T07:46:17.657Z</time>
      </trkpt>
      <trkpt lat="46.91862" lon="8.68571">
        <ele>2059</ele>
        <time>2021-08-07T07:46:18.657Z</time>
      </trkpt>
      <trkpt lat="46.91862" lon="8.6857">
        <ele>2059</ele>
        <time>2021-08-07T07:46:19.656Z</time>
      </trkpt>
      <trkpt lat="46.91862" lon="8.6857">
        <ele>2059</ele>
        <time>2021-08-07T07:46:20.657Z</time>
      </trkpt>
      <trkpt lat="46.91862" lon="8.6857">
        <ele>2059</ele>
        <time>2021-08-07T07:46:21.657Z</time>
      </trkpt>
      <trkpt lat="46.91861" lon="8.68571">
        <ele>2058</ele>
        <time>2021-08-07T07:46:22.659Z</time>
      </trkpt>
      <trkpt lat="46.91861" lon="8.68571">
        <ele>2057</ele>
        <time>2021-08-07T07:46:23.658Z</time>
      </trkpt>
      <trkpt lat="46.91861" lon="8.68571">
        <ele>2057</ele>
        <time>2021-08-07T07:46:24.658Z</time>
      </trkpt>
      <trkpt lat="46.91861" lon="8.6857">
        <ele>2057</ele>
        <time>2021-08-07T07:46:25.659Z</time>
      </trkpt>
      <trkpt lat="46.91861" lon="8.6857">
        <ele>2057</ele>
        <time>2021-08-07T07:46:26.659Z</time>
      </trkpt>
      <trkpt lat="46.91861" lon="8.68569">
        <ele>2057</ele>
        <time>2021-08-07T07:46:27.659Z</time>
      </trkpt>
      <trkpt lat="46.9186" lon="8.68568">
        <ele>2057</ele>
        <time>2021-08-07T07:46:28.659Z</time>
      </trkpt>
      <trkpt lat="46.9186" lon="8.68567">
        <ele>2056</ele>
        <time>2021-08-07T07:46:29.658Z</time>
      </trkpt>
      <trkpt lat="46.91859" lon="8.68567">
        <ele>2056</ele>
        <time>2021-08-07T07:46:30.659Z</time>
      </trkpt>
      <trkpt lat="46.91859" lon="8.68566">
        <ele>2056</ele>
        <time>2021-08-07T07:46:31.658Z</time>
      </trkpt>
      <trkpt lat="46.91858" lon="8.68566">
        <ele>2056</ele>
        <time>2021-08-07T07:46:32.658Z</time>
      </trkpt>
      <trkpt lat="46.91857" lon="8.68565">
        <ele>2055</ele>
        <time>2021-08-07T07:46:33.658Z</time>
      </trkpt>
      <trkpt lat="46.91857" lon="8.68565">
        <ele>2055</ele>
        <time>2021-08-07T07:46:34.659Z</time>
      </trkpt>
      <trkpt lat="46.91856" lon="8.68564">
        <ele>2055</ele>
        <time>2021-08-07T07:46:35.658Z</time>
      </trkpt>
      <trkpt lat="46.91856" lon="8.68563">
        <ele>2055</ele>
        <time>2021-08-07T07:46:36.658Z</time>
      </trkpt>
      <trkpt lat="46.91855" lon="8.68563">
        <ele>2055</ele>
        <time>2021-08-07T07:46:37.658Z</time>
      </trkpt>
      <trkpt lat="46.91855" lon="8.68563">
        <ele>2054</ele>
        <time>2021-08-07T07:46:38.659Z</time>
      </trkpt>
      <trkpt lat="46.91854" lon="8.68563">
        <ele>2054</ele>
        <time>2021-08-07T07:46:39.658Z</time>
      </trkpt>
      <trkpt lat="46.91854" lon="8.68563">
        <ele>2054</ele>
        <time>2021-08-07T07:46:40.659Z</time>
      </trkpt>
      <trkpt lat="46.91854" lon="8.68564">
        <ele>2054</ele>
        <time>2021-08-07T07:46:41.658Z</time>
      </trkpt>
      <trkpt lat="46.91854" lon="8.68564">
        <ele>2054</ele>
        <time>2021-08-07T07:46:42.658Z</time>
      </trkpt>
      <trkpt lat="46.9185" lon="8.68564">
        <ele>2058</ele>
        <time>2021-08-07T07:46:43.660Z</time>
      </trkpt>
      <trkpt lat="46.9185" lon="8.68565">
        <ele>2059</ele>
        <time>2021-08-07T07:46:44.659Z</time>
      </trkpt>
      <trkpt lat="46.9185" lon="8.68566">
        <ele>2059</ele>
        <time>2021-08-07T07:46:45.659Z</time>
      </trkpt>
      <trkpt lat="46.9185" lon="8.68566">
        <ele>2060</ele>
        <time>2021-08-07T07:46:46.659Z</time>
      </trkpt>
      <trkpt lat="46.91851" lon="8.68567">
        <ele>2060</ele>
        <time>2021-08-07T07:46:47.659Z</time>
      </trkpt>
      <trkpt lat="46.91853" lon="8.68568">
        <ele>2060</ele>
        <time>2021-08-07T07:46:48.659Z</time>
      </trkpt>
      <trkpt lat="46.91854" lon="8.68568">
        <ele>2060</ele>
        <time>2021-08-07T07:46:49.660Z</time>
      </trkpt>
      <trkpt lat="46.91854" lon="8.68568">
        <ele>2060</ele>
        <time>2021-08-07T07:46:50.660Z</time>
      </trkpt>
      <trkpt lat="46.91853" lon="8.68566">
        <ele>2062</ele>
        <time>2021-08-07T07:46:51.660Z</time>
      </trkpt>
      <trkpt lat="46.91853" lon="8.68566">
        <ele>2062</ele>
        <time>2021-08-07T07:46:52.659Z</time>
      </trkpt>
      <trkpt lat="46.91853" lon="8.68565">
        <ele>2063</ele>
        <time>2021-08-07T07:46:53.659Z</time>
      </trkpt>
      <trkpt lat="46.91852" lon="8.68565">
        <ele>2063</ele>
        <time>2021-08-07T07:46:54.660Z</time>
      </trkpt>
      <trkpt lat="46.91852" lon="8.68562">
        <ele>2063</ele>
        <time>2021-08-07T07:46:55.661Z</time>
      </trkpt>
      <trkpt lat="46.91851" lon="8.68561">
        <ele>2063</ele>
        <time>2021-08-07T07:46:56.660Z</time>
      </trkpt>
      <trkpt lat="46.91851" lon="8.68561">
        <ele>2063</ele>
        <time>2021-08-07T07:46:57.660Z</time>
      </trkpt>
      <trkpt lat="46.91851" lon="8.68561">
        <ele>2062</ele>
        <time>2021-08-07T07:46:58.661Z</time>
      </trkpt>
      <trkpt lat="46.91852" lon="8.6856">
        <ele>2062</ele>
        <time>2021-08-07T07:46:59.661Z</time>
      </trkpt>
      <trkpt lat="46.91852" lon="8.6856">
        <ele>2062</ele>
        <time>2021-08-07T07:47:00.661Z</time>
      </trkpt>
      <trkpt lat="46.91852" lon="8.68561">
        <ele>2062</ele>
        <time>2021-08-07T07:47:01.660Z</time>
      </trkpt>
      <trkpt lat="46.91851" lon="8.68563">
        <ele>2060</ele>
        <time>2021-08-07T07:47:02.661Z</time>
      </trkpt>
      <trkpt lat="46.91851" lon="8.68563">
        <ele>2060</ele>
        <time>2021-08-07T07:47:03.661Z</time>
      </trkpt>
      <trkpt lat="46.91852" lon="8.68564">
        <ele>2060</ele>
        <time>2021-08-07T07:47:04.660Z</time>
      </trkpt>
      <trkpt lat="46.91852" lon="8.68564">
        <ele>2060</ele>
        <time>2021-08-07T07:47:05.661Z</time>
      </trkpt>
      <trkpt lat="46.91851" lon="8.68564">
        <ele>2061</ele>
        <time>2021-08-07T07:47:06.660Z</time>
      </trkpt>
      <trkpt lat="46.91851" lon="8.68565">
        <ele>2061</ele>
        <time>2021-08-07T07:47:07.661Z</time>
      </trkpt>
      <trkpt lat="46.91851" lon="8.68566">
        <ele>2062</ele>
        <time>2021-08-07T07:47:08.661Z</time>
      </trkpt>
      <trkpt lat="46.91851" lon="8.68568">
        <ele>2062</ele>
        <time>2021-08-07T07:47:09.661Z</time>
      </trkpt>
      <trkpt lat="46.9185" lon="8.68568">
        <ele>2062</ele>
        <time>2021-08-07T07:47:10.661Z</time>
      </trkpt>
      <trkpt lat="46.9185" lon="8.68569">
        <ele>2062</ele>
        <time>2021-08-07T07:47:11.660Z</time>
      </trkpt>
      <trkpt lat="46.91849" lon="8.68569">
        <ele>2062</ele>
        <time>2021-08-07T07:47:12.661Z</time>
      </trkpt>
      <trkpt lat="46.91849" lon="8.6857">
        <ele>2062</ele>
        <time>2021-08-07T07:47:13.661Z</time>
      </trkpt>
      <trkpt lat="46.91848" lon="8.6857">
        <ele>2062</ele>
        <time>2021-08-07T07:47:14.661Z</time>
      </trkpt>
      <trkpt lat="46.91847" lon="8.6857">
        <ele>2062</ele>
        <time>2021-08-07T07:47:15.660Z</time>
      </trkpt>
      <trkpt lat="46.91846" lon="8.68571">
        <ele>2062</ele>
        <time>2021-08-07T07:47:16.661Z</time>
      </trkpt>
      <trkpt lat="46.91845" lon="8.68571">
        <ele>2062</ele>
        <time>2021-08-07T07:47:17.661Z</time>
      </trkpt>
      <trkpt lat="46.91844" lon="8.68571">
        <ele>2062</ele>
        <time>2021-08-07T07:47:18.661Z</time>
      </trkpt>
      <trkpt lat="46.91843" lon="8.68571">
        <ele>2061</ele>
        <time>2021-08-07T07:47:19.661Z</time>
      </trkpt>
      <trkpt lat="46.91842" lon="8.68571">
        <ele>2061</ele>
        <time>2021-08-07T07:47:20.661Z</time>
      </trkpt>
      <trkpt lat="46.91841" lon="8.68571">
        <ele>2061</ele>
        <time>2021-08-07T07:47:21.660Z</time>
      </trkpt>
      <trkpt lat="46.9184" lon="8.68571">
        <ele>2060</ele>
        <time>2021-08-07T07:47:22.660Z</time>
      </trkpt>
      <trkpt lat="46.91839" lon="8.68571">
        <ele>2061</ele>
        <time>2021-08-07T07:47:23.661Z</time>
      </trkpt>
      <trkpt lat="46.91839" lon="8.68572">
        <ele>2061</ele>
        <time>2021-08-07T07:47:24.661Z</time>
      </trkpt>
      <trkpt lat="46.91839" lon="8.68572">
        <ele>2061</ele>
        <time>2021-08-07T07:47:25.660Z</time>
      </trkpt>
      <trkpt lat="46.91838" lon="8.68572">
        <ele>2062</ele>
        <time>2021-08-07T07:47:26.661Z</time>
      </trkpt>
      <trkpt lat="46.91837" lon="8.68572">
        <ele>2062</ele>
        <time>2021-08-07T07:47:27.661Z</time>
      </trkpt>
      <trkpt lat="46.91836" lon="8.68573">
        <ele>2062</ele>
        <time>2021-08-07T07:47:28.661Z</time>
      </trkpt>
      <trkpt lat="46.91835" lon="8.68573">
        <ele>2062</ele>
        <time>2021-08-07T07:47:29.661Z</time>
      </trkpt>
      <trkpt lat="46.91834" lon="8.68574">
        <ele>2062</ele>
        <time>2021-08-07T07:47:30.661Z</time>
      </trkpt>
      <trkpt lat="46.91833" lon="8.68574">
        <ele>2062</ele>
        <time>2021-08-07T07:47:31.660Z</time>
      </trkpt>
      <trkpt lat="46.91832" lon="8.68574">
        <ele>2062</ele>
        <time>2021-08-07T07:47:32.660Z</time>
      </trkpt>
      <trkpt lat="46.91831" lon="8.68574">
        <ele>2061</ele>
        <time>2021-08-07T07:47:33.661Z</time>
      </trkpt>
      <trkpt lat="46.9183" lon="8.68574">
        <ele>2061</ele>
        <time>2021-08-07T07:47:34.661Z</time>
      </trkpt>
      <trkpt lat="46.91829" lon="8.68574">
        <ele>2061</ele>
        <time>2021-08-07T07:47:35.661Z</time>
      </trkpt>
      <trkpt lat="46.91829" lon="8.68574">
        <ele>2060</ele>
        <time>2021-08-07T07:47:36.661Z</time>
      </trkpt>
      <trkpt lat="46.91828" lon="8.68575">
        <ele>2060</ele>
        <time>2021-08-07T07:47:37.660Z</time>
      </trkpt>
      <trkpt lat="46.91827" lon="8.68575">
        <ele>2060</ele>
        <time>2021-08-07T07:47:38.661Z</time>
      </trkpt>
      <trkpt lat="46.91827" lon="8.68576">
        <ele>2060</ele>
        <time>2021-08-07T07:47:39.661Z</time>
      </trkpt>
      <trkpt lat="46.91826" lon="8.68577">
        <ele>2060</ele>
        <time>2021-08-07T07:47:40.661Z</time>
      </trkpt>
      <trkpt lat="46.91826" lon="8.68578">
        <ele>2060</ele>
        <time>2021-08-07T07:47:41.660Z</time>
      </trkpt>
      <trkpt lat="46.91825" lon="8.68578">
        <ele>2060</ele>
        <time>2021-08-07T07:47:42.660Z</time>
      </trkpt>
      <trkpt lat="46.91824" lon="8.68578">
        <ele>2059</ele>
        <time>2021-08-07T07:47:43.661Z</time>
      </trkpt>
      <trkpt lat="46.91823" lon="8.68579">
        <ele>2058</ele>
        <time>2021-08-07T07:47:44.661Z</time>
      </trkpt>
      <trkpt lat="46.91822" lon="8.68579">
        <ele>2058</ele>
        <time>2021-08-07T07:47:45.661Z</time>
      </trkpt>
      <trkpt lat="46.91822" lon="8.6858">
        <ele>2058</ele>
        <time>2021-08-07T07:47:46.661Z</time>
      </trkpt>
      <trkpt lat="46.91821" lon="8.6858">
        <ele>2057</ele>
        <time>2021-08-07T07:47:47.661Z</time>
      </trkpt>
      <trkpt lat="46.91819" lon="8.6858">
        <ele>2058</ele>
        <time>2021-08-07T07:47:48.661Z</time>
      </trkpt>
      <trkpt lat="46.91819" lon="8.68581">
        <ele>2059</ele>
        <time>2021-08-07T07:47:49.661Z</time>
      </trkpt>
      <trkpt lat="46.91818" lon="8.68581">
        <ele>2060</ele>
        <time>2021-08-07T07:47:50.661Z</time>
      </trkpt>
      <trkpt lat="46.91817" lon="8.68581">
        <ele>2061</ele>
        <time>2021-08-07T07:47:51.661Z</time>
      </trkpt>
      <trkpt lat="46.91816" lon="8.68581">
        <ele>2061</ele>
        <time>2021-08-07T07:47:52.661Z</time>
      </trkpt>
      <trkpt lat="46.91816" lon="8.68581">
        <ele>2062</ele>
        <time>2021-08-07T07:47:53.661Z</time>
      </trkpt>
      <trkpt lat="46.91815" lon="8.68581">
        <ele>2063</ele>
        <time>2021-08-07T07:47:54.661Z</time>
      </trkpt>
      <trkpt lat="46.91813" lon="8.68581">
        <ele>2064</ele>
        <time>2021-08-07T07:47:55.660Z</time>
      </trkpt>
      <trkpt lat="46.91812" lon="8.68581">
        <ele>2064</ele>
        <time>2021-08-07T07:47:56.661Z</time>
      </trkpt>
      <trkpt lat="46.91812" lon="8.6858">
        <ele>2065</ele>
        <time>2021-08-07T07:47:57.661Z</time>
      </trkpt>
      <trkpt lat="46.91811" lon="8.68579">
        <ele>2065</ele>
        <time>2021-08-07T07:47:58.661Z</time>
      </trkpt>
      <trkpt lat="46.9181" lon="8.68579">
        <ele>2065</ele>
        <time>2021-08-07T07:47:59.661Z</time>
      </trkpt>
      <trkpt lat="46.91809" lon="8.68579">
        <ele>2066</ele>
        <time>2021-08-07T07:48:00.661Z</time>
      </trkpt>
      <trkpt lat="46.91809" lon="8.68579">
        <ele>2066</ele>
        <time>2021-08-07T07:48:01.661Z</time>
      </trkpt>
      <trkpt lat="46.91809" lon="8.68579">
        <ele>2066</ele>
        <time>2021-08-07T07:48:02.661Z</time>
      </trkpt>
      <trkpt lat="46.91808" lon="8.6858">
        <ele>2066</ele>
        <time>2021-08-07T07:48:03.660Z</time>
      </trkpt>
      <trkpt lat="46.91807" lon="8.6858">
        <ele>2066</ele>
        <time>2021-08-07T07:48:04.660Z</time>
      </trkpt>
      <trkpt lat="46.91807" lon="8.6858">
        <ele>2066</ele>
        <time>2021-08-07T07:48:05.661Z</time>
      </trkpt>
      <trkpt lat="46.91806" lon="8.6858">
        <ele>2066</ele>
        <time>2021-08-07T07:48:06.660Z</time>
      </trkpt>
      <trkpt lat="46.91806" lon="8.6858">
        <ele>2066</ele>
        <time>2021-08-07T07:48:07.661Z</time>
      </trkpt>
      <trkpt lat="46.91805" lon="8.6858">
        <ele>2066</ele>
        <time>2021-08-07T07:48:08.660Z</time>
      </trkpt>
      <trkpt lat="46.91805" lon="8.6858">
        <ele>2066</ele>
        <time>2021-08-07T07:48:09.660Z</time>
      </trkpt>
      <trkpt lat="46.91804" lon="8.6858">
        <ele>2066</ele>
        <time>2021-08-07T07:48:10.660Z</time>
      </trkpt>
      <trkpt lat="46.91804" lon="8.68581">
        <ele>2066</ele>
        <time>2021-08-07T07:48:11.660Z</time>
      </trkpt>
      <trkpt lat="46.91804" lon="8.68581">
        <ele>2066</ele>
        <time>2021-08-07T07:48:12.660Z</time>
      </trkpt>
      <trkpt lat="46.91804" lon="8.68582">
        <ele>2066</ele>
        <time>2021-08-07T07:48:13.661Z</time>
      </trkpt>
      <trkpt lat="46.91804" lon="8.68581">
        <ele>2066</ele>
        <time>2021-08-07T07:48:14.661Z</time>
      </trkpt>
      <trkpt lat="46.91803" lon="8.68579">
        <ele>2065</ele>
        <time>2021-08-07T07:48:15.661Z</time>
      </trkpt>
      <trkpt lat="46.91803" lon="8.68579">
        <ele>2064</ele>
        <time>2021-08-07T07:48:16.660Z</time>
      </trkpt>
      <trkpt lat="46.91802" lon="8.68578">
        <ele>2064</ele>
        <time>2021-08-07T07:48:17.661Z</time>
      </trkpt>
      <trkpt lat="46.91802" lon="8.68578">
        <ele>2064</ele>
        <time>2021-08-07T07:48:18.661Z</time>
      </trkpt>
      <trkpt lat="46.91801" lon="8.68577">
        <ele>2064</ele>
        <time>2021-08-07T07:48:19.661Z</time>
      </trkpt>
      <trkpt lat="46.918" lon="8.68576">
        <ele>2065</ele>
        <time>2021-08-07T07:48:20.661Z</time>
      </trkpt>
      <trkpt lat="46.91799" lon="8.68576">
        <ele>2065</ele>
        <time>2021-08-07T07:48:21.661Z</time>
      </trkpt>
      <trkpt lat="46.91798" lon="8.68576">
        <ele>2065</ele>
        <time>2021-08-07T07:48:22.661Z</time>
      </trkpt>
      <trkpt lat="46.91796" lon="8.68576">
        <ele>2065</ele>
        <time>2021-08-07T07:48:23.661Z</time>
      </trkpt>
      <trkpt lat="46.91796" lon="8.68576">
        <ele>2065</ele>
        <time>2021-08-07T07:48:24.661Z</time>
      </trkpt>
      <trkpt lat="46.91795" lon="8.68575">
        <ele>2066</ele>
        <time>2021-08-07T07:48:25.661Z</time>
      </trkpt>
      <trkpt lat="46.91794" lon="8.68575">
        <ele>2066</ele>
        <time>2021-08-07T07:48:26.661Z</time>
      </trkpt>
      <trkpt lat="46.91793" lon="8.68575">
        <ele>2067</ele>
        <time>2021-08-07T07:48:27.661Z</time>
      </trkpt>
      <trkpt lat="46.91793" lon="8.68573">
        <ele>2067</ele>
        <time>2021-08-07T07:48:28.660Z</time>
      </trkpt>
      <trkpt lat="46.91791" lon="8.68572">
        <ele>2067</ele>
        <time>2021-08-07T07:48:29.660Z</time>
      </trkpt>
      <trkpt lat="46.9179" lon="8.68572">
        <ele>2067</ele>
        <time>2021-08-07T07:48:30.660Z</time>
      </trkpt>
      <trkpt lat="46.91789" lon="8.68571">
        <ele>2068</ele>
        <time>2021-08-07T07:48:31.661Z</time>
      </trkpt>
      <trkpt lat="46.91788" lon="8.6857">
        <ele>2068</ele>
        <time>2021-08-07T07:48:32.661Z</time>
      </trkpt>
      <trkpt lat="46.91787" lon="8.68569">
        <ele>2068</ele>
        <time>2021-08-07T07:48:33.660Z</time>
      </trkpt>
      <trkpt lat="46.91786" lon="8.68568">
        <ele>2068</ele>
        <time>2021-08-07T07:48:34.661Z</time>
      </trkpt>
      <trkpt lat="46.91784" lon="8.68568">
        <ele>2068</ele>
        <time>2021-08-07T07:48:35.661Z</time>
      </trkpt>
      <trkpt lat="46.91784" lon="8.68567">
        <ele>2068</ele>
        <time>2021-08-07T07:48:36.661Z</time>
      </trkpt>
      <trkpt lat="46.91783" lon="8.68567">
        <ele>2068</ele>
        <time>2021-08-07T07:48:37.661Z</time>
      </trkpt>
      <trkpt lat="46.91782" lon="8.68567">
        <ele>2068</ele>
        <time>2021-08-07T07:48:38.661Z</time>
      </trkpt>
      <trkpt lat="46.91781" lon="8.68566">
        <ele>2068</ele>
        <time>2021-08-07T07:48:39.660Z</time>
      </trkpt>
      <trkpt lat="46.9178" lon="8.68565">
        <ele>2068</ele>
        <time>2021-08-07T07:48:40.661Z</time>
      </trkpt>
      <trkpt lat="46.9178" lon="8.68564">
        <ele>2068</ele>
        <time>2021-08-07T07:48:41.661Z</time>
      </trkpt>
      <trkpt lat="46.91779" lon="8.68564">
        <ele>2068</ele>
        <time>2021-08-07T07:48:42.661Z</time>
      </trkpt>
      <trkpt lat="46.91778" lon="8.68563">
        <ele>2069</ele>
        <time>2021-08-07T07:48:43.660Z</time>
      </trkpt>
      <trkpt lat="46.91777" lon="8.68562">
        <ele>2069</ele>
        <time>2021-08-07T07:48:44.661Z</time>
      </trkpt>
      <trkpt lat="46.91776" lon="8.68561">
        <ele>2070</ele>
        <time>2021-08-07T07:48:45.661Z</time>
      </trkpt>
      <trkpt lat="46.91775" lon="8.68561">
        <ele>2070</ele>
        <time>2021-08-07T07:48:46.661Z</time>
      </trkpt>
      <trkpt lat="46.91774" lon="8.68562">
        <ele>2071</ele>
        <time>2021-08-07T07:48:47.660Z</time>
      </trkpt>
      <trkpt lat="46.91774" lon="8.68563">
        <ele>2072</ele>
        <time>2021-08-07T07:48:48.660Z</time>
      </trkpt>
      <trkpt lat="46.91773" lon="8.68563">
        <ele>2072</ele>
        <time>2021-08-07T07:48:49.660Z</time>
      </trkpt>
      <trkpt lat="46.91773" lon="8.68563">
        <ele>2073</ele>
        <time>2021-08-07T07:48:50.661Z</time>
      </trkpt>
      <trkpt lat="46.91771" lon="8.68562">
        <ele>2073</ele>
        <time>2021-08-07T07:48:51.661Z</time>
      </trkpt>
      <trkpt lat="46.9177" lon="8.68562">
        <ele>2073</ele>
        <time>2021-08-07T07:48:52.661Z</time>
      </trkpt>
      <trkpt lat="46.91769" lon="8.68562">
        <ele>2073</ele>
        <time>2021-08-07T07:48:53.661Z</time>
      </trkpt>
      <trkpt lat="46.91769" lon="8.68562">
        <ele>2072</ele>
        <time>2021-08-07T07:48:54.661Z</time>
      </trkpt>
      <trkpt lat="46.91768" lon="8.68561">
        <ele>2072</ele>
        <time>2021-08-07T07:48:55.661Z</time>
      </trkpt>
      <trkpt lat="46.91767" lon="8.68561">
        <ele>2072</ele>
        <time>2021-08-07T07:48:56.660Z</time>
      </trkpt>
      <trkpt lat="46.91767" lon="8.6856">
        <ele>2072</ele>
        <time>2021-08-07T07:48:57.660Z</time>
      </trkpt>
      <trkpt lat="46.91766" lon="8.68559">
        <ele>2073</ele>
        <time>2021-08-07T07:48:58.661Z</time>
      </trkpt>
      <trkpt lat="46.91765" lon="8.68558">
        <ele>2073</ele>
        <time>2021-08-07T07:48:59.660Z</time>
      </trkpt>
      <trkpt lat="46.91764" lon="8.68557">
        <ele>2073</ele>
        <time>2021-08-07T07:49:00.661Z</time>
      </trkpt>
      <trkpt lat="46.91763" lon="8.68556">
        <ele>2073</ele>
        <time>2021-08-07T07:49:01.660Z</time>
      </trkpt>
      <trkpt lat="46.91762" lon="8.68555">
        <ele>2074</ele>
        <time>2021-08-07T07:49:02.661Z</time>
      </trkpt>
      <trkpt lat="46.91762" lon="8.68554">
        <ele>2074</ele>
        <time>2021-08-07T07:49:03.661Z</time>
      </trkpt>
      <trkpt lat="46.9176" lon="8.68554">
        <ele>2074</ele>
        <time>2021-08-07T07:49:04.661Z</time>
      </trkpt>
      <trkpt lat="46.9176" lon="8.68553">
        <ele>2074</ele>
        <time>2021-08-07T07:49:05.661Z</time>
      </trkpt>
      <trkpt lat="46.91759" lon="8.68553">
        <ele>2074</ele>
        <time>2021-08-07T07:49:06.661Z</time>
      </trkpt>
      <trkpt lat="46.91757" lon="8.68552">
        <ele>2074</ele>
        <time>2021-08-07T07:49:07.661Z</time>
      </trkpt>
      <trkpt lat="46.91756" lon="8.68551">
        <ele>2074</ele>
        <time>2021-08-07T07:49:08.661Z</time>
      </trkpt>
      <trkpt lat="46.91755" lon="8.6855">
        <ele>2075</ele>
        <time>2021-08-07T07:49:09.661Z</time>
      </trkpt>
      <trkpt lat="46.91754" lon="8.6855">
        <ele>2075</ele>
        <time>2021-08-07T07:49:10.660Z</time>
      </trkpt>
      <trkpt lat="46.91753" lon="8.68549">
        <ele>2075</ele>
        <time>2021-08-07T07:49:11.660Z</time>
      </trkpt>
      <trkpt lat="46.91752" lon="8.68549">
        <ele>2076</ele>
        <time>2021-08-07T07:49:12.661Z</time>
      </trkpt>
      <trkpt lat="46.91751" lon="8.68548">
        <ele>2076</ele>
        <time>2021-08-07T07:49:13.660Z</time>
      </trkpt>
      <trkpt lat="46.9175" lon="8.68548">
        <ele>2076</ele>
        <time>2021-08-07T07:49:14.661Z</time>
      </trkpt>
      <trkpt lat="46.91749" lon="8.68548">
        <ele>2076</ele>
        <time>2021-08-07T07:49:15.661Z</time>
      </trkpt>
      <trkpt lat="46.91748" lon="8.68547">
        <ele>2076</ele>
        <time>2021-08-07T07:49:16.660Z</time>
      </trkpt>
      <trkpt lat="46.91747" lon="8.68547">
        <ele>2076</ele>
        <time>2021-08-07T07:49:17.660Z</time>
      </trkpt>
      <trkpt lat="46.91746" lon="8.68546">
        <ele>2077</ele>
        <time>2021-08-07T07:49:18.661Z</time>
      </trkpt>
      <trkpt lat="46.91745" lon="8.68545">
        <ele>2077</ele>
        <time>2021-08-07T07:49:19.661Z</time>
      </trkpt>
      <trkpt lat="46.91745" lon="8.68544">
        <ele>2078</ele>
        <time>2021-08-07T07:49:20.661Z</time>
      </trkpt>
      <trkpt lat="46.91744" lon="8.68544">
        <ele>2077</ele>
        <time>2021-08-07T07:49:21.661Z</time>
      </trkpt>
      <trkpt lat="46.91744" lon="8.68544">
        <ele>2077</ele>
        <time>2021-08-07T07:49:22.661Z</time>
      </trkpt>
      <trkpt lat="46.91743" lon="8.68543">
        <ele>2077</ele>
        <time>2021-08-07T07:49:23.661Z</time>
      </trkpt>
      <trkpt lat="46.91742" lon="8.68543">
        <ele>2078</ele>
        <time>2021-08-07T07:49:24.661Z</time>
      </trkpt>
      <trkpt lat="46.91742" lon="8.68543">
        <ele>2078</ele>
        <time>2021-08-07T07:49:25.661Z</time>
      </trkpt>
      <trkpt lat="46.91742" lon="8.68543">
        <ele>2078</ele>
        <time>2021-08-07T07:49:26.661Z</time>
      </trkpt>
      <trkpt lat="46.91742" lon="8.68543">
        <ele>2079</ele>
        <time>2021-08-07T07:49:27.661Z</time>
      </trkpt>
      <trkpt lat="46.91742" lon="8.68544">
        <ele>2079</ele>
        <time>2021-08-07T07:49:28.660Z</time>
      </trkpt>
      <trkpt lat="46.91746" lon="8.68552">
        <ele>2091</ele>
        <time>2021-08-07T07:49:29.661Z</time>
      </trkpt>
      <trkpt lat="46.91746" lon="8.68552">
        <ele>2091</ele>
        <time>2021-08-07T07:49:30.662Z</time>
      </trkpt>
      <trkpt lat="46.91746" lon="8.68552">
        <ele>2090</ele>
        <time>2021-08-07T07:49:31.661Z</time>
      </trkpt>
      <trkpt lat="46.91747" lon="8.68549">
        <ele>2086</ele>
        <time>2021-08-07T07:49:32.663Z</time>
      </trkpt>
      <trkpt lat="46.91746" lon="8.6855">
        <ele>2088</ele>
        <time>2021-08-07T07:49:33.663Z</time>
      </trkpt>
      <trkpt lat="46.91745" lon="8.6855">
        <ele>2088</ele>
        <time>2021-08-07T07:49:34.662Z</time>
      </trkpt>
      <trkpt lat="46.91745" lon="8.68551">
        <ele>2087</ele>
        <time>2021-08-07T07:49:35.662Z</time>
      </trkpt>
      <trkpt lat="46.91744" lon="8.68552">
        <ele>2087</ele>
        <time>2021-08-07T07:49:36.662Z</time>
      </trkpt>
      <trkpt lat="46.91743" lon="8.68554">
        <ele>2088</ele>
        <time>2021-08-07T07:49:37.662Z</time>
      </trkpt>
      <trkpt lat="46.91742" lon="8.68555">
        <ele>2088</ele>
        <time>2021-08-07T07:49:38.662Z</time>
      </trkpt>
      <trkpt lat="46.91742" lon="8.68557">
        <ele>2088</ele>
        <time>2021-08-07T07:49:39.662Z</time>
      </trkpt>
      <trkpt lat="46.91741" lon="8.68558">
        <ele>2088</ele>
        <time>2021-08-07T07:49:40.662Z</time>
      </trkpt>
      <trkpt lat="46.9174" lon="8.68559">
        <ele>2088</ele>
        <time>2021-08-07T07:49:41.662Z</time>
      </trkpt>
      <trkpt lat="46.91739" lon="8.6856">
        <ele>2087</ele>
        <time>2021-08-07T07:49:42.662Z</time>
      </trkpt>
      <trkpt lat="46.91738" lon="8.68561">
        <ele>2087</ele>
        <time>2021-08-07T07:49:43.662Z</time>
      </trkpt>
      <trkpt lat="46.91738" lon="8.68561">
        <ele>2086</ele>
        <time>2021-08-07T07:49:44.663Z</time>
      </trkpt>
      <trkpt lat="46.91737" lon="8.68562">
        <ele>2086</ele>
        <time>2021-08-07T07:49:45.662Z</time>
      </trkpt>
      <trkpt lat="46.91736" lon="8.68563">
        <ele>2086</ele>
        <time>2021-08-07T07:49:46.663Z</time>
      </trkpt>
      <trkpt lat="46.91735" lon="8.68563">
        <ele>2086</ele>
        <time>2021-08-07T07:49:47.663Z</time>
      </trkpt>
      <trkpt lat="46.91734" lon="8.68565">
        <ele>2085</ele>
        <time>2021-08-07T07:49:48.663Z</time>
      </trkpt>
      <trkpt lat="46.91734" lon="8.68566">
        <ele>2085</ele>
        <time>2021-08-07T07:49:49.663Z</time>
      </trkpt>
      <trkpt lat="46.91734" lon="8.68567">
        <ele>2085</ele>
        <time>2021-08-07T07:49:50.663Z</time>
      </trkpt>
      <trkpt lat="46.91733" lon="8.68568">
        <ele>2085</ele>
        <time>2021-08-07T07:49:51.663Z</time>
      </trkpt>
      <trkpt lat="46.91732" lon="8.68569">
        <ele>2085</ele>
        <time>2021-08-07T07:49:52.662Z</time>
      </trkpt>
      <trkpt lat="46.91731" lon="8.6857">
        <ele>2085</ele>
        <time>2021-08-07T07:49:53.663Z</time>
      </trkpt>
      <trkpt lat="46.91731" lon="8.68572">
        <ele>2085</ele>
        <time>2021-08-07T07:49:54.662Z</time>
      </trkpt>
      <trkpt lat="46.9173" lon="8.68574">
        <ele>2085</ele>
        <time>2021-08-07T07:49:55.663Z</time>
      </trkpt>
      <trkpt lat="46.9173" lon="8.68575">
        <ele>2085</ele>
        <time>2021-08-07T07:49:56.662Z</time>
      </trkpt>
      <trkpt lat="46.91729" lon="8.68576">
        <ele>2084</ele>
        <time>2021-08-07T07:49:57.663Z</time>
      </trkpt>
      <trkpt lat="46.91729" lon="8.68577">
        <ele>2084</ele>
        <time>2021-08-07T07:49:58.662Z</time>
      </trkpt>
      <trkpt lat="46.91728" lon="8.68578">
        <ele>2085</ele>
        <time>2021-08-07T07:49:59.663Z</time>
      </trkpt>
      <trkpt lat="46.91728" lon="8.68579">
        <ele>2084</ele>
        <time>2021-08-07T07:50:00.662Z</time>
      </trkpt>
      <trkpt lat="46.91727" lon="8.6858">
        <ele>2084</ele>
        <time>2021-08-07T07:50:01.662Z</time>
      </trkpt>
      <trkpt lat="46.91726" lon="8.68581">
        <ele>2084</ele>
        <time>2021-08-07T07:50:02.663Z</time>
      </trkpt>
      <trkpt lat="46.91725" lon="8.68582">
        <ele>2084</ele>
        <time>2021-08-07T07:50:03.663Z</time>
      </trkpt>
      <trkpt lat="46.91724" lon="8.68583">
        <ele>2085</ele>
        <time>2021-08-07T07:50:04.663Z</time>
      </trkpt>
      <trkpt lat="46.91723" lon="8.68585">
        <ele>2085</ele>
        <time>2021-08-07T07:50:05.662Z</time>
      </trkpt>
      <trkpt lat="46.91722" lon="8.68587">
        <ele>2086</ele>
        <time>2021-08-07T07:50:06.662Z</time>
      </trkpt>
      <trkpt lat="46.91721" lon="8.68588">
        <ele>2086</ele>
        <time>2021-08-07T07:50:07.662Z</time>
      </trkpt>
      <trkpt lat="46.91721" lon="8.68589">
        <ele>2086</ele>
        <time>2021-08-07T07:50:08.663Z</time>
      </trkpt>
      <trkpt lat="46.9172" lon="8.68591">
        <ele>2087</ele>
        <time>2021-08-07T07:50:09.663Z</time>
      </trkpt>
      <trkpt lat="46.9172" lon="8.68591">
        <ele>2087</ele>
        <time>2021-08-07T07:50:10.663Z</time>
      </trkpt>
      <trkpt lat="46.91719" lon="8.68593">
        <ele>2087</ele>
        <time>2021-08-07T07:50:11.663Z</time>
      </trkpt>
      <trkpt lat="46.91718" lon="8.68594">
        <ele>2087</ele>
        <time>2021-08-07T07:50:12.663Z</time>
      </trkpt>
      <trkpt lat="46.91718" lon="8.68595">
        <ele>2087</ele>
        <time>2021-08-07T07:50:13.663Z</time>
      </trkpt>
      <trkpt lat="46.91717" lon="8.68597">
        <ele>2087</ele>
        <time>2021-08-07T07:50:14.663Z</time>
      </trkpt>
      <trkpt lat="46.91717" lon="8.68598">
        <ele>2087</ele>
        <time>2021-08-07T07:50:15.662Z</time>
      </trkpt>
      <trkpt lat="46.91716" lon="8.686">
        <ele>2086</ele>
        <time>2021-08-07T07:50:16.663Z</time>
      </trkpt>
      <trkpt lat="46.91716" lon="8.68602">
        <ele>2086</ele>
        <time>2021-08-07T07:50:17.663Z</time>
      </trkpt>
      <trkpt lat="46.91716" lon="8.68604">
        <ele>2086</ele>
        <time>2021-08-07T07:50:18.662Z</time>
      </trkpt>
      <trkpt lat="46.91716" lon="8.68605">
        <ele>2086</ele>
        <time>2021-08-07T07:50:19.662Z</time>
      </trkpt>
      <trkpt lat="46.91716" lon="8.68606">
        <ele>2086</ele>
        <time>2021-08-07T07:50:20.663Z</time>
      </trkpt>
      <trkpt lat="46.91716" lon="8.68608">
        <ele>2086</ele>
        <time>2021-08-07T07:50:21.662Z</time>
      </trkpt>
      <trkpt lat="46.91716" lon="8.68609">
        <ele>2086</ele>
        <time>2021-08-07T07:50:22.662Z</time>
      </trkpt>
      <trkpt lat="46.91716" lon="8.68611">
        <ele>2086</ele>
        <time>2021-08-07T07:50:23.662Z</time>
      </trkpt>
      <trkpt lat="46.91716" lon="8.68612">
        <ele>2087</ele>
        <time>2021-08-07T07:50:24.663Z</time>
      </trkpt>
      <trkpt lat="46.91716" lon="8.68614">
        <ele>2087</ele>
        <time>2021-08-07T07:50:25.662Z</time>
      </trkpt>
      <trkpt lat="46.91716" lon="8.68615">
        <ele>2087</ele>
        <time>2021-08-07T07:50:26.663Z</time>
      </trkpt>
      <trkpt lat="46.91715" lon="8.68616">
        <ele>2087</ele>
        <time>2021-08-07T07:50:27.662Z</time>
      </trkpt>
      <trkpt lat="46.91716" lon="8.68618">
        <ele>2086</ele>
        <time>2021-08-07T07:50:28.663Z</time>
      </trkpt>
      <trkpt lat="46.91716" lon="8.68619">
        <ele>2086</ele>
        <time>2021-08-07T07:50:29.663Z</time>
      </trkpt>
      <trkpt lat="46.91716" lon="8.68621">
        <ele>2086</ele>
        <time>2021-08-07T07:50:30.662Z</time>
      </trkpt>
      <trkpt lat="46.91715" lon="8.68622">
        <ele>2086</ele>
        <time>2021-08-07T07:50:31.663Z</time>
      </trkpt>
      <trkpt lat="46.91715" lon="8.68623">
        <ele>2086</ele>
        <time>2021-08-07T07:50:32.662Z</time>
      </trkpt>
      <trkpt lat="46.91715" lon="8.68624">
        <ele>2086</ele>
        <time>2021-08-07T07:50:33.663Z</time>
      </trkpt>
      <trkpt lat="46.91715" lon="8.68626">
        <ele>2087</ele>
        <time>2021-08-07T07:50:34.663Z</time>
      </trkpt>
      <trkpt lat="46.91714" lon="8.68627">
        <ele>2087</ele>
        <time>2021-08-07T07:50:35.663Z</time>
      </trkpt>
      <trkpt lat="46.91714" lon="8.68628">
        <ele>2087</ele>
        <time>2021-08-07T07:50:36.662Z</time>
      </trkpt>
      <trkpt lat="46.91714" lon="8.6863">
        <ele>2086</ele>
        <time>2021-08-07T07:50:37.663Z</time>
      </trkpt>
      <trkpt lat="46.91713" lon="8.68631">
        <ele>2086</ele>
        <time>2021-08-07T07:50:38.663Z</time>
      </trkpt>
      <trkpt lat="46.91712" lon="8.68631">
        <ele>2085</ele>
        <time>2021-08-07T07:50:39.663Z</time>
      </trkpt>
      <trkpt lat="46.91711" lon="8.68632">
        <ele>2085</ele>
        <time>2021-08-07T07:50:40.662Z</time>
      </trkpt>
      <trkpt lat="46.9171" lon="8.68633">
        <ele>2085</ele>
        <time>2021-08-07T07:50:41.663Z</time>
      </trkpt>
      <trkpt lat="46.9171" lon="8.68634">
        <ele>2085</ele>
        <time>2021-08-07T07:50:42.662Z</time>
      </trkpt>
      <trkpt lat="46.91709" lon="8.68634">
        <ele>2084</ele>
        <time>2021-08-07T07:50:43.663Z</time>
      </trkpt>
      <trkpt lat="46.91708" lon="8.68634">
        <ele>2084</ele>
        <time>2021-08-07T07:50:44.663Z</time>
      </trkpt>
      <trkpt lat="46.91707" lon="8.68634">
        <ele>2084</ele>
        <time>2021-08-07T07:50:45.663Z</time>
      </trkpt>
      <trkpt lat="46.91706" lon="8.68634">
        <ele>2084</ele>
        <time>2021-08-07T07:50:46.663Z</time>
      </trkpt>
      <trkpt lat="46.91706" lon="8.68633">
        <ele>2084</ele>
        <time>2021-08-07T07:50:47.663Z</time>
      </trkpt>
      <trkpt lat="46.91705" lon="8.68632">
        <ele>2084</ele>
        <time>2021-08-07T07:50:48.663Z</time>
      </trkpt>
      <trkpt lat="46.91705" lon="8.68631">
        <ele>2083</ele>
        <time>2021-08-07T07:50:49.663Z</time>
      </trkpt>
      <trkpt lat="46.91704" lon="8.6863">
        <ele>2084</ele>
        <time>2021-08-07T07:50:50.662Z</time>
      </trkpt>
      <trkpt lat="46.91703" lon="8.68629">
        <ele>2084</ele>
        <time>2021-08-07T07:50:51.663Z</time>
      </trkpt>
      <trkpt lat="46.91702" lon="8.68629">
        <ele>2084</ele>
        <time>2021-08-07T07:50:52.662Z</time>
      </trkpt>
      <trkpt lat="46.91702" lon="8.68629">
        <ele>2084</ele>
        <time>2021-08-07T07:50:53.662Z</time>
      </trkpt>
      <trkpt lat="46.91703" lon="8.68629">
        <ele>2084</ele>
        <time>2021-08-07T07:50:54.663Z</time>
      </trkpt>
      <trkpt lat="46.91703" lon="8.68624">
        <ele>2084</ele>
        <time>2021-08-07T07:50:55.663Z</time>
      </trkpt>
      <trkpt lat="46.91703" lon="8.68625">
        <ele>2084</ele>
        <time>2021-08-07T07:50:56.662Z</time>
      </trkpt>
      <trkpt lat="46.91703" lon="8.68625">
        <ele>2084</ele>
        <time>2021-08-07T07:50:57.663Z</time>
      </trkpt>
      <trkpt lat="46.91703" lon="8.68624">
        <ele>2085</ele>
        <time>2021-08-07T07:50:58.663Z</time>
      </trkpt>
      <trkpt lat="46.91703" lon="8.68625">
        <ele>2085</ele>
        <time>2021-08-07T07:50:59.662Z</time>
      </trkpt>
      <trkpt lat="46.91703" lon="8.68625">
        <ele>2085</ele>
        <time>2021-08-07T07:51:00.663Z</time>
      </trkpt>
      <trkpt lat="46.91702" lon="8.68622">
        <ele>2087</ele>
        <time>2021-08-07T07:51:01.664Z</time>
      </trkpt>
      <trkpt lat="46.91703" lon="8.68622">
        <ele>2087</ele>
        <time>2021-08-07T07:51:02.665Z</time>
      </trkpt>
      <trkpt lat="46.91703" lon="8.68622">
        <ele>2087</ele>
        <time>2021-08-07T07:51:03.665Z</time>
      </trkpt>
      <trkpt lat="46.91703" lon="8.68622">
        <ele>2087</ele>
        <time>2021-08-07T07:51:04.664Z</time>
      </trkpt>
      <trkpt lat="46.91705" lon="8.68625">
        <ele>2086</ele>
        <time>2021-08-07T07:51:05.665Z</time>
      </trkpt>
      <trkpt lat="46.91705" lon="8.68625">
        <ele>2086</ele>
        <time>2021-08-07T07:51:06.664Z</time>
      </trkpt>
      <trkpt lat="46.91705" lon="8.68626">
        <ele>2087</ele>
        <time>2021-08-07T07:51:07.665Z</time>
      </trkpt>
      <trkpt lat="46.91705" lon="8.68626">
        <ele>2087</ele>
        <time>2021-08-07T07:51:08.665Z</time>
      </trkpt>
      <trkpt lat="46.91707" lon="8.68629">
        <ele>2085</ele>
        <time>2021-08-07T07:51:09.665Z</time>
      </trkpt>
      <trkpt lat="46.91707" lon="8.68629">
        <ele>2085</ele>
        <time>2021-08-07T07:51:10.665Z</time>
      </trkpt>
      <trkpt lat="46.91704" lon="8.68629">
        <ele>2086</ele>
        <time>2021-08-07T07:51:11.664Z</time>
      </trkpt>
      <trkpt lat="46.91704" lon="8.68629">
        <ele>2086</ele>
        <time>2021-08-07T07:51:12.664Z</time>
      </trkpt>
      <trkpt lat="46.91705" lon="8.68627">
        <ele>2083</ele>
        <time>2021-08-07T07:51:13.665Z</time>
      </trkpt>
      <trkpt lat="46.91704" lon="8.68626">
        <ele>2082</ele>
        <time>2021-08-07T07:51:14.665Z</time>
      </trkpt>
      <trkpt lat="46.91703" lon="8.68625">
        <ele>2082</ele>
        <time>2021-08-07T07:51:15.664Z</time>
      </trkpt>
      <trkpt lat="46.91702" lon="8.68624">
        <ele>2081</ele>
        <time>2021-08-07T07:51:16.665Z</time>
      </trkpt>
      <trkpt lat="46.91702" lon="8.68624">
        <ele>2080</ele>
        <time>2021-08-07T07:51:17.665Z</time>
      </trkpt>
      <trkpt lat="46.91702" lon="8.68624">
        <ele>2080</ele>
        <time>2021-08-07T07:51:18.665Z</time>
      </trkpt>
      <trkpt lat="46.91702" lon="8.68624">
        <ele>2079</ele>
        <time>2021-08-07T07:51:19.664Z</time>
      </trkpt>
      <trkpt lat="46.91703" lon="8.68624">
        <ele>2079</ele>
        <time>2021-08-07T07:51:20.665Z</time>
      </trkpt>
      <trkpt lat="46.9171" lon="8.68626">
        <ele>2083</ele>
        <time>2021-08-07T07:51:21.664Z</time>
      </trkpt>
      <trkpt lat="46.9171" lon="8.68626">
        <ele>2083</ele>
        <time>2021-08-07T07:51:22.664Z</time>
      </trkpt>
      <trkpt lat="46.91709" lon="8.68625">
        <ele>2083</ele>
        <time>2021-08-07T07:51:23.664Z</time>
      </trkpt>
      <trkpt lat="46.91704" lon="8.68626">
        <ele>2080</ele>
        <time>2021-08-07T07:51:24.665Z</time>
      </trkpt>
      <trkpt lat="46.91704" lon="8.68626">
        <ele>2081</ele>
        <time>2021-08-07T07:51:25.664Z</time>
      </trkpt>
      <trkpt lat="46.91704" lon="8.68622">
        <ele>2080</ele>
        <time>2021-08-07T07:51:26.666Z</time>
      </trkpt>
      <trkpt lat="46.91704" lon="8.68623">
        <ele>2080</ele>
        <time>2021-08-07T07:51:27.666Z</time>
      </trkpt>
      <trkpt lat="46.91705" lon="8.68623">
        <ele>2080</ele>
        <time>2021-08-07T07:51:28.665Z</time>
      </trkpt>
      <trkpt lat="46.91705" lon="8.68624">
        <ele>2080</ele>
        <time>2021-08-07T07:51:29.665Z</time>
      </trkpt>
      <trkpt lat="46.91705" lon="8.68624">
        <ele>2081</ele>
        <time>2021-08-07T07:51:30.666Z</time>
      </trkpt>
      <trkpt lat="46.91705" lon="8.68624">
        <ele>2081</ele>
        <time>2021-08-07T07:51:31.667Z</time>
      </trkpt>
      <trkpt lat="46.91705" lon="8.68624">
        <ele>2081</ele>
        <time>2021-08-07T07:51:32.667Z</time>
      </trkpt>
      <trkpt lat="46.91704" lon="8.68625">
        <ele>2079</ele>
        <time>2021-08-07T07:51:33.667Z</time>
      </trkpt>
      <trkpt lat="46.91704" lon="8.68625">
        <ele>2079</ele>
        <time>2021-08-07T07:51:34.666Z</time>
      </trkpt>
      <trkpt lat="46.91705" lon="8.68625">
        <ele>2078</ele>
        <time>2021-08-07T07:51:35.666Z</time>
      </trkpt>
      <trkpt lat="46.91706" lon="8.68625">
        <ele>2077</ele>
        <time>2021-08-07T07:51:36.668Z</time>
      </trkpt>
      <trkpt lat="46.91706" lon="8.68625">
        <ele>2077</ele>
        <time>2021-08-07T07:51:37.669Z</time>
      </trkpt>
      <trkpt lat="46.91705" lon="8.68624">
        <ele>2079</ele>
        <time>2021-08-07T07:51:38.670Z</time>
      </trkpt>
      <trkpt lat="46.91704" lon="8.68625">
        <ele>2080</ele>
        <time>2021-08-07T07:51:39.670Z</time>
      </trkpt>
      <trkpt lat="46.91704" lon="8.68625">
        <ele>2080</ele>
        <time>2021-08-07T07:51:40.669Z</time>
      </trkpt>
      <trkpt lat="46.91705" lon="8.68625">
        <ele>2080</ele>
        <time>2021-08-07T07:51:41.670Z</time>
      </trkpt>
      <trkpt lat="46.91705" lon="8.68625">
        <ele>2080</ele>
        <time>2021-08-07T07:51:42.670Z</time>
      </trkpt>
      <trkpt lat="46.91705" lon="8.68627">
        <ele>2080</ele>
        <time>2021-08-07T07:51:43.671Z</time>
      </trkpt>
      <trkpt lat="46.91705" lon="8.68627">
        <ele>2079</ele>
        <time>2021-08-07T07:51:44.670Z</time>
      </trkpt>
      <trkpt lat="46.91704" lon="8.68626">
        <ele>2079</ele>
        <time>2021-08-07T07:51:45.671Z</time>
      </trkpt>
      <trkpt lat="46.91705" lon="8.68626">
        <ele>2079</ele>
        <time>2021-08-07T07:51:46.672Z</time>
      </trkpt>
      <trkpt lat="46.91705" lon="8.68626">
        <ele>2079</ele>
        <time>2021-08-07T07:51:47.672Z</time>
      </trkpt>
      <trkpt lat="46.91705" lon="8.68625">
        <ele>2079</ele>
        <time>2021-08-07T07:51:48.671Z</time>
      </trkpt>
      <trkpt lat="46.91705" lon="8.68626">
        <ele>2079</ele>
        <time>2021-08-07T07:51:49.671Z</time>
      </trkpt>
      <trkpt lat="46.91706" lon="8.68626">
        <ele>2079</ele>
        <time>2021-08-07T07:51:50.673Z</time>
      </trkpt>
      <trkpt lat="46.91707" lon="8.68626">
        <ele>2079</ele>
        <time>2021-08-07T07:51:51.673Z</time>
      </trkpt>
      <trkpt lat="46.91708" lon="8.68625">
        <ele>2079</ele>
        <time>2021-08-07T07:51:52.672Z</time>
      </trkpt>
      <trkpt lat="46.91708" lon="8.68623">
        <ele>2079</ele>
        <time>2021-08-07T07:51:53.672Z</time>
      </trkpt>
      <trkpt lat="46.91709" lon="8.68622">
        <ele>2079</ele>
        <time>2021-08-07T07:51:54.672Z</time>
      </trkpt>
      <trkpt lat="46.91709" lon="8.6862">
        <ele>2079</ele>
        <time>2021-08-07T07:51:55.673Z</time>
      </trkpt>
      <trkpt lat="46.91709" lon="8.68618">
        <ele>2079</ele>
        <time>2021-08-07T07:51:56.673Z</time>
      </trkpt>
      <trkpt lat="46.91709" lon="8.68616">
        <ele>2080</ele>
        <time>2021-08-07T07:51:57.672Z</time>
      </trkpt>
      <trkpt lat="46.91709" lon="8.68615">
        <ele>2080</ele>
        <time>2021-08-07T07:51:58.672Z</time>
      </trkpt>
      <trkpt lat="46.91709" lon="8.68614">
        <ele>2080</ele>
        <time>2021-08-07T07:51:59.672Z</time>
      </trkpt>
      <trkpt lat="46.91709" lon="8.68612">
        <ele>2080</ele>
        <time>2021-08-07T07:52:00.672Z</time>
      </trkpt>
      <trkpt lat="46.91709" lon="8.68611">
        <ele>2080</ele>
        <time>2021-08-07T07:52:01.673Z</time>
      </trkpt>
      <trkpt lat="46.91709" lon="8.6861">
        <ele>2080</ele>
        <time>2021-08-07T07:52:02.673Z</time>
      </trkpt>
      <trkpt lat="46.9171" lon="8.68608">
        <ele>2080</ele>
        <time>2021-08-07T07:52:03.673Z</time>
      </trkpt>
      <trkpt lat="46.91711" lon="8.68607">
        <ele>2080</ele>
        <time>2021-08-07T07:52:04.672Z</time>
      </trkpt>
      <trkpt lat="46.91712" lon="8.68605">
        <ele>2080</ele>
        <time>2021-08-07T07:52:05.673Z</time>
      </trkpt>
      <trkpt lat="46.91712" lon="8.68604">
        <ele>2080</ele>
        <time>2021-08-07T07:52:06.672Z</time>
      </trkpt>
      <trkpt lat="46.91713" lon="8.68603">
        <ele>2080</ele>
        <time>2021-08-07T07:52:07.673Z</time>
      </trkpt>
      <trkpt lat="46.91713" lon="8.68601">
        <ele>2080</ele>
        <time>2021-08-07T07:52:08.673Z</time>
      </trkpt>
      <trkpt lat="46.91714" lon="8.686">
        <ele>2079</ele>
        <time>2021-08-07T07:52:09.673Z</time>
      </trkpt>
      <trkpt lat="46.91715" lon="8.68599">
        <ele>2079</ele>
        <time>2021-08-07T07:52:10.672Z</time>
      </trkpt>
      <trkpt lat="46.91715" lon="8.68598">
        <ele>2079</ele>
        <time>2021-08-07T07:52:11.673Z</time>
      </trkpt>
      <trkpt lat="46.91715" lon="8.68597">
        <ele>2079</ele>
        <time>2021-08-07T07:52:12.673Z</time>
      </trkpt>
      <trkpt lat="46.91715" lon="8.68596">
        <ele>2079</ele>
        <time>2021-08-07T07:52:13.672Z</time>
      </trkpt>
      <trkpt lat="46.91715" lon="8.68594">
        <ele>2079</ele>
        <time>2021-08-07T07:52:14.673Z</time>
      </trkpt>
      <trkpt lat="46.91716" lon="8.68593">
        <ele>2079</ele>
        <time>2021-08-07T07:52:15.673Z</time>
      </trkpt>
      <trkpt lat="46.91717" lon="8.68591">
        <ele>2080</ele>
        <time>2021-08-07T07:52:16.672Z</time>
      </trkpt>
      <trkpt lat="46.91717" lon="8.6859">
        <ele>2080</ele>
        <time>2021-08-07T07:52:17.673Z</time>
      </trkpt>
      <trkpt lat="46.91718" lon="8.68589">
        <ele>2080</ele>
        <time>2021-08-07T07:52:18.673Z</time>
      </trkpt>
      <trkpt lat="46.91719" lon="8.68587">
        <ele>2080</ele>
        <time>2021-08-07T07:52:19.673Z</time>
      </trkpt>
      <trkpt lat="46.91719" lon="8.68586">
        <ele>2081</ele>
        <time>2021-08-07T07:52:20.673Z</time>
      </trkpt>
      <trkpt lat="46.9172" lon="8.68584">
        <ele>2081</ele>
        <time>2021-08-07T07:52:21.672Z</time>
      </trkpt>
      <trkpt lat="46.9172" lon="8.68583">
        <ele>2082</ele>
        <time>2021-08-07T07:52:22.673Z</time>
      </trkpt>
      <trkpt lat="46.91721" lon="8.68582">
        <ele>2083</ele>
        <time>2021-08-07T07:52:23.673Z</time>
      </trkpt>
      <trkpt lat="46.91722" lon="8.68581">
        <ele>2084</ele>
        <time>2021-08-07T07:52:24.673Z</time>
      </trkpt>
      <trkpt lat="46.91723" lon="8.68579">
        <ele>2085</ele>
        <time>2021-08-07T07:52:25.672Z</time>
      </trkpt>
      <trkpt lat="46.91724" lon="8.68578">
        <ele>2085</ele>
        <time>2021-08-07T07:52:26.672Z</time>
      </trkpt>
      <trkpt lat="46.91724" lon="8.68578">
        <ele>2085</ele>
        <time>2021-08-07T07:52:27.673Z</time>
      </trkpt>
      <trkpt lat="46.91725" lon="8.68577">
        <ele>2086</ele>
        <time>2021-08-07T07:52:28.673Z</time>
      </trkpt>
      <trkpt lat="46.91726" lon="8.68576">
        <ele>2086</ele>
        <time>2021-08-07T07:52:29.672Z</time>
      </trkpt>
      <trkpt lat="46.91727" lon="8.68575">
        <ele>2086</ele>
        <time>2021-08-07T07:52:30.672Z</time>
      </trkpt>
      <trkpt lat="46.91728" lon="8.68574">
        <ele>2086</ele>
        <time>2021-08-07T07:52:31.673Z</time>
      </trkpt>
      <trkpt lat="46.91728" lon="8.68573">
        <ele>2086</ele>
        <time>2021-08-07T07:52:32.672Z</time>
      </trkpt>
      <trkpt lat="46.91729" lon="8.68572">
        <ele>2086</ele>
        <time>2021-08-07T07:52:33.673Z</time>
      </trkpt>
      <trkpt lat="46.9173" lon="8.68571">
        <ele>2086</ele>
        <time>2021-08-07T07:52:34.672Z</time>
      </trkpt>
      <trkpt lat="46.91731" lon="8.68569">
        <ele>2085</ele>
        <time>2021-08-07T07:52:35.673Z</time>
      </trkpt>
      <trkpt lat="46.91731" lon="8.68568">
        <ele>2085</ele>
        <time>2021-08-07T07:52:36.673Z</time>
      </trkpt>
      <trkpt lat="46.91732" lon="8.68567">
        <ele>2085</ele>
        <time>2021-08-07T07:52:37.673Z</time>
      </trkpt>
      <trkpt lat="46.91732" lon="8.68566">
        <ele>2085</ele>
        <time>2021-08-07T07:52:38.672Z</time>
      </trkpt>
      <trkpt lat="46.91733" lon="8.68564">
        <ele>2085</ele>
        <time>2021-08-07T07:52:39.672Z</time>
      </trkpt>
      <trkpt lat="46.91733" lon="8.68563">
        <ele>2085</ele>
        <time>2021-08-07T07:52:40.673Z</time>
      </trkpt>
      <trkpt lat="46.91734" lon="8.68561">
        <ele>2085</ele>
        <time>2021-08-07T07:52:41.673Z</time>
      </trkpt>
      <trkpt lat="46.91734" lon="8.6856">
        <ele>2085</ele>
        <time>2021-08-07T07:52:42.673Z</time>
      </trkpt>
      <trkpt lat="46.91735" lon="8.68559">
        <ele>2085</ele>
        <time>2021-08-07T07:52:43.673Z</time>
      </trkpt>
      <trkpt lat="46.91735" lon="8.68558">
        <ele>2085</ele>
        <time>2021-08-07T07:52:44.672Z</time>
      </trkpt>
      <trkpt lat="46.91736" lon="8.68556">
        <ele>2085</ele>
        <time>2021-08-07T07:52:45.673Z</time>
      </trkpt>
      <trkpt lat="46.91736" lon="8.68555">
        <ele>2085</ele>
        <time>2021-08-07T07:52:46.672Z</time>
      </trkpt>
      <trkpt lat="46.91737" lon="8.68554">
        <ele>2085</ele>
        <time>2021-08-07T07:52:47.673Z</time>
      </trkpt>
      <trkpt lat="46.91738" lon="8.68553">
        <ele>2085</ele>
        <time>2021-08-07T07:52:48.673Z</time>
      </trkpt>
      <trkpt lat="46.91739" lon="8.68552">
        <ele>2085</ele>
        <time>2021-08-07T07:52:49.673Z</time>
      </trkpt>
      <trkpt lat="46.9174" lon="8.68551">
        <ele>2085</ele>
        <time>2021-08-07T07:52:50.673Z</time>
      </trkpt>
      <trkpt lat="46.91741" lon="8.68551">
        <ele>2085</ele>
        <time>2021-08-07T07:52:51.673Z</time>
      </trkpt>
      <trkpt lat="46.91742" lon="8.6855">
        <ele>2085</ele>
        <time>2021-08-07T07:52:52.672Z</time>
      </trkpt>
      <trkpt lat="46.91743" lon="8.68549">
        <ele>2085</ele>
        <time>2021-08-07T07:52:53.672Z</time>
      </trkpt>
      <trkpt lat="46.91744" lon="8.68548">
        <ele>2085</ele>
        <time>2021-08-07T07:52:54.672Z</time>
      </trkpt>
      <trkpt lat="46.91745" lon="8.68547">
        <ele>2085</ele>
        <time>2021-08-07T07:52:55.673Z</time>
      </trkpt>
      <trkpt lat="46.91746" lon="8.68545">
        <ele>2085</ele>
        <time>2021-08-07T07:52:56.672Z</time>
      </trkpt>
      <trkpt lat="46.91746" lon="8.68543">
        <ele>2085</ele>
        <time>2021-08-07T07:52:57.673Z</time>
      </trkpt>
      <trkpt lat="46.91746" lon="8.68542">
        <ele>2085</ele>
        <time>2021-08-07T07:52:58.673Z</time>
      </trkpt>
      <trkpt lat="46.91746" lon="8.6854">
        <ele>2086</ele>
        <time>2021-08-07T07:52:59.672Z</time>
      </trkpt>
      <trkpt lat="46.91746" lon="8.68538">
        <ele>2086</ele>
        <time>2021-08-07T07:53:00.673Z</time>
      </trkpt>
      <trkpt lat="46.91746" lon="8.68537">
        <ele>2086</ele>
        <time>2021-08-07T07:53:01.673Z</time>
      </trkpt>
      <trkpt lat="46.91746" lon="8.68535">
        <ele>2086</ele>
        <time>2021-08-07T07:53:02.672Z</time>
      </trkpt>
      <trkpt lat="46.91746" lon="8.68534">
        <ele>2086</ele>
        <time>2021-08-07T07:53:03.673Z</time>
      </trkpt>
      <trkpt lat="46.91746" lon="8.68532">
        <ele>2087</ele>
        <time>2021-08-07T07:53:04.673Z</time>
      </trkpt>
      <trkpt lat="46.91746" lon="8.68531">
        <ele>2087</ele>
        <time>2021-08-07T07:53:05.672Z</time>
      </trkpt>
      <trkpt lat="46.91746" lon="8.68529">
        <ele>2088</ele>
        <time>2021-08-07T07:53:06.672Z</time>
      </trkpt>
      <trkpt lat="46.91747" lon="8.68528">
        <ele>2088</ele>
        <time>2021-08-07T07:53:07.673Z</time>
      </trkpt>
      <trkpt lat="46.91747" lon="8.68527">
        <ele>2088</ele>
        <time>2021-08-07T07:53:08.673Z</time>
      </trkpt>
      <trkpt lat="46.91748" lon="8.68526">
        <ele>2088</ele>
        <time>2021-08-07T07:53:09.673Z</time>
      </trkpt>
      <trkpt lat="46.91748" lon="8.68525">
        <ele>2087</ele>
        <time>2021-08-07T07:53:10.673Z</time>
      </trkpt>
      <trkpt lat="46.91748" lon="8.68524">
        <ele>2087</ele>
        <time>2021-08-07T07:53:11.672Z</time>
      </trkpt>
      <trkpt lat="46.91748" lon="8.68522">
        <ele>2087</ele>
        <time>2021-08-07T07:53:12.672Z</time>
      </trkpt>
      <trkpt lat="46.91748" lon="8.68521">
        <ele>2086</ele>
        <time>2021-08-07T07:53:13.673Z</time>
      </trkpt>
      <trkpt lat="46.91748" lon="8.6852">
        <ele>2086</ele>
        <time>2021-08-07T07:53:14.673Z</time>
      </trkpt>
      <trkpt lat="46.91748" lon="8.68519">
        <ele>2085</ele>
        <time>2021-08-07T07:53:15.673Z</time>
      </trkpt>
      <trkpt lat="46.91749" lon="8.68518">
        <ele>2084</ele>
        <time>2021-08-07T07:53:16.672Z</time>
      </trkpt>
      <trkpt lat="46.91749" lon="8.68517">
        <ele>2084</ele>
        <time>2021-08-07T07:53:17.673Z</time>
      </trkpt>
      <trkpt lat="46.91749" lon="8.68516">
        <ele>2083</ele>
        <time>2021-08-07T07:53:18.672Z</time>
      </trkpt>
      <trkpt lat="46.9175" lon="8.68514">
        <ele>2083</ele>
        <time>2021-08-07T07:53:19.672Z</time>
      </trkpt>
      <trkpt lat="46.91751" lon="8.68514">
        <ele>2082</ele>
        <time>2021-08-07T07:53:20.673Z</time>
      </trkpt>
      <trkpt lat="46.91751" lon="8.68512">
        <ele>2082</ele>
        <time>2021-08-07T07:53:21.672Z</time>
      </trkpt>
      <trkpt lat="46.91751" lon="8.68511">
        <ele>2082</ele>
        <time>2021-08-07T07:53:22.672Z</time>
      </trkpt>
      <trkpt lat="46.91752" lon="8.6851">
        <ele>2081</ele>
        <time>2021-08-07T07:53:23.672Z</time>
      </trkpt>
      <trkpt lat="46.91752" lon="8.68508">
        <ele>2080</ele>
        <time>2021-08-07T07:53:24.672Z</time>
      </trkpt>
      <trkpt lat="46.91753" lon="8.68507">
        <ele>2080</ele>
        <time>2021-08-07T07:53:25.672Z</time>
      </trkpt>
      <trkpt lat="46.91753" lon="8.68506">
        <ele>2079</ele>
        <time>2021-08-07T07:53:26.672Z</time>
      </trkpt>
      <trkpt lat="46.91754" lon="8.68505">
        <ele>2079</ele>
        <time>2021-08-07T07:53:27.673Z</time>
      </trkpt>
      <trkpt lat="46.91755" lon="8.68504">
        <ele>2078</ele>
        <time>2021-08-07T07:53:28.672Z</time>
      </trkpt>
      <trkpt lat="46.91755" lon="8.68502">
        <ele>2078</ele>
        <time>2021-08-07T07:53:29.673Z</time>
      </trkpt>
      <trkpt lat="46.91755" lon="8.68501">
        <ele>2078</ele>
        <time>2021-08-07T07:53:30.673Z</time>
      </trkpt>
      <trkpt lat="46.91756" lon="8.685">
        <ele>2079</ele>
        <time>2021-08-07T07:53:31.673Z</time>
      </trkpt>
      <trkpt lat="46.91756" lon="8.68499">
        <ele>2079</ele>
        <time>2021-08-07T07:53:32.672Z</time>
      </trkpt>
      <trkpt lat="46.91757" lon="8.68498">
        <ele>2080</ele>
        <time>2021-08-07T07:53:33.673Z</time>
      </trkpt>
      <trkpt lat="46.91758" lon="8.68496">
        <ele>2080</ele>
        <time>2021-08-07T07:53:34.673Z</time>
      </trkpt>
      <trkpt lat="46.91758" lon="8.68495">
        <ele>2081</ele>
        <time>2021-08-07T07:53:35.673Z</time>
      </trkpt>
      <trkpt lat="46.91758" lon="8.68494">
        <ele>2081</ele>
        <time>2021-08-07T07:53:36.673Z</time>
      </trkpt>
      <trkpt lat="46.91759" lon="8.68493">
        <ele>2082</ele>
        <time>2021-08-07T07:53:37.673Z</time>
      </trkpt>
      <trkpt lat="46.91759" lon="8.68492">
        <ele>2082</ele>
        <time>2021-08-07T07:53:38.673Z</time>
      </trkpt>
      <trkpt lat="46.91759" lon="8.68491">
        <ele>2082</ele>
        <time>2021-08-07T07:53:39.673Z</time>
      </trkpt>
      <trkpt lat="46.91759" lon="8.6849">
        <ele>2082</ele>
        <time>2021-08-07T07:53:40.673Z</time>
      </trkpt>
      <trkpt lat="46.91758" lon="8.68489">
        <ele>2083</ele>
        <time>2021-08-07T07:53:41.672Z</time>
      </trkpt>
      <trkpt lat="46.91758" lon="8.68488">
        <ele>2083</ele>
        <time>2021-08-07T07:53:42.673Z</time>
      </trkpt>
      <trkpt lat="46.91758" lon="8.68487">
        <ele>2083</ele>
        <time>2021-08-07T07:53:43.673Z</time>
      </trkpt>
      <trkpt lat="46.91758" lon="8.68487">
        <ele>2084</ele>
        <time>2021-08-07T07:53:44.673Z</time>
      </trkpt>
      <trkpt lat="46.91759" lon="8.68486">
        <ele>2084</ele>
        <time>2021-08-07T07:53:45.672Z</time>
      </trkpt>
      <trkpt lat="46.91759" lon="8.68485">
        <ele>2084</ele>
        <time>2021-08-07T07:53:46.672Z</time>
      </trkpt>
      <trkpt lat="46.9176" lon="8.68484">
        <ele>2084</ele>
        <time>2021-08-07T07:53:47.672Z</time>
      </trkpt>
      <trkpt lat="46.9176" lon="8.68483">
        <ele>2084</ele>
        <time>2021-08-07T07:53:48.672Z</time>
      </trkpt>
      <trkpt lat="46.91761" lon="8.68482">
        <ele>2083</ele>
        <time>2021-08-07T07:53:49.673Z</time>
      </trkpt>
      <trkpt lat="46.91761" lon="8.68481">
        <ele>2083</ele>
        <time>2021-08-07T07:53:50.673Z</time>
      </trkpt>
      <trkpt lat="46.91761" lon="8.6848">
        <ele>2083</ele>
        <time>2021-08-07T07:53:51.673Z</time>
      </trkpt>
      <trkpt lat="46.91762" lon="8.68479">
        <ele>2082</ele>
        <time>2021-08-07T07:53:52.673Z</time>
      </trkpt>
      <trkpt lat="46.91763" lon="8.68478">
        <ele>2082</ele>
        <time>2021-08-07T07:53:53.673Z</time>
      </trkpt>
      <trkpt lat="46.91763" lon="8.68478">
        <ele>2082</ele>
        <time>2021-08-07T07:53:54.673Z</time>
      </trkpt>
      <trkpt lat="46.91763" lon="8.68476">
        <ele>2081</ele>
        <time>2021-08-07T07:53:55.673Z</time>
      </trkpt>
      <trkpt lat="46.91763" lon="8.68474">
        <ele>2081</ele>
        <time>2021-08-07T07:53:56.673Z</time>
      </trkpt>
      <trkpt lat="46.91764" lon="8.68473">
        <ele>2080</ele>
        <time>2021-08-07T07:53:57.672Z</time>
      </trkpt>
      <trkpt lat="46.91764" lon="8.68472">
        <ele>2080</ele>
        <time>2021-08-07T07:53:58.673Z</time>
      </trkpt>
      <trkpt lat="46.91765" lon="8.68472">
        <ele>2081</ele>
        <time>2021-08-07T07:53:59.673Z</time>
      </trkpt>
      <trkpt lat="46.91765" lon="8.68471">
        <ele>2081</ele>
        <time>2021-08-07T07:54:00.673Z</time>
      </trkpt>
      <trkpt lat="46.91766" lon="8.6847">
        <ele>2082</ele>
        <time>2021-08-07T07:54:01.672Z</time>
      </trkpt>
      <trkpt lat="46.91766" lon="8.68469">
        <ele>2083</ele>
        <time>2021-08-07T07:54:02.672Z</time>
      </trkpt>
      <trkpt lat="46.91767" lon="8.68468">
        <ele>2083</ele>
        <time>2021-08-07T07:54:03.673Z</time>
      </trkpt>
      <trkpt lat="46.91767" lon="8.68467">
        <ele>2084</ele>
        <time>2021-08-07T07:54:04.673Z</time>
      </trkpt>
      <trkpt lat="46.91768" lon="8.68467">
        <ele>2084</ele>
        <time>2021-08-07T07:54:05.673Z</time>
      </trkpt>
      <trkpt lat="46.91768" lon="8.68466">
        <ele>2085</ele>
        <time>2021-08-07T07:54:06.673Z</time>
      </trkpt>
      <trkpt lat="46.91768" lon="8.68466">
        <ele>2085</ele>
        <time>2021-08-07T07:54:07.673Z</time>
      </trkpt>
      <trkpt lat="46.91769" lon="8.68465">
        <ele>2086</ele>
        <time>2021-08-07T07:54:08.673Z</time>
      </trkpt>
      <trkpt lat="46.91769" lon="8.68464">
        <ele>2086</ele>
        <time>2021-08-07T07:54:09.673Z</time>
      </trkpt>
      <trkpt lat="46.91769" lon="8.68463">
        <ele>2086</ele>
        <time>2021-08-07T07:54:10.673Z</time>
      </trkpt>
      <trkpt lat="46.91769" lon="8.68462">
        <ele>2086</ele>
        <time>2021-08-07T07:54:11.673Z</time>
      </trkpt>
      <trkpt lat="46.9177" lon="8.68461">
        <ele>2086</ele>
        <time>2021-08-07T07:54:12.673Z</time>
      </trkpt>
      <trkpt lat="46.9177" lon="8.68461">
        <ele>2086</ele>
        <time>2021-08-07T07:54:13.673Z</time>
      </trkpt>
      <trkpt lat="46.9177" lon="8.6846">
        <ele>2086</ele>
        <time>2021-08-07T07:54:14.673Z</time>
      </trkpt>
      <trkpt lat="46.91771" lon="8.68459">
        <ele>2086</ele>
        <time>2021-08-07T07:54:15.673Z</time>
      </trkpt>
      <trkpt lat="46.91771" lon="8.68459">
        <ele>2086</ele>
        <time>2021-08-07T07:54:16.672Z</time>
      </trkpt>
      <trkpt lat="46.91771" lon="8.68458">
        <ele>2086</ele>
        <time>2021-08-07T07:54:17.673Z</time>
      </trkpt>
      <trkpt lat="46.91771" lon="8.68457">
        <ele>2086</ele>
        <time>2021-08-07T07:54:18.673Z</time>
      </trkpt>
      <trkpt lat="46.91771" lon="8.68457">
        <ele>2086</ele>
        <time>2021-08-07T07:54:19.673Z</time>
      </trkpt>
      <trkpt lat="46.91771" lon="8.68456">
        <ele>2087</ele>
        <time>2021-08-07T07:54:20.673Z</time>
      </trkpt>
      <trkpt lat="46.91772" lon="8.68456">
        <ele>2087</ele>
        <time>2021-08-07T07:54:21.672Z</time>
      </trkpt>
      <trkpt lat="46.91772" lon="8.68455">
        <ele>2088</ele>
        <time>2021-08-07T07:54:22.672Z</time>
      </trkpt>
      <trkpt lat="46.91772" lon="8.68455">
        <ele>2089</ele>
        <time>2021-08-07T07:54:23.672Z</time>
      </trkpt>
      <trkpt lat="46.91773" lon="8.68454">
        <ele>2090</ele>
        <time>2021-08-07T07:54:24.673Z</time>
      </trkpt>
      <trkpt lat="46.91773" lon="8.68453">
        <ele>2091</ele>
        <time>2021-08-07T07:54:25.673Z</time>
      </trkpt>
      <trkpt lat="46.91773" lon="8.68453">
        <ele>2091</ele>
        <time>2021-08-07T07:54:26.673Z</time>
      </trkpt>
      <trkpt lat="46.91773" lon="8.68453">
        <ele>2092</ele>
        <time>2021-08-07T07:54:27.673Z</time>
      </trkpt>
      <trkpt lat="46.91774" lon="8.68452">
        <ele>2092</ele>
        <time>2021-08-07T07:54:28.673Z</time>
      </trkpt>
      <trkpt lat="46.91774" lon="8.68452">
        <ele>2093</ele>
        <time>2021-08-07T07:54:29.673Z</time>
      </trkpt>
      <trkpt lat="46.91774" lon="8.68451">
        <ele>2093</ele>
        <time>2021-08-07T07:54:30.672Z</time>
      </trkpt>
      <trkpt lat="46.91775" lon="8.68451">
        <ele>2093</ele>
        <time>2021-08-07T07:54:31.673Z</time>
      </trkpt>
      <trkpt lat="46.91775" lon="8.68449">
        <ele>2094</ele>
        <time>2021-08-07T07:54:32.672Z</time>
      </trkpt>
      <trkpt lat="46.91775" lon="8.68449">
        <ele>2094</ele>
        <time>2021-08-07T07:54:33.672Z</time>
      </trkpt>
      <trkpt lat="46.91776" lon="8.68449">
        <ele>2095</ele>
        <time>2021-08-07T07:54:34.673Z</time>
      </trkpt>
      <trkpt lat="46.91777" lon="8.6845">
        <ele>2096</ele>
        <time>2021-08-07T07:54:35.673Z</time>
      </trkpt>
      <trkpt lat="46.91777" lon="8.6845">
        <ele>2096</ele>
        <time>2021-08-07T07:54:36.673Z</time>
      </trkpt>
      <trkpt lat="46.91778" lon="8.6845">
        <ele>2097</ele>
        <time>2021-08-07T07:54:37.672Z</time>
      </trkpt>
      <trkpt lat="46.91779" lon="8.6845">
        <ele>2098</ele>
        <time>2021-08-07T07:54:38.673Z</time>
      </trkpt>
      <trkpt lat="46.91779" lon="8.68448">
        <ele>2098</ele>
        <time>2021-08-07T07:54:39.673Z</time>
      </trkpt>
      <trkpt lat="46.9178" lon="8.68447">
        <ele>2099</ele>
        <time>2021-08-07T07:54:40.672Z</time>
      </trkpt>
      <trkpt lat="46.9178" lon="8.68446">
        <ele>2099</ele>
        <time>2021-08-07T07:54:41.673Z</time>
      </trkpt>
      <trkpt lat="46.91781" lon="8.68445">
        <ele>2100</ele>
        <time>2021-08-07T07:54:42.673Z</time>
      </trkpt>
      <trkpt lat="46.91782" lon="8.68445">
        <ele>2100</ele>
        <time>2021-08-07T07:54:43.673Z</time>
      </trkpt>
      <trkpt lat="46.91782" lon="8.68444">
        <ele>2101</ele>
        <time>2021-08-07T07:54:44.672Z</time>
      </trkpt>
      <trkpt lat="46.91783" lon="8.68444">
        <ele>2101</ele>
        <time>2021-08-07T07:54:45.673Z</time>
      </trkpt>
      <trkpt lat="46.91784" lon="8.68443">
        <ele>2101</ele>
        <time>2021-08-07T07:54:46.673Z</time>
      </trkpt>
      <trkpt lat="46.91785" lon="8.68443">
        <ele>2101</ele>
        <time>2021-08-07T07:54:47.673Z</time>
      </trkpt>
      <trkpt lat="46.91786" lon="8.68442">
        <ele>2101</ele>
        <time>2021-08-07T07:54:48.673Z</time>
      </trkpt>
      <trkpt lat="46.91787" lon="8.68442">
        <ele>2101</ele>
        <time>2021-08-07T07:54:49.673Z</time>
      </trkpt>
      <trkpt lat="46.91788" lon="8.68441">
        <ele>2102</ele>
        <time>2021-08-07T07:54:50.672Z</time>
      </trkpt>
      <trkpt lat="46.91789" lon="8.68441">
        <ele>2101</ele>
        <time>2021-08-07T07:54:51.673Z</time>
      </trkpt>
      <trkpt lat="46.91789" lon="8.6844">
        <ele>2101</ele>
        <time>2021-08-07T07:54:52.673Z</time>
      </trkpt>
      <trkpt lat="46.9179" lon="8.6844">
        <ele>2101</ele>
        <time>2021-08-07T07:54:53.673Z</time>
      </trkpt>
      <trkpt lat="46.91791" lon="8.6844">
        <ele>2102</ele>
        <time>2021-08-07T07:54:54.673Z</time>
      </trkpt>
      <trkpt lat="46.91791" lon="8.68439">
        <ele>2101</ele>
        <time>2021-08-07T07:54:55.673Z</time>
      </trkpt>
      <trkpt lat="46.91792" lon="8.68438">
        <ele>2101</ele>
        <time>2021-08-07T07:54:56.672Z</time>
      </trkpt>
      <trkpt lat="46.91793" lon="8.68438">
        <ele>2101</ele>
        <time>2021-08-07T07:54:57.673Z</time>
      </trkpt>
      <trkpt lat="46.91794" lon="8.68437">
        <ele>2101</ele>
        <time>2021-08-07T07:54:58.673Z</time>
      </trkpt>
      <trkpt lat="46.91795" lon="8.68437">
        <ele>2101</ele>
        <time>2021-08-07T07:54:59.672Z</time>
      </trkpt>
      <trkpt lat="46.91796" lon="8.68436">
        <ele>2101</ele>
        <time>2021-08-07T07:55:00.673Z</time>
      </trkpt>
      <trkpt lat="46.91796" lon="8.68436">
        <ele>2100</ele>
        <time>2021-08-07T07:55:01.673Z</time>
      </trkpt>
      <trkpt lat="46.91797" lon="8.68436">
        <ele>2100</ele>
        <time>2021-08-07T07:55:02.673Z</time>
      </trkpt>
      <trkpt lat="46.91798" lon="8.68435">
        <ele>2100</ele>
        <time>2021-08-07T07:55:03.672Z</time>
      </trkpt>
      <trkpt lat="46.91798" lon="8.68434">
        <ele>2099</ele>
        <time>2021-08-07T07:55:04.673Z</time>
      </trkpt>
      <trkpt lat="46.91799" lon="8.68434">
        <ele>2099</ele>
        <time>2021-08-07T07:55:05.672Z</time>
      </trkpt>
      <trkpt lat="46.91799" lon="8.68433">
        <ele>2099</ele>
        <time>2021-08-07T07:55:06.672Z</time>
      </trkpt>
      <trkpt lat="46.918" lon="8.68433">
        <ele>2099</ele>
        <time>2021-08-07T07:55:07.672Z</time>
      </trkpt>
      <trkpt lat="46.918" lon="8.68432">
        <ele>2099</ele>
        <time>2021-08-07T07:55:08.673Z</time>
      </trkpt>
      <trkpt lat="46.918" lon="8.68431">
        <ele>2099</ele>
        <time>2021-08-07T07:55:09.673Z</time>
      </trkpt>
      <trkpt lat="46.91801" lon="8.68431">
        <ele>2099</ele>
        <time>2021-08-07T07:55:10.673Z</time>
      </trkpt>
      <trkpt lat="46.91801" lon="8.6843">
        <ele>2099</ele>
        <time>2021-08-07T07:55:11.673Z</time>
      </trkpt>
      <trkpt lat="46.91802" lon="8.6843">
        <ele>2099</ele>
        <time>2021-08-07T07:55:12.673Z</time>
      </trkpt>
      <trkpt lat="46.91802" lon="8.6843">
        <ele>2099</ele>
        <time>2021-08-07T07:55:13.673Z</time>
      </trkpt>
      <trkpt lat="46.91803" lon="8.68429">
        <ele>2098</ele>
        <time>2021-08-07T07:55:14.673Z</time>
      </trkpt>
      <trkpt lat="46.91803" lon="8.68429">
        <ele>2098</ele>
        <time>2021-08-07T07:55:15.673Z</time>
      </trkpt>
      <trkpt lat="46.91804" lon="8.68428">
        <ele>2098</ele>
        <time>2021-08-07T07:55:16.673Z</time>
      </trkpt>
      <trkpt lat="46.91804" lon="8.68427">
        <ele>2098</ele>
        <time>2021-08-07T07:55:17.673Z</time>
      </trkpt>
      <trkpt lat="46.91805" lon="8.68427">
        <ele>2098</ele>
        <time>2021-08-07T07:55:18.673Z</time>
      </trkpt>
      <trkpt lat="46.91805" lon="8.68426">
        <ele>2098</ele>
        <time>2021-08-07T07:55:19.673Z</time>
      </trkpt>
      <trkpt lat="46.91806" lon="8.68425">
        <ele>2098</ele>
        <time>2021-08-07T07:55:20.672Z</time>
      </trkpt>
      <trkpt lat="46.91806" lon="8.68424">
        <ele>2098</ele>
        <time>2021-08-07T07:55:21.672Z</time>
      </trkpt>
      <trkpt lat="46.91806" lon="8.68424">
        <ele>2098</ele>
        <time>2021-08-07T07:55:22.673Z</time>
      </trkpt>
      <trkpt lat="46.91806" lon="8.68423">
        <ele>2098</ele>
        <time>2021-08-07T07:55:23.672Z</time>
      </trkpt>
      <trkpt lat="46.91807" lon="8.68423">
        <ele>2098</ele>
        <time>2021-08-07T07:55:24.673Z</time>
      </trkpt>
      <trkpt lat="46.91807" lon="8.68423">
        <ele>2099</ele>
        <time>2021-08-07T07:55:25.675Z</time>
      </trkpt>
      <trkpt lat="46.91807" lon="8.68422">
        <ele>2099</ele>
        <time>2021-08-07T07:55:26.675Z</time>
      </trkpt>
      <trkpt lat="46.91808" lon="8.68422">
        <ele>2099</ele>
        <time>2021-08-07T07:55:27.674Z</time>
      </trkpt>
      <trkpt lat="46.91808" lon="8.68421">
        <ele>2099</ele>
        <time>2021-08-07T07:55:28.674Z</time>
      </trkpt>
      <trkpt lat="46.91808" lon="8.6842">
        <ele>2099</ele>
        <time>2021-08-07T07:55:29.674Z</time>
      </trkpt>
      <trkpt lat="46.91809" lon="8.68419">
        <ele>2098</ele>
        <time>2021-08-07T07:55:30.674Z</time>
      </trkpt>
      <trkpt lat="46.91809" lon="8.68418">
        <ele>2098</ele>
        <time>2021-08-07T07:55:31.674Z</time>
      </trkpt>
      <trkpt lat="46.9181" lon="8.68418">
        <ele>2097</ele>
        <time>2021-08-07T07:55:32.674Z</time>
      </trkpt>
      <trkpt lat="46.9181" lon="8.68417">
        <ele>2097</ele>
        <time>2021-08-07T07:55:33.674Z</time>
      </trkpt>
      <trkpt lat="46.91811" lon="8.68416">
        <ele>2097</ele>
        <time>2021-08-07T07:55:34.674Z</time>
      </trkpt>
      <trkpt lat="46.91811" lon="8.68416">
        <ele>2097</ele>
        <time>2021-08-07T07:55:35.675Z</time>
      </trkpt>
      <trkpt lat="46.91812" lon="8.68415">
        <ele>2097</ele>
        <time>2021-08-07T07:55:36.674Z</time>
      </trkpt>
      <trkpt lat="46.91812" lon="8.68414">
        <ele>2097</ele>
        <time>2021-08-07T07:55:37.674Z</time>
      </trkpt>
      <trkpt lat="46.91813" lon="8.68413">
        <ele>2097</ele>
        <time>2021-08-07T07:55:38.674Z</time>
      </trkpt>
      <trkpt lat="46.91813" lon="8.68413">
        <ele>2097</ele>
        <time>2021-08-07T07:55:39.674Z</time>
      </trkpt>
      <trkpt lat="46.91814" lon="8.68412">
        <ele>2098</ele>
        <time>2021-08-07T07:55:40.674Z</time>
      </trkpt>
      <trkpt lat="46.91814" lon="8.68411">
        <ele>2098</ele>
        <time>2021-08-07T07:55:41.675Z</time>
      </trkpt>
      <trkpt lat="46.91815" lon="8.6841">
        <ele>2098</ele>
        <time>2021-08-07T07:55:42.674Z</time>
      </trkpt>
      <trkpt lat="46.91816" lon="8.6841">
        <ele>2098</ele>
        <time>2021-08-07T07:55:43.674Z</time>
      </trkpt>
      <trkpt lat="46.91816" lon="8.68409">
        <ele>2098</ele>
        <time>2021-08-07T07:55:44.674Z</time>
      </trkpt>
      <trkpt lat="46.91817" lon="8.68408">
        <ele>2098</ele>
        <time>2021-08-07T07:55:45.674Z</time>
      </trkpt>
      <trkpt lat="46.91817" lon="8.68408">
        <ele>2098</ele>
        <time>2021-08-07T07:55:46.675Z</time>
      </trkpt>
      <trkpt lat="46.91818" lon="8.68407">
        <ele>2098</ele>
        <time>2021-08-07T07:55:47.674Z</time>
      </trkpt>
      <trkpt lat="46.91818" lon="8.68407">
        <ele>2099</ele>
        <time>2021-08-07T07:55:48.675Z</time>
      </trkpt>
      <trkpt lat="46.91819" lon="8.68406">
        <ele>2099</ele>
        <time>2021-08-07T07:55:49.674Z</time>
      </trkpt>
      <trkpt lat="46.9182" lon="8.68405">
        <ele>2099</ele>
        <time>2021-08-07T07:55:50.675Z</time>
      </trkpt>
      <trkpt lat="46.9182" lon="8.68405">
        <ele>2099</ele>
        <time>2021-08-07T07:55:51.675Z</time>
      </trkpt>
      <trkpt lat="46.91821" lon="8.68405">
        <ele>2098</ele>
        <time>2021-08-07T07:55:52.675Z</time>
      </trkpt>
      <trkpt lat="46.91822" lon="8.68404">
        <ele>2098</ele>
        <time>2021-08-07T07:55:53.674Z</time>
      </trkpt>
      <trkpt lat="46.91822" lon="8.68404">
        <ele>2098</ele>
        <time>2021-08-07T07:55:54.675Z</time>
      </trkpt>
      <trkpt lat="46.91823" lon="8.68404">
        <ele>2098</ele>
        <time>2021-08-07T07:55:55.675Z</time>
      </trkpt>
      <trkpt lat="46.91824" lon="8.68404">
        <ele>2098</ele>
        <time>2021-08-07T07:55:56.675Z</time>
      </trkpt>
      <trkpt lat="46.91824" lon="8.68403">
        <ele>2098</ele>
        <time>2021-08-07T07:55:57.675Z</time>
      </trkpt>
      <trkpt lat="46.91825" lon="8.68402">
        <ele>2098</ele>
        <time>2021-08-07T07:55:58.675Z</time>
      </trkpt>
      <trkpt lat="46.91825" lon="8.68402">
        <ele>2099</ele>
        <time>2021-08-07T07:55:59.675Z</time>
      </trkpt>
      <trkpt lat="46.91826" lon="8.68401">
        <ele>2099</ele>
        <time>2021-08-07T07:56:00.675Z</time>
      </trkpt>
      <trkpt lat="46.91826" lon="8.68401">
        <ele>2100</ele>
        <time>2021-08-07T07:56:01.675Z</time>
      </trkpt>
      <trkpt lat="46.91826" lon="8.684">
        <ele>2101</ele>
        <time>2021-08-07T07:56:02.675Z</time>
      </trkpt>
      <trkpt lat="46.91826" lon="8.684">
        <ele>2101</ele>
        <time>2021-08-07T07:56:03.675Z</time>
      </trkpt>
      <trkpt lat="46.91827" lon="8.684">
        <ele>2102</ele>
        <time>2021-08-07T07:56:04.674Z</time>
      </trkpt>
      <trkpt lat="46.91827" lon="8.68399">
        <ele>2102</ele>
        <time>2021-08-07T07:56:05.675Z</time>
      </trkpt>
      <trkpt lat="46.91828" lon="8.68399">
        <ele>2102</ele>
        <time>2021-08-07T07:56:06.675Z</time>
      </trkpt>
      <trkpt lat="46.91829" lon="8.68398">
        <ele>2103</ele>
        <time>2021-08-07T07:56:07.674Z</time>
      </trkpt>
      <trkpt lat="46.91829" lon="8.68398">
        <ele>2103</ele>
        <time>2021-08-07T07:56:08.675Z</time>
      </trkpt>
      <trkpt lat="46.91829" lon="8.68397">
        <ele>2103</ele>
        <time>2021-08-07T07:56:09.675Z</time>
      </trkpt>
      <trkpt lat="46.9183" lon="8.68397">
        <ele>2103</ele>
        <time>2021-08-07T07:56:10.675Z</time>
      </trkpt>
      <trkpt lat="46.9183" lon="8.68397">
        <ele>2103</ele>
        <time>2021-08-07T07:56:11.674Z</time>
      </trkpt>
      <trkpt lat="46.9183" lon="8.68396">
        <ele>2104</ele>
        <time>2021-08-07T07:56:12.674Z</time>
      </trkpt>
      <trkpt lat="46.91831" lon="8.68396">
        <ele>2104</ele>
        <time>2021-08-07T07:56:13.674Z</time>
      </trkpt>
      <trkpt lat="46.91831" lon="8.68396">
        <ele>2104</ele>
        <time>2021-08-07T07:56:14.675Z</time>
      </trkpt>
      <trkpt lat="46.91831" lon="8.68395">
        <ele>2104</ele>
        <time>2021-08-07T07:56:15.675Z</time>
      </trkpt>
      <trkpt lat="46.91832" lon="8.68395">
        <ele>2104</ele>
        <time>2021-08-07T07:56:16.675Z</time>
      </trkpt>
      <trkpt lat="46.91832" lon="8.68394">
        <ele>2104</ele>
        <time>2021-08-07T07:56:17.675Z</time>
      </trkpt>
      <trkpt lat="46.91833" lon="8.68394">
        <ele>2105</ele>
        <time>2021-08-07T07:56:18.675Z</time>
      </trkpt>
      <trkpt lat="46.91833" lon="8.68394">
        <ele>2105</ele>
        <time>2021-08-07T07:56:19.675Z</time>
      </trkpt>
      <trkpt lat="46.91834" lon="8.68393">
        <ele>2105</ele>
        <time>2021-08-07T07:56:20.675Z</time>
      </trkpt>
      <trkpt lat="46.91834" lon="8.68392">
        <ele>2105</ele>
        <time>2021-08-07T07:56:21.674Z</time>
      </trkpt>
      <trkpt lat="46.91834" lon="8.68392">
        <ele>2106</ele>
        <time>2021-08-07T07:56:22.674Z</time>
      </trkpt>
      <trkpt lat="46.91834" lon="8.68392">
        <ele>2106</ele>
        <time>2021-08-07T07:56:23.675Z</time>
      </trkpt>
      <trkpt lat="46.91834" lon="8.68391">
        <ele>2107</ele>
        <time>2021-08-07T07:56:24.675Z</time>
      </trkpt>
      <trkpt lat="46.91835" lon="8.68391">
        <ele>2107</ele>
        <time>2021-08-07T07:56:25.675Z</time>
      </trkpt>
      <trkpt lat="46.91835" lon="8.6839">
        <ele>2108</ele>
        <time>2021-08-07T07:56:26.674Z</time>
      </trkpt>
      <trkpt lat="46.91835" lon="8.68389">
        <ele>2108</ele>
        <time>2021-08-07T07:56:27.674Z</time>
      </trkpt>
      <trkpt lat="46.91836" lon="8.68389">
        <ele>2108</ele>
        <time>2021-08-07T07:56:28.675Z</time>
      </trkpt>
      <trkpt lat="46.91836" lon="8.68388">
        <ele>2108</ele>
        <time>2021-08-07T07:56:29.675Z</time>
      </trkpt>
      <trkpt lat="46.91836" lon="8.68388">
        <ele>2109</ele>
        <time>2021-08-07T07:56:30.675Z</time>
      </trkpt>
      <trkpt lat="46.91836" lon="8.68387">
        <ele>2109</ele>
        <time>2021-08-07T07:56:31.674Z</time>
      </trkpt>
      <trkpt lat="46.91836" lon="8.68386">
        <ele>2110</ele>
        <time>2021-08-07T07:56:32.675Z</time>
      </trkpt>
      <trkpt lat="46.91835" lon="8.68386">
        <ele>2110</ele>
        <time>2021-08-07T07:56:33.674Z</time>
      </trkpt>
      <trkpt lat="46.91835" lon="8.68385">
        <ele>2110</ele>
        <time>2021-08-07T07:56:34.675Z</time>
      </trkpt>
      <trkpt lat="46.91834" lon="8.68385">
        <ele>2110</ele>
        <time>2021-08-07T07:56:35.675Z</time>
      </trkpt>
      <trkpt lat="46.91833" lon="8.68385">
        <ele>2110</ele>
        <time>2021-08-07T07:56:36.675Z</time>
      </trkpt>
      <trkpt lat="46.91833" lon="8.68385">
        <ele>2111</ele>
        <time>2021-08-07T07:56:37.675Z</time>
      </trkpt>
      <trkpt lat="46.91832" lon="8.68386">
        <ele>2111</ele>
        <time>2021-08-07T07:56:38.675Z</time>
      </trkpt>
      <trkpt lat="46.91832" lon="8.68386">
        <ele>2112</ele>
        <time>2021-08-07T07:56:39.675Z</time>
      </trkpt>
      <trkpt lat="46.91831" lon="8.68386">
        <ele>2112</ele>
        <time>2021-08-07T07:56:40.675Z</time>
      </trkpt>
      <trkpt lat="46.91831" lon="8.68386">
        <ele>2113</ele>
        <time>2021-08-07T07:56:41.674Z</time>
      </trkpt>
      <trkpt lat="46.91832" lon="8.68386">
        <ele>2113</ele>
        <time>2021-08-07T07:56:42.675Z</time>
      </trkpt>
      <trkpt lat="46.91832" lon="8.68386">
        <ele>2114</ele>
        <time>2021-08-07T07:56:43.675Z</time>
      </trkpt>
      <trkpt lat="46.91833" lon="8.68385">
        <ele>2114</ele>
        <time>2021-08-07T07:56:44.674Z</time>
      </trkpt>
      <trkpt lat="46.91833" lon="8.68385">
        <ele>2114</ele>
        <time>2021-08-07T07:56:45.675Z</time>
      </trkpt>
      <trkpt lat="46.91833" lon="8.68384">
        <ele>2114</ele>
        <time>2021-08-07T07:56:46.675Z</time>
      </trkpt>
      <trkpt lat="46.91833" lon="8.68383">
        <ele>2114</ele>
        <time>2021-08-07T07:56:47.675Z</time>
      </trkpt>
      <trkpt lat="46.91834" lon="8.68383">
        <ele>2115</ele>
        <time>2021-08-07T07:56:48.675Z</time>
      </trkpt>
      <trkpt lat="46.91834" lon="8.68383">
        <ele>2115</ele>
        <time>2021-08-07T07:56:49.674Z</time>
      </trkpt>
      <trkpt lat="46.91834" lon="8.68382">
        <ele>2116</ele>
        <time>2021-08-07T07:56:50.674Z</time>
      </trkpt>
      <trkpt lat="46.91834" lon="8.68381">
        <ele>2116</ele>
        <time>2021-08-07T07:56:51.675Z</time>
      </trkpt>
      <trkpt lat="46.91835" lon="8.6838">
        <ele>2117</ele>
        <time>2021-08-07T07:56:52.675Z</time>
      </trkpt>
      <trkpt lat="46.91836" lon="8.68379">
        <ele>2117</ele>
        <time>2021-08-07T07:56:53.675Z</time>
      </trkpt>
      <trkpt lat="46.91836" lon="8.68379">
        <ele>2118</ele>
        <time>2021-08-07T07:56:54.675Z</time>
      </trkpt>
      <trkpt lat="46.91837" lon="8.68378">
        <ele>2118</ele>
        <time>2021-08-07T07:56:55.674Z</time>
      </trkpt>
      <trkpt lat="46.91837" lon="8.68378">
        <ele>2118</ele>
        <time>2021-08-07T07:56:56.675Z</time>
      </trkpt>
      <trkpt lat="46.91837" lon="8.68377">
        <ele>2118</ele>
        <time>2021-08-07T07:56:57.675Z</time>
      </trkpt>
      <trkpt lat="46.91836" lon="8.68377">
        <ele>2118</ele>
        <time>2021-08-07T07:56:58.674Z</time>
      </trkpt>
      <trkpt lat="46.91836" lon="8.68376">
        <ele>2118</ele>
        <time>2021-08-07T07:56:59.675Z</time>
      </trkpt>
      <trkpt lat="46.91836" lon="8.68375">
        <ele>2118</ele>
        <time>2021-08-07T07:57:00.674Z</time>
      </trkpt>
      <trkpt lat="46.91837" lon="8.68375">
        <ele>2119</ele>
        <time>2021-08-07T07:57:01.674Z</time>
      </trkpt>
      <trkpt lat="46.91837" lon="8.68374">
        <ele>2119</ele>
        <time>2021-08-07T07:57:02.674Z</time>
      </trkpt>
      <trkpt lat="46.91837" lon="8.68374">
        <ele>2120</ele>
        <time>2021-08-07T07:57:03.674Z</time>
      </trkpt>
      <trkpt lat="46.91837" lon="8.68373">
        <ele>2121</ele>
        <time>2021-08-07T07:57:04.674Z</time>
      </trkpt>
      <trkpt lat="46.91837" lon="8.68373">
        <ele>2121</ele>
        <time>2021-08-07T07:57:05.674Z</time>
      </trkpt>
      <trkpt lat="46.91837" lon="8.68373">
        <ele>2122</ele>
        <time>2021-08-07T07:57:06.674Z</time>
      </trkpt>
      <trkpt lat="46.91837" lon="8.68373">
        <ele>2122</ele>
        <time>2021-08-07T07:57:07.675Z</time>
      </trkpt>
      <trkpt lat="46.91838" lon="8.68372">
        <ele>2122</ele>
        <time>2021-08-07T07:57:08.675Z</time>
      </trkpt>
      <trkpt lat="46.91838" lon="8.68372">
        <ele>2122</ele>
        <time>2021-08-07T07:57:09.674Z</time>
      </trkpt>
      <trkpt lat="46.91838" lon="8.68372">
        <ele>2122</ele>
        <time>2021-08-07T07:57:10.675Z</time>
      </trkpt>
      <trkpt lat="46.91838" lon="8.68371">
        <ele>2122</ele>
        <time>2021-08-07T07:57:11.675Z</time>
      </trkpt>
      <trkpt lat="46.91839" lon="8.68371">
        <ele>2123</ele>
        <time>2021-08-07T07:57:12.677Z</time>
      </trkpt>
      <trkpt lat="46.91839" lon="8.68371">
        <ele>2123</ele>
        <time>2021-08-07T07:57:13.677Z</time>
      </trkpt>
      <trkpt lat="46.91839" lon="8.6837">
        <ele>2123</ele>
        <time>2021-08-07T07:57:14.676Z</time>
      </trkpt>
      <trkpt lat="46.91839" lon="8.6837">
        <ele>2123</ele>
        <time>2021-08-07T07:57:15.677Z</time>
      </trkpt>
      <trkpt lat="46.91839" lon="8.68371">
        <ele>2123</ele>
        <time>2021-08-07T07:57:16.677Z</time>
      </trkpt>
      <trkpt lat="46.9184" lon="8.6837">
        <ele>2122</ele>
        <time>2021-08-07T07:57:17.678Z</time>
      </trkpt>
      <trkpt lat="46.91841" lon="8.68369">
        <ele>2122</ele>
        <time>2021-08-07T07:57:18.678Z</time>
      </trkpt>
      <trkpt lat="46.91841" lon="8.68369">
        <ele>2122</ele>
        <time>2021-08-07T07:57:19.678Z</time>
      </trkpt>
      <trkpt lat="46.91841" lon="8.68368">
        <ele>2122</ele>
        <time>2021-08-07T07:57:20.677Z</time>
      </trkpt>
      <trkpt lat="46.91842" lon="8.68368">
        <ele>2122</ele>
        <time>2021-08-07T07:57:21.677Z</time>
      </trkpt>
      <trkpt lat="46.91842" lon="8.68367">
        <ele>2122</ele>
        <time>2021-08-07T07:57:22.678Z</time>
      </trkpt>
      <trkpt lat="46.91842" lon="8.68367">
        <ele>2122</ele>
        <time>2021-08-07T07:57:23.678Z</time>
      </trkpt>
      <trkpt lat="46.91842" lon="8.68366">
        <ele>2122</ele>
        <time>2021-08-07T07:57:24.678Z</time>
      </trkpt>
      <trkpt lat="46.91843" lon="8.68365">
        <ele>2122</ele>
        <time>2021-08-07T07:57:25.677Z</time>
      </trkpt>
      <trkpt lat="46.91843" lon="8.68365">
        <ele>2122</ele>
        <time>2021-08-07T07:57:26.677Z</time>
      </trkpt>
      <trkpt lat="46.91843" lon="8.68364">
        <ele>2122</ele>
        <time>2021-08-07T07:57:27.678Z</time>
      </trkpt>
      <trkpt lat="46.91843" lon="8.68363">
        <ele>2123</ele>
        <time>2021-08-07T07:57:28.678Z</time>
      </trkpt>
      <trkpt lat="46.91844" lon="8.68363">
        <ele>2123</ele>
        <time>2021-08-07T07:57:29.678Z</time>
      </trkpt>
      <trkpt lat="46.91844" lon="8.68363">
        <ele>2124</ele>
        <time>2021-08-07T07:57:30.677Z</time>
      </trkpt>
      <trkpt lat="46.91845" lon="8.68363">
        <ele>2124</ele>
        <time>2021-08-07T07:57:31.677Z</time>
      </trkpt>
      <trkpt lat="46.91845" lon="8.68363">
        <ele>2124</ele>
        <time>2021-08-07T07:57:32.677Z</time>
      </trkpt>
      <trkpt lat="46.91846" lon="8.68363">
        <ele>2124</ele>
        <time>2021-08-07T07:57:33.678Z</time>
      </trkpt>
      <trkpt lat="46.91846" lon="8.68363">
        <ele>2125</ele>
        <time>2021-08-07T07:57:34.678Z</time>
      </trkpt>
      <trkpt lat="46.91847" lon="8.68364">
        <ele>2125</ele>
        <time>2021-08-07T07:57:35.678Z</time>
      </trkpt>
      <trkpt lat="46.91848" lon="8.68364">
        <ele>2125</ele>
        <time>2021-08-07T07:57:36.678Z</time>
      </trkpt>
      <trkpt lat="46.91849" lon="8.68364">
        <ele>2125</ele>
        <time>2021-08-07T07:57:37.678Z</time>
      </trkpt>
      <trkpt lat="46.91849" lon="8.68363">
        <ele>2125</ele>
        <time>2021-08-07T07:57:38.678Z</time>
      </trkpt>
      <trkpt lat="46.9185" lon="8.68364">
        <ele>2125</ele>
        <time>2021-08-07T07:57:39.677Z</time>
      </trkpt>
      <trkpt lat="46.9185" lon="8.68364">
        <ele>2125</ele>
        <time>2021-08-07T07:57:40.678Z</time>
      </trkpt>
      <trkpt lat="46.91851" lon="8.68363">
        <ele>2125</ele>
        <time>2021-08-07T07:57:41.677Z</time>
      </trkpt>
      <trkpt lat="46.91852" lon="8.68363">
        <ele>2126</ele>
        <time>2021-08-07T07:57:42.677Z</time>
      </trkpt>
      <trkpt lat="46.91852" lon="8.68363">
        <ele>2126</ele>
        <time>2021-08-07T07:57:43.677Z</time>
      </trkpt>
      <trkpt lat="46.91853" lon="8.68363">
        <ele>2126</ele>
        <time>2021-08-07T07:57:44.677Z</time>
      </trkpt>
      <trkpt lat="46.91853" lon="8.68361">
        <ele>2126</ele>
        <time>2021-08-07T07:57:45.678Z</time>
      </trkpt>
      <trkpt lat="46.91853" lon="8.6836">
        <ele>2126</ele>
        <time>2021-08-07T07:57:46.678Z</time>
      </trkpt>
      <trkpt lat="46.91853" lon="8.68359">
        <ele>2126</ele>
        <time>2021-08-07T07:57:47.678Z</time>
      </trkpt>
      <trkpt lat="46.91853" lon="8.68358">
        <ele>2126</ele>
        <time>2021-08-07T07:57:48.678Z</time>
      </trkpt>
      <trkpt lat="46.91853" lon="8.68357">
        <ele>2125</ele>
        <time>2021-08-07T07:57:49.677Z</time>
      </trkpt>
      <trkpt lat="46.91853" lon="8.68357">
        <ele>2125</ele>
        <time>2021-08-07T07:57:50.677Z</time>
      </trkpt>
      <trkpt lat="46.91852" lon="8.68356">
        <ele>2125</ele>
        <time>2021-08-07T07:57:51.678Z</time>
      </trkpt>
      <trkpt lat="46.91852" lon="8.68355">
        <ele>2125</ele>
        <time>2021-08-07T07:57:52.678Z</time>
      </trkpt>
      <trkpt lat="46.91852" lon="8.68355">
        <ele>2125</ele>
        <time>2021-08-07T07:57:53.677Z</time>
      </trkpt>
      <trkpt lat="46.91852" lon="8.68354">
        <ele>2124</ele>
        <time>2021-08-07T07:57:54.678Z</time>
      </trkpt>
      <trkpt lat="46.91852" lon="8.68354">
        <ele>2124</ele>
        <time>2021-08-07T07:57:55.678Z</time>
      </trkpt>
      <trkpt lat="46.91851" lon="8.68353">
        <ele>2124</ele>
        <time>2021-08-07T07:57:56.677Z</time>
      </trkpt>
      <trkpt lat="46.91851" lon="8.68352">
        <ele>2123</ele>
        <time>2021-08-07T07:57:57.678Z</time>
      </trkpt>
      <trkpt lat="46.91852" lon="8.68351">
        <ele>2123</ele>
        <time>2021-08-07T07:57:58.678Z</time>
      </trkpt>
      <trkpt lat="46.91852" lon="8.6835">
        <ele>2123</ele>
        <time>2021-08-07T07:57:59.677Z</time>
      </trkpt>
      <trkpt lat="46.91852" lon="8.6835">
        <ele>2122</ele>
        <time>2021-08-07T07:58:00.677Z</time>
      </trkpt>
      <trkpt lat="46.91852" lon="8.68349">
        <ele>2123</ele>
        <time>2021-08-07T07:58:01.677Z</time>
      </trkpt>
      <trkpt lat="46.91852" lon="8.68349">
        <ele>2123</ele>
        <time>2021-08-07T07:58:02.678Z</time>
      </trkpt>
      <trkpt lat="46.91852" lon="8.68348">
        <ele>2124</ele>
        <time>2021-08-07T07:58:03.678Z</time>
      </trkpt>
      <trkpt lat="46.91851" lon="8.68347">
        <ele>2125</ele>
        <time>2021-08-07T07:58:04.678Z</time>
      </trkpt>
      <trkpt lat="46.91852" lon="8.68347">
        <ele>2125</ele>
        <time>2021-08-07T07:58:05.678Z</time>
      </trkpt>
      <trkpt lat="46.91852" lon="8.68347">
        <ele>2125</ele>
        <time>2021-08-07T07:58:06.678Z</time>
      </trkpt>
      <trkpt lat="46.91852" lon="8.68346">
        <ele>2126</ele>
        <time>2021-08-07T07:58:07.677Z</time>
      </trkpt>
      <trkpt lat="46.91852" lon="8.68345">
        <ele>2126</ele>
        <time>2021-08-07T07:58:08.677Z</time>
      </trkpt>
      <trkpt lat="46.91852" lon="8.68345">
        <ele>2127</ele>
        <time>2021-08-07T07:58:09.678Z</time>
      </trkpt>
      <trkpt lat="46.91852" lon="8.68344">
        <ele>2127</ele>
        <time>2021-08-07T07:58:10.678Z</time>
      </trkpt>
      <trkpt lat="46.91853" lon="8.68343">
        <ele>2127</ele>
        <time>2021-08-07T07:58:11.677Z</time>
      </trkpt>
      <trkpt lat="46.91852" lon="8.68343">
        <ele>2127</ele>
        <time>2021-08-07T07:58:12.677Z</time>
      </trkpt>
      <trkpt lat="46.91852" lon="8.68342">
        <ele>2127</ele>
        <time>2021-08-07T07:58:13.678Z</time>
      </trkpt>
      <trkpt lat="46.91853" lon="8.68341">
        <ele>2127</ele>
        <time>2021-08-07T07:58:14.677Z</time>
      </trkpt>
      <trkpt lat="46.91853" lon="8.6834">
        <ele>2126</ele>
        <time>2021-08-07T07:58:15.678Z</time>
      </trkpt>
      <trkpt lat="46.91853" lon="8.68339">
        <ele>2126</ele>
        <time>2021-08-07T07:58:16.678Z</time>
      </trkpt>
      <trkpt lat="46.91853" lon="8.68339">
        <ele>2126</ele>
        <time>2021-08-07T07:58:17.678Z</time>
      </trkpt>
      <trkpt lat="46.91853" lon="8.68338">
        <ele>2126</ele>
        <time>2021-08-07T07:58:18.678Z</time>
      </trkpt>
      <trkpt lat="46.91853" lon="8.68338">
        <ele>2126</ele>
        <time>2021-08-07T07:58:19.678Z</time>
      </trkpt>
      <trkpt lat="46.91853" lon="8.68337">
        <ele>2126</ele>
        <time>2021-08-07T07:58:20.678Z</time>
      </trkpt>
      <trkpt lat="46.91854" lon="8.68337">
        <ele>2126</ele>
        <time>2021-08-07T07:58:21.678Z</time>
      </trkpt>
      <trkpt lat="46.91854" lon="8.68336">
        <ele>2126</ele>
        <time>2021-08-07T07:58:22.678Z</time>
      </trkpt>
      <trkpt lat="46.91855" lon="8.68336">
        <ele>2125</ele>
        <time>2021-08-07T07:58:23.678Z</time>
      </trkpt>
      <trkpt lat="46.91855" lon="8.68335">
        <ele>2125</ele>
        <time>2021-08-07T07:58:24.678Z</time>
      </trkpt>
      <trkpt lat="46.91855" lon="8.68334">
        <ele>2125</ele>
        <time>2021-08-07T07:58:25.678Z</time>
      </trkpt>
      <trkpt lat="46.91855" lon="8.68334">
        <ele>2125</ele>
        <time>2021-08-07T07:58:26.678Z</time>
      </trkpt>
      <trkpt lat="46.91855" lon="8.68333">
        <ele>2124</ele>
        <time>2021-08-07T07:58:27.678Z</time>
      </trkpt>
      <trkpt lat="46.91855" lon="8.68333">
        <ele>2125</ele>
        <time>2021-08-07T07:58:28.678Z</time>
      </trkpt>
      <trkpt lat="46.91855" lon="8.68332">
        <ele>2125</ele>
        <time>2021-08-07T07:58:29.678Z</time>
      </trkpt>
      <trkpt lat="46.91855" lon="8.68331">
        <ele>2125</ele>
        <time>2021-08-07T07:58:30.678Z</time>
      </trkpt>
      <trkpt lat="46.91855" lon="8.68331">
        <ele>2126</ele>
        <time>2021-08-07T07:58:31.678Z</time>
      </trkpt>
      <trkpt lat="46.91855" lon="8.6833">
        <ele>2126</ele>
        <time>2021-08-07T07:58:32.678Z</time>
      </trkpt>
      <trkpt lat="46.91855" lon="8.6833">
        <ele>2127</ele>
        <time>2021-08-07T07:58:33.678Z</time>
      </trkpt>
      <trkpt lat="46.91855" lon="8.68329">
        <ele>2127</ele>
        <time>2021-08-07T07:58:34.678Z</time>
      </trkpt>
      <trkpt lat="46.91855" lon="8.68329">
        <ele>2127</ele>
        <time>2021-08-07T07:58:35.677Z</time>
      </trkpt>
      <trkpt lat="46.91856" lon="8.6833">
        <ele>2129</ele>
        <time>2021-08-07T07:58:36.678Z</time>
      </trkpt>
      <trkpt lat="46.91856" lon="8.68329">
        <ele>2130</ele>
        <time>2021-08-07T07:58:37.677Z</time>
      </trkpt>
      <trkpt lat="46.91857" lon="8.68329">
        <ele>2130</ele>
        <time>2021-08-07T07:58:38.677Z</time>
      </trkpt>
      <trkpt lat="46.91857" lon="8.68328">
        <ele>2130</ele>
        <time>2021-08-07T07:58:39.678Z</time>
      </trkpt>
      <trkpt lat="46.91857" lon="8.68328">
        <ele>2130</ele>
        <time>2021-08-07T07:58:40.677Z</time>
      </trkpt>
      <trkpt lat="46.91857" lon="8.68327">
        <ele>2130</ele>
        <time>2021-08-07T07:58:41.678Z</time>
      </trkpt>
      <trkpt lat="46.91858" lon="8.68327">
        <ele>2131</ele>
        <time>2021-08-07T07:58:42.677Z</time>
      </trkpt>
      <trkpt lat="46.91858" lon="8.68326">
        <ele>2131</ele>
        <time>2021-08-07T07:58:43.677Z</time>
      </trkpt>
      <trkpt lat="46.91858" lon="8.68326">
        <ele>2131</ele>
        <time>2021-08-07T07:58:44.677Z</time>
      </trkpt>
      <trkpt lat="46.91859" lon="8.68326">
        <ele>2132</ele>
        <time>2021-08-07T07:58:45.677Z</time>
      </trkpt>
      <trkpt lat="46.91859" lon="8.68325">
        <ele>2132</ele>
        <time>2021-08-07T07:58:46.678Z</time>
      </trkpt>
      <trkpt lat="46.9186" lon="8.68325">
        <ele>2132</ele>
        <time>2021-08-07T07:58:47.678Z</time>
      </trkpt>
      <trkpt lat="46.9186" lon="8.68324">
        <ele>2132</ele>
        <time>2021-08-07T07:58:48.677Z</time>
      </trkpt>
      <trkpt lat="46.9186" lon="8.68323">
        <ele>2133</ele>
        <time>2021-08-07T07:58:49.677Z</time>
      </trkpt>
      <trkpt lat="46.9186" lon="8.68323">
        <ele>2133</ele>
        <time>2021-08-07T07:58:50.677Z</time>
      </trkpt>
      <trkpt lat="46.9186" lon="8.68322">
        <ele>2133</ele>
        <time>2021-08-07T07:58:51.677Z</time>
      </trkpt>
      <trkpt lat="46.9186" lon="8.68321">
        <ele>2134</ele>
        <time>2021-08-07T07:58:52.677Z</time>
      </trkpt>
      <trkpt lat="46.9186" lon="8.68321">
        <ele>2134</ele>
        <time>2021-08-07T07:58:53.677Z</time>
      </trkpt>
      <trkpt lat="46.9186" lon="8.6832">
        <ele>2134</ele>
        <time>2021-08-07T07:58:54.677Z</time>
      </trkpt>
      <trkpt lat="46.9186" lon="8.68319">
        <ele>2134</ele>
        <time>2021-08-07T07:58:55.678Z</time>
      </trkpt>
      <trkpt lat="46.91861" lon="8.68318">
        <ele>2134</ele>
        <time>2021-08-07T07:58:56.678Z</time>
      </trkpt>
      <trkpt lat="46.91861" lon="8.68318">
        <ele>2134</ele>
        <time>2021-08-07T07:58:57.678Z</time>
      </trkpt>
      <trkpt lat="46.91861" lon="8.68317">
        <ele>2134</ele>
        <time>2021-08-07T07:58:58.677Z</time>
      </trkpt>
      <trkpt lat="46.91861" lon="8.68317">
        <ele>2134</ele>
        <time>2021-08-07T07:58:59.677Z</time>
      </trkpt>
      <trkpt lat="46.91861" lon="8.68316">
        <ele>2134</ele>
        <time>2021-08-07T07:59:00.677Z</time>
      </trkpt>
      <trkpt lat="46.91861" lon="8.68315">
        <ele>2133</ele>
        <time>2021-08-07T07:59:01.678Z</time>
      </trkpt>
      <trkpt lat="46.91861" lon="8.68314">
        <ele>2133</ele>
        <time>2021-08-07T07:59:02.677Z</time>
      </trkpt>
      <trkpt lat="46.91861" lon="8.68313">
        <ele>2132</ele>
        <time>2021-08-07T07:59:03.677Z</time>
      </trkpt>
      <trkpt lat="46.91861" lon="8.68313">
        <ele>2133</ele>
        <time>2021-08-07T07:59:04.677Z</time>
      </trkpt>
      <trkpt lat="46.91861" lon="8.68312">
        <ele>2133</ele>
        <time>2021-08-07T07:59:05.678Z</time>
      </trkpt>
      <trkpt lat="46.9186" lon="8.68311">
        <ele>2133</ele>
        <time>2021-08-07T07:59:06.678Z</time>
      </trkpt>
      <trkpt lat="46.9186" lon="8.68311">
        <ele>2133</ele>
        <time>2021-08-07T07:59:07.678Z</time>
      </trkpt>
      <trkpt lat="46.9186" lon="8.6831">
        <ele>2134</ele>
        <time>2021-08-07T07:59:08.678Z</time>
      </trkpt>
      <trkpt lat="46.9186" lon="8.6831">
        <ele>2134</ele>
        <time>2021-08-07T07:59:09.678Z</time>
      </trkpt>
      <trkpt lat="46.9186" lon="8.68309">
        <ele>2135</ele>
        <time>2021-08-07T07:59:10.677Z</time>
      </trkpt>
      <trkpt lat="46.9186" lon="8.68308">
        <ele>2135</ele>
        <time>2021-08-07T07:59:11.677Z</time>
      </trkpt>
      <trkpt lat="46.9186" lon="8.68308">
        <ele>2135</ele>
        <time>2021-08-07T07:59:12.677Z</time>
      </trkpt>
      <trkpt lat="46.91861" lon="8.68307">
        <ele>2135</ele>
        <time>2021-08-07T07:59:13.678Z</time>
      </trkpt>
      <trkpt lat="46.91861" lon="8.68307">
        <ele>2135</ele>
        <time>2021-08-07T07:59:14.678Z</time>
      </trkpt>
      <trkpt lat="46.91861" lon="8.68306">
        <ele>2135</ele>
        <time>2021-08-07T07:59:15.677Z</time>
      </trkpt>
      <trkpt lat="46.91861" lon="8.68306">
        <ele>2136</ele>
        <time>2021-08-07T07:59:16.677Z</time>
      </trkpt>
      <trkpt lat="46.91861" lon="8.68305">
        <ele>2136</ele>
        <time>2021-08-07T07:59:17.677Z</time>
      </trkpt>
      <trkpt lat="46.91861" lon="8.68305">
        <ele>2136</ele>
        <time>2021-08-07T07:59:18.678Z</time>
      </trkpt>
      <trkpt lat="46.91861" lon="8.68305">
        <ele>2136</ele>
        <time>2021-08-07T07:59:19.677Z</time>
      </trkpt>
      <trkpt lat="46.9186" lon="8.68304">
        <ele>2136</ele>
        <time>2021-08-07T07:59:20.677Z</time>
      </trkpt>
      <trkpt lat="46.91861" lon="8.68304">
        <ele>2136</ele>
        <time>2021-08-07T07:59:21.677Z</time>
      </trkpt>
      <trkpt lat="46.91861" lon="8.68303">
        <ele>2136</ele>
        <time>2021-08-07T07:59:22.678Z</time>
      </trkpt>
      <trkpt lat="46.91861" lon="8.68303">
        <ele>2137</ele>
        <time>2021-08-07T07:59:23.677Z</time>
      </trkpt>
      <trkpt lat="46.91861" lon="8.68303">
        <ele>2137</ele>
        <time>2021-08-07T07:59:24.677Z</time>
      </trkpt>
      <trkpt lat="46.91863" lon="8.68302">
        <ele>2138</ele>
        <time>2021-08-07T07:59:25.679Z</time>
      </trkpt>
      <trkpt lat="46.91864" lon="8.68303">
        <ele>2139</ele>
        <time>2021-08-07T07:59:26.678Z</time>
      </trkpt>
      <trkpt lat="46.91864" lon="8.68303">
        <ele>2139</ele>
        <time>2021-08-07T07:59:27.679Z</time>
      </trkpt>
      <trkpt lat="46.91864" lon="8.68302">
        <ele>2140</ele>
        <time>2021-08-07T07:59:28.679Z</time>
      </trkpt>
      <trkpt lat="46.91864" lon="8.68302">
        <ele>2139</ele>
        <time>2021-08-07T07:59:29.679Z</time>
      </trkpt>
      <trkpt lat="46.91864" lon="8.68302">
        <ele>2136</ele>
        <time>2021-08-07T07:59:30.680Z</time>
      </trkpt>
      <trkpt lat="46.91864" lon="8.68302">
        <ele>2136</ele>
        <time>2021-08-07T07:59:31.680Z</time>
      </trkpt>
      <trkpt lat="46.91864" lon="8.68303">
        <ele>2137</ele>
        <time>2021-08-07T07:59:32.680Z</time>
      </trkpt>
      <trkpt lat="46.91862" lon="8.68302">
        <ele>2139</ele>
        <time>2021-08-07T07:59:33.681Z</time>
      </trkpt>
      <trkpt lat="46.91862" lon="8.68302">
        <ele>2139</ele>
        <time>2021-08-07T07:59:34.680Z</time>
      </trkpt>
      <trkpt lat="46.91862" lon="8.68302">
        <ele>2138</ele>
        <time>2021-08-07T07:59:35.681Z</time>
      </trkpt>
      <trkpt lat="46.91863" lon="8.68302">
        <ele>2139</ele>
        <time>2021-08-07T07:59:36.681Z</time>
      </trkpt>
      <trkpt lat="46.91863" lon="8.68301">
        <ele>2139</ele>
        <time>2021-08-07T07:59:37.680Z</time>
      </trkpt>
      <trkpt lat="46.91864" lon="8.683">
        <ele>2138</ele>
        <time>2021-08-07T07:59:38.681Z</time>
      </trkpt>
      <trkpt lat="46.91867" lon="8.68295">
        <ele>2144</ele>
        <time>2021-08-07T07:59:39.682Z</time>
      </trkpt>
      <trkpt lat="46.91867" lon="8.68295">
        <ele>2146</ele>
        <time>2021-08-07T07:59:40.682Z</time>
      </trkpt>
      <trkpt lat="46.91868" lon="8.68294">
        <ele>2156</ele>
        <time>2021-08-07T07:59:41.681Z</time>
      </trkpt>
      <trkpt lat="46.91868" lon="8.68294">
        <ele>2156</ele>
        <time>2021-08-07T07:59:42.682Z</time>
      </trkpt>
      <trkpt lat="46.9187" lon="8.68296">
        <ele>2154</ele>
        <time>2021-08-07T07:59:43.683Z</time>
      </trkpt>
      <trkpt lat="46.9187" lon="8.68297">
        <ele>2154</ele>
        <time>2021-08-07T07:59:44.683Z</time>
      </trkpt>
      <trkpt lat="46.91869" lon="8.68298">
        <ele>2154</ele>
        <time>2021-08-07T07:59:45.682Z</time>
      </trkpt>
      <trkpt lat="46.91867" lon="8.68298">
        <ele>2149</ele>
        <time>2021-08-07T07:59:46.683Z</time>
      </trkpt>
      <trkpt lat="46.91866" lon="8.68298">
        <ele>2148</ele>
        <time>2021-08-07T07:59:47.683Z</time>
      </trkpt>
      <trkpt lat="46.91867" lon="8.68297">
        <ele>2143</ele>
        <time>2021-08-07T07:59:48.683Z</time>
      </trkpt>
      <trkpt lat="46.91868" lon="8.68298">
        <ele>2143</ele>
        <time>2021-08-07T07:59:49.684Z</time>
      </trkpt>
      <trkpt lat="46.91868" lon="8.68299">
        <ele>2144</ele>
        <time>2021-08-07T07:59:50.684Z</time>
      </trkpt>
      <trkpt lat="46.91868" lon="8.68298">
        <ele>2144</ele>
        <time>2021-08-07T07:59:51.683Z</time>
      </trkpt>
      <trkpt lat="46.91868" lon="8.68298">
        <ele>2143</ele>
        <time>2021-08-07T07:59:52.684Z</time>
      </trkpt>
      <trkpt lat="46.91866" lon="8.68299">
        <ele>2138</ele>
        <time>2021-08-07T07:59:53.684Z</time>
      </trkpt>
      <trkpt lat="46.91867" lon="8.68298">
        <ele>2138</ele>
        <time>2021-08-07T07:59:54.684Z</time>
      </trkpt>
      <trkpt lat="46.91867" lon="8.68298">
        <ele>2138</ele>
        <time>2021-08-07T07:59:55.683Z</time>
      </trkpt>
      <trkpt lat="46.91867" lon="8.68298">
        <ele>2138</ele>
        <time>2021-08-07T07:59:56.683Z</time>
      </trkpt>
      <trkpt lat="46.91864" lon="8.68299">
        <ele>2138</ele>
        <time>2021-08-07T07:59:57.685Z</time>
      </trkpt>
      <trkpt lat="46.91864" lon="8.68299">
        <ele>2138</ele>
        <time>2021-08-07T07:59:58.684Z</time>
      </trkpt>
      <trkpt lat="46.91864" lon="8.68299">
        <ele>2138</ele>
        <time>2021-08-07T07:59:59.684Z</time>
      </trkpt>
      <trkpt lat="46.91864" lon="8.68299">
        <ele>2138</ele>
        <time>2021-08-07T08:00:00.684Z</time>
      </trkpt>
      <trkpt lat="46.91864" lon="8.68298">
        <ele>2138</ele>
        <time>2021-08-07T08:00:01.685Z</time>
      </trkpt>
      <trkpt lat="46.91863" lon="8.68298">
        <ele>2138</ele>
        <time>2021-08-07T08:00:02.684Z</time>
      </trkpt>
      <trkpt lat="46.91863" lon="8.68299">
        <ele>2139</ele>
        <time>2021-08-07T08:00:03.684Z</time>
      </trkpt>
      <trkpt lat="46.91863" lon="8.68299">
        <ele>2139</ele>
        <time>2021-08-07T08:00:04.684Z</time>
      </trkpt>
      <trkpt lat="46.91861" lon="8.683">
        <ele>2137</ele>
        <time>2021-08-07T08:00:05.685Z</time>
      </trkpt>
      <trkpt lat="46.91861" lon="8.683">
        <ele>2137</ele>
        <time>2021-08-07T08:00:06.686Z</time>
      </trkpt>
      <trkpt lat="46.9186" lon="8.68302">
        <ele>2137</ele>
        <time>2021-08-07T08:00:07.686Z</time>
      </trkpt>
      <trkpt lat="46.9186" lon="8.68303">
        <ele>2137</ele>
        <time>2021-08-07T08:00:08.686Z</time>
      </trkpt>
      <trkpt lat="46.9186" lon="8.68303">
        <ele>2138</ele>
        <time>2021-08-07T08:00:09.685Z</time>
      </trkpt>
      <trkpt lat="46.9186" lon="8.68304">
        <ele>2138</ele>
        <time>2021-08-07T08:00:10.685Z</time>
      </trkpt>
      <trkpt lat="46.9186" lon="8.68303">
        <ele>2141</ele>
        <time>2021-08-07T08:00:11.687Z</time>
      </trkpt>
      <trkpt lat="46.9186" lon="8.68303">
        <ele>2141</ele>
        <time>2021-08-07T08:00:12.687Z</time>
      </trkpt>
      <trkpt lat="46.91861" lon="8.68303">
        <ele>2141</ele>
        <time>2021-08-07T08:00:13.687Z</time>
      </trkpt>
      <trkpt lat="46.91861" lon="8.68303">
        <ele>2141</ele>
        <time>2021-08-07T08:00:14.687Z</time>
      </trkpt>
      <trkpt lat="46.91861" lon="8.68302">
        <ele>2141</ele>
        <time>2021-08-07T08:00:15.687Z</time>
      </trkpt>
      <trkpt lat="46.91861" lon="8.68302">
        <ele>2141</ele>
        <time>2021-08-07T08:00:16.687Z</time>
      </trkpt>
      <trkpt lat="46.91861" lon="8.68303">
        <ele>2142</ele>
        <time>2021-08-07T08:00:17.687Z</time>
      </trkpt>
      <trkpt lat="46.91861" lon="8.68304">
        <ele>2141</ele>
        <time>2021-08-07T08:00:18.688Z</time>
      </trkpt>
      <trkpt lat="46.91861" lon="8.68304">
        <ele>2141</ele>
        <time>2021-08-07T08:00:19.688Z</time>
      </trkpt>
      <trkpt lat="46.91861" lon="8.68304">
        <ele>2138</ele>
        <time>2021-08-07T08:00:20.688Z</time>
      </trkpt>
      <trkpt lat="46.91861" lon="8.68303">
        <ele>2137</ele>
        <time>2021-08-07T08:00:21.688Z</time>
      </trkpt>
      <trkpt lat="46.9186" lon="8.68303">
        <ele>2137</ele>
        <time>2021-08-07T08:00:22.687Z</time>
      </trkpt>
      <trkpt lat="46.9186" lon="8.68303">
        <ele>2137</ele>
        <time>2021-08-07T08:00:23.688Z</time>
      </trkpt>
      <trkpt lat="46.91861" lon="8.68303">
        <ele>2136</ele>
        <time>2021-08-07T08:00:24.688Z</time>
      </trkpt>
      <trkpt lat="46.91861" lon="8.68303">
        <ele>2136</ele>
        <time>2021-08-07T08:00:25.688Z</time>
      </trkpt>
      <trkpt lat="46.91861" lon="8.68302">
        <ele>2136</ele>
        <time>2021-08-07T08:00:26.688Z</time>
      </trkpt>
      <trkpt lat="46.91864" lon="8.683">
        <ele>2136</ele>
        <time>2021-08-07T08:00:27.689Z</time>
      </trkpt>
      <trkpt lat="46.91866" lon="8.68296">
        <ele>2140</ele>
        <time>2021-08-07T08:00:28.689Z</time>
      </trkpt>
      <trkpt lat="46.91866" lon="8.68295">
        <ele>2141</ele>
        <time>2021-08-07T08:00:29.689Z</time>
      </trkpt>
      <trkpt lat="46.91863" lon="8.68297">
        <ele>2138</ele>
        <time>2021-08-07T08:00:30.690Z</time>
      </trkpt>
      <trkpt lat="46.91864" lon="8.68297">
        <ele>2138</ele>
        <time>2021-08-07T08:00:31.689Z</time>
      </trkpt>
      <trkpt lat="46.91864" lon="8.68297">
        <ele>2138</ele>
        <time>2021-08-07T08:00:32.689Z</time>
      </trkpt>
      <trkpt lat="46.91864" lon="8.68297">
        <ele>2138</ele>
        <time>2021-08-07T08:00:33.689Z</time>
      </trkpt>
      <trkpt lat="46.91864" lon="8.68298">
        <ele>2137</ele>
        <time>2021-08-07T08:00:34.690Z</time>
      </trkpt>
      <trkpt lat="46.91864" lon="8.68298">
        <ele>2137</ele>
        <time>2021-08-07T08:00:35.689Z</time>
      </trkpt>
      <trkpt lat="46.91864" lon="8.68298">
        <ele>2137</ele>
        <time>2021-08-07T08:00:36.689Z</time>
      </trkpt>
      <trkpt lat="46.91864" lon="8.68301">
        <ele>2138</ele>
        <time>2021-08-07T08:00:37.689Z</time>
      </trkpt>
      <trkpt lat="46.91866" lon="8.683">
        <ele>2137</ele>
        <time>2021-08-07T08:00:38.690Z</time>
      </trkpt>
      <trkpt lat="46.91867" lon="8.68299">
        <ele>2134</ele>
        <time>2021-08-07T08:00:39.691Z</time>
      </trkpt>
      <trkpt lat="46.91866" lon="8.68302">
        <ele>2131</ele>
        <time>2021-08-07T08:00:40.691Z</time>
      </trkpt>
      <trkpt lat="46.91866" lon="8.683">
        <ele>2132</ele>
        <time>2021-08-07T08:00:41.690Z</time>
      </trkpt>
      <trkpt lat="46.91866" lon="8.683">
        <ele>2132</ele>
        <time>2021-08-07T08:00:42.690Z</time>
      </trkpt>
      <trkpt lat="46.91866" lon="8.683">
        <ele>2132</ele>
        <time>2021-08-07T08:00:43.690Z</time>
      </trkpt>
      <trkpt lat="46.91863" lon="8.68301">
        <ele>2137</ele>
        <time>2021-08-07T08:00:44.690Z</time>
      </trkpt>
      <trkpt lat="46.91866" lon="8.68304">
        <ele>2135</ele>
        <time>2021-08-07T08:00:45.691Z</time>
      </trkpt>
      <trkpt lat="46.91866" lon="8.68304">
        <ele>2135</ele>
        <time>2021-08-07T08:00:46.690Z</time>
      </trkpt>
      <trkpt lat="46.91864" lon="8.68303">
        <ele>2136</ele>
        <time>2021-08-07T08:00:47.690Z</time>
      </trkpt>
      <trkpt lat="46.91864" lon="8.68303">
        <ele>2136</ele>
        <time>2021-08-07T08:00:48.691Z</time>
      </trkpt>
      <trkpt lat="46.91863" lon="8.68303">
        <ele>2135</ele>
        <time>2021-08-07T08:00:49.690Z</time>
      </trkpt>
      <trkpt lat="46.91863" lon="8.68303">
        <ele>2135</ele>
        <time>2021-08-07T08:00:50.690Z</time>
      </trkpt>
      <trkpt lat="46.91864" lon="8.68302">
        <ele>2135</ele>
        <time>2021-08-07T08:00:51.690Z</time>
      </trkpt>
      <trkpt lat="46.91863" lon="8.68302">
        <ele>2136</ele>
        <time>2021-08-07T08:00:52.690Z</time>
      </trkpt>
      <trkpt lat="46.91863" lon="8.68301">
        <ele>2137</ele>
        <time>2021-08-07T08:00:53.692Z</time>
      </trkpt>
      <trkpt lat="46.91863" lon="8.68301">
        <ele>2137</ele>
        <time>2021-08-07T08:00:54.692Z</time>
      </trkpt>
      <trkpt lat="46.91863" lon="8.68302">
        <ele>2137</ele>
        <time>2021-08-07T08:00:55.692Z</time>
      </trkpt>
      <trkpt lat="46.91863" lon="8.68301">
        <ele>2133</ele>
        <time>2021-08-07T08:00:59.691Z</time>
      </trkpt>
      <trkpt lat="46.91863" lon="8.68302">
        <ele>2133</ele>
        <time>2021-08-07T08:01:00.692Z</time>
      </trkpt>
      <trkpt lat="46.91862" lon="8.68302">
        <ele>2134</ele>
        <time>2021-08-07T08:01:01.691Z</time>
      </trkpt>
      <trkpt lat="46.91862" lon="8.68302">
        <ele>2134</ele>
        <time>2021-08-07T08:01:02.692Z</time>
      </trkpt>
      <trkpt lat="46.91861" lon="8.68301">
        <ele>2135</ele>
        <time>2021-08-07T08:01:03.692Z</time>
      </trkpt>
      <trkpt lat="46.91861" lon="8.68301">
        <ele>2135</ele>
        <time>2021-08-07T08:01:04.692Z</time>
      </trkpt>
      <trkpt lat="46.91861" lon="8.68301">
        <ele>2137</ele>
        <time>2021-08-07T08:01:05.692Z</time>
      </trkpt>
      <trkpt lat="46.9186" lon="8.683">
        <ele>2137</ele>
        <time>2021-08-07T08:01:06.693Z</time>
      </trkpt>
      <trkpt lat="46.91861" lon="8.683">
        <ele>2138</ele>
        <time>2021-08-07T08:01:07.692Z</time>
      </trkpt>
      <trkpt lat="46.91861" lon="8.683">
        <ele>2138</ele>
        <time>2021-08-07T08:01:08.692Z</time>
      </trkpt>
      <trkpt lat="46.91862" lon="8.68299">
        <ele>2138</ele>
        <time>2021-08-07T08:01:09.693Z</time>
      </trkpt>
      <trkpt lat="46.91862" lon="8.683">
        <ele>2138</ele>
        <time>2021-08-07T08:01:10.693Z</time>
      </trkpt>
      <trkpt lat="46.91862" lon="8.683">
        <ele>2137</ele>
        <time>2021-08-07T08:01:11.693Z</time>
      </trkpt>
      <trkpt lat="46.91862" lon="8.683">
        <ele>2137</ele>
        <time>2021-08-07T08:01:12.693Z</time>
      </trkpt>
      <trkpt lat="46.91862" lon="8.68301">
        <ele>2137</ele>
        <time>2021-08-07T08:01:13.693Z</time>
      </trkpt>
      <trkpt lat="46.91862" lon="8.68301">
        <ele>2137</ele>
        <time>2021-08-07T08:01:14.692Z</time>
      </trkpt>
      <trkpt lat="46.91862" lon="8.68301">
        <ele>2137</ele>
        <time>2021-08-07T08:01:15.692Z</time>
      </trkpt>
      <trkpt lat="46.91862" lon="8.68302">
        <ele>2137</ele>
        <time>2021-08-07T08:01:16.692Z</time>
      </trkpt>
      <trkpt lat="46.91862" lon="8.68303">
        <ele>2137</ele>
        <time>2021-08-07T08:01:17.693Z</time>
      </trkpt>
      <trkpt lat="46.91862" lon="8.68304">
        <ele>2137</ele>
        <time>2021-08-07T08:01:18.692Z</time>
      </trkpt>
      <trkpt lat="46.91862" lon="8.68305">
        <ele>2136</ele>
        <time>2021-08-07T08:01:19.693Z</time>
      </trkpt>
      <trkpt lat="46.91861" lon="8.68305">
        <ele>2136</ele>
        <time>2021-08-07T08:01:20.694Z</time>
      </trkpt>
      <trkpt lat="46.91862" lon="8.68304">
        <ele>2133</ele>
        <time>2021-08-07T08:01:21.693Z</time>
      </trkpt>
      <trkpt lat="46.91862" lon="8.68303">
        <ele>2133</ele>
        <time>2021-08-07T08:01:22.693Z</time>
      </trkpt>
      <trkpt lat="46.91863" lon="8.68302">
        <ele>2133</ele>
        <time>2021-08-07T08:01:23.693Z</time>
      </trkpt>
      <trkpt lat="46.91864" lon="8.68299">
        <ele>2138</ele>
        <time>2021-08-07T08:01:24.694Z</time>
      </trkpt>
      <trkpt lat="46.91864" lon="8.683">
        <ele>2138</ele>
        <time>2021-08-07T08:01:25.693Z</time>
      </trkpt>
      <trkpt lat="46.91863" lon="8.68301">
        <ele>2139</ele>
        <time>2021-08-07T08:01:26.694Z</time>
      </trkpt>
      <trkpt lat="46.91863" lon="8.68301">
        <ele>2139</ele>
        <time>2021-08-07T08:01:27.694Z</time>
      </trkpt>
      <trkpt lat="46.91863" lon="8.68301">
        <ele>2139</ele>
        <time>2021-08-07T08:01:28.693Z</time>
      </trkpt>
      <trkpt lat="46.91864" lon="8.68301">
        <ele>2140</ele>
        <time>2021-08-07T08:01:29.693Z</time>
      </trkpt>
      <trkpt lat="46.91864" lon="8.683">
        <ele>2138</ele>
        <time>2021-08-07T08:01:30.694Z</time>
      </trkpt>
      <trkpt lat="46.91863" lon="8.683">
        <ele>2139</ele>
        <time>2021-08-07T08:01:31.694Z</time>
      </trkpt>
      <trkpt lat="46.91863" lon="8.683">
        <ele>2139</ele>
        <time>2021-08-07T08:01:32.694Z</time>
      </trkpt>
      <trkpt lat="46.91862" lon="8.68301">
        <ele>2139</ele>
        <time>2021-08-07T08:01:33.694Z</time>
      </trkpt>
      <trkpt lat="46.91862" lon="8.68301">
        <ele>2139</ele>
        <time>2021-08-07T08:01:34.693Z</time>
      </trkpt>
      <trkpt lat="46.91862" lon="8.68301">
        <ele>2139</ele>
        <time>2021-08-07T08:01:35.693Z</time>
      </trkpt>
      <trkpt lat="46.91862" lon="8.68302">
        <ele>2135</ele>
        <time>2021-08-07T08:01:36.693Z</time>
      </trkpt>
      <trkpt lat="46.91862" lon="8.68302">
        <ele>2136</ele>
        <time>2021-08-07T08:01:37.694Z</time>
      </trkpt>
      <trkpt lat="46.91862" lon="8.68301">
        <ele>2138</ele>
        <time>2021-08-07T08:01:38.695Z</time>
      </trkpt>
      <trkpt lat="46.91862" lon="8.68301">
        <ele>2138</ele>
        <time>2021-08-07T08:01:39.695Z</time>
      </trkpt>
      <trkpt lat="46.91862" lon="8.68301">
        <ele>2139</ele>
        <time>2021-08-07T08:01:40.694Z</time>
      </trkpt>
      <trkpt lat="46.91864" lon="8.68303">
        <ele>2136</ele>
        <time>2021-08-07T08:01:41.694Z</time>
      </trkpt>
      <trkpt lat="46.91864" lon="8.68303">
        <ele>2137</ele>
        <time>2021-08-07T08:01:42.694Z</time>
      </trkpt>
      <trkpt lat="46.9186" lon="8.68302">
        <ele>2136</ele>
        <time>2021-08-07T08:01:43.694Z</time>
      </trkpt>
      <trkpt lat="46.9186" lon="8.68302">
        <ele>2136</ele>
        <time>2021-08-07T08:01:44.695Z</time>
      </trkpt>
      <trkpt lat="46.91863" lon="8.68301">
        <ele>2134</ele>
        <time>2021-08-07T08:01:45.695Z</time>
      </trkpt>
      <trkpt lat="46.91863" lon="8.68302">
        <ele>2139</ele>
        <time>2021-08-07T08:01:46.696Z</time>
      </trkpt>
      <trkpt lat="46.91863" lon="8.68302">
        <ele>2139</ele>
        <time>2021-08-07T08:01:47.695Z</time>
      </trkpt>
      <trkpt lat="46.91862" lon="8.68302">
        <ele>2137</ele>
        <time>2021-08-07T08:01:48.695Z</time>
      </trkpt>
      <trkpt lat="46.91862" lon="8.68302">
        <ele>2137</ele>
        <time>2021-08-07T08:01:49.695Z</time>
      </trkpt>
      <trkpt lat="46.91862" lon="8.68302">
        <ele>2136</ele>
        <time>2021-08-07T08:01:50.695Z</time>
      </trkpt>
      <trkpt lat="46.91862" lon="8.68302">
        <ele>2136</ele>
        <time>2021-08-07T08:01:51.696Z</time>
      </trkpt>
      <trkpt lat="46.91862" lon="8.68302">
        <ele>2136</ele>
        <time>2021-08-07T08:01:52.696Z</time>
      </trkpt>
      <trkpt lat="46.91862" lon="8.68301">
        <ele>2136</ele>
        <time>2021-08-07T08:01:53.695Z</time>
      </trkpt>
      <trkpt lat="46.91863" lon="8.683">
        <ele>2144</ele>
        <time>2021-08-07T08:01:54.696Z</time>
      </trkpt>
      <trkpt lat="46.91863" lon="8.683">
        <ele>2144</ele>
        <time>2021-08-07T08:01:55.695Z</time>
      </trkpt>
      <trkpt lat="46.91865" lon="8.68303">
        <ele>2139</ele>
        <time>2021-08-07T08:01:56.696Z</time>
      </trkpt>
      <trkpt lat="46.91865" lon="8.68303">
        <ele>2139</ele>
        <time>2021-08-07T08:01:57.695Z</time>
      </trkpt>
      <trkpt lat="46.91862" lon="8.68303">
        <ele>2137</ele>
        <time>2021-08-07T08:01:58.696Z</time>
      </trkpt>
      <trkpt lat="46.91863" lon="8.68303">
        <ele>2138</ele>
        <time>2021-08-07T08:01:59.696Z</time>
      </trkpt>
      <trkpt lat="46.91863" lon="8.68302">
        <ele>2138</ele>
        <time>2021-08-07T08:02:00.695Z</time>
      </trkpt>
      <trkpt lat="46.91863" lon="8.68302">
        <ele>2138</ele>
        <time>2021-08-07T08:02:01.695Z</time>
      </trkpt>
      <trkpt lat="46.91863" lon="8.68301">
        <ele>2138</ele>
        <time>2021-08-07T08:02:02.695Z</time>
      </trkpt>
      <trkpt lat="46.91863" lon="8.683">
        <ele>2138</ele>
        <time>2021-08-07T08:02:03.695Z</time>
      </trkpt>
      <trkpt lat="46.91863" lon="8.683">
        <ele>2138</ele>
        <time>2021-08-07T08:02:04.696Z</time>
      </trkpt>
      <trkpt lat="46.91863" lon="8.683">
        <ele>2138</ele>
        <time>2021-08-07T08:02:05.696Z</time>
      </trkpt>
      <trkpt lat="46.91864" lon="8.683">
        <ele>2138</ele>
        <time>2021-08-07T08:02:06.696Z</time>
      </trkpt>
      <trkpt lat="46.91864" lon="8.683">
        <ele>2139</ele>
        <time>2021-08-07T08:02:07.695Z</time>
      </trkpt>
      <trkpt lat="46.91864" lon="8.683">
        <ele>2139</ele>
        <time>2021-08-07T08:02:08.696Z</time>
      </trkpt>
      <trkpt lat="46.91865" lon="8.683">
        <ele>2140</ele>
        <time>2021-08-07T08:02:09.696Z</time>
      </trkpt>
      <trkpt lat="46.91865" lon="8.683">
        <ele>2141</ele>
        <time>2021-08-07T08:02:10.696Z</time>
      </trkpt>
      <trkpt lat="46.91866" lon="8.68299">
        <ele>2141</ele>
        <time>2021-08-07T08:02:11.696Z</time>
      </trkpt>
      <trkpt lat="46.91866" lon="8.68299">
        <ele>2142</ele>
        <time>2021-08-07T08:02:12.696Z</time>
      </trkpt>
      <trkpt lat="46.91866" lon="8.68299">
        <ele>2142</ele>
        <time>2021-08-07T08:02:13.696Z</time>
      </trkpt>
      <trkpt lat="46.91866" lon="8.68299">
        <ele>2141</ele>
        <time>2021-08-07T08:02:14.695Z</time>
      </trkpt>
      <trkpt lat="46.91866" lon="8.68299">
        <ele>2141</ele>
        <time>2021-08-07T08:02:15.696Z</time>
      </trkpt>
      <trkpt lat="46.91866" lon="8.68299">
        <ele>2140</ele>
        <time>2021-08-07T08:02:16.695Z</time>
      </trkpt>
      <trkpt lat="46.91866" lon="8.68299">
        <ele>2139</ele>
        <time>2021-08-07T08:02:17.696Z</time>
      </trkpt>
      <trkpt lat="46.91866" lon="8.68299">
        <ele>2138</ele>
        <time>2021-08-07T08:02:18.696Z</time>
      </trkpt>
      <trkpt lat="46.91866" lon="8.68299">
        <ele>2138</ele>
        <time>2021-08-07T08:02:19.696Z</time>
      </trkpt>
      <trkpt lat="46.91866" lon="8.68299">
        <ele>2138</ele>
        <time>2021-08-07T08:02:20.696Z</time>
      </trkpt>
      <trkpt lat="46.91866" lon="8.68299">
        <ele>2138</ele>
        <time>2021-08-07T08:02:21.695Z</time>
      </trkpt>
      <trkpt lat="46.91866" lon="8.68299">
        <ele>2138</ele>
        <time>2021-08-07T08:02:22.695Z</time>
      </trkpt>
      <trkpt lat="46.91866" lon="8.68299">
        <ele>2138</ele>
        <time>2021-08-07T08:02:23.696Z</time>
      </trkpt>
      <trkpt lat="46.91866" lon="8.683">
        <ele>2138</ele>
        <time>2021-08-07T08:02:24.695Z</time>
      </trkpt>
      <trkpt lat="46.91866" lon="8.683">
        <ele>2138</ele>
        <time>2021-08-07T08:02:25.696Z</time>
      </trkpt>
      <trkpt lat="46.91866" lon="8.683">
        <ele>2139</ele>
        <time>2021-08-07T08:02:26.696Z</time>
      </trkpt>
      <trkpt lat="46.91866" lon="8.683">
        <ele>2139</ele>
        <time>2021-08-07T08:02:27.696Z</time>
      </trkpt>
      <trkpt lat="46.91866" lon="8.683">
        <ele>2138</ele>
        <time>2021-08-07T08:02:28.696Z</time>
      </trkpt>
      <trkpt lat="46.91866" lon="8.683">
        <ele>2138</ele>
        <time>2021-08-07T08:02:29.695Z</time>
      </trkpt>
      <trkpt lat="46.91865" lon="8.683">
        <ele>2138</ele>
        <time>2021-08-07T08:02:30.695Z</time>
      </trkpt>
      <trkpt lat="46.91865" lon="8.683">
        <ele>2137</ele>
        <time>2021-08-07T08:02:31.696Z</time>
      </trkpt>
      <trkpt lat="46.91865" lon="8.683">
        <ele>2137</ele>
        <time>2021-08-07T08:02:32.695Z</time>
      </trkpt>
      <trkpt lat="46.91865" lon="8.683">
        <ele>2137</ele>
        <time>2021-08-07T08:02:33.695Z</time>
      </trkpt>
      <trkpt lat="46.91865" lon="8.683">
        <ele>2137</ele>
        <time>2021-08-07T08:02:34.696Z</time>
      </trkpt>
      <trkpt lat="46.91865" lon="8.683">
        <ele>2137</ele>
        <time>2021-08-07T08:02:35.696Z</time>
      </trkpt>
      <trkpt lat="46.91865" lon="8.683">
        <ele>2137</ele>
        <time>2021-08-07T08:02:36.696Z</time>
      </trkpt>
      <trkpt lat="46.91865" lon="8.683">
        <ele>2138</ele>
        <time>2021-08-07T08:02:37.695Z</time>
      </trkpt>
      <trkpt lat="46.91865" lon="8.68301">
        <ele>2138</ele>
        <time>2021-08-07T08:02:38.695Z</time>
      </trkpt>
      <trkpt lat="46.91866" lon="8.68301">
        <ele>2138</ele>
        <time>2021-08-07T08:02:39.695Z</time>
      </trkpt>
      <trkpt lat="46.91866" lon="8.68301">
        <ele>2138</ele>
        <time>2021-08-07T08:02:40.695Z</time>
      </trkpt>
      <trkpt lat="46.91866" lon="8.683">
        <ele>2137</ele>
        <time>2021-08-07T08:02:41.695Z</time>
      </trkpt>
      <trkpt lat="46.91865" lon="8.683">
        <ele>2137</ele>
        <time>2021-08-07T08:02:42.695Z</time>
      </trkpt>
      <trkpt lat="46.91865" lon="8.683">
        <ele>2138</ele>
        <time>2021-08-07T08:02:43.695Z</time>
      </trkpt>
      <trkpt lat="46.91865" lon="8.68301">
        <ele>2138</ele>
        <time>2021-08-07T08:02:44.696Z</time>
      </trkpt>
      <trkpt lat="46.91864" lon="8.68301">
        <ele>2138</ele>
        <time>2021-08-07T08:02:45.695Z</time>
      </trkpt>
      <trkpt lat="46.91864" lon="8.68302">
        <ele>2138</ele>
        <time>2021-08-07T08:02:46.695Z</time>
      </trkpt>
      <trkpt lat="46.91864" lon="8.68302">
        <ele>2138</ele>
        <time>2021-08-07T08:02:47.695Z</time>
      </trkpt>
      <trkpt lat="46.91864" lon="8.68302">
        <ele>2138</ele>
        <time>2021-08-07T08:02:48.696Z</time>
      </trkpt>
      <trkpt lat="46.91862" lon="8.68301">
        <ele>2138</ele>
        <time>2021-08-07T08:02:49.696Z</time>
      </trkpt>
      <trkpt lat="46.91862" lon="8.68302">
        <ele>2137</ele>
        <time>2021-08-07T08:02:50.696Z</time>
      </trkpt>
      <trkpt lat="46.91862" lon="8.68302">
        <ele>2137</ele>
        <time>2021-08-07T08:02:51.696Z</time>
      </trkpt>
      <trkpt lat="46.91862" lon="8.68302">
        <ele>2137</ele>
        <time>2021-08-07T08:02:52.696Z</time>
      </trkpt>
      <trkpt lat="46.91862" lon="8.68301">
        <ele>2137</ele>
        <time>2021-08-07T08:02:53.695Z</time>
      </trkpt>
      <trkpt lat="46.91862" lon="8.68301">
        <ele>2138</ele>
        <time>2021-08-07T08:02:54.696Z</time>
      </trkpt>
      <trkpt lat="46.91862" lon="8.683">
        <ele>2138</ele>
        <time>2021-08-07T08:02:55.696Z</time>
      </trkpt>
      <trkpt lat="46.91863" lon="8.68301">
        <ele>2138</ele>
        <time>2021-08-07T08:02:56.697Z</time>
      </trkpt>
      <trkpt lat="46.91863" lon="8.68301">
        <ele>2138</ele>
        <time>2021-08-07T08:02:57.697Z</time>
      </trkpt>
      <trkpt lat="46.91863" lon="8.68301">
        <ele>2139</ele>
        <time>2021-08-07T08:02:58.697Z</time>
      </trkpt>
      <trkpt lat="46.91863" lon="8.68301">
        <ele>2137</ele>
        <time>2021-08-07T08:02:59.699Z</time>
      </trkpt>
      <trkpt lat="46.91863" lon="8.68301">
        <ele>2137</ele>
        <time>2021-08-07T08:03:00.698Z</time>
      </trkpt>
      <trkpt lat="46.91863" lon="8.683">
        <ele>2137</ele>
        <time>2021-08-07T08:03:01.698Z</time>
      </trkpt>
      <trkpt lat="46.91864" lon="8.683">
        <ele>2137</ele>
        <time>2021-08-07T08:03:02.699Z</time>
      </trkpt>
      <trkpt lat="46.91864" lon="8.683">
        <ele>2137</ele>
        <time>2021-08-07T08:03:03.698Z</time>
      </trkpt>
      <trkpt lat="46.91864" lon="8.68299">
        <ele>2137</ele>
        <time>2021-08-07T08:03:04.699Z</time>
      </trkpt>
      <trkpt lat="46.91864" lon="8.68299">
        <ele>2138</ele>
        <time>2021-08-07T08:03:05.699Z</time>
      </trkpt>
      <trkpt lat="46.91865" lon="8.683">
        <ele>2138</ele>
        <time>2021-08-07T08:03:06.699Z</time>
      </trkpt>
      <trkpt lat="46.91864" lon="8.683">
        <ele>2138</ele>
        <time>2021-08-07T08:03:07.699Z</time>
      </trkpt>
      <trkpt lat="46.91864" lon="8.683">
        <ele>2138</ele>
        <time>2021-08-07T08:03:08.698Z</time>
      </trkpt>
      <trkpt lat="46.91862" lon="8.68302">
        <ele>2138</ele>
        <time>2021-08-07T08:03:09.699Z</time>
      </trkpt>
      <trkpt lat="46.91862" lon="8.68302">
        <ele>2138</ele>
        <time>2021-08-07T08:03:10.699Z</time>
      </trkpt>
      <trkpt lat="46.91863" lon="8.68301">
        <ele>2139</ele>
        <time>2021-08-07T08:03:11.700Z</time>
      </trkpt>
      <trkpt lat="46.91863" lon="8.68301">
        <ele>2140</ele>
        <time>2021-08-07T08:03:12.700Z</time>
      </trkpt>
      <trkpt lat="46.91862" lon="8.68302">
        <ele>2137</ele>
        <time>2021-08-07T08:03:13.699Z</time>
      </trkpt>
      <trkpt lat="46.91863" lon="8.68302">
        <ele>2137</ele>
        <time>2021-08-07T08:03:14.699Z</time>
      </trkpt>
      <trkpt lat="46.91862" lon="8.683">
        <ele>2134</ele>
        <time>2021-08-07T08:03:15.700Z</time>
      </trkpt>
      <trkpt lat="46.91862" lon="8.68301">
        <ele>2135</ele>
        <time>2021-08-07T08:03:16.699Z</time>
      </trkpt>
      <trkpt lat="46.91863" lon="8.68302">
        <ele>2135</ele>
        <time>2021-08-07T08:03:17.699Z</time>
      </trkpt>
      <trkpt lat="46.91862" lon="8.683">
        <ele>2137</ele>
        <time>2021-08-07T08:03:18.701Z</time>
      </trkpt>
      <trkpt lat="46.91862" lon="8.683">
        <ele>2137</ele>
        <time>2021-08-07T08:03:19.701Z</time>
      </trkpt>
      <trkpt lat="46.91862" lon="8.683">
        <ele>2138</ele>
        <time>2021-08-07T08:03:20.700Z</time>
      </trkpt>
      <trkpt lat="46.91862" lon="8.68298">
        <ele>2138</ele>
        <time>2021-08-07T08:03:21.701Z</time>
      </trkpt>
      <trkpt lat="46.91862" lon="8.68298">
        <ele>2138</ele>
        <time>2021-08-07T08:03:22.701Z</time>
      </trkpt>
      <trkpt lat="46.91862" lon="8.68301">
        <ele>2139</ele>
        <time>2021-08-07T08:03:23.701Z</time>
      </trkpt>
      <trkpt lat="46.91862" lon="8.68301">
        <ele>2140</ele>
        <time>2021-08-07T08:03:24.701Z</time>
      </trkpt>
      <trkpt lat="46.91862" lon="8.68302">
        <ele>2141</ele>
        <time>2021-08-07T08:03:25.700Z</time>
      </trkpt>
      <trkpt lat="46.91862" lon="8.68302">
        <ele>2141</ele>
        <time>2021-08-07T08:03:26.701Z</time>
      </trkpt>
      <trkpt lat="46.91862" lon="8.68303">
        <ele>2140</ele>
        <time>2021-08-07T08:03:27.701Z</time>
      </trkpt>
      <trkpt lat="46.91862" lon="8.68303">
        <ele>2139</ele>
        <time>2021-08-07T08:03:28.701Z</time>
      </trkpt>
      <trkpt lat="46.91862" lon="8.68303">
        <ele>2139</ele>
        <time>2021-08-07T08:03:29.700Z</time>
      </trkpt>
      <trkpt lat="46.91862" lon="8.68303">
        <ele>2139</ele>
        <time>2021-08-07T08:03:30.700Z</time>
      </trkpt>
      <trkpt lat="46.91862" lon="8.68303">
        <ele>2139</ele>
        <time>2021-08-07T08:03:31.701Z</time>
      </trkpt>
      <trkpt lat="46.91862" lon="8.68303">
        <ele>2139</ele>
        <time>2021-08-07T08:03:32.701Z</time>
      </trkpt>
      <trkpt lat="46.91862" lon="8.68303">
        <ele>2139</ele>
        <time>2021-08-07T08:03:33.700Z</time>
      </trkpt>
      <trkpt lat="46.91862" lon="8.68303">
        <ele>2140</ele>
        <time>2021-08-07T08:03:34.701Z</time>
      </trkpt>
      <trkpt lat="46.91862" lon="8.68303">
        <ele>2140</ele>
        <time>2021-08-07T08:03:35.701Z</time>
      </trkpt>
      <trkpt lat="46.91862" lon="8.68303">
        <ele>2140</ele>
        <time>2021-08-07T08:03:36.701Z</time>
      </trkpt>
      <trkpt lat="46.91862" lon="8.68302">
        <ele>2139</ele>
        <time>2021-08-07T08:03:37.702Z</time>
      </trkpt>
      <trkpt lat="46.91862" lon="8.68302">
        <ele>2139</ele>
        <time>2021-08-07T08:03:38.702Z</time>
      </trkpt>
      <trkpt lat="46.91862" lon="8.68303">
        <ele>2141</ele>
        <time>2021-08-07T08:03:39.702Z</time>
      </trkpt>
      <trkpt lat="46.91862" lon="8.68303">
        <ele>2141</ele>
        <time>2021-08-07T08:03:40.701Z</time>
      </trkpt>
      <trkpt lat="46.91861" lon="8.68303">
        <ele>2140</ele>
        <time>2021-08-07T08:03:41.701Z</time>
      </trkpt>
      <trkpt lat="46.91861" lon="8.68303">
        <ele>2139</ele>
        <time>2021-08-07T08:03:42.701Z</time>
      </trkpt>
      <trkpt lat="46.91861" lon="8.68304">
        <ele>2138</ele>
        <time>2021-08-07T08:03:43.701Z</time>
      </trkpt>
      <trkpt lat="46.91861" lon="8.68304">
        <ele>2138</ele>
        <time>2021-08-07T08:03:44.701Z</time>
      </trkpt>
      <trkpt lat="46.91862" lon="8.68304">
        <ele>2140</ele>
        <time>2021-08-07T08:03:45.701Z</time>
      </trkpt>
      <trkpt lat="46.91862" lon="8.68304">
        <ele>2141</ele>
        <time>2021-08-07T08:03:46.701Z</time>
      </trkpt>
      <trkpt lat="46.91862" lon="8.68303">
        <ele>2141</ele>
        <time>2021-08-07T08:03:47.702Z</time>
      </trkpt>
      <trkpt lat="46.91861" lon="8.68303">
        <ele>2141</ele>
        <time>2021-08-07T08:03:48.702Z</time>
      </trkpt>
      <trkpt lat="46.91861" lon="8.68303">
        <ele>2141</ele>
        <time>2021-08-07T08:03:49.701Z</time>
      </trkpt>
      <trkpt lat="46.91862" lon="8.68302">
        <ele>2139</ele>
        <time>2021-08-07T08:03:50.704Z</time>
      </trkpt>
      <trkpt lat="46.91862" lon="8.68302">
        <ele>2139</ele>
        <time>2021-08-07T08:03:51.703Z</time>
      </trkpt>
      <trkpt lat="46.91861" lon="8.68301">
        <ele>2139</ele>
        <time>2021-08-07T08:03:52.704Z</time>
      </trkpt>
      <trkpt lat="46.91861" lon="8.68301">
        <ele>2140</ele>
        <time>2021-08-07T08:03:53.703Z</time>
      </trkpt>
      <trkpt lat="46.9186" lon="8.68301">
        <ele>2140</ele>
        <time>2021-08-07T08:03:54.704Z</time>
      </trkpt>
      <trkpt lat="46.91861" lon="8.68299">
        <ele>2140</ele>
        <time>2021-08-07T08:03:55.704Z</time>
      </trkpt>
      <trkpt lat="46.91862" lon="8.68299">
        <ele>2140</ele>
        <time>2021-08-07T08:03:56.704Z</time>
      </trkpt>
      <trkpt lat="46.91862" lon="8.68298">
        <ele>2141</ele>
        <time>2021-08-07T08:03:57.703Z</time>
      </trkpt>
      <trkpt lat="46.91862" lon="8.68297">
        <ele>2141</ele>
        <time>2021-08-07T08:03:58.704Z</time>
      </trkpt>
      <trkpt lat="46.91862" lon="8.68296">
        <ele>2141</ele>
        <time>2021-08-07T08:03:59.704Z</time>
      </trkpt>
      <trkpt lat="46.91861" lon="8.68294">
        <ele>2141</ele>
        <time>2021-08-07T08:04:00.704Z</time>
      </trkpt>
      <trkpt lat="46.91861" lon="8.68294">
        <ele>2140</ele>
        <time>2021-08-07T08:04:01.704Z</time>
      </trkpt>
      <trkpt lat="46.91861" lon="8.68293">
        <ele>2140</ele>
        <time>2021-08-07T08:04:02.704Z</time>
      </trkpt>
      <trkpt lat="46.9186" lon="8.68291">
        <ele>2139</ele>
        <time>2021-08-07T08:04:03.704Z</time>
      </trkpt>
      <trkpt lat="46.9186" lon="8.6829">
        <ele>2139</ele>
        <time>2021-08-07T08:04:04.704Z</time>
      </trkpt>
      <trkpt lat="46.91859" lon="8.68289">
        <ele>2139</ele>
        <time>2021-08-07T08:04:05.703Z</time>
      </trkpt>
      <trkpt lat="46.91859" lon="8.68288">
        <ele>2139</ele>
        <time>2021-08-07T08:04:06.704Z</time>
      </trkpt>
      <trkpt lat="46.91859" lon="8.68287">
        <ele>2139</ele>
        <time>2021-08-07T08:04:07.704Z</time>
      </trkpt>
      <trkpt lat="46.91859" lon="8.68286">
        <ele>2139</ele>
        <time>2021-08-07T08:04:08.703Z</time>
      </trkpt>
      <trkpt lat="46.91859" lon="8.68285">
        <ele>2139</ele>
        <time>2021-08-07T08:04:09.704Z</time>
      </trkpt>
      <trkpt lat="46.9186" lon="8.68284">
        <ele>2139</ele>
        <time>2021-08-07T08:04:10.703Z</time>
      </trkpt>
      <trkpt lat="46.9186" lon="8.68283">
        <ele>2139</ele>
        <time>2021-08-07T08:04:11.703Z</time>
      </trkpt>
      <trkpt lat="46.91861" lon="8.68282">
        <ele>2140</ele>
        <time>2021-08-07T08:04:12.704Z</time>
      </trkpt>
      <trkpt lat="46.91862" lon="8.68281">
        <ele>2140</ele>
        <time>2021-08-07T08:04:13.703Z</time>
      </trkpt>
      <trkpt lat="46.91862" lon="8.6828">
        <ele>2140</ele>
        <time>2021-08-07T08:04:14.704Z</time>
      </trkpt>
      <trkpt lat="46.91863" lon="8.68279">
        <ele>2141</ele>
        <time>2021-08-07T08:04:15.704Z</time>
      </trkpt>
      <trkpt lat="46.91863" lon="8.68278">
        <ele>2141</ele>
        <time>2021-08-07T08:04:16.703Z</time>
      </trkpt>
      <trkpt lat="46.91863" lon="8.68276">
        <ele>2141</ele>
        <time>2021-08-07T08:04:17.704Z</time>
      </trkpt>
      <trkpt lat="46.91863" lon="8.68275">
        <ele>2141</ele>
        <time>2021-08-07T08:04:18.704Z</time>
      </trkpt>
      <trkpt lat="46.91863" lon="8.68273">
        <ele>2140</ele>
        <time>2021-08-07T08:04:19.704Z</time>
      </trkpt>
      <trkpt lat="46.91864" lon="8.68272">
        <ele>2139</ele>
        <time>2021-08-07T08:04:20.703Z</time>
      </trkpt>
      <trkpt lat="46.91864" lon="8.68271">
        <ele>2139</ele>
        <time>2021-08-07T08:04:21.704Z</time>
      </trkpt>
      <trkpt lat="46.91863" lon="8.68269">
        <ele>2139</ele>
        <time>2021-08-07T08:04:22.703Z</time>
      </trkpt>
      <trkpt lat="46.91862" lon="8.68268">
        <ele>2139</ele>
        <time>2021-08-07T08:04:23.704Z</time>
      </trkpt>
      <trkpt lat="46.91862" lon="8.68266">
        <ele>2139</ele>
        <time>2021-08-07T08:04:24.704Z</time>
      </trkpt>
      <trkpt lat="46.91861" lon="8.68265">
        <ele>2139</ele>
        <time>2021-08-07T08:04:25.704Z</time>
      </trkpt>
      <trkpt lat="46.91861" lon="8.68263">
        <ele>2138</ele>
        <time>2021-08-07T08:04:26.704Z</time>
      </trkpt>
      <trkpt lat="46.9186" lon="8.68262">
        <ele>2137</ele>
        <time>2021-08-07T08:04:27.703Z</time>
      </trkpt>
      <trkpt lat="46.9186" lon="8.68261">
        <ele>2137</ele>
        <time>2021-08-07T08:04:28.704Z</time>
      </trkpt>
      <trkpt lat="46.9186" lon="8.68259">
        <ele>2136</ele>
        <time>2021-08-07T08:04:29.704Z</time>
      </trkpt>
      <trkpt lat="46.91859" lon="8.68258">
        <ele>2136</ele>
        <time>2021-08-07T08:04:30.704Z</time>
      </trkpt>
      <trkpt lat="46.91859" lon="8.68257">
        <ele>2136</ele>
        <time>2021-08-07T08:04:31.703Z</time>
      </trkpt>
      <trkpt lat="46.91858" lon="8.68257">
        <ele>2136</ele>
        <time>2021-08-07T08:04:32.703Z</time>
      </trkpt>
      <trkpt lat="46.91858" lon="8.68255">
        <ele>2136</ele>
        <time>2021-08-07T08:04:33.704Z</time>
      </trkpt>
      <trkpt lat="46.91857" lon="8.68254">
        <ele>2136</ele>
        <time>2021-08-07T08:04:34.704Z</time>
      </trkpt>
      <trkpt lat="46.91856" lon="8.68253">
        <ele>2136</ele>
        <time>2021-08-07T08:04:35.704Z</time>
      </trkpt>
      <trkpt lat="46.91856" lon="8.68252">
        <ele>2136</ele>
        <time>2021-08-07T08:04:36.703Z</time>
      </trkpt>
      <trkpt lat="46.91855" lon="8.68251">
        <ele>2136</ele>
        <time>2021-08-07T08:04:37.704Z</time>
      </trkpt>
      <trkpt lat="46.91854" lon="8.68249">
        <ele>2136</ele>
        <time>2021-08-07T08:04:38.704Z</time>
      </trkpt>
      <trkpt lat="46.91853" lon="8.68248">
        <ele>2135</ele>
        <time>2021-08-07T08:04:39.704Z</time>
      </trkpt>
      <trkpt lat="46.91852" lon="8.68248">
        <ele>2135</ele>
        <time>2021-08-07T08:04:40.703Z</time>
      </trkpt>
      <trkpt lat="46.91851" lon="8.68247">
        <ele>2134</ele>
        <time>2021-08-07T08:04:41.704Z</time>
      </trkpt>
      <trkpt lat="46.9185" lon="8.68247">
        <ele>2134</ele>
        <time>2021-08-07T08:04:42.704Z</time>
      </trkpt>
      <trkpt lat="46.91849" lon="8.68246">
        <ele>2134</ele>
        <time>2021-08-07T08:04:43.703Z</time>
      </trkpt>
      <trkpt lat="46.91848" lon="8.68246">
        <ele>2134</ele>
        <time>2021-08-07T08:04:44.703Z</time>
      </trkpt>
      <trkpt lat="46.91847" lon="8.68245">
        <ele>2134</ele>
        <time>2021-08-07T08:04:45.703Z</time>
      </trkpt>
      <trkpt lat="46.91847" lon="8.68244">
        <ele>2134</ele>
        <time>2021-08-07T08:04:46.704Z</time>
      </trkpt>
      <trkpt lat="46.91846" lon="8.68244">
        <ele>2134</ele>
        <time>2021-08-07T08:04:47.704Z</time>
      </trkpt>
      <trkpt lat="46.91846" lon="8.68243">
        <ele>2135</ele>
        <time>2021-08-07T08:04:48.703Z</time>
      </trkpt>
      <trkpt lat="46.91846" lon="8.68243">
        <ele>2135</ele>
        <time>2021-08-07T08:04:49.704Z</time>
      </trkpt>
      <trkpt lat="46.91845" lon="8.68242">
        <ele>2135</ele>
        <time>2021-08-07T08:04:50.704Z</time>
      </trkpt>
      <trkpt lat="46.91844" lon="8.68242">
        <ele>2135</ele>
        <time>2021-08-07T08:04:51.704Z</time>
      </trkpt>
      <trkpt lat="46.91844" lon="8.68242">
        <ele>2135</ele>
        <time>2021-08-07T08:04:52.704Z</time>
      </trkpt>
      <trkpt lat="46.91843" lon="8.68242">
        <ele>2135</ele>
        <time>2021-08-07T08:04:53.704Z</time>
      </trkpt>
      <trkpt lat="46.91842" lon="8.68241">
        <ele>2135</ele>
        <time>2021-08-07T08:04:54.704Z</time>
      </trkpt>
      <trkpt lat="46.91842" lon="8.68241">
        <ele>2135</ele>
        <time>2021-08-07T08:04:55.703Z</time>
      </trkpt>
      <trkpt lat="46.91841" lon="8.6824">
        <ele>2136</ele>
        <time>2021-08-07T08:04:56.704Z</time>
      </trkpt>
      <trkpt lat="46.9184" lon="8.6824">
        <ele>2136</ele>
        <time>2021-08-07T08:04:57.704Z</time>
      </trkpt>
      <trkpt lat="46.91839" lon="8.68239">
        <ele>2136</ele>
        <time>2021-08-07T08:04:58.704Z</time>
      </trkpt>
      <trkpt lat="46.91839" lon="8.68238">
        <ele>2137</ele>
        <time>2021-08-07T08:04:59.704Z</time>
      </trkpt>
      <trkpt lat="46.91838" lon="8.68238">
        <ele>2137</ele>
        <time>2021-08-07T08:05:00.704Z</time>
      </trkpt>
      <trkpt lat="46.91837" lon="8.68237">
        <ele>2137</ele>
        <time>2021-08-07T08:05:01.703Z</time>
      </trkpt>
      <trkpt lat="46.91837" lon="8.68236">
        <ele>2136</ele>
        <time>2021-08-07T08:05:02.704Z</time>
      </trkpt>
      <trkpt lat="46.91836" lon="8.68235">
        <ele>2136</ele>
        <time>2021-08-07T08:05:03.704Z</time>
      </trkpt>
      <trkpt lat="46.91835" lon="8.68234">
        <ele>2136</ele>
        <time>2021-08-07T08:05:04.704Z</time>
      </trkpt>
      <trkpt lat="46.91834" lon="8.68233">
        <ele>2136</ele>
        <time>2021-08-07T08:05:05.703Z</time>
      </trkpt>
      <trkpt lat="46.91834" lon="8.68233">
        <ele>2136</ele>
        <time>2021-08-07T08:05:06.704Z</time>
      </trkpt>
      <trkpt lat="46.91833" lon="8.68233">
        <ele>2136</ele>
        <time>2021-08-07T08:05:07.703Z</time>
      </trkpt>
      <trkpt lat="46.91832" lon="8.68232">
        <ele>2135</ele>
        <time>2021-08-07T08:05:08.704Z</time>
      </trkpt>
      <trkpt lat="46.91831" lon="8.68232">
        <ele>2135</ele>
        <time>2021-08-07T08:05:09.704Z</time>
      </trkpt>
      <trkpt lat="46.9183" lon="8.68231">
        <ele>2135</ele>
        <time>2021-08-07T08:05:10.704Z</time>
      </trkpt>
      <trkpt lat="46.91829" lon="8.68231">
        <ele>2136</ele>
        <time>2021-08-07T08:05:11.704Z</time>
      </trkpt>
      <trkpt lat="46.91828" lon="8.6823">
        <ele>2136</ele>
        <time>2021-08-07T08:05:12.704Z</time>
      </trkpt>
      <trkpt lat="46.91827" lon="8.68229">
        <ele>2136</ele>
        <time>2021-08-07T08:05:13.704Z</time>
      </trkpt>
      <trkpt lat="46.91826" lon="8.68228">
        <ele>2136</ele>
        <time>2021-08-07T08:05:14.704Z</time>
      </trkpt>
      <trkpt lat="46.91825" lon="8.68227">
        <ele>2136</ele>
        <time>2021-08-07T08:05:15.704Z</time>
      </trkpt>
      <trkpt lat="46.91825" lon="8.68226">
        <ele>2136</ele>
        <time>2021-08-07T08:05:16.704Z</time>
      </trkpt>
      <trkpt lat="46.91824" lon="8.68226">
        <ele>2136</ele>
        <time>2021-08-07T08:05:17.703Z</time>
      </trkpt>
      <trkpt lat="46.91823" lon="8.68225">
        <ele>2136</ele>
        <time>2021-08-07T08:05:18.704Z</time>
      </trkpt>
      <trkpt lat="46.91823" lon="8.68225">
        <ele>2136</ele>
        <time>2021-08-07T08:05:19.704Z</time>
      </trkpt>
      <trkpt lat="46.91822" lon="8.68224">
        <ele>2136</ele>
        <time>2021-08-07T08:05:20.704Z</time>
      </trkpt>
      <trkpt lat="46.91822" lon="8.68224">
        <ele>2136</ele>
        <time>2021-08-07T08:05:21.704Z</time>
      </trkpt>
      <trkpt lat="46.91822" lon="8.68223">
        <ele>2136</ele>
        <time>2021-08-07T08:05:22.703Z</time>
      </trkpt>
      <trkpt lat="46.91821" lon="8.68222">
        <ele>2136</ele>
        <time>2021-08-07T08:05:23.704Z</time>
      </trkpt>
      <trkpt lat="46.91821" lon="8.68222">
        <ele>2137</ele>
        <time>2021-08-07T08:05:24.704Z</time>
      </trkpt>
      <trkpt lat="46.9182" lon="8.68221">
        <ele>2137</ele>
        <time>2021-08-07T08:05:25.704Z</time>
      </trkpt>
      <trkpt lat="46.9182" lon="8.6822">
        <ele>2137</ele>
        <time>2021-08-07T08:05:26.704Z</time>
      </trkpt>
      <trkpt lat="46.9182" lon="8.68219">
        <ele>2137</ele>
        <time>2021-08-07T08:05:27.704Z</time>
      </trkpt>
      <trkpt lat="46.91819" lon="8.68218">
        <ele>2137</ele>
        <time>2021-08-07T08:05:28.704Z</time>
      </trkpt>
      <trkpt lat="46.91818" lon="8.68217">
        <ele>2137</ele>
        <time>2021-08-07T08:05:29.704Z</time>
      </trkpt>
      <trkpt lat="46.91818" lon="8.68217">
        <ele>2137</ele>
        <time>2021-08-07T08:05:30.704Z</time>
      </trkpt>
      <trkpt lat="46.91817" lon="8.68216">
        <ele>2136</ele>
        <time>2021-08-07T08:05:31.704Z</time>
      </trkpt>
      <trkpt lat="46.91817" lon="8.68216">
        <ele>2136</ele>
        <time>2021-08-07T08:05:32.703Z</time>
      </trkpt>
      <trkpt lat="46.91816" lon="8.68215">
        <ele>2135</ele>
        <time>2021-08-07T08:05:33.703Z</time>
      </trkpt>
      <trkpt lat="46.91815" lon="8.68215">
        <ele>2135</ele>
        <time>2021-08-07T08:05:34.703Z</time>
      </trkpt>
      <trkpt lat="46.91815" lon="8.68214">
        <ele>2135</ele>
        <time>2021-08-07T08:05:35.703Z</time>
      </trkpt>
      <trkpt lat="46.91814" lon="8.68214">
        <ele>2135</ele>
        <time>2021-08-07T08:05:36.703Z</time>
      </trkpt>
      <trkpt lat="46.91814" lon="8.68213">
        <ele>2135</ele>
        <time>2021-08-07T08:05:37.704Z</time>
      </trkpt>
      <trkpt lat="46.91813" lon="8.68212">
        <ele>2135</ele>
        <time>2021-08-07T08:05:38.703Z</time>
      </trkpt>
      <trkpt lat="46.91812" lon="8.68211">
        <ele>2134</ele>
        <time>2021-08-07T08:05:39.704Z</time>
      </trkpt>
      <trkpt lat="46.91812" lon="8.68209">
        <ele>2134</ele>
        <time>2021-08-07T08:05:40.703Z</time>
      </trkpt>
      <trkpt lat="46.91811" lon="8.68208">
        <ele>2134</ele>
        <time>2021-08-07T08:05:41.703Z</time>
      </trkpt>
      <trkpt lat="46.9181" lon="8.68207">
        <ele>2133</ele>
        <time>2021-08-07T08:05:42.703Z</time>
      </trkpt>
      <trkpt lat="46.9181" lon="8.68207">
        <ele>2133</ele>
        <time>2021-08-07T08:05:43.703Z</time>
      </trkpt>
      <trkpt lat="46.9181" lon="8.68206">
        <ele>2133</ele>
        <time>2021-08-07T08:05:44.703Z</time>
      </trkpt>
      <trkpt lat="46.9181" lon="8.68205">
        <ele>2133</ele>
        <time>2021-08-07T08:05:45.704Z</time>
      </trkpt>
      <trkpt lat="46.91809" lon="8.68204">
        <ele>2134</ele>
        <time>2021-08-07T08:05:46.703Z</time>
      </trkpt>
      <trkpt lat="46.91809" lon="8.68202">
        <ele>2134</ele>
        <time>2021-08-07T08:05:47.703Z</time>
      </trkpt>
      <trkpt lat="46.91809" lon="8.68201">
        <ele>2135</ele>
        <time>2021-08-07T08:05:48.703Z</time>
      </trkpt>
      <trkpt lat="46.91808" lon="8.682">
        <ele>2135</ele>
        <time>2021-08-07T08:05:49.703Z</time>
      </trkpt>
      <trkpt lat="46.91808" lon="8.68198">
        <ele>2135</ele>
        <time>2021-08-07T08:05:50.703Z</time>
      </trkpt>
      <trkpt lat="46.91807" lon="8.68197">
        <ele>2134</ele>
        <time>2021-08-07T08:05:51.704Z</time>
      </trkpt>
      <trkpt lat="46.91807" lon="8.68196">
        <ele>2134</ele>
        <time>2021-08-07T08:05:52.703Z</time>
      </trkpt>
      <trkpt lat="46.91807" lon="8.68195">
        <ele>2133</ele>
        <time>2021-08-07T08:05:53.703Z</time>
      </trkpt>
      <trkpt lat="46.91806" lon="8.68193">
        <ele>2133</ele>
        <time>2021-08-07T08:05:54.703Z</time>
      </trkpt>
      <trkpt lat="46.91806" lon="8.68193">
        <ele>2132</ele>
        <time>2021-08-07T08:05:55.703Z</time>
      </trkpt>
      <trkpt lat="46.91806" lon="8.68192">
        <ele>2132</ele>
        <time>2021-08-07T08:05:56.703Z</time>
      </trkpt>
      <trkpt lat="46.91806" lon="8.68191">
        <ele>2131</ele>
        <time>2021-08-07T08:05:57.703Z</time>
      </trkpt>
      <trkpt lat="46.91805" lon="8.68189">
        <ele>2131</ele>
        <time>2021-08-07T08:05:58.704Z</time>
      </trkpt>
      <trkpt lat="46.91805" lon="8.68188">
        <ele>2131</ele>
        <time>2021-08-07T08:05:59.703Z</time>
      </trkpt>
      <trkpt lat="46.91805" lon="8.68188">
        <ele>2131</ele>
        <time>2021-08-07T08:06:00.703Z</time>
      </trkpt>
      <trkpt lat="46.91804" lon="8.68187">
        <ele>2131</ele>
        <time>2021-08-07T08:06:01.703Z</time>
      </trkpt>
      <trkpt lat="46.91804" lon="8.68186">
        <ele>2132</ele>
        <time>2021-08-07T08:06:02.704Z</time>
      </trkpt>
      <trkpt lat="46.91804" lon="8.68186">
        <ele>2132</ele>
        <time>2021-08-07T08:06:03.703Z</time>
      </trkpt>
      <trkpt lat="46.91804" lon="8.68186">
        <ele>2132</ele>
        <time>2021-08-07T08:06:04.704Z</time>
      </trkpt>
      <trkpt lat="46.91804" lon="8.68185">
        <ele>2132</ele>
        <time>2021-08-07T08:06:05.704Z</time>
      </trkpt>
      <trkpt lat="46.91804" lon="8.68184">
        <ele>2132</ele>
        <time>2021-08-07T08:06:06.703Z</time>
      </trkpt>
      <trkpt lat="46.91804" lon="8.68183">
        <ele>2131</ele>
        <time>2021-08-07T08:06:07.703Z</time>
      </trkpt>
      <trkpt lat="46.91803" lon="8.68181">
        <ele>2131</ele>
        <time>2021-08-07T08:06:08.703Z</time>
      </trkpt>
      <trkpt lat="46.91802" lon="8.6818">
        <ele>2130</ele>
        <time>2021-08-07T08:06:09.703Z</time>
      </trkpt>
      <trkpt lat="46.91802" lon="8.68179">
        <ele>2130</ele>
        <time>2021-08-07T08:06:10.704Z</time>
      </trkpt>
      <trkpt lat="46.91802" lon="8.68177">
        <ele>2129</ele>
        <time>2021-08-07T08:06:11.704Z</time>
      </trkpt>
      <trkpt lat="46.91801" lon="8.68176">
        <ele>2129</ele>
        <time>2021-08-07T08:06:12.704Z</time>
      </trkpt>
      <trkpt lat="46.91801" lon="8.68175">
        <ele>2128</ele>
        <time>2021-08-07T08:06:13.703Z</time>
      </trkpt>
      <trkpt lat="46.918" lon="8.68174">
        <ele>2128</ele>
        <time>2021-08-07T08:06:14.703Z</time>
      </trkpt>
      <trkpt lat="46.918" lon="8.68172">
        <ele>2127</ele>
        <time>2021-08-07T08:06:15.703Z</time>
      </trkpt>
      <trkpt lat="46.91799" lon="8.68171">
        <ele>2126</ele>
        <time>2021-08-07T08:06:16.704Z</time>
      </trkpt>
      <trkpt lat="46.91799" lon="8.68169">
        <ele>2126</ele>
        <time>2021-08-07T08:06:17.703Z</time>
      </trkpt>
      <trkpt lat="46.91799" lon="8.68168">
        <ele>2126</ele>
        <time>2021-08-07T08:06:18.704Z</time>
      </trkpt>
      <trkpt lat="46.91799" lon="8.68167">
        <ele>2126</ele>
        <time>2021-08-07T08:06:19.704Z</time>
      </trkpt>
      <trkpt lat="46.91799" lon="8.68166">
        <ele>2126</ele>
        <time>2021-08-07T08:06:20.704Z</time>
      </trkpt>
      <trkpt lat="46.91799" lon="8.68164">
        <ele>2125</ele>
        <time>2021-08-07T08:06:21.704Z</time>
      </trkpt>
      <trkpt lat="46.91799" lon="8.68164">
        <ele>2125</ele>
        <time>2021-08-07T08:06:22.703Z</time>
      </trkpt>
      <trkpt lat="46.91798" lon="8.68162">
        <ele>2126</ele>
        <time>2021-08-07T08:06:23.703Z</time>
      </trkpt>
      <trkpt lat="46.91798" lon="8.68161">
        <ele>2125</ele>
        <time>2021-08-07T08:06:24.704Z</time>
      </trkpt>
      <trkpt lat="46.91797" lon="8.6816">
        <ele>2125</ele>
        <time>2021-08-07T08:06:25.703Z</time>
      </trkpt>
      <trkpt lat="46.91797" lon="8.68159">
        <ele>2125</ele>
        <time>2021-08-07T08:06:26.704Z</time>
      </trkpt>
      <trkpt lat="46.91797" lon="8.68159">
        <ele>2125</ele>
        <time>2021-08-07T08:06:27.703Z</time>
      </trkpt>
      <trkpt lat="46.91798" lon="8.68158">
        <ele>2125</ele>
        <time>2021-08-07T08:06:28.703Z</time>
      </trkpt>
      <trkpt lat="46.91798" lon="8.68156">
        <ele>2125</ele>
        <time>2021-08-07T08:06:29.704Z</time>
      </trkpt>
      <trkpt lat="46.91798" lon="8.68155">
        <ele>2125</ele>
        <time>2021-08-07T08:06:30.704Z</time>
      </trkpt>
      <trkpt lat="46.91797" lon="8.68154">
        <ele>2125</ele>
        <time>2021-08-07T08:06:31.704Z</time>
      </trkpt>
      <trkpt lat="46.91797" lon="8.68154">
        <ele>2125</ele>
        <time>2021-08-07T08:06:32.704Z</time>
      </trkpt>
      <trkpt lat="46.91797" lon="8.68154">
        <ele>2126</ele>
        <time>2021-08-07T08:06:33.704Z</time>
      </trkpt>
      <trkpt lat="46.91796" lon="8.68154">
        <ele>2126</ele>
        <time>2021-08-07T08:06:34.703Z</time>
      </trkpt>
      <trkpt lat="46.91796" lon="8.68154">
        <ele>2126</ele>
        <time>2021-08-07T08:06:35.704Z</time>
      </trkpt>
      <trkpt lat="46.91795" lon="8.68153">
        <ele>2126</ele>
        <time>2021-08-07T08:06:36.704Z</time>
      </trkpt>
      <trkpt lat="46.91795" lon="8.68152">
        <ele>2126</ele>
        <time>2021-08-07T08:06:37.704Z</time>
      </trkpt>
      <trkpt lat="46.91795" lon="8.6815">
        <ele>2126</ele>
        <time>2021-08-07T08:06:38.703Z</time>
      </trkpt>
      <trkpt lat="46.91795" lon="8.68149">
        <ele>2125</ele>
        <time>2021-08-07T08:06:39.703Z</time>
      </trkpt>
      <trkpt lat="46.91795" lon="8.68148">
        <ele>2125</ele>
        <time>2021-08-07T08:06:40.703Z</time>
      </trkpt>
      <trkpt lat="46.91795" lon="8.68146">
        <ele>2124</ele>
        <time>2021-08-07T08:06:41.704Z</time>
      </trkpt>
      <trkpt lat="46.91795" lon="8.68145">
        <ele>2124</ele>
        <time>2021-08-07T08:06:42.703Z</time>
      </trkpt>
      <trkpt lat="46.91795" lon="8.68143">
        <ele>2123</ele>
        <time>2021-08-07T08:06:43.703Z</time>
      </trkpt>
      <trkpt lat="46.91795" lon="8.68142">
        <ele>2122</ele>
        <time>2021-08-07T08:06:44.704Z</time>
      </trkpt>
      <trkpt lat="46.91794" lon="8.68141">
        <ele>2121</ele>
        <time>2021-08-07T08:06:45.704Z</time>
      </trkpt>
      <trkpt lat="46.91794" lon="8.68139">
        <ele>2121</ele>
        <time>2021-08-07T08:06:46.704Z</time>
      </trkpt>
      <trkpt lat="46.91793" lon="8.68138">
        <ele>2121</ele>
        <time>2021-08-07T08:06:47.704Z</time>
      </trkpt>
      <trkpt lat="46.91793" lon="8.68136">
        <ele>2120</ele>
        <time>2021-08-07T08:06:48.704Z</time>
      </trkpt>
      <trkpt lat="46.91792" lon="8.68136">
        <ele>2120</ele>
        <time>2021-08-07T08:06:49.704Z</time>
      </trkpt>
      <trkpt lat="46.91791" lon="8.68136">
        <ele>2119</ele>
        <time>2021-08-07T08:06:50.703Z</time>
      </trkpt>
      <trkpt lat="46.91791" lon="8.68136">
        <ele>2119</ele>
        <time>2021-08-07T08:06:51.704Z</time>
      </trkpt>
      <trkpt lat="46.91791" lon="8.68135">
        <ele>2119</ele>
        <time>2021-08-07T08:06:52.703Z</time>
      </trkpt>
      <trkpt lat="46.91791" lon="8.68135">
        <ele>2119</ele>
        <time>2021-08-07T08:06:53.703Z</time>
      </trkpt>
      <trkpt lat="46.91791" lon="8.68134">
        <ele>2119</ele>
        <time>2021-08-07T08:06:54.704Z</time>
      </trkpt>
      <trkpt lat="46.91789" lon="8.68139">
        <ele>2117</ele>
        <time>2021-08-07T08:06:55.703Z</time>
      </trkpt>
      <trkpt lat="46.91789" lon="8.68139">
        <ele>2117</ele>
        <time>2021-08-07T08:06:56.703Z</time>
      </trkpt>
      <trkpt lat="46.91789" lon="8.68139">
        <ele>2117</ele>
        <time>2021-08-07T08:06:57.703Z</time>
      </trkpt>
      <trkpt lat="46.91789" lon="8.6814">
        <ele>2117</ele>
        <time>2021-08-07T08:06:58.704Z</time>
      </trkpt>
      <trkpt lat="46.91784" lon="8.68149">
        <ele>2114</ele>
        <time>2021-08-07T08:06:59.705Z</time>
      </trkpt>
      <trkpt lat="46.91784" lon="8.68146">
        <ele>2114</ele>
        <time>2021-08-07T08:07:00.705Z</time>
      </trkpt>
      <trkpt lat="46.91785" lon="8.68145">
        <ele>2116</ele>
        <time>2021-08-07T08:07:01.705Z</time>
      </trkpt>
      <trkpt lat="46.91785" lon="8.68144">
        <ele>2117</ele>
        <time>2021-08-07T08:07:02.705Z</time>
      </trkpt>
      <trkpt lat="46.91784" lon="8.68143">
        <ele>2118</ele>
        <time>2021-08-07T08:07:03.704Z</time>
      </trkpt>
      <trkpt lat="46.91784" lon="8.68142">
        <ele>2119</ele>
        <time>2021-08-07T08:07:04.705Z</time>
      </trkpt>
      <trkpt lat="46.91784" lon="8.68141">
        <ele>2119</ele>
        <time>2021-08-07T08:07:05.704Z</time>
      </trkpt>
      <trkpt lat="46.91785" lon="8.6814">
        <ele>2120</ele>
        <time>2021-08-07T08:07:06.705Z</time>
      </trkpt>
      <trkpt lat="46.91785" lon="8.68139">
        <ele>2120</ele>
        <time>2021-08-07T08:07:07.704Z</time>
      </trkpt>
      <trkpt lat="46.91785" lon="8.68137">
        <ele>2120</ele>
        <time>2021-08-07T08:07:08.705Z</time>
      </trkpt>
      <trkpt lat="46.91785" lon="8.68136">
        <ele>2121</ele>
        <time>2021-08-07T08:07:09.705Z</time>
      </trkpt>
      <trkpt lat="46.91785" lon="8.68134">
        <ele>2121</ele>
        <time>2021-08-07T08:07:10.704Z</time>
      </trkpt>
      <trkpt lat="46.91786" lon="8.68132">
        <ele>2121</ele>
        <time>2021-08-07T08:07:11.705Z</time>
      </trkpt>
      <trkpt lat="46.91786" lon="8.6813">
        <ele>2121</ele>
        <time>2021-08-07T08:07:12.705Z</time>
      </trkpt>
      <trkpt lat="46.91786" lon="8.68129">
        <ele>2121</ele>
        <time>2021-08-07T08:07:13.704Z</time>
      </trkpt>
      <trkpt lat="46.91787" lon="8.68127">
        <ele>2121</ele>
        <time>2021-08-07T08:07:14.704Z</time>
      </trkpt>
      <trkpt lat="46.91786" lon="8.68125">
        <ele>2120</ele>
        <time>2021-08-07T08:07:15.704Z</time>
      </trkpt>
      <trkpt lat="46.91787" lon="8.68122">
        <ele>2120</ele>
        <time>2021-08-07T08:07:16.705Z</time>
      </trkpt>
      <trkpt lat="46.91787" lon="8.6812">
        <ele>2119</ele>
        <time>2021-08-07T08:07:17.705Z</time>
      </trkpt>
      <trkpt lat="46.91787" lon="8.68119">
        <ele>2119</ele>
        <time>2021-08-07T08:07:18.704Z</time>
      </trkpt>
      <trkpt lat="46.91788" lon="8.68117">
        <ele>2119</ele>
        <time>2021-08-07T08:07:19.705Z</time>
      </trkpt>
      <trkpt lat="46.91788" lon="8.68116">
        <ele>2120</ele>
        <time>2021-08-07T08:07:20.705Z</time>
      </trkpt>
      <trkpt lat="46.91788" lon="8.68114">
        <ele>2120</ele>
        <time>2021-08-07T08:07:21.705Z</time>
      </trkpt>
      <trkpt lat="46.91788" lon="8.68113">
        <ele>2119</ele>
        <time>2021-08-07T08:07:22.705Z</time>
      </trkpt>
      <trkpt lat="46.91788" lon="8.68111">
        <ele>2119</ele>
        <time>2021-08-07T08:07:23.704Z</time>
      </trkpt>
      <trkpt lat="46.91787" lon="8.68109">
        <ele>2119</ele>
        <time>2021-08-07T08:07:24.704Z</time>
      </trkpt>
      <trkpt lat="46.91787" lon="8.68108">
        <ele>2118</ele>
        <time>2021-08-07T08:07:25.705Z</time>
      </trkpt>
      <trkpt lat="46.91787" lon="8.68106">
        <ele>2118</ele>
        <time>2021-08-07T08:07:26.705Z</time>
      </trkpt>
      <trkpt lat="46.91787" lon="8.68104">
        <ele>2118</ele>
        <time>2021-08-07T08:07:27.705Z</time>
      </trkpt>
      <trkpt lat="46.91787" lon="8.68103">
        <ele>2117</ele>
        <time>2021-08-07T08:07:28.705Z</time>
      </trkpt>
      <trkpt lat="46.91788" lon="8.68101">
        <ele>2117</ele>
        <time>2021-08-07T08:07:29.705Z</time>
      </trkpt>
      <trkpt lat="46.91788" lon="8.68099">
        <ele>2117</ele>
        <time>2021-08-07T08:07:30.704Z</time>
      </trkpt>
      <trkpt lat="46.91788" lon="8.68098">
        <ele>2117</ele>
        <time>2021-08-07T08:07:31.705Z</time>
      </trkpt>
      <trkpt lat="46.91787" lon="8.68096">
        <ele>2117</ele>
        <time>2021-08-07T08:07:32.705Z</time>
      </trkpt>
      <trkpt lat="46.91787" lon="8.68094">
        <ele>2117</ele>
        <time>2021-08-07T08:07:33.705Z</time>
      </trkpt>
      <trkpt lat="46.91786" lon="8.68094">
        <ele>2117</ele>
        <time>2021-08-07T08:07:34.705Z</time>
      </trkpt>
      <trkpt lat="46.91786" lon="8.68093">
        <ele>2117</ele>
        <time>2021-08-07T08:07:35.704Z</time>
      </trkpt>
      <trkpt lat="46.91786" lon="8.68093">
        <ele>2117</ele>
        <time>2021-08-07T08:07:36.705Z</time>
      </trkpt>
      <trkpt lat="46.91785" lon="8.6809">
        <ele>2116</ele>
        <time>2021-08-07T08:07:37.706Z</time>
      </trkpt>
      <trkpt lat="46.91785" lon="8.68089">
        <ele>2116</ele>
        <time>2021-08-07T08:07:38.706Z</time>
      </trkpt>
      <trkpt lat="46.91785" lon="8.68088">
        <ele>2116</ele>
        <time>2021-08-07T08:07:39.705Z</time>
      </trkpt>
      <trkpt lat="46.91785" lon="8.68086">
        <ele>2115</ele>
        <time>2021-08-07T08:07:40.706Z</time>
      </trkpt>
      <trkpt lat="46.91785" lon="8.68085">
        <ele>2115</ele>
        <time>2021-08-07T08:07:41.706Z</time>
      </trkpt>
      <trkpt lat="46.91784" lon="8.68083">
        <ele>2115</ele>
        <time>2021-08-07T08:07:42.706Z</time>
      </trkpt>
      <trkpt lat="46.91784" lon="8.68082">
        <ele>2115</ele>
        <time>2021-08-07T08:07:43.706Z</time>
      </trkpt>
      <trkpt lat="46.91784" lon="8.68081">
        <ele>2115</ele>
        <time>2021-08-07T08:07:44.706Z</time>
      </trkpt>
      <trkpt lat="46.91784" lon="8.68079">
        <ele>2115</ele>
        <time>2021-08-07T08:07:45.705Z</time>
      </trkpt>
      <trkpt lat="46.91784" lon="8.68078">
        <ele>2114</ele>
        <time>2021-08-07T08:07:46.706Z</time>
      </trkpt>
      <trkpt lat="46.91783" lon="8.68077">
        <ele>2114</ele>
        <time>2021-08-07T08:07:47.705Z</time>
      </trkpt>
      <trkpt lat="46.91784" lon="8.68075">
        <ele>2115</ele>
        <time>2021-08-07T08:07:48.706Z</time>
      </trkpt>
      <trkpt lat="46.91784" lon="8.68074">
        <ele>2115</ele>
        <time>2021-08-07T08:07:49.706Z</time>
      </trkpt>
      <trkpt lat="46.91784" lon="8.68073">
        <ele>2115</ele>
        <time>2021-08-07T08:07:50.705Z</time>
      </trkpt>
      <trkpt lat="46.91784" lon="8.68071">
        <ele>2115</ele>
        <time>2021-08-07T08:07:51.706Z</time>
      </trkpt>
      <trkpt lat="46.91784" lon="8.6807">
        <ele>2114</ele>
        <time>2021-08-07T08:07:52.705Z</time>
      </trkpt>
      <trkpt lat="46.91783" lon="8.68068">
        <ele>2114</ele>
        <time>2021-08-07T08:07:53.705Z</time>
      </trkpt>
      <trkpt lat="46.91783" lon="8.68067">
        <ele>2114</ele>
        <time>2021-08-07T08:07:54.706Z</time>
      </trkpt>
      <trkpt lat="46.91782" lon="8.68066">
        <ele>2113</ele>
        <time>2021-08-07T08:07:55.705Z</time>
      </trkpt>
      <trkpt lat="46.91781" lon="8.68064">
        <ele>2113</ele>
        <time>2021-08-07T08:07:56.705Z</time>
      </trkpt>
      <trkpt lat="46.9178" lon="8.68063">
        <ele>2113</ele>
        <time>2021-08-07T08:07:57.706Z</time>
      </trkpt>
      <trkpt lat="46.9178" lon="8.68062">
        <ele>2113</ele>
        <time>2021-08-07T08:07:58.706Z</time>
      </trkpt>
      <trkpt lat="46.91779" lon="8.68061">
        <ele>2112</ele>
        <time>2021-08-07T08:07:59.705Z</time>
      </trkpt>
      <trkpt lat="46.91779" lon="8.6806">
        <ele>2112</ele>
        <time>2021-08-07T08:08:00.705Z</time>
      </trkpt>
      <trkpt lat="46.91778" lon="8.68059">
        <ele>2112</ele>
        <time>2021-08-07T08:08:01.706Z</time>
      </trkpt>
      <trkpt lat="46.91778" lon="8.68058">
        <ele>2111</ele>
        <time>2021-08-07T08:08:02.706Z</time>
      </trkpt>
      <trkpt lat="46.91777" lon="8.68057">
        <ele>2111</ele>
        <time>2021-08-07T08:08:03.706Z</time>
      </trkpt>
      <trkpt lat="46.91776" lon="8.68056">
        <ele>2111</ele>
        <time>2021-08-07T08:08:04.706Z</time>
      </trkpt>
      <trkpt lat="46.91775" lon="8.68055">
        <ele>2111</ele>
        <time>2021-08-07T08:08:05.705Z</time>
      </trkpt>
      <trkpt lat="46.91774" lon="8.68053">
        <ele>2111</ele>
        <time>2021-08-07T08:08:06.705Z</time>
      </trkpt>
      <trkpt lat="46.91773" lon="8.68052">
        <ele>2111</ele>
        <time>2021-08-07T08:08:07.705Z</time>
      </trkpt>
      <trkpt lat="46.91772" lon="8.68051">
        <ele>2111</ele>
        <time>2021-08-07T08:08:08.706Z</time>
      </trkpt>
      <trkpt lat="46.91771" lon="8.6805">
        <ele>2111</ele>
        <time>2021-08-07T08:08:09.706Z</time>
      </trkpt>
      <trkpt lat="46.9177" lon="8.68049">
        <ele>2111</ele>
        <time>2021-08-07T08:08:10.706Z</time>
      </trkpt>
      <trkpt lat="46.9177" lon="8.68048">
        <ele>2110</ele>
        <time>2021-08-07T08:08:11.706Z</time>
      </trkpt>
      <trkpt lat="46.91769" lon="8.68048">
        <ele>2110</ele>
        <time>2021-08-07T08:08:12.706Z</time>
      </trkpt>
      <trkpt lat="46.91768" lon="8.68048">
        <ele>2110</ele>
        <time>2021-08-07T08:08:13.706Z</time>
      </trkpt>
      <trkpt lat="46.91768" lon="8.68047">
        <ele>2110</ele>
        <time>2021-08-07T08:08:14.706Z</time>
      </trkpt>
      <trkpt lat="46.91767" lon="8.68046">
        <ele>2110</ele>
        <time>2021-08-07T08:08:15.705Z</time>
      </trkpt>
      <trkpt lat="46.91766" lon="8.68045">
        <ele>2109</ele>
        <time>2021-08-07T08:08:16.706Z</time>
      </trkpt>
      <trkpt lat="46.91765" lon="8.68044">
        <ele>2108</ele>
        <time>2021-08-07T08:08:17.706Z</time>
      </trkpt>
      <trkpt lat="46.91764" lon="8.68043">
        <ele>2108</ele>
        <time>2021-08-07T08:08:18.706Z</time>
      </trkpt>
      <trkpt lat="46.91764" lon="8.68042">
        <ele>2107</ele>
        <time>2021-08-07T08:08:19.706Z</time>
      </trkpt>
      <trkpt lat="46.91763" lon="8.6804">
        <ele>2106</ele>
        <time>2021-08-07T08:08:20.705Z</time>
      </trkpt>
      <trkpt lat="46.91762" lon="8.68039">
        <ele>2106</ele>
        <time>2021-08-07T08:08:21.705Z</time>
      </trkpt>
      <trkpt lat="46.91761" lon="8.68039">
        <ele>2105</ele>
        <time>2021-08-07T08:08:22.706Z</time>
      </trkpt>
      <trkpt lat="46.9176" lon="8.68038">
        <ele>2105</ele>
        <time>2021-08-07T08:08:23.706Z</time>
      </trkpt>
      <trkpt lat="46.91759" lon="8.68036">
        <ele>2104</ele>
        <time>2021-08-07T08:08:24.706Z</time>
      </trkpt>
      <trkpt lat="46.91758" lon="8.68036">
        <ele>2104</ele>
        <time>2021-08-07T08:08:25.706Z</time>
      </trkpt>
      <trkpt lat="46.91757" lon="8.68035">
        <ele>2104</ele>
        <time>2021-08-07T08:08:26.706Z</time>
      </trkpt>
      <trkpt lat="46.91756" lon="8.68034">
        <ele>2104</ele>
        <time>2021-08-07T08:08:27.706Z</time>
      </trkpt>
      <trkpt lat="46.91756" lon="8.68033">
        <ele>2104</ele>
        <time>2021-08-07T08:08:28.706Z</time>
      </trkpt>
      <trkpt lat="46.91755" lon="8.68032">
        <ele>2104</ele>
        <time>2021-08-07T08:08:29.706Z</time>
      </trkpt>
      <trkpt lat="46.91754" lon="8.68031">
        <ele>2105</ele>
        <time>2021-08-07T08:08:30.706Z</time>
      </trkpt>
      <trkpt lat="46.91753" lon="8.68031">
        <ele>2105</ele>
        <time>2021-08-07T08:08:31.705Z</time>
      </trkpt>
      <trkpt lat="46.91752" lon="8.6803">
        <ele>2105</ele>
        <time>2021-08-07T08:08:32.705Z</time>
      </trkpt>
      <trkpt lat="46.91751" lon="8.6803">
        <ele>2105</ele>
        <time>2021-08-07T08:08:33.705Z</time>
      </trkpt>
      <trkpt lat="46.9175" lon="8.68029">
        <ele>2105</ele>
        <time>2021-08-07T08:08:34.705Z</time>
      </trkpt>
      <trkpt lat="46.91749" lon="8.68028">
        <ele>2106</ele>
        <time>2021-08-07T08:08:35.705Z</time>
      </trkpt>
      <trkpt lat="46.91749" lon="8.68028">
        <ele>2106</ele>
        <time>2021-08-07T08:08:36.705Z</time>
      </trkpt>
      <trkpt lat="46.91748" lon="8.68028">
        <ele>2105</ele>
        <time>2021-08-07T08:08:37.705Z</time>
      </trkpt>
      <trkpt lat="46.91747" lon="8.68027">
        <ele>2105</ele>
        <time>2021-08-07T08:08:38.705Z</time>
      </trkpt>
      <trkpt lat="46.91746" lon="8.68026">
        <ele>2104</ele>
        <time>2021-08-07T08:08:39.706Z</time>
      </trkpt>
      <trkpt lat="46.91745" lon="8.68025">
        <ele>2103</ele>
        <time>2021-08-07T08:08:40.706Z</time>
      </trkpt>
      <trkpt lat="46.91744" lon="8.68024">
        <ele>2103</ele>
        <time>2021-08-07T08:08:41.706Z</time>
      </trkpt>
      <trkpt lat="46.91743" lon="8.68024">
        <ele>2102</ele>
        <time>2021-08-07T08:08:42.706Z</time>
      </trkpt>
      <trkpt lat="46.91743" lon="8.68023">
        <ele>2102</ele>
        <time>2021-08-07T08:08:43.706Z</time>
      </trkpt>
      <trkpt lat="46.91742" lon="8.68023">
        <ele>2101</ele>
        <time>2021-08-07T08:08:44.706Z</time>
      </trkpt>
      <trkpt lat="46.91742" lon="8.68022">
        <ele>2101</ele>
        <time>2021-08-07T08:08:45.706Z</time>
      </trkpt>
      <trkpt lat="46.91741" lon="8.68022">
        <ele>2100</ele>
        <time>2021-08-07T08:08:46.705Z</time>
      </trkpt>
      <trkpt lat="46.9174" lon="8.68022">
        <ele>2100</ele>
        <time>2021-08-07T08:08:47.706Z</time>
      </trkpt>
      <trkpt lat="46.91739" lon="8.68021">
        <ele>2100</ele>
        <time>2021-08-07T08:08:48.706Z</time>
      </trkpt>
      <trkpt lat="46.91738" lon="8.6802">
        <ele>2100</ele>
        <time>2021-08-07T08:08:49.706Z</time>
      </trkpt>
      <trkpt lat="46.91737" lon="8.68019">
        <ele>2101</ele>
        <time>2021-08-07T08:08:50.705Z</time>
      </trkpt>
      <trkpt lat="46.91736" lon="8.68019">
        <ele>2101</ele>
        <time>2021-08-07T08:08:51.705Z</time>
      </trkpt>
      <trkpt lat="46.91735" lon="8.68018">
        <ele>2101</ele>
        <time>2021-08-07T08:08:52.705Z</time>
      </trkpt>
      <trkpt lat="46.91734" lon="8.68017">
        <ele>2101</ele>
        <time>2021-08-07T08:08:53.705Z</time>
      </trkpt>
      <trkpt lat="46.91733" lon="8.68016">
        <ele>2101</ele>
        <time>2021-08-07T08:08:54.705Z</time>
      </trkpt>
      <trkpt lat="46.91733" lon="8.68015">
        <ele>2101</ele>
        <time>2021-08-07T08:08:55.705Z</time>
      </trkpt>
      <trkpt lat="46.91732" lon="8.68014">
        <ele>2101</ele>
        <time>2021-08-07T08:08:56.706Z</time>
      </trkpt>
      <trkpt lat="46.91731" lon="8.68013">
        <ele>2101</ele>
        <time>2021-08-07T08:08:57.706Z</time>
      </trkpt>
      <trkpt lat="46.9173" lon="8.68012">
        <ele>2101</ele>
        <time>2021-08-07T08:08:58.706Z</time>
      </trkpt>
      <trkpt lat="46.9173" lon="8.68011">
        <ele>2101</ele>
        <time>2021-08-07T08:08:59.705Z</time>
      </trkpt>
      <trkpt lat="46.91729" lon="8.6801">
        <ele>2101</ele>
        <time>2021-08-07T08:09:00.705Z</time>
      </trkpt>
      <trkpt lat="46.91728" lon="8.68009">
        <ele>2100</ele>
        <time>2021-08-07T08:09:01.706Z</time>
      </trkpt>
      <trkpt lat="46.91728" lon="8.68009">
        <ele>2100</ele>
        <time>2021-08-07T08:09:02.706Z</time>
      </trkpt>
      <trkpt lat="46.91727" lon="8.68008">
        <ele>2100</ele>
        <time>2021-08-07T08:09:03.706Z</time>
      </trkpt>
      <trkpt lat="46.91726" lon="8.68008">
        <ele>2100</ele>
        <time>2021-08-07T08:09:04.706Z</time>
      </trkpt>
      <trkpt lat="46.91725" lon="8.68008">
        <ele>2100</ele>
        <time>2021-08-07T08:09:05.706Z</time>
      </trkpt>
      <trkpt lat="46.91724" lon="8.68008">
        <ele>2100</ele>
        <time>2021-08-07T08:09:06.706Z</time>
      </trkpt>
      <trkpt lat="46.91724" lon="8.68007">
        <ele>2100</ele>
        <time>2021-08-07T08:09:07.706Z</time>
      </trkpt>
      <trkpt lat="46.91723" lon="8.68007">
        <ele>2100</ele>
        <time>2021-08-07T08:09:08.706Z</time>
      </trkpt>
      <trkpt lat="46.91723" lon="8.68007">
        <ele>2100</ele>
        <time>2021-08-07T08:09:09.706Z</time>
      </trkpt>
      <trkpt lat="46.91722" lon="8.68006">
        <ele>2100</ele>
        <time>2021-08-07T08:09:10.706Z</time>
      </trkpt>
      <trkpt lat="46.91722" lon="8.68005">
        <ele>2100</ele>
        <time>2021-08-07T08:09:11.705Z</time>
      </trkpt>
      <trkpt lat="46.91721" lon="8.68004">
        <ele>2100</ele>
        <time>2021-08-07T08:09:12.705Z</time>
      </trkpt>
      <trkpt lat="46.91721" lon="8.68003">
        <ele>2100</ele>
        <time>2021-08-07T08:09:13.706Z</time>
      </trkpt>
      <trkpt lat="46.9172" lon="8.68002">
        <ele>2100</ele>
        <time>2021-08-07T08:09:14.705Z</time>
      </trkpt>
      <trkpt lat="46.91719" lon="8.68001">
        <ele>2100</ele>
        <time>2021-08-07T08:09:15.706Z</time>
      </trkpt>
      <trkpt lat="46.91718" lon="8.68">
        <ele>2101</ele>
        <time>2021-08-07T08:09:16.706Z</time>
      </trkpt>
      <trkpt lat="46.91718" lon="8.67999">
        <ele>2101</ele>
        <time>2021-08-07T08:09:17.706Z</time>
      </trkpt>
      <trkpt lat="46.91718" lon="8.67999">
        <ele>2101</ele>
        <time>2021-08-07T08:09:18.706Z</time>
      </trkpt>
      <trkpt lat="46.91718" lon="8.67998">
        <ele>2101</ele>
        <time>2021-08-07T08:09:19.706Z</time>
      </trkpt>
      <trkpt lat="46.91718" lon="8.67997">
        <ele>2101</ele>
        <time>2021-08-07T08:09:20.706Z</time>
      </trkpt>
      <trkpt lat="46.91717" lon="8.67996">
        <ele>2101</ele>
        <time>2021-08-07T08:09:21.706Z</time>
      </trkpt>
      <trkpt lat="46.91717" lon="8.67995">
        <ele>2101</ele>
        <time>2021-08-07T08:09:22.706Z</time>
      </trkpt>
      <trkpt lat="46.91716" lon="8.67993">
        <ele>2100</ele>
        <time>2021-08-07T08:09:23.705Z</time>
      </trkpt>
      <trkpt lat="46.91716" lon="8.67992">
        <ele>2100</ele>
        <time>2021-08-07T08:09:24.706Z</time>
      </trkpt>
      <trkpt lat="46.91715" lon="8.67991">
        <ele>2100</ele>
        <time>2021-08-07T08:09:25.706Z</time>
      </trkpt>
      <trkpt lat="46.91715" lon="8.6799">
        <ele>2100</ele>
        <time>2021-08-07T08:09:26.705Z</time>
      </trkpt>
      <trkpt lat="46.91714" lon="8.67989">
        <ele>2100</ele>
        <time>2021-08-07T08:09:27.706Z</time>
      </trkpt>
      <trkpt lat="46.91713" lon="8.67988">
        <ele>2100</ele>
        <time>2021-08-07T08:09:28.706Z</time>
      </trkpt>
      <trkpt lat="46.91713" lon="8.67987">
        <ele>2100</ele>
        <time>2021-08-07T08:09:29.706Z</time>
      </trkpt>
      <trkpt lat="46.91712" lon="8.67986">
        <ele>2100</ele>
        <time>2021-08-07T08:09:30.706Z</time>
      </trkpt>
      <trkpt lat="46.91711" lon="8.67985">
        <ele>2099</ele>
        <time>2021-08-07T08:09:31.706Z</time>
      </trkpt>
      <trkpt lat="46.9171" lon="8.67984">
        <ele>2099</ele>
        <time>2021-08-07T08:09:32.706Z</time>
      </trkpt>
      <trkpt lat="46.9171" lon="8.67983">
        <ele>2099</ele>
        <time>2021-08-07T08:09:33.705Z</time>
      </trkpt>
      <trkpt lat="46.9171" lon="8.67982">
        <ele>2099</ele>
        <time>2021-08-07T08:09:34.706Z</time>
      </trkpt>
      <trkpt lat="46.9171" lon="8.67981">
        <ele>2098</ele>
        <time>2021-08-07T08:09:35.706Z</time>
      </trkpt>
      <trkpt lat="46.9171" lon="8.67981">
        <ele>2098</ele>
        <time>2021-08-07T08:09:36.705Z</time>
      </trkpt>
      <trkpt lat="46.9171" lon="8.67981">
        <ele>2097</ele>
        <time>2021-08-07T08:09:37.706Z</time>
      </trkpt>
      <trkpt lat="46.91711" lon="8.67981">
        <ele>2097</ele>
        <time>2021-08-07T08:09:38.706Z</time>
      </trkpt>
      <trkpt lat="46.91711" lon="8.6798">
        <ele>2097</ele>
        <time>2021-08-07T08:09:39.706Z</time>
      </trkpt>
      <trkpt lat="46.91712" lon="8.6798">
        <ele>2097</ele>
        <time>2021-08-07T08:09:40.706Z</time>
      </trkpt>
      <trkpt lat="46.91712" lon="8.67979">
        <ele>2097</ele>
        <time>2021-08-07T08:09:41.706Z</time>
      </trkpt>
      <trkpt lat="46.91712" lon="8.67978">
        <ele>2097</ele>
        <time>2021-08-07T08:09:42.705Z</time>
      </trkpt>
      <trkpt lat="46.91712" lon="8.67976">
        <ele>2096</ele>
        <time>2021-08-07T08:09:43.706Z</time>
      </trkpt>
      <trkpt lat="46.91711" lon="8.67975">
        <ele>2096</ele>
        <time>2021-08-07T08:09:44.706Z</time>
      </trkpt>
      <trkpt lat="46.91711" lon="8.67974">
        <ele>2096</ele>
        <time>2021-08-07T08:09:45.706Z</time>
      </trkpt>
      <trkpt lat="46.9171" lon="8.67973">
        <ele>2096</ele>
        <time>2021-08-07T08:09:46.705Z</time>
      </trkpt>
      <trkpt lat="46.9171" lon="8.67971">
        <ele>2096</ele>
        <time>2021-08-07T08:09:47.706Z</time>
      </trkpt>
      <trkpt lat="46.91709" lon="8.6797">
        <ele>2096</ele>
        <time>2021-08-07T08:09:48.705Z</time>
      </trkpt>
      <trkpt lat="46.91709" lon="8.67969">
        <ele>2095</ele>
        <time>2021-08-07T08:09:49.705Z</time>
      </trkpt>
      <trkpt lat="46.91708" lon="8.67968">
        <ele>2095</ele>
        <time>2021-08-07T08:09:50.705Z</time>
      </trkpt>
      <trkpt lat="46.91707" lon="8.67968">
        <ele>2095</ele>
        <time>2021-08-07T08:09:51.706Z</time>
      </trkpt>
      <trkpt lat="46.91707" lon="8.67967">
        <ele>2094</ele>
        <time>2021-08-07T08:09:52.705Z</time>
      </trkpt>
      <trkpt lat="46.91706" lon="8.67966">
        <ele>2094</ele>
        <time>2021-08-07T08:09:53.706Z</time>
      </trkpt>
      <trkpt lat="46.91705" lon="8.67966">
        <ele>2094</ele>
        <time>2021-08-07T08:09:54.706Z</time>
      </trkpt>
      <trkpt lat="46.91705" lon="8.67965">
        <ele>2093</ele>
        <time>2021-08-07T08:09:55.705Z</time>
      </trkpt>
      <trkpt lat="46.91705" lon="8.67965">
        <ele>2092</ele>
        <time>2021-08-07T08:09:56.706Z</time>
      </trkpt>
      <trkpt lat="46.91704" lon="8.67964">
        <ele>2092</ele>
        <time>2021-08-07T08:09:57.706Z</time>
      </trkpt>
      <trkpt lat="46.91704" lon="8.67964">
        <ele>2091</ele>
        <time>2021-08-07T08:09:58.706Z</time>
      </trkpt>
      <trkpt lat="46.91704" lon="8.67963">
        <ele>2091</ele>
        <time>2021-08-07T08:09:59.706Z</time>
      </trkpt>
      <trkpt lat="46.91704" lon="8.67963">
        <ele>2091</ele>
        <time>2021-08-07T08:10:00.705Z</time>
      </trkpt>
      <trkpt lat="46.91705" lon="8.67964">
        <ele>2091</ele>
        <time>2021-08-07T08:10:01.706Z</time>
      </trkpt>
      <trkpt lat="46.91705" lon="8.67963">
        <ele>2091</ele>
        <time>2021-08-07T08:10:02.706Z</time>
      </trkpt>
      <trkpt lat="46.91705" lon="8.67963">
        <ele>2092</ele>
        <time>2021-08-07T08:10:03.706Z</time>
      </trkpt>
      <trkpt lat="46.91704" lon="8.67962">
        <ele>2092</ele>
        <time>2021-08-07T08:10:04.706Z</time>
      </trkpt>
      <trkpt lat="46.91704" lon="8.67962">
        <ele>2093</ele>
        <time>2021-08-07T08:10:05.706Z</time>
      </trkpt>
      <trkpt lat="46.91703" lon="8.6796">
        <ele>2092</ele>
        <time>2021-08-07T08:10:06.707Z</time>
      </trkpt>
      <trkpt lat="46.91702" lon="8.67959">
        <ele>2092</ele>
        <time>2021-08-07T08:10:07.707Z</time>
      </trkpt>
      <trkpt lat="46.91702" lon="8.67958">
        <ele>2091</ele>
        <time>2021-08-07T08:10:08.706Z</time>
      </trkpt>
      <trkpt lat="46.91702" lon="8.67957">
        <ele>2091</ele>
        <time>2021-08-07T08:10:09.706Z</time>
      </trkpt>
      <trkpt lat="46.91702" lon="8.67957">
        <ele>2091</ele>
        <time>2021-08-07T08:10:10.707Z</time>
      </trkpt>
      <trkpt lat="46.91702" lon="8.67957">
        <ele>2094</ele>
        <time>2021-08-07T08:10:11.707Z</time>
      </trkpt>
      <trkpt lat="46.91702" lon="8.67957">
        <ele>2093</ele>
        <time>2021-08-07T08:10:12.707Z</time>
      </trkpt>
      <trkpt lat="46.91701" lon="8.67956">
        <ele>2093</ele>
        <time>2021-08-07T08:10:13.707Z</time>
      </trkpt>
      <trkpt lat="46.91701" lon="8.67957">
        <ele>2093</ele>
        <time>2021-08-07T08:10:14.708Z</time>
      </trkpt>
      <trkpt lat="46.91701" lon="8.67957">
        <ele>2093</ele>
        <time>2021-08-07T08:10:15.707Z</time>
      </trkpt>
      <trkpt lat="46.91701" lon="8.67957">
        <ele>2093</ele>
        <time>2021-08-07T08:10:16.707Z</time>
      </trkpt>
      <trkpt lat="46.91701" lon="8.67958">
        <ele>2093</ele>
        <time>2021-08-07T08:10:17.708Z</time>
      </trkpt>
      <trkpt lat="46.91701" lon="8.67958">
        <ele>2093</ele>
        <time>2021-08-07T08:10:18.708Z</time>
      </trkpt>
      <trkpt lat="46.91701" lon="8.67958">
        <ele>2093</ele>
        <time>2021-08-07T08:10:19.709Z</time>
      </trkpt>
      <trkpt lat="46.91701" lon="8.67958">
        <ele>2094</ele>
        <time>2021-08-07T08:10:20.709Z</time>
      </trkpt>
      <trkpt lat="46.91701" lon="8.67959">
        <ele>2093</ele>
        <time>2021-08-07T08:10:21.709Z</time>
      </trkpt>
      <trkpt lat="46.91702" lon="8.67959">
        <ele>2093</ele>
        <time>2021-08-07T08:10:22.709Z</time>
      </trkpt>
      <trkpt lat="46.91702" lon="8.67958">
        <ele>2093</ele>
        <time>2021-08-07T08:10:23.709Z</time>
      </trkpt>
      <trkpt lat="46.91702" lon="8.67958">
        <ele>2092</ele>
        <time>2021-08-07T08:10:24.709Z</time>
      </trkpt>
      <trkpt lat="46.91702" lon="8.67957">
        <ele>2092</ele>
        <time>2021-08-07T08:10:25.708Z</time>
      </trkpt>
      <trkpt lat="46.91701" lon="8.67956">
        <ele>2092</ele>
        <time>2021-08-07T08:10:26.709Z</time>
      </trkpt>
      <trkpt lat="46.91701" lon="8.67956">
        <ele>2092</ele>
        <time>2021-08-07T08:10:27.708Z</time>
      </trkpt>
      <trkpt lat="46.91701" lon="8.67955">
        <ele>2092</ele>
        <time>2021-08-07T08:10:28.708Z</time>
      </trkpt>
      <trkpt lat="46.917" lon="8.67954">
        <ele>2092</ele>
        <time>2021-08-07T08:10:29.708Z</time>
      </trkpt>
      <trkpt lat="46.917" lon="8.67953">
        <ele>2092</ele>
        <time>2021-08-07T08:10:30.709Z</time>
      </trkpt>
      <trkpt lat="46.917" lon="8.67953">
        <ele>2093</ele>
        <time>2021-08-07T08:10:31.708Z</time>
      </trkpt>
      <trkpt lat="46.917" lon="8.67952">
        <ele>2092</ele>
        <time>2021-08-07T08:10:32.709Z</time>
      </trkpt>
      <trkpt lat="46.91699" lon="8.67951">
        <ele>2092</ele>
        <time>2021-08-07T08:10:33.708Z</time>
      </trkpt>
      <trkpt lat="46.91698" lon="8.6795">
        <ele>2091</ele>
        <time>2021-08-07T08:10:34.709Z</time>
      </trkpt>
      <trkpt lat="46.91698" lon="8.67949">
        <ele>2090</ele>
        <time>2021-08-07T08:10:35.709Z</time>
      </trkpt>
      <trkpt lat="46.91698" lon="8.67948">
        <ele>2090</ele>
        <time>2021-08-07T08:10:36.709Z</time>
      </trkpt>
      <trkpt lat="46.91697" lon="8.67948">
        <ele>2090</ele>
        <time>2021-08-07T08:10:37.709Z</time>
      </trkpt>
      <trkpt lat="46.91697" lon="8.67947">
        <ele>2089</ele>
        <time>2021-08-07T08:10:38.709Z</time>
      </trkpt>
      <trkpt lat="46.91696" lon="8.67947">
        <ele>2089</ele>
        <time>2021-08-07T08:10:39.708Z</time>
      </trkpt>
      <trkpt lat="46.91696" lon="8.67947">
        <ele>2089</ele>
        <time>2021-08-07T08:10:40.709Z</time>
      </trkpt>
      <trkpt lat="46.91696" lon="8.67946">
        <ele>2088</ele>
        <time>2021-08-07T08:10:41.709Z</time>
      </trkpt>
      <trkpt lat="46.91695" lon="8.67946">
        <ele>2088</ele>
        <time>2021-08-07T08:10:42.708Z</time>
      </trkpt>
      <trkpt lat="46.91695" lon="8.67945">
        <ele>2088</ele>
        <time>2021-08-07T08:10:43.709Z</time>
      </trkpt>
      <trkpt lat="46.91695" lon="8.67945">
        <ele>2087</ele>
        <time>2021-08-07T08:10:44.709Z</time>
      </trkpt>
      <trkpt lat="46.91694" lon="8.67945">
        <ele>2087</ele>
        <time>2021-08-07T08:10:45.708Z</time>
      </trkpt>
      <trkpt lat="46.91694" lon="8.67945">
        <ele>2087</ele>
        <time>2021-08-07T08:10:46.708Z</time>
      </trkpt>
      <trkpt lat="46.91693" lon="8.67944">
        <ele>2087</ele>
        <time>2021-08-07T08:10:47.708Z</time>
      </trkpt>
      <trkpt lat="46.91692" lon="8.67944">
        <ele>2087</ele>
        <time>2021-08-07T08:10:48.708Z</time>
      </trkpt>
      <trkpt lat="46.91692" lon="8.67944">
        <ele>2087</ele>
        <time>2021-08-07T08:10:49.708Z</time>
      </trkpt>
      <trkpt lat="46.91692" lon="8.67943">
        <ele>2087</ele>
        <time>2021-08-07T08:10:50.708Z</time>
      </trkpt>
      <trkpt lat="46.91692" lon="8.67943">
        <ele>2087</ele>
        <time>2021-08-07T08:10:51.709Z</time>
      </trkpt>
      <trkpt lat="46.91692" lon="8.67942">
        <ele>2087</ele>
        <time>2021-08-07T08:10:52.708Z</time>
      </trkpt>
      <trkpt lat="46.91692" lon="8.67941">
        <ele>2086</ele>
        <time>2021-08-07T08:10:53.709Z</time>
      </trkpt>
      <trkpt lat="46.91691" lon="8.6794">
        <ele>2086</ele>
        <time>2021-08-07T08:10:54.709Z</time>
      </trkpt>
      <trkpt lat="46.9169" lon="8.67939">
        <ele>2086</ele>
        <time>2021-08-07T08:10:55.709Z</time>
      </trkpt>
      <trkpt lat="46.91689" lon="8.67938">
        <ele>2086</ele>
        <time>2021-08-07T08:10:56.709Z</time>
      </trkpt>
      <trkpt lat="46.91689" lon="8.67937">
        <ele>2085</ele>
        <time>2021-08-07T08:10:57.708Z</time>
      </trkpt>
      <trkpt lat="46.91688" lon="8.67936">
        <ele>2085</ele>
        <time>2021-08-07T08:10:58.709Z</time>
      </trkpt>
      <trkpt lat="46.91688" lon="8.67935">
        <ele>2085</ele>
        <time>2021-08-07T08:10:59.708Z</time>
      </trkpt>
      <trkpt lat="46.91688" lon="8.67934">
        <ele>2084</ele>
        <time>2021-08-07T08:11:00.709Z</time>
      </trkpt>
      <trkpt lat="46.91688" lon="8.67933">
        <ele>2084</ele>
        <time>2021-08-07T08:11:01.709Z</time>
      </trkpt>
      <trkpt lat="46.91687" lon="8.67932">
        <ele>2084</ele>
        <time>2021-08-07T08:11:02.708Z</time>
      </trkpt>
      <trkpt lat="46.91687" lon="8.67931">
        <ele>2083</ele>
        <time>2021-08-07T08:11:03.709Z</time>
      </trkpt>
      <trkpt lat="46.91686" lon="8.6793">
        <ele>2083</ele>
        <time>2021-08-07T08:11:04.709Z</time>
      </trkpt>
      <trkpt lat="46.91686" lon="8.67929">
        <ele>2082</ele>
        <time>2021-08-07T08:11:05.709Z</time>
      </trkpt>
      <trkpt lat="46.91685" lon="8.67928">
        <ele>2082</ele>
        <time>2021-08-07T08:11:06.709Z</time>
      </trkpt>
      <trkpt lat="46.91685" lon="8.67926">
        <ele>2082</ele>
        <time>2021-08-07T08:11:07.709Z</time>
      </trkpt>
      <trkpt lat="46.91685" lon="8.67925">
        <ele>2082</ele>
        <time>2021-08-07T08:11:08.708Z</time>
      </trkpt>
      <trkpt lat="46.91685" lon="8.67924">
        <ele>2082</ele>
        <time>2021-08-07T08:11:09.709Z</time>
      </trkpt>
      <trkpt lat="46.91685" lon="8.67923">
        <ele>2082</ele>
        <time>2021-08-07T08:11:10.709Z</time>
      </trkpt>
      <trkpt lat="46.91685" lon="8.67922">
        <ele>2082</ele>
        <time>2021-08-07T08:11:11.709Z</time>
      </trkpt>
      <trkpt lat="46.91685" lon="8.67921">
        <ele>2082</ele>
        <time>2021-08-07T08:11:12.709Z</time>
      </trkpt>
      <trkpt lat="46.91685" lon="8.67921">
        <ele>2082</ele>
        <time>2021-08-07T08:11:13.708Z</time>
      </trkpt>
      <trkpt lat="46.91685" lon="8.6792">
        <ele>2083</ele>
        <time>2021-08-07T08:11:14.709Z</time>
      </trkpt>
      <trkpt lat="46.91686" lon="8.6792">
        <ele>2083</ele>
        <time>2021-08-07T08:11:15.708Z</time>
      </trkpt>
      <trkpt lat="46.91686" lon="8.67919">
        <ele>2084</ele>
        <time>2021-08-07T08:11:16.709Z</time>
      </trkpt>
      <trkpt lat="46.91686" lon="8.67918">
        <ele>2084</ele>
        <time>2021-08-07T08:11:17.709Z</time>
      </trkpt>
      <trkpt lat="46.91686" lon="8.67917">
        <ele>2084</ele>
        <time>2021-08-07T08:11:18.709Z</time>
      </trkpt>
      <trkpt lat="46.91686" lon="8.67916">
        <ele>2085</ele>
        <time>2021-08-07T08:11:19.708Z</time>
      </trkpt>
      <trkpt lat="46.91686" lon="8.67915">
        <ele>2085</ele>
        <time>2021-08-07T08:11:20.709Z</time>
      </trkpt>
      <trkpt lat="46.91686" lon="8.67914">
        <ele>2086</ele>
        <time>2021-08-07T08:11:21.708Z</time>
      </trkpt>
      <trkpt lat="46.91685" lon="8.67913">
        <ele>2086</ele>
        <time>2021-08-07T08:11:22.708Z</time>
      </trkpt>
      <trkpt lat="46.91684" lon="8.67912">
        <ele>2086</ele>
        <time>2021-08-07T08:11:23.708Z</time>
      </trkpt>
      <trkpt lat="46.91684" lon="8.6791">
        <ele>2086</ele>
        <time>2021-08-07T08:11:24.708Z</time>
      </trkpt>
      <trkpt lat="46.91683" lon="8.67909">
        <ele>2086</ele>
        <time>2021-08-07T08:11:25.708Z</time>
      </trkpt>
      <trkpt lat="46.91683" lon="8.67908">
        <ele>2086</ele>
        <time>2021-08-07T08:11:26.709Z</time>
      </trkpt>
      <trkpt lat="46.91682" lon="8.67906">
        <ele>2086</ele>
        <time>2021-08-07T08:11:27.708Z</time>
      </trkpt>
      <trkpt lat="46.91681" lon="8.67904">
        <ele>2085</ele>
        <time>2021-08-07T08:11:28.708Z</time>
      </trkpt>
      <trkpt lat="46.9168" lon="8.67903">
        <ele>2085</ele>
        <time>2021-08-07T08:11:29.708Z</time>
      </trkpt>
      <trkpt lat="46.9168" lon="8.67901">
        <ele>2084</ele>
        <time>2021-08-07T08:11:30.708Z</time>
      </trkpt>
      <trkpt lat="46.9168" lon="8.679">
        <ele>2084</ele>
        <time>2021-08-07T08:11:31.708Z</time>
      </trkpt>
      <trkpt lat="46.91679" lon="8.67899">
        <ele>2083</ele>
        <time>2021-08-07T08:11:32.709Z</time>
      </trkpt>
      <trkpt lat="46.91679" lon="8.67897">
        <ele>2082</ele>
        <time>2021-08-07T08:11:33.708Z</time>
      </trkpt>
      <trkpt lat="46.91678" lon="8.67896">
        <ele>2082</ele>
        <time>2021-08-07T08:11:34.708Z</time>
      </trkpt>
      <trkpt lat="46.91678" lon="8.67895">
        <ele>2081</ele>
        <time>2021-08-07T08:11:35.708Z</time>
      </trkpt>
      <trkpt lat="46.91677" lon="8.67894">
        <ele>2081</ele>
        <time>2021-08-07T08:11:36.708Z</time>
      </trkpt>
      <trkpt lat="46.91677" lon="8.67893">
        <ele>2081</ele>
        <time>2021-08-07T08:11:37.709Z</time>
      </trkpt>
      <trkpt lat="46.91677" lon="8.67893">
        <ele>2081</ele>
        <time>2021-08-07T08:11:38.708Z</time>
      </trkpt>
      <trkpt lat="46.91676" lon="8.67892">
        <ele>2081</ele>
        <time>2021-08-07T08:11:39.708Z</time>
      </trkpt>
      <trkpt lat="46.91675" lon="8.67892">
        <ele>2081</ele>
        <time>2021-08-07T08:11:40.708Z</time>
      </trkpt>
      <trkpt lat="46.91675" lon="8.67892">
        <ele>2081</ele>
        <time>2021-08-07T08:11:41.708Z</time>
      </trkpt>
      <trkpt lat="46.91674" lon="8.67891">
        <ele>2082</ele>
        <time>2021-08-07T08:11:42.708Z</time>
      </trkpt>
      <trkpt lat="46.91674" lon="8.6789">
        <ele>2081</ele>
        <time>2021-08-07T08:11:43.708Z</time>
      </trkpt>
      <trkpt lat="46.91674" lon="8.67889">
        <ele>2081</ele>
        <time>2021-08-07T08:11:44.708Z</time>
      </trkpt>
      <trkpt lat="46.91674" lon="8.67888">
        <ele>2081</ele>
        <time>2021-08-07T08:11:45.708Z</time>
      </trkpt>
      <trkpt lat="46.91675" lon="8.67886">
        <ele>2081</ele>
        <time>2021-08-07T08:11:46.708Z</time>
      </trkpt>
      <trkpt lat="46.91674" lon="8.67885">
        <ele>2081</ele>
        <time>2021-08-07T08:11:47.708Z</time>
      </trkpt>
      <trkpt lat="46.91674" lon="8.67884">
        <ele>2081</ele>
        <time>2021-08-07T08:11:48.708Z</time>
      </trkpt>
      <trkpt lat="46.91673" lon="8.67882">
        <ele>2081</ele>
        <time>2021-08-07T08:11:49.708Z</time>
      </trkpt>
      <trkpt lat="46.91673" lon="8.67881">
        <ele>2080</ele>
        <time>2021-08-07T08:11:50.708Z</time>
      </trkpt>
      <trkpt lat="46.91672" lon="8.6788">
        <ele>2080</ele>
        <time>2021-08-07T08:11:51.708Z</time>
      </trkpt>
      <trkpt lat="46.91672" lon="8.67878">
        <ele>2079</ele>
        <time>2021-08-07T08:11:52.708Z</time>
      </trkpt>
      <trkpt lat="46.91671" lon="8.67877">
        <ele>2079</ele>
        <time>2021-08-07T08:11:53.708Z</time>
      </trkpt>
      <trkpt lat="46.91671" lon="8.67876">
        <ele>2078</ele>
        <time>2021-08-07T08:11:54.708Z</time>
      </trkpt>
      <trkpt lat="46.91671" lon="8.67875">
        <ele>2078</ele>
        <time>2021-08-07T08:11:55.708Z</time>
      </trkpt>
      <trkpt lat="46.91671" lon="8.67876">
        <ele>2078</ele>
        <time>2021-08-07T08:11:56.708Z</time>
      </trkpt>
      <trkpt lat="46.91671" lon="8.67873">
        <ele>2075</ele>
        <time>2021-08-07T08:11:57.708Z</time>
      </trkpt>
      <trkpt lat="46.91671" lon="8.67871">
        <ele>2075</ele>
        <time>2021-08-07T08:11:58.709Z</time>
      </trkpt>
      <trkpt lat="46.91671" lon="8.6787">
        <ele>2075</ele>
        <time>2021-08-07T08:11:59.708Z</time>
      </trkpt>
      <trkpt lat="46.91671" lon="8.67869">
        <ele>2075</ele>
        <time>2021-08-07T08:12:00.709Z</time>
      </trkpt>
      <trkpt lat="46.9167" lon="8.67868">
        <ele>2075</ele>
        <time>2021-08-07T08:12:01.709Z</time>
      </trkpt>
      <trkpt lat="46.9167" lon="8.67867">
        <ele>2076</ele>
        <time>2021-08-07T08:12:02.709Z</time>
      </trkpt>
      <trkpt lat="46.91671" lon="8.67865">
        <ele>2076</ele>
        <time>2021-08-07T08:12:03.709Z</time>
      </trkpt>
      <trkpt lat="46.91671" lon="8.67863">
        <ele>2076</ele>
        <time>2021-08-07T08:12:04.709Z</time>
      </trkpt>
      <trkpt lat="46.91671" lon="8.67861">
        <ele>2077</ele>
        <time>2021-08-07T08:12:05.709Z</time>
      </trkpt>
      <trkpt lat="46.91671" lon="8.6786">
        <ele>2077</ele>
        <time>2021-08-07T08:12:06.709Z</time>
      </trkpt>
      <trkpt lat="46.91672" lon="8.67859">
        <ele>2077</ele>
        <time>2021-08-07T08:12:07.709Z</time>
      </trkpt>
      <trkpt lat="46.91672" lon="8.67857">
        <ele>2078</ele>
        <time>2021-08-07T08:12:08.708Z</time>
      </trkpt>
      <trkpt lat="46.91672" lon="8.67856">
        <ele>2078</ele>
        <time>2021-08-07T08:12:09.708Z</time>
      </trkpt>
      <trkpt lat="46.91672" lon="8.67855">
        <ele>2078</ele>
        <time>2021-08-07T08:12:10.709Z</time>
      </trkpt>
      <trkpt lat="46.91671" lon="8.67853">
        <ele>2078</ele>
        <time>2021-08-07T08:12:11.709Z</time>
      </trkpt>
      <trkpt lat="46.91671" lon="8.67852">
        <ele>2079</ele>
        <time>2021-08-07T08:12:12.709Z</time>
      </trkpt>
      <trkpt lat="46.91671" lon="8.6785">
        <ele>2078</ele>
        <time>2021-08-07T08:12:13.709Z</time>
      </trkpt>
      <trkpt lat="46.91671" lon="8.67849">
        <ele>2078</ele>
        <time>2021-08-07T08:12:14.709Z</time>
      </trkpt>
      <trkpt lat="46.91671" lon="8.67847">
        <ele>2077</ele>
        <time>2021-08-07T08:12:15.708Z</time>
      </trkpt>
      <trkpt lat="46.91671" lon="8.67846">
        <ele>2077</ele>
        <time>2021-08-07T08:12:16.709Z</time>
      </trkpt>
      <trkpt lat="46.91671" lon="8.67845">
        <ele>2076</ele>
        <time>2021-08-07T08:12:17.708Z</time>
      </trkpt>
      <trkpt lat="46.91671" lon="8.67844">
        <ele>2075</ele>
        <time>2021-08-07T08:12:18.708Z</time>
      </trkpt>
      <trkpt lat="46.91671" lon="8.67843">
        <ele>2075</ele>
        <time>2021-08-07T08:12:19.708Z</time>
      </trkpt>
      <trkpt lat="46.91672" lon="8.67841">
        <ele>2075</ele>
        <time>2021-08-07T08:12:20.708Z</time>
      </trkpt>
      <trkpt lat="46.91671" lon="8.6784">
        <ele>2074</ele>
        <time>2021-08-07T08:12:21.709Z</time>
      </trkpt>
      <trkpt lat="46.91672" lon="8.67838">
        <ele>2074</ele>
        <time>2021-08-07T08:12:22.709Z</time>
      </trkpt>
      <trkpt lat="46.91672" lon="8.67837">
        <ele>2073</ele>
        <time>2021-08-07T08:12:23.709Z</time>
      </trkpt>
      <trkpt lat="46.91672" lon="8.67836">
        <ele>2073</ele>
        <time>2021-08-07T08:12:24.709Z</time>
      </trkpt>
      <trkpt lat="46.91672" lon="8.67835">
        <ele>2073</ele>
        <time>2021-08-07T08:12:25.709Z</time>
      </trkpt>
      <trkpt lat="46.91672" lon="8.67833">
        <ele>2073</ele>
        <time>2021-08-07T08:12:26.709Z</time>
      </trkpt>
      <trkpt lat="46.91673" lon="8.67832">
        <ele>2073</ele>
        <time>2021-08-07T08:12:27.709Z</time>
      </trkpt>
      <trkpt lat="46.91673" lon="8.67831">
        <ele>2073</ele>
        <time>2021-08-07T08:12:28.709Z</time>
      </trkpt>
      <trkpt lat="46.91673" lon="8.67829">
        <ele>2073</ele>
        <time>2021-08-07T08:12:29.709Z</time>
      </trkpt>
      <trkpt lat="46.91673" lon="8.67827">
        <ele>2073</ele>
        <time>2021-08-07T08:12:30.709Z</time>
      </trkpt>
      <trkpt lat="46.91673" lon="8.67825">
        <ele>2073</ele>
        <time>2021-08-07T08:12:31.708Z</time>
      </trkpt>
      <trkpt lat="46.91673" lon="8.67824">
        <ele>2073</ele>
        <time>2021-08-07T08:12:32.708Z</time>
      </trkpt>
      <trkpt lat="46.91673" lon="8.67822">
        <ele>2073</ele>
        <time>2021-08-07T08:12:33.709Z</time>
      </trkpt>
      <trkpt lat="46.91673" lon="8.67821">
        <ele>2073</ele>
        <time>2021-08-07T08:12:34.709Z</time>
      </trkpt>
      <trkpt lat="46.91672" lon="8.67819">
        <ele>2073</ele>
        <time>2021-08-07T08:12:35.709Z</time>
      </trkpt>
      <trkpt lat="46.91672" lon="8.67818">
        <ele>2074</ele>
        <time>2021-08-07T08:12:36.709Z</time>
      </trkpt>
      <trkpt lat="46.91672" lon="8.67817">
        <ele>2074</ele>
        <time>2021-08-07T08:12:37.708Z</time>
      </trkpt>
      <trkpt lat="46.91672" lon="8.67816">
        <ele>2074</ele>
        <time>2021-08-07T08:12:38.709Z</time>
      </trkpt>
      <trkpt lat="46.91672" lon="8.67815">
        <ele>2073</ele>
        <time>2021-08-07T08:12:39.708Z</time>
      </trkpt>
      <trkpt lat="46.91672" lon="8.67813">
        <ele>2073</ele>
        <time>2021-08-07T08:12:40.708Z</time>
      </trkpt>
      <trkpt lat="46.91672" lon="8.67812">
        <ele>2073</ele>
        <time>2021-08-07T08:12:41.708Z</time>
      </trkpt>
      <trkpt lat="46.91672" lon="8.67811">
        <ele>2072</ele>
        <time>2021-08-07T08:12:42.708Z</time>
      </trkpt>
      <trkpt lat="46.91672" lon="8.6781">
        <ele>2072</ele>
        <time>2021-08-07T08:12:43.708Z</time>
      </trkpt>
      <trkpt lat="46.91672" lon="8.67809">
        <ele>2072</ele>
        <time>2021-08-07T08:12:44.708Z</time>
      </trkpt>
      <trkpt lat="46.91672" lon="8.67809">
        <ele>2072</ele>
        <time>2021-08-07T08:12:45.708Z</time>
      </trkpt>
      <trkpt lat="46.91672" lon="8.67808">
        <ele>2071</ele>
        <time>2021-08-07T08:12:46.710Z</time>
      </trkpt>
      <trkpt lat="46.91672" lon="8.67807">
        <ele>2071</ele>
        <time>2021-08-07T08:12:47.710Z</time>
      </trkpt>
      <trkpt lat="46.91672" lon="8.67806">
        <ele>2072</ele>
        <time>2021-08-07T08:12:48.710Z</time>
      </trkpt>
      <trkpt lat="46.91672" lon="8.67806">
        <ele>2072</ele>
        <time>2021-08-07T08:12:49.710Z</time>
      </trkpt>
      <trkpt lat="46.91672" lon="8.67805">
        <ele>2072</ele>
        <time>2021-08-07T08:12:50.709Z</time>
      </trkpt>
      <trkpt lat="46.91672" lon="8.67804">
        <ele>2072</ele>
        <time>2021-08-07T08:12:51.710Z</time>
      </trkpt>
      <trkpt lat="46.91672" lon="8.67803">
        <ele>2072</ele>
        <time>2021-08-07T08:12:52.710Z</time>
      </trkpt>
      <trkpt lat="46.91673" lon="8.67801">
        <ele>2072</ele>
        <time>2021-08-07T08:12:53.710Z</time>
      </trkpt>
      <trkpt lat="46.91673" lon="8.678">
        <ele>2072</ele>
        <time>2021-08-07T08:12:54.710Z</time>
      </trkpt>
      <trkpt lat="46.91672" lon="8.67799">
        <ele>2072</ele>
        <time>2021-08-07T08:12:55.710Z</time>
      </trkpt>
      <trkpt lat="46.91672" lon="8.67798">
        <ele>2072</ele>
        <time>2021-08-07T08:12:56.710Z</time>
      </trkpt>
      <trkpt lat="46.91672" lon="8.67797">
        <ele>2072</ele>
        <time>2021-08-07T08:12:57.710Z</time>
      </trkpt>
      <trkpt lat="46.91672" lon="8.67796">
        <ele>2071</ele>
        <time>2021-08-07T08:12:58.710Z</time>
      </trkpt>
      <trkpt lat="46.91672" lon="8.67795">
        <ele>2071</ele>
        <time>2021-08-07T08:12:59.710Z</time>
      </trkpt>
      <trkpt lat="46.91673" lon="8.67793">
        <ele>2071</ele>
        <time>2021-08-07T08:13:00.710Z</time>
      </trkpt>
      <trkpt lat="46.91673" lon="8.67792">
        <ele>2070</ele>
        <time>2021-08-07T08:13:01.709Z</time>
      </trkpt>
      <trkpt lat="46.91673" lon="8.67791">
        <ele>2070</ele>
        <time>2021-08-07T08:13:02.710Z</time>
      </trkpt>
      <trkpt lat="46.91673" lon="8.67789">
        <ele>2069</ele>
        <time>2021-08-07T08:13:03.709Z</time>
      </trkpt>
      <trkpt lat="46.91674" lon="8.67788">
        <ele>2069</ele>
        <time>2021-08-07T08:13:04.709Z</time>
      </trkpt>
      <trkpt lat="46.91674" lon="8.67787">
        <ele>2069</ele>
        <time>2021-08-07T08:13:05.710Z</time>
      </trkpt>
      <trkpt lat="46.91674" lon="8.67785">
        <ele>2069</ele>
        <time>2021-08-07T08:13:06.710Z</time>
      </trkpt>
      <trkpt lat="46.91674" lon="8.67785">
        <ele>2069</ele>
        <time>2021-08-07T08:13:07.709Z</time>
      </trkpt>
      <trkpt lat="46.91675" lon="8.67784">
        <ele>2068</ele>
        <time>2021-08-07T08:13:08.709Z</time>
      </trkpt>
      <trkpt lat="46.91674" lon="8.67782">
        <ele>2068</ele>
        <time>2021-08-07T08:13:09.710Z</time>
      </trkpt>
      <trkpt lat="46.91674" lon="8.67781">
        <ele>2068</ele>
        <time>2021-08-07T08:13:10.710Z</time>
      </trkpt>
      <trkpt lat="46.91674" lon="8.67779">
        <ele>2068</ele>
        <time>2021-08-07T08:13:11.710Z</time>
      </trkpt>
      <trkpt lat="46.91674" lon="8.67778">
        <ele>2068</ele>
        <time>2021-08-07T08:13:12.709Z</time>
      </trkpt>
      <trkpt lat="46.91674" lon="8.67777">
        <ele>2068</ele>
        <time>2021-08-07T08:13:13.710Z</time>
      </trkpt>
      <trkpt lat="46.91674" lon="8.67776">
        <ele>2067</ele>
        <time>2021-08-07T08:13:14.709Z</time>
      </trkpt>
      <trkpt lat="46.91673" lon="8.67776">
        <ele>2067</ele>
        <time>2021-08-07T08:13:15.710Z</time>
      </trkpt>
      <trkpt lat="46.91673" lon="8.67775">
        <ele>2067</ele>
        <time>2021-08-07T08:13:16.710Z</time>
      </trkpt>
      <trkpt lat="46.91673" lon="8.67773">
        <ele>2067</ele>
        <time>2021-08-07T08:13:17.710Z</time>
      </trkpt>
      <trkpt lat="46.91673" lon="8.67772">
        <ele>2067</ele>
        <time>2021-08-07T08:13:18.710Z</time>
      </trkpt>
      <trkpt lat="46.91673" lon="8.67771">
        <ele>2067</ele>
        <time>2021-08-07T08:13:19.710Z</time>
      </trkpt>
      <trkpt lat="46.91673" lon="8.6777">
        <ele>2067</ele>
        <time>2021-08-07T08:13:20.710Z</time>
      </trkpt>
      <trkpt lat="46.91673" lon="8.67768">
        <ele>2066</ele>
        <time>2021-08-07T08:13:21.709Z</time>
      </trkpt>
      <trkpt lat="46.91674" lon="8.67767">
        <ele>2066</ele>
        <time>2021-08-07T08:13:22.709Z</time>
      </trkpt>
      <trkpt lat="46.91674" lon="8.67766">
        <ele>2066</ele>
        <time>2021-08-07T08:13:23.709Z</time>
      </trkpt>
      <trkpt lat="46.91674" lon="8.67764">
        <ele>2066</ele>
        <time>2021-08-07T08:13:24.710Z</time>
      </trkpt>
      <trkpt lat="46.91674" lon="8.67763">
        <ele>2065</ele>
        <time>2021-08-07T08:13:25.710Z</time>
      </trkpt>
      <trkpt lat="46.91674" lon="8.67762">
        <ele>2065</ele>
        <time>2021-08-07T08:13:26.709Z</time>
      </trkpt>
      <trkpt lat="46.91674" lon="8.67761">
        <ele>2065</ele>
        <time>2021-08-07T08:13:27.710Z</time>
      </trkpt>
      <trkpt lat="46.91675" lon="8.6776">
        <ele>2065</ele>
        <time>2021-08-07T08:13:28.710Z</time>
      </trkpt>
      <trkpt lat="46.91675" lon="8.67759">
        <ele>2066</ele>
        <time>2021-08-07T08:13:29.709Z</time>
      </trkpt>
      <trkpt lat="46.91675" lon="8.67758">
        <ele>2067</ele>
        <time>2021-08-07T08:13:30.709Z</time>
      </trkpt>
      <trkpt lat="46.91675" lon="8.67756">
        <ele>2067</ele>
        <time>2021-08-07T08:13:31.709Z</time>
      </trkpt>
      <trkpt lat="46.91675" lon="8.67755">
        <ele>2066</ele>
        <time>2021-08-07T08:13:32.710Z</time>
      </trkpt>
      <trkpt lat="46.91675" lon="8.67754">
        <ele>2066</ele>
        <time>2021-08-07T08:13:33.710Z</time>
      </trkpt>
      <trkpt lat="46.91676" lon="8.67753">
        <ele>2065</ele>
        <time>2021-08-07T08:13:34.709Z</time>
      </trkpt>
      <trkpt lat="46.91676" lon="8.67752">
        <ele>2064</ele>
        <time>2021-08-07T08:13:35.710Z</time>
      </trkpt>
      <trkpt lat="46.91676" lon="8.67751">
        <ele>2064</ele>
        <time>2021-08-07T08:13:36.710Z</time>
      </trkpt>
      <trkpt lat="46.91676" lon="8.6775">
        <ele>2064</ele>
        <time>2021-08-07T08:13:37.710Z</time>
      </trkpt>
      <trkpt lat="46.91676" lon="8.6775">
        <ele>2064</ele>
        <time>2021-08-07T08:13:38.710Z</time>
      </trkpt>
      <trkpt lat="46.91676" lon="8.67749">
        <ele>2064</ele>
        <time>2021-08-07T08:13:39.710Z</time>
      </trkpt>
      <trkpt lat="46.91676" lon="8.67749">
        <ele>2064</ele>
        <time>2021-08-07T08:13:40.709Z</time>
      </trkpt>
      <trkpt lat="46.91676" lon="8.67748">
        <ele>2063</ele>
        <time>2021-08-07T08:13:41.710Z</time>
      </trkpt>
      <trkpt lat="46.91676" lon="8.67747">
        <ele>2063</ele>
        <time>2021-08-07T08:13:42.709Z</time>
      </trkpt>
      <trkpt lat="46.91676" lon="8.67746">
        <ele>2063</ele>
        <time>2021-08-07T08:13:43.710Z</time>
      </trkpt>
      <trkpt lat="46.91677" lon="8.67745">
        <ele>2063</ele>
        <time>2021-08-07T08:13:44.710Z</time>
      </trkpt>
      <trkpt lat="46.91677" lon="8.67743">
        <ele>2063</ele>
        <time>2021-08-07T08:13:45.710Z</time>
      </trkpt>
      <trkpt lat="46.91677" lon="8.67742">
        <ele>2062</ele>
        <time>2021-08-07T08:13:46.710Z</time>
      </trkpt>
      <trkpt lat="46.91677" lon="8.6774">
        <ele>2062</ele>
        <time>2021-08-07T08:13:47.709Z</time>
      </trkpt>
      <trkpt lat="46.91678" lon="8.67739">
        <ele>2062</ele>
        <time>2021-08-07T08:13:48.710Z</time>
      </trkpt>
      <trkpt lat="46.91677" lon="8.67737">
        <ele>2062</ele>
        <time>2021-08-07T08:13:49.710Z</time>
      </trkpt>
      <trkpt lat="46.91677" lon="8.67735">
        <ele>2062</ele>
        <time>2021-08-07T08:13:50.709Z</time>
      </trkpt>
      <trkpt lat="46.91677" lon="8.67734">
        <ele>2061</ele>
        <time>2021-08-07T08:13:51.710Z</time>
      </trkpt>
      <trkpt lat="46.91677" lon="8.67733">
        <ele>2061</ele>
        <time>2021-08-07T08:13:52.709Z</time>
      </trkpt>
      <trkpt lat="46.91677" lon="8.67731">
        <ele>2061</ele>
        <time>2021-08-07T08:13:53.710Z</time>
      </trkpt>
      <trkpt lat="46.91677" lon="8.6773">
        <ele>2060</ele>
        <time>2021-08-07T08:13:54.709Z</time>
      </trkpt>
      <trkpt lat="46.91676" lon="8.67728">
        <ele>2060</ele>
        <time>2021-08-07T08:13:55.710Z</time>
      </trkpt>
      <trkpt lat="46.91676" lon="8.67727">
        <ele>2060</ele>
        <time>2021-08-07T08:13:56.710Z</time>
      </trkpt>
      <trkpt lat="46.91676" lon="8.67725">
        <ele>2059</ele>
        <time>2021-08-07T08:13:57.709Z</time>
      </trkpt>
      <trkpt lat="46.91675" lon="8.67724">
        <ele>2059</ele>
        <time>2021-08-07T08:13:58.710Z</time>
      </trkpt>
      <trkpt lat="46.91675" lon="8.67723">
        <ele>2059</ele>
        <time>2021-08-07T08:13:59.710Z</time>
      </trkpt>
      <trkpt lat="46.91675" lon="8.67721">
        <ele>2059</ele>
        <time>2021-08-07T08:14:00.710Z</time>
      </trkpt>
      <trkpt lat="46.91675" lon="8.6772">
        <ele>2059</ele>
        <time>2021-08-07T08:14:01.710Z</time>
      </trkpt>
      <trkpt lat="46.91675" lon="8.67719">
        <ele>2059</ele>
        <time>2021-08-07T08:14:02.710Z</time>
      </trkpt>
      <trkpt lat="46.91675" lon="8.67718">
        <ele>2058</ele>
        <time>2021-08-07T08:14:03.710Z</time>
      </trkpt>
      <trkpt lat="46.91676" lon="8.67717">
        <ele>2059</ele>
        <time>2021-08-07T08:14:04.710Z</time>
      </trkpt>
      <trkpt lat="46.91676" lon="8.67716">
        <ele>2059</ele>
        <time>2021-08-07T08:14:05.710Z</time>
      </trkpt>
      <trkpt lat="46.91677" lon="8.67715">
        <ele>2059</ele>
        <time>2021-08-07T08:14:06.710Z</time>
      </trkpt>
      <trkpt lat="46.91678" lon="8.67714">
        <ele>2059</ele>
        <time>2021-08-07T08:14:07.710Z</time>
      </trkpt>
      <trkpt lat="46.91679" lon="8.67714">
        <ele>2060</ele>
        <time>2021-08-07T08:14:08.710Z</time>
      </trkpt>
      <trkpt lat="46.9168" lon="8.67713">
        <ele>2061</ele>
        <time>2021-08-07T08:14:09.710Z</time>
      </trkpt>
      <trkpt lat="46.91681" lon="8.67713">
        <ele>2061</ele>
        <time>2021-08-07T08:14:10.709Z</time>
      </trkpt>
      <trkpt lat="46.91682" lon="8.67711">
        <ele>2061</ele>
        <time>2021-08-07T08:14:11.710Z</time>
      </trkpt>
      <trkpt lat="46.91682" lon="8.67709">
        <ele>2061</ele>
        <time>2021-08-07T08:14:12.710Z</time>
      </trkpt>
      <trkpt lat="46.91682" lon="8.67707">
        <ele>2061</ele>
        <time>2021-08-07T08:14:13.710Z</time>
      </trkpt>
      <trkpt lat="46.91682" lon="8.67705">
        <ele>2060</ele>
        <time>2021-08-07T08:14:14.710Z</time>
      </trkpt>
      <trkpt lat="46.91682" lon="8.67704">
        <ele>2059</ele>
        <time>2021-08-07T08:14:15.710Z</time>
      </trkpt>
      <trkpt lat="46.91682" lon="8.67704">
        <ele>2058</ele>
        <time>2021-08-07T08:14:16.709Z</time>
      </trkpt>
      <trkpt lat="46.91682" lon="8.67703">
        <ele>2057</ele>
        <time>2021-08-07T08:14:17.709Z</time>
      </trkpt>
      <trkpt lat="46.91682" lon="8.67702">
        <ele>2056</ele>
        <time>2021-08-07T08:14:18.709Z</time>
      </trkpt>
      <trkpt lat="46.91682" lon="8.67702">
        <ele>2056</ele>
        <time>2021-08-07T08:14:19.710Z</time>
      </trkpt>
      <trkpt lat="46.91681" lon="8.677">
        <ele>2052</ele>
        <time>2021-08-07T08:14:20.710Z</time>
      </trkpt>
      <trkpt lat="46.91681" lon="8.67699">
        <ele>2051</ele>
        <time>2021-08-07T08:14:21.710Z</time>
      </trkpt>
      <trkpt lat="46.91681" lon="8.67698">
        <ele>2051</ele>
        <time>2021-08-07T08:14:22.710Z</time>
      </trkpt>
      <trkpt lat="46.91681" lon="8.67697">
        <ele>2051</ele>
        <time>2021-08-07T08:14:23.711Z</time>
      </trkpt>
      <trkpt lat="46.91682" lon="8.67697">
        <ele>2052</ele>
        <time>2021-08-07T08:14:24.711Z</time>
      </trkpt>
      <trkpt lat="46.91682" lon="8.67695">
        <ele>2051</ele>
        <time>2021-08-07T08:14:25.711Z</time>
      </trkpt>
      <trkpt lat="46.91683" lon="8.67694">
        <ele>2052</ele>
        <time>2021-08-07T08:14:26.711Z</time>
      </trkpt>
      <trkpt lat="46.91683" lon="8.67693">
        <ele>2052</ele>
        <time>2021-08-07T08:14:27.710Z</time>
      </trkpt>
      <trkpt lat="46.91683" lon="8.67692">
        <ele>2052</ele>
        <time>2021-08-07T08:14:28.711Z</time>
      </trkpt>
      <trkpt lat="46.91683" lon="8.67691">
        <ele>2052</ele>
        <time>2021-08-07T08:14:29.710Z</time>
      </trkpt>
      <trkpt lat="46.91684" lon="8.6769">
        <ele>2052</ele>
        <time>2021-08-07T08:14:30.711Z</time>
      </trkpt>
      <trkpt lat="46.91684" lon="8.67689">
        <ele>2052</ele>
        <time>2021-08-07T08:14:31.711Z</time>
      </trkpt>
      <trkpt lat="46.91685" lon="8.67688">
        <ele>2052</ele>
        <time>2021-08-07T08:14:32.711Z</time>
      </trkpt>
      <trkpt lat="46.91686" lon="8.67686">
        <ele>2052</ele>
        <time>2021-08-07T08:14:33.710Z</time>
      </trkpt>
      <trkpt lat="46.91686" lon="8.67685">
        <ele>2052</ele>
        <time>2021-08-07T08:14:34.711Z</time>
      </trkpt>
      <trkpt lat="46.91687" lon="8.67684">
        <ele>2052</ele>
        <time>2021-08-07T08:14:35.711Z</time>
      </trkpt>
      <trkpt lat="46.91687" lon="8.67683">
        <ele>2052</ele>
        <time>2021-08-07T08:14:36.710Z</time>
      </trkpt>
      <trkpt lat="46.91687" lon="8.67682">
        <ele>2052</ele>
        <time>2021-08-07T08:14:37.711Z</time>
      </trkpt>
      <trkpt lat="46.91687" lon="8.67681">
        <ele>2051</ele>
        <time>2021-08-07T08:14:38.710Z</time>
      </trkpt>
      <trkpt lat="46.91688" lon="8.6768">
        <ele>2051</ele>
        <time>2021-08-07T08:14:39.710Z</time>
      </trkpt>
      <trkpt lat="46.91688" lon="8.67679">
        <ele>2051</ele>
        <time>2021-08-07T08:14:40.711Z</time>
      </trkpt>
      <trkpt lat="46.91687" lon="8.67678">
        <ele>2050</ele>
        <time>2021-08-07T08:14:41.711Z</time>
      </trkpt>
      <trkpt lat="46.91687" lon="8.67677">
        <ele>2050</ele>
        <time>2021-08-07T08:14:42.710Z</time>
      </trkpt>
      <trkpt lat="46.91687" lon="8.67676">
        <ele>2050</ele>
        <time>2021-08-07T08:14:43.711Z</time>
      </trkpt>
      <trkpt lat="46.91688" lon="8.67674">
        <ele>2049</ele>
        <time>2021-08-07T08:14:44.710Z</time>
      </trkpt>
      <trkpt lat="46.91688" lon="8.67672">
        <ele>2049</ele>
        <time>2021-08-07T08:14:45.711Z</time>
      </trkpt>
      <trkpt lat="46.91688" lon="8.67671">
        <ele>2049</ele>
        <time>2021-08-07T08:14:46.711Z</time>
      </trkpt>
      <trkpt lat="46.91687" lon="8.67669">
        <ele>2049</ele>
        <time>2021-08-07T08:14:47.710Z</time>
      </trkpt>
      <trkpt lat="46.91688" lon="8.67668">
        <ele>2049</ele>
        <time>2021-08-07T08:14:48.711Z</time>
      </trkpt>
      <trkpt lat="46.91687" lon="8.67666">
        <ele>2049</ele>
        <time>2021-08-07T08:14:49.711Z</time>
      </trkpt>
      <trkpt lat="46.91687" lon="8.67665">
        <ele>2049</ele>
        <time>2021-08-07T08:14:50.711Z</time>
      </trkpt>
      <trkpt lat="46.91687" lon="8.67663">
        <ele>2048</ele>
        <time>2021-08-07T08:14:51.710Z</time>
      </trkpt>
      <trkpt lat="46.91687" lon="8.67661">
        <ele>2048</ele>
        <time>2021-08-07T08:14:52.710Z</time>
      </trkpt>
      <trkpt lat="46.91687" lon="8.6766">
        <ele>2048</ele>
        <time>2021-08-07T08:14:53.710Z</time>
      </trkpt>
      <trkpt lat="46.91688" lon="8.67659">
        <ele>2047</ele>
        <time>2021-08-07T08:14:54.710Z</time>
      </trkpt>
      <trkpt lat="46.91689" lon="8.67658">
        <ele>2047</ele>
        <time>2021-08-07T08:14:55.711Z</time>
      </trkpt>
      <trkpt lat="46.9169" lon="8.67657">
        <ele>2046</ele>
        <time>2021-08-07T08:14:56.711Z</time>
      </trkpt>
      <trkpt lat="46.91691" lon="8.67655">
        <ele>2045</ele>
        <time>2021-08-07T08:14:57.711Z</time>
      </trkpt>
      <trkpt lat="46.91691" lon="8.67654">
        <ele>2044</ele>
        <time>2021-08-07T08:14:58.710Z</time>
      </trkpt>
      <trkpt lat="46.91692" lon="8.67653">
        <ele>2044</ele>
        <time>2021-08-07T08:14:59.711Z</time>
      </trkpt>
      <trkpt lat="46.91693" lon="8.67651">
        <ele>2044</ele>
        <time>2021-08-07T08:15:00.711Z</time>
      </trkpt>
      <trkpt lat="46.91694" lon="8.67649">
        <ele>2043</ele>
        <time>2021-08-07T08:15:01.711Z</time>
      </trkpt>
      <trkpt lat="46.91694" lon="8.67648">
        <ele>2043</ele>
        <time>2021-08-07T08:15:02.711Z</time>
      </trkpt>
      <trkpt lat="46.91694" lon="8.67646">
        <ele>2042</ele>
        <time>2021-08-07T08:15:03.711Z</time>
      </trkpt>
      <trkpt lat="46.91695" lon="8.67645">
        <ele>2042</ele>
        <time>2021-08-07T08:15:04.710Z</time>
      </trkpt>
      <trkpt lat="46.91695" lon="8.67644">
        <ele>2042</ele>
        <time>2021-08-07T08:15:05.711Z</time>
      </trkpt>
      <trkpt lat="46.91696" lon="8.67642">
        <ele>2042</ele>
        <time>2021-08-07T08:15:06.711Z</time>
      </trkpt>
      <trkpt lat="46.91696" lon="8.67641">
        <ele>2042</ele>
        <time>2021-08-07T08:15:07.711Z</time>
      </trkpt>
      <trkpt lat="46.91697" lon="8.67639">
        <ele>2042</ele>
        <time>2021-08-07T08:15:08.711Z</time>
      </trkpt>
      <trkpt lat="46.91698" lon="8.67638">
        <ele>2041</ele>
        <time>2021-08-07T08:15:09.711Z</time>
      </trkpt>
      <trkpt lat="46.91698" lon="8.67637">
        <ele>2041</ele>
        <time>2021-08-07T08:15:10.711Z</time>
      </trkpt>
      <trkpt lat="46.91699" lon="8.67636">
        <ele>2041</ele>
        <time>2021-08-07T08:15:11.711Z</time>
      </trkpt>
      <trkpt lat="46.917" lon="8.67635">
        <ele>2041</ele>
        <time>2021-08-07T08:15:12.711Z</time>
      </trkpt>
      <trkpt lat="46.91701" lon="8.67634">
        <ele>2041</ele>
        <time>2021-08-07T08:15:13.710Z</time>
      </trkpt>
      <trkpt lat="46.91701" lon="8.67633">
        <ele>2041</ele>
        <time>2021-08-07T08:15:14.711Z</time>
      </trkpt>
      <trkpt lat="46.91701" lon="8.67632">
        <ele>2041</ele>
        <time>2021-08-07T08:15:15.711Z</time>
      </trkpt>
      <trkpt lat="46.91702" lon="8.67631">
        <ele>2041</ele>
        <time>2021-08-07T08:15:16.710Z</time>
      </trkpt>
      <trkpt lat="46.91702" lon="8.67629">
        <ele>2041</ele>
        <time>2021-08-07T08:15:17.711Z</time>
      </trkpt>
      <trkpt lat="46.91703" lon="8.67628">
        <ele>2041</ele>
        <time>2021-08-07T08:15:18.711Z</time>
      </trkpt>
      <trkpt lat="46.91703" lon="8.67626">
        <ele>2042</ele>
        <time>2021-08-07T08:15:19.710Z</time>
      </trkpt>
      <trkpt lat="46.91704" lon="8.67625">
        <ele>2043</ele>
        <time>2021-08-07T08:15:20.710Z</time>
      </trkpt>
      <trkpt lat="46.91704" lon="8.67622">
        <ele>2043</ele>
        <time>2021-08-07T08:15:21.711Z</time>
      </trkpt>
      <trkpt lat="46.91705" lon="8.67621">
        <ele>2043</ele>
        <time>2021-08-07T08:15:22.711Z</time>
      </trkpt>
      <trkpt lat="46.91706" lon="8.6762">
        <ele>2043</ele>
        <time>2021-08-07T08:15:23.711Z</time>
      </trkpt>
      <trkpt lat="46.91707" lon="8.67618">
        <ele>2042</ele>
        <time>2021-08-07T08:15:24.710Z</time>
      </trkpt>
      <trkpt lat="46.91707" lon="8.67617">
        <ele>2042</ele>
        <time>2021-08-07T08:15:25.711Z</time>
      </trkpt>
      <trkpt lat="46.91708" lon="8.67615">
        <ele>2042</ele>
        <time>2021-08-07T08:15:26.711Z</time>
      </trkpt>
      <trkpt lat="46.91708" lon="8.67614">
        <ele>2042</ele>
        <time>2021-08-07T08:15:27.711Z</time>
      </trkpt>
      <trkpt lat="46.91709" lon="8.67613">
        <ele>2041</ele>
        <time>2021-08-07T08:15:28.710Z</time>
      </trkpt>
      <trkpt lat="46.91709" lon="8.67611">
        <ele>2041</ele>
        <time>2021-08-07T08:15:29.710Z</time>
      </trkpt>
      <trkpt lat="46.9171" lon="8.6761">
        <ele>2041</ele>
        <time>2021-08-07T08:15:30.710Z</time>
      </trkpt>
      <trkpt lat="46.9171" lon="8.67608">
        <ele>2040</ele>
        <time>2021-08-07T08:15:31.710Z</time>
      </trkpt>
      <trkpt lat="46.9171" lon="8.67607">
        <ele>2040</ele>
        <time>2021-08-07T08:15:32.711Z</time>
      </trkpt>
      <trkpt lat="46.9171" lon="8.67606">
        <ele>2039</ele>
        <time>2021-08-07T08:15:33.711Z</time>
      </trkpt>
      <trkpt lat="46.91711" lon="8.67604">
        <ele>2039</ele>
        <time>2021-08-07T08:15:34.711Z</time>
      </trkpt>
      <trkpt lat="46.91711" lon="8.67603">
        <ele>2039</ele>
        <time>2021-08-07T08:15:35.710Z</time>
      </trkpt>
      <trkpt lat="46.91711" lon="8.67603">
        <ele>2040</ele>
        <time>2021-08-07T08:15:36.710Z</time>
      </trkpt>
      <trkpt lat="46.91711" lon="8.67602">
        <ele>2041</ele>
        <time>2021-08-07T08:15:37.711Z</time>
      </trkpt>
      <trkpt lat="46.91711" lon="8.67601">
        <ele>2041</ele>
        <time>2021-08-07T08:15:38.711Z</time>
      </trkpt>
      <trkpt lat="46.91712" lon="8.676">
        <ele>2041</ele>
        <time>2021-08-07T08:15:39.710Z</time>
      </trkpt>
      <trkpt lat="46.91712" lon="8.67599">
        <ele>2041</ele>
        <time>2021-08-07T08:15:40.711Z</time>
      </trkpt>
      <trkpt lat="46.91713" lon="8.67598">
        <ele>2041</ele>
        <time>2021-08-07T08:15:41.710Z</time>
      </trkpt>
      <trkpt lat="46.91713" lon="8.67597">
        <ele>2041</ele>
        <time>2021-08-07T08:15:42.711Z</time>
      </trkpt>
      <trkpt lat="46.91713" lon="8.67597">
        <ele>2042</ele>
        <time>2021-08-07T08:15:43.711Z</time>
      </trkpt>
      <trkpt lat="46.91714" lon="8.67596">
        <ele>2042</ele>
        <time>2021-08-07T08:15:44.710Z</time>
      </trkpt>
      <trkpt lat="46.91715" lon="8.67595">
        <ele>2043</ele>
        <time>2021-08-07T08:15:45.710Z</time>
      </trkpt>
      <trkpt lat="46.91715" lon="8.67594">
        <ele>2043</ele>
        <time>2021-08-07T08:15:46.711Z</time>
      </trkpt>
      <trkpt lat="46.91716" lon="8.67593">
        <ele>2044</ele>
        <time>2021-08-07T08:15:47.711Z</time>
      </trkpt>
      <trkpt lat="46.91716" lon="8.67592">
        <ele>2044</ele>
        <time>2021-08-07T08:15:48.710Z</time>
      </trkpt>
      <trkpt lat="46.91716" lon="8.67591">
        <ele>2044</ele>
        <time>2021-08-07T08:15:49.710Z</time>
      </trkpt>
      <trkpt lat="46.91716" lon="8.6759">
        <ele>2044</ele>
        <time>2021-08-07T08:15:50.711Z</time>
      </trkpt>
      <trkpt lat="46.91716" lon="8.6759">
        <ele>2045</ele>
        <time>2021-08-07T08:15:51.710Z</time>
      </trkpt>
      <trkpt lat="46.91716" lon="8.67589">
        <ele>2045</ele>
        <time>2021-08-07T08:15:52.710Z</time>
      </trkpt>
      <trkpt lat="46.91716" lon="8.67588">
        <ele>2044</ele>
        <time>2021-08-07T08:15:53.710Z</time>
      </trkpt>
      <trkpt lat="46.91716" lon="8.67586">
        <ele>2044</ele>
        <time>2021-08-07T08:15:54.711Z</time>
      </trkpt>
      <trkpt lat="46.91715" lon="8.67585">
        <ele>2044</ele>
        <time>2021-08-07T08:15:55.710Z</time>
      </trkpt>
      <trkpt lat="46.91715" lon="8.67584">
        <ele>2043</ele>
        <time>2021-08-07T08:15:56.710Z</time>
      </trkpt>
      <trkpt lat="46.91715" lon="8.67582">
        <ele>2043</ele>
        <time>2021-08-07T08:15:57.710Z</time>
      </trkpt>
      <trkpt lat="46.91714" lon="8.67581">
        <ele>2043</ele>
        <time>2021-08-07T08:15:58.710Z</time>
      </trkpt>
      <trkpt lat="46.91714" lon="8.67579">
        <ele>2042</ele>
        <time>2021-08-07T08:15:59.710Z</time>
      </trkpt>
      <trkpt lat="46.91713" lon="8.67577">
        <ele>2042</ele>
        <time>2021-08-07T08:16:00.710Z</time>
      </trkpt>
      <trkpt lat="46.91713" lon="8.67576">
        <ele>2041</ele>
        <time>2021-08-07T08:16:01.711Z</time>
      </trkpt>
      <trkpt lat="46.91712" lon="8.67574">
        <ele>2041</ele>
        <time>2021-08-07T08:16:02.710Z</time>
      </trkpt>
      <trkpt lat="46.91712" lon="8.67572">
        <ele>2041</ele>
        <time>2021-08-07T08:16:03.710Z</time>
      </trkpt>
      <trkpt lat="46.91712" lon="8.67571">
        <ele>2040</ele>
        <time>2021-08-07T08:16:04.711Z</time>
      </trkpt>
      <trkpt lat="46.91713" lon="8.6757">
        <ele>2040</ele>
        <time>2021-08-07T08:16:05.710Z</time>
      </trkpt>
      <trkpt lat="46.91713" lon="8.67569">
        <ele>2040</ele>
        <time>2021-08-07T08:16:06.710Z</time>
      </trkpt>
      <trkpt lat="46.91714" lon="8.67567">
        <ele>2040</ele>
        <time>2021-08-07T08:16:07.711Z</time>
      </trkpt>
      <trkpt lat="46.91714" lon="8.67566">
        <ele>2040</ele>
        <time>2021-08-07T08:16:08.710Z</time>
      </trkpt>
      <trkpt lat="46.91714" lon="8.67564">
        <ele>2041</ele>
        <time>2021-08-07T08:16:09.710Z</time>
      </trkpt>
      <trkpt lat="46.91714" lon="8.67563">
        <ele>2041</ele>
        <time>2021-08-07T08:16:10.710Z</time>
      </trkpt>
      <trkpt lat="46.91714" lon="8.67562">
        <ele>2042</ele>
        <time>2021-08-07T08:16:11.711Z</time>
      </trkpt>
      <trkpt lat="46.91714" lon="8.6756">
        <ele>2042</ele>
        <time>2021-08-07T08:16:12.710Z</time>
      </trkpt>
      <trkpt lat="46.91714" lon="8.67559">
        <ele>2042</ele>
        <time>2021-08-07T08:16:13.710Z</time>
      </trkpt>
      <trkpt lat="46.91714" lon="8.67557">
        <ele>2043</ele>
        <time>2021-08-07T08:16:14.710Z</time>
      </trkpt>
      <trkpt lat="46.91715" lon="8.67556">
        <ele>2043</ele>
        <time>2021-08-07T08:16:15.710Z</time>
      </trkpt>
      <trkpt lat="46.91715" lon="8.67554">
        <ele>2043</ele>
        <time>2021-08-07T08:16:16.710Z</time>
      </trkpt>
      <trkpt lat="46.91716" lon="8.67553">
        <ele>2043</ele>
        <time>2021-08-07T08:16:17.710Z</time>
      </trkpt>
      <trkpt lat="46.91717" lon="8.67553">
        <ele>2043</ele>
        <time>2021-08-07T08:16:18.711Z</time>
      </trkpt>
      <trkpt lat="46.91718" lon="8.67552">
        <ele>2043</ele>
        <time>2021-08-07T08:16:19.710Z</time>
      </trkpt>
      <trkpt lat="46.91719" lon="8.67551">
        <ele>2043</ele>
        <time>2021-08-07T08:16:20.711Z</time>
      </trkpt>
      <trkpt lat="46.9172" lon="8.67551">
        <ele>2043</ele>
        <time>2021-08-07T08:16:21.710Z</time>
      </trkpt>
      <trkpt lat="46.91721" lon="8.6755">
        <ele>2044</ele>
        <time>2021-08-07T08:16:22.711Z</time>
      </trkpt>
      <trkpt lat="46.91722" lon="8.67549">
        <ele>2044</ele>
        <time>2021-08-07T08:16:23.711Z</time>
      </trkpt>
      <trkpt lat="46.91723" lon="8.67549">
        <ele>2044</ele>
        <time>2021-08-07T08:16:24.710Z</time>
      </trkpt>
      <trkpt lat="46.91723" lon="8.67548">
        <ele>2044</ele>
        <time>2021-08-07T08:16:25.711Z</time>
      </trkpt>
      <trkpt lat="46.91724" lon="8.67547">
        <ele>2044</ele>
        <time>2021-08-07T08:16:26.711Z</time>
      </trkpt>
      <trkpt lat="46.91724" lon="8.67547">
        <ele>2044</ele>
        <time>2021-08-07T08:16:27.711Z</time>
      </trkpt>
      <trkpt lat="46.91725" lon="8.67547">
        <ele>2044</ele>
        <time>2021-08-07T08:16:28.711Z</time>
      </trkpt>
      <trkpt lat="46.91725" lon="8.67546">
        <ele>2044</ele>
        <time>2021-08-07T08:16:29.711Z</time>
      </trkpt>
      <trkpt lat="46.91726" lon="8.67545">
        <ele>2043</ele>
        <time>2021-08-07T08:16:30.711Z</time>
      </trkpt>
      <trkpt lat="46.91726" lon="8.67545">
        <ele>2043</ele>
        <time>2021-08-07T08:16:31.710Z</time>
      </trkpt>
      <trkpt lat="46.91727" lon="8.67544">
        <ele>2043</ele>
        <time>2021-08-07T08:16:32.711Z</time>
      </trkpt>
      <trkpt lat="46.91727" lon="8.67544">
        <ele>2042</ele>
        <time>2021-08-07T08:16:33.711Z</time>
      </trkpt>
      <trkpt lat="46.91727" lon="8.67543">
        <ele>2042</ele>
        <time>2021-08-07T08:16:34.710Z</time>
      </trkpt>
      <trkpt lat="46.91727" lon="8.67542">
        <ele>2043</ele>
        <time>2021-08-07T08:16:35.711Z</time>
      </trkpt>
      <trkpt lat="46.91726" lon="8.67542">
        <ele>2043</ele>
        <time>2021-08-07T08:16:36.711Z</time>
      </trkpt>
      <trkpt lat="46.91728" lon="8.6754">
        <ele>2042</ele>
        <time>2021-08-07T08:16:37.711Z</time>
      </trkpt>
      <trkpt lat="46.91728" lon="8.67539">
        <ele>2041</ele>
        <time>2021-08-07T08:16:38.710Z</time>
      </trkpt>
      <trkpt lat="46.91728" lon="8.67538">
        <ele>2041</ele>
        <time>2021-08-07T08:16:39.710Z</time>
      </trkpt>
      <trkpt lat="46.91728" lon="8.67537">
        <ele>2041</ele>
        <time>2021-08-07T08:16:40.710Z</time>
      </trkpt>
      <trkpt lat="46.91728" lon="8.67536">
        <ele>2041</ele>
        <time>2021-08-07T08:16:41.711Z</time>
      </trkpt>
      <trkpt lat="46.91728" lon="8.67535">
        <ele>2040</ele>
        <time>2021-08-07T08:16:42.710Z</time>
      </trkpt>
      <trkpt lat="46.91728" lon="8.67534">
        <ele>2040</ele>
        <time>2021-08-07T08:16:43.711Z</time>
      </trkpt>
      <trkpt lat="46.91728" lon="8.67534">
        <ele>2040</ele>
        <time>2021-08-07T08:16:44.710Z</time>
      </trkpt>
      <trkpt lat="46.91729" lon="8.67534">
        <ele>2040</ele>
        <time>2021-08-07T08:16:45.711Z</time>
      </trkpt>
      <trkpt lat="46.91729" lon="8.67533">
        <ele>2041</ele>
        <time>2021-08-07T08:16:46.711Z</time>
      </trkpt>
      <trkpt lat="46.9173" lon="8.67532">
        <ele>2041</ele>
        <time>2021-08-07T08:16:47.711Z</time>
      </trkpt>
      <trkpt lat="46.9173" lon="8.67532">
        <ele>2041</ele>
        <time>2021-08-07T08:16:48.710Z</time>
      </trkpt>
      <trkpt lat="46.91731" lon="8.67532">
        <ele>2040</ele>
        <time>2021-08-07T08:16:49.711Z</time>
      </trkpt>
      <trkpt lat="46.91731" lon="8.67532">
        <ele>2040</ele>
        <time>2021-08-07T08:16:50.711Z</time>
      </trkpt>
      <trkpt lat="46.91732" lon="8.67532">
        <ele>2040</ele>
        <time>2021-08-07T08:16:51.710Z</time>
      </trkpt>
      <trkpt lat="46.91732" lon="8.67533">
        <ele>2040</ele>
        <time>2021-08-07T08:16:52.711Z</time>
      </trkpt>
      <trkpt lat="46.91733" lon="8.67533">
        <ele>2040</ele>
        <time>2021-08-07T08:16:53.711Z</time>
      </trkpt>
      <trkpt lat="46.91733" lon="8.67534">
        <ele>2039</ele>
        <time>2021-08-07T08:16:54.711Z</time>
      </trkpt>
      <trkpt lat="46.91734" lon="8.67534">
        <ele>2039</ele>
        <time>2021-08-07T08:16:55.710Z</time>
      </trkpt>
      <trkpt lat="46.91734" lon="8.67534">
        <ele>2038</ele>
        <time>2021-08-07T08:16:56.710Z</time>
      </trkpt>
      <trkpt lat="46.91735" lon="8.67534">
        <ele>2038</ele>
        <time>2021-08-07T08:16:57.710Z</time>
      </trkpt>
      <trkpt lat="46.91734" lon="8.67534">
        <ele>2037</ele>
        <time>2021-08-07T08:16:58.711Z</time>
      </trkpt>
      <trkpt lat="46.91735" lon="8.67534">
        <ele>2037</ele>
        <time>2021-08-07T08:16:59.711Z</time>
      </trkpt>
      <trkpt lat="46.91735" lon="8.67534">
        <ele>2037</ele>
        <time>2021-08-07T08:17:00.711Z</time>
      </trkpt>
      <trkpt lat="46.91735" lon="8.67534">
        <ele>2036</ele>
        <time>2021-08-07T08:17:01.711Z</time>
      </trkpt>
      <trkpt lat="46.91735" lon="8.67534">
        <ele>2036</ele>
        <time>2021-08-07T08:17:02.711Z</time>
      </trkpt>
      <trkpt lat="46.91735" lon="8.67535">
        <ele>2037</ele>
        <time>2021-08-07T08:17:03.712Z</time>
      </trkpt>
      <trkpt lat="46.91735" lon="8.67535">
        <ele>2038</ele>
        <time>2021-08-07T08:17:04.712Z</time>
      </trkpt>
      <trkpt lat="46.91734" lon="8.67535">
        <ele>2036</ele>
        <time>2021-08-07T08:17:05.713Z</time>
      </trkpt>
      <trkpt lat="46.91734" lon="8.67535">
        <ele>2036</ele>
        <time>2021-08-07T08:17:06.712Z</time>
      </trkpt>
      <trkpt lat="46.91733" lon="8.67532">
        <ele>2040</ele>
        <time>2021-08-07T08:17:07.713Z</time>
      </trkpt>
      <trkpt lat="46.91733" lon="8.67531">
        <ele>2040</ele>
        <time>2021-08-07T08:17:08.713Z</time>
      </trkpt>
      <trkpt lat="46.91732" lon="8.67531">
        <ele>2040</ele>
        <time>2021-08-07T08:17:09.712Z</time>
      </trkpt>
      <trkpt lat="46.91731" lon="8.67531">
        <ele>2040</ele>
        <time>2021-08-07T08:17:10.712Z</time>
      </trkpt>
      <trkpt lat="46.9173" lon="8.6753">
        <ele>2040</ele>
        <time>2021-08-07T08:17:11.712Z</time>
      </trkpt>
      <trkpt lat="46.91731" lon="8.67531">
        <ele>2040</ele>
        <time>2021-08-07T08:17:12.712Z</time>
      </trkpt>
      <trkpt lat="46.91731" lon="8.67532">
        <ele>2040</ele>
        <time>2021-08-07T08:17:13.712Z</time>
      </trkpt>
      <trkpt lat="46.91731" lon="8.67532">
        <ele>2039</ele>
        <time>2021-08-07T08:17:14.714Z</time>
      </trkpt>
      <trkpt lat="46.91731" lon="8.67531">
        <ele>2039</ele>
        <time>2021-08-07T08:17:15.713Z</time>
      </trkpt>
      <trkpt lat="46.91732" lon="8.67531">
        <ele>2039</ele>
        <time>2021-08-07T08:17:16.714Z</time>
      </trkpt>
      <trkpt lat="46.91732" lon="8.67531">
        <ele>2039</ele>
        <time>2021-08-07T08:17:17.714Z</time>
      </trkpt>
      <trkpt lat="46.91732" lon="8.67531">
        <ele>2039</ele>
        <time>2021-08-07T08:17:18.713Z</time>
      </trkpt>
      <trkpt lat="46.91732" lon="8.67531">
        <ele>2038</ele>
        <time>2021-08-07T08:17:19.714Z</time>
      </trkpt>
      <trkpt lat="46.91733" lon="8.67535">
        <ele>2036</ele>
        <time>2021-08-07T08:17:20.714Z</time>
      </trkpt>
      <trkpt lat="46.91733" lon="8.67535">
        <ele>2035</ele>
        <time>2021-08-07T08:17:21.715Z</time>
      </trkpt>
      <trkpt lat="46.91733" lon="8.67535">
        <ele>2035</ele>
        <time>2021-08-07T08:17:22.591Z</time>
      </trkpt>
      <trkpt lat="46.91734" lon="8.67537">
        <ele>2035</ele>
        <time>2021-08-07T08:17:23.591Z</time>
      </trkpt>
      <trkpt lat="46.91734" lon="8.67537">
        <ele>2034</ele>
        <time>2021-08-07T08:17:24.591Z</time>
      </trkpt>
      <trkpt lat="46.91734" lon="8.67536">
        <ele>2036</ele>
        <time>2021-08-07T08:17:25.592Z</time>
      </trkpt>
      <trkpt lat="46.91734" lon="8.67536">
        <ele>2036</ele>
        <time>2021-08-07T08:17:26.591Z</time>
      </trkpt>
      <trkpt lat="46.91733" lon="8.67534">
        <ele>2036</ele>
        <time>2021-08-07T08:17:27.592Z</time>
      </trkpt>
      <trkpt lat="46.91733" lon="8.67534">
        <ele>2036</ele>
        <time>2021-08-07T08:17:28.592Z</time>
      </trkpt>
      <trkpt lat="46.91732" lon="8.67534">
        <ele>2036</ele>
        <time>2021-08-07T08:17:29.591Z</time>
      </trkpt>
      <trkpt lat="46.91734" lon="8.67534">
        <ele>2033</ele>
        <time>2021-08-07T08:17:30.593Z</time>
      </trkpt>
      <trkpt lat="46.91734" lon="8.67534">
        <ele>2033</ele>
        <time>2021-08-07T08:17:31.593Z</time>
      </trkpt>
      <trkpt lat="46.91733" lon="8.67534">
        <ele>2033</ele>
        <time>2021-08-07T08:17:32.593Z</time>
      </trkpt>
      <trkpt lat="46.91734" lon="8.67535">
        <ele>2035</ele>
        <time>2021-08-07T08:17:33.594Z</time>
      </trkpt>
      <trkpt lat="46.91734" lon="8.67535">
        <ele>2035</ele>
        <time>2021-08-07T08:17:34.593Z</time>
      </trkpt>
      <trkpt lat="46.91734" lon="8.67535">
        <ele>2034</ele>
        <time>2021-08-07T08:17:35.593Z</time>
      </trkpt>
      <trkpt lat="46.91735" lon="8.67535">
        <ele>2036</ele>
        <time>2021-08-07T08:17:36.593Z</time>
      </trkpt>
      <trkpt lat="46.91735" lon="8.67535">
        <ele>2036</ele>
        <time>2021-08-07T08:17:37.593Z</time>
      </trkpt>
      <trkpt lat="46.91736" lon="8.67535">
        <ele>2038</ele>
        <time>2021-08-07T08:17:38.594Z</time>
      </trkpt>
      <trkpt lat="46.91736" lon="8.67535">
        <ele>2038</ele>
        <time>2021-08-07T08:17:39.594Z</time>
      </trkpt>
      <trkpt lat="46.91736" lon="8.67534">
        <ele>2038</ele>
        <time>2021-08-07T08:17:40.595Z</time>
      </trkpt>
      <trkpt lat="46.91736" lon="8.67534">
        <ele>2038</ele>
        <time>2021-08-07T08:17:41.594Z</time>
      </trkpt>
      <trkpt lat="46.91734" lon="8.67534">
        <ele>2037</ele>
        <time>2021-08-07T08:17:42.595Z</time>
      </trkpt>
      <trkpt lat="46.91738" lon="8.67532">
        <ele>2036</ele>
        <time>2021-08-07T08:17:43.597Z</time>
      </trkpt>
      <trkpt lat="46.91738" lon="8.6753">
        <ele>2035</ele>
        <time>2021-08-07T08:17:44.598Z</time>
      </trkpt>
      <trkpt lat="46.91738" lon="8.6753">
        <ele>2034</ele>
        <time>2021-08-07T08:17:45.598Z</time>
      </trkpt>
      <trkpt lat="46.91738" lon="8.67529">
        <ele>2034</ele>
        <time>2021-08-07T08:17:46.598Z</time>
      </trkpt>
      <trkpt lat="46.91737" lon="8.67529">
        <ele>2038</ele>
        <time>2021-08-07T08:17:47.598Z</time>
      </trkpt>
      <trkpt lat="46.91737" lon="8.67529">
        <ele>2038</ele>
        <time>2021-08-07T08:17:48.597Z</time>
      </trkpt>
      <trkpt lat="46.91737" lon="8.6753">
        <ele>2038</ele>
        <time>2021-08-07T08:17:49.598Z</time>
      </trkpt>
      <trkpt lat="46.91737" lon="8.6753">
        <ele>2038</ele>
        <time>2021-08-07T08:17:50.598Z</time>
      </trkpt>
      <trkpt lat="46.91737" lon="8.67531">
        <ele>2038</ele>
        <time>2021-08-07T08:17:51.598Z</time>
      </trkpt>
      <trkpt lat="46.91737" lon="8.67531">
        <ele>2037</ele>
        <time>2021-08-07T08:17:52.598Z</time>
      </trkpt>
      <trkpt lat="46.91737" lon="8.67531">
        <ele>2036</ele>
        <time>2021-08-07T08:17:53.598Z</time>
      </trkpt>
      <trkpt lat="46.91737" lon="8.67531">
        <ele>2036</ele>
        <time>2021-08-07T08:17:54.598Z</time>
      </trkpt>
      <trkpt lat="46.91735" lon="8.6753">
        <ele>2032</ele>
        <time>2021-08-07T08:17:55.599Z</time>
      </trkpt>
      <trkpt lat="46.91736" lon="8.6753">
        <ele>2032</ele>
        <time>2021-08-07T08:17:56.599Z</time>
      </trkpt>
      <trkpt lat="46.91736" lon="8.6753">
        <ele>2033</ele>
        <time>2021-08-07T08:17:57.598Z</time>
      </trkpt>
      <trkpt lat="46.91735" lon="8.6753">
        <ele>2034</ele>
        <time>2021-08-07T08:17:58.600Z</time>
      </trkpt>
      <trkpt lat="46.91735" lon="8.6753">
        <ele>2035</ele>
        <time>2021-08-07T08:17:59.600Z</time>
      </trkpt>
      <trkpt lat="46.91735" lon="8.6753">
        <ele>2035</ele>
        <time>2021-08-07T08:18:00.600Z</time>
      </trkpt>
      <trkpt lat="46.91735" lon="8.6753">
        <ele>2035</ele>
        <time>2021-08-07T08:18:01.600Z</time>
      </trkpt>
      <trkpt lat="46.91734" lon="8.6753">
        <ele>2036</ele>
        <time>2021-08-07T08:18:02.599Z</time>
      </trkpt>
      <trkpt lat="46.91734" lon="8.6753">
        <ele>2036</ele>
        <time>2021-08-07T08:18:03.600Z</time>
      </trkpt>
      <trkpt lat="46.91734" lon="8.6753">
        <ele>2036</ele>
        <time>2021-08-07T08:18:04.600Z</time>
      </trkpt>
      <trkpt lat="46.91734" lon="8.6753">
        <ele>2037</ele>
        <time>2021-08-07T08:18:05.600Z</time>
      </trkpt>
      <trkpt lat="46.91734" lon="8.6753">
        <ele>2037</ele>
        <time>2021-08-07T08:18:06.599Z</time>
      </trkpt>
      <trkpt lat="46.91734" lon="8.6753">
        <ele>2037</ele>
        <time>2021-08-07T08:18:07.599Z</time>
      </trkpt>
      <trkpt lat="46.91734" lon="8.67529">
        <ele>2037</ele>
        <time>2021-08-07T08:18:08.600Z</time>
      </trkpt>
      <trkpt lat="46.91733" lon="8.67527">
        <ele>2033</ele>
        <time>2021-08-07T08:18:09.601Z</time>
      </trkpt>
      <trkpt lat="46.91733" lon="8.67527">
        <ele>2033</ele>
        <time>2021-08-07T08:18:10.601Z</time>
      </trkpt>
      <trkpt lat="46.91734" lon="8.67527">
        <ele>2032</ele>
        <time>2021-08-07T08:18:11.601Z</time>
      </trkpt>
      <trkpt lat="46.91734" lon="8.67527">
        <ele>2032</ele>
        <time>2021-08-07T08:18:12.601Z</time>
      </trkpt>
      <trkpt lat="46.91734" lon="8.67527">
        <ele>2032</ele>
        <time>2021-08-07T08:18:13.601Z</time>
      </trkpt>
      <trkpt lat="46.91735" lon="8.67526">
        <ele>2031</ele>
        <time>2021-08-07T08:18:14.601Z</time>
      </trkpt>
      <trkpt lat="46.91735" lon="8.67525">
        <ele>2031</ele>
        <time>2021-08-07T08:18:15.601Z</time>
      </trkpt>
      <trkpt lat="46.91735" lon="8.67525">
        <ele>2031</ele>
        <time>2021-08-07T08:18:16.601Z</time>
      </trkpt>
      <trkpt lat="46.91734" lon="8.67524">
        <ele>2031</ele>
        <time>2021-08-07T08:18:17.600Z</time>
      </trkpt>
      <trkpt lat="46.91734" lon="8.67523">
        <ele>2031</ele>
        <time>2021-08-07T08:18:18.600Z</time>
      </trkpt>
      <trkpt lat="46.91735" lon="8.6752">
        <ele>2031</ele>
        <time>2021-08-07T08:18:19.601Z</time>
      </trkpt>
      <trkpt lat="46.91735" lon="8.67519">
        <ele>2031</ele>
        <time>2021-08-07T08:18:20.601Z</time>
      </trkpt>
      <trkpt lat="46.91735" lon="8.67519">
        <ele>2031</ele>
        <time>2021-08-07T08:18:21.601Z</time>
      </trkpt>
      <trkpt lat="46.91734" lon="8.67518">
        <ele>2032</ele>
        <time>2021-08-07T08:18:22.601Z</time>
      </trkpt>
      <trkpt lat="46.91735" lon="8.67517">
        <ele>2032</ele>
        <time>2021-08-07T08:18:23.601Z</time>
      </trkpt>
      <trkpt lat="46.91735" lon="8.67516">
        <ele>2032</ele>
        <time>2021-08-07T08:18:24.601Z</time>
      </trkpt>
      <trkpt lat="46.91735" lon="8.67515">
        <ele>2032</ele>
        <time>2021-08-07T08:18:25.601Z</time>
      </trkpt>
      <trkpt lat="46.91735" lon="8.67514">
        <ele>2032</ele>
        <time>2021-08-07T08:18:26.600Z</time>
      </trkpt>
      <trkpt lat="46.91735" lon="8.67514">
        <ele>2031</ele>
        <time>2021-08-07T08:18:27.601Z</time>
      </trkpt>
      <trkpt lat="46.91736" lon="8.67513">
        <ele>2031</ele>
        <time>2021-08-07T08:18:28.601Z</time>
      </trkpt>
      <trkpt lat="46.91736" lon="8.67512">
        <ele>2030</ele>
        <time>2021-08-07T08:18:29.601Z</time>
      </trkpt>
      <trkpt lat="46.91736" lon="8.67511">
        <ele>2030</ele>
        <time>2021-08-07T08:18:30.601Z</time>
      </trkpt>
      <trkpt lat="46.91735" lon="8.67511">
        <ele>2029</ele>
        <time>2021-08-07T08:18:31.601Z</time>
      </trkpt>
      <trkpt lat="46.91734" lon="8.67511">
        <ele>2029</ele>
        <time>2021-08-07T08:18:32.601Z</time>
      </trkpt>
      <trkpt lat="46.91734" lon="8.6751">
        <ele>2028</ele>
        <time>2021-08-07T08:18:33.600Z</time>
      </trkpt>
      <trkpt lat="46.91731" lon="8.6751">
        <ele>2024</ele>
        <time>2021-08-07T08:18:34.601Z</time>
      </trkpt>
      <trkpt lat="46.91731" lon="8.67511">
        <ele>2024</ele>
        <time>2021-08-07T08:18:35.601Z</time>
      </trkpt>
      <trkpt lat="46.91731" lon="8.6751">
        <ele>2024</ele>
        <time>2021-08-07T08:18:36.600Z</time>
      </trkpt>
      <trkpt lat="46.9173" lon="8.67511">
        <ele>2024</ele>
        <time>2021-08-07T08:18:37.600Z</time>
      </trkpt>
      <trkpt lat="46.9173" lon="8.67511">
        <ele>2024</ele>
        <time>2021-08-07T08:18:38.600Z</time>
      </trkpt>
      <trkpt lat="46.91731" lon="8.67509">
        <ele>2023</ele>
        <time>2021-08-07T08:18:39.601Z</time>
      </trkpt>
      <trkpt lat="46.91732" lon="8.67508">
        <ele>2023</ele>
        <time>2021-08-07T08:18:40.601Z</time>
      </trkpt>
      <trkpt lat="46.91733" lon="8.67507">
        <ele>2023</ele>
        <time>2021-08-07T08:18:41.601Z</time>
      </trkpt>
      <trkpt lat="46.91733" lon="8.67506">
        <ele>2022</ele>
        <time>2021-08-07T08:18:42.600Z</time>
      </trkpt>
      <trkpt lat="46.91734" lon="8.67505">
        <ele>2022</ele>
        <time>2021-08-07T08:18:43.600Z</time>
      </trkpt>
      <trkpt lat="46.91734" lon="8.67505">
        <ele>2021</ele>
        <time>2021-08-07T08:18:44.601Z</time>
      </trkpt>
      <trkpt lat="46.91734" lon="8.67506">
        <ele>2021</ele>
        <time>2021-08-07T08:18:45.601Z</time>
      </trkpt>
      <trkpt lat="46.91734" lon="8.67506">
        <ele>2021</ele>
        <time>2021-08-07T08:18:46.601Z</time>
      </trkpt>
      <trkpt lat="46.91734" lon="8.67506">
        <ele>2020</ele>
        <time>2021-08-07T08:18:47.601Z</time>
      </trkpt>
      <trkpt lat="46.91734" lon="8.67507">
        <ele>2020</ele>
        <time>2021-08-07T08:18:48.600Z</time>
      </trkpt>
      <trkpt lat="46.91734" lon="8.67507">
        <ele>2019</ele>
        <time>2021-08-07T08:18:49.601Z</time>
      </trkpt>
      <trkpt lat="46.91734" lon="8.67507">
        <ele>2019</ele>
        <time>2021-08-07T08:18:50.601Z</time>
      </trkpt>
      <trkpt lat="46.91734" lon="8.67507">
        <ele>2019</ele>
        <time>2021-08-07T08:18:51.601Z</time>
      </trkpt>
      <trkpt lat="46.91734" lon="8.67507">
        <ele>2020</ele>
        <time>2021-08-07T08:18:52.601Z</time>
      </trkpt>
      <trkpt lat="46.91734" lon="8.67507">
        <ele>2021</ele>
        <time>2021-08-07T08:18:53.600Z</time>
      </trkpt>
      <trkpt lat="46.91735" lon="8.67507">
        <ele>2022</ele>
        <time>2021-08-07T08:18:54.601Z</time>
      </trkpt>
      <trkpt lat="46.91735" lon="8.67507">
        <ele>2023</ele>
        <time>2021-08-07T08:18:55.600Z</time>
      </trkpt>
      <trkpt lat="46.91735" lon="8.67508">
        <ele>2024</ele>
        <time>2021-08-07T08:18:56.601Z</time>
      </trkpt>
      <trkpt lat="46.91735" lon="8.67508">
        <ele>2025</ele>
        <time>2021-08-07T08:18:57.600Z</time>
      </trkpt>
      <trkpt lat="46.91735" lon="8.67507">
        <ele>2026</ele>
        <time>2021-08-07T08:18:58.601Z</time>
      </trkpt>
      <trkpt lat="46.91736" lon="8.67507">
        <ele>2026</ele>
        <time>2021-08-07T08:18:59.601Z</time>
      </trkpt>
      <trkpt lat="46.91736" lon="8.67507">
        <ele>2027</ele>
        <time>2021-08-07T08:19:00.601Z</time>
      </trkpt>
      <trkpt lat="46.91736" lon="8.67506">
        <ele>2027</ele>
        <time>2021-08-07T08:19:01.601Z</time>
      </trkpt>
      <trkpt lat="46.91735" lon="8.67504">
        <ele>2028</ele>
        <time>2021-08-07T08:19:02.600Z</time>
      </trkpt>
      <trkpt lat="46.91734" lon="8.67503">
        <ele>2028</ele>
        <time>2021-08-07T08:19:03.600Z</time>
      </trkpt>
      <trkpt lat="46.91733" lon="8.67501">
        <ele>2028</ele>
        <time>2021-08-07T08:19:04.600Z</time>
      </trkpt>
      <trkpt lat="46.91732" lon="8.675">
        <ele>2029</ele>
        <time>2021-08-07T08:19:05.601Z</time>
      </trkpt>
      <trkpt lat="46.91732" lon="8.67499">
        <ele>2029</ele>
        <time>2021-08-07T08:19:06.601Z</time>
      </trkpt>
      <trkpt lat="46.91732" lon="8.67498">
        <ele>2029</ele>
        <time>2021-08-07T08:19:07.600Z</time>
      </trkpt>
      <trkpt lat="46.91732" lon="8.67497">
        <ele>2030</ele>
        <time>2021-08-07T08:19:08.601Z</time>
      </trkpt>
      <trkpt lat="46.91732" lon="8.67496">
        <ele>2030</ele>
        <time>2021-08-07T08:19:09.601Z</time>
      </trkpt>
      <trkpt lat="46.91731" lon="8.67495">
        <ele>2030</ele>
        <time>2021-08-07T08:19:10.600Z</time>
      </trkpt>
      <trkpt lat="46.91731" lon="8.67494">
        <ele>2030</ele>
        <time>2021-08-07T08:19:11.601Z</time>
      </trkpt>
      <trkpt lat="46.91731" lon="8.67493">
        <ele>2029</ele>
        <time>2021-08-07T08:19:12.600Z</time>
      </trkpt>
      <trkpt lat="46.91731" lon="8.67492">
        <ele>2029</ele>
        <time>2021-08-07T08:19:13.600Z</time>
      </trkpt>
      <trkpt lat="46.91731" lon="8.67491">
        <ele>2029</ele>
        <time>2021-08-07T08:19:14.601Z</time>
      </trkpt>
      <trkpt lat="46.91731" lon="8.67489">
        <ele>2029</ele>
        <time>2021-08-07T08:19:15.601Z</time>
      </trkpt>
      <trkpt lat="46.91731" lon="8.67488">
        <ele>2029</ele>
        <time>2021-08-07T08:19:16.600Z</time>
      </trkpt>
      <trkpt lat="46.91731" lon="8.67487">
        <ele>2028</ele>
        <time>2021-08-07T08:19:17.600Z</time>
      </trkpt>
      <trkpt lat="46.91731" lon="8.67485">
        <ele>2028</ele>
        <time>2021-08-07T08:19:18.601Z</time>
      </trkpt>
      <trkpt lat="46.9173" lon="8.67484">
        <ele>2028</ele>
        <time>2021-08-07T08:19:19.601Z</time>
      </trkpt>
      <trkpt lat="46.91731" lon="8.67483">
        <ele>2028</ele>
        <time>2021-08-07T08:19:20.600Z</time>
      </trkpt>
      <trkpt lat="46.91731" lon="8.67483">
        <ele>2027</ele>
        <time>2021-08-07T08:19:21.600Z</time>
      </trkpt>
      <trkpt lat="46.91731" lon="8.67481">
        <ele>2027</ele>
        <time>2021-08-07T08:19:22.601Z</time>
      </trkpt>
      <trkpt lat="46.91732" lon="8.67479">
        <ele>2027</ele>
        <time>2021-08-07T08:19:23.600Z</time>
      </trkpt>
      <trkpt lat="46.91732" lon="8.67478">
        <ele>2026</ele>
        <time>2021-08-07T08:19:24.600Z</time>
      </trkpt>
      <trkpt lat="46.91731" lon="8.67478">
        <ele>2026</ele>
        <time>2021-08-07T08:19:25.600Z</time>
      </trkpt>
      <trkpt lat="46.91731" lon="8.67477">
        <ele>2026</ele>
        <time>2021-08-07T08:19:26.600Z</time>
      </trkpt>
      <trkpt lat="46.91731" lon="8.67477">
        <ele>2026</ele>
        <time>2021-08-07T08:19:27.600Z</time>
      </trkpt>
      <trkpt lat="46.91731" lon="8.67476">
        <ele>2026</ele>
        <time>2021-08-07T08:19:28.600Z</time>
      </trkpt>
      <trkpt lat="46.91731" lon="8.67475">
        <ele>2026</ele>
        <time>2021-08-07T08:19:29.600Z</time>
      </trkpt>
      <trkpt lat="46.9173" lon="8.67474">
        <ele>2026</ele>
        <time>2021-08-07T08:19:30.600Z</time>
      </trkpt>
      <trkpt lat="46.9173" lon="8.67473">
        <ele>2026</ele>
        <time>2021-08-07T08:19:31.600Z</time>
      </trkpt>
      <trkpt lat="46.91729" lon="8.67473">
        <ele>2026</ele>
        <time>2021-08-07T08:19:32.600Z</time>
      </trkpt>
      <trkpt lat="46.91729" lon="8.67471">
        <ele>2026</ele>
        <time>2021-08-07T08:19:33.600Z</time>
      </trkpt>
      <trkpt lat="46.91729" lon="8.6747">
        <ele>2025</ele>
        <time>2021-08-07T08:19:34.600Z</time>
      </trkpt>
      <trkpt lat="46.9173" lon="8.67469">
        <ele>2025</ele>
        <time>2021-08-07T08:19:35.600Z</time>
      </trkpt>
      <trkpt lat="46.91729" lon="8.67468">
        <ele>2024</ele>
        <time>2021-08-07T08:19:36.600Z</time>
      </trkpt>
      <trkpt lat="46.91729" lon="8.67467">
        <ele>2023</ele>
        <time>2021-08-07T08:19:37.600Z</time>
      </trkpt>
      <trkpt lat="46.91729" lon="8.67466">
        <ele>2023</ele>
        <time>2021-08-07T08:19:38.600Z</time>
      </trkpt>
      <trkpt lat="46.91729" lon="8.67465">
        <ele>2022</ele>
        <time>2021-08-07T08:19:39.600Z</time>
      </trkpt>
      <trkpt lat="46.91729" lon="8.67464">
        <ele>2022</ele>
        <time>2021-08-07T08:19:40.600Z</time>
      </trkpt>
      <trkpt lat="46.91727" lon="8.67464">
        <ele>2021</ele>
        <time>2021-08-07T08:19:41.600Z</time>
      </trkpt>
      <trkpt lat="46.91726" lon="8.67464">
        <ele>2021</ele>
        <time>2021-08-07T08:19:42.601Z</time>
      </trkpt>
      <trkpt lat="46.91725" lon="8.67463">
        <ele>2021</ele>
        <time>2021-08-07T08:19:43.601Z</time>
      </trkpt>
      <trkpt lat="46.91725" lon="8.67462">
        <ele>2021</ele>
        <time>2021-08-07T08:19:44.601Z</time>
      </trkpt>
      <trkpt lat="46.91724" lon="8.67461">
        <ele>2021</ele>
        <time>2021-08-07T08:19:45.601Z</time>
      </trkpt>
      <trkpt lat="46.91724" lon="8.6746">
        <ele>2021</ele>
        <time>2021-08-07T08:19:46.600Z</time>
      </trkpt>
      <trkpt lat="46.91724" lon="8.67458">
        <ele>2020</ele>
        <time>2021-08-07T08:19:47.600Z</time>
      </trkpt>
      <trkpt lat="46.91723" lon="8.67457">
        <ele>2020</ele>
        <time>2021-08-07T08:19:48.601Z</time>
      </trkpt>
      <trkpt lat="46.91723" lon="8.67456">
        <ele>2020</ele>
        <time>2021-08-07T08:19:49.601Z</time>
      </trkpt>
      <trkpt lat="46.91722" lon="8.67455">
        <ele>2020</ele>
        <time>2021-08-07T08:19:50.601Z</time>
      </trkpt>
      <trkpt lat="46.91722" lon="8.67454">
        <ele>2020</ele>
        <time>2021-08-07T08:19:51.601Z</time>
      </trkpt>
      <trkpt lat="46.91721" lon="8.67453">
        <ele>2020</ele>
        <time>2021-08-07T08:19:52.601Z</time>
      </trkpt>
      <trkpt lat="46.91721" lon="8.67452">
        <ele>2020</ele>
        <time>2021-08-07T08:19:53.601Z</time>
      </trkpt>
      <trkpt lat="46.9172" lon="8.67451">
        <ele>2021</ele>
        <time>2021-08-07T08:19:54.600Z</time>
      </trkpt>
      <trkpt lat="46.9172" lon="8.6745">
        <ele>2021</ele>
        <time>2021-08-07T08:19:55.600Z</time>
      </trkpt>
      <trkpt lat="46.91719" lon="8.67448">
        <ele>2021</ele>
        <time>2021-08-07T08:19:56.601Z</time>
      </trkpt>
      <trkpt lat="46.91719" lon="8.67446">
        <ele>2021</ele>
        <time>2021-08-07T08:19:57.600Z</time>
      </trkpt>
      <trkpt lat="46.91719" lon="8.67444">
        <ele>2021</ele>
        <time>2021-08-07T08:19:58.601Z</time>
      </trkpt>
      <trkpt lat="46.91719" lon="8.67442">
        <ele>2020</ele>
        <time>2021-08-07T08:19:59.601Z</time>
      </trkpt>
      <trkpt lat="46.91719" lon="8.67441">
        <ele>2020</ele>
        <time>2021-08-07T08:20:00.600Z</time>
      </trkpt>
      <trkpt lat="46.91719" lon="8.6744">
        <ele>2019</ele>
        <time>2021-08-07T08:20:01.601Z</time>
      </trkpt>
      <trkpt lat="46.91719" lon="8.67439">
        <ele>2018</ele>
        <time>2021-08-07T08:20:02.601Z</time>
      </trkpt>
      <trkpt lat="46.91719" lon="8.67437">
        <ele>2017</ele>
        <time>2021-08-07T08:20:03.601Z</time>
      </trkpt>
      <trkpt lat="46.91719" lon="8.67436">
        <ele>2017</ele>
        <time>2021-08-07T08:20:04.601Z</time>
      </trkpt>
      <trkpt lat="46.91718" lon="8.67434">
        <ele>2016</ele>
        <time>2021-08-07T08:20:05.600Z</time>
      </trkpt>
      <trkpt lat="46.91718" lon="8.67433">
        <ele>2016</ele>
        <time>2021-08-07T08:20:06.601Z</time>
      </trkpt>
      <trkpt lat="46.91718" lon="8.67432">
        <ele>2016</ele>
        <time>2021-08-07T08:20:07.601Z</time>
      </trkpt>
      <trkpt lat="46.91718" lon="8.67431">
        <ele>2016</ele>
        <time>2021-08-07T08:20:08.600Z</time>
      </trkpt>
      <trkpt lat="46.91718" lon="8.67429">
        <ele>2017</ele>
        <time>2021-08-07T08:20:09.600Z</time>
      </trkpt>
      <trkpt lat="46.91718" lon="8.67428">
        <ele>2017</ele>
        <time>2021-08-07T08:20:10.601Z</time>
      </trkpt>
      <trkpt lat="46.91718" lon="8.67427">
        <ele>2018</ele>
        <time>2021-08-07T08:20:11.601Z</time>
      </trkpt>
      <trkpt lat="46.91719" lon="8.67426">
        <ele>2018</ele>
        <time>2021-08-07T08:20:12.601Z</time>
      </trkpt>
      <trkpt lat="46.91719" lon="8.67424">
        <ele>2019</ele>
        <time>2021-08-07T08:20:13.601Z</time>
      </trkpt>
      <trkpt lat="46.91719" lon="8.67423">
        <ele>2019</ele>
        <time>2021-08-07T08:20:14.600Z</time>
      </trkpt>
      <trkpt lat="46.91719" lon="8.67422">
        <ele>2019</ele>
        <time>2021-08-07T08:20:15.601Z</time>
      </trkpt>
      <trkpt lat="46.91719" lon="8.67421">
        <ele>2019</ele>
        <time>2021-08-07T08:20:16.601Z</time>
      </trkpt>
      <trkpt lat="46.91719" lon="8.6742">
        <ele>2019</ele>
        <time>2021-08-07T08:20:17.601Z</time>
      </trkpt>
      <trkpt lat="46.91719" lon="8.67419">
        <ele>2019</ele>
        <time>2021-08-07T08:20:18.601Z</time>
      </trkpt>
      <trkpt lat="46.91719" lon="8.67419">
        <ele>2019</ele>
        <time>2021-08-07T08:20:19.600Z</time>
      </trkpt>
      <trkpt lat="46.91719" lon="8.67419">
        <ele>2019</ele>
        <time>2021-08-07T08:20:20.601Z</time>
      </trkpt>
      <trkpt lat="46.91715" lon="8.67413">
        <ele>2017</ele>
        <time>2021-08-07T08:20:21.601Z</time>
      </trkpt>
      <trkpt lat="46.91715" lon="8.67413">
        <ele>2017</ele>
        <time>2021-08-07T08:20:22.601Z</time>
      </trkpt>
      <trkpt lat="46.91715" lon="8.67414">
        <ele>2017</ele>
        <time>2021-08-07T08:20:23.600Z</time>
      </trkpt>
      <trkpt lat="46.91715" lon="8.67412">
        <ele>2015</ele>
        <time>2021-08-07T08:20:24.600Z</time>
      </trkpt>
      <trkpt lat="46.91715" lon="8.67411">
        <ele>2014</ele>
        <time>2021-08-07T08:20:25.600Z</time>
      </trkpt>
      <trkpt lat="46.91715" lon="8.67411">
        <ele>2015</ele>
        <time>2021-08-07T08:20:26.600Z</time>
      </trkpt>
      <trkpt lat="46.91714" lon="8.6741">
        <ele>2015</ele>
        <time>2021-08-07T08:20:27.600Z</time>
      </trkpt>
      <trkpt lat="46.91714" lon="8.67409">
        <ele>2015</ele>
        <time>2021-08-07T08:20:28.601Z</time>
      </trkpt>
      <trkpt lat="46.91713" lon="8.67409">
        <ele>2015</ele>
        <time>2021-08-07T08:20:29.600Z</time>
      </trkpt>
      <trkpt lat="46.91712" lon="8.67408">
        <ele>2015</ele>
        <time>2021-08-07T08:20:30.601Z</time>
      </trkpt>
      <trkpt lat="46.91712" lon="8.67407">
        <ele>2014</ele>
        <time>2021-08-07T08:20:31.601Z</time>
      </trkpt>
      <trkpt lat="46.91712" lon="8.67406">
        <ele>2014</ele>
        <time>2021-08-07T08:20:32.601Z</time>
      </trkpt>
      <trkpt lat="46.91712" lon="8.67406">
        <ele>2014</ele>
        <time>2021-08-07T08:20:33.600Z</time>
      </trkpt>
      <trkpt lat="46.91712" lon="8.67405">
        <ele>2014</ele>
        <time>2021-08-07T08:20:34.601Z</time>
      </trkpt>
      <trkpt lat="46.91711" lon="8.67404">
        <ele>2015</ele>
        <time>2021-08-07T08:20:35.601Z</time>
      </trkpt>
      <trkpt lat="46.91711" lon="8.67405">
        <ele>2015</ele>
        <time>2021-08-07T08:20:36.601Z</time>
      </trkpt>
      <trkpt lat="46.91711" lon="8.67405">
        <ele>2015</ele>
        <time>2021-08-07T08:20:37.601Z</time>
      </trkpt>
      <trkpt lat="46.9171" lon="8.67405">
        <ele>2015</ele>
        <time>2021-08-07T08:20:38.600Z</time>
      </trkpt>
      <trkpt lat="46.9171" lon="8.67405">
        <ele>2014</ele>
        <time>2021-08-07T08:20:39.601Z</time>
      </trkpt>
      <trkpt lat="46.9171" lon="8.67405">
        <ele>2014</ele>
        <time>2021-08-07T08:20:40.600Z</time>
      </trkpt>
      <trkpt lat="46.9171" lon="8.67405">
        <ele>2014</ele>
        <time>2021-08-07T08:20:41.601Z</time>
      </trkpt>
      <trkpt lat="46.9171" lon="8.67404">
        <ele>2014</ele>
        <time>2021-08-07T08:20:42.600Z</time>
      </trkpt>
      <trkpt lat="46.9171" lon="8.67403">
        <ele>2015</ele>
        <time>2021-08-07T08:20:43.600Z</time>
      </trkpt>
      <trkpt lat="46.91709" lon="8.67402">
        <ele>2015</ele>
        <time>2021-08-07T08:20:44.601Z</time>
      </trkpt>
      <trkpt lat="46.91709" lon="8.67401">
        <ele>2015</ele>
        <time>2021-08-07T08:20:45.601Z</time>
      </trkpt>
      <trkpt lat="46.91709" lon="8.674">
        <ele>2015</ele>
        <time>2021-08-07T08:20:46.601Z</time>
      </trkpt>
      <trkpt lat="46.91709" lon="8.67399">
        <ele>2015</ele>
        <time>2021-08-07T08:20:47.601Z</time>
      </trkpt>
      <trkpt lat="46.91708" lon="8.67398">
        <ele>2015</ele>
        <time>2021-08-07T08:20:48.601Z</time>
      </trkpt>
      <trkpt lat="46.91707" lon="8.67397">
        <ele>2015</ele>
        <time>2021-08-07T08:20:49.600Z</time>
      </trkpt>
      <trkpt lat="46.91706" lon="8.67396">
        <ele>2015</ele>
        <time>2021-08-07T08:20:50.601Z</time>
      </trkpt>
      <trkpt lat="46.91706" lon="8.67396">
        <ele>2015</ele>
        <time>2021-08-07T08:20:51.600Z</time>
      </trkpt>
      <trkpt lat="46.91705" lon="8.67395">
        <ele>2015</ele>
        <time>2021-08-07T08:20:52.601Z</time>
      </trkpt>
      <trkpt lat="46.91704" lon="8.67394">
        <ele>2015</ele>
        <time>2021-08-07T08:20:53.600Z</time>
      </trkpt>
      <trkpt lat="46.91704" lon="8.67393">
        <ele>2015</ele>
        <time>2021-08-07T08:20:54.601Z</time>
      </trkpt>
      <trkpt lat="46.91703" lon="8.67392">
        <ele>2015</ele>
        <time>2021-08-07T08:20:55.601Z</time>
      </trkpt>
      <trkpt lat="46.91702" lon="8.67392">
        <ele>2016</ele>
        <time>2021-08-07T08:20:56.600Z</time>
      </trkpt>
      <trkpt lat="46.91701" lon="8.67391">
        <ele>2016</ele>
        <time>2021-08-07T08:20:57.601Z</time>
      </trkpt>
      <trkpt lat="46.917" lon="8.6739">
        <ele>2016</ele>
        <time>2021-08-07T08:20:58.601Z</time>
      </trkpt>
      <trkpt lat="46.91699" lon="8.6739">
        <ele>2016</ele>
        <time>2021-08-07T08:20:59.601Z</time>
      </trkpt>
      <trkpt lat="46.91698" lon="8.67389">
        <ele>2016</ele>
        <time>2021-08-07T08:21:00.600Z</time>
      </trkpt>
      <trkpt lat="46.91697" lon="8.67389">
        <ele>2016</ele>
        <time>2021-08-07T08:21:01.601Z</time>
      </trkpt>
      <trkpt lat="46.91697" lon="8.67389">
        <ele>2016</ele>
        <time>2021-08-07T08:21:02.600Z</time>
      </trkpt>
      <trkpt lat="46.91697" lon="8.67389">
        <ele>2015</ele>
        <time>2021-08-07T08:21:03.601Z</time>
      </trkpt>
      <trkpt lat="46.91697" lon="8.67389">
        <ele>2015</ele>
        <time>2021-08-07T08:21:04.601Z</time>
      </trkpt>
      <trkpt lat="46.91696" lon="8.67388">
        <ele>2014</ele>
        <time>2021-08-07T08:21:05.603Z</time>
      </trkpt>
      <trkpt lat="46.91696" lon="8.67387">
        <ele>2014</ele>
        <time>2021-08-07T08:21:06.603Z</time>
      </trkpt>
      <trkpt lat="46.91695" lon="8.67386">
        <ele>2014</ele>
        <time>2021-08-07T08:21:07.602Z</time>
      </trkpt>
      <trkpt lat="46.91694" lon="8.67386">
        <ele>2013</ele>
        <time>2021-08-07T08:21:08.603Z</time>
      </trkpt>
      <trkpt lat="46.91693" lon="8.67386">
        <ele>2014</ele>
        <time>2021-08-07T08:21:09.602Z</time>
      </trkpt>
      <trkpt lat="46.91692" lon="8.67386">
        <ele>2014</ele>
        <time>2021-08-07T08:21:10.603Z</time>
      </trkpt>
      <trkpt lat="46.91691" lon="8.67387">
        <ele>2014</ele>
        <time>2021-08-07T08:21:11.603Z</time>
      </trkpt>
      <trkpt lat="46.91691" lon="8.67387">
        <ele>2014</ele>
        <time>2021-08-07T08:21:12.603Z</time>
      </trkpt>
      <trkpt lat="46.9169" lon="8.67387">
        <ele>2014</ele>
        <time>2021-08-07T08:21:13.602Z</time>
      </trkpt>
      <trkpt lat="46.9169" lon="8.67387">
        <ele>2014</ele>
        <time>2021-08-07T08:21:14.603Z</time>
      </trkpt>
      <trkpt lat="46.91689" lon="8.67387">
        <ele>2013</ele>
        <time>2021-08-07T08:21:15.603Z</time>
      </trkpt>
      <trkpt lat="46.91688" lon="8.67388">
        <ele>2013</ele>
        <time>2021-08-07T08:21:16.603Z</time>
      </trkpt>
      <trkpt lat="46.91688" lon="8.67389">
        <ele>2013</ele>
        <time>2021-08-07T08:21:17.603Z</time>
      </trkpt>
      <trkpt lat="46.91688" lon="8.67389">
        <ele>2013</ele>
        <time>2021-08-07T08:21:18.603Z</time>
      </trkpt>
      <trkpt lat="46.91687" lon="8.6739">
        <ele>2013</ele>
        <time>2021-08-07T08:21:19.603Z</time>
      </trkpt>
      <trkpt lat="46.91687" lon="8.6739">
        <ele>2013</ele>
        <time>2021-08-07T08:21:20.603Z</time>
      </trkpt>
      <trkpt lat="46.91687" lon="8.67391">
        <ele>2012</ele>
        <time>2021-08-07T08:21:21.603Z</time>
      </trkpt>
      <trkpt lat="46.91686" lon="8.67391">
        <ele>2012</ele>
        <time>2021-08-07T08:21:22.603Z</time>
      </trkpt>
      <trkpt lat="46.91686" lon="8.67391">
        <ele>2012</ele>
        <time>2021-08-07T08:21:23.602Z</time>
      </trkpt>
      <trkpt lat="46.91686" lon="8.67391">
        <ele>2012</ele>
        <time>2021-08-07T08:21:24.603Z</time>
      </trkpt>
      <trkpt lat="46.91685" lon="8.67391">
        <ele>2012</ele>
        <time>2021-08-07T08:21:25.603Z</time>
      </trkpt>
      <trkpt lat="46.91685" lon="8.67391">
        <ele>2012</ele>
        <time>2021-08-07T08:21:26.603Z</time>
      </trkpt>
      <trkpt lat="46.91684" lon="8.67391">
        <ele>2012</ele>
        <time>2021-08-07T08:21:27.602Z</time>
      </trkpt>
      <trkpt lat="46.91683" lon="8.67391">
        <ele>2012</ele>
        <time>2021-08-07T08:21:28.602Z</time>
      </trkpt>
      <trkpt lat="46.91683" lon="8.67391">
        <ele>2012</ele>
        <time>2021-08-07T08:21:29.602Z</time>
      </trkpt>
      <trkpt lat="46.91683" lon="8.67392">
        <ele>2012</ele>
        <time>2021-08-07T08:21:30.603Z</time>
      </trkpt>
      <trkpt lat="46.91683" lon="8.67392">
        <ele>2012</ele>
        <time>2021-08-07T08:21:31.603Z</time>
      </trkpt>
      <trkpt lat="46.91683" lon="8.67392">
        <ele>2012</ele>
        <time>2021-08-07T08:21:32.603Z</time>
      </trkpt>
      <trkpt lat="46.91682" lon="8.67393">
        <ele>2011</ele>
        <time>2021-08-07T08:21:33.602Z</time>
      </trkpt>
      <trkpt lat="46.91682" lon="8.67393">
        <ele>2011</ele>
        <time>2021-08-07T08:21:34.603Z</time>
      </trkpt>
      <trkpt lat="46.91681" lon="8.67394">
        <ele>2011</ele>
        <time>2021-08-07T08:21:35.603Z</time>
      </trkpt>
      <trkpt lat="46.9168" lon="8.67394">
        <ele>2011</ele>
        <time>2021-08-07T08:21:36.603Z</time>
      </trkpt>
      <trkpt lat="46.91679" lon="8.67394">
        <ele>2011</ele>
        <time>2021-08-07T08:21:37.602Z</time>
      </trkpt>
      <trkpt lat="46.91678" lon="8.67393">
        <ele>2011</ele>
        <time>2021-08-07T08:21:38.603Z</time>
      </trkpt>
      <trkpt lat="46.91677" lon="8.67393">
        <ele>2011</ele>
        <time>2021-08-07T08:21:39.603Z</time>
      </trkpt>
      <trkpt lat="46.91677" lon="8.67393">
        <ele>2011</ele>
        <time>2021-08-07T08:21:40.603Z</time>
      </trkpt>
      <trkpt lat="46.91676" lon="8.67394">
        <ele>2011</ele>
        <time>2021-08-07T08:21:41.603Z</time>
      </trkpt>
      <trkpt lat="46.91676" lon="8.67395">
        <ele>2011</ele>
        <time>2021-08-07T08:21:42.603Z</time>
      </trkpt>
      <trkpt lat="46.91676" lon="8.67396">
        <ele>2010</ele>
        <time>2021-08-07T08:21:43.602Z</time>
      </trkpt>
      <trkpt lat="46.91676" lon="8.67398">
        <ele>2010</ele>
        <time>2021-08-07T08:21:44.603Z</time>
      </trkpt>
      <trkpt lat="46.91677" lon="8.67399">
        <ele>2010</ele>
        <time>2021-08-07T08:21:45.603Z</time>
      </trkpt>
      <trkpt lat="46.91677" lon="8.674">
        <ele>2010</ele>
        <time>2021-08-07T08:21:46.603Z</time>
      </trkpt>
      <trkpt lat="46.91678" lon="8.67401">
        <ele>2010</ele>
        <time>2021-08-07T08:21:47.603Z</time>
      </trkpt>
      <trkpt lat="46.91678" lon="8.67401">
        <ele>2010</ele>
        <time>2021-08-07T08:21:48.603Z</time>
      </trkpt>
      <trkpt lat="46.91678" lon="8.67401">
        <ele>2010</ele>
        <time>2021-08-07T08:21:49.602Z</time>
      </trkpt>
      <trkpt lat="46.91678" lon="8.67402">
        <ele>2011</ele>
        <time>2021-08-07T08:21:50.603Z</time>
      </trkpt>
      <trkpt lat="46.91677" lon="8.67402">
        <ele>2011</ele>
        <time>2021-08-07T08:21:51.603Z</time>
      </trkpt>
      <trkpt lat="46.91677" lon="8.67403">
        <ele>2011</ele>
        <time>2021-08-07T08:21:52.603Z</time>
      </trkpt>
      <trkpt lat="46.91676" lon="8.67403">
        <ele>2011</ele>
        <time>2021-08-07T08:21:53.602Z</time>
      </trkpt>
      <trkpt lat="46.91676" lon="8.67403">
        <ele>2011</ele>
        <time>2021-08-07T08:21:54.603Z</time>
      </trkpt>
      <trkpt lat="46.91676" lon="8.67404">
        <ele>2011</ele>
        <time>2021-08-07T08:21:55.603Z</time>
      </trkpt>
      <trkpt lat="46.91676" lon="8.67405">
        <ele>2010</ele>
        <time>2021-08-07T08:21:56.603Z</time>
      </trkpt>
      <trkpt lat="46.91675" lon="8.67405">
        <ele>2010</ele>
        <time>2021-08-07T08:21:57.602Z</time>
      </trkpt>
      <trkpt lat="46.91675" lon="8.67405">
        <ele>2010</ele>
        <time>2021-08-07T08:21:58.603Z</time>
      </trkpt>
      <trkpt lat="46.91675" lon="8.67406">
        <ele>2009</ele>
        <time>2021-08-07T08:21:59.603Z</time>
      </trkpt>
      <trkpt lat="46.91674" lon="8.67406">
        <ele>2009</ele>
        <time>2021-08-07T08:22:00.603Z</time>
      </trkpt>
      <trkpt lat="46.91675" lon="8.67406">
        <ele>2009</ele>
        <time>2021-08-07T08:22:01.603Z</time>
      </trkpt>
      <trkpt lat="46.91675" lon="8.67406">
        <ele>2009</ele>
        <time>2021-08-07T08:22:02.603Z</time>
      </trkpt>
      <trkpt lat="46.91674" lon="8.67406">
        <ele>2009</ele>
        <time>2021-08-07T08:22:03.603Z</time>
      </trkpt>
      <trkpt lat="46.91674" lon="8.67407">
        <ele>2009</ele>
        <time>2021-08-07T08:22:04.604Z</time>
      </trkpt>
      <trkpt lat="46.91673" lon="8.67407">
        <ele>2009</ele>
        <time>2021-08-07T08:22:05.603Z</time>
      </trkpt>
      <trkpt lat="46.91672" lon="8.67407">
        <ele>2008</ele>
        <time>2021-08-07T08:22:06.604Z</time>
      </trkpt>
      <trkpt lat="46.91672" lon="8.67407">
        <ele>2008</ele>
        <time>2021-08-07T08:22:07.603Z</time>
      </trkpt>
      <trkpt lat="46.91671" lon="8.67407">
        <ele>2008</ele>
        <time>2021-08-07T08:22:08.604Z</time>
      </trkpt>
      <trkpt lat="46.91671" lon="8.67407">
        <ele>2009</ele>
        <time>2021-08-07T08:22:09.604Z</time>
      </trkpt>
      <trkpt lat="46.9167" lon="8.67407">
        <ele>2009</ele>
        <time>2021-08-07T08:22:10.604Z</time>
      </trkpt>
      <trkpt lat="46.9167" lon="8.67407">
        <ele>2009</ele>
        <time>2021-08-07T08:22:11.603Z</time>
      </trkpt>
      <trkpt lat="46.9167" lon="8.67407">
        <ele>2009</ele>
        <time>2021-08-07T08:22:12.603Z</time>
      </trkpt>
      <trkpt lat="46.91669" lon="8.67407">
        <ele>2009</ele>
        <time>2021-08-07T08:22:13.604Z</time>
      </trkpt>
      <trkpt lat="46.91669" lon="8.67407">
        <ele>2009</ele>
        <time>2021-08-07T08:22:14.604Z</time>
      </trkpt>
      <trkpt lat="46.91668" lon="8.67406">
        <ele>2009</ele>
        <time>2021-08-07T08:22:15.604Z</time>
      </trkpt>
      <trkpt lat="46.91668" lon="8.67406">
        <ele>2009</ele>
        <time>2021-08-07T08:22:16.604Z</time>
      </trkpt>
      <trkpt lat="46.91667" lon="8.67405">
        <ele>2008</ele>
        <time>2021-08-07T08:22:17.603Z</time>
      </trkpt>
      <trkpt lat="46.91667" lon="8.67405">
        <ele>2007</ele>
        <time>2021-08-07T08:22:18.603Z</time>
      </trkpt>
      <trkpt lat="46.91667" lon="8.67405">
        <ele>2006</ele>
        <time>2021-08-07T08:22:19.603Z</time>
      </trkpt>
      <trkpt lat="46.91666" lon="8.67404">
        <ele>2005</ele>
        <time>2021-08-07T08:22:20.603Z</time>
      </trkpt>
      <trkpt lat="46.91666" lon="8.67404">
        <ele>2005</ele>
        <time>2021-08-07T08:22:21.604Z</time>
      </trkpt>
      <trkpt lat="46.91666" lon="8.67404">
        <ele>2004</ele>
        <time>2021-08-07T08:22:22.603Z</time>
      </trkpt>
      <trkpt lat="46.91667" lon="8.67402">
        <ele>1998</ele>
        <time>2021-08-07T08:22:23.604Z</time>
      </trkpt>
      <trkpt lat="46.91667" lon="8.67401">
        <ele>1998</ele>
        <time>2021-08-07T08:22:24.604Z</time>
      </trkpt>
      <trkpt lat="46.91668" lon="8.674">
        <ele>1998</ele>
        <time>2021-08-07T08:22:25.604Z</time>
      </trkpt>
      <trkpt lat="46.91668" lon="8.67399">
        <ele>1998</ele>
        <time>2021-08-07T08:22:26.604Z</time>
      </trkpt>
      <trkpt lat="46.91668" lon="8.67398">
        <ele>1999</ele>
        <time>2021-08-07T08:22:27.604Z</time>
      </trkpt>
      <trkpt lat="46.91668" lon="8.67398">
        <ele>1999</ele>
        <time>2021-08-07T08:22:28.604Z</time>
      </trkpt>
      <trkpt lat="46.91668" lon="8.67397">
        <ele>1999</ele>
        <time>2021-08-07T08:22:29.605Z</time>
      </trkpt>
      <trkpt lat="46.91668" lon="8.67396">
        <ele>1999</ele>
        <time>2021-08-07T08:22:30.605Z</time>
      </trkpt>
      <trkpt lat="46.91668" lon="8.67396">
        <ele>1999</ele>
        <time>2021-08-07T08:22:31.604Z</time>
      </trkpt>
      <trkpt lat="46.91668" lon="8.67396">
        <ele>1999</ele>
        <time>2021-08-07T08:22:32.605Z</time>
      </trkpt>
      <trkpt lat="46.91668" lon="8.67396">
        <ele>2000</ele>
        <time>2021-08-07T08:22:33.604Z</time>
      </trkpt>
      <trkpt lat="46.91666" lon="8.67396">
        <ele>2003</ele>
        <time>2021-08-07T08:22:34.605Z</time>
      </trkpt>
      <trkpt lat="46.91666" lon="8.67396">
        <ele>2003</ele>
        <time>2021-08-07T08:22:35.604Z</time>
      </trkpt>
      <trkpt lat="46.91665" lon="8.67397">
        <ele>2003</ele>
        <time>2021-08-07T08:22:36.604Z</time>
      </trkpt>
      <trkpt lat="46.91665" lon="8.67398">
        <ele>2003</ele>
        <time>2021-08-07T08:22:37.605Z</time>
      </trkpt>
      <trkpt lat="46.91665" lon="8.67398">
        <ele>2003</ele>
        <time>2021-08-07T08:22:38.605Z</time>
      </trkpt>
      <trkpt lat="46.91665" lon="8.67399">
        <ele>2003</ele>
        <time>2021-08-07T08:22:39.604Z</time>
      </trkpt>
      <trkpt lat="46.91664" lon="8.674">
        <ele>2004</ele>
        <time>2021-08-07T08:22:40.604Z</time>
      </trkpt>
      <trkpt lat="46.91664" lon="8.674">
        <ele>2003</ele>
        <time>2021-08-07T08:22:41.605Z</time>
      </trkpt>
      <trkpt lat="46.91664" lon="8.674">
        <ele>2003</ele>
        <time>2021-08-07T08:22:42.606Z</time>
      </trkpt>
      <trkpt lat="46.91664" lon="8.67401">
        <ele>2003</ele>
        <time>2021-08-07T08:22:43.606Z</time>
      </trkpt>
      <trkpt lat="46.91663" lon="8.67401">
        <ele>2003</ele>
        <time>2021-08-07T08:22:44.605Z</time>
      </trkpt>
      <trkpt lat="46.91663" lon="8.67401">
        <ele>2002</ele>
        <time>2021-08-07T08:22:45.606Z</time>
      </trkpt>
      <trkpt lat="46.91662" lon="8.67401">
        <ele>2002</ele>
        <time>2021-08-07T08:22:46.606Z</time>
      </trkpt>
      <trkpt lat="46.91661" lon="8.67402">
        <ele>2002</ele>
        <time>2021-08-07T08:22:47.606Z</time>
      </trkpt>
      <trkpt lat="46.9166" lon="8.67402">
        <ele>2002</ele>
        <time>2021-08-07T08:22:48.606Z</time>
      </trkpt>
      <trkpt lat="46.9166" lon="8.67403">
        <ele>2002</ele>
        <time>2021-08-07T08:22:49.606Z</time>
      </trkpt>
      <trkpt lat="46.91659" lon="8.67404">
        <ele>2002</ele>
        <time>2021-08-07T08:22:50.606Z</time>
      </trkpt>
      <trkpt lat="46.91659" lon="8.67406">
        <ele>2001</ele>
        <time>2021-08-07T08:22:51.606Z</time>
      </trkpt>
      <trkpt lat="46.91659" lon="8.67407">
        <ele>2001</ele>
        <time>2021-08-07T08:22:52.606Z</time>
      </trkpt>
      <trkpt lat="46.91659" lon="8.67407">
        <ele>2001</ele>
        <time>2021-08-07T08:22:53.606Z</time>
      </trkpt>
      <trkpt lat="46.91659" lon="8.67408">
        <ele>2001</ele>
        <time>2021-08-07T08:22:54.606Z</time>
      </trkpt>
      <trkpt lat="46.91659" lon="8.67409">
        <ele>2001</ele>
        <time>2021-08-07T08:22:55.606Z</time>
      </trkpt>
      <trkpt lat="46.91659" lon="8.67409">
        <ele>2001</ele>
        <time>2021-08-07T08:22:56.606Z</time>
      </trkpt>
      <trkpt lat="46.9166" lon="8.6741">
        <ele>2001</ele>
        <time>2021-08-07T08:22:57.605Z</time>
      </trkpt>
      <trkpt lat="46.9166" lon="8.67411">
        <ele>2000</ele>
        <time>2021-08-07T08:22:58.606Z</time>
      </trkpt>
      <trkpt lat="46.9166" lon="8.67411">
        <ele>2000</ele>
        <time>2021-08-07T08:22:59.606Z</time>
      </trkpt>
      <trkpt lat="46.9166" lon="8.67412">
        <ele>2000</ele>
        <time>2021-08-07T08:23:00.605Z</time>
      </trkpt>
      <trkpt lat="46.9166" lon="8.67413">
        <ele>1999</ele>
        <time>2021-08-07T08:23:01.606Z</time>
      </trkpt>
      <trkpt lat="46.9166" lon="8.67414">
        <ele>1999</ele>
        <time>2021-08-07T08:23:02.606Z</time>
      </trkpt>
      <trkpt lat="46.91659" lon="8.67415">
        <ele>1999</ele>
        <time>2021-08-07T08:23:03.606Z</time>
      </trkpt>
      <trkpt lat="46.91659" lon="8.67416">
        <ele>1999</ele>
        <time>2021-08-07T08:23:04.605Z</time>
      </trkpt>
      <trkpt lat="46.91659" lon="8.67418">
        <ele>1999</ele>
        <time>2021-08-07T08:23:05.606Z</time>
      </trkpt>
      <trkpt lat="46.91659" lon="8.67419">
        <ele>1999</ele>
        <time>2021-08-07T08:23:06.606Z</time>
      </trkpt>
      <trkpt lat="46.91659" lon="8.6742">
        <ele>1999</ele>
        <time>2021-08-07T08:23:07.605Z</time>
      </trkpt>
      <trkpt lat="46.91659" lon="8.67422">
        <ele>2000</ele>
        <time>2021-08-07T08:23:08.606Z</time>
      </trkpt>
      <trkpt lat="46.91659" lon="8.67422">
        <ele>2000</ele>
        <time>2021-08-07T08:23:09.605Z</time>
      </trkpt>
      <trkpt lat="46.91659" lon="8.67423">
        <ele>2001</ele>
        <time>2021-08-07T08:23:10.606Z</time>
      </trkpt>
      <trkpt lat="46.91659" lon="8.67424">
        <ele>2001</ele>
        <time>2021-08-07T08:23:11.605Z</time>
      </trkpt>
      <trkpt lat="46.91659" lon="8.67426">
        <ele>2001</ele>
        <time>2021-08-07T08:23:12.606Z</time>
      </trkpt>
      <trkpt lat="46.91659" lon="8.67427">
        <ele>2001</ele>
        <time>2021-08-07T08:23:13.606Z</time>
      </trkpt>
      <trkpt lat="46.91659" lon="8.67428">
        <ele>2000</ele>
        <time>2021-08-07T08:23:14.605Z</time>
      </trkpt>
      <trkpt lat="46.91659" lon="8.67428">
        <ele>2000</ele>
        <time>2021-08-07T08:23:15.606Z</time>
      </trkpt>
      <trkpt lat="46.91659" lon="8.67428">
        <ele>2000</ele>
        <time>2021-08-07T08:23:16.605Z</time>
      </trkpt>
      <trkpt lat="46.91658" lon="8.67429">
        <ele>1999</ele>
        <time>2021-08-07T08:23:17.606Z</time>
      </trkpt>
      <trkpt lat="46.91658" lon="8.67429">
        <ele>1999</ele>
        <time>2021-08-07T08:23:18.605Z</time>
      </trkpt>
      <trkpt lat="46.91658" lon="8.6743">
        <ele>1998</ele>
        <time>2021-08-07T08:23:19.606Z</time>
      </trkpt>
      <trkpt lat="46.91657" lon="8.6743">
        <ele>1997</ele>
        <time>2021-08-07T08:23:20.605Z</time>
      </trkpt>
      <trkpt lat="46.91657" lon="8.67431">
        <ele>1997</ele>
        <time>2021-08-07T08:23:21.605Z</time>
      </trkpt>
      <trkpt lat="46.91656" lon="8.67432">
        <ele>1996</ele>
        <time>2021-08-07T08:23:22.606Z</time>
      </trkpt>
      <trkpt lat="46.91656" lon="8.67433">
        <ele>1996</ele>
        <time>2021-08-07T08:23:23.606Z</time>
      </trkpt>
      <trkpt lat="46.91655" lon="8.67434">
        <ele>1996</ele>
        <time>2021-08-07T08:23:24.606Z</time>
      </trkpt>
      <trkpt lat="46.91655" lon="8.67435">
        <ele>1996</ele>
        <time>2021-08-07T08:23:25.606Z</time>
      </trkpt>
      <trkpt lat="46.91655" lon="8.67437">
        <ele>1996</ele>
        <time>2021-08-07T08:23:26.606Z</time>
      </trkpt>
      <trkpt lat="46.91655" lon="8.67437">
        <ele>1996</ele>
        <time>2021-08-07T08:23:27.605Z</time>
      </trkpt>
      <trkpt lat="46.91655" lon="8.67438">
        <ele>1996</ele>
        <time>2021-08-07T08:23:28.606Z</time>
      </trkpt>
      <trkpt lat="46.91655" lon="8.67438">
        <ele>1995</ele>
        <time>2021-08-07T08:23:29.606Z</time>
      </trkpt>
      <trkpt lat="46.91655" lon="8.67438">
        <ele>1995</ele>
        <time>2021-08-07T08:23:30.606Z</time>
      </trkpt>
      <trkpt lat="46.91655" lon="8.6744">
        <ele>1993</ele>
        <time>2021-08-07T08:23:31.606Z</time>
      </trkpt>
      <trkpt lat="46.91654" lon="8.6744">
        <ele>1992</ele>
        <time>2021-08-07T08:23:32.606Z</time>
      </trkpt>
      <trkpt lat="46.91654" lon="8.67439">
        <ele>1991</ele>
        <time>2021-08-07T08:23:33.606Z</time>
      </trkpt>
      <trkpt lat="46.91654" lon="8.67439">
        <ele>1990</ele>
        <time>2021-08-07T08:23:34.605Z</time>
      </trkpt>
      <trkpt lat="46.91653" lon="8.67438">
        <ele>1990</ele>
        <time>2021-08-07T08:23:35.605Z</time>
      </trkpt>
      <trkpt lat="46.91652" lon="8.67438">
        <ele>1989</ele>
        <time>2021-08-07T08:23:36.606Z</time>
      </trkpt>
      <trkpt lat="46.91651" lon="8.67437">
        <ele>1989</ele>
        <time>2021-08-07T08:23:37.606Z</time>
      </trkpt>
      <trkpt lat="46.91651" lon="8.67438">
        <ele>1988</ele>
        <time>2021-08-07T08:23:38.605Z</time>
      </trkpt>
      <trkpt lat="46.9165" lon="8.67439">
        <ele>1988</ele>
        <time>2021-08-07T08:23:39.606Z</time>
      </trkpt>
      <trkpt lat="46.9165" lon="8.6744">
        <ele>1988</ele>
        <time>2021-08-07T08:23:40.605Z</time>
      </trkpt>
      <trkpt lat="46.9165" lon="8.67441">
        <ele>1989</ele>
        <time>2021-08-07T08:23:41.606Z</time>
      </trkpt>
      <trkpt lat="46.9165" lon="8.67441">
        <ele>1989</ele>
        <time>2021-08-07T08:23:42.605Z</time>
      </trkpt>
      <trkpt lat="46.9165" lon="8.67441">
        <ele>1989</ele>
        <time>2021-08-07T08:23:43.606Z</time>
      </trkpt>
      <trkpt lat="46.9165" lon="8.67441">
        <ele>1990</ele>
        <time>2021-08-07T08:23:44.606Z</time>
      </trkpt>
      <trkpt lat="46.91649" lon="8.67441">
        <ele>1990</ele>
        <time>2021-08-07T08:23:45.605Z</time>
      </trkpt>
      <trkpt lat="46.91649" lon="8.67441">
        <ele>1990</ele>
        <time>2021-08-07T08:23:46.606Z</time>
      </trkpt>
      <trkpt lat="46.91649" lon="8.67441">
        <ele>1990</ele>
        <time>2021-08-07T08:23:47.605Z</time>
      </trkpt>
      <trkpt lat="46.91648" lon="8.67441">
        <ele>1990</ele>
        <time>2021-08-07T08:23:48.606Z</time>
      </trkpt>
      <trkpt lat="46.91648" lon="8.67441">
        <ele>1989</ele>
        <time>2021-08-07T08:23:49.605Z</time>
      </trkpt>
      <trkpt lat="46.91648" lon="8.67442">
        <ele>1989</ele>
        <time>2021-08-07T08:23:50.606Z</time>
      </trkpt>
      <trkpt lat="46.91648" lon="8.67443">
        <ele>1989</ele>
        <time>2021-08-07T08:23:51.606Z</time>
      </trkpt>
      <trkpt lat="46.91648" lon="8.67443">
        <ele>1988</ele>
        <time>2021-08-07T08:23:52.605Z</time>
      </trkpt>
      <trkpt lat="46.91648" lon="8.67442">
        <ele>1988</ele>
        <time>2021-08-07T08:23:53.605Z</time>
      </trkpt>
      <trkpt lat="46.91648" lon="8.67441">
        <ele>1988</ele>
        <time>2021-08-07T08:23:54.605Z</time>
      </trkpt>
      <trkpt lat="46.91648" lon="8.67441">
        <ele>1988</ele>
        <time>2021-08-07T08:23:55.605Z</time>
      </trkpt>
      <trkpt lat="46.91648" lon="8.6744">
        <ele>1988</ele>
        <time>2021-08-07T08:23:56.605Z</time>
      </trkpt>
      <trkpt lat="46.91648" lon="8.67439">
        <ele>1987</ele>
        <time>2021-08-07T08:23:57.605Z</time>
      </trkpt>
      <trkpt lat="46.91648" lon="8.67438">
        <ele>1987</ele>
        <time>2021-08-07T08:23:58.605Z</time>
      </trkpt>
      <trkpt lat="46.91647" lon="8.67437">
        <ele>1987</ele>
        <time>2021-08-07T08:23:59.605Z</time>
      </trkpt>
      <trkpt lat="46.91647" lon="8.67437">
        <ele>1986</ele>
        <time>2021-08-07T08:24:00.605Z</time>
      </trkpt>
      <trkpt lat="46.91647" lon="8.67437">
        <ele>1985</ele>
        <time>2021-08-07T08:24:01.606Z</time>
      </trkpt>
      <trkpt lat="46.91647" lon="8.67436">
        <ele>1984</ele>
        <time>2021-08-07T08:24:02.606Z</time>
      </trkpt>
      <trkpt lat="46.91647" lon="8.67435">
        <ele>1984</ele>
        <time>2021-08-07T08:24:03.605Z</time>
      </trkpt>
      <trkpt lat="46.91647" lon="8.67434">
        <ele>1984</ele>
        <time>2021-08-07T08:24:04.606Z</time>
      </trkpt>
      <trkpt lat="46.91647" lon="8.67434">
        <ele>1984</ele>
        <time>2021-08-07T08:24:05.605Z</time>
      </trkpt>
      <trkpt lat="46.91647" lon="8.67433">
        <ele>1984</ele>
        <time>2021-08-07T08:24:06.605Z</time>
      </trkpt>
      <trkpt lat="46.91647" lon="8.67432">
        <ele>1984</ele>
        <time>2021-08-07T08:24:07.606Z</time>
      </trkpt>
      <trkpt lat="46.91648" lon="8.67431">
        <ele>1984</ele>
        <time>2021-08-07T08:24:08.606Z</time>
      </trkpt>
      <trkpt lat="46.91648" lon="8.67431">
        <ele>1985</ele>
        <time>2021-08-07T08:24:09.606Z</time>
      </trkpt>
      <trkpt lat="46.91648" lon="8.6743">
        <ele>1985</ele>
        <time>2021-08-07T08:24:10.606Z</time>
      </trkpt>
      <trkpt lat="46.91647" lon="8.67429">
        <ele>1985</ele>
        <time>2021-08-07T08:24:11.606Z</time>
      </trkpt>
      <trkpt lat="46.91647" lon="8.67428">
        <ele>1985</ele>
        <time>2021-08-07T08:24:12.606Z</time>
      </trkpt>
      <trkpt lat="46.91647" lon="8.67428">
        <ele>1986</ele>
        <time>2021-08-07T08:24:13.605Z</time>
      </trkpt>
      <trkpt lat="46.91646" lon="8.67428">
        <ele>1985</ele>
        <time>2021-08-07T08:24:14.606Z</time>
      </trkpt>
      <trkpt lat="46.91646" lon="8.67427">
        <ele>1985</ele>
        <time>2021-08-07T08:24:15.606Z</time>
      </trkpt>
      <trkpt lat="46.91646" lon="8.67427">
        <ele>1985</ele>
        <time>2021-08-07T08:24:16.606Z</time>
      </trkpt>
      <trkpt lat="46.91645" lon="8.67426">
        <ele>1985</ele>
        <time>2021-08-07T08:24:17.605Z</time>
      </trkpt>
      <trkpt lat="46.91644" lon="8.67425">
        <ele>1985</ele>
        <time>2021-08-07T08:24:18.606Z</time>
      </trkpt>
      <trkpt lat="46.91644" lon="8.67425">
        <ele>1984</ele>
        <time>2021-08-07T08:24:19.606Z</time>
      </trkpt>
      <trkpt lat="46.91643" lon="8.67425">
        <ele>1984</ele>
        <time>2021-08-07T08:24:20.605Z</time>
      </trkpt>
      <trkpt lat="46.91643" lon="8.67425">
        <ele>1984</ele>
        <time>2021-08-07T08:24:21.605Z</time>
      </trkpt>
      <trkpt lat="46.91643" lon="8.67426">
        <ele>1984</ele>
        <time>2021-08-07T08:24:22.605Z</time>
      </trkpt>
      <trkpt lat="46.91642" lon="8.67427">
        <ele>1984</ele>
        <time>2021-08-07T08:24:23.606Z</time>
      </trkpt>
      <trkpt lat="46.91642" lon="8.67427">
        <ele>1983</ele>
        <time>2021-08-07T08:24:24.606Z</time>
      </trkpt>
      <trkpt lat="46.91642" lon="8.67428">
        <ele>1983</ele>
        <time>2021-08-07T08:24:25.606Z</time>
      </trkpt>
      <trkpt lat="46.91641" lon="8.67429">
        <ele>1983</ele>
        <time>2021-08-07T08:24:26.605Z</time>
      </trkpt>
      <trkpt lat="46.91641" lon="8.6743">
        <ele>1983</ele>
        <time>2021-08-07T08:24:27.606Z</time>
      </trkpt>
      <trkpt lat="46.9164" lon="8.67431">
        <ele>1983</ele>
        <time>2021-08-07T08:24:28.605Z</time>
      </trkpt>
      <trkpt lat="46.9164" lon="8.67432">
        <ele>1983</ele>
        <time>2021-08-07T08:24:29.605Z</time>
      </trkpt>
      <trkpt lat="46.91639" lon="8.67432">
        <ele>1982</ele>
        <time>2021-08-07T08:24:30.606Z</time>
      </trkpt>
      <trkpt lat="46.91639" lon="8.67433">
        <ele>1982</ele>
        <time>2021-08-07T08:24:31.606Z</time>
      </trkpt>
      <trkpt lat="46.91639" lon="8.67435">
        <ele>1981</ele>
        <time>2021-08-07T08:24:32.605Z</time>
      </trkpt>
      <trkpt lat="46.91638" lon="8.67435">
        <ele>1980</ele>
        <time>2021-08-07T08:24:33.606Z</time>
      </trkpt>
      <trkpt lat="46.91638" lon="8.67436">
        <ele>1980</ele>
        <time>2021-08-07T08:24:34.606Z</time>
      </trkpt>
      <trkpt lat="46.91637" lon="8.67437">
        <ele>1980</ele>
        <time>2021-08-07T08:24:35.605Z</time>
      </trkpt>
      <trkpt lat="46.91636" lon="8.67438">
        <ele>1979</ele>
        <time>2021-08-07T08:24:36.605Z</time>
      </trkpt>
      <trkpt lat="46.91635" lon="8.67439">
        <ele>1980</ele>
        <time>2021-08-07T08:24:37.606Z</time>
      </trkpt>
      <trkpt lat="46.91635" lon="8.6744">
        <ele>1980</ele>
        <time>2021-08-07T08:24:38.605Z</time>
      </trkpt>
      <trkpt lat="46.91634" lon="8.67441">
        <ele>1980</ele>
        <time>2021-08-07T08:24:39.606Z</time>
      </trkpt>
      <trkpt lat="46.91634" lon="8.67442">
        <ele>1980</ele>
        <time>2021-08-07T08:24:40.605Z</time>
      </trkpt>
      <trkpt lat="46.91634" lon="8.67443">
        <ele>1980</ele>
        <time>2021-08-07T08:24:41.605Z</time>
      </trkpt>
      <trkpt lat="46.91633" lon="8.67444">
        <ele>1980</ele>
        <time>2021-08-07T08:24:42.606Z</time>
      </trkpt>
      <trkpt lat="46.91633" lon="8.67446">
        <ele>1980</ele>
        <time>2021-08-07T08:24:43.606Z</time>
      </trkpt>
      <trkpt lat="46.91633" lon="8.67447">
        <ele>1979</ele>
        <time>2021-08-07T08:24:44.606Z</time>
      </trkpt>
      <trkpt lat="46.91632" lon="8.67448">
        <ele>1979</ele>
        <time>2021-08-07T08:24:45.606Z</time>
      </trkpt>
      <trkpt lat="46.91632" lon="8.6745">
        <ele>1979</ele>
        <time>2021-08-07T08:24:46.605Z</time>
      </trkpt>
      <trkpt lat="46.91632" lon="8.67451">
        <ele>1979</ele>
        <time>2021-08-07T08:24:47.606Z</time>
      </trkpt>
      <trkpt lat="46.91631" lon="8.67453">
        <ele>1978</ele>
        <time>2021-08-07T08:24:48.605Z</time>
      </trkpt>
      <trkpt lat="46.91631" lon="8.67454">
        <ele>1978</ele>
        <time>2021-08-07T08:24:49.605Z</time>
      </trkpt>
      <trkpt lat="46.9163" lon="8.67454">
        <ele>1978</ele>
        <time>2021-08-07T08:24:50.605Z</time>
      </trkpt>
      <trkpt lat="46.9163" lon="8.67455">
        <ele>1977</ele>
        <time>2021-08-07T08:24:51.606Z</time>
      </trkpt>
      <trkpt lat="46.91629" lon="8.67456">
        <ele>1977</ele>
        <time>2021-08-07T08:24:52.606Z</time>
      </trkpt>
      <trkpt lat="46.91629" lon="8.67458">
        <ele>1976</ele>
        <time>2021-08-07T08:24:53.606Z</time>
      </trkpt>
      <trkpt lat="46.91628" lon="8.67459">
        <ele>1976</ele>
        <time>2021-08-07T08:24:54.605Z</time>
      </trkpt>
      <trkpt lat="46.91627" lon="8.6746">
        <ele>1976</ele>
        <time>2021-08-07T08:24:55.605Z</time>
      </trkpt>
      <trkpt lat="46.91627" lon="8.67462">
        <ele>1976</ele>
        <time>2021-08-07T08:24:56.606Z</time>
      </trkpt>
      <trkpt lat="46.91626" lon="8.67464">
        <ele>1976</ele>
        <time>2021-08-07T08:24:57.606Z</time>
      </trkpt>
      <trkpt lat="46.91625" lon="8.67466">
        <ele>1975</ele>
        <time>2021-08-07T08:24:58.606Z</time>
      </trkpt>
      <trkpt lat="46.91625" lon="8.67467">
        <ele>1975</ele>
        <time>2021-08-07T08:24:59.606Z</time>
      </trkpt>
      <trkpt lat="46.91625" lon="8.67468">
        <ele>1975</ele>
        <time>2021-08-07T08:25:00.606Z</time>
      </trkpt>
      <trkpt lat="46.91624" lon="8.6747">
        <ele>1974</ele>
        <time>2021-08-07T08:25:01.606Z</time>
      </trkpt>
      <trkpt lat="46.91624" lon="8.67471">
        <ele>1973</ele>
        <time>2021-08-07T08:25:02.605Z</time>
      </trkpt>
      <trkpt lat="46.91624" lon="8.67472">
        <ele>1973</ele>
        <time>2021-08-07T08:25:03.605Z</time>
      </trkpt>
      <trkpt lat="46.91624" lon="8.67474">
        <ele>1973</ele>
        <time>2021-08-07T08:25:04.606Z</time>
      </trkpt>
      <trkpt lat="46.91623" lon="8.67474">
        <ele>1973</ele>
        <time>2021-08-07T08:25:05.605Z</time>
      </trkpt>
      <trkpt lat="46.91623" lon="8.67474">
        <ele>1973</ele>
        <time>2021-08-07T08:25:06.606Z</time>
      </trkpt>
      <trkpt lat="46.91622" lon="8.67473">
        <ele>1973</ele>
        <time>2021-08-07T08:25:07.605Z</time>
      </trkpt>
      <trkpt lat="46.91621" lon="8.67473">
        <ele>1973</ele>
        <time>2021-08-07T08:25:08.606Z</time>
      </trkpt>
      <trkpt lat="46.91621" lon="8.67473">
        <ele>1973</ele>
        <time>2021-08-07T08:25:09.606Z</time>
      </trkpt>
      <trkpt lat="46.9162" lon="8.67474">
        <ele>1973</ele>
        <time>2021-08-07T08:25:10.606Z</time>
      </trkpt>
      <trkpt lat="46.91619" lon="8.67474">
        <ele>1973</ele>
        <time>2021-08-07T08:25:11.605Z</time>
      </trkpt>
      <trkpt lat="46.91618" lon="8.67475">
        <ele>1972</ele>
        <time>2021-08-07T08:25:12.606Z</time>
      </trkpt>
      <trkpt lat="46.91618" lon="8.67476">
        <ele>1972</ele>
        <time>2021-08-07T08:25:13.606Z</time>
      </trkpt>
      <trkpt lat="46.91617" lon="8.67476">
        <ele>1972</ele>
        <time>2021-08-07T08:25:14.605Z</time>
      </trkpt>
      <trkpt lat="46.91617" lon="8.67477">
        <ele>1971</ele>
        <time>2021-08-07T08:25:15.606Z</time>
      </trkpt>
      <trkpt lat="46.91616" lon="8.67478">
        <ele>1971</ele>
        <time>2021-08-07T08:25:16.606Z</time>
      </trkpt>
      <trkpt lat="46.91616" lon="8.67479">
        <ele>1970</ele>
        <time>2021-08-07T08:25:17.606Z</time>
      </trkpt>
      <trkpt lat="46.91615" lon="8.6748">
        <ele>1970</ele>
        <time>2021-08-07T08:25:18.606Z</time>
      </trkpt>
      <trkpt lat="46.91614" lon="8.6748">
        <ele>1970</ele>
        <time>2021-08-07T08:25:19.605Z</time>
      </trkpt>
      <trkpt lat="46.91614" lon="8.67482">
        <ele>1969</ele>
        <time>2021-08-07T08:25:20.606Z</time>
      </trkpt>
      <trkpt lat="46.91613" lon="8.67483">
        <ele>1968</ele>
        <time>2021-08-07T08:25:21.605Z</time>
      </trkpt>
      <trkpt lat="46.91613" lon="8.67484">
        <ele>1968</ele>
        <time>2021-08-07T08:25:22.606Z</time>
      </trkpt>
      <trkpt lat="46.91612" lon="8.67484">
        <ele>1967</ele>
        <time>2021-08-07T08:25:23.605Z</time>
      </trkpt>
      <trkpt lat="46.91612" lon="8.67485">
        <ele>1966</ele>
        <time>2021-08-07T08:25:24.605Z</time>
      </trkpt>
      <trkpt lat="46.91611" lon="8.67486">
        <ele>1965</ele>
        <time>2021-08-07T08:25:25.605Z</time>
      </trkpt>
      <trkpt lat="46.91611" lon="8.67487">
        <ele>1965</ele>
        <time>2021-08-07T08:25:26.606Z</time>
      </trkpt>
      <trkpt lat="46.91611" lon="8.67488">
        <ele>1964</ele>
        <time>2021-08-07T08:25:27.605Z</time>
      </trkpt>
      <trkpt lat="46.9161" lon="8.6749">
        <ele>1964</ele>
        <time>2021-08-07T08:25:28.605Z</time>
      </trkpt>
      <trkpt lat="46.9161" lon="8.67491">
        <ele>1964</ele>
        <time>2021-08-07T08:25:29.606Z</time>
      </trkpt>
      <trkpt lat="46.91609" lon="8.67492">
        <ele>1964</ele>
        <time>2021-08-07T08:25:30.606Z</time>
      </trkpt>
      <trkpt lat="46.91608" lon="8.67492">
        <ele>1963</ele>
        <time>2021-08-07T08:25:31.606Z</time>
      </trkpt>
      <trkpt lat="46.91607" lon="8.67493">
        <ele>1963</ele>
        <time>2021-08-07T08:25:32.606Z</time>
      </trkpt>
      <trkpt lat="46.91607" lon="8.67495">
        <ele>1963</ele>
        <time>2021-08-07T08:25:33.605Z</time>
      </trkpt>
      <trkpt lat="46.91606" lon="8.67496">
        <ele>1963</ele>
        <time>2021-08-07T08:25:34.606Z</time>
      </trkpt>
      <trkpt lat="46.91605" lon="8.67497">
        <ele>1963</ele>
        <time>2021-08-07T08:25:35.606Z</time>
      </trkpt>
      <trkpt lat="46.91605" lon="8.67499">
        <ele>1963</ele>
        <time>2021-08-07T08:25:36.605Z</time>
      </trkpt>
      <trkpt lat="46.91605" lon="8.675">
        <ele>1963</ele>
        <time>2021-08-07T08:25:37.605Z</time>
      </trkpt>
      <trkpt lat="46.91604" lon="8.67501">
        <ele>1962</ele>
        <time>2021-08-07T08:25:38.606Z</time>
      </trkpt>
      <trkpt lat="46.91604" lon="8.67502">
        <ele>1962</ele>
        <time>2021-08-07T08:25:39.606Z</time>
      </trkpt>
      <trkpt lat="46.91603" lon="8.67503">
        <ele>1961</ele>
        <time>2021-08-07T08:25:40.605Z</time>
      </trkpt>
      <trkpt lat="46.91602" lon="8.67504">
        <ele>1961</ele>
        <time>2021-08-07T08:25:41.605Z</time>
      </trkpt>
      <trkpt lat="46.91602" lon="8.67505">
        <ele>1960</ele>
        <time>2021-08-07T08:25:42.606Z</time>
      </trkpt>
      <trkpt lat="46.91601" lon="8.67506">
        <ele>1960</ele>
        <time>2021-08-07T08:25:43.605Z</time>
      </trkpt>
      <trkpt lat="46.916" lon="8.67507">
        <ele>1960</ele>
        <time>2021-08-07T08:25:44.606Z</time>
      </trkpt>
      <trkpt lat="46.916" lon="8.67507">
        <ele>1959</ele>
        <time>2021-08-07T08:25:45.605Z</time>
      </trkpt>
      <trkpt lat="46.91599" lon="8.67509">
        <ele>1959</ele>
        <time>2021-08-07T08:25:46.606Z</time>
      </trkpt>
      <trkpt lat="46.91598" lon="8.6751">
        <ele>1958</ele>
        <time>2021-08-07T08:25:47.605Z</time>
      </trkpt>
      <trkpt lat="46.91597" lon="8.6751">
        <ele>1958</ele>
        <time>2021-08-07T08:25:48.606Z</time>
      </trkpt>
      <trkpt lat="46.91596" lon="8.67512">
        <ele>1957</ele>
        <time>2021-08-07T08:25:49.606Z</time>
      </trkpt>
      <trkpt lat="46.91595" lon="8.67512">
        <ele>1957</ele>
        <time>2021-08-07T08:25:50.606Z</time>
      </trkpt>
      <trkpt lat="46.91595" lon="8.67513">
        <ele>1956</ele>
        <time>2021-08-07T08:25:51.606Z</time>
      </trkpt>
      <trkpt lat="46.91594" lon="8.67514">
        <ele>1956</ele>
        <time>2021-08-07T08:25:52.606Z</time>
      </trkpt>
      <trkpt lat="46.91593" lon="8.67515">
        <ele>1955</ele>
        <time>2021-08-07T08:25:53.606Z</time>
      </trkpt>
      <trkpt lat="46.91592" lon="8.67516">
        <ele>1955</ele>
        <time>2021-08-07T08:25:54.606Z</time>
      </trkpt>
      <trkpt lat="46.91591" lon="8.67517">
        <ele>1955</ele>
        <time>2021-08-07T08:25:55.606Z</time>
      </trkpt>
      <trkpt lat="46.9159" lon="8.67517">
        <ele>1955</ele>
        <time>2021-08-07T08:25:56.605Z</time>
      </trkpt>
      <trkpt lat="46.91589" lon="8.67518">
        <ele>1955</ele>
        <time>2021-08-07T08:25:57.606Z</time>
      </trkpt>
      <trkpt lat="46.91588" lon="8.67519">
        <ele>1955</ele>
        <time>2021-08-07T08:25:58.605Z</time>
      </trkpt>
      <trkpt lat="46.91587" lon="8.67519">
        <ele>1955</ele>
        <time>2021-08-07T08:25:59.606Z</time>
      </trkpt>
      <trkpt lat="46.91586" lon="8.6752">
        <ele>1955</ele>
        <time>2021-08-07T08:26:00.606Z</time>
      </trkpt>
      <trkpt lat="46.91585" lon="8.67521">
        <ele>1955</ele>
        <time>2021-08-07T08:26:01.605Z</time>
      </trkpt>
      <trkpt lat="46.91585" lon="8.67522">
        <ele>1955</ele>
        <time>2021-08-07T08:26:02.606Z</time>
      </trkpt>
      <trkpt lat="46.91584" lon="8.67523">
        <ele>1955</ele>
        <time>2021-08-07T08:26:03.606Z</time>
      </trkpt>
      <trkpt lat="46.91583" lon="8.67524">
        <ele>1955</ele>
        <time>2021-08-07T08:26:04.606Z</time>
      </trkpt>
      <trkpt lat="46.91582" lon="8.67525">
        <ele>1954</ele>
        <time>2021-08-07T08:26:05.605Z</time>
      </trkpt>
      <trkpt lat="46.91582" lon="8.67526">
        <ele>1954</ele>
        <time>2021-08-07T08:26:06.606Z</time>
      </trkpt>
      <trkpt lat="46.91581" lon="8.67527">
        <ele>1954</ele>
        <time>2021-08-07T08:26:07.605Z</time>
      </trkpt>
      <trkpt lat="46.9158" lon="8.67528">
        <ele>1954</ele>
        <time>2021-08-07T08:26:08.606Z</time>
      </trkpt>
      <trkpt lat="46.9158" lon="8.6753">
        <ele>1954</ele>
        <time>2021-08-07T08:26:09.606Z</time>
      </trkpt>
      <trkpt lat="46.91579" lon="8.67531">
        <ele>1954</ele>
        <time>2021-08-07T08:26:10.606Z</time>
      </trkpt>
      <trkpt lat="46.91579" lon="8.67531">
        <ele>1954</ele>
        <time>2021-08-07T08:26:11.605Z</time>
      </trkpt>
      <trkpt lat="46.91578" lon="8.67532">
        <ele>1954</ele>
        <time>2021-08-07T08:26:12.605Z</time>
      </trkpt>
      <trkpt lat="46.91578" lon="8.67534">
        <ele>1955</ele>
        <time>2021-08-07T08:26:13.606Z</time>
      </trkpt>
      <trkpt lat="46.91578" lon="8.67535">
        <ele>1955</ele>
        <time>2021-08-07T08:26:14.605Z</time>
      </trkpt>
      <trkpt lat="46.91577" lon="8.67536">
        <ele>1954</ele>
        <time>2021-08-07T08:26:15.606Z</time>
      </trkpt>
      <trkpt lat="46.91577" lon="8.67538">
        <ele>1954</ele>
        <time>2021-08-07T08:26:16.606Z</time>
      </trkpt>
      <trkpt lat="46.91576" lon="8.67539">
        <ele>1954</ele>
        <time>2021-08-07T08:26:17.606Z</time>
      </trkpt>
      <trkpt lat="46.91576" lon="8.6754">
        <ele>1954</ele>
        <time>2021-08-07T08:26:18.605Z</time>
      </trkpt>
      <trkpt lat="46.91576" lon="8.67542">
        <ele>1953</ele>
        <time>2021-08-07T08:26:19.606Z</time>
      </trkpt>
      <trkpt lat="46.91575" lon="8.67542">
        <ele>1953</ele>
        <time>2021-08-07T08:26:20.605Z</time>
      </trkpt>
      <trkpt lat="46.91575" lon="8.67544">
        <ele>1953</ele>
        <time>2021-08-07T08:26:21.606Z</time>
      </trkpt>
      <trkpt lat="46.91574" lon="8.67545">
        <ele>1953</ele>
        <time>2021-08-07T08:26:22.606Z</time>
      </trkpt>
      <trkpt lat="46.91574" lon="8.67546">
        <ele>1953</ele>
        <time>2021-08-07T08:26:23.606Z</time>
      </trkpt>
      <trkpt lat="46.91574" lon="8.67547">
        <ele>1952</ele>
        <time>2021-08-07T08:26:24.606Z</time>
      </trkpt>
      <trkpt lat="46.91573" lon="8.67549">
        <ele>1951</ele>
        <time>2021-08-07T08:26:25.605Z</time>
      </trkpt>
      <trkpt lat="46.91572" lon="8.6755">
        <ele>1951</ele>
        <time>2021-08-07T08:26:26.606Z</time>
      </trkpt>
      <trkpt lat="46.91572" lon="8.67551">
        <ele>1951</ele>
        <time>2021-08-07T08:26:27.605Z</time>
      </trkpt>
      <trkpt lat="46.91571" lon="8.67553">
        <ele>1950</ele>
        <time>2021-08-07T08:26:28.606Z</time>
      </trkpt>
      <trkpt lat="46.91571" lon="8.67554">
        <ele>1949</ele>
        <time>2021-08-07T08:26:29.605Z</time>
      </trkpt>
      <trkpt lat="46.9157" lon="8.67555">
        <ele>1949</ele>
        <time>2021-08-07T08:26:30.606Z</time>
      </trkpt>
      <trkpt lat="46.9157" lon="8.67556">
        <ele>1948</ele>
        <time>2021-08-07T08:26:31.605Z</time>
      </trkpt>
      <trkpt lat="46.91569" lon="8.67557">
        <ele>1948</ele>
        <time>2021-08-07T08:26:32.605Z</time>
      </trkpt>
      <trkpt lat="46.91569" lon="8.67558">
        <ele>1947</ele>
        <time>2021-08-07T08:26:33.605Z</time>
      </trkpt>
      <trkpt lat="46.91568" lon="8.67559">
        <ele>1947</ele>
        <time>2021-08-07T08:26:34.606Z</time>
      </trkpt>
      <trkpt lat="46.91567" lon="8.6756">
        <ele>1947</ele>
        <time>2021-08-07T08:26:35.605Z</time>
      </trkpt>
      <trkpt lat="46.91567" lon="8.67562">
        <ele>1947</ele>
        <time>2021-08-07T08:26:36.605Z</time>
      </trkpt>
      <trkpt lat="46.91566" lon="8.67563">
        <ele>1946</ele>
        <time>2021-08-07T08:26:37.605Z</time>
      </trkpt>
      <trkpt lat="46.91566" lon="8.67564">
        <ele>1945</ele>
        <time>2021-08-07T08:26:38.606Z</time>
      </trkpt>
      <trkpt lat="46.91565" lon="8.67565">
        <ele>1944</ele>
        <time>2021-08-07T08:26:39.605Z</time>
      </trkpt>
      <trkpt lat="46.91564" lon="8.67567">
        <ele>1943</ele>
        <time>2021-08-07T08:26:40.606Z</time>
      </trkpt>
      <trkpt lat="46.91564" lon="8.67568">
        <ele>1943</ele>
        <time>2021-08-07T08:26:41.606Z</time>
      </trkpt>
      <trkpt lat="46.91563" lon="8.67568">
        <ele>1942</ele>
        <time>2021-08-07T08:26:42.606Z</time>
      </trkpt>
      <trkpt lat="46.91563" lon="8.67569">
        <ele>1942</ele>
        <time>2021-08-07T08:26:43.606Z</time>
      </trkpt>
      <trkpt lat="46.91561" lon="8.6757">
        <ele>1941</ele>
        <time>2021-08-07T08:26:44.605Z</time>
      </trkpt>
      <trkpt lat="46.91561" lon="8.67571">
        <ele>1941</ele>
        <time>2021-08-07T08:26:45.606Z</time>
      </trkpt>
      <trkpt lat="46.9156" lon="8.67573">
        <ele>1941</ele>
        <time>2021-08-07T08:26:46.606Z</time>
      </trkpt>
      <trkpt lat="46.91559" lon="8.67574">
        <ele>1941</ele>
        <time>2021-08-07T08:26:47.606Z</time>
      </trkpt>
      <trkpt lat="46.91558" lon="8.67575">
        <ele>1942</ele>
        <time>2021-08-07T08:26:48.606Z</time>
      </trkpt>
      <trkpt lat="46.91557" lon="8.67576">
        <ele>1942</ele>
        <time>2021-08-07T08:26:49.605Z</time>
      </trkpt>
      <trkpt lat="46.91557" lon="8.67577">
        <ele>1942</ele>
        <time>2021-08-07T08:26:50.605Z</time>
      </trkpt>
      <trkpt lat="46.91556" lon="8.67578">
        <ele>1942</ele>
        <time>2021-08-07T08:26:51.605Z</time>
      </trkpt>
      <trkpt lat="46.91556" lon="8.6758">
        <ele>1942</ele>
        <time>2021-08-07T08:26:52.606Z</time>
      </trkpt>
      <trkpt lat="46.91555" lon="8.67581">
        <ele>1942</ele>
        <time>2021-08-07T08:26:53.605Z</time>
      </trkpt>
      <trkpt lat="46.91554" lon="8.67582">
        <ele>1942</ele>
        <time>2021-08-07T08:26:54.606Z</time>
      </trkpt>
      <trkpt lat="46.91553" lon="8.67583">
        <ele>1942</ele>
        <time>2021-08-07T08:26:55.605Z</time>
      </trkpt>
      <trkpt lat="46.91552" lon="8.67583">
        <ele>1942</ele>
        <time>2021-08-07T08:26:56.606Z</time>
      </trkpt>
      <trkpt lat="46.91552" lon="8.67584">
        <ele>1942</ele>
        <time>2021-08-07T08:26:57.606Z</time>
      </trkpt>
      <trkpt lat="46.91551" lon="8.67585">
        <ele>1942</ele>
        <time>2021-08-07T08:26:58.606Z</time>
      </trkpt>
      <trkpt lat="46.91551" lon="8.67585">
        <ele>1942</ele>
        <time>2021-08-07T08:26:59.606Z</time>
      </trkpt>
      <trkpt lat="46.91551" lon="8.67586">
        <ele>1942</ele>
        <time>2021-08-07T08:27:00.606Z</time>
      </trkpt>
      <trkpt lat="46.91551" lon="8.67585">
        <ele>1942</ele>
        <time>2021-08-07T08:27:01.605Z</time>
      </trkpt>
      <trkpt lat="46.91556" lon="8.67586">
        <ele>1945</ele>
        <time>2021-08-07T08:27:02.606Z</time>
      </trkpt>
      <trkpt lat="46.91555" lon="8.67586">
        <ele>1945</ele>
        <time>2021-08-07T08:27:03.606Z</time>
      </trkpt>
      <trkpt lat="46.91553" lon="8.67586">
        <ele>1945</ele>
        <time>2021-08-07T08:27:04.605Z</time>
      </trkpt>
      <trkpt lat="46.91552" lon="8.67586">
        <ele>1944</ele>
        <time>2021-08-07T08:27:05.606Z</time>
      </trkpt>
      <trkpt lat="46.91551" lon="8.67587">
        <ele>1944</ele>
        <time>2021-08-07T08:27:06.606Z</time>
      </trkpt>
      <trkpt lat="46.9155" lon="8.67588">
        <ele>1943</ele>
        <time>2021-08-07T08:27:07.606Z</time>
      </trkpt>
      <trkpt lat="46.91549" lon="8.67588">
        <ele>1943</ele>
        <time>2021-08-07T08:27:08.606Z</time>
      </trkpt>
      <trkpt lat="46.91548" lon="8.67589">
        <ele>1942</ele>
        <time>2021-08-07T08:27:09.606Z</time>
      </trkpt>
      <trkpt lat="46.91548" lon="8.67589">
        <ele>1941</ele>
        <time>2021-08-07T08:27:10.605Z</time>
      </trkpt>
      <trkpt lat="46.91547" lon="8.67589">
        <ele>1941</ele>
        <time>2021-08-07T08:27:11.605Z</time>
      </trkpt>
      <trkpt lat="46.91546" lon="8.6759">
        <ele>1940</ele>
        <time>2021-08-07T08:27:12.606Z</time>
      </trkpt>
      <trkpt lat="46.91546" lon="8.6759">
        <ele>1938</ele>
        <time>2021-08-07T08:27:13.605Z</time>
      </trkpt>
      <trkpt lat="46.91545" lon="8.67591">
        <ele>1937</ele>
        <time>2021-08-07T08:27:14.605Z</time>
      </trkpt>
      <trkpt lat="46.91544" lon="8.67592">
        <ele>1936</ele>
        <time>2021-08-07T08:27:15.605Z</time>
      </trkpt>
      <trkpt lat="46.91543" lon="8.67593">
        <ele>1935</ele>
        <time>2021-08-07T08:27:16.605Z</time>
      </trkpt>
      <trkpt lat="46.91542" lon="8.67593">
        <ele>1934</ele>
        <time>2021-08-07T08:27:17.605Z</time>
      </trkpt>
      <trkpt lat="46.91541" lon="8.67595">
        <ele>1933</ele>
        <time>2021-08-07T08:27:18.606Z</time>
      </trkpt>
      <trkpt lat="46.9154" lon="8.67596">
        <ele>1932</ele>
        <time>2021-08-07T08:27:19.605Z</time>
      </trkpt>
      <trkpt lat="46.91538" lon="8.67597">
        <ele>1931</ele>
        <time>2021-08-07T08:27:20.605Z</time>
      </trkpt>
      <trkpt lat="46.91538" lon="8.67599">
        <ele>1931</ele>
        <time>2021-08-07T08:27:21.605Z</time>
      </trkpt>
      <trkpt lat="46.91537" lon="8.67601">
        <ele>1930</ele>
        <time>2021-08-07T08:27:22.606Z</time>
      </trkpt>
      <trkpt lat="46.91536" lon="8.67602">
        <ele>1930</ele>
        <time>2021-08-07T08:27:23.605Z</time>
      </trkpt>
      <trkpt lat="46.91536" lon="8.67604">
        <ele>1930</ele>
        <time>2021-08-07T08:27:24.605Z</time>
      </trkpt>
      <trkpt lat="46.91535" lon="8.67605">
        <ele>1930</ele>
        <time>2021-08-07T08:27:25.605Z</time>
      </trkpt>
      <trkpt lat="46.91535" lon="8.67607">
        <ele>1930</ele>
        <time>2021-08-07T08:27:26.606Z</time>
      </trkpt>
      <trkpt lat="46.91535" lon="8.67609">
        <ele>1930</ele>
        <time>2021-08-07T08:27:27.605Z</time>
      </trkpt>
      <trkpt lat="46.91535" lon="8.6761">
        <ele>1930</ele>
        <time>2021-08-07T08:27:28.605Z</time>
      </trkpt>
      <trkpt lat="46.91534" lon="8.67611">
        <ele>1930</ele>
        <time>2021-08-07T08:27:29.605Z</time>
      </trkpt>
      <trkpt lat="46.91534" lon="8.67612">
        <ele>1931</ele>
        <time>2021-08-07T08:27:30.605Z</time>
      </trkpt>
      <trkpt lat="46.91534" lon="8.67612">
        <ele>1931</ele>
        <time>2021-08-07T08:27:31.605Z</time>
      </trkpt>
      <trkpt lat="46.91534" lon="8.67612">
        <ele>1931</ele>
        <time>2021-08-07T08:27:32.605Z</time>
      </trkpt>
      <trkpt lat="46.91534" lon="8.67615">
        <ele>1932</ele>
        <time>2021-08-07T08:27:33.607Z</time>
      </trkpt>
      <trkpt lat="46.91534" lon="8.67615">
        <ele>1931</ele>
        <time>2021-08-07T08:27:34.607Z</time>
      </trkpt>
      <trkpt lat="46.91534" lon="8.67616">
        <ele>1931</ele>
        <time>2021-08-07T08:27:35.606Z</time>
      </trkpt>
      <trkpt lat="46.91534" lon="8.67617">
        <ele>1931</ele>
        <time>2021-08-07T08:27:36.606Z</time>
      </trkpt>
      <trkpt lat="46.91534" lon="8.67618">
        <ele>1931</ele>
        <time>2021-08-07T08:27:37.607Z</time>
      </trkpt>
      <trkpt lat="46.91534" lon="8.6762">
        <ele>1931</ele>
        <time>2021-08-07T08:27:38.606Z</time>
      </trkpt>
      <trkpt lat="46.91533" lon="8.67621">
        <ele>1930</ele>
        <time>2021-08-07T08:27:39.607Z</time>
      </trkpt>
      <trkpt lat="46.91533" lon="8.67622">
        <ele>1930</ele>
        <time>2021-08-07T08:27:40.606Z</time>
      </trkpt>
      <trkpt lat="46.91532" lon="8.67623">
        <ele>1930</ele>
        <time>2021-08-07T08:27:41.606Z</time>
      </trkpt>
      <trkpt lat="46.91532" lon="8.67624">
        <ele>1930</ele>
        <time>2021-08-07T08:27:42.606Z</time>
      </trkpt>
      <trkpt lat="46.91532" lon="8.67625">
        <ele>1930</ele>
        <time>2021-08-07T08:27:43.606Z</time>
      </trkpt>
      <trkpt lat="46.91531" lon="8.67626">
        <ele>1930</ele>
        <time>2021-08-07T08:27:44.606Z</time>
      </trkpt>
      <trkpt lat="46.91531" lon="8.67628">
        <ele>1930</ele>
        <time>2021-08-07T08:27:45.606Z</time>
      </trkpt>
      <trkpt lat="46.9153" lon="8.6763">
        <ele>1930</ele>
        <time>2021-08-07T08:27:46.606Z</time>
      </trkpt>
      <trkpt lat="46.9153" lon="8.67632">
        <ele>1930</ele>
        <time>2021-08-07T08:27:47.606Z</time>
      </trkpt>
      <trkpt lat="46.9153" lon="8.67634">
        <ele>1930</ele>
        <time>2021-08-07T08:27:48.606Z</time>
      </trkpt>
      <trkpt lat="46.91529" lon="8.67635">
        <ele>1931</ele>
        <time>2021-08-07T08:27:49.606Z</time>
      </trkpt>
      <trkpt lat="46.91529" lon="8.67637">
        <ele>1931</ele>
        <time>2021-08-07T08:27:50.606Z</time>
      </trkpt>
      <trkpt lat="46.91529" lon="8.67638">
        <ele>1932</ele>
        <time>2021-08-07T08:27:51.607Z</time>
      </trkpt>
      <trkpt lat="46.91528" lon="8.6764">
        <ele>1932</ele>
        <time>2021-08-07T08:27:52.606Z</time>
      </trkpt>
      <trkpt lat="46.91528" lon="8.67641">
        <ele>1932</ele>
        <time>2021-08-07T08:27:53.606Z</time>
      </trkpt>
      <trkpt lat="46.91528" lon="8.67643">
        <ele>1932</ele>
        <time>2021-08-07T08:27:54.606Z</time>
      </trkpt>
      <trkpt lat="46.91528" lon="8.67643">
        <ele>1932</ele>
        <time>2021-08-07T08:27:55.606Z</time>
      </trkpt>
      <trkpt lat="46.91527" lon="8.67644">
        <ele>1932</ele>
        <time>2021-08-07T08:27:56.606Z</time>
      </trkpt>
      <trkpt lat="46.91527" lon="8.67644">
        <ele>1931</ele>
        <time>2021-08-07T08:27:57.607Z</time>
      </trkpt>
      <trkpt lat="46.91526" lon="8.67645">
        <ele>1931</ele>
        <time>2021-08-07T08:27:58.607Z</time>
      </trkpt>
      <trkpt lat="46.91526" lon="8.67645">
        <ele>1931</ele>
        <time>2021-08-07T08:27:59.606Z</time>
      </trkpt>
      <trkpt lat="46.91525" lon="8.67646">
        <ele>1931</ele>
        <time>2021-08-07T08:28:00.607Z</time>
      </trkpt>
      <trkpt lat="46.91524" lon="8.67647">
        <ele>1931</ele>
        <time>2021-08-07T08:28:01.607Z</time>
      </trkpt>
      <trkpt lat="46.91524" lon="8.67648">
        <ele>1931</ele>
        <time>2021-08-07T08:28:02.606Z</time>
      </trkpt>
      <trkpt lat="46.91523" lon="8.67649">
        <ele>1931</ele>
        <time>2021-08-07T08:28:03.607Z</time>
      </trkpt>
      <trkpt lat="46.91522" lon="8.67649">
        <ele>1931</ele>
        <time>2021-08-07T08:28:04.607Z</time>
      </trkpt>
      <trkpt lat="46.91522" lon="8.6765">
        <ele>1931</ele>
        <time>2021-08-07T08:28:05.607Z</time>
      </trkpt>
      <trkpt lat="46.91521" lon="8.67651">
        <ele>1931</ele>
        <time>2021-08-07T08:28:06.607Z</time>
      </trkpt>
      <trkpt lat="46.91521" lon="8.67652">
        <ele>1930</ele>
        <time>2021-08-07T08:28:07.607Z</time>
      </trkpt>
      <trkpt lat="46.9152" lon="8.67653">
        <ele>1930</ele>
        <time>2021-08-07T08:28:08.606Z</time>
      </trkpt>
      <trkpt lat="46.9152" lon="8.67654">
        <ele>1929</ele>
        <time>2021-08-07T08:28:09.607Z</time>
      </trkpt>
      <trkpt lat="46.91519" lon="8.67655">
        <ele>1928</ele>
        <time>2021-08-07T08:28:10.607Z</time>
      </trkpt>
      <trkpt lat="46.91518" lon="8.67656">
        <ele>1928</ele>
        <time>2021-08-07T08:28:11.606Z</time>
      </trkpt>
      <trkpt lat="46.91518" lon="8.67657">
        <ele>1927</ele>
        <time>2021-08-07T08:28:12.606Z</time>
      </trkpt>
      <trkpt lat="46.91517" lon="8.67658">
        <ele>1926</ele>
        <time>2021-08-07T08:28:13.607Z</time>
      </trkpt>
      <trkpt lat="46.91517" lon="8.67659">
        <ele>1925</ele>
        <time>2021-08-07T08:28:14.607Z</time>
      </trkpt>
      <trkpt lat="46.91517" lon="8.6766">
        <ele>1925</ele>
        <time>2021-08-07T08:28:15.606Z</time>
      </trkpt>
      <trkpt lat="46.91516" lon="8.67661">
        <ele>1924</ele>
        <time>2021-08-07T08:28:16.607Z</time>
      </trkpt>
      <trkpt lat="46.91516" lon="8.67662">
        <ele>1923</ele>
        <time>2021-08-07T08:28:17.606Z</time>
      </trkpt>
      <trkpt lat="46.91515" lon="8.67663">
        <ele>1922</ele>
        <time>2021-08-07T08:28:18.607Z</time>
      </trkpt>
      <trkpt lat="46.91514" lon="8.67665">
        <ele>1921</ele>
        <time>2021-08-07T08:28:19.607Z</time>
      </trkpt>
      <trkpt lat="46.91513" lon="8.67666">
        <ele>1921</ele>
        <time>2021-08-07T08:28:20.607Z</time>
      </trkpt>
      <trkpt lat="46.91513" lon="8.67668">
        <ele>1920</ele>
        <time>2021-08-07T08:28:21.607Z</time>
      </trkpt>
      <trkpt lat="46.91512" lon="8.67669">
        <ele>1920</ele>
        <time>2021-08-07T08:28:22.606Z</time>
      </trkpt>
      <trkpt lat="46.91512" lon="8.6767">
        <ele>1920</ele>
        <time>2021-08-07T08:28:23.606Z</time>
      </trkpt>
      <trkpt lat="46.91511" lon="8.67672">
        <ele>1920</ele>
        <time>2021-08-07T08:28:24.606Z</time>
      </trkpt>
      <trkpt lat="46.91511" lon="8.67674">
        <ele>1920</ele>
        <time>2021-08-07T08:28:25.607Z</time>
      </trkpt>
      <trkpt lat="46.91511" lon="8.67675">
        <ele>1920</ele>
        <time>2021-08-07T08:28:26.607Z</time>
      </trkpt>
      <trkpt lat="46.9151" lon="8.67677">
        <ele>1919</ele>
        <time>2021-08-07T08:28:27.606Z</time>
      </trkpt>
      <trkpt lat="46.9151" lon="8.67678">
        <ele>1919</ele>
        <time>2021-08-07T08:28:28.606Z</time>
      </trkpt>
      <trkpt lat="46.9151" lon="8.6768">
        <ele>1919</ele>
        <time>2021-08-07T08:28:29.607Z</time>
      </trkpt>
      <trkpt lat="46.91509" lon="8.6768">
        <ele>1918</ele>
        <time>2021-08-07T08:28:30.606Z</time>
      </trkpt>
      <trkpt lat="46.91509" lon="8.6768">
        <ele>1918</ele>
        <time>2021-08-07T08:28:31.607Z</time>
      </trkpt>
      <trkpt lat="46.91509" lon="8.67682">
        <ele>1917</ele>
        <time>2021-08-07T08:28:32.607Z</time>
      </trkpt>
      <trkpt lat="46.91509" lon="8.67684">
        <ele>1916</ele>
        <time>2021-08-07T08:28:33.607Z</time>
      </trkpt>
      <trkpt lat="46.91508" lon="8.67685">
        <ele>1916</ele>
        <time>2021-08-07T08:28:34.607Z</time>
      </trkpt>
      <trkpt lat="46.91508" lon="8.67686">
        <ele>1915</ele>
        <time>2021-08-07T08:28:35.607Z</time>
      </trkpt>
      <trkpt lat="46.91509" lon="8.67687">
        <ele>1914</ele>
        <time>2021-08-07T08:28:36.607Z</time>
      </trkpt>
      <trkpt lat="46.91509" lon="8.67688">
        <ele>1914</ele>
        <time>2021-08-07T08:28:37.606Z</time>
      </trkpt>
      <trkpt lat="46.91509" lon="8.67689">
        <ele>1913</ele>
        <time>2021-08-07T08:28:38.607Z</time>
      </trkpt>
      <trkpt lat="46.91509" lon="8.67689">
        <ele>1913</ele>
        <time>2021-08-07T08:28:39.606Z</time>
      </trkpt>
      <trkpt lat="46.91509" lon="8.6769">
        <ele>1912</ele>
        <time>2021-08-07T08:28:40.607Z</time>
      </trkpt>
      <trkpt lat="46.91509" lon="8.67691">
        <ele>1912</ele>
        <time>2021-08-07T08:28:41.606Z</time>
      </trkpt>
      <trkpt lat="46.91509" lon="8.67692">
        <ele>1912</ele>
        <time>2021-08-07T08:28:42.607Z</time>
      </trkpt>
      <trkpt lat="46.91508" lon="8.67692">
        <ele>1912</ele>
        <time>2021-08-07T08:28:43.607Z</time>
      </trkpt>
      <trkpt lat="46.91508" lon="8.67693">
        <ele>1912</ele>
        <time>2021-08-07T08:28:44.607Z</time>
      </trkpt>
      <trkpt lat="46.91508" lon="8.67694">
        <ele>1912</ele>
        <time>2021-08-07T08:28:45.606Z</time>
      </trkpt>
      <trkpt lat="46.91509" lon="8.67694">
        <ele>1911</ele>
        <time>2021-08-07T08:28:46.606Z</time>
      </trkpt>
      <trkpt lat="46.91509" lon="8.67695">
        <ele>1911</ele>
        <time>2021-08-07T08:28:47.607Z</time>
      </trkpt>
      <trkpt lat="46.91508" lon="8.67697">
        <ele>1910</ele>
        <time>2021-08-07T08:28:48.607Z</time>
      </trkpt>
      <trkpt lat="46.91508" lon="8.67698">
        <ele>1910</ele>
        <time>2021-08-07T08:28:49.607Z</time>
      </trkpt>
      <trkpt lat="46.91507" lon="8.67699">
        <ele>1909</ele>
        <time>2021-08-07T08:28:50.606Z</time>
      </trkpt>
      <trkpt lat="46.91507" lon="8.67699">
        <ele>1909</ele>
        <time>2021-08-07T08:28:51.607Z</time>
      </trkpt>
      <trkpt lat="46.91507" lon="8.677">
        <ele>1909</ele>
        <time>2021-08-07T08:28:52.607Z</time>
      </trkpt>
      <trkpt lat="46.91506" lon="8.67701">
        <ele>1909</ele>
        <time>2021-08-07T08:28:53.606Z</time>
      </trkpt>
      <trkpt lat="46.91506" lon="8.67702">
        <ele>1909</ele>
        <time>2021-08-07T08:28:54.607Z</time>
      </trkpt>
      <trkpt lat="46.91506" lon="8.67702">
        <ele>1909</ele>
        <time>2021-08-07T08:28:55.606Z</time>
      </trkpt>
      <trkpt lat="46.91506" lon="8.67704">
        <ele>1909</ele>
        <time>2021-08-07T08:28:56.606Z</time>
      </trkpt>
      <trkpt lat="46.91506" lon="8.67705">
        <ele>1909</ele>
        <time>2021-08-07T08:28:57.607Z</time>
      </trkpt>
      <trkpt lat="46.91506" lon="8.67705">
        <ele>1909</ele>
        <time>2021-08-07T08:28:58.607Z</time>
      </trkpt>
      <trkpt lat="46.91505" lon="8.67704">
        <ele>1909</ele>
        <time>2021-08-07T08:28:59.607Z</time>
      </trkpt>
      <trkpt lat="46.91505" lon="8.67705">
        <ele>1909</ele>
        <time>2021-08-07T08:29:00.607Z</time>
      </trkpt>
      <trkpt lat="46.91505" lon="8.67707">
        <ele>1909</ele>
        <time>2021-08-07T08:29:01.607Z</time>
      </trkpt>
      <trkpt lat="46.91505" lon="8.67707">
        <ele>1909</ele>
        <time>2021-08-07T08:29:02.607Z</time>
      </trkpt>
      <trkpt lat="46.91505" lon="8.67707">
        <ele>1909</ele>
        <time>2021-08-07T08:29:03.606Z</time>
      </trkpt>
      <trkpt lat="46.91504" lon="8.67707">
        <ele>1910</ele>
        <time>2021-08-07T08:29:04.607Z</time>
      </trkpt>
      <trkpt lat="46.91504" lon="8.67707">
        <ele>1911</ele>
        <time>2021-08-07T08:29:05.606Z</time>
      </trkpt>
      <trkpt lat="46.91504" lon="8.67708">
        <ele>1911</ele>
        <time>2021-08-07T08:29:06.606Z</time>
      </trkpt>
      <trkpt lat="46.91504" lon="8.67708">
        <ele>1911</ele>
        <time>2021-08-07T08:29:07.607Z</time>
      </trkpt>
      <trkpt lat="46.91504" lon="8.67708">
        <ele>1912</ele>
        <time>2021-08-07T08:29:08.607Z</time>
      </trkpt>
      <trkpt lat="46.91503" lon="8.67708">
        <ele>1912</ele>
        <time>2021-08-07T08:29:09.606Z</time>
      </trkpt>
      <trkpt lat="46.91502" lon="8.67707">
        <ele>1913</ele>
        <time>2021-08-07T08:29:10.607Z</time>
      </trkpt>
      <trkpt lat="46.91502" lon="8.67707">
        <ele>1914</ele>
        <time>2021-08-07T08:29:11.606Z</time>
      </trkpt>
      <trkpt lat="46.91501" lon="8.67707">
        <ele>1914</ele>
        <time>2021-08-07T08:29:12.607Z</time>
      </trkpt>
      <trkpt lat="46.915" lon="8.67708">
        <ele>1914</ele>
        <time>2021-08-07T08:29:13.606Z</time>
      </trkpt>
      <trkpt lat="46.915" lon="8.67708">
        <ele>1915</ele>
        <time>2021-08-07T08:29:14.607Z</time>
      </trkpt>
      <trkpt lat="46.91499" lon="8.67708">
        <ele>1915</ele>
        <time>2021-08-07T08:29:15.606Z</time>
      </trkpt>
      <trkpt lat="46.91498" lon="8.67708">
        <ele>1916</ele>
        <time>2021-08-07T08:29:16.607Z</time>
      </trkpt>
      <trkpt lat="46.91497" lon="8.67708">
        <ele>1917</ele>
        <time>2021-08-07T08:29:17.607Z</time>
      </trkpt>
      <trkpt lat="46.91497" lon="8.67707">
        <ele>1917</ele>
        <time>2021-08-07T08:29:18.607Z</time>
      </trkpt>
      <trkpt lat="46.91496" lon="8.67706">
        <ele>1918</ele>
        <time>2021-08-07T08:29:19.606Z</time>
      </trkpt>
      <trkpt lat="46.91495" lon="8.67706">
        <ele>1919</ele>
        <time>2021-08-07T08:29:20.607Z</time>
      </trkpt>
      <trkpt lat="46.91495" lon="8.67706">
        <ele>1919</ele>
        <time>2021-08-07T08:29:21.607Z</time>
      </trkpt>
      <trkpt lat="46.91494" lon="8.67706">
        <ele>1920</ele>
        <time>2021-08-07T08:29:22.606Z</time>
      </trkpt>
      <trkpt lat="46.91493" lon="8.67706">
        <ele>1921</ele>
        <time>2021-08-07T08:29:23.607Z</time>
      </trkpt>
      <trkpt lat="46.91492" lon="8.67706">
        <ele>1921</ele>
        <time>2021-08-07T08:29:24.606Z</time>
      </trkpt>
      <trkpt lat="46.91492" lon="8.67705">
        <ele>1922</ele>
        <time>2021-08-07T08:29:25.607Z</time>
      </trkpt>
      <trkpt lat="46.91491" lon="8.67705">
        <ele>1923</ele>
        <time>2021-08-07T08:29:26.607Z</time>
      </trkpt>
      <trkpt lat="46.9149" lon="8.67705">
        <ele>1924</ele>
        <time>2021-08-07T08:29:27.606Z</time>
      </trkpt>
      <trkpt lat="46.91489" lon="8.67706">
        <ele>1925</ele>
        <time>2021-08-07T08:29:28.607Z</time>
      </trkpt>
      <trkpt lat="46.91488" lon="8.67707">
        <ele>1925</ele>
        <time>2021-08-07T08:29:29.607Z</time>
      </trkpt>
      <trkpt lat="46.91488" lon="8.67708">
        <ele>1925</ele>
        <time>2021-08-07T08:29:30.607Z</time>
      </trkpt>
      <trkpt lat="46.91487" lon="8.67709">
        <ele>1925</ele>
        <time>2021-08-07T08:29:31.607Z</time>
      </trkpt>
      <trkpt lat="46.91487" lon="8.6771">
        <ele>1924</ele>
        <time>2021-08-07T08:29:32.607Z</time>
      </trkpt>
      <trkpt lat="46.91487" lon="8.6771">
        <ele>1923</ele>
        <time>2021-08-07T08:29:33.606Z</time>
      </trkpt>
      <trkpt lat="46.91487" lon="8.6771">
        <ele>1923</ele>
        <time>2021-08-07T08:29:34.606Z</time>
      </trkpt>
      <trkpt lat="46.91486" lon="8.6771">
        <ele>1922</ele>
        <time>2021-08-07T08:29:35.607Z</time>
      </trkpt>
      <trkpt lat="46.91485" lon="8.6771">
        <ele>1922</ele>
        <time>2021-08-07T08:29:36.607Z</time>
      </trkpt>
      <trkpt lat="46.91484" lon="8.67708">
        <ele>1922</ele>
        <time>2021-08-07T08:29:37.607Z</time>
      </trkpt>
      <trkpt lat="46.91484" lon="8.67708">
        <ele>1922</ele>
        <time>2021-08-07T08:29:38.606Z</time>
      </trkpt>
      <trkpt lat="46.91484" lon="8.67707">
        <ele>1922</ele>
        <time>2021-08-07T08:29:39.606Z</time>
      </trkpt>
      <trkpt lat="46.91482" lon="8.67706">
        <ele>1922</ele>
        <time>2021-08-07T08:29:40.607Z</time>
      </trkpt>
      <trkpt lat="46.91481" lon="8.67707">
        <ele>1922</ele>
        <time>2021-08-07T08:29:41.608Z</time>
      </trkpt>
      <trkpt lat="46.9148" lon="8.67707">
        <ele>1921</ele>
        <time>2021-08-07T08:29:42.607Z</time>
      </trkpt>
      <trkpt lat="46.91479" lon="8.67708">
        <ele>1921</ele>
        <time>2021-08-07T08:29:43.607Z</time>
      </trkpt>
      <trkpt lat="46.91478" lon="8.6771">
        <ele>1920</ele>
        <time>2021-08-07T08:29:44.608Z</time>
      </trkpt>
      <trkpt lat="46.91477" lon="8.6771">
        <ele>1920</ele>
        <time>2021-08-07T08:29:45.608Z</time>
      </trkpt>
      <trkpt lat="46.91476" lon="8.67711">
        <ele>1919</ele>
        <time>2021-08-07T08:29:46.607Z</time>
      </trkpt>
      <trkpt lat="46.91475" lon="8.67712">
        <ele>1919</ele>
        <time>2021-08-07T08:29:47.608Z</time>
      </trkpt>
      <trkpt lat="46.91475" lon="8.67713">
        <ele>1919</ele>
        <time>2021-08-07T08:29:48.608Z</time>
      </trkpt>
      <trkpt lat="46.91475" lon="8.67713">
        <ele>1918</ele>
        <time>2021-08-07T08:29:49.608Z</time>
      </trkpt>
      <trkpt lat="46.91475" lon="8.67714">
        <ele>1918</ele>
        <time>2021-08-07T08:29:50.608Z</time>
      </trkpt>
      <trkpt lat="46.91475" lon="8.67714">
        <ele>1918</ele>
        <time>2021-08-07T08:29:51.608Z</time>
      </trkpt>
      <trkpt lat="46.91479" lon="8.67716">
        <ele>1918</ele>
        <time>2021-08-07T08:29:52.608Z</time>
      </trkpt>
      <trkpt lat="46.91479" lon="8.67715">
        <ele>1918</ele>
        <time>2021-08-07T08:29:53.607Z</time>
      </trkpt>
      <trkpt lat="46.91479" lon="8.67717">
        <ele>1917</ele>
        <time>2021-08-07T08:29:54.607Z</time>
      </trkpt>
      <trkpt lat="46.91479" lon="8.67718">
        <ele>1917</ele>
        <time>2021-08-07T08:29:55.607Z</time>
      </trkpt>
      <trkpt lat="46.91478" lon="8.67719">
        <ele>1916</ele>
        <time>2021-08-07T08:29:56.607Z</time>
      </trkpt>
      <trkpt lat="46.91478" lon="8.6772">
        <ele>1915</ele>
        <time>2021-08-07T08:29:57.607Z</time>
      </trkpt>
      <trkpt lat="46.91478" lon="8.67721">
        <ele>1914</ele>
        <time>2021-08-07T08:29:58.607Z</time>
      </trkpt>
      <trkpt lat="46.91477" lon="8.67722">
        <ele>1913</ele>
        <time>2021-08-07T08:29:59.608Z</time>
      </trkpt>
      <trkpt lat="46.91477" lon="8.67723">
        <ele>1912</ele>
        <time>2021-08-07T08:30:00.607Z</time>
      </trkpt>
      <trkpt lat="46.91476" lon="8.67723">
        <ele>1911</ele>
        <time>2021-08-07T08:30:01.607Z</time>
      </trkpt>
      <trkpt lat="46.91476" lon="8.67724">
        <ele>1911</ele>
        <time>2021-08-07T08:30:02.607Z</time>
      </trkpt>
      <trkpt lat="46.91476" lon="8.67725">
        <ele>1911</ele>
        <time>2021-08-07T08:30:03.607Z</time>
      </trkpt>
      <trkpt lat="46.91476" lon="8.67726">
        <ele>1911</ele>
        <time>2021-08-07T08:30:04.607Z</time>
      </trkpt>
      <trkpt lat="46.91475" lon="8.67726">
        <ele>1911</ele>
        <time>2021-08-07T08:30:05.607Z</time>
      </trkpt>
      <trkpt lat="46.91475" lon="8.67727">
        <ele>1911</ele>
        <time>2021-08-07T08:30:06.607Z</time>
      </trkpt>
      <trkpt lat="46.91474" lon="8.67728">
        <ele>1911</ele>
        <time>2021-08-07T08:30:07.607Z</time>
      </trkpt>
      <trkpt lat="46.91474" lon="8.6773">
        <ele>1910</ele>
        <time>2021-08-07T08:30:08.607Z</time>
      </trkpt>
      <trkpt lat="46.91473" lon="8.67732">
        <ele>1910</ele>
        <time>2021-08-07T08:30:09.607Z</time>
      </trkpt>
      <trkpt lat="46.91472" lon="8.67733">
        <ele>1910</ele>
        <time>2021-08-07T08:30:10.607Z</time>
      </trkpt>
      <trkpt lat="46.91472" lon="8.67735">
        <ele>1909</ele>
        <time>2021-08-07T08:30:11.607Z</time>
      </trkpt>
      <trkpt lat="46.91471" lon="8.67737">
        <ele>1909</ele>
        <time>2021-08-07T08:30:12.607Z</time>
      </trkpt>
      <trkpt lat="46.91471" lon="8.67738">
        <ele>1908</ele>
        <time>2021-08-07T08:30:13.607Z</time>
      </trkpt>
      <trkpt lat="46.9147" lon="8.67739">
        <ele>1907</ele>
        <time>2021-08-07T08:30:14.607Z</time>
      </trkpt>
      <trkpt lat="46.9147" lon="8.6774">
        <ele>1906</ele>
        <time>2021-08-07T08:30:15.607Z</time>
      </trkpt>
      <trkpt lat="46.91469" lon="8.67742">
        <ele>1906</ele>
        <time>2021-08-07T08:30:16.607Z</time>
      </trkpt>
      <trkpt lat="46.91468" lon="8.67742">
        <ele>1905</ele>
        <time>2021-08-07T08:30:17.607Z</time>
      </trkpt>
      <trkpt lat="46.91468" lon="8.67743">
        <ele>1905</ele>
        <time>2021-08-07T08:30:18.608Z</time>
      </trkpt>
      <trkpt lat="46.91467" lon="8.67743">
        <ele>1905</ele>
        <time>2021-08-07T08:30:19.607Z</time>
      </trkpt>
      <trkpt lat="46.91466" lon="8.67743">
        <ele>1905</ele>
        <time>2021-08-07T08:30:20.607Z</time>
      </trkpt>
      <trkpt lat="46.91465" lon="8.67744">
        <ele>1905</ele>
        <time>2021-08-07T08:30:21.607Z</time>
      </trkpt>
      <trkpt lat="46.91464" lon="8.67745">
        <ele>1905</ele>
        <time>2021-08-07T08:30:22.607Z</time>
      </trkpt>
      <trkpt lat="46.91464" lon="8.67745">
        <ele>1905</ele>
        <time>2021-08-07T08:30:23.607Z</time>
      </trkpt>
      <trkpt lat="46.91463" lon="8.67746">
        <ele>1905</ele>
        <time>2021-08-07T08:30:24.607Z</time>
      </trkpt>
      <trkpt lat="46.91462" lon="8.67747">
        <ele>1905</ele>
        <time>2021-08-07T08:30:25.607Z</time>
      </trkpt>
      <trkpt lat="46.91461" lon="8.67748">
        <ele>1904</ele>
        <time>2021-08-07T08:30:26.607Z</time>
      </trkpt>
      <trkpt lat="46.91461" lon="8.67748">
        <ele>1904</ele>
        <time>2021-08-07T08:30:27.607Z</time>
      </trkpt>
      <trkpt lat="46.9146" lon="8.67749">
        <ele>1904</ele>
        <time>2021-08-07T08:30:28.607Z</time>
      </trkpt>
      <trkpt lat="46.9146" lon="8.67749">
        <ele>1903</ele>
        <time>2021-08-07T08:30:29.607Z</time>
      </trkpt>
      <trkpt lat="46.91459" lon="8.6775">
        <ele>1903</ele>
        <time>2021-08-07T08:30:30.608Z</time>
      </trkpt>
      <trkpt lat="46.91459" lon="8.6775">
        <ele>1903</ele>
        <time>2021-08-07T08:30:31.608Z</time>
      </trkpt>
      <trkpt lat="46.91458" lon="8.67751">
        <ele>1903</ele>
        <time>2021-08-07T08:30:32.607Z</time>
      </trkpt>
      <trkpt lat="46.91457" lon="8.67751">
        <ele>1904</ele>
        <time>2021-08-07T08:30:33.607Z</time>
      </trkpt>
      <trkpt lat="46.91456" lon="8.67751">
        <ele>1904</ele>
        <time>2021-08-07T08:30:34.608Z</time>
      </trkpt>
      <trkpt lat="46.91456" lon="8.67751">
        <ele>1905</ele>
        <time>2021-08-07T08:30:35.608Z</time>
      </trkpt>
      <trkpt lat="46.91455" lon="8.67751">
        <ele>1906</ele>
        <time>2021-08-07T08:30:36.607Z</time>
      </trkpt>
      <trkpt lat="46.91454" lon="8.6775">
        <ele>1906</ele>
        <time>2021-08-07T08:30:37.607Z</time>
      </trkpt>
      <trkpt lat="46.91453" lon="8.6775">
        <ele>1907</ele>
        <time>2021-08-07T08:30:38.607Z</time>
      </trkpt>
      <trkpt lat="46.91453" lon="8.67751">
        <ele>1907</ele>
        <time>2021-08-07T08:30:39.608Z</time>
      </trkpt>
      <trkpt lat="46.91452" lon="8.67753">
        <ele>1906</ele>
        <time>2021-08-07T08:30:40.608Z</time>
      </trkpt>
      <trkpt lat="46.91451" lon="8.67755">
        <ele>1906</ele>
        <time>2021-08-07T08:30:41.607Z</time>
      </trkpt>
      <trkpt lat="46.91451" lon="8.67757">
        <ele>1905</ele>
        <time>2021-08-07T08:30:42.607Z</time>
      </trkpt>
      <trkpt lat="46.9145" lon="8.67758">
        <ele>1905</ele>
        <time>2021-08-07T08:30:43.607Z</time>
      </trkpt>
      <trkpt lat="46.9145" lon="8.67759">
        <ele>1904</ele>
        <time>2021-08-07T08:30:44.608Z</time>
      </trkpt>
      <trkpt lat="46.91449" lon="8.6776">
        <ele>1903</ele>
        <time>2021-08-07T08:30:45.608Z</time>
      </trkpt>
      <trkpt lat="46.91448" lon="8.67761">
        <ele>1903</ele>
        <time>2021-08-07T08:30:46.607Z</time>
      </trkpt>
      <trkpt lat="46.91448" lon="8.67762">
        <ele>1902</ele>
        <time>2021-08-07T08:30:47.607Z</time>
      </trkpt>
      <trkpt lat="46.91448" lon="8.67764">
        <ele>1901</ele>
        <time>2021-08-07T08:30:48.607Z</time>
      </trkpt>
      <trkpt lat="46.91447" lon="8.67765">
        <ele>1901</ele>
        <time>2021-08-07T08:30:49.607Z</time>
      </trkpt>
      <trkpt lat="46.91446" lon="8.67766">
        <ele>1900</ele>
        <time>2021-08-07T08:30:50.608Z</time>
      </trkpt>
      <trkpt lat="46.91445" lon="8.67768">
        <ele>1899</ele>
        <time>2021-08-07T08:30:51.608Z</time>
      </trkpt>
      <trkpt lat="46.91444" lon="8.67768">
        <ele>1898</ele>
        <time>2021-08-07T08:30:52.608Z</time>
      </trkpt>
      <trkpt lat="46.91443" lon="8.67769">
        <ele>1898</ele>
        <time>2021-08-07T08:30:53.607Z</time>
      </trkpt>
      <trkpt lat="46.91443" lon="8.67769">
        <ele>1898</ele>
        <time>2021-08-07T08:30:54.607Z</time>
      </trkpt>
      <trkpt lat="46.91442" lon="8.67769">
        <ele>1898</ele>
        <time>2021-08-07T08:30:55.607Z</time>
      </trkpt>
      <trkpt lat="46.91442" lon="8.67769">
        <ele>1898</ele>
        <time>2021-08-07T08:30:56.607Z</time>
      </trkpt>
      <trkpt lat="46.91441" lon="8.67769">
        <ele>1898</ele>
        <time>2021-08-07T08:30:57.607Z</time>
      </trkpt>
      <trkpt lat="46.9144" lon="8.6777">
        <ele>1898</ele>
        <time>2021-08-07T08:30:58.607Z</time>
      </trkpt>
      <trkpt lat="46.9144" lon="8.6777">
        <ele>1897</ele>
        <time>2021-08-07T08:30:59.607Z</time>
      </trkpt>
      <trkpt lat="46.91439" lon="8.6777">
        <ele>1896</ele>
        <time>2021-08-07T08:31:00.607Z</time>
      </trkpt>
      <trkpt lat="46.91438" lon="8.6777">
        <ele>1896</ele>
        <time>2021-08-07T08:31:01.608Z</time>
      </trkpt>
      <trkpt lat="46.91437" lon="8.67771">
        <ele>1896</ele>
        <time>2021-08-07T08:31:02.608Z</time>
      </trkpt>
      <trkpt lat="46.91436" lon="8.67771">
        <ele>1896</ele>
        <time>2021-08-07T08:31:03.608Z</time>
      </trkpt>
      <trkpt lat="46.91435" lon="8.67771">
        <ele>1895</ele>
        <time>2021-08-07T08:31:04.608Z</time>
      </trkpt>
      <trkpt lat="46.91435" lon="8.67772">
        <ele>1895</ele>
        <time>2021-08-07T08:31:05.608Z</time>
      </trkpt>
      <trkpt lat="46.91434" lon="8.67773">
        <ele>1894</ele>
        <time>2021-08-07T08:31:06.607Z</time>
      </trkpt>
      <trkpt lat="46.91434" lon="8.67774">
        <ele>1893</ele>
        <time>2021-08-07T08:31:07.607Z</time>
      </trkpt>
      <trkpt lat="46.91433" lon="8.67775">
        <ele>1893</ele>
        <time>2021-08-07T08:31:08.608Z</time>
      </trkpt>
      <trkpt lat="46.91433" lon="8.67775">
        <ele>1892</ele>
        <time>2021-08-07T08:31:09.607Z</time>
      </trkpt>
      <trkpt lat="46.91432" lon="8.67776">
        <ele>1892</ele>
        <time>2021-08-07T08:31:10.608Z</time>
      </trkpt>
      <trkpt lat="46.91431" lon="8.67776">
        <ele>1891</ele>
        <time>2021-08-07T08:31:11.608Z</time>
      </trkpt>
      <trkpt lat="46.9143" lon="8.67776">
        <ele>1891</ele>
        <time>2021-08-07T08:31:12.608Z</time>
      </trkpt>
      <trkpt lat="46.9143" lon="8.67777">
        <ele>1891</ele>
        <time>2021-08-07T08:31:13.608Z</time>
      </trkpt>
      <trkpt lat="46.91429" lon="8.67777">
        <ele>1891</ele>
        <time>2021-08-07T08:31:14.608Z</time>
      </trkpt>
      <trkpt lat="46.91428" lon="8.67778">
        <ele>1890</ele>
        <time>2021-08-07T08:31:15.608Z</time>
      </trkpt>
      <trkpt lat="46.91428" lon="8.67779">
        <ele>1889</ele>
        <time>2021-08-07T08:31:16.608Z</time>
      </trkpt>
      <trkpt lat="46.91428" lon="8.6778">
        <ele>1889</ele>
        <time>2021-08-07T08:31:17.608Z</time>
      </trkpt>
      <trkpt lat="46.91427" lon="8.67781">
        <ele>1888</ele>
        <time>2021-08-07T08:31:18.608Z</time>
      </trkpt>
      <trkpt lat="46.91426" lon="8.67782">
        <ele>1888</ele>
        <time>2021-08-07T08:31:19.607Z</time>
      </trkpt>
      <trkpt lat="46.91426" lon="8.67783">
        <ele>1887</ele>
        <time>2021-08-07T08:31:20.608Z</time>
      </trkpt>
      <trkpt lat="46.91425" lon="8.67783">
        <ele>1887</ele>
        <time>2021-08-07T08:31:21.608Z</time>
      </trkpt>
      <trkpt lat="46.91425" lon="8.67784">
        <ele>1888</ele>
        <time>2021-08-07T08:31:22.608Z</time>
      </trkpt>
      <trkpt lat="46.91425" lon="8.67786">
        <ele>1888</ele>
        <time>2021-08-07T08:31:23.608Z</time>
      </trkpt>
      <trkpt lat="46.91424" lon="8.67787">
        <ele>1888</ele>
        <time>2021-08-07T08:31:24.608Z</time>
      </trkpt>
      <trkpt lat="46.91424" lon="8.67787">
        <ele>1887</ele>
        <time>2021-08-07T08:31:25.607Z</time>
      </trkpt>
      <trkpt lat="46.91423" lon="8.67787">
        <ele>1887</ele>
        <time>2021-08-07T08:31:26.608Z</time>
      </trkpt>
      <trkpt lat="46.91423" lon="8.67786">
        <ele>1887</ele>
        <time>2021-08-07T08:31:27.607Z</time>
      </trkpt>
      <trkpt lat="46.91423" lon="8.67785">
        <ele>1887</ele>
        <time>2021-08-07T08:31:28.608Z</time>
      </trkpt>
      <trkpt lat="46.91423" lon="8.67784">
        <ele>1887</ele>
        <time>2021-08-07T08:31:29.608Z</time>
      </trkpt>
      <trkpt lat="46.91423" lon="8.67783">
        <ele>1887</ele>
        <time>2021-08-07T08:31:30.607Z</time>
      </trkpt>
      <trkpt lat="46.91424" lon="8.67782">
        <ele>1887</ele>
        <time>2021-08-07T08:31:31.607Z</time>
      </trkpt>
      <trkpt lat="46.91423" lon="8.67781">
        <ele>1887</ele>
        <time>2021-08-07T08:31:32.608Z</time>
      </trkpt>
      <trkpt lat="46.91424" lon="8.67779">
        <ele>1887</ele>
        <time>2021-08-07T08:31:33.607Z</time>
      </trkpt>
      <trkpt lat="46.91424" lon="8.67778">
        <ele>1887</ele>
        <time>2021-08-07T08:31:34.608Z</time>
      </trkpt>
      <trkpt lat="46.91424" lon="8.67776">
        <ele>1887</ele>
        <time>2021-08-07T08:31:35.607Z</time>
      </trkpt>
      <trkpt lat="46.91424" lon="8.67775">
        <ele>1887</ele>
        <time>2021-08-07T08:31:36.608Z</time>
      </trkpt>
      <trkpt lat="46.91424" lon="8.67774">
        <ele>1887</ele>
        <time>2021-08-07T08:31:37.607Z</time>
      </trkpt>
      <trkpt lat="46.91424" lon="8.67773">
        <ele>1887</ele>
        <time>2021-08-07T08:31:38.608Z</time>
      </trkpt>
      <trkpt lat="46.91424" lon="8.67772">
        <ele>1887</ele>
        <time>2021-08-07T08:31:39.608Z</time>
      </trkpt>
      <trkpt lat="46.91424" lon="8.6777">
        <ele>1886</ele>
        <time>2021-08-07T08:31:40.607Z</time>
      </trkpt>
      <trkpt lat="46.91425" lon="8.67769">
        <ele>1886</ele>
        <time>2021-08-07T08:31:41.607Z</time>
      </trkpt>
      <trkpt lat="46.91425" lon="8.67768">
        <ele>1887</ele>
        <time>2021-08-07T08:31:42.608Z</time>
      </trkpt>
      <trkpt lat="46.91426" lon="8.67766">
        <ele>1887</ele>
        <time>2021-08-07T08:31:43.607Z</time>
      </trkpt>
      <trkpt lat="46.91426" lon="8.67765">
        <ele>1886</ele>
        <time>2021-08-07T08:31:44.608Z</time>
      </trkpt>
      <trkpt lat="46.91426" lon="8.67764">
        <ele>1886</ele>
        <time>2021-08-07T08:31:45.608Z</time>
      </trkpt>
      <trkpt lat="46.91426" lon="8.67763">
        <ele>1887</ele>
        <time>2021-08-07T08:31:46.608Z</time>
      </trkpt>
      <trkpt lat="46.91425" lon="8.67763">
        <ele>1887</ele>
        <time>2021-08-07T08:31:47.607Z</time>
      </trkpt>
      <trkpt lat="46.91425" lon="8.67762">
        <ele>1887</ele>
        <time>2021-08-07T08:31:48.608Z</time>
      </trkpt>
      <trkpt lat="46.91425" lon="8.67762">
        <ele>1886</ele>
        <time>2021-08-07T08:31:49.607Z</time>
      </trkpt>
      <trkpt lat="46.91424" lon="8.67761">
        <ele>1886</ele>
        <time>2021-08-07T08:31:50.608Z</time>
      </trkpt>
      <trkpt lat="46.91424" lon="8.67761">
        <ele>1886</ele>
        <time>2021-08-07T08:31:51.607Z</time>
      </trkpt>
      <trkpt lat="46.91423" lon="8.6776">
        <ele>1886</ele>
        <time>2021-08-07T08:31:52.608Z</time>
      </trkpt>
      <trkpt lat="46.91423" lon="8.6776">
        <ele>1887</ele>
        <time>2021-08-07T08:31:53.608Z</time>
      </trkpt>
      <trkpt lat="46.91422" lon="8.67759">
        <ele>1888</ele>
        <time>2021-08-07T08:31:54.608Z</time>
      </trkpt>
      <trkpt lat="46.91421" lon="8.67758">
        <ele>1888</ele>
        <time>2021-08-07T08:31:55.608Z</time>
      </trkpt>
      <trkpt lat="46.9142" lon="8.67758">
        <ele>1889</ele>
        <time>2021-08-07T08:31:56.607Z</time>
      </trkpt>
      <trkpt lat="46.91419" lon="8.67758">
        <ele>1889</ele>
        <time>2021-08-07T08:31:57.608Z</time>
      </trkpt>
      <trkpt lat="46.91418" lon="8.67758">
        <ele>1890</ele>
        <time>2021-08-07T08:31:58.608Z</time>
      </trkpt>
      <trkpt lat="46.91417" lon="8.67758">
        <ele>1890</ele>
        <time>2021-08-07T08:31:59.608Z</time>
      </trkpt>
      <trkpt lat="46.91417" lon="8.67759">
        <ele>1890</ele>
        <time>2021-08-07T08:32:00.608Z</time>
      </trkpt>
      <trkpt lat="46.91415" lon="8.6776">
        <ele>1890</ele>
        <time>2021-08-07T08:32:01.607Z</time>
      </trkpt>
      <trkpt lat="46.91414" lon="8.67761">
        <ele>1890</ele>
        <time>2021-08-07T08:32:02.607Z</time>
      </trkpt>
      <trkpt lat="46.91413" lon="8.67762">
        <ele>1890</ele>
        <time>2021-08-07T08:32:03.608Z</time>
      </trkpt>
      <trkpt lat="46.91412" lon="8.67762">
        <ele>1890</ele>
        <time>2021-08-07T08:32:04.608Z</time>
      </trkpt>
      <trkpt lat="46.91412" lon="8.67763">
        <ele>1890</ele>
        <time>2021-08-07T08:32:05.608Z</time>
      </trkpt>
      <trkpt lat="46.91411" lon="8.67764">
        <ele>1890</ele>
        <time>2021-08-07T08:32:06.607Z</time>
      </trkpt>
      <trkpt lat="46.9141" lon="8.67764">
        <ele>1890</ele>
        <time>2021-08-07T08:32:07.608Z</time>
      </trkpt>
      <trkpt lat="46.9141" lon="8.67766">
        <ele>1889</ele>
        <time>2021-08-07T08:32:08.607Z</time>
      </trkpt>
      <trkpt lat="46.91409" lon="8.67767">
        <ele>1889</ele>
        <time>2021-08-07T08:32:09.607Z</time>
      </trkpt>
      <trkpt lat="46.91409" lon="8.67768">
        <ele>1888</ele>
        <time>2021-08-07T08:32:10.608Z</time>
      </trkpt>
      <trkpt lat="46.91408" lon="8.67769">
        <ele>1888</ele>
        <time>2021-08-07T08:32:11.608Z</time>
      </trkpt>
      <trkpt lat="46.91407" lon="8.6777">
        <ele>1888</ele>
        <time>2021-08-07T08:32:12.608Z</time>
      </trkpt>
      <trkpt lat="46.91407" lon="8.67771">
        <ele>1887</ele>
        <time>2021-08-07T08:32:13.608Z</time>
      </trkpt>
      <trkpt lat="46.91406" lon="8.67772">
        <ele>1887</ele>
        <time>2021-08-07T08:32:14.608Z</time>
      </trkpt>
      <trkpt lat="46.91405" lon="8.67773">
        <ele>1886</ele>
        <time>2021-08-07T08:32:15.608Z</time>
      </trkpt>
      <trkpt lat="46.91405" lon="8.67774">
        <ele>1886</ele>
        <time>2021-08-07T08:32:16.608Z</time>
      </trkpt>
      <trkpt lat="46.91404" lon="8.67776">
        <ele>1885</ele>
        <time>2021-08-07T08:32:17.607Z</time>
      </trkpt>
      <trkpt lat="46.91403" lon="8.67777">
        <ele>1885</ele>
        <time>2021-08-07T08:32:18.608Z</time>
      </trkpt>
      <trkpt lat="46.91403" lon="8.67779">
        <ele>1885</ele>
        <time>2021-08-07T08:32:19.607Z</time>
      </trkpt>
      <trkpt lat="46.91403" lon="8.6778">
        <ele>1885</ele>
        <time>2021-08-07T08:32:20.607Z</time>
      </trkpt>
      <trkpt lat="46.91402" lon="8.67782">
        <ele>1884</ele>
        <time>2021-08-07T08:32:21.608Z</time>
      </trkpt>
      <trkpt lat="46.91402" lon="8.67783">
        <ele>1884</ele>
        <time>2021-08-07T08:32:22.607Z</time>
      </trkpt>
      <trkpt lat="46.91401" lon="8.67784">
        <ele>1884</ele>
        <time>2021-08-07T08:32:23.608Z</time>
      </trkpt>
      <trkpt lat="46.91401" lon="8.67785">
        <ele>1883</ele>
        <time>2021-08-07T08:32:24.607Z</time>
      </trkpt>
      <trkpt lat="46.914" lon="8.67786">
        <ele>1882</ele>
        <time>2021-08-07T08:32:25.608Z</time>
      </trkpt>
      <trkpt lat="46.91399" lon="8.67786">
        <ele>1882</ele>
        <time>2021-08-07T08:32:26.608Z</time>
      </trkpt>
      <trkpt lat="46.91398" lon="8.67787">
        <ele>1882</ele>
        <time>2021-08-07T08:32:27.608Z</time>
      </trkpt>
      <trkpt lat="46.91397" lon="8.67787">
        <ele>1882</ele>
        <time>2021-08-07T08:32:28.608Z</time>
      </trkpt>
      <trkpt lat="46.91396" lon="8.67788">
        <ele>1882</ele>
        <time>2021-08-07T08:32:29.607Z</time>
      </trkpt>
      <trkpt lat="46.91396" lon="8.67789">
        <ele>1882</ele>
        <time>2021-08-07T08:32:30.608Z</time>
      </trkpt>
      <trkpt lat="46.91395" lon="8.6779">
        <ele>1882</ele>
        <time>2021-08-07T08:32:31.607Z</time>
      </trkpt>
      <trkpt lat="46.91395" lon="8.67791">
        <ele>1881</ele>
        <time>2021-08-07T08:32:32.608Z</time>
      </trkpt>
      <trkpt lat="46.91395" lon="8.67791">
        <ele>1881</ele>
        <time>2021-08-07T08:32:33.608Z</time>
      </trkpt>
      <trkpt lat="46.91395" lon="8.67791">
        <ele>1880</ele>
        <time>2021-08-07T08:32:34.607Z</time>
      </trkpt>
      <trkpt lat="46.91396" lon="8.67791">
        <ele>1879</ele>
        <time>2021-08-07T08:32:35.609Z</time>
      </trkpt>
      <trkpt lat="46.91396" lon="8.67791">
        <ele>1878</ele>
        <time>2021-08-07T08:32:36.609Z</time>
      </trkpt>
      <trkpt lat="46.91396" lon="8.67791">
        <ele>1877</ele>
        <time>2021-08-07T08:32:37.608Z</time>
      </trkpt>
      <trkpt lat="46.91397" lon="8.67791">
        <ele>1876</ele>
        <time>2021-08-07T08:32:38.608Z</time>
      </trkpt>
      <trkpt lat="46.91397" lon="8.67792">
        <ele>1872</ele>
        <time>2021-08-07T08:32:39.609Z</time>
      </trkpt>
      <trkpt lat="46.91396" lon="8.67795">
        <ele>1871</ele>
        <time>2021-08-07T08:32:40.610Z</time>
      </trkpt>
      <trkpt lat="46.91396" lon="8.67795">
        <ele>1871</ele>
        <time>2021-08-07T08:32:41.610Z</time>
      </trkpt>
      <trkpt lat="46.91395" lon="8.67795">
        <ele>1871</ele>
        <time>2021-08-07T08:32:42.609Z</time>
      </trkpt>
      <trkpt lat="46.91395" lon="8.67795">
        <ele>1870</ele>
        <time>2021-08-07T08:32:43.609Z</time>
      </trkpt>
      <trkpt lat="46.91395" lon="8.67795">
        <ele>1870</ele>
        <time>2021-08-07T08:32:44.609Z</time>
      </trkpt>
      <trkpt lat="46.91394" lon="8.67796">
        <ele>1870</ele>
        <time>2021-08-07T08:32:45.610Z</time>
      </trkpt>
      <trkpt lat="46.91394" lon="8.67796">
        <ele>1870</ele>
        <time>2021-08-07T08:32:46.609Z</time>
      </trkpt>
      <trkpt lat="46.91393" lon="8.67796">
        <ele>1870</ele>
        <time>2021-08-07T08:32:47.610Z</time>
      </trkpt>
      <trkpt lat="46.91393" lon="8.67796">
        <ele>1870</ele>
        <time>2021-08-07T08:32:48.610Z</time>
      </trkpt>
      <trkpt lat="46.91393" lon="8.67796">
        <ele>1869</ele>
        <time>2021-08-07T08:32:49.610Z</time>
      </trkpt>
      <trkpt lat="46.91392" lon="8.67796">
        <ele>1869</ele>
        <time>2021-08-07T08:32:50.610Z</time>
      </trkpt>
      <trkpt lat="46.91392" lon="8.67796">
        <ele>1869</ele>
        <time>2021-08-07T08:32:51.609Z</time>
      </trkpt>
      <trkpt lat="46.9139" lon="8.678">
        <ele>1868</ele>
        <time>2021-08-07T08:32:52.611Z</time>
      </trkpt>
      <trkpt lat="46.91389" lon="8.67799">
        <ele>1868</ele>
        <time>2021-08-07T08:32:53.610Z</time>
      </trkpt>
      <trkpt lat="46.91389" lon="8.67799">
        <ele>1869</ele>
        <time>2021-08-07T08:32:54.610Z</time>
      </trkpt>
      <trkpt lat="46.91389" lon="8.67799">
        <ele>1869</ele>
        <time>2021-08-07T08:32:55.611Z</time>
      </trkpt>
      <trkpt lat="46.91388" lon="8.67799">
        <ele>1870</ele>
        <time>2021-08-07T08:32:56.611Z</time>
      </trkpt>
      <trkpt lat="46.91388" lon="8.678">
        <ele>1870</ele>
        <time>2021-08-07T08:32:57.610Z</time>
      </trkpt>
      <trkpt lat="46.91388" lon="8.67801">
        <ele>1871</ele>
        <time>2021-08-07T08:32:58.611Z</time>
      </trkpt>
      <trkpt lat="46.91387" lon="8.67801">
        <ele>1871</ele>
        <time>2021-08-07T08:32:59.611Z</time>
      </trkpt>
      <trkpt lat="46.91387" lon="8.67801">
        <ele>1871</ele>
        <time>2021-08-07T08:33:00.611Z</time>
      </trkpt>
      <trkpt lat="46.91387" lon="8.67801">
        <ele>1872</ele>
        <time>2021-08-07T08:33:01.610Z</time>
      </trkpt>
      <trkpt lat="46.91387" lon="8.67802">
        <ele>1872</ele>
        <time>2021-08-07T08:33:02.610Z</time>
      </trkpt>
      <trkpt lat="46.91388" lon="8.67804">
        <ele>1872</ele>
        <time>2021-08-07T08:33:03.610Z</time>
      </trkpt>
      <trkpt lat="46.91389" lon="8.67804">
        <ele>1872</ele>
        <time>2021-08-07T08:33:04.611Z</time>
      </trkpt>
      <trkpt lat="46.91389" lon="8.67804">
        <ele>1872</ele>
        <time>2021-08-07T08:33:05.611Z</time>
      </trkpt>
      <trkpt lat="46.91389" lon="8.67804">
        <ele>1872</ele>
        <time>2021-08-07T08:33:06.610Z</time>
      </trkpt>
      <trkpt lat="46.91388" lon="8.67802">
        <ele>1873</ele>
        <time>2021-08-07T08:33:07.611Z</time>
      </trkpt>
      <trkpt lat="46.91388" lon="8.67803">
        <ele>1872</ele>
        <time>2021-08-07T08:33:08.611Z</time>
      </trkpt>
      <trkpt lat="46.91389" lon="8.67803">
        <ele>1871</ele>
        <time>2021-08-07T08:33:09.613Z</time>
      </trkpt>
      <trkpt lat="46.91387" lon="8.67802">
        <ele>1867</ele>
        <time>2021-08-07T08:33:10.613Z</time>
      </trkpt>
      <trkpt lat="46.91388" lon="8.67802">
        <ele>1865</ele>
        <time>2021-08-07T08:33:11.612Z</time>
      </trkpt>
      <trkpt lat="46.91387" lon="8.67802">
        <ele>1865</ele>
        <time>2021-08-07T08:33:12.612Z</time>
      </trkpt>
      <trkpt lat="46.91386" lon="8.67804">
        <ele>1866</ele>
        <time>2021-08-07T08:33:13.613Z</time>
      </trkpt>
      <trkpt lat="46.91386" lon="8.67804">
        <ele>1866</ele>
        <time>2021-08-07T08:33:14.613Z</time>
      </trkpt>
      <trkpt lat="46.91387" lon="8.67804">
        <ele>1866</ele>
        <time>2021-08-07T08:33:15.613Z</time>
      </trkpt>
      <trkpt lat="46.91387" lon="8.67804">
        <ele>1866</ele>
        <time>2021-08-07T08:33:16.613Z</time>
      </trkpt>
      <trkpt lat="46.91387" lon="8.67804">
        <ele>1866</ele>
        <time>2021-08-07T08:33:17.612Z</time>
      </trkpt>
      <trkpt lat="46.91386" lon="8.67804">
        <ele>1866</ele>
        <time>2021-08-07T08:33:18.613Z</time>
      </trkpt>
      <trkpt lat="46.91386" lon="8.67804">
        <ele>1866</ele>
        <time>2021-08-07T08:33:19.614Z</time>
      </trkpt>
      <trkpt lat="46.91387" lon="8.67804">
        <ele>1866</ele>
        <time>2021-08-07T08:33:20.614Z</time>
      </trkpt>
      <trkpt lat="46.91387" lon="8.67804">
        <ele>1866</ele>
        <time>2021-08-07T08:33:21.613Z</time>
      </trkpt>
      <trkpt lat="46.91387" lon="8.67804">
        <ele>1866</ele>
        <time>2021-08-07T08:33:22.614Z</time>
      </trkpt>
      <trkpt lat="46.91387" lon="8.67804">
        <ele>1867</ele>
        <time>2021-08-07T08:33:23.614Z</time>
      </trkpt>
      <trkpt lat="46.91387" lon="8.67804">
        <ele>1867</ele>
        <time>2021-08-07T08:33:24.613Z</time>
      </trkpt>
      <trkpt lat="46.91387" lon="8.67804">
        <ele>1867</ele>
        <time>2021-08-07T08:33:25.614Z</time>
      </trkpt>
      <trkpt lat="46.91387" lon="8.67803">
        <ele>1868</ele>
        <time>2021-08-07T08:33:26.613Z</time>
      </trkpt>
      <trkpt lat="46.91386" lon="8.67803">
        <ele>1868</ele>
        <time>2021-08-07T08:33:27.613Z</time>
      </trkpt>
      <trkpt lat="46.91386" lon="8.67803">
        <ele>1868</ele>
        <time>2021-08-07T08:33:28.614Z</time>
      </trkpt>
      <trkpt lat="46.91387" lon="8.67803">
        <ele>1869</ele>
        <time>2021-08-07T08:33:29.613Z</time>
      </trkpt>
      <trkpt lat="46.91388" lon="8.67801">
        <ele>1865</ele>
        <time>2021-08-07T08:33:30.614Z</time>
      </trkpt>
      <trkpt lat="46.9139" lon="8.67799">
        <ele>1868</ele>
        <time>2021-08-07T08:33:31.615Z</time>
      </trkpt>
      <trkpt lat="46.91391" lon="8.67798">
        <ele>1868</ele>
        <time>2021-08-07T08:33:32.615Z</time>
      </trkpt>
      <trkpt lat="46.91391" lon="8.67798">
        <ele>1868</ele>
        <time>2021-08-07T08:33:33.614Z</time>
      </trkpt>
      <trkpt lat="46.91391" lon="8.67798">
        <ele>1868</ele>
        <time>2021-08-07T08:33:34.615Z</time>
      </trkpt>
      <trkpt lat="46.91391" lon="8.67798">
        <ele>1868</ele>
        <time>2021-08-07T08:33:35.614Z</time>
      </trkpt>
      <trkpt lat="46.91391" lon="8.67799">
        <ele>1868</ele>
        <time>2021-08-07T08:33:36.615Z</time>
      </trkpt>
      <trkpt lat="46.91391" lon="8.67799">
        <ele>1867</ele>
        <time>2021-08-07T08:33:37.615Z</time>
      </trkpt>
      <trkpt lat="46.91391" lon="8.678">
        <ele>1867</ele>
        <time>2021-08-07T08:33:38.615Z</time>
      </trkpt>
      <trkpt lat="46.91392" lon="8.678">
        <ele>1867</ele>
        <time>2021-08-07T08:33:39.615Z</time>
      </trkpt>
      <trkpt lat="46.91392" lon="8.67801">
        <ele>1867</ele>
        <time>2021-08-07T08:33:40.615Z</time>
      </trkpt>
      <trkpt lat="46.91393" lon="8.678">
        <ele>1868</ele>
        <time>2021-08-07T08:33:41.616Z</time>
      </trkpt>
      <trkpt lat="46.91393" lon="8.678">
        <ele>1869</ele>
        <time>2021-08-07T08:33:42.616Z</time>
      </trkpt>
      <trkpt lat="46.91393" lon="8.678">
        <ele>1870</ele>
        <time>2021-08-07T08:33:43.615Z</time>
      </trkpt>
      <trkpt lat="46.91393" lon="8.678">
        <ele>1871</ele>
        <time>2021-08-07T08:33:44.615Z</time>
      </trkpt>
      <trkpt lat="46.91393" lon="8.678">
        <ele>1872</ele>
        <time>2021-08-07T08:33:45.616Z</time>
      </trkpt>
      <trkpt lat="46.91395" lon="8.678">
        <ele>1872</ele>
        <time>2021-08-07T08:33:46.616Z</time>
      </trkpt>
      <trkpt lat="46.91398" lon="8.67799">
        <ele>1873</ele>
        <time>2021-08-07T08:33:47.616Z</time>
      </trkpt>
      <trkpt lat="46.91398" lon="8.67798">
        <ele>1874</ele>
        <time>2021-08-07T08:33:48.616Z</time>
      </trkpt>
      <trkpt lat="46.91397" lon="8.67797">
        <ele>1874</ele>
        <time>2021-08-07T08:33:49.615Z</time>
      </trkpt>
      <trkpt lat="46.91396" lon="8.67797">
        <ele>1875</ele>
        <time>2021-08-07T08:33:50.615Z</time>
      </trkpt>
      <trkpt lat="46.91396" lon="8.67797">
        <ele>1875</ele>
        <time>2021-08-07T08:33:51.616Z</time>
      </trkpt>
      <trkpt lat="46.91396" lon="8.67796">
        <ele>1875</ele>
        <time>2021-08-07T08:33:52.616Z</time>
      </trkpt>
      <trkpt lat="46.91395" lon="8.67795">
        <ele>1873</ele>
        <time>2021-08-07T08:33:53.616Z</time>
      </trkpt>
      <trkpt lat="46.91395" lon="8.67795">
        <ele>1873</ele>
        <time>2021-08-07T08:33:54.615Z</time>
      </trkpt>
      <trkpt lat="46.91395" lon="8.67796">
        <ele>1873</ele>
        <time>2021-08-07T08:33:55.615Z</time>
      </trkpt>
      <trkpt lat="46.91395" lon="8.67797">
        <ele>1870</ele>
        <time>2021-08-07T08:33:56.617Z</time>
      </trkpt>
      <trkpt lat="46.91393" lon="8.67796">
        <ele>1868</ele>
        <time>2021-08-07T08:33:57.618Z</time>
      </trkpt>
      <trkpt lat="46.91393" lon="8.67795">
        <ele>1869</ele>
        <time>2021-08-07T08:33:58.618Z</time>
      </trkpt>
      <trkpt lat="46.91392" lon="8.67795">
        <ele>1869</ele>
        <time>2021-08-07T08:33:59.617Z</time>
      </trkpt>
      <trkpt lat="46.91391" lon="8.67795">
        <ele>1870</ele>
        <time>2021-08-07T08:34:00.617Z</time>
      </trkpt>
      <trkpt lat="46.91391" lon="8.67796">
        <ele>1870</ele>
        <time>2021-08-07T08:34:01.618Z</time>
      </trkpt>
      <trkpt lat="46.9139" lon="8.67797">
        <ele>1871</ele>
        <time>2021-08-07T08:34:02.618Z</time>
      </trkpt>
      <trkpt lat="46.9139" lon="8.67798">
        <ele>1871</ele>
        <time>2021-08-07T08:34:03.618Z</time>
      </trkpt>
      <trkpt lat="46.91389" lon="8.67798">
        <ele>1871</ele>
        <time>2021-08-07T08:34:04.618Z</time>
      </trkpt>
      <trkpt lat="46.91389" lon="8.67799">
        <ele>1872</ele>
        <time>2021-08-07T08:34:05.618Z</time>
      </trkpt>
      <trkpt lat="46.91389" lon="8.67799">
        <ele>1872</ele>
        <time>2021-08-07T08:34:06.618Z</time>
      </trkpt>
      <trkpt lat="46.91389" lon="8.67797">
        <ele>1873</ele>
        <time>2021-08-07T08:34:07.619Z</time>
      </trkpt>
      <trkpt lat="46.91389" lon="8.67797">
        <ele>1873</ele>
        <time>2021-08-07T08:34:08.619Z</time>
      </trkpt>
      <trkpt lat="46.91388" lon="8.67796">
        <ele>1878</ele>
        <time>2021-08-07T08:34:09.618Z</time>
      </trkpt>
      <trkpt lat="46.91387" lon="8.67797">
        <ele>1878</ele>
        <time>2021-08-07T08:34:10.619Z</time>
      </trkpt>
      <trkpt lat="46.91387" lon="8.67798">
        <ele>1878</ele>
        <time>2021-08-07T08:34:11.618Z</time>
      </trkpt>
      <trkpt lat="46.91386" lon="8.67798">
        <ele>1878</ele>
        <time>2021-08-07T08:34:12.619Z</time>
      </trkpt>
      <trkpt lat="46.91385" lon="8.67798">
        <ele>1878</ele>
        <time>2021-08-07T08:34:13.619Z</time>
      </trkpt>
      <trkpt lat="46.91385" lon="8.67798">
        <ele>1878</ele>
        <time>2021-08-07T08:34:14.618Z</time>
      </trkpt>
      <trkpt lat="46.91384" lon="8.67799">
        <ele>1877</ele>
        <time>2021-08-07T08:34:15.618Z</time>
      </trkpt>
      <trkpt lat="46.91383" lon="8.67801">
        <ele>1877</ele>
        <time>2021-08-07T08:34:16.619Z</time>
      </trkpt>
      <trkpt lat="46.91382" lon="8.67802">
        <ele>1876</ele>
        <time>2021-08-07T08:34:17.619Z</time>
      </trkpt>
      <trkpt lat="46.91382" lon="8.67803">
        <ele>1875</ele>
        <time>2021-08-07T08:34:18.618Z</time>
      </trkpt>
      <trkpt lat="46.91382" lon="8.67805">
        <ele>1874</ele>
        <time>2021-08-07T08:34:19.619Z</time>
      </trkpt>
      <trkpt lat="46.91381" lon="8.67805">
        <ele>1873</ele>
        <time>2021-08-07T08:34:20.619Z</time>
      </trkpt>
      <trkpt lat="46.91381" lon="8.67806">
        <ele>1873</ele>
        <time>2021-08-07T08:34:21.619Z</time>
      </trkpt>
      <trkpt lat="46.9138" lon="8.67806">
        <ele>1873</ele>
        <time>2021-08-07T08:34:22.618Z</time>
      </trkpt>
      <trkpt lat="46.9138" lon="8.67807">
        <ele>1873</ele>
        <time>2021-08-07T08:34:23.619Z</time>
      </trkpt>
      <trkpt lat="46.9138" lon="8.67808">
        <ele>1873</ele>
        <time>2021-08-07T08:34:24.619Z</time>
      </trkpt>
      <trkpt lat="46.9138" lon="8.67808">
        <ele>1872</ele>
        <time>2021-08-07T08:34:25.619Z</time>
      </trkpt>
      <trkpt lat="46.91378" lon="8.67809">
        <ele>1869</ele>
        <time>2021-08-07T08:34:26.619Z</time>
      </trkpt>
      <trkpt lat="46.91378" lon="8.6781">
        <ele>1869</ele>
        <time>2021-08-07T08:34:27.619Z</time>
      </trkpt>
      <trkpt lat="46.91377" lon="8.67811">
        <ele>1868</ele>
        <time>2021-08-07T08:34:28.618Z</time>
      </trkpt>
      <trkpt lat="46.91377" lon="8.67811">
        <ele>1867</ele>
        <time>2021-08-07T08:34:29.619Z</time>
      </trkpt>
      <trkpt lat="46.91377" lon="8.67811">
        <ele>1866</ele>
        <time>2021-08-07T08:34:30.618Z</time>
      </trkpt>
      <trkpt lat="46.91376" lon="8.6781">
        <ele>1864</ele>
        <time>2021-08-07T08:34:31.619Z</time>
      </trkpt>
      <trkpt lat="46.91375" lon="8.67811">
        <ele>1864</ele>
        <time>2021-08-07T08:34:32.619Z</time>
      </trkpt>
      <trkpt lat="46.91373" lon="8.67816">
        <ele>1870</ele>
        <time>2021-08-07T08:34:33.619Z</time>
      </trkpt>
      <trkpt lat="46.91373" lon="8.67815">
        <ele>1870</ele>
        <time>2021-08-07T08:34:34.619Z</time>
      </trkpt>
      <trkpt lat="46.91373" lon="8.67814">
        <ele>1871</ele>
        <time>2021-08-07T08:34:35.618Z</time>
      </trkpt>
      <trkpt lat="46.91372" lon="8.67814">
        <ele>1871</ele>
        <time>2021-08-07T08:34:36.619Z</time>
      </trkpt>
      <trkpt lat="46.91372" lon="8.67814">
        <ele>1871</ele>
        <time>2021-08-07T08:34:37.619Z</time>
      </trkpt>
      <trkpt lat="46.91371" lon="8.67813">
        <ele>1872</ele>
        <time>2021-08-07T08:34:38.619Z</time>
      </trkpt>
      <trkpt lat="46.91371" lon="8.67813">
        <ele>1872</ele>
        <time>2021-08-07T08:34:39.619Z</time>
      </trkpt>
      <trkpt lat="46.9137" lon="8.67813">
        <ele>1873</ele>
        <time>2021-08-07T08:34:40.618Z</time>
      </trkpt>
      <trkpt lat="46.9137" lon="8.67812">
        <ele>1874</ele>
        <time>2021-08-07T08:34:41.619Z</time>
      </trkpt>
      <trkpt lat="46.91369" lon="8.67813">
        <ele>1874</ele>
        <time>2021-08-07T08:34:42.619Z</time>
      </trkpt>
      <trkpt lat="46.91369" lon="8.67813">
        <ele>1874</ele>
        <time>2021-08-07T08:34:43.619Z</time>
      </trkpt>
      <trkpt lat="46.91369" lon="8.67814">
        <ele>1874</ele>
        <time>2021-08-07T08:34:44.619Z</time>
      </trkpt>
      <trkpt lat="46.9137" lon="8.67816">
        <ele>1873</ele>
        <time>2021-08-07T08:34:45.619Z</time>
      </trkpt>
      <trkpt lat="46.9137" lon="8.67818">
        <ele>1870</ele>
        <time>2021-08-07T08:34:46.618Z</time>
      </trkpt>
      <trkpt lat="46.9137" lon="8.67818">
        <ele>1868</ele>
        <time>2021-08-07T08:34:47.618Z</time>
      </trkpt>
      <trkpt lat="46.9137" lon="8.67818">
        <ele>1867</ele>
        <time>2021-08-07T08:34:48.618Z</time>
      </trkpt>
      <trkpt lat="46.9137" lon="8.67818">
        <ele>1866</ele>
        <time>2021-08-07T08:34:49.619Z</time>
      </trkpt>
      <trkpt lat="46.9137" lon="8.67819">
        <ele>1866</ele>
        <time>2021-08-07T08:34:50.618Z</time>
      </trkpt>
      <trkpt lat="46.91373" lon="8.67823">
        <ele>1862</ele>
        <time>2021-08-07T08:34:51.618Z</time>
      </trkpt>
      <trkpt lat="46.91372" lon="8.67823">
        <ele>1862</ele>
        <time>2021-08-07T08:34:52.619Z</time>
      </trkpt>
      <trkpt lat="46.91372" lon="8.67823">
        <ele>1862</ele>
        <time>2021-08-07T08:34:53.618Z</time>
      </trkpt>
      <trkpt lat="46.91371" lon="8.67824">
        <ele>1861</ele>
        <time>2021-08-07T08:34:54.619Z</time>
      </trkpt>
      <trkpt lat="46.9137" lon="8.67824">
        <ele>1861</ele>
        <time>2021-08-07T08:34:55.619Z</time>
      </trkpt>
      <trkpt lat="46.9137" lon="8.67824">
        <ele>1861</ele>
        <time>2021-08-07T08:34:56.619Z</time>
      </trkpt>
      <trkpt lat="46.91368" lon="8.67825">
        <ele>1859</ele>
        <time>2021-08-07T08:34:57.619Z</time>
      </trkpt>
      <trkpt lat="46.91368" lon="8.67825">
        <ele>1859</ele>
        <time>2021-08-07T08:34:58.620Z</time>
      </trkpt>
      <trkpt lat="46.91367" lon="8.67826">
        <ele>1859</ele>
        <time>2021-08-07T08:34:59.620Z</time>
      </trkpt>
      <trkpt lat="46.91367" lon="8.67827">
        <ele>1859</ele>
        <time>2021-08-07T08:35:00.620Z</time>
      </trkpt>
      <trkpt lat="46.91367" lon="8.67828">
        <ele>1859</ele>
        <time>2021-08-07T08:35:01.620Z</time>
      </trkpt>
      <trkpt lat="46.91367" lon="8.67829">
        <ele>1859</ele>
        <time>2021-08-07T08:35:02.620Z</time>
      </trkpt>
      <trkpt lat="46.91365" lon="8.67828">
        <ele>1857</ele>
        <time>2021-08-07T08:35:03.619Z</time>
      </trkpt>
      <trkpt lat="46.91364" lon="8.67827">
        <ele>1856</ele>
        <time>2021-08-07T08:35:04.620Z</time>
      </trkpt>
      <trkpt lat="46.91364" lon="8.67827">
        <ele>1856</ele>
        <time>2021-08-07T08:35:05.619Z</time>
      </trkpt>
      <trkpt lat="46.91364" lon="8.67827">
        <ele>1856</ele>
        <time>2021-08-07T08:35:06.619Z</time>
      </trkpt>
      <trkpt lat="46.91365" lon="8.67825">
        <ele>1856</ele>
        <time>2021-08-07T08:35:07.619Z</time>
      </trkpt>
      <trkpt lat="46.91365" lon="8.67824">
        <ele>1856</ele>
        <time>2021-08-07T08:35:08.619Z</time>
      </trkpt>
      <trkpt lat="46.91366" lon="8.67824">
        <ele>1856</ele>
        <time>2021-08-07T08:35:09.619Z</time>
      </trkpt>
      <trkpt lat="46.91366" lon="8.67823">
        <ele>1857</ele>
        <time>2021-08-07T08:35:10.619Z</time>
      </trkpt>
      <trkpt lat="46.91367" lon="8.67823">
        <ele>1857</ele>
        <time>2021-08-07T08:35:11.619Z</time>
      </trkpt>
      <trkpt lat="46.91367" lon="8.67823">
        <ele>1858</ele>
        <time>2021-08-07T08:35:12.619Z</time>
      </trkpt>
      <trkpt lat="46.91367" lon="8.67823">
        <ele>1858</ele>
        <time>2021-08-07T08:35:13.619Z</time>
      </trkpt>
      <trkpt lat="46.91367" lon="8.67825">
        <ele>1859</ele>
        <time>2021-08-07T08:35:14.621Z</time>
      </trkpt>
      <trkpt lat="46.91367" lon="8.67825">
        <ele>1859</ele>
        <time>2021-08-07T08:35:15.620Z</time>
      </trkpt>
      <trkpt lat="46.91367" lon="8.67826">
        <ele>1859</ele>
        <time>2021-08-07T08:35:16.622Z</time>
      </trkpt>
      <trkpt lat="46.91367" lon="8.67826">
        <ele>1860</ele>
        <time>2021-08-07T08:35:17.621Z</time>
      </trkpt>
      <trkpt lat="46.91367" lon="8.67826">
        <ele>1860</ele>
        <time>2021-08-07T08:35:18.621Z</time>
      </trkpt>
      <trkpt lat="46.91366" lon="8.67826">
        <ele>1861</ele>
        <time>2021-08-07T08:35:19.622Z</time>
      </trkpt>
      <trkpt lat="46.91364" lon="8.67828">
        <ele>1862</ele>
        <time>2021-08-07T08:35:20.622Z</time>
      </trkpt>
      <trkpt lat="46.91363" lon="8.67831">
        <ele>1863</ele>
        <time>2021-08-07T08:35:21.622Z</time>
      </trkpt>
      <trkpt lat="46.91362" lon="8.67833">
        <ele>1864</ele>
        <time>2021-08-07T08:35:22.622Z</time>
      </trkpt>
      <trkpt lat="46.91361" lon="8.67834">
        <ele>1865</ele>
        <time>2021-08-07T08:35:23.621Z</time>
      </trkpt>
      <trkpt lat="46.91361" lon="8.67834">
        <ele>1866</ele>
        <time>2021-08-07T08:35:24.622Z</time>
      </trkpt>
      <trkpt lat="46.91361" lon="8.67833">
        <ele>1866</ele>
        <time>2021-08-07T08:35:25.621Z</time>
      </trkpt>
      <trkpt lat="46.91361" lon="8.67835">
        <ele>1871</ele>
        <time>2021-08-07T08:35:26.622Z</time>
      </trkpt>
      <trkpt lat="46.91361" lon="8.67834">
        <ele>1870</ele>
        <time>2021-08-07T08:35:27.622Z</time>
      </trkpt>
      <trkpt lat="46.9136" lon="8.67834">
        <ele>1869</ele>
        <time>2021-08-07T08:35:28.621Z</time>
      </trkpt>
      <trkpt lat="46.9136" lon="8.67834">
        <ele>1868</ele>
        <time>2021-08-07T08:35:29.622Z</time>
      </trkpt>
      <trkpt lat="46.9136" lon="8.67834">
        <ele>1867</ele>
        <time>2021-08-07T08:35:30.622Z</time>
      </trkpt>
      <trkpt lat="46.91359" lon="8.67835">
        <ele>1866</ele>
        <time>2021-08-07T08:35:31.622Z</time>
      </trkpt>
      <trkpt lat="46.91359" lon="8.67835">
        <ele>1866</ele>
        <time>2021-08-07T08:35:32.621Z</time>
      </trkpt>
      <trkpt lat="46.9136" lon="8.67836">
        <ele>1865</ele>
        <time>2021-08-07T08:35:33.622Z</time>
      </trkpt>
      <trkpt lat="46.9136" lon="8.67836">
        <ele>1865</ele>
        <time>2021-08-07T08:35:34.622Z</time>
      </trkpt>
      <trkpt lat="46.91359" lon="8.67835">
        <ele>1865</ele>
        <time>2021-08-07T08:35:35.621Z</time>
      </trkpt>
      <trkpt lat="46.91363" lon="8.67834">
        <ele>1866</ele>
        <time>2021-08-07T08:35:36.622Z</time>
      </trkpt>
      <trkpt lat="46.91362" lon="8.67833">
        <ele>1866</ele>
        <time>2021-08-07T08:35:37.622Z</time>
      </trkpt>
      <trkpt lat="46.91361" lon="8.67831">
        <ele>1866</ele>
        <time>2021-08-07T08:35:38.621Z</time>
      </trkpt>
      <trkpt lat="46.9136" lon="8.67831">
        <ele>1866</ele>
        <time>2021-08-07T08:35:39.622Z</time>
      </trkpt>
      <trkpt lat="46.91359" lon="8.67831">
        <ele>1866</ele>
        <time>2021-08-07T08:35:40.622Z</time>
      </trkpt>
      <trkpt lat="46.91359" lon="8.6783">
        <ele>1867</ele>
        <time>2021-08-07T08:35:41.622Z</time>
      </trkpt>
      <trkpt lat="46.91359" lon="8.6783">
        <ele>1867</ele>
        <time>2021-08-07T08:35:42.621Z</time>
      </trkpt>
      <trkpt lat="46.91359" lon="8.6783">
        <ele>1867</ele>
        <time>2021-08-07T08:35:43.622Z</time>
      </trkpt>
      <trkpt lat="46.91359" lon="8.67829">
        <ele>1868</ele>
        <time>2021-08-07T08:35:44.622Z</time>
      </trkpt>
      <trkpt lat="46.91359" lon="8.67828">
        <ele>1868</ele>
        <time>2021-08-07T08:35:45.622Z</time>
      </trkpt>
      <trkpt lat="46.91358" lon="8.67827">
        <ele>1869</ele>
        <time>2021-08-07T08:35:46.622Z</time>
      </trkpt>
      <trkpt lat="46.91358" lon="8.67826">
        <ele>1869</ele>
        <time>2021-08-07T08:35:47.622Z</time>
      </trkpt>
      <trkpt lat="46.91358" lon="8.67825">
        <ele>1870</ele>
        <time>2021-08-07T08:35:48.621Z</time>
      </trkpt>
      <trkpt lat="46.91358" lon="8.67825">
        <ele>1870</ele>
        <time>2021-08-07T08:35:49.622Z</time>
      </trkpt>
      <trkpt lat="46.91358" lon="8.67826">
        <ele>1870</ele>
        <time>2021-08-07T08:35:50.622Z</time>
      </trkpt>
      <trkpt lat="46.91357" lon="8.67826">
        <ele>1870</ele>
        <time>2021-08-07T08:35:51.621Z</time>
      </trkpt>
      <trkpt lat="46.91357" lon="8.67826">
        <ele>1870</ele>
        <time>2021-08-07T08:35:52.622Z</time>
      </trkpt>
      <trkpt lat="46.91357" lon="8.67825">
        <ele>1871</ele>
        <time>2021-08-07T08:35:53.624Z</time>
      </trkpt>
      <trkpt lat="46.91356" lon="8.67825">
        <ele>1872</ele>
        <time>2021-08-07T08:35:54.624Z</time>
      </trkpt>
      <trkpt lat="46.91356" lon="8.67823">
        <ele>1873</ele>
        <time>2021-08-07T08:35:55.624Z</time>
      </trkpt>
      <trkpt lat="46.91356" lon="8.67823">
        <ele>1872</ele>
        <time>2021-08-07T08:35:56.624Z</time>
      </trkpt>
      <trkpt lat="46.91357" lon="8.67831">
        <ele>1865</ele>
        <time>2021-08-07T08:35:57.624Z</time>
      </trkpt>
      <trkpt lat="46.91358" lon="8.6783">
        <ele>1864</ele>
        <time>2021-08-07T08:35:58.624Z</time>
      </trkpt>
      <trkpt lat="46.91358" lon="8.6783">
        <ele>1863</ele>
        <time>2021-08-07T08:35:59.624Z</time>
      </trkpt>
      <trkpt lat="46.91358" lon="8.67829">
        <ele>1862</ele>
        <time>2021-08-07T08:36:00.624Z</time>
      </trkpt>
      <trkpt lat="46.91358" lon="8.67829">
        <ele>1861</ele>
        <time>2021-08-07T08:36:01.624Z</time>
      </trkpt>
      <trkpt lat="46.91357" lon="8.67828">
        <ele>1861</ele>
        <time>2021-08-07T08:36:02.624Z</time>
      </trkpt>
      <trkpt lat="46.91356" lon="8.67829">
        <ele>1860</ele>
        <time>2021-08-07T08:36:03.624Z</time>
      </trkpt>
      <trkpt lat="46.91356" lon="8.67829">
        <ele>1860</ele>
        <time>2021-08-07T08:36:04.624Z</time>
      </trkpt>
      <trkpt lat="46.91356" lon="8.6783">
        <ele>1859</ele>
        <time>2021-08-07T08:36:05.624Z</time>
      </trkpt>
      <trkpt lat="46.91355" lon="8.67831">
        <ele>1859</ele>
        <time>2021-08-07T08:36:06.624Z</time>
      </trkpt>
      <trkpt lat="46.91354" lon="8.67831">
        <ele>1859</ele>
        <time>2021-08-07T08:36:07.624Z</time>
      </trkpt>
      <trkpt lat="46.91354" lon="8.6783">
        <ele>1860</ele>
        <time>2021-08-07T08:36:08.624Z</time>
      </trkpt>
      <trkpt lat="46.91354" lon="8.6783">
        <ele>1861</ele>
        <time>2021-08-07T08:36:09.625Z</time>
      </trkpt>
      <trkpt lat="46.91353" lon="8.67829">
        <ele>1862</ele>
        <time>2021-08-07T08:36:10.625Z</time>
      </trkpt>
      <trkpt lat="46.91352" lon="8.67829">
        <ele>1863</ele>
        <time>2021-08-07T08:36:11.625Z</time>
      </trkpt>
      <trkpt lat="46.91352" lon="8.6783">
        <ele>1863</ele>
        <time>2021-08-07T08:36:12.625Z</time>
      </trkpt>
      <trkpt lat="46.91353" lon="8.67831">
        <ele>1863</ele>
        <time>2021-08-07T08:36:13.624Z</time>
      </trkpt>
      <trkpt lat="46.91353" lon="8.67832">
        <ele>1863</ele>
        <time>2021-08-07T08:36:14.624Z</time>
      </trkpt>
      <trkpt lat="46.91352" lon="8.67833">
        <ele>1862</ele>
        <time>2021-08-07T08:36:15.625Z</time>
      </trkpt>
      <trkpt lat="46.91352" lon="8.67834">
        <ele>1861</ele>
        <time>2021-08-07T08:36:16.625Z</time>
      </trkpt>
      <trkpt lat="46.91351" lon="8.67834">
        <ele>1860</ele>
        <time>2021-08-07T08:36:17.624Z</time>
      </trkpt>
      <trkpt lat="46.91351" lon="8.67834">
        <ele>1860</ele>
        <time>2021-08-07T08:36:18.625Z</time>
      </trkpt>
      <trkpt lat="46.9135" lon="8.67835">
        <ele>1859</ele>
        <time>2021-08-07T08:36:19.624Z</time>
      </trkpt>
      <trkpt lat="46.9135" lon="8.67835">
        <ele>1859</ele>
        <time>2021-08-07T08:36:20.625Z</time>
      </trkpt>
      <trkpt lat="46.9135" lon="8.67835">
        <ele>1859</ele>
        <time>2021-08-07T08:36:21.625Z</time>
      </trkpt>
      <trkpt lat="46.91349" lon="8.67835">
        <ele>1859</ele>
        <time>2021-08-07T08:36:22.624Z</time>
      </trkpt>
      <trkpt lat="46.91349" lon="8.67836">
        <ele>1859</ele>
        <time>2021-08-07T08:36:23.625Z</time>
      </trkpt>
      <trkpt lat="46.91349" lon="8.67837">
        <ele>1859</ele>
        <time>2021-08-07T08:36:24.624Z</time>
      </trkpt>
      <trkpt lat="46.91351" lon="8.67836">
        <ele>1857</ele>
        <time>2021-08-07T08:36:25.626Z</time>
      </trkpt>
      <trkpt lat="46.91351" lon="8.67836">
        <ele>1857</ele>
        <time>2021-08-07T08:36:26.626Z</time>
      </trkpt>
      <trkpt lat="46.9135" lon="8.67836">
        <ele>1856</ele>
        <time>2021-08-07T08:36:27.626Z</time>
      </trkpt>
      <trkpt lat="46.9135" lon="8.67836">
        <ele>1856</ele>
        <time>2021-08-07T08:36:28.626Z</time>
      </trkpt>
      <trkpt lat="46.9135" lon="8.67836">
        <ele>1856</ele>
        <time>2021-08-07T08:36:29.625Z</time>
      </trkpt>
      <trkpt lat="46.91349" lon="8.67836">
        <ele>1856</ele>
        <time>2021-08-07T08:36:30.626Z</time>
      </trkpt>
      <trkpt lat="46.91349" lon="8.67837">
        <ele>1855</ele>
        <time>2021-08-07T08:36:31.626Z</time>
      </trkpt>
      <trkpt lat="46.91348" lon="8.67837">
        <ele>1855</ele>
        <time>2021-08-07T08:36:32.626Z</time>
      </trkpt>
      <trkpt lat="46.91348" lon="8.67838">
        <ele>1854</ele>
        <time>2021-08-07T08:36:33.626Z</time>
      </trkpt>
      <trkpt lat="46.91347" lon="8.6784">
        <ele>1854</ele>
        <time>2021-08-07T08:36:34.626Z</time>
      </trkpt>
      <trkpt lat="46.91346" lon="8.67841">
        <ele>1853</ele>
        <time>2021-08-07T08:36:35.626Z</time>
      </trkpt>
      <trkpt lat="46.91346" lon="8.67842">
        <ele>1852</ele>
        <time>2021-08-07T08:36:36.626Z</time>
      </trkpt>
      <trkpt lat="46.91345" lon="8.67843">
        <ele>1852</ele>
        <time>2021-08-07T08:36:37.626Z</time>
      </trkpt>
      <trkpt lat="46.91345" lon="8.67845">
        <ele>1851</ele>
        <time>2021-08-07T08:36:38.625Z</time>
      </trkpt>
      <trkpt lat="46.91344" lon="8.67846">
        <ele>1850</ele>
        <time>2021-08-07T08:36:39.625Z</time>
      </trkpt>
      <trkpt lat="46.91344" lon="8.67847">
        <ele>1850</ele>
        <time>2021-08-07T08:36:40.626Z</time>
      </trkpt>
      <trkpt lat="46.91343" lon="8.67847">
        <ele>1849</ele>
        <time>2021-08-07T08:36:41.626Z</time>
      </trkpt>
      <trkpt lat="46.91343" lon="8.67848">
        <ele>1849</ele>
        <time>2021-08-07T08:36:42.626Z</time>
      </trkpt>
      <trkpt lat="46.91342" lon="8.67848">
        <ele>1848</ele>
        <time>2021-08-07T08:36:43.626Z</time>
      </trkpt>
      <trkpt lat="46.91342" lon="8.67849">
        <ele>1848</ele>
        <time>2021-08-07T08:36:44.626Z</time>
      </trkpt>
      <trkpt lat="46.91341" lon="8.6785">
        <ele>1848</ele>
        <time>2021-08-07T08:36:45.625Z</time>
      </trkpt>
      <trkpt lat="46.91341" lon="8.67851">
        <ele>1848</ele>
        <time>2021-08-07T08:36:46.625Z</time>
      </trkpt>
      <trkpt lat="46.9134" lon="8.67851">
        <ele>1849</ele>
        <time>2021-08-07T08:36:47.626Z</time>
      </trkpt>
      <trkpt lat="46.91339" lon="8.67852">
        <ele>1849</ele>
        <time>2021-08-07T08:36:48.626Z</time>
      </trkpt>
      <trkpt lat="46.91338" lon="8.67852">
        <ele>1849</ele>
        <time>2021-08-07T08:36:49.625Z</time>
      </trkpt>
      <trkpt lat="46.91337" lon="8.67853">
        <ele>1850</ele>
        <time>2021-08-07T08:36:50.625Z</time>
      </trkpt>
      <trkpt lat="46.91336" lon="8.67853">
        <ele>1851</ele>
        <time>2021-08-07T08:36:51.626Z</time>
      </trkpt>
      <trkpt lat="46.91335" lon="8.67854">
        <ele>1851</ele>
        <time>2021-08-07T08:36:52.625Z</time>
      </trkpt>
      <trkpt lat="46.91334" lon="8.67855">
        <ele>1851</ele>
        <time>2021-08-07T08:36:53.625Z</time>
      </trkpt>
      <trkpt lat="46.91333" lon="8.67855">
        <ele>1851</ele>
        <time>2021-08-07T08:36:54.626Z</time>
      </trkpt>
      <trkpt lat="46.91333" lon="8.67856">
        <ele>1851</ele>
        <time>2021-08-07T08:36:55.626Z</time>
      </trkpt>
      <trkpt lat="46.91333" lon="8.67856">
        <ele>1850</ele>
        <time>2021-08-07T08:36:56.625Z</time>
      </trkpt>
      <trkpt lat="46.91333" lon="8.67856">
        <ele>1850</ele>
        <time>2021-08-07T08:36:57.626Z</time>
      </trkpt>
      <trkpt lat="46.91333" lon="8.67857">
        <ele>1849</ele>
        <time>2021-08-07T08:36:58.626Z</time>
      </trkpt>
      <trkpt lat="46.91338" lon="8.67856">
        <ele>1848</ele>
        <time>2021-08-07T08:36:59.626Z</time>
      </trkpt>
      <trkpt lat="46.91339" lon="8.67854">
        <ele>1849</ele>
        <time>2021-08-07T08:37:00.625Z</time>
      </trkpt>
      <trkpt lat="46.91336" lon="8.67855">
        <ele>1848</ele>
        <time>2021-08-07T08:37:01.625Z</time>
      </trkpt>
      <trkpt lat="46.91335" lon="8.67856">
        <ele>1848</ele>
        <time>2021-08-07T08:37:02.625Z</time>
      </trkpt>
      <trkpt lat="46.91335" lon="8.67857">
        <ele>1848</ele>
        <time>2021-08-07T08:37:03.625Z</time>
      </trkpt>
      <trkpt lat="46.91334" lon="8.67857">
        <ele>1848</ele>
        <time>2021-08-07T08:37:04.625Z</time>
      </trkpt>
      <trkpt lat="46.91333" lon="8.67857">
        <ele>1848</ele>
        <time>2021-08-07T08:37:05.625Z</time>
      </trkpt>
      <trkpt lat="46.91333" lon="8.67857">
        <ele>1848</ele>
        <time>2021-08-07T08:37:06.625Z</time>
      </trkpt>
      <trkpt lat="46.91332" lon="8.67857">
        <ele>1847</ele>
        <time>2021-08-07T08:37:07.625Z</time>
      </trkpt>
      <trkpt lat="46.91332" lon="8.67858">
        <ele>1847</ele>
        <time>2021-08-07T08:37:08.625Z</time>
      </trkpt>
      <trkpt lat="46.91332" lon="8.67858">
        <ele>1846</ele>
        <time>2021-08-07T08:37:09.625Z</time>
      </trkpt>
      <trkpt lat="46.91332" lon="8.67859">
        <ele>1846</ele>
        <time>2021-08-07T08:37:10.625Z</time>
      </trkpt>
      <trkpt lat="46.91332" lon="8.67859">
        <ele>1845</ele>
        <time>2021-08-07T08:37:11.625Z</time>
      </trkpt>
      <trkpt lat="46.91331" lon="8.67859">
        <ele>1844</ele>
        <time>2021-08-07T08:37:12.625Z</time>
      </trkpt>
      <trkpt lat="46.91331" lon="8.67859">
        <ele>1844</ele>
        <time>2021-08-07T08:37:13.625Z</time>
      </trkpt>
      <trkpt lat="46.9133" lon="8.67859">
        <ele>1844</ele>
        <time>2021-08-07T08:37:14.625Z</time>
      </trkpt>
      <trkpt lat="46.91326" lon="8.67857">
        <ele>1850</ele>
        <time>2021-08-07T08:37:15.626Z</time>
      </trkpt>
      <trkpt lat="46.91326" lon="8.67857">
        <ele>1850</ele>
        <time>2021-08-07T08:37:16.625Z</time>
      </trkpt>
      <trkpt lat="46.91326" lon="8.67856">
        <ele>1849</ele>
        <time>2021-08-07T08:37:17.625Z</time>
      </trkpt>
      <trkpt lat="46.91326" lon="8.67855">
        <ele>1849</ele>
        <time>2021-08-07T08:37:18.626Z</time>
      </trkpt>
      <trkpt lat="46.91326" lon="8.67854">
        <ele>1848</ele>
        <time>2021-08-07T08:37:19.626Z</time>
      </trkpt>
      <trkpt lat="46.91326" lon="8.67854">
        <ele>1847</ele>
        <time>2021-08-07T08:37:20.626Z</time>
      </trkpt>
      <trkpt lat="46.91327" lon="8.67853">
        <ele>1846</ele>
        <time>2021-08-07T08:37:21.626Z</time>
      </trkpt>
      <trkpt lat="46.91328" lon="8.67853">
        <ele>1845</ele>
        <time>2021-08-07T08:37:22.626Z</time>
      </trkpt>
      <trkpt lat="46.9133" lon="8.67852">
        <ele>1842</ele>
        <time>2021-08-07T08:37:23.625Z</time>
      </trkpt>
      <trkpt lat="46.9133" lon="8.6785">
        <ele>1841</ele>
        <time>2021-08-07T08:37:24.626Z</time>
      </trkpt>
      <trkpt lat="46.9133" lon="8.67848">
        <ele>1841</ele>
        <time>2021-08-07T08:37:25.625Z</time>
      </trkpt>
      <trkpt lat="46.9133" lon="8.67847">
        <ele>1840</ele>
        <time>2021-08-07T08:37:26.626Z</time>
      </trkpt>
      <trkpt lat="46.91329" lon="8.67845">
        <ele>1840</ele>
        <time>2021-08-07T08:37:27.626Z</time>
      </trkpt>
      <trkpt lat="46.91329" lon="8.67843">
        <ele>1840</ele>
        <time>2021-08-07T08:37:28.626Z</time>
      </trkpt>
      <trkpt lat="46.91328" lon="8.67842">
        <ele>1840</ele>
        <time>2021-08-07T08:37:29.626Z</time>
      </trkpt>
      <trkpt lat="46.91329" lon="8.67841">
        <ele>1840</ele>
        <time>2021-08-07T08:37:30.626Z</time>
      </trkpt>
      <trkpt lat="46.91329" lon="8.6784">
        <ele>1841</ele>
        <time>2021-08-07T08:37:31.626Z</time>
      </trkpt>
      <trkpt lat="46.9133" lon="8.6784">
        <ele>1841</ele>
        <time>2021-08-07T08:37:32.625Z</time>
      </trkpt>
      <trkpt lat="46.91331" lon="8.67838">
        <ele>1841</ele>
        <time>2021-08-07T08:37:33.626Z</time>
      </trkpt>
      <trkpt lat="46.91332" lon="8.67837">
        <ele>1841</ele>
        <time>2021-08-07T08:37:34.626Z</time>
      </trkpt>
      <trkpt lat="46.91332" lon="8.67835">
        <ele>1841</ele>
        <time>2021-08-07T08:37:35.626Z</time>
      </trkpt>
      <trkpt lat="46.91332" lon="8.67834">
        <ele>1841</ele>
        <time>2021-08-07T08:37:36.626Z</time>
      </trkpt>
      <trkpt lat="46.91333" lon="8.67832">
        <ele>1841</ele>
        <time>2021-08-07T08:37:37.625Z</time>
      </trkpt>
      <trkpt lat="46.91333" lon="8.67831">
        <ele>1841</ele>
        <time>2021-08-07T08:37:38.625Z</time>
      </trkpt>
      <trkpt lat="46.91333" lon="8.6783">
        <ele>1840</ele>
        <time>2021-08-07T08:37:39.626Z</time>
      </trkpt>
      <trkpt lat="46.91332" lon="8.67829">
        <ele>1840</ele>
        <time>2021-08-07T08:37:40.625Z</time>
      </trkpt>
      <trkpt lat="46.91331" lon="8.67829">
        <ele>1840</ele>
        <time>2021-08-07T08:37:41.626Z</time>
      </trkpt>
      <trkpt lat="46.9133" lon="8.67829">
        <ele>1840</ele>
        <time>2021-08-07T08:37:42.626Z</time>
      </trkpt>
      <trkpt lat="46.91329" lon="8.67829">
        <ele>1840</ele>
        <time>2021-08-07T08:37:43.626Z</time>
      </trkpt>
      <trkpt lat="46.91328" lon="8.6783">
        <ele>1840</ele>
        <time>2021-08-07T08:37:44.625Z</time>
      </trkpt>
      <trkpt lat="46.91327" lon="8.67832">
        <ele>1840</ele>
        <time>2021-08-07T08:37:45.625Z</time>
      </trkpt>
      <trkpt lat="46.91326" lon="8.67832">
        <ele>1840</ele>
        <time>2021-08-07T08:37:46.626Z</time>
      </trkpt>
      <trkpt lat="46.91325" lon="8.67832">
        <ele>1840</ele>
        <time>2021-08-07T08:37:47.626Z</time>
      </trkpt>
      <trkpt lat="46.91324" lon="8.67831">
        <ele>1841</ele>
        <time>2021-08-07T08:37:48.626Z</time>
      </trkpt>
      <trkpt lat="46.91324" lon="8.6783">
        <ele>1841</ele>
        <time>2021-08-07T08:37:49.626Z</time>
      </trkpt>
      <trkpt lat="46.91324" lon="8.67829">
        <ele>1841</ele>
        <time>2021-08-07T08:37:50.625Z</time>
      </trkpt>
      <trkpt lat="46.91323" lon="8.67828">
        <ele>1842</ele>
        <time>2021-08-07T08:37:51.626Z</time>
      </trkpt>
      <trkpt lat="46.91321" lon="8.67827">
        <ele>1843</ele>
        <time>2021-08-07T08:37:52.626Z</time>
      </trkpt>
      <trkpt lat="46.9132" lon="8.67826">
        <ele>1843</ele>
        <time>2021-08-07T08:37:53.626Z</time>
      </trkpt>
      <trkpt lat="46.9132" lon="8.67826">
        <ele>1844</ele>
        <time>2021-08-07T08:37:54.626Z</time>
      </trkpt>
      <trkpt lat="46.91319" lon="8.67825">
        <ele>1845</ele>
        <time>2021-08-07T08:37:55.625Z</time>
      </trkpt>
      <trkpt lat="46.91317" lon="8.67825">
        <ele>1846</ele>
        <time>2021-08-07T08:37:56.626Z</time>
      </trkpt>
      <trkpt lat="46.91317" lon="8.67825">
        <ele>1846</ele>
        <time>2021-08-07T08:37:57.625Z</time>
      </trkpt>
      <trkpt lat="46.91317" lon="8.67824">
        <ele>1847</ele>
        <time>2021-08-07T08:37:58.625Z</time>
      </trkpt>
      <trkpt lat="46.91317" lon="8.67824">
        <ele>1847</ele>
        <time>2021-08-07T08:37:59.626Z</time>
      </trkpt>
      <trkpt lat="46.91316" lon="8.67824">
        <ele>1850</ele>
        <time>2021-08-07T08:38:00.627Z</time>
      </trkpt>
      <trkpt lat="46.91318" lon="8.67822">
        <ele>1844</ele>
        <time>2021-08-07T08:38:01.627Z</time>
      </trkpt>
      <trkpt lat="46.91318" lon="8.67821">
        <ele>1843</ele>
        <time>2021-08-07T08:38:02.627Z</time>
      </trkpt>
      <trkpt lat="46.91318" lon="8.6782">
        <ele>1842</ele>
        <time>2021-08-07T08:38:03.626Z</time>
      </trkpt>
      <trkpt lat="46.91318" lon="8.6782">
        <ele>1842</ele>
        <time>2021-08-07T08:38:04.627Z</time>
      </trkpt>
      <trkpt lat="46.91318" lon="8.67819">
        <ele>1842</ele>
        <time>2021-08-07T08:38:05.627Z</time>
      </trkpt>
      <trkpt lat="46.91317" lon="8.67818">
        <ele>1841</ele>
        <time>2021-08-07T08:38:06.627Z</time>
      </trkpt>
      <trkpt lat="46.91317" lon="8.67818">
        <ele>1841</ele>
        <time>2021-08-07T08:38:07.626Z</time>
      </trkpt>
      <trkpt lat="46.91317" lon="8.67817">
        <ele>1841</ele>
        <time>2021-08-07T08:38:08.627Z</time>
      </trkpt>
      <trkpt lat="46.91316" lon="8.67817">
        <ele>1840</ele>
        <time>2021-08-07T08:38:09.627Z</time>
      </trkpt>
      <trkpt lat="46.91315" lon="8.67818">
        <ele>1839</ele>
        <time>2021-08-07T08:38:10.627Z</time>
      </trkpt>
      <trkpt lat="46.91315" lon="8.67818">
        <ele>1837</ele>
        <time>2021-08-07T08:38:11.626Z</time>
      </trkpt>
      <trkpt lat="46.91315" lon="8.67819">
        <ele>1836</ele>
        <time>2021-08-07T08:38:12.627Z</time>
      </trkpt>
      <trkpt lat="46.91314" lon="8.67819">
        <ele>1836</ele>
        <time>2021-08-07T08:38:13.626Z</time>
      </trkpt>
      <trkpt lat="46.91313" lon="8.67819">
        <ele>1835</ele>
        <time>2021-08-07T08:38:14.627Z</time>
      </trkpt>
      <trkpt lat="46.91312" lon="8.67819">
        <ele>1835</ele>
        <time>2021-08-07T08:38:15.627Z</time>
      </trkpt>
      <trkpt lat="46.91311" lon="8.6782">
        <ele>1835</ele>
        <time>2021-08-07T08:38:16.626Z</time>
      </trkpt>
      <trkpt lat="46.9131" lon="8.67821">
        <ele>1835</ele>
        <time>2021-08-07T08:38:17.627Z</time>
      </trkpt>
      <trkpt lat="46.9131" lon="8.67821">
        <ele>1835</ele>
        <time>2021-08-07T08:38:18.627Z</time>
      </trkpt>
      <trkpt lat="46.91309" lon="8.67823">
        <ele>1835</ele>
        <time>2021-08-07T08:38:19.627Z</time>
      </trkpt>
      <trkpt lat="46.91309" lon="8.67824">
        <ele>1835</ele>
        <time>2021-08-07T08:38:20.627Z</time>
      </trkpt>
      <trkpt lat="46.91309" lon="8.67824">
        <ele>1835</ele>
        <time>2021-08-07T08:38:21.627Z</time>
      </trkpt>
      <trkpt lat="46.91308" lon="8.67825">
        <ele>1835</ele>
        <time>2021-08-07T08:38:22.627Z</time>
      </trkpt>
      <trkpt lat="46.91308" lon="8.67826">
        <ele>1835</ele>
        <time>2021-08-07T08:38:23.626Z</time>
      </trkpt>
      <trkpt lat="46.91307" lon="8.67826">
        <ele>1835</ele>
        <time>2021-08-07T08:38:24.627Z</time>
      </trkpt>
      <trkpt lat="46.91306" lon="8.67827">
        <ele>1836</ele>
        <time>2021-08-07T08:38:25.626Z</time>
      </trkpt>
      <trkpt lat="46.91305" lon="8.67827">
        <ele>1836</ele>
        <time>2021-08-07T08:38:26.627Z</time>
      </trkpt>
      <trkpt lat="46.91304" lon="8.67827">
        <ele>1836</ele>
        <time>2021-08-07T08:38:27.627Z</time>
      </trkpt>
      <trkpt lat="46.91304" lon="8.67828">
        <ele>1836</ele>
        <time>2021-08-07T08:38:28.626Z</time>
      </trkpt>
      <trkpt lat="46.91303" lon="8.67828">
        <ele>1836</ele>
        <time>2021-08-07T08:38:29.627Z</time>
      </trkpt>
      <trkpt lat="46.91302" lon="8.67828">
        <ele>1837</ele>
        <time>2021-08-07T08:38:30.626Z</time>
      </trkpt>
      <trkpt lat="46.91301" lon="8.67827">
        <ele>1837</ele>
        <time>2021-08-07T08:38:31.627Z</time>
      </trkpt>
      <trkpt lat="46.913" lon="8.67826">
        <ele>1837</ele>
        <time>2021-08-07T08:38:32.627Z</time>
      </trkpt>
      <trkpt lat="46.91299" lon="8.67827">
        <ele>1837</ele>
        <time>2021-08-07T08:38:33.626Z</time>
      </trkpt>
      <trkpt lat="46.91298" lon="8.67827">
        <ele>1838</ele>
        <time>2021-08-07T08:38:34.627Z</time>
      </trkpt>
      <trkpt lat="46.91297" lon="8.67827">
        <ele>1838</ele>
        <time>2021-08-07T08:38:35.626Z</time>
      </trkpt>
      <trkpt lat="46.91296" lon="8.67828">
        <ele>1838</ele>
        <time>2021-08-07T08:38:36.627Z</time>
      </trkpt>
      <trkpt lat="46.91295" lon="8.67828">
        <ele>1839</ele>
        <time>2021-08-07T08:38:37.627Z</time>
      </trkpt>
      <trkpt lat="46.91294" lon="8.67829">
        <ele>1839</ele>
        <time>2021-08-07T08:38:38.627Z</time>
      </trkpt>
      <trkpt lat="46.91293" lon="8.6783">
        <ele>1839</ele>
        <time>2021-08-07T08:38:39.626Z</time>
      </trkpt>
      <trkpt lat="46.91292" lon="8.67831">
        <ele>1839</ele>
        <time>2021-08-07T08:38:40.627Z</time>
      </trkpt>
      <trkpt lat="46.91291" lon="8.67831">
        <ele>1839</ele>
        <time>2021-08-07T08:38:41.627Z</time>
      </trkpt>
      <trkpt lat="46.9129" lon="8.67831">
        <ele>1840</ele>
        <time>2021-08-07T08:38:42.626Z</time>
      </trkpt>
      <trkpt lat="46.91289" lon="8.6783">
        <ele>1840</ele>
        <time>2021-08-07T08:38:43.627Z</time>
      </trkpt>
      <trkpt lat="46.91289" lon="8.6783">
        <ele>1840</ele>
        <time>2021-08-07T08:38:44.627Z</time>
      </trkpt>
      <trkpt lat="46.91288" lon="8.67829">
        <ele>1840</ele>
        <time>2021-08-07T08:38:45.626Z</time>
      </trkpt>
      <trkpt lat="46.91287" lon="8.67827">
        <ele>1840</ele>
        <time>2021-08-07T08:38:46.627Z</time>
      </trkpt>
      <trkpt lat="46.91287" lon="8.67827">
        <ele>1841</ele>
        <time>2021-08-07T08:38:47.627Z</time>
      </trkpt>
      <trkpt lat="46.91286" lon="8.67827">
        <ele>1841</ele>
        <time>2021-08-07T08:38:48.627Z</time>
      </trkpt>
      <trkpt lat="46.91285" lon="8.67826">
        <ele>1841</ele>
        <time>2021-08-07T08:38:49.626Z</time>
      </trkpt>
      <trkpt lat="46.91285" lon="8.67826">
        <ele>1841</ele>
        <time>2021-08-07T08:38:50.627Z</time>
      </trkpt>
      <trkpt lat="46.91285" lon="8.67825">
        <ele>1841</ele>
        <time>2021-08-07T08:38:51.627Z</time>
      </trkpt>
      <trkpt lat="46.91285" lon="8.67824">
        <ele>1841</ele>
        <time>2021-08-07T08:38:52.627Z</time>
      </trkpt>
      <trkpt lat="46.91284" lon="8.67824">
        <ele>1841</ele>
        <time>2021-08-07T08:38:53.626Z</time>
      </trkpt>
      <trkpt lat="46.91284" lon="8.67824">
        <ele>1841</ele>
        <time>2021-08-07T08:38:54.627Z</time>
      </trkpt>
      <trkpt lat="46.91284" lon="8.67823">
        <ele>1840</ele>
        <time>2021-08-07T08:38:55.626Z</time>
      </trkpt>
      <trkpt lat="46.91283" lon="8.67822">
        <ele>1840</ele>
        <time>2021-08-07T08:38:56.626Z</time>
      </trkpt>
      <trkpt lat="46.91283" lon="8.67821">
        <ele>1840</ele>
        <time>2021-08-07T08:38:57.627Z</time>
      </trkpt>
      <trkpt lat="46.91283" lon="8.67819">
        <ele>1840</ele>
        <time>2021-08-07T08:38:58.627Z</time>
      </trkpt>
      <trkpt lat="46.91281" lon="8.67819">
        <ele>1840</ele>
        <time>2021-08-07T08:38:59.627Z</time>
      </trkpt>
      <trkpt lat="46.9128" lon="8.67819">
        <ele>1840</ele>
        <time>2021-08-07T08:39:00.627Z</time>
      </trkpt>
      <trkpt lat="46.9128" lon="8.6782">
        <ele>1840</ele>
        <time>2021-08-07T08:39:01.627Z</time>
      </trkpt>
      <trkpt lat="46.9128" lon="8.67821">
        <ele>1839</ele>
        <time>2021-08-07T08:39:02.627Z</time>
      </trkpt>
      <trkpt lat="46.91279" lon="8.67821">
        <ele>1839</ele>
        <time>2021-08-07T08:39:03.627Z</time>
      </trkpt>
      <trkpt lat="46.91278" lon="8.67822">
        <ele>1839</ele>
        <time>2021-08-07T08:39:04.627Z</time>
      </trkpt>
      <trkpt lat="46.91277" lon="8.67822">
        <ele>1839</ele>
        <time>2021-08-07T08:39:05.626Z</time>
      </trkpt>
      <trkpt lat="46.91276" lon="8.67821">
        <ele>1838</ele>
        <time>2021-08-07T08:39:06.627Z</time>
      </trkpt>
      <trkpt lat="46.91276" lon="8.67821">
        <ele>1838</ele>
        <time>2021-08-07T08:39:07.627Z</time>
      </trkpt>
      <trkpt lat="46.91275" lon="8.67821">
        <ele>1838</ele>
        <time>2021-08-07T08:39:08.627Z</time>
      </trkpt>
      <trkpt lat="46.91274" lon="8.67821">
        <ele>1838</ele>
        <time>2021-08-07T08:39:09.627Z</time>
      </trkpt>
      <trkpt lat="46.91273" lon="8.67821">
        <ele>1837</ele>
        <time>2021-08-07T08:39:10.627Z</time>
      </trkpt>
      <trkpt lat="46.91272" lon="8.67821">
        <ele>1837</ele>
        <time>2021-08-07T08:39:11.627Z</time>
      </trkpt>
      <trkpt lat="46.91271" lon="8.67822">
        <ele>1836</ele>
        <time>2021-08-07T08:39:12.627Z</time>
      </trkpt>
      <trkpt lat="46.9127" lon="8.67822">
        <ele>1836</ele>
        <time>2021-08-07T08:39:13.627Z</time>
      </trkpt>
      <trkpt lat="46.91269" lon="8.67822">
        <ele>1836</ele>
        <time>2021-08-07T08:39:14.626Z</time>
      </trkpt>
      <trkpt lat="46.91267" lon="8.67822">
        <ele>1835</ele>
        <time>2021-08-07T08:39:15.626Z</time>
      </trkpt>
      <trkpt lat="46.91266" lon="8.67822">
        <ele>1836</ele>
        <time>2021-08-07T08:39:16.627Z</time>
      </trkpt>
      <trkpt lat="46.91265" lon="8.67823">
        <ele>1835</ele>
        <time>2021-08-07T08:39:17.626Z</time>
      </trkpt>
      <trkpt lat="46.91265" lon="8.67824">
        <ele>1835</ele>
        <time>2021-08-07T08:39:18.627Z</time>
      </trkpt>
      <trkpt lat="46.91264" lon="8.67825">
        <ele>1835</ele>
        <time>2021-08-07T08:39:19.627Z</time>
      </trkpt>
      <trkpt lat="46.91263" lon="8.67826">
        <ele>1834</ele>
        <time>2021-08-07T08:39:20.627Z</time>
      </trkpt>
      <trkpt lat="46.91262" lon="8.67827">
        <ele>1834</ele>
        <time>2021-08-07T08:39:21.627Z</time>
      </trkpt>
      <trkpt lat="46.91261" lon="8.67828">
        <ele>1833</ele>
        <time>2021-08-07T08:39:22.626Z</time>
      </trkpt>
      <trkpt lat="46.9126" lon="8.67828">
        <ele>1832</ele>
        <time>2021-08-07T08:39:23.626Z</time>
      </trkpt>
      <trkpt lat="46.91259" lon="8.6783">
        <ele>1831</ele>
        <time>2021-08-07T08:39:24.627Z</time>
      </trkpt>
      <trkpt lat="46.9126" lon="8.67831">
        <ele>1829</ele>
        <time>2021-08-07T08:39:25.627Z</time>
      </trkpt>
      <trkpt lat="46.91259" lon="8.67832">
        <ele>1828</ele>
        <time>2021-08-07T08:39:26.627Z</time>
      </trkpt>
      <trkpt lat="46.91258" lon="8.67832">
        <ele>1827</ele>
        <time>2021-08-07T08:39:27.627Z</time>
      </trkpt>
      <trkpt lat="46.91257" lon="8.67832">
        <ele>1827</ele>
        <time>2021-08-07T08:39:28.626Z</time>
      </trkpt>
      <trkpt lat="46.91257" lon="8.67831">
        <ele>1826</ele>
        <time>2021-08-07T08:39:29.627Z</time>
      </trkpt>
      <trkpt lat="46.91256" lon="8.67831">
        <ele>1826</ele>
        <time>2021-08-07T08:39:30.627Z</time>
      </trkpt>
      <trkpt lat="46.91255" lon="8.67831">
        <ele>1826</ele>
        <time>2021-08-07T08:39:31.627Z</time>
      </trkpt>
      <trkpt lat="46.91254" lon="8.67831">
        <ele>1826</ele>
        <time>2021-08-07T08:39:32.626Z</time>
      </trkpt>
      <trkpt lat="46.91252" lon="8.67831">
        <ele>1826</ele>
        <time>2021-08-07T08:39:33.627Z</time>
      </trkpt>
      <trkpt lat="46.91251" lon="8.67831">
        <ele>1826</ele>
        <time>2021-08-07T08:39:34.627Z</time>
      </trkpt>
      <trkpt lat="46.91249" lon="8.67831">
        <ele>1825</ele>
        <time>2021-08-07T08:39:35.627Z</time>
      </trkpt>
      <trkpt lat="46.91248" lon="8.67831">
        <ele>1824</ele>
        <time>2021-08-07T08:39:36.627Z</time>
      </trkpt>
      <trkpt lat="46.91247" lon="8.67831">
        <ele>1824</ele>
        <time>2021-08-07T08:39:37.627Z</time>
      </trkpt>
      <trkpt lat="46.91245" lon="8.6783">
        <ele>1824</ele>
        <time>2021-08-07T08:39:38.627Z</time>
      </trkpt>
      <trkpt lat="46.91244" lon="8.6783">
        <ele>1823</ele>
        <time>2021-08-07T08:39:39.627Z</time>
      </trkpt>
      <trkpt lat="46.91243" lon="8.6783">
        <ele>1823</ele>
        <time>2021-08-07T08:39:40.626Z</time>
      </trkpt>
      <trkpt lat="46.91243" lon="8.6783">
        <ele>1822</ele>
        <time>2021-08-07T08:39:41.627Z</time>
      </trkpt>
      <trkpt lat="46.91242" lon="8.6783">
        <ele>1821</ele>
        <time>2021-08-07T08:39:42.627Z</time>
      </trkpt>
      <trkpt lat="46.91241" lon="8.67829">
        <ele>1820</ele>
        <time>2021-08-07T08:39:43.627Z</time>
      </trkpt>
      <trkpt lat="46.9124" lon="8.67829">
        <ele>1819</ele>
        <time>2021-08-07T08:39:44.627Z</time>
      </trkpt>
      <trkpt lat="46.91239" lon="8.67828">
        <ele>1819</ele>
        <time>2021-08-07T08:39:45.627Z</time>
      </trkpt>
      <trkpt lat="46.91238" lon="8.67828">
        <ele>1819</ele>
        <time>2021-08-07T08:39:46.627Z</time>
      </trkpt>
      <trkpt lat="46.91237" lon="8.67828">
        <ele>1818</ele>
        <time>2021-08-07T08:39:47.626Z</time>
      </trkpt>
      <trkpt lat="46.91236" lon="8.67827">
        <ele>1818</ele>
        <time>2021-08-07T08:39:48.626Z</time>
      </trkpt>
      <trkpt lat="46.91236" lon="8.67828">
        <ele>1818</ele>
        <time>2021-08-07T08:39:49.627Z</time>
      </trkpt>
      <trkpt lat="46.91235" lon="8.67828">
        <ele>1818</ele>
        <time>2021-08-07T08:39:50.627Z</time>
      </trkpt>
      <trkpt lat="46.91234" lon="8.67828">
        <ele>1817</ele>
        <time>2021-08-07T08:39:51.626Z</time>
      </trkpt>
      <trkpt lat="46.91232" lon="8.67827">
        <ele>1817</ele>
        <time>2021-08-07T08:39:52.627Z</time>
      </trkpt>
      <trkpt lat="46.91232" lon="8.67827">
        <ele>1818</ele>
        <time>2021-08-07T08:39:53.626Z</time>
      </trkpt>
      <trkpt lat="46.91231" lon="8.67827">
        <ele>1818</ele>
        <time>2021-08-07T08:39:54.627Z</time>
      </trkpt>
      <trkpt lat="46.9123" lon="8.67826">
        <ele>1819</ele>
        <time>2021-08-07T08:39:55.627Z</time>
      </trkpt>
      <trkpt lat="46.91229" lon="8.67826">
        <ele>1820</ele>
        <time>2021-08-07T08:39:56.627Z</time>
      </trkpt>
      <trkpt lat="46.91228" lon="8.67826">
        <ele>1821</ele>
        <time>2021-08-07T08:39:57.626Z</time>
      </trkpt>
      <trkpt lat="46.91227" lon="8.67826">
        <ele>1821</ele>
        <time>2021-08-07T08:39:58.627Z</time>
      </trkpt>
      <trkpt lat="46.91226" lon="8.67825">
        <ele>1822</ele>
        <time>2021-08-07T08:39:59.627Z</time>
      </trkpt>
      <trkpt lat="46.91225" lon="8.67825">
        <ele>1822</ele>
        <time>2021-08-07T08:40:00.627Z</time>
      </trkpt>
      <trkpt lat="46.91224" lon="8.67825">
        <ele>1823</ele>
        <time>2021-08-07T08:40:01.627Z</time>
      </trkpt>
      <trkpt lat="46.91223" lon="8.67825">
        <ele>1824</ele>
        <time>2021-08-07T08:40:02.627Z</time>
      </trkpt>
      <trkpt lat="46.91222" lon="8.67826">
        <ele>1824</ele>
        <time>2021-08-07T08:40:03.626Z</time>
      </trkpt>
      <trkpt lat="46.91221" lon="8.67826">
        <ele>1824</ele>
        <time>2021-08-07T08:40:04.627Z</time>
      </trkpt>
      <trkpt lat="46.9122" lon="8.67826">
        <ele>1823</ele>
        <time>2021-08-07T08:40:05.627Z</time>
      </trkpt>
      <trkpt lat="46.9122" lon="8.67826">
        <ele>1823</ele>
        <time>2021-08-07T08:40:06.627Z</time>
      </trkpt>
      <trkpt lat="46.91219" lon="8.67826">
        <ele>1823</ele>
        <time>2021-08-07T08:40:07.627Z</time>
      </trkpt>
      <trkpt lat="46.91217" lon="8.67825">
        <ele>1823</ele>
        <time>2021-08-07T08:40:08.626Z</time>
      </trkpt>
      <trkpt lat="46.91216" lon="8.67824">
        <ele>1823</ele>
        <time>2021-08-07T08:40:09.626Z</time>
      </trkpt>
      <trkpt lat="46.91215" lon="8.67822">
        <ele>1823</ele>
        <time>2021-08-07T08:40:10.626Z</time>
      </trkpt>
      <trkpt lat="46.91214" lon="8.67821">
        <ele>1824</ele>
        <time>2021-08-07T08:40:11.627Z</time>
      </trkpt>
      <trkpt lat="46.91213" lon="8.67821">
        <ele>1824</ele>
        <time>2021-08-07T08:40:12.627Z</time>
      </trkpt>
      <trkpt lat="46.91213" lon="8.67821">
        <ele>1823</ele>
        <time>2021-08-07T08:40:13.626Z</time>
      </trkpt>
      <trkpt lat="46.91212" lon="8.6782">
        <ele>1822</ele>
        <time>2021-08-07T08:40:14.626Z</time>
      </trkpt>
      <trkpt lat="46.91211" lon="8.6782">
        <ele>1821</ele>
        <time>2021-08-07T08:40:15.627Z</time>
      </trkpt>
      <trkpt lat="46.9121" lon="8.67819">
        <ele>1820</ele>
        <time>2021-08-07T08:40:16.627Z</time>
      </trkpt>
      <trkpt lat="46.91209" lon="8.67819">
        <ele>1819</ele>
        <time>2021-08-07T08:40:17.627Z</time>
      </trkpt>
      <trkpt lat="46.91208" lon="8.67818">
        <ele>1818</ele>
        <time>2021-08-07T08:40:18.627Z</time>
      </trkpt>
      <trkpt lat="46.91208" lon="8.67818">
        <ele>1817</ele>
        <time>2021-08-07T08:40:19.626Z</time>
      </trkpt>
      <trkpt lat="46.91207" lon="8.67818">
        <ele>1816</ele>
        <time>2021-08-07T08:40:20.626Z</time>
      </trkpt>
      <trkpt lat="46.91206" lon="8.67817">
        <ele>1815</ele>
        <time>2021-08-07T08:40:21.627Z</time>
      </trkpt>
      <trkpt lat="46.91206" lon="8.67817">
        <ele>1815</ele>
        <time>2021-08-07T08:40:22.626Z</time>
      </trkpt>
      <trkpt lat="46.91205" lon="8.67816">
        <ele>1815</ele>
        <time>2021-08-07T08:40:23.626Z</time>
      </trkpt>
      <trkpt lat="46.91204" lon="8.67815">
        <ele>1815</ele>
        <time>2021-08-07T08:40:24.627Z</time>
      </trkpt>
      <trkpt lat="46.91202" lon="8.67814">
        <ele>1815</ele>
        <time>2021-08-07T08:40:25.627Z</time>
      </trkpt>
      <trkpt lat="46.91201" lon="8.67814">
        <ele>1815</ele>
        <time>2021-08-07T08:40:26.626Z</time>
      </trkpt>
      <trkpt lat="46.912" lon="8.67814">
        <ele>1816</ele>
        <time>2021-08-07T08:40:27.626Z</time>
      </trkpt>
      <trkpt lat="46.91199" lon="8.67814">
        <ele>1816</ele>
        <time>2021-08-07T08:40:28.627Z</time>
      </trkpt>
      <trkpt lat="46.91197" lon="8.67814">
        <ele>1817</ele>
        <time>2021-08-07T08:40:29.627Z</time>
      </trkpt>
      <trkpt lat="46.91196" lon="8.67814">
        <ele>1817</ele>
        <time>2021-08-07T08:40:30.626Z</time>
      </trkpt>
      <trkpt lat="46.91194" lon="8.67814">
        <ele>1818</ele>
        <time>2021-08-07T08:40:31.626Z</time>
      </trkpt>
      <trkpt lat="46.91194" lon="8.67814">
        <ele>1819</ele>
        <time>2021-08-07T08:40:32.626Z</time>
      </trkpt>
      <trkpt lat="46.91192" lon="8.67813">
        <ele>1819</ele>
        <time>2021-08-07T08:40:33.626Z</time>
      </trkpt>
      <trkpt lat="46.91191" lon="8.67813">
        <ele>1820</ele>
        <time>2021-08-07T08:40:34.626Z</time>
      </trkpt>
      <trkpt lat="46.9119" lon="8.67812">
        <ele>1820</ele>
        <time>2021-08-07T08:40:35.626Z</time>
      </trkpt>
      <trkpt lat="46.91188" lon="8.67811">
        <ele>1821</ele>
        <time>2021-08-07T08:40:36.626Z</time>
      </trkpt>
      <trkpt lat="46.91187" lon="8.67811">
        <ele>1821</ele>
        <time>2021-08-07T08:40:37.626Z</time>
      </trkpt>
      <trkpt lat="46.91185" lon="8.6781">
        <ele>1821</ele>
        <time>2021-08-07T08:40:38.626Z</time>
      </trkpt>
      <trkpt lat="46.91185" lon="8.6781">
        <ele>1822</ele>
        <time>2021-08-07T08:40:39.626Z</time>
      </trkpt>
      <trkpt lat="46.91184" lon="8.67811">
        <ele>1821</ele>
        <time>2021-08-07T08:40:40.626Z</time>
      </trkpt>
      <trkpt lat="46.91183" lon="8.67811">
        <ele>1821</ele>
        <time>2021-08-07T08:40:41.626Z</time>
      </trkpt>
      <trkpt lat="46.91182" lon="8.67811">
        <ele>1821</ele>
        <time>2021-08-07T08:40:42.626Z</time>
      </trkpt>
      <trkpt lat="46.9118" lon="8.6781">
        <ele>1821</ele>
        <time>2021-08-07T08:40:43.626Z</time>
      </trkpt>
      <trkpt lat="46.91179" lon="8.6781">
        <ele>1821</ele>
        <time>2021-08-07T08:40:44.626Z</time>
      </trkpt>
      <trkpt lat="46.91178" lon="8.6781">
        <ele>1820</ele>
        <time>2021-08-07T08:40:45.627Z</time>
      </trkpt>
      <trkpt lat="46.91178" lon="8.6781">
        <ele>1820</ele>
        <time>2021-08-07T08:40:46.626Z</time>
      </trkpt>
      <trkpt lat="46.91177" lon="8.6781">
        <ele>1820</ele>
        <time>2021-08-07T08:40:47.626Z</time>
      </trkpt>
      <trkpt lat="46.91176" lon="8.67809">
        <ele>1820</ele>
        <time>2021-08-07T08:40:48.627Z</time>
      </trkpt>
      <trkpt lat="46.91176" lon="8.67808">
        <ele>1819</ele>
        <time>2021-08-07T08:40:49.626Z</time>
      </trkpt>
      <trkpt lat="46.91175" lon="8.67808">
        <ele>1819</ele>
        <time>2021-08-07T08:40:50.627Z</time>
      </trkpt>
      <trkpt lat="46.91174" lon="8.67808">
        <ele>1819</ele>
        <time>2021-08-07T08:40:51.626Z</time>
      </trkpt>
      <trkpt lat="46.91174" lon="8.67807">
        <ele>1818</ele>
        <time>2021-08-07T08:40:52.627Z</time>
      </trkpt>
      <trkpt lat="46.91173" lon="8.67807">
        <ele>1818</ele>
        <time>2021-08-07T08:40:53.626Z</time>
      </trkpt>
      <trkpt lat="46.91172" lon="8.67806">
        <ele>1817</ele>
        <time>2021-08-07T08:40:54.626Z</time>
      </trkpt>
      <trkpt lat="46.91171" lon="8.67805">
        <ele>1816</ele>
        <time>2021-08-07T08:40:55.627Z</time>
      </trkpt>
      <trkpt lat="46.9117" lon="8.67804">
        <ele>1815</ele>
        <time>2021-08-07T08:40:56.626Z</time>
      </trkpt>
      <trkpt lat="46.91169" lon="8.67804">
        <ele>1814</ele>
        <time>2021-08-07T08:40:57.626Z</time>
      </trkpt>
      <trkpt lat="46.91168" lon="8.67804">
        <ele>1814</ele>
        <time>2021-08-07T08:40:58.626Z</time>
      </trkpt>
      <trkpt lat="46.91167" lon="8.67803">
        <ele>1813</ele>
        <time>2021-08-07T08:40:59.626Z</time>
      </trkpt>
      <trkpt lat="46.91166" lon="8.67803">
        <ele>1813</ele>
        <time>2021-08-07T08:41:00.626Z</time>
      </trkpt>
      <trkpt lat="46.91165" lon="8.67803">
        <ele>1813</ele>
        <time>2021-08-07T08:41:01.627Z</time>
      </trkpt>
      <trkpt lat="46.91164" lon="8.67802">
        <ele>1814</ele>
        <time>2021-08-07T08:41:02.627Z</time>
      </trkpt>
      <trkpt lat="46.91163" lon="8.67802">
        <ele>1814</ele>
        <time>2021-08-07T08:41:03.627Z</time>
      </trkpt>
      <trkpt lat="46.91162" lon="8.67802">
        <ele>1814</ele>
        <time>2021-08-07T08:41:04.627Z</time>
      </trkpt>
      <trkpt lat="46.9116" lon="8.67802">
        <ele>1814</ele>
        <time>2021-08-07T08:41:05.627Z</time>
      </trkpt>
      <trkpt lat="46.91159" lon="8.67801">
        <ele>1814</ele>
        <time>2021-08-07T08:41:06.626Z</time>
      </trkpt>
      <trkpt lat="46.91158" lon="8.678">
        <ele>1815</ele>
        <time>2021-08-07T08:41:07.627Z</time>
      </trkpt>
      <trkpt lat="46.91157" lon="8.67799">
        <ele>1815</ele>
        <time>2021-08-07T08:41:08.627Z</time>
      </trkpt>
      <trkpt lat="46.91156" lon="8.67799">
        <ele>1816</ele>
        <time>2021-08-07T08:41:09.626Z</time>
      </trkpt>
      <trkpt lat="46.91155" lon="8.67799">
        <ele>1816</ele>
        <time>2021-08-07T08:41:10.627Z</time>
      </trkpt>
      <trkpt lat="46.91154" lon="8.67798">
        <ele>1816</ele>
        <time>2021-08-07T08:41:11.627Z</time>
      </trkpt>
      <trkpt lat="46.91153" lon="8.67799">
        <ele>1816</ele>
        <time>2021-08-07T08:41:12.626Z</time>
      </trkpt>
      <trkpt lat="46.91152" lon="8.67799">
        <ele>1817</ele>
        <time>2021-08-07T08:41:13.626Z</time>
      </trkpt>
      <trkpt lat="46.91151" lon="8.67799">
        <ele>1817</ele>
        <time>2021-08-07T08:41:14.626Z</time>
      </trkpt>
      <trkpt lat="46.9115" lon="8.67798">
        <ele>1818</ele>
        <time>2021-08-07T08:41:15.627Z</time>
      </trkpt>
      <trkpt lat="46.91148" lon="8.67796">
        <ele>1818</ele>
        <time>2021-08-07T08:41:16.626Z</time>
      </trkpt>
      <trkpt lat="46.91147" lon="8.67794">
        <ele>1819</ele>
        <time>2021-08-07T08:41:17.626Z</time>
      </trkpt>
      <trkpt lat="46.91146" lon="8.67793">
        <ele>1820</ele>
        <time>2021-08-07T08:41:18.626Z</time>
      </trkpt>
      <trkpt lat="46.91145" lon="8.67793">
        <ele>1820</ele>
        <time>2021-08-07T08:41:19.627Z</time>
      </trkpt>
      <trkpt lat="46.91144" lon="8.67792">
        <ele>1821</ele>
        <time>2021-08-07T08:41:20.626Z</time>
      </trkpt>
      <trkpt lat="46.91143" lon="8.67791">
        <ele>1822</ele>
        <time>2021-08-07T08:41:21.626Z</time>
      </trkpt>
      <trkpt lat="46.91141" lon="8.6779">
        <ele>1822</ele>
        <time>2021-08-07T08:41:22.626Z</time>
      </trkpt>
      <trkpt lat="46.9114" lon="8.6779">
        <ele>1822</ele>
        <time>2021-08-07T08:41:23.626Z</time>
      </trkpt>
      <trkpt lat="46.91139" lon="8.67789">
        <ele>1822</ele>
        <time>2021-08-07T08:41:24.627Z</time>
      </trkpt>
      <trkpt lat="46.91138" lon="8.67789">
        <ele>1822</ele>
        <time>2021-08-07T08:41:25.626Z</time>
      </trkpt>
      <trkpt lat="46.91137" lon="8.67788">
        <ele>1822</ele>
        <time>2021-08-07T08:41:26.626Z</time>
      </trkpt>
      <trkpt lat="46.91136" lon="8.67788">
        <ele>1822</ele>
        <time>2021-08-07T08:41:27.626Z</time>
      </trkpt>
      <trkpt lat="46.91135" lon="8.67787">
        <ele>1822</ele>
        <time>2021-08-07T08:41:28.627Z</time>
      </trkpt>
      <trkpt lat="46.91134" lon="8.67786">
        <ele>1823</ele>
        <time>2021-08-07T08:41:29.627Z</time>
      </trkpt>
      <trkpt lat="46.91133" lon="8.67785">
        <ele>1823</ele>
        <time>2021-08-07T08:41:30.626Z</time>
      </trkpt>
      <trkpt lat="46.91132" lon="8.67785">
        <ele>1823</ele>
        <time>2021-08-07T08:41:31.626Z</time>
      </trkpt>
      <trkpt lat="46.91131" lon="8.67785">
        <ele>1822</ele>
        <time>2021-08-07T08:41:32.626Z</time>
      </trkpt>
      <trkpt lat="46.9113" lon="8.67784">
        <ele>1822</ele>
        <time>2021-08-07T08:41:33.626Z</time>
      </trkpt>
      <trkpt lat="46.9113" lon="8.67784">
        <ele>1821</ele>
        <time>2021-08-07T08:41:34.627Z</time>
      </trkpt>
      <trkpt lat="46.91129" lon="8.67783">
        <ele>1821</ele>
        <time>2021-08-07T08:41:35.626Z</time>
      </trkpt>
      <trkpt lat="46.91128" lon="8.67782">
        <ele>1820</ele>
        <time>2021-08-07T08:41:36.626Z</time>
      </trkpt>
      <trkpt lat="46.91126" lon="8.67782">
        <ele>1820</ele>
        <time>2021-08-07T08:41:37.626Z</time>
      </trkpt>
      <trkpt lat="46.91125" lon="8.67781">
        <ele>1820</ele>
        <time>2021-08-07T08:41:38.627Z</time>
      </trkpt>
      <trkpt lat="46.91123" lon="8.67781">
        <ele>1820</ele>
        <time>2021-08-07T08:41:39.626Z</time>
      </trkpt>
      <trkpt lat="46.91123" lon="8.6778">
        <ele>1820</ele>
        <time>2021-08-07T08:41:40.626Z</time>
      </trkpt>
      <trkpt lat="46.91122" lon="8.6778">
        <ele>1821</ele>
        <time>2021-08-07T08:41:41.626Z</time>
      </trkpt>
      <trkpt lat="46.91121" lon="8.67779">
        <ele>1821</ele>
        <time>2021-08-07T08:41:42.626Z</time>
      </trkpt>
      <trkpt lat="46.9112" lon="8.67778">
        <ele>1822</ele>
        <time>2021-08-07T08:41:43.626Z</time>
      </trkpt>
      <trkpt lat="46.91119" lon="8.67777">
        <ele>1822</ele>
        <time>2021-08-07T08:41:44.627Z</time>
      </trkpt>
      <trkpt lat="46.91117" lon="8.67777">
        <ele>1822</ele>
        <time>2021-08-07T08:41:45.626Z</time>
      </trkpt>
      <trkpt lat="46.91117" lon="8.67777">
        <ele>1822</ele>
        <time>2021-08-07T08:41:46.626Z</time>
      </trkpt>
      <trkpt lat="46.91116" lon="8.67776">
        <ele>1823</ele>
        <time>2021-08-07T08:41:47.626Z</time>
      </trkpt>
      <trkpt lat="46.91115" lon="8.67777">
        <ele>1823</ele>
        <time>2021-08-07T08:41:48.627Z</time>
      </trkpt>
      <trkpt lat="46.91114" lon="8.67777">
        <ele>1823</ele>
        <time>2021-08-07T08:41:49.627Z</time>
      </trkpt>
      <trkpt lat="46.91114" lon="8.67778">
        <ele>1823</ele>
        <time>2021-08-07T08:41:50.626Z</time>
      </trkpt>
      <trkpt lat="46.91113" lon="8.67779">
        <ele>1822</ele>
        <time>2021-08-07T08:41:51.627Z</time>
      </trkpt>
      <trkpt lat="46.91112" lon="8.6778">
        <ele>1822</ele>
        <time>2021-08-07T08:41:52.626Z</time>
      </trkpt>
      <trkpt lat="46.91112" lon="8.67781">
        <ele>1821</ele>
        <time>2021-08-07T08:41:53.627Z</time>
      </trkpt>
      <trkpt lat="46.91111" lon="8.67784">
        <ele>1820</ele>
        <time>2021-08-07T08:41:54.626Z</time>
      </trkpt>
      <trkpt lat="46.91111" lon="8.67786">
        <ele>1820</ele>
        <time>2021-08-07T08:41:55.627Z</time>
      </trkpt>
      <trkpt lat="46.91111" lon="8.67788">
        <ele>1820</ele>
        <time>2021-08-07T08:41:56.627Z</time>
      </trkpt>
      <trkpt lat="46.91111" lon="8.6779">
        <ele>1819</ele>
        <time>2021-08-07T08:41:57.627Z</time>
      </trkpt>
      <trkpt lat="46.91111" lon="8.67792">
        <ele>1818</ele>
        <time>2021-08-07T08:41:58.627Z</time>
      </trkpt>
      <trkpt lat="46.91111" lon="8.67793">
        <ele>1818</ele>
        <time>2021-08-07T08:41:59.627Z</time>
      </trkpt>
      <trkpt lat="46.91111" lon="8.67795">
        <ele>1817</ele>
        <time>2021-08-07T08:42:00.627Z</time>
      </trkpt>
      <trkpt lat="46.91111" lon="8.67796">
        <ele>1817</ele>
        <time>2021-08-07T08:42:01.626Z</time>
      </trkpt>
      <trkpt lat="46.9111" lon="8.67796">
        <ele>1816</ele>
        <time>2021-08-07T08:42:02.627Z</time>
      </trkpt>
      <trkpt lat="46.9111" lon="8.67797">
        <ele>1815</ele>
        <time>2021-08-07T08:42:03.626Z</time>
      </trkpt>
      <trkpt lat="46.9111" lon="8.67797">
        <ele>1815</ele>
        <time>2021-08-07T08:42:04.627Z</time>
      </trkpt>
      <trkpt lat="46.91109" lon="8.67798">
        <ele>1814</ele>
        <time>2021-08-07T08:42:05.626Z</time>
      </trkpt>
      <trkpt lat="46.91109" lon="8.67798">
        <ele>1814</ele>
        <time>2021-08-07T08:42:06.627Z</time>
      </trkpt>
      <trkpt lat="46.91109" lon="8.67799">
        <ele>1813</ele>
        <time>2021-08-07T08:42:07.627Z</time>
      </trkpt>
      <trkpt lat="46.91109" lon="8.67799">
        <ele>1813</ele>
        <time>2021-08-07T08:42:08.626Z</time>
      </trkpt>
      <trkpt lat="46.91109" lon="8.67801">
        <ele>1808</ele>
        <time>2021-08-07T08:42:09.627Z</time>
      </trkpt>
      <trkpt lat="46.91109" lon="8.67801">
        <ele>1808</ele>
        <time>2021-08-07T08:42:10.627Z</time>
      </trkpt>
      <trkpt lat="46.91111" lon="8.678">
        <ele>1803</ele>
        <time>2021-08-07T08:42:11.628Z</time>
      </trkpt>
      <trkpt lat="46.91111" lon="8.67801">
        <ele>1803</ele>
        <time>2021-08-07T08:42:12.627Z</time>
      </trkpt>
      <trkpt lat="46.91111" lon="8.67801">
        <ele>1804</ele>
        <time>2021-08-07T08:42:13.628Z</time>
      </trkpt>
      <trkpt lat="46.91111" lon="8.67801">
        <ele>1804</ele>
        <time>2021-08-07T08:42:14.628Z</time>
      </trkpt>
      <trkpt lat="46.9111" lon="8.67804">
        <ele>1805</ele>
        <time>2021-08-07T08:42:15.629Z</time>
      </trkpt>
      <trkpt lat="46.91111" lon="8.67803">
        <ele>1805</ele>
        <time>2021-08-07T08:42:16.629Z</time>
      </trkpt>
      <trkpt lat="46.91111" lon="8.67803">
        <ele>1805</ele>
        <time>2021-08-07T08:42:17.629Z</time>
      </trkpt>
      <trkpt lat="46.91111" lon="8.67803">
        <ele>1808</ele>
        <time>2021-08-07T08:42:18.630Z</time>
      </trkpt>
      <trkpt lat="46.91111" lon="8.67803">
        <ele>1808</ele>
        <time>2021-08-07T08:42:19.629Z</time>
      </trkpt>
      <trkpt lat="46.9111" lon="8.67804">
        <ele>1809</ele>
        <time>2021-08-07T08:42:20.630Z</time>
      </trkpt>
      <trkpt lat="46.91109" lon="8.67804">
        <ele>1809</ele>
        <time>2021-08-07T08:42:21.630Z</time>
      </trkpt>
      <trkpt lat="46.91109" lon="8.67805">
        <ele>1809</ele>
        <time>2021-08-07T08:42:22.629Z</time>
      </trkpt>
      <trkpt lat="46.91109" lon="8.67805">
        <ele>1810</ele>
        <time>2021-08-07T08:42:23.631Z</time>
      </trkpt>
      <trkpt lat="46.91109" lon="8.67804">
        <ele>1810</ele>
        <time>2021-08-07T08:42:24.631Z</time>
      </trkpt>
      <trkpt lat="46.91109" lon="8.67804">
        <ele>1811</ele>
        <time>2021-08-07T08:42:25.630Z</time>
      </trkpt>
      <trkpt lat="46.91107" lon="8.67803">
        <ele>1812</ele>
        <time>2021-08-07T08:42:26.631Z</time>
      </trkpt>
      <trkpt lat="46.91106" lon="8.67803">
        <ele>1812</ele>
        <time>2021-08-07T08:42:27.631Z</time>
      </trkpt>
      <trkpt lat="46.91105" lon="8.67804">
        <ele>1813</ele>
        <time>2021-08-07T08:42:28.630Z</time>
      </trkpt>
      <trkpt lat="46.91104" lon="8.67805">
        <ele>1813</ele>
        <time>2021-08-07T08:42:29.631Z</time>
      </trkpt>
      <trkpt lat="46.91103" lon="8.67806">
        <ele>1813</ele>
        <time>2021-08-07T08:42:30.631Z</time>
      </trkpt>
      <trkpt lat="46.91103" lon="8.67807">
        <ele>1812</ele>
        <time>2021-08-07T08:42:31.630Z</time>
      </trkpt>
      <trkpt lat="46.91102" lon="8.67808">
        <ele>1812</ele>
        <time>2021-08-07T08:42:32.631Z</time>
      </trkpt>
      <trkpt lat="46.91102" lon="8.6781">
        <ele>1811</ele>
        <time>2021-08-07T08:42:33.630Z</time>
      </trkpt>
      <trkpt lat="46.91102" lon="8.67811">
        <ele>1810</ele>
        <time>2021-08-07T08:42:34.631Z</time>
      </trkpt>
      <trkpt lat="46.91101" lon="8.67812">
        <ele>1810</ele>
        <time>2021-08-07T08:42:35.630Z</time>
      </trkpt>
      <trkpt lat="46.91101" lon="8.67813">
        <ele>1809</ele>
        <time>2021-08-07T08:42:36.630Z</time>
      </trkpt>
      <trkpt lat="46.91101" lon="8.67814">
        <ele>1809</ele>
        <time>2021-08-07T08:42:37.630Z</time>
      </trkpt>
      <trkpt lat="46.911" lon="8.67816">
        <ele>1808</ele>
        <time>2021-08-07T08:42:38.631Z</time>
      </trkpt>
      <trkpt lat="46.91099" lon="8.67817">
        <ele>1808</ele>
        <time>2021-08-07T08:42:39.630Z</time>
      </trkpt>
      <trkpt lat="46.91099" lon="8.67818">
        <ele>1809</ele>
        <time>2021-08-07T08:42:40.631Z</time>
      </trkpt>
      <trkpt lat="46.91099" lon="8.67818">
        <ele>1809</ele>
        <time>2021-08-07T08:42:41.631Z</time>
      </trkpt>
      <trkpt lat="46.91099" lon="8.67819">
        <ele>1809</ele>
        <time>2021-08-07T08:42:42.631Z</time>
      </trkpt>
      <trkpt lat="46.91098" lon="8.6782">
        <ele>1808</ele>
        <time>2021-08-07T08:42:43.631Z</time>
      </trkpt>
      <trkpt lat="46.91097" lon="8.6782">
        <ele>1809</ele>
        <time>2021-08-07T08:42:44.632Z</time>
      </trkpt>
      <trkpt lat="46.91097" lon="8.67821">
        <ele>1809</ele>
        <time>2021-08-07T08:42:45.632Z</time>
      </trkpt>
      <trkpt lat="46.91096" lon="8.67821">
        <ele>1809</ele>
        <time>2021-08-07T08:42:46.632Z</time>
      </trkpt>
      <trkpt lat="46.91095" lon="8.67821">
        <ele>1809</ele>
        <time>2021-08-07T08:42:47.633Z</time>
      </trkpt>
      <trkpt lat="46.91094" lon="8.67821">
        <ele>1809</ele>
        <time>2021-08-07T08:42:48.632Z</time>
      </trkpt>
      <trkpt lat="46.91093" lon="8.67821">
        <ele>1810</ele>
        <time>2021-08-07T08:42:49.633Z</time>
      </trkpt>
      <trkpt lat="46.91092" lon="8.6782">
        <ele>1810</ele>
        <time>2021-08-07T08:42:50.632Z</time>
      </trkpt>
      <trkpt lat="46.91091" lon="8.6782">
        <ele>1810</ele>
        <time>2021-08-07T08:42:51.633Z</time>
      </trkpt>
      <trkpt lat="46.9109" lon="8.67821">
        <ele>1810</ele>
        <time>2021-08-07T08:42:52.633Z</time>
      </trkpt>
      <trkpt lat="46.91089" lon="8.67821">
        <ele>1811</ele>
        <time>2021-08-07T08:42:53.633Z</time>
      </trkpt>
      <trkpt lat="46.91087" lon="8.67822">
        <ele>1811</ele>
        <time>2021-08-07T08:42:54.632Z</time>
      </trkpt>
      <trkpt lat="46.91086" lon="8.67822">
        <ele>1812</ele>
        <time>2021-08-07T08:42:55.633Z</time>
      </trkpt>
      <trkpt lat="46.91084" lon="8.67822">
        <ele>1812</ele>
        <time>2021-08-07T08:42:56.633Z</time>
      </trkpt>
      <trkpt lat="46.91083" lon="8.67823">
        <ele>1812</ele>
        <time>2021-08-07T08:42:57.633Z</time>
      </trkpt>
      <trkpt lat="46.91082" lon="8.67823">
        <ele>1812</ele>
        <time>2021-08-07T08:42:58.633Z</time>
      </trkpt>
      <trkpt lat="46.91081" lon="8.67824">
        <ele>1812</ele>
        <time>2021-08-07T08:42:59.632Z</time>
      </trkpt>
      <trkpt lat="46.9108" lon="8.67824">
        <ele>1812</ele>
        <time>2021-08-07T08:43:00.633Z</time>
      </trkpt>
      <trkpt lat="46.91079" lon="8.67824">
        <ele>1812</ele>
        <time>2021-08-07T08:43:01.632Z</time>
      </trkpt>
      <trkpt lat="46.91078" lon="8.67825">
        <ele>1811</ele>
        <time>2021-08-07T08:43:02.633Z</time>
      </trkpt>
      <trkpt lat="46.91077" lon="8.67825">
        <ele>1811</ele>
        <time>2021-08-07T08:43:03.633Z</time>
      </trkpt>
      <trkpt lat="46.91076" lon="8.67825">
        <ele>1811</ele>
        <time>2021-08-07T08:43:04.633Z</time>
      </trkpt>
      <trkpt lat="46.91075" lon="8.67825">
        <ele>1811</ele>
        <time>2021-08-07T08:43:05.633Z</time>
      </trkpt>
      <trkpt lat="46.91074" lon="8.67825">
        <ele>1811</ele>
        <time>2021-08-07T08:43:06.632Z</time>
      </trkpt>
      <trkpt lat="46.91074" lon="8.67825">
        <ele>1811</ele>
        <time>2021-08-07T08:43:07.633Z</time>
      </trkpt>
      <trkpt lat="46.91073" lon="8.67826">
        <ele>1811</ele>
        <time>2021-08-07T08:43:08.632Z</time>
      </trkpt>
      <trkpt lat="46.91072" lon="8.67826">
        <ele>1811</ele>
        <time>2021-08-07T08:43:09.633Z</time>
      </trkpt>
      <trkpt lat="46.91072" lon="8.67827">
        <ele>1811</ele>
        <time>2021-08-07T08:43:10.632Z</time>
      </trkpt>
      <trkpt lat="46.91071" lon="8.67828">
        <ele>1811</ele>
        <time>2021-08-07T08:43:11.633Z</time>
      </trkpt>
      <trkpt lat="46.9107" lon="8.67828">
        <ele>1810</ele>
        <time>2021-08-07T08:43:12.633Z</time>
      </trkpt>
      <trkpt lat="46.91069" lon="8.67829">
        <ele>1810</ele>
        <time>2021-08-07T08:43:13.633Z</time>
      </trkpt>
      <trkpt lat="46.91068" lon="8.6783">
        <ele>1811</ele>
        <time>2021-08-07T08:43:14.633Z</time>
      </trkpt>
      <trkpt lat="46.91068" lon="8.6783">
        <ele>1811</ele>
        <time>2021-08-07T08:43:15.633Z</time>
      </trkpt>
      <trkpt lat="46.91067" lon="8.67831">
        <ele>1811</ele>
        <time>2021-08-07T08:43:16.632Z</time>
      </trkpt>
      <trkpt lat="46.91067" lon="8.67831">
        <ele>1812</ele>
        <time>2021-08-07T08:43:17.633Z</time>
      </trkpt>
      <trkpt lat="46.91067" lon="8.67832">
        <ele>1813</ele>
        <time>2021-08-07T08:43:18.633Z</time>
      </trkpt>
      <trkpt lat="46.91067" lon="8.67832">
        <ele>1813</ele>
        <time>2021-08-07T08:43:19.633Z</time>
      </trkpt>
      <trkpt lat="46.91066" lon="8.67832">
        <ele>1813</ele>
        <time>2021-08-07T08:43:20.632Z</time>
      </trkpt>
      <trkpt lat="46.91066" lon="8.67833">
        <ele>1814</ele>
        <time>2021-08-07T08:43:21.633Z</time>
      </trkpt>
      <trkpt lat="46.91066" lon="8.67833">
        <ele>1814</ele>
        <time>2021-08-07T08:43:22.633Z</time>
      </trkpt>
      <trkpt lat="46.91066" lon="8.67835">
        <ele>1814</ele>
        <time>2021-08-07T08:43:23.632Z</time>
      </trkpt>
      <trkpt lat="46.91066" lon="8.67836">
        <ele>1815</ele>
        <time>2021-08-07T08:43:24.633Z</time>
      </trkpt>
      <trkpt lat="46.91067" lon="8.67838">
        <ele>1815</ele>
        <time>2021-08-07T08:43:25.633Z</time>
      </trkpt>
      <trkpt lat="46.91068" lon="8.67839">
        <ele>1815</ele>
        <time>2021-08-07T08:43:26.633Z</time>
      </trkpt>
      <trkpt lat="46.91068" lon="8.6784">
        <ele>1815</ele>
        <time>2021-08-07T08:43:27.632Z</time>
      </trkpt>
      <trkpt lat="46.91069" lon="8.67841">
        <ele>1815</ele>
        <time>2021-08-07T08:43:28.633Z</time>
      </trkpt>
      <trkpt lat="46.9107" lon="8.6784">
        <ele>1815</ele>
        <time>2021-08-07T08:43:29.633Z</time>
      </trkpt>
      <trkpt lat="46.91071" lon="8.67841">
        <ele>1815</ele>
        <time>2021-08-07T08:43:30.632Z</time>
      </trkpt>
      <trkpt lat="46.91072" lon="8.67841">
        <ele>1816</ele>
        <time>2021-08-07T08:43:31.632Z</time>
      </trkpt>
      <trkpt lat="46.91073" lon="8.67841">
        <ele>1816</ele>
        <time>2021-08-07T08:43:32.632Z</time>
      </trkpt>
      <trkpt lat="46.91073" lon="8.67842">
        <ele>1816</ele>
        <time>2021-08-07T08:43:33.632Z</time>
      </trkpt>
      <trkpt lat="46.91074" lon="8.67842">
        <ele>1816</ele>
        <time>2021-08-07T08:43:34.633Z</time>
      </trkpt>
      <trkpt lat="46.91075" lon="8.67843">
        <ele>1816</ele>
        <time>2021-08-07T08:43:35.632Z</time>
      </trkpt>
      <trkpt lat="46.91075" lon="8.67844">
        <ele>1817</ele>
        <time>2021-08-07T08:43:36.632Z</time>
      </trkpt>
      <trkpt lat="46.91076" lon="8.67844">
        <ele>1817</ele>
        <time>2021-08-07T08:43:37.633Z</time>
      </trkpt>
      <trkpt lat="46.91077" lon="8.67844">
        <ele>1817</ele>
        <time>2021-08-07T08:43:38.633Z</time>
      </trkpt>
      <trkpt lat="46.91077" lon="8.67845">
        <ele>1817</ele>
        <time>2021-08-07T08:43:39.633Z</time>
      </trkpt>
      <trkpt lat="46.91077" lon="8.67846">
        <ele>1817</ele>
        <time>2021-08-07T08:43:40.633Z</time>
      </trkpt>
      <trkpt lat="46.91077" lon="8.67846">
        <ele>1817</ele>
        <time>2021-08-07T08:43:41.633Z</time>
      </trkpt>
      <trkpt lat="46.91077" lon="8.67847">
        <ele>1818</ele>
        <time>2021-08-07T08:43:42.633Z</time>
      </trkpt>
      <trkpt lat="46.91077" lon="8.67848">
        <ele>1818</ele>
        <time>2021-08-07T08:43:43.633Z</time>
      </trkpt>
      <trkpt lat="46.91077" lon="8.67849">
        <ele>1818</ele>
        <time>2021-08-07T08:43:44.632Z</time>
      </trkpt>
      <trkpt lat="46.91077" lon="8.6785">
        <ele>1818</ele>
        <time>2021-08-07T08:43:45.633Z</time>
      </trkpt>
      <trkpt lat="46.91077" lon="8.67851">
        <ele>1818</ele>
        <time>2021-08-07T08:43:46.633Z</time>
      </trkpt>
      <trkpt lat="46.91077" lon="8.67852">
        <ele>1818</ele>
        <time>2021-08-07T08:43:47.633Z</time>
      </trkpt>
      <trkpt lat="46.91077" lon="8.67853">
        <ele>1818</ele>
        <time>2021-08-07T08:43:48.633Z</time>
      </trkpt>
      <trkpt lat="46.91076" lon="8.67853">
        <ele>1818</ele>
        <time>2021-08-07T08:43:49.633Z</time>
      </trkpt>
      <trkpt lat="46.91076" lon="8.67854">
        <ele>1818</ele>
        <time>2021-08-07T08:43:50.633Z</time>
      </trkpt>
      <trkpt lat="46.91076" lon="8.67855">
        <ele>1819</ele>
        <time>2021-08-07T08:43:51.632Z</time>
      </trkpt>
      <trkpt lat="46.91076" lon="8.67855">
        <ele>1819</ele>
        <time>2021-08-07T08:43:52.632Z</time>
      </trkpt>
      <trkpt lat="46.91076" lon="8.67855">
        <ele>1819</ele>
        <time>2021-08-07T08:43:53.634Z</time>
      </trkpt>
      <trkpt lat="46.91075" lon="8.67856">
        <ele>1819</ele>
        <time>2021-08-07T08:43:54.634Z</time>
      </trkpt>
      <trkpt lat="46.91075" lon="8.67856">
        <ele>1819</ele>
        <time>2021-08-07T08:43:55.633Z</time>
      </trkpt>
      <trkpt lat="46.91075" lon="8.67851">
        <ele>1820</ele>
        <time>2021-08-07T08:43:57.635Z</time>
      </trkpt>
      <trkpt lat="46.91076" lon="8.67849">
        <ele>1819</ele>
        <time>2021-08-07T08:43:58.635Z</time>
      </trkpt>
      <trkpt lat="46.91076" lon="8.67848">
        <ele>1818</ele>
        <time>2021-08-07T08:43:59.635Z</time>
      </trkpt>
      <trkpt lat="46.91076" lon="8.67847">
        <ele>1818</ele>
        <time>2021-08-07T08:44:00.636Z</time>
      </trkpt>
      <trkpt lat="46.91076" lon="8.67846">
        <ele>1817</ele>
        <time>2021-08-07T08:44:01.635Z</time>
      </trkpt>
      <trkpt lat="46.91077" lon="8.67846">
        <ele>1816</ele>
        <time>2021-08-07T08:44:02.636Z</time>
      </trkpt>
      <trkpt lat="46.91077" lon="8.67846">
        <ele>1815</ele>
        <time>2021-08-07T08:44:03.636Z</time>
      </trkpt>
      <trkpt lat="46.91077" lon="8.67844">
        <ele>1813</ele>
        <time>2021-08-07T08:44:04.637Z</time>
      </trkpt>
      <trkpt lat="46.91077" lon="8.67843">
        <ele>1813</ele>
        <time>2021-08-07T08:44:05.638Z</time>
      </trkpt>
      <trkpt lat="46.91077" lon="8.67843">
        <ele>1813</ele>
        <time>2021-08-07T08:44:06.637Z</time>
      </trkpt>
      <trkpt lat="46.91077" lon="8.67843">
        <ele>1813</ele>
        <time>2021-08-07T08:44:07.638Z</time>
      </trkpt>
      <trkpt lat="46.91078" lon="8.67842">
        <ele>1814</ele>
        <time>2021-08-07T08:44:08.638Z</time>
      </trkpt>
      <trkpt lat="46.91078" lon="8.67842">
        <ele>1814</ele>
        <time>2021-08-07T08:44:09.637Z</time>
      </trkpt>
      <trkpt lat="46.91078" lon="8.67841">
        <ele>1815</ele>
        <time>2021-08-07T08:44:10.638Z</time>
      </trkpt>
      <trkpt lat="46.91077" lon="8.67842">
        <ele>1818</ele>
        <time>2021-08-07T08:44:11.638Z</time>
      </trkpt>
      <trkpt lat="46.91076" lon="8.67841">
        <ele>1819</ele>
        <time>2021-08-07T08:44:12.637Z</time>
      </trkpt>
      <trkpt lat="46.91075" lon="8.67838">
        <ele>1823</ele>
        <time>2021-08-07T08:44:13.637Z</time>
      </trkpt>
      <trkpt lat="46.91075" lon="8.6784">
        <ele>1825</ele>
        <time>2021-08-07T08:44:14.637Z</time>
      </trkpt>
      <trkpt lat="46.91079" lon="8.67842">
        <ele>1815</ele>
        <time>2021-08-07T08:44:15.638Z</time>
      </trkpt>
      <trkpt lat="46.91078" lon="8.67843">
        <ele>1814</ele>
        <time>2021-08-07T08:44:16.639Z</time>
      </trkpt>
      <trkpt lat="46.91079" lon="8.67844">
        <ele>1814</ele>
        <time>2021-08-07T08:44:17.639Z</time>
      </trkpt>
      <trkpt lat="46.91077" lon="8.67843">
        <ele>1812</ele>
        <time>2021-08-07T08:44:18.640Z</time>
      </trkpt>
      <trkpt lat="46.91077" lon="8.67842">
        <ele>1812</ele>
        <time>2021-08-07T08:44:19.640Z</time>
      </trkpt>
      <trkpt lat="46.91076" lon="8.67841">
        <ele>1812</ele>
        <time>2021-08-07T08:44:20.639Z</time>
      </trkpt>
      <trkpt lat="46.91076" lon="8.6784">
        <ele>1812</ele>
        <time>2021-08-07T08:44:21.639Z</time>
      </trkpt>
      <trkpt lat="46.91075" lon="8.6784">
        <ele>1813</ele>
        <time>2021-08-07T08:44:22.640Z</time>
      </trkpt>
      <trkpt lat="46.91074" lon="8.67839">
        <ele>1813</ele>
        <time>2021-08-07T08:44:23.640Z</time>
      </trkpt>
      <trkpt lat="46.91074" lon="8.67839">
        <ele>1814</ele>
        <time>2021-08-07T08:44:24.640Z</time>
      </trkpt>
      <trkpt lat="46.91073" lon="8.67838">
        <ele>1814</ele>
        <time>2021-08-07T08:44:25.639Z</time>
      </trkpt>
      <trkpt lat="46.91072" lon="8.67837">
        <ele>1815</ele>
        <time>2021-08-07T08:44:26.640Z</time>
      </trkpt>
      <trkpt lat="46.91071" lon="8.67837">
        <ele>1815</ele>
        <time>2021-08-07T08:44:27.640Z</time>
      </trkpt>
      <trkpt lat="46.91071" lon="8.67837">
        <ele>1816</ele>
        <time>2021-08-07T08:44:28.639Z</time>
      </trkpt>
      <trkpt lat="46.91071" lon="8.67837">
        <ele>1816</ele>
        <time>2021-08-07T08:44:29.640Z</time>
      </trkpt>
      <trkpt lat="46.91071" lon="8.67837">
        <ele>1816</ele>
        <time>2021-08-07T08:44:30.640Z</time>
      </trkpt>
      <trkpt lat="46.9107" lon="8.67836">
        <ele>1817</ele>
        <time>2021-08-07T08:44:31.640Z</time>
      </trkpt>
      <trkpt lat="46.9107" lon="8.67836">
        <ele>1818</ele>
        <time>2021-08-07T08:44:32.640Z</time>
      </trkpt>
      <trkpt lat="46.91069" lon="8.67836">
        <ele>1818</ele>
        <time>2021-08-07T08:44:33.640Z</time>
      </trkpt>
      <trkpt lat="46.91069" lon="8.67835">
        <ele>1818</ele>
        <time>2021-08-07T08:44:34.640Z</time>
      </trkpt>
      <trkpt lat="46.91069" lon="8.67834">
        <ele>1818</ele>
        <time>2021-08-07T08:44:35.640Z</time>
      </trkpt>
      <trkpt lat="46.91069" lon="8.67833">
        <ele>1817</ele>
        <time>2021-08-07T08:44:36.640Z</time>
      </trkpt>
      <trkpt lat="46.91069" lon="8.67832">
        <ele>1817</ele>
        <time>2021-08-07T08:44:37.641Z</time>
      </trkpt>
      <trkpt lat="46.91069" lon="8.67831">
        <ele>1816</ele>
        <time>2021-08-07T08:44:38.640Z</time>
      </trkpt>
      <trkpt lat="46.91068" lon="8.6783">
        <ele>1815</ele>
        <time>2021-08-07T08:44:39.641Z</time>
      </trkpt>
      <trkpt lat="46.91067" lon="8.6783">
        <ele>1814</ele>
        <time>2021-08-07T08:44:40.641Z</time>
      </trkpt>
      <trkpt lat="46.91069" lon="8.67831">
        <ele>1821</ele>
        <time>2021-08-07T08:44:41.641Z</time>
      </trkpt>
      <trkpt lat="46.91069" lon="8.6783">
        <ele>1821</ele>
        <time>2021-08-07T08:44:42.642Z</time>
      </trkpt>
      <trkpt lat="46.9107" lon="8.67829">
        <ele>1820</ele>
        <time>2021-08-07T08:44:43.641Z</time>
      </trkpt>
      <trkpt lat="46.91071" lon="8.67828">
        <ele>1820</ele>
        <time>2021-08-07T08:44:44.641Z</time>
      </trkpt>
      <trkpt lat="46.91072" lon="8.67827">
        <ele>1820</ele>
        <time>2021-08-07T08:44:45.641Z</time>
      </trkpt>
      <trkpt lat="46.91072" lon="8.67826">
        <ele>1820</ele>
        <time>2021-08-07T08:44:46.641Z</time>
      </trkpt>
      <trkpt lat="46.91072" lon="8.67825">
        <ele>1820</ele>
        <time>2021-08-07T08:44:47.641Z</time>
      </trkpt>
      <trkpt lat="46.91072" lon="8.67824">
        <ele>1821</ele>
        <time>2021-08-07T08:44:48.642Z</time>
      </trkpt>
      <trkpt lat="46.91071" lon="8.67823">
        <ele>1821</ele>
        <time>2021-08-07T08:44:49.642Z</time>
      </trkpt>
      <trkpt lat="46.91071" lon="8.67821">
        <ele>1821</ele>
        <time>2021-08-07T08:44:50.642Z</time>
      </trkpt>
      <trkpt lat="46.91071" lon="8.6782">
        <ele>1821</ele>
        <time>2021-08-07T08:44:51.641Z</time>
      </trkpt>
      <trkpt lat="46.9107" lon="8.67819">
        <ele>1821</ele>
        <time>2021-08-07T08:44:52.641Z</time>
      </trkpt>
      <trkpt lat="46.9107" lon="8.67818">
        <ele>1821</ele>
        <time>2021-08-07T08:44:53.641Z</time>
      </trkpt>
      <trkpt lat="46.9107" lon="8.67817">
        <ele>1821</ele>
        <time>2021-08-07T08:44:54.642Z</time>
      </trkpt>
      <trkpt lat="46.9107" lon="8.67816">
        <ele>1821</ele>
        <time>2021-08-07T08:44:55.642Z</time>
      </trkpt>
      <trkpt lat="46.9107" lon="8.67815">
        <ele>1821</ele>
        <time>2021-08-07T08:44:56.641Z</time>
      </trkpt>
      <trkpt lat="46.91071" lon="8.67813">
        <ele>1822</ele>
        <time>2021-08-07T08:44:57.641Z</time>
      </trkpt>
      <trkpt lat="46.91071" lon="8.67812">
        <ele>1822</ele>
        <time>2021-08-07T08:44:58.642Z</time>
      </trkpt>
      <trkpt lat="46.91071" lon="8.6781">
        <ele>1822</ele>
        <time>2021-08-07T08:44:59.642Z</time>
      </trkpt>
      <trkpt lat="46.9107" lon="8.67809">
        <ele>1822</ele>
        <time>2021-08-07T08:45:00.641Z</time>
      </trkpt>
      <trkpt lat="46.9107" lon="8.67808">
        <ele>1821</ele>
        <time>2021-08-07T08:45:01.641Z</time>
      </trkpt>
      <trkpt lat="46.9107" lon="8.67806">
        <ele>1821</ele>
        <time>2021-08-07T08:45:02.641Z</time>
      </trkpt>
      <trkpt lat="46.9107" lon="8.67805">
        <ele>1820</ele>
        <time>2021-08-07T08:45:03.642Z</time>
      </trkpt>
      <trkpt lat="46.9107" lon="8.67804">
        <ele>1820</ele>
        <time>2021-08-07T08:45:04.642Z</time>
      </trkpt>
      <trkpt lat="46.9107" lon="8.67803">
        <ele>1819</ele>
        <time>2021-08-07T08:45:05.641Z</time>
      </trkpt>
      <trkpt lat="46.9107" lon="8.67802">
        <ele>1818</ele>
        <time>2021-08-07T08:45:06.641Z</time>
      </trkpt>
      <trkpt lat="46.9107" lon="8.67801">
        <ele>1818</ele>
        <time>2021-08-07T08:45:07.641Z</time>
      </trkpt>
      <trkpt lat="46.91071" lon="8.67799">
        <ele>1817</ele>
        <time>2021-08-07T08:45:08.642Z</time>
      </trkpt>
      <trkpt lat="46.9107" lon="8.67799">
        <ele>1817</ele>
        <time>2021-08-07T08:45:09.641Z</time>
      </trkpt>
      <trkpt lat="46.91071" lon="8.67798">
        <ele>1817</ele>
        <time>2021-08-07T08:45:10.641Z</time>
      </trkpt>
      <trkpt lat="46.91071" lon="8.67797">
        <ele>1816</ele>
        <time>2021-08-07T08:45:11.641Z</time>
      </trkpt>
      <trkpt lat="46.91071" lon="8.67796">
        <ele>1816</ele>
        <time>2021-08-07T08:45:12.642Z</time>
      </trkpt>
      <trkpt lat="46.91072" lon="8.67795">
        <ele>1816</ele>
        <time>2021-08-07T08:45:13.641Z</time>
      </trkpt>
      <trkpt lat="46.91073" lon="8.67794">
        <ele>1815</ele>
        <time>2021-08-07T08:45:14.642Z</time>
      </trkpt>
      <trkpt lat="46.91074" lon="8.67793">
        <ele>1815</ele>
        <time>2021-08-07T08:45:15.641Z</time>
      </trkpt>
      <trkpt lat="46.91075" lon="8.67792">
        <ele>1815</ele>
        <time>2021-08-07T08:45:16.641Z</time>
      </trkpt>
      <trkpt lat="46.91077" lon="8.6779">
        <ele>1815</ele>
        <time>2021-08-07T08:45:17.641Z</time>
      </trkpt>
      <trkpt lat="46.91077" lon="8.6779">
        <ele>1814</ele>
        <time>2021-08-07T08:45:18.642Z</time>
      </trkpt>
      <trkpt lat="46.91078" lon="8.67789">
        <ele>1814</ele>
        <time>2021-08-07T08:45:19.642Z</time>
      </trkpt>
      <trkpt lat="46.91078" lon="8.67788">
        <ele>1814</ele>
        <time>2021-08-07T08:45:20.641Z</time>
      </trkpt>
      <trkpt lat="46.91079" lon="8.67788">
        <ele>1814</ele>
        <time>2021-08-07T08:45:21.641Z</time>
      </trkpt>
      <trkpt lat="46.9108" lon="8.67787">
        <ele>1814</ele>
        <time>2021-08-07T08:45:22.641Z</time>
      </trkpt>
      <trkpt lat="46.9108" lon="8.67787">
        <ele>1814</ele>
        <time>2021-08-07T08:45:23.641Z</time>
      </trkpt>
      <trkpt lat="46.91081" lon="8.67785">
        <ele>1813</ele>
        <time>2021-08-07T08:45:24.641Z</time>
      </trkpt>
      <trkpt lat="46.91082" lon="8.67784">
        <ele>1813</ele>
        <time>2021-08-07T08:45:25.641Z</time>
      </trkpt>
      <trkpt lat="46.91082" lon="8.67784">
        <ele>1813</ele>
        <time>2021-08-07T08:45:26.641Z</time>
      </trkpt>
      <trkpt lat="46.91082" lon="8.67782">
        <ele>1812</ele>
        <time>2021-08-07T08:45:27.641Z</time>
      </trkpt>
      <trkpt lat="46.91083" lon="8.67782">
        <ele>1812</ele>
        <time>2021-08-07T08:45:28.641Z</time>
      </trkpt>
      <trkpt lat="46.91082" lon="8.67781">
        <ele>1812</ele>
        <time>2021-08-07T08:45:29.641Z</time>
      </trkpt>
      <trkpt lat="46.91082" lon="8.6778">
        <ele>1812</ele>
        <time>2021-08-07T08:45:30.642Z</time>
      </trkpt>
      <trkpt lat="46.91082" lon="8.67779">
        <ele>1811</ele>
        <time>2021-08-07T08:45:31.642Z</time>
      </trkpt>
      <trkpt lat="46.91083" lon="8.67778">
        <ele>1811</ele>
        <time>2021-08-07T08:45:32.642Z</time>
      </trkpt>
      <trkpt lat="46.91083" lon="8.67776">
        <ele>1811</ele>
        <time>2021-08-07T08:45:33.641Z</time>
      </trkpt>
      <trkpt lat="46.91083" lon="8.67774">
        <ele>1811</ele>
        <time>2021-08-07T08:45:34.641Z</time>
      </trkpt>
      <trkpt lat="46.91084" lon="8.67773">
        <ele>1810</ele>
        <time>2021-08-07T08:45:35.642Z</time>
      </trkpt>
      <trkpt lat="46.91083" lon="8.67771">
        <ele>1810</ele>
        <time>2021-08-07T08:45:36.641Z</time>
      </trkpt>
      <trkpt lat="46.91083" lon="8.67769">
        <ele>1809</ele>
        <time>2021-08-07T08:45:37.642Z</time>
      </trkpt>
      <trkpt lat="46.91083" lon="8.67767">
        <ele>1809</ele>
        <time>2021-08-07T08:45:38.641Z</time>
      </trkpt>
      <trkpt lat="46.91083" lon="8.67766">
        <ele>1809</ele>
        <time>2021-08-07T08:45:39.641Z</time>
      </trkpt>
      <trkpt lat="46.91083" lon="8.67764">
        <ele>1809</ele>
        <time>2021-08-07T08:45:40.642Z</time>
      </trkpt>
      <trkpt lat="46.91083" lon="8.67762">
        <ele>1809</ele>
        <time>2021-08-07T08:45:41.641Z</time>
      </trkpt>
      <trkpt lat="46.91083" lon="8.67761">
        <ele>1809</ele>
        <time>2021-08-07T08:45:42.642Z</time>
      </trkpt>
      <trkpt lat="46.91082" lon="8.67759">
        <ele>1809</ele>
        <time>2021-08-07T08:45:43.642Z</time>
      </trkpt>
      <trkpt lat="46.91082" lon="8.67757">
        <ele>1809</ele>
        <time>2021-08-07T08:45:44.642Z</time>
      </trkpt>
      <trkpt lat="46.91082" lon="8.67756">
        <ele>1810</ele>
        <time>2021-08-07T08:45:45.642Z</time>
      </trkpt>
      <trkpt lat="46.91082" lon="8.67754">
        <ele>1810</ele>
        <time>2021-08-07T08:45:46.641Z</time>
      </trkpt>
      <trkpt lat="46.91082" lon="8.67753">
        <ele>1810</ele>
        <time>2021-08-07T08:45:47.642Z</time>
      </trkpt>
      <trkpt lat="46.91082" lon="8.67753">
        <ele>1810</ele>
        <time>2021-08-07T08:45:48.641Z</time>
      </trkpt>
      <trkpt lat="46.91083" lon="8.67755">
        <ele>1810</ele>
        <time>2021-08-07T08:45:49.642Z</time>
      </trkpt>
      <trkpt lat="46.91083" lon="8.67756">
        <ele>1811</ele>
        <time>2021-08-07T08:45:50.643Z</time>
      </trkpt>
      <trkpt lat="46.91083" lon="8.67756">
        <ele>1811</ele>
        <time>2021-08-07T08:45:51.643Z</time>
      </trkpt>
      <trkpt lat="46.91083" lon="8.67755">
        <ele>1812</ele>
        <time>2021-08-07T08:45:52.642Z</time>
      </trkpt>
      <trkpt lat="46.91084" lon="8.67749">
        <ele>1810</ele>
        <time>2021-08-07T08:45:53.643Z</time>
      </trkpt>
      <trkpt lat="46.91085" lon="8.67748">
        <ele>1810</ele>
        <time>2021-08-07T08:45:54.643Z</time>
      </trkpt>
      <trkpt lat="46.91084" lon="8.67747">
        <ele>1809</ele>
        <time>2021-08-07T08:45:55.643Z</time>
      </trkpt>
      <trkpt lat="46.91084" lon="8.67746">
        <ele>1809</ele>
        <time>2021-08-07T08:45:56.644Z</time>
      </trkpt>
      <trkpt lat="46.91084" lon="8.67745">
        <ele>1808</ele>
        <time>2021-08-07T08:45:57.643Z</time>
      </trkpt>
      <trkpt lat="46.91083" lon="8.67743">
        <ele>1808</ele>
        <time>2021-08-07T08:45:58.644Z</time>
      </trkpt>
      <trkpt lat="46.91083" lon="8.67742">
        <ele>1807</ele>
        <time>2021-08-07T08:45:59.643Z</time>
      </trkpt>
      <trkpt lat="46.91082" lon="8.6774">
        <ele>1807</ele>
        <time>2021-08-07T08:46:00.643Z</time>
      </trkpt>
      <trkpt lat="46.91082" lon="8.67739">
        <ele>1807</ele>
        <time>2021-08-07T08:46:01.643Z</time>
      </trkpt>
      <trkpt lat="46.91082" lon="8.67737">
        <ele>1807</ele>
        <time>2021-08-07T08:46:02.644Z</time>
      </trkpt>
      <trkpt lat="46.91081" lon="8.67735">
        <ele>1807</ele>
        <time>2021-08-07T08:46:03.644Z</time>
      </trkpt>
      <trkpt lat="46.91081" lon="8.67734">
        <ele>1806</ele>
        <time>2021-08-07T08:46:04.644Z</time>
      </trkpt>
      <trkpt lat="46.91081" lon="8.67733">
        <ele>1806</ele>
        <time>2021-08-07T08:46:05.643Z</time>
      </trkpt>
      <trkpt lat="46.91081" lon="8.67731">
        <ele>1806</ele>
        <time>2021-08-07T08:46:06.644Z</time>
      </trkpt>
      <trkpt lat="46.91081" lon="8.6773">
        <ele>1805</ele>
        <time>2021-08-07T08:46:07.643Z</time>
      </trkpt>
      <trkpt lat="46.91082" lon="8.67728">
        <ele>1805</ele>
        <time>2021-08-07T08:46:08.644Z</time>
      </trkpt>
      <trkpt lat="46.91083" lon="8.67726">
        <ele>1805</ele>
        <time>2021-08-07T08:46:09.644Z</time>
      </trkpt>
      <trkpt lat="46.91084" lon="8.67724">
        <ele>1805</ele>
        <time>2021-08-07T08:46:10.644Z</time>
      </trkpt>
      <trkpt lat="46.91084" lon="8.67723">
        <ele>1805</ele>
        <time>2021-08-07T08:46:11.643Z</time>
      </trkpt>
      <trkpt lat="46.91084" lon="8.6772">
        <ele>1804</ele>
        <time>2021-08-07T08:46:12.644Z</time>
      </trkpt>
      <trkpt lat="46.91085" lon="8.67718">
        <ele>1804</ele>
        <time>2021-08-07T08:46:13.643Z</time>
      </trkpt>
      <trkpt lat="46.91085" lon="8.67717">
        <ele>1803</ele>
        <time>2021-08-07T08:46:14.644Z</time>
      </trkpt>
      <trkpt lat="46.91085" lon="8.67716">
        <ele>1803</ele>
        <time>2021-08-07T08:46:15.643Z</time>
      </trkpt>
      <trkpt lat="46.91084" lon="8.67715">
        <ele>1802</ele>
        <time>2021-08-07T08:46:16.643Z</time>
      </trkpt>
      <trkpt lat="46.91083" lon="8.67714">
        <ele>1801</ele>
        <time>2021-08-07T08:46:17.644Z</time>
      </trkpt>
      <trkpt lat="46.91083" lon="8.67713">
        <ele>1800</ele>
        <time>2021-08-07T08:46:18.643Z</time>
      </trkpt>
      <trkpt lat="46.91083" lon="8.67712">
        <ele>1799</ele>
        <time>2021-08-07T08:46:19.644Z</time>
      </trkpt>
      <trkpt lat="46.91083" lon="8.67711">
        <ele>1798</ele>
        <time>2021-08-07T08:46:20.643Z</time>
      </trkpt>
      <trkpt lat="46.91083" lon="8.6771">
        <ele>1798</ele>
        <time>2021-08-07T08:46:21.643Z</time>
      </trkpt>
      <trkpt lat="46.91083" lon="8.67709">
        <ele>1797</ele>
        <time>2021-08-07T08:46:22.644Z</time>
      </trkpt>
      <trkpt lat="46.91083" lon="8.67708">
        <ele>1797</ele>
        <time>2021-08-07T08:46:23.643Z</time>
      </trkpt>
      <trkpt lat="46.91082" lon="8.67707">
        <ele>1797</ele>
        <time>2021-08-07T08:46:24.643Z</time>
      </trkpt>
      <trkpt lat="46.91083" lon="8.67706">
        <ele>1797</ele>
        <time>2021-08-07T08:46:25.644Z</time>
      </trkpt>
      <trkpt lat="46.91082" lon="8.67705">
        <ele>1797</ele>
        <time>2021-08-07T08:46:26.644Z</time>
      </trkpt>
      <trkpt lat="46.91082" lon="8.67705">
        <ele>1797</ele>
        <time>2021-08-07T08:46:27.644Z</time>
      </trkpt>
      <trkpt lat="46.91082" lon="8.67704">
        <ele>1797</ele>
        <time>2021-08-07T08:46:28.644Z</time>
      </trkpt>
      <trkpt lat="46.91082" lon="8.67703">
        <ele>1797</ele>
        <time>2021-08-07T08:46:29.643Z</time>
      </trkpt>
      <trkpt lat="46.91081" lon="8.67703">
        <ele>1796</ele>
        <time>2021-08-07T08:46:30.644Z</time>
      </trkpt>
      <trkpt lat="46.9108" lon="8.67703">
        <ele>1796</ele>
        <time>2021-08-07T08:46:31.644Z</time>
      </trkpt>
      <trkpt lat="46.91079" lon="8.67702">
        <ele>1796</ele>
        <time>2021-08-07T08:46:32.643Z</time>
      </trkpt>
      <trkpt lat="46.91079" lon="8.67701">
        <ele>1795</ele>
        <time>2021-08-07T08:46:33.643Z</time>
      </trkpt>
      <trkpt lat="46.91078" lon="8.677">
        <ele>1795</ele>
        <time>2021-08-07T08:46:34.644Z</time>
      </trkpt>
      <trkpt lat="46.91078" lon="8.67699">
        <ele>1795</ele>
        <time>2021-08-07T08:46:35.644Z</time>
      </trkpt>
      <trkpt lat="46.91079" lon="8.67698">
        <ele>1795</ele>
        <time>2021-08-07T08:46:36.643Z</time>
      </trkpt>
      <trkpt lat="46.91079" lon="8.67698">
        <ele>1795</ele>
        <time>2021-08-07T08:46:37.643Z</time>
      </trkpt>
      <trkpt lat="46.91078" lon="8.67698">
        <ele>1795</ele>
        <time>2021-08-07T08:46:38.643Z</time>
      </trkpt>
      <trkpt lat="46.91078" lon="8.67697">
        <ele>1795</ele>
        <time>2021-08-07T08:46:39.644Z</time>
      </trkpt>
      <trkpt lat="46.91077" lon="8.67696">
        <ele>1795</ele>
        <time>2021-08-07T08:46:40.643Z</time>
      </trkpt>
      <trkpt lat="46.91076" lon="8.67696">
        <ele>1795</ele>
        <time>2021-08-07T08:46:41.644Z</time>
      </trkpt>
      <trkpt lat="46.91076" lon="8.67695">
        <ele>1796</ele>
        <time>2021-08-07T08:46:42.643Z</time>
      </trkpt>
      <trkpt lat="46.91075" lon="8.67695">
        <ele>1796</ele>
        <time>2021-08-07T08:46:43.643Z</time>
      </trkpt>
      <trkpt lat="46.91075" lon="8.67693">
        <ele>1797</ele>
        <time>2021-08-07T08:46:44.644Z</time>
      </trkpt>
      <trkpt lat="46.91075" lon="8.67692">
        <ele>1797</ele>
        <time>2021-08-07T08:46:45.643Z</time>
      </trkpt>
      <trkpt lat="46.91075" lon="8.67692">
        <ele>1797</ele>
        <time>2021-08-07T08:46:46.643Z</time>
      </trkpt>
      <trkpt lat="46.91075" lon="8.67691">
        <ele>1797</ele>
        <time>2021-08-07T08:46:47.644Z</time>
      </trkpt>
      <trkpt lat="46.91075" lon="8.67691">
        <ele>1797</ele>
        <time>2021-08-07T08:46:48.644Z</time>
      </trkpt>
      <trkpt lat="46.91074" lon="8.6769">
        <ele>1796</ele>
        <time>2021-08-07T08:46:49.643Z</time>
      </trkpt>
      <trkpt lat="46.91074" lon="8.67689">
        <ele>1795</ele>
        <time>2021-08-07T08:46:50.644Z</time>
      </trkpt>
      <trkpt lat="46.91074" lon="8.67688">
        <ele>1795</ele>
        <time>2021-08-07T08:46:51.643Z</time>
      </trkpt>
      <trkpt lat="46.91073" lon="8.67686">
        <ele>1794</ele>
        <time>2021-08-07T08:46:52.643Z</time>
      </trkpt>
      <trkpt lat="46.91073" lon="8.67685">
        <ele>1793</ele>
        <time>2021-08-07T08:46:53.643Z</time>
      </trkpt>
      <trkpt lat="46.91072" lon="8.67684">
        <ele>1792</ele>
        <time>2021-08-07T08:46:54.644Z</time>
      </trkpt>
      <trkpt lat="46.91072" lon="8.67683">
        <ele>1792</ele>
        <time>2021-08-07T08:46:55.643Z</time>
      </trkpt>
      <trkpt lat="46.91071" lon="8.67682">
        <ele>1791</ele>
        <time>2021-08-07T08:46:56.643Z</time>
      </trkpt>
      <trkpt lat="46.9107" lon="8.67681">
        <ele>1791</ele>
        <time>2021-08-07T08:46:57.643Z</time>
      </trkpt>
      <trkpt lat="46.9107" lon="8.6768">
        <ele>1791</ele>
        <time>2021-08-07T08:46:58.643Z</time>
      </trkpt>
      <trkpt lat="46.9107" lon="8.67679">
        <ele>1791</ele>
        <time>2021-08-07T08:46:59.643Z</time>
      </trkpt>
      <trkpt lat="46.9107" lon="8.67678">
        <ele>1791</ele>
        <time>2021-08-07T08:47:00.643Z</time>
      </trkpt>
      <trkpt lat="46.91069" lon="8.67677">
        <ele>1791</ele>
        <time>2021-08-07T08:47:01.643Z</time>
      </trkpt>
      <trkpt lat="46.91069" lon="8.67676">
        <ele>1791</ele>
        <time>2021-08-07T08:47:02.643Z</time>
      </trkpt>
      <trkpt lat="46.91069" lon="8.67676">
        <ele>1791</ele>
        <time>2021-08-07T08:47:03.643Z</time>
      </trkpt>
      <trkpt lat="46.91069" lon="8.67674">
        <ele>1791</ele>
        <time>2021-08-07T08:47:04.643Z</time>
      </trkpt>
      <trkpt lat="46.91069" lon="8.67674">
        <ele>1790</ele>
        <time>2021-08-07T08:47:05.643Z</time>
      </trkpt>
      <trkpt lat="46.9107" lon="8.67674">
        <ele>1790</ele>
        <time>2021-08-07T08:47:06.643Z</time>
      </trkpt>
      <trkpt lat="46.9107" lon="8.67674">
        <ele>1789</ele>
        <time>2021-08-07T08:47:07.643Z</time>
      </trkpt>
      <trkpt lat="46.9107" lon="8.67674">
        <ele>1788</ele>
        <time>2021-08-07T08:47:08.644Z</time>
      </trkpt>
      <trkpt lat="46.9107" lon="8.67674">
        <ele>1787</ele>
        <time>2021-08-07T08:47:09.643Z</time>
      </trkpt>
      <trkpt lat="46.91071" lon="8.67674">
        <ele>1785</ele>
        <time>2021-08-07T08:47:10.644Z</time>
      </trkpt>
      <trkpt lat="46.91071" lon="8.67673">
        <ele>1785</ele>
        <time>2021-08-07T08:47:11.643Z</time>
      </trkpt>
      <trkpt lat="46.91071" lon="8.67672">
        <ele>1785</ele>
        <time>2021-08-07T08:47:12.644Z</time>
      </trkpt>
      <trkpt lat="46.91071" lon="8.67671">
        <ele>1785</ele>
        <time>2021-08-07T08:47:13.643Z</time>
      </trkpt>
      <trkpt lat="46.91072" lon="8.6767">
        <ele>1785</ele>
        <time>2021-08-07T08:47:22.743Z</time>
      </trkpt>
      <trkpt lat="46.91072" lon="8.67669">
        <ele>1785</ele>
        <time>2021-08-07T08:47:23.744Z</time>
      </trkpt>
      <trkpt lat="46.91072" lon="8.67667">
        <ele>1785</ele>
        <time>2021-08-07T08:47:24.743Z</time>
      </trkpt>
      <trkpt lat="46.91072" lon="8.67666">
        <ele>1785</ele>
        <time>2021-08-07T08:47:25.743Z</time>
      </trkpt>
      <trkpt lat="46.91071" lon="8.67665">
        <ele>1784</ele>
        <time>2021-08-07T08:47:26.743Z</time>
      </trkpt>
      <trkpt lat="46.91071" lon="8.67664">
        <ele>1784</ele>
        <time>2021-08-07T08:47:27.743Z</time>
      </trkpt>
      <trkpt lat="46.9107" lon="8.67663">
        <ele>1783</ele>
        <time>2021-08-07T08:47:28.743Z</time>
      </trkpt>
      <trkpt lat="46.9107" lon="8.67662">
        <ele>1783</ele>
        <time>2021-08-07T08:47:29.743Z</time>
      </trkpt>
      <trkpt lat="46.9107" lon="8.67662">
        <ele>1784</ele>
        <time>2021-08-07T08:47:30.743Z</time>
      </trkpt>
      <trkpt lat="46.9107" lon="8.67662">
        <ele>1785</ele>
        <time>2021-08-07T08:47:31.743Z</time>
      </trkpt>
      <trkpt lat="46.91071" lon="8.67661">
        <ele>1785</ele>
        <time>2021-08-07T08:47:32.744Z</time>
      </trkpt>
      <trkpt lat="46.91071" lon="8.67661">
        <ele>1786</ele>
        <time>2021-08-07T08:47:33.743Z</time>
      </trkpt>
      <trkpt lat="46.91072" lon="8.6766">
        <ele>1787</ele>
        <time>2021-08-07T08:47:34.743Z</time>
      </trkpt>
      <trkpt lat="46.91072" lon="8.67658">
        <ele>1788</ele>
        <time>2021-08-07T08:47:35.743Z</time>
      </trkpt>
      <trkpt lat="46.91072" lon="8.67657">
        <ele>1788</ele>
        <time>2021-08-07T08:47:36.744Z</time>
      </trkpt>
      <trkpt lat="46.91072" lon="8.67656">
        <ele>1789</ele>
        <time>2021-08-07T08:47:37.743Z</time>
      </trkpt>
      <trkpt lat="46.91072" lon="8.67655">
        <ele>1788</ele>
        <time>2021-08-07T08:47:38.744Z</time>
      </trkpt>
      <trkpt lat="46.91072" lon="8.67654">
        <ele>1788</ele>
        <time>2021-08-07T08:47:49.842Z</time>
      </trkpt>
      <trkpt lat="46.91071" lon="8.67653">
        <ele>1788</ele>
        <time>2021-08-07T08:47:50.842Z</time>
      </trkpt>
      <trkpt lat="46.9107" lon="8.67652">
        <ele>1788</ele>
        <time>2021-08-07T08:47:56.594Z</time>
      </trkpt>
      <trkpt lat="46.91069" lon="8.67651">
        <ele>1788</ele>
        <time>2021-08-07T08:47:57.593Z</time>
      </trkpt>
      <trkpt lat="46.91069" lon="8.67651">
        <ele>1787</ele>
        <time>2021-08-07T08:47:58.593Z</time>
      </trkpt>
      <trkpt lat="46.91069" lon="8.67651">
        <ele>1786</ele>
        <time>2021-08-07T08:47:59.593Z</time>
      </trkpt>
      <trkpt lat="46.91069" lon="8.6765">
        <ele>1785</ele>
        <time>2021-08-07T08:48:00.593Z</time>
      </trkpt>
      <trkpt lat="46.91068" lon="8.67649">
        <ele>1784</ele>
        <time>2021-08-07T08:48:01.593Z</time>
      </trkpt>
      <trkpt lat="46.91068" lon="8.67647">
        <ele>1784</ele>
        <time>2021-08-07T08:48:02.593Z</time>
      </trkpt>
      <trkpt lat="46.91067" lon="8.67646">
        <ele>1784</ele>
        <time>2021-08-07T08:48:03.594Z</time>
      </trkpt>
      <trkpt lat="46.91065" lon="8.67644">
        <ele>1784</ele>
        <time>2021-08-07T08:48:04.593Z</time>
      </trkpt>
      <trkpt lat="46.91063" lon="8.67642">
        <ele>1784</ele>
        <time>2021-08-07T08:48:05.593Z</time>
      </trkpt>
      <trkpt lat="46.91062" lon="8.6764">
        <ele>1784</ele>
        <time>2021-08-07T08:48:06.593Z</time>
      </trkpt>
      <trkpt lat="46.91061" lon="8.67639">
        <ele>1785</ele>
        <time>2021-08-07T08:48:07.593Z</time>
      </trkpt>
      <trkpt lat="46.9106" lon="8.67637">
        <ele>1785</ele>
        <time>2021-08-07T08:48:08.593Z</time>
      </trkpt>
      <trkpt lat="46.91059" lon="8.67636">
        <ele>1785</ele>
        <time>2021-08-07T08:48:09.593Z</time>
      </trkpt>
      <trkpt lat="46.91059" lon="8.67635">
        <ele>1784</ele>
        <time>2021-08-07T08:48:10.593Z</time>
      </trkpt>
      <trkpt lat="46.91058" lon="8.67635">
        <ele>1784</ele>
        <time>2021-08-07T08:48:11.593Z</time>
      </trkpt>
      <trkpt lat="46.91058" lon="8.67634">
        <ele>1784</ele>
        <time>2021-08-07T08:48:12.593Z</time>
      </trkpt>
      <trkpt lat="46.91058" lon="8.67633">
        <ele>1784</ele>
        <time>2021-08-07T08:48:13.593Z</time>
      </trkpt>
      <trkpt lat="46.91057" lon="8.67633">
        <ele>1784</ele>
        <time>2021-08-07T08:48:14.593Z</time>
      </trkpt>
      <trkpt lat="46.91057" lon="8.67633">
        <ele>1783</ele>
        <time>2021-08-07T08:48:15.594Z</time>
      </trkpt>
      <trkpt lat="46.91057" lon="8.67632">
        <ele>1783</ele>
        <time>2021-08-07T08:48:16.593Z</time>
      </trkpt>
      <trkpt lat="46.91058" lon="8.67631">
        <ele>1783</ele>
        <time>2021-08-07T08:48:17.594Z</time>
      </trkpt>
      <trkpt lat="46.91057" lon="8.6763">
        <ele>1783</ele>
        <time>2021-08-07T08:48:18.593Z</time>
      </trkpt>
      <trkpt lat="46.91057" lon="8.67629">
        <ele>1783</ele>
        <time>2021-08-07T08:48:19.594Z</time>
      </trkpt>
      <trkpt lat="46.91057" lon="8.67628">
        <ele>1782</ele>
        <time>2021-08-07T08:48:20.593Z</time>
      </trkpt>
      <trkpt lat="46.91057" lon="8.67628">
        <ele>1782</ele>
        <time>2021-08-07T08:48:21.594Z</time>
      </trkpt>
      <trkpt lat="46.91056" lon="8.67627">
        <ele>1782</ele>
        <time>2021-08-07T08:48:22.593Z</time>
      </trkpt>
      <trkpt lat="46.91057" lon="8.67626">
        <ele>1782</ele>
        <time>2021-08-07T08:48:23.593Z</time>
      </trkpt>
      <trkpt lat="46.91057" lon="8.67626">
        <ele>1782</ele>
        <time>2021-08-07T08:48:24.593Z</time>
      </trkpt>
      <trkpt lat="46.91057" lon="8.67626">
        <ele>1783</ele>
        <time>2021-08-07T08:48:25.593Z</time>
      </trkpt>
      <trkpt lat="46.91057" lon="8.67626">
        <ele>1783</ele>
        <time>2021-08-07T08:48:26.593Z</time>
      </trkpt>
      <trkpt lat="46.91056" lon="8.67626">
        <ele>1783</ele>
        <time>2021-08-07T08:48:27.594Z</time>
      </trkpt>
      <trkpt lat="46.91056" lon="8.67626">
        <ele>1783</ele>
        <time>2021-08-07T08:48:28.594Z</time>
      </trkpt>
      <trkpt lat="46.91055" lon="8.67624">
        <ele>1784</ele>
        <time>2021-08-07T08:48:29.594Z</time>
      </trkpt>
      <trkpt lat="46.91055" lon="8.67623">
        <ele>1784</ele>
        <time>2021-08-07T08:48:30.593Z</time>
      </trkpt>
      <trkpt lat="46.91055" lon="8.67621">
        <ele>1784</ele>
        <time>2021-08-07T08:48:31.593Z</time>
      </trkpt>
      <trkpt lat="46.91055" lon="8.67621">
        <ele>1785</ele>
        <time>2021-08-07T08:48:32.593Z</time>
      </trkpt>
      <trkpt lat="46.91055" lon="8.6762">
        <ele>1785</ele>
        <time>2021-08-07T08:48:33.593Z</time>
      </trkpt>
      <trkpt lat="46.91054" lon="8.6762">
        <ele>1785</ele>
        <time>2021-08-07T08:48:34.593Z</time>
      </trkpt>
      <trkpt lat="46.91054" lon="8.67618">
        <ele>1785</ele>
        <time>2021-08-07T08:48:35.593Z</time>
      </trkpt>
      <trkpt lat="46.91054" lon="8.67618">
        <ele>1785</ele>
        <time>2021-08-07T08:48:36.593Z</time>
      </trkpt>
      <trkpt lat="46.91055" lon="8.67618">
        <ele>1785</ele>
        <time>2021-08-07T08:48:37.594Z</time>
      </trkpt>
      <trkpt lat="46.91055" lon="8.67618">
        <ele>1785</ele>
        <time>2021-08-07T08:48:38.593Z</time>
      </trkpt>
      <trkpt lat="46.91055" lon="8.67618">
        <ele>1785</ele>
        <time>2021-08-07T08:48:39.593Z</time>
      </trkpt>
      <trkpt lat="46.91055" lon="8.6762">
        <ele>1783</ele>
        <time>2021-08-07T08:48:40.594Z</time>
      </trkpt>
      <trkpt lat="46.91055" lon="8.67621">
        <ele>1783</ele>
        <time>2021-08-07T08:48:41.593Z</time>
      </trkpt>
      <trkpt lat="46.91055" lon="8.67622">
        <ele>1782</ele>
        <time>2021-08-07T08:48:42.594Z</time>
      </trkpt>
      <trkpt lat="46.91055" lon="8.67622">
        <ele>1782</ele>
        <time>2021-08-07T08:48:43.594Z</time>
      </trkpt>
      <trkpt lat="46.91056" lon="8.67625">
        <ele>1780</ele>
        <time>2021-08-07T08:48:44.595Z</time>
      </trkpt>
      <trkpt lat="46.91056" lon="8.67625">
        <ele>1780</ele>
        <time>2021-08-07T08:48:45.595Z</time>
      </trkpt>
      <trkpt lat="46.91056" lon="8.67625">
        <ele>1780</ele>
        <time>2021-08-07T08:48:46.594Z</time>
      </trkpt>
      <trkpt lat="46.91054" lon="8.67624">
        <ele>1787</ele>
        <time>2021-08-07T08:48:47.595Z</time>
      </trkpt>
      <trkpt lat="46.91054" lon="8.67624">
        <ele>1787</ele>
        <time>2021-08-07T08:48:48.594Z</time>
      </trkpt>
      <trkpt lat="46.91053" lon="8.67624">
        <ele>1787</ele>
        <time>2021-08-07T08:48:49.595Z</time>
      </trkpt>
      <trkpt lat="46.91053" lon="8.67624">
        <ele>1787</ele>
        <time>2021-08-07T08:48:50.594Z</time>
      </trkpt>
      <trkpt lat="46.91055" lon="8.67623">
        <ele>1787</ele>
        <time>2021-08-07T08:48:51.595Z</time>
      </trkpt>
      <trkpt lat="46.91055" lon="8.67624">
        <ele>1787</ele>
        <time>2021-08-07T08:48:52.595Z</time>
      </trkpt>
      <trkpt lat="46.91056" lon="8.67624">
        <ele>1788</ele>
        <time>2021-08-07T08:48:53.594Z</time>
      </trkpt>
      <trkpt lat="46.91056" lon="8.67624">
        <ele>1789</ele>
        <time>2021-08-07T08:48:54.595Z</time>
      </trkpt>
      <trkpt lat="46.91056" lon="8.67624">
        <ele>1790</ele>
        <time>2021-08-07T08:48:55.594Z</time>
      </trkpt>
      <trkpt lat="46.91055" lon="8.67624">
        <ele>1792</ele>
        <time>2021-08-07T08:48:56.595Z</time>
      </trkpt>
      <trkpt lat="46.91055" lon="8.67623">
        <ele>1793</ele>
        <time>2021-08-07T08:48:57.595Z</time>
      </trkpt>
      <trkpt lat="46.91055" lon="8.67623">
        <ele>1794</ele>
        <time>2021-08-07T08:48:58.594Z</time>
      </trkpt>
      <trkpt lat="46.91054" lon="8.67623">
        <ele>1795</ele>
        <time>2021-08-07T08:48:59.594Z</time>
      </trkpt>
      <trkpt lat="46.91054" lon="8.67623">
        <ele>1796</ele>
        <time>2021-08-07T08:49:00.595Z</time>
      </trkpt>
      <trkpt lat="46.91055" lon="8.67622">
        <ele>1796</ele>
        <time>2021-08-07T08:49:01.594Z</time>
      </trkpt>
      <trkpt lat="46.91056" lon="8.67622">
        <ele>1795</ele>
        <time>2021-08-07T08:49:02.594Z</time>
      </trkpt>
      <trkpt lat="46.91056" lon="8.67628">
        <ele>1788</ele>
        <time>2021-08-07T08:49:03.594Z</time>
      </trkpt>
      <trkpt lat="46.9106" lon="8.67622">
        <ele>1785</ele>
        <time>2021-08-07T08:49:04.595Z</time>
      </trkpt>
      <trkpt lat="46.9106" lon="8.67621">
        <ele>1784</ele>
        <time>2021-08-07T08:49:05.594Z</time>
      </trkpt>
      <trkpt lat="46.91059" lon="8.6762">
        <ele>1781</ele>
        <time>2021-08-07T08:49:06.595Z</time>
      </trkpt>
      <trkpt lat="46.91059" lon="8.6762">
        <ele>1780</ele>
        <time>2021-08-07T08:49:07.595Z</time>
      </trkpt>
      <trkpt lat="46.91058" lon="8.6762">
        <ele>1780</ele>
        <time>2021-08-07T08:49:08.594Z</time>
      </trkpt>
      <trkpt lat="46.91055" lon="8.67616">
        <ele>1776</ele>
        <time>2021-08-07T08:49:09.595Z</time>
      </trkpt>
      <trkpt lat="46.91055" lon="8.67616">
        <ele>1775</ele>
        <time>2021-08-07T08:49:10.595Z</time>
      </trkpt>
      <trkpt lat="46.91055" lon="8.67616">
        <ele>1772</ele>
        <time>2021-08-07T08:49:11.595Z</time>
      </trkpt>
      <trkpt lat="46.91053" lon="8.67616">
        <ele>1771</ele>
        <time>2021-08-07T08:49:12.596Z</time>
      </trkpt>
      <trkpt lat="46.91054" lon="8.67617">
        <ele>1771</ele>
        <time>2021-08-07T08:49:13.597Z</time>
      </trkpt>
      <trkpt lat="46.91054" lon="8.67617">
        <ele>1771</ele>
        <time>2021-08-07T08:49:14.596Z</time>
      </trkpt>
      <trkpt lat="46.91054" lon="8.67617">
        <ele>1771</ele>
        <time>2021-08-07T08:49:15.596Z</time>
      </trkpt>
      <trkpt lat="46.91054" lon="8.67618">
        <ele>1771</ele>
        <time>2021-08-07T08:49:16.596Z</time>
      </trkpt>
      <trkpt lat="46.91055" lon="8.67617">
        <ele>1771</ele>
        <time>2021-08-07T08:49:17.596Z</time>
      </trkpt>
      <trkpt lat="46.91055" lon="8.67618">
        <ele>1773</ele>
        <time>2021-08-07T08:49:18.597Z</time>
      </trkpt>
      <trkpt lat="46.91055" lon="8.67618">
        <ele>1774</ele>
        <time>2021-08-07T08:49:19.597Z</time>
      </trkpt>
      <trkpt lat="46.91054" lon="8.67618">
        <ele>1774</ele>
        <time>2021-08-07T08:49:20.597Z</time>
      </trkpt>
      <trkpt lat="46.91054" lon="8.67618">
        <ele>1777</ele>
        <time>2021-08-07T08:49:21.597Z</time>
      </trkpt>
      <trkpt lat="46.91054" lon="8.67619">
        <ele>1778</ele>
        <time>2021-08-07T08:49:22.597Z</time>
      </trkpt>
      <trkpt lat="46.91051" lon="8.67614">
        <ele>1784</ele>
        <time>2021-08-07T08:49:23.597Z</time>
      </trkpt>
      <trkpt lat="46.91051" lon="8.67614">
        <ele>1784</ele>
        <time>2021-08-07T08:49:24.598Z</time>
      </trkpt>
      <trkpt lat="46.91049" lon="8.67614">
        <ele>1785</ele>
        <time>2021-08-07T08:49:25.600Z</time>
      </trkpt>
      <trkpt lat="46.91048" lon="8.67614">
        <ele>1784</ele>
        <time>2021-08-07T08:49:26.599Z</time>
      </trkpt>
      <trkpt lat="46.91048" lon="8.67613">
        <ele>1783</ele>
        <time>2021-08-07T08:49:27.599Z</time>
      </trkpt>
      <trkpt lat="46.91048" lon="8.67612">
        <ele>1783</ele>
        <time>2021-08-07T08:49:28.600Z</time>
      </trkpt>
      <trkpt lat="46.91047" lon="8.67611">
        <ele>1782</ele>
        <time>2021-08-07T08:49:32.753Z</time>
      </trkpt>
      <trkpt lat="46.91047" lon="8.6761">
        <ele>1782</ele>
        <time>2021-08-07T08:49:33.753Z</time>
      </trkpt>
      <trkpt lat="46.91047" lon="8.67609">
        <ele>1781</ele>
        <time>2021-08-07T08:49:51.519Z</time>
      </trkpt>
      <trkpt lat="46.91047" lon="8.67608">
        <ele>1781</ele>
        <time>2021-08-07T08:49:52.519Z</time>
      </trkpt>
      <trkpt lat="46.91047" lon="8.67607">
        <ele>1780</ele>
        <time>2021-08-07T08:49:53.518Z</time>
      </trkpt>
      <trkpt lat="46.91047" lon="8.67605">
        <ele>1780</ele>
        <time>2021-08-07T08:49:54.519Z</time>
      </trkpt>
      <trkpt lat="46.91047" lon="8.67604">
        <ele>1780</ele>
        <time>2021-08-07T08:49:55.519Z</time>
      </trkpt>
      <trkpt lat="46.91047" lon="8.67602">
        <ele>1780</ele>
        <time>2021-08-07T08:49:56.518Z</time>
      </trkpt>
      <trkpt lat="46.91047" lon="8.67601">
        <ele>1781</ele>
        <time>2021-08-07T08:49:57.519Z</time>
      </trkpt>
      <trkpt lat="46.91048" lon="8.67599">
        <ele>1781</ele>
        <time>2021-08-07T08:49:58.520Z</time>
      </trkpt>
      <trkpt lat="46.91048" lon="8.67598">
        <ele>1782</ele>
        <time>2021-08-07T08:49:59.519Z</time>
      </trkpt>
      <trkpt lat="46.91048" lon="8.67597">
        <ele>1783</ele>
        <time>2021-08-07T08:50:00.519Z</time>
      </trkpt>
      <trkpt lat="46.91048" lon="8.67596">
        <ele>1783</ele>
        <time>2021-08-07T08:50:01.520Z</time>
      </trkpt>
      <trkpt lat="46.91049" lon="8.67595">
        <ele>1783</ele>
        <time>2021-08-07T08:50:02.520Z</time>
      </trkpt>
      <trkpt lat="46.91049" lon="8.67594">
        <ele>1783</ele>
        <time>2021-08-07T08:50:03.520Z</time>
      </trkpt>
      <trkpt lat="46.91048" lon="8.67593">
        <ele>1782</ele>
        <time>2021-08-07T08:50:04.520Z</time>
      </trkpt>
      <trkpt lat="46.91047" lon="8.67592">
        <ele>1783</ele>
        <time>2021-08-07T08:50:05.520Z</time>
      </trkpt>
      <trkpt lat="46.91045" lon="8.67591">
        <ele>1783</ele>
        <time>2021-08-07T08:50:06.520Z</time>
      </trkpt>
      <trkpt lat="46.91044" lon="8.6759">
        <ele>1783</ele>
        <time>2021-08-07T08:50:07.520Z</time>
      </trkpt>
      <trkpt lat="46.91043" lon="8.67589">
        <ele>1784</ele>
        <time>2021-08-07T08:50:08.520Z</time>
      </trkpt>
      <trkpt lat="46.91042" lon="8.67588">
        <ele>1784</ele>
        <time>2021-08-07T08:50:09.519Z</time>
      </trkpt>
      <trkpt lat="46.91041" lon="8.67588">
        <ele>1784</ele>
        <time>2021-08-07T08:50:10.520Z</time>
      </trkpt>
      <trkpt lat="46.9104" lon="8.67587">
        <ele>1784</ele>
        <time>2021-08-07T08:50:11.519Z</time>
      </trkpt>
      <trkpt lat="46.9104" lon="8.67587">
        <ele>1784</ele>
        <time>2021-08-07T08:50:12.520Z</time>
      </trkpt>
      <trkpt lat="46.91039" lon="8.67586">
        <ele>1784</ele>
        <time>2021-08-07T08:50:13.520Z</time>
      </trkpt>
      <trkpt lat="46.91039" lon="8.67586">
        <ele>1783</ele>
        <time>2021-08-07T08:50:14.519Z</time>
      </trkpt>
      <trkpt lat="46.91038" lon="8.67585">
        <ele>1783</ele>
        <time>2021-08-07T08:50:15.519Z</time>
      </trkpt>
      <trkpt lat="46.91037" lon="8.67584">
        <ele>1782</ele>
        <time>2021-08-07T08:50:16.520Z</time>
      </trkpt>
      <trkpt lat="46.91036" lon="8.67582">
        <ele>1782</ele>
        <time>2021-08-07T08:50:17.520Z</time>
      </trkpt>
      <trkpt lat="46.91036" lon="8.67581">
        <ele>1781</ele>
        <time>2021-08-07T08:50:18.520Z</time>
      </trkpt>
      <trkpt lat="46.91035" lon="8.6758">
        <ele>1782</ele>
        <time>2021-08-07T08:50:19.519Z</time>
      </trkpt>
      <trkpt lat="46.91034" lon="8.67578">
        <ele>1782</ele>
        <time>2021-08-07T08:50:20.520Z</time>
      </trkpt>
      <trkpt lat="46.91033" lon="8.67576">
        <ele>1782</ele>
        <time>2021-08-07T08:50:21.519Z</time>
      </trkpt>
      <trkpt lat="46.91032" lon="8.67575">
        <ele>1782</ele>
        <time>2021-08-07T08:50:22.520Z</time>
      </trkpt>
      <trkpt lat="46.91031" lon="8.67572">
        <ele>1781</ele>
        <time>2021-08-07T08:50:23.520Z</time>
      </trkpt>
      <trkpt lat="46.91031" lon="8.67571">
        <ele>1780</ele>
        <time>2021-08-07T08:50:24.520Z</time>
      </trkpt>
      <trkpt lat="46.91029" lon="8.67569">
        <ele>1779</ele>
        <time>2021-08-07T08:50:25.520Z</time>
      </trkpt>
      <trkpt lat="46.91029" lon="8.67568">
        <ele>1778</ele>
        <time>2021-08-07T08:50:26.520Z</time>
      </trkpt>
      <trkpt lat="46.91028" lon="8.67567">
        <ele>1777</ele>
        <time>2021-08-07T08:50:27.520Z</time>
      </trkpt>
      <trkpt lat="46.91027" lon="8.67566">
        <ele>1776</ele>
        <time>2021-08-07T08:50:28.520Z</time>
      </trkpt>
      <trkpt lat="46.91027" lon="8.67565">
        <ele>1774</ele>
        <time>2021-08-07T08:50:29.520Z</time>
      </trkpt>
      <trkpt lat="46.91027" lon="8.67564">
        <ele>1773</ele>
        <time>2021-08-07T08:50:30.520Z</time>
      </trkpt>
      <trkpt lat="46.91026" lon="8.67562">
        <ele>1772</ele>
        <time>2021-08-07T08:50:31.519Z</time>
      </trkpt>
      <trkpt lat="46.91026" lon="8.67561">
        <ele>1771</ele>
        <time>2021-08-07T08:50:32.520Z</time>
      </trkpt>
      <trkpt lat="46.91026" lon="8.6756">
        <ele>1771</ele>
        <time>2021-08-07T08:50:33.519Z</time>
      </trkpt>
      <trkpt lat="46.91025" lon="8.67559">
        <ele>1770</ele>
        <time>2021-08-07T08:50:34.520Z</time>
      </trkpt>
      <trkpt lat="46.91025" lon="8.67558">
        <ele>1770</ele>
        <time>2021-08-07T08:50:35.520Z</time>
      </trkpt>
      <trkpt lat="46.91024" lon="8.67557">
        <ele>1770</ele>
        <time>2021-08-07T08:50:36.520Z</time>
      </trkpt>
      <trkpt lat="46.91024" lon="8.67556">
        <ele>1770</ele>
        <time>2021-08-07T08:50:37.520Z</time>
      </trkpt>
      <trkpt lat="46.91025" lon="8.67555">
        <ele>1769</ele>
        <time>2021-08-07T08:50:38.520Z</time>
      </trkpt>
      <trkpt lat="46.91024" lon="8.67554">
        <ele>1769</ele>
        <time>2021-08-07T08:50:39.519Z</time>
      </trkpt>
      <trkpt lat="46.91024" lon="8.67553">
        <ele>1768</ele>
        <time>2021-08-07T08:50:40.520Z</time>
      </trkpt>
      <trkpt lat="46.91024" lon="8.67553">
        <ele>1768</ele>
        <time>2021-08-07T08:50:41.520Z</time>
      </trkpt>
      <trkpt lat="46.91024" lon="8.67552">
        <ele>1768</ele>
        <time>2021-08-07T08:50:42.520Z</time>
      </trkpt>
      <trkpt lat="46.91023" lon="8.67551">
        <ele>1768</ele>
        <time>2021-08-07T08:50:43.520Z</time>
      </trkpt>
      <trkpt lat="46.91023" lon="8.6755">
        <ele>1768</ele>
        <time>2021-08-07T08:50:44.519Z</time>
      </trkpt>
      <trkpt lat="46.91022" lon="8.67549">
        <ele>1768</ele>
        <time>2021-08-07T08:50:45.519Z</time>
      </trkpt>
      <trkpt lat="46.91022" lon="8.67548">
        <ele>1768</ele>
        <time>2021-08-07T08:50:46.520Z</time>
      </trkpt>
      <trkpt lat="46.91021" lon="8.67547">
        <ele>1767</ele>
        <time>2021-08-07T08:50:47.519Z</time>
      </trkpt>
      <trkpt lat="46.91021" lon="8.67546">
        <ele>1767</ele>
        <time>2021-08-07T08:50:48.519Z</time>
      </trkpt>
      <trkpt lat="46.91021" lon="8.67544">
        <ele>1767</ele>
        <time>2021-08-07T08:50:49.520Z</time>
      </trkpt>
      <trkpt lat="46.91021" lon="8.67542">
        <ele>1767</ele>
        <time>2021-08-07T08:50:50.520Z</time>
      </trkpt>
      <trkpt lat="46.91022" lon="8.6754">
        <ele>1767</ele>
        <time>2021-08-07T08:50:51.520Z</time>
      </trkpt>
      <trkpt lat="46.91021" lon="8.67539">
        <ele>1767</ele>
        <time>2021-08-07T08:50:52.520Z</time>
      </trkpt>
      <trkpt lat="46.91021" lon="8.67538">
        <ele>1767</ele>
        <time>2021-08-07T08:50:53.520Z</time>
      </trkpt>
      <trkpt lat="46.91021" lon="8.67536">
        <ele>1767</ele>
        <time>2021-08-07T08:50:54.520Z</time>
      </trkpt>
      <trkpt lat="46.91021" lon="8.67535">
        <ele>1767</ele>
        <time>2021-08-07T08:50:55.520Z</time>
      </trkpt>
      <trkpt lat="46.91021" lon="8.67534">
        <ele>1768</ele>
        <time>2021-08-07T08:50:56.520Z</time>
      </trkpt>
      <trkpt lat="46.91022" lon="8.67532">
        <ele>1768</ele>
        <time>2021-08-07T08:50:57.520Z</time>
      </trkpt>
      <trkpt lat="46.91022" lon="8.67531">
        <ele>1768</ele>
        <time>2021-08-07T08:50:58.520Z</time>
      </trkpt>
      <trkpt lat="46.91022" lon="8.67529">
        <ele>1768</ele>
        <time>2021-08-07T08:50:59.519Z</time>
      </trkpt>
      <trkpt lat="46.91022" lon="8.67528">
        <ele>1768</ele>
        <time>2021-08-07T08:51:00.520Z</time>
      </trkpt>
      <trkpt lat="46.91022" lon="8.67526">
        <ele>1768</ele>
        <time>2021-08-07T08:51:01.519Z</time>
      </trkpt>
      <trkpt lat="46.91022" lon="8.67525">
        <ele>1768</ele>
        <time>2021-08-07T08:51:02.520Z</time>
      </trkpt>
      <trkpt lat="46.91023" lon="8.67524">
        <ele>1768</ele>
        <time>2021-08-07T08:51:03.520Z</time>
      </trkpt>
      <trkpt lat="46.91024" lon="8.67523">
        <ele>1769</ele>
        <time>2021-08-07T08:51:04.520Z</time>
      </trkpt>
      <trkpt lat="46.91024" lon="8.67523">
        <ele>1769</ele>
        <time>2021-08-07T08:51:05.520Z</time>
      </trkpt>
      <trkpt lat="46.91024" lon="8.67521">
        <ele>1769</ele>
        <time>2021-08-07T08:51:06.520Z</time>
      </trkpt>
      <trkpt lat="46.91024" lon="8.6752">
        <ele>1769</ele>
        <time>2021-08-07T08:51:07.520Z</time>
      </trkpt>
      <trkpt lat="46.91024" lon="8.67519">
        <ele>1769</ele>
        <time>2021-08-07T08:51:08.519Z</time>
      </trkpt>
      <trkpt lat="46.91024" lon="8.67517">
        <ele>1769</ele>
        <time>2021-08-07T08:51:09.520Z</time>
      </trkpt>
      <trkpt lat="46.91024" lon="8.67516">
        <ele>1769</ele>
        <time>2021-08-07T08:51:10.520Z</time>
      </trkpt>
      <trkpt lat="46.91025" lon="8.67515">
        <ele>1769</ele>
        <time>2021-08-07T08:51:11.520Z</time>
      </trkpt>
      <trkpt lat="46.91026" lon="8.67514">
        <ele>1768</ele>
        <time>2021-08-07T08:51:12.520Z</time>
      </trkpt>
      <trkpt lat="46.91025" lon="8.67513">
        <ele>1768</ele>
        <time>2021-08-07T08:51:13.520Z</time>
      </trkpt>
      <trkpt lat="46.91024" lon="8.67512">
        <ele>1768</ele>
        <time>2021-08-07T08:51:14.519Z</time>
      </trkpt>
      <trkpt lat="46.91024" lon="8.67511">
        <ele>1767</ele>
        <time>2021-08-07T08:51:15.519Z</time>
      </trkpt>
      <trkpt lat="46.91023" lon="8.6751">
        <ele>1767</ele>
        <time>2021-08-07T08:51:16.519Z</time>
      </trkpt>
      <trkpt lat="46.91023" lon="8.67509">
        <ele>1766</ele>
        <time>2021-08-07T08:51:17.520Z</time>
      </trkpt>
      <trkpt lat="46.91023" lon="8.67508">
        <ele>1766</ele>
        <time>2021-08-07T08:51:18.520Z</time>
      </trkpt>
      <trkpt lat="46.91023" lon="8.67507">
        <ele>1765</ele>
        <time>2021-08-07T08:51:19.520Z</time>
      </trkpt>
      <trkpt lat="46.91022" lon="8.67505">
        <ele>1764</ele>
        <time>2021-08-07T08:51:20.520Z</time>
      </trkpt>
      <trkpt lat="46.91022" lon="8.67504">
        <ele>1763</ele>
        <time>2021-08-07T08:51:21.519Z</time>
      </trkpt>
      <trkpt lat="46.91022" lon="8.67503">
        <ele>1762</ele>
        <time>2021-08-07T08:51:22.520Z</time>
      </trkpt>
      <trkpt lat="46.91021" lon="8.67501">
        <ele>1761</ele>
        <time>2021-08-07T08:51:23.519Z</time>
      </trkpt>
      <trkpt lat="46.91021" lon="8.675">
        <ele>1761</ele>
        <time>2021-08-07T08:51:24.520Z</time>
      </trkpt>
      <trkpt lat="46.91021" lon="8.67498">
        <ele>1760</ele>
        <time>2021-08-07T08:51:25.520Z</time>
      </trkpt>
      <trkpt lat="46.91021" lon="8.67497">
        <ele>1759</ele>
        <time>2021-08-07T08:51:26.520Z</time>
      </trkpt>
      <trkpt lat="46.9102" lon="8.67495">
        <ele>1759</ele>
        <time>2021-08-07T08:51:27.519Z</time>
      </trkpt>
      <trkpt lat="46.91021" lon="8.67493">
        <ele>1759</ele>
        <time>2021-08-07T08:51:28.520Z</time>
      </trkpt>
      <trkpt lat="46.91021" lon="8.67492">
        <ele>1758</ele>
        <time>2021-08-07T08:51:29.520Z</time>
      </trkpt>
      <trkpt lat="46.91021" lon="8.67491">
        <ele>1758</ele>
        <time>2021-08-07T08:51:30.520Z</time>
      </trkpt>
      <trkpt lat="46.9102" lon="8.67489">
        <ele>1758</ele>
        <time>2021-08-07T08:51:31.519Z</time>
      </trkpt>
      <trkpt lat="46.91019" lon="8.67488">
        <ele>1758</ele>
        <time>2021-08-07T08:51:32.519Z</time>
      </trkpt>
      <trkpt lat="46.91019" lon="8.67487">
        <ele>1758</ele>
        <time>2021-08-07T08:51:33.520Z</time>
      </trkpt>
      <trkpt lat="46.91018" lon="8.67486">
        <ele>1758</ele>
        <time>2021-08-07T08:51:34.520Z</time>
      </trkpt>
      <trkpt lat="46.91018" lon="8.67487">
        <ele>1758</ele>
        <time>2021-08-07T08:51:35.520Z</time>
      </trkpt>
      <trkpt lat="46.91018" lon="8.67487">
        <ele>1758</ele>
        <time>2021-08-07T08:51:36.520Z</time>
      </trkpt>
      <trkpt lat="46.91018" lon="8.67484">
        <ele>1758</ele>
        <time>2021-08-07T08:51:37.520Z</time>
      </trkpt>
      <trkpt lat="46.91017" lon="8.67483">
        <ele>1758</ele>
        <time>2021-08-07T08:51:38.520Z</time>
      </trkpt>
      <trkpt lat="46.91017" lon="8.67482">
        <ele>1758</ele>
        <time>2021-08-07T08:51:39.521Z</time>
      </trkpt>
      <trkpt lat="46.91017" lon="8.67482">
        <ele>1757</ele>
        <time>2021-08-07T08:51:40.521Z</time>
      </trkpt>
      <trkpt lat="46.91017" lon="8.67481">
        <ele>1757</ele>
        <time>2021-08-07T08:51:41.521Z</time>
      </trkpt>
      <trkpt lat="46.91018" lon="8.67485">
        <ele>1741</ele>
        <time>2021-08-07T08:51:42.521Z</time>
      </trkpt>
      <trkpt lat="46.91021" lon="8.67479">
        <ele>1751</ele>
        <time>2021-08-07T08:51:43.521Z</time>
      </trkpt>
      <trkpt lat="46.91022" lon="8.67478">
        <ele>1752</ele>
        <time>2021-08-07T08:51:44.521Z</time>
      </trkpt>
      <trkpt lat="46.91022" lon="8.67477">
        <ele>1752</ele>
        <time>2021-08-07T08:51:45.520Z</time>
      </trkpt>
      <trkpt lat="46.91022" lon="8.67475">
        <ele>1753</ele>
        <time>2021-08-07T08:51:46.521Z</time>
      </trkpt>
      <trkpt lat="46.91021" lon="8.67474">
        <ele>1753</ele>
        <time>2021-08-07T08:51:47.521Z</time>
      </trkpt>
      <trkpt lat="46.9102" lon="8.67474">
        <ele>1752</ele>
        <time>2021-08-07T08:51:48.521Z</time>
      </trkpt>
      <trkpt lat="46.91019" lon="8.67473">
        <ele>1752</ele>
        <time>2021-08-07T08:51:49.521Z</time>
      </trkpt>
      <trkpt lat="46.91018" lon="8.67472">
        <ele>1752</ele>
        <time>2021-08-07T08:51:50.520Z</time>
      </trkpt>
      <trkpt lat="46.91018" lon="8.67471">
        <ele>1752</ele>
        <time>2021-08-07T08:51:51.521Z</time>
      </trkpt>
      <trkpt lat="46.91017" lon="8.67469">
        <ele>1752</ele>
        <time>2021-08-07T08:51:52.520Z</time>
      </trkpt>
      <trkpt lat="46.91017" lon="8.67467">
        <ele>1752</ele>
        <time>2021-08-07T08:51:53.521Z</time>
      </trkpt>
      <trkpt lat="46.91017" lon="8.67466">
        <ele>1752</ele>
        <time>2021-08-07T08:51:54.520Z</time>
      </trkpt>
      <trkpt lat="46.91016" lon="8.67464">
        <ele>1752</ele>
        <time>2021-08-07T08:51:55.521Z</time>
      </trkpt>
      <trkpt lat="46.91015" lon="8.67463">
        <ele>1752</ele>
        <time>2021-08-07T08:51:56.521Z</time>
      </trkpt>
      <trkpt lat="46.91015" lon="8.67461">
        <ele>1752</ele>
        <time>2021-08-07T08:51:57.521Z</time>
      </trkpt>
      <trkpt lat="46.91014" lon="8.6746">
        <ele>1752</ele>
        <time>2021-08-07T08:51:58.521Z</time>
      </trkpt>
      <trkpt lat="46.91013" lon="8.67458">
        <ele>1752</ele>
        <time>2021-08-07T08:51:59.521Z</time>
      </trkpt>
      <trkpt lat="46.91014" lon="8.67457">
        <ele>1752</ele>
        <time>2021-08-07T08:52:00.520Z</time>
      </trkpt>
      <trkpt lat="46.91013" lon="8.67455">
        <ele>1752</ele>
        <time>2021-08-07T08:52:01.521Z</time>
      </trkpt>
      <trkpt lat="46.91013" lon="8.67454">
        <ele>1752</ele>
        <time>2021-08-07T08:52:02.521Z</time>
      </trkpt>
      <trkpt lat="46.91013" lon="8.67452">
        <ele>1752</ele>
        <time>2021-08-07T08:52:03.520Z</time>
      </trkpt>
      <trkpt lat="46.91012" lon="8.6745">
        <ele>1753</ele>
        <time>2021-08-07T08:52:04.521Z</time>
      </trkpt>
      <trkpt lat="46.91012" lon="8.67449">
        <ele>1753</ele>
        <time>2021-08-07T08:52:05.521Z</time>
      </trkpt>
      <trkpt lat="46.9101" lon="8.67448">
        <ele>1753</ele>
        <time>2021-08-07T08:52:06.521Z</time>
      </trkpt>
      <trkpt lat="46.91009" lon="8.67447">
        <ele>1753</ele>
        <time>2021-08-07T08:52:07.520Z</time>
      </trkpt>
      <trkpt lat="46.91008" lon="8.67447">
        <ele>1753</ele>
        <time>2021-08-07T08:52:08.521Z</time>
      </trkpt>
      <trkpt lat="46.91007" lon="8.67446">
        <ele>1753</ele>
        <time>2021-08-07T08:52:09.521Z</time>
      </trkpt>
      <trkpt lat="46.91006" lon="8.67445">
        <ele>1753</ele>
        <time>2021-08-07T08:52:10.521Z</time>
      </trkpt>
      <trkpt lat="46.91006" lon="8.67444">
        <ele>1753</ele>
        <time>2021-08-07T08:52:11.521Z</time>
      </trkpt>
      <trkpt lat="46.91006" lon="8.67443">
        <ele>1753</ele>
        <time>2021-08-07T08:52:12.521Z</time>
      </trkpt>
      <trkpt lat="46.91006" lon="8.67442">
        <ele>1752</ele>
        <time>2021-08-07T08:52:13.521Z</time>
      </trkpt>
      <trkpt lat="46.91005" lon="8.6744">
        <ele>1752</ele>
        <time>2021-08-07T08:52:14.521Z</time>
      </trkpt>
      <trkpt lat="46.91005" lon="8.67439">
        <ele>1752</ele>
        <time>2021-08-07T08:52:15.521Z</time>
      </trkpt>
      <trkpt lat="46.91004" lon="8.67438">
        <ele>1752</ele>
        <time>2021-08-07T08:52:16.521Z</time>
      </trkpt>
      <trkpt lat="46.91003" lon="8.67437">
        <ele>1752</ele>
        <time>2021-08-07T08:52:17.520Z</time>
      </trkpt>
      <trkpt lat="46.91002" lon="8.67435">
        <ele>1752</ele>
        <time>2021-08-07T08:52:18.521Z</time>
      </trkpt>
      <trkpt lat="46.91002" lon="8.67434">
        <ele>1752</ele>
        <time>2021-08-07T08:52:19.520Z</time>
      </trkpt>
      <trkpt lat="46.91001" lon="8.67433">
        <ele>1752</ele>
        <time>2021-08-07T08:52:20.520Z</time>
      </trkpt>
      <trkpt lat="46.91" lon="8.67431">
        <ele>1752</ele>
        <time>2021-08-07T08:52:21.521Z</time>
      </trkpt>
      <trkpt lat="46.90999" lon="8.6743">
        <ele>1752</ele>
        <time>2021-08-07T08:52:22.521Z</time>
      </trkpt>
      <trkpt lat="46.90999" lon="8.67428">
        <ele>1752</ele>
        <time>2021-08-07T08:52:23.521Z</time>
      </trkpt>
      <trkpt lat="46.90999" lon="8.67427">
        <ele>1752</ele>
        <time>2021-08-07T08:52:24.521Z</time>
      </trkpt>
      <trkpt lat="46.90999" lon="8.67425">
        <ele>1752</ele>
        <time>2021-08-07T08:52:25.521Z</time>
      </trkpt>
      <trkpt lat="46.90998" lon="8.67424">
        <ele>1752</ele>
        <time>2021-08-07T08:52:26.521Z</time>
      </trkpt>
      <trkpt lat="46.90997" lon="8.67423">
        <ele>1752</ele>
        <time>2021-08-07T08:52:27.521Z</time>
      </trkpt>
      <trkpt lat="46.90996" lon="8.67422">
        <ele>1752</ele>
        <time>2021-08-07T08:52:28.520Z</time>
      </trkpt>
      <trkpt lat="46.90995" lon="8.67421">
        <ele>1752</ele>
        <time>2021-08-07T08:52:29.520Z</time>
      </trkpt>
      <trkpt lat="46.90995" lon="8.6742">
        <ele>1752</ele>
        <time>2021-08-07T08:52:30.521Z</time>
      </trkpt>
      <trkpt lat="46.90994" lon="8.67419">
        <ele>1752</ele>
        <time>2021-08-07T08:52:31.521Z</time>
      </trkpt>
      <trkpt lat="46.90993" lon="8.67419">
        <ele>1753</ele>
        <time>2021-08-07T08:52:32.520Z</time>
      </trkpt>
      <trkpt lat="46.90992" lon="8.67418">
        <ele>1752</ele>
        <time>2021-08-07T08:52:33.520Z</time>
      </trkpt>
      <trkpt lat="46.9099" lon="8.67418">
        <ele>1752</ele>
        <time>2021-08-07T08:52:34.520Z</time>
      </trkpt>
      <trkpt lat="46.90989" lon="8.67417">
        <ele>1752</ele>
        <time>2021-08-07T08:52:35.520Z</time>
      </trkpt>
      <trkpt lat="46.90988" lon="8.67417">
        <ele>1753</ele>
        <time>2021-08-07T08:52:36.520Z</time>
      </trkpt>
      <trkpt lat="46.90987" lon="8.67417">
        <ele>1753</ele>
        <time>2021-08-07T08:52:37.521Z</time>
      </trkpt>
      <trkpt lat="46.90986" lon="8.67416">
        <ele>1753</ele>
        <time>2021-08-07T08:52:38.520Z</time>
      </trkpt>
      <trkpt lat="46.90985" lon="8.67416">
        <ele>1753</ele>
        <time>2021-08-07T08:52:39.521Z</time>
      </trkpt>
      <trkpt lat="46.90984" lon="8.67415">
        <ele>1754</ele>
        <time>2021-08-07T08:52:40.520Z</time>
      </trkpt>
      <trkpt lat="46.90983" lon="8.67414">
        <ele>1753</ele>
        <time>2021-08-07T08:52:41.521Z</time>
      </trkpt>
      <trkpt lat="46.90982" lon="8.67413">
        <ele>1753</ele>
        <time>2021-08-07T08:52:42.521Z</time>
      </trkpt>
      <trkpt lat="46.90981" lon="8.67412">
        <ele>1753</ele>
        <time>2021-08-07T08:52:43.521Z</time>
      </trkpt>
      <trkpt lat="46.9098" lon="8.67412">
        <ele>1753</ele>
        <time>2021-08-07T08:52:44.521Z</time>
      </trkpt>
      <trkpt lat="46.90979" lon="8.67411">
        <ele>1752</ele>
        <time>2021-08-07T08:52:45.521Z</time>
      </trkpt>
      <trkpt lat="46.90979" lon="8.67411">
        <ele>1752</ele>
        <time>2021-08-07T08:52:46.521Z</time>
      </trkpt>
      <trkpt lat="46.90978" lon="8.6741">
        <ele>1751</ele>
        <time>2021-08-07T08:52:47.521Z</time>
      </trkpt>
      <trkpt lat="46.90978" lon="8.6741">
        <ele>1751</ele>
        <time>2021-08-07T08:52:48.521Z</time>
      </trkpt>
      <trkpt lat="46.90977" lon="8.67409">
        <ele>1750</ele>
        <time>2021-08-07T08:52:49.521Z</time>
      </trkpt>
      <trkpt lat="46.90977" lon="8.6741">
        <ele>1749</ele>
        <time>2021-08-07T08:52:50.520Z</time>
      </trkpt>
      <trkpt lat="46.90977" lon="8.67408">
        <ele>1745</ele>
        <time>2021-08-07T08:52:51.523Z</time>
      </trkpt>
      <trkpt lat="46.90977" lon="8.67407">
        <ele>1744</ele>
        <time>2021-08-07T08:52:52.523Z</time>
      </trkpt>
      <trkpt lat="46.90977" lon="8.67407">
        <ele>1744</ele>
        <time>2021-08-07T08:52:53.523Z</time>
      </trkpt>
      <trkpt lat="46.90976" lon="8.67405">
        <ele>1744</ele>
        <time>2021-08-07T08:52:54.523Z</time>
      </trkpt>
      <trkpt lat="46.90975" lon="8.67405">
        <ele>1744</ele>
        <time>2021-08-07T08:52:55.522Z</time>
      </trkpt>
      <trkpt lat="46.90975" lon="8.67404">
        <ele>1744</ele>
        <time>2021-08-07T08:52:56.523Z</time>
      </trkpt>
      <trkpt lat="46.90975" lon="8.67403">
        <ele>1745</ele>
        <time>2021-08-07T08:52:57.522Z</time>
      </trkpt>
      <trkpt lat="46.90974" lon="8.67402">
        <ele>1745</ele>
        <time>2021-08-07T08:52:58.523Z</time>
      </trkpt>
      <trkpt lat="46.90973" lon="8.67401">
        <ele>1745</ele>
        <time>2021-08-07T08:52:59.523Z</time>
      </trkpt>
      <trkpt lat="46.90972" lon="8.67401">
        <ele>1746</ele>
        <time>2021-08-07T08:53:00.523Z</time>
      </trkpt>
      <trkpt lat="46.90971" lon="8.67399">
        <ele>1746</ele>
        <time>2021-08-07T08:53:01.523Z</time>
      </trkpt>
      <trkpt lat="46.9097" lon="8.67399">
        <ele>1746</ele>
        <time>2021-08-07T08:53:02.523Z</time>
      </trkpt>
      <trkpt lat="46.90968" lon="8.67398">
        <ele>1746</ele>
        <time>2021-08-07T08:53:03.522Z</time>
      </trkpt>
      <trkpt lat="46.90966" lon="8.67396">
        <ele>1746</ele>
        <time>2021-08-07T08:53:04.523Z</time>
      </trkpt>
      <trkpt lat="46.90965" lon="8.67395">
        <ele>1747</ele>
        <time>2021-08-07T08:53:05.522Z</time>
      </trkpt>
      <trkpt lat="46.90964" lon="8.67393">
        <ele>1747</ele>
        <time>2021-08-07T08:53:06.522Z</time>
      </trkpt>
      <trkpt lat="46.90964" lon="8.67392">
        <ele>1748</ele>
        <time>2021-08-07T08:53:07.522Z</time>
      </trkpt>
      <trkpt lat="46.90963" lon="8.67391">
        <ele>1748</ele>
        <time>2021-08-07T08:53:08.523Z</time>
      </trkpt>
      <trkpt lat="46.90961" lon="8.6739">
        <ele>1748</ele>
        <time>2021-08-07T08:53:09.522Z</time>
      </trkpt>
      <trkpt lat="46.90961" lon="8.67388">
        <ele>1748</ele>
        <time>2021-08-07T08:53:10.523Z</time>
      </trkpt>
      <trkpt lat="46.90959" lon="8.67387">
        <ele>1748</ele>
        <time>2021-08-07T08:53:11.523Z</time>
      </trkpt>
      <trkpt lat="46.90958" lon="8.67386">
        <ele>1747</ele>
        <time>2021-08-07T08:53:12.522Z</time>
      </trkpt>
      <trkpt lat="46.90958" lon="8.67384">
        <ele>1747</ele>
        <time>2021-08-07T08:53:13.523Z</time>
      </trkpt>
      <trkpt lat="46.90957" lon="8.67383">
        <ele>1747</ele>
        <time>2021-08-07T08:53:14.522Z</time>
      </trkpt>
      <trkpt lat="46.90957" lon="8.67381">
        <ele>1747</ele>
        <time>2021-08-07T08:53:15.522Z</time>
      </trkpt>
      <trkpt lat="46.90957" lon="8.6738">
        <ele>1747</ele>
        <time>2021-08-07T08:53:16.522Z</time>
      </trkpt>
      <trkpt lat="46.90957" lon="8.67379">
        <ele>1747</ele>
        <time>2021-08-07T08:53:17.522Z</time>
      </trkpt>
      <trkpt lat="46.90956" lon="8.67378">
        <ele>1747</ele>
        <time>2021-08-07T08:53:18.522Z</time>
      </trkpt>
      <trkpt lat="46.90956" lon="8.67378">
        <ele>1747</ele>
        <time>2021-08-07T08:53:19.523Z</time>
      </trkpt>
      <trkpt lat="46.90955" lon="8.67377">
        <ele>1747</ele>
        <time>2021-08-07T08:53:20.522Z</time>
      </trkpt>
      <trkpt lat="46.90954" lon="8.67376">
        <ele>1746</ele>
        <time>2021-08-07T08:53:21.522Z</time>
      </trkpt>
      <trkpt lat="46.90953" lon="8.67376">
        <ele>1746</ele>
        <time>2021-08-07T08:53:22.522Z</time>
      </trkpt>
      <trkpt lat="46.90953" lon="8.67375">
        <ele>1746</ele>
        <time>2021-08-07T08:53:23.522Z</time>
      </trkpt>
      <trkpt lat="46.90952" lon="8.67374">
        <ele>1746</ele>
        <time>2021-08-07T08:53:24.522Z</time>
      </trkpt>
      <trkpt lat="46.90951" lon="8.67374">
        <ele>1746</ele>
        <time>2021-08-07T08:53:25.522Z</time>
      </trkpt>
      <trkpt lat="46.90949" lon="8.67372">
        <ele>1747</ele>
        <time>2021-08-07T08:53:26.522Z</time>
      </trkpt>
      <trkpt lat="46.90948" lon="8.67371">
        <ele>1747</ele>
        <time>2021-08-07T08:53:27.522Z</time>
      </trkpt>
      <trkpt lat="46.90946" lon="8.6737">
        <ele>1748</ele>
        <time>2021-08-07T08:53:28.522Z</time>
      </trkpt>
      <trkpt lat="46.90944" lon="8.67369">
        <ele>1748</ele>
        <time>2021-08-07T08:53:29.522Z</time>
      </trkpt>
      <trkpt lat="46.90943" lon="8.67369">
        <ele>1749</ele>
        <time>2021-08-07T08:53:30.522Z</time>
      </trkpt>
      <trkpt lat="46.90942" lon="8.67368">
        <ele>1750</ele>
        <time>2021-08-07T08:53:31.522Z</time>
      </trkpt>
      <trkpt lat="46.90941" lon="8.67368">
        <ele>1750</ele>
        <time>2021-08-07T08:53:32.522Z</time>
      </trkpt>
      <trkpt lat="46.9094" lon="8.67367">
        <ele>1751</ele>
        <time>2021-08-07T08:53:33.522Z</time>
      </trkpt>
      <trkpt lat="46.90939" lon="8.67366">
        <ele>1751</ele>
        <time>2021-08-07T08:53:34.522Z</time>
      </trkpt>
      <trkpt lat="46.90939" lon="8.67365">
        <ele>1752</ele>
        <time>2021-08-07T08:53:35.522Z</time>
      </trkpt>
      <trkpt lat="46.90938" lon="8.67365">
        <ele>1752</ele>
        <time>2021-08-07T08:53:36.522Z</time>
      </trkpt>
      <trkpt lat="46.90937" lon="8.67364">
        <ele>1752</ele>
        <time>2021-08-07T08:53:37.522Z</time>
      </trkpt>
      <trkpt lat="46.90936" lon="8.67364">
        <ele>1752</ele>
        <time>2021-08-07T08:53:38.523Z</time>
      </trkpt>
      <trkpt lat="46.90935" lon="8.67363">
        <ele>1751</ele>
        <time>2021-08-07T08:53:39.522Z</time>
      </trkpt>
      <trkpt lat="46.90935" lon="8.67362">
        <ele>1751</ele>
        <time>2021-08-07T08:53:40.523Z</time>
      </trkpt>
      <trkpt lat="46.90935" lon="8.67363">
        <ele>1751</ele>
        <time>2021-08-07T08:53:41.522Z</time>
      </trkpt>
      <trkpt lat="46.90934" lon="8.67365">
        <ele>1751</ele>
        <time>2021-08-07T08:53:42.523Z</time>
      </trkpt>
      <trkpt lat="46.90933" lon="8.67366">
        <ele>1751</ele>
        <time>2021-08-07T08:53:43.523Z</time>
      </trkpt>
      <trkpt lat="46.90932" lon="8.67366">
        <ele>1751</ele>
        <time>2021-08-07T08:53:44.523Z</time>
      </trkpt>
      <trkpt lat="46.90931" lon="8.67366">
        <ele>1752</ele>
        <time>2021-08-07T08:53:45.523Z</time>
      </trkpt>
      <trkpt lat="46.9093" lon="8.67366">
        <ele>1752</ele>
        <time>2021-08-07T08:53:46.523Z</time>
      </trkpt>
      <trkpt lat="46.9093" lon="8.67365">
        <ele>1752</ele>
        <time>2021-08-07T08:53:47.522Z</time>
      </trkpt>
      <trkpt lat="46.90928" lon="8.67365">
        <ele>1752</ele>
        <time>2021-08-07T08:53:48.523Z</time>
      </trkpt>
      <trkpt lat="46.90927" lon="8.67365">
        <ele>1752</ele>
        <time>2021-08-07T08:53:49.522Z</time>
      </trkpt>
      <trkpt lat="46.90927" lon="8.67365">
        <ele>1752</ele>
        <time>2021-08-07T08:53:50.523Z</time>
      </trkpt>
      <trkpt lat="46.90926" lon="8.67364">
        <ele>1751</ele>
        <time>2021-08-07T08:53:51.523Z</time>
      </trkpt>
      <trkpt lat="46.90925" lon="8.67364">
        <ele>1750</ele>
        <time>2021-08-07T08:53:52.523Z</time>
      </trkpt>
      <trkpt lat="46.90924" lon="8.67364">
        <ele>1750</ele>
        <time>2021-08-07T08:53:53.523Z</time>
      </trkpt>
      <trkpt lat="46.90923" lon="8.67364">
        <ele>1749</ele>
        <time>2021-08-07T08:53:54.523Z</time>
      </trkpt>
      <trkpt lat="46.90922" lon="8.67364">
        <ele>1748</ele>
        <time>2021-08-07T08:53:55.523Z</time>
      </trkpt>
      <trkpt lat="46.90922" lon="8.67363">
        <ele>1748</ele>
        <time>2021-08-07T08:53:56.523Z</time>
      </trkpt>
      <trkpt lat="46.90921" lon="8.67363">
        <ele>1747</ele>
        <time>2021-08-07T08:53:57.523Z</time>
      </trkpt>
      <trkpt lat="46.90922" lon="8.67362">
        <ele>1747</ele>
        <time>2021-08-07T08:53:58.522Z</time>
      </trkpt>
      <trkpt lat="46.90922" lon="8.67361">
        <ele>1746</ele>
        <time>2021-08-07T08:53:59.522Z</time>
      </trkpt>
      <trkpt lat="46.90922" lon="8.67361">
        <ele>1746</ele>
        <time>2021-08-07T08:54:00.523Z</time>
      </trkpt>
      <trkpt lat="46.90922" lon="8.67362">
        <ele>1745</ele>
        <time>2021-08-07T08:54:01.523Z</time>
      </trkpt>
      <trkpt lat="46.90923" lon="8.67362">
        <ele>1744</ele>
        <time>2021-08-07T08:54:02.522Z</time>
      </trkpt>
      <trkpt lat="46.90923" lon="8.67362">
        <ele>1743</ele>
        <time>2021-08-07T08:54:03.522Z</time>
      </trkpt>
      <trkpt lat="46.90923" lon="8.67362">
        <ele>1743</ele>
        <time>2021-08-07T08:54:04.523Z</time>
      </trkpt>
      <trkpt lat="46.90922" lon="8.67361">
        <ele>1742</ele>
        <time>2021-08-07T08:54:05.523Z</time>
      </trkpt>
      <trkpt lat="46.90922" lon="8.67361">
        <ele>1741</ele>
        <time>2021-08-07T08:54:06.522Z</time>
      </trkpt>
      <trkpt lat="46.90922" lon="8.6736">
        <ele>1740</ele>
        <time>2021-08-07T08:54:07.523Z</time>
      </trkpt>
      <trkpt lat="46.90922" lon="8.6736">
        <ele>1739</ele>
        <time>2021-08-07T08:54:08.522Z</time>
      </trkpt>
      <trkpt lat="46.90921" lon="8.6736">
        <ele>1739</ele>
        <time>2021-08-07T08:54:09.523Z</time>
      </trkpt>
      <trkpt lat="46.90921" lon="8.6736">
        <ele>1738</ele>
        <time>2021-08-07T08:54:10.523Z</time>
      </trkpt>
      <trkpt lat="46.90919" lon="8.6736">
        <ele>1738</ele>
        <time>2021-08-07T08:54:11.523Z</time>
      </trkpt>
      <trkpt lat="46.90918" lon="8.6736">
        <ele>1737</ele>
        <time>2021-08-07T08:54:12.522Z</time>
      </trkpt>
      <trkpt lat="46.90918" lon="8.6736">
        <ele>1737</ele>
        <time>2021-08-07T08:54:13.523Z</time>
      </trkpt>
      <trkpt lat="46.90917" lon="8.6736">
        <ele>1737</ele>
        <time>2021-08-07T08:54:14.522Z</time>
      </trkpt>
      <trkpt lat="46.90916" lon="8.67359">
        <ele>1736</ele>
        <time>2021-08-07T08:54:15.523Z</time>
      </trkpt>
      <trkpt lat="46.90915" lon="8.67358">
        <ele>1736</ele>
        <time>2021-08-07T08:54:16.522Z</time>
      </trkpt>
      <trkpt lat="46.90915" lon="8.67358">
        <ele>1736</ele>
        <time>2021-08-07T08:54:17.522Z</time>
      </trkpt>
      <trkpt lat="46.90915" lon="8.67358">
        <ele>1735</ele>
        <time>2021-08-07T08:54:18.523Z</time>
      </trkpt>
      <trkpt lat="46.90917" lon="8.6736">
        <ele>1734</ele>
        <time>2021-08-07T08:54:19.523Z</time>
      </trkpt>
      <trkpt lat="46.90917" lon="8.67361">
        <ele>1732</ele>
        <time>2021-08-07T08:54:20.524Z</time>
      </trkpt>
      <trkpt lat="46.90917" lon="8.67361">
        <ele>1730</ele>
        <time>2021-08-07T08:54:21.524Z</time>
      </trkpt>
      <trkpt lat="46.90916" lon="8.67361">
        <ele>1729</ele>
        <time>2021-08-07T08:54:22.523Z</time>
      </trkpt>
      <trkpt lat="46.90917" lon="8.67359">
        <ele>1724</ele>
        <time>2021-08-07T08:54:23.523Z</time>
      </trkpt>
      <trkpt lat="46.90916" lon="8.6736">
        <ele>1724</ele>
        <time>2021-08-07T08:54:24.523Z</time>
      </trkpt>
      <trkpt lat="46.90916" lon="8.67359">
        <ele>1724</ele>
        <time>2021-08-07T08:54:25.523Z</time>
      </trkpt>
      <trkpt lat="46.90918" lon="8.6736">
        <ele>1725</ele>
        <time>2021-08-07T08:54:26.525Z</time>
      </trkpt>
      <trkpt lat="46.90918" lon="8.67361">
        <ele>1725</ele>
        <time>2021-08-07T08:54:27.525Z</time>
      </trkpt>
      <trkpt lat="46.90919" lon="8.67362">
        <ele>1726</ele>
        <time>2021-08-07T08:54:28.525Z</time>
      </trkpt>
      <trkpt lat="46.90919" lon="8.67363">
        <ele>1726</ele>
        <time>2021-08-07T08:54:29.525Z</time>
      </trkpt>
      <trkpt lat="46.90919" lon="8.67363">
        <ele>1727</ele>
        <time>2021-08-07T08:54:30.525Z</time>
      </trkpt>
      <trkpt lat="46.9092" lon="8.67363">
        <ele>1727</ele>
        <time>2021-08-07T08:54:31.525Z</time>
      </trkpt>
      <trkpt lat="46.90921" lon="8.67363">
        <ele>1728</ele>
        <time>2021-08-07T08:54:32.524Z</time>
      </trkpt>
      <trkpt lat="46.90921" lon="8.67363">
        <ele>1729</ele>
        <time>2021-08-07T08:54:33.525Z</time>
      </trkpt>
      <trkpt lat="46.90921" lon="8.67363">
        <ele>1730</ele>
        <time>2021-08-07T08:54:34.525Z</time>
      </trkpt>
      <trkpt lat="46.90922" lon="8.67363">
        <ele>1731</ele>
        <time>2021-08-07T08:54:35.524Z</time>
      </trkpt>
      <trkpt lat="46.90923" lon="8.67363">
        <ele>1732</ele>
        <time>2021-08-07T08:54:36.525Z</time>
      </trkpt>
      <trkpt lat="46.90924" lon="8.67363">
        <ele>1733</ele>
        <time>2021-08-07T08:54:37.525Z</time>
      </trkpt>
      <trkpt lat="46.90925" lon="8.67362">
        <ele>1733</ele>
        <time>2021-08-07T08:54:38.524Z</time>
      </trkpt>
      <trkpt lat="46.90925" lon="8.67362">
        <ele>1734</ele>
        <time>2021-08-07T08:54:39.524Z</time>
      </trkpt>
      <trkpt lat="46.90926" lon="8.67361">
        <ele>1735</ele>
        <time>2021-08-07T08:54:40.525Z</time>
      </trkpt>
      <trkpt lat="46.90927" lon="8.6736">
        <ele>1735</ele>
        <time>2021-08-07T08:54:41.525Z</time>
      </trkpt>
      <trkpt lat="46.90928" lon="8.67358">
        <ele>1736</ele>
        <time>2021-08-07T08:54:42.525Z</time>
      </trkpt>
      <trkpt lat="46.90928" lon="8.67357">
        <ele>1736</ele>
        <time>2021-08-07T08:54:43.525Z</time>
      </trkpt>
      <trkpt lat="46.90929" lon="8.67356">
        <ele>1737</ele>
        <time>2021-08-07T08:54:44.525Z</time>
      </trkpt>
      <trkpt lat="46.9093" lon="8.67355">
        <ele>1737</ele>
        <time>2021-08-07T08:54:45.524Z</time>
      </trkpt>
      <trkpt lat="46.90931" lon="8.67354">
        <ele>1737</ele>
        <time>2021-08-07T08:54:46.525Z</time>
      </trkpt>
      <trkpt lat="46.90932" lon="8.67352">
        <ele>1737</ele>
        <time>2021-08-07T08:54:47.524Z</time>
      </trkpt>
      <trkpt lat="46.90933" lon="8.67351">
        <ele>1737</ele>
        <time>2021-08-07T08:54:48.525Z</time>
      </trkpt>
      <trkpt lat="46.90933" lon="8.6735">
        <ele>1738</ele>
        <time>2021-08-07T08:54:49.525Z</time>
      </trkpt>
      <trkpt lat="46.90933" lon="8.6735">
        <ele>1738</ele>
        <time>2021-08-07T08:54:50.525Z</time>
      </trkpt>
      <trkpt lat="46.90934" lon="8.67349">
        <ele>1738</ele>
        <time>2021-08-07T08:54:51.525Z</time>
      </trkpt>
      <trkpt lat="46.90935" lon="8.67348">
        <ele>1739</ele>
        <time>2021-08-07T08:54:52.525Z</time>
      </trkpt>
      <trkpt lat="46.90935" lon="8.67348">
        <ele>1739</ele>
        <time>2021-08-07T08:54:53.524Z</time>
      </trkpt>
      <trkpt lat="46.90935" lon="8.67348">
        <ele>1739</ele>
        <time>2021-08-07T08:54:54.525Z</time>
      </trkpt>
      <trkpt lat="46.90936" lon="8.67348">
        <ele>1739</ele>
        <time>2021-08-07T08:54:55.525Z</time>
      </trkpt>
      <trkpt lat="46.90936" lon="8.67347">
        <ele>1739</ele>
        <time>2021-08-07T08:54:56.526Z</time>
      </trkpt>
      <trkpt lat="46.90936" lon="8.67347">
        <ele>1740</ele>
        <time>2021-08-07T08:54:57.525Z</time>
      </trkpt>
      <trkpt lat="46.90936" lon="8.67348">
        <ele>1740</ele>
        <time>2021-08-07T08:54:58.526Z</time>
      </trkpt>
      <trkpt lat="46.90936" lon="8.67347">
        <ele>1741</ele>
        <time>2021-08-07T08:54:59.526Z</time>
      </trkpt>
      <trkpt lat="46.90936" lon="8.67347">
        <ele>1741</ele>
        <time>2021-08-07T08:55:00.526Z</time>
      </trkpt>
      <trkpt lat="46.90936" lon="8.67346">
        <ele>1742</ele>
        <time>2021-08-07T08:55:01.526Z</time>
      </trkpt>
      <trkpt lat="46.90936" lon="8.67346">
        <ele>1742</ele>
        <time>2021-08-07T08:55:02.526Z</time>
      </trkpt>
      <trkpt lat="46.90937" lon="8.67347">
        <ele>1742</ele>
        <time>2021-08-07T08:55:03.527Z</time>
      </trkpt>
      <trkpt lat="46.90937" lon="8.67347">
        <ele>1742</ele>
        <time>2021-08-07T08:55:04.526Z</time>
      </trkpt>
      <trkpt lat="46.90938" lon="8.67347">
        <ele>1742</ele>
        <time>2021-08-07T08:55:05.526Z</time>
      </trkpt>
      <trkpt lat="46.90939" lon="8.67346">
        <ele>1742</ele>
        <time>2021-08-07T08:55:06.527Z</time>
      </trkpt>
      <trkpt lat="46.9094" lon="8.67344">
        <ele>1743</ele>
        <time>2021-08-07T08:55:07.527Z</time>
      </trkpt>
      <trkpt lat="46.9094" lon="8.67342">
        <ele>1743</ele>
        <time>2021-08-07T08:55:08.527Z</time>
      </trkpt>
      <trkpt lat="46.9094" lon="8.6734">
        <ele>1743</ele>
        <time>2021-08-07T08:55:09.527Z</time>
      </trkpt>
      <trkpt lat="46.90939" lon="8.67338">
        <ele>1743</ele>
        <time>2021-08-07T08:55:15.636Z</time>
      </trkpt>
      <trkpt lat="46.90939" lon="8.67337">
        <ele>1743</ele>
        <time>2021-08-07T08:55:16.637Z</time>
      </trkpt>
      <trkpt lat="46.90939" lon="8.67335">
        <ele>1743</ele>
        <time>2021-08-07T08:55:17.637Z</time>
      </trkpt>
      <trkpt lat="46.9094" lon="8.67334">
        <ele>1743</ele>
        <time>2021-08-07T08:55:18.637Z</time>
      </trkpt>
      <trkpt lat="46.90939" lon="8.67333">
        <ele>1744</ele>
        <time>2021-08-07T08:55:19.637Z</time>
      </trkpt>
      <trkpt lat="46.90939" lon="8.67332">
        <ele>1744</ele>
        <time>2021-08-07T08:55:20.637Z</time>
      </trkpt>
      <trkpt lat="46.90938" lon="8.67331">
        <ele>1744</ele>
        <time>2021-08-07T08:55:21.637Z</time>
      </trkpt>
      <trkpt lat="46.90938" lon="8.6733">
        <ele>1744</ele>
        <time>2021-08-07T08:55:22.637Z</time>
      </trkpt>
      <trkpt lat="46.90937" lon="8.67329">
        <ele>1744</ele>
        <time>2021-08-07T08:55:23.637Z</time>
      </trkpt>
      <trkpt lat="46.90936" lon="8.67328">
        <ele>1744</ele>
        <time>2021-08-07T08:55:24.637Z</time>
      </trkpt>
      <trkpt lat="46.90936" lon="8.67327">
        <ele>1743</ele>
        <time>2021-08-07T08:55:25.637Z</time>
      </trkpt>
      <trkpt lat="46.90935" lon="8.67325">
        <ele>1743</ele>
        <time>2021-08-07T08:55:26.637Z</time>
      </trkpt>
      <trkpt lat="46.90935" lon="8.67325">
        <ele>1743</ele>
        <time>2021-08-07T08:55:27.637Z</time>
      </trkpt>
      <trkpt lat="46.90934" lon="8.67323">
        <ele>1742</ele>
        <time>2021-08-07T08:55:28.637Z</time>
      </trkpt>
      <trkpt lat="46.90932" lon="8.67323">
        <ele>1742</ele>
        <time>2021-08-07T08:55:29.637Z</time>
      </trkpt>
      <trkpt lat="46.90931" lon="8.67322">
        <ele>1741</ele>
        <time>2021-08-07T08:55:30.637Z</time>
      </trkpt>
      <trkpt lat="46.9093" lon="8.67322">
        <ele>1742</ele>
        <time>2021-08-07T08:55:31.636Z</time>
      </trkpt>
      <trkpt lat="46.9093" lon="8.67321">
        <ele>1742</ele>
        <time>2021-08-07T08:55:32.637Z</time>
      </trkpt>
      <trkpt lat="46.9093" lon="8.6732">
        <ele>1742</ele>
        <time>2021-08-07T08:55:33.637Z</time>
      </trkpt>
      <trkpt lat="46.9093" lon="8.67318">
        <ele>1742</ele>
        <time>2021-08-07T08:55:34.637Z</time>
      </trkpt>
      <trkpt lat="46.9093" lon="8.67317">
        <ele>1742</ele>
        <time>2021-08-07T08:55:35.636Z</time>
      </trkpt>
      <trkpt lat="46.9093" lon="8.67315">
        <ele>1742</ele>
        <time>2021-08-07T08:55:36.637Z</time>
      </trkpt>
      <trkpt lat="46.9093" lon="8.67314">
        <ele>1741</ele>
        <time>2021-08-07T08:55:37.637Z</time>
      </trkpt>
      <trkpt lat="46.90931" lon="8.67312">
        <ele>1741</ele>
        <time>2021-08-07T08:55:38.637Z</time>
      </trkpt>
      <trkpt lat="46.90931" lon="8.6731">
        <ele>1740</ele>
        <time>2021-08-07T08:55:39.637Z</time>
      </trkpt>
      <trkpt lat="46.90931" lon="8.67308">
        <ele>1740</ele>
        <time>2021-08-07T08:55:40.637Z</time>
      </trkpt>
      <trkpt lat="46.90931" lon="8.67308">
        <ele>1740</ele>
        <time>2021-08-07T08:55:41.637Z</time>
      </trkpt>
      <trkpt lat="46.90932" lon="8.67307">
        <ele>1739</ele>
        <time>2021-08-07T08:55:42.637Z</time>
      </trkpt>
      <trkpt lat="46.90932" lon="8.67305">
        <ele>1739</ele>
        <time>2021-08-07T08:55:43.637Z</time>
      </trkpt>
      <trkpt lat="46.90933" lon="8.67304">
        <ele>1738</ele>
        <time>2021-08-07T08:55:44.636Z</time>
      </trkpt>
      <trkpt lat="46.90933" lon="8.67303">
        <ele>1738</ele>
        <time>2021-08-07T08:55:45.637Z</time>
      </trkpt>
      <trkpt lat="46.90932" lon="8.67302">
        <ele>1738</ele>
        <time>2021-08-07T08:55:46.637Z</time>
      </trkpt>
      <trkpt lat="46.90932" lon="8.67301">
        <ele>1737</ele>
        <time>2021-08-07T08:55:47.637Z</time>
      </trkpt>
      <trkpt lat="46.90933" lon="8.673">
        <ele>1737</ele>
        <time>2021-08-07T08:55:48.637Z</time>
      </trkpt>
      <trkpt lat="46.90933" lon="8.67298">
        <ele>1736</ele>
        <time>2021-08-07T08:55:49.637Z</time>
      </trkpt>
      <trkpt lat="46.90934" lon="8.67297">
        <ele>1736</ele>
        <time>2021-08-07T08:55:50.637Z</time>
      </trkpt>
      <trkpt lat="46.90934" lon="8.67296">
        <ele>1736</ele>
        <time>2021-08-07T08:55:51.637Z</time>
      </trkpt>
      <trkpt lat="46.90934" lon="8.67295">
        <ele>1736</ele>
        <time>2021-08-07T08:55:52.636Z</time>
      </trkpt>
      <trkpt lat="46.90934" lon="8.67295">
        <ele>1735</ele>
        <time>2021-08-07T08:55:53.637Z</time>
      </trkpt>
      <trkpt lat="46.90933" lon="8.67295">
        <ele>1735</ele>
        <time>2021-08-07T08:55:54.637Z</time>
      </trkpt>
      <trkpt lat="46.90932" lon="8.67295">
        <ele>1735</ele>
        <time>2021-08-07T08:55:55.638Z</time>
      </trkpt>
      <trkpt lat="46.90932" lon="8.67295">
        <ele>1735</ele>
        <time>2021-08-07T08:55:56.637Z</time>
      </trkpt>
      <trkpt lat="46.90931" lon="8.67296">
        <ele>1734</ele>
        <time>2021-08-07T08:55:57.637Z</time>
      </trkpt>
      <trkpt lat="46.9093" lon="8.67297">
        <ele>1731</ele>
        <time>2021-08-07T08:55:58.638Z</time>
      </trkpt>
      <trkpt lat="46.9093" lon="8.67298">
        <ele>1732</ele>
        <time>2021-08-07T08:55:59.637Z</time>
      </trkpt>
      <trkpt lat="46.9093" lon="8.67299">
        <ele>1732</ele>
        <time>2021-08-07T08:56:00.637Z</time>
      </trkpt>
      <trkpt lat="46.9093" lon="8.67299">
        <ele>1733</ele>
        <time>2021-08-07T08:56:01.637Z</time>
      </trkpt>
      <trkpt lat="46.90931" lon="8.67299">
        <ele>1734</ele>
        <time>2021-08-07T08:56:02.637Z</time>
      </trkpt>
      <trkpt lat="46.90932" lon="8.67299">
        <ele>1734</ele>
        <time>2021-08-07T08:56:03.638Z</time>
      </trkpt>
      <trkpt lat="46.90932" lon="8.67298">
        <ele>1734</ele>
        <time>2021-08-07T08:56:05.762Z</time>
      </trkpt>
      <trkpt lat="46.90932" lon="8.67298">
        <ele>1733</ele>
        <time>2021-08-07T08:56:06.763Z</time>
      </trkpt>
      <trkpt lat="46.90933" lon="8.67302">
        <ele>1728</ele>
        <time>2021-08-07T08:56:07.762Z</time>
      </trkpt>
      <trkpt lat="46.90933" lon="8.67303">
        <ele>1728</ele>
        <time>2021-08-07T08:56:08.762Z</time>
      </trkpt>
      <trkpt lat="46.90933" lon="8.67303">
        <ele>1728</ele>
        <time>2021-08-07T08:56:09.762Z</time>
      </trkpt>
      <trkpt lat="46.90931" lon="8.67304">
        <ele>1732</ele>
        <time>2021-08-07T08:56:10.762Z</time>
      </trkpt>
      <trkpt lat="46.90931" lon="8.67304">
        <ele>1732</ele>
        <time>2021-08-07T08:56:13.893Z</time>
      </trkpt>
      <trkpt lat="46.90929" lon="8.67304">
        <ele>1732</ele>
        <time>2021-08-07T08:56:14.894Z</time>
      </trkpt>
      <trkpt lat="46.9093" lon="8.67302">
        <ele>1731</ele>
        <time>2021-08-07T08:56:15.894Z</time>
      </trkpt>
      <trkpt lat="46.90933" lon="8.67297">
        <ele>1730</ele>
        <time>2021-08-07T08:56:16.895Z</time>
      </trkpt>
      <trkpt lat="46.90933" lon="8.67296">
        <ele>1730</ele>
        <time>2021-08-07T08:56:17.895Z</time>
      </trkpt>
      <trkpt lat="46.90934" lon="8.67294">
        <ele>1730</ele>
        <time>2021-08-07T08:56:18.895Z</time>
      </trkpt>
      <trkpt lat="46.90934" lon="8.67293">
        <ele>1731</ele>
        <time>2021-08-07T08:56:19.895Z</time>
      </trkpt>
      <trkpt lat="46.90935" lon="8.67292">
        <ele>1731</ele>
        <time>2021-08-07T08:56:20.895Z</time>
      </trkpt>
      <trkpt lat="46.90936" lon="8.67291">
        <ele>1732</ele>
        <time>2021-08-07T08:56:21.894Z</time>
      </trkpt>
      <trkpt lat="46.90937" lon="8.67291">
        <ele>1733</ele>
        <time>2021-08-07T08:56:22.895Z</time>
      </trkpt>
      <trkpt lat="46.90938" lon="8.6729">
        <ele>1734</ele>
        <time>2021-08-07T08:56:23.894Z</time>
      </trkpt>
      <trkpt lat="46.90939" lon="8.67289">
        <ele>1734</ele>
        <time>2021-08-07T08:56:24.894Z</time>
      </trkpt>
      <trkpt lat="46.90939" lon="8.67287">
        <ele>1734</ele>
        <time>2021-08-07T08:56:25.895Z</time>
      </trkpt>
      <trkpt lat="46.9094" lon="8.67285">
        <ele>1734</ele>
        <time>2021-08-07T08:56:26.894Z</time>
      </trkpt>
      <trkpt lat="46.9094" lon="8.67283">
        <ele>1734</ele>
        <time>2021-08-07T08:56:27.895Z</time>
      </trkpt>
      <trkpt lat="46.90941" lon="8.67282">
        <ele>1735</ele>
        <time>2021-08-07T08:56:28.895Z</time>
      </trkpt>
      <trkpt lat="46.90941" lon="8.6728">
        <ele>1735</ele>
        <time>2021-08-07T08:56:29.894Z</time>
      </trkpt>
      <trkpt lat="46.90942" lon="8.67279">
        <ele>1735</ele>
        <time>2021-08-07T08:56:30.894Z</time>
      </trkpt>
      <trkpt lat="46.90942" lon="8.67278">
        <ele>1735</ele>
        <time>2021-08-07T08:56:31.894Z</time>
      </trkpt>
      <trkpt lat="46.90943" lon="8.67277">
        <ele>1735</ele>
        <time>2021-08-07T08:56:32.895Z</time>
      </trkpt>
      <trkpt lat="46.90943" lon="8.67276">
        <ele>1735</ele>
        <time>2021-08-07T08:56:33.895Z</time>
      </trkpt>
      <trkpt lat="46.90944" lon="8.67274">
        <ele>1735</ele>
        <time>2021-08-07T08:56:34.895Z</time>
      </trkpt>
      <trkpt lat="46.90944" lon="8.67273">
        <ele>1735</ele>
        <time>2021-08-07T08:56:35.895Z</time>
      </trkpt>
      <trkpt lat="46.90944" lon="8.67272">
        <ele>1735</ele>
        <time>2021-08-07T08:56:36.895Z</time>
      </trkpt>
      <trkpt lat="46.90944" lon="8.67271">
        <ele>1735</ele>
        <time>2021-08-07T08:56:37.894Z</time>
      </trkpt>
      <trkpt lat="46.90944" lon="8.6727">
        <ele>1735</ele>
        <time>2021-08-07T08:56:38.894Z</time>
      </trkpt>
      <trkpt lat="46.90944" lon="8.67269">
        <ele>1735</ele>
        <time>2021-08-07T08:56:39.894Z</time>
      </trkpt>
      <trkpt lat="46.90944" lon="8.67269">
        <ele>1735</ele>
        <time>2021-08-07T08:56:40.894Z</time>
      </trkpt>
      <trkpt lat="46.90944" lon="8.67267">
        <ele>1737</ele>
        <time>2021-08-07T08:56:41.895Z</time>
      </trkpt>
      <trkpt lat="46.90944" lon="8.67266">
        <ele>1737</ele>
        <time>2021-08-07T08:56:42.895Z</time>
      </trkpt>
      <trkpt lat="46.90944" lon="8.67265">
        <ele>1737</ele>
        <time>2021-08-07T08:56:43.895Z</time>
      </trkpt>
      <trkpt lat="46.90944" lon="8.67264">
        <ele>1737</ele>
        <time>2021-08-07T08:56:44.894Z</time>
      </trkpt>
      <trkpt lat="46.90945" lon="8.67262">
        <ele>1737</ele>
        <time>2021-08-07T08:56:45.894Z</time>
      </trkpt>
      <trkpt lat="46.90945" lon="8.67262">
        <ele>1737</ele>
        <time>2021-08-07T08:56:46.895Z</time>
      </trkpt>
      <trkpt lat="46.90945" lon="8.67261">
        <ele>1736</ele>
        <time>2021-08-07T08:56:47.894Z</time>
      </trkpt>
      <trkpt lat="46.90945" lon="8.6726">
        <ele>1736</ele>
        <time>2021-08-07T08:56:48.895Z</time>
      </trkpt>
      <trkpt lat="46.90944" lon="8.67259">
        <ele>1735</ele>
        <time>2021-08-07T08:56:49.895Z</time>
      </trkpt>
      <trkpt lat="46.90944" lon="8.67258">
        <ele>1735</ele>
        <time>2021-08-07T08:56:50.895Z</time>
      </trkpt>
      <trkpt lat="46.90944" lon="8.67257">
        <ele>1734</ele>
        <time>2021-08-07T08:56:51.894Z</time>
      </trkpt>
      <trkpt lat="46.90943" lon="8.67256">
        <ele>1734</ele>
        <time>2021-08-07T08:56:52.894Z</time>
      </trkpt>
      <trkpt lat="46.90943" lon="8.67256">
        <ele>1734</ele>
        <time>2021-08-07T08:56:53.895Z</time>
      </trkpt>
      <trkpt lat="46.90943" lon="8.67256">
        <ele>1734</ele>
        <time>2021-08-07T08:56:54.894Z</time>
      </trkpt>
      <trkpt lat="46.90943" lon="8.67255">
        <ele>1734</ele>
        <time>2021-08-07T08:56:55.895Z</time>
      </trkpt>
      <trkpt lat="46.90942" lon="8.67253">
        <ele>1733</ele>
        <time>2021-08-07T08:56:56.895Z</time>
      </trkpt>
      <trkpt lat="46.90941" lon="8.67253">
        <ele>1733</ele>
        <time>2021-08-07T08:56:57.895Z</time>
      </trkpt>
      <trkpt lat="46.90941" lon="8.67252">
        <ele>1732</ele>
        <time>2021-08-07T08:56:58.895Z</time>
      </trkpt>
      <trkpt lat="46.90941" lon="8.6725">
        <ele>1731</ele>
        <time>2021-08-07T08:56:59.895Z</time>
      </trkpt>
      <trkpt lat="46.9094" lon="8.6725">
        <ele>1731</ele>
        <time>2021-08-07T08:57:00.895Z</time>
      </trkpt>
      <trkpt lat="46.9094" lon="8.67249">
        <ele>1731</ele>
        <time>2021-08-07T08:57:01.895Z</time>
      </trkpt>
      <trkpt lat="46.9094" lon="8.67248">
        <ele>1731</ele>
        <time>2021-08-07T08:57:02.894Z</time>
      </trkpt>
      <trkpt lat="46.9094" lon="8.67247">
        <ele>1730</ele>
        <time>2021-08-07T08:57:03.895Z</time>
      </trkpt>
      <trkpt lat="46.90939" lon="8.67247">
        <ele>1730</ele>
        <time>2021-08-07T08:57:04.895Z</time>
      </trkpt>
      <trkpt lat="46.9094" lon="8.67245">
        <ele>1730</ele>
        <time>2021-08-07T08:57:05.895Z</time>
      </trkpt>
      <trkpt lat="46.90939" lon="8.67244">
        <ele>1730</ele>
        <time>2021-08-07T08:57:06.895Z</time>
      </trkpt>
      <trkpt lat="46.90939" lon="8.67243">
        <ele>1730</ele>
        <time>2021-08-07T08:57:07.895Z</time>
      </trkpt>
      <trkpt lat="46.90938" lon="8.67242">
        <ele>1730</ele>
        <time>2021-08-07T08:57:08.895Z</time>
      </trkpt>
      <trkpt lat="46.90937" lon="8.67242">
        <ele>1730</ele>
        <time>2021-08-07T08:57:09.895Z</time>
      </trkpt>
      <trkpt lat="46.90937" lon="8.67241">
        <ele>1729</ele>
        <time>2021-08-07T08:57:10.895Z</time>
      </trkpt>
      <trkpt lat="46.90938" lon="8.67241">
        <ele>1729</ele>
        <time>2021-08-07T08:57:11.894Z</time>
      </trkpt>
      <trkpt lat="46.90938" lon="8.67241">
        <ele>1729</ele>
        <time>2021-08-07T08:57:12.894Z</time>
      </trkpt>
      <trkpt lat="46.90939" lon="8.67241">
        <ele>1729</ele>
        <time>2021-08-07T08:57:13.895Z</time>
      </trkpt>
      <trkpt lat="46.9094" lon="8.67241">
        <ele>1729</ele>
        <time>2021-08-07T08:57:14.895Z</time>
      </trkpt>
      <trkpt lat="46.9094" lon="8.67241">
        <ele>1729</ele>
        <time>2021-08-07T08:57:15.894Z</time>
      </trkpt>
      <trkpt lat="46.90941" lon="8.67241">
        <ele>1729</ele>
        <time>2021-08-07T08:57:16.895Z</time>
      </trkpt>
      <trkpt lat="46.90942" lon="8.6724">
        <ele>1729</ele>
        <time>2021-08-07T08:57:17.895Z</time>
      </trkpt>
      <trkpt lat="46.90943" lon="8.67239">
        <ele>1729</ele>
        <time>2021-08-07T08:57:18.895Z</time>
      </trkpt>
      <trkpt lat="46.90944" lon="8.67239">
        <ele>1729</ele>
        <time>2021-08-07T08:57:19.895Z</time>
      </trkpt>
      <trkpt lat="46.90945" lon="8.67239">
        <ele>1729</ele>
        <time>2021-08-07T08:57:20.895Z</time>
      </trkpt>
      <trkpt lat="46.90947" lon="8.67238">
        <ele>1730</ele>
        <time>2021-08-07T08:57:21.894Z</time>
      </trkpt>
      <trkpt lat="46.90948" lon="8.67238">
        <ele>1730</ele>
        <time>2021-08-07T08:57:22.895Z</time>
      </trkpt>
      <trkpt lat="46.90949" lon="8.67238">
        <ele>1730</ele>
        <time>2021-08-07T08:57:23.895Z</time>
      </trkpt>
      <trkpt lat="46.9095" lon="8.67238">
        <ele>1731</ele>
        <time>2021-08-07T08:57:24.895Z</time>
      </trkpt>
      <trkpt lat="46.90951" lon="8.67236">
        <ele>1730</ele>
        <time>2021-08-07T08:57:25.894Z</time>
      </trkpt>
      <trkpt lat="46.90952" lon="8.67235">
        <ele>1730</ele>
        <time>2021-08-07T08:57:26.894Z</time>
      </trkpt>
      <trkpt lat="46.90953" lon="8.67233">
        <ele>1730</ele>
        <time>2021-08-07T08:57:27.895Z</time>
      </trkpt>
      <trkpt lat="46.90953" lon="8.67232">
        <ele>1729</ele>
        <time>2021-08-07T08:57:28.895Z</time>
      </trkpt>
      <trkpt lat="46.90954" lon="8.6723">
        <ele>1729</ele>
        <time>2021-08-07T08:57:29.895Z</time>
      </trkpt>
      <trkpt lat="46.90955" lon="8.67229">
        <ele>1730</ele>
        <time>2021-08-07T08:57:30.895Z</time>
      </trkpt>
      <trkpt lat="46.90955" lon="8.67228">
        <ele>1730</ele>
        <time>2021-08-07T08:57:31.894Z</time>
      </trkpt>
      <trkpt lat="46.90956" lon="8.67226">
        <ele>1730</ele>
        <time>2021-08-07T08:57:32.895Z</time>
      </trkpt>
      <trkpt lat="46.90956" lon="8.67225">
        <ele>1729</ele>
        <time>2021-08-07T08:57:33.895Z</time>
      </trkpt>
      <trkpt lat="46.90957" lon="8.67224">
        <ele>1729</ele>
        <time>2021-08-07T08:57:34.894Z</time>
      </trkpt>
      <trkpt lat="46.90958" lon="8.67222">
        <ele>1728</ele>
        <time>2021-08-07T08:57:35.894Z</time>
      </trkpt>
      <trkpt lat="46.90959" lon="8.6722">
        <ele>1728</ele>
        <time>2021-08-07T08:57:36.894Z</time>
      </trkpt>
      <trkpt lat="46.9096" lon="8.67219">
        <ele>1727</ele>
        <time>2021-08-07T08:57:37.894Z</time>
      </trkpt>
      <trkpt lat="46.9096" lon="8.67218">
        <ele>1727</ele>
        <time>2021-08-07T08:57:38.894Z</time>
      </trkpt>
      <trkpt lat="46.90961" lon="8.67218">
        <ele>1727</ele>
        <time>2021-08-07T08:57:39.894Z</time>
      </trkpt>
      <trkpt lat="46.90962" lon="8.67217">
        <ele>1727</ele>
        <time>2021-08-07T08:57:40.894Z</time>
      </trkpt>
      <trkpt lat="46.90962" lon="8.67216">
        <ele>1727</ele>
        <time>2021-08-07T08:57:41.894Z</time>
      </trkpt>
      <trkpt lat="46.90962" lon="8.67214">
        <ele>1727</ele>
        <time>2021-08-07T08:57:42.894Z</time>
      </trkpt>
      <trkpt lat="46.90961" lon="8.67213">
        <ele>1726</ele>
        <time>2021-08-07T08:57:43.894Z</time>
      </trkpt>
      <trkpt lat="46.9096" lon="8.67212">
        <ele>1725</ele>
        <time>2021-08-07T08:57:44.894Z</time>
      </trkpt>
      <trkpt lat="46.90959" lon="8.6721">
        <ele>1724</ele>
        <time>2021-08-07T08:57:45.894Z</time>
      </trkpt>
      <trkpt lat="46.90958" lon="8.67209">
        <ele>1723</ele>
        <time>2021-08-07T08:57:46.894Z</time>
      </trkpt>
      <trkpt lat="46.90957" lon="8.67207">
        <ele>1721</ele>
        <time>2021-08-07T08:57:47.894Z</time>
      </trkpt>
      <trkpt lat="46.90956" lon="8.67206">
        <ele>1720</ele>
        <time>2021-08-07T08:57:48.895Z</time>
      </trkpt>
      <trkpt lat="46.90955" lon="8.67205">
        <ele>1719</ele>
        <time>2021-08-07T08:57:49.894Z</time>
      </trkpt>
      <trkpt lat="46.90953" lon="8.67204">
        <ele>1718</ele>
        <time>2021-08-07T08:57:50.894Z</time>
      </trkpt>
      <trkpt lat="46.90951" lon="8.67203">
        <ele>1716</ele>
        <time>2021-08-07T08:57:51.895Z</time>
      </trkpt>
      <trkpt lat="46.9095" lon="8.67203">
        <ele>1715</ele>
        <time>2021-08-07T08:57:52.894Z</time>
      </trkpt>
      <trkpt lat="46.90949" lon="8.67202">
        <ele>1714</ele>
        <time>2021-08-07T08:57:53.894Z</time>
      </trkpt>
      <trkpt lat="46.90949" lon="8.67201">
        <ele>1714</ele>
        <time>2021-08-07T08:57:54.894Z</time>
      </trkpt>
      <trkpt lat="46.90949" lon="8.672">
        <ele>1713</ele>
        <time>2021-08-07T08:57:55.895Z</time>
      </trkpt>
      <trkpt lat="46.90949" lon="8.67198">
        <ele>1713</ele>
        <time>2021-08-07T08:57:56.895Z</time>
      </trkpt>
      <trkpt lat="46.90947" lon="8.67197">
        <ele>1712</ele>
        <time>2021-08-07T08:57:57.895Z</time>
      </trkpt>
      <trkpt lat="46.90946" lon="8.67196">
        <ele>1712</ele>
        <time>2021-08-07T08:57:58.895Z</time>
      </trkpt>
      <trkpt lat="46.90945" lon="8.67195">
        <ele>1711</ele>
        <time>2021-08-07T08:57:59.895Z</time>
      </trkpt>
      <trkpt lat="46.90945" lon="8.67194">
        <ele>1711</ele>
        <time>2021-08-07T08:58:00.894Z</time>
      </trkpt>
      <trkpt lat="46.90944" lon="8.67193">
        <ele>1710</ele>
        <time>2021-08-07T08:58:01.894Z</time>
      </trkpt>
      <trkpt lat="46.90943" lon="8.67191">
        <ele>1709</ele>
        <time>2021-08-07T08:58:02.895Z</time>
      </trkpt>
      <trkpt lat="46.90943" lon="8.6719">
        <ele>1708</ele>
        <time>2021-08-07T08:58:10.038Z</time>
      </trkpt>
      <trkpt lat="46.90942" lon="8.67189">
        <ele>1708</ele>
        <time>2021-08-07T08:58:11.037Z</time>
      </trkpt>
      <trkpt lat="46.90942" lon="8.67188">
        <ele>1707</ele>
        <time>2021-08-07T08:58:12.037Z</time>
      </trkpt>
      <trkpt lat="46.90941" lon="8.67187">
        <ele>1707</ele>
        <time>2021-08-07T08:58:13.038Z</time>
      </trkpt>
      <trkpt lat="46.9094" lon="8.67186">
        <ele>1707</ele>
        <time>2021-08-07T08:58:14.037Z</time>
      </trkpt>
      <trkpt lat="46.90939" lon="8.67185">
        <ele>1707</ele>
        <time>2021-08-07T08:58:15.037Z</time>
      </trkpt>
      <trkpt lat="46.90939" lon="8.67184">
        <ele>1707</ele>
        <time>2021-08-07T08:58:16.037Z</time>
      </trkpt>
      <trkpt lat="46.90938" lon="8.67183">
        <ele>1707</ele>
        <time>2021-08-07T08:58:17.037Z</time>
      </trkpt>
      <trkpt lat="46.90938" lon="8.67182">
        <ele>1706</ele>
        <time>2021-08-07T08:58:27.153Z</time>
      </trkpt>
      <trkpt lat="46.90937" lon="8.67181">
        <ele>1707</ele>
        <time>2021-08-07T08:58:28.154Z</time>
      </trkpt>
      <trkpt lat="46.90936" lon="8.6718">
        <ele>1706</ele>
        <time>2021-08-07T08:58:29.153Z</time>
      </trkpt>
      <trkpt lat="46.90935" lon="8.6718">
        <ele>1706</ele>
        <time>2021-08-07T08:58:30.153Z</time>
      </trkpt>
      <trkpt lat="46.90935" lon="8.67179">
        <ele>1705</ele>
        <time>2021-08-07T08:58:31.154Z</time>
      </trkpt>
      <trkpt lat="46.90935" lon="8.67177">
        <ele>1704</ele>
        <time>2021-08-07T08:58:32.153Z</time>
      </trkpt>
      <trkpt lat="46.90934" lon="8.67175">
        <ele>1704</ele>
        <time>2021-08-07T08:58:33.153Z</time>
      </trkpt>
      <trkpt lat="46.90933" lon="8.67174">
        <ele>1704</ele>
        <time>2021-08-07T08:58:34.154Z</time>
      </trkpt>
      <trkpt lat="46.90932" lon="8.67174">
        <ele>1703</ele>
        <time>2021-08-07T08:58:35.154Z</time>
      </trkpt>
      <trkpt lat="46.90931" lon="8.67173">
        <ele>1703</ele>
        <time>2021-08-07T08:58:36.154Z</time>
      </trkpt>
      <trkpt lat="46.90929" lon="8.67173">
        <ele>1702</ele>
        <time>2021-08-07T08:58:37.154Z</time>
      </trkpt>
      <trkpt lat="46.90928" lon="8.67173">
        <ele>1702</ele>
        <time>2021-08-07T08:58:38.154Z</time>
      </trkpt>
      <trkpt lat="46.90926" lon="8.67171">
        <ele>1702</ele>
        <time>2021-08-07T08:58:39.154Z</time>
      </trkpt>
      <trkpt lat="46.90925" lon="8.6717">
        <ele>1702</ele>
        <time>2021-08-07T08:58:40.154Z</time>
      </trkpt>
      <trkpt lat="46.90923" lon="8.6717">
        <ele>1702</ele>
        <time>2021-08-07T08:58:41.154Z</time>
      </trkpt>
      <trkpt lat="46.90922" lon="8.6717">
        <ele>1701</ele>
        <time>2021-08-07T08:58:42.153Z</time>
      </trkpt>
      <trkpt lat="46.90921" lon="8.67169">
        <ele>1701</ele>
        <time>2021-08-07T08:58:43.154Z</time>
      </trkpt>
      <trkpt lat="46.9092" lon="8.67169">
        <ele>1701</ele>
        <time>2021-08-07T08:58:44.154Z</time>
      </trkpt>
      <trkpt lat="46.90918" lon="8.67168">
        <ele>1701</ele>
        <time>2021-08-07T08:58:45.153Z</time>
      </trkpt>
      <trkpt lat="46.90917" lon="8.67169">
        <ele>1701</ele>
        <time>2021-08-07T08:58:46.154Z</time>
      </trkpt>
      <trkpt lat="46.90916" lon="8.67169">
        <ele>1701</ele>
        <time>2021-08-07T08:58:47.154Z</time>
      </trkpt>
      <trkpt lat="46.90915" lon="8.67169">
        <ele>1701</ele>
        <time>2021-08-07T08:58:48.154Z</time>
      </trkpt>
      <trkpt lat="46.90914" lon="8.67168">
        <ele>1701</ele>
        <time>2021-08-07T08:58:49.154Z</time>
      </trkpt>
      <trkpt lat="46.90913" lon="8.67168">
        <ele>1701</ele>
        <time>2021-08-07T08:58:50.154Z</time>
      </trkpt>
      <trkpt lat="46.90912" lon="8.67167">
        <ele>1701</ele>
        <time>2021-08-07T08:58:51.154Z</time>
      </trkpt>
      <trkpt lat="46.90911" lon="8.67166">
        <ele>1700</ele>
        <time>2021-08-07T08:58:52.154Z</time>
      </trkpt>
      <trkpt lat="46.9091" lon="8.67166">
        <ele>1700</ele>
        <time>2021-08-07T08:58:53.153Z</time>
      </trkpt>
      <trkpt lat="46.90909" lon="8.67165">
        <ele>1700</ele>
        <time>2021-08-07T08:58:54.154Z</time>
      </trkpt>
      <trkpt lat="46.90909" lon="8.67165">
        <ele>1700</ele>
        <time>2021-08-07T08:58:55.153Z</time>
      </trkpt>
      <trkpt lat="46.90908" lon="8.67164">
        <ele>1700</ele>
        <time>2021-08-07T08:58:56.153Z</time>
      </trkpt>
      <trkpt lat="46.90907" lon="8.67163">
        <ele>1700</ele>
        <time>2021-08-07T08:58:57.153Z</time>
      </trkpt>
      <trkpt lat="46.90906" lon="8.67162">
        <ele>1699</ele>
        <time>2021-08-07T08:58:58.154Z</time>
      </trkpt>
      <trkpt lat="46.90905" lon="8.67161">
        <ele>1699</ele>
        <time>2021-08-07T08:58:59.154Z</time>
      </trkpt>
      <trkpt lat="46.90905" lon="8.6716">
        <ele>1699</ele>
        <time>2021-08-07T08:59:00.154Z</time>
      </trkpt>
      <trkpt lat="46.90904" lon="8.67159">
        <ele>1699</ele>
        <time>2021-08-07T08:59:01.154Z</time>
      </trkpt>
      <trkpt lat="46.90904" lon="8.67157">
        <ele>1699</ele>
        <time>2021-08-07T08:59:02.154Z</time>
      </trkpt>
      <trkpt lat="46.90903" lon="8.67157">
        <ele>1699</ele>
        <time>2021-08-07T08:59:03.154Z</time>
      </trkpt>
      <trkpt lat="46.90902" lon="8.67156">
        <ele>1699</ele>
        <time>2021-08-07T08:59:04.154Z</time>
      </trkpt>
      <trkpt lat="46.90902" lon="8.67154">
        <ele>1699</ele>
        <time>2021-08-07T08:59:05.153Z</time>
      </trkpt>
      <trkpt lat="46.90901" lon="8.67153">
        <ele>1699</ele>
        <time>2021-08-07T08:59:06.154Z</time>
      </trkpt>
      <trkpt lat="46.909" lon="8.67152">
        <ele>1699</ele>
        <time>2021-08-07T08:59:07.154Z</time>
      </trkpt>
      <trkpt lat="46.909" lon="8.67151">
        <ele>1699</ele>
        <time>2021-08-07T08:59:08.154Z</time>
      </trkpt>
      <trkpt lat="46.90899" lon="8.67151">
        <ele>1698</ele>
        <time>2021-08-07T08:59:09.154Z</time>
      </trkpt>
      <trkpt lat="46.90898" lon="8.6715">
        <ele>1698</ele>
        <time>2021-08-07T08:59:10.154Z</time>
      </trkpt>
      <trkpt lat="46.90898" lon="8.67148">
        <ele>1698</ele>
        <time>2021-08-07T08:59:11.154Z</time>
      </trkpt>
      <trkpt lat="46.90897" lon="8.67146">
        <ele>1698</ele>
        <time>2021-08-07T08:59:12.154Z</time>
      </trkpt>
      <trkpt lat="46.90897" lon="8.67145">
        <ele>1697</ele>
        <time>2021-08-07T08:59:13.154Z</time>
      </trkpt>
      <trkpt lat="46.90897" lon="8.67143">
        <ele>1697</ele>
        <time>2021-08-07T08:59:14.153Z</time>
      </trkpt>
      <trkpt lat="46.90896" lon="8.67142">
        <ele>1696</ele>
        <time>2021-08-07T08:59:15.154Z</time>
      </trkpt>
      <trkpt lat="46.90896" lon="8.67142">
        <ele>1695</ele>
        <time>2021-08-07T08:59:16.154Z</time>
      </trkpt>
      <trkpt lat="46.90895" lon="8.67141">
        <ele>1694</ele>
        <time>2021-08-07T08:59:17.154Z</time>
      </trkpt>
      <trkpt lat="46.90894" lon="8.6714">
        <ele>1694</ele>
        <time>2021-08-07T08:59:18.154Z</time>
      </trkpt>
      <trkpt lat="46.90893" lon="8.6714">
        <ele>1694</ele>
        <time>2021-08-07T08:59:19.153Z</time>
      </trkpt>
      <trkpt lat="46.90892" lon="8.67139">
        <ele>1693</ele>
        <time>2021-08-07T08:59:20.154Z</time>
      </trkpt>
      <trkpt lat="46.90891" lon="8.67137">
        <ele>1693</ele>
        <time>2021-08-07T08:59:21.153Z</time>
      </trkpt>
      <trkpt lat="46.9089" lon="8.67136">
        <ele>1693</ele>
        <time>2021-08-07T08:59:22.154Z</time>
      </trkpt>
      <trkpt lat="46.90889" lon="8.67135">
        <ele>1692</ele>
        <time>2021-08-07T08:59:23.154Z</time>
      </trkpt>
      <trkpt lat="46.90888" lon="8.67133">
        <ele>1692</ele>
        <time>2021-08-07T08:59:24.154Z</time>
      </trkpt>
      <trkpt lat="46.90887" lon="8.67132">
        <ele>1692</ele>
        <time>2021-08-07T08:59:25.154Z</time>
      </trkpt>
      <trkpt lat="46.90886" lon="8.67131">
        <ele>1691</ele>
        <time>2021-08-07T08:59:26.154Z</time>
      </trkpt>
      <trkpt lat="46.90886" lon="8.6713">
        <ele>1690</ele>
        <time>2021-08-07T08:59:27.154Z</time>
      </trkpt>
      <trkpt lat="46.90885" lon="8.67129">
        <ele>1690</ele>
        <time>2021-08-07T08:59:28.154Z</time>
      </trkpt>
      <trkpt lat="46.90884" lon="8.67128">
        <ele>1690</ele>
        <time>2021-08-07T08:59:29.153Z</time>
      </trkpt>
      <trkpt lat="46.90883" lon="8.67126">
        <ele>1689</ele>
        <time>2021-08-07T08:59:30.154Z</time>
      </trkpt>
      <trkpt lat="46.90883" lon="8.67125">
        <ele>1689</ele>
        <time>2021-08-07T08:59:31.154Z</time>
      </trkpt>
      <trkpt lat="46.90882" lon="8.67124">
        <ele>1689</ele>
        <time>2021-08-07T08:59:32.154Z</time>
      </trkpt>
      <trkpt lat="46.90881" lon="8.67123">
        <ele>1689</ele>
        <time>2021-08-07T08:59:33.154Z</time>
      </trkpt>
      <trkpt lat="46.90881" lon="8.67122">
        <ele>1688</ele>
        <time>2021-08-07T08:59:34.154Z</time>
      </trkpt>
      <trkpt lat="46.9088" lon="8.67121">
        <ele>1687</ele>
        <time>2021-08-07T08:59:35.154Z</time>
      </trkpt>
      <trkpt lat="46.9088" lon="8.6712">
        <ele>1687</ele>
        <time>2021-08-07T08:59:36.154Z</time>
      </trkpt>
      <trkpt lat="46.90879" lon="8.67119">
        <ele>1688</ele>
        <time>2021-08-07T08:59:37.154Z</time>
      </trkpt>
      <trkpt lat="46.90879" lon="8.67118">
        <ele>1688</ele>
        <time>2021-08-07T08:59:38.154Z</time>
      </trkpt>
      <trkpt lat="46.90878" lon="8.67118">
        <ele>1688</ele>
        <time>2021-08-07T08:59:39.154Z</time>
      </trkpt>
      <trkpt lat="46.90878" lon="8.67118">
        <ele>1688</ele>
        <time>2021-08-07T08:59:40.153Z</time>
      </trkpt>
      <trkpt lat="46.90878" lon="8.67116">
        <ele>1685</ele>
        <time>2021-08-07T08:59:41.155Z</time>
      </trkpt>
      <trkpt lat="46.90879" lon="8.67115">
        <ele>1685</ele>
        <time>2021-08-07T08:59:42.155Z</time>
      </trkpt>
      <trkpt lat="46.90876" lon="8.67121">
        <ele>1688</ele>
        <time>2021-08-07T08:59:43.155Z</time>
      </trkpt>
      <trkpt lat="46.90875" lon="8.67121">
        <ele>1689</ele>
        <time>2021-08-07T08:59:44.155Z</time>
      </trkpt>
      <trkpt lat="46.90875" lon="8.67121">
        <ele>1689</ele>
        <time>2021-08-07T08:59:45.156Z</time>
      </trkpt>
      <trkpt lat="46.90875" lon="8.67122">
        <ele>1690</ele>
        <time>2021-08-07T08:59:46.157Z</time>
      </trkpt>
      <trkpt lat="46.90875" lon="8.67122">
        <ele>1689</ele>
        <time>2021-08-07T08:59:47.157Z</time>
      </trkpt>
      <trkpt lat="46.90875" lon="8.67121">
        <ele>1689</ele>
        <time>2021-08-07T08:59:48.156Z</time>
      </trkpt>
      <trkpt lat="46.90875" lon="8.67122">
        <ele>1688</ele>
        <time>2021-08-07T08:59:49.157Z</time>
      </trkpt>
      <trkpt lat="46.90874" lon="8.67122">
        <ele>1687</ele>
        <time>2021-08-07T08:59:50.156Z</time>
      </trkpt>
      <trkpt lat="46.90873" lon="8.67123">
        <ele>1687</ele>
        <time>2021-08-07T08:59:51.157Z</time>
      </trkpt>
      <trkpt lat="46.90873" lon="8.67124">
        <ele>1687</ele>
        <time>2021-08-07T08:59:52.157Z</time>
      </trkpt>
      <trkpt lat="46.90873" lon="8.67124">
        <ele>1691</ele>
        <time>2021-08-07T08:59:53.158Z</time>
      </trkpt>
      <trkpt lat="46.90872" lon="8.67121">
        <ele>1691</ele>
        <time>2021-08-07T08:59:54.157Z</time>
      </trkpt>
      <trkpt lat="46.90872" lon="8.67119">
        <ele>1692</ele>
        <time>2021-08-07T08:59:55.157Z</time>
      </trkpt>
      <trkpt lat="46.90872" lon="8.67116">
        <ele>1692</ele>
        <time>2021-08-07T08:59:56.157Z</time>
      </trkpt>
      <trkpt lat="46.90872" lon="8.67115">
        <ele>1692</ele>
        <time>2021-08-07T08:59:57.158Z</time>
      </trkpt>
      <trkpt lat="46.90871" lon="8.67113">
        <ele>1692</ele>
        <time>2021-08-07T08:59:58.157Z</time>
      </trkpt>
      <trkpt lat="46.90871" lon="8.67111">
        <ele>1692</ele>
        <time>2021-08-07T08:59:59.157Z</time>
      </trkpt>
      <trkpt lat="46.9087" lon="8.67109">
        <ele>1692</ele>
        <time>2021-08-07T09:00:00.157Z</time>
      </trkpt>
      <trkpt lat="46.9087" lon="8.67108">
        <ele>1692</ele>
        <time>2021-08-07T09:00:01.157Z</time>
      </trkpt>
      <trkpt lat="46.90869" lon="8.67106">
        <ele>1692</ele>
        <time>2021-08-07T09:00:02.157Z</time>
      </trkpt>
      <trkpt lat="46.90869" lon="8.67104">
        <ele>1692</ele>
        <time>2021-08-07T09:00:03.157Z</time>
      </trkpt>
      <trkpt lat="46.90869" lon="8.67103">
        <ele>1692</ele>
        <time>2021-08-07T09:00:04.157Z</time>
      </trkpt>
      <trkpt lat="46.90869" lon="8.67102">
        <ele>1692</ele>
        <time>2021-08-07T09:00:05.157Z</time>
      </trkpt>
      <trkpt lat="46.90869" lon="8.671">
        <ele>1692</ele>
        <time>2021-08-07T09:00:06.157Z</time>
      </trkpt>
      <trkpt lat="46.90868" lon="8.67098">
        <ele>1692</ele>
        <time>2021-08-07T09:00:07.157Z</time>
      </trkpt>
      <trkpt lat="46.90868" lon="8.67096">
        <ele>1692</ele>
        <time>2021-08-07T09:00:08.157Z</time>
      </trkpt>
      <trkpt lat="46.90867" lon="8.67095">
        <ele>1692</ele>
        <time>2021-08-07T09:00:14.250Z</time>
      </trkpt>
      <trkpt lat="46.90867" lon="8.67093">
        <ele>1691</ele>
        <time>2021-08-07T09:00:18.019Z</time>
      </trkpt>
      <trkpt lat="46.90866" lon="8.67092">
        <ele>1691</ele>
        <time>2021-08-07T09:00:19.019Z</time>
      </trkpt>
      <trkpt lat="46.90866" lon="8.67091">
        <ele>1691</ele>
        <time>2021-08-07T09:00:20.019Z</time>
      </trkpt>
      <trkpt lat="46.90865" lon="8.6709">
        <ele>1691</ele>
        <time>2021-08-07T09:00:28.141Z</time>
      </trkpt>
      <trkpt lat="46.90865" lon="8.67088">
        <ele>1690</ele>
        <time>2021-08-07T09:00:29.140Z</time>
      </trkpt>
      <trkpt lat="46.90864" lon="8.67087">
        <ele>1690</ele>
        <time>2021-08-07T09:00:30.140Z</time>
      </trkpt>
      <trkpt lat="46.90863" lon="8.67085">
        <ele>1690</ele>
        <time>2021-08-07T09:00:31.140Z</time>
      </trkpt>
      <trkpt lat="46.90863" lon="8.67083">
        <ele>1690</ele>
        <time>2021-08-07T09:00:32.140Z</time>
      </trkpt>
      <trkpt lat="46.90863" lon="8.67082">
        <ele>1690</ele>
        <time>2021-08-07T09:00:39.288Z</time>
      </trkpt>
      <trkpt lat="46.90863" lon="8.6708">
        <ele>1690</ele>
        <time>2021-08-07T09:00:40.289Z</time>
      </trkpt>
      <trkpt lat="46.90863" lon="8.67078">
        <ele>1690</ele>
        <time>2021-08-07T09:00:41.289Z</time>
      </trkpt>
      <trkpt lat="46.90862" lon="8.67077">
        <ele>1690</ele>
        <time>2021-08-07T09:00:42.289Z</time>
      </trkpt>
      <trkpt lat="46.9086" lon="8.67076">
        <ele>1689</ele>
        <time>2021-08-07T09:00:43.288Z</time>
      </trkpt>
      <trkpt lat="46.90859" lon="8.67074">
        <ele>1689</ele>
        <time>2021-08-07T09:00:44.288Z</time>
      </trkpt>
      <trkpt lat="46.90857" lon="8.67073">
        <ele>1689</ele>
        <time>2021-08-07T09:00:45.289Z</time>
      </trkpt>
      <trkpt lat="46.90856" lon="8.67071">
        <ele>1690</ele>
        <time>2021-08-07T09:00:46.288Z</time>
      </trkpt>
      <trkpt lat="46.90855" lon="8.6707">
        <ele>1690</ele>
        <time>2021-08-07T09:00:47.289Z</time>
      </trkpt>
      <trkpt lat="46.90855" lon="8.67068">
        <ele>1690</ele>
        <time>2021-08-07T09:00:48.289Z</time>
      </trkpt>
      <trkpt lat="46.90854" lon="8.67067">
        <ele>1690</ele>
        <time>2021-08-07T09:00:49.289Z</time>
      </trkpt>
      <trkpt lat="46.90854" lon="8.67066">
        <ele>1691</ele>
        <time>2021-08-07T09:00:50.289Z</time>
      </trkpt>
      <trkpt lat="46.90853" lon="8.67065">
        <ele>1691</ele>
        <time>2021-08-07T09:00:51.288Z</time>
      </trkpt>
      <trkpt lat="46.90853" lon="8.67064">
        <ele>1692</ele>
        <time>2021-08-07T09:00:52.288Z</time>
      </trkpt>
      <trkpt lat="46.90853" lon="8.67063">
        <ele>1692</ele>
        <time>2021-08-07T09:00:53.288Z</time>
      </trkpt>
      <trkpt lat="46.90852" lon="8.67062">
        <ele>1692</ele>
        <time>2021-08-07T09:00:54.288Z</time>
      </trkpt>
      <trkpt lat="46.90851" lon="8.6706">
        <ele>1692</ele>
        <time>2021-08-07T09:00:55.288Z</time>
      </trkpt>
      <trkpt lat="46.9085" lon="8.6706">
        <ele>1692</ele>
        <time>2021-08-07T09:00:56.288Z</time>
      </trkpt>
      <trkpt lat="46.9085" lon="8.67062">
        <ele>1692</ele>
        <time>2021-08-07T09:00:57.289Z</time>
      </trkpt>
      <trkpt lat="46.9085" lon="8.67063">
        <ele>1692</ele>
        <time>2021-08-07T09:00:58.289Z</time>
      </trkpt>
      <trkpt lat="46.9085" lon="8.67063">
        <ele>1693</ele>
        <time>2021-08-07T09:00:59.288Z</time>
      </trkpt>
      <trkpt lat="46.9085" lon="8.67063">
        <ele>1693</ele>
        <time>2021-08-07T09:01:00.288Z</time>
      </trkpt>
      <trkpt lat="46.90849" lon="8.67063">
        <ele>1693</ele>
        <time>2021-08-07T09:01:01.288Z</time>
      </trkpt>
      <trkpt lat="46.90848" lon="8.67058">
        <ele>1697</ele>
        <time>2021-08-07T09:01:05.289Z</time>
      </trkpt>
      <trkpt lat="46.90848" lon="8.67057">
        <ele>1697</ele>
        <time>2021-08-07T09:01:06.288Z</time>
      </trkpt>
      <trkpt lat="46.90848" lon="8.67057">
        <ele>1697</ele>
        <time>2021-08-07T09:01:07.288Z</time>
      </trkpt>
      <trkpt lat="46.90847" lon="8.67056">
        <ele>1696</ele>
        <time>2021-08-07T09:01:08.288Z</time>
      </trkpt>
      <trkpt lat="46.90847" lon="8.67055">
        <ele>1696</ele>
        <time>2021-08-07T09:01:09.288Z</time>
      </trkpt>
      <trkpt lat="46.90846" lon="8.67053">
        <ele>1695</ele>
        <time>2021-08-07T09:01:10.288Z</time>
      </trkpt>
      <trkpt lat="46.90846" lon="8.67052">
        <ele>1694</ele>
        <time>2021-08-07T09:01:11.289Z</time>
      </trkpt>
      <trkpt lat="46.90846" lon="8.67052">
        <ele>1694</ele>
        <time>2021-08-07T09:01:12.288Z</time>
      </trkpt>
      <trkpt lat="46.90845" lon="8.67051">
        <ele>1693</ele>
        <time>2021-08-07T09:01:13.288Z</time>
      </trkpt>
      <trkpt lat="46.90845" lon="8.6705">
        <ele>1692</ele>
        <time>2021-08-07T09:01:14.289Z</time>
      </trkpt>
      <trkpt lat="46.90844" lon="8.6705">
        <ele>1691</ele>
        <time>2021-08-07T09:01:15.288Z</time>
      </trkpt>
      <trkpt lat="46.90844" lon="8.6705">
        <ele>1691</ele>
        <time>2021-08-07T09:01:16.288Z</time>
      </trkpt>
      <trkpt lat="46.90843" lon="8.6705">
        <ele>1690</ele>
        <time>2021-08-07T09:01:17.288Z</time>
      </trkpt>
      <trkpt lat="46.90842" lon="8.6705">
        <ele>1689</ele>
        <time>2021-08-07T09:01:18.289Z</time>
      </trkpt>
      <trkpt lat="46.90842" lon="8.6705">
        <ele>1689</ele>
        <time>2021-08-07T09:01:19.288Z</time>
      </trkpt>
      <trkpt lat="46.90841" lon="8.67052">
        <ele>1688</ele>
        <time>2021-08-07T09:01:20.289Z</time>
      </trkpt>
      <trkpt lat="46.90841" lon="8.67052">
        <ele>1688</ele>
        <time>2021-08-07T09:01:21.288Z</time>
      </trkpt>
      <trkpt lat="46.90841" lon="8.67052">
        <ele>1687</ele>
        <time>2021-08-07T09:01:22.288Z</time>
      </trkpt>
      <trkpt lat="46.90841" lon="8.67052">
        <ele>1686</ele>
        <time>2021-08-07T09:01:23.289Z</time>
      </trkpt>
      <trkpt lat="46.90841" lon="8.67052">
        <ele>1684</ele>
        <time>2021-08-07T09:01:24.290Z</time>
      </trkpt>
      <trkpt lat="46.90841" lon="8.67053">
        <ele>1684</ele>
        <time>2021-08-07T09:01:25.290Z</time>
      </trkpt>
      <trkpt lat="46.90841" lon="8.67053">
        <ele>1685</ele>
        <time>2021-08-07T09:01:26.289Z</time>
      </trkpt>
      <trkpt lat="46.90841" lon="8.67053">
        <ele>1685</ele>
        <time>2021-08-07T09:01:27.289Z</time>
      </trkpt>
      <trkpt lat="46.90841" lon="8.67054">
        <ele>1685</ele>
        <time>2021-08-07T09:01:28.290Z</time>
      </trkpt>
      <trkpt lat="46.90838" lon="8.6706">
        <ele>1686</ele>
        <time>2021-08-07T09:01:29.289Z</time>
      </trkpt>
      <trkpt lat="46.90838" lon="8.67059">
        <ele>1686</ele>
        <time>2021-08-07T09:01:30.290Z</time>
      </trkpt>
      <trkpt lat="46.90838" lon="8.67058">
        <ele>1686</ele>
        <time>2021-08-07T09:01:31.289Z</time>
      </trkpt>
      <trkpt lat="46.90838" lon="8.67057">
        <ele>1685</ele>
        <time>2021-08-07T09:01:32.290Z</time>
      </trkpt>
      <trkpt lat="46.90838" lon="8.67056">
        <ele>1684</ele>
        <time>2021-08-07T09:01:33.289Z</time>
      </trkpt>
      <trkpt lat="46.90838" lon="8.67055">
        <ele>1684</ele>
        <time>2021-08-07T09:01:34.290Z</time>
      </trkpt>
      <trkpt lat="46.90837" lon="8.67054">
        <ele>1683</ele>
        <time>2021-08-07T09:01:35.290Z</time>
      </trkpt>
      <trkpt lat="46.90836" lon="8.67053">
        <ele>1683</ele>
        <time>2021-08-07T09:01:36.289Z</time>
      </trkpt>
      <trkpt lat="46.90836" lon="8.67052">
        <ele>1682</ele>
        <time>2021-08-07T09:01:37.290Z</time>
      </trkpt>
      <trkpt lat="46.90835" lon="8.67052">
        <ele>1682</ele>
        <time>2021-08-07T09:01:38.290Z</time>
      </trkpt>
      <trkpt lat="46.90835" lon="8.67051">
        <ele>1682</ele>
        <time>2021-08-07T09:01:39.290Z</time>
      </trkpt>
      <trkpt lat="46.90835" lon="8.67049">
        <ele>1681</ele>
        <time>2021-08-07T09:01:46.374Z</time>
      </trkpt>
      <trkpt lat="46.90834" lon="8.67048">
        <ele>1681</ele>
        <time>2021-08-07T09:01:47.374Z</time>
      </trkpt>
      <trkpt lat="46.90834" lon="8.67047">
        <ele>1680</ele>
        <time>2021-08-07T09:01:58.156Z</time>
      </trkpt>
      <trkpt lat="46.90834" lon="8.67046">
        <ele>1680</ele>
        <time>2021-08-07T09:01:59.156Z</time>
      </trkpt>
      <trkpt lat="46.90833" lon="8.67045">
        <ele>1679</ele>
        <time>2021-08-07T09:02:00.156Z</time>
      </trkpt>
      <trkpt lat="46.90832" lon="8.67043">
        <ele>1679</ele>
        <time>2021-08-07T09:02:01.155Z</time>
      </trkpt>
      <trkpt lat="46.90832" lon="8.67042">
        <ele>1678</ele>
        <time>2021-08-07T09:02:02.156Z</time>
      </trkpt>
      <trkpt lat="46.90832" lon="8.6704">
        <ele>1678</ele>
        <time>2021-08-07T09:02:03.156Z</time>
      </trkpt>
      <trkpt lat="46.90831" lon="8.67037">
        <ele>1678</ele>
        <time>2021-08-07T09:02:04.156Z</time>
      </trkpt>
      <trkpt lat="46.90831" lon="8.67035">
        <ele>1678</ele>
        <time>2021-08-07T09:02:05.155Z</time>
      </trkpt>
      <trkpt lat="46.90831" lon="8.67033">
        <ele>1677</ele>
        <time>2021-08-07T09:02:06.156Z</time>
      </trkpt>
      <trkpt lat="46.90832" lon="8.6703">
        <ele>1677</ele>
        <time>2021-08-07T09:02:07.156Z</time>
      </trkpt>
      <trkpt lat="46.90832" lon="8.67029">
        <ele>1677</ele>
        <time>2021-08-07T09:02:08.155Z</time>
      </trkpt>
      <trkpt lat="46.90832" lon="8.67027">
        <ele>1677</ele>
        <time>2021-08-07T09:02:09.155Z</time>
      </trkpt>
      <trkpt lat="46.90832" lon="8.67026">
        <ele>1678</ele>
        <time>2021-08-07T09:02:10.156Z</time>
      </trkpt>
      <trkpt lat="46.90832" lon="8.67024">
        <ele>1678</ele>
        <time>2021-08-07T09:02:11.156Z</time>
      </trkpt>
      <trkpt lat="46.90833" lon="8.67022">
        <ele>1678</ele>
        <time>2021-08-07T09:02:12.156Z</time>
      </trkpt>
      <trkpt lat="46.90832" lon="8.67021">
        <ele>1679</ele>
        <time>2021-08-07T09:02:13.155Z</time>
      </trkpt>
      <trkpt lat="46.90832" lon="8.67019">
        <ele>1679</ele>
        <time>2021-08-07T09:02:14.156Z</time>
      </trkpt>
      <trkpt lat="46.90832" lon="8.67017">
        <ele>1680</ele>
        <time>2021-08-07T09:02:15.156Z</time>
      </trkpt>
      <trkpt lat="46.90831" lon="8.67016">
        <ele>1680</ele>
        <time>2021-08-07T09:02:16.155Z</time>
      </trkpt>
      <trkpt lat="46.90831" lon="8.67014">
        <ele>1681</ele>
        <time>2021-08-07T09:02:17.156Z</time>
      </trkpt>
      <trkpt lat="46.90831" lon="8.67012">
        <ele>1681</ele>
        <time>2021-08-07T09:02:18.155Z</time>
      </trkpt>
      <trkpt lat="46.90831" lon="8.6701">
        <ele>1681</ele>
        <time>2021-08-07T09:02:19.155Z</time>
      </trkpt>
      <trkpt lat="46.90832" lon="8.67008">
        <ele>1681</ele>
        <time>2021-08-07T09:02:20.155Z</time>
      </trkpt>
      <trkpt lat="46.90832" lon="8.67007">
        <ele>1681</ele>
        <time>2021-08-07T09:02:21.156Z</time>
      </trkpt>
      <trkpt lat="46.90833" lon="8.67005">
        <ele>1681</ele>
        <time>2021-08-07T09:02:22.156Z</time>
      </trkpt>
      <trkpt lat="46.90833" lon="8.67004">
        <ele>1681</ele>
        <time>2021-08-07T09:02:23.156Z</time>
      </trkpt>
      <trkpt lat="46.90834" lon="8.67002">
        <ele>1681</ele>
        <time>2021-08-07T09:02:24.156Z</time>
      </trkpt>
      <trkpt lat="46.90835" lon="8.67">
        <ele>1681</ele>
        <time>2021-08-07T09:02:25.156Z</time>
      </trkpt>
      <trkpt lat="46.90835" lon="8.66998">
        <ele>1681</ele>
        <time>2021-08-07T09:02:26.156Z</time>
      </trkpt>
      <trkpt lat="46.90836" lon="8.66997">
        <ele>1681</ele>
        <time>2021-08-07T09:02:27.155Z</time>
      </trkpt>
      <trkpt lat="46.90836" lon="8.66996">
        <ele>1682</ele>
        <time>2021-08-07T09:02:28.156Z</time>
      </trkpt>
      <trkpt lat="46.90837" lon="8.66995">
        <ele>1682</ele>
        <time>2021-08-07T09:02:29.155Z</time>
      </trkpt>
      <trkpt lat="46.90838" lon="8.66994">
        <ele>1682</ele>
        <time>2021-08-07T09:02:30.155Z</time>
      </trkpt>
      <trkpt lat="46.90838" lon="8.66993">
        <ele>1682</ele>
        <time>2021-08-07T09:02:31.155Z</time>
      </trkpt>
      <trkpt lat="46.90838" lon="8.66992">
        <ele>1682</ele>
        <time>2021-08-07T09:02:32.156Z</time>
      </trkpt>
      <trkpt lat="46.90839" lon="8.66991">
        <ele>1682</ele>
        <time>2021-08-07T09:02:33.156Z</time>
      </trkpt>
      <trkpt lat="46.90839" lon="8.66989">
        <ele>1682</ele>
        <time>2021-08-07T09:02:34.155Z</time>
      </trkpt>
      <trkpt lat="46.9084" lon="8.66988">
        <ele>1682</ele>
        <time>2021-08-07T09:02:35.156Z</time>
      </trkpt>
      <trkpt lat="46.90841" lon="8.66987">
        <ele>1682</ele>
        <time>2021-08-07T09:02:36.156Z</time>
      </trkpt>
      <trkpt lat="46.90842" lon="8.66987">
        <ele>1682</ele>
        <time>2021-08-07T09:02:37.155Z</time>
      </trkpt>
      <trkpt lat="46.90842" lon="8.66986">
        <ele>1682</ele>
        <time>2021-08-07T09:02:38.156Z</time>
      </trkpt>
      <trkpt lat="46.90843" lon="8.66984">
        <ele>1681</ele>
        <time>2021-08-07T09:02:39.156Z</time>
      </trkpt>
      <trkpt lat="46.90843" lon="8.66983">
        <ele>1681</ele>
        <time>2021-08-07T09:02:40.155Z</time>
      </trkpt>
      <trkpt lat="46.90843" lon="8.66981">
        <ele>1681</ele>
        <time>2021-08-07T09:02:41.156Z</time>
      </trkpt>
      <trkpt lat="46.90843" lon="8.66979">
        <ele>1681</ele>
        <time>2021-08-07T09:02:42.156Z</time>
      </trkpt>
      <trkpt lat="46.90842" lon="8.66978">
        <ele>1681</ele>
        <time>2021-08-07T09:02:43.156Z</time>
      </trkpt>
      <trkpt lat="46.90841" lon="8.66977">
        <ele>1681</ele>
        <time>2021-08-07T09:02:44.156Z</time>
      </trkpt>
      <trkpt lat="46.90841" lon="8.66975">
        <ele>1680</ele>
        <time>2021-08-07T09:02:45.156Z</time>
      </trkpt>
      <trkpt lat="46.90839" lon="8.66974">
        <ele>1680</ele>
        <time>2021-08-07T09:02:46.156Z</time>
      </trkpt>
      <trkpt lat="46.90839" lon="8.66972">
        <ele>1680</ele>
        <time>2021-08-07T09:02:47.155Z</time>
      </trkpt>
      <trkpt lat="46.90839" lon="8.66971">
        <ele>1680</ele>
        <time>2021-08-07T09:02:48.155Z</time>
      </trkpt>
      <trkpt lat="46.90837" lon="8.66969">
        <ele>1680</ele>
        <time>2021-08-07T09:02:49.155Z</time>
      </trkpt>
      <trkpt lat="46.90836" lon="8.66967">
        <ele>1680</ele>
        <time>2021-08-07T09:02:50.156Z</time>
      </trkpt>
      <trkpt lat="46.90834" lon="8.66966">
        <ele>1680</ele>
        <time>2021-08-07T09:02:51.155Z</time>
      </trkpt>
      <trkpt lat="46.90832" lon="8.66965">
        <ele>1680</ele>
        <time>2021-08-07T09:02:52.156Z</time>
      </trkpt>
      <trkpt lat="46.90832" lon="8.66964">
        <ele>1680</ele>
        <time>2021-08-07T09:02:53.156Z</time>
      </trkpt>
      <trkpt lat="46.90832" lon="8.66963">
        <ele>1680</ele>
        <time>2021-08-07T09:02:54.156Z</time>
      </trkpt>
      <trkpt lat="46.90832" lon="8.66962">
        <ele>1681</ele>
        <time>2021-08-07T09:02:55.156Z</time>
      </trkpt>
      <trkpt lat="46.90832" lon="8.6696">
        <ele>1681</ele>
        <time>2021-08-07T09:02:56.155Z</time>
      </trkpt>
      <trkpt lat="46.90831" lon="8.66959">
        <ele>1681</ele>
        <time>2021-08-07T09:02:57.156Z</time>
      </trkpt>
      <trkpt lat="46.90831" lon="8.66958">
        <ele>1681</ele>
        <time>2021-08-07T09:02:58.156Z</time>
      </trkpt>
      <trkpt lat="46.90831" lon="8.66957">
        <ele>1681</ele>
        <time>2021-08-07T09:02:59.156Z</time>
      </trkpt>
      <trkpt lat="46.90832" lon="8.66956">
        <ele>1681</ele>
        <time>2021-08-07T09:03:00.156Z</time>
      </trkpt>
      <trkpt lat="46.90833" lon="8.66954">
        <ele>1681</ele>
        <time>2021-08-07T09:03:01.155Z</time>
      </trkpt>
      <trkpt lat="46.90834" lon="8.66954">
        <ele>1681</ele>
        <time>2021-08-07T09:03:02.156Z</time>
      </trkpt>
      <trkpt lat="46.90834" lon="8.66953">
        <ele>1681</ele>
        <time>2021-08-07T09:03:03.155Z</time>
      </trkpt>
      <trkpt lat="46.90834" lon="8.66953">
        <ele>1680</ele>
        <time>2021-08-07T09:03:04.155Z</time>
      </trkpt>
      <trkpt lat="46.90834" lon="8.66951">
        <ele>1680</ele>
        <time>2021-08-07T09:03:05.156Z</time>
      </trkpt>
      <trkpt lat="46.90834" lon="8.6695">
        <ele>1680</ele>
        <time>2021-08-07T09:03:06.155Z</time>
      </trkpt>
      <trkpt lat="46.90834" lon="8.66949">
        <ele>1680</ele>
        <time>2021-08-07T09:03:07.155Z</time>
      </trkpt>
      <trkpt lat="46.90833" lon="8.66946">
        <ele>1680</ele>
        <time>2021-08-07T09:03:08.157Z</time>
      </trkpt>
      <trkpt lat="46.90832" lon="8.66945">
        <ele>1681</ele>
        <time>2021-08-07T09:03:09.157Z</time>
      </trkpt>
      <trkpt lat="46.9083" lon="8.66943">
        <ele>1681</ele>
        <time>2021-08-07T09:03:10.156Z</time>
      </trkpt>
      <trkpt lat="46.90829" lon="8.6694">
        <ele>1682</ele>
        <time>2021-08-07T09:03:11.156Z</time>
      </trkpt>
      <trkpt lat="46.90828" lon="8.66938">
        <ele>1682</ele>
        <time>2021-08-07T09:03:12.157Z</time>
      </trkpt>
      <trkpt lat="46.90828" lon="8.66936">
        <ele>1682</ele>
        <time>2021-08-07T09:03:13.157Z</time>
      </trkpt>
      <trkpt lat="46.90828" lon="8.66934">
        <ele>1683</ele>
        <time>2021-08-07T09:03:14.157Z</time>
      </trkpt>
      <trkpt lat="46.90828" lon="8.66931">
        <ele>1683</ele>
        <time>2021-08-07T09:03:15.157Z</time>
      </trkpt>
      <trkpt lat="46.90828" lon="8.6693">
        <ele>1683</ele>
        <time>2021-08-07T09:03:16.156Z</time>
      </trkpt>
      <trkpt lat="46.90829" lon="8.66928">
        <ele>1683</ele>
        <time>2021-08-07T09:03:17.156Z</time>
      </trkpt>
      <trkpt lat="46.9083" lon="8.66926">
        <ele>1683</ele>
        <time>2021-08-07T09:03:18.157Z</time>
      </trkpt>
      <trkpt lat="46.9083" lon="8.66925">
        <ele>1683</ele>
        <time>2021-08-07T09:03:19.157Z</time>
      </trkpt>
      <trkpt lat="46.90831" lon="8.66924">
        <ele>1684</ele>
        <time>2021-08-07T09:03:20.156Z</time>
      </trkpt>
      <trkpt lat="46.90832" lon="8.66923">
        <ele>1684</ele>
        <time>2021-08-07T09:03:21.157Z</time>
      </trkpt>
      <trkpt lat="46.90833" lon="8.66922">
        <ele>1684</ele>
        <time>2021-08-07T09:03:22.157Z</time>
      </trkpt>
      <trkpt lat="46.90833" lon="8.66921">
        <ele>1684</ele>
        <time>2021-08-07T09:03:23.157Z</time>
      </trkpt>
      <trkpt lat="46.90834" lon="8.66919">
        <ele>1684</ele>
        <time>2021-08-07T09:03:24.157Z</time>
      </trkpt>
      <trkpt lat="46.90834" lon="8.66916">
        <ele>1685</ele>
        <time>2021-08-07T09:03:25.156Z</time>
      </trkpt>
      <trkpt lat="46.90835" lon="8.66914">
        <ele>1685</ele>
        <time>2021-08-07T09:03:26.157Z</time>
      </trkpt>
      <trkpt lat="46.90835" lon="8.66912">
        <ele>1685</ele>
        <time>2021-08-07T09:03:27.157Z</time>
      </trkpt>
      <trkpt lat="46.90835" lon="8.66909">
        <ele>1685</ele>
        <time>2021-08-07T09:03:28.157Z</time>
      </trkpt>
      <trkpt lat="46.90836" lon="8.66908">
        <ele>1686</ele>
        <time>2021-08-07T09:03:29.156Z</time>
      </trkpt>
      <trkpt lat="46.90836" lon="8.66907">
        <ele>1686</ele>
        <time>2021-08-07T09:03:30.157Z</time>
      </trkpt>
      <trkpt lat="46.90837" lon="8.66906">
        <ele>1686</ele>
        <time>2021-08-07T09:03:31.157Z</time>
      </trkpt>
      <trkpt lat="46.90837" lon="8.66904">
        <ele>1686</ele>
        <time>2021-08-07T09:03:32.157Z</time>
      </trkpt>
      <trkpt lat="46.90838" lon="8.66903">
        <ele>1686</ele>
        <time>2021-08-07T09:03:33.156Z</time>
      </trkpt>
      <trkpt lat="46.90838" lon="8.66901">
        <ele>1686</ele>
        <time>2021-08-07T09:03:34.156Z</time>
      </trkpt>
      <trkpt lat="46.90839" lon="8.669">
        <ele>1686</ele>
        <time>2021-08-07T09:03:36.249Z</time>
      </trkpt>
      <trkpt lat="46.90839" lon="8.66899">
        <ele>1686</ele>
        <time>2021-08-07T09:03:37.249Z</time>
      </trkpt>
      <trkpt lat="46.90839" lon="8.66898">
        <ele>1686</ele>
        <time>2021-08-07T09:03:38.249Z</time>
      </trkpt>
      <trkpt lat="46.9084" lon="8.66897">
        <ele>1686</ele>
        <time>2021-08-07T09:03:39.249Z</time>
      </trkpt>
      <trkpt lat="46.9084" lon="8.66895">
        <ele>1686</ele>
        <time>2021-08-07T09:03:40.250Z</time>
      </trkpt>
      <trkpt lat="46.90841" lon="8.66894">
        <ele>1687</ele>
        <time>2021-08-07T09:03:41.250Z</time>
      </trkpt>
      <trkpt lat="46.90842" lon="8.66894">
        <ele>1687</ele>
        <time>2021-08-07T09:03:42.250Z</time>
      </trkpt>
      <trkpt lat="46.90843" lon="8.66893">
        <ele>1686</ele>
        <time>2021-08-07T09:03:43.249Z</time>
      </trkpt>
      <trkpt lat="46.90843" lon="8.66892">
        <ele>1686</ele>
        <time>2021-08-07T09:03:44.250Z</time>
      </trkpt>
      <trkpt lat="46.90843" lon="8.66891">
        <ele>1686</ele>
        <time>2021-08-07T09:03:45.249Z</time>
      </trkpt>
      <trkpt lat="46.90843" lon="8.66889">
        <ele>1685</ele>
        <time>2021-08-07T09:03:46.249Z</time>
      </trkpt>
      <trkpt lat="46.90844" lon="8.66887">
        <ele>1684</ele>
        <time>2021-08-07T09:03:47.250Z</time>
      </trkpt>
      <trkpt lat="46.90844" lon="8.66886">
        <ele>1683</ele>
        <time>2021-08-07T09:03:48.250Z</time>
      </trkpt>
      <trkpt lat="46.90845" lon="8.66884">
        <ele>1683</ele>
        <time>2021-08-07T09:03:49.250Z</time>
      </trkpt>
      <trkpt lat="46.90845" lon="8.66883">
        <ele>1683</ele>
        <time>2021-08-07T09:03:50.250Z</time>
      </trkpt>
      <trkpt lat="46.90845" lon="8.66881">
        <ele>1683</ele>
        <time>2021-08-07T09:03:51.250Z</time>
      </trkpt>
      <trkpt lat="46.90844" lon="8.66879">
        <ele>1682</ele>
        <time>2021-08-07T09:03:52.250Z</time>
      </trkpt>
      <trkpt lat="46.90844" lon="8.66877">
        <ele>1682</ele>
        <time>2021-08-07T09:03:53.249Z</time>
      </trkpt>
      <trkpt lat="46.90843" lon="8.66875">
        <ele>1681</ele>
        <time>2021-08-07T09:03:54.250Z</time>
      </trkpt>
      <trkpt lat="46.90843" lon="8.66874">
        <ele>1681</ele>
        <time>2021-08-07T09:03:55.249Z</time>
      </trkpt>
      <trkpt lat="46.90844" lon="8.66872">
        <ele>1681</ele>
        <time>2021-08-07T09:03:56.250Z</time>
      </trkpt>
      <trkpt lat="46.90844" lon="8.66871">
        <ele>1680</ele>
        <time>2021-08-07T09:03:57.250Z</time>
      </trkpt>
      <trkpt lat="46.90845" lon="8.66869">
        <ele>1680</ele>
        <time>2021-08-07T09:03:58.250Z</time>
      </trkpt>
      <trkpt lat="46.90846" lon="8.66869">
        <ele>1680</ele>
        <time>2021-08-07T09:03:59.250Z</time>
      </trkpt>
      <trkpt lat="46.90846" lon="8.66868">
        <ele>1681</ele>
        <time>2021-08-07T09:04:00.250Z</time>
      </trkpt>
      <trkpt lat="46.90847" lon="8.66867">
        <ele>1681</ele>
        <time>2021-08-07T09:04:01.249Z</time>
      </trkpt>
      <trkpt lat="46.90847" lon="8.66865">
        <ele>1681</ele>
        <time>2021-08-07T09:04:02.249Z</time>
      </trkpt>
      <trkpt lat="46.90847" lon="8.66864">
        <ele>1681</ele>
        <time>2021-08-07T09:04:03.249Z</time>
      </trkpt>
      <trkpt lat="46.90848" lon="8.66862">
        <ele>1681</ele>
        <time>2021-08-07T09:04:04.250Z</time>
      </trkpt>
      <trkpt lat="46.90848" lon="8.66861">
        <ele>1682</ele>
        <time>2021-08-07T09:04:05.249Z</time>
      </trkpt>
      <trkpt lat="46.90849" lon="8.66859">
        <ele>1682</ele>
        <time>2021-08-07T09:04:06.250Z</time>
      </trkpt>
      <trkpt lat="46.90849" lon="8.66858">
        <ele>1682</ele>
        <time>2021-08-07T09:04:07.250Z</time>
      </trkpt>
      <trkpt lat="46.90849" lon="8.66856">
        <ele>1682</ele>
        <time>2021-08-07T09:04:08.250Z</time>
      </trkpt>
      <trkpt lat="46.90849" lon="8.66854">
        <ele>1682</ele>
        <time>2021-08-07T09:04:09.249Z</time>
      </trkpt>
      <trkpt lat="46.90849" lon="8.66852">
        <ele>1682</ele>
        <time>2021-08-07T09:04:10.249Z</time>
      </trkpt>
      <trkpt lat="46.90849" lon="8.66851">
        <ele>1682</ele>
        <time>2021-08-07T09:04:11.250Z</time>
      </trkpt>
      <trkpt lat="46.90849" lon="8.6685">
        <ele>1682</ele>
        <time>2021-08-07T09:04:12.250Z</time>
      </trkpt>
      <trkpt lat="46.9085" lon="8.66848">
        <ele>1682</ele>
        <time>2021-08-07T09:04:13.250Z</time>
      </trkpt>
      <trkpt lat="46.9085" lon="8.66847">
        <ele>1682</ele>
        <time>2021-08-07T09:04:14.250Z</time>
      </trkpt>
      <trkpt lat="46.9085" lon="8.66846">
        <ele>1682</ele>
        <time>2021-08-07T09:04:15.250Z</time>
      </trkpt>
      <trkpt lat="46.90851" lon="8.66845">
        <ele>1681</ele>
        <time>2021-08-07T09:04:16.250Z</time>
      </trkpt>
      <trkpt lat="46.90851" lon="8.66843">
        <ele>1681</ele>
        <time>2021-08-07T09:04:17.250Z</time>
      </trkpt>
      <trkpt lat="46.90853" lon="8.66842">
        <ele>1681</ele>
        <time>2021-08-07T09:04:18.250Z</time>
      </trkpt>
      <trkpt lat="46.90854" lon="8.6684">
        <ele>1681</ele>
        <time>2021-08-07T09:04:19.249Z</time>
      </trkpt>
      <trkpt lat="46.90855" lon="8.66838">
        <ele>1681</ele>
        <time>2021-08-07T09:04:20.249Z</time>
      </trkpt>
      <trkpt lat="46.90855" lon="8.66837">
        <ele>1681</ele>
        <time>2021-08-07T09:04:21.250Z</time>
      </trkpt>
      <trkpt lat="46.90855" lon="8.66836">
        <ele>1681</ele>
        <time>2021-08-07T09:04:22.250Z</time>
      </trkpt>
      <trkpt lat="46.90855" lon="8.66835">
        <ele>1681</ele>
        <time>2021-08-07T09:04:23.249Z</time>
      </trkpt>
      <trkpt lat="46.90856" lon="8.66834">
        <ele>1680</ele>
        <time>2021-08-07T09:04:24.250Z</time>
      </trkpt>
      <trkpt lat="46.90856" lon="8.66833">
        <ele>1679</ele>
        <time>2021-08-07T09:04:25.250Z</time>
      </trkpt>
      <trkpt lat="46.90856" lon="8.66832">
        <ele>1678</ele>
        <time>2021-08-07T09:04:26.249Z</time>
      </trkpt>
      <trkpt lat="46.90856" lon="8.66831">
        <ele>1678</ele>
        <time>2021-08-07T09:04:27.250Z</time>
      </trkpt>
      <trkpt lat="46.90857" lon="8.66829">
        <ele>1677</ele>
        <time>2021-08-07T09:04:28.250Z</time>
      </trkpt>
      <trkpt lat="46.90857" lon="8.66828">
        <ele>1677</ele>
        <time>2021-08-07T09:04:29.250Z</time>
      </trkpt>
      <trkpt lat="46.90857" lon="8.66828">
        <ele>1676</ele>
        <time>2021-08-07T09:04:30.250Z</time>
      </trkpt>
      <trkpt lat="46.90857" lon="8.66827">
        <ele>1676</ele>
        <time>2021-08-07T09:04:31.250Z</time>
      </trkpt>
      <trkpt lat="46.90857" lon="8.66827">
        <ele>1676</ele>
        <time>2021-08-07T09:04:32.250Z</time>
      </trkpt>
      <trkpt lat="46.90858" lon="8.66826">
        <ele>1676</ele>
        <time>2021-08-07T09:04:33.250Z</time>
      </trkpt>
      <trkpt lat="46.90858" lon="8.66825">
        <ele>1676</ele>
        <time>2021-08-07T09:04:34.250Z</time>
      </trkpt>
      <trkpt lat="46.9086" lon="8.66823">
        <ele>1676</ele>
        <time>2021-08-07T09:04:35.250Z</time>
      </trkpt>
      <trkpt lat="46.9086" lon="8.66822">
        <ele>1676</ele>
        <time>2021-08-07T09:04:36.249Z</time>
      </trkpt>
      <trkpt lat="46.9086" lon="8.66821">
        <ele>1675</ele>
        <time>2021-08-07T09:04:37.249Z</time>
      </trkpt>
      <trkpt lat="46.9086" lon="8.6682">
        <ele>1675</ele>
        <time>2021-08-07T09:04:38.250Z</time>
      </trkpt>
      <trkpt lat="46.9086" lon="8.66818">
        <ele>1676</ele>
        <time>2021-08-07T09:04:39.250Z</time>
      </trkpt>
      <trkpt lat="46.9086" lon="8.66817">
        <ele>1676</ele>
        <time>2021-08-07T09:04:40.250Z</time>
      </trkpt>
      <trkpt lat="46.9086" lon="8.66815">
        <ele>1675</ele>
        <time>2021-08-07T09:04:41.249Z</time>
      </trkpt>
      <trkpt lat="46.9086" lon="8.66813">
        <ele>1675</ele>
        <time>2021-08-07T09:04:42.250Z</time>
      </trkpt>
      <trkpt lat="46.9086" lon="8.66812">
        <ele>1675</ele>
        <time>2021-08-07T09:04:43.250Z</time>
      </trkpt>
      <trkpt lat="46.90859" lon="8.6681">
        <ele>1674</ele>
        <time>2021-08-07T09:04:44.250Z</time>
      </trkpt>
      <trkpt lat="46.90859" lon="8.66809">
        <ele>1674</ele>
        <time>2021-08-07T09:04:45.250Z</time>
      </trkpt>
      <trkpt lat="46.90859" lon="8.66808">
        <ele>1674</ele>
        <time>2021-08-07T09:04:46.250Z</time>
      </trkpt>
      <trkpt lat="46.90859" lon="8.66806">
        <ele>1673</ele>
        <time>2021-08-07T09:04:47.250Z</time>
      </trkpt>
      <trkpt lat="46.90859" lon="8.66805">
        <ele>1673</ele>
        <time>2021-08-07T09:04:48.250Z</time>
      </trkpt>
      <trkpt lat="46.90859" lon="8.66804">
        <ele>1673</ele>
        <time>2021-08-07T09:04:49.249Z</time>
      </trkpt>
      <trkpt lat="46.90859" lon="8.66802">
        <ele>1672</ele>
        <time>2021-08-07T09:04:50.249Z</time>
      </trkpt>
      <trkpt lat="46.90859" lon="8.66801">
        <ele>1672</ele>
        <time>2021-08-07T09:04:51.250Z</time>
      </trkpt>
      <trkpt lat="46.90859" lon="8.66799">
        <ele>1671</ele>
        <time>2021-08-07T09:04:52.250Z</time>
      </trkpt>
      <trkpt lat="46.90859" lon="8.66797">
        <ele>1671</ele>
        <time>2021-08-07T09:04:54.249Z</time>
      </trkpt>
      <trkpt lat="46.90859" lon="8.66796">
        <ele>1670</ele>
        <time>2021-08-07T09:04:55.248Z</time>
      </trkpt>
      <trkpt lat="46.9086" lon="8.66795">
        <ele>1670</ele>
        <time>2021-08-07T09:04:56.249Z</time>
      </trkpt>
      <trkpt lat="46.9086" lon="8.66793">
        <ele>1669</ele>
        <time>2021-08-07T09:04:57.248Z</time>
      </trkpt>
      <trkpt lat="46.9086" lon="8.66792">
        <ele>1669</ele>
        <time>2021-08-07T09:04:58.248Z</time>
      </trkpt>
      <trkpt lat="46.9086" lon="8.6679">
        <ele>1668</ele>
        <time>2021-08-07T09:04:59.249Z</time>
      </trkpt>
      <trkpt lat="46.9086" lon="8.66789">
        <ele>1667</ele>
        <time>2021-08-07T09:05:00.248Z</time>
      </trkpt>
      <trkpt lat="46.9086" lon="8.66788">
        <ele>1667</ele>
        <time>2021-08-07T09:05:01.249Z</time>
      </trkpt>
      <trkpt lat="46.9086" lon="8.66787">
        <ele>1666</ele>
        <time>2021-08-07T09:05:02.248Z</time>
      </trkpt>
      <trkpt lat="46.9086" lon="8.66785">
        <ele>1666</ele>
        <time>2021-08-07T09:05:03.249Z</time>
      </trkpt>
      <trkpt lat="46.9086" lon="8.66784">
        <ele>1666</ele>
        <time>2021-08-07T09:05:04.249Z</time>
      </trkpt>
      <trkpt lat="46.9086" lon="8.66782">
        <ele>1665</ele>
        <time>2021-08-07T09:05:05.249Z</time>
      </trkpt>
      <trkpt lat="46.90859" lon="8.66781">
        <ele>1665</ele>
        <time>2021-08-07T09:05:06.249Z</time>
      </trkpt>
      <trkpt lat="46.90858" lon="8.6678">
        <ele>1665</ele>
        <time>2021-08-07T09:05:07.249Z</time>
      </trkpt>
      <trkpt lat="46.90857" lon="8.66778">
        <ele>1665</ele>
        <time>2021-08-07T09:05:08.248Z</time>
      </trkpt>
      <trkpt lat="46.90855" lon="8.66776">
        <ele>1665</ele>
        <time>2021-08-07T09:05:09.249Z</time>
      </trkpt>
      <trkpt lat="46.90855" lon="8.66773">
        <ele>1665</ele>
        <time>2021-08-07T09:05:10.248Z</time>
      </trkpt>
      <trkpt lat="46.90853" lon="8.66771">
        <ele>1665</ele>
        <time>2021-08-07T09:05:11.249Z</time>
      </trkpt>
      <trkpt lat="46.90852" lon="8.6677">
        <ele>1665</ele>
        <time>2021-08-07T09:05:12.248Z</time>
      </trkpt>
      <trkpt lat="46.90852" lon="8.66768">
        <ele>1665</ele>
        <time>2021-08-07T09:05:13.249Z</time>
      </trkpt>
      <trkpt lat="46.90853" lon="8.66767">
        <ele>1665</ele>
        <time>2021-08-07T09:05:14.249Z</time>
      </trkpt>
      <trkpt lat="46.90853" lon="8.66766">
        <ele>1665</ele>
        <time>2021-08-07T09:05:15.249Z</time>
      </trkpt>
      <trkpt lat="46.90853" lon="8.66765">
        <ele>1665</ele>
        <time>2021-08-07T09:05:16.249Z</time>
      </trkpt>
      <trkpt lat="46.90852" lon="8.66764">
        <ele>1665</ele>
        <time>2021-08-07T09:05:17.249Z</time>
      </trkpt>
      <trkpt lat="46.90853" lon="8.66763">
        <ele>1665</ele>
        <time>2021-08-07T09:05:18.249Z</time>
      </trkpt>
      <trkpt lat="46.90853" lon="8.66763">
        <ele>1664</ele>
        <time>2021-08-07T09:05:19.248Z</time>
      </trkpt>
      <trkpt lat="46.90854" lon="8.66762">
        <ele>1664</ele>
        <time>2021-08-07T09:05:20.249Z</time>
      </trkpt>
      <trkpt lat="46.90854" lon="8.66762">
        <ele>1663</ele>
        <time>2021-08-07T09:05:21.249Z</time>
      </trkpt>
      <trkpt lat="46.90855" lon="8.66762">
        <ele>1663</ele>
        <time>2021-08-07T09:05:22.249Z</time>
      </trkpt>
      <trkpt lat="46.90856" lon="8.66761">
        <ele>1662</ele>
        <time>2021-08-07T09:05:23.248Z</time>
      </trkpt>
      <trkpt lat="46.90858" lon="8.6676">
        <ele>1662</ele>
        <time>2021-08-07T09:05:24.249Z</time>
      </trkpt>
      <trkpt lat="46.90858" lon="8.6676">
        <ele>1661</ele>
        <time>2021-08-07T09:05:25.249Z</time>
      </trkpt>
      <trkpt lat="46.9086" lon="8.66758">
        <ele>1661</ele>
        <time>2021-08-07T09:05:26.249Z</time>
      </trkpt>
      <trkpt lat="46.90861" lon="8.66757">
        <ele>1661</ele>
        <time>2021-08-07T09:05:27.249Z</time>
      </trkpt>
      <trkpt lat="46.90862" lon="8.66755">
        <ele>1660</ele>
        <time>2021-08-07T09:05:28.248Z</time>
      </trkpt>
      <trkpt lat="46.90862" lon="8.66754">
        <ele>1660</ele>
        <time>2021-08-07T09:05:29.249Z</time>
      </trkpt>
      <trkpt lat="46.90863" lon="8.66753">
        <ele>1659</ele>
        <time>2021-08-07T09:05:30.249Z</time>
      </trkpt>
      <trkpt lat="46.90864" lon="8.66752">
        <ele>1659</ele>
        <time>2021-08-07T09:05:31.249Z</time>
      </trkpt>
      <trkpt lat="46.90865" lon="8.6675">
        <ele>1659</ele>
        <time>2021-08-07T09:05:32.249Z</time>
      </trkpt>
      <trkpt lat="46.90866" lon="8.66749">
        <ele>1659</ele>
        <time>2021-08-07T09:05:33.248Z</time>
      </trkpt>
      <trkpt lat="46.90866" lon="8.66749">
        <ele>1659</ele>
        <time>2021-08-07T09:05:34.248Z</time>
      </trkpt>
      <trkpt lat="46.90867" lon="8.66748">
        <ele>1660</ele>
        <time>2021-08-07T09:05:35.249Z</time>
      </trkpt>
      <trkpt lat="46.90868" lon="8.66748">
        <ele>1659</ele>
        <time>2021-08-07T09:05:36.249Z</time>
      </trkpt>
      <trkpt lat="46.90869" lon="8.66748">
        <ele>1659</ele>
        <time>2021-08-07T09:05:37.249Z</time>
      </trkpt>
      <trkpt lat="46.9087" lon="8.66748">
        <ele>1659</ele>
        <time>2021-08-07T09:05:38.249Z</time>
      </trkpt>
      <trkpt lat="46.9087" lon="8.66748">
        <ele>1658</ele>
        <time>2021-08-07T09:05:39.249Z</time>
      </trkpt>
      <trkpt lat="46.90871" lon="8.66748">
        <ele>1657</ele>
        <time>2021-08-07T09:05:40.249Z</time>
      </trkpt>
      <trkpt lat="46.90871" lon="8.66748">
        <ele>1657</ele>
        <time>2021-08-07T09:05:41.248Z</time>
      </trkpt>
      <trkpt lat="46.90872" lon="8.66749">
        <ele>1656</ele>
        <time>2021-08-07T09:05:42.249Z</time>
      </trkpt>
      <trkpt lat="46.90873" lon="8.66748">
        <ele>1655</ele>
        <time>2021-08-07T09:05:43.249Z</time>
      </trkpt>
      <trkpt lat="46.90874" lon="8.66748">
        <ele>1655</ele>
        <time>2021-08-07T09:05:44.249Z</time>
      </trkpt>
      <trkpt lat="46.90875" lon="8.66748">
        <ele>1655</ele>
        <time>2021-08-07T09:05:45.249Z</time>
      </trkpt>
      <trkpt lat="46.90876" lon="8.66748">
        <ele>1654</ele>
        <time>2021-08-07T09:05:46.248Z</time>
      </trkpt>
      <trkpt lat="46.90877" lon="8.66748">
        <ele>1654</ele>
        <time>2021-08-07T09:05:47.249Z</time>
      </trkpt>
      <trkpt lat="46.90877" lon="8.66748">
        <ele>1654</ele>
        <time>2021-08-07T09:05:48.249Z</time>
      </trkpt>
      <trkpt lat="46.90878" lon="8.66748">
        <ele>1653</ele>
        <time>2021-08-07T09:05:49.249Z</time>
      </trkpt>
      <trkpt lat="46.90879" lon="8.66748">
        <ele>1653</ele>
        <time>2021-08-07T09:05:50.248Z</time>
      </trkpt>
      <trkpt lat="46.90879" lon="8.66748">
        <ele>1653</ele>
        <time>2021-08-07T09:05:51.249Z</time>
      </trkpt>
      <trkpt lat="46.9088" lon="8.66747">
        <ele>1653</ele>
        <time>2021-08-07T09:05:52.248Z</time>
      </trkpt>
      <trkpt lat="46.90881" lon="8.66746">
        <ele>1653</ele>
        <time>2021-08-07T09:05:53.248Z</time>
      </trkpt>
      <trkpt lat="46.90881" lon="8.66745">
        <ele>1653</ele>
        <time>2021-08-07T09:05:54.248Z</time>
      </trkpt>
      <trkpt lat="46.90883" lon="8.66744">
        <ele>1653</ele>
        <time>2021-08-07T09:05:55.248Z</time>
      </trkpt>
      <trkpt lat="46.90883" lon="8.66743">
        <ele>1653</ele>
        <time>2021-08-07T09:05:56.249Z</time>
      </trkpt>
      <trkpt lat="46.90884" lon="8.66743">
        <ele>1653</ele>
        <time>2021-08-07T09:05:57.249Z</time>
      </trkpt>
      <trkpt lat="46.90884" lon="8.66743">
        <ele>1653</ele>
        <time>2021-08-07T09:05:58.249Z</time>
      </trkpt>
      <trkpt lat="46.90885" lon="8.66742">
        <ele>1653</ele>
        <time>2021-08-07T09:05:59.251Z</time>
      </trkpt>
      <trkpt lat="46.90885" lon="8.66742">
        <ele>1653</ele>
        <time>2021-08-07T09:06:00.250Z</time>
      </trkpt>
      <trkpt lat="46.90885" lon="8.66742">
        <ele>1653</ele>
        <time>2021-08-07T09:06:01.250Z</time>
      </trkpt>
      <trkpt lat="46.90885" lon="8.66743">
        <ele>1653</ele>
        <time>2021-08-07T09:06:02.250Z</time>
      </trkpt>
      <trkpt lat="46.90886" lon="8.66743">
        <ele>1652</ele>
        <time>2021-08-07T09:06:03.251Z</time>
      </trkpt>
      <trkpt lat="46.90886" lon="8.66743">
        <ele>1652</ele>
        <time>2021-08-07T09:06:04.250Z</time>
      </trkpt>
      <trkpt lat="46.90887" lon="8.66738">
        <ele>1653</ele>
        <time>2021-08-07T09:06:05.250Z</time>
      </trkpt>
      <trkpt lat="46.90888" lon="8.66737">
        <ele>1656</ele>
        <time>2021-08-07T09:06:06.251Z</time>
      </trkpt>
      <trkpt lat="46.90888" lon="8.66737">
        <ele>1657</ele>
        <time>2021-08-07T09:06:07.251Z</time>
      </trkpt>
      <trkpt lat="46.90888" lon="8.66737">
        <ele>1658</ele>
        <time>2021-08-07T09:06:08.251Z</time>
      </trkpt>
      <trkpt lat="46.90889" lon="8.66736">
        <ele>1659</ele>
        <time>2021-08-07T09:06:09.251Z</time>
      </trkpt>
      <trkpt lat="46.90889" lon="8.66736">
        <ele>1660</ele>
        <time>2021-08-07T09:06:10.251Z</time>
      </trkpt>
      <trkpt lat="46.90889" lon="8.66735">
        <ele>1661</ele>
        <time>2021-08-07T09:06:11.251Z</time>
      </trkpt>
      <trkpt lat="46.90889" lon="8.66735">
        <ele>1662</ele>
        <time>2021-08-07T09:06:12.250Z</time>
      </trkpt>
      <trkpt lat="46.90888" lon="8.66735">
        <ele>1663</ele>
        <time>2021-08-07T09:06:13.251Z</time>
      </trkpt>
      <trkpt lat="46.90888" lon="8.66734">
        <ele>1664</ele>
        <time>2021-08-07T09:06:14.250Z</time>
      </trkpt>
      <trkpt lat="46.90893" lon="8.66735">
        <ele>1668</ele>
        <time>2021-08-07T09:06:15.252Z</time>
      </trkpt>
      <trkpt lat="46.90893" lon="8.66735">
        <ele>1669</ele>
        <time>2021-08-07T09:06:16.252Z</time>
      </trkpt>
      <trkpt lat="46.90892" lon="8.66736">
        <ele>1669</ele>
        <time>2021-08-07T09:06:17.253Z</time>
      </trkpt>
      <trkpt lat="46.90892" lon="8.66735">
        <ele>1668</ele>
        <time>2021-08-07T09:06:18.252Z</time>
      </trkpt>
      <trkpt lat="46.90889" lon="8.66737">
        <ele>1666</ele>
        <time>2021-08-07T09:06:19.252Z</time>
      </trkpt>
      <trkpt lat="46.90888" lon="8.66738">
        <ele>1666</ele>
        <time>2021-08-07T09:06:20.253Z</time>
      </trkpt>
      <trkpt lat="46.90887" lon="8.66739">
        <ele>1666</ele>
        <time>2021-08-07T09:06:21.252Z</time>
      </trkpt>
      <trkpt lat="46.90887" lon="8.6674">
        <ele>1665</ele>
        <time>2021-08-07T09:06:22.252Z</time>
      </trkpt>
      <trkpt lat="46.90888" lon="8.6674">
        <ele>1665</ele>
        <time>2021-08-07T09:06:23.252Z</time>
      </trkpt>
      <trkpt lat="46.90888" lon="8.6674">
        <ele>1665</ele>
        <time>2021-08-07T09:06:24.252Z</time>
      </trkpt>
      <trkpt lat="46.90888" lon="8.66741">
        <ele>1654</ele>
        <time>2021-08-07T09:06:25.254Z</time>
      </trkpt>
      <trkpt lat="46.90888" lon="8.6674">
        <ele>1654</ele>
        <time>2021-08-07T09:06:26.253Z</time>
      </trkpt>
      <trkpt lat="46.90888" lon="8.66739">
        <ele>1653</ele>
        <time>2021-08-07T09:06:27.253Z</time>
      </trkpt>
      <trkpt lat="46.90888" lon="8.66738">
        <ele>1653</ele>
        <time>2021-08-07T09:06:28.254Z</time>
      </trkpt>
      <trkpt lat="46.90888" lon="8.66737">
        <ele>1652</ele>
        <time>2021-08-07T09:06:29.254Z</time>
      </trkpt>
      <trkpt lat="46.90888" lon="8.66735">
        <ele>1652</ele>
        <time>2021-08-07T09:06:30.254Z</time>
      </trkpt>
      <trkpt lat="46.90888" lon="8.66734">
        <ele>1652</ele>
        <time>2021-08-07T09:06:31.254Z</time>
      </trkpt>
      <trkpt lat="46.90889" lon="8.66733">
        <ele>1652</ele>
        <time>2021-08-07T09:06:32.253Z</time>
      </trkpt>
      <trkpt lat="46.90889" lon="8.66731">
        <ele>1651</ele>
        <time>2021-08-07T09:06:33.254Z</time>
      </trkpt>
      <trkpt lat="46.90889" lon="8.6673">
        <ele>1651</ele>
        <time>2021-08-07T09:06:34.254Z</time>
      </trkpt>
      <trkpt lat="46.90889" lon="8.66729">
        <ele>1651</ele>
        <time>2021-08-07T09:06:35.253Z</time>
      </trkpt>
      <trkpt lat="46.90889" lon="8.66727">
        <ele>1650</ele>
        <time>2021-08-07T09:06:36.253Z</time>
      </trkpt>
      <trkpt lat="46.90889" lon="8.66726">
        <ele>1650</ele>
        <time>2021-08-07T09:06:37.254Z</time>
      </trkpt>
      <trkpt lat="46.90889" lon="8.66724">
        <ele>1649</ele>
        <time>2021-08-07T09:06:38.254Z</time>
      </trkpt>
      <trkpt lat="46.9089" lon="8.66722">
        <ele>1649</ele>
        <time>2021-08-07T09:06:39.254Z</time>
      </trkpt>
      <trkpt lat="46.9089" lon="8.6672">
        <ele>1649</ele>
        <time>2021-08-07T09:06:40.254Z</time>
      </trkpt>
      <trkpt lat="46.90891" lon="8.66718">
        <ele>1649</ele>
        <time>2021-08-07T09:06:41.254Z</time>
      </trkpt>
      <trkpt lat="46.90891" lon="8.66714">
        <ele>1648</ele>
        <time>2021-08-07T09:06:42.254Z</time>
      </trkpt>
      <trkpt lat="46.90891" lon="8.66713">
        <ele>1648</ele>
        <time>2021-08-07T09:06:43.253Z</time>
      </trkpt>
      <trkpt lat="46.90891" lon="8.66711">
        <ele>1647</ele>
        <time>2021-08-07T09:06:44.253Z</time>
      </trkpt>
      <trkpt lat="46.90892" lon="8.6671">
        <ele>1647</ele>
        <time>2021-08-07T09:06:45.254Z</time>
      </trkpt>
      <trkpt lat="46.90892" lon="8.66708">
        <ele>1647</ele>
        <time>2021-08-07T09:06:46.253Z</time>
      </trkpt>
      <trkpt lat="46.90893" lon="8.66707">
        <ele>1647</ele>
        <time>2021-08-07T09:06:47.254Z</time>
      </trkpt>
      <trkpt lat="46.90893" lon="8.66705">
        <ele>1647</ele>
        <time>2021-08-07T09:06:48.254Z</time>
      </trkpt>
      <trkpt lat="46.90894" lon="8.66703">
        <ele>1647</ele>
        <time>2021-08-07T09:06:49.254Z</time>
      </trkpt>
      <trkpt lat="46.90894" lon="8.66702">
        <ele>1647</ele>
        <time>2021-08-07T09:06:50.254Z</time>
      </trkpt>
      <trkpt lat="46.90894" lon="8.667">
        <ele>1647</ele>
        <time>2021-08-07T09:06:51.253Z</time>
      </trkpt>
      <trkpt lat="46.90894" lon="8.66699">
        <ele>1646</ele>
        <time>2021-08-07T09:06:52.254Z</time>
      </trkpt>
      <trkpt lat="46.90895" lon="8.66697">
        <ele>1647</ele>
        <time>2021-08-07T09:06:53.254Z</time>
      </trkpt>
      <trkpt lat="46.90896" lon="8.66695">
        <ele>1647</ele>
        <time>2021-08-07T09:06:54.254Z</time>
      </trkpt>
      <trkpt lat="46.90897" lon="8.66693">
        <ele>1646</ele>
        <time>2021-08-07T09:06:55.253Z</time>
      </trkpt>
      <trkpt lat="46.90898" lon="8.66691">
        <ele>1646</ele>
        <time>2021-08-07T09:06:56.254Z</time>
      </trkpt>
      <trkpt lat="46.90898" lon="8.66689">
        <ele>1646</ele>
        <time>2021-08-07T09:06:57.253Z</time>
      </trkpt>
      <trkpt lat="46.90898" lon="8.66687">
        <ele>1646</ele>
        <time>2021-08-07T09:06:58.254Z</time>
      </trkpt>
      <trkpt lat="46.90898" lon="8.66686">
        <ele>1646</ele>
        <time>2021-08-07T09:06:59.254Z</time>
      </trkpt>
      <trkpt lat="46.90898" lon="8.66684">
        <ele>1646</ele>
        <time>2021-08-07T09:07:00.254Z</time>
      </trkpt>
      <trkpt lat="46.90899" lon="8.66683">
        <ele>1646</ele>
        <time>2021-08-07T09:07:01.254Z</time>
      </trkpt>
      <trkpt lat="46.90901" lon="8.66681">
        <ele>1645</ele>
        <time>2021-08-07T09:07:02.253Z</time>
      </trkpt>
      <trkpt lat="46.90902" lon="8.6668">
        <ele>1645</ele>
        <time>2021-08-07T09:07:03.253Z</time>
      </trkpt>
      <trkpt lat="46.90902" lon="8.66679">
        <ele>1645</ele>
        <time>2021-08-07T09:07:04.254Z</time>
      </trkpt>
      <trkpt lat="46.90902" lon="8.66677">
        <ele>1645</ele>
        <time>2021-08-07T09:07:05.254Z</time>
      </trkpt>
      <trkpt lat="46.90902" lon="8.66676">
        <ele>1645</ele>
        <time>2021-08-07T09:07:06.254Z</time>
      </trkpt>
      <trkpt lat="46.90902" lon="8.66674">
        <ele>1645</ele>
        <time>2021-08-07T09:07:07.253Z</time>
      </trkpt>
      <trkpt lat="46.90902" lon="8.66672">
        <ele>1645</ele>
        <time>2021-08-07T09:07:08.253Z</time>
      </trkpt>
      <trkpt lat="46.90903" lon="8.66671">
        <ele>1645</ele>
        <time>2021-08-07T09:07:10.355Z</time>
      </trkpt>
      <trkpt lat="46.90903" lon="8.66668">
        <ele>1645</ele>
        <time>2021-08-07T09:07:11.354Z</time>
      </trkpt>
      <trkpt lat="46.90903" lon="8.66667">
        <ele>1645</ele>
        <time>2021-08-07T09:07:12.354Z</time>
      </trkpt>
      <trkpt lat="46.90902" lon="8.66666">
        <ele>1645</ele>
        <time>2021-08-07T09:07:13.355Z</time>
      </trkpt>
      <trkpt lat="46.909" lon="8.66666">
        <ele>1646</ele>
        <time>2021-08-07T09:07:14.355Z</time>
      </trkpt>
      <trkpt lat="46.90899" lon="8.66666">
        <ele>1646</ele>
        <time>2021-08-07T09:07:15.354Z</time>
      </trkpt>
      <trkpt lat="46.90898" lon="8.66665">
        <ele>1646</ele>
        <time>2021-08-07T09:07:16.355Z</time>
      </trkpt>
      <trkpt lat="46.90897" lon="8.66664">
        <ele>1647</ele>
        <time>2021-08-07T09:07:17.355Z</time>
      </trkpt>
      <trkpt lat="46.90896" lon="8.66663">
        <ele>1647</ele>
        <time>2021-08-07T09:07:18.355Z</time>
      </trkpt>
      <trkpt lat="46.90895" lon="8.66662">
        <ele>1647</ele>
        <time>2021-08-07T09:07:19.355Z</time>
      </trkpt>
      <trkpt lat="46.90895" lon="8.66661">
        <ele>1647</ele>
        <time>2021-08-07T09:07:20.354Z</time>
      </trkpt>
      <trkpt lat="46.90895" lon="8.6666">
        <ele>1647</ele>
        <time>2021-08-07T09:07:21.354Z</time>
      </trkpt>
      <trkpt lat="46.90894" lon="8.66659">
        <ele>1648</ele>
        <time>2021-08-07T09:07:22.355Z</time>
      </trkpt>
      <trkpt lat="46.90894" lon="8.66659">
        <ele>1648</ele>
        <time>2021-08-07T09:07:23.355Z</time>
      </trkpt>
      <trkpt lat="46.90893" lon="8.66659">
        <ele>1648</ele>
        <time>2021-08-07T09:07:24.354Z</time>
      </trkpt>
      <trkpt lat="46.90891" lon="8.66658">
        <ele>1648</ele>
        <time>2021-08-07T09:07:25.355Z</time>
      </trkpt>
      <trkpt lat="46.90891" lon="8.66658">
        <ele>1648</ele>
        <time>2021-08-07T09:07:26.355Z</time>
      </trkpt>
      <trkpt lat="46.90889" lon="8.66657">
        <ele>1648</ele>
        <time>2021-08-07T09:07:27.354Z</time>
      </trkpt>
      <trkpt lat="46.90887" lon="8.66656">
        <ele>1648</ele>
        <time>2021-08-07T09:07:28.355Z</time>
      </trkpt>
      <trkpt lat="46.90886" lon="8.66655">
        <ele>1647</ele>
        <time>2021-08-07T09:07:29.354Z</time>
      </trkpt>
      <trkpt lat="46.90886" lon="8.66654">
        <ele>1647</ele>
        <time>2021-08-07T09:07:30.355Z</time>
      </trkpt>
      <trkpt lat="46.90885" lon="8.66654">
        <ele>1646</ele>
        <time>2021-08-07T09:07:31.354Z</time>
      </trkpt>
      <trkpt lat="46.90884" lon="8.66654">
        <ele>1646</ele>
        <time>2021-08-07T09:07:32.354Z</time>
      </trkpt>
      <trkpt lat="46.90883" lon="8.66654">
        <ele>1646</ele>
        <time>2021-08-07T09:07:33.355Z</time>
      </trkpt>
      <trkpt lat="46.90882" lon="8.66654">
        <ele>1646</ele>
        <time>2021-08-07T09:07:34.355Z</time>
      </trkpt>
      <trkpt lat="46.90881" lon="8.66653">
        <ele>1646</ele>
        <time>2021-08-07T09:07:35.354Z</time>
      </trkpt>
      <trkpt lat="46.9088" lon="8.66653">
        <ele>1646</ele>
        <time>2021-08-07T09:07:36.355Z</time>
      </trkpt>
      <trkpt lat="46.90879" lon="8.66653">
        <ele>1646</ele>
        <time>2021-08-07T09:07:37.354Z</time>
      </trkpt>
      <trkpt lat="46.90879" lon="8.66653">
        <ele>1645</ele>
        <time>2021-08-07T09:07:38.355Z</time>
      </trkpt>
      <trkpt lat="46.90878" lon="8.66653">
        <ele>1645</ele>
        <time>2021-08-07T09:07:39.355Z</time>
      </trkpt>
      <trkpt lat="46.90877" lon="8.66652">
        <ele>1645</ele>
        <time>2021-08-07T09:07:40.354Z</time>
      </trkpt>
      <trkpt lat="46.90877" lon="8.66651">
        <ele>1645</ele>
        <time>2021-08-07T09:07:41.355Z</time>
      </trkpt>
      <trkpt lat="46.90877" lon="8.66652">
        <ele>1645</ele>
        <time>2021-08-07T09:07:42.354Z</time>
      </trkpt>
      <trkpt lat="46.90876" lon="8.66653">
        <ele>1644</ele>
        <time>2021-08-07T09:07:43.354Z</time>
      </trkpt>
      <trkpt lat="46.90876" lon="8.66653">
        <ele>1644</ele>
        <time>2021-08-07T09:07:44.355Z</time>
      </trkpt>
      <trkpt lat="46.90875" lon="8.66654">
        <ele>1644</ele>
        <time>2021-08-07T09:07:45.355Z</time>
      </trkpt>
      <trkpt lat="46.90876" lon="8.66655">
        <ele>1644</ele>
        <time>2021-08-07T09:07:46.355Z</time>
      </trkpt>
      <trkpt lat="46.90876" lon="8.66655">
        <ele>1644</ele>
        <time>2021-08-07T09:07:47.354Z</time>
      </trkpt>
      <trkpt lat="46.90878" lon="8.66652">
        <ele>1643</ele>
        <time>2021-08-07T09:07:53.444Z</time>
      </trkpt>
      <trkpt lat="46.90879" lon="8.66649">
        <ele>1643</ele>
        <time>2021-08-07T09:07:54.444Z</time>
      </trkpt>
      <trkpt lat="46.9088" lon="8.66647">
        <ele>1643</ele>
        <time>2021-08-07T09:07:55.445Z</time>
      </trkpt>
      <trkpt lat="46.9088" lon="8.66647">
        <ele>1643</ele>
        <time>2021-08-07T09:07:56.445Z</time>
      </trkpt>
      <trkpt lat="46.90881" lon="8.66647">
        <ele>1643</ele>
        <time>2021-08-07T09:07:57.445Z</time>
      </trkpt>
      <trkpt lat="46.90881" lon="8.66647">
        <ele>1642</ele>
        <time>2021-08-07T09:07:58.444Z</time>
      </trkpt>
      <trkpt lat="46.90881" lon="8.66648">
        <ele>1642</ele>
        <time>2021-08-07T09:07:59.445Z</time>
      </trkpt>
      <trkpt lat="46.90882" lon="8.66648">
        <ele>1642</ele>
        <time>2021-08-07T09:08:00.445Z</time>
      </trkpt>
      <trkpt lat="46.90883" lon="8.66648">
        <ele>1641</ele>
        <time>2021-08-07T09:08:01.444Z</time>
      </trkpt>
      <trkpt lat="46.90884" lon="8.66648">
        <ele>1641</ele>
        <time>2021-08-07T09:08:02.445Z</time>
      </trkpt>
      <trkpt lat="46.90886" lon="8.66648">
        <ele>1640</ele>
        <time>2021-08-07T09:08:03.444Z</time>
      </trkpt>
      <trkpt lat="46.90887" lon="8.66648">
        <ele>1639</ele>
        <time>2021-08-07T09:08:04.444Z</time>
      </trkpt>
      <trkpt lat="46.90887" lon="8.66648">
        <ele>1639</ele>
        <time>2021-08-07T09:08:05.445Z</time>
      </trkpt>
      <trkpt lat="46.90888" lon="8.66647">
        <ele>1639</ele>
        <time>2021-08-07T09:08:06.445Z</time>
      </trkpt>
      <trkpt lat="46.90889" lon="8.66646">
        <ele>1639</ele>
        <time>2021-08-07T09:08:07.445Z</time>
      </trkpt>
      <trkpt lat="46.9089" lon="8.66645">
        <ele>1638</ele>
        <time>2021-08-07T09:08:08.445Z</time>
      </trkpt>
      <trkpt lat="46.90891" lon="8.66645">
        <ele>1638</ele>
        <time>2021-08-07T09:08:09.445Z</time>
      </trkpt>
      <trkpt lat="46.90891" lon="8.66645">
        <ele>1638</ele>
        <time>2021-08-07T09:08:10.445Z</time>
      </trkpt>
      <trkpt lat="46.90892" lon="8.66645">
        <ele>1638</ele>
        <time>2021-08-07T09:08:12.515Z</time>
      </trkpt>
      <trkpt lat="46.90894" lon="8.66644">
        <ele>1638</ele>
        <time>2021-08-07T09:08:13.516Z</time>
      </trkpt>
      <trkpt lat="46.90894" lon="8.66644">
        <ele>1638</ele>
        <time>2021-08-07T09:08:14.515Z</time>
      </trkpt>
      <trkpt lat="46.90895" lon="8.66644">
        <ele>1638</ele>
        <time>2021-08-07T09:08:15.516Z</time>
      </trkpt>
      <trkpt lat="46.90896" lon="8.66644">
        <ele>1639</ele>
        <time>2021-08-07T09:08:16.515Z</time>
      </trkpt>
      <trkpt lat="46.90897" lon="8.66644">
        <ele>1639</ele>
        <time>2021-08-07T09:08:17.516Z</time>
      </trkpt>
      <trkpt lat="46.90899" lon="8.66644">
        <ele>1639</ele>
        <time>2021-08-07T09:08:18.516Z</time>
      </trkpt>
      <trkpt lat="46.909" lon="8.66644">
        <ele>1639</ele>
        <time>2021-08-07T09:08:19.515Z</time>
      </trkpt>
      <trkpt lat="46.90901" lon="8.66644">
        <ele>1640</ele>
        <time>2021-08-07T09:08:20.516Z</time>
      </trkpt>
      <trkpt lat="46.90903" lon="8.66644">
        <ele>1640</ele>
        <time>2021-08-07T09:08:21.516Z</time>
      </trkpt>
      <trkpt lat="46.90904" lon="8.66645">
        <ele>1640</ele>
        <time>2021-08-07T09:08:22.516Z</time>
      </trkpt>
      <trkpt lat="46.90905" lon="8.66645">
        <ele>1640</ele>
        <time>2021-08-07T09:08:23.515Z</time>
      </trkpt>
      <trkpt lat="46.90905" lon="8.66646">
        <ele>1640</ele>
        <time>2021-08-07T09:08:24.516Z</time>
      </trkpt>
      <trkpt lat="46.90905" lon="8.66646">
        <ele>1640</ele>
        <time>2021-08-07T09:08:25.515Z</time>
      </trkpt>
      <trkpt lat="46.90906" lon="8.66646">
        <ele>1640</ele>
        <time>2021-08-07T09:08:26.515Z</time>
      </trkpt>
      <trkpt lat="46.90907" lon="8.66646">
        <ele>1640</ele>
        <time>2021-08-07T09:08:27.516Z</time>
      </trkpt>
      <trkpt lat="46.90908" lon="8.66647">
        <ele>1639</ele>
        <time>2021-08-07T09:08:28.515Z</time>
      </trkpt>
      <trkpt lat="46.90908" lon="8.66648">
        <ele>1638</ele>
        <time>2021-08-07T09:08:29.515Z</time>
      </trkpt>
      <trkpt lat="46.90909" lon="8.66649">
        <ele>1638</ele>
        <time>2021-08-07T09:08:30.516Z</time>
      </trkpt>
      <trkpt lat="46.9091" lon="8.6665">
        <ele>1637</ele>
        <time>2021-08-07T09:08:31.515Z</time>
      </trkpt>
      <trkpt lat="46.90912" lon="8.6665">
        <ele>1636</ele>
        <time>2021-08-07T09:08:32.516Z</time>
      </trkpt>
      <trkpt lat="46.90914" lon="8.6665">
        <ele>1636</ele>
        <time>2021-08-07T09:08:33.516Z</time>
      </trkpt>
      <trkpt lat="46.90915" lon="8.66651">
        <ele>1636</ele>
        <time>2021-08-07T09:08:34.516Z</time>
      </trkpt>
      <trkpt lat="46.90916" lon="8.66652">
        <ele>1636</ele>
        <time>2021-08-07T09:08:35.516Z</time>
      </trkpt>
      <trkpt lat="46.90916" lon="8.66653">
        <ele>1636</ele>
        <time>2021-08-07T09:08:36.515Z</time>
      </trkpt>
      <trkpt lat="46.90917" lon="8.66654">
        <ele>1636</ele>
        <time>2021-08-07T09:08:37.515Z</time>
      </trkpt>
      <trkpt lat="46.90918" lon="8.66654">
        <ele>1636</ele>
        <time>2021-08-07T09:08:38.516Z</time>
      </trkpt>
      <trkpt lat="46.90919" lon="8.66654">
        <ele>1636</ele>
        <time>2021-08-07T09:08:39.516Z</time>
      </trkpt>
      <trkpt lat="46.9092" lon="8.66655">
        <ele>1636</ele>
        <time>2021-08-07T09:08:40.515Z</time>
      </trkpt>
      <trkpt lat="46.90921" lon="8.66655">
        <ele>1636</ele>
        <time>2021-08-07T09:08:41.515Z</time>
      </trkpt>
      <trkpt lat="46.90921" lon="8.66656">
        <ele>1635</ele>
        <time>2021-08-07T09:08:42.516Z</time>
      </trkpt>
      <trkpt lat="46.90922" lon="8.66656">
        <ele>1636</ele>
        <time>2021-08-07T09:08:43.516Z</time>
      </trkpt>
      <trkpt lat="46.90923" lon="8.66656">
        <ele>1636</ele>
        <time>2021-08-07T09:08:44.516Z</time>
      </trkpt>
      <trkpt lat="46.90924" lon="8.66656">
        <ele>1636</ele>
        <time>2021-08-07T09:08:45.515Z</time>
      </trkpt>
      <trkpt lat="46.90925" lon="8.66656">
        <ele>1636</ele>
        <time>2021-08-07T09:08:46.516Z</time>
      </trkpt>
      <trkpt lat="46.90926" lon="8.66656">
        <ele>1636</ele>
        <time>2021-08-07T09:08:47.515Z</time>
      </trkpt>
      <trkpt lat="46.90926" lon="8.66656">
        <ele>1635</ele>
        <time>2021-08-07T09:08:48.515Z</time>
      </trkpt>
      <trkpt lat="46.90927" lon="8.66656">
        <ele>1635</ele>
        <time>2021-08-07T09:08:49.516Z</time>
      </trkpt>
      <trkpt lat="46.90928" lon="8.66655">
        <ele>1635</ele>
        <time>2021-08-07T09:08:50.515Z</time>
      </trkpt>
      <trkpt lat="46.90929" lon="8.66655">
        <ele>1634</ele>
        <time>2021-08-07T09:08:51.515Z</time>
      </trkpt>
      <trkpt lat="46.9093" lon="8.66655">
        <ele>1634</ele>
        <time>2021-08-07T09:08:52.515Z</time>
      </trkpt>
      <trkpt lat="46.90931" lon="8.66655">
        <ele>1633</ele>
        <time>2021-08-07T09:08:53.515Z</time>
      </trkpt>
      <trkpt lat="46.90932" lon="8.66656">
        <ele>1633</ele>
        <time>2021-08-07T09:08:54.516Z</time>
      </trkpt>
      <trkpt lat="46.90932" lon="8.66657">
        <ele>1633</ele>
        <time>2021-08-07T09:08:55.515Z</time>
      </trkpt>
      <trkpt lat="46.90933" lon="8.66658">
        <ele>1632</ele>
        <time>2021-08-07T09:08:56.515Z</time>
      </trkpt>
      <trkpt lat="46.90934" lon="8.66659">
        <ele>1632</ele>
        <time>2021-08-07T09:08:57.516Z</time>
      </trkpt>
      <trkpt lat="46.90935" lon="8.6666">
        <ele>1631</ele>
        <time>2021-08-07T09:08:58.515Z</time>
      </trkpt>
      <trkpt lat="46.90936" lon="8.6666">
        <ele>1631</ele>
        <time>2021-08-07T09:08:59.516Z</time>
      </trkpt>
      <trkpt lat="46.90937" lon="8.66661">
        <ele>1631</ele>
        <time>2021-08-07T09:09:00.516Z</time>
      </trkpt>
      <trkpt lat="46.90938" lon="8.66661">
        <ele>1631</ele>
        <time>2021-08-07T09:09:01.515Z</time>
      </trkpt>
      <trkpt lat="46.90939" lon="8.66662">
        <ele>1631</ele>
        <time>2021-08-07T09:09:02.516Z</time>
      </trkpt>
      <trkpt lat="46.90939" lon="8.66663">
        <ele>1631</ele>
        <time>2021-08-07T09:09:03.516Z</time>
      </trkpt>
      <trkpt lat="46.9094" lon="8.66663">
        <ele>1631</ele>
        <time>2021-08-07T09:09:04.516Z</time>
      </trkpt>
      <trkpt lat="46.90941" lon="8.66664">
        <ele>1631</ele>
        <time>2021-08-07T09:09:05.515Z</time>
      </trkpt>
      <trkpt lat="46.90941" lon="8.66664">
        <ele>1631</ele>
        <time>2021-08-07T09:09:06.515Z</time>
      </trkpt>
      <trkpt lat="46.90942" lon="8.66664">
        <ele>1631</ele>
        <time>2021-08-07T09:09:07.516Z</time>
      </trkpt>
      <trkpt lat="46.90942" lon="8.66664">
        <ele>1632</ele>
        <time>2021-08-07T09:09:08.515Z</time>
      </trkpt>
      <trkpt lat="46.90943" lon="8.66663">
        <ele>1632</ele>
        <time>2021-08-07T09:09:09.515Z</time>
      </trkpt>
      <trkpt lat="46.90944" lon="8.66662">
        <ele>1636</ele>
        <time>2021-08-07T09:09:10.517Z</time>
      </trkpt>
      <trkpt lat="46.90946" lon="8.66662">
        <ele>1642</ele>
        <time>2021-08-07T09:09:11.517Z</time>
      </trkpt>
      <trkpt lat="46.90947" lon="8.66663">
        <ele>1643</ele>
        <time>2021-08-07T09:09:12.518Z</time>
      </trkpt>
      <trkpt lat="46.90948" lon="8.66663">
        <ele>1644</ele>
        <time>2021-08-07T09:09:13.517Z</time>
      </trkpt>
      <trkpt lat="46.90948" lon="8.66664">
        <ele>1645</ele>
        <time>2021-08-07T09:09:14.517Z</time>
      </trkpt>
      <trkpt lat="46.90949" lon="8.66665">
        <ele>1646</ele>
        <time>2021-08-07T09:09:15.518Z</time>
      </trkpt>
      <trkpt lat="46.90949" lon="8.66666">
        <ele>1647</ele>
        <time>2021-08-07T09:09:16.518Z</time>
      </trkpt>
      <trkpt lat="46.90949" lon="8.66668">
        <ele>1648</ele>
        <time>2021-08-07T09:09:17.518Z</time>
      </trkpt>
      <trkpt lat="46.9095" lon="8.66669">
        <ele>1648</ele>
        <time>2021-08-07T09:09:18.518Z</time>
      </trkpt>
      <trkpt lat="46.9095" lon="8.66669">
        <ele>1649</ele>
        <time>2021-08-07T09:09:19.517Z</time>
      </trkpt>
      <trkpt lat="46.90951" lon="8.6667">
        <ele>1649</ele>
        <time>2021-08-07T09:09:20.518Z</time>
      </trkpt>
      <trkpt lat="46.90951" lon="8.66671">
        <ele>1649</ele>
        <time>2021-08-07T09:09:21.518Z</time>
      </trkpt>
      <trkpt lat="46.90951" lon="8.66672">
        <ele>1650</ele>
        <time>2021-08-07T09:09:22.517Z</time>
      </trkpt>
      <trkpt lat="46.90952" lon="8.66675">
        <ele>1650</ele>
        <time>2021-08-07T09:09:23.517Z</time>
      </trkpt>
      <trkpt lat="46.90952" lon="8.66676">
        <ele>1650</ele>
        <time>2021-08-07T09:09:24.518Z</time>
      </trkpt>
      <trkpt lat="46.90953" lon="8.66677">
        <ele>1650</ele>
        <time>2021-08-07T09:09:25.517Z</time>
      </trkpt>
      <trkpt lat="46.90954" lon="8.66678">
        <ele>1650</ele>
        <time>2021-08-07T09:09:26.517Z</time>
      </trkpt>
      <trkpt lat="46.90955" lon="8.66677">
        <ele>1650</ele>
        <time>2021-08-07T09:09:27.518Z</time>
      </trkpt>
      <trkpt lat="46.90957" lon="8.66676">
        <ele>1650</ele>
        <time>2021-08-07T09:09:28.518Z</time>
      </trkpt>
      <trkpt lat="46.90958" lon="8.66676">
        <ele>1650</ele>
        <time>2021-08-07T09:09:29.518Z</time>
      </trkpt>
      <trkpt lat="46.9096" lon="8.66677">
        <ele>1651</ele>
        <time>2021-08-07T09:09:30.518Z</time>
      </trkpt>
      <trkpt lat="46.90961" lon="8.66677">
        <ele>1651</ele>
        <time>2021-08-07T09:09:31.518Z</time>
      </trkpt>
      <trkpt lat="46.90963" lon="8.66677">
        <ele>1650</ele>
        <time>2021-08-07T09:09:32.518Z</time>
      </trkpt>
      <trkpt lat="46.90963" lon="8.66677">
        <ele>1650</ele>
        <time>2021-08-07T09:09:33.517Z</time>
      </trkpt>
      <trkpt lat="46.90965" lon="8.66677">
        <ele>1650</ele>
        <time>2021-08-07T09:09:34.518Z</time>
      </trkpt>
      <trkpt lat="46.90965" lon="8.66677">
        <ele>1649</ele>
        <time>2021-08-07T09:09:37.656Z</time>
      </trkpt>
      <trkpt lat="46.90966" lon="8.66677">
        <ele>1649</ele>
        <time>2021-08-07T09:09:38.655Z</time>
      </trkpt>
      <trkpt lat="46.90967" lon="8.66678">
        <ele>1648</ele>
        <time>2021-08-07T09:09:39.656Z</time>
      </trkpt>
      <trkpt lat="46.90968" lon="8.66678">
        <ele>1648</ele>
        <time>2021-08-07T09:09:40.656Z</time>
      </trkpt>
      <trkpt lat="46.90969" lon="8.66678">
        <ele>1647</ele>
        <time>2021-08-07T09:09:41.655Z</time>
      </trkpt>
      <trkpt lat="46.9097" lon="8.66679">
        <ele>1647</ele>
        <time>2021-08-07T09:09:42.655Z</time>
      </trkpt>
      <trkpt lat="46.9097" lon="8.66679">
        <ele>1647</ele>
        <time>2021-08-07T09:09:43.656Z</time>
      </trkpt>
      <trkpt lat="46.90971" lon="8.6668">
        <ele>1647</ele>
        <time>2021-08-07T09:09:44.655Z</time>
      </trkpt>
      <trkpt lat="46.90973" lon="8.66681">
        <ele>1647</ele>
        <time>2021-08-07T09:09:45.656Z</time>
      </trkpt>
      <trkpt lat="46.90975" lon="8.66681">
        <ele>1647</ele>
        <time>2021-08-07T09:09:46.655Z</time>
      </trkpt>
      <trkpt lat="46.90976" lon="8.66681">
        <ele>1647</ele>
        <time>2021-08-07T09:09:47.656Z</time>
      </trkpt>
      <trkpt lat="46.90977" lon="8.66681">
        <ele>1648</ele>
        <time>2021-08-07T09:09:48.655Z</time>
      </trkpt>
      <trkpt lat="46.90978" lon="8.66682">
        <ele>1648</ele>
        <time>2021-08-07T09:09:49.656Z</time>
      </trkpt>
      <trkpt lat="46.90978" lon="8.66682">
        <ele>1649</ele>
        <time>2021-08-07T09:09:50.656Z</time>
      </trkpt>
      <trkpt lat="46.90978" lon="8.66682">
        <ele>1649</ele>
        <time>2021-08-07T09:09:51.656Z</time>
      </trkpt>
      <trkpt lat="46.9098" lon="8.66682">
        <ele>1650</ele>
        <time>2021-08-07T09:09:52.656Z</time>
      </trkpt>
      <trkpt lat="46.90981" lon="8.66683">
        <ele>1650</ele>
        <time>2021-08-07T09:09:53.656Z</time>
      </trkpt>
      <trkpt lat="46.90983" lon="8.66683">
        <ele>1650</ele>
        <time>2021-08-07T09:09:54.656Z</time>
      </trkpt>
      <trkpt lat="46.90984" lon="8.66683">
        <ele>1650</ele>
        <time>2021-08-07T09:09:55.656Z</time>
      </trkpt>
      <trkpt lat="46.90985" lon="8.66682">
        <ele>1650</ele>
        <time>2021-08-07T09:09:56.655Z</time>
      </trkpt>
      <trkpt lat="46.90986" lon="8.66681">
        <ele>1650</ele>
        <time>2021-08-07T09:09:57.656Z</time>
      </trkpt>
      <trkpt lat="46.90987" lon="8.66679">
        <ele>1651</ele>
        <time>2021-08-07T09:09:58.656Z</time>
      </trkpt>
      <trkpt lat="46.90988" lon="8.66678">
        <ele>1651</ele>
        <time>2021-08-07T09:09:59.656Z</time>
      </trkpt>
      <trkpt lat="46.90989" lon="8.66677">
        <ele>1651</ele>
        <time>2021-08-07T09:10:00.656Z</time>
      </trkpt>
      <trkpt lat="46.9099" lon="8.66675">
        <ele>1651</ele>
        <time>2021-08-07T09:10:01.655Z</time>
      </trkpt>
      <trkpt lat="46.90991" lon="8.66675">
        <ele>1650</ele>
        <time>2021-08-07T09:10:02.656Z</time>
      </trkpt>
      <trkpt lat="46.90993" lon="8.66674">
        <ele>1650</ele>
        <time>2021-08-07T09:10:03.655Z</time>
      </trkpt>
      <trkpt lat="46.90994" lon="8.66673">
        <ele>1650</ele>
        <time>2021-08-07T09:10:04.656Z</time>
      </trkpt>
      <trkpt lat="46.90995" lon="8.66672">
        <ele>1650</ele>
        <time>2021-08-07T09:10:05.655Z</time>
      </trkpt>
      <trkpt lat="46.90996" lon="8.66671">
        <ele>1650</ele>
        <time>2021-08-07T09:10:06.655Z</time>
      </trkpt>
      <trkpt lat="46.90998" lon="8.6667">
        <ele>1650</ele>
        <time>2021-08-07T09:10:07.655Z</time>
      </trkpt>
      <trkpt lat="46.90999" lon="8.66668">
        <ele>1650</ele>
        <time>2021-08-07T09:10:08.655Z</time>
      </trkpt>
      <trkpt lat="46.91" lon="8.66667">
        <ele>1649</ele>
        <time>2021-08-07T09:10:09.656Z</time>
      </trkpt>
      <trkpt lat="46.91002" lon="8.66667">
        <ele>1649</ele>
        <time>2021-08-07T09:10:10.655Z</time>
      </trkpt>
      <trkpt lat="46.91003" lon="8.66666">
        <ele>1649</ele>
        <time>2021-08-07T09:10:11.656Z</time>
      </trkpt>
      <trkpt lat="46.91004" lon="8.66666">
        <ele>1649</ele>
        <time>2021-08-07T09:10:12.655Z</time>
      </trkpt>
      <trkpt lat="46.91005" lon="8.66665">
        <ele>1649</ele>
        <time>2021-08-07T09:10:13.655Z</time>
      </trkpt>
      <trkpt lat="46.91006" lon="8.66664">
        <ele>1650</ele>
        <time>2021-08-07T09:10:14.655Z</time>
      </trkpt>
      <trkpt lat="46.91007" lon="8.66663">
        <ele>1650</ele>
        <time>2021-08-07T09:10:15.655Z</time>
      </trkpt>
      <trkpt lat="46.91008" lon="8.66663">
        <ele>1650</ele>
        <time>2021-08-07T09:10:16.656Z</time>
      </trkpt>
      <trkpt lat="46.9101" lon="8.66662">
        <ele>1650</ele>
        <time>2021-08-07T09:10:17.656Z</time>
      </trkpt>
      <trkpt lat="46.9101" lon="8.66662">
        <ele>1650</ele>
        <time>2021-08-07T09:10:18.655Z</time>
      </trkpt>
      <trkpt lat="46.91011" lon="8.66661">
        <ele>1650</ele>
        <time>2021-08-07T09:10:19.656Z</time>
      </trkpt>
      <trkpt lat="46.91012" lon="8.66661">
        <ele>1650</ele>
        <time>2021-08-07T09:10:20.655Z</time>
      </trkpt>
      <trkpt lat="46.91013" lon="8.66661">
        <ele>1650</ele>
        <time>2021-08-07T09:10:21.655Z</time>
      </trkpt>
      <trkpt lat="46.91013" lon="8.6666">
        <ele>1650</ele>
        <time>2021-08-07T09:10:22.656Z</time>
      </trkpt>
      <trkpt lat="46.91014" lon="8.66661">
        <ele>1649</ele>
        <time>2021-08-07T09:10:23.656Z</time>
      </trkpt>
      <trkpt lat="46.91015" lon="8.6666">
        <ele>1649</ele>
        <time>2021-08-07T09:10:24.656Z</time>
      </trkpt>
      <trkpt lat="46.91016" lon="8.66659">
        <ele>1649</ele>
        <time>2021-08-07T09:10:25.656Z</time>
      </trkpt>
      <trkpt lat="46.91016" lon="8.66658">
        <ele>1649</ele>
        <time>2021-08-07T09:10:26.656Z</time>
      </trkpt>
      <trkpt lat="46.91016" lon="8.66657">
        <ele>1648</ele>
        <time>2021-08-07T09:10:27.656Z</time>
      </trkpt>
      <trkpt lat="46.91017" lon="8.66655">
        <ele>1646</ele>
        <time>2021-08-07T09:10:28.657Z</time>
      </trkpt>
      <trkpt lat="46.91018" lon="8.66655">
        <ele>1645</ele>
        <time>2021-08-07T09:10:29.657Z</time>
      </trkpt>
      <trkpt lat="46.91018" lon="8.66654">
        <ele>1645</ele>
        <time>2021-08-07T09:10:30.656Z</time>
      </trkpt>
      <trkpt lat="46.91018" lon="8.66654">
        <ele>1645</ele>
        <time>2021-08-07T09:10:31.657Z</time>
      </trkpt>
      <trkpt lat="46.91019" lon="8.66654">
        <ele>1645</ele>
        <time>2021-08-07T09:10:32.657Z</time>
      </trkpt>
      <trkpt lat="46.9102" lon="8.66654">
        <ele>1645</ele>
        <time>2021-08-07T09:10:33.657Z</time>
      </trkpt>
      <trkpt lat="46.9102" lon="8.66654">
        <ele>1644</ele>
        <time>2021-08-07T09:10:34.657Z</time>
      </trkpt>
      <trkpt lat="46.9102" lon="8.66654">
        <ele>1644</ele>
        <time>2021-08-07T09:10:35.657Z</time>
      </trkpt>
      <trkpt lat="46.91021" lon="8.66654">
        <ele>1644</ele>
        <time>2021-08-07T09:10:36.657Z</time>
      </trkpt>
      <trkpt lat="46.91022" lon="8.66655">
        <ele>1645</ele>
        <time>2021-08-07T09:10:37.657Z</time>
      </trkpt>
      <trkpt lat="46.91023" lon="8.66655">
        <ele>1645</ele>
        <time>2021-08-07T09:10:38.656Z</time>
      </trkpt>
      <trkpt lat="46.91024" lon="8.66655">
        <ele>1645</ele>
        <time>2021-08-07T09:10:39.657Z</time>
      </trkpt>
      <trkpt lat="46.91025" lon="8.66656">
        <ele>1645</ele>
        <time>2021-08-07T09:10:40.657Z</time>
      </trkpt>
      <trkpt lat="46.91027" lon="8.66656">
        <ele>1646</ele>
        <time>2021-08-07T09:10:41.656Z</time>
      </trkpt>
      <trkpt lat="46.91027" lon="8.66657">
        <ele>1646</ele>
        <time>2021-08-07T09:10:42.657Z</time>
      </trkpt>
      <trkpt lat="46.91028" lon="8.66658">
        <ele>1646</ele>
        <time>2021-08-07T09:10:43.656Z</time>
      </trkpt>
      <trkpt lat="46.91028" lon="8.66659">
        <ele>1646</ele>
        <time>2021-08-07T09:10:44.657Z</time>
      </trkpt>
      <trkpt lat="46.91029" lon="8.66659">
        <ele>1646</ele>
        <time>2021-08-07T09:10:45.657Z</time>
      </trkpt>
      <trkpt lat="46.9103" lon="8.66659">
        <ele>1646</ele>
        <time>2021-08-07T09:10:46.656Z</time>
      </trkpt>
      <trkpt lat="46.91031" lon="8.66659">
        <ele>1646</ele>
        <time>2021-08-07T09:10:47.657Z</time>
      </trkpt>
      <trkpt lat="46.91031" lon="8.66659">
        <ele>1645</ele>
        <time>2021-08-07T09:10:48.657Z</time>
      </trkpt>
      <trkpt lat="46.91032" lon="8.66659">
        <ele>1645</ele>
        <time>2021-08-07T09:10:49.656Z</time>
      </trkpt>
      <trkpt lat="46.91032" lon="8.6666">
        <ele>1644</ele>
        <time>2021-08-07T09:10:50.656Z</time>
      </trkpt>
      <trkpt lat="46.91032" lon="8.66661">
        <ele>1644</ele>
        <time>2021-08-07T09:10:51.657Z</time>
      </trkpt>
      <trkpt lat="46.91032" lon="8.66661">
        <ele>1643</ele>
        <time>2021-08-07T09:10:52.657Z</time>
      </trkpt>
      <trkpt lat="46.91033" lon="8.66661">
        <ele>1643</ele>
        <time>2021-08-07T09:10:53.657Z</time>
      </trkpt>
      <trkpt lat="46.91034" lon="8.66662">
        <ele>1643</ele>
        <time>2021-08-07T09:10:54.657Z</time>
      </trkpt>
      <trkpt lat="46.91036" lon="8.66662">
        <ele>1644</ele>
        <time>2021-08-07T09:10:55.657Z</time>
      </trkpt>
      <trkpt lat="46.91037" lon="8.66663">
        <ele>1644</ele>
        <time>2021-08-07T09:10:56.657Z</time>
      </trkpt>
      <trkpt lat="46.91039" lon="8.66662">
        <ele>1644</ele>
        <time>2021-08-07T09:10:57.657Z</time>
      </trkpt>
      <trkpt lat="46.91039" lon="8.66662">
        <ele>1644</ele>
        <time>2021-08-07T09:10:58.656Z</time>
      </trkpt>
      <trkpt lat="46.9104" lon="8.66662">
        <ele>1644</ele>
        <time>2021-08-07T09:10:59.656Z</time>
      </trkpt>
      <trkpt lat="46.91041" lon="8.66662">
        <ele>1644</ele>
        <time>2021-08-07T09:11:00.657Z</time>
      </trkpt>
      <trkpt lat="46.91042" lon="8.66662">
        <ele>1644</ele>
        <time>2021-08-07T09:11:01.656Z</time>
      </trkpt>
      <trkpt lat="46.91042" lon="8.66662">
        <ele>1643</ele>
        <time>2021-08-07T09:11:02.657Z</time>
      </trkpt>
      <trkpt lat="46.91043" lon="8.66662">
        <ele>1643</ele>
        <time>2021-08-07T09:11:03.656Z</time>
      </trkpt>
      <trkpt lat="46.91044" lon="8.66661">
        <ele>1642</ele>
        <time>2021-08-07T09:11:04.656Z</time>
      </trkpt>
      <trkpt lat="46.91045" lon="8.66661">
        <ele>1642</ele>
        <time>2021-08-07T09:11:05.657Z</time>
      </trkpt>
      <trkpt lat="46.91045" lon="8.66661">
        <ele>1641</ele>
        <time>2021-08-07T09:11:06.657Z</time>
      </trkpt>
      <trkpt lat="46.91046" lon="8.6666">
        <ele>1641</ele>
        <time>2021-08-07T09:11:07.657Z</time>
      </trkpt>
      <trkpt lat="46.91047" lon="8.6666">
        <ele>1641</ele>
        <time>2021-08-07T09:11:08.657Z</time>
      </trkpt>
      <trkpt lat="46.91048" lon="8.66659">
        <ele>1641</ele>
        <time>2021-08-07T09:11:09.657Z</time>
      </trkpt>
      <trkpt lat="46.91049" lon="8.66658">
        <ele>1641</ele>
        <time>2021-08-07T09:11:10.657Z</time>
      </trkpt>
      <trkpt lat="46.9105" lon="8.66658">
        <ele>1641</ele>
        <time>2021-08-07T09:11:11.657Z</time>
      </trkpt>
      <trkpt lat="46.91049" lon="8.66658">
        <ele>1640</ele>
        <time>2021-08-07T09:11:12.656Z</time>
      </trkpt>
      <trkpt lat="46.9105" lon="8.66658">
        <ele>1640</ele>
        <time>2021-08-07T09:11:13.656Z</time>
      </trkpt>
      <trkpt lat="46.9105" lon="8.66657">
        <ele>1640</ele>
        <time>2021-08-07T09:11:14.656Z</time>
      </trkpt>
      <trkpt lat="46.9105" lon="8.66657">
        <ele>1640</ele>
        <time>2021-08-07T09:11:15.657Z</time>
      </trkpt>
      <trkpt lat="46.91051" lon="8.66656">
        <ele>1640</ele>
        <time>2021-08-07T09:11:16.656Z</time>
      </trkpt>
      <trkpt lat="46.91054" lon="8.66659">
        <ele>1640</ele>
        <time>2021-08-07T09:11:17.656Z</time>
      </trkpt>
      <trkpt lat="46.91054" lon="8.6666">
        <ele>1640</ele>
        <time>2021-08-07T09:11:18.657Z</time>
      </trkpt>
      <trkpt lat="46.91055" lon="8.6666">
        <ele>1640</ele>
        <time>2021-08-07T09:11:19.656Z</time>
      </trkpt>
      <trkpt lat="46.91055" lon="8.6666">
        <ele>1640</ele>
        <time>2021-08-07T09:11:20.657Z</time>
      </trkpt>
      <trkpt lat="46.91059" lon="8.66656">
        <ele>1644</ele>
        <time>2021-08-07T09:11:21.657Z</time>
      </trkpt>
      <trkpt lat="46.9106" lon="8.66655">
        <ele>1644</ele>
        <time>2021-08-07T09:11:22.657Z</time>
      </trkpt>
      <trkpt lat="46.91059" lon="8.66653">
        <ele>1644</ele>
        <time>2021-08-07T09:11:23.656Z</time>
      </trkpt>
      <trkpt lat="46.91059" lon="8.66651">
        <ele>1644</ele>
        <time>2021-08-07T09:11:24.658Z</time>
      </trkpt>
      <trkpt lat="46.91059" lon="8.66651">
        <ele>1643</ele>
        <time>2021-08-07T09:11:25.658Z</time>
      </trkpt>
      <trkpt lat="46.91059" lon="8.6665">
        <ele>1643</ele>
        <time>2021-08-07T09:11:26.657Z</time>
      </trkpt>
      <trkpt lat="46.91059" lon="8.66649">
        <ele>1643</ele>
        <time>2021-08-07T09:11:27.658Z</time>
      </trkpt>
      <trkpt lat="46.91058" lon="8.66648">
        <ele>1643</ele>
        <time>2021-08-07T09:11:28.658Z</time>
      </trkpt>
      <trkpt lat="46.91058" lon="8.66647">
        <ele>1643</ele>
        <time>2021-08-07T09:11:29.657Z</time>
      </trkpt>
      <trkpt lat="46.91058" lon="8.66646">
        <ele>1643</ele>
        <time>2021-08-07T09:11:30.657Z</time>
      </trkpt>
      <trkpt lat="46.91057" lon="8.66641">
        <ele>1645</ele>
        <time>2021-08-07T09:11:31.658Z</time>
      </trkpt>
      <trkpt lat="46.91057" lon="8.66642">
        <ele>1645</ele>
        <time>2021-08-07T09:11:32.658Z</time>
      </trkpt>
      <trkpt lat="46.91058" lon="8.66642">
        <ele>1644</ele>
        <time>2021-08-07T09:11:33.658Z</time>
      </trkpt>
      <trkpt lat="46.91058" lon="8.66643">
        <ele>1644</ele>
        <time>2021-08-07T09:11:34.658Z</time>
      </trkpt>
      <trkpt lat="46.91059" lon="8.66645">
        <ele>1643</ele>
        <time>2021-08-07T09:11:35.660Z</time>
      </trkpt>
      <trkpt lat="46.91059" lon="8.66646">
        <ele>1643</ele>
        <time>2021-08-07T09:11:36.660Z</time>
      </trkpt>
      <trkpt lat="46.9106" lon="8.66646">
        <ele>1643</ele>
        <time>2021-08-07T09:11:37.660Z</time>
      </trkpt>
      <trkpt lat="46.91061" lon="8.66647">
        <ele>1643</ele>
        <time>2021-08-07T09:11:38.661Z</time>
      </trkpt>
      <trkpt lat="46.91061" lon="8.66647">
        <ele>1642</ele>
        <time>2021-08-07T09:11:39.660Z</time>
      </trkpt>
      <trkpt lat="46.91063" lon="8.66647">
        <ele>1642</ele>
        <time>2021-08-07T09:11:40.660Z</time>
      </trkpt>
      <trkpt lat="46.91065" lon="8.66648">
        <ele>1642</ele>
        <time>2021-08-07T09:11:41.661Z</time>
      </trkpt>
      <trkpt lat="46.91065" lon="8.66647">
        <ele>1641</ele>
        <time>2021-08-07T09:11:42.660Z</time>
      </trkpt>
      <trkpt lat="46.91066" lon="8.66647">
        <ele>1641</ele>
        <time>2021-08-07T09:11:43.661Z</time>
      </trkpt>
      <trkpt lat="46.91066" lon="8.66647">
        <ele>1641</ele>
        <time>2021-08-07T09:11:44.660Z</time>
      </trkpt>
      <trkpt lat="46.91066" lon="8.66647">
        <ele>1640</ele>
        <time>2021-08-07T09:11:45.661Z</time>
      </trkpt>
      <trkpt lat="46.91067" lon="8.66647">
        <ele>1640</ele>
        <time>2021-08-07T09:11:46.661Z</time>
      </trkpt>
      <trkpt lat="46.91068" lon="8.66647">
        <ele>1640</ele>
        <time>2021-08-07T09:11:47.661Z</time>
      </trkpt>
      <trkpt lat="46.9107" lon="8.66648">
        <ele>1639</ele>
        <time>2021-08-07T09:11:48.661Z</time>
      </trkpt>
      <trkpt lat="46.91071" lon="8.66648">
        <ele>1638</ele>
        <time>2021-08-07T09:11:49.660Z</time>
      </trkpt>
      <trkpt lat="46.91073" lon="8.66648">
        <ele>1638</ele>
        <time>2021-08-07T09:11:50.661Z</time>
      </trkpt>
      <trkpt lat="46.91074" lon="8.66648">
        <ele>1637</ele>
        <time>2021-08-07T09:11:51.661Z</time>
      </trkpt>
      <trkpt lat="46.91075" lon="8.66648">
        <ele>1637</ele>
        <time>2021-08-07T09:11:52.660Z</time>
      </trkpt>
      <trkpt lat="46.91076" lon="8.66649">
        <ele>1636</ele>
        <time>2021-08-07T09:11:53.660Z</time>
      </trkpt>
      <trkpt lat="46.91077" lon="8.66649">
        <ele>1636</ele>
        <time>2021-08-07T09:11:54.661Z</time>
      </trkpt>
      <trkpt lat="46.91078" lon="8.66649">
        <ele>1636</ele>
        <time>2021-08-07T09:11:55.661Z</time>
      </trkpt>
      <trkpt lat="46.91079" lon="8.66649">
        <ele>1635</ele>
        <time>2021-08-07T09:11:56.660Z</time>
      </trkpt>
      <trkpt lat="46.9108" lon="8.66649">
        <ele>1635</ele>
        <time>2021-08-07T09:11:57.661Z</time>
      </trkpt>
      <trkpt lat="46.91082" lon="8.6665">
        <ele>1635</ele>
        <time>2021-08-07T09:11:58.661Z</time>
      </trkpt>
      <trkpt lat="46.91083" lon="8.6665">
        <ele>1635</ele>
        <time>2021-08-07T09:11:59.660Z</time>
      </trkpt>
      <trkpt lat="46.91085" lon="8.66651">
        <ele>1634</ele>
        <time>2021-08-07T09:12:00.661Z</time>
      </trkpt>
      <trkpt lat="46.91085" lon="8.66651">
        <ele>1634</ele>
        <time>2021-08-07T09:12:13.706Z</time>
      </trkpt>
      <trkpt lat="46.91086" lon="8.66651">
        <ele>1634</ele>
        <time>2021-08-07T09:12:19.508Z</time>
      </trkpt>
      <trkpt lat="46.91086" lon="8.66651">
        <ele>1634</ele>
        <time>2021-08-07T09:12:20.508Z</time>
      </trkpt>
      <trkpt lat="46.91086" lon="8.66651">
        <ele>1634</ele>
        <time>2021-08-07T09:12:21.508Z</time>
      </trkpt>
      <trkpt lat="46.91087" lon="8.66651">
        <ele>1634</ele>
        <time>2021-08-07T09:12:22.508Z</time>
      </trkpt>
      <trkpt lat="46.91088" lon="8.66651">
        <ele>1634</ele>
        <time>2021-08-07T09:12:23.509Z</time>
      </trkpt>
      <trkpt lat="46.91089" lon="8.6665">
        <ele>1633</ele>
        <time>2021-08-07T09:12:35.662Z</time>
      </trkpt>
      <trkpt lat="46.91089" lon="8.6665">
        <ele>1633</ele>
        <time>2021-08-07T09:12:36.662Z</time>
      </trkpt>
      <trkpt lat="46.9109" lon="8.6665">
        <ele>1633</ele>
        <time>2021-08-07T09:12:51.505Z</time>
      </trkpt>
      <trkpt lat="46.91091" lon="8.66649">
        <ele>1633</ele>
        <time>2021-08-07T09:12:52.504Z</time>
      </trkpt>
      <trkpt lat="46.91092" lon="8.66649">
        <ele>1633</ele>
        <time>2021-08-07T09:12:53.505Z</time>
      </trkpt>
      <trkpt lat="46.91093" lon="8.66649">
        <ele>1633</ele>
        <time>2021-08-07T09:12:54.504Z</time>
      </trkpt>
      <trkpt lat="46.91094" lon="8.66649">
        <ele>1633</ele>
        <time>2021-08-07T09:13:01.549Z</time>
      </trkpt>
      <trkpt lat="46.91095" lon="8.66649">
        <ele>1633</ele>
        <time>2021-08-07T09:13:02.549Z</time>
      </trkpt>
      <trkpt lat="46.91095" lon="8.66648">
        <ele>1633</ele>
        <time>2021-08-07T09:13:03.549Z</time>
      </trkpt>
      <trkpt lat="46.91095" lon="8.66648">
        <ele>1633</ele>
        <time>2021-08-07T09:13:04.549Z</time>
      </trkpt>
      <trkpt lat="46.91096" lon="8.66648">
        <ele>1633</ele>
        <time>2021-08-07T09:13:05.548Z</time>
      </trkpt>
      <trkpt lat="46.91097" lon="8.66648">
        <ele>1633</ele>
        <time>2021-08-07T09:13:10.650Z</time>
      </trkpt>
      <trkpt lat="46.91098" lon="8.66648">
        <ele>1632</ele>
        <time>2021-08-07T09:13:16.499Z</time>
      </trkpt>
      <trkpt lat="46.91099" lon="8.66648">
        <ele>1632</ele>
        <time>2021-08-07T09:13:17.500Z</time>
      </trkpt>
      <trkpt lat="46.911" lon="8.66648">
        <ele>1632</ele>
        <time>2021-08-07T09:13:22.374Z</time>
      </trkpt>
      <trkpt lat="46.911" lon="8.66649">
        <ele>1632</ele>
        <time>2021-08-07T09:13:23.374Z</time>
      </trkpt>
      <trkpt lat="46.91102" lon="8.66649">
        <ele>1632</ele>
        <time>2021-08-07T09:13:33.161Z</time>
      </trkpt>
      <trkpt lat="46.91103" lon="8.66648">
        <ele>1632</ele>
        <time>2021-08-07T09:13:36.004Z</time>
      </trkpt>
      <trkpt lat="46.91104" lon="8.66648">
        <ele>1632</ele>
        <time>2021-08-07T09:13:37.003Z</time>
      </trkpt>
      <trkpt lat="46.91105" lon="8.66647">
        <ele>1632</ele>
        <time>2021-08-07T09:13:38.003Z</time>
      </trkpt>
      <trkpt lat="46.91106" lon="8.66647">
        <ele>1632</ele>
        <time>2021-08-07T09:13:39.003Z</time>
      </trkpt>
      <trkpt lat="46.91107" lon="8.66647">
        <ele>1632</ele>
        <time>2021-08-07T09:13:40.003Z</time>
      </trkpt>
      <trkpt lat="46.91109" lon="8.66647">
        <ele>1632</ele>
        <time>2021-08-07T09:13:41.004Z</time>
      </trkpt>
      <trkpt lat="46.9111" lon="8.66647">
        <ele>1631</ele>
        <time>2021-08-07T09:13:42.004Z</time>
      </trkpt>
      <trkpt lat="46.91111" lon="8.66647">
        <ele>1631</ele>
        <time>2021-08-07T09:13:43.003Z</time>
      </trkpt>
      <trkpt lat="46.91112" lon="8.66646">
        <ele>1631</ele>
        <time>2021-08-07T09:13:44.004Z</time>
      </trkpt>
      <trkpt lat="46.91113" lon="8.66646">
        <ele>1631</ele>
        <time>2021-08-07T09:13:45.004Z</time>
      </trkpt>
      <trkpt lat="46.91114" lon="8.66645">
        <ele>1631</ele>
        <time>2021-08-07T09:13:46.004Z</time>
      </trkpt>
      <trkpt lat="46.91115" lon="8.66645">
        <ele>1631</ele>
        <time>2021-08-07T09:13:47.004Z</time>
      </trkpt>
      <trkpt lat="46.91116" lon="8.66645">
        <ele>1630</ele>
        <time>2021-08-07T09:13:48.003Z</time>
      </trkpt>
      <trkpt lat="46.91117" lon="8.66644">
        <ele>1630</ele>
        <time>2021-08-07T09:13:49.004Z</time>
      </trkpt>
      <trkpt lat="46.91118" lon="8.66643">
        <ele>1630</ele>
        <time>2021-08-07T09:13:50.003Z</time>
      </trkpt>
      <trkpt lat="46.91119" lon="8.66642">
        <ele>1629</ele>
        <time>2021-08-07T09:13:51.004Z</time>
      </trkpt>
      <trkpt lat="46.91119" lon="8.66642">
        <ele>1629</ele>
        <time>2021-08-07T09:13:52.004Z</time>
      </trkpt>
      <trkpt lat="46.91119" lon="8.6664">
        <ele>1629</ele>
        <time>2021-08-07T09:13:53.004Z</time>
      </trkpt>
      <trkpt lat="46.91119" lon="8.66639">
        <ele>1628</ele>
        <time>2021-08-07T09:13:54.003Z</time>
      </trkpt>
      <trkpt lat="46.91119" lon="8.66637">
        <ele>1628</ele>
        <time>2021-08-07T09:13:55.004Z</time>
      </trkpt>
      <trkpt lat="46.91119" lon="8.66636">
        <ele>1628</ele>
        <time>2021-08-07T09:13:56.004Z</time>
      </trkpt>
      <trkpt lat="46.9112" lon="8.66634">
        <ele>1628</ele>
        <time>2021-08-07T09:13:57.003Z</time>
      </trkpt>
      <trkpt lat="46.9112" lon="8.66634">
        <ele>1628</ele>
        <time>2021-08-07T09:13:58.003Z</time>
      </trkpt>
      <trkpt lat="46.91121" lon="8.66633">
        <ele>1628</ele>
        <time>2021-08-07T09:13:59.003Z</time>
      </trkpt>
      <trkpt lat="46.9112" lon="8.66633">
        <ele>1628</ele>
        <time>2021-08-07T09:14:00.004Z</time>
      </trkpt>
      <trkpt lat="46.9112" lon="8.66632">
        <ele>1628</ele>
        <time>2021-08-07T09:14:01.004Z</time>
      </trkpt>
      <trkpt lat="46.9112" lon="8.66631">
        <ele>1629</ele>
        <time>2021-08-07T09:14:02.004Z</time>
      </trkpt>
      <trkpt lat="46.91121" lon="8.66631">
        <ele>1629</ele>
        <time>2021-08-07T09:14:03.003Z</time>
      </trkpt>
      <trkpt lat="46.91121" lon="8.6663">
        <ele>1629</ele>
        <time>2021-08-07T09:14:04.004Z</time>
      </trkpt>
      <trkpt lat="46.91122" lon="8.66629">
        <ele>1629</ele>
        <time>2021-08-07T09:14:05.004Z</time>
      </trkpt>
      <trkpt lat="46.91123" lon="8.66628">
        <ele>1629</ele>
        <time>2021-08-07T09:14:06.004Z</time>
      </trkpt>
      <trkpt lat="46.91123" lon="8.66628">
        <ele>1630</ele>
        <time>2021-08-07T09:14:07.004Z</time>
      </trkpt>
      <trkpt lat="46.91123" lon="8.66627">
        <ele>1630</ele>
        <time>2021-08-07T09:14:08.004Z</time>
      </trkpt>
      <trkpt lat="46.91124" lon="8.66627">
        <ele>1629</ele>
        <time>2021-08-07T09:14:09.004Z</time>
      </trkpt>
      <trkpt lat="46.91125" lon="8.66627">
        <ele>1629</ele>
        <time>2021-08-07T09:14:10.004Z</time>
      </trkpt>
      <trkpt lat="46.91126" lon="8.66628">
        <ele>1629</ele>
        <time>2021-08-07T09:14:11.004Z</time>
      </trkpt>
      <trkpt lat="46.91126" lon="8.66628">
        <ele>1629</ele>
        <time>2021-08-07T09:14:12.004Z</time>
      </trkpt>
      <trkpt lat="46.91127" lon="8.66628">
        <ele>1629</ele>
        <time>2021-08-07T09:14:13.003Z</time>
      </trkpt>
      <trkpt lat="46.91127" lon="8.66627">
        <ele>1629</ele>
        <time>2021-08-07T09:14:14.004Z</time>
      </trkpt>
      <trkpt lat="46.91128" lon="8.66627">
        <ele>1629</ele>
        <time>2021-08-07T09:14:15.003Z</time>
      </trkpt>
      <trkpt lat="46.91129" lon="8.66627">
        <ele>1629</ele>
        <time>2021-08-07T09:14:16.003Z</time>
      </trkpt>
      <trkpt lat="46.9113" lon="8.66628">
        <ele>1629</ele>
        <time>2021-08-07T09:14:17.004Z</time>
      </trkpt>
      <trkpt lat="46.91131" lon="8.66626">
        <ele>1629</ele>
        <time>2021-08-07T09:14:18.003Z</time>
      </trkpt>
      <trkpt lat="46.91133" lon="8.66625">
        <ele>1629</ele>
        <time>2021-08-07T09:14:19.004Z</time>
      </trkpt>
      <trkpt lat="46.91134" lon="8.66625">
        <ele>1629</ele>
        <time>2021-08-07T09:14:20.003Z</time>
      </trkpt>
      <trkpt lat="46.91134" lon="8.66625">
        <ele>1629</ele>
        <time>2021-08-07T09:14:21.004Z</time>
      </trkpt>
      <trkpt lat="46.91134" lon="8.66625">
        <ele>1629</ele>
        <time>2021-08-07T09:14:22.003Z</time>
      </trkpt>
      <trkpt lat="46.91135" lon="8.66624">
        <ele>1629</ele>
        <time>2021-08-07T09:14:23.003Z</time>
      </trkpt>
      <trkpt lat="46.91135" lon="8.66622">
        <ele>1629</ele>
        <time>2021-08-07T09:14:24.004Z</time>
      </trkpt>
      <trkpt lat="46.91134" lon="8.66621">
        <ele>1629</ele>
        <time>2021-08-07T09:14:25.003Z</time>
      </trkpt>
      <trkpt lat="46.91134" lon="8.6662">
        <ele>1630</ele>
        <time>2021-08-07T09:14:26.003Z</time>
      </trkpt>
      <trkpt lat="46.91135" lon="8.66618">
        <ele>1630</ele>
        <time>2021-08-07T09:14:27.003Z</time>
      </trkpt>
      <trkpt lat="46.91136" lon="8.66617">
        <ele>1630</ele>
        <time>2021-08-07T09:14:28.003Z</time>
      </trkpt>
      <trkpt lat="46.91137" lon="8.66617">
        <ele>1630</ele>
        <time>2021-08-07T09:14:29.003Z</time>
      </trkpt>
      <trkpt lat="46.91138" lon="8.66616">
        <ele>1630</ele>
        <time>2021-08-07T09:14:30.004Z</time>
      </trkpt>
      <trkpt lat="46.91139" lon="8.66616">
        <ele>1630</ele>
        <time>2021-08-07T09:14:31.003Z</time>
      </trkpt>
      <trkpt lat="46.91139" lon="8.66616">
        <ele>1630</ele>
        <time>2021-08-07T09:14:32.004Z</time>
      </trkpt>
      <trkpt lat="46.9114" lon="8.66616">
        <ele>1631</ele>
        <time>2021-08-07T09:14:33.003Z</time>
      </trkpt>
      <trkpt lat="46.91141" lon="8.66616">
        <ele>1631</ele>
        <time>2021-08-07T09:14:34.004Z</time>
      </trkpt>
      <trkpt lat="46.91142" lon="8.66616">
        <ele>1631</ele>
        <time>2021-08-07T09:14:35.004Z</time>
      </trkpt>
      <trkpt lat="46.91143" lon="8.66616">
        <ele>1631</ele>
        <time>2021-08-07T09:14:36.003Z</time>
      </trkpt>
      <trkpt lat="46.91144" lon="8.66616">
        <ele>1632</ele>
        <time>2021-08-07T09:14:37.004Z</time>
      </trkpt>
      <trkpt lat="46.91145" lon="8.66616">
        <ele>1632</ele>
        <time>2021-08-07T09:14:38.003Z</time>
      </trkpt>
      <trkpt lat="46.91146" lon="8.66616">
        <ele>1632</ele>
        <time>2021-08-07T09:14:39.004Z</time>
      </trkpt>
      <trkpt lat="46.91147" lon="8.66616">
        <ele>1632</ele>
        <time>2021-08-07T09:14:40.004Z</time>
      </trkpt>
      <trkpt lat="46.91149" lon="8.66616">
        <ele>1632</ele>
        <time>2021-08-07T09:14:41.004Z</time>
      </trkpt>
      <trkpt lat="46.9115" lon="8.66615">
        <ele>1632</ele>
        <time>2021-08-07T09:14:42.004Z</time>
      </trkpt>
      <trkpt lat="46.91151" lon="8.66615">
        <ele>1632</ele>
        <time>2021-08-07T09:14:43.003Z</time>
      </trkpt>
      <trkpt lat="46.91152" lon="8.66615">
        <ele>1632</ele>
        <time>2021-08-07T09:14:44.003Z</time>
      </trkpt>
      <trkpt lat="46.91153" lon="8.66614">
        <ele>1632</ele>
        <time>2021-08-07T09:14:45.004Z</time>
      </trkpt>
      <trkpt lat="46.91153" lon="8.66614">
        <ele>1632</ele>
        <time>2021-08-07T09:14:46.003Z</time>
      </trkpt>
      <trkpt lat="46.91154" lon="8.66614">
        <ele>1632</ele>
        <time>2021-08-07T09:14:47.004Z</time>
      </trkpt>
      <trkpt lat="46.91155" lon="8.66614">
        <ele>1632</ele>
        <time>2021-08-07T09:14:48.003Z</time>
      </trkpt>
      <trkpt lat="46.91156" lon="8.66614">
        <ele>1631</ele>
        <time>2021-08-07T09:14:49.004Z</time>
      </trkpt>
      <trkpt lat="46.91157" lon="8.66615">
        <ele>1631</ele>
        <time>2021-08-07T09:14:50.004Z</time>
      </trkpt>
      <trkpt lat="46.91158" lon="8.66613">
        <ele>1631</ele>
        <time>2021-08-07T09:14:51.003Z</time>
      </trkpt>
      <trkpt lat="46.91158" lon="8.66612">
        <ele>1631</ele>
        <time>2021-08-07T09:14:52.004Z</time>
      </trkpt>
      <trkpt lat="46.91158" lon="8.66611">
        <ele>1631</ele>
        <time>2021-08-07T09:14:53.003Z</time>
      </trkpt>
      <trkpt lat="46.91154" lon="8.6661">
        <ele>1632</ele>
        <time>2021-08-07T09:14:54.004Z</time>
      </trkpt>
      <trkpt lat="46.91154" lon="8.66608">
        <ele>1632</ele>
        <time>2021-08-07T09:14:55.004Z</time>
      </trkpt>
      <trkpt lat="46.91154" lon="8.66607">
        <ele>1632</ele>
        <time>2021-08-07T09:14:56.003Z</time>
      </trkpt>
      <trkpt lat="46.91154" lon="8.66606">
        <ele>1633</ele>
        <time>2021-08-07T09:14:57.003Z</time>
      </trkpt>
      <trkpt lat="46.91155" lon="8.66606">
        <ele>1633</ele>
        <time>2021-08-07T09:14:58.003Z</time>
      </trkpt>
      <trkpt lat="46.91156" lon="8.66607">
        <ele>1634</ele>
        <time>2021-08-07T09:14:59.003Z</time>
      </trkpt>
      <trkpt lat="46.91157" lon="8.66607">
        <ele>1634</ele>
        <time>2021-08-07T09:15:00.003Z</time>
      </trkpt>
      <trkpt lat="46.91158" lon="8.66608">
        <ele>1635</ele>
        <time>2021-08-07T09:15:01.003Z</time>
      </trkpt>
      <trkpt lat="46.91159" lon="8.66608">
        <ele>1635</ele>
        <time>2021-08-07T09:15:02.003Z</time>
      </trkpt>
      <trkpt lat="46.91159" lon="8.66609">
        <ele>1636</ele>
        <time>2021-08-07T09:15:03.003Z</time>
      </trkpt>
      <trkpt lat="46.9116" lon="8.66609">
        <ele>1636</ele>
        <time>2021-08-07T09:15:04.003Z</time>
      </trkpt>
      <trkpt lat="46.91161" lon="8.66609">
        <ele>1636</ele>
        <time>2021-08-07T09:15:05.003Z</time>
      </trkpt>
      <trkpt lat="46.91163" lon="8.66609">
        <ele>1637</ele>
        <time>2021-08-07T09:15:06.003Z</time>
      </trkpt>
      <trkpt lat="46.91164" lon="8.6661">
        <ele>1637</ele>
        <time>2021-08-07T09:15:07.003Z</time>
      </trkpt>
      <trkpt lat="46.91165" lon="8.6661">
        <ele>1637</ele>
        <time>2021-08-07T09:15:08.004Z</time>
      </trkpt>
      <trkpt lat="46.91166" lon="8.66611">
        <ele>1637</ele>
        <time>2021-08-07T09:15:09.003Z</time>
      </trkpt>
      <trkpt lat="46.91167" lon="8.66612">
        <ele>1638</ele>
        <time>2021-08-07T09:15:10.003Z</time>
      </trkpt>
      <trkpt lat="46.91168" lon="8.66612">
        <ele>1638</ele>
        <time>2021-08-07T09:15:11.004Z</time>
      </trkpt>
      <trkpt lat="46.91169" lon="8.66613">
        <ele>1638</ele>
        <time>2021-08-07T09:15:12.004Z</time>
      </trkpt>
      <trkpt lat="46.9117" lon="8.66615">
        <ele>1638</ele>
        <time>2021-08-07T09:15:13.003Z</time>
      </trkpt>
      <trkpt lat="46.9117" lon="8.66617">
        <ele>1639</ele>
        <time>2021-08-07T09:15:14.004Z</time>
      </trkpt>
      <trkpt lat="46.91172" lon="8.66619">
        <ele>1639</ele>
        <time>2021-08-07T09:15:15.003Z</time>
      </trkpt>
      <trkpt lat="46.91174" lon="8.66621">
        <ele>1639</ele>
        <time>2021-08-07T09:15:16.003Z</time>
      </trkpt>
      <trkpt lat="46.91175" lon="8.66623">
        <ele>1639</ele>
        <time>2021-08-07T09:15:17.004Z</time>
      </trkpt>
      <trkpt lat="46.91177" lon="8.66624">
        <ele>1638</ele>
        <time>2021-08-07T09:15:18.003Z</time>
      </trkpt>
      <trkpt lat="46.91178" lon="8.66624">
        <ele>1638</ele>
        <time>2021-08-07T09:15:19.003Z</time>
      </trkpt>
      <trkpt lat="46.9118" lon="8.66624">
        <ele>1638</ele>
        <time>2021-08-07T09:15:20.003Z</time>
      </trkpt>
      <trkpt lat="46.9118" lon="8.66624">
        <ele>1637</ele>
        <time>2021-08-07T09:15:21.004Z</time>
      </trkpt>
      <trkpt lat="46.91181" lon="8.66623">
        <ele>1637</ele>
        <time>2021-08-07T09:15:22.004Z</time>
      </trkpt>
      <trkpt lat="46.91182" lon="8.66623">
        <ele>1637</ele>
        <time>2021-08-07T09:15:23.004Z</time>
      </trkpt>
      <trkpt lat="46.91183" lon="8.66623">
        <ele>1636</ele>
        <time>2021-08-07T09:15:24.003Z</time>
      </trkpt>
      <trkpt lat="46.91184" lon="8.66623">
        <ele>1636</ele>
        <time>2021-08-07T09:15:25.003Z</time>
      </trkpt>
      <trkpt lat="46.91185" lon="8.66623">
        <ele>1636</ele>
        <time>2021-08-07T09:15:26.003Z</time>
      </trkpt>
      <trkpt lat="46.91185" lon="8.66622">
        <ele>1636</ele>
        <time>2021-08-07T09:15:27.004Z</time>
      </trkpt>
      <trkpt lat="46.91186" lon="8.66622">
        <ele>1636</ele>
        <time>2021-08-07T09:15:28.003Z</time>
      </trkpt>
      <trkpt lat="46.91187" lon="8.66622">
        <ele>1636</ele>
        <time>2021-08-07T09:15:29.003Z</time>
      </trkpt>
      <trkpt lat="46.91188" lon="8.66621">
        <ele>1636</ele>
        <time>2021-08-07T09:15:30.003Z</time>
      </trkpt>
      <trkpt lat="46.9119" lon="8.66621">
        <ele>1636</ele>
        <time>2021-08-07T09:15:31.003Z</time>
      </trkpt>
      <trkpt lat="46.91191" lon="8.66621">
        <ele>1635</ele>
        <time>2021-08-07T09:15:32.004Z</time>
      </trkpt>
      <trkpt lat="46.91193" lon="8.66621">
        <ele>1635</ele>
        <time>2021-08-07T09:15:33.003Z</time>
      </trkpt>
      <trkpt lat="46.91195" lon="8.66621">
        <ele>1635</ele>
        <time>2021-08-07T09:15:34.003Z</time>
      </trkpt>
      <trkpt lat="46.91196" lon="8.66621">
        <ele>1635</ele>
        <time>2021-08-07T09:15:35.003Z</time>
      </trkpt>
      <trkpt lat="46.91197" lon="8.66621">
        <ele>1635</ele>
        <time>2021-08-07T09:15:36.004Z</time>
      </trkpt>
      <trkpt lat="46.91198" lon="8.66621">
        <ele>1635</ele>
        <time>2021-08-07T09:15:37.003Z</time>
      </trkpt>
      <trkpt lat="46.91199" lon="8.66621">
        <ele>1635</ele>
        <time>2021-08-07T09:15:38.003Z</time>
      </trkpt>
      <trkpt lat="46.91199" lon="8.6662">
        <ele>1635</ele>
        <time>2021-08-07T09:15:39.003Z</time>
      </trkpt>
      <trkpt lat="46.91199" lon="8.66619">
        <ele>1634</ele>
        <time>2021-08-07T09:15:40.003Z</time>
      </trkpt>
      <trkpt lat="46.91199" lon="8.66619">
        <ele>1634</ele>
        <time>2021-08-07T09:15:41.003Z</time>
      </trkpt>
      <trkpt lat="46.912" lon="8.66618">
        <ele>1634</ele>
        <time>2021-08-07T09:15:42.003Z</time>
      </trkpt>
      <trkpt lat="46.912" lon="8.66617">
        <ele>1634</ele>
        <time>2021-08-07T09:15:43.004Z</time>
      </trkpt>
      <trkpt lat="46.91201" lon="8.66617">
        <ele>1634</ele>
        <time>2021-08-07T09:15:44.003Z</time>
      </trkpt>
      <trkpt lat="46.91202" lon="8.66617">
        <ele>1634</ele>
        <time>2021-08-07T09:15:45.003Z</time>
      </trkpt>
      <trkpt lat="46.91203" lon="8.66617">
        <ele>1634</ele>
        <time>2021-08-07T09:15:46.004Z</time>
      </trkpt>
      <trkpt lat="46.91204" lon="8.66617">
        <ele>1633</ele>
        <time>2021-08-07T09:15:47.004Z</time>
      </trkpt>
      <trkpt lat="46.91205" lon="8.66617">
        <ele>1633</ele>
        <time>2021-08-07T09:15:48.003Z</time>
      </trkpt>
      <trkpt lat="46.91206" lon="8.66616">
        <ele>1633</ele>
        <time>2021-08-07T09:15:49.003Z</time>
      </trkpt>
      <trkpt lat="46.91207" lon="8.66616">
        <ele>1633</ele>
        <time>2021-08-07T09:15:50.003Z</time>
      </trkpt>
      <trkpt lat="46.91207" lon="8.66616">
        <ele>1633</ele>
        <time>2021-08-07T09:15:51.003Z</time>
      </trkpt>
      <trkpt lat="46.91208" lon="8.66617">
        <ele>1633</ele>
        <time>2021-08-07T09:15:52.003Z</time>
      </trkpt>
      <trkpt lat="46.91209" lon="8.66617">
        <ele>1633</ele>
        <time>2021-08-07T09:15:53.003Z</time>
      </trkpt>
      <trkpt lat="46.9121" lon="8.66617">
        <ele>1633</ele>
        <time>2021-08-07T09:15:54.003Z</time>
      </trkpt>
      <trkpt lat="46.91211" lon="8.66617">
        <ele>1633</ele>
        <time>2021-08-07T09:15:55.004Z</time>
      </trkpt>
      <trkpt lat="46.91212" lon="8.66618">
        <ele>1633</ele>
        <time>2021-08-07T09:15:56.004Z</time>
      </trkpt>
      <trkpt lat="46.91213" lon="8.66618">
        <ele>1633</ele>
        <time>2021-08-07T09:15:57.004Z</time>
      </trkpt>
      <trkpt lat="46.91214" lon="8.66617">
        <ele>1633</ele>
        <time>2021-08-07T09:15:58.004Z</time>
      </trkpt>
      <trkpt lat="46.91215" lon="8.66616">
        <ele>1634</ele>
        <time>2021-08-07T09:15:59.003Z</time>
      </trkpt>
      <trkpt lat="46.91216" lon="8.66614">
        <ele>1634</ele>
        <time>2021-08-07T09:16:00.003Z</time>
      </trkpt>
      <trkpt lat="46.91218" lon="8.66612">
        <ele>1634</ele>
        <time>2021-08-07T09:16:01.004Z</time>
      </trkpt>
      <trkpt lat="46.91219" lon="8.66611">
        <ele>1634</ele>
        <time>2021-08-07T09:16:02.004Z</time>
      </trkpt>
      <trkpt lat="46.9122" lon="8.6661">
        <ele>1634</ele>
        <time>2021-08-07T09:16:03.004Z</time>
      </trkpt>
      <trkpt lat="46.9122" lon="8.66609">
        <ele>1634</ele>
        <time>2021-08-07T09:16:04.004Z</time>
      </trkpt>
      <trkpt lat="46.91221" lon="8.66608">
        <ele>1634</ele>
        <time>2021-08-07T09:16:05.004Z</time>
      </trkpt>
      <trkpt lat="46.91222" lon="8.66607">
        <ele>1633</ele>
        <time>2021-08-07T09:16:06.004Z</time>
      </trkpt>
      <trkpt lat="46.91223" lon="8.66606">
        <ele>1633</ele>
        <time>2021-08-07T09:16:07.004Z</time>
      </trkpt>
      <trkpt lat="46.91223" lon="8.66606">
        <ele>1633</ele>
        <time>2021-08-07T09:16:08.003Z</time>
      </trkpt>
      <trkpt lat="46.91224" lon="8.66605">
        <ele>1634</ele>
        <time>2021-08-07T09:16:09.004Z</time>
      </trkpt>
      <trkpt lat="46.91224" lon="8.66604">
        <ele>1634</ele>
        <time>2021-08-07T09:16:10.004Z</time>
      </trkpt>
      <trkpt lat="46.91225" lon="8.66603">
        <ele>1634</ele>
        <time>2021-08-07T09:16:11.004Z</time>
      </trkpt>
      <trkpt lat="46.91226" lon="8.66602">
        <ele>1635</ele>
        <time>2021-08-07T09:16:12.004Z</time>
      </trkpt>
      <trkpt lat="46.91227" lon="8.66601">
        <ele>1636</ele>
        <time>2021-08-07T09:16:13.003Z</time>
      </trkpt>
      <trkpt lat="46.91228" lon="8.666">
        <ele>1636</ele>
        <time>2021-08-07T09:16:14.004Z</time>
      </trkpt>
      <trkpt lat="46.91229" lon="8.66599">
        <ele>1637</ele>
        <time>2021-08-07T09:16:15.004Z</time>
      </trkpt>
      <trkpt lat="46.91231" lon="8.66598">
        <ele>1637</ele>
        <time>2021-08-07T09:16:16.004Z</time>
      </trkpt>
      <trkpt lat="46.91232" lon="8.66597">
        <ele>1637</ele>
        <time>2021-08-07T09:16:17.004Z</time>
      </trkpt>
      <trkpt lat="46.91232" lon="8.66597">
        <ele>1637</ele>
        <time>2021-08-07T09:16:18.003Z</time>
      </trkpt>
      <trkpt lat="46.91233" lon="8.66596">
        <ele>1638</ele>
        <time>2021-08-07T09:16:19.004Z</time>
      </trkpt>
      <trkpt lat="46.91234" lon="8.66595">
        <ele>1638</ele>
        <time>2021-08-07T09:16:20.004Z</time>
      </trkpt>
      <trkpt lat="46.91235" lon="8.66595">
        <ele>1638</ele>
        <time>2021-08-07T09:16:21.003Z</time>
      </trkpt>
      <trkpt lat="46.91236" lon="8.66594">
        <ele>1639</ele>
        <time>2021-08-07T09:16:22.003Z</time>
      </trkpt>
      <trkpt lat="46.91237" lon="8.66593">
        <ele>1639</ele>
        <time>2021-08-07T09:16:23.004Z</time>
      </trkpt>
      <trkpt lat="46.91238" lon="8.66592">
        <ele>1639</ele>
        <time>2021-08-07T09:16:24.003Z</time>
      </trkpt>
      <trkpt lat="46.91239" lon="8.66592">
        <ele>1639</ele>
        <time>2021-08-07T09:16:25.004Z</time>
      </trkpt>
      <trkpt lat="46.9124" lon="8.66592">
        <ele>1639</ele>
        <time>2021-08-07T09:16:26.004Z</time>
      </trkpt>
      <trkpt lat="46.91241" lon="8.66592">
        <ele>1639</ele>
        <time>2021-08-07T09:16:27.004Z</time>
      </trkpt>
      <trkpt lat="46.91242" lon="8.66592">
        <ele>1638</ele>
        <time>2021-08-07T09:16:28.004Z</time>
      </trkpt>
      <trkpt lat="46.91243" lon="8.66592">
        <ele>1638</ele>
        <time>2021-08-07T09:16:29.004Z</time>
      </trkpt>
      <trkpt lat="46.91244" lon="8.66592">
        <ele>1638</ele>
        <time>2021-08-07T09:16:30.004Z</time>
      </trkpt>
      <trkpt lat="46.91246" lon="8.66591">
        <ele>1638</ele>
        <time>2021-08-07T09:16:31.004Z</time>
      </trkpt>
      <trkpt lat="46.91246" lon="8.6659">
        <ele>1637</ele>
        <time>2021-08-07T09:16:32.003Z</time>
      </trkpt>
      <trkpt lat="46.91247" lon="8.6659">
        <ele>1637</ele>
        <time>2021-08-07T09:16:33.004Z</time>
      </trkpt>
      <trkpt lat="46.91248" lon="8.66589">
        <ele>1637</ele>
        <time>2021-08-07T09:16:34.003Z</time>
      </trkpt>
      <trkpt lat="46.91249" lon="8.6659">
        <ele>1637</ele>
        <time>2021-08-07T09:16:35.003Z</time>
      </trkpt>
      <trkpt lat="46.9125" lon="8.6659">
        <ele>1636</ele>
        <time>2021-08-07T09:16:36.004Z</time>
      </trkpt>
      <trkpt lat="46.91251" lon="8.66591">
        <ele>1636</ele>
        <time>2021-08-07T09:16:37.003Z</time>
      </trkpt>
      <trkpt lat="46.91251" lon="8.66592">
        <ele>1636</ele>
        <time>2021-08-07T09:16:38.004Z</time>
      </trkpt>
      <trkpt lat="46.91252" lon="8.66593">
        <ele>1635</ele>
        <time>2021-08-07T09:16:39.004Z</time>
      </trkpt>
      <trkpt lat="46.91253" lon="8.66593">
        <ele>1635</ele>
        <time>2021-08-07T09:16:40.004Z</time>
      </trkpt>
      <trkpt lat="46.91254" lon="8.66592">
        <ele>1635</ele>
        <time>2021-08-07T09:16:41.004Z</time>
      </trkpt>
      <trkpt lat="46.91256" lon="8.66591">
        <ele>1635</ele>
        <time>2021-08-07T09:16:42.004Z</time>
      </trkpt>
      <trkpt lat="46.91257" lon="8.66591">
        <ele>1635</ele>
        <time>2021-08-07T09:16:43.004Z</time>
      </trkpt>
      <trkpt lat="46.91258" lon="8.6659">
        <ele>1634</ele>
        <time>2021-08-07T09:16:44.004Z</time>
      </trkpt>
      <trkpt lat="46.91259" lon="8.6659">
        <ele>1634</ele>
        <time>2021-08-07T09:16:45.004Z</time>
      </trkpt>
      <trkpt lat="46.9126" lon="8.6659">
        <ele>1633</ele>
        <time>2021-08-07T09:16:46.004Z</time>
      </trkpt>
      <trkpt lat="46.91261" lon="8.66589">
        <ele>1633</ele>
        <time>2021-08-07T09:16:47.003Z</time>
      </trkpt>
      <trkpt lat="46.91262" lon="8.66589">
        <ele>1632</ele>
        <time>2021-08-07T09:16:48.004Z</time>
      </trkpt>
      <trkpt lat="46.91263" lon="8.66589">
        <ele>1632</ele>
        <time>2021-08-07T09:16:49.004Z</time>
      </trkpt>
      <trkpt lat="46.91265" lon="8.66589">
        <ele>1632</ele>
        <time>2021-08-07T09:16:50.004Z</time>
      </trkpt>
      <trkpt lat="46.91266" lon="8.66588">
        <ele>1631</ele>
        <time>2021-08-07T09:16:51.004Z</time>
      </trkpt>
      <trkpt lat="46.91267" lon="8.66588">
        <ele>1631</ele>
        <time>2021-08-07T09:16:52.004Z</time>
      </trkpt>
      <trkpt lat="46.91267" lon="8.66588">
        <ele>1631</ele>
        <time>2021-08-07T09:16:53.004Z</time>
      </trkpt>
      <trkpt lat="46.91269" lon="8.66588">
        <ele>1631</ele>
        <time>2021-08-07T09:16:54.004Z</time>
      </trkpt>
      <trkpt lat="46.9127" lon="8.66588">
        <ele>1630</ele>
        <time>2021-08-07T09:16:55.004Z</time>
      </trkpt>
      <trkpt lat="46.91271" lon="8.66588">
        <ele>1630</ele>
        <time>2021-08-07T09:16:56.003Z</time>
      </trkpt>
      <trkpt lat="46.91272" lon="8.66588">
        <ele>1630</ele>
        <time>2021-08-07T09:16:57.003Z</time>
      </trkpt>
      <trkpt lat="46.91273" lon="8.66588">
        <ele>1630</ele>
        <time>2021-08-07T09:16:58.004Z</time>
      </trkpt>
      <trkpt lat="46.91274" lon="8.66588">
        <ele>1630</ele>
        <time>2021-08-07T09:16:59.003Z</time>
      </trkpt>
      <trkpt lat="46.91275" lon="8.66588">
        <ele>1630</ele>
        <time>2021-08-07T09:17:00.003Z</time>
      </trkpt>
      <trkpt lat="46.91276" lon="8.66588">
        <ele>1630</ele>
        <time>2021-08-07T09:17:01.004Z</time>
      </trkpt>
      <trkpt lat="46.91278" lon="8.66588">
        <ele>1630</ele>
        <time>2021-08-07T09:17:02.004Z</time>
      </trkpt>
      <trkpt lat="46.91279" lon="8.66587">
        <ele>1630</ele>
        <time>2021-08-07T09:17:03.003Z</time>
      </trkpt>
      <trkpt lat="46.9128" lon="8.66587">
        <ele>1631</ele>
        <time>2021-08-07T09:17:04.004Z</time>
      </trkpt>
      <trkpt lat="46.91282" lon="8.66586">
        <ele>1631</ele>
        <time>2021-08-07T09:17:05.004Z</time>
      </trkpt>
      <trkpt lat="46.91283" lon="8.66585">
        <ele>1631</ele>
        <time>2021-08-07T09:17:06.004Z</time>
      </trkpt>
      <trkpt lat="46.91285" lon="8.66584">
        <ele>1631</ele>
        <time>2021-08-07T09:17:07.004Z</time>
      </trkpt>
      <trkpt lat="46.91287" lon="8.66582">
        <ele>1630</ele>
        <time>2021-08-07T09:17:08.003Z</time>
      </trkpt>
      <trkpt lat="46.91288" lon="8.66582">
        <ele>1630</ele>
        <time>2021-08-07T09:17:09.003Z</time>
      </trkpt>
      <trkpt lat="46.91289" lon="8.66581">
        <ele>1630</ele>
        <time>2021-08-07T09:17:10.003Z</time>
      </trkpt>
      <trkpt lat="46.91291" lon="8.6658">
        <ele>1630</ele>
        <time>2021-08-07T09:17:11.004Z</time>
      </trkpt>
      <trkpt lat="46.91291" lon="8.6658">
        <ele>1630</ele>
        <time>2021-08-07T09:17:12.004Z</time>
      </trkpt>
      <trkpt lat="46.91292" lon="8.66579">
        <ele>1630</ele>
        <time>2021-08-07T09:17:13.004Z</time>
      </trkpt>
      <trkpt lat="46.91293" lon="8.66577">
        <ele>1630</ele>
        <time>2021-08-07T09:17:14.003Z</time>
      </trkpt>
      <trkpt lat="46.91294" lon="8.66577">
        <ele>1630</ele>
        <time>2021-08-07T09:17:15.004Z</time>
      </trkpt>
      <trkpt lat="46.91295" lon="8.66576">
        <ele>1630</ele>
        <time>2021-08-07T09:17:16.003Z</time>
      </trkpt>
      <trkpt lat="46.91297" lon="8.66576">
        <ele>1630</ele>
        <time>2021-08-07T09:17:17.004Z</time>
      </trkpt>
      <trkpt lat="46.91298" lon="8.66575">
        <ele>1629</ele>
        <time>2021-08-07T09:17:18.004Z</time>
      </trkpt>
      <trkpt lat="46.913" lon="8.66574">
        <ele>1629</ele>
        <time>2021-08-07T09:17:19.004Z</time>
      </trkpt>
      <trkpt lat="46.91301" lon="8.66574">
        <ele>1629</ele>
        <time>2021-08-07T09:17:20.004Z</time>
      </trkpt>
      <trkpt lat="46.91302" lon="8.66573">
        <ele>1629</ele>
        <time>2021-08-07T09:17:21.003Z</time>
      </trkpt>
      <trkpt lat="46.91304" lon="8.66572">
        <ele>1628</ele>
        <time>2021-08-07T09:17:22.003Z</time>
      </trkpt>
      <trkpt lat="46.91305" lon="8.66572">
        <ele>1628</ele>
        <time>2021-08-07T09:17:23.004Z</time>
      </trkpt>
      <trkpt lat="46.91306" lon="8.66572">
        <ele>1629</ele>
        <time>2021-08-07T09:17:24.004Z</time>
      </trkpt>
      <trkpt lat="46.91307" lon="8.66571">
        <ele>1629</ele>
        <time>2021-08-07T09:17:25.004Z</time>
      </trkpt>
      <trkpt lat="46.91308" lon="8.6657">
        <ele>1630</ele>
        <time>2021-08-07T09:17:26.004Z</time>
      </trkpt>
      <trkpt lat="46.91309" lon="8.6657">
        <ele>1630</ele>
        <time>2021-08-07T09:17:27.004Z</time>
      </trkpt>
      <trkpt lat="46.9131" lon="8.66569">
        <ele>1631</ele>
        <time>2021-08-07T09:17:28.003Z</time>
      </trkpt>
      <trkpt lat="46.91312" lon="8.66568">
        <ele>1631</ele>
        <time>2021-08-07T09:17:29.004Z</time>
      </trkpt>
      <trkpt lat="46.91313" lon="8.66568">
        <ele>1631</ele>
        <time>2021-08-07T09:17:30.004Z</time>
      </trkpt>
      <trkpt lat="46.91314" lon="8.66567">
        <ele>1631</ele>
        <time>2021-08-07T09:17:31.004Z</time>
      </trkpt>
      <trkpt lat="46.91315" lon="8.66566">
        <ele>1630</ele>
        <time>2021-08-07T09:17:32.004Z</time>
      </trkpt>
      <trkpt lat="46.91316" lon="8.66566">
        <ele>1630</ele>
        <time>2021-08-07T09:17:33.004Z</time>
      </trkpt>
      <trkpt lat="46.91317" lon="8.66566">
        <ele>1629</ele>
        <time>2021-08-07T09:17:34.003Z</time>
      </trkpt>
      <trkpt lat="46.91318" lon="8.66565">
        <ele>1629</ele>
        <time>2021-08-07T09:17:35.003Z</time>
      </trkpt>
      <trkpt lat="46.91319" lon="8.66565">
        <ele>1628</ele>
        <time>2021-08-07T09:17:36.003Z</time>
      </trkpt>
      <trkpt lat="46.9132" lon="8.66564">
        <ele>1628</ele>
        <time>2021-08-07T09:17:37.004Z</time>
      </trkpt>
      <trkpt lat="46.91321" lon="8.66563">
        <ele>1627</ele>
        <time>2021-08-07T09:17:38.004Z</time>
      </trkpt>
      <trkpt lat="46.91322" lon="8.66563">
        <ele>1627</ele>
        <time>2021-08-07T09:17:39.004Z</time>
      </trkpt>
      <trkpt lat="46.91323" lon="8.66562">
        <ele>1626</ele>
        <time>2021-08-07T09:17:40.003Z</time>
      </trkpt>
      <trkpt lat="46.91324" lon="8.66562">
        <ele>1626</ele>
        <time>2021-08-07T09:17:41.004Z</time>
      </trkpt>
      <trkpt lat="46.91326" lon="8.66562">
        <ele>1625</ele>
        <time>2021-08-07T09:17:42.004Z</time>
      </trkpt>
      <trkpt lat="46.91327" lon="8.66561">
        <ele>1625</ele>
        <time>2021-08-07T09:17:43.003Z</time>
      </trkpt>
      <trkpt lat="46.91328" lon="8.66561">
        <ele>1624</ele>
        <time>2021-08-07T09:17:44.003Z</time>
      </trkpt>
      <trkpt lat="46.91328" lon="8.66561">
        <ele>1624</ele>
        <time>2021-08-07T09:17:45.003Z</time>
      </trkpt>
      <trkpt lat="46.91329" lon="8.6656">
        <ele>1624</ele>
        <time>2021-08-07T09:17:46.003Z</time>
      </trkpt>
      <trkpt lat="46.9133" lon="8.66559">
        <ele>1623</ele>
        <time>2021-08-07T09:17:47.004Z</time>
      </trkpt>
      <trkpt lat="46.91331" lon="8.66559">
        <ele>1623</ele>
        <time>2021-08-07T09:17:48.004Z</time>
      </trkpt>
      <trkpt lat="46.91332" lon="8.66558">
        <ele>1622</ele>
        <time>2021-08-07T09:17:49.004Z</time>
      </trkpt>
      <trkpt lat="46.91332" lon="8.66558">
        <ele>1622</ele>
        <time>2021-08-07T09:17:50.004Z</time>
      </trkpt>
      <trkpt lat="46.91332" lon="8.66558">
        <ele>1621</ele>
        <time>2021-08-07T09:17:51.003Z</time>
      </trkpt>
      <trkpt lat="46.91333" lon="8.66558">
        <ele>1621</ele>
        <time>2021-08-07T09:17:52.004Z</time>
      </trkpt>
      <trkpt lat="46.91333" lon="8.66558">
        <ele>1620</ele>
        <time>2021-08-07T09:17:53.004Z</time>
      </trkpt>
      <trkpt lat="46.91334" lon="8.66559">
        <ele>1620</ele>
        <time>2021-08-07T09:17:54.005Z</time>
      </trkpt>
      <trkpt lat="46.91334" lon="8.66559">
        <ele>1625</ele>
        <time>2021-08-07T09:17:55.005Z</time>
      </trkpt>
      <trkpt lat="46.91335" lon="8.6656">
        <ele>1625</ele>
        <time>2021-08-07T09:17:56.004Z</time>
      </trkpt>
      <trkpt lat="46.91335" lon="8.6656">
        <ele>1625</ele>
        <time>2021-08-07T09:17:57.004Z</time>
      </trkpt>
      <trkpt lat="46.91335" lon="8.6656">
        <ele>1625</ele>
        <time>2021-08-07T09:17:58.005Z</time>
      </trkpt>
      <trkpt lat="46.91335" lon="8.6656">
        <ele>1624</ele>
        <time>2021-08-07T09:17:59.005Z</time>
      </trkpt>
      <trkpt lat="46.91334" lon="8.6656">
        <ele>1624</ele>
        <time>2021-08-07T09:18:00.004Z</time>
      </trkpt>
      <trkpt lat="46.91334" lon="8.6656">
        <ele>1624</ele>
        <time>2021-08-07T09:18:01.004Z</time>
      </trkpt>
      <trkpt lat="46.91334" lon="8.6656">
        <ele>1624</ele>
        <time>2021-08-07T09:18:03.000Z</time>
      </trkpt>
      <trkpt lat="46.91334" lon="8.6656">
        <ele>1623</ele>
        <time>2021-08-07T09:18:04.000Z</time>
      </trkpt>
      <trkpt lat="46.91334" lon="8.6656">
        <ele>1623</ele>
        <time>2021-08-07T09:18:04.999Z</time>
      </trkpt>
      <trkpt lat="46.91335" lon="8.66558">
        <ele>1622</ele>
        <time>2021-08-07T09:18:06.000Z</time>
      </trkpt>
      <trkpt lat="46.91336" lon="8.66557">
        <ele>1622</ele>
        <time>2021-08-07T09:18:07.000Z</time>
      </trkpt>
      <trkpt lat="46.91336" lon="8.66557">
        <ele>1621</ele>
        <time>2021-08-07T09:18:08.000Z</time>
      </trkpt>
      <trkpt lat="46.91336" lon="8.66556">
        <ele>1621</ele>
        <time>2021-08-07T09:18:09.001Z</time>
      </trkpt>
      <trkpt lat="46.91336" lon="8.66556">
        <ele>1621</ele>
        <time>2021-08-07T09:18:10.001Z</time>
      </trkpt>
      <trkpt lat="46.91337" lon="8.66555">
        <ele>1620</ele>
        <time>2021-08-07T09:18:11.000Z</time>
      </trkpt>
      <trkpt lat="46.91336" lon="8.66554">
        <ele>1620</ele>
        <time>2021-08-07T09:18:12.000Z</time>
      </trkpt>
      <trkpt lat="46.91336" lon="8.66553">
        <ele>1620</ele>
        <time>2021-08-07T09:18:13.000Z</time>
      </trkpt>
      <trkpt lat="46.91336" lon="8.66553">
        <ele>1620</ele>
        <time>2021-08-07T09:18:14.001Z</time>
      </trkpt>
      <trkpt lat="46.91335" lon="8.66552">
        <ele>1619</ele>
        <time>2021-08-07T09:18:15.001Z</time>
      </trkpt>
      <trkpt lat="46.91335" lon="8.66551">
        <ele>1619</ele>
        <time>2021-08-07T09:18:16.001Z</time>
      </trkpt>
      <trkpt lat="46.91334" lon="8.66551">
        <ele>1619</ele>
        <time>2021-08-07T09:18:17.000Z</time>
      </trkpt>
      <trkpt lat="46.91335" lon="8.66547">
        <ele>1619</ele>
        <time>2021-08-07T09:18:18.001Z</time>
      </trkpt>
      <trkpt lat="46.91336" lon="8.66546">
        <ele>1618</ele>
        <time>2021-08-07T09:18:19.001Z</time>
      </trkpt>
      <trkpt lat="46.91336" lon="8.66545">
        <ele>1618</ele>
        <time>2021-08-07T09:18:21.148Z</time>
      </trkpt>
      <trkpt lat="46.91336" lon="8.66544">
        <ele>1617</ele>
        <time>2021-08-07T09:18:22.987Z</time>
      </trkpt>
      <trkpt lat="46.91336" lon="8.66542">
        <ele>1617</ele>
        <time>2021-08-07T09:18:23.987Z</time>
      </trkpt>
      <trkpt lat="46.91337" lon="8.66541">
        <ele>1616</ele>
        <time>2021-08-07T09:18:24.987Z</time>
      </trkpt>
      <trkpt lat="46.91337" lon="8.66539">
        <ele>1616</ele>
        <time>2021-08-07T09:18:52.068Z</time>
      </trkpt>
      <trkpt lat="46.91338" lon="8.66537">
        <ele>1616</ele>
        <time>2021-08-07T09:18:53.068Z</time>
      </trkpt>
      <trkpt lat="46.91338" lon="8.66535">
        <ele>1616</ele>
        <time>2021-08-07T09:18:54.067Z</time>
      </trkpt>
      <trkpt lat="46.91338" lon="8.66534">
        <ele>1616</ele>
        <time>2021-08-07T09:18:55.068Z</time>
      </trkpt>
      <trkpt lat="46.91339" lon="8.66532">
        <ele>1616</ele>
        <time>2021-08-07T09:18:56.067Z</time>
      </trkpt>
      <trkpt lat="46.91339" lon="8.66531">
        <ele>1616</ele>
        <time>2021-08-07T09:18:57.067Z</time>
      </trkpt>
      <trkpt lat="46.91338" lon="8.66529">
        <ele>1615</ele>
        <time>2021-08-07T09:18:58.068Z</time>
      </trkpt>
      <trkpt lat="46.91338" lon="8.66527">
        <ele>1615</ele>
        <time>2021-08-07T09:18:59.067Z</time>
      </trkpt>
      <trkpt lat="46.91337" lon="8.66526">
        <ele>1614</ele>
        <time>2021-08-07T09:19:00.068Z</time>
      </trkpt>
      <trkpt lat="46.91336" lon="8.66524">
        <ele>1614</ele>
        <time>2021-08-07T09:19:01.068Z</time>
      </trkpt>
      <trkpt lat="46.91337" lon="8.66522">
        <ele>1613</ele>
        <time>2021-08-07T09:19:02.068Z</time>
      </trkpt>
      <trkpt lat="46.91337" lon="8.66521">
        <ele>1613</ele>
        <time>2021-08-07T09:19:09.146Z</time>
      </trkpt>
      <trkpt lat="46.91337" lon="8.66519">
        <ele>1613</ele>
        <time>2021-08-07T09:19:10.146Z</time>
      </trkpt>
      <trkpt lat="46.91337" lon="8.66517">
        <ele>1613</ele>
        <time>2021-08-07T09:19:24.006Z</time>
      </trkpt>
      <trkpt lat="46.91337" lon="8.66516">
        <ele>1613</ele>
        <time>2021-08-07T09:19:25.006Z</time>
      </trkpt>
      <trkpt lat="46.91337" lon="8.66516">
        <ele>1613</ele>
        <time>2021-08-07T09:19:26.007Z</time>
      </trkpt>
      <trkpt lat="46.91336" lon="8.66516">
        <ele>1613</ele>
        <time>2021-08-07T09:19:27.007Z</time>
      </trkpt>
      <trkpt lat="46.91337" lon="8.66516">
        <ele>1613</ele>
        <time>2021-08-07T09:19:28.007Z</time>
      </trkpt>
      <trkpt lat="46.91335" lon="8.66515">
        <ele>1612</ele>
        <time>2021-08-07T09:19:30.046Z</time>
      </trkpt>
      <trkpt lat="46.91335" lon="8.66515">
        <ele>1612</ele>
        <time>2021-08-07T09:19:31.046Z</time>
      </trkpt>
      <trkpt lat="46.91335" lon="8.66515">
        <ele>1612</ele>
        <time>2021-08-07T09:19:32.045Z</time>
      </trkpt>
      <trkpt lat="46.91334" lon="8.66513">
        <ele>1614</ele>
        <time>2021-08-07T09:19:33.048Z</time>
      </trkpt>
      <trkpt lat="46.91335" lon="8.66512">
        <ele>1614</ele>
        <time>2021-08-07T09:19:34.048Z</time>
      </trkpt>
      <trkpt lat="46.91335" lon="8.66511">
        <ele>1614</ele>
        <time>2021-08-07T09:19:35.047Z</time>
      </trkpt>
      <trkpt lat="46.91336" lon="8.6651">
        <ele>1613</ele>
        <time>2021-08-07T09:19:36.048Z</time>
      </trkpt>
      <trkpt lat="46.91335" lon="8.66508">
        <ele>1613</ele>
        <time>2021-08-07T09:19:37.048Z</time>
      </trkpt>
      <trkpt lat="46.91335" lon="8.66507">
        <ele>1613</ele>
        <time>2021-08-07T09:19:38.047Z</time>
      </trkpt>
      <trkpt lat="46.91334" lon="8.66506">
        <ele>1613</ele>
        <time>2021-08-07T09:19:39.047Z</time>
      </trkpt>
      <trkpt lat="46.91334" lon="8.66505">
        <ele>1613</ele>
        <time>2021-08-07T09:19:40.048Z</time>
      </trkpt>
      <trkpt lat="46.91335" lon="8.66504">
        <ele>1613</ele>
        <time>2021-08-07T09:19:41.048Z</time>
      </trkpt>
      <trkpt lat="46.91336" lon="8.66503">
        <ele>1613</ele>
        <time>2021-08-07T09:19:42.048Z</time>
      </trkpt>
      <trkpt lat="46.91336" lon="8.66503">
        <ele>1612</ele>
        <time>2021-08-07T09:19:43.048Z</time>
      </trkpt>
      <trkpt lat="46.91336" lon="8.66502">
        <ele>1612</ele>
        <time>2021-08-07T09:19:44.048Z</time>
      </trkpt>
      <trkpt lat="46.91336" lon="8.66501">
        <ele>1612</ele>
        <time>2021-08-07T09:19:45.048Z</time>
      </trkpt>
      <trkpt lat="46.91336" lon="8.66499">
        <ele>1612</ele>
        <time>2021-08-07T09:19:46.048Z</time>
      </trkpt>
      <trkpt lat="46.91336" lon="8.66498">
        <ele>1611</ele>
        <time>2021-08-07T09:19:47.048Z</time>
      </trkpt>
      <trkpt lat="46.91336" lon="8.66497">
        <ele>1611</ele>
        <time>2021-08-07T09:19:48.048Z</time>
      </trkpt>
      <trkpt lat="46.91336" lon="8.66496">
        <ele>1610</ele>
        <time>2021-08-07T09:19:49.048Z</time>
      </trkpt>
      <trkpt lat="46.91336" lon="8.66495">
        <ele>1610</ele>
        <time>2021-08-07T09:19:50.048Z</time>
      </trkpt>
      <trkpt lat="46.91336" lon="8.66495">
        <ele>1610</ele>
        <time>2021-08-07T09:19:51.047Z</time>
      </trkpt>
      <trkpt lat="46.91333" lon="8.66494">
        <ele>1611</ele>
        <time>2021-08-07T09:19:52.049Z</time>
      </trkpt>
      <trkpt lat="46.91333" lon="8.66494">
        <ele>1612</ele>
        <time>2021-08-07T09:19:53.049Z</time>
      </trkpt>
      <trkpt lat="46.91332" lon="8.66494">
        <ele>1613</ele>
        <time>2021-08-07T09:19:54.048Z</time>
      </trkpt>
      <trkpt lat="46.91331" lon="8.66494">
        <ele>1613</ele>
        <time>2021-08-07T09:19:55.049Z</time>
      </trkpt>
      <trkpt lat="46.91331" lon="8.66494">
        <ele>1614</ele>
        <time>2021-08-07T09:19:56.048Z</time>
      </trkpt>
      <trkpt lat="46.9133" lon="8.66493">
        <ele>1614</ele>
        <time>2021-08-07T09:19:57.049Z</time>
      </trkpt>
      <trkpt lat="46.91333" lon="8.6649">
        <ele>1612</ele>
        <time>2021-08-07T09:19:58.049Z</time>
      </trkpt>
      <trkpt lat="46.91334" lon="8.6649">
        <ele>1612</ele>
        <time>2021-08-07T09:19:59.048Z</time>
      </trkpt>
      <trkpt lat="46.91334" lon="8.66488">
        <ele>1614</ele>
        <time>2021-08-07T09:20:00.048Z</time>
      </trkpt>
      <trkpt lat="46.91334" lon="8.66488">
        <ele>1614</ele>
        <time>2021-08-07T09:20:01.048Z</time>
      </trkpt>
      <trkpt lat="46.91335" lon="8.66488">
        <ele>1614</ele>
        <time>2021-08-07T09:20:02.048Z</time>
      </trkpt>
      <trkpt lat="46.91335" lon="8.66488">
        <ele>1614</ele>
        <time>2021-08-07T09:20:03.048Z</time>
      </trkpt>
      <trkpt lat="46.91335" lon="8.66489">
        <ele>1614</ele>
        <time>2021-08-07T09:20:04.048Z</time>
      </trkpt>
      <trkpt lat="46.91334" lon="8.6649">
        <ele>1614</ele>
        <time>2021-08-07T09:20:05.048Z</time>
      </trkpt>
      <trkpt lat="46.91331" lon="8.66487">
        <ele>1610</ele>
        <time>2021-08-07T09:20:06.048Z</time>
      </trkpt>
      <trkpt lat="46.91329" lon="8.66487">
        <ele>1610</ele>
        <time>2021-08-07T09:20:07.049Z</time>
      </trkpt>
      <trkpt lat="46.91329" lon="8.66487">
        <ele>1610</ele>
        <time>2021-08-07T09:20:08.048Z</time>
      </trkpt>
      <trkpt lat="46.91329" lon="8.66487">
        <ele>1610</ele>
        <time>2021-08-07T09:20:09.049Z</time>
      </trkpt>
      <trkpt lat="46.9133" lon="8.66489">
        <ele>1611</ele>
        <time>2021-08-07T09:20:10.050Z</time>
      </trkpt>
      <trkpt lat="46.91329" lon="8.66489">
        <ele>1611</ele>
        <time>2021-08-07T09:20:11.050Z</time>
      </trkpt>
      <trkpt lat="46.91329" lon="8.66489">
        <ele>1611</ele>
        <time>2021-08-07T09:20:12.050Z</time>
      </trkpt>
      <trkpt lat="46.91328" lon="8.66489">
        <ele>1612</ele>
        <time>2021-08-07T09:20:13.049Z</time>
      </trkpt>
      <trkpt lat="46.91328" lon="8.66489">
        <ele>1612</ele>
        <time>2021-08-07T09:20:14.050Z</time>
      </trkpt>
      <trkpt lat="46.91327" lon="8.66491">
        <ele>1613</ele>
        <time>2021-08-07T09:20:15.051Z</time>
      </trkpt>
      <trkpt lat="46.91326" lon="8.66492">
        <ele>1613</ele>
        <time>2021-08-07T09:20:16.051Z</time>
      </trkpt>
      <trkpt lat="46.91326" lon="8.66492">
        <ele>1613</ele>
        <time>2021-08-07T09:20:17.051Z</time>
      </trkpt>
      <trkpt lat="46.91325" lon="8.66493">
        <ele>1613</ele>
        <time>2021-08-07T09:20:18.051Z</time>
      </trkpt>
      <trkpt lat="46.91324" lon="8.66493">
        <ele>1613</ele>
        <time>2021-08-07T09:20:19.051Z</time>
      </trkpt>
      <trkpt lat="46.91323" lon="8.66493">
        <ele>1613</ele>
        <time>2021-08-07T09:20:20.051Z</time>
      </trkpt>
      <trkpt lat="46.91322" lon="8.66494">
        <ele>1613</ele>
        <time>2021-08-07T09:20:21.051Z</time>
      </trkpt>
      <trkpt lat="46.91321" lon="8.66495">
        <ele>1612</ele>
        <time>2021-08-07T09:20:22.051Z</time>
      </trkpt>
      <trkpt lat="46.91319" lon="8.66495">
        <ele>1612</ele>
        <time>2021-08-07T09:20:23.051Z</time>
      </trkpt>
      <trkpt lat="46.91318" lon="8.66495">
        <ele>1612</ele>
        <time>2021-08-07T09:20:24.050Z</time>
      </trkpt>
      <trkpt lat="46.91317" lon="8.66495">
        <ele>1612</ele>
        <time>2021-08-07T09:20:25.051Z</time>
      </trkpt>
      <trkpt lat="46.91316" lon="8.66494">
        <ele>1612</ele>
        <time>2021-08-07T09:20:26.050Z</time>
      </trkpt>
      <trkpt lat="46.91314" lon="8.66493">
        <ele>1612</ele>
        <time>2021-08-07T09:20:27.050Z</time>
      </trkpt>
      <trkpt lat="46.91313" lon="8.66492">
        <ele>1612</ele>
        <time>2021-08-07T09:20:28.051Z</time>
      </trkpt>
      <trkpt lat="46.91312" lon="8.66492">
        <ele>1612</ele>
        <time>2021-08-07T09:20:29.051Z</time>
      </trkpt>
      <trkpt lat="46.91311" lon="8.66492">
        <ele>1611</ele>
        <time>2021-08-07T09:20:30.051Z</time>
      </trkpt>
      <trkpt lat="46.9131" lon="8.66493">
        <ele>1611</ele>
        <time>2021-08-07T09:20:31.050Z</time>
      </trkpt>
      <trkpt lat="46.91309" lon="8.66492">
        <ele>1611</ele>
        <time>2021-08-07T09:20:32.050Z</time>
      </trkpt>
      <trkpt lat="46.91308" lon="8.66492">
        <ele>1610</ele>
        <time>2021-08-07T09:20:33.050Z</time>
      </trkpt>
      <trkpt lat="46.91308" lon="8.66493">
        <ele>1610</ele>
        <time>2021-08-07T09:20:34.051Z</time>
      </trkpt>
      <trkpt lat="46.91309" lon="8.66493">
        <ele>1610</ele>
        <time>2021-08-07T09:20:35.050Z</time>
      </trkpt>
      <trkpt lat="46.91309" lon="8.66493">
        <ele>1610</ele>
        <time>2021-08-07T09:20:36.050Z</time>
      </trkpt>
      <trkpt lat="46.91309" lon="8.66492">
        <ele>1610</ele>
        <time>2021-08-07T09:20:37.050Z</time>
      </trkpt>
      <trkpt lat="46.91308" lon="8.66492">
        <ele>1610</ele>
        <time>2021-08-07T09:20:38.051Z</time>
      </trkpt>
      <trkpt lat="46.91308" lon="8.66492">
        <ele>1610</ele>
        <time>2021-08-07T09:20:39.050Z</time>
      </trkpt>
      <trkpt lat="46.91307" lon="8.66492">
        <ele>1610</ele>
        <time>2021-08-07T09:20:40.051Z</time>
      </trkpt>
      <trkpt lat="46.91306" lon="8.66492">
        <ele>1610</ele>
        <time>2021-08-07T09:20:41.051Z</time>
      </trkpt>
      <trkpt lat="46.91306" lon="8.66492">
        <ele>1610</ele>
        <time>2021-08-07T09:20:42.050Z</time>
      </trkpt>
      <trkpt lat="46.91306" lon="8.66492">
        <ele>1610</ele>
        <time>2021-08-07T09:20:43.051Z</time>
      </trkpt>
      <trkpt lat="46.91306" lon="8.66493">
        <ele>1609</ele>
        <time>2021-08-07T09:20:44.051Z</time>
      </trkpt>
      <trkpt lat="46.91305" lon="8.66493">
        <ele>1609</ele>
        <time>2021-08-07T09:20:45.051Z</time>
      </trkpt>
      <trkpt lat="46.91304" lon="8.66493">
        <ele>1609</ele>
        <time>2021-08-07T09:20:46.051Z</time>
      </trkpt>
      <trkpt lat="46.91304" lon="8.66493">
        <ele>1609</ele>
        <time>2021-08-07T09:20:47.050Z</time>
      </trkpt>
      <trkpt lat="46.91303" lon="8.66492">
        <ele>1609</ele>
        <time>2021-08-07T09:20:48.050Z</time>
      </trkpt>
      <trkpt lat="46.91302" lon="8.66491">
        <ele>1609</ele>
        <time>2021-08-07T09:20:49.050Z</time>
      </trkpt>
      <trkpt lat="46.913" lon="8.66491">
        <ele>1609</ele>
        <time>2021-08-07T09:20:50.050Z</time>
      </trkpt>
      <trkpt lat="46.91299" lon="8.66491">
        <ele>1609</ele>
        <time>2021-08-07T09:20:51.051Z</time>
      </trkpt>
      <trkpt lat="46.91297" lon="8.66491">
        <ele>1609</ele>
        <time>2021-08-07T09:20:52.051Z</time>
      </trkpt>
      <trkpt lat="46.91296" lon="8.66491">
        <ele>1609</ele>
        <time>2021-08-07T09:20:53.050Z</time>
      </trkpt>
      <trkpt lat="46.91295" lon="8.66491">
        <ele>1609</ele>
        <time>2021-08-07T09:20:54.050Z</time>
      </trkpt>
      <trkpt lat="46.91294" lon="8.66491">
        <ele>1609</ele>
        <time>2021-08-07T09:20:55.051Z</time>
      </trkpt>
      <trkpt lat="46.91293" lon="8.66491">
        <ele>1609</ele>
        <time>2021-08-07T09:20:56.050Z</time>
      </trkpt>
      <trkpt lat="46.91293" lon="8.66491">
        <ele>1610</ele>
        <time>2021-08-07T09:20:57.051Z</time>
      </trkpt>
      <trkpt lat="46.91293" lon="8.6649">
        <ele>1610</ele>
        <time>2021-08-07T09:20:58.050Z</time>
      </trkpt>
      <trkpt lat="46.91293" lon="8.66491">
        <ele>1611</ele>
        <time>2021-08-07T09:20:59.052Z</time>
      </trkpt>
      <trkpt lat="46.91293" lon="8.66492">
        <ele>1611</ele>
        <time>2021-08-07T09:21:00.052Z</time>
      </trkpt>
      <trkpt lat="46.91293" lon="8.66492">
        <ele>1611</ele>
        <time>2021-08-07T09:21:01.051Z</time>
      </trkpt>
      <trkpt lat="46.91292" lon="8.66492">
        <ele>1611</ele>
        <time>2021-08-07T09:21:02.051Z</time>
      </trkpt>
      <trkpt lat="46.91291" lon="8.66492">
        <ele>1612</ele>
        <time>2021-08-07T09:21:03.052Z</time>
      </trkpt>
      <trkpt lat="46.9129" lon="8.66491">
        <ele>1612</ele>
        <time>2021-08-07T09:21:04.052Z</time>
      </trkpt>
      <trkpt lat="46.9129" lon="8.66491">
        <ele>1612</ele>
        <time>2021-08-07T09:21:05.052Z</time>
      </trkpt>
      <trkpt lat="46.9129" lon="8.66491">
        <ele>1612</ele>
        <time>2021-08-07T09:21:06.051Z</time>
      </trkpt>
      <trkpt lat="46.9129" lon="8.66492">
        <ele>1612</ele>
        <time>2021-08-07T09:21:07.052Z</time>
      </trkpt>
      <trkpt lat="46.91291" lon="8.66492">
        <ele>1612</ele>
        <time>2021-08-07T09:21:08.052Z</time>
      </trkpt>
      <trkpt lat="46.91291" lon="8.66493">
        <ele>1612</ele>
        <time>2021-08-07T09:21:09.052Z</time>
      </trkpt>
      <trkpt lat="46.91292" lon="8.66494">
        <ele>1612</ele>
        <time>2021-08-07T09:21:10.051Z</time>
      </trkpt>
      <trkpt lat="46.91293" lon="8.66495">
        <ele>1613</ele>
        <time>2021-08-07T09:21:11.052Z</time>
      </trkpt>
      <trkpt lat="46.91293" lon="8.66495">
        <ele>1613</ele>
        <time>2021-08-07T09:21:12.051Z</time>
      </trkpt>
      <trkpt lat="46.91293" lon="8.66494">
        <ele>1614</ele>
        <time>2021-08-07T09:21:13.051Z</time>
      </trkpt>
      <trkpt lat="46.91293" lon="8.66494">
        <ele>1614</ele>
        <time>2021-08-07T09:21:14.051Z</time>
      </trkpt>
      <trkpt lat="46.91295" lon="8.66496">
        <ele>1614</ele>
        <time>2021-08-07T09:21:15.051Z</time>
      </trkpt>
      <trkpt lat="46.91295" lon="8.66499">
        <ele>1614</ele>
        <time>2021-08-07T09:21:16.053Z</time>
      </trkpt>
      <trkpt lat="46.91295" lon="8.66499">
        <ele>1614</ele>
        <time>2021-08-07T09:21:17.053Z</time>
      </trkpt>
      <trkpt lat="46.91295" lon="8.66499">
        <ele>1614</ele>
        <time>2021-08-07T09:21:18.053Z</time>
      </trkpt>
      <trkpt lat="46.91293" lon="8.66496">
        <ele>1615</ele>
        <time>2021-08-07T09:21:19.054Z</time>
      </trkpt>
      <trkpt lat="46.91295" lon="8.66496">
        <ele>1616</ele>
        <time>2021-08-07T09:21:20.054Z</time>
      </trkpt>
      <trkpt lat="46.91295" lon="8.66496">
        <ele>1616</ele>
        <time>2021-08-07T09:21:21.054Z</time>
      </trkpt>
      <trkpt lat="46.91295" lon="8.66496">
        <ele>1617</ele>
        <time>2021-08-07T09:21:22.053Z</time>
      </trkpt>
      <trkpt lat="46.91293" lon="8.66494">
        <ele>1617</ele>
        <time>2021-08-07T09:21:23.054Z</time>
      </trkpt>
      <trkpt lat="46.91292" lon="8.66494">
        <ele>1617</ele>
        <time>2021-08-07T09:21:24.055Z</time>
      </trkpt>
      <trkpt lat="46.91293" lon="8.66494">
        <ele>1616</ele>
        <time>2021-08-07T09:21:25.054Z</time>
      </trkpt>
      <trkpt lat="46.91293" lon="8.66494">
        <ele>1616</ele>
        <time>2021-08-07T09:21:26.055Z</time>
      </trkpt>
      <trkpt lat="46.91293" lon="8.66494">
        <ele>1617</ele>
        <time>2021-08-07T09:21:27.054Z</time>
      </trkpt>
      <trkpt lat="46.91293" lon="8.66494">
        <ele>1617</ele>
        <time>2021-08-07T09:21:28.055Z</time>
      </trkpt>
      <trkpt lat="46.91298" lon="8.66496">
        <ele>1617</ele>
        <time>2021-08-07T09:21:29.055Z</time>
      </trkpt>
      <trkpt lat="46.91298" lon="8.66496">
        <ele>1617</ele>
        <time>2021-08-07T09:21:30.056Z</time>
      </trkpt>
      <trkpt lat="46.91298" lon="8.66495">
        <ele>1617</ele>
        <time>2021-08-07T09:21:31.055Z</time>
      </trkpt>
      <trkpt lat="46.91298" lon="8.66495">
        <ele>1617</ele>
        <time>2021-08-07T09:21:40.139Z</time>
      </trkpt>
      <trkpt lat="46.91298" lon="8.66495">
        <ele>1616</ele>
        <time>2021-08-07T09:21:41.138Z</time>
      </trkpt>
      <trkpt lat="46.91299" lon="8.66496">
        <ele>1616</ele>
        <time>2021-08-07T09:22:04.015Z</time>
      </trkpt>
      <trkpt lat="46.91299" lon="8.66496">
        <ele>1616</ele>
        <time>2021-08-07T09:22:05.014Z</time>
      </trkpt>
      <trkpt lat="46.91298" lon="8.66497">
        <ele>1616</ele>
        <time>2021-08-07T09:22:06.014Z</time>
      </trkpt>
      <trkpt lat="46.91298" lon="8.66497">
        <ele>1616</ele>
        <time>2021-08-07T09:22:07.015Z</time>
      </trkpt>
      <trkpt lat="46.91297" lon="8.66498">
        <ele>1616</ele>
        <time>2021-08-07T09:22:08.015Z</time>
      </trkpt>
      <trkpt lat="46.91297" lon="8.66499">
        <ele>1616</ele>
        <time>2021-08-07T09:22:09.015Z</time>
      </trkpt>
      <trkpt lat="46.91296" lon="8.665">
        <ele>1616</ele>
        <time>2021-08-07T09:22:10.015Z</time>
      </trkpt>
      <trkpt lat="46.91296" lon="8.66501">
        <ele>1616</ele>
        <time>2021-08-07T09:22:11.015Z</time>
      </trkpt>
      <trkpt lat="46.91296" lon="8.66502">
        <ele>1617</ele>
        <time>2021-08-07T09:22:15.172Z</time>
      </trkpt>
      <trkpt lat="46.91296" lon="8.66503">
        <ele>1617</ele>
        <time>2021-08-07T09:22:16.173Z</time>
      </trkpt>
      <trkpt lat="46.91296" lon="8.66503">
        <ele>1617</ele>
        <time>2021-08-07T09:22:17.172Z</time>
      </trkpt>
      <trkpt lat="46.91295" lon="8.66504">
        <ele>1617</ele>
        <time>2021-08-07T09:22:18.172Z</time>
      </trkpt>
      <trkpt lat="46.91295" lon="8.66505">
        <ele>1616</ele>
        <time>2021-08-07T09:22:19.173Z</time>
      </trkpt>
      <trkpt lat="46.91295" lon="8.66506">
        <ele>1616</ele>
        <time>2021-08-07T09:22:20.173Z</time>
      </trkpt>
      <trkpt lat="46.91295" lon="8.66507">
        <ele>1616</ele>
        <time>2021-08-07T09:22:21.173Z</time>
      </trkpt>
      <trkpt lat="46.91295" lon="8.66508">
        <ele>1616</ele>
        <time>2021-08-07T09:22:22.173Z</time>
      </trkpt>
      <trkpt lat="46.91295" lon="8.66509">
        <ele>1616</ele>
        <time>2021-08-07T09:22:23.173Z</time>
      </trkpt>
      <trkpt lat="46.91295" lon="8.66509">
        <ele>1617</ele>
        <time>2021-08-07T09:22:25.178Z</time>
      </trkpt>
      <trkpt lat="46.91294" lon="8.6651">
        <ele>1617</ele>
        <time>2021-08-07T09:22:26.178Z</time>
      </trkpt>
      <trkpt lat="46.91294" lon="8.66511">
        <ele>1617</ele>
        <time>2021-08-07T09:22:27.178Z</time>
      </trkpt>
      <trkpt lat="46.91294" lon="8.66513">
        <ele>1617</ele>
        <time>2021-08-07T09:22:28.178Z</time>
      </trkpt>
      <trkpt lat="46.91294" lon="8.66514">
        <ele>1618</ele>
        <time>2021-08-07T09:22:29.179Z</time>
      </trkpt>
      <trkpt lat="46.91294" lon="8.66515">
        <ele>1618</ele>
        <time>2021-08-07T09:22:30.178Z</time>
      </trkpt>
      <trkpt lat="46.91294" lon="8.66515">
        <ele>1618</ele>
        <time>2021-08-07T09:22:31.178Z</time>
      </trkpt>
      <trkpt lat="46.91295" lon="8.66516">
        <ele>1619</ele>
        <time>2021-08-07T09:22:32.179Z</time>
      </trkpt>
      <trkpt lat="46.91295" lon="8.66516">
        <ele>1619</ele>
        <time>2021-08-07T09:22:33.178Z</time>
      </trkpt>
      <trkpt lat="46.91295" lon="8.66517">
        <ele>1619</ele>
        <time>2021-08-07T09:22:34.179Z</time>
      </trkpt>
      <trkpt lat="46.91295" lon="8.66517">
        <ele>1619</ele>
        <time>2021-08-07T09:22:35.178Z</time>
      </trkpt>
      <trkpt lat="46.91292" lon="8.66517">
        <ele>1618</ele>
        <time>2021-08-07T09:22:36.179Z</time>
      </trkpt>
      <trkpt lat="46.91293" lon="8.66517">
        <ele>1618</ele>
        <time>2021-08-07T09:22:37.179Z</time>
      </trkpt>
      <trkpt lat="46.91295" lon="8.66516">
        <ele>1618</ele>
        <time>2021-08-07T09:22:38.179Z</time>
      </trkpt>
      <trkpt lat="46.91295" lon="8.66516">
        <ele>1617</ele>
        <time>2021-08-07T09:22:39.179Z</time>
      </trkpt>
      <trkpt lat="46.91295" lon="8.66516">
        <ele>1617</ele>
        <time>2021-08-07T09:22:40.178Z</time>
      </trkpt>
      <trkpt lat="46.91296" lon="8.66516">
        <ele>1617</ele>
        <time>2021-08-07T09:22:41.178Z</time>
      </trkpt>
      <trkpt lat="46.91293" lon="8.66519">
        <ele>1611</ele>
        <time>2021-08-07T09:22:42.179Z</time>
      </trkpt>
      <trkpt lat="46.91292" lon="8.66519">
        <ele>1611</ele>
        <time>2021-08-07T09:22:43.178Z</time>
      </trkpt>
      <trkpt lat="46.91292" lon="8.66519">
        <ele>1611</ele>
        <time>2021-08-07T09:22:44.178Z</time>
      </trkpt>
      <trkpt lat="46.91294" lon="8.66516">
        <ele>1621</ele>
        <time>2021-08-07T09:22:45.178Z</time>
      </trkpt>
      <trkpt lat="46.91294" lon="8.66516">
        <ele>1621</ele>
        <time>2021-08-07T09:22:46.178Z</time>
      </trkpt>
      <trkpt lat="46.91294" lon="8.66516">
        <ele>1621</ele>
        <time>2021-08-07T09:22:47.180Z</time>
      </trkpt>
      <trkpt lat="46.91295" lon="8.66516">
        <ele>1622</ele>
        <time>2021-08-07T09:22:48.180Z</time>
      </trkpt>
      <trkpt lat="46.91295" lon="8.66516">
        <ele>1622</ele>
        <time>2021-08-07T09:22:49.179Z</time>
      </trkpt>
      <trkpt lat="46.91295" lon="8.66517">
        <ele>1623</ele>
        <time>2021-08-07T09:22:50.180Z</time>
      </trkpt>
      <trkpt lat="46.91294" lon="8.66517">
        <ele>1623</ele>
        <time>2021-08-07T09:22:51.180Z</time>
      </trkpt>
      <trkpt lat="46.91295" lon="8.66515">
        <ele>1621</ele>
        <time>2021-08-07T09:22:52.179Z</time>
      </trkpt>
      <trkpt lat="46.91296" lon="8.66515">
        <ele>1621</ele>
        <time>2021-08-07T09:22:53.179Z</time>
      </trkpt>
      <trkpt lat="46.91296" lon="8.66515">
        <ele>1621</ele>
        <time>2021-08-07T09:22:54.179Z</time>
      </trkpt>
      <trkpt lat="46.91296" lon="8.66515">
        <ele>1620</ele>
        <time>2021-08-07T09:22:55.179Z</time>
      </trkpt>
      <trkpt lat="46.91294" lon="8.66514">
        <ele>1618</ele>
        <time>2021-08-07T09:22:56.180Z</time>
      </trkpt>
      <trkpt lat="46.91294" lon="8.66514">
        <ele>1618</ele>
        <time>2021-08-07T09:22:57.181Z</time>
      </trkpt>
      <trkpt lat="46.91294" lon="8.66514">
        <ele>1618</ele>
        <time>2021-08-07T09:22:58.180Z</time>
      </trkpt>
      <trkpt lat="46.91295" lon="8.66514">
        <ele>1618</ele>
        <time>2021-08-07T09:22:59.180Z</time>
      </trkpt>
      <trkpt lat="46.91295" lon="8.66515">
        <ele>1618</ele>
        <time>2021-08-07T09:23:00.180Z</time>
      </trkpt>
      <trkpt lat="46.91295" lon="8.66515">
        <ele>1618</ele>
        <time>2021-08-07T09:23:01.180Z</time>
      </trkpt>
      <trkpt lat="46.91293" lon="8.66514">
        <ele>1621</ele>
        <time>2021-08-07T09:23:02.182Z</time>
      </trkpt>
      <trkpt lat="46.91293" lon="8.66514">
        <ele>1621</ele>
        <time>2021-08-07T09:23:03.181Z</time>
      </trkpt>
      <trkpt lat="46.91293" lon="8.66514">
        <ele>1622</ele>
        <time>2021-08-07T09:23:04.181Z</time>
      </trkpt>
      <trkpt lat="46.91293" lon="8.66514">
        <ele>1622</ele>
        <time>2021-08-07T09:23:05.181Z</time>
      </trkpt>
      <trkpt lat="46.91294" lon="8.66514">
        <ele>1622</ele>
        <time>2021-08-07T09:23:06.181Z</time>
      </trkpt>
      <trkpt lat="46.91295" lon="8.66515">
        <ele>1622</ele>
        <time>2021-08-07T09:23:09.280Z</time>
      </trkpt>
      <trkpt lat="46.91295" lon="8.66516">
        <ele>1621</ele>
        <time>2021-08-07T09:23:10.280Z</time>
      </trkpt>
      <trkpt lat="46.913" lon="8.66515">
        <ele>1613</ele>
        <time>2021-08-07T09:23:11.280Z</time>
      </trkpt>
      <trkpt lat="46.913" lon="8.66515">
        <ele>1613</ele>
        <time>2021-08-07T09:23:12.281Z</time>
      </trkpt>
      <trkpt lat="46.91299" lon="8.66515">
        <ele>1613</ele>
        <time>2021-08-07T09:23:13.280Z</time>
      </trkpt>
      <trkpt lat="46.91301" lon="8.66515">
        <ele>1615</ele>
        <time>2021-08-07T09:23:14.281Z</time>
      </trkpt>
      <trkpt lat="46.913" lon="8.66515">
        <ele>1615</ele>
        <time>2021-08-07T09:23:15.281Z</time>
      </trkpt>
      <trkpt lat="46.913" lon="8.66515">
        <ele>1616</ele>
        <time>2021-08-07T09:23:16.281Z</time>
      </trkpt>
      <trkpt lat="46.91299" lon="8.66515">
        <ele>1616</ele>
        <time>2021-08-07T09:23:17.281Z</time>
      </trkpt>
      <trkpt lat="46.913" lon="8.66515">
        <ele>1616</ele>
        <time>2021-08-07T09:23:18.281Z</time>
      </trkpt>
      <trkpt lat="46.913" lon="8.66515">
        <ele>1616</ele>
        <time>2021-08-07T09:23:19.280Z</time>
      </trkpt>
      <trkpt lat="46.913" lon="8.66515">
        <ele>1617</ele>
        <time>2021-08-07T09:23:20.281Z</time>
      </trkpt>
      <trkpt lat="46.913" lon="8.66515">
        <ele>1618</ele>
        <time>2021-08-07T09:23:21.281Z</time>
      </trkpt>
      <trkpt lat="46.913" lon="8.66515">
        <ele>1619</ele>
        <time>2021-08-07T09:23:22.281Z</time>
      </trkpt>
      <trkpt lat="46.91298" lon="8.66513">
        <ele>1622</ele>
        <time>2021-08-07T09:23:23.281Z</time>
      </trkpt>
      <trkpt lat="46.91299" lon="8.66512">
        <ele>1622</ele>
        <time>2021-08-07T09:23:24.280Z</time>
      </trkpt>
      <trkpt lat="46.91299" lon="8.66512">
        <ele>1622</ele>
        <time>2021-08-07T09:23:25.280Z</time>
      </trkpt>
      <trkpt lat="46.913" lon="8.66513">
        <ele>1622</ele>
        <time>2021-08-07T09:23:26.281Z</time>
      </trkpt>
      <trkpt lat="46.913" lon="8.66514">
        <ele>1623</ele>
        <time>2021-08-07T09:23:27.280Z</time>
      </trkpt>
      <trkpt lat="46.913" lon="8.66514">
        <ele>1623</ele>
        <time>2021-08-07T09:23:28.281Z</time>
      </trkpt>
      <trkpt lat="46.91299" lon="8.66515">
        <ele>1621</ele>
        <time>2021-08-07T09:23:29.280Z</time>
      </trkpt>
      <trkpt lat="46.91299" lon="8.66515">
        <ele>1621</ele>
        <time>2021-08-07T09:23:30.280Z</time>
      </trkpt>
      <trkpt lat="46.91296" lon="8.66517">
        <ele>1618</ele>
        <time>2021-08-07T09:23:31.280Z</time>
      </trkpt>
      <trkpt lat="46.91297" lon="8.66517">
        <ele>1617</ele>
        <time>2021-08-07T09:23:32.280Z</time>
      </trkpt>
      <trkpt lat="46.91296" lon="8.66517">
        <ele>1617</ele>
        <time>2021-08-07T09:23:33.280Z</time>
      </trkpt>
      <trkpt lat="46.91295" lon="8.66516">
        <ele>1617</ele>
        <time>2021-08-07T09:23:34.281Z</time>
      </trkpt>
      <trkpt lat="46.91294" lon="8.66516">
        <ele>1617</ele>
        <time>2021-08-07T09:23:35.280Z</time>
      </trkpt>
      <trkpt lat="46.91294" lon="8.66515">
        <ele>1618</ele>
        <time>2021-08-07T09:23:36.281Z</time>
      </trkpt>
      <trkpt lat="46.91294" lon="8.66515">
        <ele>1618</ele>
        <time>2021-08-07T09:23:37.281Z</time>
      </trkpt>
      <trkpt lat="46.91294" lon="8.66517">
        <ele>1616</ele>
        <time>2021-08-07T09:23:38.283Z</time>
      </trkpt>
      <trkpt lat="46.91295" lon="8.66517">
        <ele>1616</ele>
        <time>2021-08-07T09:23:39.283Z</time>
      </trkpt>
      <trkpt lat="46.91295" lon="8.66517">
        <ele>1616</ele>
        <time>2021-08-07T09:23:40.282Z</time>
      </trkpt>
      <trkpt lat="46.91295" lon="8.66517">
        <ele>1617</ele>
        <time>2021-08-07T09:23:41.284Z</time>
      </trkpt>
      <trkpt lat="46.91295" lon="8.66516">
        <ele>1617</ele>
        <time>2021-08-07T09:23:42.284Z</time>
      </trkpt>
      <trkpt lat="46.91295" lon="8.66516">
        <ele>1616</ele>
        <time>2021-08-07T09:23:43.283Z</time>
      </trkpt>
      <trkpt lat="46.91297" lon="8.66517">
        <ele>1614</ele>
        <time>2021-08-07T09:23:44.285Z</time>
      </trkpt>
      <trkpt lat="46.91297" lon="8.66517">
        <ele>1614</ele>
        <time>2021-08-07T09:23:45.285Z</time>
      </trkpt>
      <trkpt lat="46.91297" lon="8.66517">
        <ele>1614</ele>
        <time>2021-08-07T09:23:46.284Z</time>
      </trkpt>
      <trkpt lat="46.91297" lon="8.66516">
        <ele>1614</ele>
        <time>2021-08-07T09:23:47.284Z</time>
      </trkpt>
      <trkpt lat="46.91296" lon="8.66516">
        <ele>1616</ele>
        <time>2021-08-07T09:23:48.287Z</time>
      </trkpt>
      <trkpt lat="46.91296" lon="8.66516">
        <ele>1616</ele>
        <time>2021-08-07T09:23:49.287Z</time>
      </trkpt>
      <trkpt lat="46.91297" lon="8.66517">
        <ele>1616</ele>
        <time>2021-08-07T09:23:50.287Z</time>
      </trkpt>
      <trkpt lat="46.91295" lon="8.66518">
        <ele>1618</ele>
        <time>2021-08-07T09:23:51.288Z</time>
      </trkpt>
      <trkpt lat="46.91297" lon="8.66518">
        <ele>1618</ele>
        <time>2021-08-07T09:23:52.287Z</time>
      </trkpt>
      <trkpt lat="46.91298" lon="8.66518">
        <ele>1618</ele>
        <time>2021-08-07T09:23:53.287Z</time>
      </trkpt>
      <trkpt lat="46.91298" lon="8.66519">
        <ele>1619</ele>
        <time>2021-08-07T09:23:58.420Z</time>
      </trkpt>
      <trkpt lat="46.91299" lon="8.66519">
        <ele>1619</ele>
        <time>2021-08-07T09:23:59.421Z</time>
      </trkpt>
      <trkpt lat="46.913" lon="8.66519">
        <ele>1619</ele>
        <time>2021-08-07T09:24:00.421Z</time>
      </trkpt>
      <trkpt lat="46.913" lon="8.66519">
        <ele>1619</ele>
        <time>2021-08-07T09:24:01.421Z</time>
      </trkpt>
      <trkpt lat="46.91299" lon="8.66519">
        <ele>1620</ele>
        <time>2021-08-07T09:24:02.420Z</time>
      </trkpt>
      <trkpt lat="46.91299" lon="8.66519">
        <ele>1620</ele>
        <time>2021-08-07T09:24:03.421Z</time>
      </trkpt>
      <trkpt lat="46.91299" lon="8.6652">
        <ele>1620</ele>
        <time>2021-08-07T09:24:12.562Z</time>
      </trkpt>
      <trkpt lat="46.91299" lon="8.6652">
        <ele>1620</ele>
        <time>2021-08-07T09:24:13.563Z</time>
      </trkpt>
      <trkpt lat="46.91298" lon="8.6652">
        <ele>1620</ele>
        <time>2021-08-07T09:24:14.562Z</time>
      </trkpt>
      <trkpt lat="46.91298" lon="8.6652">
        <ele>1622</ele>
        <time>2021-08-07T09:24:15.562Z</time>
      </trkpt>
      <trkpt lat="46.91296" lon="8.66516">
        <ele>1618</ele>
        <time>2021-08-07T09:24:21.652Z</time>
      </trkpt>
      <trkpt lat="46.91296" lon="8.66516">
        <ele>1618</ele>
        <time>2021-08-07T09:24:22.652Z</time>
      </trkpt>
      <trkpt lat="46.91296" lon="8.66516">
        <ele>1618</ele>
        <time>2021-08-07T09:24:23.652Z</time>
      </trkpt>
      <trkpt lat="46.91296" lon="8.66515">
        <ele>1622</ele>
        <time>2021-08-07T09:24:38.671Z</time>
      </trkpt>
      <trkpt lat="46.91296" lon="8.66515">
        <ele>1622</ele>
        <time>2021-08-07T09:24:39.670Z</time>
      </trkpt>
      <trkpt lat="46.91296" lon="8.66515">
        <ele>1622</ele>
        <time>2021-08-07T09:24:40.670Z</time>
      </trkpt>
      <trkpt lat="46.91296" lon="8.66515">
        <ele>1621</ele>
        <time>2021-08-07T09:24:41.671Z</time>
      </trkpt>
      <trkpt lat="46.91296" lon="8.66515">
        <ele>1621</ele>
        <time>2021-08-07T09:24:42.671Z</time>
      </trkpt>
      <trkpt lat="46.91296" lon="8.66516">
        <ele>1619</ele>
        <time>2021-08-07T09:24:43.672Z</time>
      </trkpt>
      <trkpt lat="46.91296" lon="8.66515">
        <ele>1619</ele>
        <time>2021-08-07T09:24:44.671Z</time>
      </trkpt>
      <trkpt lat="46.91296" lon="8.66515">
        <ele>1622</ele>
        <time>2021-08-07T09:24:45.673Z</time>
      </trkpt>
      <trkpt lat="46.91296" lon="8.66515">
        <ele>1622</ele>
        <time>2021-08-07T09:24:46.672Z</time>
      </trkpt>
      <trkpt lat="46.91296" lon="8.66515">
        <ele>1622</ele>
        <time>2021-08-07T09:24:48.814Z</time>
      </trkpt>
      <trkpt lat="46.91295" lon="8.66514">
        <ele>1619</ele>
        <time>2021-08-07T09:24:49.815Z</time>
      </trkpt>
      <trkpt lat="46.91295" lon="8.66514">
        <ele>1619</ele>
        <time>2021-08-07T09:24:50.814Z</time>
      </trkpt>
      <trkpt lat="46.91296" lon="8.66514">
        <ele>1619</ele>
        <time>2021-08-07T09:24:51.814Z</time>
      </trkpt>
      <trkpt lat="46.91295" lon="8.66514">
        <ele>1618</ele>
        <time>2021-08-07T09:24:52.814Z</time>
      </trkpt>
      <trkpt lat="46.91295" lon="8.66514">
        <ele>1618</ele>
        <time>2021-08-07T09:24:53.814Z</time>
      </trkpt>
      <trkpt lat="46.91295" lon="8.66513">
        <ele>1621</ele>
        <time>2021-08-07T09:24:54.815Z</time>
      </trkpt>
      <trkpt lat="46.91295" lon="8.66513">
        <ele>1621</ele>
        <time>2021-08-07T09:24:55.815Z</time>
      </trkpt>
      <trkpt lat="46.91294" lon="8.66512">
        <ele>1621</ele>
        <time>2021-08-07T09:24:56.814Z</time>
      </trkpt>
      <trkpt lat="46.91293" lon="8.66512">
        <ele>1623</ele>
        <time>2021-08-07T09:24:57.817Z</time>
      </trkpt>
      <trkpt lat="46.91293" lon="8.66512">
        <ele>1623</ele>
        <time>2021-08-07T09:24:58.816Z</time>
      </trkpt>
      <trkpt lat="46.91295" lon="8.66512">
        <ele>1623</ele>
        <time>2021-08-07T09:24:59.817Z</time>
      </trkpt>
      <trkpt lat="46.91296" lon="8.66512">
        <ele>1623</ele>
        <time>2021-08-07T09:25:00.816Z</time>
      </trkpt>
      <trkpt lat="46.91295" lon="8.66511">
        <ele>1624</ele>
        <time>2021-08-07T09:25:01.817Z</time>
      </trkpt>
      <trkpt lat="46.91295" lon="8.66511">
        <ele>1624</ele>
        <time>2021-08-07T09:25:02.817Z</time>
      </trkpt>
      <trkpt lat="46.91295" lon="8.66511">
        <ele>1624</ele>
        <time>2021-08-07T09:25:03.817Z</time>
      </trkpt>
      <trkpt lat="46.91294" lon="8.66513">
        <ele>1622</ele>
        <time>2021-08-07T09:25:07.915Z</time>
      </trkpt>
      <trkpt lat="46.91294" lon="8.66514">
        <ele>1622</ele>
        <time>2021-08-07T09:25:08.914Z</time>
      </trkpt>
      <trkpt lat="46.91295" lon="8.66514">
        <ele>1622</ele>
        <time>2021-08-07T09:25:09.914Z</time>
      </trkpt>
      <trkpt lat="46.91295" lon="8.66514">
        <ele>1623</ele>
        <time>2021-08-07T09:25:10.915Z</time>
      </trkpt>
      <trkpt lat="46.91295" lon="8.66514">
        <ele>1623</ele>
        <time>2021-08-07T09:25:11.914Z</time>
      </trkpt>
      <trkpt lat="46.91295" lon="8.66514">
        <ele>1624</ele>
        <time>2021-08-07T09:25:12.914Z</time>
      </trkpt>
      <trkpt lat="46.91296" lon="8.66514">
        <ele>1625</ele>
        <time>2021-08-07T09:25:13.915Z</time>
      </trkpt>
      <trkpt lat="46.91296" lon="8.66514">
        <ele>1625</ele>
        <time>2021-08-07T09:25:14.914Z</time>
      </trkpt>
      <trkpt lat="46.91296" lon="8.66514">
        <ele>1626</ele>
        <time>2021-08-07T09:25:15.915Z</time>
      </trkpt>
      <trkpt lat="46.91294" lon="8.66517">
        <ele>1618</ele>
        <time>2021-08-07T09:25:16.915Z</time>
      </trkpt>
      <trkpt lat="46.91294" lon="8.66516">
        <ele>1618</ele>
        <time>2021-08-07T09:25:17.915Z</time>
      </trkpt>
      <trkpt lat="46.91294" lon="8.66516">
        <ele>1618</ele>
        <time>2021-08-07T09:25:18.915Z</time>
      </trkpt>
      <trkpt lat="46.91294" lon="8.66516">
        <ele>1621</ele>
        <time>2021-08-07T09:25:19.916Z</time>
      </trkpt>
      <trkpt lat="46.91294" lon="8.66516">
        <ele>1621</ele>
        <time>2021-08-07T09:25:20.916Z</time>
      </trkpt>
      <trkpt lat="46.91294" lon="8.66516">
        <ele>1621</ele>
        <time>2021-08-07T09:25:21.916Z</time>
      </trkpt>
      <trkpt lat="46.91294" lon="8.66515">
        <ele>1620</ele>
        <time>2021-08-07T09:25:22.916Z</time>
      </trkpt>
      <trkpt lat="46.91293" lon="8.66515">
        <ele>1620</ele>
        <time>2021-08-07T09:25:23.917Z</time>
      </trkpt>
      <trkpt lat="46.91292" lon="8.66515">
        <ele>1620</ele>
        <time>2021-08-07T09:25:24.916Z</time>
      </trkpt>
      <trkpt lat="46.91293" lon="8.66515">
        <ele>1620</ele>
        <time>2021-08-07T09:25:25.916Z</time>
      </trkpt>
      <trkpt lat="46.91293" lon="8.66516">
        <ele>1620</ele>
        <time>2021-08-07T09:25:26.916Z</time>
      </trkpt>
      <trkpt lat="46.91295" lon="8.66515">
        <ele>1623</ele>
        <time>2021-08-07T09:25:27.916Z</time>
      </trkpt>
      <trkpt lat="46.91295" lon="8.66515">
        <ele>1624</ele>
        <time>2021-08-07T09:25:28.916Z</time>
      </trkpt>
      <trkpt lat="46.91295" lon="8.66515">
        <ele>1624</ele>
        <time>2021-08-07T09:25:29.917Z</time>
      </trkpt>
      <trkpt lat="46.91294" lon="8.66516">
        <ele>1618</ele>
        <time>2021-08-07T09:25:30.917Z</time>
      </trkpt>
      <trkpt lat="46.91292" lon="8.66517">
        <ele>1617</ele>
        <time>2021-08-07T09:25:31.918Z</time>
      </trkpt>
      <trkpt lat="46.91292" lon="8.66517">
        <ele>1617</ele>
        <time>2021-08-07T09:25:32.917Z</time>
      </trkpt>
      <trkpt lat="46.91291" lon="8.66516">
        <ele>1617</ele>
        <time>2021-08-07T09:25:33.917Z</time>
      </trkpt>
      <trkpt lat="46.9129" lon="8.66516">
        <ele>1618</ele>
        <time>2021-08-07T09:25:34.918Z</time>
      </trkpt>
      <trkpt lat="46.9129" lon="8.66515">
        <ele>1618</ele>
        <time>2021-08-07T09:25:35.918Z</time>
      </trkpt>
      <trkpt lat="46.91289" lon="8.66515">
        <ele>1619</ele>
        <time>2021-08-07T09:25:36.918Z</time>
      </trkpt>
      <trkpt lat="46.91289" lon="8.66514">
        <ele>1620</ele>
        <time>2021-08-07T09:25:37.918Z</time>
      </trkpt>
      <trkpt lat="46.91289" lon="8.66514">
        <ele>1620</ele>
        <time>2021-08-07T09:25:38.917Z</time>
      </trkpt>
      <trkpt lat="46.9129" lon="8.66514">
        <ele>1621</ele>
        <time>2021-08-07T09:25:39.917Z</time>
      </trkpt>
      <trkpt lat="46.9129" lon="8.66514">
        <ele>1621</ele>
        <time>2021-08-07T09:25:49.041Z</time>
      </trkpt>
      <trkpt lat="46.91291" lon="8.66514">
        <ele>1621</ele>
        <time>2021-08-07T09:25:50.040Z</time>
      </trkpt>
      <trkpt lat="46.91291" lon="8.66513">
        <ele>1621</ele>
        <time>2021-08-07T09:25:51.041Z</time>
      </trkpt>
      <trkpt lat="46.91294" lon="8.66515">
        <ele>1620</ele>
        <time>2021-08-07T09:25:52.042Z</time>
      </trkpt>
      <trkpt lat="46.91294" lon="8.66515">
        <ele>1620</ele>
        <time>2021-08-07T09:25:53.042Z</time>
      </trkpt>
      <trkpt lat="46.91294" lon="8.66516">
        <ele>1618</ele>
        <time>2021-08-07T09:25:54.042Z</time>
      </trkpt>
      <trkpt lat="46.91295" lon="8.66515">
        <ele>1616</ele>
        <time>2021-08-07T09:25:56.171Z</time>
      </trkpt>
      <trkpt lat="46.91294" lon="8.66515">
        <ele>1620</ele>
        <time>2021-08-07T09:25:57.170Z</time>
      </trkpt>
      <trkpt lat="46.91298" lon="8.66516">
        <ele>1619</ele>
        <time>2021-08-07T09:25:58.171Z</time>
      </trkpt>
      <trkpt lat="46.91298" lon="8.66516">
        <ele>1619</ele>
        <time>2021-08-07T09:25:59.171Z</time>
      </trkpt>
      <trkpt lat="46.91298" lon="8.66516">
        <ele>1619</ele>
        <time>2021-08-07T09:26:07.289Z</time>
      </trkpt>
      <trkpt lat="46.91292" lon="8.66517">
        <ele>1618</ele>
        <time>2021-08-07T09:26:08.289Z</time>
      </trkpt>
      <trkpt lat="46.91292" lon="8.66517">
        <ele>1619</ele>
        <time>2021-08-07T09:26:09.290Z</time>
      </trkpt>
      <trkpt lat="46.91291" lon="8.66517">
        <ele>1619</ele>
        <time>2021-08-07T09:26:11.402Z</time>
      </trkpt>
      <trkpt lat="46.91291" lon="8.66517">
        <ele>1619</ele>
        <time>2021-08-07T09:26:12.402Z</time>
      </trkpt>
      <trkpt lat="46.91291" lon="8.66517">
        <ele>1619</ele>
        <time>2021-08-07T09:26:13.403Z</time>
      </trkpt>
      <trkpt lat="46.91292" lon="8.66517">
        <ele>1619</ele>
        <time>2021-08-07T09:26:14.403Z</time>
      </trkpt>
      <trkpt lat="46.91291" lon="8.66517">
        <ele>1620</ele>
        <time>2021-08-07T09:26:15.403Z</time>
      </trkpt>
      <trkpt lat="46.91291" lon="8.66517">
        <ele>1620</ele>
        <time>2021-08-07T09:26:16.402Z</time>
      </trkpt>
      <trkpt lat="46.91295" lon="8.66521">
        <ele>1615</ele>
        <time>2021-08-07T09:26:17.403Z</time>
      </trkpt>
      <trkpt lat="46.91295" lon="8.66521">
        <ele>1614</ele>
        <time>2021-08-07T09:26:18.403Z</time>
      </trkpt>
      <trkpt lat="46.91296" lon="8.66519">
        <ele>1612</ele>
        <time>2021-08-07T09:26:19.403Z</time>
      </trkpt>
      <trkpt lat="46.91296" lon="8.66518">
        <ele>1612</ele>
        <time>2021-08-07T09:26:20.403Z</time>
      </trkpt>
      <trkpt lat="46.91296" lon="8.66518">
        <ele>1613</ele>
        <time>2021-08-07T09:26:21.279Z</time>
      </trkpt>
      <trkpt lat="46.91293" lon="8.66518">
        <ele>1618</ele>
        <time>2021-08-07T09:26:22.280Z</time>
      </trkpt>
      <trkpt lat="46.91292" lon="8.66518">
        <ele>1618</ele>
        <time>2021-08-07T09:26:23.279Z</time>
      </trkpt>
      <trkpt lat="46.91292" lon="8.66518">
        <ele>1618</ele>
        <time>2021-08-07T09:26:24.279Z</time>
      </trkpt>
      <trkpt lat="46.91294" lon="8.66519">
        <ele>1617</ele>
        <time>2021-08-07T09:26:25.280Z</time>
      </trkpt>
      <trkpt lat="46.91295" lon="8.66519">
        <ele>1620</ele>
        <time>2021-08-07T09:26:26.279Z</time>
      </trkpt>
      <trkpt lat="46.91298" lon="8.66518">
        <ele>1619</ele>
        <time>2021-08-07T09:26:27.281Z</time>
      </trkpt>
      <trkpt lat="46.91297" lon="8.66519">
        <ele>1618</ele>
        <time>2021-08-07T09:26:28.282Z</time>
      </trkpt>
      <trkpt lat="46.91297" lon="8.6652">
        <ele>1618</ele>
        <time>2021-08-07T09:26:29.282Z</time>
      </trkpt>
      <trkpt lat="46.91297" lon="8.6652">
        <ele>1618</ele>
        <time>2021-08-07T09:26:30.282Z</time>
      </trkpt>
      <trkpt lat="46.91297" lon="8.6652">
        <ele>1618</ele>
        <time>2021-08-07T09:26:31.282Z</time>
      </trkpt>
      <trkpt lat="46.91296" lon="8.66519">
        <ele>1618</ele>
        <time>2021-08-07T09:26:32.282Z</time>
      </trkpt>
      <trkpt lat="46.91296" lon="8.66518">
        <ele>1621</ele>
        <time>2021-08-07T09:26:33.283Z</time>
      </trkpt>
      <trkpt lat="46.91296" lon="8.66518">
        <ele>1621</ele>
        <time>2021-08-07T09:26:34.283Z</time>
      </trkpt>
      <trkpt lat="46.91294" lon="8.66516">
        <ele>1624</ele>
        <time>2021-08-07T09:26:35.282Z</time>
      </trkpt>
      <trkpt lat="46.91294" lon="8.66515">
        <ele>1624</ele>
        <time>2021-08-07T09:26:36.282Z</time>
      </trkpt>
      <trkpt lat="46.91294" lon="8.66515">
        <ele>1625</ele>
        <time>2021-08-07T09:26:37.283Z</time>
      </trkpt>
      <trkpt lat="46.91293" lon="8.66515">
        <ele>1625</ele>
        <time>2021-08-07T09:26:38.284Z</time>
      </trkpt>
      <trkpt lat="46.91293" lon="8.66515">
        <ele>1625</ele>
        <time>2021-08-07T09:26:39.284Z</time>
      </trkpt>
      <trkpt lat="46.91293" lon="8.66515">
        <ele>1625</ele>
        <time>2021-08-07T09:26:40.283Z</time>
      </trkpt>
      <trkpt lat="46.91294" lon="8.66516">
        <ele>1625</ele>
        <time>2021-08-07T09:26:41.283Z</time>
      </trkpt>
      <trkpt lat="46.91294" lon="8.66514">
        <ele>1621</ele>
        <time>2021-08-07T09:26:42.285Z</time>
      </trkpt>
      <trkpt lat="46.91294" lon="8.66514">
        <ele>1621</ele>
        <time>2021-08-07T09:26:44.429Z</time>
      </trkpt>
      <trkpt lat="46.91294" lon="8.66514">
        <ele>1622</ele>
        <time>2021-08-07T09:26:45.428Z</time>
      </trkpt>
      <trkpt lat="46.91293" lon="8.66515">
        <ele>1622</ele>
        <time>2021-08-07T09:26:46.429Z</time>
      </trkpt>
      <trkpt lat="46.91293" lon="8.66514">
        <ele>1623</ele>
        <time>2021-08-07T09:26:47.428Z</time>
      </trkpt>
      <trkpt lat="46.91293" lon="8.66515">
        <ele>1623</ele>
        <time>2021-08-07T09:26:48.428Z</time>
      </trkpt>
      <trkpt lat="46.91293" lon="8.66515">
        <ele>1624</ele>
        <time>2021-08-07T09:26:49.429Z</time>
      </trkpt>
      <trkpt lat="46.91292" lon="8.66515">
        <ele>1624</ele>
        <time>2021-08-07T09:26:50.429Z</time>
      </trkpt>
      <trkpt lat="46.91293" lon="8.66515">
        <ele>1625</ele>
        <time>2021-08-07T09:26:51.430Z</time>
      </trkpt>
      <trkpt lat="46.91294" lon="8.66516">
        <ele>1624</ele>
        <time>2021-08-07T09:26:52.429Z</time>
      </trkpt>
      <trkpt lat="46.91295" lon="8.66516">
        <ele>1624</ele>
        <time>2021-08-07T09:26:53.430Z</time>
      </trkpt>
      <trkpt lat="46.91295" lon="8.66517">
        <ele>1623</ele>
        <time>2021-08-07T09:26:54.429Z</time>
      </trkpt>
      <trkpt lat="46.91295" lon="8.66517">
        <ele>1623</ele>
        <time>2021-08-07T09:26:55.430Z</time>
      </trkpt>
      <trkpt lat="46.91295" lon="8.66517">
        <ele>1623</ele>
        <time>2021-08-07T09:26:56.430Z</time>
      </trkpt>
      <trkpt lat="46.91295" lon="8.66518">
        <ele>1619</ele>
        <time>2021-08-07T09:26:57.429Z</time>
      </trkpt>
      <trkpt lat="46.91296" lon="8.66518">
        <ele>1619</ele>
        <time>2021-08-07T09:26:58.430Z</time>
      </trkpt>
      <trkpt lat="46.91296" lon="8.66518">
        <ele>1619</ele>
        <time>2021-08-07T09:26:59.429Z</time>
      </trkpt>
      <trkpt lat="46.91296" lon="8.66518">
        <ele>1619</ele>
        <time>2021-08-07T09:27:00.429Z</time>
      </trkpt>
      <trkpt lat="46.91295" lon="8.66516">
        <ele>1616</ele>
        <time>2021-08-07T09:27:01.431Z</time>
      </trkpt>
      <trkpt lat="46.91295" lon="8.66516">
        <ele>1616</ele>
        <time>2021-08-07T09:27:02.431Z</time>
      </trkpt>
      <trkpt lat="46.91295" lon="8.66517">
        <ele>1615</ele>
        <time>2021-08-07T09:27:03.430Z</time>
      </trkpt>
      <trkpt lat="46.91297" lon="8.66516">
        <ele>1620</ele>
        <time>2021-08-07T09:27:04.433Z</time>
      </trkpt>
      <trkpt lat="46.91297" lon="8.66517">
        <ele>1620</ele>
        <time>2021-08-07T09:27:05.434Z</time>
      </trkpt>
      <trkpt lat="46.91296" lon="8.66517">
        <ele>1620</ele>
        <time>2021-08-07T09:27:06.434Z</time>
      </trkpt>
      <trkpt lat="46.91296" lon="8.66517">
        <ele>1620</ele>
        <time>2021-08-07T09:27:07.434Z</time>
      </trkpt>
      <trkpt lat="46.91296" lon="8.66517">
        <ele>1620</ele>
        <time>2021-08-07T09:27:08.433Z</time>
      </trkpt>
      <trkpt lat="46.91296" lon="8.66517">
        <ele>1620</ele>
        <time>2021-08-07T09:27:09.433Z</time>
      </trkpt>
      <trkpt lat="46.91295" lon="8.66516">
        <ele>1620</ele>
        <time>2021-08-07T09:27:10.433Z</time>
      </trkpt>
      <trkpt lat="46.91295" lon="8.66515">
        <ele>1620</ele>
        <time>2021-08-07T09:27:11.433Z</time>
      </trkpt>
      <trkpt lat="46.91295" lon="8.66515">
        <ele>1621</ele>
        <time>2021-08-07T09:27:12.433Z</time>
      </trkpt>
      <trkpt lat="46.91295" lon="8.66515">
        <ele>1621</ele>
        <time>2021-08-07T09:27:13.433Z</time>
      </trkpt>
      <trkpt lat="46.91296" lon="8.66515">
        <ele>1620</ele>
        <time>2021-08-07T09:27:14.434Z</time>
      </trkpt>
      <trkpt lat="46.91296" lon="8.66515">
        <ele>1620</ele>
        <time>2021-08-07T09:27:15.434Z</time>
      </trkpt>
      <trkpt lat="46.91296" lon="8.66515">
        <ele>1620</ele>
        <time>2021-08-07T09:27:16.435Z</time>
      </trkpt>
      <trkpt lat="46.91295" lon="8.66516">
        <ele>1622</ele>
        <time>2021-08-07T09:27:17.436Z</time>
      </trkpt>
      <trkpt lat="46.91295" lon="8.66516">
        <ele>1622</ele>
        <time>2021-08-07T09:27:18.435Z</time>
      </trkpt>
      <trkpt lat="46.91296" lon="8.66515">
        <ele>1621</ele>
        <time>2021-08-07T09:27:19.436Z</time>
      </trkpt>
      <trkpt lat="46.91296" lon="8.66515">
        <ele>1621</ele>
        <time>2021-08-07T09:27:20.436Z</time>
      </trkpt>
      <trkpt lat="46.91297" lon="8.66514">
        <ele>1622</ele>
        <time>2021-08-07T09:27:21.435Z</time>
      </trkpt>
      <trkpt lat="46.91297" lon="8.66514">
        <ele>1622</ele>
        <time>2021-08-07T09:27:22.436Z</time>
      </trkpt>
      <trkpt lat="46.91298" lon="8.66515">
        <ele>1622</ele>
        <time>2021-08-07T09:27:23.437Z</time>
      </trkpt>
      <trkpt lat="46.91298" lon="8.66515">
        <ele>1622</ele>
        <time>2021-08-07T09:27:24.437Z</time>
      </trkpt>
      <trkpt lat="46.91298" lon="8.66516">
        <ele>1617</ele>
        <time>2021-08-07T09:27:25.438Z</time>
      </trkpt>
      <trkpt lat="46.91298" lon="8.66517">
        <ele>1617</ele>
        <time>2021-08-07T09:27:26.437Z</time>
      </trkpt>
      <trkpt lat="46.91298" lon="8.66517">
        <ele>1616</ele>
        <time>2021-08-07T09:27:27.437Z</time>
      </trkpt>
      <trkpt lat="46.91298" lon="8.66517">
        <ele>1615</ele>
        <time>2021-08-07T09:27:28.437Z</time>
      </trkpt>
      <trkpt lat="46.91297" lon="8.66517">
        <ele>1615</ele>
        <time>2021-08-07T09:27:29.439Z</time>
      </trkpt>
      <trkpt lat="46.91296" lon="8.66516">
        <ele>1616</ele>
        <time>2021-08-07T09:27:30.439Z</time>
      </trkpt>
      <trkpt lat="46.91296" lon="8.66517">
        <ele>1617</ele>
        <time>2021-08-07T09:27:31.438Z</time>
      </trkpt>
      <trkpt lat="46.91297" lon="8.66518">
        <ele>1617</ele>
        <time>2021-08-07T09:27:32.439Z</time>
      </trkpt>
      <trkpt lat="46.91297" lon="8.66518">
        <ele>1617</ele>
        <time>2021-08-07T09:27:50.562Z</time>
      </trkpt>
      <trkpt lat="46.91298" lon="8.66518">
        <ele>1616</ele>
        <time>2021-08-07T09:27:51.562Z</time>
      </trkpt>
      <trkpt lat="46.91297" lon="8.66517">
        <ele>1618</ele>
        <time>2021-08-07T09:27:52.564Z</time>
      </trkpt>
      <trkpt lat="46.91294" lon="8.66516">
        <ele>1623</ele>
        <time>2021-08-07T09:28:06.710Z</time>
      </trkpt>
      <trkpt lat="46.91294" lon="8.66516">
        <ele>1623</ele>
        <time>2021-08-07T09:28:07.710Z</time>
      </trkpt>
      <trkpt lat="46.91295" lon="8.66516">
        <ele>1623</ele>
        <time>2021-08-07T09:28:08.709Z</time>
      </trkpt>
      <trkpt lat="46.91296" lon="8.66517">
        <ele>1619</ele>
        <time>2021-08-07T09:28:09.712Z</time>
      </trkpt>
      <trkpt lat="46.91296" lon="8.66517">
        <ele>1619</ele>
        <time>2021-08-07T09:28:34.811Z</time>
      </trkpt>
      <trkpt lat="46.91296" lon="8.66516">
        <ele>1618</ele>
        <time>2021-08-07T09:28:35.811Z</time>
      </trkpt>
      <trkpt lat="46.91296" lon="8.66516">
        <ele>1618</ele>
        <time>2021-08-07T09:28:36.811Z</time>
      </trkpt>
      <trkpt lat="46.91296" lon="8.66516">
        <ele>1618</ele>
        <time>2021-08-07T09:28:37.811Z</time>
      </trkpt>
      <trkpt lat="46.91296" lon="8.66515">
        <ele>1618</ele>
        <time>2021-08-07T09:28:38.811Z</time>
      </trkpt>
      <trkpt lat="46.91296" lon="8.66515">
        <ele>1618</ele>
        <time>2021-08-07T09:28:42.937Z</time>
      </trkpt>
      <trkpt lat="46.91297" lon="8.66515">
        <ele>1618</ele>
        <time>2021-08-07T09:28:43.937Z</time>
      </trkpt>
      <trkpt lat="46.91297" lon="8.66515">
        <ele>1618</ele>
        <time>2021-08-07T09:29:06.796Z</time>
      </trkpt>
      <trkpt lat="46.91297" lon="8.66515">
        <ele>1618</ele>
        <time>2021-08-07T09:29:07.796Z</time>
      </trkpt>
      <trkpt lat="46.91297" lon="8.66515">
        <ele>1618</ele>
        <time>2021-08-07T09:29:08.796Z</time>
      </trkpt>
      <trkpt lat="46.91297" lon="8.66515">
        <ele>1618</ele>
        <time>2021-08-07T09:29:09.796Z</time>
      </trkpt>
      <trkpt lat="46.91296" lon="8.66516">
        <ele>1618</ele>
        <time>2021-08-07T09:29:10.796Z</time>
      </trkpt>
      <trkpt lat="46.91296" lon="8.66516">
        <ele>1618</ele>
        <time>2021-08-07T09:29:11.796Z</time>
      </trkpt>
      <trkpt lat="46.91296" lon="8.66516">
        <ele>1618</ele>
        <time>2021-08-07T09:29:15.949Z</time>
      </trkpt>
      <trkpt lat="46.91295" lon="8.66514">
        <ele>1618</ele>
        <time>2021-08-07T09:29:25.794Z</time>
      </trkpt>
      <trkpt lat="46.91295" lon="8.66514">
        <ele>1618</ele>
        <time>2021-08-07T09:29:26.795Z</time>
      </trkpt>
      <trkpt lat="46.91295" lon="8.66515">
        <ele>1618</ele>
        <time>2021-08-07T09:29:27.795Z</time>
      </trkpt>
      <trkpt lat="46.91294" lon="8.66517">
        <ele>1620</ele>
        <time>2021-08-07T09:29:28.795Z</time>
      </trkpt>
      <trkpt lat="46.91294" lon="8.66517">
        <ele>1619</ele>
        <time>2021-08-07T09:29:29.796Z</time>
      </trkpt>
      <trkpt lat="46.91296" lon="8.66519">
        <ele>1616</ele>
        <time>2021-08-07T09:29:30.797Z</time>
      </trkpt>
      <trkpt lat="46.91296" lon="8.66519">
        <ele>1616</ele>
        <time>2021-08-07T09:29:31.797Z</time>
      </trkpt>
      <trkpt lat="46.91296" lon="8.66519">
        <ele>1616</ele>
        <time>2021-08-07T09:29:32.796Z</time>
      </trkpt>
      <trkpt lat="46.91295" lon="8.66519">
        <ele>1616</ele>
        <time>2021-08-07T09:29:33.796Z</time>
      </trkpt>
      <trkpt lat="46.91295" lon="8.66514">
        <ele>1626</ele>
        <time>2021-08-07T09:29:34.796Z</time>
      </trkpt>
      <trkpt lat="46.91293" lon="8.66516">
        <ele>1618</ele>
        <time>2021-08-07T09:29:35.798Z</time>
      </trkpt>
      <trkpt lat="46.91294" lon="8.66516">
        <ele>1618</ele>
        <time>2021-08-07T09:29:36.797Z</time>
      </trkpt>
      <trkpt lat="46.91294" lon="8.66517">
        <ele>1622</ele>
        <time>2021-08-07T09:29:41.811Z</time>
      </trkpt>
      <trkpt lat="46.91294" lon="8.66517">
        <ele>1621</ele>
        <time>2021-08-07T09:29:42.810Z</time>
      </trkpt>
      <trkpt lat="46.91294" lon="8.66517">
        <ele>1621</ele>
        <time>2021-08-07T09:29:43.810Z</time>
      </trkpt>
      <trkpt lat="46.91292" lon="8.66516">
        <ele>1621</ele>
        <time>2021-08-07T09:29:44.812Z</time>
      </trkpt>
      <trkpt lat="46.91292" lon="8.66516">
        <ele>1621</ele>
        <time>2021-08-07T09:29:45.813Z</time>
      </trkpt>
      <trkpt lat="46.91292" lon="8.66517">
        <ele>1621</ele>
        <time>2021-08-07T09:29:46.812Z</time>
      </trkpt>
      <trkpt lat="46.91293" lon="8.66516">
        <ele>1622</ele>
        <time>2021-08-07T09:29:47.814Z</time>
      </trkpt>
      <trkpt lat="46.91293" lon="8.66515">
        <ele>1622</ele>
        <time>2021-08-07T09:29:48.814Z</time>
      </trkpt>
      <trkpt lat="46.91293" lon="8.66515">
        <ele>1622</ele>
        <time>2021-08-07T09:29:49.814Z</time>
      </trkpt>
      <trkpt lat="46.91293" lon="8.66514">
        <ele>1622</ele>
        <time>2021-08-07T09:29:50.815Z</time>
      </trkpt>
      <trkpt lat="46.91293" lon="8.66514">
        <ele>1622</ele>
        <time>2021-08-07T09:29:51.814Z</time>
      </trkpt>
      <trkpt lat="46.91293" lon="8.66513">
        <ele>1622</ele>
        <time>2021-08-07T09:29:52.814Z</time>
      </trkpt>
      <trkpt lat="46.9129" lon="8.66514">
        <ele>1620</ele>
        <time>2021-08-07T09:29:53.814Z</time>
      </trkpt>
      <trkpt lat="46.9129" lon="8.66514">
        <ele>1621</ele>
        <time>2021-08-07T09:29:54.815Z</time>
      </trkpt>
      <trkpt lat="46.91291" lon="8.66514">
        <ele>1621</ele>
        <time>2021-08-07T09:29:55.815Z</time>
      </trkpt>
      <trkpt lat="46.91291" lon="8.66515">
        <ele>1621</ele>
        <time>2021-08-07T09:29:56.814Z</time>
      </trkpt>
      <trkpt lat="46.91291" lon="8.66515">
        <ele>1621</ele>
        <time>2021-08-07T09:29:57.815Z</time>
      </trkpt>
      <trkpt lat="46.91291" lon="8.66515">
        <ele>1621</ele>
        <time>2021-08-07T09:29:58.815Z</time>
      </trkpt>
      <trkpt lat="46.91291" lon="8.66515">
        <ele>1620</ele>
        <time>2021-08-07T09:29:59.815Z</time>
      </trkpt>
      <trkpt lat="46.91291" lon="8.66515">
        <ele>1620</ele>
        <time>2021-08-07T09:30:00.815Z</time>
      </trkpt>
      <trkpt lat="46.91292" lon="8.66515">
        <ele>1620</ele>
        <time>2021-08-07T09:30:01.815Z</time>
      </trkpt>
      <trkpt lat="46.91292" lon="8.66514">
        <ele>1619</ele>
        <time>2021-08-07T09:30:02.815Z</time>
      </trkpt>
      <trkpt lat="46.91292" lon="8.66514">
        <ele>1619</ele>
        <time>2021-08-07T09:30:03.815Z</time>
      </trkpt>
      <trkpt lat="46.91292" lon="8.66514">
        <ele>1620</ele>
        <time>2021-08-07T09:30:04.815Z</time>
      </trkpt>
      <trkpt lat="46.91294" lon="8.66515">
        <ele>1620</ele>
        <time>2021-08-07T09:30:05.815Z</time>
      </trkpt>
      <trkpt lat="46.91295" lon="8.66516">
        <ele>1620</ele>
        <time>2021-08-07T09:30:06.814Z</time>
      </trkpt>
      <trkpt lat="46.91296" lon="8.66515">
        <ele>1620</ele>
        <time>2021-08-07T09:30:07.815Z</time>
      </trkpt>
      <trkpt lat="46.91296" lon="8.66514">
        <ele>1621</ele>
        <time>2021-08-07T09:30:08.815Z</time>
      </trkpt>
      <trkpt lat="46.91297" lon="8.66514">
        <ele>1621</ele>
        <time>2021-08-07T09:30:09.815Z</time>
      </trkpt>
      <trkpt lat="46.91294" lon="8.66516">
        <ele>1619</ele>
        <time>2021-08-07T09:30:10.815Z</time>
      </trkpt>
      <trkpt lat="46.91294" lon="8.66517">
        <ele>1619</ele>
        <time>2021-08-07T09:30:11.815Z</time>
      </trkpt>
      <trkpt lat="46.91294" lon="8.66517">
        <ele>1619</ele>
        <time>2021-08-07T09:30:12.815Z</time>
      </trkpt>
      <trkpt lat="46.91295" lon="8.66517">
        <ele>1620</ele>
        <time>2021-08-07T09:30:13.816Z</time>
      </trkpt>
      <trkpt lat="46.91292" lon="8.66511">
        <ele>1618</ele>
        <time>2021-08-07T09:30:14.817Z</time>
      </trkpt>
      <trkpt lat="46.91291" lon="8.66511">
        <ele>1619</ele>
        <time>2021-08-07T09:30:15.817Z</time>
      </trkpt>
      <trkpt lat="46.91291" lon="8.66511">
        <ele>1619</ele>
        <time>2021-08-07T09:30:16.817Z</time>
      </trkpt>
      <trkpt lat="46.91291" lon="8.66511">
        <ele>1619</ele>
        <time>2021-08-07T09:30:17.817Z</time>
      </trkpt>
      <trkpt lat="46.91291" lon="8.6651">
        <ele>1620</ele>
        <time>2021-08-07T09:30:18.818Z</time>
      </trkpt>
      <trkpt lat="46.91291" lon="8.66509">
        <ele>1620</ele>
        <time>2021-08-07T09:30:19.817Z</time>
      </trkpt>
      <trkpt lat="46.91291" lon="8.66509">
        <ele>1621</ele>
        <time>2021-08-07T09:30:20.817Z</time>
      </trkpt>
      <trkpt lat="46.9129" lon="8.66509">
        <ele>1621</ele>
        <time>2021-08-07T09:30:21.817Z</time>
      </trkpt>
      <trkpt lat="46.9129" lon="8.66509">
        <ele>1621</ele>
        <time>2021-08-07T09:30:22.818Z</time>
      </trkpt>
      <trkpt lat="46.91291" lon="8.66509">
        <ele>1620</ele>
        <time>2021-08-07T09:30:23.818Z</time>
      </trkpt>
      <trkpt lat="46.91294" lon="8.66511">
        <ele>1618</ele>
        <time>2021-08-07T09:30:24.818Z</time>
      </trkpt>
      <trkpt lat="46.91293" lon="8.66511">
        <ele>1619</ele>
        <time>2021-08-07T09:30:25.819Z</time>
      </trkpt>
      <trkpt lat="46.91294" lon="8.66516">
        <ele>1619</ele>
        <time>2021-08-07T09:30:26.818Z</time>
      </trkpt>
      <trkpt lat="46.91294" lon="8.66516">
        <ele>1619</ele>
        <time>2021-08-07T09:30:27.819Z</time>
      </trkpt>
      <trkpt lat="46.91293" lon="8.66516">
        <ele>1621</ele>
        <time>2021-08-07T09:30:28.818Z</time>
      </trkpt>
      <trkpt lat="46.91293" lon="8.66516">
        <ele>1621</ele>
        <time>2021-08-07T09:30:29.818Z</time>
      </trkpt>
      <trkpt lat="46.91295" lon="8.66516">
        <ele>1621</ele>
        <time>2021-08-07T09:30:30.818Z</time>
      </trkpt>
      <trkpt lat="46.913" lon="8.66517">
        <ele>1619</ele>
        <time>2021-08-07T09:30:31.819Z</time>
      </trkpt>
      <trkpt lat="46.91299" lon="8.66516">
        <ele>1616</ele>
        <time>2021-08-07T09:30:32.819Z</time>
      </trkpt>
      <trkpt lat="46.91299" lon="8.66516">
        <ele>1617</ele>
        <time>2021-08-07T09:30:33.819Z</time>
      </trkpt>
      <trkpt lat="46.913" lon="8.66516">
        <ele>1617</ele>
        <time>2021-08-07T09:30:34.818Z</time>
      </trkpt>
      <trkpt lat="46.91296" lon="8.66516">
        <ele>1620</ele>
        <time>2021-08-07T09:30:35.818Z</time>
      </trkpt>
      <trkpt lat="46.91296" lon="8.66516">
        <ele>1620</ele>
        <time>2021-08-07T09:30:36.818Z</time>
      </trkpt>
      <trkpt lat="46.91296" lon="8.66516">
        <ele>1621</ele>
        <time>2021-08-07T09:30:37.819Z</time>
      </trkpt>
      <trkpt lat="46.91296" lon="8.66516">
        <ele>1621</ele>
        <time>2021-08-07T09:30:38.819Z</time>
      </trkpt>
      <trkpt lat="46.91296" lon="8.66516">
        <ele>1621</ele>
        <time>2021-08-07T09:30:39.819Z</time>
      </trkpt>
      <trkpt lat="46.91296" lon="8.66516">
        <ele>1621</ele>
        <time>2021-08-07T09:30:40.819Z</time>
      </trkpt>
      <trkpt lat="46.91295" lon="8.66515">
        <ele>1625</ele>
        <time>2021-08-07T09:30:41.820Z</time>
      </trkpt>
      <trkpt lat="46.91295" lon="8.66514">
        <ele>1625</ele>
        <time>2021-08-07T09:30:42.819Z</time>
      </trkpt>
      <trkpt lat="46.91296" lon="8.66515">
        <ele>1620</ele>
        <time>2021-08-07T09:30:43.822Z</time>
      </trkpt>
      <trkpt lat="46.91296" lon="8.66514">
        <ele>1619</ele>
        <time>2021-08-07T09:30:44.821Z</time>
      </trkpt>
      <trkpt lat="46.91295" lon="8.66515">
        <ele>1620</ele>
        <time>2021-08-07T09:30:45.821Z</time>
      </trkpt>
      <trkpt lat="46.91295" lon="8.66516">
        <ele>1620</ele>
        <time>2021-08-07T09:30:46.822Z</time>
      </trkpt>
      <trkpt lat="46.91295" lon="8.66516">
        <ele>1621</ele>
        <time>2021-08-07T09:30:47.822Z</time>
      </trkpt>
      <trkpt lat="46.91296" lon="8.66516">
        <ele>1622</ele>
        <time>2021-08-07T09:30:48.821Z</time>
      </trkpt>
      <trkpt lat="46.91296" lon="8.66516">
        <ele>1623</ele>
        <time>2021-08-07T09:30:49.822Z</time>
      </trkpt>
      <trkpt lat="46.91296" lon="8.66515">
        <ele>1623</ele>
        <time>2021-08-07T09:30:50.822Z</time>
      </trkpt>
      <trkpt lat="46.91296" lon="8.66515">
        <ele>1624</ele>
        <time>2021-08-07T09:30:57.936Z</time>
      </trkpt>
      <trkpt lat="46.91294" lon="8.66513">
        <ele>1624</ele>
        <time>2021-08-07T09:30:58.936Z</time>
      </trkpt>
      <trkpt lat="46.91294" lon="8.66514">
        <ele>1624</ele>
        <time>2021-08-07T09:30:59.936Z</time>
      </trkpt>
      <trkpt lat="46.91294" lon="8.66514">
        <ele>1624</ele>
        <time>2021-08-07T09:31:00.936Z</time>
      </trkpt>
      <trkpt lat="46.91294" lon="8.66514">
        <ele>1624</ele>
        <time>2021-08-07T09:31:01.937Z</time>
      </trkpt>
      <trkpt lat="46.91294" lon="8.66515">
        <ele>1622</ele>
        <time>2021-08-07T09:31:02.936Z</time>
      </trkpt>
      <trkpt lat="46.91294" lon="8.66515">
        <ele>1622</ele>
        <time>2021-08-07T09:31:03.936Z</time>
      </trkpt>
      <trkpt lat="46.91294" lon="8.66514">
        <ele>1621</ele>
        <time>2021-08-07T09:31:04.936Z</time>
      </trkpt>
      <trkpt lat="46.91294" lon="8.66517">
        <ele>1619</ele>
        <time>2021-08-07T09:31:05.937Z</time>
      </trkpt>
      <trkpt lat="46.91293" lon="8.66516">
        <ele>1619</ele>
        <time>2021-08-07T09:31:10.094Z</time>
      </trkpt>
      <trkpt lat="46.91293" lon="8.66516">
        <ele>1619</ele>
        <time>2021-08-07T09:31:11.094Z</time>
      </trkpt>
      <trkpt lat="46.91293" lon="8.66516">
        <ele>1618</ele>
        <time>2021-08-07T09:31:12.095Z</time>
      </trkpt>
      <trkpt lat="46.91293" lon="8.66516">
        <ele>1618</ele>
        <time>2021-08-07T09:31:13.094Z</time>
      </trkpt>
      <trkpt lat="46.91293" lon="8.66516">
        <ele>1618</ele>
        <time>2021-08-07T09:31:14.094Z</time>
      </trkpt>
      <trkpt lat="46.91293" lon="8.66516">
        <ele>1618</ele>
        <time>2021-08-07T09:31:15.095Z</time>
      </trkpt>
      <trkpt lat="46.91294" lon="8.66516">
        <ele>1618</ele>
        <time>2021-08-07T09:31:16.095Z</time>
      </trkpt>
      <trkpt lat="46.91294" lon="8.66515">
        <ele>1617</ele>
        <time>2021-08-07T09:31:17.095Z</time>
      </trkpt>
      <trkpt lat="46.91294" lon="8.66515">
        <ele>1617</ele>
        <time>2021-08-07T09:31:18.095Z</time>
      </trkpt>
      <trkpt lat="46.91295" lon="8.66515">
        <ele>1616</ele>
        <time>2021-08-07T09:31:19.095Z</time>
      </trkpt>
      <trkpt lat="46.91295" lon="8.66516">
        <ele>1616</ele>
        <time>2021-08-07T09:31:20.094Z</time>
      </trkpt>
      <trkpt lat="46.91298" lon="8.66515">
        <ele>1612</ele>
        <time>2021-08-07T09:31:21.095Z</time>
      </trkpt>
      <trkpt lat="46.91298" lon="8.66515">
        <ele>1612</ele>
        <time>2021-08-07T09:31:22.096Z</time>
      </trkpt>
      <trkpt lat="46.91298" lon="8.66515">
        <ele>1612</ele>
        <time>2021-08-07T09:31:23.095Z</time>
      </trkpt>
      <trkpt lat="46.91299" lon="8.66515">
        <ele>1612</ele>
        <time>2021-08-07T09:31:24.096Z</time>
      </trkpt>
      <trkpt lat="46.91299" lon="8.66515">
        <ele>1612</ele>
        <time>2021-08-07T09:31:25.095Z</time>
      </trkpt>
      <trkpt lat="46.91298" lon="8.66515">
        <ele>1613</ele>
        <time>2021-08-07T09:31:26.095Z</time>
      </trkpt>
      <trkpt lat="46.91298" lon="8.66514">
        <ele>1614</ele>
        <time>2021-08-07T09:31:27.096Z</time>
      </trkpt>
      <trkpt lat="46.91297" lon="8.66513">
        <ele>1619</ele>
        <time>2021-08-07T09:31:28.096Z</time>
      </trkpt>
      <trkpt lat="46.91297" lon="8.66516">
        <ele>1617</ele>
        <time>2021-08-07T09:31:29.096Z</time>
      </trkpt>
      <trkpt lat="46.91297" lon="8.66517">
        <ele>1616</ele>
        <time>2021-08-07T09:31:30.096Z</time>
      </trkpt>
      <trkpt lat="46.91297" lon="8.66517">
        <ele>1616</ele>
        <time>2021-08-07T09:31:31.096Z</time>
      </trkpt>
      <trkpt lat="46.91296" lon="8.66517">
        <ele>1616</ele>
        <time>2021-08-07T09:31:32.095Z</time>
      </trkpt>
      <trkpt lat="46.91296" lon="8.66517">
        <ele>1616</ele>
        <time>2021-08-07T09:31:33.096Z</time>
      </trkpt>
      <trkpt lat="46.91296" lon="8.66517">
        <ele>1616</ele>
        <time>2021-08-07T09:31:34.096Z</time>
      </trkpt>
      <trkpt lat="46.91296" lon="8.66516">
        <ele>1617</ele>
        <time>2021-08-07T09:31:35.096Z</time>
      </trkpt>
      <trkpt lat="46.91296" lon="8.66516">
        <ele>1617</ele>
        <time>2021-08-07T09:31:36.095Z</time>
      </trkpt>
      <trkpt lat="46.91296" lon="8.66516">
        <ele>1617</ele>
        <time>2021-08-07T09:31:37.096Z</time>
      </trkpt>
      <trkpt lat="46.91296" lon="8.66516">
        <ele>1617</ele>
        <time>2021-08-07T09:31:38.096Z</time>
      </trkpt>
      <trkpt lat="46.91296" lon="8.66515">
        <ele>1617</ele>
        <time>2021-08-07T09:31:39.096Z</time>
      </trkpt>
      <trkpt lat="46.91296" lon="8.66516">
        <ele>1617</ele>
        <time>2021-08-07T09:31:40.095Z</time>
      </trkpt>
      <trkpt lat="46.91296" lon="8.66516">
        <ele>1617</ele>
        <time>2021-08-07T09:31:41.096Z</time>
      </trkpt>
      <trkpt lat="46.91296" lon="8.66515">
        <ele>1617</ele>
        <time>2021-08-07T09:31:42.095Z</time>
      </trkpt>
      <trkpt lat="46.91292" lon="8.66512">
        <ele>1622</ele>
        <time>2021-08-07T09:31:43.096Z</time>
      </trkpt>
      <trkpt lat="46.91292" lon="8.66512">
        <ele>1623</ele>
        <time>2021-08-07T09:31:44.096Z</time>
      </trkpt>
      <trkpt lat="46.91292" lon="8.66512">
        <ele>1624</ele>
        <time>2021-08-07T09:31:45.096Z</time>
      </trkpt>
      <trkpt lat="46.91292" lon="8.66512">
        <ele>1624</ele>
        <time>2021-08-07T09:31:46.097Z</time>
      </trkpt>
      <trkpt lat="46.91293" lon="8.66512">
        <ele>1624</ele>
        <time>2021-08-07T09:31:47.097Z</time>
      </trkpt>
      <trkpt lat="46.91293" lon="8.66512">
        <ele>1624</ele>
        <time>2021-08-07T09:31:48.096Z</time>
      </trkpt>
      <trkpt lat="46.91293" lon="8.66512">
        <ele>1623</ele>
        <time>2021-08-07T09:31:49.096Z</time>
      </trkpt>
      <trkpt lat="46.91293" lon="8.66512">
        <ele>1623</ele>
        <time>2021-08-07T09:31:50.097Z</time>
      </trkpt>
      <trkpt lat="46.91293" lon="8.66512">
        <ele>1623</ele>
        <time>2021-08-07T09:31:51.096Z</time>
      </trkpt>
      <trkpt lat="46.91294" lon="8.66511">
        <ele>1623</ele>
        <time>2021-08-07T09:31:52.097Z</time>
      </trkpt>
      <trkpt lat="46.91294" lon="8.66511">
        <ele>1624</ele>
        <time>2021-08-07T09:31:53.096Z</time>
      </trkpt>
      <trkpt lat="46.91295" lon="8.6651">
        <ele>1624</ele>
        <time>2021-08-07T09:31:54.096Z</time>
      </trkpt>
      <trkpt lat="46.91295" lon="8.66509">
        <ele>1624</ele>
        <time>2021-08-07T09:31:55.096Z</time>
      </trkpt>
      <trkpt lat="46.91295" lon="8.66508">
        <ele>1624</ele>
        <time>2021-08-07T09:31:56.097Z</time>
      </trkpt>
      <trkpt lat="46.91296" lon="8.66507">
        <ele>1623</ele>
        <time>2021-08-07T09:31:57.097Z</time>
      </trkpt>
      <trkpt lat="46.91296" lon="8.66506">
        <ele>1623</ele>
        <time>2021-08-07T09:31:58.097Z</time>
      </trkpt>
      <trkpt lat="46.91296" lon="8.66505">
        <ele>1622</ele>
        <time>2021-08-07T09:31:59.096Z</time>
      </trkpt>
      <trkpt lat="46.91297" lon="8.66504">
        <ele>1622</ele>
        <time>2021-08-07T09:32:00.097Z</time>
      </trkpt>
      <trkpt lat="46.91297" lon="8.66504">
        <ele>1621</ele>
        <time>2021-08-07T09:32:01.096Z</time>
      </trkpt>
      <trkpt lat="46.91297" lon="8.66503">
        <ele>1621</ele>
        <time>2021-08-07T09:32:02.096Z</time>
      </trkpt>
      <trkpt lat="46.91297" lon="8.66502">
        <ele>1620</ele>
        <time>2021-08-07T09:32:03.096Z</time>
      </trkpt>
      <trkpt lat="46.91297" lon="8.66501">
        <ele>1620</ele>
        <time>2021-08-07T09:32:04.097Z</time>
      </trkpt>
      <trkpt lat="46.91297" lon="8.66501">
        <ele>1620</ele>
        <time>2021-08-07T09:32:05.097Z</time>
      </trkpt>
      <trkpt lat="46.91297" lon="8.66501">
        <ele>1619</ele>
        <time>2021-08-07T09:32:06.097Z</time>
      </trkpt>
      <trkpt lat="46.91298" lon="8.66499">
        <ele>1619</ele>
        <time>2021-08-07T09:32:07.097Z</time>
      </trkpt>
      <trkpt lat="46.91298" lon="8.66499">
        <ele>1618</ele>
        <time>2021-08-07T09:32:08.096Z</time>
      </trkpt>
      <trkpt lat="46.91298" lon="8.66498">
        <ele>1618</ele>
        <time>2021-08-07T09:32:09.096Z</time>
      </trkpt>
      <trkpt lat="46.91298" lon="8.66498">
        <ele>1618</ele>
        <time>2021-08-07T09:32:10.096Z</time>
      </trkpt>
      <trkpt lat="46.91298" lon="8.66497">
        <ele>1618</ele>
        <time>2021-08-07T09:32:11.096Z</time>
      </trkpt>
      <trkpt lat="46.91298" lon="8.66497">
        <ele>1618</ele>
        <time>2021-08-07T09:32:12.097Z</time>
      </trkpt>
      <trkpt lat="46.91297" lon="8.66496">
        <ele>1617</ele>
        <time>2021-08-07T09:32:13.097Z</time>
      </trkpt>
      <trkpt lat="46.91297" lon="8.66496">
        <ele>1617</ele>
        <time>2021-08-07T09:32:14.097Z</time>
      </trkpt>
      <trkpt lat="46.91296" lon="8.66496">
        <ele>1616</ele>
        <time>2021-08-07T09:32:15.098Z</time>
      </trkpt>
      <trkpt lat="46.91296" lon="8.66496">
        <ele>1616</ele>
        <time>2021-08-07T09:32:16.097Z</time>
      </trkpt>
      <trkpt lat="46.91296" lon="8.66496">
        <ele>1617</ele>
        <time>2021-08-07T09:32:17.097Z</time>
      </trkpt>
      <trkpt lat="46.91295" lon="8.66496">
        <ele>1617</ele>
        <time>2021-08-07T09:32:18.098Z</time>
      </trkpt>
      <trkpt lat="46.91295" lon="8.66496">
        <ele>1617</ele>
        <time>2021-08-07T09:32:19.099Z</time>
      </trkpt>
      <trkpt lat="46.91295" lon="8.66496">
        <ele>1617</ele>
        <time>2021-08-07T09:32:20.099Z</time>
      </trkpt>
      <trkpt lat="46.91296" lon="8.66496">
        <ele>1617</ele>
        <time>2021-08-07T09:32:21.099Z</time>
      </trkpt>
      <trkpt lat="46.91296" lon="8.66495">
        <ele>1617</ele>
        <time>2021-08-07T09:32:22.099Z</time>
      </trkpt>
      <trkpt lat="46.91296" lon="8.66495">
        <ele>1617</ele>
        <time>2021-08-07T09:32:23.099Z</time>
      </trkpt>
      <trkpt lat="46.91297" lon="8.66494">
        <ele>1618</ele>
        <time>2021-08-07T09:32:24.099Z</time>
      </trkpt>
      <trkpt lat="46.91297" lon="8.66494">
        <ele>1618</ele>
        <time>2021-08-07T09:32:25.099Z</time>
      </trkpt>
      <trkpt lat="46.91297" lon="8.66493">
        <ele>1618</ele>
        <time>2021-08-07T09:32:26.099Z</time>
      </trkpt>
      <trkpt lat="46.91297" lon="8.66493">
        <ele>1618</ele>
        <time>2021-08-07T09:32:27.100Z</time>
      </trkpt>
      <trkpt lat="46.91296" lon="8.66492">
        <ele>1619</ele>
        <time>2021-08-07T09:32:28.100Z</time>
      </trkpt>
      <trkpt lat="46.91296" lon="8.66492">
        <ele>1619</ele>
        <time>2021-08-07T09:32:29.100Z</time>
      </trkpt>
      <trkpt lat="46.91296" lon="8.66493">
        <ele>1609</ele>
        <time>2021-08-07T09:32:30.100Z</time>
      </trkpt>
      <trkpt lat="46.91296" lon="8.66493">
        <ele>1609</ele>
        <time>2021-08-07T09:32:31.101Z</time>
      </trkpt>
      <trkpt lat="46.91296" lon="8.66493">
        <ele>1609</ele>
        <time>2021-08-07T09:32:32.100Z</time>
      </trkpt>
      <trkpt lat="46.91297" lon="8.66493">
        <ele>1611</ele>
        <time>2021-08-07T09:32:33.101Z</time>
      </trkpt>
      <trkpt lat="46.91297" lon="8.66493">
        <ele>1612</ele>
        <time>2021-08-07T09:32:34.100Z</time>
      </trkpt>
      <trkpt lat="46.91297" lon="8.66493">
        <ele>1612</ele>
        <time>2021-08-07T09:32:35.100Z</time>
      </trkpt>
      <trkpt lat="46.91297" lon="8.66493">
        <ele>1613</ele>
        <time>2021-08-07T09:32:36.101Z</time>
      </trkpt>
      <trkpt lat="46.91297" lon="8.66493">
        <ele>1614</ele>
        <time>2021-08-07T09:32:37.100Z</time>
      </trkpt>
      <trkpt lat="46.91296" lon="8.66493">
        <ele>1616</ele>
        <time>2021-08-07T09:32:38.102Z</time>
      </trkpt>
      <trkpt lat="46.91297" lon="8.66493">
        <ele>1616</ele>
        <time>2021-08-07T09:32:39.102Z</time>
      </trkpt>
      <trkpt lat="46.91297" lon="8.66494">
        <ele>1617</ele>
        <time>2021-08-07T09:32:40.102Z</time>
      </trkpt>
      <trkpt lat="46.91295" lon="8.66491">
        <ele>1623</ele>
        <time>2021-08-07T09:32:41.102Z</time>
      </trkpt>
      <trkpt lat="46.91295" lon="8.66492">
        <ele>1623</ele>
        <time>2021-08-07T09:32:42.102Z</time>
      </trkpt>
      <trkpt lat="46.91296" lon="8.66491">
        <ele>1623</ele>
        <time>2021-08-07T09:32:43.101Z</time>
      </trkpt>
      <trkpt lat="46.91296" lon="8.66491">
        <ele>1623</ele>
        <time>2021-08-07T09:32:44.102Z</time>
      </trkpt>
      <trkpt lat="46.91296" lon="8.6649">
        <ele>1623</ele>
        <time>2021-08-07T09:32:45.102Z</time>
      </trkpt>
      <trkpt lat="46.91295" lon="8.6649">
        <ele>1624</ele>
        <time>2021-08-07T09:32:46.102Z</time>
      </trkpt>
      <trkpt lat="46.91294" lon="8.66491">
        <ele>1624</ele>
        <time>2021-08-07T09:32:47.102Z</time>
      </trkpt>
      <trkpt lat="46.91294" lon="8.66491">
        <ele>1624</ele>
        <time>2021-08-07T09:32:48.102Z</time>
      </trkpt>
      <trkpt lat="46.91295" lon="8.66492">
        <ele>1623</ele>
        <time>2021-08-07T09:32:49.102Z</time>
      </trkpt>
      <trkpt lat="46.91296" lon="8.66493">
        <ele>1618</ele>
        <time>2021-08-07T09:32:50.102Z</time>
      </trkpt>
      <trkpt lat="46.91296" lon="8.66493">
        <ele>1617</ele>
        <time>2021-08-07T09:32:51.101Z</time>
      </trkpt>
      <trkpt lat="46.91296" lon="8.66493">
        <ele>1617</ele>
        <time>2021-08-07T09:32:52.101Z</time>
      </trkpt>
      <trkpt lat="46.91296" lon="8.66494">
        <ele>1617</ele>
        <time>2021-08-07T09:32:53.102Z</time>
      </trkpt>
      <trkpt lat="46.91296" lon="8.66494">
        <ele>1617</ele>
        <time>2021-08-07T09:32:54.101Z</time>
      </trkpt>
      <trkpt lat="46.91296" lon="8.66494">
        <ele>1618</ele>
        <time>2021-08-07T09:32:55.101Z</time>
      </trkpt>
      <trkpt lat="46.91295" lon="8.66496">
        <ele>1619</ele>
        <time>2021-08-07T09:32:56.102Z</time>
      </trkpt>
      <trkpt lat="46.91295" lon="8.66495">
        <ele>1619</ele>
        <time>2021-08-07T09:32:57.101Z</time>
      </trkpt>
      <trkpt lat="46.91298" lon="8.66494">
        <ele>1614</ele>
        <time>2021-08-07T09:32:58.101Z</time>
      </trkpt>
      <trkpt lat="46.91299" lon="8.66494">
        <ele>1614</ele>
        <time>2021-08-07T09:32:59.101Z</time>
      </trkpt>
      <trkpt lat="46.913" lon="8.66493">
        <ele>1614</ele>
        <time>2021-08-07T09:33:00.102Z</time>
      </trkpt>
      <trkpt lat="46.91301" lon="8.66493">
        <ele>1614</ele>
        <time>2021-08-07T09:33:01.101Z</time>
      </trkpt>
      <trkpt lat="46.91302" lon="8.66493">
        <ele>1614</ele>
        <time>2021-08-07T09:33:02.102Z</time>
      </trkpt>
      <trkpt lat="46.91302" lon="8.66493">
        <ele>1614</ele>
        <time>2021-08-07T09:33:03.101Z</time>
      </trkpt>
      <trkpt lat="46.91303" lon="8.66492">
        <ele>1614</ele>
        <time>2021-08-07T09:33:04.102Z</time>
      </trkpt>
      <trkpt lat="46.91304" lon="8.66492">
        <ele>1614</ele>
        <time>2021-08-07T09:33:05.101Z</time>
      </trkpt>
      <trkpt lat="46.91304" lon="8.66492">
        <ele>1614</ele>
        <time>2021-08-07T09:33:06.101Z</time>
      </trkpt>
      <trkpt lat="46.91304" lon="8.66491">
        <ele>1614</ele>
        <time>2021-08-07T09:33:07.102Z</time>
      </trkpt>
      <trkpt lat="46.91305" lon="8.66492">
        <ele>1614</ele>
        <time>2021-08-07T09:33:08.102Z</time>
      </trkpt>
      <trkpt lat="46.91306" lon="8.66492">
        <ele>1614</ele>
        <time>2021-08-07T09:33:09.101Z</time>
      </trkpt>
      <trkpt lat="46.91307" lon="8.66493">
        <ele>1615</ele>
        <time>2021-08-07T09:33:10.101Z</time>
      </trkpt>
      <trkpt lat="46.91307" lon="8.66493">
        <ele>1615</ele>
        <time>2021-08-07T09:33:11.101Z</time>
      </trkpt>
      <trkpt lat="46.91308" lon="8.66494">
        <ele>1616</ele>
        <time>2021-08-07T09:33:12.101Z</time>
      </trkpt>
      <trkpt lat="46.91308" lon="8.66494">
        <ele>1616</ele>
        <time>2021-08-07T09:33:13.102Z</time>
      </trkpt>
      <trkpt lat="46.91309" lon="8.66494">
        <ele>1617</ele>
        <time>2021-08-07T09:33:14.102Z</time>
      </trkpt>
      <trkpt lat="46.91309" lon="8.66494">
        <ele>1617</ele>
        <time>2021-08-07T09:33:15.101Z</time>
      </trkpt>
      <trkpt lat="46.9131" lon="8.66494">
        <ele>1617</ele>
        <time>2021-08-07T09:33:16.101Z</time>
      </trkpt>
      <trkpt lat="46.9131" lon="8.66493">
        <ele>1616</ele>
        <time>2021-08-07T09:33:17.102Z</time>
      </trkpt>
      <trkpt lat="46.91311" lon="8.66493">
        <ele>1616</ele>
        <time>2021-08-07T09:33:18.101Z</time>
      </trkpt>
      <trkpt lat="46.91312" lon="8.66492">
        <ele>1615</ele>
        <time>2021-08-07T09:33:19.102Z</time>
      </trkpt>
      <trkpt lat="46.91312" lon="8.66491">
        <ele>1614</ele>
        <time>2021-08-07T09:33:20.101Z</time>
      </trkpt>
      <trkpt lat="46.91313" lon="8.6649">
        <ele>1613</ele>
        <time>2021-08-07T09:33:21.101Z</time>
      </trkpt>
      <trkpt lat="46.91313" lon="8.66489">
        <ele>1613</ele>
        <time>2021-08-07T09:33:22.101Z</time>
      </trkpt>
      <trkpt lat="46.91313" lon="8.66487">
        <ele>1613</ele>
        <time>2021-08-07T09:33:23.102Z</time>
      </trkpt>
      <trkpt lat="46.91313" lon="8.66487">
        <ele>1613</ele>
        <time>2021-08-07T09:33:24.102Z</time>
      </trkpt>
      <trkpt lat="46.91313" lon="8.66486">
        <ele>1613</ele>
        <time>2021-08-07T09:33:25.101Z</time>
      </trkpt>
      <trkpt lat="46.91314" lon="8.66486">
        <ele>1612</ele>
        <time>2021-08-07T09:33:26.102Z</time>
      </trkpt>
      <trkpt lat="46.91314" lon="8.66485">
        <ele>1612</ele>
        <time>2021-08-07T09:33:27.101Z</time>
      </trkpt>
      <trkpt lat="46.91314" lon="8.66485">
        <ele>1612</ele>
        <time>2021-08-07T09:33:28.101Z</time>
      </trkpt>
      <trkpt lat="46.91315" lon="8.66485">
        <ele>1612</ele>
        <time>2021-08-07T09:33:29.101Z</time>
      </trkpt>
      <trkpt lat="46.91316" lon="8.66486">
        <ele>1612</ele>
        <time>2021-08-07T09:33:30.102Z</time>
      </trkpt>
      <trkpt lat="46.91317" lon="8.66486">
        <ele>1612</ele>
        <time>2021-08-07T09:33:31.102Z</time>
      </trkpt>
      <trkpt lat="46.91318" lon="8.66487">
        <ele>1612</ele>
        <time>2021-08-07T09:33:32.101Z</time>
      </trkpt>
      <trkpt lat="46.91319" lon="8.66487">
        <ele>1612</ele>
        <time>2021-08-07T09:33:33.101Z</time>
      </trkpt>
      <trkpt lat="46.9132" lon="8.66487">
        <ele>1612</ele>
        <time>2021-08-07T09:33:34.101Z</time>
      </trkpt>
      <trkpt lat="46.91321" lon="8.66487">
        <ele>1612</ele>
        <time>2021-08-07T09:33:35.101Z</time>
      </trkpt>
      <trkpt lat="46.91322" lon="8.66487">
        <ele>1613</ele>
        <time>2021-08-07T09:33:36.102Z</time>
      </trkpt>
      <trkpt lat="46.91323" lon="8.66488">
        <ele>1613</ele>
        <time>2021-08-07T09:33:37.101Z</time>
      </trkpt>
      <trkpt lat="46.91324" lon="8.66488">
        <ele>1613</ele>
        <time>2021-08-07T09:33:38.101Z</time>
      </trkpt>
      <trkpt lat="46.91325" lon="8.66487">
        <ele>1613</ele>
        <time>2021-08-07T09:33:39.101Z</time>
      </trkpt>
      <trkpt lat="46.91326" lon="8.66487">
        <ele>1612</ele>
        <time>2021-08-07T09:33:40.101Z</time>
      </trkpt>
      <trkpt lat="46.91326" lon="8.66487">
        <ele>1612</ele>
        <time>2021-08-07T09:33:41.101Z</time>
      </trkpt>
      <trkpt lat="46.91327" lon="8.66486">
        <ele>1612</ele>
        <time>2021-08-07T09:33:42.102Z</time>
      </trkpt>
      <trkpt lat="46.91328" lon="8.66485">
        <ele>1613</ele>
        <time>2021-08-07T09:33:43.101Z</time>
      </trkpt>
      <trkpt lat="46.91328" lon="8.66485">
        <ele>1613</ele>
        <time>2021-08-07T09:33:44.102Z</time>
      </trkpt>
      <trkpt lat="46.91329" lon="8.66483">
        <ele>1613</ele>
        <time>2021-08-07T09:33:45.101Z</time>
      </trkpt>
      <trkpt lat="46.9133" lon="8.66482">
        <ele>1612</ele>
        <time>2021-08-07T09:33:46.102Z</time>
      </trkpt>
      <trkpt lat="46.9133" lon="8.66482">
        <ele>1612</ele>
        <time>2021-08-07T09:33:47.101Z</time>
      </trkpt>
      <trkpt lat="46.9133" lon="8.66481">
        <ele>1612</ele>
        <time>2021-08-07T09:33:48.101Z</time>
      </trkpt>
      <trkpt lat="46.91329" lon="8.6648">
        <ele>1611</ele>
        <time>2021-08-07T09:33:49.101Z</time>
      </trkpt>
      <trkpt lat="46.9133" lon="8.6648">
        <ele>1611</ele>
        <time>2021-08-07T09:33:50.101Z</time>
      </trkpt>
      <trkpt lat="46.9133" lon="8.6648">
        <ele>1611</ele>
        <time>2021-08-07T09:33:51.101Z</time>
      </trkpt>
      <trkpt lat="46.91331" lon="8.66479">
        <ele>1611</ele>
        <time>2021-08-07T09:33:52.102Z</time>
      </trkpt>
      <trkpt lat="46.91332" lon="8.66479">
        <ele>1610</ele>
        <time>2021-08-07T09:33:53.101Z</time>
      </trkpt>
      <trkpt lat="46.91332" lon="8.66479">
        <ele>1610</ele>
        <time>2021-08-07T09:33:54.101Z</time>
      </trkpt>
      <trkpt lat="46.91333" lon="8.66479">
        <ele>1610</ele>
        <time>2021-08-07T09:33:55.101Z</time>
      </trkpt>
      <trkpt lat="46.91333" lon="8.66479">
        <ele>1609</ele>
        <time>2021-08-07T09:33:56.101Z</time>
      </trkpt>
      <trkpt lat="46.91334" lon="8.66479">
        <ele>1609</ele>
        <time>2021-08-07T09:33:57.101Z</time>
      </trkpt>
      <trkpt lat="46.91335" lon="8.66478">
        <ele>1609</ele>
        <time>2021-08-07T09:33:58.101Z</time>
      </trkpt>
      <trkpt lat="46.91336" lon="8.66478">
        <ele>1609</ele>
        <time>2021-08-07T09:33:59.102Z</time>
      </trkpt>
      <trkpt lat="46.91336" lon="8.66477">
        <ele>1609</ele>
        <time>2021-08-07T09:34:00.101Z</time>
      </trkpt>
      <trkpt lat="46.91337" lon="8.66477">
        <ele>1609</ele>
        <time>2021-08-07T09:34:01.101Z</time>
      </trkpt>
      <trkpt lat="46.91338" lon="8.66477">
        <ele>1609</ele>
        <time>2021-08-07T09:34:02.101Z</time>
      </trkpt>
      <trkpt lat="46.91338" lon="8.66476">
        <ele>1610</ele>
        <time>2021-08-07T09:34:03.101Z</time>
      </trkpt>
      <trkpt lat="46.91339" lon="8.66475">
        <ele>1609</ele>
        <time>2021-08-07T09:34:04.101Z</time>
      </trkpt>
      <trkpt lat="46.9134" lon="8.66474">
        <ele>1609</ele>
        <time>2021-08-07T09:34:05.102Z</time>
      </trkpt>
      <trkpt lat="46.9134" lon="8.66473">
        <ele>1609</ele>
        <time>2021-08-07T09:34:06.101Z</time>
      </trkpt>
      <trkpt lat="46.91341" lon="8.66472">
        <ele>1608</ele>
        <time>2021-08-07T09:34:07.101Z</time>
      </trkpt>
      <trkpt lat="46.91342" lon="8.66471">
        <ele>1607</ele>
        <time>2021-08-07T09:34:08.102Z</time>
      </trkpt>
      <trkpt lat="46.91342" lon="8.6647">
        <ele>1607</ele>
        <time>2021-08-07T09:34:09.101Z</time>
      </trkpt>
      <trkpt lat="46.91343" lon="8.66469">
        <ele>1606</ele>
        <time>2021-08-07T09:34:10.101Z</time>
      </trkpt>
      <trkpt lat="46.91344" lon="8.66469">
        <ele>1606</ele>
        <time>2021-08-07T09:34:11.101Z</time>
      </trkpt>
      <trkpt lat="46.91344" lon="8.66468">
        <ele>1605</ele>
        <time>2021-08-07T09:34:12.101Z</time>
      </trkpt>
      <trkpt lat="46.91345" lon="8.66467">
        <ele>1605</ele>
        <time>2021-08-07T09:34:13.101Z</time>
      </trkpt>
      <trkpt lat="46.91345" lon="8.66467">
        <ele>1605</ele>
        <time>2021-08-07T09:34:14.101Z</time>
      </trkpt>
      <trkpt lat="46.91345" lon="8.66466">
        <ele>1605</ele>
        <time>2021-08-07T09:34:15.101Z</time>
      </trkpt>
      <trkpt lat="46.91345" lon="8.66465">
        <ele>1605</ele>
        <time>2021-08-07T09:34:17.209Z</time>
      </trkpt>
      <trkpt lat="46.91346" lon="8.66464">
        <ele>1605</ele>
        <time>2021-08-07T09:34:18.210Z</time>
      </trkpt>
      <trkpt lat="46.91346" lon="8.66463">
        <ele>1605</ele>
        <time>2021-08-07T09:34:19.209Z</time>
      </trkpt>
      <trkpt lat="46.91347" lon="8.66462">
        <ele>1605</ele>
        <time>2021-08-07T09:34:20.210Z</time>
      </trkpt>
      <trkpt lat="46.91347" lon="8.66462">
        <ele>1605</ele>
        <time>2021-08-07T09:34:21.209Z</time>
      </trkpt>
      <trkpt lat="46.91348" lon="8.66461">
        <ele>1605</ele>
        <time>2021-08-07T09:34:22.209Z</time>
      </trkpt>
      <trkpt lat="46.91349" lon="8.6646">
        <ele>1606</ele>
        <time>2021-08-07T09:34:23.209Z</time>
      </trkpt>
      <trkpt lat="46.91349" lon="8.66459">
        <ele>1606</ele>
        <time>2021-08-07T09:34:24.209Z</time>
      </trkpt>
      <trkpt lat="46.9135" lon="8.66458">
        <ele>1606</ele>
        <time>2021-08-07T09:34:31.337Z</time>
      </trkpt>
      <trkpt lat="46.91351" lon="8.66457">
        <ele>1606</ele>
        <time>2021-08-07T09:34:32.337Z</time>
      </trkpt>
      <trkpt lat="46.91351" lon="8.66456">
        <ele>1607</ele>
        <time>2021-08-07T09:34:33.337Z</time>
      </trkpt>
      <trkpt lat="46.91352" lon="8.66455">
        <ele>1606</ele>
        <time>2021-08-07T09:34:34.337Z</time>
      </trkpt>
      <trkpt lat="46.91353" lon="8.66454">
        <ele>1606</ele>
        <time>2021-08-07T09:34:35.338Z</time>
      </trkpt>
      <trkpt lat="46.91353" lon="8.66454">
        <ele>1605</ele>
        <time>2021-08-07T09:34:36.338Z</time>
      </trkpt>
      <trkpt lat="46.91354" lon="8.66453">
        <ele>1605</ele>
        <time>2021-08-07T09:34:37.337Z</time>
      </trkpt>
      <trkpt lat="46.91354" lon="8.66452">
        <ele>1605</ele>
        <time>2021-08-07T09:34:38.337Z</time>
      </trkpt>
      <trkpt lat="46.91355" lon="8.66452">
        <ele>1605</ele>
        <time>2021-08-07T09:34:39.337Z</time>
      </trkpt>
      <trkpt lat="46.91355" lon="8.66451">
        <ele>1605</ele>
        <time>2021-08-07T09:34:40.337Z</time>
      </trkpt>
      <trkpt lat="46.91355" lon="8.6645">
        <ele>1604</ele>
        <time>2021-08-07T09:34:41.337Z</time>
      </trkpt>
      <trkpt lat="46.91356" lon="8.66449">
        <ele>1604</ele>
        <time>2021-08-07T09:34:42.337Z</time>
      </trkpt>
      <trkpt lat="46.91356" lon="8.66448">
        <ele>1604</ele>
        <time>2021-08-07T09:34:43.337Z</time>
      </trkpt>
      <trkpt lat="46.91357" lon="8.66447">
        <ele>1604</ele>
        <time>2021-08-07T09:34:44.338Z</time>
      </trkpt>
      <trkpt lat="46.91357" lon="8.66446">
        <ele>1604</ele>
        <time>2021-08-07T09:34:45.337Z</time>
      </trkpt>
      <trkpt lat="46.91357" lon="8.66445">
        <ele>1603</ele>
        <time>2021-08-07T09:34:46.337Z</time>
      </trkpt>
      <trkpt lat="46.91357" lon="8.66444">
        <ele>1603</ele>
        <time>2021-08-07T09:34:50.461Z</time>
      </trkpt>
      <trkpt lat="46.91358" lon="8.66443">
        <ele>1602</ele>
        <time>2021-08-07T09:34:51.461Z</time>
      </trkpt>
      <trkpt lat="46.91358" lon="8.66443">
        <ele>1601</ele>
        <time>2021-08-07T09:34:52.462Z</time>
      </trkpt>
      <trkpt lat="46.91359" lon="8.6644">
        <ele>1595</ele>
        <time>2021-08-07T09:34:53.462Z</time>
      </trkpt>
      <trkpt lat="46.91359" lon="8.66439">
        <ele>1595</ele>
        <time>2021-08-07T09:34:54.462Z</time>
      </trkpt>
      <trkpt lat="46.9136" lon="8.66438">
        <ele>1594</ele>
        <time>2021-08-07T09:34:55.462Z</time>
      </trkpt>
      <trkpt lat="46.91361" lon="8.66438">
        <ele>1594</ele>
        <time>2021-08-07T09:34:56.463Z</time>
      </trkpt>
      <trkpt lat="46.91361" lon="8.66436">
        <ele>1594</ele>
        <time>2021-08-07T09:34:57.462Z</time>
      </trkpt>
      <trkpt lat="46.91361" lon="8.66435">
        <ele>1593</ele>
        <time>2021-08-07T09:34:59.563Z</time>
      </trkpt>
      <trkpt lat="46.91361" lon="8.66434">
        <ele>1593</ele>
        <time>2021-08-07T09:35:00.563Z</time>
      </trkpt>
      <trkpt lat="46.91361" lon="8.66433">
        <ele>1593</ele>
        <time>2021-08-07T09:35:01.563Z</time>
      </trkpt>
      <trkpt lat="46.91362" lon="8.66432">
        <ele>1592</ele>
        <time>2021-08-07T09:35:02.564Z</time>
      </trkpt>
      <trkpt lat="46.91362" lon="8.66431">
        <ele>1592</ele>
        <time>2021-08-07T09:35:03.564Z</time>
      </trkpt>
      <trkpt lat="46.91363" lon="8.66429">
        <ele>1592</ele>
        <time>2021-08-07T09:35:04.564Z</time>
      </trkpt>
      <trkpt lat="46.91363" lon="8.66428">
        <ele>1592</ele>
        <time>2021-08-07T09:35:05.563Z</time>
      </trkpt>
      <trkpt lat="46.91364" lon="8.66427">
        <ele>1591</ele>
        <time>2021-08-07T09:35:06.563Z</time>
      </trkpt>
      <trkpt lat="46.91364" lon="8.66426">
        <ele>1591</ele>
        <time>2021-08-07T09:35:18.708Z</time>
      </trkpt>
      <trkpt lat="46.91364" lon="8.66425">
        <ele>1591</ele>
        <time>2021-08-07T09:35:19.708Z</time>
      </trkpt>
      <trkpt lat="46.91364" lon="8.66425">
        <ele>1590</ele>
        <time>2021-08-07T09:35:25.825Z</time>
      </trkpt>
      <trkpt lat="46.91364" lon="8.66424">
        <ele>1590</ele>
        <time>2021-08-07T09:35:26.824Z</time>
      </trkpt>
      <trkpt lat="46.91365" lon="8.66423">
        <ele>1588</ele>
        <time>2021-08-07T09:35:27.825Z</time>
      </trkpt>
      <trkpt lat="46.91365" lon="8.66422">
        <ele>1588</ele>
        <time>2021-08-07T09:35:28.826Z</time>
      </trkpt>
      <trkpt lat="46.91365" lon="8.66421">
        <ele>1588</ele>
        <time>2021-08-07T09:35:48.968Z</time>
      </trkpt>
      <trkpt lat="46.91366" lon="8.6642">
        <ele>1588</ele>
        <time>2021-08-07T09:35:49.969Z</time>
      </trkpt>
      <trkpt lat="46.91366" lon="8.66419">
        <ele>1589</ele>
        <time>2021-08-07T09:35:50.968Z</time>
      </trkpt>
      <trkpt lat="46.91366" lon="8.66418">
        <ele>1589</ele>
        <time>2021-08-07T09:36:04.081Z</time>
      </trkpt>
      <trkpt lat="46.91366" lon="8.66416">
        <ele>1589</ele>
        <time>2021-08-07T09:36:05.080Z</time>
      </trkpt>
      <trkpt lat="46.91366" lon="8.66415">
        <ele>1588</ele>
        <time>2021-08-07T09:36:06.081Z</time>
      </trkpt>
      <trkpt lat="46.91366" lon="8.66413">
        <ele>1588</ele>
        <time>2021-08-07T09:36:07.081Z</time>
      </trkpt>
      <trkpt lat="46.91366" lon="8.66411">
        <ele>1588</ele>
        <time>2021-08-07T09:36:08.080Z</time>
      </trkpt>
      <trkpt lat="46.91366" lon="8.6641">
        <ele>1588</ele>
        <time>2021-08-07T09:36:09.081Z</time>
      </trkpt>
      <trkpt lat="46.91366" lon="8.66408">
        <ele>1588</ele>
        <time>2021-08-07T09:36:11.172Z</time>
      </trkpt>
      <trkpt lat="46.91366" lon="8.66407">
        <ele>1587</ele>
        <time>2021-08-07T09:36:12.172Z</time>
      </trkpt>
      <trkpt lat="46.91366" lon="8.66405">
        <ele>1587</ele>
        <time>2021-08-07T09:36:13.171Z</time>
      </trkpt>
      <trkpt lat="46.91367" lon="8.66404">
        <ele>1587</ele>
        <time>2021-08-07T09:36:38.216Z</time>
      </trkpt>
      <trkpt lat="46.91367" lon="8.66402">
        <ele>1587</ele>
        <time>2021-08-07T09:36:39.216Z</time>
      </trkpt>
      <trkpt lat="46.91367" lon="8.66401">
        <ele>1587</ele>
        <time>2021-08-07T09:36:40.216Z</time>
      </trkpt>
      <trkpt lat="46.91366" lon="8.66399">
        <ele>1587</ele>
        <time>2021-08-07T09:36:41.216Z</time>
      </trkpt>
      <trkpt lat="46.91366" lon="8.66398">
        <ele>1587</ele>
        <time>2021-08-07T09:36:48.330Z</time>
      </trkpt>
      <trkpt lat="46.91366" lon="8.66396">
        <ele>1587</ele>
        <time>2021-08-07T09:36:49.330Z</time>
      </trkpt>
      <trkpt lat="46.91366" lon="8.66394">
        <ele>1587</ele>
        <time>2021-08-07T09:36:50.330Z</time>
      </trkpt>
      <trkpt lat="46.91366" lon="8.66393">
        <ele>1588</ele>
        <time>2021-08-07T09:36:51.329Z</time>
      </trkpt>
      <trkpt lat="46.91366" lon="8.66391">
        <ele>1587</ele>
        <time>2021-08-07T09:36:52.330Z</time>
      </trkpt>
      <trkpt lat="46.91366" lon="8.6639">
        <ele>1587</ele>
        <time>2021-08-07T09:36:53.330Z</time>
      </trkpt>
      <trkpt lat="46.91366" lon="8.66388">
        <ele>1587</ele>
        <time>2021-08-07T09:36:54.330Z</time>
      </trkpt>
      <trkpt lat="46.91366" lon="8.66387">
        <ele>1587</ele>
        <time>2021-08-07T09:36:55.330Z</time>
      </trkpt>
      <trkpt lat="46.91366" lon="8.66385">
        <ele>1586</ele>
        <time>2021-08-07T09:36:57.462Z</time>
      </trkpt>
      <trkpt lat="46.91365" lon="8.66384">
        <ele>1586</ele>
        <time>2021-08-07T09:36:58.462Z</time>
      </trkpt>
      <trkpt lat="46.91365" lon="8.66382">
        <ele>1585</ele>
        <time>2021-08-07T09:36:59.462Z</time>
      </trkpt>
      <trkpt lat="46.91365" lon="8.66381">
        <ele>1585</ele>
        <time>2021-08-07T09:37:00.462Z</time>
      </trkpt>
      <trkpt lat="46.91365" lon="8.6638">
        <ele>1584</ele>
        <time>2021-08-07T09:37:08.596Z</time>
      </trkpt>
      <trkpt lat="46.91365" lon="8.66378">
        <ele>1584</ele>
        <time>2021-08-07T09:37:09.596Z</time>
      </trkpt>
      <trkpt lat="46.91365" lon="8.66377">
        <ele>1583</ele>
        <time>2021-08-07T09:37:10.596Z</time>
      </trkpt>
      <trkpt lat="46.91365" lon="8.66376">
        <ele>1583</ele>
        <time>2021-08-07T09:37:11.596Z</time>
      </trkpt>
      <trkpt lat="46.91365" lon="8.66376">
        <ele>1583</ele>
        <time>2021-08-07T09:37:12.596Z</time>
      </trkpt>
      <trkpt lat="46.91365" lon="8.66375">
        <ele>1584</ele>
        <time>2021-08-07T09:37:13.596Z</time>
      </trkpt>
      <trkpt lat="46.91365" lon="8.66375">
        <ele>1585</ele>
        <time>2021-08-07T09:37:14.596Z</time>
      </trkpt>
      <trkpt lat="46.91365" lon="8.66375">
        <ele>1585</ele>
        <time>2021-08-07T09:37:15.596Z</time>
      </trkpt>
      <trkpt lat="46.91365" lon="8.66376">
        <ele>1584</ele>
        <time>2021-08-07T09:37:16.595Z</time>
      </trkpt>
      <trkpt lat="46.91366" lon="8.66375">
        <ele>1582</ele>
        <time>2021-08-07T09:37:17.596Z</time>
      </trkpt>
      <trkpt lat="46.91366" lon="8.66374">
        <ele>1582</ele>
        <time>2021-08-07T09:37:18.596Z</time>
      </trkpt>
      <trkpt lat="46.91365" lon="8.66373">
        <ele>1582</ele>
        <time>2021-08-07T09:37:19.595Z</time>
      </trkpt>
      <trkpt lat="46.91365" lon="8.66372">
        <ele>1582</ele>
        <time>2021-08-07T09:37:20.596Z</time>
      </trkpt>
      <trkpt lat="46.91365" lon="8.66371">
        <ele>1583</ele>
        <time>2021-08-07T09:37:21.596Z</time>
      </trkpt>
      <trkpt lat="46.91365" lon="8.6637">
        <ele>1583</ele>
        <time>2021-08-07T09:37:22.596Z</time>
      </trkpt>
      <trkpt lat="46.91364" lon="8.66369">
        <ele>1583</ele>
        <time>2021-08-07T09:37:23.596Z</time>
      </trkpt>
      <trkpt lat="46.91364" lon="8.66368">
        <ele>1583</ele>
        <time>2021-08-07T09:37:24.596Z</time>
      </trkpt>
      <trkpt lat="46.91364" lon="8.66367">
        <ele>1583</ele>
        <time>2021-08-07T09:37:25.595Z</time>
      </trkpt>
      <trkpt lat="46.91364" lon="8.66366">
        <ele>1583</ele>
        <time>2021-08-07T09:37:26.595Z</time>
      </trkpt>
      <trkpt lat="46.91364" lon="8.66365">
        <ele>1584</ele>
        <time>2021-08-07T09:37:27.595Z</time>
      </trkpt>
      <trkpt lat="46.91364" lon="8.66364">
        <ele>1584</ele>
        <time>2021-08-07T09:37:28.595Z</time>
      </trkpt>
      <trkpt lat="46.91364" lon="8.66364">
        <ele>1584</ele>
        <time>2021-08-07T09:37:29.595Z</time>
      </trkpt>
      <trkpt lat="46.91364" lon="8.66363">
        <ele>1584</ele>
        <time>2021-08-07T09:37:30.595Z</time>
      </trkpt>
      <trkpt lat="46.91364" lon="8.66362">
        <ele>1584</ele>
        <time>2021-08-07T09:37:31.596Z</time>
      </trkpt>
      <trkpt lat="46.91364" lon="8.66361">
        <ele>1584</ele>
        <time>2021-08-07T09:37:32.596Z</time>
      </trkpt>
      <trkpt lat="46.91363" lon="8.6636">
        <ele>1583</ele>
        <time>2021-08-07T09:37:33.596Z</time>
      </trkpt>
      <trkpt lat="46.91363" lon="8.66359">
        <ele>1583</ele>
        <time>2021-08-07T09:37:34.596Z</time>
      </trkpt>
      <trkpt lat="46.91363" lon="8.66357">
        <ele>1583</ele>
        <time>2021-08-07T09:37:35.596Z</time>
      </trkpt>
      <trkpt lat="46.91363" lon="8.66356">
        <ele>1583</ele>
        <time>2021-08-07T09:37:36.595Z</time>
      </trkpt>
      <trkpt lat="46.91363" lon="8.66355">
        <ele>1582</ele>
        <time>2021-08-07T09:37:37.596Z</time>
      </trkpt>
      <trkpt lat="46.91363" lon="8.66354">
        <ele>1582</ele>
        <time>2021-08-07T09:37:38.595Z</time>
      </trkpt>
      <trkpt lat="46.91363" lon="8.66353">
        <ele>1582</ele>
        <time>2021-08-07T09:37:39.596Z</time>
      </trkpt>
      <trkpt lat="46.91362" lon="8.66353">
        <ele>1581</ele>
        <time>2021-08-07T09:37:40.596Z</time>
      </trkpt>
      <trkpt lat="46.91362" lon="8.66352">
        <ele>1581</ele>
        <time>2021-08-07T09:37:41.595Z</time>
      </trkpt>
      <trkpt lat="46.91362" lon="8.66351">
        <ele>1581</ele>
        <time>2021-08-07T09:37:42.595Z</time>
      </trkpt>
      <trkpt lat="46.91362" lon="8.6635">
        <ele>1580</ele>
        <time>2021-08-07T09:37:43.595Z</time>
      </trkpt>
      <trkpt lat="46.91362" lon="8.66349">
        <ele>1580</ele>
        <time>2021-08-07T09:37:44.596Z</time>
      </trkpt>
      <trkpt lat="46.91361" lon="8.66348">
        <ele>1579</ele>
        <time>2021-08-07T09:37:45.596Z</time>
      </trkpt>
      <trkpt lat="46.91361" lon="8.66346">
        <ele>1579</ele>
        <time>2021-08-07T09:37:46.596Z</time>
      </trkpt>
      <trkpt lat="46.91361" lon="8.66345">
        <ele>1578</ele>
        <time>2021-08-07T09:37:47.596Z</time>
      </trkpt>
      <trkpt lat="46.91361" lon="8.66344">
        <ele>1578</ele>
        <time>2021-08-07T09:37:48.596Z</time>
      </trkpt>
      <trkpt lat="46.91361" lon="8.66343">
        <ele>1578</ele>
        <time>2021-08-07T09:37:49.596Z</time>
      </trkpt>
      <trkpt lat="46.91362" lon="8.66342">
        <ele>1578</ele>
        <time>2021-08-07T09:37:50.596Z</time>
      </trkpt>
      <trkpt lat="46.91361" lon="8.66341">
        <ele>1578</ele>
        <time>2021-08-07T09:37:51.596Z</time>
      </trkpt>
      <trkpt lat="46.91361" lon="8.6634">
        <ele>1578</ele>
        <time>2021-08-07T09:37:52.596Z</time>
      </trkpt>
      <trkpt lat="46.91361" lon="8.66339">
        <ele>1578</ele>
        <time>2021-08-07T09:37:53.596Z</time>
      </trkpt>
      <trkpt lat="46.91361" lon="8.66338">
        <ele>1577</ele>
        <time>2021-08-07T09:37:54.595Z</time>
      </trkpt>
      <trkpt lat="46.91361" lon="8.66337">
        <ele>1576</ele>
        <time>2021-08-07T09:37:55.596Z</time>
      </trkpt>
      <trkpt lat="46.91361" lon="8.66335">
        <ele>1576</ele>
        <time>2021-08-07T09:37:56.595Z</time>
      </trkpt>
      <trkpt lat="46.91361" lon="8.66334">
        <ele>1576</ele>
        <time>2021-08-07T09:37:57.595Z</time>
      </trkpt>
      <trkpt lat="46.9136" lon="8.66332">
        <ele>1576</ele>
        <time>2021-08-07T09:37:58.596Z</time>
      </trkpt>
      <trkpt lat="46.9136" lon="8.66331">
        <ele>1576</ele>
        <time>2021-08-07T09:37:59.596Z</time>
      </trkpt>
      <trkpt lat="46.9136" lon="8.66329">
        <ele>1576</ele>
        <time>2021-08-07T09:38:00.596Z</time>
      </trkpt>
      <trkpt lat="46.9136" lon="8.66327">
        <ele>1576</ele>
        <time>2021-08-07T09:38:01.596Z</time>
      </trkpt>
      <trkpt lat="46.9136" lon="8.66326">
        <ele>1576</ele>
        <time>2021-08-07T09:38:02.595Z</time>
      </trkpt>
      <trkpt lat="46.9136" lon="8.66324">
        <ele>1576</ele>
        <time>2021-08-07T09:38:03.596Z</time>
      </trkpt>
      <trkpt lat="46.91359" lon="8.66323">
        <ele>1575</ele>
        <time>2021-08-07T09:38:04.596Z</time>
      </trkpt>
      <trkpt lat="46.91359" lon="8.66322">
        <ele>1575</ele>
        <time>2021-08-07T09:38:05.595Z</time>
      </trkpt>
      <trkpt lat="46.91359" lon="8.66321">
        <ele>1575</ele>
        <time>2021-08-07T09:38:06.596Z</time>
      </trkpt>
      <trkpt lat="46.91359" lon="8.66321">
        <ele>1575</ele>
        <time>2021-08-07T09:38:07.596Z</time>
      </trkpt>
      <trkpt lat="46.91358" lon="8.66321">
        <ele>1575</ele>
        <time>2021-08-07T09:38:08.596Z</time>
      </trkpt>
      <trkpt lat="46.91358" lon="8.6632">
        <ele>1575</ele>
        <time>2021-08-07T09:38:09.596Z</time>
      </trkpt>
      <trkpt lat="46.91357" lon="8.6632">
        <ele>1575</ele>
        <time>2021-08-07T09:38:10.596Z</time>
      </trkpt>
      <trkpt lat="46.91357" lon="8.6632">
        <ele>1574</ele>
        <time>2021-08-07T09:38:11.595Z</time>
      </trkpt>
      <trkpt lat="46.91357" lon="8.66319">
        <ele>1575</ele>
        <time>2021-08-07T09:38:12.595Z</time>
      </trkpt>
      <trkpt lat="46.91357" lon="8.66319">
        <ele>1574</ele>
        <time>2021-08-07T09:38:13.595Z</time>
      </trkpt>
      <trkpt lat="46.91356" lon="8.66319">
        <ele>1574</ele>
        <time>2021-08-07T09:38:14.595Z</time>
      </trkpt>
      <trkpt lat="46.91356" lon="8.66319">
        <ele>1574</ele>
        <time>2021-08-07T09:38:15.595Z</time>
      </trkpt>
      <trkpt lat="46.91356" lon="8.66319">
        <ele>1572</ele>
        <time>2021-08-07T09:38:16.596Z</time>
      </trkpt>
      <trkpt lat="46.91355" lon="8.66319">
        <ele>1572</ele>
        <time>2021-08-07T09:38:17.596Z</time>
      </trkpt>
      <trkpt lat="46.91354" lon="8.66319">
        <ele>1572</ele>
        <time>2021-08-07T09:38:18.595Z</time>
      </trkpt>
      <trkpt lat="46.91353" lon="8.66319">
        <ele>1572</ele>
        <time>2021-08-07T09:38:19.596Z</time>
      </trkpt>
      <trkpt lat="46.91352" lon="8.66319">
        <ele>1572</ele>
        <time>2021-08-07T09:38:20.596Z</time>
      </trkpt>
      <trkpt lat="46.91351" lon="8.66319">
        <ele>1572</ele>
        <time>2021-08-07T09:38:21.596Z</time>
      </trkpt>
      <trkpt lat="46.9135" lon="8.66319">
        <ele>1572</ele>
        <time>2021-08-07T09:38:22.596Z</time>
      </trkpt>
      <trkpt lat="46.91349" lon="8.66319">
        <ele>1573</ele>
        <time>2021-08-07T09:38:23.595Z</time>
      </trkpt>
      <trkpt lat="46.91349" lon="8.66319">
        <ele>1573</ele>
        <time>2021-08-07T09:38:24.596Z</time>
      </trkpt>
      <trkpt lat="46.91348" lon="8.66319">
        <ele>1574</ele>
        <time>2021-08-07T09:38:25.595Z</time>
      </trkpt>
      <trkpt lat="46.91347" lon="8.66319">
        <ele>1574</ele>
        <time>2021-08-07T09:38:26.596Z</time>
      </trkpt>
      <trkpt lat="46.91346" lon="8.66318">
        <ele>1574</ele>
        <time>2021-08-07T09:38:27.595Z</time>
      </trkpt>
      <trkpt lat="46.91345" lon="8.66318">
        <ele>1574</ele>
        <time>2021-08-07T09:38:28.596Z</time>
      </trkpt>
      <trkpt lat="46.91344" lon="8.66318">
        <ele>1574</ele>
        <time>2021-08-07T09:38:29.596Z</time>
      </trkpt>
      <trkpt lat="46.91343" lon="8.66317">
        <ele>1574</ele>
        <time>2021-08-07T09:38:30.596Z</time>
      </trkpt>
      <trkpt lat="46.91342" lon="8.66316">
        <ele>1574</ele>
        <time>2021-08-07T09:38:31.596Z</time>
      </trkpt>
      <trkpt lat="46.91341" lon="8.66315">
        <ele>1575</ele>
        <time>2021-08-07T09:38:32.595Z</time>
      </trkpt>
      <trkpt lat="46.91341" lon="8.66315">
        <ele>1574</ele>
        <time>2021-08-07T09:38:33.596Z</time>
      </trkpt>
      <trkpt lat="46.9134" lon="8.66315">
        <ele>1574</ele>
        <time>2021-08-07T09:38:34.596Z</time>
      </trkpt>
      <trkpt lat="46.9134" lon="8.66315">
        <ele>1573</ele>
        <time>2021-08-07T09:38:35.596Z</time>
      </trkpt>
      <trkpt lat="46.91339" lon="8.66314">
        <ele>1573</ele>
        <time>2021-08-07T09:38:36.595Z</time>
      </trkpt>
      <trkpt lat="46.91338" lon="8.66314">
        <ele>1572</ele>
        <time>2021-08-07T09:38:37.595Z</time>
      </trkpt>
      <trkpt lat="46.91338" lon="8.66313">
        <ele>1572</ele>
        <time>2021-08-07T09:38:38.596Z</time>
      </trkpt>
      <trkpt lat="46.91337" lon="8.66313">
        <ele>1571</ele>
        <time>2021-08-07T09:38:39.596Z</time>
      </trkpt>
      <trkpt lat="46.91337" lon="8.66312">
        <ele>1571</ele>
        <time>2021-08-07T09:38:40.596Z</time>
      </trkpt>
      <trkpt lat="46.91336" lon="8.66312">
        <ele>1571</ele>
        <time>2021-08-07T09:38:41.595Z</time>
      </trkpt>
      <trkpt lat="46.91335" lon="8.66311">
        <ele>1570</ele>
        <time>2021-08-07T09:38:42.596Z</time>
      </trkpt>
      <trkpt lat="46.91335" lon="8.66311">
        <ele>1570</ele>
        <time>2021-08-07T09:38:43.596Z</time>
      </trkpt>
      <trkpt lat="46.91334" lon="8.66311">
        <ele>1569</ele>
        <time>2021-08-07T09:38:44.595Z</time>
      </trkpt>
      <trkpt lat="46.91333" lon="8.66311">
        <ele>1569</ele>
        <time>2021-08-07T09:38:45.596Z</time>
      </trkpt>
      <trkpt lat="46.91333" lon="8.6631">
        <ele>1568</ele>
        <time>2021-08-07T09:38:46.596Z</time>
      </trkpt>
      <trkpt lat="46.91332" lon="8.66309">
        <ele>1567</ele>
        <time>2021-08-07T09:38:47.596Z</time>
      </trkpt>
      <trkpt lat="46.91331" lon="8.66308">
        <ele>1567</ele>
        <time>2021-08-07T09:38:48.596Z</time>
      </trkpt>
      <trkpt lat="46.91331" lon="8.66307">
        <ele>1566</ele>
        <time>2021-08-07T09:38:49.595Z</time>
      </trkpt>
      <trkpt lat="46.9133" lon="8.66306">
        <ele>1565</ele>
        <time>2021-08-07T09:38:50.596Z</time>
      </trkpt>
      <trkpt lat="46.91329" lon="8.66305">
        <ele>1565</ele>
        <time>2021-08-07T09:38:51.595Z</time>
      </trkpt>
      <trkpt lat="46.91329" lon="8.66304">
        <ele>1565</ele>
        <time>2021-08-07T09:38:52.596Z</time>
      </trkpt>
      <trkpt lat="46.91328" lon="8.66303">
        <ele>1565</ele>
        <time>2021-08-07T09:38:53.596Z</time>
      </trkpt>
      <trkpt lat="46.91328" lon="8.66302">
        <ele>1565</ele>
        <time>2021-08-07T09:38:54.596Z</time>
      </trkpt>
      <trkpt lat="46.91328" lon="8.66301">
        <ele>1566</ele>
        <time>2021-08-07T09:38:55.596Z</time>
      </trkpt>
      <trkpt lat="46.91328" lon="8.663">
        <ele>1566</ele>
        <time>2021-08-07T09:38:56.595Z</time>
      </trkpt>
      <trkpt lat="46.91327" lon="8.66299">
        <ele>1566</ele>
        <time>2021-08-07T09:38:57.596Z</time>
      </trkpt>
      <trkpt lat="46.91327" lon="8.66298">
        <ele>1566</ele>
        <time>2021-08-07T09:38:58.595Z</time>
      </trkpt>
      <trkpt lat="46.91327" lon="8.66297">
        <ele>1566</ele>
        <time>2021-08-07T09:38:59.596Z</time>
      </trkpt>
      <trkpt lat="46.91326" lon="8.66296">
        <ele>1566</ele>
        <time>2021-08-07T09:39:00.595Z</time>
      </trkpt>
      <trkpt lat="46.91326" lon="8.66296">
        <ele>1565</ele>
        <time>2021-08-07T09:39:01.596Z</time>
      </trkpt>
      <trkpt lat="46.91327" lon="8.66296">
        <ele>1565</ele>
        <time>2021-08-07T09:39:02.596Z</time>
      </trkpt>
      <trkpt lat="46.91327" lon="8.66295">
        <ele>1565</ele>
        <time>2021-08-07T09:39:03.596Z</time>
      </trkpt>
      <trkpt lat="46.91327" lon="8.66295">
        <ele>1564</ele>
        <time>2021-08-07T09:39:04.596Z</time>
      </trkpt>
      <trkpt lat="46.91327" lon="8.66295">
        <ele>1564</ele>
        <time>2021-08-07T09:39:05.595Z</time>
      </trkpt>
      <trkpt lat="46.91326" lon="8.66292">
        <ele>1565</ele>
        <time>2021-08-07T09:39:06.596Z</time>
      </trkpt>
      <trkpt lat="46.91326" lon="8.66291">
        <ele>1565</ele>
        <time>2021-08-07T09:39:07.595Z</time>
      </trkpt>
      <trkpt lat="46.91327" lon="8.6629">
        <ele>1565</ele>
        <time>2021-08-07T09:39:08.595Z</time>
      </trkpt>
      <trkpt lat="46.91327" lon="8.6629">
        <ele>1564</ele>
        <time>2021-08-07T09:39:09.596Z</time>
      </trkpt>
      <trkpt lat="46.91327" lon="8.66289">
        <ele>1564</ele>
        <time>2021-08-07T09:39:10.596Z</time>
      </trkpt>
      <trkpt lat="46.91327" lon="8.66288">
        <ele>1563</ele>
        <time>2021-08-07T09:39:11.596Z</time>
      </trkpt>
      <trkpt lat="46.91327" lon="8.66287">
        <ele>1564</ele>
        <time>2021-08-07T09:39:12.595Z</time>
      </trkpt>
      <trkpt lat="46.91327" lon="8.66287">
        <ele>1564</ele>
        <time>2021-08-07T09:39:13.595Z</time>
      </trkpt>
      <trkpt lat="46.91327" lon="8.66286">
        <ele>1564</ele>
        <time>2021-08-07T09:39:14.595Z</time>
      </trkpt>
      <trkpt lat="46.91326" lon="8.66286">
        <ele>1564</ele>
        <time>2021-08-07T09:39:15.596Z</time>
      </trkpt>
      <trkpt lat="46.91326" lon="8.66285">
        <ele>1564</ele>
        <time>2021-08-07T09:39:16.596Z</time>
      </trkpt>
      <trkpt lat="46.91326" lon="8.66285">
        <ele>1564</ele>
        <time>2021-08-07T09:39:17.596Z</time>
      </trkpt>
      <trkpt lat="46.91326" lon="8.66285">
        <ele>1563</ele>
        <time>2021-08-07T09:39:18.596Z</time>
      </trkpt>
      <trkpt lat="46.91326" lon="8.66284">
        <ele>1563</ele>
        <time>2021-08-07T09:39:19.595Z</time>
      </trkpt>
      <trkpt lat="46.91326" lon="8.66284">
        <ele>1563</ele>
        <time>2021-08-07T09:39:20.596Z</time>
      </trkpt>
      <trkpt lat="46.91325" lon="8.66283">
        <ele>1563</ele>
        <time>2021-08-07T09:39:21.596Z</time>
      </trkpt>
      <trkpt lat="46.91325" lon="8.66282">
        <ele>1563</ele>
        <time>2021-08-07T09:39:22.595Z</time>
      </trkpt>
      <trkpt lat="46.91325" lon="8.66282">
        <ele>1562</ele>
        <time>2021-08-07T09:39:23.596Z</time>
      </trkpt>
      <trkpt lat="46.91325" lon="8.66282">
        <ele>1562</ele>
        <time>2021-08-07T09:39:24.595Z</time>
      </trkpt>
      <trkpt lat="46.91325" lon="8.66281">
        <ele>1562</ele>
        <time>2021-08-07T09:39:25.596Z</time>
      </trkpt>
      <trkpt lat="46.91325" lon="8.66281">
        <ele>1562</ele>
        <time>2021-08-07T09:39:29.745Z</time>
      </trkpt>
      <trkpt lat="46.91325" lon="8.6628">
        <ele>1561</ele>
        <time>2021-08-07T09:39:30.745Z</time>
      </trkpt>
      <trkpt lat="46.91325" lon="8.6628">
        <ele>1561</ele>
        <time>2021-08-07T09:39:31.745Z</time>
      </trkpt>
      <trkpt lat="46.91325" lon="8.66279">
        <ele>1561</ele>
        <time>2021-08-07T09:39:32.745Z</time>
      </trkpt>
      <trkpt lat="46.91325" lon="8.66279">
        <ele>1561</ele>
        <time>2021-08-07T09:39:33.745Z</time>
      </trkpt>
      <trkpt lat="46.91325" lon="8.66278">
        <ele>1560</ele>
        <time>2021-08-07T09:39:34.745Z</time>
      </trkpt>
      <trkpt lat="46.91325" lon="8.66277">
        <ele>1559</ele>
        <time>2021-08-07T09:39:35.745Z</time>
      </trkpt>
      <trkpt lat="46.91325" lon="8.66276">
        <ele>1559</ele>
        <time>2021-08-07T09:39:36.745Z</time>
      </trkpt>
      <trkpt lat="46.91325" lon="8.66276">
        <ele>1558</ele>
        <time>2021-08-07T09:39:37.745Z</time>
      </trkpt>
      <trkpt lat="46.91325" lon="8.66275">
        <ele>1558</ele>
        <time>2021-08-07T09:39:38.745Z</time>
      </trkpt>
      <trkpt lat="46.91325" lon="8.66275">
        <ele>1558</ele>
        <time>2021-08-07T09:39:39.745Z</time>
      </trkpt>
      <trkpt lat="46.91325" lon="8.66275">
        <ele>1558</ele>
        <time>2021-08-07T09:39:40.745Z</time>
      </trkpt>
      <trkpt lat="46.91324" lon="8.66275">
        <ele>1558</ele>
        <time>2021-08-07T09:39:41.745Z</time>
      </trkpt>
      <trkpt lat="46.91324" lon="8.66274">
        <ele>1558</ele>
        <time>2021-08-07T09:39:42.745Z</time>
      </trkpt>
      <trkpt lat="46.91324" lon="8.66274">
        <ele>1558</ele>
        <time>2021-08-07T09:39:43.745Z</time>
      </trkpt>
      <trkpt lat="46.91324" lon="8.66274">
        <ele>1558</ele>
        <time>2021-08-07T09:39:44.744Z</time>
      </trkpt>
      <trkpt lat="46.91324" lon="8.66274">
        <ele>1558</ele>
        <time>2021-08-07T09:39:45.745Z</time>
      </trkpt>
      <trkpt lat="46.91324" lon="8.66274">
        <ele>1558</ele>
        <time>2021-08-07T09:39:46.745Z</time>
      </trkpt>
      <trkpt lat="46.91325" lon="8.66273">
        <ele>1558</ele>
        <time>2021-08-07T09:39:47.744Z</time>
      </trkpt>
      <trkpt lat="46.91325" lon="8.66272">
        <ele>1558</ele>
        <time>2021-08-07T09:39:48.745Z</time>
      </trkpt>
      <trkpt lat="46.91325" lon="8.66271">
        <ele>1559</ele>
        <time>2021-08-07T09:39:49.744Z</time>
      </trkpt>
      <trkpt lat="46.91325" lon="8.6627">
        <ele>1559</ele>
        <time>2021-08-07T09:39:50.744Z</time>
      </trkpt>
      <trkpt lat="46.91325" lon="8.66269">
        <ele>1560</ele>
        <time>2021-08-07T09:39:51.745Z</time>
      </trkpt>
      <trkpt lat="46.91325" lon="8.66269">
        <ele>1560</ele>
        <time>2021-08-07T09:39:52.745Z</time>
      </trkpt>
      <trkpt lat="46.91325" lon="8.66268">
        <ele>1560</ele>
        <time>2021-08-07T09:39:53.745Z</time>
      </trkpt>
      <trkpt lat="46.91325" lon="8.66267">
        <ele>1560</ele>
        <time>2021-08-07T09:39:54.745Z</time>
      </trkpt>
      <trkpt lat="46.91325" lon="8.66266">
        <ele>1560</ele>
        <time>2021-08-07T09:39:55.744Z</time>
      </trkpt>
      <trkpt lat="46.91325" lon="8.66265">
        <ele>1560</ele>
        <time>2021-08-07T09:39:56.744Z</time>
      </trkpt>
      <trkpt lat="46.91325" lon="8.66265">
        <ele>1559</ele>
        <time>2021-08-07T09:39:57.745Z</time>
      </trkpt>
      <trkpt lat="46.91325" lon="8.66264">
        <ele>1559</ele>
        <time>2021-08-07T09:39:58.745Z</time>
      </trkpt>
      <trkpt lat="46.91325" lon="8.66262">
        <ele>1558</ele>
        <time>2021-08-07T09:39:59.745Z</time>
      </trkpt>
      <trkpt lat="46.91325" lon="8.66261">
        <ele>1557</ele>
        <time>2021-08-07T09:40:00.745Z</time>
      </trkpt>
      <trkpt lat="46.91325" lon="8.6626">
        <ele>1557</ele>
        <time>2021-08-07T09:40:01.744Z</time>
      </trkpt>
      <trkpt lat="46.91325" lon="8.6626">
        <ele>1556</ele>
        <time>2021-08-07T09:40:02.745Z</time>
      </trkpt>
      <trkpt lat="46.91324" lon="8.66259">
        <ele>1555</ele>
        <time>2021-08-07T09:40:03.745Z</time>
      </trkpt>
      <trkpt lat="46.91325" lon="8.66258">
        <ele>1554</ele>
        <time>2021-08-07T09:40:04.745Z</time>
      </trkpt>
      <trkpt lat="46.91325" lon="8.66256">
        <ele>1553</ele>
        <time>2021-08-07T09:40:05.745Z</time>
      </trkpt>
      <trkpt lat="46.91326" lon="8.66255">
        <ele>1552</ele>
        <time>2021-08-07T09:40:06.745Z</time>
      </trkpt>
      <trkpt lat="46.91326" lon="8.66253">
        <ele>1552</ele>
        <time>2021-08-07T09:40:07.745Z</time>
      </trkpt>
      <trkpt lat="46.91326" lon="8.66252">
        <ele>1551</ele>
        <time>2021-08-07T09:40:08.745Z</time>
      </trkpt>
      <trkpt lat="46.91327" lon="8.66251">
        <ele>1551</ele>
        <time>2021-08-07T09:40:09.744Z</time>
      </trkpt>
      <trkpt lat="46.91326" lon="8.66249">
        <ele>1551</ele>
        <time>2021-08-07T09:40:10.745Z</time>
      </trkpt>
      <trkpt lat="46.91326" lon="8.66248">
        <ele>1551</ele>
        <time>2021-08-07T09:40:11.744Z</time>
      </trkpt>
      <trkpt lat="46.91325" lon="8.66247">
        <ele>1551</ele>
        <time>2021-08-07T09:40:12.745Z</time>
      </trkpt>
      <trkpt lat="46.91325" lon="8.66247">
        <ele>1551</ele>
        <time>2021-08-07T09:40:13.745Z</time>
      </trkpt>
      <trkpt lat="46.91325" lon="8.66246">
        <ele>1551</ele>
        <time>2021-08-07T09:40:14.745Z</time>
      </trkpt>
      <trkpt lat="46.91324" lon="8.66246">
        <ele>1551</ele>
        <time>2021-08-07T09:40:15.745Z</time>
      </trkpt>
      <trkpt lat="46.91324" lon="8.66246">
        <ele>1551</ele>
        <time>2021-08-07T09:40:16.745Z</time>
      </trkpt>
      <trkpt lat="46.91324" lon="8.66245">
        <ele>1551</ele>
        <time>2021-08-07T09:40:17.745Z</time>
      </trkpt>
      <trkpt lat="46.91324" lon="8.66244">
        <ele>1551</ele>
        <time>2021-08-07T09:40:18.745Z</time>
      </trkpt>
      <trkpt lat="46.91324" lon="8.66243">
        <ele>1550</ele>
        <time>2021-08-07T09:40:19.744Z</time>
      </trkpt>
      <trkpt lat="46.91324" lon="8.66243">
        <ele>1550</ele>
        <time>2021-08-07T09:40:20.745Z</time>
      </trkpt>
      <trkpt lat="46.91325" lon="8.66244">
        <ele>1552</ele>
        <time>2021-08-07T09:40:21.745Z</time>
      </trkpt>
      <trkpt lat="46.91326" lon="8.66244">
        <ele>1552</ele>
        <time>2021-08-07T09:40:22.744Z</time>
      </trkpt>
      <trkpt lat="46.91326" lon="8.66243">
        <ele>1552</ele>
        <time>2021-08-07T09:40:23.745Z</time>
      </trkpt>
      <trkpt lat="46.91326" lon="8.66243">
        <ele>1552</ele>
        <time>2021-08-07T09:40:24.745Z</time>
      </trkpt>
      <trkpt lat="46.91327" lon="8.66242">
        <ele>1553</ele>
        <time>2021-08-07T09:40:25.745Z</time>
      </trkpt>
      <trkpt lat="46.91327" lon="8.66242">
        <ele>1553</ele>
        <time>2021-08-07T09:40:26.745Z</time>
      </trkpt>
      <trkpt lat="46.91328" lon="8.6624">
        <ele>1553</ele>
        <time>2021-08-07T09:40:27.744Z</time>
      </trkpt>
      <trkpt lat="46.91328" lon="8.66239">
        <ele>1553</ele>
        <time>2021-08-07T09:40:28.745Z</time>
      </trkpt>
      <trkpt lat="46.91328" lon="8.66238">
        <ele>1553</ele>
        <time>2021-08-07T09:40:29.744Z</time>
      </trkpt>
      <trkpt lat="46.91328" lon="8.66237">
        <ele>1552</ele>
        <time>2021-08-07T09:40:30.744Z</time>
      </trkpt>
      <trkpt lat="46.91328" lon="8.66236">
        <ele>1552</ele>
        <time>2021-08-07T09:40:31.745Z</time>
      </trkpt>
      <trkpt lat="46.91329" lon="8.66235">
        <ele>1552</ele>
        <time>2021-08-07T09:40:32.745Z</time>
      </trkpt>
      <trkpt lat="46.91329" lon="8.66234">
        <ele>1551</ele>
        <time>2021-08-07T09:40:33.745Z</time>
      </trkpt>
      <trkpt lat="46.91329" lon="8.66233">
        <ele>1551</ele>
        <time>2021-08-07T09:40:37.851Z</time>
      </trkpt>
      <trkpt lat="46.9133" lon="8.66232">
        <ele>1550</ele>
        <time>2021-08-07T09:40:38.851Z</time>
      </trkpt>
      <trkpt lat="46.9133" lon="8.66231">
        <ele>1550</ele>
        <time>2021-08-07T09:40:39.850Z</time>
      </trkpt>
      <trkpt lat="46.91331" lon="8.6623">
        <ele>1550</ele>
        <time>2021-08-07T09:40:40.851Z</time>
      </trkpt>
      <trkpt lat="46.91332" lon="8.6623">
        <ele>1550</ele>
        <time>2021-08-07T09:40:41.850Z</time>
      </trkpt>
      <trkpt lat="46.91332" lon="8.66229">
        <ele>1549</ele>
        <time>2021-08-07T09:40:42.850Z</time>
      </trkpt>
      <trkpt lat="46.91333" lon="8.66228">
        <ele>1549</ele>
        <time>2021-08-07T09:40:43.850Z</time>
      </trkpt>
      <trkpt lat="46.91333" lon="8.66227">
        <ele>1549</ele>
        <time>2021-08-07T09:40:44.850Z</time>
      </trkpt>
      <trkpt lat="46.91334" lon="8.66226">
        <ele>1549</ele>
        <time>2021-08-07T09:40:45.851Z</time>
      </trkpt>
      <trkpt lat="46.91334" lon="8.66225">
        <ele>1549</ele>
        <time>2021-08-07T09:40:46.850Z</time>
      </trkpt>
      <trkpt lat="46.91334" lon="8.66224">
        <ele>1548</ele>
        <time>2021-08-07T09:40:47.850Z</time>
      </trkpt>
      <trkpt lat="46.91334" lon="8.66224">
        <ele>1548</ele>
        <time>2021-08-07T09:40:50.923Z</time>
      </trkpt>
      <trkpt lat="46.91335" lon="8.66223">
        <ele>1548</ele>
        <time>2021-08-07T09:40:51.922Z</time>
      </trkpt>
      <trkpt lat="46.91335" lon="8.66223">
        <ele>1547</ele>
        <time>2021-08-07T09:40:52.922Z</time>
      </trkpt>
      <trkpt lat="46.91335" lon="8.66222">
        <ele>1547</ele>
        <time>2021-08-07T09:40:53.922Z</time>
      </trkpt>
      <trkpt lat="46.91337" lon="8.6622">
        <ele>1553</ele>
        <time>2021-08-07T09:40:54.923Z</time>
      </trkpt>
      <trkpt lat="46.91337" lon="8.66219">
        <ele>1553</ele>
        <time>2021-08-07T09:40:55.924Z</time>
      </trkpt>
      <trkpt lat="46.91337" lon="8.66217">
        <ele>1552</ele>
        <time>2021-08-07T09:40:56.924Z</time>
      </trkpt>
      <trkpt lat="46.91337" lon="8.66216">
        <ele>1552</ele>
        <time>2021-08-07T09:40:57.924Z</time>
      </trkpt>
      <trkpt lat="46.91336" lon="8.66214">
        <ele>1551</ele>
        <time>2021-08-07T09:40:58.924Z</time>
      </trkpt>
      <trkpt lat="46.91336" lon="8.66213">
        <ele>1551</ele>
        <time>2021-08-07T09:40:59.923Z</time>
      </trkpt>
      <trkpt lat="46.91336" lon="8.66211">
        <ele>1550</ele>
        <time>2021-08-07T09:41:00.924Z</time>
      </trkpt>
      <trkpt lat="46.91337" lon="8.66209">
        <ele>1550</ele>
        <time>2021-08-07T09:41:01.923Z</time>
      </trkpt>
      <trkpt lat="46.91337" lon="8.66208">
        <ele>1549</ele>
        <time>2021-08-07T09:41:02.924Z</time>
      </trkpt>
      <trkpt lat="46.91337" lon="8.66207">
        <ele>1549</ele>
        <time>2021-08-07T09:41:03.924Z</time>
      </trkpt>
      <trkpt lat="46.91337" lon="8.66206">
        <ele>1549</ele>
        <time>2021-08-07T09:41:04.923Z</time>
      </trkpt>
      <trkpt lat="46.91337" lon="8.66204">
        <ele>1549</ele>
        <time>2021-08-07T09:41:05.924Z</time>
      </trkpt>
      <trkpt lat="46.91338" lon="8.66203">
        <ele>1549</ele>
        <time>2021-08-07T09:41:06.924Z</time>
      </trkpt>
      <trkpt lat="46.91338" lon="8.66203">
        <ele>1548</ele>
        <time>2021-08-07T09:41:07.924Z</time>
      </trkpt>
      <trkpt lat="46.91338" lon="8.66202">
        <ele>1547</ele>
        <time>2021-08-07T09:41:08.923Z</time>
      </trkpt>
      <trkpt lat="46.91338" lon="8.66202">
        <ele>1546</ele>
        <time>2021-08-07T09:41:09.923Z</time>
      </trkpt>
      <trkpt lat="46.91338" lon="8.66201">
        <ele>1546</ele>
        <time>2021-08-07T09:41:10.923Z</time>
      </trkpt>
      <trkpt lat="46.91338" lon="8.662">
        <ele>1545</ele>
        <time>2021-08-07T09:41:11.923Z</time>
      </trkpt>
      <trkpt lat="46.91338" lon="8.66199">
        <ele>1544</ele>
        <time>2021-08-07T09:41:15.936Z</time>
      </trkpt>
      <trkpt lat="46.91338" lon="8.66198">
        <ele>1544</ele>
        <time>2021-08-07T09:41:16.937Z</time>
      </trkpt>
      <trkpt lat="46.91339" lon="8.66198">
        <ele>1543</ele>
        <time>2021-08-07T09:41:17.936Z</time>
      </trkpt>
      <trkpt lat="46.91339" lon="8.66197">
        <ele>1543</ele>
        <time>2021-08-07T09:41:18.937Z</time>
      </trkpt>
      <trkpt lat="46.91339" lon="8.66197">
        <ele>1543</ele>
        <time>2021-08-07T09:41:19.937Z</time>
      </trkpt>
      <trkpt lat="46.91339" lon="8.66197">
        <ele>1543</ele>
        <time>2021-08-07T09:41:20.937Z</time>
      </trkpt>
      <trkpt lat="46.91339" lon="8.66196">
        <ele>1543</ele>
        <time>2021-08-07T09:41:21.936Z</time>
      </trkpt>
      <trkpt lat="46.91339" lon="8.66196">
        <ele>1543</ele>
        <time>2021-08-07T09:41:22.936Z</time>
      </trkpt>
      <trkpt lat="46.91339" lon="8.66195">
        <ele>1543</ele>
        <time>2021-08-07T09:41:23.937Z</time>
      </trkpt>
      <trkpt lat="46.91339" lon="8.66195">
        <ele>1543</ele>
        <time>2021-08-07T09:41:24.937Z</time>
      </trkpt>
      <trkpt lat="46.9134" lon="8.66194">
        <ele>1543</ele>
        <time>2021-08-07T09:41:25.936Z</time>
      </trkpt>
      <trkpt lat="46.9134" lon="8.66194">
        <ele>1542</ele>
        <time>2021-08-07T09:41:26.937Z</time>
      </trkpt>
      <trkpt lat="46.9134" lon="8.66193">
        <ele>1542</ele>
        <time>2021-08-07T09:41:27.937Z</time>
      </trkpt>
      <trkpt lat="46.9134" lon="8.66192">
        <ele>1541</ele>
        <time>2021-08-07T09:41:28.937Z</time>
      </trkpt>
      <trkpt lat="46.91341" lon="8.6619">
        <ele>1541</ele>
        <time>2021-08-07T09:41:29.937Z</time>
      </trkpt>
      <trkpt lat="46.91341" lon="8.66189">
        <ele>1540</ele>
        <time>2021-08-07T09:41:30.936Z</time>
      </trkpt>
      <trkpt lat="46.91342" lon="8.66188">
        <ele>1540</ele>
        <time>2021-08-07T09:41:31.937Z</time>
      </trkpt>
      <trkpt lat="46.91342" lon="8.66186">
        <ele>1541</ele>
        <time>2021-08-07T09:41:32.936Z</time>
      </trkpt>
      <trkpt lat="46.91342" lon="8.66185">
        <ele>1542</ele>
        <time>2021-08-07T09:41:33.937Z</time>
      </trkpt>
      <trkpt lat="46.91342" lon="8.66184">
        <ele>1542</ele>
        <time>2021-08-07T09:41:34.937Z</time>
      </trkpt>
      <trkpt lat="46.91342" lon="8.66183">
        <ele>1542</ele>
        <time>2021-08-07T09:41:35.937Z</time>
      </trkpt>
      <trkpt lat="46.91342" lon="8.66181">
        <ele>1542</ele>
        <time>2021-08-07T09:41:36.937Z</time>
      </trkpt>
      <trkpt lat="46.91342" lon="8.6618">
        <ele>1541</ele>
        <time>2021-08-07T09:41:37.937Z</time>
      </trkpt>
      <trkpt lat="46.91343" lon="8.66178">
        <ele>1541</ele>
        <time>2021-08-07T09:41:38.937Z</time>
      </trkpt>
      <trkpt lat="46.91343" lon="8.66177">
        <ele>1541</ele>
        <time>2021-08-07T09:41:39.937Z</time>
      </trkpt>
      <trkpt lat="46.91343" lon="8.66176">
        <ele>1540</ele>
        <time>2021-08-07T09:41:40.936Z</time>
      </trkpt>
      <trkpt lat="46.91343" lon="8.66174">
        <ele>1540</ele>
        <time>2021-08-07T09:41:41.936Z</time>
      </trkpt>
      <trkpt lat="46.91343" lon="8.66173">
        <ele>1540</ele>
        <time>2021-08-07T09:41:42.937Z</time>
      </trkpt>
      <trkpt lat="46.91343" lon="8.66172">
        <ele>1539</ele>
        <time>2021-08-07T09:41:43.937Z</time>
      </trkpt>
      <trkpt lat="46.91343" lon="8.66171">
        <ele>1538</ele>
        <time>2021-08-07T09:41:44.936Z</time>
      </trkpt>
      <trkpt lat="46.91344" lon="8.66169">
        <ele>1538</ele>
        <time>2021-08-07T09:41:45.937Z</time>
      </trkpt>
      <trkpt lat="46.91344" lon="8.66168">
        <ele>1538</ele>
        <time>2021-08-07T09:41:46.937Z</time>
      </trkpt>
      <trkpt lat="46.91344" lon="8.66166">
        <ele>1538</ele>
        <time>2021-08-07T09:41:47.936Z</time>
      </trkpt>
      <trkpt lat="46.91344" lon="8.66165">
        <ele>1538</ele>
        <time>2021-08-07T09:41:48.937Z</time>
      </trkpt>
      <trkpt lat="46.91344" lon="8.66164">
        <ele>1537</ele>
        <time>2021-08-07T09:41:49.937Z</time>
      </trkpt>
      <trkpt lat="46.91344" lon="8.66163">
        <ele>1536</ele>
        <time>2021-08-07T09:41:50.936Z</time>
      </trkpt>
      <trkpt lat="46.91344" lon="8.66162">
        <ele>1535</ele>
        <time>2021-08-07T09:41:51.936Z</time>
      </trkpt>
      <trkpt lat="46.91344" lon="8.66161">
        <ele>1535</ele>
        <time>2021-08-07T09:41:52.937Z</time>
      </trkpt>
      <trkpt lat="46.91345" lon="8.6616">
        <ele>1534</ele>
        <time>2021-08-07T09:41:53.937Z</time>
      </trkpt>
      <trkpt lat="46.91346" lon="8.66158">
        <ele>1534</ele>
        <time>2021-08-07T09:41:54.937Z</time>
      </trkpt>
      <trkpt lat="46.91346" lon="8.66157">
        <ele>1534</ele>
        <time>2021-08-07T09:41:55.936Z</time>
      </trkpt>
      <trkpt lat="46.91347" lon="8.66156">
        <ele>1533</ele>
        <time>2021-08-07T09:41:56.936Z</time>
      </trkpt>
      <trkpt lat="46.91347" lon="8.66156">
        <ele>1533</ele>
        <time>2021-08-07T09:41:57.937Z</time>
      </trkpt>
      <trkpt lat="46.91348" lon="8.66155">
        <ele>1533</ele>
        <time>2021-08-07T09:41:58.937Z</time>
      </trkpt>
      <trkpt lat="46.91348" lon="8.66154">
        <ele>1532</ele>
        <time>2021-08-07T09:41:59.936Z</time>
      </trkpt>
      <trkpt lat="46.91349" lon="8.66153">
        <ele>1532</ele>
        <time>2021-08-07T09:42:00.937Z</time>
      </trkpt>
      <trkpt lat="46.91349" lon="8.66152">
        <ele>1531</ele>
        <time>2021-08-07T09:42:01.937Z</time>
      </trkpt>
      <trkpt lat="46.91349" lon="8.66151">
        <ele>1531</ele>
        <time>2021-08-07T09:42:02.936Z</time>
      </trkpt>
      <trkpt lat="46.91349" lon="8.6615">
        <ele>1531</ele>
        <time>2021-08-07T09:42:03.936Z</time>
      </trkpt>
      <trkpt lat="46.9135" lon="8.66149">
        <ele>1531</ele>
        <time>2021-08-07T09:42:04.936Z</time>
      </trkpt>
      <trkpt lat="46.9135" lon="8.66148">
        <ele>1531</ele>
        <time>2021-08-07T09:42:05.937Z</time>
      </trkpt>
      <trkpt lat="46.9135" lon="8.66146">
        <ele>1532</ele>
        <time>2021-08-07T09:42:06.936Z</time>
      </trkpt>
      <trkpt lat="46.9135" lon="8.66145">
        <ele>1532</ele>
        <time>2021-08-07T09:42:07.936Z</time>
      </trkpt>
      <trkpt lat="46.9135" lon="8.66143">
        <ele>1532</ele>
        <time>2021-08-07T09:42:08.936Z</time>
      </trkpt>
      <trkpt lat="46.9135" lon="8.66142">
        <ele>1532</ele>
        <time>2021-08-07T09:42:09.936Z</time>
      </trkpt>
      <trkpt lat="46.91351" lon="8.6614">
        <ele>1532</ele>
        <time>2021-08-07T09:42:10.936Z</time>
      </trkpt>
      <trkpt lat="46.91351" lon="8.66138">
        <ele>1531</ele>
        <time>2021-08-07T09:42:11.936Z</time>
      </trkpt>
      <trkpt lat="46.91352" lon="8.66137">
        <ele>1531</ele>
        <time>2021-08-07T09:42:12.936Z</time>
      </trkpt>
      <trkpt lat="46.91352" lon="8.66136">
        <ele>1531</ele>
        <time>2021-08-07T09:42:13.936Z</time>
      </trkpt>
      <trkpt lat="46.91352" lon="8.66135">
        <ele>1530</ele>
        <time>2021-08-07T09:42:14.936Z</time>
      </trkpt>
      <trkpt lat="46.91353" lon="8.66134">
        <ele>1529</ele>
        <time>2021-08-07T09:42:15.936Z</time>
      </trkpt>
      <trkpt lat="46.91353" lon="8.66133">
        <ele>1529</ele>
        <time>2021-08-07T09:42:16.936Z</time>
      </trkpt>
      <trkpt lat="46.91353" lon="8.66133">
        <ele>1529</ele>
        <time>2021-08-07T09:42:17.936Z</time>
      </trkpt>
      <trkpt lat="46.91354" lon="8.66133">
        <ele>1532</ele>
        <time>2021-08-07T09:42:18.936Z</time>
      </trkpt>
      <trkpt lat="46.91352" lon="8.66136">
        <ele>1531</ele>
        <time>2021-08-07T09:42:19.937Z</time>
      </trkpt>
      <trkpt lat="46.91351" lon="8.66136">
        <ele>1531</ele>
        <time>2021-08-07T09:42:20.936Z</time>
      </trkpt>
      <trkpt lat="46.91351" lon="8.66135">
        <ele>1530</ele>
        <time>2021-08-07T09:42:21.936Z</time>
      </trkpt>
      <trkpt lat="46.91351" lon="8.66135">
        <ele>1530</ele>
        <time>2021-08-07T09:42:22.936Z</time>
      </trkpt>
      <trkpt lat="46.91352" lon="8.66134">
        <ele>1530</ele>
        <time>2021-08-07T09:42:23.936Z</time>
      </trkpt>
      <trkpt lat="46.91352" lon="8.66135">
        <ele>1530</ele>
        <time>2021-08-07T09:42:24.937Z</time>
      </trkpt>
      <trkpt lat="46.91354" lon="8.66135">
        <ele>1530</ele>
        <time>2021-08-07T09:42:25.937Z</time>
      </trkpt>
      <trkpt lat="46.91353" lon="8.66135">
        <ele>1530</ele>
        <time>2021-08-07T09:42:26.938Z</time>
      </trkpt>
      <trkpt lat="46.91353" lon="8.66134">
        <ele>1531</ele>
        <time>2021-08-07T09:42:27.938Z</time>
      </trkpt>
      <trkpt lat="46.91354" lon="8.66135">
        <ele>1536</ele>
        <time>2021-08-07T09:42:28.939Z</time>
      </trkpt>
      <trkpt lat="46.91354" lon="8.66135">
        <ele>1537</ele>
        <time>2021-08-07T09:42:29.939Z</time>
      </trkpt>
      <trkpt lat="46.91353" lon="8.66134">
        <ele>1545</ele>
        <time>2021-08-07T09:42:30.940Z</time>
      </trkpt>
      <trkpt lat="46.91352" lon="8.66135">
        <ele>1545</ele>
        <time>2021-08-07T09:42:31.940Z</time>
      </trkpt>
      <trkpt lat="46.91352" lon="8.66135">
        <ele>1545</ele>
        <time>2021-08-07T09:42:34.079Z</time>
      </trkpt>
      <trkpt lat="46.91352" lon="8.66135">
        <ele>1546</ele>
        <time>2021-08-07T09:42:35.079Z</time>
      </trkpt>
      <trkpt lat="46.91351" lon="8.66135">
        <ele>1546</ele>
        <time>2021-08-07T09:42:36.079Z</time>
      </trkpt>
      <trkpt lat="46.91351" lon="8.66135">
        <ele>1545</ele>
        <time>2021-08-07T09:42:37.080Z</time>
      </trkpt>
      <trkpt lat="46.91352" lon="8.66134">
        <ele>1545</ele>
        <time>2021-08-07T09:42:38.080Z</time>
      </trkpt>
      <trkpt lat="46.91352" lon="8.66133">
        <ele>1544</ele>
        <time>2021-08-07T09:42:39.080Z</time>
      </trkpt>
      <trkpt lat="46.91353" lon="8.66131">
        <ele>1543</ele>
        <time>2021-08-07T09:42:40.080Z</time>
      </trkpt>
      <trkpt lat="46.91353" lon="8.6613">
        <ele>1543</ele>
        <time>2021-08-07T09:42:41.079Z</time>
      </trkpt>
      <trkpt lat="46.91354" lon="8.6613">
        <ele>1542</ele>
        <time>2021-08-07T09:42:42.080Z</time>
      </trkpt>
      <trkpt lat="46.91354" lon="8.66129">
        <ele>1542</ele>
        <time>2021-08-07T09:42:51.204Z</time>
      </trkpt>
      <trkpt lat="46.91354" lon="8.66129">
        <ele>1541</ele>
        <time>2021-08-07T09:42:59.061Z</time>
      </trkpt>
      <trkpt lat="46.91354" lon="8.66129">
        <ele>1541</ele>
        <time>2021-08-07T09:43:00.061Z</time>
      </trkpt>
      <trkpt lat="46.91353" lon="8.66128">
        <ele>1537</ele>
        <time>2021-08-07T09:43:01.061Z</time>
      </trkpt>
      <trkpt lat="46.91353" lon="8.66127">
        <ele>1536</ele>
        <time>2021-08-07T09:43:02.061Z</time>
      </trkpt>
      <trkpt lat="46.91353" lon="8.66126">
        <ele>1536</ele>
        <time>2021-08-07T09:43:03.062Z</time>
      </trkpt>
      <trkpt lat="46.91353" lon="8.66125">
        <ele>1535</ele>
        <time>2021-08-07T09:43:04.061Z</time>
      </trkpt>
      <trkpt lat="46.91353" lon="8.66124">
        <ele>1534</ele>
        <time>2021-08-07T09:43:05.061Z</time>
      </trkpt>
      <trkpt lat="46.91353" lon="8.66123">
        <ele>1534</ele>
        <time>2021-08-07T09:43:06.061Z</time>
      </trkpt>
      <trkpt lat="46.91354" lon="8.66122">
        <ele>1533</ele>
        <time>2021-08-07T09:43:07.062Z</time>
      </trkpt>
      <trkpt lat="46.91354" lon="8.66121">
        <ele>1532</ele>
        <time>2021-08-07T09:43:08.061Z</time>
      </trkpt>
      <trkpt lat="46.91354" lon="8.6612">
        <ele>1532</ele>
        <time>2021-08-07T09:43:09.061Z</time>
      </trkpt>
      <trkpt lat="46.91354" lon="8.66119">
        <ele>1531</ele>
        <time>2021-08-07T09:43:10.062Z</time>
      </trkpt>
      <trkpt lat="46.91353" lon="8.66119">
        <ele>1531</ele>
        <time>2021-08-07T09:43:11.062Z</time>
      </trkpt>
      <trkpt lat="46.91354" lon="8.66117">
        <ele>1529</ele>
        <time>2021-08-07T09:43:12.062Z</time>
      </trkpt>
      <trkpt lat="46.91354" lon="8.66116">
        <ele>1528</ele>
        <time>2021-08-07T09:43:13.062Z</time>
      </trkpt>
      <trkpt lat="46.91356" lon="8.66114">
        <ele>1528</ele>
        <time>2021-08-07T09:43:14.063Z</time>
      </trkpt>
      <trkpt lat="46.91357" lon="8.66112">
        <ele>1528</ele>
        <time>2021-08-07T09:43:15.063Z</time>
      </trkpt>
      <trkpt lat="46.91356" lon="8.66111">
        <ele>1528</ele>
        <time>2021-08-07T09:43:16.062Z</time>
      </trkpt>
      <trkpt lat="46.91357" lon="8.66109">
        <ele>1528</ele>
        <time>2021-08-07T09:43:17.062Z</time>
      </trkpt>
      <trkpt lat="46.91357" lon="8.66108">
        <ele>1527</ele>
        <time>2021-08-07T09:43:18.062Z</time>
      </trkpt>
      <trkpt lat="46.91357" lon="8.66107">
        <ele>1527</ele>
        <time>2021-08-07T09:43:19.062Z</time>
      </trkpt>
      <trkpt lat="46.91358" lon="8.66105">
        <ele>1527</ele>
        <time>2021-08-07T09:43:20.062Z</time>
      </trkpt>
      <trkpt lat="46.91358" lon="8.66104">
        <ele>1527</ele>
        <time>2021-08-07T09:43:21.063Z</time>
      </trkpt>
      <trkpt lat="46.91358" lon="8.66103">
        <ele>1527</ele>
        <time>2021-08-07T09:43:22.063Z</time>
      </trkpt>
      <trkpt lat="46.91359" lon="8.66102">
        <ele>1527</ele>
        <time>2021-08-07T09:43:23.063Z</time>
      </trkpt>
      <trkpt lat="46.91359" lon="8.66101">
        <ele>1527</ele>
        <time>2021-08-07T09:43:24.063Z</time>
      </trkpt>
      <trkpt lat="46.91359" lon="8.66099">
        <ele>1526</ele>
        <time>2021-08-07T09:43:25.063Z</time>
      </trkpt>
      <trkpt lat="46.91359" lon="8.66098">
        <ele>1526</ele>
        <time>2021-08-07T09:43:26.063Z</time>
      </trkpt>
      <trkpt lat="46.9136" lon="8.66096">
        <ele>1526</ele>
        <time>2021-08-07T09:43:27.063Z</time>
      </trkpt>
      <trkpt lat="46.9136" lon="8.66095">
        <ele>1525</ele>
        <time>2021-08-07T09:43:28.063Z</time>
      </trkpt>
      <trkpt lat="46.9136" lon="8.66094">
        <ele>1525</ele>
        <time>2021-08-07T09:43:29.063Z</time>
      </trkpt>
      <trkpt lat="46.9136" lon="8.66093">
        <ele>1525</ele>
        <time>2021-08-07T09:43:30.062Z</time>
      </trkpt>
      <trkpt lat="46.91361" lon="8.66091">
        <ele>1524</ele>
        <time>2021-08-07T09:43:31.063Z</time>
      </trkpt>
      <trkpt lat="46.91361" lon="8.6609">
        <ele>1524</ele>
        <time>2021-08-07T09:43:32.063Z</time>
      </trkpt>
      <trkpt lat="46.91361" lon="8.66088">
        <ele>1523</ele>
        <time>2021-08-07T09:43:33.063Z</time>
      </trkpt>
      <trkpt lat="46.91361" lon="8.66087">
        <ele>1523</ele>
        <time>2021-08-07T09:43:34.063Z</time>
      </trkpt>
      <trkpt lat="46.91361" lon="8.66086">
        <ele>1523</ele>
        <time>2021-08-07T09:43:35.063Z</time>
      </trkpt>
      <trkpt lat="46.91361" lon="8.66085">
        <ele>1523</ele>
        <time>2021-08-07T09:43:36.063Z</time>
      </trkpt>
      <trkpt lat="46.91362" lon="8.66085">
        <ele>1523</ele>
        <time>2021-08-07T09:43:37.062Z</time>
      </trkpt>
      <trkpt lat="46.91362" lon="8.66084">
        <ele>1522</ele>
        <time>2021-08-07T09:43:38.062Z</time>
      </trkpt>
      <trkpt lat="46.91362" lon="8.66083">
        <ele>1521</ele>
        <time>2021-08-07T09:43:39.063Z</time>
      </trkpt>
      <trkpt lat="46.91362" lon="8.66081">
        <ele>1521</ele>
        <time>2021-08-07T09:43:40.063Z</time>
      </trkpt>
      <trkpt lat="46.91362" lon="8.6608">
        <ele>1521</ele>
        <time>2021-08-07T09:43:41.063Z</time>
      </trkpt>
      <trkpt lat="46.91362" lon="8.66079">
        <ele>1520</ele>
        <time>2021-08-07T09:43:42.062Z</time>
      </trkpt>
      <trkpt lat="46.91362" lon="8.66078">
        <ele>1520</ele>
        <time>2021-08-07T09:43:43.063Z</time>
      </trkpt>
      <trkpt lat="46.91363" lon="8.66076">
        <ele>1519</ele>
        <time>2021-08-07T09:43:44.063Z</time>
      </trkpt>
      <trkpt lat="46.91363" lon="8.66075">
        <ele>1518</ele>
        <time>2021-08-07T09:43:45.063Z</time>
      </trkpt>
      <trkpt lat="46.91363" lon="8.66074">
        <ele>1517</ele>
        <time>2021-08-07T09:43:46.063Z</time>
      </trkpt>
      <trkpt lat="46.91364" lon="8.66073">
        <ele>1517</ele>
        <time>2021-08-07T09:43:47.063Z</time>
      </trkpt>
      <trkpt lat="46.91364" lon="8.66072">
        <ele>1517</ele>
        <time>2021-08-07T09:43:48.063Z</time>
      </trkpt>
      <trkpt lat="46.91364" lon="8.66071">
        <ele>1516</ele>
        <time>2021-08-07T09:43:49.063Z</time>
      </trkpt>
      <trkpt lat="46.91364" lon="8.6607">
        <ele>1516</ele>
        <time>2021-08-07T09:43:50.062Z</time>
      </trkpt>
      <trkpt lat="46.91364" lon="8.66069">
        <ele>1516</ele>
        <time>2021-08-07T09:43:51.062Z</time>
      </trkpt>
      <trkpt lat="46.91364" lon="8.66068">
        <ele>1515</ele>
        <time>2021-08-07T09:43:52.063Z</time>
      </trkpt>
      <trkpt lat="46.91365" lon="8.66067">
        <ele>1515</ele>
        <time>2021-08-07T09:43:53.063Z</time>
      </trkpt>
      <trkpt lat="46.91365" lon="8.66066">
        <ele>1515</ele>
        <time>2021-08-07T09:43:54.062Z</time>
      </trkpt>
      <trkpt lat="46.91365" lon="8.66064">
        <ele>1515</ele>
        <time>2021-08-07T09:43:55.063Z</time>
      </trkpt>
      <trkpt lat="46.91364" lon="8.66063">
        <ele>1514</ele>
        <time>2021-08-07T09:43:56.063Z</time>
      </trkpt>
      <trkpt lat="46.91364" lon="8.66061">
        <ele>1514</ele>
        <time>2021-08-07T09:43:57.063Z</time>
      </trkpt>
      <trkpt lat="46.91364" lon="8.6606">
        <ele>1514</ele>
        <time>2021-08-07T09:43:58.063Z</time>
      </trkpt>
      <trkpt lat="46.91364" lon="8.66059">
        <ele>1514</ele>
        <time>2021-08-07T09:43:59.062Z</time>
      </trkpt>
      <trkpt lat="46.91364" lon="8.66058">
        <ele>1514</ele>
        <time>2021-08-07T09:44:00.063Z</time>
      </trkpt>
      <trkpt lat="46.91364" lon="8.66056">
        <ele>1514</ele>
        <time>2021-08-07T09:44:01.062Z</time>
      </trkpt>
      <trkpt lat="46.91363" lon="8.66055">
        <ele>1514</ele>
        <time>2021-08-07T09:44:02.063Z</time>
      </trkpt>
      <trkpt lat="46.91363" lon="8.66054">
        <ele>1515</ele>
        <time>2021-08-07T09:44:03.063Z</time>
      </trkpt>
      <trkpt lat="46.91363" lon="8.66052">
        <ele>1515</ele>
        <time>2021-08-07T09:44:04.063Z</time>
      </trkpt>
      <trkpt lat="46.91362" lon="8.66051">
        <ele>1515</ele>
        <time>2021-08-07T09:44:05.063Z</time>
      </trkpt>
      <trkpt lat="46.91362" lon="8.66051">
        <ele>1515</ele>
        <time>2021-08-07T09:44:06.063Z</time>
      </trkpt>
      <trkpt lat="46.91362" lon="8.6605">
        <ele>1515</ele>
        <time>2021-08-07T09:44:07.063Z</time>
      </trkpt>
      <trkpt lat="46.91363" lon="8.6605">
        <ele>1515</ele>
        <time>2021-08-07T09:44:08.062Z</time>
      </trkpt>
      <trkpt lat="46.91364" lon="8.66051">
        <ele>1517</ele>
        <time>2021-08-07T09:44:09.062Z</time>
      </trkpt>
      <trkpt lat="46.91364" lon="8.6605">
        <ele>1518</ele>
        <time>2021-08-07T09:44:10.063Z</time>
      </trkpt>
      <trkpt lat="46.91364" lon="8.66049">
        <ele>1518</ele>
        <time>2021-08-07T09:44:11.062Z</time>
      </trkpt>
      <trkpt lat="46.91365" lon="8.66048">
        <ele>1518</ele>
        <time>2021-08-07T09:44:12.062Z</time>
      </trkpt>
      <trkpt lat="46.91365" lon="8.66047">
        <ele>1518</ele>
        <time>2021-08-07T09:44:13.063Z</time>
      </trkpt>
      <trkpt lat="46.91366" lon="8.66046">
        <ele>1517</ele>
        <time>2021-08-07T09:44:14.062Z</time>
      </trkpt>
      <trkpt lat="46.91366" lon="8.66046">
        <ele>1517</ele>
        <time>2021-08-07T09:44:15.063Z</time>
      </trkpt>
      <trkpt lat="46.91366" lon="8.66045">
        <ele>1517</ele>
        <time>2021-08-07T09:44:16.062Z</time>
      </trkpt>
      <trkpt lat="46.91366" lon="8.66045">
        <ele>1516</ele>
        <time>2021-08-07T09:44:17.062Z</time>
      </trkpt>
      <trkpt lat="46.91367" lon="8.66043">
        <ele>1517</ele>
        <time>2021-08-07T09:44:18.063Z</time>
      </trkpt>
      <trkpt lat="46.91367" lon="8.66041">
        <ele>1516</ele>
        <time>2021-08-07T09:44:19.063Z</time>
      </trkpt>
      <trkpt lat="46.91368" lon="8.66041">
        <ele>1516</ele>
        <time>2021-08-07T09:44:20.063Z</time>
      </trkpt>
      <trkpt lat="46.91368" lon="8.6604">
        <ele>1516</ele>
        <time>2021-08-07T09:44:21.063Z</time>
      </trkpt>
      <trkpt lat="46.91368" lon="8.66039">
        <ele>1515</ele>
        <time>2021-08-07T09:44:22.062Z</time>
      </trkpt>
      <trkpt lat="46.91369" lon="8.66038">
        <ele>1515</ele>
        <time>2021-08-07T09:44:23.063Z</time>
      </trkpt>
      <trkpt lat="46.91369" lon="8.66037">
        <ele>1515</ele>
        <time>2021-08-07T09:44:24.063Z</time>
      </trkpt>
      <trkpt lat="46.9137" lon="8.66036">
        <ele>1514</ele>
        <time>2021-08-07T09:44:25.063Z</time>
      </trkpt>
      <trkpt lat="46.91371" lon="8.66035">
        <ele>1514</ele>
        <time>2021-08-07T09:44:26.062Z</time>
      </trkpt>
      <trkpt lat="46.91372" lon="8.66034">
        <ele>1514</ele>
        <time>2021-08-07T09:44:27.062Z</time>
      </trkpt>
      <trkpt lat="46.91372" lon="8.66033">
        <ele>1514</ele>
        <time>2021-08-07T09:44:28.063Z</time>
      </trkpt>
      <trkpt lat="46.91373" lon="8.66032">
        <ele>1514</ele>
        <time>2021-08-07T09:44:29.063Z</time>
      </trkpt>
      <trkpt lat="46.91374" lon="8.66032">
        <ele>1514</ele>
        <time>2021-08-07T09:44:30.063Z</time>
      </trkpt>
      <trkpt lat="46.91375" lon="8.66032">
        <ele>1514</ele>
        <time>2021-08-07T09:44:31.063Z</time>
      </trkpt>
      <trkpt lat="46.91375" lon="8.66032">
        <ele>1514</ele>
        <time>2021-08-07T09:44:32.062Z</time>
      </trkpt>
      <trkpt lat="46.91376" lon="8.66032">
        <ele>1514</ele>
        <time>2021-08-07T09:44:39.074Z</time>
      </trkpt>
      <trkpt lat="46.91377" lon="8.66032">
        <ele>1513</ele>
        <time>2021-08-07T09:44:40.073Z</time>
      </trkpt>
      <trkpt lat="46.91378" lon="8.66032">
        <ele>1513</ele>
        <time>2021-08-07T09:44:41.074Z</time>
      </trkpt>
      <trkpt lat="46.9138" lon="8.66032">
        <ele>1513</ele>
        <time>2021-08-07T09:44:42.073Z</time>
      </trkpt>
      <trkpt lat="46.91381" lon="8.66032">
        <ele>1513</ele>
        <time>2021-08-07T09:44:43.074Z</time>
      </trkpt>
      <trkpt lat="46.91382" lon="8.66032">
        <ele>1513</ele>
        <time>2021-08-07T09:44:44.073Z</time>
      </trkpt>
      <trkpt lat="46.91383" lon="8.66032">
        <ele>1513</ele>
        <time>2021-08-07T09:44:45.074Z</time>
      </trkpt>
      <trkpt lat="46.91384" lon="8.66031">
        <ele>1513</ele>
        <time>2021-08-07T09:44:46.074Z</time>
      </trkpt>
      <trkpt lat="46.91385" lon="8.66031">
        <ele>1512</ele>
        <time>2021-08-07T09:44:47.074Z</time>
      </trkpt>
      <trkpt lat="46.91386" lon="8.66031">
        <ele>1512</ele>
        <time>2021-08-07T09:44:48.073Z</time>
      </trkpt>
      <trkpt lat="46.91387" lon="8.66032">
        <ele>1512</ele>
        <time>2021-08-07T09:44:49.074Z</time>
      </trkpt>
      <trkpt lat="46.91388" lon="8.66032">
        <ele>1511</ele>
        <time>2021-08-07T09:44:50.074Z</time>
      </trkpt>
      <trkpt lat="46.9139" lon="8.66031">
        <ele>1511</ele>
        <time>2021-08-07T09:44:51.073Z</time>
      </trkpt>
      <trkpt lat="46.91391" lon="8.66031">
        <ele>1510</ele>
        <time>2021-08-07T09:44:52.074Z</time>
      </trkpt>
      <trkpt lat="46.91392" lon="8.66031">
        <ele>1510</ele>
        <time>2021-08-07T09:44:53.074Z</time>
      </trkpt>
      <trkpt lat="46.91393" lon="8.66031">
        <ele>1510</ele>
        <time>2021-08-07T09:44:54.074Z</time>
      </trkpt>
      <trkpt lat="46.91394" lon="8.66031">
        <ele>1509</ele>
        <time>2021-08-07T09:44:55.074Z</time>
      </trkpt>
      <trkpt lat="46.91396" lon="8.66031">
        <ele>1509</ele>
        <time>2021-08-07T09:44:56.074Z</time>
      </trkpt>
      <trkpt lat="46.91397" lon="8.66031">
        <ele>1509</ele>
        <time>2021-08-07T09:44:57.074Z</time>
      </trkpt>
      <trkpt lat="46.91398" lon="8.6603">
        <ele>1509</ele>
        <time>2021-08-07T09:44:58.074Z</time>
      </trkpt>
      <trkpt lat="46.91399" lon="8.6603">
        <ele>1509</ele>
        <time>2021-08-07T09:44:59.074Z</time>
      </trkpt>
      <trkpt lat="46.914" lon="8.6603">
        <ele>1508</ele>
        <time>2021-08-07T09:45:00.074Z</time>
      </trkpt>
      <trkpt lat="46.914" lon="8.6603">
        <ele>1508</ele>
        <time>2021-08-07T09:45:01.074Z</time>
      </trkpt>
      <trkpt lat="46.91401" lon="8.6603">
        <ele>1508</ele>
        <time>2021-08-07T09:45:02.074Z</time>
      </trkpt>
      <trkpt lat="46.91402" lon="8.66031">
        <ele>1509</ele>
        <time>2021-08-07T09:45:03.074Z</time>
      </trkpt>
      <trkpt lat="46.91403" lon="8.66031">
        <ele>1509</ele>
        <time>2021-08-07T09:45:04.073Z</time>
      </trkpt>
      <trkpt lat="46.91404" lon="8.66031">
        <ele>1509</ele>
        <time>2021-08-07T09:45:05.073Z</time>
      </trkpt>
      <trkpt lat="46.91405" lon="8.6603">
        <ele>1509</ele>
        <time>2021-08-07T09:45:06.074Z</time>
      </trkpt>
      <trkpt lat="46.91406" lon="8.66029">
        <ele>1509</ele>
        <time>2021-08-07T09:45:07.073Z</time>
      </trkpt>
      <trkpt lat="46.91407" lon="8.66029">
        <ele>1509</ele>
        <time>2021-08-07T09:45:08.074Z</time>
      </trkpt>
      <trkpt lat="46.91409" lon="8.66029">
        <ele>1509</ele>
        <time>2021-08-07T09:45:09.074Z</time>
      </trkpt>
      <trkpt lat="46.9141" lon="8.66029">
        <ele>1508</ele>
        <time>2021-08-07T09:45:10.074Z</time>
      </trkpt>
      <trkpt lat="46.91411" lon="8.66029">
        <ele>1509</ele>
        <time>2021-08-07T09:45:11.074Z</time>
      </trkpt>
      <trkpt lat="46.91412" lon="8.66028">
        <ele>1509</ele>
        <time>2021-08-07T09:45:12.074Z</time>
      </trkpt>
      <trkpt lat="46.91413" lon="8.66028">
        <ele>1510</ele>
        <time>2021-08-07T09:45:13.074Z</time>
      </trkpt>
      <trkpt lat="46.91414" lon="8.66028">
        <ele>1510</ele>
        <time>2021-08-07T09:45:25.194Z</time>
      </trkpt>
      <trkpt lat="46.91415" lon="8.66028">
        <ele>1510</ele>
        <time>2021-08-07T09:45:26.194Z</time>
      </trkpt>
      <trkpt lat="46.91416" lon="8.66027">
        <ele>1510</ele>
        <time>2021-08-07T09:45:27.194Z</time>
      </trkpt>
      <trkpt lat="46.91417" lon="8.66027">
        <ele>1510</ele>
        <time>2021-08-07T09:45:28.194Z</time>
      </trkpt>
      <trkpt lat="46.91417" lon="8.66026">
        <ele>1509</ele>
        <time>2021-08-07T09:45:29.194Z</time>
      </trkpt>
      <trkpt lat="46.91418" lon="8.66026">
        <ele>1508</ele>
        <time>2021-08-07T09:45:30.194Z</time>
      </trkpt>
      <trkpt lat="46.91419" lon="8.66026">
        <ele>1508</ele>
        <time>2021-08-07T09:45:31.194Z</time>
      </trkpt>
      <trkpt lat="46.9142" lon="8.66026">
        <ele>1508</ele>
        <time>2021-08-07T09:45:32.193Z</time>
      </trkpt>
      <trkpt lat="46.9142" lon="8.66026">
        <ele>1508</ele>
        <time>2021-08-07T09:45:33.193Z</time>
      </trkpt>
      <trkpt lat="46.9142" lon="8.66025">
        <ele>1508</ele>
        <time>2021-08-07T09:45:34.194Z</time>
      </trkpt>
      <trkpt lat="46.91421" lon="8.66025">
        <ele>1508</ele>
        <time>2021-08-07T09:45:35.194Z</time>
      </trkpt>
      <trkpt lat="46.9142" lon="8.6603">
        <ele>1506</ele>
        <time>2021-08-07T09:45:36.195Z</time>
      </trkpt>
      <trkpt lat="46.9142" lon="8.6603">
        <ele>1507</ele>
        <time>2021-08-07T09:45:37.195Z</time>
      </trkpt>
      <trkpt lat="46.91419" lon="8.6603">
        <ele>1508</ele>
        <time>2021-08-07T09:45:38.194Z</time>
      </trkpt>
      <trkpt lat="46.91419" lon="8.6603">
        <ele>1508</ele>
        <time>2021-08-07T09:45:39.195Z</time>
      </trkpt>
      <trkpt lat="46.91419" lon="8.6603">
        <ele>1509</ele>
        <time>2021-08-07T09:45:40.194Z</time>
      </trkpt>
      <trkpt lat="46.9142" lon="8.66029">
        <ele>1509</ele>
        <time>2021-08-07T09:45:41.195Z</time>
      </trkpt>
      <trkpt lat="46.9142" lon="8.66029">
        <ele>1510</ele>
        <time>2021-08-07T09:45:42.195Z</time>
      </trkpt>
      <trkpt lat="46.91419" lon="8.6603">
        <ele>1510</ele>
        <time>2021-08-07T09:45:43.195Z</time>
      </trkpt>
      <trkpt lat="46.91419" lon="8.66031">
        <ele>1510</ele>
        <time>2021-08-07T09:45:44.195Z</time>
      </trkpt>
      <trkpt lat="46.91419" lon="8.66031">
        <ele>1510</ele>
        <time>2021-08-07T09:45:53.369Z</time>
      </trkpt>
      <trkpt lat="46.9142" lon="8.66032">
        <ele>1510</ele>
        <time>2021-08-07T09:45:54.369Z</time>
      </trkpt>
      <trkpt lat="46.91421" lon="8.66032">
        <ele>1510</ele>
        <time>2021-08-07T09:45:55.369Z</time>
      </trkpt>
      <trkpt lat="46.91422" lon="8.66031">
        <ele>1510</ele>
        <time>2021-08-07T09:45:56.369Z</time>
      </trkpt>
      <trkpt lat="46.91422" lon="8.66031">
        <ele>1510</ele>
        <time>2021-08-07T09:45:57.368Z</time>
      </trkpt>
      <trkpt lat="46.91423" lon="8.66032">
        <ele>1511</ele>
        <time>2021-08-07T09:45:58.368Z</time>
      </trkpt>
      <trkpt lat="46.91424" lon="8.66032">
        <ele>1511</ele>
        <time>2021-08-07T09:46:22.445Z</time>
      </trkpt>
      <trkpt lat="46.91425" lon="8.66032">
        <ele>1511</ele>
        <time>2021-08-07T09:46:23.445Z</time>
      </trkpt>
      <trkpt lat="46.91425" lon="8.66032">
        <ele>1511</ele>
        <time>2021-08-07T09:46:24.445Z</time>
      </trkpt>
      <trkpt lat="46.91426" lon="8.66032">
        <ele>1511</ele>
        <time>2021-08-07T09:46:25.444Z</time>
      </trkpt>
      <trkpt lat="46.91427" lon="8.66032">
        <ele>1511</ele>
        <time>2021-08-07T09:46:26.445Z</time>
      </trkpt>
      <trkpt lat="46.91429" lon="8.66032">
        <ele>1511</ele>
        <time>2021-08-07T09:46:27.445Z</time>
      </trkpt>
      <trkpt lat="46.91429" lon="8.66032">
        <ele>1511</ele>
        <time>2021-08-07T09:46:28.445Z</time>
      </trkpt>
      <trkpt lat="46.9143" lon="8.66032">
        <ele>1511</ele>
        <time>2021-08-07T09:46:29.444Z</time>
      </trkpt>
      <trkpt lat="46.91431" lon="8.66032">
        <ele>1511</ele>
        <time>2021-08-07T09:46:30.444Z</time>
      </trkpt>
      <trkpt lat="46.91432" lon="8.66033">
        <ele>1511</ele>
        <time>2021-08-07T09:46:31.445Z</time>
      </trkpt>
      <trkpt lat="46.91433" lon="8.66033">
        <ele>1510</ele>
        <time>2021-08-07T09:46:32.444Z</time>
      </trkpt>
      <trkpt lat="46.91433" lon="8.66033">
        <ele>1510</ele>
        <time>2021-08-07T09:46:33.445Z</time>
      </trkpt>
      <trkpt lat="46.91434" lon="8.66034">
        <ele>1510</ele>
        <time>2021-08-07T09:46:34.445Z</time>
      </trkpt>
      <trkpt lat="46.91436" lon="8.66034">
        <ele>1510</ele>
        <time>2021-08-07T09:46:35.445Z</time>
      </trkpt>
      <trkpt lat="46.91437" lon="8.66034">
        <ele>1510</ele>
        <time>2021-08-07T09:46:36.444Z</time>
      </trkpt>
      <trkpt lat="46.91438" lon="8.66034">
        <ele>1510</ele>
        <time>2021-08-07T09:46:37.445Z</time>
      </trkpt>
      <trkpt lat="46.91439" lon="8.66034">
        <ele>1509</ele>
        <time>2021-08-07T09:46:38.445Z</time>
      </trkpt>
      <trkpt lat="46.9144" lon="8.66034">
        <ele>1509</ele>
        <time>2021-08-07T09:46:39.445Z</time>
      </trkpt>
      <trkpt lat="46.91441" lon="8.66034">
        <ele>1509</ele>
        <time>2021-08-07T09:46:40.445Z</time>
      </trkpt>
      <trkpt lat="46.91442" lon="8.66034">
        <ele>1509</ele>
        <time>2021-08-07T09:46:55.574Z</time>
      </trkpt>
      <trkpt lat="46.91444" lon="8.66034">
        <ele>1510</ele>
        <time>2021-08-07T09:46:56.574Z</time>
      </trkpt>
      <trkpt lat="46.91445" lon="8.66035">
        <ele>1510</ele>
        <time>2021-08-07T09:46:57.574Z</time>
      </trkpt>
      <trkpt lat="46.91445" lon="8.66035">
        <ele>1510</ele>
        <time>2021-08-07T09:46:58.573Z</time>
      </trkpt>
      <trkpt lat="46.91446" lon="8.66035">
        <ele>1510</ele>
        <time>2021-08-07T09:46:59.573Z</time>
      </trkpt>
      <trkpt lat="46.91447" lon="8.66035">
        <ele>1510</ele>
        <time>2021-08-07T09:47:00.573Z</time>
      </trkpt>
      <trkpt lat="46.91448" lon="8.66035">
        <ele>1510</ele>
        <time>2021-08-07T09:47:01.573Z</time>
      </trkpt>
      <trkpt lat="46.91449" lon="8.66035">
        <ele>1509</ele>
        <time>2021-08-07T09:47:02.573Z</time>
      </trkpt>
      <trkpt lat="46.9145" lon="8.66035">
        <ele>1509</ele>
        <time>2021-08-07T09:47:03.574Z</time>
      </trkpt>
      <trkpt lat="46.91451" lon="8.66035">
        <ele>1509</ele>
        <time>2021-08-07T09:47:04.574Z</time>
      </trkpt>
      <trkpt lat="46.91451" lon="8.66035">
        <ele>1508</ele>
        <time>2021-08-07T09:47:05.574Z</time>
      </trkpt>
      <trkpt lat="46.91453" lon="8.66035">
        <ele>1508</ele>
        <time>2021-08-07T09:47:06.574Z</time>
      </trkpt>
      <trkpt lat="46.91454" lon="8.66034">
        <ele>1508</ele>
        <time>2021-08-07T09:47:07.574Z</time>
      </trkpt>
      <trkpt lat="46.91455" lon="8.66034">
        <ele>1508</ele>
        <time>2021-08-07T09:47:08.573Z</time>
      </trkpt>
      <trkpt lat="46.91456" lon="8.66034">
        <ele>1508</ele>
        <time>2021-08-07T09:47:09.574Z</time>
      </trkpt>
      <trkpt lat="46.91457" lon="8.66034">
        <ele>1507</ele>
        <time>2021-08-07T09:47:10.574Z</time>
      </trkpt>
      <trkpt lat="46.91458" lon="8.66034">
        <ele>1507</ele>
        <time>2021-08-07T09:47:11.574Z</time>
      </trkpt>
      <trkpt lat="46.91459" lon="8.66034">
        <ele>1507</ele>
        <time>2021-08-07T09:47:12.574Z</time>
      </trkpt>
      <trkpt lat="46.9146" lon="8.66034">
        <ele>1507</ele>
        <time>2021-08-07T09:47:13.574Z</time>
      </trkpt>
      <trkpt lat="46.91461" lon="8.66034">
        <ele>1507</ele>
        <time>2021-08-07T09:47:14.573Z</time>
      </trkpt>
      <trkpt lat="46.91463" lon="8.66033">
        <ele>1506</ele>
        <time>2021-08-07T09:47:15.574Z</time>
      </trkpt>
      <trkpt lat="46.91464" lon="8.66032">
        <ele>1506</ele>
        <time>2021-08-07T09:47:16.574Z</time>
      </trkpt>
      <trkpt lat="46.91465" lon="8.66032">
        <ele>1505</ele>
        <time>2021-08-07T09:47:17.573Z</time>
      </trkpt>
      <trkpt lat="46.91466" lon="8.66031">
        <ele>1505</ele>
        <time>2021-08-07T09:47:18.573Z</time>
      </trkpt>
      <trkpt lat="46.91467" lon="8.66031">
        <ele>1505</ele>
        <time>2021-08-07T09:47:19.574Z</time>
      </trkpt>
      <trkpt lat="46.91469" lon="8.6603">
        <ele>1506</ele>
        <time>2021-08-07T09:47:20.574Z</time>
      </trkpt>
      <trkpt lat="46.9147" lon="8.6603">
        <ele>1506</ele>
        <time>2021-08-07T09:47:21.574Z</time>
      </trkpt>
      <trkpt lat="46.91472" lon="8.66029">
        <ele>1506</ele>
        <time>2021-08-07T09:47:22.574Z</time>
      </trkpt>
      <trkpt lat="46.91473" lon="8.66029">
        <ele>1507</ele>
        <time>2021-08-07T09:47:23.574Z</time>
      </trkpt>
      <trkpt lat="46.91474" lon="8.66028">
        <ele>1507</ele>
        <time>2021-08-07T09:47:24.574Z</time>
      </trkpt>
      <trkpt lat="46.91475" lon="8.66028">
        <ele>1507</ele>
        <time>2021-08-07T09:47:25.574Z</time>
      </trkpt>
      <trkpt lat="46.91475" lon="8.66028">
        <ele>1507</ele>
        <time>2021-08-07T09:47:26.574Z</time>
      </trkpt>
      <trkpt lat="46.91477" lon="8.66027">
        <ele>1507</ele>
        <time>2021-08-07T09:47:27.574Z</time>
      </trkpt>
      <trkpt lat="46.91477" lon="8.66026">
        <ele>1508</ele>
        <time>2021-08-07T09:47:28.574Z</time>
      </trkpt>
      <trkpt lat="46.91478" lon="8.66025">
        <ele>1508</ele>
        <time>2021-08-07T09:47:29.574Z</time>
      </trkpt>
      <trkpt lat="46.91479" lon="8.66024">
        <ele>1508</ele>
        <time>2021-08-07T09:47:30.573Z</time>
      </trkpt>
      <trkpt lat="46.9148" lon="8.66024">
        <ele>1507</ele>
        <time>2021-08-07T09:47:31.574Z</time>
      </trkpt>
      <trkpt lat="46.9148" lon="8.66023">
        <ele>1507</ele>
        <time>2021-08-07T09:47:32.573Z</time>
      </trkpt>
      <trkpt lat="46.91482" lon="8.66022">
        <ele>1507</ele>
        <time>2021-08-07T09:47:33.574Z</time>
      </trkpt>
      <trkpt lat="46.91483" lon="8.66021">
        <ele>1507</ele>
        <time>2021-08-07T09:47:34.574Z</time>
      </trkpt>
      <trkpt lat="46.91484" lon="8.66021">
        <ele>1507</ele>
        <time>2021-08-07T09:47:35.573Z</time>
      </trkpt>
      <trkpt lat="46.91485" lon="8.6602">
        <ele>1507</ele>
        <time>2021-08-07T09:47:36.573Z</time>
      </trkpt>
      <trkpt lat="46.91486" lon="8.6602">
        <ele>1508</ele>
        <time>2021-08-07T09:47:37.574Z</time>
      </trkpt>
      <trkpt lat="46.91488" lon="8.6602">
        <ele>1508</ele>
        <time>2021-08-07T09:47:38.574Z</time>
      </trkpt>
      <trkpt lat="46.91488" lon="8.66019">
        <ele>1508</ele>
        <time>2021-08-07T09:47:39.574Z</time>
      </trkpt>
      <trkpt lat="46.91489" lon="8.66019">
        <ele>1507</ele>
        <time>2021-08-07T09:47:40.574Z</time>
      </trkpt>
      <trkpt lat="46.9149" lon="8.66018">
        <ele>1507</ele>
        <time>2021-08-07T09:47:41.574Z</time>
      </trkpt>
      <trkpt lat="46.91491" lon="8.66018">
        <ele>1507</ele>
        <time>2021-08-07T09:47:42.573Z</time>
      </trkpt>
      <trkpt lat="46.91492" lon="8.66018">
        <ele>1506</ele>
        <time>2021-08-07T09:47:43.573Z</time>
      </trkpt>
      <trkpt lat="46.91493" lon="8.66017">
        <ele>1505</ele>
        <time>2021-08-07T09:47:44.574Z</time>
      </trkpt>
      <trkpt lat="46.91494" lon="8.66016">
        <ele>1505</ele>
        <time>2021-08-07T09:47:45.573Z</time>
      </trkpt>
      <trkpt lat="46.91495" lon="8.66016">
        <ele>1505</ele>
        <time>2021-08-07T09:47:46.573Z</time>
      </trkpt>
      <trkpt lat="46.91496" lon="8.66016">
        <ele>1505</ele>
        <time>2021-08-07T09:47:47.573Z</time>
      </trkpt>
      <trkpt lat="46.91497" lon="8.66016">
        <ele>1505</ele>
        <time>2021-08-07T09:47:48.573Z</time>
      </trkpt>
      <trkpt lat="46.91498" lon="8.66016">
        <ele>1505</ele>
        <time>2021-08-07T09:47:49.574Z</time>
      </trkpt>
      <trkpt lat="46.91499" lon="8.66016">
        <ele>1505</ele>
        <time>2021-08-07T09:47:50.574Z</time>
      </trkpt>
      <trkpt lat="46.915" lon="8.66016">
        <ele>1505</ele>
        <time>2021-08-07T09:47:51.574Z</time>
      </trkpt>
      <trkpt lat="46.91501" lon="8.66016">
        <ele>1505</ele>
        <time>2021-08-07T09:47:52.573Z</time>
      </trkpt>
      <trkpt lat="46.91502" lon="8.66016">
        <ele>1505</ele>
        <time>2021-08-07T09:47:53.574Z</time>
      </trkpt>
      <trkpt lat="46.91502" lon="8.66016">
        <ele>1506</ele>
        <time>2021-08-07T09:47:54.574Z</time>
      </trkpt>
      <trkpt lat="46.91503" lon="8.66016">
        <ele>1506</ele>
        <time>2021-08-07T09:47:55.574Z</time>
      </trkpt>
      <trkpt lat="46.91503" lon="8.66016">
        <ele>1506</ele>
        <time>2021-08-07T09:47:56.573Z</time>
      </trkpt>
      <trkpt lat="46.91503" lon="8.66017">
        <ele>1506</ele>
        <time>2021-08-07T09:47:57.574Z</time>
      </trkpt>
      <trkpt lat="46.91505" lon="8.66017">
        <ele>1506</ele>
        <time>2021-08-07T09:47:58.574Z</time>
      </trkpt>
      <trkpt lat="46.91506" lon="8.66016">
        <ele>1506</ele>
        <time>2021-08-07T09:47:59.573Z</time>
      </trkpt>
      <trkpt lat="46.91506" lon="8.66016">
        <ele>1506</ele>
        <time>2021-08-07T09:48:00.573Z</time>
      </trkpt>
      <trkpt lat="46.91507" lon="8.66015">
        <ele>1505</ele>
        <time>2021-08-07T09:48:01.573Z</time>
      </trkpt>
      <trkpt lat="46.91507" lon="8.66014">
        <ele>1504</ele>
        <time>2021-08-07T09:48:02.574Z</time>
      </trkpt>
      <trkpt lat="46.91508" lon="8.66013">
        <ele>1504</ele>
        <time>2021-08-07T09:48:03.573Z</time>
      </trkpt>
      <trkpt lat="46.91508" lon="8.66012">
        <ele>1504</ele>
        <time>2021-08-07T09:48:04.574Z</time>
      </trkpt>
      <trkpt lat="46.91508" lon="8.66012">
        <ele>1503</ele>
        <time>2021-08-07T09:48:05.574Z</time>
      </trkpt>
      <trkpt lat="46.91508" lon="8.66011">
        <ele>1503</ele>
        <time>2021-08-07T09:48:06.573Z</time>
      </trkpt>
      <trkpt lat="46.91509" lon="8.66011">
        <ele>1502</ele>
        <time>2021-08-07T09:48:07.574Z</time>
      </trkpt>
      <trkpt lat="46.91509" lon="8.6601">
        <ele>1502</ele>
        <time>2021-08-07T09:48:08.574Z</time>
      </trkpt>
      <trkpt lat="46.9151" lon="8.6601">
        <ele>1502</ele>
        <time>2021-08-07T09:48:09.574Z</time>
      </trkpt>
      <trkpt lat="46.9151" lon="8.66008">
        <ele>1502</ele>
        <time>2021-08-07T09:48:10.573Z</time>
      </trkpt>
      <trkpt lat="46.91511" lon="8.66007">
        <ele>1502</ele>
        <time>2021-08-07T09:48:11.574Z</time>
      </trkpt>
      <trkpt lat="46.91511" lon="8.66006">
        <ele>1502</ele>
        <time>2021-08-07T09:48:12.574Z</time>
      </trkpt>
      <trkpt lat="46.91511" lon="8.66005">
        <ele>1502</ele>
        <time>2021-08-07T09:48:13.574Z</time>
      </trkpt>
      <trkpt lat="46.91512" lon="8.66004">
        <ele>1502</ele>
        <time>2021-08-07T09:48:14.574Z</time>
      </trkpt>
      <trkpt lat="46.91513" lon="8.66003">
        <ele>1501</ele>
        <time>2021-08-07T09:48:15.574Z</time>
      </trkpt>
      <trkpt lat="46.91513" lon="8.66001">
        <ele>1500</ele>
        <time>2021-08-07T09:48:16.574Z</time>
      </trkpt>
      <trkpt lat="46.91512" lon="8.65999">
        <ele>1500</ele>
        <time>2021-08-07T09:48:17.574Z</time>
      </trkpt>
      <trkpt lat="46.91512" lon="8.65997">
        <ele>1500</ele>
        <time>2021-08-07T09:48:18.574Z</time>
      </trkpt>
      <trkpt lat="46.91513" lon="8.65996">
        <ele>1500</ele>
        <time>2021-08-07T09:48:19.574Z</time>
      </trkpt>
      <trkpt lat="46.91513" lon="8.65994">
        <ele>1500</ele>
        <time>2021-08-07T09:48:20.574Z</time>
      </trkpt>
      <trkpt lat="46.91513" lon="8.65993">
        <ele>1500</ele>
        <time>2021-08-07T09:48:21.574Z</time>
      </trkpt>
      <trkpt lat="46.91513" lon="8.65991">
        <ele>1500</ele>
        <time>2021-08-07T09:48:22.573Z</time>
      </trkpt>
      <trkpt lat="46.91513" lon="8.6599">
        <ele>1500</ele>
        <time>2021-08-07T09:48:23.573Z</time>
      </trkpt>
      <trkpt lat="46.91514" lon="8.65989">
        <ele>1500</ele>
        <time>2021-08-07T09:48:24.573Z</time>
      </trkpt>
      <trkpt lat="46.91513" lon="8.65987">
        <ele>1500</ele>
        <time>2021-08-07T09:48:25.574Z</time>
      </trkpt>
      <trkpt lat="46.91513" lon="8.65986">
        <ele>1500</ele>
        <time>2021-08-07T09:48:26.573Z</time>
      </trkpt>
      <trkpt lat="46.91513" lon="8.65986">
        <ele>1500</ele>
        <time>2021-08-07T09:48:27.574Z</time>
      </trkpt>
      <trkpt lat="46.91513" lon="8.65986">
        <ele>1501</ele>
        <time>2021-08-07T09:48:28.573Z</time>
      </trkpt>
      <trkpt lat="46.91512" lon="8.65986">
        <ele>1503</ele>
        <time>2021-08-07T09:48:29.575Z</time>
      </trkpt>
      <trkpt lat="46.91511" lon="8.65987">
        <ele>1503</ele>
        <time>2021-08-07T09:48:30.574Z</time>
      </trkpt>
      <trkpt lat="46.91511" lon="8.65988">
        <ele>1503</ele>
        <time>2021-08-07T09:48:31.574Z</time>
      </trkpt>
      <trkpt lat="46.9151" lon="8.6599">
        <ele>1504</ele>
        <time>2021-08-07T09:48:32.574Z</time>
      </trkpt>
      <trkpt lat="46.9151" lon="8.65991">
        <ele>1504</ele>
        <time>2021-08-07T09:48:33.575Z</time>
      </trkpt>
      <trkpt lat="46.91509" lon="8.65992">
        <ele>1504</ele>
        <time>2021-08-07T09:48:34.575Z</time>
      </trkpt>
      <trkpt lat="46.91508" lon="8.65994">
        <ele>1504</ele>
        <time>2021-08-07T09:48:35.575Z</time>
      </trkpt>
      <trkpt lat="46.91508" lon="8.65995">
        <ele>1504</ele>
        <time>2021-08-07T09:48:36.574Z</time>
      </trkpt>
      <trkpt lat="46.91508" lon="8.65996">
        <ele>1505</ele>
        <time>2021-08-07T09:48:37.575Z</time>
      </trkpt>
      <trkpt lat="46.91507" lon="8.65997">
        <ele>1505</ele>
        <time>2021-08-07T09:48:38.575Z</time>
      </trkpt>
      <trkpt lat="46.91507" lon="8.65999">
        <ele>1505</ele>
        <time>2021-08-07T09:48:39.574Z</time>
      </trkpt>
      <trkpt lat="46.91506" lon="8.66">
        <ele>1505</ele>
        <time>2021-08-07T09:48:40.574Z</time>
      </trkpt>
      <trkpt lat="46.91506" lon="8.66001">
        <ele>1505</ele>
        <time>2021-08-07T09:48:41.575Z</time>
      </trkpt>
      <trkpt lat="46.91506" lon="8.66002">
        <ele>1505</ele>
        <time>2021-08-07T09:48:42.575Z</time>
      </trkpt>
      <trkpt lat="46.91506" lon="8.66003">
        <ele>1505</ele>
        <time>2021-08-07T09:48:43.575Z</time>
      </trkpt>
      <trkpt lat="46.91506" lon="8.66005">
        <ele>1505</ele>
        <time>2021-08-07T09:48:44.575Z</time>
      </trkpt>
      <trkpt lat="46.91506" lon="8.66006">
        <ele>1506</ele>
        <time>2021-08-07T09:48:45.575Z</time>
      </trkpt>
      <trkpt lat="46.91506" lon="8.66007">
        <ele>1506</ele>
        <time>2021-08-07T09:48:46.575Z</time>
      </trkpt>
      <trkpt lat="46.91506" lon="8.66008">
        <ele>1506</ele>
        <time>2021-08-07T09:48:47.575Z</time>
      </trkpt>
      <trkpt lat="46.91506" lon="8.66009">
        <ele>1506</ele>
        <time>2021-08-07T09:48:48.575Z</time>
      </trkpt>
      <trkpt lat="46.91506" lon="8.6601">
        <ele>1506</ele>
        <time>2021-08-07T09:48:49.575Z</time>
      </trkpt>
      <trkpt lat="46.91505" lon="8.66012">
        <ele>1507</ele>
        <time>2021-08-07T09:48:50.575Z</time>
      </trkpt>
      <trkpt lat="46.91505" lon="8.66013">
        <ele>1507</ele>
        <time>2021-08-07T09:48:51.574Z</time>
      </trkpt>
      <trkpt lat="46.91504" lon="8.66013">
        <ele>1507</ele>
        <time>2021-08-07T09:48:52.575Z</time>
      </trkpt>
      <trkpt lat="46.91504" lon="8.66013">
        <ele>1507</ele>
        <time>2021-08-07T09:48:53.575Z</time>
      </trkpt>
      <trkpt lat="46.91503" lon="8.66013">
        <ele>1508</ele>
        <time>2021-08-07T09:48:54.574Z</time>
      </trkpt>
      <trkpt lat="46.91502" lon="8.66013">
        <ele>1509</ele>
        <time>2021-08-07T09:48:55.575Z</time>
      </trkpt>
      <trkpt lat="46.91502" lon="8.66013">
        <ele>1509</ele>
        <time>2021-08-07T09:48:56.574Z</time>
      </trkpt>
      <trkpt lat="46.91502" lon="8.66013">
        <ele>1509</ele>
        <time>2021-08-07T09:48:57.575Z</time>
      </trkpt>
      <trkpt lat="46.91502" lon="8.66012">
        <ele>1509</ele>
        <time>2021-08-07T09:48:58.575Z</time>
      </trkpt>
      <trkpt lat="46.91501" lon="8.66012">
        <ele>1508</ele>
        <time>2021-08-07T09:48:59.575Z</time>
      </trkpt>
      <trkpt lat="46.915" lon="8.66012">
        <ele>1507</ele>
        <time>2021-08-07T09:49:00.575Z</time>
      </trkpt>
      <trkpt lat="46.91499" lon="8.66011">
        <ele>1507</ele>
        <time>2021-08-07T09:49:01.575Z</time>
      </trkpt>
      <trkpt lat="46.91498" lon="8.66011">
        <ele>1506</ele>
        <time>2021-08-07T09:49:02.574Z</time>
      </trkpt>
      <trkpt lat="46.91497" lon="8.6601">
        <ele>1506</ele>
        <time>2021-08-07T09:49:03.575Z</time>
      </trkpt>
      <trkpt lat="46.91496" lon="8.6601">
        <ele>1506</ele>
        <time>2021-08-07T09:49:04.574Z</time>
      </trkpt>
      <trkpt lat="46.91496" lon="8.6601">
        <ele>1506</ele>
        <time>2021-08-07T09:49:05.575Z</time>
      </trkpt>
      <trkpt lat="46.91496" lon="8.6601">
        <ele>1506</ele>
        <time>2021-08-07T09:49:06.575Z</time>
      </trkpt>
      <trkpt lat="46.91496" lon="8.6601">
        <ele>1507</ele>
        <time>2021-08-07T09:49:07.575Z</time>
      </trkpt>
      <trkpt lat="46.91498" lon="8.66009">
        <ele>1505</ele>
        <time>2021-08-07T09:49:08.576Z</time>
      </trkpt>
      <trkpt lat="46.91498" lon="8.66009">
        <ele>1504</ele>
        <time>2021-08-07T09:49:09.575Z</time>
      </trkpt>
      <trkpt lat="46.91498" lon="8.66008">
        <ele>1504</ele>
        <time>2021-08-07T09:49:10.575Z</time>
      </trkpt>
      <trkpt lat="46.91499" lon="8.66007">
        <ele>1503</ele>
        <time>2021-08-07T09:49:11.576Z</time>
      </trkpt>
      <trkpt lat="46.91499" lon="8.66005">
        <ele>1503</ele>
        <time>2021-08-07T09:49:12.576Z</time>
      </trkpt>
      <trkpt lat="46.91499" lon="8.66003">
        <ele>1502</ele>
        <time>2021-08-07T09:49:13.576Z</time>
      </trkpt>
      <trkpt lat="46.91499" lon="8.66001">
        <ele>1501</ele>
        <time>2021-08-07T09:49:14.576Z</time>
      </trkpt>
      <trkpt lat="46.91499" lon="8.65999">
        <ele>1500</ele>
        <time>2021-08-07T09:49:15.576Z</time>
      </trkpt>
      <trkpt lat="46.91499" lon="8.65997">
        <ele>1500</ele>
        <time>2021-08-07T09:49:16.576Z</time>
      </trkpt>
      <trkpt lat="46.91499" lon="8.65995">
        <ele>1499</ele>
        <time>2021-08-07T09:49:17.576Z</time>
      </trkpt>
      <trkpt lat="46.91499" lon="8.65993">
        <ele>1499</ele>
        <time>2021-08-07T09:49:18.575Z</time>
      </trkpt>
      <trkpt lat="46.91499" lon="8.65991">
        <ele>1499</ele>
        <time>2021-08-07T09:49:19.575Z</time>
      </trkpt>
      <trkpt lat="46.915" lon="8.65989">
        <ele>1499</ele>
        <time>2021-08-07T09:49:20.576Z</time>
      </trkpt>
      <trkpt lat="46.915" lon="8.65988">
        <ele>1499</ele>
        <time>2021-08-07T09:49:21.576Z</time>
      </trkpt>
      <trkpt lat="46.915" lon="8.65985">
        <ele>1499</ele>
        <time>2021-08-07T09:49:22.576Z</time>
      </trkpt>
      <trkpt lat="46.915" lon="8.65982">
        <ele>1498</ele>
        <time>2021-08-07T09:49:23.576Z</time>
      </trkpt>
      <trkpt lat="46.915" lon="8.6598">
        <ele>1498</ele>
        <time>2021-08-07T09:49:24.576Z</time>
      </trkpt>
      <trkpt lat="46.915" lon="8.65979">
        <ele>1498</ele>
        <time>2021-08-07T09:49:25.576Z</time>
      </trkpt>
      <trkpt lat="46.915" lon="8.65977">
        <ele>1499</ele>
        <time>2021-08-07T09:49:26.576Z</time>
      </trkpt>
      <trkpt lat="46.915" lon="8.65975">
        <ele>1499</ele>
        <time>2021-08-07T09:49:27.576Z</time>
      </trkpt>
      <trkpt lat="46.91501" lon="8.65973">
        <ele>1499</ele>
        <time>2021-08-07T09:49:28.576Z</time>
      </trkpt>
      <trkpt lat="46.91501" lon="8.65971">
        <ele>1499</ele>
        <time>2021-08-07T09:49:29.576Z</time>
      </trkpt>
      <trkpt lat="46.91501" lon="8.6597">
        <ele>1498</ele>
        <time>2021-08-07T09:49:30.575Z</time>
      </trkpt>
      <trkpt lat="46.91501" lon="8.65968">
        <ele>1498</ele>
        <time>2021-08-07T09:49:31.576Z</time>
      </trkpt>
      <trkpt lat="46.91501" lon="8.65965">
        <ele>1498</ele>
        <time>2021-08-07T09:49:32.576Z</time>
      </trkpt>
      <trkpt lat="46.91501" lon="8.65963">
        <ele>1498</ele>
        <time>2021-08-07T09:49:33.576Z</time>
      </trkpt>
      <trkpt lat="46.91501" lon="8.65961">
        <ele>1498</ele>
        <time>2021-08-07T09:49:34.575Z</time>
      </trkpt>
      <trkpt lat="46.91501" lon="8.6596">
        <ele>1498</ele>
        <time>2021-08-07T09:49:35.576Z</time>
      </trkpt>
      <trkpt lat="46.91501" lon="8.65959">
        <ele>1498</ele>
        <time>2021-08-07T09:49:36.576Z</time>
      </trkpt>
      <trkpt lat="46.91501" lon="8.65958">
        <ele>1498</ele>
        <time>2021-08-07T09:49:37.576Z</time>
      </trkpt>
      <trkpt lat="46.91501" lon="8.65957">
        <ele>1498</ele>
        <time>2021-08-07T09:49:40.706Z</time>
      </trkpt>
      <trkpt lat="46.91502" lon="8.65955">
        <ele>1498</ele>
        <time>2021-08-07T09:49:41.705Z</time>
      </trkpt>
      <trkpt lat="46.91502" lon="8.65955">
        <ele>1497</ele>
        <time>2021-08-07T09:49:50.845Z</time>
      </trkpt>
      <trkpt lat="46.91502" lon="8.65954">
        <ele>1497</ele>
        <time>2021-08-07T09:49:51.846Z</time>
      </trkpt>
      <trkpt lat="46.91502" lon="8.65953">
        <ele>1496</ele>
        <time>2021-08-07T09:49:52.845Z</time>
      </trkpt>
      <trkpt lat="46.91502" lon="8.65952">
        <ele>1496</ele>
        <time>2021-08-07T09:49:58.971Z</time>
      </trkpt>
      <trkpt lat="46.91502" lon="8.65951">
        <ele>1496</ele>
        <time>2021-08-07T09:49:59.971Z</time>
      </trkpt>
      <trkpt lat="46.91502" lon="8.65949">
        <ele>1496</ele>
        <time>2021-08-07T09:50:00.971Z</time>
      </trkpt>
      <trkpt lat="46.91502" lon="8.65947">
        <ele>1495</ele>
        <time>2021-08-07T09:50:01.970Z</time>
      </trkpt>
      <trkpt lat="46.91503" lon="8.65945">
        <ele>1495</ele>
        <time>2021-08-07T09:50:02.971Z</time>
      </trkpt>
      <trkpt lat="46.91503" lon="8.65943">
        <ele>1496</ele>
        <time>2021-08-07T09:50:03.971Z</time>
      </trkpt>
      <trkpt lat="46.91504" lon="8.65942">
        <ele>1496</ele>
        <time>2021-08-07T09:50:04.970Z</time>
      </trkpt>
      <trkpt lat="46.91504" lon="8.65943">
        <ele>1496</ele>
        <time>2021-08-07T09:50:05.970Z</time>
      </trkpt>
      <trkpt lat="46.91504" lon="8.65943">
        <ele>1495</ele>
        <time>2021-08-07T09:50:06.971Z</time>
      </trkpt>
      <trkpt lat="46.91503" lon="8.65944">
        <ele>1490</ele>
        <time>2021-08-07T09:50:07.972Z</time>
      </trkpt>
      <trkpt lat="46.91503" lon="8.65944">
        <ele>1490</ele>
        <time>2021-08-07T09:50:08.972Z</time>
      </trkpt>
      <trkpt lat="46.91503" lon="8.65943">
        <ele>1489</ele>
        <time>2021-08-07T09:50:09.971Z</time>
      </trkpt>
      <trkpt lat="46.91503" lon="8.65943">
        <ele>1489</ele>
        <time>2021-08-07T09:50:10.971Z</time>
      </trkpt>
      <trkpt lat="46.91503" lon="8.65942">
        <ele>1488</ele>
        <time>2021-08-07T09:50:11.972Z</time>
      </trkpt>
      <trkpt lat="46.91503" lon="8.65941">
        <ele>1488</ele>
        <time>2021-08-07T09:50:12.971Z</time>
      </trkpt>
      <trkpt lat="46.91504" lon="8.6594">
        <ele>1487</ele>
        <time>2021-08-07T09:50:13.971Z</time>
      </trkpt>
      <trkpt lat="46.91504" lon="8.65938">
        <ele>1487</ele>
        <time>2021-08-07T09:50:14.971Z</time>
      </trkpt>
      <trkpt lat="46.91504" lon="8.65936">
        <ele>1487</ele>
        <time>2021-08-07T09:50:15.972Z</time>
      </trkpt>
      <trkpt lat="46.91505" lon="8.65934">
        <ele>1487</ele>
        <time>2021-08-07T09:50:16.972Z</time>
      </trkpt>
      <trkpt lat="46.91506" lon="8.65932">
        <ele>1487</ele>
        <time>2021-08-07T09:50:27.057Z</time>
      </trkpt>
      <trkpt lat="46.91507" lon="8.6593">
        <ele>1486</ele>
        <time>2021-08-07T09:50:28.057Z</time>
      </trkpt>
      <trkpt lat="46.91507" lon="8.65928">
        <ele>1486</ele>
        <time>2021-08-07T09:50:29.057Z</time>
      </trkpt>
      <trkpt lat="46.91508" lon="8.65926">
        <ele>1486</ele>
        <time>2021-08-07T09:50:30.057Z</time>
      </trkpt>
      <trkpt lat="46.91507" lon="8.65923">
        <ele>1486</ele>
        <time>2021-08-07T09:50:31.057Z</time>
      </trkpt>
      <trkpt lat="46.91507" lon="8.65921">
        <ele>1485</ele>
        <time>2021-08-07T09:50:32.057Z</time>
      </trkpt>
      <trkpt lat="46.91507" lon="8.65918">
        <ele>1485</ele>
        <time>2021-08-07T09:50:33.057Z</time>
      </trkpt>
      <trkpt lat="46.91507" lon="8.65917">
        <ele>1485</ele>
        <time>2021-08-07T09:50:38.182Z</time>
      </trkpt>
      <trkpt lat="46.91508" lon="8.65915">
        <ele>1485</ele>
        <time>2021-08-07T09:50:46.119Z</time>
      </trkpt>
      <trkpt lat="46.91507" lon="8.65914">
        <ele>1484</ele>
        <time>2021-08-07T09:50:47.119Z</time>
      </trkpt>
      <trkpt lat="46.91507" lon="8.65913">
        <ele>1484</ele>
        <time>2021-08-07T09:50:48.119Z</time>
      </trkpt>
      <trkpt lat="46.91507" lon="8.65911">
        <ele>1484</ele>
        <time>2021-08-07T09:50:49.120Z</time>
      </trkpt>
      <trkpt lat="46.91507" lon="8.6591">
        <ele>1484</ele>
        <time>2021-08-07T09:50:50.119Z</time>
      </trkpt>
      <trkpt lat="46.91507" lon="8.6591">
        <ele>1484</ele>
        <time>2021-08-07T09:50:51.119Z</time>
      </trkpt>
      <trkpt lat="46.91508" lon="8.65909">
        <ele>1485</ele>
        <time>2021-08-07T09:50:59.219Z</time>
      </trkpt>
      <trkpt lat="46.91507" lon="8.65908">
        <ele>1485</ele>
        <time>2021-08-07T09:51:00.220Z</time>
      </trkpt>
      <trkpt lat="46.91507" lon="8.65907">
        <ele>1485</ele>
        <time>2021-08-07T09:51:01.219Z</time>
      </trkpt>
      <trkpt lat="46.91507" lon="8.65906">
        <ele>1486</ele>
        <time>2021-08-07T09:51:07.343Z</time>
      </trkpt>
      <trkpt lat="46.91507" lon="8.65905">
        <ele>1486</ele>
        <time>2021-08-07T09:51:23.180Z</time>
      </trkpt>
      <trkpt lat="46.91507" lon="8.65905">
        <ele>1487</ele>
        <time>2021-08-07T09:51:30.072Z</time>
      </trkpt>
      <trkpt lat="46.91508" lon="8.65905">
        <ele>1487</ele>
        <time>2021-08-07T09:51:31.073Z</time>
      </trkpt>
      <trkpt lat="46.91508" lon="8.65904">
        <ele>1487</ele>
        <time>2021-08-07T09:51:32.073Z</time>
      </trkpt>
      <trkpt lat="46.91508" lon="8.65903">
        <ele>1487</ele>
        <time>2021-08-07T09:51:33.073Z</time>
      </trkpt>
      <trkpt lat="46.91508" lon="8.65903">
        <ele>1487</ele>
        <time>2021-08-07T09:51:34.073Z</time>
      </trkpt>
      <trkpt lat="46.91507" lon="8.65902">
        <ele>1487</ele>
        <time>2021-08-07T09:51:35.072Z</time>
      </trkpt>
      <trkpt lat="46.91507" lon="8.65901">
        <ele>1488</ele>
        <time>2021-08-07T09:51:36.073Z</time>
      </trkpt>
      <trkpt lat="46.91506" lon="8.659">
        <ele>1488</ele>
        <time>2021-08-07T09:51:37.073Z</time>
      </trkpt>
      <trkpt lat="46.91505" lon="8.659">
        <ele>1488</ele>
        <time>2021-08-07T09:51:38.073Z</time>
      </trkpt>
      <trkpt lat="46.91505" lon="8.65898">
        <ele>1488</ele>
        <time>2021-08-07T09:51:39.073Z</time>
      </trkpt>
      <trkpt lat="46.91505" lon="8.65897">
        <ele>1487</ele>
        <time>2021-08-07T09:51:40.073Z</time>
      </trkpt>
      <trkpt lat="46.91504" lon="8.65896">
        <ele>1487</ele>
        <time>2021-08-07T09:51:41.073Z</time>
      </trkpt>
      <trkpt lat="46.91504" lon="8.65895">
        <ele>1487</ele>
        <time>2021-08-07T09:51:42.073Z</time>
      </trkpt>
      <trkpt lat="46.91505" lon="8.65893">
        <ele>1486</ele>
        <time>2021-08-07T09:51:43.073Z</time>
      </trkpt>
      <trkpt lat="46.91506" lon="8.65891">
        <ele>1485</ele>
        <time>2021-08-07T09:51:44.072Z</time>
      </trkpt>
      <trkpt lat="46.91506" lon="8.6589">
        <ele>1485</ele>
        <time>2021-08-07T09:51:45.073Z</time>
      </trkpt>
      <trkpt lat="46.91507" lon="8.65889">
        <ele>1485</ele>
        <time>2021-08-07T09:51:46.073Z</time>
      </trkpt>
      <trkpt lat="46.91507" lon="8.65888">
        <ele>1484</ele>
        <time>2021-08-07T09:51:47.073Z</time>
      </trkpt>
      <trkpt lat="46.91507" lon="8.65887">
        <ele>1484</ele>
        <time>2021-08-07T09:51:48.072Z</time>
      </trkpt>
      <trkpt lat="46.91508" lon="8.65887">
        <ele>1485</ele>
        <time>2021-08-07T09:51:49.073Z</time>
      </trkpt>
      <trkpt lat="46.91508" lon="8.65886">
        <ele>1485</ele>
        <time>2021-08-07T09:51:50.073Z</time>
      </trkpt>
      <trkpt lat="46.91508" lon="8.65885">
        <ele>1485</ele>
        <time>2021-08-07T09:51:51.072Z</time>
      </trkpt>
      <trkpt lat="46.91508" lon="8.65885">
        <ele>1486</ele>
        <time>2021-08-07T09:51:52.072Z</time>
      </trkpt>
      <trkpt lat="46.91508" lon="8.65884">
        <ele>1486</ele>
        <time>2021-08-07T09:51:53.072Z</time>
      </trkpt>
      <trkpt lat="46.91508" lon="8.65883">
        <ele>1487</ele>
        <time>2021-08-07T09:51:54.073Z</time>
      </trkpt>
      <trkpt lat="46.91508" lon="8.65882">
        <ele>1488</ele>
        <time>2021-08-07T09:51:55.073Z</time>
      </trkpt>
      <trkpt lat="46.91508" lon="8.6588">
        <ele>1488</ele>
        <time>2021-08-07T09:51:56.073Z</time>
      </trkpt>
      <trkpt lat="46.91508" lon="8.65879">
        <ele>1488</ele>
        <time>2021-08-07T09:51:57.072Z</time>
      </trkpt>
      <trkpt lat="46.91509" lon="8.65877">
        <ele>1489</ele>
        <time>2021-08-07T09:51:58.073Z</time>
      </trkpt>
      <trkpt lat="46.91509" lon="8.65875">
        <ele>1489</ele>
        <time>2021-08-07T09:51:59.072Z</time>
      </trkpt>
      <trkpt lat="46.91509" lon="8.65874">
        <ele>1489</ele>
        <time>2021-08-07T09:52:00.073Z</time>
      </trkpt>
      <trkpt lat="46.91509" lon="8.65873">
        <ele>1489</ele>
        <time>2021-08-07T09:52:01.073Z</time>
      </trkpt>
      <trkpt lat="46.91509" lon="8.65872">
        <ele>1489</ele>
        <time>2021-08-07T09:52:02.072Z</time>
      </trkpt>
      <trkpt lat="46.91509" lon="8.65871">
        <ele>1488</ele>
        <time>2021-08-07T09:52:03.072Z</time>
      </trkpt>
      <trkpt lat="46.91509" lon="8.65871">
        <ele>1488</ele>
        <time>2021-08-07T09:52:04.073Z</time>
      </trkpt>
      <trkpt lat="46.91509" lon="8.65873">
        <ele>1485</ele>
        <time>2021-08-07T09:52:05.073Z</time>
      </trkpt>
      <trkpt lat="46.9151" lon="8.65873">
        <ele>1485</ele>
        <time>2021-08-07T09:52:06.074Z</time>
      </trkpt>
      <trkpt lat="46.9151" lon="8.65873">
        <ele>1486</ele>
        <time>2021-08-07T09:52:07.073Z</time>
      </trkpt>
      <trkpt lat="46.91508" lon="8.65871">
        <ele>1487</ele>
        <time>2021-08-07T09:52:08.074Z</time>
      </trkpt>
      <trkpt lat="46.91509" lon="8.65869">
        <ele>1487</ele>
        <time>2021-08-07T09:52:09.076Z</time>
      </trkpt>
      <trkpt lat="46.9151" lon="8.65868">
        <ele>1488</ele>
        <time>2021-08-07T09:52:12.169Z</time>
      </trkpt>
      <trkpt lat="46.9151" lon="8.65867">
        <ele>1488</ele>
        <time>2021-08-07T09:52:13.169Z</time>
      </trkpt>
      <trkpt lat="46.9151" lon="8.65867">
        <ele>1488</ele>
        <time>2021-08-07T09:52:14.168Z</time>
      </trkpt>
      <trkpt lat="46.9151" lon="8.65866">
        <ele>1488</ele>
        <time>2021-08-07T09:52:15.169Z</time>
      </trkpt>
      <trkpt lat="46.91511" lon="8.65866">
        <ele>1488</ele>
        <time>2021-08-07T09:52:16.169Z</time>
      </trkpt>
      <trkpt lat="46.91512" lon="8.65865">
        <ele>1488</ele>
        <time>2021-08-07T09:52:17.168Z</time>
      </trkpt>
      <trkpt lat="46.91513" lon="8.65864">
        <ele>1487</ele>
        <time>2021-08-07T09:52:18.168Z</time>
      </trkpt>
      <trkpt lat="46.91514" lon="8.65864">
        <ele>1487</ele>
        <time>2021-08-07T09:52:19.168Z</time>
      </trkpt>
      <trkpt lat="46.91514" lon="8.65863">
        <ele>1486</ele>
        <time>2021-08-07T09:52:20.169Z</time>
      </trkpt>
      <trkpt lat="46.91514" lon="8.65862">
        <ele>1486</ele>
        <time>2021-08-07T09:52:21.169Z</time>
      </trkpt>
      <trkpt lat="46.91513" lon="8.65862">
        <ele>1487</ele>
        <time>2021-08-07T09:52:22.168Z</time>
      </trkpt>
      <trkpt lat="46.91512" lon="8.65863">
        <ele>1488</ele>
        <time>2021-08-07T09:52:23.168Z</time>
      </trkpt>
      <trkpt lat="46.91512" lon="8.65864">
        <ele>1488</ele>
        <time>2021-08-07T09:52:24.168Z</time>
      </trkpt>
      <trkpt lat="46.91513" lon="8.65862">
        <ele>1488</ele>
        <time>2021-08-07T09:52:25.169Z</time>
      </trkpt>
      <trkpt lat="46.91512" lon="8.65862">
        <ele>1488</ele>
        <time>2021-08-07T09:52:26.168Z</time>
      </trkpt>
      <trkpt lat="46.91511" lon="8.65863">
        <ele>1488</ele>
        <time>2021-08-07T09:52:27.168Z</time>
      </trkpt>
      <trkpt lat="46.9151" lon="8.65863">
        <ele>1488</ele>
        <time>2021-08-07T09:52:28.168Z</time>
      </trkpt>
      <trkpt lat="46.9151" lon="8.65865">
        <ele>1488</ele>
        <time>2021-08-07T09:52:29.168Z</time>
      </trkpt>
      <trkpt lat="46.9151" lon="8.65865">
        <ele>1487</ele>
        <time>2021-08-07T09:52:30.168Z</time>
      </trkpt>
      <trkpt lat="46.9151" lon="8.65866">
        <ele>1487</ele>
        <time>2021-08-07T09:52:31.168Z</time>
      </trkpt>
      <trkpt lat="46.91509" lon="8.65866">
        <ele>1487</ele>
        <time>2021-08-07T09:52:32.168Z</time>
      </trkpt>
      <trkpt lat="46.91509" lon="8.65867">
        <ele>1486</ele>
        <time>2021-08-07T09:52:33.168Z</time>
      </trkpt>
      <trkpt lat="46.91508" lon="8.65867">
        <ele>1486</ele>
        <time>2021-08-07T09:52:34.169Z</time>
      </trkpt>
      <trkpt lat="46.91508" lon="8.65868">
        <ele>1487</ele>
        <time>2021-08-07T09:52:35.168Z</time>
      </trkpt>
      <trkpt lat="46.91508" lon="8.65869">
        <ele>1487</ele>
        <time>2021-08-07T09:52:36.168Z</time>
      </trkpt>
      <trkpt lat="46.91507" lon="8.65869">
        <ele>1487</ele>
        <time>2021-08-07T09:52:37.168Z</time>
      </trkpt>
      <trkpt lat="46.91507" lon="8.6587">
        <ele>1487</ele>
        <time>2021-08-07T09:52:38.168Z</time>
      </trkpt>
      <trkpt lat="46.91506" lon="8.6587">
        <ele>1488</ele>
        <time>2021-08-07T09:52:39.168Z</time>
      </trkpt>
      <trkpt lat="46.91506" lon="8.65871">
        <ele>1488</ele>
        <time>2021-08-07T09:52:40.168Z</time>
      </trkpt>
      <trkpt lat="46.91506" lon="8.65871">
        <ele>1488</ele>
        <time>2021-08-07T09:52:41.168Z</time>
      </trkpt>
      <trkpt lat="46.91506" lon="8.65872">
        <ele>1488</ele>
        <time>2021-08-07T09:52:42.168Z</time>
      </trkpt>
      <trkpt lat="46.91506" lon="8.65872">
        <ele>1488</ele>
        <time>2021-08-07T09:52:43.169Z</time>
      </trkpt>
      <trkpt lat="46.91507" lon="8.65872">
        <ele>1488</ele>
        <time>2021-08-07T09:52:44.168Z</time>
      </trkpt>
      <trkpt lat="46.91511" lon="8.65872">
        <ele>1489</ele>
        <time>2021-08-07T09:52:45.169Z</time>
      </trkpt>
      <trkpt lat="46.91511" lon="8.65872">
        <ele>1489</ele>
        <time>2021-08-07T09:52:46.169Z</time>
      </trkpt>
      <trkpt lat="46.91511" lon="8.65873">
        <ele>1490</ele>
        <time>2021-08-07T09:52:47.169Z</time>
      </trkpt>
      <trkpt lat="46.91512" lon="8.65873">
        <ele>1490</ele>
        <time>2021-08-07T09:52:48.169Z</time>
      </trkpt>
      <trkpt lat="46.91512" lon="8.65873">
        <ele>1491</ele>
        <time>2021-08-07T09:52:49.169Z</time>
      </trkpt>
      <trkpt lat="46.91512" lon="8.65874">
        <ele>1491</ele>
        <time>2021-08-07T09:52:50.168Z</time>
      </trkpt>
      <trkpt lat="46.91512" lon="8.65874">
        <ele>1492</ele>
        <time>2021-08-07T09:52:51.169Z</time>
      </trkpt>
      <trkpt lat="46.91513" lon="8.65875">
        <ele>1492</ele>
        <time>2021-08-07T09:52:52.168Z</time>
      </trkpt>
      <trkpt lat="46.91513" lon="8.65876">
        <ele>1492</ele>
        <time>2021-08-07T09:52:53.168Z</time>
      </trkpt>
      <trkpt lat="46.91511" lon="8.65874">
        <ele>1499</ele>
        <time>2021-08-07T09:52:57.190Z</time>
      </trkpt>
      <trkpt lat="46.91511" lon="8.65874">
        <ele>1500</ele>
        <time>2021-08-07T09:52:58.189Z</time>
      </trkpt>
      <trkpt lat="46.91511" lon="8.65873">
        <ele>1500</ele>
        <time>2021-08-07T09:52:59.190Z</time>
      </trkpt>
      <trkpt lat="46.91512" lon="8.65873">
        <ele>1500</ele>
        <time>2021-08-07T09:53:00.190Z</time>
      </trkpt>
      <trkpt lat="46.91512" lon="8.65873">
        <ele>1500</ele>
        <time>2021-08-07T09:53:01.190Z</time>
      </trkpt>
      <trkpt lat="46.91514" lon="8.65873">
        <ele>1500</ele>
        <time>2021-08-07T09:53:04.307Z</time>
      </trkpt>
      <trkpt lat="46.91514" lon="8.65876">
        <ele>1500</ele>
        <time>2021-08-07T09:53:05.308Z</time>
      </trkpt>
      <trkpt lat="46.91515" lon="8.65875">
        <ele>1507</ele>
        <time>2021-08-07T09:53:06.308Z</time>
      </trkpt>
      <trkpt lat="46.91514" lon="8.65874">
        <ele>1507</ele>
        <time>2021-08-07T09:53:07.308Z</time>
      </trkpt>
      <trkpt lat="46.91507" lon="8.65866">
        <ele>1509</ele>
        <time>2021-08-07T09:53:08.309Z</time>
      </trkpt>
      <trkpt lat="46.91507" lon="8.65865">
        <ele>1509</ele>
        <time>2021-08-07T09:53:09.308Z</time>
      </trkpt>
      <trkpt lat="46.91507" lon="8.65863">
        <ele>1508</ele>
        <time>2021-08-07T09:53:10.308Z</time>
      </trkpt>
      <trkpt lat="46.91506" lon="8.65865">
        <ele>1501</ele>
        <time>2021-08-07T09:53:11.309Z</time>
      </trkpt>
      <trkpt lat="46.91506" lon="8.65866">
        <ele>1500</ele>
        <time>2021-08-07T09:53:12.309Z</time>
      </trkpt>
      <trkpt lat="46.91506" lon="8.65867">
        <ele>1500</ele>
        <time>2021-08-07T09:53:13.309Z</time>
      </trkpt>
      <trkpt lat="46.91507" lon="8.65867">
        <ele>1499</ele>
        <time>2021-08-07T09:53:14.308Z</time>
      </trkpt>
      <trkpt lat="46.91508" lon="8.65866">
        <ele>1498</ele>
        <time>2021-08-07T09:53:15.309Z</time>
      </trkpt>
      <trkpt lat="46.91506" lon="8.65863">
        <ele>1494</ele>
        <time>2021-08-07T09:53:16.309Z</time>
      </trkpt>
      <trkpt lat="46.91509" lon="8.65865">
        <ele>1486</ele>
        <time>2021-08-07T09:53:17.309Z</time>
      </trkpt>
      <trkpt lat="46.9151" lon="8.65864">
        <ele>1486</ele>
        <time>2021-08-07T09:53:18.310Z</time>
      </trkpt>
      <trkpt lat="46.9151" lon="8.65863">
        <ele>1486</ele>
        <time>2021-08-07T09:53:19.310Z</time>
      </trkpt>
      <trkpt lat="46.9151" lon="8.65862">
        <ele>1486</ele>
        <time>2021-08-07T09:53:20.309Z</time>
      </trkpt>
      <trkpt lat="46.91509" lon="8.65861">
        <ele>1487</ele>
        <time>2021-08-07T09:53:21.309Z</time>
      </trkpt>
      <trkpt lat="46.91509" lon="8.65861">
        <ele>1488</ele>
        <time>2021-08-07T09:53:22.309Z</time>
      </trkpt>
      <trkpt lat="46.91509" lon="8.65861">
        <ele>1488</ele>
        <time>2021-08-07T09:53:23.309Z</time>
      </trkpt>
      <trkpt lat="46.91509" lon="8.65861">
        <ele>1489</ele>
        <time>2021-08-07T09:53:24.311Z</time>
      </trkpt>
      <trkpt lat="46.91512" lon="8.65862">
        <ele>1490</ele>
        <time>2021-08-07T09:53:25.311Z</time>
      </trkpt>
      <trkpt lat="46.91513" lon="8.65864">
        <ele>1490</ele>
        <time>2021-08-07T09:53:26.311Z</time>
      </trkpt>
      <trkpt lat="46.91514" lon="8.65865">
        <ele>1490</ele>
        <time>2021-08-07T09:53:27.311Z</time>
      </trkpt>
      <trkpt lat="46.91515" lon="8.65866">
        <ele>1490</ele>
        <time>2021-08-07T09:53:28.310Z</time>
      </trkpt>
      <trkpt lat="46.91515" lon="8.65865">
        <ele>1490</ele>
        <time>2021-08-07T09:53:29.310Z</time>
      </trkpt>
      <trkpt lat="46.91515" lon="8.65863">
        <ele>1489</ele>
        <time>2021-08-07T09:53:30.311Z</time>
      </trkpt>
      <trkpt lat="46.91514" lon="8.65861">
        <ele>1489</ele>
        <time>2021-08-07T09:53:31.310Z</time>
      </trkpt>
      <trkpt lat="46.91515" lon="8.65861">
        <ele>1488</ele>
        <time>2021-08-07T09:53:32.310Z</time>
      </trkpt>
      <trkpt lat="46.91516" lon="8.65861">
        <ele>1488</ele>
        <time>2021-08-07T09:53:33.311Z</time>
      </trkpt>
      <trkpt lat="46.91517" lon="8.65861">
        <ele>1487</ele>
        <time>2021-08-07T09:53:34.311Z</time>
      </trkpt>
      <trkpt lat="46.91517" lon="8.6586">
        <ele>1487</ele>
        <time>2021-08-07T09:53:35.311Z</time>
      </trkpt>
      <trkpt lat="46.91517" lon="8.65859">
        <ele>1486</ele>
        <time>2021-08-07T09:53:36.311Z</time>
      </trkpt>
      <trkpt lat="46.91517" lon="8.65858">
        <ele>1486</ele>
        <time>2021-08-07T09:53:37.311Z</time>
      </trkpt>
      <trkpt lat="46.91516" lon="8.65857">
        <ele>1486</ele>
        <time>2021-08-07T09:53:38.311Z</time>
      </trkpt>
      <trkpt lat="46.91516" lon="8.65855">
        <ele>1486</ele>
        <time>2021-08-07T09:53:39.310Z</time>
      </trkpt>
      <trkpt lat="46.91516" lon="8.65854">
        <ele>1486</ele>
        <time>2021-08-07T09:53:40.311Z</time>
      </trkpt>
      <trkpt lat="46.91516" lon="8.65853">
        <ele>1486</ele>
        <time>2021-08-07T09:53:41.311Z</time>
      </trkpt>
      <trkpt lat="46.91517" lon="8.65853">
        <ele>1485</ele>
        <time>2021-08-07T09:53:42.310Z</time>
      </trkpt>
      <trkpt lat="46.91517" lon="8.65852">
        <ele>1485</ele>
        <time>2021-08-07T09:53:43.311Z</time>
      </trkpt>
      <trkpt lat="46.91517" lon="8.65851">
        <ele>1485</ele>
        <time>2021-08-07T09:53:44.310Z</time>
      </trkpt>
      <trkpt lat="46.91518" lon="8.6585">
        <ele>1485</ele>
        <time>2021-08-07T09:53:45.310Z</time>
      </trkpt>
      <trkpt lat="46.91518" lon="8.65849">
        <ele>1485</ele>
        <time>2021-08-07T09:53:46.311Z</time>
      </trkpt>
      <trkpt lat="46.91519" lon="8.65847">
        <ele>1485</ele>
        <time>2021-08-07T09:53:47.311Z</time>
      </trkpt>
      <trkpt lat="46.9152" lon="8.65846">
        <ele>1485</ele>
        <time>2021-08-07T09:53:48.310Z</time>
      </trkpt>
      <trkpt lat="46.9152" lon="8.65845">
        <ele>1484</ele>
        <time>2021-08-07T09:53:49.310Z</time>
      </trkpt>
      <trkpt lat="46.9152" lon="8.65844">
        <ele>1484</ele>
        <time>2021-08-07T09:53:50.310Z</time>
      </trkpt>
      <trkpt lat="46.9152" lon="8.65843">
        <ele>1484</ele>
        <time>2021-08-07T09:53:51.311Z</time>
      </trkpt>
      <trkpt lat="46.91521" lon="8.65842">
        <ele>1483</ele>
        <time>2021-08-07T09:53:52.310Z</time>
      </trkpt>
      <trkpt lat="46.91522" lon="8.65841">
        <ele>1483</ele>
        <time>2021-08-07T09:53:53.311Z</time>
      </trkpt>
      <trkpt lat="46.91524" lon="8.65841">
        <ele>1483</ele>
        <time>2021-08-07T09:53:54.311Z</time>
      </trkpt>
      <trkpt lat="46.91525" lon="8.6584">
        <ele>1483</ele>
        <time>2021-08-07T09:53:55.311Z</time>
      </trkpt>
      <trkpt lat="46.91526" lon="8.6584">
        <ele>1482</ele>
        <time>2021-08-07T09:53:56.311Z</time>
      </trkpt>
      <trkpt lat="46.91528" lon="8.65839">
        <ele>1482</ele>
        <time>2021-08-07T09:53:57.311Z</time>
      </trkpt>
      <trkpt lat="46.91529" lon="8.65838">
        <ele>1481</ele>
        <time>2021-08-07T09:53:58.311Z</time>
      </trkpt>
      <trkpt lat="46.91531" lon="8.65836">
        <ele>1481</ele>
        <time>2021-08-07T09:53:59.311Z</time>
      </trkpt>
      <trkpt lat="46.91532" lon="8.65835">
        <ele>1480</ele>
        <time>2021-08-07T09:54:00.311Z</time>
      </trkpt>
      <trkpt lat="46.91535" lon="8.65834">
        <ele>1479</ele>
        <time>2021-08-07T09:54:01.310Z</time>
      </trkpt>
      <trkpt lat="46.91537" lon="8.65833">
        <ele>1478</ele>
        <time>2021-08-07T09:54:02.310Z</time>
      </trkpt>
      <trkpt lat="46.91539" lon="8.65832">
        <ele>1478</ele>
        <time>2021-08-07T09:54:03.310Z</time>
      </trkpt>
      <trkpt lat="46.9154" lon="8.65831">
        <ele>1477</ele>
        <time>2021-08-07T09:54:04.310Z</time>
      </trkpt>
      <trkpt lat="46.91541" lon="8.6583">
        <ele>1476</ele>
        <time>2021-08-07T09:54:05.310Z</time>
      </trkpt>
      <trkpt lat="46.91542" lon="8.65829">
        <ele>1476</ele>
        <time>2021-08-07T09:54:07.436Z</time>
      </trkpt>
      <trkpt lat="46.91543" lon="8.65827">
        <ele>1475</ele>
        <time>2021-08-07T09:54:08.436Z</time>
      </trkpt>
      <trkpt lat="46.91543" lon="8.65826">
        <ele>1475</ele>
        <time>2021-08-07T09:54:09.436Z</time>
      </trkpt>
      <trkpt lat="46.91543" lon="8.65824">
        <ele>1475</ele>
        <time>2021-08-07T09:54:10.436Z</time>
      </trkpt>
      <trkpt lat="46.91543" lon="8.65822">
        <ele>1475</ele>
        <time>2021-08-07T09:54:11.436Z</time>
      </trkpt>
      <trkpt lat="46.91543" lon="8.65821">
        <ele>1475</ele>
        <time>2021-08-07T09:54:12.436Z</time>
      </trkpt>
      <trkpt lat="46.91543" lon="8.65819">
        <ele>1475</ele>
        <time>2021-08-07T09:54:20.449Z</time>
      </trkpt>
      <trkpt lat="46.91543" lon="8.65818">
        <ele>1474</ele>
        <time>2021-08-07T09:54:21.449Z</time>
      </trkpt>
      <trkpt lat="46.91543" lon="8.65816">
        <ele>1473</ele>
        <time>2021-08-07T09:54:22.449Z</time>
      </trkpt>
      <trkpt lat="46.91543" lon="8.65815">
        <ele>1473</ele>
        <time>2021-08-07T09:54:23.449Z</time>
      </trkpt>
      <trkpt lat="46.91543" lon="8.65814">
        <ele>1472</ele>
        <time>2021-08-07T09:54:24.449Z</time>
      </trkpt>
      <trkpt lat="46.91543" lon="8.65812">
        <ele>1472</ele>
        <time>2021-08-07T09:54:25.449Z</time>
      </trkpt>
      <trkpt lat="46.91544" lon="8.65811">
        <ele>1471</ele>
        <time>2021-08-07T09:54:26.449Z</time>
      </trkpt>
      <trkpt lat="46.91545" lon="8.65811">
        <ele>1470</ele>
        <time>2021-08-07T09:54:27.449Z</time>
      </trkpt>
      <trkpt lat="46.91546" lon="8.65809">
        <ele>1470</ele>
        <time>2021-08-07T09:54:28.449Z</time>
      </trkpt>
      <trkpt lat="46.91546" lon="8.65807">
        <ele>1470</ele>
        <time>2021-08-07T09:54:29.448Z</time>
      </trkpt>
      <trkpt lat="46.91546" lon="8.65805">
        <ele>1470</ele>
        <time>2021-08-07T09:54:30.449Z</time>
      </trkpt>
      <trkpt lat="46.91546" lon="8.65804">
        <ele>1470</ele>
        <time>2021-08-07T09:54:31.449Z</time>
      </trkpt>
      <trkpt lat="46.91546" lon="8.65802">
        <ele>1469</ele>
        <time>2021-08-07T09:54:32.449Z</time>
      </trkpt>
      <trkpt lat="46.91546" lon="8.658">
        <ele>1468</ele>
        <time>2021-08-07T09:54:33.449Z</time>
      </trkpt>
      <trkpt lat="46.91546" lon="8.658">
        <ele>1468</ele>
        <time>2021-08-07T09:54:34.449Z</time>
      </trkpt>
      <trkpt lat="46.91547" lon="8.65798">
        <ele>1468</ele>
        <time>2021-08-07T09:54:35.449Z</time>
      </trkpt>
      <trkpt lat="46.91547" lon="8.65797">
        <ele>1468</ele>
        <time>2021-08-07T09:54:36.449Z</time>
      </trkpt>
      <trkpt lat="46.91548" lon="8.65796">
        <ele>1467</ele>
        <time>2021-08-07T09:54:37.449Z</time>
      </trkpt>
      <trkpt lat="46.91547" lon="8.65796">
        <ele>1467</ele>
        <time>2021-08-07T09:54:38.449Z</time>
      </trkpt>
      <trkpt lat="46.91547" lon="8.65795">
        <ele>1467</ele>
        <time>2021-08-07T09:54:39.448Z</time>
      </trkpt>
      <trkpt lat="46.91546" lon="8.65794">
        <ele>1468</ele>
        <time>2021-08-07T09:54:40.448Z</time>
      </trkpt>
      <trkpt lat="46.91546" lon="8.65793">
        <ele>1468</ele>
        <time>2021-08-07T09:54:41.449Z</time>
      </trkpt>
      <trkpt lat="46.91546" lon="8.65792">
        <ele>1468</ele>
        <time>2021-08-07T09:54:42.449Z</time>
      </trkpt>
      <trkpt lat="46.91546" lon="8.65791">
        <ele>1469</ele>
        <time>2021-08-07T09:54:43.448Z</time>
      </trkpt>
      <trkpt lat="46.91546" lon="8.6579">
        <ele>1469</ele>
        <time>2021-08-07T09:54:44.449Z</time>
      </trkpt>
      <trkpt lat="46.91546" lon="8.65789">
        <ele>1470</ele>
        <time>2021-08-07T09:54:48.588Z</time>
      </trkpt>
      <trkpt lat="46.91546" lon="8.65789">
        <ele>1470</ele>
        <time>2021-08-07T09:54:49.589Z</time>
      </trkpt>
      <trkpt lat="46.91547" lon="8.65788">
        <ele>1471</ele>
        <time>2021-08-07T09:54:50.589Z</time>
      </trkpt>
      <trkpt lat="46.91547" lon="8.65788">
        <ele>1471</ele>
        <time>2021-08-07T09:54:51.589Z</time>
      </trkpt>
      <trkpt lat="46.91547" lon="8.65787">
        <ele>1472</ele>
        <time>2021-08-07T09:54:52.589Z</time>
      </trkpt>
      <trkpt lat="46.91548" lon="8.65785">
        <ele>1472</ele>
        <time>2021-08-07T09:54:53.588Z</time>
      </trkpt>
      <trkpt lat="46.91548" lon="8.65784">
        <ele>1472</ele>
        <time>2021-08-07T09:54:56.691Z</time>
      </trkpt>
      <trkpt lat="46.91549" lon="8.65783">
        <ele>1472</ele>
        <time>2021-08-07T09:54:57.691Z</time>
      </trkpt>
      <trkpt lat="46.91548" lon="8.65782">
        <ele>1472</ele>
        <time>2021-08-07T09:54:58.691Z</time>
      </trkpt>
      <trkpt lat="46.91547" lon="8.6578">
        <ele>1472</ele>
        <time>2021-08-07T09:54:59.691Z</time>
      </trkpt>
      <trkpt lat="46.91547" lon="8.65779">
        <ele>1472</ele>
        <time>2021-08-07T09:55:00.691Z</time>
      </trkpt>
      <trkpt lat="46.91547" lon="8.65778">
        <ele>1472</ele>
        <time>2021-08-07T09:55:01.691Z</time>
      </trkpt>
      <trkpt lat="46.91548" lon="8.65776">
        <ele>1471</ele>
        <time>2021-08-07T09:55:02.691Z</time>
      </trkpt>
      <trkpt lat="46.91548" lon="8.65774">
        <ele>1471</ele>
        <time>2021-08-07T09:55:03.691Z</time>
      </trkpt>
      <trkpt lat="46.91547" lon="8.65772">
        <ele>1470</ele>
        <time>2021-08-07T09:55:04.691Z</time>
      </trkpt>
      <trkpt lat="46.91547" lon="8.65771">
        <ele>1470</ele>
        <time>2021-08-07T09:55:05.691Z</time>
      </trkpt>
      <trkpt lat="46.91547" lon="8.6577">
        <ele>1469</ele>
        <time>2021-08-07T09:55:06.691Z</time>
      </trkpt>
      <trkpt lat="46.91546" lon="8.65769">
        <ele>1468</ele>
        <time>2021-08-07T09:55:07.691Z</time>
      </trkpt>
      <trkpt lat="46.91546" lon="8.65769">
        <ele>1467</ele>
        <time>2021-08-07T09:55:08.691Z</time>
      </trkpt>
      <trkpt lat="46.91546" lon="8.65768">
        <ele>1466</ele>
        <time>2021-08-07T09:55:09.691Z</time>
      </trkpt>
      <trkpt lat="46.91546" lon="8.65767">
        <ele>1465</ele>
        <time>2021-08-07T09:55:10.691Z</time>
      </trkpt>
      <trkpt lat="46.91547" lon="8.65766">
        <ele>1464</ele>
        <time>2021-08-07T09:55:11.691Z</time>
      </trkpt>
      <trkpt lat="46.91547" lon="8.65765">
        <ele>1463</ele>
        <time>2021-08-07T09:55:12.690Z</time>
      </trkpt>
      <trkpt lat="46.91547" lon="8.65763">
        <ele>1463</ele>
        <time>2021-08-07T09:55:13.691Z</time>
      </trkpt>
      <trkpt lat="46.91546" lon="8.65761">
        <ele>1463</ele>
        <time>2021-08-07T09:55:14.691Z</time>
      </trkpt>
      <trkpt lat="46.91546" lon="8.6576">
        <ele>1463</ele>
        <time>2021-08-07T09:55:15.691Z</time>
      </trkpt>
      <trkpt lat="46.91545" lon="8.65759">
        <ele>1463</ele>
        <time>2021-08-07T09:55:16.692Z</time>
      </trkpt>
      <trkpt lat="46.91542" lon="8.65757">
        <ele>1464</ele>
        <time>2021-08-07T09:55:17.691Z</time>
      </trkpt>
      <trkpt lat="46.91542" lon="8.65757">
        <ele>1464</ele>
        <time>2021-08-07T09:55:18.692Z</time>
      </trkpt>
      <trkpt lat="46.91541" lon="8.65757">
        <ele>1464</ele>
        <time>2021-08-07T09:55:19.691Z</time>
      </trkpt>
      <trkpt lat="46.9154" lon="8.65757">
        <ele>1465</ele>
        <time>2021-08-07T09:55:20.691Z</time>
      </trkpt>
      <trkpt lat="46.9154" lon="8.65757">
        <ele>1465</ele>
        <time>2021-08-07T09:55:21.692Z</time>
      </trkpt>
      <trkpt lat="46.91541" lon="8.65756">
        <ele>1463</ele>
        <time>2021-08-07T09:55:22.692Z</time>
      </trkpt>
      <trkpt lat="46.9154" lon="8.65755">
        <ele>1462</ele>
        <time>2021-08-07T09:55:23.691Z</time>
      </trkpt>
      <trkpt lat="46.91539" lon="8.65755">
        <ele>1461</ele>
        <time>2021-08-07T09:55:24.692Z</time>
      </trkpt>
      <trkpt lat="46.91538" lon="8.65754">
        <ele>1461</ele>
        <time>2021-08-07T09:55:25.691Z</time>
      </trkpt>
      <trkpt lat="46.91538" lon="8.65754">
        <ele>1460</ele>
        <time>2021-08-07T09:55:26.692Z</time>
      </trkpt>
      <trkpt lat="46.91538" lon="8.65754">
        <ele>1460</ele>
        <time>2021-08-07T09:55:27.691Z</time>
      </trkpt>
      <trkpt lat="46.91537" lon="8.65752">
        <ele>1460</ele>
        <time>2021-08-07T09:55:28.692Z</time>
      </trkpt>
      <trkpt lat="46.91538" lon="8.65753">
        <ele>1460</ele>
        <time>2021-08-07T09:55:29.691Z</time>
      </trkpt>
      <trkpt lat="46.91541" lon="8.65757">
        <ele>1458</ele>
        <time>2021-08-07T09:55:30.692Z</time>
      </trkpt>
      <trkpt lat="46.91542" lon="8.65756">
        <ele>1458</ele>
        <time>2021-08-07T09:55:31.691Z</time>
      </trkpt>
      <trkpt lat="46.9154" lon="8.65753">
        <ele>1458</ele>
        <time>2021-08-07T09:55:32.692Z</time>
      </trkpt>
      <trkpt lat="46.91539" lon="8.65753">
        <ele>1457</ele>
        <time>2021-08-07T09:55:33.691Z</time>
      </trkpt>
      <trkpt lat="46.91539" lon="8.65753">
        <ele>1457</ele>
        <time>2021-08-07T09:55:34.692Z</time>
      </trkpt>
      <trkpt lat="46.91538" lon="8.65752">
        <ele>1457</ele>
        <time>2021-08-07T09:55:35.691Z</time>
      </trkpt>
      <trkpt lat="46.91538" lon="8.65751">
        <ele>1456</ele>
        <time>2021-08-07T09:55:36.691Z</time>
      </trkpt>
      <trkpt lat="46.91538" lon="8.6575">
        <ele>1456</ele>
        <time>2021-08-07T09:55:37.691Z</time>
      </trkpt>
      <trkpt lat="46.91537" lon="8.6575">
        <ele>1456</ele>
        <time>2021-08-07T09:55:38.691Z</time>
      </trkpt>
      <trkpt lat="46.91537" lon="8.6575">
        <ele>1456</ele>
        <time>2021-08-07T09:55:39.691Z</time>
      </trkpt>
      <trkpt lat="46.91537" lon="8.65749">
        <ele>1456</ele>
        <time>2021-08-07T09:55:40.691Z</time>
      </trkpt>
      <trkpt lat="46.91536" lon="8.65748">
        <ele>1456</ele>
        <time>2021-08-07T09:55:41.691Z</time>
      </trkpt>
      <trkpt lat="46.91535" lon="8.65747">
        <ele>1456</ele>
        <time>2021-08-07T09:55:42.692Z</time>
      </trkpt>
      <trkpt lat="46.91534" lon="8.65746">
        <ele>1457</ele>
        <time>2021-08-07T09:55:43.692Z</time>
      </trkpt>
      <trkpt lat="46.91534" lon="8.65745">
        <ele>1457</ele>
        <time>2021-08-07T09:55:44.691Z</time>
      </trkpt>
      <trkpt lat="46.91535" lon="8.65745">
        <ele>1457</ele>
        <time>2021-08-07T09:55:45.691Z</time>
      </trkpt>
      <trkpt lat="46.91535" lon="8.65744">
        <ele>1458</ele>
        <time>2021-08-07T09:55:46.691Z</time>
      </trkpt>
      <trkpt lat="46.91536" lon="8.65744">
        <ele>1458</ele>
        <time>2021-08-07T09:55:47.691Z</time>
      </trkpt>
      <trkpt lat="46.91536" lon="8.65743">
        <ele>1458</ele>
        <time>2021-08-07T09:55:48.691Z</time>
      </trkpt>
      <trkpt lat="46.91536" lon="8.65743">
        <ele>1459</ele>
        <time>2021-08-07T09:55:49.691Z</time>
      </trkpt>
      <trkpt lat="46.91536" lon="8.65742">
        <ele>1459</ele>
        <time>2021-08-07T09:55:50.691Z</time>
      </trkpt>
      <trkpt lat="46.91536" lon="8.65741">
        <ele>1459</ele>
        <time>2021-08-07T09:55:51.691Z</time>
      </trkpt>
      <trkpt lat="46.91537" lon="8.65741">
        <ele>1458</ele>
        <time>2021-08-07T09:55:52.691Z</time>
      </trkpt>
      <trkpt lat="46.91537" lon="8.6574">
        <ele>1458</ele>
        <time>2021-08-07T09:55:53.691Z</time>
      </trkpt>
      <trkpt lat="46.91536" lon="8.65739">
        <ele>1457</ele>
        <time>2021-08-07T09:55:54.691Z</time>
      </trkpt>
      <trkpt lat="46.91537" lon="8.65738">
        <ele>1457</ele>
        <time>2021-08-07T09:55:55.691Z</time>
      </trkpt>
      <trkpt lat="46.91537" lon="8.65737">
        <ele>1457</ele>
        <time>2021-08-07T09:55:56.691Z</time>
      </trkpt>
      <trkpt lat="46.91537" lon="8.65736">
        <ele>1457</ele>
        <time>2021-08-07T09:55:57.691Z</time>
      </trkpt>
      <trkpt lat="46.91537" lon="8.65735">
        <ele>1457</ele>
        <time>2021-08-07T09:55:58.691Z</time>
      </trkpt>
      <trkpt lat="46.91537" lon="8.65735">
        <ele>1457</ele>
        <time>2021-08-07T09:55:59.691Z</time>
      </trkpt>
      <trkpt lat="46.91536" lon="8.65736">
        <ele>1457</ele>
        <time>2021-08-07T09:56:00.691Z</time>
      </trkpt>
      <trkpt lat="46.91536" lon="8.65735">
        <ele>1457</ele>
        <time>2021-08-07T09:56:01.691Z</time>
      </trkpt>
      <trkpt lat="46.91535" lon="8.65733">
        <ele>1457</ele>
        <time>2021-08-07T09:56:02.691Z</time>
      </trkpt>
      <trkpt lat="46.91534" lon="8.65732">
        <ele>1457</ele>
        <time>2021-08-07T09:56:03.692Z</time>
      </trkpt>
      <trkpt lat="46.91533" lon="8.6573">
        <ele>1458</ele>
        <time>2021-08-07T09:56:04.691Z</time>
      </trkpt>
      <trkpt lat="46.91532" lon="8.65729">
        <ele>1458</ele>
        <time>2021-08-07T09:56:05.692Z</time>
      </trkpt>
      <trkpt lat="46.91532" lon="8.65728">
        <ele>1458</ele>
        <time>2021-08-07T09:56:06.691Z</time>
      </trkpt>
      <trkpt lat="46.91533" lon="8.65728">
        <ele>1458</ele>
        <time>2021-08-07T09:56:07.691Z</time>
      </trkpt>
      <trkpt lat="46.91533" lon="8.65728">
        <ele>1459</ele>
        <time>2021-08-07T09:56:08.692Z</time>
      </trkpt>
      <trkpt lat="46.91533" lon="8.65728">
        <ele>1459</ele>
        <time>2021-08-07T09:56:09.691Z</time>
      </trkpt>
      <trkpt lat="46.91533" lon="8.65728">
        <ele>1458</ele>
        <time>2021-08-07T09:56:10.692Z</time>
      </trkpt>
      <trkpt lat="46.91533" lon="8.65729">
        <ele>1458</ele>
        <time>2021-08-07T09:56:11.692Z</time>
      </trkpt>
      <trkpt lat="46.91533" lon="8.6573">
        <ele>1458</ele>
        <time>2021-08-07T09:56:12.692Z</time>
      </trkpt>
      <trkpt lat="46.91534" lon="8.65731">
        <ele>1458</ele>
        <time>2021-08-07T09:56:13.692Z</time>
      </trkpt>
      <trkpt lat="46.91534" lon="8.65732">
        <ele>1458</ele>
        <time>2021-08-07T09:56:14.692Z</time>
      </trkpt>
      <trkpt lat="46.91535" lon="8.65732">
        <ele>1458</ele>
        <time>2021-08-07T09:56:15.692Z</time>
      </trkpt>
      <trkpt lat="46.91536" lon="8.65732">
        <ele>1458</ele>
        <time>2021-08-07T09:56:16.692Z</time>
      </trkpt>
      <trkpt lat="46.91536" lon="8.65733">
        <ele>1458</ele>
        <time>2021-08-07T09:56:17.692Z</time>
      </trkpt>
      <trkpt lat="46.91537" lon="8.65736">
        <ele>1458</ele>
        <time>2021-08-07T09:56:18.693Z</time>
      </trkpt>
      <trkpt lat="46.91537" lon="8.65737">
        <ele>1458</ele>
        <time>2021-08-07T09:56:19.692Z</time>
      </trkpt>
      <trkpt lat="46.91538" lon="8.65737">
        <ele>1458</ele>
        <time>2021-08-07T09:56:20.693Z</time>
      </trkpt>
      <trkpt lat="46.91538" lon="8.65737">
        <ele>1458</ele>
        <time>2021-08-07T09:56:21.692Z</time>
      </trkpt>
      <trkpt lat="46.91538" lon="8.65737">
        <ele>1458</ele>
        <time>2021-08-07T09:56:22.692Z</time>
      </trkpt>
      <trkpt lat="46.91539" lon="8.65743">
        <ele>1456</ele>
        <time>2021-08-07T09:56:25.688Z</time>
      </trkpt>
      <trkpt lat="46.91539" lon="8.65743">
        <ele>1456</ele>
        <time>2021-08-07T09:56:26.688Z</time>
      </trkpt>
      <trkpt lat="46.91539" lon="8.65743">
        <ele>1456</ele>
        <time>2021-08-07T09:56:27.689Z</time>
      </trkpt>
      <trkpt lat="46.91541" lon="8.65742">
        <ele>1457</ele>
        <time>2021-08-07T09:56:28.689Z</time>
      </trkpt>
      <trkpt lat="46.91542" lon="8.65742">
        <ele>1457</ele>
        <time>2021-08-07T09:56:29.689Z</time>
      </trkpt>
      <trkpt lat="46.91544" lon="8.65743">
        <ele>1457</ele>
        <time>2021-08-07T09:56:30.689Z</time>
      </trkpt>
      <trkpt lat="46.91545" lon="8.65744">
        <ele>1457</ele>
        <time>2021-08-07T09:56:31.688Z</time>
      </trkpt>
      <trkpt lat="46.91546" lon="8.65745">
        <ele>1458</ele>
        <time>2021-08-07T09:56:32.688Z</time>
      </trkpt>
      <trkpt lat="46.91546" lon="8.65745">
        <ele>1458</ele>
        <time>2021-08-07T09:56:34.809Z</time>
      </trkpt>
      <trkpt lat="46.91547" lon="8.65745">
        <ele>1458</ele>
        <time>2021-08-07T09:56:35.810Z</time>
      </trkpt>
      <trkpt lat="46.91548" lon="8.65746">
        <ele>1459</ele>
        <time>2021-08-07T09:56:36.810Z</time>
      </trkpt>
      <trkpt lat="46.91549" lon="8.65746">
        <ele>1459</ele>
        <time>2021-08-07T09:56:37.809Z</time>
      </trkpt>
      <trkpt lat="46.9155" lon="8.65746">
        <ele>1459</ele>
        <time>2021-08-07T09:56:38.810Z</time>
      </trkpt>
      <trkpt lat="46.91551" lon="8.65746">
        <ele>1460</ele>
        <time>2021-08-07T09:56:39.809Z</time>
      </trkpt>
      <trkpt lat="46.91551" lon="8.65746">
        <ele>1460</ele>
        <time>2021-08-07T09:56:40.809Z</time>
      </trkpt>
      <trkpt lat="46.91552" lon="8.65746">
        <ele>1461</ele>
        <time>2021-08-07T09:56:41.809Z</time>
      </trkpt>
      <trkpt lat="46.91553" lon="8.65746">
        <ele>1461</ele>
        <time>2021-08-07T09:56:42.810Z</time>
      </trkpt>
      <trkpt lat="46.91553" lon="8.65745">
        <ele>1462</ele>
        <time>2021-08-07T09:56:46.840Z</time>
      </trkpt>
      <trkpt lat="46.91554" lon="8.65745">
        <ele>1462</ele>
        <time>2021-08-07T09:56:47.840Z</time>
      </trkpt>
      <trkpt lat="46.91553" lon="8.65744">
        <ele>1462</ele>
        <time>2021-08-07T09:56:48.840Z</time>
      </trkpt>
      <trkpt lat="46.91554" lon="8.65741">
        <ele>1463</ele>
        <time>2021-08-07T09:56:49.841Z</time>
      </trkpt>
      <trkpt lat="46.91553" lon="8.65741">
        <ele>1463</ele>
        <time>2021-08-07T09:56:50.840Z</time>
      </trkpt>
      <trkpt lat="46.91553" lon="8.6574">
        <ele>1462</ele>
        <time>2021-08-07T09:56:51.840Z</time>
      </trkpt>
      <trkpt lat="46.91553" lon="8.65739">
        <ele>1462</ele>
        <time>2021-08-07T09:56:52.841Z</time>
      </trkpt>
      <trkpt lat="46.91553" lon="8.65738">
        <ele>1462</ele>
        <time>2021-08-07T09:56:53.841Z</time>
      </trkpt>
      <trkpt lat="46.91553" lon="8.65737">
        <ele>1461</ele>
        <time>2021-08-07T09:56:54.841Z</time>
      </trkpt>
      <trkpt lat="46.91554" lon="8.65736">
        <ele>1461</ele>
        <time>2021-08-07T09:56:55.840Z</time>
      </trkpt>
      <trkpt lat="46.91554" lon="8.65735">
        <ele>1461</ele>
        <time>2021-08-07T09:56:56.841Z</time>
      </trkpt>
      <trkpt lat="46.91555" lon="8.65732">
        <ele>1460</ele>
        <time>2021-08-07T09:56:57.841Z</time>
      </trkpt>
      <trkpt lat="46.91555" lon="8.6573">
        <ele>1459</ele>
        <time>2021-08-07T09:56:58.840Z</time>
      </trkpt>
      <trkpt lat="46.91554" lon="8.65728">
        <ele>1459</ele>
        <time>2021-08-07T09:56:59.841Z</time>
      </trkpt>
      <trkpt lat="46.91554" lon="8.65726">
        <ele>1459</ele>
        <time>2021-08-07T09:57:00.841Z</time>
      </trkpt>
      <trkpt lat="46.91553" lon="8.65725">
        <ele>1458</ele>
        <time>2021-08-07T09:57:01.841Z</time>
      </trkpt>
      <trkpt lat="46.91552" lon="8.65724">
        <ele>1458</ele>
        <time>2021-08-07T09:57:02.841Z</time>
      </trkpt>
      <trkpt lat="46.91551" lon="8.65723">
        <ele>1457</ele>
        <time>2021-08-07T09:57:03.841Z</time>
      </trkpt>
      <trkpt lat="46.91551" lon="8.65721">
        <ele>1457</ele>
        <time>2021-08-07T09:57:04.840Z</time>
      </trkpt>
      <trkpt lat="46.91551" lon="8.6572">
        <ele>1456</ele>
        <time>2021-08-07T09:57:05.840Z</time>
      </trkpt>
      <trkpt lat="46.91551" lon="8.65719">
        <ele>1456</ele>
        <time>2021-08-07T09:57:06.841Z</time>
      </trkpt>
      <trkpt lat="46.91551" lon="8.65717">
        <ele>1456</ele>
        <time>2021-08-07T09:57:07.840Z</time>
      </trkpt>
      <trkpt lat="46.91552" lon="8.65716">
        <ele>1456</ele>
        <time>2021-08-07T09:57:08.841Z</time>
      </trkpt>
      <trkpt lat="46.91552" lon="8.65715">
        <ele>1455</ele>
        <time>2021-08-07T09:57:09.841Z</time>
      </trkpt>
      <trkpt lat="46.91553" lon="8.65714">
        <ele>1455</ele>
        <time>2021-08-07T09:57:10.841Z</time>
      </trkpt>
      <trkpt lat="46.91552" lon="8.65713">
        <ele>1455</ele>
        <time>2021-08-07T09:57:11.840Z</time>
      </trkpt>
      <trkpt lat="46.91552" lon="8.65712">
        <ele>1455</ele>
        <time>2021-08-07T09:57:12.841Z</time>
      </trkpt>
      <trkpt lat="46.91551" lon="8.65711">
        <ele>1455</ele>
        <time>2021-08-07T09:57:13.840Z</time>
      </trkpt>
      <trkpt lat="46.9155" lon="8.6571">
        <ele>1455</ele>
        <time>2021-08-07T09:57:14.841Z</time>
      </trkpt>
      <trkpt lat="46.9155" lon="8.65709">
        <ele>1455</ele>
        <time>2021-08-07T09:57:15.841Z</time>
      </trkpt>
      <trkpt lat="46.9155" lon="8.65708">
        <ele>1455</ele>
        <time>2021-08-07T09:57:16.841Z</time>
      </trkpt>
      <trkpt lat="46.91549" lon="8.65707">
        <ele>1455</ele>
        <time>2021-08-07T09:57:17.841Z</time>
      </trkpt>
      <trkpt lat="46.91549" lon="8.65707">
        <ele>1455</ele>
        <time>2021-08-07T09:57:23.948Z</time>
      </trkpt>
      <trkpt lat="46.9155" lon="8.65707">
        <ele>1455</ele>
        <time>2021-08-07T09:57:24.947Z</time>
      </trkpt>
      <trkpt lat="46.9155" lon="8.65707">
        <ele>1455</ele>
        <time>2021-08-07T09:57:25.948Z</time>
      </trkpt>
      <trkpt lat="46.9155" lon="8.65707">
        <ele>1455</ele>
        <time>2021-08-07T09:57:26.947Z</time>
      </trkpt>
      <trkpt lat="46.91551" lon="8.65706">
        <ele>1456</ele>
        <time>2021-08-07T09:57:27.950Z</time>
      </trkpt>
      <trkpt lat="46.91551" lon="8.65706">
        <ele>1455</ele>
        <time>2021-08-07T09:57:28.949Z</time>
      </trkpt>
      <trkpt lat="46.91551" lon="8.65706">
        <ele>1455</ele>
        <time>2021-08-07T09:57:29.949Z</time>
      </trkpt>
      <trkpt lat="46.91553" lon="8.65707">
        <ele>1455</ele>
        <time>2021-08-07T09:57:31.800Z</time>
      </trkpt>
      <trkpt lat="46.91553" lon="8.65707">
        <ele>1455</ele>
        <time>2021-08-07T09:57:32.800Z</time>
      </trkpt>
      <trkpt lat="46.91554" lon="8.65707">
        <ele>1454</ele>
        <time>2021-08-07T09:57:33.799Z</time>
      </trkpt>
      <trkpt lat="46.91553" lon="8.65707">
        <ele>1454</ele>
        <time>2021-08-07T09:57:34.799Z</time>
      </trkpt>
      <trkpt lat="46.91553" lon="8.65706">
        <ele>1453</ele>
        <time>2021-08-07T09:57:35.800Z</time>
      </trkpt>
      <trkpt lat="46.91552" lon="8.65704">
        <ele>1453</ele>
        <time>2021-08-07T09:57:36.799Z</time>
      </trkpt>
      <trkpt lat="46.91552" lon="8.65703">
        <ele>1453</ele>
        <time>2021-08-07T09:57:37.800Z</time>
      </trkpt>
      <trkpt lat="46.91551" lon="8.65702">
        <ele>1452</ele>
        <time>2021-08-07T09:57:38.800Z</time>
      </trkpt>
      <trkpt lat="46.91551" lon="8.65701">
        <ele>1452</ele>
        <time>2021-08-07T09:57:39.799Z</time>
      </trkpt>
      <trkpt lat="46.91552" lon="8.65701">
        <ele>1451</ele>
        <time>2021-08-07T09:57:40.800Z</time>
      </trkpt>
      <trkpt lat="46.91553" lon="8.65702">
        <ele>1451</ele>
        <time>2021-08-07T09:57:41.799Z</time>
      </trkpt>
      <trkpt lat="46.91554" lon="8.65703">
        <ele>1450</ele>
        <time>2021-08-07T09:57:42.799Z</time>
      </trkpt>
      <trkpt lat="46.91556" lon="8.65704">
        <ele>1450</ele>
        <time>2021-08-07T09:57:43.800Z</time>
      </trkpt>
      <trkpt lat="46.91557" lon="8.65705">
        <ele>1449</ele>
        <time>2021-08-07T09:57:44.800Z</time>
      </trkpt>
      <trkpt lat="46.91557" lon="8.65705">
        <ele>1449</ele>
        <time>2021-08-07T09:57:45.800Z</time>
      </trkpt>
      <trkpt lat="46.91557" lon="8.65705">
        <ele>1449</ele>
        <time>2021-08-07T09:57:46.799Z</time>
      </trkpt>
      <trkpt lat="46.91558" lon="8.65705">
        <ele>1448</ele>
        <time>2021-08-07T09:57:47.800Z</time>
      </trkpt>
      <trkpt lat="46.91558" lon="8.65705">
        <ele>1448</ele>
        <time>2021-08-07T09:57:48.800Z</time>
      </trkpt>
      <trkpt lat="46.91559" lon="8.65704">
        <ele>1447</ele>
        <time>2021-08-07T09:57:49.799Z</time>
      </trkpt>
      <trkpt lat="46.91559" lon="8.65702">
        <ele>1446</ele>
        <time>2021-08-07T09:57:50.799Z</time>
      </trkpt>
      <trkpt lat="46.91558" lon="8.657">
        <ele>1446</ele>
        <time>2021-08-07T09:57:51.800Z</time>
      </trkpt>
      <trkpt lat="46.91558" lon="8.65699">
        <ele>1445</ele>
        <time>2021-08-07T09:57:52.800Z</time>
      </trkpt>
      <trkpt lat="46.91557" lon="8.65698">
        <ele>1445</ele>
        <time>2021-08-07T09:57:53.799Z</time>
      </trkpt>
      <trkpt lat="46.91557" lon="8.65697">
        <ele>1445</ele>
        <time>2021-08-07T09:57:54.800Z</time>
      </trkpt>
      <trkpt lat="46.91556" lon="8.65697">
        <ele>1444</ele>
        <time>2021-08-07T09:57:57.799Z</time>
      </trkpt>
      <trkpt lat="46.91556" lon="8.65695">
        <ele>1444</ele>
        <time>2021-08-07T09:57:58.800Z</time>
      </trkpt>
      <trkpt lat="46.91556" lon="8.65694">
        <ele>1444</ele>
        <time>2021-08-07T09:57:59.800Z</time>
      </trkpt>
      <trkpt lat="46.91556" lon="8.65693">
        <ele>1444</ele>
        <time>2021-08-07T09:58:00.800Z</time>
      </trkpt>
      <trkpt lat="46.91556" lon="8.65692">
        <ele>1443</ele>
        <time>2021-08-07T09:58:01.800Z</time>
      </trkpt>
      <trkpt lat="46.91556" lon="8.65691">
        <ele>1443</ele>
        <time>2021-08-07T09:58:02.799Z</time>
      </trkpt>
      <trkpt lat="46.91556" lon="8.6569">
        <ele>1443</ele>
        <time>2021-08-07T09:58:03.800Z</time>
      </trkpt>
      <trkpt lat="46.91556" lon="8.6569">
        <ele>1443</ele>
        <time>2021-08-07T09:58:04.800Z</time>
      </trkpt>
      <trkpt lat="46.91555" lon="8.65689">
        <ele>1442</ele>
        <time>2021-08-07T09:58:05.800Z</time>
      </trkpt>
      <trkpt lat="46.91555" lon="8.65688">
        <ele>1442</ele>
        <time>2021-08-07T09:58:06.800Z</time>
      </trkpt>
      <trkpt lat="46.91555" lon="8.65686">
        <ele>1442</ele>
        <time>2021-08-07T09:58:07.800Z</time>
      </trkpt>
      <trkpt lat="46.91554" lon="8.65686">
        <ele>1441</ele>
        <time>2021-08-07T09:58:08.800Z</time>
      </trkpt>
      <trkpt lat="46.91553" lon="8.65685">
        <ele>1440</ele>
        <time>2021-08-07T09:58:09.800Z</time>
      </trkpt>
      <trkpt lat="46.91553" lon="8.65685">
        <ele>1439</ele>
        <time>2021-08-07T09:58:10.799Z</time>
      </trkpt>
      <trkpt lat="46.91552" lon="8.65684">
        <ele>1439</ele>
        <time>2021-08-07T09:58:11.800Z</time>
      </trkpt>
      <trkpt lat="46.91551" lon="8.65683">
        <ele>1438</ele>
        <time>2021-08-07T09:58:12.800Z</time>
      </trkpt>
      <trkpt lat="46.91552" lon="8.65682">
        <ele>1438</ele>
        <time>2021-08-07T09:58:13.800Z</time>
      </trkpt>
      <trkpt lat="46.91551" lon="8.6568">
        <ele>1437</ele>
        <time>2021-08-07T09:58:21.820Z</time>
      </trkpt>
      <trkpt lat="46.9155" lon="8.65679">
        <ele>1437</ele>
        <time>2021-08-07T09:58:22.820Z</time>
      </trkpt>
      <trkpt lat="46.91548" lon="8.65677">
        <ele>1437</ele>
        <time>2021-08-07T09:58:23.820Z</time>
      </trkpt>
      <trkpt lat="46.91547" lon="8.65676">
        <ele>1436</ele>
        <time>2021-08-07T09:58:30.734Z</time>
      </trkpt>
      <trkpt lat="46.91548" lon="8.65676">
        <ele>1436</ele>
        <time>2021-08-07T09:58:31.735Z</time>
      </trkpt>
      <trkpt lat="46.91549" lon="8.65675">
        <ele>1435</ele>
        <time>2021-08-07T09:58:32.735Z</time>
      </trkpt>
      <trkpt lat="46.91549" lon="8.65675">
        <ele>1435</ele>
        <time>2021-08-07T09:58:33.734Z</time>
      </trkpt>
      <trkpt lat="46.91549" lon="8.65674">
        <ele>1434</ele>
        <time>2021-08-07T09:58:34.734Z</time>
      </trkpt>
      <trkpt lat="46.9155" lon="8.65673">
        <ele>1429</ele>
        <time>2021-08-07T09:58:35.735Z</time>
      </trkpt>
      <trkpt lat="46.91551" lon="8.65673">
        <ele>1429</ele>
        <time>2021-08-07T09:58:36.735Z</time>
      </trkpt>
      <trkpt lat="46.91551" lon="8.65672">
        <ele>1428</ele>
        <time>2021-08-07T09:58:39.811Z</time>
      </trkpt>
      <trkpt lat="46.91551" lon="8.65672">
        <ele>1428</ele>
        <time>2021-08-07T09:58:40.812Z</time>
      </trkpt>
      <trkpt lat="46.91551" lon="8.65671">
        <ele>1428</ele>
        <time>2021-08-07T09:58:41.812Z</time>
      </trkpt>
      <trkpt lat="46.9155" lon="8.65669">
        <ele>1428</ele>
        <time>2021-08-07T09:58:42.811Z</time>
      </trkpt>
      <trkpt lat="46.91549" lon="8.65667">
        <ele>1427</ele>
        <time>2021-08-07T09:58:43.812Z</time>
      </trkpt>
      <trkpt lat="46.91549" lon="8.65667">
        <ele>1427</ele>
        <time>2021-08-07T09:58:44.811Z</time>
      </trkpt>
      <trkpt lat="46.91548" lon="8.65665">
        <ele>1427</ele>
        <time>2021-08-07T09:58:45.812Z</time>
      </trkpt>
      <trkpt lat="46.91547" lon="8.65664">
        <ele>1426</ele>
        <time>2021-08-07T09:58:46.812Z</time>
      </trkpt>
      <trkpt lat="46.91546" lon="8.65663">
        <ele>1426</ele>
        <time>2021-08-07T09:58:47.811Z</time>
      </trkpt>
      <trkpt lat="46.91546" lon="8.65661">
        <ele>1425</ele>
        <time>2021-08-07T09:58:48.812Z</time>
      </trkpt>
      <trkpt lat="46.91545" lon="8.65659">
        <ele>1424</ele>
        <time>2021-08-07T09:58:49.812Z</time>
      </trkpt>
      <trkpt lat="46.91545" lon="8.65657">
        <ele>1424</ele>
        <time>2021-08-07T09:58:50.812Z</time>
      </trkpt>
      <trkpt lat="46.91544" lon="8.65655">
        <ele>1424</ele>
        <time>2021-08-07T09:58:51.812Z</time>
      </trkpt>
      <trkpt lat="46.91544" lon="8.65653">
        <ele>1424</ele>
        <time>2021-08-07T09:58:52.812Z</time>
      </trkpt>
      <trkpt lat="46.91544" lon="8.65651">
        <ele>1424</ele>
        <time>2021-08-07T09:58:53.812Z</time>
      </trkpt>
      <trkpt lat="46.91544" lon="8.65649">
        <ele>1424</ele>
        <time>2021-08-07T09:58:54.811Z</time>
      </trkpt>
      <trkpt lat="46.91543" lon="8.65649">
        <ele>1424</ele>
        <time>2021-08-07T09:58:55.812Z</time>
      </trkpt>
      <trkpt lat="46.91543" lon="8.65648">
        <ele>1424</ele>
        <time>2021-08-07T09:58:56.811Z</time>
      </trkpt>
      <trkpt lat="46.91542" lon="8.65648">
        <ele>1424</ele>
        <time>2021-08-07T09:58:57.812Z</time>
      </trkpt>
      <trkpt lat="46.91541" lon="8.65647">
        <ele>1425</ele>
        <time>2021-08-07T09:58:58.811Z</time>
      </trkpt>
      <trkpt lat="46.9154" lon="8.65646">
        <ele>1425</ele>
        <time>2021-08-07T09:58:59.812Z</time>
      </trkpt>
      <trkpt lat="46.91539" lon="8.65645">
        <ele>1424</ele>
        <time>2021-08-07T09:59:06.960Z</time>
      </trkpt>
      <trkpt lat="46.91537" lon="8.65645">
        <ele>1424</ele>
        <time>2021-08-07T09:59:07.960Z</time>
      </trkpt>
      <trkpt lat="46.91536" lon="8.65645">
        <ele>1424</ele>
        <time>2021-08-07T09:59:08.959Z</time>
      </trkpt>
      <trkpt lat="46.91535" lon="8.65645">
        <ele>1424</ele>
        <time>2021-08-07T09:59:14.982Z</time>
      </trkpt>
      <trkpt lat="46.91535" lon="8.65644">
        <ele>1423</ele>
        <time>2021-08-07T09:59:15.983Z</time>
      </trkpt>
      <trkpt lat="46.91534" lon="8.65643">
        <ele>1423</ele>
        <time>2021-08-07T09:59:16.983Z</time>
      </trkpt>
      <trkpt lat="46.91533" lon="8.65643">
        <ele>1422</ele>
        <time>2021-08-07T09:59:17.983Z</time>
      </trkpt>
      <trkpt lat="46.91533" lon="8.65643">
        <ele>1422</ele>
        <time>2021-08-07T09:59:18.983Z</time>
      </trkpt>
      <trkpt lat="46.91533" lon="8.65642">
        <ele>1421</ele>
        <time>2021-08-07T09:59:23.077Z</time>
      </trkpt>
      <trkpt lat="46.91533" lon="8.65642">
        <ele>1420</ele>
        <time>2021-08-07T09:59:24.078Z</time>
      </trkpt>
      <trkpt lat="46.91535" lon="8.65643">
        <ele>1419</ele>
        <time>2021-08-07T09:59:25.079Z</time>
      </trkpt>
      <trkpt lat="46.91535" lon="8.65641">
        <ele>1419</ele>
        <time>2021-08-07T09:59:29.225Z</time>
      </trkpt>
      <trkpt lat="46.91535" lon="8.6564">
        <ele>1418</ele>
        <time>2021-08-07T09:59:33.063Z</time>
      </trkpt>
      <trkpt lat="46.91534" lon="8.65639">
        <ele>1418</ele>
        <time>2021-08-07T09:59:34.064Z</time>
      </trkpt>
      <trkpt lat="46.91534" lon="8.65638">
        <ele>1418</ele>
        <time>2021-08-07T09:59:35.064Z</time>
      </trkpt>
      <trkpt lat="46.91534" lon="8.65637">
        <ele>1418</ele>
        <time>2021-08-07T09:59:36.063Z</time>
      </trkpt>
      <trkpt lat="46.91535" lon="8.65634">
        <ele>1419</ele>
        <time>2021-08-07T09:59:37.065Z</time>
      </trkpt>
      <trkpt lat="46.91536" lon="8.65634">
        <ele>1419</ele>
        <time>2021-08-07T09:59:38.065Z</time>
      </trkpt>
      <trkpt lat="46.91536" lon="8.65635">
        <ele>1419</ele>
        <time>2021-08-07T09:59:39.064Z</time>
      </trkpt>
      <trkpt lat="46.91537" lon="8.65635">
        <ele>1419</ele>
        <time>2021-08-07T09:59:59.205Z</time>
      </trkpt>
      <trkpt lat="46.91537" lon="8.65635">
        <ele>1419</ele>
        <time>2021-08-07T10:00:00.206Z</time>
      </trkpt>
      <trkpt lat="46.91538" lon="8.65635">
        <ele>1420</ele>
        <time>2021-08-07T10:00:01.205Z</time>
      </trkpt>
      <trkpt lat="46.91538" lon="8.65635">
        <ele>1420</ele>
        <time>2021-08-07T10:00:02.206Z</time>
      </trkpt>
      <trkpt lat="46.91539" lon="8.65634">
        <ele>1420</ele>
        <time>2021-08-07T10:00:03.206Z</time>
      </trkpt>
      <trkpt lat="46.9154" lon="8.65633">
        <ele>1420</ele>
        <time>2021-08-07T10:00:04.205Z</time>
      </trkpt>
      <trkpt lat="46.91539" lon="8.65631">
        <ele>1420</ele>
        <time>2021-08-07T10:00:05.206Z</time>
      </trkpt>
      <trkpt lat="46.91539" lon="8.65629">
        <ele>1420</ele>
        <time>2021-08-07T10:00:06.206Z</time>
      </trkpt>
      <trkpt lat="46.91539" lon="8.65628">
        <ele>1420</ele>
        <time>2021-08-07T10:00:07.206Z</time>
      </trkpt>
      <trkpt lat="46.91539" lon="8.65626">
        <ele>1420</ele>
        <time>2021-08-07T10:00:08.206Z</time>
      </trkpt>
      <trkpt lat="46.91538" lon="8.65625">
        <ele>1420</ele>
        <time>2021-08-07T10:00:09.206Z</time>
      </trkpt>
      <trkpt lat="46.91538" lon="8.65623">
        <ele>1420</ele>
        <time>2021-08-07T10:00:10.205Z</time>
      </trkpt>
      <trkpt lat="46.91538" lon="8.65622">
        <ele>1420</ele>
        <time>2021-08-07T10:00:11.206Z</time>
      </trkpt>
      <trkpt lat="46.91537" lon="8.65622">
        <ele>1420</ele>
        <time>2021-08-07T10:00:12.206Z</time>
      </trkpt>
      <trkpt lat="46.91536" lon="8.6562">
        <ele>1419</ele>
        <time>2021-08-07T10:00:13.205Z</time>
      </trkpt>
      <trkpt lat="46.91535" lon="8.65619">
        <ele>1419</ele>
        <time>2021-08-07T10:00:14.205Z</time>
      </trkpt>
      <trkpt lat="46.91535" lon="8.65618">
        <ele>1419</ele>
        <time>2021-08-07T10:00:15.206Z</time>
      </trkpt>
      <trkpt lat="46.91535" lon="8.65617">
        <ele>1419</ele>
        <time>2021-08-07T10:00:16.206Z</time>
      </trkpt>
      <trkpt lat="46.91535" lon="8.65616">
        <ele>1418</ele>
        <time>2021-08-07T10:00:17.206Z</time>
      </trkpt>
      <trkpt lat="46.91535" lon="8.65616">
        <ele>1418</ele>
        <time>2021-08-07T10:00:18.207Z</time>
      </trkpt>
      <trkpt lat="46.91536" lon="8.65617">
        <ele>1418</ele>
        <time>2021-08-07T10:00:19.206Z</time>
      </trkpt>
      <trkpt lat="46.91536" lon="8.65617">
        <ele>1418</ele>
        <time>2021-08-07T10:00:20.206Z</time>
      </trkpt>
      <trkpt lat="46.91537" lon="8.65617">
        <ele>1419</ele>
        <time>2021-08-07T10:00:21.206Z</time>
      </trkpt>
      <trkpt lat="46.91537" lon="8.65616">
        <ele>1419</ele>
        <time>2021-08-07T10:00:22.206Z</time>
      </trkpt>
      <trkpt lat="46.91537" lon="8.65615">
        <ele>1419</ele>
        <time>2021-08-07T10:00:23.206Z</time>
      </trkpt>
      <trkpt lat="46.91537" lon="8.65614">
        <ele>1419</ele>
        <time>2021-08-07T10:00:24.206Z</time>
      </trkpt>
      <trkpt lat="46.91537" lon="8.65614">
        <ele>1419</ele>
        <time>2021-08-07T10:00:25.206Z</time>
      </trkpt>
      <trkpt lat="46.91538" lon="8.65614">
        <ele>1419</ele>
        <time>2021-08-07T10:00:26.206Z</time>
      </trkpt>
      <trkpt lat="46.91538" lon="8.65614">
        <ele>1419</ele>
        <time>2021-08-07T10:00:27.207Z</time>
      </trkpt>
      <trkpt lat="46.91539" lon="8.65613">
        <ele>1418</ele>
        <time>2021-08-07T10:00:28.207Z</time>
      </trkpt>
      <trkpt lat="46.9154" lon="8.65613">
        <ele>1418</ele>
        <time>2021-08-07T10:00:29.206Z</time>
      </trkpt>
      <trkpt lat="46.9154" lon="8.65613">
        <ele>1418</ele>
        <time>2021-08-07T10:00:30.206Z</time>
      </trkpt>
      <trkpt lat="46.91539" lon="8.65613">
        <ele>1417</ele>
        <time>2021-08-07T10:00:31.206Z</time>
      </trkpt>
      <trkpt lat="46.9154" lon="8.65613">
        <ele>1417</ele>
        <time>2021-08-07T10:00:32.206Z</time>
      </trkpt>
      <trkpt lat="46.9154" lon="8.65612">
        <ele>1416</ele>
        <time>2021-08-07T10:00:33.207Z</time>
      </trkpt>
      <trkpt lat="46.91541" lon="8.65612">
        <ele>1416</ele>
        <time>2021-08-07T10:00:34.206Z</time>
      </trkpt>
      <trkpt lat="46.91542" lon="8.65611">
        <ele>1415</ele>
        <time>2021-08-07T10:00:35.206Z</time>
      </trkpt>
      <trkpt lat="46.91543" lon="8.65611">
        <ele>1414</ele>
        <time>2021-08-07T10:00:36.206Z</time>
      </trkpt>
      <trkpt lat="46.91544" lon="8.6561">
        <ele>1414</ele>
        <time>2021-08-07T10:00:37.206Z</time>
      </trkpt>
      <trkpt lat="46.91545" lon="8.6561">
        <ele>1414</ele>
        <time>2021-08-07T10:00:38.207Z</time>
      </trkpt>
      <trkpt lat="46.91546" lon="8.6561">
        <ele>1413</ele>
        <time>2021-08-07T10:00:39.206Z</time>
      </trkpt>
      <trkpt lat="46.91547" lon="8.65609">
        <ele>1413</ele>
        <time>2021-08-07T10:00:40.206Z</time>
      </trkpt>
      <trkpt lat="46.91547" lon="8.65609">
        <ele>1413</ele>
        <time>2021-08-07T10:00:41.206Z</time>
      </trkpt>
      <trkpt lat="46.91548" lon="8.65609">
        <ele>1413</ele>
        <time>2021-08-07T10:00:42.206Z</time>
      </trkpt>
      <trkpt lat="46.91549" lon="8.65609">
        <ele>1412</ele>
        <time>2021-08-07T10:00:43.207Z</time>
      </trkpt>
      <trkpt lat="46.91549" lon="8.65609">
        <ele>1412</ele>
        <time>2021-08-07T10:00:44.207Z</time>
      </trkpt>
      <trkpt lat="46.91548" lon="8.6561">
        <ele>1413</ele>
        <time>2021-08-07T10:00:45.207Z</time>
      </trkpt>
      <trkpt lat="46.91548" lon="8.65611">
        <ele>1413</ele>
        <time>2021-08-07T10:00:46.206Z</time>
      </trkpt>
      <trkpt lat="46.91549" lon="8.65611">
        <ele>1413</ele>
        <time>2021-08-07T10:00:47.207Z</time>
      </trkpt>
      <trkpt lat="46.91551" lon="8.65611">
        <ele>1413</ele>
        <time>2021-08-07T10:00:48.206Z</time>
      </trkpt>
      <trkpt lat="46.91552" lon="8.6561">
        <ele>1413</ele>
        <time>2021-08-07T10:00:49.206Z</time>
      </trkpt>
      <trkpt lat="46.91553" lon="8.65608">
        <ele>1413</ele>
        <time>2021-08-07T10:00:50.206Z</time>
      </trkpt>
      <trkpt lat="46.91553" lon="8.65606">
        <ele>1413</ele>
        <time>2021-08-07T10:00:51.206Z</time>
      </trkpt>
      <trkpt lat="46.91553" lon="8.65605">
        <ele>1413</ele>
        <time>2021-08-07T10:00:52.206Z</time>
      </trkpt>
      <trkpt lat="46.91553" lon="8.65603">
        <ele>1413</ele>
        <time>2021-08-07T10:00:53.206Z</time>
      </trkpt>
      <trkpt lat="46.91553" lon="8.65602">
        <ele>1413</ele>
        <time>2021-08-07T10:00:54.206Z</time>
      </trkpt>
      <trkpt lat="46.91553" lon="8.65601">
        <ele>1413</ele>
        <time>2021-08-07T10:00:55.206Z</time>
      </trkpt>
      <trkpt lat="46.91553" lon="8.656">
        <ele>1413</ele>
        <time>2021-08-07T10:00:56.206Z</time>
      </trkpt>
      <trkpt lat="46.91553" lon="8.65599">
        <ele>1413</ele>
        <time>2021-08-07T10:00:57.207Z</time>
      </trkpt>
      <trkpt lat="46.91553" lon="8.65599">
        <ele>1413</ele>
        <time>2021-08-07T10:00:58.207Z</time>
      </trkpt>
      <trkpt lat="46.91553" lon="8.65598">
        <ele>1412</ele>
        <time>2021-08-07T10:00:59.206Z</time>
      </trkpt>
      <trkpt lat="46.91553" lon="8.65596">
        <ele>1412</ele>
        <time>2021-08-07T10:01:00.206Z</time>
      </trkpt>
      <trkpt lat="46.91553" lon="8.65595">
        <ele>1412</ele>
        <time>2021-08-07T10:01:01.206Z</time>
      </trkpt>
      <trkpt lat="46.91554" lon="8.65594">
        <ele>1411</ele>
        <time>2021-08-07T10:01:02.206Z</time>
      </trkpt>
      <trkpt lat="46.91554" lon="8.65593">
        <ele>1411</ele>
        <time>2021-08-07T10:01:03.207Z</time>
      </trkpt>
      <trkpt lat="46.91554" lon="8.65592">
        <ele>1411</ele>
        <time>2021-08-07T10:01:04.206Z</time>
      </trkpt>
      <trkpt lat="46.91555" lon="8.65591">
        <ele>1411</ele>
        <time>2021-08-07T10:01:05.206Z</time>
      </trkpt>
      <trkpt lat="46.91555" lon="8.6559">
        <ele>1410</ele>
        <time>2021-08-07T10:01:06.206Z</time>
      </trkpt>
      <trkpt lat="46.91556" lon="8.65589">
        <ele>1410</ele>
        <time>2021-08-07T10:01:07.206Z</time>
      </trkpt>
      <trkpt lat="46.91556" lon="8.65588">
        <ele>1409</ele>
        <time>2021-08-07T10:01:08.207Z</time>
      </trkpt>
      <trkpt lat="46.91556" lon="8.65587">
        <ele>1408</ele>
        <time>2021-08-07T10:01:09.206Z</time>
      </trkpt>
      <trkpt lat="46.91556" lon="8.65587">
        <ele>1408</ele>
        <time>2021-08-07T10:01:10.206Z</time>
      </trkpt>
      <trkpt lat="46.91556" lon="8.65586">
        <ele>1407</ele>
        <time>2021-08-07T10:01:11.206Z</time>
      </trkpt>
      <trkpt lat="46.91555" lon="8.65577">
        <ele>1406</ele>
        <time>2021-08-07T10:01:12.208Z</time>
      </trkpt>
      <trkpt lat="46.91555" lon="8.65577">
        <ele>1406</ele>
        <time>2021-08-07T10:01:13.207Z</time>
      </trkpt>
      <trkpt lat="46.91555" lon="8.65577">
        <ele>1406</ele>
        <time>2021-08-07T10:01:14.208Z</time>
      </trkpt>
      <trkpt lat="46.91555" lon="8.65578">
        <ele>1406</ele>
        <time>2021-08-07T10:01:15.207Z</time>
      </trkpt>
      <trkpt lat="46.91555" lon="8.65579">
        <ele>1406</ele>
        <time>2021-08-07T10:01:16.207Z</time>
      </trkpt>
      <trkpt lat="46.91555" lon="8.65579">
        <ele>1406</ele>
        <time>2021-08-07T10:01:17.207Z</time>
      </trkpt>
      <trkpt lat="46.91555" lon="8.6558">
        <ele>1405</ele>
        <time>2021-08-07T10:01:18.208Z</time>
      </trkpt>
      <trkpt lat="46.91555" lon="8.65581">
        <ele>1405</ele>
        <time>2021-08-07T10:01:19.207Z</time>
      </trkpt>
      <trkpt lat="46.91555" lon="8.65581">
        <ele>1404</ele>
        <time>2021-08-07T10:01:20.208Z</time>
      </trkpt>
      <trkpt lat="46.91555" lon="8.65581">
        <ele>1404</ele>
        <time>2021-08-07T10:01:21.208Z</time>
      </trkpt>
      <trkpt lat="46.91555" lon="8.6558">
        <ele>1403</ele>
        <time>2021-08-07T10:01:22.208Z</time>
      </trkpt>
      <trkpt lat="46.91554" lon="8.65581">
        <ele>1403</ele>
        <time>2021-08-07T10:01:23.208Z</time>
      </trkpt>
      <trkpt lat="46.91553" lon="8.65579">
        <ele>1399</ele>
        <time>2021-08-07T10:01:24.208Z</time>
      </trkpt>
      <trkpt lat="46.91553" lon="8.65579">
        <ele>1399</ele>
        <time>2021-08-07T10:01:25.208Z</time>
      </trkpt>
      <trkpt lat="46.91553" lon="8.65579">
        <ele>1398</ele>
        <time>2021-08-07T10:01:26.208Z</time>
      </trkpt>
      <trkpt lat="46.91553" lon="8.65578">
        <ele>1398</ele>
        <time>2021-08-07T10:01:27.208Z</time>
      </trkpt>
      <trkpt lat="46.91553" lon="8.65578">
        <ele>1397</ele>
        <time>2021-08-07T10:01:28.208Z</time>
      </trkpt>
      <trkpt lat="46.91553" lon="8.65576">
        <ele>1397</ele>
        <time>2021-08-07T10:01:29.208Z</time>
      </trkpt>
      <trkpt lat="46.91554" lon="8.65576">
        <ele>1397</ele>
        <time>2021-08-07T10:01:30.208Z</time>
      </trkpt>
      <trkpt lat="46.91554" lon="8.65573">
        <ele>1396</ele>
        <time>2021-08-07T10:01:31.208Z</time>
      </trkpt>
      <trkpt lat="46.91553" lon="8.65572">
        <ele>1396</ele>
        <time>2021-08-07T10:01:32.208Z</time>
      </trkpt>
      <trkpt lat="46.91552" lon="8.65572">
        <ele>1396</ele>
        <time>2021-08-07T10:01:33.208Z</time>
      </trkpt>
      <trkpt lat="46.91551" lon="8.65571">
        <ele>1397</ele>
        <time>2021-08-07T10:01:34.208Z</time>
      </trkpt>
      <trkpt lat="46.91549" lon="8.65572">
        <ele>1397</ele>
        <time>2021-08-07T10:01:35.208Z</time>
      </trkpt>
      <trkpt lat="46.91548" lon="8.65572">
        <ele>1397</ele>
        <time>2021-08-07T10:01:36.208Z</time>
      </trkpt>
      <trkpt lat="46.91546" lon="8.65573">
        <ele>1398</ele>
        <time>2021-08-07T10:01:37.208Z</time>
      </trkpt>
      <trkpt lat="46.91545" lon="8.65573">
        <ele>1398</ele>
        <time>2021-08-07T10:01:38.208Z</time>
      </trkpt>
      <trkpt lat="46.91544" lon="8.65572">
        <ele>1398</ele>
        <time>2021-08-07T10:01:39.208Z</time>
      </trkpt>
      <trkpt lat="46.91545" lon="8.65571">
        <ele>1398</ele>
        <time>2021-08-07T10:01:40.208Z</time>
      </trkpt>
      <trkpt lat="46.91546" lon="8.65571">
        <ele>1398</ele>
        <time>2021-08-07T10:01:41.208Z</time>
      </trkpt>
      <trkpt lat="46.91547" lon="8.65571">
        <ele>1399</ele>
        <time>2021-08-07T10:01:42.208Z</time>
      </trkpt>
      <trkpt lat="46.91548" lon="8.65571">
        <ele>1399</ele>
        <time>2021-08-07T10:01:43.208Z</time>
      </trkpt>
      <trkpt lat="46.91547" lon="8.65571">
        <ele>1399</ele>
        <time>2021-08-07T10:01:44.208Z</time>
      </trkpt>
      <trkpt lat="46.91547" lon="8.6557">
        <ele>1399</ele>
        <time>2021-08-07T10:01:45.208Z</time>
      </trkpt>
      <trkpt lat="46.91547" lon="8.6557">
        <ele>1399</ele>
        <time>2021-08-07T10:01:46.208Z</time>
      </trkpt>
      <trkpt lat="46.91547" lon="8.6557">
        <ele>1398</ele>
        <time>2021-08-07T10:01:47.208Z</time>
      </trkpt>
      <trkpt lat="46.91549" lon="8.65569">
        <ele>1399</ele>
        <time>2021-08-07T10:01:48.208Z</time>
      </trkpt>
      <trkpt lat="46.91549" lon="8.65569">
        <ele>1399</ele>
        <time>2021-08-07T10:01:49.208Z</time>
      </trkpt>
      <trkpt lat="46.9155" lon="8.6557">
        <ele>1399</ele>
        <time>2021-08-07T10:01:50.208Z</time>
      </trkpt>
      <trkpt lat="46.9155" lon="8.6557">
        <ele>1399</ele>
        <time>2021-08-07T10:01:51.209Z</time>
      </trkpt>
      <trkpt lat="46.91549" lon="8.65571">
        <ele>1399</ele>
        <time>2021-08-07T10:01:52.208Z</time>
      </trkpt>
      <trkpt lat="46.91549" lon="8.65571">
        <ele>1399</ele>
        <time>2021-08-07T10:01:53.208Z</time>
      </trkpt>
      <trkpt lat="46.91548" lon="8.65571">
        <ele>1399</ele>
        <time>2021-08-07T10:01:54.209Z</time>
      </trkpt>
      <trkpt lat="46.91547" lon="8.65571">
        <ele>1399</ele>
        <time>2021-08-07T10:01:55.209Z</time>
      </trkpt>
      <trkpt lat="46.91547" lon="8.65572">
        <ele>1398</ele>
        <time>2021-08-07T10:01:56.208Z</time>
      </trkpt>
      <trkpt lat="46.91546" lon="8.65572">
        <ele>1398</ele>
        <time>2021-08-07T10:01:57.208Z</time>
      </trkpt>
      <trkpt lat="46.91546" lon="8.65573">
        <ele>1398</ele>
        <time>2021-08-07T10:01:58.209Z</time>
      </trkpt>
      <trkpt lat="46.91547" lon="8.65573">
        <ele>1397</ele>
        <time>2021-08-07T10:01:59.209Z</time>
      </trkpt>
      <trkpt lat="46.91547" lon="8.65574">
        <ele>1397</ele>
        <time>2021-08-07T10:02:00.209Z</time>
      </trkpt>
      <trkpt lat="46.91547" lon="8.65573">
        <ele>1397</ele>
        <time>2021-08-07T10:02:01.208Z</time>
      </trkpt>
      <trkpt lat="46.91546" lon="8.65574">
        <ele>1396</ele>
        <time>2021-08-07T10:02:02.208Z</time>
      </trkpt>
      <trkpt lat="46.91546" lon="8.65574">
        <ele>1396</ele>
        <time>2021-08-07T10:02:03.209Z</time>
      </trkpt>
      <trkpt lat="46.91547" lon="8.65574">
        <ele>1396</ele>
        <time>2021-08-07T10:02:04.208Z</time>
      </trkpt>
      <trkpt lat="46.91547" lon="8.65574">
        <ele>1396</ele>
        <time>2021-08-07T10:02:05.208Z</time>
      </trkpt>
      <trkpt lat="46.91548" lon="8.65575">
        <ele>1395</ele>
        <time>2021-08-07T10:02:06.208Z</time>
      </trkpt>
      <trkpt lat="46.91548" lon="8.65575">
        <ele>1395</ele>
        <time>2021-08-07T10:02:07.209Z</time>
      </trkpt>
      <trkpt lat="46.91548" lon="8.65575">
        <ele>1395</ele>
        <time>2021-08-07T10:02:08.208Z</time>
      </trkpt>
      <trkpt lat="46.91548" lon="8.65576">
        <ele>1395</ele>
        <time>2021-08-07T10:02:09.209Z</time>
      </trkpt>
      <trkpt lat="46.91548" lon="8.65576">
        <ele>1394</ele>
        <time>2021-08-07T10:02:10.208Z</time>
      </trkpt>
      <trkpt lat="46.91549" lon="8.65576">
        <ele>1394</ele>
        <time>2021-08-07T10:02:11.208Z</time>
      </trkpt>
      <trkpt lat="46.91549" lon="8.65575">
        <ele>1394</ele>
        <time>2021-08-07T10:02:12.208Z</time>
      </trkpt>
      <trkpt lat="46.91549" lon="8.65581">
        <ele>1398</ele>
        <time>2021-08-07T10:02:13.209Z</time>
      </trkpt>
      <trkpt lat="46.91548" lon="8.65581">
        <ele>1399</ele>
        <time>2021-08-07T10:02:14.209Z</time>
      </trkpt>
      <trkpt lat="46.91548" lon="8.65581">
        <ele>1399</ele>
        <time>2021-08-07T10:02:15.208Z</time>
      </trkpt>
      <trkpt lat="46.91548" lon="8.65581">
        <ele>1399</ele>
        <time>2021-08-07T10:02:16.208Z</time>
      </trkpt>
      <trkpt lat="46.91547" lon="8.65581">
        <ele>1400</ele>
        <time>2021-08-07T10:02:17.209Z</time>
      </trkpt>
      <trkpt lat="46.91547" lon="8.65583">
        <ele>1398</ele>
        <time>2021-08-07T10:02:18.208Z</time>
      </trkpt>
      <trkpt lat="46.91547" lon="8.65583">
        <ele>1397</ele>
        <time>2021-08-07T10:02:19.208Z</time>
      </trkpt>
      <trkpt lat="46.91547" lon="8.65583">
        <ele>1396</ele>
        <time>2021-08-07T10:02:20.209Z</time>
      </trkpt>
      <trkpt lat="46.91547" lon="8.65583">
        <ele>1395</ele>
        <time>2021-08-07T10:02:21.209Z</time>
      </trkpt>
      <trkpt lat="46.91548" lon="8.65581">
        <ele>1396</ele>
        <time>2021-08-07T10:02:22.210Z</time>
      </trkpt>
      <trkpt lat="46.91548" lon="8.6558">
        <ele>1396</ele>
        <time>2021-08-07T10:02:23.210Z</time>
      </trkpt>
      <trkpt lat="46.9155" lon="8.65577">
        <ele>1399</ele>
        <time>2021-08-07T10:02:24.211Z</time>
      </trkpt>
      <trkpt lat="46.9155" lon="8.65576">
        <ele>1400</ele>
        <time>2021-08-07T10:02:25.210Z</time>
      </trkpt>
      <trkpt lat="46.9155" lon="8.65575">
        <ele>1400</ele>
        <time>2021-08-07T10:02:49.201Z</time>
      </trkpt>
      <trkpt lat="46.91546" lon="8.6557">
        <ele>1402</ele>
        <time>2021-08-07T10:02:50.202Z</time>
      </trkpt>
      <trkpt lat="46.91545" lon="8.6557">
        <ele>1403</ele>
        <time>2021-08-07T10:02:51.201Z</time>
      </trkpt>
      <trkpt lat="46.91544" lon="8.65569">
        <ele>1403</ele>
        <time>2021-08-07T10:03:08.198Z</time>
      </trkpt>
      <trkpt lat="46.91543" lon="8.6557">
        <ele>1403</ele>
        <time>2021-08-07T10:03:15.092Z</time>
      </trkpt>
      <trkpt lat="46.91543" lon="8.6557">
        <ele>1403</ele>
        <time>2021-08-07T10:03:16.092Z</time>
      </trkpt>
      <trkpt lat="46.91542" lon="8.6557">
        <ele>1403</ele>
        <time>2021-08-07T10:03:17.092Z</time>
      </trkpt>
      <trkpt lat="46.91542" lon="8.6557">
        <ele>1403</ele>
        <time>2021-08-07T10:03:18.091Z</time>
      </trkpt>
      <trkpt lat="46.91542" lon="8.65571">
        <ele>1403</ele>
        <time>2021-08-07T10:03:19.091Z</time>
      </trkpt>
      <trkpt lat="46.91541" lon="8.65571">
        <ele>1402</ele>
        <time>2021-08-07T10:03:20.091Z</time>
      </trkpt>
      <trkpt lat="46.9154" lon="8.65571">
        <ele>1402</ele>
        <time>2021-08-07T10:03:21.091Z</time>
      </trkpt>
      <trkpt lat="46.9154" lon="8.6557">
        <ele>1402</ele>
        <time>2021-08-07T10:03:22.091Z</time>
      </trkpt>
      <trkpt lat="46.9154" lon="8.6557">
        <ele>1402</ele>
        <time>2021-08-07T10:03:23.092Z</time>
      </trkpt>
      <trkpt lat="46.9154" lon="8.65569">
        <ele>1401</ele>
        <time>2021-08-07T10:03:24.091Z</time>
      </trkpt>
      <trkpt lat="46.91539" lon="8.65568">
        <ele>1401</ele>
        <time>2021-08-07T10:03:25.091Z</time>
      </trkpt>
      <trkpt lat="46.91539" lon="8.65568">
        <ele>1401</ele>
        <time>2021-08-07T10:03:26.091Z</time>
      </trkpt>
      <trkpt lat="46.9154" lon="8.65567">
        <ele>1401</ele>
        <time>2021-08-07T10:03:27.091Z</time>
      </trkpt>
      <trkpt lat="46.9154" lon="8.65566">
        <ele>1400</ele>
        <time>2021-08-07T10:03:28.091Z</time>
      </trkpt>
      <trkpt lat="46.91541" lon="8.65564">
        <ele>1400</ele>
        <time>2021-08-07T10:03:29.091Z</time>
      </trkpt>
      <trkpt lat="46.91543" lon="8.65563">
        <ele>1400</ele>
        <time>2021-08-07T10:03:30.091Z</time>
      </trkpt>
      <trkpt lat="46.91543" lon="8.65563">
        <ele>1400</ele>
        <time>2021-08-07T10:03:31.091Z</time>
      </trkpt>
      <trkpt lat="46.91544" lon="8.65562">
        <ele>1400</ele>
        <time>2021-08-07T10:03:32.092Z</time>
      </trkpt>
      <trkpt lat="46.91544" lon="8.65562">
        <ele>1399</ele>
        <time>2021-08-07T10:03:33.091Z</time>
      </trkpt>
      <trkpt lat="46.91545" lon="8.65562">
        <ele>1399</ele>
        <time>2021-08-07T10:03:34.091Z</time>
      </trkpt>
      <trkpt lat="46.91545" lon="8.65561">
        <ele>1398</ele>
        <time>2021-08-07T10:03:35.091Z</time>
      </trkpt>
      <trkpt lat="46.91546" lon="8.65561">
        <ele>1398</ele>
        <time>2021-08-07T10:03:36.091Z</time>
      </trkpt>
      <trkpt lat="46.91547" lon="8.6556">
        <ele>1398</ele>
        <time>2021-08-07T10:03:37.091Z</time>
      </trkpt>
      <trkpt lat="46.91548" lon="8.6556">
        <ele>1397</ele>
        <time>2021-08-07T10:03:38.091Z</time>
      </trkpt>
      <trkpt lat="46.91548" lon="8.65558">
        <ele>1397</ele>
        <time>2021-08-07T10:03:39.092Z</time>
      </trkpt>
      <trkpt lat="46.91548" lon="8.65557">
        <ele>1397</ele>
        <time>2021-08-07T10:03:40.091Z</time>
      </trkpt>
      <trkpt lat="46.91548" lon="8.65556">
        <ele>1396</ele>
        <time>2021-08-07T10:03:41.091Z</time>
      </trkpt>
      <trkpt lat="46.91547" lon="8.65554">
        <ele>1396</ele>
        <time>2021-08-07T10:03:42.091Z</time>
      </trkpt>
      <trkpt lat="46.91548" lon="8.65553">
        <ele>1396</ele>
        <time>2021-08-07T10:03:43.091Z</time>
      </trkpt>
      <trkpt lat="46.91548" lon="8.65552">
        <ele>1396</ele>
        <time>2021-08-07T10:03:44.091Z</time>
      </trkpt>
      <trkpt lat="46.91549" lon="8.65551">
        <ele>1396</ele>
        <time>2021-08-07T10:03:45.091Z</time>
      </trkpt>
      <trkpt lat="46.9155" lon="8.65552">
        <ele>1396</ele>
        <time>2021-08-07T10:03:46.091Z</time>
      </trkpt>
      <trkpt lat="46.91551" lon="8.65552">
        <ele>1396</ele>
        <time>2021-08-07T10:03:47.091Z</time>
      </trkpt>
      <trkpt lat="46.91552" lon="8.65553">
        <ele>1396</ele>
        <time>2021-08-07T10:03:48.092Z</time>
      </trkpt>
      <trkpt lat="46.91552" lon="8.65552">
        <ele>1396</ele>
        <time>2021-08-07T10:03:49.092Z</time>
      </trkpt>
      <trkpt lat="46.91552" lon="8.65551">
        <ele>1395</ele>
        <time>2021-08-07T10:03:50.091Z</time>
      </trkpt>
      <trkpt lat="46.91553" lon="8.6555">
        <ele>1395</ele>
        <time>2021-08-07T10:03:51.092Z</time>
      </trkpt>
      <trkpt lat="46.91554" lon="8.65549">
        <ele>1394</ele>
        <time>2021-08-07T10:03:52.092Z</time>
      </trkpt>
      <trkpt lat="46.91554" lon="8.65548">
        <ele>1394</ele>
        <time>2021-08-07T10:03:53.091Z</time>
      </trkpt>
      <trkpt lat="46.91555" lon="8.65547">
        <ele>1394</ele>
        <time>2021-08-07T10:03:54.092Z</time>
      </trkpt>
      <trkpt lat="46.91555" lon="8.65546">
        <ele>1394</ele>
        <time>2021-08-07T10:03:55.092Z</time>
      </trkpt>
      <trkpt lat="46.91556" lon="8.65546">
        <ele>1394</ele>
        <time>2021-08-07T10:03:56.092Z</time>
      </trkpt>
      <trkpt lat="46.91557" lon="8.65545">
        <ele>1394</ele>
        <time>2021-08-07T10:03:57.091Z</time>
      </trkpt>
      <trkpt lat="46.91557" lon="8.65544">
        <ele>1394</ele>
        <time>2021-08-07T10:03:58.092Z</time>
      </trkpt>
      <trkpt lat="46.91558" lon="8.65543">
        <ele>1394</ele>
        <time>2021-08-07T10:03:59.092Z</time>
      </trkpt>
      <trkpt lat="46.91559" lon="8.65542">
        <ele>1394</ele>
        <time>2021-08-07T10:04:00.091Z</time>
      </trkpt>
      <trkpt lat="46.9156" lon="8.65541">
        <ele>1394</ele>
        <time>2021-08-07T10:04:01.091Z</time>
      </trkpt>
      <trkpt lat="46.9156" lon="8.65541">
        <ele>1395</ele>
        <time>2021-08-07T10:04:02.092Z</time>
      </trkpt>
      <trkpt lat="46.91561" lon="8.65541">
        <ele>1395</ele>
        <time>2021-08-07T10:04:03.091Z</time>
      </trkpt>
      <trkpt lat="46.91563" lon="8.65542">
        <ele>1395</ele>
        <time>2021-08-07T10:04:04.092Z</time>
      </trkpt>
      <trkpt lat="46.91564" lon="8.65542">
        <ele>1396</ele>
        <time>2021-08-07T10:04:05.092Z</time>
      </trkpt>
      <trkpt lat="46.91565" lon="8.65543">
        <ele>1397</ele>
        <time>2021-08-07T10:04:06.092Z</time>
      </trkpt>
      <trkpt lat="46.91566" lon="8.65545">
        <ele>1398</ele>
        <time>2021-08-07T10:04:07.091Z</time>
      </trkpt>
      <trkpt lat="46.91567" lon="8.65545">
        <ele>1398</ele>
        <time>2021-08-07T10:04:08.092Z</time>
      </trkpt>
      <trkpt lat="46.91568" lon="8.65543">
        <ele>1399</ele>
        <time>2021-08-07T10:04:09.092Z</time>
      </trkpt>
      <trkpt lat="46.91567" lon="8.65542">
        <ele>1399</ele>
        <time>2021-08-07T10:04:10.092Z</time>
      </trkpt>
      <trkpt lat="46.91567" lon="8.65541">
        <ele>1399</ele>
        <time>2021-08-07T10:04:11.092Z</time>
      </trkpt>
      <trkpt lat="46.91566" lon="8.65539">
        <ele>1399</ele>
        <time>2021-08-07T10:04:12.091Z</time>
      </trkpt>
      <trkpt lat="46.91565" lon="8.65538">
        <ele>1399</ele>
        <time>2021-08-07T10:04:13.092Z</time>
      </trkpt>
      <trkpt lat="46.91565" lon="8.65538">
        <ele>1398</ele>
        <time>2021-08-07T10:04:14.092Z</time>
      </trkpt>
      <trkpt lat="46.91564" lon="8.65537">
        <ele>1398</ele>
        <time>2021-08-07T10:04:15.092Z</time>
      </trkpt>
      <trkpt lat="46.91564" lon="8.65537">
        <ele>1398</ele>
        <time>2021-08-07T10:04:16.092Z</time>
      </trkpt>
      <trkpt lat="46.91563" lon="8.65536">
        <ele>1397</ele>
        <time>2021-08-07T10:04:17.092Z</time>
      </trkpt>
      <trkpt lat="46.91563" lon="8.65536">
        <ele>1397</ele>
        <time>2021-08-07T10:04:18.092Z</time>
      </trkpt>
      <trkpt lat="46.91563" lon="8.65536">
        <ele>1397</ele>
        <time>2021-08-07T10:04:19.091Z</time>
      </trkpt>
      <trkpt lat="46.91563" lon="8.65535">
        <ele>1397</ele>
        <time>2021-08-07T10:04:20.092Z</time>
      </trkpt>
      <trkpt lat="46.91563" lon="8.65535">
        <ele>1396</ele>
        <time>2021-08-07T10:04:21.092Z</time>
      </trkpt>
      <trkpt lat="46.91564" lon="8.65534">
        <ele>1394</ele>
        <time>2021-08-07T10:04:22.093Z</time>
      </trkpt>
      <trkpt lat="46.91566" lon="8.65522">
        <ele>1381</ele>
        <time>2021-08-07T10:04:23.092Z</time>
      </trkpt>
      <trkpt lat="46.91566" lon="8.65521">
        <ele>1381</ele>
        <time>2021-08-07T10:04:24.093Z</time>
      </trkpt>
      <trkpt lat="46.91565" lon="8.65519">
        <ele>1380</ele>
        <time>2021-08-07T10:04:25.092Z</time>
      </trkpt>
      <trkpt lat="46.91564" lon="8.65518">
        <ele>1380</ele>
        <time>2021-08-07T10:04:26.092Z</time>
      </trkpt>
      <trkpt lat="46.91563" lon="8.65517">
        <ele>1380</ele>
        <time>2021-08-07T10:04:27.092Z</time>
      </trkpt>
      <trkpt lat="46.91562" lon="8.65517">
        <ele>1380</ele>
        <time>2021-08-07T10:04:28.092Z</time>
      </trkpt>
      <trkpt lat="46.91561" lon="8.65516">
        <ele>1379</ele>
        <time>2021-08-07T10:04:29.092Z</time>
      </trkpt>
      <trkpt lat="46.9156" lon="8.65516">
        <ele>1379</ele>
        <time>2021-08-07T10:04:30.092Z</time>
      </trkpt>
      <trkpt lat="46.9156" lon="8.65516">
        <ele>1379</ele>
        <time>2021-08-07T10:04:31.093Z</time>
      </trkpt>
      <trkpt lat="46.91559" lon="8.65516">
        <ele>1378</ele>
        <time>2021-08-07T10:04:32.092Z</time>
      </trkpt>
      <trkpt lat="46.91559" lon="8.65516">
        <ele>1378</ele>
        <time>2021-08-07T10:04:36.109Z</time>
      </trkpt>
      <trkpt lat="46.91559" lon="8.65516">
        <ele>1378</ele>
        <time>2021-08-07T10:04:37.109Z</time>
      </trkpt>
      <trkpt lat="46.91557" lon="8.65516">
        <ele>1378</ele>
        <time>2021-08-07T10:04:38.109Z</time>
      </trkpt>
      <trkpt lat="46.91556" lon="8.65516">
        <ele>1378</ele>
        <time>2021-08-07T10:04:39.109Z</time>
      </trkpt>
      <trkpt lat="46.91555" lon="8.65516">
        <ele>1377</ele>
        <time>2021-08-07T10:04:58.088Z</time>
      </trkpt>
      <trkpt lat="46.91555" lon="8.65516">
        <ele>1377</ele>
        <time>2021-08-07T10:04:59.088Z</time>
      </trkpt>
      <trkpt lat="46.91555" lon="8.65516">
        <ele>1377</ele>
        <time>2021-08-07T10:05:01.957Z</time>
      </trkpt>
      <trkpt lat="46.91555" lon="8.65515">
        <ele>1377</ele>
        <time>2021-08-07T10:05:02.957Z</time>
      </trkpt>
      <trkpt lat="46.91555" lon="8.65515">
        <ele>1377</ele>
        <time>2021-08-07T10:05:03.957Z</time>
      </trkpt>
      <trkpt lat="46.91555" lon="8.65515">
        <ele>1377</ele>
        <time>2021-08-07T10:05:04.957Z</time>
      </trkpt>
      <trkpt lat="46.91555" lon="8.65514">
        <ele>1378</ele>
        <time>2021-08-07T10:05:13.096Z</time>
      </trkpt>
      <trkpt lat="46.91554" lon="8.65515">
        <ele>1378</ele>
        <time>2021-08-07T10:05:14.967Z</time>
      </trkpt>
      <trkpt lat="46.91554" lon="8.65515">
        <ele>1377</ele>
        <time>2021-08-07T10:05:15.967Z</time>
      </trkpt>
      <trkpt lat="46.91553" lon="8.65516">
        <ele>1377</ele>
        <time>2021-08-07T10:05:16.967Z</time>
      </trkpt>
      <trkpt lat="46.91553" lon="8.65515">
        <ele>1377</ele>
        <time>2021-08-07T10:05:31.089Z</time>
      </trkpt>
      <trkpt lat="46.91552" lon="8.65514">
        <ele>1377</ele>
        <time>2021-08-07T10:05:32.088Z</time>
      </trkpt>
      <trkpt lat="46.9155" lon="8.6551">
        <ele>1377</ele>
        <time>2021-08-07T10:05:37.970Z</time>
      </trkpt>
      <trkpt lat="46.91549" lon="8.6551">
        <ele>1377</ele>
        <time>2021-08-07T10:05:38.969Z</time>
      </trkpt>
      <trkpt lat="46.91549" lon="8.65509">
        <ele>1377</ele>
        <time>2021-08-07T10:05:48.839Z</time>
      </trkpt>
      <trkpt lat="46.91549" lon="8.65509">
        <ele>1377</ele>
        <time>2021-08-07T10:05:49.839Z</time>
      </trkpt>
      <trkpt lat="46.9155" lon="8.65509">
        <ele>1377</ele>
        <time>2021-08-07T10:05:58.616Z</time>
      </trkpt>
      <trkpt lat="46.9155" lon="8.65508">
        <ele>1378</ele>
        <time>2021-08-07T10:05:59.616Z</time>
      </trkpt>
      <trkpt lat="46.9155" lon="8.65507">
        <ele>1377</ele>
        <time>2021-08-07T10:06:35.505Z</time>
      </trkpt>
      <trkpt lat="46.91549" lon="8.65506">
        <ele>1377</ele>
        <time>2021-08-07T10:06:36.506Z</time>
      </trkpt>
      <trkpt lat="46.91549" lon="8.65504">
        <ele>1377</ele>
        <time>2021-08-07T10:06:37.506Z</time>
      </trkpt>
      <trkpt lat="46.91548" lon="8.65503">
        <ele>1377</ele>
        <time>2021-08-07T10:06:38.505Z</time>
      </trkpt>
      <trkpt lat="46.91548" lon="8.65503">
        <ele>1376</ele>
        <time>2021-08-07T10:06:39.505Z</time>
      </trkpt>
      <trkpt lat="46.91547" lon="8.65502">
        <ele>1376</ele>
        <time>2021-08-07T10:06:40.505Z</time>
      </trkpt>
      <trkpt lat="46.91546" lon="8.65502">
        <ele>1376</ele>
        <time>2021-08-07T10:06:41.506Z</time>
      </trkpt>
      <trkpt lat="46.91546" lon="8.65503">
        <ele>1375</ele>
        <time>2021-08-07T10:06:42.505Z</time>
      </trkpt>
      <trkpt lat="46.91546" lon="8.65505">
        <ele>1375</ele>
        <time>2021-08-07T10:07:05.621Z</time>
      </trkpt>
      <trkpt lat="46.91546" lon="8.65505">
        <ele>1375</ele>
        <time>2021-08-07T10:07:06.621Z</time>
      </trkpt>
      <trkpt lat="46.91543" lon="8.65511">
        <ele>1372</ele>
        <time>2021-08-07T10:07:31.749Z</time>
      </trkpt>
      <trkpt lat="46.91543" lon="8.65511">
        <ele>1372</ele>
        <time>2021-08-07T10:07:32.750Z</time>
      </trkpt>
      <trkpt lat="46.91542" lon="8.65509">
        <ele>1364</ele>
        <time>2021-08-07T10:07:33.750Z</time>
      </trkpt>
      <trkpt lat="46.91541" lon="8.65509">
        <ele>1364</ele>
        <time>2021-08-07T10:07:43.876Z</time>
      </trkpt>
      <trkpt lat="46.91541" lon="8.65509">
        <ele>1364</ele>
        <time>2021-08-07T10:07:44.876Z</time>
      </trkpt>
      <trkpt lat="46.91541" lon="8.65509">
        <ele>1364</ele>
        <time>2021-08-07T10:07:45.876Z</time>
      </trkpt>
      <trkpt lat="46.9154" lon="8.6551">
        <ele>1363</ele>
        <time>2021-08-07T10:07:46.876Z</time>
      </trkpt>
      <trkpt lat="46.9154" lon="8.6551">
        <ele>1364</ele>
        <time>2021-08-07T10:07:47.876Z</time>
      </trkpt>
      <trkpt lat="46.91534" lon="8.65508">
        <ele>1374</ele>
        <time>2021-08-07T10:07:49.994Z</time>
      </trkpt>
      <trkpt lat="46.91534" lon="8.65509">
        <ele>1375</ele>
        <time>2021-08-07T10:07:50.993Z</time>
      </trkpt>
      <trkpt lat="46.91534" lon="8.65509">
        <ele>1376</ele>
        <time>2021-08-07T10:07:58.849Z</time>
      </trkpt>
      <trkpt lat="46.91534" lon="8.65509">
        <ele>1376</ele>
        <time>2021-08-07T10:07:59.849Z</time>
      </trkpt>
      <trkpt lat="46.91533" lon="8.65494">
        <ele>1376</ele>
        <time>2021-08-07T10:08:00.850Z</time>
      </trkpt>
      <trkpt lat="46.91534" lon="8.65494">
        <ele>1376</ele>
        <time>2021-08-07T10:08:15.952Z</time>
      </trkpt>
      <trkpt lat="46.91535" lon="8.65494">
        <ele>1375</ele>
        <time>2021-08-07T10:08:16.953Z</time>
      </trkpt>
      <trkpt lat="46.91536" lon="8.65492">
        <ele>1372</ele>
        <time>2021-08-07T10:08:22.875Z</time>
      </trkpt>
      <trkpt lat="46.91536" lon="8.65493">
        <ele>1372</ele>
        <time>2021-08-07T10:08:23.874Z</time>
      </trkpt>
      <trkpt lat="46.91535" lon="8.65496">
        <ele>1364</ele>
        <time>2021-08-07T10:08:24.875Z</time>
      </trkpt>
      <trkpt lat="46.91535" lon="8.65497">
        <ele>1364</ele>
        <time>2021-08-07T10:08:25.875Z</time>
      </trkpt>
      <trkpt lat="46.91535" lon="8.65496">
        <ele>1364</ele>
        <time>2021-08-07T10:08:26.874Z</time>
      </trkpt>
      <trkpt lat="46.91535" lon="8.65496">
        <ele>1364</ele>
        <time>2021-08-07T10:08:50.951Z</time>
      </trkpt>
      <trkpt lat="46.91535" lon="8.65496">
        <ele>1364</ele>
        <time>2021-08-07T10:08:51.951Z</time>
      </trkpt>
      <trkpt lat="46.91535" lon="8.65497">
        <ele>1364</ele>
        <time>2021-08-07T10:08:52.951Z</time>
      </trkpt>
      <trkpt lat="46.91535" lon="8.65498">
        <ele>1364</ele>
        <time>2021-08-07T10:09:02.141Z</time>
      </trkpt>
      <trkpt lat="46.91535" lon="8.65498">
        <ele>1364</ele>
        <time>2021-08-07T10:09:03.140Z</time>
      </trkpt>
      <trkpt lat="46.91528" lon="8.65502">
        <ele>1373</ele>
        <time>2021-08-07T10:09:04.140Z</time>
      </trkpt>
      <trkpt lat="46.91528" lon="8.65502">
        <ele>1374</ele>
        <time>2021-08-07T10:09:05.141Z</time>
      </trkpt>
      <trkpt lat="46.91528" lon="8.65501">
        <ele>1375</ele>
        <time>2021-08-07T10:09:09.228Z</time>
      </trkpt>
      <trkpt lat="46.91528" lon="8.65501">
        <ele>1375</ele>
        <time>2021-08-07T10:09:10.229Z</time>
      </trkpt>
      <trkpt lat="46.91527" lon="8.655">
        <ele>1377</ele>
        <time>2021-08-07T10:09:11.228Z</time>
      </trkpt>
      <trkpt lat="46.91527" lon="8.65499">
        <ele>1377</ele>
        <time>2021-08-07T10:09:12.228Z</time>
      </trkpt>
      <trkpt lat="46.91529" lon="8.65497">
        <ele>1376</ele>
        <time>2021-08-07T10:09:13.228Z</time>
      </trkpt>
      <trkpt lat="46.9153" lon="8.65497">
        <ele>1375</ele>
        <time>2021-08-07T10:09:14.228Z</time>
      </trkpt>
      <trkpt lat="46.9153" lon="8.65491">
        <ele>1369</ele>
        <time>2021-08-07T10:09:15.228Z</time>
      </trkpt>
      <trkpt lat="46.9153" lon="8.6549">
        <ele>1370</ele>
        <time>2021-08-07T10:09:16.228Z</time>
      </trkpt>
      <trkpt lat="46.91535" lon="8.65499">
        <ele>1348</ele>
        <time>2021-08-07T10:09:17.228Z</time>
      </trkpt>
      <trkpt lat="46.91536" lon="8.65499">
        <ele>1348</ele>
        <time>2021-08-07T10:09:18.229Z</time>
      </trkpt>
      <trkpt lat="46.91536" lon="8.655">
        <ele>1348</ele>
        <time>2021-08-07T10:09:19.229Z</time>
      </trkpt>
      <trkpt lat="46.91536" lon="8.655">
        <ele>1348</ele>
        <time>2021-08-07T10:09:20.229Z</time>
      </trkpt>
      <trkpt lat="46.91536" lon="8.655">
        <ele>1348</ele>
        <time>2021-08-07T10:09:21.229Z</time>
      </trkpt>
      <trkpt lat="46.91536" lon="8.655">
        <ele>1365</ele>
        <time>2021-08-07T10:09:22.229Z</time>
      </trkpt>
      <trkpt lat="46.91536" lon="8.65499">
        <ele>1366</ele>
        <time>2021-08-07T10:09:23.229Z</time>
      </trkpt>
      <trkpt lat="46.91538" lon="8.65496">
        <ele>1369</ele>
        <time>2021-08-07T10:09:24.230Z</time>
      </trkpt>
      <trkpt lat="46.91538" lon="8.65496">
        <ele>1369</ele>
        <time>2021-08-07T10:09:25.230Z</time>
      </trkpt>
      <trkpt lat="46.91538" lon="8.65495">
        <ele>1370</ele>
        <time>2021-08-07T10:09:26.229Z</time>
      </trkpt>
      <trkpt lat="46.91537" lon="8.65494">
        <ele>1370</ele>
        <time>2021-08-07T10:09:27.230Z</time>
      </trkpt>
      <trkpt lat="46.91537" lon="8.65493">
        <ele>1370</ele>
        <time>2021-08-07T10:09:28.230Z</time>
      </trkpt>
      <trkpt lat="46.91536" lon="8.65493">
        <ele>1370</ele>
        <time>2021-08-07T10:09:29.229Z</time>
      </trkpt>
      <trkpt lat="46.91536" lon="8.65493">
        <ele>1371</ele>
        <time>2021-08-07T10:09:30.229Z</time>
      </trkpt>
      <trkpt lat="46.91536" lon="8.65493">
        <ele>1371</ele>
        <time>2021-08-07T10:09:31.230Z</time>
      </trkpt>
      <trkpt lat="46.91536" lon="8.65494">
        <ele>1371</ele>
        <time>2021-08-07T10:09:32.230Z</time>
      </trkpt>
      <trkpt lat="46.91535" lon="8.65495">
        <ele>1371</ele>
        <time>2021-08-07T10:09:33.230Z</time>
      </trkpt>
      <trkpt lat="46.91535" lon="8.65495">
        <ele>1372</ele>
        <time>2021-08-07T10:09:34.230Z</time>
      </trkpt>
      <trkpt lat="46.91535" lon="8.65495">
        <ele>1372</ele>
        <time>2021-08-07T10:09:35.230Z</time>
      </trkpt>
      <trkpt lat="46.91535" lon="8.65496">
        <ele>1372</ele>
        <time>2021-08-07T10:09:36.231Z</time>
      </trkpt>
      <trkpt lat="46.91534" lon="8.65496">
        <ele>1373</ele>
        <time>2021-08-07T10:09:37.231Z</time>
      </trkpt>
      <trkpt lat="46.91534" lon="8.65496">
        <ele>1373</ele>
        <time>2021-08-07T10:09:38.230Z</time>
      </trkpt>
      <trkpt lat="46.91533" lon="8.65497">
        <ele>1373</ele>
        <time>2021-08-07T10:09:39.230Z</time>
      </trkpt>
      <trkpt lat="46.91533" lon="8.65498">
        <ele>1374</ele>
        <time>2021-08-07T10:09:40.231Z</time>
      </trkpt>
      <trkpt lat="46.91532" lon="8.65499">
        <ele>1374</ele>
        <time>2021-08-07T10:09:41.231Z</time>
      </trkpt>
      <trkpt lat="46.91532" lon="8.65499">
        <ele>1374</ele>
        <time>2021-08-07T10:09:42.231Z</time>
      </trkpt>
      <trkpt lat="46.91533" lon="8.65499">
        <ele>1374</ele>
        <time>2021-08-07T10:09:43.231Z</time>
      </trkpt>
      <trkpt lat="46.91533" lon="8.655">
        <ele>1374</ele>
        <time>2021-08-07T10:09:44.230Z</time>
      </trkpt>
      <trkpt lat="46.91534" lon="8.655">
        <ele>1375</ele>
        <time>2021-08-07T10:09:45.230Z</time>
      </trkpt>
      <trkpt lat="46.91534" lon="8.655">
        <ele>1375</ele>
        <time>2021-08-07T10:09:46.231Z</time>
      </trkpt>
      <trkpt lat="46.91535" lon="8.65501">
        <ele>1375</ele>
        <time>2021-08-07T10:09:47.231Z</time>
      </trkpt>
      <trkpt lat="46.91534" lon="8.655">
        <ele>1375</ele>
        <time>2021-08-07T10:09:48.230Z</time>
      </trkpt>
      <trkpt lat="46.91534" lon="8.65498">
        <ele>1376</ele>
        <time>2021-08-07T10:09:49.230Z</time>
      </trkpt>
      <trkpt lat="46.91535" lon="8.65495">
        <ele>1376</ele>
        <time>2021-08-07T10:09:50.231Z</time>
      </trkpt>
      <trkpt lat="46.91535" lon="8.65495">
        <ele>1376</ele>
        <time>2021-08-07T10:09:51.230Z</time>
      </trkpt>
      <trkpt lat="46.91536" lon="8.65494">
        <ele>1376</ele>
        <time>2021-08-07T10:09:52.230Z</time>
      </trkpt>
      <trkpt lat="46.91536" lon="8.65494">
        <ele>1377</ele>
        <time>2021-08-07T10:09:53.230Z</time>
      </trkpt>
      <trkpt lat="46.91537" lon="8.65494">
        <ele>1377</ele>
        <time>2021-08-07T10:09:54.231Z</time>
      </trkpt>
      <trkpt lat="46.91538" lon="8.65493">
        <ele>1377</ele>
        <time>2021-08-07T10:09:55.230Z</time>
      </trkpt>
      <trkpt lat="46.91538" lon="8.65492">
        <ele>1377</ele>
        <time>2021-08-07T10:09:56.231Z</time>
      </trkpt>
      <trkpt lat="46.91539" lon="8.65492">
        <ele>1377</ele>
        <time>2021-08-07T10:09:57.231Z</time>
      </trkpt>
      <trkpt lat="46.91539" lon="8.65491">
        <ele>1377</ele>
        <time>2021-08-07T10:09:58.231Z</time>
      </trkpt>
      <trkpt lat="46.91538" lon="8.65491">
        <ele>1377</ele>
        <time>2021-08-07T10:09:59.230Z</time>
      </trkpt>
      <trkpt lat="46.91538" lon="8.6549">
        <ele>1377</ele>
        <time>2021-08-07T10:10:00.231Z</time>
      </trkpt>
      <trkpt lat="46.91537" lon="8.6549">
        <ele>1377</ele>
        <time>2021-08-07T10:10:01.230Z</time>
      </trkpt>
      <trkpt lat="46.91538" lon="8.6549">
        <ele>1377</ele>
        <time>2021-08-07T10:10:02.231Z</time>
      </trkpt>
      <trkpt lat="46.91538" lon="8.65489">
        <ele>1377</ele>
        <time>2021-08-07T10:10:03.230Z</time>
      </trkpt>
      <trkpt lat="46.91539" lon="8.65488">
        <ele>1377</ele>
        <time>2021-08-07T10:10:04.231Z</time>
      </trkpt>
      <trkpt lat="46.91539" lon="8.65487">
        <ele>1377</ele>
        <time>2021-08-07T10:10:05.231Z</time>
      </trkpt>
      <trkpt lat="46.91539" lon="8.65486">
        <ele>1376</ele>
        <time>2021-08-07T10:10:06.231Z</time>
      </trkpt>
      <trkpt lat="46.91538" lon="8.65486">
        <ele>1376</ele>
        <time>2021-08-07T10:10:07.230Z</time>
      </trkpt>
      <trkpt lat="46.91538" lon="8.65487">
        <ele>1375</ele>
        <time>2021-08-07T10:10:08.231Z</time>
      </trkpt>
      <trkpt lat="46.91537" lon="8.65488">
        <ele>1375</ele>
        <time>2021-08-07T10:10:09.231Z</time>
      </trkpt>
      <trkpt lat="46.91537" lon="8.65489">
        <ele>1374</ele>
        <time>2021-08-07T10:10:10.231Z</time>
      </trkpt>
      <trkpt lat="46.91536" lon="8.6549">
        <ele>1374</ele>
        <time>2021-08-07T10:10:11.230Z</time>
      </trkpt>
      <trkpt lat="46.91536" lon="8.6549">
        <ele>1373</ele>
        <time>2021-08-07T10:10:12.231Z</time>
      </trkpt>
      <trkpt lat="46.91534" lon="8.6549">
        <ele>1370</ele>
        <time>2021-08-07T10:10:13.230Z</time>
      </trkpt>
      <trkpt lat="46.91533" lon="8.65489">
        <ele>1370</ele>
        <time>2021-08-07T10:10:14.231Z</time>
      </trkpt>
      <trkpt lat="46.91532" lon="8.6549">
        <ele>1369</ele>
        <time>2021-08-07T10:10:15.230Z</time>
      </trkpt>
      <trkpt lat="46.91531" lon="8.6549">
        <ele>1369</ele>
        <time>2021-08-07T10:10:16.231Z</time>
      </trkpt>
      <trkpt lat="46.91531" lon="8.6549">
        <ele>1368</ele>
        <time>2021-08-07T10:10:17.230Z</time>
      </trkpt>
      <trkpt lat="46.91531" lon="8.65491">
        <ele>1367</ele>
        <time>2021-08-07T10:10:18.230Z</time>
      </trkpt>
      <trkpt lat="46.9153" lon="8.65491">
        <ele>1366</ele>
        <time>2021-08-07T10:10:19.230Z</time>
      </trkpt>
      <trkpt lat="46.9153" lon="8.65492">
        <ele>1365</ele>
        <time>2021-08-07T10:10:20.231Z</time>
      </trkpt>
      <trkpt lat="46.91529" lon="8.65492">
        <ele>1364</ele>
        <time>2021-08-07T10:10:21.231Z</time>
      </trkpt>
      <trkpt lat="46.91528" lon="8.65492">
        <ele>1364</ele>
        <time>2021-08-07T10:10:22.230Z</time>
      </trkpt>
      <trkpt lat="46.91527" lon="8.65493">
        <ele>1363</ele>
        <time>2021-08-07T10:10:23.231Z</time>
      </trkpt>
      <trkpt lat="46.91527" lon="8.65494">
        <ele>1363</ele>
        <time>2021-08-07T10:10:24.231Z</time>
      </trkpt>
      <trkpt lat="46.91527" lon="8.65494">
        <ele>1362</ele>
        <time>2021-08-07T10:10:25.230Z</time>
      </trkpt>
      <trkpt lat="46.91526" lon="8.65495">
        <ele>1362</ele>
        <time>2021-08-07T10:10:26.231Z</time>
      </trkpt>
      <trkpt lat="46.91525" lon="8.65496">
        <ele>1361</ele>
        <time>2021-08-07T10:10:27.231Z</time>
      </trkpt>
      <trkpt lat="46.91524" lon="8.65495">
        <ele>1361</ele>
        <time>2021-08-07T10:10:28.231Z</time>
      </trkpt>
      <trkpt lat="46.91524" lon="8.65495">
        <ele>1360</ele>
        <time>2021-08-07T10:10:29.230Z</time>
      </trkpt>
      <trkpt lat="46.91523" lon="8.65495">
        <ele>1360</ele>
        <time>2021-08-07T10:10:30.231Z</time>
      </trkpt>
      <trkpt lat="46.91522" lon="8.65495">
        <ele>1359</ele>
        <time>2021-08-07T10:10:31.231Z</time>
      </trkpt>
      <trkpt lat="46.91523" lon="8.65495">
        <ele>1358</ele>
        <time>2021-08-07T10:10:32.230Z</time>
      </trkpt>
      <trkpt lat="46.91523" lon="8.65494">
        <ele>1357</ele>
        <time>2021-08-07T10:10:33.231Z</time>
      </trkpt>
      <trkpt lat="46.91524" lon="8.65494">
        <ele>1357</ele>
        <time>2021-08-07T10:10:34.231Z</time>
      </trkpt>
      <trkpt lat="46.91525" lon="8.65494">
        <ele>1356</ele>
        <time>2021-08-07T10:10:35.231Z</time>
      </trkpt>
      <trkpt lat="46.91525" lon="8.65493">
        <ele>1356</ele>
        <time>2021-08-07T10:10:36.230Z</time>
      </trkpt>
      <trkpt lat="46.91525" lon="8.65492">
        <ele>1355</ele>
        <time>2021-08-07T10:10:37.230Z</time>
      </trkpt>
      <trkpt lat="46.91525" lon="8.6549">
        <ele>1355</ele>
        <time>2021-08-07T10:10:38.231Z</time>
      </trkpt>
      <trkpt lat="46.91525" lon="8.6549">
        <ele>1354</ele>
        <time>2021-08-07T10:10:39.230Z</time>
      </trkpt>
      <trkpt lat="46.91526" lon="8.65488">
        <ele>1354</ele>
        <time>2021-08-07T10:10:40.232Z</time>
      </trkpt>
      <trkpt lat="46.91526" lon="8.65487">
        <ele>1354</ele>
        <time>2021-08-07T10:10:41.232Z</time>
      </trkpt>
      <trkpt lat="46.91526" lon="8.65486">
        <ele>1354</ele>
        <time>2021-08-07T10:10:42.231Z</time>
      </trkpt>
      <trkpt lat="46.91526" lon="8.65485">
        <ele>1354</ele>
        <time>2021-08-07T10:10:43.232Z</time>
      </trkpt>
      <trkpt lat="46.91528" lon="8.65482">
        <ele>1354</ele>
        <time>2021-08-07T10:10:44.232Z</time>
      </trkpt>
      <trkpt lat="46.91528" lon="8.65481">
        <ele>1354</ele>
        <time>2021-08-07T10:10:45.232Z</time>
      </trkpt>
      <trkpt lat="46.91528" lon="8.6548">
        <ele>1354</ele>
        <time>2021-08-07T10:10:46.232Z</time>
      </trkpt>
      <trkpt lat="46.91527" lon="8.6547">
        <ele>1351</ele>
        <time>2021-08-07T10:10:47.232Z</time>
      </trkpt>
      <trkpt lat="46.91527" lon="8.6547">
        <ele>1350</ele>
        <time>2021-08-07T10:10:48.232Z</time>
      </trkpt>
      <trkpt lat="46.91527" lon="8.65469">
        <ele>1349</ele>
        <time>2021-08-07T10:10:49.231Z</time>
      </trkpt>
      <trkpt lat="46.91527" lon="8.65468">
        <ele>1348</ele>
        <time>2021-08-07T10:10:50.232Z</time>
      </trkpt>
      <trkpt lat="46.91527" lon="8.65466">
        <ele>1348</ele>
        <time>2021-08-07T10:10:51.232Z</time>
      </trkpt>
      <trkpt lat="46.91527" lon="8.65465">
        <ele>1347</ele>
        <time>2021-08-07T10:10:52.232Z</time>
      </trkpt>
      <trkpt lat="46.91526" lon="8.65464">
        <ele>1347</ele>
        <time>2021-08-07T10:10:53.232Z</time>
      </trkpt>
      <trkpt lat="46.91526" lon="8.65463">
        <ele>1347</ele>
        <time>2021-08-07T10:10:54.231Z</time>
      </trkpt>
      <trkpt lat="46.91527" lon="8.65461">
        <ele>1347</ele>
        <time>2021-08-07T10:10:55.231Z</time>
      </trkpt>
      <trkpt lat="46.91527" lon="8.65459">
        <ele>1348</ele>
        <time>2021-08-07T10:10:56.232Z</time>
      </trkpt>
      <trkpt lat="46.91527" lon="8.65457">
        <ele>1348</ele>
        <time>2021-08-07T10:10:57.232Z</time>
      </trkpt>
      <trkpt lat="46.91526" lon="8.65457">
        <ele>1348</ele>
        <time>2021-08-07T10:10:58.232Z</time>
      </trkpt>
      <trkpt lat="46.91526" lon="8.65456">
        <ele>1347</ele>
        <time>2021-08-07T10:10:59.232Z</time>
      </trkpt>
      <trkpt lat="46.91526" lon="8.65456">
        <ele>1347</ele>
        <time>2021-08-07T10:11:00.232Z</time>
      </trkpt>
      <trkpt lat="46.91526" lon="8.65456">
        <ele>1346</ele>
        <time>2021-08-07T10:11:01.232Z</time>
      </trkpt>
      <trkpt lat="46.91526" lon="8.65454">
        <ele>1346</ele>
        <time>2021-08-07T10:11:02.232Z</time>
      </trkpt>
      <trkpt lat="46.91526" lon="8.65452">
        <ele>1345</ele>
        <time>2021-08-07T10:11:03.231Z</time>
      </trkpt>
      <trkpt lat="46.91526" lon="8.6545">
        <ele>1344</ele>
        <time>2021-08-07T10:11:04.231Z</time>
      </trkpt>
      <trkpt lat="46.91527" lon="8.6545">
        <ele>1344</ele>
        <time>2021-08-07T10:11:05.232Z</time>
      </trkpt>
      <trkpt lat="46.91527" lon="8.6545">
        <ele>1343</ele>
        <time>2021-08-07T10:11:06.232Z</time>
      </trkpt>
      <trkpt lat="46.91528" lon="8.6545">
        <ele>1343</ele>
        <time>2021-08-07T10:11:07.231Z</time>
      </trkpt>
      <trkpt lat="46.91528" lon="8.65449">
        <ele>1342</ele>
        <time>2021-08-07T10:11:08.232Z</time>
      </trkpt>
      <trkpt lat="46.91528" lon="8.65448">
        <ele>1342</ele>
        <time>2021-08-07T10:11:09.232Z</time>
      </trkpt>
      <trkpt lat="46.91528" lon="8.65446">
        <ele>1342</ele>
        <time>2021-08-07T10:11:10.231Z</time>
      </trkpt>
      <trkpt lat="46.91529" lon="8.65444">
        <ele>1342</ele>
        <time>2021-08-07T10:11:11.232Z</time>
      </trkpt>
      <trkpt lat="46.91529" lon="8.65443">
        <ele>1342</ele>
        <time>2021-08-07T10:11:12.231Z</time>
      </trkpt>
      <trkpt lat="46.9153" lon="8.65442">
        <ele>1342</ele>
        <time>2021-08-07T10:11:13.232Z</time>
      </trkpt>
      <trkpt lat="46.91531" lon="8.65441">
        <ele>1342</ele>
        <time>2021-08-07T10:11:14.232Z</time>
      </trkpt>
      <trkpt lat="46.91531" lon="8.65441">
        <ele>1342</ele>
        <time>2021-08-07T10:11:15.231Z</time>
      </trkpt>
      <trkpt lat="46.91532" lon="8.6544">
        <ele>1342</ele>
        <time>2021-08-07T10:11:16.232Z</time>
      </trkpt>
      <trkpt lat="46.91533" lon="8.65439">
        <ele>1342</ele>
        <time>2021-08-07T10:11:17.232Z</time>
      </trkpt>
      <trkpt lat="46.91534" lon="8.65438">
        <ele>1342</ele>
        <time>2021-08-07T10:11:18.232Z</time>
      </trkpt>
      <trkpt lat="46.91535" lon="8.65438">
        <ele>1342</ele>
        <time>2021-08-07T10:11:19.232Z</time>
      </trkpt>
      <trkpt lat="46.91535" lon="8.65437">
        <ele>1342</ele>
        <time>2021-08-07T10:11:20.231Z</time>
      </trkpt>
      <trkpt lat="46.91536" lon="8.65436">
        <ele>1342</ele>
        <time>2021-08-07T10:11:21.232Z</time>
      </trkpt>
      <trkpt lat="46.91536" lon="8.65436">
        <ele>1342</ele>
        <time>2021-08-07T10:11:22.232Z</time>
      </trkpt>
      <trkpt lat="46.91536" lon="8.65436">
        <ele>1342</ele>
        <time>2021-08-07T10:11:23.231Z</time>
      </trkpt>
      <trkpt lat="46.91537" lon="8.65435">
        <ele>1342</ele>
        <time>2021-08-07T10:11:24.232Z</time>
      </trkpt>
      <trkpt lat="46.91539" lon="8.65432">
        <ele>1342</ele>
        <time>2021-08-07T10:11:25.231Z</time>
      </trkpt>
      <trkpt lat="46.9154" lon="8.65431">
        <ele>1341</ele>
        <time>2021-08-07T10:11:26.231Z</time>
      </trkpt>
      <trkpt lat="46.91541" lon="8.65429">
        <ele>1341</ele>
        <time>2021-08-07T10:11:27.231Z</time>
      </trkpt>
      <trkpt lat="46.91541" lon="8.65427">
        <ele>1341</ele>
        <time>2021-08-07T10:11:28.231Z</time>
      </trkpt>
      <trkpt lat="46.91542" lon="8.65426">
        <ele>1341</ele>
        <time>2021-08-07T10:11:29.231Z</time>
      </trkpt>
      <trkpt lat="46.91542" lon="8.65426">
        <ele>1341</ele>
        <time>2021-08-07T10:11:30.231Z</time>
      </trkpt>
      <trkpt lat="46.91543" lon="8.65425">
        <ele>1341</ele>
        <time>2021-08-07T10:11:31.231Z</time>
      </trkpt>
      <trkpt lat="46.91543" lon="8.65424">
        <ele>1341</ele>
        <time>2021-08-07T10:11:32.231Z</time>
      </trkpt>
      <trkpt lat="46.91542" lon="8.65423">
        <ele>1340</ele>
        <time>2021-08-07T10:11:33.231Z</time>
      </trkpt>
      <trkpt lat="46.91542" lon="8.65423">
        <ele>1340</ele>
        <time>2021-08-07T10:11:34.231Z</time>
      </trkpt>
      <trkpt lat="46.91542" lon="8.65422">
        <ele>1340</ele>
        <time>2021-08-07T10:11:35.231Z</time>
      </trkpt>
      <trkpt lat="46.91544" lon="8.65424">
        <ele>1339</ele>
        <time>2021-08-07T10:11:36.233Z</time>
      </trkpt>
      <trkpt lat="46.91545" lon="8.65424">
        <ele>1339</ele>
        <time>2021-08-07T10:11:37.232Z</time>
      </trkpt>
      <trkpt lat="46.91545" lon="8.65423">
        <ele>1338</ele>
        <time>2021-08-07T10:11:38.232Z</time>
      </trkpt>
      <trkpt lat="46.91546" lon="8.65423">
        <ele>1338</ele>
        <time>2021-08-07T10:11:39.232Z</time>
      </trkpt>
      <trkpt lat="46.91548" lon="8.65423">
        <ele>1338</ele>
        <time>2021-08-07T10:11:40.233Z</time>
      </trkpt>
      <trkpt lat="46.91549" lon="8.65422">
        <ele>1338</ele>
        <time>2021-08-07T10:11:41.233Z</time>
      </trkpt>
      <trkpt lat="46.9155" lon="8.65422">
        <ele>1338</ele>
        <time>2021-08-07T10:11:42.232Z</time>
      </trkpt>
      <trkpt lat="46.91551" lon="8.65421">
        <ele>1338</ele>
        <time>2021-08-07T10:11:43.232Z</time>
      </trkpt>
      <trkpt lat="46.91552" lon="8.6542">
        <ele>1338</ele>
        <time>2021-08-07T10:11:44.233Z</time>
      </trkpt>
      <trkpt lat="46.91553" lon="8.65419">
        <ele>1338</ele>
        <time>2021-08-07T10:11:45.233Z</time>
      </trkpt>
      <trkpt lat="46.91554" lon="8.65417">
        <ele>1338</ele>
        <time>2021-08-07T10:11:46.232Z</time>
      </trkpt>
      <trkpt lat="46.91554" lon="8.65416">
        <ele>1338</ele>
        <time>2021-08-07T10:11:47.232Z</time>
      </trkpt>
      <trkpt lat="46.91555" lon="8.65414">
        <ele>1339</ele>
        <time>2021-08-07T10:11:48.232Z</time>
      </trkpt>
      <trkpt lat="46.91557" lon="8.65412">
        <ele>1339</ele>
        <time>2021-08-07T10:11:49.233Z</time>
      </trkpt>
      <trkpt lat="46.91557" lon="8.65411">
        <ele>1340</ele>
        <time>2021-08-07T10:11:50.233Z</time>
      </trkpt>
      <trkpt lat="46.91558" lon="8.6541">
        <ele>1340</ele>
        <time>2021-08-07T10:11:51.232Z</time>
      </trkpt>
      <trkpt lat="46.91558" lon="8.65408">
        <ele>1340</ele>
        <time>2021-08-07T10:11:52.232Z</time>
      </trkpt>
      <trkpt lat="46.91558" lon="8.65406">
        <ele>1340</ele>
        <time>2021-08-07T10:11:53.233Z</time>
      </trkpt>
      <trkpt lat="46.91558" lon="8.65406">
        <ele>1340</ele>
        <time>2021-08-07T10:11:54.233Z</time>
      </trkpt>
      <trkpt lat="46.91558" lon="8.65405">
        <ele>1340</ele>
        <time>2021-08-07T10:11:55.233Z</time>
      </trkpt>
      <trkpt lat="46.91559" lon="8.65403">
        <ele>1340</ele>
        <time>2021-08-07T10:11:56.232Z</time>
      </trkpt>
      <trkpt lat="46.91559" lon="8.65402">
        <ele>1340</ele>
        <time>2021-08-07T10:11:57.233Z</time>
      </trkpt>
      <trkpt lat="46.91559" lon="8.65402">
        <ele>1340</ele>
        <time>2021-08-07T10:11:58.233Z</time>
      </trkpt>
      <trkpt lat="46.9156" lon="8.65402">
        <ele>1340</ele>
        <time>2021-08-07T10:11:59.232Z</time>
      </trkpt>
      <trkpt lat="46.9156" lon="8.65402">
        <ele>1340</ele>
        <time>2021-08-07T10:12:00.233Z</time>
      </trkpt>
      <trkpt lat="46.91561" lon="8.65402">
        <ele>1340</ele>
        <time>2021-08-07T10:12:01.233Z</time>
      </trkpt>
      <trkpt lat="46.91561" lon="8.65401">
        <ele>1340</ele>
        <time>2021-08-07T10:12:02.232Z</time>
      </trkpt>
      <trkpt lat="46.91561" lon="8.654">
        <ele>1340</ele>
        <time>2021-08-07T10:12:03.233Z</time>
      </trkpt>
      <trkpt lat="46.91562" lon="8.65399">
        <ele>1340</ele>
        <time>2021-08-07T10:12:04.233Z</time>
      </trkpt>
      <trkpt lat="46.91562" lon="8.65398">
        <ele>1339</ele>
        <time>2021-08-07T10:12:05.233Z</time>
      </trkpt>
      <trkpt lat="46.91563" lon="8.65397">
        <ele>1338</ele>
        <time>2021-08-07T10:12:06.232Z</time>
      </trkpt>
      <trkpt lat="46.91564" lon="8.65395">
        <ele>1338</ele>
        <time>2021-08-07T10:12:07.233Z</time>
      </trkpt>
      <trkpt lat="46.91564" lon="8.65394">
        <ele>1337</ele>
        <time>2021-08-07T10:12:08.233Z</time>
      </trkpt>
      <trkpt lat="46.91565" lon="8.65394">
        <ele>1336</ele>
        <time>2021-08-07T10:12:09.232Z</time>
      </trkpt>
      <trkpt lat="46.91565" lon="8.65394">
        <ele>1336</ele>
        <time>2021-08-07T10:12:10.233Z</time>
      </trkpt>
      <trkpt lat="46.91565" lon="8.65393">
        <ele>1335</ele>
        <time>2021-08-07T10:12:11.232Z</time>
      </trkpt>
      <trkpt lat="46.91565" lon="8.65393">
        <ele>1335</ele>
        <time>2021-08-07T10:12:12.233Z</time>
      </trkpt>
      <trkpt lat="46.91566" lon="8.65392">
        <ele>1334</ele>
        <time>2021-08-07T10:12:13.233Z</time>
      </trkpt>
      <trkpt lat="46.91567" lon="8.65391">
        <ele>1334</ele>
        <time>2021-08-07T10:12:14.233Z</time>
      </trkpt>
      <trkpt lat="46.91567" lon="8.65389">
        <ele>1333</ele>
        <time>2021-08-07T10:12:15.233Z</time>
      </trkpt>
      <trkpt lat="46.91567" lon="8.65388">
        <ele>1333</ele>
        <time>2021-08-07T10:12:16.232Z</time>
      </trkpt>
      <trkpt lat="46.91567" lon="8.65387">
        <ele>1332</ele>
        <time>2021-08-07T10:12:17.232Z</time>
      </trkpt>
      <trkpt lat="46.91567" lon="8.65386">
        <ele>1331</ele>
        <time>2021-08-07T10:12:18.232Z</time>
      </trkpt>
      <trkpt lat="46.91568" lon="8.65386">
        <ele>1331</ele>
        <time>2021-08-07T10:12:19.233Z</time>
      </trkpt>
      <trkpt lat="46.91568" lon="8.65385">
        <ele>1331</ele>
        <time>2021-08-07T10:12:20.232Z</time>
      </trkpt>
      <trkpt lat="46.91568" lon="8.65385">
        <ele>1331</ele>
        <time>2021-08-07T10:12:21.233Z</time>
      </trkpt>
      <trkpt lat="46.91568" lon="8.65385">
        <ele>1331</ele>
        <time>2021-08-07T10:12:22.232Z</time>
      </trkpt>
      <trkpt lat="46.91568" lon="8.65384">
        <ele>1331</ele>
        <time>2021-08-07T10:12:23.233Z</time>
      </trkpt>
      <trkpt lat="46.91569" lon="8.65384">
        <ele>1331</ele>
        <time>2021-08-07T10:12:24.232Z</time>
      </trkpt>
      <trkpt lat="46.91569" lon="8.65384">
        <ele>1331</ele>
        <time>2021-08-07T10:12:25.233Z</time>
      </trkpt>
      <trkpt lat="46.9157" lon="8.65384">
        <ele>1331</ele>
        <time>2021-08-07T10:12:26.233Z</time>
      </trkpt>
      <trkpt lat="46.9157" lon="8.65383">
        <ele>1330</ele>
        <time>2021-08-07T10:12:27.233Z</time>
      </trkpt>
      <trkpt lat="46.91571" lon="8.65383">
        <ele>1330</ele>
        <time>2021-08-07T10:12:28.232Z</time>
      </trkpt>
      <trkpt lat="46.91571" lon="8.65383">
        <ele>1330</ele>
        <time>2021-08-07T10:12:29.233Z</time>
      </trkpt>
      <trkpt lat="46.91571" lon="8.65383">
        <ele>1330</ele>
        <time>2021-08-07T10:12:30.232Z</time>
      </trkpt>
      <trkpt lat="46.91571" lon="8.65383">
        <ele>1330</ele>
        <time>2021-08-07T10:12:31.232Z</time>
      </trkpt>
      <trkpt lat="46.91571" lon="8.65383">
        <ele>1330</ele>
        <time>2021-08-07T10:12:32.232Z</time>
      </trkpt>
      <trkpt lat="46.91572" lon="8.65382">
        <ele>1329</ele>
        <time>2021-08-07T10:12:33.233Z</time>
      </trkpt>
      <trkpt lat="46.91572" lon="8.65382">
        <ele>1329</ele>
        <time>2021-08-07T10:12:34.232Z</time>
      </trkpt>
      <trkpt lat="46.91572" lon="8.65383">
        <ele>1330</ele>
        <time>2021-08-07T10:12:35.232Z</time>
      </trkpt>
      <trkpt lat="46.91572" lon="8.65383">
        <ele>1330</ele>
        <time>2021-08-07T10:12:36.232Z</time>
      </trkpt>
      <trkpt lat="46.91572" lon="8.65383">
        <ele>1330</ele>
        <time>2021-08-07T10:12:37.233Z</time>
      </trkpt>
      <trkpt lat="46.91573" lon="8.65384">
        <ele>1330</ele>
        <time>2021-08-07T10:12:38.233Z</time>
      </trkpt>
      <trkpt lat="46.91574" lon="8.65384">
        <ele>1330</ele>
        <time>2021-08-07T10:12:39.232Z</time>
      </trkpt>
      <trkpt lat="46.91574" lon="8.65384">
        <ele>1330</ele>
        <time>2021-08-07T10:12:40.233Z</time>
      </trkpt>
      <trkpt lat="46.91574" lon="8.65384">
        <ele>1330</ele>
        <time>2021-08-07T10:12:41.232Z</time>
      </trkpt>
      <trkpt lat="46.91573" lon="8.65383">
        <ele>1330</ele>
        <time>2021-08-07T10:12:42.233Z</time>
      </trkpt>
      <trkpt lat="46.91574" lon="8.65383">
        <ele>1329</ele>
        <time>2021-08-07T10:12:43.233Z</time>
      </trkpt>
      <trkpt lat="46.91574" lon="8.65384">
        <ele>1330</ele>
        <time>2021-08-07T10:12:45.365Z</time>
      </trkpt>
      <trkpt lat="46.91575" lon="8.65384">
        <ele>1330</ele>
        <time>2021-08-07T10:12:46.366Z</time>
      </trkpt>
      <trkpt lat="46.91575" lon="8.65384">
        <ele>1331</ele>
        <time>2021-08-07T10:12:47.365Z</time>
      </trkpt>
      <trkpt lat="46.91575" lon="8.65385">
        <ele>1331</ele>
        <time>2021-08-07T10:12:48.366Z</time>
      </trkpt>
      <trkpt lat="46.91575" lon="8.65385">
        <ele>1332</ele>
        <time>2021-08-07T10:12:49.365Z</time>
      </trkpt>
      <trkpt lat="46.91576" lon="8.65384">
        <ele>1332</ele>
        <time>2021-08-07T10:12:50.366Z</time>
      </trkpt>
      <trkpt lat="46.91577" lon="8.65382">
        <ele>1331</ele>
        <time>2021-08-07T10:12:51.365Z</time>
      </trkpt>
      <trkpt lat="46.91578" lon="8.65382">
        <ele>1331</ele>
        <time>2021-08-07T10:12:52.366Z</time>
      </trkpt>
      <trkpt lat="46.91579" lon="8.65382">
        <ele>1331</ele>
        <time>2021-08-07T10:12:53.365Z</time>
      </trkpt>
      <trkpt lat="46.91579" lon="8.65382">
        <ele>1331</ele>
        <time>2021-08-07T10:12:54.366Z</time>
      </trkpt>
      <trkpt lat="46.9158" lon="8.65381">
        <ele>1331</ele>
        <time>2021-08-07T10:12:55.366Z</time>
      </trkpt>
      <trkpt lat="46.91579" lon="8.65381">
        <ele>1331</ele>
        <time>2021-08-07T10:12:56.365Z</time>
      </trkpt>
      <trkpt lat="46.9158" lon="8.65381">
        <ele>1331</ele>
        <time>2021-08-07T10:12:57.366Z</time>
      </trkpt>
      <trkpt lat="46.9158" lon="8.65381">
        <ele>1331</ele>
        <time>2021-08-07T10:12:58.366Z</time>
      </trkpt>
      <trkpt lat="46.91581" lon="8.65381">
        <ele>1331</ele>
        <time>2021-08-07T10:12:59.365Z</time>
      </trkpt>
      <trkpt lat="46.91581" lon="8.65381">
        <ele>1331</ele>
        <time>2021-08-07T10:13:00.366Z</time>
      </trkpt>
      <trkpt lat="46.91581" lon="8.6538">
        <ele>1330</ele>
        <time>2021-08-07T10:13:01.365Z</time>
      </trkpt>
      <trkpt lat="46.91582" lon="8.65379">
        <ele>1329</ele>
        <time>2021-08-07T10:13:02.366Z</time>
      </trkpt>
      <trkpt lat="46.91583" lon="8.65378">
        <ele>1328</ele>
        <time>2021-08-07T10:13:03.366Z</time>
      </trkpt>
      <trkpt lat="46.91583" lon="8.65377">
        <ele>1327</ele>
        <time>2021-08-07T10:13:04.366Z</time>
      </trkpt>
      <trkpt lat="46.91584" lon="8.65376">
        <ele>1326</ele>
        <time>2021-08-07T10:13:05.366Z</time>
      </trkpt>
      <trkpt lat="46.91585" lon="8.65376">
        <ele>1325</ele>
        <time>2021-08-07T10:13:06.366Z</time>
      </trkpt>
      <trkpt lat="46.91585" lon="8.65376">
        <ele>1325</ele>
        <time>2021-08-07T10:13:07.366Z</time>
      </trkpt>
      <trkpt lat="46.91586" lon="8.65376">
        <ele>1324</ele>
        <time>2021-08-07T10:13:08.366Z</time>
      </trkpt>
      <trkpt lat="46.91585" lon="8.65375">
        <ele>1323</ele>
        <time>2021-08-07T10:13:09.365Z</time>
      </trkpt>
      <trkpt lat="46.91585" lon="8.65374">
        <ele>1323</ele>
        <time>2021-08-07T10:13:10.366Z</time>
      </trkpt>
      <trkpt lat="46.91585" lon="8.65369">
        <ele>1321</ele>
        <time>2021-08-07T10:13:11.366Z</time>
      </trkpt>
      <trkpt lat="46.91585" lon="8.65369">
        <ele>1320</ele>
        <time>2021-08-07T10:13:12.365Z</time>
      </trkpt>
      <trkpt lat="46.91584" lon="8.65362">
        <ele>1304</ele>
        <time>2021-08-07T10:13:13.365Z</time>
      </trkpt>
      <trkpt lat="46.91583" lon="8.65362">
        <ele>1303</ele>
        <time>2021-08-07T10:13:14.365Z</time>
      </trkpt>
      <trkpt lat="46.91581" lon="8.65362">
        <ele>1307</ele>
        <time>2021-08-07T10:13:15.366Z</time>
      </trkpt>
      <trkpt lat="46.9158" lon="8.65361">
        <ele>1307</ele>
        <time>2021-08-07T10:13:16.365Z</time>
      </trkpt>
      <trkpt lat="46.9158" lon="8.65362">
        <ele>1307</ele>
        <time>2021-08-07T10:13:17.365Z</time>
      </trkpt>
      <trkpt lat="46.91581" lon="8.65362">
        <ele>1307</ele>
        <time>2021-08-07T10:13:18.366Z</time>
      </trkpt>
      <trkpt lat="46.91579" lon="8.65354">
        <ele>1326</ele>
        <time>2021-08-07T10:13:19.365Z</time>
      </trkpt>
      <trkpt lat="46.91579" lon="8.65354">
        <ele>1327</ele>
        <time>2021-08-07T10:13:20.365Z</time>
      </trkpt>
      <trkpt lat="46.91579" lon="8.65354">
        <ele>1328</ele>
        <time>2021-08-07T10:13:21.366Z</time>
      </trkpt>
      <trkpt lat="46.91579" lon="8.65351">
        <ele>1321</ele>
        <time>2021-08-07T10:13:22.366Z</time>
      </trkpt>
      <trkpt lat="46.91579" lon="8.65351">
        <ele>1320</ele>
        <time>2021-08-07T10:13:23.366Z</time>
      </trkpt>
      <trkpt lat="46.91581" lon="8.65351">
        <ele>1318</ele>
        <time>2021-08-07T10:13:24.365Z</time>
      </trkpt>
      <trkpt lat="46.91581" lon="8.65351">
        <ele>1318</ele>
        <time>2021-08-07T10:13:25.365Z</time>
      </trkpt>
      <trkpt lat="46.91582" lon="8.65351">
        <ele>1318</ele>
        <time>2021-08-07T10:13:26.365Z</time>
      </trkpt>
      <trkpt lat="46.91583" lon="8.65351">
        <ele>1318</ele>
        <time>2021-08-07T10:13:27.366Z</time>
      </trkpt>
      <trkpt lat="46.91584" lon="8.65351">
        <ele>1317</ele>
        <time>2021-08-07T10:13:28.366Z</time>
      </trkpt>
      <trkpt lat="46.91585" lon="8.65352">
        <ele>1317</ele>
        <time>2021-08-07T10:13:29.366Z</time>
      </trkpt>
      <trkpt lat="46.91586" lon="8.65353">
        <ele>1317</ele>
        <time>2021-08-07T10:13:30.365Z</time>
      </trkpt>
      <trkpt lat="46.91591" lon="8.65359">
        <ele>1318</ele>
        <time>2021-08-07T10:13:31.366Z</time>
      </trkpt>
      <trkpt lat="46.91591" lon="8.6536">
        <ele>1318</ele>
        <time>2021-08-07T10:13:32.366Z</time>
      </trkpt>
      <trkpt lat="46.91592" lon="8.65361">
        <ele>1317</ele>
        <time>2021-08-07T10:13:33.365Z</time>
      </trkpt>
      <trkpt lat="46.91593" lon="8.65362">
        <ele>1317</ele>
        <time>2021-08-07T10:13:34.365Z</time>
      </trkpt>
      <trkpt lat="46.91594" lon="8.65363">
        <ele>1317</ele>
        <time>2021-08-07T10:13:35.366Z</time>
      </trkpt>
      <trkpt lat="46.91595" lon="8.65364">
        <ele>1317</ele>
        <time>2021-08-07T10:13:36.365Z</time>
      </trkpt>
      <trkpt lat="46.91605" lon="8.65369">
        <ele>1316</ele>
        <time>2021-08-07T10:13:37.367Z</time>
      </trkpt>
      <trkpt lat="46.91606" lon="8.65368">
        <ele>1315</ele>
        <time>2021-08-07T10:13:38.367Z</time>
      </trkpt>
      <trkpt lat="46.91606" lon="8.65367">
        <ele>1315</ele>
        <time>2021-08-07T10:13:39.367Z</time>
      </trkpt>
      <trkpt lat="46.91607" lon="8.65367">
        <ele>1314</ele>
        <time>2021-08-07T10:13:40.367Z</time>
      </trkpt>
      <trkpt lat="46.91608" lon="8.65367">
        <ele>1313</ele>
        <time>2021-08-07T10:13:41.367Z</time>
      </trkpt>
      <trkpt lat="46.91608" lon="8.65367">
        <ele>1313</ele>
        <time>2021-08-07T10:13:42.367Z</time>
      </trkpt>
      <trkpt lat="46.91608" lon="8.6537">
        <ele>1311</ele>
        <time>2021-08-07T10:13:43.367Z</time>
      </trkpt>
      <trkpt lat="46.91608" lon="8.65371">
        <ele>1311</ele>
        <time>2021-08-07T10:13:44.368Z</time>
      </trkpt>
      <trkpt lat="46.91609" lon="8.65371">
        <ele>1310</ele>
        <time>2021-08-07T10:13:45.368Z</time>
      </trkpt>
      <trkpt lat="46.91609" lon="8.65371">
        <ele>1310</ele>
        <time>2021-08-07T10:13:46.367Z</time>
      </trkpt>
      <trkpt lat="46.91609" lon="8.65371">
        <ele>1310</ele>
        <time>2021-08-07T10:13:47.367Z</time>
      </trkpt>
      <trkpt lat="46.91609" lon="8.6537">
        <ele>1309</ele>
        <time>2021-08-07T10:13:48.368Z</time>
      </trkpt>
      <trkpt lat="46.91609" lon="8.65369">
        <ele>1309</ele>
        <time>2021-08-07T10:13:49.368Z</time>
      </trkpt>
      <trkpt lat="46.91608" lon="8.65367">
        <ele>1309</ele>
        <time>2021-08-07T10:13:50.368Z</time>
      </trkpt>
      <trkpt lat="46.91608" lon="8.65366">
        <ele>1309</ele>
        <time>2021-08-07T10:13:51.367Z</time>
      </trkpt>
      <trkpt lat="46.91608" lon="8.65365">
        <ele>1309</ele>
        <time>2021-08-07T10:13:52.367Z</time>
      </trkpt>
      <trkpt lat="46.91607" lon="8.65364">
        <ele>1309</ele>
        <time>2021-08-07T10:13:53.367Z</time>
      </trkpt>
      <trkpt lat="46.91607" lon="8.65362">
        <ele>1310</ele>
        <time>2021-08-07T10:13:54.368Z</time>
      </trkpt>
      <trkpt lat="46.91606" lon="8.65362">
        <ele>1310</ele>
        <time>2021-08-07T10:13:55.367Z</time>
      </trkpt>
      <trkpt lat="46.91605" lon="8.65361">
        <ele>1311</ele>
        <time>2021-08-07T10:13:56.367Z</time>
      </trkpt>
      <trkpt lat="46.91604" lon="8.6536">
        <ele>1310</ele>
        <time>2021-08-07T10:13:57.367Z</time>
      </trkpt>
      <trkpt lat="46.91604" lon="8.65358">
        <ele>1310</ele>
        <time>2021-08-07T10:13:58.367Z</time>
      </trkpt>
      <trkpt lat="46.91603" lon="8.65358">
        <ele>1310</ele>
        <time>2021-08-07T10:13:59.368Z</time>
      </trkpt>
      <trkpt lat="46.91603" lon="8.65358">
        <ele>1310</ele>
        <time>2021-08-07T10:14:00.367Z</time>
      </trkpt>
      <trkpt lat="46.91603" lon="8.65359">
        <ele>1310</ele>
        <time>2021-08-07T10:14:01.368Z</time>
      </trkpt>
      <trkpt lat="46.91604" lon="8.65361">
        <ele>1310</ele>
        <time>2021-08-07T10:14:02.369Z</time>
      </trkpt>
      <trkpt lat="46.91603" lon="8.65362">
        <ele>1310</ele>
        <time>2021-08-07T10:14:03.369Z</time>
      </trkpt>
      <trkpt lat="46.91603" lon="8.65362">
        <ele>1310</ele>
        <time>2021-08-07T10:14:04.368Z</time>
      </trkpt>
      <trkpt lat="46.91604" lon="8.65361">
        <ele>1309</ele>
        <time>2021-08-07T10:14:05.369Z</time>
      </trkpt>
      <trkpt lat="46.91604" lon="8.65361">
        <ele>1309</ele>
        <time>2021-08-07T10:14:06.369Z</time>
      </trkpt>
      <trkpt lat="46.91605" lon="8.65362">
        <ele>1309</ele>
        <time>2021-08-07T10:14:07.368Z</time>
      </trkpt>
      <trkpt lat="46.91606" lon="8.65362">
        <ele>1309</ele>
        <time>2021-08-07T10:14:08.368Z</time>
      </trkpt>
      <trkpt lat="46.91606" lon="8.65362">
        <ele>1309</ele>
        <time>2021-08-07T10:14:09.369Z</time>
      </trkpt>
      <trkpt lat="46.91606" lon="8.65362">
        <ele>1309</ele>
        <time>2021-08-07T10:14:10.369Z</time>
      </trkpt>
      <trkpt lat="46.91607" lon="8.65362">
        <ele>1308</ele>
        <time>2021-08-07T10:14:11.369Z</time>
      </trkpt>
      <trkpt lat="46.91607" lon="8.65362">
        <ele>1308</ele>
        <time>2021-08-07T10:14:12.369Z</time>
      </trkpt>
      <trkpt lat="46.91607" lon="8.65362">
        <ele>1308</ele>
        <time>2021-08-07T10:14:13.369Z</time>
      </trkpt>
      <trkpt lat="46.91608" lon="8.65363">
        <ele>1309</ele>
        <time>2021-08-07T10:14:14.369Z</time>
      </trkpt>
      <trkpt lat="46.91609" lon="8.65364">
        <ele>1309</ele>
        <time>2021-08-07T10:14:15.369Z</time>
      </trkpt>
      <trkpt lat="46.9161" lon="8.65363">
        <ele>1309</ele>
        <time>2021-08-07T10:14:16.369Z</time>
      </trkpt>
      <trkpt lat="46.9161" lon="8.65364">
        <ele>1309</ele>
        <time>2021-08-07T10:14:17.369Z</time>
      </trkpt>
      <trkpt lat="46.9161" lon="8.65364">
        <ele>1309</ele>
        <time>2021-08-07T10:14:18.369Z</time>
      </trkpt>
      <trkpt lat="46.9161" lon="8.65365">
        <ele>1309</ele>
        <time>2021-08-07T10:14:19.369Z</time>
      </trkpt>
      <trkpt lat="46.9161" lon="8.65365">
        <ele>1309</ele>
        <time>2021-08-07T10:14:20.369Z</time>
      </trkpt>
      <trkpt lat="46.9161" lon="8.65365">
        <ele>1308</ele>
        <time>2021-08-07T10:14:21.369Z</time>
      </trkpt>
      <trkpt lat="46.9161" lon="8.65366">
        <ele>1307</ele>
        <time>2021-08-07T10:14:22.370Z</time>
      </trkpt>
      <trkpt lat="46.9161" lon="8.65366">
        <ele>1307</ele>
        <time>2021-08-07T10:14:23.369Z</time>
      </trkpt>
      <trkpt lat="46.9161" lon="8.65367">
        <ele>1306</ele>
        <time>2021-08-07T10:14:24.369Z</time>
      </trkpt>
      <trkpt lat="46.9161" lon="8.65368">
        <ele>1306</ele>
        <time>2021-08-07T10:14:25.369Z</time>
      </trkpt>
      <trkpt lat="46.91611" lon="8.65368">
        <ele>1305</ele>
        <time>2021-08-07T10:14:26.369Z</time>
      </trkpt>
      <trkpt lat="46.91612" lon="8.65369">
        <ele>1305</ele>
        <time>2021-08-07T10:14:27.369Z</time>
      </trkpt>
      <trkpt lat="46.91613" lon="8.65371">
        <ele>1304</ele>
        <time>2021-08-07T10:14:28.370Z</time>
      </trkpt>
      <trkpt lat="46.91614" lon="8.65371">
        <ele>1304</ele>
        <time>2021-08-07T10:14:29.369Z</time>
      </trkpt>
      <trkpt lat="46.91614" lon="8.65372">
        <ele>1303</ele>
        <time>2021-08-07T10:14:30.369Z</time>
      </trkpt>
      <trkpt lat="46.91615" lon="8.65373">
        <ele>1303</ele>
        <time>2021-08-07T10:14:31.370Z</time>
      </trkpt>
      <trkpt lat="46.91617" lon="8.65373">
        <ele>1303</ele>
        <time>2021-08-07T10:14:34.459Z</time>
      </trkpt>
      <trkpt lat="46.91618" lon="8.65374">
        <ele>1302</ele>
        <time>2021-08-07T10:14:35.460Z</time>
      </trkpt>
      <trkpt lat="46.9162" lon="8.65374">
        <ele>1302</ele>
        <time>2021-08-07T10:14:36.459Z</time>
      </trkpt>
      <trkpt lat="46.9162" lon="8.65374">
        <ele>1302</ele>
        <time>2021-08-07T10:14:37.460Z</time>
      </trkpt>
      <trkpt lat="46.9162" lon="8.65374">
        <ele>1302</ele>
        <time>2021-08-07T10:14:38.460Z</time>
      </trkpt>
      <trkpt lat="46.91619" lon="8.65373">
        <ele>1301</ele>
        <time>2021-08-07T10:14:43.580Z</time>
      </trkpt>
      <trkpt lat="46.91617" lon="8.65374">
        <ele>1301</ele>
        <time>2021-08-07T10:14:44.581Z</time>
      </trkpt>
      <trkpt lat="46.91617" lon="8.65374">
        <ele>1301</ele>
        <time>2021-08-07T10:14:45.580Z</time>
      </trkpt>
      <trkpt lat="46.91617" lon="8.65374">
        <ele>1301</ele>
        <time>2021-08-07T10:14:46.580Z</time>
      </trkpt>
      <trkpt lat="46.91618" lon="8.65373">
        <ele>1301</ele>
        <time>2021-08-07T10:14:47.581Z</time>
      </trkpt>
      <trkpt lat="46.91619" lon="8.65373">
        <ele>1301</ele>
        <time>2021-08-07T10:14:48.580Z</time>
      </trkpt>
      <trkpt lat="46.91619" lon="8.65373">
        <ele>1300</ele>
        <time>2021-08-07T10:14:49.580Z</time>
      </trkpt>
      <trkpt lat="46.91618" lon="8.65374">
        <ele>1300</ele>
        <time>2021-08-07T10:14:50.580Z</time>
      </trkpt>
      <trkpt lat="46.91617" lon="8.65374">
        <ele>1300</ele>
        <time>2021-08-07T10:14:51.581Z</time>
      </trkpt>
      <trkpt lat="46.91617" lon="8.65374">
        <ele>1300</ele>
        <time>2021-08-07T10:14:52.581Z</time>
      </trkpt>
      <trkpt lat="46.91618" lon="8.65373">
        <ele>1300</ele>
        <time>2021-08-07T10:14:53.581Z</time>
      </trkpt>
      <trkpt lat="46.91621" lon="8.65372">
        <ele>1300</ele>
        <time>2021-08-07T10:14:54.580Z</time>
      </trkpt>
      <trkpt lat="46.91621" lon="8.65372">
        <ele>1300</ele>
        <time>2021-08-07T10:14:55.581Z</time>
      </trkpt>
      <trkpt lat="46.9162" lon="8.65374">
        <ele>1300</ele>
        <time>2021-08-07T10:14:56.580Z</time>
      </trkpt>
      <trkpt lat="46.91621" lon="8.65374">
        <ele>1300</ele>
        <time>2021-08-07T10:14:57.580Z</time>
      </trkpt>
      <trkpt lat="46.9162" lon="8.65373">
        <ele>1300</ele>
        <time>2021-08-07T10:14:58.580Z</time>
      </trkpt>
      <trkpt lat="46.91619" lon="8.65372">
        <ele>1300</ele>
        <time>2021-08-07T10:14:59.580Z</time>
      </trkpt>
      <trkpt lat="46.91619" lon="8.65372">
        <ele>1300</ele>
        <time>2021-08-07T10:15:00.581Z</time>
      </trkpt>
      <trkpt lat="46.91618" lon="8.65371">
        <ele>1300</ele>
        <time>2021-08-07T10:15:01.581Z</time>
      </trkpt>
      <trkpt lat="46.91618" lon="8.65371">
        <ele>1300</ele>
        <time>2021-08-07T10:15:02.580Z</time>
      </trkpt>
      <trkpt lat="46.91617" lon="8.65372">
        <ele>1300</ele>
        <time>2021-08-07T10:15:03.580Z</time>
      </trkpt>
      <trkpt lat="46.91616" lon="8.65374">
        <ele>1299</ele>
        <time>2021-08-07T10:15:04.581Z</time>
      </trkpt>
      <trkpt lat="46.91616" lon="8.65375">
        <ele>1299</ele>
        <time>2021-08-07T10:15:05.581Z</time>
      </trkpt>
      <trkpt lat="46.91616" lon="8.65377">
        <ele>1299</ele>
        <time>2021-08-07T10:15:06.581Z</time>
      </trkpt>
      <trkpt lat="46.91616" lon="8.65377">
        <ele>1298</ele>
        <time>2021-08-07T10:15:07.580Z</time>
      </trkpt>
      <trkpt lat="46.91615" lon="8.65378">
        <ele>1298</ele>
        <time>2021-08-07T10:15:08.580Z</time>
      </trkpt>
      <trkpt lat="46.91616" lon="8.65378">
        <ele>1298</ele>
        <time>2021-08-07T10:15:09.581Z</time>
      </trkpt>
      <trkpt lat="46.91616" lon="8.65377">
        <ele>1297</ele>
        <time>2021-08-07T10:15:10.582Z</time>
      </trkpt>
      <trkpt lat="46.91617" lon="8.65377">
        <ele>1297</ele>
        <time>2021-08-07T10:15:11.581Z</time>
      </trkpt>
      <trkpt lat="46.91616" lon="8.65377">
        <ele>1297</ele>
        <time>2021-08-07T10:15:12.582Z</time>
      </trkpt>
      <trkpt lat="46.91614" lon="8.65377">
        <ele>1297</ele>
        <time>2021-08-07T10:15:13.582Z</time>
      </trkpt>
      <trkpt lat="46.91613" lon="8.65377">
        <ele>1297</ele>
        <time>2021-08-07T10:15:14.581Z</time>
      </trkpt>
      <trkpt lat="46.91611" lon="8.65377">
        <ele>1297</ele>
        <time>2021-08-07T10:15:15.581Z</time>
      </trkpt>
      <trkpt lat="46.91611" lon="8.65376">
        <ele>1297</ele>
        <time>2021-08-07T10:15:16.582Z</time>
      </trkpt>
      <trkpt lat="46.9161" lon="8.65377">
        <ele>1297</ele>
        <time>2021-08-07T10:15:17.582Z</time>
      </trkpt>
      <trkpt lat="46.91611" lon="8.65376">
        <ele>1297</ele>
        <time>2021-08-07T10:15:18.582Z</time>
      </trkpt>
      <trkpt lat="46.91612" lon="8.65376">
        <ele>1298</ele>
        <time>2021-08-07T10:15:19.582Z</time>
      </trkpt>
      <trkpt lat="46.91612" lon="8.65376">
        <ele>1298</ele>
        <time>2021-08-07T10:15:20.582Z</time>
      </trkpt>
      <trkpt lat="46.91613" lon="8.65376">
        <ele>1299</ele>
        <time>2021-08-07T10:15:21.581Z</time>
      </trkpt>
      <trkpt lat="46.91613" lon="8.65377">
        <ele>1299</ele>
        <time>2021-08-07T10:15:22.581Z</time>
      </trkpt>
      <trkpt lat="46.91614" lon="8.65377">
        <ele>1299</ele>
        <time>2021-08-07T10:15:23.582Z</time>
      </trkpt>
      <trkpt lat="46.91616" lon="8.65379">
        <ele>1300</ele>
        <time>2021-08-07T10:15:24.582Z</time>
      </trkpt>
      <trkpt lat="46.91618" lon="8.65379">
        <ele>1300</ele>
        <time>2021-08-07T10:15:25.582Z</time>
      </trkpt>
      <trkpt lat="46.91618" lon="8.65379">
        <ele>1301</ele>
        <time>2021-08-07T10:15:26.581Z</time>
      </trkpt>
      <trkpt lat="46.91618" lon="8.65379">
        <ele>1301</ele>
        <time>2021-08-07T10:15:27.581Z</time>
      </trkpt>
      <trkpt lat="46.91618" lon="8.6538">
        <ele>1301</ele>
        <time>2021-08-07T10:15:28.582Z</time>
      </trkpt>
      <trkpt lat="46.91619" lon="8.65382">
        <ele>1301</ele>
        <time>2021-08-07T10:15:29.582Z</time>
      </trkpt>
      <trkpt lat="46.91618" lon="8.65382">
        <ele>1301</ele>
        <time>2021-08-07T10:15:30.582Z</time>
      </trkpt>
      <trkpt lat="46.91617" lon="8.65383">
        <ele>1301</ele>
        <time>2021-08-07T10:15:31.582Z</time>
      </trkpt>
      <trkpt lat="46.91617" lon="8.65386">
        <ele>1301</ele>
        <time>2021-08-07T10:15:32.581Z</time>
      </trkpt>
      <trkpt lat="46.91616" lon="8.65388">
        <ele>1301</ele>
        <time>2021-08-07T10:15:33.582Z</time>
      </trkpt>
      <trkpt lat="46.91614" lon="8.6539">
        <ele>1301</ele>
        <time>2021-08-07T10:15:34.582Z</time>
      </trkpt>
      <trkpt lat="46.91614" lon="8.65392">
        <ele>1301</ele>
        <time>2021-08-07T10:15:35.582Z</time>
      </trkpt>
      <trkpt lat="46.91615" lon="8.65394">
        <ele>1302</ele>
        <time>2021-08-07T10:15:36.582Z</time>
      </trkpt>
      <trkpt lat="46.91614" lon="8.65394">
        <ele>1302</ele>
        <time>2021-08-07T10:15:37.581Z</time>
      </trkpt>
      <trkpt lat="46.91615" lon="8.65395">
        <ele>1302</ele>
        <time>2021-08-07T10:15:38.582Z</time>
      </trkpt>
      <trkpt lat="46.91615" lon="8.65396">
        <ele>1302</ele>
        <time>2021-08-07T10:15:39.581Z</time>
      </trkpt>
      <trkpt lat="46.91617" lon="8.65396">
        <ele>1302</ele>
        <time>2021-08-07T10:15:40.582Z</time>
      </trkpt>
      <trkpt lat="46.91619" lon="8.65396">
        <ele>1302</ele>
        <time>2021-08-07T10:15:41.582Z</time>
      </trkpt>
      <trkpt lat="46.91621" lon="8.65396">
        <ele>1303</ele>
        <time>2021-08-07T10:15:42.581Z</time>
      </trkpt>
      <trkpt lat="46.91622" lon="8.65396">
        <ele>1303</ele>
        <time>2021-08-07T10:15:43.582Z</time>
      </trkpt>
      <trkpt lat="46.91624" lon="8.65395">
        <ele>1303</ele>
        <time>2021-08-07T10:15:44.582Z</time>
      </trkpt>
      <trkpt lat="46.91624" lon="8.65394">
        <ele>1303</ele>
        <time>2021-08-07T10:15:45.582Z</time>
      </trkpt>
      <trkpt lat="46.91626" lon="8.65394">
        <ele>1303</ele>
        <time>2021-08-07T10:15:46.582Z</time>
      </trkpt>
      <trkpt lat="46.91626" lon="8.65397">
        <ele>1303</ele>
        <time>2021-08-07T10:15:47.582Z</time>
      </trkpt>
      <trkpt lat="46.91625" lon="8.654">
        <ele>1303</ele>
        <time>2021-08-07T10:15:48.582Z</time>
      </trkpt>
      <trkpt lat="46.91626" lon="8.65401">
        <ele>1303</ele>
        <time>2021-08-07T10:15:49.582Z</time>
      </trkpt>
      <trkpt lat="46.91626" lon="8.65401">
        <ele>1303</ele>
        <time>2021-08-07T10:15:50.582Z</time>
      </trkpt>
      <trkpt lat="46.91627" lon="8.654">
        <ele>1303</ele>
        <time>2021-08-07T10:15:51.582Z</time>
      </trkpt>
      <trkpt lat="46.91627" lon="8.65399">
        <ele>1303</ele>
        <time>2021-08-07T10:15:52.582Z</time>
      </trkpt>
      <trkpt lat="46.91627" lon="8.65398">
        <ele>1303</ele>
        <time>2021-08-07T10:15:53.582Z</time>
      </trkpt>
      <trkpt lat="46.91628" lon="8.65398">
        <ele>1303</ele>
        <time>2021-08-07T10:15:54.582Z</time>
      </trkpt>
      <trkpt lat="46.91629" lon="8.65397">
        <ele>1303</ele>
        <time>2021-08-07T10:15:55.581Z</time>
      </trkpt>
      <trkpt lat="46.9163" lon="8.65398">
        <ele>1303</ele>
        <time>2021-08-07T10:15:56.581Z</time>
      </trkpt>
      <trkpt lat="46.9163" lon="8.65397">
        <ele>1303</ele>
        <time>2021-08-07T10:15:57.581Z</time>
      </trkpt>
      <trkpt lat="46.91631" lon="8.65396">
        <ele>1303</ele>
        <time>2021-08-07T10:15:58.582Z</time>
      </trkpt>
      <trkpt lat="46.91631" lon="8.65395">
        <ele>1303</ele>
        <time>2021-08-07T10:15:59.582Z</time>
      </trkpt>
      <trkpt lat="46.91633" lon="8.65393">
        <ele>1304</ele>
        <time>2021-08-07T10:16:00.581Z</time>
      </trkpt>
      <trkpt lat="46.91635" lon="8.65392">
        <ele>1304</ele>
        <time>2021-08-07T10:16:03.693Z</time>
      </trkpt>
      <trkpt lat="46.91635" lon="8.65393">
        <ele>1304</ele>
        <time>2021-08-07T10:16:04.693Z</time>
      </trkpt>
      <trkpt lat="46.91636" lon="8.65395">
        <ele>1304</ele>
        <time>2021-08-07T10:16:05.692Z</time>
      </trkpt>
      <trkpt lat="46.91637" lon="8.65398">
        <ele>1304</ele>
        <time>2021-08-07T10:16:06.693Z</time>
      </trkpt>
      <trkpt lat="46.91637" lon="8.65399">
        <ele>1304</ele>
        <time>2021-08-07T10:16:07.692Z</time>
      </trkpt>
      <trkpt lat="46.91637" lon="8.65401">
        <ele>1304</ele>
        <time>2021-08-07T10:16:08.692Z</time>
      </trkpt>
      <trkpt lat="46.91637" lon="8.65402">
        <ele>1304</ele>
        <time>2021-08-07T10:16:09.693Z</time>
      </trkpt>
      <trkpt lat="46.91637" lon="8.65402">
        <ele>1305</ele>
        <time>2021-08-07T10:16:10.692Z</time>
      </trkpt>
      <trkpt lat="46.91636" lon="8.65403">
        <ele>1306</ele>
        <time>2021-08-07T10:16:11.693Z</time>
      </trkpt>
      <trkpt lat="46.91636" lon="8.65403">
        <ele>1306</ele>
        <time>2021-08-07T10:16:12.693Z</time>
      </trkpt>
      <trkpt lat="46.91636" lon="8.65403">
        <ele>1306</ele>
        <time>2021-08-07T10:16:13.693Z</time>
      </trkpt>
      <trkpt lat="46.91636" lon="8.65404">
        <ele>1306</ele>
        <time>2021-08-07T10:16:14.696Z</time>
      </trkpt>
      <trkpt lat="46.91636" lon="8.65405">
        <ele>1306</ele>
        <time>2021-08-07T10:16:15.696Z</time>
      </trkpt>
      <trkpt lat="46.91636" lon="8.65406">
        <ele>1305</ele>
        <time>2021-08-07T10:16:16.695Z</time>
      </trkpt>
      <trkpt lat="46.91636" lon="8.65407">
        <ele>1305</ele>
        <time>2021-08-07T10:16:17.696Z</time>
      </trkpt>
      <trkpt lat="46.91637" lon="8.65408">
        <ele>1305</ele>
        <time>2021-08-07T10:16:18.695Z</time>
      </trkpt>
      <trkpt lat="46.91636" lon="8.65409">
        <ele>1305</ele>
        <time>2021-08-07T10:16:19.695Z</time>
      </trkpt>
      <trkpt lat="46.91636" lon="8.65409">
        <ele>1305</ele>
        <time>2021-08-07T10:16:20.696Z</time>
      </trkpt>
      <trkpt lat="46.91635" lon="8.6541">
        <ele>1304</ele>
        <time>2021-08-07T10:16:21.696Z</time>
      </trkpt>
      <trkpt lat="46.91634" lon="8.6541">
        <ele>1304</ele>
        <time>2021-08-07T10:16:22.695Z</time>
      </trkpt>
      <trkpt lat="46.91634" lon="8.65411">
        <ele>1304</ele>
        <time>2021-08-07T10:16:23.696Z</time>
      </trkpt>
      <trkpt lat="46.91634" lon="8.65412">
        <ele>1304</ele>
        <time>2021-08-07T10:16:24.696Z</time>
      </trkpt>
      <trkpt lat="46.91635" lon="8.65413">
        <ele>1303</ele>
        <time>2021-08-07T10:16:25.696Z</time>
      </trkpt>
      <trkpt lat="46.91636" lon="8.65414">
        <ele>1303</ele>
        <time>2021-08-07T10:16:26.695Z</time>
      </trkpt>
      <trkpt lat="46.91638" lon="8.65415">
        <ele>1303</ele>
        <time>2021-08-07T10:16:27.695Z</time>
      </trkpt>
      <trkpt lat="46.91639" lon="8.65415">
        <ele>1303</ele>
        <time>2021-08-07T10:16:28.695Z</time>
      </trkpt>
      <trkpt lat="46.9164" lon="8.65415">
        <ele>1303</ele>
        <time>2021-08-07T10:16:29.695Z</time>
      </trkpt>
      <trkpt lat="46.91641" lon="8.65415">
        <ele>1303</ele>
        <time>2021-08-07T10:16:30.696Z</time>
      </trkpt>
      <trkpt lat="46.9164" lon="8.65415">
        <ele>1303</ele>
        <time>2021-08-07T10:16:31.696Z</time>
      </trkpt>
      <trkpt lat="46.9164" lon="8.65416">
        <ele>1303</ele>
        <time>2021-08-07T10:16:32.696Z</time>
      </trkpt>
      <trkpt lat="46.9164" lon="8.65416">
        <ele>1303</ele>
        <time>2021-08-07T10:16:33.695Z</time>
      </trkpt>
      <trkpt lat="46.91639" lon="8.65416">
        <ele>1303</ele>
        <time>2021-08-07T10:16:34.696Z</time>
      </trkpt>
      <trkpt lat="46.91639" lon="8.65416">
        <ele>1304</ele>
        <time>2021-08-07T10:16:35.696Z</time>
      </trkpt>
      <trkpt lat="46.91639" lon="8.65416">
        <ele>1304</ele>
        <time>2021-08-07T10:16:36.696Z</time>
      </trkpt>
      <trkpt lat="46.9164" lon="8.65415">
        <ele>1304</ele>
        <time>2021-08-07T10:16:37.695Z</time>
      </trkpt>
      <trkpt lat="46.91641" lon="8.65415">
        <ele>1304</ele>
        <time>2021-08-07T10:16:38.696Z</time>
      </trkpt>
      <trkpt lat="46.91641" lon="8.65416">
        <ele>1304</ele>
        <time>2021-08-07T10:16:39.696Z</time>
      </trkpt>
      <trkpt lat="46.91641" lon="8.65416">
        <ele>1304</ele>
        <time>2021-08-07T10:16:40.695Z</time>
      </trkpt>
      <trkpt lat="46.91642" lon="8.65416">
        <ele>1304</ele>
        <time>2021-08-07T10:16:41.696Z</time>
      </trkpt>
      <trkpt lat="46.91642" lon="8.65416">
        <ele>1304</ele>
        <time>2021-08-07T10:16:42.695Z</time>
      </trkpt>
      <trkpt lat="46.91641" lon="8.65416">
        <ele>1305</ele>
        <time>2021-08-07T10:16:43.696Z</time>
      </trkpt>
      <trkpt lat="46.91643" lon="8.65416">
        <ele>1305</ele>
        <time>2021-08-07T10:16:44.695Z</time>
      </trkpt>
      <trkpt lat="46.91645" lon="8.65415">
        <ele>1305</ele>
        <time>2021-08-07T10:16:45.696Z</time>
      </trkpt>
      <trkpt lat="46.91648" lon="8.65416">
        <ele>1305</ele>
        <time>2021-08-07T10:16:46.696Z</time>
      </trkpt>
      <trkpt lat="46.9165" lon="8.65416">
        <ele>1306</ele>
        <time>2021-08-07T10:16:47.695Z</time>
      </trkpt>
      <trkpt lat="46.91651" lon="8.65416">
        <ele>1306</ele>
        <time>2021-08-07T10:16:48.696Z</time>
      </trkpt>
      <trkpt lat="46.91651" lon="8.65416">
        <ele>1307</ele>
        <time>2021-08-07T10:16:49.696Z</time>
      </trkpt>
      <trkpt lat="46.91651" lon="8.65416">
        <ele>1307</ele>
        <time>2021-08-07T10:16:50.695Z</time>
      </trkpt>
      <trkpt lat="46.9165" lon="8.65416">
        <ele>1307</ele>
        <time>2021-08-07T10:16:51.696Z</time>
      </trkpt>
      <trkpt lat="46.91651" lon="8.65417">
        <ele>1308</ele>
        <time>2021-08-07T10:16:55.722Z</time>
      </trkpt>
      <trkpt lat="46.91651" lon="8.65416">
        <ele>1308</ele>
        <time>2021-08-07T10:16:56.722Z</time>
      </trkpt>
      <trkpt lat="46.91651" lon="8.65416">
        <ele>1308</ele>
        <time>2021-08-07T10:16:57.722Z</time>
      </trkpt>
      <trkpt lat="46.91651" lon="8.65415">
        <ele>1308</ele>
        <time>2021-08-07T10:16:58.721Z</time>
      </trkpt>
      <trkpt lat="46.91651" lon="8.65415">
        <ele>1308</ele>
        <time>2021-08-07T10:17:11.846Z</time>
      </trkpt>
      <trkpt lat="46.91651" lon="8.65415">
        <ele>1308</ele>
        <time>2021-08-07T10:17:21.723Z</time>
      </trkpt>
      <trkpt lat="46.91651" lon="8.65415">
        <ele>1308</ele>
        <time>2021-08-07T10:17:22.723Z</time>
      </trkpt>
      <trkpt lat="46.91651" lon="8.65416">
        <ele>1308</ele>
        <time>2021-08-07T10:17:23.723Z</time>
      </trkpt>
      <trkpt lat="46.9165" lon="8.65417">
        <ele>1308</ele>
        <time>2021-08-07T10:17:33.582Z</time>
      </trkpt>
      <trkpt lat="46.9165" lon="8.65417">
        <ele>1308</ele>
        <time>2021-08-07T10:17:41.490Z</time>
      </trkpt>
      <trkpt lat="46.91649" lon="8.65418">
        <ele>1308</ele>
        <time>2021-08-07T10:17:42.491Z</time>
      </trkpt>
      <trkpt lat="46.91649" lon="8.65419">
        <ele>1309</ele>
        <time>2021-08-07T10:17:43.491Z</time>
      </trkpt>
      <trkpt lat="46.91649" lon="8.6542">
        <ele>1309</ele>
        <time>2021-08-07T10:17:44.491Z</time>
      </trkpt>
      <trkpt lat="46.91649" lon="8.6542">
        <ele>1309</ele>
        <time>2021-08-07T10:17:45.490Z</time>
      </trkpt>
      <trkpt lat="46.91649" lon="8.65421">
        <ele>1309</ele>
        <time>2021-08-07T10:17:46.491Z</time>
      </trkpt>
      <trkpt lat="46.9165" lon="8.65422">
        <ele>1309</ele>
        <time>2021-08-07T10:18:09.604Z</time>
      </trkpt>
      <trkpt lat="46.9165" lon="8.65422">
        <ele>1309</ele>
        <time>2021-08-07T10:18:10.604Z</time>
      </trkpt>
      <trkpt lat="46.9165" lon="8.65423">
        <ele>1309</ele>
        <time>2021-08-07T10:18:29.465Z</time>
      </trkpt>
      <trkpt lat="46.91651" lon="8.65424">
        <ele>1310</ele>
        <time>2021-08-07T10:18:30.466Z</time>
      </trkpt>
      <trkpt lat="46.91652" lon="8.65424">
        <ele>1310</ele>
        <time>2021-08-07T10:18:37.365Z</time>
      </trkpt>
      <trkpt lat="46.91654" lon="8.65424">
        <ele>1310</ele>
        <time>2021-08-07T10:18:38.366Z</time>
      </trkpt>
      <trkpt lat="46.91655" lon="8.65423">
        <ele>1310</ele>
        <time>2021-08-07T10:18:39.365Z</time>
      </trkpt>
      <trkpt lat="46.91655" lon="8.65424">
        <ele>1309</ele>
        <time>2021-08-07T10:18:45.492Z</time>
      </trkpt>
      <trkpt lat="46.91658" lon="8.65424">
        <ele>1304</ele>
        <time>2021-08-07T10:18:46.492Z</time>
      </trkpt>
      <trkpt lat="46.91658" lon="8.65424">
        <ele>1303</ele>
        <time>2021-08-07T10:19:08.331Z</time>
      </trkpt>
      <trkpt lat="46.91658" lon="8.65425">
        <ele>1302</ele>
        <time>2021-08-07T10:19:10.212Z</time>
      </trkpt>
      <trkpt lat="46.91658" lon="8.65425">
        <ele>1301</ele>
        <time>2021-08-07T10:19:11.213Z</time>
      </trkpt>
      <trkpt lat="46.91656" lon="8.65426">
        <ele>1300</ele>
        <time>2021-08-07T10:19:12.212Z</time>
      </trkpt>
      <trkpt lat="46.91655" lon="8.65426">
        <ele>1300</ele>
        <time>2021-08-07T10:19:13.212Z</time>
      </trkpt>
      <trkpt lat="46.91655" lon="8.65426">
        <ele>1299</ele>
        <time>2021-08-07T10:19:28.341Z</time>
      </trkpt>
      <trkpt lat="46.91655" lon="8.65426">
        <ele>1299</ele>
        <time>2021-08-07T10:19:29.341Z</time>
      </trkpt>
      <trkpt lat="46.91655" lon="8.65427">
        <ele>1298</ele>
        <time>2021-08-07T10:19:30.341Z</time>
      </trkpt>
      <trkpt lat="46.91656" lon="8.65428">
        <ele>1298</ele>
        <time>2021-08-07T10:19:31.341Z</time>
      </trkpt>
      <trkpt lat="46.91655" lon="8.65429">
        <ele>1297</ele>
        <time>2021-08-07T10:19:41.328Z</time>
      </trkpt>
      <trkpt lat="46.91655" lon="8.6543">
        <ele>1297</ele>
        <time>2021-08-07T10:19:42.328Z</time>
      </trkpt>
      <trkpt lat="46.91654" lon="8.65432">
        <ele>1297</ele>
        <time>2021-08-07T10:19:43.328Z</time>
      </trkpt>
      <trkpt lat="46.91654" lon="8.65432">
        <ele>1296</ele>
        <time>2021-08-07T10:19:44.328Z</time>
      </trkpt>
      <trkpt lat="46.91654" lon="8.65432">
        <ele>1296</ele>
        <time>2021-08-07T10:19:45.328Z</time>
      </trkpt>
      <trkpt lat="46.91655" lon="8.65431">
        <ele>1296</ele>
        <time>2021-08-07T10:19:46.329Z</time>
      </trkpt>
      <trkpt lat="46.91655" lon="8.6543">
        <ele>1296</ele>
        <time>2021-08-07T10:19:47.328Z</time>
      </trkpt>
      <trkpt lat="46.91656" lon="8.6543">
        <ele>1296</ele>
        <time>2021-08-07T10:19:48.328Z</time>
      </trkpt>
      <trkpt lat="46.91657" lon="8.65431">
        <ele>1296</ele>
        <time>2021-08-07T10:20:07.460Z</time>
      </trkpt>
      <trkpt lat="46.91657" lon="8.65432">
        <ele>1296</ele>
        <time>2021-08-07T10:20:08.460Z</time>
      </trkpt>
      <trkpt lat="46.91658" lon="8.65432">
        <ele>1296</ele>
        <time>2021-08-07T10:20:10.323Z</time>
      </trkpt>
      <trkpt lat="46.91658" lon="8.65433">
        <ele>1296</ele>
        <time>2021-08-07T10:20:11.323Z</time>
      </trkpt>
      <trkpt lat="46.91658" lon="8.65433">
        <ele>1296</ele>
        <time>2021-08-07T10:20:12.324Z</time>
      </trkpt>
      <trkpt lat="46.91658" lon="8.65433">
        <ele>1296</ele>
        <time>2021-08-07T10:20:13.324Z</time>
      </trkpt>
      <trkpt lat="46.91659" lon="8.65433">
        <ele>1296</ele>
        <time>2021-08-07T10:20:21.457Z</time>
      </trkpt>
      <trkpt lat="46.91658" lon="8.65434">
        <ele>1295</ele>
        <time>2021-08-07T10:20:22.457Z</time>
      </trkpt>
      <trkpt lat="46.91658" lon="8.65436">
        <ele>1295</ele>
        <time>2021-08-07T10:20:23.457Z</time>
      </trkpt>
      <trkpt lat="46.91658" lon="8.65437">
        <ele>1295</ele>
        <time>2021-08-07T10:20:24.457Z</time>
      </trkpt>
      <trkpt lat="46.91658" lon="8.65437">
        <ele>1295</ele>
        <time>2021-08-07T10:20:25.457Z</time>
      </trkpt>
      <trkpt lat="46.91658" lon="8.65438">
        <ele>1294</ele>
        <time>2021-08-07T10:20:26.457Z</time>
      </trkpt>
      <trkpt lat="46.91658" lon="8.65439">
        <ele>1294</ele>
        <time>2021-08-07T10:20:27.457Z</time>
      </trkpt>
      <trkpt lat="46.91658" lon="8.65439">
        <ele>1294</ele>
        <time>2021-08-07T10:20:53.590Z</time>
      </trkpt>
      <trkpt lat="46.91658" lon="8.6544">
        <ele>1293</ele>
        <time>2021-08-07T10:20:54.590Z</time>
      </trkpt>
      <trkpt lat="46.91657" lon="8.6544">
        <ele>1293</ele>
        <time>2021-08-07T10:21:00.486Z</time>
      </trkpt>
      <trkpt lat="46.91657" lon="8.6544">
        <ele>1292</ele>
        <time>2021-08-07T10:21:01.486Z</time>
      </trkpt>
      <trkpt lat="46.91657" lon="8.65441">
        <ele>1292</ele>
        <time>2021-08-07T10:21:02.486Z</time>
      </trkpt>
      <trkpt lat="46.91658" lon="8.65442">
        <ele>1291</ele>
        <time>2021-08-07T10:21:03.486Z</time>
      </trkpt>
      <trkpt lat="46.91658" lon="8.65443">
        <ele>1291</ele>
        <time>2021-08-07T10:21:04.486Z</time>
      </trkpt>
      <trkpt lat="46.91659" lon="8.65444">
        <ele>1290</ele>
        <time>2021-08-07T10:21:05.486Z</time>
      </trkpt>
      <trkpt lat="46.9166" lon="8.65444">
        <ele>1290</ele>
        <time>2021-08-07T10:21:06.486Z</time>
      </trkpt>
      <trkpt lat="46.91662" lon="8.65444">
        <ele>1289</ele>
        <time>2021-08-07T10:21:24.611Z</time>
      </trkpt>
      <trkpt lat="46.91664" lon="8.65445">
        <ele>1289</ele>
        <time>2021-08-07T10:21:42.465Z</time>
      </trkpt>
      <trkpt lat="46.91666" lon="8.65445">
        <ele>1288</ele>
        <time>2021-08-07T10:21:43.465Z</time>
      </trkpt>
      <trkpt lat="46.91667" lon="8.65445">
        <ele>1288</ele>
        <time>2021-08-07T10:22:05.323Z</time>
      </trkpt>
      <trkpt lat="46.91667" lon="8.65446">
        <ele>1287</ele>
        <time>2021-08-07T10:22:06.323Z</time>
      </trkpt>
      <trkpt lat="46.91667" lon="8.65446">
        <ele>1287</ele>
        <time>2021-08-07T10:22:07.323Z</time>
      </trkpt>
      <trkpt lat="46.91668" lon="8.65446">
        <ele>1286</ele>
        <time>2021-08-07T10:22:08.323Z</time>
      </trkpt>
      <trkpt lat="46.91668" lon="8.65447">
        <ele>1286</ele>
        <time>2021-08-07T10:22:09.323Z</time>
      </trkpt>
      <trkpt lat="46.91669" lon="8.65446">
        <ele>1286</ele>
        <time>2021-08-07T10:22:10.323Z</time>
      </trkpt>
      <trkpt lat="46.91669" lon="8.65446">
        <ele>1286</ele>
        <time>2021-08-07T10:22:11.323Z</time>
      </trkpt>
      <trkpt lat="46.91671" lon="8.65445">
        <ele>1286</ele>
        <time>2021-08-07T10:22:31.363Z</time>
      </trkpt>
      <trkpt lat="46.91671" lon="8.65445">
        <ele>1286</ele>
        <time>2021-08-07T10:22:32.363Z</time>
      </trkpt>
      <trkpt lat="46.91671" lon="8.65446">
        <ele>1286</ele>
        <time>2021-08-07T10:22:41.198Z</time>
      </trkpt>
      <trkpt lat="46.91672" lon="8.65446">
        <ele>1286</ele>
        <time>2021-08-07T10:22:48.008Z</time>
      </trkpt>
      <trkpt lat="46.91672" lon="8.65446">
        <ele>1286</ele>
        <time>2021-08-07T10:23:01.838Z</time>
      </trkpt>
      <trkpt lat="46.91673" lon="8.65446">
        <ele>1286</ele>
        <time>2021-08-07T10:23:02.838Z</time>
      </trkpt>
      <trkpt lat="46.91673" lon="8.65445">
        <ele>1285</ele>
        <time>2021-08-07T10:23:03.838Z</time>
      </trkpt>
      <trkpt lat="46.91672" lon="8.65445">
        <ele>1285</ele>
        <time>2021-08-07T10:23:28.734Z</time>
      </trkpt>
      <trkpt lat="46.91673" lon="8.65444">
        <ele>1285</ele>
        <time>2021-08-07T10:23:37.593Z</time>
      </trkpt>
      <trkpt lat="46.91673" lon="8.65444">
        <ele>1285</ele>
        <time>2021-08-07T10:23:38.593Z</time>
      </trkpt>
      <trkpt lat="46.91672" lon="8.65445">
        <ele>1284</ele>
        <time>2021-08-07T10:23:51.323Z</time>
      </trkpt>
      <trkpt lat="46.91672" lon="8.65445">
        <ele>1284</ele>
        <time>2021-08-07T10:23:52.322Z</time>
      </trkpt>
      <trkpt lat="46.91672" lon="8.65445">
        <ele>1284</ele>
        <time>2021-08-07T10:23:53.322Z</time>
      </trkpt>
      <trkpt lat="46.91673" lon="8.65444">
        <ele>1283</ele>
        <time>2021-08-07T10:23:54.323Z</time>
      </trkpt>
      <trkpt lat="46.91674" lon="8.65443">
        <ele>1283</ele>
        <time>2021-08-07T10:23:55.322Z</time>
      </trkpt>
      <trkpt lat="46.91674" lon="8.65443">
        <ele>1282</ele>
        <time>2021-08-07T10:23:56.323Z</time>
      </trkpt>
      <trkpt lat="46.91674" lon="8.65443">
        <ele>1282</ele>
        <time>2021-08-07T10:24:20.446Z</time>
      </trkpt>
      <trkpt lat="46.91673" lon="8.65442">
        <ele>1281</ele>
        <time>2021-08-07T10:24:21.446Z</time>
      </trkpt>
      <trkpt lat="46.91673" lon="8.65442">
        <ele>1280</ele>
        <time>2021-08-07T10:24:22.445Z</time>
      </trkpt>
      <trkpt lat="46.91674" lon="8.65442">
        <ele>1280</ele>
        <time>2021-08-07T10:24:37.598Z</time>
      </trkpt>
      <trkpt lat="46.91674" lon="8.65441">
        <ele>1279</ele>
        <time>2021-08-07T10:24:38.598Z</time>
      </trkpt>
      <trkpt lat="46.91675" lon="8.65441">
        <ele>1279</ele>
        <time>2021-08-07T10:24:39.598Z</time>
      </trkpt>
      <trkpt lat="46.91675" lon="8.6544">
        <ele>1278</ele>
        <time>2021-08-07T10:24:40.597Z</time>
      </trkpt>
      <trkpt lat="46.91674" lon="8.6544">
        <ele>1278</ele>
        <time>2021-08-07T10:24:41.598Z</time>
      </trkpt>
      <trkpt lat="46.91674" lon="8.65439">
        <ele>1277</ele>
        <time>2021-08-07T10:24:42.598Z</time>
      </trkpt>
      <trkpt lat="46.91673" lon="8.65439">
        <ele>1277</ele>
        <time>2021-08-07T10:24:43.597Z</time>
      </trkpt>
      <trkpt lat="46.91673" lon="8.65438">
        <ele>1277</ele>
        <time>2021-08-07T10:24:44.597Z</time>
      </trkpt>
      <trkpt lat="46.91673" lon="8.65438">
        <ele>1277</ele>
        <time>2021-08-07T10:24:45.597Z</time>
      </trkpt>
      <trkpt lat="46.91673" lon="8.65438">
        <ele>1277</ele>
        <time>2021-08-07T10:24:49.711Z</time>
      </trkpt>
      <trkpt lat="46.91674" lon="8.65438">
        <ele>1276</ele>
        <time>2021-08-07T10:24:50.712Z</time>
      </trkpt>
      <trkpt lat="46.91674" lon="8.65438">
        <ele>1276</ele>
        <time>2021-08-07T10:24:51.712Z</time>
      </trkpt>
      <trkpt lat="46.91674" lon="8.65438">
        <ele>1276</ele>
        <time>2021-08-07T10:24:52.712Z</time>
      </trkpt>
      <trkpt lat="46.91677" lon="8.65438">
        <ele>1276</ele>
        <time>2021-08-07T10:24:53.712Z</time>
      </trkpt>
      <trkpt lat="46.91678" lon="8.65438">
        <ele>1276</ele>
        <time>2021-08-07T10:24:54.712Z</time>
      </trkpt>
      <trkpt lat="46.91679" lon="8.65437">
        <ele>1276</ele>
        <time>2021-08-07T10:24:55.711Z</time>
      </trkpt>
      <trkpt lat="46.91681" lon="8.65436">
        <ele>1276</ele>
        <time>2021-08-07T10:24:56.712Z</time>
      </trkpt>
      <trkpt lat="46.91682" lon="8.65436">
        <ele>1276</ele>
        <time>2021-08-07T10:24:57.712Z</time>
      </trkpt>
      <trkpt lat="46.9168" lon="8.65435">
        <ele>1276</ele>
        <time>2021-08-07T10:24:58.711Z</time>
      </trkpt>
      <trkpt lat="46.91681" lon="8.65434">
        <ele>1276</ele>
        <time>2021-08-07T10:24:59.712Z</time>
      </trkpt>
      <trkpt lat="46.91681" lon="8.65434">
        <ele>1276</ele>
        <time>2021-08-07T10:25:00.711Z</time>
      </trkpt>
      <trkpt lat="46.9168" lon="8.65434">
        <ele>1277</ele>
        <time>2021-08-07T10:25:01.712Z</time>
      </trkpt>
      <trkpt lat="46.9168" lon="8.65434">
        <ele>1277</ele>
        <time>2021-08-07T10:25:02.711Z</time>
      </trkpt>
      <trkpt lat="46.91679" lon="8.65434">
        <ele>1277</ele>
        <time>2021-08-07T10:25:05.805Z</time>
      </trkpt>
      <trkpt lat="46.91679" lon="8.65435">
        <ele>1278</ele>
        <time>2021-08-07T10:25:06.804Z</time>
      </trkpt>
      <trkpt lat="46.91679" lon="8.65436">
        <ele>1278</ele>
        <time>2021-08-07T10:25:13.587Z</time>
      </trkpt>
      <trkpt lat="46.9168" lon="8.65437">
        <ele>1278</ele>
        <time>2021-08-07T10:25:14.586Z</time>
      </trkpt>
      <trkpt lat="46.91681" lon="8.65437">
        <ele>1279</ele>
        <time>2021-08-07T10:25:15.587Z</time>
      </trkpt>
      <trkpt lat="46.91683" lon="8.65438">
        <ele>1279</ele>
        <time>2021-08-07T10:25:29.732Z</time>
      </trkpt>
      <trkpt lat="46.91685" lon="8.65438">
        <ele>1279</ele>
        <time>2021-08-07T10:25:30.732Z</time>
      </trkpt>
      <trkpt lat="46.91686" lon="8.65438">
        <ele>1279</ele>
        <time>2021-08-07T10:26:16.588Z</time>
      </trkpt>
      <trkpt lat="46.91687" lon="8.65438">
        <ele>1279</ele>
        <time>2021-08-07T10:26:17.588Z</time>
      </trkpt>
      <trkpt lat="46.9169" lon="8.65437">
        <ele>1278</ele>
        <time>2021-08-07T10:26:18.587Z</time>
      </trkpt>
      <trkpt lat="46.91695" lon="8.65439">
        <ele>1278</ele>
        <time>2021-08-07T10:26:19.588Z</time>
      </trkpt>
      <trkpt lat="46.91698" lon="8.65439">
        <ele>1277</ele>
        <time>2021-08-07T10:26:49.694Z</time>
      </trkpt>
      <trkpt lat="46.917" lon="8.65438">
        <ele>1276</ele>
        <time>2021-08-07T10:26:50.693Z</time>
      </trkpt>
      <trkpt lat="46.91702" lon="8.65436">
        <ele>1276</ele>
        <time>2021-08-07T10:26:51.693Z</time>
      </trkpt>
      <trkpt lat="46.91703" lon="8.65435">
        <ele>1275</ele>
        <time>2021-08-07T10:28:02.826Z</time>
      </trkpt>
      <trkpt lat="46.91702" lon="8.65432">
        <ele>1274</ele>
        <time>2021-08-07T10:28:03.825Z</time>
      </trkpt>
      <trkpt lat="46.91701" lon="8.6543">
        <ele>1273</ele>
        <time>2021-08-07T10:28:05.695Z</time>
      </trkpt>
      <trkpt lat="46.91701" lon="8.65429">
        <ele>1273</ele>
        <time>2021-08-07T10:28:49.444Z</time>
      </trkpt>
      <trkpt lat="46.91701" lon="8.65429">
        <ele>1272</ele>
        <time>2021-08-07T10:28:50.444Z</time>
      </trkpt>
      <trkpt lat="46.91701" lon="8.6543">
        <ele>1272</ele>
        <time>2021-08-07T10:29:19.237Z</time>
      </trkpt>
      <trkpt lat="46.91701" lon="8.6543">
        <ele>1272</ele>
        <time>2021-08-07T10:29:20.236Z</time>
      </trkpt>
      <trkpt lat="46.91701" lon="8.65431">
        <ele>1271</ele>
        <time>2021-08-07T10:29:21.237Z</time>
      </trkpt>
      <trkpt lat="46.91701" lon="8.65432">
        <ele>1271</ele>
        <time>2021-08-07T10:30:26.336Z</time>
      </trkpt>
      <trkpt lat="46.917" lon="8.65432">
        <ele>1271</ele>
        <time>2021-08-07T10:30:27.336Z</time>
      </trkpt>
      <trkpt lat="46.91699" lon="8.65433">
        <ele>1271</ele>
        <time>2021-08-07T10:31:00.210Z</time>
      </trkpt>
      <trkpt lat="46.91696" lon="8.65433">
        <ele>1271</ele>
        <time>2021-08-07T10:31:01.211Z</time>
      </trkpt>
      <trkpt lat="46.91699" lon="8.65434">
        <ele>1270</ele>
        <time>2021-08-07T10:31:31.121Z</time>
      </trkpt>
      <trkpt lat="46.91695" lon="8.65434">
        <ele>1270</ele>
        <time>2021-08-07T10:31:59.964Z</time>
      </trkpt>
      <trkpt lat="46.91697" lon="8.65435">
        <ele>1270</ele>
        <time>2021-08-07T10:32:00.963Z</time>
      </trkpt>
      <trkpt lat="46.91698" lon="8.65435">
        <ele>1270</ele>
        <time>2021-08-07T10:32:03.833Z</time>
      </trkpt>
      <trkpt lat="46.91702" lon="8.65434">
        <ele>1271</ele>
        <time>2021-08-07T10:32:04.832Z</time>
      </trkpt>
      <trkpt lat="46.91706" lon="8.65433">
        <ele>1271</ele>
        <time>2021-08-07T10:32:05.832Z</time>
      </trkpt>
      <trkpt lat="46.91708" lon="8.65433">
        <ele>1271</ele>
        <time>2021-08-07T10:32:07.556Z</time>
      </trkpt>
      <trkpt lat="46.91709" lon="8.65432">
        <ele>1271</ele>
        <time>2021-08-07T10:32:08.555Z</time>
      </trkpt>
      <trkpt lat="46.91711" lon="8.65431">
        <ele>1271</ele>
        <time>2021-08-07T10:32:09.555Z</time>
      </trkpt>
      <trkpt lat="46.91712" lon="8.65431">
        <ele>1271</ele>
        <time>2021-08-07T10:32:52.609Z</time>
      </trkpt>
      <trkpt lat="46.91712" lon="8.65431">
        <ele>1271</ele>
        <time>2021-08-07T10:32:53.610Z</time>
      </trkpt>
      <trkpt lat="46.91713" lon="8.6543">
        <ele>1272</ele>
        <time>2021-08-07T10:35:01.508Z</time>
      </trkpt>
      <trkpt lat="46.91712" lon="8.6543">
        <ele>1272</ele>
        <time>2021-08-07T10:35:02.508Z</time>
      </trkpt>
      <trkpt lat="46.91714" lon="8.65429">
        <ele>1272</ele>
        <time>2021-08-07T10:35:30.374Z</time>
      </trkpt>
      <trkpt lat="46.91715" lon="8.65429">
        <ele>1272</ele>
        <time>2021-08-07T10:35:31.373Z</time>
      </trkpt>
      <trkpt lat="46.91715" lon="8.65429">
        <ele>1271</ele>
        <time>2021-08-07T10:35:32.373Z</time>
      </trkpt>
      <trkpt lat="46.91715" lon="8.65429">
        <ele>1271</ele>
        <time>2021-08-07T10:35:33.373Z</time>
      </trkpt>
      <trkpt lat="46.91716" lon="8.65429">
        <ele>1271</ele>
        <time>2021-08-07T10:35:34.373Z</time>
      </trkpt>
      <trkpt lat="46.91716" lon="8.65429">
        <ele>1270</ele>
        <time>2021-08-07T10:35:35.373Z</time>
      </trkpt>
      <trkpt lat="46.91716" lon="8.65429">
        <ele>1270</ele>
        <time>2021-08-07T10:35:36.373Z</time>
      </trkpt>
      <trkpt lat="46.91717" lon="8.6543">
        <ele>1270</ele>
        <time>2021-08-07T10:35:37.373Z</time>
      </trkpt>
      <trkpt lat="46.91716" lon="8.6543">
        <ele>1270</ele>
        <time>2021-08-07T10:35:38.373Z</time>
      </trkpt>
      <trkpt lat="46.91717" lon="8.6543">
        <ele>1270</ele>
        <time>2021-08-07T10:35:39.373Z</time>
      </trkpt>
      <trkpt lat="46.91716" lon="8.65429">
        <ele>1270</ele>
        <time>2021-08-07T10:35:40.373Z</time>
      </trkpt>
      <trkpt lat="46.91714" lon="8.65429">
        <ele>1270</ele>
        <time>2021-08-07T10:35:41.373Z</time>
      </trkpt>
      <trkpt lat="46.91713" lon="8.6543">
        <ele>1270</ele>
        <time>2021-08-07T10:35:42.373Z</time>
      </trkpt>
      <trkpt lat="46.91711" lon="8.6543">
        <ele>1270</ele>
        <time>2021-08-07T10:35:43.373Z</time>
      </trkpt>
      <trkpt lat="46.91712" lon="8.65432">
        <ele>1270</ele>
        <time>2021-08-07T10:35:44.373Z</time>
      </trkpt>
      <trkpt lat="46.9171" lon="8.65433">
        <ele>1270</ele>
        <time>2021-08-07T10:35:45.373Z</time>
      </trkpt>
      <trkpt lat="46.91713" lon="8.65432">
        <ele>1270</ele>
        <time>2021-08-07T10:35:46.373Z</time>
      </trkpt>
      <trkpt lat="46.91714" lon="8.6543">
        <ele>1270</ele>
        <time>2021-08-07T10:35:47.373Z</time>
      </trkpt>
      <trkpt lat="46.91714" lon="8.65428">
        <ele>1270</ele>
        <time>2021-08-07T10:35:48.373Z</time>
      </trkpt>
      <trkpt lat="46.91712" lon="8.65426">
        <ele>1270</ele>
        <time>2021-08-07T10:35:49.374Z</time>
      </trkpt>
      <trkpt lat="46.91712" lon="8.65424">
        <ele>1270</ele>
        <time>2021-08-07T10:35:50.373Z</time>
      </trkpt>
      <trkpt lat="46.9171" lon="8.65422">
        <ele>1270</ele>
        <time>2021-08-07T10:35:51.373Z</time>
      </trkpt>
      <trkpt lat="46.91709" lon="8.6542">
        <ele>1269</ele>
        <time>2021-08-07T10:35:52.374Z</time>
      </trkpt>
      <trkpt lat="46.91709" lon="8.65419">
        <ele>1269</ele>
        <time>2021-08-07T10:35:53.373Z</time>
      </trkpt>
      <trkpt lat="46.91709" lon="8.65419">
        <ele>1269</ele>
        <time>2021-08-07T10:35:54.373Z</time>
      </trkpt>
      <trkpt lat="46.91709" lon="8.65419">
        <ele>1268</ele>
        <time>2021-08-07T10:35:55.373Z</time>
      </trkpt>
      <trkpt lat="46.91709" lon="8.65419">
        <ele>1268</ele>
        <time>2021-08-07T10:35:56.373Z</time>
      </trkpt>
      <trkpt lat="46.91709" lon="8.6542">
        <ele>1267</ele>
        <time>2021-08-07T10:35:57.374Z</time>
      </trkpt>
      <trkpt lat="46.91708" lon="8.6542">
        <ele>1267</ele>
        <time>2021-08-07T10:35:58.374Z</time>
      </trkpt>
      <trkpt lat="46.91708" lon="8.6542">
        <ele>1267</ele>
        <time>2021-08-07T10:35:59.374Z</time>
      </trkpt>
      <trkpt lat="46.91708" lon="8.6542">
        <ele>1266</ele>
        <time>2021-08-07T10:36:00.373Z</time>
      </trkpt>
      <trkpt lat="46.91708" lon="8.65419">
        <ele>1266</ele>
        <time>2021-08-07T10:36:01.374Z</time>
      </trkpt>
      <trkpt lat="46.91708" lon="8.65417">
        <ele>1266</ele>
        <time>2021-08-07T10:36:02.373Z</time>
      </trkpt>
      <trkpt lat="46.91708" lon="8.65415">
        <ele>1266</ele>
        <time>2021-08-07T10:36:03.374Z</time>
      </trkpt>
      <trkpt lat="46.91707" lon="8.65414">
        <ele>1266</ele>
        <time>2021-08-07T10:36:04.374Z</time>
      </trkpt>
      <trkpt lat="46.91706" lon="8.65411">
        <ele>1266</ele>
        <time>2021-08-07T10:36:05.374Z</time>
      </trkpt>
      <trkpt lat="46.91705" lon="8.65409">
        <ele>1266</ele>
        <time>2021-08-07T10:36:06.374Z</time>
      </trkpt>
      <trkpt lat="46.91705" lon="8.65409">
        <ele>1266</ele>
        <time>2021-08-07T10:36:07.374Z</time>
      </trkpt>
      <trkpt lat="46.91704" lon="8.65407">
        <ele>1266</ele>
        <time>2021-08-07T10:36:08.374Z</time>
      </trkpt>
      <trkpt lat="46.91703" lon="8.65407">
        <ele>1266</ele>
        <time>2021-08-07T10:36:09.373Z</time>
      </trkpt>
      <trkpt lat="46.91703" lon="8.65407">
        <ele>1266</ele>
        <time>2021-08-07T10:36:10.374Z</time>
      </trkpt>
      <trkpt lat="46.91704" lon="8.65407">
        <ele>1267</ele>
        <time>2021-08-07T10:36:11.373Z</time>
      </trkpt>
      <trkpt lat="46.91704" lon="8.65407">
        <ele>1267</ele>
        <time>2021-08-07T10:36:12.374Z</time>
      </trkpt>
      <trkpt lat="46.91704" lon="8.65406">
        <ele>1267</ele>
        <time>2021-08-07T10:36:13.374Z</time>
      </trkpt>
      <trkpt lat="46.91704" lon="8.65404">
        <ele>1267</ele>
        <time>2021-08-07T10:36:14.374Z</time>
      </trkpt>
      <trkpt lat="46.91704" lon="8.65403">
        <ele>1268</ele>
        <time>2021-08-07T10:36:15.373Z</time>
      </trkpt>
      <trkpt lat="46.91704" lon="8.65402">
        <ele>1268</ele>
        <time>2021-08-07T10:36:16.374Z</time>
      </trkpt>
      <trkpt lat="46.91703" lon="8.654">
        <ele>1268</ele>
        <time>2021-08-07T10:36:17.374Z</time>
      </trkpt>
      <trkpt lat="46.91702" lon="8.65399">
        <ele>1269</ele>
        <time>2021-08-07T10:36:18.374Z</time>
      </trkpt>
      <trkpt lat="46.91702" lon="8.65398">
        <ele>1269</ele>
        <time>2021-08-07T10:36:19.374Z</time>
      </trkpt>
      <trkpt lat="46.91701" lon="8.65398">
        <ele>1269</ele>
        <time>2021-08-07T10:36:20.374Z</time>
      </trkpt>
      <trkpt lat="46.91701" lon="8.65396">
        <ele>1269</ele>
        <time>2021-08-07T10:36:33.470Z</time>
      </trkpt>
      <trkpt lat="46.91702" lon="8.65395">
        <ele>1269</ele>
        <time>2021-08-07T10:36:34.470Z</time>
      </trkpt>
      <trkpt lat="46.91703" lon="8.65394">
        <ele>1269</ele>
        <time>2021-08-07T10:36:35.470Z</time>
      </trkpt>
      <trkpt lat="46.91703" lon="8.65393">
        <ele>1270</ele>
        <time>2021-08-07T10:36:36.471Z</time>
      </trkpt>
      <trkpt lat="46.91704" lon="8.65393">
        <ele>1270</ele>
        <time>2021-08-07T10:36:37.471Z</time>
      </trkpt>
      <trkpt lat="46.91705" lon="8.65393">
        <ele>1270</ele>
        <time>2021-08-07T10:36:38.471Z</time>
      </trkpt>
      <trkpt lat="46.91706" lon="8.65393">
        <ele>1270</ele>
        <time>2021-08-07T10:36:39.470Z</time>
      </trkpt>
      <trkpt lat="46.91707" lon="8.65392">
        <ele>1271</ele>
        <time>2021-08-07T10:36:45.592Z</time>
      </trkpt>
      <trkpt lat="46.91709" lon="8.65392">
        <ele>1271</ele>
        <time>2021-08-07T10:36:46.592Z</time>
      </trkpt>
      <trkpt lat="46.91709" lon="8.65392">
        <ele>1271</ele>
        <time>2021-08-07T10:36:47.592Z</time>
      </trkpt>
      <trkpt lat="46.91708" lon="8.65392">
        <ele>1271</ele>
        <time>2021-08-07T10:37:19.692Z</time>
      </trkpt>
      <trkpt lat="46.91707" lon="8.65392">
        <ele>1271</ele>
        <time>2021-08-07T10:37:20.692Z</time>
      </trkpt>
      <trkpt lat="46.91706" lon="8.65393">
        <ele>1271</ele>
        <time>2021-08-07T10:37:21.691Z</time>
      </trkpt>
      <trkpt lat="46.91705" lon="8.65393">
        <ele>1270</ele>
        <time>2021-08-07T10:37:22.691Z</time>
      </trkpt>
      <trkpt lat="46.91705" lon="8.65392">
        <ele>1270</ele>
        <time>2021-08-07T10:37:23.692Z</time>
      </trkpt>
      <trkpt lat="46.91704" lon="8.65391">
        <ele>1270</ele>
        <time>2021-08-07T10:37:24.691Z</time>
      </trkpt>
      <trkpt lat="46.91704" lon="8.6539">
        <ele>1270</ele>
        <time>2021-08-07T10:37:25.691Z</time>
      </trkpt>
      <trkpt lat="46.91704" lon="8.65388">
        <ele>1269</ele>
        <time>2021-08-07T10:37:26.691Z</time>
      </trkpt>
      <trkpt lat="46.91704" lon="8.65385">
        <ele>1269</ele>
        <time>2021-08-07T10:37:27.692Z</time>
      </trkpt>
      <trkpt lat="46.91703" lon="8.65384">
        <ele>1269</ele>
        <time>2021-08-07T10:37:28.692Z</time>
      </trkpt>
      <trkpt lat="46.91703" lon="8.65382">
        <ele>1268</ele>
        <time>2021-08-07T10:38:45.711Z</time>
      </trkpt>
      <trkpt lat="46.91702" lon="8.65381">
        <ele>1268</ele>
        <time>2021-08-07T10:38:46.710Z</time>
      </trkpt>
      <trkpt lat="46.91702" lon="8.65382">
        <ele>1268</ele>
        <time>2021-08-07T10:38:56.462Z</time>
      </trkpt>
      <trkpt lat="46.91701" lon="8.65383">
        <ele>1268</ele>
        <time>2021-08-07T10:38:57.462Z</time>
      </trkpt>
      <trkpt lat="46.91701" lon="8.65384">
        <ele>1268</ele>
        <time>2021-08-07T10:39:08.206Z</time>
      </trkpt>
      <trkpt lat="46.917" lon="8.65384">
        <ele>1268</ele>
        <time>2021-08-07T10:39:09.205Z</time>
      </trkpt>
      <trkpt lat="46.91699" lon="8.65385">
        <ele>1268</ele>
        <time>2021-08-07T10:39:23.958Z</time>
      </trkpt>
      <trkpt lat="46.91698" lon="8.65385">
        <ele>1268</ele>
        <time>2021-08-07T10:39:24.958Z</time>
      </trkpt>
      <trkpt lat="46.91698" lon="8.65386">
        <ele>1268</ele>
        <time>2021-08-07T10:39:25.957Z</time>
      </trkpt>
      <trkpt lat="46.91698" lon="8.65387">
        <ele>1268</ele>
        <time>2021-08-07T10:39:33.063Z</time>
      </trkpt>
      <trkpt lat="46.91698" lon="8.65389">
        <ele>1267</ele>
        <time>2021-08-07T10:39:34.064Z</time>
      </trkpt>
      <trkpt lat="46.91698" lon="8.6539">
        <ele>1267</ele>
        <time>2021-08-07T10:39:35.063Z</time>
      </trkpt>
      <trkpt lat="46.91698" lon="8.65391">
        <ele>1267</ele>
        <time>2021-08-07T10:39:36.064Z</time>
      </trkpt>
      <trkpt lat="46.91698" lon="8.65392">
        <ele>1267</ele>
        <time>2021-08-07T10:39:37.064Z</time>
      </trkpt>
      <trkpt lat="46.91698" lon="8.65393">
        <ele>1266</ele>
        <time>2021-08-07T10:39:54.193Z</time>
      </trkpt>
      <trkpt lat="46.91697" lon="8.65392">
        <ele>1266</ele>
        <time>2021-08-07T10:39:55.193Z</time>
      </trkpt>
      <trkpt lat="46.91696" lon="8.65392">
        <ele>1266</ele>
        <time>2021-08-07T10:40:41.993Z</time>
      </trkpt>
      <trkpt lat="46.91694" lon="8.65392">
        <ele>1265</ele>
        <time>2021-08-07T10:40:42.992Z</time>
      </trkpt>
      <trkpt lat="46.91694" lon="8.65394">
        <ele>1265</ele>
        <time>2021-08-07T10:40:48.831Z</time>
      </trkpt>
      <trkpt lat="46.91693" lon="8.65395">
        <ele>1265</ele>
        <time>2021-08-07T10:40:49.831Z</time>
      </trkpt>
      <trkpt lat="46.91693" lon="8.65395">
        <ele>1265</ele>
        <time>2021-08-07T10:40:50.831Z</time>
      </trkpt>
      <trkpt lat="46.91693" lon="8.65395">
        <ele>1264</ele>
        <time>2021-08-07T10:40:51.831Z</time>
      </trkpt>
      <trkpt lat="46.91692" lon="8.65395">
        <ele>1264</ele>
        <time>2021-08-07T10:40:52.830Z</time>
      </trkpt>
      <trkpt lat="46.91692" lon="8.65397">
        <ele>1264</ele>
        <time>2021-08-07T10:40:53.830Z</time>
      </trkpt>
      <trkpt lat="46.91691" lon="8.65398">
        <ele>1263</ele>
        <time>2021-08-07T10:40:54.831Z</time>
      </trkpt>
      <trkpt lat="46.91691" lon="8.65397">
        <ele>1263</ele>
        <time>2021-08-07T10:40:55.831Z</time>
      </trkpt>
      <trkpt lat="46.9169" lon="8.65396">
        <ele>1263</ele>
        <time>2021-08-07T10:40:56.830Z</time>
      </trkpt>
      <trkpt lat="46.91689" lon="8.65396">
        <ele>1262</ele>
        <time>2021-08-07T10:40:57.830Z</time>
      </trkpt>
      <trkpt lat="46.91688" lon="8.65396">
        <ele>1262</ele>
        <time>2021-08-07T10:41:25.953Z</time>
      </trkpt>
      <trkpt lat="46.91687" lon="8.65396">
        <ele>1262</ele>
        <time>2021-08-07T10:41:26.953Z</time>
      </trkpt>
      <trkpt lat="46.91687" lon="8.65396">
        <ele>1261</ele>
        <time>2021-08-07T10:41:55.838Z</time>
      </trkpt>
      <trkpt lat="46.91686" lon="8.65397">
        <ele>1261</ele>
        <time>2021-08-07T10:41:56.837Z</time>
      </trkpt>
      <trkpt lat="46.91686" lon="8.65398">
        <ele>1261</ele>
        <time>2021-08-07T10:42:04.696Z</time>
      </trkpt>
      <trkpt lat="46.91686" lon="8.654">
        <ele>1260</ele>
        <time>2021-08-07T10:42:05.695Z</time>
      </trkpt>
      <trkpt lat="46.91687" lon="8.65402">
        <ele>1260</ele>
        <time>2021-08-07T10:42:06.696Z</time>
      </trkpt>
      <trkpt lat="46.91687" lon="8.65403">
        <ele>1260</ele>
        <time>2021-08-07T10:42:07.695Z</time>
      </trkpt>
      <trkpt lat="46.91687" lon="8.65404">
        <ele>1260</ele>
        <time>2021-08-07T10:42:18.713Z</time>
      </trkpt>
      <trkpt lat="46.91688" lon="8.65404">
        <ele>1260</ele>
        <time>2021-08-07T10:42:19.713Z</time>
      </trkpt>
      <trkpt lat="46.91688" lon="8.65404">
        <ele>1260</ele>
        <time>2021-08-07T10:42:20.714Z</time>
      </trkpt>
      <trkpt lat="46.91688" lon="8.65403">
        <ele>1259</ele>
        <time>2021-08-07T10:42:21.714Z</time>
      </trkpt>
      <trkpt lat="46.91689" lon="8.65403">
        <ele>1259</ele>
        <time>2021-08-07T10:42:22.713Z</time>
      </trkpt>
      <trkpt lat="46.9169" lon="8.65403">
        <ele>1259</ele>
        <time>2021-08-07T10:42:30.818Z</time>
      </trkpt>
      <trkpt lat="46.9169" lon="8.65403">
        <ele>1259</ele>
        <time>2021-08-07T10:42:31.819Z</time>
      </trkpt>
      <trkpt lat="46.9169" lon="8.65404">
        <ele>1259</ele>
        <time>2021-08-07T10:42:33.718Z</time>
      </trkpt>
      <trkpt lat="46.9169" lon="8.65404">
        <ele>1259</ele>
        <time>2021-08-07T10:42:34.718Z</time>
      </trkpt>
      <trkpt lat="46.9169" lon="8.65404">
        <ele>1259</ele>
        <time>2021-08-07T10:42:35.718Z</time>
      </trkpt>
      <trkpt lat="46.91691" lon="8.65404">
        <ele>1259</ele>
        <time>2021-08-07T10:42:39.850Z</time>
      </trkpt>
      <trkpt lat="46.91691" lon="8.65404">
        <ele>1260</ele>
        <time>2021-08-07T10:42:40.849Z</time>
      </trkpt>
      <trkpt lat="46.91691" lon="8.65405">
        <ele>1262</ele>
        <time>2021-08-07T10:42:41.850Z</time>
      </trkpt>
      <trkpt lat="46.91691" lon="8.65405">
        <ele>1262</ele>
        <time>2021-08-07T10:42:42.850Z</time>
      </trkpt>
      <trkpt lat="46.91691" lon="8.65405">
        <ele>1262</ele>
        <time>2021-08-07T10:42:43.850Z</time>
      </trkpt>
      <trkpt lat="46.91692" lon="8.65404">
        <ele>1262</ele>
        <time>2021-08-07T10:42:44.850Z</time>
      </trkpt>
      <trkpt lat="46.91692" lon="8.65404">
        <ele>1263</ele>
        <time>2021-08-07T10:42:45.850Z</time>
      </trkpt>
      <trkpt lat="46.91692" lon="8.65403">
        <ele>1263</ele>
        <time>2021-08-07T10:42:46.850Z</time>
      </trkpt>
      <trkpt lat="46.91691" lon="8.65403">
        <ele>1263</ele>
        <time>2021-08-07T10:42:47.850Z</time>
      </trkpt>
      <trkpt lat="46.91691" lon="8.65403">
        <ele>1264</ele>
        <time>2021-08-07T10:42:48.850Z</time>
      </trkpt>
      <trkpt lat="46.9169" lon="8.65403">
        <ele>1264</ele>
        <time>2021-08-07T10:42:49.850Z</time>
      </trkpt>
      <trkpt lat="46.91691" lon="8.65404">
        <ele>1263</ele>
        <time>2021-08-07T10:42:50.850Z</time>
      </trkpt>
      <trkpt lat="46.91689" lon="8.65404">
        <ele>1263</ele>
        <time>2021-08-07T10:42:51.850Z</time>
      </trkpt>
      <trkpt lat="46.91686" lon="8.65405">
        <ele>1262</ele>
        <time>2021-08-07T10:42:52.850Z</time>
      </trkpt>
      <trkpt lat="46.91684" lon="8.65404">
        <ele>1262</ele>
        <time>2021-08-07T10:42:53.851Z</time>
      </trkpt>
      <trkpt lat="46.91683" lon="8.65404">
        <ele>1262</ele>
        <time>2021-08-07T10:42:54.850Z</time>
      </trkpt>
      <trkpt lat="46.91684" lon="8.65404">
        <ele>1262</ele>
        <time>2021-08-07T10:42:55.851Z</time>
      </trkpt>
      <trkpt lat="46.91685" lon="8.65402">
        <ele>1261</ele>
        <time>2021-08-07T10:42:56.851Z</time>
      </trkpt>
      <trkpt lat="46.91686" lon="8.654">
        <ele>1261</ele>
        <time>2021-08-07T10:42:57.851Z</time>
      </trkpt>
      <trkpt lat="46.91687" lon="8.65401">
        <ele>1261</ele>
        <time>2021-08-07T10:42:58.851Z</time>
      </trkpt>
      <trkpt lat="46.91688" lon="8.65401">
        <ele>1261</ele>
        <time>2021-08-07T10:42:59.851Z</time>
      </trkpt>
      <trkpt lat="46.9169" lon="8.65401">
        <ele>1260</ele>
        <time>2021-08-07T10:43:00.850Z</time>
      </trkpt>
      <trkpt lat="46.91692" lon="8.65401">
        <ele>1260</ele>
        <time>2021-08-07T10:43:01.851Z</time>
      </trkpt>
      <trkpt lat="46.91693" lon="8.65401">
        <ele>1260</ele>
        <time>2021-08-07T10:43:02.850Z</time>
      </trkpt>
      <trkpt lat="46.91695" lon="8.65401">
        <ele>1260</ele>
        <time>2021-08-07T10:43:03.850Z</time>
      </trkpt>
      <trkpt lat="46.91695" lon="8.65401">
        <ele>1260</ele>
        <time>2021-08-07T10:43:04.851Z</time>
      </trkpt>
      <trkpt lat="46.91696" lon="8.65401">
        <ele>1260</ele>
        <time>2021-08-07T10:43:05.851Z</time>
      </trkpt>
      <trkpt lat="46.91696" lon="8.65401">
        <ele>1260</ele>
        <time>2021-08-07T10:43:06.850Z</time>
      </trkpt>
      <trkpt lat="46.91697" lon="8.65402">
        <ele>1260</ele>
        <time>2021-08-07T10:43:07.851Z</time>
      </trkpt>
      <trkpt lat="46.91697" lon="8.65403">
        <ele>1260</ele>
        <time>2021-08-07T10:43:08.851Z</time>
      </trkpt>
      <trkpt lat="46.91697" lon="8.65404">
        <ele>1260</ele>
        <time>2021-08-07T10:43:09.851Z</time>
      </trkpt>
      <trkpt lat="46.91699" lon="8.65404">
        <ele>1260</ele>
        <time>2021-08-07T10:43:10.850Z</time>
      </trkpt>
      <trkpt lat="46.91699" lon="8.65404">
        <ele>1260</ele>
        <time>2021-08-07T10:43:11.851Z</time>
      </trkpt>
      <trkpt lat="46.91699" lon="8.65402">
        <ele>1260</ele>
        <time>2021-08-07T10:43:12.851Z</time>
      </trkpt>
      <trkpt lat="46.917" lon="8.65402">
        <ele>1260</ele>
        <time>2021-08-07T10:43:13.850Z</time>
      </trkpt>
      <trkpt lat="46.91701" lon="8.65402">
        <ele>1261</ele>
        <time>2021-08-07T10:43:14.851Z</time>
      </trkpt>
      <trkpt lat="46.91701" lon="8.65402">
        <ele>1261</ele>
        <time>2021-08-07T10:43:15.850Z</time>
      </trkpt>
      <trkpt lat="46.91701" lon="8.65401">
        <ele>1261</ele>
        <time>2021-08-07T10:43:16.850Z</time>
      </trkpt>
      <trkpt lat="46.91702" lon="8.65401">
        <ele>1261</ele>
        <time>2021-08-07T10:43:17.851Z</time>
      </trkpt>
      <trkpt lat="46.91703" lon="8.654">
        <ele>1261</ele>
        <time>2021-08-07T10:43:18.851Z</time>
      </trkpt>
      <trkpt lat="46.91705" lon="8.65399">
        <ele>1261</ele>
        <time>2021-08-07T10:43:19.850Z</time>
      </trkpt>
      <trkpt lat="46.91705" lon="8.65399">
        <ele>1260</ele>
        <time>2021-08-07T10:43:20.850Z</time>
      </trkpt>
      <trkpt lat="46.91703" lon="8.65399">
        <ele>1260</ele>
        <time>2021-08-07T10:43:21.850Z</time>
      </trkpt>
      <trkpt lat="46.91703" lon="8.65399">
        <ele>1260</ele>
        <time>2021-08-07T10:43:22.851Z</time>
      </trkpt>
      <trkpt lat="46.91704" lon="8.65399">
        <ele>1260</ele>
        <time>2021-08-07T10:43:23.851Z</time>
      </trkpt>
      <trkpt lat="46.91706" lon="8.65398">
        <ele>1260</ele>
        <time>2021-08-07T10:43:24.851Z</time>
      </trkpt>
      <trkpt lat="46.91706" lon="8.65394">
        <ele>1259</ele>
        <time>2021-08-07T10:43:25.851Z</time>
      </trkpt>
      <trkpt lat="46.91706" lon="8.6539">
        <ele>1259</ele>
        <time>2021-08-07T10:43:26.850Z</time>
      </trkpt>
      <trkpt lat="46.91705" lon="8.65388">
        <ele>1259</ele>
        <time>2021-08-07T10:43:27.851Z</time>
      </trkpt>
      <trkpt lat="46.91702" lon="8.65384">
        <ele>1259</ele>
        <time>2021-08-07T10:43:28.851Z</time>
      </trkpt>
      <trkpt lat="46.917" lon="8.6538">
        <ele>1259</ele>
        <time>2021-08-07T10:43:29.850Z</time>
      </trkpt>
      <trkpt lat="46.91698" lon="8.65379">
        <ele>1259</ele>
        <time>2021-08-07T10:43:30.850Z</time>
      </trkpt>
      <trkpt lat="46.91698" lon="8.65378">
        <ele>1259</ele>
        <time>2021-08-07T10:43:31.851Z</time>
      </trkpt>
      <trkpt lat="46.91699" lon="8.65379">
        <ele>1259</ele>
        <time>2021-08-07T10:43:32.851Z</time>
      </trkpt>
      <trkpt lat="46.91699" lon="8.65378">
        <ele>1259</ele>
        <time>2021-08-07T10:43:33.851Z</time>
      </trkpt>
      <trkpt lat="46.917" lon="8.65378">
        <ele>1259</ele>
        <time>2021-08-07T10:43:34.851Z</time>
      </trkpt>
      <trkpt lat="46.91699" lon="8.6538">
        <ele>1260</ele>
        <time>2021-08-07T10:43:35.850Z</time>
      </trkpt>
      <trkpt lat="46.91699" lon="8.65379">
        <ele>1260</ele>
        <time>2021-08-07T10:43:36.850Z</time>
      </trkpt>
      <trkpt lat="46.91699" lon="8.65377">
        <ele>1260</ele>
        <time>2021-08-07T10:43:37.851Z</time>
      </trkpt>
      <trkpt lat="46.91699" lon="8.65377">
        <ele>1260</ele>
        <time>2021-08-07T10:43:38.850Z</time>
      </trkpt>
      <trkpt lat="46.91699" lon="8.65375">
        <ele>1260</ele>
        <time>2021-08-07T10:43:39.850Z</time>
      </trkpt>
      <trkpt lat="46.91699" lon="8.65374">
        <ele>1260</ele>
        <time>2021-08-07T10:43:40.850Z</time>
      </trkpt>
      <trkpt lat="46.91698" lon="8.65374">
        <ele>1260</ele>
        <time>2021-08-07T10:43:41.850Z</time>
      </trkpt>
      <trkpt lat="46.91696" lon="8.65374">
        <ele>1260</ele>
        <time>2021-08-07T10:43:42.850Z</time>
      </trkpt>
      <trkpt lat="46.91696" lon="8.65374">
        <ele>1260</ele>
        <time>2021-08-07T10:43:43.851Z</time>
      </trkpt>
      <trkpt lat="46.91695" lon="8.65375">
        <ele>1261</ele>
        <time>2021-08-07T10:43:44.850Z</time>
      </trkpt>
      <trkpt lat="46.91696" lon="8.65375">
        <ele>1261</ele>
        <time>2021-08-07T10:43:45.851Z</time>
      </trkpt>
      <trkpt lat="46.91696" lon="8.65376">
        <ele>1261</ele>
        <time>2021-08-07T10:43:46.850Z</time>
      </trkpt>
      <trkpt lat="46.91697" lon="8.65375">
        <ele>1261</ele>
        <time>2021-08-07T10:43:47.850Z</time>
      </trkpt>
      <trkpt lat="46.91698" lon="8.65373">
        <ele>1261</ele>
        <time>2021-08-07T10:43:48.850Z</time>
      </trkpt>
      <trkpt lat="46.917" lon="8.65372">
        <ele>1260</ele>
        <time>2021-08-07T10:43:49.850Z</time>
      </trkpt>
      <trkpt lat="46.91702" lon="8.65371">
        <ele>1260</ele>
        <time>2021-08-07T10:43:50.850Z</time>
      </trkpt>
      <trkpt lat="46.91704" lon="8.65371">
        <ele>1260</ele>
        <time>2021-08-07T10:43:51.850Z</time>
      </trkpt>
      <trkpt lat="46.91706" lon="8.65372">
        <ele>1260</ele>
        <time>2021-08-07T10:43:52.850Z</time>
      </trkpt>
      <trkpt lat="46.91707" lon="8.65372">
        <ele>1260</ele>
        <time>2021-08-07T10:43:53.850Z</time>
      </trkpt>
      <trkpt lat="46.91706" lon="8.65371">
        <ele>1260</ele>
        <time>2021-08-07T10:43:54.851Z</time>
      </trkpt>
      <trkpt lat="46.91705" lon="8.65369">
        <ele>1260</ele>
        <time>2021-08-07T10:43:55.851Z</time>
      </trkpt>
      <trkpt lat="46.91702" lon="8.6537">
        <ele>1260</ele>
        <time>2021-08-07T10:43:56.851Z</time>
      </trkpt>
      <trkpt lat="46.91699" lon="8.65371">
        <ele>1260</ele>
        <time>2021-08-07T10:43:57.850Z</time>
      </trkpt>
      <trkpt lat="46.91695" lon="8.6537">
        <ele>1260</ele>
        <time>2021-08-07T10:43:58.850Z</time>
      </trkpt>
      <trkpt lat="46.91692" lon="8.6537">
        <ele>1260</ele>
        <time>2021-08-07T10:43:59.850Z</time>
      </trkpt>
      <trkpt lat="46.91691" lon="8.65372">
        <ele>1260</ele>
        <time>2021-08-07T10:44:00.850Z</time>
      </trkpt>
      <trkpt lat="46.91691" lon="8.65373">
        <ele>1260</ele>
        <time>2021-08-07T10:44:01.851Z</time>
      </trkpt>
      <trkpt lat="46.91691" lon="8.65374">
        <ele>1261</ele>
        <time>2021-08-07T10:44:02.850Z</time>
      </trkpt>
      <trkpt lat="46.91692" lon="8.65375">
        <ele>1261</ele>
        <time>2021-08-07T10:44:03.851Z</time>
      </trkpt>
      <trkpt lat="46.91692" lon="8.65375">
        <ele>1261</ele>
        <time>2021-08-07T10:44:04.851Z</time>
      </trkpt>
      <trkpt lat="46.91692" lon="8.65377">
        <ele>1261</ele>
        <time>2021-08-07T10:44:05.851Z</time>
      </trkpt>
      <trkpt lat="46.91692" lon="8.65378">
        <ele>1261</ele>
        <time>2021-08-07T10:44:06.851Z</time>
      </trkpt>
      <trkpt lat="46.91692" lon="8.6538">
        <ele>1261</ele>
        <time>2021-08-07T10:44:07.850Z</time>
      </trkpt>
      <trkpt lat="46.91691" lon="8.65381">
        <ele>1261</ele>
        <time>2021-08-07T10:44:08.850Z</time>
      </trkpt>
      <trkpt lat="46.91692" lon="8.65381">
        <ele>1262</ele>
        <time>2021-08-07T10:44:09.851Z</time>
      </trkpt>
      <trkpt lat="46.91693" lon="8.65381">
        <ele>1262</ele>
        <time>2021-08-07T10:44:10.851Z</time>
      </trkpt>
      <trkpt lat="46.91698" lon="8.65378">
        <ele>1262</ele>
        <time>2021-08-07T10:44:11.851Z</time>
      </trkpt>
      <trkpt lat="46.91701" lon="8.65375">
        <ele>1262</ele>
        <time>2021-08-07T10:44:12.850Z</time>
      </trkpt>
      <trkpt lat="46.91703" lon="8.65373">
        <ele>1262</ele>
        <time>2021-08-07T10:44:13.851Z</time>
      </trkpt>
      <trkpt lat="46.91704" lon="8.65372">
        <ele>1262</ele>
        <time>2021-08-07T10:44:14.851Z</time>
      </trkpt>
      <trkpt lat="46.91707" lon="8.65378">
        <ele>1262</ele>
        <time>2021-08-07T10:44:15.851Z</time>
      </trkpt>
      <trkpt lat="46.91711" lon="8.65384">
        <ele>1262</ele>
        <time>2021-08-07T10:44:16.850Z</time>
      </trkpt>
      <trkpt lat="46.91716" lon="8.65394">
        <ele>1262</ele>
        <time>2021-08-07T10:44:17.850Z</time>
      </trkpt>
      <trkpt lat="46.91719" lon="8.65402">
        <ele>1263</ele>
        <time>2021-08-07T10:44:18.850Z</time>
      </trkpt>
      <trkpt lat="46.91722" lon="8.65408">
        <ele>1263</ele>
        <time>2021-08-07T10:44:19.851Z</time>
      </trkpt>
      <trkpt lat="46.91727" lon="8.65418">
        <ele>1263</ele>
        <time>2021-08-07T10:44:20.851Z</time>
      </trkpt>
      <trkpt lat="46.9173" lon="8.65425">
        <ele>1263</ele>
        <time>2021-08-07T10:44:21.851Z</time>
      </trkpt>
      <trkpt lat="46.91734" lon="8.65432">
        <ele>1262</ele>
        <time>2021-08-07T10:44:22.850Z</time>
      </trkpt>
      <trkpt lat="46.91731" lon="8.65432">
        <ele>1262</ele>
        <time>2021-08-07T10:44:23.850Z</time>
      </trkpt>
      <trkpt lat="46.91727" lon="8.6543">
        <ele>1262</ele>
        <time>2021-08-07T10:44:24.851Z</time>
      </trkpt>
      <trkpt lat="46.91724" lon="8.65428">
        <ele>1262</ele>
        <time>2021-08-07T10:44:25.851Z</time>
      </trkpt>
      <trkpt lat="46.9172" lon="8.65424">
        <ele>1262</ele>
        <time>2021-08-07T10:44:26.850Z</time>
      </trkpt>
      <trkpt lat="46.91717" lon="8.65422">
        <ele>1262</ele>
        <time>2021-08-07T10:44:27.850Z</time>
      </trkpt>
      <trkpt lat="46.91713" lon="8.65419">
        <ele>1262</ele>
        <time>2021-08-07T10:44:28.850Z</time>
      </trkpt>
      <trkpt lat="46.91712" lon="8.65416">
        <ele>1262</ele>
        <time>2021-08-07T10:44:29.850Z</time>
      </trkpt>
      <trkpt lat="46.91712" lon="8.65411">
        <ele>1262</ele>
        <time>2021-08-07T10:44:30.850Z</time>
      </trkpt>
      <trkpt lat="46.91715" lon="8.65407">
        <ele>1262</ele>
        <time>2021-08-07T10:44:31.850Z</time>
      </trkpt>
      <trkpt lat="46.91719" lon="8.65402">
        <ele>1263</ele>
        <time>2021-08-07T10:44:32.850Z</time>
      </trkpt>
      <trkpt lat="46.91721" lon="8.65398">
        <ele>1263</ele>
        <time>2021-08-07T10:44:33.850Z</time>
      </trkpt>
      <trkpt lat="46.91722" lon="8.65394">
        <ele>1263</ele>
        <time>2021-08-07T10:44:34.850Z</time>
      </trkpt>
      <trkpt lat="46.91725" lon="8.6539">
        <ele>1263</ele>
        <time>2021-08-07T10:44:35.851Z</time>
      </trkpt>
      <trkpt lat="46.91725" lon="8.65388">
        <ele>1263</ele>
        <time>2021-08-07T10:44:36.850Z</time>
      </trkpt>
      <trkpt lat="46.91726" lon="8.65385">
        <ele>1263</ele>
        <time>2021-08-07T10:44:37.850Z</time>
      </trkpt>
      <trkpt lat="46.91726" lon="8.65383">
        <ele>1263</ele>
        <time>2021-08-07T10:44:38.851Z</time>
      </trkpt>
      <trkpt lat="46.91727" lon="8.65381">
        <ele>1262</ele>
        <time>2021-08-07T10:44:39.850Z</time>
      </trkpt>
      <trkpt lat="46.91728" lon="8.6538">
        <ele>1262</ele>
        <time>2021-08-07T10:44:40.851Z</time>
      </trkpt>
      <trkpt lat="46.9173" lon="8.65379">
        <ele>1262</ele>
        <time>2021-08-07T10:44:41.851Z</time>
      </trkpt>
      <trkpt lat="46.91733" lon="8.65379">
        <ele>1262</ele>
        <time>2021-08-07T10:44:42.850Z</time>
      </trkpt>
      <trkpt lat="46.91735" lon="8.65378">
        <ele>1261</ele>
        <time>2021-08-07T10:44:43.851Z</time>
      </trkpt>
      <trkpt lat="46.91736" lon="8.65377">
        <ele>1261</ele>
        <time>2021-08-07T10:44:44.850Z</time>
      </trkpt>
      <trkpt lat="46.91738" lon="8.65376">
        <ele>1261</ele>
        <time>2021-08-07T10:44:45.850Z</time>
      </trkpt>
      <trkpt lat="46.91738" lon="8.65375">
        <ele>1260</ele>
        <time>2021-08-07T10:44:46.850Z</time>
      </trkpt>
      <trkpt lat="46.91737" lon="8.65374">
        <ele>1260</ele>
        <time>2021-08-07T10:44:47.851Z</time>
      </trkpt>
      <trkpt lat="46.91736" lon="8.65374">
        <ele>1260</ele>
        <time>2021-08-07T10:44:48.851Z</time>
      </trkpt>
      <trkpt lat="46.91734" lon="8.65374">
        <ele>1260</ele>
        <time>2021-08-07T10:44:49.850Z</time>
      </trkpt>
      <trkpt lat="46.91734" lon="8.65373">
        <ele>1260</ele>
        <time>2021-08-07T10:44:50.851Z</time>
      </trkpt>
      <trkpt lat="46.91733" lon="8.65373">
        <ele>1260</ele>
        <time>2021-08-07T10:44:51.851Z</time>
      </trkpt>
      <trkpt lat="46.91732" lon="8.65372">
        <ele>1259</ele>
        <time>2021-08-07T10:44:52.851Z</time>
      </trkpt>
      <trkpt lat="46.91732" lon="8.65371">
        <ele>1259</ele>
        <time>2021-08-07T10:44:53.850Z</time>
      </trkpt>
      <trkpt lat="46.91731" lon="8.6537">
        <ele>1258</ele>
        <time>2021-08-07T10:44:54.850Z</time>
      </trkpt>
      <trkpt lat="46.91731" lon="8.6537">
        <ele>1258</ele>
        <time>2021-08-07T10:44:55.850Z</time>
      </trkpt>
      <trkpt lat="46.91729" lon="8.6537">
        <ele>1257</ele>
        <time>2021-08-07T10:44:56.850Z</time>
      </trkpt>
      <trkpt lat="46.91729" lon="8.6537">
        <ele>1256</ele>
        <time>2021-08-07T10:44:57.850Z</time>
      </trkpt>
      <trkpt lat="46.91729" lon="8.6537">
        <ele>1255</ele>
        <time>2021-08-07T10:44:58.850Z</time>
      </trkpt>
      <trkpt lat="46.91729" lon="8.6537">
        <ele>1254</ele>
        <time>2021-08-07T10:44:59.850Z</time>
      </trkpt>
      <trkpt lat="46.91729" lon="8.65371">
        <ele>1254</ele>
        <time>2021-08-07T10:45:00.851Z</time>
      </trkpt>
      <trkpt lat="46.91729" lon="8.65372">
        <ele>1253</ele>
        <time>2021-08-07T10:45:01.850Z</time>
      </trkpt>
      <trkpt lat="46.9173" lon="8.65372">
        <ele>1252</ele>
        <time>2021-08-07T10:45:02.851Z</time>
      </trkpt>
      <trkpt lat="46.9173" lon="8.65373">
        <ele>1252</ele>
        <time>2021-08-07T10:45:03.850Z</time>
      </trkpt>
      <trkpt lat="46.91731" lon="8.65373">
        <ele>1251</ele>
        <time>2021-08-07T10:45:04.850Z</time>
      </trkpt>
      <trkpt lat="46.91732" lon="8.65373">
        <ele>1251</ele>
        <time>2021-08-07T10:45:05.850Z</time>
      </trkpt>
      <trkpt lat="46.91733" lon="8.65373">
        <ele>1250</ele>
        <time>2021-08-07T10:45:06.850Z</time>
      </trkpt>
      <trkpt lat="46.91735" lon="8.65372">
        <ele>1249</ele>
        <time>2021-08-07T10:45:07.850Z</time>
      </trkpt>
      <trkpt lat="46.91736" lon="8.65372">
        <ele>1249</ele>
        <time>2021-08-07T10:45:08.850Z</time>
      </trkpt>
      <trkpt lat="46.91737" lon="8.65372">
        <ele>1248</ele>
        <time>2021-08-07T10:45:09.850Z</time>
      </trkpt>
      <trkpt lat="46.91738" lon="8.65372">
        <ele>1248</ele>
        <time>2021-08-07T10:45:10.850Z</time>
      </trkpt>
      <trkpt lat="46.91739" lon="8.65372">
        <ele>1247</ele>
        <time>2021-08-07T10:45:11.851Z</time>
      </trkpt>
      <trkpt lat="46.9174" lon="8.65372">
        <ele>1247</ele>
        <time>2021-08-07T10:45:12.850Z</time>
      </trkpt>
      <trkpt lat="46.91741" lon="8.65371">
        <ele>1247</ele>
        <time>2021-08-07T10:45:13.850Z</time>
      </trkpt>
      <trkpt lat="46.91741" lon="8.65371">
        <ele>1246</ele>
        <time>2021-08-07T10:45:14.850Z</time>
      </trkpt>
      <trkpt lat="46.91742" lon="8.65371">
        <ele>1246</ele>
        <time>2021-08-07T10:45:15.850Z</time>
      </trkpt>
      <trkpt lat="46.91747" lon="8.65372">
        <ele>1246</ele>
        <time>2021-08-07T10:45:16.850Z</time>
      </trkpt>
      <trkpt lat="46.91752" lon="8.65372">
        <ele>1246</ele>
        <time>2021-08-07T10:45:17.850Z</time>
      </trkpt>
      <trkpt lat="46.91757" lon="8.65371">
        <ele>1245</ele>
        <time>2021-08-07T10:45:18.850Z</time>
      </trkpt>
      <trkpt lat="46.91762" lon="8.65371">
        <ele>1245</ele>
        <time>2021-08-07T10:45:19.850Z</time>
      </trkpt>
      <trkpt lat="46.91767" lon="8.65371">
        <ele>1245</ele>
        <time>2021-08-07T10:45:20.850Z</time>
      </trkpt>
      <trkpt lat="46.91771" lon="8.65371">
        <ele>1245</ele>
        <time>2021-08-07T10:45:21.850Z</time>
      </trkpt>
      <trkpt lat="46.91776" lon="8.65371">
        <ele>1245</ele>
        <time>2021-08-07T10:45:22.850Z</time>
      </trkpt>
      <trkpt lat="46.9178" lon="8.6537">
        <ele>1245</ele>
        <time>2021-08-07T10:45:23.850Z</time>
      </trkpt>
      <trkpt lat="46.91785" lon="8.6537">
        <ele>1244</ele>
        <time>2021-08-07T10:45:24.850Z</time>
      </trkpt>
      <trkpt lat="46.91787" lon="8.65369">
        <ele>1244</ele>
        <time>2021-08-07T10:45:25.850Z</time>
      </trkpt>
      <trkpt lat="46.91788" lon="8.65368">
        <ele>1244</ele>
        <time>2021-08-07T10:45:26.850Z</time>
      </trkpt>
      <trkpt lat="46.91785" lon="8.65368">
        <ele>1245</ele>
        <time>2021-08-07T10:45:27.850Z</time>
      </trkpt>
      <trkpt lat="46.91784" lon="8.65368">
        <ele>1245</ele>
        <time>2021-08-07T10:45:28.851Z</time>
      </trkpt>
      <trkpt lat="46.91782" lon="8.65368">
        <ele>1245</ele>
        <time>2021-08-07T10:45:29.850Z</time>
      </trkpt>
      <trkpt lat="46.9178" lon="8.65369">
        <ele>1245</ele>
        <time>2021-08-07T10:45:30.850Z</time>
      </trkpt>
      <trkpt lat="46.91776" lon="8.6537">
        <ele>1245</ele>
        <time>2021-08-07T10:45:31.850Z</time>
      </trkpt>
      <trkpt lat="46.91772" lon="8.6537">
        <ele>1246</ele>
        <time>2021-08-07T10:45:32.851Z</time>
      </trkpt>
      <trkpt lat="46.9177" lon="8.65369">
        <ele>1246</ele>
        <time>2021-08-07T10:45:33.851Z</time>
      </trkpt>
      <trkpt lat="46.91767" lon="8.65369">
        <ele>1246</ele>
        <time>2021-08-07T10:45:34.851Z</time>
      </trkpt>
      <trkpt lat="46.91765" lon="8.65369">
        <ele>1246</ele>
        <time>2021-08-07T10:45:35.851Z</time>
      </trkpt>
      <trkpt lat="46.91763" lon="8.65369">
        <ele>1246</ele>
        <time>2021-08-07T10:45:36.850Z</time>
      </trkpt>
      <trkpt lat="46.91759" lon="8.6537">
        <ele>1246</ele>
        <time>2021-08-07T10:45:37.850Z</time>
      </trkpt>
      <trkpt lat="46.91754" lon="8.6537">
        <ele>1247</ele>
        <time>2021-08-07T10:45:38.851Z</time>
      </trkpt>
      <trkpt lat="46.91753" lon="8.6537">
        <ele>1247</ele>
        <time>2021-08-07T10:45:49.960Z</time>
      </trkpt>
      <trkpt lat="46.91751" lon="8.6537">
        <ele>1247</ele>
        <time>2021-08-07T10:45:50.960Z</time>
      </trkpt>
      <trkpt lat="46.91749" lon="8.6537">
        <ele>1248</ele>
        <time>2021-08-07T10:45:51.961Z</time>
      </trkpt>
      <trkpt lat="46.91747" lon="8.6537">
        <ele>1248</ele>
        <time>2021-08-07T10:45:52.960Z</time>
      </trkpt>
      <trkpt lat="46.91745" lon="8.65371">
        <ele>1248</ele>
        <time>2021-08-07T10:46:02.074Z</time>
      </trkpt>
      <trkpt lat="46.91744" lon="8.65371">
        <ele>1248</ele>
        <time>2021-08-07T10:46:13.968Z</time>
      </trkpt>
      <trkpt lat="46.91744" lon="8.65371">
        <ele>1248</ele>
        <time>2021-08-07T10:46:14.968Z</time>
      </trkpt>
      <trkpt lat="46.91746" lon="8.65372">
        <ele>1247</ele>
        <time>2021-08-07T10:46:15.967Z</time>
      </trkpt>
      <trkpt lat="46.91747" lon="8.65372">
        <ele>1247</ele>
        <time>2021-08-07T10:46:16.967Z</time>
      </trkpt>
      <trkpt lat="46.91748" lon="8.65372">
        <ele>1247</ele>
        <time>2021-08-07T10:46:17.968Z</time>
      </trkpt>
      <trkpt lat="46.91748" lon="8.65372">
        <ele>1247</ele>
        <time>2021-08-07T10:46:18.967Z</time>
      </trkpt>
      <trkpt lat="46.91748" lon="8.65373">
        <ele>1246</ele>
        <time>2021-08-07T10:46:19.968Z</time>
      </trkpt>
      <trkpt lat="46.91748" lon="8.65374">
        <ele>1246</ele>
        <time>2021-08-07T10:46:20.967Z</time>
      </trkpt>
      <trkpt lat="46.9175" lon="8.65374">
        <ele>1246</ele>
        <time>2021-08-07T10:46:21.968Z</time>
      </trkpt>
      <trkpt lat="46.91748" lon="8.65374">
        <ele>1245</ele>
        <time>2021-08-07T10:46:22.968Z</time>
      </trkpt>
      <trkpt lat="46.91746" lon="8.65375">
        <ele>1245</ele>
        <time>2021-08-07T10:46:23.967Z</time>
      </trkpt>
      <trkpt lat="46.91745" lon="8.65376">
        <ele>1245</ele>
        <time>2021-08-07T10:46:24.967Z</time>
      </trkpt>
      <trkpt lat="46.91744" lon="8.65376">
        <ele>1245</ele>
        <time>2021-08-07T10:46:25.967Z</time>
      </trkpt>
      <trkpt lat="46.91743" lon="8.65376">
        <ele>1245</ele>
        <time>2021-08-07T10:46:26.967Z</time>
      </trkpt>
      <trkpt lat="46.91744" lon="8.65376">
        <ele>1244</ele>
        <time>2021-08-07T10:46:27.967Z</time>
      </trkpt>
      <trkpt lat="46.91743" lon="8.65376">
        <ele>1244</ele>
        <time>2021-08-07T10:46:28.968Z</time>
      </trkpt>
      <trkpt lat="46.91742" lon="8.65376">
        <ele>1244</ele>
        <time>2021-08-07T10:46:29.968Z</time>
      </trkpt>
      <trkpt lat="46.91742" lon="8.65378">
        <ele>1243</ele>
        <time>2021-08-07T10:46:30.967Z</time>
      </trkpt>
      <trkpt lat="46.91742" lon="8.65379">
        <ele>1243</ele>
        <time>2021-08-07T10:46:31.967Z</time>
      </trkpt>
      <trkpt lat="46.91742" lon="8.6538">
        <ele>1243</ele>
        <time>2021-08-07T10:46:32.967Z</time>
      </trkpt>
      <trkpt lat="46.91742" lon="8.65382">
        <ele>1242</ele>
        <time>2021-08-07T10:46:33.967Z</time>
      </trkpt>
      <trkpt lat="46.91742" lon="8.65382">
        <ele>1242</ele>
        <time>2021-08-07T10:46:34.967Z</time>
      </trkpt>
      <trkpt lat="46.91742" lon="8.65383">
        <ele>1241</ele>
        <time>2021-08-07T10:46:35.968Z</time>
      </trkpt>
      <trkpt lat="46.91742" lon="8.65383">
        <ele>1241</ele>
        <time>2021-08-07T10:46:36.968Z</time>
      </trkpt>
      <trkpt lat="46.91743" lon="8.65384">
        <ele>1241</ele>
        <time>2021-08-07T10:46:37.967Z</time>
      </trkpt>
      <trkpt lat="46.91744" lon="8.65384">
        <ele>1240</ele>
        <time>2021-08-07T10:46:38.968Z</time>
      </trkpt>
      <trkpt lat="46.91746" lon="8.65384">
        <ele>1240</ele>
        <time>2021-08-07T10:46:39.967Z</time>
      </trkpt>
      <trkpt lat="46.91747" lon="8.65384">
        <ele>1240</ele>
        <time>2021-08-07T10:46:40.968Z</time>
      </trkpt>
      <trkpt lat="46.91748" lon="8.65384">
        <ele>1240</ele>
        <time>2021-08-07T10:46:41.967Z</time>
      </trkpt>
      <trkpt lat="46.91748" lon="8.65384">
        <ele>1240</ele>
        <time>2021-08-07T10:46:42.967Z</time>
      </trkpt>
      <trkpt lat="46.91746" lon="8.65386">
        <ele>1239</ele>
        <time>2021-08-07T10:46:43.968Z</time>
      </trkpt>
      <trkpt lat="46.91744" lon="8.65387">
        <ele>1239</ele>
        <time>2021-08-07T10:46:44.968Z</time>
      </trkpt>
      <trkpt lat="46.91742" lon="8.65387">
        <ele>1239</ele>
        <time>2021-08-07T10:46:45.967Z</time>
      </trkpt>
      <trkpt lat="46.9174" lon="8.65387">
        <ele>1239</ele>
        <time>2021-08-07T10:46:46.967Z</time>
      </trkpt>
      <trkpt lat="46.91738" lon="8.65389">
        <ele>1238</ele>
        <time>2021-08-07T10:46:47.967Z</time>
      </trkpt>
      <trkpt lat="46.91737" lon="8.6539">
        <ele>1238</ele>
        <time>2021-08-07T10:46:48.968Z</time>
      </trkpt>
      <trkpt lat="46.91736" lon="8.65391">
        <ele>1238</ele>
        <time>2021-08-07T10:46:49.967Z</time>
      </trkpt>
      <trkpt lat="46.91734" lon="8.65392">
        <ele>1238</ele>
        <time>2021-08-07T10:46:55.100Z</time>
      </trkpt>
      <trkpt lat="46.91734" lon="8.65393">
        <ele>1238</ele>
        <time>2021-08-07T10:46:56.100Z</time>
      </trkpt>
      <trkpt lat="46.91734" lon="8.65394">
        <ele>1238</ele>
        <time>2021-08-07T10:46:57.099Z</time>
      </trkpt>
      <trkpt lat="46.91735" lon="8.65395">
        <ele>1237</ele>
        <time>2021-08-07T10:46:58.099Z</time>
      </trkpt>
      <trkpt lat="46.91735" lon="8.65396">
        <ele>1237</ele>
        <time>2021-08-07T10:46:59.099Z</time>
      </trkpt>
      <trkpt lat="46.91736" lon="8.65396">
        <ele>1237</ele>
        <time>2021-08-07T10:47:00.099Z</time>
      </trkpt>
      <trkpt lat="46.91738" lon="8.65396">
        <ele>1237</ele>
        <time>2021-08-07T10:47:01.100Z</time>
      </trkpt>
      <trkpt lat="46.9174" lon="8.65396">
        <ele>1237</ele>
        <time>2021-08-07T10:47:02.100Z</time>
      </trkpt>
      <trkpt lat="46.91742" lon="8.65397">
        <ele>1237</ele>
        <time>2021-08-07T10:47:03.099Z</time>
      </trkpt>
      <trkpt lat="46.91744" lon="8.65397">
        <ele>1236</ele>
        <time>2021-08-07T10:47:04.099Z</time>
      </trkpt>
      <trkpt lat="46.91746" lon="8.65398">
        <ele>1236</ele>
        <time>2021-08-07T10:47:05.099Z</time>
      </trkpt>
      <trkpt lat="46.91747" lon="8.65399">
        <ele>1236</ele>
        <time>2021-08-07T10:47:06.099Z</time>
      </trkpt>
      <trkpt lat="46.91749" lon="8.654">
        <ele>1236</ele>
        <time>2021-08-07T10:47:07.099Z</time>
      </trkpt>
      <trkpt lat="46.91752" lon="8.654">
        <ele>1236</ele>
        <time>2021-08-07T10:47:08.099Z</time>
      </trkpt>
      <trkpt lat="46.91754" lon="8.65399">
        <ele>1236</ele>
        <time>2021-08-07T10:47:09.100Z</time>
      </trkpt>
      <trkpt lat="46.91754" lon="8.65397">
        <ele>1236</ele>
        <time>2021-08-07T10:47:10.100Z</time>
      </trkpt>
      <trkpt lat="46.91754" lon="8.65395">
        <ele>1236</ele>
        <time>2021-08-07T10:47:11.099Z</time>
      </trkpt>
      <trkpt lat="46.91754" lon="8.65394">
        <ele>1236</ele>
        <time>2021-08-07T10:47:12.100Z</time>
      </trkpt>
      <trkpt lat="46.91755" lon="8.65392">
        <ele>1235</ele>
        <time>2021-08-07T10:47:13.100Z</time>
      </trkpt>
      <trkpt lat="46.91757" lon="8.65391">
        <ele>1235</ele>
        <time>2021-08-07T10:47:14.099Z</time>
      </trkpt>
      <trkpt lat="46.91758" lon="8.65391">
        <ele>1235</ele>
        <time>2021-08-07T10:47:15.099Z</time>
      </trkpt>
      <trkpt lat="46.9176" lon="8.65391">
        <ele>1235</ele>
        <time>2021-08-07T10:47:16.099Z</time>
      </trkpt>
      <trkpt lat="46.9176" lon="8.65392">
        <ele>1234</ele>
        <time>2021-08-07T10:47:17.099Z</time>
      </trkpt>
      <trkpt lat="46.9176" lon="8.65393">
        <ele>1234</ele>
        <time>2021-08-07T10:47:18.099Z</time>
      </trkpt>
      <trkpt lat="46.91761" lon="8.65393">
        <ele>1234</ele>
        <time>2021-08-07T10:47:19.099Z</time>
      </trkpt>
      <trkpt lat="46.91761" lon="8.65392">
        <ele>1234</ele>
        <time>2021-08-07T10:47:20.100Z</time>
      </trkpt>
      <trkpt lat="46.91761" lon="8.65391">
        <ele>1234</ele>
        <time>2021-08-07T10:47:21.100Z</time>
      </trkpt>
      <trkpt lat="46.91762" lon="8.65391">
        <ele>1233</ele>
        <time>2021-08-07T10:47:22.099Z</time>
      </trkpt>
      <trkpt lat="46.91763" lon="8.65391">
        <ele>1233</ele>
        <time>2021-08-07T10:47:23.099Z</time>
      </trkpt>
      <trkpt lat="46.91763" lon="8.65391">
        <ele>1233</ele>
        <time>2021-08-07T10:47:24.100Z</time>
      </trkpt>
      <trkpt lat="46.91766" lon="8.65391">
        <ele>1233</ele>
        <time>2021-08-07T10:47:25.099Z</time>
      </trkpt>
      <trkpt lat="46.91768" lon="8.65391">
        <ele>1233</ele>
        <time>2021-08-07T10:47:26.100Z</time>
      </trkpt>
      <trkpt lat="46.91768" lon="8.65393">
        <ele>1233</ele>
        <time>2021-08-07T10:47:27.099Z</time>
      </trkpt>
      <trkpt lat="46.91768" lon="8.65394">
        <ele>1233</ele>
        <time>2021-08-07T10:47:28.099Z</time>
      </trkpt>
      <trkpt lat="46.9177" lon="8.65395">
        <ele>1233</ele>
        <time>2021-08-07T10:47:29.099Z</time>
      </trkpt>
      <trkpt lat="46.9177" lon="8.65395">
        <ele>1233</ele>
        <time>2021-08-07T10:47:30.100Z</time>
      </trkpt>
      <trkpt lat="46.91769" lon="8.65395">
        <ele>1233</ele>
        <time>2021-08-07T10:47:31.099Z</time>
      </trkpt>
      <trkpt lat="46.91768" lon="8.65396">
        <ele>1233</ele>
        <time>2021-08-07T10:47:32.099Z</time>
      </trkpt>
      <trkpt lat="46.91768" lon="8.65396">
        <ele>1233</ele>
        <time>2021-08-07T10:47:33.100Z</time>
      </trkpt>
      <trkpt lat="46.91768" lon="8.65396">
        <ele>1233</ele>
        <time>2021-08-07T10:47:34.100Z</time>
      </trkpt>
      <trkpt lat="46.91769" lon="8.65396">
        <ele>1233</ele>
        <time>2021-08-07T10:47:35.100Z</time>
      </trkpt>
      <trkpt lat="46.9177" lon="8.65396">
        <ele>1233</ele>
        <time>2021-08-07T10:47:36.099Z</time>
      </trkpt>
      <trkpt lat="46.91769" lon="8.65397">
        <ele>1233</ele>
        <time>2021-08-07T10:47:37.099Z</time>
      </trkpt>
      <trkpt lat="46.91767" lon="8.65397">
        <ele>1233</ele>
        <time>2021-08-07T10:47:38.099Z</time>
      </trkpt>
      <trkpt lat="46.91766" lon="8.65397">
        <ele>1233</ele>
        <time>2021-08-07T10:47:39.100Z</time>
      </trkpt>
      <trkpt lat="46.91765" lon="8.65396">
        <ele>1233</ele>
        <time>2021-08-07T10:47:40.099Z</time>
      </trkpt>
      <trkpt lat="46.91764" lon="8.65396">
        <ele>1233</ele>
        <time>2021-08-07T10:47:41.099Z</time>
      </trkpt>
      <trkpt lat="46.91763" lon="8.65396">
        <ele>1233</ele>
        <time>2021-08-07T10:47:42.100Z</time>
      </trkpt>
      <trkpt lat="46.91764" lon="8.65396">
        <ele>1234</ele>
        <time>2021-08-07T10:47:43.100Z</time>
      </trkpt>
      <trkpt lat="46.91765" lon="8.65396">
        <ele>1234</ele>
        <time>2021-08-07T10:47:44.099Z</time>
      </trkpt>
      <trkpt lat="46.91765" lon="8.65397">
        <ele>1234</ele>
        <time>2021-08-07T10:47:45.099Z</time>
      </trkpt>
      <trkpt lat="46.91766" lon="8.65398">
        <ele>1234</ele>
        <time>2021-08-07T10:47:46.099Z</time>
      </trkpt>
      <trkpt lat="46.91766" lon="8.65398">
        <ele>1234</ele>
        <time>2021-08-07T10:47:47.099Z</time>
      </trkpt>
      <trkpt lat="46.91766" lon="8.65398">
        <ele>1234</ele>
        <time>2021-08-07T10:47:48.100Z</time>
      </trkpt>
      <trkpt lat="46.91767" lon="8.65398">
        <ele>1234</ele>
        <time>2021-08-07T10:47:49.099Z</time>
      </trkpt>
      <trkpt lat="46.91767" lon="8.65397">
        <ele>1233</ele>
        <time>2021-08-07T10:47:50.099Z</time>
      </trkpt>
      <trkpt lat="46.91768" lon="8.65395">
        <ele>1233</ele>
        <time>2021-08-07T10:47:51.099Z</time>
      </trkpt>
      <trkpt lat="46.91768" lon="8.65394">
        <ele>1232</ele>
        <time>2021-08-07T10:47:52.099Z</time>
      </trkpt>
      <trkpt lat="46.91768" lon="8.65395">
        <ele>1232</ele>
        <time>2021-08-07T10:47:53.099Z</time>
      </trkpt>
      <trkpt lat="46.91768" lon="8.65395">
        <ele>1231</ele>
        <time>2021-08-07T10:47:54.100Z</time>
      </trkpt>
      <trkpt lat="46.91767" lon="8.65395">
        <ele>1230</ele>
        <time>2021-08-07T10:47:55.099Z</time>
      </trkpt>
      <trkpt lat="46.91766" lon="8.65394">
        <ele>1229</ele>
        <time>2021-08-07T10:47:56.099Z</time>
      </trkpt>
      <trkpt lat="46.91765" lon="8.65394">
        <ele>1228</ele>
        <time>2021-08-07T10:47:57.100Z</time>
      </trkpt>
      <trkpt lat="46.91765" lon="8.65394">
        <ele>1226</ele>
        <time>2021-08-07T10:47:58.099Z</time>
      </trkpt>
      <trkpt lat="46.91765" lon="8.65394">
        <ele>1225</ele>
        <time>2021-08-07T10:47:59.100Z</time>
      </trkpt>
      <trkpt lat="46.91764" lon="8.65394">
        <ele>1224</ele>
        <time>2021-08-07T10:48:00.100Z</time>
      </trkpt>
      <trkpt lat="46.91764" lon="8.65394">
        <ele>1224</ele>
        <time>2021-08-07T10:48:01.099Z</time>
      </trkpt>
      <trkpt lat="46.91765" lon="8.65393">
        <ele>1220</ele>
        <time>2021-08-07T10:48:02.101Z</time>
      </trkpt>
      <trkpt lat="46.91765" lon="8.65393">
        <ele>1220</ele>
        <time>2021-08-07T10:48:03.100Z</time>
      </trkpt>
      <trkpt lat="46.91765" lon="8.65393">
        <ele>1219</ele>
        <time>2021-08-07T10:48:04.100Z</time>
      </trkpt>
      <trkpt lat="46.91765" lon="8.65392">
        <ele>1219</ele>
        <time>2021-08-07T10:48:05.101Z</time>
      </trkpt>
      <trkpt lat="46.91764" lon="8.65392">
        <ele>1218</ele>
        <time>2021-08-07T10:48:06.101Z</time>
      </trkpt>
      <trkpt lat="46.91763" lon="8.65392">
        <ele>1218</ele>
        <time>2021-08-07T10:48:07.100Z</time>
      </trkpt>
      <trkpt lat="46.91765" lon="8.6539">
        <ele>1215</ele>
        <time>2021-08-07T10:48:08.101Z</time>
      </trkpt>
      <trkpt lat="46.91765" lon="8.65389">
        <ele>1215</ele>
        <time>2021-08-07T10:48:09.101Z</time>
      </trkpt>
      <trkpt lat="46.91765" lon="8.65389">
        <ele>1215</ele>
        <time>2021-08-07T10:48:10.101Z</time>
      </trkpt>
      <trkpt lat="46.91764" lon="8.65388">
        <ele>1215</ele>
        <time>2021-08-07T10:48:11.101Z</time>
      </trkpt>
      <trkpt lat="46.91764" lon="8.65388">
        <ele>1215</ele>
        <time>2021-08-07T10:48:12.101Z</time>
      </trkpt>
      <trkpt lat="46.91763" lon="8.65387">
        <ele>1214</ele>
        <time>2021-08-07T10:48:13.102Z</time>
      </trkpt>
      <trkpt lat="46.91763" lon="8.65387">
        <ele>1213</ele>
        <time>2021-08-07T10:48:14.102Z</time>
      </trkpt>
      <trkpt lat="46.91763" lon="8.65387">
        <ele>1213</ele>
        <time>2021-08-07T10:48:15.102Z</time>
      </trkpt>
      <trkpt lat="46.91763" lon="8.65386">
        <ele>1213</ele>
        <time>2021-08-07T10:48:16.102Z</time>
      </trkpt>
      <trkpt lat="46.91763" lon="8.65386">
        <ele>1213</ele>
        <time>2021-08-07T10:48:17.103Z</time>
      </trkpt>
      <trkpt lat="46.91764" lon="8.65386">
        <ele>1213</ele>
        <time>2021-08-07T10:48:18.103Z</time>
      </trkpt>
      <trkpt lat="46.91765" lon="8.65386">
        <ele>1213</ele>
        <time>2021-08-07T10:48:19.102Z</time>
      </trkpt>
      <trkpt lat="46.91766" lon="8.65386">
        <ele>1213</ele>
        <time>2021-08-07T10:48:20.103Z</time>
      </trkpt>
      <trkpt lat="46.91766" lon="8.65386">
        <ele>1213</ele>
        <time>2021-08-07T10:48:21.103Z</time>
      </trkpt>
      <trkpt lat="46.91767" lon="8.65385">
        <ele>1213</ele>
        <time>2021-08-07T10:48:22.103Z</time>
      </trkpt>
      <trkpt lat="46.91768" lon="8.65384">
        <ele>1213</ele>
        <time>2021-08-07T10:48:23.102Z</time>
      </trkpt>
      <trkpt lat="46.91769" lon="8.65384">
        <ele>1213</ele>
        <time>2021-08-07T10:48:24.102Z</time>
      </trkpt>
      <trkpt lat="46.9177" lon="8.65384">
        <ele>1213</ele>
        <time>2021-08-07T10:48:25.103Z</time>
      </trkpt>
      <trkpt lat="46.91769" lon="8.65384">
        <ele>1213</ele>
        <time>2021-08-07T10:48:26.103Z</time>
      </trkpt>
      <trkpt lat="46.91769" lon="8.65384">
        <ele>1213</ele>
        <time>2021-08-07T10:48:27.103Z</time>
      </trkpt>
      <trkpt lat="46.91769" lon="8.65384">
        <ele>1213</ele>
        <time>2021-08-07T10:48:28.103Z</time>
      </trkpt>
      <trkpt lat="46.91773" lon="8.65381">
        <ele>1214</ele>
        <time>2021-08-07T10:48:29.103Z</time>
      </trkpt>
      <trkpt lat="46.91775" lon="8.65381">
        <ele>1214</ele>
        <time>2021-08-07T10:48:30.103Z</time>
      </trkpt>
      <trkpt lat="46.91773" lon="8.65381">
        <ele>1214</ele>
        <time>2021-08-07T10:48:31.103Z</time>
      </trkpt>
      <trkpt lat="46.91774" lon="8.65381">
        <ele>1215</ele>
        <time>2021-08-07T10:48:32.103Z</time>
      </trkpt>
      <trkpt lat="46.91775" lon="8.65381">
        <ele>1215</ele>
        <time>2021-08-07T10:48:33.103Z</time>
      </trkpt>
      <trkpt lat="46.91776" lon="8.6538">
        <ele>1215</ele>
        <time>2021-08-07T10:48:34.103Z</time>
      </trkpt>
      <trkpt lat="46.91776" lon="8.6538">
        <ele>1215</ele>
        <time>2021-08-07T10:48:35.103Z</time>
      </trkpt>
      <trkpt lat="46.91776" lon="8.65379">
        <ele>1215</ele>
        <time>2021-08-07T10:48:36.102Z</time>
      </trkpt>
      <trkpt lat="46.91776" lon="8.65378">
        <ele>1216</ele>
        <time>2021-08-07T10:48:37.102Z</time>
      </trkpt>
      <trkpt lat="46.91776" lon="8.65377">
        <ele>1216</ele>
        <time>2021-08-07T10:48:38.102Z</time>
      </trkpt>
      <trkpt lat="46.91775" lon="8.65377">
        <ele>1216</ele>
        <time>2021-08-07T10:48:39.103Z</time>
      </trkpt>
      <trkpt lat="46.91773" lon="8.65376">
        <ele>1217</ele>
        <time>2021-08-07T10:48:40.103Z</time>
      </trkpt>
      <trkpt lat="46.91772" lon="8.65376">
        <ele>1217</ele>
        <time>2021-08-07T10:48:41.103Z</time>
      </trkpt>
      <trkpt lat="46.91771" lon="8.65375">
        <ele>1217</ele>
        <time>2021-08-07T10:48:42.103Z</time>
      </trkpt>
      <trkpt lat="46.91771" lon="8.65375">
        <ele>1217</ele>
        <time>2021-08-07T10:48:43.102Z</time>
      </trkpt>
      <trkpt lat="46.91771" lon="8.65375">
        <ele>1217</ele>
        <time>2021-08-07T10:48:44.102Z</time>
      </trkpt>
      <trkpt lat="46.9177" lon="8.65374">
        <ele>1217</ele>
        <time>2021-08-07T10:48:45.103Z</time>
      </trkpt>
      <trkpt lat="46.9177" lon="8.65374">
        <ele>1217</ele>
        <time>2021-08-07T10:48:46.103Z</time>
      </trkpt>
      <trkpt lat="46.91769" lon="8.65373">
        <ele>1217</ele>
        <time>2021-08-07T10:48:47.103Z</time>
      </trkpt>
      <trkpt lat="46.91769" lon="8.65373">
        <ele>1216</ele>
        <time>2021-08-07T10:48:48.102Z</time>
      </trkpt>
      <trkpt lat="46.91768" lon="8.65373">
        <ele>1216</ele>
        <time>2021-08-07T10:48:49.103Z</time>
      </trkpt>
      <trkpt lat="46.91768" lon="8.65372">
        <ele>1216</ele>
        <time>2021-08-07T10:48:50.103Z</time>
      </trkpt>
      <trkpt lat="46.91769" lon="8.65373">
        <ele>1218</ele>
        <time>2021-08-07T10:48:51.105Z</time>
      </trkpt>
      <trkpt lat="46.91769" lon="8.65373">
        <ele>1218</ele>
        <time>2021-08-07T10:48:52.105Z</time>
      </trkpt>
      <trkpt lat="46.91769" lon="8.65372">
        <ele>1218</ele>
        <time>2021-08-07T10:48:53.104Z</time>
      </trkpt>
      <trkpt lat="46.91768" lon="8.65372">
        <ele>1218</ele>
        <time>2021-08-07T10:48:54.105Z</time>
      </trkpt>
      <trkpt lat="46.91768" lon="8.65371">
        <ele>1218</ele>
        <time>2021-08-07T10:48:55.105Z</time>
      </trkpt>
      <trkpt lat="46.91768" lon="8.65371">
        <ele>1219</ele>
        <time>2021-08-07T10:48:56.105Z</time>
      </trkpt>
      <trkpt lat="46.91769" lon="8.6537">
        <ele>1219</ele>
        <time>2021-08-07T10:48:57.105Z</time>
      </trkpt>
      <trkpt lat="46.91771" lon="8.6537">
        <ele>1219</ele>
        <time>2021-08-07T10:48:58.105Z</time>
      </trkpt>
      <trkpt lat="46.91772" lon="8.65369">
        <ele>1219</ele>
        <time>2021-08-07T10:48:59.104Z</time>
      </trkpt>
      <trkpt lat="46.91781" lon="8.65368">
        <ele>1221</ele>
        <time>2021-08-07T10:49:00.105Z</time>
      </trkpt>
      <trkpt lat="46.91782" lon="8.65367">
        <ele>1222</ele>
        <time>2021-08-07T10:49:01.104Z</time>
      </trkpt>
      <trkpt lat="46.91781" lon="8.65366">
        <ele>1222</ele>
        <time>2021-08-07T10:49:02.104Z</time>
      </trkpt>
      <trkpt lat="46.91782" lon="8.65365">
        <ele>1222</ele>
        <time>2021-08-07T10:49:03.105Z</time>
      </trkpt>
      <trkpt lat="46.91784" lon="8.65363">
        <ele>1223</ele>
        <time>2021-08-07T10:49:04.105Z</time>
      </trkpt>
      <trkpt lat="46.91786" lon="8.65362">
        <ele>1223</ele>
        <time>2021-08-07T10:49:05.104Z</time>
      </trkpt>
      <trkpt lat="46.91788" lon="8.65361">
        <ele>1224</ele>
        <time>2021-08-07T10:49:06.105Z</time>
      </trkpt>
      <trkpt lat="46.91787" lon="8.65359">
        <ele>1224</ele>
        <time>2021-08-07T10:49:07.105Z</time>
      </trkpt>
      <trkpt lat="46.91783" lon="8.65357">
        <ele>1224</ele>
        <time>2021-08-07T10:49:08.105Z</time>
      </trkpt>
      <trkpt lat="46.9178" lon="8.65355">
        <ele>1223</ele>
        <time>2021-08-07T10:49:09.104Z</time>
      </trkpt>
      <trkpt lat="46.91777" lon="8.65353">
        <ele>1222</ele>
        <time>2021-08-07T10:49:10.104Z</time>
      </trkpt>
      <trkpt lat="46.91776" lon="8.65352">
        <ele>1221</ele>
        <time>2021-08-07T10:49:11.105Z</time>
      </trkpt>
      <trkpt lat="46.91776" lon="8.6535">
        <ele>1220</ele>
        <time>2021-08-07T10:49:12.105Z</time>
      </trkpt>
      <trkpt lat="46.91775" lon="8.65349">
        <ele>1219</ele>
        <time>2021-08-07T10:49:13.104Z</time>
      </trkpt>
      <trkpt lat="46.91775" lon="8.65347">
        <ele>1219</ele>
        <time>2021-08-07T10:49:14.105Z</time>
      </trkpt>
      <trkpt lat="46.91775" lon="8.65345">
        <ele>1219</ele>
        <time>2021-08-07T10:49:15.105Z</time>
      </trkpt>
      <trkpt lat="46.91775" lon="8.65344">
        <ele>1218</ele>
        <time>2021-08-07T10:49:16.105Z</time>
      </trkpt>
      <trkpt lat="46.91774" lon="8.65342">
        <ele>1218</ele>
        <time>2021-08-07T10:49:17.104Z</time>
      </trkpt>
      <trkpt lat="46.91774" lon="8.6534">
        <ele>1217</ele>
        <time>2021-08-07T10:49:18.105Z</time>
      </trkpt>
      <trkpt lat="46.91774" lon="8.65339">
        <ele>1217</ele>
        <time>2021-08-07T10:49:22.205Z</time>
      </trkpt>
      <trkpt lat="46.91775" lon="8.65338">
        <ele>1217</ele>
        <time>2021-08-07T10:49:23.205Z</time>
      </trkpt>
      <trkpt lat="46.91775" lon="8.65336">
        <ele>1216</ele>
        <time>2021-08-07T10:49:24.204Z</time>
      </trkpt>
      <trkpt lat="46.91774" lon="8.65335">
        <ele>1216</ele>
        <time>2021-08-07T10:49:25.204Z</time>
      </trkpt>
      <trkpt lat="46.91773" lon="8.65332">
        <ele>1216</ele>
        <time>2021-08-07T10:49:26.204Z</time>
      </trkpt>
      <trkpt lat="46.91773" lon="8.65329">
        <ele>1215</ele>
        <time>2021-08-07T10:49:34.230Z</time>
      </trkpt>
      <trkpt lat="46.91772" lon="8.65327">
        <ele>1215</ele>
        <time>2021-08-07T10:49:35.230Z</time>
      </trkpt>
      <trkpt lat="46.91772" lon="8.65325">
        <ele>1215</ele>
        <time>2021-08-07T10:49:36.230Z</time>
      </trkpt>
      <trkpt lat="46.91771" lon="8.65323">
        <ele>1214</ele>
        <time>2021-08-07T10:49:37.229Z</time>
      </trkpt>
      <trkpt lat="46.91771" lon="8.65321">
        <ele>1214</ele>
        <time>2021-08-07T10:49:38.230Z</time>
      </trkpt>
      <trkpt lat="46.91769" lon="8.6532">
        <ele>1213</ele>
        <time>2021-08-07T10:49:45.354Z</time>
      </trkpt>
      <trkpt lat="46.91769" lon="8.6532">
        <ele>1213</ele>
        <time>2021-08-07T10:49:46.354Z</time>
      </trkpt>
      <trkpt lat="46.9177" lon="8.65318">
        <ele>1211</ele>
        <time>2021-08-07T10:49:49.178Z</time>
      </trkpt>
      <trkpt lat="46.91769" lon="8.65317">
        <ele>1211</ele>
        <time>2021-08-07T10:49:50.178Z</time>
      </trkpt>
      <trkpt lat="46.91769" lon="8.65315">
        <ele>1211</ele>
        <time>2021-08-07T10:49:51.177Z</time>
      </trkpt>
      <trkpt lat="46.91771" lon="8.65312">
        <ele>1212</ele>
        <time>2021-08-07T10:49:52.178Z</time>
      </trkpt>
      <trkpt lat="46.91772" lon="8.65312">
        <ele>1212</ele>
        <time>2021-08-07T10:49:53.178Z</time>
      </trkpt>
      <trkpt lat="46.91773" lon="8.65311">
        <ele>1213</ele>
        <time>2021-08-07T10:50:03.331Z</time>
      </trkpt>
      <trkpt lat="46.91774" lon="8.6531">
        <ele>1213</ele>
        <time>2021-08-07T10:50:04.331Z</time>
      </trkpt>
      <trkpt lat="46.91774" lon="8.65308">
        <ele>1213</ele>
        <time>2021-08-07T10:50:05.331Z</time>
      </trkpt>
      <trkpt lat="46.91775" lon="8.65307">
        <ele>1212</ele>
        <time>2021-08-07T10:50:12.470Z</time>
      </trkpt>
      <trkpt lat="46.91775" lon="8.65306">
        <ele>1212</ele>
        <time>2021-08-07T10:50:13.470Z</time>
      </trkpt>
      <trkpt lat="46.91776" lon="8.65305">
        <ele>1211</ele>
        <time>2021-08-07T10:50:14.469Z</time>
      </trkpt>
      <trkpt lat="46.91776" lon="8.65304">
        <ele>1211</ele>
        <time>2021-08-07T10:50:15.469Z</time>
      </trkpt>
      <trkpt lat="46.91776" lon="8.65303">
        <ele>1210</ele>
        <time>2021-08-07T10:50:16.469Z</time>
      </trkpt>
      <trkpt lat="46.91776" lon="8.65302">
        <ele>1210</ele>
        <time>2021-08-07T10:50:17.470Z</time>
      </trkpt>
      <trkpt lat="46.91776" lon="8.65301">
        <ele>1210</ele>
        <time>2021-08-07T10:50:18.470Z</time>
      </trkpt>
      <trkpt lat="46.91776" lon="8.653">
        <ele>1210</ele>
        <time>2021-08-07T10:50:19.469Z</time>
      </trkpt>
      <trkpt lat="46.91777" lon="8.65299">
        <ele>1210</ele>
        <time>2021-08-07T10:50:20.470Z</time>
      </trkpt>
      <trkpt lat="46.91777" lon="8.65297">
        <ele>1210</ele>
        <time>2021-08-07T10:50:21.469Z</time>
      </trkpt>
      <trkpt lat="46.91777" lon="8.65295">
        <ele>1210</ele>
        <time>2021-08-07T10:50:22.469Z</time>
      </trkpt>
      <trkpt lat="46.91777" lon="8.65293">
        <ele>1210</ele>
        <time>2021-08-07T10:50:23.469Z</time>
      </trkpt>
      <trkpt lat="46.91776" lon="8.65292">
        <ele>1209</ele>
        <time>2021-08-07T10:50:24.469Z</time>
      </trkpt>
      <trkpt lat="46.91776" lon="8.6529">
        <ele>1209</ele>
        <time>2021-08-07T10:50:25.469Z</time>
      </trkpt>
      <trkpt lat="46.91775" lon="8.65288">
        <ele>1208</ele>
        <time>2021-08-07T10:50:26.469Z</time>
      </trkpt>
      <trkpt lat="46.91774" lon="8.65286">
        <ele>1208</ele>
        <time>2021-08-07T10:50:27.469Z</time>
      </trkpt>
      <trkpt lat="46.91773" lon="8.65285">
        <ele>1207</ele>
        <time>2021-08-07T10:50:28.469Z</time>
      </trkpt>
      <trkpt lat="46.91772" lon="8.65283">
        <ele>1207</ele>
        <time>2021-08-07T10:50:29.469Z</time>
      </trkpt>
      <trkpt lat="46.91772" lon="8.65281">
        <ele>1207</ele>
        <time>2021-08-07T10:50:30.470Z</time>
      </trkpt>
      <trkpt lat="46.91771" lon="8.65279">
        <ele>1208</ele>
        <time>2021-08-07T10:50:31.469Z</time>
      </trkpt>
      <trkpt lat="46.9177" lon="8.65278">
        <ele>1208</ele>
        <time>2021-08-07T10:50:32.469Z</time>
      </trkpt>
      <trkpt lat="46.9177" lon="8.65277">
        <ele>1208</ele>
        <time>2021-08-07T10:50:33.469Z</time>
      </trkpt>
      <trkpt lat="46.91769" lon="8.65276">
        <ele>1208</ele>
        <time>2021-08-07T10:50:34.469Z</time>
      </trkpt>
      <trkpt lat="46.91768" lon="8.65274">
        <ele>1208</ele>
        <time>2021-08-07T10:50:35.469Z</time>
      </trkpt>
      <trkpt lat="46.91767" lon="8.65273">
        <ele>1208</ele>
        <time>2021-08-07T10:50:36.469Z</time>
      </trkpt>
      <trkpt lat="46.91766" lon="8.65272">
        <ele>1208</ele>
        <time>2021-08-07T10:50:37.469Z</time>
      </trkpt>
      <trkpt lat="46.91765" lon="8.65271">
        <ele>1208</ele>
        <time>2021-08-07T10:50:38.469Z</time>
      </trkpt>
      <trkpt lat="46.91763" lon="8.65269">
        <ele>1208</ele>
        <time>2021-08-07T10:50:39.469Z</time>
      </trkpt>
      <trkpt lat="46.91762" lon="8.65268">
        <ele>1208</ele>
        <time>2021-08-07T10:50:40.469Z</time>
      </trkpt>
      <trkpt lat="46.91761" lon="8.65267">
        <ele>1208</ele>
        <time>2021-08-07T10:50:41.469Z</time>
      </trkpt>
      <trkpt lat="46.9176" lon="8.65266">
        <ele>1209</ele>
        <time>2021-08-07T10:50:42.469Z</time>
      </trkpt>
      <trkpt lat="46.91759" lon="8.65265">
        <ele>1209</ele>
        <time>2021-08-07T10:50:45.437Z</time>
      </trkpt>
      <trkpt lat="46.91758" lon="8.65264">
        <ele>1209</ele>
        <time>2021-08-07T10:50:46.437Z</time>
      </trkpt>
      <trkpt lat="46.91757" lon="8.65263">
        <ele>1209</ele>
        <time>2021-08-07T10:50:47.438Z</time>
      </trkpt>
      <trkpt lat="46.91756" lon="8.65262">
        <ele>1208</ele>
        <time>2021-08-07T10:50:48.437Z</time>
      </trkpt>
      <trkpt lat="46.91755" lon="8.65261">
        <ele>1208</ele>
        <time>2021-08-07T10:50:49.437Z</time>
      </trkpt>
      <trkpt lat="46.91755" lon="8.6526">
        <ele>1208</ele>
        <time>2021-08-07T10:50:50.437Z</time>
      </trkpt>
      <trkpt lat="46.91754" lon="8.65259">
        <ele>1208</ele>
        <time>2021-08-07T10:50:51.437Z</time>
      </trkpt>
      <trkpt lat="46.91754" lon="8.65258">
        <ele>1208</ele>
        <time>2021-08-07T10:50:52.438Z</time>
      </trkpt>
      <trkpt lat="46.91753" lon="8.65256">
        <ele>1208</ele>
        <time>2021-08-07T10:50:53.437Z</time>
      </trkpt>
      <trkpt lat="46.91753" lon="8.65255">
        <ele>1208</ele>
        <time>2021-08-07T10:50:54.438Z</time>
      </trkpt>
      <trkpt lat="46.91752" lon="8.65254">
        <ele>1208</ele>
        <time>2021-08-07T10:50:55.437Z</time>
      </trkpt>
      <trkpt lat="46.91752" lon="8.65252">
        <ele>1208</ele>
        <time>2021-08-07T10:50:56.438Z</time>
      </trkpt>
      <trkpt lat="46.91752" lon="8.6525">
        <ele>1208</ele>
        <time>2021-08-07T10:50:57.437Z</time>
      </trkpt>
      <trkpt lat="46.91752" lon="8.65248">
        <ele>1207</ele>
        <time>2021-08-07T10:50:58.438Z</time>
      </trkpt>
      <trkpt lat="46.91752" lon="8.65246">
        <ele>1206</ele>
        <time>2021-08-07T10:50:59.438Z</time>
      </trkpt>
      <trkpt lat="46.91752" lon="8.65244">
        <ele>1206</ele>
        <time>2021-08-07T10:51:00.438Z</time>
      </trkpt>
      <trkpt lat="46.91752" lon="8.65243">
        <ele>1205</ele>
        <time>2021-08-07T10:51:01.437Z</time>
      </trkpt>
      <trkpt lat="46.91752" lon="8.65241">
        <ele>1205</ele>
        <time>2021-08-07T10:51:02.438Z</time>
      </trkpt>
      <trkpt lat="46.91752" lon="8.65238">
        <ele>1204</ele>
        <time>2021-08-07T10:51:03.437Z</time>
      </trkpt>
      <trkpt lat="46.91752" lon="8.65237">
        <ele>1204</ele>
        <time>2021-08-07T10:51:04.437Z</time>
      </trkpt>
      <trkpt lat="46.91752" lon="8.65235">
        <ele>1203</ele>
        <time>2021-08-07T10:51:05.438Z</time>
      </trkpt>
      <trkpt lat="46.91753" lon="8.65233">
        <ele>1203</ele>
        <time>2021-08-07T10:51:06.438Z</time>
      </trkpt>
      <trkpt lat="46.91753" lon="8.65231">
        <ele>1203</ele>
        <time>2021-08-07T10:51:07.437Z</time>
      </trkpt>
      <trkpt lat="46.91752" lon="8.65229">
        <ele>1202</ele>
        <time>2021-08-07T10:51:08.437Z</time>
      </trkpt>
      <trkpt lat="46.91752" lon="8.65228">
        <ele>1202</ele>
        <time>2021-08-07T10:51:09.437Z</time>
      </trkpt>
      <trkpt lat="46.91752" lon="8.65226">
        <ele>1201</ele>
        <time>2021-08-07T10:51:10.437Z</time>
      </trkpt>
      <trkpt lat="46.91751" lon="8.65225">
        <ele>1201</ele>
        <time>2021-08-07T10:51:11.437Z</time>
      </trkpt>
      <trkpt lat="46.9175" lon="8.65223">
        <ele>1200</ele>
        <time>2021-08-07T10:51:12.437Z</time>
      </trkpt>
      <trkpt lat="46.91749" lon="8.65221">
        <ele>1199</ele>
        <time>2021-08-07T10:51:13.437Z</time>
      </trkpt>
      <trkpt lat="46.91748" lon="8.6522">
        <ele>1199</ele>
        <time>2021-08-07T10:51:14.437Z</time>
      </trkpt>
      <trkpt lat="46.91748" lon="8.65218">
        <ele>1198</ele>
        <time>2021-08-07T10:51:15.437Z</time>
      </trkpt>
      <trkpt lat="46.91747" lon="8.65217">
        <ele>1198</ele>
        <time>2021-08-07T10:51:16.437Z</time>
      </trkpt>
      <trkpt lat="46.91746" lon="8.65216">
        <ele>1198</ele>
        <time>2021-08-07T10:51:17.437Z</time>
      </trkpt>
      <trkpt lat="46.91745" lon="8.65215">
        <ele>1198</ele>
        <time>2021-08-07T10:51:18.437Z</time>
      </trkpt>
      <trkpt lat="46.91744" lon="8.65214">
        <ele>1198</ele>
        <time>2021-08-07T10:51:19.438Z</time>
      </trkpt>
      <trkpt lat="46.91743" lon="8.65213">
        <ele>1198</ele>
        <time>2021-08-07T10:51:20.437Z</time>
      </trkpt>
      <trkpt lat="46.91742" lon="8.65212">
        <ele>1198</ele>
        <time>2021-08-07T10:51:21.437Z</time>
      </trkpt>
      <trkpt lat="46.91741" lon="8.65211">
        <ele>1198</ele>
        <time>2021-08-07T10:51:22.437Z</time>
      </trkpt>
      <trkpt lat="46.9174" lon="8.65211">
        <ele>1198</ele>
        <time>2021-08-07T10:51:23.437Z</time>
      </trkpt>
      <trkpt lat="46.91739" lon="8.6521">
        <ele>1198</ele>
        <time>2021-08-07T10:51:24.437Z</time>
      </trkpt>
      <trkpt lat="46.91738" lon="8.6521">
        <ele>1197</ele>
        <time>2021-08-07T10:51:25.438Z</time>
      </trkpt>
      <trkpt lat="46.91737" lon="8.6521">
        <ele>1197</ele>
        <time>2021-08-07T10:51:26.437Z</time>
      </trkpt>
      <trkpt lat="46.91736" lon="8.65209">
        <ele>1197</ele>
        <time>2021-08-07T10:51:27.437Z</time>
      </trkpt>
      <trkpt lat="46.91735" lon="8.65208">
        <ele>1198</ele>
        <time>2021-08-07T10:51:28.437Z</time>
      </trkpt>
      <trkpt lat="46.91734" lon="8.65207">
        <ele>1199</ele>
        <time>2021-08-07T10:51:29.438Z</time>
      </trkpt>
      <trkpt lat="46.91733" lon="8.65206">
        <ele>1199</ele>
        <time>2021-08-07T10:51:30.438Z</time>
      </trkpt>
      <trkpt lat="46.91732" lon="8.65205">
        <ele>1199</ele>
        <time>2021-08-07T10:51:31.437Z</time>
      </trkpt>
      <trkpt lat="46.91731" lon="8.65202">
        <ele>1199</ele>
        <time>2021-08-07T10:51:32.437Z</time>
      </trkpt>
      <trkpt lat="46.91731" lon="8.652">
        <ele>1199</ele>
        <time>2021-08-07T10:51:33.437Z</time>
      </trkpt>
      <trkpt lat="46.91731" lon="8.65199">
        <ele>1199</ele>
        <time>2021-08-07T10:51:34.438Z</time>
      </trkpt>
      <trkpt lat="46.91731" lon="8.65199">
        <ele>1199</ele>
        <time>2021-08-07T10:51:35.438Z</time>
      </trkpt>
      <trkpt lat="46.91731" lon="8.65198">
        <ele>1199</ele>
        <time>2021-08-07T10:51:36.437Z</time>
      </trkpt>
      <trkpt lat="46.9173" lon="8.65196">
        <ele>1199</ele>
        <time>2021-08-07T10:51:37.437Z</time>
      </trkpt>
      <trkpt lat="46.9173" lon="8.65194">
        <ele>1199</ele>
        <time>2021-08-07T10:51:38.437Z</time>
      </trkpt>
      <trkpt lat="46.9173" lon="8.65194">
        <ele>1199</ele>
        <time>2021-08-07T10:51:39.438Z</time>
      </trkpt>
      <trkpt lat="46.91731" lon="8.65194">
        <ele>1199</ele>
        <time>2021-08-07T10:51:40.437Z</time>
      </trkpt>
      <trkpt lat="46.91728" lon="8.65193">
        <ele>1198</ele>
        <time>2021-08-07T10:51:41.438Z</time>
      </trkpt>
      <trkpt lat="46.91728" lon="8.65192">
        <ele>1198</ele>
        <time>2021-08-07T10:51:42.438Z</time>
      </trkpt>
      <trkpt lat="46.91727" lon="8.65191">
        <ele>1197</ele>
        <time>2021-08-07T10:51:43.438Z</time>
      </trkpt>
      <trkpt lat="46.91726" lon="8.6519">
        <ele>1197</ele>
        <time>2021-08-07T10:51:44.438Z</time>
      </trkpt>
      <trkpt lat="46.91725" lon="8.65188">
        <ele>1197</ele>
        <time>2021-08-07T10:51:45.437Z</time>
      </trkpt>
      <trkpt lat="46.91725" lon="8.65186">
        <ele>1197</ele>
        <time>2021-08-07T10:51:46.438Z</time>
      </trkpt>
      <trkpt lat="46.91724" lon="8.65184">
        <ele>1197</ele>
        <time>2021-08-07T10:51:47.438Z</time>
      </trkpt>
      <trkpt lat="46.91724" lon="8.65183">
        <ele>1197</ele>
        <time>2021-08-07T10:51:48.437Z</time>
      </trkpt>
      <trkpt lat="46.91723" lon="8.65181">
        <ele>1196</ele>
        <time>2021-08-07T10:51:49.437Z</time>
      </trkpt>
      <trkpt lat="46.91722" lon="8.6518">
        <ele>1196</ele>
        <time>2021-08-07T10:51:58.469Z</time>
      </trkpt>
      <trkpt lat="46.91722" lon="8.6518">
        <ele>1196</ele>
        <time>2021-08-07T10:51:59.469Z</time>
      </trkpt>
      <trkpt lat="46.91725" lon="8.6518">
        <ele>1194</ele>
        <time>2021-08-07T10:52:00.469Z</time>
      </trkpt>
      <trkpt lat="46.91725" lon="8.6518">
        <ele>1194</ele>
        <time>2021-08-07T10:52:01.470Z</time>
      </trkpt>
      <trkpt lat="46.91726" lon="8.6518">
        <ele>1194</ele>
        <time>2021-08-07T10:52:02.470Z</time>
      </trkpt>
      <trkpt lat="46.91725" lon="8.6518">
        <ele>1194</ele>
        <time>2021-08-07T10:52:03.471Z</time>
      </trkpt>
      <trkpt lat="46.91725" lon="8.65179">
        <ele>1194</ele>
        <time>2021-08-07T10:52:04.472Z</time>
      </trkpt>
      <trkpt lat="46.91724" lon="8.65177">
        <ele>1194</ele>
        <time>2021-08-07T10:52:05.472Z</time>
      </trkpt>
      <trkpt lat="46.91723" lon="8.65176">
        <ele>1195</ele>
        <time>2021-08-07T10:52:06.471Z</time>
      </trkpt>
      <trkpt lat="46.91723" lon="8.65174">
        <ele>1195</ele>
        <time>2021-08-07T10:52:07.471Z</time>
      </trkpt>
      <trkpt lat="46.91722" lon="8.65172">
        <ele>1195</ele>
        <time>2021-08-07T10:52:08.471Z</time>
      </trkpt>
      <trkpt lat="46.91721" lon="8.6517">
        <ele>1195</ele>
        <time>2021-08-07T10:52:09.472Z</time>
      </trkpt>
      <trkpt lat="46.91721" lon="8.65169">
        <ele>1195</ele>
        <time>2021-08-07T10:52:10.471Z</time>
      </trkpt>
      <trkpt lat="46.9172" lon="8.65167">
        <ele>1195</ele>
        <time>2021-08-07T10:52:11.471Z</time>
      </trkpt>
      <trkpt lat="46.9172" lon="8.65165">
        <ele>1196</ele>
        <time>2021-08-07T10:52:12.471Z</time>
      </trkpt>
      <trkpt lat="46.91719" lon="8.65164">
        <ele>1196</ele>
        <time>2021-08-07T10:52:13.471Z</time>
      </trkpt>
      <trkpt lat="46.91718" lon="8.65162">
        <ele>1196</ele>
        <time>2021-08-07T10:52:14.471Z</time>
      </trkpt>
      <trkpt lat="46.91717" lon="8.6516">
        <ele>1196</ele>
        <time>2021-08-07T10:52:15.471Z</time>
      </trkpt>
      <trkpt lat="46.91717" lon="8.65158">
        <ele>1197</ele>
        <time>2021-08-07T10:52:16.471Z</time>
      </trkpt>
      <trkpt lat="46.91716" lon="8.65157">
        <ele>1197</ele>
        <time>2021-08-07T10:52:17.471Z</time>
      </trkpt>
      <trkpt lat="46.91715" lon="8.65154">
        <ele>1197</ele>
        <time>2021-08-07T10:52:18.472Z</time>
      </trkpt>
      <trkpt lat="46.91715" lon="8.65153">
        <ele>1197</ele>
        <time>2021-08-07T10:52:19.471Z</time>
      </trkpt>
      <trkpt lat="46.91714" lon="8.65152">
        <ele>1197</ele>
        <time>2021-08-07T10:52:20.471Z</time>
      </trkpt>
      <trkpt lat="46.91713" lon="8.65151">
        <ele>1196</ele>
        <time>2021-08-07T10:52:21.472Z</time>
      </trkpt>
      <trkpt lat="46.91713" lon="8.65151">
        <ele>1196</ele>
        <time>2021-08-07T10:52:22.471Z</time>
      </trkpt>
      <trkpt lat="46.91712" lon="8.6515">
        <ele>1196</ele>
        <time>2021-08-07T10:52:23.471Z</time>
      </trkpt>
      <trkpt lat="46.91712" lon="8.65149">
        <ele>1196</ele>
        <time>2021-08-07T10:52:24.471Z</time>
      </trkpt>
      <trkpt lat="46.91711" lon="8.65148">
        <ele>1195</ele>
        <time>2021-08-07T10:52:25.471Z</time>
      </trkpt>
      <trkpt lat="46.9171" lon="8.65147">
        <ele>1195</ele>
        <time>2021-08-07T10:52:26.471Z</time>
      </trkpt>
      <trkpt lat="46.91709" lon="8.65146">
        <ele>1195</ele>
        <time>2021-08-07T10:52:27.471Z</time>
      </trkpt>
      <trkpt lat="46.91709" lon="8.65144">
        <ele>1194</ele>
        <time>2021-08-07T10:52:28.471Z</time>
      </trkpt>
      <trkpt lat="46.91708" lon="8.65143">
        <ele>1194</ele>
        <time>2021-08-07T10:52:29.471Z</time>
      </trkpt>
      <trkpt lat="46.91707" lon="8.65142">
        <ele>1194</ele>
        <time>2021-08-07T10:52:30.471Z</time>
      </trkpt>
      <trkpt lat="46.91706" lon="8.65141">
        <ele>1194</ele>
        <time>2021-08-07T10:52:31.471Z</time>
      </trkpt>
      <trkpt lat="46.91705" lon="8.6514">
        <ele>1194</ele>
        <time>2021-08-07T10:52:32.471Z</time>
      </trkpt>
      <trkpt lat="46.91704" lon="8.65138">
        <ele>1194</ele>
        <time>2021-08-07T10:52:33.471Z</time>
      </trkpt>
      <trkpt lat="46.91704" lon="8.65137">
        <ele>1194</ele>
        <time>2021-08-07T10:52:34.471Z</time>
      </trkpt>
      <trkpt lat="46.91703" lon="8.65136">
        <ele>1194</ele>
        <time>2021-08-07T10:52:35.471Z</time>
      </trkpt>
      <trkpt lat="46.91702" lon="8.65134">
        <ele>1194</ele>
        <time>2021-08-07T10:52:36.471Z</time>
      </trkpt>
      <trkpt lat="46.91701" lon="8.65132">
        <ele>1194</ele>
        <time>2021-08-07T10:52:37.471Z</time>
      </trkpt>
      <trkpt lat="46.91701" lon="8.65131">
        <ele>1195</ele>
        <time>2021-08-07T10:52:38.471Z</time>
      </trkpt>
      <trkpt lat="46.917" lon="8.6513">
        <ele>1195</ele>
        <time>2021-08-07T10:52:39.471Z</time>
      </trkpt>
      <trkpt lat="46.917" lon="8.65129">
        <ele>1195</ele>
        <time>2021-08-07T10:52:40.472Z</time>
      </trkpt>
      <trkpt lat="46.917" lon="8.65129">
        <ele>1195</ele>
        <time>2021-08-07T10:52:41.471Z</time>
      </trkpt>
      <trkpt lat="46.91699" lon="8.65129">
        <ele>1194</ele>
        <time>2021-08-07T10:52:42.471Z</time>
      </trkpt>
      <trkpt lat="46.91699" lon="8.65126">
        <ele>1193</ele>
        <time>2021-08-07T10:52:43.471Z</time>
      </trkpt>
      <trkpt lat="46.91698" lon="8.65125">
        <ele>1193</ele>
        <time>2021-08-07T10:52:44.472Z</time>
      </trkpt>
      <trkpt lat="46.91697" lon="8.65124">
        <ele>1193</ele>
        <time>2021-08-07T10:52:45.471Z</time>
      </trkpt>
      <trkpt lat="46.91697" lon="8.65122">
        <ele>1194</ele>
        <time>2021-08-07T10:52:46.471Z</time>
      </trkpt>
      <trkpt lat="46.91696" lon="8.6512">
        <ele>1194</ele>
        <time>2021-08-07T10:52:48.552Z</time>
      </trkpt>
      <trkpt lat="46.91695" lon="8.65118">
        <ele>1194</ele>
        <time>2021-08-07T10:52:49.552Z</time>
      </trkpt>
      <trkpt lat="46.91694" lon="8.65116">
        <ele>1194</ele>
        <time>2021-08-07T10:52:50.553Z</time>
      </trkpt>
      <trkpt lat="46.91693" lon="8.65115">
        <ele>1194</ele>
        <time>2021-08-07T10:52:51.553Z</time>
      </trkpt>
      <trkpt lat="46.91692" lon="8.65113">
        <ele>1193</ele>
        <time>2021-08-07T10:52:52.552Z</time>
      </trkpt>
      <trkpt lat="46.91692" lon="8.65112">
        <ele>1193</ele>
        <time>2021-08-07T10:52:53.552Z</time>
      </trkpt>
      <trkpt lat="46.91691" lon="8.65111">
        <ele>1193</ele>
        <time>2021-08-07T10:52:54.552Z</time>
      </trkpt>
      <trkpt lat="46.91691" lon="8.6511">
        <ele>1192</ele>
        <time>2021-08-07T10:52:55.552Z</time>
      </trkpt>
      <trkpt lat="46.91692" lon="8.65111">
        <ele>1192</ele>
        <time>2021-08-07T10:52:56.552Z</time>
      </trkpt>
      <trkpt lat="46.91692" lon="8.65111">
        <ele>1192</ele>
        <time>2021-08-07T10:52:57.553Z</time>
      </trkpt>
      <trkpt lat="46.91692" lon="8.65111">
        <ele>1192</ele>
        <time>2021-08-07T10:52:58.552Z</time>
      </trkpt>
      <trkpt lat="46.91692" lon="8.65111">
        <ele>1192</ele>
        <time>2021-08-07T10:52:59.552Z</time>
      </trkpt>
      <trkpt lat="46.91692" lon="8.65109">
        <ele>1192</ele>
        <time>2021-08-07T10:53:00.552Z</time>
      </trkpt>
      <trkpt lat="46.91691" lon="8.65108">
        <ele>1192</ele>
        <time>2021-08-07T10:53:01.552Z</time>
      </trkpt>
      <trkpt lat="46.91691" lon="8.65107">
        <ele>1191</ele>
        <time>2021-08-07T10:53:02.552Z</time>
      </trkpt>
      <trkpt lat="46.9169" lon="8.65106">
        <ele>1190</ele>
        <time>2021-08-07T10:53:03.552Z</time>
      </trkpt>
      <trkpt lat="46.91689" lon="8.65105">
        <ele>1189</ele>
        <time>2021-08-07T10:53:04.552Z</time>
      </trkpt>
      <trkpt lat="46.91689" lon="8.65104">
        <ele>1189</ele>
        <time>2021-08-07T10:53:05.552Z</time>
      </trkpt>
      <trkpt lat="46.91689" lon="8.65102">
        <ele>1189</ele>
        <time>2021-08-07T10:53:06.552Z</time>
      </trkpt>
      <trkpt lat="46.91688" lon="8.65101">
        <ele>1188</ele>
        <time>2021-08-07T10:53:07.552Z</time>
      </trkpt>
      <trkpt lat="46.91687" lon="8.651">
        <ele>1188</ele>
        <time>2021-08-07T10:53:08.552Z</time>
      </trkpt>
      <trkpt lat="46.91687" lon="8.651">
        <ele>1188</ele>
        <time>2021-08-07T10:53:09.552Z</time>
      </trkpt>
      <trkpt lat="46.91686" lon="8.651">
        <ele>1188</ele>
        <time>2021-08-07T10:53:10.552Z</time>
      </trkpt>
      <trkpt lat="46.91687" lon="8.65099">
        <ele>1188</ele>
        <time>2021-08-07T10:53:11.552Z</time>
      </trkpt>
      <trkpt lat="46.91686" lon="8.651">
        <ele>1187</ele>
        <time>2021-08-07T10:53:12.552Z</time>
      </trkpt>
      <trkpt lat="46.91687" lon="8.65102">
        <ele>1186</ele>
        <time>2021-08-07T10:53:13.552Z</time>
      </trkpt>
      <trkpt lat="46.91686" lon="8.65102">
        <ele>1186</ele>
        <time>2021-08-07T10:53:14.552Z</time>
      </trkpt>
      <trkpt lat="46.91687" lon="8.65103">
        <ele>1186</ele>
        <time>2021-08-07T10:53:15.552Z</time>
      </trkpt>
      <trkpt lat="46.91688" lon="8.65102">
        <ele>1186</ele>
        <time>2021-08-07T10:53:16.552Z</time>
      </trkpt>
      <trkpt lat="46.91689" lon="8.65102">
        <ele>1186</ele>
        <time>2021-08-07T10:53:17.552Z</time>
      </trkpt>
      <trkpt lat="46.9169" lon="8.65102">
        <ele>1185</ele>
        <time>2021-08-07T10:53:18.552Z</time>
      </trkpt>
      <trkpt lat="46.9169" lon="8.65101">
        <ele>1185</ele>
        <time>2021-08-07T10:53:19.552Z</time>
      </trkpt>
      <trkpt lat="46.91691" lon="8.65102">
        <ele>1186</ele>
        <time>2021-08-07T10:53:20.553Z</time>
      </trkpt>
      <trkpt lat="46.91692" lon="8.65101">
        <ele>1186</ele>
        <time>2021-08-07T10:53:21.552Z</time>
      </trkpt>
      <trkpt lat="46.91693" lon="8.65101">
        <ele>1186</ele>
        <time>2021-08-07T10:53:22.552Z</time>
      </trkpt>
      <trkpt lat="46.91692" lon="8.65102">
        <ele>1186</ele>
        <time>2021-08-07T10:53:23.552Z</time>
      </trkpt>
      <trkpt lat="46.91692" lon="8.65102">
        <ele>1186</ele>
        <time>2021-08-07T10:53:24.552Z</time>
      </trkpt>
      <trkpt lat="46.91691" lon="8.65101">
        <ele>1185</ele>
        <time>2021-08-07T10:53:25.553Z</time>
      </trkpt>
      <trkpt lat="46.9169" lon="8.651">
        <ele>1185</ele>
        <time>2021-08-07T10:53:26.552Z</time>
      </trkpt>
      <trkpt lat="46.91689" lon="8.65099">
        <ele>1185</ele>
        <time>2021-08-07T10:53:27.553Z</time>
      </trkpt>
      <trkpt lat="46.91689" lon="8.65098">
        <ele>1185</ele>
        <time>2021-08-07T10:53:28.552Z</time>
      </trkpt>
      <trkpt lat="46.91688" lon="8.65097">
        <ele>1185</ele>
        <time>2021-08-07T10:53:29.553Z</time>
      </trkpt>
      <trkpt lat="46.91688" lon="8.65097">
        <ele>1185</ele>
        <time>2021-08-07T10:53:30.553Z</time>
      </trkpt>
      <trkpt lat="46.91688" lon="8.65097">
        <ele>1185</ele>
        <time>2021-08-07T10:53:31.553Z</time>
      </trkpt>
      <trkpt lat="46.91688" lon="8.65098">
        <ele>1185</ele>
        <time>2021-08-07T10:53:32.553Z</time>
      </trkpt>
      <trkpt lat="46.91687" lon="8.65098">
        <ele>1185</ele>
        <time>2021-08-07T10:53:33.553Z</time>
      </trkpt>
      <trkpt lat="46.91687" lon="8.65098">
        <ele>1185</ele>
        <time>2021-08-07T10:53:34.553Z</time>
      </trkpt>
      <trkpt lat="46.91686" lon="8.65098">
        <ele>1185</ele>
        <time>2021-08-07T10:53:35.553Z</time>
      </trkpt>
      <trkpt lat="46.91686" lon="8.65098">
        <ele>1184</ele>
        <time>2021-08-07T10:53:36.552Z</time>
      </trkpt>
      <trkpt lat="46.91686" lon="8.65098">
        <ele>1184</ele>
        <time>2021-08-07T10:53:37.553Z</time>
      </trkpt>
      <trkpt lat="46.91685" lon="8.65098">
        <ele>1183</ele>
        <time>2021-08-07T10:53:38.553Z</time>
      </trkpt>
      <trkpt lat="46.91684" lon="8.65097">
        <ele>1183</ele>
        <time>2021-08-07T10:53:39.553Z</time>
      </trkpt>
      <trkpt lat="46.91684" lon="8.65096">
        <ele>1183</ele>
        <time>2021-08-07T10:53:40.553Z</time>
      </trkpt>
      <trkpt lat="46.91683" lon="8.65095">
        <ele>1183</ele>
        <time>2021-08-07T10:53:41.552Z</time>
      </trkpt>
      <trkpt lat="46.91683" lon="8.65095">
        <ele>1183</ele>
        <time>2021-08-07T10:53:42.553Z</time>
      </trkpt>
      <trkpt lat="46.9168" lon="8.65093">
        <ele>1183</ele>
        <time>2021-08-07T10:53:43.553Z</time>
      </trkpt>
      <trkpt lat="46.91678" lon="8.65092">
        <ele>1183</ele>
        <time>2021-08-07T10:53:44.553Z</time>
      </trkpt>
      <trkpt lat="46.91677" lon="8.65091">
        <ele>1183</ele>
        <time>2021-08-07T10:53:45.552Z</time>
      </trkpt>
      <trkpt lat="46.91676" lon="8.6509">
        <ele>1183</ele>
        <time>2021-08-07T10:53:46.552Z</time>
      </trkpt>
      <trkpt lat="46.91675" lon="8.65089">
        <ele>1183</ele>
        <time>2021-08-07T10:53:47.553Z</time>
      </trkpt>
      <trkpt lat="46.91673" lon="8.65089">
        <ele>1182</ele>
        <time>2021-08-07T10:53:48.553Z</time>
      </trkpt>
      <trkpt lat="46.91672" lon="8.65088">
        <ele>1182</ele>
        <time>2021-08-07T10:53:49.553Z</time>
      </trkpt>
      <trkpt lat="46.9167" lon="8.65088">
        <ele>1182</ele>
        <time>2021-08-07T10:53:50.553Z</time>
      </trkpt>
      <trkpt lat="46.91669" lon="8.65088">
        <ele>1182</ele>
        <time>2021-08-07T10:53:51.553Z</time>
      </trkpt>
      <trkpt lat="46.91668" lon="8.65087">
        <ele>1182</ele>
        <time>2021-08-07T10:53:52.552Z</time>
      </trkpt>
      <trkpt lat="46.91668" lon="8.65086">
        <ele>1182</ele>
        <time>2021-08-07T10:53:53.553Z</time>
      </trkpt>
      <trkpt lat="46.91668" lon="8.65086">
        <ele>1182</ele>
        <time>2021-08-07T10:53:54.553Z</time>
      </trkpt>
      <trkpt lat="46.91668" lon="8.65085">
        <ele>1182</ele>
        <time>2021-08-07T10:53:55.552Z</time>
      </trkpt>
      <trkpt lat="46.91667" lon="8.65085">
        <ele>1182</ele>
        <time>2021-08-07T10:53:56.553Z</time>
      </trkpt>
      <trkpt lat="46.91666" lon="8.65085">
        <ele>1182</ele>
        <time>2021-08-07T10:53:57.553Z</time>
      </trkpt>
      <trkpt lat="46.91665" lon="8.65085">
        <ele>1182</ele>
        <time>2021-08-07T10:53:58.553Z</time>
      </trkpt>
      <trkpt lat="46.91663" lon="8.65084">
        <ele>1182</ele>
        <time>2021-08-07T10:53:59.552Z</time>
      </trkpt>
      <trkpt lat="46.91662" lon="8.65083">
        <ele>1181</ele>
        <time>2021-08-07T10:54:00.553Z</time>
      </trkpt>
      <trkpt lat="46.91661" lon="8.65084">
        <ele>1181</ele>
        <time>2021-08-07T10:54:01.553Z</time>
      </trkpt>
      <trkpt lat="46.9166" lon="8.65084">
        <ele>1181</ele>
        <time>2021-08-07T10:54:02.553Z</time>
      </trkpt>
      <trkpt lat="46.91659" lon="8.65085">
        <ele>1180</ele>
        <time>2021-08-07T10:54:03.553Z</time>
      </trkpt>
      <trkpt lat="46.91658" lon="8.65085">
        <ele>1180</ele>
        <time>2021-08-07T10:54:04.552Z</time>
      </trkpt>
      <trkpt lat="46.91658" lon="8.65085">
        <ele>1179</ele>
        <time>2021-08-07T10:54:05.552Z</time>
      </trkpt>
      <trkpt lat="46.91658" lon="8.65085">
        <ele>1179</ele>
        <time>2021-08-07T10:54:06.552Z</time>
      </trkpt>
      <trkpt lat="46.91658" lon="8.65085">
        <ele>1179</ele>
        <time>2021-08-07T10:54:07.552Z</time>
      </trkpt>
      <trkpt lat="46.91658" lon="8.65084">
        <ele>1179</ele>
        <time>2021-08-07T10:54:08.552Z</time>
      </trkpt>
      <trkpt lat="46.91657" lon="8.65085">
        <ele>1179</ele>
        <time>2021-08-07T10:54:09.553Z</time>
      </trkpt>
      <trkpt lat="46.91657" lon="8.65085">
        <ele>1178</ele>
        <time>2021-08-07T10:54:10.552Z</time>
      </trkpt>
      <trkpt lat="46.91656" lon="8.65085">
        <ele>1178</ele>
        <time>2021-08-07T10:54:11.552Z</time>
      </trkpt>
      <trkpt lat="46.91655" lon="8.65085">
        <ele>1177</ele>
        <time>2021-08-07T10:54:12.552Z</time>
      </trkpt>
      <trkpt lat="46.91653" lon="8.65086">
        <ele>1177</ele>
        <time>2021-08-07T10:54:13.552Z</time>
      </trkpt>
      <trkpt lat="46.91652" lon="8.65086">
        <ele>1177</ele>
        <time>2021-08-07T10:54:14.552Z</time>
      </trkpt>
      <trkpt lat="46.91651" lon="8.65086">
        <ele>1177</ele>
        <time>2021-08-07T10:54:15.553Z</time>
      </trkpt>
      <trkpt lat="46.9165" lon="8.65086">
        <ele>1177</ele>
        <time>2021-08-07T10:54:16.553Z</time>
      </trkpt>
      <trkpt lat="46.91649" lon="8.65086">
        <ele>1177</ele>
        <time>2021-08-07T10:54:17.553Z</time>
      </trkpt>
      <trkpt lat="46.91648" lon="8.65086">
        <ele>1177</ele>
        <time>2021-08-07T10:54:18.552Z</time>
      </trkpt>
      <trkpt lat="46.91648" lon="8.65086">
        <ele>1176</ele>
        <time>2021-08-07T10:54:19.553Z</time>
      </trkpt>
      <trkpt lat="46.91647" lon="8.65085">
        <ele>1177</ele>
        <time>2021-08-07T10:54:20.553Z</time>
      </trkpt>
      <trkpt lat="46.91646" lon="8.65085">
        <ele>1176</ele>
        <time>2021-08-07T10:54:21.553Z</time>
      </trkpt>
      <trkpt lat="46.91645" lon="8.65086">
        <ele>1176</ele>
        <time>2021-08-07T10:54:32.755Z</time>
      </trkpt>
      <trkpt lat="46.91644" lon="8.65086">
        <ele>1176</ele>
        <time>2021-08-07T10:54:33.755Z</time>
      </trkpt>
      <trkpt lat="46.91643" lon="8.65086">
        <ele>1176</ele>
        <time>2021-08-07T10:54:34.756Z</time>
      </trkpt>
      <trkpt lat="46.91643" lon="8.65086">
        <ele>1176</ele>
        <time>2021-08-07T10:54:35.756Z</time>
      </trkpt>
      <trkpt lat="46.91642" lon="8.65086">
        <ele>1176</ele>
        <time>2021-08-07T10:54:36.755Z</time>
      </trkpt>
      <trkpt lat="46.91642" lon="8.65086">
        <ele>1176</ele>
        <time>2021-08-07T10:54:37.756Z</time>
      </trkpt>
      <trkpt lat="46.91641" lon="8.65086">
        <ele>1177</ele>
        <time>2021-08-07T10:54:38.756Z</time>
      </trkpt>
      <trkpt lat="46.9164" lon="8.65087">
        <ele>1177</ele>
        <time>2021-08-07T10:54:39.756Z</time>
      </trkpt>
      <trkpt lat="46.91639" lon="8.65088">
        <ele>1177</ele>
        <time>2021-08-07T10:54:40.755Z</time>
      </trkpt>
      <trkpt lat="46.91637" lon="8.65088">
        <ele>1177</ele>
        <time>2021-08-07T10:54:41.755Z</time>
      </trkpt>
      <trkpt lat="46.91636" lon="8.65088">
        <ele>1177</ele>
        <time>2021-08-07T10:54:42.755Z</time>
      </trkpt>
      <trkpt lat="46.91635" lon="8.65087">
        <ele>1177</ele>
        <time>2021-08-07T10:54:43.756Z</time>
      </trkpt>
      <trkpt lat="46.91634" lon="8.65087">
        <ele>1178</ele>
        <time>2021-08-07T10:54:44.756Z</time>
      </trkpt>
      <trkpt lat="46.91633" lon="8.65086">
        <ele>1178</ele>
        <time>2021-08-07T10:54:45.755Z</time>
      </trkpt>
      <trkpt lat="46.91631" lon="8.65086">
        <ele>1178</ele>
        <time>2021-08-07T10:54:46.755Z</time>
      </trkpt>
      <trkpt lat="46.9163" lon="8.65087">
        <ele>1178</ele>
        <time>2021-08-07T10:54:47.755Z</time>
      </trkpt>
      <trkpt lat="46.91628" lon="8.65087">
        <ele>1178</ele>
        <time>2021-08-07T10:54:48.756Z</time>
      </trkpt>
      <trkpt lat="46.91627" lon="8.65087">
        <ele>1177</ele>
        <time>2021-08-07T10:54:49.755Z</time>
      </trkpt>
      <trkpt lat="46.91626" lon="8.65086">
        <ele>1177</ele>
        <time>2021-08-07T10:54:50.756Z</time>
      </trkpt>
      <trkpt lat="46.91625" lon="8.65085">
        <ele>1177</ele>
        <time>2021-08-07T10:54:51.756Z</time>
      </trkpt>
      <trkpt lat="46.91624" lon="8.65084">
        <ele>1177</ele>
        <time>2021-08-07T10:54:52.756Z</time>
      </trkpt>
      <trkpt lat="46.91623" lon="8.65084">
        <ele>1176</ele>
        <time>2021-08-07T10:54:53.756Z</time>
      </trkpt>
      <trkpt lat="46.91622" lon="8.65084">
        <ele>1176</ele>
        <time>2021-08-07T10:54:54.756Z</time>
      </trkpt>
      <trkpt lat="46.91621" lon="8.65084">
        <ele>1175</ele>
        <time>2021-08-07T10:54:55.756Z</time>
      </trkpt>
      <trkpt lat="46.91621" lon="8.65085">
        <ele>1175</ele>
        <time>2021-08-07T10:54:56.756Z</time>
      </trkpt>
      <trkpt lat="46.9162" lon="8.65085">
        <ele>1174</ele>
        <time>2021-08-07T10:54:57.755Z</time>
      </trkpt>
      <trkpt lat="46.91619" lon="8.65085">
        <ele>1174</ele>
        <time>2021-08-07T10:54:58.756Z</time>
      </trkpt>
      <trkpt lat="46.91619" lon="8.65085">
        <ele>1173</ele>
        <time>2021-08-07T10:54:59.755Z</time>
      </trkpt>
      <trkpt lat="46.91618" lon="8.65085">
        <ele>1173</ele>
        <time>2021-08-07T10:55:00.756Z</time>
      </trkpt>
      <trkpt lat="46.91616" lon="8.65084">
        <ele>1173</ele>
        <time>2021-08-07T10:55:01.755Z</time>
      </trkpt>
      <trkpt lat="46.91615" lon="8.65083">
        <ele>1173</ele>
        <time>2021-08-07T10:55:02.756Z</time>
      </trkpt>
      <trkpt lat="46.91614" lon="8.65083">
        <ele>1174</ele>
        <time>2021-08-07T10:55:03.755Z</time>
      </trkpt>
      <trkpt lat="46.91612" lon="8.65083">
        <ele>1174</ele>
        <time>2021-08-07T10:55:04.755Z</time>
      </trkpt>
      <trkpt lat="46.91612" lon="8.65083">
        <ele>1174</ele>
        <time>2021-08-07T10:55:05.756Z</time>
      </trkpt>
      <trkpt lat="46.91611" lon="8.65084">
        <ele>1173</ele>
        <time>2021-08-07T10:55:06.756Z</time>
      </trkpt>
      <trkpt lat="46.9161" lon="8.65084">
        <ele>1173</ele>
        <time>2021-08-07T10:55:07.756Z</time>
      </trkpt>
      <trkpt lat="46.91609" lon="8.65084">
        <ele>1173</ele>
        <time>2021-08-07T10:55:08.755Z</time>
      </trkpt>
      <trkpt lat="46.91608" lon="8.65084">
        <ele>1173</ele>
        <time>2021-08-07T10:55:09.756Z</time>
      </trkpt>
      <trkpt lat="46.91606" lon="8.65083">
        <ele>1173</ele>
        <time>2021-08-07T10:55:10.756Z</time>
      </trkpt>
      <trkpt lat="46.91605" lon="8.65083">
        <ele>1173</ele>
        <time>2021-08-07T10:55:11.755Z</time>
      </trkpt>
      <trkpt lat="46.91603" lon="8.65083">
        <ele>1173</ele>
        <time>2021-08-07T10:55:12.755Z</time>
      </trkpt>
      <trkpt lat="46.91601" lon="8.65083">
        <ele>1173</ele>
        <time>2021-08-07T10:55:13.756Z</time>
      </trkpt>
      <trkpt lat="46.916" lon="8.65084">
        <ele>1172</ele>
        <time>2021-08-07T10:55:14.756Z</time>
      </trkpt>
      <trkpt lat="46.91599" lon="8.65084">
        <ele>1172</ele>
        <time>2021-08-07T10:55:15.756Z</time>
      </trkpt>
      <trkpt lat="46.91597" lon="8.65085">
        <ele>1172</ele>
        <time>2021-08-07T10:55:16.756Z</time>
      </trkpt>
      <trkpt lat="46.91596" lon="8.65085">
        <ele>1172</ele>
        <time>2021-08-07T10:55:17.756Z</time>
      </trkpt>
      <trkpt lat="46.91595" lon="8.65086">
        <ele>1172</ele>
        <time>2021-08-07T10:55:18.756Z</time>
      </trkpt>
      <trkpt lat="46.91594" lon="8.65087">
        <ele>1172</ele>
        <time>2021-08-07T10:55:19.756Z</time>
      </trkpt>
      <trkpt lat="46.91593" lon="8.65087">
        <ele>1172</ele>
        <time>2021-08-07T10:55:20.755Z</time>
      </trkpt>
      <trkpt lat="46.91592" lon="8.65086">
        <ele>1172</ele>
        <time>2021-08-07T10:55:21.756Z</time>
      </trkpt>
      <trkpt lat="46.91591" lon="8.65086">
        <ele>1172</ele>
        <time>2021-08-07T10:55:22.756Z</time>
      </trkpt>
      <trkpt lat="46.9159" lon="8.65086">
        <ele>1172</ele>
        <time>2021-08-07T10:55:23.755Z</time>
      </trkpt>
      <trkpt lat="46.91589" lon="8.65087">
        <ele>1172</ele>
        <time>2021-08-07T10:55:24.755Z</time>
      </trkpt>
      <trkpt lat="46.91588" lon="8.65087">
        <ele>1172</ele>
        <time>2021-08-07T10:55:25.755Z</time>
      </trkpt>
      <trkpt lat="46.91586" lon="8.65088">
        <ele>1172</ele>
        <time>2021-08-07T10:55:26.756Z</time>
      </trkpt>
      <trkpt lat="46.91585" lon="8.65088">
        <ele>1171</ele>
        <time>2021-08-07T10:55:27.756Z</time>
      </trkpt>
      <trkpt lat="46.91584" lon="8.65089">
        <ele>1170</ele>
        <time>2021-08-07T10:55:28.755Z</time>
      </trkpt>
      <trkpt lat="46.91584" lon="8.65089">
        <ele>1170</ele>
        <time>2021-08-07T10:55:29.756Z</time>
      </trkpt>
      <trkpt lat="46.91582" lon="8.6509">
        <ele>1169</ele>
        <time>2021-08-07T10:55:30.755Z</time>
      </trkpt>
      <trkpt lat="46.91581" lon="8.6509">
        <ele>1169</ele>
        <time>2021-08-07T10:55:31.756Z</time>
      </trkpt>
      <trkpt lat="46.9158" lon="8.65091">
        <ele>1168</ele>
        <time>2021-08-07T10:55:32.756Z</time>
      </trkpt>
      <trkpt lat="46.91579" lon="8.65092">
        <ele>1168</ele>
        <time>2021-08-07T10:55:33.756Z</time>
      </trkpt>
      <trkpt lat="46.91578" lon="8.65092">
        <ele>1168</ele>
        <time>2021-08-07T10:55:34.756Z</time>
      </trkpt>
      <trkpt lat="46.91577" lon="8.65093">
        <ele>1167</ele>
        <time>2021-08-07T10:55:35.756Z</time>
      </trkpt>
      <trkpt lat="46.91576" lon="8.65094">
        <ele>1167</ele>
        <time>2021-08-07T10:55:36.756Z</time>
      </trkpt>
      <trkpt lat="46.91575" lon="8.65094">
        <ele>1167</ele>
        <time>2021-08-07T10:55:37.755Z</time>
      </trkpt>
      <trkpt lat="46.91574" lon="8.65095">
        <ele>1167</ele>
        <time>2021-08-07T10:55:38.756Z</time>
      </trkpt>
      <trkpt lat="46.91573" lon="8.65095">
        <ele>1167</ele>
        <time>2021-08-07T10:55:39.756Z</time>
      </trkpt>
      <trkpt lat="46.91572" lon="8.65096">
        <ele>1166</ele>
        <time>2021-08-07T10:55:40.756Z</time>
      </trkpt>
      <trkpt lat="46.91572" lon="8.65095">
        <ele>1166</ele>
        <time>2021-08-07T10:55:41.756Z</time>
      </trkpt>
      <trkpt lat="46.91571" lon="8.65095">
        <ele>1166</ele>
        <time>2021-08-07T10:55:42.756Z</time>
      </trkpt>
      <trkpt lat="46.91569" lon="8.65094">
        <ele>1167</ele>
        <time>2021-08-07T10:55:43.755Z</time>
      </trkpt>
      <trkpt lat="46.91568" lon="8.65094">
        <ele>1167</ele>
        <time>2021-08-07T10:55:44.756Z</time>
      </trkpt>
      <trkpt lat="46.91567" lon="8.65094">
        <ele>1167</ele>
        <time>2021-08-07T10:55:45.755Z</time>
      </trkpt>
      <trkpt lat="46.91566" lon="8.65095">
        <ele>1167</ele>
        <time>2021-08-07T10:55:46.755Z</time>
      </trkpt>
      <trkpt lat="46.91565" lon="8.65096">
        <ele>1167</ele>
        <time>2021-08-07T10:55:47.755Z</time>
      </trkpt>
      <trkpt lat="46.91564" lon="8.65096">
        <ele>1167</ele>
        <time>2021-08-07T10:55:48.755Z</time>
      </trkpt>
      <trkpt lat="46.91563" lon="8.65096">
        <ele>1167</ele>
        <time>2021-08-07T10:55:49.756Z</time>
      </trkpt>
      <trkpt lat="46.91562" lon="8.65097">
        <ele>1166</ele>
        <time>2021-08-07T10:55:50.755Z</time>
      </trkpt>
      <trkpt lat="46.91561" lon="8.65097">
        <ele>1165</ele>
        <time>2021-08-07T10:55:51.756Z</time>
      </trkpt>
      <trkpt lat="46.91559" lon="8.65097">
        <ele>1165</ele>
        <time>2021-08-07T10:55:52.756Z</time>
      </trkpt>
      <trkpt lat="46.91558" lon="8.65097">
        <ele>1165</ele>
        <time>2021-08-07T10:55:53.756Z</time>
      </trkpt>
      <trkpt lat="46.91557" lon="8.65097">
        <ele>1164</ele>
        <time>2021-08-07T10:55:54.756Z</time>
      </trkpt>
      <trkpt lat="46.91556" lon="8.65096">
        <ele>1164</ele>
        <time>2021-08-07T10:55:55.755Z</time>
      </trkpt>
      <trkpt lat="46.91555" lon="8.65097">
        <ele>1164</ele>
        <time>2021-08-07T10:55:56.755Z</time>
      </trkpt>
      <trkpt lat="46.91554" lon="8.65097">
        <ele>1164</ele>
        <time>2021-08-07T10:55:57.755Z</time>
      </trkpt>
      <trkpt lat="46.91552" lon="8.65096">
        <ele>1164</ele>
        <time>2021-08-07T10:55:58.756Z</time>
      </trkpt>
      <trkpt lat="46.91551" lon="8.65096">
        <ele>1164</ele>
        <time>2021-08-07T10:55:59.756Z</time>
      </trkpt>
      <trkpt lat="46.9155" lon="8.65097">
        <ele>1164</ele>
        <time>2021-08-07T10:56:00.755Z</time>
      </trkpt>
      <trkpt lat="46.9155" lon="8.65098">
        <ele>1164</ele>
        <time>2021-08-07T10:56:01.756Z</time>
      </trkpt>
      <trkpt lat="46.91549" lon="8.65099">
        <ele>1164</ele>
        <time>2021-08-07T10:56:02.756Z</time>
      </trkpt>
      <trkpt lat="46.91549" lon="8.65101">
        <ele>1164</ele>
        <time>2021-08-07T10:56:03.755Z</time>
      </trkpt>
      <trkpt lat="46.91548" lon="8.65101">
        <ele>1163</ele>
        <time>2021-08-07T10:56:04.756Z</time>
      </trkpt>
      <trkpt lat="46.91547" lon="8.65102">
        <ele>1163</ele>
        <time>2021-08-07T10:56:05.756Z</time>
      </trkpt>
      <trkpt lat="46.91545" lon="8.65102">
        <ele>1163</ele>
        <time>2021-08-07T10:56:06.755Z</time>
      </trkpt>
      <trkpt lat="46.91544" lon="8.65103">
        <ele>1163</ele>
        <time>2021-08-07T10:56:07.755Z</time>
      </trkpt>
      <trkpt lat="46.91543" lon="8.65103">
        <ele>1163</ele>
        <time>2021-08-07T10:56:08.756Z</time>
      </trkpt>
      <trkpt lat="46.91542" lon="8.65103">
        <ele>1162</ele>
        <time>2021-08-07T10:56:09.756Z</time>
      </trkpt>
      <trkpt lat="46.91541" lon="8.65104">
        <ele>1162</ele>
        <time>2021-08-07T10:56:10.755Z</time>
      </trkpt>
      <trkpt lat="46.91539" lon="8.65104">
        <ele>1161</ele>
        <time>2021-08-07T10:56:11.756Z</time>
      </trkpt>
      <trkpt lat="46.91538" lon="8.65103">
        <ele>1160</ele>
        <time>2021-08-07T10:56:12.756Z</time>
      </trkpt>
      <trkpt lat="46.91537" lon="8.65104">
        <ele>1160</ele>
        <time>2021-08-07T10:56:13.755Z</time>
      </trkpt>
      <trkpt lat="46.91536" lon="8.65104">
        <ele>1159</ele>
        <time>2021-08-07T10:56:14.756Z</time>
      </trkpt>
      <trkpt lat="46.91535" lon="8.65104">
        <ele>1159</ele>
        <time>2021-08-07T10:56:15.756Z</time>
      </trkpt>
      <trkpt lat="46.91533" lon="8.65104">
        <ele>1159</ele>
        <time>2021-08-07T10:56:16.755Z</time>
      </trkpt>
      <trkpt lat="46.91532" lon="8.65104">
        <ele>1159</ele>
        <time>2021-08-07T10:56:17.755Z</time>
      </trkpt>
      <trkpt lat="46.91531" lon="8.65104">
        <ele>1158</ele>
        <time>2021-08-07T10:56:18.755Z</time>
      </trkpt>
      <trkpt lat="46.9153" lon="8.65105">
        <ele>1158</ele>
        <time>2021-08-07T10:56:19.755Z</time>
      </trkpt>
      <trkpt lat="46.91529" lon="8.65105">
        <ele>1157</ele>
        <time>2021-08-07T10:56:20.755Z</time>
      </trkpt>
      <trkpt lat="46.91528" lon="8.65104">
        <ele>1157</ele>
        <time>2021-08-07T10:56:21.755Z</time>
      </trkpt>
      <trkpt lat="46.91527" lon="8.65105">
        <ele>1157</ele>
        <time>2021-08-07T10:56:22.755Z</time>
      </trkpt>
      <trkpt lat="46.91526" lon="8.65106">
        <ele>1156</ele>
        <time>2021-08-07T10:56:23.756Z</time>
      </trkpt>
      <trkpt lat="46.91525" lon="8.65106">
        <ele>1156</ele>
        <time>2021-08-07T10:56:24.755Z</time>
      </trkpt>
      <trkpt lat="46.91524" lon="8.65106">
        <ele>1157</ele>
        <time>2021-08-07T10:56:25.755Z</time>
      </trkpt>
      <trkpt lat="46.91523" lon="8.65107">
        <ele>1157</ele>
        <time>2021-08-07T10:56:26.755Z</time>
      </trkpt>
      <trkpt lat="46.91521" lon="8.65107">
        <ele>1157</ele>
        <time>2021-08-07T10:56:27.756Z</time>
      </trkpt>
      <trkpt lat="46.9152" lon="8.65107">
        <ele>1157</ele>
        <time>2021-08-07T10:56:28.755Z</time>
      </trkpt>
      <trkpt lat="46.91519" lon="8.65107">
        <ele>1157</ele>
        <time>2021-08-07T10:56:29.755Z</time>
      </trkpt>
      <trkpt lat="46.91518" lon="8.65107">
        <ele>1157</ele>
        <time>2021-08-07T10:56:30.755Z</time>
      </trkpt>
      <trkpt lat="46.91517" lon="8.65107">
        <ele>1157</ele>
        <time>2021-08-07T10:56:31.756Z</time>
      </trkpt>
      <trkpt lat="46.91515" lon="8.65107">
        <ele>1157</ele>
        <time>2021-08-07T10:56:32.756Z</time>
      </trkpt>
      <trkpt lat="46.91514" lon="8.65107">
        <ele>1156</ele>
        <time>2021-08-07T10:56:33.755Z</time>
      </trkpt>
      <trkpt lat="46.91513" lon="8.65106">
        <ele>1156</ele>
        <time>2021-08-07T10:56:34.756Z</time>
      </trkpt>
      <trkpt lat="46.91512" lon="8.65106">
        <ele>1156</ele>
        <time>2021-08-07T10:56:35.755Z</time>
      </trkpt>
      <trkpt lat="46.91511" lon="8.65106">
        <ele>1156</ele>
        <time>2021-08-07T10:56:36.755Z</time>
      </trkpt>
      <trkpt lat="46.9151" lon="8.65106">
        <ele>1155</ele>
        <time>2021-08-07T10:56:37.755Z</time>
      </trkpt>
      <trkpt lat="46.91509" lon="8.65105">
        <ele>1155</ele>
        <time>2021-08-07T10:56:38.755Z</time>
      </trkpt>
      <trkpt lat="46.91508" lon="8.65104">
        <ele>1155</ele>
        <time>2021-08-07T10:56:39.755Z</time>
      </trkpt>
      <trkpt lat="46.91507" lon="8.65104">
        <ele>1155</ele>
        <time>2021-08-07T10:56:40.756Z</time>
      </trkpt>
      <trkpt lat="46.91506" lon="8.65104">
        <ele>1154</ele>
        <time>2021-08-07T10:56:41.756Z</time>
      </trkpt>
      <trkpt lat="46.91505" lon="8.65103">
        <ele>1154</ele>
        <time>2021-08-07T10:56:42.756Z</time>
      </trkpt>
      <trkpt lat="46.91503" lon="8.65103">
        <ele>1154</ele>
        <time>2021-08-07T10:56:43.756Z</time>
      </trkpt>
      <trkpt lat="46.91502" lon="8.65102">
        <ele>1155</ele>
        <time>2021-08-07T10:56:44.756Z</time>
      </trkpt>
      <trkpt lat="46.91501" lon="8.65102">
        <ele>1154</ele>
        <time>2021-08-07T10:56:45.755Z</time>
      </trkpt>
      <trkpt lat="46.91499" lon="8.65102">
        <ele>1154</ele>
        <time>2021-08-07T10:56:46.755Z</time>
      </trkpt>
      <trkpt lat="46.91498" lon="8.65102">
        <ele>1154</ele>
        <time>2021-08-07T10:56:47.755Z</time>
      </trkpt>
      <trkpt lat="46.91497" lon="8.65101">
        <ele>1153</ele>
        <time>2021-08-07T10:56:48.755Z</time>
      </trkpt>
      <trkpt lat="46.91495" lon="8.651">
        <ele>1153</ele>
        <time>2021-08-07T10:56:53.820Z</time>
      </trkpt>
      <trkpt lat="46.91494" lon="8.651">
        <ele>1153</ele>
        <time>2021-08-07T10:56:54.819Z</time>
      </trkpt>
      <trkpt lat="46.91493" lon="8.651">
        <ele>1152</ele>
        <time>2021-08-07T10:56:55.819Z</time>
      </trkpt>
      <trkpt lat="46.91492" lon="8.651">
        <ele>1152</ele>
        <time>2021-08-07T10:56:56.819Z</time>
      </trkpt>
      <trkpt lat="46.9149" lon="8.65101">
        <ele>1152</ele>
        <time>2021-08-07T10:56:57.820Z</time>
      </trkpt>
      <trkpt lat="46.91489" lon="8.65101">
        <ele>1152</ele>
        <time>2021-08-07T10:56:58.820Z</time>
      </trkpt>
      <trkpt lat="46.91487" lon="8.651">
        <ele>1152</ele>
        <time>2021-08-07T10:56:59.820Z</time>
      </trkpt>
      <trkpt lat="46.91486" lon="8.65099">
        <ele>1152</ele>
        <time>2021-08-07T10:57:00.819Z</time>
      </trkpt>
      <trkpt lat="46.91484" lon="8.65099">
        <ele>1152</ele>
        <time>2021-08-07T10:57:01.820Z</time>
      </trkpt>
      <trkpt lat="46.91483" lon="8.65098">
        <ele>1152</ele>
        <time>2021-08-07T10:57:03.962Z</time>
      </trkpt>
      <trkpt lat="46.91481" lon="8.65097">
        <ele>1152</ele>
        <time>2021-08-07T10:57:04.962Z</time>
      </trkpt>
      <trkpt lat="46.9148" lon="8.65096">
        <ele>1153</ele>
        <time>2021-08-07T10:57:05.962Z</time>
      </trkpt>
      <trkpt lat="46.91479" lon="8.65095">
        <ele>1152</ele>
        <time>2021-08-07T10:57:06.962Z</time>
      </trkpt>
      <trkpt lat="46.91478" lon="8.65094">
        <ele>1152</ele>
        <time>2021-08-07T10:57:07.962Z</time>
      </trkpt>
      <trkpt lat="46.91477" lon="8.65094">
        <ele>1152</ele>
        <time>2021-08-07T10:57:08.962Z</time>
      </trkpt>
      <trkpt lat="46.91476" lon="8.65092">
        <ele>1152</ele>
        <time>2021-08-07T10:57:09.962Z</time>
      </trkpt>
      <trkpt lat="46.91474" lon="8.65091">
        <ele>1153</ele>
        <time>2021-08-07T10:57:10.962Z</time>
      </trkpt>
      <trkpt lat="46.91473" lon="8.65091">
        <ele>1153</ele>
        <time>2021-08-07T10:57:11.962Z</time>
      </trkpt>
      <trkpt lat="46.91472" lon="8.65091">
        <ele>1153</ele>
        <time>2021-08-07T10:57:12.962Z</time>
      </trkpt>
      <trkpt lat="46.9147" lon="8.6509">
        <ele>1154</ele>
        <time>2021-08-07T10:57:13.962Z</time>
      </trkpt>
      <trkpt lat="46.91469" lon="8.6509">
        <ele>1155</ele>
        <time>2021-08-07T10:57:14.962Z</time>
      </trkpt>
      <trkpt lat="46.91467" lon="8.6509">
        <ele>1156</ele>
        <time>2021-08-07T10:57:15.962Z</time>
      </trkpt>
      <trkpt lat="46.91466" lon="8.65088">
        <ele>1156</ele>
        <time>2021-08-07T10:57:23.234Z</time>
      </trkpt>
      <trkpt lat="46.91464" lon="8.65088">
        <ele>1157</ele>
        <time>2021-08-07T10:57:25.078Z</time>
      </trkpt>
      <trkpt lat="46.91462" lon="8.65088">
        <ele>1157</ele>
        <time>2021-08-07T10:57:26.079Z</time>
      </trkpt>
      <trkpt lat="46.91461" lon="8.65088">
        <ele>1157</ele>
        <time>2021-08-07T10:57:27.078Z</time>
      </trkpt>
      <trkpt lat="46.9146" lon="8.65088">
        <ele>1158</ele>
        <time>2021-08-07T10:57:33.199Z</time>
      </trkpt>
      <trkpt lat="46.91458" lon="8.65088">
        <ele>1157</ele>
        <time>2021-08-07T10:57:35.049Z</time>
      </trkpt>
      <trkpt lat="46.91457" lon="8.65087">
        <ele>1157</ele>
        <time>2021-08-07T10:58:09.840Z</time>
      </trkpt>
      <trkpt lat="46.91455" lon="8.65087">
        <ele>1157</ele>
        <time>2021-08-07T10:58:10.841Z</time>
      </trkpt>
      <trkpt lat="46.91453" lon="8.65086">
        <ele>1157</ele>
        <time>2021-08-07T10:58:37.712Z</time>
      </trkpt>
      <trkpt lat="46.91452" lon="8.65087">
        <ele>1158</ele>
        <time>2021-08-07T10:58:38.713Z</time>
      </trkpt>
      <trkpt lat="46.91451" lon="8.65087">
        <ele>1158</ele>
        <time>2021-08-07T10:58:39.712Z</time>
      </trkpt>
      <trkpt lat="46.9145" lon="8.65087">
        <ele>1158</ele>
        <time>2021-08-07T10:58:40.713Z</time>
      </trkpt>
      <trkpt lat="46.91449" lon="8.65088">
        <ele>1158</ele>
        <time>2021-08-07T10:58:41.713Z</time>
      </trkpt>
      <trkpt lat="46.91447" lon="8.65089">
        <ele>1158</ele>
        <time>2021-08-07T10:58:42.713Z</time>
      </trkpt>
      <trkpt lat="46.91446" lon="8.65088">
        <ele>1158</ele>
        <time>2021-08-07T10:58:43.712Z</time>
      </trkpt>
      <trkpt lat="46.91444" lon="8.65088">
        <ele>1158</ele>
        <time>2021-08-07T10:58:54.710Z</time>
      </trkpt>
      <trkpt lat="46.91442" lon="8.65089">
        <ele>1158</ele>
        <time>2021-08-07T10:58:55.710Z</time>
      </trkpt>
      <trkpt lat="46.91441" lon="8.6509">
        <ele>1158</ele>
        <time>2021-08-07T10:59:11.463Z</time>
      </trkpt>
      <trkpt lat="46.91439" lon="8.6509">
        <ele>1158</ele>
        <time>2021-08-07T10:59:12.463Z</time>
      </trkpt>
      <trkpt lat="46.91438" lon="8.6509">
        <ele>1158</ele>
        <time>2021-08-07T10:59:13.463Z</time>
      </trkpt>
      <trkpt lat="46.91436" lon="8.6509">
        <ele>1159</ele>
        <time>2021-08-07T10:59:15.553Z</time>
      </trkpt>
      <trkpt lat="46.91435" lon="8.6509">
        <ele>1159</ele>
        <time>2021-08-07T10:59:28.335Z</time>
      </trkpt>
      <trkpt lat="46.91433" lon="8.65091">
        <ele>1159</ele>
        <time>2021-08-07T10:59:29.335Z</time>
      </trkpt>
      <trkpt lat="46.91432" lon="8.65091">
        <ele>1160</ele>
        <time>2021-08-07T10:59:35.215Z</time>
      </trkpt>
      <trkpt lat="46.9143" lon="8.65091">
        <ele>1160</ele>
        <time>2021-08-07T10:59:46.086Z</time>
      </trkpt>
      <trkpt lat="46.91428" lon="8.65091">
        <ele>1161</ele>
        <time>2021-08-07T11:00:32.857Z</time>
      </trkpt>
      <trkpt lat="46.91427" lon="8.6509">
        <ele>1162</ele>
        <time>2021-08-07T11:00:33.857Z</time>
      </trkpt>
      <trkpt lat="46.91425" lon="8.65089">
        <ele>1162</ele>
        <time>2021-08-07T11:00:34.857Z</time>
      </trkpt>
      <trkpt lat="46.91423" lon="8.65088">
        <ele>1163</ele>
        <time>2021-08-07T11:00:38.977Z</time>
      </trkpt>
      <trkpt lat="46.91422" lon="8.65087">
        <ele>1163</ele>
        <time>2021-08-07T11:00:39.976Z</time>
      </trkpt>
      <trkpt lat="46.9142" lon="8.65085">
        <ele>1163</ele>
        <time>2021-08-07T11:00:40.977Z</time>
      </trkpt>
      <trkpt lat="46.91418" lon="8.65084">
        <ele>1163</ele>
        <time>2021-08-07T11:00:57.099Z</time>
      </trkpt>
      <trkpt lat="46.91417" lon="8.65084">
        <ele>1163</ele>
        <time>2021-08-07T11:00:58.100Z</time>
      </trkpt>
      <trkpt lat="46.91416" lon="8.65083">
        <ele>1163</ele>
        <time>2021-08-07T11:01:08.830Z</time>
      </trkpt>
      <trkpt lat="46.91415" lon="8.65082">
        <ele>1163</ele>
        <time>2021-08-07T11:01:09.830Z</time>
      </trkpt>
      <trkpt lat="46.91414" lon="8.65082">
        <ele>1162</ele>
        <time>2021-08-07T11:01:10.829Z</time>
      </trkpt>
      <trkpt lat="46.91413" lon="8.65082">
        <ele>1162</ele>
        <time>2021-08-07T11:01:23.861Z</time>
      </trkpt>
      <trkpt lat="46.91412" lon="8.65081">
        <ele>1162</ele>
        <time>2021-08-07T11:01:24.861Z</time>
      </trkpt>
      <trkpt lat="46.9141" lon="8.65081">
        <ele>1161</ele>
        <time>2021-08-07T11:01:25.861Z</time>
      </trkpt>
      <trkpt lat="46.91409" lon="8.6508">
        <ele>1161</ele>
        <time>2021-08-07T11:01:30.587Z</time>
      </trkpt>
      <trkpt lat="46.91408" lon="8.65079">
        <ele>1160</ele>
        <time>2021-08-07T11:01:31.587Z</time>
      </trkpt>
      <trkpt lat="46.91407" lon="8.65079">
        <ele>1160</ele>
        <time>2021-08-07T11:01:32.587Z</time>
      </trkpt>
      <trkpt lat="46.91406" lon="8.65078">
        <ele>1159</ele>
        <time>2021-08-07T11:01:33.586Z</time>
      </trkpt>
      <trkpt lat="46.91405" lon="8.65078">
        <ele>1158</ele>
        <time>2021-08-07T11:01:46.714Z</time>
      </trkpt>
      <trkpt lat="46.91404" lon="8.65077">
        <ele>1158</ele>
        <time>2021-08-07T11:02:43.451Z</time>
      </trkpt>
      <trkpt lat="46.91403" lon="8.65077">
        <ele>1157</ele>
        <time>2021-08-07T11:02:45.212Z</time>
      </trkpt>
      <trkpt lat="46.91402" lon="8.65077">
        <ele>1157</ele>
        <time>2021-08-07T11:02:46.213Z</time>
      </trkpt>
      <trkpt lat="46.91401" lon="8.65076">
        <ele>1156</ele>
        <time>2021-08-07T11:02:47.213Z</time>
      </trkpt>
      <trkpt lat="46.914" lon="8.65076">
        <ele>1155</ele>
        <time>2021-08-07T11:02:58.359Z</time>
      </trkpt>
      <trkpt lat="46.91399" lon="8.65076">
        <ele>1155</ele>
        <time>2021-08-07T11:02:59.358Z</time>
      </trkpt>
      <trkpt lat="46.91398" lon="8.65076">
        <ele>1155</ele>
        <time>2021-08-07T11:03:00.358Z</time>
      </trkpt>
      <trkpt lat="46.91396" lon="8.65076">
        <ele>1154</ele>
        <time>2021-08-07T11:03:01.358Z</time>
      </trkpt>
      <trkpt lat="46.91395" lon="8.65075">
        <ele>1154</ele>
        <time>2021-08-07T11:03:02.358Z</time>
      </trkpt>
      <trkpt lat="46.91393" lon="8.65074">
        <ele>1154</ele>
        <time>2021-08-07T11:03:03.358Z</time>
      </trkpt>
      <trkpt lat="46.91392" lon="8.65073">
        <ele>1154</ele>
        <time>2021-08-07T11:03:04.358Z</time>
      </trkpt>
      <trkpt lat="46.9139" lon="8.65072">
        <ele>1153</ele>
        <time>2021-08-07T11:03:05.359Z</time>
      </trkpt>
      <trkpt lat="46.91389" lon="8.65072">
        <ele>1153</ele>
        <time>2021-08-07T11:03:11.494Z</time>
      </trkpt>
      <trkpt lat="46.91388" lon="8.65072">
        <ele>1153</ele>
        <time>2021-08-07T11:03:12.493Z</time>
      </trkpt>
      <trkpt lat="46.91387" lon="8.65071">
        <ele>1152</ele>
        <time>2021-08-07T11:03:13.494Z</time>
      </trkpt>
      <trkpt lat="46.91386" lon="8.6507">
        <ele>1152</ele>
        <time>2021-08-07T11:03:19.572Z</time>
      </trkpt>
      <trkpt lat="46.91384" lon="8.65071">
        <ele>1152</ele>
        <time>2021-08-07T11:03:20.571Z</time>
      </trkpt>
      <trkpt lat="46.91383" lon="8.65072">
        <ele>1152</ele>
        <time>2021-08-07T11:03:21.572Z</time>
      </trkpt>
      <trkpt lat="46.91381" lon="8.65073">
        <ele>1152</ele>
        <time>2021-08-07T11:03:22.572Z</time>
      </trkpt>
      <trkpt lat="46.91379" lon="8.65073">
        <ele>1152</ele>
        <time>2021-08-07T11:03:23.572Z</time>
      </trkpt>
      <trkpt lat="46.91376" lon="8.65075">
        <ele>1152</ele>
        <time>2021-08-07T11:03:24.572Z</time>
      </trkpt>
      <trkpt lat="46.91375" lon="8.65074">
        <ele>1152</ele>
        <time>2021-08-07T11:03:25.571Z</time>
      </trkpt>
      <trkpt lat="46.91374" lon="8.65073">
        <ele>1152</ele>
        <time>2021-08-07T11:03:26.572Z</time>
      </trkpt>
      <trkpt lat="46.91373" lon="8.65073">
        <ele>1151</ele>
        <time>2021-08-07T11:03:27.572Z</time>
      </trkpt>
      <trkpt lat="46.91372" lon="8.65072">
        <ele>1151</ele>
        <time>2021-08-07T11:03:50.681Z</time>
      </trkpt>
      <trkpt lat="46.91371" lon="8.65071">
        <ele>1151</ele>
        <time>2021-08-07T11:03:51.681Z</time>
      </trkpt>
      <trkpt lat="46.9137" lon="8.65071">
        <ele>1151</ele>
        <time>2021-08-07T11:04:15.443Z</time>
      </trkpt>
      <trkpt lat="46.91369" lon="8.65071">
        <ele>1150</ele>
        <time>2021-08-07T11:04:16.443Z</time>
      </trkpt>
      <trkpt lat="46.91367" lon="8.65071">
        <ele>1150</ele>
        <time>2021-08-07T11:04:22.188Z</time>
      </trkpt>
      <trkpt lat="46.91366" lon="8.65071">
        <ele>1150</ele>
        <time>2021-08-07T11:04:23.187Z</time>
      </trkpt>
      <trkpt lat="46.91365" lon="8.65071">
        <ele>1150</ele>
        <time>2021-08-07T11:04:24.188Z</time>
      </trkpt>
      <trkpt lat="46.91363" lon="8.65071">
        <ele>1150</ele>
        <time>2021-08-07T11:04:54.343Z</time>
      </trkpt>
      <trkpt lat="46.91362" lon="8.65071">
        <ele>1150</ele>
        <time>2021-08-07T11:04:55.342Z</time>
      </trkpt>
      <trkpt lat="46.9136" lon="8.65071">
        <ele>1150</ele>
        <time>2021-08-07T11:04:58.042Z</time>
      </trkpt>
      <trkpt lat="46.91359" lon="8.65071">
        <ele>1151</ele>
        <time>2021-08-07T11:04:59.826Z</time>
      </trkpt>
      <trkpt lat="46.91357" lon="8.65071">
        <ele>1151</ele>
        <time>2021-08-07T11:05:00.826Z</time>
      </trkpt>
      <trkpt lat="46.91355" lon="8.65071">
        <ele>1152</ele>
        <time>2021-08-07T11:05:09.561Z</time>
      </trkpt>
      <trkpt lat="46.91354" lon="8.65071">
        <ele>1152</ele>
        <time>2021-08-07T11:05:10.561Z</time>
      </trkpt>
      <trkpt lat="46.91353" lon="8.65071">
        <ele>1152</ele>
        <time>2021-08-07T11:05:11.561Z</time>
      </trkpt>
      <trkpt lat="46.91353" lon="8.65071">
        <ele>1152</ele>
        <time>2021-08-07T11:05:12.561Z</time>
      </trkpt>
      <trkpt lat="46.91353" lon="8.65071">
        <ele>1152</ele>
        <time>2021-08-07T11:05:13.561Z</time>
      </trkpt>
      <trkpt lat="46.91352" lon="8.65071">
        <ele>1152</ele>
        <time>2021-08-07T11:05:14.561Z</time>
      </trkpt>
      <trkpt lat="46.91352" lon="8.65072">
        <ele>1154</ele>
        <time>2021-08-07T11:05:15.562Z</time>
      </trkpt>
      <trkpt lat="46.91349" lon="8.65069">
        <ele>1155</ele>
        <time>2021-08-07T11:05:16.562Z</time>
      </trkpt>
      <trkpt lat="46.91349" lon="8.6507">
        <ele>1155</ele>
        <time>2021-08-07T11:05:17.562Z</time>
      </trkpt>
      <trkpt lat="46.91348" lon="8.6507">
        <ele>1155</ele>
        <time>2021-08-07T11:05:18.562Z</time>
      </trkpt>
      <trkpt lat="46.91348" lon="8.6507">
        <ele>1156</ele>
        <time>2021-08-07T11:05:19.563Z</time>
      </trkpt>
      <trkpt lat="46.91346" lon="8.6507">
        <ele>1156</ele>
        <time>2021-08-07T11:05:20.562Z</time>
      </trkpt>
      <trkpt lat="46.91345" lon="8.65071">
        <ele>1157</ele>
        <time>2021-08-07T11:05:21.563Z</time>
      </trkpt>
      <trkpt lat="46.91345" lon="8.65071">
        <ele>1158</ele>
        <time>2021-08-07T11:05:22.562Z</time>
      </trkpt>
      <trkpt lat="46.91344" lon="8.65071">
        <ele>1158</ele>
        <time>2021-08-07T11:05:23.563Z</time>
      </trkpt>
      <trkpt lat="46.91343" lon="8.65072">
        <ele>1159</ele>
        <time>2021-08-07T11:05:31.682Z</time>
      </trkpt>
      <trkpt lat="46.91342" lon="8.65072">
        <ele>1159</ele>
        <time>2021-08-07T11:05:32.681Z</time>
      </trkpt>
      <trkpt lat="46.91341" lon="8.65074">
        <ele>1160</ele>
        <time>2021-08-07T11:05:33.682Z</time>
      </trkpt>
      <trkpt lat="46.9134" lon="8.65074">
        <ele>1160</ele>
        <time>2021-08-07T11:05:34.682Z</time>
      </trkpt>
      <trkpt lat="46.91339" lon="8.65073">
        <ele>1161</ele>
        <time>2021-08-07T11:05:35.681Z</time>
      </trkpt>
      <trkpt lat="46.91339" lon="8.65073">
        <ele>1162</ele>
        <time>2021-08-07T11:05:36.682Z</time>
      </trkpt>
      <trkpt lat="46.91338" lon="8.65072">
        <ele>1162</ele>
        <time>2021-08-07T11:05:37.682Z</time>
      </trkpt>
      <trkpt lat="46.91338" lon="8.65071">
        <ele>1162</ele>
        <time>2021-08-07T11:05:38.681Z</time>
      </trkpt>
      <trkpt lat="46.91337" lon="8.6507">
        <ele>1162</ele>
        <time>2021-08-07T11:05:39.681Z</time>
      </trkpt>
      <trkpt lat="46.91336" lon="8.6507">
        <ele>1162</ele>
        <time>2021-08-07T11:05:40.682Z</time>
      </trkpt>
      <trkpt lat="46.91335" lon="8.6507">
        <ele>1162</ele>
        <time>2021-08-07T11:05:41.682Z</time>
      </trkpt>
      <trkpt lat="46.91335" lon="8.6507">
        <ele>1162</ele>
        <time>2021-08-07T11:05:42.682Z</time>
      </trkpt>
      <trkpt lat="46.91334" lon="8.65069">
        <ele>1162</ele>
        <time>2021-08-07T11:05:43.681Z</time>
      </trkpt>
      <trkpt lat="46.91334" lon="8.65067">
        <ele>1162</ele>
        <time>2021-08-07T11:05:44.682Z</time>
      </trkpt>
      <trkpt lat="46.91333" lon="8.65066">
        <ele>1162</ele>
        <time>2021-08-07T11:05:45.682Z</time>
      </trkpt>
      <trkpt lat="46.91332" lon="8.65065">
        <ele>1163</ele>
        <time>2021-08-07T11:05:46.682Z</time>
      </trkpt>
      <trkpt lat="46.91332" lon="8.65063">
        <ele>1163</ele>
        <time>2021-08-07T11:05:47.681Z</time>
      </trkpt>
      <trkpt lat="46.91331" lon="8.65062">
        <ele>1163</ele>
        <time>2021-08-07T11:05:48.681Z</time>
      </trkpt>
      <trkpt lat="46.91331" lon="8.6506">
        <ele>1164</ele>
        <time>2021-08-07T11:05:49.682Z</time>
      </trkpt>
      <trkpt lat="46.9133" lon="8.65059">
        <ele>1164</ele>
        <time>2021-08-07T11:05:50.682Z</time>
      </trkpt>
      <trkpt lat="46.91329" lon="8.65058">
        <ele>1164</ele>
        <time>2021-08-07T11:05:51.682Z</time>
      </trkpt>
      <trkpt lat="46.91328" lon="8.65057">
        <ele>1164</ele>
        <time>2021-08-07T11:05:52.681Z</time>
      </trkpt>
      <trkpt lat="46.91327" lon="8.65057">
        <ele>1164</ele>
        <time>2021-08-07T11:05:53.682Z</time>
      </trkpt>
      <trkpt lat="46.91326" lon="8.65054">
        <ele>1164</ele>
        <time>2021-08-07T11:05:54.681Z</time>
      </trkpt>
      <trkpt lat="46.91325" lon="8.65053">
        <ele>1164</ele>
        <time>2021-08-07T11:05:55.681Z</time>
      </trkpt>
      <trkpt lat="46.91324" lon="8.65052">
        <ele>1163</ele>
        <time>2021-08-07T11:05:56.682Z</time>
      </trkpt>
      <trkpt lat="46.91323" lon="8.6505">
        <ele>1162</ele>
        <time>2021-08-07T11:05:57.682Z</time>
      </trkpt>
      <trkpt lat="46.91322" lon="8.65049">
        <ele>1162</ele>
        <time>2021-08-07T11:05:58.681Z</time>
      </trkpt>
      <trkpt lat="46.91321" lon="8.65049">
        <ele>1161</ele>
        <time>2021-08-07T11:05:59.681Z</time>
      </trkpt>
      <trkpt lat="46.9132" lon="8.65047">
        <ele>1161</ele>
        <time>2021-08-07T11:06:00.682Z</time>
      </trkpt>
      <trkpt lat="46.9132" lon="8.65046">
        <ele>1160</ele>
        <time>2021-08-07T11:06:01.682Z</time>
      </trkpt>
      <trkpt lat="46.9132" lon="8.65045">
        <ele>1160</ele>
        <time>2021-08-07T11:06:02.682Z</time>
      </trkpt>
      <trkpt lat="46.91319" lon="8.65043">
        <ele>1159</ele>
        <time>2021-08-07T11:06:03.681Z</time>
      </trkpt>
      <trkpt lat="46.91319" lon="8.65042">
        <ele>1158</ele>
        <time>2021-08-07T11:06:04.682Z</time>
      </trkpt>
      <trkpt lat="46.91319" lon="8.6504">
        <ele>1157</ele>
        <time>2021-08-07T11:06:05.682Z</time>
      </trkpt>
      <trkpt lat="46.9132" lon="8.65038">
        <ele>1157</ele>
        <time>2021-08-07T11:06:06.682Z</time>
      </trkpt>
      <trkpt lat="46.9132" lon="8.65036">
        <ele>1156</ele>
        <time>2021-08-07T11:06:07.681Z</time>
      </trkpt>
      <trkpt lat="46.9132" lon="8.65035">
        <ele>1156</ele>
        <time>2021-08-07T11:06:08.682Z</time>
      </trkpt>
      <trkpt lat="46.91319" lon="8.65034">
        <ele>1155</ele>
        <time>2021-08-07T11:06:09.682Z</time>
      </trkpt>
      <trkpt lat="46.91318" lon="8.65033">
        <ele>1154</ele>
        <time>2021-08-07T11:06:10.682Z</time>
      </trkpt>
      <trkpt lat="46.91318" lon="8.65032">
        <ele>1154</ele>
        <time>2021-08-07T11:06:11.681Z</time>
      </trkpt>
      <trkpt lat="46.91317" lon="8.6503">
        <ele>1153</ele>
        <time>2021-08-07T11:06:12.682Z</time>
      </trkpt>
      <trkpt lat="46.91317" lon="8.65029">
        <ele>1153</ele>
        <time>2021-08-07T11:06:13.681Z</time>
      </trkpt>
      <trkpt lat="46.91317" lon="8.65028">
        <ele>1152</ele>
        <time>2021-08-07T11:06:14.682Z</time>
      </trkpt>
      <trkpt lat="46.91317" lon="8.65026">
        <ele>1152</ele>
        <time>2021-08-07T11:06:15.681Z</time>
      </trkpt>
      <trkpt lat="46.91317" lon="8.65025">
        <ele>1152</ele>
        <time>2021-08-07T11:06:16.682Z</time>
      </trkpt>
      <trkpt lat="46.91316" lon="8.65023">
        <ele>1152</ele>
        <time>2021-08-07T11:06:17.682Z</time>
      </trkpt>
      <trkpt lat="46.91316" lon="8.65022">
        <ele>1151</ele>
        <time>2021-08-07T11:06:18.682Z</time>
      </trkpt>
      <trkpt lat="46.91316" lon="8.65021">
        <ele>1151</ele>
        <time>2021-08-07T11:06:19.682Z</time>
      </trkpt>
      <trkpt lat="46.91315" lon="8.6502">
        <ele>1151</ele>
        <time>2021-08-07T11:06:20.682Z</time>
      </trkpt>
      <trkpt lat="46.91315" lon="8.65019">
        <ele>1150</ele>
        <time>2021-08-07T11:06:21.682Z</time>
      </trkpt>
      <trkpt lat="46.91315" lon="8.65017">
        <ele>1150</ele>
        <time>2021-08-07T11:06:22.682Z</time>
      </trkpt>
      <trkpt lat="46.91315" lon="8.65016">
        <ele>1150</ele>
        <time>2021-08-07T11:06:23.681Z</time>
      </trkpt>
      <trkpt lat="46.91315" lon="8.65014">
        <ele>1149</ele>
        <time>2021-08-07T11:06:24.682Z</time>
      </trkpt>
      <trkpt lat="46.91315" lon="8.65012">
        <ele>1148</ele>
        <time>2021-08-07T11:06:25.682Z</time>
      </trkpt>
      <trkpt lat="46.91315" lon="8.65009">
        <ele>1148</ele>
        <time>2021-08-07T11:06:26.682Z</time>
      </trkpt>
      <trkpt lat="46.91314" lon="8.65008">
        <ele>1147</ele>
        <time>2021-08-07T11:06:27.682Z</time>
      </trkpt>
      <trkpt lat="46.91312" lon="8.65006">
        <ele>1147</ele>
        <time>2021-08-07T11:06:28.681Z</time>
      </trkpt>
      <trkpt lat="46.91312" lon="8.65005">
        <ele>1147</ele>
        <time>2021-08-07T11:06:29.682Z</time>
      </trkpt>
      <trkpt lat="46.91311" lon="8.65002">
        <ele>1147</ele>
        <time>2021-08-07T11:06:30.681Z</time>
      </trkpt>
      <trkpt lat="46.91311" lon="8.65">
        <ele>1147</ele>
        <time>2021-08-07T11:06:31.682Z</time>
      </trkpt>
      <trkpt lat="46.91311" lon="8.64998">
        <ele>1147</ele>
        <time>2021-08-07T11:06:32.682Z</time>
      </trkpt>
      <trkpt lat="46.9131" lon="8.64996">
        <ele>1147</ele>
        <time>2021-08-07T11:06:33.682Z</time>
      </trkpt>
      <trkpt lat="46.91309" lon="8.64994">
        <ele>1147</ele>
        <time>2021-08-07T11:06:34.682Z</time>
      </trkpt>
      <trkpt lat="46.91309" lon="8.64993">
        <ele>1148</ele>
        <time>2021-08-07T11:06:35.682Z</time>
      </trkpt>
      <trkpt lat="46.91308" lon="8.64991">
        <ele>1148</ele>
        <time>2021-08-07T11:06:36.682Z</time>
      </trkpt>
      <trkpt lat="46.91308" lon="8.6499">
        <ele>1148</ele>
        <time>2021-08-07T11:06:37.682Z</time>
      </trkpt>
      <trkpt lat="46.91307" lon="8.64989">
        <ele>1148</ele>
        <time>2021-08-07T11:06:38.681Z</time>
      </trkpt>
      <trkpt lat="46.91307" lon="8.64987">
        <ele>1148</ele>
        <time>2021-08-07T11:06:39.682Z</time>
      </trkpt>
      <trkpt lat="46.91307" lon="8.64986">
        <ele>1149</ele>
        <time>2021-08-07T11:06:40.682Z</time>
      </trkpt>
      <trkpt lat="46.91307" lon="8.64985">
        <ele>1149</ele>
        <time>2021-08-07T11:06:41.682Z</time>
      </trkpt>
      <trkpt lat="46.91307" lon="8.64983">
        <ele>1150</ele>
        <time>2021-08-07T11:06:42.681Z</time>
      </trkpt>
      <trkpt lat="46.91308" lon="8.64981">
        <ele>1151</ele>
        <time>2021-08-07T11:06:43.681Z</time>
      </trkpt>
      <trkpt lat="46.91307" lon="8.64979">
        <ele>1151</ele>
        <time>2021-08-07T11:06:44.682Z</time>
      </trkpt>
      <trkpt lat="46.91307" lon="8.64977">
        <ele>1152</ele>
        <time>2021-08-07T11:06:45.682Z</time>
      </trkpt>
      <trkpt lat="46.91306" lon="8.64976">
        <ele>1152</ele>
        <time>2021-08-07T11:06:46.681Z</time>
      </trkpt>
      <trkpt lat="46.91304" lon="8.64975">
        <ele>1151</ele>
        <time>2021-08-07T11:06:47.682Z</time>
      </trkpt>
      <trkpt lat="46.91304" lon="8.64973">
        <ele>1151</ele>
        <time>2021-08-07T11:06:48.681Z</time>
      </trkpt>
      <trkpt lat="46.91303" lon="8.64972">
        <ele>1150</ele>
        <time>2021-08-07T11:06:49.681Z</time>
      </trkpt>
      <trkpt lat="46.91303" lon="8.6497">
        <ele>1149</ele>
        <time>2021-08-07T11:06:50.682Z</time>
      </trkpt>
      <trkpt lat="46.91302" lon="8.64969">
        <ele>1148</ele>
        <time>2021-08-07T11:06:51.681Z</time>
      </trkpt>
      <trkpt lat="46.91302" lon="8.64967">
        <ele>1148</ele>
        <time>2021-08-07T11:06:52.681Z</time>
      </trkpt>
      <trkpt lat="46.91302" lon="8.64965">
        <ele>1147</ele>
        <time>2021-08-07T11:06:53.682Z</time>
      </trkpt>
      <trkpt lat="46.91302" lon="8.64964">
        <ele>1146</ele>
        <time>2021-08-07T11:06:54.682Z</time>
      </trkpt>
      <trkpt lat="46.91303" lon="8.64963">
        <ele>1146</ele>
        <time>2021-08-07T11:06:55.682Z</time>
      </trkpt>
      <trkpt lat="46.91304" lon="8.64962">
        <ele>1146</ele>
        <time>2021-08-07T11:06:56.681Z</time>
      </trkpt>
      <trkpt lat="46.91304" lon="8.64961">
        <ele>1145</ele>
        <time>2021-08-07T11:06:57.682Z</time>
      </trkpt>
      <trkpt lat="46.91304" lon="8.64961">
        <ele>1145</ele>
        <time>2021-08-07T11:06:58.681Z</time>
      </trkpt>
      <trkpt lat="46.91303" lon="8.64962">
        <ele>1144</ele>
        <time>2021-08-07T11:06:59.681Z</time>
      </trkpt>
      <trkpt lat="46.91301" lon="8.64963">
        <ele>1144</ele>
        <time>2021-08-07T11:07:00.682Z</time>
      </trkpt>
      <trkpt lat="46.91298" lon="8.64964">
        <ele>1144</ele>
        <time>2021-08-07T11:07:01.681Z</time>
      </trkpt>
      <trkpt lat="46.91296" lon="8.64966">
        <ele>1143</ele>
        <time>2021-08-07T11:07:02.682Z</time>
      </trkpt>
      <trkpt lat="46.91297" lon="8.64966">
        <ele>1143</ele>
        <time>2021-08-07T11:07:03.682Z</time>
      </trkpt>
      <trkpt lat="46.91298" lon="8.64966">
        <ele>1143</ele>
        <time>2021-08-07T11:07:04.682Z</time>
      </trkpt>
      <trkpt lat="46.91299" lon="8.64965">
        <ele>1142</ele>
        <time>2021-08-07T11:07:05.681Z</time>
      </trkpt>
      <trkpt lat="46.91299" lon="8.64965">
        <ele>1142</ele>
        <time>2021-08-07T11:07:06.681Z</time>
      </trkpt>
      <trkpt lat="46.91299" lon="8.64965">
        <ele>1142</ele>
        <time>2021-08-07T11:07:07.682Z</time>
      </trkpt>
      <trkpt lat="46.913" lon="8.64965">
        <ele>1143</ele>
        <time>2021-08-07T11:07:08.682Z</time>
      </trkpt>
      <trkpt lat="46.913" lon="8.64965">
        <ele>1143</ele>
        <time>2021-08-07T11:07:09.683Z</time>
      </trkpt>
      <trkpt lat="46.913" lon="8.64965">
        <ele>1143</ele>
        <time>2021-08-07T11:07:10.682Z</time>
      </trkpt>
      <trkpt lat="46.913" lon="8.64964">
        <ele>1143</ele>
        <time>2021-08-07T11:07:11.685Z</time>
      </trkpt>
      <trkpt lat="46.91299" lon="8.64964">
        <ele>1143</ele>
        <time>2021-08-07T11:07:12.685Z</time>
      </trkpt>
      <trkpt lat="46.913" lon="8.64963">
        <ele>1143</ele>
        <time>2021-08-07T11:07:13.684Z</time>
      </trkpt>
      <trkpt lat="46.91299" lon="8.64962">
        <ele>1142</ele>
        <time>2021-08-07T11:07:14.684Z</time>
      </trkpt>
      <trkpt lat="46.91299" lon="8.64963">
        <ele>1142</ele>
        <time>2021-08-07T11:07:15.684Z</time>
      </trkpt>
      <trkpt lat="46.91298" lon="8.64968">
        <ele>1141</ele>
        <time>2021-08-07T11:07:16.685Z</time>
      </trkpt>
      <trkpt lat="46.91301" lon="8.64971">
        <ele>1144</ele>
        <time>2021-08-07T11:07:17.684Z</time>
      </trkpt>
      <trkpt lat="46.91301" lon="8.64971">
        <ele>1144</ele>
        <time>2021-08-07T11:07:24.787Z</time>
      </trkpt>
      <trkpt lat="46.91302" lon="8.64971">
        <ele>1144</ele>
        <time>2021-08-07T11:07:25.786Z</time>
      </trkpt>
      <trkpt lat="46.91303" lon="8.64971">
        <ele>1144</ele>
        <time>2021-08-07T11:07:37.848Z</time>
      </trkpt>
      <trkpt lat="46.91303" lon="8.64971">
        <ele>1144</ele>
        <time>2021-08-07T11:07:38.848Z</time>
      </trkpt>
      <trkpt lat="46.91304" lon="8.64971">
        <ele>1144</ele>
        <time>2021-08-07T11:07:39.848Z</time>
      </trkpt>
      <trkpt lat="46.91304" lon="8.64972">
        <ele>1144</ele>
        <time>2021-08-07T11:07:40.848Z</time>
      </trkpt>
      <trkpt lat="46.91304" lon="8.64972">
        <ele>1144</ele>
        <time>2021-08-07T11:07:41.847Z</time>
      </trkpt>
      <trkpt lat="46.91304" lon="8.64973">
        <ele>1144</ele>
        <time>2021-08-07T11:07:42.848Z</time>
      </trkpt>
      <trkpt lat="46.91304" lon="8.64974">
        <ele>1144</ele>
        <time>2021-08-07T11:07:43.848Z</time>
      </trkpt>
      <trkpt lat="46.91305" lon="8.64975">
        <ele>1145</ele>
        <time>2021-08-07T11:07:44.848Z</time>
      </trkpt>
      <trkpt lat="46.91306" lon="8.64975">
        <ele>1145</ele>
        <time>2021-08-07T11:07:45.847Z</time>
      </trkpt>
      <trkpt lat="46.91307" lon="8.64976">
        <ele>1145</ele>
        <time>2021-08-07T11:07:46.847Z</time>
      </trkpt>
      <trkpt lat="46.91308" lon="8.64977">
        <ele>1145</ele>
        <time>2021-08-07T11:07:47.848Z</time>
      </trkpt>
      <trkpt lat="46.91309" lon="8.64978">
        <ele>1145</ele>
        <time>2021-08-07T11:07:48.848Z</time>
      </trkpt>
      <trkpt lat="46.91309" lon="8.64978">
        <ele>1145</ele>
        <time>2021-08-07T11:07:49.847Z</time>
      </trkpt>
      <trkpt lat="46.9131" lon="8.64978">
        <ele>1146</ele>
        <time>2021-08-07T11:07:50.847Z</time>
      </trkpt>
      <trkpt lat="46.91311" lon="8.64979">
        <ele>1146</ele>
        <time>2021-08-07T11:07:51.848Z</time>
      </trkpt>
      <trkpt lat="46.91312" lon="8.64979">
        <ele>1145</ele>
        <time>2021-08-07T11:07:52.848Z</time>
      </trkpt>
      <trkpt lat="46.91312" lon="8.6498">
        <ele>1145</ele>
        <time>2021-08-07T11:07:53.848Z</time>
      </trkpt>
      <trkpt lat="46.91312" lon="8.6498">
        <ele>1145</ele>
        <time>2021-08-07T11:07:54.847Z</time>
      </trkpt>
      <trkpt lat="46.91313" lon="8.64982">
        <ele>1145</ele>
        <time>2021-08-07T11:07:56.919Z</time>
      </trkpt>
      <trkpt lat="46.91314" lon="8.64983">
        <ele>1146</ele>
        <time>2021-08-07T11:07:57.918Z</time>
      </trkpt>
      <trkpt lat="46.91314" lon="8.64984">
        <ele>1146</ele>
        <time>2021-08-07T11:07:58.918Z</time>
      </trkpt>
      <trkpt lat="46.91315" lon="8.64984">
        <ele>1147</ele>
        <time>2021-08-07T11:07:59.919Z</time>
      </trkpt>
      <trkpt lat="46.91315" lon="8.64984">
        <ele>1147</ele>
        <time>2021-08-07T11:08:00.919Z</time>
      </trkpt>
      <trkpt lat="46.91315" lon="8.64985">
        <ele>1148</ele>
        <time>2021-08-07T11:08:01.919Z</time>
      </trkpt>
      <trkpt lat="46.91316" lon="8.64986">
        <ele>1148</ele>
        <time>2021-08-07T11:08:02.918Z</time>
      </trkpt>
      <trkpt lat="46.91316" lon="8.64987">
        <ele>1149</ele>
        <time>2021-08-07T11:08:03.919Z</time>
      </trkpt>
      <trkpt lat="46.91317" lon="8.64988">
        <ele>1150</ele>
        <time>2021-08-07T11:08:04.918Z</time>
      </trkpt>
      <trkpt lat="46.91317" lon="8.6499">
        <ele>1150</ele>
        <time>2021-08-07T11:08:05.919Z</time>
      </trkpt>
      <trkpt lat="46.91317" lon="8.64992">
        <ele>1151</ele>
        <time>2021-08-07T11:08:06.919Z</time>
      </trkpt>
      <trkpt lat="46.91318" lon="8.64993">
        <ele>1151</ele>
        <time>2021-08-07T11:08:07.919Z</time>
      </trkpt>
      <trkpt lat="46.91319" lon="8.64994">
        <ele>1151</ele>
        <time>2021-08-07T11:08:08.919Z</time>
      </trkpt>
      <trkpt lat="46.9132" lon="8.64995">
        <ele>1152</ele>
        <time>2021-08-07T11:08:09.918Z</time>
      </trkpt>
      <trkpt lat="46.91321" lon="8.64996">
        <ele>1152</ele>
        <time>2021-08-07T11:08:10.919Z</time>
      </trkpt>
      <trkpt lat="46.91322" lon="8.64997">
        <ele>1152</ele>
        <time>2021-08-07T11:08:11.919Z</time>
      </trkpt>
      <trkpt lat="46.91323" lon="8.64999">
        <ele>1153</ele>
        <time>2021-08-07T11:08:12.919Z</time>
      </trkpt>
      <trkpt lat="46.91324" lon="8.64999">
        <ele>1153</ele>
        <time>2021-08-07T11:08:13.918Z</time>
      </trkpt>
      <trkpt lat="46.91325" lon="8.65001">
        <ele>1153</ele>
        <time>2021-08-07T11:08:14.919Z</time>
      </trkpt>
      <trkpt lat="46.91325" lon="8.65002">
        <ele>1152</ele>
        <time>2021-08-07T11:08:15.919Z</time>
      </trkpt>
      <trkpt lat="46.91326" lon="8.65004">
        <ele>1152</ele>
        <time>2021-08-07T11:08:16.919Z</time>
      </trkpt>
      <trkpt lat="46.91328" lon="8.65006">
        <ele>1152</ele>
        <time>2021-08-07T11:08:17.918Z</time>
      </trkpt>
      <trkpt lat="46.91329" lon="8.65007">
        <ele>1152</ele>
        <time>2021-08-07T11:08:18.919Z</time>
      </trkpt>
      <trkpt lat="46.91329" lon="8.65008">
        <ele>1151</ele>
        <time>2021-08-07T11:08:19.919Z</time>
      </trkpt>
      <trkpt lat="46.91331" lon="8.65009">
        <ele>1151</ele>
        <time>2021-08-07T11:08:25.955Z</time>
      </trkpt>
      <trkpt lat="46.91332" lon="8.65009">
        <ele>1150</ele>
        <time>2021-08-07T11:08:26.956Z</time>
      </trkpt>
      <trkpt lat="46.91333" lon="8.6501">
        <ele>1150</ele>
        <time>2021-08-07T11:08:27.955Z</time>
      </trkpt>
      <trkpt lat="46.91334" lon="8.6501">
        <ele>1150</ele>
        <time>2021-08-07T11:08:28.955Z</time>
      </trkpt>
      <trkpt lat="46.91335" lon="8.6501">
        <ele>1150</ele>
        <time>2021-08-07T11:08:29.956Z</time>
      </trkpt>
      <trkpt lat="46.91336" lon="8.6501">
        <ele>1150</ele>
        <time>2021-08-07T11:08:30.956Z</time>
      </trkpt>
      <trkpt lat="46.91337" lon="8.6501">
        <ele>1149</ele>
        <time>2021-08-07T11:08:31.956Z</time>
      </trkpt>
      <trkpt lat="46.91338" lon="8.65011">
        <ele>1149</ele>
        <time>2021-08-07T11:08:32.955Z</time>
      </trkpt>
      <trkpt lat="46.9134" lon="8.6501">
        <ele>1149</ele>
        <time>2021-08-07T11:08:33.955Z</time>
      </trkpt>
      <trkpt lat="46.91341" lon="8.6501">
        <ele>1148</ele>
        <time>2021-08-07T11:08:34.956Z</time>
      </trkpt>
      <trkpt lat="46.91339" lon="8.65008">
        <ele>1147</ele>
        <time>2021-08-07T11:08:35.956Z</time>
      </trkpt>
      <trkpt lat="46.91339" lon="8.65008">
        <ele>1146</ele>
        <time>2021-08-07T11:08:36.955Z</time>
      </trkpt>
      <trkpt lat="46.91339" lon="8.65008">
        <ele>1146</ele>
        <time>2021-08-07T11:08:37.956Z</time>
      </trkpt>
      <trkpt lat="46.9134" lon="8.65007">
        <ele>1145</ele>
        <time>2021-08-07T11:08:38.957Z</time>
      </trkpt>
      <trkpt lat="46.91341" lon="8.65008">
        <ele>1145</ele>
        <time>2021-08-07T11:08:39.957Z</time>
      </trkpt>
      <trkpt lat="46.91341" lon="8.65008">
        <ele>1146</ele>
        <time>2021-08-07T11:08:40.956Z</time>
      </trkpt>
      <trkpt lat="46.91341" lon="8.65008">
        <ele>1146</ele>
        <time>2021-08-07T11:08:41.957Z</time>
      </trkpt>
      <trkpt lat="46.9134" lon="8.65007">
        <ele>1148</ele>
        <time>2021-08-07T11:08:42.958Z</time>
      </trkpt>
      <trkpt lat="46.91339" lon="8.65007">
        <ele>1149</ele>
        <time>2021-08-07T11:08:43.957Z</time>
      </trkpt>
      <trkpt lat="46.91339" lon="8.65007">
        <ele>1146</ele>
        <time>2021-08-07T11:08:44.959Z</time>
      </trkpt>
      <trkpt lat="46.91339" lon="8.65007">
        <ele>1145</ele>
        <time>2021-08-07T11:08:45.958Z</time>
      </trkpt>
      <trkpt lat="46.91339" lon="8.65007">
        <ele>1145</ele>
        <time>2021-08-07T11:08:46.958Z</time>
      </trkpt>
      <trkpt lat="46.91341" lon="8.65009">
        <ele>1154</ele>
        <time>2021-08-07T11:08:47.959Z</time>
      </trkpt>
      <trkpt lat="46.91341" lon="8.65009">
        <ele>1154</ele>
        <time>2021-08-07T11:08:48.959Z</time>
      </trkpt>
      <trkpt lat="46.9134" lon="8.65008">
        <ele>1154</ele>
        <time>2021-08-07T11:08:49.958Z</time>
      </trkpt>
      <trkpt lat="46.91342" lon="8.65004">
        <ele>1136</ele>
        <time>2021-08-07T11:08:50.960Z</time>
      </trkpt>
      <trkpt lat="46.91342" lon="8.65005">
        <ele>1134</ele>
        <time>2021-08-07T11:08:51.960Z</time>
      </trkpt>
      <trkpt lat="46.91343" lon="8.65008">
        <ele>1130</ele>
        <time>2021-08-07T11:08:52.959Z</time>
      </trkpt>
      <trkpt lat="46.91344" lon="8.65008">
        <ele>1130</ele>
        <time>2021-08-07T11:08:53.960Z</time>
      </trkpt>
      <trkpt lat="46.91345" lon="8.65008">
        <ele>1131</ele>
        <time>2021-08-07T11:08:54.959Z</time>
      </trkpt>
      <trkpt lat="46.91346" lon="8.65007">
        <ele>1131</ele>
        <time>2021-08-07T11:08:55.960Z</time>
      </trkpt>
      <trkpt lat="46.91347" lon="8.65007">
        <ele>1131</ele>
        <time>2021-08-07T11:08:56.959Z</time>
      </trkpt>
      <trkpt lat="46.91347" lon="8.65006">
        <ele>1132</ele>
        <time>2021-08-07T11:08:57.959Z</time>
      </trkpt>
      <trkpt lat="46.91348" lon="8.65005">
        <ele>1132</ele>
        <time>2021-08-07T11:08:58.960Z</time>
      </trkpt>
      <trkpt lat="46.91349" lon="8.65004">
        <ele>1133</ele>
        <time>2021-08-07T11:08:59.959Z</time>
      </trkpt>
      <trkpt lat="46.91351" lon="8.65003">
        <ele>1134</ele>
        <time>2021-08-07T11:09:00.960Z</time>
      </trkpt>
      <trkpt lat="46.91352" lon="8.65003">
        <ele>1135</ele>
        <time>2021-08-07T11:09:01.960Z</time>
      </trkpt>
      <trkpt lat="46.91353" lon="8.65002">
        <ele>1136</ele>
        <time>2021-08-07T11:09:02.959Z</time>
      </trkpt>
      <trkpt lat="46.91354" lon="8.65001">
        <ele>1137</ele>
        <time>2021-08-07T11:09:03.959Z</time>
      </trkpt>
      <trkpt lat="46.91355" lon="8.65002">
        <ele>1138</ele>
        <time>2021-08-07T11:09:04.960Z</time>
      </trkpt>
      <trkpt lat="46.91356" lon="8.65003">
        <ele>1139</ele>
        <time>2021-08-07T11:09:05.960Z</time>
      </trkpt>
      <trkpt lat="46.91357" lon="8.65004">
        <ele>1140</ele>
        <time>2021-08-07T11:09:06.960Z</time>
      </trkpt>
      <trkpt lat="46.91358" lon="8.65004">
        <ele>1141</ele>
        <time>2021-08-07T11:09:07.959Z</time>
      </trkpt>
      <trkpt lat="46.9136" lon="8.65003">
        <ele>1141</ele>
        <time>2021-08-07T11:09:08.959Z</time>
      </trkpt>
      <trkpt lat="46.91361" lon="8.65003">
        <ele>1141</ele>
        <time>2021-08-07T11:09:09.960Z</time>
      </trkpt>
      <trkpt lat="46.91362" lon="8.65002">
        <ele>1142</ele>
        <time>2021-08-07T11:09:10.960Z</time>
      </trkpt>
      <trkpt lat="46.91364" lon="8.65001">
        <ele>1142</ele>
        <time>2021-08-07T11:09:11.960Z</time>
      </trkpt>
      <trkpt lat="46.91365" lon="8.64999">
        <ele>1143</ele>
        <time>2021-08-07T11:09:12.959Z</time>
      </trkpt>
      <trkpt lat="46.91365" lon="8.64997">
        <ele>1143</ele>
        <time>2021-08-07T11:09:13.960Z</time>
      </trkpt>
      <trkpt lat="46.91366" lon="8.64996">
        <ele>1143</ele>
        <time>2021-08-07T11:09:14.960Z</time>
      </trkpt>
      <trkpt lat="46.91368" lon="8.64995">
        <ele>1144</ele>
        <time>2021-08-07T11:09:15.960Z</time>
      </trkpt>
      <trkpt lat="46.91369" lon="8.64994">
        <ele>1144</ele>
        <time>2021-08-07T11:09:16.960Z</time>
      </trkpt>
      <trkpt lat="46.91369" lon="8.64993">
        <ele>1145</ele>
        <time>2021-08-07T11:09:17.960Z</time>
      </trkpt>
      <trkpt lat="46.9137" lon="8.64993">
        <ele>1145</ele>
        <time>2021-08-07T11:09:18.960Z</time>
      </trkpt>
      <trkpt lat="46.91371" lon="8.64992">
        <ele>1146</ele>
        <time>2021-08-07T11:09:19.960Z</time>
      </trkpt>
      <trkpt lat="46.91371" lon="8.64991">
        <ele>1146</ele>
        <time>2021-08-07T11:09:20.960Z</time>
      </trkpt>
      <trkpt lat="46.91371" lon="8.64991">
        <ele>1146</ele>
        <time>2021-08-07T11:09:21.960Z</time>
      </trkpt>
      <trkpt lat="46.91372" lon="8.6499">
        <ele>1147</ele>
        <time>2021-08-07T11:09:22.960Z</time>
      </trkpt>
      <trkpt lat="46.91374" lon="8.6499">
        <ele>1147</ele>
        <time>2021-08-07T11:09:25.041Z</time>
      </trkpt>
      <trkpt lat="46.91375" lon="8.6499">
        <ele>1147</ele>
        <time>2021-08-07T11:09:26.042Z</time>
      </trkpt>
      <trkpt lat="46.91375" lon="8.6499">
        <ele>1147</ele>
        <time>2021-08-07T11:09:27.042Z</time>
      </trkpt>
      <trkpt lat="46.91375" lon="8.6499">
        <ele>1147</ele>
        <time>2021-08-07T11:09:28.042Z</time>
      </trkpt>
      <trkpt lat="46.91376" lon="8.6499">
        <ele>1147</ele>
        <time>2021-08-07T11:09:29.042Z</time>
      </trkpt>
      <trkpt lat="46.91377" lon="8.64989">
        <ele>1147</ele>
        <time>2021-08-07T11:09:30.041Z</time>
      </trkpt>
      <trkpt lat="46.91378" lon="8.64988">
        <ele>1147</ele>
        <time>2021-08-07T11:09:31.042Z</time>
      </trkpt>
      <trkpt lat="46.91379" lon="8.64987">
        <ele>1147</ele>
        <time>2021-08-07T11:09:32.042Z</time>
      </trkpt>
      <trkpt lat="46.9138" lon="8.64987">
        <ele>1147</ele>
        <time>2021-08-07T11:09:33.041Z</time>
      </trkpt>
      <trkpt lat="46.91381" lon="8.64986">
        <ele>1147</ele>
        <time>2021-08-07T11:09:34.042Z</time>
      </trkpt>
      <trkpt lat="46.91382" lon="8.64985">
        <ele>1148</ele>
        <time>2021-08-07T11:09:35.042Z</time>
      </trkpt>
      <trkpt lat="46.91383" lon="8.64984">
        <ele>1148</ele>
        <time>2021-08-07T11:09:36.041Z</time>
      </trkpt>
      <trkpt lat="46.91384" lon="8.64983">
        <ele>1148</ele>
        <time>2021-08-07T11:09:37.042Z</time>
      </trkpt>
      <trkpt lat="46.91385" lon="8.64982">
        <ele>1148</ele>
        <time>2021-08-07T11:09:38.041Z</time>
      </trkpt>
      <trkpt lat="46.91386" lon="8.6498">
        <ele>1148</ele>
        <time>2021-08-07T11:09:39.042Z</time>
      </trkpt>
      <trkpt lat="46.91387" lon="8.64979">
        <ele>1148</ele>
        <time>2021-08-07T11:09:40.042Z</time>
      </trkpt>
      <trkpt lat="46.91387" lon="8.64979">
        <ele>1148</ele>
        <time>2021-08-07T11:09:41.042Z</time>
      </trkpt>
      <trkpt lat="46.91392" lon="8.64967">
        <ele>1148</ele>
        <time>2021-08-07T11:09:42.042Z</time>
      </trkpt>
      <trkpt lat="46.91392" lon="8.64967">
        <ele>1147</ele>
        <time>2021-08-07T11:09:43.042Z</time>
      </trkpt>
      <trkpt lat="46.91393" lon="8.64965">
        <ele>1146</ele>
        <time>2021-08-07T11:09:44.041Z</time>
      </trkpt>
      <trkpt lat="46.91394" lon="8.64964">
        <ele>1146</ele>
        <time>2021-08-07T11:09:52.186Z</time>
      </trkpt>
      <trkpt lat="46.91395" lon="8.64963">
        <ele>1145</ele>
        <time>2021-08-07T11:09:53.187Z</time>
      </trkpt>
      <trkpt lat="46.91395" lon="8.64963">
        <ele>1145</ele>
        <time>2021-08-07T11:09:54.186Z</time>
      </trkpt>
      <trkpt lat="46.91397" lon="8.64962">
        <ele>1145</ele>
        <time>2021-08-07T11:09:55.187Z</time>
      </trkpt>
      <trkpt lat="46.91398" lon="8.64963">
        <ele>1145</ele>
        <time>2021-08-07T11:09:56.187Z</time>
      </trkpt>
      <trkpt lat="46.914" lon="8.64963">
        <ele>1144</ele>
        <time>2021-08-07T11:09:57.187Z</time>
      </trkpt>
      <trkpt lat="46.91401" lon="8.64964">
        <ele>1144</ele>
        <time>2021-08-07T11:09:58.187Z</time>
      </trkpt>
      <trkpt lat="46.91402" lon="8.64965">
        <ele>1143</ele>
        <time>2021-08-07T11:09:59.187Z</time>
      </trkpt>
      <trkpt lat="46.91404" lon="8.64966">
        <ele>1143</ele>
        <time>2021-08-07T11:10:00.187Z</time>
      </trkpt>
      <trkpt lat="46.91406" lon="8.64966">
        <ele>1143</ele>
        <time>2021-08-07T11:10:01.187Z</time>
      </trkpt>
      <trkpt lat="46.91408" lon="8.64967">
        <ele>1142</ele>
        <time>2021-08-07T11:10:02.186Z</time>
      </trkpt>
      <trkpt lat="46.9141" lon="8.64968">
        <ele>1142</ele>
        <time>2021-08-07T11:10:08.313Z</time>
      </trkpt>
      <trkpt lat="46.91411" lon="8.6497">
        <ele>1142</ele>
        <time>2021-08-07T11:10:09.313Z</time>
      </trkpt>
      <trkpt lat="46.91412" lon="8.64971">
        <ele>1142</ele>
        <time>2021-08-07T11:10:10.313Z</time>
      </trkpt>
      <trkpt lat="46.91411" lon="8.64972">
        <ele>1142</ele>
        <time>2021-08-07T11:10:11.313Z</time>
      </trkpt>
      <trkpt lat="46.9141" lon="8.64974">
        <ele>1142</ele>
        <time>2021-08-07T11:10:12.313Z</time>
      </trkpt>
      <trkpt lat="46.9141" lon="8.64974">
        <ele>1141</ele>
        <time>2021-08-07T11:10:13.313Z</time>
      </trkpt>
      <trkpt lat="46.9141" lon="8.64974">
        <ele>1141</ele>
        <time>2021-08-07T11:10:14.313Z</time>
      </trkpt>
      <trkpt lat="46.9141" lon="8.64974">
        <ele>1141</ele>
        <time>2021-08-07T11:10:15.312Z</time>
      </trkpt>
      <trkpt lat="46.9141" lon="8.64973">
        <ele>1140</ele>
        <time>2021-08-07T11:10:17.475Z</time>
      </trkpt>
      <trkpt lat="46.91411" lon="8.64972">
        <ele>1139</ele>
        <time>2021-08-07T11:10:18.475Z</time>
      </trkpt>
      <trkpt lat="46.9141" lon="8.64972">
        <ele>1139</ele>
        <time>2021-08-07T11:10:19.475Z</time>
      </trkpt>
      <trkpt lat="46.9141" lon="8.64972">
        <ele>1138</ele>
        <time>2021-08-07T11:10:20.474Z</time>
      </trkpt>
      <trkpt lat="46.91412" lon="8.64974">
        <ele>1136</ele>
        <time>2021-08-07T11:10:21.475Z</time>
      </trkpt>
      <trkpt lat="46.91412" lon="8.64974">
        <ele>1136</ele>
        <time>2021-08-07T11:10:22.474Z</time>
      </trkpt>
      <trkpt lat="46.91413" lon="8.64975">
        <ele>1136</ele>
        <time>2021-08-07T11:10:23.475Z</time>
      </trkpt>
      <trkpt lat="46.91414" lon="8.64976">
        <ele>1136</ele>
        <time>2021-08-07T11:10:24.475Z</time>
      </trkpt>
      <trkpt lat="46.91414" lon="8.64977">
        <ele>1136</ele>
        <time>2021-08-07T11:10:25.474Z</time>
      </trkpt>
      <trkpt lat="46.91415" lon="8.64978">
        <ele>1136</ele>
        <time>2021-08-07T11:10:26.474Z</time>
      </trkpt>
      <trkpt lat="46.91417" lon="8.64978">
        <ele>1136</ele>
        <time>2021-08-07T11:10:27.475Z</time>
      </trkpt>
      <trkpt lat="46.91418" lon="8.64978">
        <ele>1136</ele>
        <time>2021-08-07T11:10:28.474Z</time>
      </trkpt>
      <trkpt lat="46.91418" lon="8.64978">
        <ele>1136</ele>
        <time>2021-08-07T11:10:29.475Z</time>
      </trkpt>
      <trkpt lat="46.91419" lon="8.64978">
        <ele>1136</ele>
        <time>2021-08-07T11:10:30.475Z</time>
      </trkpt>
      <trkpt lat="46.91419" lon="8.64978">
        <ele>1136</ele>
        <time>2021-08-07T11:10:31.474Z</time>
      </trkpt>
      <trkpt lat="46.91419" lon="8.64977">
        <ele>1137</ele>
        <time>2021-08-07T11:10:32.474Z</time>
      </trkpt>
      <trkpt lat="46.91418" lon="8.64976">
        <ele>1136</ele>
        <time>2021-08-07T11:10:33.475Z</time>
      </trkpt>
      <trkpt lat="46.91418" lon="8.64976">
        <ele>1136</ele>
        <time>2021-08-07T11:10:34.474Z</time>
      </trkpt>
      <trkpt lat="46.91418" lon="8.64977">
        <ele>1135</ele>
        <time>2021-08-07T11:10:35.476Z</time>
      </trkpt>
      <trkpt lat="46.91418" lon="8.64977">
        <ele>1135</ele>
        <time>2021-08-07T11:10:36.476Z</time>
      </trkpt>
      <trkpt lat="46.91418" lon="8.64978">
        <ele>1135</ele>
        <time>2021-08-07T11:10:37.476Z</time>
      </trkpt>
      <trkpt lat="46.91421" lon="8.6498">
        <ele>1135</ele>
        <time>2021-08-07T11:10:41.476Z</time>
      </trkpt>
      <trkpt lat="46.91422" lon="8.64979">
        <ele>1135</ele>
        <time>2021-08-07T11:10:42.477Z</time>
      </trkpt>
      <trkpt lat="46.91421" lon="8.64978">
        <ele>1135</ele>
        <time>2021-08-07T11:10:43.476Z</time>
      </trkpt>
      <trkpt lat="46.91421" lon="8.64978">
        <ele>1136</ele>
        <time>2021-08-07T11:10:44.476Z</time>
      </trkpt>
      <trkpt lat="46.91422" lon="8.64977">
        <ele>1136</ele>
        <time>2021-08-07T11:10:45.476Z</time>
      </trkpt>
      <trkpt lat="46.91422" lon="8.64975">
        <ele>1136</ele>
        <time>2021-08-07T11:10:46.476Z</time>
      </trkpt>
      <trkpt lat="46.91421" lon="8.64974">
        <ele>1135</ele>
        <time>2021-08-07T11:10:47.476Z</time>
      </trkpt>
      <trkpt lat="46.9142" lon="8.64975">
        <ele>1135</ele>
        <time>2021-08-07T11:10:48.476Z</time>
      </trkpt>
      <trkpt lat="46.91419" lon="8.64975">
        <ele>1135</ele>
        <time>2021-08-07T11:10:49.476Z</time>
      </trkpt>
      <trkpt lat="46.91419" lon="8.64975">
        <ele>1135</ele>
        <time>2021-08-07T11:10:50.476Z</time>
      </trkpt>
      <trkpt lat="46.91417" lon="8.64976">
        <ele>1134</ele>
        <time>2021-08-07T11:10:51.476Z</time>
      </trkpt>
      <trkpt lat="46.91417" lon="8.64976">
        <ele>1134</ele>
        <time>2021-08-07T11:10:52.476Z</time>
      </trkpt>
      <trkpt lat="46.91417" lon="8.64976">
        <ele>1133</ele>
        <time>2021-08-07T11:10:53.477Z</time>
      </trkpt>
      <trkpt lat="46.91418" lon="8.64976">
        <ele>1133</ele>
        <time>2021-08-07T11:10:54.476Z</time>
      </trkpt>
      <trkpt lat="46.91419" lon="8.64977">
        <ele>1132</ele>
        <time>2021-08-07T11:10:55.476Z</time>
      </trkpt>
      <trkpt lat="46.9142" lon="8.64977">
        <ele>1132</ele>
        <time>2021-08-07T11:10:56.476Z</time>
      </trkpt>
      <trkpt lat="46.91419" lon="8.64979">
        <ele>1132</ele>
        <time>2021-08-07T11:10:57.476Z</time>
      </trkpt>
      <trkpt lat="46.91419" lon="8.64979">
        <ele>1132</ele>
        <time>2021-08-07T11:10:58.476Z</time>
      </trkpt>
      <trkpt lat="46.91419" lon="8.64979">
        <ele>1131</ele>
        <time>2021-08-07T11:10:59.477Z</time>
      </trkpt>
      <trkpt lat="46.91419" lon="8.6498">
        <ele>1131</ele>
        <time>2021-08-07T11:11:00.476Z</time>
      </trkpt>
      <trkpt lat="46.91418" lon="8.6498">
        <ele>1131</ele>
        <time>2021-08-07T11:11:01.477Z</time>
      </trkpt>
      <trkpt lat="46.91418" lon="8.64979">
        <ele>1130</ele>
        <time>2021-08-07T11:11:02.476Z</time>
      </trkpt>
      <trkpt lat="46.91417" lon="8.6498">
        <ele>1130</ele>
        <time>2021-08-07T11:11:03.477Z</time>
      </trkpt>
      <trkpt lat="46.91417" lon="8.6498">
        <ele>1130</ele>
        <time>2021-08-07T11:11:04.477Z</time>
      </trkpt>
      <trkpt lat="46.91417" lon="8.64981">
        <ele>1130</ele>
        <time>2021-08-07T11:11:05.477Z</time>
      </trkpt>
      <trkpt lat="46.91417" lon="8.64981">
        <ele>1129</ele>
        <time>2021-08-07T11:11:08.543Z</time>
      </trkpt>
      <trkpt lat="46.91418" lon="8.64981">
        <ele>1129</ele>
        <time>2021-08-07T11:11:13.308Z</time>
      </trkpt>
      <trkpt lat="46.91417" lon="8.64982">
        <ele>1129</ele>
        <time>2021-08-07T11:11:14.308Z</time>
      </trkpt>
      <trkpt lat="46.91417" lon="8.64982">
        <ele>1128</ele>
        <time>2021-08-07T11:11:15.308Z</time>
      </trkpt>
      <trkpt lat="46.91416" lon="8.64982">
        <ele>1128</ele>
        <time>2021-08-07T11:11:16.308Z</time>
      </trkpt>
      <trkpt lat="46.91416" lon="8.64983">
        <ele>1128</ele>
        <time>2021-08-07T11:11:17.307Z</time>
      </trkpt>
      <trkpt lat="46.91415" lon="8.64985">
        <ele>1127</ele>
        <time>2021-08-07T11:11:18.308Z</time>
      </trkpt>
      <trkpt lat="46.91415" lon="8.64985">
        <ele>1127</ele>
        <time>2021-08-07T11:11:19.308Z</time>
      </trkpt>
      <trkpt lat="46.91414" lon="8.64986">
        <ele>1127</ele>
        <time>2021-08-07T11:11:20.308Z</time>
      </trkpt>
      <trkpt lat="46.91413" lon="8.64986">
        <ele>1126</ele>
        <time>2021-08-07T11:11:21.307Z</time>
      </trkpt>
      <trkpt lat="46.91413" lon="8.64986">
        <ele>1126</ele>
        <time>2021-08-07T11:11:22.308Z</time>
      </trkpt>
      <trkpt lat="46.91413" lon="8.64986">
        <ele>1126</ele>
        <time>2021-08-07T11:11:23.307Z</time>
      </trkpt>
      <trkpt lat="46.91416" lon="8.64982">
        <ele>1126</ele>
        <time>2021-08-07T11:11:24.308Z</time>
      </trkpt>
      <trkpt lat="46.91417" lon="8.6498">
        <ele>1127</ele>
        <time>2021-08-07T11:11:25.309Z</time>
      </trkpt>
      <trkpt lat="46.91419" lon="8.64977">
        <ele>1127</ele>
        <time>2021-08-07T11:11:26.309Z</time>
      </trkpt>
      <trkpt lat="46.9142" lon="8.64975">
        <ele>1127</ele>
        <time>2021-08-07T11:11:27.308Z</time>
      </trkpt>
      <trkpt lat="46.91421" lon="8.64972">
        <ele>1127</ele>
        <time>2021-08-07T11:11:28.309Z</time>
      </trkpt>
      <trkpt lat="46.91422" lon="8.64971">
        <ele>1127</ele>
        <time>2021-08-07T11:11:29.308Z</time>
      </trkpt>
      <trkpt lat="46.91423" lon="8.64971">
        <ele>1127</ele>
        <time>2021-08-07T11:11:30.308Z</time>
      </trkpt>
      <trkpt lat="46.91423" lon="8.64971">
        <ele>1128</ele>
        <time>2021-08-07T11:11:31.308Z</time>
      </trkpt>
      <trkpt lat="46.91424" lon="8.64972">
        <ele>1128</ele>
        <time>2021-08-07T11:11:32.309Z</time>
      </trkpt>
      <trkpt lat="46.91424" lon="8.64972">
        <ele>1129</ele>
        <time>2021-08-07T11:11:33.309Z</time>
      </trkpt>
      <trkpt lat="46.91426" lon="8.64971">
        <ele>1129</ele>
        <time>2021-08-07T11:11:34.309Z</time>
      </trkpt>
      <trkpt lat="46.91427" lon="8.64971">
        <ele>1130</ele>
        <time>2021-08-07T11:11:35.308Z</time>
      </trkpt>
      <trkpt lat="46.91428" lon="8.64971">
        <ele>1130</ele>
        <time>2021-08-07T11:11:36.309Z</time>
      </trkpt>
      <trkpt lat="46.91429" lon="8.6497">
        <ele>1131</ele>
        <time>2021-08-07T11:11:37.308Z</time>
      </trkpt>
      <trkpt lat="46.9143" lon="8.6497">
        <ele>1132</ele>
        <time>2021-08-07T11:11:38.309Z</time>
      </trkpt>
      <trkpt lat="46.91431" lon="8.64971">
        <ele>1133</ele>
        <time>2021-08-07T11:11:39.309Z</time>
      </trkpt>
      <trkpt lat="46.91431" lon="8.64971">
        <ele>1133</ele>
        <time>2021-08-07T11:11:40.309Z</time>
      </trkpt>
      <trkpt lat="46.91432" lon="8.64971">
        <ele>1134</ele>
        <time>2021-08-07T11:11:41.309Z</time>
      </trkpt>
      <trkpt lat="46.91432" lon="8.64972">
        <ele>1135</ele>
        <time>2021-08-07T11:11:42.308Z</time>
      </trkpt>
      <trkpt lat="46.91433" lon="8.64972">
        <ele>1135</ele>
        <time>2021-08-07T11:11:43.308Z</time>
      </trkpt>
      <trkpt lat="46.91433" lon="8.64973">
        <ele>1135</ele>
        <time>2021-08-07T11:11:44.308Z</time>
      </trkpt>
      <trkpt lat="46.91433" lon="8.64973">
        <ele>1136</ele>
        <time>2021-08-07T11:11:45.309Z</time>
      </trkpt>
      <trkpt lat="46.91434" lon="8.64974">
        <ele>1136</ele>
        <time>2021-08-07T11:11:46.309Z</time>
      </trkpt>
      <trkpt lat="46.91434" lon="8.64974">
        <ele>1136</ele>
        <time>2021-08-07T11:11:47.309Z</time>
      </trkpt>
      <trkpt lat="46.91435" lon="8.64974">
        <ele>1136</ele>
        <time>2021-08-07T11:11:48.309Z</time>
      </trkpt>
      <trkpt lat="46.91436" lon="8.64974">
        <ele>1136</ele>
        <time>2021-08-07T11:11:49.309Z</time>
      </trkpt>
      <trkpt lat="46.91437" lon="8.64975">
        <ele>1136</ele>
        <time>2021-08-07T11:11:50.308Z</time>
      </trkpt>
      <trkpt lat="46.91437" lon="8.64975">
        <ele>1136</ele>
        <time>2021-08-07T11:11:51.309Z</time>
      </trkpt>
      <trkpt lat="46.91438" lon="8.64976">
        <ele>1135</ele>
        <time>2021-08-07T11:11:52.309Z</time>
      </trkpt>
      <trkpt lat="46.91439" lon="8.64976">
        <ele>1135</ele>
        <time>2021-08-07T11:11:53.308Z</time>
      </trkpt>
      <trkpt lat="46.9144" lon="8.64976">
        <ele>1135</ele>
        <time>2021-08-07T11:11:54.309Z</time>
      </trkpt>
      <trkpt lat="46.91441" lon="8.64977">
        <ele>1135</ele>
        <time>2021-08-07T11:11:55.309Z</time>
      </trkpt>
      <trkpt lat="46.91442" lon="8.64976">
        <ele>1135</ele>
        <time>2021-08-07T11:11:56.309Z</time>
      </trkpt>
      <trkpt lat="46.91444" lon="8.64976">
        <ele>1135</ele>
        <time>2021-08-07T11:11:57.309Z</time>
      </trkpt>
      <trkpt lat="46.91445" lon="8.64977">
        <ele>1135</ele>
        <time>2021-08-07T11:11:58.308Z</time>
      </trkpt>
      <trkpt lat="46.91447" lon="8.64977">
        <ele>1135</ele>
        <time>2021-08-07T11:11:59.308Z</time>
      </trkpt>
      <trkpt lat="46.91448" lon="8.64977">
        <ele>1135</ele>
        <time>2021-08-07T11:12:00.309Z</time>
      </trkpt>
      <trkpt lat="46.91449" lon="8.64978">
        <ele>1135</ele>
        <time>2021-08-07T11:12:01.308Z</time>
      </trkpt>
      <trkpt lat="46.9145" lon="8.64979">
        <ele>1135</ele>
        <time>2021-08-07T11:12:02.308Z</time>
      </trkpt>
      <trkpt lat="46.91452" lon="8.64979">
        <ele>1135</ele>
        <time>2021-08-07T11:12:03.309Z</time>
      </trkpt>
      <trkpt lat="46.91453" lon="8.6498">
        <ele>1134</ele>
        <time>2021-08-07T11:12:04.309Z</time>
      </trkpt>
      <trkpt lat="46.91455" lon="8.6498">
        <ele>1134</ele>
        <time>2021-08-07T11:12:05.309Z</time>
      </trkpt>
      <trkpt lat="46.91456" lon="8.64982">
        <ele>1134</ele>
        <time>2021-08-07T11:12:06.308Z</time>
      </trkpt>
      <trkpt lat="46.91464" lon="8.64984">
        <ele>1135</ele>
        <time>2021-08-07T11:12:07.310Z</time>
      </trkpt>
      <trkpt lat="46.91466" lon="8.64985">
        <ele>1135</ele>
        <time>2021-08-07T11:12:08.310Z</time>
      </trkpt>
      <trkpt lat="46.91467" lon="8.64986">
        <ele>1134</ele>
        <time>2021-08-07T11:12:09.310Z</time>
      </trkpt>
      <trkpt lat="46.91468" lon="8.64987">
        <ele>1134</ele>
        <time>2021-08-07T11:12:10.310Z</time>
      </trkpt>
      <trkpt lat="46.9147" lon="8.64988">
        <ele>1133</ele>
        <time>2021-08-07T11:12:11.310Z</time>
      </trkpt>
      <trkpt lat="46.91472" lon="8.64987">
        <ele>1133</ele>
        <time>2021-08-07T11:12:12.310Z</time>
      </trkpt>
      <trkpt lat="46.91474" lon="8.64986">
        <ele>1133</ele>
        <time>2021-08-07T11:12:13.310Z</time>
      </trkpt>
      <trkpt lat="46.91476" lon="8.64986">
        <ele>1133</ele>
        <time>2021-08-07T11:12:14.309Z</time>
      </trkpt>
      <trkpt lat="46.91477" lon="8.64987">
        <ele>1132</ele>
        <time>2021-08-07T11:12:15.310Z</time>
      </trkpt>
      <trkpt lat="46.91479" lon="8.64988">
        <ele>1132</ele>
        <time>2021-08-07T11:12:16.310Z</time>
      </trkpt>
      <trkpt lat="46.91481" lon="8.64989">
        <ele>1132</ele>
        <time>2021-08-07T11:12:17.309Z</time>
      </trkpt>
      <trkpt lat="46.91483" lon="8.64989">
        <ele>1132</ele>
        <time>2021-08-07T11:12:18.309Z</time>
      </trkpt>
      <trkpt lat="46.91484" lon="8.64989">
        <ele>1132</ele>
        <time>2021-08-07T11:12:19.310Z</time>
      </trkpt>
      <trkpt lat="46.91485" lon="8.64989">
        <ele>1132</ele>
        <time>2021-08-07T11:12:20.309Z</time>
      </trkpt>
      <trkpt lat="46.91487" lon="8.64989">
        <ele>1132</ele>
        <time>2021-08-07T11:12:21.310Z</time>
      </trkpt>
      <trkpt lat="46.91488" lon="8.64988">
        <ele>1132</ele>
        <time>2021-08-07T11:12:22.309Z</time>
      </trkpt>
      <trkpt lat="46.91489" lon="8.64988">
        <ele>1132</ele>
        <time>2021-08-07T11:12:23.310Z</time>
      </trkpt>
      <trkpt lat="46.91489" lon="8.64988">
        <ele>1132</ele>
        <time>2021-08-07T11:12:24.310Z</time>
      </trkpt>
      <trkpt lat="46.91489" lon="8.64988">
        <ele>1132</ele>
        <time>2021-08-07T11:12:25.310Z</time>
      </trkpt>
      <trkpt lat="46.9149" lon="8.64988">
        <ele>1132</ele>
        <time>2021-08-07T11:12:26.310Z</time>
      </trkpt>
      <trkpt lat="46.91491" lon="8.64989">
        <ele>1132</ele>
        <time>2021-08-07T11:12:27.310Z</time>
      </trkpt>
      <trkpt lat="46.91492" lon="8.64989">
        <ele>1131</ele>
        <time>2021-08-07T11:12:28.310Z</time>
      </trkpt>
      <trkpt lat="46.91493" lon="8.64987">
        <ele>1131</ele>
        <time>2021-08-07T11:12:29.310Z</time>
      </trkpt>
      <trkpt lat="46.91494" lon="8.64987">
        <ele>1131</ele>
        <time>2021-08-07T11:12:30.310Z</time>
      </trkpt>
      <trkpt lat="46.91495" lon="8.64986">
        <ele>1131</ele>
        <time>2021-08-07T11:12:31.309Z</time>
      </trkpt>
      <trkpt lat="46.91496" lon="8.64984">
        <ele>1131</ele>
        <time>2021-08-07T11:12:32.309Z</time>
      </trkpt>
      <trkpt lat="46.91497" lon="8.64984">
        <ele>1131</ele>
        <time>2021-08-07T11:12:33.309Z</time>
      </trkpt>
      <trkpt lat="46.91498" lon="8.64984">
        <ele>1131</ele>
        <time>2021-08-07T11:12:34.310Z</time>
      </trkpt>
      <trkpt lat="46.91499" lon="8.64984">
        <ele>1131</ele>
        <time>2021-08-07T11:12:35.309Z</time>
      </trkpt>
      <trkpt lat="46.915" lon="8.64984">
        <ele>1131</ele>
        <time>2021-08-07T11:12:36.310Z</time>
      </trkpt>
      <trkpt lat="46.91501" lon="8.64983">
        <ele>1131</ele>
        <time>2021-08-07T11:12:37.310Z</time>
      </trkpt>
      <trkpt lat="46.91502" lon="8.64982">
        <ele>1131</ele>
        <time>2021-08-07T11:12:38.310Z</time>
      </trkpt>
      <trkpt lat="46.91503" lon="8.64981">
        <ele>1131</ele>
        <time>2021-08-07T11:12:39.310Z</time>
      </trkpt>
      <trkpt lat="46.91503" lon="8.64981">
        <ele>1131</ele>
        <time>2021-08-07T11:12:40.310Z</time>
      </trkpt>
      <trkpt lat="46.91504" lon="8.6498">
        <ele>1131</ele>
        <time>2021-08-07T11:12:41.310Z</time>
      </trkpt>
      <trkpt lat="46.91504" lon="8.64979">
        <ele>1132</ele>
        <time>2021-08-07T11:12:42.309Z</time>
      </trkpt>
      <trkpt lat="46.91505" lon="8.64978">
        <ele>1132</ele>
        <time>2021-08-07T11:12:43.309Z</time>
      </trkpt>
      <trkpt lat="46.91507" lon="8.64976">
        <ele>1132</ele>
        <time>2021-08-07T11:12:44.310Z</time>
      </trkpt>
      <trkpt lat="46.91508" lon="8.64975">
        <ele>1132</ele>
        <time>2021-08-07T11:12:45.309Z</time>
      </trkpt>
      <trkpt lat="46.91509" lon="8.64973">
        <ele>1131</ele>
        <time>2021-08-07T11:12:46.310Z</time>
      </trkpt>
      <trkpt lat="46.9151" lon="8.64972">
        <ele>1131</ele>
        <time>2021-08-07T11:12:47.309Z</time>
      </trkpt>
      <trkpt lat="46.91511" lon="8.64971">
        <ele>1130</ele>
        <time>2021-08-07T11:12:48.309Z</time>
      </trkpt>
      <trkpt lat="46.91512" lon="8.64969">
        <ele>1130</ele>
        <time>2021-08-07T11:12:49.310Z</time>
      </trkpt>
      <trkpt lat="46.91513" lon="8.64969">
        <ele>1130</ele>
        <time>2021-08-07T11:12:50.310Z</time>
      </trkpt>
      <trkpt lat="46.91514" lon="8.64967">
        <ele>1129</ele>
        <time>2021-08-07T11:12:51.309Z</time>
      </trkpt>
      <trkpt lat="46.91514" lon="8.64966">
        <ele>1129</ele>
        <time>2021-08-07T11:12:52.309Z</time>
      </trkpt>
      <trkpt lat="46.91514" lon="8.64965">
        <ele>1129</ele>
        <time>2021-08-07T11:12:53.309Z</time>
      </trkpt>
      <trkpt lat="46.91515" lon="8.64965">
        <ele>1129</ele>
        <time>2021-08-07T11:12:54.309Z</time>
      </trkpt>
      <trkpt lat="46.91516" lon="8.64965">
        <ele>1128</ele>
        <time>2021-08-07T11:12:55.309Z</time>
      </trkpt>
      <trkpt lat="46.91516" lon="8.64965">
        <ele>1128</ele>
        <time>2021-08-07T11:12:56.310Z</time>
      </trkpt>
      <trkpt lat="46.91518" lon="8.64966">
        <ele>1128</ele>
        <time>2021-08-07T11:12:57.309Z</time>
      </trkpt>
      <trkpt lat="46.91519" lon="8.64967">
        <ele>1128</ele>
        <time>2021-08-07T11:12:58.309Z</time>
      </trkpt>
      <trkpt lat="46.91519" lon="8.64968">
        <ele>1127</ele>
        <time>2021-08-07T11:12:59.309Z</time>
      </trkpt>
      <trkpt lat="46.9152" lon="8.64969">
        <ele>1127</ele>
        <time>2021-08-07T11:13:00.309Z</time>
      </trkpt>
      <trkpt lat="46.91521" lon="8.6497">
        <ele>1127</ele>
        <time>2021-08-07T11:13:01.310Z</time>
      </trkpt>
      <trkpt lat="46.91522" lon="8.64971">
        <ele>1127</ele>
        <time>2021-08-07T11:13:02.309Z</time>
      </trkpt>
      <trkpt lat="46.91522" lon="8.64972">
        <ele>1127</ele>
        <time>2021-08-07T11:13:03.309Z</time>
      </trkpt>
      <trkpt lat="46.91523" lon="8.64973">
        <ele>1126</ele>
        <time>2021-08-07T11:13:04.309Z</time>
      </trkpt>
      <trkpt lat="46.91524" lon="8.64973">
        <ele>1126</ele>
        <time>2021-08-07T11:13:05.310Z</time>
      </trkpt>
      <trkpt lat="46.91524" lon="8.64973">
        <ele>1125</ele>
        <time>2021-08-07T11:13:06.310Z</time>
      </trkpt>
      <trkpt lat="46.91525" lon="8.64973">
        <ele>1125</ele>
        <time>2021-08-07T11:13:07.309Z</time>
      </trkpt>
      <trkpt lat="46.91525" lon="8.64973">
        <ele>1124</ele>
        <time>2021-08-07T11:13:08.309Z</time>
      </trkpt>
      <trkpt lat="46.91526" lon="8.64973">
        <ele>1123</ele>
        <time>2021-08-07T11:13:09.310Z</time>
      </trkpt>
      <trkpt lat="46.91527" lon="8.64977">
        <ele>1120</ele>
        <time>2021-08-07T11:13:10.310Z</time>
      </trkpt>
      <trkpt lat="46.91527" lon="8.64977">
        <ele>1119</ele>
        <time>2021-08-07T11:13:11.310Z</time>
      </trkpt>
      <trkpt lat="46.91527" lon="8.64977">
        <ele>1119</ele>
        <time>2021-08-07T11:13:12.311Z</time>
      </trkpt>
      <trkpt lat="46.91526" lon="8.64978">
        <ele>1119</ele>
        <time>2021-08-07T11:13:13.311Z</time>
      </trkpt>
      <trkpt lat="46.91526" lon="8.6498">
        <ele>1118</ele>
        <time>2021-08-07T11:13:14.310Z</time>
      </trkpt>
      <trkpt lat="46.91527" lon="8.64979">
        <ele>1118</ele>
        <time>2021-08-07T11:13:15.311Z</time>
      </trkpt>
      <trkpt lat="46.91527" lon="8.64979">
        <ele>1118</ele>
        <time>2021-08-07T11:13:16.311Z</time>
      </trkpt>
      <trkpt lat="46.91528" lon="8.6498">
        <ele>1117</ele>
        <time>2021-08-07T11:13:17.310Z</time>
      </trkpt>
      <trkpt lat="46.91529" lon="8.64979">
        <ele>1117</ele>
        <time>2021-08-07T11:13:18.311Z</time>
      </trkpt>
      <trkpt lat="46.91529" lon="8.64979">
        <ele>1117</ele>
        <time>2021-08-07T11:13:19.310Z</time>
      </trkpt>
      <trkpt lat="46.9153" lon="8.64978">
        <ele>1117</ele>
        <time>2021-08-07T11:13:20.310Z</time>
      </trkpt>
      <trkpt lat="46.9153" lon="8.64977">
        <ele>1116</ele>
        <time>2021-08-07T11:13:21.310Z</time>
      </trkpt>
      <trkpt lat="46.9153" lon="8.64976">
        <ele>1116</ele>
        <time>2021-08-07T11:13:22.311Z</time>
      </trkpt>
      <trkpt lat="46.9153" lon="8.64975">
        <ele>1116</ele>
        <time>2021-08-07T11:13:23.310Z</time>
      </trkpt>
      <trkpt lat="46.9153" lon="8.64975">
        <ele>1116</ele>
        <time>2021-08-07T11:13:24.311Z</time>
      </trkpt>
      <trkpt lat="46.91531" lon="8.64974">
        <ele>1115</ele>
        <time>2021-08-07T11:13:25.311Z</time>
      </trkpt>
      <trkpt lat="46.91531" lon="8.64973">
        <ele>1115</ele>
        <time>2021-08-07T11:13:26.311Z</time>
      </trkpt>
      <trkpt lat="46.91532" lon="8.64973">
        <ele>1115</ele>
        <time>2021-08-07T11:13:27.310Z</time>
      </trkpt>
      <trkpt lat="46.91533" lon="8.64972">
        <ele>1115</ele>
        <time>2021-08-07T11:13:28.310Z</time>
      </trkpt>
      <trkpt lat="46.91533" lon="8.64972">
        <ele>1115</ele>
        <time>2021-08-07T11:13:29.311Z</time>
      </trkpt>
      <trkpt lat="46.91534" lon="8.64972">
        <ele>1115</ele>
        <time>2021-08-07T11:13:30.310Z</time>
      </trkpt>
      <trkpt lat="46.91534" lon="8.64971">
        <ele>1115</ele>
        <time>2021-08-07T11:13:31.311Z</time>
      </trkpt>
      <trkpt lat="46.91534" lon="8.64971">
        <ele>1114</ele>
        <time>2021-08-07T11:13:32.310Z</time>
      </trkpt>
      <trkpt lat="46.91535" lon="8.6497">
        <ele>1114</ele>
        <time>2021-08-07T11:13:33.311Z</time>
      </trkpt>
      <trkpt lat="46.91536" lon="8.64969">
        <ele>1114</ele>
        <time>2021-08-07T11:13:34.310Z</time>
      </trkpt>
      <trkpt lat="46.91536" lon="8.64968">
        <ele>1114</ele>
        <time>2021-08-07T11:13:35.311Z</time>
      </trkpt>
      <trkpt lat="46.91537" lon="8.64967">
        <ele>1114</ele>
        <time>2021-08-07T11:13:36.310Z</time>
      </trkpt>
      <trkpt lat="46.91538" lon="8.64966">
        <ele>1114</ele>
        <time>2021-08-07T11:13:37.311Z</time>
      </trkpt>
      <trkpt lat="46.91539" lon="8.64966">
        <ele>1113</ele>
        <time>2021-08-07T11:13:38.311Z</time>
      </trkpt>
      <trkpt lat="46.9154" lon="8.64966">
        <ele>1113</ele>
        <time>2021-08-07T11:13:39.310Z</time>
      </trkpt>
      <trkpt lat="46.91541" lon="8.64965">
        <ele>1113</ele>
        <time>2021-08-07T11:13:40.310Z</time>
      </trkpt>
      <trkpt lat="46.91543" lon="8.64965">
        <ele>1112</ele>
        <time>2021-08-07T11:13:41.310Z</time>
      </trkpt>
      <trkpt lat="46.91544" lon="8.64963">
        <ele>1112</ele>
        <time>2021-08-07T11:13:42.311Z</time>
      </trkpt>
      <trkpt lat="46.91544" lon="8.64961">
        <ele>1111</ele>
        <time>2021-08-07T11:13:43.310Z</time>
      </trkpt>
      <trkpt lat="46.91544" lon="8.6496">
        <ele>1111</ele>
        <time>2021-08-07T11:13:44.311Z</time>
      </trkpt>
      <trkpt lat="46.91546" lon="8.64958">
        <ele>1111</ele>
        <time>2021-08-07T11:13:45.311Z</time>
      </trkpt>
      <trkpt lat="46.91546" lon="8.64957">
        <ele>1110</ele>
        <time>2021-08-07T11:13:46.310Z</time>
      </trkpt>
      <trkpt lat="46.91548" lon="8.64957">
        <ele>1110</ele>
        <time>2021-08-07T11:13:47.311Z</time>
      </trkpt>
      <trkpt lat="46.91548" lon="8.64957">
        <ele>1110</ele>
        <time>2021-08-07T11:13:48.311Z</time>
      </trkpt>
      <trkpt lat="46.91549" lon="8.64957">
        <ele>1110</ele>
        <time>2021-08-07T11:13:49.310Z</time>
      </trkpt>
      <trkpt lat="46.91551" lon="8.64955">
        <ele>1110</ele>
        <time>2021-08-07T11:13:50.310Z</time>
      </trkpt>
      <trkpt lat="46.91554" lon="8.64953">
        <ele>1110</ele>
        <time>2021-08-07T11:13:51.311Z</time>
      </trkpt>
      <trkpt lat="46.91556" lon="8.64953">
        <ele>1110</ele>
        <time>2021-08-07T11:13:52.311Z</time>
      </trkpt>
      <trkpt lat="46.91557" lon="8.64952">
        <ele>1110</ele>
        <time>2021-08-07T11:13:53.310Z</time>
      </trkpt>
      <trkpt lat="46.91559" lon="8.64951">
        <ele>1110</ele>
        <time>2021-08-07T11:13:54.310Z</time>
      </trkpt>
      <trkpt lat="46.91561" lon="8.6495">
        <ele>1110</ele>
        <time>2021-08-07T11:13:55.310Z</time>
      </trkpt>
      <trkpt lat="46.91561" lon="8.64948">
        <ele>1110</ele>
        <time>2021-08-07T11:13:56.311Z</time>
      </trkpt>
      <trkpt lat="46.91562" lon="8.64947">
        <ele>1110</ele>
        <time>2021-08-07T11:13:57.310Z</time>
      </trkpt>
      <trkpt lat="46.91562" lon="8.64946">
        <ele>1109</ele>
        <time>2021-08-07T11:13:58.311Z</time>
      </trkpt>
      <trkpt lat="46.91562" lon="8.64945">
        <ele>1109</ele>
        <time>2021-08-07T11:13:59.311Z</time>
      </trkpt>
      <trkpt lat="46.91563" lon="8.64944">
        <ele>1109</ele>
        <time>2021-08-07T11:14:00.311Z</time>
      </trkpt>
      <trkpt lat="46.91564" lon="8.64943">
        <ele>1108</ele>
        <time>2021-08-07T11:14:01.311Z</time>
      </trkpt>
      <trkpt lat="46.91564" lon="8.64943">
        <ele>1108</ele>
        <time>2021-08-07T11:14:02.310Z</time>
      </trkpt>
      <trkpt lat="46.91564" lon="8.64942">
        <ele>1107</ele>
        <time>2021-08-07T11:14:03.310Z</time>
      </trkpt>
      <trkpt lat="46.91565" lon="8.64942">
        <ele>1107</ele>
        <time>2021-08-07T11:14:04.311Z</time>
      </trkpt>
      <trkpt lat="46.91566" lon="8.64941">
        <ele>1107</ele>
        <time>2021-08-07T11:14:05.311Z</time>
      </trkpt>
      <trkpt lat="46.91567" lon="8.6494">
        <ele>1106</ele>
        <time>2021-08-07T11:14:06.310Z</time>
      </trkpt>
      <trkpt lat="46.91568" lon="8.6494">
        <ele>1106</ele>
        <time>2021-08-07T11:14:07.311Z</time>
      </trkpt>
      <trkpt lat="46.91569" lon="8.64939">
        <ele>1106</ele>
        <time>2021-08-07T11:14:08.310Z</time>
      </trkpt>
      <trkpt lat="46.9157" lon="8.64937">
        <ele>1105</ele>
        <time>2021-08-07T11:14:09.311Z</time>
      </trkpt>
      <trkpt lat="46.9157" lon="8.64937">
        <ele>1105</ele>
        <time>2021-08-07T11:14:10.310Z</time>
      </trkpt>
      <trkpt lat="46.91571" lon="8.64937">
        <ele>1105</ele>
        <time>2021-08-07T11:14:11.311Z</time>
      </trkpt>
      <trkpt lat="46.91572" lon="8.64936">
        <ele>1105</ele>
        <time>2021-08-07T11:14:12.311Z</time>
      </trkpt>
      <trkpt lat="46.91574" lon="8.64934">
        <ele>1105</ele>
        <time>2021-08-07T11:14:13.311Z</time>
      </trkpt>
      <trkpt lat="46.91575" lon="8.64932">
        <ele>1104</ele>
        <time>2021-08-07T11:14:14.311Z</time>
      </trkpt>
      <trkpt lat="46.91576" lon="8.64929">
        <ele>1104</ele>
        <time>2021-08-07T11:14:15.311Z</time>
      </trkpt>
      <trkpt lat="46.91577" lon="8.64926">
        <ele>1104</ele>
        <time>2021-08-07T11:14:16.311Z</time>
      </trkpt>
      <trkpt lat="46.91578" lon="8.64925">
        <ele>1103</ele>
        <time>2021-08-07T11:14:17.311Z</time>
      </trkpt>
      <trkpt lat="46.91579" lon="8.64924">
        <ele>1103</ele>
        <time>2021-08-07T11:14:18.310Z</time>
      </trkpt>
      <trkpt lat="46.91579" lon="8.64923">
        <ele>1103</ele>
        <time>2021-08-07T11:14:19.311Z</time>
      </trkpt>
      <trkpt lat="46.91581" lon="8.64922">
        <ele>1102</ele>
        <time>2021-08-07T11:14:20.311Z</time>
      </trkpt>
      <trkpt lat="46.91582" lon="8.6492">
        <ele>1102</ele>
        <time>2021-08-07T11:14:21.311Z</time>
      </trkpt>
      <trkpt lat="46.91583" lon="8.64918">
        <ele>1101</ele>
        <time>2021-08-07T11:14:22.311Z</time>
      </trkpt>
      <trkpt lat="46.91584" lon="8.64917">
        <ele>1101</ele>
        <time>2021-08-07T11:14:23.311Z</time>
      </trkpt>
      <trkpt lat="46.91585" lon="8.64916">
        <ele>1100</ele>
        <time>2021-08-07T11:14:24.311Z</time>
      </trkpt>
      <trkpt lat="46.91585" lon="8.64914">
        <ele>1100</ele>
        <time>2021-08-07T11:14:25.310Z</time>
      </trkpt>
      <trkpt lat="46.91585" lon="8.64912">
        <ele>1099</ele>
        <time>2021-08-07T11:14:26.311Z</time>
      </trkpt>
      <trkpt lat="46.91586" lon="8.6491">
        <ele>1099</ele>
        <time>2021-08-07T11:14:27.311Z</time>
      </trkpt>
      <trkpt lat="46.91588" lon="8.64909">
        <ele>1099</ele>
        <time>2021-08-07T11:14:28.310Z</time>
      </trkpt>
      <trkpt lat="46.91589" lon="8.64908">
        <ele>1098</ele>
        <time>2021-08-07T11:14:29.310Z</time>
      </trkpt>
      <trkpt lat="46.9159" lon="8.64907">
        <ele>1098</ele>
        <time>2021-08-07T11:14:30.311Z</time>
      </trkpt>
      <trkpt lat="46.91591" lon="8.64907">
        <ele>1098</ele>
        <time>2021-08-07T11:14:31.311Z</time>
      </trkpt>
      <trkpt lat="46.91592" lon="8.64906">
        <ele>1098</ele>
        <time>2021-08-07T11:14:32.311Z</time>
      </trkpt>
      <trkpt lat="46.91593" lon="8.64905">
        <ele>1098</ele>
        <time>2021-08-07T11:14:33.310Z</time>
      </trkpt>
      <trkpt lat="46.91594" lon="8.64904">
        <ele>1098</ele>
        <time>2021-08-07T11:14:34.310Z</time>
      </trkpt>
      <trkpt lat="46.91595" lon="8.64902">
        <ele>1098</ele>
        <time>2021-08-07T11:14:35.311Z</time>
      </trkpt>
      <trkpt lat="46.91595" lon="8.64901">
        <ele>1098</ele>
        <time>2021-08-07T11:14:36.310Z</time>
      </trkpt>
      <trkpt lat="46.91596" lon="8.64898">
        <ele>1098</ele>
        <time>2021-08-07T11:14:37.311Z</time>
      </trkpt>
      <trkpt lat="46.91597" lon="8.64897">
        <ele>1098</ele>
        <time>2021-08-07T11:14:38.310Z</time>
      </trkpt>
      <trkpt lat="46.91598" lon="8.64895">
        <ele>1098</ele>
        <time>2021-08-07T11:14:39.311Z</time>
      </trkpt>
      <trkpt lat="46.91598" lon="8.64893">
        <ele>1098</ele>
        <time>2021-08-07T11:14:40.311Z</time>
      </trkpt>
      <trkpt lat="46.91598" lon="8.64892">
        <ele>1098</ele>
        <time>2021-08-07T11:14:41.311Z</time>
      </trkpt>
      <trkpt lat="46.91598" lon="8.64891">
        <ele>1098</ele>
        <time>2021-08-07T11:14:42.311Z</time>
      </trkpt>
      <trkpt lat="46.91599" lon="8.64889">
        <ele>1097</ele>
        <time>2021-08-07T11:14:49.321Z</time>
      </trkpt>
      <trkpt lat="46.91599" lon="8.64888">
        <ele>1097</ele>
        <time>2021-08-07T11:14:50.322Z</time>
      </trkpt>
      <trkpt lat="46.91601" lon="8.64888">
        <ele>1097</ele>
        <time>2021-08-07T11:14:51.322Z</time>
      </trkpt>
      <trkpt lat="46.91602" lon="8.64888">
        <ele>1097</ele>
        <time>2021-08-07T11:14:52.322Z</time>
      </trkpt>
      <trkpt lat="46.91603" lon="8.64888">
        <ele>1097</ele>
        <time>2021-08-07T11:14:53.322Z</time>
      </trkpt>
      <trkpt lat="46.91604" lon="8.64888">
        <ele>1097</ele>
        <time>2021-08-07T11:14:54.322Z</time>
      </trkpt>
      <trkpt lat="46.91605" lon="8.64887">
        <ele>1097</ele>
        <time>2021-08-07T11:14:55.321Z</time>
      </trkpt>
      <trkpt lat="46.91606" lon="8.64887">
        <ele>1096</ele>
        <time>2021-08-07T11:14:56.322Z</time>
      </trkpt>
      <trkpt lat="46.91607" lon="8.64887">
        <ele>1096</ele>
        <time>2021-08-07T11:14:57.322Z</time>
      </trkpt>
      <trkpt lat="46.91608" lon="8.64886">
        <ele>1096</ele>
        <time>2021-08-07T11:14:58.321Z</time>
      </trkpt>
      <trkpt lat="46.91609" lon="8.64884">
        <ele>1096</ele>
        <time>2021-08-07T11:14:59.321Z</time>
      </trkpt>
      <trkpt lat="46.91611" lon="8.64883">
        <ele>1096</ele>
        <time>2021-08-07T11:15:00.322Z</time>
      </trkpt>
      <trkpt lat="46.91612" lon="8.64882">
        <ele>1096</ele>
        <time>2021-08-07T11:15:01.322Z</time>
      </trkpt>
      <trkpt lat="46.91613" lon="8.6488">
        <ele>1096</ele>
        <time>2021-08-07T11:15:02.322Z</time>
      </trkpt>
      <trkpt lat="46.91614" lon="8.6488">
        <ele>1096</ele>
        <time>2021-08-07T11:15:03.322Z</time>
      </trkpt>
      <trkpt lat="46.91615" lon="8.64879">
        <ele>1096</ele>
        <time>2021-08-07T11:15:04.321Z</time>
      </trkpt>
      <trkpt lat="46.91617" lon="8.64879">
        <ele>1096</ele>
        <time>2021-08-07T11:15:05.321Z</time>
      </trkpt>
      <trkpt lat="46.91619" lon="8.64878">
        <ele>1095</ele>
        <time>2021-08-07T11:15:06.321Z</time>
      </trkpt>
      <trkpt lat="46.9162" lon="8.64878">
        <ele>1095</ele>
        <time>2021-08-07T11:15:07.321Z</time>
      </trkpt>
      <trkpt lat="46.91621" lon="8.64876">
        <ele>1094</ele>
        <time>2021-08-07T11:15:08.321Z</time>
      </trkpt>
      <trkpt lat="46.91622" lon="8.64875">
        <ele>1094</ele>
        <time>2021-08-07T11:15:09.322Z</time>
      </trkpt>
      <trkpt lat="46.91623" lon="8.64874">
        <ele>1093</ele>
        <time>2021-08-07T11:15:10.322Z</time>
      </trkpt>
      <trkpt lat="46.91625" lon="8.64872">
        <ele>1093</ele>
        <time>2021-08-07T11:15:11.321Z</time>
      </trkpt>
      <trkpt lat="46.91626" lon="8.64871">
        <ele>1092</ele>
        <time>2021-08-07T11:15:12.322Z</time>
      </trkpt>
      <trkpt lat="46.91628" lon="8.6487">
        <ele>1092</ele>
        <time>2021-08-07T11:15:13.322Z</time>
      </trkpt>
      <trkpt lat="46.9163" lon="8.64869">
        <ele>1091</ele>
        <time>2021-08-07T11:15:14.322Z</time>
      </trkpt>
      <trkpt lat="46.91631" lon="8.64868">
        <ele>1091</ele>
        <time>2021-08-07T11:15:15.321Z</time>
      </trkpt>
      <trkpt lat="46.91632" lon="8.64867">
        <ele>1091</ele>
        <time>2021-08-07T11:15:16.322Z</time>
      </trkpt>
      <trkpt lat="46.91633" lon="8.64866">
        <ele>1090</ele>
        <time>2021-08-07T11:15:17.322Z</time>
      </trkpt>
      <trkpt lat="46.91634" lon="8.64866">
        <ele>1090</ele>
        <time>2021-08-07T11:15:18.321Z</time>
      </trkpt>
      <trkpt lat="46.91635" lon="8.64865">
        <ele>1090</ele>
        <time>2021-08-07T11:15:19.321Z</time>
      </trkpt>
      <trkpt lat="46.91635" lon="8.64864">
        <ele>1089</ele>
        <time>2021-08-07T11:15:24.454Z</time>
      </trkpt>
      <trkpt lat="46.91635" lon="8.64862">
        <ele>1088</ele>
        <time>2021-08-07T11:15:25.455Z</time>
      </trkpt>
      <trkpt lat="46.91636" lon="8.6486">
        <ele>1088</ele>
        <time>2021-08-07T11:15:26.455Z</time>
      </trkpt>
      <trkpt lat="46.91637" lon="8.64859">
        <ele>1087</ele>
        <time>2021-08-07T11:15:27.455Z</time>
      </trkpt>
      <trkpt lat="46.91638" lon="8.64858">
        <ele>1087</ele>
        <time>2021-08-07T11:15:28.454Z</time>
      </trkpt>
      <trkpt lat="46.91638" lon="8.64857">
        <ele>1087</ele>
        <time>2021-08-07T11:15:29.455Z</time>
      </trkpt>
      <trkpt lat="46.91639" lon="8.64856">
        <ele>1087</ele>
        <time>2021-08-07T11:15:30.455Z</time>
      </trkpt>
      <trkpt lat="46.9164" lon="8.64855">
        <ele>1087</ele>
        <time>2021-08-07T11:15:31.454Z</time>
      </trkpt>
      <trkpt lat="46.9164" lon="8.64855">
        <ele>1087</ele>
        <time>2021-08-07T11:15:32.455Z</time>
      </trkpt>
      <trkpt lat="46.91641" lon="8.64854">
        <ele>1086</ele>
        <time>2021-08-07T11:15:33.455Z</time>
      </trkpt>
      <trkpt lat="46.91641" lon="8.64855">
        <ele>1086</ele>
        <time>2021-08-07T11:15:34.455Z</time>
      </trkpt>
      <trkpt lat="46.91642" lon="8.64855">
        <ele>1086</ele>
        <time>2021-08-07T11:15:35.455Z</time>
      </trkpt>
      <trkpt lat="46.91641" lon="8.64855">
        <ele>1086</ele>
        <time>2021-08-07T11:15:36.455Z</time>
      </trkpt>
      <trkpt lat="46.91641" lon="8.64856">
        <ele>1086</ele>
        <time>2021-08-07T11:15:37.455Z</time>
      </trkpt>
      <trkpt lat="46.91641" lon="8.64851">
        <ele>1084</ele>
        <time>2021-08-07T11:15:38.455Z</time>
      </trkpt>
      <trkpt lat="46.91642" lon="8.6485">
        <ele>1083</ele>
        <time>2021-08-07T11:15:39.456Z</time>
      </trkpt>
      <trkpt lat="46.91643" lon="8.6485">
        <ele>1083</ele>
        <time>2021-08-07T11:15:40.455Z</time>
      </trkpt>
      <trkpt lat="46.91644" lon="8.6485">
        <ele>1083</ele>
        <time>2021-08-07T11:15:41.456Z</time>
      </trkpt>
      <trkpt lat="46.91644" lon="8.6485">
        <ele>1083</ele>
        <time>2021-08-07T11:15:42.456Z</time>
      </trkpt>
      <trkpt lat="46.91645" lon="8.64849">
        <ele>1083</ele>
        <time>2021-08-07T11:15:43.456Z</time>
      </trkpt>
      <trkpt lat="46.91645" lon="8.64849">
        <ele>1082</ele>
        <time>2021-08-07T11:15:44.455Z</time>
      </trkpt>
      <trkpt lat="46.91645" lon="8.64849">
        <ele>1082</ele>
        <time>2021-08-07T11:15:45.455Z</time>
      </trkpt>
      <trkpt lat="46.91646" lon="8.64848">
        <ele>1082</ele>
        <time>2021-08-07T11:15:46.455Z</time>
      </trkpt>
      <trkpt lat="46.91648" lon="8.64847">
        <ele>1083</ele>
        <time>2021-08-07T11:15:47.456Z</time>
      </trkpt>
      <trkpt lat="46.91648" lon="8.64845">
        <ele>1083</ele>
        <time>2021-08-07T11:15:48.456Z</time>
      </trkpt>
      <trkpt lat="46.91649" lon="8.64844">
        <ele>1083</ele>
        <time>2021-08-07T11:15:49.456Z</time>
      </trkpt>
      <trkpt lat="46.91649" lon="8.64843">
        <ele>1083</ele>
        <time>2021-08-07T11:15:50.455Z</time>
      </trkpt>
      <trkpt lat="46.9165" lon="8.64842">
        <ele>1083</ele>
        <time>2021-08-07T11:15:51.456Z</time>
      </trkpt>
      <trkpt lat="46.9165" lon="8.64841">
        <ele>1084</ele>
        <time>2021-08-07T11:15:52.456Z</time>
      </trkpt>
      <trkpt lat="46.91651" lon="8.64841">
        <ele>1084</ele>
        <time>2021-08-07T11:15:53.456Z</time>
      </trkpt>
      <trkpt lat="46.91653" lon="8.64842">
        <ele>1084</ele>
        <time>2021-08-07T11:15:54.456Z</time>
      </trkpt>
      <trkpt lat="46.91655" lon="8.64841">
        <ele>1084</ele>
        <time>2021-08-07T11:15:55.456Z</time>
      </trkpt>
      <trkpt lat="46.91656" lon="8.64841">
        <ele>1084</ele>
        <time>2021-08-07T11:15:56.456Z</time>
      </trkpt>
      <trkpt lat="46.91657" lon="8.6484">
        <ele>1084</ele>
        <time>2021-08-07T11:15:57.455Z</time>
      </trkpt>
      <trkpt lat="46.91657" lon="8.64839">
        <ele>1084</ele>
        <time>2021-08-07T11:15:58.455Z</time>
      </trkpt>
      <trkpt lat="46.91658" lon="8.64837">
        <ele>1084</ele>
        <time>2021-08-07T11:15:59.455Z</time>
      </trkpt>
      <trkpt lat="46.91658" lon="8.64836">
        <ele>1084</ele>
        <time>2021-08-07T11:16:00.456Z</time>
      </trkpt>
      <trkpt lat="46.91657" lon="8.64834">
        <ele>1084</ele>
        <time>2021-08-07T11:16:01.456Z</time>
      </trkpt>
      <trkpt lat="46.91657" lon="8.64832">
        <ele>1083</ele>
        <time>2021-08-07T11:16:02.456Z</time>
      </trkpt>
      <trkpt lat="46.91655" lon="8.64832">
        <ele>1082</ele>
        <time>2021-08-07T11:16:03.455Z</time>
      </trkpt>
      <trkpt lat="46.91655" lon="8.64831">
        <ele>1082</ele>
        <time>2021-08-07T11:16:04.456Z</time>
      </trkpt>
      <trkpt lat="46.91654" lon="8.64831">
        <ele>1081</ele>
        <time>2021-08-07T11:16:05.456Z</time>
      </trkpt>
      <trkpt lat="46.91652" lon="8.6483">
        <ele>1081</ele>
        <time>2021-08-07T11:16:06.456Z</time>
      </trkpt>
      <trkpt lat="46.91652" lon="8.64829">
        <ele>1080</ele>
        <time>2021-08-07T11:16:07.456Z</time>
      </trkpt>
      <trkpt lat="46.91651" lon="8.64828">
        <ele>1080</ele>
        <time>2021-08-07T11:16:08.456Z</time>
      </trkpt>
      <trkpt lat="46.91651" lon="8.64828">
        <ele>1080</ele>
        <time>2021-08-07T11:16:09.456Z</time>
      </trkpt>
      <trkpt lat="46.9165" lon="8.64828">
        <ele>1079</ele>
        <time>2021-08-07T11:16:10.455Z</time>
      </trkpt>
      <trkpt lat="46.91649" lon="8.64828">
        <ele>1079</ele>
        <time>2021-08-07T11:16:11.455Z</time>
      </trkpt>
      <trkpt lat="46.91648" lon="8.64828">
        <ele>1079</ele>
        <time>2021-08-07T11:16:12.456Z</time>
      </trkpt>
      <trkpt lat="46.91647" lon="8.64828">
        <ele>1079</ele>
        <time>2021-08-07T11:16:13.456Z</time>
      </trkpt>
      <trkpt lat="46.91646" lon="8.64829">
        <ele>1079</ele>
        <time>2021-08-07T11:16:14.456Z</time>
      </trkpt>
      <trkpt lat="46.91645" lon="8.64829">
        <ele>1079</ele>
        <time>2021-08-07T11:16:15.456Z</time>
      </trkpt>
      <trkpt lat="46.91644" lon="8.64829">
        <ele>1079</ele>
        <time>2021-08-07T11:16:16.455Z</time>
      </trkpt>
      <trkpt lat="46.91643" lon="8.6483">
        <ele>1078</ele>
        <time>2021-08-07T11:16:17.456Z</time>
      </trkpt>
      <trkpt lat="46.91642" lon="8.64831">
        <ele>1078</ele>
        <time>2021-08-07T11:16:18.456Z</time>
      </trkpt>
      <trkpt lat="46.91641" lon="8.64832">
        <ele>1078</ele>
        <time>2021-08-07T11:16:19.456Z</time>
      </trkpt>
      <trkpt lat="46.9164" lon="8.64831">
        <ele>1078</ele>
        <time>2021-08-07T11:16:20.455Z</time>
      </trkpt>
      <trkpt lat="46.91638" lon="8.64832">
        <ele>1078</ele>
        <time>2021-08-07T11:16:21.456Z</time>
      </trkpt>
      <trkpt lat="46.91636" lon="8.64833">
        <ele>1077</ele>
        <time>2021-08-07T11:16:22.456Z</time>
      </trkpt>
      <trkpt lat="46.91634" lon="8.64833">
        <ele>1077</ele>
        <time>2021-08-07T11:16:23.456Z</time>
      </trkpt>
      <trkpt lat="46.91633" lon="8.64834">
        <ele>1077</ele>
        <time>2021-08-07T11:16:24.455Z</time>
      </trkpt>
      <trkpt lat="46.91631" lon="8.64834">
        <ele>1077</ele>
        <time>2021-08-07T11:16:25.456Z</time>
      </trkpt>
      <trkpt lat="46.91629" lon="8.64835">
        <ele>1077</ele>
        <time>2021-08-07T11:16:26.456Z</time>
      </trkpt>
      <trkpt lat="46.91628" lon="8.64836">
        <ele>1077</ele>
        <time>2021-08-07T11:16:27.456Z</time>
      </trkpt>
      <trkpt lat="46.91627" lon="8.64837">
        <ele>1076</ele>
        <time>2021-08-07T11:16:28.455Z</time>
      </trkpt>
      <trkpt lat="46.91626" lon="8.64838">
        <ele>1076</ele>
        <time>2021-08-07T11:16:29.456Z</time>
      </trkpt>
      <trkpt lat="46.91625" lon="8.64839">
        <ele>1076</ele>
        <time>2021-08-07T11:16:30.455Z</time>
      </trkpt>
      <trkpt lat="46.91624" lon="8.64839">
        <ele>1075</ele>
        <time>2021-08-07T11:16:31.455Z</time>
      </trkpt>
      <trkpt lat="46.91623" lon="8.6484">
        <ele>1075</ele>
        <time>2021-08-07T11:16:32.456Z</time>
      </trkpt>
      <trkpt lat="46.91623" lon="8.64841">
        <ele>1075</ele>
        <time>2021-08-07T11:16:33.456Z</time>
      </trkpt>
      <trkpt lat="46.91622" lon="8.64842">
        <ele>1074</ele>
        <time>2021-08-07T11:16:34.456Z</time>
      </trkpt>
      <trkpt lat="46.91621" lon="8.64843">
        <ele>1074</ele>
        <time>2021-08-07T11:16:35.455Z</time>
      </trkpt>
      <trkpt lat="46.91621" lon="8.64844">
        <ele>1073</ele>
        <time>2021-08-07T11:16:36.456Z</time>
      </trkpt>
      <trkpt lat="46.9162" lon="8.64846">
        <ele>1073</ele>
        <time>2021-08-07T11:16:37.455Z</time>
      </trkpt>
      <trkpt lat="46.91619" lon="8.64847">
        <ele>1072</ele>
        <time>2021-08-07T11:16:38.456Z</time>
      </trkpt>
      <trkpt lat="46.91618" lon="8.64847">
        <ele>1072</ele>
        <time>2021-08-07T11:16:39.455Z</time>
      </trkpt>
      <trkpt lat="46.91617" lon="8.64848">
        <ele>1071</ele>
        <time>2021-08-07T11:16:40.455Z</time>
      </trkpt>
      <trkpt lat="46.91615" lon="8.64848">
        <ele>1071</ele>
        <time>2021-08-07T11:16:41.455Z</time>
      </trkpt>
      <trkpt lat="46.91614" lon="8.64848">
        <ele>1071</ele>
        <time>2021-08-07T11:16:42.456Z</time>
      </trkpt>
      <trkpt lat="46.91612" lon="8.64848">
        <ele>1071</ele>
        <time>2021-08-07T11:16:43.456Z</time>
      </trkpt>
      <trkpt lat="46.9161" lon="8.64849">
        <ele>1071</ele>
        <time>2021-08-07T11:16:44.456Z</time>
      </trkpt>
      <trkpt lat="46.91609" lon="8.64848">
        <ele>1071</ele>
        <time>2021-08-07T11:16:45.456Z</time>
      </trkpt>
      <trkpt lat="46.91608" lon="8.64846">
        <ele>1071</ele>
        <time>2021-08-07T11:16:46.456Z</time>
      </trkpt>
      <trkpt lat="46.91607" lon="8.64845">
        <ele>1071</ele>
        <time>2021-08-07T11:16:47.456Z</time>
      </trkpt>
      <trkpt lat="46.91605" lon="8.64845">
        <ele>1071</ele>
        <time>2021-08-07T11:16:48.455Z</time>
      </trkpt>
      <trkpt lat="46.91604" lon="8.64845">
        <ele>1071</ele>
        <time>2021-08-07T11:16:49.456Z</time>
      </trkpt>
      <trkpt lat="46.91603" lon="8.64844">
        <ele>1071</ele>
        <time>2021-08-07T11:16:50.455Z</time>
      </trkpt>
      <trkpt lat="46.91602" lon="8.64843">
        <ele>1071</ele>
        <time>2021-08-07T11:16:51.456Z</time>
      </trkpt>
      <trkpt lat="46.91601" lon="8.64842">
        <ele>1071</ele>
        <time>2021-08-07T11:16:52.455Z</time>
      </trkpt>
      <trkpt lat="46.916" lon="8.64841">
        <ele>1071</ele>
        <time>2021-08-07T11:16:53.456Z</time>
      </trkpt>
      <trkpt lat="46.916" lon="8.6484">
        <ele>1071</ele>
        <time>2021-08-07T11:16:54.455Z</time>
      </trkpt>
      <trkpt lat="46.91599" lon="8.64839">
        <ele>1071</ele>
        <time>2021-08-07T11:16:55.456Z</time>
      </trkpt>
      <trkpt lat="46.91598" lon="8.64838">
        <ele>1071</ele>
        <time>2021-08-07T11:16:56.456Z</time>
      </trkpt>
      <trkpt lat="46.91597" lon="8.64838">
        <ele>1071</ele>
        <time>2021-08-07T11:16:57.455Z</time>
      </trkpt>
      <trkpt lat="46.91596" lon="8.64837">
        <ele>1071</ele>
        <time>2021-08-07T11:16:58.456Z</time>
      </trkpt>
      <trkpt lat="46.91595" lon="8.64835">
        <ele>1071</ele>
        <time>2021-08-07T11:16:59.455Z</time>
      </trkpt>
      <trkpt lat="46.91595" lon="8.64833">
        <ele>1071</ele>
        <time>2021-08-07T11:17:00.456Z</time>
      </trkpt>
      <trkpt lat="46.91594" lon="8.64832">
        <ele>1071</ele>
        <time>2021-08-07T11:17:01.456Z</time>
      </trkpt>
      <trkpt lat="46.91592" lon="8.64831">
        <ele>1070</ele>
        <time>2021-08-07T11:17:02.456Z</time>
      </trkpt>
      <trkpt lat="46.91591" lon="8.6483">
        <ele>1070</ele>
        <time>2021-08-07T11:17:03.456Z</time>
      </trkpt>
      <trkpt lat="46.9159" lon="8.64829">
        <ele>1070</ele>
        <time>2021-08-07T11:17:04.455Z</time>
      </trkpt>
      <trkpt lat="46.91589" lon="8.64827">
        <ele>1070</ele>
        <time>2021-08-07T11:17:05.456Z</time>
      </trkpt>
      <trkpt lat="46.91588" lon="8.64827">
        <ele>1071</ele>
        <time>2021-08-07T11:17:06.456Z</time>
      </trkpt>
      <trkpt lat="46.91588" lon="8.64825">
        <ele>1071</ele>
        <time>2021-08-07T11:17:07.455Z</time>
      </trkpt>
      <trkpt lat="46.91587" lon="8.64825">
        <ele>1071</ele>
        <time>2021-08-07T11:17:08.456Z</time>
      </trkpt>
      <trkpt lat="46.91586" lon="8.64824">
        <ele>1071</ele>
        <time>2021-08-07T11:17:09.455Z</time>
      </trkpt>
      <trkpt lat="46.91585" lon="8.64824">
        <ele>1071</ele>
        <time>2021-08-07T11:17:10.455Z</time>
      </trkpt>
      <trkpt lat="46.91584" lon="8.64823">
        <ele>1071</ele>
        <time>2021-08-07T11:17:11.456Z</time>
      </trkpt>
      <trkpt lat="46.91583" lon="8.64823">
        <ele>1071</ele>
        <time>2021-08-07T11:17:12.456Z</time>
      </trkpt>
      <trkpt lat="46.91581" lon="8.64822">
        <ele>1071</ele>
        <time>2021-08-07T11:17:13.455Z</time>
      </trkpt>
      <trkpt lat="46.9158" lon="8.6482">
        <ele>1071</ele>
        <time>2021-08-07T11:17:14.455Z</time>
      </trkpt>
      <trkpt lat="46.91579" lon="8.6482">
        <ele>1070</ele>
        <time>2021-08-07T11:17:15.455Z</time>
      </trkpt>
      <trkpt lat="46.91578" lon="8.6482">
        <ele>1070</ele>
        <time>2021-08-07T11:17:16.456Z</time>
      </trkpt>
      <trkpt lat="46.91576" lon="8.6482">
        <ele>1069</ele>
        <time>2021-08-07T11:17:17.456Z</time>
      </trkpt>
      <trkpt lat="46.91574" lon="8.64819">
        <ele>1068</ele>
        <time>2021-08-07T11:17:18.456Z</time>
      </trkpt>
      <trkpt lat="46.91573" lon="8.64819">
        <ele>1068</ele>
        <time>2021-08-07T11:17:19.456Z</time>
      </trkpt>
      <trkpt lat="46.91572" lon="8.64818">
        <ele>1068</ele>
        <time>2021-08-07T11:17:20.456Z</time>
      </trkpt>
      <trkpt lat="46.91571" lon="8.64818">
        <ele>1067</ele>
        <time>2021-08-07T11:17:21.456Z</time>
      </trkpt>
      <trkpt lat="46.9157" lon="8.64818">
        <ele>1067</ele>
        <time>2021-08-07T11:17:22.456Z</time>
      </trkpt>
      <trkpt lat="46.91569" lon="8.64818">
        <ele>1067</ele>
        <time>2021-08-07T11:17:23.456Z</time>
      </trkpt>
      <trkpt lat="46.91568" lon="8.64817">
        <ele>1067</ele>
        <time>2021-08-07T11:17:24.455Z</time>
      </trkpt>
      <trkpt lat="46.91568" lon="8.64817">
        <ele>1066</ele>
        <time>2021-08-07T11:17:25.455Z</time>
      </trkpt>
      <trkpt lat="46.91567" lon="8.64816">
        <ele>1066</ele>
        <time>2021-08-07T11:17:26.455Z</time>
      </trkpt>
      <trkpt lat="46.91566" lon="8.64815">
        <ele>1065</ele>
        <time>2021-08-07T11:17:27.455Z</time>
      </trkpt>
      <trkpt lat="46.91565" lon="8.64815">
        <ele>1064</ele>
        <time>2021-08-07T11:17:28.456Z</time>
      </trkpt>
      <trkpt lat="46.91564" lon="8.64813">
        <ele>1064</ele>
        <time>2021-08-07T11:17:29.455Z</time>
      </trkpt>
      <trkpt lat="46.91563" lon="8.64813">
        <ele>1063</ele>
        <time>2021-08-07T11:17:30.455Z</time>
      </trkpt>
      <trkpt lat="46.91562" lon="8.64813">
        <ele>1063</ele>
        <time>2021-08-07T11:17:34.606Z</time>
      </trkpt>
      <trkpt lat="46.91561" lon="8.64813">
        <ele>1063</ele>
        <time>2021-08-07T11:17:35.606Z</time>
      </trkpt>
      <trkpt lat="46.91559" lon="8.64811">
        <ele>1063</ele>
        <time>2021-08-07T11:17:36.605Z</time>
      </trkpt>
      <trkpt lat="46.91558" lon="8.6481">
        <ele>1063</ele>
        <time>2021-08-07T11:17:37.606Z</time>
      </trkpt>
      <trkpt lat="46.91557" lon="8.64809">
        <ele>1064</ele>
        <time>2021-08-07T11:17:38.605Z</time>
      </trkpt>
      <trkpt lat="46.91556" lon="8.64808">
        <ele>1064</ele>
        <time>2021-08-07T11:17:39.605Z</time>
      </trkpt>
      <trkpt lat="46.91554" lon="8.64808">
        <ele>1064</ele>
        <time>2021-08-07T11:17:40.606Z</time>
      </trkpt>
      <trkpt lat="46.91553" lon="8.64809">
        <ele>1064</ele>
        <time>2021-08-07T11:17:41.605Z</time>
      </trkpt>
      <trkpt lat="46.91552" lon="8.64809">
        <ele>1064</ele>
        <time>2021-08-07T11:17:42.606Z</time>
      </trkpt>
      <trkpt lat="46.91551" lon="8.6481">
        <ele>1064</ele>
        <time>2021-08-07T11:17:43.606Z</time>
      </trkpt>
      <trkpt lat="46.9155" lon="8.6481">
        <ele>1064</ele>
        <time>2021-08-07T11:17:44.606Z</time>
      </trkpt>
      <trkpt lat="46.91549" lon="8.64809">
        <ele>1064</ele>
        <time>2021-08-07T11:17:45.606Z</time>
      </trkpt>
      <trkpt lat="46.91548" lon="8.64808">
        <ele>1064</ele>
        <time>2021-08-07T11:17:50.705Z</time>
      </trkpt>
      <trkpt lat="46.91547" lon="8.64808">
        <ele>1064</ele>
        <time>2021-08-07T11:17:51.705Z</time>
      </trkpt>
      <trkpt lat="46.91546" lon="8.64808">
        <ele>1063</ele>
        <time>2021-08-07T11:17:53.447Z</time>
      </trkpt>
      <trkpt lat="46.91545" lon="8.64807">
        <ele>1063</ele>
        <time>2021-08-07T11:17:54.448Z</time>
      </trkpt>
      <trkpt lat="46.91543" lon="8.64806">
        <ele>1063</ele>
        <time>2021-08-07T11:17:55.448Z</time>
      </trkpt>
      <trkpt lat="46.91542" lon="8.64805">
        <ele>1063</ele>
        <time>2021-08-07T11:17:56.447Z</time>
      </trkpt>
      <trkpt lat="46.91542" lon="8.64804">
        <ele>1063</ele>
        <time>2021-08-07T11:17:57.448Z</time>
      </trkpt>
      <trkpt lat="46.91541" lon="8.64803">
        <ele>1063</ele>
        <time>2021-08-07T11:17:58.447Z</time>
      </trkpt>
      <trkpt lat="46.9154" lon="8.64802">
        <ele>1063</ele>
        <time>2021-08-07T11:17:59.447Z</time>
      </trkpt>
      <trkpt lat="46.91539" lon="8.64801">
        <ele>1063</ele>
        <time>2021-08-07T11:18:00.448Z</time>
      </trkpt>
      <trkpt lat="46.91538" lon="8.64801">
        <ele>1062</ele>
        <time>2021-08-07T11:18:01.448Z</time>
      </trkpt>
      <trkpt lat="46.91537" lon="8.64801">
        <ele>1062</ele>
        <time>2021-08-07T11:18:02.447Z</time>
      </trkpt>
      <trkpt lat="46.91536" lon="8.64801">
        <ele>1062</ele>
        <time>2021-08-07T11:18:03.447Z</time>
      </trkpt>
      <trkpt lat="46.91535" lon="8.648">
        <ele>1062</ele>
        <time>2021-08-07T11:18:04.448Z</time>
      </trkpt>
      <trkpt lat="46.91534" lon="8.64798">
        <ele>1062</ele>
        <time>2021-08-07T11:18:05.447Z</time>
      </trkpt>
      <trkpt lat="46.91533" lon="8.64798">
        <ele>1062</ele>
        <time>2021-08-07T11:18:06.448Z</time>
      </trkpt>
      <trkpt lat="46.91533" lon="8.64797">
        <ele>1061</ele>
        <time>2021-08-07T11:18:07.448Z</time>
      </trkpt>
      <trkpt lat="46.91533" lon="8.64796">
        <ele>1061</ele>
        <time>2021-08-07T11:18:08.448Z</time>
      </trkpt>
      <trkpt lat="46.91532" lon="8.64795">
        <ele>1061</ele>
        <time>2021-08-07T11:18:09.448Z</time>
      </trkpt>
      <trkpt lat="46.91531" lon="8.64794">
        <ele>1061</ele>
        <time>2021-08-07T11:18:10.448Z</time>
      </trkpt>
      <trkpt lat="46.91529" lon="8.64793">
        <ele>1060</ele>
        <time>2021-08-07T11:18:11.448Z</time>
      </trkpt>
      <trkpt lat="46.91527" lon="8.64792">
        <ele>1060</ele>
        <time>2021-08-07T11:18:12.447Z</time>
      </trkpt>
      <trkpt lat="46.91526" lon="8.64791">
        <ele>1060</ele>
        <time>2021-08-07T11:18:13.448Z</time>
      </trkpt>
      <trkpt lat="46.91525" lon="8.6479">
        <ele>1059</ele>
        <time>2021-08-07T11:18:14.448Z</time>
      </trkpt>
      <trkpt lat="46.91524" lon="8.64789">
        <ele>1059</ele>
        <time>2021-08-07T11:18:15.447Z</time>
      </trkpt>
      <trkpt lat="46.91524" lon="8.64788">
        <ele>1058</ele>
        <time>2021-08-07T11:18:16.447Z</time>
      </trkpt>
      <trkpt lat="46.91523" lon="8.64787">
        <ele>1058</ele>
        <time>2021-08-07T11:18:17.447Z</time>
      </trkpt>
      <trkpt lat="46.91522" lon="8.64786">
        <ele>1057</ele>
        <time>2021-08-07T11:18:18.448Z</time>
      </trkpt>
      <trkpt lat="46.91521" lon="8.64785">
        <ele>1057</ele>
        <time>2021-08-07T11:18:19.447Z</time>
      </trkpt>
      <trkpt lat="46.9152" lon="8.64784">
        <ele>1057</ele>
        <time>2021-08-07T11:18:20.448Z</time>
      </trkpt>
      <trkpt lat="46.91519" lon="8.64782">
        <ele>1057</ele>
        <time>2021-08-07T11:18:21.447Z</time>
      </trkpt>
      <trkpt lat="46.91518" lon="8.6478">
        <ele>1056</ele>
        <time>2021-08-07T11:18:22.447Z</time>
      </trkpt>
      <trkpt lat="46.91516" lon="8.64779">
        <ele>1056</ele>
        <time>2021-08-07T11:18:23.448Z</time>
      </trkpt>
      <trkpt lat="46.91515" lon="8.64778">
        <ele>1056</ele>
        <time>2021-08-07T11:18:24.447Z</time>
      </trkpt>
      <trkpt lat="46.91513" lon="8.64777">
        <ele>1055</ele>
        <time>2021-08-07T11:18:25.447Z</time>
      </trkpt>
      <trkpt lat="46.91513" lon="8.64775">
        <ele>1055</ele>
        <time>2021-08-07T11:18:26.447Z</time>
      </trkpt>
      <trkpt lat="46.91512" lon="8.64774">
        <ele>1055</ele>
        <time>2021-08-07T11:18:27.447Z</time>
      </trkpt>
      <trkpt lat="46.91511" lon="8.64772">
        <ele>1055</ele>
        <time>2021-08-07T11:18:28.447Z</time>
      </trkpt>
      <trkpt lat="46.91511" lon="8.64769">
        <ele>1055</ele>
        <time>2021-08-07T11:18:29.447Z</time>
      </trkpt>
      <trkpt lat="46.91511" lon="8.64767">
        <ele>1055</ele>
        <time>2021-08-07T11:18:30.447Z</time>
      </trkpt>
      <trkpt lat="46.9151" lon="8.64765">
        <ele>1054</ele>
        <time>2021-08-07T11:18:31.448Z</time>
      </trkpt>
      <trkpt lat="46.91509" lon="8.64763">
        <ele>1054</ele>
        <time>2021-08-07T11:18:32.448Z</time>
      </trkpt>
      <trkpt lat="46.91508" lon="8.6476">
        <ele>1054</ele>
        <time>2021-08-07T11:18:33.447Z</time>
      </trkpt>
      <trkpt lat="46.91507" lon="8.64758">
        <ele>1054</ele>
        <time>2021-08-07T11:18:34.447Z</time>
      </trkpt>
      <trkpt lat="46.91506" lon="8.64757">
        <ele>1054</ele>
        <time>2021-08-07T11:18:35.447Z</time>
      </trkpt>
      <trkpt lat="46.91505" lon="8.64757">
        <ele>1053</ele>
        <time>2021-08-07T11:18:36.447Z</time>
      </trkpt>
      <trkpt lat="46.91504" lon="8.64756">
        <ele>1053</ele>
        <time>2021-08-07T11:18:37.447Z</time>
      </trkpt>
      <trkpt lat="46.91502" lon="8.64756">
        <ele>1053</ele>
        <time>2021-08-07T11:18:38.447Z</time>
      </trkpt>
      <trkpt lat="46.91501" lon="8.64755">
        <ele>1053</ele>
        <time>2021-08-07T11:18:39.447Z</time>
      </trkpt>
      <trkpt lat="46.91501" lon="8.64755">
        <ele>1053</ele>
        <time>2021-08-07T11:18:40.447Z</time>
      </trkpt>
      <trkpt lat="46.915" lon="8.64753">
        <ele>1053</ele>
        <time>2021-08-07T11:18:41.447Z</time>
      </trkpt>
      <trkpt lat="46.915" lon="8.64752">
        <ele>1052</ele>
        <time>2021-08-07T11:18:42.447Z</time>
      </trkpt>
      <trkpt lat="46.91499" lon="8.64751">
        <ele>1052</ele>
        <time>2021-08-07T11:18:43.447Z</time>
      </trkpt>
      <trkpt lat="46.91499" lon="8.6475">
        <ele>1053</ele>
        <time>2021-08-07T11:18:44.447Z</time>
      </trkpt>
      <trkpt lat="46.91498" lon="8.64749">
        <ele>1053</ele>
        <time>2021-08-07T11:18:45.447Z</time>
      </trkpt>
      <trkpt lat="46.91498" lon="8.64748">
        <ele>1053</ele>
        <time>2021-08-07T11:18:46.447Z</time>
      </trkpt>
      <trkpt lat="46.91497" lon="8.64748">
        <ele>1053</ele>
        <time>2021-08-07T11:18:47.447Z</time>
      </trkpt>
      <trkpt lat="46.91497" lon="8.64747">
        <ele>1053</ele>
        <time>2021-08-07T11:18:48.447Z</time>
      </trkpt>
      <trkpt lat="46.91496" lon="8.64746">
        <ele>1054</ele>
        <time>2021-08-07T11:18:49.447Z</time>
      </trkpt>
      <trkpt lat="46.91496" lon="8.64746">
        <ele>1054</ele>
        <time>2021-08-07T11:18:50.448Z</time>
      </trkpt>
      <trkpt lat="46.91496" lon="8.64744">
        <ele>1054</ele>
        <time>2021-08-07T11:18:51.447Z</time>
      </trkpt>
      <trkpt lat="46.91496" lon="8.64742">
        <ele>1054</ele>
        <time>2021-08-07T11:18:52.448Z</time>
      </trkpt>
      <trkpt lat="46.91496" lon="8.6474">
        <ele>1053</ele>
        <time>2021-08-07T11:18:53.448Z</time>
      </trkpt>
      <trkpt lat="46.91495" lon="8.64738">
        <ele>1053</ele>
        <time>2021-08-07T11:18:54.447Z</time>
      </trkpt>
      <trkpt lat="46.91495" lon="8.64737">
        <ele>1052</ele>
        <time>2021-08-07T11:18:55.447Z</time>
      </trkpt>
      <trkpt lat="46.91495" lon="8.64735">
        <ele>1052</ele>
        <time>2021-08-07T11:18:56.447Z</time>
      </trkpt>
      <trkpt lat="46.91495" lon="8.64733">
        <ele>1051</ele>
        <time>2021-08-07T11:18:57.447Z</time>
      </trkpt>
      <trkpt lat="46.91495" lon="8.64731">
        <ele>1051</ele>
        <time>2021-08-07T11:18:58.448Z</time>
      </trkpt>
      <trkpt lat="46.91495" lon="8.64728">
        <ele>1050</ele>
        <time>2021-08-07T11:18:59.447Z</time>
      </trkpt>
      <trkpt lat="46.91494" lon="8.64726">
        <ele>1049</ele>
        <time>2021-08-07T11:19:00.448Z</time>
      </trkpt>
      <trkpt lat="46.91494" lon="8.64724">
        <ele>1048</ele>
        <time>2021-08-07T11:19:01.448Z</time>
      </trkpt>
      <trkpt lat="46.91494" lon="8.64722">
        <ele>1048</ele>
        <time>2021-08-07T11:19:02.448Z</time>
      </trkpt>
      <trkpt lat="46.91494" lon="8.6472">
        <ele>1047</ele>
        <time>2021-08-07T11:19:03.448Z</time>
      </trkpt>
      <trkpt lat="46.91494" lon="8.64718">
        <ele>1046</ele>
        <time>2021-08-07T11:19:04.447Z</time>
      </trkpt>
      <trkpt lat="46.91493" lon="8.64716">
        <ele>1046</ele>
        <time>2021-08-07T11:19:05.448Z</time>
      </trkpt>
      <trkpt lat="46.91492" lon="8.64713">
        <ele>1045</ele>
        <time>2021-08-07T11:19:06.448Z</time>
      </trkpt>
      <trkpt lat="46.91491" lon="8.64712">
        <ele>1045</ele>
        <time>2021-08-07T11:19:07.448Z</time>
      </trkpt>
      <trkpt lat="46.91491" lon="8.6471">
        <ele>1044</ele>
        <time>2021-08-07T11:19:08.447Z</time>
      </trkpt>
      <trkpt lat="46.91491" lon="8.64708">
        <ele>1043</ele>
        <time>2021-08-07T11:19:09.448Z</time>
      </trkpt>
      <trkpt lat="46.9149" lon="8.64707">
        <ele>1042</ele>
        <time>2021-08-07T11:19:10.448Z</time>
      </trkpt>
      <trkpt lat="46.9149" lon="8.64706">
        <ele>1041</ele>
        <time>2021-08-07T11:19:11.448Z</time>
      </trkpt>
      <trkpt lat="46.9149" lon="8.64704">
        <ele>1041</ele>
        <time>2021-08-07T11:19:12.448Z</time>
      </trkpt>
      <trkpt lat="46.9149" lon="8.64703">
        <ele>1040</ele>
        <time>2021-08-07T11:19:13.447Z</time>
      </trkpt>
      <trkpt lat="46.91489" lon="8.64702">
        <ele>1038</ele>
        <time>2021-08-07T11:19:14.447Z</time>
      </trkpt>
      <trkpt lat="46.91489" lon="8.64702">
        <ele>1037</ele>
        <time>2021-08-07T11:19:15.448Z</time>
      </trkpt>
      <trkpt lat="46.91489" lon="8.647">
        <ele>1036</ele>
        <time>2021-08-07T11:19:16.447Z</time>
      </trkpt>
      <trkpt lat="46.9149" lon="8.647">
        <ele>1035</ele>
        <time>2021-08-07T11:19:17.448Z</time>
      </trkpt>
      <trkpt lat="46.91491" lon="8.647">
        <ele>1034</ele>
        <time>2021-08-07T11:19:18.448Z</time>
      </trkpt>
      <trkpt lat="46.91491" lon="8.647">
        <ele>1034</ele>
        <time>2021-08-07T11:19:19.448Z</time>
      </trkpt>
      <trkpt lat="46.91491" lon="8.64701">
        <ele>1033</ele>
        <time>2021-08-07T11:19:20.448Z</time>
      </trkpt>
      <trkpt lat="46.91491" lon="8.64702">
        <ele>1033</ele>
        <time>2021-08-07T11:19:21.448Z</time>
      </trkpt>
      <trkpt lat="46.91492" lon="8.64704">
        <ele>1032</ele>
        <time>2021-08-07T11:19:22.448Z</time>
      </trkpt>
      <trkpt lat="46.91493" lon="8.64705">
        <ele>1032</ele>
        <time>2021-08-07T11:19:23.448Z</time>
      </trkpt>
      <trkpt lat="46.91494" lon="8.64707">
        <ele>1033</ele>
        <time>2021-08-07T11:19:24.448Z</time>
      </trkpt>
      <trkpt lat="46.91495" lon="8.64707">
        <ele>1033</ele>
        <time>2021-08-07T11:19:25.447Z</time>
      </trkpt>
      <trkpt lat="46.91496" lon="8.64708">
        <ele>1033</ele>
        <time>2021-08-07T11:19:26.448Z</time>
      </trkpt>
      <trkpt lat="46.91496" lon="8.64709">
        <ele>1033</ele>
        <time>2021-08-07T11:19:27.448Z</time>
      </trkpt>
      <trkpt lat="46.91497" lon="8.64709">
        <ele>1033</ele>
        <time>2021-08-07T11:19:28.447Z</time>
      </trkpt>
      <trkpt lat="46.91497" lon="8.6471">
        <ele>1033</ele>
        <time>2021-08-07T11:19:29.447Z</time>
      </trkpt>
      <trkpt lat="46.91498" lon="8.6471">
        <ele>1033</ele>
        <time>2021-08-07T11:19:30.448Z</time>
      </trkpt>
      <trkpt lat="46.91499" lon="8.6471">
        <ele>1033</ele>
        <time>2021-08-07T11:19:31.448Z</time>
      </trkpt>
      <trkpt lat="46.915" lon="8.6471">
        <ele>1032</ele>
        <time>2021-08-07T11:19:32.448Z</time>
      </trkpt>
      <trkpt lat="46.91502" lon="8.64711">
        <ele>1032</ele>
        <time>2021-08-07T11:19:33.448Z</time>
      </trkpt>
      <trkpt lat="46.91503" lon="8.64712">
        <ele>1032</ele>
        <time>2021-08-07T11:19:34.448Z</time>
      </trkpt>
      <trkpt lat="46.91503" lon="8.64713">
        <ele>1031</ele>
        <time>2021-08-07T11:19:35.448Z</time>
      </trkpt>
      <trkpt lat="46.91504" lon="8.64713">
        <ele>1031</ele>
        <time>2021-08-07T11:19:36.448Z</time>
      </trkpt>
      <trkpt lat="46.91505" lon="8.64714">
        <ele>1031</ele>
        <time>2021-08-07T11:19:37.448Z</time>
      </trkpt>
      <trkpt lat="46.91505" lon="8.64714">
        <ele>1031</ele>
        <time>2021-08-07T11:19:38.448Z</time>
      </trkpt>
      <trkpt lat="46.91506" lon="8.64715">
        <ele>1032</ele>
        <time>2021-08-07T11:19:39.448Z</time>
      </trkpt>
      <trkpt lat="46.91507" lon="8.64715">
        <ele>1032</ele>
        <time>2021-08-07T11:19:40.447Z</time>
      </trkpt>
      <trkpt lat="46.91508" lon="8.64716">
        <ele>1032</ele>
        <time>2021-08-07T11:19:41.447Z</time>
      </trkpt>
      <trkpt lat="46.91508" lon="8.64717">
        <ele>1031</ele>
        <time>2021-08-07T11:19:42.447Z</time>
      </trkpt>
      <trkpt lat="46.91509" lon="8.64717">
        <ele>1031</ele>
        <time>2021-08-07T11:19:43.448Z</time>
      </trkpt>
      <trkpt lat="46.91509" lon="8.64718">
        <ele>1032</ele>
        <time>2021-08-07T11:19:44.447Z</time>
      </trkpt>
      <trkpt lat="46.91509" lon="8.64719">
        <ele>1032</ele>
        <time>2021-08-07T11:19:45.448Z</time>
      </trkpt>
      <trkpt lat="46.9151" lon="8.64719">
        <ele>1032</ele>
        <time>2021-08-07T11:19:46.447Z</time>
      </trkpt>
      <trkpt lat="46.91512" lon="8.64719">
        <ele>1032</ele>
        <time>2021-08-07T11:19:47.448Z</time>
      </trkpt>
      <trkpt lat="46.91514" lon="8.64719">
        <ele>1032</ele>
        <time>2021-08-07T11:19:48.447Z</time>
      </trkpt>
      <trkpt lat="46.91518" lon="8.64717">
        <ele>1034</ele>
        <time>2021-08-07T11:19:49.449Z</time>
      </trkpt>
      <trkpt lat="46.91518" lon="8.64716">
        <ele>1034</ele>
        <time>2021-08-07T11:19:50.448Z</time>
      </trkpt>
      <trkpt lat="46.91519" lon="8.64718">
        <ele>1036</ele>
        <time>2021-08-07T11:19:51.448Z</time>
      </trkpt>
      <trkpt lat="46.9152" lon="8.64718">
        <ele>1037</ele>
        <time>2021-08-07T11:19:52.448Z</time>
      </trkpt>
      <trkpt lat="46.9152" lon="8.64719">
        <ele>1037</ele>
        <time>2021-08-07T11:19:53.448Z</time>
      </trkpt>
      <trkpt lat="46.91521" lon="8.64719">
        <ele>1038</ele>
        <time>2021-08-07T11:19:54.448Z</time>
      </trkpt>
      <trkpt lat="46.91521" lon="8.64719">
        <ele>1038</ele>
        <time>2021-08-07T11:19:55.449Z</time>
      </trkpt>
      <trkpt lat="46.91522" lon="8.64719">
        <ele>1038</ele>
        <time>2021-08-07T11:19:56.449Z</time>
      </trkpt>
      <trkpt lat="46.91523" lon="8.64718">
        <ele>1038</ele>
        <time>2021-08-07T11:19:57.449Z</time>
      </trkpt>
      <trkpt lat="46.91524" lon="8.64717">
        <ele>1038</ele>
        <time>2021-08-07T11:19:58.448Z</time>
      </trkpt>
      <trkpt lat="46.91524" lon="8.64717">
        <ele>1038</ele>
        <time>2021-08-07T11:19:59.449Z</time>
      </trkpt>
      <trkpt lat="46.91525" lon="8.64716">
        <ele>1038</ele>
        <time>2021-08-07T11:20:00.448Z</time>
      </trkpt>
      <trkpt lat="46.91526" lon="8.64716">
        <ele>1039</ele>
        <time>2021-08-07T11:20:01.449Z</time>
      </trkpt>
      <trkpt lat="46.91527" lon="8.64715">
        <ele>1039</ele>
        <time>2021-08-07T11:20:02.448Z</time>
      </trkpt>
      <trkpt lat="46.91528" lon="8.64715">
        <ele>1040</ele>
        <time>2021-08-07T11:20:03.449Z</time>
      </trkpt>
      <trkpt lat="46.91528" lon="8.64714">
        <ele>1040</ele>
        <time>2021-08-07T11:20:04.448Z</time>
      </trkpt>
      <trkpt lat="46.91529" lon="8.64713">
        <ele>1041</ele>
        <time>2021-08-07T11:20:05.448Z</time>
      </trkpt>
      <trkpt lat="46.91529" lon="8.64712">
        <ele>1041</ele>
        <time>2021-08-07T11:20:06.449Z</time>
      </trkpt>
      <trkpt lat="46.9153" lon="8.64711">
        <ele>1041</ele>
        <time>2021-08-07T11:20:07.448Z</time>
      </trkpt>
      <trkpt lat="46.9153" lon="8.6471">
        <ele>1042</ele>
        <time>2021-08-07T11:20:08.449Z</time>
      </trkpt>
      <trkpt lat="46.91531" lon="8.64709">
        <ele>1041</ele>
        <time>2021-08-07T11:20:09.448Z</time>
      </trkpt>
      <trkpt lat="46.91531" lon="8.64708">
        <ele>1041</ele>
        <time>2021-08-07T11:20:10.449Z</time>
      </trkpt>
      <trkpt lat="46.91531" lon="8.64707">
        <ele>1041</ele>
        <time>2021-08-07T11:20:11.448Z</time>
      </trkpt>
      <trkpt lat="46.91531" lon="8.64707">
        <ele>1041</ele>
        <time>2021-08-07T11:20:12.448Z</time>
      </trkpt>
      <trkpt lat="46.91531" lon="8.64706">
        <ele>1041</ele>
        <time>2021-08-07T11:20:13.448Z</time>
      </trkpt>
      <trkpt lat="46.91531" lon="8.64705">
        <ele>1042</ele>
        <time>2021-08-07T11:20:14.449Z</time>
      </trkpt>
      <trkpt lat="46.91531" lon="8.64704">
        <ele>1042</ele>
        <time>2021-08-07T11:20:15.449Z</time>
      </trkpt>
      <trkpt lat="46.91531" lon="8.64703">
        <ele>1042</ele>
        <time>2021-08-07T11:20:16.449Z</time>
      </trkpt>
      <trkpt lat="46.91531" lon="8.64703">
        <ele>1041</ele>
        <time>2021-08-07T11:20:17.449Z</time>
      </trkpt>
      <trkpt lat="46.91531" lon="8.64702">
        <ele>1040</ele>
        <time>2021-08-07T11:20:18.449Z</time>
      </trkpt>
      <trkpt lat="46.9153" lon="8.64701">
        <ele>1040</ele>
        <time>2021-08-07T11:20:19.448Z</time>
      </trkpt>
      <trkpt lat="46.9153" lon="8.647">
        <ele>1039</ele>
        <time>2021-08-07T11:20:20.449Z</time>
      </trkpt>
      <trkpt lat="46.91529" lon="8.64699">
        <ele>1039</ele>
        <time>2021-08-07T11:20:21.448Z</time>
      </trkpt>
      <trkpt lat="46.91529" lon="8.64698">
        <ele>1039</ele>
        <time>2021-08-07T11:20:22.448Z</time>
      </trkpt>
      <trkpt lat="46.91529" lon="8.64697">
        <ele>1039</ele>
        <time>2021-08-07T11:20:23.448Z</time>
      </trkpt>
      <trkpt lat="46.91529" lon="8.64696">
        <ele>1038</ele>
        <time>2021-08-07T11:20:24.448Z</time>
      </trkpt>
      <trkpt lat="46.91528" lon="8.64695">
        <ele>1037</ele>
        <time>2021-08-07T11:20:25.448Z</time>
      </trkpt>
      <trkpt lat="46.91528" lon="8.64693">
        <ele>1037</ele>
        <time>2021-08-07T11:20:26.448Z</time>
      </trkpt>
      <trkpt lat="46.91528" lon="8.64691">
        <ele>1036</ele>
        <time>2021-08-07T11:20:27.449Z</time>
      </trkpt>
      <trkpt lat="46.91528" lon="8.64689">
        <ele>1036</ele>
        <time>2021-08-07T11:20:28.448Z</time>
      </trkpt>
      <trkpt lat="46.91528" lon="8.64689">
        <ele>1035</ele>
        <time>2021-08-07T11:20:29.449Z</time>
      </trkpt>
      <trkpt lat="46.91528" lon="8.64689">
        <ele>1034</ele>
        <time>2021-08-07T11:20:30.448Z</time>
      </trkpt>
      <trkpt lat="46.91528" lon="8.64687">
        <ele>1033</ele>
        <time>2021-08-07T11:20:31.448Z</time>
      </trkpt>
      <trkpt lat="46.91528" lon="8.64686">
        <ele>1033</ele>
        <time>2021-08-07T11:20:32.448Z</time>
      </trkpt>
      <trkpt lat="46.91527" lon="8.64685">
        <ele>1032</ele>
        <time>2021-08-07T11:20:33.448Z</time>
      </trkpt>
      <trkpt lat="46.91527" lon="8.64683">
        <ele>1031</ele>
        <time>2021-08-07T11:20:36.549Z</time>
      </trkpt>
      <trkpt lat="46.91526" lon="8.64682">
        <ele>1031</ele>
        <time>2021-08-07T11:20:37.549Z</time>
      </trkpt>
      <trkpt lat="46.91526" lon="8.64681">
        <ele>1030</ele>
        <time>2021-08-07T11:20:38.549Z</time>
      </trkpt>
      <trkpt lat="46.91525" lon="8.6468">
        <ele>1029</ele>
        <time>2021-08-07T11:20:39.549Z</time>
      </trkpt>
      <trkpt lat="46.91524" lon="8.64678">
        <ele>1029</ele>
        <time>2021-08-07T11:20:49.571Z</time>
      </trkpt>
      <trkpt lat="46.91523" lon="8.64677">
        <ele>1028</ele>
        <time>2021-08-07T11:20:55.445Z</time>
      </trkpt>
      <trkpt lat="46.91523" lon="8.64675">
        <ele>1027</ele>
        <time>2021-08-07T11:20:58.335Z</time>
      </trkpt>
      <trkpt lat="46.91522" lon="8.64673">
        <ele>1026</ele>
        <time>2021-08-07T11:20:59.336Z</time>
      </trkpt>
      <trkpt lat="46.91522" lon="8.64671">
        <ele>1025</ele>
        <time>2021-08-07T11:21:00.335Z</time>
      </trkpt>
      <trkpt lat="46.91521" lon="8.64668">
        <ele>1024</ele>
        <time>2021-08-07T11:21:01.335Z</time>
      </trkpt>
      <trkpt lat="46.91521" lon="8.64666">
        <ele>1023</ele>
        <time>2021-08-07T11:21:02.336Z</time>
      </trkpt>
      <trkpt lat="46.91521" lon="8.64665">
        <ele>1022</ele>
        <time>2021-08-07T11:21:03.336Z</time>
      </trkpt>
      <trkpt lat="46.91521" lon="8.64663">
        <ele>1021</ele>
        <time>2021-08-07T11:21:04.335Z</time>
      </trkpt>
      <trkpt lat="46.91521" lon="8.64662">
        <ele>1020</ele>
        <time>2021-08-07T11:21:05.336Z</time>
      </trkpt>
      <trkpt lat="46.91522" lon="8.64662">
        <ele>1019</ele>
        <time>2021-08-07T11:21:06.336Z</time>
      </trkpt>
      <trkpt lat="46.91523" lon="8.64663">
        <ele>1019</ele>
        <time>2021-08-07T11:21:07.336Z</time>
      </trkpt>
      <trkpt lat="46.91523" lon="8.64663">
        <ele>1019</ele>
        <time>2021-08-07T11:21:08.335Z</time>
      </trkpt>
      <trkpt lat="46.91524" lon="8.64664">
        <ele>1020</ele>
        <time>2021-08-07T11:21:15.482Z</time>
      </trkpt>
      <trkpt lat="46.91524" lon="8.64664">
        <ele>1020</ele>
        <time>2021-08-07T11:21:16.483Z</time>
      </trkpt>
      <trkpt lat="46.91525" lon="8.64664">
        <ele>1021</ele>
        <time>2021-08-07T11:21:17.483Z</time>
      </trkpt>
      <trkpt lat="46.91525" lon="8.64665">
        <ele>1021</ele>
        <time>2021-08-07T11:21:18.483Z</time>
      </trkpt>
      <trkpt lat="46.91526" lon="8.64666">
        <ele>1022</ele>
        <time>2021-08-07T11:21:19.483Z</time>
      </trkpt>
      <trkpt lat="46.91526" lon="8.64666">
        <ele>1022</ele>
        <time>2021-08-07T11:21:20.483Z</time>
      </trkpt>
      <trkpt lat="46.91527" lon="8.64667">
        <ele>1023</ele>
        <time>2021-08-07T11:21:21.482Z</time>
      </trkpt>
      <trkpt lat="46.91528" lon="8.64667">
        <ele>1023</ele>
        <time>2021-08-07T11:21:22.482Z</time>
      </trkpt>
      <trkpt lat="46.91528" lon="8.64667">
        <ele>1024</ele>
        <time>2021-08-07T11:21:23.483Z</time>
      </trkpt>
      <trkpt lat="46.91529" lon="8.64666">
        <ele>1024</ele>
        <time>2021-08-07T11:21:24.482Z</time>
      </trkpt>
      <trkpt lat="46.9153" lon="8.64666">
        <ele>1025</ele>
        <time>2021-08-07T11:21:25.482Z</time>
      </trkpt>
      <trkpt lat="46.91532" lon="8.64665">
        <ele>1025</ele>
        <time>2021-08-07T11:21:29.582Z</time>
      </trkpt>
      <trkpt lat="46.91532" lon="8.64665">
        <ele>1025</ele>
        <time>2021-08-07T11:21:42.502Z</time>
      </trkpt>
      <trkpt lat="46.91533" lon="8.64664">
        <ele>1025</ele>
        <time>2021-08-07T11:21:43.503Z</time>
      </trkpt>
      <trkpt lat="46.91534" lon="8.64664">
        <ele>1025</ele>
        <time>2021-08-07T11:21:44.503Z</time>
      </trkpt>
      <trkpt lat="46.91535" lon="8.64664">
        <ele>1025</ele>
        <time>2021-08-07T11:21:58.597Z</time>
      </trkpt>
      <trkpt lat="46.91536" lon="8.64665">
        <ele>1024</ele>
        <time>2021-08-07T11:21:59.598Z</time>
      </trkpt>
      <trkpt lat="46.91537" lon="8.64666">
        <ele>1024</ele>
        <time>2021-08-07T11:22:01.428Z</time>
      </trkpt>
      <trkpt lat="46.91538" lon="8.64666">
        <ele>1024</ele>
        <time>2021-08-07T11:22:16.213Z</time>
      </trkpt>
      <trkpt lat="46.91539" lon="8.64666">
        <ele>1023</ele>
        <time>2021-08-07T11:22:22.074Z</time>
      </trkpt>
      <trkpt lat="46.9154" lon="8.64666">
        <ele>1023</ele>
        <time>2021-08-07T11:22:23.074Z</time>
      </trkpt>
      <trkpt lat="46.91541" lon="8.64667">
        <ele>1023</ele>
        <time>2021-08-07T11:22:28.967Z</time>
      </trkpt>
      <trkpt lat="46.91542" lon="8.64668">
        <ele>1023</ele>
        <time>2021-08-07T11:22:29.966Z</time>
      </trkpt>
      <trkpt lat="46.91544" lon="8.64668">
        <ele>1022</ele>
        <time>2021-08-07T11:22:30.966Z</time>
      </trkpt>
      <trkpt lat="46.91545" lon="8.64667">
        <ele>1022</ele>
        <time>2021-08-07T11:22:31.967Z</time>
      </trkpt>
      <trkpt lat="46.91546" lon="8.64668">
        <ele>1022</ele>
        <time>2021-08-07T11:22:32.966Z</time>
      </trkpt>
      <trkpt lat="46.91547" lon="8.64669">
        <ele>1022</ele>
        <time>2021-08-07T11:22:33.966Z</time>
      </trkpt>
      <trkpt lat="46.91547" lon="8.6467">
        <ele>1022</ele>
        <time>2021-08-07T11:22:40.096Z</time>
      </trkpt>
      <trkpt lat="46.91548" lon="8.64672">
        <ele>1022</ele>
        <time>2021-08-07T11:22:41.095Z</time>
      </trkpt>
      <trkpt lat="46.91548" lon="8.64673">
        <ele>1023</ele>
        <time>2021-08-07T11:22:42.095Z</time>
      </trkpt>
      <trkpt lat="46.91549" lon="8.64674">
        <ele>1023</ele>
        <time>2021-08-07T11:22:43.095Z</time>
      </trkpt>
      <trkpt lat="46.9155" lon="8.64674">
        <ele>1023</ele>
        <time>2021-08-07T11:22:44.096Z</time>
      </trkpt>
      <trkpt lat="46.9155" lon="8.64674">
        <ele>1023</ele>
        <time>2021-08-07T11:22:45.096Z</time>
      </trkpt>
      <trkpt lat="46.91551" lon="8.64673">
        <ele>1023</ele>
        <time>2021-08-07T11:22:46.095Z</time>
      </trkpt>
      <trkpt lat="46.91551" lon="8.64674">
        <ele>1023</ele>
        <time>2021-08-07T11:22:47.095Z</time>
      </trkpt>
      <trkpt lat="46.91552" lon="8.64674">
        <ele>1023</ele>
        <time>2021-08-07T11:22:48.096Z</time>
      </trkpt>
      <trkpt lat="46.91553" lon="8.64674">
        <ele>1024</ele>
        <time>2021-08-07T11:22:49.095Z</time>
      </trkpt>
      <trkpt lat="46.91554" lon="8.64674">
        <ele>1024</ele>
        <time>2021-08-07T11:22:50.095Z</time>
      </trkpt>
      <trkpt lat="46.91555" lon="8.64674">
        <ele>1024</ele>
        <time>2021-08-07T11:23:19.190Z</time>
      </trkpt>
      <trkpt lat="46.91556" lon="8.64674">
        <ele>1024</ele>
        <time>2021-08-07T11:23:33.993Z</time>
      </trkpt>
      <trkpt lat="46.91557" lon="8.64674">
        <ele>1025</ele>
        <time>2021-08-07T11:23:34.993Z</time>
      </trkpt>
      <trkpt lat="46.91558" lon="8.64675">
        <ele>1025</ele>
        <time>2021-08-07T11:23:35.993Z</time>
      </trkpt>
      <trkpt lat="46.91559" lon="8.64675">
        <ele>1025</ele>
        <time>2021-08-07T11:23:36.993Z</time>
      </trkpt>
      <trkpt lat="46.91559" lon="8.64676">
        <ele>1026</ele>
        <time>2021-08-07T11:23:37.993Z</time>
      </trkpt>
      <trkpt lat="46.9156" lon="8.64676">
        <ele>1026</ele>
        <time>2021-08-07T11:23:38.992Z</time>
      </trkpt>
      <trkpt lat="46.91561" lon="8.64677">
        <ele>1026</ele>
        <time>2021-08-07T11:23:39.992Z</time>
      </trkpt>
      <trkpt lat="46.91562" lon="8.64679">
        <ele>1027</ele>
        <time>2021-08-07T11:23:40.992Z</time>
      </trkpt>
      <trkpt lat="46.91562" lon="8.6468">
        <ele>1028</ele>
        <time>2021-08-07T11:23:41.993Z</time>
      </trkpt>
      <trkpt lat="46.91563" lon="8.6468">
        <ele>1028</ele>
        <time>2021-08-07T11:23:42.993Z</time>
      </trkpt>
      <trkpt lat="46.91563" lon="8.6468">
        <ele>1029</ele>
        <time>2021-08-07T11:23:47.106Z</time>
      </trkpt>
      <trkpt lat="46.91564" lon="8.6468">
        <ele>1030</ele>
        <time>2021-08-07T11:23:48.106Z</time>
      </trkpt>
      <trkpt lat="46.91564" lon="8.64681">
        <ele>1030</ele>
        <time>2021-08-07T11:23:49.107Z</time>
      </trkpt>
      <trkpt lat="46.91566" lon="8.64684">
        <ele>1031</ele>
        <time>2021-08-07T11:23:53.231Z</time>
      </trkpt>
      <trkpt lat="46.91569" lon="8.64686">
        <ele>1031</ele>
        <time>2021-08-07T11:23:54.231Z</time>
      </trkpt>
      <trkpt lat="46.91571" lon="8.64688">
        <ele>1031</ele>
        <time>2021-08-07T11:24:00.103Z</time>
      </trkpt>
      <trkpt lat="46.91573" lon="8.64689">
        <ele>1031</ele>
        <time>2021-08-07T11:24:05.979Z</time>
      </trkpt>
      <trkpt lat="46.91574" lon="8.6469">
        <ele>1031</ele>
        <time>2021-08-07T11:24:06.979Z</time>
      </trkpt>
      <trkpt lat="46.91575" lon="8.64691">
        <ele>1031</ele>
        <time>2021-08-07T11:24:07.979Z</time>
      </trkpt>
      <trkpt lat="46.91577" lon="8.64692">
        <ele>1031</ele>
        <time>2021-08-07T11:24:08.978Z</time>
      </trkpt>
      <trkpt lat="46.91578" lon="8.64693">
        <ele>1031</ele>
        <time>2021-08-07T11:24:09.978Z</time>
      </trkpt>
      <trkpt lat="46.91579" lon="8.64693">
        <ele>1032</ele>
        <time>2021-08-07T11:24:10.978Z</time>
      </trkpt>
      <trkpt lat="46.9158" lon="8.64694">
        <ele>1032</ele>
        <time>2021-08-07T11:24:17.075Z</time>
      </trkpt>
      <trkpt lat="46.91581" lon="8.64695">
        <ele>1032</ele>
        <time>2021-08-07T11:24:18.075Z</time>
      </trkpt>
      <trkpt lat="46.91582" lon="8.64695">
        <ele>1032</ele>
        <time>2021-08-07T11:24:19.075Z</time>
      </trkpt>
      <trkpt lat="46.91583" lon="8.64697">
        <ele>1032</ele>
        <time>2021-08-07T11:24:26.182Z</time>
      </trkpt>
      <trkpt lat="46.91584" lon="8.64697">
        <ele>1032</ele>
        <time>2021-08-07T11:24:45.096Z</time>
      </trkpt>
      <trkpt lat="46.91586" lon="8.64696">
        <ele>1032</ele>
        <time>2021-08-07T11:24:46.096Z</time>
      </trkpt>
      <trkpt lat="46.91588" lon="8.64696">
        <ele>1032</ele>
        <time>2021-08-07T11:24:47.097Z</time>
      </trkpt>
      <trkpt lat="46.91589" lon="8.64695">
        <ele>1032</ele>
        <time>2021-08-07T11:24:48.097Z</time>
      </trkpt>
      <trkpt lat="46.9159" lon="8.64695">
        <ele>1032</ele>
        <time>2021-08-07T11:24:49.097Z</time>
      </trkpt>
      <trkpt lat="46.91591" lon="8.64696">
        <ele>1031</ele>
        <time>2021-08-07T11:24:50.097Z</time>
      </trkpt>
      <trkpt lat="46.91592" lon="8.64696">
        <ele>1031</ele>
        <time>2021-08-07T11:24:51.096Z</time>
      </trkpt>
      <trkpt lat="46.91593" lon="8.64695">
        <ele>1031</ele>
        <time>2021-08-07T11:24:52.096Z</time>
      </trkpt>
      <trkpt lat="46.91594" lon="8.64695">
        <ele>1031</ele>
        <time>2021-08-07T11:24:53.097Z</time>
      </trkpt>
      <trkpt lat="46.91595" lon="8.64695">
        <ele>1031</ele>
        <time>2021-08-07T11:24:54.097Z</time>
      </trkpt>
      <trkpt lat="46.91597" lon="8.64695">
        <ele>1031</ele>
        <time>2021-08-07T11:24:58.229Z</time>
      </trkpt>
      <trkpt lat="46.91598" lon="8.64695">
        <ele>1031</ele>
        <time>2021-08-07T11:24:59.228Z</time>
      </trkpt>
      <trkpt lat="46.916" lon="8.64695">
        <ele>1031</ele>
        <time>2021-08-07T11:25:07.116Z</time>
      </trkpt>
      <trkpt lat="46.91601" lon="8.64694">
        <ele>1031</ele>
        <time>2021-08-07T11:25:08.116Z</time>
      </trkpt>
      <trkpt lat="46.91602" lon="8.64694">
        <ele>1031</ele>
        <time>2021-08-07T11:25:09.116Z</time>
      </trkpt>
      <trkpt lat="46.91603" lon="8.64693">
        <ele>1030</ele>
        <time>2021-08-07T11:25:10.116Z</time>
      </trkpt>
      <trkpt lat="46.91604" lon="8.64693">
        <ele>1030</ele>
        <time>2021-08-07T11:25:11.116Z</time>
      </trkpt>
      <trkpt lat="46.91605" lon="8.64694">
        <ele>1030</ele>
        <time>2021-08-07T11:25:12.115Z</time>
      </trkpt>
      <trkpt lat="46.91606" lon="8.64694">
        <ele>1030</ele>
        <time>2021-08-07T11:25:13.116Z</time>
      </trkpt>
      <trkpt lat="46.91608" lon="8.64694">
        <ele>1030</ele>
        <time>2021-08-07T11:25:14.116Z</time>
      </trkpt>
      <trkpt lat="46.91609" lon="8.64694">
        <ele>1029</ele>
        <time>2021-08-07T11:25:15.115Z</time>
      </trkpt>
      <trkpt lat="46.9161" lon="8.64693">
        <ele>1029</ele>
        <time>2021-08-07T11:25:16.116Z</time>
      </trkpt>
      <trkpt lat="46.91611" lon="8.64693">
        <ele>1028</ele>
        <time>2021-08-07T11:25:17.116Z</time>
      </trkpt>
      <trkpt lat="46.91612" lon="8.64691">
        <ele>1028</ele>
        <time>2021-08-07T11:25:18.115Z</time>
      </trkpt>
      <trkpt lat="46.91613" lon="8.64689">
        <ele>1027</ele>
        <time>2021-08-07T11:25:19.116Z</time>
      </trkpt>
      <trkpt lat="46.91613" lon="8.64688">
        <ele>1027</ele>
        <time>2021-08-07T11:25:20.116Z</time>
      </trkpt>
      <trkpt lat="46.91613" lon="8.64687">
        <ele>1026</ele>
        <time>2021-08-07T11:25:21.115Z</time>
      </trkpt>
      <trkpt lat="46.91614" lon="8.64691">
        <ele>1020</ele>
        <time>2021-08-07T11:25:22.116Z</time>
      </trkpt>
      <trkpt lat="46.91615" lon="8.64691">
        <ele>1020</ele>
        <time>2021-08-07T11:25:23.115Z</time>
      </trkpt>
      <trkpt lat="46.91616" lon="8.6469">
        <ele>1019</ele>
        <time>2021-08-07T11:25:27.248Z</time>
      </trkpt>
      <trkpt lat="46.91621" lon="8.64686">
        <ele>1017</ele>
        <time>2021-08-07T11:25:28.249Z</time>
      </trkpt>
      <trkpt lat="46.91621" lon="8.64685">
        <ele>1017</ele>
        <time>2021-08-07T11:25:29.248Z</time>
      </trkpt>
      <trkpt lat="46.91621" lon="8.64682">
        <ele>1017</ele>
        <time>2021-08-07T11:25:30.249Z</time>
      </trkpt>
      <trkpt lat="46.9162" lon="8.64681">
        <ele>1017</ele>
        <time>2021-08-07T11:25:31.249Z</time>
      </trkpt>
      <trkpt lat="46.91621" lon="8.64678">
        <ele>1018</ele>
        <time>2021-08-07T11:25:42.339Z</time>
      </trkpt>
      <trkpt lat="46.91621" lon="8.64678">
        <ele>1018</ele>
        <time>2021-08-07T11:25:43.338Z</time>
      </trkpt>
      <trkpt lat="46.91621" lon="8.64678">
        <ele>1018</ele>
        <time>2021-08-07T11:25:53.220Z</time>
      </trkpt>
      <trkpt lat="46.91622" lon="8.64677">
        <ele>1018</ele>
        <time>2021-08-07T11:25:54.220Z</time>
      </trkpt>
      <trkpt lat="46.91624" lon="8.64676">
        <ele>1019</ele>
        <time>2021-08-07T11:25:55.222Z</time>
      </trkpt>
      <trkpt lat="46.91624" lon="8.64676">
        <ele>1019</ele>
        <time>2021-08-07T11:25:56.221Z</time>
      </trkpt>
      <trkpt lat="46.91631" lon="8.64678">
        <ele>1016</ele>
        <time>2021-08-07T11:25:57.098Z</time>
      </trkpt>
      <trkpt lat="46.9163" lon="8.64683">
        <ele>1015</ele>
        <time>2021-08-07T11:25:58.098Z</time>
      </trkpt>
      <trkpt lat="46.91631" lon="8.64683">
        <ele>1014</ele>
        <time>2021-08-07T11:25:59.098Z</time>
      </trkpt>
      <trkpt lat="46.91631" lon="8.64683">
        <ele>1014</ele>
        <time>2021-08-07T11:26:00.098Z</time>
      </trkpt>
      <trkpt lat="46.91631" lon="8.64681">
        <ele>1013</ele>
        <time>2021-08-07T11:26:01.099Z</time>
      </trkpt>
      <trkpt lat="46.91631" lon="8.6468">
        <ele>1013</ele>
        <time>2021-08-07T11:26:02.099Z</time>
      </trkpt>
      <trkpt lat="46.9163" lon="8.64681">
        <ele>1013</ele>
        <time>2021-08-07T11:26:03.098Z</time>
      </trkpt>
      <trkpt lat="46.9163" lon="8.6468">
        <ele>1012</ele>
        <time>2021-08-07T11:26:04.099Z</time>
      </trkpt>
      <trkpt lat="46.9163" lon="8.64679">
        <ele>1012</ele>
        <time>2021-08-07T11:26:05.099Z</time>
      </trkpt>
      <trkpt lat="46.9163" lon="8.64679">
        <ele>1012</ele>
        <time>2021-08-07T11:26:07.212Z</time>
      </trkpt>
      <trkpt lat="46.9163" lon="8.64678">
        <ele>1012</ele>
        <time>2021-08-07T11:26:08.212Z</time>
      </trkpt>
      <trkpt lat="46.91629" lon="8.64677">
        <ele>1012</ele>
        <time>2021-08-07T11:26:09.214Z</time>
      </trkpt>
      <trkpt lat="46.91629" lon="8.64677">
        <ele>1012</ele>
        <time>2021-08-07T11:26:10.213Z</time>
      </trkpt>
      <trkpt lat="46.91629" lon="8.64677">
        <ele>1012</ele>
        <time>2021-08-07T11:26:11.213Z</time>
      </trkpt>
      <trkpt lat="46.91629" lon="8.64677">
        <ele>1012</ele>
        <time>2021-08-07T11:26:23.352Z</time>
      </trkpt>
      <trkpt lat="46.91629" lon="8.64671">
        <ele>1010</ele>
        <time>2021-08-07T11:26:24.352Z</time>
      </trkpt>
      <trkpt lat="46.9163" lon="8.6467">
        <ele>1010</ele>
        <time>2021-08-07T11:26:25.352Z</time>
      </trkpt>
      <trkpt lat="46.9163" lon="8.6467">
        <ele>1009</ele>
        <time>2021-08-07T11:26:26.351Z</time>
      </trkpt>
      <trkpt lat="46.9163" lon="8.64671">
        <ele>1009</ele>
        <time>2021-08-07T11:26:27.351Z</time>
      </trkpt>
      <trkpt lat="46.9163" lon="8.64671">
        <ele>1009</ele>
        <time>2021-08-07T11:26:28.352Z</time>
      </trkpt>
      <trkpt lat="46.91631" lon="8.64671">
        <ele>1008</ele>
        <time>2021-08-07T11:26:41.492Z</time>
      </trkpt>
      <trkpt lat="46.91631" lon="8.64672">
        <ele>1008</ele>
        <time>2021-08-07T11:26:42.491Z</time>
      </trkpt>
      <trkpt lat="46.91633" lon="8.64672">
        <ele>1008</ele>
        <time>2021-08-07T11:26:43.493Z</time>
      </trkpt>
      <trkpt lat="46.91633" lon="8.64673">
        <ele>1007</ele>
        <time>2021-08-07T11:26:44.493Z</time>
      </trkpt>
      <trkpt lat="46.91634" lon="8.64674">
        <ele>1007</ele>
        <time>2021-08-07T11:26:45.492Z</time>
      </trkpt>
      <trkpt lat="46.91634" lon="8.64675">
        <ele>1007</ele>
        <time>2021-08-07T11:26:46.493Z</time>
      </trkpt>
      <trkpt lat="46.91633" lon="8.64675">
        <ele>1007</ele>
        <time>2021-08-07T11:26:53.617Z</time>
      </trkpt>
      <trkpt lat="46.91632" lon="8.64675">
        <ele>1007</ele>
        <time>2021-08-07T11:26:54.616Z</time>
      </trkpt>
      <trkpt lat="46.91632" lon="8.64674">
        <ele>1007</ele>
        <time>2021-08-07T11:26:55.617Z</time>
      </trkpt>
      <trkpt lat="46.91631" lon="8.64673">
        <ele>1007</ele>
        <time>2021-08-07T11:26:56.616Z</time>
      </trkpt>
      <trkpt lat="46.9163" lon="8.64673">
        <ele>1007</ele>
        <time>2021-08-07T11:26:57.617Z</time>
      </trkpt>
      <trkpt lat="46.91629" lon="8.64672">
        <ele>1007</ele>
        <time>2021-08-07T11:26:58.616Z</time>
      </trkpt>
      <trkpt lat="46.91628" lon="8.64671">
        <ele>1006</ele>
        <time>2021-08-07T11:26:59.617Z</time>
      </trkpt>
      <trkpt lat="46.91627" lon="8.6467">
        <ele>1006</ele>
        <time>2021-08-07T11:27:00.616Z</time>
      </trkpt>
      <trkpt lat="46.91626" lon="8.64668">
        <ele>1006</ele>
        <time>2021-08-07T11:27:01.617Z</time>
      </trkpt>
      <trkpt lat="46.91625" lon="8.64667">
        <ele>1006</ele>
        <time>2021-08-07T11:27:02.616Z</time>
      </trkpt>
      <trkpt lat="46.91624" lon="8.64666">
        <ele>1006</ele>
        <time>2021-08-07T11:27:03.616Z</time>
      </trkpt>
      <trkpt lat="46.91623" lon="8.64665">
        <ele>1005</ele>
        <time>2021-08-07T11:27:07.706Z</time>
      </trkpt>
      <trkpt lat="46.91622" lon="8.64664">
        <ele>1005</ele>
        <time>2021-08-07T11:27:08.706Z</time>
      </trkpt>
      <trkpt lat="46.91622" lon="8.64664">
        <ele>1005</ele>
        <time>2021-08-07T11:27:14.830Z</time>
      </trkpt>
      <trkpt lat="46.91621" lon="8.64662">
        <ele>1005</ele>
        <time>2021-08-07T11:27:15.830Z</time>
      </trkpt>
      <trkpt lat="46.91621" lon="8.64662">
        <ele>1004</ele>
        <time>2021-08-07T11:27:16.830Z</time>
      </trkpt>
      <trkpt lat="46.91621" lon="8.64661">
        <ele>1004</ele>
        <time>2021-08-07T11:27:17.831Z</time>
      </trkpt>
      <trkpt lat="46.9162" lon="8.64661">
        <ele>1003</ele>
        <time>2021-08-07T11:27:18.831Z</time>
      </trkpt>
      <trkpt lat="46.9162" lon="8.64661">
        <ele>1003</ele>
        <time>2021-08-07T11:27:19.830Z</time>
      </trkpt>
      <trkpt lat="46.9162" lon="8.64661">
        <ele>1003</ele>
        <time>2021-08-07T11:27:20.830Z</time>
      </trkpt>
      <trkpt lat="46.91621" lon="8.6466">
        <ele>1002</ele>
        <time>2021-08-07T11:27:21.831Z</time>
      </trkpt>
      <trkpt lat="46.91622" lon="8.6466">
        <ele>1002</ele>
        <time>2021-08-07T11:27:22.832Z</time>
      </trkpt>
      <trkpt lat="46.91622" lon="8.64658">
        <ele>1002</ele>
        <time>2021-08-07T11:27:23.831Z</time>
      </trkpt>
      <trkpt lat="46.91622" lon="8.64657">
        <ele>1001</ele>
        <time>2021-08-07T11:27:39.940Z</time>
      </trkpt>
      <trkpt lat="46.91621" lon="8.64655">
        <ele>1001</ele>
        <time>2021-08-07T11:27:40.940Z</time>
      </trkpt>
      <trkpt lat="46.91621" lon="8.64654">
        <ele>1001</ele>
        <time>2021-08-07T11:27:41.940Z</time>
      </trkpt>
      <trkpt lat="46.91621" lon="8.64653">
        <ele>1001</ele>
        <time>2021-08-07T11:27:42.942Z</time>
      </trkpt>
      <trkpt lat="46.91621" lon="8.64652">
        <ele>1001</ele>
        <time>2021-08-07T11:27:44.938Z</time>
      </trkpt>
      <trkpt lat="46.91621" lon="8.64651">
        <ele>1001</ele>
        <time>2021-08-07T11:27:45.937Z</time>
      </trkpt>
      <trkpt lat="46.91621" lon="8.6465">
        <ele>1002</ele>
        <time>2021-08-07T11:27:46.938Z</time>
      </trkpt>
      <trkpt lat="46.91621" lon="8.64649">
        <ele>1002</ele>
        <time>2021-08-07T11:27:47.937Z</time>
      </trkpt>
      <trkpt lat="46.91621" lon="8.64649">
        <ele>1002</ele>
        <time>2021-08-07T11:27:48.937Z</time>
      </trkpt>
      <trkpt lat="46.91621" lon="8.64649">
        <ele>1003</ele>
        <time>2021-08-07T11:27:49.938Z</time>
      </trkpt>
      <trkpt lat="46.9162" lon="8.64648">
        <ele>1003</ele>
        <time>2021-08-07T11:28:01.959Z</time>
      </trkpt>
      <trkpt lat="46.91619" lon="8.64648">
        <ele>1003</ele>
        <time>2021-08-07T11:28:02.959Z</time>
      </trkpt>
      <trkpt lat="46.91618" lon="8.64646">
        <ele>1004</ele>
        <time>2021-08-07T11:28:03.959Z</time>
      </trkpt>
      <trkpt lat="46.91619" lon="8.64644">
        <ele>1004</ele>
        <time>2021-08-07T11:28:04.959Z</time>
      </trkpt>
      <trkpt lat="46.91619" lon="8.64643">
        <ele>1004</ele>
        <time>2021-08-07T11:28:05.959Z</time>
      </trkpt>
      <trkpt lat="46.91619" lon="8.64643">
        <ele>1004</ele>
        <time>2021-08-07T11:28:06.959Z</time>
      </trkpt>
      <trkpt lat="46.91619" lon="8.64643">
        <ele>1004</ele>
        <time>2021-08-07T11:28:07.959Z</time>
      </trkpt>
      <trkpt lat="46.9162" lon="8.64645">
        <ele>1004</ele>
        <time>2021-08-07T11:28:08.959Z</time>
      </trkpt>
      <trkpt lat="46.91621" lon="8.64645">
        <ele>1004</ele>
        <time>2021-08-07T11:28:09.960Z</time>
      </trkpt>
      <trkpt lat="46.91621" lon="8.64644">
        <ele>1005</ele>
        <time>2021-08-07T11:28:10.960Z</time>
      </trkpt>
      <trkpt lat="46.9162" lon="8.64643">
        <ele>1005</ele>
        <time>2021-08-07T11:28:11.959Z</time>
      </trkpt>
      <trkpt lat="46.91619" lon="8.64641">
        <ele>1005</ele>
        <time>2021-08-07T11:28:12.959Z</time>
      </trkpt>
      <trkpt lat="46.91619" lon="8.64639">
        <ele>1005</ele>
        <time>2021-08-07T11:28:13.960Z</time>
      </trkpt>
      <trkpt lat="46.91619" lon="8.64638">
        <ele>1004</ele>
        <time>2021-08-07T11:28:14.960Z</time>
      </trkpt>
      <trkpt lat="46.91618" lon="8.64637">
        <ele>1005</ele>
        <time>2021-08-07T11:28:15.959Z</time>
      </trkpt>
      <trkpt lat="46.91617" lon="8.64636">
        <ele>1005</ele>
        <time>2021-08-07T11:28:16.960Z</time>
      </trkpt>
      <trkpt lat="46.91616" lon="8.64636">
        <ele>1004</ele>
        <time>2021-08-07T11:28:17.960Z</time>
      </trkpt>
      <trkpt lat="46.91615" lon="8.64635">
        <ele>1004</ele>
        <time>2021-08-07T11:28:20.071Z</time>
      </trkpt>
      <trkpt lat="46.91614" lon="8.64634">
        <ele>1004</ele>
        <time>2021-08-07T11:28:21.071Z</time>
      </trkpt>
      <trkpt lat="46.91614" lon="8.64633">
        <ele>1004</ele>
        <time>2021-08-07T11:28:31.845Z</time>
      </trkpt>
      <trkpt lat="46.91614" lon="8.64632">
        <ele>1004</ele>
        <time>2021-08-07T11:28:32.846Z</time>
      </trkpt>
      <trkpt lat="46.91615" lon="8.64632">
        <ele>1004</ele>
        <time>2021-08-07T11:28:40.607Z</time>
      </trkpt>
      <trkpt lat="46.91616" lon="8.64632">
        <ele>1004</ele>
        <time>2021-08-07T11:28:41.607Z</time>
      </trkpt>
      <trkpt lat="46.91616" lon="8.64631">
        <ele>1004</ele>
        <time>2021-08-07T11:28:42.607Z</time>
      </trkpt>
      <trkpt lat="46.91617" lon="8.6463">
        <ele>1004</ele>
        <time>2021-08-07T11:28:43.606Z</time>
      </trkpt>
      <trkpt lat="46.91617" lon="8.64629">
        <ele>1004</ele>
        <time>2021-08-07T11:28:44.607Z</time>
      </trkpt>
      <trkpt lat="46.91618" lon="8.64628">
        <ele>1004</ele>
        <time>2021-08-07T11:28:45.607Z</time>
      </trkpt>
      <trkpt lat="46.91618" lon="8.64628">
        <ele>1004</ele>
        <time>2021-08-07T11:28:49.690Z</time>
      </trkpt>
      <trkpt lat="46.91618" lon="8.64627">
        <ele>1004</ele>
        <time>2021-08-07T11:28:50.690Z</time>
      </trkpt>
      <trkpt lat="46.91618" lon="8.64627">
        <ele>1004</ele>
        <time>2021-08-07T11:28:51.690Z</time>
      </trkpt>
      <trkpt lat="46.91619" lon="8.64626">
        <ele>1004</ele>
        <time>2021-08-07T11:28:55.731Z</time>
      </trkpt>
      <trkpt lat="46.91619" lon="8.64625">
        <ele>1004</ele>
        <time>2021-08-07T11:28:56.731Z</time>
      </trkpt>
      <trkpt lat="46.9162" lon="8.64623">
        <ele>1004</ele>
        <time>2021-08-07T11:28:57.731Z</time>
      </trkpt>
      <trkpt lat="46.9162" lon="8.64621">
        <ele>1004</ele>
        <time>2021-08-07T11:28:58.731Z</time>
      </trkpt>
      <trkpt lat="46.91621" lon="8.6462">
        <ele>1004</ele>
        <time>2021-08-07T11:28:59.731Z</time>
      </trkpt>
      <trkpt lat="46.91621" lon="8.64619">
        <ele>1004</ele>
        <time>2021-08-07T11:29:00.730Z</time>
      </trkpt>
      <trkpt lat="46.91622" lon="8.64618">
        <ele>1004</ele>
        <time>2021-08-07T11:29:01.730Z</time>
      </trkpt>
      <trkpt lat="46.91623" lon="8.64616">
        <ele>1003</ele>
        <time>2021-08-07T11:29:02.731Z</time>
      </trkpt>
      <trkpt lat="46.91624" lon="8.64615">
        <ele>1003</ele>
        <time>2021-08-07T11:29:03.731Z</time>
      </trkpt>
      <trkpt lat="46.91624" lon="8.64614">
        <ele>1003</ele>
        <time>2021-08-07T11:29:04.731Z</time>
      </trkpt>
      <trkpt lat="46.91624" lon="8.64614">
        <ele>1003</ele>
        <time>2021-08-07T11:29:05.731Z</time>
      </trkpt>
      <trkpt lat="46.91624" lon="8.64614">
        <ele>1003</ele>
        <time>2021-08-07T11:29:06.731Z</time>
      </trkpt>
      <trkpt lat="46.91625" lon="8.64615">
        <ele>1003</ele>
        <time>2021-08-07T11:29:07.731Z</time>
      </trkpt>
      <trkpt lat="46.91626" lon="8.64613">
        <ele>1003</ele>
        <time>2021-08-07T11:29:08.731Z</time>
      </trkpt>
      <trkpt lat="46.91627" lon="8.64611">
        <ele>1002</ele>
        <time>2021-08-07T11:29:09.731Z</time>
      </trkpt>
      <trkpt lat="46.91628" lon="8.6461">
        <ele>1002</ele>
        <time>2021-08-07T11:29:10.732Z</time>
      </trkpt>
      <trkpt lat="46.91627" lon="8.64609">
        <ele>1002</ele>
        <time>2021-08-07T11:29:11.731Z</time>
      </trkpt>
      <trkpt lat="46.91627" lon="8.64608">
        <ele>1002</ele>
        <time>2021-08-07T11:29:12.732Z</time>
      </trkpt>
      <trkpt lat="46.91628" lon="8.64608">
        <ele>1002</ele>
        <time>2021-08-07T11:29:13.732Z</time>
      </trkpt>
      <trkpt lat="46.91628" lon="8.64607">
        <ele>1002</ele>
        <time>2021-08-07T11:29:20.846Z</time>
      </trkpt>
      <trkpt lat="46.91629" lon="8.64607">
        <ele>1002</ele>
        <time>2021-08-07T11:29:21.846Z</time>
      </trkpt>
      <trkpt lat="46.91629" lon="8.64605">
        <ele>1002</ele>
        <time>2021-08-07T11:29:22.846Z</time>
      </trkpt>
      <trkpt lat="46.91628" lon="8.64603">
        <ele>1002</ele>
        <time>2021-08-07T11:29:23.846Z</time>
      </trkpt>
      <trkpt lat="46.91628" lon="8.64602">
        <ele>1002</ele>
        <time>2021-08-07T11:29:24.847Z</time>
      </trkpt>
      <trkpt lat="46.91627" lon="8.64601">
        <ele>1002</ele>
        <time>2021-08-07T11:29:25.846Z</time>
      </trkpt>
      <trkpt lat="46.91626" lon="8.646">
        <ele>1002</ele>
        <time>2021-08-07T11:29:26.847Z</time>
      </trkpt>
      <trkpt lat="46.91626" lon="8.646">
        <ele>1002</ele>
        <time>2021-08-07T11:29:27.846Z</time>
      </trkpt>
      <trkpt lat="46.91626" lon="8.64599">
        <ele>1003</ele>
        <time>2021-08-07T11:29:28.847Z</time>
      </trkpt>
      <trkpt lat="46.91626" lon="8.64598">
        <ele>1003</ele>
        <time>2021-08-07T11:29:29.847Z</time>
      </trkpt>
      <trkpt lat="46.91626" lon="8.64597">
        <ele>1003</ele>
        <time>2021-08-07T11:29:30.846Z</time>
      </trkpt>
      <trkpt lat="46.91625" lon="8.64595">
        <ele>1004</ele>
        <time>2021-08-07T11:29:31.846Z</time>
      </trkpt>
      <trkpt lat="46.91625" lon="8.64593">
        <ele>1004</ele>
        <time>2021-08-07T11:29:32.847Z</time>
      </trkpt>
      <trkpt lat="46.91624" lon="8.64589">
        <ele>1004</ele>
        <time>2021-08-07T11:29:33.846Z</time>
      </trkpt>
      <trkpt lat="46.91623" lon="8.64586">
        <ele>1005</ele>
        <time>2021-08-07T11:29:34.846Z</time>
      </trkpt>
      <trkpt lat="46.91623" lon="8.64584">
        <ele>1005</ele>
        <time>2021-08-07T11:29:35.846Z</time>
      </trkpt>
      <trkpt lat="46.91622" lon="8.64584">
        <ele>1005</ele>
        <time>2021-08-07T11:29:36.846Z</time>
      </trkpt>
      <trkpt lat="46.91621" lon="8.64584">
        <ele>1005</ele>
        <time>2021-08-07T11:29:37.847Z</time>
      </trkpt>
      <trkpt lat="46.9162" lon="8.64585">
        <ele>1005</ele>
        <time>2021-08-07T11:29:38.846Z</time>
      </trkpt>
      <trkpt lat="46.91618" lon="8.64586">
        <ele>1005</ele>
        <time>2021-08-07T11:29:39.846Z</time>
      </trkpt>
      <trkpt lat="46.91617" lon="8.64587">
        <ele>1005</ele>
        <time>2021-08-07T11:29:40.846Z</time>
      </trkpt>
      <trkpt lat="46.91615" lon="8.64587">
        <ele>1005</ele>
        <time>2021-08-07T11:29:41.846Z</time>
      </trkpt>
      <trkpt lat="46.91614" lon="8.64585">
        <ele>1005</ele>
        <time>2021-08-07T11:29:42.847Z</time>
      </trkpt>
      <trkpt lat="46.91612" lon="8.64584">
        <ele>1004</ele>
        <time>2021-08-07T11:29:43.847Z</time>
      </trkpt>
      <trkpt lat="46.91611" lon="8.64583">
        <ele>1004</ele>
        <time>2021-08-07T11:29:44.846Z</time>
      </trkpt>
      <trkpt lat="46.9161" lon="8.64582">
        <ele>1004</ele>
        <time>2021-08-07T11:29:45.846Z</time>
      </trkpt>
      <trkpt lat="46.91609" lon="8.64582">
        <ele>1004</ele>
        <time>2021-08-07T11:29:46.846Z</time>
      </trkpt>
      <trkpt lat="46.91609" lon="8.64581">
        <ele>1004</ele>
        <time>2021-08-07T11:29:47.847Z</time>
      </trkpt>
      <trkpt lat="46.9161" lon="8.6458">
        <ele>1004</ele>
        <time>2021-08-07T11:29:48.846Z</time>
      </trkpt>
      <trkpt lat="46.91611" lon="8.64579">
        <ele>1004</ele>
        <time>2021-08-07T11:29:49.846Z</time>
      </trkpt>
      <trkpt lat="46.91612" lon="8.64578">
        <ele>1004</ele>
        <time>2021-08-07T11:29:50.846Z</time>
      </trkpt>
      <trkpt lat="46.91613" lon="8.64576">
        <ele>1004</ele>
        <time>2021-08-07T11:29:51.847Z</time>
      </trkpt>
      <trkpt lat="46.91613" lon="8.64575">
        <ele>1004</ele>
        <time>2021-08-07T11:29:52.847Z</time>
      </trkpt>
      <trkpt lat="46.91614" lon="8.64574">
        <ele>1004</ele>
        <time>2021-08-07T11:29:53.846Z</time>
      </trkpt>
      <trkpt lat="46.91613" lon="8.64573">
        <ele>1003</ele>
        <time>2021-08-07T11:30:03.878Z</time>
      </trkpt>
      <trkpt lat="46.91613" lon="8.64571">
        <ele>1003</ele>
        <time>2021-08-07T11:30:04.878Z</time>
      </trkpt>
      <trkpt lat="46.91614" lon="8.64569">
        <ele>1003</ele>
        <time>2021-08-07T11:30:09.731Z</time>
      </trkpt>
      <trkpt lat="46.91613" lon="8.64569">
        <ele>1003</ele>
        <time>2021-08-07T11:30:10.732Z</time>
      </trkpt>
      <trkpt lat="46.91612" lon="8.64567">
        <ele>1003</ele>
        <time>2021-08-07T11:30:11.731Z</time>
      </trkpt>
      <trkpt lat="46.91612" lon="8.64566">
        <ele>1003</ele>
        <time>2021-08-07T11:30:12.731Z</time>
      </trkpt>
      <trkpt lat="46.91612" lon="8.64563">
        <ele>1002</ele>
        <time>2021-08-07T11:30:13.731Z</time>
      </trkpt>
      <trkpt lat="46.91612" lon="8.64562">
        <ele>1002</ele>
        <time>2021-08-07T11:30:14.731Z</time>
      </trkpt>
      <trkpt lat="46.91612" lon="8.6456">
        <ele>1001</ele>
        <time>2021-08-07T11:30:15.731Z</time>
      </trkpt>
      <trkpt lat="46.91612" lon="8.64559">
        <ele>1001</ele>
        <time>2021-08-07T11:30:16.731Z</time>
      </trkpt>
      <trkpt lat="46.91614" lon="8.64559">
        <ele>1000</ele>
        <time>2021-08-07T11:30:17.731Z</time>
      </trkpt>
      <trkpt lat="46.91615" lon="8.64558">
        <ele>999</ele>
        <time>2021-08-07T11:30:18.731Z</time>
      </trkpt>
      <trkpt lat="46.91615" lon="8.64556">
        <ele>999</ele>
        <time>2021-08-07T11:30:19.732Z</time>
      </trkpt>
      <trkpt lat="46.91616" lon="8.64554">
        <ele>998</ele>
        <time>2021-08-07T11:30:20.731Z</time>
      </trkpt>
      <trkpt lat="46.91615" lon="8.64552">
        <ele>997</ele>
        <time>2021-08-07T11:30:21.731Z</time>
      </trkpt>
      <trkpt lat="46.91615" lon="8.6455">
        <ele>997</ele>
        <time>2021-08-07T11:30:22.731Z</time>
      </trkpt>
      <trkpt lat="46.91614" lon="8.64549">
        <ele>996</ele>
        <time>2021-08-07T11:30:41.835Z</time>
      </trkpt>
      <trkpt lat="46.91614" lon="8.64548">
        <ele>996</ele>
        <time>2021-08-07T11:30:42.835Z</time>
      </trkpt>
      <trkpt lat="46.91614" lon="8.64546">
        <ele>995</ele>
        <time>2021-08-07T11:30:43.835Z</time>
      </trkpt>
      <trkpt lat="46.91615" lon="8.64545">
        <ele>994</ele>
        <time>2021-08-07T11:30:44.836Z</time>
      </trkpt>
      <trkpt lat="46.91616" lon="8.64545">
        <ele>994</ele>
        <time>2021-08-07T11:30:45.835Z</time>
      </trkpt>
      <trkpt lat="46.91617" lon="8.64544">
        <ele>993</ele>
        <time>2021-08-07T11:30:46.835Z</time>
      </trkpt>
      <trkpt lat="46.91618" lon="8.64545">
        <ele>993</ele>
        <time>2021-08-07T11:30:47.835Z</time>
      </trkpt>
      <trkpt lat="46.91618" lon="8.64544">
        <ele>993</ele>
        <time>2021-08-07T11:30:48.835Z</time>
      </trkpt>
      <trkpt lat="46.91618" lon="8.64543">
        <ele>992</ele>
        <time>2021-08-07T11:30:51.834Z</time>
      </trkpt>
      <trkpt lat="46.91618" lon="8.64542">
        <ele>992</ele>
        <time>2021-08-07T11:30:52.834Z</time>
      </trkpt>
      <trkpt lat="46.91618" lon="8.64541">
        <ele>991</ele>
        <time>2021-08-07T11:30:53.834Z</time>
      </trkpt>
      <trkpt lat="46.91614" lon="8.64535">
        <ele>990</ele>
        <time>2021-08-07T11:30:54.835Z</time>
      </trkpt>
      <trkpt lat="46.91613" lon="8.64533">
        <ele>990</ele>
        <time>2021-08-07T11:30:55.834Z</time>
      </trkpt>
      <trkpt lat="46.91613" lon="8.6453">
        <ele>990</ele>
        <time>2021-08-07T11:30:56.834Z</time>
      </trkpt>
      <trkpt lat="46.91613" lon="8.6453">
        <ele>990</ele>
        <time>2021-08-07T11:30:57.835Z</time>
      </trkpt>
      <trkpt lat="46.91613" lon="8.64529">
        <ele>990</ele>
        <time>2021-08-07T11:30:58.835Z</time>
      </trkpt>
      <trkpt lat="46.91612" lon="8.64529">
        <ele>990</ele>
        <time>2021-08-07T11:30:59.834Z</time>
      </trkpt>
      <trkpt lat="46.91612" lon="8.64528">
        <ele>989</ele>
        <time>2021-08-07T11:31:00.834Z</time>
      </trkpt>
      <trkpt lat="46.91612" lon="8.64527">
        <ele>989</ele>
        <time>2021-08-07T11:31:01.834Z</time>
      </trkpt>
      <trkpt lat="46.91612" lon="8.64526">
        <ele>989</ele>
        <time>2021-08-07T11:31:02.835Z</time>
      </trkpt>
      <trkpt lat="46.91612" lon="8.64526">
        <ele>988</ele>
        <time>2021-08-07T11:31:03.835Z</time>
      </trkpt>
      <trkpt lat="46.91612" lon="8.64526">
        <ele>988</ele>
        <time>2021-08-07T11:31:04.834Z</time>
      </trkpt>
      <trkpt lat="46.91612" lon="8.64526">
        <ele>987</ele>
        <time>2021-08-07T11:31:05.834Z</time>
      </trkpt>
      <trkpt lat="46.91611" lon="8.64525">
        <ele>986</ele>
        <time>2021-08-07T11:31:06.835Z</time>
      </trkpt>
      <trkpt lat="46.91611" lon="8.64523">
        <ele>985</ele>
        <time>2021-08-07T11:31:07.834Z</time>
      </trkpt>
      <trkpt lat="46.91611" lon="8.64522">
        <ele>984</ele>
        <time>2021-08-07T11:31:08.835Z</time>
      </trkpt>
      <trkpt lat="46.91611" lon="8.64521">
        <ele>984</ele>
        <time>2021-08-07T11:31:09.834Z</time>
      </trkpt>
      <trkpt lat="46.91611" lon="8.6452">
        <ele>983</ele>
        <time>2021-08-07T11:31:10.834Z</time>
      </trkpt>
      <trkpt lat="46.91612" lon="8.64519">
        <ele>983</ele>
        <time>2021-08-07T11:31:11.834Z</time>
      </trkpt>
      <trkpt lat="46.91611" lon="8.64518">
        <ele>982</ele>
        <time>2021-08-07T11:31:12.834Z</time>
      </trkpt>
      <trkpt lat="46.91612" lon="8.64517">
        <ele>981</ele>
        <time>2021-08-07T11:31:13.834Z</time>
      </trkpt>
      <trkpt lat="46.91611" lon="8.64517">
        <ele>981</ele>
        <time>2021-08-07T11:31:14.834Z</time>
      </trkpt>
      <trkpt lat="46.91611" lon="8.64515">
        <ele>980</ele>
        <time>2021-08-07T11:31:15.834Z</time>
      </trkpt>
      <trkpt lat="46.91611" lon="8.64515">
        <ele>980</ele>
        <time>2021-08-07T11:31:16.834Z</time>
      </trkpt>
      <trkpt lat="46.9161" lon="8.64514">
        <ele>979</ele>
        <time>2021-08-07T11:31:17.835Z</time>
      </trkpt>
      <trkpt lat="46.91611" lon="8.64514">
        <ele>979</ele>
        <time>2021-08-07T11:31:18.834Z</time>
      </trkpt>
      <trkpt lat="46.91611" lon="8.64514">
        <ele>978</ele>
        <time>2021-08-07T11:31:19.834Z</time>
      </trkpt>
      <trkpt lat="46.91611" lon="8.64514">
        <ele>978</ele>
        <time>2021-08-07T11:31:20.834Z</time>
      </trkpt>
      <trkpt lat="46.9161" lon="8.64514">
        <ele>977</ele>
        <time>2021-08-07T11:31:21.834Z</time>
      </trkpt>
      <trkpt lat="46.91609" lon="8.64513">
        <ele>977</ele>
        <time>2021-08-07T11:31:22.835Z</time>
      </trkpt>
      <trkpt lat="46.91609" lon="8.64513">
        <ele>977</ele>
        <time>2021-08-07T11:31:23.834Z</time>
      </trkpt>
      <trkpt lat="46.91608" lon="8.64512">
        <ele>977</ele>
        <time>2021-08-07T11:31:24.835Z</time>
      </trkpt>
      <trkpt lat="46.91607" lon="8.64511">
        <ele>976</ele>
        <time>2021-08-07T11:31:25.834Z</time>
      </trkpt>
      <trkpt lat="46.91607" lon="8.64511">
        <ele>976</ele>
        <time>2021-08-07T11:31:26.834Z</time>
      </trkpt>
      <trkpt lat="46.91607" lon="8.6451">
        <ele>976</ele>
        <time>2021-08-07T11:31:27.835Z</time>
      </trkpt>
      <trkpt lat="46.91607" lon="8.64508">
        <ele>976</ele>
        <time>2021-08-07T11:31:33.962Z</time>
      </trkpt>
      <trkpt lat="46.91607" lon="8.64506">
        <ele>976</ele>
        <time>2021-08-07T11:31:41.855Z</time>
      </trkpt>
      <trkpt lat="46.91607" lon="8.64505">
        <ele>976</ele>
        <time>2021-08-07T11:31:42.855Z</time>
      </trkpt>
      <trkpt lat="46.91606" lon="8.64502">
        <ele>976</ele>
        <time>2021-08-07T11:31:43.855Z</time>
      </trkpt>
      <trkpt lat="46.91606" lon="8.645">
        <ele>976</ele>
        <time>2021-08-07T11:31:44.855Z</time>
      </trkpt>
      <trkpt lat="46.91606" lon="8.64498">
        <ele>975</ele>
        <time>2021-08-07T11:31:45.855Z</time>
      </trkpt>
      <trkpt lat="46.91606" lon="8.64496">
        <ele>975</ele>
        <time>2021-08-07T11:31:46.856Z</time>
      </trkpt>
      <trkpt lat="46.91605" lon="8.64495">
        <ele>975</ele>
        <time>2021-08-07T11:31:47.856Z</time>
      </trkpt>
      <trkpt lat="46.91605" lon="8.64493">
        <ele>975</ele>
        <time>2021-08-07T11:31:48.855Z</time>
      </trkpt>
      <trkpt lat="46.91604" lon="8.64491">
        <ele>975</ele>
        <time>2021-08-07T11:31:49.856Z</time>
      </trkpt>
      <trkpt lat="46.91603" lon="8.6449">
        <ele>974</ele>
        <time>2021-08-07T11:31:50.855Z</time>
      </trkpt>
      <trkpt lat="46.91603" lon="8.64489">
        <ele>974</ele>
        <time>2021-08-07T11:31:51.856Z</time>
      </trkpt>
      <trkpt lat="46.91603" lon="8.64489">
        <ele>973</ele>
        <time>2021-08-07T11:31:52.856Z</time>
      </trkpt>
      <trkpt lat="46.91603" lon="8.6449">
        <ele>973</ele>
        <time>2021-08-07T11:31:53.856Z</time>
      </trkpt>
      <trkpt lat="46.91602" lon="8.6449">
        <ele>972</ele>
        <time>2021-08-07T11:31:54.856Z</time>
      </trkpt>
      <trkpt lat="46.91602" lon="8.6449">
        <ele>972</ele>
        <time>2021-08-07T11:31:55.856Z</time>
      </trkpt>
      <trkpt lat="46.91601" lon="8.6449">
        <ele>972</ele>
        <time>2021-08-07T11:31:56.856Z</time>
      </trkpt>
      <trkpt lat="46.91601" lon="8.6449">
        <ele>971</ele>
        <time>2021-08-07T11:31:57.855Z</time>
      </trkpt>
      <trkpt lat="46.91601" lon="8.64489">
        <ele>971</ele>
        <time>2021-08-07T11:31:58.856Z</time>
      </trkpt>
      <trkpt lat="46.91601" lon="8.64489">
        <ele>970</ele>
        <time>2021-08-07T11:31:59.855Z</time>
      </trkpt>
      <trkpt lat="46.91601" lon="8.64489">
        <ele>970</ele>
        <time>2021-08-07T11:32:00.856Z</time>
      </trkpt>
      <trkpt lat="46.91602" lon="8.64489">
        <ele>969</ele>
        <time>2021-08-07T11:32:01.855Z</time>
      </trkpt>
      <trkpt lat="46.91602" lon="8.64489">
        <ele>969</ele>
        <time>2021-08-07T11:32:02.856Z</time>
      </trkpt>
      <trkpt lat="46.91602" lon="8.64489">
        <ele>968</ele>
        <time>2021-08-07T11:32:03.856Z</time>
      </trkpt>
      <trkpt lat="46.91603" lon="8.64489">
        <ele>968</ele>
        <time>2021-08-07T11:32:04.856Z</time>
      </trkpt>
      <trkpt lat="46.91603" lon="8.64489">
        <ele>967</ele>
        <time>2021-08-07T11:32:05.856Z</time>
      </trkpt>
      <trkpt lat="46.91602" lon="8.64488">
        <ele>967</ele>
        <time>2021-08-07T11:32:06.855Z</time>
      </trkpt>
      <trkpt lat="46.91602" lon="8.64488">
        <ele>967</ele>
        <time>2021-08-07T11:32:07.856Z</time>
      </trkpt>
      <trkpt lat="46.91602" lon="8.64487">
        <ele>967</ele>
        <time>2021-08-07T11:32:08.856Z</time>
      </trkpt>
      <trkpt lat="46.91602" lon="8.64486">
        <ele>966</ele>
        <time>2021-08-07T11:32:09.855Z</time>
      </trkpt>
      <trkpt lat="46.91602" lon="8.64484">
        <ele>966</ele>
        <time>2021-08-07T11:32:10.856Z</time>
      </trkpt>
      <trkpt lat="46.91601" lon="8.64483">
        <ele>966</ele>
        <time>2021-08-07T11:32:11.856Z</time>
      </trkpt>
      <trkpt lat="46.91601" lon="8.64482">
        <ele>967</ele>
        <time>2021-08-07T11:32:12.857Z</time>
      </trkpt>
      <trkpt lat="46.91601" lon="8.64483">
        <ele>966</ele>
        <time>2021-08-07T11:32:13.857Z</time>
      </trkpt>
      <trkpt lat="46.91602" lon="8.64483">
        <ele>966</ele>
        <time>2021-08-07T11:32:14.857Z</time>
      </trkpt>
      <trkpt lat="46.91602" lon="8.64483">
        <ele>966</ele>
        <time>2021-08-07T11:32:15.856Z</time>
      </trkpt>
      <trkpt lat="46.91602" lon="8.64484">
        <ele>966</ele>
        <time>2021-08-07T11:32:16.856Z</time>
      </trkpt>
      <trkpt lat="46.91602" lon="8.64484">
        <ele>966</ele>
        <time>2021-08-07T11:32:17.856Z</time>
      </trkpt>
      <trkpt lat="46.91602" lon="8.64484">
        <ele>966</ele>
        <time>2021-08-07T11:32:18.857Z</time>
      </trkpt>
      <trkpt lat="46.91601" lon="8.64483">
        <ele>966</ele>
        <time>2021-08-07T11:32:19.856Z</time>
      </trkpt>
      <trkpt lat="46.91601" lon="8.64483">
        <ele>966</ele>
        <time>2021-08-07T11:32:20.857Z</time>
      </trkpt>
      <trkpt lat="46.91602" lon="8.64482">
        <ele>966</ele>
        <time>2021-08-07T11:32:21.857Z</time>
      </trkpt>
      <trkpt lat="46.91601" lon="8.64479">
        <ele>966</ele>
        <time>2021-08-07T11:32:22.856Z</time>
      </trkpt>
      <trkpt lat="46.916" lon="8.64477">
        <ele>966</ele>
        <time>2021-08-07T11:32:23.857Z</time>
      </trkpt>
      <trkpt lat="46.916" lon="8.64475">
        <ele>965</ele>
        <time>2021-08-07T11:32:24.856Z</time>
      </trkpt>
      <trkpt lat="46.91601" lon="8.64473">
        <ele>965</ele>
        <time>2021-08-07T11:32:25.857Z</time>
      </trkpt>
      <trkpt lat="46.91601" lon="8.64471">
        <ele>965</ele>
        <time>2021-08-07T11:32:26.857Z</time>
      </trkpt>
      <trkpt lat="46.916" lon="8.64468">
        <ele>965</ele>
        <time>2021-08-07T11:32:27.856Z</time>
      </trkpt>
      <trkpt lat="46.916" lon="8.64466">
        <ele>965</ele>
        <time>2021-08-07T11:32:28.857Z</time>
      </trkpt>
      <trkpt lat="46.916" lon="8.64465">
        <ele>965</ele>
        <time>2021-08-07T11:32:29.857Z</time>
      </trkpt>
      <trkpt lat="46.916" lon="8.64462">
        <ele>965</ele>
        <time>2021-08-07T11:32:30.857Z</time>
      </trkpt>
      <trkpt lat="46.91599" lon="8.64458">
        <ele>965</ele>
        <time>2021-08-07T11:32:31.857Z</time>
      </trkpt>
      <trkpt lat="46.91598" lon="8.64455">
        <ele>965</ele>
        <time>2021-08-07T11:32:32.857Z</time>
      </trkpt>
      <trkpt lat="46.91596" lon="8.64451">
        <ele>965</ele>
        <time>2021-08-07T11:32:33.857Z</time>
      </trkpt>
      <trkpt lat="46.91595" lon="8.64448">
        <ele>965</ele>
        <time>2021-08-07T11:32:34.856Z</time>
      </trkpt>
      <trkpt lat="46.91594" lon="8.64447">
        <ele>964</ele>
        <time>2021-08-07T11:32:35.856Z</time>
      </trkpt>
      <trkpt lat="46.91593" lon="8.64446">
        <ele>964</ele>
        <time>2021-08-07T11:32:36.856Z</time>
      </trkpt>
      <trkpt lat="46.91593" lon="8.64445">
        <ele>964</ele>
        <time>2021-08-07T11:32:37.857Z</time>
      </trkpt>
      <trkpt lat="46.91593" lon="8.64444">
        <ele>964</ele>
        <time>2021-08-07T11:32:38.856Z</time>
      </trkpt>
      <trkpt lat="46.91592" lon="8.64443">
        <ele>964</ele>
        <time>2021-08-07T11:32:39.856Z</time>
      </trkpt>
      <trkpt lat="46.91592" lon="8.64442">
        <ele>964</ele>
        <time>2021-08-07T11:32:40.856Z</time>
      </trkpt>
      <trkpt lat="46.91591" lon="8.64441">
        <ele>964</ele>
        <time>2021-08-07T11:32:41.856Z</time>
      </trkpt>
      <trkpt lat="46.91591" lon="8.6444">
        <ele>964</ele>
        <time>2021-08-07T11:32:42.856Z</time>
      </trkpt>
      <trkpt lat="46.9159" lon="8.64439">
        <ele>963</ele>
        <time>2021-08-07T11:32:43.856Z</time>
      </trkpt>
      <trkpt lat="46.91591" lon="8.64438">
        <ele>963</ele>
        <time>2021-08-07T11:32:44.856Z</time>
      </trkpt>
      <trkpt lat="46.9159" lon="8.64438">
        <ele>963</ele>
        <time>2021-08-07T11:32:45.856Z</time>
      </trkpt>
      <trkpt lat="46.91591" lon="8.64438">
        <ele>962</ele>
        <time>2021-08-07T11:32:46.857Z</time>
      </trkpt>
      <trkpt lat="46.91591" lon="8.64438">
        <ele>962</ele>
        <time>2021-08-07T11:32:47.857Z</time>
      </trkpt>
      <trkpt lat="46.91592" lon="8.64438">
        <ele>961</ele>
        <time>2021-08-07T11:32:48.858Z</time>
      </trkpt>
      <trkpt lat="46.91592" lon="8.64438">
        <ele>961</ele>
        <time>2021-08-07T11:32:49.857Z</time>
      </trkpt>
      <trkpt lat="46.91592" lon="8.64437">
        <ele>961</ele>
        <time>2021-08-07T11:32:50.857Z</time>
      </trkpt>
      <trkpt lat="46.91592" lon="8.64436">
        <ele>960</ele>
        <time>2021-08-07T11:32:51.857Z</time>
      </trkpt>
      <trkpt lat="46.91592" lon="8.64435">
        <ele>960</ele>
        <time>2021-08-07T11:32:52.857Z</time>
      </trkpt>
      <trkpt lat="46.91592" lon="8.64435">
        <ele>960</ele>
        <time>2021-08-07T11:32:53.858Z</time>
      </trkpt>
      <trkpt lat="46.91591" lon="8.64434">
        <ele>960</ele>
        <time>2021-08-07T11:32:54.858Z</time>
      </trkpt>
      <trkpt lat="46.91591" lon="8.64432">
        <ele>960</ele>
        <time>2021-08-07T11:32:55.858Z</time>
      </trkpt>
      <trkpt lat="46.91592" lon="8.64431">
        <ele>960</ele>
        <time>2021-08-07T11:32:56.857Z</time>
      </trkpt>
      <trkpt lat="46.91592" lon="8.6443">
        <ele>959</ele>
        <time>2021-08-07T11:32:57.857Z</time>
      </trkpt>
      <trkpt lat="46.91592" lon="8.64429">
        <ele>959</ele>
        <time>2021-08-07T11:32:58.857Z</time>
      </trkpt>
      <trkpt lat="46.91592" lon="8.64429">
        <ele>959</ele>
        <time>2021-08-07T11:32:59.858Z</time>
      </trkpt>
      <trkpt lat="46.91593" lon="8.64429">
        <ele>959</ele>
        <time>2021-08-07T11:33:00.857Z</time>
      </trkpt>
      <trkpt lat="46.91594" lon="8.64429">
        <ele>959</ele>
        <time>2021-08-07T11:33:01.857Z</time>
      </trkpt>
      <trkpt lat="46.91595" lon="8.64428">
        <ele>959</ele>
        <time>2021-08-07T11:33:02.858Z</time>
      </trkpt>
      <trkpt lat="46.91597" lon="8.64428">
        <ele>959</ele>
        <time>2021-08-07T11:33:03.857Z</time>
      </trkpt>
      <trkpt lat="46.91598" lon="8.64427">
        <ele>958</ele>
        <time>2021-08-07T11:33:04.858Z</time>
      </trkpt>
      <trkpt lat="46.91598" lon="8.64426">
        <ele>958</ele>
        <time>2021-08-07T11:33:05.858Z</time>
      </trkpt>
      <trkpt lat="46.91599" lon="8.64426">
        <ele>958</ele>
        <time>2021-08-07T11:33:06.858Z</time>
      </trkpt>
      <trkpt lat="46.91599" lon="8.64426">
        <ele>958</ele>
        <time>2021-08-07T11:33:07.858Z</time>
      </trkpt>
      <trkpt lat="46.91598" lon="8.64427">
        <ele>957</ele>
        <time>2021-08-07T11:33:08.857Z</time>
      </trkpt>
      <trkpt lat="46.91598" lon="8.64426">
        <ele>957</ele>
        <time>2021-08-07T11:33:09.857Z</time>
      </trkpt>
      <trkpt lat="46.916" lon="8.64426">
        <ele>956</ele>
        <time>2021-08-07T11:33:10.857Z</time>
      </trkpt>
      <trkpt lat="46.916" lon="8.64426">
        <ele>956</ele>
        <time>2021-08-07T11:33:11.858Z</time>
      </trkpt>
      <trkpt lat="46.91601" lon="8.64427">
        <ele>955</ele>
        <time>2021-08-07T11:33:12.858Z</time>
      </trkpt>
      <trkpt lat="46.91602" lon="8.64428">
        <ele>955</ele>
        <time>2021-08-07T11:33:13.858Z</time>
      </trkpt>
      <trkpt lat="46.91603" lon="8.64428">
        <ele>955</ele>
        <time>2021-08-07T11:33:14.858Z</time>
      </trkpt>
      <trkpt lat="46.91603" lon="8.64428">
        <ele>955</ele>
        <time>2021-08-07T11:33:15.858Z</time>
      </trkpt>
      <trkpt lat="46.91604" lon="8.64427">
        <ele>955</ele>
        <time>2021-08-07T11:33:16.858Z</time>
      </trkpt>
      <trkpt lat="46.91605" lon="8.64426">
        <ele>955</ele>
        <time>2021-08-07T11:33:17.857Z</time>
      </trkpt>
      <trkpt lat="46.91606" lon="8.64426">
        <ele>956</ele>
        <time>2021-08-07T11:33:18.858Z</time>
      </trkpt>
      <trkpt lat="46.91607" lon="8.64425">
        <ele>956</ele>
        <time>2021-08-07T11:33:19.858Z</time>
      </trkpt>
      <trkpt lat="46.91607" lon="8.64425">
        <ele>957</ele>
        <time>2021-08-07T11:33:20.858Z</time>
      </trkpt>
      <trkpt lat="46.91608" lon="8.64425">
        <ele>957</ele>
        <time>2021-08-07T11:33:21.857Z</time>
      </trkpt>
      <trkpt lat="46.91608" lon="8.64425">
        <ele>957</ele>
        <time>2021-08-07T11:33:22.858Z</time>
      </trkpt>
      <trkpt lat="46.91607" lon="8.64424">
        <ele>957</ele>
        <time>2021-08-07T11:33:23.857Z</time>
      </trkpt>
      <trkpt lat="46.91607" lon="8.64424">
        <ele>957</ele>
        <time>2021-08-07T11:33:24.857Z</time>
      </trkpt>
      <trkpt lat="46.91607" lon="8.64423">
        <ele>957</ele>
        <time>2021-08-07T11:33:25.857Z</time>
      </trkpt>
      <trkpt lat="46.91606" lon="8.64423">
        <ele>957</ele>
        <time>2021-08-07T11:33:26.857Z</time>
      </trkpt>
      <trkpt lat="46.91606" lon="8.64422">
        <ele>957</ele>
        <time>2021-08-07T11:33:27.857Z</time>
      </trkpt>
      <trkpt lat="46.91606" lon="8.64422">
        <ele>957</ele>
        <time>2021-08-07T11:33:28.857Z</time>
      </trkpt>
      <trkpt lat="46.91605" lon="8.64421">
        <ele>957</ele>
        <time>2021-08-07T11:33:29.858Z</time>
      </trkpt>
      <trkpt lat="46.91605" lon="8.6442">
        <ele>956</ele>
        <time>2021-08-07T11:33:30.858Z</time>
      </trkpt>
      <trkpt lat="46.91605" lon="8.6442">
        <ele>956</ele>
        <time>2021-08-07T11:33:31.858Z</time>
      </trkpt>
      <trkpt lat="46.91604" lon="8.64419">
        <ele>956</ele>
        <time>2021-08-07T11:33:32.858Z</time>
      </trkpt>
      <trkpt lat="46.91603" lon="8.64418">
        <ele>956</ele>
        <time>2021-08-07T11:33:33.858Z</time>
      </trkpt>
      <trkpt lat="46.91601" lon="8.64417">
        <ele>955</ele>
        <time>2021-08-07T11:33:34.858Z</time>
      </trkpt>
      <trkpt lat="46.916" lon="8.64415">
        <ele>955</ele>
        <time>2021-08-07T11:33:35.857Z</time>
      </trkpt>
      <trkpt lat="46.91598" lon="8.64414">
        <ele>955</ele>
        <time>2021-08-07T11:33:36.857Z</time>
      </trkpt>
      <trkpt lat="46.91598" lon="8.64412">
        <ele>954</ele>
        <time>2021-08-07T11:33:37.857Z</time>
      </trkpt>
      <trkpt lat="46.91597" lon="8.64411">
        <ele>954</ele>
        <time>2021-08-07T11:33:38.857Z</time>
      </trkpt>
      <trkpt lat="46.91597" lon="8.6441">
        <ele>954</ele>
        <time>2021-08-07T11:33:39.857Z</time>
      </trkpt>
      <trkpt lat="46.91597" lon="8.6441">
        <ele>954</ele>
        <time>2021-08-07T11:33:40.858Z</time>
      </trkpt>
      <trkpt lat="46.91596" lon="8.6441">
        <ele>954</ele>
        <time>2021-08-07T11:33:41.857Z</time>
      </trkpt>
      <trkpt lat="46.91596" lon="8.6441">
        <ele>953</ele>
        <time>2021-08-07T11:33:42.857Z</time>
      </trkpt>
      <trkpt lat="46.91596" lon="8.6441">
        <ele>953</ele>
        <time>2021-08-07T11:33:43.857Z</time>
      </trkpt>
      <trkpt lat="46.91596" lon="8.6441">
        <ele>953</ele>
        <time>2021-08-07T11:33:44.858Z</time>
      </trkpt>
      <trkpt lat="46.91597" lon="8.64409">
        <ele>952</ele>
        <time>2021-08-07T11:33:45.858Z</time>
      </trkpt>
      <trkpt lat="46.91598" lon="8.64408">
        <ele>952</ele>
        <time>2021-08-07T11:33:46.858Z</time>
      </trkpt>
      <trkpt lat="46.91598" lon="8.64408">
        <ele>952</ele>
        <time>2021-08-07T11:33:47.858Z</time>
      </trkpt>
      <trkpt lat="46.91599" lon="8.64408">
        <ele>951</ele>
        <time>2021-08-07T11:33:48.857Z</time>
      </trkpt>
      <trkpt lat="46.91599" lon="8.64407">
        <ele>951</ele>
        <time>2021-08-07T11:33:49.857Z</time>
      </trkpt>
      <trkpt lat="46.916" lon="8.64406">
        <ele>951</ele>
        <time>2021-08-07T11:33:50.858Z</time>
      </trkpt>
      <trkpt lat="46.91599" lon="8.64404">
        <ele>951</ele>
        <time>2021-08-07T11:33:51.858Z</time>
      </trkpt>
      <trkpt lat="46.91598" lon="8.64401">
        <ele>951</ele>
        <time>2021-08-07T11:33:52.857Z</time>
      </trkpt>
      <trkpt lat="46.91596" lon="8.64399">
        <ele>951</ele>
        <time>2021-08-07T11:33:53.858Z</time>
      </trkpt>
      <trkpt lat="46.91594" lon="8.64397">
        <ele>951</ele>
        <time>2021-08-07T11:33:54.857Z</time>
      </trkpt>
      <trkpt lat="46.91593" lon="8.64396">
        <ele>951</ele>
        <time>2021-08-07T11:33:55.858Z</time>
      </trkpt>
      <trkpt lat="46.91592" lon="8.64396">
        <ele>951</ele>
        <time>2021-08-07T11:33:56.857Z</time>
      </trkpt>
      <trkpt lat="46.91591" lon="8.64396">
        <ele>952</ele>
        <time>2021-08-07T11:33:57.858Z</time>
      </trkpt>
      <trkpt lat="46.91591" lon="8.64395">
        <ele>952</ele>
        <time>2021-08-07T11:33:58.857Z</time>
      </trkpt>
      <trkpt lat="46.91591" lon="8.64395">
        <ele>952</ele>
        <time>2021-08-07T11:33:59.858Z</time>
      </trkpt>
      <trkpt lat="46.91591" lon="8.64394">
        <ele>952</ele>
        <time>2021-08-07T11:34:00.858Z</time>
      </trkpt>
      <trkpt lat="46.91591" lon="8.64393">
        <ele>952</ele>
        <time>2021-08-07T11:34:01.858Z</time>
      </trkpt>
      <trkpt lat="46.9159" lon="8.64393">
        <ele>951</ele>
        <time>2021-08-07T11:34:02.857Z</time>
      </trkpt>
      <trkpt lat="46.9159" lon="8.64393">
        <ele>951</ele>
        <time>2021-08-07T11:34:03.857Z</time>
      </trkpt>
      <trkpt lat="46.9159" lon="8.64393">
        <ele>951</ele>
        <time>2021-08-07T11:34:04.858Z</time>
      </trkpt>
      <trkpt lat="46.91591" lon="8.64393">
        <ele>951</ele>
        <time>2021-08-07T11:34:05.858Z</time>
      </trkpt>
      <trkpt lat="46.91591" lon="8.64392">
        <ele>950</ele>
        <time>2021-08-07T11:34:06.858Z</time>
      </trkpt>
      <trkpt lat="46.91592" lon="8.6439">
        <ele>950</ele>
        <time>2021-08-07T11:34:07.857Z</time>
      </trkpt>
      <trkpt lat="46.91592" lon="8.64388">
        <ele>950</ele>
        <time>2021-08-07T11:34:08.857Z</time>
      </trkpt>
      <trkpt lat="46.91592" lon="8.64386">
        <ele>950</ele>
        <time>2021-08-07T11:34:09.858Z</time>
      </trkpt>
      <trkpt lat="46.91591" lon="8.64386">
        <ele>949</ele>
        <time>2021-08-07T11:34:10.858Z</time>
      </trkpt>
      <trkpt lat="46.91591" lon="8.64386">
        <ele>949</ele>
        <time>2021-08-07T11:34:11.858Z</time>
      </trkpt>
      <trkpt lat="46.9159" lon="8.64387">
        <ele>948</ele>
        <time>2021-08-07T11:34:12.857Z</time>
      </trkpt>
      <trkpt lat="46.9159" lon="8.64386">
        <ele>947</ele>
        <time>2021-08-07T11:34:13.858Z</time>
      </trkpt>
      <trkpt lat="46.9159" lon="8.64385">
        <ele>946</ele>
        <time>2021-08-07T11:34:14.857Z</time>
      </trkpt>
      <trkpt lat="46.91591" lon="8.64384">
        <ele>946</ele>
        <time>2021-08-07T11:34:15.858Z</time>
      </trkpt>
      <trkpt lat="46.91592" lon="8.64384">
        <ele>945</ele>
        <time>2021-08-07T11:34:16.857Z</time>
      </trkpt>
      <trkpt lat="46.91592" lon="8.64384">
        <ele>945</ele>
        <time>2021-08-07T11:34:17.857Z</time>
      </trkpt>
      <trkpt lat="46.91592" lon="8.64383">
        <ele>944</ele>
        <time>2021-08-07T11:34:18.859Z</time>
      </trkpt>
      <trkpt lat="46.91591" lon="8.64382">
        <ele>943</ele>
        <time>2021-08-07T11:34:19.859Z</time>
      </trkpt>
      <trkpt lat="46.91592" lon="8.64382">
        <ele>943</ele>
        <time>2021-08-07T11:34:20.858Z</time>
      </trkpt>
      <trkpt lat="46.91592" lon="8.64381">
        <ele>943</ele>
        <time>2021-08-07T11:34:21.859Z</time>
      </trkpt>
      <trkpt lat="46.91593" lon="8.6438">
        <ele>943</ele>
        <time>2021-08-07T11:34:22.859Z</time>
      </trkpt>
      <trkpt lat="46.91594" lon="8.6438">
        <ele>942</ele>
        <time>2021-08-07T11:34:23.859Z</time>
      </trkpt>
      <trkpt lat="46.91595" lon="8.64381">
        <ele>942</ele>
        <time>2021-08-07T11:34:24.858Z</time>
      </trkpt>
      <trkpt lat="46.91596" lon="8.64382">
        <ele>941</ele>
        <time>2021-08-07T11:34:25.858Z</time>
      </trkpt>
      <trkpt lat="46.91597" lon="8.64383">
        <ele>941</ele>
        <time>2021-08-07T11:34:26.859Z</time>
      </trkpt>
      <trkpt lat="46.91597" lon="8.64382">
        <ele>940</ele>
        <time>2021-08-07T11:34:27.859Z</time>
      </trkpt>
      <trkpt lat="46.91596" lon="8.64382">
        <ele>939</ele>
        <time>2021-08-07T11:34:28.858Z</time>
      </trkpt>
      <trkpt lat="46.91596" lon="8.64382">
        <ele>938</ele>
        <time>2021-08-07T11:34:29.858Z</time>
      </trkpt>
      <trkpt lat="46.91595" lon="8.64382">
        <ele>938</ele>
        <time>2021-08-07T11:34:30.859Z</time>
      </trkpt>
      <trkpt lat="46.91595" lon="8.64382">
        <ele>937</ele>
        <time>2021-08-07T11:34:31.858Z</time>
      </trkpt>
      <trkpt lat="46.91594" lon="8.64381">
        <ele>937</ele>
        <time>2021-08-07T11:34:32.859Z</time>
      </trkpt>
      <trkpt lat="46.91593" lon="8.6438">
        <ele>936</ele>
        <time>2021-08-07T11:34:33.859Z</time>
      </trkpt>
      <trkpt lat="46.91593" lon="8.64379">
        <ele>936</ele>
        <time>2021-08-07T11:34:34.858Z</time>
      </trkpt>
      <trkpt lat="46.91593" lon="8.64378">
        <ele>935</ele>
        <time>2021-08-07T11:34:35.859Z</time>
      </trkpt>
      <trkpt lat="46.91593" lon="8.64377">
        <ele>935</ele>
        <time>2021-08-07T11:34:36.859Z</time>
      </trkpt>
      <trkpt lat="46.91592" lon="8.64377">
        <ele>934</ele>
        <time>2021-08-07T11:34:37.859Z</time>
      </trkpt>
      <trkpt lat="46.91592" lon="8.64376">
        <ele>933</ele>
        <time>2021-08-07T11:34:38.859Z</time>
      </trkpt>
      <trkpt lat="46.91591" lon="8.64376">
        <ele>933</ele>
        <time>2021-08-07T11:34:39.859Z</time>
      </trkpt>
      <trkpt lat="46.91591" lon="8.64376">
        <ele>932</ele>
        <time>2021-08-07T11:34:40.859Z</time>
      </trkpt>
      <trkpt lat="46.9159" lon="8.64375">
        <ele>932</ele>
        <time>2021-08-07T11:34:41.858Z</time>
      </trkpt>
      <trkpt lat="46.9159" lon="8.64376">
        <ele>932</ele>
        <time>2021-08-07T11:34:42.859Z</time>
      </trkpt>
      <trkpt lat="46.91591" lon="8.64376">
        <ele>932</ele>
        <time>2021-08-07T11:34:43.858Z</time>
      </trkpt>
      <trkpt lat="46.91591" lon="8.64375">
        <ele>932</ele>
        <time>2021-08-07T11:34:44.859Z</time>
      </trkpt>
      <trkpt lat="46.91591" lon="8.64373">
        <ele>931</ele>
        <time>2021-08-07T11:34:45.858Z</time>
      </trkpt>
      <trkpt lat="46.91591" lon="8.64372">
        <ele>931</ele>
        <time>2021-08-07T11:34:46.859Z</time>
      </trkpt>
      <trkpt lat="46.91591" lon="8.64371">
        <ele>931</ele>
        <time>2021-08-07T11:34:47.859Z</time>
      </trkpt>
      <trkpt lat="46.91592" lon="8.64371">
        <ele>931</ele>
        <time>2021-08-07T11:34:48.858Z</time>
      </trkpt>
      <trkpt lat="46.91592" lon="8.64371">
        <ele>931</ele>
        <time>2021-08-07T11:34:49.859Z</time>
      </trkpt>
      <trkpt lat="46.91593" lon="8.64372">
        <ele>931</ele>
        <time>2021-08-07T11:34:50.859Z</time>
      </trkpt>
      <trkpt lat="46.91593" lon="8.64373">
        <ele>931</ele>
        <time>2021-08-07T11:34:51.858Z</time>
      </trkpt>
      <trkpt lat="46.91594" lon="8.64373">
        <ele>930</ele>
        <time>2021-08-07T11:34:52.858Z</time>
      </trkpt>
      <trkpt lat="46.91594" lon="8.64373">
        <ele>930</ele>
        <time>2021-08-07T11:34:53.858Z</time>
      </trkpt>
      <trkpt lat="46.91595" lon="8.64373">
        <ele>930</ele>
        <time>2021-08-07T11:34:54.859Z</time>
      </trkpt>
      <trkpt lat="46.91595" lon="8.64373">
        <ele>930</ele>
        <time>2021-08-07T11:34:55.858Z</time>
      </trkpt>
      <trkpt lat="46.91596" lon="8.64372">
        <ele>930</ele>
        <time>2021-08-07T11:34:56.860Z</time>
      </trkpt>
      <trkpt lat="46.91595" lon="8.64371">
        <ele>930</ele>
        <time>2021-08-07T11:34:57.860Z</time>
      </trkpt>
      <trkpt lat="46.91595" lon="8.64369">
        <ele>929</ele>
        <time>2021-08-07T11:34:58.859Z</time>
      </trkpt>
      <trkpt lat="46.91595" lon="8.64369">
        <ele>929</ele>
        <time>2021-08-07T11:34:59.860Z</time>
      </trkpt>
      <trkpt lat="46.91595" lon="8.64368">
        <ele>929</ele>
        <time>2021-08-07T11:35:00.859Z</time>
      </trkpt>
      <trkpt lat="46.91594" lon="8.64367">
        <ele>929</ele>
        <time>2021-08-07T11:35:01.860Z</time>
      </trkpt>
      <trkpt lat="46.91594" lon="8.64366">
        <ele>928</ele>
        <time>2021-08-07T11:35:02.860Z</time>
      </trkpt>
      <trkpt lat="46.91594" lon="8.64365">
        <ele>928</ele>
        <time>2021-08-07T11:35:03.860Z</time>
      </trkpt>
      <trkpt lat="46.91594" lon="8.64364">
        <ele>928</ele>
        <time>2021-08-07T11:35:04.860Z</time>
      </trkpt>
      <trkpt lat="46.91594" lon="8.64363">
        <ele>928</ele>
        <time>2021-08-07T11:35:05.860Z</time>
      </trkpt>
      <trkpt lat="46.91594" lon="8.64362">
        <ele>927</ele>
        <time>2021-08-07T11:35:06.860Z</time>
      </trkpt>
      <trkpt lat="46.91594" lon="8.64361">
        <ele>927</ele>
        <time>2021-08-07T11:35:07.860Z</time>
      </trkpt>
      <trkpt lat="46.91594" lon="8.6436">
        <ele>927</ele>
        <time>2021-08-07T11:35:08.859Z</time>
      </trkpt>
      <trkpt lat="46.91594" lon="8.64361">
        <ele>926</ele>
        <time>2021-08-07T11:35:09.860Z</time>
      </trkpt>
      <trkpt lat="46.91596" lon="8.64362">
        <ele>926</ele>
        <time>2021-08-07T11:35:10.860Z</time>
      </trkpt>
      <trkpt lat="46.91596" lon="8.64363">
        <ele>925</ele>
        <time>2021-08-07T11:35:11.859Z</time>
      </trkpt>
      <trkpt lat="46.91596" lon="8.64365">
        <ele>925</ele>
        <time>2021-08-07T11:35:12.860Z</time>
      </trkpt>
      <trkpt lat="46.91597" lon="8.64366">
        <ele>924</ele>
        <time>2021-08-07T11:35:13.860Z</time>
      </trkpt>
      <trkpt lat="46.91597" lon="8.64366">
        <ele>923</ele>
        <time>2021-08-07T11:35:14.859Z</time>
      </trkpt>
      <trkpt lat="46.91598" lon="8.64366">
        <ele>923</ele>
        <time>2021-08-07T11:35:15.860Z</time>
      </trkpt>
      <trkpt lat="46.91598" lon="8.64367">
        <ele>922</ele>
        <time>2021-08-07T11:35:16.860Z</time>
      </trkpt>
      <trkpt lat="46.91598" lon="8.64367">
        <ele>922</ele>
        <time>2021-08-07T11:35:17.859Z</time>
      </trkpt>
      <trkpt lat="46.91599" lon="8.64367">
        <ele>921</ele>
        <time>2021-08-07T11:35:18.859Z</time>
      </trkpt>
      <trkpt lat="46.91599" lon="8.64366">
        <ele>921</ele>
        <time>2021-08-07T11:35:19.860Z</time>
      </trkpt>
      <trkpt lat="46.91599" lon="8.64364">
        <ele>921</ele>
        <time>2021-08-07T11:35:20.859Z</time>
      </trkpt>
      <trkpt lat="46.91599" lon="8.64363">
        <ele>921</ele>
        <time>2021-08-07T11:35:21.860Z</time>
      </trkpt>
      <trkpt lat="46.91599" lon="8.64362">
        <ele>921</ele>
        <time>2021-08-07T11:35:22.859Z</time>
      </trkpt>
      <trkpt lat="46.91599" lon="8.64361">
        <ele>921</ele>
        <time>2021-08-07T11:35:23.859Z</time>
      </trkpt>
      <trkpt lat="46.91598" lon="8.6436">
        <ele>920</ele>
        <time>2021-08-07T11:35:24.860Z</time>
      </trkpt>
      <trkpt lat="46.91598" lon="8.6436">
        <ele>920</ele>
        <time>2021-08-07T11:35:25.860Z</time>
      </trkpt>
      <trkpt lat="46.91597" lon="8.6436">
        <ele>919</ele>
        <time>2021-08-07T11:35:26.859Z</time>
      </trkpt>
      <trkpt lat="46.91597" lon="8.64359">
        <ele>919</ele>
        <time>2021-08-07T11:35:27.859Z</time>
      </trkpt>
      <trkpt lat="46.91596" lon="8.64359">
        <ele>918</ele>
        <time>2021-08-07T11:35:28.859Z</time>
      </trkpt>
      <trkpt lat="46.91596" lon="8.64359">
        <ele>918</ele>
        <time>2021-08-07T11:35:29.859Z</time>
      </trkpt>
      <trkpt lat="46.91596" lon="8.64358">
        <ele>917</ele>
        <time>2021-08-07T11:35:30.860Z</time>
      </trkpt>
      <trkpt lat="46.91597" lon="8.64356">
        <ele>916</ele>
        <time>2021-08-07T11:35:31.861Z</time>
      </trkpt>
      <trkpt lat="46.91596" lon="8.64356">
        <ele>916</ele>
        <time>2021-08-07T11:35:32.861Z</time>
      </trkpt>
      <trkpt lat="46.91596" lon="8.64355">
        <ele>916</ele>
        <time>2021-08-07T11:35:33.860Z</time>
      </trkpt>
      <trkpt lat="46.91595" lon="8.64353">
        <ele>916</ele>
        <time>2021-08-07T11:35:34.860Z</time>
      </trkpt>
      <trkpt lat="46.91594" lon="8.64351">
        <ele>915</ele>
        <time>2021-08-07T11:35:35.861Z</time>
      </trkpt>
      <trkpt lat="46.91592" lon="8.64349">
        <ele>915</ele>
        <time>2021-08-07T11:35:36.860Z</time>
      </trkpt>
      <trkpt lat="46.91591" lon="8.64349">
        <ele>914</ele>
        <time>2021-08-07T11:35:37.860Z</time>
      </trkpt>
      <trkpt lat="46.91591" lon="8.64349">
        <ele>914</ele>
        <time>2021-08-07T11:35:38.861Z</time>
      </trkpt>
      <trkpt lat="46.9159" lon="8.64349">
        <ele>913</ele>
        <time>2021-08-07T11:35:39.861Z</time>
      </trkpt>
      <trkpt lat="46.91589" lon="8.64349">
        <ele>913</ele>
        <time>2021-08-07T11:35:40.861Z</time>
      </trkpt>
      <trkpt lat="46.91588" lon="8.64349">
        <ele>913</ele>
        <time>2021-08-07T11:35:41.861Z</time>
      </trkpt>
      <trkpt lat="46.91587" lon="8.64348">
        <ele>913</ele>
        <time>2021-08-07T11:35:42.860Z</time>
      </trkpt>
      <trkpt lat="46.91587" lon="8.64347">
        <ele>913</ele>
        <time>2021-08-07T11:35:43.860Z</time>
      </trkpt>
      <trkpt lat="46.91587" lon="8.64346">
        <ele>913</ele>
        <time>2021-08-07T11:35:44.860Z</time>
      </trkpt>
      <trkpt lat="46.91586" lon="8.64345">
        <ele>913</ele>
        <time>2021-08-07T11:35:45.861Z</time>
      </trkpt>
      <trkpt lat="46.91585" lon="8.64344">
        <ele>913</ele>
        <time>2021-08-07T11:35:46.860Z</time>
      </trkpt>
      <trkpt lat="46.91585" lon="8.64344">
        <ele>913</ele>
        <time>2021-08-07T11:35:47.860Z</time>
      </trkpt>
      <trkpt lat="46.91584" lon="8.64343">
        <ele>913</ele>
        <time>2021-08-07T11:35:48.860Z</time>
      </trkpt>
      <trkpt lat="46.91584" lon="8.64342">
        <ele>913</ele>
        <time>2021-08-07T11:36:03.956Z</time>
      </trkpt>
      <trkpt lat="46.91583" lon="8.6434">
        <ele>913</ele>
        <time>2021-08-07T11:36:04.956Z</time>
      </trkpt>
      <trkpt lat="46.91583" lon="8.64339">
        <ele>912</ele>
        <time>2021-08-07T11:36:18.713Z</time>
      </trkpt>
      <trkpt lat="46.91582" lon="8.64338">
        <ele>912</ele>
        <time>2021-08-07T11:36:19.713Z</time>
      </trkpt>
      <trkpt lat="46.91583" lon="8.64339">
        <ele>912</ele>
        <time>2021-08-07T11:36:20.713Z</time>
      </trkpt>
      <trkpt lat="46.91583" lon="8.64341">
        <ele>911</ele>
        <time>2021-08-07T11:36:21.713Z</time>
      </trkpt>
      <trkpt lat="46.91583" lon="8.64342">
        <ele>911</ele>
        <time>2021-08-07T11:36:24.816Z</time>
      </trkpt>
      <trkpt lat="46.91583" lon="8.64343">
        <ele>910</ele>
        <time>2021-08-07T11:36:25.816Z</time>
      </trkpt>
      <trkpt lat="46.91584" lon="8.64344">
        <ele>910</ele>
        <time>2021-08-07T11:36:26.817Z</time>
      </trkpt>
      <trkpt lat="46.91583" lon="8.64343">
        <ele>909</ele>
        <time>2021-08-07T11:36:35.731Z</time>
      </trkpt>
      <trkpt lat="46.91582" lon="8.64342">
        <ele>909</ele>
        <time>2021-08-07T11:36:36.731Z</time>
      </trkpt>
      <trkpt lat="46.91581" lon="8.64343">
        <ele>909</ele>
        <time>2021-08-07T11:36:37.731Z</time>
      </trkpt>
      <trkpt lat="46.9158" lon="8.64343">
        <ele>909</ele>
        <time>2021-08-07T11:36:38.732Z</time>
      </trkpt>
      <trkpt lat="46.91579" lon="8.64342">
        <ele>908</ele>
        <time>2021-08-07T11:36:39.731Z</time>
      </trkpt>
      <trkpt lat="46.91578" lon="8.64342">
        <ele>908</ele>
        <time>2021-08-07T11:36:43.838Z</time>
      </trkpt>
      <trkpt lat="46.91577" lon="8.64341">
        <ele>908</ele>
        <time>2021-08-07T11:36:44.838Z</time>
      </trkpt>
      <trkpt lat="46.91576" lon="8.64342">
        <ele>907</ele>
        <time>2021-08-07T11:36:45.838Z</time>
      </trkpt>
      <trkpt lat="46.91575" lon="8.64343">
        <ele>907</ele>
        <time>2021-08-07T11:36:48.966Z</time>
      </trkpt>
      <trkpt lat="46.91574" lon="8.64344">
        <ele>906</ele>
        <time>2021-08-07T11:36:49.966Z</time>
      </trkpt>
      <trkpt lat="46.91574" lon="8.64344">
        <ele>906</ele>
        <time>2021-08-07T11:36:50.966Z</time>
      </trkpt>
      <trkpt lat="46.91574" lon="8.64344">
        <ele>906</ele>
        <time>2021-08-07T11:36:51.965Z</time>
      </trkpt>
      <trkpt lat="46.91575" lon="8.64344">
        <ele>906</ele>
        <time>2021-08-07T11:36:52.966Z</time>
      </trkpt>
      <trkpt lat="46.91575" lon="8.64343">
        <ele>905</ele>
        <time>2021-08-07T11:36:53.966Z</time>
      </trkpt>
      <trkpt lat="46.91574" lon="8.64342">
        <ele>905</ele>
        <time>2021-08-07T11:36:54.965Z</time>
      </trkpt>
      <trkpt lat="46.91574" lon="8.64341">
        <ele>905</ele>
        <time>2021-08-07T11:36:55.966Z</time>
      </trkpt>
      <trkpt lat="46.91574" lon="8.64339">
        <ele>905</ele>
        <time>2021-08-07T11:36:56.966Z</time>
      </trkpt>
      <trkpt lat="46.91575" lon="8.6434">
        <ele>904</ele>
        <time>2021-08-07T11:36:57.966Z</time>
      </trkpt>
      <trkpt lat="46.91574" lon="8.64339">
        <ele>904</ele>
        <time>2021-08-07T11:36:58.966Z</time>
      </trkpt>
      <trkpt lat="46.91573" lon="8.64338">
        <ele>904</ele>
        <time>2021-08-07T11:36:59.966Z</time>
      </trkpt>
      <trkpt lat="46.91573" lon="8.64337">
        <ele>903</ele>
        <time>2021-08-07T11:37:00.966Z</time>
      </trkpt>
      <trkpt lat="46.91573" lon="8.64336">
        <ele>903</ele>
        <time>2021-08-07T11:37:01.966Z</time>
      </trkpt>
      <trkpt lat="46.91574" lon="8.64335">
        <ele>903</ele>
        <time>2021-08-07T11:37:02.966Z</time>
      </trkpt>
      <trkpt lat="46.91574" lon="8.64333">
        <ele>902</ele>
        <time>2021-08-07T11:37:03.965Z</time>
      </trkpt>
      <trkpt lat="46.91573" lon="8.64331">
        <ele>902</ele>
        <time>2021-08-07T11:37:04.965Z</time>
      </trkpt>
      <trkpt lat="46.91574" lon="8.6433">
        <ele>902</ele>
        <time>2021-08-07T11:37:09.069Z</time>
      </trkpt>
      <trkpt lat="46.91575" lon="8.6433">
        <ele>901</ele>
        <time>2021-08-07T11:37:10.815Z</time>
      </trkpt>
      <trkpt lat="46.91576" lon="8.6433">
        <ele>901</ele>
        <time>2021-08-07T11:37:11.814Z</time>
      </trkpt>
      <trkpt lat="46.91576" lon="8.64331">
        <ele>901</ele>
        <time>2021-08-07T11:37:12.814Z</time>
      </trkpt>
      <trkpt lat="46.91577" lon="8.64331">
        <ele>901</ele>
        <time>2021-08-07T11:37:13.814Z</time>
      </trkpt>
      <trkpt lat="46.91577" lon="8.64331">
        <ele>901</ele>
        <time>2021-08-07T11:37:14.814Z</time>
      </trkpt>
      <trkpt lat="46.91578" lon="8.64329">
        <ele>900</ele>
        <time>2021-08-07T11:37:15.814Z</time>
      </trkpt>
      <trkpt lat="46.9158" lon="8.64328">
        <ele>900</ele>
        <time>2021-08-07T11:37:16.814Z</time>
      </trkpt>
      <trkpt lat="46.9158" lon="8.64327">
        <ele>900</ele>
        <time>2021-08-07T11:37:17.814Z</time>
      </trkpt>
      <trkpt lat="46.91581" lon="8.64326">
        <ele>900</ele>
        <time>2021-08-07T11:37:18.815Z</time>
      </trkpt>
      <trkpt lat="46.91581" lon="8.64325">
        <ele>900</ele>
        <time>2021-08-07T11:37:19.815Z</time>
      </trkpt>
      <trkpt lat="46.9158" lon="8.64326">
        <ele>900</ele>
        <time>2021-08-07T11:37:20.814Z</time>
      </trkpt>
      <trkpt lat="46.9158" lon="8.64326">
        <ele>900</ele>
        <time>2021-08-07T11:37:21.815Z</time>
      </trkpt>
      <trkpt lat="46.91579" lon="8.64326">
        <ele>900</ele>
        <time>2021-08-07T11:37:22.815Z</time>
      </trkpt>
      <trkpt lat="46.9158" lon="8.64325">
        <ele>900</ele>
        <time>2021-08-07T11:37:23.815Z</time>
      </trkpt>
      <trkpt lat="46.91581" lon="8.64325">
        <ele>901</ele>
        <time>2021-08-07T11:37:24.814Z</time>
      </trkpt>
      <trkpt lat="46.91581" lon="8.64323">
        <ele>901</ele>
        <time>2021-08-07T11:37:25.815Z</time>
      </trkpt>
      <trkpt lat="46.91581" lon="8.64321">
        <ele>901</ele>
        <time>2021-08-07T11:37:26.815Z</time>
      </trkpt>
      <trkpt lat="46.91581" lon="8.6432">
        <ele>901</ele>
        <time>2021-08-07T11:37:27.815Z</time>
      </trkpt>
      <trkpt lat="46.91582" lon="8.64319">
        <ele>901</ele>
        <time>2021-08-07T11:37:28.814Z</time>
      </trkpt>
      <trkpt lat="46.91583" lon="8.64318">
        <ele>901</ele>
        <time>2021-08-07T11:37:29.815Z</time>
      </trkpt>
      <trkpt lat="46.91584" lon="8.64315">
        <ele>902</ele>
        <time>2021-08-07T11:37:30.815Z</time>
      </trkpt>
      <trkpt lat="46.91585" lon="8.64314">
        <ele>902</ele>
        <time>2021-08-07T11:37:31.815Z</time>
      </trkpt>
      <trkpt lat="46.91585" lon="8.64313">
        <ele>902</ele>
        <time>2021-08-07T11:37:32.814Z</time>
      </trkpt>
      <trkpt lat="46.91585" lon="8.64312">
        <ele>902</ele>
        <time>2021-08-07T11:37:33.814Z</time>
      </trkpt>
      <trkpt lat="46.91585" lon="8.64311">
        <ele>902</ele>
        <time>2021-08-07T11:37:34.815Z</time>
      </trkpt>
      <trkpt lat="46.91585" lon="8.64309">
        <ele>902</ele>
        <time>2021-08-07T11:37:35.814Z</time>
      </trkpt>
      <trkpt lat="46.91585" lon="8.64307">
        <ele>902</ele>
        <time>2021-08-07T11:37:36.814Z</time>
      </trkpt>
      <trkpt lat="46.91585" lon="8.64305">
        <ele>902</ele>
        <time>2021-08-07T11:37:37.814Z</time>
      </trkpt>
      <trkpt lat="46.91585" lon="8.64304">
        <ele>903</ele>
        <time>2021-08-07T11:37:38.815Z</time>
      </trkpt>
      <trkpt lat="46.91585" lon="8.64304">
        <ele>903</ele>
        <time>2021-08-07T11:37:39.815Z</time>
      </trkpt>
      <trkpt lat="46.91586" lon="8.64306">
        <ele>903</ele>
        <time>2021-08-07T11:37:40.814Z</time>
      </trkpt>
      <trkpt lat="46.91587" lon="8.64307">
        <ele>903</ele>
        <time>2021-08-07T11:37:41.815Z</time>
      </trkpt>
      <trkpt lat="46.91588" lon="8.64308">
        <ele>903</ele>
        <time>2021-08-07T11:37:42.815Z</time>
      </trkpt>
      <trkpt lat="46.91589" lon="8.64311">
        <ele>903</ele>
        <time>2021-08-07T11:37:43.815Z</time>
      </trkpt>
      <trkpt lat="46.9159" lon="8.64312">
        <ele>903</ele>
        <time>2021-08-07T11:37:44.815Z</time>
      </trkpt>
      <trkpt lat="46.91589" lon="8.6431">
        <ele>903</ele>
        <time>2021-08-07T11:37:45.815Z</time>
      </trkpt>
      <trkpt lat="46.91588" lon="8.64309">
        <ele>903</ele>
        <time>2021-08-07T11:37:46.815Z</time>
      </trkpt>
      <trkpt lat="46.91589" lon="8.64308">
        <ele>903</ele>
        <time>2021-08-07T11:37:47.815Z</time>
      </trkpt>
      <trkpt lat="46.91589" lon="8.64307">
        <ele>903</ele>
        <time>2021-08-07T11:37:48.814Z</time>
      </trkpt>
      <trkpt lat="46.9159" lon="8.64306">
        <ele>903</ele>
        <time>2021-08-07T11:37:49.814Z</time>
      </trkpt>
      <trkpt lat="46.91592" lon="8.64297">
        <ele>903</ele>
        <time>2021-08-07T11:37:53.814Z</time>
      </trkpt>
      <trkpt lat="46.91591" lon="8.64295">
        <ele>903</ele>
        <time>2021-08-07T11:37:54.814Z</time>
      </trkpt>
      <trkpt lat="46.91591" lon="8.64293">
        <ele>902</ele>
        <time>2021-08-07T11:37:55.815Z</time>
      </trkpt>
      <trkpt lat="46.91591" lon="8.64291">
        <ele>902</ele>
        <time>2021-08-07T11:37:56.815Z</time>
      </trkpt>
      <trkpt lat="46.91592" lon="8.6429">
        <ele>902</ele>
        <time>2021-08-07T11:37:57.814Z</time>
      </trkpt>
      <trkpt lat="46.91592" lon="8.64289">
        <ele>901</ele>
        <time>2021-08-07T11:37:58.814Z</time>
      </trkpt>
      <trkpt lat="46.91593" lon="8.64288">
        <ele>901</ele>
        <time>2021-08-07T11:37:59.815Z</time>
      </trkpt>
      <trkpt lat="46.91593" lon="8.64288">
        <ele>901</ele>
        <time>2021-08-07T11:38:00.815Z</time>
      </trkpt>
      <trkpt lat="46.91594" lon="8.64289">
        <ele>900</ele>
        <time>2021-08-07T11:38:01.815Z</time>
      </trkpt>
      <trkpt lat="46.91594" lon="8.6429">
        <ele>900</ele>
        <time>2021-08-07T11:38:02.814Z</time>
      </trkpt>
      <trkpt lat="46.91593" lon="8.64289">
        <ele>899</ele>
        <time>2021-08-07T11:38:03.814Z</time>
      </trkpt>
      <trkpt lat="46.91592" lon="8.6429">
        <ele>899</ele>
        <time>2021-08-07T11:38:04.814Z</time>
      </trkpt>
      <trkpt lat="46.91593" lon="8.6429">
        <ele>899</ele>
        <time>2021-08-07T11:38:05.815Z</time>
      </trkpt>
      <trkpt lat="46.91593" lon="8.6429">
        <ele>898</ele>
        <time>2021-08-07T11:38:06.815Z</time>
      </trkpt>
      <trkpt lat="46.91594" lon="8.64286">
        <ele>898</ele>
        <time>2021-08-07T11:38:07.814Z</time>
      </trkpt>
      <trkpt lat="46.91595" lon="8.64282">
        <ele>898</ele>
        <time>2021-08-07T11:38:08.814Z</time>
      </trkpt>
      <trkpt lat="46.91598" lon="8.64281">
        <ele>897</ele>
        <time>2021-08-07T11:38:09.815Z</time>
      </trkpt>
      <trkpt lat="46.91601" lon="8.64283">
        <ele>897</ele>
        <time>2021-08-07T11:38:10.814Z</time>
      </trkpt>
      <trkpt lat="46.91603" lon="8.64284">
        <ele>897</ele>
        <time>2021-08-07T11:38:11.814Z</time>
      </trkpt>
      <trkpt lat="46.91604" lon="8.64283">
        <ele>896</ele>
        <time>2021-08-07T11:38:12.814Z</time>
      </trkpt>
      <trkpt lat="46.91604" lon="8.64282">
        <ele>896</ele>
        <time>2021-08-07T11:38:13.814Z</time>
      </trkpt>
      <trkpt lat="46.91603" lon="8.64278">
        <ele>896</ele>
        <time>2021-08-07T11:38:14.814Z</time>
      </trkpt>
      <trkpt lat="46.91602" lon="8.64276">
        <ele>895</ele>
        <time>2021-08-07T11:38:15.814Z</time>
      </trkpt>
      <trkpt lat="46.91603" lon="8.64278">
        <ele>895</ele>
        <time>2021-08-07T11:38:16.815Z</time>
      </trkpt>
      <trkpt lat="46.91604" lon="8.6428">
        <ele>895</ele>
        <time>2021-08-07T11:38:17.814Z</time>
      </trkpt>
      <trkpt lat="46.91603" lon="8.64281">
        <ele>894</ele>
        <time>2021-08-07T11:38:18.814Z</time>
      </trkpt>
      <trkpt lat="46.91603" lon="8.64279">
        <ele>894</ele>
        <time>2021-08-07T11:38:20.915Z</time>
      </trkpt>
      <trkpt lat="46.91604" lon="8.64279">
        <ele>893</ele>
        <time>2021-08-07T11:38:21.916Z</time>
      </trkpt>
      <trkpt lat="46.91604" lon="8.64279">
        <ele>893</ele>
        <time>2021-08-07T11:38:22.915Z</time>
      </trkpt>
      <trkpt lat="46.91604" lon="8.64279">
        <ele>892</ele>
        <time>2021-08-07T11:38:29.947Z</time>
      </trkpt>
      <trkpt lat="46.91606" lon="8.64278">
        <ele>892</ele>
        <time>2021-08-07T11:38:30.947Z</time>
      </trkpt>
      <trkpt lat="46.91608" lon="8.64277">
        <ele>891</ele>
        <time>2021-08-07T11:38:31.947Z</time>
      </trkpt>
      <trkpt lat="46.91609" lon="8.64275">
        <ele>891</ele>
        <time>2021-08-07T11:38:32.947Z</time>
      </trkpt>
      <trkpt lat="46.91609" lon="8.64275">
        <ele>890</ele>
        <time>2021-08-07T11:38:33.947Z</time>
      </trkpt>
      <trkpt lat="46.91609" lon="8.64274">
        <ele>889</ele>
        <time>2021-08-07T11:38:34.947Z</time>
      </trkpt>
      <trkpt lat="46.91608" lon="8.64274">
        <ele>889</ele>
        <time>2021-08-07T11:38:35.947Z</time>
      </trkpt>
      <trkpt lat="46.91607" lon="8.64273">
        <ele>888</ele>
        <time>2021-08-07T11:38:36.947Z</time>
      </trkpt>
      <trkpt lat="46.91607" lon="8.64271">
        <ele>888</ele>
        <time>2021-08-07T11:38:42.070Z</time>
      </trkpt>
      <trkpt lat="46.91606" lon="8.6427">
        <ele>888</ele>
        <time>2021-08-07T11:38:43.070Z</time>
      </trkpt>
      <trkpt lat="46.91605" lon="8.64269">
        <ele>887</ele>
        <time>2021-08-07T11:38:44.070Z</time>
      </trkpt>
      <trkpt lat="46.91604" lon="8.64269">
        <ele>887</ele>
        <time>2021-08-07T11:39:00.075Z</time>
      </trkpt>
      <trkpt lat="46.91604" lon="8.64269">
        <ele>886</ele>
        <time>2021-08-07T11:39:01.075Z</time>
      </trkpt>
      <trkpt lat="46.91603" lon="8.64269">
        <ele>886</ele>
        <time>2021-08-07T11:39:02.076Z</time>
      </trkpt>
      <trkpt lat="46.91602" lon="8.6427">
        <ele>885</ele>
        <time>2021-08-07T11:39:03.075Z</time>
      </trkpt>
      <trkpt lat="46.91601" lon="8.64269">
        <ele>885</ele>
        <time>2021-08-07T11:39:09.186Z</time>
      </trkpt>
      <trkpt lat="46.91601" lon="8.64269">
        <ele>885</ele>
        <time>2021-08-07T11:39:10.187Z</time>
      </trkpt>
      <trkpt lat="46.91601" lon="8.64269">
        <ele>884</ele>
        <time>2021-08-07T11:39:18.100Z</time>
      </trkpt>
      <trkpt lat="46.91601" lon="8.64269">
        <ele>884</ele>
        <time>2021-08-07T11:39:41.952Z</time>
      </trkpt>
      <trkpt lat="46.91601" lon="8.64268">
        <ele>884</ele>
        <time>2021-08-07T11:39:54.827Z</time>
      </trkpt>
      <trkpt lat="46.91601" lon="8.64267">
        <ele>883</ele>
        <time>2021-08-07T11:39:55.828Z</time>
      </trkpt>
      <trkpt lat="46.91601" lon="8.64268">
        <ele>883</ele>
        <time>2021-08-07T11:39:56.828Z</time>
      </trkpt>
      <trkpt lat="46.91602" lon="8.64268">
        <ele>883</ele>
        <time>2021-08-07T11:40:03.967Z</time>
      </trkpt>
      <trkpt lat="46.91603" lon="8.64268">
        <ele>882</ele>
        <time>2021-08-07T11:40:04.967Z</time>
      </trkpt>
      <trkpt lat="46.91603" lon="8.64268">
        <ele>882</ele>
        <time>2021-08-07T11:40:05.967Z</time>
      </trkpt>
      <trkpt lat="46.91602" lon="8.64268">
        <ele>882</ele>
        <time>2021-08-07T11:40:06.967Z</time>
      </trkpt>
      <trkpt lat="46.91603" lon="8.64269">
        <ele>882</ele>
        <time>2021-08-07T11:40:07.966Z</time>
      </trkpt>
      <trkpt lat="46.91604" lon="8.64268">
        <ele>881</ele>
        <time>2021-08-07T11:40:08.966Z</time>
      </trkpt>
      <trkpt lat="46.91603" lon="8.64266">
        <ele>881</ele>
        <time>2021-08-07T11:40:09.967Z</time>
      </trkpt>
      <trkpt lat="46.91603" lon="8.64266">
        <ele>881</ele>
        <time>2021-08-07T11:40:10.966Z</time>
      </trkpt>
      <trkpt lat="46.91602" lon="8.64267">
        <ele>881</ele>
        <time>2021-08-07T11:40:11.967Z</time>
      </trkpt>
      <trkpt lat="46.91601" lon="8.64268">
        <ele>881</ele>
        <time>2021-08-07T11:40:12.967Z</time>
      </trkpt>
      <trkpt lat="46.91601" lon="8.64268">
        <ele>880</ele>
        <time>2021-08-07T11:40:13.967Z</time>
      </trkpt>
      <trkpt lat="46.91601" lon="8.64268">
        <ele>880</ele>
        <time>2021-08-07T11:40:14.967Z</time>
      </trkpt>
      <trkpt lat="46.91602" lon="8.64267">
        <ele>880</ele>
        <time>2021-08-07T11:40:15.967Z</time>
      </trkpt>
      <trkpt lat="46.91603" lon="8.64266">
        <ele>879</ele>
        <time>2021-08-07T11:40:16.967Z</time>
      </trkpt>
      <trkpt lat="46.91603" lon="8.64265">
        <ele>879</ele>
        <time>2021-08-07T11:40:28.077Z</time>
      </trkpt>
      <trkpt lat="46.91603" lon="8.64265">
        <ele>879</ele>
        <time>2021-08-07T11:40:29.078Z</time>
      </trkpt>
      <trkpt lat="46.91602" lon="8.64266">
        <ele>879</ele>
        <time>2021-08-07T11:40:30.078Z</time>
      </trkpt>
      <trkpt lat="46.916" lon="8.64266">
        <ele>878</ele>
        <time>2021-08-07T11:40:31.078Z</time>
      </trkpt>
      <trkpt lat="46.916" lon="8.64267">
        <ele>878</ele>
        <time>2021-08-07T11:40:32.078Z</time>
      </trkpt>
      <trkpt lat="46.91598" lon="8.64265">
        <ele>878</ele>
        <time>2021-08-07T11:40:33.078Z</time>
      </trkpt>
      <trkpt lat="46.91596" lon="8.64263">
        <ele>878</ele>
        <time>2021-08-07T11:40:34.078Z</time>
      </trkpt>
      <trkpt lat="46.91595" lon="8.64262">
        <ele>878</ele>
        <time>2021-08-07T11:40:35.077Z</time>
      </trkpt>
      <trkpt lat="46.91594" lon="8.64261">
        <ele>878</ele>
        <time>2021-08-07T11:40:38.198Z</time>
      </trkpt>
      <trkpt lat="46.91593" lon="8.6426">
        <ele>877</ele>
        <time>2021-08-07T11:40:57.092Z</time>
      </trkpt>
      <trkpt lat="46.91592" lon="8.64259">
        <ele>877</ele>
        <time>2021-08-07T11:40:58.092Z</time>
      </trkpt>
      <trkpt lat="46.91591" lon="8.64258">
        <ele>877</ele>
        <time>2021-08-07T11:40:59.092Z</time>
      </trkpt>
      <trkpt lat="46.91591" lon="8.64258">
        <ele>877</ele>
        <time>2021-08-07T11:41:00.091Z</time>
      </trkpt>
      <trkpt lat="46.91592" lon="8.64257">
        <ele>877</ele>
        <time>2021-08-07T11:41:01.092Z</time>
      </trkpt>
      <trkpt lat="46.91592" lon="8.64257">
        <ele>877</ele>
        <time>2021-08-07T11:41:02.092Z</time>
      </trkpt>
      <trkpt lat="46.91594" lon="8.64258">
        <ele>877</ele>
        <time>2021-08-07T11:41:03.092Z</time>
      </trkpt>
      <trkpt lat="46.91595" lon="8.64258">
        <ele>877</ele>
        <time>2021-08-07T11:41:04.091Z</time>
      </trkpt>
      <trkpt lat="46.91596" lon="8.64258">
        <ele>876</ele>
        <time>2021-08-07T11:41:05.092Z</time>
      </trkpt>
      <trkpt lat="46.91595" lon="8.64259">
        <ele>876</ele>
        <time>2021-08-07T11:41:06.091Z</time>
      </trkpt>
      <trkpt lat="46.91594" lon="8.64259">
        <ele>876</ele>
        <time>2021-08-07T11:41:07.092Z</time>
      </trkpt>
      <trkpt lat="46.91595" lon="8.64259">
        <ele>876</ele>
        <time>2021-08-07T11:41:08.091Z</time>
      </trkpt>
      <trkpt lat="46.91594" lon="8.6426">
        <ele>876</ele>
        <time>2021-08-07T11:41:09.091Z</time>
      </trkpt>
      <trkpt lat="46.91593" lon="8.6426">
        <ele>875</ele>
        <time>2021-08-07T11:41:10.092Z</time>
      </trkpt>
      <trkpt lat="46.91592" lon="8.64261">
        <ele>875</ele>
        <time>2021-08-07T11:41:11.092Z</time>
      </trkpt>
      <trkpt lat="46.91591" lon="8.64264">
        <ele>875</ele>
        <time>2021-08-07T11:41:12.092Z</time>
      </trkpt>
      <trkpt lat="46.91589" lon="8.64265">
        <ele>874</ele>
        <time>2021-08-07T11:41:13.092Z</time>
      </trkpt>
      <trkpt lat="46.91588" lon="8.64265">
        <ele>874</ele>
        <time>2021-08-07T11:41:14.092Z</time>
      </trkpt>
      <trkpt lat="46.91587" lon="8.64264">
        <ele>874</ele>
        <time>2021-08-07T11:41:15.092Z</time>
      </trkpt>
      <trkpt lat="46.91586" lon="8.64263">
        <ele>874</ele>
        <time>2021-08-07T11:41:16.092Z</time>
      </trkpt>
      <trkpt lat="46.91587" lon="8.64263">
        <ele>874</ele>
        <time>2021-08-07T11:41:17.092Z</time>
      </trkpt>
      <trkpt lat="46.91587" lon="8.64262">
        <ele>874</ele>
        <time>2021-08-07T11:41:18.092Z</time>
      </trkpt>
      <trkpt lat="46.91587" lon="8.64261">
        <ele>874</ele>
        <time>2021-08-07T11:41:19.092Z</time>
      </trkpt>
      <trkpt lat="46.91588" lon="8.64259">
        <ele>875</ele>
        <time>2021-08-07T11:41:20.092Z</time>
      </trkpt>
      <trkpt lat="46.91588" lon="8.64256">
        <ele>875</ele>
        <time>2021-08-07T11:41:21.092Z</time>
      </trkpt>
      <trkpt lat="46.91587" lon="8.64255">
        <ele>875</ele>
        <time>2021-08-07T11:41:22.092Z</time>
      </trkpt>
      <trkpt lat="46.91585" lon="8.64255">
        <ele>875</ele>
        <time>2021-08-07T11:41:23.092Z</time>
      </trkpt>
      <trkpt lat="46.91585" lon="8.64257">
        <ele>875</ele>
        <time>2021-08-07T11:41:24.092Z</time>
      </trkpt>
      <trkpt lat="46.91586" lon="8.64259">
        <ele>875</ele>
        <time>2021-08-07T11:41:25.092Z</time>
      </trkpt>
      <trkpt lat="46.91587" lon="8.64258">
        <ele>875</ele>
        <time>2021-08-07T11:41:26.092Z</time>
      </trkpt>
      <trkpt lat="46.91589" lon="8.64256">
        <ele>875</ele>
        <time>2021-08-07T11:41:27.092Z</time>
      </trkpt>
      <trkpt lat="46.91592" lon="8.64255">
        <ele>875</ele>
        <time>2021-08-07T11:41:28.092Z</time>
      </trkpt>
      <trkpt lat="46.91596" lon="8.64255">
        <ele>875</ele>
        <time>2021-08-07T11:41:29.091Z</time>
      </trkpt>
      <trkpt lat="46.916" lon="8.64255">
        <ele>875</ele>
        <time>2021-08-07T11:41:30.091Z</time>
      </trkpt>
      <trkpt lat="46.91604" lon="8.64256">
        <ele>875</ele>
        <time>2021-08-07T11:41:31.092Z</time>
      </trkpt>
      <trkpt lat="46.91607" lon="8.64256">
        <ele>874</ele>
        <time>2021-08-07T11:41:32.091Z</time>
      </trkpt>
      <trkpt lat="46.9161" lon="8.64257">
        <ele>874</ele>
        <time>2021-08-07T11:41:33.091Z</time>
      </trkpt>
      <trkpt lat="46.91612" lon="8.64258">
        <ele>874</ele>
        <time>2021-08-07T11:41:34.092Z</time>
      </trkpt>
      <trkpt lat="46.91613" lon="8.64258">
        <ele>874</ele>
        <time>2021-08-07T11:41:35.092Z</time>
      </trkpt>
      <trkpt lat="46.91614" lon="8.64258">
        <ele>874</ele>
        <time>2021-08-07T11:41:36.092Z</time>
      </trkpt>
      <trkpt lat="46.91615" lon="8.64258">
        <ele>874</ele>
        <time>2021-08-07T11:41:37.091Z</time>
      </trkpt>
      <trkpt lat="46.91614" lon="8.64258">
        <ele>874</ele>
        <time>2021-08-07T11:41:38.092Z</time>
      </trkpt>
      <trkpt lat="46.91612" lon="8.64257">
        <ele>874</ele>
        <time>2021-08-07T11:41:39.091Z</time>
      </trkpt>
      <trkpt lat="46.91611" lon="8.64257">
        <ele>874</ele>
        <time>2021-08-07T11:41:40.092Z</time>
      </trkpt>
      <trkpt lat="46.91609" lon="8.64257">
        <ele>874</ele>
        <time>2021-08-07T11:41:41.092Z</time>
      </trkpt>
      <trkpt lat="46.91608" lon="8.64257">
        <ele>874</ele>
        <time>2021-08-07T11:41:42.092Z</time>
      </trkpt>
      <trkpt lat="46.91606" lon="8.64258">
        <ele>874</ele>
        <time>2021-08-07T11:41:43.092Z</time>
      </trkpt>
      <trkpt lat="46.91605" lon="8.64259">
        <ele>874</ele>
        <time>2021-08-07T11:41:44.092Z</time>
      </trkpt>
      <trkpt lat="46.91604" lon="8.6426">
        <ele>873</ele>
        <time>2021-08-07T11:41:45.092Z</time>
      </trkpt>
      <trkpt lat="46.91603" lon="8.6426">
        <ele>873</ele>
        <time>2021-08-07T11:41:46.092Z</time>
      </trkpt>
      <trkpt lat="46.91601" lon="8.6426">
        <ele>873</ele>
        <time>2021-08-07T11:41:47.091Z</time>
      </trkpt>
      <trkpt lat="46.91599" lon="8.64259">
        <ele>873</ele>
        <time>2021-08-07T11:41:48.092Z</time>
      </trkpt>
      <trkpt lat="46.91598" lon="8.64258">
        <ele>873</ele>
        <time>2021-08-07T11:41:49.091Z</time>
      </trkpt>
      <trkpt lat="46.91597" lon="8.64258">
        <ele>872</ele>
        <time>2021-08-07T11:41:50.091Z</time>
      </trkpt>
      <trkpt lat="46.91595" lon="8.64257">
        <ele>872</ele>
        <time>2021-08-07T11:41:51.091Z</time>
      </trkpt>
      <trkpt lat="46.91594" lon="8.64256">
        <ele>872</ele>
        <time>2021-08-07T11:41:52.092Z</time>
      </trkpt>
      <trkpt lat="46.91594" lon="8.64255">
        <ele>872</ele>
        <time>2021-08-07T11:41:53.092Z</time>
      </trkpt>
      <trkpt lat="46.91592" lon="8.64255">
        <ele>872</ele>
        <time>2021-08-07T11:41:54.091Z</time>
      </trkpt>
      <trkpt lat="46.91591" lon="8.64255">
        <ele>871</ele>
        <time>2021-08-07T11:41:55.092Z</time>
      </trkpt>
      <trkpt lat="46.91589" lon="8.64256">
        <ele>871</ele>
        <time>2021-08-07T11:41:56.091Z</time>
      </trkpt>
      <trkpt lat="46.91588" lon="8.64257">
        <ele>871</ele>
        <time>2021-08-07T11:41:57.092Z</time>
      </trkpt>
      <trkpt lat="46.91588" lon="8.64257">
        <ele>871</ele>
        <time>2021-08-07T11:41:58.091Z</time>
      </trkpt>
      <trkpt lat="46.91586" lon="8.64255">
        <ele>871</ele>
        <time>2021-08-07T11:41:59.091Z</time>
      </trkpt>
      <trkpt lat="46.91585" lon="8.64253">
        <ele>870</ele>
        <time>2021-08-07T11:42:00.091Z</time>
      </trkpt>
      <trkpt lat="46.91585" lon="8.64252">
        <ele>870</ele>
        <time>2021-08-07T11:42:01.092Z</time>
      </trkpt>
      <trkpt lat="46.91586" lon="8.64252">
        <ele>870</ele>
        <time>2021-08-07T11:42:02.092Z</time>
      </trkpt>
      <trkpt lat="46.91586" lon="8.64252">
        <ele>870</ele>
        <time>2021-08-07T11:42:03.091Z</time>
      </trkpt>
      <trkpt lat="46.91586" lon="8.64252">
        <ele>870</ele>
        <time>2021-08-07T11:42:04.092Z</time>
      </trkpt>
      <trkpt lat="46.91587" lon="8.64253">
        <ele>869</ele>
        <time>2021-08-07T11:42:08.929Z</time>
      </trkpt>
      <trkpt lat="46.91586" lon="8.64253">
        <ele>869</ele>
        <time>2021-08-07T11:42:13.823Z</time>
      </trkpt>
      <trkpt lat="46.91585" lon="8.64253">
        <ele>869</ele>
        <time>2021-08-07T11:42:14.824Z</time>
      </trkpt>
      <trkpt lat="46.91584" lon="8.64254">
        <ele>869</ele>
        <time>2021-08-07T11:42:15.823Z</time>
      </trkpt>
      <trkpt lat="46.91583" lon="8.64253">
        <ele>869</ele>
        <time>2021-08-07T11:42:19.699Z</time>
      </trkpt>
      <trkpt lat="46.91582" lon="8.64252">
        <ele>869</ele>
        <time>2021-08-07T11:42:20.699Z</time>
      </trkpt>
      <trkpt lat="46.91581" lon="8.64252">
        <ele>869</ele>
        <time>2021-08-07T11:42:21.699Z</time>
      </trkpt>
      <trkpt lat="46.91581" lon="8.64252">
        <ele>869</ele>
        <time>2021-08-07T11:42:22.699Z</time>
      </trkpt>
      <trkpt lat="46.91581" lon="8.64252">
        <ele>869</ele>
        <time>2021-08-07T11:42:23.699Z</time>
      </trkpt>
      <trkpt lat="46.9158" lon="8.64251">
        <ele>869</ele>
        <time>2021-08-07T11:42:24.699Z</time>
      </trkpt>
      <trkpt lat="46.9158" lon="8.6425">
        <ele>869</ele>
        <time>2021-08-07T11:42:25.699Z</time>
      </trkpt>
      <trkpt lat="46.9158" lon="8.64248">
        <ele>869</ele>
        <time>2021-08-07T11:42:26.699Z</time>
      </trkpt>
      <trkpt lat="46.9158" lon="8.64246">
        <ele>868</ele>
        <time>2021-08-07T11:42:27.699Z</time>
      </trkpt>
      <trkpt lat="46.91581" lon="8.64244">
        <ele>868</ele>
        <time>2021-08-07T11:42:28.699Z</time>
      </trkpt>
      <trkpt lat="46.91583" lon="8.64242">
        <ele>868</ele>
        <time>2021-08-07T11:42:29.699Z</time>
      </trkpt>
      <trkpt lat="46.91585" lon="8.64242">
        <ele>868</ele>
        <time>2021-08-07T11:42:30.699Z</time>
      </trkpt>
      <trkpt lat="46.91586" lon="8.64242">
        <ele>868</ele>
        <time>2021-08-07T11:42:31.699Z</time>
      </trkpt>
      <trkpt lat="46.91585" lon="8.64242">
        <ele>868</ele>
        <time>2021-08-07T11:42:32.698Z</time>
      </trkpt>
      <trkpt lat="46.91584" lon="8.64242">
        <ele>868</ele>
        <time>2021-08-07T11:42:33.699Z</time>
      </trkpt>
      <trkpt lat="46.91584" lon="8.64242">
        <ele>868</ele>
        <time>2021-08-07T11:42:34.699Z</time>
      </trkpt>
      <trkpt lat="46.91583" lon="8.64242">
        <ele>868</ele>
        <time>2021-08-07T11:42:35.698Z</time>
      </trkpt>
      <trkpt lat="46.91582" lon="8.64242">
        <ele>868</ele>
        <time>2021-08-07T11:42:36.699Z</time>
      </trkpt>
      <trkpt lat="46.91582" lon="8.64243">
        <ele>868</ele>
        <time>2021-08-07T11:42:37.698Z</time>
      </trkpt>
      <trkpt lat="46.91581" lon="8.64243">
        <ele>868</ele>
        <time>2021-08-07T11:42:38.698Z</time>
      </trkpt>
      <trkpt lat="46.9158" lon="8.64243">
        <ele>867</ele>
        <time>2021-08-07T11:42:39.699Z</time>
      </trkpt>
      <trkpt lat="46.91581" lon="8.64242">
        <ele>867</ele>
        <time>2021-08-07T11:42:40.699Z</time>
      </trkpt>
      <trkpt lat="46.91581" lon="8.64243">
        <ele>867</ele>
        <time>2021-08-07T11:42:41.699Z</time>
      </trkpt>
      <trkpt lat="46.91582" lon="8.64243">
        <ele>867</ele>
        <time>2021-08-07T11:42:42.698Z</time>
      </trkpt>
      <trkpt lat="46.91583" lon="8.64243">
        <ele>867</ele>
        <time>2021-08-07T11:42:43.699Z</time>
      </trkpt>
      <trkpt lat="46.91582" lon="8.64242">
        <ele>867</ele>
        <time>2021-08-07T11:42:44.698Z</time>
      </trkpt>
      <trkpt lat="46.91582" lon="8.64241">
        <ele>867</ele>
        <time>2021-08-07T11:42:45.698Z</time>
      </trkpt>
      <trkpt lat="46.91582" lon="8.6424">
        <ele>867</ele>
        <time>2021-08-07T11:42:46.698Z</time>
      </trkpt>
      <trkpt lat="46.91582" lon="8.64239">
        <ele>867</ele>
        <time>2021-08-07T11:42:47.699Z</time>
      </trkpt>
      <trkpt lat="46.91583" lon="8.64237">
        <ele>867</ele>
        <time>2021-08-07T11:42:48.698Z</time>
      </trkpt>
      <trkpt lat="46.91584" lon="8.64236">
        <ele>867</ele>
        <time>2021-08-07T11:42:49.699Z</time>
      </trkpt>
      <trkpt lat="46.91585" lon="8.64235">
        <ele>868</ele>
        <time>2021-08-07T11:42:50.699Z</time>
      </trkpt>
      <trkpt lat="46.91585" lon="8.64234">
        <ele>868</ele>
        <time>2021-08-07T11:42:51.699Z</time>
      </trkpt>
      <trkpt lat="46.91585" lon="8.64234">
        <ele>868</ele>
        <time>2021-08-07T11:42:52.698Z</time>
      </trkpt>
      <trkpt lat="46.91585" lon="8.64233">
        <ele>868</ele>
        <time>2021-08-07T11:42:53.699Z</time>
      </trkpt>
      <trkpt lat="46.91585" lon="8.64233">
        <ele>868</ele>
        <time>2021-08-07T11:42:54.699Z</time>
      </trkpt>
      <trkpt lat="46.91584" lon="8.64234">
        <ele>868</ele>
        <time>2021-08-07T11:42:55.699Z</time>
      </trkpt>
      <trkpt lat="46.91584" lon="8.64235">
        <ele>868</ele>
        <time>2021-08-07T11:42:56.698Z</time>
      </trkpt>
      <trkpt lat="46.91584" lon="8.64234">
        <ele>868</ele>
        <time>2021-08-07T11:42:57.699Z</time>
      </trkpt>
      <trkpt lat="46.91584" lon="8.64233">
        <ele>868</ele>
        <time>2021-08-07T11:42:58.698Z</time>
      </trkpt>
      <trkpt lat="46.91585" lon="8.64232">
        <ele>867</ele>
        <time>2021-08-07T11:42:59.698Z</time>
      </trkpt>
      <trkpt lat="46.91585" lon="8.64231">
        <ele>867</ele>
        <time>2021-08-07T11:43:00.699Z</time>
      </trkpt>
      <trkpt lat="46.91585" lon="8.6423">
        <ele>866</ele>
        <time>2021-08-07T11:43:01.699Z</time>
      </trkpt>
      <trkpt lat="46.91585" lon="8.64229">
        <ele>865</ele>
        <time>2021-08-07T11:43:02.698Z</time>
      </trkpt>
      <trkpt lat="46.91585" lon="8.64229">
        <ele>864</ele>
        <time>2021-08-07T11:43:03.699Z</time>
      </trkpt>
      <trkpt lat="46.91585" lon="8.6423">
        <ele>860</ele>
        <time>2021-08-07T11:43:04.699Z</time>
      </trkpt>
      <trkpt lat="46.91586" lon="8.6423">
        <ele>859</ele>
        <time>2021-08-07T11:43:05.700Z</time>
      </trkpt>
      <trkpt lat="46.91586" lon="8.6423">
        <ele>859</ele>
        <time>2021-08-07T11:43:06.700Z</time>
      </trkpt>
      <trkpt lat="46.91586" lon="8.64228">
        <ele>856</ele>
        <time>2021-08-07T11:43:07.700Z</time>
      </trkpt>
      <trkpt lat="46.91586" lon="8.64228">
        <ele>855</ele>
        <time>2021-08-07T11:43:08.700Z</time>
      </trkpt>
      <trkpt lat="46.91586" lon="8.64227">
        <ele>855</ele>
        <time>2021-08-07T11:43:09.700Z</time>
      </trkpt>
      <trkpt lat="46.91583" lon="8.64215">
        <ele>853</ele>
        <time>2021-08-07T11:43:10.701Z</time>
      </trkpt>
      <trkpt lat="46.91583" lon="8.64214">
        <ele>854</ele>
        <time>2021-08-07T11:43:11.700Z</time>
      </trkpt>
      <trkpt lat="46.91582" lon="8.64213">
        <ele>854</ele>
        <time>2021-08-07T11:43:12.700Z</time>
      </trkpt>
      <trkpt lat="46.91582" lon="8.64212">
        <ele>855</ele>
        <time>2021-08-07T11:43:13.700Z</time>
      </trkpt>
      <trkpt lat="46.91583" lon="8.64212">
        <ele>856</ele>
        <time>2021-08-07T11:43:14.700Z</time>
      </trkpt>
      <trkpt lat="46.91584" lon="8.64211">
        <ele>857</ele>
        <time>2021-08-07T11:43:15.701Z</time>
      </trkpt>
      <trkpt lat="46.91584" lon="8.64211">
        <ele>858</ele>
        <time>2021-08-07T11:43:16.701Z</time>
      </trkpt>
      <trkpt lat="46.91584" lon="8.64211">
        <ele>858</ele>
        <time>2021-08-07T11:43:17.701Z</time>
      </trkpt>
      <trkpt lat="46.91584" lon="8.64211">
        <ele>858</ele>
        <time>2021-08-07T11:43:18.702Z</time>
      </trkpt>
      <trkpt lat="46.91583" lon="8.64211">
        <ele>858</ele>
        <time>2021-08-07T11:43:19.702Z</time>
      </trkpt>
      <trkpt lat="46.91581" lon="8.6421">
        <ele>859</ele>
        <time>2021-08-07T11:43:20.702Z</time>
      </trkpt>
      <trkpt lat="46.91581" lon="8.64211">
        <ele>860</ele>
        <time>2021-08-07T11:43:21.701Z</time>
      </trkpt>
      <trkpt lat="46.91582" lon="8.64212">
        <ele>860</ele>
        <time>2021-08-07T11:43:22.701Z</time>
      </trkpt>
      <trkpt lat="46.91582" lon="8.64213">
        <ele>859</ele>
        <time>2021-08-07T11:43:23.702Z</time>
      </trkpt>
      <trkpt lat="46.91582" lon="8.64213">
        <ele>859</ele>
        <time>2021-08-07T11:43:24.702Z</time>
      </trkpt>
      <trkpt lat="46.91582" lon="8.64214">
        <ele>859</ele>
        <time>2021-08-07T11:43:25.701Z</time>
      </trkpt>
      <trkpt lat="46.91582" lon="8.64215">
        <ele>858</ele>
        <time>2021-08-07T11:43:26.702Z</time>
      </trkpt>
      <trkpt lat="46.91582" lon="8.64216">
        <ele>858</ele>
        <time>2021-08-07T11:43:27.702Z</time>
      </trkpt>
      <trkpt lat="46.91582" lon="8.64216">
        <ele>858</ele>
        <time>2021-08-07T11:43:28.702Z</time>
      </trkpt>
      <trkpt lat="46.91582" lon="8.64216">
        <ele>857</ele>
        <time>2021-08-07T11:43:29.702Z</time>
      </trkpt>
      <trkpt lat="46.91582" lon="8.64215">
        <ele>857</ele>
        <time>2021-08-07T11:43:30.702Z</time>
      </trkpt>
      <trkpt lat="46.91581" lon="8.64214">
        <ele>857</ele>
        <time>2021-08-07T11:43:31.702Z</time>
      </trkpt>
      <trkpt lat="46.91581" lon="8.64213">
        <ele>857</ele>
        <time>2021-08-07T11:43:32.701Z</time>
      </trkpt>
      <trkpt lat="46.91581" lon="8.64212">
        <ele>857</ele>
        <time>2021-08-07T11:43:33.702Z</time>
      </trkpt>
      <trkpt lat="46.91579" lon="8.6421">
        <ele>859</ele>
        <time>2021-08-07T11:43:34.703Z</time>
      </trkpt>
      <trkpt lat="46.91579" lon="8.6421">
        <ele>859</ele>
        <time>2021-08-07T11:43:35.703Z</time>
      </trkpt>
      <trkpt lat="46.91579" lon="8.64212">
        <ele>859</ele>
        <time>2021-08-07T11:43:38.664Z</time>
      </trkpt>
      <trkpt lat="46.91579" lon="8.64213">
        <ele>859</ele>
        <time>2021-08-07T11:43:39.665Z</time>
      </trkpt>
      <trkpt lat="46.9158" lon="8.64214">
        <ele>859</ele>
        <time>2021-08-07T11:43:40.664Z</time>
      </trkpt>
      <trkpt lat="46.91581" lon="8.64215">
        <ele>859</ele>
        <time>2021-08-07T11:43:41.664Z</time>
      </trkpt>
      <trkpt lat="46.91582" lon="8.64214">
        <ele>859</ele>
        <time>2021-08-07T11:43:42.665Z</time>
      </trkpt>
      <trkpt lat="46.91582" lon="8.64214">
        <ele>859</ele>
        <time>2021-08-07T11:43:43.665Z</time>
      </trkpt>
      <trkpt lat="46.91583" lon="8.64214">
        <ele>860</ele>
        <time>2021-08-07T11:43:44.665Z</time>
      </trkpt>
      <trkpt lat="46.91584" lon="8.64215">
        <ele>860</ele>
        <time>2021-08-07T11:43:45.665Z</time>
      </trkpt>
      <trkpt lat="46.91584" lon="8.64215">
        <ele>860</ele>
        <time>2021-08-07T11:43:46.665Z</time>
      </trkpt>
      <trkpt lat="46.91584" lon="8.64214">
        <ele>860</ele>
        <time>2021-08-07T11:43:47.664Z</time>
      </trkpt>
      <trkpt lat="46.91584" lon="8.64214">
        <ele>860</ele>
        <time>2021-08-07T11:43:48.665Z</time>
      </trkpt>
      <trkpt lat="46.91586" lon="8.64214">
        <ele>861</ele>
        <time>2021-08-07T11:43:49.665Z</time>
      </trkpt>
      <trkpt lat="46.91586" lon="8.64214">
        <ele>861</ele>
        <time>2021-08-07T11:43:50.665Z</time>
      </trkpt>
      <trkpt lat="46.91586" lon="8.64215">
        <ele>861</ele>
        <time>2021-08-07T11:43:51.664Z</time>
      </trkpt>
      <trkpt lat="46.91586" lon="8.64215">
        <ele>861</ele>
        <time>2021-08-07T11:43:52.664Z</time>
      </trkpt>
      <trkpt lat="46.91587" lon="8.64215">
        <ele>861</ele>
        <time>2021-08-07T11:43:53.665Z</time>
      </trkpt>
      <trkpt lat="46.91587" lon="8.64215">
        <ele>861</ele>
        <time>2021-08-07T11:43:54.664Z</time>
      </trkpt>
      <trkpt lat="46.91585" lon="8.64214">
        <ele>860</ele>
        <time>2021-08-07T11:43:55.665Z</time>
      </trkpt>
      <trkpt lat="46.91583" lon="8.64213">
        <ele>860</ele>
        <time>2021-08-07T11:43:56.665Z</time>
      </trkpt>
      <trkpt lat="46.91582" lon="8.64212">
        <ele>860</ele>
        <time>2021-08-07T11:43:57.665Z</time>
      </trkpt>
      <trkpt lat="46.91582" lon="8.64212">
        <ele>860</ele>
        <time>2021-08-07T11:43:58.666Z</time>
      </trkpt>
      <trkpt lat="46.91582" lon="8.64211">
        <ele>860</ele>
        <time>2021-08-07T11:43:59.666Z</time>
      </trkpt>
      <trkpt lat="46.91582" lon="8.64212">
        <ele>860</ele>
        <time>2021-08-07T11:44:00.666Z</time>
      </trkpt>
      <trkpt lat="46.91582" lon="8.64212">
        <ele>860</ele>
        <time>2021-08-07T11:44:01.666Z</time>
      </trkpt>
      <trkpt lat="46.91581" lon="8.64213">
        <ele>860</ele>
        <time>2021-08-07T11:44:02.666Z</time>
      </trkpt>
      <trkpt lat="46.91581" lon="8.64214">
        <ele>860</ele>
        <time>2021-08-07T11:44:03.665Z</time>
      </trkpt>
      <trkpt lat="46.91581" lon="8.64215">
        <ele>860</ele>
        <time>2021-08-07T11:44:04.665Z</time>
      </trkpt>
      <trkpt lat="46.9158" lon="8.64216">
        <ele>861</ele>
        <time>2021-08-07T11:44:05.666Z</time>
      </trkpt>
      <trkpt lat="46.91579" lon="8.64217">
        <ele>861</ele>
        <time>2021-08-07T11:44:06.665Z</time>
      </trkpt>
      <trkpt lat="46.91578" lon="8.64218">
        <ele>861</ele>
        <time>2021-08-07T11:44:07.666Z</time>
      </trkpt>
      <trkpt lat="46.91577" lon="8.6422">
        <ele>861</ele>
        <time>2021-08-07T11:44:08.666Z</time>
      </trkpt>
      <trkpt lat="46.91576" lon="8.64221">
        <ele>861</ele>
        <time>2021-08-07T11:44:09.666Z</time>
      </trkpt>
      <trkpt lat="46.91576" lon="8.64223">
        <ele>861</ele>
        <time>2021-08-07T11:44:10.666Z</time>
      </trkpt>
      <trkpt lat="46.91576" lon="8.64224">
        <ele>861</ele>
        <time>2021-08-07T11:44:11.666Z</time>
      </trkpt>
      <trkpt lat="46.91576" lon="8.64225">
        <ele>861</ele>
        <time>2021-08-07T11:44:12.666Z</time>
      </trkpt>
      <trkpt lat="46.91576" lon="8.64226">
        <ele>861</ele>
        <time>2021-08-07T11:44:13.665Z</time>
      </trkpt>
      <trkpt lat="46.91576" lon="8.64227">
        <ele>861</ele>
        <time>2021-08-07T11:44:14.666Z</time>
      </trkpt>
      <trkpt lat="46.91577" lon="8.64227">
        <ele>861</ele>
        <time>2021-08-07T11:44:15.666Z</time>
      </trkpt>
      <trkpt lat="46.91577" lon="8.64227">
        <ele>861</ele>
        <time>2021-08-07T11:44:16.665Z</time>
      </trkpt>
      <trkpt lat="46.91577" lon="8.64228">
        <ele>861</ele>
        <time>2021-08-07T11:44:17.665Z</time>
      </trkpt>
      <trkpt lat="46.91578" lon="8.64228">
        <ele>861</ele>
        <time>2021-08-07T11:44:18.665Z</time>
      </trkpt>
      <trkpt lat="46.91578" lon="8.64228">
        <ele>861</ele>
        <time>2021-08-07T11:44:19.665Z</time>
      </trkpt>
      <trkpt lat="46.91578" lon="8.64227">
        <ele>861</ele>
        <time>2021-08-07T11:44:20.666Z</time>
      </trkpt>
      <trkpt lat="46.91578" lon="8.64227">
        <ele>860</ele>
        <time>2021-08-07T11:44:21.666Z</time>
      </trkpt>
      <trkpt lat="46.91576" lon="8.64227">
        <ele>860</ele>
        <time>2021-08-07T11:44:22.666Z</time>
      </trkpt>
      <trkpt lat="46.91576" lon="8.64227">
        <ele>860</ele>
        <time>2021-08-07T11:44:23.666Z</time>
      </trkpt>
      <trkpt lat="46.91575" lon="8.6423">
        <ele>862</ele>
        <time>2021-08-07T11:44:24.666Z</time>
      </trkpt>
      <trkpt lat="46.91574" lon="8.6423">
        <ele>862</ele>
        <time>2021-08-07T11:44:25.665Z</time>
      </trkpt>
      <trkpt lat="46.91574" lon="8.64231">
        <ele>862</ele>
        <time>2021-08-07T11:44:26.665Z</time>
      </trkpt>
      <trkpt lat="46.91574" lon="8.64232">
        <ele>861</ele>
        <time>2021-08-07T11:44:27.665Z</time>
      </trkpt>
      <trkpt lat="46.91574" lon="8.64232">
        <ele>861</ele>
        <time>2021-08-07T11:44:28.666Z</time>
      </trkpt>
      <trkpt lat="46.91574" lon="8.64233">
        <ele>861</ele>
        <time>2021-08-07T11:44:29.665Z</time>
      </trkpt>
      <trkpt lat="46.91575" lon="8.64235">
        <ele>860</ele>
        <time>2021-08-07T11:44:30.665Z</time>
      </trkpt>
      <trkpt lat="46.91579" lon="8.64237">
        <ele>857</ele>
        <time>2021-08-07T11:44:31.666Z</time>
      </trkpt>
      <trkpt lat="46.9158" lon="8.64236">
        <ele>857</ele>
        <time>2021-08-07T11:44:32.665Z</time>
      </trkpt>
      <trkpt lat="46.91582" lon="8.64236">
        <ele>856</ele>
        <time>2021-08-07T11:44:33.665Z</time>
      </trkpt>
      <trkpt lat="46.91582" lon="8.64236">
        <ele>856</ele>
        <time>2021-08-07T11:44:34.665Z</time>
      </trkpt>
      <trkpt lat="46.91583" lon="8.64236">
        <ele>855</ele>
        <time>2021-08-07T11:44:35.666Z</time>
      </trkpt>
      <trkpt lat="46.91583" lon="8.64237">
        <ele>855</ele>
        <time>2021-08-07T11:44:36.666Z</time>
      </trkpt>
      <trkpt lat="46.91584" lon="8.64238">
        <ele>855</ele>
        <time>2021-08-07T11:44:37.665Z</time>
      </trkpt>
      <trkpt lat="46.91584" lon="8.64238">
        <ele>854</ele>
        <time>2021-08-07T11:44:38.666Z</time>
      </trkpt>
      <trkpt lat="46.91584" lon="8.64239">
        <ele>854</ele>
        <time>2021-08-07T11:44:39.666Z</time>
      </trkpt>
      <trkpt lat="46.91584" lon="8.64239">
        <ele>853</ele>
        <time>2021-08-07T11:44:40.665Z</time>
      </trkpt>
      <trkpt lat="46.91587" lon="8.64238">
        <ele>852</ele>
        <time>2021-08-07T11:44:41.666Z</time>
      </trkpt>
      <trkpt lat="46.91588" lon="8.64239">
        <ele>852</ele>
        <time>2021-08-07T11:44:42.666Z</time>
      </trkpt>
      <trkpt lat="46.91592" lon="8.6424">
        <ele>854</ele>
        <time>2021-08-07T11:44:43.666Z</time>
      </trkpt>
      <trkpt lat="46.91593" lon="8.64239">
        <ele>854</ele>
        <time>2021-08-07T11:44:44.666Z</time>
      </trkpt>
      <trkpt lat="46.91593" lon="8.64238">
        <ele>854</ele>
        <time>2021-08-07T11:44:50.682Z</time>
      </trkpt>
      <trkpt lat="46.91592" lon="8.64238">
        <ele>854</ele>
        <time>2021-08-07T11:44:51.682Z</time>
      </trkpt>
      <trkpt lat="46.91592" lon="8.64238">
        <ele>854</ele>
        <time>2021-08-07T11:44:52.683Z</time>
      </trkpt>
      <trkpt lat="46.91592" lon="8.64238">
        <ele>854</ele>
        <time>2021-08-07T11:44:53.683Z</time>
      </trkpt>
      <trkpt lat="46.91592" lon="8.64238">
        <ele>854</ele>
        <time>2021-08-07T11:44:59.804Z</time>
      </trkpt>
      <trkpt lat="46.91591" lon="8.64237">
        <ele>853</ele>
        <time>2021-08-07T11:45:00.804Z</time>
      </trkpt>
      <trkpt lat="46.91592" lon="8.64237">
        <ele>853</ele>
        <time>2021-08-07T11:45:01.805Z</time>
      </trkpt>
      <trkpt lat="46.91593" lon="8.64237">
        <ele>852</ele>
        <time>2021-08-07T11:45:19.720Z</time>
      </trkpt>
      <trkpt lat="46.91593" lon="8.64236">
        <ele>852</ele>
        <time>2021-08-07T11:45:20.720Z</time>
      </trkpt>
      <trkpt lat="46.91594" lon="8.64235">
        <ele>851</ele>
        <time>2021-08-07T11:45:21.719Z</time>
      </trkpt>
      <trkpt lat="46.91595" lon="8.64235">
        <ele>851</ele>
        <time>2021-08-07T11:45:22.719Z</time>
      </trkpt>
      <trkpt lat="46.91595" lon="8.64234">
        <ele>851</ele>
        <time>2021-08-07T11:45:39.803Z</time>
      </trkpt>
      <trkpt lat="46.91596" lon="8.64235">
        <ele>850</ele>
        <time>2021-08-07T11:45:40.803Z</time>
      </trkpt>
      <trkpt lat="46.91597" lon="8.64235">
        <ele>850</ele>
        <time>2021-08-07T11:45:41.803Z</time>
      </trkpt>
      <trkpt lat="46.91597" lon="8.64234">
        <ele>849</ele>
        <time>2021-08-07T11:45:42.803Z</time>
      </trkpt>
      <trkpt lat="46.91597" lon="8.64232">
        <ele>849</ele>
        <time>2021-08-07T11:45:43.803Z</time>
      </trkpt>
      <trkpt lat="46.91596" lon="8.6423">
        <ele>849</ele>
        <time>2021-08-07T11:45:45.927Z</time>
      </trkpt>
      <trkpt lat="46.91596" lon="8.64229">
        <ele>848</ele>
        <time>2021-08-07T11:45:46.927Z</time>
      </trkpt>
      <trkpt lat="46.91596" lon="8.6423">
        <ele>848</ele>
        <time>2021-08-07T11:45:47.927Z</time>
      </trkpt>
      <trkpt lat="46.91596" lon="8.64228">
        <ele>847</ele>
        <time>2021-08-07T11:45:48.928Z</time>
      </trkpt>
      <trkpt lat="46.91595" lon="8.64227">
        <ele>847</ele>
        <time>2021-08-07T11:45:53.082Z</time>
      </trkpt>
      <trkpt lat="46.91595" lon="8.64226">
        <ele>847</ele>
        <time>2021-08-07T11:45:54.081Z</time>
      </trkpt>
      <trkpt lat="46.91595" lon="8.64225">
        <ele>847</ele>
        <time>2021-08-07T11:45:55.081Z</time>
      </trkpt>
      <trkpt lat="46.91595" lon="8.64224">
        <ele>847</ele>
        <time>2021-08-07T11:46:11.183Z</time>
      </trkpt>
      <trkpt lat="46.91594" lon="8.64222">
        <ele>847</ele>
        <time>2021-08-07T11:46:25.956Z</time>
      </trkpt>
      <trkpt lat="46.91594" lon="8.64221">
        <ele>847</ele>
        <time>2021-08-07T11:46:26.956Z</time>
      </trkpt>
      <trkpt lat="46.91594" lon="8.64219">
        <ele>846</ele>
        <time>2021-08-07T11:46:32.829Z</time>
      </trkpt>
      <trkpt lat="46.91594" lon="8.64218">
        <ele>847</ele>
        <time>2021-08-07T11:46:33.829Z</time>
      </trkpt>
      <trkpt lat="46.91594" lon="8.64216">
        <ele>847</ele>
        <time>2021-08-07T11:46:34.829Z</time>
      </trkpt>
      <trkpt lat="46.91595" lon="8.64214">
        <ele>848</ele>
        <time>2021-08-07T11:46:44.582Z</time>
      </trkpt>
      <trkpt lat="46.91595" lon="8.64213">
        <ele>848</ele>
        <time>2021-08-07T11:46:45.583Z</time>
      </trkpt>
      <trkpt lat="46.91595" lon="8.64211">
        <ele>849</ele>
        <time>2021-08-07T11:47:12.466Z</time>
      </trkpt>
      <trkpt lat="46.91595" lon="8.6421">
        <ele>849</ele>
        <time>2021-08-07T11:47:14.341Z</time>
      </trkpt>
      <trkpt lat="46.91594" lon="8.64209">
        <ele>849</ele>
        <time>2021-08-07T11:47:15.342Z</time>
      </trkpt>
      <trkpt lat="46.91594" lon="8.64207">
        <ele>850</ele>
        <time>2021-08-07T11:47:16.342Z</time>
      </trkpt>
      <trkpt lat="46.91594" lon="8.64206">
        <ele>850</ele>
        <time>2021-08-07T11:47:17.342Z</time>
      </trkpt>
      <trkpt lat="46.91594" lon="8.64204">
        <ele>851</ele>
        <time>2021-08-07T11:47:18.341Z</time>
      </trkpt>
      <trkpt lat="46.91594" lon="8.64203">
        <ele>851</ele>
        <time>2021-08-07T11:47:19.341Z</time>
      </trkpt>
      <trkpt lat="46.91593" lon="8.64202">
        <ele>851</ele>
        <time>2021-08-07T11:47:23.450Z</time>
      </trkpt>
      <trkpt lat="46.91594" lon="8.642">
        <ele>851</ele>
        <time>2021-08-07T11:47:24.450Z</time>
      </trkpt>
      <trkpt lat="46.91594" lon="8.64198">
        <ele>852</ele>
        <time>2021-08-07T11:47:25.450Z</time>
      </trkpt>
      <trkpt lat="46.91593" lon="8.64198">
        <ele>852</ele>
        <time>2021-08-07T11:47:33.589Z</time>
      </trkpt>
      <trkpt lat="46.91592" lon="8.64197">
        <ele>852</ele>
        <time>2021-08-07T11:47:34.588Z</time>
      </trkpt>
      <trkpt lat="46.91591" lon="8.64195">
        <ele>852</ele>
        <time>2021-08-07T11:47:57.302Z</time>
      </trkpt>
      <trkpt lat="46.91591" lon="8.64192">
        <ele>853</ele>
        <time>2021-08-07T11:47:58.303Z</time>
      </trkpt>
      <trkpt lat="46.91591" lon="8.6419">
        <ele>853</ele>
        <time>2021-08-07T11:48:19.074Z</time>
      </trkpt>
      <trkpt lat="46.91591" lon="8.6419">
        <ele>853</ele>
        <time>2021-08-07T11:48:20.075Z</time>
      </trkpt>
      <trkpt lat="46.91591" lon="8.64192">
        <ele>853</ele>
        <time>2021-08-07T11:48:21.074Z</time>
      </trkpt>
      <trkpt lat="46.91591" lon="8.64195">
        <ele>853</ele>
        <time>2021-08-07T11:48:22.075Z</time>
      </trkpt>
      <trkpt lat="46.91591" lon="8.64199">
        <ele>853</ele>
        <time>2021-08-07T11:48:23.075Z</time>
      </trkpt>
      <trkpt lat="46.9159" lon="8.64199">
        <ele>852</ele>
        <time>2021-08-07T11:48:24.074Z</time>
      </trkpt>
      <trkpt lat="46.9159" lon="8.642">
        <ele>852</ele>
        <time>2021-08-07T11:48:25.075Z</time>
      </trkpt>
      <trkpt lat="46.91589" lon="8.642">
        <ele>852</ele>
        <time>2021-08-07T11:48:26.074Z</time>
      </trkpt>
      <trkpt lat="46.91589" lon="8.642">
        <ele>852</ele>
        <time>2021-08-07T11:48:27.075Z</time>
      </trkpt>
      <trkpt lat="46.91589" lon="8.642">
        <ele>851</ele>
        <time>2021-08-07T11:48:28.075Z</time>
      </trkpt>
      <trkpt lat="46.91589" lon="8.64199">
        <ele>851</ele>
        <time>2021-08-07T11:48:29.075Z</time>
      </trkpt>
      <trkpt lat="46.91588" lon="8.64199">
        <ele>850</ele>
        <time>2021-08-07T11:48:30.075Z</time>
      </trkpt>
      <trkpt lat="46.91588" lon="8.64199">
        <ele>849</ele>
        <time>2021-08-07T11:48:31.075Z</time>
      </trkpt>
      <trkpt lat="46.91588" lon="8.64199">
        <ele>849</ele>
        <time>2021-08-07T11:48:33.174Z</time>
      </trkpt>
      <trkpt lat="46.91587" lon="8.64199">
        <ele>848</ele>
        <time>2021-08-07T11:48:34.174Z</time>
      </trkpt>
      <trkpt lat="46.91586" lon="8.64199">
        <ele>847</ele>
        <time>2021-08-07T11:48:35.175Z</time>
      </trkpt>
      <trkpt lat="46.91586" lon="8.64201">
        <ele>847</ele>
        <time>2021-08-07T11:48:36.175Z</time>
      </trkpt>
      <trkpt lat="46.91585" lon="8.64201">
        <ele>847</ele>
        <time>2021-08-07T11:48:37.176Z</time>
      </trkpt>
      <trkpt lat="46.91585" lon="8.64202">
        <ele>847</ele>
        <time>2021-08-07T11:48:38.175Z</time>
      </trkpt>
      <trkpt lat="46.91585" lon="8.64203">
        <ele>847</ele>
        <time>2021-08-07T11:48:39.175Z</time>
      </trkpt>
      <trkpt lat="46.91584" lon="8.64204">
        <ele>847</ele>
        <time>2021-08-07T11:48:40.176Z</time>
      </trkpt>
      <trkpt lat="46.91583" lon="8.64206">
        <ele>847</ele>
        <time>2021-08-07T11:48:41.176Z</time>
      </trkpt>
      <trkpt lat="46.91582" lon="8.64207">
        <ele>847</ele>
        <time>2021-08-07T11:48:42.175Z</time>
      </trkpt>
      <trkpt lat="46.91581" lon="8.64208">
        <ele>847</ele>
        <time>2021-08-07T11:48:43.175Z</time>
      </trkpt>
      <trkpt lat="46.91581" lon="8.64209">
        <ele>848</ele>
        <time>2021-08-07T11:48:44.176Z</time>
      </trkpt>
      <trkpt lat="46.9158" lon="8.64209">
        <ele>848</ele>
        <time>2021-08-07T11:48:45.175Z</time>
      </trkpt>
      <trkpt lat="46.9158" lon="8.64209">
        <ele>848</ele>
        <time>2021-08-07T11:48:46.176Z</time>
      </trkpt>
      <trkpt lat="46.9158" lon="8.6421">
        <ele>848</ele>
        <time>2021-08-07T11:48:47.176Z</time>
      </trkpt>
      <trkpt lat="46.9158" lon="8.64211">
        <ele>848</ele>
        <time>2021-08-07T11:48:48.175Z</time>
      </trkpt>
      <trkpt lat="46.9158" lon="8.64212">
        <ele>849</ele>
        <time>2021-08-07T11:48:49.175Z</time>
      </trkpt>
      <trkpt lat="46.9158" lon="8.64212">
        <ele>849</ele>
        <time>2021-08-07T11:48:50.176Z</time>
      </trkpt>
      <trkpt lat="46.9158" lon="8.64212">
        <ele>850</ele>
        <time>2021-08-07T11:48:51.175Z</time>
      </trkpt>
      <trkpt lat="46.9158" lon="8.64211">
        <ele>850</ele>
        <time>2021-08-07T11:48:52.175Z</time>
      </trkpt>
      <trkpt lat="46.91581" lon="8.64211">
        <ele>850</ele>
        <time>2021-08-07T11:48:53.176Z</time>
      </trkpt>
      <trkpt lat="46.91581" lon="8.64211">
        <ele>850</ele>
        <time>2021-08-07T11:48:54.176Z</time>
      </trkpt>
      <trkpt lat="46.91581" lon="8.64212">
        <ele>850</ele>
        <time>2021-08-07T11:48:55.176Z</time>
      </trkpt>
      <trkpt lat="46.91581" lon="8.64212">
        <ele>851</ele>
        <time>2021-08-07T11:48:56.175Z</time>
      </trkpt>
      <trkpt lat="46.91581" lon="8.64214">
        <ele>851</ele>
        <time>2021-08-07T11:48:57.175Z</time>
      </trkpt>
      <trkpt lat="46.91581" lon="8.64215">
        <ele>851</ele>
        <time>2021-08-07T11:48:58.175Z</time>
      </trkpt>
      <trkpt lat="46.9158" lon="8.64215">
        <ele>851</ele>
        <time>2021-08-07T11:48:59.176Z</time>
      </trkpt>
      <trkpt lat="46.9158" lon="8.64215">
        <ele>851</ele>
        <time>2021-08-07T11:49:00.175Z</time>
      </trkpt>
      <trkpt lat="46.9158" lon="8.64214">
        <ele>851</ele>
        <time>2021-08-07T11:49:01.175Z</time>
      </trkpt>
      <trkpt lat="46.91579" lon="8.64214">
        <ele>851</ele>
        <time>2021-08-07T11:49:02.176Z</time>
      </trkpt>
      <trkpt lat="46.91579" lon="8.64214">
        <ele>852</ele>
        <time>2021-08-07T11:49:03.176Z</time>
      </trkpt>
      <trkpt lat="46.91579" lon="8.64215">
        <ele>852</ele>
        <time>2021-08-07T11:49:04.176Z</time>
      </trkpt>
      <trkpt lat="46.91578" lon="8.64216">
        <ele>852</ele>
        <time>2021-08-07T11:49:05.175Z</time>
      </trkpt>
      <trkpt lat="46.91578" lon="8.64216">
        <ele>851</ele>
        <time>2021-08-07T11:49:06.175Z</time>
      </trkpt>
      <trkpt lat="46.91577" lon="8.64216">
        <ele>851</ele>
        <time>2021-08-07T11:49:07.175Z</time>
      </trkpt>
      <trkpt lat="46.91577" lon="8.64216">
        <ele>851</ele>
        <time>2021-08-07T11:49:08.176Z</time>
      </trkpt>
      <trkpt lat="46.91577" lon="8.64217">
        <ele>850</ele>
        <time>2021-08-07T11:49:09.175Z</time>
      </trkpt>
      <trkpt lat="46.91576" lon="8.64217">
        <ele>850</ele>
        <time>2021-08-07T11:49:10.176Z</time>
      </trkpt>
      <trkpt lat="46.91576" lon="8.64218">
        <ele>849</ele>
        <time>2021-08-07T11:49:11.175Z</time>
      </trkpt>
      <trkpt lat="46.91576" lon="8.64218">
        <ele>849</ele>
        <time>2021-08-07T11:49:12.176Z</time>
      </trkpt>
      <trkpt lat="46.91576" lon="8.64218">
        <ele>848</ele>
        <time>2021-08-07T11:49:13.176Z</time>
      </trkpt>
      <trkpt lat="46.91576" lon="8.64219">
        <ele>848</ele>
        <time>2021-08-07T11:49:14.176Z</time>
      </trkpt>
      <trkpt lat="46.91575" lon="8.6422">
        <ele>846</ele>
        <time>2021-08-07T11:49:15.176Z</time>
      </trkpt>
      <trkpt lat="46.91575" lon="8.64221">
        <ele>846</ele>
        <time>2021-08-07T11:49:16.176Z</time>
      </trkpt>
      <trkpt lat="46.91574" lon="8.64222">
        <ele>846</ele>
        <time>2021-08-07T11:49:17.175Z</time>
      </trkpt>
      <trkpt lat="46.91573" lon="8.64223">
        <ele>846</ele>
        <time>2021-08-07T11:49:18.175Z</time>
      </trkpt>
      <trkpt lat="46.91573" lon="8.64224">
        <ele>846</ele>
        <time>2021-08-07T11:49:19.176Z</time>
      </trkpt>
      <trkpt lat="46.91573" lon="8.64223">
        <ele>846</ele>
        <time>2021-08-07T11:49:20.176Z</time>
      </trkpt>
      <trkpt lat="46.91571" lon="8.64222">
        <ele>846</ele>
        <time>2021-08-07T11:49:21.176Z</time>
      </trkpt>
      <trkpt lat="46.9157" lon="8.64221">
        <ele>846</ele>
        <time>2021-08-07T11:49:22.176Z</time>
      </trkpt>
      <trkpt lat="46.91569" lon="8.64222">
        <ele>847</ele>
        <time>2021-08-07T11:49:23.176Z</time>
      </trkpt>
      <trkpt lat="46.91568" lon="8.64222">
        <ele>847</ele>
        <time>2021-08-07T11:49:24.175Z</time>
      </trkpt>
      <trkpt lat="46.91568" lon="8.64222">
        <ele>847</ele>
        <time>2021-08-07T11:49:25.175Z</time>
      </trkpt>
      <trkpt lat="46.91568" lon="8.64222">
        <ele>847</ele>
        <time>2021-08-07T11:49:26.176Z</time>
      </trkpt>
      <trkpt lat="46.91568" lon="8.64223">
        <ele>847</ele>
        <time>2021-08-07T11:49:27.175Z</time>
      </trkpt>
      <trkpt lat="46.91568" lon="8.64223">
        <ele>847</ele>
        <time>2021-08-07T11:49:28.176Z</time>
      </trkpt>
      <trkpt lat="46.91569" lon="8.64224">
        <ele>847</ele>
        <time>2021-08-07T11:49:29.176Z</time>
      </trkpt>
      <trkpt lat="46.9157" lon="8.64225">
        <ele>847</ele>
        <time>2021-08-07T11:49:30.176Z</time>
      </trkpt>
      <trkpt lat="46.9157" lon="8.64225">
        <ele>847</ele>
        <time>2021-08-07T11:49:31.176Z</time>
      </trkpt>
      <trkpt lat="46.91571" lon="8.64223">
        <ele>847</ele>
        <time>2021-08-07T11:49:32.176Z</time>
      </trkpt>
      <trkpt lat="46.91571" lon="8.64222">
        <ele>847</ele>
        <time>2021-08-07T11:49:33.175Z</time>
      </trkpt>
      <trkpt lat="46.91571" lon="8.64221">
        <ele>848</ele>
        <time>2021-08-07T11:49:34.175Z</time>
      </trkpt>
      <trkpt lat="46.91571" lon="8.64221">
        <ele>848</ele>
        <time>2021-08-07T11:49:35.176Z</time>
      </trkpt>
      <trkpt lat="46.9157" lon="8.64221">
        <ele>848</ele>
        <time>2021-08-07T11:49:36.175Z</time>
      </trkpt>
      <trkpt lat="46.9157" lon="8.64222">
        <ele>849</ele>
        <time>2021-08-07T11:49:37.176Z</time>
      </trkpt>
      <trkpt lat="46.91569" lon="8.64222">
        <ele>849</ele>
        <time>2021-08-07T11:49:38.176Z</time>
      </trkpt>
      <trkpt lat="46.91569" lon="8.64222">
        <ele>850</ele>
        <time>2021-08-07T11:49:39.176Z</time>
      </trkpt>
      <trkpt lat="46.91568" lon="8.64222">
        <ele>850</ele>
        <time>2021-08-07T11:49:40.175Z</time>
      </trkpt>
      <trkpt lat="46.91568" lon="8.64223">
        <ele>850</ele>
        <time>2021-08-07T11:49:41.176Z</time>
      </trkpt>
      <trkpt lat="46.91567" lon="8.64224">
        <ele>851</ele>
        <time>2021-08-07T11:49:42.176Z</time>
      </trkpt>
      <trkpt lat="46.91567" lon="8.64224">
        <ele>851</ele>
        <time>2021-08-07T11:49:43.175Z</time>
      </trkpt>
      <trkpt lat="46.91567" lon="8.64224">
        <ele>851</ele>
        <time>2021-08-07T11:49:44.175Z</time>
      </trkpt>
      <trkpt lat="46.91566" lon="8.64224">
        <ele>851</ele>
        <time>2021-08-07T11:49:45.176Z</time>
      </trkpt>
      <trkpt lat="46.91564" lon="8.64222">
        <ele>851</ele>
        <time>2021-08-07T11:49:46.176Z</time>
      </trkpt>
      <trkpt lat="46.91563" lon="8.64222">
        <ele>851</ele>
        <time>2021-08-07T11:49:47.176Z</time>
      </trkpt>
      <trkpt lat="46.9156" lon="8.64223">
        <ele>851</ele>
        <time>2021-08-07T11:49:48.175Z</time>
      </trkpt>
      <trkpt lat="46.91558" lon="8.64224">
        <ele>851</ele>
        <time>2021-08-07T11:49:49.176Z</time>
      </trkpt>
      <trkpt lat="46.91556" lon="8.64225">
        <ele>851</ele>
        <time>2021-08-07T11:49:50.176Z</time>
      </trkpt>
      <trkpt lat="46.91556" lon="8.64226">
        <ele>851</ele>
        <time>2021-08-07T11:49:51.176Z</time>
      </trkpt>
      <trkpt lat="46.91557" lon="8.64227">
        <ele>851</ele>
        <time>2021-08-07T11:49:52.175Z</time>
      </trkpt>
      <trkpt lat="46.91558" lon="8.64227">
        <ele>851</ele>
        <time>2021-08-07T11:49:53.176Z</time>
      </trkpt>
      <trkpt lat="46.91559" lon="8.64227">
        <ele>851</ele>
        <time>2021-08-07T11:49:54.176Z</time>
      </trkpt>
      <trkpt lat="46.91559" lon="8.64227">
        <ele>851</ele>
        <time>2021-08-07T11:49:55.176Z</time>
      </trkpt>
      <trkpt lat="46.91559" lon="8.64228">
        <ele>851</ele>
        <time>2021-08-07T11:49:56.175Z</time>
      </trkpt>
      <trkpt lat="46.9156" lon="8.64228">
        <ele>851</ele>
        <time>2021-08-07T11:49:57.176Z</time>
      </trkpt>
      <trkpt lat="46.91562" lon="8.64227">
        <ele>851</ele>
        <time>2021-08-07T11:49:58.175Z</time>
      </trkpt>
      <trkpt lat="46.91563" lon="8.64227">
        <ele>851</ele>
        <time>2021-08-07T11:49:59.175Z</time>
      </trkpt>
      <trkpt lat="46.91565" lon="8.64227">
        <ele>851</ele>
        <time>2021-08-07T11:50:00.176Z</time>
      </trkpt>
      <trkpt lat="46.91566" lon="8.64226">
        <ele>851</ele>
        <time>2021-08-07T11:50:01.175Z</time>
      </trkpt>
      <trkpt lat="46.91567" lon="8.64227">
        <ele>851</ele>
        <time>2021-08-07T11:50:02.175Z</time>
      </trkpt>
      <trkpt lat="46.91566" lon="8.64228">
        <ele>851</ele>
        <time>2021-08-07T11:50:03.176Z</time>
      </trkpt>
      <trkpt lat="46.91565" lon="8.64228">
        <ele>850</ele>
        <time>2021-08-07T11:50:04.175Z</time>
      </trkpt>
      <trkpt lat="46.91565" lon="8.64227">
        <ele>850</ele>
        <time>2021-08-07T11:50:05.176Z</time>
      </trkpt>
      <trkpt lat="46.91565" lon="8.64226">
        <ele>850</ele>
        <time>2021-08-07T11:50:06.176Z</time>
      </trkpt>
      <trkpt lat="46.91564" lon="8.64227">
        <ele>850</ele>
        <time>2021-08-07T11:50:07.176Z</time>
      </trkpt>
      <trkpt lat="46.91564" lon="8.64227">
        <ele>850</ele>
        <time>2021-08-07T11:50:08.175Z</time>
      </trkpt>
      <trkpt lat="46.91563" lon="8.64228">
        <ele>849</ele>
        <time>2021-08-07T11:50:09.175Z</time>
      </trkpt>
      <trkpt lat="46.91563" lon="8.6423">
        <ele>849</ele>
        <time>2021-08-07T11:50:10.176Z</time>
      </trkpt>
      <trkpt lat="46.91563" lon="8.6423">
        <ele>848</ele>
        <time>2021-08-07T11:50:11.176Z</time>
      </trkpt>
      <trkpt lat="46.91562" lon="8.6423">
        <ele>848</ele>
        <time>2021-08-07T11:50:15.324Z</time>
      </trkpt>
      <trkpt lat="46.91562" lon="8.6423">
        <ele>848</ele>
        <time>2021-08-07T11:50:16.323Z</time>
      </trkpt>
      <trkpt lat="46.91561" lon="8.6423">
        <ele>848</ele>
        <time>2021-08-07T11:50:17.324Z</time>
      </trkpt>
      <trkpt lat="46.91561" lon="8.6423">
        <ele>848</ele>
        <time>2021-08-07T11:50:18.324Z</time>
      </trkpt>
      <trkpt lat="46.9156" lon="8.6423">
        <ele>847</ele>
        <time>2021-08-07T11:50:19.323Z</time>
      </trkpt>
      <trkpt lat="46.9156" lon="8.64229">
        <ele>847</ele>
        <time>2021-08-07T11:50:46.307Z</time>
      </trkpt>
      <trkpt lat="46.91559" lon="8.64228">
        <ele>847</ele>
        <time>2021-08-07T11:50:54.198Z</time>
      </trkpt>
      <trkpt lat="46.91558" lon="8.64228">
        <ele>847</ele>
        <time>2021-08-07T11:50:55.198Z</time>
      </trkpt>
      <trkpt lat="46.91557" lon="8.64226">
        <ele>847</ele>
        <time>2021-08-07T11:50:56.198Z</time>
      </trkpt>
      <trkpt lat="46.91557" lon="8.64225">
        <ele>847</ele>
        <time>2021-08-07T11:50:57.198Z</time>
      </trkpt>
      <trkpt lat="46.91557" lon="8.64225">
        <ele>847</ele>
        <time>2021-08-07T11:50:58.197Z</time>
      </trkpt>
      <trkpt lat="46.91557" lon="8.64224">
        <ele>847</ele>
        <time>2021-08-07T11:50:59.197Z</time>
      </trkpt>
      <trkpt lat="46.91557" lon="8.64224">
        <ele>847</ele>
        <time>2021-08-07T11:51:00.198Z</time>
      </trkpt>
      <trkpt lat="46.91557" lon="8.64224">
        <ele>847</ele>
        <time>2021-08-07T11:51:01.197Z</time>
      </trkpt>
      <trkpt lat="46.91557" lon="8.64225">
        <ele>847</ele>
        <time>2021-08-07T11:51:02.197Z</time>
      </trkpt>
      <trkpt lat="46.91557" lon="8.64226">
        <ele>846</ele>
        <time>2021-08-07T11:51:03.198Z</time>
      </trkpt>
      <trkpt lat="46.91557" lon="8.64226">
        <ele>846</ele>
        <time>2021-08-07T11:51:04.198Z</time>
      </trkpt>
      <trkpt lat="46.91557" lon="8.64226">
        <ele>845</ele>
        <time>2021-08-07T11:51:05.197Z</time>
      </trkpt>
      <trkpt lat="46.91556" lon="8.64226">
        <ele>845</ele>
        <time>2021-08-07T11:51:06.197Z</time>
      </trkpt>
      <trkpt lat="46.91556" lon="8.64225">
        <ele>844</ele>
        <time>2021-08-07T11:51:07.198Z</time>
      </trkpt>
      <trkpt lat="46.91556" lon="8.64224">
        <ele>844</ele>
        <time>2021-08-07T11:51:08.198Z</time>
      </trkpt>
      <trkpt lat="46.91556" lon="8.64223">
        <ele>844</ele>
        <time>2021-08-07T11:51:09.197Z</time>
      </trkpt>
      <trkpt lat="46.91557" lon="8.64222">
        <ele>843</ele>
        <time>2021-08-07T11:51:10.197Z</time>
      </trkpt>
      <trkpt lat="46.91557" lon="8.64222">
        <ele>843</ele>
        <time>2021-08-07T11:51:11.198Z</time>
      </trkpt>
      <trkpt lat="46.91557" lon="8.64223">
        <ele>843</ele>
        <time>2021-08-07T11:51:12.197Z</time>
      </trkpt>
      <trkpt lat="46.91559" lon="8.64223">
        <ele>843</ele>
        <time>2021-08-07T11:51:13.197Z</time>
      </trkpt>
      <trkpt lat="46.9156" lon="8.64222">
        <ele>842</ele>
        <time>2021-08-07T11:51:14.198Z</time>
      </trkpt>
      <trkpt lat="46.91561" lon="8.6422">
        <ele>842</ele>
        <time>2021-08-07T11:51:15.198Z</time>
      </trkpt>
      <trkpt lat="46.91562" lon="8.64219">
        <ele>842</ele>
        <time>2021-08-07T11:51:16.198Z</time>
      </trkpt>
      <trkpt lat="46.91563" lon="8.64218">
        <ele>842</ele>
        <time>2021-08-07T11:51:17.197Z</time>
      </trkpt>
      <trkpt lat="46.91563" lon="8.64217">
        <ele>842</ele>
        <time>2021-08-07T11:51:18.197Z</time>
      </trkpt>
      <trkpt lat="46.91563" lon="8.64217">
        <ele>842</ele>
        <time>2021-08-07T11:51:19.197Z</time>
      </trkpt>
      <trkpt lat="46.91564" lon="8.64217">
        <ele>842</ele>
        <time>2021-08-07T11:51:20.198Z</time>
      </trkpt>
      <trkpt lat="46.91564" lon="8.64217">
        <ele>843</ele>
        <time>2021-08-07T11:51:21.197Z</time>
      </trkpt>
      <trkpt lat="46.91564" lon="8.64218">
        <ele>843</ele>
        <time>2021-08-07T11:51:22.198Z</time>
      </trkpt>
      <trkpt lat="46.91564" lon="8.64218">
        <ele>842</ele>
        <time>2021-08-07T11:51:23.197Z</time>
      </trkpt>
      <trkpt lat="46.91563" lon="8.64217">
        <ele>842</ele>
        <time>2021-08-07T11:51:24.198Z</time>
      </trkpt>
      <trkpt lat="46.91561" lon="8.64217">
        <ele>842</ele>
        <time>2021-08-07T11:51:25.197Z</time>
      </trkpt>
      <trkpt lat="46.9156" lon="8.64216">
        <ele>842</ele>
        <time>2021-08-07T11:51:26.197Z</time>
      </trkpt>
      <trkpt lat="46.9156" lon="8.64214">
        <ele>842</ele>
        <time>2021-08-07T11:51:27.197Z</time>
      </trkpt>
      <trkpt lat="46.9156" lon="8.64213">
        <ele>842</ele>
        <time>2021-08-07T11:51:28.198Z</time>
      </trkpt>
      <trkpt lat="46.9156" lon="8.64211">
        <ele>842</ele>
        <time>2021-08-07T11:51:29.198Z</time>
      </trkpt>
      <trkpt lat="46.9156" lon="8.64209">
        <ele>842</ele>
        <time>2021-08-07T11:51:30.198Z</time>
      </trkpt>
      <trkpt lat="46.91561" lon="8.64208">
        <ele>842</ele>
        <time>2021-08-07T11:51:31.197Z</time>
      </trkpt>
      <trkpt lat="46.91561" lon="8.64207">
        <ele>842</ele>
        <time>2021-08-07T11:51:32.198Z</time>
      </trkpt>
      <trkpt lat="46.91561" lon="8.64207">
        <ele>842</ele>
        <time>2021-08-07T11:51:33.197Z</time>
      </trkpt>
      <trkpt lat="46.9156" lon="8.64205">
        <ele>842</ele>
        <time>2021-08-07T11:51:34.198Z</time>
      </trkpt>
      <trkpt lat="46.91559" lon="8.64206">
        <ele>842</ele>
        <time>2021-08-07T11:51:35.198Z</time>
      </trkpt>
      <trkpt lat="46.91559" lon="8.64206">
        <ele>842</ele>
        <time>2021-08-07T11:51:36.198Z</time>
      </trkpt>
      <trkpt lat="46.91559" lon="8.64207">
        <ele>842</ele>
        <time>2021-08-07T11:51:37.197Z</time>
      </trkpt>
      <trkpt lat="46.9156" lon="8.64208">
        <ele>842</ele>
        <time>2021-08-07T11:51:38.198Z</time>
      </trkpt>
      <trkpt lat="46.91559" lon="8.64208">
        <ele>842</ele>
        <time>2021-08-07T11:51:39.198Z</time>
      </trkpt>
      <trkpt lat="46.91559" lon="8.64209">
        <ele>843</ele>
        <time>2021-08-07T11:51:40.198Z</time>
      </trkpt>
      <trkpt lat="46.91557" lon="8.64209">
        <ele>843</ele>
        <time>2021-08-07T11:51:41.197Z</time>
      </trkpt>
      <trkpt lat="46.91557" lon="8.64206">
        <ele>842</ele>
        <time>2021-08-07T11:51:42.197Z</time>
      </trkpt>
      <trkpt lat="46.91558" lon="8.64204">
        <ele>842</ele>
        <time>2021-08-07T11:51:43.197Z</time>
      </trkpt>
      <trkpt lat="46.91558" lon="8.64202">
        <ele>842</ele>
        <time>2021-08-07T11:51:44.198Z</time>
      </trkpt>
      <trkpt lat="46.91559" lon="8.64199">
        <ele>841</ele>
        <time>2021-08-07T11:51:45.198Z</time>
      </trkpt>
      <trkpt lat="46.91559" lon="8.64197">
        <ele>841</ele>
        <time>2021-08-07T11:51:46.198Z</time>
      </trkpt>
      <trkpt lat="46.9156" lon="8.64195">
        <ele>840</ele>
        <time>2021-08-07T11:51:47.198Z</time>
      </trkpt>
      <trkpt lat="46.91561" lon="8.64195">
        <ele>840</ele>
        <time>2021-08-07T11:51:48.198Z</time>
      </trkpt>
      <trkpt lat="46.9156" lon="8.64193">
        <ele>839</ele>
        <time>2021-08-07T11:51:49.198Z</time>
      </trkpt>
      <trkpt lat="46.9156" lon="8.64192">
        <ele>839</ele>
        <time>2021-08-07T11:51:50.197Z</time>
      </trkpt>
      <trkpt lat="46.9156" lon="8.64189">
        <ele>838</ele>
        <time>2021-08-07T11:51:51.198Z</time>
      </trkpt>
      <trkpt lat="46.9156" lon="8.64188">
        <ele>837</ele>
        <time>2021-08-07T11:51:52.198Z</time>
      </trkpt>
      <trkpt lat="46.9156" lon="8.64186">
        <ele>836</ele>
        <time>2021-08-07T11:51:53.198Z</time>
      </trkpt>
      <trkpt lat="46.9156" lon="8.64184">
        <ele>835</ele>
        <time>2021-08-07T11:51:54.198Z</time>
      </trkpt>
      <trkpt lat="46.91561" lon="8.64182">
        <ele>835</ele>
        <time>2021-08-07T11:51:55.198Z</time>
      </trkpt>
      <trkpt lat="46.91561" lon="8.64181">
        <ele>834</ele>
        <time>2021-08-07T11:51:56.197Z</time>
      </trkpt>
      <trkpt lat="46.91561" lon="8.64179">
        <ele>834</ele>
        <time>2021-08-07T11:51:57.198Z</time>
      </trkpt>
      <trkpt lat="46.91561" lon="8.64177">
        <ele>834</ele>
        <time>2021-08-07T11:51:58.197Z</time>
      </trkpt>
      <trkpt lat="46.91561" lon="8.64176">
        <ele>833</ele>
        <time>2021-08-07T11:51:59.198Z</time>
      </trkpt>
      <trkpt lat="46.91561" lon="8.64176">
        <ele>833</ele>
        <time>2021-08-07T11:52:00.197Z</time>
      </trkpt>
      <trkpt lat="46.91561" lon="8.64175">
        <ele>833</ele>
        <time>2021-08-07T11:52:01.198Z</time>
      </trkpt>
      <trkpt lat="46.91561" lon="8.64173">
        <ele>832</ele>
        <time>2021-08-07T11:52:05.306Z</time>
      </trkpt>
      <trkpt lat="46.91561" lon="8.64173">
        <ele>832</ele>
        <time>2021-08-07T11:52:06.306Z</time>
      </trkpt>
      <trkpt lat="46.91561" lon="8.64171">
        <ele>832</ele>
        <time>2021-08-07T11:52:07.306Z</time>
      </trkpt>
      <trkpt lat="46.9156" lon="8.6417">
        <ele>832</ele>
        <time>2021-08-07T11:52:08.306Z</time>
      </trkpt>
      <trkpt lat="46.9156" lon="8.64169">
        <ele>831</ele>
        <time>2021-08-07T11:52:09.306Z</time>
      </trkpt>
      <trkpt lat="46.9156" lon="8.64168">
        <ele>831</ele>
        <time>2021-08-07T11:52:10.306Z</time>
      </trkpt>
      <trkpt lat="46.9156" lon="8.64167">
        <ele>831</ele>
        <time>2021-08-07T11:52:11.306Z</time>
      </trkpt>
      <trkpt lat="46.9156" lon="8.64167">
        <ele>831</ele>
        <time>2021-08-07T11:52:12.306Z</time>
      </trkpt>
      <trkpt lat="46.91559" lon="8.64166">
        <ele>831</ele>
        <time>2021-08-07T11:52:13.306Z</time>
      </trkpt>
      <trkpt lat="46.91559" lon="8.64165">
        <ele>830</ele>
        <time>2021-08-07T11:52:14.306Z</time>
      </trkpt>
      <trkpt lat="46.91559" lon="8.64163">
        <ele>830</ele>
        <time>2021-08-07T11:52:15.306Z</time>
      </trkpt>
      <trkpt lat="46.91559" lon="8.64159">
        <ele>830</ele>
        <time>2021-08-07T11:52:16.306Z</time>
      </trkpt>
      <trkpt lat="46.91559" lon="8.6416">
        <ele>830</ele>
        <time>2021-08-07T11:52:17.307Z</time>
      </trkpt>
      <trkpt lat="46.91558" lon="8.6416">
        <ele>830</ele>
        <time>2021-08-07T11:52:18.307Z</time>
      </trkpt>
      <trkpt lat="46.91558" lon="8.6416">
        <ele>830</ele>
        <time>2021-08-07T11:52:19.306Z</time>
      </trkpt>
      <trkpt lat="46.91559" lon="8.6416">
        <ele>830</ele>
        <time>2021-08-07T11:52:20.307Z</time>
      </trkpt>
      <trkpt lat="46.91559" lon="8.64159">
        <ele>830</ele>
        <time>2021-08-07T11:52:21.307Z</time>
      </trkpt>
      <trkpt lat="46.91559" lon="8.64159">
        <ele>830</ele>
        <time>2021-08-07T11:52:22.307Z</time>
      </trkpt>
      <trkpt lat="46.9156" lon="8.64157">
        <ele>830</ele>
        <time>2021-08-07T11:52:23.307Z</time>
      </trkpt>
      <trkpt lat="46.9156" lon="8.64156">
        <ele>830</ele>
        <time>2021-08-07T11:52:24.307Z</time>
      </trkpt>
      <trkpt lat="46.91561" lon="8.64155">
        <ele>830</ele>
        <time>2021-08-07T11:52:25.306Z</time>
      </trkpt>
      <trkpt lat="46.91561" lon="8.64154">
        <ele>830</ele>
        <time>2021-08-07T11:52:26.306Z</time>
      </trkpt>
      <trkpt lat="46.9156" lon="8.64153">
        <ele>830</ele>
        <time>2021-08-07T11:52:27.307Z</time>
      </trkpt>
      <trkpt lat="46.9156" lon="8.64152">
        <ele>830</ele>
        <time>2021-08-07T11:52:28.307Z</time>
      </trkpt>
      <trkpt lat="46.9156" lon="8.64151">
        <ele>830</ele>
        <time>2021-08-07T11:52:29.306Z</time>
      </trkpt>
      <trkpt lat="46.9156" lon="8.64151">
        <ele>830</ele>
        <time>2021-08-07T11:52:30.306Z</time>
      </trkpt>
      <trkpt lat="46.91559" lon="8.64151">
        <ele>830</ele>
        <time>2021-08-07T11:52:31.307Z</time>
      </trkpt>
      <trkpt lat="46.91559" lon="8.6415">
        <ele>830</ele>
        <time>2021-08-07T11:52:32.307Z</time>
      </trkpt>
      <trkpt lat="46.91559" lon="8.6415">
        <ele>830</ele>
        <time>2021-08-07T11:52:33.306Z</time>
      </trkpt>
      <trkpt lat="46.91558" lon="8.64149">
        <ele>829</ele>
        <time>2021-08-07T11:52:34.309Z</time>
      </trkpt>
      <trkpt lat="46.91558" lon="8.64149">
        <ele>829</ele>
        <time>2021-08-07T11:52:35.308Z</time>
      </trkpt>
      <trkpt lat="46.91557" lon="8.64148">
        <ele>829</ele>
        <time>2021-08-07T11:52:36.308Z</time>
      </trkpt>
      <trkpt lat="46.91558" lon="8.64148">
        <ele>829</ele>
        <time>2021-08-07T11:52:37.309Z</time>
      </trkpt>
      <trkpt lat="46.91557" lon="8.64148">
        <ele>829</ele>
        <time>2021-08-07T11:52:38.309Z</time>
      </trkpt>
      <trkpt lat="46.91556" lon="8.64148">
        <ele>829</ele>
        <time>2021-08-07T11:52:39.308Z</time>
      </trkpt>
      <trkpt lat="46.91555" lon="8.64149">
        <ele>829</ele>
        <time>2021-08-07T11:52:40.309Z</time>
      </trkpt>
      <trkpt lat="46.91555" lon="8.64149">
        <ele>829</ele>
        <time>2021-08-07T11:52:41.308Z</time>
      </trkpt>
      <trkpt lat="46.91555" lon="8.6415">
        <ele>829</ele>
        <time>2021-08-07T11:52:42.309Z</time>
      </trkpt>
      <trkpt lat="46.91554" lon="8.64149">
        <ele>829</ele>
        <time>2021-08-07T11:52:43.309Z</time>
      </trkpt>
      <trkpt lat="46.91554" lon="8.6415">
        <ele>829</ele>
        <time>2021-08-07T11:52:44.308Z</time>
      </trkpt>
      <trkpt lat="46.91553" lon="8.6415">
        <ele>829</ele>
        <time>2021-08-07T11:52:45.308Z</time>
      </trkpt>
      <trkpt lat="46.91552" lon="8.64151">
        <ele>829</ele>
        <time>2021-08-07T11:52:46.308Z</time>
      </trkpt>
      <trkpt lat="46.91551" lon="8.64151">
        <ele>829</ele>
        <time>2021-08-07T11:52:47.308Z</time>
      </trkpt>
      <trkpt lat="46.91549" lon="8.64151">
        <ele>828</ele>
        <time>2021-08-07T11:52:48.309Z</time>
      </trkpt>
      <trkpt lat="46.91549" lon="8.6415">
        <ele>828</ele>
        <time>2021-08-07T11:52:49.309Z</time>
      </trkpt>
      <trkpt lat="46.91552" lon="8.64148">
        <ele>828</ele>
        <time>2021-08-07T11:52:50.308Z</time>
      </trkpt>
      <trkpt lat="46.91554" lon="8.64146">
        <ele>828</ele>
        <time>2021-08-07T11:52:51.309Z</time>
      </trkpt>
      <trkpt lat="46.91557" lon="8.64143">
        <ele>828</ele>
        <time>2021-08-07T11:52:52.308Z</time>
      </trkpt>
      <trkpt lat="46.91559" lon="8.64141">
        <ele>828</ele>
        <time>2021-08-07T11:52:53.309Z</time>
      </trkpt>
      <trkpt lat="46.91559" lon="8.64141">
        <ele>828</ele>
        <time>2021-08-07T11:52:54.309Z</time>
      </trkpt>
      <trkpt lat="46.91559" lon="8.6414">
        <ele>828</ele>
        <time>2021-08-07T11:52:55.309Z</time>
      </trkpt>
      <trkpt lat="46.91559" lon="8.6414">
        <ele>828</ele>
        <time>2021-08-07T11:52:56.309Z</time>
      </trkpt>
      <trkpt lat="46.91559" lon="8.64139">
        <ele>828</ele>
        <time>2021-08-07T11:52:57.309Z</time>
      </trkpt>
      <trkpt lat="46.91559" lon="8.64139">
        <ele>828</ele>
        <time>2021-08-07T11:52:58.308Z</time>
      </trkpt>
      <trkpt lat="46.91559" lon="8.64139">
        <ele>828</ele>
        <time>2021-08-07T11:52:59.308Z</time>
      </trkpt>
      <trkpt lat="46.9156" lon="8.64139">
        <ele>828</ele>
        <time>2021-08-07T11:53:00.309Z</time>
      </trkpt>
      <trkpt lat="46.91561" lon="8.64138">
        <ele>828</ele>
        <time>2021-08-07T11:53:01.309Z</time>
      </trkpt>
      <trkpt lat="46.91562" lon="8.64136">
        <ele>828</ele>
        <time>2021-08-07T11:53:02.309Z</time>
      </trkpt>
      <trkpt lat="46.91562" lon="8.64135">
        <ele>828</ele>
        <time>2021-08-07T11:53:03.309Z</time>
      </trkpt>
      <trkpt lat="46.91563" lon="8.64134">
        <ele>827</ele>
        <time>2021-08-07T11:53:04.309Z</time>
      </trkpt>
      <trkpt lat="46.91564" lon="8.6413">
        <ele>827</ele>
        <time>2021-08-07T11:53:05.309Z</time>
      </trkpt>
      <trkpt lat="46.91566" lon="8.64126">
        <ele>827</ele>
        <time>2021-08-07T11:53:06.309Z</time>
      </trkpt>
      <trkpt lat="46.91568" lon="8.64121">
        <ele>827</ele>
        <time>2021-08-07T11:53:07.308Z</time>
      </trkpt>
      <trkpt lat="46.91571" lon="8.64115">
        <ele>827</ele>
        <time>2021-08-07T11:53:08.309Z</time>
      </trkpt>
      <trkpt lat="46.91572" lon="8.64109">
        <ele>827</ele>
        <time>2021-08-07T11:53:09.309Z</time>
      </trkpt>
      <trkpt lat="46.91573" lon="8.64107">
        <ele>827</ele>
        <time>2021-08-07T11:53:10.309Z</time>
      </trkpt>
      <trkpt lat="46.91574" lon="8.64102">
        <ele>827</ele>
        <time>2021-08-07T11:53:11.308Z</time>
      </trkpt>
      <trkpt lat="46.91575" lon="8.64097">
        <ele>827</ele>
        <time>2021-08-07T11:53:12.308Z</time>
      </trkpt>
      <trkpt lat="46.91572" lon="8.64094">
        <ele>827</ele>
        <time>2021-08-07T11:53:13.308Z</time>
      </trkpt>
      <trkpt lat="46.91573" lon="8.64091">
        <ele>827</ele>
        <time>2021-08-07T11:53:14.308Z</time>
      </trkpt>
      <trkpt lat="46.91572" lon="8.64087">
        <ele>827</ele>
        <time>2021-08-07T11:53:15.308Z</time>
      </trkpt>
      <trkpt lat="46.91569" lon="8.64086">
        <ele>827</ele>
        <time>2021-08-07T11:53:16.309Z</time>
      </trkpt>
      <trkpt lat="46.91568" lon="8.64085">
        <ele>827</ele>
        <time>2021-08-07T11:53:17.309Z</time>
      </trkpt>
      <trkpt lat="46.91567" lon="8.64086">
        <ele>827</ele>
        <time>2021-08-07T11:53:18.309Z</time>
      </trkpt>
      <trkpt lat="46.91566" lon="8.64085">
        <ele>827</ele>
        <time>2021-08-07T11:53:19.309Z</time>
      </trkpt>
      <trkpt lat="46.91565" lon="8.64085">
        <ele>827</ele>
        <time>2021-08-07T11:53:20.308Z</time>
      </trkpt>
      <trkpt lat="46.91564" lon="8.64084">
        <ele>828</ele>
        <time>2021-08-07T11:53:21.308Z</time>
      </trkpt>
      <trkpt lat="46.91564" lon="8.64084">
        <ele>828</ele>
        <time>2021-08-07T11:53:22.309Z</time>
      </trkpt>
      <trkpt lat="46.91564" lon="8.64082">
        <ele>828</ele>
        <time>2021-08-07T11:53:23.308Z</time>
      </trkpt>
      <trkpt lat="46.91564" lon="8.64081">
        <ele>828</ele>
        <time>2021-08-07T11:53:24.309Z</time>
      </trkpt>
      <trkpt lat="46.91564" lon="8.6408">
        <ele>828</ele>
        <time>2021-08-07T11:53:25.309Z</time>
      </trkpt>
      <trkpt lat="46.91564" lon="8.6408">
        <ele>829</ele>
        <time>2021-08-07T11:53:26.309Z</time>
      </trkpt>
      <trkpt lat="46.91564" lon="8.64079">
        <ele>829</ele>
        <time>2021-08-07T11:53:27.309Z</time>
      </trkpt>
      <trkpt lat="46.91564" lon="8.64078">
        <ele>829</ele>
        <time>2021-08-07T11:53:28.308Z</time>
      </trkpt>
      <trkpt lat="46.91565" lon="8.64076">
        <ele>830</ele>
        <time>2021-08-07T11:53:29.309Z</time>
      </trkpt>
      <trkpt lat="46.91566" lon="8.64075">
        <ele>830</ele>
        <time>2021-08-07T11:53:30.308Z</time>
      </trkpt>
      <trkpt lat="46.91567" lon="8.64075">
        <ele>830</ele>
        <time>2021-08-07T11:53:31.308Z</time>
      </trkpt>
      <trkpt lat="46.91567" lon="8.64078">
        <ele>831</ele>
        <time>2021-08-07T11:53:32.309Z</time>
      </trkpt>
      <trkpt lat="46.91567" lon="8.64083">
        <ele>831</ele>
        <time>2021-08-07T11:53:34.363Z</time>
      </trkpt>
      <trkpt lat="46.91565" lon="8.6409">
        <ele>831</ele>
        <time>2021-08-07T11:53:36.197Z</time>
      </trkpt>
      <trkpt lat="46.91563" lon="8.64097">
        <ele>832</ele>
        <time>2021-08-07T11:53:37.198Z</time>
      </trkpt>
      <trkpt lat="46.9156" lon="8.64104">
        <ele>832</ele>
        <time>2021-08-07T11:53:38.197Z</time>
      </trkpt>
      <trkpt lat="46.91558" lon="8.64107">
        <ele>833</ele>
        <time>2021-08-07T11:53:47.343Z</time>
      </trkpt>
      <trkpt lat="46.91558" lon="8.64108">
        <ele>833</ele>
        <time>2021-08-07T11:53:48.344Z</time>
      </trkpt>
      <trkpt lat="46.91554" lon="8.64108">
        <ele>833</ele>
        <time>2021-08-07T11:53:49.344Z</time>
      </trkpt>
      <trkpt lat="46.91552" lon="8.64107">
        <ele>834</ele>
        <time>2021-08-07T11:53:54.481Z</time>
      </trkpt>
      <trkpt lat="46.91549" lon="8.64107">
        <ele>834</ele>
        <time>2021-08-07T11:53:55.482Z</time>
      </trkpt>
      <trkpt lat="46.91548" lon="8.64108">
        <ele>834</ele>
        <time>2021-08-07T11:53:56.482Z</time>
      </trkpt>
      <trkpt lat="46.91547" lon="8.64109">
        <ele>834</ele>
        <time>2021-08-07T11:53:57.481Z</time>
      </trkpt>
      <trkpt lat="46.91548" lon="8.64109">
        <ele>835</ele>
        <time>2021-08-07T11:53:58.481Z</time>
      </trkpt>
      <trkpt lat="46.9155" lon="8.64108">
        <ele>835</ele>
        <time>2021-08-07T11:53:59.482Z</time>
      </trkpt>
      <trkpt lat="46.9155" lon="8.64108">
        <ele>835</ele>
        <time>2021-08-07T11:54:00.481Z</time>
      </trkpt>
      <trkpt lat="46.91549" lon="8.6411">
        <ele>835</ele>
        <time>2021-08-07T11:54:01.481Z</time>
      </trkpt>
      <trkpt lat="46.91549" lon="8.64111">
        <ele>836</ele>
        <time>2021-08-07T11:54:02.481Z</time>
      </trkpt>
      <trkpt lat="46.91546" lon="8.64111">
        <ele>836</ele>
        <time>2021-08-07T11:54:03.481Z</time>
      </trkpt>
      <trkpt lat="46.91545" lon="8.6411">
        <ele>836</ele>
        <time>2021-08-07T11:54:04.482Z</time>
      </trkpt>
      <trkpt lat="46.91543" lon="8.64109">
        <ele>836</ele>
        <time>2021-08-07T11:54:05.482Z</time>
      </trkpt>
      <trkpt lat="46.91541" lon="8.64108">
        <ele>836</ele>
        <time>2021-08-07T11:54:06.482Z</time>
      </trkpt>
      <trkpt lat="46.91541" lon="8.64105">
        <ele>836</ele>
        <time>2021-08-07T11:54:07.481Z</time>
      </trkpt>
      <trkpt lat="46.91542" lon="8.64103">
        <ele>836</ele>
        <time>2021-08-07T11:54:08.481Z</time>
      </trkpt>
      <trkpt lat="46.91543" lon="8.64102">
        <ele>836</ele>
        <time>2021-08-07T11:54:09.482Z</time>
      </trkpt>
      <trkpt lat="46.9154" lon="8.64106">
        <ele>837</ele>
        <time>2021-08-07T11:54:10.482Z</time>
      </trkpt>
      <trkpt lat="46.91539" lon="8.6411">
        <ele>837</ele>
        <time>2021-08-07T11:54:11.481Z</time>
      </trkpt>
      <trkpt lat="46.91539" lon="8.64112">
        <ele>837</ele>
        <time>2021-08-07T11:54:12.481Z</time>
      </trkpt>
      <trkpt lat="46.91539" lon="8.64111">
        <ele>837</ele>
        <time>2021-08-07T11:54:13.482Z</time>
      </trkpt>
      <trkpt lat="46.91539" lon="8.64111">
        <ele>837</ele>
        <time>2021-08-07T11:54:14.482Z</time>
      </trkpt>
      <trkpt lat="46.91539" lon="8.64112">
        <ele>837</ele>
        <time>2021-08-07T11:54:15.481Z</time>
      </trkpt>
      <trkpt lat="46.91541" lon="8.64111">
        <ele>838</ele>
        <time>2021-08-07T11:54:16.482Z</time>
      </trkpt>
      <trkpt lat="46.91544" lon="8.6411">
        <ele>838</ele>
        <time>2021-08-07T11:54:17.481Z</time>
      </trkpt>
      <trkpt lat="46.91545" lon="8.64108">
        <ele>838</ele>
        <time>2021-08-07T11:54:18.482Z</time>
      </trkpt>
      <trkpt lat="46.91546" lon="8.64107">
        <ele>838</ele>
        <time>2021-08-07T11:54:19.482Z</time>
      </trkpt>
      <trkpt lat="46.91547" lon="8.64106">
        <ele>838</ele>
        <time>2021-08-07T11:54:20.481Z</time>
      </trkpt>
      <trkpt lat="46.91548" lon="8.64104">
        <ele>838</ele>
        <time>2021-08-07T11:54:21.482Z</time>
      </trkpt>
      <trkpt lat="46.9155" lon="8.64102">
        <ele>838</ele>
        <time>2021-08-07T11:54:22.482Z</time>
      </trkpt>
      <trkpt lat="46.91551" lon="8.64101">
        <ele>838</ele>
        <time>2021-08-07T11:54:23.481Z</time>
      </trkpt>
      <trkpt lat="46.91553" lon="8.64099">
        <ele>838</ele>
        <time>2021-08-07T11:54:25.553Z</time>
      </trkpt>
      <trkpt lat="46.91556" lon="8.64098">
        <ele>838</ele>
        <time>2021-08-07T11:54:27.447Z</time>
      </trkpt>
      <trkpt lat="46.91557" lon="8.64098">
        <ele>838</ele>
        <time>2021-08-07T11:54:28.447Z</time>
      </trkpt>
      <trkpt lat="46.91558" lon="8.64096">
        <ele>838</ele>
        <time>2021-08-07T11:54:29.447Z</time>
      </trkpt>
      <trkpt lat="46.91561" lon="8.64094">
        <ele>838</ele>
        <time>2021-08-07T11:54:30.447Z</time>
      </trkpt>
      <trkpt lat="46.9156" lon="8.64091">
        <ele>838</ele>
        <time>2021-08-07T11:54:31.448Z</time>
      </trkpt>
      <trkpt lat="46.9156" lon="8.64091">
        <ele>838</ele>
        <time>2021-08-07T11:54:32.448Z</time>
      </trkpt>
      <trkpt lat="46.91563" lon="8.6409">
        <ele>837</ele>
        <time>2021-08-07T11:54:35.560Z</time>
      </trkpt>
      <trkpt lat="46.91563" lon="8.64088">
        <ele>837</ele>
        <time>2021-08-07T11:54:36.560Z</time>
      </trkpt>
      <trkpt lat="46.91564" lon="8.64085">
        <ele>837</ele>
        <time>2021-08-07T11:54:37.560Z</time>
      </trkpt>
      <trkpt lat="46.91563" lon="8.64083">
        <ele>837</ele>
        <time>2021-08-07T11:54:38.560Z</time>
      </trkpt>
      <trkpt lat="46.91563" lon="8.64081">
        <ele>836</ele>
        <time>2021-08-07T11:54:39.560Z</time>
      </trkpt>
      <trkpt lat="46.91563" lon="8.6408">
        <ele>836</ele>
        <time>2021-08-07T11:54:40.560Z</time>
      </trkpt>
      <trkpt lat="46.91563" lon="8.64079">
        <ele>836</ele>
        <time>2021-08-07T11:54:41.560Z</time>
      </trkpt>
      <trkpt lat="46.91563" lon="8.64078">
        <ele>836</ele>
        <time>2021-08-07T11:54:42.560Z</time>
      </trkpt>
      <trkpt lat="46.91566" lon="8.64077">
        <ele>836</ele>
        <time>2021-08-07T11:54:43.560Z</time>
      </trkpt>
      <trkpt lat="46.91568" lon="8.64077">
        <ele>836</ele>
        <time>2021-08-07T11:54:44.559Z</time>
      </trkpt>
      <trkpt lat="46.91569" lon="8.64075">
        <ele>835</ele>
        <time>2021-08-07T11:54:45.560Z</time>
      </trkpt>
      <trkpt lat="46.91569" lon="8.64074">
        <ele>835</ele>
        <time>2021-08-07T11:54:46.559Z</time>
      </trkpt>
      <trkpt lat="46.91566" lon="8.64074">
        <ele>835</ele>
        <time>2021-08-07T11:54:47.560Z</time>
      </trkpt>
      <trkpt lat="46.91564" lon="8.64073">
        <ele>835</ele>
        <time>2021-08-07T11:54:48.559Z</time>
      </trkpt>
      <trkpt lat="46.91564" lon="8.64073">
        <ele>834</ele>
        <time>2021-08-07T11:54:49.560Z</time>
      </trkpt>
      <trkpt lat="46.91562" lon="8.64072">
        <ele>834</ele>
        <time>2021-08-07T11:54:50.559Z</time>
      </trkpt>
      <trkpt lat="46.91562" lon="8.64072">
        <ele>834</ele>
        <time>2021-08-07T11:54:51.560Z</time>
      </trkpt>
      <trkpt lat="46.91562" lon="8.64071">
        <ele>833</ele>
        <time>2021-08-07T11:54:52.560Z</time>
      </trkpt>
      <trkpt lat="46.91562" lon="8.64071">
        <ele>833</ele>
        <time>2021-08-07T11:54:53.560Z</time>
      </trkpt>
      <trkpt lat="46.91561" lon="8.6407">
        <ele>833</ele>
        <time>2021-08-07T11:54:54.560Z</time>
      </trkpt>
      <trkpt lat="46.91561" lon="8.64069">
        <ele>833</ele>
        <time>2021-08-07T11:54:55.560Z</time>
      </trkpt>
      <trkpt lat="46.91562" lon="8.64068">
        <ele>832</ele>
        <time>2021-08-07T11:54:56.559Z</time>
      </trkpt>
      <trkpt lat="46.91563" lon="8.64068">
        <ele>832</ele>
        <time>2021-08-07T11:54:57.559Z</time>
      </trkpt>
      <trkpt lat="46.91563" lon="8.6407">
        <ele>832</ele>
        <time>2021-08-07T11:54:58.560Z</time>
      </trkpt>
      <trkpt lat="46.91562" lon="8.64072">
        <ele>832</ele>
        <time>2021-08-07T11:54:59.559Z</time>
      </trkpt>
      <trkpt lat="46.91561" lon="8.64075">
        <ele>831</ele>
        <time>2021-08-07T11:55:00.559Z</time>
      </trkpt>
      <trkpt lat="46.9156" lon="8.64078">
        <ele>831</ele>
        <time>2021-08-07T11:55:01.559Z</time>
      </trkpt>
      <trkpt lat="46.91559" lon="8.6408">
        <ele>831</ele>
        <time>2021-08-07T11:55:02.560Z</time>
      </trkpt>
      <trkpt lat="46.91559" lon="8.64081">
        <ele>830</ele>
        <time>2021-08-07T11:55:03.560Z</time>
      </trkpt>
      <trkpt lat="46.91558" lon="8.64081">
        <ele>830</ele>
        <time>2021-08-07T11:55:04.559Z</time>
      </trkpt>
      <trkpt lat="46.91556" lon="8.64081">
        <ele>830</ele>
        <time>2021-08-07T11:55:05.560Z</time>
      </trkpt>
      <trkpt lat="46.91555" lon="8.64081">
        <ele>829</ele>
        <time>2021-08-07T11:55:06.560Z</time>
      </trkpt>
      <trkpt lat="46.91553" lon="8.6408">
        <ele>829</ele>
        <time>2021-08-07T11:55:07.559Z</time>
      </trkpt>
      <trkpt lat="46.91551" lon="8.6408">
        <ele>829</ele>
        <time>2021-08-07T11:55:08.560Z</time>
      </trkpt>
      <trkpt lat="46.91548" lon="8.64081">
        <ele>829</ele>
        <time>2021-08-07T11:55:09.560Z</time>
      </trkpt>
      <trkpt lat="46.91545" lon="8.64084">
        <ele>829</ele>
        <time>2021-08-07T11:55:10.559Z</time>
      </trkpt>
      <trkpt lat="46.91543" lon="8.64087">
        <ele>829</ele>
        <time>2021-08-07T11:55:11.560Z</time>
      </trkpt>
      <trkpt lat="46.91543" lon="8.64087">
        <ele>829</ele>
        <time>2021-08-07T11:55:12.559Z</time>
      </trkpt>
      <trkpt lat="46.91543" lon="8.64086">
        <ele>829</ele>
        <time>2021-08-07T11:55:13.560Z</time>
      </trkpt>
      <trkpt lat="46.91544" lon="8.64087">
        <ele>829</ele>
        <time>2021-08-07T11:55:14.560Z</time>
      </trkpt>
      <trkpt lat="46.91543" lon="8.64088">
        <ele>829</ele>
        <time>2021-08-07T11:55:15.559Z</time>
      </trkpt>
      <trkpt lat="46.91543" lon="8.64088">
        <ele>829</ele>
        <time>2021-08-07T11:55:16.560Z</time>
      </trkpt>
      <trkpt lat="46.91542" lon="8.64088">
        <ele>829</ele>
        <time>2021-08-07T11:55:17.560Z</time>
      </trkpt>
      <trkpt lat="46.91542" lon="8.64088">
        <ele>829</ele>
        <time>2021-08-07T11:55:18.560Z</time>
      </trkpt>
      <trkpt lat="46.91541" lon="8.64088">
        <ele>829</ele>
        <time>2021-08-07T11:55:19.560Z</time>
      </trkpt>
      <trkpt lat="46.9154" lon="8.64088">
        <ele>829</ele>
        <time>2021-08-07T11:55:20.560Z</time>
      </trkpt>
      <trkpt lat="46.9154" lon="8.64088">
        <ele>829</ele>
        <time>2021-08-07T11:55:21.560Z</time>
      </trkpt>
      <trkpt lat="46.91539" lon="8.64088">
        <ele>829</ele>
        <time>2021-08-07T11:55:28.711Z</time>
      </trkpt>
      <trkpt lat="46.91539" lon="8.64087">
        <ele>829</ele>
        <time>2021-08-07T11:55:29.710Z</time>
      </trkpt>
      <trkpt lat="46.91539" lon="8.64086">
        <ele>829</ele>
        <time>2021-08-07T11:55:38.625Z</time>
      </trkpt>
      <trkpt lat="46.91538" lon="8.64084">
        <ele>829</ele>
        <time>2021-08-07T11:56:09.505Z</time>
      </trkpt>
      <trkpt lat="46.91538" lon="8.64083">
        <ele>829</ele>
        <time>2021-08-07T11:56:10.505Z</time>
      </trkpt>
      <trkpt lat="46.91539" lon="8.64081">
        <ele>829</ele>
        <time>2021-08-07T11:56:11.506Z</time>
      </trkpt>
      <trkpt lat="46.91539" lon="8.6408">
        <ele>829</ele>
        <time>2021-08-07T11:56:12.506Z</time>
      </trkpt>
      <trkpt lat="46.91538" lon="8.64081">
        <ele>829</ele>
        <time>2021-08-07T11:56:13.506Z</time>
      </trkpt>
      <trkpt lat="46.91538" lon="8.64083">
        <ele>828</ele>
        <time>2021-08-07T11:56:14.506Z</time>
      </trkpt>
      <trkpt lat="46.91539" lon="8.64086">
        <ele>828</ele>
        <time>2021-08-07T11:56:15.506Z</time>
      </trkpt>
      <trkpt lat="46.91543" lon="8.64085">
        <ele>828</ele>
        <time>2021-08-07T11:56:16.506Z</time>
      </trkpt>
      <trkpt lat="46.91545" lon="8.64083">
        <ele>828</ele>
        <time>2021-08-07T11:56:38.580Z</time>
      </trkpt>
      <trkpt lat="46.91544" lon="8.64081">
        <ele>827</ele>
        <time>2021-08-07T11:56:39.580Z</time>
      </trkpt>
      <trkpt lat="46.91544" lon="8.6408">
        <ele>827</ele>
        <time>2021-08-07T11:56:40.580Z</time>
      </trkpt>
      <trkpt lat="46.91544" lon="8.6408">
        <ele>827</ele>
        <time>2021-08-07T11:56:48.711Z</time>
      </trkpt>
      <trkpt lat="46.91544" lon="8.6408">
        <ele>827</ele>
        <time>2021-08-07T11:56:49.712Z</time>
      </trkpt>
      <trkpt lat="46.91543" lon="8.64078">
        <ele>827</ele>
        <time>2021-08-07T11:57:00.593Z</time>
      </trkpt>
      <trkpt lat="46.91543" lon="8.64078">
        <ele>826</ele>
        <time>2021-08-07T11:57:01.592Z</time>
      </trkpt>
      <trkpt lat="46.91544" lon="8.64078">
        <ele>826</ele>
        <time>2021-08-07T11:57:04.453Z</time>
      </trkpt>
      <trkpt lat="46.91544" lon="8.64076">
        <ele>826</ele>
        <time>2021-08-07T11:57:05.454Z</time>
      </trkpt>
      <trkpt lat="46.91544" lon="8.64076">
        <ele>826</ele>
        <time>2021-08-07T11:57:06.453Z</time>
      </trkpt>
      <trkpt lat="46.91545" lon="8.64075">
        <ele>826</ele>
        <time>2021-08-07T11:57:07.454Z</time>
      </trkpt>
      <trkpt lat="46.91545" lon="8.64074">
        <ele>826</ele>
        <time>2021-08-07T11:57:08.454Z</time>
      </trkpt>
      <trkpt lat="46.91545" lon="8.64073">
        <ele>825</ele>
        <time>2021-08-07T11:57:09.454Z</time>
      </trkpt>
      <trkpt lat="46.91544" lon="8.64072">
        <ele>825</ele>
        <time>2021-08-07T11:57:10.454Z</time>
      </trkpt>
      <trkpt lat="46.91544" lon="8.6407">
        <ele>825</ele>
        <time>2021-08-07T11:57:11.453Z</time>
      </trkpt>
      <trkpt lat="46.91543" lon="8.64066">
        <ele>825</ele>
        <time>2021-08-07T11:57:12.453Z</time>
      </trkpt>
      <trkpt lat="46.91543" lon="8.64062">
        <ele>825</ele>
        <time>2021-08-07T11:57:13.454Z</time>
      </trkpt>
      <trkpt lat="46.91543" lon="8.64064">
        <ele>825</ele>
        <time>2021-08-07T11:57:14.453Z</time>
      </trkpt>
      <trkpt lat="46.91545" lon="8.64063">
        <ele>825</ele>
        <time>2021-08-07T11:57:15.454Z</time>
      </trkpt>
      <trkpt lat="46.91546" lon="8.64064">
        <ele>824</ele>
        <time>2021-08-07T11:57:16.454Z</time>
      </trkpt>
      <trkpt lat="46.91544" lon="8.64063">
        <ele>824</ele>
        <time>2021-08-07T11:57:17.453Z</time>
      </trkpt>
      <trkpt lat="46.9154" lon="8.64061">
        <ele>824</ele>
        <time>2021-08-07T11:57:18.453Z</time>
      </trkpt>
      <trkpt lat="46.91537" lon="8.64058">
        <ele>824</ele>
        <time>2021-08-07T11:57:19.453Z</time>
      </trkpt>
      <trkpt lat="46.91535" lon="8.64056">
        <ele>824</ele>
        <time>2021-08-07T11:57:20.454Z</time>
      </trkpt>
      <trkpt lat="46.91535" lon="8.64053">
        <ele>824</ele>
        <time>2021-08-07T11:57:21.454Z</time>
      </trkpt>
      <trkpt lat="46.91534" lon="8.64052">
        <ele>824</ele>
        <time>2021-08-07T11:57:22.453Z</time>
      </trkpt>
      <trkpt lat="46.91533" lon="8.64051">
        <ele>824</ele>
        <time>2021-08-07T11:57:23.454Z</time>
      </trkpt>
      <trkpt lat="46.91531" lon="8.64051">
        <ele>824</ele>
        <time>2021-08-07T11:57:24.453Z</time>
      </trkpt>
      <trkpt lat="46.91531" lon="8.6405">
        <ele>824</ele>
        <time>2021-08-07T11:57:25.453Z</time>
      </trkpt>
      <trkpt lat="46.9153" lon="8.64048">
        <ele>823</ele>
        <time>2021-08-07T11:57:26.453Z</time>
      </trkpt>
      <trkpt lat="46.9153" lon="8.64048">
        <ele>823</ele>
        <time>2021-08-07T11:57:27.453Z</time>
      </trkpt>
      <trkpt lat="46.9153" lon="8.64047">
        <ele>823</ele>
        <time>2021-08-07T11:57:28.453Z</time>
      </trkpt>
      <trkpt lat="46.9153" lon="8.64046">
        <ele>823</ele>
        <time>2021-08-07T11:57:36.468Z</time>
      </trkpt>
      <trkpt lat="46.91529" lon="8.64046">
        <ele>823</ele>
        <time>2021-08-07T11:57:37.468Z</time>
      </trkpt>
      <trkpt lat="46.91528" lon="8.64046">
        <ele>822</ele>
        <time>2021-08-07T11:57:38.468Z</time>
      </trkpt>
      <trkpt lat="46.91528" lon="8.64043">
        <ele>822</ele>
        <time>2021-08-07T11:57:39.468Z</time>
      </trkpt>
      <trkpt lat="46.91528" lon="8.64041">
        <ele>822</ele>
        <time>2021-08-07T11:57:40.468Z</time>
      </trkpt>
      <trkpt lat="46.91528" lon="8.64038">
        <ele>822</ele>
        <time>2021-08-07T11:57:41.469Z</time>
      </trkpt>
      <trkpt lat="46.91527" lon="8.64037">
        <ele>822</ele>
        <time>2021-08-07T11:57:42.469Z</time>
      </trkpt>
      <trkpt lat="46.91526" lon="8.64037">
        <ele>822</ele>
        <time>2021-08-07T11:57:43.469Z</time>
      </trkpt>
      <trkpt lat="46.91525" lon="8.64037">
        <ele>822</ele>
        <time>2021-08-07T11:57:44.468Z</time>
      </trkpt>
      <trkpt lat="46.91523" lon="8.64038">
        <ele>822</ele>
        <time>2021-08-07T11:57:45.468Z</time>
      </trkpt>
      <trkpt lat="46.91522" lon="8.64037">
        <ele>822</ele>
        <time>2021-08-07T11:57:46.468Z</time>
      </trkpt>
      <trkpt lat="46.91522" lon="8.64037">
        <ele>821</ele>
        <time>2021-08-07T11:57:47.468Z</time>
      </trkpt>
      <trkpt lat="46.91522" lon="8.64037">
        <ele>821</ele>
        <time>2021-08-07T11:57:48.468Z</time>
      </trkpt>
      <trkpt lat="46.91522" lon="8.64037">
        <ele>821</ele>
        <time>2021-08-07T11:57:49.468Z</time>
      </trkpt>
      <trkpt lat="46.91522" lon="8.64036">
        <ele>821</ele>
        <time>2021-08-07T11:57:50.469Z</time>
      </trkpt>
      <trkpt lat="46.91514" lon="8.64032">
        <ele>821</ele>
        <time>2021-08-07T11:57:51.469Z</time>
      </trkpt>
      <trkpt lat="46.91514" lon="8.6403">
        <ele>821</ele>
        <time>2021-08-07T11:57:52.469Z</time>
      </trkpt>
      <trkpt lat="46.91514" lon="8.64029">
        <ele>822</ele>
        <time>2021-08-07T11:57:53.468Z</time>
      </trkpt>
      <trkpt lat="46.91513" lon="8.64027">
        <ele>822</ele>
        <time>2021-08-07T11:57:54.469Z</time>
      </trkpt>
      <trkpt lat="46.91512" lon="8.64026">
        <ele>822</ele>
        <time>2021-08-07T11:57:55.469Z</time>
      </trkpt>
      <trkpt lat="46.91512" lon="8.64025">
        <ele>822</ele>
        <time>2021-08-07T11:57:56.468Z</time>
      </trkpt>
      <trkpt lat="46.91511" lon="8.64024">
        <ele>822</ele>
        <time>2021-08-07T11:57:57.468Z</time>
      </trkpt>
      <trkpt lat="46.9151" lon="8.64022">
        <ele>822</ele>
        <time>2021-08-07T11:57:58.468Z</time>
      </trkpt>
      <trkpt lat="46.91509" lon="8.6402">
        <ele>822</ele>
        <time>2021-08-07T11:57:59.468Z</time>
      </trkpt>
      <trkpt lat="46.91509" lon="8.64019">
        <ele>822</ele>
        <time>2021-08-07T11:58:00.469Z</time>
      </trkpt>
      <trkpt lat="46.91509" lon="8.64019">
        <ele>822</ele>
        <time>2021-08-07T11:58:01.469Z</time>
      </trkpt>
      <trkpt lat="46.91509" lon="8.64019">
        <ele>822</ele>
        <time>2021-08-07T11:58:02.468Z</time>
      </trkpt>
      <trkpt lat="46.91508" lon="8.64019">
        <ele>822</ele>
        <time>2021-08-07T11:58:03.469Z</time>
      </trkpt>
      <trkpt lat="46.91509" lon="8.64018">
        <ele>822</ele>
        <time>2021-08-07T11:58:04.469Z</time>
      </trkpt>
      <trkpt lat="46.91509" lon="8.64018">
        <ele>822</ele>
        <time>2021-08-07T11:58:05.468Z</time>
      </trkpt>
      <trkpt lat="46.91509" lon="8.64019">
        <ele>822</ele>
        <time>2021-08-07T11:58:06.469Z</time>
      </trkpt>
      <trkpt lat="46.91508" lon="8.64022">
        <ele>823</ele>
        <time>2021-08-07T11:58:07.469Z</time>
      </trkpt>
      <trkpt lat="46.91507" lon="8.64024">
        <ele>823</ele>
        <time>2021-08-07T11:58:08.469Z</time>
      </trkpt>
      <trkpt lat="46.91507" lon="8.64025">
        <ele>823</ele>
        <time>2021-08-07T11:58:09.469Z</time>
      </trkpt>
      <trkpt lat="46.91505" lon="8.64027">
        <ele>823</ele>
        <time>2021-08-07T11:58:10.469Z</time>
      </trkpt>
      <trkpt lat="46.91504" lon="8.64028">
        <ele>823</ele>
        <time>2021-08-07T11:58:11.468Z</time>
      </trkpt>
      <trkpt lat="46.91503" lon="8.64029">
        <ele>824</ele>
        <time>2021-08-07T11:58:12.469Z</time>
      </trkpt>
      <trkpt lat="46.91503" lon="8.64032">
        <ele>824</ele>
        <time>2021-08-07T11:58:13.469Z</time>
      </trkpt>
      <trkpt lat="46.91504" lon="8.64033">
        <ele>824</ele>
        <time>2021-08-07T11:58:14.468Z</time>
      </trkpt>
      <trkpt lat="46.91505" lon="8.64032">
        <ele>824</ele>
        <time>2021-08-07T11:58:15.468Z</time>
      </trkpt>
      <trkpt lat="46.91506" lon="8.6403">
        <ele>824</ele>
        <time>2021-08-07T11:58:16.469Z</time>
      </trkpt>
      <trkpt lat="46.91506" lon="8.64029">
        <ele>824</ele>
        <time>2021-08-07T11:58:17.469Z</time>
      </trkpt>
      <trkpt lat="46.91506" lon="8.64028">
        <ele>824</ele>
        <time>2021-08-07T11:58:18.469Z</time>
      </trkpt>
      <trkpt lat="46.91505" lon="8.64026">
        <ele>824</ele>
        <time>2021-08-07T11:58:19.468Z</time>
      </trkpt>
      <trkpt lat="46.91505" lon="8.64024">
        <ele>824</ele>
        <time>2021-08-07T11:58:20.469Z</time>
      </trkpt>
      <trkpt lat="46.91504" lon="8.64023">
        <ele>823</ele>
        <time>2021-08-07T11:58:21.468Z</time>
      </trkpt>
      <trkpt lat="46.91503" lon="8.64022">
        <ele>823</ele>
        <time>2021-08-07T11:58:22.469Z</time>
      </trkpt>
      <trkpt lat="46.91504" lon="8.6402">
        <ele>823</ele>
        <time>2021-08-07T11:58:23.469Z</time>
      </trkpt>
      <trkpt lat="46.91503" lon="8.64019">
        <ele>823</ele>
        <time>2021-08-07T11:58:24.469Z</time>
      </trkpt>
      <trkpt lat="46.91502" lon="8.64018">
        <ele>823</ele>
        <time>2021-08-07T11:58:25.469Z</time>
      </trkpt>
      <trkpt lat="46.91501" lon="8.64017">
        <ele>822</ele>
        <time>2021-08-07T11:58:26.469Z</time>
      </trkpt>
      <trkpt lat="46.91499" lon="8.64015">
        <ele>822</ele>
        <time>2021-08-07T11:58:27.469Z</time>
      </trkpt>
      <trkpt lat="46.91497" lon="8.64014">
        <ele>822</ele>
        <time>2021-08-07T11:58:28.469Z</time>
      </trkpt>
      <trkpt lat="46.91495" lon="8.64007">
        <ele>822</ele>
        <time>2021-08-07T11:58:29.469Z</time>
      </trkpt>
      <trkpt lat="46.91496" lon="8.64005">
        <ele>821</ele>
        <time>2021-08-07T11:58:30.469Z</time>
      </trkpt>
      <trkpt lat="46.91498" lon="8.64004">
        <ele>821</ele>
        <time>2021-08-07T11:58:31.469Z</time>
      </trkpt>
      <trkpt lat="46.91499" lon="8.64004">
        <ele>821</ele>
        <time>2021-08-07T11:58:32.469Z</time>
      </trkpt>
      <trkpt lat="46.91498" lon="8.64004">
        <ele>821</ele>
        <time>2021-08-07T11:58:33.468Z</time>
      </trkpt>
      <trkpt lat="46.91497" lon="8.64003">
        <ele>821</ele>
        <time>2021-08-07T11:58:34.469Z</time>
      </trkpt>
      <trkpt lat="46.91496" lon="8.64002">
        <ele>820</ele>
        <time>2021-08-07T11:58:35.468Z</time>
      </trkpt>
      <trkpt lat="46.91496" lon="8.64001">
        <ele>820</ele>
        <time>2021-08-07T11:58:36.469Z</time>
      </trkpt>
      <trkpt lat="46.91497" lon="8.64">
        <ele>820</ele>
        <time>2021-08-07T11:58:37.468Z</time>
      </trkpt>
      <trkpt lat="46.91497" lon="8.64">
        <ele>820</ele>
        <time>2021-08-07T11:58:38.469Z</time>
      </trkpt>
      <trkpt lat="46.91498" lon="8.63999">
        <ele>820</ele>
        <time>2021-08-07T11:58:39.469Z</time>
      </trkpt>
      <trkpt lat="46.91499" lon="8.63999">
        <ele>820</ele>
        <time>2021-08-07T11:58:40.469Z</time>
      </trkpt>
      <trkpt lat="46.915" lon="8.63998">
        <ele>820</ele>
        <time>2021-08-07T11:58:41.469Z</time>
      </trkpt>
      <trkpt lat="46.91502" lon="8.63995">
        <ele>820</ele>
        <time>2021-08-07T11:58:42.469Z</time>
      </trkpt>
      <trkpt lat="46.91503" lon="8.63993">
        <ele>820</ele>
        <time>2021-08-07T11:58:43.468Z</time>
      </trkpt>
      <trkpt lat="46.91504" lon="8.63994">
        <ele>820</ele>
        <time>2021-08-07T11:58:44.469Z</time>
      </trkpt>
      <trkpt lat="46.91504" lon="8.63995">
        <ele>820</ele>
        <time>2021-08-07T11:58:45.469Z</time>
      </trkpt>
      <trkpt lat="46.91504" lon="8.63998">
        <ele>820</ele>
        <time>2021-08-07T11:58:46.469Z</time>
      </trkpt>
      <trkpt lat="46.91505" lon="8.63998">
        <ele>819</ele>
        <time>2021-08-07T11:58:47.468Z</time>
      </trkpt>
      <trkpt lat="46.91504" lon="8.63998">
        <ele>819</ele>
        <time>2021-08-07T11:58:48.469Z</time>
      </trkpt>
      <trkpt lat="46.91503" lon="8.63998">
        <ele>819</ele>
        <time>2021-08-07T11:58:49.469Z</time>
      </trkpt>
      <trkpt lat="46.91502" lon="8.63999">
        <ele>819</ele>
        <time>2021-08-07T11:58:50.469Z</time>
      </trkpt>
      <trkpt lat="46.915" lon="8.64">
        <ele>819</ele>
        <time>2021-08-07T11:58:51.469Z</time>
      </trkpt>
      <trkpt lat="46.91499" lon="8.64">
        <ele>819</ele>
        <time>2021-08-07T11:58:52.468Z</time>
      </trkpt>
      <trkpt lat="46.91498" lon="8.64">
        <ele>819</ele>
        <time>2021-08-07T11:58:53.468Z</time>
      </trkpt>
      <trkpt lat="46.91498" lon="8.63999">
        <ele>819</ele>
        <time>2021-08-07T11:58:54.469Z</time>
      </trkpt>
      <trkpt lat="46.91493" lon="8.63951">
        <ele>810</ele>
        <time>2021-08-07T11:58:55.470Z</time>
      </trkpt>
      <trkpt lat="46.91491" lon="8.6395">
        <ele>810</ele>
        <time>2021-08-07T11:58:56.469Z</time>
      </trkpt>
      <trkpt lat="46.91492" lon="8.6395">
        <ele>809</ele>
        <time>2021-08-07T11:58:57.469Z</time>
      </trkpt>
      <trkpt lat="46.9149" lon="8.63949">
        <ele>809</ele>
        <time>2021-08-07T11:58:58.469Z</time>
      </trkpt>
      <trkpt lat="46.91489" lon="8.63949">
        <ele>808</ele>
        <time>2021-08-07T11:58:59.470Z</time>
      </trkpt>
      <trkpt lat="46.9149" lon="8.63948">
        <ele>807</ele>
        <time>2021-08-07T11:59:00.470Z</time>
      </trkpt>
      <trkpt lat="46.91491" lon="8.63944">
        <ele>807</ele>
        <time>2021-08-07T11:59:01.470Z</time>
      </trkpt>
      <trkpt lat="46.91492" lon="8.63941">
        <ele>806</ele>
        <time>2021-08-07T11:59:02.470Z</time>
      </trkpt>
      <trkpt lat="46.91492" lon="8.63938">
        <ele>806</ele>
        <time>2021-08-07T11:59:03.470Z</time>
      </trkpt>
      <trkpt lat="46.9149" lon="8.63937">
        <ele>806</ele>
        <time>2021-08-07T11:59:04.469Z</time>
      </trkpt>
      <trkpt lat="46.91489" lon="8.63937">
        <ele>805</ele>
        <time>2021-08-07T11:59:05.469Z</time>
      </trkpt>
      <trkpt lat="46.91488" lon="8.63937">
        <ele>805</ele>
        <time>2021-08-07T11:59:06.469Z</time>
      </trkpt>
      <trkpt lat="46.91487" lon="8.63935">
        <ele>804</ele>
        <time>2021-08-07T11:59:07.470Z</time>
      </trkpt>
      <trkpt lat="46.91487" lon="8.63934">
        <ele>804</ele>
        <time>2021-08-07T11:59:08.470Z</time>
      </trkpt>
      <trkpt lat="46.91487" lon="8.63933">
        <ele>804</ele>
        <time>2021-08-07T11:59:09.470Z</time>
      </trkpt>
      <trkpt lat="46.91487" lon="8.63932">
        <ele>804</ele>
        <time>2021-08-07T11:59:10.469Z</time>
      </trkpt>
      <trkpt lat="46.91486" lon="8.63932">
        <ele>804</ele>
        <time>2021-08-07T11:59:11.469Z</time>
      </trkpt>
      <trkpt lat="46.91486" lon="8.63932">
        <ele>804</ele>
        <time>2021-08-07T11:59:12.470Z</time>
      </trkpt>
      <trkpt lat="46.91485" lon="8.63931">
        <ele>804</ele>
        <time>2021-08-07T11:59:13.469Z</time>
      </trkpt>
      <trkpt lat="46.91485" lon="8.63929">
        <ele>804</ele>
        <time>2021-08-07T11:59:14.470Z</time>
      </trkpt>
      <trkpt lat="46.91484" lon="8.63927">
        <ele>804</ele>
        <time>2021-08-07T11:59:15.469Z</time>
      </trkpt>
      <trkpt lat="46.91484" lon="8.63925">
        <ele>803</ele>
        <time>2021-08-07T11:59:16.469Z</time>
      </trkpt>
      <trkpt lat="46.91484" lon="8.63923">
        <ele>803</ele>
        <time>2021-08-07T11:59:17.470Z</time>
      </trkpt>
      <trkpt lat="46.91483" lon="8.63922">
        <ele>803</ele>
        <time>2021-08-07T11:59:18.470Z</time>
      </trkpt>
      <trkpt lat="46.91483" lon="8.63919">
        <ele>803</ele>
        <time>2021-08-07T11:59:19.470Z</time>
      </trkpt>
      <trkpt lat="46.91483" lon="8.63918">
        <ele>803</ele>
        <time>2021-08-07T11:59:20.470Z</time>
      </trkpt>
      <trkpt lat="46.91483" lon="8.63916">
        <ele>803</ele>
        <time>2021-08-07T11:59:21.469Z</time>
      </trkpt>
      <trkpt lat="46.91484" lon="8.63916">
        <ele>803</ele>
        <time>2021-08-07T11:59:22.470Z</time>
      </trkpt>
      <trkpt lat="46.91485" lon="8.63913">
        <ele>803</ele>
        <time>2021-08-07T11:59:23.470Z</time>
      </trkpt>
      <trkpt lat="46.91485" lon="8.63913">
        <ele>803</ele>
        <time>2021-08-07T11:59:24.469Z</time>
      </trkpt>
      <trkpt lat="46.91483" lon="8.63912">
        <ele>803</ele>
        <time>2021-08-07T11:59:25.469Z</time>
      </trkpt>
      <trkpt lat="46.91483" lon="8.63913">
        <ele>803</ele>
        <time>2021-08-07T11:59:26.470Z</time>
      </trkpt>
      <trkpt lat="46.91485" lon="8.63911">
        <ele>803</ele>
        <time>2021-08-07T11:59:27.469Z</time>
      </trkpt>
      <trkpt lat="46.9148" lon="8.63911">
        <ele>803</ele>
        <time>2021-08-07T11:59:28.470Z</time>
      </trkpt>
      <trkpt lat="46.9148" lon="8.63909">
        <ele>803</ele>
        <time>2021-08-07T11:59:29.469Z</time>
      </trkpt>
      <trkpt lat="46.91479" lon="8.63908">
        <ele>803</ele>
        <time>2021-08-07T11:59:30.470Z</time>
      </trkpt>
      <trkpt lat="46.91478" lon="8.63905">
        <ele>802</ele>
        <time>2021-08-07T11:59:31.470Z</time>
      </trkpt>
      <trkpt lat="46.91477" lon="8.63902">
        <ele>802</ele>
        <time>2021-08-07T11:59:32.470Z</time>
      </trkpt>
      <trkpt lat="46.91476" lon="8.639">
        <ele>802</ele>
        <time>2021-08-07T11:59:33.470Z</time>
      </trkpt>
      <trkpt lat="46.91477" lon="8.63899">
        <ele>802</ele>
        <time>2021-08-07T11:59:34.470Z</time>
      </trkpt>
      <trkpt lat="46.91478" lon="8.63897">
        <ele>802</ele>
        <time>2021-08-07T11:59:35.470Z</time>
      </trkpt>
      <trkpt lat="46.91476" lon="8.63896">
        <ele>802</ele>
        <time>2021-08-07T11:59:36.469Z</time>
      </trkpt>
      <trkpt lat="46.91473" lon="8.63897">
        <ele>802</ele>
        <time>2021-08-07T11:59:37.469Z</time>
      </trkpt>
      <trkpt lat="46.91471" lon="8.63897">
        <ele>802</ele>
        <time>2021-08-07T11:59:38.469Z</time>
      </trkpt>
      <trkpt lat="46.91471" lon="8.63896">
        <ele>802</ele>
        <time>2021-08-07T11:59:39.469Z</time>
      </trkpt>
      <trkpt lat="46.91469" lon="8.63894">
        <ele>801</ele>
        <time>2021-08-07T11:59:40.470Z</time>
      </trkpt>
      <trkpt lat="46.91466" lon="8.63896">
        <ele>801</ele>
        <time>2021-08-07T11:59:41.470Z</time>
      </trkpt>
      <trkpt lat="46.91464" lon="8.63897">
        <ele>801</ele>
        <time>2021-08-07T11:59:42.470Z</time>
      </trkpt>
      <trkpt lat="46.91463" lon="8.63896">
        <ele>801</ele>
        <time>2021-08-07T11:59:43.469Z</time>
      </trkpt>
      <trkpt lat="46.91463" lon="8.63895">
        <ele>801</ele>
        <time>2021-08-07T11:59:44.470Z</time>
      </trkpt>
      <trkpt lat="46.91462" lon="8.63893">
        <ele>801</ele>
        <time>2021-08-07T11:59:45.469Z</time>
      </trkpt>
      <trkpt lat="46.91463" lon="8.63891">
        <ele>801</ele>
        <time>2021-08-07T11:59:46.470Z</time>
      </trkpt>
      <trkpt lat="46.91463" lon="8.63889">
        <ele>801</ele>
        <time>2021-08-07T11:59:47.469Z</time>
      </trkpt>
      <trkpt lat="46.91463" lon="8.63888">
        <ele>801</ele>
        <time>2021-08-07T11:59:48.469Z</time>
      </trkpt>
      <trkpt lat="46.91463" lon="8.63888">
        <ele>801</ele>
        <time>2021-08-07T11:59:49.470Z</time>
      </trkpt>
      <trkpt lat="46.91463" lon="8.63887">
        <ele>801</ele>
        <time>2021-08-07T11:59:50.469Z</time>
      </trkpt>
      <trkpt lat="46.91462" lon="8.63889">
        <ele>801</ele>
        <time>2021-08-07T11:59:51.469Z</time>
      </trkpt>
      <trkpt lat="46.9146" lon="8.63892">
        <ele>801</ele>
        <time>2021-08-07T11:59:52.469Z</time>
      </trkpt>
      <trkpt lat="46.9146" lon="8.63894">
        <ele>801</ele>
        <time>2021-08-07T11:59:53.470Z</time>
      </trkpt>
      <trkpt lat="46.9146" lon="8.63895">
        <ele>801</ele>
        <time>2021-08-07T11:59:54.470Z</time>
      </trkpt>
      <trkpt lat="46.9146" lon="8.63895">
        <ele>801</ele>
        <time>2021-08-07T11:59:55.470Z</time>
      </trkpt>
      <trkpt lat="46.91461" lon="8.63895">
        <ele>801</ele>
        <time>2021-08-07T11:59:56.470Z</time>
      </trkpt>
      <trkpt lat="46.91461" lon="8.63895">
        <ele>801</ele>
        <time>2021-08-07T11:59:57.470Z</time>
      </trkpt>
      <trkpt lat="46.91461" lon="8.63894">
        <ele>801</ele>
        <time>2021-08-07T11:59:58.470Z</time>
      </trkpt>
      <trkpt lat="46.91462" lon="8.63893">
        <ele>801</ele>
        <time>2021-08-07T11:59:59.470Z</time>
      </trkpt>
      <trkpt lat="46.91462" lon="8.63893">
        <ele>801</ele>
        <time>2021-08-07T12:00:00.470Z</time>
      </trkpt>
      <trkpt lat="46.91462" lon="8.63892">
        <ele>801</ele>
        <time>2021-08-07T12:00:01.469Z</time>
      </trkpt>
      <trkpt lat="46.91462" lon="8.63892">
        <ele>801</ele>
        <time>2021-08-07T12:00:02.470Z</time>
      </trkpt>
      <trkpt lat="46.91462" lon="8.63892">
        <ele>801</ele>
        <time>2021-08-07T12:00:03.469Z</time>
      </trkpt>
      <trkpt lat="46.91462" lon="8.63893">
        <ele>802</ele>
        <time>2021-08-07T12:00:04.470Z</time>
      </trkpt>
      <trkpt lat="46.91462" lon="8.63894">
        <ele>802</ele>
        <time>2021-08-07T12:00:05.470Z</time>
      </trkpt>
      <trkpt lat="46.91461" lon="8.63894">
        <ele>802</ele>
        <time>2021-08-07T12:00:06.469Z</time>
      </trkpt>
      <trkpt lat="46.91462" lon="8.63894">
        <ele>802</ele>
        <time>2021-08-07T12:00:07.470Z</time>
      </trkpt>
      <trkpt lat="46.91462" lon="8.63894">
        <ele>802</ele>
        <time>2021-08-07T12:00:08.470Z</time>
      </trkpt>
      <trkpt lat="46.91462" lon="8.63894">
        <ele>802</ele>
        <time>2021-08-07T12:00:09.470Z</time>
      </trkpt>
      <trkpt lat="46.91462" lon="8.63892">
        <ele>802</ele>
        <time>2021-08-07T12:00:10.470Z</time>
      </trkpt>
      <trkpt lat="46.91462" lon="8.63891">
        <ele>802</ele>
        <time>2021-08-07T12:00:11.470Z</time>
      </trkpt>
      <trkpt lat="46.91463" lon="8.63891">
        <ele>802</ele>
        <time>2021-08-07T12:00:12.470Z</time>
      </trkpt>
      <trkpt lat="46.91462" lon="8.63893">
        <ele>802</ele>
        <time>2021-08-07T12:00:13.469Z</time>
      </trkpt>
      <trkpt lat="46.9146" lon="8.63896">
        <ele>803</ele>
        <time>2021-08-07T12:00:14.469Z</time>
      </trkpt>
      <trkpt lat="46.91458" lon="8.63899">
        <ele>803</ele>
        <time>2021-08-07T12:00:15.470Z</time>
      </trkpt>
      <trkpt lat="46.91456" lon="8.63901">
        <ele>803</ele>
        <time>2021-08-07T12:00:16.470Z</time>
      </trkpt>
      <trkpt lat="46.91456" lon="8.63902">
        <ele>803</ele>
        <time>2021-08-07T12:00:17.469Z</time>
      </trkpt>
      <trkpt lat="46.91457" lon="8.63902">
        <ele>803</ele>
        <time>2021-08-07T12:00:18.470Z</time>
      </trkpt>
      <trkpt lat="46.91459" lon="8.63903">
        <ele>803</ele>
        <time>2021-08-07T12:00:19.469Z</time>
      </trkpt>
      <trkpt lat="46.91461" lon="8.63903">
        <ele>803</ele>
        <time>2021-08-07T12:00:26.592Z</time>
      </trkpt>
      <trkpt lat="46.91461" lon="8.63902">
        <ele>803</ele>
        <time>2021-08-07T12:00:27.592Z</time>
      </trkpt>
      <trkpt lat="46.91461" lon="8.63902">
        <ele>803</ele>
        <time>2021-08-07T12:00:35.326Z</time>
      </trkpt>
      <trkpt lat="46.91461" lon="8.63902">
        <ele>803</ele>
        <time>2021-08-07T12:00:36.326Z</time>
      </trkpt>
      <trkpt lat="46.91461" lon="8.63902">
        <ele>803</ele>
        <time>2021-08-07T12:00:37.326Z</time>
      </trkpt>
      <trkpt lat="46.91461" lon="8.63902">
        <ele>803</ele>
        <time>2021-08-07T12:00:41.430Z</time>
      </trkpt>
      <trkpt lat="46.91461" lon="8.63902">
        <ele>803</ele>
        <time>2021-08-07T12:00:42.430Z</time>
      </trkpt>
      <trkpt lat="46.91461" lon="8.63902">
        <ele>803</ele>
        <time>2021-08-07T12:00:43.430Z</time>
      </trkpt>
      <trkpt lat="46.91462" lon="8.63902">
        <ele>803</ele>
        <time>2021-08-07T12:00:44.430Z</time>
      </trkpt>
      <trkpt lat="46.91463" lon="8.63902">
        <ele>803</ele>
        <time>2021-08-07T12:00:45.430Z</time>
      </trkpt>
      <trkpt lat="46.91463" lon="8.63902">
        <ele>803</ele>
        <time>2021-08-07T12:00:46.429Z</time>
      </trkpt>
      <trkpt lat="46.91463" lon="8.63902">
        <ele>803</ele>
        <time>2021-08-07T12:00:47.429Z</time>
      </trkpt>
      <trkpt lat="46.91463" lon="8.63901">
        <ele>803</ele>
        <time>2021-08-07T12:00:53.617Z</time>
      </trkpt>
      <trkpt lat="46.91464" lon="8.639">
        <ele>803</ele>
        <time>2021-08-07T12:00:54.617Z</time>
      </trkpt>
      <trkpt lat="46.9147" lon="8.63899">
        <ele>803</ele>
        <time>2021-08-07T12:00:55.616Z</time>
      </trkpt>
      <trkpt lat="46.9147" lon="8.63897">
        <ele>803</ele>
        <time>2021-08-07T12:00:56.617Z</time>
      </trkpt>
      <trkpt lat="46.91468" lon="8.63894">
        <ele>803</ele>
        <time>2021-08-07T12:00:57.617Z</time>
      </trkpt>
      <trkpt lat="46.91468" lon="8.63895">
        <ele>803</ele>
        <time>2021-08-07T12:00:58.617Z</time>
      </trkpt>
      <trkpt lat="46.91463" lon="8.63899">
        <ele>803</ele>
        <time>2021-08-07T12:00:59.617Z</time>
      </trkpt>
      <trkpt lat="46.91463" lon="8.63901">
        <ele>803</ele>
        <time>2021-08-07T12:01:00.617Z</time>
      </trkpt>
      <trkpt lat="46.91465" lon="8.63902">
        <ele>803</ele>
        <time>2021-08-07T12:01:01.616Z</time>
      </trkpt>
      <trkpt lat="46.91466" lon="8.63903">
        <ele>803</ele>
        <time>2021-08-07T12:01:02.617Z</time>
      </trkpt>
      <trkpt lat="46.91467" lon="8.63903">
        <ele>803</ele>
        <time>2021-08-07T12:01:03.617Z</time>
      </trkpt>
      <trkpt lat="46.91468" lon="8.63903">
        <ele>803</ele>
        <time>2021-08-07T12:01:04.616Z</time>
      </trkpt>
      <trkpt lat="46.91469" lon="8.63901">
        <ele>803</ele>
        <time>2021-08-07T12:01:05.617Z</time>
      </trkpt>
      <trkpt lat="46.91469" lon="8.63898">
        <ele>803</ele>
        <time>2021-08-07T12:01:06.617Z</time>
      </trkpt>
      <trkpt lat="46.91469" lon="8.63895">
        <ele>803</ele>
        <time>2021-08-07T12:01:07.617Z</time>
      </trkpt>
      <trkpt lat="46.91468" lon="8.63894">
        <ele>803</ele>
        <time>2021-08-07T12:01:08.617Z</time>
      </trkpt>
      <trkpt lat="46.91467" lon="8.63894">
        <ele>803</ele>
        <time>2021-08-07T12:01:09.617Z</time>
      </trkpt>
      <trkpt lat="46.91465" lon="8.63896">
        <ele>803</ele>
        <time>2021-08-07T12:01:10.616Z</time>
      </trkpt>
      <trkpt lat="46.91464" lon="8.63895">
        <ele>803</ele>
        <time>2021-08-07T12:01:11.616Z</time>
      </trkpt>
      <trkpt lat="46.91463" lon="8.63894">
        <ele>803</ele>
        <time>2021-08-07T12:01:12.617Z</time>
      </trkpt>
      <trkpt lat="46.91462" lon="8.63893">
        <ele>803</ele>
        <time>2021-08-07T12:01:13.617Z</time>
      </trkpt>
      <trkpt lat="46.91462" lon="8.63892">
        <ele>803</ele>
        <time>2021-08-07T12:01:14.617Z</time>
      </trkpt>
      <trkpt lat="46.91462" lon="8.63891">
        <ele>802</ele>
        <time>2021-08-07T12:01:15.617Z</time>
      </trkpt>
      <trkpt lat="46.91463" lon="8.6389">
        <ele>802</ele>
        <time>2021-08-07T12:01:16.616Z</time>
      </trkpt>
      <trkpt lat="46.91463" lon="8.6389">
        <ele>802</ele>
        <time>2021-08-07T12:01:17.617Z</time>
      </trkpt>
      <trkpt lat="46.91463" lon="8.6389">
        <ele>802</ele>
        <time>2021-08-07T12:01:18.616Z</time>
      </trkpt>
      <trkpt lat="46.91462" lon="8.63889">
        <ele>802</ele>
        <time>2021-08-07T12:01:19.616Z</time>
      </trkpt>
      <trkpt lat="46.91463" lon="8.63888">
        <ele>802</ele>
        <time>2021-08-07T12:01:20.617Z</time>
      </trkpt>
      <trkpt lat="46.91462" lon="8.63886">
        <ele>802</ele>
        <time>2021-08-07T12:01:21.617Z</time>
      </trkpt>
      <trkpt lat="46.91461" lon="8.63884">
        <ele>802</ele>
        <time>2021-08-07T12:01:22.617Z</time>
      </trkpt>
      <trkpt lat="46.91459" lon="8.63883">
        <ele>802</ele>
        <time>2021-08-07T12:01:23.616Z</time>
      </trkpt>
      <trkpt lat="46.91458" lon="8.63881">
        <ele>802</ele>
        <time>2021-08-07T12:01:24.617Z</time>
      </trkpt>
      <trkpt lat="46.91457" lon="8.63881">
        <ele>802</ele>
        <time>2021-08-07T12:01:25.616Z</time>
      </trkpt>
      <trkpt lat="46.91457" lon="8.6388">
        <ele>802</ele>
        <time>2021-08-07T12:01:26.616Z</time>
      </trkpt>
      <trkpt lat="46.91458" lon="8.63879">
        <ele>802</ele>
        <time>2021-08-07T12:01:27.616Z</time>
      </trkpt>
      <trkpt lat="46.9146" lon="8.63877">
        <ele>802</ele>
        <time>2021-08-07T12:01:28.617Z</time>
      </trkpt>
      <trkpt lat="46.9146" lon="8.63875">
        <ele>802</ele>
        <time>2021-08-07T12:01:29.617Z</time>
      </trkpt>
      <trkpt lat="46.91461" lon="8.63873">
        <ele>802</ele>
        <time>2021-08-07T12:01:30.617Z</time>
      </trkpt>
      <trkpt lat="46.91461" lon="8.63871">
        <ele>802</ele>
        <time>2021-08-07T12:01:31.616Z</time>
      </trkpt>
      <trkpt lat="46.9146" lon="8.63867">
        <ele>802</ele>
        <time>2021-08-07T12:01:32.616Z</time>
      </trkpt>
      <trkpt lat="46.9146" lon="8.63866">
        <ele>802</ele>
        <time>2021-08-07T12:01:33.616Z</time>
      </trkpt>
      <trkpt lat="46.91461" lon="8.63866">
        <ele>802</ele>
        <time>2021-08-07T12:01:34.616Z</time>
      </trkpt>
      <trkpt lat="46.91461" lon="8.63867">
        <ele>802</ele>
        <time>2021-08-07T12:01:35.616Z</time>
      </trkpt>
      <trkpt lat="46.91463" lon="8.63867">
        <ele>802</ele>
        <time>2021-08-07T12:01:36.616Z</time>
      </trkpt>
      <trkpt lat="46.91466" lon="8.63867">
        <ele>802</ele>
        <time>2021-08-07T12:01:37.617Z</time>
      </trkpt>
      <trkpt lat="46.91466" lon="8.63867">
        <ele>802</ele>
        <time>2021-08-07T12:01:38.617Z</time>
      </trkpt>
      <trkpt lat="46.91463" lon="8.63867">
        <ele>802</ele>
        <time>2021-08-07T12:01:39.617Z</time>
      </trkpt>
      <trkpt lat="46.9146" lon="8.63865">
        <ele>802</ele>
        <time>2021-08-07T12:01:40.617Z</time>
      </trkpt>
      <trkpt lat="46.91458" lon="8.63861">
        <ele>801</ele>
        <time>2021-08-07T12:01:41.617Z</time>
      </trkpt>
      <trkpt lat="46.91457" lon="8.6386">
        <ele>801</ele>
        <time>2021-08-07T12:01:42.617Z</time>
      </trkpt>
      <trkpt lat="46.91456" lon="8.63859">
        <ele>801</ele>
        <time>2021-08-07T12:01:43.616Z</time>
      </trkpt>
      <trkpt lat="46.91458" lon="8.63858">
        <ele>801</ele>
        <time>2021-08-07T12:01:51.711Z</time>
      </trkpt>
      <trkpt lat="46.91457" lon="8.63856">
        <ele>801</ele>
        <time>2021-08-07T12:01:52.712Z</time>
      </trkpt>
      <trkpt lat="46.91454" lon="8.63856">
        <ele>801</ele>
        <time>2021-08-07T12:01:53.711Z</time>
      </trkpt>
      <trkpt lat="46.91452" lon="8.63858">
        <ele>801</ele>
        <time>2021-08-07T12:01:54.712Z</time>
      </trkpt>
      <trkpt lat="46.91451" lon="8.6386">
        <ele>801</ele>
        <time>2021-08-07T12:01:55.712Z</time>
      </trkpt>
      <trkpt lat="46.91451" lon="8.63859">
        <ele>801</ele>
        <time>2021-08-07T12:01:56.712Z</time>
      </trkpt>
      <trkpt lat="46.9145" lon="8.63857">
        <ele>801</ele>
        <time>2021-08-07T12:01:57.712Z</time>
      </trkpt>
      <trkpt lat="46.91449" lon="8.63856">
        <ele>801</ele>
        <time>2021-08-07T12:01:58.711Z</time>
      </trkpt>
      <trkpt lat="46.91447" lon="8.63854">
        <ele>801</ele>
        <time>2021-08-07T12:01:59.712Z</time>
      </trkpt>
      <trkpt lat="46.91446" lon="8.63853">
        <ele>801</ele>
        <time>2021-08-07T12:02:00.712Z</time>
      </trkpt>
      <trkpt lat="46.91446" lon="8.63854">
        <ele>801</ele>
        <time>2021-08-07T12:02:01.711Z</time>
      </trkpt>
      <trkpt lat="46.91448" lon="8.63854">
        <ele>801</ele>
        <time>2021-08-07T12:02:02.711Z</time>
      </trkpt>
      <trkpt lat="46.91448" lon="8.63853">
        <ele>801</ele>
        <time>2021-08-07T12:02:03.711Z</time>
      </trkpt>
      <trkpt lat="46.91448" lon="8.63852">
        <ele>801</ele>
        <time>2021-08-07T12:02:04.711Z</time>
      </trkpt>
      <trkpt lat="46.91447" lon="8.6385">
        <ele>801</ele>
        <time>2021-08-07T12:02:05.712Z</time>
      </trkpt>
      <trkpt lat="46.91446" lon="8.63847">
        <ele>801</ele>
        <time>2021-08-07T12:02:06.712Z</time>
      </trkpt>
      <trkpt lat="46.91448" lon="8.63846">
        <ele>801</ele>
        <time>2021-08-07T12:02:07.712Z</time>
      </trkpt>
      <trkpt lat="46.9145" lon="8.63846">
        <ele>801</ele>
        <time>2021-08-07T12:02:08.711Z</time>
      </trkpt>
      <trkpt lat="46.91451" lon="8.63845">
        <ele>801</ele>
        <time>2021-08-07T12:02:09.712Z</time>
      </trkpt>
      <trkpt lat="46.91452" lon="8.63843">
        <ele>800</ele>
        <time>2021-08-07T12:02:15.822Z</time>
      </trkpt>
      <trkpt lat="46.91452" lon="8.63842">
        <ele>800</ele>
        <time>2021-08-07T12:02:16.822Z</time>
      </trkpt>
      <trkpt lat="46.91452" lon="8.63843">
        <ele>800</ele>
        <time>2021-08-07T12:02:17.821Z</time>
      </trkpt>
      <trkpt lat="46.9145" lon="8.63844">
        <ele>800</ele>
        <time>2021-08-07T12:02:18.821Z</time>
      </trkpt>
      <trkpt lat="46.9145" lon="8.63844">
        <ele>800</ele>
        <time>2021-08-07T12:02:19.821Z</time>
      </trkpt>
      <trkpt lat="46.91448" lon="8.63844">
        <ele>800</ele>
        <time>2021-08-07T12:02:22.954Z</time>
      </trkpt>
      <trkpt lat="46.91448" lon="8.63846">
        <ele>800</ele>
        <time>2021-08-07T12:02:23.954Z</time>
      </trkpt>
      <trkpt lat="46.91449" lon="8.63846">
        <ele>800</ele>
        <time>2021-08-07T12:02:24.954Z</time>
      </trkpt>
      <trkpt lat="46.91448" lon="8.63846">
        <ele>800</ele>
        <time>2021-08-07T12:02:25.954Z</time>
      </trkpt>
      <trkpt lat="46.91449" lon="8.63846">
        <ele>799</ele>
        <time>2021-08-07T12:02:26.953Z</time>
      </trkpt>
      <trkpt lat="46.9145" lon="8.63846">
        <ele>799</ele>
        <time>2021-08-07T12:02:27.954Z</time>
      </trkpt>
      <trkpt lat="46.91449" lon="8.63845">
        <ele>799</ele>
        <time>2021-08-07T12:02:28.954Z</time>
      </trkpt>
      <trkpt lat="46.91449" lon="8.63845">
        <ele>799</ele>
        <time>2021-08-07T12:02:29.954Z</time>
      </trkpt>
      <trkpt lat="46.91447" lon="8.63844">
        <ele>799</ele>
        <time>2021-08-07T12:02:30.954Z</time>
      </trkpt>
      <trkpt lat="46.91446" lon="8.63845">
        <ele>799</ele>
        <time>2021-08-07T12:02:31.954Z</time>
      </trkpt>
      <trkpt lat="46.91446" lon="8.63845">
        <ele>799</ele>
        <time>2021-08-07T12:02:32.954Z</time>
      </trkpt>
      <trkpt lat="46.91446" lon="8.63846">
        <ele>799</ele>
        <time>2021-08-07T12:02:33.954Z</time>
      </trkpt>
      <trkpt lat="46.91446" lon="8.63845">
        <ele>799</ele>
        <time>2021-08-07T12:02:34.954Z</time>
      </trkpt>
      <trkpt lat="46.91449" lon="8.63843">
        <ele>799</ele>
        <time>2021-08-07T12:02:35.954Z</time>
      </trkpt>
      <trkpt lat="46.91451" lon="8.63841">
        <ele>798</ele>
        <time>2021-08-07T12:02:36.954Z</time>
      </trkpt>
      <trkpt lat="46.91451" lon="8.6384">
        <ele>798</ele>
        <time>2021-08-07T12:02:37.954Z</time>
      </trkpt>
      <trkpt lat="46.91451" lon="8.6384">
        <ele>798</ele>
        <time>2021-08-07T12:02:38.954Z</time>
      </trkpt>
      <trkpt lat="46.91451" lon="8.6384">
        <ele>798</ele>
        <time>2021-08-07T12:02:39.954Z</time>
      </trkpt>
      <trkpt lat="46.9145" lon="8.63839">
        <ele>798</ele>
        <time>2021-08-07T12:02:40.954Z</time>
      </trkpt>
      <trkpt lat="46.9145" lon="8.63838">
        <ele>798</ele>
        <time>2021-08-07T12:02:41.954Z</time>
      </trkpt>
      <trkpt lat="46.9145" lon="8.63837">
        <ele>798</ele>
        <time>2021-08-07T12:02:42.954Z</time>
      </trkpt>
      <trkpt lat="46.91452" lon="8.63837">
        <ele>798</ele>
        <time>2021-08-07T12:02:43.954Z</time>
      </trkpt>
      <trkpt lat="46.91453" lon="8.63837">
        <ele>798</ele>
        <time>2021-08-07T12:02:44.954Z</time>
      </trkpt>
      <trkpt lat="46.91453" lon="8.63835">
        <ele>798</ele>
        <time>2021-08-07T12:02:45.953Z</time>
      </trkpt>
      <trkpt lat="46.91453" lon="8.63834">
        <ele>798</ele>
        <time>2021-08-07T12:02:46.954Z</time>
      </trkpt>
      <trkpt lat="46.91453" lon="8.63833">
        <ele>797</ele>
        <time>2021-08-07T12:02:47.954Z</time>
      </trkpt>
      <trkpt lat="46.91454" lon="8.63833">
        <ele>797</ele>
        <time>2021-08-07T12:02:48.954Z</time>
      </trkpt>
      <trkpt lat="46.91453" lon="8.63834">
        <ele>797</ele>
        <time>2021-08-07T12:02:49.954Z</time>
      </trkpt>
      <trkpt lat="46.91452" lon="8.63834">
        <ele>797</ele>
        <time>2021-08-07T12:02:50.954Z</time>
      </trkpt>
      <trkpt lat="46.91449" lon="8.63836">
        <ele>797</ele>
        <time>2021-08-07T12:02:51.954Z</time>
      </trkpt>
      <trkpt lat="46.91448" lon="8.63836">
        <ele>796</ele>
        <time>2021-08-07T12:02:52.954Z</time>
      </trkpt>
      <trkpt lat="46.91448" lon="8.63836">
        <ele>796</ele>
        <time>2021-08-07T12:02:53.953Z</time>
      </trkpt>
      <trkpt lat="46.91448" lon="8.63835">
        <ele>796</ele>
        <time>2021-08-07T12:02:54.954Z</time>
      </trkpt>
      <trkpt lat="46.91447" lon="8.63834">
        <ele>796</ele>
        <time>2021-08-07T12:02:55.954Z</time>
      </trkpt>
      <trkpt lat="46.91446" lon="8.63834">
        <ele>796</ele>
        <time>2021-08-07T12:02:56.954Z</time>
      </trkpt>
      <trkpt lat="46.91445" lon="8.63834">
        <ele>796</ele>
        <time>2021-08-07T12:02:57.953Z</time>
      </trkpt>
      <trkpt lat="46.91443" lon="8.63833">
        <ele>796</ele>
        <time>2021-08-07T12:02:58.953Z</time>
      </trkpt>
      <trkpt lat="46.91442" lon="8.63832">
        <ele>796</ele>
        <time>2021-08-07T12:02:59.953Z</time>
      </trkpt>
      <trkpt lat="46.91441" lon="8.6383">
        <ele>796</ele>
        <time>2021-08-07T12:03:00.954Z</time>
      </trkpt>
      <trkpt lat="46.9144" lon="8.6383">
        <ele>795</ele>
        <time>2021-08-07T12:03:01.954Z</time>
      </trkpt>
      <trkpt lat="46.91438" lon="8.6383">
        <ele>795</ele>
        <time>2021-08-07T12:03:02.954Z</time>
      </trkpt>
      <trkpt lat="46.91437" lon="8.6383">
        <ele>795</ele>
        <time>2021-08-07T12:03:03.953Z</time>
      </trkpt>
      <trkpt lat="46.91437" lon="8.63829">
        <ele>795</ele>
        <time>2021-08-07T12:03:04.954Z</time>
      </trkpt>
      <trkpt lat="46.91437" lon="8.63827">
        <ele>795</ele>
        <time>2021-08-07T12:03:05.953Z</time>
      </trkpt>
      <trkpt lat="46.91438" lon="8.63826">
        <ele>795</ele>
        <time>2021-08-07T12:03:06.953Z</time>
      </trkpt>
      <trkpt lat="46.91438" lon="8.63825">
        <ele>795</ele>
        <time>2021-08-07T12:03:07.954Z</time>
      </trkpt>
      <trkpt lat="46.91437" lon="8.63825">
        <ele>795</ele>
        <time>2021-08-07T12:03:08.954Z</time>
      </trkpt>
      <trkpt lat="46.91436" lon="8.63824">
        <ele>795</ele>
        <time>2021-08-07T12:03:09.954Z</time>
      </trkpt>
      <trkpt lat="46.91436" lon="8.63824">
        <ele>795</ele>
        <time>2021-08-07T12:03:10.953Z</time>
      </trkpt>
      <trkpt lat="46.91436" lon="8.63823">
        <ele>794</ele>
        <time>2021-08-07T12:03:11.954Z</time>
      </trkpt>
      <trkpt lat="46.91436" lon="8.63821">
        <ele>794</ele>
        <time>2021-08-07T12:03:12.954Z</time>
      </trkpt>
      <trkpt lat="46.91437" lon="8.63818">
        <ele>794</ele>
        <time>2021-08-07T12:03:13.954Z</time>
      </trkpt>
      <trkpt lat="46.91438" lon="8.63816">
        <ele>794</ele>
        <time>2021-08-07T12:03:14.954Z</time>
      </trkpt>
      <trkpt lat="46.91439" lon="8.63813">
        <ele>794</ele>
        <time>2021-08-07T12:03:15.954Z</time>
      </trkpt>
      <trkpt lat="46.91439" lon="8.63812">
        <ele>794</ele>
        <time>2021-08-07T12:03:16.954Z</time>
      </trkpt>
      <trkpt lat="46.91439" lon="8.6381">
        <ele>794</ele>
        <time>2021-08-07T12:03:17.954Z</time>
      </trkpt>
      <trkpt lat="46.91438" lon="8.63809">
        <ele>794</ele>
        <time>2021-08-07T12:03:18.954Z</time>
      </trkpt>
      <trkpt lat="46.91437" lon="8.63807">
        <ele>794</ele>
        <time>2021-08-07T12:03:19.954Z</time>
      </trkpt>
      <trkpt lat="46.91436" lon="8.63806">
        <ele>794</ele>
        <time>2021-08-07T12:03:20.954Z</time>
      </trkpt>
      <trkpt lat="46.91436" lon="8.63806">
        <ele>793</ele>
        <time>2021-08-07T12:03:21.953Z</time>
      </trkpt>
      <trkpt lat="46.91435" lon="8.63805">
        <ele>793</ele>
        <time>2021-08-07T12:03:22.954Z</time>
      </trkpt>
      <trkpt lat="46.91435" lon="8.63805">
        <ele>793</ele>
        <time>2021-08-07T12:03:23.954Z</time>
      </trkpt>
      <trkpt lat="46.91435" lon="8.63804">
        <ele>793</ele>
        <time>2021-08-07T12:03:24.953Z</time>
      </trkpt>
      <trkpt lat="46.91435" lon="8.63804">
        <ele>792</ele>
        <time>2021-08-07T12:03:25.953Z</time>
      </trkpt>
      <trkpt lat="46.91434" lon="8.63804">
        <ele>792</ele>
        <time>2021-08-07T12:03:26.953Z</time>
      </trkpt>
      <trkpt lat="46.91434" lon="8.63803">
        <ele>792</ele>
        <time>2021-08-07T12:03:27.954Z</time>
      </trkpt>
      <trkpt lat="46.91435" lon="8.63802">
        <ele>791</ele>
        <time>2021-08-07T12:03:28.954Z</time>
      </trkpt>
      <trkpt lat="46.91434" lon="8.63801">
        <ele>791</ele>
        <time>2021-08-07T12:03:29.953Z</time>
      </trkpt>
      <trkpt lat="46.91435" lon="8.638">
        <ele>790</ele>
        <time>2021-08-07T12:03:30.954Z</time>
      </trkpt>
      <trkpt lat="46.91436" lon="8.63799">
        <ele>790</ele>
        <time>2021-08-07T12:03:31.954Z</time>
      </trkpt>
      <trkpt lat="46.91435" lon="8.63798">
        <ele>789</ele>
        <time>2021-08-07T12:03:32.953Z</time>
      </trkpt>
      <trkpt lat="46.91435" lon="8.63796">
        <ele>789</ele>
        <time>2021-08-07T12:03:33.953Z</time>
      </trkpt>
      <trkpt lat="46.91435" lon="8.63795">
        <ele>788</ele>
        <time>2021-08-07T12:03:34.953Z</time>
      </trkpt>
      <trkpt lat="46.91436" lon="8.63794">
        <ele>788</ele>
        <time>2021-08-07T12:03:35.953Z</time>
      </trkpt>
      <trkpt lat="46.91437" lon="8.63792">
        <ele>787</ele>
        <time>2021-08-07T12:03:36.953Z</time>
      </trkpt>
      <trkpt lat="46.91437" lon="8.6379">
        <ele>787</ele>
        <time>2021-08-07T12:03:37.953Z</time>
      </trkpt>
      <trkpt lat="46.91438" lon="8.63787">
        <ele>787</ele>
        <time>2021-08-07T12:03:38.953Z</time>
      </trkpt>
      <trkpt lat="46.91438" lon="8.63786">
        <ele>786</ele>
        <time>2021-08-07T12:03:39.953Z</time>
      </trkpt>
      <trkpt lat="46.91438" lon="8.63784">
        <ele>786</ele>
        <time>2021-08-07T12:03:40.954Z</time>
      </trkpt>
      <trkpt lat="46.91437" lon="8.63783">
        <ele>786</ele>
        <time>2021-08-07T12:03:41.954Z</time>
      </trkpt>
      <trkpt lat="46.91437" lon="8.63782">
        <ele>786</ele>
        <time>2021-08-07T12:03:42.954Z</time>
      </trkpt>
      <trkpt lat="46.91437" lon="8.63781">
        <ele>785</ele>
        <time>2021-08-07T12:03:43.954Z</time>
      </trkpt>
      <trkpt lat="46.91436" lon="8.63781">
        <ele>785</ele>
        <time>2021-08-07T12:03:44.954Z</time>
      </trkpt>
      <trkpt lat="46.91436" lon="8.63781">
        <ele>785</ele>
        <time>2021-08-07T12:03:49.093Z</time>
      </trkpt>
      <trkpt lat="46.91436" lon="8.6378">
        <ele>785</ele>
        <time>2021-08-07T12:03:50.092Z</time>
      </trkpt>
      <trkpt lat="46.91436" lon="8.63778">
        <ele>784</ele>
        <time>2021-08-07T12:03:51.093Z</time>
      </trkpt>
      <trkpt lat="46.91436" lon="8.63775">
        <ele>784</ele>
        <time>2021-08-07T12:03:52.093Z</time>
      </trkpt>
      <trkpt lat="46.91436" lon="8.63773">
        <ele>784</ele>
        <time>2021-08-07T12:03:53.093Z</time>
      </trkpt>
      <trkpt lat="46.91436" lon="8.63773">
        <ele>784</ele>
        <time>2021-08-07T12:03:54.092Z</time>
      </trkpt>
      <trkpt lat="46.91435" lon="8.63773">
        <ele>784</ele>
        <time>2021-08-07T12:03:55.093Z</time>
      </trkpt>
      <trkpt lat="46.91436" lon="8.63773">
        <ele>783</ele>
        <time>2021-08-07T12:03:56.093Z</time>
      </trkpt>
      <trkpt lat="46.91441" lon="8.63772">
        <ele>783</ele>
        <time>2021-08-07T12:03:57.094Z</time>
      </trkpt>
      <trkpt lat="46.91442" lon="8.63771">
        <ele>783</ele>
        <time>2021-08-07T12:03:58.093Z</time>
      </trkpt>
      <trkpt lat="46.91443" lon="8.63771">
        <ele>783</ele>
        <time>2021-08-07T12:03:59.094Z</time>
      </trkpt>
      <trkpt lat="46.91443" lon="8.6377">
        <ele>783</ele>
        <time>2021-08-07T12:04:00.094Z</time>
      </trkpt>
      <trkpt lat="46.91444" lon="8.6377">
        <ele>782</ele>
        <time>2021-08-07T12:04:01.094Z</time>
      </trkpt>
      <trkpt lat="46.91444" lon="8.63769">
        <ele>782</ele>
        <time>2021-08-07T12:04:02.094Z</time>
      </trkpt>
      <trkpt lat="46.91443" lon="8.63768">
        <ele>782</ele>
        <time>2021-08-07T12:04:03.094Z</time>
      </trkpt>
      <trkpt lat="46.91443" lon="8.63766">
        <ele>781</ele>
        <time>2021-08-07T12:04:04.094Z</time>
      </trkpt>
      <trkpt lat="46.91442" lon="8.63765">
        <ele>781</ele>
        <time>2021-08-07T12:04:05.094Z</time>
      </trkpt>
      <trkpt lat="46.91442" lon="8.63764">
        <ele>781</ele>
        <time>2021-08-07T12:04:06.094Z</time>
      </trkpt>
      <trkpt lat="46.91441" lon="8.63762">
        <ele>781</ele>
        <time>2021-08-07T12:04:07.094Z</time>
      </trkpt>
      <trkpt lat="46.91441" lon="8.6376">
        <ele>780</ele>
        <time>2021-08-07T12:04:08.094Z</time>
      </trkpt>
      <trkpt lat="46.91441" lon="8.63759">
        <ele>780</ele>
        <time>2021-08-07T12:04:09.093Z</time>
      </trkpt>
      <trkpt lat="46.91441" lon="8.63758">
        <ele>780</ele>
        <time>2021-08-07T12:04:10.093Z</time>
      </trkpt>
      <trkpt lat="46.91441" lon="8.63757">
        <ele>779</ele>
        <time>2021-08-07T12:04:11.094Z</time>
      </trkpt>
      <trkpt lat="46.91441" lon="8.63757">
        <ele>779</ele>
        <time>2021-08-07T12:04:12.093Z</time>
      </trkpt>
      <trkpt lat="46.91441" lon="8.63756">
        <ele>779</ele>
        <time>2021-08-07T12:04:13.094Z</time>
      </trkpt>
      <trkpt lat="46.91441" lon="8.63755">
        <ele>778</ele>
        <time>2021-08-07T12:04:14.094Z</time>
      </trkpt>
      <trkpt lat="46.91441" lon="8.63755">
        <ele>778</ele>
        <time>2021-08-07T12:04:15.094Z</time>
      </trkpt>
      <trkpt lat="46.91441" lon="8.63754">
        <ele>778</ele>
        <time>2021-08-07T12:04:16.093Z</time>
      </trkpt>
      <trkpt lat="46.9144" lon="8.63754">
        <ele>777</ele>
        <time>2021-08-07T12:04:17.094Z</time>
      </trkpt>
      <trkpt lat="46.91439" lon="8.63755">
        <ele>777</ele>
        <time>2021-08-07T12:04:18.094Z</time>
      </trkpt>
      <trkpt lat="46.91438" lon="8.63755">
        <ele>777</ele>
        <time>2021-08-07T12:04:19.094Z</time>
      </trkpt>
      <trkpt lat="46.91438" lon="8.63755">
        <ele>776</ele>
        <time>2021-08-07T12:04:20.094Z</time>
      </trkpt>
      <trkpt lat="46.91439" lon="8.63754">
        <ele>776</ele>
        <time>2021-08-07T12:04:21.094Z</time>
      </trkpt>
      <trkpt lat="46.91439" lon="8.63753">
        <ele>776</ele>
        <time>2021-08-07T12:04:22.094Z</time>
      </trkpt>
      <trkpt lat="46.9144" lon="8.63752">
        <ele>776</ele>
        <time>2021-08-07T12:04:23.093Z</time>
      </trkpt>
      <trkpt lat="46.9144" lon="8.63751">
        <ele>776</ele>
        <time>2021-08-07T12:04:24.094Z</time>
      </trkpt>
      <trkpt lat="46.91441" lon="8.6375">
        <ele>775</ele>
        <time>2021-08-07T12:04:25.094Z</time>
      </trkpt>
      <trkpt lat="46.91441" lon="8.6375">
        <ele>775</ele>
        <time>2021-08-07T12:04:26.093Z</time>
      </trkpt>
      <trkpt lat="46.9144" lon="8.63751">
        <ele>775</ele>
        <time>2021-08-07T12:04:27.094Z</time>
      </trkpt>
      <trkpt lat="46.9144" lon="8.63751">
        <ele>775</ele>
        <time>2021-08-07T12:04:28.094Z</time>
      </trkpt>
      <trkpt lat="46.91439" lon="8.63751">
        <ele>775</ele>
        <time>2021-08-07T12:04:29.094Z</time>
      </trkpt>
      <trkpt lat="46.91439" lon="8.63751">
        <ele>774</ele>
        <time>2021-08-07T12:04:30.094Z</time>
      </trkpt>
      <trkpt lat="46.91439" lon="8.63751">
        <ele>774</ele>
        <time>2021-08-07T12:04:31.094Z</time>
      </trkpt>
      <trkpt lat="46.91437" lon="8.63751">
        <ele>772</ele>
        <time>2021-08-07T12:04:32.094Z</time>
      </trkpt>
      <trkpt lat="46.91436" lon="8.63751">
        <ele>771</ele>
        <time>2021-08-07T12:04:33.094Z</time>
      </trkpt>
      <trkpt lat="46.91436" lon="8.63751">
        <ele>769</ele>
        <time>2021-08-07T12:04:34.094Z</time>
      </trkpt>
      <trkpt lat="46.91435" lon="8.63751">
        <ele>766</ele>
        <time>2021-08-07T12:04:35.093Z</time>
      </trkpt>
      <trkpt lat="46.91434" lon="8.63751">
        <ele>763</ele>
        <time>2021-08-07T12:04:36.094Z</time>
      </trkpt>
      <trkpt lat="46.91432" lon="8.63751">
        <ele>761</ele>
        <time>2021-08-07T12:04:37.094Z</time>
      </trkpt>
      <trkpt lat="46.91431" lon="8.63751">
        <ele>759</ele>
        <time>2021-08-07T12:04:38.094Z</time>
      </trkpt>
      <trkpt lat="46.9143" lon="8.6375">
        <ele>757</ele>
        <time>2021-08-07T12:04:39.094Z</time>
      </trkpt>
      <trkpt lat="46.9143" lon="8.6375">
        <ele>754</ele>
        <time>2021-08-07T12:04:40.094Z</time>
      </trkpt>
      <trkpt lat="46.91429" lon="8.6375">
        <ele>752</ele>
        <time>2021-08-07T12:04:41.093Z</time>
      </trkpt>
      <trkpt lat="46.91429" lon="8.6375">
        <ele>749</ele>
        <time>2021-08-07T12:04:42.094Z</time>
      </trkpt>
      <trkpt lat="46.91428" lon="8.63749">
        <ele>747</ele>
        <time>2021-08-07T12:04:43.094Z</time>
      </trkpt>
      <trkpt lat="46.91427" lon="8.63749">
        <ele>744</ele>
        <time>2021-08-07T12:04:44.093Z</time>
      </trkpt>
      <trkpt lat="46.91426" lon="8.6375">
        <ele>742</ele>
        <time>2021-08-07T12:04:45.093Z</time>
      </trkpt>
      <trkpt lat="46.91426" lon="8.6375">
        <ele>740</ele>
        <time>2021-08-07T12:04:46.094Z</time>
      </trkpt>
      <trkpt lat="46.91427" lon="8.6375">
        <ele>738</ele>
        <time>2021-08-07T12:04:47.094Z</time>
      </trkpt>
      <trkpt lat="46.91428" lon="8.6375">
        <ele>736</ele>
        <time>2021-08-07T12:04:48.094Z</time>
      </trkpt>
      <trkpt lat="46.91428" lon="8.6375">
        <ele>735</ele>
        <time>2021-08-07T12:04:49.094Z</time>
      </trkpt>
      <trkpt lat="46.91435" lon="8.63744">
        <ele>730</ele>
        <time>2021-08-07T12:04:50.094Z</time>
      </trkpt>
      <trkpt lat="46.91436" lon="8.63742">
        <ele>729</ele>
        <time>2021-08-07T12:04:51.094Z</time>
      </trkpt>
      <trkpt lat="46.91438" lon="8.63742">
        <ele>728</ele>
        <time>2021-08-07T12:04:52.094Z</time>
      </trkpt>
      <trkpt lat="46.91439" lon="8.63742">
        <ele>728</ele>
        <time>2021-08-07T12:04:53.093Z</time>
      </trkpt>
      <trkpt lat="46.9144" lon="8.63742">
        <ele>727</ele>
        <time>2021-08-07T12:04:54.093Z</time>
      </trkpt>
      <trkpt lat="46.9144" lon="8.63743">
        <ele>727</ele>
        <time>2021-08-07T12:04:55.094Z</time>
      </trkpt>
      <trkpt lat="46.91439" lon="8.63743">
        <ele>726</ele>
        <time>2021-08-07T12:04:56.094Z</time>
      </trkpt>
      <trkpt lat="46.91437" lon="8.63743">
        <ele>726</ele>
        <time>2021-08-07T12:04:57.094Z</time>
      </trkpt>
      <trkpt lat="46.91437" lon="8.63742">
        <ele>725</ele>
        <time>2021-08-07T12:04:58.093Z</time>
      </trkpt>
      <trkpt lat="46.91437" lon="8.63741">
        <ele>725</ele>
        <time>2021-08-07T12:04:59.093Z</time>
      </trkpt>
      <trkpt lat="46.91436" lon="8.63739">
        <ele>724</ele>
        <time>2021-08-07T12:05:00.094Z</time>
      </trkpt>
      <trkpt lat="46.91436" lon="8.63738">
        <ele>724</ele>
        <time>2021-08-07T12:05:01.094Z</time>
      </trkpt>
      <trkpt lat="46.91435" lon="8.63736">
        <ele>724</ele>
        <time>2021-08-07T12:05:02.094Z</time>
      </trkpt>
      <trkpt lat="46.91436" lon="8.63735">
        <ele>724</ele>
        <time>2021-08-07T12:05:03.094Z</time>
      </trkpt>
      <trkpt lat="46.91436" lon="8.63735">
        <ele>724</ele>
        <time>2021-08-07T12:05:04.093Z</time>
      </trkpt>
      <trkpt lat="46.91437" lon="8.63734">
        <ele>724</ele>
        <time>2021-08-07T12:05:05.093Z</time>
      </trkpt>
      <trkpt lat="46.91439" lon="8.63735">
        <ele>724</ele>
        <time>2021-08-07T12:05:06.094Z</time>
      </trkpt>
      <trkpt lat="46.91439" lon="8.63735">
        <ele>724</ele>
        <time>2021-08-07T12:05:07.094Z</time>
      </trkpt>
      <trkpt lat="46.9144" lon="8.63734">
        <ele>725</ele>
        <time>2021-08-07T12:05:08.094Z</time>
      </trkpt>
      <trkpt lat="46.9144" lon="8.63733">
        <ele>725</ele>
        <time>2021-08-07T12:05:09.093Z</time>
      </trkpt>
      <trkpt lat="46.9144" lon="8.63732">
        <ele>724</ele>
        <time>2021-08-07T12:05:10.094Z</time>
      </trkpt>
      <trkpt lat="46.91441" lon="8.63732">
        <ele>724</ele>
        <time>2021-08-07T12:05:11.094Z</time>
      </trkpt>
      <trkpt lat="46.91442" lon="8.63731">
        <ele>724</ele>
        <time>2021-08-07T12:05:12.094Z</time>
      </trkpt>
      <trkpt lat="46.91443" lon="8.63732">
        <ele>724</ele>
        <time>2021-08-07T12:05:19.208Z</time>
      </trkpt>
      <trkpt lat="46.91443" lon="8.63733">
        <ele>724</ele>
        <time>2021-08-07T12:05:20.209Z</time>
      </trkpt>
      <trkpt lat="46.91444" lon="8.63733">
        <ele>724</ele>
        <time>2021-08-07T12:05:26.065Z</time>
      </trkpt>
      <trkpt lat="46.91445" lon="8.63733">
        <ele>725</ele>
        <time>2021-08-07T12:05:27.065Z</time>
      </trkpt>
      <trkpt lat="46.91447" lon="8.63733">
        <ele>725</ele>
        <time>2021-08-07T12:05:28.064Z</time>
      </trkpt>
      <trkpt lat="46.91448" lon="8.63733">
        <ele>725</ele>
        <time>2021-08-07T12:05:29.065Z</time>
      </trkpt>
      <trkpt lat="46.91449" lon="8.63733">
        <ele>725</ele>
        <time>2021-08-07T12:05:30.065Z</time>
      </trkpt>
      <trkpt lat="46.91449" lon="8.63732">
        <ele>725</ele>
        <time>2021-08-07T12:05:31.064Z</time>
      </trkpt>
      <trkpt lat="46.91448" lon="8.63731">
        <ele>725</ele>
        <time>2021-08-07T12:05:32.064Z</time>
      </trkpt>
      <trkpt lat="46.91448" lon="8.6373">
        <ele>726</ele>
        <time>2021-08-07T12:05:33.065Z</time>
      </trkpt>
      <trkpt lat="46.91449" lon="8.63728">
        <ele>726</ele>
        <time>2021-08-07T12:05:34.064Z</time>
      </trkpt>
      <trkpt lat="46.91449" lon="8.63727">
        <ele>726</ele>
        <time>2021-08-07T12:05:35.065Z</time>
      </trkpt>
      <trkpt lat="46.91449" lon="8.63725">
        <ele>726</ele>
        <time>2021-08-07T12:05:36.065Z</time>
      </trkpt>
      <trkpt lat="46.91449" lon="8.63723">
        <ele>727</ele>
        <time>2021-08-07T12:05:37.065Z</time>
      </trkpt>
      <trkpt lat="46.9145" lon="8.63721">
        <ele>727</ele>
        <time>2021-08-07T12:05:38.065Z</time>
      </trkpt>
      <trkpt lat="46.9145" lon="8.63719">
        <ele>727</ele>
        <time>2021-08-07T12:05:39.065Z</time>
      </trkpt>
      <trkpt lat="46.91451" lon="8.63718">
        <ele>727</ele>
        <time>2021-08-07T12:05:40.064Z</time>
      </trkpt>
      <trkpt lat="46.91451" lon="8.63717">
        <ele>727</ele>
        <time>2021-08-07T12:05:41.064Z</time>
      </trkpt>
      <trkpt lat="46.91451" lon="8.63716">
        <ele>727</ele>
        <time>2021-08-07T12:05:42.064Z</time>
      </trkpt>
      <trkpt lat="46.91452" lon="8.63715">
        <ele>727</ele>
        <time>2021-08-07T12:05:43.065Z</time>
      </trkpt>
      <trkpt lat="46.91453" lon="8.63716">
        <ele>727</ele>
        <time>2021-08-07T12:05:44.064Z</time>
      </trkpt>
      <trkpt lat="46.91454" lon="8.63716">
        <ele>727</ele>
        <time>2021-08-07T12:05:45.065Z</time>
      </trkpt>
      <trkpt lat="46.91455" lon="8.63715">
        <ele>727</ele>
        <time>2021-08-07T12:05:46.065Z</time>
      </trkpt>
      <trkpt lat="46.91456" lon="8.63715">
        <ele>727</ele>
        <time>2021-08-07T12:05:47.064Z</time>
      </trkpt>
      <trkpt lat="46.91457" lon="8.63715">
        <ele>726</ele>
        <time>2021-08-07T12:05:48.064Z</time>
      </trkpt>
      <trkpt lat="46.91458" lon="8.63714">
        <ele>727</ele>
        <time>2021-08-07T12:05:49.065Z</time>
      </trkpt>
      <trkpt lat="46.91458" lon="8.63712">
        <ele>727</ele>
        <time>2021-08-07T12:05:50.065Z</time>
      </trkpt>
      <trkpt lat="46.91459" lon="8.63711">
        <ele>727</ele>
        <time>2021-08-07T12:05:51.064Z</time>
      </trkpt>
      <trkpt lat="46.91459" lon="8.63711">
        <ele>727</ele>
        <time>2021-08-07T12:05:52.064Z</time>
      </trkpt>
      <trkpt lat="46.91459" lon="8.6371">
        <ele>727</ele>
        <time>2021-08-07T12:05:53.064Z</time>
      </trkpt>
      <trkpt lat="46.91459" lon="8.6371">
        <ele>727</ele>
        <time>2021-08-07T12:05:54.065Z</time>
      </trkpt>
      <trkpt lat="46.91459" lon="8.6371">
        <ele>727</ele>
        <time>2021-08-07T12:05:55.065Z</time>
      </trkpt>
      <trkpt lat="46.91459" lon="8.63709">
        <ele>728</ele>
        <time>2021-08-07T12:05:56.064Z</time>
      </trkpt>
      <trkpt lat="46.91459" lon="8.63708">
        <ele>728</ele>
        <time>2021-08-07T12:05:57.064Z</time>
      </trkpt>
      <trkpt lat="46.91459" lon="8.63705">
        <ele>727</ele>
        <time>2021-08-07T12:05:58.065Z</time>
      </trkpt>
      <trkpt lat="46.91458" lon="8.63703">
        <ele>727</ele>
        <time>2021-08-07T12:05:59.065Z</time>
      </trkpt>
      <trkpt lat="46.91458" lon="8.63701">
        <ele>727</ele>
        <time>2021-08-07T12:06:00.065Z</time>
      </trkpt>
      <trkpt lat="46.91459" lon="8.637">
        <ele>727</ele>
        <time>2021-08-07T12:06:01.065Z</time>
      </trkpt>
      <trkpt lat="46.91459" lon="8.637">
        <ele>727</ele>
        <time>2021-08-07T12:06:02.064Z</time>
      </trkpt>
      <trkpt lat="46.91459" lon="8.637">
        <ele>727</ele>
        <time>2021-08-07T12:06:03.065Z</time>
      </trkpt>
      <trkpt lat="46.91459" lon="8.63695">
        <ele>727</ele>
        <time>2021-08-07T12:06:04.065Z</time>
      </trkpt>
      <trkpt lat="46.9146" lon="8.63695">
        <ele>727</ele>
        <time>2021-08-07T12:06:05.065Z</time>
      </trkpt>
      <trkpt lat="46.9146" lon="8.63694">
        <ele>727</ele>
        <time>2021-08-07T12:06:06.064Z</time>
      </trkpt>
      <trkpt lat="46.91461" lon="8.63694">
        <ele>727</ele>
        <time>2021-08-07T12:06:07.065Z</time>
      </trkpt>
      <trkpt lat="46.91461" lon="8.63692">
        <ele>727</ele>
        <time>2021-08-07T12:06:08.065Z</time>
      </trkpt>
      <trkpt lat="46.91462" lon="8.6369">
        <ele>727</ele>
        <time>2021-08-07T12:06:09.065Z</time>
      </trkpt>
      <trkpt lat="46.91462" lon="8.63688">
        <ele>727</ele>
        <time>2021-08-07T12:06:10.065Z</time>
      </trkpt>
      <trkpt lat="46.91463" lon="8.63686">
        <ele>727</ele>
        <time>2021-08-07T12:06:11.065Z</time>
      </trkpt>
      <trkpt lat="46.91463" lon="8.63683">
        <ele>728</ele>
        <time>2021-08-07T12:06:12.065Z</time>
      </trkpt>
      <trkpt lat="46.91462" lon="8.63679">
        <ele>728</ele>
        <time>2021-08-07T12:06:13.064Z</time>
      </trkpt>
      <trkpt lat="46.91462" lon="8.63676">
        <ele>728</ele>
        <time>2021-08-07T12:06:14.065Z</time>
      </trkpt>
      <trkpt lat="46.91462" lon="8.63674">
        <ele>728</ele>
        <time>2021-08-07T12:06:15.065Z</time>
      </trkpt>
      <trkpt lat="46.91462" lon="8.63671">
        <ele>728</ele>
        <time>2021-08-07T12:06:16.065Z</time>
      </trkpt>
      <trkpt lat="46.91463" lon="8.63669">
        <ele>729</ele>
        <time>2021-08-07T12:06:17.064Z</time>
      </trkpt>
      <trkpt lat="46.91463" lon="8.63667">
        <ele>729</ele>
        <time>2021-08-07T12:06:18.064Z</time>
      </trkpt>
      <trkpt lat="46.91464" lon="8.63665">
        <ele>729</ele>
        <time>2021-08-07T12:06:19.065Z</time>
      </trkpt>
      <trkpt lat="46.91464" lon="8.63663">
        <ele>730</ele>
        <time>2021-08-07T12:06:20.065Z</time>
      </trkpt>
      <trkpt lat="46.91465" lon="8.63662">
        <ele>730</ele>
        <time>2021-08-07T12:06:21.065Z</time>
      </trkpt>
      <trkpt lat="46.91466" lon="8.63661">
        <ele>731</ele>
        <time>2021-08-07T12:06:22.064Z</time>
      </trkpt>
      <trkpt lat="46.91466" lon="8.6366">
        <ele>731</ele>
        <time>2021-08-07T12:06:23.064Z</time>
      </trkpt>
      <trkpt lat="46.91467" lon="8.63659">
        <ele>731</ele>
        <time>2021-08-07T12:06:24.064Z</time>
      </trkpt>
      <trkpt lat="46.91468" lon="8.63659">
        <ele>732</ele>
        <time>2021-08-07T12:06:25.065Z</time>
      </trkpt>
      <trkpt lat="46.91469" lon="8.63658">
        <ele>732</ele>
        <time>2021-08-07T12:06:26.065Z</time>
      </trkpt>
      <trkpt lat="46.91471" lon="8.63657">
        <ele>732</ele>
        <time>2021-08-07T12:06:27.064Z</time>
      </trkpt>
      <trkpt lat="46.91472" lon="8.63656">
        <ele>733</ele>
        <time>2021-08-07T12:06:28.065Z</time>
      </trkpt>
      <trkpt lat="46.91472" lon="8.63655">
        <ele>733</ele>
        <time>2021-08-07T12:06:29.064Z</time>
      </trkpt>
      <trkpt lat="46.91473" lon="8.63654">
        <ele>733</ele>
        <time>2021-08-07T12:06:30.065Z</time>
      </trkpt>
      <trkpt lat="46.91474" lon="8.63653">
        <ele>734</ele>
        <time>2021-08-07T12:06:31.065Z</time>
      </trkpt>
      <trkpt lat="46.91475" lon="8.63651">
        <ele>734</ele>
        <time>2021-08-07T12:06:32.065Z</time>
      </trkpt>
      <trkpt lat="46.91476" lon="8.63649">
        <ele>734</ele>
        <time>2021-08-07T12:06:33.065Z</time>
      </trkpt>
      <trkpt lat="46.91477" lon="8.63647">
        <ele>734</ele>
        <time>2021-08-07T12:06:34.065Z</time>
      </trkpt>
      <trkpt lat="46.91478" lon="8.63644">
        <ele>735</ele>
        <time>2021-08-07T12:06:35.065Z</time>
      </trkpt>
      <trkpt lat="46.91479" lon="8.63642">
        <ele>735</ele>
        <time>2021-08-07T12:06:36.064Z</time>
      </trkpt>
      <trkpt lat="46.91478" lon="8.63641">
        <ele>735</ele>
        <time>2021-08-07T12:06:37.064Z</time>
      </trkpt>
      <trkpt lat="46.91478" lon="8.63641">
        <ele>735</ele>
        <time>2021-08-07T12:06:38.065Z</time>
      </trkpt>
      <trkpt lat="46.91478" lon="8.63638">
        <ele>734</ele>
        <time>2021-08-07T12:06:39.064Z</time>
      </trkpt>
      <trkpt lat="46.91477" lon="8.63636">
        <ele>734</ele>
        <time>2021-08-07T12:06:40.064Z</time>
      </trkpt>
      <trkpt lat="46.91477" lon="8.63633">
        <ele>734</ele>
        <time>2021-08-07T12:06:41.064Z</time>
      </trkpt>
      <trkpt lat="46.91477" lon="8.63631">
        <ele>733</ele>
        <time>2021-08-07T12:06:42.065Z</time>
      </trkpt>
      <trkpt lat="46.91478" lon="8.63629">
        <ele>732</ele>
        <time>2021-08-07T12:06:43.065Z</time>
      </trkpt>
      <trkpt lat="46.91479" lon="8.63628">
        <ele>732</ele>
        <time>2021-08-07T12:06:44.064Z</time>
      </trkpt>
      <trkpt lat="46.9148" lon="8.63628">
        <ele>731</ele>
        <time>2021-08-07T12:06:45.065Z</time>
      </trkpt>
      <trkpt lat="46.91481" lon="8.63628">
        <ele>731</ele>
        <time>2021-08-07T12:06:46.064Z</time>
      </trkpt>
      <trkpt lat="46.91482" lon="8.63628">
        <ele>731</ele>
        <time>2021-08-07T12:06:47.065Z</time>
      </trkpt>
      <trkpt lat="46.91483" lon="8.63628">
        <ele>730</ele>
        <time>2021-08-07T12:06:48.064Z</time>
      </trkpt>
      <trkpt lat="46.91483" lon="8.63627">
        <ele>729</ele>
        <time>2021-08-07T12:06:50.168Z</time>
      </trkpt>
      <trkpt lat="46.91482" lon="8.63625">
        <ele>729</ele>
        <time>2021-08-07T12:06:51.168Z</time>
      </trkpt>
      <trkpt lat="46.91481" lon="8.63623">
        <ele>728</ele>
        <time>2021-08-07T12:06:52.168Z</time>
      </trkpt>
      <trkpt lat="46.91481" lon="8.63622">
        <ele>727</ele>
        <time>2021-08-07T12:06:53.167Z</time>
      </trkpt>
      <trkpt lat="46.91481" lon="8.63622">
        <ele>726</ele>
        <time>2021-08-07T12:06:59.308Z</time>
      </trkpt>
      <trkpt lat="46.91482" lon="8.63623">
        <ele>726</ele>
        <time>2021-08-07T12:07:00.308Z</time>
      </trkpt>
      <trkpt lat="46.91483" lon="8.63624">
        <ele>725</ele>
        <time>2021-08-07T12:07:05.183Z</time>
      </trkpt>
      <trkpt lat="46.91483" lon="8.63624">
        <ele>724</ele>
        <time>2021-08-07T12:07:18.054Z</time>
      </trkpt>
      <trkpt lat="46.91483" lon="8.63624">
        <ele>723</ele>
        <time>2021-08-07T12:07:19.054Z</time>
      </trkpt>
      <trkpt lat="46.91482" lon="8.63623">
        <ele>722</ele>
        <time>2021-08-07T12:07:20.055Z</time>
      </trkpt>
      <trkpt lat="46.91481" lon="8.63622">
        <ele>721</ele>
        <time>2021-08-07T12:07:21.054Z</time>
      </trkpt>
      <trkpt lat="46.91481" lon="8.63622">
        <ele>721</ele>
        <time>2021-08-07T12:07:22.055Z</time>
      </trkpt>
      <trkpt lat="46.91481" lon="8.63622">
        <ele>720</ele>
        <time>2021-08-07T12:07:23.055Z</time>
      </trkpt>
      <trkpt lat="46.9148" lon="8.63621">
        <ele>719</ele>
        <time>2021-08-07T12:07:24.056Z</time>
      </trkpt>
      <trkpt lat="46.91479" lon="8.6362">
        <ele>718</ele>
        <time>2021-08-07T12:07:25.055Z</time>
      </trkpt>
      <trkpt lat="46.91479" lon="8.63619">
        <ele>718</ele>
        <time>2021-08-07T12:07:26.055Z</time>
      </trkpt>
      <trkpt lat="46.91479" lon="8.63619">
        <ele>717</ele>
        <time>2021-08-07T12:07:34.216Z</time>
      </trkpt>
      <trkpt lat="46.91479" lon="8.63619">
        <ele>715</ele>
        <time>2021-08-07T12:07:35.216Z</time>
      </trkpt>
      <trkpt lat="46.91479" lon="8.63619">
        <ele>714</ele>
        <time>2021-08-07T12:07:41.056Z</time>
      </trkpt>
      <trkpt lat="46.91479" lon="8.6362">
        <ele>712</ele>
        <time>2021-08-07T12:07:42.057Z</time>
      </trkpt>
      <trkpt lat="46.9148" lon="8.63621">
        <ele>711</ele>
        <time>2021-08-07T12:07:49.943Z</time>
      </trkpt>
      <trkpt lat="46.9148" lon="8.63621">
        <ele>710</ele>
        <time>2021-08-07T12:07:50.943Z</time>
      </trkpt>
      <trkpt lat="46.9148" lon="8.63621">
        <ele>709</ele>
        <time>2021-08-07T12:07:51.943Z</time>
      </trkpt>
      <trkpt lat="46.91481" lon="8.63621">
        <ele>707</ele>
        <time>2021-08-07T12:07:52.944Z</time>
      </trkpt>
      <trkpt lat="46.9148" lon="8.6362">
        <ele>706</ele>
        <time>2021-08-07T12:07:53.943Z</time>
      </trkpt>
      <trkpt lat="46.9148" lon="8.63618">
        <ele>706</ele>
        <time>2021-08-07T12:07:54.943Z</time>
      </trkpt>
      <trkpt lat="46.91479" lon="8.63617">
        <ele>706</ele>
        <time>2021-08-07T12:08:10.059Z</time>
      </trkpt>
      <trkpt lat="46.91479" lon="8.63616">
        <ele>706</ele>
        <time>2021-08-07T12:08:11.060Z</time>
      </trkpt>
      <trkpt lat="46.91479" lon="8.63615">
        <ele>706</ele>
        <time>2021-08-07T12:08:12.059Z</time>
      </trkpt>
      <trkpt lat="46.91479" lon="8.63614">
        <ele>707</ele>
        <time>2021-08-07T12:08:13.059Z</time>
      </trkpt>
      <trkpt lat="46.91479" lon="8.63613">
        <ele>707</ele>
        <time>2021-08-07T12:08:14.059Z</time>
      </trkpt>
      <trkpt lat="46.91479" lon="8.63611">
        <ele>707</ele>
        <time>2021-08-07T12:08:15.059Z</time>
      </trkpt>
      <trkpt lat="46.91478" lon="8.63609">
        <ele>706</ele>
        <time>2021-08-07T12:08:16.059Z</time>
      </trkpt>
      <trkpt lat="46.91478" lon="8.63608">
        <ele>705</ele>
        <time>2021-08-07T12:08:17.059Z</time>
      </trkpt>
      <trkpt lat="46.91478" lon="8.63607">
        <ele>705</ele>
        <time>2021-08-07T12:08:18.060Z</time>
      </trkpt>
      <trkpt lat="46.91478" lon="8.63606">
        <ele>704</ele>
        <time>2021-08-07T12:08:19.059Z</time>
      </trkpt>
      <trkpt lat="46.91478" lon="8.63605">
        <ele>704</ele>
        <time>2021-08-07T12:08:20.059Z</time>
      </trkpt>
      <trkpt lat="46.91478" lon="8.63604">
        <ele>704</ele>
        <time>2021-08-07T12:08:21.059Z</time>
      </trkpt>
      <trkpt lat="46.91478" lon="8.63603">
        <ele>703</ele>
        <time>2021-08-07T12:08:22.059Z</time>
      </trkpt>
      <trkpt lat="46.91478" lon="8.63603">
        <ele>703</ele>
        <time>2021-08-07T12:08:23.059Z</time>
      </trkpt>
      <trkpt lat="46.91478" lon="8.63604">
        <ele>703</ele>
        <time>2021-08-07T12:08:24.060Z</time>
      </trkpt>
      <trkpt lat="46.91479" lon="8.63604">
        <ele>703</ele>
        <time>2021-08-07T12:08:25.059Z</time>
      </trkpt>
      <trkpt lat="46.91479" lon="8.63604">
        <ele>703</ele>
        <time>2021-08-07T12:08:26.059Z</time>
      </trkpt>
      <trkpt lat="46.9148" lon="8.63604">
        <ele>703</ele>
        <time>2021-08-07T12:08:27.059Z</time>
      </trkpt>
      <trkpt lat="46.9148" lon="8.63603">
        <ele>702</ele>
        <time>2021-08-07T12:08:28.060Z</time>
      </trkpt>
      <trkpt lat="46.91481" lon="8.63602">
        <ele>702</ele>
        <time>2021-08-07T12:08:29.060Z</time>
      </trkpt>
      <trkpt lat="46.91481" lon="8.63602">
        <ele>702</ele>
        <time>2021-08-07T12:08:30.060Z</time>
      </trkpt>
      <trkpt lat="46.91481" lon="8.63601">
        <ele>702</ele>
        <time>2021-08-07T12:08:31.060Z</time>
      </trkpt>
      <trkpt lat="46.91481" lon="8.636">
        <ele>702</ele>
        <time>2021-08-07T12:08:32.059Z</time>
      </trkpt>
      <trkpt lat="46.9148" lon="8.636">
        <ele>702</ele>
        <time>2021-08-07T12:08:33.059Z</time>
      </trkpt>
      <trkpt lat="46.9148" lon="8.63599">
        <ele>702</ele>
        <time>2021-08-07T12:08:34.059Z</time>
      </trkpt>
      <trkpt lat="46.9148" lon="8.63598">
        <ele>701</ele>
        <time>2021-08-07T12:08:35.059Z</time>
      </trkpt>
      <trkpt lat="46.9148" lon="8.63597">
        <ele>701</ele>
        <time>2021-08-07T12:08:36.060Z</time>
      </trkpt>
      <trkpt lat="46.9148" lon="8.63596">
        <ele>701</ele>
        <time>2021-08-07T12:08:37.059Z</time>
      </trkpt>
      <trkpt lat="46.9148" lon="8.63595">
        <ele>701</ele>
        <time>2021-08-07T12:08:38.060Z</time>
      </trkpt>
      <trkpt lat="46.91481" lon="8.63595">
        <ele>701</ele>
        <time>2021-08-07T12:08:39.060Z</time>
      </trkpt>
      <trkpt lat="46.91482" lon="8.63591">
        <ele>701</ele>
        <time>2021-08-07T12:08:40.059Z</time>
      </trkpt>
      <trkpt lat="46.91482" lon="8.63589">
        <ele>701</ele>
        <time>2021-08-07T12:08:41.060Z</time>
      </trkpt>
      <trkpt lat="46.91481" lon="8.63588">
        <ele>701</ele>
        <time>2021-08-07T12:08:42.059Z</time>
      </trkpt>
      <trkpt lat="46.91481" lon="8.63587">
        <ele>702</ele>
        <time>2021-08-07T12:08:43.059Z</time>
      </trkpt>
      <trkpt lat="46.91481" lon="8.63587">
        <ele>702</ele>
        <time>2021-08-07T12:08:44.059Z</time>
      </trkpt>
      <trkpt lat="46.91478" lon="8.63578">
        <ele>703</ele>
        <time>2021-08-07T12:08:45.060Z</time>
      </trkpt>
      <trkpt lat="46.91478" lon="8.63577">
        <ele>703</ele>
        <time>2021-08-07T12:08:46.059Z</time>
      </trkpt>
      <trkpt lat="46.91477" lon="8.63577">
        <ele>703</ele>
        <time>2021-08-07T12:08:47.059Z</time>
      </trkpt>
      <trkpt lat="46.91477" lon="8.63576">
        <ele>704</ele>
        <time>2021-08-07T12:08:48.059Z</time>
      </trkpt>
      <trkpt lat="46.91478" lon="8.63576">
        <ele>704</ele>
        <time>2021-08-07T12:08:49.060Z</time>
      </trkpt>
      <trkpt lat="46.91478" lon="8.63576">
        <ele>705</ele>
        <time>2021-08-07T12:08:50.060Z</time>
      </trkpt>
      <trkpt lat="46.91478" lon="8.63576">
        <ele>705</ele>
        <time>2021-08-07T12:08:51.059Z</time>
      </trkpt>
      <trkpt lat="46.91477" lon="8.63575">
        <ele>705</ele>
        <time>2021-08-07T12:08:52.059Z</time>
      </trkpt>
      <trkpt lat="46.91477" lon="8.63575">
        <ele>705</ele>
        <time>2021-08-07T12:08:53.060Z</time>
      </trkpt>
      <trkpt lat="46.91477" lon="8.63575">
        <ele>706</ele>
        <time>2021-08-07T12:08:54.059Z</time>
      </trkpt>
      <trkpt lat="46.91478" lon="8.63573">
        <ele>706</ele>
        <time>2021-08-07T12:08:55.061Z</time>
      </trkpt>
      <trkpt lat="46.91478" lon="8.63573">
        <ele>707</ele>
        <time>2021-08-07T12:08:56.060Z</time>
      </trkpt>
      <trkpt lat="46.91479" lon="8.63571">
        <ele>707</ele>
        <time>2021-08-07T12:08:57.060Z</time>
      </trkpt>
      <trkpt lat="46.9148" lon="8.6357">
        <ele>707</ele>
        <time>2021-08-07T12:08:58.061Z</time>
      </trkpt>
      <trkpt lat="46.91481" lon="8.63569">
        <ele>708</ele>
        <time>2021-08-07T12:08:59.061Z</time>
      </trkpt>
      <trkpt lat="46.91482" lon="8.63567">
        <ele>708</ele>
        <time>2021-08-07T12:09:00.060Z</time>
      </trkpt>
      <trkpt lat="46.91483" lon="8.63565">
        <ele>708</ele>
        <time>2021-08-07T12:09:01.060Z</time>
      </trkpt>
      <trkpt lat="46.91483" lon="8.63563">
        <ele>708</ele>
        <time>2021-08-07T12:09:02.060Z</time>
      </trkpt>
      <trkpt lat="46.91483" lon="8.63561">
        <ele>709</ele>
        <time>2021-08-07T12:09:03.060Z</time>
      </trkpt>
      <trkpt lat="46.91483" lon="8.63559">
        <ele>709</ele>
        <time>2021-08-07T12:09:04.061Z</time>
      </trkpt>
      <trkpt lat="46.91483" lon="8.63558">
        <ele>709</ele>
        <time>2021-08-07T12:09:05.061Z</time>
      </trkpt>
      <trkpt lat="46.91484" lon="8.63557">
        <ele>709</ele>
        <time>2021-08-07T12:09:06.061Z</time>
      </trkpt>
      <trkpt lat="46.91485" lon="8.63556">
        <ele>709</ele>
        <time>2021-08-07T12:09:07.061Z</time>
      </trkpt>
      <trkpt lat="46.91485" lon="8.63556">
        <ele>709</ele>
        <time>2021-08-07T12:09:08.061Z</time>
      </trkpt>
      <trkpt lat="46.91486" lon="8.63554">
        <ele>709</ele>
        <time>2021-08-07T12:09:09.061Z</time>
      </trkpt>
      <trkpt lat="46.91487" lon="8.63554">
        <ele>710</ele>
        <time>2021-08-07T12:09:10.061Z</time>
      </trkpt>
      <trkpt lat="46.91487" lon="8.63553">
        <ele>710</ele>
        <time>2021-08-07T12:09:11.061Z</time>
      </trkpt>
      <trkpt lat="46.91488" lon="8.63553">
        <ele>710</ele>
        <time>2021-08-07T12:09:12.060Z</time>
      </trkpt>
      <trkpt lat="46.91489" lon="8.63554">
        <ele>710</ele>
        <time>2021-08-07T12:09:13.061Z</time>
      </trkpt>
      <trkpt lat="46.91489" lon="8.63555">
        <ele>710</ele>
        <time>2021-08-07T12:09:14.060Z</time>
      </trkpt>
      <trkpt lat="46.91489" lon="8.63555">
        <ele>710</ele>
        <time>2021-08-07T12:09:15.061Z</time>
      </trkpt>
      <trkpt lat="46.91489" lon="8.63556">
        <ele>710</ele>
        <time>2021-08-07T12:09:16.061Z</time>
      </trkpt>
      <trkpt lat="46.91489" lon="8.63558">
        <ele>710</ele>
        <time>2021-08-07T12:09:17.061Z</time>
      </trkpt>
      <trkpt lat="46.9149" lon="8.63558">
        <ele>710</ele>
        <time>2021-08-07T12:09:18.060Z</time>
      </trkpt>
      <trkpt lat="46.91489" lon="8.63558">
        <ele>711</ele>
        <time>2021-08-07T12:09:19.060Z</time>
      </trkpt>
      <trkpt lat="46.9149" lon="8.63558">
        <ele>710</ele>
        <time>2021-08-07T12:09:20.061Z</time>
      </trkpt>
      <trkpt lat="46.91489" lon="8.63558">
        <ele>710</ele>
        <time>2021-08-07T12:09:21.062Z</time>
      </trkpt>
      <trkpt lat="46.91489" lon="8.63557">
        <ele>710</ele>
        <time>2021-08-07T12:09:22.062Z</time>
      </trkpt>
      <trkpt lat="46.91489" lon="8.63556">
        <ele>710</ele>
        <time>2021-08-07T12:09:23.061Z</time>
      </trkpt>
      <trkpt lat="46.91491" lon="8.63557">
        <ele>710</ele>
        <time>2021-08-07T12:09:24.061Z</time>
      </trkpt>
      <trkpt lat="46.91492" lon="8.63558">
        <ele>710</ele>
        <time>2021-08-07T12:09:25.062Z</time>
      </trkpt>
      <trkpt lat="46.91495" lon="8.6356">
        <ele>710</ele>
        <time>2021-08-07T12:09:26.062Z</time>
      </trkpt>
      <trkpt lat="46.91497" lon="8.63561">
        <ele>710</ele>
        <time>2021-08-07T12:09:27.062Z</time>
      </trkpt>
      <trkpt lat="46.91498" lon="8.63562">
        <ele>710</ele>
        <time>2021-08-07T12:09:28.062Z</time>
      </trkpt>
      <trkpt lat="46.915" lon="8.63562">
        <ele>710</ele>
        <time>2021-08-07T12:09:29.062Z</time>
      </trkpt>
      <trkpt lat="46.91501" lon="8.63562">
        <ele>710</ele>
        <time>2021-08-07T12:09:30.061Z</time>
      </trkpt>
      <trkpt lat="46.91502" lon="8.63562">
        <ele>709</ele>
        <time>2021-08-07T12:09:31.061Z</time>
      </trkpt>
      <trkpt lat="46.91503" lon="8.63561">
        <ele>709</ele>
        <time>2021-08-07T12:09:32.062Z</time>
      </trkpt>
      <trkpt lat="46.91504" lon="8.63559">
        <ele>709</ele>
        <time>2021-08-07T12:09:33.061Z</time>
      </trkpt>
      <trkpt lat="46.91504" lon="8.63558">
        <ele>709</ele>
        <time>2021-08-07T12:09:34.062Z</time>
      </trkpt>
      <trkpt lat="46.91502" lon="8.63555">
        <ele>709</ele>
        <time>2021-08-07T12:09:35.062Z</time>
      </trkpt>
      <trkpt lat="46.91501" lon="8.63553">
        <ele>709</ele>
        <time>2021-08-07T12:09:36.061Z</time>
      </trkpt>
      <trkpt lat="46.915" lon="8.63552">
        <ele>709</ele>
        <time>2021-08-07T12:09:37.062Z</time>
      </trkpt>
      <trkpt lat="46.91499" lon="8.63552">
        <ele>709</ele>
        <time>2021-08-07T12:09:38.062Z</time>
      </trkpt>
      <trkpt lat="46.91499" lon="8.63552">
        <ele>709</ele>
        <time>2021-08-07T12:09:39.062Z</time>
      </trkpt>
      <trkpt lat="46.91499" lon="8.63553">
        <ele>708</ele>
        <time>2021-08-07T12:09:40.062Z</time>
      </trkpt>
      <trkpt lat="46.91499" lon="8.63553">
        <ele>708</ele>
        <time>2021-08-07T12:09:41.061Z</time>
      </trkpt>
      <trkpt lat="46.91499" lon="8.63554">
        <ele>708</ele>
        <time>2021-08-07T12:09:42.062Z</time>
      </trkpt>
      <trkpt lat="46.91499" lon="8.63555">
        <ele>707</ele>
        <time>2021-08-07T12:09:43.061Z</time>
      </trkpt>
      <trkpt lat="46.91499" lon="8.63556">
        <ele>707</ele>
        <time>2021-08-07T12:09:44.062Z</time>
      </trkpt>
      <trkpt lat="46.91499" lon="8.63556">
        <ele>706</ele>
        <time>2021-08-07T12:09:45.062Z</time>
      </trkpt>
      <trkpt lat="46.91499" lon="8.63555">
        <ele>706</ele>
        <time>2021-08-07T12:09:46.062Z</time>
      </trkpt>
      <trkpt lat="46.91499" lon="8.63554">
        <ele>705</ele>
        <time>2021-08-07T12:09:47.061Z</time>
      </trkpt>
      <trkpt lat="46.91498" lon="8.63552">
        <ele>705</ele>
        <time>2021-08-07T12:09:48.061Z</time>
      </trkpt>
      <trkpt lat="46.91497" lon="8.6355">
        <ele>704</ele>
        <time>2021-08-07T12:09:49.062Z</time>
      </trkpt>
      <trkpt lat="46.91495" lon="8.63547">
        <ele>704</ele>
        <time>2021-08-07T12:09:50.062Z</time>
      </trkpt>
      <trkpt lat="46.91494" lon="8.63545">
        <ele>704</ele>
        <time>2021-08-07T12:09:51.062Z</time>
      </trkpt>
      <trkpt lat="46.91492" lon="8.63542">
        <ele>703</ele>
        <time>2021-08-07T12:09:52.062Z</time>
      </trkpt>
      <trkpt lat="46.91491" lon="8.6354">
        <ele>703</ele>
        <time>2021-08-07T12:09:53.062Z</time>
      </trkpt>
      <trkpt lat="46.91489" lon="8.63538">
        <ele>703</ele>
        <time>2021-08-07T12:09:54.061Z</time>
      </trkpt>
      <trkpt lat="46.91488" lon="8.63536">
        <ele>703</ele>
        <time>2021-08-07T12:09:55.061Z</time>
      </trkpt>
      <trkpt lat="46.91487" lon="8.63536">
        <ele>703</ele>
        <time>2021-08-07T12:09:56.062Z</time>
      </trkpt>
      <trkpt lat="46.91486" lon="8.63535">
        <ele>703</ele>
        <time>2021-08-07T12:09:57.061Z</time>
      </trkpt>
      <trkpt lat="46.91486" lon="8.63534">
        <ele>703</ele>
        <time>2021-08-07T12:09:58.062Z</time>
      </trkpt>
      <trkpt lat="46.91486" lon="8.63534">
        <ele>703</ele>
        <time>2021-08-07T12:09:59.061Z</time>
      </trkpt>
      <trkpt lat="46.91484" lon="8.63533">
        <ele>703</ele>
        <time>2021-08-07T12:10:00.062Z</time>
      </trkpt>
      <trkpt lat="46.91483" lon="8.6353">
        <ele>703</ele>
        <time>2021-08-07T12:10:01.062Z</time>
      </trkpt>
      <trkpt lat="46.91483" lon="8.63528">
        <ele>703</ele>
        <time>2021-08-07T12:10:02.061Z</time>
      </trkpt>
      <trkpt lat="46.91483" lon="8.63526">
        <ele>703</ele>
        <time>2021-08-07T12:10:03.062Z</time>
      </trkpt>
      <trkpt lat="46.91482" lon="8.63522">
        <ele>703</ele>
        <time>2021-08-07T12:10:04.062Z</time>
      </trkpt>
      <trkpt lat="46.91481" lon="8.6352">
        <ele>704</ele>
        <time>2021-08-07T12:10:05.062Z</time>
      </trkpt>
      <trkpt lat="46.9148" lon="8.63517">
        <ele>704</ele>
        <time>2021-08-07T12:10:06.062Z</time>
      </trkpt>
      <trkpt lat="46.91479" lon="8.63515">
        <ele>704</ele>
        <time>2021-08-07T12:10:07.062Z</time>
      </trkpt>
      <trkpt lat="46.9148" lon="8.63514">
        <ele>704</ele>
        <time>2021-08-07T12:10:08.062Z</time>
      </trkpt>
      <trkpt lat="46.9148" lon="8.63513">
        <ele>705</ele>
        <time>2021-08-07T12:10:09.062Z</time>
      </trkpt>
      <trkpt lat="46.91479" lon="8.63512">
        <ele>705</ele>
        <time>2021-08-07T12:10:10.062Z</time>
      </trkpt>
      <trkpt lat="46.91479" lon="8.63512">
        <ele>705</ele>
        <time>2021-08-07T12:10:11.062Z</time>
      </trkpt>
      <trkpt lat="46.91477" lon="8.6351">
        <ele>706</ele>
        <time>2021-08-07T12:10:12.061Z</time>
      </trkpt>
      <trkpt lat="46.91476" lon="8.63509">
        <ele>706</ele>
        <time>2021-08-07T12:10:13.062Z</time>
      </trkpt>
      <trkpt lat="46.91476" lon="8.63508">
        <ele>706</ele>
        <time>2021-08-07T12:10:14.062Z</time>
      </trkpt>
      <trkpt lat="46.91476" lon="8.63508">
        <ele>707</ele>
        <time>2021-08-07T12:10:15.062Z</time>
      </trkpt>
      <trkpt lat="46.91476" lon="8.63508">
        <ele>707</ele>
        <time>2021-08-07T12:10:16.062Z</time>
      </trkpt>
      <trkpt lat="46.91476" lon="8.63509">
        <ele>707</ele>
        <time>2021-08-07T12:10:17.061Z</time>
      </trkpt>
      <trkpt lat="46.91477" lon="8.6351">
        <ele>708</ele>
        <time>2021-08-07T12:10:18.064Z</time>
      </trkpt>
      <trkpt lat="46.91478" lon="8.63511">
        <ele>708</ele>
        <time>2021-08-07T12:10:19.064Z</time>
      </trkpt>
      <trkpt lat="46.91478" lon="8.63511">
        <ele>708</ele>
        <time>2021-08-07T12:10:20.063Z</time>
      </trkpt>
      <trkpt lat="46.91478" lon="8.6351">
        <ele>708</ele>
        <time>2021-08-07T12:10:21.064Z</time>
      </trkpt>
      <trkpt lat="46.91477" lon="8.63507">
        <ele>708</ele>
        <time>2021-08-07T12:10:22.063Z</time>
      </trkpt>
      <trkpt lat="46.91478" lon="8.63507">
        <ele>709</ele>
        <time>2021-08-07T12:10:23.064Z</time>
      </trkpt>
      <trkpt lat="46.9148" lon="8.63508">
        <ele>709</ele>
        <time>2021-08-07T12:10:24.064Z</time>
      </trkpt>
      <trkpt lat="46.91481" lon="8.63506">
        <ele>709</ele>
        <time>2021-08-07T12:10:25.063Z</time>
      </trkpt>
      <trkpt lat="46.91481" lon="8.63503">
        <ele>709</ele>
        <time>2021-08-07T12:10:26.063Z</time>
      </trkpt>
      <trkpt lat="46.91481" lon="8.63501">
        <ele>709</ele>
        <time>2021-08-07T12:10:27.064Z</time>
      </trkpt>
      <trkpt lat="46.91481" lon="8.635">
        <ele>710</ele>
        <time>2021-08-07T12:10:28.063Z</time>
      </trkpt>
      <trkpt lat="46.9148" lon="8.63498">
        <ele>710</ele>
        <time>2021-08-07T12:10:29.064Z</time>
      </trkpt>
      <trkpt lat="46.91479" lon="8.63497">
        <ele>710</ele>
        <time>2021-08-07T12:10:30.064Z</time>
      </trkpt>
      <trkpt lat="46.91479" lon="8.63496">
        <ele>710</ele>
        <time>2021-08-07T12:10:31.064Z</time>
      </trkpt>
      <trkpt lat="46.91478" lon="8.63496">
        <ele>710</ele>
        <time>2021-08-07T12:10:32.064Z</time>
      </trkpt>
      <trkpt lat="46.91478" lon="8.63496">
        <ele>711</ele>
        <time>2021-08-07T12:10:33.064Z</time>
      </trkpt>
      <trkpt lat="46.91477" lon="8.63496">
        <ele>711</ele>
        <time>2021-08-07T12:10:34.064Z</time>
      </trkpt>
      <trkpt lat="46.91478" lon="8.63497">
        <ele>711</ele>
        <time>2021-08-07T12:10:35.064Z</time>
      </trkpt>
      <trkpt lat="46.91479" lon="8.63498">
        <ele>711</ele>
        <time>2021-08-07T12:10:36.064Z</time>
      </trkpt>
      <trkpt lat="46.91479" lon="8.63497">
        <ele>711</ele>
        <time>2021-08-07T12:10:37.064Z</time>
      </trkpt>
      <trkpt lat="46.91478" lon="8.63495">
        <ele>711</ele>
        <time>2021-08-07T12:10:38.064Z</time>
      </trkpt>
      <trkpt lat="46.91477" lon="8.63493">
        <ele>711</ele>
        <time>2021-08-07T12:10:39.064Z</time>
      </trkpt>
      <trkpt lat="46.91477" lon="8.63492">
        <ele>711</ele>
        <time>2021-08-07T12:10:40.064Z</time>
      </trkpt>
      <trkpt lat="46.91477" lon="8.63491">
        <ele>711</ele>
        <time>2021-08-07T12:10:41.064Z</time>
      </trkpt>
      <trkpt lat="46.91476" lon="8.63489">
        <ele>711</ele>
        <time>2021-08-07T12:10:42.064Z</time>
      </trkpt>
      <trkpt lat="46.91475" lon="8.63488">
        <ele>711</ele>
        <time>2021-08-07T12:10:43.064Z</time>
      </trkpt>
      <trkpt lat="46.91474" lon="8.63488">
        <ele>711</ele>
        <time>2021-08-07T12:10:44.063Z</time>
      </trkpt>
      <trkpt lat="46.91473" lon="8.63488">
        <ele>711</ele>
        <time>2021-08-07T12:10:45.064Z</time>
      </trkpt>
      <trkpt lat="46.91472" lon="8.63486">
        <ele>711</ele>
        <time>2021-08-07T12:10:46.063Z</time>
      </trkpt>
      <trkpt lat="46.9147" lon="8.63483">
        <ele>711</ele>
        <time>2021-08-07T12:10:47.064Z</time>
      </trkpt>
      <trkpt lat="46.91469" lon="8.63481">
        <ele>712</ele>
        <time>2021-08-07T12:10:51.047Z</time>
      </trkpt>
      <trkpt lat="46.9147" lon="8.63481">
        <ele>712</ele>
        <time>2021-08-07T12:10:57.819Z</time>
      </trkpt>
      <trkpt lat="46.91471" lon="8.63482">
        <ele>712</ele>
        <time>2021-08-07T12:10:58.819Z</time>
      </trkpt>
      <trkpt lat="46.91472" lon="8.63481">
        <ele>712</ele>
        <time>2021-08-07T12:10:59.819Z</time>
      </trkpt>
      <trkpt lat="46.91474" lon="8.63482">
        <ele>712</ele>
        <time>2021-08-07T12:11:00.820Z</time>
      </trkpt>
      <trkpt lat="46.91474" lon="8.63484">
        <ele>713</ele>
        <time>2021-08-07T12:11:01.819Z</time>
      </trkpt>
      <trkpt lat="46.91474" lon="8.63484">
        <ele>713</ele>
        <time>2021-08-07T12:11:02.820Z</time>
      </trkpt>
      <trkpt lat="46.91474" lon="8.63484">
        <ele>713</ele>
        <time>2021-08-07T12:11:03.820Z</time>
      </trkpt>
      <trkpt lat="46.91474" lon="8.63483">
        <ele>714</ele>
        <time>2021-08-07T12:11:04.819Z</time>
      </trkpt>
      <trkpt lat="46.91474" lon="8.63481">
        <ele>714</ele>
        <time>2021-08-07T12:11:05.820Z</time>
      </trkpt>
      <trkpt lat="46.91473" lon="8.63479">
        <ele>715</ele>
        <time>2021-08-07T12:11:06.820Z</time>
      </trkpt>
      <trkpt lat="46.91473" lon="8.63478">
        <ele>715</ele>
        <time>2021-08-07T12:11:07.819Z</time>
      </trkpt>
      <trkpt lat="46.91474" lon="8.63479">
        <ele>715</ele>
        <time>2021-08-07T12:11:08.819Z</time>
      </trkpt>
      <trkpt lat="46.91474" lon="8.63478">
        <ele>716</ele>
        <time>2021-08-07T12:11:09.820Z</time>
      </trkpt>
      <trkpt lat="46.91473" lon="8.63476">
        <ele>716</ele>
        <time>2021-08-07T12:11:10.820Z</time>
      </trkpt>
      <trkpt lat="46.91471" lon="8.63467">
        <ele>718</ele>
        <time>2021-08-07T12:11:11.821Z</time>
      </trkpt>
      <trkpt lat="46.91469" lon="8.63467">
        <ele>718</ele>
        <time>2021-08-07T12:11:12.821Z</time>
      </trkpt>
      <trkpt lat="46.91468" lon="8.63465">
        <ele>718</ele>
        <time>2021-08-07T12:11:13.820Z</time>
      </trkpt>
      <trkpt lat="46.91467" lon="8.63461">
        <ele>719</ele>
        <time>2021-08-07T12:11:14.821Z</time>
      </trkpt>
      <trkpt lat="46.91468" lon="8.63459">
        <ele>719</ele>
        <time>2021-08-07T12:11:15.821Z</time>
      </trkpt>
      <trkpt lat="46.91468" lon="8.63458">
        <ele>719</ele>
        <time>2021-08-07T12:11:16.821Z</time>
      </trkpt>
      <trkpt lat="46.91468" lon="8.63456">
        <ele>720</ele>
        <time>2021-08-07T12:11:17.820Z</time>
      </trkpt>
      <trkpt lat="46.91468" lon="8.63456">
        <ele>720</ele>
        <time>2021-08-07T12:11:18.820Z</time>
      </trkpt>
      <trkpt lat="46.91468" lon="8.63457">
        <ele>720</ele>
        <time>2021-08-07T12:11:19.821Z</time>
      </trkpt>
      <trkpt lat="46.91468" lon="8.63457">
        <ele>720</ele>
        <time>2021-08-07T12:11:20.820Z</time>
      </trkpt>
      <trkpt lat="46.91468" lon="8.63458">
        <ele>721</ele>
        <time>2021-08-07T12:11:21.820Z</time>
      </trkpt>
      <trkpt lat="46.91468" lon="8.63458">
        <ele>721</ele>
        <time>2021-08-07T12:11:22.820Z</time>
      </trkpt>
      <trkpt lat="46.91468" lon="8.63459">
        <ele>721</ele>
        <time>2021-08-07T12:11:23.820Z</time>
      </trkpt>
      <trkpt lat="46.91467" lon="8.63458">
        <ele>721</ele>
        <time>2021-08-07T12:11:24.821Z</time>
      </trkpt>
      <trkpt lat="46.91466" lon="8.63457">
        <ele>721</ele>
        <time>2021-08-07T12:11:25.820Z</time>
      </trkpt>
      <trkpt lat="46.91465" lon="8.63455">
        <ele>721</ele>
        <time>2021-08-07T12:11:26.820Z</time>
      </trkpt>
      <trkpt lat="46.91464" lon="8.63452">
        <ele>721</ele>
        <time>2021-08-07T12:11:27.821Z</time>
      </trkpt>
      <trkpt lat="46.91465" lon="8.6345">
        <ele>721</ele>
        <time>2021-08-07T12:11:28.820Z</time>
      </trkpt>
      <trkpt lat="46.91464" lon="8.63448">
        <ele>721</ele>
        <time>2021-08-07T12:11:29.820Z</time>
      </trkpt>
      <trkpt lat="46.91464" lon="8.63449">
        <ele>721</ele>
        <time>2021-08-07T12:11:30.820Z</time>
      </trkpt>
      <trkpt lat="46.91463" lon="8.63451">
        <ele>721</ele>
        <time>2021-08-07T12:11:31.820Z</time>
      </trkpt>
      <trkpt lat="46.91462" lon="8.63452">
        <ele>721</ele>
        <time>2021-08-07T12:11:32.820Z</time>
      </trkpt>
      <trkpt lat="46.91462" lon="8.63451">
        <ele>721</ele>
        <time>2021-08-07T12:11:33.820Z</time>
      </trkpt>
      <trkpt lat="46.91462" lon="8.6345">
        <ele>721</ele>
        <time>2021-08-07T12:11:34.821Z</time>
      </trkpt>
      <trkpt lat="46.91461" lon="8.63451">
        <ele>721</ele>
        <time>2021-08-07T12:11:35.820Z</time>
      </trkpt>
      <trkpt lat="46.91461" lon="8.63452">
        <ele>722</ele>
        <time>2021-08-07T12:11:36.821Z</time>
      </trkpt>
      <trkpt lat="46.9146" lon="8.63452">
        <ele>722</ele>
        <time>2021-08-07T12:11:37.820Z</time>
      </trkpt>
      <trkpt lat="46.9146" lon="8.63452">
        <ele>722</ele>
        <time>2021-08-07T12:11:38.821Z</time>
      </trkpt>
      <trkpt lat="46.91461" lon="8.63453">
        <ele>722</ele>
        <time>2021-08-07T12:11:39.820Z</time>
      </trkpt>
      <trkpt lat="46.91461" lon="8.63453">
        <ele>722</ele>
        <time>2021-08-07T12:11:40.820Z</time>
      </trkpt>
      <trkpt lat="46.91462" lon="8.63454">
        <ele>722</ele>
        <time>2021-08-07T12:11:41.820Z</time>
      </trkpt>
      <trkpt lat="46.91462" lon="8.63454">
        <ele>721</ele>
        <time>2021-08-07T12:11:42.821Z</time>
      </trkpt>
      <trkpt lat="46.91462" lon="8.63456">
        <ele>721</ele>
        <time>2021-08-07T12:11:43.821Z</time>
      </trkpt>
      <trkpt lat="46.91463" lon="8.63457">
        <ele>721</ele>
        <time>2021-08-07T12:11:44.821Z</time>
      </trkpt>
      <trkpt lat="46.91463" lon="8.6346">
        <ele>721</ele>
        <time>2021-08-07T12:11:45.820Z</time>
      </trkpt>
      <trkpt lat="46.9146" lon="8.63453">
        <ele>721</ele>
        <time>2021-08-07T12:11:46.820Z</time>
      </trkpt>
      <trkpt lat="46.9146" lon="8.63453">
        <ele>721</ele>
        <time>2021-08-07T12:11:47.821Z</time>
      </trkpt>
      <trkpt lat="46.91461" lon="8.63451">
        <ele>721</ele>
        <time>2021-08-07T12:11:48.821Z</time>
      </trkpt>
      <trkpt lat="46.91461" lon="8.63449">
        <ele>721</ele>
        <time>2021-08-07T12:11:49.821Z</time>
      </trkpt>
      <trkpt lat="46.91462" lon="8.63449">
        <ele>721</ele>
        <time>2021-08-07T12:11:50.820Z</time>
      </trkpt>
      <trkpt lat="46.91462" lon="8.63451">
        <ele>721</ele>
        <time>2021-08-07T12:11:51.821Z</time>
      </trkpt>
      <trkpt lat="46.91462" lon="8.63452">
        <ele>721</ele>
        <time>2021-08-07T12:11:52.821Z</time>
      </trkpt>
      <trkpt lat="46.91461" lon="8.6345">
        <ele>721</ele>
        <time>2021-08-07T12:11:53.821Z</time>
      </trkpt>
      <trkpt lat="46.91461" lon="8.63449">
        <ele>720</ele>
        <time>2021-08-07T12:11:54.821Z</time>
      </trkpt>
      <trkpt lat="46.9146" lon="8.63447">
        <ele>720</ele>
        <time>2021-08-07T12:11:55.820Z</time>
      </trkpt>
      <trkpt lat="46.9146" lon="8.63447">
        <ele>720</ele>
        <time>2021-08-07T12:11:56.821Z</time>
      </trkpt>
      <trkpt lat="46.91459" lon="8.63446">
        <ele>720</ele>
        <time>2021-08-07T12:11:57.821Z</time>
      </trkpt>
      <trkpt lat="46.91458" lon="8.63446">
        <ele>720</ele>
        <time>2021-08-07T12:11:58.821Z</time>
      </trkpt>
      <trkpt lat="46.91459" lon="8.63443">
        <ele>720</ele>
        <time>2021-08-07T12:11:59.821Z</time>
      </trkpt>
      <trkpt lat="46.91459" lon="8.6344">
        <ele>720</ele>
        <time>2021-08-07T12:12:00.821Z</time>
      </trkpt>
      <trkpt lat="46.91459" lon="8.63441">
        <ele>720</ele>
        <time>2021-08-07T12:12:01.820Z</time>
      </trkpt>
      <trkpt lat="46.91458" lon="8.63441">
        <ele>720</ele>
        <time>2021-08-07T12:12:02.820Z</time>
      </trkpt>
      <trkpt lat="46.91456" lon="8.6344">
        <ele>720</ele>
        <time>2021-08-07T12:12:03.820Z</time>
      </trkpt>
      <trkpt lat="46.91454" lon="8.63439">
        <ele>720</ele>
        <time>2021-08-07T12:12:04.820Z</time>
      </trkpt>
      <trkpt lat="46.91453" lon="8.63438">
        <ele>719</ele>
        <time>2021-08-07T12:12:05.820Z</time>
      </trkpt>
      <trkpt lat="46.91454" lon="8.63438">
        <ele>719</ele>
        <time>2021-08-07T12:12:06.821Z</time>
      </trkpt>
      <trkpt lat="46.91454" lon="8.63437">
        <ele>719</ele>
        <time>2021-08-07T12:12:07.821Z</time>
      </trkpt>
      <trkpt lat="46.91454" lon="8.63435">
        <ele>719</ele>
        <time>2021-08-07T12:12:08.821Z</time>
      </trkpt>
      <trkpt lat="46.91453" lon="8.63434">
        <ele>719</ele>
        <time>2021-08-07T12:12:09.821Z</time>
      </trkpt>
      <trkpt lat="46.91452" lon="8.63435">
        <ele>719</ele>
        <time>2021-08-07T12:12:10.821Z</time>
      </trkpt>
      <trkpt lat="46.91452" lon="8.63438">
        <ele>719</ele>
        <time>2021-08-07T12:12:11.821Z</time>
      </trkpt>
      <trkpt lat="46.91452" lon="8.63439">
        <ele>719</ele>
        <time>2021-08-07T12:12:17.944Z</time>
      </trkpt>
      <trkpt lat="46.91453" lon="8.63439">
        <ele>718</ele>
        <time>2021-08-07T12:12:18.945Z</time>
      </trkpt>
      <trkpt lat="46.91454" lon="8.63438">
        <ele>718</ele>
        <time>2021-08-07T12:12:19.944Z</time>
      </trkpt>
      <trkpt lat="46.91455" lon="8.63438">
        <ele>718</ele>
        <time>2021-08-07T12:12:20.945Z</time>
      </trkpt>
      <trkpt lat="46.91456" lon="8.63439">
        <ele>718</ele>
        <time>2021-08-07T12:12:21.944Z</time>
      </trkpt>
      <trkpt lat="46.91456" lon="8.6344">
        <ele>718</ele>
        <time>2021-08-07T12:12:22.945Z</time>
      </trkpt>
      <trkpt lat="46.91456" lon="8.6344">
        <ele>718</ele>
        <time>2021-08-07T12:12:23.944Z</time>
      </trkpt>
      <trkpt lat="46.91455" lon="8.6344">
        <ele>717</ele>
        <time>2021-08-07T12:12:24.944Z</time>
      </trkpt>
      <trkpt lat="46.91453" lon="8.63441">
        <ele>717</ele>
        <time>2021-08-07T12:12:25.945Z</time>
      </trkpt>
      <trkpt lat="46.91453" lon="8.63441">
        <ele>717</ele>
        <time>2021-08-07T12:12:26.944Z</time>
      </trkpt>
      <trkpt lat="46.91452" lon="8.63441">
        <ele>717</ele>
        <time>2021-08-07T12:12:27.945Z</time>
      </trkpt>
      <trkpt lat="46.91451" lon="8.63443">
        <ele>717</ele>
        <time>2021-08-07T12:12:28.944Z</time>
      </trkpt>
      <trkpt lat="46.9145" lon="8.63446">
        <ele>717</ele>
        <time>2021-08-07T12:12:29.945Z</time>
      </trkpt>
      <trkpt lat="46.91449" lon="8.63449">
        <ele>717</ele>
        <time>2021-08-07T12:12:30.945Z</time>
      </trkpt>
      <trkpt lat="46.91448" lon="8.6345">
        <ele>717</ele>
        <time>2021-08-07T12:12:31.945Z</time>
      </trkpt>
      <trkpt lat="46.91447" lon="8.63451">
        <ele>717</ele>
        <time>2021-08-07T12:12:32.945Z</time>
      </trkpt>
      <trkpt lat="46.91445" lon="8.63452">
        <ele>717</ele>
        <time>2021-08-07T12:12:33.944Z</time>
      </trkpt>
      <trkpt lat="46.91443" lon="8.63452">
        <ele>717</ele>
        <time>2021-08-07T12:12:34.945Z</time>
      </trkpt>
      <trkpt lat="46.91441" lon="8.63453">
        <ele>717</ele>
        <time>2021-08-07T12:12:35.945Z</time>
      </trkpt>
      <trkpt lat="46.9144" lon="8.63453">
        <ele>717</ele>
        <time>2021-08-07T12:12:36.945Z</time>
      </trkpt>
      <trkpt lat="46.91438" lon="8.63455">
        <ele>717</ele>
        <time>2021-08-07T12:12:37.945Z</time>
      </trkpt>
      <trkpt lat="46.91436" lon="8.63455">
        <ele>717</ele>
        <time>2021-08-07T12:12:38.944Z</time>
      </trkpt>
      <trkpt lat="46.91436" lon="8.63456">
        <ele>717</ele>
        <time>2021-08-07T12:12:39.944Z</time>
      </trkpt>
      <trkpt lat="46.91438" lon="8.63456">
        <ele>717</ele>
        <time>2021-08-07T12:12:40.944Z</time>
      </trkpt>
      <trkpt lat="46.9144" lon="8.63457">
        <ele>717</ele>
        <time>2021-08-07T12:12:41.945Z</time>
      </trkpt>
      <trkpt lat="46.91442" lon="8.63457">
        <ele>717</ele>
        <time>2021-08-07T12:12:42.944Z</time>
      </trkpt>
      <trkpt lat="46.91444" lon="8.63458">
        <ele>717</ele>
        <time>2021-08-07T12:12:43.945Z</time>
      </trkpt>
      <trkpt lat="46.91447" lon="8.63456">
        <ele>717</ele>
        <time>2021-08-07T12:12:44.944Z</time>
      </trkpt>
      <trkpt lat="46.91448" lon="8.63456">
        <ele>717</ele>
        <time>2021-08-07T12:12:45.945Z</time>
      </trkpt>
      <trkpt lat="46.91449" lon="8.63455">
        <ele>717</ele>
        <time>2021-08-07T12:12:46.945Z</time>
      </trkpt>
      <trkpt lat="46.91449" lon="8.63454">
        <ele>717</ele>
        <time>2021-08-07T12:12:47.944Z</time>
      </trkpt>
      <trkpt lat="46.91448" lon="8.63452">
        <ele>717</ele>
        <time>2021-08-07T12:12:48.945Z</time>
      </trkpt>
      <trkpt lat="46.91447" lon="8.6345">
        <ele>717</ele>
        <time>2021-08-07T12:12:49.945Z</time>
      </trkpt>
      <trkpt lat="46.91447" lon="8.63447">
        <ele>717</ele>
        <time>2021-08-07T12:12:50.945Z</time>
      </trkpt>
      <trkpt lat="46.91445" lon="8.63447">
        <ele>717</ele>
        <time>2021-08-07T12:12:51.945Z</time>
      </trkpt>
      <trkpt lat="46.91444" lon="8.63447">
        <ele>717</ele>
        <time>2021-08-07T12:12:52.944Z</time>
      </trkpt>
      <trkpt lat="46.91444" lon="8.63448">
        <ele>717</ele>
        <time>2021-08-07T12:12:53.945Z</time>
      </trkpt>
      <trkpt lat="46.91443" lon="8.63448">
        <ele>717</ele>
        <time>2021-08-07T12:12:54.945Z</time>
      </trkpt>
      <trkpt lat="46.91443" lon="8.63449">
        <ele>717</ele>
        <time>2021-08-07T12:12:55.945Z</time>
      </trkpt>
      <trkpt lat="46.91443" lon="8.63448">
        <ele>717</ele>
        <time>2021-08-07T12:12:56.945Z</time>
      </trkpt>
      <trkpt lat="46.91443" lon="8.63448">
        <ele>717</ele>
        <time>2021-08-07T12:12:57.945Z</time>
      </trkpt>
      <trkpt lat="46.91443" lon="8.63447">
        <ele>717</ele>
        <time>2021-08-07T12:12:58.945Z</time>
      </trkpt>
      <trkpt lat="46.91443" lon="8.63444">
        <ele>718</ele>
        <time>2021-08-07T12:12:59.944Z</time>
      </trkpt>
      <trkpt lat="46.91443" lon="8.63443">
        <ele>718</ele>
        <time>2021-08-07T12:13:00.944Z</time>
      </trkpt>
      <trkpt lat="46.91441" lon="8.63437">
        <ele>719</ele>
        <time>2021-08-07T12:13:01.944Z</time>
      </trkpt>
      <trkpt lat="46.91441" lon="8.63435">
        <ele>719</ele>
        <time>2021-08-07T12:13:02.945Z</time>
      </trkpt>
      <trkpt lat="46.91442" lon="8.63432">
        <ele>719</ele>
        <time>2021-08-07T12:13:03.944Z</time>
      </trkpt>
      <trkpt lat="46.91442" lon="8.63431">
        <ele>719</ele>
        <time>2021-08-07T12:13:04.945Z</time>
      </trkpt>
      <trkpt lat="46.91441" lon="8.63428">
        <ele>719</ele>
        <time>2021-08-07T12:13:05.945Z</time>
      </trkpt>
      <trkpt lat="46.9144" lon="8.63427">
        <ele>719</ele>
        <time>2021-08-07T12:13:12.087Z</time>
      </trkpt>
      <trkpt lat="46.91438" lon="8.63425">
        <ele>719</ele>
        <time>2021-08-07T12:13:13.086Z</time>
      </trkpt>
      <trkpt lat="46.91437" lon="8.63421">
        <ele>720</ele>
        <time>2021-08-07T12:13:14.086Z</time>
      </trkpt>
      <trkpt lat="46.91434" lon="8.63419">
        <ele>720</ele>
        <time>2021-08-07T12:13:15.087Z</time>
      </trkpt>
      <trkpt lat="46.91432" lon="8.63416">
        <ele>720</ele>
        <time>2021-08-07T12:13:30.183Z</time>
      </trkpt>
      <trkpt lat="46.9143" lon="8.63415">
        <ele>720</ele>
        <time>2021-08-07T12:13:31.184Z</time>
      </trkpt>
      <trkpt lat="46.91429" lon="8.63415">
        <ele>720</ele>
        <time>2021-08-07T12:13:37.088Z</time>
      </trkpt>
      <trkpt lat="46.91428" lon="8.63416">
        <ele>721</ele>
        <time>2021-08-07T12:13:39.922Z</time>
      </trkpt>
      <trkpt lat="46.91426" lon="8.63416">
        <ele>721</ele>
        <time>2021-08-07T12:13:40.923Z</time>
      </trkpt>
      <trkpt lat="46.91425" lon="8.63416">
        <ele>721</ele>
        <time>2021-08-07T12:13:41.923Z</time>
      </trkpt>
      <trkpt lat="46.91426" lon="8.63415">
        <ele>721</ele>
        <time>2021-08-07T12:13:42.922Z</time>
      </trkpt>
      <trkpt lat="46.91426" lon="8.63415">
        <ele>721</ele>
        <time>2021-08-07T12:13:43.922Z</time>
      </trkpt>
      <trkpt lat="46.91426" lon="8.63415">
        <ele>721</ele>
        <time>2021-08-07T12:13:44.923Z</time>
      </trkpt>
      <trkpt lat="46.91426" lon="8.63416">
        <ele>722</ele>
        <time>2021-08-07T12:13:45.923Z</time>
      </trkpt>
      <trkpt lat="46.91426" lon="8.63416">
        <ele>722</ele>
        <time>2021-08-07T12:13:51.060Z</time>
      </trkpt>
      <trkpt lat="46.91426" lon="8.63417">
        <ele>722</ele>
        <time>2021-08-07T12:13:52.060Z</time>
      </trkpt>
      <trkpt lat="46.91426" lon="8.63418">
        <ele>723</ele>
        <time>2021-08-07T12:13:53.060Z</time>
      </trkpt>
      <trkpt lat="46.91425" lon="8.6342">
        <ele>723</ele>
        <time>2021-08-07T12:13:54.061Z</time>
      </trkpt>
      <trkpt lat="46.91425" lon="8.6342">
        <ele>724</ele>
        <time>2021-08-07T12:14:08.206Z</time>
      </trkpt>
      <trkpt lat="46.91425" lon="8.63421">
        <ele>724</ele>
        <time>2021-08-07T12:14:09.206Z</time>
      </trkpt>
      <trkpt lat="46.91425" lon="8.6342">
        <ele>724</ele>
        <time>2021-08-07T12:14:10.205Z</time>
      </trkpt>
      <trkpt lat="46.91426" lon="8.6342">
        <ele>725</ele>
        <time>2021-08-07T12:14:12.312Z</time>
      </trkpt>
      <trkpt lat="46.91427" lon="8.63418">
        <ele>725</ele>
        <time>2021-08-07T12:14:13.312Z</time>
      </trkpt>
      <trkpt lat="46.91427" lon="8.63417">
        <ele>726</ele>
        <time>2021-08-07T12:14:14.312Z</time>
      </trkpt>
      <trkpt lat="46.91426" lon="8.63416">
        <ele>726</ele>
        <time>2021-08-07T12:14:15.311Z</time>
      </trkpt>
      <trkpt lat="46.91424" lon="8.63415">
        <ele>727</ele>
        <time>2021-08-07T12:14:16.311Z</time>
      </trkpt>
      <trkpt lat="46.91423" lon="8.63415">
        <ele>728</ele>
        <time>2021-08-07T12:14:17.312Z</time>
      </trkpt>
      <trkpt lat="46.91422" lon="8.63414">
        <ele>728</ele>
        <time>2021-08-07T12:14:18.312Z</time>
      </trkpt>
      <trkpt lat="46.91421" lon="8.63414">
        <ele>729</ele>
        <time>2021-08-07T12:14:19.312Z</time>
      </trkpt>
      <trkpt lat="46.91421" lon="8.63413">
        <ele>730</ele>
        <time>2021-08-07T12:14:20.311Z</time>
      </trkpt>
      <trkpt lat="46.91421" lon="8.63412">
        <ele>731</ele>
        <time>2021-08-07T12:14:21.311Z</time>
      </trkpt>
      <trkpt lat="46.91421" lon="8.63411">
        <ele>732</ele>
        <time>2021-08-07T12:14:22.312Z</time>
      </trkpt>
      <trkpt lat="46.9142" lon="8.63411">
        <ele>733</ele>
        <time>2021-08-07T12:14:23.312Z</time>
      </trkpt>
      <trkpt lat="46.91419" lon="8.63411">
        <ele>733</ele>
        <time>2021-08-07T12:14:24.312Z</time>
      </trkpt>
      <trkpt lat="46.91419" lon="8.63411">
        <ele>734</ele>
        <time>2021-08-07T12:14:25.312Z</time>
      </trkpt>
      <trkpt lat="46.91418" lon="8.63411">
        <ele>735</ele>
        <time>2021-08-07T12:14:26.312Z</time>
      </trkpt>
      <trkpt lat="46.91418" lon="8.63411">
        <ele>735</ele>
        <time>2021-08-07T12:14:27.311Z</time>
      </trkpt>
      <trkpt lat="46.91417" lon="8.63412">
        <ele>736</ele>
        <time>2021-08-07T12:14:28.312Z</time>
      </trkpt>
      <trkpt lat="46.91416" lon="8.63412">
        <ele>736</ele>
        <time>2021-08-07T12:14:29.312Z</time>
      </trkpt>
      <trkpt lat="46.91415" lon="8.63411">
        <ele>737</ele>
        <time>2021-08-07T12:14:30.312Z</time>
      </trkpt>
      <trkpt lat="46.91414" lon="8.63411">
        <ele>737</ele>
        <time>2021-08-07T12:14:31.311Z</time>
      </trkpt>
      <trkpt lat="46.91414" lon="8.63412">
        <ele>738</ele>
        <time>2021-08-07T12:14:32.312Z</time>
      </trkpt>
      <trkpt lat="46.91414" lon="8.63412">
        <ele>738</ele>
        <time>2021-08-07T12:14:33.312Z</time>
      </trkpt>
      <trkpt lat="46.91414" lon="8.63413">
        <ele>738</ele>
        <time>2021-08-07T12:14:34.311Z</time>
      </trkpt>
      <trkpt lat="46.91415" lon="8.63414">
        <ele>738</ele>
        <time>2021-08-07T12:14:35.311Z</time>
      </trkpt>
      <trkpt lat="46.91413" lon="8.63413">
        <ele>739</ele>
        <time>2021-08-07T12:14:36.312Z</time>
      </trkpt>
      <trkpt lat="46.91411" lon="8.63412">
        <ele>739</ele>
        <time>2021-08-07T12:14:37.312Z</time>
      </trkpt>
      <trkpt lat="46.9141" lon="8.63411">
        <ele>739</ele>
        <time>2021-08-07T12:14:38.312Z</time>
      </trkpt>
      <trkpt lat="46.91409" lon="8.63411">
        <ele>739</ele>
        <time>2021-08-07T12:14:39.311Z</time>
      </trkpt>
      <trkpt lat="46.91408" lon="8.6341">
        <ele>740</ele>
        <time>2021-08-07T12:14:40.312Z</time>
      </trkpt>
      <trkpt lat="46.91408" lon="8.63409">
        <ele>740</ele>
        <time>2021-08-07T12:14:41.312Z</time>
      </trkpt>
      <trkpt lat="46.91408" lon="8.63407">
        <ele>740</ele>
        <time>2021-08-07T12:14:42.311Z</time>
      </trkpt>
      <trkpt lat="46.91408" lon="8.63406">
        <ele>740</ele>
        <time>2021-08-07T12:14:43.312Z</time>
      </trkpt>
      <trkpt lat="46.91408" lon="8.63404">
        <ele>740</ele>
        <time>2021-08-07T12:14:44.312Z</time>
      </trkpt>
      <trkpt lat="46.91408" lon="8.63402">
        <ele>741</ele>
        <time>2021-08-07T12:14:45.312Z</time>
      </trkpt>
      <trkpt lat="46.91407" lon="8.63401">
        <ele>741</ele>
        <time>2021-08-07T12:14:46.311Z</time>
      </trkpt>
      <trkpt lat="46.91406" lon="8.634">
        <ele>741</ele>
        <time>2021-08-07T12:14:47.311Z</time>
      </trkpt>
      <trkpt lat="46.91406" lon="8.634">
        <ele>741</ele>
        <time>2021-08-07T12:14:48.311Z</time>
      </trkpt>
      <trkpt lat="46.91407" lon="8.63401">
        <ele>741</ele>
        <time>2021-08-07T12:14:49.311Z</time>
      </trkpt>
      <trkpt lat="46.91407" lon="8.63401">
        <ele>741</ele>
        <time>2021-08-07T12:14:50.312Z</time>
      </trkpt>
      <trkpt lat="46.91407" lon="8.63401">
        <ele>740</ele>
        <time>2021-08-07T12:14:51.312Z</time>
      </trkpt>
      <trkpt lat="46.91406" lon="8.63402">
        <ele>740</ele>
        <time>2021-08-07T12:14:52.312Z</time>
      </trkpt>
      <trkpt lat="46.91406" lon="8.63402">
        <ele>739</ele>
        <time>2021-08-07T12:14:53.312Z</time>
      </trkpt>
      <trkpt lat="46.91407" lon="8.63402">
        <ele>739</ele>
        <time>2021-08-07T12:14:54.312Z</time>
      </trkpt>
      <trkpt lat="46.91409" lon="8.63402">
        <ele>738</ele>
        <time>2021-08-07T12:14:55.312Z</time>
      </trkpt>
      <trkpt lat="46.91408" lon="8.63402">
        <ele>738</ele>
        <time>2021-08-07T12:14:56.312Z</time>
      </trkpt>
      <trkpt lat="46.91407" lon="8.634">
        <ele>737</ele>
        <time>2021-08-07T12:14:57.311Z</time>
      </trkpt>
      <trkpt lat="46.91407" lon="8.63398">
        <ele>736</ele>
        <time>2021-08-07T12:14:58.311Z</time>
      </trkpt>
      <trkpt lat="46.91407" lon="8.63395">
        <ele>735</ele>
        <time>2021-08-07T12:14:59.311Z</time>
      </trkpt>
      <trkpt lat="46.91408" lon="8.63394">
        <ele>735</ele>
        <time>2021-08-07T12:15:00.312Z</time>
      </trkpt>
      <trkpt lat="46.9141" lon="8.63394">
        <ele>734</ele>
        <time>2021-08-07T12:15:01.312Z</time>
      </trkpt>
      <trkpt lat="46.9141" lon="8.63395">
        <ele>733</ele>
        <time>2021-08-07T12:15:02.312Z</time>
      </trkpt>
      <trkpt lat="46.9141" lon="8.63395">
        <ele>732</ele>
        <time>2021-08-07T12:15:03.311Z</time>
      </trkpt>
      <trkpt lat="46.9141" lon="8.63395">
        <ele>731</ele>
        <time>2021-08-07T12:15:04.311Z</time>
      </trkpt>
      <trkpt lat="46.9141" lon="8.63395">
        <ele>731</ele>
        <time>2021-08-07T12:15:05.311Z</time>
      </trkpt>
      <trkpt lat="46.9141" lon="8.63394">
        <ele>730</ele>
        <time>2021-08-07T12:15:06.312Z</time>
      </trkpt>
      <trkpt lat="46.91407" lon="8.63394">
        <ele>726</ele>
        <time>2021-08-07T12:15:07.311Z</time>
      </trkpt>
      <trkpt lat="46.91407" lon="8.63395">
        <ele>725</ele>
        <time>2021-08-07T12:15:08.312Z</time>
      </trkpt>
      <trkpt lat="46.91406" lon="8.63394">
        <ele>724</ele>
        <time>2021-08-07T12:15:09.311Z</time>
      </trkpt>
      <trkpt lat="46.91406" lon="8.63394">
        <ele>724</ele>
        <time>2021-08-07T12:15:10.311Z</time>
      </trkpt>
      <trkpt lat="46.91405" lon="8.63394">
        <ele>723</ele>
        <time>2021-08-07T12:15:11.312Z</time>
      </trkpt>
      <trkpt lat="46.91405" lon="8.63393">
        <ele>722</ele>
        <time>2021-08-07T12:15:12.312Z</time>
      </trkpt>
      <trkpt lat="46.91405" lon="8.63392">
        <ele>721</ele>
        <time>2021-08-07T12:15:13.311Z</time>
      </trkpt>
      <trkpt lat="46.91405" lon="8.63391">
        <ele>720</ele>
        <time>2021-08-07T12:15:14.311Z</time>
      </trkpt>
      <trkpt lat="46.91406" lon="8.63391">
        <ele>720</ele>
        <time>2021-08-07T12:15:15.311Z</time>
      </trkpt>
      <trkpt lat="46.91407" lon="8.6339">
        <ele>719</ele>
        <time>2021-08-07T12:15:16.311Z</time>
      </trkpt>
      <trkpt lat="46.91408" lon="8.63389">
        <ele>718</ele>
        <time>2021-08-07T12:15:17.311Z</time>
      </trkpt>
      <trkpt lat="46.91409" lon="8.63388">
        <ele>718</ele>
        <time>2021-08-07T12:15:18.311Z</time>
      </trkpt>
      <trkpt lat="46.9141" lon="8.63387">
        <ele>717</ele>
        <time>2021-08-07T12:15:19.311Z</time>
      </trkpt>
      <trkpt lat="46.91412" lon="8.63387">
        <ele>717</ele>
        <time>2021-08-07T12:15:20.311Z</time>
      </trkpt>
      <trkpt lat="46.91413" lon="8.63387">
        <ele>716</ele>
        <time>2021-08-07T12:15:21.311Z</time>
      </trkpt>
      <trkpt lat="46.91414" lon="8.63386">
        <ele>716</ele>
        <time>2021-08-07T12:15:22.311Z</time>
      </trkpt>
      <trkpt lat="46.91414" lon="8.63386">
        <ele>715</ele>
        <time>2021-08-07T12:15:23.312Z</time>
      </trkpt>
      <trkpt lat="46.91413" lon="8.63384">
        <ele>714</ele>
        <time>2021-08-07T12:15:24.311Z</time>
      </trkpt>
      <trkpt lat="46.91414" lon="8.63384">
        <ele>714</ele>
        <time>2021-08-07T12:15:25.311Z</time>
      </trkpt>
      <trkpt lat="46.91415" lon="8.63382">
        <ele>713</ele>
        <time>2021-08-07T12:15:26.311Z</time>
      </trkpt>
      <trkpt lat="46.91415" lon="8.63381">
        <ele>712</ele>
        <time>2021-08-07T12:15:27.311Z</time>
      </trkpt>
      <trkpt lat="46.91415" lon="8.6338">
        <ele>711</ele>
        <time>2021-08-07T12:15:28.311Z</time>
      </trkpt>
      <trkpt lat="46.91414" lon="8.63379">
        <ele>711</ele>
        <time>2021-08-07T12:15:29.311Z</time>
      </trkpt>
      <trkpt lat="46.91413" lon="8.63379">
        <ele>710</ele>
        <time>2021-08-07T12:15:30.311Z</time>
      </trkpt>
      <trkpt lat="46.91413" lon="8.63378">
        <ele>710</ele>
        <time>2021-08-07T12:15:31.311Z</time>
      </trkpt>
      <trkpt lat="46.91413" lon="8.63379">
        <ele>709</ele>
        <time>2021-08-07T12:15:32.311Z</time>
      </trkpt>
      <trkpt lat="46.91414" lon="8.63379">
        <ele>709</ele>
        <time>2021-08-07T12:15:33.311Z</time>
      </trkpt>
      <trkpt lat="46.91413" lon="8.63379">
        <ele>708</ele>
        <time>2021-08-07T12:15:34.311Z</time>
      </trkpt>
      <trkpt lat="46.91413" lon="8.63379">
        <ele>707</ele>
        <time>2021-08-07T12:15:35.311Z</time>
      </trkpt>
      <trkpt lat="46.91414" lon="8.63378">
        <ele>706</ele>
        <time>2021-08-07T12:15:36.312Z</time>
      </trkpt>
      <trkpt lat="46.91414" lon="8.63377">
        <ele>706</ele>
        <time>2021-08-07T12:15:37.312Z</time>
      </trkpt>
      <trkpt lat="46.91414" lon="8.63376">
        <ele>706</ele>
        <time>2021-08-07T12:15:38.312Z</time>
      </trkpt>
      <trkpt lat="46.91413" lon="8.63375">
        <ele>706</ele>
        <time>2021-08-07T12:15:39.311Z</time>
      </trkpt>
      <trkpt lat="46.91412" lon="8.63375">
        <ele>705</ele>
        <time>2021-08-07T12:15:40.311Z</time>
      </trkpt>
      <trkpt lat="46.91412" lon="8.63376">
        <ele>705</ele>
        <time>2021-08-07T12:15:41.312Z</time>
      </trkpt>
      <trkpt lat="46.91413" lon="8.63376">
        <ele>705</ele>
        <time>2021-08-07T12:15:42.312Z</time>
      </trkpt>
      <trkpt lat="46.91414" lon="8.63375">
        <ele>704</ele>
        <time>2021-08-07T12:15:43.311Z</time>
      </trkpt>
      <trkpt lat="46.91414" lon="8.63375">
        <ele>704</ele>
        <time>2021-08-07T12:15:44.311Z</time>
      </trkpt>
      <trkpt lat="46.91414" lon="8.63375">
        <ele>704</ele>
        <time>2021-08-07T12:15:45.312Z</time>
      </trkpt>
      <trkpt lat="46.91414" lon="8.63374">
        <ele>703</ele>
        <time>2021-08-07T12:15:46.312Z</time>
      </trkpt>
      <trkpt lat="46.91414" lon="8.63374">
        <ele>702</ele>
        <time>2021-08-07T12:15:47.312Z</time>
      </trkpt>
      <trkpt lat="46.91414" lon="8.63375">
        <ele>702</ele>
        <time>2021-08-07T12:15:48.312Z</time>
      </trkpt>
      <trkpt lat="46.91415" lon="8.63375">
        <ele>701</ele>
        <time>2021-08-07T12:15:49.311Z</time>
      </trkpt>
      <trkpt lat="46.91415" lon="8.63376">
        <ele>700</ele>
        <time>2021-08-07T12:15:50.311Z</time>
      </trkpt>
      <trkpt lat="46.91415" lon="8.63376">
        <ele>699</ele>
        <time>2021-08-07T12:15:51.312Z</time>
      </trkpt>
      <trkpt lat="46.91415" lon="8.63377">
        <ele>699</ele>
        <time>2021-08-07T12:15:52.311Z</time>
      </trkpt>
      <trkpt lat="46.91416" lon="8.63377">
        <ele>698</ele>
        <time>2021-08-07T12:15:53.311Z</time>
      </trkpt>
      <trkpt lat="46.91416" lon="8.63378">
        <ele>698</ele>
        <time>2021-08-07T12:15:54.312Z</time>
      </trkpt>
      <trkpt lat="46.91415" lon="8.6338">
        <ele>697</ele>
        <time>2021-08-07T12:15:55.312Z</time>
      </trkpt>
      <trkpt lat="46.91415" lon="8.6338">
        <ele>696</ele>
        <time>2021-08-07T12:15:56.312Z</time>
      </trkpt>
      <trkpt lat="46.91415" lon="8.63381">
        <ele>696</ele>
        <time>2021-08-07T12:15:57.311Z</time>
      </trkpt>
      <trkpt lat="46.91416" lon="8.63381">
        <ele>695</ele>
        <time>2021-08-07T12:15:58.311Z</time>
      </trkpt>
      <trkpt lat="46.91415" lon="8.63382">
        <ele>694</ele>
        <time>2021-08-07T12:15:59.312Z</time>
      </trkpt>
      <trkpt lat="46.91415" lon="8.63383">
        <ele>694</ele>
        <time>2021-08-07T12:16:00.312Z</time>
      </trkpt>
      <trkpt lat="46.91416" lon="8.63384">
        <ele>693</ele>
        <time>2021-08-07T12:16:01.313Z</time>
      </trkpt>
      <trkpt lat="46.91416" lon="8.63385">
        <ele>693</ele>
        <time>2021-08-07T12:16:02.312Z</time>
      </trkpt>
      <trkpt lat="46.91415" lon="8.63385">
        <ele>692</ele>
        <time>2021-08-07T12:16:03.312Z</time>
      </trkpt>
      <trkpt lat="46.91413" lon="8.63386">
        <ele>692</ele>
        <time>2021-08-07T12:16:04.312Z</time>
      </trkpt>
      <trkpt lat="46.91412" lon="8.63387">
        <ele>692</ele>
        <time>2021-08-07T12:16:05.313Z</time>
      </trkpt>
      <trkpt lat="46.91411" lon="8.63388">
        <ele>691</ele>
        <time>2021-08-07T12:16:06.312Z</time>
      </trkpt>
      <trkpt lat="46.91411" lon="8.63388">
        <ele>691</ele>
        <time>2021-08-07T12:16:07.312Z</time>
      </trkpt>
      <trkpt lat="46.91411" lon="8.63388">
        <ele>690</ele>
        <time>2021-08-07T12:16:08.312Z</time>
      </trkpt>
      <trkpt lat="46.91411" lon="8.63388">
        <ele>690</ele>
        <time>2021-08-07T12:16:09.312Z</time>
      </trkpt>
      <trkpt lat="46.91411" lon="8.63388">
        <ele>689</ele>
        <time>2021-08-07T12:16:10.313Z</time>
      </trkpt>
      <trkpt lat="46.91411" lon="8.63388">
        <ele>689</ele>
        <time>2021-08-07T12:16:11.313Z</time>
      </trkpt>
      <trkpt lat="46.91411" lon="8.63389">
        <ele>688</ele>
        <time>2021-08-07T12:16:12.312Z</time>
      </trkpt>
      <trkpt lat="46.91411" lon="8.6339">
        <ele>688</ele>
        <time>2021-08-07T12:16:13.313Z</time>
      </trkpt>
      <trkpt lat="46.91411" lon="8.63391">
        <ele>687</ele>
        <time>2021-08-07T12:16:14.312Z</time>
      </trkpt>
      <trkpt lat="46.91411" lon="8.63392">
        <ele>687</ele>
        <time>2021-08-07T12:16:15.312Z</time>
      </trkpt>
      <trkpt lat="46.91411" lon="8.63393">
        <ele>686</ele>
        <time>2021-08-07T12:16:18.312Z</time>
      </trkpt>
      <trkpt lat="46.91411" lon="8.63392">
        <ele>686</ele>
        <time>2021-08-07T12:16:19.313Z</time>
      </trkpt>
      <trkpt lat="46.9141" lon="8.63391">
        <ele>685</ele>
        <time>2021-08-07T12:16:20.313Z</time>
      </trkpt>
      <trkpt lat="46.91409" lon="8.63389">
        <ele>685</ele>
        <time>2021-08-07T12:16:21.312Z</time>
      </trkpt>
      <trkpt lat="46.91409" lon="8.63389">
        <ele>685</ele>
        <time>2021-08-07T12:16:22.312Z</time>
      </trkpt>
      <trkpt lat="46.9141" lon="8.63388">
        <ele>684</ele>
        <time>2021-08-07T12:16:23.312Z</time>
      </trkpt>
      <trkpt lat="46.91411" lon="8.63387">
        <ele>684</ele>
        <time>2021-08-07T12:16:24.312Z</time>
      </trkpt>
      <trkpt lat="46.9141" lon="8.63386">
        <ele>684</ele>
        <time>2021-08-07T12:16:25.312Z</time>
      </trkpt>
      <trkpt lat="46.91408" lon="8.63385">
        <ele>683</ele>
        <time>2021-08-07T12:16:26.312Z</time>
      </trkpt>
      <trkpt lat="46.91408" lon="8.63384">
        <ele>683</ele>
        <time>2021-08-07T12:16:27.312Z</time>
      </trkpt>
      <trkpt lat="46.91407" lon="8.63384">
        <ele>683</ele>
        <time>2021-08-07T12:16:28.313Z</time>
      </trkpt>
      <trkpt lat="46.91407" lon="8.63385">
        <ele>682</ele>
        <time>2021-08-07T12:16:29.313Z</time>
      </trkpt>
      <trkpt lat="46.91407" lon="8.63385">
        <ele>682</ele>
        <time>2021-08-07T12:16:30.312Z</time>
      </trkpt>
      <trkpt lat="46.91408" lon="8.63385">
        <ele>681</ele>
        <time>2021-08-07T12:16:31.313Z</time>
      </trkpt>
      <trkpt lat="46.91408" lon="8.63385">
        <ele>681</ele>
        <time>2021-08-07T12:16:32.313Z</time>
      </trkpt>
      <trkpt lat="46.91408" lon="8.63384">
        <ele>680</ele>
        <time>2021-08-07T12:16:33.312Z</time>
      </trkpt>
      <trkpt lat="46.91407" lon="8.63383">
        <ele>680</ele>
        <time>2021-08-07T12:16:34.312Z</time>
      </trkpt>
      <trkpt lat="46.91405" lon="8.63381">
        <ele>679</ele>
        <time>2021-08-07T12:16:35.312Z</time>
      </trkpt>
      <trkpt lat="46.91404" lon="8.6338">
        <ele>678</ele>
        <time>2021-08-07T12:16:36.312Z</time>
      </trkpt>
      <trkpt lat="46.91403" lon="8.63378">
        <ele>678</ele>
        <time>2021-08-07T12:16:37.313Z</time>
      </trkpt>
      <trkpt lat="46.91402" lon="8.63377">
        <ele>677</ele>
        <time>2021-08-07T12:16:38.313Z</time>
      </trkpt>
      <trkpt lat="46.91402" lon="8.63376">
        <ele>677</ele>
        <time>2021-08-07T12:16:39.313Z</time>
      </trkpt>
      <trkpt lat="46.91401" lon="8.63376">
        <ele>676</ele>
        <time>2021-08-07T12:16:40.312Z</time>
      </trkpt>
      <trkpt lat="46.91392" lon="8.63372">
        <ele>674</ele>
        <time>2021-08-07T12:16:41.313Z</time>
      </trkpt>
      <trkpt lat="46.91391" lon="8.63371">
        <ele>673</ele>
        <time>2021-08-07T12:16:42.313Z</time>
      </trkpt>
      <trkpt lat="46.91391" lon="8.6337">
        <ele>673</ele>
        <time>2021-08-07T12:16:43.312Z</time>
      </trkpt>
      <trkpt lat="46.9139" lon="8.6337">
        <ele>673</ele>
        <time>2021-08-07T12:16:44.313Z</time>
      </trkpt>
      <trkpt lat="46.91388" lon="8.63369">
        <ele>672</ele>
        <time>2021-08-07T12:16:45.312Z</time>
      </trkpt>
      <trkpt lat="46.91387" lon="8.63368">
        <ele>672</ele>
        <time>2021-08-07T12:16:46.313Z</time>
      </trkpt>
      <trkpt lat="46.91385" lon="8.63368">
        <ele>672</ele>
        <time>2021-08-07T12:16:47.313Z</time>
      </trkpt>
      <trkpt lat="46.91384" lon="8.63367">
        <ele>672</ele>
        <time>2021-08-07T12:16:48.313Z</time>
      </trkpt>
      <trkpt lat="46.91383" lon="8.63366">
        <ele>672</ele>
        <time>2021-08-07T12:16:49.312Z</time>
      </trkpt>
      <trkpt lat="46.91383" lon="8.63366">
        <ele>671</ele>
        <time>2021-08-07T12:16:50.312Z</time>
      </trkpt>
      <trkpt lat="46.91383" lon="8.63367">
        <ele>671</ele>
        <time>2021-08-07T12:16:51.313Z</time>
      </trkpt>
      <trkpt lat="46.91383" lon="8.63368">
        <ele>671</ele>
        <time>2021-08-07T12:16:52.313Z</time>
      </trkpt>
      <trkpt lat="46.91382" lon="8.63367">
        <ele>670</ele>
        <time>2021-08-07T12:16:53.312Z</time>
      </trkpt>
      <trkpt lat="46.91381" lon="8.63366">
        <ele>670</ele>
        <time>2021-08-07T12:16:54.312Z</time>
      </trkpt>
      <trkpt lat="46.9138" lon="8.63365">
        <ele>669</ele>
        <time>2021-08-07T12:16:55.313Z</time>
      </trkpt>
      <trkpt lat="46.9138" lon="8.63364">
        <ele>669</ele>
        <time>2021-08-07T12:16:56.312Z</time>
      </trkpt>
      <trkpt lat="46.9138" lon="8.63363">
        <ele>669</ele>
        <time>2021-08-07T12:16:57.313Z</time>
      </trkpt>
      <trkpt lat="46.91379" lon="8.63362">
        <ele>668</ele>
        <time>2021-08-07T12:16:58.313Z</time>
      </trkpt>
      <trkpt lat="46.91379" lon="8.6336">
        <ele>668</ele>
        <time>2021-08-07T12:16:59.313Z</time>
      </trkpt>
      <trkpt lat="46.91378" lon="8.63359">
        <ele>668</ele>
        <time>2021-08-07T12:17:00.312Z</time>
      </trkpt>
      <trkpt lat="46.91377" lon="8.63358">
        <ele>667</ele>
        <time>2021-08-07T12:17:01.313Z</time>
      </trkpt>
      <trkpt lat="46.91375" lon="8.63357">
        <ele>667</ele>
        <time>2021-08-07T12:17:02.312Z</time>
      </trkpt>
      <trkpt lat="46.91373" lon="8.63356">
        <ele>667</ele>
        <time>2021-08-07T12:17:03.312Z</time>
      </trkpt>
      <trkpt lat="46.91371" lon="8.63355">
        <ele>667</ele>
        <time>2021-08-07T12:17:04.313Z</time>
      </trkpt>
      <trkpt lat="46.9137" lon="8.63354">
        <ele>666</ele>
        <time>2021-08-07T12:17:05.313Z</time>
      </trkpt>
      <trkpt lat="46.91368" lon="8.63352">
        <ele>666</ele>
        <time>2021-08-07T12:17:06.312Z</time>
      </trkpt>
      <trkpt lat="46.91367" lon="8.6335">
        <ele>666</ele>
        <time>2021-08-07T12:17:07.313Z</time>
      </trkpt>
      <trkpt lat="46.91367" lon="8.63348">
        <ele>666</ele>
        <time>2021-08-07T12:17:08.313Z</time>
      </trkpt>
      <trkpt lat="46.91365" lon="8.63345">
        <ele>666</ele>
        <time>2021-08-07T12:17:09.312Z</time>
      </trkpt>
      <trkpt lat="46.91362" lon="8.63342">
        <ele>665</ele>
        <time>2021-08-07T12:17:10.312Z</time>
      </trkpt>
      <trkpt lat="46.9136" lon="8.6334">
        <ele>665</ele>
        <time>2021-08-07T12:17:11.312Z</time>
      </trkpt>
      <trkpt lat="46.91358" lon="8.63339">
        <ele>665</ele>
        <time>2021-08-07T12:17:12.313Z</time>
      </trkpt>
      <trkpt lat="46.91357" lon="8.63338">
        <ele>665</ele>
        <time>2021-08-07T12:17:13.312Z</time>
      </trkpt>
      <trkpt lat="46.91356" lon="8.63338">
        <ele>665</ele>
        <time>2021-08-07T12:17:14.312Z</time>
      </trkpt>
      <trkpt lat="46.91356" lon="8.63338">
        <ele>665</ele>
        <time>2021-08-07T12:17:15.312Z</time>
      </trkpt>
      <trkpt lat="46.91357" lon="8.63338">
        <ele>665</ele>
        <time>2021-08-07T12:17:16.313Z</time>
      </trkpt>
      <trkpt lat="46.91357" lon="8.63339">
        <ele>665</ele>
        <time>2021-08-07T12:17:17.313Z</time>
      </trkpt>
      <trkpt lat="46.91359" lon="8.63341">
        <ele>665</ele>
        <time>2021-08-07T12:17:18.313Z</time>
      </trkpt>
      <trkpt lat="46.91361" lon="8.63342">
        <ele>665</ele>
        <time>2021-08-07T12:17:19.312Z</time>
      </trkpt>
      <trkpt lat="46.91362" lon="8.63343">
        <ele>665</ele>
        <time>2021-08-07T12:17:20.313Z</time>
      </trkpt>
      <trkpt lat="46.91364" lon="8.63343">
        <ele>665</ele>
        <time>2021-08-07T12:17:21.312Z</time>
      </trkpt>
      <trkpt lat="46.91364" lon="8.63342">
        <ele>665</ele>
        <time>2021-08-07T12:17:22.312Z</time>
      </trkpt>
      <trkpt lat="46.91364" lon="8.63342">
        <ele>665</ele>
        <time>2021-08-07T12:17:23.313Z</time>
      </trkpt>
      <trkpt lat="46.91367" lon="8.63343">
        <ele>664</ele>
        <time>2021-08-07T12:17:25.313Z</time>
      </trkpt>
      <trkpt lat="46.91368" lon="8.63342">
        <ele>664</ele>
        <time>2021-08-07T12:17:26.313Z</time>
      </trkpt>
      <trkpt lat="46.91366" lon="8.6334">
        <ele>664</ele>
        <time>2021-08-07T12:17:27.312Z</time>
      </trkpt>
      <trkpt lat="46.91364" lon="8.63339">
        <ele>664</ele>
        <time>2021-08-07T12:17:28.312Z</time>
      </trkpt>
      <trkpt lat="46.91363" lon="8.63338">
        <ele>664</ele>
        <time>2021-08-07T12:17:29.312Z</time>
      </trkpt>
      <trkpt lat="46.91362" lon="8.63337">
        <ele>664</ele>
        <time>2021-08-07T12:17:30.313Z</time>
      </trkpt>
      <trkpt lat="46.91362" lon="8.63336">
        <ele>663</ele>
        <time>2021-08-07T12:17:31.312Z</time>
      </trkpt>
      <trkpt lat="46.91362" lon="8.63336">
        <ele>663</ele>
        <time>2021-08-07T12:17:32.313Z</time>
      </trkpt>
      <trkpt lat="46.9136" lon="8.63335">
        <ele>663</ele>
        <time>2021-08-07T12:17:33.313Z</time>
      </trkpt>
      <trkpt lat="46.91359" lon="8.63334">
        <ele>663</ele>
        <time>2021-08-07T12:17:34.313Z</time>
      </trkpt>
      <trkpt lat="46.91358" lon="8.63333">
        <ele>663</ele>
        <time>2021-08-07T12:17:35.312Z</time>
      </trkpt>
      <trkpt lat="46.91356" lon="8.63332">
        <ele>663</ele>
        <time>2021-08-07T12:17:36.312Z</time>
      </trkpt>
      <trkpt lat="46.91356" lon="8.63331">
        <ele>663</ele>
        <time>2021-08-07T12:17:37.312Z</time>
      </trkpt>
      <trkpt lat="46.91355" lon="8.6333">
        <ele>663</ele>
        <time>2021-08-07T12:17:38.313Z</time>
      </trkpt>
      <trkpt lat="46.91355" lon="8.6333">
        <ele>663</ele>
        <time>2021-08-07T12:17:39.313Z</time>
      </trkpt>
      <trkpt lat="46.91353" lon="8.63328">
        <ele>663</ele>
        <time>2021-08-07T12:17:40.313Z</time>
      </trkpt>
      <trkpt lat="46.91352" lon="8.63327">
        <ele>663</ele>
        <time>2021-08-07T12:17:41.313Z</time>
      </trkpt>
      <trkpt lat="46.91352" lon="8.63325">
        <ele>663</ele>
        <time>2021-08-07T12:17:42.312Z</time>
      </trkpt>
      <trkpt lat="46.91352" lon="8.63326">
        <ele>663</ele>
        <time>2021-08-07T12:17:43.313Z</time>
      </trkpt>
      <trkpt lat="46.91356" lon="8.63327">
        <ele>663</ele>
        <time>2021-08-07T12:17:44.312Z</time>
      </trkpt>
      <trkpt lat="46.91359" lon="8.63325">
        <ele>663</ele>
        <time>2021-08-07T12:17:45.313Z</time>
      </trkpt>
      <trkpt lat="46.9136" lon="8.63325">
        <ele>663</ele>
        <time>2021-08-07T12:17:46.313Z</time>
      </trkpt>
      <trkpt lat="46.91358" lon="8.63326">
        <ele>662</ele>
        <time>2021-08-07T12:17:47.312Z</time>
      </trkpt>
      <trkpt lat="46.91355" lon="8.63326">
        <ele>662</ele>
        <time>2021-08-07T12:17:48.312Z</time>
      </trkpt>
      <trkpt lat="46.91352" lon="8.63326">
        <ele>662</ele>
        <time>2021-08-07T12:17:49.313Z</time>
      </trkpt>
      <trkpt lat="46.91349" lon="8.63326">
        <ele>662</ele>
        <time>2021-08-07T12:17:50.312Z</time>
      </trkpt>
      <trkpt lat="46.91347" lon="8.63326">
        <ele>662</ele>
        <time>2021-08-07T12:17:51.312Z</time>
      </trkpt>
      <trkpt lat="46.91345" lon="8.63327">
        <ele>662</ele>
        <time>2021-08-07T12:17:52.312Z</time>
      </trkpt>
      <trkpt lat="46.91345" lon="8.63327">
        <ele>662</ele>
        <time>2021-08-07T12:17:53.312Z</time>
      </trkpt>
      <trkpt lat="46.91342" lon="8.63326">
        <ele>662</ele>
        <time>2021-08-07T12:17:54.312Z</time>
      </trkpt>
      <trkpt lat="46.9134" lon="8.63325">
        <ele>662</ele>
        <time>2021-08-07T12:17:55.313Z</time>
      </trkpt>
      <trkpt lat="46.9134" lon="8.63325">
        <ele>662</ele>
        <time>2021-08-07T12:17:56.313Z</time>
      </trkpt>
      <trkpt lat="46.91339" lon="8.63325">
        <ele>662</ele>
        <time>2021-08-07T12:17:57.312Z</time>
      </trkpt>
      <trkpt lat="46.91327" lon="8.63323">
        <ele>662</ele>
        <time>2021-08-07T12:18:05.312Z</time>
      </trkpt>
      <trkpt lat="46.91334" lon="8.6332">
        <ele>662</ele>
        <time>2021-08-07T12:18:06.312Z</time>
      </trkpt>
      <trkpt lat="46.91342" lon="8.63315">
        <ele>662</ele>
        <time>2021-08-07T12:18:07.313Z</time>
      </trkpt>
      <trkpt lat="46.91347" lon="8.63314">
        <ele>662</ele>
        <time>2021-08-07T12:18:08.313Z</time>
      </trkpt>
      <trkpt lat="46.91349" lon="8.63257">
        <ele>657</ele>
        <time>2021-08-07T12:18:09.314Z</time>
      </trkpt>
      <trkpt lat="46.91351" lon="8.63254">
        <ele>657</ele>
        <time>2021-08-07T12:18:10.314Z</time>
      </trkpt>
      <trkpt lat="46.91352" lon="8.63252">
        <ele>657</ele>
        <time>2021-08-07T12:18:11.313Z</time>
      </trkpt>
      <trkpt lat="46.91355" lon="8.6325">
        <ele>657</ele>
        <time>2021-08-07T12:18:12.313Z</time>
      </trkpt>
      <trkpt lat="46.91357" lon="8.63249">
        <ele>657</ele>
        <time>2021-08-07T12:18:13.313Z</time>
      </trkpt>
      <trkpt lat="46.91358" lon="8.63247">
        <ele>657</ele>
        <time>2021-08-07T12:18:14.313Z</time>
      </trkpt>
      <trkpt lat="46.91359" lon="8.63248">
        <ele>657</ele>
        <time>2021-08-07T12:18:15.314Z</time>
      </trkpt>
      <trkpt lat="46.91362" lon="8.63249">
        <ele>657</ele>
        <time>2021-08-07T12:18:16.313Z</time>
      </trkpt>
      <trkpt lat="46.91361" lon="8.6325">
        <ele>657</ele>
        <time>2021-08-07T12:18:17.313Z</time>
      </trkpt>
      <trkpt lat="46.91362" lon="8.63248">
        <ele>657</ele>
        <time>2021-08-07T12:18:18.314Z</time>
      </trkpt>
      <trkpt lat="46.91359" lon="8.63247">
        <ele>657</ele>
        <time>2021-08-07T12:18:19.314Z</time>
      </trkpt>
      <trkpt lat="46.91358" lon="8.63247">
        <ele>657</ele>
        <time>2021-08-07T12:18:20.314Z</time>
      </trkpt>
      <trkpt lat="46.91357" lon="8.63246">
        <ele>657</ele>
        <time>2021-08-07T12:18:21.313Z</time>
      </trkpt>
      <trkpt lat="46.91352" lon="8.63245">
        <ele>657</ele>
        <time>2021-08-07T12:18:22.313Z</time>
      </trkpt>
      <trkpt lat="46.9135" lon="8.63244">
        <ele>657</ele>
        <time>2021-08-07T12:18:23.313Z</time>
      </trkpt>
      <trkpt lat="46.91346" lon="8.63244">
        <ele>657</ele>
        <time>2021-08-07T12:18:24.314Z</time>
      </trkpt>
      <trkpt lat="46.91345" lon="8.63243">
        <ele>657</ele>
        <time>2021-08-07T12:18:25.314Z</time>
      </trkpt>
      <trkpt lat="46.91346" lon="8.63241">
        <ele>657</ele>
        <time>2021-08-07T12:18:26.313Z</time>
      </trkpt>
      <trkpt lat="46.91345" lon="8.63242">
        <ele>657</ele>
        <time>2021-08-07T12:18:27.313Z</time>
      </trkpt>
      <trkpt lat="46.91345" lon="8.63242">
        <ele>657</ele>
        <time>2021-08-07T12:18:28.313Z</time>
      </trkpt>
      <trkpt lat="46.91344" lon="8.6324">
        <ele>658</ele>
        <time>2021-08-07T12:18:29.314Z</time>
      </trkpt>
      <trkpt lat="46.91342" lon="8.63242">
        <ele>658</ele>
        <time>2021-08-07T12:18:30.313Z</time>
      </trkpt>
      <trkpt lat="46.9134" lon="8.63243">
        <ele>658</ele>
        <time>2021-08-07T12:18:31.313Z</time>
      </trkpt>
      <trkpt lat="46.91336" lon="8.63245">
        <ele>658</ele>
        <time>2021-08-07T12:18:32.314Z</time>
      </trkpt>
      <trkpt lat="46.91332" lon="8.63244">
        <ele>658</ele>
        <time>2021-08-07T12:18:33.313Z</time>
      </trkpt>
      <trkpt lat="46.91329" lon="8.63244">
        <ele>658</ele>
        <time>2021-08-07T12:18:34.313Z</time>
      </trkpt>
      <trkpt lat="46.91323" lon="8.63249">
        <ele>658</ele>
        <time>2021-08-07T12:18:37.313Z</time>
      </trkpt>
      <trkpt lat="46.91322" lon="8.63249">
        <ele>658</ele>
        <time>2021-08-07T12:18:38.313Z</time>
      </trkpt>
      <trkpt lat="46.91321" lon="8.6325">
        <ele>658</ele>
        <time>2021-08-07T12:18:39.314Z</time>
      </trkpt>
      <trkpt lat="46.9132" lon="8.63249">
        <ele>658</ele>
        <time>2021-08-07T12:18:40.313Z</time>
      </trkpt>
      <trkpt lat="46.91319" lon="8.63247">
        <ele>658</ele>
        <time>2021-08-07T12:18:41.313Z</time>
      </trkpt>
      <trkpt lat="46.91319" lon="8.63246">
        <ele>658</ele>
        <time>2021-08-07T12:18:42.313Z</time>
      </trkpt>
      <trkpt lat="46.91319" lon="8.63244">
        <ele>658</ele>
        <time>2021-08-07T12:18:43.313Z</time>
      </trkpt>
      <trkpt lat="46.9132" lon="8.63243">
        <ele>658</ele>
        <time>2021-08-07T12:18:44.313Z</time>
      </trkpt>
      <trkpt lat="46.91319" lon="8.63241">
        <ele>658</ele>
        <time>2021-08-07T12:18:45.314Z</time>
      </trkpt>
      <trkpt lat="46.91317" lon="8.63237">
        <ele>658</ele>
        <time>2021-08-07T12:18:47.314Z</time>
      </trkpt>
      <trkpt lat="46.91317" lon="8.63238">
        <ele>658</ele>
        <time>2021-08-07T12:18:48.315Z</time>
      </trkpt>
      <trkpt lat="46.91317" lon="8.63238">
        <ele>658</ele>
        <time>2021-08-07T12:18:49.315Z</time>
      </trkpt>
      <trkpt lat="46.91317" lon="8.63237">
        <ele>658</ele>
        <time>2021-08-07T12:18:50.314Z</time>
      </trkpt>
      <trkpt lat="46.91318" lon="8.63236">
        <ele>658</ele>
        <time>2021-08-07T12:18:51.315Z</time>
      </trkpt>
      <trkpt lat="46.91318" lon="8.63236">
        <ele>658</ele>
        <time>2021-08-07T12:18:52.315Z</time>
      </trkpt>
      <trkpt lat="46.91318" lon="8.63236">
        <ele>658</ele>
        <time>2021-08-07T12:18:53.315Z</time>
      </trkpt>
      <trkpt lat="46.91316" lon="8.63236">
        <ele>658</ele>
        <time>2021-08-07T12:18:54.315Z</time>
      </trkpt>
      <trkpt lat="46.91315" lon="8.63238">
        <ele>658</ele>
        <time>2021-08-07T12:18:55.314Z</time>
      </trkpt>
      <trkpt lat="46.91313" lon="8.6324">
        <ele>658</ele>
        <time>2021-08-07T12:18:56.315Z</time>
      </trkpt>
      <trkpt lat="46.91313" lon="8.63241">
        <ele>658</ele>
        <time>2021-08-07T12:18:57.314Z</time>
      </trkpt>
      <trkpt lat="46.91311" lon="8.63243">
        <ele>658</ele>
        <time>2021-08-07T12:18:58.315Z</time>
      </trkpt>
      <trkpt lat="46.9131" lon="8.63243">
        <ele>658</ele>
        <time>2021-08-07T12:18:59.314Z</time>
      </trkpt>
      <trkpt lat="46.91309" lon="8.63243">
        <ele>658</ele>
        <time>2021-08-07T12:19:00.314Z</time>
      </trkpt>
      <trkpt lat="46.91308" lon="8.63244">
        <ele>658</ele>
        <time>2021-08-07T12:19:01.315Z</time>
      </trkpt>
      <trkpt lat="46.91307" lon="8.63246">
        <ele>658</ele>
        <time>2021-08-07T12:19:02.315Z</time>
      </trkpt>
      <trkpt lat="46.91305" lon="8.63247">
        <ele>658</ele>
        <time>2021-08-07T12:19:03.315Z</time>
      </trkpt>
      <trkpt lat="46.91305" lon="8.63245">
        <ele>658</ele>
        <time>2021-08-07T12:19:04.315Z</time>
      </trkpt>
      <trkpt lat="46.91305" lon="8.63243">
        <ele>658</ele>
        <time>2021-08-07T12:19:05.315Z</time>
      </trkpt>
      <trkpt lat="46.91304" lon="8.63242">
        <ele>658</ele>
        <time>2021-08-07T12:19:06.314Z</time>
      </trkpt>
      <trkpt lat="46.91304" lon="8.6324">
        <ele>659</ele>
        <time>2021-08-07T12:19:07.315Z</time>
      </trkpt>
      <trkpt lat="46.91303" lon="8.63238">
        <ele>658</ele>
        <time>2021-08-07T12:19:08.315Z</time>
      </trkpt>
      <trkpt lat="46.91301" lon="8.63235">
        <ele>658</ele>
        <time>2021-08-07T12:19:09.314Z</time>
      </trkpt>
      <trkpt lat="46.91297" lon="8.63229">
        <ele>658</ele>
        <time>2021-08-07T12:19:10.315Z</time>
      </trkpt>
      <trkpt lat="46.91296" lon="8.63228">
        <ele>658</ele>
        <time>2021-08-07T12:19:11.315Z</time>
      </trkpt>
      <trkpt lat="46.91295" lon="8.63226">
        <ele>658</ele>
        <time>2021-08-07T12:19:12.315Z</time>
      </trkpt>
      <trkpt lat="46.91294" lon="8.63223">
        <ele>658</ele>
        <time>2021-08-07T12:19:13.315Z</time>
      </trkpt>
      <trkpt lat="46.91295" lon="8.6322">
        <ele>658</ele>
        <time>2021-08-07T12:19:14.315Z</time>
      </trkpt>
      <trkpt lat="46.91297" lon="8.63219">
        <ele>658</ele>
        <time>2021-08-07T12:19:15.315Z</time>
      </trkpt>
      <trkpt lat="46.91299" lon="8.63219">
        <ele>658</ele>
        <time>2021-08-07T12:19:16.315Z</time>
      </trkpt>
      <trkpt lat="46.91301" lon="8.63219">
        <ele>658</ele>
        <time>2021-08-07T12:19:17.315Z</time>
      </trkpt>
      <trkpt lat="46.913" lon="8.63219">
        <ele>658</ele>
        <time>2021-08-07T12:19:25.450Z</time>
      </trkpt>
      <trkpt lat="46.91299" lon="8.6322">
        <ele>658</ele>
        <time>2021-08-07T12:19:35.313Z</time>
      </trkpt>
      <trkpt lat="46.91296" lon="8.63221">
        <ele>658</ele>
        <time>2021-08-07T12:19:36.313Z</time>
      </trkpt>
      <trkpt lat="46.91293" lon="8.63222">
        <ele>658</ele>
        <time>2021-08-07T12:19:37.312Z</time>
      </trkpt>
      <trkpt lat="46.9129" lon="8.63223">
        <ele>658</ele>
        <time>2021-08-07T12:19:38.313Z</time>
      </trkpt>
      <trkpt lat="46.91288" lon="8.63224">
        <ele>658</ele>
        <time>2021-08-07T12:19:39.313Z</time>
      </trkpt>
      <trkpt lat="46.91286" lon="8.63224">
        <ele>658</ele>
        <time>2021-08-07T12:19:40.313Z</time>
      </trkpt>
      <trkpt lat="46.91284" lon="8.63224">
        <ele>658</ele>
        <time>2021-08-07T12:19:41.313Z</time>
      </trkpt>
      <trkpt lat="46.91283" lon="8.63224">
        <ele>658</ele>
        <time>2021-08-07T12:19:42.313Z</time>
      </trkpt>
      <trkpt lat="46.91282" lon="8.63224">
        <ele>658</ele>
        <time>2021-08-07T12:19:43.312Z</time>
      </trkpt>
      <trkpt lat="46.91281" lon="8.63223">
        <ele>658</ele>
        <time>2021-08-07T12:19:44.312Z</time>
      </trkpt>
      <trkpt lat="46.91281" lon="8.63223">
        <ele>658</ele>
        <time>2021-08-07T12:19:54.479Z</time>
      </trkpt>
      <trkpt lat="46.91281" lon="8.63222">
        <ele>658</ele>
        <time>2021-08-07T12:19:55.479Z</time>
      </trkpt>
      <trkpt lat="46.91284" lon="8.63221">
        <ele>658</ele>
        <time>2021-08-07T12:19:56.479Z</time>
      </trkpt>
      <trkpt lat="46.9129" lon="8.6322">
        <ele>658</ele>
        <time>2021-08-07T12:19:57.478Z</time>
      </trkpt>
      <trkpt lat="46.91294" lon="8.6322">
        <ele>658</ele>
        <time>2021-08-07T12:19:58.479Z</time>
      </trkpt>
      <trkpt lat="46.91296" lon="8.63219">
        <ele>658</ele>
        <time>2021-08-07T12:19:59.479Z</time>
      </trkpt>
      <trkpt lat="46.91297" lon="8.63218">
        <ele>658</ele>
        <time>2021-08-07T12:20:00.478Z</time>
      </trkpt>
      <trkpt lat="46.913" lon="8.63217">
        <ele>658</ele>
        <time>2021-08-07T12:20:01.478Z</time>
      </trkpt>
      <trkpt lat="46.91302" lon="8.63214">
        <ele>658</ele>
        <time>2021-08-07T12:20:02.478Z</time>
      </trkpt>
      <trkpt lat="46.91296" lon="8.63213">
        <ele>658</ele>
        <time>2021-08-07T12:20:03.479Z</time>
      </trkpt>
      <trkpt lat="46.91298" lon="8.63212">
        <ele>657</ele>
        <time>2021-08-07T12:20:04.479Z</time>
      </trkpt>
      <trkpt lat="46.91302" lon="8.63212">
        <ele>657</ele>
        <time>2021-08-07T12:20:05.478Z</time>
      </trkpt>
      <trkpt lat="46.91306" lon="8.63212">
        <ele>657</ele>
        <time>2021-08-07T12:20:13.560Z</time>
      </trkpt>
      <trkpt lat="46.91305" lon="8.63211">
        <ele>657</ele>
        <time>2021-08-07T12:20:14.560Z</time>
      </trkpt>
      <trkpt lat="46.91307" lon="8.6321">
        <ele>657</ele>
        <time>2021-08-07T12:20:15.560Z</time>
      </trkpt>
      <trkpt lat="46.91307" lon="8.63208">
        <ele>658</ele>
        <time>2021-08-07T12:20:16.560Z</time>
      </trkpt>
      <trkpt lat="46.91305" lon="8.63205">
        <ele>658</ele>
        <time>2021-08-07T12:20:17.560Z</time>
      </trkpt>
      <trkpt lat="46.91304" lon="8.63205">
        <ele>658</ele>
        <time>2021-08-07T12:20:18.559Z</time>
      </trkpt>
      <trkpt lat="46.91302" lon="8.63205">
        <ele>658</ele>
        <time>2021-08-07T12:20:19.559Z</time>
      </trkpt>
      <trkpt lat="46.91302" lon="8.63206">
        <ele>658</ele>
        <time>2021-08-07T12:20:20.560Z</time>
      </trkpt>
      <trkpt lat="46.913" lon="8.63207">
        <ele>658</ele>
        <time>2021-08-07T12:20:21.559Z</time>
      </trkpt>
      <trkpt lat="46.91296" lon="8.63207">
        <ele>657</ele>
        <time>2021-08-07T12:20:22.559Z</time>
      </trkpt>
      <trkpt lat="46.91293" lon="8.63206">
        <ele>657</ele>
        <time>2021-08-07T12:20:23.560Z</time>
      </trkpt>
      <trkpt lat="46.9129" lon="8.63206">
        <ele>657</ele>
        <time>2021-08-07T12:20:24.559Z</time>
      </trkpt>
      <trkpt lat="46.91291" lon="8.63208">
        <ele>657</ele>
        <time>2021-08-07T12:20:25.559Z</time>
      </trkpt>
      <trkpt lat="46.91291" lon="8.63209">
        <ele>657</ele>
        <time>2021-08-07T12:20:26.559Z</time>
      </trkpt>
      <trkpt lat="46.9129" lon="8.63209">
        <ele>657</ele>
        <time>2021-08-07T12:20:27.559Z</time>
      </trkpt>
      <trkpt lat="46.91287" lon="8.63208">
        <ele>656</ele>
        <time>2021-08-07T12:20:28.559Z</time>
      </trkpt>
      <trkpt lat="46.91286" lon="8.63208">
        <ele>656</ele>
        <time>2021-08-07T12:20:29.560Z</time>
      </trkpt>
      <trkpt lat="46.91285" lon="8.63207">
        <ele>656</ele>
        <time>2021-08-07T12:20:30.560Z</time>
      </trkpt>
      <trkpt lat="46.91285" lon="8.63207">
        <ele>656</ele>
        <time>2021-08-07T12:20:31.559Z</time>
      </trkpt>
      <trkpt lat="46.91285" lon="8.63207">
        <ele>656</ele>
        <time>2021-08-07T12:20:32.559Z</time>
      </trkpt>
      <trkpt lat="46.91285" lon="8.63207">
        <ele>656</ele>
        <time>2021-08-07T12:20:33.560Z</time>
      </trkpt>
      <trkpt lat="46.91285" lon="8.63206">
        <ele>656</ele>
        <time>2021-08-07T12:20:34.560Z</time>
      </trkpt>
      <trkpt lat="46.91285" lon="8.63205">
        <ele>656</ele>
        <time>2021-08-07T12:20:35.560Z</time>
      </trkpt>
      <trkpt lat="46.91285" lon="8.63205">
        <ele>655</ele>
        <time>2021-08-07T12:20:36.559Z</time>
      </trkpt>
      <trkpt lat="46.91285" lon="8.63205">
        <ele>655</ele>
        <time>2021-08-07T12:20:43.694Z</time>
      </trkpt>
      <trkpt lat="46.91286" lon="8.63205">
        <ele>655</ele>
        <time>2021-08-07T12:20:44.693Z</time>
      </trkpt>
      <trkpt lat="46.91287" lon="8.63206">
        <ele>654</ele>
        <time>2021-08-07T12:20:45.694Z</time>
      </trkpt>
      <trkpt lat="46.91287" lon="8.63206">
        <ele>652</ele>
        <time>2021-08-07T12:20:52.804Z</time>
      </trkpt>
      <trkpt lat="46.91287" lon="8.63206">
        <ele>650</ele>
        <time>2021-08-07T12:20:53.804Z</time>
      </trkpt>
      <trkpt lat="46.91286" lon="8.63206">
        <ele>648</ele>
        <time>2021-08-07T12:20:54.804Z</time>
      </trkpt>
      <trkpt lat="46.91287" lon="8.63205">
        <ele>646</ele>
        <time>2021-08-07T12:20:55.803Z</time>
      </trkpt>
      <trkpt lat="46.91287" lon="8.63204">
        <ele>644</ele>
        <time>2021-08-07T12:20:56.804Z</time>
      </trkpt>
      <trkpt lat="46.91286" lon="8.63203">
        <ele>642</ele>
        <time>2021-08-07T12:20:57.803Z</time>
      </trkpt>
      <trkpt lat="46.91286" lon="8.63202">
        <ele>641</ele>
        <time>2021-08-07T12:20:58.803Z</time>
      </trkpt>
      <trkpt lat="46.91292" lon="8.632">
        <ele>637</ele>
        <time>2021-08-07T12:20:59.803Z</time>
      </trkpt>
      <trkpt lat="46.91293" lon="8.632">
        <ele>636</ele>
        <time>2021-08-07T12:21:00.804Z</time>
      </trkpt>
      <trkpt lat="46.91292" lon="8.632">
        <ele>635</ele>
        <time>2021-08-07T12:21:01.803Z</time>
      </trkpt>
      <trkpt lat="46.91291" lon="8.63202">
        <ele>634</ele>
        <time>2021-08-07T12:21:02.805Z</time>
      </trkpt>
      <trkpt lat="46.91291" lon="8.63203">
        <ele>633</ele>
        <time>2021-08-07T12:21:03.804Z</time>
      </trkpt>
      <trkpt lat="46.9129" lon="8.63203">
        <ele>633</ele>
        <time>2021-08-07T12:21:04.804Z</time>
      </trkpt>
      <trkpt lat="46.91289" lon="8.63203">
        <ele>632</ele>
        <time>2021-08-07T12:21:05.807Z</time>
      </trkpt>
      <trkpt lat="46.91289" lon="8.63203">
        <ele>631</ele>
        <time>2021-08-07T12:21:06.806Z</time>
      </trkpt>
      <trkpt lat="46.91288" lon="8.63203">
        <ele>631</ele>
        <time>2021-08-07T12:21:07.806Z</time>
      </trkpt>
      <trkpt lat="46.91288" lon="8.63203">
        <ele>630</ele>
        <time>2021-08-07T12:21:08.807Z</time>
      </trkpt>
      <trkpt lat="46.91288" lon="8.63203">
        <ele>630</ele>
        <time>2021-08-07T12:21:09.806Z</time>
      </trkpt>
      <trkpt lat="46.91288" lon="8.63202">
        <ele>630</ele>
        <time>2021-08-07T12:21:10.807Z</time>
      </trkpt>
      <trkpt lat="46.91287" lon="8.63203">
        <ele>629</ele>
        <time>2021-08-07T12:21:26.933Z</time>
      </trkpt>
      <trkpt lat="46.91286" lon="8.63205">
        <ele>629</ele>
        <time>2021-08-07T12:21:27.933Z</time>
      </trkpt>
      <trkpt lat="46.91284" lon="8.63206">
        <ele>629</ele>
        <time>2021-08-07T12:21:33.794Z</time>
      </trkpt>
      <trkpt lat="46.91284" lon="8.63205">
        <ele>629</ele>
        <time>2021-08-07T12:21:34.794Z</time>
      </trkpt>
      <trkpt lat="46.91283" lon="8.63203">
        <ele>629</ele>
        <time>2021-08-07T12:21:35.793Z</time>
      </trkpt>
      <trkpt lat="46.91284" lon="8.63202">
        <ele>628</ele>
        <time>2021-08-07T12:21:36.794Z</time>
      </trkpt>
      <trkpt lat="46.91284" lon="8.63201">
        <ele>628</ele>
        <time>2021-08-07T12:21:49.834Z</time>
      </trkpt>
      <trkpt lat="46.91284" lon="8.632">
        <ele>628</ele>
        <time>2021-08-07T12:21:50.834Z</time>
      </trkpt>
      <trkpt lat="46.91284" lon="8.63199">
        <ele>628</ele>
        <time>2021-08-07T12:21:59.706Z</time>
      </trkpt>
      <trkpt lat="46.91283" lon="8.63198">
        <ele>627</ele>
        <time>2021-08-07T12:22:00.707Z</time>
      </trkpt>
      <trkpt lat="46.91283" lon="8.63197">
        <ele>627</ele>
        <time>2021-08-07T12:22:01.706Z</time>
      </trkpt>
      <trkpt lat="46.91283" lon="8.63196">
        <ele>627</ele>
        <time>2021-08-07T12:22:02.707Z</time>
      </trkpt>
      <trkpt lat="46.91283" lon="8.63195">
        <ele>627</ele>
        <time>2021-08-07T12:22:03.706Z</time>
      </trkpt>
      <trkpt lat="46.91283" lon="8.63193">
        <ele>626</ele>
        <time>2021-08-07T12:22:04.707Z</time>
      </trkpt>
      <trkpt lat="46.91283" lon="8.63193">
        <ele>626</ele>
        <time>2021-08-07T12:22:43.857Z</time>
      </trkpt>
      <trkpt lat="46.91282" lon="8.63192">
        <ele>626</ele>
        <time>2021-08-07T12:22:44.857Z</time>
      </trkpt>
      <trkpt lat="46.91281" lon="8.6319">
        <ele>626</ele>
        <time>2021-08-07T12:22:45.857Z</time>
      </trkpt>
      <trkpt lat="46.91281" lon="8.63189">
        <ele>625</ele>
        <time>2021-08-07T12:22:46.856Z</time>
      </trkpt>
      <trkpt lat="46.9128" lon="8.63187">
        <ele>625</ele>
        <time>2021-08-07T12:23:01.928Z</time>
      </trkpt>
      <trkpt lat="46.91281" lon="8.63186">
        <ele>625</ele>
        <time>2021-08-07T12:23:02.929Z</time>
      </trkpt>
      <trkpt lat="46.91281" lon="8.63186">
        <ele>625</ele>
        <time>2021-08-07T12:23:03.928Z</time>
      </trkpt>
      <trkpt lat="46.91282" lon="8.63186">
        <ele>625</ele>
        <time>2021-08-07T12:23:04.929Z</time>
      </trkpt>
      <trkpt lat="46.91282" lon="8.63185">
        <ele>624</ele>
        <time>2021-08-07T12:23:05.928Z</time>
      </trkpt>
      <trkpt lat="46.91281" lon="8.63184">
        <ele>624</ele>
        <time>2021-08-07T12:23:11.073Z</time>
      </trkpt>
      <trkpt lat="46.91281" lon="8.63183">
        <ele>624</ele>
        <time>2021-08-07T12:23:12.074Z</time>
      </trkpt>
      <trkpt lat="46.91281" lon="8.63182">
        <ele>624</ele>
        <time>2021-08-07T12:23:13.074Z</time>
      </trkpt>
      <trkpt lat="46.9128" lon="8.63181">
        <ele>624</ele>
        <time>2021-08-07T12:23:14.074Z</time>
      </trkpt>
      <trkpt lat="46.9128" lon="8.6318">
        <ele>624</ele>
        <time>2021-08-07T12:23:15.073Z</time>
      </trkpt>
      <trkpt lat="46.9128" lon="8.63179">
        <ele>624</ele>
        <time>2021-08-07T12:23:16.074Z</time>
      </trkpt>
      <trkpt lat="46.9128" lon="8.63178">
        <ele>624</ele>
        <time>2021-08-07T12:23:17.074Z</time>
      </trkpt>
      <trkpt lat="46.9128" lon="8.63176">
        <ele>624</ele>
        <time>2021-08-07T12:23:18.074Z</time>
      </trkpt>
      <trkpt lat="46.91281" lon="8.63176">
        <ele>624</ele>
        <time>2021-08-07T12:23:19.074Z</time>
      </trkpt>
      <trkpt lat="46.91281" lon="8.63175">
        <ele>624</ele>
        <time>2021-08-07T12:23:20.073Z</time>
      </trkpt>
      <trkpt lat="46.91281" lon="8.63175">
        <ele>624</ele>
        <time>2021-08-07T12:23:21.074Z</time>
      </trkpt>
      <trkpt lat="46.91282" lon="8.63174">
        <ele>624</ele>
        <time>2021-08-07T12:23:22.073Z</time>
      </trkpt>
      <trkpt lat="46.91282" lon="8.63173">
        <ele>624</ele>
        <time>2021-08-07T12:23:23.074Z</time>
      </trkpt>
      <trkpt lat="46.91283" lon="8.63172">
        <ele>624</ele>
        <time>2021-08-07T12:23:24.074Z</time>
      </trkpt>
      <trkpt lat="46.91283" lon="8.63172">
        <ele>623</ele>
        <time>2021-08-07T12:23:25.074Z</time>
      </trkpt>
      <trkpt lat="46.91282" lon="8.63171">
        <ele>623</ele>
        <time>2021-08-07T12:23:26.074Z</time>
      </trkpt>
      <trkpt lat="46.91282" lon="8.6317">
        <ele>623</ele>
        <time>2021-08-07T12:23:27.073Z</time>
      </trkpt>
      <trkpt lat="46.91283" lon="8.63169">
        <ele>623</ele>
        <time>2021-08-07T12:23:28.074Z</time>
      </trkpt>
      <trkpt lat="46.91283" lon="8.63166">
        <ele>623</ele>
        <time>2021-08-07T12:23:29.074Z</time>
      </trkpt>
      <trkpt lat="46.91283" lon="8.63165">
        <ele>623</ele>
        <time>2021-08-07T12:23:30.074Z</time>
      </trkpt>
      <trkpt lat="46.91282" lon="8.63163">
        <ele>623</ele>
        <time>2021-08-07T12:23:31.073Z</time>
      </trkpt>
      <trkpt lat="46.91281" lon="8.63161">
        <ele>623</ele>
        <time>2021-08-07T12:23:32.074Z</time>
      </trkpt>
      <trkpt lat="46.91281" lon="8.63159">
        <ele>623</ele>
        <time>2021-08-07T12:23:33.074Z</time>
      </trkpt>
      <trkpt lat="46.91281" lon="8.63158">
        <ele>622</ele>
        <time>2021-08-07T12:23:34.073Z</time>
      </trkpt>
      <trkpt lat="46.91281" lon="8.63157">
        <ele>622</ele>
        <time>2021-08-07T12:23:35.073Z</time>
      </trkpt>
      <trkpt lat="46.91281" lon="8.63156">
        <ele>622</ele>
        <time>2021-08-07T12:23:36.074Z</time>
      </trkpt>
      <trkpt lat="46.91281" lon="8.63154">
        <ele>622</ele>
        <time>2021-08-07T12:23:38.152Z</time>
      </trkpt>
      <trkpt lat="46.91281" lon="8.63152">
        <ele>622</ele>
        <time>2021-08-07T12:23:39.153Z</time>
      </trkpt>
      <trkpt lat="46.91282" lon="8.63151">
        <ele>622</ele>
        <time>2021-08-07T12:23:40.152Z</time>
      </trkpt>
      <trkpt lat="46.91282" lon="8.63151">
        <ele>621</ele>
        <time>2021-08-07T12:23:41.153Z</time>
      </trkpt>
      <trkpt lat="46.91283" lon="8.63151">
        <ele>621</ele>
        <time>2021-08-07T12:23:42.153Z</time>
      </trkpt>
      <trkpt lat="46.91283" lon="8.63151">
        <ele>621</ele>
        <time>2021-08-07T12:23:43.152Z</time>
      </trkpt>
      <trkpt lat="46.91283" lon="8.63151">
        <ele>621</ele>
        <time>2021-08-07T12:23:44.152Z</time>
      </trkpt>
      <trkpt lat="46.91283" lon="8.6315">
        <ele>621</ele>
        <time>2021-08-07T12:23:45.152Z</time>
      </trkpt>
      <trkpt lat="46.91283" lon="8.63149">
        <ele>621</ele>
        <time>2021-08-07T12:23:46.153Z</time>
      </trkpt>
      <trkpt lat="46.91282" lon="8.63149">
        <ele>621</ele>
        <time>2021-08-07T12:23:47.152Z</time>
      </trkpt>
      <trkpt lat="46.91281" lon="8.63149">
        <ele>620</ele>
        <time>2021-08-07T12:23:48.153Z</time>
      </trkpt>
      <trkpt lat="46.91282" lon="8.63148">
        <ele>620</ele>
        <time>2021-08-07T12:23:49.153Z</time>
      </trkpt>
      <trkpt lat="46.91283" lon="8.63147">
        <ele>620</ele>
        <time>2021-08-07T12:23:50.152Z</time>
      </trkpt>
      <trkpt lat="46.91284" lon="8.63146">
        <ele>620</ele>
        <time>2021-08-07T12:23:51.152Z</time>
      </trkpt>
      <trkpt lat="46.91285" lon="8.63145">
        <ele>619</ele>
        <time>2021-08-07T12:23:52.152Z</time>
      </trkpt>
      <trkpt lat="46.91286" lon="8.63144">
        <ele>619</ele>
        <time>2021-08-07T12:23:53.152Z</time>
      </trkpt>
      <trkpt lat="46.91286" lon="8.63143">
        <ele>618</ele>
        <time>2021-08-07T12:23:54.152Z</time>
      </trkpt>
      <trkpt lat="46.91286" lon="8.63142">
        <ele>618</ele>
        <time>2021-08-07T12:23:55.152Z</time>
      </trkpt>
      <trkpt lat="46.91286" lon="8.63141">
        <ele>617</ele>
        <time>2021-08-07T12:23:58.942Z</time>
      </trkpt>
      <trkpt lat="46.91286" lon="8.6314">
        <ele>617</ele>
        <time>2021-08-07T12:23:59.942Z</time>
      </trkpt>
      <trkpt lat="46.91286" lon="8.63139">
        <ele>616</ele>
        <time>2021-08-07T12:24:00.942Z</time>
      </trkpt>
      <trkpt lat="46.91286" lon="8.63137">
        <ele>615</ele>
        <time>2021-08-07T12:24:01.942Z</time>
      </trkpt>
      <trkpt lat="46.91286" lon="8.63135">
        <ele>615</ele>
        <time>2021-08-07T12:24:02.942Z</time>
      </trkpt>
      <trkpt lat="46.91286" lon="8.63135">
        <ele>614</ele>
        <time>2021-08-07T12:24:03.943Z</time>
      </trkpt>
      <trkpt lat="46.91286" lon="8.63134">
        <ele>614</ele>
        <time>2021-08-07T12:24:04.942Z</time>
      </trkpt>
      <trkpt lat="46.91287" lon="8.63134">
        <ele>613</ele>
        <time>2021-08-07T12:24:05.943Z</time>
      </trkpt>
      <trkpt lat="46.91286" lon="8.63133">
        <ele>612</ele>
        <time>2021-08-07T12:24:06.943Z</time>
      </trkpt>
      <trkpt lat="46.91286" lon="8.63133">
        <ele>611</ele>
        <time>2021-08-07T12:24:07.942Z</time>
      </trkpt>
      <trkpt lat="46.91286" lon="8.63132">
        <ele>611</ele>
        <time>2021-08-07T12:24:08.943Z</time>
      </trkpt>
      <trkpt lat="46.91286" lon="8.63132">
        <ele>610</ele>
        <time>2021-08-07T12:24:09.943Z</time>
      </trkpt>
      <trkpt lat="46.91286" lon="8.63131">
        <ele>609</ele>
        <time>2021-08-07T12:24:15.936Z</time>
      </trkpt>
      <trkpt lat="46.91286" lon="8.63129">
        <ele>609</ele>
        <time>2021-08-07T12:24:16.936Z</time>
      </trkpt>
      <trkpt lat="46.91286" lon="8.63127">
        <ele>608</ele>
        <time>2021-08-07T12:24:21.814Z</time>
      </trkpt>
      <trkpt lat="46.91287" lon="8.63126">
        <ele>608</ele>
        <time>2021-08-07T12:24:22.815Z</time>
      </trkpt>
      <trkpt lat="46.91287" lon="8.63125">
        <ele>607</ele>
        <time>2021-08-07T12:24:23.815Z</time>
      </trkpt>
      <trkpt lat="46.91286" lon="8.63122">
        <ele>607</ele>
        <time>2021-08-07T12:24:27.814Z</time>
      </trkpt>
      <trkpt lat="46.91286" lon="8.63122">
        <ele>607</ele>
        <time>2021-08-07T12:24:28.815Z</time>
      </trkpt>
      <trkpt lat="46.91286" lon="8.63122">
        <ele>606</ele>
        <time>2021-08-07T12:24:29.814Z</time>
      </trkpt>
      <trkpt lat="46.91286" lon="8.63123">
        <ele>606</ele>
        <time>2021-08-07T12:24:48.552Z</time>
      </trkpt>
      <trkpt lat="46.91286" lon="8.63124">
        <ele>606</ele>
        <time>2021-08-07T12:25:00.313Z</time>
      </trkpt>
      <trkpt lat="46.91286" lon="8.63125">
        <ele>605</ele>
        <time>2021-08-07T12:25:01.313Z</time>
      </trkpt>
      <trkpt lat="46.91286" lon="8.63126">
        <ele>605</ele>
        <time>2021-08-07T12:25:02.313Z</time>
      </trkpt>
      <trkpt lat="46.91286" lon="8.63126">
        <ele>604</ele>
        <time>2021-08-07T12:25:06.432Z</time>
      </trkpt>
      <trkpt lat="46.91286" lon="8.63127">
        <ele>604</ele>
        <time>2021-08-07T12:25:07.431Z</time>
      </trkpt>
      <trkpt lat="46.91286" lon="8.63127">
        <ele>604</ele>
        <time>2021-08-07T12:25:23.187Z</time>
      </trkpt>
      <trkpt lat="46.91286" lon="8.63126">
        <ele>603</ele>
        <time>2021-08-07T12:25:24.186Z</time>
      </trkpt>
      <trkpt lat="46.91286" lon="8.63127">
        <ele>603</ele>
        <time>2021-08-07T12:25:25.187Z</time>
      </trkpt>
      <trkpt lat="46.91284" lon="8.63128">
        <ele>602</ele>
        <time>2021-08-07T12:25:26.187Z</time>
      </trkpt>
      <trkpt lat="46.91282" lon="8.63128">
        <ele>602</ele>
        <time>2021-08-07T12:25:52.329Z</time>
      </trkpt>
      <trkpt lat="46.91281" lon="8.63128">
        <ele>602</ele>
        <time>2021-08-07T12:25:53.329Z</time>
      </trkpt>
      <trkpt lat="46.91281" lon="8.63128">
        <ele>602</ele>
        <time>2021-08-07T12:25:56.166Z</time>
      </trkpt>
      <trkpt lat="46.91281" lon="8.63129">
        <ele>602</ele>
        <time>2021-08-07T12:25:57.166Z</time>
      </trkpt>
      <trkpt lat="46.91282" lon="8.63129">
        <ele>602</ele>
        <time>2021-08-07T12:25:58.167Z</time>
      </trkpt>
      <trkpt lat="46.91282" lon="8.6313">
        <ele>602</ele>
        <time>2021-08-07T12:26:02.331Z</time>
      </trkpt>
      <trkpt lat="46.91283" lon="8.63131">
        <ele>602</ele>
        <time>2021-08-07T12:26:03.330Z</time>
      </trkpt>
      <trkpt lat="46.91284" lon="8.63132">
        <ele>602</ele>
        <time>2021-08-07T12:26:04.330Z</time>
      </trkpt>
      <trkpt lat="46.91284" lon="8.63132">
        <ele>602</ele>
        <time>2021-08-07T12:26:05.330Z</time>
      </trkpt>
      <trkpt lat="46.91285" lon="8.63133">
        <ele>602</ele>
        <time>2021-08-07T12:26:06.330Z</time>
      </trkpt>
      <trkpt lat="46.91287" lon="8.63133">
        <ele>602</ele>
        <time>2021-08-07T12:26:07.331Z</time>
      </trkpt>
      <trkpt lat="46.91288" lon="8.63134">
        <ele>602</ele>
        <time>2021-08-07T12:26:08.330Z</time>
      </trkpt>
      <trkpt lat="46.91288" lon="8.63134">
        <ele>602</ele>
        <time>2021-08-07T12:26:09.330Z</time>
      </trkpt>
      <trkpt lat="46.91289" lon="8.63134">
        <ele>601</ele>
        <time>2021-08-07T12:26:10.330Z</time>
      </trkpt>
      <trkpt lat="46.91291" lon="8.63135">
        <ele>601</ele>
        <time>2021-08-07T12:26:11.331Z</time>
      </trkpt>
      <trkpt lat="46.91293" lon="8.63137">
        <ele>601</ele>
        <time>2021-08-07T12:26:12.331Z</time>
      </trkpt>
      <trkpt lat="46.91294" lon="8.63137">
        <ele>601</ele>
        <time>2021-08-07T12:26:13.331Z</time>
      </trkpt>
      <trkpt lat="46.91293" lon="8.63135">
        <ele>601</ele>
        <time>2021-08-07T12:26:14.331Z</time>
      </trkpt>
      <trkpt lat="46.91293" lon="8.63135">
        <ele>601</ele>
        <time>2021-08-07T12:26:15.331Z</time>
      </trkpt>
      <trkpt lat="46.91292" lon="8.63134">
        <ele>601</ele>
        <time>2021-08-07T12:26:16.330Z</time>
      </trkpt>
      <trkpt lat="46.91292" lon="8.63133">
        <ele>601</ele>
        <time>2021-08-07T12:26:17.330Z</time>
      </trkpt>
      <trkpt lat="46.91291" lon="8.63132">
        <ele>601</ele>
        <time>2021-08-07T12:26:18.330Z</time>
      </trkpt>
      <trkpt lat="46.9129" lon="8.6313">
        <ele>601</ele>
        <time>2021-08-07T12:26:19.331Z</time>
      </trkpt>
      <trkpt lat="46.91289" lon="8.63129">
        <ele>601</ele>
        <time>2021-08-07T12:26:20.331Z</time>
      </trkpt>
      <trkpt lat="46.91288" lon="8.63128">
        <ele>601</ele>
        <time>2021-08-07T12:26:21.331Z</time>
      </trkpt>
      <trkpt lat="46.91288" lon="8.63126">
        <ele>601</ele>
        <time>2021-08-07T12:26:22.331Z</time>
      </trkpt>
      <trkpt lat="46.91288" lon="8.63125">
        <ele>601</ele>
        <time>2021-08-07T12:26:23.331Z</time>
      </trkpt>
      <trkpt lat="46.91287" lon="8.63126">
        <ele>601</ele>
        <time>2021-08-07T12:26:24.331Z</time>
      </trkpt>
      <trkpt lat="46.91285" lon="8.63126">
        <ele>601</ele>
        <time>2021-08-07T12:26:25.330Z</time>
      </trkpt>
      <trkpt lat="46.91284" lon="8.63125">
        <ele>600</ele>
        <time>2021-08-07T12:26:26.330Z</time>
      </trkpt>
      <trkpt lat="46.91284" lon="8.63123">
        <ele>600</ele>
        <time>2021-08-07T12:26:27.330Z</time>
      </trkpt>
      <trkpt lat="46.91284" lon="8.63121">
        <ele>600</ele>
        <time>2021-08-07T12:26:28.331Z</time>
      </trkpt>
      <trkpt lat="46.91284" lon="8.6312">
        <ele>600</ele>
        <time>2021-08-07T12:26:29.331Z</time>
      </trkpt>
      <trkpt lat="46.91285" lon="8.63118">
        <ele>600</ele>
        <time>2021-08-07T12:27:11.440Z</time>
      </trkpt>
      <trkpt lat="46.91286" lon="8.63117">
        <ele>600</ele>
        <time>2021-08-07T12:27:12.439Z</time>
      </trkpt>
      <trkpt lat="46.91286" lon="8.63117">
        <ele>600</ele>
        <time>2021-08-07T12:27:13.440Z</time>
      </trkpt>
      <trkpt lat="46.91286" lon="8.63115">
        <ele>600</ele>
        <time>2021-08-07T12:27:14.440Z</time>
      </trkpt>
      <trkpt lat="46.91286" lon="8.63114">
        <ele>600</ele>
        <time>2021-08-07T12:27:15.440Z</time>
      </trkpt>
      <trkpt lat="46.91286" lon="8.63113">
        <ele>600</ele>
        <time>2021-08-07T12:27:16.439Z</time>
      </trkpt>
      <trkpt lat="46.91286" lon="8.63113">
        <ele>600</ele>
        <time>2021-08-07T12:27:31.579Z</time>
      </trkpt>
      <trkpt lat="46.91287" lon="8.63113">
        <ele>601</ele>
        <time>2021-08-07T12:27:32.579Z</time>
      </trkpt>
      <trkpt lat="46.91287" lon="8.63112">
        <ele>601</ele>
        <time>2021-08-07T12:27:33.579Z</time>
      </trkpt>
      <trkpt lat="46.91287" lon="8.63112">
        <ele>601</ele>
        <time>2021-08-07T12:28:06.692Z</time>
      </trkpt>
      <trkpt lat="46.91287" lon="8.63113">
        <ele>601</ele>
        <time>2021-08-07T12:28:07.692Z</time>
      </trkpt>
      <trkpt lat="46.91286" lon="8.63112">
        <ele>601</ele>
        <time>2021-08-07T12:28:30.697Z</time>
      </trkpt>
      <trkpt lat="46.91286" lon="8.63112">
        <ele>601</ele>
        <time>2021-08-07T12:28:31.696Z</time>
      </trkpt>
      <trkpt lat="46.91286" lon="8.6311">
        <ele>601</ele>
        <time>2021-08-07T12:28:50.852Z</time>
      </trkpt>
      <trkpt lat="46.91284" lon="8.6311">
        <ele>601</ele>
        <time>2021-08-07T12:28:51.852Z</time>
      </trkpt>
      <trkpt lat="46.91281" lon="8.63112">
        <ele>601</ele>
        <time>2021-08-07T12:28:53.852Z</time>
      </trkpt>
      <trkpt lat="46.91281" lon="8.63115">
        <ele>601</ele>
        <time>2021-08-07T12:29:06.917Z</time>
      </trkpt>
      <trkpt lat="46.91282" lon="8.63116">
        <ele>601</ele>
        <time>2021-08-07T12:29:07.918Z</time>
      </trkpt>
      <trkpt lat="46.91282" lon="8.63115">
        <ele>601</ele>
        <time>2021-08-07T12:29:08.917Z</time>
      </trkpt>
      <trkpt lat="46.91283" lon="8.63114">
        <ele>601</ele>
        <time>2021-08-07T12:29:09.917Z</time>
      </trkpt>
      <trkpt lat="46.91285" lon="8.63111">
        <ele>601</ele>
        <time>2021-08-07T12:29:10.917Z</time>
      </trkpt>
      <trkpt lat="46.91284" lon="8.6311">
        <ele>602</ele>
        <time>2021-08-07T12:29:11.918Z</time>
      </trkpt>
      <trkpt lat="46.91284" lon="8.63111">
        <ele>602</ele>
        <time>2021-08-07T12:29:21.065Z</time>
      </trkpt>
      <trkpt lat="46.91283" lon="8.63112">
        <ele>602</ele>
        <time>2021-08-07T12:29:22.064Z</time>
      </trkpt>
      <trkpt lat="46.91283" lon="8.63113">
        <ele>602</ele>
        <time>2021-08-07T12:29:23.065Z</time>
      </trkpt>
      <trkpt lat="46.91283" lon="8.63114">
        <ele>602</ele>
        <time>2021-08-07T12:29:25.220Z</time>
      </trkpt>
      <trkpt lat="46.91283" lon="8.63116">
        <ele>602</ele>
        <time>2021-08-07T12:29:26.219Z</time>
      </trkpt>
      <trkpt lat="46.91283" lon="8.63118">
        <ele>602</ele>
        <time>2021-08-07T12:29:27.220Z</time>
      </trkpt>
      <trkpt lat="46.91283" lon="8.6312">
        <ele>602</ele>
        <time>2021-08-07T12:29:28.220Z</time>
      </trkpt>
      <trkpt lat="46.91283" lon="8.63122">
        <ele>602</ele>
        <time>2021-08-07T12:29:53.300Z</time>
      </trkpt>
      <trkpt lat="46.91283" lon="8.63124">
        <ele>603</ele>
        <time>2021-08-07T12:29:54.299Z</time>
      </trkpt>
      <trkpt lat="46.91284" lon="8.63125">
        <ele>603</ele>
        <time>2021-08-07T12:29:55.299Z</time>
      </trkpt>
      <trkpt lat="46.91284" lon="8.63125">
        <ele>603</ele>
        <time>2021-08-07T12:30:03.409Z</time>
      </trkpt>
      <trkpt lat="46.91284" lon="8.63125">
        <ele>603</ele>
        <time>2021-08-07T12:30:04.408Z</time>
      </trkpt>
      <trkpt lat="46.91283" lon="8.63123">
        <ele>603</ele>
        <time>2021-08-07T12:30:05.408Z</time>
      </trkpt>
      <trkpt lat="46.91282" lon="8.63121">
        <ele>603</ele>
        <time>2021-08-07T12:30:06.409Z</time>
      </trkpt>
      <trkpt lat="46.91281" lon="8.63119">
        <ele>603</ele>
        <time>2021-08-07T12:30:07.409Z</time>
      </trkpt>
      <trkpt lat="46.91281" lon="8.63117">
        <ele>603</ele>
        <time>2021-08-07T12:30:08.409Z</time>
      </trkpt>
      <trkpt lat="46.91282" lon="8.63116">
        <ele>603</ele>
        <time>2021-08-07T12:30:09.409Z</time>
      </trkpt>
      <trkpt lat="46.91281" lon="8.63114">
        <ele>603</ele>
        <time>2021-08-07T12:30:17.534Z</time>
      </trkpt>
      <trkpt lat="46.91281" lon="8.63113">
        <ele>604</ele>
        <time>2021-08-07T12:30:18.535Z</time>
      </trkpt>
      <trkpt lat="46.91281" lon="8.63112">
        <ele>604</ele>
        <time>2021-08-07T12:30:29.301Z</time>
      </trkpt>
      <trkpt lat="46.91282" lon="8.63109">
        <ele>604</ele>
        <time>2021-08-07T12:30:30.301Z</time>
      </trkpt>
      <trkpt lat="46.91283" lon="8.63106">
        <ele>605</ele>
        <time>2021-08-07T12:30:31.301Z</time>
      </trkpt>
      <trkpt lat="46.91283" lon="8.63105">
        <ele>605</ele>
        <time>2021-08-07T12:30:32.301Z</time>
      </trkpt>
      <trkpt lat="46.91284" lon="8.63106">
        <ele>606</ele>
        <time>2021-08-07T12:30:48.448Z</time>
      </trkpt>
      <trkpt lat="46.91285" lon="8.63105">
        <ele>606</ele>
        <time>2021-08-07T12:30:49.449Z</time>
      </trkpt>
      <trkpt lat="46.91285" lon="8.63104">
        <ele>606</ele>
        <time>2021-08-07T12:30:53.286Z</time>
      </trkpt>
      <trkpt lat="46.91286" lon="8.63103">
        <ele>606</ele>
        <time>2021-08-07T12:30:54.287Z</time>
      </trkpt>
      <trkpt lat="46.91285" lon="8.63101">
        <ele>606</ele>
        <time>2021-08-07T12:31:10.177Z</time>
      </trkpt>
      <trkpt lat="46.91283" lon="8.63099">
        <ele>606</ele>
        <time>2021-08-07T12:31:11.177Z</time>
      </trkpt>
      <trkpt lat="46.91282" lon="8.63098">
        <ele>606</ele>
        <time>2021-08-07T12:31:13.036Z</time>
      </trkpt>
      <trkpt lat="46.91281" lon="8.63099">
        <ele>605</ele>
        <time>2021-08-07T12:31:14.036Z</time>
      </trkpt>
      <trkpt lat="46.91282" lon="8.631">
        <ele>605</ele>
        <time>2021-08-07T12:31:15.035Z</time>
      </trkpt>
      <trkpt lat="46.91282" lon="8.631">
        <ele>604</ele>
        <time>2021-08-07T12:31:16.036Z</time>
      </trkpt>
      <trkpt lat="46.91282" lon="8.63099">
        <ele>604</ele>
        <time>2021-08-07T12:31:17.035Z</time>
      </trkpt>
      <trkpt lat="46.91282" lon="8.63099">
        <ele>603</ele>
        <time>2021-08-07T12:31:24.160Z</time>
      </trkpt>
      <trkpt lat="46.91283" lon="8.631">
        <ele>603</ele>
        <time>2021-08-07T12:31:25.160Z</time>
      </trkpt>
      <trkpt lat="46.91284" lon="8.63103">
        <ele>603</ele>
        <time>2021-08-07T12:31:26.160Z</time>
      </trkpt>
      <trkpt lat="46.91285" lon="8.63106">
        <ele>603</ele>
        <time>2021-08-07T12:31:46.309Z</time>
      </trkpt>
      <trkpt lat="46.91284" lon="8.63107">
        <ele>602</ele>
        <time>2021-08-07T12:31:47.308Z</time>
      </trkpt>
      <trkpt lat="46.91284" lon="8.63108">
        <ele>602</ele>
        <time>2021-08-07T12:31:48.308Z</time>
      </trkpt>
      <trkpt lat="46.91284" lon="8.63107">
        <ele>602</ele>
        <time>2021-08-07T12:31:59.430Z</time>
      </trkpt>
      <trkpt lat="46.91284" lon="8.63106">
        <ele>602</ele>
        <time>2021-08-07T12:32:00.430Z</time>
      </trkpt>
      <trkpt lat="46.91286" lon="8.63106">
        <ele>602</ele>
        <time>2021-08-07T12:32:01.430Z</time>
      </trkpt>
      <trkpt lat="46.91288" lon="8.63107">
        <ele>602</ele>
        <time>2021-08-07T12:32:02.430Z</time>
      </trkpt>
      <trkpt lat="46.91289" lon="8.63108">
        <ele>602</ele>
        <time>2021-08-07T12:32:14.551Z</time>
      </trkpt>
      <trkpt lat="46.91288" lon="8.63107">
        <ele>601</ele>
        <time>2021-08-07T12:32:15.551Z</time>
      </trkpt>
      <trkpt lat="46.91288" lon="8.63107">
        <ele>601</ele>
        <time>2021-08-07T12:32:16.552Z</time>
      </trkpt>
      <trkpt lat="46.91287" lon="8.63107">
        <ele>600</ele>
        <time>2021-08-07T12:32:39.678Z</time>
      </trkpt>
      <trkpt lat="46.91287" lon="8.63107">
        <ele>600</ele>
        <time>2021-08-07T12:32:40.679Z</time>
      </trkpt>
      <trkpt lat="46.91286" lon="8.63107">
        <ele>600</ele>
        <time>2021-08-07T12:32:41.678Z</time>
      </trkpt>
      <trkpt lat="46.91287" lon="8.63108">
        <ele>599</ele>
        <time>2021-08-07T12:32:42.679Z</time>
      </trkpt>
      <trkpt lat="46.91287" lon="8.63108">
        <ele>599</ele>
        <time>2021-08-07T12:32:43.679Z</time>
      </trkpt>
      <trkpt lat="46.91287" lon="8.63108">
        <ele>599</ele>
        <time>2021-08-07T12:32:44.679Z</time>
      </trkpt>
      <trkpt lat="46.91286" lon="8.63108">
        <ele>598</ele>
        <time>2021-08-07T12:32:45.680Z</time>
      </trkpt>
      <trkpt lat="46.91286" lon="8.63108">
        <ele>598</ele>
        <time>2021-08-07T12:32:46.680Z</time>
      </trkpt>
      <trkpt lat="46.91285" lon="8.63108">
        <ele>597</ele>
        <time>2021-08-07T12:32:47.680Z</time>
      </trkpt>
      <trkpt lat="46.91284" lon="8.63109">
        <ele>597</ele>
        <time>2021-08-07T12:32:54.780Z</time>
      </trkpt>
      <trkpt lat="46.91283" lon="8.63109">
        <ele>597</ele>
        <time>2021-08-07T12:32:55.780Z</time>
      </trkpt>
      <trkpt lat="46.91283" lon="8.63109">
        <ele>596</ele>
        <time>2021-08-07T12:32:56.780Z</time>
      </trkpt>
      <trkpt lat="46.91282" lon="8.6311">
        <ele>596</ele>
        <time>2021-08-07T12:33:06.655Z</time>
      </trkpt>
      <trkpt lat="46.91281" lon="8.6311">
        <ele>596</ele>
        <time>2021-08-07T12:33:24.440Z</time>
      </trkpt>
      <trkpt lat="46.91281" lon="8.6311">
        <ele>596</ele>
        <time>2021-08-07T12:33:25.440Z</time>
      </trkpt>
      <trkpt lat="46.91281" lon="8.63112">
        <ele>596</ele>
        <time>2021-08-07T12:33:26.440Z</time>
      </trkpt>
      <trkpt lat="46.91283" lon="8.63113">
        <ele>595</ele>
        <time>2021-08-07T12:33:36.552Z</time>
      </trkpt>
      <trkpt lat="46.91284" lon="8.63114">
        <ele>595</ele>
        <time>2021-08-07T12:33:37.552Z</time>
      </trkpt>
      <trkpt lat="46.91284" lon="8.63115">
        <ele>595</ele>
        <time>2021-08-07T12:33:38.551Z</time>
      </trkpt>
      <trkpt lat="46.91284" lon="8.63116">
        <ele>595</ele>
        <time>2021-08-07T12:33:39.551Z</time>
      </trkpt>
      <trkpt lat="46.91285" lon="8.63115">
        <ele>595</ele>
        <time>2021-08-07T12:33:40.552Z</time>
      </trkpt>
      <trkpt lat="46.91285" lon="8.63114">
        <ele>595</ele>
        <time>2021-08-07T12:33:47.671Z</time>
      </trkpt>
      <trkpt lat="46.91285" lon="8.63114">
        <ele>595</ele>
        <time>2021-08-07T12:33:48.671Z</time>
      </trkpt>
      <trkpt lat="46.91285" lon="8.63115">
        <ele>595</ele>
        <time>2021-08-07T12:33:56.781Z</time>
      </trkpt>
      <trkpt lat="46.91285" lon="8.63118">
        <ele>594</ele>
        <time>2021-08-07T12:33:57.781Z</time>
      </trkpt>
      <trkpt lat="46.91286" lon="8.63121">
        <ele>594</ele>
        <time>2021-08-07T12:33:58.781Z</time>
      </trkpt>
      <trkpt lat="46.91288" lon="8.63124">
        <ele>594</ele>
        <time>2021-08-07T12:34:31.552Z</time>
      </trkpt>
      <trkpt lat="46.91288" lon="8.63124">
        <ele>593</ele>
        <time>2021-08-07T12:34:32.552Z</time>
      </trkpt>
      <trkpt lat="46.91289" lon="8.63124">
        <ele>593</ele>
        <time>2021-08-07T12:34:33.551Z</time>
      </trkpt>
      <trkpt lat="46.9129" lon="8.63124">
        <ele>592</ele>
        <time>2021-08-07T12:34:40.655Z</time>
      </trkpt>
      <trkpt lat="46.9129" lon="8.63124">
        <ele>592</ele>
        <time>2021-08-07T12:34:41.655Z</time>
      </trkpt>
      <trkpt lat="46.91291" lon="8.63124">
        <ele>591</ele>
        <time>2021-08-07T12:35:10.428Z</time>
      </trkpt>
      <trkpt lat="46.9129" lon="8.63124">
        <ele>591</ele>
        <time>2021-08-07T12:35:11.427Z</time>
      </trkpt>
      <trkpt lat="46.9129" lon="8.63123">
        <ele>590</ele>
        <time>2021-08-07T12:35:12.427Z</time>
      </trkpt>
      <trkpt lat="46.9129" lon="8.63125">
        <ele>590</ele>
        <time>2021-08-07T12:35:23.546Z</time>
      </trkpt>
      <trkpt lat="46.91289" lon="8.63127">
        <ele>589</ele>
        <time>2021-08-07T12:35:24.546Z</time>
      </trkpt>
      <trkpt lat="46.91288" lon="8.63127">
        <ele>589</ele>
        <time>2021-08-07T12:35:25.546Z</time>
      </trkpt>
      <trkpt lat="46.91287" lon="8.63129">
        <ele>589</ele>
        <time>2021-08-07T12:35:26.546Z</time>
      </trkpt>
      <trkpt lat="46.91286" lon="8.63131">
        <ele>588</ele>
        <time>2021-08-07T12:35:30.565Z</time>
      </trkpt>
      <trkpt lat="46.91285" lon="8.63135">
        <ele>588</ele>
        <time>2021-08-07T12:35:31.565Z</time>
      </trkpt>
      <trkpt lat="46.91285" lon="8.63137">
        <ele>588</ele>
        <time>2021-08-07T12:35:32.565Z</time>
      </trkpt>
      <trkpt lat="46.91284" lon="8.63139">
        <ele>588</ele>
        <time>2021-08-07T12:35:39.657Z</time>
      </trkpt>
      <trkpt lat="46.91285" lon="8.6314">
        <ele>588</ele>
        <time>2021-08-07T12:35:40.657Z</time>
      </trkpt>
      <trkpt lat="46.91285" lon="8.63139">
        <ele>588</ele>
        <time>2021-08-07T12:35:41.657Z</time>
      </trkpt>
      <trkpt lat="46.91285" lon="8.63139">
        <ele>587</ele>
        <time>2021-08-07T12:35:42.657Z</time>
      </trkpt>
      <trkpt lat="46.91284" lon="8.6314">
        <ele>587</ele>
        <time>2021-08-07T12:35:43.657Z</time>
      </trkpt>
      <trkpt lat="46.91283" lon="8.63141">
        <ele>587</ele>
        <time>2021-08-07T12:35:44.657Z</time>
      </trkpt>
      <trkpt lat="46.91281" lon="8.63142">
        <ele>587</ele>
        <time>2021-08-07T12:35:45.656Z</time>
      </trkpt>
      <trkpt lat="46.9128" lon="8.63144">
        <ele>587</ele>
        <time>2021-08-07T12:35:46.656Z</time>
      </trkpt>
      <trkpt lat="46.91279" lon="8.63147">
        <ele>586</ele>
        <time>2021-08-07T12:35:47.657Z</time>
      </trkpt>
      <trkpt lat="46.91277" lon="8.63152">
        <ele>586</ele>
        <time>2021-08-07T12:36:12.803Z</time>
      </trkpt>
      <trkpt lat="46.91274" lon="8.63156">
        <ele>586</ele>
        <time>2021-08-07T12:36:13.803Z</time>
      </trkpt>
      <trkpt lat="46.91273" lon="8.63156">
        <ele>586</ele>
        <time>2021-08-07T12:36:14.803Z</time>
      </trkpt>
      <trkpt lat="46.91273" lon="8.63153">
        <ele>586</ele>
        <time>2021-08-07T12:36:23.927Z</time>
      </trkpt>
      <trkpt lat="46.91274" lon="8.63151">
        <ele>585</ele>
        <time>2021-08-07T12:36:25.779Z</time>
      </trkpt>
      <trkpt lat="46.91276" lon="8.63149">
        <ele>585</ele>
        <time>2021-08-07T12:36:26.779Z</time>
      </trkpt>
      <trkpt lat="46.91277" lon="8.6315">
        <ele>585</ele>
        <time>2021-08-07T12:36:53.536Z</time>
      </trkpt>
      <trkpt lat="46.91278" lon="8.6315">
        <ele>585</ele>
        <time>2021-08-07T12:36:54.535Z</time>
      </trkpt>
      <trkpt lat="46.91279" lon="8.6315">
        <ele>585</ele>
        <time>2021-08-07T12:37:51.433Z</time>
      </trkpt>
      <trkpt lat="46.9128" lon="8.63151">
        <ele>585</ele>
        <time>2021-08-07T12:37:52.432Z</time>
      </trkpt>
      <trkpt lat="46.91282" lon="8.63151">
        <ele>585</ele>
        <time>2021-08-07T12:37:53.433Z</time>
      </trkpt>
      <trkpt lat="46.91283" lon="8.63151">
        <ele>585</ele>
        <time>2021-08-07T12:38:40.552Z</time>
      </trkpt>
      <trkpt lat="46.91284" lon="8.63151">
        <ele>585</ele>
        <time>2021-08-07T12:38:41.553Z</time>
      </trkpt>
      <trkpt lat="46.91285" lon="8.63151">
        <ele>585</ele>
        <time>2021-08-07T12:38:42.552Z</time>
      </trkpt>
      <trkpt lat="46.91284" lon="8.63149">
        <ele>585</ele>
        <time>2021-08-07T12:39:21.655Z</time>
      </trkpt>
      <trkpt lat="46.91284" lon="8.63148">
        <ele>585</ele>
        <time>2021-08-07T12:39:33.541Z</time>
      </trkpt>
      <trkpt lat="46.91285" lon="8.63147">
        <ele>585</ele>
        <time>2021-08-07T12:39:34.540Z</time>
      </trkpt>
      <trkpt lat="46.91285" lon="8.63146">
        <ele>585</ele>
        <time>2021-08-07T12:39:35.541Z</time>
      </trkpt>
      <trkpt lat="46.91285" lon="8.63142">
        <ele>585</ele>
        <time>2021-08-07T12:39:36.541Z</time>
      </trkpt>
      <trkpt lat="46.91285" lon="8.63137">
        <ele>585</ele>
        <time>2021-08-07T12:39:37.540Z</time>
      </trkpt>
      <trkpt lat="46.91284" lon="8.63132">
        <ele>585</ele>
        <time>2021-08-07T12:39:38.541Z</time>
      </trkpt>
      <trkpt lat="46.91283" lon="8.63126">
        <ele>585</ele>
        <time>2021-08-07T12:39:39.541Z</time>
      </trkpt>
      <trkpt lat="46.91282" lon="8.63121">
        <ele>585</ele>
        <time>2021-08-07T12:39:40.540Z</time>
      </trkpt>
      <trkpt lat="46.91281" lon="8.63117">
        <ele>585</ele>
        <time>2021-08-07T12:39:41.540Z</time>
      </trkpt>
      <trkpt lat="46.9128" lon="8.63113">
        <ele>585</ele>
        <time>2021-08-07T12:39:42.541Z</time>
      </trkpt>
      <trkpt lat="46.91277" lon="8.63103">
        <ele>585</ele>
        <time>2021-08-07T12:39:44.540Z</time>
      </trkpt>
      <trkpt lat="46.91276" lon="8.63099">
        <ele>586</ele>
        <time>2021-08-07T12:39:52.668Z</time>
      </trkpt>
      <trkpt lat="46.91275" lon="8.63094">
        <ele>586</ele>
        <time>2021-08-07T12:39:53.668Z</time>
      </trkpt>
      <trkpt lat="46.91271" lon="8.63081">
        <ele>586</ele>
        <time>2021-08-07T12:40:32.270Z</time>
      </trkpt>
      <trkpt lat="46.91268" lon="8.63057">
        <ele>586</ele>
        <time>2021-08-07T12:41:06.188Z</time>
      </trkpt>
      <trkpt lat="46.91272" lon="8.63065">
        <ele>586</ele>
        <time>2021-08-07T12:41:07.188Z</time>
      </trkpt>
      <trkpt lat="46.91275" lon="8.63067">
        <ele>585</ele>
        <time>2021-08-07T12:41:08.188Z</time>
      </trkpt>
      <trkpt lat="46.91275" lon="8.63071">
        <ele>585</ele>
        <time>2021-08-07T12:41:09.188Z</time>
      </trkpt>
      <trkpt lat="46.91276" lon="8.63074">
        <ele>583</ele>
        <time>2021-08-07T12:41:29.334Z</time>
      </trkpt>
      <trkpt lat="46.91275" lon="8.63072">
        <ele>583</ele>
        <time>2021-08-07T12:41:38.161Z</time>
      </trkpt>
      <trkpt lat="46.91276" lon="8.63073">
        <ele>584</ele>
        <time>2021-08-07T12:41:39.162Z</time>
      </trkpt>
      <trkpt lat="46.91276" lon="8.63074">
        <ele>584</ele>
        <time>2021-08-07T12:41:40.161Z</time>
      </trkpt>
      <trkpt lat="46.91279" lon="8.63078">
        <ele>584</ele>
        <time>2021-08-07T12:41:52.306Z</time>
      </trkpt>
      <trkpt lat="46.9129" lon="8.63089">
        <ele>584</ele>
        <time>2021-08-07T12:42:18.304Z</time>
      </trkpt>
      <trkpt lat="46.91297" lon="8.63107">
        <ele>583</ele>
        <time>2021-08-07T12:43:05.065Z</time>
      </trkpt>
      <trkpt lat="46.91295" lon="8.63105">
        <ele>583</ele>
        <time>2021-08-07T12:43:06.064Z</time>
      </trkpt>
      <trkpt lat="46.91295" lon="8.63103">
        <ele>583</ele>
        <time>2021-08-07T12:43:07.064Z</time>
      </trkpt>
      <trkpt lat="46.91295" lon="8.63102">
        <ele>583</ele>
        <time>2021-08-07T12:43:08.064Z</time>
      </trkpt>
      <trkpt lat="46.91295" lon="8.63102">
        <ele>583</ele>
        <time>2021-08-07T12:43:14.144Z</time>
      </trkpt>
      <trkpt lat="46.91293" lon="8.63099">
        <ele>584</ele>
        <time>2021-08-07T12:43:15.143Z</time>
      </trkpt>
      <trkpt lat="46.91293" lon="8.63097">
        <ele>584</ele>
        <time>2021-08-07T12:43:21.893Z</time>
      </trkpt>
      <trkpt lat="46.91293" lon="8.63093">
        <ele>584</ele>
        <time>2021-08-07T12:43:24.765Z</time>
      </trkpt>
      <trkpt lat="46.91294" lon="8.63091">
        <ele>584</ele>
        <time>2021-08-07T12:43:25.765Z</time>
      </trkpt>
      <trkpt lat="46.91288" lon="8.63094">
        <ele>584</ele>
        <time>2021-08-07T12:43:28.765Z</time>
      </trkpt>
      <trkpt lat="46.91285" lon="8.63094">
        <ele>584</ele>
        <time>2021-08-07T12:44:09.930Z</time>
      </trkpt>
      <trkpt lat="46.91286" lon="8.63093">
        <ele>584</ele>
        <time>2021-08-07T12:44:10.931Z</time>
      </trkpt>
      <trkpt lat="46.91289" lon="8.63094">
        <ele>585</ele>
        <time>2021-08-07T12:44:11.930Z</time>
      </trkpt>
      <trkpt lat="46.91289" lon="8.63095">
        <ele>585</ele>
        <time>2021-08-07T12:44:12.931Z</time>
      </trkpt>
      <trkpt lat="46.9129" lon="8.63095">
        <ele>585</ele>
        <time>2021-08-07T12:44:13.931Z</time>
      </trkpt>
      <trkpt lat="46.9129" lon="8.63093">
        <ele>585</ele>
        <time>2021-08-07T12:44:14.930Z</time>
      </trkpt>
      <trkpt lat="46.91291" lon="8.63094">
        <ele>586</ele>
        <time>2021-08-07T12:44:15.930Z</time>
      </trkpt>
      <trkpt lat="46.91293" lon="8.63095">
        <ele>587</ele>
        <time>2021-08-07T12:44:16.931Z</time>
      </trkpt>
      <trkpt lat="46.91294" lon="8.63097">
        <ele>588</ele>
        <time>2021-08-07T12:44:22.053Z</time>
      </trkpt>
      <trkpt lat="46.91293" lon="8.63098">
        <ele>589</ele>
        <time>2021-08-07T12:44:23.053Z</time>
      </trkpt>
      <trkpt lat="46.91293" lon="8.63098">
        <ele>589</ele>
        <time>2021-08-07T12:44:24.053Z</time>
      </trkpt>
      <trkpt lat="46.91293" lon="8.63099">
        <ele>590</ele>
        <time>2021-08-07T12:44:25.053Z</time>
      </trkpt>
      <trkpt lat="46.91294" lon="8.63098">
        <ele>591</ele>
        <time>2021-08-07T12:44:26.054Z</time>
      </trkpt>
      <trkpt lat="46.91294" lon="8.63098">
        <ele>591</ele>
        <time>2021-08-07T12:44:27.053Z</time>
      </trkpt>
      <trkpt lat="46.91293" lon="8.63097">
        <ele>592</ele>
        <time>2021-08-07T12:44:44.165Z</time>
      </trkpt>
      <trkpt lat="46.91294" lon="8.63096">
        <ele>592</ele>
        <time>2021-08-07T12:44:45.165Z</time>
      </trkpt>
      <trkpt lat="46.91296" lon="8.63099">
        <ele>593</ele>
        <time>2021-08-07T12:44:46.165Z</time>
      </trkpt>
      <trkpt lat="46.91295" lon="8.631">
        <ele>593</ele>
        <time>2021-08-07T12:44:47.166Z</time>
      </trkpt>
      <trkpt lat="46.91294" lon="8.63099">
        <ele>594</ele>
        <time>2021-08-07T12:44:57.301Z</time>
      </trkpt>
      <trkpt lat="46.91293" lon="8.63096">
        <ele>594</ele>
        <time>2021-08-07T12:44:58.301Z</time>
      </trkpt>
      <trkpt lat="46.91293" lon="8.63094">
        <ele>595</ele>
        <time>2021-08-07T12:44:59.301Z</time>
      </trkpt>
      <trkpt lat="46.91292" lon="8.63091">
        <ele>595</ele>
        <time>2021-08-07T12:45:18.398Z</time>
      </trkpt>
      <trkpt lat="46.91291" lon="8.63089">
        <ele>595</ele>
        <time>2021-08-07T12:45:38.285Z</time>
      </trkpt>
      <trkpt lat="46.91291" lon="8.63087">
        <ele>596</ele>
        <time>2021-08-07T12:45:39.286Z</time>
      </trkpt>
      <trkpt lat="46.91289" lon="8.63081">
        <ele>596</ele>
        <time>2021-08-07T12:45:41.285Z</time>
      </trkpt>
      <trkpt lat="46.91289" lon="8.6308">
        <ele>596</ele>
        <time>2021-08-07T12:45:42.285Z</time>
      </trkpt>
      <trkpt lat="46.9129" lon="8.6308">
        <ele>597</ele>
        <time>2021-08-07T12:45:49.408Z</time>
      </trkpt>
      <trkpt lat="46.91293" lon="8.63083">
        <ele>597</ele>
        <time>2021-08-07T12:45:50.407Z</time>
      </trkpt>
      <trkpt lat="46.91295" lon="8.63084">
        <ele>597</ele>
        <time>2021-08-07T12:46:00.274Z</time>
      </trkpt>
      <trkpt lat="46.91298" lon="8.63086">
        <ele>597</ele>
        <time>2021-08-07T12:46:01.273Z</time>
      </trkpt>
      <trkpt lat="46.91301" lon="8.63087">
        <ele>597</ele>
        <time>2021-08-07T12:46:02.274Z</time>
      </trkpt>
      <trkpt lat="46.91304" lon="8.63089">
        <ele>597</ele>
        <time>2021-08-07T12:46:03.274Z</time>
      </trkpt>
      <trkpt lat="46.91306" lon="8.63091">
        <ele>598</ele>
        <time>2021-08-07T12:46:10.387Z</time>
      </trkpt>
      <trkpt lat="46.91307" lon="8.63092">
        <ele>598</ele>
        <time>2021-08-07T12:46:26.255Z</time>
      </trkpt>
      <trkpt lat="46.91307" lon="8.63092">
        <ele>598</ele>
        <time>2021-08-07T12:46:27.255Z</time>
      </trkpt>
      <trkpt lat="46.91307" lon="8.6309">
        <ele>598</ele>
        <time>2021-08-07T12:46:33.149Z</time>
      </trkpt>
      <trkpt lat="46.91305" lon="8.63089">
        <ele>598</ele>
        <time>2021-08-07T12:46:34.150Z</time>
      </trkpt>
      <trkpt lat="46.91302" lon="8.63087">
        <ele>598</ele>
        <time>2021-08-07T12:46:35.150Z</time>
      </trkpt>
      <trkpt lat="46.91302" lon="8.63084">
        <ele>598</ele>
        <time>2021-08-07T12:46:36.149Z</time>
      </trkpt>
      <trkpt lat="46.91301" lon="8.63082">
        <ele>598</ele>
        <time>2021-08-07T12:46:43.275Z</time>
      </trkpt>
      <trkpt lat="46.91302" lon="8.6308">
        <ele>598</ele>
        <time>2021-08-07T12:46:44.274Z</time>
      </trkpt>
      <trkpt lat="46.91303" lon="8.63079">
        <ele>598</ele>
        <time>2021-08-07T12:46:51.156Z</time>
      </trkpt>
      <trkpt lat="46.91303" lon="8.63078">
        <ele>598</ele>
        <time>2021-08-07T12:46:52.157Z</time>
      </trkpt>
      <trkpt lat="46.91304" lon="8.63077">
        <ele>598</ele>
        <time>2021-08-07T12:46:53.157Z</time>
      </trkpt>
      <trkpt lat="46.91304" lon="8.63076">
        <ele>598</ele>
        <time>2021-08-07T12:46:54.156Z</time>
      </trkpt>
      <trkpt lat="46.91304" lon="8.63076">
        <ele>598</ele>
        <time>2021-08-07T12:47:07.276Z</time>
      </trkpt>
      <trkpt lat="46.91304" lon="8.63076">
        <ele>598</ele>
        <time>2021-08-07T12:47:08.277Z</time>
      </trkpt>
      <trkpt lat="46.91304" lon="8.63079">
        <ele>598</ele>
        <time>2021-08-07T12:47:09.276Z</time>
      </trkpt>
      <trkpt lat="46.91304" lon="8.63086">
        <ele>598</ele>
        <time>2021-08-07T12:47:10.277Z</time>
      </trkpt>
      <trkpt lat="46.91304" lon="8.6309">
        <ele>598</ele>
        <time>2021-08-07T12:47:11.276Z</time>
      </trkpt>
      <trkpt lat="46.91302" lon="8.63091">
        <ele>598</ele>
        <time>2021-08-07T12:47:12.276Z</time>
      </trkpt>
      <trkpt lat="46.913" lon="8.63091">
        <ele>598</ele>
        <time>2021-08-07T12:47:20.380Z</time>
      </trkpt>
      <trkpt lat="46.913" lon="8.63091">
        <ele>599</ele>
        <time>2021-08-07T12:47:38.246Z</time>
      </trkpt>
      <trkpt lat="46.91299" lon="8.63092">
        <ele>599</ele>
        <time>2021-08-07T12:47:39.246Z</time>
      </trkpt>
      <trkpt lat="46.91296" lon="8.63092">
        <ele>599</ele>
        <time>2021-08-07T12:47:40.245Z</time>
      </trkpt>
      <trkpt lat="46.91296" lon="8.63093">
        <ele>599</ele>
        <time>2021-08-07T12:47:47.379Z</time>
      </trkpt>
      <trkpt lat="46.91295" lon="8.63093">
        <ele>599</ele>
        <time>2021-08-07T12:47:48.379Z</time>
      </trkpt>
      <trkpt lat="46.91296" lon="8.63095">
        <ele>599</ele>
        <time>2021-08-07T12:47:49.378Z</time>
      </trkpt>
      <trkpt lat="46.91298" lon="8.63097">
        <ele>599</ele>
        <time>2021-08-07T12:47:50.378Z</time>
      </trkpt>
      <trkpt lat="46.913" lon="8.63099">
        <ele>599</ele>
        <time>2021-08-07T12:47:51.379Z</time>
      </trkpt>
      <trkpt lat="46.91299" lon="8.63099">
        <ele>599</ele>
        <time>2021-08-07T12:47:52.379Z</time>
      </trkpt>
      <trkpt lat="46.91299" lon="8.63099">
        <ele>599</ele>
        <time>2021-08-07T12:47:53.379Z</time>
      </trkpt>
      <trkpt lat="46.91299" lon="8.63099">
        <ele>599</ele>
        <time>2021-08-07T12:48:33.501Z</time>
      </trkpt>
      <trkpt lat="46.91299" lon="8.63099">
        <ele>599</ele>
        <time>2021-08-07T12:48:34.502Z</time>
      </trkpt>
      <trkpt lat="46.91299" lon="8.63099">
        <ele>599</ele>
        <time>2021-08-07T12:48:35.502Z</time>
      </trkpt>
      <trkpt lat="46.91298" lon="8.63098">
        <ele>599</ele>
        <time>2021-08-07T12:48:36.502Z</time>
      </trkpt>
      <trkpt lat="46.91297" lon="8.63097">
        <ele>598</ele>
        <time>2021-08-07T12:48:37.502Z</time>
      </trkpt>
      <trkpt lat="46.91296" lon="8.63096">
        <ele>598</ele>
        <time>2021-08-07T12:48:38.502Z</time>
      </trkpt>
      <trkpt lat="46.91295" lon="8.63094">
        <ele>598</ele>
        <time>2021-08-07T12:48:39.502Z</time>
      </trkpt>
      <trkpt lat="46.91295" lon="8.63095">
        <ele>598</ele>
        <time>2021-08-07T12:48:40.503Z</time>
      </trkpt>
      <trkpt lat="46.91296" lon="8.631">
        <ele>597</ele>
        <time>2021-08-07T12:48:48.548Z</time>
      </trkpt>
      <trkpt lat="46.91296" lon="8.631">
        <ele>597</ele>
        <time>2021-08-07T12:48:49.547Z</time>
      </trkpt>
      <trkpt lat="46.91295" lon="8.631">
        <ele>597</ele>
        <time>2021-08-07T12:48:50.547Z</time>
      </trkpt>
      <trkpt lat="46.91295" lon="8.631">
        <ele>597</ele>
        <time>2021-08-07T12:49:26.628Z</time>
      </trkpt>
      <trkpt lat="46.91295" lon="8.631">
        <ele>597</ele>
        <time>2021-08-07T12:49:34.402Z</time>
      </trkpt>
      <trkpt lat="46.91295" lon="8.63101">
        <ele>597</ele>
        <time>2021-08-07T12:50:02.291Z</time>
      </trkpt>
      <trkpt lat="46.91296" lon="8.63102">
        <ele>597</ele>
        <time>2021-08-07T12:50:03.291Z</time>
      </trkpt>
      <trkpt lat="46.91297" lon="8.63103">
        <ele>597</ele>
        <time>2021-08-07T12:50:04.290Z</time>
      </trkpt>
      <trkpt lat="46.91298" lon="8.63104">
        <ele>597</ele>
        <time>2021-08-07T12:50:05.290Z</time>
      </trkpt>
      <trkpt lat="46.91299" lon="8.63104">
        <ele>597</ele>
        <time>2021-08-07T12:51:02.392Z</time>
      </trkpt>
      <trkpt lat="46.913" lon="8.63105">
        <ele>597</ele>
        <time>2021-08-07T12:51:18.253Z</time>
      </trkpt>
      <trkpt lat="46.91301" lon="8.63106">
        <ele>597</ele>
        <time>2021-08-07T12:51:19.253Z</time>
      </trkpt>
      <trkpt lat="46.913" lon="8.63105">
        <ele>597</ele>
        <time>2021-08-07T12:51:30.144Z</time>
      </trkpt>
      <trkpt lat="46.913" lon="8.63105">
        <ele>598</ele>
        <time>2021-08-07T12:51:31.143Z</time>
      </trkpt>
      <trkpt lat="46.913" lon="8.63104">
        <ele>598</ele>
        <time>2021-08-07T12:51:32.143Z</time>
      </trkpt>
      <trkpt lat="46.913" lon="8.63103">
        <ele>599</ele>
        <time>2021-08-07T12:51:42.270Z</time>
      </trkpt>
      <trkpt lat="46.913" lon="8.63104">
        <ele>601</ele>
        <time>2021-08-07T12:51:43.271Z</time>
      </trkpt>
      <trkpt lat="46.913" lon="8.63105">
        <ele>602</ele>
        <time>2021-08-07T12:51:44.271Z</time>
      </trkpt>
      <trkpt lat="46.913" lon="8.63105">
        <ele>602</ele>
        <time>2021-08-07T12:51:55.437Z</time>
      </trkpt>
      <trkpt lat="46.913" lon="8.63105">
        <ele>603</ele>
        <time>2021-08-07T12:51:56.438Z</time>
      </trkpt>
      <trkpt lat="46.913" lon="8.63105">
        <ele>603</ele>
        <time>2021-08-07T12:51:57.437Z</time>
      </trkpt>
      <trkpt lat="46.913" lon="8.63105">
        <ele>604</ele>
        <time>2021-08-07T12:51:58.438Z</time>
      </trkpt>
      <trkpt lat="46.91299" lon="8.63104">
        <ele>604</ele>
        <time>2021-08-07T12:51:59.437Z</time>
      </trkpt>
      <trkpt lat="46.91298" lon="8.63104">
        <ele>604</ele>
        <time>2021-08-07T12:52:00.438Z</time>
      </trkpt>
      <trkpt lat="46.91297" lon="8.63104">
        <ele>605</ele>
        <time>2021-08-07T12:52:07.537Z</time>
      </trkpt>
      <trkpt lat="46.91297" lon="8.63104">
        <ele>605</ele>
        <time>2021-08-07T12:52:08.538Z</time>
      </trkpt>
      <trkpt lat="46.91298" lon="8.63104">
        <ele>605</ele>
        <time>2021-08-07T12:52:09.537Z</time>
      </trkpt>
      <trkpt lat="46.91298" lon="8.63105">
        <ele>605</ele>
        <time>2021-08-07T12:52:10.538Z</time>
      </trkpt>
      <trkpt lat="46.91299" lon="8.63105">
        <ele>604</ele>
        <time>2021-08-07T12:52:11.538Z</time>
      </trkpt>
      <trkpt lat="46.91299" lon="8.63105">
        <ele>604</ele>
        <time>2021-08-07T12:52:12.538Z</time>
      </trkpt>
      <trkpt lat="46.91298" lon="8.63105">
        <ele>604</ele>
        <time>2021-08-07T12:52:13.538Z</time>
      </trkpt>
      <trkpt lat="46.91299" lon="8.63104">
        <ele>604</ele>
        <time>2021-08-07T12:52:14.538Z</time>
      </trkpt>
      <trkpt lat="46.91298" lon="8.63103">
        <ele>604</ele>
        <time>2021-08-07T12:52:15.538Z</time>
      </trkpt>
      <trkpt lat="46.91298" lon="8.63103">
        <ele>604</ele>
        <time>2021-08-07T12:52:16.537Z</time>
      </trkpt>
      <trkpt lat="46.91298" lon="8.63102">
        <ele>604</ele>
        <time>2021-08-07T12:52:17.538Z</time>
      </trkpt>
      <trkpt lat="46.91298" lon="8.631">
        <ele>604</ele>
        <time>2021-08-07T12:52:18.538Z</time>
      </trkpt>
      <trkpt lat="46.91298" lon="8.63098">
        <ele>604</ele>
        <time>2021-08-07T12:52:27.501Z</time>
      </trkpt>
      <trkpt lat="46.91303" lon="8.63103">
        <ele>604</ele>
        <time>2021-08-07T12:52:28.500Z</time>
      </trkpt>
      <trkpt lat="46.91304" lon="8.63104">
        <ele>604</ele>
        <time>2021-08-07T12:52:30.395Z</time>
      </trkpt>
      <trkpt lat="46.91304" lon="8.63105">
        <ele>604</ele>
        <time>2021-08-07T12:52:34.273Z</time>
      </trkpt>
      <trkpt lat="46.91305" lon="8.63106">
        <ele>604</ele>
        <time>2021-08-07T12:52:35.274Z</time>
      </trkpt>
      <trkpt lat="46.91305" lon="8.63106">
        <ele>604</ele>
        <time>2021-08-07T12:52:49.003Z</time>
      </trkpt>
      <trkpt lat="46.91305" lon="8.63107">
        <ele>604</ele>
        <time>2021-08-07T12:52:50.004Z</time>
      </trkpt>
      <trkpt lat="46.91305" lon="8.63106">
        <ele>604</ele>
        <time>2021-08-07T12:52:57.753Z</time>
      </trkpt>
      <trkpt lat="46.91305" lon="8.63106">
        <ele>604</ele>
        <time>2021-08-07T12:52:58.752Z</time>
      </trkpt>
      <trkpt lat="46.91304" lon="8.63106">
        <ele>605</ele>
        <time>2021-08-07T12:53:20.669Z</time>
      </trkpt>
      <trkpt lat="46.91304" lon="8.63106">
        <ele>605</ele>
        <time>2021-08-07T12:53:21.670Z</time>
      </trkpt>
      <trkpt lat="46.91307" lon="8.63106">
        <ele>605</ele>
        <time>2021-08-07T12:53:22.671Z</time>
      </trkpt>
      <trkpt lat="46.91308" lon="8.63107">
        <ele>605</ele>
        <time>2021-08-07T12:53:23.671Z</time>
      </trkpt>
      <trkpt lat="46.91309" lon="8.63108">
        <ele>605</ele>
        <time>2021-08-07T12:53:24.670Z</time>
      </trkpt>
      <trkpt lat="46.9131" lon="8.6311">
        <ele>605</ele>
        <time>2021-08-07T12:53:25.671Z</time>
      </trkpt>
      <trkpt lat="46.91311" lon="8.63111">
        <ele>605</ele>
        <time>2021-08-07T12:53:26.670Z</time>
      </trkpt>
      <trkpt lat="46.91312" lon="8.63112">
        <ele>605</ele>
        <time>2021-08-07T12:53:27.671Z</time>
      </trkpt>
      <trkpt lat="46.91311" lon="8.63112">
        <ele>605</ele>
        <time>2021-08-07T12:53:28.671Z</time>
      </trkpt>
      <trkpt lat="46.91311" lon="8.63112">
        <ele>605</ele>
        <time>2021-08-07T12:53:47.747Z</time>
      </trkpt>
      <trkpt lat="46.91312" lon="8.63112">
        <ele>605</ele>
        <time>2021-08-07T12:53:48.747Z</time>
      </trkpt>
      <trkpt lat="46.91312" lon="8.63111">
        <ele>605</ele>
        <time>2021-08-07T12:53:49.748Z</time>
      </trkpt>
      <trkpt lat="46.91312" lon="8.6311">
        <ele>605</ele>
        <time>2021-08-07T12:54:36.516Z</time>
      </trkpt>
      <trkpt lat="46.91311" lon="8.63109">
        <ele>606</ele>
        <time>2021-08-07T12:54:37.516Z</time>
      </trkpt>
      <trkpt lat="46.9131" lon="8.63108">
        <ele>606</ele>
        <time>2021-08-07T12:54:44.443Z</time>
      </trkpt>
      <trkpt lat="46.91309" lon="8.63108">
        <ele>606</ele>
        <time>2021-08-07T12:54:45.443Z</time>
      </trkpt>
      <trkpt lat="46.91309" lon="8.63108">
        <ele>607</ele>
        <time>2021-08-07T12:54:56.338Z</time>
      </trkpt>
      <trkpt lat="46.9131" lon="8.63109">
        <ele>607</ele>
        <time>2021-08-07T12:55:11.122Z</time>
      </trkpt>
      <trkpt lat="46.91311" lon="8.6311">
        <ele>607</ele>
        <time>2021-08-07T12:55:21.911Z</time>
      </trkpt>
      <trkpt lat="46.91311" lon="8.63111">
        <ele>607</ele>
        <time>2021-08-07T12:55:22.910Z</time>
      </trkpt>
      <trkpt lat="46.91312" lon="8.63112">
        <ele>608</ele>
        <time>2021-08-07T12:55:23.910Z</time>
      </trkpt>
      <trkpt lat="46.91312" lon="8.63112">
        <ele>608</ele>
        <time>2021-08-07T12:55:30.622Z</time>
      </trkpt>
      <trkpt lat="46.91311" lon="8.63112">
        <ele>609</ele>
        <time>2021-08-07T12:55:31.622Z</time>
      </trkpt>
      <trkpt lat="46.9131" lon="8.63111">
        <ele>609</ele>
        <time>2021-08-07T12:55:32.622Z</time>
      </trkpt>
      <trkpt lat="46.91309" lon="8.63111">
        <ele>609</ele>
        <time>2021-08-07T12:55:33.621Z</time>
      </trkpt>
      <trkpt lat="46.91308" lon="8.6311">
        <ele>609</ele>
        <time>2021-08-07T12:55:34.622Z</time>
      </trkpt>
      <trkpt lat="46.91308" lon="8.63109">
        <ele>609</ele>
        <time>2021-08-07T12:55:46.751Z</time>
      </trkpt>
      <trkpt lat="46.91307" lon="8.63109">
        <ele>609</ele>
        <time>2021-08-07T12:55:47.750Z</time>
      </trkpt>
      <trkpt lat="46.91307" lon="8.63108">
        <ele>610</ele>
        <time>2021-08-07T12:55:48.750Z</time>
      </trkpt>
      <trkpt lat="46.91306" lon="8.63106">
        <ele>609</ele>
        <time>2021-08-07T12:56:07.887Z</time>
      </trkpt>
      <trkpt lat="46.91306" lon="8.63105">
        <ele>610</ele>
        <time>2021-08-07T12:56:48.783Z</time>
      </trkpt>
      <trkpt lat="46.91305" lon="8.63104">
        <ele>610</ele>
        <time>2021-08-07T12:56:49.784Z</time>
      </trkpt>
      <trkpt lat="46.91304" lon="8.63104">
        <ele>610</ele>
        <time>2021-08-07T12:57:01.643Z</time>
      </trkpt>
      <trkpt lat="46.91304" lon="8.63102">
        <ele>610</ele>
        <time>2021-08-07T12:57:02.643Z</time>
      </trkpt>
      <trkpt lat="46.91303" lon="8.63102">
        <ele>610</ele>
        <time>2021-08-07T12:57:03.643Z</time>
      </trkpt>
      <trkpt lat="46.91303" lon="8.63101">
        <ele>610</ele>
        <time>2021-08-07T12:57:04.642Z</time>
      </trkpt>
      <trkpt lat="46.91303" lon="8.63101">
        <ele>610</ele>
        <time>2021-08-07T12:57:05.643Z</time>
      </trkpt>
      <trkpt lat="46.91302" lon="8.63101">
        <ele>610</ele>
        <time>2021-08-07T12:57:24.747Z</time>
      </trkpt>
      <trkpt lat="46.91297" lon="8.63103">
        <ele>610</ele>
        <time>2021-08-07T12:57:25.747Z</time>
      </trkpt>
      <trkpt lat="46.91294" lon="8.63101">
        <ele>610</ele>
        <time>2021-08-07T12:57:26.747Z</time>
      </trkpt>
      <trkpt lat="46.91292" lon="8.631">
        <ele>610</ele>
        <time>2021-08-07T12:57:27.747Z</time>
      </trkpt>
      <trkpt lat="46.91291" lon="8.63101">
        <ele>610</ele>
        <time>2021-08-07T12:57:28.746Z</time>
      </trkpt>
      <trkpt lat="46.91291" lon="8.631">
        <ele>610</ele>
        <time>2021-08-07T12:57:34.870Z</time>
      </trkpt>
      <trkpt lat="46.91291" lon="8.63101">
        <ele>610</ele>
        <time>2021-08-07T12:57:35.870Z</time>
      </trkpt>
      <trkpt lat="46.91289" lon="8.631">
        <ele>610</ele>
        <time>2021-08-07T12:57:36.869Z</time>
      </trkpt>
      <trkpt lat="46.91288" lon="8.63098">
        <ele>610</ele>
        <time>2021-08-07T12:58:37.873Z</time>
      </trkpt>
      <trkpt lat="46.91289" lon="8.63098">
        <ele>610</ele>
        <time>2021-08-07T12:58:38.873Z</time>
      </trkpt>
      <trkpt lat="46.9129" lon="8.63097">
        <ele>610</ele>
        <time>2021-08-07T12:58:39.872Z</time>
      </trkpt>
      <trkpt lat="46.91289" lon="8.63096">
        <ele>610</ele>
        <time>2021-08-07T12:58:40.872Z</time>
      </trkpt>
      <trkpt lat="46.91288" lon="8.63093">
        <ele>610</ele>
        <time>2021-08-07T12:58:41.873Z</time>
      </trkpt>
      <trkpt lat="46.91289" lon="8.63091">
        <ele>611</ele>
        <time>2021-08-07T12:58:42.872Z</time>
      </trkpt>
      <trkpt lat="46.91289" lon="8.63092">
        <ele>611</ele>
        <time>2021-08-07T12:58:43.873Z</time>
      </trkpt>
      <trkpt lat="46.91291" lon="8.63092">
        <ele>611</ele>
        <time>2021-08-07T12:58:44.872Z</time>
      </trkpt>
      <trkpt lat="46.91293" lon="8.63093">
        <ele>611</ele>
        <time>2021-08-07T12:58:45.873Z</time>
      </trkpt>
      <trkpt lat="46.91294" lon="8.63094">
        <ele>611</ele>
        <time>2021-08-07T12:58:46.873Z</time>
      </trkpt>
      <trkpt lat="46.91299" lon="8.63099">
        <ele>611</ele>
        <time>2021-08-07T12:58:47.873Z</time>
      </trkpt>
      <trkpt lat="46.91302" lon="8.63102">
        <ele>610</ele>
        <time>2021-08-07T12:58:48.873Z</time>
      </trkpt>
      <trkpt lat="46.91304" lon="8.63103">
        <ele>610</ele>
        <time>2021-08-07T12:59:11.019Z</time>
      </trkpt>
      <trkpt lat="46.91305" lon="8.63104">
        <ele>610</ele>
        <time>2021-08-07T12:59:12.019Z</time>
      </trkpt>
      <trkpt lat="46.91305" lon="8.63104">
        <ele>610</ele>
        <time>2021-08-07T12:59:13.019Z</time>
      </trkpt>
      <trkpt lat="46.91304" lon="8.63104">
        <ele>610</ele>
        <time>2021-08-07T12:59:14.018Z</time>
      </trkpt>
      <trkpt lat="46.91304" lon="8.63104">
        <ele>610</ele>
        <time>2021-08-07T12:59:15.018Z</time>
      </trkpt>
      <trkpt lat="46.91303" lon="8.63105">
        <ele>610</ele>
        <time>2021-08-07T12:59:16.019Z</time>
      </trkpt>
      <trkpt lat="46.91302" lon="8.63106">
        <ele>610</ele>
        <time>2021-08-07T12:59:17.019Z</time>
      </trkpt>
      <trkpt lat="46.91301" lon="8.63106">
        <ele>610</ele>
        <time>2021-08-07T12:59:33.122Z</time>
      </trkpt>
      <trkpt lat="46.913" lon="8.63106">
        <ele>610</ele>
        <time>2021-08-07T12:59:45.896Z</time>
      </trkpt>
      <trkpt lat="46.913" lon="8.63107">
        <ele>610</ele>
        <time>2021-08-07T12:59:46.896Z</time>
      </trkpt>
      <trkpt lat="46.91299" lon="8.63108">
        <ele>610</ele>
        <time>2021-08-07T12:59:47.896Z</time>
      </trkpt>
      <trkpt lat="46.91302" lon="8.63111">
        <ele>610</ele>
        <time>2021-08-07T12:59:49.895Z</time>
      </trkpt>
      <trkpt lat="46.91301" lon="8.63112">
        <ele>610</ele>
        <time>2021-08-07T12:59:50.896Z</time>
      </trkpt>
      <trkpt lat="46.91302" lon="8.63115">
        <ele>610</ele>
        <time>2021-08-07T12:59:51.896Z</time>
      </trkpt>
      <trkpt lat="46.91303" lon="8.63116">
        <ele>610</ele>
        <time>2021-08-07T12:59:52.896Z</time>
      </trkpt>
      <trkpt lat="46.91303" lon="8.63117">
        <ele>610</ele>
        <time>2021-08-07T12:59:53.896Z</time>
      </trkpt>
      <trkpt lat="46.91303" lon="8.63118">
        <ele>610</ele>
        <time>2021-08-07T12:59:54.896Z</time>
      </trkpt>
      <trkpt lat="46.91304" lon="8.6312">
        <ele>610</ele>
        <time>2021-08-07T12:59:55.896Z</time>
      </trkpt>
      <trkpt lat="46.91302" lon="8.6312">
        <ele>610</ele>
        <time>2021-08-07T12:59:56.895Z</time>
      </trkpt>
      <trkpt lat="46.91301" lon="8.63119">
        <ele>610</ele>
        <time>2021-08-07T12:59:57.896Z</time>
      </trkpt>
      <trkpt lat="46.91299" lon="8.63119">
        <ele>610</ele>
        <time>2021-08-07T12:59:58.895Z</time>
      </trkpt>
      <trkpt lat="46.913" lon="8.63119">
        <ele>610</ele>
        <time>2021-08-07T13:00:11.009Z</time>
      </trkpt>
      <trkpt lat="46.91301" lon="8.6312">
        <ele>610</ele>
        <time>2021-08-07T13:00:12.009Z</time>
      </trkpt>
      <trkpt lat="46.91301" lon="8.63118">
        <ele>610</ele>
        <time>2021-08-07T13:00:13.010Z</time>
      </trkpt>
      <trkpt lat="46.913" lon="8.63117">
        <ele>610</ele>
        <time>2021-08-07T13:00:14.009Z</time>
      </trkpt>
      <trkpt lat="46.91301" lon="8.63117">
        <ele>610</ele>
        <time>2021-08-07T13:00:15.009Z</time>
      </trkpt>
      <trkpt lat="46.91303" lon="8.6312">
        <ele>610</ele>
        <time>2021-08-07T13:00:16.010Z</time>
      </trkpt>
      <trkpt lat="46.91303" lon="8.6312">
        <ele>610</ele>
        <time>2021-08-07T13:00:17.009Z</time>
      </trkpt>
      <trkpt lat="46.91304" lon="8.63121">
        <ele>610</ele>
        <time>2021-08-07T13:00:18.010Z</time>
      </trkpt>
      <trkpt lat="46.91304" lon="8.63121">
        <ele>610</ele>
        <time>2021-08-07T13:00:19.010Z</time>
      </trkpt>
      <trkpt lat="46.91305" lon="8.63122">
        <ele>610</ele>
        <time>2021-08-07T13:00:20.010Z</time>
      </trkpt>
      <trkpt lat="46.91306" lon="8.63123">
        <ele>610</ele>
        <time>2021-08-07T13:00:21.010Z</time>
      </trkpt>
      <trkpt lat="46.91307" lon="8.63124">
        <ele>610</ele>
        <time>2021-08-07T13:00:22.010Z</time>
      </trkpt>
      <trkpt lat="46.91307" lon="8.63125">
        <ele>610</ele>
        <time>2021-08-07T13:00:23.010Z</time>
      </trkpt>
      <trkpt lat="46.91309" lon="8.63125">
        <ele>610</ele>
        <time>2021-08-07T13:00:24.010Z</time>
      </trkpt>
      <trkpt lat="46.9131" lon="8.63126">
        <ele>610</ele>
        <time>2021-08-07T13:00:25.009Z</time>
      </trkpt>
      <trkpt lat="46.91312" lon="8.63126">
        <ele>610</ele>
        <time>2021-08-07T13:00:26.010Z</time>
      </trkpt>
      <trkpt lat="46.91314" lon="8.63126">
        <ele>610</ele>
        <time>2021-08-07T13:00:27.010Z</time>
      </trkpt>
      <trkpt lat="46.91316" lon="8.63119">
        <ele>610</ele>
        <time>2021-08-07T13:00:28.010Z</time>
      </trkpt>
      <trkpt lat="46.91315" lon="8.63114">
        <ele>610</ele>
        <time>2021-08-07T13:00:29.009Z</time>
      </trkpt>
      <trkpt lat="46.91311" lon="8.63107">
        <ele>611</ele>
        <time>2021-08-07T13:00:30.010Z</time>
      </trkpt>
      <trkpt lat="46.91309" lon="8.63106">
        <ele>611</ele>
        <time>2021-08-07T13:00:31.010Z</time>
      </trkpt>
      <trkpt lat="46.91307" lon="8.63107">
        <ele>611</ele>
        <time>2021-08-07T13:00:32.009Z</time>
      </trkpt>
      <trkpt lat="46.91304" lon="8.63106">
        <ele>611</ele>
        <time>2021-08-07T13:00:33.009Z</time>
      </trkpt>
      <trkpt lat="46.91295" lon="8.63102">
        <ele>611</ele>
        <time>2021-08-07T13:00:34.010Z</time>
      </trkpt>
      <trkpt lat="46.91292" lon="8.63101">
        <ele>610</ele>
        <time>2021-08-07T13:00:44.121Z</time>
      </trkpt>
      <trkpt lat="46.9129" lon="8.63101">
        <ele>610</ele>
        <time>2021-08-07T13:00:45.121Z</time>
      </trkpt>
      <trkpt lat="46.91289" lon="8.631">
        <ele>610</ele>
        <time>2021-08-07T13:00:46.122Z</time>
      </trkpt>
      <trkpt lat="46.91285" lon="8.63102">
        <ele>609</ele>
        <time>2021-08-07T13:00:47.122Z</time>
      </trkpt>
      <trkpt lat="46.91283" lon="8.63107">
        <ele>609</ele>
        <time>2021-08-07T13:00:48.122Z</time>
      </trkpt>
      <trkpt lat="46.91281" lon="8.63107">
        <ele>609</ele>
        <time>2021-08-07T13:00:49.121Z</time>
      </trkpt>
      <trkpt lat="46.91281" lon="8.63106">
        <ele>608</ele>
        <time>2021-08-07T13:00:50.121Z</time>
      </trkpt>
      <trkpt lat="46.9128" lon="8.63104">
        <ele>608</ele>
        <time>2021-08-07T13:00:51.121Z</time>
      </trkpt>
      <trkpt lat="46.9128" lon="8.63103">
        <ele>608</ele>
        <time>2021-08-07T13:00:55.248Z</time>
      </trkpt>
      <trkpt lat="46.91279" lon="8.63101">
        <ele>607</ele>
        <time>2021-08-07T13:00:56.247Z</time>
      </trkpt>
      <trkpt lat="46.91279" lon="8.631">
        <ele>607</ele>
        <time>2021-08-07T13:00:57.248Z</time>
      </trkpt>
      <trkpt lat="46.91278" lon="8.631">
        <ele>606</ele>
        <time>2021-08-07T13:00:58.248Z</time>
      </trkpt>
      <trkpt lat="46.91279" lon="8.63101">
        <ele>606</ele>
        <time>2021-08-07T13:01:00.352Z</time>
      </trkpt>
      <trkpt lat="46.91281" lon="8.63101">
        <ele>605</ele>
        <time>2021-08-07T13:01:01.352Z</time>
      </trkpt>
      <trkpt lat="46.91281" lon="8.631">
        <ele>604</ele>
        <time>2021-08-07T13:01:04.101Z</time>
      </trkpt>
      <trkpt lat="46.9128" lon="8.63099">
        <ele>604</ele>
        <time>2021-08-07T13:01:05.101Z</time>
      </trkpt>
      <trkpt lat="46.91281" lon="8.63099">
        <ele>603</ele>
        <time>2021-08-07T13:01:06.101Z</time>
      </trkpt>
      <trkpt lat="46.9128" lon="8.63097">
        <ele>603</ele>
        <time>2021-08-07T13:01:07.100Z</time>
      </trkpt>
      <trkpt lat="46.9128" lon="8.63097">
        <ele>602</ele>
        <time>2021-08-07T13:01:08.100Z</time>
      </trkpt>
      <trkpt lat="46.91279" lon="8.63097">
        <ele>602</ele>
        <time>2021-08-07T13:01:09.100Z</time>
      </trkpt>
      <trkpt lat="46.91278" lon="8.63096">
        <ele>601</ele>
        <time>2021-08-07T13:01:10.100Z</time>
      </trkpt>
      <trkpt lat="46.91277" lon="8.63094">
        <ele>601</ele>
        <time>2021-08-07T13:01:12.120Z</time>
      </trkpt>
      <trkpt lat="46.91277" lon="8.63095">
        <ele>600</ele>
        <time>2021-08-07T13:01:13.119Z</time>
      </trkpt>
      <trkpt lat="46.91279" lon="8.63094">
        <ele>600</ele>
        <time>2021-08-07T13:02:22.044Z</time>
      </trkpt>
      <trkpt lat="46.91279" lon="8.63093">
        <ele>599</ele>
        <time>2021-08-07T13:02:23.044Z</time>
      </trkpt>
      <trkpt lat="46.91279" lon="8.63092">
        <ele>599</ele>
        <time>2021-08-07T13:02:24.045Z</time>
      </trkpt>
      <trkpt lat="46.91279" lon="8.63092">
        <ele>599</ele>
        <time>2021-08-07T13:02:33.114Z</time>
      </trkpt>
      <trkpt lat="46.91278" lon="8.63092">
        <ele>599</ele>
        <time>2021-08-07T13:02:34.114Z</time>
      </trkpt>
      <trkpt lat="46.91279" lon="8.63092">
        <ele>598</ele>
        <time>2021-08-07T13:02:35.114Z</time>
      </trkpt>
      <trkpt lat="46.91279" lon="8.63093">
        <ele>598</ele>
        <time>2021-08-07T13:02:36.114Z</time>
      </trkpt>
      <trkpt lat="46.91278" lon="8.63092">
        <ele>598</ele>
        <time>2021-08-07T13:02:37.114Z</time>
      </trkpt>
      <trkpt lat="46.91277" lon="8.63091">
        <ele>598</ele>
        <time>2021-08-07T13:02:43.298Z</time>
      </trkpt>
      <trkpt lat="46.91276" lon="8.6309">
        <ele>598</ele>
        <time>2021-08-07T13:02:44.299Z</time>
      </trkpt>
      <trkpt lat="46.91274" lon="8.6309">
        <ele>598</ele>
        <time>2021-08-07T13:02:56.116Z</time>
      </trkpt>
      <trkpt lat="46.91275" lon="8.63091">
        <ele>598</ele>
        <time>2021-08-07T13:03:05.873Z</time>
      </trkpt>
      <trkpt lat="46.91277" lon="8.63093">
        <ele>598</ele>
        <time>2021-08-07T13:03:06.873Z</time>
      </trkpt>
      <trkpt lat="46.91279" lon="8.63096">
        <ele>598</ele>
        <time>2021-08-07T13:03:07.875Z</time>
      </trkpt>
      <trkpt lat="46.91279" lon="8.63095">
        <ele>598</ele>
        <time>2021-08-07T13:03:08.876Z</time>
      </trkpt>
      <trkpt lat="46.91282" lon="8.63098">
        <ele>598</ele>
        <time>2021-08-07T13:03:09.876Z</time>
      </trkpt>
      <trkpt lat="46.91283" lon="8.63098">
        <ele>598</ele>
        <time>2021-08-07T13:03:10.876Z</time>
      </trkpt>
      <trkpt lat="46.91283" lon="8.63096">
        <ele>599</ele>
        <time>2021-08-07T13:03:11.876Z</time>
      </trkpt>
      <trkpt lat="46.91284" lon="8.63097">
        <ele>599</ele>
        <time>2021-08-07T13:03:12.875Z</time>
      </trkpt>
      <trkpt lat="46.91284" lon="8.63096">
        <ele>599</ele>
        <time>2021-08-07T13:03:13.876Z</time>
      </trkpt>
      <trkpt lat="46.91285" lon="8.63096">
        <ele>599</ele>
        <time>2021-08-07T13:03:27.993Z</time>
      </trkpt>
      <trkpt lat="46.91284" lon="8.63097">
        <ele>599</ele>
        <time>2021-08-07T13:03:28.993Z</time>
      </trkpt>
      <trkpt lat="46.91285" lon="8.63097">
        <ele>599</ele>
        <time>2021-08-07T13:03:32.737Z</time>
      </trkpt>
      <trkpt lat="46.91286" lon="8.63097">
        <ele>599</ele>
        <time>2021-08-07T13:03:33.737Z</time>
      </trkpt>
      <trkpt lat="46.91286" lon="8.63097">
        <ele>599</ele>
        <time>2021-08-07T13:03:34.737Z</time>
      </trkpt>
      <trkpt lat="46.91287" lon="8.63097">
        <ele>600</ele>
        <time>2021-08-07T13:03:42.753Z</time>
      </trkpt>
      <trkpt lat="46.91287" lon="8.63097">
        <ele>600</ele>
        <time>2021-08-07T13:03:43.753Z</time>
      </trkpt>
      <trkpt lat="46.91287" lon="8.63098">
        <ele>599</ele>
        <time>2021-08-07T13:03:44.753Z</time>
      </trkpt>
      <trkpt lat="46.91288" lon="8.63098">
        <ele>599</ele>
        <time>2021-08-07T13:04:13.647Z</time>
      </trkpt>
      <trkpt lat="46.91288" lon="8.63098">
        <ele>599</ele>
        <time>2021-08-07T13:04:14.646Z</time>
      </trkpt>
      <trkpt lat="46.91288" lon="8.63098">
        <ele>599</ele>
        <time>2021-08-07T13:04:15.647Z</time>
      </trkpt>
      <trkpt lat="46.91288" lon="8.63098">
        <ele>599</ele>
        <time>2021-08-07T13:04:16.647Z</time>
      </trkpt>
      <trkpt lat="46.91287" lon="8.63096">
        <ele>599</ele>
        <time>2021-08-07T13:04:17.647Z</time>
      </trkpt>
      <trkpt lat="46.91286" lon="8.63093">
        <ele>599</ele>
        <time>2021-08-07T13:04:18.646Z</time>
      </trkpt>
      <trkpt lat="46.91286" lon="8.63094">
        <ele>599</ele>
        <time>2021-08-07T13:04:19.646Z</time>
      </trkpt>
      <trkpt lat="46.91286" lon="8.63095">
        <ele>598</ele>
        <time>2021-08-07T13:04:20.647Z</time>
      </trkpt>
      <trkpt lat="46.91286" lon="8.63095">
        <ele>598</ele>
        <time>2021-08-07T13:04:21.647Z</time>
      </trkpt>
      <trkpt lat="46.91286" lon="8.63093">
        <ele>598</ele>
        <time>2021-08-07T13:04:22.647Z</time>
      </trkpt>
      <trkpt lat="46.91285" lon="8.63091">
        <ele>598</ele>
        <time>2021-08-07T13:04:23.647Z</time>
      </trkpt>
      <trkpt lat="46.91285" lon="8.63089">
        <ele>599</ele>
        <time>2021-08-07T13:04:24.647Z</time>
      </trkpt>
      <trkpt lat="46.91284" lon="8.63089">
        <ele>599</ele>
        <time>2021-08-07T13:04:25.647Z</time>
      </trkpt>
      <trkpt lat="46.91283" lon="8.6309">
        <ele>599</ele>
        <time>2021-08-07T13:04:26.647Z</time>
      </trkpt>
      <trkpt lat="46.91282" lon="8.63093">
        <ele>599</ele>
        <time>2021-08-07T13:04:27.647Z</time>
      </trkpt>
      <trkpt lat="46.91284" lon="8.631">
        <ele>599</ele>
        <time>2021-08-07T13:04:28.647Z</time>
      </trkpt>
      <trkpt lat="46.91285" lon="8.63105">
        <ele>598</ele>
        <time>2021-08-07T13:04:29.646Z</time>
      </trkpt>
      <trkpt lat="46.91287" lon="8.63109">
        <ele>597</ele>
        <time>2021-08-07T13:04:30.647Z</time>
      </trkpt>
      <trkpt lat="46.91287" lon="8.63114">
        <ele>596</ele>
        <time>2021-08-07T13:04:31.646Z</time>
      </trkpt>
      <trkpt lat="46.91286" lon="8.63115">
        <ele>596</ele>
        <time>2021-08-07T13:04:32.647Z</time>
      </trkpt>
      <trkpt lat="46.91286" lon="8.63116">
        <ele>595</ele>
        <time>2021-08-07T13:04:33.647Z</time>
      </trkpt>
      <trkpt lat="46.91285" lon="8.63117">
        <ele>595</ele>
        <time>2021-08-07T13:04:34.647Z</time>
      </trkpt>
      <trkpt lat="46.91286" lon="8.63118">
        <ele>594</ele>
        <time>2021-08-07T13:04:35.646Z</time>
      </trkpt>
      <trkpt lat="46.91286" lon="8.63119">
        <ele>594</ele>
        <time>2021-08-07T13:04:36.646Z</time>
      </trkpt>
      <trkpt lat="46.91286" lon="8.63121">
        <ele>594</ele>
        <time>2021-08-07T13:04:37.647Z</time>
      </trkpt>
      <trkpt lat="46.91285" lon="8.63122">
        <ele>594</ele>
        <time>2021-08-07T13:04:38.647Z</time>
      </trkpt>
      <trkpt lat="46.91285" lon="8.63124">
        <ele>593</ele>
        <time>2021-08-07T13:04:39.646Z</time>
      </trkpt>
      <trkpt lat="46.91284" lon="8.63123">
        <ele>593</ele>
        <time>2021-08-07T13:04:40.647Z</time>
      </trkpt>
      <trkpt lat="46.91283" lon="8.63122">
        <ele>593</ele>
        <time>2021-08-07T13:04:41.647Z</time>
      </trkpt>
      <trkpt lat="46.91283" lon="8.63122">
        <ele>593</ele>
        <time>2021-08-07T13:04:42.647Z</time>
      </trkpt>
      <trkpt lat="46.91281" lon="8.6312">
        <ele>593</ele>
        <time>2021-08-07T13:04:43.647Z</time>
      </trkpt>
      <trkpt lat="46.91281" lon="8.63118">
        <ele>593</ele>
        <time>2021-08-07T13:04:44.646Z</time>
      </trkpt>
      <trkpt lat="46.9128" lon="8.63117">
        <ele>593</ele>
        <time>2021-08-07T13:04:45.646Z</time>
      </trkpt>
      <trkpt lat="46.9128" lon="8.63115">
        <ele>593</ele>
        <time>2021-08-07T13:04:46.646Z</time>
      </trkpt>
      <trkpt lat="46.91281" lon="8.63114">
        <ele>594</ele>
        <time>2021-08-07T13:04:47.647Z</time>
      </trkpt>
      <trkpt lat="46.91282" lon="8.63113">
        <ele>594</ele>
        <time>2021-08-07T13:04:48.646Z</time>
      </trkpt>
      <trkpt lat="46.91281" lon="8.63111">
        <ele>594</ele>
        <time>2021-08-07T13:04:49.646Z</time>
      </trkpt>
      <trkpt lat="46.91281" lon="8.6311">
        <ele>594</ele>
        <time>2021-08-07T13:04:50.647Z</time>
      </trkpt>
      <trkpt lat="46.91281" lon="8.63109">
        <ele>594</ele>
        <time>2021-08-07T13:04:51.647Z</time>
      </trkpt>
      <trkpt lat="46.91281" lon="8.63108">
        <ele>594</ele>
        <time>2021-08-07T13:04:52.647Z</time>
      </trkpt>
      <trkpt lat="46.91281" lon="8.63108">
        <ele>594</ele>
        <time>2021-08-07T13:04:53.646Z</time>
      </trkpt>
      <trkpt lat="46.91282" lon="8.63109">
        <ele>594</ele>
        <time>2021-08-07T13:04:54.646Z</time>
      </trkpt>
      <trkpt lat="46.91283" lon="8.63109">
        <ele>594</ele>
        <time>2021-08-07T13:04:55.647Z</time>
      </trkpt>
      <trkpt lat="46.91284" lon="8.63109">
        <ele>593</ele>
        <time>2021-08-07T13:04:56.647Z</time>
      </trkpt>
      <trkpt lat="46.91284" lon="8.63108">
        <ele>593</ele>
        <time>2021-08-07T13:04:57.647Z</time>
      </trkpt>
      <trkpt lat="46.91285" lon="8.63107">
        <ele>593</ele>
        <time>2021-08-07T13:04:58.647Z</time>
      </trkpt>
      <trkpt lat="46.91287" lon="8.63108">
        <ele>593</ele>
        <time>2021-08-07T13:04:59.646Z</time>
      </trkpt>
      <trkpt lat="46.91289" lon="8.63109">
        <ele>593</ele>
        <time>2021-08-07T13:05:00.646Z</time>
      </trkpt>
      <trkpt lat="46.9129" lon="8.63109">
        <ele>593</ele>
        <time>2021-08-07T13:05:01.647Z</time>
      </trkpt>
      <trkpt lat="46.91289" lon="8.63107">
        <ele>593</ele>
        <time>2021-08-07T13:05:02.647Z</time>
      </trkpt>
      <trkpt lat="46.9129" lon="8.63107">
        <ele>593</ele>
        <time>2021-08-07T13:05:03.647Z</time>
      </trkpt>
      <trkpt lat="46.91291" lon="8.63106">
        <ele>593</ele>
        <time>2021-08-07T13:05:04.646Z</time>
      </trkpt>
      <trkpt lat="46.91291" lon="8.63104">
        <ele>593</ele>
        <time>2021-08-07T13:05:05.647Z</time>
      </trkpt>
      <trkpt lat="46.9129" lon="8.63102">
        <ele>593</ele>
        <time>2021-08-07T13:05:06.647Z</time>
      </trkpt>
      <trkpt lat="46.91291" lon="8.631">
        <ele>593</ele>
        <time>2021-08-07T13:05:07.647Z</time>
      </trkpt>
      <trkpt lat="46.91293" lon="8.63099">
        <ele>593</ele>
        <time>2021-08-07T13:05:08.647Z</time>
      </trkpt>
      <trkpt lat="46.91296" lon="8.63099">
        <ele>593</ele>
        <time>2021-08-07T13:05:09.646Z</time>
      </trkpt>
      <trkpt lat="46.91297" lon="8.63098">
        <ele>593</ele>
        <time>2021-08-07T13:05:10.647Z</time>
      </trkpt>
      <trkpt lat="46.91297" lon="8.63097">
        <ele>593</ele>
        <time>2021-08-07T13:05:11.647Z</time>
      </trkpt>
      <trkpt lat="46.91297" lon="8.63095">
        <ele>593</ele>
        <time>2021-08-07T13:05:12.647Z</time>
      </trkpt>
      <trkpt lat="46.91297" lon="8.63094">
        <ele>594</ele>
        <time>2021-08-07T13:05:13.647Z</time>
      </trkpt>
      <trkpt lat="46.91296" lon="8.63092">
        <ele>594</ele>
        <time>2021-08-07T13:05:14.647Z</time>
      </trkpt>
      <trkpt lat="46.91295" lon="8.63091">
        <ele>594</ele>
        <time>2021-08-07T13:05:15.647Z</time>
      </trkpt>
      <trkpt lat="46.91294" lon="8.6309">
        <ele>594</ele>
        <time>2021-08-07T13:05:16.647Z</time>
      </trkpt>
      <trkpt lat="46.91294" lon="8.63089">
        <ele>594</ele>
        <time>2021-08-07T13:05:17.647Z</time>
      </trkpt>
      <trkpt lat="46.91295" lon="8.63089">
        <ele>595</ele>
        <time>2021-08-07T13:05:18.647Z</time>
      </trkpt>
      <trkpt lat="46.91294" lon="8.63089">
        <ele>595</ele>
        <time>2021-08-07T13:05:19.647Z</time>
      </trkpt>
      <trkpt lat="46.91293" lon="8.63088">
        <ele>595</ele>
        <time>2021-08-07T13:05:20.647Z</time>
      </trkpt>
      <trkpt lat="46.91292" lon="8.63087">
        <ele>595</ele>
        <time>2021-08-07T13:05:21.647Z</time>
      </trkpt>
      <trkpt lat="46.91292" lon="8.63086">
        <ele>595</ele>
        <time>2021-08-07T13:05:22.647Z</time>
      </trkpt>
      <trkpt lat="46.91291" lon="8.63085">
        <ele>595</ele>
        <time>2021-08-07T13:05:23.647Z</time>
      </trkpt>
      <trkpt lat="46.91291" lon="8.63085">
        <ele>595</ele>
        <time>2021-08-07T13:05:24.646Z</time>
      </trkpt>
      <trkpt lat="46.91292" lon="8.63085">
        <ele>595</ele>
        <time>2021-08-07T13:05:25.647Z</time>
      </trkpt>
      <trkpt lat="46.91293" lon="8.63085">
        <ele>595</ele>
        <time>2021-08-07T13:05:26.647Z</time>
      </trkpt>
      <trkpt lat="46.91294" lon="8.63085">
        <ele>595</ele>
        <time>2021-08-07T13:05:27.647Z</time>
      </trkpt>
      <trkpt lat="46.91294" lon="8.63085">
        <ele>595</ele>
        <time>2021-08-07T13:05:28.647Z</time>
      </trkpt>
      <trkpt lat="46.91295" lon="8.63085">
        <ele>595</ele>
        <time>2021-08-07T13:05:29.647Z</time>
      </trkpt>
      <trkpt lat="46.91296" lon="8.63085">
        <ele>595</ele>
        <time>2021-08-07T13:05:30.647Z</time>
      </trkpt>
      <trkpt lat="46.91297" lon="8.63085">
        <ele>595</ele>
        <time>2021-08-07T13:05:31.646Z</time>
      </trkpt>
      <trkpt lat="46.91297" lon="8.63084">
        <ele>596</ele>
        <time>2021-08-07T13:05:32.647Z</time>
      </trkpt>
      <trkpt lat="46.91298" lon="8.63083">
        <ele>596</ele>
        <time>2021-08-07T13:05:33.647Z</time>
      </trkpt>
      <trkpt lat="46.91297" lon="8.63081">
        <ele>597</ele>
        <time>2021-08-07T13:05:34.647Z</time>
      </trkpt>
      <trkpt lat="46.91297" lon="8.6308">
        <ele>598</ele>
        <time>2021-08-07T13:05:35.646Z</time>
      </trkpt>
      <trkpt lat="46.91297" lon="8.63079">
        <ele>599</ele>
        <time>2021-08-07T13:05:36.647Z</time>
      </trkpt>
      <trkpt lat="46.91297" lon="8.63078">
        <ele>599</ele>
        <time>2021-08-07T13:05:37.647Z</time>
      </trkpt>
      <trkpt lat="46.91297" lon="8.63077">
        <ele>600</ele>
        <time>2021-08-07T13:05:38.647Z</time>
      </trkpt>
      <trkpt lat="46.91295" lon="8.63072">
        <ele>601</ele>
        <time>2021-08-07T13:05:39.647Z</time>
      </trkpt>
      <trkpt lat="46.91293" lon="8.6307">
        <ele>602</ele>
        <time>2021-08-07T13:05:40.646Z</time>
      </trkpt>
      <trkpt lat="46.91292" lon="8.63067">
        <ele>603</ele>
        <time>2021-08-07T13:05:41.646Z</time>
      </trkpt>
      <trkpt lat="46.9129" lon="8.63064">
        <ele>603</ele>
        <time>2021-08-07T13:05:42.646Z</time>
      </trkpt>
      <trkpt lat="46.91293" lon="8.63065">
        <ele>604</ele>
        <time>2021-08-07T13:05:43.647Z</time>
      </trkpt>
      <trkpt lat="46.91293" lon="8.63064">
        <ele>604</ele>
        <time>2021-08-07T13:05:44.647Z</time>
      </trkpt>
      <trkpt lat="46.91293" lon="8.63062">
        <ele>605</ele>
        <time>2021-08-07T13:05:45.647Z</time>
      </trkpt>
      <trkpt lat="46.91293" lon="8.63061">
        <ele>605</ele>
        <time>2021-08-07T13:05:46.647Z</time>
      </trkpt>
      <trkpt lat="46.91294" lon="8.63061">
        <ele>606</ele>
        <time>2021-08-07T13:05:47.647Z</time>
      </trkpt>
      <trkpt lat="46.91295" lon="8.63059">
        <ele>606</ele>
        <time>2021-08-07T13:05:48.647Z</time>
      </trkpt>
      <trkpt lat="46.91294" lon="8.63058">
        <ele>606</ele>
        <time>2021-08-07T13:05:49.647Z</time>
      </trkpt>
      <trkpt lat="46.91296" lon="8.63057">
        <ele>607</ele>
        <time>2021-08-07T13:05:50.647Z</time>
      </trkpt>
      <trkpt lat="46.91296" lon="8.63054">
        <ele>607</ele>
        <time>2021-08-07T13:05:51.646Z</time>
      </trkpt>
      <trkpt lat="46.91296" lon="8.63053">
        <ele>608</ele>
        <time>2021-08-07T13:05:52.646Z</time>
      </trkpt>
      <trkpt lat="46.91295" lon="8.63053">
        <ele>608</ele>
        <time>2021-08-07T13:05:53.646Z</time>
      </trkpt>
      <trkpt lat="46.91294" lon="8.63052">
        <ele>609</ele>
        <time>2021-08-07T13:05:54.647Z</time>
      </trkpt>
      <trkpt lat="46.91293" lon="8.63049">
        <ele>609</ele>
        <time>2021-08-07T13:05:55.647Z</time>
      </trkpt>
      <trkpt lat="46.91293" lon="8.63048">
        <ele>610</ele>
        <time>2021-08-07T13:05:56.647Z</time>
      </trkpt>
      <trkpt lat="46.91293" lon="8.63046">
        <ele>610</ele>
        <time>2021-08-07T13:06:27.754Z</time>
      </trkpt>
      <trkpt lat="46.91292" lon="8.63041">
        <ele>611</ele>
        <time>2021-08-07T13:06:28.753Z</time>
      </trkpt>
      <trkpt lat="46.9129" lon="8.63039">
        <ele>611</ele>
        <time>2021-08-07T13:06:29.754Z</time>
      </trkpt>
      <trkpt lat="46.91286" lon="8.63034">
        <ele>611</ele>
        <time>2021-08-07T13:06:30.754Z</time>
      </trkpt>
      <trkpt lat="46.91281" lon="8.63028">
        <ele>612</ele>
        <time>2021-08-07T13:06:31.754Z</time>
      </trkpt>
      <trkpt lat="46.91278" lon="8.63024">
        <ele>612</ele>
        <time>2021-08-07T13:06:32.754Z</time>
      </trkpt>
      <trkpt lat="46.91277" lon="8.63021">
        <ele>612</ele>
        <time>2021-08-07T13:06:33.754Z</time>
      </trkpt>
      <trkpt lat="46.91278" lon="8.63023">
        <ele>612</ele>
        <time>2021-08-07T13:06:34.753Z</time>
      </trkpt>
      <trkpt lat="46.9128" lon="8.63025">
        <ele>612</ele>
        <time>2021-08-07T13:06:35.754Z</time>
      </trkpt>
      <trkpt lat="46.91283" lon="8.63029">
        <ele>612</ele>
        <time>2021-08-07T13:06:36.754Z</time>
      </trkpt>
      <trkpt lat="46.91284" lon="8.63032">
        <ele>612</ele>
        <time>2021-08-07T13:06:37.754Z</time>
      </trkpt>
      <trkpt lat="46.91285" lon="8.63034">
        <ele>612</ele>
        <time>2021-08-07T13:06:38.753Z</time>
      </trkpt>
      <trkpt lat="46.91285" lon="8.63036">
        <ele>613</ele>
        <time>2021-08-07T13:06:39.753Z</time>
      </trkpt>
      <trkpt lat="46.91285" lon="8.63038">
        <ele>613</ele>
        <time>2021-08-07T13:06:40.753Z</time>
      </trkpt>
      <trkpt lat="46.91283" lon="8.63039">
        <ele>613</ele>
        <time>2021-08-07T13:06:41.754Z</time>
      </trkpt>
      <trkpt lat="46.91284" lon="8.63041">
        <ele>613</ele>
        <time>2021-08-07T13:06:42.753Z</time>
      </trkpt>
      <trkpt lat="46.91285" lon="8.63043">
        <ele>613</ele>
        <time>2021-08-07T13:06:43.754Z</time>
      </trkpt>
      <trkpt lat="46.91284" lon="8.63045">
        <ele>613</ele>
        <time>2021-08-07T13:06:44.754Z</time>
      </trkpt>
      <trkpt lat="46.91283" lon="8.63048">
        <ele>613</ele>
        <time>2021-08-07T13:06:48.875Z</time>
      </trkpt>
      <trkpt lat="46.91283" lon="8.6305">
        <ele>613</ele>
        <time>2021-08-07T13:06:49.875Z</time>
      </trkpt>
      <trkpt lat="46.91283" lon="8.63052">
        <ele>613</ele>
        <time>2021-08-07T13:06:50.876Z</time>
      </trkpt>
      <trkpt lat="46.91282" lon="8.63054">
        <ele>613</ele>
        <time>2021-08-07T13:06:51.875Z</time>
      </trkpt>
      <trkpt lat="46.91282" lon="8.63055">
        <ele>613</ele>
        <time>2021-08-07T13:06:52.876Z</time>
      </trkpt>
      <trkpt lat="46.9128" lon="8.63057">
        <ele>613</ele>
        <time>2021-08-07T13:06:53.875Z</time>
      </trkpt>
      <trkpt lat="46.9128" lon="8.63058">
        <ele>613</ele>
        <time>2021-08-07T13:06:54.875Z</time>
      </trkpt>
      <trkpt lat="46.91282" lon="8.63059">
        <ele>613</ele>
        <time>2021-08-07T13:06:55.876Z</time>
      </trkpt>
      <trkpt lat="46.91283" lon="8.63061">
        <ele>613</ele>
        <time>2021-08-07T13:06:56.876Z</time>
      </trkpt>
      <trkpt lat="46.91282" lon="8.63061">
        <ele>613</ele>
        <time>2021-08-07T13:06:57.875Z</time>
      </trkpt>
      <trkpt lat="46.91283" lon="8.63061">
        <ele>613</ele>
        <time>2021-08-07T13:06:58.876Z</time>
      </trkpt>
      <trkpt lat="46.91283" lon="8.63059">
        <ele>613</ele>
        <time>2021-08-07T13:06:59.875Z</time>
      </trkpt>
      <trkpt lat="46.91283" lon="8.63058">
        <ele>612</ele>
        <time>2021-08-07T13:07:00.876Z</time>
      </trkpt>
      <trkpt lat="46.91285" lon="8.63057">
        <ele>612</ele>
        <time>2021-08-07T13:07:01.876Z</time>
      </trkpt>
      <trkpt lat="46.91286" lon="8.63056">
        <ele>612</ele>
        <time>2021-08-07T13:07:02.876Z</time>
      </trkpt>
      <trkpt lat="46.91287" lon="8.63055">
        <ele>612</ele>
        <time>2021-08-07T13:07:03.876Z</time>
      </trkpt>
      <trkpt lat="46.91288" lon="8.63053">
        <ele>612</ele>
        <time>2021-08-07T13:07:04.876Z</time>
      </trkpt>
      <trkpt lat="46.91288" lon="8.63052">
        <ele>612</ele>
        <time>2021-08-07T13:07:05.875Z</time>
      </trkpt>
      <trkpt lat="46.91288" lon="8.6305">
        <ele>612</ele>
        <time>2021-08-07T13:07:06.876Z</time>
      </trkpt>
      <trkpt lat="46.91288" lon="8.63047">
        <ele>612</ele>
        <time>2021-08-07T13:07:07.876Z</time>
      </trkpt>
      <trkpt lat="46.91289" lon="8.63044">
        <ele>612</ele>
        <time>2021-08-07T13:07:08.876Z</time>
      </trkpt>
      <trkpt lat="46.91288" lon="8.63041">
        <ele>613</ele>
        <time>2021-08-07T13:07:09.875Z</time>
      </trkpt>
      <trkpt lat="46.91286" lon="8.63038">
        <ele>613</ele>
        <time>2021-08-07T13:07:10.875Z</time>
      </trkpt>
      <trkpt lat="46.91284" lon="8.63036">
        <ele>613</ele>
        <time>2021-08-07T13:07:11.876Z</time>
      </trkpt>
      <trkpt lat="46.91282" lon="8.63034">
        <ele>614</ele>
        <time>2021-08-07T13:07:12.876Z</time>
      </trkpt>
      <trkpt lat="46.9128" lon="8.63032">
        <ele>614</ele>
        <time>2021-08-07T13:07:13.876Z</time>
      </trkpt>
      <trkpt lat="46.9128" lon="8.63032">
        <ele>614</ele>
        <time>2021-08-07T13:07:14.875Z</time>
      </trkpt>
      <trkpt lat="46.9128" lon="8.63032">
        <ele>614</ele>
        <time>2021-08-07T13:07:15.876Z</time>
      </trkpt>
      <trkpt lat="46.91279" lon="8.63032">
        <ele>614</ele>
        <time>2021-08-07T13:07:16.876Z</time>
      </trkpt>
      <trkpt lat="46.91279" lon="8.63031">
        <ele>613</ele>
        <time>2021-08-07T13:07:17.876Z</time>
      </trkpt>
      <trkpt lat="46.91278" lon="8.6303">
        <ele>613</ele>
        <time>2021-08-07T13:07:18.876Z</time>
      </trkpt>
      <trkpt lat="46.91277" lon="8.6303">
        <ele>613</ele>
        <time>2021-08-07T13:07:19.876Z</time>
      </trkpt>
      <trkpt lat="46.91276" lon="8.63029">
        <ele>612</ele>
        <time>2021-08-07T13:07:20.876Z</time>
      </trkpt>
      <trkpt lat="46.91275" lon="8.63029">
        <ele>611</ele>
        <time>2021-08-07T13:07:21.875Z</time>
      </trkpt>
      <trkpt lat="46.91274" lon="8.63029">
        <ele>611</ele>
        <time>2021-08-07T13:07:22.876Z</time>
      </trkpt>
      <trkpt lat="46.91272" lon="8.63029">
        <ele>610</ele>
        <time>2021-08-07T13:07:23.876Z</time>
      </trkpt>
      <trkpt lat="46.91272" lon="8.6303">
        <ele>610</ele>
        <time>2021-08-07T13:07:24.876Z</time>
      </trkpt>
      <trkpt lat="46.91272" lon="8.6303">
        <ele>608</ele>
        <time>2021-08-07T13:07:25.875Z</time>
      </trkpt>
      <trkpt lat="46.91272" lon="8.6303">
        <ele>607</ele>
        <time>2021-08-07T13:07:26.875Z</time>
      </trkpt>
      <trkpt lat="46.91271" lon="8.63028">
        <ele>606</ele>
        <time>2021-08-07T13:07:39.003Z</time>
      </trkpt>
      <trkpt lat="46.9127" lon="8.63026">
        <ele>605</ele>
        <time>2021-08-07T13:07:40.003Z</time>
      </trkpt>
      <trkpt lat="46.91268" lon="8.63024">
        <ele>604</ele>
        <time>2021-08-07T13:07:41.003Z</time>
      </trkpt>
      <trkpt lat="46.91266" lon="8.63022">
        <ele>603</ele>
        <time>2021-08-07T13:07:42.003Z</time>
      </trkpt>
      <trkpt lat="46.91263" lon="8.6302">
        <ele>602</ele>
        <time>2021-08-07T13:07:43.002Z</time>
      </trkpt>
      <trkpt lat="46.9126" lon="8.63017">
        <ele>602</ele>
        <time>2021-08-07T13:07:44.003Z</time>
      </trkpt>
      <trkpt lat="46.91258" lon="8.63016">
        <ele>601</ele>
        <time>2021-08-07T13:07:45.003Z</time>
      </trkpt>
      <trkpt lat="46.91256" lon="8.63015">
        <ele>600</ele>
        <time>2021-08-07T13:07:46.002Z</time>
      </trkpt>
      <trkpt lat="46.91254" lon="8.63014">
        <ele>599</ele>
        <time>2021-08-07T13:07:47.002Z</time>
      </trkpt>
      <trkpt lat="46.91252" lon="8.63013">
        <ele>598</ele>
        <time>2021-08-07T13:07:48.002Z</time>
      </trkpt>
      <trkpt lat="46.9125" lon="8.63012">
        <ele>597</ele>
        <time>2021-08-07T13:07:49.003Z</time>
      </trkpt>
      <trkpt lat="46.91248" lon="8.63011">
        <ele>596</ele>
        <time>2021-08-07T13:07:50.002Z</time>
      </trkpt>
      <trkpt lat="46.91246" lon="8.63009">
        <ele>595</ele>
        <time>2021-08-07T13:07:51.003Z</time>
      </trkpt>
      <trkpt lat="46.91244" lon="8.63008">
        <ele>594</ele>
        <time>2021-08-07T13:07:52.003Z</time>
      </trkpt>
      <trkpt lat="46.91242" lon="8.63006">
        <ele>593</ele>
        <time>2021-08-07T13:07:53.003Z</time>
      </trkpt>
      <trkpt lat="46.91239" lon="8.63004">
        <ele>592</ele>
        <time>2021-08-07T13:07:54.002Z</time>
      </trkpt>
      <trkpt lat="46.91237" lon="8.63002">
        <ele>591</ele>
        <time>2021-08-07T13:07:55.003Z</time>
      </trkpt>
      <trkpt lat="46.91234" lon="8.63">
        <ele>590</ele>
        <time>2021-08-07T13:07:56.003Z</time>
      </trkpt>
      <trkpt lat="46.91231" lon="8.62999">
        <ele>589</ele>
        <time>2021-08-07T13:07:57.002Z</time>
      </trkpt>
      <trkpt lat="46.9123" lon="8.62999">
        <ele>588</ele>
        <time>2021-08-07T13:07:58.003Z</time>
      </trkpt>
      <trkpt lat="46.91228" lon="8.63001">
        <ele>587</ele>
        <time>2021-08-07T13:07:59.003Z</time>
      </trkpt>
      <trkpt lat="46.91228" lon="8.63002">
        <ele>586</ele>
        <time>2021-08-07T13:08:00.003Z</time>
      </trkpt>
      <trkpt lat="46.91227" lon="8.63">
        <ele>585</ele>
        <time>2021-08-07T13:08:01.002Z</time>
      </trkpt>
      <trkpt lat="46.91226" lon="8.62999">
        <ele>584</ele>
        <time>2021-08-07T13:08:02.003Z</time>
      </trkpt>
      <trkpt lat="46.91226" lon="8.62997">
        <ele>584</ele>
        <time>2021-08-07T13:08:03.002Z</time>
      </trkpt>
      <trkpt lat="46.91225" lon="8.62996">
        <ele>583</ele>
        <time>2021-08-07T13:08:04.002Z</time>
      </trkpt>
      <trkpt lat="46.91225" lon="8.62996">
        <ele>582</ele>
        <time>2021-08-07T13:08:05.003Z</time>
      </trkpt>
      <trkpt lat="46.91224" lon="8.62995">
        <ele>582</ele>
        <time>2021-08-07T13:08:06.003Z</time>
      </trkpt>
      <trkpt lat="46.91223" lon="8.62995">
        <ele>581</ele>
        <time>2021-08-07T13:08:07.002Z</time>
      </trkpt>
      <trkpt lat="46.91223" lon="8.62995">
        <ele>581</ele>
        <time>2021-08-07T13:08:08.002Z</time>
      </trkpt>
      <trkpt lat="46.91223" lon="8.62994">
        <ele>579</ele>
        <time>2021-08-07T13:08:09.003Z</time>
      </trkpt>
      <trkpt lat="46.91222" lon="8.62994">
        <ele>579</ele>
        <time>2021-08-07T13:08:10.003Z</time>
      </trkpt>
      <trkpt lat="46.91221" lon="8.62993">
        <ele>578</ele>
        <time>2021-08-07T13:08:11.002Z</time>
      </trkpt>
      <trkpt lat="46.9122" lon="8.62992">
        <ele>578</ele>
        <time>2021-08-07T13:08:12.003Z</time>
      </trkpt>
      <trkpt lat="46.9122" lon="8.6299">
        <ele>577</ele>
        <time>2021-08-07T13:08:13.002Z</time>
      </trkpt>
      <trkpt lat="46.91219" lon="8.62988">
        <ele>576</ele>
        <time>2021-08-07T13:08:14.003Z</time>
      </trkpt>
      <trkpt lat="46.91218" lon="8.62986">
        <ele>576</ele>
        <time>2021-08-07T13:08:15.003Z</time>
      </trkpt>
      <trkpt lat="46.91218" lon="8.62986">
        <ele>576</ele>
        <time>2021-08-07T13:08:16.003Z</time>
      </trkpt>
      <trkpt lat="46.91217" lon="8.62985">
        <ele>575</ele>
        <time>2021-08-07T13:08:17.002Z</time>
      </trkpt>
      <trkpt lat="46.91217" lon="8.62984">
        <ele>575</ele>
        <time>2021-08-07T13:08:18.003Z</time>
      </trkpt>
      <trkpt lat="46.91216" lon="8.62983">
        <ele>574</ele>
        <time>2021-08-07T13:08:19.003Z</time>
      </trkpt>
      <trkpt lat="46.91216" lon="8.62982">
        <ele>574</ele>
        <time>2021-08-07T13:08:20.003Z</time>
      </trkpt>
      <trkpt lat="46.91215" lon="8.62981">
        <ele>573</ele>
        <time>2021-08-07T13:08:21.003Z</time>
      </trkpt>
      <trkpt lat="46.91214" lon="8.62978">
        <ele>569</ele>
        <time>2021-08-07T13:08:22.003Z</time>
      </trkpt>
      <trkpt lat="46.91214" lon="8.62975">
        <ele>568</ele>
        <time>2021-08-07T13:08:23.002Z</time>
      </trkpt>
      <trkpt lat="46.91213" lon="8.62973">
        <ele>567</ele>
        <time>2021-08-07T13:08:24.003Z</time>
      </trkpt>
      <trkpt lat="46.91213" lon="8.6297">
        <ele>567</ele>
        <time>2021-08-07T13:08:25.003Z</time>
      </trkpt>
      <trkpt lat="46.91213" lon="8.62968">
        <ele>566</ele>
        <time>2021-08-07T13:08:26.003Z</time>
      </trkpt>
      <trkpt lat="46.91212" lon="8.62965">
        <ele>565</ele>
        <time>2021-08-07T13:08:27.002Z</time>
      </trkpt>
      <trkpt lat="46.91212" lon="8.62962">
        <ele>564</ele>
        <time>2021-08-07T13:08:28.003Z</time>
      </trkpt>
      <trkpt lat="46.91212" lon="8.62959">
        <ele>564</ele>
        <time>2021-08-07T13:08:29.002Z</time>
      </trkpt>
      <trkpt lat="46.91212" lon="8.62957">
        <ele>563</ele>
        <time>2021-08-07T13:08:30.002Z</time>
      </trkpt>
      <trkpt lat="46.91211" lon="8.62955">
        <ele>563</ele>
        <time>2021-08-07T13:08:31.002Z</time>
      </trkpt>
      <trkpt lat="46.91211" lon="8.62954">
        <ele>562</ele>
        <time>2021-08-07T13:08:32.002Z</time>
      </trkpt>
      <trkpt lat="46.9121" lon="8.62953">
        <ele>562</ele>
        <time>2021-08-07T13:08:33.003Z</time>
      </trkpt>
      <trkpt lat="46.91209" lon="8.62951">
        <ele>561</ele>
        <time>2021-08-07T13:08:34.003Z</time>
      </trkpt>
      <trkpt lat="46.91209" lon="8.62949">
        <ele>560</ele>
        <time>2021-08-07T13:08:35.003Z</time>
      </trkpt>
      <trkpt lat="46.91209" lon="8.62947">
        <ele>559</ele>
        <time>2021-08-07T13:08:36.003Z</time>
      </trkpt>
      <trkpt lat="46.91208" lon="8.62945">
        <ele>558</ele>
        <time>2021-08-07T13:08:37.003Z</time>
      </trkpt>
      <trkpt lat="46.91208" lon="8.62943">
        <ele>558</ele>
        <time>2021-08-07T13:08:42.144Z</time>
      </trkpt>
      <trkpt lat="46.91207" lon="8.6294">
        <ele>557</ele>
        <time>2021-08-07T13:08:43.145Z</time>
      </trkpt>
      <trkpt lat="46.91207" lon="8.62938">
        <ele>557</ele>
        <time>2021-08-07T13:08:44.145Z</time>
      </trkpt>
      <trkpt lat="46.91207" lon="8.62937">
        <ele>557</ele>
        <time>2021-08-07T13:08:45.145Z</time>
      </trkpt>
      <trkpt lat="46.91207" lon="8.62936">
        <ele>556</ele>
        <time>2021-08-07T13:08:46.145Z</time>
      </trkpt>
      <trkpt lat="46.91207" lon="8.62934">
        <ele>556</ele>
        <time>2021-08-07T13:08:47.144Z</time>
      </trkpt>
      <trkpt lat="46.91207" lon="8.62933">
        <ele>556</ele>
        <time>2021-08-07T13:08:48.144Z</time>
      </trkpt>
      <trkpt lat="46.91207" lon="8.62934">
        <ele>556</ele>
        <time>2021-08-07T13:08:49.145Z</time>
      </trkpt>
      <trkpt lat="46.91207" lon="8.62934">
        <ele>556</ele>
        <time>2021-08-07T13:08:50.145Z</time>
      </trkpt>
      <trkpt lat="46.91206" lon="8.62935">
        <ele>555</ele>
        <time>2021-08-07T13:08:51.145Z</time>
      </trkpt>
      <trkpt lat="46.91206" lon="8.62935">
        <ele>555</ele>
        <time>2021-08-07T13:08:52.144Z</time>
      </trkpt>
      <trkpt lat="46.91205" lon="8.62934">
        <ele>554</ele>
        <time>2021-08-07T13:08:53.144Z</time>
      </trkpt>
      <trkpt lat="46.91205" lon="8.62933">
        <ele>554</ele>
        <time>2021-08-07T13:08:54.144Z</time>
      </trkpt>
      <trkpt lat="46.91205" lon="8.62931">
        <ele>553</ele>
        <time>2021-08-07T13:08:55.144Z</time>
      </trkpt>
      <trkpt lat="46.91204" lon="8.6293">
        <ele>553</ele>
        <time>2021-08-07T13:08:56.144Z</time>
      </trkpt>
      <trkpt lat="46.91204" lon="8.62928">
        <ele>553</ele>
        <time>2021-08-07T13:08:57.144Z</time>
      </trkpt>
      <trkpt lat="46.91204" lon="8.62926">
        <ele>553</ele>
        <time>2021-08-07T13:08:58.144Z</time>
      </trkpt>
      <trkpt lat="46.91204" lon="8.62923">
        <ele>553</ele>
        <time>2021-08-07T13:08:59.144Z</time>
      </trkpt>
      <trkpt lat="46.91203" lon="8.62922">
        <ele>554</ele>
        <time>2021-08-07T13:09:00.145Z</time>
      </trkpt>
      <trkpt lat="46.91203" lon="8.6292">
        <ele>554</ele>
        <time>2021-08-07T13:09:01.145Z</time>
      </trkpt>
      <trkpt lat="46.91203" lon="8.62918">
        <ele>554</ele>
        <time>2021-08-07T13:09:02.144Z</time>
      </trkpt>
      <trkpt lat="46.91203" lon="8.62916">
        <ele>554</ele>
        <time>2021-08-07T13:09:03.144Z</time>
      </trkpt>
      <trkpt lat="46.91203" lon="8.62913">
        <ele>555</ele>
        <time>2021-08-07T13:09:04.144Z</time>
      </trkpt>
      <trkpt lat="46.91203" lon="8.62911">
        <ele>555</ele>
        <time>2021-08-07T13:09:05.144Z</time>
      </trkpt>
      <trkpt lat="46.91203" lon="8.62908">
        <ele>556</ele>
        <time>2021-08-07T13:09:06.144Z</time>
      </trkpt>
      <trkpt lat="46.91203" lon="8.62906">
        <ele>557</ele>
        <time>2021-08-07T13:09:07.144Z</time>
      </trkpt>
      <trkpt lat="46.91203" lon="8.62904">
        <ele>557</ele>
        <time>2021-08-07T13:09:08.144Z</time>
      </trkpt>
      <trkpt lat="46.91203" lon="8.62901">
        <ele>558</ele>
        <time>2021-08-07T13:09:09.144Z</time>
      </trkpt>
      <trkpt lat="46.91202" lon="8.62898">
        <ele>559</ele>
        <time>2021-08-07T13:09:10.144Z</time>
      </trkpt>
      <trkpt lat="46.91202" lon="8.62897">
        <ele>559</ele>
        <time>2021-08-07T13:09:11.144Z</time>
      </trkpt>
      <trkpt lat="46.91204" lon="8.62899">
        <ele>559</ele>
        <time>2021-08-07T13:09:12.144Z</time>
      </trkpt>
      <trkpt lat="46.91204" lon="8.62897">
        <ele>559</ele>
        <time>2021-08-07T13:09:13.144Z</time>
      </trkpt>
      <trkpt lat="46.91202" lon="8.62895">
        <ele>559</ele>
        <time>2021-08-07T13:09:14.144Z</time>
      </trkpt>
      <trkpt lat="46.91201" lon="8.62892">
        <ele>559</ele>
        <time>2021-08-07T13:09:15.144Z</time>
      </trkpt>
      <trkpt lat="46.91201" lon="8.6289">
        <ele>558</ele>
        <time>2021-08-07T13:09:16.145Z</time>
      </trkpt>
      <trkpt lat="46.912" lon="8.62889">
        <ele>558</ele>
        <time>2021-08-07T13:09:17.144Z</time>
      </trkpt>
      <trkpt lat="46.912" lon="8.62887">
        <ele>557</ele>
        <time>2021-08-07T13:09:18.145Z</time>
      </trkpt>
      <trkpt lat="46.91201" lon="8.62885">
        <ele>557</ele>
        <time>2021-08-07T13:09:19.144Z</time>
      </trkpt>
      <trkpt lat="46.91201" lon="8.62883">
        <ele>557</ele>
        <time>2021-08-07T13:09:20.145Z</time>
      </trkpt>
      <trkpt lat="46.91201" lon="8.62881">
        <ele>557</ele>
        <time>2021-08-07T13:09:21.144Z</time>
      </trkpt>
      <trkpt lat="46.91201" lon="8.62878">
        <ele>557</ele>
        <time>2021-08-07T13:09:22.144Z</time>
      </trkpt>
      <trkpt lat="46.91201" lon="8.62876">
        <ele>556</ele>
        <time>2021-08-07T13:09:23.144Z</time>
      </trkpt>
      <trkpt lat="46.91201" lon="8.62874">
        <ele>556</ele>
        <time>2021-08-07T13:09:24.144Z</time>
      </trkpt>
      <trkpt lat="46.91201" lon="8.62871">
        <ele>555</ele>
        <time>2021-08-07T13:09:25.145Z</time>
      </trkpt>
      <trkpt lat="46.91201" lon="8.62869">
        <ele>555</ele>
        <time>2021-08-07T13:09:26.145Z</time>
      </trkpt>
      <trkpt lat="46.91202" lon="8.62866">
        <ele>555</ele>
        <time>2021-08-07T13:09:27.145Z</time>
      </trkpt>
      <trkpt lat="46.91202" lon="8.62864">
        <ele>555</ele>
        <time>2021-08-07T13:09:28.145Z</time>
      </trkpt>
      <trkpt lat="46.91202" lon="8.62863">
        <ele>555</ele>
        <time>2021-08-07T13:09:29.144Z</time>
      </trkpt>
      <trkpt lat="46.91201" lon="8.62861">
        <ele>555</ele>
        <time>2021-08-07T13:09:30.145Z</time>
      </trkpt>
      <trkpt lat="46.91201" lon="8.6286">
        <ele>555</ele>
        <time>2021-08-07T13:09:31.145Z</time>
      </trkpt>
      <trkpt lat="46.91201" lon="8.62858">
        <ele>554</ele>
        <time>2021-08-07T13:09:48.271Z</time>
      </trkpt>
      <trkpt lat="46.912" lon="8.62856">
        <ele>554</ele>
        <time>2021-08-07T13:09:49.270Z</time>
      </trkpt>
      <trkpt lat="46.912" lon="8.62855">
        <ele>554</ele>
        <time>2021-08-07T13:09:50.270Z</time>
      </trkpt>
      <trkpt lat="46.912" lon="8.62853">
        <ele>553</ele>
        <time>2021-08-07T13:09:51.271Z</time>
      </trkpt>
      <trkpt lat="46.91201" lon="8.62851">
        <ele>553</ele>
        <time>2021-08-07T13:09:52.271Z</time>
      </trkpt>
      <trkpt lat="46.912" lon="8.62848">
        <ele>553</ele>
        <time>2021-08-07T13:09:53.270Z</time>
      </trkpt>
      <trkpt lat="46.912" lon="8.62846">
        <ele>552</ele>
        <time>2021-08-07T13:09:54.271Z</time>
      </trkpt>
      <trkpt lat="46.91199" lon="8.62843">
        <ele>552</ele>
        <time>2021-08-07T13:09:55.271Z</time>
      </trkpt>
      <trkpt lat="46.91199" lon="8.62841">
        <ele>552</ele>
        <time>2021-08-07T13:09:56.271Z</time>
      </trkpt>
      <trkpt lat="46.91199" lon="8.62838">
        <ele>552</ele>
        <time>2021-08-07T13:09:57.271Z</time>
      </trkpt>
      <trkpt lat="46.91199" lon="8.62836">
        <ele>552</ele>
        <time>2021-08-07T13:09:58.271Z</time>
      </trkpt>
      <trkpt lat="46.912" lon="8.62834">
        <ele>552</ele>
        <time>2021-08-07T13:09:59.270Z</time>
      </trkpt>
      <trkpt lat="46.912" lon="8.62832">
        <ele>551</ele>
        <time>2021-08-07T13:10:00.271Z</time>
      </trkpt>
      <trkpt lat="46.91201" lon="8.6283">
        <ele>551</ele>
        <time>2021-08-07T13:10:01.270Z</time>
      </trkpt>
      <trkpt lat="46.91201" lon="8.62828">
        <ele>550</ele>
        <time>2021-08-07T13:10:02.271Z</time>
      </trkpt>
      <trkpt lat="46.91202" lon="8.62826">
        <ele>550</ele>
        <time>2021-08-07T13:10:03.271Z</time>
      </trkpt>
      <trkpt lat="46.91202" lon="8.62824">
        <ele>550</ele>
        <time>2021-08-07T13:10:04.270Z</time>
      </trkpt>
      <trkpt lat="46.91203" lon="8.62821">
        <ele>550</ele>
        <time>2021-08-07T13:10:05.271Z</time>
      </trkpt>
      <trkpt lat="46.91203" lon="8.62819">
        <ele>550</ele>
        <time>2021-08-07T13:10:06.271Z</time>
      </trkpt>
      <trkpt lat="46.91204" lon="8.62816">
        <ele>550</ele>
        <time>2021-08-07T13:10:07.270Z</time>
      </trkpt>
      <trkpt lat="46.91205" lon="8.62815">
        <ele>550</ele>
        <time>2021-08-07T13:10:08.271Z</time>
      </trkpt>
      <trkpt lat="46.91206" lon="8.62812">
        <ele>550</ele>
        <time>2021-08-07T13:10:09.271Z</time>
      </trkpt>
      <trkpt lat="46.91206" lon="8.6281">
        <ele>550</ele>
        <time>2021-08-07T13:10:10.270Z</time>
      </trkpt>
      <trkpt lat="46.91207" lon="8.62808">
        <ele>550</ele>
        <time>2021-08-07T13:10:11.271Z</time>
      </trkpt>
      <trkpt lat="46.91208" lon="8.62806">
        <ele>550</ele>
        <time>2021-08-07T13:10:12.271Z</time>
      </trkpt>
      <trkpt lat="46.9121" lon="8.62805">
        <ele>550</ele>
        <time>2021-08-07T13:10:13.271Z</time>
      </trkpt>
      <trkpt lat="46.9121" lon="8.62804">
        <ele>550</ele>
        <time>2021-08-07T13:10:14.271Z</time>
      </trkpt>
      <trkpt lat="46.91211" lon="8.62802">
        <ele>550</ele>
        <time>2021-08-07T13:10:15.271Z</time>
      </trkpt>
      <trkpt lat="46.91211" lon="8.628">
        <ele>550</ele>
        <time>2021-08-07T13:10:16.271Z</time>
      </trkpt>
      <trkpt lat="46.91212" lon="8.62798">
        <ele>550</ele>
        <time>2021-08-07T13:10:17.271Z</time>
      </trkpt>
      <trkpt lat="46.91212" lon="8.62796">
        <ele>550</ele>
        <time>2021-08-07T13:10:18.271Z</time>
      </trkpt>
      <trkpt lat="46.91213" lon="8.62794">
        <ele>550</ele>
        <time>2021-08-07T13:10:19.271Z</time>
      </trkpt>
      <trkpt lat="46.91214" lon="8.62793">
        <ele>550</ele>
        <time>2021-08-07T13:10:20.271Z</time>
      </trkpt>
      <trkpt lat="46.91215" lon="8.62791">
        <ele>550</ele>
        <time>2021-08-07T13:10:21.271Z</time>
      </trkpt>
      <trkpt lat="46.91216" lon="8.62789">
        <ele>550</ele>
        <time>2021-08-07T13:10:22.271Z</time>
      </trkpt>
      <trkpt lat="46.91216" lon="8.62786">
        <ele>550</ele>
        <time>2021-08-07T13:10:23.270Z</time>
      </trkpt>
      <trkpt lat="46.91217" lon="8.62784">
        <ele>549</ele>
        <time>2021-08-07T13:10:24.270Z</time>
      </trkpt>
      <trkpt lat="46.91218" lon="8.62783">
        <ele>549</ele>
        <time>2021-08-07T13:10:25.271Z</time>
      </trkpt>
      <trkpt lat="46.91219" lon="8.62781">
        <ele>549</ele>
        <time>2021-08-07T13:10:26.271Z</time>
      </trkpt>
      <trkpt lat="46.91219" lon="8.62779">
        <ele>548</ele>
        <time>2021-08-07T13:10:27.271Z</time>
      </trkpt>
      <trkpt lat="46.91218" lon="8.62777">
        <ele>548</ele>
        <time>2021-08-07T13:10:28.271Z</time>
      </trkpt>
      <trkpt lat="46.91218" lon="8.62776">
        <ele>547</ele>
        <time>2021-08-07T13:10:29.271Z</time>
      </trkpt>
      <trkpt lat="46.91219" lon="8.62774">
        <ele>547</ele>
        <time>2021-08-07T13:10:30.271Z</time>
      </trkpt>
      <trkpt lat="46.91218" lon="8.62772">
        <ele>546</ele>
        <time>2021-08-07T13:10:31.271Z</time>
      </trkpt>
      <trkpt lat="46.91219" lon="8.62771">
        <ele>545</ele>
        <time>2021-08-07T13:10:32.270Z</time>
      </trkpt>
      <trkpt lat="46.91219" lon="8.62771">
        <ele>545</ele>
        <time>2021-08-07T13:10:33.271Z</time>
      </trkpt>
      <trkpt lat="46.9122" lon="8.6277">
        <ele>544</ele>
        <time>2021-08-07T13:10:34.270Z</time>
      </trkpt>
      <trkpt lat="46.9122" lon="8.62769">
        <ele>543</ele>
        <time>2021-08-07T13:10:35.270Z</time>
      </trkpt>
      <trkpt lat="46.91221" lon="8.62769">
        <ele>543</ele>
        <time>2021-08-07T13:10:36.270Z</time>
      </trkpt>
      <trkpt lat="46.91221" lon="8.62767">
        <ele>542</ele>
        <time>2021-08-07T13:10:37.270Z</time>
      </trkpt>
      <trkpt lat="46.91221" lon="8.62768">
        <ele>541</ele>
        <time>2021-08-07T13:10:38.271Z</time>
      </trkpt>
      <trkpt lat="46.91222" lon="8.62768">
        <ele>541</ele>
        <time>2021-08-07T13:10:39.270Z</time>
      </trkpt>
      <trkpt lat="46.91221" lon="8.62768">
        <ele>540</ele>
        <time>2021-08-07T13:10:40.271Z</time>
      </trkpt>
      <trkpt lat="46.91221" lon="8.62768">
        <ele>540</ele>
        <time>2021-08-07T13:10:41.271Z</time>
      </trkpt>
      <trkpt lat="46.9122" lon="8.62767">
        <ele>540</ele>
        <time>2021-08-07T13:10:42.271Z</time>
      </trkpt>
      <trkpt lat="46.9122" lon="8.62767">
        <ele>539</ele>
        <time>2021-08-07T13:10:43.271Z</time>
      </trkpt>
      <trkpt lat="46.91219" lon="8.62766">
        <ele>539</ele>
        <time>2021-08-07T13:10:44.271Z</time>
      </trkpt>
      <trkpt lat="46.91219" lon="8.62766">
        <ele>539</ele>
        <time>2021-08-07T13:10:45.271Z</time>
      </trkpt>
      <trkpt lat="46.91219" lon="8.62766">
        <ele>539</ele>
        <time>2021-08-07T13:10:46.271Z</time>
      </trkpt>
      <trkpt lat="46.91218" lon="8.62767">
        <ele>539</ele>
        <time>2021-08-07T13:10:47.271Z</time>
      </trkpt>
      <trkpt lat="46.91219" lon="8.62767">
        <ele>538</ele>
        <time>2021-08-07T13:10:48.270Z</time>
      </trkpt>
      <trkpt lat="46.9122" lon="8.62767">
        <ele>536</ele>
        <time>2021-08-07T13:10:49.272Z</time>
      </trkpt>
      <trkpt lat="46.91219" lon="8.62767">
        <ele>535</ele>
        <time>2021-08-07T13:10:50.271Z</time>
      </trkpt>
      <trkpt lat="46.91219" lon="8.62767">
        <ele>535</ele>
        <time>2021-08-07T13:10:51.272Z</time>
      </trkpt>
      <trkpt lat="46.91219" lon="8.62766">
        <ele>534</ele>
        <time>2021-08-07T13:10:52.272Z</time>
      </trkpt>
      <trkpt lat="46.9122" lon="8.62766">
        <ele>533</ele>
        <time>2021-08-07T13:10:53.272Z</time>
      </trkpt>
      <trkpt lat="46.9122" lon="8.62765">
        <ele>533</ele>
        <time>2021-08-07T13:10:54.272Z</time>
      </trkpt>
      <trkpt lat="46.9122" lon="8.62765">
        <ele>532</ele>
        <time>2021-08-07T13:10:55.272Z</time>
      </trkpt>
      <trkpt lat="46.9122" lon="8.62763">
        <ele>532</ele>
        <time>2021-08-07T13:10:59.270Z</time>
      </trkpt>
      <trkpt lat="46.91221" lon="8.62762">
        <ele>532</ele>
        <time>2021-08-07T13:11:00.270Z</time>
      </trkpt>
      <trkpt lat="46.91222" lon="8.62761">
        <ele>532</ele>
        <time>2021-08-07T13:11:01.269Z</time>
      </trkpt>
      <trkpt lat="46.91223" lon="8.6276">
        <ele>532</ele>
        <time>2021-08-07T13:11:02.270Z</time>
      </trkpt>
      <trkpt lat="46.91225" lon="8.6276">
        <ele>532</ele>
        <time>2021-08-07T13:11:24.413Z</time>
      </trkpt>
      <trkpt lat="46.91226" lon="8.6276">
        <ele>532</ele>
        <time>2021-08-07T13:11:25.413Z</time>
      </trkpt>
      <trkpt lat="46.91228" lon="8.62759">
        <ele>532</ele>
        <time>2021-08-07T13:11:26.414Z</time>
      </trkpt>
      <trkpt lat="46.91229" lon="8.62757">
        <ele>532</ele>
        <time>2021-08-07T13:11:27.414Z</time>
      </trkpt>
      <trkpt lat="46.9123" lon="8.62755">
        <ele>532</ele>
        <time>2021-08-07T13:11:28.414Z</time>
      </trkpt>
      <trkpt lat="46.91231" lon="8.62753">
        <ele>532</ele>
        <time>2021-08-07T13:11:29.413Z</time>
      </trkpt>
      <trkpt lat="46.91232" lon="8.62751">
        <ele>531</ele>
        <time>2021-08-07T13:11:30.414Z</time>
      </trkpt>
      <trkpt lat="46.91232" lon="8.62748">
        <ele>531</ele>
        <time>2021-08-07T13:11:31.414Z</time>
      </trkpt>
      <trkpt lat="46.91232" lon="8.62745">
        <ele>531</ele>
        <time>2021-08-07T13:11:32.413Z</time>
      </trkpt>
      <trkpt lat="46.91233" lon="8.62742">
        <ele>531</ele>
        <time>2021-08-07T13:11:33.414Z</time>
      </trkpt>
      <trkpt lat="46.91234" lon="8.6274">
        <ele>531</ele>
        <time>2021-08-07T13:11:34.414Z</time>
      </trkpt>
      <trkpt lat="46.91235" lon="8.62738">
        <ele>531</ele>
        <time>2021-08-07T13:11:35.414Z</time>
      </trkpt>
      <trkpt lat="46.91237" lon="8.62736">
        <ele>531</ele>
        <time>2021-08-07T13:11:36.413Z</time>
      </trkpt>
      <trkpt lat="46.91238" lon="8.62734">
        <ele>531</ele>
        <time>2021-08-07T13:11:37.413Z</time>
      </trkpt>
      <trkpt lat="46.91239" lon="8.62732">
        <ele>531</ele>
        <time>2021-08-07T13:11:38.414Z</time>
      </trkpt>
      <trkpt lat="46.9124" lon="8.6273">
        <ele>531</ele>
        <time>2021-08-07T13:11:39.413Z</time>
      </trkpt>
      <trkpt lat="46.91242" lon="8.62729">
        <ele>531</ele>
        <time>2021-08-07T13:11:40.414Z</time>
      </trkpt>
      <trkpt lat="46.91243" lon="8.62726">
        <ele>531</ele>
        <time>2021-08-07T13:11:41.414Z</time>
      </trkpt>
      <trkpt lat="46.91244" lon="8.62725">
        <ele>531</ele>
        <time>2021-08-07T13:11:42.413Z</time>
      </trkpt>
      <trkpt lat="46.91245" lon="8.62723">
        <ele>531</ele>
        <time>2021-08-07T13:11:43.413Z</time>
      </trkpt>
      <trkpt lat="46.91246" lon="8.62722">
        <ele>531</ele>
        <time>2021-08-07T13:11:44.414Z</time>
      </trkpt>
      <trkpt lat="46.91246" lon="8.62721">
        <ele>531</ele>
        <time>2021-08-07T13:11:45.414Z</time>
      </trkpt>
      <trkpt lat="46.91248" lon="8.62719">
        <ele>531</ele>
        <time>2021-08-07T13:11:46.414Z</time>
      </trkpt>
      <trkpt lat="46.91249" lon="8.62719">
        <ele>530</ele>
        <time>2021-08-07T13:11:47.414Z</time>
      </trkpt>
      <trkpt lat="46.91251" lon="8.62717">
        <ele>530</ele>
        <time>2021-08-07T13:11:48.413Z</time>
      </trkpt>
      <trkpt lat="46.91252" lon="8.62715">
        <ele>530</ele>
        <time>2021-08-07T13:11:49.413Z</time>
      </trkpt>
      <trkpt lat="46.91252" lon="8.62714">
        <ele>529</ele>
        <time>2021-08-07T13:11:50.414Z</time>
      </trkpt>
      <trkpt lat="46.91253" lon="8.62711">
        <ele>529</ele>
        <time>2021-08-07T13:11:51.414Z</time>
      </trkpt>
      <trkpt lat="46.91253" lon="8.62709">
        <ele>528</ele>
        <time>2021-08-07T13:12:03.531Z</time>
      </trkpt>
      <trkpt lat="46.91254" lon="8.62708">
        <ele>528</ele>
        <time>2021-08-07T13:12:04.532Z</time>
      </trkpt>
      <trkpt lat="46.91256" lon="8.62707">
        <ele>528</ele>
        <time>2021-08-07T13:12:05.532Z</time>
      </trkpt>
      <trkpt lat="46.91257" lon="8.62705">
        <ele>528</ele>
        <time>2021-08-07T13:12:06.532Z</time>
      </trkpt>
      <trkpt lat="46.91258" lon="8.62704">
        <ele>527</ele>
        <time>2021-08-07T13:12:07.532Z</time>
      </trkpt>
      <trkpt lat="46.91259" lon="8.62702">
        <ele>527</ele>
        <time>2021-08-07T13:12:08.532Z</time>
      </trkpt>
      <trkpt lat="46.91259" lon="8.627">
        <ele>527</ele>
        <time>2021-08-07T13:12:09.532Z</time>
      </trkpt>
      <trkpt lat="46.91259" lon="8.62698">
        <ele>526</ele>
        <time>2021-08-07T13:12:10.531Z</time>
      </trkpt>
      <trkpt lat="46.9126" lon="8.62696">
        <ele>526</ele>
        <time>2021-08-07T13:12:11.531Z</time>
      </trkpt>
      <trkpt lat="46.91261" lon="8.62694">
        <ele>526</ele>
        <time>2021-08-07T13:12:12.532Z</time>
      </trkpt>
      <trkpt lat="46.91261" lon="8.62693">
        <ele>526</ele>
        <time>2021-08-07T13:12:13.532Z</time>
      </trkpt>
      <trkpt lat="46.91262" lon="8.62692">
        <ele>526</ele>
        <time>2021-08-07T13:12:14.532Z</time>
      </trkpt>
      <trkpt lat="46.91263" lon="8.62691">
        <ele>526</ele>
        <time>2021-08-07T13:12:15.532Z</time>
      </trkpt>
      <trkpt lat="46.91264" lon="8.62689">
        <ele>525</ele>
        <time>2021-08-07T13:12:16.532Z</time>
      </trkpt>
      <trkpt lat="46.91266" lon="8.62689">
        <ele>525</ele>
        <time>2021-08-07T13:12:17.531Z</time>
      </trkpt>
      <trkpt lat="46.91267" lon="8.62686">
        <ele>524</ele>
        <time>2021-08-07T13:12:18.532Z</time>
      </trkpt>
      <trkpt lat="46.91268" lon="8.62683">
        <ele>524</ele>
        <time>2021-08-07T13:12:19.531Z</time>
      </trkpt>
      <trkpt lat="46.91268" lon="8.62681">
        <ele>524</ele>
        <time>2021-08-07T13:12:20.531Z</time>
      </trkpt>
      <trkpt lat="46.9127" lon="8.62679">
        <ele>524</ele>
        <time>2021-08-07T13:12:21.532Z</time>
      </trkpt>
      <trkpt lat="46.91271" lon="8.62677">
        <ele>524</ele>
        <time>2021-08-07T13:12:22.532Z</time>
      </trkpt>
      <trkpt lat="46.91271" lon="8.62675">
        <ele>523</ele>
        <time>2021-08-07T13:12:23.532Z</time>
      </trkpt>
      <trkpt lat="46.91271" lon="8.62673">
        <ele>523</ele>
        <time>2021-08-07T13:12:24.532Z</time>
      </trkpt>
      <trkpt lat="46.91271" lon="8.62673">
        <ele>523</ele>
        <time>2021-08-07T13:12:25.531Z</time>
      </trkpt>
      <trkpt lat="46.91272" lon="8.62672">
        <ele>522</ele>
        <time>2021-08-07T13:12:26.532Z</time>
      </trkpt>
      <trkpt lat="46.91272" lon="8.62671">
        <ele>522</ele>
        <time>2021-08-07T13:12:27.532Z</time>
      </trkpt>
      <trkpt lat="46.91273" lon="8.62669">
        <ele>522</ele>
        <time>2021-08-07T13:12:28.532Z</time>
      </trkpt>
      <trkpt lat="46.91274" lon="8.62667">
        <ele>521</ele>
        <time>2021-08-07T13:12:29.531Z</time>
      </trkpt>
      <trkpt lat="46.91276" lon="8.62666">
        <ele>521</ele>
        <time>2021-08-07T13:12:30.532Z</time>
      </trkpt>
      <trkpt lat="46.91277" lon="8.62665">
        <ele>521</ele>
        <time>2021-08-07T13:12:31.531Z</time>
      </trkpt>
      <trkpt lat="46.91278" lon="8.62663">
        <ele>520</ele>
        <time>2021-08-07T13:12:32.531Z</time>
      </trkpt>
      <trkpt lat="46.91279" lon="8.62662">
        <ele>520</ele>
        <time>2021-08-07T13:12:33.532Z</time>
      </trkpt>
      <trkpt lat="46.91279" lon="8.62661">
        <ele>520</ele>
        <time>2021-08-07T13:12:34.532Z</time>
      </trkpt>
      <trkpt lat="46.9128" lon="8.62659">
        <ele>519</ele>
        <time>2021-08-07T13:12:35.532Z</time>
      </trkpt>
      <trkpt lat="46.91281" lon="8.62658">
        <ele>518</ele>
        <time>2021-08-07T13:12:36.532Z</time>
      </trkpt>
      <trkpt lat="46.91283" lon="8.62656">
        <ele>518</ele>
        <time>2021-08-07T13:12:37.531Z</time>
      </trkpt>
      <trkpt lat="46.91285" lon="8.62654">
        <ele>517</ele>
        <time>2021-08-07T13:12:38.532Z</time>
      </trkpt>
      <trkpt lat="46.91286" lon="8.62652">
        <ele>517</ele>
        <time>2021-08-07T13:12:39.531Z</time>
      </trkpt>
      <trkpt lat="46.91287" lon="8.6265">
        <ele>516</ele>
        <time>2021-08-07T13:12:40.532Z</time>
      </trkpt>
      <trkpt lat="46.91288" lon="8.62648">
        <ele>516</ele>
        <time>2021-08-07T13:12:41.532Z</time>
      </trkpt>
      <trkpt lat="46.91289" lon="8.62647">
        <ele>516</ele>
        <time>2021-08-07T13:12:42.531Z</time>
      </trkpt>
      <trkpt lat="46.91289" lon="8.62646">
        <ele>515</ele>
        <time>2021-08-07T13:12:43.531Z</time>
      </trkpt>
      <trkpt lat="46.91291" lon="8.62645">
        <ele>515</ele>
        <time>2021-08-07T13:12:44.532Z</time>
      </trkpt>
      <trkpt lat="46.91292" lon="8.62644">
        <ele>514</ele>
        <time>2021-08-07T13:12:45.532Z</time>
      </trkpt>
      <trkpt lat="46.91293" lon="8.62643">
        <ele>514</ele>
        <time>2021-08-07T13:12:46.532Z</time>
      </trkpt>
      <trkpt lat="46.91295" lon="8.62643">
        <ele>513</ele>
        <time>2021-08-07T13:12:47.532Z</time>
      </trkpt>
      <trkpt lat="46.91296" lon="8.62641">
        <ele>513</ele>
        <time>2021-08-07T13:12:48.532Z</time>
      </trkpt>
      <trkpt lat="46.91298" lon="8.6264">
        <ele>512</ele>
        <time>2021-08-07T13:12:49.531Z</time>
      </trkpt>
      <trkpt lat="46.91299" lon="8.6264">
        <ele>512</ele>
        <time>2021-08-07T13:12:50.531Z</time>
      </trkpt>
      <trkpt lat="46.91299" lon="8.62639">
        <ele>512</ele>
        <time>2021-08-07T13:12:51.532Z</time>
      </trkpt>
      <trkpt lat="46.91299" lon="8.62637">
        <ele>511</ele>
        <time>2021-08-07T13:12:52.532Z</time>
      </trkpt>
      <trkpt lat="46.913" lon="8.62636">
        <ele>511</ele>
        <time>2021-08-07T13:12:53.531Z</time>
      </trkpt>
      <trkpt lat="46.91301" lon="8.62634">
        <ele>511</ele>
        <time>2021-08-07T13:12:54.532Z</time>
      </trkpt>
      <trkpt lat="46.91302" lon="8.62632">
        <ele>510</ele>
        <time>2021-08-07T13:12:55.532Z</time>
      </trkpt>
      <trkpt lat="46.91303" lon="8.6263">
        <ele>510</ele>
        <time>2021-08-07T13:12:56.532Z</time>
      </trkpt>
      <trkpt lat="46.91304" lon="8.62628">
        <ele>509</ele>
        <time>2021-08-07T13:12:57.531Z</time>
      </trkpt>
      <trkpt lat="46.91305" lon="8.62625">
        <ele>509</ele>
        <time>2021-08-07T13:12:58.532Z</time>
      </trkpt>
      <trkpt lat="46.91306" lon="8.62623">
        <ele>508</ele>
        <time>2021-08-07T13:12:59.532Z</time>
      </trkpt>
      <trkpt lat="46.91307" lon="8.62621">
        <ele>508</ele>
        <time>2021-08-07T13:13:00.532Z</time>
      </trkpt>
      <trkpt lat="46.91309" lon="8.62619">
        <ele>508</ele>
        <time>2021-08-07T13:13:01.532Z</time>
      </trkpt>
      <trkpt lat="46.9131" lon="8.62617">
        <ele>507</ele>
        <time>2021-08-07T13:13:02.532Z</time>
      </trkpt>
      <trkpt lat="46.9131" lon="8.62614">
        <ele>507</ele>
        <time>2021-08-07T13:13:03.532Z</time>
      </trkpt>
      <trkpt lat="46.91311" lon="8.62612">
        <ele>506</ele>
        <time>2021-08-07T13:13:04.531Z</time>
      </trkpt>
      <trkpt lat="46.91313" lon="8.62611">
        <ele>506</ele>
        <time>2021-08-07T13:13:05.531Z</time>
      </trkpt>
      <trkpt lat="46.91314" lon="8.62609">
        <ele>506</ele>
        <time>2021-08-07T13:13:06.532Z</time>
      </trkpt>
      <trkpt lat="46.91315" lon="8.62608">
        <ele>506</ele>
        <time>2021-08-07T13:13:07.531Z</time>
      </trkpt>
      <trkpt lat="46.91317" lon="8.62606">
        <ele>506</ele>
        <time>2021-08-07T13:13:08.531Z</time>
      </trkpt>
      <trkpt lat="46.91318" lon="8.62604">
        <ele>507</ele>
        <time>2021-08-07T13:13:09.532Z</time>
      </trkpt>
      <trkpt lat="46.9132" lon="8.62603">
        <ele>507</ele>
        <time>2021-08-07T13:13:10.532Z</time>
      </trkpt>
      <trkpt lat="46.9132" lon="8.62601">
        <ele>507</ele>
        <time>2021-08-07T13:13:11.532Z</time>
      </trkpt>
      <trkpt lat="46.91322" lon="8.626">
        <ele>507</ele>
        <time>2021-08-07T13:13:12.531Z</time>
      </trkpt>
      <trkpt lat="46.91324" lon="8.62599">
        <ele>507</ele>
        <time>2021-08-07T13:13:13.531Z</time>
      </trkpt>
      <trkpt lat="46.91326" lon="8.62597">
        <ele>507</ele>
        <time>2021-08-07T13:13:14.531Z</time>
      </trkpt>
      <trkpt lat="46.91327" lon="8.62595">
        <ele>507</ele>
        <time>2021-08-07T13:13:15.531Z</time>
      </trkpt>
      <trkpt lat="46.91329" lon="8.62594">
        <ele>507</ele>
        <time>2021-08-07T13:13:16.531Z</time>
      </trkpt>
      <trkpt lat="46.9133" lon="8.62592">
        <ele>507</ele>
        <time>2021-08-07T13:13:17.531Z</time>
      </trkpt>
      <trkpt lat="46.91331" lon="8.6259">
        <ele>506</ele>
        <time>2021-08-07T13:13:18.531Z</time>
      </trkpt>
      <trkpt lat="46.91332" lon="8.62588">
        <ele>506</ele>
        <time>2021-08-07T13:13:19.531Z</time>
      </trkpt>
      <trkpt lat="46.91333" lon="8.62587">
        <ele>506</ele>
        <time>2021-08-07T13:13:20.531Z</time>
      </trkpt>
      <trkpt lat="46.91335" lon="8.62585">
        <ele>506</ele>
        <time>2021-08-07T13:13:21.531Z</time>
      </trkpt>
      <trkpt lat="46.91335" lon="8.62584">
        <ele>505</ele>
        <time>2021-08-07T13:13:22.531Z</time>
      </trkpt>
      <trkpt lat="46.91336" lon="8.62583">
        <ele>505</ele>
        <time>2021-08-07T13:13:23.532Z</time>
      </trkpt>
      <trkpt lat="46.91337" lon="8.62582">
        <ele>505</ele>
        <time>2021-08-07T13:13:30.614Z</time>
      </trkpt>
      <trkpt lat="46.91338" lon="8.6258">
        <ele>504</ele>
        <time>2021-08-07T13:13:42.505Z</time>
      </trkpt>
      <trkpt lat="46.91338" lon="8.62579">
        <ele>504</ele>
        <time>2021-08-07T13:13:43.505Z</time>
      </trkpt>
      <trkpt lat="46.91339" lon="8.62578">
        <ele>503</ele>
        <time>2021-08-07T13:13:44.504Z</time>
      </trkpt>
      <trkpt lat="46.9134" lon="8.62577">
        <ele>503</ele>
        <time>2021-08-07T13:13:45.504Z</time>
      </trkpt>
      <trkpt lat="46.91341" lon="8.62576">
        <ele>502</ele>
        <time>2021-08-07T13:13:46.505Z</time>
      </trkpt>
      <trkpt lat="46.91342" lon="8.62574">
        <ele>501</ele>
        <time>2021-08-07T13:13:47.504Z</time>
      </trkpt>
      <trkpt lat="46.91343" lon="8.62571">
        <ele>501</ele>
        <time>2021-08-07T13:14:39.637Z</time>
      </trkpt>
      <trkpt lat="46.91344" lon="8.62569">
        <ele>501</ele>
        <time>2021-08-07T13:14:40.637Z</time>
      </trkpt>
      <trkpt lat="46.91345" lon="8.62567">
        <ele>500</ele>
        <time>2021-08-07T13:14:50.739Z</time>
      </trkpt>
      <trkpt lat="46.91346" lon="8.62565">
        <ele>500</ele>
        <time>2021-08-07T13:14:51.739Z</time>
      </trkpt>
      <trkpt lat="46.91347" lon="8.62564">
        <ele>500</ele>
        <time>2021-08-07T13:14:52.739Z</time>
      </trkpt>
      <trkpt lat="46.91348" lon="8.62563">
        <ele>499</ele>
        <time>2021-08-07T13:15:00.861Z</time>
      </trkpt>
      <trkpt lat="46.91347" lon="8.6256">
        <ele>498</ele>
        <time>2021-08-07T13:15:01.861Z</time>
      </trkpt>
      <trkpt lat="46.91347" lon="8.62557">
        <ele>498</ele>
        <time>2021-08-07T13:15:02.861Z</time>
      </trkpt>
      <trkpt lat="46.91347" lon="8.62555">
        <ele>498</ele>
        <time>2021-08-07T13:15:05.617Z</time>
      </trkpt>
      <trkpt lat="46.91348" lon="8.62553">
        <ele>497</ele>
        <time>2021-08-07T13:15:12.497Z</time>
      </trkpt>
      <trkpt lat="46.91348" lon="8.62551">
        <ele>497</ele>
        <time>2021-08-07T13:15:13.497Z</time>
      </trkpt>
      <trkpt lat="46.91349" lon="8.6255">
        <ele>497</ele>
        <time>2021-08-07T13:15:14.497Z</time>
      </trkpt>
      <trkpt lat="46.9135" lon="8.6255">
        <ele>497</ele>
        <time>2021-08-07T13:15:15.497Z</time>
      </trkpt>
      <trkpt lat="46.91351" lon="8.62549">
        <ele>497</ele>
        <time>2021-08-07T13:15:16.497Z</time>
      </trkpt>
      <trkpt lat="46.91352" lon="8.62549">
        <ele>498</ele>
        <time>2021-08-07T13:15:17.497Z</time>
      </trkpt>
      <trkpt lat="46.91353" lon="8.62548">
        <ele>497</ele>
        <time>2021-08-07T13:15:18.497Z</time>
      </trkpt>
      <trkpt lat="46.91355" lon="8.62548">
        <ele>497</ele>
        <time>2021-08-07T13:15:19.497Z</time>
      </trkpt>
      <trkpt lat="46.91356" lon="8.62546">
        <ele>497</ele>
        <time>2021-08-07T13:15:20.498Z</time>
      </trkpt>
      <trkpt lat="46.91357" lon="8.62546">
        <ele>496</ele>
        <time>2021-08-07T13:15:21.498Z</time>
      </trkpt>
      <trkpt lat="46.91358" lon="8.62545">
        <ele>496</ele>
        <time>2021-08-07T13:15:31.645Z</time>
      </trkpt>
      <trkpt lat="46.91359" lon="8.62542">
        <ele>496</ele>
        <time>2021-08-07T13:15:32.646Z</time>
      </trkpt>
      <trkpt lat="46.9136" lon="8.6254">
        <ele>496</ele>
        <time>2021-08-07T13:15:33.646Z</time>
      </trkpt>
      <trkpt lat="46.9136" lon="8.62538">
        <ele>495</ele>
        <time>2021-08-07T13:15:34.645Z</time>
      </trkpt>
      <trkpt lat="46.91361" lon="8.62536">
        <ele>495</ele>
        <time>2021-08-07T13:15:35.646Z</time>
      </trkpt>
      <trkpt lat="46.91362" lon="8.62535">
        <ele>495</ele>
        <time>2021-08-07T13:15:36.646Z</time>
      </trkpt>
      <trkpt lat="46.91363" lon="8.62534">
        <ele>495</ele>
        <time>2021-08-07T13:15:37.646Z</time>
      </trkpt>
      <trkpt lat="46.91365" lon="8.62534">
        <ele>495</ele>
        <time>2021-08-07T13:15:38.645Z</time>
      </trkpt>
      <trkpt lat="46.91366" lon="8.62532">
        <ele>495</ele>
        <time>2021-08-07T13:15:39.645Z</time>
      </trkpt>
      <trkpt lat="46.91367" lon="8.6253">
        <ele>495</ele>
        <time>2021-08-07T13:15:40.646Z</time>
      </trkpt>
      <trkpt lat="46.91368" lon="8.62528">
        <ele>496</ele>
        <time>2021-08-07T13:15:46.797Z</time>
      </trkpt>
      <trkpt lat="46.91369" lon="8.62527">
        <ele>496</ele>
        <time>2021-08-07T13:15:47.797Z</time>
      </trkpt>
      <trkpt lat="46.9137" lon="8.62525">
        <ele>496</ele>
        <time>2021-08-07T13:15:48.796Z</time>
      </trkpt>
      <trkpt lat="46.91372" lon="8.62523">
        <ele>496</ele>
        <time>2021-08-07T13:15:49.797Z</time>
      </trkpt>
      <trkpt lat="46.91373" lon="8.62522">
        <ele>496</ele>
        <time>2021-08-07T13:15:50.797Z</time>
      </trkpt>
      <trkpt lat="46.91374" lon="8.62521">
        <ele>496</ele>
        <time>2021-08-07T13:15:51.797Z</time>
      </trkpt>
      <trkpt lat="46.91377" lon="8.6252">
        <ele>496</ele>
        <time>2021-08-07T13:15:52.796Z</time>
      </trkpt>
      <trkpt lat="46.91378" lon="8.6252">
        <ele>497</ele>
        <time>2021-08-07T13:15:53.797Z</time>
      </trkpt>
      <trkpt lat="46.91379" lon="8.62519">
        <ele>497</ele>
        <time>2021-08-07T13:15:54.797Z</time>
      </trkpt>
      <trkpt lat="46.91381" lon="8.62518">
        <ele>497</ele>
        <time>2021-08-07T13:15:55.797Z</time>
      </trkpt>
      <trkpt lat="46.91383" lon="8.62518">
        <ele>498</ele>
        <time>2021-08-07T13:15:56.797Z</time>
      </trkpt>
      <trkpt lat="46.91384" lon="8.62517">
        <ele>498</ele>
        <time>2021-08-07T13:15:57.796Z</time>
      </trkpt>
      <trkpt lat="46.91384" lon="8.62516">
        <ele>498</ele>
        <time>2021-08-07T13:15:58.796Z</time>
      </trkpt>
      <trkpt lat="46.91385" lon="8.62515">
        <ele>499</ele>
        <time>2021-08-07T13:15:59.796Z</time>
      </trkpt>
      <trkpt lat="46.91386" lon="8.62512">
        <ele>500</ele>
        <time>2021-08-07T13:16:00.796Z</time>
      </trkpt>
      <trkpt lat="46.91387" lon="8.62511">
        <ele>500</ele>
        <time>2021-08-07T13:16:01.796Z</time>
      </trkpt>
      <trkpt lat="46.91388" lon="8.6251">
        <ele>501</ele>
        <time>2021-08-07T13:16:02.797Z</time>
      </trkpt>
      <trkpt lat="46.9139" lon="8.62508">
        <ele>502</ele>
        <time>2021-08-07T13:16:03.796Z</time>
      </trkpt>
      <trkpt lat="46.91391" lon="8.62506">
        <ele>502</ele>
        <time>2021-08-07T13:16:04.796Z</time>
      </trkpt>
      <trkpt lat="46.91393" lon="8.62506">
        <ele>502</ele>
        <time>2021-08-07T13:16:05.797Z</time>
      </trkpt>
      <trkpt lat="46.91395" lon="8.62506">
        <ele>502</ele>
        <time>2021-08-07T13:16:06.796Z</time>
      </trkpt>
      <trkpt lat="46.91397" lon="8.62505">
        <ele>502</ele>
        <time>2021-08-07T13:16:07.796Z</time>
      </trkpt>
      <trkpt lat="46.91398" lon="8.62503">
        <ele>502</ele>
        <time>2021-08-07T13:16:08.797Z</time>
      </trkpt>
      <trkpt lat="46.91399" lon="8.62501">
        <ele>501</ele>
        <time>2021-08-07T13:16:09.797Z</time>
      </trkpt>
      <trkpt lat="46.914" lon="8.625">
        <ele>501</ele>
        <time>2021-08-07T13:16:10.797Z</time>
      </trkpt>
      <trkpt lat="46.91402" lon="8.625">
        <ele>501</ele>
        <time>2021-08-07T13:16:11.797Z</time>
      </trkpt>
      <trkpt lat="46.91403" lon="8.625">
        <ele>500</ele>
        <time>2021-08-07T13:16:12.796Z</time>
      </trkpt>
      <trkpt lat="46.91405" lon="8.62499">
        <ele>500</ele>
        <time>2021-08-07T13:16:13.797Z</time>
      </trkpt>
      <trkpt lat="46.91405" lon="8.62498">
        <ele>499</ele>
        <time>2021-08-07T13:16:14.797Z</time>
      </trkpt>
      <trkpt lat="46.91406" lon="8.62497">
        <ele>499</ele>
        <time>2021-08-07T13:16:15.797Z</time>
      </trkpt>
      <trkpt lat="46.91407" lon="8.62496">
        <ele>498</ele>
        <time>2021-08-07T13:16:16.797Z</time>
      </trkpt>
      <trkpt lat="46.91409" lon="8.62495">
        <ele>498</ele>
        <time>2021-08-07T13:16:17.796Z</time>
      </trkpt>
      <trkpt lat="46.9141" lon="8.62494">
        <ele>498</ele>
        <time>2021-08-07T13:16:18.797Z</time>
      </trkpt>
      <trkpt lat="46.91412" lon="8.62493">
        <ele>497</ele>
        <time>2021-08-07T13:16:19.797Z</time>
      </trkpt>
      <trkpt lat="46.91414" lon="8.62492">
        <ele>497</ele>
        <time>2021-08-07T13:16:20.797Z</time>
      </trkpt>
      <trkpt lat="46.91416" lon="8.62491">
        <ele>496</ele>
        <time>2021-08-07T13:16:21.796Z</time>
      </trkpt>
      <trkpt lat="46.91418" lon="8.62492">
        <ele>495</ele>
        <time>2021-08-07T13:16:22.796Z</time>
      </trkpt>
      <trkpt lat="46.91421" lon="8.62492">
        <ele>494</ele>
        <time>2021-08-07T13:16:23.797Z</time>
      </trkpt>
      <trkpt lat="46.91423" lon="8.62491">
        <ele>493</ele>
        <time>2021-08-07T13:16:24.797Z</time>
      </trkpt>
      <trkpt lat="46.91424" lon="8.6249">
        <ele>493</ele>
        <time>2021-08-07T13:16:25.796Z</time>
      </trkpt>
      <trkpt lat="46.91425" lon="8.6249">
        <ele>492</ele>
        <time>2021-08-07T13:16:26.797Z</time>
      </trkpt>
      <trkpt lat="46.91425" lon="8.62489">
        <ele>491</ele>
        <time>2021-08-07T13:16:27.797Z</time>
      </trkpt>
      <trkpt lat="46.91425" lon="8.62488">
        <ele>491</ele>
        <time>2021-08-07T13:16:28.797Z</time>
      </trkpt>
      <trkpt lat="46.91427" lon="8.62488">
        <ele>490</ele>
        <time>2021-08-07T13:16:29.797Z</time>
      </trkpt>
      <trkpt lat="46.91429" lon="8.62488">
        <ele>489</ele>
        <time>2021-08-07T13:16:30.797Z</time>
      </trkpt>
      <trkpt lat="46.9143" lon="8.62487">
        <ele>488</ele>
        <time>2021-08-07T13:16:31.797Z</time>
      </trkpt>
      <trkpt lat="46.91432" lon="8.62487">
        <ele>487</ele>
        <time>2021-08-07T13:16:32.797Z</time>
      </trkpt>
      <trkpt lat="46.91433" lon="8.62487">
        <ele>486</ele>
        <time>2021-08-07T13:16:33.797Z</time>
      </trkpt>
      <trkpt lat="46.91434" lon="8.62485">
        <ele>485</ele>
        <time>2021-08-07T13:16:34.796Z</time>
      </trkpt>
      <trkpt lat="46.91435" lon="8.62483">
        <ele>484</ele>
        <time>2021-08-07T13:16:35.797Z</time>
      </trkpt>
      <trkpt lat="46.91436" lon="8.62482">
        <ele>484</ele>
        <time>2021-08-07T13:16:36.797Z</time>
      </trkpt>
      <trkpt lat="46.91437" lon="8.62482">
        <ele>483</ele>
        <time>2021-08-07T13:16:37.797Z</time>
      </trkpt>
      <trkpt lat="46.91438" lon="8.6248">
        <ele>483</ele>
        <time>2021-08-07T13:16:38.797Z</time>
      </trkpt>
      <trkpt lat="46.91439" lon="8.62479">
        <ele>482</ele>
        <time>2021-08-07T13:16:39.796Z</time>
      </trkpt>
      <trkpt lat="46.9144" lon="8.62477">
        <ele>482</ele>
        <time>2021-08-07T13:16:40.796Z</time>
      </trkpt>
      <trkpt lat="46.91441" lon="8.62476">
        <ele>482</ele>
        <time>2021-08-07T13:16:41.797Z</time>
      </trkpt>
      <trkpt lat="46.91442" lon="8.62475">
        <ele>481</ele>
        <time>2021-08-07T13:16:42.797Z</time>
      </trkpt>
      <trkpt lat="46.91443" lon="8.62473">
        <ele>481</ele>
        <time>2021-08-07T13:16:43.797Z</time>
      </trkpt>
      <trkpt lat="46.91444" lon="8.62471">
        <ele>481</ele>
        <time>2021-08-07T13:16:56.874Z</time>
      </trkpt>
      <trkpt lat="46.91445" lon="8.6247">
        <ele>480</ele>
        <time>2021-08-07T13:16:57.875Z</time>
      </trkpt>
      <trkpt lat="46.91446" lon="8.62468">
        <ele>480</ele>
        <time>2021-08-07T13:16:58.875Z</time>
      </trkpt>
      <trkpt lat="46.91447" lon="8.62467">
        <ele>479</ele>
        <time>2021-08-07T13:16:59.875Z</time>
      </trkpt>
      <trkpt lat="46.91448" lon="8.62466">
        <ele>479</ele>
        <time>2021-08-07T13:17:00.875Z</time>
      </trkpt>
      <trkpt lat="46.91449" lon="8.62465">
        <ele>479</ele>
        <time>2021-08-07T13:17:01.875Z</time>
      </trkpt>
      <trkpt lat="46.91451" lon="8.62464">
        <ele>478</ele>
        <time>2021-08-07T13:17:02.875Z</time>
      </trkpt>
      <trkpt lat="46.91453" lon="8.62463">
        <ele>478</ele>
        <time>2021-08-07T13:17:03.874Z</time>
      </trkpt>
      <trkpt lat="46.91455" lon="8.62462">
        <ele>478</ele>
        <time>2021-08-07T13:17:04.874Z</time>
      </trkpt>
      <trkpt lat="46.91456" lon="8.62461">
        <ele>478</ele>
        <time>2021-08-07T13:17:09.001Z</time>
      </trkpt>
      <trkpt lat="46.91457" lon="8.6246">
        <ele>478</ele>
        <time>2021-08-07T13:17:10.002Z</time>
      </trkpt>
      <trkpt lat="46.91458" lon="8.62459">
        <ele>477</ele>
        <time>2021-08-07T13:17:11.002Z</time>
      </trkpt>
      <trkpt lat="46.91459" lon="8.62458">
        <ele>477</ele>
        <time>2021-08-07T13:17:12.002Z</time>
      </trkpt>
      <trkpt lat="46.9146" lon="8.62457">
        <ele>477</ele>
        <time>2021-08-07T13:17:13.002Z</time>
      </trkpt>
      <trkpt lat="46.91462" lon="8.62455">
        <ele>477</ele>
        <time>2021-08-07T13:17:14.002Z</time>
      </trkpt>
      <trkpt lat="46.91463" lon="8.62453">
        <ele>477</ele>
        <time>2021-08-07T13:17:15.002Z</time>
      </trkpt>
      <trkpt lat="46.91464" lon="8.62452">
        <ele>476</ele>
        <time>2021-08-07T13:17:16.001Z</time>
      </trkpt>
      <trkpt lat="46.91465" lon="8.62451">
        <ele>476</ele>
        <time>2021-08-07T13:17:17.001Z</time>
      </trkpt>
      <trkpt lat="46.91466" lon="8.62449">
        <ele>475</ele>
        <time>2021-08-07T13:17:18.002Z</time>
      </trkpt>
      <trkpt lat="46.91466" lon="8.62446">
        <ele>475</ele>
        <time>2021-08-07T13:17:19.001Z</time>
      </trkpt>
      <trkpt lat="46.91467" lon="8.62444">
        <ele>475</ele>
        <time>2021-08-07T13:17:20.001Z</time>
      </trkpt>
      <trkpt lat="46.91468" lon="8.62443">
        <ele>474</ele>
        <time>2021-08-07T13:17:21.002Z</time>
      </trkpt>
      <trkpt lat="46.9147" lon="8.62442">
        <ele>474</ele>
        <time>2021-08-07T13:17:22.001Z</time>
      </trkpt>
      <trkpt lat="46.91471" lon="8.62441">
        <ele>473</ele>
        <time>2021-08-07T13:17:23.001Z</time>
      </trkpt>
      <trkpt lat="46.91472" lon="8.62439">
        <ele>473</ele>
        <time>2021-08-07T13:17:24.001Z</time>
      </trkpt>
      <trkpt lat="46.91473" lon="8.62437">
        <ele>472</ele>
        <time>2021-08-07T13:17:25.002Z</time>
      </trkpt>
      <trkpt lat="46.91474" lon="8.62435">
        <ele>471</ele>
        <time>2021-08-07T13:17:26.002Z</time>
      </trkpt>
      <trkpt lat="46.91475" lon="8.62434">
        <ele>470</ele>
        <time>2021-08-07T13:17:27.002Z</time>
      </trkpt>
      <trkpt lat="46.91475" lon="8.62431">
        <ele>470</ele>
        <time>2021-08-07T13:17:28.002Z</time>
      </trkpt>
      <trkpt lat="46.91475" lon="8.62428">
        <ele>469</ele>
        <time>2021-08-07T13:17:29.002Z</time>
      </trkpt>
      <trkpt lat="46.91475" lon="8.62426">
        <ele>469</ele>
        <time>2021-08-07T13:17:30.002Z</time>
      </trkpt>
      <trkpt lat="46.91475" lon="8.62423">
        <ele>469</ele>
        <time>2021-08-07T13:17:31.002Z</time>
      </trkpt>
      <trkpt lat="46.91475" lon="8.62421">
        <ele>468</ele>
        <time>2021-08-07T13:17:32.002Z</time>
      </trkpt>
      <trkpt lat="46.91474" lon="8.62419">
        <ele>468</ele>
        <time>2021-08-07T13:17:33.002Z</time>
      </trkpt>
      <trkpt lat="46.91474" lon="8.62417">
        <ele>468</ele>
        <time>2021-08-07T13:17:34.002Z</time>
      </trkpt>
      <trkpt lat="46.91473" lon="8.62415">
        <ele>467</ele>
        <time>2021-08-07T13:17:35.001Z</time>
      </trkpt>
      <trkpt lat="46.91472" lon="8.62414">
        <ele>467</ele>
        <time>2021-08-07T13:17:36.002Z</time>
      </trkpt>
      <trkpt lat="46.9147" lon="8.62413">
        <ele>467</ele>
        <time>2021-08-07T13:17:37.002Z</time>
      </trkpt>
      <trkpt lat="46.91469" lon="8.62411">
        <ele>467</ele>
        <time>2021-08-07T13:17:38.001Z</time>
      </trkpt>
      <trkpt lat="46.91468" lon="8.6241">
        <ele>467</ele>
        <time>2021-08-07T13:17:39.002Z</time>
      </trkpt>
      <trkpt lat="46.91467" lon="8.62408">
        <ele>467</ele>
        <time>2021-08-07T13:17:40.002Z</time>
      </trkpt>
      <trkpt lat="46.91466" lon="8.62407">
        <ele>467</ele>
        <time>2021-08-07T13:17:41.002Z</time>
      </trkpt>
      <trkpt lat="46.91465" lon="8.62406">
        <ele>467</ele>
        <time>2021-08-07T13:17:42.002Z</time>
      </trkpt>
      <trkpt lat="46.91463" lon="8.62405">
        <ele>467</ele>
        <time>2021-08-07T13:17:43.002Z</time>
      </trkpt>
      <trkpt lat="46.91462" lon="8.62404">
        <ele>468</ele>
        <time>2021-08-07T13:17:44.001Z</time>
      </trkpt>
      <trkpt lat="46.91461" lon="8.62402">
        <ele>468</ele>
        <time>2021-08-07T13:17:45.001Z</time>
      </trkpt>
      <trkpt lat="46.9146" lon="8.62401">
        <ele>468</ele>
        <time>2021-08-07T13:17:46.001Z</time>
      </trkpt>
      <trkpt lat="46.91459" lon="8.624">
        <ele>468</ele>
        <time>2021-08-07T13:17:47.001Z</time>
      </trkpt>
      <trkpt lat="46.91457" lon="8.62398">
        <ele>468</ele>
        <time>2021-08-07T13:17:48.002Z</time>
      </trkpt>
      <trkpt lat="46.91456" lon="8.62397">
        <ele>467</ele>
        <time>2021-08-07T13:17:49.002Z</time>
      </trkpt>
      <trkpt lat="46.91455" lon="8.62395">
        <ele>467</ele>
        <time>2021-08-07T13:17:50.002Z</time>
      </trkpt>
      <trkpt lat="46.91454" lon="8.62394">
        <ele>467</ele>
        <time>2021-08-07T13:17:51.002Z</time>
      </trkpt>
      <trkpt lat="46.91452" lon="8.62392">
        <ele>467</ele>
        <time>2021-08-07T13:17:52.001Z</time>
      </trkpt>
      <trkpt lat="46.91451" lon="8.62391">
        <ele>466</ele>
        <time>2021-08-07T13:17:53.002Z</time>
      </trkpt>
      <trkpt lat="46.9145" lon="8.6239">
        <ele>466</ele>
        <time>2021-08-07T13:17:54.002Z</time>
      </trkpt>
      <trkpt lat="46.91449" lon="8.62388">
        <ele>466</ele>
        <time>2021-08-07T13:17:55.001Z</time>
      </trkpt>
      <trkpt lat="46.91447" lon="8.62387">
        <ele>466</ele>
        <time>2021-08-07T13:17:56.002Z</time>
      </trkpt>
      <trkpt lat="46.91446" lon="8.62386">
        <ele>466</ele>
        <time>2021-08-07T13:17:57.002Z</time>
      </trkpt>
      <trkpt lat="46.91444" lon="8.62384">
        <ele>466</ele>
        <time>2021-08-07T13:17:58.002Z</time>
      </trkpt>
      <trkpt lat="46.91443" lon="8.62383">
        <ele>466</ele>
        <time>2021-08-07T13:17:59.002Z</time>
      </trkpt>
      <trkpt lat="46.91441" lon="8.62381">
        <ele>466</ele>
        <time>2021-08-07T13:18:00.002Z</time>
      </trkpt>
      <trkpt lat="46.9144" lon="8.6238">
        <ele>466</ele>
        <time>2021-08-07T13:18:01.001Z</time>
      </trkpt>
      <trkpt lat="46.91439" lon="8.62379">
        <ele>466</ele>
        <time>2021-08-07T13:18:02.002Z</time>
      </trkpt>
      <trkpt lat="46.91437" lon="8.62378">
        <ele>466</ele>
        <time>2021-08-07T13:18:03.001Z</time>
      </trkpt>
      <trkpt lat="46.91436" lon="8.62377">
        <ele>466</ele>
        <time>2021-08-07T13:18:04.002Z</time>
      </trkpt>
      <trkpt lat="46.91435" lon="8.62376">
        <ele>466</ele>
        <time>2021-08-07T13:18:05.002Z</time>
      </trkpt>
      <trkpt lat="46.91433" lon="8.62375">
        <ele>466</ele>
        <time>2021-08-07T13:18:06.002Z</time>
      </trkpt>
      <trkpt lat="46.91432" lon="8.62374">
        <ele>466</ele>
        <time>2021-08-07T13:18:07.001Z</time>
      </trkpt>
      <trkpt lat="46.91431" lon="8.62374">
        <ele>466</ele>
        <time>2021-08-07T13:18:08.002Z</time>
      </trkpt>
      <trkpt lat="46.91429" lon="8.62374">
        <ele>465</ele>
        <time>2021-08-07T13:18:09.002Z</time>
      </trkpt>
      <trkpt lat="46.91428" lon="8.62374">
        <ele>465</ele>
        <time>2021-08-07T13:18:39.114Z</time>
      </trkpt>
      <trkpt lat="46.91426" lon="8.62373">
        <ele>465</ele>
        <time>2021-08-07T13:18:40.114Z</time>
      </trkpt>
      <trkpt lat="46.91425" lon="8.62373">
        <ele>464</ele>
        <time>2021-08-07T13:18:41.114Z</time>
      </trkpt>
      <trkpt lat="46.91424" lon="8.62372">
        <ele>464</ele>
        <time>2021-08-07T13:18:42.114Z</time>
      </trkpt>
      <trkpt lat="46.91422" lon="8.62371">
        <ele>464</ele>
        <time>2021-08-07T13:18:43.113Z</time>
      </trkpt>
      <trkpt lat="46.91421" lon="8.6237">
        <ele>463</ele>
        <time>2021-08-07T13:18:44.114Z</time>
      </trkpt>
      <trkpt lat="46.91419" lon="8.62369">
        <ele>463</ele>
        <time>2021-08-07T13:18:45.113Z</time>
      </trkpt>
      <trkpt lat="46.91418" lon="8.62368">
        <ele>464</ele>
        <time>2021-08-07T13:18:46.114Z</time>
      </trkpt>
      <trkpt lat="46.91417" lon="8.62367">
        <ele>464</ele>
        <time>2021-08-07T13:18:47.114Z</time>
      </trkpt>
      <trkpt lat="46.91415" lon="8.62364">
        <ele>464</ele>
        <time>2021-08-07T13:18:48.114Z</time>
      </trkpt>
      <trkpt lat="46.91413" lon="8.62363">
        <ele>465</ele>
        <time>2021-08-07T13:18:49.114Z</time>
      </trkpt>
      <trkpt lat="46.91412" lon="8.62362">
        <ele>465</ele>
        <time>2021-08-07T13:18:50.113Z</time>
      </trkpt>
      <trkpt lat="46.91411" lon="8.62362">
        <ele>465</ele>
        <time>2021-08-07T13:18:51.114Z</time>
      </trkpt>
      <trkpt lat="46.91409" lon="8.62363">
        <ele>465</ele>
        <time>2021-08-07T13:18:52.113Z</time>
      </trkpt>
      <trkpt lat="46.91408" lon="8.62364">
        <ele>465</ele>
        <time>2021-08-07T13:18:53.113Z</time>
      </trkpt>
      <trkpt lat="46.91408" lon="8.62365">
        <ele>465</ele>
        <time>2021-08-07T13:18:54.113Z</time>
      </trkpt>
      <trkpt lat="46.91408" lon="8.62365">
        <ele>465</ele>
        <time>2021-08-07T13:18:55.114Z</time>
      </trkpt>
      <trkpt lat="46.91408" lon="8.62365">
        <ele>465</ele>
        <time>2021-08-07T13:18:56.114Z</time>
      </trkpt>
      <trkpt lat="46.91407" lon="8.62365">
        <ele>465</ele>
        <time>2021-08-07T13:18:57.113Z</time>
      </trkpt>
      <trkpt lat="46.91407" lon="8.62365">
        <ele>465</ele>
        <time>2021-08-07T13:18:58.113Z</time>
      </trkpt>
      <trkpt lat="46.91407" lon="8.62365">
        <ele>465</ele>
        <time>2021-08-07T13:18:59.113Z</time>
      </trkpt>
      <trkpt lat="46.91406" lon="8.62364">
        <ele>464</ele>
        <time>2021-08-07T13:19:00.113Z</time>
      </trkpt>
      <trkpt lat="46.91405" lon="8.62363">
        <ele>464</ele>
        <time>2021-08-07T13:19:01.114Z</time>
      </trkpt>
      <trkpt lat="46.91404" lon="8.62362">
        <ele>464</ele>
        <time>2021-08-07T13:19:02.114Z</time>
      </trkpt>
      <trkpt lat="46.91403" lon="8.6236">
        <ele>464</ele>
        <time>2021-08-07T13:19:03.113Z</time>
      </trkpt>
      <trkpt lat="46.91402" lon="8.62359">
        <ele>464</ele>
        <time>2021-08-07T13:19:04.114Z</time>
      </trkpt>
      <trkpt lat="46.91401" lon="8.62358">
        <ele>465</ele>
        <time>2021-08-07T13:19:05.114Z</time>
      </trkpt>
      <trkpt lat="46.91399" lon="8.62357">
        <ele>465</ele>
        <time>2021-08-07T13:19:06.113Z</time>
      </trkpt>
      <trkpt lat="46.91399" lon="8.62356">
        <ele>466</ele>
        <time>2021-08-07T13:19:07.114Z</time>
      </trkpt>
      <trkpt lat="46.91398" lon="8.62356">
        <ele>466</ele>
        <time>2021-08-07T13:19:08.113Z</time>
      </trkpt>
      <trkpt lat="46.91397" lon="8.62355">
        <ele>466</ele>
        <time>2021-08-07T13:19:09.113Z</time>
      </trkpt>
      <trkpt lat="46.91397" lon="8.62355">
        <ele>467</ele>
        <time>2021-08-07T13:19:10.114Z</time>
      </trkpt>
      <trkpt lat="46.91396" lon="8.62354">
        <ele>467</ele>
        <time>2021-08-07T13:19:11.114Z</time>
      </trkpt>
      <trkpt lat="46.91396" lon="8.62353">
        <ele>467</ele>
        <time>2021-08-07T13:19:12.114Z</time>
      </trkpt>
      <trkpt lat="46.91396" lon="8.62353">
        <ele>467</ele>
        <time>2021-08-07T13:19:13.114Z</time>
      </trkpt>
      <trkpt lat="46.91397" lon="8.62353">
        <ele>467</ele>
        <time>2021-08-07T13:19:14.114Z</time>
      </trkpt>
      <trkpt lat="46.91398" lon="8.62353">
        <ele>468</ele>
        <time>2021-08-07T13:19:15.114Z</time>
      </trkpt>
      <trkpt lat="46.91398" lon="8.62353">
        <ele>468</ele>
        <time>2021-08-07T13:19:16.114Z</time>
      </trkpt>
      <trkpt lat="46.91398" lon="8.62354">
        <ele>469</ele>
        <time>2021-08-07T13:19:17.114Z</time>
      </trkpt>
      <trkpt lat="46.91398" lon="8.62354">
        <ele>469</ele>
        <time>2021-08-07T13:19:18.114Z</time>
      </trkpt>
      <trkpt lat="46.91398" lon="8.62352">
        <ele>469</ele>
        <time>2021-08-07T13:19:19.113Z</time>
      </trkpt>
      <trkpt lat="46.91398" lon="8.6235">
        <ele>470</ele>
        <time>2021-08-07T13:19:20.114Z</time>
      </trkpt>
      <trkpt lat="46.91399" lon="8.6235">
        <ele>469</ele>
        <time>2021-08-07T13:19:21.114Z</time>
      </trkpt>
      <trkpt lat="46.91399" lon="8.6235">
        <ele>469</ele>
        <time>2021-08-07T13:19:22.113Z</time>
      </trkpt>
      <trkpt lat="46.91399" lon="8.6235">
        <ele>469</ele>
        <time>2021-08-07T13:19:23.113Z</time>
      </trkpt>
      <trkpt lat="46.91399" lon="8.6235">
        <ele>469</ele>
        <time>2021-08-07T13:19:24.114Z</time>
      </trkpt>
      <trkpt lat="46.91399" lon="8.6235">
        <ele>468</ele>
        <time>2021-08-07T13:19:25.113Z</time>
      </trkpt>
      <trkpt lat="46.91399" lon="8.62349">
        <ele>468</ele>
        <time>2021-08-07T13:19:26.113Z</time>
      </trkpt>
      <trkpt lat="46.91399" lon="8.62349">
        <ele>468</ele>
        <time>2021-08-07T13:19:27.113Z</time>
      </trkpt>
      <trkpt lat="46.91401" lon="8.62351">
        <ele>468</ele>
        <time>2021-08-07T13:19:28.114Z</time>
      </trkpt>
      <trkpt lat="46.91401" lon="8.62351">
        <ele>468</ele>
        <time>2021-08-07T13:19:29.113Z</time>
      </trkpt>
      <trkpt lat="46.91401" lon="8.6235">
        <ele>468</ele>
        <time>2021-08-07T13:19:30.113Z</time>
      </trkpt>
      <trkpt lat="46.914" lon="8.62349">
        <ele>467</ele>
        <time>2021-08-07T13:19:31.114Z</time>
      </trkpt>
      <trkpt lat="46.914" lon="8.62348">
        <ele>467</ele>
        <time>2021-08-07T13:19:32.113Z</time>
      </trkpt>
      <trkpt lat="46.91399" lon="8.62347">
        <ele>468</ele>
        <time>2021-08-07T13:19:33.114Z</time>
      </trkpt>
      <trkpt lat="46.91398" lon="8.62346">
        <ele>468</ele>
        <time>2021-08-07T13:19:34.113Z</time>
      </trkpt>
      <trkpt lat="46.91397" lon="8.62346">
        <ele>467</ele>
        <time>2021-08-07T13:19:35.114Z</time>
      </trkpt>
      <trkpt lat="46.91395" lon="8.62346">
        <ele>467</ele>
        <time>2021-08-07T13:19:36.114Z</time>
      </trkpt>
      <trkpt lat="46.91394" lon="8.62344">
        <ele>466</ele>
        <time>2021-08-07T13:19:37.113Z</time>
      </trkpt>
      <trkpt lat="46.91394" lon="8.62343">
        <ele>466</ele>
        <time>2021-08-07T13:19:38.113Z</time>
      </trkpt>
      <trkpt lat="46.91393" lon="8.62343">
        <ele>465</ele>
        <time>2021-08-07T13:19:39.114Z</time>
      </trkpt>
      <trkpt lat="46.91392" lon="8.62343">
        <ele>465</ele>
        <time>2021-08-07T13:19:40.113Z</time>
      </trkpt>
      <trkpt lat="46.91392" lon="8.62342">
        <ele>465</ele>
        <time>2021-08-07T13:19:41.113Z</time>
      </trkpt>
      <trkpt lat="46.91392" lon="8.62341">
        <ele>465</ele>
        <time>2021-08-07T13:19:42.113Z</time>
      </trkpt>
      <trkpt lat="46.91392" lon="8.6234">
        <ele>465</ele>
        <time>2021-08-07T13:19:43.114Z</time>
      </trkpt>
      <trkpt lat="46.91392" lon="8.62338">
        <ele>465</ele>
        <time>2021-08-07T13:19:44.113Z</time>
      </trkpt>
      <trkpt lat="46.91393" lon="8.62337">
        <ele>465</ele>
        <time>2021-08-07T13:19:45.113Z</time>
      </trkpt>
      <trkpt lat="46.91394" lon="8.62336">
        <ele>465</ele>
        <time>2021-08-07T13:19:46.113Z</time>
      </trkpt>
      <trkpt lat="46.91394" lon="8.62335">
        <ele>465</ele>
        <time>2021-08-07T13:19:47.114Z</time>
      </trkpt>
      <trkpt lat="46.91395" lon="8.62333">
        <ele>465</ele>
        <time>2021-08-07T13:19:48.113Z</time>
      </trkpt>
      <trkpt lat="46.91395" lon="8.62331">
        <ele>465</ele>
        <time>2021-08-07T13:19:49.113Z</time>
      </trkpt>
      <trkpt lat="46.91395" lon="8.6233">
        <ele>465</ele>
        <time>2021-08-07T13:19:50.113Z</time>
      </trkpt>
      <trkpt lat="46.91395" lon="8.62328">
        <ele>465</ele>
        <time>2021-08-07T13:19:51.113Z</time>
      </trkpt>
      <trkpt lat="46.91395" lon="8.62327">
        <ele>465</ele>
        <time>2021-08-07T13:19:52.114Z</time>
      </trkpt>
      <trkpt lat="46.91395" lon="8.62325">
        <ele>465</ele>
        <time>2021-08-07T13:19:53.114Z</time>
      </trkpt>
      <trkpt lat="46.91396" lon="8.62325">
        <ele>466</ele>
        <time>2021-08-07T13:19:54.114Z</time>
      </trkpt>
      <trkpt lat="46.91395" lon="8.62323">
        <ele>467</ele>
        <time>2021-08-07T13:19:55.113Z</time>
      </trkpt>
      <trkpt lat="46.91394" lon="8.62322">
        <ele>468</ele>
        <time>2021-08-07T13:19:56.114Z</time>
      </trkpt>
      <trkpt lat="46.91393" lon="8.62322">
        <ele>469</ele>
        <time>2021-08-07T13:19:57.113Z</time>
      </trkpt>
      <trkpt lat="46.91391" lon="8.62321">
        <ele>476</ele>
        <time>2021-08-07T13:19:58.113Z</time>
      </trkpt>
      <trkpt lat="46.91391" lon="8.62321">
        <ele>477</ele>
        <time>2021-08-07T13:19:59.114Z</time>
      </trkpt>
      <trkpt lat="46.9139" lon="8.62322">
        <ele>478</ele>
        <time>2021-08-07T13:20:00.113Z</time>
      </trkpt>
      <trkpt lat="46.91389" lon="8.62323">
        <ele>479</ele>
        <time>2021-08-07T13:20:01.114Z</time>
      </trkpt>
      <trkpt lat="46.91388" lon="8.62325">
        <ele>480</ele>
        <time>2021-08-07T13:20:02.115Z</time>
      </trkpt>
      <trkpt lat="46.91388" lon="8.62326">
        <ele>480</ele>
        <time>2021-08-07T13:20:03.114Z</time>
      </trkpt>
      <trkpt lat="46.91387" lon="8.62328">
        <ele>479</ele>
        <time>2021-08-07T13:20:04.114Z</time>
      </trkpt>
      <trkpt lat="46.91387" lon="8.6233">
        <ele>479</ele>
        <time>2021-08-07T13:20:05.115Z</time>
      </trkpt>
      <trkpt lat="46.91386" lon="8.62332">
        <ele>479</ele>
        <time>2021-08-07T13:20:06.114Z</time>
      </trkpt>
      <trkpt lat="46.91386" lon="8.62334">
        <ele>479</ele>
        <time>2021-08-07T13:20:07.114Z</time>
      </trkpt>
      <trkpt lat="46.91386" lon="8.62337">
        <ele>479</ele>
        <time>2021-08-07T13:20:08.114Z</time>
      </trkpt>
      <trkpt lat="46.91386" lon="8.62338">
        <ele>479</ele>
        <time>2021-08-07T13:20:09.114Z</time>
      </trkpt>
      <trkpt lat="46.91386" lon="8.6234">
        <ele>478</ele>
        <time>2021-08-07T13:20:10.115Z</time>
      </trkpt>
      <trkpt lat="46.91386" lon="8.6234">
        <ele>478</ele>
        <time>2021-08-07T13:20:11.115Z</time>
      </trkpt>
      <trkpt lat="46.91386" lon="8.6234">
        <ele>478</ele>
        <time>2021-08-07T13:20:12.115Z</time>
      </trkpt>
      <trkpt lat="46.91387" lon="8.62341">
        <ele>478</ele>
        <time>2021-08-07T13:20:13.115Z</time>
      </trkpt>
      <trkpt lat="46.91387" lon="8.62341">
        <ele>478</ele>
        <time>2021-08-07T13:20:14.115Z</time>
      </trkpt>
      <trkpt lat="46.91387" lon="8.62341">
        <ele>477</ele>
        <time>2021-08-07T13:20:15.115Z</time>
      </trkpt>
      <trkpt lat="46.91388" lon="8.62341">
        <ele>477</ele>
        <time>2021-08-07T13:20:19.131Z</time>
      </trkpt>
      <trkpt lat="46.91388" lon="8.62341">
        <ele>476</ele>
        <time>2021-08-07T13:20:20.131Z</time>
      </trkpt>
      <trkpt lat="46.91388" lon="8.62342">
        <ele>476</ele>
        <time>2021-08-07T13:20:21.130Z</time>
      </trkpt>
      <trkpt lat="46.91389" lon="8.62342">
        <ele>475</ele>
        <time>2021-08-07T13:20:22.131Z</time>
      </trkpt>
      <trkpt lat="46.91389" lon="8.62343">
        <ele>475</ele>
        <time>2021-08-07T13:20:23.130Z</time>
      </trkpt>
      <trkpt lat="46.91389" lon="8.62343">
        <ele>474</ele>
        <time>2021-08-07T13:20:24.130Z</time>
      </trkpt>
      <trkpt lat="46.91389" lon="8.62344">
        <ele>472</ele>
        <time>2021-08-07T13:20:25.131Z</time>
      </trkpt>
      <trkpt lat="46.91389" lon="8.62343">
        <ele>471</ele>
        <time>2021-08-07T13:20:26.131Z</time>
      </trkpt>
      <trkpt lat="46.91388" lon="8.62344">
        <ele>469</ele>
        <time>2021-08-07T13:20:27.130Z</time>
      </trkpt>
      <trkpt lat="46.91388" lon="8.62346">
        <ele>468</ele>
        <time>2021-08-07T13:20:28.131Z</time>
      </trkpt>
      <trkpt lat="46.91387" lon="8.62346">
        <ele>468</ele>
        <time>2021-08-07T13:20:29.130Z</time>
      </trkpt>
      <trkpt lat="46.91386" lon="8.62347">
        <ele>467</ele>
        <time>2021-08-07T13:20:30.130Z</time>
      </trkpt>
      <trkpt lat="46.91386" lon="8.62349">
        <ele>466</ele>
        <time>2021-08-07T13:20:31.131Z</time>
      </trkpt>
      <trkpt lat="46.91386" lon="8.6235">
        <ele>465</ele>
        <time>2021-08-07T13:20:32.130Z</time>
      </trkpt>
      <trkpt lat="46.91386" lon="8.62351">
        <ele>465</ele>
        <time>2021-08-07T13:20:33.131Z</time>
      </trkpt>
      <trkpt lat="46.91385" lon="8.62351">
        <ele>464</ele>
        <time>2021-08-07T13:20:34.130Z</time>
      </trkpt>
      <trkpt lat="46.91385" lon="8.62352">
        <ele>464</ele>
        <time>2021-08-07T13:20:35.131Z</time>
      </trkpt>
      <trkpt lat="46.91384" lon="8.62353">
        <ele>463</ele>
        <time>2021-08-07T13:20:36.131Z</time>
      </trkpt>
      <trkpt lat="46.91384" lon="8.62353">
        <ele>463</ele>
        <time>2021-08-07T13:20:37.130Z</time>
      </trkpt>
      <trkpt lat="46.91383" lon="8.62353">
        <ele>463</ele>
        <time>2021-08-07T13:20:38.130Z</time>
      </trkpt>
      <trkpt lat="46.91383" lon="8.62354">
        <ele>463</ele>
        <time>2021-08-07T13:20:39.130Z</time>
      </trkpt>
      <trkpt lat="46.91382" lon="8.62354">
        <ele>463</ele>
        <time>2021-08-07T13:20:40.130Z</time>
      </trkpt>
      <trkpt lat="46.91382" lon="8.62355">
        <ele>463</ele>
        <time>2021-08-07T13:20:41.131Z</time>
      </trkpt>
      <trkpt lat="46.91382" lon="8.62356">
        <ele>464</ele>
        <time>2021-08-07T13:20:42.131Z</time>
      </trkpt>
      <trkpt lat="46.91382" lon="8.62357">
        <ele>464</ele>
        <time>2021-08-07T13:20:43.131Z</time>
      </trkpt>
      <trkpt lat="46.91369" lon="8.62295">
        <ele>463</ele>
        <time>2021-08-07T13:25:01.383Z</time>
      </trkpt>
      <trkpt lat="46.91369" lon="8.6229">
        <ele>462</ele>
        <time>2021-08-07T13:25:02.383Z</time>
      </trkpt>
      <trkpt lat="46.91377" lon="8.62337">
        <ele>461</ele>
        <time>2021-08-07T13:25:08.527Z</time>
      </trkpt>
      <trkpt lat="46.91378" lon="8.62339">
        <ele>461</ele>
        <time>2021-08-07T13:25:09.526Z</time>
      </trkpt>
      <trkpt lat="46.9138" lon="8.62345">
        <ele>460</ele>
        <time>2021-08-07T13:25:10.526Z</time>
      </trkpt>
      <trkpt lat="46.91381" lon="8.62349">
        <ele>459</ele>
        <time>2021-08-07T13:25:11.526Z</time>
      </trkpt>
      <trkpt lat="46.91382" lon="8.62349">
        <ele>458</ele>
        <time>2021-08-07T13:25:12.527Z</time>
      </trkpt>
      <trkpt lat="46.91383" lon="8.62348">
        <ele>457</ele>
        <time>2021-08-07T13:25:13.527Z</time>
      </trkpt>
      <trkpt lat="46.91383" lon="8.62347">
        <ele>457</ele>
        <time>2021-08-07T13:25:14.527Z</time>
      </trkpt>
      <trkpt lat="46.91384" lon="8.62349">
        <ele>457</ele>
        <time>2021-08-07T13:25:15.527Z</time>
      </trkpt>
      <trkpt lat="46.91385" lon="8.62348">
        <ele>457</ele>
        <time>2021-08-07T13:25:16.527Z</time>
      </trkpt>
      <trkpt lat="46.91385" lon="8.62347">
        <ele>456</ele>
        <time>2021-08-07T13:25:27.611Z</time>
      </trkpt>
      <trkpt lat="46.91385" lon="8.62347">
        <ele>456</ele>
        <time>2021-08-07T13:25:28.610Z</time>
      </trkpt>
      <trkpt lat="46.91385" lon="8.62346">
        <ele>456</ele>
        <time>2021-08-07T13:25:29.610Z</time>
      </trkpt>
      <trkpt lat="46.91383" lon="8.62349">
        <ele>454</ele>
        <time>2021-08-07T13:25:30.610Z</time>
      </trkpt>
      <trkpt lat="46.91383" lon="8.62349">
        <ele>454</ele>
        <time>2021-08-07T13:25:31.611Z</time>
      </trkpt>
      <trkpt lat="46.91383" lon="8.62349">
        <ele>454</ele>
        <time>2021-08-07T13:25:33.753Z</time>
      </trkpt>
      <trkpt lat="46.91383" lon="8.62349">
        <ele>453</ele>
        <time>2021-08-07T13:25:39.484Z</time>
      </trkpt>
      <trkpt lat="46.91383" lon="8.62349">
        <ele>453</ele>
        <time>2021-08-07T13:25:53.261Z</time>
      </trkpt>
      <trkpt lat="46.91383" lon="8.6235">
        <ele>453</ele>
        <time>2021-08-07T13:25:54.261Z</time>
      </trkpt>
      <trkpt lat="46.91383" lon="8.6235">
        <ele>453</ele>
        <time>2021-08-07T13:26:14.999Z</time>
      </trkpt>
      <trkpt lat="46.91384" lon="8.62351">
        <ele>453</ele>
        <time>2021-08-07T13:26:15.999Z</time>
      </trkpt>
      <trkpt lat="46.91385" lon="8.62352">
        <ele>453</ele>
        <time>2021-08-07T13:26:17.728Z</time>
      </trkpt>
      <trkpt lat="46.91385" lon="8.62352">
        <ele>453</ele>
        <time>2021-08-07T13:26:34.508Z</time>
      </trkpt>
      <trkpt lat="46.91387" lon="8.62353">
        <ele>453</ele>
        <time>2021-08-07T13:26:35.507Z</time>
      </trkpt>
      <trkpt lat="46.91388" lon="8.62353">
        <ele>452</ele>
        <time>2021-08-07T13:26:36.507Z</time>
      </trkpt>
      <trkpt lat="46.91389" lon="8.62352">
        <ele>452</ele>
        <time>2021-08-07T13:26:37.508Z</time>
      </trkpt>
      <trkpt lat="46.91389" lon="8.6235">
        <ele>452</ele>
        <time>2021-08-07T13:26:38.508Z</time>
      </trkpt>
      <trkpt lat="46.91388" lon="8.62349">
        <ele>452</ele>
        <time>2021-08-07T13:27:04.608Z</time>
      </trkpt>
      <trkpt lat="46.91387" lon="8.62349">
        <ele>452</ele>
        <time>2021-08-07T13:27:26.371Z</time>
      </trkpt>
      <trkpt lat="46.91388" lon="8.6235">
        <ele>452</ele>
        <time>2021-08-07T13:27:27.371Z</time>
      </trkpt>
      <trkpt lat="46.91388" lon="8.62356">
        <ele>450</ele>
        <time>2021-08-07T13:27:28.372Z</time>
      </trkpt>
      <trkpt lat="46.91388" lon="8.62357">
        <ele>449</ele>
        <time>2021-08-07T13:27:29.372Z</time>
      </trkpt>
      <trkpt lat="46.91388" lon="8.62358">
        <ele>448</ele>
        <time>2021-08-07T13:27:30.371Z</time>
      </trkpt>
      <trkpt lat="46.91388" lon="8.62358">
        <ele>448</ele>
        <time>2021-08-07T13:27:31.371Z</time>
      </trkpt>
      <trkpt lat="46.91388" lon="8.62359">
        <ele>447</ele>
        <time>2021-08-07T13:27:32.372Z</time>
      </trkpt>
      <trkpt lat="46.91387" lon="8.62358">
        <ele>447</ele>
        <time>2021-08-07T13:27:38.478Z</time>
      </trkpt>
      <trkpt lat="46.91387" lon="8.62358">
        <ele>446</ele>
        <time>2021-08-07T13:27:45.264Z</time>
      </trkpt>
      <trkpt lat="46.91387" lon="8.62359">
        <ele>446</ele>
        <time>2021-08-07T13:27:46.264Z</time>
      </trkpt>
      <trkpt lat="46.91388" lon="8.6236">
        <ele>444</ele>
        <time>2021-08-07T13:27:47.264Z</time>
      </trkpt>
      <trkpt lat="46.91388" lon="8.6236">
        <ele>444</ele>
        <time>2021-08-07T13:27:48.263Z</time>
      </trkpt>
      <trkpt lat="46.91387" lon="8.62359">
        <ele>443</ele>
        <time>2021-08-07T13:27:49.263Z</time>
      </trkpt>
      <trkpt lat="46.91387" lon="8.62359">
        <ele>442</ele>
        <time>2021-08-07T13:27:50.264Z</time>
      </trkpt>
      <trkpt lat="46.91386" lon="8.62357">
        <ele>432</ele>
        <time>2021-08-07T13:27:51.265Z</time>
      </trkpt>
      <trkpt lat="46.91387" lon="8.62357">
        <ele>431</ele>
        <time>2021-08-07T13:27:52.264Z</time>
      </trkpt>
      <trkpt lat="46.9139" lon="8.62356">
        <ele>427</ele>
        <time>2021-08-07T13:27:53.265Z</time>
      </trkpt>
      <trkpt lat="46.91393" lon="8.62358">
        <ele>428</ele>
        <time>2021-08-07T13:27:54.264Z</time>
      </trkpt>
      <trkpt lat="46.91397" lon="8.62359">
        <ele>428</ele>
        <time>2021-08-07T13:27:55.264Z</time>
      </trkpt>
      <trkpt lat="46.91401" lon="8.62362">
        <ele>428</ele>
        <time>2021-08-07T13:27:56.265Z</time>
      </trkpt>
      <trkpt lat="46.91403" lon="8.62364">
        <ele>427</ele>
        <time>2021-08-07T13:27:57.264Z</time>
      </trkpt>
      <trkpt lat="46.91404" lon="8.62364">
        <ele>427</ele>
        <time>2021-08-07T13:27:58.265Z</time>
      </trkpt>
      <trkpt lat="46.91405" lon="8.62368">
        <ele>427</ele>
        <time>2021-08-07T13:27:59.264Z</time>
      </trkpt>
      <trkpt lat="46.91402" lon="8.62368">
        <ele>427</ele>
        <time>2021-08-07T13:28:00.265Z</time>
      </trkpt>
      <trkpt lat="46.91403" lon="8.62372">
        <ele>427</ele>
        <time>2021-08-07T13:28:01.265Z</time>
      </trkpt>
      <trkpt lat="46.91404" lon="8.62374">
        <ele>427</ele>
        <time>2021-08-07T13:28:02.265Z</time>
      </trkpt>
      <trkpt lat="46.91405" lon="8.62375">
        <ele>427</ele>
        <time>2021-08-07T13:28:03.265Z</time>
      </trkpt>
      <trkpt lat="46.91405" lon="8.62375">
        <ele>427</ele>
        <time>2021-08-07T13:28:04.265Z</time>
      </trkpt>
      <trkpt lat="46.91404" lon="8.62374">
        <ele>427</ele>
        <time>2021-08-07T13:28:05.264Z</time>
      </trkpt>
      <trkpt lat="46.91403" lon="8.62373">
        <ele>427</ele>
        <time>2021-08-07T13:28:06.265Z</time>
      </trkpt>
      <trkpt lat="46.91401" lon="8.62373">
        <ele>427</ele>
        <time>2021-08-07T13:28:07.265Z</time>
      </trkpt>
      <trkpt lat="46.914" lon="8.62373">
        <ele>427</ele>
        <time>2021-08-07T13:28:08.265Z</time>
      </trkpt>
      <trkpt lat="46.91397" lon="8.6237">
        <ele>428</ele>
        <time>2021-08-07T13:28:09.266Z</time>
      </trkpt>
      <trkpt lat="46.91396" lon="8.6237">
        <ele>428</ele>
        <time>2021-08-07T13:28:10.267Z</time>
      </trkpt>
      <trkpt lat="46.91395" lon="8.6237">
        <ele>428</ele>
        <time>2021-08-07T13:28:11.266Z</time>
      </trkpt>
      <trkpt lat="46.91395" lon="8.62369">
        <ele>428</ele>
        <time>2021-08-07T13:28:12.267Z</time>
      </trkpt>
      <trkpt lat="46.91394" lon="8.62369">
        <ele>428</ele>
        <time>2021-08-07T13:28:13.267Z</time>
      </trkpt>
      <trkpt lat="46.91393" lon="8.62371">
        <ele>429</ele>
        <time>2021-08-07T13:28:14.267Z</time>
      </trkpt>
      <trkpt lat="46.9139" lon="8.62366">
        <ele>429</ele>
        <time>2021-08-07T13:28:15.266Z</time>
      </trkpt>
      <trkpt lat="46.91389" lon="8.62365">
        <ele>429</ele>
        <time>2021-08-07T13:28:16.267Z</time>
      </trkpt>
      <trkpt lat="46.91389" lon="8.62364">
        <ele>429</ele>
        <time>2021-08-07T13:28:17.266Z</time>
      </trkpt>
      <trkpt lat="46.91389" lon="8.62363">
        <ele>429</ele>
        <time>2021-08-07T13:28:18.267Z</time>
      </trkpt>
      <trkpt lat="46.91388" lon="8.62362">
        <ele>429</ele>
        <time>2021-08-07T13:28:19.267Z</time>
      </trkpt>
      <trkpt lat="46.91384" lon="8.62363">
        <ele>430</ele>
        <time>2021-08-07T13:28:20.267Z</time>
      </trkpt>
      <trkpt lat="46.91384" lon="8.62363">
        <ele>430</ele>
        <time>2021-08-07T13:28:21.267Z</time>
      </trkpt>
      <trkpt lat="46.91384" lon="8.62364">
        <ele>430</ele>
        <time>2021-08-07T13:28:22.266Z</time>
      </trkpt>
      <trkpt lat="46.91383" lon="8.62364">
        <ele>430</ele>
        <time>2021-08-07T13:28:23.266Z</time>
      </trkpt>
      <trkpt lat="46.91382" lon="8.62364">
        <ele>431</ele>
        <time>2021-08-07T13:28:24.267Z</time>
      </trkpt>
      <trkpt lat="46.91382" lon="8.62364">
        <ele>431</ele>
        <time>2021-08-07T13:28:25.267Z</time>
      </trkpt>
      <trkpt lat="46.91383" lon="8.62364">
        <ele>431</ele>
        <time>2021-08-07T13:28:26.267Z</time>
      </trkpt>
      <trkpt lat="46.91383" lon="8.62365">
        <ele>432</ele>
        <time>2021-08-07T13:28:27.266Z</time>
      </trkpt>
      <trkpt lat="46.91383" lon="8.62366">
        <ele>432</ele>
        <time>2021-08-07T13:28:28.267Z</time>
      </trkpt>
      <trkpt lat="46.91382" lon="8.62366">
        <ele>433</ele>
        <time>2021-08-07T13:28:29.266Z</time>
      </trkpt>
      <trkpt lat="46.91382" lon="8.62367">
        <ele>433</ele>
        <time>2021-08-07T13:28:30.267Z</time>
      </trkpt>
      <trkpt lat="46.91382" lon="8.62369">
        <ele>434</ele>
        <time>2021-08-07T13:28:31.267Z</time>
      </trkpt>
      <trkpt lat="46.91382" lon="8.6237">
        <ele>434</ele>
        <time>2021-08-07T13:28:32.267Z</time>
      </trkpt>
      <trkpt lat="46.91381" lon="8.62368">
        <ele>435</ele>
        <time>2021-08-07T13:28:33.267Z</time>
      </trkpt>
      <trkpt lat="46.91381" lon="8.62367">
        <ele>436</ele>
        <time>2021-08-07T13:28:34.267Z</time>
      </trkpt>
      <trkpt lat="46.91382" lon="8.62367">
        <ele>436</ele>
        <time>2021-08-07T13:28:35.266Z</time>
      </trkpt>
      <trkpt lat="46.91382" lon="8.62366">
        <ele>437</ele>
        <time>2021-08-07T13:28:36.266Z</time>
      </trkpt>
      <trkpt lat="46.91382" lon="8.62365">
        <ele>437</ele>
        <time>2021-08-07T13:28:37.266Z</time>
      </trkpt>
      <trkpt lat="46.91382" lon="8.62365">
        <ele>438</ele>
        <time>2021-08-07T13:28:38.266Z</time>
      </trkpt>
      <trkpt lat="46.91382" lon="8.62365">
        <ele>438</ele>
        <time>2021-08-07T13:28:39.267Z</time>
      </trkpt>
      <trkpt lat="46.91383" lon="8.62365">
        <ele>439</ele>
        <time>2021-08-07T13:28:40.266Z</time>
      </trkpt>
      <trkpt lat="46.91383" lon="8.62365">
        <ele>439</ele>
        <time>2021-08-07T13:28:41.267Z</time>
      </trkpt>
      <trkpt lat="46.91384" lon="8.62365">
        <ele>440</ele>
        <time>2021-08-07T13:28:42.267Z</time>
      </trkpt>
      <trkpt lat="46.91384" lon="8.62364">
        <ele>442</ele>
        <time>2021-08-07T13:28:43.267Z</time>
      </trkpt>
      <trkpt lat="46.91384" lon="8.62364">
        <ele>443</ele>
        <time>2021-08-07T13:28:44.267Z</time>
      </trkpt>
      <trkpt lat="46.91384" lon="8.62364">
        <ele>445</ele>
        <time>2021-08-07T13:28:45.267Z</time>
      </trkpt>
      <trkpt lat="46.91384" lon="8.62363">
        <ele>446</ele>
        <time>2021-08-07T13:28:46.266Z</time>
      </trkpt>
      <trkpt lat="46.91384" lon="8.62362">
        <ele>455</ele>
        <time>2021-08-07T13:28:47.266Z</time>
      </trkpt>
      <trkpt lat="46.91384" lon="8.62362">
        <ele>456</ele>
        <time>2021-08-07T13:28:48.266Z</time>
      </trkpt>
      <trkpt lat="46.91384" lon="8.62362">
        <ele>457</ele>
        <time>2021-08-07T13:28:49.266Z</time>
      </trkpt>
      <trkpt lat="46.91381" lon="8.62351">
        <ele>464</ele>
        <time>2021-08-07T13:28:50.267Z</time>
      </trkpt>
      <trkpt lat="46.91381" lon="8.6235">
        <ele>465</ele>
        <time>2021-08-07T13:28:51.267Z</time>
      </trkpt>
      <trkpt lat="46.91379" lon="8.62347">
        <ele>466</ele>
        <time>2021-08-07T13:28:52.268Z</time>
      </trkpt>
      <trkpt lat="46.91379" lon="8.6234">
        <ele>468</ele>
        <time>2021-08-07T13:28:53.269Z</time>
      </trkpt>
      <trkpt lat="46.91379" lon="8.62341">
        <ele>467</ele>
        <time>2021-08-07T13:28:54.270Z</time>
      </trkpt>
      <trkpt lat="46.91379" lon="8.62342">
        <ele>467</ele>
        <time>2021-08-07T13:28:55.270Z</time>
      </trkpt>
      <trkpt lat="46.91379" lon="8.62343">
        <ele>466</ele>
        <time>2021-08-07T13:28:56.269Z</time>
      </trkpt>
      <trkpt lat="46.9138" lon="8.62344">
        <ele>466</ele>
        <time>2021-08-07T13:28:57.269Z</time>
      </trkpt>
      <trkpt lat="46.91382" lon="8.62343">
        <ele>465</ele>
        <time>2021-08-07T13:28:58.270Z</time>
      </trkpt>
      <trkpt lat="46.91382" lon="8.62342">
        <ele>465</ele>
        <time>2021-08-07T13:28:59.269Z</time>
      </trkpt>
      <trkpt lat="46.91381" lon="8.62341">
        <ele>465</ele>
        <time>2021-08-07T13:29:00.270Z</time>
      </trkpt>
      <trkpt lat="46.91381" lon="8.62338">
        <ele>465</ele>
        <time>2021-08-07T13:29:01.270Z</time>
      </trkpt>
      <trkpt lat="46.9138" lon="8.62336">
        <ele>465</ele>
        <time>2021-08-07T13:29:02.270Z</time>
      </trkpt>
      <trkpt lat="46.91379" lon="8.62334">
        <ele>465</ele>
        <time>2021-08-07T13:29:03.269Z</time>
      </trkpt>
      <trkpt lat="46.91379" lon="8.62334">
        <ele>464</ele>
        <time>2021-08-07T13:29:04.269Z</time>
      </trkpt>
      <trkpt lat="46.91379" lon="8.62335">
        <ele>464</ele>
        <time>2021-08-07T13:29:05.270Z</time>
      </trkpt>
      <trkpt lat="46.91379" lon="8.62334">
        <ele>464</ele>
        <time>2021-08-07T13:29:06.270Z</time>
      </trkpt>
      <trkpt lat="46.91379" lon="8.62332">
        <ele>464</ele>
        <time>2021-08-07T13:29:07.270Z</time>
      </trkpt>
      <trkpt lat="46.91379" lon="8.62331">
        <ele>464</ele>
        <time>2021-08-07T13:29:08.269Z</time>
      </trkpt>
      <trkpt lat="46.91379" lon="8.62331">
        <ele>464</ele>
        <time>2021-08-07T13:29:09.269Z</time>
      </trkpt>
      <trkpt lat="46.91379" lon="8.62331">
        <ele>464</ele>
        <time>2021-08-07T13:29:10.269Z</time>
      </trkpt>
      <trkpt lat="46.9138" lon="8.62331">
        <ele>464</ele>
        <time>2021-08-07T13:29:11.269Z</time>
      </trkpt>
      <trkpt lat="46.9138" lon="8.62331">
        <ele>464</ele>
        <time>2021-08-07T13:29:12.269Z</time>
      </trkpt>
      <trkpt lat="46.91379" lon="8.62331">
        <ele>464</ele>
        <time>2021-08-07T13:29:13.270Z</time>
      </trkpt>
      <trkpt lat="46.91379" lon="8.62332">
        <ele>464</ele>
        <time>2021-08-07T13:29:14.270Z</time>
      </trkpt>
      <trkpt lat="46.91379" lon="8.62331">
        <ele>464</ele>
        <time>2021-08-07T13:29:15.269Z</time>
      </trkpt>
      <trkpt lat="46.91378" lon="8.62331">
        <ele>464</ele>
        <time>2021-08-07T13:29:16.269Z</time>
      </trkpt>
      <trkpt lat="46.91378" lon="8.62331">
        <ele>464</ele>
        <time>2021-08-07T13:29:17.269Z</time>
      </trkpt>
      <trkpt lat="46.91377" lon="8.62331">
        <ele>464</ele>
        <time>2021-08-07T13:29:18.269Z</time>
      </trkpt>
      <trkpt lat="46.91377" lon="8.6233">
        <ele>464</ele>
        <time>2021-08-07T13:29:19.269Z</time>
      </trkpt>
      <trkpt lat="46.91377" lon="8.62329">
        <ele>464</ele>
        <time>2021-08-07T13:29:20.270Z</time>
      </trkpt>
      <trkpt lat="46.91376" lon="8.62329">
        <ele>464</ele>
        <time>2021-08-07T13:29:21.269Z</time>
      </trkpt>
      <trkpt lat="46.91376" lon="8.62328">
        <ele>464</ele>
        <time>2021-08-07T13:29:22.269Z</time>
      </trkpt>
      <trkpt lat="46.91376" lon="8.62328">
        <ele>464</ele>
        <time>2021-08-07T13:29:24.397Z</time>
      </trkpt>
      <trkpt lat="46.91376" lon="8.62327">
        <ele>464</ele>
        <time>2021-08-07T13:29:29.149Z</time>
      </trkpt>
      <trkpt lat="46.91375" lon="8.62326">
        <ele>464</ele>
        <time>2021-08-07T13:29:30.148Z</time>
      </trkpt>
      <trkpt lat="46.91374" lon="8.62324">
        <ele>464</ele>
        <time>2021-08-07T13:29:31.148Z</time>
      </trkpt>
      <trkpt lat="46.91374" lon="8.62324">
        <ele>464</ele>
        <time>2021-08-07T13:29:32.148Z</time>
      </trkpt>
      <trkpt lat="46.91374" lon="8.62326">
        <ele>464</ele>
        <time>2021-08-07T13:29:33.148Z</time>
      </trkpt>
      <trkpt lat="46.91374" lon="8.62327">
        <ele>464</ele>
        <time>2021-08-07T13:29:37.260Z</time>
      </trkpt>
      <trkpt lat="46.91374" lon="8.62327">
        <ele>464</ele>
        <time>2021-08-07T13:29:38.967Z</time>
      </trkpt>
      <trkpt lat="46.91375" lon="8.62327">
        <ele>464</ele>
        <time>2021-08-07T13:29:39.967Z</time>
      </trkpt>
      <trkpt lat="46.91375" lon="8.62326">
        <ele>464</ele>
        <time>2021-08-07T13:29:40.968Z</time>
      </trkpt>
      <trkpt lat="46.91376" lon="8.62325">
        <ele>464</ele>
        <time>2021-08-07T13:29:41.967Z</time>
      </trkpt>
      <trkpt lat="46.91376" lon="8.62324">
        <ele>464</ele>
        <time>2021-08-07T13:29:42.967Z</time>
      </trkpt>
      <trkpt lat="46.91377" lon="8.62324">
        <ele>464</ele>
        <time>2021-08-07T13:29:45.968Z</time>
      </trkpt>
      <trkpt lat="46.91378" lon="8.62324">
        <ele>464</ele>
        <time>2021-08-07T13:29:46.967Z</time>
      </trkpt>
      <trkpt lat="46.91378" lon="8.62323">
        <ele>464</ele>
        <time>2021-08-07T13:30:06.750Z</time>
      </trkpt>
      <trkpt lat="46.91379" lon="8.62323">
        <ele>464</ele>
        <time>2021-08-07T13:30:07.749Z</time>
      </trkpt>
      <trkpt lat="46.91378" lon="8.62322">
        <ele>464</ele>
        <time>2021-08-07T13:30:11.522Z</time>
      </trkpt>
      <trkpt lat="46.91378" lon="8.62322">
        <ele>464</ele>
        <time>2021-08-07T13:30:12.523Z</time>
      </trkpt>
      <trkpt lat="46.91378" lon="8.62322">
        <ele>464</ele>
        <time>2021-08-07T13:30:13.523Z</time>
      </trkpt>
      <trkpt lat="46.91378" lon="8.62322">
        <ele>465</ele>
        <time>2021-08-07T13:30:14.523Z</time>
      </trkpt>
      <trkpt lat="46.91378" lon="8.62322">
        <ele>465</ele>
        <time>2021-08-07T13:30:15.523Z</time>
      </trkpt>
      <trkpt lat="46.91378" lon="8.62323">
        <ele>465</ele>
        <time>2021-08-07T13:30:16.522Z</time>
      </trkpt>
      <trkpt lat="46.91379" lon="8.62325">
        <ele>465</ele>
        <time>2021-08-07T13:30:17.522Z</time>
      </trkpt>
      <trkpt lat="46.9138" lon="8.62326">
        <ele>465</ele>
        <time>2021-08-07T13:30:18.523Z</time>
      </trkpt>
      <trkpt lat="46.9138" lon="8.62326">
        <ele>465</ele>
        <time>2021-08-07T13:30:19.523Z</time>
      </trkpt>
      <trkpt lat="46.91381" lon="8.62326">
        <ele>465</ele>
        <time>2021-08-07T13:30:20.523Z</time>
      </trkpt>
      <trkpt lat="46.91382" lon="8.62327">
        <ele>465</ele>
        <time>2021-08-07T13:30:21.523Z</time>
      </trkpt>
      <trkpt lat="46.91383" lon="8.62328">
        <ele>464</ele>
        <time>2021-08-07T13:30:22.523Z</time>
      </trkpt>
      <trkpt lat="46.91383" lon="8.62329">
        <ele>465</ele>
        <time>2021-08-07T13:30:23.522Z</time>
      </trkpt>
      <trkpt lat="46.91383" lon="8.6233">
        <ele>465</ele>
        <time>2021-08-07T13:30:24.523Z</time>
      </trkpt>
      <trkpt lat="46.91383" lon="8.62331">
        <ele>466</ele>
        <time>2021-08-07T13:30:25.523Z</time>
      </trkpt>
      <trkpt lat="46.91383" lon="8.62334">
        <ele>466</ele>
        <time>2021-08-07T13:30:26.522Z</time>
      </trkpt>
      <trkpt lat="46.91383" lon="8.62337">
        <ele>466</ele>
        <time>2021-08-07T13:30:27.523Z</time>
      </trkpt>
      <trkpt lat="46.91383" lon="8.6234">
        <ele>467</ele>
        <time>2021-08-07T13:30:28.523Z</time>
      </trkpt>
      <trkpt lat="46.91384" lon="8.62341">
        <ele>467</ele>
        <time>2021-08-07T13:30:29.523Z</time>
      </trkpt>
      <trkpt lat="46.91384" lon="8.62342">
        <ele>467</ele>
        <time>2021-08-07T13:30:30.523Z</time>
      </trkpt>
      <trkpt lat="46.91385" lon="8.62342">
        <ele>467</ele>
        <time>2021-08-07T13:30:31.523Z</time>
      </trkpt>
      <trkpt lat="46.91385" lon="8.62343">
        <ele>467</ele>
        <time>2021-08-07T13:30:32.522Z</time>
      </trkpt>
      <trkpt lat="46.91385" lon="8.62344">
        <ele>467</ele>
        <time>2021-08-07T13:30:33.522Z</time>
      </trkpt>
      <trkpt lat="46.91384" lon="8.62345">
        <ele>467</ele>
        <time>2021-08-07T13:30:34.523Z</time>
      </trkpt>
      <trkpt lat="46.91383" lon="8.62345">
        <ele>466</ele>
        <time>2021-08-07T13:30:35.523Z</time>
      </trkpt>
      <trkpt lat="46.91382" lon="8.62346">
        <ele>467</ele>
        <time>2021-08-07T13:30:36.523Z</time>
      </trkpt>
      <trkpt lat="46.91382" lon="8.62348">
        <ele>467</ele>
        <time>2021-08-07T13:30:37.523Z</time>
      </trkpt>
      <trkpt lat="46.91383" lon="8.6235">
        <ele>467</ele>
        <time>2021-08-07T13:30:38.523Z</time>
      </trkpt>
      <trkpt lat="46.91383" lon="8.62351">
        <ele>467</ele>
        <time>2021-08-07T13:30:39.523Z</time>
      </trkpt>
      <trkpt lat="46.91383" lon="8.62353">
        <ele>466</ele>
        <time>2021-08-07T13:30:40.522Z</time>
      </trkpt>
      <trkpt lat="46.91382" lon="8.62354">
        <ele>466</ele>
        <time>2021-08-07T13:30:41.523Z</time>
      </trkpt>
      <trkpt lat="46.9138" lon="8.62347">
        <ele>464</ele>
        <time>2021-08-07T13:30:46.523Z</time>
      </trkpt>
      <trkpt lat="46.9138" lon="8.62349">
        <ele>464</ele>
        <time>2021-08-07T13:30:47.524Z</time>
      </trkpt>
      <trkpt lat="46.9138" lon="8.62349">
        <ele>463</ele>
        <time>2021-08-07T13:30:48.524Z</time>
      </trkpt>
      <trkpt lat="46.9138" lon="8.62348">
        <ele>463</ele>
        <time>2021-08-07T13:30:49.523Z</time>
      </trkpt>
      <trkpt lat="46.9138" lon="8.62349">
        <ele>463</ele>
        <time>2021-08-07T13:30:50.524Z</time>
      </trkpt>
      <trkpt lat="46.91381" lon="8.62349">
        <ele>463</ele>
        <time>2021-08-07T13:30:51.524Z</time>
      </trkpt>
      <trkpt lat="46.91381" lon="8.62349">
        <ele>463</ele>
        <time>2021-08-07T13:30:52.524Z</time>
      </trkpt>
      <trkpt lat="46.91381" lon="8.62349">
        <ele>463</ele>
        <time>2021-08-07T13:30:53.524Z</time>
      </trkpt>
      <trkpt lat="46.91381" lon="8.62349">
        <ele>463</ele>
        <time>2021-08-07T13:30:54.523Z</time>
      </trkpt>
      <trkpt lat="46.91381" lon="8.6235">
        <ele>463</ele>
        <time>2021-08-07T13:30:55.524Z</time>
      </trkpt>
      <trkpt lat="46.91381" lon="8.6235">
        <ele>463</ele>
        <time>2021-08-07T13:30:56.523Z</time>
      </trkpt>
      <trkpt lat="46.91381" lon="8.6235">
        <ele>463</ele>
        <time>2021-08-07T13:31:00.612Z</time>
      </trkpt>
      <trkpt lat="46.91381" lon="8.6235">
        <ele>463</ele>
        <time>2021-08-07T13:31:01.612Z</time>
      </trkpt>
      <trkpt lat="46.91381" lon="8.6235">
        <ele>463</ele>
        <time>2021-08-07T13:31:02.612Z</time>
      </trkpt>
      <trkpt lat="46.91381" lon="8.6235">
        <ele>463</ele>
        <time>2021-08-07T13:31:03.611Z</time>
      </trkpt>
      <trkpt lat="46.91381" lon="8.6235">
        <ele>463</ele>
        <time>2021-08-07T13:31:04.612Z</time>
      </trkpt>
      <trkpt lat="46.9138" lon="8.62351">
        <ele>463</ele>
        <time>2021-08-07T13:31:13.758Z</time>
      </trkpt>
      <trkpt lat="46.9138" lon="8.62352">
        <ele>464</ele>
        <time>2021-08-07T13:31:14.758Z</time>
      </trkpt>
      <trkpt lat="46.91379" lon="8.62353">
        <ele>464</ele>
        <time>2021-08-07T13:31:15.758Z</time>
      </trkpt>
      <trkpt lat="46.91379" lon="8.62354">
        <ele>464</ele>
        <time>2021-08-07T13:31:16.758Z</time>
      </trkpt>
      <trkpt lat="46.91379" lon="8.62355">
        <ele>464</ele>
        <time>2021-08-07T13:31:17.758Z</time>
      </trkpt>
      <trkpt lat="46.91379" lon="8.62355">
        <ele>465</ele>
        <time>2021-08-07T13:31:18.757Z</time>
      </trkpt>
      <trkpt lat="46.91379" lon="8.62355">
        <ele>465</ele>
        <time>2021-08-07T13:31:19.758Z</time>
      </trkpt>
      <trkpt lat="46.91379" lon="8.62356">
        <ele>465</ele>
        <time>2021-08-07T13:31:20.757Z</time>
      </trkpt>
      <trkpt lat="46.91379" lon="8.62357">
        <ele>465</ele>
        <time>2021-08-07T13:31:21.758Z</time>
      </trkpt>
      <trkpt lat="46.91382" lon="8.62358">
        <ele>466</ele>
        <time>2021-08-07T13:33:51.104Z</time>
      </trkpt>
      <trkpt lat="46.91388" lon="8.62372">
        <ele>466</ele>
        <time>2021-08-07T13:33:55.121Z</time>
      </trkpt>
      <trkpt lat="46.91389" lon="8.62366">
        <ele>466</ele>
        <time>2021-08-07T13:33:56.121Z</time>
      </trkpt>
      <trkpt lat="46.91391" lon="8.62359">
        <ele>466</ele>
        <time>2021-08-07T13:33:57.122Z</time>
      </trkpt>
      <trkpt lat="46.91392" lon="8.62364">
        <ele>467</ele>
        <time>2021-08-07T13:33:58.121Z</time>
      </trkpt>
      <trkpt lat="46.91391" lon="8.6236">
        <ele>467</ele>
        <time>2021-08-07T13:33:59.122Z</time>
      </trkpt>
      <trkpt lat="46.9139" lon="8.62355">
        <ele>467</ele>
        <time>2021-08-07T13:34:00.121Z</time>
      </trkpt>
      <trkpt lat="46.91389" lon="8.62353">
        <ele>467</ele>
        <time>2021-08-07T13:34:01.122Z</time>
      </trkpt>
      <trkpt lat="46.91388" lon="8.62351">
        <ele>467</ele>
        <time>2021-08-07T13:34:02.122Z</time>
      </trkpt>
      <trkpt lat="46.91388" lon="8.62351">
        <ele>467</ele>
        <time>2021-08-07T13:34:03.121Z</time>
      </trkpt>
      <trkpt lat="46.91388" lon="8.6235">
        <ele>468</ele>
        <time>2021-08-07T13:34:04.123Z</time>
      </trkpt>
      <trkpt lat="46.91388" lon="8.62349">
        <ele>470</ele>
        <time>2021-08-07T13:34:05.124Z</time>
      </trkpt>
      <trkpt lat="46.91389" lon="8.62349">
        <ele>470</ele>
        <time>2021-08-07T13:34:06.124Z</time>
      </trkpt>
      <trkpt lat="46.91389" lon="8.6235">
        <ele>471</ele>
        <time>2021-08-07T13:34:07.123Z</time>
      </trkpt>
      <trkpt lat="46.91389" lon="8.6235">
        <ele>471</ele>
        <time>2021-08-07T13:34:08.123Z</time>
      </trkpt>
      <trkpt lat="46.91389" lon="8.62351">
        <ele>471</ele>
        <time>2021-08-07T13:34:09.124Z</time>
      </trkpt>
      <trkpt lat="46.91392" lon="8.6236">
        <ele>469</ele>
        <time>2021-08-07T13:34:10.123Z</time>
      </trkpt>
      <trkpt lat="46.91392" lon="8.6236">
        <ele>468</ele>
        <time>2021-08-07T13:34:11.123Z</time>
      </trkpt>
      <trkpt lat="46.91392" lon="8.6236">
        <ele>468</ele>
        <time>2021-08-07T13:34:12.123Z</time>
      </trkpt>
      <trkpt lat="46.91393" lon="8.62362">
        <ele>464</ele>
        <time>2021-08-07T13:34:13.123Z</time>
      </trkpt>
      <trkpt lat="46.91393" lon="8.62362">
        <ele>463</ele>
        <time>2021-08-07T13:34:14.123Z</time>
      </trkpt>
      <trkpt lat="46.91393" lon="8.62363">
        <ele>462</ele>
        <time>2021-08-07T13:34:15.124Z</time>
      </trkpt>
      <trkpt lat="46.91393" lon="8.62362">
        <ele>462</ele>
        <time>2021-08-07T13:34:18.215Z</time>
      </trkpt>
      <trkpt lat="46.91393" lon="8.62362">
        <ele>461</ele>
        <time>2021-08-07T13:34:19.215Z</time>
      </trkpt>
      <trkpt lat="46.91393" lon="8.62362">
        <ele>460</ele>
        <time>2021-08-07T13:34:20.215Z</time>
      </trkpt>
      <trkpt lat="46.91393" lon="8.62363">
        <ele>459</ele>
        <time>2021-08-07T13:34:21.214Z</time>
      </trkpt>
      <trkpt lat="46.91393" lon="8.62363">
        <ele>458</ele>
        <time>2021-08-07T13:34:22.214Z</time>
      </trkpt>
      <trkpt lat="46.91393" lon="8.62363">
        <ele>457</ele>
        <time>2021-08-07T13:34:23.214Z</time>
      </trkpt>
      <trkpt lat="46.91392" lon="8.62359">
        <ele>454</ele>
        <time>2021-08-07T13:34:24.215Z</time>
      </trkpt>
      <trkpt lat="46.91391" lon="8.62358">
        <ele>454</ele>
        <time>2021-08-07T13:34:25.215Z</time>
      </trkpt>
      <trkpt lat="46.9139" lon="8.62357">
        <ele>454</ele>
        <time>2021-08-07T13:34:26.216Z</time>
      </trkpt>
      <trkpt lat="46.91389" lon="8.62357">
        <ele>454</ele>
        <time>2021-08-07T13:34:27.216Z</time>
      </trkpt>
      <trkpt lat="46.91388" lon="8.62356">
        <ele>455</ele>
        <time>2021-08-07T13:34:28.216Z</time>
      </trkpt>
      <trkpt lat="46.91388" lon="8.62357">
        <ele>455</ele>
        <time>2021-08-07T13:34:29.215Z</time>
      </trkpt>
      <trkpt lat="46.91388" lon="8.62358">
        <ele>455</ele>
        <time>2021-08-07T13:34:30.215Z</time>
      </trkpt>
      <trkpt lat="46.91388" lon="8.62358">
        <ele>455</ele>
        <time>2021-08-07T13:34:31.215Z</time>
      </trkpt>
      <trkpt lat="46.91387" lon="8.62358">
        <ele>456</ele>
        <time>2021-08-07T13:34:32.215Z</time>
      </trkpt>
      <trkpt lat="46.91387" lon="8.62359">
        <ele>456</ele>
        <time>2021-08-07T13:34:33.215Z</time>
      </trkpt>
      <trkpt lat="46.91386" lon="8.62358">
        <ele>456</ele>
        <time>2021-08-07T13:34:34.216Z</time>
      </trkpt>
      <trkpt lat="46.91385" lon="8.62357">
        <ele>457</ele>
        <time>2021-08-07T13:34:35.215Z</time>
      </trkpt>
      <trkpt lat="46.91384" lon="8.62356">
        <ele>457</ele>
        <time>2021-08-07T13:34:36.215Z</time>
      </trkpt>
      <trkpt lat="46.91383" lon="8.62355">
        <ele>457</ele>
        <time>2021-08-07T13:34:37.216Z</time>
      </trkpt>
      <trkpt lat="46.91383" lon="8.62353">
        <ele>458</ele>
        <time>2021-08-07T13:34:38.215Z</time>
      </trkpt>
      <trkpt lat="46.91382" lon="8.62351">
        <ele>458</ele>
        <time>2021-08-07T13:34:39.215Z</time>
      </trkpt>
      <trkpt lat="46.91383" lon="8.62349">
        <ele>458</ele>
        <time>2021-08-07T13:34:40.215Z</time>
      </trkpt>
      <trkpt lat="46.91384" lon="8.62348">
        <ele>458</ele>
        <time>2021-08-07T13:34:41.216Z</time>
      </trkpt>
      <trkpt lat="46.91385" lon="8.62348">
        <ele>458</ele>
        <time>2021-08-07T13:34:42.215Z</time>
      </trkpt>
      <trkpt lat="46.91386" lon="8.62348">
        <ele>459</ele>
        <time>2021-08-07T13:34:43.216Z</time>
      </trkpt>
      <trkpt lat="46.91386" lon="8.62348">
        <ele>459</ele>
        <time>2021-08-07T13:34:44.216Z</time>
      </trkpt>
      <trkpt lat="46.91387" lon="8.62348">
        <ele>459</ele>
        <time>2021-08-07T13:34:45.216Z</time>
      </trkpt>
      <trkpt lat="46.91387" lon="8.62349">
        <ele>459</ele>
        <time>2021-08-07T13:34:46.216Z</time>
      </trkpt>
      <trkpt lat="46.91386" lon="8.62352">
        <ele>459</ele>
        <time>2021-08-07T13:34:47.216Z</time>
      </trkpt>
      <trkpt lat="46.91386" lon="8.62353">
        <ele>459</ele>
        <time>2021-08-07T13:34:48.215Z</time>
      </trkpt>
      <trkpt lat="46.91385" lon="8.62354">
        <ele>460</ele>
        <time>2021-08-07T13:34:49.215Z</time>
      </trkpt>
      <trkpt lat="46.91384" lon="8.62354">
        <ele>460</ele>
        <time>2021-08-07T13:34:50.216Z</time>
      </trkpt>
      <trkpt lat="46.91384" lon="8.62354">
        <ele>460</ele>
        <time>2021-08-07T13:34:51.216Z</time>
      </trkpt>
      <trkpt lat="46.91384" lon="8.62355">
        <ele>460</ele>
        <time>2021-08-07T13:34:52.215Z</time>
      </trkpt>
      <trkpt lat="46.91384" lon="8.62355">
        <ele>460</ele>
        <time>2021-08-07T13:34:53.216Z</time>
      </trkpt>
      <trkpt lat="46.91384" lon="8.62355">
        <ele>461</ele>
        <time>2021-08-07T13:34:54.215Z</time>
      </trkpt>
      <trkpt lat="46.91385" lon="8.62355">
        <ele>461</ele>
        <time>2021-08-07T13:34:55.216Z</time>
      </trkpt>
      <trkpt lat="46.91385" lon="8.62354">
        <ele>461</ele>
        <time>2021-08-07T13:34:56.215Z</time>
      </trkpt>
      <trkpt lat="46.91386" lon="8.62355">
        <ele>461</ele>
        <time>2021-08-07T13:34:57.216Z</time>
      </trkpt>
      <trkpt lat="46.91386" lon="8.62355">
        <ele>462</ele>
        <time>2021-08-07T13:34:58.215Z</time>
      </trkpt>
      <trkpt lat="46.91387" lon="8.62356">
        <ele>462</ele>
        <time>2021-08-07T13:34:59.216Z</time>
      </trkpt>
      <trkpt lat="46.91388" lon="8.62356">
        <ele>462</ele>
        <time>2021-08-07T13:35:00.215Z</time>
      </trkpt>
      <trkpt lat="46.91389" lon="8.62356">
        <ele>462</ele>
        <time>2021-08-07T13:35:01.216Z</time>
      </trkpt>
      <trkpt lat="46.91389" lon="8.62357">
        <ele>462</ele>
        <time>2021-08-07T13:35:02.215Z</time>
      </trkpt>
      <trkpt lat="46.91389" lon="8.62358">
        <ele>462</ele>
        <time>2021-08-07T13:35:03.216Z</time>
      </trkpt>
      <trkpt lat="46.9139" lon="8.62359">
        <ele>462</ele>
        <time>2021-08-07T13:35:04.216Z</time>
      </trkpt>
      <trkpt lat="46.91392" lon="8.6236">
        <ele>462</ele>
        <time>2021-08-07T13:35:05.216Z</time>
      </trkpt>
      <trkpt lat="46.91394" lon="8.62362">
        <ele>462</ele>
        <time>2021-08-07T13:35:06.215Z</time>
      </trkpt>
      <trkpt lat="46.91396" lon="8.62363">
        <ele>462</ele>
        <time>2021-08-07T13:35:07.215Z</time>
      </trkpt>
      <trkpt lat="46.91397" lon="8.62364">
        <ele>462</ele>
        <time>2021-08-07T13:35:08.215Z</time>
      </trkpt>
      <trkpt lat="46.91398" lon="8.62366">
        <ele>462</ele>
        <time>2021-08-07T13:35:09.215Z</time>
      </trkpt>
      <trkpt lat="46.91397" lon="8.62367">
        <ele>462</ele>
        <time>2021-08-07T13:35:10.215Z</time>
      </trkpt>
      <trkpt lat="46.91393" lon="8.6237">
        <ele>462</ele>
        <time>2021-08-07T13:35:11.215Z</time>
      </trkpt>
      <trkpt lat="46.91392" lon="8.62374">
        <ele>462</ele>
        <time>2021-08-07T13:35:12.215Z</time>
      </trkpt>
      <trkpt lat="46.91391" lon="8.6238">
        <ele>462</ele>
        <time>2021-08-07T13:35:23.233Z</time>
      </trkpt>
      <trkpt lat="46.91389" lon="8.62384">
        <ele>462</ele>
        <time>2021-08-07T13:35:24.233Z</time>
      </trkpt>
      <trkpt lat="46.91387" lon="8.62385">
        <ele>461</ele>
        <time>2021-08-07T13:35:26.233Z</time>
      </trkpt>
      <trkpt lat="46.91385" lon="8.62384">
        <ele>461</ele>
        <time>2021-08-07T13:35:27.232Z</time>
      </trkpt>
      <trkpt lat="46.91386" lon="8.62383">
        <ele>461</ele>
        <time>2021-08-07T13:35:28.232Z</time>
      </trkpt>
      <trkpt lat="46.91387" lon="8.62383">
        <ele>461</ele>
        <time>2021-08-07T13:35:29.233Z</time>
      </trkpt>
      <trkpt lat="46.91389" lon="8.62383">
        <ele>461</ele>
        <time>2021-08-07T13:35:30.233Z</time>
      </trkpt>
      <trkpt lat="46.91391" lon="8.62383">
        <ele>461</ele>
        <time>2021-08-07T13:35:33.235Z</time>
      </trkpt>
      <trkpt lat="46.91392" lon="8.62382">
        <ele>461</ele>
        <time>2021-08-07T13:35:34.235Z</time>
      </trkpt>
      <trkpt lat="46.91393" lon="8.62382">
        <ele>461</ele>
        <time>2021-08-07T13:35:35.234Z</time>
      </trkpt>
      <trkpt lat="46.91393" lon="8.62381">
        <ele>461</ele>
        <time>2021-08-07T13:35:36.234Z</time>
      </trkpt>
      <trkpt lat="46.91394" lon="8.62379">
        <ele>461</ele>
        <time>2021-08-07T13:35:44.249Z</time>
      </trkpt>
      <trkpt lat="46.91394" lon="8.62377">
        <ele>461</ele>
        <time>2021-08-07T13:35:45.249Z</time>
      </trkpt>
      <trkpt lat="46.91396" lon="8.62377">
        <ele>461</ele>
        <time>2021-08-07T13:35:46.249Z</time>
      </trkpt>
      <trkpt lat="46.91397" lon="8.62378">
        <ele>461</ele>
        <time>2021-08-07T13:35:47.249Z</time>
      </trkpt>
      <trkpt lat="46.91398" lon="8.6238">
        <ele>461</ele>
        <time>2021-08-07T13:35:50.249Z</time>
      </trkpt>
      <trkpt lat="46.91398" lon="8.62381">
        <ele>461</ele>
        <time>2021-08-07T13:35:51.250Z</time>
      </trkpt>
      <trkpt lat="46.91398" lon="8.62376">
        <ele>461</ele>
        <time>2021-08-07T13:35:53.249Z</time>
      </trkpt>
      <trkpt lat="46.91399" lon="8.62373">
        <ele>461</ele>
        <time>2021-08-07T13:35:54.250Z</time>
      </trkpt>
      <trkpt lat="46.914" lon="8.62372">
        <ele>461</ele>
        <time>2021-08-07T13:35:55.250Z</time>
      </trkpt>
      <trkpt lat="46.91401" lon="8.62371">
        <ele>461</ele>
        <time>2021-08-07T13:35:56.250Z</time>
      </trkpt>
      <trkpt lat="46.91401" lon="8.6237">
        <ele>461</ele>
        <time>2021-08-07T13:35:57.249Z</time>
      </trkpt>
      <trkpt lat="46.91399" lon="8.62373">
        <ele>461</ele>
        <time>2021-08-07T13:35:59.249Z</time>
      </trkpt>
      <trkpt lat="46.91398" lon="8.62373">
        <ele>461</ele>
        <time>2021-08-07T13:36:00.249Z</time>
      </trkpt>
      <trkpt lat="46.91396" lon="8.62373">
        <ele>461</ele>
        <time>2021-08-07T13:36:01.249Z</time>
      </trkpt>
      <trkpt lat="46.91396" lon="8.62373">
        <ele>461</ele>
        <time>2021-08-07T13:36:02.249Z</time>
      </trkpt>
      <trkpt lat="46.91396" lon="8.62373">
        <ele>461</ele>
        <time>2021-08-07T13:36:03.250Z</time>
      </trkpt>
      <trkpt lat="46.91396" lon="8.62373">
        <ele>460</ele>
        <time>2021-08-07T13:36:04.250Z</time>
      </trkpt>
      <trkpt lat="46.91396" lon="8.62374">
        <ele>460</ele>
        <time>2021-08-07T13:36:05.250Z</time>
      </trkpt>
      <trkpt lat="46.91396" lon="8.62379">
        <ele>460</ele>
        <time>2021-08-07T13:36:06.249Z</time>
      </trkpt>
      <trkpt lat="46.91396" lon="8.62388">
        <ele>460</ele>
        <time>2021-08-07T13:36:07.249Z</time>
      </trkpt>
      <trkpt lat="46.91396" lon="8.62394">
        <ele>460</ele>
        <time>2021-08-07T13:36:18.292Z</time>
      </trkpt>
      <trkpt lat="46.91395" lon="8.62397">
        <ele>460</ele>
        <time>2021-08-07T13:36:19.292Z</time>
      </trkpt>
      <trkpt lat="46.91395" lon="8.62399">
        <ele>460</ele>
        <time>2021-08-07T13:36:20.291Z</time>
      </trkpt>
      <trkpt lat="46.91394" lon="8.62399">
        <ele>460</ele>
        <time>2021-08-07T13:36:21.292Z</time>
      </trkpt>
      <trkpt lat="46.91393" lon="8.624">
        <ele>460</ele>
        <time>2021-08-07T13:36:22.291Z</time>
      </trkpt>
      <trkpt lat="46.91393" lon="8.62401">
        <ele>460</ele>
        <time>2021-08-07T13:36:23.292Z</time>
      </trkpt>
      <trkpt lat="46.91392" lon="8.62401">
        <ele>460</ele>
        <time>2021-08-07T13:36:24.292Z</time>
      </trkpt>
      <trkpt lat="46.91392" lon="8.62401">
        <ele>460</ele>
        <time>2021-08-07T13:36:25.291Z</time>
      </trkpt>
      <trkpt lat="46.91391" lon="8.62401">
        <ele>460</ele>
        <time>2021-08-07T13:36:26.292Z</time>
      </trkpt>
      <trkpt lat="46.91391" lon="8.624">
        <ele>460</ele>
        <time>2021-08-07T13:36:27.292Z</time>
      </trkpt>
      <trkpt lat="46.91391" lon="8.624">
        <ele>460</ele>
        <time>2021-08-07T13:36:28.291Z</time>
      </trkpt>
      <trkpt lat="46.91392" lon="8.624">
        <ele>460</ele>
        <time>2021-08-07T13:36:29.291Z</time>
      </trkpt>
      <trkpt lat="46.91392" lon="8.62402">
        <ele>460</ele>
        <time>2021-08-07T13:36:30.291Z</time>
      </trkpt>
      <trkpt lat="46.91392" lon="8.62404">
        <ele>460</ele>
        <time>2021-08-07T13:36:31.291Z</time>
      </trkpt>
      <trkpt lat="46.91391" lon="8.62405">
        <ele>460</ele>
        <time>2021-08-07T13:36:32.292Z</time>
      </trkpt>
      <trkpt lat="46.91391" lon="8.62404">
        <ele>460</ele>
        <time>2021-08-07T13:36:33.292Z</time>
      </trkpt>
      <trkpt lat="46.9139" lon="8.62405">
        <ele>460</ele>
        <time>2021-08-07T13:36:34.291Z</time>
      </trkpt>
      <trkpt lat="46.9139" lon="8.62406">
        <ele>460</ele>
        <time>2021-08-07T13:36:35.291Z</time>
      </trkpt>
      <trkpt lat="46.9139" lon="8.62404">
        <ele>460</ele>
        <time>2021-08-07T13:36:36.291Z</time>
      </trkpt>
      <trkpt lat="46.9139" lon="8.62402">
        <ele>460</ele>
        <time>2021-08-07T13:36:37.291Z</time>
      </trkpt>
      <trkpt lat="46.9139" lon="8.62401">
        <ele>460</ele>
        <time>2021-08-07T13:36:38.292Z</time>
      </trkpt>
      <trkpt lat="46.9139" lon="8.624">
        <ele>460</ele>
        <time>2021-08-07T13:36:39.292Z</time>
      </trkpt>
      <trkpt lat="46.9139" lon="8.62397">
        <ele>460</ele>
        <time>2021-08-07T13:36:40.292Z</time>
      </trkpt>
      <trkpt lat="46.9139" lon="8.62397">
        <ele>460</ele>
        <time>2021-08-07T13:36:41.291Z</time>
      </trkpt>
      <trkpt lat="46.9139" lon="8.62398">
        <ele>460</ele>
        <time>2021-08-07T13:36:42.292Z</time>
      </trkpt>
      <trkpt lat="46.9139" lon="8.62399">
        <ele>460</ele>
        <time>2021-08-07T13:36:55.369Z</time>
      </trkpt>
      <trkpt lat="46.91391" lon="8.62402">
        <ele>460</ele>
        <time>2021-08-07T13:36:56.369Z</time>
      </trkpt>
      <trkpt lat="46.91391" lon="8.62403">
        <ele>460</ele>
        <time>2021-08-07T13:36:57.369Z</time>
      </trkpt>
      <trkpt lat="46.91391" lon="8.62404">
        <ele>460</ele>
        <time>2021-08-07T13:36:58.370Z</time>
      </trkpt>
      <trkpt lat="46.9139" lon="8.62404">
        <ele>460</ele>
        <time>2021-08-07T13:36:59.369Z</time>
      </trkpt>
      <trkpt lat="46.91389" lon="8.62403">
        <ele>460</ele>
        <time>2021-08-07T13:37:04.481Z</time>
      </trkpt>
      <trkpt lat="46.91389" lon="8.62401">
        <ele>460</ele>
        <time>2021-08-07T13:37:05.480Z</time>
      </trkpt>
      <trkpt lat="46.91388" lon="8.62402">
        <ele>460</ele>
        <time>2021-08-07T13:37:06.481Z</time>
      </trkpt>
      <trkpt lat="46.91387" lon="8.62404">
        <ele>460</ele>
        <time>2021-08-07T13:37:07.481Z</time>
      </trkpt>
      <trkpt lat="46.91387" lon="8.62404">
        <ele>460</ele>
        <time>2021-08-07T13:37:15.632Z</time>
      </trkpt>
      <trkpt lat="46.91388" lon="8.62405">
        <ele>460</ele>
        <time>2021-08-07T13:37:16.631Z</time>
      </trkpt>
      <trkpt lat="46.91389" lon="8.62405">
        <ele>460</ele>
        <time>2021-08-07T13:37:25.495Z</time>
      </trkpt>
      <trkpt lat="46.91388" lon="8.62405">
        <ele>460</ele>
        <time>2021-08-07T13:37:26.495Z</time>
      </trkpt>
      <trkpt lat="46.91388" lon="8.62402">
        <ele>460</ele>
        <time>2021-08-07T13:37:27.494Z</time>
      </trkpt>
      <trkpt lat="46.91388" lon="8.62401">
        <ele>460</ele>
        <time>2021-08-07T13:37:35.514Z</time>
      </trkpt>
      <trkpt lat="46.91388" lon="8.624">
        <ele>460</ele>
        <time>2021-08-07T13:37:36.514Z</time>
      </trkpt>
      <trkpt lat="46.91388" lon="8.62397">
        <ele>460</ele>
        <time>2021-08-07T13:37:37.514Z</time>
      </trkpt>
      <trkpt lat="46.91389" lon="8.62395">
        <ele>460</ele>
        <time>2021-08-07T13:37:38.514Z</time>
      </trkpt>
      <trkpt lat="46.91389" lon="8.62394">
        <ele>460</ele>
        <time>2021-08-07T13:37:39.514Z</time>
      </trkpt>
      <trkpt lat="46.914" lon="8.62413">
        <ele>460</ele>
        <time>2021-08-07T13:38:30.515Z</time>
      </trkpt>
      <trkpt lat="46.91391" lon="8.62374">
        <ele>460</ele>
        <time>2021-08-07T13:38:35.514Z</time>
      </trkpt>
      <trkpt lat="46.91384" lon="8.6235">
        <ele>460</ele>
        <time>2021-08-07T13:38:36.515Z</time>
      </trkpt>
      <trkpt lat="46.91379" lon="8.62342">
        <ele>460</ele>
        <time>2021-08-07T13:38:37.514Z</time>
      </trkpt>
      <trkpt lat="46.91375" lon="8.62312">
        <ele>460</ele>
        <time>2021-08-07T13:39:06.356Z</time>
      </trkpt>
      <trkpt lat="46.91374" lon="8.62308">
        <ele>460</ele>
        <time>2021-08-07T13:39:07.357Z</time>
      </trkpt>
      <trkpt lat="46.91375" lon="8.62325">
        <ele>460</ele>
        <time>2021-08-07T13:39:08.357Z</time>
      </trkpt>
      <trkpt lat="46.91374" lon="8.62318">
        <ele>460</ele>
        <time>2021-08-07T13:39:09.357Z</time>
      </trkpt>
      <trkpt lat="46.91374" lon="8.62313">
        <ele>460</ele>
        <time>2021-08-07T13:39:11.357Z</time>
      </trkpt>
      <trkpt lat="46.91379" lon="8.62323">
        <ele>459</ele>
        <time>2021-08-07T13:39:12.356Z</time>
      </trkpt>
      <trkpt lat="46.91379" lon="8.62324">
        <ele>459</ele>
        <time>2021-08-07T13:39:13.357Z</time>
      </trkpt>
      <trkpt lat="46.91379" lon="8.62325">
        <ele>459</ele>
        <time>2021-08-07T13:39:14.356Z</time>
      </trkpt>
      <trkpt lat="46.91378" lon="8.62325">
        <ele>459</ele>
        <time>2021-08-07T13:39:15.357Z</time>
      </trkpt>
      <trkpt lat="46.91378" lon="8.62324">
        <ele>459</ele>
        <time>2021-08-07T13:39:16.357Z</time>
      </trkpt>
      <trkpt lat="46.91378" lon="8.62326">
        <ele>459</ele>
        <time>2021-08-07T13:39:17.357Z</time>
      </trkpt>
      <trkpt lat="46.91378" lon="8.62327">
        <ele>459</ele>
        <time>2021-08-07T13:39:18.356Z</time>
      </trkpt>
      <trkpt lat="46.91378" lon="8.62328">
        <ele>460</ele>
        <time>2021-08-07T13:39:19.357Z</time>
      </trkpt>
      <trkpt lat="46.91378" lon="8.62328">
        <ele>460</ele>
        <time>2021-08-07T13:39:20.357Z</time>
      </trkpt>
      <trkpt lat="46.91378" lon="8.62329">
        <ele>461</ele>
        <time>2021-08-07T13:39:21.356Z</time>
      </trkpt>
      <trkpt lat="46.91379" lon="8.6233">
        <ele>461</ele>
        <time>2021-08-07T13:39:22.357Z</time>
      </trkpt>
      <trkpt lat="46.9138" lon="8.62331">
        <ele>462</ele>
        <time>2021-08-07T13:39:23.356Z</time>
      </trkpt>
      <trkpt lat="46.91379" lon="8.62331">
        <ele>462</ele>
        <time>2021-08-07T13:39:25.470Z</time>
      </trkpt>
      <trkpt lat="46.91378" lon="8.62332">
        <ele>462</ele>
        <time>2021-08-07T13:39:26.471Z</time>
      </trkpt>
      <trkpt lat="46.91376" lon="8.6233">
        <ele>462</ele>
        <time>2021-08-07T13:39:29.224Z</time>
      </trkpt>
      <trkpt lat="46.91375" lon="8.6233">
        <ele>462</ele>
        <time>2021-08-07T13:39:30.224Z</time>
      </trkpt>
      <trkpt lat="46.91374" lon="8.62334">
        <ele>462</ele>
        <time>2021-08-07T13:39:31.224Z</time>
      </trkpt>
      <trkpt lat="46.91374" lon="8.62337">
        <ele>462</ele>
        <time>2021-08-07T13:39:35.266Z</time>
      </trkpt>
      <trkpt lat="46.91375" lon="8.62341">
        <ele>462</ele>
        <time>2021-08-07T13:39:36.266Z</time>
      </trkpt>
      <trkpt lat="46.91375" lon="8.62344">
        <ele>462</ele>
        <time>2021-08-07T13:39:37.266Z</time>
      </trkpt>
      <trkpt lat="46.91377" lon="8.62347">
        <ele>462</ele>
        <time>2021-08-07T13:39:38.267Z</time>
      </trkpt>
      <trkpt lat="46.91378" lon="8.62349">
        <ele>462</ele>
        <time>2021-08-07T13:39:40.376Z</time>
      </trkpt>
      <trkpt lat="46.91379" lon="8.62349">
        <ele>462</ele>
        <time>2021-08-07T13:39:41.376Z</time>
      </trkpt>
      <trkpt lat="46.9138" lon="8.62348">
        <ele>462</ele>
        <time>2021-08-07T13:39:42.376Z</time>
      </trkpt>
      <trkpt lat="46.91381" lon="8.62349">
        <ele>462</ele>
        <time>2021-08-07T13:39:43.376Z</time>
      </trkpt>
      <trkpt lat="46.91381" lon="8.62349">
        <ele>462</ele>
        <time>2021-08-07T13:39:44.376Z</time>
      </trkpt>
      <trkpt lat="46.91381" lon="8.62346">
        <ele>463</ele>
        <time>2021-08-07T13:39:45.376Z</time>
      </trkpt>
      <trkpt lat="46.91381" lon="8.6234">
        <ele>463</ele>
        <time>2021-08-07T13:39:46.377Z</time>
      </trkpt>
      <trkpt lat="46.91381" lon="8.62338">
        <ele>463</ele>
        <time>2021-08-07T13:39:47.377Z</time>
      </trkpt>
      <trkpt lat="46.91382" lon="8.62336">
        <ele>463</ele>
        <time>2021-08-07T13:39:48.376Z</time>
      </trkpt>
      <trkpt lat="46.91382" lon="8.62333">
        <ele>463</ele>
        <time>2021-08-07T13:39:49.377Z</time>
      </trkpt>
      <trkpt lat="46.91383" lon="8.62335">
        <ele>464</ele>
        <time>2021-08-07T13:39:50.376Z</time>
      </trkpt>
      <trkpt lat="46.91383" lon="8.62338">
        <ele>464</ele>
        <time>2021-08-07T13:39:51.377Z</time>
      </trkpt>
      <trkpt lat="46.91383" lon="8.62339">
        <ele>464</ele>
        <time>2021-08-07T13:39:59.539Z</time>
      </trkpt>
      <trkpt lat="46.91382" lon="8.62338">
        <ele>464</ele>
        <time>2021-08-07T13:40:00.540Z</time>
      </trkpt>
      <trkpt lat="46.91382" lon="8.62337">
        <ele>464</ele>
        <time>2021-08-07T13:40:08.387Z</time>
      </trkpt>
      <trkpt lat="46.91382" lon="8.62336">
        <ele>464</ele>
        <time>2021-08-07T13:40:09.386Z</time>
      </trkpt>
      <trkpt lat="46.91383" lon="8.62336">
        <ele>464</ele>
        <time>2021-08-07T13:40:10.387Z</time>
      </trkpt>
      <trkpt lat="46.91383" lon="8.62336">
        <ele>465</ele>
        <time>2021-08-07T13:40:11.387Z</time>
      </trkpt>
      <trkpt lat="46.91383" lon="8.62337">
        <ele>465</ele>
        <time>2021-08-07T13:40:12.387Z</time>
      </trkpt>
      <trkpt lat="46.91382" lon="8.6234">
        <ele>465</ele>
        <time>2021-08-07T13:40:13.387Z</time>
      </trkpt>
      <trkpt lat="46.91382" lon="8.62342">
        <ele>465</ele>
        <time>2021-08-07T13:40:27.511Z</time>
      </trkpt>
      <trkpt lat="46.91382" lon="8.62345">
        <ele>464</ele>
        <time>2021-08-07T13:40:28.511Z</time>
      </trkpt>
      <trkpt lat="46.91382" lon="8.62346">
        <ele>464</ele>
        <time>2021-08-07T13:40:29.511Z</time>
      </trkpt>
      <trkpt lat="46.91381" lon="8.62348">
        <ele>464</ele>
        <time>2021-08-07T13:40:30.511Z</time>
      </trkpt>
      <trkpt lat="46.91381" lon="8.62348">
        <ele>463</ele>
        <time>2021-08-07T13:40:57.633Z</time>
      </trkpt>
      <trkpt lat="46.91381" lon="8.62349">
        <ele>463</ele>
        <time>2021-08-07T13:40:58.633Z</time>
      </trkpt>
      <trkpt lat="46.91382" lon="8.62353">
        <ele>463</ele>
        <time>2021-08-07T13:40:59.633Z</time>
      </trkpt>
      <trkpt lat="46.91382" lon="8.62355">
        <ele>463</ele>
        <time>2021-08-07T13:41:06.738Z</time>
      </trkpt>
      <trkpt lat="46.91382" lon="8.62356">
        <ele>463</ele>
        <time>2021-08-07T13:41:07.737Z</time>
      </trkpt>
      <trkpt lat="46.91381" lon="8.62353">
        <ele>462</ele>
        <time>2021-08-07T13:41:23.850Z</time>
      </trkpt>
      <trkpt lat="46.9138" lon="8.62349">
        <ele>462</ele>
        <time>2021-08-07T13:41:24.849Z</time>
      </trkpt>
      <trkpt lat="46.9138" lon="8.6235">
        <ele>462</ele>
        <time>2021-08-07T13:41:25.849Z</time>
      </trkpt>
      <trkpt lat="46.91381" lon="8.62352">
        <ele>462</ele>
        <time>2021-08-07T13:41:31.725Z</time>
      </trkpt>
      <trkpt lat="46.91382" lon="8.62354">
        <ele>462</ele>
        <time>2021-08-07T13:41:32.725Z</time>
      </trkpt>
      <trkpt lat="46.91383" lon="8.62356">
        <ele>462</ele>
        <time>2021-08-07T13:41:33.725Z</time>
      </trkpt>
      <trkpt lat="46.91383" lon="8.62356">
        <ele>462</ele>
        <time>2021-08-07T13:41:34.725Z</time>
      </trkpt>
      <trkpt lat="46.91384" lon="8.62356">
        <ele>461</ele>
        <time>2021-08-07T13:41:35.725Z</time>
      </trkpt>
      <trkpt lat="46.91385" lon="8.62357">
        <ele>461</ele>
        <time>2021-08-07T13:41:47.897Z</time>
      </trkpt>
      <trkpt lat="46.91385" lon="8.62358">
        <ele>461</ele>
        <time>2021-08-07T13:41:48.898Z</time>
      </trkpt>
      <trkpt lat="46.91385" lon="8.62358">
        <ele>460</ele>
        <time>2021-08-07T13:41:49.897Z</time>
      </trkpt>
      <trkpt lat="46.91385" lon="8.62358">
        <ele>460</ele>
        <time>2021-08-07T13:41:50.898Z</time>
      </trkpt>
      <trkpt lat="46.91384" lon="8.62358">
        <ele>460</ele>
        <time>2021-08-07T13:41:52.989Z</time>
      </trkpt>
      <trkpt lat="46.91384" lon="8.62358">
        <ele>460</ele>
        <time>2021-08-07T13:41:53.989Z</time>
      </trkpt>
      <trkpt lat="46.91384" lon="8.62359">
        <ele>460</ele>
        <time>2021-08-07T13:42:01.739Z</time>
      </trkpt>
      <trkpt lat="46.91384" lon="8.62359">
        <ele>461</ele>
        <time>2021-08-07T13:42:02.739Z</time>
      </trkpt>
      <trkpt lat="46.91384" lon="8.6236">
        <ele>461</ele>
        <time>2021-08-07T13:42:14.508Z</time>
      </trkpt>
      <trkpt lat="46.91384" lon="8.62361">
        <ele>461</ele>
        <time>2021-08-07T13:42:15.508Z</time>
      </trkpt>
      <trkpt lat="46.91384" lon="8.6236">
        <ele>461</ele>
        <time>2021-08-07T13:42:45.389Z</time>
      </trkpt>
      <trkpt lat="46.91383" lon="8.62362">
        <ele>461</ele>
        <time>2021-08-07T13:43:03.365Z</time>
      </trkpt>
      <trkpt lat="46.91382" lon="8.62361">
        <ele>461</ele>
        <time>2021-08-07T13:43:08.109Z</time>
      </trkpt>
      <trkpt lat="46.9138" lon="8.62361">
        <ele>461</ele>
        <time>2021-08-07T13:43:09.108Z</time>
      </trkpt>
      <trkpt lat="46.91379" lon="8.62361">
        <ele>461</ele>
        <time>2021-08-07T13:43:10.109Z</time>
      </trkpt>
      <trkpt lat="46.91379" lon="8.62361">
        <ele>461</ele>
        <time>2021-08-07T13:43:11.108Z</time>
      </trkpt>
      <trkpt lat="46.91378" lon="8.62436">
        <ele>461</ele>
        <time>2021-08-07T13:45:08.511Z</time>
      </trkpt>
      <trkpt lat="46.9138" lon="8.62441">
        <ele>461</ele>
        <time>2021-08-07T13:45:09.510Z</time>
      </trkpt>
      <trkpt lat="46.9138" lon="8.6246">
        <ele>461</ele>
        <time>2021-08-07T13:45:10.511Z</time>
      </trkpt>
      <trkpt lat="46.91388" lon="8.62455">
        <ele>462</ele>
        <time>2021-08-07T13:45:11.511Z</time>
      </trkpt>
      <trkpt lat="46.91392" lon="8.62438">
        <ele>462</ele>
        <time>2021-08-07T13:45:13.511Z</time>
      </trkpt>
      <trkpt lat="46.91397" lon="8.6242">
        <ele>463</ele>
        <time>2021-08-07T13:45:14.510Z</time>
      </trkpt>
      <trkpt lat="46.91399" lon="8.62409">
        <ele>463</ele>
        <time>2021-08-07T13:45:15.511Z</time>
      </trkpt>
      <trkpt lat="46.91411" lon="8.62392">
        <ele>464</ele>
        <time>2021-08-07T13:45:20.511Z</time>
      </trkpt>
      <trkpt lat="46.91402" lon="8.62408">
        <ele>464</ele>
        <time>2021-08-07T13:45:36.609Z</time>
      </trkpt>
      <trkpt lat="46.91401" lon="8.62414">
        <ele>464</ele>
        <time>2021-08-07T13:45:37.608Z</time>
      </trkpt>
      <trkpt lat="46.91401" lon="8.62411">
        <ele>465</ele>
        <time>2021-08-07T13:45:38.609Z</time>
      </trkpt>
    </trkseg>
  </trk>
  <trk>
    <name><![CDATA[glaris-engelberg(f)_3]]></name>
    <extensions>
      <line xmlns="http://www.topografix.com/GPX/gpx_style/0/2">
        <color>008800</color>
        <width>4</width>
      </line>
    </extensions>
    <trkseg>
      <trkpt lat="46.96679" lon="8.58465">
        <ele>849</ele>
        <time>2021-08-10T09:24:31.736Z</time>
      </trkpt>
      <trkpt lat="46.96679" lon="8.58465">
        <ele>849</ele>
        <time>2021-08-10T09:24:31.736Z</time>
      </trkpt>
      <trkpt lat="46.96679" lon="8.58465">
        <ele>849</ele>
        <time>2021-08-10T09:24:31.736Z</time>
      </trkpt>
      <trkpt lat="46.96679" lon="8.58465">
        <ele>849</ele>
        <time>2021-08-10T09:24:32.736Z</time>
      </trkpt>
      <trkpt lat="46.96679" lon="8.58465">
        <ele>848</ele>
        <time>2021-08-10T09:24:33.735Z</time>
      </trkpt>
      <trkpt lat="46.96679" lon="8.58465">
        <ele>848</ele>
        <time>2021-08-10T09:24:34.736Z</time>
      </trkpt>
      <trkpt lat="46.96679" lon="8.58465">
        <ele>847</ele>
        <time>2021-08-10T09:24:35.735Z</time>
      </trkpt>
      <trkpt lat="46.96679" lon="8.58465">
        <ele>847</ele>
        <time>2021-08-10T09:24:36.735Z</time>
      </trkpt>
      <trkpt lat="46.96678" lon="8.58466">
        <ele>846</ele>
        <time>2021-08-10T09:24:37.735Z</time>
      </trkpt>
      <trkpt lat="46.96677" lon="8.58466">
        <ele>846</ele>
        <time>2021-08-10T09:24:38.736Z</time>
      </trkpt>
      <trkpt lat="46.96677" lon="8.58466">
        <ele>845</ele>
        <time>2021-08-10T09:24:39.735Z</time>
      </trkpt>
      <trkpt lat="46.96676" lon="8.58467">
        <ele>845</ele>
        <time>2021-08-10T09:24:40.736Z</time>
      </trkpt>
      <trkpt lat="46.96674" lon="8.58468">
        <ele>844</ele>
        <time>2021-08-10T09:24:41.735Z</time>
      </trkpt>
      <trkpt lat="46.96673" lon="8.58468">
        <ele>844</ele>
        <time>2021-08-10T09:24:42.735Z</time>
      </trkpt>
      <trkpt lat="46.96672" lon="8.58468">
        <ele>844</ele>
        <time>2021-08-10T09:24:43.736Z</time>
      </trkpt>
      <trkpt lat="46.96671" lon="8.58468">
        <ele>844</ele>
        <time>2021-08-10T09:24:44.735Z</time>
      </trkpt>
      <trkpt lat="46.96669" lon="8.58467">
        <ele>844</ele>
        <time>2021-08-10T09:24:45.735Z</time>
      </trkpt>
      <trkpt lat="46.96668" lon="8.58467">
        <ele>844</ele>
        <time>2021-08-10T09:24:46.735Z</time>
      </trkpt>
      <trkpt lat="46.96666" lon="8.58467">
        <ele>844</ele>
        <time>2021-08-10T09:24:47.735Z</time>
      </trkpt>
      <trkpt lat="46.96665" lon="8.58468">
        <ele>844</ele>
        <time>2021-08-10T09:24:48.736Z</time>
      </trkpt>
      <trkpt lat="46.96663" lon="8.58468">
        <ele>844</ele>
        <time>2021-08-10T09:24:49.735Z</time>
      </trkpt>
      <trkpt lat="46.96662" lon="8.58468">
        <ele>845</ele>
        <time>2021-08-10T09:24:50.735Z</time>
      </trkpt>
      <trkpt lat="46.96661" lon="8.58469">
        <ele>845</ele>
        <time>2021-08-10T09:24:51.735Z</time>
      </trkpt>
      <trkpt lat="46.9666" lon="8.5847">
        <ele>845</ele>
        <time>2021-08-10T09:24:52.735Z</time>
      </trkpt>
      <trkpt lat="46.96659" lon="8.58472">
        <ele>845</ele>
        <time>2021-08-10T09:24:53.735Z</time>
      </trkpt>
      <trkpt lat="46.96658" lon="8.58475">
        <ele>845</ele>
        <time>2021-08-10T09:24:54.735Z</time>
      </trkpt>
      <trkpt lat="46.96657" lon="8.58477">
        <ele>845</ele>
        <time>2021-08-10T09:24:55.736Z</time>
      </trkpt>
      <trkpt lat="46.96657" lon="8.58479">
        <ele>845</ele>
        <time>2021-08-10T09:24:56.735Z</time>
      </trkpt>
      <trkpt lat="46.96656" lon="8.58481">
        <ele>845</ele>
        <time>2021-08-10T09:24:57.735Z</time>
      </trkpt>
      <trkpt lat="46.96656" lon="8.58483">
        <ele>845</ele>
        <time>2021-08-10T09:24:58.735Z</time>
      </trkpt>
      <trkpt lat="46.96655" lon="8.58485">
        <ele>845</ele>
        <time>2021-08-10T09:24:59.735Z</time>
      </trkpt>
      <trkpt lat="46.96654" lon="8.58487">
        <ele>845</ele>
        <time>2021-08-10T09:25:00.735Z</time>
      </trkpt>
      <trkpt lat="46.96654" lon="8.58488">
        <ele>845</ele>
        <time>2021-08-10T09:25:01.735Z</time>
      </trkpt>
      <trkpt lat="46.96653" lon="8.5849">
        <ele>845</ele>
        <time>2021-08-10T09:25:02.736Z</time>
      </trkpt>
      <trkpt lat="46.96652" lon="8.58491">
        <ele>845</ele>
        <time>2021-08-10T09:25:03.735Z</time>
      </trkpt>
      <trkpt lat="46.96652" lon="8.58493">
        <ele>845</ele>
        <time>2021-08-10T09:25:04.735Z</time>
      </trkpt>
      <trkpt lat="46.96651" lon="8.58494">
        <ele>844</ele>
        <time>2021-08-10T09:25:05.735Z</time>
      </trkpt>
      <trkpt lat="46.96651" lon="8.58495">
        <ele>844</ele>
        <time>2021-08-10T09:25:06.735Z</time>
      </trkpt>
      <trkpt lat="46.96651" lon="8.58496">
        <ele>844</ele>
        <time>2021-08-10T09:25:07.735Z</time>
      </trkpt>
      <trkpt lat="46.96651" lon="8.58496">
        <ele>844</ele>
        <time>2021-08-10T09:25:08.735Z</time>
      </trkpt>
      <trkpt lat="46.9665" lon="8.58497">
        <ele>844</ele>
        <time>2021-08-10T09:25:09.735Z</time>
      </trkpt>
      <trkpt lat="46.9665" lon="8.58498">
        <ele>844</ele>
        <time>2021-08-10T09:25:10.735Z</time>
      </trkpt>
      <trkpt lat="46.96649" lon="8.58499">
        <ele>845</ele>
        <time>2021-08-10T09:25:11.735Z</time>
      </trkpt>
      <trkpt lat="46.96649" lon="8.58501">
        <ele>845</ele>
        <time>2021-08-10T09:25:12.735Z</time>
      </trkpt>
      <trkpt lat="46.96649" lon="8.58501">
        <ele>845</ele>
        <time>2021-08-10T09:25:13.735Z</time>
      </trkpt>
      <trkpt lat="46.96649" lon="8.58502">
        <ele>845</ele>
        <time>2021-08-10T09:25:14.736Z</time>
      </trkpt>
      <trkpt lat="46.96648" lon="8.58502">
        <ele>846</ele>
        <time>2021-08-10T09:25:15.735Z</time>
      </trkpt>
      <trkpt lat="46.96648" lon="8.58503">
        <ele>846</ele>
        <time>2021-08-10T09:25:16.735Z</time>
      </trkpt>
      <trkpt lat="46.96647" lon="8.58504">
        <ele>847</ele>
        <time>2021-08-10T09:25:17.735Z</time>
      </trkpt>
      <trkpt lat="46.96647" lon="8.58505">
        <ele>847</ele>
        <time>2021-08-10T09:25:18.735Z</time>
      </trkpt>
      <trkpt lat="46.96646" lon="8.58506">
        <ele>847</ele>
        <time>2021-08-10T09:25:19.736Z</time>
      </trkpt>
      <trkpt lat="46.96646" lon="8.58508">
        <ele>848</ele>
        <time>2021-08-10T09:25:20.736Z</time>
      </trkpt>
      <trkpt lat="46.96645" lon="8.58509">
        <ele>848</ele>
        <time>2021-08-10T09:25:21.735Z</time>
      </trkpt>
      <trkpt lat="46.96645" lon="8.58511">
        <ele>848</ele>
        <time>2021-08-10T09:25:22.735Z</time>
      </trkpt>
      <trkpt lat="46.96645" lon="8.58512">
        <ele>848</ele>
        <time>2021-08-10T09:25:23.735Z</time>
      </trkpt>
      <trkpt lat="46.96644" lon="8.58513">
        <ele>848</ele>
        <time>2021-08-10T09:25:24.735Z</time>
      </trkpt>
      <trkpt lat="46.96643" lon="8.58515">
        <ele>848</ele>
        <time>2021-08-10T09:25:25.735Z</time>
      </trkpt>
      <trkpt lat="46.96643" lon="8.58516">
        <ele>848</ele>
        <time>2021-08-10T09:25:26.735Z</time>
      </trkpt>
      <trkpt lat="46.96642" lon="8.58518">
        <ele>848</ele>
        <time>2021-08-10T09:25:27.736Z</time>
      </trkpt>
      <trkpt lat="46.96641" lon="8.5852">
        <ele>848</ele>
        <time>2021-08-10T09:25:28.735Z</time>
      </trkpt>
      <trkpt lat="46.96641" lon="8.58522">
        <ele>847</ele>
        <time>2021-08-10T09:25:29.735Z</time>
      </trkpt>
      <trkpt lat="46.96639" lon="8.58524">
        <ele>847</ele>
        <time>2021-08-10T09:25:30.735Z</time>
      </trkpt>
      <trkpt lat="46.96639" lon="8.58525">
        <ele>847</ele>
        <time>2021-08-10T09:25:31.736Z</time>
      </trkpt>
      <trkpt lat="46.96638" lon="8.58527">
        <ele>847</ele>
        <time>2021-08-10T09:25:32.735Z</time>
      </trkpt>
      <trkpt lat="46.96638" lon="8.58527">
        <ele>846</ele>
        <time>2021-08-10T09:25:33.735Z</time>
      </trkpt>
      <trkpt lat="46.96638" lon="8.58528">
        <ele>846</ele>
        <time>2021-08-10T09:25:34.735Z</time>
      </trkpt>
      <trkpt lat="46.96637" lon="8.58529">
        <ele>846</ele>
        <time>2021-08-10T09:25:35.735Z</time>
      </trkpt>
      <trkpt lat="46.96636" lon="8.5853">
        <ele>845</ele>
        <time>2021-08-10T09:25:36.735Z</time>
      </trkpt>
      <trkpt lat="46.96635" lon="8.58531">
        <ele>845</ele>
        <time>2021-08-10T09:25:37.736Z</time>
      </trkpt>
      <trkpt lat="46.96634" lon="8.58532">
        <ele>845</ele>
        <time>2021-08-10T09:25:38.735Z</time>
      </trkpt>
      <trkpt lat="46.96633" lon="8.58533">
        <ele>844</ele>
        <time>2021-08-10T09:25:39.735Z</time>
      </trkpt>
      <trkpt lat="46.96632" lon="8.58535">
        <ele>844</ele>
        <time>2021-08-10T09:25:40.735Z</time>
      </trkpt>
      <trkpt lat="46.96631" lon="8.58537">
        <ele>844</ele>
        <time>2021-08-10T09:25:41.735Z</time>
      </trkpt>
      <trkpt lat="46.9663" lon="8.58539">
        <ele>844</ele>
        <time>2021-08-10T09:25:42.735Z</time>
      </trkpt>
      <trkpt lat="46.96628" lon="8.58541">
        <ele>844</ele>
        <time>2021-08-10T09:25:43.735Z</time>
      </trkpt>
      <trkpt lat="46.96627" lon="8.58543">
        <ele>844</ele>
        <time>2021-08-10T09:25:44.735Z</time>
      </trkpt>
      <trkpt lat="46.96626" lon="8.58545">
        <ele>844</ele>
        <time>2021-08-10T09:25:45.735Z</time>
      </trkpt>
      <trkpt lat="46.96625" lon="8.58545">
        <ele>844</ele>
        <time>2021-08-10T09:25:46.735Z</time>
      </trkpt>
      <trkpt lat="46.96624" lon="8.58546">
        <ele>844</ele>
        <time>2021-08-10T09:25:47.735Z</time>
      </trkpt>
      <trkpt lat="46.96624" lon="8.58546">
        <ele>844</ele>
        <time>2021-08-10T09:25:48.736Z</time>
      </trkpt>
      <trkpt lat="46.96623" lon="8.58548">
        <ele>844</ele>
        <time>2021-08-10T09:25:49.735Z</time>
      </trkpt>
      <trkpt lat="46.96623" lon="8.58547">
        <ele>844</ele>
        <time>2021-08-10T09:25:50.736Z</time>
      </trkpt>
      <trkpt lat="46.96622" lon="8.58548">
        <ele>844</ele>
        <time>2021-08-10T09:25:51.735Z</time>
      </trkpt>
      <trkpt lat="46.96622" lon="8.58549">
        <ele>844</ele>
        <time>2021-08-10T09:25:52.736Z</time>
      </trkpt>
      <trkpt lat="46.96622" lon="8.58549">
        <ele>845</ele>
        <time>2021-08-10T09:25:53.735Z</time>
      </trkpt>
      <trkpt lat="46.96621" lon="8.5855">
        <ele>845</ele>
        <time>2021-08-10T09:25:54.735Z</time>
      </trkpt>
      <trkpt lat="46.96621" lon="8.5855">
        <ele>845</ele>
        <time>2021-08-10T09:25:55.735Z</time>
      </trkpt>
      <trkpt lat="46.9662" lon="8.58551">
        <ele>845</ele>
        <time>2021-08-10T09:25:56.736Z</time>
      </trkpt>
      <trkpt lat="46.96619" lon="8.58552">
        <ele>846</ele>
        <time>2021-08-10T09:25:57.735Z</time>
      </trkpt>
      <trkpt lat="46.96619" lon="8.58553">
        <ele>846</ele>
        <time>2021-08-10T09:25:58.735Z</time>
      </trkpt>
      <trkpt lat="46.96618" lon="8.58555">
        <ele>846</ele>
        <time>2021-08-10T09:25:59.735Z</time>
      </trkpt>
      <trkpt lat="46.96617" lon="8.58556">
        <ele>846</ele>
        <time>2021-08-10T09:26:00.735Z</time>
      </trkpt>
      <trkpt lat="46.96616" lon="8.58557">
        <ele>847</ele>
        <time>2021-08-10T09:26:01.735Z</time>
      </trkpt>
      <trkpt lat="46.96614" lon="8.58557">
        <ele>847</ele>
        <time>2021-08-10T09:26:02.735Z</time>
      </trkpt>
      <trkpt lat="46.96613" lon="8.58557">
        <ele>847</ele>
        <time>2021-08-10T09:26:03.735Z</time>
      </trkpt>
      <trkpt lat="46.96612" lon="8.58557">
        <ele>847</ele>
        <time>2021-08-10T09:26:04.736Z</time>
      </trkpt>
      <trkpt lat="46.96611" lon="8.58557">
        <ele>847</ele>
        <time>2021-08-10T09:26:05.735Z</time>
      </trkpt>
      <trkpt lat="46.96611" lon="8.58558">
        <ele>847</ele>
        <time>2021-08-10T09:26:06.735Z</time>
      </trkpt>
      <trkpt lat="46.9661" lon="8.58558">
        <ele>847</ele>
        <time>2021-08-10T09:26:07.736Z</time>
      </trkpt>
      <trkpt lat="46.9661" lon="8.58559">
        <ele>847</ele>
        <time>2021-08-10T09:26:08.735Z</time>
      </trkpt>
      <trkpt lat="46.96609" lon="8.58559">
        <ele>847</ele>
        <time>2021-08-10T09:26:09.735Z</time>
      </trkpt>
      <trkpt lat="46.96609" lon="8.5856">
        <ele>847</ele>
        <time>2021-08-10T09:26:10.735Z</time>
      </trkpt>
      <trkpt lat="46.96609" lon="8.5856">
        <ele>847</ele>
        <time>2021-08-10T09:26:11.735Z</time>
      </trkpt>
      <trkpt lat="46.9661" lon="8.5856">
        <ele>847</ele>
        <time>2021-08-10T09:26:12.735Z</time>
      </trkpt>
      <trkpt lat="46.96611" lon="8.5856">
        <ele>848</ele>
        <time>2021-08-10T09:26:13.735Z</time>
      </trkpt>
      <trkpt lat="46.96611" lon="8.5856">
        <ele>848</ele>
        <time>2021-08-10T09:26:14.735Z</time>
      </trkpt>
      <trkpt lat="46.96611" lon="8.5856">
        <ele>848</ele>
        <time>2021-08-10T09:26:15.735Z</time>
      </trkpt>
      <trkpt lat="46.96611" lon="8.5856">
        <ele>849</ele>
        <time>2021-08-10T09:26:16.735Z</time>
      </trkpt>
      <trkpt lat="46.9661" lon="8.58561">
        <ele>849</ele>
        <time>2021-08-10T09:26:17.735Z</time>
      </trkpt>
      <trkpt lat="46.96608" lon="8.58562">
        <ele>849</ele>
        <time>2021-08-10T09:26:18.735Z</time>
      </trkpt>
      <trkpt lat="46.96608" lon="8.58563">
        <ele>849</ele>
        <time>2021-08-10T09:26:19.735Z</time>
      </trkpt>
      <trkpt lat="46.96607" lon="8.58564">
        <ele>849</ele>
        <time>2021-08-10T09:26:20.735Z</time>
      </trkpt>
      <trkpt lat="46.96606" lon="8.58565">
        <ele>849</ele>
        <time>2021-08-10T09:26:21.735Z</time>
      </trkpt>
      <trkpt lat="46.96606" lon="8.58566">
        <ele>849</ele>
        <time>2021-08-10T09:26:22.735Z</time>
      </trkpt>
      <trkpt lat="46.96605" lon="8.58567">
        <ele>849</ele>
        <time>2021-08-10T09:26:23.735Z</time>
      </trkpt>
      <trkpt lat="46.96604" lon="8.58567">
        <ele>849</ele>
        <time>2021-08-10T09:26:24.735Z</time>
      </trkpt>
      <trkpt lat="46.96603" lon="8.58569">
        <ele>849</ele>
        <time>2021-08-10T09:26:25.735Z</time>
      </trkpt>
      <trkpt lat="46.96602" lon="8.5857">
        <ele>849</ele>
        <time>2021-08-10T09:26:26.735Z</time>
      </trkpt>
      <trkpt lat="46.96602" lon="8.58571">
        <ele>849</ele>
        <time>2021-08-10T09:26:27.735Z</time>
      </trkpt>
      <trkpt lat="46.96601" lon="8.58572">
        <ele>849</ele>
        <time>2021-08-10T09:26:28.735Z</time>
      </trkpt>
      <trkpt lat="46.966" lon="8.58573">
        <ele>849</ele>
        <time>2021-08-10T09:26:29.736Z</time>
      </trkpt>
      <trkpt lat="46.96599" lon="8.58574">
        <ele>850</ele>
        <time>2021-08-10T09:26:30.735Z</time>
      </trkpt>
      <trkpt lat="46.96597" lon="8.58576">
        <ele>850</ele>
        <time>2021-08-10T09:26:31.735Z</time>
      </trkpt>
      <trkpt lat="46.96596" lon="8.58578">
        <ele>850</ele>
        <time>2021-08-10T09:26:32.736Z</time>
      </trkpt>
      <trkpt lat="46.96595" lon="8.5858">
        <ele>850</ele>
        <time>2021-08-10T09:26:33.735Z</time>
      </trkpt>
      <trkpt lat="46.96594" lon="8.58581">
        <ele>850</ele>
        <time>2021-08-10T09:26:34.735Z</time>
      </trkpt>
      <trkpt lat="46.96593" lon="8.58582">
        <ele>850</ele>
        <time>2021-08-10T09:26:35.735Z</time>
      </trkpt>
      <trkpt lat="46.96591" lon="8.58583">
        <ele>850</ele>
        <time>2021-08-10T09:26:36.735Z</time>
      </trkpt>
      <trkpt lat="46.9659" lon="8.58583">
        <ele>851</ele>
        <time>2021-08-10T09:26:37.736Z</time>
      </trkpt>
      <trkpt lat="46.96589" lon="8.58584">
        <ele>851</ele>
        <time>2021-08-10T09:26:38.735Z</time>
      </trkpt>
      <trkpt lat="46.96587" lon="8.58584">
        <ele>851</ele>
        <time>2021-08-10T09:26:39.736Z</time>
      </trkpt>
      <trkpt lat="46.96585" lon="8.58584">
        <ele>851</ele>
        <time>2021-08-10T09:26:40.735Z</time>
      </trkpt>
      <trkpt lat="46.96584" lon="8.58584">
        <ele>851</ele>
        <time>2021-08-10T09:26:41.735Z</time>
      </trkpt>
      <trkpt lat="46.96582" lon="8.58585">
        <ele>851</ele>
        <time>2021-08-10T09:26:42.735Z</time>
      </trkpt>
      <trkpt lat="46.96579" lon="8.58586">
        <ele>851</ele>
        <time>2021-08-10T09:26:43.735Z</time>
      </trkpt>
      <trkpt lat="46.96577" lon="8.58587">
        <ele>851</ele>
        <time>2021-08-10T09:26:44.735Z</time>
      </trkpt>
      <trkpt lat="46.96576" lon="8.58587">
        <ele>851</ele>
        <time>2021-08-10T09:26:45.735Z</time>
      </trkpt>
      <trkpt lat="46.96575" lon="8.58587">
        <ele>851</ele>
        <time>2021-08-10T09:26:46.735Z</time>
      </trkpt>
      <trkpt lat="46.96575" lon="8.58587">
        <ele>851</ele>
        <time>2021-08-10T09:26:47.735Z</time>
      </trkpt>
      <trkpt lat="46.96574" lon="8.58588">
        <ele>851</ele>
        <time>2021-08-10T09:26:48.735Z</time>
      </trkpt>
      <trkpt lat="46.96573" lon="8.58589">
        <ele>852</ele>
        <time>2021-08-10T09:26:49.735Z</time>
      </trkpt>
      <trkpt lat="46.96572" lon="8.5859">
        <ele>852</ele>
        <time>2021-08-10T09:26:50.736Z</time>
      </trkpt>
      <trkpt lat="46.96571" lon="8.58591">
        <ele>852</ele>
        <time>2021-08-10T09:26:51.735Z</time>
      </trkpt>
      <trkpt lat="46.9657" lon="8.58592">
        <ele>852</ele>
        <time>2021-08-10T09:26:52.735Z</time>
      </trkpt>
      <trkpt lat="46.9657" lon="8.58592">
        <ele>852</ele>
        <time>2021-08-10T09:26:53.735Z</time>
      </trkpt>
      <trkpt lat="46.96569" lon="8.58594">
        <ele>852</ele>
        <time>2021-08-10T09:26:54.735Z</time>
      </trkpt>
      <trkpt lat="46.96567" lon="8.58595">
        <ele>852</ele>
        <time>2021-08-10T09:26:55.735Z</time>
      </trkpt>
      <trkpt lat="46.96566" lon="8.58597">
        <ele>853</ele>
        <time>2021-08-10T09:26:56.736Z</time>
      </trkpt>
      <trkpt lat="46.96564" lon="8.58597">
        <ele>853</ele>
        <time>2021-08-10T09:26:57.735Z</time>
      </trkpt>
      <trkpt lat="46.96563" lon="8.58598">
        <ele>854</ele>
        <time>2021-08-10T09:26:58.735Z</time>
      </trkpt>
      <trkpt lat="46.96561" lon="8.58599">
        <ele>854</ele>
        <time>2021-08-10T09:26:59.735Z</time>
      </trkpt>
      <trkpt lat="46.96561" lon="8.586">
        <ele>855</ele>
        <time>2021-08-10T09:27:00.735Z</time>
      </trkpt>
      <trkpt lat="46.96561" lon="8.586">
        <ele>855</ele>
        <time>2021-08-10T09:27:01.736Z</time>
      </trkpt>
      <trkpt lat="46.9656" lon="8.586">
        <ele>856</ele>
        <time>2021-08-10T09:27:02.735Z</time>
      </trkpt>
      <trkpt lat="46.96558" lon="8.58601">
        <ele>856</ele>
        <time>2021-08-10T09:27:03.735Z</time>
      </trkpt>
      <trkpt lat="46.96557" lon="8.58601">
        <ele>857</ele>
        <time>2021-08-10T09:27:04.735Z</time>
      </trkpt>
      <trkpt lat="46.96557" lon="8.58602">
        <ele>857</ele>
        <time>2021-08-10T09:27:05.735Z</time>
      </trkpt>
      <trkpt lat="46.96556" lon="8.58602">
        <ele>858</ele>
        <time>2021-08-10T09:27:06.735Z</time>
      </trkpt>
      <trkpt lat="46.96555" lon="8.58603">
        <ele>858</ele>
        <time>2021-08-10T09:27:07.735Z</time>
      </trkpt>
      <trkpt lat="46.96554" lon="8.58603">
        <ele>858</ele>
        <time>2021-08-10T09:27:08.735Z</time>
      </trkpt>
      <trkpt lat="46.96553" lon="8.58604">
        <ele>859</ele>
        <time>2021-08-10T09:27:09.735Z</time>
      </trkpt>
      <trkpt lat="46.96551" lon="8.58604">
        <ele>859</ele>
        <time>2021-08-10T09:27:10.736Z</time>
      </trkpt>
      <trkpt lat="46.96549" lon="8.58605">
        <ele>859</ele>
        <time>2021-08-10T09:27:11.736Z</time>
      </trkpt>
      <trkpt lat="46.96548" lon="8.58606">
        <ele>860</ele>
        <time>2021-08-10T09:27:12.735Z</time>
      </trkpt>
      <trkpt lat="46.96547" lon="8.58607">
        <ele>860</ele>
        <time>2021-08-10T09:27:13.735Z</time>
      </trkpt>
      <trkpt lat="46.96546" lon="8.58609">
        <ele>860</ele>
        <time>2021-08-10T09:27:14.735Z</time>
      </trkpt>
      <trkpt lat="46.96545" lon="8.58609">
        <ele>860</ele>
        <time>2021-08-10T09:27:15.735Z</time>
      </trkpt>
      <trkpt lat="46.96545" lon="8.5861">
        <ele>861</ele>
        <time>2021-08-10T09:27:16.736Z</time>
      </trkpt>
      <trkpt lat="46.96545" lon="8.58611">
        <ele>861</ele>
        <time>2021-08-10T09:27:17.735Z</time>
      </trkpt>
      <trkpt lat="46.96545" lon="8.58612">
        <ele>860</ele>
        <time>2021-08-10T09:27:18.736Z</time>
      </trkpt>
      <trkpt lat="46.96546" lon="8.58613">
        <ele>860</ele>
        <time>2021-08-10T09:27:19.735Z</time>
      </trkpt>
      <trkpt lat="46.96545" lon="8.58614">
        <ele>860</ele>
        <time>2021-08-10T09:27:20.736Z</time>
      </trkpt>
      <trkpt lat="46.96545" lon="8.58614">
        <ele>860</ele>
        <time>2021-08-10T09:27:21.736Z</time>
      </trkpt>
      <trkpt lat="46.96544" lon="8.58615">
        <ele>859</ele>
        <time>2021-08-10T09:27:22.735Z</time>
      </trkpt>
      <trkpt lat="46.96542" lon="8.58616">
        <ele>859</ele>
        <time>2021-08-10T09:27:23.735Z</time>
      </trkpt>
      <trkpt lat="46.96541" lon="8.58617">
        <ele>859</ele>
        <time>2021-08-10T09:27:24.735Z</time>
      </trkpt>
      <trkpt lat="46.96541" lon="8.58618">
        <ele>858</ele>
        <time>2021-08-10T09:27:25.735Z</time>
      </trkpt>
      <trkpt lat="46.9654" lon="8.58618">
        <ele>858</ele>
        <time>2021-08-10T09:27:26.736Z</time>
      </trkpt>
      <trkpt lat="46.96539" lon="8.58619">
        <ele>858</ele>
        <time>2021-08-10T09:27:27.735Z</time>
      </trkpt>
      <trkpt lat="46.96538" lon="8.58619">
        <ele>858</ele>
        <time>2021-08-10T09:27:28.735Z</time>
      </trkpt>
      <trkpt lat="46.96537" lon="8.5862">
        <ele>859</ele>
        <time>2021-08-10T09:27:29.735Z</time>
      </trkpt>
      <trkpt lat="46.96536" lon="8.5862">
        <ele>859</ele>
        <time>2021-08-10T09:27:30.735Z</time>
      </trkpt>
      <trkpt lat="46.96535" lon="8.58621">
        <ele>860</ele>
        <time>2021-08-10T09:27:31.736Z</time>
      </trkpt>
      <trkpt lat="46.96534" lon="8.58621">
        <ele>860</ele>
        <time>2021-08-10T09:27:32.736Z</time>
      </trkpt>
      <trkpt lat="46.96534" lon="8.58622">
        <ele>860</ele>
        <time>2021-08-10T09:27:33.735Z</time>
      </trkpt>
      <trkpt lat="46.96533" lon="8.58623">
        <ele>861</ele>
        <time>2021-08-10T09:27:34.735Z</time>
      </trkpt>
      <trkpt lat="46.96532" lon="8.58624">
        <ele>861</ele>
        <time>2021-08-10T09:27:35.735Z</time>
      </trkpt>
      <trkpt lat="46.96531" lon="8.58625">
        <ele>861</ele>
        <time>2021-08-10T09:27:36.736Z</time>
      </trkpt>
      <trkpt lat="46.9653" lon="8.58625">
        <ele>861</ele>
        <time>2021-08-10T09:27:37.736Z</time>
      </trkpt>
      <trkpt lat="46.96529" lon="8.58625">
        <ele>860</ele>
        <time>2021-08-10T09:27:38.735Z</time>
      </trkpt>
      <trkpt lat="46.96528" lon="8.58626">
        <ele>861</ele>
        <time>2021-08-10T09:27:39.735Z</time>
      </trkpt>
      <trkpt lat="46.96528" lon="8.58627">
        <ele>861</ele>
        <time>2021-08-10T09:27:40.736Z</time>
      </trkpt>
      <trkpt lat="46.96527" lon="8.58627">
        <ele>861</ele>
        <time>2021-08-10T09:27:41.736Z</time>
      </trkpt>
      <trkpt lat="46.96526" lon="8.58628">
        <ele>861</ele>
        <time>2021-08-10T09:27:42.735Z</time>
      </trkpt>
      <trkpt lat="46.96525" lon="8.58629">
        <ele>861</ele>
        <time>2021-08-10T09:27:43.735Z</time>
      </trkpt>
      <trkpt lat="46.96524" lon="8.5863">
        <ele>861</ele>
        <time>2021-08-10T09:27:44.735Z</time>
      </trkpt>
      <trkpt lat="46.96522" lon="8.58631">
        <ele>860</ele>
        <time>2021-08-10T09:27:45.735Z</time>
      </trkpt>
      <trkpt lat="46.96521" lon="8.58633">
        <ele>860</ele>
        <time>2021-08-10T09:27:46.735Z</time>
      </trkpt>
      <trkpt lat="46.9652" lon="8.58634">
        <ele>860</ele>
        <time>2021-08-10T09:27:47.736Z</time>
      </trkpt>
      <trkpt lat="46.96519" lon="8.58635">
        <ele>860</ele>
        <time>2021-08-10T09:27:48.735Z</time>
      </trkpt>
      <trkpt lat="46.96518" lon="8.58636">
        <ele>860</ele>
        <time>2021-08-10T09:27:49.735Z</time>
      </trkpt>
      <trkpt lat="46.96517" lon="8.58636">
        <ele>860</ele>
        <time>2021-08-10T09:27:50.735Z</time>
      </trkpt>
      <trkpt lat="46.96516" lon="8.58636">
        <ele>860</ele>
        <time>2021-08-10T09:27:51.736Z</time>
      </trkpt>
      <trkpt lat="46.96515" lon="8.58636">
        <ele>860</ele>
        <time>2021-08-10T09:27:52.736Z</time>
      </trkpt>
      <trkpt lat="46.96514" lon="8.58637">
        <ele>860</ele>
        <time>2021-08-10T09:27:53.735Z</time>
      </trkpt>
      <trkpt lat="46.96513" lon="8.58637">
        <ele>860</ele>
        <time>2021-08-10T09:27:54.735Z</time>
      </trkpt>
      <trkpt lat="46.96512" lon="8.58637">
        <ele>860</ele>
        <time>2021-08-10T09:27:55.735Z</time>
      </trkpt>
      <trkpt lat="46.96511" lon="8.58637">
        <ele>860</ele>
        <time>2021-08-10T09:27:56.735Z</time>
      </trkpt>
      <trkpt lat="46.9651" lon="8.58637">
        <ele>860</ele>
        <time>2021-08-10T09:27:57.736Z</time>
      </trkpt>
      <trkpt lat="46.96509" lon="8.58637">
        <ele>860</ele>
        <time>2021-08-10T09:27:58.735Z</time>
      </trkpt>
      <trkpt lat="46.96508" lon="8.58637">
        <ele>860</ele>
        <time>2021-08-10T09:27:59.736Z</time>
      </trkpt>
      <trkpt lat="46.96507" lon="8.58636">
        <ele>860</ele>
        <time>2021-08-10T09:28:00.735Z</time>
      </trkpt>
      <trkpt lat="46.96506" lon="8.58635">
        <ele>860</ele>
        <time>2021-08-10T09:28:01.736Z</time>
      </trkpt>
      <trkpt lat="46.96505" lon="8.58635">
        <ele>860</ele>
        <time>2021-08-10T09:28:02.735Z</time>
      </trkpt>
      <trkpt lat="46.96504" lon="8.58635">
        <ele>860</ele>
        <time>2021-08-10T09:28:03.735Z</time>
      </trkpt>
      <trkpt lat="46.96503" lon="8.58634">
        <ele>859</ele>
        <time>2021-08-10T09:28:04.736Z</time>
      </trkpt>
      <trkpt lat="46.96502" lon="8.58633">
        <ele>859</ele>
        <time>2021-08-10T09:28:05.736Z</time>
      </trkpt>
      <trkpt lat="46.96499" lon="8.58632">
        <ele>859</ele>
        <time>2021-08-10T09:28:06.735Z</time>
      </trkpt>
      <trkpt lat="46.96497" lon="8.58631">
        <ele>858</ele>
        <time>2021-08-10T09:28:07.735Z</time>
      </trkpt>
      <trkpt lat="46.96496" lon="8.5863">
        <ele>858</ele>
        <time>2021-08-10T09:28:08.736Z</time>
      </trkpt>
      <trkpt lat="46.96495" lon="8.58629">
        <ele>858</ele>
        <time>2021-08-10T09:28:09.735Z</time>
      </trkpt>
      <trkpt lat="46.96494" lon="8.58629">
        <ele>858</ele>
        <time>2021-08-10T09:28:10.736Z</time>
      </trkpt>
      <trkpt lat="46.96492" lon="8.58627">
        <ele>858</ele>
        <time>2021-08-10T09:28:11.735Z</time>
      </trkpt>
      <trkpt lat="46.96491" lon="8.58627">
        <ele>858</ele>
        <time>2021-08-10T09:28:12.735Z</time>
      </trkpt>
      <trkpt lat="46.9649" lon="8.58627">
        <ele>858</ele>
        <time>2021-08-10T09:28:13.736Z</time>
      </trkpt>
      <trkpt lat="46.9649" lon="8.58627">
        <ele>858</ele>
        <time>2021-08-10T09:28:14.736Z</time>
      </trkpt>
      <trkpt lat="46.96489" lon="8.58627">
        <ele>858</ele>
        <time>2021-08-10T09:28:15.735Z</time>
      </trkpt>
      <trkpt lat="46.96488" lon="8.58628">
        <ele>858</ele>
        <time>2021-08-10T09:28:16.735Z</time>
      </trkpt>
      <trkpt lat="46.96488" lon="8.58628">
        <ele>858</ele>
        <time>2021-08-10T09:28:17.736Z</time>
      </trkpt>
      <trkpt lat="46.96487" lon="8.58627">
        <ele>858</ele>
        <time>2021-08-10T09:28:18.735Z</time>
      </trkpt>
      <trkpt lat="46.96487" lon="8.58627">
        <ele>858</ele>
        <time>2021-08-10T09:28:19.735Z</time>
      </trkpt>
      <trkpt lat="46.96487" lon="8.58626">
        <ele>858</ele>
        <time>2021-08-10T09:28:20.735Z</time>
      </trkpt>
      <trkpt lat="46.96483" lon="8.58622">
        <ele>858</ele>
        <time>2021-08-10T09:28:21.738Z</time>
      </trkpt>
      <trkpt lat="46.9648" lon="8.58621">
        <ele>858</ele>
        <time>2021-08-10T09:28:22.738Z</time>
      </trkpt>
      <trkpt lat="46.96478" lon="8.5862">
        <ele>858</ele>
        <time>2021-08-10T09:28:23.738Z</time>
      </trkpt>
      <trkpt lat="46.96476" lon="8.5862">
        <ele>858</ele>
        <time>2021-08-10T09:28:24.738Z</time>
      </trkpt>
      <trkpt lat="46.96475" lon="8.58619">
        <ele>858</ele>
        <time>2021-08-10T09:28:25.738Z</time>
      </trkpt>
      <trkpt lat="46.96474" lon="8.58619">
        <ele>858</ele>
        <time>2021-08-10T09:28:26.738Z</time>
      </trkpt>
      <trkpt lat="46.96472" lon="8.58618">
        <ele>858</ele>
        <time>2021-08-10T09:28:27.738Z</time>
      </trkpt>
      <trkpt lat="46.96471" lon="8.58618">
        <ele>858</ele>
        <time>2021-08-10T09:28:28.738Z</time>
      </trkpt>
      <trkpt lat="46.96469" lon="8.58617">
        <ele>858</ele>
        <time>2021-08-10T09:28:29.738Z</time>
      </trkpt>
      <trkpt lat="46.96467" lon="8.58617">
        <ele>857</ele>
        <time>2021-08-10T09:28:30.738Z</time>
      </trkpt>
      <trkpt lat="46.96465" lon="8.58616">
        <ele>857</ele>
        <time>2021-08-10T09:28:31.737Z</time>
      </trkpt>
      <trkpt lat="46.96465" lon="8.58616">
        <ele>857</ele>
        <time>2021-08-10T09:28:32.738Z</time>
      </trkpt>
      <trkpt lat="46.96464" lon="8.58616">
        <ele>856</ele>
        <time>2021-08-10T09:28:33.737Z</time>
      </trkpt>
      <trkpt lat="46.96464" lon="8.58616">
        <ele>856</ele>
        <time>2021-08-10T09:28:34.738Z</time>
      </trkpt>
      <trkpt lat="46.96463" lon="8.58617">
        <ele>856</ele>
        <time>2021-08-10T09:28:35.737Z</time>
      </trkpt>
      <trkpt lat="46.96462" lon="8.58617">
        <ele>856</ele>
        <time>2021-08-10T09:28:36.737Z</time>
      </trkpt>
      <trkpt lat="46.96461" lon="8.58618">
        <ele>856</ele>
        <time>2021-08-10T09:28:37.737Z</time>
      </trkpt>
      <trkpt lat="46.96461" lon="8.58619">
        <ele>856</ele>
        <time>2021-08-10T09:28:38.737Z</time>
      </trkpt>
      <trkpt lat="46.96461" lon="8.58621">
        <ele>855</ele>
        <time>2021-08-10T09:28:39.738Z</time>
      </trkpt>
      <trkpt lat="46.96461" lon="8.58621">
        <ele>855</ele>
        <time>2021-08-10T09:28:40.738Z</time>
      </trkpt>
      <trkpt lat="46.96459" lon="8.58622">
        <ele>855</ele>
        <time>2021-08-10T09:28:41.738Z</time>
      </trkpt>
      <trkpt lat="46.96458" lon="8.58622">
        <ele>855</ele>
        <time>2021-08-10T09:28:42.738Z</time>
      </trkpt>
      <trkpt lat="46.96458" lon="8.58623">
        <ele>855</ele>
        <time>2021-08-10T09:28:43.737Z</time>
      </trkpt>
      <trkpt lat="46.96458" lon="8.58624">
        <ele>855</ele>
        <time>2021-08-10T09:28:44.738Z</time>
      </trkpt>
      <trkpt lat="46.96457" lon="8.58626">
        <ele>855</ele>
        <time>2021-08-10T09:28:45.738Z</time>
      </trkpt>
      <trkpt lat="46.96457" lon="8.58627">
        <ele>855</ele>
        <time>2021-08-10T09:28:46.737Z</time>
      </trkpt>
      <trkpt lat="46.96456" lon="8.58628">
        <ele>855</ele>
        <time>2021-08-10T09:28:47.738Z</time>
      </trkpt>
      <trkpt lat="46.96455" lon="8.58629">
        <ele>855</ele>
        <time>2021-08-10T09:28:48.738Z</time>
      </trkpt>
      <trkpt lat="46.96455" lon="8.5863">
        <ele>855</ele>
        <time>2021-08-10T09:28:49.738Z</time>
      </trkpt>
      <trkpt lat="46.96454" lon="8.58631">
        <ele>855</ele>
        <time>2021-08-10T09:28:50.737Z</time>
      </trkpt>
      <trkpt lat="46.96452" lon="8.58631">
        <ele>855</ele>
        <time>2021-08-10T09:28:51.737Z</time>
      </trkpt>
      <trkpt lat="46.9645" lon="8.58632">
        <ele>855</ele>
        <time>2021-08-10T09:28:52.738Z</time>
      </trkpt>
      <trkpt lat="46.96449" lon="8.58632">
        <ele>855</ele>
        <time>2021-08-10T09:28:53.737Z</time>
      </trkpt>
      <trkpt lat="46.96448" lon="8.58633">
        <ele>855</ele>
        <time>2021-08-10T09:28:54.738Z</time>
      </trkpt>
      <trkpt lat="46.96447" lon="8.58634">
        <ele>855</ele>
        <time>2021-08-10T09:28:55.737Z</time>
      </trkpt>
      <trkpt lat="46.96446" lon="8.58635">
        <ele>855</ele>
        <time>2021-08-10T09:28:56.738Z</time>
      </trkpt>
      <trkpt lat="46.96445" lon="8.58636">
        <ele>855</ele>
        <time>2021-08-10T09:28:57.737Z</time>
      </trkpt>
      <trkpt lat="46.96445" lon="8.58636">
        <ele>856</ele>
        <time>2021-08-10T09:28:58.738Z</time>
      </trkpt>
      <trkpt lat="46.96444" lon="8.58636">
        <ele>856</ele>
        <time>2021-08-10T09:28:59.738Z</time>
      </trkpt>
      <trkpt lat="46.96443" lon="8.58637">
        <ele>856</ele>
        <time>2021-08-10T09:29:00.738Z</time>
      </trkpt>
      <trkpt lat="46.96442" lon="8.58637">
        <ele>857</ele>
        <time>2021-08-10T09:29:01.738Z</time>
      </trkpt>
      <trkpt lat="46.9644" lon="8.58638">
        <ele>857</ele>
        <time>2021-08-10T09:29:02.738Z</time>
      </trkpt>
      <trkpt lat="46.96439" lon="8.5864">
        <ele>857</ele>
        <time>2021-08-10T09:29:03.737Z</time>
      </trkpt>
      <trkpt lat="46.96438" lon="8.5864">
        <ele>858</ele>
        <time>2021-08-10T09:29:04.738Z</time>
      </trkpt>
      <trkpt lat="46.96436" lon="8.58641">
        <ele>858</ele>
        <time>2021-08-10T09:29:05.737Z</time>
      </trkpt>
      <trkpt lat="46.96435" lon="8.58642">
        <ele>858</ele>
        <time>2021-08-10T09:29:06.738Z</time>
      </trkpt>
      <trkpt lat="46.96433" lon="8.58644">
        <ele>859</ele>
        <time>2021-08-10T09:29:07.737Z</time>
      </trkpt>
      <trkpt lat="46.96432" lon="8.58645">
        <ele>859</ele>
        <time>2021-08-10T09:29:08.738Z</time>
      </trkpt>
      <trkpt lat="46.96431" lon="8.58645">
        <ele>860</ele>
        <time>2021-08-10T09:29:09.737Z</time>
      </trkpt>
      <trkpt lat="46.96431" lon="8.58645">
        <ele>860</ele>
        <time>2021-08-10T09:29:10.738Z</time>
      </trkpt>
      <trkpt lat="46.9643" lon="8.58645">
        <ele>861</ele>
        <time>2021-08-10T09:29:11.737Z</time>
      </trkpt>
      <trkpt lat="46.9643" lon="8.58645">
        <ele>861</ele>
        <time>2021-08-10T09:29:12.737Z</time>
      </trkpt>
      <trkpt lat="46.96429" lon="8.58647">
        <ele>862</ele>
        <time>2021-08-10T09:29:13.737Z</time>
      </trkpt>
      <trkpt lat="46.96428" lon="8.58647">
        <ele>862</ele>
        <time>2021-08-10T09:29:14.737Z</time>
      </trkpt>
      <trkpt lat="46.96428" lon="8.58648">
        <ele>863</ele>
        <time>2021-08-10T09:29:15.738Z</time>
      </trkpt>
      <trkpt lat="46.96427" lon="8.58649">
        <ele>863</ele>
        <time>2021-08-10T09:29:16.738Z</time>
      </trkpt>
      <trkpt lat="46.96424" lon="8.58651">
        <ele>864</ele>
        <time>2021-08-10T09:29:17.738Z</time>
      </trkpt>
      <trkpt lat="46.96423" lon="8.58652">
        <ele>864</ele>
        <time>2021-08-10T09:29:18.737Z</time>
      </trkpt>
      <trkpt lat="46.96421" lon="8.58653">
        <ele>864</ele>
        <time>2021-08-10T09:29:19.738Z</time>
      </trkpt>
      <trkpt lat="46.9642" lon="8.58654">
        <ele>865</ele>
        <time>2021-08-10T09:29:20.737Z</time>
      </trkpt>
      <trkpt lat="46.96419" lon="8.58654">
        <ele>865</ele>
        <time>2021-08-10T09:29:21.737Z</time>
      </trkpt>
      <trkpt lat="46.96418" lon="8.58654">
        <ele>865</ele>
        <time>2021-08-10T09:29:22.738Z</time>
      </trkpt>
      <trkpt lat="46.96418" lon="8.58654">
        <ele>865</ele>
        <time>2021-08-10T09:29:23.737Z</time>
      </trkpt>
      <trkpt lat="46.96417" lon="8.58654">
        <ele>865</ele>
        <time>2021-08-10T09:29:24.737Z</time>
      </trkpt>
      <trkpt lat="46.96413" lon="8.58658">
        <ele>865</ele>
        <time>2021-08-10T09:29:25.738Z</time>
      </trkpt>
      <trkpt lat="46.96412" lon="8.58659">
        <ele>864</ele>
        <time>2021-08-10T09:29:26.737Z</time>
      </trkpt>
      <trkpt lat="46.96411" lon="8.5866">
        <ele>864</ele>
        <time>2021-08-10T09:29:27.737Z</time>
      </trkpt>
      <trkpt lat="46.9641" lon="8.5866">
        <ele>864</ele>
        <time>2021-08-10T09:29:28.738Z</time>
      </trkpt>
      <trkpt lat="46.96409" lon="8.58661">
        <ele>864</ele>
        <time>2021-08-10T09:29:29.737Z</time>
      </trkpt>
      <trkpt lat="46.96409" lon="8.58662">
        <ele>864</ele>
        <time>2021-08-10T09:29:30.737Z</time>
      </trkpt>
      <trkpt lat="46.96407" lon="8.58664">
        <ele>863</ele>
        <time>2021-08-10T09:29:31.738Z</time>
      </trkpt>
      <trkpt lat="46.96407" lon="8.58665">
        <ele>863</ele>
        <time>2021-08-10T09:29:32.737Z</time>
      </trkpt>
      <trkpt lat="46.96406" lon="8.58666">
        <ele>863</ele>
        <time>2021-08-10T09:29:33.738Z</time>
      </trkpt>
      <trkpt lat="46.96405" lon="8.58666">
        <ele>863</ele>
        <time>2021-08-10T09:29:34.737Z</time>
      </trkpt>
      <trkpt lat="46.96404" lon="8.58667">
        <ele>863</ele>
        <time>2021-08-10T09:29:35.737Z</time>
      </trkpt>
      <trkpt lat="46.96403" lon="8.58668">
        <ele>862</ele>
        <time>2021-08-10T09:29:36.737Z</time>
      </trkpt>
      <trkpt lat="46.96402" lon="8.58669">
        <ele>862</ele>
        <time>2021-08-10T09:29:37.737Z</time>
      </trkpt>
      <trkpt lat="46.96401" lon="8.58669">
        <ele>861</ele>
        <time>2021-08-10T09:29:38.737Z</time>
      </trkpt>
      <trkpt lat="46.964" lon="8.58669">
        <ele>861</ele>
        <time>2021-08-10T09:29:39.737Z</time>
      </trkpt>
      <trkpt lat="46.96399" lon="8.5867">
        <ele>861</ele>
        <time>2021-08-10T09:29:40.737Z</time>
      </trkpt>
      <trkpt lat="46.96397" lon="8.58672">
        <ele>860</ele>
        <time>2021-08-10T09:29:41.737Z</time>
      </trkpt>
      <trkpt lat="46.96396" lon="8.58673">
        <ele>860</ele>
        <time>2021-08-10T09:29:42.738Z</time>
      </trkpt>
      <trkpt lat="46.96395" lon="8.58674">
        <ele>860</ele>
        <time>2021-08-10T09:29:43.737Z</time>
      </trkpt>
      <trkpt lat="46.96394" lon="8.58675">
        <ele>860</ele>
        <time>2021-08-10T09:29:44.737Z</time>
      </trkpt>
      <trkpt lat="46.96393" lon="8.58676">
        <ele>859</ele>
        <time>2021-08-10T09:29:45.738Z</time>
      </trkpt>
      <trkpt lat="46.96393" lon="8.58678">
        <ele>859</ele>
        <time>2021-08-10T09:29:46.738Z</time>
      </trkpt>
      <trkpt lat="46.96392" lon="8.5868">
        <ele>859</ele>
        <time>2021-08-10T09:29:47.738Z</time>
      </trkpt>
      <trkpt lat="46.96391" lon="8.58682">
        <ele>858</ele>
        <time>2021-08-10T09:29:48.738Z</time>
      </trkpt>
      <trkpt lat="46.96391" lon="8.58684">
        <ele>858</ele>
        <time>2021-08-10T09:29:49.738Z</time>
      </trkpt>
      <trkpt lat="46.9639" lon="8.58686">
        <ele>858</ele>
        <time>2021-08-10T09:29:50.738Z</time>
      </trkpt>
      <trkpt lat="46.9639" lon="8.58686">
        <ele>858</ele>
        <time>2021-08-10T09:29:51.738Z</time>
      </trkpt>
      <trkpt lat="46.96387" lon="8.58689">
        <ele>858</ele>
        <time>2021-08-10T09:29:52.738Z</time>
      </trkpt>
      <trkpt lat="46.9638" lon="8.58691">
        <ele>859</ele>
        <time>2021-08-10T09:29:53.738Z</time>
      </trkpt>
      <trkpt lat="46.96379" lon="8.58691">
        <ele>859</ele>
        <time>2021-08-10T09:29:54.737Z</time>
      </trkpt>
      <trkpt lat="46.96378" lon="8.58691">
        <ele>860</ele>
        <time>2021-08-10T09:29:55.737Z</time>
      </trkpt>
      <trkpt lat="46.96377" lon="8.58692">
        <ele>860</ele>
        <time>2021-08-10T09:29:56.737Z</time>
      </trkpt>
      <trkpt lat="46.96375" lon="8.58693">
        <ele>860</ele>
        <time>2021-08-10T09:29:57.737Z</time>
      </trkpt>
      <trkpt lat="46.96374" lon="8.58695">
        <ele>861</ele>
        <time>2021-08-10T09:29:58.737Z</time>
      </trkpt>
      <trkpt lat="46.96373" lon="8.58695">
        <ele>861</ele>
        <time>2021-08-10T09:29:59.738Z</time>
      </trkpt>
      <trkpt lat="46.96369" lon="8.58696">
        <ele>863</ele>
        <time>2021-08-10T09:30:01.737Z</time>
      </trkpt>
      <trkpt lat="46.96368" lon="8.58697">
        <ele>864</ele>
        <time>2021-08-10T09:30:02.737Z</time>
      </trkpt>
      <trkpt lat="46.96367" lon="8.58698">
        <ele>864</ele>
        <time>2021-08-10T09:30:03.737Z</time>
      </trkpt>
      <trkpt lat="46.96365" lon="8.58698">
        <ele>865</ele>
        <time>2021-08-10T09:30:04.738Z</time>
      </trkpt>
      <trkpt lat="46.96364" lon="8.58699">
        <ele>865</ele>
        <time>2021-08-10T09:30:05.737Z</time>
      </trkpt>
      <trkpt lat="46.96363" lon="8.58699">
        <ele>866</ele>
        <time>2021-08-10T09:30:06.738Z</time>
      </trkpt>
      <trkpt lat="46.96362" lon="8.587">
        <ele>866</ele>
        <time>2021-08-10T09:30:07.738Z</time>
      </trkpt>
      <trkpt lat="46.9636" lon="8.587">
        <ele>866</ele>
        <time>2021-08-10T09:30:08.737Z</time>
      </trkpt>
      <trkpt lat="46.96358" lon="8.58701">
        <ele>866</ele>
        <time>2021-08-10T09:30:09.737Z</time>
      </trkpt>
      <trkpt lat="46.96357" lon="8.58701">
        <ele>866</ele>
        <time>2021-08-10T09:30:10.737Z</time>
      </trkpt>
      <trkpt lat="46.96357" lon="8.58702">
        <ele>866</ele>
        <time>2021-08-10T09:30:11.737Z</time>
      </trkpt>
      <trkpt lat="46.96356" lon="8.58702">
        <ele>866</ele>
        <time>2021-08-10T09:30:12.737Z</time>
      </trkpt>
      <trkpt lat="46.96356" lon="8.58703">
        <ele>866</ele>
        <time>2021-08-10T09:30:13.737Z</time>
      </trkpt>
      <trkpt lat="46.96355" lon="8.58704">
        <ele>865</ele>
        <time>2021-08-10T09:30:14.737Z</time>
      </trkpt>
      <trkpt lat="46.96354" lon="8.58705">
        <ele>865</ele>
        <time>2021-08-10T09:30:15.737Z</time>
      </trkpt>
      <trkpt lat="46.96354" lon="8.58706">
        <ele>864</ele>
        <time>2021-08-10T09:30:16.737Z</time>
      </trkpt>
      <trkpt lat="46.96353" lon="8.58707">
        <ele>864</ele>
        <time>2021-08-10T09:30:17.737Z</time>
      </trkpt>
      <trkpt lat="46.96352" lon="8.58707">
        <ele>864</ele>
        <time>2021-08-10T09:30:18.737Z</time>
      </trkpt>
      <trkpt lat="46.96352" lon="8.58707">
        <ele>864</ele>
        <time>2021-08-10T09:30:19.737Z</time>
      </trkpt>
      <trkpt lat="46.96351" lon="8.58707">
        <ele>864</ele>
        <time>2021-08-10T09:30:20.738Z</time>
      </trkpt>
      <trkpt lat="46.9635" lon="8.58707">
        <ele>863</ele>
        <time>2021-08-10T09:30:21.737Z</time>
      </trkpt>
      <trkpt lat="46.9635" lon="8.58708">
        <ele>864</ele>
        <time>2021-08-10T09:30:22.737Z</time>
      </trkpt>
      <trkpt lat="46.96349" lon="8.58709">
        <ele>864</ele>
        <time>2021-08-10T09:30:23.738Z</time>
      </trkpt>
      <trkpt lat="46.96348" lon="8.5871">
        <ele>864</ele>
        <time>2021-08-10T09:30:24.738Z</time>
      </trkpt>
      <trkpt lat="46.96347" lon="8.58711">
        <ele>864</ele>
        <time>2021-08-10T09:30:25.738Z</time>
      </trkpt>
      <trkpt lat="46.96347" lon="8.58712">
        <ele>864</ele>
        <time>2021-08-10T09:30:26.738Z</time>
      </trkpt>
      <trkpt lat="46.96347" lon="8.58713">
        <ele>864</ele>
        <time>2021-08-10T09:30:27.738Z</time>
      </trkpt>
      <trkpt lat="46.96347" lon="8.58714">
        <ele>864</ele>
        <time>2021-08-10T09:30:28.737Z</time>
      </trkpt>
      <trkpt lat="46.96346" lon="8.58722">
        <ele>862</ele>
        <time>2021-08-10T09:30:29.738Z</time>
      </trkpt>
      <trkpt lat="46.96346" lon="8.58723">
        <ele>862</ele>
        <time>2021-08-10T09:30:30.737Z</time>
      </trkpt>
      <trkpt lat="46.96345" lon="8.58723">
        <ele>862</ele>
        <time>2021-08-10T09:30:31.737Z</time>
      </trkpt>
      <trkpt lat="46.96345" lon="8.58723">
        <ele>862</ele>
        <time>2021-08-10T09:30:32.737Z</time>
      </trkpt>
      <trkpt lat="46.96344" lon="8.58723">
        <ele>862</ele>
        <time>2021-08-10T09:30:33.737Z</time>
      </trkpt>
      <trkpt lat="46.96344" lon="8.58724">
        <ele>862</ele>
        <time>2021-08-10T09:30:34.738Z</time>
      </trkpt>
      <trkpt lat="46.96343" lon="8.58725">
        <ele>862</ele>
        <time>2021-08-10T09:30:35.737Z</time>
      </trkpt>
      <trkpt lat="46.96343" lon="8.58725">
        <ele>862</ele>
        <time>2021-08-10T09:30:36.738Z</time>
      </trkpt>
      <trkpt lat="46.96343" lon="8.58725">
        <ele>862</ele>
        <time>2021-08-10T09:30:37.738Z</time>
      </trkpt>
      <trkpt lat="46.96342" lon="8.58726">
        <ele>862</ele>
        <time>2021-08-10T09:30:38.737Z</time>
      </trkpt>
      <trkpt lat="46.96341" lon="8.58726">
        <ele>862</ele>
        <time>2021-08-10T09:30:39.738Z</time>
      </trkpt>
      <trkpt lat="46.96341" lon="8.58726">
        <ele>862</ele>
        <time>2021-08-10T09:30:40.738Z</time>
      </trkpt>
      <trkpt lat="46.9634" lon="8.58727">
        <ele>862</ele>
        <time>2021-08-10T09:30:41.738Z</time>
      </trkpt>
      <trkpt lat="46.9634" lon="8.58727">
        <ele>862</ele>
        <time>2021-08-10T09:30:42.738Z</time>
      </trkpt>
      <trkpt lat="46.96339" lon="8.58727">
        <ele>862</ele>
        <time>2021-08-10T09:30:43.737Z</time>
      </trkpt>
      <trkpt lat="46.96338" lon="8.58727">
        <ele>862</ele>
        <time>2021-08-10T09:30:44.737Z</time>
      </trkpt>
      <trkpt lat="46.96336" lon="8.58728">
        <ele>862</ele>
        <time>2021-08-10T09:30:45.738Z</time>
      </trkpt>
      <trkpt lat="46.96335" lon="8.58728">
        <ele>862</ele>
        <time>2021-08-10T09:30:46.737Z</time>
      </trkpt>
      <trkpt lat="46.96333" lon="8.58728">
        <ele>862</ele>
        <time>2021-08-10T09:30:47.737Z</time>
      </trkpt>
      <trkpt lat="46.96332" lon="8.58728">
        <ele>862</ele>
        <time>2021-08-10T09:30:48.737Z</time>
      </trkpt>
      <trkpt lat="46.96331" lon="8.58729">
        <ele>862</ele>
        <time>2021-08-10T09:30:49.737Z</time>
      </trkpt>
      <trkpt lat="46.9633" lon="8.58729">
        <ele>862</ele>
        <time>2021-08-10T09:30:50.738Z</time>
      </trkpt>
      <trkpt lat="46.96329" lon="8.58729">
        <ele>863</ele>
        <time>2021-08-10T09:30:51.738Z</time>
      </trkpt>
      <trkpt lat="46.96328" lon="8.5873">
        <ele>863</ele>
        <time>2021-08-10T09:30:52.737Z</time>
      </trkpt>
      <trkpt lat="46.96327" lon="8.58731">
        <ele>863</ele>
        <time>2021-08-10T09:30:53.738Z</time>
      </trkpt>
      <trkpt lat="46.96325" lon="8.58731">
        <ele>863</ele>
        <time>2021-08-10T09:30:54.738Z</time>
      </trkpt>
      <trkpt lat="46.96325" lon="8.58731">
        <ele>864</ele>
        <time>2021-08-10T09:30:55.737Z</time>
      </trkpt>
      <trkpt lat="46.96324" lon="8.58732">
        <ele>864</ele>
        <time>2021-08-10T09:30:56.737Z</time>
      </trkpt>
      <trkpt lat="46.96322" lon="8.58734">
        <ele>864</ele>
        <time>2021-08-10T09:30:57.738Z</time>
      </trkpt>
      <trkpt lat="46.96321" lon="8.58735">
        <ele>864</ele>
        <time>2021-08-10T09:30:58.738Z</time>
      </trkpt>
      <trkpt lat="46.9632" lon="8.58735">
        <ele>865</ele>
        <time>2021-08-10T09:30:59.738Z</time>
      </trkpt>
      <trkpt lat="46.96319" lon="8.58735">
        <ele>865</ele>
        <time>2021-08-10T09:31:00.738Z</time>
      </trkpt>
      <trkpt lat="46.96318" lon="8.58736">
        <ele>865</ele>
        <time>2021-08-10T09:31:01.738Z</time>
      </trkpt>
      <trkpt lat="46.96318" lon="8.58736">
        <ele>866</ele>
        <time>2021-08-10T09:31:02.738Z</time>
      </trkpt>
      <trkpt lat="46.96317" lon="8.58736">
        <ele>866</ele>
        <time>2021-08-10T09:31:03.738Z</time>
      </trkpt>
      <trkpt lat="46.96316" lon="8.58737">
        <ele>866</ele>
        <time>2021-08-10T09:31:04.737Z</time>
      </trkpt>
      <trkpt lat="46.96316" lon="8.58737">
        <ele>867</ele>
        <time>2021-08-10T09:31:05.738Z</time>
      </trkpt>
      <trkpt lat="46.96315" lon="8.58737">
        <ele>867</ele>
        <time>2021-08-10T09:31:06.738Z</time>
      </trkpt>
      <trkpt lat="46.96314" lon="8.58738">
        <ele>867</ele>
        <time>2021-08-10T09:31:07.738Z</time>
      </trkpt>
      <trkpt lat="46.96314" lon="8.58739">
        <ele>867</ele>
        <time>2021-08-10T09:31:08.738Z</time>
      </trkpt>
      <trkpt lat="46.96314" lon="8.5874">
        <ele>867</ele>
        <time>2021-08-10T09:31:09.738Z</time>
      </trkpt>
      <trkpt lat="46.96314" lon="8.58741">
        <ele>867</ele>
        <time>2021-08-10T09:31:10.737Z</time>
      </trkpt>
      <trkpt lat="46.96315" lon="8.58744">
        <ele>867</ele>
        <time>2021-08-10T09:31:11.738Z</time>
      </trkpt>
      <trkpt lat="46.96315" lon="8.58746">
        <ele>867</ele>
        <time>2021-08-10T09:31:12.738Z</time>
      </trkpt>
      <trkpt lat="46.96315" lon="8.58748">
        <ele>867</ele>
        <time>2021-08-10T09:31:13.738Z</time>
      </trkpt>
      <trkpt lat="46.96315" lon="8.58748">
        <ele>867</ele>
        <time>2021-08-10T09:31:14.738Z</time>
      </trkpt>
      <trkpt lat="46.96315" lon="8.58749">
        <ele>867</ele>
        <time>2021-08-10T09:31:15.738Z</time>
      </trkpt>
      <trkpt lat="46.96316" lon="8.5875">
        <ele>867</ele>
        <time>2021-08-10T09:31:16.737Z</time>
      </trkpt>
      <trkpt lat="46.96316" lon="8.58751">
        <ele>867</ele>
        <time>2021-08-10T09:31:17.738Z</time>
      </trkpt>
      <trkpt lat="46.96317" lon="8.58753">
        <ele>867</ele>
        <time>2021-08-10T09:31:18.738Z</time>
      </trkpt>
      <trkpt lat="46.96317" lon="8.58754">
        <ele>866</ele>
        <time>2021-08-10T09:31:19.738Z</time>
      </trkpt>
      <trkpt lat="46.96317" lon="8.58755">
        <ele>866</ele>
        <time>2021-08-10T09:31:20.738Z</time>
      </trkpt>
      <trkpt lat="46.96317" lon="8.58756">
        <ele>865</ele>
        <time>2021-08-10T09:31:21.737Z</time>
      </trkpt>
      <trkpt lat="46.96317" lon="8.58757">
        <ele>865</ele>
        <time>2021-08-10T09:31:22.738Z</time>
      </trkpt>
      <trkpt lat="46.96317" lon="8.58758">
        <ele>865</ele>
        <time>2021-08-10T09:31:23.738Z</time>
      </trkpt>
      <trkpt lat="46.96318" lon="8.58759">
        <ele>864</ele>
        <time>2021-08-10T09:31:24.738Z</time>
      </trkpt>
      <trkpt lat="46.96318" lon="8.58761">
        <ele>864</ele>
        <time>2021-08-10T09:31:25.738Z</time>
      </trkpt>
      <trkpt lat="46.96318" lon="8.58762">
        <ele>864</ele>
        <time>2021-08-10T09:31:26.738Z</time>
      </trkpt>
      <trkpt lat="46.96319" lon="8.58764">
        <ele>863</ele>
        <time>2021-08-10T09:31:27.738Z</time>
      </trkpt>
      <trkpt lat="46.9632" lon="8.58764">
        <ele>863</ele>
        <time>2021-08-10T09:31:28.738Z</time>
      </trkpt>
      <trkpt lat="46.96321" lon="8.58764">
        <ele>862</ele>
        <time>2021-08-10T09:31:29.737Z</time>
      </trkpt>
      <trkpt lat="46.96321" lon="8.58763">
        <ele>862</ele>
        <time>2021-08-10T09:31:30.738Z</time>
      </trkpt>
      <trkpt lat="46.96322" lon="8.58763">
        <ele>862</ele>
        <time>2021-08-10T09:31:31.738Z</time>
      </trkpt>
      <trkpt lat="46.96323" lon="8.58762">
        <ele>861</ele>
        <time>2021-08-10T09:31:32.738Z</time>
      </trkpt>
      <trkpt lat="46.96323" lon="8.58762">
        <ele>861</ele>
        <time>2021-08-10T09:31:33.738Z</time>
      </trkpt>
      <trkpt lat="46.96323" lon="8.58763">
        <ele>860</ele>
        <time>2021-08-10T09:31:34.738Z</time>
      </trkpt>
      <trkpt lat="46.96323" lon="8.58764">
        <ele>861</ele>
        <time>2021-08-10T09:31:35.737Z</time>
      </trkpt>
      <trkpt lat="46.96323" lon="8.58764">
        <ele>861</ele>
        <time>2021-08-10T09:31:36.737Z</time>
      </trkpt>
      <trkpt lat="46.96324" lon="8.58763">
        <ele>861</ele>
        <time>2021-08-10T09:31:37.738Z</time>
      </trkpt>
      <trkpt lat="46.96331" lon="8.58763">
        <ele>859</ele>
        <time>2021-08-10T09:31:38.738Z</time>
      </trkpt>
      <trkpt lat="46.96332" lon="8.58762">
        <ele>859</ele>
        <time>2021-08-10T09:31:39.739Z</time>
      </trkpt>
      <trkpt lat="46.96332" lon="8.58761">
        <ele>859</ele>
        <time>2021-08-10T09:31:40.738Z</time>
      </trkpt>
      <trkpt lat="46.96332" lon="8.58761">
        <ele>859</ele>
        <time>2021-08-10T09:31:41.738Z</time>
      </trkpt>
      <trkpt lat="46.96332" lon="8.58762">
        <ele>859</ele>
        <time>2021-08-10T09:31:42.739Z</time>
      </trkpt>
      <trkpt lat="46.96332" lon="8.58762">
        <ele>858</ele>
        <time>2021-08-10T09:31:43.739Z</time>
      </trkpt>
      <trkpt lat="46.96332" lon="8.58763">
        <ele>858</ele>
        <time>2021-08-10T09:31:44.739Z</time>
      </trkpt>
      <trkpt lat="46.96333" lon="8.58763">
        <ele>858</ele>
        <time>2021-08-10T09:31:45.738Z</time>
      </trkpt>
      <trkpt lat="46.96333" lon="8.58764">
        <ele>858</ele>
        <time>2021-08-10T09:31:46.739Z</time>
      </trkpt>
      <trkpt lat="46.96333" lon="8.58764">
        <ele>858</ele>
        <time>2021-08-10T09:31:47.739Z</time>
      </trkpt>
      <trkpt lat="46.96324" lon="8.5876">
        <ele>860</ele>
        <time>2021-08-10T09:31:48.739Z</time>
      </trkpt>
      <trkpt lat="46.96321" lon="8.58759">
        <ele>860</ele>
        <time>2021-08-10T09:31:49.739Z</time>
      </trkpt>
      <trkpt lat="46.96324" lon="8.58755">
        <ele>837</ele>
        <time>2021-08-10T09:31:50.739Z</time>
      </trkpt>
      <trkpt lat="46.96324" lon="8.58756">
        <ele>837</ele>
        <time>2021-08-10T09:31:51.738Z</time>
      </trkpt>
      <trkpt lat="46.96324" lon="8.58757">
        <ele>836</ele>
        <time>2021-08-10T09:31:52.739Z</time>
      </trkpt>
      <trkpt lat="46.96323" lon="8.58758">
        <ele>836</ele>
        <time>2021-08-10T09:31:53.739Z</time>
      </trkpt>
      <trkpt lat="46.96321" lon="8.58761">
        <ele>836</ele>
        <time>2021-08-10T09:31:54.739Z</time>
      </trkpt>
      <trkpt lat="46.9632" lon="8.58762">
        <ele>836</ele>
        <time>2021-08-10T09:31:55.739Z</time>
      </trkpt>
      <trkpt lat="46.96319" lon="8.58762">
        <ele>837</ele>
        <time>2021-08-10T09:31:56.738Z</time>
      </trkpt>
      <trkpt lat="46.96317" lon="8.58764">
        <ele>837</ele>
        <time>2021-08-10T09:31:57.739Z</time>
      </trkpt>
      <trkpt lat="46.96317" lon="8.58764">
        <ele>838</ele>
        <time>2021-08-10T09:31:58.739Z</time>
      </trkpt>
      <trkpt lat="46.96316" lon="8.58765">
        <ele>839</ele>
        <time>2021-08-10T09:31:59.740Z</time>
      </trkpt>
      <trkpt lat="46.96316" lon="8.58765">
        <ele>839</ele>
        <time>2021-08-10T09:32:00.740Z</time>
      </trkpt>
      <trkpt lat="46.96315" lon="8.58766">
        <ele>840</ele>
        <time>2021-08-10T09:32:01.740Z</time>
      </trkpt>
      <trkpt lat="46.96314" lon="8.58767">
        <ele>840</ele>
        <time>2021-08-10T09:32:02.740Z</time>
      </trkpt>
      <trkpt lat="46.96309" lon="8.58767">
        <ele>842</ele>
        <time>2021-08-10T09:32:03.740Z</time>
      </trkpt>
      <trkpt lat="46.96308" lon="8.58767">
        <ele>843</ele>
        <time>2021-08-10T09:32:04.741Z</time>
      </trkpt>
      <trkpt lat="46.96307" lon="8.58767">
        <ele>843</ele>
        <time>2021-08-10T09:32:05.740Z</time>
      </trkpt>
      <trkpt lat="46.96307" lon="8.58767">
        <ele>845</ele>
        <time>2021-08-10T09:32:06.741Z</time>
      </trkpt>
      <trkpt lat="46.96306" lon="8.58767">
        <ele>845</ele>
        <time>2021-08-10T09:32:07.742Z</time>
      </trkpt>
      <trkpt lat="46.96305" lon="8.58767">
        <ele>846</ele>
        <time>2021-08-10T09:32:08.741Z</time>
      </trkpt>
      <trkpt lat="46.96305" lon="8.58768">
        <ele>846</ele>
        <time>2021-08-10T09:32:09.741Z</time>
      </trkpt>
      <trkpt lat="46.96305" lon="8.58768">
        <ele>847</ele>
        <time>2021-08-10T09:32:10.741Z</time>
      </trkpt>
      <trkpt lat="46.96304" lon="8.58769">
        <ele>847</ele>
        <time>2021-08-10T09:32:11.742Z</time>
      </trkpt>
      <trkpt lat="46.96303" lon="8.58771">
        <ele>848</ele>
        <time>2021-08-10T09:32:12.741Z</time>
      </trkpt>
      <trkpt lat="46.96302" lon="8.58772">
        <ele>848</ele>
        <time>2021-08-10T09:32:13.741Z</time>
      </trkpt>
      <trkpt lat="46.96302" lon="8.58773">
        <ele>848</ele>
        <time>2021-08-10T09:32:14.742Z</time>
      </trkpt>
      <trkpt lat="46.96301" lon="8.58774">
        <ele>849</ele>
        <time>2021-08-10T09:32:15.741Z</time>
      </trkpt>
      <trkpt lat="46.96301" lon="8.58775">
        <ele>849</ele>
        <time>2021-08-10T09:32:16.742Z</time>
      </trkpt>
      <trkpt lat="46.963" lon="8.58775">
        <ele>850</ele>
        <time>2021-08-10T09:32:17.742Z</time>
      </trkpt>
      <trkpt lat="46.963" lon="8.58775">
        <ele>850</ele>
        <time>2021-08-10T09:32:18.742Z</time>
      </trkpt>
      <trkpt lat="46.96299" lon="8.58775">
        <ele>850</ele>
        <time>2021-08-10T09:32:19.742Z</time>
      </trkpt>
      <trkpt lat="46.96298" lon="8.58776">
        <ele>850</ele>
        <time>2021-08-10T09:32:20.742Z</time>
      </trkpt>
      <trkpt lat="46.96298" lon="8.58777">
        <ele>850</ele>
        <time>2021-08-10T09:32:21.742Z</time>
      </trkpt>
      <trkpt lat="46.96297" lon="8.58778">
        <ele>851</ele>
        <time>2021-08-10T09:32:22.741Z</time>
      </trkpt>
      <trkpt lat="46.96296" lon="8.58779">
        <ele>851</ele>
        <time>2021-08-10T09:32:23.741Z</time>
      </trkpt>
      <trkpt lat="46.96295" lon="8.5878">
        <ele>851</ele>
        <time>2021-08-10T09:32:24.741Z</time>
      </trkpt>
      <trkpt lat="46.96295" lon="8.58781">
        <ele>852</ele>
        <time>2021-08-10T09:32:25.742Z</time>
      </trkpt>
      <trkpt lat="46.96294" lon="8.58783">
        <ele>852</ele>
        <time>2021-08-10T09:32:26.742Z</time>
      </trkpt>
      <trkpt lat="46.96293" lon="8.58784">
        <ele>852</ele>
        <time>2021-08-10T09:32:27.741Z</time>
      </trkpt>
      <trkpt lat="46.96291" lon="8.58786">
        <ele>852</ele>
        <time>2021-08-10T09:32:28.742Z</time>
      </trkpt>
      <trkpt lat="46.9629" lon="8.58786">
        <ele>852</ele>
        <time>2021-08-10T09:32:29.742Z</time>
      </trkpt>
      <trkpt lat="46.96289" lon="8.58787">
        <ele>852</ele>
        <time>2021-08-10T09:32:30.742Z</time>
      </trkpt>
      <trkpt lat="46.96288" lon="8.58787">
        <ele>853</ele>
        <time>2021-08-10T09:32:31.742Z</time>
      </trkpt>
      <trkpt lat="46.96287" lon="8.58788">
        <ele>853</ele>
        <time>2021-08-10T09:32:32.742Z</time>
      </trkpt>
      <trkpt lat="46.96285" lon="8.58789">
        <ele>852</ele>
        <time>2021-08-10T09:32:33.742Z</time>
      </trkpt>
      <trkpt lat="46.96284" lon="8.5879">
        <ele>852</ele>
        <time>2021-08-10T09:32:34.742Z</time>
      </trkpt>
      <trkpt lat="46.96283" lon="8.58791">
        <ele>852</ele>
        <time>2021-08-10T09:32:35.742Z</time>
      </trkpt>
      <trkpt lat="46.96281" lon="8.58793">
        <ele>852</ele>
        <time>2021-08-10T09:32:36.741Z</time>
      </trkpt>
      <trkpt lat="46.96279" lon="8.58797">
        <ele>852</ele>
        <time>2021-08-10T09:32:37.742Z</time>
      </trkpt>
      <trkpt lat="46.96277" lon="8.58798">
        <ele>851</ele>
        <time>2021-08-10T09:32:38.742Z</time>
      </trkpt>
      <trkpt lat="46.96276" lon="8.588">
        <ele>851</ele>
        <time>2021-08-10T09:32:39.742Z</time>
      </trkpt>
      <trkpt lat="46.96275" lon="8.58801">
        <ele>851</ele>
        <time>2021-08-10T09:32:40.742Z</time>
      </trkpt>
      <trkpt lat="46.96275" lon="8.58804">
        <ele>851</ele>
        <time>2021-08-10T09:32:41.741Z</time>
      </trkpt>
      <trkpt lat="46.96274" lon="8.58806">
        <ele>852</ele>
        <time>2021-08-10T09:32:42.742Z</time>
      </trkpt>
      <trkpt lat="46.96274" lon="8.58808">
        <ele>852</ele>
        <time>2021-08-10T09:32:43.742Z</time>
      </trkpt>
      <trkpt lat="46.96274" lon="8.5881">
        <ele>852</ele>
        <time>2021-08-10T09:32:44.741Z</time>
      </trkpt>
      <trkpt lat="46.96274" lon="8.58812">
        <ele>851</ele>
        <time>2021-08-10T09:32:45.742Z</time>
      </trkpt>
      <trkpt lat="46.96274" lon="8.58814">
        <ele>851</ele>
        <time>2021-08-10T09:32:46.742Z</time>
      </trkpt>
      <trkpt lat="46.96275" lon="8.58817">
        <ele>851</ele>
        <time>2021-08-10T09:32:47.742Z</time>
      </trkpt>
      <trkpt lat="46.96275" lon="8.58819">
        <ele>851</ele>
        <time>2021-08-10T09:32:48.742Z</time>
      </trkpt>
      <trkpt lat="46.96275" lon="8.58821">
        <ele>851</ele>
        <time>2021-08-10T09:32:49.741Z</time>
      </trkpt>
      <trkpt lat="46.96274" lon="8.58821">
        <ele>851</ele>
        <time>2021-08-10T09:32:50.742Z</time>
      </trkpt>
      <trkpt lat="46.96274" lon="8.58822">
        <ele>851</ele>
        <time>2021-08-10T09:32:51.741Z</time>
      </trkpt>
      <trkpt lat="46.96274" lon="8.58824">
        <ele>851</ele>
        <time>2021-08-10T09:32:52.742Z</time>
      </trkpt>
      <trkpt lat="46.96274" lon="8.58825">
        <ele>851</ele>
        <time>2021-08-10T09:32:53.741Z</time>
      </trkpt>
      <trkpt lat="46.96274" lon="8.58827">
        <ele>851</ele>
        <time>2021-08-10T09:32:54.741Z</time>
      </trkpt>
      <trkpt lat="46.96274" lon="8.58829">
        <ele>851</ele>
        <time>2021-08-10T09:32:55.741Z</time>
      </trkpt>
      <trkpt lat="46.96273" lon="8.5883">
        <ele>851</ele>
        <time>2021-08-10T09:32:56.741Z</time>
      </trkpt>
      <trkpt lat="46.96273" lon="8.58832">
        <ele>850</ele>
        <time>2021-08-10T09:32:57.741Z</time>
      </trkpt>
      <trkpt lat="46.96274" lon="8.58833">
        <ele>850</ele>
        <time>2021-08-10T09:32:58.741Z</time>
      </trkpt>
      <trkpt lat="46.96274" lon="8.58834">
        <ele>850</ele>
        <time>2021-08-10T09:32:59.742Z</time>
      </trkpt>
      <trkpt lat="46.96275" lon="8.58836">
        <ele>850</ele>
        <time>2021-08-10T09:33:00.742Z</time>
      </trkpt>
      <trkpt lat="46.96274" lon="8.58837">
        <ele>850</ele>
        <time>2021-08-10T09:33:01.742Z</time>
      </trkpt>
      <trkpt lat="46.96274" lon="8.58838">
        <ele>851</ele>
        <time>2021-08-10T09:33:02.742Z</time>
      </trkpt>
      <trkpt lat="46.96274" lon="8.5884">
        <ele>851</ele>
        <time>2021-08-10T09:33:03.742Z</time>
      </trkpt>
      <trkpt lat="46.96275" lon="8.58841">
        <ele>851</ele>
        <time>2021-08-10T09:33:04.742Z</time>
      </trkpt>
      <trkpt lat="46.96275" lon="8.58843">
        <ele>851</ele>
        <time>2021-08-10T09:33:05.742Z</time>
      </trkpt>
      <trkpt lat="46.96274" lon="8.58845">
        <ele>851</ele>
        <time>2021-08-10T09:33:06.742Z</time>
      </trkpt>
      <trkpt lat="46.96273" lon="8.58848">
        <ele>851</ele>
        <time>2021-08-10T09:33:07.741Z</time>
      </trkpt>
      <trkpt lat="46.96273" lon="8.5885">
        <ele>850</ele>
        <time>2021-08-10T09:33:08.742Z</time>
      </trkpt>
      <trkpt lat="46.96273" lon="8.58851">
        <ele>850</ele>
        <time>2021-08-10T09:33:09.742Z</time>
      </trkpt>
      <trkpt lat="46.96273" lon="8.58854">
        <ele>850</ele>
        <time>2021-08-10T09:33:10.741Z</time>
      </trkpt>
      <trkpt lat="46.96273" lon="8.58855">
        <ele>850</ele>
        <time>2021-08-10T09:33:11.742Z</time>
      </trkpt>
      <trkpt lat="46.96272" lon="8.58856">
        <ele>850</ele>
        <time>2021-08-10T09:33:12.741Z</time>
      </trkpt>
      <trkpt lat="46.96272" lon="8.58857">
        <ele>850</ele>
        <time>2021-08-10T09:33:13.742Z</time>
      </trkpt>
      <trkpt lat="46.96271" lon="8.58858">
        <ele>849</ele>
        <time>2021-08-10T09:33:14.741Z</time>
      </trkpt>
      <trkpt lat="46.9627" lon="8.5886">
        <ele>849</ele>
        <time>2021-08-10T09:33:15.742Z</time>
      </trkpt>
      <trkpt lat="46.9627" lon="8.58861">
        <ele>849</ele>
        <time>2021-08-10T09:33:16.742Z</time>
      </trkpt>
      <trkpt lat="46.96269" lon="8.58862">
        <ele>849</ele>
        <time>2021-08-10T09:33:17.742Z</time>
      </trkpt>
      <trkpt lat="46.96269" lon="8.58863">
        <ele>849</ele>
        <time>2021-08-10T09:33:18.742Z</time>
      </trkpt>
      <trkpt lat="46.96268" lon="8.58864">
        <ele>849</ele>
        <time>2021-08-10T09:33:19.741Z</time>
      </trkpt>
      <trkpt lat="46.96267" lon="8.58865">
        <ele>849</ele>
        <time>2021-08-10T09:33:20.742Z</time>
      </trkpt>
      <trkpt lat="46.96266" lon="8.58866">
        <ele>849</ele>
        <time>2021-08-10T09:33:21.742Z</time>
      </trkpt>
      <trkpt lat="46.96266" lon="8.58867">
        <ele>849</ele>
        <time>2021-08-10T09:33:22.741Z</time>
      </trkpt>
      <trkpt lat="46.96265" lon="8.58868">
        <ele>849</ele>
        <time>2021-08-10T09:33:23.742Z</time>
      </trkpt>
      <trkpt lat="46.96265" lon="8.58869">
        <ele>849</ele>
        <time>2021-08-10T09:33:24.742Z</time>
      </trkpt>
      <trkpt lat="46.96265" lon="8.5887">
        <ele>849</ele>
        <time>2021-08-10T09:33:25.741Z</time>
      </trkpt>
      <trkpt lat="46.96264" lon="8.58876">
        <ele>848</ele>
        <time>2021-08-10T09:33:26.742Z</time>
      </trkpt>
      <trkpt lat="46.96265" lon="8.58877">
        <ele>848</ele>
        <time>2021-08-10T09:33:27.742Z</time>
      </trkpt>
      <trkpt lat="46.96267" lon="8.58878">
        <ele>848</ele>
        <time>2021-08-10T09:33:28.742Z</time>
      </trkpt>
      <trkpt lat="46.96268" lon="8.58878">
        <ele>848</ele>
        <time>2021-08-10T09:33:29.741Z</time>
      </trkpt>
      <trkpt lat="46.96269" lon="8.58878">
        <ele>848</ele>
        <time>2021-08-10T09:33:30.741Z</time>
      </trkpt>
      <trkpt lat="46.9627" lon="8.58878">
        <ele>848</ele>
        <time>2021-08-10T09:33:31.742Z</time>
      </trkpt>
      <trkpt lat="46.9627" lon="8.58879">
        <ele>848</ele>
        <time>2021-08-10T09:33:32.741Z</time>
      </trkpt>
      <trkpt lat="46.9627" lon="8.58879">
        <ele>848</ele>
        <time>2021-08-10T09:33:33.742Z</time>
      </trkpt>
      <trkpt lat="46.96271" lon="8.5888">
        <ele>848</ele>
        <time>2021-08-10T09:33:34.741Z</time>
      </trkpt>
      <trkpt lat="46.96271" lon="8.5888">
        <ele>847</ele>
        <time>2021-08-10T09:33:35.742Z</time>
      </trkpt>
      <trkpt lat="46.96272" lon="8.58881">
        <ele>847</ele>
        <time>2021-08-10T09:33:36.742Z</time>
      </trkpt>
      <trkpt lat="46.96272" lon="8.58882">
        <ele>847</ele>
        <time>2021-08-10T09:33:37.742Z</time>
      </trkpt>
      <trkpt lat="46.96272" lon="8.58884">
        <ele>847</ele>
        <time>2021-08-10T09:33:38.741Z</time>
      </trkpt>
      <trkpt lat="46.96272" lon="8.58885">
        <ele>847</ele>
        <time>2021-08-10T09:33:39.741Z</time>
      </trkpt>
      <trkpt lat="46.96272" lon="8.58886">
        <ele>847</ele>
        <time>2021-08-10T09:33:40.742Z</time>
      </trkpt>
      <trkpt lat="46.96272" lon="8.58888">
        <ele>847</ele>
        <time>2021-08-10T09:33:41.742Z</time>
      </trkpt>
      <trkpt lat="46.96272" lon="8.58889">
        <ele>847</ele>
        <time>2021-08-10T09:33:42.741Z</time>
      </trkpt>
      <trkpt lat="46.96272" lon="8.58891">
        <ele>847</ele>
        <time>2021-08-10T09:33:43.741Z</time>
      </trkpt>
      <trkpt lat="46.96272" lon="8.58892">
        <ele>847</ele>
        <time>2021-08-10T09:33:44.741Z</time>
      </trkpt>
      <trkpt lat="46.96272" lon="8.58892">
        <ele>847</ele>
        <time>2021-08-10T09:33:45.741Z</time>
      </trkpt>
      <trkpt lat="46.96272" lon="8.58892">
        <ele>847</ele>
        <time>2021-08-10T09:33:46.741Z</time>
      </trkpt>
      <trkpt lat="46.96273" lon="8.5889">
        <ele>847</ele>
        <time>2021-08-10T09:33:47.741Z</time>
      </trkpt>
      <trkpt lat="46.96273" lon="8.5889">
        <ele>847</ele>
        <time>2021-08-10T09:33:48.741Z</time>
      </trkpt>
      <trkpt lat="46.96273" lon="8.5889">
        <ele>847</ele>
        <time>2021-08-10T09:33:49.741Z</time>
      </trkpt>
      <trkpt lat="46.96273" lon="8.58891">
        <ele>848</ele>
        <time>2021-08-10T09:33:50.741Z</time>
      </trkpt>
      <trkpt lat="46.96273" lon="8.58892">
        <ele>848</ele>
        <time>2021-08-10T09:33:51.741Z</time>
      </trkpt>
      <trkpt lat="46.96274" lon="8.58892">
        <ele>848</ele>
        <time>2021-08-10T09:33:52.741Z</time>
      </trkpt>
      <trkpt lat="46.96274" lon="8.58892">
        <ele>848</ele>
        <time>2021-08-10T09:33:53.741Z</time>
      </trkpt>
      <trkpt lat="46.96274" lon="8.58892">
        <ele>848</ele>
        <time>2021-08-10T09:33:54.741Z</time>
      </trkpt>
      <trkpt lat="46.96274" lon="8.58893">
        <ele>848</ele>
        <time>2021-08-10T09:33:55.741Z</time>
      </trkpt>
      <trkpt lat="46.96274" lon="8.58892">
        <ele>848</ele>
        <time>2021-08-10T09:33:56.741Z</time>
      </trkpt>
      <trkpt lat="46.96274" lon="8.58891">
        <ele>848</ele>
        <time>2021-08-10T09:33:57.741Z</time>
      </trkpt>
      <trkpt lat="46.96275" lon="8.5889">
        <ele>848</ele>
        <time>2021-08-10T09:33:58.742Z</time>
      </trkpt>
      <trkpt lat="46.96275" lon="8.5889">
        <ele>848</ele>
        <time>2021-08-10T09:33:59.741Z</time>
      </trkpt>
      <trkpt lat="46.96275" lon="8.5889">
        <ele>848</ele>
        <time>2021-08-10T09:34:00.741Z</time>
      </trkpt>
      <trkpt lat="46.96276" lon="8.5889">
        <ele>847</ele>
        <time>2021-08-10T09:34:01.741Z</time>
      </trkpt>
      <trkpt lat="46.96276" lon="8.5889">
        <ele>847</ele>
        <time>2021-08-10T09:34:02.742Z</time>
      </trkpt>
      <trkpt lat="46.96276" lon="8.5889">
        <ele>847</ele>
        <time>2021-08-10T09:34:03.741Z</time>
      </trkpt>
      <trkpt lat="46.96276" lon="8.5889">
        <ele>847</ele>
        <time>2021-08-10T09:34:04.742Z</time>
      </trkpt>
      <trkpt lat="46.96275" lon="8.58891">
        <ele>847</ele>
        <time>2021-08-10T09:34:05.742Z</time>
      </trkpt>
      <trkpt lat="46.96274" lon="8.58894">
        <ele>847</ele>
        <time>2021-08-10T09:34:06.742Z</time>
      </trkpt>
      <trkpt lat="46.96274" lon="8.58895">
        <ele>847</ele>
        <time>2021-08-10T09:34:07.741Z</time>
      </trkpt>
      <trkpt lat="46.96274" lon="8.58895">
        <ele>846</ele>
        <time>2021-08-10T09:34:08.742Z</time>
      </trkpt>
      <trkpt lat="46.96274" lon="8.58896">
        <ele>846</ele>
        <time>2021-08-10T09:34:09.742Z</time>
      </trkpt>
      <trkpt lat="46.96273" lon="8.58901">
        <ele>846</ele>
        <time>2021-08-10T09:34:10.742Z</time>
      </trkpt>
      <trkpt lat="46.96273" lon="8.58902">
        <ele>846</ele>
        <time>2021-08-10T09:34:11.742Z</time>
      </trkpt>
      <trkpt lat="46.96273" lon="8.58904">
        <ele>846</ele>
        <time>2021-08-10T09:34:12.743Z</time>
      </trkpt>
      <trkpt lat="46.96273" lon="8.58905">
        <ele>845</ele>
        <time>2021-08-10T09:34:13.742Z</time>
      </trkpt>
      <trkpt lat="46.96272" lon="8.58907">
        <ele>845</ele>
        <time>2021-08-10T09:34:14.742Z</time>
      </trkpt>
      <trkpt lat="46.96272" lon="8.58907">
        <ele>845</ele>
        <time>2021-08-10T09:34:15.742Z</time>
      </trkpt>
      <trkpt lat="46.96273" lon="8.58905">
        <ele>842</ele>
        <time>2021-08-10T09:34:16.743Z</time>
      </trkpt>
      <trkpt lat="46.96273" lon="8.58904">
        <ele>842</ele>
        <time>2021-08-10T09:34:17.743Z</time>
      </trkpt>
      <trkpt lat="46.96273" lon="8.58903">
        <ele>842</ele>
        <time>2021-08-10T09:34:18.742Z</time>
      </trkpt>
      <trkpt lat="46.96273" lon="8.58903">
        <ele>842</ele>
        <time>2021-08-10T09:34:19.743Z</time>
      </trkpt>
      <trkpt lat="46.96272" lon="8.58903">
        <ele>842</ele>
        <time>2021-08-10T09:34:20.742Z</time>
      </trkpt>
      <trkpt lat="46.96272" lon="8.58902">
        <ele>843</ele>
        <time>2021-08-10T09:34:21.743Z</time>
      </trkpt>
      <trkpt lat="46.9627" lon="8.58903">
        <ele>845</ele>
        <time>2021-08-10T09:34:22.743Z</time>
      </trkpt>
      <trkpt lat="46.9627" lon="8.58903">
        <ele>845</ele>
        <time>2021-08-10T09:34:23.743Z</time>
      </trkpt>
      <trkpt lat="46.9627" lon="8.58903">
        <ele>846</ele>
        <time>2021-08-10T09:34:24.742Z</time>
      </trkpt>
      <trkpt lat="46.9627" lon="8.58904">
        <ele>847</ele>
        <time>2021-08-10T09:34:25.743Z</time>
      </trkpt>
      <trkpt lat="46.96269" lon="8.58904">
        <ele>866</ele>
        <time>2021-08-10T09:34:26.742Z</time>
      </trkpt>
      <trkpt lat="46.96269" lon="8.58903">
        <ele>867</ele>
        <time>2021-08-10T09:34:27.742Z</time>
      </trkpt>
      <trkpt lat="46.96269" lon="8.58904">
        <ele>868</ele>
        <time>2021-08-10T09:34:28.743Z</time>
      </trkpt>
      <trkpt lat="46.96268" lon="8.58905">
        <ele>868</ele>
        <time>2021-08-10T09:34:29.743Z</time>
      </trkpt>
      <trkpt lat="46.96268" lon="8.58905">
        <ele>868</ele>
        <time>2021-08-10T09:34:30.742Z</time>
      </trkpt>
      <trkpt lat="46.96272" lon="8.58901">
        <ele>850</ele>
        <time>2021-08-10T09:34:31.744Z</time>
      </trkpt>
      <trkpt lat="46.96272" lon="8.58902">
        <ele>849</ele>
        <time>2021-08-10T09:34:32.744Z</time>
      </trkpt>
      <trkpt lat="46.96272" lon="8.58902">
        <ele>848</ele>
        <time>2021-08-10T09:34:33.744Z</time>
      </trkpt>
      <trkpt lat="46.96272" lon="8.58901">
        <ele>847</ele>
        <time>2021-08-10T09:34:34.743Z</time>
      </trkpt>
      <trkpt lat="46.96273" lon="8.58901">
        <ele>846</ele>
        <time>2021-08-10T09:34:35.743Z</time>
      </trkpt>
      <trkpt lat="46.96273" lon="8.58902">
        <ele>844</ele>
        <time>2021-08-10T09:34:36.744Z</time>
      </trkpt>
      <trkpt lat="46.96273" lon="8.58902">
        <ele>843</ele>
        <time>2021-08-10T09:34:37.743Z</time>
      </trkpt>
      <trkpt lat="46.96272" lon="8.58907">
        <ele>842</ele>
        <time>2021-08-10T09:34:38.744Z</time>
      </trkpt>
      <trkpt lat="46.96272" lon="8.58907">
        <ele>843</ele>
        <time>2021-08-10T09:34:39.745Z</time>
      </trkpt>
      <trkpt lat="46.96273" lon="8.58907">
        <ele>844</ele>
        <time>2021-08-10T09:34:40.744Z</time>
      </trkpt>
      <trkpt lat="46.96273" lon="8.58907">
        <ele>848</ele>
        <time>2021-08-10T09:34:41.745Z</time>
      </trkpt>
      <trkpt lat="46.96272" lon="8.58912">
        <ele>853</ele>
        <time>2021-08-10T09:34:42.745Z</time>
      </trkpt>
      <trkpt lat="46.9627" lon="8.5891">
        <ele>853</ele>
        <time>2021-08-10T09:34:43.744Z</time>
      </trkpt>
      <trkpt lat="46.96269" lon="8.58909">
        <ele>853</ele>
        <time>2021-08-10T09:34:44.745Z</time>
      </trkpt>
      <trkpt lat="46.96268" lon="8.5891">
        <ele>852</ele>
        <time>2021-08-10T09:34:45.744Z</time>
      </trkpt>
      <trkpt lat="46.96268" lon="8.58911">
        <ele>851</ele>
        <time>2021-08-10T09:34:46.745Z</time>
      </trkpt>
      <trkpt lat="46.96271" lon="8.58909">
        <ele>850</ele>
        <time>2021-08-10T09:34:47.745Z</time>
      </trkpt>
      <trkpt lat="46.96271" lon="8.58908">
        <ele>850</ele>
        <time>2021-08-10T09:34:48.745Z</time>
      </trkpt>
      <trkpt lat="46.96276" lon="8.58902">
        <ele>851</ele>
        <time>2021-08-10T09:34:49.746Z</time>
      </trkpt>
      <trkpt lat="46.96276" lon="8.58902">
        <ele>850</ele>
        <time>2021-08-10T09:34:50.746Z</time>
      </trkpt>
      <trkpt lat="46.96276" lon="8.58901">
        <ele>850</ele>
        <time>2021-08-10T09:34:51.745Z</time>
      </trkpt>
      <trkpt lat="46.96276" lon="8.58902">
        <ele>849</ele>
        <time>2021-08-10T09:34:52.746Z</time>
      </trkpt>
      <trkpt lat="46.96277" lon="8.58903">
        <ele>849</ele>
        <time>2021-08-10T09:34:53.746Z</time>
      </trkpt>
      <trkpt lat="46.96277" lon="8.58903">
        <ele>848</ele>
        <time>2021-08-10T09:34:54.745Z</time>
      </trkpt>
      <trkpt lat="46.96276" lon="8.58903">
        <ele>847</ele>
        <time>2021-08-10T09:34:55.745Z</time>
      </trkpt>
      <trkpt lat="46.96274" lon="8.58905">
        <ele>847</ele>
        <time>2021-08-10T09:34:56.745Z</time>
      </trkpt>
      <trkpt lat="46.96275" lon="8.58905">
        <ele>846</ele>
        <time>2021-08-10T09:34:57.746Z</time>
      </trkpt>
      <trkpt lat="46.96276" lon="8.58905">
        <ele>845</ele>
        <time>2021-08-10T09:34:58.746Z</time>
      </trkpt>
      <trkpt lat="46.96276" lon="8.58905">
        <ele>845</ele>
        <time>2021-08-10T09:34:59.745Z</time>
      </trkpt>
      <trkpt lat="46.96276" lon="8.58904">
        <ele>844</ele>
        <time>2021-08-10T09:35:00.746Z</time>
      </trkpt>
      <trkpt lat="46.96276" lon="8.58904">
        <ele>843</ele>
        <time>2021-08-10T09:35:01.746Z</time>
      </trkpt>
      <trkpt lat="46.96276" lon="8.58904">
        <ele>843</ele>
        <time>2021-08-10T09:35:02.746Z</time>
      </trkpt>
      <trkpt lat="46.96276" lon="8.58905">
        <ele>842</ele>
        <time>2021-08-10T09:35:03.746Z</time>
      </trkpt>
      <trkpt lat="46.96275" lon="8.58906">
        <ele>841</ele>
        <time>2021-08-10T09:35:04.745Z</time>
      </trkpt>
      <trkpt lat="46.96274" lon="8.58906">
        <ele>841</ele>
        <time>2021-08-10T09:35:05.746Z</time>
      </trkpt>
      <trkpt lat="46.96274" lon="8.58911">
        <ele>842</ele>
        <time>2021-08-10T09:35:06.746Z</time>
      </trkpt>
      <trkpt lat="46.96274" lon="8.58911">
        <ele>843</ele>
        <time>2021-08-10T09:35:07.747Z</time>
      </trkpt>
      <trkpt lat="46.96274" lon="8.58911">
        <ele>843</ele>
        <time>2021-08-10T09:35:08.747Z</time>
      </trkpt>
      <trkpt lat="46.96273" lon="8.58911">
        <ele>843</ele>
        <time>2021-08-10T09:35:09.746Z</time>
      </trkpt>
      <trkpt lat="46.96275" lon="8.5891">
        <ele>843</ele>
        <time>2021-08-10T09:35:10.748Z</time>
      </trkpt>
      <trkpt lat="46.96275" lon="8.5891">
        <ele>843</ele>
        <time>2021-08-10T09:35:11.747Z</time>
      </trkpt>
      <trkpt lat="46.96275" lon="8.5891">
        <ele>843</ele>
        <time>2021-08-10T09:35:12.747Z</time>
      </trkpt>
      <trkpt lat="46.96275" lon="8.5891">
        <ele>843</ele>
        <time>2021-08-10T09:35:13.747Z</time>
      </trkpt>
      <trkpt lat="46.96275" lon="8.5891">
        <ele>843</ele>
        <time>2021-08-10T09:35:14.748Z</time>
      </trkpt>
      <trkpt lat="46.96275" lon="8.58909">
        <ele>843</ele>
        <time>2021-08-10T09:35:15.747Z</time>
      </trkpt>
      <trkpt lat="46.96275" lon="8.58909">
        <ele>843</ele>
        <time>2021-08-10T09:35:16.748Z</time>
      </trkpt>
      <trkpt lat="46.96275" lon="8.58909">
        <ele>843</ele>
        <time>2021-08-10T09:35:17.747Z</time>
      </trkpt>
      <trkpt lat="46.96275" lon="8.58909">
        <ele>843</ele>
        <time>2021-08-10T09:35:18.747Z</time>
      </trkpt>
      <trkpt lat="46.96275" lon="8.58908">
        <ele>843</ele>
        <time>2021-08-10T09:35:19.747Z</time>
      </trkpt>
      <trkpt lat="46.96275" lon="8.58907">
        <ele>843</ele>
        <time>2021-08-10T09:35:20.747Z</time>
      </trkpt>
      <trkpt lat="46.96273" lon="8.58907">
        <ele>845</ele>
        <time>2021-08-10T09:35:21.748Z</time>
      </trkpt>
      <trkpt lat="46.96272" lon="8.58906">
        <ele>846</ele>
        <time>2021-08-10T09:35:22.748Z</time>
      </trkpt>
      <trkpt lat="46.96272" lon="8.58906">
        <ele>846</ele>
        <time>2021-08-10T09:35:23.748Z</time>
      </trkpt>
      <trkpt lat="46.96269" lon="8.58908">
        <ele>850</ele>
        <time>2021-08-10T09:35:24.748Z</time>
      </trkpt>
      <trkpt lat="46.96268" lon="8.58909">
        <ele>851</ele>
        <time>2021-08-10T09:35:25.747Z</time>
      </trkpt>
      <trkpt lat="46.96268" lon="8.58909">
        <ele>853</ele>
        <time>2021-08-10T09:35:26.747Z</time>
      </trkpt>
      <trkpt lat="46.96267" lon="8.58908">
        <ele>854</ele>
        <time>2021-08-10T09:35:27.747Z</time>
      </trkpt>
      <trkpt lat="46.96267" lon="8.58908">
        <ele>855</ele>
        <time>2021-08-10T09:35:28.747Z</time>
      </trkpt>
      <trkpt lat="46.96265" lon="8.58904">
        <ele>860</ele>
        <time>2021-08-10T09:35:29.747Z</time>
      </trkpt>
      <trkpt lat="46.96264" lon="8.58903">
        <ele>861</ele>
        <time>2021-08-10T09:35:30.747Z</time>
      </trkpt>
      <trkpt lat="46.96263" lon="8.58902">
        <ele>861</ele>
        <time>2021-08-10T09:35:31.748Z</time>
      </trkpt>
      <trkpt lat="46.96262" lon="8.58901">
        <ele>861</ele>
        <time>2021-08-10T09:35:32.748Z</time>
      </trkpt>
      <trkpt lat="46.96261" lon="8.58901">
        <ele>861</ele>
        <time>2021-08-10T09:35:33.748Z</time>
      </trkpt>
      <trkpt lat="46.96261" lon="8.589">
        <ele>861</ele>
        <time>2021-08-10T09:35:34.748Z</time>
      </trkpt>
      <trkpt lat="46.96261" lon="8.58898">
        <ele>861</ele>
        <time>2021-08-10T09:35:35.747Z</time>
      </trkpt>
      <trkpt lat="46.96262" lon="8.58896">
        <ele>860</ele>
        <time>2021-08-10T09:35:36.747Z</time>
      </trkpt>
      <trkpt lat="46.96262" lon="8.58894">
        <ele>860</ele>
        <time>2021-08-10T09:35:37.748Z</time>
      </trkpt>
      <trkpt lat="46.96262" lon="8.58893">
        <ele>860</ele>
        <time>2021-08-10T09:35:38.748Z</time>
      </trkpt>
      <trkpt lat="46.96261" lon="8.58893">
        <ele>859</ele>
        <time>2021-08-10T09:35:39.748Z</time>
      </trkpt>
      <trkpt lat="46.96261" lon="8.58893">
        <ele>859</ele>
        <time>2021-08-10T09:35:40.747Z</time>
      </trkpt>
      <trkpt lat="46.9626" lon="8.58893">
        <ele>858</ele>
        <time>2021-08-10T09:35:41.748Z</time>
      </trkpt>
      <trkpt lat="46.9626" lon="8.58893">
        <ele>858</ele>
        <time>2021-08-10T09:35:42.748Z</time>
      </trkpt>
      <trkpt lat="46.96259" lon="8.58893">
        <ele>858</ele>
        <time>2021-08-10T09:35:43.747Z</time>
      </trkpt>
      <trkpt lat="46.96258" lon="8.58893">
        <ele>857</ele>
        <time>2021-08-10T09:35:44.747Z</time>
      </trkpt>
      <trkpt lat="46.96258" lon="8.58893">
        <ele>857</ele>
        <time>2021-08-10T09:35:45.748Z</time>
      </trkpt>
      <trkpt lat="46.96257" lon="8.58893">
        <ele>857</ele>
        <time>2021-08-10T09:35:46.748Z</time>
      </trkpt>
      <trkpt lat="46.96256" lon="8.58893">
        <ele>856</ele>
        <time>2021-08-10T09:35:47.748Z</time>
      </trkpt>
      <trkpt lat="46.96255" lon="8.58893">
        <ele>856</ele>
        <time>2021-08-10T09:35:48.748Z</time>
      </trkpt>
      <trkpt lat="46.96254" lon="8.58892">
        <ele>856</ele>
        <time>2021-08-10T09:35:49.747Z</time>
      </trkpt>
      <trkpt lat="46.96253" lon="8.58892">
        <ele>856</ele>
        <time>2021-08-10T09:35:50.748Z</time>
      </trkpt>
      <trkpt lat="46.96252" lon="8.58891">
        <ele>856</ele>
        <time>2021-08-10T09:35:51.747Z</time>
      </trkpt>
      <trkpt lat="46.96251" lon="8.5889">
        <ele>856</ele>
        <time>2021-08-10T09:35:52.748Z</time>
      </trkpt>
      <trkpt lat="46.96249" lon="8.58889">
        <ele>857</ele>
        <time>2021-08-10T09:35:53.748Z</time>
      </trkpt>
      <trkpt lat="46.96248" lon="8.58889">
        <ele>857</ele>
        <time>2021-08-10T09:35:54.747Z</time>
      </trkpt>
      <trkpt lat="46.96247" lon="8.58889">
        <ele>857</ele>
        <time>2021-08-10T09:35:55.748Z</time>
      </trkpt>
      <trkpt lat="46.96246" lon="8.58888">
        <ele>857</ele>
        <time>2021-08-10T09:35:56.747Z</time>
      </trkpt>
      <trkpt lat="46.96245" lon="8.58886">
        <ele>857</ele>
        <time>2021-08-10T09:35:57.747Z</time>
      </trkpt>
      <trkpt lat="46.96244" lon="8.58881">
        <ele>859</ele>
        <time>2021-08-10T09:35:58.747Z</time>
      </trkpt>
      <trkpt lat="46.96245" lon="8.58883">
        <ele>859</ele>
        <time>2021-08-10T09:35:59.747Z</time>
      </trkpt>
      <trkpt lat="46.96246" lon="8.58884">
        <ele>859</ele>
        <time>2021-08-10T09:36:00.748Z</time>
      </trkpt>
      <trkpt lat="46.96246" lon="8.58884">
        <ele>857</ele>
        <time>2021-08-10T09:36:01.748Z</time>
      </trkpt>
      <trkpt lat="46.96245" lon="8.58884">
        <ele>857</ele>
        <time>2021-08-10T09:36:02.748Z</time>
      </trkpt>
      <trkpt lat="46.96245" lon="8.58884">
        <ele>856</ele>
        <time>2021-08-10T09:36:03.747Z</time>
      </trkpt>
      <trkpt lat="46.96245" lon="8.58884">
        <ele>856</ele>
        <time>2021-08-10T09:36:04.748Z</time>
      </trkpt>
      <trkpt lat="46.96246" lon="8.58884">
        <ele>856</ele>
        <time>2021-08-10T09:36:05.748Z</time>
      </trkpt>
      <trkpt lat="46.96247" lon="8.58883">
        <ele>853</ele>
        <time>2021-08-10T09:36:06.749Z</time>
      </trkpt>
      <trkpt lat="46.96246" lon="8.58883">
        <ele>853</ele>
        <time>2021-08-10T09:36:07.750Z</time>
      </trkpt>
      <trkpt lat="46.96245" lon="8.58883">
        <ele>853</ele>
        <time>2021-08-10T09:36:08.749Z</time>
      </trkpt>
      <trkpt lat="46.96244" lon="8.58882">
        <ele>853</ele>
        <time>2021-08-10T09:36:09.749Z</time>
      </trkpt>
      <trkpt lat="46.96242" lon="8.58882">
        <ele>854</ele>
        <time>2021-08-10T09:36:10.750Z</time>
      </trkpt>
      <trkpt lat="46.96241" lon="8.58882">
        <ele>854</ele>
        <time>2021-08-10T09:36:11.749Z</time>
      </trkpt>
      <trkpt lat="46.9624" lon="8.58882">
        <ele>855</ele>
        <time>2021-08-10T09:36:12.750Z</time>
      </trkpt>
      <trkpt lat="46.96239" lon="8.58881">
        <ele>855</ele>
        <time>2021-08-10T09:36:13.750Z</time>
      </trkpt>
      <trkpt lat="46.96238" lon="8.5888">
        <ele>856</ele>
        <time>2021-08-10T09:36:14.750Z</time>
      </trkpt>
      <trkpt lat="46.96236" lon="8.58879">
        <ele>857</ele>
        <time>2021-08-10T09:36:15.749Z</time>
      </trkpt>
      <trkpt lat="46.96235" lon="8.58879">
        <ele>858</ele>
        <time>2021-08-10T09:36:16.750Z</time>
      </trkpt>
      <trkpt lat="46.96234" lon="8.58878">
        <ele>859</ele>
        <time>2021-08-10T09:36:17.749Z</time>
      </trkpt>
      <trkpt lat="46.96233" lon="8.58878">
        <ele>859</ele>
        <time>2021-08-10T09:36:18.750Z</time>
      </trkpt>
      <trkpt lat="46.96232" lon="8.58877">
        <ele>860</ele>
        <time>2021-08-10T09:36:19.750Z</time>
      </trkpt>
      <trkpt lat="46.9623" lon="8.58876">
        <ele>861</ele>
        <time>2021-08-10T09:36:20.749Z</time>
      </trkpt>
      <trkpt lat="46.96229" lon="8.58876">
        <ele>862</ele>
        <time>2021-08-10T09:36:21.749Z</time>
      </trkpt>
      <trkpt lat="46.96226" lon="8.58875">
        <ele>862</ele>
        <time>2021-08-10T09:36:22.750Z</time>
      </trkpt>
      <trkpt lat="46.96224" lon="8.58874">
        <ele>863</ele>
        <time>2021-08-10T09:36:23.750Z</time>
      </trkpt>
      <trkpt lat="46.96223" lon="8.58874">
        <ele>864</ele>
        <time>2021-08-10T09:36:24.750Z</time>
      </trkpt>
      <trkpt lat="46.96222" lon="8.58874">
        <ele>865</ele>
        <time>2021-08-10T09:36:25.750Z</time>
      </trkpt>
      <trkpt lat="46.96222" lon="8.58874">
        <ele>865</ele>
        <time>2021-08-10T09:36:26.750Z</time>
      </trkpt>
      <trkpt lat="46.96221" lon="8.58874">
        <ele>865</ele>
        <time>2021-08-10T09:36:27.750Z</time>
      </trkpt>
      <trkpt lat="46.9622" lon="8.58874">
        <ele>865</ele>
        <time>2021-08-10T09:36:28.749Z</time>
      </trkpt>
      <trkpt lat="46.96219" lon="8.58874">
        <ele>864</ele>
        <time>2021-08-10T09:36:29.749Z</time>
      </trkpt>
      <trkpt lat="46.96219" lon="8.58873">
        <ele>864</ele>
        <time>2021-08-10T09:36:30.750Z</time>
      </trkpt>
      <trkpt lat="46.96218" lon="8.58872">
        <ele>863</ele>
        <time>2021-08-10T09:36:31.750Z</time>
      </trkpt>
      <trkpt lat="46.96217" lon="8.58871">
        <ele>862</ele>
        <time>2021-08-10T09:36:32.749Z</time>
      </trkpt>
      <trkpt lat="46.96216" lon="8.58871">
        <ele>862</ele>
        <time>2021-08-10T09:36:33.750Z</time>
      </trkpt>
      <trkpt lat="46.96215" lon="8.58871">
        <ele>861</ele>
        <time>2021-08-10T09:36:34.750Z</time>
      </trkpt>
      <trkpt lat="46.96215" lon="8.58871">
        <ele>860</ele>
        <time>2021-08-10T09:36:35.750Z</time>
      </trkpt>
      <trkpt lat="46.96215" lon="8.58871">
        <ele>860</ele>
        <time>2021-08-10T09:36:36.750Z</time>
      </trkpt>
      <trkpt lat="46.96213" lon="8.58872">
        <ele>849</ele>
        <time>2021-08-10T09:36:37.750Z</time>
      </trkpt>
      <trkpt lat="46.96213" lon="8.58871">
        <ele>848</ele>
        <time>2021-08-10T09:36:38.750Z</time>
      </trkpt>
      <trkpt lat="46.96212" lon="8.58871">
        <ele>848</ele>
        <time>2021-08-10T09:36:39.749Z</time>
      </trkpt>
      <trkpt lat="46.96212" lon="8.58871">
        <ele>848</ele>
        <time>2021-08-10T09:36:40.750Z</time>
      </trkpt>
      <trkpt lat="46.96212" lon="8.58871">
        <ele>848</ele>
        <time>2021-08-10T09:36:41.750Z</time>
      </trkpt>
      <trkpt lat="46.96211" lon="8.58872">
        <ele>848</ele>
        <time>2021-08-10T09:36:42.750Z</time>
      </trkpt>
      <trkpt lat="46.9621" lon="8.58871">
        <ele>848</ele>
        <time>2021-08-10T09:36:43.749Z</time>
      </trkpt>
      <trkpt lat="46.9621" lon="8.58871">
        <ele>848</ele>
        <time>2021-08-10T09:36:44.750Z</time>
      </trkpt>
      <trkpt lat="46.96209" lon="8.58871">
        <ele>847</ele>
        <time>2021-08-10T09:36:45.750Z</time>
      </trkpt>
      <trkpt lat="46.96209" lon="8.58871">
        <ele>847</ele>
        <time>2021-08-10T09:36:46.750Z</time>
      </trkpt>
      <trkpt lat="46.96208" lon="8.58871">
        <ele>847</ele>
        <time>2021-08-10T09:36:47.749Z</time>
      </trkpt>
      <trkpt lat="46.96207" lon="8.58871">
        <ele>846</ele>
        <time>2021-08-10T09:36:48.750Z</time>
      </trkpt>
      <trkpt lat="46.96206" lon="8.58871">
        <ele>846</ele>
        <time>2021-08-10T09:36:49.750Z</time>
      </trkpt>
      <trkpt lat="46.96205" lon="8.5887">
        <ele>845</ele>
        <time>2021-08-10T09:36:50.750Z</time>
      </trkpt>
      <trkpt lat="46.96204" lon="8.58868">
        <ele>845</ele>
        <time>2021-08-10T09:36:51.750Z</time>
      </trkpt>
      <trkpt lat="46.96203" lon="8.58866">
        <ele>845</ele>
        <time>2021-08-10T09:36:52.750Z</time>
      </trkpt>
      <trkpt lat="46.96202" lon="8.58865">
        <ele>845</ele>
        <time>2021-08-10T09:36:53.749Z</time>
      </trkpt>
      <trkpt lat="46.96201" lon="8.58863">
        <ele>845</ele>
        <time>2021-08-10T09:36:54.750Z</time>
      </trkpt>
      <trkpt lat="46.962" lon="8.58863">
        <ele>846</ele>
        <time>2021-08-10T09:36:55.749Z</time>
      </trkpt>
      <trkpt lat="46.96199" lon="8.58861">
        <ele>846</ele>
        <time>2021-08-10T09:36:56.749Z</time>
      </trkpt>
      <trkpt lat="46.96198" lon="8.5886">
        <ele>847</ele>
        <time>2021-08-10T09:36:57.750Z</time>
      </trkpt>
      <trkpt lat="46.96197" lon="8.58859">
        <ele>847</ele>
        <time>2021-08-10T09:36:58.750Z</time>
      </trkpt>
      <trkpt lat="46.96196" lon="8.58858">
        <ele>848</ele>
        <time>2021-08-10T09:36:59.750Z</time>
      </trkpt>
      <trkpt lat="46.96195" lon="8.58855">
        <ele>848</ele>
        <time>2021-08-10T09:37:00.749Z</time>
      </trkpt>
      <trkpt lat="46.96194" lon="8.58854">
        <ele>849</ele>
        <time>2021-08-10T09:37:01.749Z</time>
      </trkpt>
      <trkpt lat="46.96193" lon="8.58853">
        <ele>849</ele>
        <time>2021-08-10T09:37:02.750Z</time>
      </trkpt>
      <trkpt lat="46.96193" lon="8.58852">
        <ele>850</ele>
        <time>2021-08-10T09:37:03.750Z</time>
      </trkpt>
      <trkpt lat="46.96192" lon="8.58851">
        <ele>850</ele>
        <time>2021-08-10T09:37:04.750Z</time>
      </trkpt>
      <trkpt lat="46.96191" lon="8.58851">
        <ele>850</ele>
        <time>2021-08-10T09:37:05.750Z</time>
      </trkpt>
      <trkpt lat="46.9619" lon="8.58851">
        <ele>850</ele>
        <time>2021-08-10T09:37:06.750Z</time>
      </trkpt>
      <trkpt lat="46.9619" lon="8.5885">
        <ele>850</ele>
        <time>2021-08-10T09:37:07.750Z</time>
      </trkpt>
      <trkpt lat="46.96189" lon="8.5885">
        <ele>850</ele>
        <time>2021-08-10T09:37:08.749Z</time>
      </trkpt>
      <trkpt lat="46.96189" lon="8.58849">
        <ele>850</ele>
        <time>2021-08-10T09:37:09.750Z</time>
      </trkpt>
      <trkpt lat="46.96188" lon="8.58849">
        <ele>850</ele>
        <time>2021-08-10T09:37:10.750Z</time>
      </trkpt>
      <trkpt lat="46.96188" lon="8.58849">
        <ele>850</ele>
        <time>2021-08-10T09:37:11.749Z</time>
      </trkpt>
      <trkpt lat="46.96188" lon="8.58849">
        <ele>850</ele>
        <time>2021-08-10T09:37:12.750Z</time>
      </trkpt>
      <trkpt lat="46.96187" lon="8.58848">
        <ele>850</ele>
        <time>2021-08-10T09:37:13.750Z</time>
      </trkpt>
      <trkpt lat="46.96186" lon="8.58848">
        <ele>850</ele>
        <time>2021-08-10T09:37:14.750Z</time>
      </trkpt>
      <trkpt lat="46.96186" lon="8.58847">
        <ele>850</ele>
        <time>2021-08-10T09:37:15.750Z</time>
      </trkpt>
      <trkpt lat="46.96185" lon="8.58846">
        <ele>850</ele>
        <time>2021-08-10T09:37:16.750Z</time>
      </trkpt>
      <trkpt lat="46.96184" lon="8.58846">
        <ele>850</ele>
        <time>2021-08-10T09:37:17.750Z</time>
      </trkpt>
      <trkpt lat="46.96183" lon="8.58843">
        <ele>850</ele>
        <time>2021-08-10T09:37:18.750Z</time>
      </trkpt>
      <trkpt lat="46.96183" lon="8.58841">
        <ele>850</ele>
        <time>2021-08-10T09:37:19.750Z</time>
      </trkpt>
      <trkpt lat="46.96182" lon="8.58839">
        <ele>850</ele>
        <time>2021-08-10T09:37:20.750Z</time>
      </trkpt>
      <trkpt lat="46.96181" lon="8.58837">
        <ele>849</ele>
        <time>2021-08-10T09:37:21.750Z</time>
      </trkpt>
      <trkpt lat="46.96181" lon="8.58837">
        <ele>849</ele>
        <time>2021-08-10T09:37:22.750Z</time>
      </trkpt>
      <trkpt lat="46.9618" lon="8.58836">
        <ele>849</ele>
        <time>2021-08-10T09:37:23.750Z</time>
      </trkpt>
      <trkpt lat="46.9618" lon="8.58836">
        <ele>849</ele>
        <time>2021-08-10T09:37:24.750Z</time>
      </trkpt>
      <trkpt lat="46.96179" lon="8.58835">
        <ele>848</ele>
        <time>2021-08-10T09:37:25.750Z</time>
      </trkpt>
      <trkpt lat="46.96178" lon="8.58835">
        <ele>848</ele>
        <time>2021-08-10T09:37:26.749Z</time>
      </trkpt>
      <trkpt lat="46.96177" lon="8.58834">
        <ele>847</ele>
        <time>2021-08-10T09:37:27.750Z</time>
      </trkpt>
      <trkpt lat="46.96176" lon="8.58833">
        <ele>847</ele>
        <time>2021-08-10T09:37:28.750Z</time>
      </trkpt>
      <trkpt lat="46.96175" lon="8.58832">
        <ele>847</ele>
        <time>2021-08-10T09:37:29.749Z</time>
      </trkpt>
      <trkpt lat="46.96173" lon="8.5883">
        <ele>846</ele>
        <time>2021-08-10T09:37:30.750Z</time>
      </trkpt>
      <trkpt lat="46.96172" lon="8.58829">
        <ele>846</ele>
        <time>2021-08-10T09:37:31.750Z</time>
      </trkpt>
      <trkpt lat="46.9617" lon="8.58828">
        <ele>845</ele>
        <time>2021-08-10T09:37:32.750Z</time>
      </trkpt>
      <trkpt lat="46.96169" lon="8.58827">
        <ele>844</ele>
        <time>2021-08-10T09:37:33.749Z</time>
      </trkpt>
      <trkpt lat="46.96168" lon="8.58826">
        <ele>844</ele>
        <time>2021-08-10T09:37:34.749Z</time>
      </trkpt>
      <trkpt lat="46.96167" lon="8.58825">
        <ele>844</ele>
        <time>2021-08-10T09:37:35.750Z</time>
      </trkpt>
      <trkpt lat="46.96167" lon="8.58824">
        <ele>843</ele>
        <time>2021-08-10T09:37:36.750Z</time>
      </trkpt>
      <trkpt lat="46.96168" lon="8.58825">
        <ele>843</ele>
        <time>2021-08-10T09:37:37.750Z</time>
      </trkpt>
      <trkpt lat="46.96169" lon="8.58825">
        <ele>843</ele>
        <time>2021-08-10T09:37:38.750Z</time>
      </trkpt>
      <trkpt lat="46.96169" lon="8.58825">
        <ele>842</ele>
        <time>2021-08-10T09:37:39.750Z</time>
      </trkpt>
      <trkpt lat="46.96169" lon="8.58825">
        <ele>842</ele>
        <time>2021-08-10T09:37:40.750Z</time>
      </trkpt>
      <trkpt lat="46.9617" lon="8.58825">
        <ele>846</ele>
        <time>2021-08-10T09:37:41.750Z</time>
      </trkpt>
      <trkpt lat="46.9617" lon="8.58825">
        <ele>847</ele>
        <time>2021-08-10T09:37:42.749Z</time>
      </trkpt>
      <trkpt lat="46.96168" lon="8.58823">
        <ele>847</ele>
        <time>2021-08-10T09:37:43.750Z</time>
      </trkpt>
      <trkpt lat="46.96167" lon="8.58823">
        <ele>848</ele>
        <time>2021-08-10T09:37:44.749Z</time>
      </trkpt>
      <trkpt lat="46.96167" lon="8.58824">
        <ele>848</ele>
        <time>2021-08-10T09:37:45.749Z</time>
      </trkpt>
      <trkpt lat="46.96165" lon="8.58822">
        <ele>845</ele>
        <time>2021-08-10T09:37:46.750Z</time>
      </trkpt>
      <trkpt lat="46.96165" lon="8.58821">
        <ele>845</ele>
        <time>2021-08-10T09:37:47.749Z</time>
      </trkpt>
      <trkpt lat="46.96165" lon="8.58819">
        <ele>844</ele>
        <time>2021-08-10T09:37:48.749Z</time>
      </trkpt>
      <trkpt lat="46.96165" lon="8.58818">
        <ele>844</ele>
        <time>2021-08-10T09:37:49.749Z</time>
      </trkpt>
      <trkpt lat="46.96165" lon="8.58816">
        <ele>843</ele>
        <time>2021-08-10T09:37:50.749Z</time>
      </trkpt>
      <trkpt lat="46.96165" lon="8.58815">
        <ele>843</ele>
        <time>2021-08-10T09:37:51.749Z</time>
      </trkpt>
      <trkpt lat="46.96165" lon="8.58814">
        <ele>843</ele>
        <time>2021-08-10T09:37:52.749Z</time>
      </trkpt>
      <trkpt lat="46.96164" lon="8.58812">
        <ele>843</ele>
        <time>2021-08-10T09:37:53.750Z</time>
      </trkpt>
      <trkpt lat="46.96163" lon="8.58811">
        <ele>842</ele>
        <time>2021-08-10T09:37:54.750Z</time>
      </trkpt>
      <trkpt lat="46.96163" lon="8.5881">
        <ele>843</ele>
        <time>2021-08-10T09:37:55.749Z</time>
      </trkpt>
      <trkpt lat="46.96163" lon="8.5881">
        <ele>843</ele>
        <time>2021-08-10T09:37:56.749Z</time>
      </trkpt>
      <trkpt lat="46.96164" lon="8.5881">
        <ele>845</ele>
        <time>2021-08-10T09:37:57.750Z</time>
      </trkpt>
      <trkpt lat="46.96164" lon="8.58811">
        <ele>845</ele>
        <time>2021-08-10T09:37:58.750Z</time>
      </trkpt>
      <trkpt lat="46.96164" lon="8.5881">
        <ele>845</ele>
        <time>2021-08-10T09:37:59.749Z</time>
      </trkpt>
      <trkpt lat="46.96164" lon="8.5881">
        <ele>845</ele>
        <time>2021-08-10T09:38:00.749Z</time>
      </trkpt>
      <trkpt lat="46.96165" lon="8.58809">
        <ele>845</ele>
        <time>2021-08-10T09:38:01.749Z</time>
      </trkpt>
      <trkpt lat="46.96166" lon="8.58809">
        <ele>845</ele>
        <time>2021-08-10T09:38:02.749Z</time>
      </trkpt>
      <trkpt lat="46.96166" lon="8.58809">
        <ele>844</ele>
        <time>2021-08-10T09:38:03.750Z</time>
      </trkpt>
      <trkpt lat="46.96167" lon="8.58808">
        <ele>844</ele>
        <time>2021-08-10T09:38:04.750Z</time>
      </trkpt>
      <trkpt lat="46.96167" lon="8.58807">
        <ele>843</ele>
        <time>2021-08-10T09:38:05.750Z</time>
      </trkpt>
      <trkpt lat="46.96168" lon="8.58806">
        <ele>843</ele>
        <time>2021-08-10T09:38:06.749Z</time>
      </trkpt>
      <trkpt lat="46.96168" lon="8.58805">
        <ele>842</ele>
        <time>2021-08-10T09:38:07.750Z</time>
      </trkpt>
      <trkpt lat="46.96168" lon="8.58803">
        <ele>842</ele>
        <time>2021-08-10T09:38:08.749Z</time>
      </trkpt>
      <trkpt lat="46.96169" lon="8.58802">
        <ele>841</ele>
        <time>2021-08-10T09:38:09.750Z</time>
      </trkpt>
      <trkpt lat="46.96169" lon="8.58801">
        <ele>840</ele>
        <time>2021-08-10T09:38:10.750Z</time>
      </trkpt>
      <trkpt lat="46.9617" lon="8.58799">
        <ele>840</ele>
        <time>2021-08-10T09:38:11.750Z</time>
      </trkpt>
      <trkpt lat="46.9617" lon="8.58798">
        <ele>839</ele>
        <time>2021-08-10T09:38:12.750Z</time>
      </trkpt>
      <trkpt lat="46.9617" lon="8.58796">
        <ele>838</ele>
        <time>2021-08-10T09:38:13.750Z</time>
      </trkpt>
      <trkpt lat="46.9617" lon="8.58795">
        <ele>838</ele>
        <time>2021-08-10T09:38:14.750Z</time>
      </trkpt>
      <trkpt lat="46.9617" lon="8.58793">
        <ele>837</ele>
        <time>2021-08-10T09:38:15.750Z</time>
      </trkpt>
      <trkpt lat="46.9617" lon="8.58792">
        <ele>836</ele>
        <time>2021-08-10T09:38:16.749Z</time>
      </trkpt>
      <trkpt lat="46.96171" lon="8.58791">
        <ele>835</ele>
        <time>2021-08-10T09:38:17.749Z</time>
      </trkpt>
      <trkpt lat="46.96171" lon="8.5879">
        <ele>835</ele>
        <time>2021-08-10T09:38:18.749Z</time>
      </trkpt>
      <trkpt lat="46.96172" lon="8.58788">
        <ele>834</ele>
        <time>2021-08-10T09:38:19.750Z</time>
      </trkpt>
      <trkpt lat="46.96173" lon="8.58787">
        <ele>834</ele>
        <time>2021-08-10T09:38:20.750Z</time>
      </trkpt>
      <trkpt lat="46.96174" lon="8.58785">
        <ele>833</ele>
        <time>2021-08-10T09:38:21.750Z</time>
      </trkpt>
      <trkpt lat="46.96175" lon="8.58784">
        <ele>833</ele>
        <time>2021-08-10T09:38:22.750Z</time>
      </trkpt>
      <trkpt lat="46.96175" lon="8.58782">
        <ele>833</ele>
        <time>2021-08-10T09:38:23.750Z</time>
      </trkpt>
      <trkpt lat="46.96176" lon="8.58781">
        <ele>832</ele>
        <time>2021-08-10T09:38:24.750Z</time>
      </trkpt>
      <trkpt lat="46.96176" lon="8.5878">
        <ele>832</ele>
        <time>2021-08-10T09:38:25.749Z</time>
      </trkpt>
      <trkpt lat="46.96176" lon="8.58779">
        <ele>832</ele>
        <time>2021-08-10T09:38:26.749Z</time>
      </trkpt>
      <trkpt lat="46.96177" lon="8.58778">
        <ele>831</ele>
        <time>2021-08-10T09:38:27.749Z</time>
      </trkpt>
      <trkpt lat="46.96178" lon="8.58776">
        <ele>831</ele>
        <time>2021-08-10T09:38:28.750Z</time>
      </trkpt>
      <trkpt lat="46.96178" lon="8.58774">
        <ele>831</ele>
        <time>2021-08-10T09:38:29.749Z</time>
      </trkpt>
      <trkpt lat="46.96179" lon="8.58772">
        <ele>831</ele>
        <time>2021-08-10T09:38:30.750Z</time>
      </trkpt>
      <trkpt lat="46.9618" lon="8.5877">
        <ele>831</ele>
        <time>2021-08-10T09:38:31.750Z</time>
      </trkpt>
      <trkpt lat="46.9618" lon="8.58768">
        <ele>831</ele>
        <time>2021-08-10T09:38:32.749Z</time>
      </trkpt>
      <trkpt lat="46.9618" lon="8.58767">
        <ele>831</ele>
        <time>2021-08-10T09:38:33.750Z</time>
      </trkpt>
      <trkpt lat="46.9618" lon="8.58765">
        <ele>831</ele>
        <time>2021-08-10T09:38:34.749Z</time>
      </trkpt>
      <trkpt lat="46.9618" lon="8.58764">
        <ele>831</ele>
        <time>2021-08-10T09:38:35.749Z</time>
      </trkpt>
      <trkpt lat="46.9618" lon="8.58762">
        <ele>830</ele>
        <time>2021-08-10T09:38:36.749Z</time>
      </trkpt>
      <trkpt lat="46.96181" lon="8.5876">
        <ele>830</ele>
        <time>2021-08-10T09:38:37.749Z</time>
      </trkpt>
      <trkpt lat="46.9618" lon="8.58758">
        <ele>830</ele>
        <time>2021-08-10T09:38:38.750Z</time>
      </trkpt>
      <trkpt lat="46.96181" lon="8.58756">
        <ele>831</ele>
        <time>2021-08-10T09:38:39.749Z</time>
      </trkpt>
      <trkpt lat="46.9618" lon="8.58754">
        <ele>831</ele>
        <time>2021-08-10T09:38:40.750Z</time>
      </trkpt>
      <trkpt lat="46.9618" lon="8.58752">
        <ele>832</ele>
        <time>2021-08-10T09:38:41.750Z</time>
      </trkpt>
      <trkpt lat="46.9618" lon="8.5875">
        <ele>832</ele>
        <time>2021-08-10T09:38:42.750Z</time>
      </trkpt>
      <trkpt lat="46.96179" lon="8.58749">
        <ele>833</ele>
        <time>2021-08-10T09:38:43.750Z</time>
      </trkpt>
      <trkpt lat="46.96179" lon="8.58746">
        <ele>833</ele>
        <time>2021-08-10T09:38:44.750Z</time>
      </trkpt>
      <trkpt lat="46.96178" lon="8.58743">
        <ele>834</ele>
        <time>2021-08-10T09:38:45.750Z</time>
      </trkpt>
      <trkpt lat="46.96177" lon="8.58741">
        <ele>835</ele>
        <time>2021-08-10T09:38:46.750Z</time>
      </trkpt>
      <trkpt lat="46.96176" lon="8.58739">
        <ele>836</ele>
        <time>2021-08-10T09:38:47.750Z</time>
      </trkpt>
      <trkpt lat="46.96175" lon="8.58735">
        <ele>837</ele>
        <time>2021-08-10T09:38:48.749Z</time>
      </trkpt>
      <trkpt lat="46.96173" lon="8.58733">
        <ele>838</ele>
        <time>2021-08-10T09:38:49.750Z</time>
      </trkpt>
      <trkpt lat="46.96171" lon="8.58731">
        <ele>838</ele>
        <time>2021-08-10T09:38:50.750Z</time>
      </trkpt>
      <trkpt lat="46.96171" lon="8.58729">
        <ele>839</ele>
        <time>2021-08-10T09:38:51.749Z</time>
      </trkpt>
      <trkpt lat="46.9617" lon="8.58727">
        <ele>840</ele>
        <time>2021-08-10T09:38:52.749Z</time>
      </trkpt>
      <trkpt lat="46.96169" lon="8.58725">
        <ele>841</ele>
        <time>2021-08-10T09:38:53.749Z</time>
      </trkpt>
      <trkpt lat="46.96169" lon="8.58725">
        <ele>841</ele>
        <time>2021-08-10T09:38:54.750Z</time>
      </trkpt>
      <trkpt lat="46.96169" lon="8.58725">
        <ele>840</ele>
        <time>2021-08-10T09:38:55.750Z</time>
      </trkpt>
      <trkpt lat="46.96168" lon="8.58724">
        <ele>840</ele>
        <time>2021-08-10T09:38:56.750Z</time>
      </trkpt>
      <trkpt lat="46.96167" lon="8.58723">
        <ele>839</ele>
        <time>2021-08-10T09:38:57.749Z</time>
      </trkpt>
      <trkpt lat="46.96167" lon="8.58721">
        <ele>838</ele>
        <time>2021-08-10T09:38:58.749Z</time>
      </trkpt>
      <trkpt lat="46.96166" lon="8.58719">
        <ele>837</ele>
        <time>2021-08-10T09:38:59.750Z</time>
      </trkpt>
      <trkpt lat="46.96166" lon="8.58718">
        <ele>836</ele>
        <time>2021-08-10T09:39:00.750Z</time>
      </trkpt>
      <trkpt lat="46.96165" lon="8.58717">
        <ele>836</ele>
        <time>2021-08-10T09:39:01.750Z</time>
      </trkpt>
      <trkpt lat="46.96164" lon="8.58715">
        <ele>835</ele>
        <time>2021-08-10T09:39:02.749Z</time>
      </trkpt>
      <trkpt lat="46.96164" lon="8.58714">
        <ele>835</ele>
        <time>2021-08-10T09:39:03.750Z</time>
      </trkpt>
      <trkpt lat="46.96163" lon="8.58713">
        <ele>835</ele>
        <time>2021-08-10T09:39:04.749Z</time>
      </trkpt>
      <trkpt lat="46.96162" lon="8.58712">
        <ele>835</ele>
        <time>2021-08-10T09:39:05.750Z</time>
      </trkpt>
      <trkpt lat="46.96162" lon="8.58712">
        <ele>835</ele>
        <time>2021-08-10T09:39:06.750Z</time>
      </trkpt>
      <trkpt lat="46.96162" lon="8.58711">
        <ele>835</ele>
        <time>2021-08-10T09:39:07.750Z</time>
      </trkpt>
      <trkpt lat="46.96162" lon="8.58709">
        <ele>835</ele>
        <time>2021-08-10T09:39:08.749Z</time>
      </trkpt>
      <trkpt lat="46.96162" lon="8.58708">
        <ele>834</ele>
        <time>2021-08-10T09:39:09.749Z</time>
      </trkpt>
      <trkpt lat="46.96162" lon="8.58706">
        <ele>834</ele>
        <time>2021-08-10T09:39:10.750Z</time>
      </trkpt>
      <trkpt lat="46.96162" lon="8.58704">
        <ele>834</ele>
        <time>2021-08-10T09:39:11.749Z</time>
      </trkpt>
      <trkpt lat="46.96162" lon="8.58703">
        <ele>834</ele>
        <time>2021-08-10T09:39:12.749Z</time>
      </trkpt>
      <trkpt lat="46.96163" lon="8.58702">
        <ele>833</ele>
        <time>2021-08-10T09:39:13.750Z</time>
      </trkpt>
      <trkpt lat="46.96164" lon="8.58701">
        <ele>833</ele>
        <time>2021-08-10T09:39:14.749Z</time>
      </trkpt>
      <trkpt lat="46.96164" lon="8.587">
        <ele>833</ele>
        <time>2021-08-10T09:39:15.749Z</time>
      </trkpt>
      <trkpt lat="46.96165" lon="8.58698">
        <ele>834</ele>
        <time>2021-08-10T09:39:16.749Z</time>
      </trkpt>
      <trkpt lat="46.96166" lon="8.58697">
        <ele>834</ele>
        <time>2021-08-10T09:39:17.749Z</time>
      </trkpt>
      <trkpt lat="46.96166" lon="8.58695">
        <ele>834</ele>
        <time>2021-08-10T09:39:18.750Z</time>
      </trkpt>
      <trkpt lat="46.96167" lon="8.58693">
        <ele>834</ele>
        <time>2021-08-10T09:39:19.749Z</time>
      </trkpt>
      <trkpt lat="46.96167" lon="8.58692">
        <ele>834</ele>
        <time>2021-08-10T09:39:20.749Z</time>
      </trkpt>
      <trkpt lat="46.96168" lon="8.5869">
        <ele>834</ele>
        <time>2021-08-10T09:39:21.750Z</time>
      </trkpt>
      <trkpt lat="46.96168" lon="8.58688">
        <ele>833</ele>
        <time>2021-08-10T09:39:22.749Z</time>
      </trkpt>
      <trkpt lat="46.96169" lon="8.58687">
        <ele>833</ele>
        <time>2021-08-10T09:39:23.749Z</time>
      </trkpt>
      <trkpt lat="46.9617" lon="8.58685">
        <ele>833</ele>
        <time>2021-08-10T09:39:24.749Z</time>
      </trkpt>
      <trkpt lat="46.9617" lon="8.58684">
        <ele>833</ele>
        <time>2021-08-10T09:39:25.750Z</time>
      </trkpt>
      <trkpt lat="46.9617" lon="8.58683">
        <ele>833</ele>
        <time>2021-08-10T09:39:26.749Z</time>
      </trkpt>
      <trkpt lat="46.9617" lon="8.58681">
        <ele>833</ele>
        <time>2021-08-10T09:39:27.750Z</time>
      </trkpt>
      <trkpt lat="46.96171" lon="8.5868">
        <ele>833</ele>
        <time>2021-08-10T09:39:28.750Z</time>
      </trkpt>
      <trkpt lat="46.9617" lon="8.58679">
        <ele>833</ele>
        <time>2021-08-10T09:39:29.749Z</time>
      </trkpt>
      <trkpt lat="46.96171" lon="8.58678">
        <ele>834</ele>
        <time>2021-08-10T09:39:30.750Z</time>
      </trkpt>
      <trkpt lat="46.96171" lon="8.58677">
        <ele>834</ele>
        <time>2021-08-10T09:39:31.749Z</time>
      </trkpt>
      <trkpt lat="46.96171" lon="8.58676">
        <ele>834</ele>
        <time>2021-08-10T09:39:32.749Z</time>
      </trkpt>
      <trkpt lat="46.96172" lon="8.58675">
        <ele>834</ele>
        <time>2021-08-10T09:39:33.749Z</time>
      </trkpt>
      <trkpt lat="46.96173" lon="8.58673">
        <ele>834</ele>
        <time>2021-08-10T09:39:34.749Z</time>
      </trkpt>
      <trkpt lat="46.96174" lon="8.58671">
        <ele>834</ele>
        <time>2021-08-10T09:39:35.749Z</time>
      </trkpt>
      <trkpt lat="46.96174" lon="8.5867">
        <ele>834</ele>
        <time>2021-08-10T09:39:36.749Z</time>
      </trkpt>
      <trkpt lat="46.96175" lon="8.5867">
        <ele>834</ele>
        <time>2021-08-10T09:39:37.749Z</time>
      </trkpt>
      <trkpt lat="46.96175" lon="8.58668">
        <ele>834</ele>
        <time>2021-08-10T09:39:38.749Z</time>
      </trkpt>
      <trkpt lat="46.96175" lon="8.58667">
        <ele>834</ele>
        <time>2021-08-10T09:39:39.749Z</time>
      </trkpt>
      <trkpt lat="46.96176" lon="8.58666">
        <ele>834</ele>
        <time>2021-08-10T09:39:40.750Z</time>
      </trkpt>
      <trkpt lat="46.96176" lon="8.58665">
        <ele>834</ele>
        <time>2021-08-10T09:39:41.750Z</time>
      </trkpt>
      <trkpt lat="46.96177" lon="8.58664">
        <ele>834</ele>
        <time>2021-08-10T09:39:42.750Z</time>
      </trkpt>
      <trkpt lat="46.96177" lon="8.58663">
        <ele>834</ele>
        <time>2021-08-10T09:39:43.750Z</time>
      </trkpt>
      <trkpt lat="46.96178" lon="8.58662">
        <ele>834</ele>
        <time>2021-08-10T09:39:44.750Z</time>
      </trkpt>
      <trkpt lat="46.96178" lon="8.5866">
        <ele>834</ele>
        <time>2021-08-10T09:39:45.749Z</time>
      </trkpt>
      <trkpt lat="46.96178" lon="8.58659">
        <ele>835</ele>
        <time>2021-08-10T09:39:46.750Z</time>
      </trkpt>
      <trkpt lat="46.96178" lon="8.58658">
        <ele>835</ele>
        <time>2021-08-10T09:39:47.749Z</time>
      </trkpt>
      <trkpt lat="46.96178" lon="8.58658">
        <ele>835</ele>
        <time>2021-08-10T09:39:48.750Z</time>
      </trkpt>
      <trkpt lat="46.96178" lon="8.58658">
        <ele>834</ele>
        <time>2021-08-10T09:39:49.750Z</time>
      </trkpt>
      <trkpt lat="46.96179" lon="8.58657">
        <ele>834</ele>
        <time>2021-08-10T09:39:50.749Z</time>
      </trkpt>
      <trkpt lat="46.9618" lon="8.58656">
        <ele>834</ele>
        <time>2021-08-10T09:39:51.750Z</time>
      </trkpt>
      <trkpt lat="46.96181" lon="8.58654">
        <ele>834</ele>
        <time>2021-08-10T09:39:52.750Z</time>
      </trkpt>
      <trkpt lat="46.96182" lon="8.58654">
        <ele>834</ele>
        <time>2021-08-10T09:39:53.750Z</time>
      </trkpt>
      <trkpt lat="46.96183" lon="8.58653">
        <ele>833</ele>
        <time>2021-08-10T09:39:54.749Z</time>
      </trkpt>
      <trkpt lat="46.96184" lon="8.58652">
        <ele>833</ele>
        <time>2021-08-10T09:39:55.749Z</time>
      </trkpt>
      <trkpt lat="46.96185" lon="8.58651">
        <ele>834</ele>
        <time>2021-08-10T09:39:56.750Z</time>
      </trkpt>
      <trkpt lat="46.96186" lon="8.5865">
        <ele>834</ele>
        <time>2021-08-10T09:39:57.750Z</time>
      </trkpt>
      <trkpt lat="46.96188" lon="8.58649">
        <ele>835</ele>
        <time>2021-08-10T09:39:58.750Z</time>
      </trkpt>
      <trkpt lat="46.96189" lon="8.58648">
        <ele>835</ele>
        <time>2021-08-10T09:39:59.750Z</time>
      </trkpt>
      <trkpt lat="46.96191" lon="8.58647">
        <ele>836</ele>
        <time>2021-08-10T09:40:00.750Z</time>
      </trkpt>
      <trkpt lat="46.96192" lon="8.58646">
        <ele>836</ele>
        <time>2021-08-10T09:40:01.749Z</time>
      </trkpt>
      <trkpt lat="46.96193" lon="8.58645">
        <ele>837</ele>
        <time>2021-08-10T09:40:02.749Z</time>
      </trkpt>
      <trkpt lat="46.96195" lon="8.58643">
        <ele>838</ele>
        <time>2021-08-10T09:40:03.750Z</time>
      </trkpt>
      <trkpt lat="46.96196" lon="8.58642">
        <ele>839</ele>
        <time>2021-08-10T09:40:04.749Z</time>
      </trkpt>
      <trkpt lat="46.96197" lon="8.58641">
        <ele>840</ele>
        <time>2021-08-10T09:40:05.749Z</time>
      </trkpt>
      <trkpt lat="46.96199" lon="8.5864">
        <ele>841</ele>
        <time>2021-08-10T09:40:06.749Z</time>
      </trkpt>
      <trkpt lat="46.96199" lon="8.58638">
        <ele>842</ele>
        <time>2021-08-10T09:40:07.750Z</time>
      </trkpt>
      <trkpt lat="46.96199" lon="8.58636">
        <ele>843</ele>
        <time>2021-08-10T09:40:08.749Z</time>
      </trkpt>
      <trkpt lat="46.96199" lon="8.58634">
        <ele>844</ele>
        <time>2021-08-10T09:40:09.749Z</time>
      </trkpt>
      <trkpt lat="46.96198" lon="8.58631">
        <ele>844</ele>
        <time>2021-08-10T09:40:10.749Z</time>
      </trkpt>
      <trkpt lat="46.96198" lon="8.58629">
        <ele>845</ele>
        <time>2021-08-10T09:40:11.749Z</time>
      </trkpt>
      <trkpt lat="46.96197" lon="8.58627">
        <ele>845</ele>
        <time>2021-08-10T09:40:12.749Z</time>
      </trkpt>
      <trkpt lat="46.96197" lon="8.58625">
        <ele>846</ele>
        <time>2021-08-10T09:40:13.750Z</time>
      </trkpt>
      <trkpt lat="46.96197" lon="8.58624">
        <ele>846</ele>
        <time>2021-08-10T09:40:14.750Z</time>
      </trkpt>
      <trkpt lat="46.96197" lon="8.58622">
        <ele>846</ele>
        <time>2021-08-10T09:40:15.749Z</time>
      </trkpt>
      <trkpt lat="46.96198" lon="8.58621">
        <ele>847</ele>
        <time>2021-08-10T09:40:16.749Z</time>
      </trkpt>
      <trkpt lat="46.96198" lon="8.58619">
        <ele>847</ele>
        <time>2021-08-10T09:40:17.749Z</time>
      </trkpt>
      <trkpt lat="46.96198" lon="8.58617">
        <ele>847</ele>
        <time>2021-08-10T09:40:18.749Z</time>
      </trkpt>
      <trkpt lat="46.96198" lon="8.58616">
        <ele>847</ele>
        <time>2021-08-10T09:40:19.749Z</time>
      </trkpt>
      <trkpt lat="46.96198" lon="8.58614">
        <ele>847</ele>
        <time>2021-08-10T09:40:20.749Z</time>
      </trkpt>
      <trkpt lat="46.96198" lon="8.58612">
        <ele>848</ele>
        <time>2021-08-10T09:40:21.749Z</time>
      </trkpt>
      <trkpt lat="46.96198" lon="8.58611">
        <ele>848</ele>
        <time>2021-08-10T09:40:22.749Z</time>
      </trkpt>
      <trkpt lat="46.96198" lon="8.5861">
        <ele>848</ele>
        <time>2021-08-10T09:40:23.749Z</time>
      </trkpt>
      <trkpt lat="46.96198" lon="8.58609">
        <ele>848</ele>
        <time>2021-08-10T09:40:24.750Z</time>
      </trkpt>
      <trkpt lat="46.96199" lon="8.58608">
        <ele>848</ele>
        <time>2021-08-10T09:40:25.749Z</time>
      </trkpt>
      <trkpt lat="46.96199" lon="8.58607">
        <ele>848</ele>
        <time>2021-08-10T09:40:26.749Z</time>
      </trkpt>
      <trkpt lat="46.96199" lon="8.58606">
        <ele>848</ele>
        <time>2021-08-10T09:40:27.749Z</time>
      </trkpt>
      <trkpt lat="46.96199" lon="8.58605">
        <ele>849</ele>
        <time>2021-08-10T09:40:28.749Z</time>
      </trkpt>
      <trkpt lat="46.962" lon="8.58603">
        <ele>850</ele>
        <time>2021-08-10T09:40:29.750Z</time>
      </trkpt>
      <trkpt lat="46.962" lon="8.58602">
        <ele>850</ele>
        <time>2021-08-10T09:40:30.749Z</time>
      </trkpt>
      <trkpt lat="46.96201" lon="8.58601">
        <ele>851</ele>
        <time>2021-08-10T09:40:31.749Z</time>
      </trkpt>
      <trkpt lat="46.96202" lon="8.58601">
        <ele>851</ele>
        <time>2021-08-10T09:40:32.749Z</time>
      </trkpt>
      <trkpt lat="46.96203" lon="8.586">
        <ele>852</ele>
        <time>2021-08-10T09:40:33.750Z</time>
      </trkpt>
      <trkpt lat="46.96204" lon="8.58599">
        <ele>852</ele>
        <time>2021-08-10T09:40:34.750Z</time>
      </trkpt>
      <trkpt lat="46.96206" lon="8.58599">
        <ele>853</ele>
        <time>2021-08-10T09:40:35.750Z</time>
      </trkpt>
      <trkpt lat="46.96207" lon="8.58598">
        <ele>853</ele>
        <time>2021-08-10T09:40:36.749Z</time>
      </trkpt>
      <trkpt lat="46.96209" lon="8.58598">
        <ele>854</ele>
        <time>2021-08-10T09:40:37.749Z</time>
      </trkpt>
      <trkpt lat="46.96211" lon="8.58597">
        <ele>855</ele>
        <time>2021-08-10T09:40:38.750Z</time>
      </trkpt>
      <trkpt lat="46.96212" lon="8.58597">
        <ele>855</ele>
        <time>2021-08-10T09:40:39.750Z</time>
      </trkpt>
      <trkpt lat="46.96214" lon="8.58596">
        <ele>856</ele>
        <time>2021-08-10T09:40:40.749Z</time>
      </trkpt>
      <trkpt lat="46.96214" lon="8.58595">
        <ele>857</ele>
        <time>2021-08-10T09:40:41.749Z</time>
      </trkpt>
      <trkpt lat="46.96214" lon="8.58594">
        <ele>857</ele>
        <time>2021-08-10T09:40:42.749Z</time>
      </trkpt>
      <trkpt lat="46.96214" lon="8.58593">
        <ele>858</ele>
        <time>2021-08-10T09:40:43.750Z</time>
      </trkpt>
      <trkpt lat="46.96216" lon="8.58592">
        <ele>858</ele>
        <time>2021-08-10T09:40:44.750Z</time>
      </trkpt>
      <trkpt lat="46.96216" lon="8.5859">
        <ele>858</ele>
        <time>2021-08-10T09:40:45.749Z</time>
      </trkpt>
      <trkpt lat="46.96217" lon="8.58588">
        <ele>859</ele>
        <time>2021-08-10T09:40:46.749Z</time>
      </trkpt>
      <trkpt lat="46.96217" lon="8.58587">
        <ele>859</ele>
        <time>2021-08-10T09:40:47.749Z</time>
      </trkpt>
      <trkpt lat="46.96217" lon="8.58585">
        <ele>860</ele>
        <time>2021-08-10T09:40:48.750Z</time>
      </trkpt>
      <trkpt lat="46.96217" lon="8.58583">
        <ele>860</ele>
        <time>2021-08-10T09:40:49.749Z</time>
      </trkpt>
      <trkpt lat="46.96217" lon="8.58581">
        <ele>860</ele>
        <time>2021-08-10T09:40:50.749Z</time>
      </trkpt>
      <trkpt lat="46.96217" lon="8.5858">
        <ele>861</ele>
        <time>2021-08-10T09:40:51.749Z</time>
      </trkpt>
      <trkpt lat="46.96217" lon="8.58579">
        <ele>861</ele>
        <time>2021-08-10T09:40:52.750Z</time>
      </trkpt>
      <trkpt lat="46.96217" lon="8.58577">
        <ele>861</ele>
        <time>2021-08-10T09:40:53.749Z</time>
      </trkpt>
      <trkpt lat="46.96217" lon="8.58575">
        <ele>861</ele>
        <time>2021-08-10T09:40:54.750Z</time>
      </trkpt>
      <trkpt lat="46.96217" lon="8.58574">
        <ele>861</ele>
        <time>2021-08-10T09:40:55.750Z</time>
      </trkpt>
      <trkpt lat="46.96217" lon="8.58571">
        <ele>861</ele>
        <time>2021-08-10T09:40:56.750Z</time>
      </trkpt>
      <trkpt lat="46.96217" lon="8.58569">
        <ele>860</ele>
        <time>2021-08-10T09:40:57.749Z</time>
      </trkpt>
      <trkpt lat="46.96217" lon="8.58567">
        <ele>860</ele>
        <time>2021-08-10T09:40:58.750Z</time>
      </trkpt>
      <trkpt lat="46.96216" lon="8.58566">
        <ele>860</ele>
        <time>2021-08-10T09:40:59.750Z</time>
      </trkpt>
      <trkpt lat="46.96215" lon="8.58565">
        <ele>860</ele>
        <time>2021-08-10T09:41:00.750Z</time>
      </trkpt>
      <trkpt lat="46.96213" lon="8.58564">
        <ele>860</ele>
        <time>2021-08-10T09:41:01.749Z</time>
      </trkpt>
      <trkpt lat="46.96213" lon="8.58563">
        <ele>859</ele>
        <time>2021-08-10T09:41:02.750Z</time>
      </trkpt>
      <trkpt lat="46.96212" lon="8.58562">
        <ele>859</ele>
        <time>2021-08-10T09:41:03.750Z</time>
      </trkpt>
      <trkpt lat="46.96212" lon="8.58561">
        <ele>858</ele>
        <time>2021-08-10T09:41:04.750Z</time>
      </trkpt>
      <trkpt lat="46.96212" lon="8.58559">
        <ele>858</ele>
        <time>2021-08-10T09:41:05.749Z</time>
      </trkpt>
      <trkpt lat="46.96213" lon="8.58558">
        <ele>858</ele>
        <time>2021-08-10T09:41:06.750Z</time>
      </trkpt>
      <trkpt lat="46.96213" lon="8.58556">
        <ele>857</ele>
        <time>2021-08-10T09:41:07.750Z</time>
      </trkpt>
      <trkpt lat="46.96213" lon="8.58554">
        <ele>857</ele>
        <time>2021-08-10T09:41:08.750Z</time>
      </trkpt>
      <trkpt lat="46.96213" lon="8.58553">
        <ele>856</ele>
        <time>2021-08-10T09:41:09.750Z</time>
      </trkpt>
      <trkpt lat="46.96213" lon="8.58552">
        <ele>856</ele>
        <time>2021-08-10T09:41:10.750Z</time>
      </trkpt>
      <trkpt lat="46.96213" lon="8.58551">
        <ele>855</ele>
        <time>2021-08-10T09:41:11.749Z</time>
      </trkpt>
      <trkpt lat="46.96213" lon="8.58549">
        <ele>855</ele>
        <time>2021-08-10T09:41:12.750Z</time>
      </trkpt>
      <trkpt lat="46.96213" lon="8.58548">
        <ele>856</ele>
        <time>2021-08-10T09:41:13.750Z</time>
      </trkpt>
      <trkpt lat="46.96212" lon="8.58546">
        <ele>856</ele>
        <time>2021-08-10T09:41:14.750Z</time>
      </trkpt>
      <trkpt lat="46.96212" lon="8.58544">
        <ele>856</ele>
        <time>2021-08-10T09:41:15.750Z</time>
      </trkpt>
      <trkpt lat="46.96211" lon="8.58541">
        <ele>856</ele>
        <time>2021-08-10T09:41:16.750Z</time>
      </trkpt>
      <trkpt lat="46.96209" lon="8.58538">
        <ele>856</ele>
        <time>2021-08-10T09:41:17.750Z</time>
      </trkpt>
      <trkpt lat="46.96206" lon="8.58537">
        <ele>856</ele>
        <time>2021-08-10T09:41:18.750Z</time>
      </trkpt>
      <trkpt lat="46.96203" lon="8.58533">
        <ele>857</ele>
        <time>2021-08-10T09:41:19.750Z</time>
      </trkpt>
      <trkpt lat="46.96201" lon="8.5853">
        <ele>857</ele>
        <time>2021-08-10T09:41:20.750Z</time>
      </trkpt>
      <trkpt lat="46.96198" lon="8.58528">
        <ele>857</ele>
        <time>2021-08-10T09:41:21.750Z</time>
      </trkpt>
      <trkpt lat="46.96196" lon="8.58528">
        <ele>857</ele>
        <time>2021-08-10T09:41:22.749Z</time>
      </trkpt>
      <trkpt lat="46.96195" lon="8.58527">
        <ele>857</ele>
        <time>2021-08-10T09:41:23.749Z</time>
      </trkpt>
      <trkpt lat="46.96194" lon="8.58526">
        <ele>857</ele>
        <time>2021-08-10T09:41:24.750Z</time>
      </trkpt>
      <trkpt lat="46.96193" lon="8.58525">
        <ele>858</ele>
        <time>2021-08-10T09:41:25.750Z</time>
      </trkpt>
      <trkpt lat="46.96193" lon="8.58525">
        <ele>858</ele>
        <time>2021-08-10T09:41:26.750Z</time>
      </trkpt>
      <trkpt lat="46.96192" lon="8.58524">
        <ele>859</ele>
        <time>2021-08-10T09:41:27.750Z</time>
      </trkpt>
      <trkpt lat="46.9619" lon="8.58524">
        <ele>859</ele>
        <time>2021-08-10T09:41:28.750Z</time>
      </trkpt>
      <trkpt lat="46.96189" lon="8.58524">
        <ele>859</ele>
        <time>2021-08-10T09:41:29.750Z</time>
      </trkpt>
      <trkpt lat="46.96188" lon="8.58524">
        <ele>860</ele>
        <time>2021-08-10T09:41:30.750Z</time>
      </trkpt>
      <trkpt lat="46.96187" lon="8.58524">
        <ele>860</ele>
        <time>2021-08-10T09:41:31.750Z</time>
      </trkpt>
      <trkpt lat="46.96186" lon="8.58524">
        <ele>860</ele>
        <time>2021-08-10T09:41:32.750Z</time>
      </trkpt>
      <trkpt lat="46.96185" lon="8.58524">
        <ele>861</ele>
        <time>2021-08-10T09:41:33.749Z</time>
      </trkpt>
      <trkpt lat="46.96184" lon="8.58525">
        <ele>861</ele>
        <time>2021-08-10T09:41:34.750Z</time>
      </trkpt>
      <trkpt lat="46.96184" lon="8.58525">
        <ele>861</ele>
        <time>2021-08-10T09:41:35.749Z</time>
      </trkpt>
      <trkpt lat="46.96183" lon="8.58525">
        <ele>861</ele>
        <time>2021-08-10T09:41:36.749Z</time>
      </trkpt>
      <trkpt lat="46.96182" lon="8.58524">
        <ele>861</ele>
        <time>2021-08-10T09:41:37.750Z</time>
      </trkpt>
      <trkpt lat="46.96181" lon="8.58524">
        <ele>861</ele>
        <time>2021-08-10T09:41:38.750Z</time>
      </trkpt>
      <trkpt lat="46.9618" lon="8.58524">
        <ele>861</ele>
        <time>2021-08-10T09:41:39.749Z</time>
      </trkpt>
      <trkpt lat="46.96179" lon="8.58524">
        <ele>861</ele>
        <time>2021-08-10T09:41:40.750Z</time>
      </trkpt>
      <trkpt lat="46.96179" lon="8.58524">
        <ele>860</ele>
        <time>2021-08-10T09:41:41.749Z</time>
      </trkpt>
      <trkpt lat="46.96178" lon="8.58525">
        <ele>860</ele>
        <time>2021-08-10T09:41:42.750Z</time>
      </trkpt>
      <trkpt lat="46.96177" lon="8.58526">
        <ele>860</ele>
        <time>2021-08-10T09:41:43.749Z</time>
      </trkpt>
      <trkpt lat="46.96176" lon="8.58525">
        <ele>860</ele>
        <time>2021-08-10T09:41:44.749Z</time>
      </trkpt>
      <trkpt lat="46.96174" lon="8.58524">
        <ele>860</ele>
        <time>2021-08-10T09:41:45.749Z</time>
      </trkpt>
      <trkpt lat="46.96172" lon="8.58523">
        <ele>860</ele>
        <time>2021-08-10T09:41:46.750Z</time>
      </trkpt>
      <trkpt lat="46.96172" lon="8.58521">
        <ele>860</ele>
        <time>2021-08-10T09:41:47.750Z</time>
      </trkpt>
      <trkpt lat="46.96171" lon="8.5852">
        <ele>860</ele>
        <time>2021-08-10T09:41:48.750Z</time>
      </trkpt>
      <trkpt lat="46.96171" lon="8.58519">
        <ele>860</ele>
        <time>2021-08-10T09:41:49.750Z</time>
      </trkpt>
      <trkpt lat="46.9617" lon="8.58518">
        <ele>860</ele>
        <time>2021-08-10T09:41:50.750Z</time>
      </trkpt>
      <trkpt lat="46.96169" lon="8.58518">
        <ele>860</ele>
        <time>2021-08-10T09:41:51.750Z</time>
      </trkpt>
      <trkpt lat="46.96169" lon="8.58518">
        <ele>860</ele>
        <time>2021-08-10T09:41:52.750Z</time>
      </trkpt>
      <trkpt lat="46.96168" lon="8.58518">
        <ele>860</ele>
        <time>2021-08-10T09:41:53.750Z</time>
      </trkpt>
      <trkpt lat="46.96167" lon="8.58517">
        <ele>860</ele>
        <time>2021-08-10T09:41:54.749Z</time>
      </trkpt>
      <trkpt lat="46.96165" lon="8.58517">
        <ele>859</ele>
        <time>2021-08-10T09:41:55.749Z</time>
      </trkpt>
      <trkpt lat="46.96165" lon="8.58518">
        <ele>860</ele>
        <time>2021-08-10T09:41:56.749Z</time>
      </trkpt>
      <trkpt lat="46.96164" lon="8.58518">
        <ele>860</ele>
        <time>2021-08-10T09:41:57.749Z</time>
      </trkpt>
      <trkpt lat="46.96163" lon="8.58519">
        <ele>860</ele>
        <time>2021-08-10T09:41:58.752Z</time>
      </trkpt>
      <trkpt lat="46.96163" lon="8.58518">
        <ele>859</ele>
        <time>2021-08-10T09:41:59.752Z</time>
      </trkpt>
      <trkpt lat="46.96162" lon="8.58516">
        <ele>859</ele>
        <time>2021-08-10T09:42:00.752Z</time>
      </trkpt>
      <trkpt lat="46.96162" lon="8.58514">
        <ele>858</ele>
        <time>2021-08-10T09:42:01.752Z</time>
      </trkpt>
      <trkpt lat="46.9616" lon="8.58513">
        <ele>858</ele>
        <time>2021-08-10T09:42:02.752Z</time>
      </trkpt>
      <trkpt lat="46.96159" lon="8.58512">
        <ele>857</ele>
        <time>2021-08-10T09:42:03.752Z</time>
      </trkpt>
      <trkpt lat="46.96159" lon="8.58511">
        <ele>857</ele>
        <time>2021-08-10T09:42:04.751Z</time>
      </trkpt>
      <trkpt lat="46.96158" lon="8.5851">
        <ele>856</ele>
        <time>2021-08-10T09:42:05.751Z</time>
      </trkpt>
      <trkpt lat="46.96158" lon="8.58509">
        <ele>856</ele>
        <time>2021-08-10T09:42:06.751Z</time>
      </trkpt>
      <trkpt lat="46.96157" lon="8.58508">
        <ele>856</ele>
        <time>2021-08-10T09:42:07.752Z</time>
      </trkpt>
      <trkpt lat="46.96156" lon="8.58507">
        <ele>856</ele>
        <time>2021-08-10T09:42:08.751Z</time>
      </trkpt>
      <trkpt lat="46.96156" lon="8.58506">
        <ele>856</ele>
        <time>2021-08-10T09:42:09.752Z</time>
      </trkpt>
      <trkpt lat="46.96155" lon="8.58505">
        <ele>856</ele>
        <time>2021-08-10T09:42:10.752Z</time>
      </trkpt>
      <trkpt lat="46.96153" lon="8.58505">
        <ele>857</ele>
        <time>2021-08-10T09:42:11.752Z</time>
      </trkpt>
      <trkpt lat="46.96152" lon="8.58504">
        <ele>857</ele>
        <time>2021-08-10T09:42:12.752Z</time>
      </trkpt>
      <trkpt lat="46.96151" lon="8.58503">
        <ele>858</ele>
        <time>2021-08-10T09:42:13.752Z</time>
      </trkpt>
      <trkpt lat="46.9615" lon="8.58502">
        <ele>858</ele>
        <time>2021-08-10T09:42:14.751Z</time>
      </trkpt>
      <trkpt lat="46.96149" lon="8.585">
        <ele>858</ele>
        <time>2021-08-10T09:42:15.752Z</time>
      </trkpt>
      <trkpt lat="46.96148" lon="8.58499">
        <ele>858</ele>
        <time>2021-08-10T09:42:16.752Z</time>
      </trkpt>
      <trkpt lat="46.96147" lon="8.58498">
        <ele>859</ele>
        <time>2021-08-10T09:42:17.752Z</time>
      </trkpt>
      <trkpt lat="46.96146" lon="8.58497">
        <ele>859</ele>
        <time>2021-08-10T09:42:18.752Z</time>
      </trkpt>
      <trkpt lat="46.96145" lon="8.58496">
        <ele>859</ele>
        <time>2021-08-10T09:42:19.752Z</time>
      </trkpt>
      <trkpt lat="46.96143" lon="8.58496">
        <ele>860</ele>
        <time>2021-08-10T09:42:20.752Z</time>
      </trkpt>
      <trkpt lat="46.96142" lon="8.58496">
        <ele>860</ele>
        <time>2021-08-10T09:42:21.751Z</time>
      </trkpt>
      <trkpt lat="46.96141" lon="8.58496">
        <ele>861</ele>
        <time>2021-08-10T09:42:22.752Z</time>
      </trkpt>
      <trkpt lat="46.9614" lon="8.58496">
        <ele>861</ele>
        <time>2021-08-10T09:42:23.752Z</time>
      </trkpt>
      <trkpt lat="46.9614" lon="8.58495">
        <ele>861</ele>
        <time>2021-08-10T09:42:24.752Z</time>
      </trkpt>
      <trkpt lat="46.96138" lon="8.58493">
        <ele>861</ele>
        <time>2021-08-10T09:42:25.752Z</time>
      </trkpt>
      <trkpt lat="46.96136" lon="8.58493">
        <ele>861</ele>
        <time>2021-08-10T09:42:26.752Z</time>
      </trkpt>
      <trkpt lat="46.96135" lon="8.58491">
        <ele>861</ele>
        <time>2021-08-10T09:42:27.752Z</time>
      </trkpt>
      <trkpt lat="46.96134" lon="8.58492">
        <ele>860</ele>
        <time>2021-08-10T09:42:28.751Z</time>
      </trkpt>
      <trkpt lat="46.96132" lon="8.58492">
        <ele>861</ele>
        <time>2021-08-10T09:42:29.752Z</time>
      </trkpt>
      <trkpt lat="46.96132" lon="8.58494">
        <ele>860</ele>
        <time>2021-08-10T09:42:30.751Z</time>
      </trkpt>
      <trkpt lat="46.96131" lon="8.58496">
        <ele>860</ele>
        <time>2021-08-10T09:42:31.752Z</time>
      </trkpt>
      <trkpt lat="46.9613" lon="8.58496">
        <ele>860</ele>
        <time>2021-08-10T09:42:32.751Z</time>
      </trkpt>
      <trkpt lat="46.9613" lon="8.58496">
        <ele>859</ele>
        <time>2021-08-10T09:42:33.752Z</time>
      </trkpt>
      <trkpt lat="46.96129" lon="8.58496">
        <ele>859</ele>
        <time>2021-08-10T09:42:34.752Z</time>
      </trkpt>
      <trkpt lat="46.96128" lon="8.58497">
        <ele>859</ele>
        <time>2021-08-10T09:42:35.751Z</time>
      </trkpt>
      <trkpt lat="46.96126" lon="8.58497">
        <ele>858</ele>
        <time>2021-08-10T09:42:36.752Z</time>
      </trkpt>
      <trkpt lat="46.96124" lon="8.58497">
        <ele>858</ele>
        <time>2021-08-10T09:42:37.752Z</time>
      </trkpt>
      <trkpt lat="46.96122" lon="8.58497">
        <ele>857</ele>
        <time>2021-08-10T09:42:38.751Z</time>
      </trkpt>
      <trkpt lat="46.96121" lon="8.58497">
        <ele>857</ele>
        <time>2021-08-10T09:42:39.751Z</time>
      </trkpt>
      <trkpt lat="46.9612" lon="8.58497">
        <ele>856</ele>
        <time>2021-08-10T09:42:40.751Z</time>
      </trkpt>
      <trkpt lat="46.96119" lon="8.58497">
        <ele>855</ele>
        <time>2021-08-10T09:42:41.752Z</time>
      </trkpt>
      <trkpt lat="46.96118" lon="8.58497">
        <ele>855</ele>
        <time>2021-08-10T09:42:42.751Z</time>
      </trkpt>
      <trkpt lat="46.96118" lon="8.58497">
        <ele>854</ele>
        <time>2021-08-10T09:42:43.751Z</time>
      </trkpt>
      <trkpt lat="46.96117" lon="8.58497">
        <ele>854</ele>
        <time>2021-08-10T09:42:44.751Z</time>
      </trkpt>
      <trkpt lat="46.96117" lon="8.58497">
        <ele>853</ele>
        <time>2021-08-10T09:42:45.751Z</time>
      </trkpt>
      <trkpt lat="46.96116" lon="8.58496">
        <ele>853</ele>
        <time>2021-08-10T09:42:46.751Z</time>
      </trkpt>
      <trkpt lat="46.96116" lon="8.58496">
        <ele>853</ele>
        <time>2021-08-10T09:42:47.752Z</time>
      </trkpt>
      <trkpt lat="46.96115" lon="8.58496">
        <ele>853</ele>
        <time>2021-08-10T09:42:48.751Z</time>
      </trkpt>
      <trkpt lat="46.96115" lon="8.58496">
        <ele>853</ele>
        <time>2021-08-10T09:42:49.752Z</time>
      </trkpt>
      <trkpt lat="46.96112" lon="8.58495">
        <ele>853</ele>
        <time>2021-08-10T09:42:50.752Z</time>
      </trkpt>
      <trkpt lat="46.96112" lon="8.58494">
        <ele>852</ele>
        <time>2021-08-10T09:42:51.752Z</time>
      </trkpt>
      <trkpt lat="46.96111" lon="8.58494">
        <ele>852</ele>
        <time>2021-08-10T09:42:52.752Z</time>
      </trkpt>
      <trkpt lat="46.96111" lon="8.58493">
        <ele>852</ele>
        <time>2021-08-10T09:42:53.752Z</time>
      </trkpt>
      <trkpt lat="46.9611" lon="8.58493">
        <ele>851</ele>
        <time>2021-08-10T09:42:54.753Z</time>
      </trkpt>
      <trkpt lat="46.96109" lon="8.58493">
        <ele>850</ele>
        <time>2021-08-10T09:42:55.753Z</time>
      </trkpt>
      <trkpt lat="46.96108" lon="8.58493">
        <ele>850</ele>
        <time>2021-08-10T09:42:56.752Z</time>
      </trkpt>
      <trkpt lat="46.96107" lon="8.58493">
        <ele>849</ele>
        <time>2021-08-10T09:42:57.753Z</time>
      </trkpt>
      <trkpt lat="46.96106" lon="8.58493">
        <ele>849</ele>
        <time>2021-08-10T09:42:58.752Z</time>
      </trkpt>
      <trkpt lat="46.96105" lon="8.58492">
        <ele>849</ele>
        <time>2021-08-10T09:42:59.753Z</time>
      </trkpt>
      <trkpt lat="46.96105" lon="8.5849">
        <ele>849</ele>
        <time>2021-08-10T09:43:00.753Z</time>
      </trkpt>
      <trkpt lat="46.96105" lon="8.58489">
        <ele>849</ele>
        <time>2021-08-10T09:43:01.752Z</time>
      </trkpt>
      <trkpt lat="46.96105" lon="8.58488">
        <ele>849</ele>
        <time>2021-08-10T09:43:02.753Z</time>
      </trkpt>
      <trkpt lat="46.96105" lon="8.58486">
        <ele>849</ele>
        <time>2021-08-10T09:43:03.752Z</time>
      </trkpt>
      <trkpt lat="46.96106" lon="8.58485">
        <ele>849</ele>
        <time>2021-08-10T09:43:04.753Z</time>
      </trkpt>
      <trkpt lat="46.96104" lon="8.58484">
        <ele>849</ele>
        <time>2021-08-10T09:43:05.753Z</time>
      </trkpt>
      <trkpt lat="46.96104" lon="8.58483">
        <ele>849</ele>
        <time>2021-08-10T09:43:06.753Z</time>
      </trkpt>
      <trkpt lat="46.96103" lon="8.58482">
        <ele>849</ele>
        <time>2021-08-10T09:43:07.752Z</time>
      </trkpt>
      <trkpt lat="46.96103" lon="8.5848">
        <ele>850</ele>
        <time>2021-08-10T09:43:08.752Z</time>
      </trkpt>
      <trkpt lat="46.96102" lon="8.58478">
        <ele>850</ele>
        <time>2021-08-10T09:43:09.752Z</time>
      </trkpt>
      <trkpt lat="46.96101" lon="8.58477">
        <ele>850</ele>
        <time>2021-08-10T09:43:10.752Z</time>
      </trkpt>
      <trkpt lat="46.961" lon="8.58476">
        <ele>850</ele>
        <time>2021-08-10T09:43:11.753Z</time>
      </trkpt>
      <trkpt lat="46.961" lon="8.58476">
        <ele>850</ele>
        <time>2021-08-10T09:43:12.753Z</time>
      </trkpt>
      <trkpt lat="46.96099" lon="8.58474">
        <ele>850</ele>
        <time>2021-08-10T09:43:13.752Z</time>
      </trkpt>
      <trkpt lat="46.96098" lon="8.58473">
        <ele>850</ele>
        <time>2021-08-10T09:43:14.753Z</time>
      </trkpt>
      <trkpt lat="46.96098" lon="8.58471">
        <ele>850</ele>
        <time>2021-08-10T09:43:15.753Z</time>
      </trkpt>
      <trkpt lat="46.96098" lon="8.58469">
        <ele>850</ele>
        <time>2021-08-10T09:43:16.753Z</time>
      </trkpt>
      <trkpt lat="46.96098" lon="8.58467">
        <ele>849</ele>
        <time>2021-08-10T09:43:17.753Z</time>
      </trkpt>
      <trkpt lat="46.96098" lon="8.58465">
        <ele>849</ele>
        <time>2021-08-10T09:43:18.753Z</time>
      </trkpt>
      <trkpt lat="46.96098" lon="8.58463">
        <ele>849</ele>
        <time>2021-08-10T09:43:19.753Z</time>
      </trkpt>
      <trkpt lat="46.96098" lon="8.58462">
        <ele>849</ele>
        <time>2021-08-10T09:43:20.752Z</time>
      </trkpt>
      <trkpt lat="46.96097" lon="8.58461">
        <ele>849</ele>
        <time>2021-08-10T09:43:21.752Z</time>
      </trkpt>
      <trkpt lat="46.96096" lon="8.5846">
        <ele>849</ele>
        <time>2021-08-10T09:43:22.753Z</time>
      </trkpt>
      <trkpt lat="46.96095" lon="8.58459">
        <ele>849</ele>
        <time>2021-08-10T09:43:23.752Z</time>
      </trkpt>
      <trkpt lat="46.96095" lon="8.58457">
        <ele>849</ele>
        <time>2021-08-10T09:43:24.753Z</time>
      </trkpt>
      <trkpt lat="46.96094" lon="8.58456">
        <ele>849</ele>
        <time>2021-08-10T09:43:25.752Z</time>
      </trkpt>
      <trkpt lat="46.96094" lon="8.58455">
        <ele>849</ele>
        <time>2021-08-10T09:43:26.752Z</time>
      </trkpt>
      <trkpt lat="46.96093" lon="8.58454">
        <ele>849</ele>
        <time>2021-08-10T09:43:27.752Z</time>
      </trkpt>
      <trkpt lat="46.96092" lon="8.58453">
        <ele>849</ele>
        <time>2021-08-10T09:43:28.753Z</time>
      </trkpt>
      <trkpt lat="46.96091" lon="8.58452">
        <ele>849</ele>
        <time>2021-08-10T09:43:29.753Z</time>
      </trkpt>
      <trkpt lat="46.9609" lon="8.58451">
        <ele>848</ele>
        <time>2021-08-10T09:43:30.752Z</time>
      </trkpt>
      <trkpt lat="46.96089" lon="8.58451">
        <ele>847</ele>
        <time>2021-08-10T09:43:31.752Z</time>
      </trkpt>
      <trkpt lat="46.96088" lon="8.5845">
        <ele>846</ele>
        <time>2021-08-10T09:43:32.753Z</time>
      </trkpt>
      <trkpt lat="46.96087" lon="8.58449">
        <ele>846</ele>
        <time>2021-08-10T09:43:33.753Z</time>
      </trkpt>
      <trkpt lat="46.96087" lon="8.58448">
        <ele>846</ele>
        <time>2021-08-10T09:43:34.752Z</time>
      </trkpt>
      <trkpt lat="46.96087" lon="8.58446">
        <ele>846</ele>
        <time>2021-08-10T09:43:35.753Z</time>
      </trkpt>
      <trkpt lat="46.96086" lon="8.58444">
        <ele>846</ele>
        <time>2021-08-10T09:43:36.752Z</time>
      </trkpt>
      <trkpt lat="46.96086" lon="8.58441">
        <ele>845</ele>
        <time>2021-08-10T09:43:37.752Z</time>
      </trkpt>
      <trkpt lat="46.96086" lon="8.58438">
        <ele>845</ele>
        <time>2021-08-10T09:43:38.753Z</time>
      </trkpt>
      <trkpt lat="46.96086" lon="8.58437">
        <ele>845</ele>
        <time>2021-08-10T09:43:39.753Z</time>
      </trkpt>
      <trkpt lat="46.96086" lon="8.58435">
        <ele>845</ele>
        <time>2021-08-10T09:43:40.753Z</time>
      </trkpt>
      <trkpt lat="46.96085" lon="8.58434">
        <ele>845</ele>
        <time>2021-08-10T09:43:41.752Z</time>
      </trkpt>
      <trkpt lat="46.96085" lon="8.58433">
        <ele>845</ele>
        <time>2021-08-10T09:43:42.752Z</time>
      </trkpt>
      <trkpt lat="46.96084" lon="8.58433">
        <ele>845</ele>
        <time>2021-08-10T09:43:43.753Z</time>
      </trkpt>
      <trkpt lat="46.96085" lon="8.58432">
        <ele>846</ele>
        <time>2021-08-10T09:43:44.753Z</time>
      </trkpt>
      <trkpt lat="46.96085" lon="8.58431">
        <ele>846</ele>
        <time>2021-08-10T09:43:45.752Z</time>
      </trkpt>
      <trkpt lat="46.96084" lon="8.5843">
        <ele>846</ele>
        <time>2021-08-10T09:43:46.752Z</time>
      </trkpt>
      <trkpt lat="46.96083" lon="8.58429">
        <ele>846</ele>
        <time>2021-08-10T09:43:47.753Z</time>
      </trkpt>
      <trkpt lat="46.96083" lon="8.58427">
        <ele>846</ele>
        <time>2021-08-10T09:43:48.753Z</time>
      </trkpt>
      <trkpt lat="46.96082" lon="8.58426">
        <ele>846</ele>
        <time>2021-08-10T09:43:49.752Z</time>
      </trkpt>
      <trkpt lat="46.96082" lon="8.58424">
        <ele>846</ele>
        <time>2021-08-10T09:43:50.753Z</time>
      </trkpt>
      <trkpt lat="46.96081" lon="8.58423">
        <ele>846</ele>
        <time>2021-08-10T09:43:51.752Z</time>
      </trkpt>
      <trkpt lat="46.96081" lon="8.58422">
        <ele>846</ele>
        <time>2021-08-10T09:43:52.753Z</time>
      </trkpt>
      <trkpt lat="46.96081" lon="8.5842">
        <ele>846</ele>
        <time>2021-08-10T09:43:53.752Z</time>
      </trkpt>
      <trkpt lat="46.9608" lon="8.58418">
        <ele>847</ele>
        <time>2021-08-10T09:43:54.753Z</time>
      </trkpt>
      <trkpt lat="46.96079" lon="8.58417">
        <ele>847</ele>
        <time>2021-08-10T09:43:55.752Z</time>
      </trkpt>
      <trkpt lat="46.96079" lon="8.58415">
        <ele>848</ele>
        <time>2021-08-10T09:43:56.753Z</time>
      </trkpt>
      <trkpt lat="46.96079" lon="8.58414">
        <ele>848</ele>
        <time>2021-08-10T09:43:57.752Z</time>
      </trkpt>
      <trkpt lat="46.96078" lon="8.58412">
        <ele>849</ele>
        <time>2021-08-10T09:43:58.753Z</time>
      </trkpt>
      <trkpt lat="46.96078" lon="8.58411">
        <ele>849</ele>
        <time>2021-08-10T09:43:59.752Z</time>
      </trkpt>
      <trkpt lat="46.96078" lon="8.58409">
        <ele>849</ele>
        <time>2021-08-10T09:44:00.753Z</time>
      </trkpt>
      <trkpt lat="46.96077" lon="8.58407">
        <ele>850</ele>
        <time>2021-08-10T09:44:01.752Z</time>
      </trkpt>
      <trkpt lat="46.96077" lon="8.58406">
        <ele>850</ele>
        <time>2021-08-10T09:44:02.753Z</time>
      </trkpt>
      <trkpt lat="46.96076" lon="8.58403">
        <ele>850</ele>
        <time>2021-08-10T09:44:03.753Z</time>
      </trkpt>
      <trkpt lat="46.96076" lon="8.58401">
        <ele>850</ele>
        <time>2021-08-10T09:44:04.753Z</time>
      </trkpt>
      <trkpt lat="46.96075" lon="8.58399">
        <ele>850</ele>
        <time>2021-08-10T09:44:05.752Z</time>
      </trkpt>
      <trkpt lat="46.96075" lon="8.58396">
        <ele>850</ele>
        <time>2021-08-10T09:44:06.753Z</time>
      </trkpt>
      <trkpt lat="46.96074" lon="8.58394">
        <ele>849</ele>
        <time>2021-08-10T09:44:07.752Z</time>
      </trkpt>
      <trkpt lat="46.96073" lon="8.58392">
        <ele>849</ele>
        <time>2021-08-10T09:44:08.753Z</time>
      </trkpt>
      <trkpt lat="46.96072" lon="8.5839">
        <ele>849</ele>
        <time>2021-08-10T09:44:09.753Z</time>
      </trkpt>
      <trkpt lat="46.9607" lon="8.58388">
        <ele>850</ele>
        <time>2021-08-10T09:44:10.753Z</time>
      </trkpt>
      <trkpt lat="46.96069" lon="8.58387">
        <ele>850</ele>
        <time>2021-08-10T09:44:11.752Z</time>
      </trkpt>
      <trkpt lat="46.96068" lon="8.58385">
        <ele>850</ele>
        <time>2021-08-10T09:44:12.752Z</time>
      </trkpt>
      <trkpt lat="46.96067" lon="8.58384">
        <ele>850</ele>
        <time>2021-08-10T09:44:13.752Z</time>
      </trkpt>
      <trkpt lat="46.96065" lon="8.58383">
        <ele>850</ele>
        <time>2021-08-10T09:44:14.753Z</time>
      </trkpt>
      <trkpt lat="46.96064" lon="8.58381">
        <ele>849</ele>
        <time>2021-08-10T09:44:15.753Z</time>
      </trkpt>
      <trkpt lat="46.96062" lon="8.5838">
        <ele>849</ele>
        <time>2021-08-10T09:44:16.752Z</time>
      </trkpt>
      <trkpt lat="46.9606" lon="8.5838">
        <ele>848</ele>
        <time>2021-08-10T09:44:17.753Z</time>
      </trkpt>
      <trkpt lat="46.96058" lon="8.5838">
        <ele>848</ele>
        <time>2021-08-10T09:44:18.753Z</time>
      </trkpt>
      <trkpt lat="46.96057" lon="8.58379">
        <ele>848</ele>
        <time>2021-08-10T09:44:19.753Z</time>
      </trkpt>
      <trkpt lat="46.96057" lon="8.58378">
        <ele>848</ele>
        <time>2021-08-10T09:44:20.752Z</time>
      </trkpt>
      <trkpt lat="46.96056" lon="8.58377">
        <ele>848</ele>
        <time>2021-08-10T09:44:21.753Z</time>
      </trkpt>
      <trkpt lat="46.96055" lon="8.58375">
        <ele>847</ele>
        <time>2021-08-10T09:44:22.752Z</time>
      </trkpt>
      <trkpt lat="46.96054" lon="8.58374">
        <ele>847</ele>
        <time>2021-08-10T09:44:23.752Z</time>
      </trkpt>
      <trkpt lat="46.96053" lon="8.58373">
        <ele>847</ele>
        <time>2021-08-10T09:44:24.752Z</time>
      </trkpt>
      <trkpt lat="46.96053" lon="8.58372">
        <ele>847</ele>
        <time>2021-08-10T09:44:25.752Z</time>
      </trkpt>
      <trkpt lat="46.96052" lon="8.58371">
        <ele>847</ele>
        <time>2021-08-10T09:44:26.752Z</time>
      </trkpt>
      <trkpt lat="46.96051" lon="8.5837">
        <ele>847</ele>
        <time>2021-08-10T09:44:27.752Z</time>
      </trkpt>
      <trkpt lat="46.9605" lon="8.58369">
        <ele>847</ele>
        <time>2021-08-10T09:44:28.752Z</time>
      </trkpt>
      <trkpt lat="46.96049" lon="8.58368">
        <ele>847</ele>
        <time>2021-08-10T09:44:29.752Z</time>
      </trkpt>
      <trkpt lat="46.96049" lon="8.58367">
        <ele>847</ele>
        <time>2021-08-10T09:44:30.752Z</time>
      </trkpt>
      <trkpt lat="46.96048" lon="8.58365">
        <ele>847</ele>
        <time>2021-08-10T09:44:31.752Z</time>
      </trkpt>
      <trkpt lat="46.96048" lon="8.58364">
        <ele>847</ele>
        <time>2021-08-10T09:44:32.752Z</time>
      </trkpt>
      <trkpt lat="46.96047" lon="8.58363">
        <ele>847</ele>
        <time>2021-08-10T09:44:33.752Z</time>
      </trkpt>
      <trkpt lat="46.96044" lon="8.58358">
        <ele>846</ele>
        <time>2021-08-10T09:44:34.753Z</time>
      </trkpt>
      <trkpt lat="46.96043" lon="8.58357">
        <ele>846</ele>
        <time>2021-08-10T09:44:35.752Z</time>
      </trkpt>
      <trkpt lat="46.96042" lon="8.58356">
        <ele>845</ele>
        <time>2021-08-10T09:44:36.753Z</time>
      </trkpt>
      <trkpt lat="46.96041" lon="8.58355">
        <ele>845</ele>
        <time>2021-08-10T09:44:37.752Z</time>
      </trkpt>
      <trkpt lat="46.9604" lon="8.58354">
        <ele>845</ele>
        <time>2021-08-10T09:44:38.753Z</time>
      </trkpt>
      <trkpt lat="46.96039" lon="8.58352">
        <ele>845</ele>
        <time>2021-08-10T09:44:39.753Z</time>
      </trkpt>
      <trkpt lat="46.96039" lon="8.58349">
        <ele>845</ele>
        <time>2021-08-10T09:44:40.753Z</time>
      </trkpt>
      <trkpt lat="46.96038" lon="8.58348">
        <ele>845</ele>
        <time>2021-08-10T09:44:41.752Z</time>
      </trkpt>
      <trkpt lat="46.96037" lon="8.58347">
        <ele>844</ele>
        <time>2021-08-10T09:44:42.753Z</time>
      </trkpt>
      <trkpt lat="46.96037" lon="8.58346">
        <ele>844</ele>
        <time>2021-08-10T09:44:43.752Z</time>
      </trkpt>
      <trkpt lat="46.96036" lon="8.58344">
        <ele>844</ele>
        <time>2021-08-10T09:44:44.753Z</time>
      </trkpt>
      <trkpt lat="46.96035" lon="8.58343">
        <ele>844</ele>
        <time>2021-08-10T09:44:45.752Z</time>
      </trkpt>
      <trkpt lat="46.96034" lon="8.58341">
        <ele>844</ele>
        <time>2021-08-10T09:44:46.753Z</time>
      </trkpt>
      <trkpt lat="46.96033" lon="8.5834">
        <ele>844</ele>
        <time>2021-08-10T09:44:47.752Z</time>
      </trkpt>
      <trkpt lat="46.96031" lon="8.58339">
        <ele>844</ele>
        <time>2021-08-10T09:44:48.752Z</time>
      </trkpt>
      <trkpt lat="46.96028" lon="8.58337">
        <ele>843</ele>
        <time>2021-08-10T09:44:49.753Z</time>
      </trkpt>
      <trkpt lat="46.96026" lon="8.58335">
        <ele>843</ele>
        <time>2021-08-10T09:44:50.752Z</time>
      </trkpt>
      <trkpt lat="46.96024" lon="8.58334">
        <ele>843</ele>
        <time>2021-08-10T09:44:51.752Z</time>
      </trkpt>
      <trkpt lat="46.96023" lon="8.58333">
        <ele>842</ele>
        <time>2021-08-10T09:44:52.752Z</time>
      </trkpt>
      <trkpt lat="46.96022" lon="8.58332">
        <ele>842</ele>
        <time>2021-08-10T09:44:53.753Z</time>
      </trkpt>
      <trkpt lat="46.96021" lon="8.58332">
        <ele>841</ele>
        <time>2021-08-10T09:44:54.753Z</time>
      </trkpt>
      <trkpt lat="46.9602" lon="8.58332">
        <ele>840</ele>
        <time>2021-08-10T09:44:55.752Z</time>
      </trkpt>
      <trkpt lat="46.96019" lon="8.58332">
        <ele>840</ele>
        <time>2021-08-10T09:44:56.752Z</time>
      </trkpt>
      <trkpt lat="46.96017" lon="8.58332">
        <ele>840</ele>
        <time>2021-08-10T09:44:57.753Z</time>
      </trkpt>
      <trkpt lat="46.96016" lon="8.58331">
        <ele>840</ele>
        <time>2021-08-10T09:44:58.752Z</time>
      </trkpt>
      <trkpt lat="46.96014" lon="8.5833">
        <ele>840</ele>
        <time>2021-08-10T09:44:59.752Z</time>
      </trkpt>
      <trkpt lat="46.96013" lon="8.5833">
        <ele>840</ele>
        <time>2021-08-10T09:45:00.753Z</time>
      </trkpt>
      <trkpt lat="46.96011" lon="8.58329">
        <ele>840</ele>
        <time>2021-08-10T09:45:01.752Z</time>
      </trkpt>
      <trkpt lat="46.9601" lon="8.58328">
        <ele>840</ele>
        <time>2021-08-10T09:45:02.752Z</time>
      </trkpt>
      <trkpt lat="46.96008" lon="8.58328">
        <ele>840</ele>
        <time>2021-08-10T09:45:03.753Z</time>
      </trkpt>
      <trkpt lat="46.96007" lon="8.58327">
        <ele>840</ele>
        <time>2021-08-10T09:45:04.752Z</time>
      </trkpt>
      <trkpt lat="46.96006" lon="8.58327">
        <ele>840</ele>
        <time>2021-08-10T09:45:05.753Z</time>
      </trkpt>
      <trkpt lat="46.96005" lon="8.58326">
        <ele>840</ele>
        <time>2021-08-10T09:45:06.753Z</time>
      </trkpt>
      <trkpt lat="46.96003" lon="8.58325">
        <ele>839</ele>
        <time>2021-08-10T09:45:07.753Z</time>
      </trkpt>
      <trkpt lat="46.96002" lon="8.58324">
        <ele>838</ele>
        <time>2021-08-10T09:45:08.752Z</time>
      </trkpt>
      <trkpt lat="46.96001" lon="8.58324">
        <ele>837</ele>
        <time>2021-08-10T09:45:09.752Z</time>
      </trkpt>
      <trkpt lat="46.96001" lon="8.58324">
        <ele>837</ele>
        <time>2021-08-10T09:45:10.752Z</time>
      </trkpt>
      <trkpt lat="46.96" lon="8.58323">
        <ele>836</ele>
        <time>2021-08-10T09:45:11.753Z</time>
      </trkpt>
      <trkpt lat="46.95999" lon="8.58323">
        <ele>836</ele>
        <time>2021-08-10T09:45:12.753Z</time>
      </trkpt>
      <trkpt lat="46.95998" lon="8.58322">
        <ele>835</ele>
        <time>2021-08-10T09:45:13.753Z</time>
      </trkpt>
      <trkpt lat="46.95997" lon="8.58322">
        <ele>835</ele>
        <time>2021-08-10T09:45:14.752Z</time>
      </trkpt>
      <trkpt lat="46.95996" lon="8.58321">
        <ele>835</ele>
        <time>2021-08-10T09:45:15.752Z</time>
      </trkpt>
      <trkpt lat="46.95995" lon="8.58321">
        <ele>834</ele>
        <time>2021-08-10T09:45:16.753Z</time>
      </trkpt>
      <trkpt lat="46.95994" lon="8.5832">
        <ele>834</ele>
        <time>2021-08-10T09:45:17.752Z</time>
      </trkpt>
      <trkpt lat="46.95994" lon="8.58319">
        <ele>833</ele>
        <time>2021-08-10T09:45:18.752Z</time>
      </trkpt>
      <trkpt lat="46.95993" lon="8.58318">
        <ele>832</ele>
        <time>2021-08-10T09:45:19.752Z</time>
      </trkpt>
      <trkpt lat="46.95992" lon="8.58317">
        <ele>831</ele>
        <time>2021-08-10T09:45:20.752Z</time>
      </trkpt>
      <trkpt lat="46.95991" lon="8.58316">
        <ele>831</ele>
        <time>2021-08-10T09:45:21.752Z</time>
      </trkpt>
      <trkpt lat="46.95991" lon="8.58316">
        <ele>830</ele>
        <time>2021-08-10T09:45:22.752Z</time>
      </trkpt>
      <trkpt lat="46.9599" lon="8.58315">
        <ele>830</ele>
        <time>2021-08-10T09:45:23.752Z</time>
      </trkpt>
      <trkpt lat="46.95989" lon="8.58314">
        <ele>830</ele>
        <time>2021-08-10T09:45:24.752Z</time>
      </trkpt>
      <trkpt lat="46.95988" lon="8.58314">
        <ele>830</ele>
        <time>2021-08-10T09:45:25.752Z</time>
      </trkpt>
      <trkpt lat="46.95987" lon="8.58313">
        <ele>830</ele>
        <time>2021-08-10T09:45:26.752Z</time>
      </trkpt>
      <trkpt lat="46.95986" lon="8.58313">
        <ele>830</ele>
        <time>2021-08-10T09:45:27.752Z</time>
      </trkpt>
      <trkpt lat="46.95985" lon="8.58312">
        <ele>830</ele>
        <time>2021-08-10T09:45:28.752Z</time>
      </trkpt>
      <trkpt lat="46.95985" lon="8.58311">
        <ele>829</ele>
        <time>2021-08-10T09:45:29.752Z</time>
      </trkpt>
      <trkpt lat="46.95984" lon="8.58311">
        <ele>829</ele>
        <time>2021-08-10T09:45:30.753Z</time>
      </trkpt>
      <trkpt lat="46.95984" lon="8.58311">
        <ele>830</ele>
        <time>2021-08-10T09:45:31.753Z</time>
      </trkpt>
      <trkpt lat="46.95983" lon="8.58313">
        <ele>830</ele>
        <time>2021-08-10T09:45:32.752Z</time>
      </trkpt>
      <trkpt lat="46.95983" lon="8.58314">
        <ele>831</ele>
        <time>2021-08-10T09:45:33.753Z</time>
      </trkpt>
      <trkpt lat="46.95983" lon="8.58312">
        <ele>831</ele>
        <time>2021-08-10T09:45:34.753Z</time>
      </trkpt>
      <trkpt lat="46.95982" lon="8.58311">
        <ele>832</ele>
        <time>2021-08-10T09:45:35.753Z</time>
      </trkpt>
      <trkpt lat="46.95982" lon="8.58311">
        <ele>832</ele>
        <time>2021-08-10T09:45:36.753Z</time>
      </trkpt>
      <trkpt lat="46.95981" lon="8.5831">
        <ele>832</ele>
        <time>2021-08-10T09:45:37.752Z</time>
      </trkpt>
      <trkpt lat="46.95981" lon="8.58309">
        <ele>832</ele>
        <time>2021-08-10T09:45:38.753Z</time>
      </trkpt>
      <trkpt lat="46.9598" lon="8.58308">
        <ele>832</ele>
        <time>2021-08-10T09:45:39.753Z</time>
      </trkpt>
      <trkpt lat="46.9598" lon="8.58307">
        <ele>832</ele>
        <time>2021-08-10T09:45:40.753Z</time>
      </trkpt>
      <trkpt lat="46.95979" lon="8.58306">
        <ele>832</ele>
        <time>2021-08-10T09:45:41.753Z</time>
      </trkpt>
      <trkpt lat="46.95979" lon="8.58305">
        <ele>833</ele>
        <time>2021-08-10T09:45:42.752Z</time>
      </trkpt>
      <trkpt lat="46.95978" lon="8.58304">
        <ele>833</ele>
        <time>2021-08-10T09:45:43.753Z</time>
      </trkpt>
      <trkpt lat="46.95977" lon="8.58303">
        <ele>833</ele>
        <time>2021-08-10T09:45:44.752Z</time>
      </trkpt>
      <trkpt lat="46.95976" lon="8.58303">
        <ele>833</ele>
        <time>2021-08-10T09:45:45.752Z</time>
      </trkpt>
      <trkpt lat="46.95975" lon="8.58302">
        <ele>833</ele>
        <time>2021-08-10T09:45:46.752Z</time>
      </trkpt>
      <trkpt lat="46.95974" lon="8.58302">
        <ele>833</ele>
        <time>2021-08-10T09:45:47.753Z</time>
      </trkpt>
      <trkpt lat="46.95973" lon="8.58301">
        <ele>833</ele>
        <time>2021-08-10T09:45:48.753Z</time>
      </trkpt>
      <trkpt lat="46.95973" lon="8.583">
        <ele>833</ele>
        <time>2021-08-10T09:45:49.752Z</time>
      </trkpt>
      <trkpt lat="46.95972" lon="8.58299">
        <ele>833</ele>
        <time>2021-08-10T09:45:50.753Z</time>
      </trkpt>
      <trkpt lat="46.95971" lon="8.58298">
        <ele>833</ele>
        <time>2021-08-10T09:45:51.753Z</time>
      </trkpt>
      <trkpt lat="46.9597" lon="8.58296">
        <ele>832</ele>
        <time>2021-08-10T09:45:52.753Z</time>
      </trkpt>
      <trkpt lat="46.95969" lon="8.58295">
        <ele>832</ele>
        <time>2021-08-10T09:45:53.753Z</time>
      </trkpt>
      <trkpt lat="46.95968" lon="8.58295">
        <ele>831</ele>
        <time>2021-08-10T09:45:54.752Z</time>
      </trkpt>
      <trkpt lat="46.95968" lon="8.58294">
        <ele>831</ele>
        <time>2021-08-10T09:45:55.752Z</time>
      </trkpt>
      <trkpt lat="46.95967" lon="8.58292">
        <ele>831</ele>
        <time>2021-08-10T09:45:56.752Z</time>
      </trkpt>
      <trkpt lat="46.95967" lon="8.58291">
        <ele>831</ele>
        <time>2021-08-10T09:45:57.753Z</time>
      </trkpt>
      <trkpt lat="46.95966" lon="8.5829">
        <ele>832</ele>
        <time>2021-08-10T09:45:58.752Z</time>
      </trkpt>
      <trkpt lat="46.95965" lon="8.58288">
        <ele>831</ele>
        <time>2021-08-10T09:45:59.752Z</time>
      </trkpt>
      <trkpt lat="46.95964" lon="8.58287">
        <ele>831</ele>
        <time>2021-08-10T09:46:00.753Z</time>
      </trkpt>
      <trkpt lat="46.95964" lon="8.58286">
        <ele>831</ele>
        <time>2021-08-10T09:46:01.752Z</time>
      </trkpt>
      <trkpt lat="46.95963" lon="8.58284">
        <ele>831</ele>
        <time>2021-08-10T09:46:02.752Z</time>
      </trkpt>
      <trkpt lat="46.95962" lon="8.58283">
        <ele>831</ele>
        <time>2021-08-10T09:46:03.752Z</time>
      </trkpt>
      <trkpt lat="46.95961" lon="8.58282">
        <ele>831</ele>
        <time>2021-08-10T09:46:04.752Z</time>
      </trkpt>
      <trkpt lat="46.95961" lon="8.58281">
        <ele>831</ele>
        <time>2021-08-10T09:46:05.752Z</time>
      </trkpt>
      <trkpt lat="46.9596" lon="8.5828">
        <ele>831</ele>
        <time>2021-08-10T09:46:06.752Z</time>
      </trkpt>
      <trkpt lat="46.95959" lon="8.58279">
        <ele>831</ele>
        <time>2021-08-10T09:46:07.752Z</time>
      </trkpt>
      <trkpt lat="46.95959" lon="8.58277">
        <ele>831</ele>
        <time>2021-08-10T09:46:08.752Z</time>
      </trkpt>
      <trkpt lat="46.95958" lon="8.58276">
        <ele>831</ele>
        <time>2021-08-10T09:46:09.752Z</time>
      </trkpt>
      <trkpt lat="46.95957" lon="8.58275">
        <ele>831</ele>
        <time>2021-08-10T09:46:10.752Z</time>
      </trkpt>
      <trkpt lat="46.95956" lon="8.58274">
        <ele>831</ele>
        <time>2021-08-10T09:46:11.753Z</time>
      </trkpt>
      <trkpt lat="46.95955" lon="8.58273">
        <ele>831</ele>
        <time>2021-08-10T09:46:12.752Z</time>
      </trkpt>
      <trkpt lat="46.95955" lon="8.58272">
        <ele>831</ele>
        <time>2021-08-10T09:46:13.753Z</time>
      </trkpt>
      <trkpt lat="46.95954" lon="8.58271">
        <ele>831</ele>
        <time>2021-08-10T09:46:14.752Z</time>
      </trkpt>
      <trkpt lat="46.95953" lon="8.5827">
        <ele>831</ele>
        <time>2021-08-10T09:46:15.753Z</time>
      </trkpt>
      <trkpt lat="46.95952" lon="8.58268">
        <ele>831</ele>
        <time>2021-08-10T09:46:16.752Z</time>
      </trkpt>
      <trkpt lat="46.95952" lon="8.58267">
        <ele>831</ele>
        <time>2021-08-10T09:46:17.752Z</time>
      </trkpt>
      <trkpt lat="46.95951" lon="8.58266">
        <ele>832</ele>
        <time>2021-08-10T09:46:18.752Z</time>
      </trkpt>
      <trkpt lat="46.9595" lon="8.58264">
        <ele>832</ele>
        <time>2021-08-10T09:46:19.753Z</time>
      </trkpt>
      <trkpt lat="46.95949" lon="8.58263">
        <ele>832</ele>
        <time>2021-08-10T09:46:20.753Z</time>
      </trkpt>
      <trkpt lat="46.95948" lon="8.58261">
        <ele>832</ele>
        <time>2021-08-10T09:46:21.752Z</time>
      </trkpt>
      <trkpt lat="46.95947" lon="8.5826">
        <ele>832</ele>
        <time>2021-08-10T09:46:22.753Z</time>
      </trkpt>
      <trkpt lat="46.95946" lon="8.58259">
        <ele>832</ele>
        <time>2021-08-10T09:46:23.753Z</time>
      </trkpt>
      <trkpt lat="46.95945" lon="8.58258">
        <ele>832</ele>
        <time>2021-08-10T09:46:24.753Z</time>
      </trkpt>
      <trkpt lat="46.95944" lon="8.58257">
        <ele>832</ele>
        <time>2021-08-10T09:46:25.752Z</time>
      </trkpt>
      <trkpt lat="46.95943" lon="8.58257">
        <ele>832</ele>
        <time>2021-08-10T09:46:26.753Z</time>
      </trkpt>
      <trkpt lat="46.95942" lon="8.58256">
        <ele>832</ele>
        <time>2021-08-10T09:46:27.753Z</time>
      </trkpt>
      <trkpt lat="46.95941" lon="8.58255">
        <ele>832</ele>
        <time>2021-08-10T09:46:28.752Z</time>
      </trkpt>
      <trkpt lat="46.9594" lon="8.58254">
        <ele>832</ele>
        <time>2021-08-10T09:46:29.752Z</time>
      </trkpt>
      <trkpt lat="46.95939" lon="8.58253">
        <ele>833</ele>
        <time>2021-08-10T09:46:30.753Z</time>
      </trkpt>
      <trkpt lat="46.95938" lon="8.58252">
        <ele>833</ele>
        <time>2021-08-10T09:46:31.752Z</time>
      </trkpt>
      <trkpt lat="46.95937" lon="8.58251">
        <ele>833</ele>
        <time>2021-08-10T09:46:32.753Z</time>
      </trkpt>
      <trkpt lat="46.95936" lon="8.5825">
        <ele>833</ele>
        <time>2021-08-10T09:46:33.752Z</time>
      </trkpt>
      <trkpt lat="46.95935" lon="8.58249">
        <ele>832</ele>
        <time>2021-08-10T09:46:34.752Z</time>
      </trkpt>
      <trkpt lat="46.95934" lon="8.58249">
        <ele>832</ele>
        <time>2021-08-10T09:46:35.753Z</time>
      </trkpt>
      <trkpt lat="46.95933" lon="8.58248">
        <ele>832</ele>
        <time>2021-08-10T09:46:36.752Z</time>
      </trkpt>
      <trkpt lat="46.95932" lon="8.58248">
        <ele>832</ele>
        <time>2021-08-10T09:46:37.752Z</time>
      </trkpt>
      <trkpt lat="46.95931" lon="8.58247">
        <ele>833</ele>
        <time>2021-08-10T09:46:38.752Z</time>
      </trkpt>
      <trkpt lat="46.9593" lon="8.58247">
        <ele>833</ele>
        <time>2021-08-10T09:46:39.752Z</time>
      </trkpt>
      <trkpt lat="46.95929" lon="8.58246">
        <ele>833</ele>
        <time>2021-08-10T09:46:40.753Z</time>
      </trkpt>
      <trkpt lat="46.95928" lon="8.58245">
        <ele>834</ele>
        <time>2021-08-10T09:46:41.752Z</time>
      </trkpt>
      <trkpt lat="46.95927" lon="8.58244">
        <ele>834</ele>
        <time>2021-08-10T09:46:42.753Z</time>
      </trkpt>
      <trkpt lat="46.95926" lon="8.58243">
        <ele>834</ele>
        <time>2021-08-10T09:46:43.753Z</time>
      </trkpt>
      <trkpt lat="46.95925" lon="8.58243">
        <ele>834</ele>
        <time>2021-08-10T09:46:44.753Z</time>
      </trkpt>
      <trkpt lat="46.95924" lon="8.58242">
        <ele>834</ele>
        <time>2021-08-10T09:46:45.752Z</time>
      </trkpt>
      <trkpt lat="46.95923" lon="8.58241">
        <ele>834</ele>
        <time>2021-08-10T09:46:46.752Z</time>
      </trkpt>
      <trkpt lat="46.95922" lon="8.5824">
        <ele>833</ele>
        <time>2021-08-10T09:46:47.752Z</time>
      </trkpt>
      <trkpt lat="46.95922" lon="8.58239">
        <ele>833</ele>
        <time>2021-08-10T09:46:48.753Z</time>
      </trkpt>
      <trkpt lat="46.95921" lon="8.58238">
        <ele>833</ele>
        <time>2021-08-10T09:46:49.752Z</time>
      </trkpt>
      <trkpt lat="46.95919" lon="8.58237">
        <ele>833</ele>
        <time>2021-08-10T09:46:50.753Z</time>
      </trkpt>
      <trkpt lat="46.95919" lon="8.58236">
        <ele>834</ele>
        <time>2021-08-10T09:46:51.753Z</time>
      </trkpt>
      <trkpt lat="46.95918" lon="8.58235">
        <ele>834</ele>
        <time>2021-08-10T09:46:52.752Z</time>
      </trkpt>
      <trkpt lat="46.95916" lon="8.58234">
        <ele>834</ele>
        <time>2021-08-10T09:46:53.753Z</time>
      </trkpt>
      <trkpt lat="46.95915" lon="8.58233">
        <ele>835</ele>
        <time>2021-08-10T09:46:54.752Z</time>
      </trkpt>
      <trkpt lat="46.95914" lon="8.58232">
        <ele>835</ele>
        <time>2021-08-10T09:46:55.753Z</time>
      </trkpt>
      <trkpt lat="46.95913" lon="8.58232">
        <ele>836</ele>
        <time>2021-08-10T09:46:56.752Z</time>
      </trkpt>
      <trkpt lat="46.95912" lon="8.58231">
        <ele>836</ele>
        <time>2021-08-10T09:46:57.752Z</time>
      </trkpt>
      <trkpt lat="46.9591" lon="8.58231">
        <ele>836</ele>
        <time>2021-08-10T09:46:58.753Z</time>
      </trkpt>
      <trkpt lat="46.95909" lon="8.58231">
        <ele>835</ele>
        <time>2021-08-10T09:46:59.752Z</time>
      </trkpt>
      <trkpt lat="46.95908" lon="8.5823">
        <ele>835</ele>
        <time>2021-08-10T09:47:00.752Z</time>
      </trkpt>
      <trkpt lat="46.95907" lon="8.5823">
        <ele>835</ele>
        <time>2021-08-10T09:47:01.752Z</time>
      </trkpt>
      <trkpt lat="46.95906" lon="8.58229">
        <ele>835</ele>
        <time>2021-08-10T09:47:02.752Z</time>
      </trkpt>
      <trkpt lat="46.95905" lon="8.58229">
        <ele>835</ele>
        <time>2021-08-10T09:47:03.753Z</time>
      </trkpt>
      <trkpt lat="46.95903" lon="8.58228">
        <ele>835</ele>
        <time>2021-08-10T09:47:04.753Z</time>
      </trkpt>
      <trkpt lat="46.95902" lon="8.58228">
        <ele>834</ele>
        <time>2021-08-10T09:47:05.752Z</time>
      </trkpt>
      <trkpt lat="46.95901" lon="8.58227">
        <ele>834</ele>
        <time>2021-08-10T09:47:06.753Z</time>
      </trkpt>
      <trkpt lat="46.959" lon="8.58226">
        <ele>834</ele>
        <time>2021-08-10T09:47:07.752Z</time>
      </trkpt>
      <trkpt lat="46.95898" lon="8.58226">
        <ele>834</ele>
        <time>2021-08-10T09:47:08.752Z</time>
      </trkpt>
      <trkpt lat="46.95897" lon="8.58225">
        <ele>835</ele>
        <time>2021-08-10T09:47:09.753Z</time>
      </trkpt>
      <trkpt lat="46.95896" lon="8.58224">
        <ele>835</ele>
        <time>2021-08-10T09:47:10.752Z</time>
      </trkpt>
      <trkpt lat="46.95895" lon="8.58223">
        <ele>835</ele>
        <time>2021-08-10T09:47:11.752Z</time>
      </trkpt>
      <trkpt lat="46.95894" lon="8.58223">
        <ele>835</ele>
        <time>2021-08-10T09:47:12.752Z</time>
      </trkpt>
      <trkpt lat="46.95893" lon="8.58223">
        <ele>836</ele>
        <time>2021-08-10T09:47:13.753Z</time>
      </trkpt>
      <trkpt lat="46.95892" lon="8.58223">
        <ele>835</ele>
        <time>2021-08-10T09:47:14.753Z</time>
      </trkpt>
      <trkpt lat="46.95892" lon="8.58223">
        <ele>835</ele>
        <time>2021-08-10T09:47:15.752Z</time>
      </trkpt>
      <trkpt lat="46.9589" lon="8.58223">
        <ele>835</ele>
        <time>2021-08-10T09:47:16.752Z</time>
      </trkpt>
      <trkpt lat="46.95889" lon="8.58223">
        <ele>835</ele>
        <time>2021-08-10T09:47:17.753Z</time>
      </trkpt>
      <trkpt lat="46.95888" lon="8.58223">
        <ele>835</ele>
        <time>2021-08-10T09:47:18.753Z</time>
      </trkpt>
      <trkpt lat="46.95887" lon="8.58223">
        <ele>834</ele>
        <time>2021-08-10T09:47:19.753Z</time>
      </trkpt>
      <trkpt lat="46.95886" lon="8.58223">
        <ele>834</ele>
        <time>2021-08-10T09:47:20.752Z</time>
      </trkpt>
      <trkpt lat="46.95885" lon="8.58223">
        <ele>834</ele>
        <time>2021-08-10T09:47:21.753Z</time>
      </trkpt>
      <trkpt lat="46.95884" lon="8.58223">
        <ele>833</ele>
        <time>2021-08-10T09:47:22.753Z</time>
      </trkpt>
      <trkpt lat="46.95882" lon="8.58222">
        <ele>833</ele>
        <time>2021-08-10T09:47:23.753Z</time>
      </trkpt>
      <trkpt lat="46.95881" lon="8.58222">
        <ele>832</ele>
        <time>2021-08-10T09:47:24.753Z</time>
      </trkpt>
      <trkpt lat="46.9588" lon="8.58222">
        <ele>832</ele>
        <time>2021-08-10T09:47:25.752Z</time>
      </trkpt>
      <trkpt lat="46.95879" lon="8.58221">
        <ele>832</ele>
        <time>2021-08-10T09:47:26.752Z</time>
      </trkpt>
      <trkpt lat="46.95878" lon="8.58221">
        <ele>832</ele>
        <time>2021-08-10T09:47:27.752Z</time>
      </trkpt>
      <trkpt lat="46.95877" lon="8.5822">
        <ele>832</ele>
        <time>2021-08-10T09:47:28.752Z</time>
      </trkpt>
      <trkpt lat="46.95876" lon="8.5822">
        <ele>832</ele>
        <time>2021-08-10T09:47:29.752Z</time>
      </trkpt>
      <trkpt lat="46.95874" lon="8.5822">
        <ele>832</ele>
        <time>2021-08-10T09:47:30.752Z</time>
      </trkpt>
      <trkpt lat="46.95873" lon="8.5822">
        <ele>832</ele>
        <time>2021-08-10T09:47:31.752Z</time>
      </trkpt>
      <trkpt lat="46.95872" lon="8.5822">
        <ele>832</ele>
        <time>2021-08-10T09:47:32.752Z</time>
      </trkpt>
      <trkpt lat="46.95871" lon="8.5822">
        <ele>831</ele>
        <time>2021-08-10T09:47:33.753Z</time>
      </trkpt>
      <trkpt lat="46.9587" lon="8.58219">
        <ele>831</ele>
        <time>2021-08-10T09:47:34.753Z</time>
      </trkpt>
      <trkpt lat="46.95869" lon="8.58219">
        <ele>831</ele>
        <time>2021-08-10T09:47:35.753Z</time>
      </trkpt>
      <trkpt lat="46.95868" lon="8.5822">
        <ele>831</ele>
        <time>2021-08-10T09:47:36.752Z</time>
      </trkpt>
      <trkpt lat="46.95867" lon="8.58219">
        <ele>831</ele>
        <time>2021-08-10T09:47:37.752Z</time>
      </trkpt>
      <trkpt lat="46.95865" lon="8.58219">
        <ele>831</ele>
        <time>2021-08-10T09:47:38.753Z</time>
      </trkpt>
      <trkpt lat="46.95865" lon="8.58219">
        <ele>831</ele>
        <time>2021-08-10T09:47:39.753Z</time>
      </trkpt>
      <trkpt lat="46.95863" lon="8.58218">
        <ele>831</ele>
        <time>2021-08-10T09:47:40.752Z</time>
      </trkpt>
      <trkpt lat="46.95862" lon="8.58217">
        <ele>831</ele>
        <time>2021-08-10T09:47:41.753Z</time>
      </trkpt>
      <trkpt lat="46.9586" lon="8.58217">
        <ele>831</ele>
        <time>2021-08-10T09:47:42.753Z</time>
      </trkpt>
      <trkpt lat="46.95859" lon="8.58216">
        <ele>831</ele>
        <time>2021-08-10T09:47:43.752Z</time>
      </trkpt>
      <trkpt lat="46.95858" lon="8.58216">
        <ele>831</ele>
        <time>2021-08-10T09:47:44.753Z</time>
      </trkpt>
      <trkpt lat="46.95857" lon="8.58216">
        <ele>831</ele>
        <time>2021-08-10T09:47:45.753Z</time>
      </trkpt>
      <trkpt lat="46.95856" lon="8.58216">
        <ele>831</ele>
        <time>2021-08-10T09:47:46.753Z</time>
      </trkpt>
      <trkpt lat="46.95855" lon="8.58216">
        <ele>831</ele>
        <time>2021-08-10T09:47:47.752Z</time>
      </trkpt>
      <trkpt lat="46.95853" lon="8.58216">
        <ele>831</ele>
        <time>2021-08-10T09:47:48.752Z</time>
      </trkpt>
      <trkpt lat="46.95852" lon="8.58215">
        <ele>832</ele>
        <time>2021-08-10T09:47:49.753Z</time>
      </trkpt>
      <trkpt lat="46.95851" lon="8.58215">
        <ele>832</ele>
        <time>2021-08-10T09:47:50.753Z</time>
      </trkpt>
      <trkpt lat="46.9585" lon="8.58215">
        <ele>832</ele>
        <time>2021-08-10T09:47:51.753Z</time>
      </trkpt>
      <trkpt lat="46.95848" lon="8.58215">
        <ele>832</ele>
        <time>2021-08-10T09:47:52.753Z</time>
      </trkpt>
      <trkpt lat="46.95847" lon="8.58214">
        <ele>832</ele>
        <time>2021-08-10T09:47:53.752Z</time>
      </trkpt>
      <trkpt lat="46.95846" lon="8.58214">
        <ele>833</ele>
        <time>2021-08-10T09:47:54.753Z</time>
      </trkpt>
      <trkpt lat="46.95844" lon="8.58214">
        <ele>833</ele>
        <time>2021-08-10T09:47:55.752Z</time>
      </trkpt>
      <trkpt lat="46.95843" lon="8.58213">
        <ele>833</ele>
        <time>2021-08-10T09:47:56.753Z</time>
      </trkpt>
      <trkpt lat="46.95842" lon="8.58213">
        <ele>833</ele>
        <time>2021-08-10T09:47:57.753Z</time>
      </trkpt>
      <trkpt lat="46.95841" lon="8.58213">
        <ele>833</ele>
        <time>2021-08-10T09:47:58.752Z</time>
      </trkpt>
      <trkpt lat="46.9584" lon="8.58212">
        <ele>833</ele>
        <time>2021-08-10T09:47:59.753Z</time>
      </trkpt>
      <trkpt lat="46.95839" lon="8.58212">
        <ele>834</ele>
        <time>2021-08-10T09:48:00.752Z</time>
      </trkpt>
      <trkpt lat="46.95837" lon="8.58212">
        <ele>834</ele>
        <time>2021-08-10T09:48:01.753Z</time>
      </trkpt>
      <trkpt lat="46.95836" lon="8.58212">
        <ele>834</ele>
        <time>2021-08-10T09:48:02.753Z</time>
      </trkpt>
      <trkpt lat="46.95835" lon="8.58213">
        <ele>834</ele>
        <time>2021-08-10T09:48:03.753Z</time>
      </trkpt>
      <trkpt lat="46.95833" lon="8.58213">
        <ele>834</ele>
        <time>2021-08-10T09:48:04.753Z</time>
      </trkpt>
      <trkpt lat="46.95832" lon="8.58213">
        <ele>834</ele>
        <time>2021-08-10T09:48:05.752Z</time>
      </trkpt>
      <trkpt lat="46.95831" lon="8.58213">
        <ele>835</ele>
        <time>2021-08-10T09:48:06.753Z</time>
      </trkpt>
      <trkpt lat="46.9583" lon="8.58213">
        <ele>835</ele>
        <time>2021-08-10T09:48:07.753Z</time>
      </trkpt>
      <trkpt lat="46.95829" lon="8.58212">
        <ele>835</ele>
        <time>2021-08-10T09:48:08.752Z</time>
      </trkpt>
      <trkpt lat="46.95828" lon="8.58211">
        <ele>835</ele>
        <time>2021-08-10T09:48:09.752Z</time>
      </trkpt>
      <trkpt lat="46.95826" lon="8.58211">
        <ele>834</ele>
        <time>2021-08-10T09:48:10.752Z</time>
      </trkpt>
      <trkpt lat="46.95825" lon="8.5821">
        <ele>834</ele>
        <time>2021-08-10T09:48:11.752Z</time>
      </trkpt>
      <trkpt lat="46.95824" lon="8.5821">
        <ele>834</ele>
        <time>2021-08-10T09:48:12.753Z</time>
      </trkpt>
      <trkpt lat="46.95823" lon="8.5821">
        <ele>835</ele>
        <time>2021-08-10T09:48:13.752Z</time>
      </trkpt>
      <trkpt lat="46.95822" lon="8.5821">
        <ele>835</ele>
        <time>2021-08-10T09:48:14.753Z</time>
      </trkpt>
      <trkpt lat="46.9582" lon="8.5821">
        <ele>835</ele>
        <time>2021-08-10T09:48:15.753Z</time>
      </trkpt>
      <trkpt lat="46.95819" lon="8.5821">
        <ele>835</ele>
        <time>2021-08-10T09:48:16.753Z</time>
      </trkpt>
      <trkpt lat="46.95818" lon="8.5821">
        <ele>835</ele>
        <time>2021-08-10T09:48:17.752Z</time>
      </trkpt>
      <trkpt lat="46.95817" lon="8.58209">
        <ele>835</ele>
        <time>2021-08-10T09:48:18.753Z</time>
      </trkpt>
      <trkpt lat="46.95816" lon="8.58208">
        <ele>834</ele>
        <time>2021-08-10T09:48:19.752Z</time>
      </trkpt>
      <trkpt lat="46.95815" lon="8.58207">
        <ele>834</ele>
        <time>2021-08-10T09:48:20.753Z</time>
      </trkpt>
      <trkpt lat="46.95815" lon="8.58207">
        <ele>834</ele>
        <time>2021-08-10T09:48:21.753Z</time>
      </trkpt>
      <trkpt lat="46.95814" lon="8.58206">
        <ele>834</ele>
        <time>2021-08-10T09:48:22.753Z</time>
      </trkpt>
      <trkpt lat="46.95814" lon="8.58206">
        <ele>834</ele>
        <time>2021-08-10T09:48:23.752Z</time>
      </trkpt>
      <trkpt lat="46.95814" lon="8.58207">
        <ele>834</ele>
        <time>2021-08-10T09:48:24.753Z</time>
      </trkpt>
      <trkpt lat="46.95814" lon="8.58206">
        <ele>834</ele>
        <time>2021-08-10T09:48:25.753Z</time>
      </trkpt>
      <trkpt lat="46.95815" lon="8.58206">
        <ele>833</ele>
        <time>2021-08-10T09:48:26.752Z</time>
      </trkpt>
      <trkpt lat="46.95815" lon="8.58208">
        <ele>833</ele>
        <time>2021-08-10T09:48:27.754Z</time>
      </trkpt>
      <trkpt lat="46.95815" lon="8.58208">
        <ele>833</ele>
        <time>2021-08-10T09:48:28.754Z</time>
      </trkpt>
      <trkpt lat="46.95815" lon="8.58209">
        <ele>833</ele>
        <time>2021-08-10T09:48:29.753Z</time>
      </trkpt>
      <trkpt lat="46.95815" lon="8.58209">
        <ele>833</ele>
        <time>2021-08-10T09:48:30.753Z</time>
      </trkpt>
      <trkpt lat="46.95816" lon="8.58208">
        <ele>833</ele>
        <time>2021-08-10T09:48:31.754Z</time>
      </trkpt>
      <trkpt lat="46.95817" lon="8.58207">
        <ele>836</ele>
        <time>2021-08-10T09:48:32.754Z</time>
      </trkpt>
      <trkpt lat="46.95818" lon="8.58207">
        <ele>836</ele>
        <time>2021-08-10T09:48:33.754Z</time>
      </trkpt>
      <trkpt lat="46.95818" lon="8.58207">
        <ele>836</ele>
        <time>2021-08-10T09:48:34.753Z</time>
      </trkpt>
      <trkpt lat="46.95818" lon="8.58207">
        <ele>836</ele>
        <time>2021-08-10T09:48:35.754Z</time>
      </trkpt>
      <trkpt lat="46.95818" lon="8.58207">
        <ele>836</ele>
        <time>2021-08-10T09:48:36.753Z</time>
      </trkpt>
      <trkpt lat="46.95818" lon="8.5821">
        <ele>837</ele>
        <time>2021-08-10T09:48:37.756Z</time>
      </trkpt>
      <trkpt lat="46.95818" lon="8.5821">
        <ele>838</ele>
        <time>2021-08-10T09:48:38.755Z</time>
      </trkpt>
      <trkpt lat="46.95818" lon="8.58208">
        <ele>839</ele>
        <time>2021-08-10T09:48:39.755Z</time>
      </trkpt>
      <trkpt lat="46.95816" lon="8.5821">
        <ele>834</ele>
        <time>2021-08-10T09:48:40.757Z</time>
      </trkpt>
      <trkpt lat="46.95815" lon="8.5821">
        <ele>833</ele>
        <time>2021-08-10T09:48:41.756Z</time>
      </trkpt>
      <trkpt lat="46.95814" lon="8.5821">
        <ele>833</ele>
        <time>2021-08-10T09:48:42.757Z</time>
      </trkpt>
      <trkpt lat="46.95813" lon="8.5821">
        <ele>834</ele>
        <time>2021-08-10T09:48:43.756Z</time>
      </trkpt>
      <trkpt lat="46.95812" lon="8.58211">
        <ele>834</ele>
        <time>2021-08-10T09:48:44.757Z</time>
      </trkpt>
      <trkpt lat="46.95811" lon="8.58212">
        <ele>834</ele>
        <time>2021-08-10T09:48:45.757Z</time>
      </trkpt>
      <trkpt lat="46.9581" lon="8.58213">
        <ele>834</ele>
        <time>2021-08-10T09:48:46.757Z</time>
      </trkpt>
      <trkpt lat="46.95809" lon="8.58213">
        <ele>834</ele>
        <time>2021-08-10T09:48:47.756Z</time>
      </trkpt>
      <trkpt lat="46.95808" lon="8.58214">
        <ele>834</ele>
        <time>2021-08-10T09:48:48.757Z</time>
      </trkpt>
      <trkpt lat="46.95807" lon="8.58214">
        <ele>834</ele>
        <time>2021-08-10T09:48:49.756Z</time>
      </trkpt>
      <trkpt lat="46.95806" lon="8.58215">
        <ele>834</ele>
        <time>2021-08-10T09:48:50.756Z</time>
      </trkpt>
      <trkpt lat="46.95804" lon="8.58215">
        <ele>834</ele>
        <time>2021-08-10T09:48:51.757Z</time>
      </trkpt>
      <trkpt lat="46.95803" lon="8.58215">
        <ele>834</ele>
        <time>2021-08-10T09:48:52.756Z</time>
      </trkpt>
      <trkpt lat="46.95802" lon="8.58215">
        <ele>835</ele>
        <time>2021-08-10T09:48:53.757Z</time>
      </trkpt>
      <trkpt lat="46.95801" lon="8.58215">
        <ele>835</ele>
        <time>2021-08-10T09:48:54.757Z</time>
      </trkpt>
      <trkpt lat="46.958" lon="8.58216">
        <ele>835</ele>
        <time>2021-08-10T09:48:55.757Z</time>
      </trkpt>
      <trkpt lat="46.95799" lon="8.58216">
        <ele>835</ele>
        <time>2021-08-10T09:48:56.757Z</time>
      </trkpt>
      <trkpt lat="46.95798" lon="8.58216">
        <ele>835</ele>
        <time>2021-08-10T09:48:57.757Z</time>
      </trkpt>
      <trkpt lat="46.95796" lon="8.58216">
        <ele>834</ele>
        <time>2021-08-10T09:48:58.756Z</time>
      </trkpt>
      <trkpt lat="46.95795" lon="8.58216">
        <ele>834</ele>
        <time>2021-08-10T09:48:59.756Z</time>
      </trkpt>
      <trkpt lat="46.95794" lon="8.58217">
        <ele>834</ele>
        <time>2021-08-10T09:49:00.756Z</time>
      </trkpt>
      <trkpt lat="46.95792" lon="8.58217">
        <ele>833</ele>
        <time>2021-08-10T09:49:01.757Z</time>
      </trkpt>
      <trkpt lat="46.95791" lon="8.58218">
        <ele>833</ele>
        <time>2021-08-10T09:49:02.757Z</time>
      </trkpt>
      <trkpt lat="46.9579" lon="8.58219">
        <ele>833</ele>
        <time>2021-08-10T09:49:03.757Z</time>
      </trkpt>
      <trkpt lat="46.95789" lon="8.5822">
        <ele>833</ele>
        <time>2021-08-10T09:49:04.757Z</time>
      </trkpt>
      <trkpt lat="46.95788" lon="8.58221">
        <ele>833</ele>
        <time>2021-08-10T09:49:05.757Z</time>
      </trkpt>
      <trkpt lat="46.95787" lon="8.58221">
        <ele>833</ele>
        <time>2021-08-10T09:49:06.756Z</time>
      </trkpt>
      <trkpt lat="46.95785" lon="8.58222">
        <ele>833</ele>
        <time>2021-08-10T09:49:07.757Z</time>
      </trkpt>
      <trkpt lat="46.95784" lon="8.58223">
        <ele>833</ele>
        <time>2021-08-10T09:49:08.757Z</time>
      </trkpt>
      <trkpt lat="46.95783" lon="8.58224">
        <ele>833</ele>
        <time>2021-08-10T09:49:09.757Z</time>
      </trkpt>
      <trkpt lat="46.95782" lon="8.58225">
        <ele>833</ele>
        <time>2021-08-10T09:49:10.756Z</time>
      </trkpt>
      <trkpt lat="46.95781" lon="8.58226">
        <ele>833</ele>
        <time>2021-08-10T09:49:11.757Z</time>
      </trkpt>
      <trkpt lat="46.9578" lon="8.58227">
        <ele>832</ele>
        <time>2021-08-10T09:49:12.757Z</time>
      </trkpt>
      <trkpt lat="46.95779" lon="8.58228">
        <ele>832</ele>
        <time>2021-08-10T09:49:13.756Z</time>
      </trkpt>
      <trkpt lat="46.95778" lon="8.58229">
        <ele>832</ele>
        <time>2021-08-10T09:49:14.757Z</time>
      </trkpt>
      <trkpt lat="46.95777" lon="8.5823">
        <ele>832</ele>
        <time>2021-08-10T09:49:15.757Z</time>
      </trkpt>
      <trkpt lat="46.95775" lon="8.5823">
        <ele>831</ele>
        <time>2021-08-10T09:49:16.756Z</time>
      </trkpt>
      <trkpt lat="46.95774" lon="8.58231">
        <ele>831</ele>
        <time>2021-08-10T09:49:17.757Z</time>
      </trkpt>
      <trkpt lat="46.95773" lon="8.58232">
        <ele>831</ele>
        <time>2021-08-10T09:49:18.757Z</time>
      </trkpt>
      <trkpt lat="46.95772" lon="8.58231">
        <ele>830</ele>
        <time>2021-08-10T09:49:19.756Z</time>
      </trkpt>
      <trkpt lat="46.95771" lon="8.58232">
        <ele>830</ele>
        <time>2021-08-10T09:49:20.756Z</time>
      </trkpt>
      <trkpt lat="46.95769" lon="8.58234">
        <ele>830</ele>
        <time>2021-08-10T09:49:21.757Z</time>
      </trkpt>
      <trkpt lat="46.95768" lon="8.58234">
        <ele>830</ele>
        <time>2021-08-10T09:49:22.757Z</time>
      </trkpt>
      <trkpt lat="46.95767" lon="8.58236">
        <ele>830</ele>
        <time>2021-08-10T09:49:23.757Z</time>
      </trkpt>
      <trkpt lat="46.95766" lon="8.58237">
        <ele>830</ele>
        <time>2021-08-10T09:49:24.756Z</time>
      </trkpt>
      <trkpt lat="46.95765" lon="8.58238">
        <ele>830</ele>
        <time>2021-08-10T09:49:25.757Z</time>
      </trkpt>
      <trkpt lat="46.95764" lon="8.58239">
        <ele>830</ele>
        <time>2021-08-10T09:49:26.756Z</time>
      </trkpt>
      <trkpt lat="46.95763" lon="8.5824">
        <ele>830</ele>
        <time>2021-08-10T09:49:27.757Z</time>
      </trkpt>
      <trkpt lat="46.95762" lon="8.58242">
        <ele>831</ele>
        <time>2021-08-10T09:49:28.757Z</time>
      </trkpt>
      <trkpt lat="46.9576" lon="8.58243">
        <ele>831</ele>
        <time>2021-08-10T09:49:29.756Z</time>
      </trkpt>
      <trkpt lat="46.95759" lon="8.58244">
        <ele>832</ele>
        <time>2021-08-10T09:49:30.757Z</time>
      </trkpt>
      <trkpt lat="46.95759" lon="8.58246">
        <ele>832</ele>
        <time>2021-08-10T09:49:31.757Z</time>
      </trkpt>
      <trkpt lat="46.95758" lon="8.58248">
        <ele>832</ele>
        <time>2021-08-10T09:49:32.756Z</time>
      </trkpt>
      <trkpt lat="46.95757" lon="8.5825">
        <ele>832</ele>
        <time>2021-08-10T09:49:33.757Z</time>
      </trkpt>
      <trkpt lat="46.95756" lon="8.58251">
        <ele>832</ele>
        <time>2021-08-10T09:49:34.756Z</time>
      </trkpt>
      <trkpt lat="46.95755" lon="8.58252">
        <ele>831</ele>
        <time>2021-08-10T09:49:35.757Z</time>
      </trkpt>
      <trkpt lat="46.95754" lon="8.58253">
        <ele>831</ele>
        <time>2021-08-10T09:49:36.757Z</time>
      </trkpt>
      <trkpt lat="46.95753" lon="8.58256">
        <ele>831</ele>
        <time>2021-08-10T09:49:37.757Z</time>
      </trkpt>
      <trkpt lat="46.95752" lon="8.58257">
        <ele>830</ele>
        <time>2021-08-10T09:49:38.757Z</time>
      </trkpt>
      <trkpt lat="46.95751" lon="8.58259">
        <ele>829</ele>
        <time>2021-08-10T09:49:39.756Z</time>
      </trkpt>
      <trkpt lat="46.9575" lon="8.5826">
        <ele>829</ele>
        <time>2021-08-10T09:49:40.756Z</time>
      </trkpt>
      <trkpt lat="46.95749" lon="8.58262">
        <ele>829</ele>
        <time>2021-08-10T09:49:41.757Z</time>
      </trkpt>
      <trkpt lat="46.95748" lon="8.58263">
        <ele>828</ele>
        <time>2021-08-10T09:49:42.756Z</time>
      </trkpt>
      <trkpt lat="46.95747" lon="8.58264">
        <ele>828</ele>
        <time>2021-08-10T09:49:43.756Z</time>
      </trkpt>
      <trkpt lat="46.95746" lon="8.58265">
        <ele>827</ele>
        <time>2021-08-10T09:49:44.756Z</time>
      </trkpt>
      <trkpt lat="46.95745" lon="8.58266">
        <ele>827</ele>
        <time>2021-08-10T09:49:45.756Z</time>
      </trkpt>
      <trkpt lat="46.95744" lon="8.58268">
        <ele>826</ele>
        <time>2021-08-10T09:49:46.757Z</time>
      </trkpt>
      <trkpt lat="46.95743" lon="8.58268">
        <ele>826</ele>
        <time>2021-08-10T09:49:47.756Z</time>
      </trkpt>
      <trkpt lat="46.95742" lon="8.5827">
        <ele>826</ele>
        <time>2021-08-10T09:49:48.756Z</time>
      </trkpt>
      <trkpt lat="46.95742" lon="8.58271">
        <ele>825</ele>
        <time>2021-08-10T09:49:49.756Z</time>
      </trkpt>
      <trkpt lat="46.95741" lon="8.58272">
        <ele>825</ele>
        <time>2021-08-10T09:49:50.756Z</time>
      </trkpt>
      <trkpt lat="46.9574" lon="8.58273">
        <ele>825</ele>
        <time>2021-08-10T09:49:51.756Z</time>
      </trkpt>
      <trkpt lat="46.95739" lon="8.58274">
        <ele>825</ele>
        <time>2021-08-10T09:49:52.756Z</time>
      </trkpt>
      <trkpt lat="46.95738" lon="8.58276">
        <ele>825</ele>
        <time>2021-08-10T09:49:53.756Z</time>
      </trkpt>
      <trkpt lat="46.95737" lon="8.58277">
        <ele>825</ele>
        <time>2021-08-10T09:49:54.756Z</time>
      </trkpt>
      <trkpt lat="46.95736" lon="8.58277">
        <ele>825</ele>
        <time>2021-08-10T09:49:55.756Z</time>
      </trkpt>
      <trkpt lat="46.95734" lon="8.58277">
        <ele>826</ele>
        <time>2021-08-10T09:49:56.756Z</time>
      </trkpt>
      <trkpt lat="46.95732" lon="8.58278">
        <ele>826</ele>
        <time>2021-08-10T09:49:57.756Z</time>
      </trkpt>
      <trkpt lat="46.95731" lon="8.58279">
        <ele>826</ele>
        <time>2021-08-10T09:49:58.757Z</time>
      </trkpt>
      <trkpt lat="46.9573" lon="8.5828">
        <ele>826</ele>
        <time>2021-08-10T09:49:59.756Z</time>
      </trkpt>
      <trkpt lat="46.9573" lon="8.58282">
        <ele>825</ele>
        <time>2021-08-10T09:50:00.756Z</time>
      </trkpt>
      <trkpt lat="46.95729" lon="8.58283">
        <ele>824</ele>
        <time>2021-08-10T09:50:01.756Z</time>
      </trkpt>
      <trkpt lat="46.95729" lon="8.58284">
        <ele>823</ele>
        <time>2021-08-10T09:50:02.757Z</time>
      </trkpt>
      <trkpt lat="46.95727" lon="8.58285">
        <ele>822</ele>
        <time>2021-08-10T09:50:03.756Z</time>
      </trkpt>
      <trkpt lat="46.95726" lon="8.58286">
        <ele>821</ele>
        <time>2021-08-10T09:50:04.757Z</time>
      </trkpt>
      <trkpt lat="46.95726" lon="8.58288">
        <ele>820</ele>
        <time>2021-08-10T09:50:05.756Z</time>
      </trkpt>
      <trkpt lat="46.95725" lon="8.58289">
        <ele>819</ele>
        <time>2021-08-10T09:50:06.757Z</time>
      </trkpt>
      <trkpt lat="46.95724" lon="8.5829">
        <ele>818</ele>
        <time>2021-08-10T09:50:07.757Z</time>
      </trkpt>
      <trkpt lat="46.95723" lon="8.58291">
        <ele>818</ele>
        <time>2021-08-10T09:50:08.756Z</time>
      </trkpt>
      <trkpt lat="46.95722" lon="8.58293">
        <ele>818</ele>
        <time>2021-08-10T09:50:09.756Z</time>
      </trkpt>
      <trkpt lat="46.95722" lon="8.58294">
        <ele>818</ele>
        <time>2021-08-10T09:50:10.756Z</time>
      </trkpt>
      <trkpt lat="46.95721" lon="8.58294">
        <ele>818</ele>
        <time>2021-08-10T09:50:11.756Z</time>
      </trkpt>
      <trkpt lat="46.95721" lon="8.58295">
        <ele>818</ele>
        <time>2021-08-10T09:50:12.756Z</time>
      </trkpt>
      <trkpt lat="46.9572" lon="8.58296">
        <ele>819</ele>
        <time>2021-08-10T09:50:13.756Z</time>
      </trkpt>
      <trkpt lat="46.9572" lon="8.58296">
        <ele>819</ele>
        <time>2021-08-10T09:50:14.756Z</time>
      </trkpt>
      <trkpt lat="46.95719" lon="8.58296">
        <ele>819</ele>
        <time>2021-08-10T09:50:15.757Z</time>
      </trkpt>
      <trkpt lat="46.95718" lon="8.58296">
        <ele>819</ele>
        <time>2021-08-10T09:50:16.756Z</time>
      </trkpt>
      <trkpt lat="46.95716" lon="8.58296">
        <ele>819</ele>
        <time>2021-08-10T09:50:17.756Z</time>
      </trkpt>
      <trkpt lat="46.95716" lon="8.58296">
        <ele>819</ele>
        <time>2021-08-10T09:50:18.757Z</time>
      </trkpt>
      <trkpt lat="46.95715" lon="8.58294">
        <ele>819</ele>
        <time>2021-08-10T09:50:19.756Z</time>
      </trkpt>
      <trkpt lat="46.95714" lon="8.58293">
        <ele>819</ele>
        <time>2021-08-10T09:50:20.756Z</time>
      </trkpt>
      <trkpt lat="46.95712" lon="8.58292">
        <ele>819</ele>
        <time>2021-08-10T09:50:21.756Z</time>
      </trkpt>
      <trkpt lat="46.95711" lon="8.58291">
        <ele>818</ele>
        <time>2021-08-10T09:50:22.756Z</time>
      </trkpt>
      <trkpt lat="46.9571" lon="8.58291">
        <ele>818</ele>
        <time>2021-08-10T09:50:23.757Z</time>
      </trkpt>
      <trkpt lat="46.95709" lon="8.58291">
        <ele>818</ele>
        <time>2021-08-10T09:50:24.757Z</time>
      </trkpt>
      <trkpt lat="46.95708" lon="8.58292">
        <ele>819</ele>
        <time>2021-08-10T09:50:25.756Z</time>
      </trkpt>
      <trkpt lat="46.95706" lon="8.58292">
        <ele>819</ele>
        <time>2021-08-10T09:50:26.757Z</time>
      </trkpt>
      <trkpt lat="46.95704" lon="8.58292">
        <ele>820</ele>
        <time>2021-08-10T09:50:27.756Z</time>
      </trkpt>
      <trkpt lat="46.95703" lon="8.58292">
        <ele>821</ele>
        <time>2021-08-10T09:50:28.756Z</time>
      </trkpt>
      <trkpt lat="46.95702" lon="8.58292">
        <ele>822</ele>
        <time>2021-08-10T09:50:29.757Z</time>
      </trkpt>
      <trkpt lat="46.95701" lon="8.58293">
        <ele>822</ele>
        <time>2021-08-10T09:50:30.757Z</time>
      </trkpt>
      <trkpt lat="46.95699" lon="8.58293">
        <ele>823</ele>
        <time>2021-08-10T09:50:31.756Z</time>
      </trkpt>
      <trkpt lat="46.95698" lon="8.58292">
        <ele>823</ele>
        <time>2021-08-10T09:50:32.756Z</time>
      </trkpt>
      <trkpt lat="46.95697" lon="8.58293">
        <ele>824</ele>
        <time>2021-08-10T09:50:33.756Z</time>
      </trkpt>
      <trkpt lat="46.95696" lon="8.58294">
        <ele>824</ele>
        <time>2021-08-10T09:50:34.756Z</time>
      </trkpt>
      <trkpt lat="46.95696" lon="8.58296">
        <ele>824</ele>
        <time>2021-08-10T09:50:35.757Z</time>
      </trkpt>
      <trkpt lat="46.95695" lon="8.58297">
        <ele>825</ele>
        <time>2021-08-10T09:50:36.757Z</time>
      </trkpt>
      <trkpt lat="46.95694" lon="8.58296">
        <ele>825</ele>
        <time>2021-08-10T09:50:37.756Z</time>
      </trkpt>
      <trkpt lat="46.95694" lon="8.58297">
        <ele>826</ele>
        <time>2021-08-10T09:50:38.756Z</time>
      </trkpt>
      <trkpt lat="46.95693" lon="8.58297">
        <ele>826</ele>
        <time>2021-08-10T09:50:39.757Z</time>
      </trkpt>
      <trkpt lat="46.95693" lon="8.58298">
        <ele>827</ele>
        <time>2021-08-10T09:50:40.756Z</time>
      </trkpt>
      <trkpt lat="46.95694" lon="8.58297">
        <ele>827</ele>
        <time>2021-08-10T09:50:41.757Z</time>
      </trkpt>
      <trkpt lat="46.95694" lon="8.58297">
        <ele>828</ele>
        <time>2021-08-10T09:50:42.757Z</time>
      </trkpt>
      <trkpt lat="46.95694" lon="8.58297">
        <ele>828</ele>
        <time>2021-08-10T09:50:43.756Z</time>
      </trkpt>
      <trkpt lat="46.95694" lon="8.58297">
        <ele>829</ele>
        <time>2021-08-10T09:50:44.757Z</time>
      </trkpt>
      <trkpt lat="46.95693" lon="8.58297">
        <ele>829</ele>
        <time>2021-08-10T09:50:45.756Z</time>
      </trkpt>
      <trkpt lat="46.95692" lon="8.58298">
        <ele>830</ele>
        <time>2021-08-10T09:50:46.757Z</time>
      </trkpt>
      <trkpt lat="46.95691" lon="8.58298">
        <ele>830</ele>
        <time>2021-08-10T09:50:47.757Z</time>
      </trkpt>
      <trkpt lat="46.9569" lon="8.58298">
        <ele>830</ele>
        <time>2021-08-10T09:50:48.756Z</time>
      </trkpt>
      <trkpt lat="46.95689" lon="8.58298">
        <ele>830</ele>
        <time>2021-08-10T09:50:49.757Z</time>
      </trkpt>
      <trkpt lat="46.95688" lon="8.58298">
        <ele>831</ele>
        <time>2021-08-10T09:50:50.756Z</time>
      </trkpt>
      <trkpt lat="46.95687" lon="8.58298">
        <ele>831</ele>
        <time>2021-08-10T09:50:51.756Z</time>
      </trkpt>
      <trkpt lat="46.95687" lon="8.58298">
        <ele>831</ele>
        <time>2021-08-10T09:50:52.757Z</time>
      </trkpt>
      <trkpt lat="46.95686" lon="8.58297">
        <ele>831</ele>
        <time>2021-08-10T09:50:53.757Z</time>
      </trkpt>
      <trkpt lat="46.95685" lon="8.58297">
        <ele>831</ele>
        <time>2021-08-10T09:50:54.756Z</time>
      </trkpt>
      <trkpt lat="46.95684" lon="8.58296">
        <ele>831</ele>
        <time>2021-08-10T09:50:55.756Z</time>
      </trkpt>
      <trkpt lat="46.95683" lon="8.58296">
        <ele>831</ele>
        <time>2021-08-10T09:50:56.756Z</time>
      </trkpt>
      <trkpt lat="46.95683" lon="8.58296">
        <ele>832</ele>
        <time>2021-08-10T09:50:57.757Z</time>
      </trkpt>
      <trkpt lat="46.95682" lon="8.58295">
        <ele>832</ele>
        <time>2021-08-10T09:50:58.757Z</time>
      </trkpt>
      <trkpt lat="46.95682" lon="8.58296">
        <ele>832</ele>
        <time>2021-08-10T09:50:59.757Z</time>
      </trkpt>
      <trkpt lat="46.95682" lon="8.58298">
        <ele>833</ele>
        <time>2021-08-10T09:51:00.756Z</time>
      </trkpt>
      <trkpt lat="46.95681" lon="8.58301">
        <ele>833</ele>
        <time>2021-08-10T09:51:01.757Z</time>
      </trkpt>
      <trkpt lat="46.9568" lon="8.583">
        <ele>832</ele>
        <time>2021-08-10T09:51:02.756Z</time>
      </trkpt>
      <trkpt lat="46.9568" lon="8.583">
        <ele>833</ele>
        <time>2021-08-10T09:51:03.757Z</time>
      </trkpt>
      <trkpt lat="46.95679" lon="8.58299">
        <ele>834</ele>
        <time>2021-08-10T09:51:04.756Z</time>
      </trkpt>
      <trkpt lat="46.95679" lon="8.58298">
        <ele>834</ele>
        <time>2021-08-10T09:51:05.757Z</time>
      </trkpt>
      <trkpt lat="46.95678" lon="8.58298">
        <ele>835</ele>
        <time>2021-08-10T09:51:06.756Z</time>
      </trkpt>
      <trkpt lat="46.95677" lon="8.58297">
        <ele>836</ele>
        <time>2021-08-10T09:51:07.757Z</time>
      </trkpt>
      <trkpt lat="46.95677" lon="8.58297">
        <ele>837</ele>
        <time>2021-08-10T09:51:08.756Z</time>
      </trkpt>
      <trkpt lat="46.95676" lon="8.58296">
        <ele>837</ele>
        <time>2021-08-10T09:51:09.757Z</time>
      </trkpt>
      <trkpt lat="46.95676" lon="8.58296">
        <ele>838</ele>
        <time>2021-08-10T09:51:10.756Z</time>
      </trkpt>
      <trkpt lat="46.95675" lon="8.58296">
        <ele>838</ele>
        <time>2021-08-10T09:51:11.757Z</time>
      </trkpt>
      <trkpt lat="46.95674" lon="8.58295">
        <ele>839</ele>
        <time>2021-08-10T09:51:12.757Z</time>
      </trkpt>
      <trkpt lat="46.95673" lon="8.58295">
        <ele>839</ele>
        <time>2021-08-10T09:51:13.757Z</time>
      </trkpt>
      <trkpt lat="46.95673" lon="8.58295">
        <ele>839</ele>
        <time>2021-08-10T09:51:14.756Z</time>
      </trkpt>
      <trkpt lat="46.95672" lon="8.58295">
        <ele>839</ele>
        <time>2021-08-10T09:51:15.756Z</time>
      </trkpt>
      <trkpt lat="46.95672" lon="8.58294">
        <ele>839</ele>
        <time>2021-08-10T09:51:16.756Z</time>
      </trkpt>
      <trkpt lat="46.95672" lon="8.58295">
        <ele>839</ele>
        <time>2021-08-10T09:51:17.756Z</time>
      </trkpt>
      <trkpt lat="46.95672" lon="8.58296">
        <ele>839</ele>
        <time>2021-08-10T09:51:18.756Z</time>
      </trkpt>
      <trkpt lat="46.95672" lon="8.58295">
        <ele>838</ele>
        <time>2021-08-10T09:51:19.757Z</time>
      </trkpt>
      <trkpt lat="46.95672" lon="8.58294">
        <ele>839</ele>
        <time>2021-08-10T09:51:20.756Z</time>
      </trkpt>
      <trkpt lat="46.95672" lon="8.58293">
        <ele>839</ele>
        <time>2021-08-10T09:51:21.757Z</time>
      </trkpt>
      <trkpt lat="46.95671" lon="8.58292">
        <ele>839</ele>
        <time>2021-08-10T09:51:22.757Z</time>
      </trkpt>
      <trkpt lat="46.9567" lon="8.58293">
        <ele>840</ele>
        <time>2021-08-10T09:51:23.757Z</time>
      </trkpt>
      <trkpt lat="46.9567" lon="8.58292">
        <ele>840</ele>
        <time>2021-08-10T09:51:24.757Z</time>
      </trkpt>
      <trkpt lat="46.95669" lon="8.58292">
        <ele>840</ele>
        <time>2021-08-10T09:51:25.756Z</time>
      </trkpt>
      <trkpt lat="46.95669" lon="8.58292">
        <ele>840</ele>
        <time>2021-08-10T09:51:26.756Z</time>
      </trkpt>
      <trkpt lat="46.95668" lon="8.58293">
        <ele>840</ele>
        <time>2021-08-10T09:51:27.756Z</time>
      </trkpt>
      <trkpt lat="46.95667" lon="8.58293">
        <ele>840</ele>
        <time>2021-08-10T09:51:28.757Z</time>
      </trkpt>
      <trkpt lat="46.95666" lon="8.58294">
        <ele>840</ele>
        <time>2021-08-10T09:51:29.757Z</time>
      </trkpt>
      <trkpt lat="46.95666" lon="8.58295">
        <ele>841</ele>
        <time>2021-08-10T09:51:30.756Z</time>
      </trkpt>
      <trkpt lat="46.95666" lon="8.58295">
        <ele>841</ele>
        <time>2021-08-10T09:51:31.757Z</time>
      </trkpt>
      <trkpt lat="46.95667" lon="8.58295">
        <ele>841</ele>
        <time>2021-08-10T09:51:32.757Z</time>
      </trkpt>
      <trkpt lat="46.95667" lon="8.58296">
        <ele>841</ele>
        <time>2021-08-10T09:51:33.757Z</time>
      </trkpt>
      <trkpt lat="46.95667" lon="8.58297">
        <ele>841</ele>
        <time>2021-08-10T09:51:34.757Z</time>
      </trkpt>
      <trkpt lat="46.95667" lon="8.58298">
        <ele>841</ele>
        <time>2021-08-10T09:51:35.757Z</time>
      </trkpt>
      <trkpt lat="46.95667" lon="8.58299">
        <ele>840</ele>
        <time>2021-08-10T09:51:36.757Z</time>
      </trkpt>
      <trkpt lat="46.95667" lon="8.58299">
        <ele>840</ele>
        <time>2021-08-10T09:51:37.756Z</time>
      </trkpt>
      <trkpt lat="46.95667" lon="8.583">
        <ele>839</ele>
        <time>2021-08-10T09:51:38.757Z</time>
      </trkpt>
      <trkpt lat="46.95667" lon="8.58301">
        <ele>839</ele>
        <time>2021-08-10T09:51:39.756Z</time>
      </trkpt>
      <trkpt lat="46.95667" lon="8.58302">
        <ele>839</ele>
        <time>2021-08-10T09:51:40.756Z</time>
      </trkpt>
      <trkpt lat="46.95667" lon="8.58302">
        <ele>839</ele>
        <time>2021-08-10T09:51:41.757Z</time>
      </trkpt>
      <trkpt lat="46.95667" lon="8.58303">
        <ele>839</ele>
        <time>2021-08-10T09:51:42.757Z</time>
      </trkpt>
      <trkpt lat="46.95667" lon="8.58304">
        <ele>839</ele>
        <time>2021-08-10T09:51:43.757Z</time>
      </trkpt>
      <trkpt lat="46.95667" lon="8.58304">
        <ele>839</ele>
        <time>2021-08-10T09:51:44.757Z</time>
      </trkpt>
      <trkpt lat="46.95668" lon="8.58304">
        <ele>838</ele>
        <time>2021-08-10T09:51:45.756Z</time>
      </trkpt>
      <trkpt lat="46.95668" lon="8.58305">
        <ele>838</ele>
        <time>2021-08-10T09:51:46.757Z</time>
      </trkpt>
      <trkpt lat="46.95669" lon="8.58305">
        <ele>837</ele>
        <time>2021-08-10T09:51:47.757Z</time>
      </trkpt>
      <trkpt lat="46.95668" lon="8.58306">
        <ele>838</ele>
        <time>2021-08-10T09:51:48.758Z</time>
      </trkpt>
      <trkpt lat="46.95667" lon="8.58307">
        <ele>842</ele>
        <time>2021-08-10T09:51:49.759Z</time>
      </trkpt>
      <trkpt lat="46.95667" lon="8.58307">
        <ele>842</ele>
        <time>2021-08-10T09:51:50.759Z</time>
      </trkpt>
      <trkpt lat="46.95667" lon="8.58308">
        <ele>842</ele>
        <time>2021-08-10T09:51:51.759Z</time>
      </trkpt>
      <trkpt lat="46.95667" lon="8.58308">
        <ele>842</ele>
        <time>2021-08-10T09:51:52.759Z</time>
      </trkpt>
      <trkpt lat="46.95668" lon="8.58308">
        <ele>843</ele>
        <time>2021-08-10T09:51:53.759Z</time>
      </trkpt>
      <trkpt lat="46.95668" lon="8.58309">
        <ele>843</ele>
        <time>2021-08-10T09:51:54.760Z</time>
      </trkpt>
      <trkpt lat="46.95668" lon="8.58311">
        <ele>843</ele>
        <time>2021-08-10T09:51:55.760Z</time>
      </trkpt>
      <trkpt lat="46.95668" lon="8.58312">
        <ele>843</ele>
        <time>2021-08-10T09:51:56.760Z</time>
      </trkpt>
      <trkpt lat="46.95668" lon="8.58313">
        <ele>843</ele>
        <time>2021-08-10T09:51:57.760Z</time>
      </trkpt>
      <trkpt lat="46.95669" lon="8.58314">
        <ele>842</ele>
        <time>2021-08-10T09:51:58.760Z</time>
      </trkpt>
      <trkpt lat="46.95669" lon="8.58314">
        <ele>843</ele>
        <time>2021-08-10T09:51:59.760Z</time>
      </trkpt>
      <trkpt lat="46.9567" lon="8.58315">
        <ele>843</ele>
        <time>2021-08-10T09:52:00.760Z</time>
      </trkpt>
      <trkpt lat="46.9567" lon="8.58316">
        <ele>842</ele>
        <time>2021-08-10T09:52:01.759Z</time>
      </trkpt>
      <trkpt lat="46.9567" lon="8.58317">
        <ele>842</ele>
        <time>2021-08-10T09:52:02.759Z</time>
      </trkpt>
      <trkpt lat="46.9567" lon="8.58318">
        <ele>842</ele>
        <time>2021-08-10T09:52:03.760Z</time>
      </trkpt>
      <trkpt lat="46.95671" lon="8.58319">
        <ele>842</ele>
        <time>2021-08-10T09:52:04.760Z</time>
      </trkpt>
      <trkpt lat="46.95671" lon="8.5832">
        <ele>842</ele>
        <time>2021-08-10T09:52:05.759Z</time>
      </trkpt>
      <trkpt lat="46.95671" lon="8.58321">
        <ele>842</ele>
        <time>2021-08-10T09:52:06.759Z</time>
      </trkpt>
      <trkpt lat="46.95671" lon="8.58322">
        <ele>842</ele>
        <time>2021-08-10T09:52:07.760Z</time>
      </trkpt>
      <trkpt lat="46.95671" lon="8.58323">
        <ele>842</ele>
        <time>2021-08-10T09:52:08.760Z</time>
      </trkpt>
      <trkpt lat="46.95671" lon="8.58323">
        <ele>842</ele>
        <time>2021-08-10T09:52:09.759Z</time>
      </trkpt>
      <trkpt lat="46.95672" lon="8.58324">
        <ele>842</ele>
        <time>2021-08-10T09:52:10.760Z</time>
      </trkpt>
      <trkpt lat="46.95672" lon="8.58324">
        <ele>842</ele>
        <time>2021-08-10T09:52:11.760Z</time>
      </trkpt>
      <trkpt lat="46.95672" lon="8.58325">
        <ele>842</ele>
        <time>2021-08-10T09:52:12.759Z</time>
      </trkpt>
      <trkpt lat="46.95673" lon="8.58327">
        <ele>842</ele>
        <time>2021-08-10T09:52:13.760Z</time>
      </trkpt>
      <trkpt lat="46.95672" lon="8.58329">
        <ele>842</ele>
        <time>2021-08-10T09:52:14.760Z</time>
      </trkpt>
      <trkpt lat="46.95672" lon="8.58329">
        <ele>842</ele>
        <time>2021-08-10T09:52:15.760Z</time>
      </trkpt>
      <trkpt lat="46.95673" lon="8.58332">
        <ele>842</ele>
        <time>2021-08-10T09:52:16.761Z</time>
      </trkpt>
      <trkpt lat="46.95673" lon="8.58332">
        <ele>842</ele>
        <time>2021-08-10T09:52:17.760Z</time>
      </trkpt>
      <trkpt lat="46.95673" lon="8.58333">
        <ele>842</ele>
        <time>2021-08-10T09:52:18.761Z</time>
      </trkpt>
      <trkpt lat="46.95673" lon="8.58334">
        <ele>842</ele>
        <time>2021-08-10T09:52:19.760Z</time>
      </trkpt>
      <trkpt lat="46.95673" lon="8.58335">
        <ele>842</ele>
        <time>2021-08-10T09:52:20.760Z</time>
      </trkpt>
      <trkpt lat="46.95673" lon="8.58336">
        <ele>842</ele>
        <time>2021-08-10T09:52:21.761Z</time>
      </trkpt>
      <trkpt lat="46.95673" lon="8.58338">
        <ele>842</ele>
        <time>2021-08-10T09:52:22.760Z</time>
      </trkpt>
      <trkpt lat="46.95672" lon="8.5834">
        <ele>842</ele>
        <time>2021-08-10T09:52:23.760Z</time>
      </trkpt>
      <trkpt lat="46.9567" lon="8.58341">
        <ele>842</ele>
        <time>2021-08-10T09:52:24.760Z</time>
      </trkpt>
      <trkpt lat="46.95669" lon="8.58343">
        <ele>842</ele>
        <time>2021-08-10T09:52:25.761Z</time>
      </trkpt>
      <trkpt lat="46.95669" lon="8.58343">
        <ele>842</ele>
        <time>2021-08-10T09:52:26.761Z</time>
      </trkpt>
      <trkpt lat="46.95669" lon="8.58344">
        <ele>841</ele>
        <time>2021-08-10T09:52:27.761Z</time>
      </trkpt>
      <trkpt lat="46.95669" lon="8.58345">
        <ele>841</ele>
        <time>2021-08-10T09:52:28.761Z</time>
      </trkpt>
      <trkpt lat="46.95669" lon="8.58347">
        <ele>841</ele>
        <time>2021-08-10T09:52:29.761Z</time>
      </trkpt>
      <trkpt lat="46.9567" lon="8.58348">
        <ele>840</ele>
        <time>2021-08-10T09:52:30.761Z</time>
      </trkpt>
      <trkpt lat="46.9567" lon="8.5835">
        <ele>840</ele>
        <time>2021-08-10T09:52:31.761Z</time>
      </trkpt>
      <trkpt lat="46.95669" lon="8.58351">
        <ele>840</ele>
        <time>2021-08-10T09:52:32.761Z</time>
      </trkpt>
      <trkpt lat="46.95669" lon="8.58351">
        <ele>840</ele>
        <time>2021-08-10T09:52:33.761Z</time>
      </trkpt>
      <trkpt lat="46.95668" lon="8.58352">
        <ele>839</ele>
        <time>2021-08-10T09:52:34.761Z</time>
      </trkpt>
      <trkpt lat="46.95668" lon="8.58353">
        <ele>839</ele>
        <time>2021-08-10T09:52:35.761Z</time>
      </trkpt>
      <trkpt lat="46.95669" lon="8.58353">
        <ele>838</ele>
        <time>2021-08-10T09:52:36.761Z</time>
      </trkpt>
      <trkpt lat="46.9567" lon="8.58353">
        <ele>838</ele>
        <time>2021-08-10T09:52:37.761Z</time>
      </trkpt>
      <trkpt lat="46.9567" lon="8.58351">
        <ele>838</ele>
        <time>2021-08-10T09:52:38.761Z</time>
      </trkpt>
      <trkpt lat="46.9567" lon="8.5835">
        <ele>838</ele>
        <time>2021-08-10T09:52:39.760Z</time>
      </trkpt>
      <trkpt lat="46.9567" lon="8.58349">
        <ele>838</ele>
        <time>2021-08-10T09:52:40.760Z</time>
      </trkpt>
      <trkpt lat="46.9567" lon="8.58348">
        <ele>839</ele>
        <time>2021-08-10T09:52:41.761Z</time>
      </trkpt>
      <trkpt lat="46.9567" lon="8.58348">
        <ele>839</ele>
        <time>2021-08-10T09:52:42.761Z</time>
      </trkpt>
      <trkpt lat="46.95669" lon="8.58346">
        <ele>839</ele>
        <time>2021-08-10T09:52:43.761Z</time>
      </trkpt>
      <trkpt lat="46.95669" lon="8.58345">
        <ele>839</ele>
        <time>2021-08-10T09:52:44.761Z</time>
      </trkpt>
      <trkpt lat="46.95669" lon="8.58345">
        <ele>839</ele>
        <time>2021-08-10T09:52:45.761Z</time>
      </trkpt>
      <trkpt lat="46.95669" lon="8.58344">
        <ele>839</ele>
        <time>2021-08-10T09:52:46.760Z</time>
      </trkpt>
      <trkpt lat="46.95668" lon="8.58344">
        <ele>839</ele>
        <time>2021-08-10T09:52:47.760Z</time>
      </trkpt>
      <trkpt lat="46.95667" lon="8.58343">
        <ele>839</ele>
        <time>2021-08-10T09:52:48.761Z</time>
      </trkpt>
      <trkpt lat="46.95666" lon="8.58343">
        <ele>839</ele>
        <time>2021-08-10T09:52:49.760Z</time>
      </trkpt>
      <trkpt lat="46.95666" lon="8.58342">
        <ele>839</ele>
        <time>2021-08-10T09:52:50.760Z</time>
      </trkpt>
      <trkpt lat="46.95665" lon="8.58341">
        <ele>839</ele>
        <time>2021-08-10T09:52:51.760Z</time>
      </trkpt>
      <trkpt lat="46.95665" lon="8.58341">
        <ele>839</ele>
        <time>2021-08-10T09:52:52.760Z</time>
      </trkpt>
      <trkpt lat="46.95665" lon="8.5834">
        <ele>839</ele>
        <time>2021-08-10T09:52:53.760Z</time>
      </trkpt>
      <trkpt lat="46.95665" lon="8.58339">
        <ele>840</ele>
        <time>2021-08-10T09:52:54.761Z</time>
      </trkpt>
      <trkpt lat="46.95664" lon="8.58338">
        <ele>840</ele>
        <time>2021-08-10T09:52:55.760Z</time>
      </trkpt>
      <trkpt lat="46.95664" lon="8.58338">
        <ele>840</ele>
        <time>2021-08-10T09:52:56.760Z</time>
      </trkpt>
      <trkpt lat="46.95663" lon="8.58338">
        <ele>841</ele>
        <time>2021-08-10T09:52:57.761Z</time>
      </trkpt>
      <trkpt lat="46.95663" lon="8.58337">
        <ele>841</ele>
        <time>2021-08-10T09:52:58.761Z</time>
      </trkpt>
      <trkpt lat="46.95663" lon="8.58337">
        <ele>841</ele>
        <time>2021-08-10T09:52:59.760Z</time>
      </trkpt>
      <trkpt lat="46.95663" lon="8.58336">
        <ele>841</ele>
        <time>2021-08-10T09:53:00.760Z</time>
      </trkpt>
      <trkpt lat="46.95663" lon="8.58335">
        <ele>841</ele>
        <time>2021-08-10T09:53:01.760Z</time>
      </trkpt>
      <trkpt lat="46.95662" lon="8.58334">
        <ele>841</ele>
        <time>2021-08-10T09:53:02.760Z</time>
      </trkpt>
      <trkpt lat="46.95661" lon="8.58334">
        <ele>841</ele>
        <time>2021-08-10T09:53:03.761Z</time>
      </trkpt>
      <trkpt lat="46.95661" lon="8.58333">
        <ele>841</ele>
        <time>2021-08-10T09:53:04.760Z</time>
      </trkpt>
      <trkpt lat="46.9566" lon="8.58333">
        <ele>841</ele>
        <time>2021-08-10T09:53:05.761Z</time>
      </trkpt>
      <trkpt lat="46.9566" lon="8.58332">
        <ele>841</ele>
        <time>2021-08-10T09:53:06.760Z</time>
      </trkpt>
      <trkpt lat="46.95659" lon="8.58331">
        <ele>841</ele>
        <time>2021-08-10T09:53:07.760Z</time>
      </trkpt>
      <trkpt lat="46.95659" lon="8.5833">
        <ele>841</ele>
        <time>2021-08-10T09:53:08.760Z</time>
      </trkpt>
      <trkpt lat="46.95658" lon="8.58329">
        <ele>841</ele>
        <time>2021-08-10T09:53:09.760Z</time>
      </trkpt>
      <trkpt lat="46.95658" lon="8.58328">
        <ele>842</ele>
        <time>2021-08-10T09:53:10.760Z</time>
      </trkpt>
      <trkpt lat="46.95658" lon="8.58327">
        <ele>842</ele>
        <time>2021-08-10T09:53:11.760Z</time>
      </trkpt>
      <trkpt lat="46.95657" lon="8.58326">
        <ele>843</ele>
        <time>2021-08-10T09:53:12.761Z</time>
      </trkpt>
      <trkpt lat="46.95657" lon="8.58326">
        <ele>844</ele>
        <time>2021-08-10T09:53:13.760Z</time>
      </trkpt>
      <trkpt lat="46.95658" lon="8.58325">
        <ele>844</ele>
        <time>2021-08-10T09:53:14.761Z</time>
      </trkpt>
      <trkpt lat="46.95657" lon="8.58324">
        <ele>845</ele>
        <time>2021-08-10T09:53:15.761Z</time>
      </trkpt>
      <trkpt lat="46.95657" lon="8.58323">
        <ele>846</ele>
        <time>2021-08-10T09:53:16.761Z</time>
      </trkpt>
      <trkpt lat="46.95657" lon="8.58322">
        <ele>847</ele>
        <time>2021-08-10T09:53:17.761Z</time>
      </trkpt>
      <trkpt lat="46.95657" lon="8.58321">
        <ele>848</ele>
        <time>2021-08-10T09:53:18.760Z</time>
      </trkpt>
      <trkpt lat="46.95656" lon="8.58319">
        <ele>848</ele>
        <time>2021-08-10T09:53:19.761Z</time>
      </trkpt>
      <trkpt lat="46.95656" lon="8.58318">
        <ele>849</ele>
        <time>2021-08-10T09:53:20.761Z</time>
      </trkpt>
      <trkpt lat="46.95656" lon="8.58317">
        <ele>850</ele>
        <time>2021-08-10T09:53:21.761Z</time>
      </trkpt>
      <trkpt lat="46.95655" lon="8.58316">
        <ele>851</ele>
        <time>2021-08-10T09:53:22.760Z</time>
      </trkpt>
      <trkpt lat="46.95656" lon="8.58315">
        <ele>851</ele>
        <time>2021-08-10T09:53:23.761Z</time>
      </trkpt>
      <trkpt lat="46.95656" lon="8.58314">
        <ele>851</ele>
        <time>2021-08-10T09:53:24.761Z</time>
      </trkpt>
      <trkpt lat="46.95655" lon="8.58313">
        <ele>851</ele>
        <time>2021-08-10T09:53:25.761Z</time>
      </trkpt>
      <trkpt lat="46.95655" lon="8.58311">
        <ele>851</ele>
        <time>2021-08-10T09:53:26.761Z</time>
      </trkpt>
      <trkpt lat="46.95655" lon="8.5831">
        <ele>851</ele>
        <time>2021-08-10T09:53:27.761Z</time>
      </trkpt>
      <trkpt lat="46.95656" lon="8.58308">
        <ele>851</ele>
        <time>2021-08-10T09:53:28.761Z</time>
      </trkpt>
      <trkpt lat="46.95656" lon="8.58307">
        <ele>852</ele>
        <time>2021-08-10T09:53:29.761Z</time>
      </trkpt>
      <trkpt lat="46.95656" lon="8.58306">
        <ele>852</ele>
        <time>2021-08-10T09:53:30.761Z</time>
      </trkpt>
      <trkpt lat="46.95655" lon="8.58306">
        <ele>852</ele>
        <time>2021-08-10T09:53:31.761Z</time>
      </trkpt>
      <trkpt lat="46.95654" lon="8.58306">
        <ele>852</ele>
        <time>2021-08-10T09:53:32.760Z</time>
      </trkpt>
      <trkpt lat="46.95653" lon="8.58306">
        <ele>852</ele>
        <time>2021-08-10T09:53:33.761Z</time>
      </trkpt>
      <trkpt lat="46.95652" lon="8.58305">
        <ele>852</ele>
        <time>2021-08-10T09:53:34.760Z</time>
      </trkpt>
      <trkpt lat="46.95651" lon="8.58305">
        <ele>852</ele>
        <time>2021-08-10T09:53:35.760Z</time>
      </trkpt>
      <trkpt lat="46.9565" lon="8.58304">
        <ele>851</ele>
        <time>2021-08-10T09:53:36.760Z</time>
      </trkpt>
      <trkpt lat="46.9565" lon="8.58304">
        <ele>851</ele>
        <time>2021-08-10T09:53:37.761Z</time>
      </trkpt>
      <trkpt lat="46.95649" lon="8.58304">
        <ele>851</ele>
        <time>2021-08-10T09:53:38.761Z</time>
      </trkpt>
      <trkpt lat="46.95649" lon="8.58304">
        <ele>851</ele>
        <time>2021-08-10T09:53:39.761Z</time>
      </trkpt>
      <trkpt lat="46.95648" lon="8.58303">
        <ele>851</ele>
        <time>2021-08-10T09:53:40.761Z</time>
      </trkpt>
      <trkpt lat="46.95648" lon="8.58304">
        <ele>851</ele>
        <time>2021-08-10T09:53:41.761Z</time>
      </trkpt>
      <trkpt lat="46.95648" lon="8.58304">
        <ele>851</ele>
        <time>2021-08-10T09:53:42.760Z</time>
      </trkpt>
      <trkpt lat="46.95648" lon="8.58303">
        <ele>851</ele>
        <time>2021-08-10T09:53:43.760Z</time>
      </trkpt>
      <trkpt lat="46.95648" lon="8.58303">
        <ele>852</ele>
        <time>2021-08-10T09:53:44.761Z</time>
      </trkpt>
      <trkpt lat="46.95648" lon="8.58301">
        <ele>852</ele>
        <time>2021-08-10T09:53:45.761Z</time>
      </trkpt>
      <trkpt lat="46.95647" lon="8.58301">
        <ele>852</ele>
        <time>2021-08-10T09:53:46.761Z</time>
      </trkpt>
      <trkpt lat="46.95647" lon="8.583">
        <ele>852</ele>
        <time>2021-08-10T09:53:47.761Z</time>
      </trkpt>
      <trkpt lat="46.95646" lon="8.58298">
        <ele>853</ele>
        <time>2021-08-10T09:53:48.761Z</time>
      </trkpt>
      <trkpt lat="46.95645" lon="8.58297">
        <ele>853</ele>
        <time>2021-08-10T09:53:49.761Z</time>
      </trkpt>
      <trkpt lat="46.95644" lon="8.58297">
        <ele>853</ele>
        <time>2021-08-10T09:53:50.762Z</time>
      </trkpt>
      <trkpt lat="46.95643" lon="8.58296">
        <ele>853</ele>
        <time>2021-08-10T09:53:51.762Z</time>
      </trkpt>
      <trkpt lat="46.95642" lon="8.58296">
        <ele>854</ele>
        <time>2021-08-10T09:53:52.761Z</time>
      </trkpt>
      <trkpt lat="46.95642" lon="8.58295">
        <ele>854</ele>
        <time>2021-08-10T09:53:53.762Z</time>
      </trkpt>
      <trkpt lat="46.95641" lon="8.58294">
        <ele>855</ele>
        <time>2021-08-10T09:53:54.761Z</time>
      </trkpt>
      <trkpt lat="46.9564" lon="8.58293">
        <ele>855</ele>
        <time>2021-08-10T09:53:55.762Z</time>
      </trkpt>
      <trkpt lat="46.95639" lon="8.58293">
        <ele>855</ele>
        <time>2021-08-10T09:53:56.761Z</time>
      </trkpt>
      <trkpt lat="46.95638" lon="8.58292">
        <ele>855</ele>
        <time>2021-08-10T09:53:57.761Z</time>
      </trkpt>
      <trkpt lat="46.95637" lon="8.58292">
        <ele>856</ele>
        <time>2021-08-10T09:53:58.762Z</time>
      </trkpt>
      <trkpt lat="46.95634" lon="8.58291">
        <ele>856</ele>
        <time>2021-08-10T09:53:59.762Z</time>
      </trkpt>
      <trkpt lat="46.95633" lon="8.58292">
        <ele>856</ele>
        <time>2021-08-10T09:54:00.761Z</time>
      </trkpt>
      <trkpt lat="46.95631" lon="8.58291">
        <ele>856</ele>
        <time>2021-08-10T09:54:01.762Z</time>
      </trkpt>
      <trkpt lat="46.95629" lon="8.5829">
        <ele>856</ele>
        <time>2021-08-10T09:54:02.761Z</time>
      </trkpt>
      <trkpt lat="46.95628" lon="8.5829">
        <ele>857</ele>
        <time>2021-08-10T09:54:03.761Z</time>
      </trkpt>
      <trkpt lat="46.95627" lon="8.58289">
        <ele>857</ele>
        <time>2021-08-10T09:54:04.761Z</time>
      </trkpt>
      <trkpt lat="46.95626" lon="8.58288">
        <ele>857</ele>
        <time>2021-08-10T09:54:05.762Z</time>
      </trkpt>
      <trkpt lat="46.95625" lon="8.58288">
        <ele>858</ele>
        <time>2021-08-10T09:54:06.762Z</time>
      </trkpt>
      <trkpt lat="46.95624" lon="8.58287">
        <ele>858</ele>
        <time>2021-08-10T09:54:07.761Z</time>
      </trkpt>
      <trkpt lat="46.95624" lon="8.58286">
        <ele>858</ele>
        <time>2021-08-10T09:54:08.761Z</time>
      </trkpt>
      <trkpt lat="46.95623" lon="8.58286">
        <ele>859</ele>
        <time>2021-08-10T09:54:09.762Z</time>
      </trkpt>
      <trkpt lat="46.95623" lon="8.58285">
        <ele>859</ele>
        <time>2021-08-10T09:54:10.761Z</time>
      </trkpt>
      <trkpt lat="46.95623" lon="8.58284">
        <ele>859</ele>
        <time>2021-08-10T09:54:11.762Z</time>
      </trkpt>
      <trkpt lat="46.95622" lon="8.58284">
        <ele>859</ele>
        <time>2021-08-10T09:54:12.762Z</time>
      </trkpt>
      <trkpt lat="46.95621" lon="8.58284">
        <ele>859</ele>
        <time>2021-08-10T09:54:13.762Z</time>
      </trkpt>
      <trkpt lat="46.95618" lon="8.58285">
        <ele>860</ele>
        <time>2021-08-10T09:54:14.762Z</time>
      </trkpt>
      <trkpt lat="46.95616" lon="8.58285">
        <ele>860</ele>
        <time>2021-08-10T09:54:15.762Z</time>
      </trkpt>
      <trkpt lat="46.95614" lon="8.58285">
        <ele>860</ele>
        <time>2021-08-10T09:54:16.762Z</time>
      </trkpt>
      <trkpt lat="46.95613" lon="8.58285">
        <ele>861</ele>
        <time>2021-08-10T09:54:17.762Z</time>
      </trkpt>
      <trkpt lat="46.95613" lon="8.58286">
        <ele>861</ele>
        <time>2021-08-10T09:54:18.762Z</time>
      </trkpt>
      <trkpt lat="46.95612" lon="8.58287">
        <ele>861</ele>
        <time>2021-08-10T09:54:19.762Z</time>
      </trkpt>
      <trkpt lat="46.95611" lon="8.58287">
        <ele>861</ele>
        <time>2021-08-10T09:54:20.762Z</time>
      </trkpt>
      <trkpt lat="46.95611" lon="8.58287">
        <ele>862</ele>
        <time>2021-08-10T09:54:21.761Z</time>
      </trkpt>
      <trkpt lat="46.9561" lon="8.58287">
        <ele>862</ele>
        <time>2021-08-10T09:54:22.762Z</time>
      </trkpt>
      <trkpt lat="46.95609" lon="8.58288">
        <ele>862</ele>
        <time>2021-08-10T09:54:23.761Z</time>
      </trkpt>
      <trkpt lat="46.95609" lon="8.58289">
        <ele>863</ele>
        <time>2021-08-10T09:54:24.762Z</time>
      </trkpt>
      <trkpt lat="46.95609" lon="8.58289">
        <ele>863</ele>
        <time>2021-08-10T09:54:25.762Z</time>
      </trkpt>
      <trkpt lat="46.95609" lon="8.58288">
        <ele>863</ele>
        <time>2021-08-10T09:54:26.762Z</time>
      </trkpt>
      <trkpt lat="46.9561" lon="8.58287">
        <ele>864</ele>
        <time>2021-08-10T09:54:27.762Z</time>
      </trkpt>
      <trkpt lat="46.95611" lon="8.58286">
        <ele>864</ele>
        <time>2021-08-10T09:54:28.762Z</time>
      </trkpt>
      <trkpt lat="46.95611" lon="8.58285">
        <ele>864</ele>
        <time>2021-08-10T09:54:29.761Z</time>
      </trkpt>
      <trkpt lat="46.95611" lon="8.58285">
        <ele>864</ele>
        <time>2021-08-10T09:54:30.762Z</time>
      </trkpt>
      <trkpt lat="46.95611" lon="8.58285">
        <ele>864</ele>
        <time>2021-08-10T09:54:31.761Z</time>
      </trkpt>
      <trkpt lat="46.9561" lon="8.58284">
        <ele>864</ele>
        <time>2021-08-10T09:54:32.761Z</time>
      </trkpt>
      <trkpt lat="46.95609" lon="8.58284">
        <ele>865</ele>
        <time>2021-08-10T09:54:33.762Z</time>
      </trkpt>
      <trkpt lat="46.95608" lon="8.58284">
        <ele>865</ele>
        <time>2021-08-10T09:54:34.762Z</time>
      </trkpt>
      <trkpt lat="46.95609" lon="8.58281">
        <ele>865</ele>
        <time>2021-08-10T09:54:35.762Z</time>
      </trkpt>
      <trkpt lat="46.9561" lon="8.5828">
        <ele>865</ele>
        <time>2021-08-10T09:54:36.761Z</time>
      </trkpt>
      <trkpt lat="46.95609" lon="8.5828">
        <ele>865</ele>
        <time>2021-08-10T09:54:37.762Z</time>
      </trkpt>
      <trkpt lat="46.95608" lon="8.58281">
        <ele>866</ele>
        <time>2021-08-10T09:54:38.761Z</time>
      </trkpt>
      <trkpt lat="46.95608" lon="8.58283">
        <ele>866</ele>
        <time>2021-08-10T09:54:39.762Z</time>
      </trkpt>
      <trkpt lat="46.95608" lon="8.58285">
        <ele>866</ele>
        <time>2021-08-10T09:54:40.761Z</time>
      </trkpt>
      <trkpt lat="46.95608" lon="8.58285">
        <ele>866</ele>
        <time>2021-08-10T09:54:41.762Z</time>
      </trkpt>
      <trkpt lat="46.95608" lon="8.58285">
        <ele>867</ele>
        <time>2021-08-10T09:54:42.761Z</time>
      </trkpt>
      <trkpt lat="46.95607" lon="8.58286">
        <ele>867</ele>
        <time>2021-08-10T09:54:43.762Z</time>
      </trkpt>
      <trkpt lat="46.95606" lon="8.58287">
        <ele>867</ele>
        <time>2021-08-10T09:54:44.761Z</time>
      </trkpt>
      <trkpt lat="46.95604" lon="8.5829">
        <ele>867</ele>
        <time>2021-08-10T09:54:45.762Z</time>
      </trkpt>
      <trkpt lat="46.95604" lon="8.58288">
        <ele>867</ele>
        <time>2021-08-10T09:54:46.762Z</time>
      </trkpt>
      <trkpt lat="46.95604" lon="8.58285">
        <ele>867</ele>
        <time>2021-08-10T09:54:47.761Z</time>
      </trkpt>
      <trkpt lat="46.95604" lon="8.58282">
        <ele>867</ele>
        <time>2021-08-10T09:54:48.762Z</time>
      </trkpt>
      <trkpt lat="46.95603" lon="8.58279">
        <ele>867</ele>
        <time>2021-08-10T09:54:49.762Z</time>
      </trkpt>
      <trkpt lat="46.95603" lon="8.58276">
        <ele>868</ele>
        <time>2021-08-10T09:54:50.761Z</time>
      </trkpt>
      <trkpt lat="46.95603" lon="8.58274">
        <ele>868</ele>
        <time>2021-08-10T09:54:51.762Z</time>
      </trkpt>
      <trkpt lat="46.95603" lon="8.58272">
        <ele>868</ele>
        <time>2021-08-10T09:54:52.762Z</time>
      </trkpt>
      <trkpt lat="46.95601" lon="8.58272">
        <ele>868</ele>
        <time>2021-08-10T09:54:53.761Z</time>
      </trkpt>
      <trkpt lat="46.956" lon="8.58272">
        <ele>868</ele>
        <time>2021-08-10T09:54:54.761Z</time>
      </trkpt>
      <trkpt lat="46.95598" lon="8.58273">
        <ele>868</ele>
        <time>2021-08-10T09:54:55.761Z</time>
      </trkpt>
      <trkpt lat="46.95595" lon="8.58275">
        <ele>868</ele>
        <time>2021-08-10T09:54:56.761Z</time>
      </trkpt>
      <trkpt lat="46.95594" lon="8.58276">
        <ele>867</ele>
        <time>2021-08-10T09:54:57.762Z</time>
      </trkpt>
      <trkpt lat="46.95593" lon="8.58278">
        <ele>867</ele>
        <time>2021-08-10T09:54:58.761Z</time>
      </trkpt>
      <trkpt lat="46.95593" lon="8.58279">
        <ele>867</ele>
        <time>2021-08-10T09:54:59.762Z</time>
      </trkpt>
      <trkpt lat="46.95593" lon="8.58281">
        <ele>867</ele>
        <time>2021-08-10T09:55:00.762Z</time>
      </trkpt>
      <trkpt lat="46.95592" lon="8.58283">
        <ele>867</ele>
        <time>2021-08-10T09:55:01.762Z</time>
      </trkpt>
      <trkpt lat="46.95592" lon="8.58284">
        <ele>867</ele>
        <time>2021-08-10T09:55:02.762Z</time>
      </trkpt>
      <trkpt lat="46.95593" lon="8.58286">
        <ele>867</ele>
        <time>2021-08-10T09:55:03.761Z</time>
      </trkpt>
      <trkpt lat="46.95594" lon="8.58286">
        <ele>867</ele>
        <time>2021-08-10T09:55:04.762Z</time>
      </trkpt>
      <trkpt lat="46.95595" lon="8.58286">
        <ele>867</ele>
        <time>2021-08-10T09:55:05.762Z</time>
      </trkpt>
      <trkpt lat="46.95595" lon="8.58286">
        <ele>867</ele>
        <time>2021-08-10T09:55:06.761Z</time>
      </trkpt>
      <trkpt lat="46.95594" lon="8.58287">
        <ele>867</ele>
        <time>2021-08-10T09:55:07.762Z</time>
      </trkpt>
      <trkpt lat="46.95594" lon="8.58288">
        <ele>867</ele>
        <time>2021-08-10T09:55:08.762Z</time>
      </trkpt>
      <trkpt lat="46.95594" lon="8.58289">
        <ele>867</ele>
        <time>2021-08-10T09:55:09.762Z</time>
      </trkpt>
      <trkpt lat="46.95593" lon="8.5829">
        <ele>867</ele>
        <time>2021-08-10T09:55:10.762Z</time>
      </trkpt>
      <trkpt lat="46.95593" lon="8.58292">
        <ele>867</ele>
        <time>2021-08-10T09:55:11.762Z</time>
      </trkpt>
      <trkpt lat="46.95591" lon="8.58294">
        <ele>867</ele>
        <time>2021-08-10T09:55:12.762Z</time>
      </trkpt>
      <trkpt lat="46.95587" lon="8.58296">
        <ele>867</ele>
        <time>2021-08-10T09:55:13.762Z</time>
      </trkpt>
      <trkpt lat="46.95584" lon="8.58298">
        <ele>867</ele>
        <time>2021-08-10T09:55:14.762Z</time>
      </trkpt>
      <trkpt lat="46.95581" lon="8.583">
        <ele>867</ele>
        <time>2021-08-10T09:55:15.762Z</time>
      </trkpt>
      <trkpt lat="46.95579" lon="8.58303">
        <ele>867</ele>
        <time>2021-08-10T09:55:16.762Z</time>
      </trkpt>
      <trkpt lat="46.95576" lon="8.58306">
        <ele>867</ele>
        <time>2021-08-10T09:55:17.761Z</time>
      </trkpt>
      <trkpt lat="46.95575" lon="8.58309">
        <ele>867</ele>
        <time>2021-08-10T09:55:18.762Z</time>
      </trkpt>
      <trkpt lat="46.95576" lon="8.58311">
        <ele>867</ele>
        <time>2021-08-10T09:55:19.762Z</time>
      </trkpt>
      <trkpt lat="46.95575" lon="8.58313">
        <ele>867</ele>
        <time>2021-08-10T09:55:20.762Z</time>
      </trkpt>
      <trkpt lat="46.95574" lon="8.58315">
        <ele>867</ele>
        <time>2021-08-10T09:55:21.762Z</time>
      </trkpt>
      <trkpt lat="46.95573" lon="8.58316">
        <ele>867</ele>
        <time>2021-08-10T09:55:22.762Z</time>
      </trkpt>
      <trkpt lat="46.95572" lon="8.58318">
        <ele>867</ele>
        <time>2021-08-10T09:55:23.761Z</time>
      </trkpt>
      <trkpt lat="46.95571" lon="8.5832">
        <ele>868</ele>
        <time>2021-08-10T09:55:24.761Z</time>
      </trkpt>
      <trkpt lat="46.9557" lon="8.58321">
        <ele>868</ele>
        <time>2021-08-10T09:55:25.761Z</time>
      </trkpt>
      <trkpt lat="46.9557" lon="8.58321">
        <ele>868</ele>
        <time>2021-08-10T09:55:26.761Z</time>
      </trkpt>
      <trkpt lat="46.95569" lon="8.58322">
        <ele>868</ele>
        <time>2021-08-10T09:55:27.761Z</time>
      </trkpt>
      <trkpt lat="46.95569" lon="8.58322">
        <ele>869</ele>
        <time>2021-08-10T09:55:28.762Z</time>
      </trkpt>
      <trkpt lat="46.95568" lon="8.58322">
        <ele>869</ele>
        <time>2021-08-10T09:55:29.762Z</time>
      </trkpt>
      <trkpt lat="46.95567" lon="8.58322">
        <ele>869</ele>
        <time>2021-08-10T09:55:30.761Z</time>
      </trkpt>
      <trkpt lat="46.95566" lon="8.58321">
        <ele>869</ele>
        <time>2021-08-10T09:55:31.762Z</time>
      </trkpt>
      <trkpt lat="46.95564" lon="8.58321">
        <ele>870</ele>
        <time>2021-08-10T09:55:32.762Z</time>
      </trkpt>
      <trkpt lat="46.95563" lon="8.58321">
        <ele>870</ele>
        <time>2021-08-10T09:55:33.761Z</time>
      </trkpt>
      <trkpt lat="46.95562" lon="8.58321">
        <ele>870</ele>
        <time>2021-08-10T09:55:34.761Z</time>
      </trkpt>
      <trkpt lat="46.95562" lon="8.58321">
        <ele>870</ele>
        <time>2021-08-10T09:55:35.761Z</time>
      </trkpt>
      <trkpt lat="46.95561" lon="8.58323">
        <ele>870</ele>
        <time>2021-08-10T09:55:36.761Z</time>
      </trkpt>
      <trkpt lat="46.9556" lon="8.58324">
        <ele>869</ele>
        <time>2021-08-10T09:55:37.762Z</time>
      </trkpt>
      <trkpt lat="46.9556" lon="8.58325">
        <ele>869</ele>
        <time>2021-08-10T09:55:38.761Z</time>
      </trkpt>
      <trkpt lat="46.9556" lon="8.58326">
        <ele>869</ele>
        <time>2021-08-10T09:55:39.762Z</time>
      </trkpt>
      <trkpt lat="46.95559" lon="8.58327">
        <ele>869</ele>
        <time>2021-08-10T09:55:40.761Z</time>
      </trkpt>
      <trkpt lat="46.95558" lon="8.58327">
        <ele>869</ele>
        <time>2021-08-10T09:55:41.761Z</time>
      </trkpt>
      <trkpt lat="46.95557" lon="8.58326">
        <ele>868</ele>
        <time>2021-08-10T09:55:42.761Z</time>
      </trkpt>
      <trkpt lat="46.95555" lon="8.58325">
        <ele>868</ele>
        <time>2021-08-10T09:55:43.762Z</time>
      </trkpt>
      <trkpt lat="46.95555" lon="8.58325">
        <ele>868</ele>
        <time>2021-08-10T09:55:44.761Z</time>
      </trkpt>
      <trkpt lat="46.95553" lon="8.58324">
        <ele>867</ele>
        <time>2021-08-10T09:55:45.761Z</time>
      </trkpt>
      <trkpt lat="46.95552" lon="8.58324">
        <ele>868</ele>
        <time>2021-08-10T09:55:46.761Z</time>
      </trkpt>
      <trkpt lat="46.95551" lon="8.58323">
        <ele>868</ele>
        <time>2021-08-10T09:55:47.762Z</time>
      </trkpt>
      <trkpt lat="46.9555" lon="8.58323">
        <ele>868</ele>
        <time>2021-08-10T09:55:48.761Z</time>
      </trkpt>
      <trkpt lat="46.95549" lon="8.58323">
        <ele>869</ele>
        <time>2021-08-10T09:55:49.762Z</time>
      </trkpt>
      <trkpt lat="46.95546" lon="8.58322">
        <ele>869</ele>
        <time>2021-08-10T09:55:50.761Z</time>
      </trkpt>
      <trkpt lat="46.95544" lon="8.58322">
        <ele>869</ele>
        <time>2021-08-10T09:55:51.761Z</time>
      </trkpt>
      <trkpt lat="46.95543" lon="8.58322">
        <ele>870</ele>
        <time>2021-08-10T09:55:52.761Z</time>
      </trkpt>
      <trkpt lat="46.95541" lon="8.58321">
        <ele>871</ele>
        <time>2021-08-10T09:55:53.761Z</time>
      </trkpt>
      <trkpt lat="46.9554" lon="8.58321">
        <ele>872</ele>
        <time>2021-08-10T09:55:54.761Z</time>
      </trkpt>
      <trkpt lat="46.95538" lon="8.58322">
        <ele>873</ele>
        <time>2021-08-10T09:55:55.761Z</time>
      </trkpt>
      <trkpt lat="46.95538" lon="8.58322">
        <ele>873</ele>
        <time>2021-08-10T09:55:56.761Z</time>
      </trkpt>
      <trkpt lat="46.95537" lon="8.58323">
        <ele>874</ele>
        <time>2021-08-10T09:55:57.761Z</time>
      </trkpt>
      <trkpt lat="46.95536" lon="8.58324">
        <ele>875</ele>
        <time>2021-08-10T09:55:58.761Z</time>
      </trkpt>
      <trkpt lat="46.95536" lon="8.58324">
        <ele>876</ele>
        <time>2021-08-10T09:55:59.761Z</time>
      </trkpt>
      <trkpt lat="46.95535" lon="8.58325">
        <ele>876</ele>
        <time>2021-08-10T09:56:00.761Z</time>
      </trkpt>
      <trkpt lat="46.95534" lon="8.58326">
        <ele>877</ele>
        <time>2021-08-10T09:56:01.761Z</time>
      </trkpt>
      <trkpt lat="46.95534" lon="8.58327">
        <ele>877</ele>
        <time>2021-08-10T09:56:02.761Z</time>
      </trkpt>
      <trkpt lat="46.95532" lon="8.58328">
        <ele>877</ele>
        <time>2021-08-10T09:56:03.762Z</time>
      </trkpt>
      <trkpt lat="46.95531" lon="8.58329">
        <ele>877</ele>
        <time>2021-08-10T09:56:04.762Z</time>
      </trkpt>
      <trkpt lat="46.9553" lon="8.58329">
        <ele>877</ele>
        <time>2021-08-10T09:56:05.762Z</time>
      </trkpt>
      <trkpt lat="46.95529" lon="8.58329">
        <ele>877</ele>
        <time>2021-08-10T09:56:06.762Z</time>
      </trkpt>
      <trkpt lat="46.95528" lon="8.58328">
        <ele>877</ele>
        <time>2021-08-10T09:56:07.762Z</time>
      </trkpt>
      <trkpt lat="46.95527" lon="8.58328">
        <ele>876</ele>
        <time>2021-08-10T09:56:08.761Z</time>
      </trkpt>
      <trkpt lat="46.95525" lon="8.58327">
        <ele>876</ele>
        <time>2021-08-10T09:56:09.761Z</time>
      </trkpt>
      <trkpt lat="46.95524" lon="8.58327">
        <ele>876</ele>
        <time>2021-08-10T09:56:10.761Z</time>
      </trkpt>
      <trkpt lat="46.95523" lon="8.58327">
        <ele>875</ele>
        <time>2021-08-10T09:56:11.762Z</time>
      </trkpt>
      <trkpt lat="46.95523" lon="8.58327">
        <ele>875</ele>
        <time>2021-08-10T09:56:12.762Z</time>
      </trkpt>
      <trkpt lat="46.95522" lon="8.58328">
        <ele>875</ele>
        <time>2021-08-10T09:56:13.762Z</time>
      </trkpt>
      <trkpt lat="46.95521" lon="8.58328">
        <ele>875</ele>
        <time>2021-08-10T09:56:14.762Z</time>
      </trkpt>
      <trkpt lat="46.95521" lon="8.58329">
        <ele>875</ele>
        <time>2021-08-10T09:56:15.761Z</time>
      </trkpt>
      <trkpt lat="46.9552" lon="8.58329">
        <ele>874</ele>
        <time>2021-08-10T09:56:16.762Z</time>
      </trkpt>
      <trkpt lat="46.9552" lon="8.5833">
        <ele>874</ele>
        <time>2021-08-10T09:56:17.762Z</time>
      </trkpt>
      <trkpt lat="46.95519" lon="8.5833">
        <ele>874</ele>
        <time>2021-08-10T09:56:18.762Z</time>
      </trkpt>
      <trkpt lat="46.95518" lon="8.5833">
        <ele>874</ele>
        <time>2021-08-10T09:56:19.761Z</time>
      </trkpt>
      <trkpt lat="46.95518" lon="8.5833">
        <ele>874</ele>
        <time>2021-08-10T09:56:20.762Z</time>
      </trkpt>
      <trkpt lat="46.95517" lon="8.5833">
        <ele>873</ele>
        <time>2021-08-10T09:56:21.762Z</time>
      </trkpt>
      <trkpt lat="46.95516" lon="8.5833">
        <ele>873</ele>
        <time>2021-08-10T09:56:22.762Z</time>
      </trkpt>
      <trkpt lat="46.95515" lon="8.5833">
        <ele>872</ele>
        <time>2021-08-10T09:56:23.762Z</time>
      </trkpt>
      <trkpt lat="46.95514" lon="8.5833">
        <ele>872</ele>
        <time>2021-08-10T09:56:24.761Z</time>
      </trkpt>
      <trkpt lat="46.95512" lon="8.58329">
        <ele>871</ele>
        <time>2021-08-10T09:56:25.761Z</time>
      </trkpt>
      <trkpt lat="46.95511" lon="8.58329">
        <ele>870</ele>
        <time>2021-08-10T09:56:26.762Z</time>
      </trkpt>
      <trkpt lat="46.9551" lon="8.58329">
        <ele>870</ele>
        <time>2021-08-10T09:56:27.761Z</time>
      </trkpt>
      <trkpt lat="46.95509" lon="8.58328">
        <ele>869</ele>
        <time>2021-08-10T09:56:28.762Z</time>
      </trkpt>
      <trkpt lat="46.95508" lon="8.58329">
        <ele>869</ele>
        <time>2021-08-10T09:56:29.761Z</time>
      </trkpt>
      <trkpt lat="46.95506" lon="8.58329">
        <ele>869</ele>
        <time>2021-08-10T09:56:30.761Z</time>
      </trkpt>
      <trkpt lat="46.95506" lon="8.58329">
        <ele>869</ele>
        <time>2021-08-10T09:56:31.761Z</time>
      </trkpt>
      <trkpt lat="46.95505" lon="8.5833">
        <ele>869</ele>
        <time>2021-08-10T09:56:32.761Z</time>
      </trkpt>
      <trkpt lat="46.95504" lon="8.5833">
        <ele>869</ele>
        <time>2021-08-10T09:56:33.761Z</time>
      </trkpt>
      <trkpt lat="46.95503" lon="8.58331">
        <ele>868</ele>
        <time>2021-08-10T09:56:34.761Z</time>
      </trkpt>
      <trkpt lat="46.95502" lon="8.58331">
        <ele>868</ele>
        <time>2021-08-10T09:56:35.761Z</time>
      </trkpt>
      <trkpt lat="46.95502" lon="8.58332">
        <ele>868</ele>
        <time>2021-08-10T09:56:36.762Z</time>
      </trkpt>
      <trkpt lat="46.95502" lon="8.58331">
        <ele>868</ele>
        <time>2021-08-10T09:56:37.762Z</time>
      </trkpt>
      <trkpt lat="46.95502" lon="8.58331">
        <ele>867</ele>
        <time>2021-08-10T09:56:38.762Z</time>
      </trkpt>
      <trkpt lat="46.95502" lon="8.58331">
        <ele>867</ele>
        <time>2021-08-10T09:56:39.762Z</time>
      </trkpt>
      <trkpt lat="46.95502" lon="8.58331">
        <ele>867</ele>
        <time>2021-08-10T09:56:40.762Z</time>
      </trkpt>
      <trkpt lat="46.95501" lon="8.58332">
        <ele>866</ele>
        <time>2021-08-10T09:56:41.762Z</time>
      </trkpt>
      <trkpt lat="46.95501" lon="8.58332">
        <ele>866</ele>
        <time>2021-08-10T09:56:42.762Z</time>
      </trkpt>
      <trkpt lat="46.955" lon="8.58332">
        <ele>866</ele>
        <time>2021-08-10T09:56:43.761Z</time>
      </trkpt>
      <trkpt lat="46.95499" lon="8.58333">
        <ele>866</ele>
        <time>2021-08-10T09:56:44.762Z</time>
      </trkpt>
      <trkpt lat="46.95499" lon="8.58333">
        <ele>866</ele>
        <time>2021-08-10T09:56:45.762Z</time>
      </trkpt>
      <trkpt lat="46.95498" lon="8.58333">
        <ele>866</ele>
        <time>2021-08-10T09:56:46.762Z</time>
      </trkpt>
      <trkpt lat="46.95497" lon="8.58334">
        <ele>866</ele>
        <time>2021-08-10T09:56:47.762Z</time>
      </trkpt>
      <trkpt lat="46.95496" lon="8.58334">
        <ele>866</ele>
        <time>2021-08-10T09:56:48.762Z</time>
      </trkpt>
      <trkpt lat="46.95495" lon="8.58334">
        <ele>866</ele>
        <time>2021-08-10T09:56:49.762Z</time>
      </trkpt>
      <trkpt lat="46.95495" lon="8.58334">
        <ele>866</ele>
        <time>2021-08-10T09:56:50.762Z</time>
      </trkpt>
      <trkpt lat="46.95494" lon="8.58335">
        <ele>866</ele>
        <time>2021-08-10T09:56:51.761Z</time>
      </trkpt>
      <trkpt lat="46.95492" lon="8.58335">
        <ele>867</ele>
        <time>2021-08-10T09:56:52.763Z</time>
      </trkpt>
      <trkpt lat="46.95491" lon="8.58335">
        <ele>867</ele>
        <time>2021-08-10T09:56:53.763Z</time>
      </trkpt>
      <trkpt lat="46.95491" lon="8.58335">
        <ele>867</ele>
        <time>2021-08-10T09:56:54.763Z</time>
      </trkpt>
      <trkpt lat="46.9549" lon="8.58334">
        <ele>867</ele>
        <time>2021-08-10T09:56:55.762Z</time>
      </trkpt>
      <trkpt lat="46.95488" lon="8.58333">
        <ele>868</ele>
        <time>2021-08-10T09:56:56.762Z</time>
      </trkpt>
      <trkpt lat="46.95487" lon="8.58333">
        <ele>868</ele>
        <time>2021-08-10T09:56:57.762Z</time>
      </trkpt>
      <trkpt lat="46.95486" lon="8.58332">
        <ele>868</ele>
        <time>2021-08-10T09:56:58.763Z</time>
      </trkpt>
      <trkpt lat="46.95486" lon="8.58331">
        <ele>868</ele>
        <time>2021-08-10T09:56:59.763Z</time>
      </trkpt>
      <trkpt lat="46.95482" lon="8.58332">
        <ele>870</ele>
        <time>2021-08-10T09:57:00.763Z</time>
      </trkpt>
      <trkpt lat="46.95483" lon="8.58331">
        <ele>868</ele>
        <time>2021-08-10T09:57:01.763Z</time>
      </trkpt>
      <trkpt lat="46.95483" lon="8.58331">
        <ele>867</ele>
        <time>2021-08-10T09:57:02.763Z</time>
      </trkpt>
      <trkpt lat="46.95483" lon="8.58332">
        <ele>863</ele>
        <time>2021-08-10T09:57:03.765Z</time>
      </trkpt>
      <trkpt lat="46.95484" lon="8.58332">
        <ele>863</ele>
        <time>2021-08-10T09:57:04.765Z</time>
      </trkpt>
      <trkpt lat="46.95484" lon="8.58332">
        <ele>863</ele>
        <time>2021-08-10T09:57:05.765Z</time>
      </trkpt>
      <trkpt lat="46.95484" lon="8.58332">
        <ele>863</ele>
        <time>2021-08-10T09:57:06.764Z</time>
      </trkpt>
      <trkpt lat="46.95485" lon="8.58333">
        <ele>864</ele>
        <time>2021-08-10T09:57:07.764Z</time>
      </trkpt>
      <trkpt lat="46.95485" lon="8.58333">
        <ele>864</ele>
        <time>2021-08-10T09:57:08.765Z</time>
      </trkpt>
      <trkpt lat="46.95486" lon="8.58334">
        <ele>864</ele>
        <time>2021-08-10T09:57:09.765Z</time>
      </trkpt>
      <trkpt lat="46.95486" lon="8.58335">
        <ele>870</ele>
        <time>2021-08-10T09:57:10.765Z</time>
      </trkpt>
      <trkpt lat="46.95486" lon="8.58335">
        <ele>871</ele>
        <time>2021-08-10T09:57:11.764Z</time>
      </trkpt>
      <trkpt lat="46.95482" lon="8.58342">
        <ele>873</ele>
        <time>2021-08-10T09:57:12.766Z</time>
      </trkpt>
      <trkpt lat="46.95482" lon="8.58343">
        <ele>873</ele>
        <time>2021-08-10T09:57:13.766Z</time>
      </trkpt>
      <trkpt lat="46.95482" lon="8.58343">
        <ele>874</ele>
        <time>2021-08-10T09:57:14.766Z</time>
      </trkpt>
      <trkpt lat="46.95483" lon="8.58342">
        <ele>874</ele>
        <time>2021-08-10T09:57:15.765Z</time>
      </trkpt>
      <trkpt lat="46.95482" lon="8.58341">
        <ele>874</ele>
        <time>2021-08-10T09:57:16.766Z</time>
      </trkpt>
      <trkpt lat="46.95483" lon="8.58342">
        <ele>874</ele>
        <time>2021-08-10T09:57:17.765Z</time>
      </trkpt>
      <trkpt lat="46.95483" lon="8.58341">
        <ele>874</ele>
        <time>2021-08-10T09:57:18.766Z</time>
      </trkpt>
      <trkpt lat="46.95484" lon="8.58341">
        <ele>874</ele>
        <time>2021-08-10T09:57:19.766Z</time>
      </trkpt>
      <trkpt lat="46.95484" lon="8.58341">
        <ele>873</ele>
        <time>2021-08-10T09:57:20.766Z</time>
      </trkpt>
      <trkpt lat="46.95482" lon="8.58341">
        <ele>871</ele>
        <time>2021-08-10T09:57:21.767Z</time>
      </trkpt>
      <trkpt lat="46.95481" lon="8.58341">
        <ele>871</ele>
        <time>2021-08-10T09:57:22.766Z</time>
      </trkpt>
      <trkpt lat="46.9548" lon="8.5834">
        <ele>871</ele>
        <time>2021-08-10T09:57:23.766Z</time>
      </trkpt>
      <trkpt lat="46.95479" lon="8.5834">
        <ele>871</ele>
        <time>2021-08-10T09:57:24.767Z</time>
      </trkpt>
      <trkpt lat="46.95478" lon="8.5834">
        <ele>871</ele>
        <time>2021-08-10T09:57:25.766Z</time>
      </trkpt>
      <trkpt lat="46.95477" lon="8.58341">
        <ele>870</ele>
        <time>2021-08-10T09:57:26.767Z</time>
      </trkpt>
      <trkpt lat="46.95477" lon="8.58341">
        <ele>869</ele>
        <time>2021-08-10T09:57:27.766Z</time>
      </trkpt>
      <trkpt lat="46.95476" lon="8.58342">
        <ele>869</ele>
        <time>2021-08-10T09:57:28.767Z</time>
      </trkpt>
      <trkpt lat="46.95475" lon="8.58342">
        <ele>868</ele>
        <time>2021-08-10T09:57:29.767Z</time>
      </trkpt>
      <trkpt lat="46.95475" lon="8.58343">
        <ele>868</ele>
        <time>2021-08-10T09:57:30.767Z</time>
      </trkpt>
      <trkpt lat="46.95474" lon="8.58342">
        <ele>868</ele>
        <time>2021-08-10T09:57:31.767Z</time>
      </trkpt>
      <trkpt lat="46.95473" lon="8.58342">
        <ele>868</ele>
        <time>2021-08-10T09:57:32.767Z</time>
      </trkpt>
      <trkpt lat="46.95472" lon="8.58342">
        <ele>868</ele>
        <time>2021-08-10T09:57:33.767Z</time>
      </trkpt>
      <trkpt lat="46.95471" lon="8.58342">
        <ele>868</ele>
        <time>2021-08-10T09:57:34.766Z</time>
      </trkpt>
      <trkpt lat="46.9547" lon="8.58342">
        <ele>867</ele>
        <time>2021-08-10T09:57:35.767Z</time>
      </trkpt>
      <trkpt lat="46.95469" lon="8.58342">
        <ele>867</ele>
        <time>2021-08-10T09:57:36.767Z</time>
      </trkpt>
      <trkpt lat="46.95469" lon="8.58342">
        <ele>866</ele>
        <time>2021-08-10T09:57:37.766Z</time>
      </trkpt>
      <trkpt lat="46.95468" lon="8.58342">
        <ele>866</ele>
        <time>2021-08-10T09:57:38.766Z</time>
      </trkpt>
      <trkpt lat="46.95468" lon="8.58341">
        <ele>866</ele>
        <time>2021-08-10T09:57:39.767Z</time>
      </trkpt>
      <trkpt lat="46.95467" lon="8.5834">
        <ele>866</ele>
        <time>2021-08-10T09:57:40.767Z</time>
      </trkpt>
      <trkpt lat="46.95466" lon="8.58338">
        <ele>866</ele>
        <time>2021-08-10T09:57:41.767Z</time>
      </trkpt>
      <trkpt lat="46.95466" lon="8.58336">
        <ele>866</ele>
        <time>2021-08-10T09:57:42.767Z</time>
      </trkpt>
      <trkpt lat="46.95465" lon="8.58335">
        <ele>866</ele>
        <time>2021-08-10T09:57:43.766Z</time>
      </trkpt>
      <trkpt lat="46.95464" lon="8.58334">
        <ele>866</ele>
        <time>2021-08-10T09:57:44.767Z</time>
      </trkpt>
      <trkpt lat="46.95463" lon="8.58334">
        <ele>867</ele>
        <time>2021-08-10T09:57:45.767Z</time>
      </trkpt>
      <trkpt lat="46.95463" lon="8.58334">
        <ele>867</ele>
        <time>2021-08-10T09:57:46.767Z</time>
      </trkpt>
      <trkpt lat="46.95462" lon="8.58334">
        <ele>867</ele>
        <time>2021-08-10T09:57:47.767Z</time>
      </trkpt>
      <trkpt lat="46.95462" lon="8.58334">
        <ele>867</ele>
        <time>2021-08-10T09:57:48.767Z</time>
      </trkpt>
      <trkpt lat="46.95461" lon="8.58334">
        <ele>868</ele>
        <time>2021-08-10T09:57:49.767Z</time>
      </trkpt>
      <trkpt lat="46.95461" lon="8.58334">
        <ele>868</ele>
        <time>2021-08-10T09:57:50.766Z</time>
      </trkpt>
      <trkpt lat="46.95461" lon="8.58334">
        <ele>868</ele>
        <time>2021-08-10T09:57:51.766Z</time>
      </trkpt>
      <trkpt lat="46.95459" lon="8.58333">
        <ele>867</ele>
        <time>2021-08-10T09:57:52.767Z</time>
      </trkpt>
      <trkpt lat="46.95458" lon="8.58333">
        <ele>867</ele>
        <time>2021-08-10T09:57:53.767Z</time>
      </trkpt>
      <trkpt lat="46.95457" lon="8.58333">
        <ele>867</ele>
        <time>2021-08-10T09:57:54.767Z</time>
      </trkpt>
      <trkpt lat="46.95456" lon="8.58334">
        <ele>867</ele>
        <time>2021-08-10T09:57:55.766Z</time>
      </trkpt>
      <trkpt lat="46.95456" lon="8.58334">
        <ele>866</ele>
        <time>2021-08-10T09:57:56.767Z</time>
      </trkpt>
      <trkpt lat="46.95455" lon="8.58335">
        <ele>866</ele>
        <time>2021-08-10T09:57:57.767Z</time>
      </trkpt>
      <trkpt lat="46.95455" lon="8.58335">
        <ele>866</ele>
        <time>2021-08-10T09:57:58.766Z</time>
      </trkpt>
      <trkpt lat="46.95455" lon="8.58335">
        <ele>866</ele>
        <time>2021-08-10T09:57:59.767Z</time>
      </trkpt>
      <trkpt lat="46.95454" lon="8.58336">
        <ele>865</ele>
        <time>2021-08-10T09:58:00.766Z</time>
      </trkpt>
      <trkpt lat="46.95454" lon="8.58336">
        <ele>865</ele>
        <time>2021-08-10T09:58:01.766Z</time>
      </trkpt>
      <trkpt lat="46.95453" lon="8.58336">
        <ele>865</ele>
        <time>2021-08-10T09:58:02.766Z</time>
      </trkpt>
      <trkpt lat="46.95452" lon="8.58336">
        <ele>864</ele>
        <time>2021-08-10T09:58:03.766Z</time>
      </trkpt>
      <trkpt lat="46.95452" lon="8.58337">
        <ele>864</ele>
        <time>2021-08-10T09:58:04.767Z</time>
      </trkpt>
      <trkpt lat="46.9545" lon="8.58336">
        <ele>864</ele>
        <time>2021-08-10T09:58:05.767Z</time>
      </trkpt>
      <trkpt lat="46.95449" lon="8.58336">
        <ele>863</ele>
        <time>2021-08-10T09:58:06.767Z</time>
      </trkpt>
      <trkpt lat="46.95447" lon="8.58336">
        <ele>863</ele>
        <time>2021-08-10T09:58:07.767Z</time>
      </trkpt>
      <trkpt lat="46.95445" lon="8.58336">
        <ele>863</ele>
        <time>2021-08-10T09:58:08.766Z</time>
      </trkpt>
      <trkpt lat="46.95443" lon="8.58335">
        <ele>863</ele>
        <time>2021-08-10T09:58:09.767Z</time>
      </trkpt>
      <trkpt lat="46.95441" lon="8.58334">
        <ele>863</ele>
        <time>2021-08-10T09:58:10.767Z</time>
      </trkpt>
      <trkpt lat="46.9544" lon="8.58334">
        <ele>863</ele>
        <time>2021-08-10T09:58:11.766Z</time>
      </trkpt>
      <trkpt lat="46.95439" lon="8.58334">
        <ele>863</ele>
        <time>2021-08-10T09:58:12.767Z</time>
      </trkpt>
      <trkpt lat="46.95438" lon="8.58334">
        <ele>863</ele>
        <time>2021-08-10T09:58:13.767Z</time>
      </trkpt>
      <trkpt lat="46.95438" lon="8.58334">
        <ele>862</ele>
        <time>2021-08-10T09:58:14.767Z</time>
      </trkpt>
      <trkpt lat="46.95438" lon="8.58334">
        <ele>862</ele>
        <time>2021-08-10T09:58:15.767Z</time>
      </trkpt>
      <trkpt lat="46.95437" lon="8.58333">
        <ele>862</ele>
        <time>2021-08-10T09:58:16.767Z</time>
      </trkpt>
      <trkpt lat="46.95437" lon="8.58333">
        <ele>861</ele>
        <time>2021-08-10T09:58:17.767Z</time>
      </trkpt>
      <trkpt lat="46.95436" lon="8.58333">
        <ele>861</ele>
        <time>2021-08-10T09:58:18.767Z</time>
      </trkpt>
      <trkpt lat="46.95435" lon="8.58332">
        <ele>861</ele>
        <time>2021-08-10T09:58:19.767Z</time>
      </trkpt>
      <trkpt lat="46.95434" lon="8.58332">
        <ele>860</ele>
        <time>2021-08-10T09:58:20.767Z</time>
      </trkpt>
      <trkpt lat="46.95434" lon="8.58331">
        <ele>860</ele>
        <time>2021-08-10T09:58:21.767Z</time>
      </trkpt>
      <trkpt lat="46.95433" lon="8.58331">
        <ele>860</ele>
        <time>2021-08-10T09:58:22.767Z</time>
      </trkpt>
      <trkpt lat="46.95432" lon="8.5833">
        <ele>860</ele>
        <time>2021-08-10T09:58:23.766Z</time>
      </trkpt>
      <trkpt lat="46.95431" lon="8.58329">
        <ele>860</ele>
        <time>2021-08-10T09:58:24.766Z</time>
      </trkpt>
      <trkpt lat="46.95431" lon="8.58329">
        <ele>860</ele>
        <time>2021-08-10T09:58:25.767Z</time>
      </trkpt>
      <trkpt lat="46.95431" lon="8.58329">
        <ele>860</ele>
        <time>2021-08-10T09:58:26.767Z</time>
      </trkpt>
      <trkpt lat="46.95431" lon="8.58329">
        <ele>860</ele>
        <time>2021-08-10T09:58:27.767Z</time>
      </trkpt>
      <trkpt lat="46.9543" lon="8.58327">
        <ele>859</ele>
        <time>2021-08-10T09:58:28.769Z</time>
      </trkpt>
      <trkpt lat="46.9543" lon="8.58326">
        <ele>859</ele>
        <time>2021-08-10T09:58:29.768Z</time>
      </trkpt>
      <trkpt lat="46.9543" lon="8.58325">
        <ele>858</ele>
        <time>2021-08-10T09:58:30.769Z</time>
      </trkpt>
      <trkpt lat="46.9543" lon="8.58324">
        <ele>858</ele>
        <time>2021-08-10T09:58:31.769Z</time>
      </trkpt>
      <trkpt lat="46.95429" lon="8.58323">
        <ele>858</ele>
        <time>2021-08-10T09:58:32.768Z</time>
      </trkpt>
      <trkpt lat="46.95428" lon="8.58322">
        <ele>858</ele>
        <time>2021-08-10T09:58:33.768Z</time>
      </trkpt>
      <trkpt lat="46.95428" lon="8.58321">
        <ele>858</ele>
        <time>2021-08-10T09:58:34.768Z</time>
      </trkpt>
      <trkpt lat="46.95427" lon="8.5832">
        <ele>858</ele>
        <time>2021-08-10T09:58:35.768Z</time>
      </trkpt>
      <trkpt lat="46.95427" lon="8.58319">
        <ele>858</ele>
        <time>2021-08-10T09:58:36.769Z</time>
      </trkpt>
      <trkpt lat="46.95427" lon="8.58318">
        <ele>858</ele>
        <time>2021-08-10T09:58:37.769Z</time>
      </trkpt>
      <trkpt lat="46.95427" lon="8.58317">
        <ele>858</ele>
        <time>2021-08-10T09:58:38.768Z</time>
      </trkpt>
      <trkpt lat="46.95426" lon="8.58315">
        <ele>858</ele>
        <time>2021-08-10T09:58:39.769Z</time>
      </trkpt>
      <trkpt lat="46.95425" lon="8.58314">
        <ele>859</ele>
        <time>2021-08-10T09:58:40.769Z</time>
      </trkpt>
      <trkpt lat="46.95424" lon="8.58313">
        <ele>859</ele>
        <time>2021-08-10T09:58:41.769Z</time>
      </trkpt>
      <trkpt lat="46.95423" lon="8.58311">
        <ele>860</ele>
        <time>2021-08-10T09:58:42.769Z</time>
      </trkpt>
      <trkpt lat="46.95423" lon="8.5831">
        <ele>860</ele>
        <time>2021-08-10T09:58:43.768Z</time>
      </trkpt>
      <trkpt lat="46.95423" lon="8.58308">
        <ele>861</ele>
        <time>2021-08-10T09:58:44.768Z</time>
      </trkpt>
      <trkpt lat="46.95424" lon="8.58308">
        <ele>861</ele>
        <time>2021-08-10T09:58:45.768Z</time>
      </trkpt>
      <trkpt lat="46.95424" lon="8.58307">
        <ele>861</ele>
        <time>2021-08-10T09:58:46.769Z</time>
      </trkpt>
      <trkpt lat="46.95424" lon="8.58303">
        <ele>855</ele>
        <time>2021-08-10T09:58:47.769Z</time>
      </trkpt>
      <trkpt lat="46.95424" lon="8.58303">
        <ele>855</ele>
        <time>2021-08-10T09:58:48.770Z</time>
      </trkpt>
      <trkpt lat="46.95423" lon="8.58302">
        <ele>855</ele>
        <time>2021-08-10T09:58:49.769Z</time>
      </trkpt>
      <trkpt lat="46.95423" lon="8.58301">
        <ele>855</ele>
        <time>2021-08-10T09:58:50.770Z</time>
      </trkpt>
      <trkpt lat="46.95423" lon="8.58301">
        <ele>855</ele>
        <time>2021-08-10T09:58:51.769Z</time>
      </trkpt>
      <trkpt lat="46.95423" lon="8.58301">
        <ele>855</ele>
        <time>2021-08-10T09:58:52.770Z</time>
      </trkpt>
      <trkpt lat="46.95423" lon="8.583">
        <ele>855</ele>
        <time>2021-08-10T09:58:53.770Z</time>
      </trkpt>
      <trkpt lat="46.95423" lon="8.58299">
        <ele>854</ele>
        <time>2021-08-10T09:58:54.769Z</time>
      </trkpt>
      <trkpt lat="46.95423" lon="8.58298">
        <ele>854</ele>
        <time>2021-08-10T09:58:55.770Z</time>
      </trkpt>
      <trkpt lat="46.95422" lon="8.58298">
        <ele>854</ele>
        <time>2021-08-10T09:58:56.770Z</time>
      </trkpt>
      <trkpt lat="46.95422" lon="8.58297">
        <ele>854</ele>
        <time>2021-08-10T09:58:57.770Z</time>
      </trkpt>
      <trkpt lat="46.95421" lon="8.58296">
        <ele>853</ele>
        <time>2021-08-10T09:58:58.770Z</time>
      </trkpt>
      <trkpt lat="46.95421" lon="8.58295">
        <ele>853</ele>
        <time>2021-08-10T09:58:59.769Z</time>
      </trkpt>
      <trkpt lat="46.95421" lon="8.58294">
        <ele>853</ele>
        <time>2021-08-10T09:59:00.770Z</time>
      </trkpt>
      <trkpt lat="46.95421" lon="8.58293">
        <ele>853</ele>
        <time>2021-08-10T09:59:01.770Z</time>
      </trkpt>
      <trkpt lat="46.9542" lon="8.58292">
        <ele>854</ele>
        <time>2021-08-10T09:59:02.770Z</time>
      </trkpt>
      <trkpt lat="46.9542" lon="8.58291">
        <ele>854</ele>
        <time>2021-08-10T09:59:03.770Z</time>
      </trkpt>
      <trkpt lat="46.9542" lon="8.58291">
        <ele>854</ele>
        <time>2021-08-10T09:59:04.770Z</time>
      </trkpt>
      <trkpt lat="46.9542" lon="8.5829">
        <ele>853</ele>
        <time>2021-08-10T09:59:05.769Z</time>
      </trkpt>
      <trkpt lat="46.9542" lon="8.58289">
        <ele>853</ele>
        <time>2021-08-10T09:59:06.770Z</time>
      </trkpt>
      <trkpt lat="46.9542" lon="8.58287">
        <ele>853</ele>
        <time>2021-08-10T09:59:07.770Z</time>
      </trkpt>
      <trkpt lat="46.9542" lon="8.58286">
        <ele>853</ele>
        <time>2021-08-10T09:59:08.770Z</time>
      </trkpt>
      <trkpt lat="46.95419" lon="8.58284">
        <ele>853</ele>
        <time>2021-08-10T09:59:09.769Z</time>
      </trkpt>
      <trkpt lat="46.95419" lon="8.58283">
        <ele>853</ele>
        <time>2021-08-10T09:59:10.770Z</time>
      </trkpt>
      <trkpt lat="46.9542" lon="8.58283">
        <ele>853</ele>
        <time>2021-08-10T09:59:11.770Z</time>
      </trkpt>
      <trkpt lat="46.95419" lon="8.58282">
        <ele>853</ele>
        <time>2021-08-10T09:59:12.770Z</time>
      </trkpt>
      <trkpt lat="46.95419" lon="8.58281">
        <ele>853</ele>
        <time>2021-08-10T09:59:13.770Z</time>
      </trkpt>
      <trkpt lat="46.95418" lon="8.58281">
        <ele>853</ele>
        <time>2021-08-10T09:59:14.769Z</time>
      </trkpt>
      <trkpt lat="46.95418" lon="8.5828">
        <ele>853</ele>
        <time>2021-08-10T09:59:15.770Z</time>
      </trkpt>
      <trkpt lat="46.95418" lon="8.5828">
        <ele>852</ele>
        <time>2021-08-10T09:59:16.770Z</time>
      </trkpt>
      <trkpt lat="46.95417" lon="8.58279">
        <ele>852</ele>
        <time>2021-08-10T09:59:17.770Z</time>
      </trkpt>
      <trkpt lat="46.95416" lon="8.58278">
        <ele>851</ele>
        <time>2021-08-10T09:59:18.770Z</time>
      </trkpt>
      <trkpt lat="46.95415" lon="8.58278">
        <ele>851</ele>
        <time>2021-08-10T09:59:19.770Z</time>
      </trkpt>
      <trkpt lat="46.95414" lon="8.58277">
        <ele>850</ele>
        <time>2021-08-10T09:59:20.770Z</time>
      </trkpt>
      <trkpt lat="46.95414" lon="8.58277">
        <ele>850</ele>
        <time>2021-08-10T09:59:21.770Z</time>
      </trkpt>
      <trkpt lat="46.95413" lon="8.58277">
        <ele>850</ele>
        <time>2021-08-10T09:59:22.770Z</time>
      </trkpt>
      <trkpt lat="46.95413" lon="8.58277">
        <ele>850</ele>
        <time>2021-08-10T09:59:23.769Z</time>
      </trkpt>
      <trkpt lat="46.95412" lon="8.58276">
        <ele>849</ele>
        <time>2021-08-10T09:59:24.770Z</time>
      </trkpt>
      <trkpt lat="46.9541" lon="8.58274">
        <ele>849</ele>
        <time>2021-08-10T09:59:25.770Z</time>
      </trkpt>
      <trkpt lat="46.95409" lon="8.58273">
        <ele>848</ele>
        <time>2021-08-10T09:59:26.770Z</time>
      </trkpt>
      <trkpt lat="46.95409" lon="8.58271">
        <ele>848</ele>
        <time>2021-08-10T09:59:27.770Z</time>
      </trkpt>
      <trkpt lat="46.95408" lon="8.58269">
        <ele>847</ele>
        <time>2021-08-10T09:59:28.770Z</time>
      </trkpt>
      <trkpt lat="46.95408" lon="8.58268">
        <ele>847</ele>
        <time>2021-08-10T09:59:29.769Z</time>
      </trkpt>
      <trkpt lat="46.95408" lon="8.58267">
        <ele>846</ele>
        <time>2021-08-10T09:59:30.770Z</time>
      </trkpt>
      <trkpt lat="46.95408" lon="8.58267">
        <ele>846</ele>
        <time>2021-08-10T09:59:31.770Z</time>
      </trkpt>
      <trkpt lat="46.95408" lon="8.58266">
        <ele>846</ele>
        <time>2021-08-10T09:59:32.770Z</time>
      </trkpt>
      <trkpt lat="46.95408" lon="8.58264">
        <ele>846</ele>
        <time>2021-08-10T09:59:33.769Z</time>
      </trkpt>
      <trkpt lat="46.95407" lon="8.58263">
        <ele>845</ele>
        <time>2021-08-10T09:59:34.769Z</time>
      </trkpt>
      <trkpt lat="46.95407" lon="8.58262">
        <ele>845</ele>
        <time>2021-08-10T09:59:35.769Z</time>
      </trkpt>
      <trkpt lat="46.95407" lon="8.5826">
        <ele>844</ele>
        <time>2021-08-10T09:59:36.769Z</time>
      </trkpt>
      <trkpt lat="46.95407" lon="8.58259">
        <ele>844</ele>
        <time>2021-08-10T09:59:37.769Z</time>
      </trkpt>
      <trkpt lat="46.95407" lon="8.58258">
        <ele>843</ele>
        <time>2021-08-10T09:59:38.770Z</time>
      </trkpt>
      <trkpt lat="46.95407" lon="8.58256">
        <ele>843</ele>
        <time>2021-08-10T09:59:39.770Z</time>
      </trkpt>
      <trkpt lat="46.95406" lon="8.58255">
        <ele>843</ele>
        <time>2021-08-10T09:59:40.769Z</time>
      </trkpt>
      <trkpt lat="46.95406" lon="8.58254">
        <ele>843</ele>
        <time>2021-08-10T09:59:41.770Z</time>
      </trkpt>
      <trkpt lat="46.95405" lon="8.58253">
        <ele>843</ele>
        <time>2021-08-10T09:59:42.770Z</time>
      </trkpt>
      <trkpt lat="46.95404" lon="8.58251">
        <ele>843</ele>
        <time>2021-08-10T09:59:43.770Z</time>
      </trkpt>
      <trkpt lat="46.95403" lon="8.5825">
        <ele>844</ele>
        <time>2021-08-10T09:59:44.770Z</time>
      </trkpt>
      <trkpt lat="46.95403" lon="8.58249">
        <ele>844</ele>
        <time>2021-08-10T09:59:45.769Z</time>
      </trkpt>
      <trkpt lat="46.95402" lon="8.58248">
        <ele>844</ele>
        <time>2021-08-10T09:59:46.769Z</time>
      </trkpt>
      <trkpt lat="46.95402" lon="8.58246">
        <ele>844</ele>
        <time>2021-08-10T09:59:47.770Z</time>
      </trkpt>
      <trkpt lat="46.95402" lon="8.58245">
        <ele>844</ele>
        <time>2021-08-10T09:59:48.769Z</time>
      </trkpt>
      <trkpt lat="46.95402" lon="8.58244">
        <ele>845</ele>
        <time>2021-08-10T09:59:49.770Z</time>
      </trkpt>
      <trkpt lat="46.95401" lon="8.58243">
        <ele>845</ele>
        <time>2021-08-10T09:59:50.770Z</time>
      </trkpt>
      <trkpt lat="46.95401" lon="8.58241">
        <ele>845</ele>
        <time>2021-08-10T09:59:51.770Z</time>
      </trkpt>
      <trkpt lat="46.95401" lon="8.5824">
        <ele>846</ele>
        <time>2021-08-10T09:59:52.770Z</time>
      </trkpt>
      <trkpt lat="46.954" lon="8.58238">
        <ele>846</ele>
        <time>2021-08-10T09:59:53.769Z</time>
      </trkpt>
      <trkpt lat="46.95399" lon="8.58237">
        <ele>846</ele>
        <time>2021-08-10T09:59:54.770Z</time>
      </trkpt>
      <trkpt lat="46.95398" lon="8.58235">
        <ele>847</ele>
        <time>2021-08-10T09:59:55.770Z</time>
      </trkpt>
      <trkpt lat="46.95397" lon="8.58234">
        <ele>847</ele>
        <time>2021-08-10T09:59:56.769Z</time>
      </trkpt>
      <trkpt lat="46.95396" lon="8.58232">
        <ele>847</ele>
        <time>2021-08-10T09:59:57.770Z</time>
      </trkpt>
      <trkpt lat="46.95395" lon="8.58231">
        <ele>847</ele>
        <time>2021-08-10T09:59:58.770Z</time>
      </trkpt>
      <trkpt lat="46.95394" lon="8.5823">
        <ele>847</ele>
        <time>2021-08-10T09:59:59.770Z</time>
      </trkpt>
      <trkpt lat="46.95394" lon="8.58229">
        <ele>847</ele>
        <time>2021-08-10T10:00:00.770Z</time>
      </trkpt>
      <trkpt lat="46.95393" lon="8.58229">
        <ele>848</ele>
        <time>2021-08-10T10:00:01.769Z</time>
      </trkpt>
      <trkpt lat="46.95392" lon="8.58228">
        <ele>848</ele>
        <time>2021-08-10T10:00:02.769Z</time>
      </trkpt>
      <trkpt lat="46.95392" lon="8.58227">
        <ele>848</ele>
        <time>2021-08-10T10:00:03.769Z</time>
      </trkpt>
      <trkpt lat="46.95391" lon="8.58226">
        <ele>848</ele>
        <time>2021-08-10T10:00:04.769Z</time>
      </trkpt>
      <trkpt lat="46.9539" lon="8.58225">
        <ele>848</ele>
        <time>2021-08-10T10:00:05.770Z</time>
      </trkpt>
      <trkpt lat="46.95389" lon="8.58223">
        <ele>848</ele>
        <time>2021-08-10T10:00:06.770Z</time>
      </trkpt>
      <trkpt lat="46.95388" lon="8.58221">
        <ele>847</ele>
        <time>2021-08-10T10:00:07.769Z</time>
      </trkpt>
      <trkpt lat="46.95387" lon="8.58219">
        <ele>847</ele>
        <time>2021-08-10T10:00:08.770Z</time>
      </trkpt>
      <trkpt lat="46.95386" lon="8.58219">
        <ele>847</ele>
        <time>2021-08-10T10:00:09.769Z</time>
      </trkpt>
      <trkpt lat="46.95386" lon="8.58218">
        <ele>847</ele>
        <time>2021-08-10T10:00:10.770Z</time>
      </trkpt>
      <trkpt lat="46.95385" lon="8.58217">
        <ele>847</ele>
        <time>2021-08-10T10:00:11.770Z</time>
      </trkpt>
      <trkpt lat="46.95384" lon="8.58215">
        <ele>847</ele>
        <time>2021-08-10T10:00:12.770Z</time>
      </trkpt>
      <trkpt lat="46.95382" lon="8.58214">
        <ele>847</ele>
        <time>2021-08-10T10:00:13.770Z</time>
      </trkpt>
      <trkpt lat="46.9538" lon="8.58214">
        <ele>847</ele>
        <time>2021-08-10T10:00:14.769Z</time>
      </trkpt>
      <trkpt lat="46.9538" lon="8.58213">
        <ele>847</ele>
        <time>2021-08-10T10:00:15.770Z</time>
      </trkpt>
      <trkpt lat="46.9538" lon="8.58212">
        <ele>847</ele>
        <time>2021-08-10T10:00:16.770Z</time>
      </trkpt>
      <trkpt lat="46.9538" lon="8.58212">
        <ele>847</ele>
        <time>2021-08-10T10:00:17.770Z</time>
      </trkpt>
      <trkpt lat="46.95379" lon="8.58212">
        <ele>847</ele>
        <time>2021-08-10T10:00:18.770Z</time>
      </trkpt>
      <trkpt lat="46.95379" lon="8.58211">
        <ele>847</ele>
        <time>2021-08-10T10:00:19.770Z</time>
      </trkpt>
      <trkpt lat="46.95378" lon="8.58211">
        <ele>847</ele>
        <time>2021-08-10T10:00:20.769Z</time>
      </trkpt>
      <trkpt lat="46.95378" lon="8.58211">
        <ele>848</ele>
        <time>2021-08-10T10:00:21.770Z</time>
      </trkpt>
      <trkpt lat="46.95378" lon="8.58211">
        <ele>848</ele>
        <time>2021-08-10T10:00:22.769Z</time>
      </trkpt>
      <trkpt lat="46.95377" lon="8.58207">
        <ele>845</ele>
        <time>2021-08-10T10:00:23.772Z</time>
      </trkpt>
      <trkpt lat="46.95375" lon="8.58206">
        <ele>844</ele>
        <time>2021-08-10T10:00:24.772Z</time>
      </trkpt>
      <trkpt lat="46.95374" lon="8.58205">
        <ele>844</ele>
        <time>2021-08-10T10:00:25.771Z</time>
      </trkpt>
      <trkpt lat="46.95373" lon="8.58205">
        <ele>844</ele>
        <time>2021-08-10T10:00:26.772Z</time>
      </trkpt>
      <trkpt lat="46.95372" lon="8.58204">
        <ele>844</ele>
        <time>2021-08-10T10:00:27.771Z</time>
      </trkpt>
      <trkpt lat="46.95371" lon="8.58204">
        <ele>843</ele>
        <time>2021-08-10T10:00:28.772Z</time>
      </trkpt>
      <trkpt lat="46.95371" lon="8.58204">
        <ele>843</ele>
        <time>2021-08-10T10:00:29.771Z</time>
      </trkpt>
      <trkpt lat="46.9537" lon="8.58203">
        <ele>843</ele>
        <time>2021-08-10T10:00:30.772Z</time>
      </trkpt>
      <trkpt lat="46.95369" lon="8.58203">
        <ele>843</ele>
        <time>2021-08-10T10:00:31.772Z</time>
      </trkpt>
      <trkpt lat="46.95367" lon="8.58202">
        <ele>842</ele>
        <time>2021-08-10T10:00:32.771Z</time>
      </trkpt>
      <trkpt lat="46.95367" lon="8.58202">
        <ele>842</ele>
        <time>2021-08-10T10:00:33.772Z</time>
      </trkpt>
      <trkpt lat="46.95366" lon="8.58202">
        <ele>842</ele>
        <time>2021-08-10T10:00:34.772Z</time>
      </trkpt>
      <trkpt lat="46.95365" lon="8.58202">
        <ele>843</ele>
        <time>2021-08-10T10:00:35.772Z</time>
      </trkpt>
      <trkpt lat="46.95363" lon="8.58201">
        <ele>843</ele>
        <time>2021-08-10T10:00:36.772Z</time>
      </trkpt>
      <trkpt lat="46.95362" lon="8.58201">
        <ele>843</ele>
        <time>2021-08-10T10:00:37.771Z</time>
      </trkpt>
      <trkpt lat="46.95361" lon="8.58201">
        <ele>843</ele>
        <time>2021-08-10T10:00:38.771Z</time>
      </trkpt>
      <trkpt lat="46.9536" lon="8.58201">
        <ele>842</ele>
        <time>2021-08-10T10:00:39.772Z</time>
      </trkpt>
      <trkpt lat="46.95359" lon="8.58201">
        <ele>842</ele>
        <time>2021-08-10T10:00:40.772Z</time>
      </trkpt>
      <trkpt lat="46.95357" lon="8.582">
        <ele>841</ele>
        <time>2021-08-10T10:00:41.772Z</time>
      </trkpt>
      <trkpt lat="46.95357" lon="8.58199">
        <ele>841</ele>
        <time>2021-08-10T10:00:42.772Z</time>
      </trkpt>
      <trkpt lat="46.95356" lon="8.58198">
        <ele>840</ele>
        <time>2021-08-10T10:00:43.772Z</time>
      </trkpt>
      <trkpt lat="46.95356" lon="8.58197">
        <ele>840</ele>
        <time>2021-08-10T10:00:44.772Z</time>
      </trkpt>
      <trkpt lat="46.95357" lon="8.582">
        <ele>836</ele>
        <time>2021-08-10T10:00:45.773Z</time>
      </trkpt>
      <trkpt lat="46.95356" lon="8.582">
        <ele>836</ele>
        <time>2021-08-10T10:00:46.773Z</time>
      </trkpt>
      <trkpt lat="46.95356" lon="8.582">
        <ele>835</ele>
        <time>2021-08-10T10:00:47.772Z</time>
      </trkpt>
      <trkpt lat="46.95355" lon="8.582">
        <ele>835</ele>
        <time>2021-08-10T10:00:48.773Z</time>
      </trkpt>
      <trkpt lat="46.95355" lon="8.582">
        <ele>835</ele>
        <time>2021-08-10T10:00:49.773Z</time>
      </trkpt>
      <trkpt lat="46.95354" lon="8.58201">
        <ele>835</ele>
        <time>2021-08-10T10:00:50.773Z</time>
      </trkpt>
      <trkpt lat="46.95353" lon="8.58201">
        <ele>835</ele>
        <time>2021-08-10T10:00:51.773Z</time>
      </trkpt>
      <trkpt lat="46.95352" lon="8.58202">
        <ele>835</ele>
        <time>2021-08-10T10:00:52.773Z</time>
      </trkpt>
      <trkpt lat="46.95351" lon="8.58203">
        <ele>835</ele>
        <time>2021-08-10T10:00:53.773Z</time>
      </trkpt>
      <trkpt lat="46.95351" lon="8.58203">
        <ele>835</ele>
        <time>2021-08-10T10:00:54.773Z</time>
      </trkpt>
      <trkpt lat="46.9535" lon="8.58204">
        <ele>835</ele>
        <time>2021-08-10T10:00:55.772Z</time>
      </trkpt>
      <trkpt lat="46.9535" lon="8.58204">
        <ele>835</ele>
        <time>2021-08-10T10:00:56.773Z</time>
      </trkpt>
      <trkpt lat="46.9535" lon="8.58205">
        <ele>836</ele>
        <time>2021-08-10T10:00:57.773Z</time>
      </trkpt>
      <trkpt lat="46.9535" lon="8.58205">
        <ele>836</ele>
        <time>2021-08-10T10:00:58.772Z</time>
      </trkpt>
      <trkpt lat="46.95349" lon="8.58206">
        <ele>836</ele>
        <time>2021-08-10T10:00:59.773Z</time>
      </trkpt>
      <trkpt lat="46.95349" lon="8.58206">
        <ele>836</ele>
        <time>2021-08-10T10:01:00.773Z</time>
      </trkpt>
      <trkpt lat="46.95348" lon="8.58206">
        <ele>836</ele>
        <time>2021-08-10T10:01:01.772Z</time>
      </trkpt>
      <trkpt lat="46.95348" lon="8.58206">
        <ele>836</ele>
        <time>2021-08-10T10:01:02.773Z</time>
      </trkpt>
      <trkpt lat="46.95344" lon="8.58208">
        <ele>835</ele>
        <time>2021-08-10T10:01:03.773Z</time>
      </trkpt>
      <trkpt lat="46.95343" lon="8.58209">
        <ele>834</ele>
        <time>2021-08-10T10:01:04.772Z</time>
      </trkpt>
      <trkpt lat="46.95342" lon="8.58209">
        <ele>834</ele>
        <time>2021-08-10T10:01:05.772Z</time>
      </trkpt>
      <trkpt lat="46.9534" lon="8.58209">
        <ele>834</ele>
        <time>2021-08-10T10:01:06.772Z</time>
      </trkpt>
      <trkpt lat="46.95339" lon="8.58209">
        <ele>833</ele>
        <time>2021-08-10T10:01:07.773Z</time>
      </trkpt>
      <trkpt lat="46.95338" lon="8.5821">
        <ele>833</ele>
        <time>2021-08-10T10:01:08.772Z</time>
      </trkpt>
      <trkpt lat="46.95337" lon="8.5821">
        <ele>833</ele>
        <time>2021-08-10T10:01:09.772Z</time>
      </trkpt>
      <trkpt lat="46.95336" lon="8.58211">
        <ele>832</ele>
        <time>2021-08-10T10:01:10.773Z</time>
      </trkpt>
      <trkpt lat="46.95336" lon="8.58211">
        <ele>832</ele>
        <time>2021-08-10T10:01:11.772Z</time>
      </trkpt>
      <trkpt lat="46.95336" lon="8.5821">
        <ele>832</ele>
        <time>2021-08-10T10:01:12.772Z</time>
      </trkpt>
      <trkpt lat="46.95335" lon="8.5821">
        <ele>831</ele>
        <time>2021-08-10T10:01:13.772Z</time>
      </trkpt>
      <trkpt lat="46.95334" lon="8.5821">
        <ele>831</ele>
        <time>2021-08-10T10:01:14.773Z</time>
      </trkpt>
      <trkpt lat="46.95333" lon="8.5821">
        <ele>831</ele>
        <time>2021-08-10T10:01:15.773Z</time>
      </trkpt>
      <trkpt lat="46.95331" lon="8.5821">
        <ele>831</ele>
        <time>2021-08-10T10:01:16.772Z</time>
      </trkpt>
      <trkpt lat="46.95329" lon="8.58209">
        <ele>830</ele>
        <time>2021-08-10T10:01:17.772Z</time>
      </trkpt>
      <trkpt lat="46.95327" lon="8.58209">
        <ele>830</ele>
        <time>2021-08-10T10:01:18.773Z</time>
      </trkpt>
      <trkpt lat="46.95326" lon="8.58209">
        <ele>830</ele>
        <time>2021-08-10T10:01:19.773Z</time>
      </trkpt>
      <trkpt lat="46.95325" lon="8.58209">
        <ele>830</ele>
        <time>2021-08-10T10:01:20.773Z</time>
      </trkpt>
      <trkpt lat="46.95323" lon="8.58209">
        <ele>829</ele>
        <time>2021-08-10T10:01:21.772Z</time>
      </trkpt>
      <trkpt lat="46.95321" lon="8.58209">
        <ele>829</ele>
        <time>2021-08-10T10:01:22.773Z</time>
      </trkpt>
      <trkpt lat="46.9532" lon="8.5821">
        <ele>828</ele>
        <time>2021-08-10T10:01:23.773Z</time>
      </trkpt>
      <trkpt lat="46.95319" lon="8.5821">
        <ele>828</ele>
        <time>2021-08-10T10:01:24.773Z</time>
      </trkpt>
      <trkpt lat="46.95318" lon="8.5821">
        <ele>828</ele>
        <time>2021-08-10T10:01:25.772Z</time>
      </trkpt>
      <trkpt lat="46.95317" lon="8.58211">
        <ele>827</ele>
        <time>2021-08-10T10:01:26.773Z</time>
      </trkpt>
      <trkpt lat="46.95317" lon="8.58211">
        <ele>827</ele>
        <time>2021-08-10T10:01:27.773Z</time>
      </trkpt>
      <trkpt lat="46.95316" lon="8.58212">
        <ele>827</ele>
        <time>2021-08-10T10:01:28.772Z</time>
      </trkpt>
      <trkpt lat="46.95316" lon="8.58212">
        <ele>827</ele>
        <time>2021-08-10T10:01:29.772Z</time>
      </trkpt>
      <trkpt lat="46.95315" lon="8.58213">
        <ele>827</ele>
        <time>2021-08-10T10:01:30.772Z</time>
      </trkpt>
      <trkpt lat="46.95315" lon="8.58213">
        <ele>827</ele>
        <time>2021-08-10T10:01:31.772Z</time>
      </trkpt>
      <trkpt lat="46.95314" lon="8.58213">
        <ele>827</ele>
        <time>2021-08-10T10:01:32.772Z</time>
      </trkpt>
      <trkpt lat="46.95313" lon="8.58213">
        <ele>827</ele>
        <time>2021-08-10T10:01:33.772Z</time>
      </trkpt>
      <trkpt lat="46.95312" lon="8.58212">
        <ele>827</ele>
        <time>2021-08-10T10:01:34.772Z</time>
      </trkpt>
      <trkpt lat="46.95311" lon="8.58212">
        <ele>827</ele>
        <time>2021-08-10T10:01:35.773Z</time>
      </trkpt>
      <trkpt lat="46.9531" lon="8.58212">
        <ele>827</ele>
        <time>2021-08-10T10:01:36.772Z</time>
      </trkpt>
      <trkpt lat="46.9531" lon="8.58212">
        <ele>827</ele>
        <time>2021-08-10T10:01:37.772Z</time>
      </trkpt>
      <trkpt lat="46.95309" lon="8.58213">
        <ele>827</ele>
        <time>2021-08-10T10:01:38.773Z</time>
      </trkpt>
      <trkpt lat="46.95309" lon="8.58214">
        <ele>827</ele>
        <time>2021-08-10T10:01:39.773Z</time>
      </trkpt>
      <trkpt lat="46.95308" lon="8.58215">
        <ele>827</ele>
        <time>2021-08-10T10:01:40.772Z</time>
      </trkpt>
      <trkpt lat="46.95308" lon="8.58217">
        <ele>827</ele>
        <time>2021-08-10T10:01:41.772Z</time>
      </trkpt>
      <trkpt lat="46.95307" lon="8.58218">
        <ele>828</ele>
        <time>2021-08-10T10:01:42.773Z</time>
      </trkpt>
      <trkpt lat="46.95306" lon="8.58219">
        <ele>828</ele>
        <time>2021-08-10T10:01:43.773Z</time>
      </trkpt>
      <trkpt lat="46.95305" lon="8.5822">
        <ele>828</ele>
        <time>2021-08-10T10:01:44.773Z</time>
      </trkpt>
      <trkpt lat="46.95304" lon="8.58221">
        <ele>829</ele>
        <time>2021-08-10T10:01:45.773Z</time>
      </trkpt>
      <trkpt lat="46.95303" lon="8.58221">
        <ele>829</ele>
        <time>2021-08-10T10:01:46.772Z</time>
      </trkpt>
      <trkpt lat="46.95302" lon="8.58222">
        <ele>829</ele>
        <time>2021-08-10T10:01:47.773Z</time>
      </trkpt>
      <trkpt lat="46.953" lon="8.58223">
        <ele>828</ele>
        <time>2021-08-10T10:01:48.773Z</time>
      </trkpt>
      <trkpt lat="46.95299" lon="8.58224">
        <ele>828</ele>
        <time>2021-08-10T10:01:49.773Z</time>
      </trkpt>
      <trkpt lat="46.95299" lon="8.58226">
        <ele>828</ele>
        <time>2021-08-10T10:01:50.772Z</time>
      </trkpt>
      <trkpt lat="46.95298" lon="8.58227">
        <ele>828</ele>
        <time>2021-08-10T10:01:51.773Z</time>
      </trkpt>
      <trkpt lat="46.95297" lon="8.58228">
        <ele>827</ele>
        <time>2021-08-10T10:01:52.773Z</time>
      </trkpt>
      <trkpt lat="46.95295" lon="8.58229">
        <ele>827</ele>
        <time>2021-08-10T10:01:53.773Z</time>
      </trkpt>
      <trkpt lat="46.95293" lon="8.58229">
        <ele>827</ele>
        <time>2021-08-10T10:01:54.773Z</time>
      </trkpt>
      <trkpt lat="46.95292" lon="8.5823">
        <ele>827</ele>
        <time>2021-08-10T10:01:55.773Z</time>
      </trkpt>
      <trkpt lat="46.9529" lon="8.5823">
        <ele>827</ele>
        <time>2021-08-10T10:01:56.772Z</time>
      </trkpt>
      <trkpt lat="46.95288" lon="8.58232">
        <ele>827</ele>
        <time>2021-08-10T10:01:57.772Z</time>
      </trkpt>
      <trkpt lat="46.95287" lon="8.58233">
        <ele>827</ele>
        <time>2021-08-10T10:01:58.773Z</time>
      </trkpt>
      <trkpt lat="46.95287" lon="8.58234">
        <ele>827</ele>
        <time>2021-08-10T10:01:59.773Z</time>
      </trkpt>
      <trkpt lat="46.95286" lon="8.58235">
        <ele>827</ele>
        <time>2021-08-10T10:02:00.773Z</time>
      </trkpt>
      <trkpt lat="46.95286" lon="8.58236">
        <ele>826</ele>
        <time>2021-08-10T10:02:01.772Z</time>
      </trkpt>
      <trkpt lat="46.95285" lon="8.58237">
        <ele>826</ele>
        <time>2021-08-10T10:02:02.773Z</time>
      </trkpt>
      <trkpt lat="46.95284" lon="8.58239">
        <ele>826</ele>
        <time>2021-08-10T10:02:03.772Z</time>
      </trkpt>
      <trkpt lat="46.95284" lon="8.5824">
        <ele>826</ele>
        <time>2021-08-10T10:02:04.772Z</time>
      </trkpt>
      <trkpt lat="46.95283" lon="8.58242">
        <ele>826</ele>
        <time>2021-08-10T10:02:05.772Z</time>
      </trkpt>
      <trkpt lat="46.95282" lon="8.58243">
        <ele>825</ele>
        <time>2021-08-10T10:02:06.773Z</time>
      </trkpt>
      <trkpt lat="46.95281" lon="8.58244">
        <ele>825</ele>
        <time>2021-08-10T10:02:07.772Z</time>
      </trkpt>
      <trkpt lat="46.9528" lon="8.58245">
        <ele>825</ele>
        <time>2021-08-10T10:02:08.772Z</time>
      </trkpt>
      <trkpt lat="46.95279" lon="8.58245">
        <ele>824</ele>
        <time>2021-08-10T10:02:09.773Z</time>
      </trkpt>
      <trkpt lat="46.95277" lon="8.58246">
        <ele>824</ele>
        <time>2021-08-10T10:02:10.773Z</time>
      </trkpt>
      <trkpt lat="46.95275" lon="8.58246">
        <ele>824</ele>
        <time>2021-08-10T10:02:11.772Z</time>
      </trkpt>
      <trkpt lat="46.95273" lon="8.58247">
        <ele>824</ele>
        <time>2021-08-10T10:02:12.773Z</time>
      </trkpt>
      <trkpt lat="46.95272" lon="8.58248">
        <ele>823</ele>
        <time>2021-08-10T10:02:13.773Z</time>
      </trkpt>
      <trkpt lat="46.9527" lon="8.5825">
        <ele>823</ele>
        <time>2021-08-10T10:02:14.773Z</time>
      </trkpt>
      <trkpt lat="46.95268" lon="8.58251">
        <ele>822</ele>
        <time>2021-08-10T10:02:15.772Z</time>
      </trkpt>
      <trkpt lat="46.95267" lon="8.58252">
        <ele>822</ele>
        <time>2021-08-10T10:02:16.773Z</time>
      </trkpt>
      <trkpt lat="46.95266" lon="8.58253">
        <ele>821</ele>
        <time>2021-08-10T10:02:17.772Z</time>
      </trkpt>
      <trkpt lat="46.95265" lon="8.58256">
        <ele>821</ele>
        <time>2021-08-10T10:02:18.772Z</time>
      </trkpt>
      <trkpt lat="46.95265" lon="8.58259">
        <ele>821</ele>
        <time>2021-08-10T10:02:19.773Z</time>
      </trkpt>
      <trkpt lat="46.95266" lon="8.58261">
        <ele>821</ele>
        <time>2021-08-10T10:02:20.773Z</time>
      </trkpt>
      <trkpt lat="46.95267" lon="8.58263">
        <ele>821</ele>
        <time>2021-08-10T10:02:21.772Z</time>
      </trkpt>
      <trkpt lat="46.95267" lon="8.58265">
        <ele>821</ele>
        <time>2021-08-10T10:02:22.773Z</time>
      </trkpt>
      <trkpt lat="46.95267" lon="8.58267">
        <ele>822</ele>
        <time>2021-08-10T10:02:23.773Z</time>
      </trkpt>
      <trkpt lat="46.95267" lon="8.58269">
        <ele>822</ele>
        <time>2021-08-10T10:02:24.772Z</time>
      </trkpt>
      <trkpt lat="46.95266" lon="8.58271">
        <ele>822</ele>
        <time>2021-08-10T10:02:25.773Z</time>
      </trkpt>
      <trkpt lat="46.95266" lon="8.58273">
        <ele>822</ele>
        <time>2021-08-10T10:02:26.773Z</time>
      </trkpt>
      <trkpt lat="46.95266" lon="8.58274">
        <ele>822</ele>
        <time>2021-08-10T10:02:27.773Z</time>
      </trkpt>
      <trkpt lat="46.95266" lon="8.58276">
        <ele>821</ele>
        <time>2021-08-10T10:02:28.773Z</time>
      </trkpt>
      <trkpt lat="46.95266" lon="8.58278">
        <ele>821</ele>
        <time>2021-08-10T10:02:29.773Z</time>
      </trkpt>
      <trkpt lat="46.95265" lon="8.58279">
        <ele>821</ele>
        <time>2021-08-10T10:02:30.773Z</time>
      </trkpt>
      <trkpt lat="46.95265" lon="8.58281">
        <ele>821</ele>
        <time>2021-08-10T10:02:31.772Z</time>
      </trkpt>
      <trkpt lat="46.95264" lon="8.58283">
        <ele>820</ele>
        <time>2021-08-10T10:02:32.773Z</time>
      </trkpt>
      <trkpt lat="46.95264" lon="8.58284">
        <ele>820</ele>
        <time>2021-08-10T10:02:33.773Z</time>
      </trkpt>
      <trkpt lat="46.95263" lon="8.58285">
        <ele>821</ele>
        <time>2021-08-10T10:02:34.773Z</time>
      </trkpt>
      <trkpt lat="46.95261" lon="8.58286">
        <ele>820</ele>
        <time>2021-08-10T10:02:35.772Z</time>
      </trkpt>
      <trkpt lat="46.95261" lon="8.58288">
        <ele>820</ele>
        <time>2021-08-10T10:02:36.773Z</time>
      </trkpt>
      <trkpt lat="46.9526" lon="8.58289">
        <ele>820</ele>
        <time>2021-08-10T10:02:37.773Z</time>
      </trkpt>
      <trkpt lat="46.95259" lon="8.5829">
        <ele>820</ele>
        <time>2021-08-10T10:02:38.773Z</time>
      </trkpt>
      <trkpt lat="46.95259" lon="8.58292">
        <ele>820</ele>
        <time>2021-08-10T10:02:39.773Z</time>
      </trkpt>
      <trkpt lat="46.95258" lon="8.58293">
        <ele>820</ele>
        <time>2021-08-10T10:02:40.773Z</time>
      </trkpt>
      <trkpt lat="46.95257" lon="8.58295">
        <ele>819</ele>
        <time>2021-08-10T10:02:41.773Z</time>
      </trkpt>
      <trkpt lat="46.95257" lon="8.58296">
        <ele>819</ele>
        <time>2021-08-10T10:02:42.772Z</time>
      </trkpt>
      <trkpt lat="46.95257" lon="8.58298">
        <ele>818</ele>
        <time>2021-08-10T10:02:43.773Z</time>
      </trkpt>
      <trkpt lat="46.95257" lon="8.583">
        <ele>818</ele>
        <time>2021-08-10T10:02:44.773Z</time>
      </trkpt>
      <trkpt lat="46.95257" lon="8.58302">
        <ele>818</ele>
        <time>2021-08-10T10:02:45.773Z</time>
      </trkpt>
      <trkpt lat="46.95257" lon="8.58304">
        <ele>818</ele>
        <time>2021-08-10T10:02:46.773Z</time>
      </trkpt>
      <trkpt lat="46.95257" lon="8.58306">
        <ele>819</ele>
        <time>2021-08-10T10:02:47.773Z</time>
      </trkpt>
      <trkpt lat="46.95256" lon="8.58307">
        <ele>819</ele>
        <time>2021-08-10T10:02:48.773Z</time>
      </trkpt>
      <trkpt lat="46.95256" lon="8.58308">
        <ele>819</ele>
        <time>2021-08-10T10:02:49.772Z</time>
      </trkpt>
      <trkpt lat="46.95255" lon="8.58309">
        <ele>819</ele>
        <time>2021-08-10T10:02:50.773Z</time>
      </trkpt>
      <trkpt lat="46.95255" lon="8.58311">
        <ele>819</ele>
        <time>2021-08-10T10:02:51.773Z</time>
      </trkpt>
      <trkpt lat="46.95254" lon="8.58312">
        <ele>819</ele>
        <time>2021-08-10T10:02:52.773Z</time>
      </trkpt>
      <trkpt lat="46.95254" lon="8.58312">
        <ele>819</ele>
        <time>2021-08-10T10:02:53.772Z</time>
      </trkpt>
      <trkpt lat="46.95253" lon="8.58314">
        <ele>819</ele>
        <time>2021-08-10T10:02:54.773Z</time>
      </trkpt>
      <trkpt lat="46.95253" lon="8.58315">
        <ele>818</ele>
        <time>2021-08-10T10:02:55.772Z</time>
      </trkpt>
      <trkpt lat="46.95252" lon="8.58315">
        <ele>818</ele>
        <time>2021-08-10T10:02:56.773Z</time>
      </trkpt>
      <trkpt lat="46.95252" lon="8.58316">
        <ele>818</ele>
        <time>2021-08-10T10:02:57.773Z</time>
      </trkpt>
      <trkpt lat="46.95251" lon="8.58316">
        <ele>818</ele>
        <time>2021-08-10T10:02:58.773Z</time>
      </trkpt>
      <trkpt lat="46.9525" lon="8.58317">
        <ele>818</ele>
        <time>2021-08-10T10:02:59.773Z</time>
      </trkpt>
      <trkpt lat="46.9525" lon="8.58317">
        <ele>818</ele>
        <time>2021-08-10T10:03:00.772Z</time>
      </trkpt>
      <trkpt lat="46.9525" lon="8.58317">
        <ele>817</ele>
        <time>2021-08-10T10:03:01.773Z</time>
      </trkpt>
      <trkpt lat="46.9525" lon="8.58317">
        <ele>817</ele>
        <time>2021-08-10T10:03:02.773Z</time>
      </trkpt>
      <trkpt lat="46.9525" lon="8.58317">
        <ele>817</ele>
        <time>2021-08-10T10:03:03.773Z</time>
      </trkpt>
      <trkpt lat="46.9525" lon="8.58317">
        <ele>817</ele>
        <time>2021-08-10T10:03:04.772Z</time>
      </trkpt>
      <trkpt lat="46.9525" lon="8.58317">
        <ele>817</ele>
        <time>2021-08-10T10:03:05.772Z</time>
      </trkpt>
      <trkpt lat="46.95251" lon="8.58317">
        <ele>817</ele>
        <time>2021-08-10T10:03:06.772Z</time>
      </trkpt>
      <trkpt lat="46.95251" lon="8.58316">
        <ele>817</ele>
        <time>2021-08-10T10:03:07.773Z</time>
      </trkpt>
      <trkpt lat="46.9525" lon="8.58315">
        <ele>818</ele>
        <time>2021-08-10T10:03:08.772Z</time>
      </trkpt>
      <trkpt lat="46.9525" lon="8.58314">
        <ele>818</ele>
        <time>2021-08-10T10:03:09.772Z</time>
      </trkpt>
      <trkpt lat="46.9525" lon="8.58312">
        <ele>819</ele>
        <time>2021-08-10T10:03:10.772Z</time>
      </trkpt>
      <trkpt lat="46.95249" lon="8.58311">
        <ele>819</ele>
        <time>2021-08-10T10:03:11.773Z</time>
      </trkpt>
      <trkpt lat="46.95249" lon="8.5831">
        <ele>820</ele>
        <time>2021-08-10T10:03:12.773Z</time>
      </trkpt>
      <trkpt lat="46.95248" lon="8.58309">
        <ele>820</ele>
        <time>2021-08-10T10:03:13.772Z</time>
      </trkpt>
      <trkpt lat="46.95247" lon="8.58307">
        <ele>820</ele>
        <time>2021-08-10T10:03:14.773Z</time>
      </trkpt>
      <trkpt lat="46.95247" lon="8.58306">
        <ele>820</ele>
        <time>2021-08-10T10:03:15.773Z</time>
      </trkpt>
      <trkpt lat="46.95246" lon="8.58305">
        <ele>820</ele>
        <time>2021-08-10T10:03:16.773Z</time>
      </trkpt>
      <trkpt lat="46.95247" lon="8.58305">
        <ele>821</ele>
        <time>2021-08-10T10:03:17.773Z</time>
      </trkpt>
      <trkpt lat="46.95247" lon="8.58304">
        <ele>821</ele>
        <time>2021-08-10T10:03:18.772Z</time>
      </trkpt>
      <trkpt lat="46.95247" lon="8.58303">
        <ele>821</ele>
        <time>2021-08-10T10:03:19.773Z</time>
      </trkpt>
      <trkpt lat="46.95246" lon="8.58302">
        <ele>821</ele>
        <time>2021-08-10T10:03:20.773Z</time>
      </trkpt>
      <trkpt lat="46.95245" lon="8.58301">
        <ele>821</ele>
        <time>2021-08-10T10:03:21.773Z</time>
      </trkpt>
      <trkpt lat="46.95245" lon="8.58299">
        <ele>821</ele>
        <time>2021-08-10T10:03:22.772Z</time>
      </trkpt>
      <trkpt lat="46.95244" lon="8.58298">
        <ele>820</ele>
        <time>2021-08-10T10:03:23.772Z</time>
      </trkpt>
      <trkpt lat="46.95243" lon="8.58297">
        <ele>820</ele>
        <time>2021-08-10T10:03:24.772Z</time>
      </trkpt>
      <trkpt lat="46.95241" lon="8.58296">
        <ele>820</ele>
        <time>2021-08-10T10:03:25.773Z</time>
      </trkpt>
      <trkpt lat="46.95239" lon="8.58295">
        <ele>820</ele>
        <time>2021-08-10T10:03:26.773Z</time>
      </trkpt>
      <trkpt lat="46.95238" lon="8.58294">
        <ele>820</ele>
        <time>2021-08-10T10:03:27.773Z</time>
      </trkpt>
      <trkpt lat="46.95237" lon="8.58293">
        <ele>820</ele>
        <time>2021-08-10T10:03:28.773Z</time>
      </trkpt>
      <trkpt lat="46.95236" lon="8.58292">
        <ele>820</ele>
        <time>2021-08-10T10:03:29.772Z</time>
      </trkpt>
      <trkpt lat="46.95235" lon="8.58291">
        <ele>819</ele>
        <time>2021-08-10T10:03:30.773Z</time>
      </trkpt>
      <trkpt lat="46.95235" lon="8.5829">
        <ele>819</ele>
        <time>2021-08-10T10:03:31.773Z</time>
      </trkpt>
      <trkpt lat="46.95234" lon="8.58289">
        <ele>818</ele>
        <time>2021-08-10T10:03:32.773Z</time>
      </trkpt>
      <trkpt lat="46.95233" lon="8.58289">
        <ele>818</ele>
        <time>2021-08-10T10:03:33.772Z</time>
      </trkpt>
      <trkpt lat="46.95232" lon="8.58288">
        <ele>818</ele>
        <time>2021-08-10T10:03:34.772Z</time>
      </trkpt>
      <trkpt lat="46.95231" lon="8.58287">
        <ele>817</ele>
        <time>2021-08-10T10:03:35.772Z</time>
      </trkpt>
      <trkpt lat="46.9523" lon="8.58287">
        <ele>817</ele>
        <time>2021-08-10T10:03:36.773Z</time>
      </trkpt>
      <trkpt lat="46.95229" lon="8.58286">
        <ele>817</ele>
        <time>2021-08-10T10:03:37.772Z</time>
      </trkpt>
      <trkpt lat="46.95228" lon="8.58285">
        <ele>817</ele>
        <time>2021-08-10T10:03:38.773Z</time>
      </trkpt>
      <trkpt lat="46.95226" lon="8.58285">
        <ele>817</ele>
        <time>2021-08-10T10:03:39.773Z</time>
      </trkpt>
      <trkpt lat="46.95225" lon="8.58285">
        <ele>817</ele>
        <time>2021-08-10T10:03:40.772Z</time>
      </trkpt>
      <trkpt lat="46.95223" lon="8.58284">
        <ele>817</ele>
        <time>2021-08-10T10:03:41.773Z</time>
      </trkpt>
      <trkpt lat="46.95222" lon="8.58284">
        <ele>817</ele>
        <time>2021-08-10T10:03:42.772Z</time>
      </trkpt>
      <trkpt lat="46.95221" lon="8.58283">
        <ele>817</ele>
        <time>2021-08-10T10:03:43.772Z</time>
      </trkpt>
      <trkpt lat="46.9522" lon="8.58283">
        <ele>816</ele>
        <time>2021-08-10T10:03:44.772Z</time>
      </trkpt>
      <trkpt lat="46.9522" lon="8.58283">
        <ele>816</ele>
        <time>2021-08-10T10:03:45.772Z</time>
      </trkpt>
      <trkpt lat="46.95219" lon="8.58282">
        <ele>817</ele>
        <time>2021-08-10T10:03:46.772Z</time>
      </trkpt>
      <trkpt lat="46.95218" lon="8.58282">
        <ele>817</ele>
        <time>2021-08-10T10:03:47.773Z</time>
      </trkpt>
      <trkpt lat="46.95217" lon="8.58281">
        <ele>817</ele>
        <time>2021-08-10T10:03:48.773Z</time>
      </trkpt>
      <trkpt lat="46.95216" lon="8.5828">
        <ele>818</ele>
        <time>2021-08-10T10:03:49.773Z</time>
      </trkpt>
      <trkpt lat="46.95214" lon="8.58279">
        <ele>818</ele>
        <time>2021-08-10T10:03:50.773Z</time>
      </trkpt>
      <trkpt lat="46.95213" lon="8.58278">
        <ele>818</ele>
        <time>2021-08-10T10:03:51.772Z</time>
      </trkpt>
      <trkpt lat="46.95212" lon="8.58278">
        <ele>818</ele>
        <time>2021-08-10T10:03:52.772Z</time>
      </trkpt>
      <trkpt lat="46.95211" lon="8.58277">
        <ele>818</ele>
        <time>2021-08-10T10:03:53.772Z</time>
      </trkpt>
      <trkpt lat="46.95211" lon="8.58276">
        <ele>818</ele>
        <time>2021-08-10T10:03:54.773Z</time>
      </trkpt>
      <trkpt lat="46.9521" lon="8.58276">
        <ele>818</ele>
        <time>2021-08-10T10:03:55.773Z</time>
      </trkpt>
      <trkpt lat="46.95209" lon="8.58275">
        <ele>817</ele>
        <time>2021-08-10T10:03:56.773Z</time>
      </trkpt>
      <trkpt lat="46.95208" lon="8.58275">
        <ele>817</ele>
        <time>2021-08-10T10:03:57.773Z</time>
      </trkpt>
      <trkpt lat="46.95207" lon="8.58274">
        <ele>817</ele>
        <time>2021-08-10T10:03:58.772Z</time>
      </trkpt>
      <trkpt lat="46.95206" lon="8.58273">
        <ele>817</ele>
        <time>2021-08-10T10:03:59.773Z</time>
      </trkpt>
      <trkpt lat="46.95205" lon="8.58272">
        <ele>817</ele>
        <time>2021-08-10T10:04:00.772Z</time>
      </trkpt>
      <trkpt lat="46.95204" lon="8.58272">
        <ele>818</ele>
        <time>2021-08-10T10:04:01.773Z</time>
      </trkpt>
      <trkpt lat="46.95203" lon="8.58271">
        <ele>818</ele>
        <time>2021-08-10T10:04:02.772Z</time>
      </trkpt>
      <trkpt lat="46.95201" lon="8.58269">
        <ele>818</ele>
        <time>2021-08-10T10:04:03.772Z</time>
      </trkpt>
      <trkpt lat="46.95199" lon="8.58269">
        <ele>818</ele>
        <time>2021-08-10T10:04:04.773Z</time>
      </trkpt>
      <trkpt lat="46.95199" lon="8.58269">
        <ele>818</ele>
        <time>2021-08-10T10:04:05.773Z</time>
      </trkpt>
      <trkpt lat="46.95197" lon="8.5827">
        <ele>817</ele>
        <time>2021-08-10T10:04:06.773Z</time>
      </trkpt>
      <trkpt lat="46.95196" lon="8.58269">
        <ele>817</ele>
        <time>2021-08-10T10:04:07.772Z</time>
      </trkpt>
      <trkpt lat="46.95195" lon="8.58269">
        <ele>816</ele>
        <time>2021-08-10T10:04:08.773Z</time>
      </trkpt>
      <trkpt lat="46.95195" lon="8.58268">
        <ele>816</ele>
        <time>2021-08-10T10:04:09.772Z</time>
      </trkpt>
      <trkpt lat="46.95194" lon="8.58267">
        <ele>815</ele>
        <time>2021-08-10T10:04:10.772Z</time>
      </trkpt>
      <trkpt lat="46.95193" lon="8.58267">
        <ele>815</ele>
        <time>2021-08-10T10:04:11.772Z</time>
      </trkpt>
      <trkpt lat="46.95192" lon="8.58266">
        <ele>815</ele>
        <time>2021-08-10T10:04:12.772Z</time>
      </trkpt>
      <trkpt lat="46.9519" lon="8.58265">
        <ele>815</ele>
        <time>2021-08-10T10:04:13.773Z</time>
      </trkpt>
      <trkpt lat="46.95189" lon="8.58265">
        <ele>815</ele>
        <time>2021-08-10T10:04:14.772Z</time>
      </trkpt>
      <trkpt lat="46.95187" lon="8.58264">
        <ele>814</ele>
        <time>2021-08-10T10:04:15.772Z</time>
      </trkpt>
      <trkpt lat="46.95186" lon="8.58264">
        <ele>814</ele>
        <time>2021-08-10T10:04:16.773Z</time>
      </trkpt>
      <trkpt lat="46.95185" lon="8.58264">
        <ele>814</ele>
        <time>2021-08-10T10:04:17.773Z</time>
      </trkpt>
      <trkpt lat="46.95184" lon="8.58264">
        <ele>814</ele>
        <time>2021-08-10T10:04:18.773Z</time>
      </trkpt>
      <trkpt lat="46.95183" lon="8.58263">
        <ele>814</ele>
        <time>2021-08-10T10:04:19.772Z</time>
      </trkpt>
      <trkpt lat="46.95182" lon="8.58263">
        <ele>813</ele>
        <time>2021-08-10T10:04:20.772Z</time>
      </trkpt>
      <trkpt lat="46.95181" lon="8.58263">
        <ele>814</ele>
        <time>2021-08-10T10:04:21.772Z</time>
      </trkpt>
      <trkpt lat="46.9518" lon="8.58262">
        <ele>814</ele>
        <time>2021-08-10T10:04:22.773Z</time>
      </trkpt>
      <trkpt lat="46.95179" lon="8.58262">
        <ele>814</ele>
        <time>2021-08-10T10:04:23.773Z</time>
      </trkpt>
      <trkpt lat="46.95179" lon="8.58261">
        <ele>814</ele>
        <time>2021-08-10T10:04:24.773Z</time>
      </trkpt>
      <trkpt lat="46.95178" lon="8.58261">
        <ele>813</ele>
        <time>2021-08-10T10:04:25.773Z</time>
      </trkpt>
      <trkpt lat="46.95177" lon="8.58261">
        <ele>813</ele>
        <time>2021-08-10T10:04:26.772Z</time>
      </trkpt>
      <trkpt lat="46.95176" lon="8.58261">
        <ele>813</ele>
        <time>2021-08-10T10:04:27.772Z</time>
      </trkpt>
      <trkpt lat="46.95176" lon="8.58261">
        <ele>813</ele>
        <time>2021-08-10T10:04:28.773Z</time>
      </trkpt>
      <trkpt lat="46.95174" lon="8.58261">
        <ele>812</ele>
        <time>2021-08-10T10:04:29.773Z</time>
      </trkpt>
      <trkpt lat="46.95173" lon="8.58261">
        <ele>812</ele>
        <time>2021-08-10T10:04:30.772Z</time>
      </trkpt>
      <trkpt lat="46.95172" lon="8.5826">
        <ele>812</ele>
        <time>2021-08-10T10:04:31.772Z</time>
      </trkpt>
      <trkpt lat="46.95172" lon="8.58259">
        <ele>813</ele>
        <time>2021-08-10T10:04:32.773Z</time>
      </trkpt>
      <trkpt lat="46.95171" lon="8.58259">
        <ele>813</ele>
        <time>2021-08-10T10:04:33.773Z</time>
      </trkpt>
      <trkpt lat="46.9517" lon="8.58258">
        <ele>813</ele>
        <time>2021-08-10T10:04:34.773Z</time>
      </trkpt>
      <trkpt lat="46.95169" lon="8.58257">
        <ele>812</ele>
        <time>2021-08-10T10:04:35.772Z</time>
      </trkpt>
      <trkpt lat="46.95169" lon="8.58256">
        <ele>812</ele>
        <time>2021-08-10T10:04:36.772Z</time>
      </trkpt>
      <trkpt lat="46.95168" lon="8.58255">
        <ele>811</ele>
        <time>2021-08-10T10:04:37.772Z</time>
      </trkpt>
      <trkpt lat="46.95168" lon="8.58253">
        <ele>811</ele>
        <time>2021-08-10T10:04:38.773Z</time>
      </trkpt>
      <trkpt lat="46.95167" lon="8.58252">
        <ele>810</ele>
        <time>2021-08-10T10:04:39.772Z</time>
      </trkpt>
      <trkpt lat="46.95166" lon="8.58251">
        <ele>810</ele>
        <time>2021-08-10T10:04:40.772Z</time>
      </trkpt>
      <trkpt lat="46.95164" lon="8.5825">
        <ele>809</ele>
        <time>2021-08-10T10:04:41.772Z</time>
      </trkpt>
      <trkpt lat="46.95164" lon="8.58249">
        <ele>809</ele>
        <time>2021-08-10T10:04:42.773Z</time>
      </trkpt>
      <trkpt lat="46.95163" lon="8.58248">
        <ele>808</ele>
        <time>2021-08-10T10:04:43.773Z</time>
      </trkpt>
      <trkpt lat="46.95162" lon="8.58247">
        <ele>808</ele>
        <time>2021-08-10T10:04:44.772Z</time>
      </trkpt>
      <trkpt lat="46.95161" lon="8.58246">
        <ele>807</ele>
        <time>2021-08-10T10:04:45.772Z</time>
      </trkpt>
      <trkpt lat="46.95159" lon="8.58245">
        <ele>807</ele>
        <time>2021-08-10T10:04:46.773Z</time>
      </trkpt>
      <trkpt lat="46.95158" lon="8.58244">
        <ele>807</ele>
        <time>2021-08-10T10:04:47.773Z</time>
      </trkpt>
      <trkpt lat="46.95156" lon="8.58244">
        <ele>806</ele>
        <time>2021-08-10T10:04:48.772Z</time>
      </trkpt>
      <trkpt lat="46.95155" lon="8.58242">
        <ele>806</ele>
        <time>2021-08-10T10:04:49.772Z</time>
      </trkpt>
      <trkpt lat="46.95154" lon="8.58241">
        <ele>806</ele>
        <time>2021-08-10T10:04:50.772Z</time>
      </trkpt>
      <trkpt lat="46.95153" lon="8.5824">
        <ele>805</ele>
        <time>2021-08-10T10:04:51.773Z</time>
      </trkpt>
      <trkpt lat="46.95153" lon="8.58239">
        <ele>805</ele>
        <time>2021-08-10T10:04:52.772Z</time>
      </trkpt>
      <trkpt lat="46.95152" lon="8.58238">
        <ele>805</ele>
        <time>2021-08-10T10:04:53.773Z</time>
      </trkpt>
      <trkpt lat="46.95151" lon="8.58238">
        <ele>804</ele>
        <time>2021-08-10T10:04:54.773Z</time>
      </trkpt>
      <trkpt lat="46.95149" lon="8.58238">
        <ele>804</ele>
        <time>2021-08-10T10:04:55.773Z</time>
      </trkpt>
      <trkpt lat="46.95147" lon="8.58237">
        <ele>803</ele>
        <time>2021-08-10T10:04:56.772Z</time>
      </trkpt>
      <trkpt lat="46.95145" lon="8.58238">
        <ele>802</ele>
        <time>2021-08-10T10:04:57.773Z</time>
      </trkpt>
      <trkpt lat="46.95144" lon="8.58238">
        <ele>802</ele>
        <time>2021-08-10T10:04:58.773Z</time>
      </trkpt>
      <trkpt lat="46.95143" lon="8.58238">
        <ele>801</ele>
        <time>2021-08-10T10:04:59.772Z</time>
      </trkpt>
      <trkpt lat="46.95143" lon="8.58238">
        <ele>801</ele>
        <time>2021-08-10T10:05:00.772Z</time>
      </trkpt>
      <trkpt lat="46.95142" lon="8.58236">
        <ele>801</ele>
        <time>2021-08-10T10:05:01.772Z</time>
      </trkpt>
      <trkpt lat="46.95142" lon="8.58235">
        <ele>801</ele>
        <time>2021-08-10T10:05:02.773Z</time>
      </trkpt>
      <trkpt lat="46.95141" lon="8.58235">
        <ele>802</ele>
        <time>2021-08-10T10:05:03.772Z</time>
      </trkpt>
      <trkpt lat="46.9514" lon="8.58234">
        <ele>802</ele>
        <time>2021-08-10T10:05:04.773Z</time>
      </trkpt>
      <trkpt lat="46.9514" lon="8.58234">
        <ele>803</ele>
        <time>2021-08-10T10:05:05.772Z</time>
      </trkpt>
      <trkpt lat="46.95138" lon="8.58233">
        <ele>803</ele>
        <time>2021-08-10T10:05:06.772Z</time>
      </trkpt>
      <trkpt lat="46.95137" lon="8.58233">
        <ele>803</ele>
        <time>2021-08-10T10:05:07.773Z</time>
      </trkpt>
      <trkpt lat="46.95136" lon="8.58232">
        <ele>804</ele>
        <time>2021-08-10T10:05:08.773Z</time>
      </trkpt>
      <trkpt lat="46.95135" lon="8.58232">
        <ele>804</ele>
        <time>2021-08-10T10:05:09.772Z</time>
      </trkpt>
      <trkpt lat="46.95134" lon="8.58231">
        <ele>804</ele>
        <time>2021-08-10T10:05:10.772Z</time>
      </trkpt>
      <trkpt lat="46.95133" lon="8.5823">
        <ele>804</ele>
        <time>2021-08-10T10:05:11.772Z</time>
      </trkpt>
      <trkpt lat="46.95133" lon="8.58229">
        <ele>805</ele>
        <time>2021-08-10T10:05:12.772Z</time>
      </trkpt>
      <trkpt lat="46.95132" lon="8.58228">
        <ele>805</ele>
        <time>2021-08-10T10:05:13.773Z</time>
      </trkpt>
      <trkpt lat="46.95131" lon="8.58228">
        <ele>805</ele>
        <time>2021-08-10T10:05:14.772Z</time>
      </trkpt>
      <trkpt lat="46.9513" lon="8.58227">
        <ele>805</ele>
        <time>2021-08-10T10:05:15.772Z</time>
      </trkpt>
      <trkpt lat="46.95128" lon="8.58227">
        <ele>805</ele>
        <time>2021-08-10T10:05:16.772Z</time>
      </trkpt>
      <trkpt lat="46.95128" lon="8.58226">
        <ele>806</ele>
        <time>2021-08-10T10:05:17.773Z</time>
      </trkpt>
      <trkpt lat="46.95126" lon="8.58227">
        <ele>807</ele>
        <time>2021-08-10T10:05:18.773Z</time>
      </trkpt>
      <trkpt lat="46.95125" lon="8.58227">
        <ele>807</ele>
        <time>2021-08-10T10:05:19.772Z</time>
      </trkpt>
      <trkpt lat="46.95123" lon="8.58226">
        <ele>807</ele>
        <time>2021-08-10T10:05:20.772Z</time>
      </trkpt>
      <trkpt lat="46.95122" lon="8.58226">
        <ele>807</ele>
        <time>2021-08-10T10:05:21.772Z</time>
      </trkpt>
      <trkpt lat="46.95121" lon="8.58226">
        <ele>807</ele>
        <time>2021-08-10T10:05:22.773Z</time>
      </trkpt>
      <trkpt lat="46.9512" lon="8.58226">
        <ele>807</ele>
        <time>2021-08-10T10:05:23.773Z</time>
      </trkpt>
      <trkpt lat="46.95119" lon="8.58226">
        <ele>807</ele>
        <time>2021-08-10T10:05:24.772Z</time>
      </trkpt>
      <trkpt lat="46.95117" lon="8.58225">
        <ele>807</ele>
        <time>2021-08-10T10:05:25.772Z</time>
      </trkpt>
      <trkpt lat="46.95116" lon="8.58224">
        <ele>807</ele>
        <time>2021-08-10T10:05:26.772Z</time>
      </trkpt>
      <trkpt lat="46.95115" lon="8.58224">
        <ele>807</ele>
        <time>2021-08-10T10:05:27.772Z</time>
      </trkpt>
      <trkpt lat="46.95113" lon="8.58223">
        <ele>807</ele>
        <time>2021-08-10T10:05:28.773Z</time>
      </trkpt>
      <trkpt lat="46.95112" lon="8.58222">
        <ele>807</ele>
        <time>2021-08-10T10:05:29.772Z</time>
      </trkpt>
      <trkpt lat="46.9511" lon="8.58222">
        <ele>807</ele>
        <time>2021-08-10T10:05:30.772Z</time>
      </trkpt>
      <trkpt lat="46.95109" lon="8.58221">
        <ele>807</ele>
        <time>2021-08-10T10:05:31.772Z</time>
      </trkpt>
      <trkpt lat="46.95108" lon="8.5822">
        <ele>807</ele>
        <time>2021-08-10T10:05:32.773Z</time>
      </trkpt>
      <trkpt lat="46.95107" lon="8.5822">
        <ele>807</ele>
        <time>2021-08-10T10:05:33.773Z</time>
      </trkpt>
      <trkpt lat="46.95106" lon="8.58219">
        <ele>807</ele>
        <time>2021-08-10T10:05:34.772Z</time>
      </trkpt>
      <trkpt lat="46.95105" lon="8.58219">
        <ele>807</ele>
        <time>2021-08-10T10:05:35.772Z</time>
      </trkpt>
      <trkpt lat="46.95104" lon="8.58219">
        <ele>807</ele>
        <time>2021-08-10T10:05:36.772Z</time>
      </trkpt>
      <trkpt lat="46.95103" lon="8.58219">
        <ele>807</ele>
        <time>2021-08-10T10:05:37.773Z</time>
      </trkpt>
      <trkpt lat="46.95102" lon="8.58219">
        <ele>807</ele>
        <time>2021-08-10T10:05:38.772Z</time>
      </trkpt>
      <trkpt lat="46.95101" lon="8.58218">
        <ele>807</ele>
        <time>2021-08-10T10:05:39.772Z</time>
      </trkpt>
      <trkpt lat="46.95101" lon="8.58218">
        <ele>807</ele>
        <time>2021-08-10T10:05:40.772Z</time>
      </trkpt>
      <trkpt lat="46.951" lon="8.58218">
        <ele>807</ele>
        <time>2021-08-10T10:05:41.772Z</time>
      </trkpt>
      <trkpt lat="46.95098" lon="8.58217">
        <ele>807</ele>
        <time>2021-08-10T10:05:42.772Z</time>
      </trkpt>
      <trkpt lat="46.95098" lon="8.58217">
        <ele>807</ele>
        <time>2021-08-10T10:05:43.772Z</time>
      </trkpt>
      <trkpt lat="46.95097" lon="8.58217">
        <ele>806</ele>
        <time>2021-08-10T10:05:44.772Z</time>
      </trkpt>
      <trkpt lat="46.95096" lon="8.58215">
        <ele>806</ele>
        <time>2021-08-10T10:05:45.772Z</time>
      </trkpt>
      <trkpt lat="46.95094" lon="8.58214">
        <ele>806</ele>
        <time>2021-08-10T10:05:46.772Z</time>
      </trkpt>
      <trkpt lat="46.95093" lon="8.58213">
        <ele>806</ele>
        <time>2021-08-10T10:05:47.772Z</time>
      </trkpt>
      <trkpt lat="46.95092" lon="8.58211">
        <ele>805</ele>
        <time>2021-08-10T10:05:48.772Z</time>
      </trkpt>
      <trkpt lat="46.95091" lon="8.58211">
        <ele>805</ele>
        <time>2021-08-10T10:05:49.772Z</time>
      </trkpt>
      <trkpt lat="46.95091" lon="8.58211">
        <ele>805</ele>
        <time>2021-08-10T10:05:50.772Z</time>
      </trkpt>
      <trkpt lat="46.9509" lon="8.58211">
        <ele>805</ele>
        <time>2021-08-10T10:05:51.772Z</time>
      </trkpt>
      <trkpt lat="46.95089" lon="8.58211">
        <ele>805</ele>
        <time>2021-08-10T10:05:52.772Z</time>
      </trkpt>
      <trkpt lat="46.95088" lon="8.58211">
        <ele>805</ele>
        <time>2021-08-10T10:05:53.773Z</time>
      </trkpt>
      <trkpt lat="46.95087" lon="8.5821">
        <ele>805</ele>
        <time>2021-08-10T10:05:54.773Z</time>
      </trkpt>
      <trkpt lat="46.95086" lon="8.58209">
        <ele>805</ele>
        <time>2021-08-10T10:05:55.772Z</time>
      </trkpt>
      <trkpt lat="46.95084" lon="8.58209">
        <ele>804</ele>
        <time>2021-08-10T10:05:56.773Z</time>
      </trkpt>
      <trkpt lat="46.95083" lon="8.58208">
        <ele>804</ele>
        <time>2021-08-10T10:05:57.772Z</time>
      </trkpt>
      <trkpt lat="46.95082" lon="8.58207">
        <ele>804</ele>
        <time>2021-08-10T10:05:58.772Z</time>
      </trkpt>
      <trkpt lat="46.95081" lon="8.58206">
        <ele>804</ele>
        <time>2021-08-10T10:05:59.772Z</time>
      </trkpt>
      <trkpt lat="46.9508" lon="8.58205">
        <ele>804</ele>
        <time>2021-08-10T10:06:00.773Z</time>
      </trkpt>
      <trkpt lat="46.95078" lon="8.58205">
        <ele>803</ele>
        <time>2021-08-10T10:06:01.773Z</time>
      </trkpt>
      <trkpt lat="46.95077" lon="8.58204">
        <ele>803</ele>
        <time>2021-08-10T10:06:02.773Z</time>
      </trkpt>
      <trkpt lat="46.95076" lon="8.58204">
        <ele>803</ele>
        <time>2021-08-10T10:06:03.772Z</time>
      </trkpt>
      <trkpt lat="46.95075" lon="8.58203">
        <ele>803</ele>
        <time>2021-08-10T10:06:04.773Z</time>
      </trkpt>
      <trkpt lat="46.95073" lon="8.58202">
        <ele>803</ele>
        <time>2021-08-10T10:06:05.773Z</time>
      </trkpt>
      <trkpt lat="46.95072" lon="8.58202">
        <ele>803</ele>
        <time>2021-08-10T10:06:06.773Z</time>
      </trkpt>
      <trkpt lat="46.95071" lon="8.58201">
        <ele>802</ele>
        <time>2021-08-10T10:06:07.773Z</time>
      </trkpt>
      <trkpt lat="46.9507" lon="8.582">
        <ele>802</ele>
        <time>2021-08-10T10:06:08.773Z</time>
      </trkpt>
      <trkpt lat="46.95069" lon="8.582">
        <ele>802</ele>
        <time>2021-08-10T10:06:09.773Z</time>
      </trkpt>
      <trkpt lat="46.95068" lon="8.58199">
        <ele>803</ele>
        <time>2021-08-10T10:06:10.773Z</time>
      </trkpt>
      <trkpt lat="46.95067" lon="8.58198">
        <ele>803</ele>
        <time>2021-08-10T10:06:11.773Z</time>
      </trkpt>
      <trkpt lat="46.95066" lon="8.58198">
        <ele>803</ele>
        <time>2021-08-10T10:06:12.773Z</time>
      </trkpt>
      <trkpt lat="46.95064" lon="8.58197">
        <ele>804</ele>
        <time>2021-08-10T10:06:13.773Z</time>
      </trkpt>
      <trkpt lat="46.95063" lon="8.58196">
        <ele>804</ele>
        <time>2021-08-10T10:06:14.772Z</time>
      </trkpt>
      <trkpt lat="46.95062" lon="8.58195">
        <ele>804</ele>
        <time>2021-08-10T10:06:15.773Z</time>
      </trkpt>
      <trkpt lat="46.95061" lon="8.58195">
        <ele>804</ele>
        <time>2021-08-10T10:06:16.773Z</time>
      </trkpt>
      <trkpt lat="46.9506" lon="8.58194">
        <ele>805</ele>
        <time>2021-08-10T10:06:17.773Z</time>
      </trkpt>
      <trkpt lat="46.95059" lon="8.58193">
        <ele>805</ele>
        <time>2021-08-10T10:06:18.773Z</time>
      </trkpt>
      <trkpt lat="46.95057" lon="8.58192">
        <ele>805</ele>
        <time>2021-08-10T10:06:19.773Z</time>
      </trkpt>
      <trkpt lat="46.95056" lon="8.58192">
        <ele>805</ele>
        <time>2021-08-10T10:06:20.773Z</time>
      </trkpt>
      <trkpt lat="46.95054" lon="8.58191">
        <ele>806</ele>
        <time>2021-08-10T10:06:21.773Z</time>
      </trkpt>
      <trkpt lat="46.95053" lon="8.58192">
        <ele>806</ele>
        <time>2021-08-10T10:06:22.773Z</time>
      </trkpt>
      <trkpt lat="46.95052" lon="8.58193">
        <ele>807</ele>
        <time>2021-08-10T10:06:23.773Z</time>
      </trkpt>
      <trkpt lat="46.9505" lon="8.58193">
        <ele>807</ele>
        <time>2021-08-10T10:06:24.773Z</time>
      </trkpt>
      <trkpt lat="46.95049" lon="8.58192">
        <ele>808</ele>
        <time>2021-08-10T10:06:25.773Z</time>
      </trkpt>
      <trkpt lat="46.95048" lon="8.58192">
        <ele>808</ele>
        <time>2021-08-10T10:06:26.772Z</time>
      </trkpt>
      <trkpt lat="46.95047" lon="8.58192">
        <ele>809</ele>
        <time>2021-08-10T10:06:27.773Z</time>
      </trkpt>
      <trkpt lat="46.95046" lon="8.58191">
        <ele>810</ele>
        <time>2021-08-10T10:06:28.772Z</time>
      </trkpt>
      <trkpt lat="46.95045" lon="8.58191">
        <ele>811</ele>
        <time>2021-08-10T10:06:29.773Z</time>
      </trkpt>
      <trkpt lat="46.95044" lon="8.58191">
        <ele>811</ele>
        <time>2021-08-10T10:06:30.772Z</time>
      </trkpt>
      <trkpt lat="46.95043" lon="8.5819">
        <ele>812</ele>
        <time>2021-08-10T10:06:31.773Z</time>
      </trkpt>
      <trkpt lat="46.95043" lon="8.58189">
        <ele>812</ele>
        <time>2021-08-10T10:06:32.772Z</time>
      </trkpt>
      <trkpt lat="46.95042" lon="8.58187">
        <ele>812</ele>
        <time>2021-08-10T10:06:33.773Z</time>
      </trkpt>
      <trkpt lat="46.95042" lon="8.58186">
        <ele>812</ele>
        <time>2021-08-10T10:06:34.773Z</time>
      </trkpt>
      <trkpt lat="46.9504" lon="8.58186">
        <ele>812</ele>
        <time>2021-08-10T10:06:35.773Z</time>
      </trkpt>
      <trkpt lat="46.95039" lon="8.58186">
        <ele>812</ele>
        <time>2021-08-10T10:06:36.773Z</time>
      </trkpt>
      <trkpt lat="46.95038" lon="8.58186">
        <ele>812</ele>
        <time>2021-08-10T10:06:37.772Z</time>
      </trkpt>
      <trkpt lat="46.95037" lon="8.58185">
        <ele>811</ele>
        <time>2021-08-10T10:06:38.772Z</time>
      </trkpt>
      <trkpt lat="46.95036" lon="8.58185">
        <ele>811</ele>
        <time>2021-08-10T10:06:39.773Z</time>
      </trkpt>
      <trkpt lat="46.95035" lon="8.58184">
        <ele>810</ele>
        <time>2021-08-10T10:06:40.772Z</time>
      </trkpt>
      <trkpt lat="46.95034" lon="8.58183">
        <ele>810</ele>
        <time>2021-08-10T10:06:41.772Z</time>
      </trkpt>
      <trkpt lat="46.95034" lon="8.58182">
        <ele>809</ele>
        <time>2021-08-10T10:06:42.773Z</time>
      </trkpt>
      <trkpt lat="46.95033" lon="8.58181">
        <ele>809</ele>
        <time>2021-08-10T10:06:43.773Z</time>
      </trkpt>
      <trkpt lat="46.95032" lon="8.5818">
        <ele>808</ele>
        <time>2021-08-10T10:06:44.773Z</time>
      </trkpt>
      <trkpt lat="46.95031" lon="8.5818">
        <ele>808</ele>
        <time>2021-08-10T10:06:45.773Z</time>
      </trkpt>
      <trkpt lat="46.9503" lon="8.58179">
        <ele>807</ele>
        <time>2021-08-10T10:06:46.772Z</time>
      </trkpt>
      <trkpt lat="46.95029" lon="8.58179">
        <ele>807</ele>
        <time>2021-08-10T10:06:47.773Z</time>
      </trkpt>
      <trkpt lat="46.95029" lon="8.58177">
        <ele>806</ele>
        <time>2021-08-10T10:06:48.773Z</time>
      </trkpt>
      <trkpt lat="46.95028" lon="8.58176">
        <ele>806</ele>
        <time>2021-08-10T10:06:49.772Z</time>
      </trkpt>
      <trkpt lat="46.95027" lon="8.58175">
        <ele>805</ele>
        <time>2021-08-10T10:06:50.772Z</time>
      </trkpt>
      <trkpt lat="46.95027" lon="8.58174">
        <ele>805</ele>
        <time>2021-08-10T10:06:51.773Z</time>
      </trkpt>
      <trkpt lat="46.95026" lon="8.58174">
        <ele>805</ele>
        <time>2021-08-10T10:06:52.773Z</time>
      </trkpt>
      <trkpt lat="46.95024" lon="8.58174">
        <ele>804</ele>
        <time>2021-08-10T10:06:53.772Z</time>
      </trkpt>
      <trkpt lat="46.95024" lon="8.58174">
        <ele>804</ele>
        <time>2021-08-10T10:06:54.772Z</time>
      </trkpt>
      <trkpt lat="46.95023" lon="8.58174">
        <ele>804</ele>
        <time>2021-08-10T10:06:55.773Z</time>
      </trkpt>
      <trkpt lat="46.95023" lon="8.58173">
        <ele>804</ele>
        <time>2021-08-10T10:06:56.773Z</time>
      </trkpt>
      <trkpt lat="46.95022" lon="8.58173">
        <ele>804</ele>
        <time>2021-08-10T10:06:57.773Z</time>
      </trkpt>
      <trkpt lat="46.95021" lon="8.58172">
        <ele>805</ele>
        <time>2021-08-10T10:06:58.773Z</time>
      </trkpt>
      <trkpt lat="46.9502" lon="8.58171">
        <ele>805</ele>
        <time>2021-08-10T10:06:59.773Z</time>
      </trkpt>
      <trkpt lat="46.95019" lon="8.5817">
        <ele>805</ele>
        <time>2021-08-10T10:07:00.773Z</time>
      </trkpt>
      <trkpt lat="46.95018" lon="8.5817">
        <ele>805</ele>
        <time>2021-08-10T10:07:01.773Z</time>
      </trkpt>
      <trkpt lat="46.95016" lon="8.58169">
        <ele>805</ele>
        <time>2021-08-10T10:07:02.773Z</time>
      </trkpt>
      <trkpt lat="46.95015" lon="8.58169">
        <ele>805</ele>
        <time>2021-08-10T10:07:03.772Z</time>
      </trkpt>
      <trkpt lat="46.95014" lon="8.58168">
        <ele>806</ele>
        <time>2021-08-10T10:07:04.772Z</time>
      </trkpt>
      <trkpt lat="46.95013" lon="8.58168">
        <ele>806</ele>
        <time>2021-08-10T10:07:05.772Z</time>
      </trkpt>
      <trkpt lat="46.95012" lon="8.58167">
        <ele>806</ele>
        <time>2021-08-10T10:07:06.773Z</time>
      </trkpt>
      <trkpt lat="46.95011" lon="8.58167">
        <ele>806</ele>
        <time>2021-08-10T10:07:07.773Z</time>
      </trkpt>
      <trkpt lat="46.9501" lon="8.58166">
        <ele>806</ele>
        <time>2021-08-10T10:07:08.773Z</time>
      </trkpt>
      <trkpt lat="46.9501" lon="8.58165">
        <ele>807</ele>
        <time>2021-08-10T10:07:09.772Z</time>
      </trkpt>
      <trkpt lat="46.95009" lon="8.58164">
        <ele>807</ele>
        <time>2021-08-10T10:07:10.773Z</time>
      </trkpt>
      <trkpt lat="46.95009" lon="8.58161">
        <ele>807</ele>
        <time>2021-08-10T10:07:11.773Z</time>
      </trkpt>
      <trkpt lat="46.95008" lon="8.5816">
        <ele>807</ele>
        <time>2021-08-10T10:07:12.772Z</time>
      </trkpt>
      <trkpt lat="46.95008" lon="8.58159">
        <ele>807</ele>
        <time>2021-08-10T10:07:13.773Z</time>
      </trkpt>
      <trkpt lat="46.95008" lon="8.58158">
        <ele>807</ele>
        <time>2021-08-10T10:07:14.773Z</time>
      </trkpt>
      <trkpt lat="46.95008" lon="8.58157">
        <ele>807</ele>
        <time>2021-08-10T10:07:15.773Z</time>
      </trkpt>
      <trkpt lat="46.95007" lon="8.58156">
        <ele>807</ele>
        <time>2021-08-10T10:07:16.773Z</time>
      </trkpt>
      <trkpt lat="46.95006" lon="8.58156">
        <ele>807</ele>
        <time>2021-08-10T10:07:17.773Z</time>
      </trkpt>
      <trkpt lat="46.95004" lon="8.58154">
        <ele>807</ele>
        <time>2021-08-10T10:07:18.773Z</time>
      </trkpt>
      <trkpt lat="46.95003" lon="8.58153">
        <ele>807</ele>
        <time>2021-08-10T10:07:19.773Z</time>
      </trkpt>
      <trkpt lat="46.95002" lon="8.58152">
        <ele>807</ele>
        <time>2021-08-10T10:07:20.773Z</time>
      </trkpt>
      <trkpt lat="46.95002" lon="8.58151">
        <ele>807</ele>
        <time>2021-08-10T10:07:21.773Z</time>
      </trkpt>
      <trkpt lat="46.95001" lon="8.5815">
        <ele>806</ele>
        <time>2021-08-10T10:07:22.772Z</time>
      </trkpt>
      <trkpt lat="46.95" lon="8.5815">
        <ele>806</ele>
        <time>2021-08-10T10:07:23.773Z</time>
      </trkpt>
      <trkpt lat="46.94999" lon="8.58149">
        <ele>806</ele>
        <time>2021-08-10T10:07:24.773Z</time>
      </trkpt>
      <trkpt lat="46.94998" lon="8.58148">
        <ele>806</ele>
        <time>2021-08-10T10:07:25.773Z</time>
      </trkpt>
      <trkpt lat="46.94996" lon="8.58148">
        <ele>806</ele>
        <time>2021-08-10T10:07:26.773Z</time>
      </trkpt>
      <trkpt lat="46.94995" lon="8.58147">
        <ele>806</ele>
        <time>2021-08-10T10:07:27.773Z</time>
      </trkpt>
      <trkpt lat="46.94993" lon="8.58146">
        <ele>806</ele>
        <time>2021-08-10T10:07:28.772Z</time>
      </trkpt>
      <trkpt lat="46.94993" lon="8.58144">
        <ele>806</ele>
        <time>2021-08-10T10:07:29.772Z</time>
      </trkpt>
      <trkpt lat="46.94992" lon="8.58142">
        <ele>806</ele>
        <time>2021-08-10T10:07:30.773Z</time>
      </trkpt>
      <trkpt lat="46.9499" lon="8.58141">
        <ele>806</ele>
        <time>2021-08-10T10:07:31.773Z</time>
      </trkpt>
      <trkpt lat="46.94988" lon="8.5814">
        <ele>806</ele>
        <time>2021-08-10T10:07:32.772Z</time>
      </trkpt>
      <trkpt lat="46.94987" lon="8.5814">
        <ele>806</ele>
        <time>2021-08-10T10:07:33.773Z</time>
      </trkpt>
      <trkpt lat="46.94986" lon="8.58139">
        <ele>806</ele>
        <time>2021-08-10T10:07:34.773Z</time>
      </trkpt>
      <trkpt lat="46.94985" lon="8.58138">
        <ele>805</ele>
        <time>2021-08-10T10:07:35.773Z</time>
      </trkpt>
      <trkpt lat="46.94984" lon="8.58137">
        <ele>805</ele>
        <time>2021-08-10T10:07:36.773Z</time>
      </trkpt>
      <trkpt lat="46.94983" lon="8.58136">
        <ele>805</ele>
        <time>2021-08-10T10:07:37.772Z</time>
      </trkpt>
      <trkpt lat="46.94983" lon="8.58136">
        <ele>805</ele>
        <time>2021-08-10T10:07:38.773Z</time>
      </trkpt>
      <trkpt lat="46.94982" lon="8.58135">
        <ele>805</ele>
        <time>2021-08-10T10:07:39.772Z</time>
      </trkpt>
      <trkpt lat="46.94981" lon="8.58134">
        <ele>805</ele>
        <time>2021-08-10T10:07:40.773Z</time>
      </trkpt>
      <trkpt lat="46.9498" lon="8.58134">
        <ele>805</ele>
        <time>2021-08-10T10:07:41.773Z</time>
      </trkpt>
      <trkpt lat="46.94979" lon="8.58134">
        <ele>805</ele>
        <time>2021-08-10T10:07:42.772Z</time>
      </trkpt>
      <trkpt lat="46.94977" lon="8.58133">
        <ele>805</ele>
        <time>2021-08-10T10:07:43.772Z</time>
      </trkpt>
      <trkpt lat="46.94976" lon="8.58131">
        <ele>805</ele>
        <time>2021-08-10T10:07:44.772Z</time>
      </trkpt>
      <trkpt lat="46.94976" lon="8.5813">
        <ele>804</ele>
        <time>2021-08-10T10:07:45.772Z</time>
      </trkpt>
      <trkpt lat="46.94975" lon="8.58129">
        <ele>804</ele>
        <time>2021-08-10T10:07:46.773Z</time>
      </trkpt>
      <trkpt lat="46.94973" lon="8.58128">
        <ele>804</ele>
        <time>2021-08-10T10:07:47.773Z</time>
      </trkpt>
      <trkpt lat="46.94972" lon="8.58127">
        <ele>804</ele>
        <time>2021-08-10T10:07:48.773Z</time>
      </trkpt>
      <trkpt lat="46.94971" lon="8.58126">
        <ele>804</ele>
        <time>2021-08-10T10:07:49.773Z</time>
      </trkpt>
      <trkpt lat="46.9497" lon="8.58126">
        <ele>804</ele>
        <time>2021-08-10T10:07:50.773Z</time>
      </trkpt>
      <trkpt lat="46.94968" lon="8.58123">
        <ele>804</ele>
        <time>2021-08-10T10:07:51.772Z</time>
      </trkpt>
      <trkpt lat="46.94967" lon="8.58123">
        <ele>804</ele>
        <time>2021-08-10T10:07:52.773Z</time>
      </trkpt>
      <trkpt lat="46.94966" lon="8.58122">
        <ele>804</ele>
        <time>2021-08-10T10:07:53.772Z</time>
      </trkpt>
      <trkpt lat="46.94964" lon="8.58121">
        <ele>804</ele>
        <time>2021-08-10T10:07:54.772Z</time>
      </trkpt>
      <trkpt lat="46.94963" lon="8.58121">
        <ele>804</ele>
        <time>2021-08-10T10:07:55.773Z</time>
      </trkpt>
      <trkpt lat="46.94962" lon="8.58121">
        <ele>804</ele>
        <time>2021-08-10T10:07:56.772Z</time>
      </trkpt>
      <trkpt lat="46.94961" lon="8.58121">
        <ele>804</ele>
        <time>2021-08-10T10:07:57.773Z</time>
      </trkpt>
      <trkpt lat="46.9496" lon="8.5812">
        <ele>805</ele>
        <time>2021-08-10T10:07:58.773Z</time>
      </trkpt>
      <trkpt lat="46.94959" lon="8.5812">
        <ele>805</ele>
        <time>2021-08-10T10:07:59.772Z</time>
      </trkpt>
      <trkpt lat="46.94957" lon="8.58119">
        <ele>805</ele>
        <time>2021-08-10T10:08:00.773Z</time>
      </trkpt>
      <trkpt lat="46.94956" lon="8.58118">
        <ele>806</ele>
        <time>2021-08-10T10:08:01.772Z</time>
      </trkpt>
      <trkpt lat="46.94954" lon="8.58118">
        <ele>806</ele>
        <time>2021-08-10T10:08:02.773Z</time>
      </trkpt>
      <trkpt lat="46.94953" lon="8.58117">
        <ele>806</ele>
        <time>2021-08-10T10:08:03.773Z</time>
      </trkpt>
      <trkpt lat="46.94952" lon="8.58117">
        <ele>806</ele>
        <time>2021-08-10T10:08:04.773Z</time>
      </trkpt>
      <trkpt lat="46.94951" lon="8.58117">
        <ele>805</ele>
        <time>2021-08-10T10:08:05.773Z</time>
      </trkpt>
      <trkpt lat="46.9495" lon="8.58117">
        <ele>805</ele>
        <time>2021-08-10T10:08:06.772Z</time>
      </trkpt>
      <trkpt lat="46.94948" lon="8.58117">
        <ele>804</ele>
        <time>2021-08-10T10:08:07.772Z</time>
      </trkpt>
      <trkpt lat="46.94947" lon="8.58118">
        <ele>804</ele>
        <time>2021-08-10T10:08:08.773Z</time>
      </trkpt>
      <trkpt lat="46.94946" lon="8.58118">
        <ele>804</ele>
        <time>2021-08-10T10:08:09.773Z</time>
      </trkpt>
      <trkpt lat="46.94945" lon="8.58118">
        <ele>804</ele>
        <time>2021-08-10T10:08:10.773Z</time>
      </trkpt>
      <trkpt lat="46.94944" lon="8.58118">
        <ele>804</ele>
        <time>2021-08-10T10:08:11.772Z</time>
      </trkpt>
      <trkpt lat="46.94943" lon="8.58117">
        <ele>803</ele>
        <time>2021-08-10T10:08:12.772Z</time>
      </trkpt>
      <trkpt lat="46.94942" lon="8.58116">
        <ele>803</ele>
        <time>2021-08-10T10:08:13.773Z</time>
      </trkpt>
      <trkpt lat="46.94941" lon="8.58116">
        <ele>803</ele>
        <time>2021-08-10T10:08:14.772Z</time>
      </trkpt>
      <trkpt lat="46.94939" lon="8.58117">
        <ele>802</ele>
        <time>2021-08-10T10:08:15.772Z</time>
      </trkpt>
      <trkpt lat="46.94938" lon="8.58117">
        <ele>802</ele>
        <time>2021-08-10T10:08:16.772Z</time>
      </trkpt>
      <trkpt lat="46.94936" lon="8.58119">
        <ele>802</ele>
        <time>2021-08-10T10:08:17.772Z</time>
      </trkpt>
      <trkpt lat="46.94933" lon="8.58121">
        <ele>802</ele>
        <time>2021-08-10T10:08:18.772Z</time>
      </trkpt>
      <trkpt lat="46.94932" lon="8.58121">
        <ele>802</ele>
        <time>2021-08-10T10:08:19.772Z</time>
      </trkpt>
      <trkpt lat="46.94931" lon="8.58121">
        <ele>802</ele>
        <time>2021-08-10T10:08:20.773Z</time>
      </trkpt>
      <trkpt lat="46.94929" lon="8.58121">
        <ele>802</ele>
        <time>2021-08-10T10:08:21.773Z</time>
      </trkpt>
      <trkpt lat="46.94927" lon="8.58122">
        <ele>802</ele>
        <time>2021-08-10T10:08:22.772Z</time>
      </trkpt>
      <trkpt lat="46.94925" lon="8.58123">
        <ele>802</ele>
        <time>2021-08-10T10:08:23.772Z</time>
      </trkpt>
      <trkpt lat="46.94924" lon="8.58124">
        <ele>802</ele>
        <time>2021-08-10T10:08:24.772Z</time>
      </trkpt>
      <trkpt lat="46.94923" lon="8.58125">
        <ele>802</ele>
        <time>2021-08-10T10:08:25.772Z</time>
      </trkpt>
      <trkpt lat="46.94921" lon="8.58126">
        <ele>802</ele>
        <time>2021-08-10T10:08:26.772Z</time>
      </trkpt>
      <trkpt lat="46.9492" lon="8.58126">
        <ele>802</ele>
        <time>2021-08-10T10:08:27.772Z</time>
      </trkpt>
      <trkpt lat="46.94919" lon="8.58125">
        <ele>802</ele>
        <time>2021-08-10T10:08:28.772Z</time>
      </trkpt>
      <trkpt lat="46.94919" lon="8.58124">
        <ele>802</ele>
        <time>2021-08-10T10:08:29.772Z</time>
      </trkpt>
      <trkpt lat="46.94918" lon="8.58123">
        <ele>802</ele>
        <time>2021-08-10T10:08:30.772Z</time>
      </trkpt>
      <trkpt lat="46.94917" lon="8.58122">
        <ele>802</ele>
        <time>2021-08-10T10:08:31.772Z</time>
      </trkpt>
      <trkpt lat="46.94916" lon="8.58122">
        <ele>802</ele>
        <time>2021-08-10T10:08:32.772Z</time>
      </trkpt>
      <trkpt lat="46.94916" lon="8.58122">
        <ele>802</ele>
        <time>2021-08-10T10:08:33.772Z</time>
      </trkpt>
      <trkpt lat="46.94915" lon="8.58122">
        <ele>802</ele>
        <time>2021-08-10T10:08:34.772Z</time>
      </trkpt>
      <trkpt lat="46.94914" lon="8.58122">
        <ele>802</ele>
        <time>2021-08-10T10:08:35.772Z</time>
      </trkpt>
      <trkpt lat="46.94913" lon="8.58123">
        <ele>802</ele>
        <time>2021-08-10T10:08:36.772Z</time>
      </trkpt>
      <trkpt lat="46.94912" lon="8.58123">
        <ele>801</ele>
        <time>2021-08-10T10:08:37.773Z</time>
      </trkpt>
      <trkpt lat="46.94911" lon="8.58123">
        <ele>800</ele>
        <time>2021-08-10T10:08:38.772Z</time>
      </trkpt>
      <trkpt lat="46.9491" lon="8.58124">
        <ele>800</ele>
        <time>2021-08-10T10:08:39.772Z</time>
      </trkpt>
      <trkpt lat="46.94909" lon="8.58124">
        <ele>799</ele>
        <time>2021-08-10T10:08:40.773Z</time>
      </trkpt>
      <trkpt lat="46.94907" lon="8.58124">
        <ele>799</ele>
        <time>2021-08-10T10:08:41.772Z</time>
      </trkpt>
      <trkpt lat="46.94906" lon="8.58124">
        <ele>798</ele>
        <time>2021-08-10T10:08:42.773Z</time>
      </trkpt>
      <trkpt lat="46.94904" lon="8.58125">
        <ele>798</ele>
        <time>2021-08-10T10:08:43.772Z</time>
      </trkpt>
      <trkpt lat="46.94902" lon="8.58124">
        <ele>798</ele>
        <time>2021-08-10T10:08:44.772Z</time>
      </trkpt>
      <trkpt lat="46.949" lon="8.58124">
        <ele>798</ele>
        <time>2021-08-10T10:08:45.772Z</time>
      </trkpt>
      <trkpt lat="46.94898" lon="8.58124">
        <ele>797</ele>
        <time>2021-08-10T10:08:46.772Z</time>
      </trkpt>
      <trkpt lat="46.94897" lon="8.58124">
        <ele>797</ele>
        <time>2021-08-10T10:08:47.772Z</time>
      </trkpt>
      <trkpt lat="46.94896" lon="8.58124">
        <ele>797</ele>
        <time>2021-08-10T10:08:48.772Z</time>
      </trkpt>
      <trkpt lat="46.94894" lon="8.58124">
        <ele>797</ele>
        <time>2021-08-10T10:08:49.773Z</time>
      </trkpt>
      <trkpt lat="46.94893" lon="8.58124">
        <ele>796</ele>
        <time>2021-08-10T10:08:50.773Z</time>
      </trkpt>
      <trkpt lat="46.94893" lon="8.58124">
        <ele>796</ele>
        <time>2021-08-10T10:08:51.773Z</time>
      </trkpt>
      <trkpt lat="46.94891" lon="8.58125">
        <ele>796</ele>
        <time>2021-08-10T10:08:52.772Z</time>
      </trkpt>
      <trkpt lat="46.9489" lon="8.58125">
        <ele>795</ele>
        <time>2021-08-10T10:08:53.772Z</time>
      </trkpt>
      <trkpt lat="46.94888" lon="8.58125">
        <ele>795</ele>
        <time>2021-08-10T10:08:54.772Z</time>
      </trkpt>
      <trkpt lat="46.94887" lon="8.58124">
        <ele>794</ele>
        <time>2021-08-10T10:08:55.772Z</time>
      </trkpt>
      <trkpt lat="46.94885" lon="8.58123">
        <ele>794</ele>
        <time>2021-08-10T10:08:56.772Z</time>
      </trkpt>
      <trkpt lat="46.94884" lon="8.58123">
        <ele>794</ele>
        <time>2021-08-10T10:08:57.772Z</time>
      </trkpt>
      <trkpt lat="46.94883" lon="8.58123">
        <ele>793</ele>
        <time>2021-08-10T10:08:58.772Z</time>
      </trkpt>
      <trkpt lat="46.94881" lon="8.58123">
        <ele>793</ele>
        <time>2021-08-10T10:08:59.772Z</time>
      </trkpt>
      <trkpt lat="46.9488" lon="8.58123">
        <ele>793</ele>
        <time>2021-08-10T10:09:00.773Z</time>
      </trkpt>
      <trkpt lat="46.94879" lon="8.58122">
        <ele>793</ele>
        <time>2021-08-10T10:09:01.772Z</time>
      </trkpt>
      <trkpt lat="46.94879" lon="8.58121">
        <ele>793</ele>
        <time>2021-08-10T10:09:02.772Z</time>
      </trkpt>
      <trkpt lat="46.94878" lon="8.5812">
        <ele>793</ele>
        <time>2021-08-10T10:09:03.772Z</time>
      </trkpt>
      <trkpt lat="46.94877" lon="8.58119">
        <ele>792</ele>
        <time>2021-08-10T10:09:04.772Z</time>
      </trkpt>
      <trkpt lat="46.94877" lon="8.58117">
        <ele>792</ele>
        <time>2021-08-10T10:09:05.772Z</time>
      </trkpt>
      <trkpt lat="46.94876" lon="8.58115">
        <ele>791</ele>
        <time>2021-08-10T10:09:06.773Z</time>
      </trkpt>
      <trkpt lat="46.94875" lon="8.58114">
        <ele>791</ele>
        <time>2021-08-10T10:09:07.772Z</time>
      </trkpt>
      <trkpt lat="46.94875" lon="8.58113">
        <ele>791</ele>
        <time>2021-08-10T10:09:08.772Z</time>
      </trkpt>
      <trkpt lat="46.94874" lon="8.58113">
        <ele>790</ele>
        <time>2021-08-10T10:09:09.772Z</time>
      </trkpt>
      <trkpt lat="46.94873" lon="8.58112">
        <ele>790</ele>
        <time>2021-08-10T10:09:10.773Z</time>
      </trkpt>
      <trkpt lat="46.94872" lon="8.58111">
        <ele>790</ele>
        <time>2021-08-10T10:09:11.772Z</time>
      </trkpt>
      <trkpt lat="46.94871" lon="8.58108">
        <ele>790</ele>
        <time>2021-08-10T10:09:12.772Z</time>
      </trkpt>
      <trkpt lat="46.9487" lon="8.58106">
        <ele>790</ele>
        <time>2021-08-10T10:09:13.772Z</time>
      </trkpt>
      <trkpt lat="46.94869" lon="8.58106">
        <ele>789</ele>
        <time>2021-08-10T10:09:14.772Z</time>
      </trkpt>
      <trkpt lat="46.94868" lon="8.58106">
        <ele>789</ele>
        <time>2021-08-10T10:09:15.772Z</time>
      </trkpt>
      <trkpt lat="46.94867" lon="8.58106">
        <ele>789</ele>
        <time>2021-08-10T10:09:16.773Z</time>
      </trkpt>
      <trkpt lat="46.94867" lon="8.58106">
        <ele>789</ele>
        <time>2021-08-10T10:09:17.772Z</time>
      </trkpt>
      <trkpt lat="46.94866" lon="8.58106">
        <ele>789</ele>
        <time>2021-08-10T10:09:18.772Z</time>
      </trkpt>
      <trkpt lat="46.94865" lon="8.58107">
        <ele>789</ele>
        <time>2021-08-10T10:09:19.773Z</time>
      </trkpt>
      <trkpt lat="46.94864" lon="8.58107">
        <ele>789</ele>
        <time>2021-08-10T10:09:20.772Z</time>
      </trkpt>
      <trkpt lat="46.94863" lon="8.58107">
        <ele>789</ele>
        <time>2021-08-10T10:09:21.772Z</time>
      </trkpt>
      <trkpt lat="46.94861" lon="8.58107">
        <ele>789</ele>
        <time>2021-08-10T10:09:22.772Z</time>
      </trkpt>
      <trkpt lat="46.9486" lon="8.58107">
        <ele>789</ele>
        <time>2021-08-10T10:09:23.772Z</time>
      </trkpt>
      <trkpt lat="46.94859" lon="8.58107">
        <ele>789</ele>
        <time>2021-08-10T10:09:24.773Z</time>
      </trkpt>
      <trkpt lat="46.94857" lon="8.58106">
        <ele>789</ele>
        <time>2021-08-10T10:09:25.772Z</time>
      </trkpt>
      <trkpt lat="46.94856" lon="8.58105">
        <ele>789</ele>
        <time>2021-08-10T10:09:26.772Z</time>
      </trkpt>
      <trkpt lat="46.94855" lon="8.58104">
        <ele>789</ele>
        <time>2021-08-10T10:09:27.772Z</time>
      </trkpt>
      <trkpt lat="46.94854" lon="8.58102">
        <ele>789</ele>
        <time>2021-08-10T10:09:28.772Z</time>
      </trkpt>
      <trkpt lat="46.94854" lon="8.58101">
        <ele>789</ele>
        <time>2021-08-10T10:09:29.773Z</time>
      </trkpt>
      <trkpt lat="46.94853" lon="8.581">
        <ele>789</ele>
        <time>2021-08-10T10:09:30.773Z</time>
      </trkpt>
      <trkpt lat="46.94852" lon="8.58099">
        <ele>788</ele>
        <time>2021-08-10T10:09:31.772Z</time>
      </trkpt>
      <trkpt lat="46.9485" lon="8.58098">
        <ele>788</ele>
        <time>2021-08-10T10:09:32.773Z</time>
      </trkpt>
      <trkpt lat="46.94849" lon="8.58097">
        <ele>788</ele>
        <time>2021-08-10T10:09:33.773Z</time>
      </trkpt>
      <trkpt lat="46.94848" lon="8.58096">
        <ele>787</ele>
        <time>2021-08-10T10:09:34.773Z</time>
      </trkpt>
      <trkpt lat="46.94846" lon="8.58095">
        <ele>787</ele>
        <time>2021-08-10T10:09:35.773Z</time>
      </trkpt>
      <trkpt lat="46.94845" lon="8.58094">
        <ele>787</ele>
        <time>2021-08-10T10:09:36.773Z</time>
      </trkpt>
      <trkpt lat="46.94844" lon="8.58093">
        <ele>786</ele>
        <time>2021-08-10T10:09:37.773Z</time>
      </trkpt>
      <trkpt lat="46.94842" lon="8.58093">
        <ele>786</ele>
        <time>2021-08-10T10:09:38.772Z</time>
      </trkpt>
      <trkpt lat="46.9484" lon="8.58092">
        <ele>786</ele>
        <time>2021-08-10T10:09:39.773Z</time>
      </trkpt>
      <trkpt lat="46.94839" lon="8.58091">
        <ele>786</ele>
        <time>2021-08-10T10:09:40.773Z</time>
      </trkpt>
      <trkpt lat="46.94838" lon="8.58091">
        <ele>786</ele>
        <time>2021-08-10T10:09:41.773Z</time>
      </trkpt>
      <trkpt lat="46.94837" lon="8.58091">
        <ele>785</ele>
        <time>2021-08-10T10:09:42.773Z</time>
      </trkpt>
      <trkpt lat="46.94835" lon="8.5809">
        <ele>784</ele>
        <time>2021-08-10T10:09:43.773Z</time>
      </trkpt>
      <trkpt lat="46.94834" lon="8.58088">
        <ele>784</ele>
        <time>2021-08-10T10:09:44.772Z</time>
      </trkpt>
      <trkpt lat="46.94832" lon="8.58086">
        <ele>783</ele>
        <time>2021-08-10T10:09:45.773Z</time>
      </trkpt>
      <trkpt lat="46.9483" lon="8.58084">
        <ele>783</ele>
        <time>2021-08-10T10:09:46.773Z</time>
      </trkpt>
      <trkpt lat="46.94828" lon="8.58082">
        <ele>783</ele>
        <time>2021-08-10T10:09:47.772Z</time>
      </trkpt>
      <trkpt lat="46.94827" lon="8.58081">
        <ele>782</ele>
        <time>2021-08-10T10:09:48.772Z</time>
      </trkpt>
      <trkpt lat="46.94826" lon="8.58081">
        <ele>782</ele>
        <time>2021-08-10T10:09:49.772Z</time>
      </trkpt>
      <trkpt lat="46.94825" lon="8.5808">
        <ele>782</ele>
        <time>2021-08-10T10:09:50.773Z</time>
      </trkpt>
      <trkpt lat="46.94824" lon="8.58079">
        <ele>781</ele>
        <time>2021-08-10T10:09:51.773Z</time>
      </trkpt>
      <trkpt lat="46.94823" lon="8.58078">
        <ele>781</ele>
        <time>2021-08-10T10:09:52.773Z</time>
      </trkpt>
      <trkpt lat="46.94822" lon="8.58077">
        <ele>780</ele>
        <time>2021-08-10T10:09:53.773Z</time>
      </trkpt>
      <trkpt lat="46.94821" lon="8.58077">
        <ele>780</ele>
        <time>2021-08-10T10:09:54.772Z</time>
      </trkpt>
      <trkpt lat="46.94819" lon="8.58076">
        <ele>779</ele>
        <time>2021-08-10T10:09:55.773Z</time>
      </trkpt>
      <trkpt lat="46.94818" lon="8.58076">
        <ele>779</ele>
        <time>2021-08-10T10:09:56.773Z</time>
      </trkpt>
      <trkpt lat="46.94817" lon="8.58075">
        <ele>779</ele>
        <time>2021-08-10T10:09:57.772Z</time>
      </trkpt>
      <trkpt lat="46.94816" lon="8.58074">
        <ele>779</ele>
        <time>2021-08-10T10:09:58.773Z</time>
      </trkpt>
      <trkpt lat="46.94814" lon="8.58073">
        <ele>778</ele>
        <time>2021-08-10T10:09:59.773Z</time>
      </trkpt>
      <trkpt lat="46.94813" lon="8.58072">
        <ele>778</ele>
        <time>2021-08-10T10:10:00.773Z</time>
      </trkpt>
      <trkpt lat="46.94812" lon="8.58072">
        <ele>779</ele>
        <time>2021-08-10T10:10:01.773Z</time>
      </trkpt>
      <trkpt lat="46.9481" lon="8.58072">
        <ele>779</ele>
        <time>2021-08-10T10:10:02.773Z</time>
      </trkpt>
      <trkpt lat="46.94808" lon="8.58072">
        <ele>779</ele>
        <time>2021-08-10T10:10:03.773Z</time>
      </trkpt>
      <trkpt lat="46.94807" lon="8.58071">
        <ele>779</ele>
        <time>2021-08-10T10:10:04.773Z</time>
      </trkpt>
      <trkpt lat="46.94806" lon="8.58071">
        <ele>780</ele>
        <time>2021-08-10T10:10:05.772Z</time>
      </trkpt>
      <trkpt lat="46.94805" lon="8.5807">
        <ele>780</ele>
        <time>2021-08-10T10:10:06.773Z</time>
      </trkpt>
      <trkpt lat="46.94804" lon="8.5807">
        <ele>780</ele>
        <time>2021-08-10T10:10:07.773Z</time>
      </trkpt>
      <trkpt lat="46.94803" lon="8.5807">
        <ele>780</ele>
        <time>2021-08-10T10:10:08.772Z</time>
      </trkpt>
      <trkpt lat="46.94802" lon="8.58069">
        <ele>780</ele>
        <time>2021-08-10T10:10:09.773Z</time>
      </trkpt>
      <trkpt lat="46.94801" lon="8.58068">
        <ele>780</ele>
        <time>2021-08-10T10:10:10.773Z</time>
      </trkpt>
      <trkpt lat="46.948" lon="8.58067">
        <ele>780</ele>
        <time>2021-08-10T10:10:11.773Z</time>
      </trkpt>
      <trkpt lat="46.94799" lon="8.58067">
        <ele>780</ele>
        <time>2021-08-10T10:10:12.772Z</time>
      </trkpt>
      <trkpt lat="46.94798" lon="8.58066">
        <ele>779</ele>
        <time>2021-08-10T10:10:13.773Z</time>
      </trkpt>
      <trkpt lat="46.94797" lon="8.58066">
        <ele>779</ele>
        <time>2021-08-10T10:10:14.772Z</time>
      </trkpt>
      <trkpt lat="46.94795" lon="8.58065">
        <ele>779</ele>
        <time>2021-08-10T10:10:15.772Z</time>
      </trkpt>
      <trkpt lat="46.94794" lon="8.58065">
        <ele>778</ele>
        <time>2021-08-10T10:10:16.773Z</time>
      </trkpt>
      <trkpt lat="46.94793" lon="8.58064">
        <ele>778</ele>
        <time>2021-08-10T10:10:17.773Z</time>
      </trkpt>
      <trkpt lat="46.94791" lon="8.58064">
        <ele>777</ele>
        <time>2021-08-10T10:10:18.772Z</time>
      </trkpt>
      <trkpt lat="46.9479" lon="8.58063">
        <ele>777</ele>
        <time>2021-08-10T10:10:19.772Z</time>
      </trkpt>
      <trkpt lat="46.94789" lon="8.58063">
        <ele>776</ele>
        <time>2021-08-10T10:10:20.773Z</time>
      </trkpt>
      <trkpt lat="46.94788" lon="8.58063">
        <ele>776</ele>
        <time>2021-08-10T10:10:21.773Z</time>
      </trkpt>
      <trkpt lat="46.94787" lon="8.58063">
        <ele>775</ele>
        <time>2021-08-10T10:10:22.772Z</time>
      </trkpt>
      <trkpt lat="46.94786" lon="8.58062">
        <ele>775</ele>
        <time>2021-08-10T10:10:23.773Z</time>
      </trkpt>
      <trkpt lat="46.94784" lon="8.58062">
        <ele>775</ele>
        <time>2021-08-10T10:10:24.773Z</time>
      </trkpt>
      <trkpt lat="46.94783" lon="8.58061">
        <ele>775</ele>
        <time>2021-08-10T10:10:25.773Z</time>
      </trkpt>
      <trkpt lat="46.94783" lon="8.58061">
        <ele>774</ele>
        <time>2021-08-10T10:10:26.772Z</time>
      </trkpt>
      <trkpt lat="46.94782" lon="8.58061">
        <ele>774</ele>
        <time>2021-08-10T10:10:27.773Z</time>
      </trkpt>
      <trkpt lat="46.94781" lon="8.5806">
        <ele>773</ele>
        <time>2021-08-10T10:10:28.773Z</time>
      </trkpt>
      <trkpt lat="46.9478" lon="8.5806">
        <ele>773</ele>
        <time>2021-08-10T10:10:29.773Z</time>
      </trkpt>
      <trkpt lat="46.94779" lon="8.58059">
        <ele>772</ele>
        <time>2021-08-10T10:10:30.773Z</time>
      </trkpt>
      <trkpt lat="46.94778" lon="8.58059">
        <ele>772</ele>
        <time>2021-08-10T10:10:31.772Z</time>
      </trkpt>
      <trkpt lat="46.94777" lon="8.58059">
        <ele>772</ele>
        <time>2021-08-10T10:10:32.773Z</time>
      </trkpt>
      <trkpt lat="46.94776" lon="8.58059">
        <ele>772</ele>
        <time>2021-08-10T10:10:33.773Z</time>
      </trkpt>
      <trkpt lat="46.94774" lon="8.58059">
        <ele>772</ele>
        <time>2021-08-10T10:10:34.772Z</time>
      </trkpt>
      <trkpt lat="46.94773" lon="8.58058">
        <ele>772</ele>
        <time>2021-08-10T10:10:35.773Z</time>
      </trkpt>
      <trkpt lat="46.94773" lon="8.58058">
        <ele>772</ele>
        <time>2021-08-10T10:10:36.772Z</time>
      </trkpt>
      <trkpt lat="46.94772" lon="8.58058">
        <ele>772</ele>
        <time>2021-08-10T10:10:37.773Z</time>
      </trkpt>
      <trkpt lat="46.9477" lon="8.58057">
        <ele>772</ele>
        <time>2021-08-10T10:10:38.773Z</time>
      </trkpt>
      <trkpt lat="46.94769" lon="8.58056">
        <ele>772</ele>
        <time>2021-08-10T10:10:39.772Z</time>
      </trkpt>
      <trkpt lat="46.94767" lon="8.58055">
        <ele>772</ele>
        <time>2021-08-10T10:10:40.773Z</time>
      </trkpt>
      <trkpt lat="46.94766" lon="8.58056">
        <ele>772</ele>
        <time>2021-08-10T10:10:41.773Z</time>
      </trkpt>
      <trkpt lat="46.94765" lon="8.58055">
        <ele>772</ele>
        <time>2021-08-10T10:10:42.772Z</time>
      </trkpt>
      <trkpt lat="46.94764" lon="8.58055">
        <ele>772</ele>
        <time>2021-08-10T10:10:43.773Z</time>
      </trkpt>
      <trkpt lat="46.94763" lon="8.58054">
        <ele>772</ele>
        <time>2021-08-10T10:10:44.773Z</time>
      </trkpt>
      <trkpt lat="46.94762" lon="8.58054">
        <ele>772</ele>
        <time>2021-08-10T10:10:45.773Z</time>
      </trkpt>
      <trkpt lat="46.94761" lon="8.58053">
        <ele>772</ele>
        <time>2021-08-10T10:10:46.772Z</time>
      </trkpt>
      <trkpt lat="46.9476" lon="8.58053">
        <ele>772</ele>
        <time>2021-08-10T10:10:47.773Z</time>
      </trkpt>
      <trkpt lat="46.94759" lon="8.58052">
        <ele>772</ele>
        <time>2021-08-10T10:10:48.772Z</time>
      </trkpt>
      <trkpt lat="46.94758" lon="8.58052">
        <ele>772</ele>
        <time>2021-08-10T10:10:49.773Z</time>
      </trkpt>
      <trkpt lat="46.94757" lon="8.58051">
        <ele>772</ele>
        <time>2021-08-10T10:10:50.773Z</time>
      </trkpt>
      <trkpt lat="46.94757" lon="8.5805">
        <ele>772</ele>
        <time>2021-08-10T10:10:51.773Z</time>
      </trkpt>
      <trkpt lat="46.94756" lon="8.5805">
        <ele>772</ele>
        <time>2021-08-10T10:10:52.772Z</time>
      </trkpt>
      <trkpt lat="46.94754" lon="8.58049">
        <ele>773</ele>
        <time>2021-08-10T10:10:53.772Z</time>
      </trkpt>
      <trkpt lat="46.94752" lon="8.58048">
        <ele>773</ele>
        <time>2021-08-10T10:10:54.773Z</time>
      </trkpt>
      <trkpt lat="46.94751" lon="8.58046">
        <ele>774</ele>
        <time>2021-08-10T10:10:55.773Z</time>
      </trkpt>
      <trkpt lat="46.9475" lon="8.58045">
        <ele>775</ele>
        <time>2021-08-10T10:10:56.772Z</time>
      </trkpt>
      <trkpt lat="46.94749" lon="8.58045">
        <ele>775</ele>
        <time>2021-08-10T10:10:57.773Z</time>
      </trkpt>
      <trkpt lat="46.94748" lon="8.58044">
        <ele>775</ele>
        <time>2021-08-10T10:10:58.773Z</time>
      </trkpt>
      <trkpt lat="46.94748" lon="8.58044">
        <ele>775</ele>
        <time>2021-08-10T10:10:59.773Z</time>
      </trkpt>
      <trkpt lat="46.94747" lon="8.58043">
        <ele>775</ele>
        <time>2021-08-10T10:11:00.773Z</time>
      </trkpt>
      <trkpt lat="46.94746" lon="8.58041">
        <ele>774</ele>
        <time>2021-08-10T10:11:01.773Z</time>
      </trkpt>
      <trkpt lat="46.94745" lon="8.58039">
        <ele>774</ele>
        <time>2021-08-10T10:11:02.773Z</time>
      </trkpt>
      <trkpt lat="46.94744" lon="8.58038">
        <ele>773</ele>
        <time>2021-08-10T10:11:03.772Z</time>
      </trkpt>
      <trkpt lat="46.94743" lon="8.58037">
        <ele>773</ele>
        <time>2021-08-10T10:11:04.773Z</time>
      </trkpt>
      <trkpt lat="46.94742" lon="8.58036">
        <ele>774</ele>
        <time>2021-08-10T10:11:05.773Z</time>
      </trkpt>
      <trkpt lat="46.9474" lon="8.58034">
        <ele>774</ele>
        <time>2021-08-10T10:11:06.772Z</time>
      </trkpt>
      <trkpt lat="46.94739" lon="8.58033">
        <ele>775</ele>
        <time>2021-08-10T10:11:07.773Z</time>
      </trkpt>
      <trkpt lat="46.94739" lon="8.58032">
        <ele>775</ele>
        <time>2021-08-10T10:11:08.772Z</time>
      </trkpt>
      <trkpt lat="46.94738" lon="8.58031">
        <ele>775</ele>
        <time>2021-08-10T10:11:09.773Z</time>
      </trkpt>
      <trkpt lat="46.94737" lon="8.58029">
        <ele>775</ele>
        <time>2021-08-10T10:11:10.773Z</time>
      </trkpt>
      <trkpt lat="46.94737" lon="8.58028">
        <ele>774</ele>
        <time>2021-08-10T10:11:11.772Z</time>
      </trkpt>
      <trkpt lat="46.94737" lon="8.58027">
        <ele>774</ele>
        <time>2021-08-10T10:11:12.772Z</time>
      </trkpt>
      <trkpt lat="46.94735" lon="8.58027">
        <ele>774</ele>
        <time>2021-08-10T10:11:13.773Z</time>
      </trkpt>
      <trkpt lat="46.94734" lon="8.58026">
        <ele>773</ele>
        <time>2021-08-10T10:11:14.773Z</time>
      </trkpt>
      <trkpt lat="46.94734" lon="8.58024">
        <ele>773</ele>
        <time>2021-08-10T10:11:15.773Z</time>
      </trkpt>
      <trkpt lat="46.94733" lon="8.58023">
        <ele>773</ele>
        <time>2021-08-10T10:11:16.772Z</time>
      </trkpt>
      <trkpt lat="46.94733" lon="8.58022">
        <ele>773</ele>
        <time>2021-08-10T10:11:17.773Z</time>
      </trkpt>
      <trkpt lat="46.94732" lon="8.5802">
        <ele>772</ele>
        <time>2021-08-10T10:11:18.773Z</time>
      </trkpt>
      <trkpt lat="46.94731" lon="8.58019">
        <ele>772</ele>
        <time>2021-08-10T10:11:19.773Z</time>
      </trkpt>
      <trkpt lat="46.9473" lon="8.58018">
        <ele>772</ele>
        <time>2021-08-10T10:11:20.772Z</time>
      </trkpt>
      <trkpt lat="46.94729" lon="8.58016">
        <ele>771</ele>
        <time>2021-08-10T10:11:21.773Z</time>
      </trkpt>
      <trkpt lat="46.94728" lon="8.58015">
        <ele>771</ele>
        <time>2021-08-10T10:11:22.772Z</time>
      </trkpt>
      <trkpt lat="46.94728" lon="8.58014">
        <ele>771</ele>
        <time>2021-08-10T10:11:23.773Z</time>
      </trkpt>
      <trkpt lat="46.94728" lon="8.58012">
        <ele>771</ele>
        <time>2021-08-10T10:11:24.773Z</time>
      </trkpt>
      <trkpt lat="46.94727" lon="8.58011">
        <ele>770</ele>
        <time>2021-08-10T10:11:25.773Z</time>
      </trkpt>
      <trkpt lat="46.94727" lon="8.5801">
        <ele>770</ele>
        <time>2021-08-10T10:11:26.773Z</time>
      </trkpt>
      <trkpt lat="46.94726" lon="8.58008">
        <ele>770</ele>
        <time>2021-08-10T10:11:27.773Z</time>
      </trkpt>
      <trkpt lat="46.94726" lon="8.58007">
        <ele>770</ele>
        <time>2021-08-10T10:11:28.773Z</time>
      </trkpt>
      <trkpt lat="46.94725" lon="8.58006">
        <ele>769</ele>
        <time>2021-08-10T10:11:29.773Z</time>
      </trkpt>
      <trkpt lat="46.94724" lon="8.58005">
        <ele>769</ele>
        <time>2021-08-10T10:11:30.772Z</time>
      </trkpt>
      <trkpt lat="46.94724" lon="8.58003">
        <ele>769</ele>
        <time>2021-08-10T10:11:31.773Z</time>
      </trkpt>
      <trkpt lat="46.94723" lon="8.58002">
        <ele>768</ele>
        <time>2021-08-10T10:11:32.773Z</time>
      </trkpt>
      <trkpt lat="46.94722" lon="8.58001">
        <ele>767</ele>
        <time>2021-08-10T10:11:33.773Z</time>
      </trkpt>
      <trkpt lat="46.94722" lon="8.57999">
        <ele>766</ele>
        <time>2021-08-10T10:11:34.773Z</time>
      </trkpt>
      <trkpt lat="46.94721" lon="8.57998">
        <ele>766</ele>
        <time>2021-08-10T10:11:35.773Z</time>
      </trkpt>
      <trkpt lat="46.94721" lon="8.57996">
        <ele>765</ele>
        <time>2021-08-10T10:11:36.773Z</time>
      </trkpt>
      <trkpt lat="46.9472" lon="8.57995">
        <ele>764</ele>
        <time>2021-08-10T10:11:37.772Z</time>
      </trkpt>
      <trkpt lat="46.9472" lon="8.57994">
        <ele>763</ele>
        <time>2021-08-10T10:11:38.773Z</time>
      </trkpt>
      <trkpt lat="46.94719" lon="8.57993">
        <ele>762</ele>
        <time>2021-08-10T10:11:39.773Z</time>
      </trkpt>
      <trkpt lat="46.94718" lon="8.57992">
        <ele>762</ele>
        <time>2021-08-10T10:11:40.773Z</time>
      </trkpt>
      <trkpt lat="46.94718" lon="8.57991">
        <ele>762</ele>
        <time>2021-08-10T10:11:41.773Z</time>
      </trkpt>
      <trkpt lat="46.94717" lon="8.5799">
        <ele>762</ele>
        <time>2021-08-10T10:11:42.773Z</time>
      </trkpt>
      <trkpt lat="46.94716" lon="8.57989">
        <ele>761</ele>
        <time>2021-08-10T10:11:43.772Z</time>
      </trkpt>
      <trkpt lat="46.94716" lon="8.57988">
        <ele>761</ele>
        <time>2021-08-10T10:11:44.772Z</time>
      </trkpt>
      <trkpt lat="46.94715" lon="8.57987">
        <ele>761</ele>
        <time>2021-08-10T10:11:45.773Z</time>
      </trkpt>
      <trkpt lat="46.94714" lon="8.57986">
        <ele>761</ele>
        <time>2021-08-10T10:11:46.773Z</time>
      </trkpt>
      <trkpt lat="46.94713" lon="8.57985">
        <ele>761</ele>
        <time>2021-08-10T10:11:47.773Z</time>
      </trkpt>
      <trkpt lat="46.94712" lon="8.57984">
        <ele>761</ele>
        <time>2021-08-10T10:11:48.773Z</time>
      </trkpt>
      <trkpt lat="46.94711" lon="8.57983">
        <ele>761</ele>
        <time>2021-08-10T10:11:49.773Z</time>
      </trkpt>
      <trkpt lat="46.9471" lon="8.57983">
        <ele>761</ele>
        <time>2021-08-10T10:11:50.772Z</time>
      </trkpt>
      <trkpt lat="46.9471" lon="8.57981">
        <ele>761</ele>
        <time>2021-08-10T10:11:51.772Z</time>
      </trkpt>
      <trkpt lat="46.9471" lon="8.57979">
        <ele>761</ele>
        <time>2021-08-10T10:11:52.773Z</time>
      </trkpt>
      <trkpt lat="46.94709" lon="8.57978">
        <ele>761</ele>
        <time>2021-08-10T10:11:53.773Z</time>
      </trkpt>
      <trkpt lat="46.94708" lon="8.57976">
        <ele>761</ele>
        <time>2021-08-10T10:11:54.772Z</time>
      </trkpt>
      <trkpt lat="46.94707" lon="8.57975">
        <ele>761</ele>
        <time>2021-08-10T10:11:55.773Z</time>
      </trkpt>
      <trkpt lat="46.94706" lon="8.57974">
        <ele>762</ele>
        <time>2021-08-10T10:11:56.773Z</time>
      </trkpt>
      <trkpt lat="46.94705" lon="8.57973">
        <ele>763</ele>
        <time>2021-08-10T10:11:57.772Z</time>
      </trkpt>
      <trkpt lat="46.94704" lon="8.57972">
        <ele>763</ele>
        <time>2021-08-10T10:11:58.773Z</time>
      </trkpt>
      <trkpt lat="46.94702" lon="8.5797">
        <ele>764</ele>
        <time>2021-08-10T10:11:59.773Z</time>
      </trkpt>
      <trkpt lat="46.94701" lon="8.57969">
        <ele>765</ele>
        <time>2021-08-10T10:12:00.773Z</time>
      </trkpt>
      <trkpt lat="46.947" lon="8.57968">
        <ele>765</ele>
        <time>2021-08-10T10:12:01.773Z</time>
      </trkpt>
      <trkpt lat="46.94699" lon="8.57967">
        <ele>765</ele>
        <time>2021-08-10T10:12:02.773Z</time>
      </trkpt>
      <trkpt lat="46.94698" lon="8.57965">
        <ele>765</ele>
        <time>2021-08-10T10:12:03.772Z</time>
      </trkpt>
      <trkpt lat="46.94697" lon="8.57964">
        <ele>764</ele>
        <time>2021-08-10T10:12:04.773Z</time>
      </trkpt>
      <trkpt lat="46.94696" lon="8.57963">
        <ele>764</ele>
        <time>2021-08-10T10:12:05.773Z</time>
      </trkpt>
      <trkpt lat="46.94694" lon="8.57963">
        <ele>764</ele>
        <time>2021-08-10T10:12:06.773Z</time>
      </trkpt>
      <trkpt lat="46.94693" lon="8.57962">
        <ele>764</ele>
        <time>2021-08-10T10:12:07.772Z</time>
      </trkpt>
      <trkpt lat="46.94692" lon="8.57962">
        <ele>764</ele>
        <time>2021-08-10T10:12:08.773Z</time>
      </trkpt>
      <trkpt lat="46.9469" lon="8.57961">
        <ele>764</ele>
        <time>2021-08-10T10:12:09.772Z</time>
      </trkpt>
      <trkpt lat="46.94689" lon="8.57961">
        <ele>764</ele>
        <time>2021-08-10T10:12:10.773Z</time>
      </trkpt>
      <trkpt lat="46.94688" lon="8.5796">
        <ele>763</ele>
        <time>2021-08-10T10:12:11.773Z</time>
      </trkpt>
      <trkpt lat="46.94687" lon="8.5796">
        <ele>763</ele>
        <time>2021-08-10T10:12:12.773Z</time>
      </trkpt>
      <trkpt lat="46.94686" lon="8.57959">
        <ele>763</ele>
        <time>2021-08-10T10:12:13.773Z</time>
      </trkpt>
      <trkpt lat="46.94685" lon="8.57959">
        <ele>764</ele>
        <time>2021-08-10T10:12:14.773Z</time>
      </trkpt>
      <trkpt lat="46.94684" lon="8.57958">
        <ele>764</ele>
        <time>2021-08-10T10:12:15.773Z</time>
      </trkpt>
      <trkpt lat="46.94682" lon="8.57957">
        <ele>764</ele>
        <time>2021-08-10T10:12:16.773Z</time>
      </trkpt>
      <trkpt lat="46.94681" lon="8.57957">
        <ele>764</ele>
        <time>2021-08-10T10:12:17.773Z</time>
      </trkpt>
      <trkpt lat="46.9468" lon="8.57956">
        <ele>764</ele>
        <time>2021-08-10T10:12:18.773Z</time>
      </trkpt>
      <trkpt lat="46.94678" lon="8.57956">
        <ele>764</ele>
        <time>2021-08-10T10:12:19.772Z</time>
      </trkpt>
      <trkpt lat="46.94677" lon="8.57956">
        <ele>764</ele>
        <time>2021-08-10T10:12:20.773Z</time>
      </trkpt>
      <trkpt lat="46.94676" lon="8.57955">
        <ele>764</ele>
        <time>2021-08-10T10:12:21.773Z</time>
      </trkpt>
      <trkpt lat="46.94674" lon="8.57955">
        <ele>764</ele>
        <time>2021-08-10T10:12:22.773Z</time>
      </trkpt>
      <trkpt lat="46.94673" lon="8.57955">
        <ele>764</ele>
        <time>2021-08-10T10:12:23.773Z</time>
      </trkpt>
      <trkpt lat="46.94672" lon="8.57955">
        <ele>763</ele>
        <time>2021-08-10T10:12:24.773Z</time>
      </trkpt>
      <trkpt lat="46.94671" lon="8.57955">
        <ele>763</ele>
        <time>2021-08-10T10:12:25.772Z</time>
      </trkpt>
      <trkpt lat="46.9467" lon="8.57955">
        <ele>763</ele>
        <time>2021-08-10T10:12:26.773Z</time>
      </trkpt>
      <trkpt lat="46.94669" lon="8.57956">
        <ele>762</ele>
        <time>2021-08-10T10:12:27.772Z</time>
      </trkpt>
      <trkpt lat="46.94668" lon="8.57957">
        <ele>763</ele>
        <time>2021-08-10T10:12:28.773Z</time>
      </trkpt>
      <trkpt lat="46.94667" lon="8.57957">
        <ele>763</ele>
        <time>2021-08-10T10:12:29.772Z</time>
      </trkpt>
      <trkpt lat="46.94665" lon="8.57957">
        <ele>763</ele>
        <time>2021-08-10T10:12:30.772Z</time>
      </trkpt>
      <trkpt lat="46.94664" lon="8.57957">
        <ele>763</ele>
        <time>2021-08-10T10:12:31.772Z</time>
      </trkpt>
      <trkpt lat="46.94663" lon="8.57957">
        <ele>763</ele>
        <time>2021-08-10T10:12:32.772Z</time>
      </trkpt>
      <trkpt lat="46.94661" lon="8.57958">
        <ele>763</ele>
        <time>2021-08-10T10:12:33.773Z</time>
      </trkpt>
      <trkpt lat="46.94659" lon="8.57959">
        <ele>763</ele>
        <time>2021-08-10T10:12:34.773Z</time>
      </trkpt>
      <trkpt lat="46.94657" lon="8.57959">
        <ele>763</ele>
        <time>2021-08-10T10:12:35.772Z</time>
      </trkpt>
      <trkpt lat="46.94656" lon="8.57959">
        <ele>763</ele>
        <time>2021-08-10T10:12:36.773Z</time>
      </trkpt>
      <trkpt lat="46.94654" lon="8.5796">
        <ele>763</ele>
        <time>2021-08-10T10:12:37.773Z</time>
      </trkpt>
      <trkpt lat="46.94653" lon="8.57961">
        <ele>763</ele>
        <time>2021-08-10T10:12:38.773Z</time>
      </trkpt>
      <trkpt lat="46.94652" lon="8.57962">
        <ele>763</ele>
        <time>2021-08-10T10:12:39.773Z</time>
      </trkpt>
      <trkpt lat="46.9465" lon="8.57962">
        <ele>763</ele>
        <time>2021-08-10T10:12:40.773Z</time>
      </trkpt>
      <trkpt lat="46.94649" lon="8.57963">
        <ele>763</ele>
        <time>2021-08-10T10:12:41.773Z</time>
      </trkpt>
      <trkpt lat="46.94648" lon="8.57964">
        <ele>762</ele>
        <time>2021-08-10T10:12:42.772Z</time>
      </trkpt>
      <trkpt lat="46.94647" lon="8.57965">
        <ele>762</ele>
        <time>2021-08-10T10:12:43.773Z</time>
      </trkpt>
      <trkpt lat="46.94645" lon="8.57966">
        <ele>761</ele>
        <time>2021-08-10T10:12:44.772Z</time>
      </trkpt>
      <trkpt lat="46.94644" lon="8.57968">
        <ele>761</ele>
        <time>2021-08-10T10:12:45.773Z</time>
      </trkpt>
      <trkpt lat="46.94643" lon="8.57969">
        <ele>760</ele>
        <time>2021-08-10T10:12:46.773Z</time>
      </trkpt>
      <trkpt lat="46.94642" lon="8.5797">
        <ele>760</ele>
        <time>2021-08-10T10:12:47.772Z</time>
      </trkpt>
      <trkpt lat="46.94641" lon="8.57971">
        <ele>759</ele>
        <time>2021-08-10T10:12:48.773Z</time>
      </trkpt>
      <trkpt lat="46.94641" lon="8.57973">
        <ele>758</ele>
        <time>2021-08-10T10:12:49.773Z</time>
      </trkpt>
      <trkpt lat="46.9464" lon="8.57974">
        <ele>758</ele>
        <time>2021-08-10T10:12:50.773Z</time>
      </trkpt>
      <trkpt lat="46.94639" lon="8.57976">
        <ele>758</ele>
        <time>2021-08-10T10:12:51.772Z</time>
      </trkpt>
      <trkpt lat="46.94638" lon="8.57978">
        <ele>758</ele>
        <time>2021-08-10T10:12:52.773Z</time>
      </trkpt>
      <trkpt lat="46.94637" lon="8.57979">
        <ele>758</ele>
        <time>2021-08-10T10:12:53.772Z</time>
      </trkpt>
      <trkpt lat="46.94637" lon="8.5798">
        <ele>757</ele>
        <time>2021-08-10T10:12:54.773Z</time>
      </trkpt>
      <trkpt lat="46.94636" lon="8.57982">
        <ele>757</ele>
        <time>2021-08-10T10:12:55.772Z</time>
      </trkpt>
      <trkpt lat="46.94636" lon="8.57983">
        <ele>757</ele>
        <time>2021-08-10T10:12:56.773Z</time>
      </trkpt>
      <trkpt lat="46.94635" lon="8.57984">
        <ele>756</ele>
        <time>2021-08-10T10:12:57.773Z</time>
      </trkpt>
      <trkpt lat="46.94634" lon="8.57986">
        <ele>756</ele>
        <time>2021-08-10T10:12:58.773Z</time>
      </trkpt>
      <trkpt lat="46.94633" lon="8.57987">
        <ele>756</ele>
        <time>2021-08-10T10:12:59.772Z</time>
      </trkpt>
      <trkpt lat="46.94632" lon="8.57988">
        <ele>756</ele>
        <time>2021-08-10T10:13:00.773Z</time>
      </trkpt>
      <trkpt lat="46.94631" lon="8.5799">
        <ele>756</ele>
        <time>2021-08-10T10:13:01.773Z</time>
      </trkpt>
      <trkpt lat="46.9463" lon="8.57991">
        <ele>756</ele>
        <time>2021-08-10T10:13:02.773Z</time>
      </trkpt>
      <trkpt lat="46.94629" lon="8.57993">
        <ele>756</ele>
        <time>2021-08-10T10:13:03.772Z</time>
      </trkpt>
      <trkpt lat="46.94628" lon="8.57994">
        <ele>756</ele>
        <time>2021-08-10T10:13:04.772Z</time>
      </trkpt>
      <trkpt lat="46.94627" lon="8.57996">
        <ele>756</ele>
        <time>2021-08-10T10:13:05.772Z</time>
      </trkpt>
      <trkpt lat="46.94626" lon="8.57997">
        <ele>756</ele>
        <time>2021-08-10T10:13:06.772Z</time>
      </trkpt>
      <trkpt lat="46.94626" lon="8.57998">
        <ele>756</ele>
        <time>2021-08-10T10:13:07.772Z</time>
      </trkpt>
      <trkpt lat="46.94625" lon="8.58">
        <ele>756</ele>
        <time>2021-08-10T10:13:08.773Z</time>
      </trkpt>
      <trkpt lat="46.94625" lon="8.58002">
        <ele>755</ele>
        <time>2021-08-10T10:13:09.773Z</time>
      </trkpt>
      <trkpt lat="46.94624" lon="8.58003">
        <ele>755</ele>
        <time>2021-08-10T10:13:10.773Z</time>
      </trkpt>
      <trkpt lat="46.94623" lon="8.58005">
        <ele>755</ele>
        <time>2021-08-10T10:13:11.773Z</time>
      </trkpt>
      <trkpt lat="46.94623" lon="8.58007">
        <ele>755</ele>
        <time>2021-08-10T10:13:12.772Z</time>
      </trkpt>
      <trkpt lat="46.94623" lon="8.58008">
        <ele>755</ele>
        <time>2021-08-10T10:13:13.772Z</time>
      </trkpt>
      <trkpt lat="46.94622" lon="8.5801">
        <ele>755</ele>
        <time>2021-08-10T10:13:14.772Z</time>
      </trkpt>
      <trkpt lat="46.94622" lon="8.58011">
        <ele>755</ele>
        <time>2021-08-10T10:13:15.773Z</time>
      </trkpt>
      <trkpt lat="46.94621" lon="8.58013">
        <ele>754</ele>
        <time>2021-08-10T10:13:16.772Z</time>
      </trkpt>
      <trkpt lat="46.94621" lon="8.58015">
        <ele>754</ele>
        <time>2021-08-10T10:13:17.772Z</time>
      </trkpt>
      <trkpt lat="46.9462" lon="8.58017">
        <ele>754</ele>
        <time>2021-08-10T10:13:18.772Z</time>
      </trkpt>
      <trkpt lat="46.94619" lon="8.58018">
        <ele>753</ele>
        <time>2021-08-10T10:13:19.772Z</time>
      </trkpt>
      <trkpt lat="46.94619" lon="8.5802">
        <ele>753</ele>
        <time>2021-08-10T10:13:20.773Z</time>
      </trkpt>
      <trkpt lat="46.94618" lon="8.58021">
        <ele>753</ele>
        <time>2021-08-10T10:13:21.772Z</time>
      </trkpt>
      <trkpt lat="46.94617" lon="8.58023">
        <ele>753</ele>
        <time>2021-08-10T10:13:22.773Z</time>
      </trkpt>
      <trkpt lat="46.94616" lon="8.58024">
        <ele>753</ele>
        <time>2021-08-10T10:13:23.773Z</time>
      </trkpt>
      <trkpt lat="46.94616" lon="8.58025">
        <ele>753</ele>
        <time>2021-08-10T10:13:24.772Z</time>
      </trkpt>
      <trkpt lat="46.94615" lon="8.58027">
        <ele>754</ele>
        <time>2021-08-10T10:13:25.772Z</time>
      </trkpt>
      <trkpt lat="46.94614" lon="8.58028">
        <ele>754</ele>
        <time>2021-08-10T10:13:26.773Z</time>
      </trkpt>
      <trkpt lat="46.94614" lon="8.5803">
        <ele>755</ele>
        <time>2021-08-10T10:13:27.772Z</time>
      </trkpt>
      <trkpt lat="46.94613" lon="8.58031">
        <ele>755</ele>
        <time>2021-08-10T10:13:28.772Z</time>
      </trkpt>
      <trkpt lat="46.94612" lon="8.58032">
        <ele>756</ele>
        <time>2021-08-10T10:13:29.773Z</time>
      </trkpt>
      <trkpt lat="46.94612" lon="8.58034">
        <ele>756</ele>
        <time>2021-08-10T10:13:30.772Z</time>
      </trkpt>
      <trkpt lat="46.94611" lon="8.58035">
        <ele>756</ele>
        <time>2021-08-10T10:13:31.773Z</time>
      </trkpt>
      <trkpt lat="46.9461" lon="8.58036">
        <ele>757</ele>
        <time>2021-08-10T10:13:32.772Z</time>
      </trkpt>
      <trkpt lat="46.94609" lon="8.58037">
        <ele>757</ele>
        <time>2021-08-10T10:13:33.772Z</time>
      </trkpt>
      <trkpt lat="46.94608" lon="8.58038">
        <ele>757</ele>
        <time>2021-08-10T10:13:34.772Z</time>
      </trkpt>
      <trkpt lat="46.94607" lon="8.58039">
        <ele>758</ele>
        <time>2021-08-10T10:13:35.772Z</time>
      </trkpt>
      <trkpt lat="46.94606" lon="8.58041">
        <ele>758</ele>
        <time>2021-08-10T10:13:36.772Z</time>
      </trkpt>
      <trkpt lat="46.94605" lon="8.58042">
        <ele>757</ele>
        <time>2021-08-10T10:13:37.772Z</time>
      </trkpt>
      <trkpt lat="46.94605" lon="8.58043">
        <ele>757</ele>
        <time>2021-08-10T10:13:38.773Z</time>
      </trkpt>
      <trkpt lat="46.94604" lon="8.58044">
        <ele>757</ele>
        <time>2021-08-10T10:13:39.772Z</time>
      </trkpt>
      <trkpt lat="46.94603" lon="8.58045">
        <ele>757</ele>
        <time>2021-08-10T10:13:40.772Z</time>
      </trkpt>
      <trkpt lat="46.94601" lon="8.58047">
        <ele>756</ele>
        <time>2021-08-10T10:13:41.772Z</time>
      </trkpt>
      <trkpt lat="46.946" lon="8.58048">
        <ele>756</ele>
        <time>2021-08-10T10:13:42.772Z</time>
      </trkpt>
      <trkpt lat="46.94599" lon="8.58048">
        <ele>756</ele>
        <time>2021-08-10T10:13:43.772Z</time>
      </trkpt>
      <trkpt lat="46.94598" lon="8.58049">
        <ele>755</ele>
        <time>2021-08-10T10:13:44.773Z</time>
      </trkpt>
      <trkpt lat="46.94597" lon="8.5805">
        <ele>755</ele>
        <time>2021-08-10T10:13:45.773Z</time>
      </trkpt>
      <trkpt lat="46.94596" lon="8.58051">
        <ele>754</ele>
        <time>2021-08-10T10:13:46.772Z</time>
      </trkpt>
      <trkpt lat="46.94595" lon="8.58052">
        <ele>753</ele>
        <time>2021-08-10T10:13:47.773Z</time>
      </trkpt>
      <trkpt lat="46.94595" lon="8.58053">
        <ele>753</ele>
        <time>2021-08-10T10:13:48.773Z</time>
      </trkpt>
      <trkpt lat="46.94594" lon="8.58054">
        <ele>752</ele>
        <time>2021-08-10T10:13:49.773Z</time>
      </trkpt>
      <trkpt lat="46.94593" lon="8.58055">
        <ele>752</ele>
        <time>2021-08-10T10:13:50.772Z</time>
      </trkpt>
      <trkpt lat="46.94592" lon="8.58056">
        <ele>752</ele>
        <time>2021-08-10T10:13:51.772Z</time>
      </trkpt>
      <trkpt lat="46.9459" lon="8.58057">
        <ele>752</ele>
        <time>2021-08-10T10:13:52.773Z</time>
      </trkpt>
      <trkpt lat="46.94589" lon="8.58057">
        <ele>752</ele>
        <time>2021-08-10T10:13:53.772Z</time>
      </trkpt>
      <trkpt lat="46.94588" lon="8.58057">
        <ele>752</ele>
        <time>2021-08-10T10:13:54.772Z</time>
      </trkpt>
      <trkpt lat="46.94587" lon="8.58057">
        <ele>752</ele>
        <time>2021-08-10T10:13:55.772Z</time>
      </trkpt>
      <trkpt lat="46.94586" lon="8.58058">
        <ele>751</ele>
        <time>2021-08-10T10:13:56.773Z</time>
      </trkpt>
      <trkpt lat="46.94584" lon="8.58058">
        <ele>751</ele>
        <time>2021-08-10T10:13:57.773Z</time>
      </trkpt>
      <trkpt lat="46.94583" lon="8.58058">
        <ele>750</ele>
        <time>2021-08-10T10:13:58.772Z</time>
      </trkpt>
      <trkpt lat="46.94582" lon="8.58058">
        <ele>749</ele>
        <time>2021-08-10T10:13:59.772Z</time>
      </trkpt>
      <trkpt lat="46.94581" lon="8.58059">
        <ele>748</ele>
        <time>2021-08-10T10:14:00.772Z</time>
      </trkpt>
      <trkpt lat="46.9458" lon="8.58059">
        <ele>747</ele>
        <time>2021-08-10T10:14:01.773Z</time>
      </trkpt>
      <trkpt lat="46.94579" lon="8.58059">
        <ele>747</ele>
        <time>2021-08-10T10:14:02.773Z</time>
      </trkpt>
      <trkpt lat="46.94578" lon="8.58059">
        <ele>747</ele>
        <time>2021-08-10T10:14:03.773Z</time>
      </trkpt>
      <trkpt lat="46.94577" lon="8.58058">
        <ele>747</ele>
        <time>2021-08-10T10:14:04.772Z</time>
      </trkpt>
      <trkpt lat="46.94576" lon="8.58059">
        <ele>746</ele>
        <time>2021-08-10T10:14:05.772Z</time>
      </trkpt>
      <trkpt lat="46.94575" lon="8.58059">
        <ele>746</ele>
        <time>2021-08-10T10:14:06.772Z</time>
      </trkpt>
      <trkpt lat="46.94573" lon="8.58059">
        <ele>746</ele>
        <time>2021-08-10T10:14:07.772Z</time>
      </trkpt>
      <trkpt lat="46.94572" lon="8.58058">
        <ele>746</ele>
        <time>2021-08-10T10:14:08.773Z</time>
      </trkpt>
      <trkpt lat="46.94571" lon="8.58058">
        <ele>746</ele>
        <time>2021-08-10T10:14:09.772Z</time>
      </trkpt>
      <trkpt lat="46.9457" lon="8.58057">
        <ele>746</ele>
        <time>2021-08-10T10:14:10.773Z</time>
      </trkpt>
      <trkpt lat="46.94569" lon="8.58057">
        <ele>746</ele>
        <time>2021-08-10T10:14:11.773Z</time>
      </trkpt>
      <trkpt lat="46.94568" lon="8.58056">
        <ele>745</ele>
        <time>2021-08-10T10:14:12.773Z</time>
      </trkpt>
      <trkpt lat="46.94567" lon="8.58056">
        <ele>745</ele>
        <time>2021-08-10T10:14:13.773Z</time>
      </trkpt>
      <trkpt lat="46.94566" lon="8.58055">
        <ele>745</ele>
        <time>2021-08-10T10:14:14.772Z</time>
      </trkpt>
      <trkpt lat="46.94565" lon="8.58055">
        <ele>746</ele>
        <time>2021-08-10T10:14:15.773Z</time>
      </trkpt>
      <trkpt lat="46.94563" lon="8.58054">
        <ele>746</ele>
        <time>2021-08-10T10:14:16.772Z</time>
      </trkpt>
      <trkpt lat="46.94562" lon="8.58054">
        <ele>746</ele>
        <time>2021-08-10T10:14:17.773Z</time>
      </trkpt>
      <trkpt lat="46.94561" lon="8.58053">
        <ele>747</ele>
        <time>2021-08-10T10:14:18.772Z</time>
      </trkpt>
      <trkpt lat="46.9456" lon="8.58052">
        <ele>747</ele>
        <time>2021-08-10T10:14:19.772Z</time>
      </trkpt>
      <trkpt lat="46.94559" lon="8.58051">
        <ele>747</ele>
        <time>2021-08-10T10:14:20.773Z</time>
      </trkpt>
      <trkpt lat="46.94557" lon="8.58051">
        <ele>747</ele>
        <time>2021-08-10T10:14:21.773Z</time>
      </trkpt>
      <trkpt lat="46.94556" lon="8.58049">
        <ele>748</ele>
        <time>2021-08-10T10:14:22.773Z</time>
      </trkpt>
      <trkpt lat="46.94555" lon="8.58049">
        <ele>748</ele>
        <time>2021-08-10T10:14:23.773Z</time>
      </trkpt>
      <trkpt lat="46.94554" lon="8.58048">
        <ele>749</ele>
        <time>2021-08-10T10:14:24.773Z</time>
      </trkpt>
      <trkpt lat="46.94553" lon="8.58046">
        <ele>749</ele>
        <time>2021-08-10T10:14:25.773Z</time>
      </trkpt>
      <trkpt lat="46.94552" lon="8.58045">
        <ele>749</ele>
        <time>2021-08-10T10:14:26.772Z</time>
      </trkpt>
      <trkpt lat="46.94551" lon="8.58043">
        <ele>749</ele>
        <time>2021-08-10T10:14:27.772Z</time>
      </trkpt>
      <trkpt lat="46.9455" lon="8.58042">
        <ele>749</ele>
        <time>2021-08-10T10:14:28.773Z</time>
      </trkpt>
      <trkpt lat="46.94549" lon="8.58041">
        <ele>748</ele>
        <time>2021-08-10T10:14:29.773Z</time>
      </trkpt>
      <trkpt lat="46.94549" lon="8.5804">
        <ele>748</ele>
        <time>2021-08-10T10:14:30.773Z</time>
      </trkpt>
      <trkpt lat="46.94548" lon="8.58039">
        <ele>748</ele>
        <time>2021-08-10T10:14:31.773Z</time>
      </trkpt>
      <trkpt lat="46.94547" lon="8.58038">
        <ele>747</ele>
        <time>2021-08-10T10:14:32.772Z</time>
      </trkpt>
      <trkpt lat="46.94547" lon="8.58036">
        <ele>746</ele>
        <time>2021-08-10T10:14:33.772Z</time>
      </trkpt>
      <trkpt lat="46.94546" lon="8.58035">
        <ele>746</ele>
        <time>2021-08-10T10:14:34.773Z</time>
      </trkpt>
      <trkpt lat="46.94545" lon="8.58033">
        <ele>746</ele>
        <time>2021-08-10T10:14:35.773Z</time>
      </trkpt>
      <trkpt lat="46.94545" lon="8.58031">
        <ele>746</ele>
        <time>2021-08-10T10:14:36.773Z</time>
      </trkpt>
      <trkpt lat="46.94544" lon="8.58031">
        <ele>745</ele>
        <time>2021-08-10T10:14:37.772Z</time>
      </trkpt>
      <trkpt lat="46.94543" lon="8.58029">
        <ele>745</ele>
        <time>2021-08-10T10:14:38.773Z</time>
      </trkpt>
      <trkpt lat="46.94542" lon="8.58028">
        <ele>746</ele>
        <time>2021-08-10T10:14:39.773Z</time>
      </trkpt>
      <trkpt lat="46.9454" lon="8.58027">
        <ele>746</ele>
        <time>2021-08-10T10:14:40.773Z</time>
      </trkpt>
      <trkpt lat="46.94539" lon="8.58026">
        <ele>746</ele>
        <time>2021-08-10T10:14:41.772Z</time>
      </trkpt>
      <trkpt lat="46.94538" lon="8.58024">
        <ele>746</ele>
        <time>2021-08-10T10:14:42.772Z</time>
      </trkpt>
      <trkpt lat="46.94538" lon="8.58023">
        <ele>747</ele>
        <time>2021-08-10T10:14:43.773Z</time>
      </trkpt>
      <trkpt lat="46.94537" lon="8.58021">
        <ele>747</ele>
        <time>2021-08-10T10:14:44.772Z</time>
      </trkpt>
      <trkpt lat="46.94537" lon="8.5802">
        <ele>747</ele>
        <time>2021-08-10T10:14:45.773Z</time>
      </trkpt>
      <trkpt lat="46.94537" lon="8.58018">
        <ele>747</ele>
        <time>2021-08-10T10:14:46.773Z</time>
      </trkpt>
      <trkpt lat="46.94537" lon="8.58017">
        <ele>747</ele>
        <time>2021-08-10T10:14:47.773Z</time>
      </trkpt>
      <trkpt lat="46.94537" lon="8.58015">
        <ele>747</ele>
        <time>2021-08-10T10:14:48.773Z</time>
      </trkpt>
      <trkpt lat="46.94537" lon="8.58013">
        <ele>747</ele>
        <time>2021-08-10T10:14:49.772Z</time>
      </trkpt>
      <trkpt lat="46.94537" lon="8.58012">
        <ele>747</ele>
        <time>2021-08-10T10:14:50.772Z</time>
      </trkpt>
      <trkpt lat="46.94536" lon="8.5801">
        <ele>747</ele>
        <time>2021-08-10T10:14:51.773Z</time>
      </trkpt>
      <trkpt lat="46.94536" lon="8.58009">
        <ele>747</ele>
        <time>2021-08-10T10:14:52.773Z</time>
      </trkpt>
      <trkpt lat="46.94536" lon="8.58009">
        <ele>747</ele>
        <time>2021-08-10T10:14:53.772Z</time>
      </trkpt>
      <trkpt lat="46.94535" lon="8.58008">
        <ele>747</ele>
        <time>2021-08-10T10:14:54.773Z</time>
      </trkpt>
      <trkpt lat="46.94534" lon="8.58007">
        <ele>747</ele>
        <time>2021-08-10T10:14:55.772Z</time>
      </trkpt>
      <trkpt lat="46.94534" lon="8.58006">
        <ele>746</ele>
        <time>2021-08-10T10:14:56.772Z</time>
      </trkpt>
      <trkpt lat="46.94534" lon="8.58004">
        <ele>746</ele>
        <time>2021-08-10T10:14:57.772Z</time>
      </trkpt>
      <trkpt lat="46.94533" lon="8.58002">
        <ele>746</ele>
        <time>2021-08-10T10:14:58.772Z</time>
      </trkpt>
      <trkpt lat="46.94533" lon="8.58001">
        <ele>745</ele>
        <time>2021-08-10T10:14:59.772Z</time>
      </trkpt>
      <trkpt lat="46.94532" lon="8.57998">
        <ele>745</ele>
        <time>2021-08-10T10:15:00.773Z</time>
      </trkpt>
      <trkpt lat="46.94532" lon="8.57997">
        <ele>745</ele>
        <time>2021-08-10T10:15:01.773Z</time>
      </trkpt>
      <trkpt lat="46.94531" lon="8.57994">
        <ele>745</ele>
        <time>2021-08-10T10:15:02.773Z</time>
      </trkpt>
      <trkpt lat="46.9453" lon="8.57993">
        <ele>745</ele>
        <time>2021-08-10T10:15:03.773Z</time>
      </trkpt>
      <trkpt lat="46.94529" lon="8.57992">
        <ele>745</ele>
        <time>2021-08-10T10:15:04.773Z</time>
      </trkpt>
      <trkpt lat="46.94529" lon="8.57992">
        <ele>746</ele>
        <time>2021-08-10T10:15:05.772Z</time>
      </trkpt>
      <trkpt lat="46.94528" lon="8.57991">
        <ele>746</ele>
        <time>2021-08-10T10:15:06.773Z</time>
      </trkpt>
      <trkpt lat="46.94528" lon="8.5799">
        <ele>746</ele>
        <time>2021-08-10T10:15:07.773Z</time>
      </trkpt>
      <trkpt lat="46.94528" lon="8.57989">
        <ele>745</ele>
        <time>2021-08-10T10:15:08.773Z</time>
      </trkpt>
      <trkpt lat="46.94528" lon="8.57988">
        <ele>745</ele>
        <time>2021-08-10T10:15:09.773Z</time>
      </trkpt>
      <trkpt lat="46.94527" lon="8.57986">
        <ele>744</ele>
        <time>2021-08-10T10:15:10.773Z</time>
      </trkpt>
      <trkpt lat="46.94527" lon="8.57984">
        <ele>744</ele>
        <time>2021-08-10T10:15:11.772Z</time>
      </trkpt>
      <trkpt lat="46.94527" lon="8.57982">
        <ele>744</ele>
        <time>2021-08-10T10:15:12.773Z</time>
      </trkpt>
      <trkpt lat="46.94526" lon="8.57981">
        <ele>744</ele>
        <time>2021-08-10T10:15:13.773Z</time>
      </trkpt>
      <trkpt lat="46.94525" lon="8.57979">
        <ele>743</ele>
        <time>2021-08-10T10:15:14.772Z</time>
      </trkpt>
      <trkpt lat="46.94525" lon="8.57978">
        <ele>743</ele>
        <time>2021-08-10T10:15:15.772Z</time>
      </trkpt>
      <trkpt lat="46.94524" lon="8.57976">
        <ele>743</ele>
        <time>2021-08-10T10:15:16.772Z</time>
      </trkpt>
      <trkpt lat="46.94523" lon="8.57975">
        <ele>743</ele>
        <time>2021-08-10T10:15:17.773Z</time>
      </trkpt>
      <trkpt lat="46.94522" lon="8.57973">
        <ele>743</ele>
        <time>2021-08-10T10:15:18.773Z</time>
      </trkpt>
      <trkpt lat="46.94522" lon="8.57972">
        <ele>743</ele>
        <time>2021-08-10T10:15:19.773Z</time>
      </trkpt>
      <trkpt lat="46.94521" lon="8.5797">
        <ele>743</ele>
        <time>2021-08-10T10:15:20.773Z</time>
      </trkpt>
      <trkpt lat="46.9452" lon="8.57969">
        <ele>744</ele>
        <time>2021-08-10T10:15:21.772Z</time>
      </trkpt>
      <trkpt lat="46.94519" lon="8.57968">
        <ele>744</ele>
        <time>2021-08-10T10:15:22.773Z</time>
      </trkpt>
      <trkpt lat="46.94518" lon="8.57966">
        <ele>743</ele>
        <time>2021-08-10T10:15:23.772Z</time>
      </trkpt>
      <trkpt lat="46.94518" lon="8.57964">
        <ele>743</ele>
        <time>2021-08-10T10:15:24.773Z</time>
      </trkpt>
      <trkpt lat="46.94517" lon="8.57962">
        <ele>743</ele>
        <time>2021-08-10T10:15:25.772Z</time>
      </trkpt>
      <trkpt lat="46.94517" lon="8.5796">
        <ele>743</ele>
        <time>2021-08-10T10:15:26.772Z</time>
      </trkpt>
      <trkpt lat="46.94517" lon="8.57958">
        <ele>743</ele>
        <time>2021-08-10T10:15:27.773Z</time>
      </trkpt>
      <trkpt lat="46.94516" lon="8.57957">
        <ele>743</ele>
        <time>2021-08-10T10:15:28.773Z</time>
      </trkpt>
      <trkpt lat="46.94515" lon="8.57955">
        <ele>742</ele>
        <time>2021-08-10T10:15:29.772Z</time>
      </trkpt>
      <trkpt lat="46.94514" lon="8.57954">
        <ele>742</ele>
        <time>2021-08-10T10:15:30.773Z</time>
      </trkpt>
      <trkpt lat="46.94512" lon="8.57952">
        <ele>742</ele>
        <time>2021-08-10T10:15:31.773Z</time>
      </trkpt>
      <trkpt lat="46.94511" lon="8.5795">
        <ele>742</ele>
        <time>2021-08-10T10:15:32.773Z</time>
      </trkpt>
      <trkpt lat="46.9451" lon="8.57949">
        <ele>742</ele>
        <time>2021-08-10T10:15:33.772Z</time>
      </trkpt>
      <trkpt lat="46.94509" lon="8.57948">
        <ele>742</ele>
        <time>2021-08-10T10:15:34.773Z</time>
      </trkpt>
      <trkpt lat="46.94508" lon="8.57947">
        <ele>742</ele>
        <time>2021-08-10T10:15:35.773Z</time>
      </trkpt>
      <trkpt lat="46.94507" lon="8.57946">
        <ele>742</ele>
        <time>2021-08-10T10:15:36.773Z</time>
      </trkpt>
      <trkpt lat="46.94506" lon="8.57945">
        <ele>742</ele>
        <time>2021-08-10T10:15:37.773Z</time>
      </trkpt>
      <trkpt lat="46.94505" lon="8.57943">
        <ele>742</ele>
        <time>2021-08-10T10:15:38.772Z</time>
      </trkpt>
      <trkpt lat="46.94504" lon="8.57942">
        <ele>742</ele>
        <time>2021-08-10T10:15:39.773Z</time>
      </trkpt>
      <trkpt lat="46.94502" lon="8.57941">
        <ele>742</ele>
        <time>2021-08-10T10:15:40.773Z</time>
      </trkpt>
      <trkpt lat="46.94501" lon="8.5794">
        <ele>742</ele>
        <time>2021-08-10T10:15:41.773Z</time>
      </trkpt>
      <trkpt lat="46.945" lon="8.57939">
        <ele>743</ele>
        <time>2021-08-10T10:15:42.773Z</time>
      </trkpt>
      <trkpt lat="46.94499" lon="8.57938">
        <ele>742</ele>
        <time>2021-08-10T10:15:43.772Z</time>
      </trkpt>
      <trkpt lat="46.94498" lon="8.57937">
        <ele>742</ele>
        <time>2021-08-10T10:15:44.773Z</time>
      </trkpt>
      <trkpt lat="46.94497" lon="8.57937">
        <ele>742</ele>
        <time>2021-08-10T10:15:45.773Z</time>
      </trkpt>
      <trkpt lat="46.94496" lon="8.57936">
        <ele>741</ele>
        <time>2021-08-10T10:15:46.773Z</time>
      </trkpt>
      <trkpt lat="46.94495" lon="8.57935">
        <ele>741</ele>
        <time>2021-08-10T10:15:47.773Z</time>
      </trkpt>
      <trkpt lat="46.94494" lon="8.57934">
        <ele>741</ele>
        <time>2021-08-10T10:15:48.773Z</time>
      </trkpt>
      <trkpt lat="46.94493" lon="8.57934">
        <ele>741</ele>
        <time>2021-08-10T10:15:49.773Z</time>
      </trkpt>
      <trkpt lat="46.94491" lon="8.57933">
        <ele>741</ele>
        <time>2021-08-10T10:15:50.772Z</time>
      </trkpt>
      <trkpt lat="46.9449" lon="8.57933">
        <ele>741</ele>
        <time>2021-08-10T10:15:51.773Z</time>
      </trkpt>
      <trkpt lat="46.94489" lon="8.57932">
        <ele>741</ele>
        <time>2021-08-10T10:15:52.773Z</time>
      </trkpt>
      <trkpt lat="46.94487" lon="8.57932">
        <ele>741</ele>
        <time>2021-08-10T10:15:53.772Z</time>
      </trkpt>
      <trkpt lat="46.94486" lon="8.57931">
        <ele>740</ele>
        <time>2021-08-10T10:15:54.773Z</time>
      </trkpt>
      <trkpt lat="46.94485" lon="8.5793">
        <ele>739</ele>
        <time>2021-08-10T10:15:55.773Z</time>
      </trkpt>
      <trkpt lat="46.94484" lon="8.5793">
        <ele>739</ele>
        <time>2021-08-10T10:15:56.773Z</time>
      </trkpt>
      <trkpt lat="46.94483" lon="8.5793">
        <ele>739</ele>
        <time>2021-08-10T10:15:57.773Z</time>
      </trkpt>
      <trkpt lat="46.94482" lon="8.5793">
        <ele>738</ele>
        <time>2021-08-10T10:15:58.772Z</time>
      </trkpt>
      <trkpt lat="46.94481" lon="8.5793">
        <ele>738</ele>
        <time>2021-08-10T10:15:59.773Z</time>
      </trkpt>
      <trkpt lat="46.9448" lon="8.57929">
        <ele>738</ele>
        <time>2021-08-10T10:16:00.773Z</time>
      </trkpt>
      <trkpt lat="46.94479" lon="8.57929">
        <ele>738</ele>
        <time>2021-08-10T10:16:01.773Z</time>
      </trkpt>
      <trkpt lat="46.94478" lon="8.57929">
        <ele>737</ele>
        <time>2021-08-10T10:16:02.773Z</time>
      </trkpt>
      <trkpt lat="46.94477" lon="8.57929">
        <ele>737</ele>
        <time>2021-08-10T10:16:03.773Z</time>
      </trkpt>
      <trkpt lat="46.94476" lon="8.57929">
        <ele>737</ele>
        <time>2021-08-10T10:16:04.773Z</time>
      </trkpt>
      <trkpt lat="46.94475" lon="8.57929">
        <ele>737</ele>
        <time>2021-08-10T10:16:05.772Z</time>
      </trkpt>
      <trkpt lat="46.94474" lon="8.57928">
        <ele>737</ele>
        <time>2021-08-10T10:16:06.772Z</time>
      </trkpt>
      <trkpt lat="46.94472" lon="8.57928">
        <ele>736</ele>
        <time>2021-08-10T10:16:07.772Z</time>
      </trkpt>
      <trkpt lat="46.94471" lon="8.57927">
        <ele>736</ele>
        <time>2021-08-10T10:16:08.772Z</time>
      </trkpt>
      <trkpt lat="46.9447" lon="8.57927">
        <ele>736</ele>
        <time>2021-08-10T10:16:09.772Z</time>
      </trkpt>
      <trkpt lat="46.94469" lon="8.57926">
        <ele>736</ele>
        <time>2021-08-10T10:16:10.772Z</time>
      </trkpt>
      <trkpt lat="46.94468" lon="8.57926">
        <ele>736</ele>
        <time>2021-08-10T10:16:11.772Z</time>
      </trkpt>
      <trkpt lat="46.94467" lon="8.57925">
        <ele>735</ele>
        <time>2021-08-10T10:16:12.772Z</time>
      </trkpt>
      <trkpt lat="46.94467" lon="8.57925">
        <ele>735</ele>
        <time>2021-08-10T10:16:13.772Z</time>
      </trkpt>
      <trkpt lat="46.94466" lon="8.57924">
        <ele>735</ele>
        <time>2021-08-10T10:16:14.773Z</time>
      </trkpt>
      <trkpt lat="46.94466" lon="8.57924">
        <ele>734</ele>
        <time>2021-08-10T10:16:15.772Z</time>
      </trkpt>
      <trkpt lat="46.94465" lon="8.57923">
        <ele>734</ele>
        <time>2021-08-10T10:16:16.772Z</time>
      </trkpt>
      <trkpt lat="46.94464" lon="8.57922">
        <ele>734</ele>
        <time>2021-08-10T10:16:17.772Z</time>
      </trkpt>
      <trkpt lat="46.94463" lon="8.57921">
        <ele>734</ele>
        <time>2021-08-10T10:16:18.773Z</time>
      </trkpt>
      <trkpt lat="46.94462" lon="8.57921">
        <ele>734</ele>
        <time>2021-08-10T10:16:19.773Z</time>
      </trkpt>
      <trkpt lat="46.9446" lon="8.57921">
        <ele>734</ele>
        <time>2021-08-10T10:16:20.772Z</time>
      </trkpt>
      <trkpt lat="46.94458" lon="8.5792">
        <ele>734</ele>
        <time>2021-08-10T10:16:21.773Z</time>
      </trkpt>
      <trkpt lat="46.94456" lon="8.57919">
        <ele>735</ele>
        <time>2021-08-10T10:16:22.773Z</time>
      </trkpt>
      <trkpt lat="46.94455" lon="8.57919">
        <ele>736</ele>
        <time>2021-08-10T10:16:23.773Z</time>
      </trkpt>
      <trkpt lat="46.94453" lon="8.57919">
        <ele>736</ele>
        <time>2021-08-10T10:16:24.773Z</time>
      </trkpt>
      <trkpt lat="46.94452" lon="8.57918">
        <ele>736</ele>
        <time>2021-08-10T10:16:25.773Z</time>
      </trkpt>
      <trkpt lat="46.94451" lon="8.57918">
        <ele>736</ele>
        <time>2021-08-10T10:16:26.773Z</time>
      </trkpt>
      <trkpt lat="46.94449" lon="8.57917">
        <ele>736</ele>
        <time>2021-08-10T10:16:27.772Z</time>
      </trkpt>
      <trkpt lat="46.94448" lon="8.57917">
        <ele>737</ele>
        <time>2021-08-10T10:16:28.772Z</time>
      </trkpt>
      <trkpt lat="46.94447" lon="8.57916">
        <ele>737</ele>
        <time>2021-08-10T10:16:29.773Z</time>
      </trkpt>
      <trkpt lat="46.94445" lon="8.57915">
        <ele>737</ele>
        <time>2021-08-10T10:16:30.773Z</time>
      </trkpt>
      <trkpt lat="46.94444" lon="8.57914">
        <ele>737</ele>
        <time>2021-08-10T10:16:31.772Z</time>
      </trkpt>
      <trkpt lat="46.94443" lon="8.57914">
        <ele>738</ele>
        <time>2021-08-10T10:16:32.773Z</time>
      </trkpt>
      <trkpt lat="46.94442" lon="8.57914">
        <ele>738</ele>
        <time>2021-08-10T10:16:33.772Z</time>
      </trkpt>
      <trkpt lat="46.94441" lon="8.57913">
        <ele>739</ele>
        <time>2021-08-10T10:16:34.772Z</time>
      </trkpt>
      <trkpt lat="46.9444" lon="8.57912">
        <ele>739</ele>
        <time>2021-08-10T10:16:35.773Z</time>
      </trkpt>
      <trkpt lat="46.94439" lon="8.57912">
        <ele>739</ele>
        <time>2021-08-10T10:16:36.772Z</time>
      </trkpt>
      <trkpt lat="46.94437" lon="8.57911">
        <ele>738</ele>
        <time>2021-08-10T10:16:37.773Z</time>
      </trkpt>
      <trkpt lat="46.94436" lon="8.5791">
        <ele>738</ele>
        <time>2021-08-10T10:16:38.773Z</time>
      </trkpt>
      <trkpt lat="46.94435" lon="8.5791">
        <ele>738</ele>
        <time>2021-08-10T10:16:39.773Z</time>
      </trkpt>
      <trkpt lat="46.94434" lon="8.57909">
        <ele>738</ele>
        <time>2021-08-10T10:16:40.772Z</time>
      </trkpt>
      <trkpt lat="46.94433" lon="8.57909">
        <ele>737</ele>
        <time>2021-08-10T10:16:41.773Z</time>
      </trkpt>
      <trkpt lat="46.94432" lon="8.57909">
        <ele>737</ele>
        <time>2021-08-10T10:16:42.773Z</time>
      </trkpt>
      <trkpt lat="46.94431" lon="8.57909">
        <ele>737</ele>
        <time>2021-08-10T10:16:43.773Z</time>
      </trkpt>
      <trkpt lat="46.9443" lon="8.57908">
        <ele>736</ele>
        <time>2021-08-10T10:16:44.773Z</time>
      </trkpt>
      <trkpt lat="46.94429" lon="8.57908">
        <ele>736</ele>
        <time>2021-08-10T10:16:45.773Z</time>
      </trkpt>
      <trkpt lat="46.94428" lon="8.57907">
        <ele>736</ele>
        <time>2021-08-10T10:16:46.773Z</time>
      </trkpt>
      <trkpt lat="46.94426" lon="8.57907">
        <ele>736</ele>
        <time>2021-08-10T10:16:47.772Z</time>
      </trkpt>
      <trkpt lat="46.94425" lon="8.57907">
        <ele>735</ele>
        <time>2021-08-10T10:16:48.773Z</time>
      </trkpt>
      <trkpt lat="46.94424" lon="8.57906">
        <ele>735</ele>
        <time>2021-08-10T10:16:49.772Z</time>
      </trkpt>
      <trkpt lat="46.94424" lon="8.57906">
        <ele>735</ele>
        <time>2021-08-10T10:16:50.772Z</time>
      </trkpt>
      <trkpt lat="46.94422" lon="8.57905">
        <ele>735</ele>
        <time>2021-08-10T10:16:51.773Z</time>
      </trkpt>
      <trkpt lat="46.94421" lon="8.57903">
        <ele>735</ele>
        <time>2021-08-10T10:16:52.773Z</time>
      </trkpt>
      <trkpt lat="46.9442" lon="8.57902">
        <ele>734</ele>
        <time>2021-08-10T10:16:53.772Z</time>
      </trkpt>
      <trkpt lat="46.94418" lon="8.57901">
        <ele>734</ele>
        <time>2021-08-10T10:16:54.772Z</time>
      </trkpt>
      <trkpt lat="46.94416" lon="8.57901">
        <ele>734</ele>
        <time>2021-08-10T10:16:55.772Z</time>
      </trkpt>
      <trkpt lat="46.94414" lon="8.57901">
        <ele>734</ele>
        <time>2021-08-10T10:16:56.772Z</time>
      </trkpt>
      <trkpt lat="46.94413" lon="8.57901">
        <ele>734</ele>
        <time>2021-08-10T10:16:57.773Z</time>
      </trkpt>
      <trkpt lat="46.94412" lon="8.579">
        <ele>733</ele>
        <time>2021-08-10T10:16:58.773Z</time>
      </trkpt>
      <trkpt lat="46.94412" lon="8.579">
        <ele>733</ele>
        <time>2021-08-10T10:16:59.773Z</time>
      </trkpt>
      <trkpt lat="46.9441" lon="8.57899">
        <ele>732</ele>
        <time>2021-08-10T10:17:00.772Z</time>
      </trkpt>
      <trkpt lat="46.94409" lon="8.57898">
        <ele>732</ele>
        <time>2021-08-10T10:17:01.772Z</time>
      </trkpt>
      <trkpt lat="46.94408" lon="8.57897">
        <ele>732</ele>
        <time>2021-08-10T10:17:02.772Z</time>
      </trkpt>
      <trkpt lat="46.94407" lon="8.57895">
        <ele>732</ele>
        <time>2021-08-10T10:17:03.772Z</time>
      </trkpt>
      <trkpt lat="46.94405" lon="8.57894">
        <ele>732</ele>
        <time>2021-08-10T10:17:04.772Z</time>
      </trkpt>
      <trkpt lat="46.94404" lon="8.57893">
        <ele>732</ele>
        <time>2021-08-10T10:17:05.773Z</time>
      </trkpt>
      <trkpt lat="46.94402" lon="8.57892">
        <ele>732</ele>
        <time>2021-08-10T10:17:06.772Z</time>
      </trkpt>
      <trkpt lat="46.94402" lon="8.57891">
        <ele>733</ele>
        <time>2021-08-10T10:17:07.772Z</time>
      </trkpt>
      <trkpt lat="46.944" lon="8.5789">
        <ele>732</ele>
        <time>2021-08-10T10:17:08.772Z</time>
      </trkpt>
      <trkpt lat="46.94399" lon="8.57889">
        <ele>732</ele>
        <time>2021-08-10T10:17:09.773Z</time>
      </trkpt>
      <trkpt lat="46.94398" lon="8.57888">
        <ele>732</ele>
        <time>2021-08-10T10:17:10.772Z</time>
      </trkpt>
      <trkpt lat="46.94397" lon="8.57887">
        <ele>731</ele>
        <time>2021-08-10T10:17:11.772Z</time>
      </trkpt>
      <trkpt lat="46.94396" lon="8.57887">
        <ele>731</ele>
        <time>2021-08-10T10:17:12.772Z</time>
      </trkpt>
      <trkpt lat="46.94395" lon="8.57886">
        <ele>731</ele>
        <time>2021-08-10T10:17:13.772Z</time>
      </trkpt>
      <trkpt lat="46.94394" lon="8.57885">
        <ele>730</ele>
        <time>2021-08-10T10:17:14.772Z</time>
      </trkpt>
      <trkpt lat="46.94393" lon="8.57884">
        <ele>730</ele>
        <time>2021-08-10T10:17:15.772Z</time>
      </trkpt>
      <trkpt lat="46.94392" lon="8.57884">
        <ele>729</ele>
        <time>2021-08-10T10:17:16.772Z</time>
      </trkpt>
      <trkpt lat="46.94391" lon="8.57884">
        <ele>728</ele>
        <time>2021-08-10T10:17:17.772Z</time>
      </trkpt>
      <trkpt lat="46.9439" lon="8.57883">
        <ele>728</ele>
        <time>2021-08-10T10:17:18.772Z</time>
      </trkpt>
      <trkpt lat="46.94389" lon="8.57883">
        <ele>728</ele>
        <time>2021-08-10T10:17:19.772Z</time>
      </trkpt>
      <trkpt lat="46.94388" lon="8.57882">
        <ele>728</ele>
        <time>2021-08-10T10:17:20.772Z</time>
      </trkpt>
      <trkpt lat="46.94386" lon="8.5788">
        <ele>728</ele>
        <time>2021-08-10T10:17:21.772Z</time>
      </trkpt>
      <trkpt lat="46.94385" lon="8.5788">
        <ele>729</ele>
        <time>2021-08-10T10:17:22.772Z</time>
      </trkpt>
      <trkpt lat="46.94383" lon="8.57878">
        <ele>729</ele>
        <time>2021-08-10T10:17:23.772Z</time>
      </trkpt>
      <trkpt lat="46.94382" lon="8.57878">
        <ele>729</ele>
        <time>2021-08-10T10:17:24.772Z</time>
      </trkpt>
      <trkpt lat="46.94381" lon="8.57877">
        <ele>729</ele>
        <time>2021-08-10T10:17:25.772Z</time>
      </trkpt>
      <trkpt lat="46.9438" lon="8.57876">
        <ele>728</ele>
        <time>2021-08-10T10:17:26.772Z</time>
      </trkpt>
      <trkpt lat="46.9438" lon="8.57875">
        <ele>728</ele>
        <time>2021-08-10T10:17:27.772Z</time>
      </trkpt>
      <trkpt lat="46.94379" lon="8.57875">
        <ele>728</ele>
        <time>2021-08-10T10:17:28.773Z</time>
      </trkpt>
      <trkpt lat="46.94378" lon="8.57873">
        <ele>728</ele>
        <time>2021-08-10T10:17:29.773Z</time>
      </trkpt>
      <trkpt lat="46.94377" lon="8.57872">
        <ele>728</ele>
        <time>2021-08-10T10:17:30.773Z</time>
      </trkpt>
      <trkpt lat="46.94376" lon="8.57871">
        <ele>728</ele>
        <time>2021-08-10T10:17:31.773Z</time>
      </trkpt>
      <trkpt lat="46.94374" lon="8.5787">
        <ele>728</ele>
        <time>2021-08-10T10:17:32.773Z</time>
      </trkpt>
      <trkpt lat="46.94373" lon="8.5787">
        <ele>727</ele>
        <time>2021-08-10T10:17:33.772Z</time>
      </trkpt>
      <trkpt lat="46.94372" lon="8.57869">
        <ele>727</ele>
        <time>2021-08-10T10:17:34.773Z</time>
      </trkpt>
      <trkpt lat="46.94371" lon="8.57867">
        <ele>727</ele>
        <time>2021-08-10T10:17:35.773Z</time>
      </trkpt>
      <trkpt lat="46.9437" lon="8.57866">
        <ele>728</ele>
        <time>2021-08-10T10:17:36.773Z</time>
      </trkpt>
      <trkpt lat="46.94369" lon="8.57865">
        <ele>728</ele>
        <time>2021-08-10T10:17:37.773Z</time>
      </trkpt>
      <trkpt lat="46.94368" lon="8.57864">
        <ele>729</ele>
        <time>2021-08-10T10:17:38.773Z</time>
      </trkpt>
      <trkpt lat="46.94367" lon="8.57863">
        <ele>729</ele>
        <time>2021-08-10T10:17:39.773Z</time>
      </trkpt>
      <trkpt lat="46.94366" lon="8.57861">
        <ele>729</ele>
        <time>2021-08-10T10:17:40.773Z</time>
      </trkpt>
      <trkpt lat="46.94365" lon="8.5786">
        <ele>728</ele>
        <time>2021-08-10T10:17:41.773Z</time>
      </trkpt>
      <trkpt lat="46.94365" lon="8.57858">
        <ele>728</ele>
        <time>2021-08-10T10:17:42.773Z</time>
      </trkpt>
      <trkpt lat="46.94364" lon="8.57857">
        <ele>727</ele>
        <time>2021-08-10T10:17:43.772Z</time>
      </trkpt>
      <trkpt lat="46.94363" lon="8.57856">
        <ele>727</ele>
        <time>2021-08-10T10:17:44.772Z</time>
      </trkpt>
      <trkpt lat="46.94363" lon="8.57856">
        <ele>726</ele>
        <time>2021-08-10T10:17:45.773Z</time>
      </trkpt>
      <trkpt lat="46.94361" lon="8.57855">
        <ele>726</ele>
        <time>2021-08-10T10:17:46.772Z</time>
      </trkpt>
      <trkpt lat="46.9436" lon="8.57854">
        <ele>725</ele>
        <time>2021-08-10T10:17:47.773Z</time>
      </trkpt>
      <trkpt lat="46.9436" lon="8.57852">
        <ele>725</ele>
        <time>2021-08-10T10:17:48.773Z</time>
      </trkpt>
      <trkpt lat="46.94359" lon="8.57849">
        <ele>724</ele>
        <time>2021-08-10T10:17:49.773Z</time>
      </trkpt>
      <trkpt lat="46.94359" lon="8.57847">
        <ele>724</ele>
        <time>2021-08-10T10:17:50.773Z</time>
      </trkpt>
      <trkpt lat="46.94358" lon="8.57846">
        <ele>723</ele>
        <time>2021-08-10T10:17:51.773Z</time>
      </trkpt>
      <trkpt lat="46.94357" lon="8.57845">
        <ele>722</ele>
        <time>2021-08-10T10:17:52.773Z</time>
      </trkpt>
      <trkpt lat="46.94356" lon="8.57844">
        <ele>721</ele>
        <time>2021-08-10T10:17:53.773Z</time>
      </trkpt>
      <trkpt lat="46.94356" lon="8.57843">
        <ele>721</ele>
        <time>2021-08-10T10:17:54.773Z</time>
      </trkpt>
      <trkpt lat="46.94355" lon="8.57842">
        <ele>720</ele>
        <time>2021-08-10T10:17:55.773Z</time>
      </trkpt>
      <trkpt lat="46.94354" lon="8.57841">
        <ele>720</ele>
        <time>2021-08-10T10:17:56.772Z</time>
      </trkpt>
      <trkpt lat="46.94353" lon="8.5784">
        <ele>720</ele>
        <time>2021-08-10T10:17:57.772Z</time>
      </trkpt>
      <trkpt lat="46.94352" lon="8.57839">
        <ele>719</ele>
        <time>2021-08-10T10:17:58.773Z</time>
      </trkpt>
      <trkpt lat="46.94351" lon="8.57837">
        <ele>719</ele>
        <time>2021-08-10T10:17:59.773Z</time>
      </trkpt>
      <trkpt lat="46.9435" lon="8.57836">
        <ele>719</ele>
        <time>2021-08-10T10:18:00.773Z</time>
      </trkpt>
      <trkpt lat="46.9435" lon="8.57834">
        <ele>718</ele>
        <time>2021-08-10T10:18:01.772Z</time>
      </trkpt>
      <trkpt lat="46.94349" lon="8.57833">
        <ele>718</ele>
        <time>2021-08-10T10:18:02.772Z</time>
      </trkpt>
      <trkpt lat="46.94347" lon="8.57833">
        <ele>718</ele>
        <time>2021-08-10T10:18:03.773Z</time>
      </trkpt>
      <trkpt lat="46.94346" lon="8.57832">
        <ele>718</ele>
        <time>2021-08-10T10:18:04.773Z</time>
      </trkpt>
      <trkpt lat="46.94345" lon="8.57831">
        <ele>717</ele>
        <time>2021-08-10T10:18:05.773Z</time>
      </trkpt>
      <trkpt lat="46.94344" lon="8.5783">
        <ele>717</ele>
        <time>2021-08-10T10:18:06.773Z</time>
      </trkpt>
      <trkpt lat="46.94343" lon="8.57829">
        <ele>717</ele>
        <time>2021-08-10T10:18:07.773Z</time>
      </trkpt>
      <trkpt lat="46.94342" lon="8.57828">
        <ele>716</ele>
        <time>2021-08-10T10:18:08.773Z</time>
      </trkpt>
      <trkpt lat="46.94342" lon="8.57828">
        <ele>716</ele>
        <time>2021-08-10T10:18:09.773Z</time>
      </trkpt>
      <trkpt lat="46.94342" lon="8.57827">
        <ele>715</ele>
        <time>2021-08-10T10:18:10.773Z</time>
      </trkpt>
      <trkpt lat="46.94341" lon="8.57826">
        <ele>715</ele>
        <time>2021-08-10T10:18:11.773Z</time>
      </trkpt>
      <trkpt lat="46.94341" lon="8.57824">
        <ele>715</ele>
        <time>2021-08-10T10:18:12.772Z</time>
      </trkpt>
      <trkpt lat="46.9434" lon="8.57822">
        <ele>715</ele>
        <time>2021-08-10T10:18:13.773Z</time>
      </trkpt>
      <trkpt lat="46.9434" lon="8.57821">
        <ele>715</ele>
        <time>2021-08-10T10:18:14.772Z</time>
      </trkpt>
      <trkpt lat="46.94339" lon="8.5782">
        <ele>714</ele>
        <time>2021-08-10T10:18:15.772Z</time>
      </trkpt>
      <trkpt lat="46.94339" lon="8.5782">
        <ele>714</ele>
        <time>2021-08-10T10:18:16.773Z</time>
      </trkpt>
      <trkpt lat="46.94339" lon="8.57819">
        <ele>714</ele>
        <time>2021-08-10T10:18:17.773Z</time>
      </trkpt>
      <trkpt lat="46.94339" lon="8.57818">
        <ele>714</ele>
        <time>2021-08-10T10:18:18.773Z</time>
      </trkpt>
      <trkpt lat="46.94339" lon="8.57816">
        <ele>713</ele>
        <time>2021-08-10T10:18:19.773Z</time>
      </trkpt>
      <trkpt lat="46.94339" lon="8.57815">
        <ele>713</ele>
        <time>2021-08-10T10:18:20.773Z</time>
      </trkpt>
      <trkpt lat="46.94339" lon="8.57814">
        <ele>712</ele>
        <time>2021-08-10T10:18:21.773Z</time>
      </trkpt>
      <trkpt lat="46.94339" lon="8.57814">
        <ele>712</ele>
        <time>2021-08-10T10:18:22.773Z</time>
      </trkpt>
      <trkpt lat="46.94338" lon="8.57814">
        <ele>712</ele>
        <time>2021-08-10T10:18:23.773Z</time>
      </trkpt>
      <trkpt lat="46.94339" lon="8.57813">
        <ele>711</ele>
        <time>2021-08-10T10:18:24.773Z</time>
      </trkpt>
      <trkpt lat="46.94339" lon="8.57813">
        <ele>711</ele>
        <time>2021-08-10T10:18:25.772Z</time>
      </trkpt>
      <trkpt lat="46.94338" lon="8.57814">
        <ele>712</ele>
        <time>2021-08-10T10:18:26.773Z</time>
      </trkpt>
      <trkpt lat="46.94338" lon="8.57813">
        <ele>712</ele>
        <time>2021-08-10T10:18:27.773Z</time>
      </trkpt>
      <trkpt lat="46.94334" lon="8.57813">
        <ele>722</ele>
        <time>2021-08-10T10:18:28.772Z</time>
      </trkpt>
      <trkpt lat="46.94334" lon="8.57813">
        <ele>724</ele>
        <time>2021-08-10T10:18:29.772Z</time>
      </trkpt>
      <trkpt lat="46.94333" lon="8.57813">
        <ele>726</ele>
        <time>2021-08-10T10:18:30.773Z</time>
      </trkpt>
      <trkpt lat="46.94333" lon="8.57812">
        <ele>727</ele>
        <time>2021-08-10T10:18:31.773Z</time>
      </trkpt>
      <trkpt lat="46.94333" lon="8.57812">
        <ele>729</ele>
        <time>2021-08-10T10:18:32.773Z</time>
      </trkpt>
      <trkpt lat="46.94333" lon="8.57811">
        <ele>730</ele>
        <time>2021-08-10T10:18:33.773Z</time>
      </trkpt>
      <trkpt lat="46.94333" lon="8.57811">
        <ele>731</ele>
        <time>2021-08-10T10:18:34.774Z</time>
      </trkpt>
      <trkpt lat="46.94334" lon="8.57812">
        <ele>731</ele>
        <time>2021-08-10T10:18:35.774Z</time>
      </trkpt>
      <trkpt lat="46.94334" lon="8.57818">
        <ele>725</ele>
        <time>2021-08-10T10:18:36.774Z</time>
      </trkpt>
      <trkpt lat="46.94333" lon="8.57819">
        <ele>725</ele>
        <time>2021-08-10T10:18:37.774Z</time>
      </trkpt>
      <trkpt lat="46.94333" lon="8.57819">
        <ele>725</ele>
        <time>2021-08-10T10:18:38.773Z</time>
      </trkpt>
      <trkpt lat="46.94333" lon="8.57818">
        <ele>725</ele>
        <time>2021-08-10T10:18:39.773Z</time>
      </trkpt>
      <trkpt lat="46.94333" lon="8.57815">
        <ele>725</ele>
        <time>2021-08-10T10:18:40.774Z</time>
      </trkpt>
      <trkpt lat="46.94333" lon="8.57814">
        <ele>725</ele>
        <time>2021-08-10T10:18:41.774Z</time>
      </trkpt>
      <trkpt lat="46.94333" lon="8.57813">
        <ele>725</ele>
        <time>2021-08-10T10:18:42.773Z</time>
      </trkpt>
      <trkpt lat="46.94333" lon="8.57813">
        <ele>724</ele>
        <time>2021-08-10T10:18:43.774Z</time>
      </trkpt>
      <trkpt lat="46.94332" lon="8.57813">
        <ele>724</ele>
        <time>2021-08-10T10:18:44.774Z</time>
      </trkpt>
      <trkpt lat="46.94331" lon="8.57813">
        <ele>723</ele>
        <time>2021-08-10T10:18:45.774Z</time>
      </trkpt>
      <trkpt lat="46.9433" lon="8.57813">
        <ele>723</ele>
        <time>2021-08-10T10:18:46.774Z</time>
      </trkpt>
      <trkpt lat="46.94329" lon="8.57813">
        <ele>723</ele>
        <time>2021-08-10T10:18:47.774Z</time>
      </trkpt>
      <trkpt lat="46.94328" lon="8.57812">
        <ele>723</ele>
        <time>2021-08-10T10:18:48.774Z</time>
      </trkpt>
      <trkpt lat="46.94328" lon="8.57812">
        <ele>723</ele>
        <time>2021-08-10T10:18:49.774Z</time>
      </trkpt>
      <trkpt lat="46.94328" lon="8.57812">
        <ele>723</ele>
        <time>2021-08-10T10:18:50.773Z</time>
      </trkpt>
      <trkpt lat="46.9433" lon="8.57809">
        <ele>721</ele>
        <time>2021-08-10T10:18:51.774Z</time>
      </trkpt>
      <trkpt lat="46.9433" lon="8.57809">
        <ele>721</ele>
        <time>2021-08-10T10:18:52.774Z</time>
      </trkpt>
      <trkpt lat="46.94329" lon="8.57808">
        <ele>721</ele>
        <time>2021-08-10T10:18:53.773Z</time>
      </trkpt>
      <trkpt lat="46.94329" lon="8.57808">
        <ele>721</ele>
        <time>2021-08-10T10:18:54.774Z</time>
      </trkpt>
      <trkpt lat="46.94328" lon="8.57808">
        <ele>721</ele>
        <time>2021-08-10T10:18:55.774Z</time>
      </trkpt>
      <trkpt lat="46.94327" lon="8.57807">
        <ele>721</ele>
        <time>2021-08-10T10:18:56.773Z</time>
      </trkpt>
      <trkpt lat="46.94326" lon="8.57806">
        <ele>721</ele>
        <time>2021-08-10T10:18:57.773Z</time>
      </trkpt>
      <trkpt lat="46.94326" lon="8.57805">
        <ele>722</ele>
        <time>2021-08-10T10:18:58.773Z</time>
      </trkpt>
      <trkpt lat="46.94325" lon="8.57804">
        <ele>722</ele>
        <time>2021-08-10T10:18:59.774Z</time>
      </trkpt>
      <trkpt lat="46.94324" lon="8.57803">
        <ele>722</ele>
        <time>2021-08-10T10:19:00.774Z</time>
      </trkpt>
      <trkpt lat="46.94324" lon="8.57802">
        <ele>722</ele>
        <time>2021-08-10T10:19:01.774Z</time>
      </trkpt>
      <trkpt lat="46.94323" lon="8.57801">
        <ele>721</ele>
        <time>2021-08-10T10:19:02.774Z</time>
      </trkpt>
      <trkpt lat="46.94322" lon="8.57799">
        <ele>721</ele>
        <time>2021-08-10T10:19:03.773Z</time>
      </trkpt>
      <trkpt lat="46.94322" lon="8.57798">
        <ele>721</ele>
        <time>2021-08-10T10:19:04.773Z</time>
      </trkpt>
      <trkpt lat="46.94321" lon="8.57797">
        <ele>721</ele>
        <time>2021-08-10T10:19:05.773Z</time>
      </trkpt>
      <trkpt lat="46.94321" lon="8.57795">
        <ele>721</ele>
        <time>2021-08-10T10:19:06.774Z</time>
      </trkpt>
      <trkpt lat="46.9432" lon="8.57794">
        <ele>721</ele>
        <time>2021-08-10T10:19:07.773Z</time>
      </trkpt>
      <trkpt lat="46.94319" lon="8.57792">
        <ele>721</ele>
        <time>2021-08-10T10:19:08.774Z</time>
      </trkpt>
      <trkpt lat="46.94319" lon="8.57791">
        <ele>721</ele>
        <time>2021-08-10T10:19:09.773Z</time>
      </trkpt>
      <trkpt lat="46.94318" lon="8.5779">
        <ele>720</ele>
        <time>2021-08-10T10:19:10.774Z</time>
      </trkpt>
      <trkpt lat="46.94317" lon="8.57788">
        <ele>720</ele>
        <time>2021-08-10T10:19:11.774Z</time>
      </trkpt>
      <trkpt lat="46.94317" lon="8.57788">
        <ele>720</ele>
        <time>2021-08-10T10:19:12.774Z</time>
      </trkpt>
      <trkpt lat="46.94316" lon="8.57787">
        <ele>719</ele>
        <time>2021-08-10T10:19:13.774Z</time>
      </trkpt>
      <trkpt lat="46.94316" lon="8.57787">
        <ele>719</ele>
        <time>2021-08-10T10:19:14.774Z</time>
      </trkpt>
      <trkpt lat="46.94316" lon="8.57786">
        <ele>718</ele>
        <time>2021-08-10T10:19:15.774Z</time>
      </trkpt>
      <trkpt lat="46.94316" lon="8.57786">
        <ele>718</ele>
        <time>2021-08-10T10:19:16.774Z</time>
      </trkpt>
      <trkpt lat="46.94315" lon="8.57786">
        <ele>717</ele>
        <time>2021-08-10T10:19:17.774Z</time>
      </trkpt>
      <trkpt lat="46.94315" lon="8.57786">
        <ele>717</ele>
        <time>2021-08-10T10:19:18.774Z</time>
      </trkpt>
      <trkpt lat="46.94314" lon="8.57785">
        <ele>716</ele>
        <time>2021-08-10T10:19:19.774Z</time>
      </trkpt>
      <trkpt lat="46.94314" lon="8.57784">
        <ele>716</ele>
        <time>2021-08-10T10:19:20.774Z</time>
      </trkpt>
      <trkpt lat="46.94313" lon="8.57783">
        <ele>716</ele>
        <time>2021-08-10T10:19:21.773Z</time>
      </trkpt>
      <trkpt lat="46.94311" lon="8.57783">
        <ele>715</ele>
        <time>2021-08-10T10:19:22.774Z</time>
      </trkpt>
      <trkpt lat="46.9431" lon="8.57781">
        <ele>715</ele>
        <time>2021-08-10T10:19:23.774Z</time>
      </trkpt>
      <trkpt lat="46.94309" lon="8.57779">
        <ele>716</ele>
        <time>2021-08-10T10:19:24.773Z</time>
      </trkpt>
      <trkpt lat="46.94308" lon="8.57778">
        <ele>716</ele>
        <time>2021-08-10T10:19:25.774Z</time>
      </trkpt>
      <trkpt lat="46.94307" lon="8.57777">
        <ele>716</ele>
        <time>2021-08-10T10:19:26.774Z</time>
      </trkpt>
      <trkpt lat="46.94307" lon="8.57776">
        <ele>715</ele>
        <time>2021-08-10T10:19:27.774Z</time>
      </trkpt>
      <trkpt lat="46.94306" lon="8.57775">
        <ele>715</ele>
        <time>2021-08-10T10:19:28.774Z</time>
      </trkpt>
      <trkpt lat="46.94306" lon="8.57774">
        <ele>715</ele>
        <time>2021-08-10T10:19:29.774Z</time>
      </trkpt>
      <trkpt lat="46.94305" lon="8.57772">
        <ele>715</ele>
        <time>2021-08-10T10:19:30.774Z</time>
      </trkpt>
      <trkpt lat="46.94305" lon="8.57771">
        <ele>714</ele>
        <time>2021-08-10T10:19:31.774Z</time>
      </trkpt>
      <trkpt lat="46.94305" lon="8.5777">
        <ele>714</ele>
        <time>2021-08-10T10:19:32.774Z</time>
      </trkpt>
      <trkpt lat="46.94305" lon="8.57769">
        <ele>714</ele>
        <time>2021-08-10T10:19:33.774Z</time>
      </trkpt>
      <trkpt lat="46.94304" lon="8.57768">
        <ele>714</ele>
        <time>2021-08-10T10:19:34.774Z</time>
      </trkpt>
      <trkpt lat="46.94303" lon="8.57766">
        <ele>714</ele>
        <time>2021-08-10T10:19:35.774Z</time>
      </trkpt>
      <trkpt lat="46.94303" lon="8.57765">
        <ele>714</ele>
        <time>2021-08-10T10:19:36.773Z</time>
      </trkpt>
      <trkpt lat="46.94302" lon="8.57763">
        <ele>714</ele>
        <time>2021-08-10T10:19:37.773Z</time>
      </trkpt>
      <trkpt lat="46.94301" lon="8.57762">
        <ele>715</ele>
        <time>2021-08-10T10:19:38.774Z</time>
      </trkpt>
      <trkpt lat="46.943" lon="8.57761">
        <ele>715</ele>
        <time>2021-08-10T10:19:39.773Z</time>
      </trkpt>
      <trkpt lat="46.943" lon="8.57759">
        <ele>715</ele>
        <time>2021-08-10T10:19:40.774Z</time>
      </trkpt>
      <trkpt lat="46.94299" lon="8.57757">
        <ele>715</ele>
        <time>2021-08-10T10:19:41.774Z</time>
      </trkpt>
      <trkpt lat="46.94299" lon="8.57756">
        <ele>715</ele>
        <time>2021-08-10T10:19:42.773Z</time>
      </trkpt>
      <trkpt lat="46.94299" lon="8.57755">
        <ele>715</ele>
        <time>2021-08-10T10:19:43.774Z</time>
      </trkpt>
      <trkpt lat="46.94298" lon="8.57753">
        <ele>715</ele>
        <time>2021-08-10T10:19:44.773Z</time>
      </trkpt>
      <trkpt lat="46.94297" lon="8.57752">
        <ele>715</ele>
        <time>2021-08-10T10:19:45.774Z</time>
      </trkpt>
      <trkpt lat="46.94297" lon="8.5775">
        <ele>715</ele>
        <time>2021-08-10T10:19:46.773Z</time>
      </trkpt>
      <trkpt lat="46.94296" lon="8.57747">
        <ele>716</ele>
        <time>2021-08-10T10:19:47.774Z</time>
      </trkpt>
      <trkpt lat="46.94295" lon="8.57745">
        <ele>716</ele>
        <time>2021-08-10T10:19:48.773Z</time>
      </trkpt>
      <trkpt lat="46.94294" lon="8.57744">
        <ele>716</ele>
        <time>2021-08-10T10:19:49.774Z</time>
      </trkpt>
      <trkpt lat="46.94293" lon="8.57742">
        <ele>716</ele>
        <time>2021-08-10T10:19:50.774Z</time>
      </trkpt>
      <trkpt lat="46.94292" lon="8.5774">
        <ele>716</ele>
        <time>2021-08-10T10:19:51.774Z</time>
      </trkpt>
      <trkpt lat="46.94291" lon="8.57738">
        <ele>717</ele>
        <time>2021-08-10T10:19:52.774Z</time>
      </trkpt>
      <trkpt lat="46.94291" lon="8.57736">
        <ele>716</ele>
        <time>2021-08-10T10:19:53.774Z</time>
      </trkpt>
      <trkpt lat="46.94291" lon="8.57735">
        <ele>716</ele>
        <time>2021-08-10T10:19:54.773Z</time>
      </trkpt>
      <trkpt lat="46.94291" lon="8.57733">
        <ele>716</ele>
        <time>2021-08-10T10:19:55.773Z</time>
      </trkpt>
      <trkpt lat="46.9429" lon="8.57732">
        <ele>716</ele>
        <time>2021-08-10T10:19:56.774Z</time>
      </trkpt>
      <trkpt lat="46.9429" lon="8.5773">
        <ele>716</ele>
        <time>2021-08-10T10:19:57.773Z</time>
      </trkpt>
      <trkpt lat="46.94289" lon="8.57728">
        <ele>716</ele>
        <time>2021-08-10T10:19:58.773Z</time>
      </trkpt>
      <trkpt lat="46.94289" lon="8.57726">
        <ele>716</ele>
        <time>2021-08-10T10:19:59.773Z</time>
      </trkpt>
      <trkpt lat="46.94288" lon="8.57725">
        <ele>716</ele>
        <time>2021-08-10T10:20:00.774Z</time>
      </trkpt>
      <trkpt lat="46.94288" lon="8.57723">
        <ele>717</ele>
        <time>2021-08-10T10:20:01.774Z</time>
      </trkpt>
      <trkpt lat="46.94287" lon="8.57722">
        <ele>717</ele>
        <time>2021-08-10T10:20:02.773Z</time>
      </trkpt>
      <trkpt lat="46.94286" lon="8.57721">
        <ele>717</ele>
        <time>2021-08-10T10:20:03.773Z</time>
      </trkpt>
      <trkpt lat="46.94284" lon="8.5772">
        <ele>717</ele>
        <time>2021-08-10T10:20:04.774Z</time>
      </trkpt>
      <trkpt lat="46.94283" lon="8.57718">
        <ele>717</ele>
        <time>2021-08-10T10:20:05.774Z</time>
      </trkpt>
      <trkpt lat="46.94282" lon="8.57717">
        <ele>717</ele>
        <time>2021-08-10T10:20:06.774Z</time>
      </trkpt>
      <trkpt lat="46.9428" lon="8.57715">
        <ele>717</ele>
        <time>2021-08-10T10:20:07.774Z</time>
      </trkpt>
      <trkpt lat="46.94279" lon="8.57714">
        <ele>717</ele>
        <time>2021-08-10T10:20:08.774Z</time>
      </trkpt>
      <trkpt lat="46.94278" lon="8.57715">
        <ele>718</ele>
        <time>2021-08-10T10:20:09.774Z</time>
      </trkpt>
      <trkpt lat="46.94278" lon="8.57715">
        <ele>718</ele>
        <time>2021-08-10T10:20:10.774Z</time>
      </trkpt>
      <trkpt lat="46.94278" lon="8.57716">
        <ele>718</ele>
        <time>2021-08-10T10:20:11.774Z</time>
      </trkpt>
      <trkpt lat="46.94278" lon="8.57715">
        <ele>718</ele>
        <time>2021-08-10T10:20:12.774Z</time>
      </trkpt>
      <trkpt lat="46.94278" lon="8.57715">
        <ele>718</ele>
        <time>2021-08-10T10:20:13.774Z</time>
      </trkpt>
      <trkpt lat="46.94276" lon="8.57713">
        <ele>718</ele>
        <time>2021-08-10T10:20:14.774Z</time>
      </trkpt>
      <trkpt lat="46.94274" lon="8.57711">
        <ele>718</ele>
        <time>2021-08-10T10:20:15.775Z</time>
      </trkpt>
      <trkpt lat="46.94273" lon="8.5771">
        <ele>718</ele>
        <time>2021-08-10T10:20:16.775Z</time>
      </trkpt>
      <trkpt lat="46.94271" lon="8.57709">
        <ele>718</ele>
        <time>2021-08-10T10:20:17.774Z</time>
      </trkpt>
      <trkpt lat="46.9427" lon="8.57708">
        <ele>718</ele>
        <time>2021-08-10T10:20:18.774Z</time>
      </trkpt>
      <trkpt lat="46.94271" lon="8.57707">
        <ele>718</ele>
        <time>2021-08-10T10:20:19.774Z</time>
      </trkpt>
      <trkpt lat="46.94271" lon="8.57707">
        <ele>718</ele>
        <time>2021-08-10T10:20:20.774Z</time>
      </trkpt>
      <trkpt lat="46.94271" lon="8.57706">
        <ele>718</ele>
        <time>2021-08-10T10:20:21.774Z</time>
      </trkpt>
      <trkpt lat="46.94271" lon="8.57706">
        <ele>718</ele>
        <time>2021-08-10T10:20:22.774Z</time>
      </trkpt>
      <trkpt lat="46.94271" lon="8.57705">
        <ele>718</ele>
        <time>2021-08-10T10:20:23.774Z</time>
      </trkpt>
      <trkpt lat="46.94271" lon="8.57704">
        <ele>718</ele>
        <time>2021-08-10T10:20:24.775Z</time>
      </trkpt>
      <trkpt lat="46.94271" lon="8.57703">
        <ele>718</ele>
        <time>2021-08-10T10:20:25.774Z</time>
      </trkpt>
      <trkpt lat="46.9427" lon="8.57703">
        <ele>718</ele>
        <time>2021-08-10T10:20:26.774Z</time>
      </trkpt>
      <trkpt lat="46.9427" lon="8.57703">
        <ele>718</ele>
        <time>2021-08-10T10:20:27.774Z</time>
      </trkpt>
      <trkpt lat="46.9427" lon="8.57703">
        <ele>717</ele>
        <time>2021-08-10T10:20:28.774Z</time>
      </trkpt>
      <trkpt lat="46.9427" lon="8.57703">
        <ele>717</ele>
        <time>2021-08-10T10:20:29.774Z</time>
      </trkpt>
      <trkpt lat="46.94271" lon="8.57703">
        <ele>717</ele>
        <time>2021-08-10T10:20:30.774Z</time>
      </trkpt>
      <trkpt lat="46.9427" lon="8.57703">
        <ele>717</ele>
        <time>2021-08-10T10:20:31.774Z</time>
      </trkpt>
      <trkpt lat="46.9427" lon="8.57702">
        <ele>717</ele>
        <time>2021-08-10T10:20:32.774Z</time>
      </trkpt>
      <trkpt lat="46.94271" lon="8.57702">
        <ele>717</ele>
        <time>2021-08-10T10:20:33.774Z</time>
      </trkpt>
      <trkpt lat="46.94272" lon="8.57702">
        <ele>717</ele>
        <time>2021-08-10T10:20:34.774Z</time>
      </trkpt>
      <trkpt lat="46.94273" lon="8.577">
        <ele>717</ele>
        <time>2021-08-10T10:20:35.774Z</time>
      </trkpt>
      <trkpt lat="46.94272" lon="8.57698">
        <ele>717</ele>
        <time>2021-08-10T10:20:36.774Z</time>
      </trkpt>
      <trkpt lat="46.94272" lon="8.57695">
        <ele>717</ele>
        <time>2021-08-10T10:20:37.774Z</time>
      </trkpt>
      <trkpt lat="46.94272" lon="8.57691">
        <ele>717</ele>
        <time>2021-08-10T10:20:38.774Z</time>
      </trkpt>
      <trkpt lat="46.94272" lon="8.5769">
        <ele>717</ele>
        <time>2021-08-10T10:20:39.774Z</time>
      </trkpt>
      <trkpt lat="46.94272" lon="8.57689">
        <ele>717</ele>
        <time>2021-08-10T10:20:40.774Z</time>
      </trkpt>
      <trkpt lat="46.94272" lon="8.5769">
        <ele>716</ele>
        <time>2021-08-10T10:20:41.774Z</time>
      </trkpt>
      <trkpt lat="46.94271" lon="8.57689">
        <ele>716</ele>
        <time>2021-08-10T10:20:42.774Z</time>
      </trkpt>
      <trkpt lat="46.94271" lon="8.57689">
        <ele>715</ele>
        <time>2021-08-10T10:20:43.774Z</time>
      </trkpt>
      <trkpt lat="46.94269" lon="8.57688">
        <ele>715</ele>
        <time>2021-08-10T10:20:44.774Z</time>
      </trkpt>
      <trkpt lat="46.94268" lon="8.57687">
        <ele>714</ele>
        <time>2021-08-10T10:20:45.774Z</time>
      </trkpt>
      <trkpt lat="46.94267" lon="8.57684">
        <ele>714</ele>
        <time>2021-08-10T10:20:46.775Z</time>
      </trkpt>
      <trkpt lat="46.94265" lon="8.57683">
        <ele>713</ele>
        <time>2021-08-10T10:20:47.775Z</time>
      </trkpt>
      <trkpt lat="46.94263" lon="8.57681">
        <ele>712</ele>
        <time>2021-08-10T10:20:48.775Z</time>
      </trkpt>
      <trkpt lat="46.9426" lon="8.57679">
        <ele>712</ele>
        <time>2021-08-10T10:20:49.775Z</time>
      </trkpt>
      <trkpt lat="46.94259" lon="8.57678">
        <ele>711</ele>
        <time>2021-08-10T10:20:50.774Z</time>
      </trkpt>
      <trkpt lat="46.94259" lon="8.57677">
        <ele>711</ele>
        <time>2021-08-10T10:20:51.774Z</time>
      </trkpt>
      <trkpt lat="46.94258" lon="8.57676">
        <ele>710</ele>
        <time>2021-08-10T10:20:52.774Z</time>
      </trkpt>
      <trkpt lat="46.94256" lon="8.57674">
        <ele>710</ele>
        <time>2021-08-10T10:20:53.775Z</time>
      </trkpt>
      <trkpt lat="46.94254" lon="8.57673">
        <ele>709</ele>
        <time>2021-08-10T10:20:54.775Z</time>
      </trkpt>
      <trkpt lat="46.94252" lon="8.57672">
        <ele>708</ele>
        <time>2021-08-10T10:20:55.775Z</time>
      </trkpt>
      <trkpt lat="46.94251" lon="8.57671">
        <ele>708</ele>
        <time>2021-08-10T10:20:56.774Z</time>
      </trkpt>
      <trkpt lat="46.94249" lon="8.57669">
        <ele>707</ele>
        <time>2021-08-10T10:20:57.774Z</time>
      </trkpt>
      <trkpt lat="46.94248" lon="8.57667">
        <ele>707</ele>
        <time>2021-08-10T10:20:58.775Z</time>
      </trkpt>
      <trkpt lat="46.94248" lon="8.57664">
        <ele>707</ele>
        <time>2021-08-10T10:20:59.774Z</time>
      </trkpt>
      <trkpt lat="46.94248" lon="8.57662">
        <ele>707</ele>
        <time>2021-08-10T10:21:00.775Z</time>
      </trkpt>
      <trkpt lat="46.94249" lon="8.5766">
        <ele>707</ele>
        <time>2021-08-10T10:21:01.774Z</time>
      </trkpt>
      <trkpt lat="46.9425" lon="8.57658">
        <ele>707</ele>
        <time>2021-08-10T10:21:02.775Z</time>
      </trkpt>
      <trkpt lat="46.94251" lon="8.57656">
        <ele>707</ele>
        <time>2021-08-10T10:21:03.774Z</time>
      </trkpt>
      <trkpt lat="46.94252" lon="8.57654">
        <ele>707</ele>
        <time>2021-08-10T10:21:04.775Z</time>
      </trkpt>
      <trkpt lat="46.94251" lon="8.57651">
        <ele>707</ele>
        <time>2021-08-10T10:21:05.775Z</time>
      </trkpt>
      <trkpt lat="46.94251" lon="8.5765">
        <ele>706</ele>
        <time>2021-08-10T10:21:06.775Z</time>
      </trkpt>
      <trkpt lat="46.9425" lon="8.57649">
        <ele>706</ele>
        <time>2021-08-10T10:21:07.775Z</time>
      </trkpt>
      <trkpt lat="46.9425" lon="8.57647">
        <ele>706</ele>
        <time>2021-08-10T10:21:08.775Z</time>
      </trkpt>
      <trkpt lat="46.94249" lon="8.57646">
        <ele>706</ele>
        <time>2021-08-10T10:21:09.775Z</time>
      </trkpt>
      <trkpt lat="46.94249" lon="8.57645">
        <ele>706</ele>
        <time>2021-08-10T10:21:10.775Z</time>
      </trkpt>
      <trkpt lat="46.94248" lon="8.57643">
        <ele>706</ele>
        <time>2021-08-10T10:21:11.775Z</time>
      </trkpt>
      <trkpt lat="46.94246" lon="8.57642">
        <ele>706</ele>
        <time>2021-08-10T10:21:12.775Z</time>
      </trkpt>
      <trkpt lat="46.94245" lon="8.57641">
        <ele>706</ele>
        <time>2021-08-10T10:21:13.775Z</time>
      </trkpt>
      <trkpt lat="46.94245" lon="8.5764">
        <ele>706</ele>
        <time>2021-08-10T10:21:14.775Z</time>
      </trkpt>
      <trkpt lat="46.94245" lon="8.57638">
        <ele>706</ele>
        <time>2021-08-10T10:21:15.774Z</time>
      </trkpt>
      <trkpt lat="46.94245" lon="8.57637">
        <ele>706</ele>
        <time>2021-08-10T10:21:16.775Z</time>
      </trkpt>
      <trkpt lat="46.94244" lon="8.57636">
        <ele>706</ele>
        <time>2021-08-10T10:21:17.775Z</time>
      </trkpt>
      <trkpt lat="46.94244" lon="8.57635">
        <ele>706</ele>
        <time>2021-08-10T10:21:18.775Z</time>
      </trkpt>
      <trkpt lat="46.94244" lon="8.57634">
        <ele>706</ele>
        <time>2021-08-10T10:21:19.774Z</time>
      </trkpt>
      <trkpt lat="46.94244" lon="8.57634">
        <ele>706</ele>
        <time>2021-08-10T10:21:20.775Z</time>
      </trkpt>
      <trkpt lat="46.94243" lon="8.57634">
        <ele>706</ele>
        <time>2021-08-10T10:21:21.775Z</time>
      </trkpt>
      <trkpt lat="46.94244" lon="8.57633">
        <ele>707</ele>
        <time>2021-08-10T10:21:22.775Z</time>
      </trkpt>
      <trkpt lat="46.94244" lon="8.57631">
        <ele>707</ele>
        <time>2021-08-10T10:21:23.774Z</time>
      </trkpt>
      <trkpt lat="46.94244" lon="8.5763">
        <ele>707</ele>
        <time>2021-08-10T10:21:24.775Z</time>
      </trkpt>
      <trkpt lat="46.94244" lon="8.57629">
        <ele>706</ele>
        <time>2021-08-10T10:21:25.775Z</time>
      </trkpt>
      <trkpt lat="46.94245" lon="8.57628">
        <ele>706</ele>
        <time>2021-08-10T10:21:26.775Z</time>
      </trkpt>
      <trkpt lat="46.94245" lon="8.57627">
        <ele>706</ele>
        <time>2021-08-10T10:21:27.775Z</time>
      </trkpt>
      <trkpt lat="46.94246" lon="8.57625">
        <ele>706</ele>
        <time>2021-08-10T10:21:28.775Z</time>
      </trkpt>
      <trkpt lat="46.94247" lon="8.57624">
        <ele>705</ele>
        <time>2021-08-10T10:21:29.775Z</time>
      </trkpt>
      <trkpt lat="46.94247" lon="8.57622">
        <ele>705</ele>
        <time>2021-08-10T10:21:30.774Z</time>
      </trkpt>
      <trkpt lat="46.94247" lon="8.57621">
        <ele>705</ele>
        <time>2021-08-10T10:21:31.775Z</time>
      </trkpt>
      <trkpt lat="46.94246" lon="8.57619">
        <ele>705</ele>
        <time>2021-08-10T10:21:32.774Z</time>
      </trkpt>
      <trkpt lat="46.94246" lon="8.57618">
        <ele>705</ele>
        <time>2021-08-10T10:21:33.775Z</time>
      </trkpt>
      <trkpt lat="46.94246" lon="8.57617">
        <ele>705</ele>
        <time>2021-08-10T10:21:34.774Z</time>
      </trkpt>
      <trkpt lat="46.94247" lon="8.57616">
        <ele>705</ele>
        <time>2021-08-10T10:21:35.775Z</time>
      </trkpt>
      <trkpt lat="46.94247" lon="8.57615">
        <ele>705</ele>
        <time>2021-08-10T10:21:36.774Z</time>
      </trkpt>
      <trkpt lat="46.94247" lon="8.57614">
        <ele>706</ele>
        <time>2021-08-10T10:21:37.775Z</time>
      </trkpt>
      <trkpt lat="46.94247" lon="8.57613">
        <ele>706</ele>
        <time>2021-08-10T10:21:38.774Z</time>
      </trkpt>
      <trkpt lat="46.94247" lon="8.57611">
        <ele>706</ele>
        <time>2021-08-10T10:21:39.775Z</time>
      </trkpt>
      <trkpt lat="46.94246" lon="8.5761">
        <ele>706</ele>
        <time>2021-08-10T10:21:40.775Z</time>
      </trkpt>
      <trkpt lat="46.94245" lon="8.57609">
        <ele>706</ele>
        <time>2021-08-10T10:21:41.775Z</time>
      </trkpt>
      <trkpt lat="46.94244" lon="8.57607">
        <ele>707</ele>
        <time>2021-08-10T10:21:42.774Z</time>
      </trkpt>
      <trkpt lat="46.94243" lon="8.57605">
        <ele>707</ele>
        <time>2021-08-10T10:21:43.775Z</time>
      </trkpt>
      <trkpt lat="46.94242" lon="8.57605">
        <ele>707</ele>
        <time>2021-08-10T10:21:44.775Z</time>
      </trkpt>
      <trkpt lat="46.94242" lon="8.57604">
        <ele>707</ele>
        <time>2021-08-10T10:21:45.775Z</time>
      </trkpt>
      <trkpt lat="46.94241" lon="8.57603">
        <ele>707</ele>
        <time>2021-08-10T10:21:46.775Z</time>
      </trkpt>
      <trkpt lat="46.94241" lon="8.57601">
        <ele>707</ele>
        <time>2021-08-10T10:21:47.775Z</time>
      </trkpt>
      <trkpt lat="46.9424" lon="8.57599">
        <ele>708</ele>
        <time>2021-08-10T10:21:48.775Z</time>
      </trkpt>
      <trkpt lat="46.94239" lon="8.57597">
        <ele>708</ele>
        <time>2021-08-10T10:21:49.775Z</time>
      </trkpt>
      <trkpt lat="46.94238" lon="8.57596">
        <ele>708</ele>
        <time>2021-08-10T10:21:50.774Z</time>
      </trkpt>
      <trkpt lat="46.94236" lon="8.57595">
        <ele>708</ele>
        <time>2021-08-10T10:21:51.775Z</time>
      </trkpt>
      <trkpt lat="46.94236" lon="8.57595">
        <ele>708</ele>
        <time>2021-08-10T10:21:52.775Z</time>
      </trkpt>
      <trkpt lat="46.94235" lon="8.57596">
        <ele>708</ele>
        <time>2021-08-10T10:21:53.775Z</time>
      </trkpt>
      <trkpt lat="46.94234" lon="8.57595">
        <ele>708</ele>
        <time>2021-08-10T10:21:54.775Z</time>
      </trkpt>
      <trkpt lat="46.94233" lon="8.57595">
        <ele>708</ele>
        <time>2021-08-10T10:21:55.775Z</time>
      </trkpt>
      <trkpt lat="46.94232" lon="8.57594">
        <ele>709</ele>
        <time>2021-08-10T10:21:56.775Z</time>
      </trkpt>
      <trkpt lat="46.94232" lon="8.57594">
        <ele>709</ele>
        <time>2021-08-10T10:21:57.775Z</time>
      </trkpt>
      <trkpt lat="46.9423" lon="8.57593">
        <ele>709</ele>
        <time>2021-08-10T10:21:58.775Z</time>
      </trkpt>
      <trkpt lat="46.94228" lon="8.57592">
        <ele>710</ele>
        <time>2021-08-10T10:21:59.775Z</time>
      </trkpt>
      <trkpt lat="46.94227" lon="8.57593">
        <ele>710</ele>
        <time>2021-08-10T10:22:00.775Z</time>
      </trkpt>
      <trkpt lat="46.94226" lon="8.57593">
        <ele>710</ele>
        <time>2021-08-10T10:22:01.774Z</time>
      </trkpt>
      <trkpt lat="46.94225" lon="8.57592">
        <ele>710</ele>
        <time>2021-08-10T10:22:02.775Z</time>
      </trkpt>
      <trkpt lat="46.94224" lon="8.57591">
        <ele>710</ele>
        <time>2021-08-10T10:22:03.774Z</time>
      </trkpt>
      <trkpt lat="46.94224" lon="8.5759">
        <ele>711</ele>
        <time>2021-08-10T10:22:04.775Z</time>
      </trkpt>
      <trkpt lat="46.94223" lon="8.57589">
        <ele>711</ele>
        <time>2021-08-10T10:22:05.775Z</time>
      </trkpt>
      <trkpt lat="46.94223" lon="8.57589">
        <ele>711</ele>
        <time>2021-08-10T10:22:06.775Z</time>
      </trkpt>
      <trkpt lat="46.94223" lon="8.57589">
        <ele>711</ele>
        <time>2021-08-10T10:22:07.775Z</time>
      </trkpt>
      <trkpt lat="46.94222" lon="8.57589">
        <ele>712</ele>
        <time>2021-08-10T10:22:08.775Z</time>
      </trkpt>
      <trkpt lat="46.94222" lon="8.5759">
        <ele>712</ele>
        <time>2021-08-10T10:22:09.776Z</time>
      </trkpt>
      <trkpt lat="46.94221" lon="8.5759">
        <ele>712</ele>
        <time>2021-08-10T10:22:10.775Z</time>
      </trkpt>
      <trkpt lat="46.9422" lon="8.57591">
        <ele>712</ele>
        <time>2021-08-10T10:22:11.775Z</time>
      </trkpt>
      <trkpt lat="46.94219" lon="8.57591">
        <ele>712</ele>
        <time>2021-08-10T10:22:12.775Z</time>
      </trkpt>
      <trkpt lat="46.94218" lon="8.57591">
        <ele>712</ele>
        <time>2021-08-10T10:22:13.776Z</time>
      </trkpt>
      <trkpt lat="46.94217" lon="8.57591">
        <ele>712</ele>
        <time>2021-08-10T10:22:14.776Z</time>
      </trkpt>
      <trkpt lat="46.94216" lon="8.57591">
        <ele>712</ele>
        <time>2021-08-10T10:22:15.775Z</time>
      </trkpt>
      <trkpt lat="46.94215" lon="8.57592">
        <ele>713</ele>
        <time>2021-08-10T10:22:16.776Z</time>
      </trkpt>
      <trkpt lat="46.94214" lon="8.57592">
        <ele>713</ele>
        <time>2021-08-10T10:22:17.776Z</time>
      </trkpt>
      <trkpt lat="46.94212" lon="8.57593">
        <ele>713</ele>
        <time>2021-08-10T10:22:18.776Z</time>
      </trkpt>
      <trkpt lat="46.9421" lon="8.57595">
        <ele>713</ele>
        <time>2021-08-10T10:22:19.776Z</time>
      </trkpt>
      <trkpt lat="46.94208" lon="8.57594">
        <ele>712</ele>
        <time>2021-08-10T10:22:20.777Z</time>
      </trkpt>
      <trkpt lat="46.94207" lon="8.57594">
        <ele>712</ele>
        <time>2021-08-10T10:22:21.777Z</time>
      </trkpt>
      <trkpt lat="46.94206" lon="8.57594">
        <ele>712</ele>
        <time>2021-08-10T10:22:22.777Z</time>
      </trkpt>
      <trkpt lat="46.94205" lon="8.57593">
        <ele>712</ele>
        <time>2021-08-10T10:22:23.777Z</time>
      </trkpt>
      <trkpt lat="46.94204" lon="8.57593">
        <ele>712</ele>
        <time>2021-08-10T10:22:24.777Z</time>
      </trkpt>
      <trkpt lat="46.94203" lon="8.57593">
        <ele>712</ele>
        <time>2021-08-10T10:22:25.777Z</time>
      </trkpt>
      <trkpt lat="46.94203" lon="8.57593">
        <ele>712</ele>
        <time>2021-08-10T10:22:26.777Z</time>
      </trkpt>
      <trkpt lat="46.94202" lon="8.57593">
        <ele>712</ele>
        <time>2021-08-10T10:22:27.777Z</time>
      </trkpt>
      <trkpt lat="46.94201" lon="8.57593">
        <ele>713</ele>
        <time>2021-08-10T10:22:28.777Z</time>
      </trkpt>
      <trkpt lat="46.942" lon="8.57593">
        <ele>713</ele>
        <time>2021-08-10T10:22:29.777Z</time>
      </trkpt>
      <trkpt lat="46.94199" lon="8.57593">
        <ele>713</ele>
        <time>2021-08-10T10:22:30.777Z</time>
      </trkpt>
      <trkpt lat="46.94198" lon="8.57593">
        <ele>713</ele>
        <time>2021-08-10T10:22:31.776Z</time>
      </trkpt>
      <trkpt lat="46.94197" lon="8.57594">
        <ele>713</ele>
        <time>2021-08-10T10:22:32.776Z</time>
      </trkpt>
      <trkpt lat="46.94197" lon="8.57594">
        <ele>713</ele>
        <time>2021-08-10T10:22:33.777Z</time>
      </trkpt>
      <trkpt lat="46.94196" lon="8.57595">
        <ele>713</ele>
        <time>2021-08-10T10:22:34.777Z</time>
      </trkpt>
      <trkpt lat="46.94196" lon="8.57594">
        <ele>713</ele>
        <time>2021-08-10T10:22:35.777Z</time>
      </trkpt>
      <trkpt lat="46.94195" lon="8.57594">
        <ele>713</ele>
        <time>2021-08-10T10:22:36.777Z</time>
      </trkpt>
      <trkpt lat="46.94194" lon="8.57593">
        <ele>714</ele>
        <time>2021-08-10T10:22:37.777Z</time>
      </trkpt>
      <trkpt lat="46.94193" lon="8.57591">
        <ele>714</ele>
        <time>2021-08-10T10:22:38.776Z</time>
      </trkpt>
      <trkpt lat="46.94193" lon="8.57589">
        <ele>714</ele>
        <time>2021-08-10T10:22:39.777Z</time>
      </trkpt>
      <trkpt lat="46.94192" lon="8.57589">
        <ele>714</ele>
        <time>2021-08-10T10:22:40.777Z</time>
      </trkpt>
      <trkpt lat="46.94192" lon="8.57589">
        <ele>714</ele>
        <time>2021-08-10T10:22:41.777Z</time>
      </trkpt>
      <trkpt lat="46.94191" lon="8.57589">
        <ele>714</ele>
        <time>2021-08-10T10:22:42.777Z</time>
      </trkpt>
      <trkpt lat="46.9419" lon="8.57588">
        <ele>713</ele>
        <time>2021-08-10T10:22:43.776Z</time>
      </trkpt>
      <trkpt lat="46.94189" lon="8.57587">
        <ele>713</ele>
        <time>2021-08-10T10:22:44.776Z</time>
      </trkpt>
      <trkpt lat="46.94188" lon="8.57587">
        <ele>712</ele>
        <time>2021-08-10T10:22:45.777Z</time>
      </trkpt>
      <trkpt lat="46.94187" lon="8.57587">
        <ele>711</ele>
        <time>2021-08-10T10:22:46.777Z</time>
      </trkpt>
      <trkpt lat="46.94185" lon="8.57587">
        <ele>710</ele>
        <time>2021-08-10T10:22:47.776Z</time>
      </trkpt>
      <trkpt lat="46.94184" lon="8.57587">
        <ele>708</ele>
        <time>2021-08-10T10:22:48.777Z</time>
      </trkpt>
      <trkpt lat="46.94183" lon="8.57588">
        <ele>708</ele>
        <time>2021-08-10T10:22:49.777Z</time>
      </trkpt>
      <trkpt lat="46.94181" lon="8.57587">
        <ele>707</ele>
        <time>2021-08-10T10:22:50.777Z</time>
      </trkpt>
      <trkpt lat="46.9418" lon="8.57587">
        <ele>706</ele>
        <time>2021-08-10T10:22:51.776Z</time>
      </trkpt>
      <trkpt lat="46.94179" lon="8.57587">
        <ele>706</ele>
        <time>2021-08-10T10:22:52.777Z</time>
      </trkpt>
      <trkpt lat="46.94177" lon="8.57586">
        <ele>706</ele>
        <time>2021-08-10T10:22:53.777Z</time>
      </trkpt>
      <trkpt lat="46.94176" lon="8.57586">
        <ele>705</ele>
        <time>2021-08-10T10:22:54.777Z</time>
      </trkpt>
      <trkpt lat="46.94175" lon="8.57587">
        <ele>705</ele>
        <time>2021-08-10T10:22:55.777Z</time>
      </trkpt>
      <trkpt lat="46.94174" lon="8.57589">
        <ele>705</ele>
        <time>2021-08-10T10:22:56.777Z</time>
      </trkpt>
      <trkpt lat="46.94174" lon="8.57589">
        <ele>705</ele>
        <time>2021-08-10T10:22:57.776Z</time>
      </trkpt>
      <trkpt lat="46.94174" lon="8.57589">
        <ele>705</ele>
        <time>2021-08-10T10:22:58.777Z</time>
      </trkpt>
      <trkpt lat="46.94173" lon="8.5759">
        <ele>705</ele>
        <time>2021-08-10T10:22:59.777Z</time>
      </trkpt>
      <trkpt lat="46.94172" lon="8.5759">
        <ele>705</ele>
        <time>2021-08-10T10:23:00.777Z</time>
      </trkpt>
      <trkpt lat="46.94171" lon="8.5759">
        <ele>705</ele>
        <time>2021-08-10T10:23:01.777Z</time>
      </trkpt>
      <trkpt lat="46.94171" lon="8.5759">
        <ele>706</ele>
        <time>2021-08-10T10:23:02.777Z</time>
      </trkpt>
      <trkpt lat="46.9417" lon="8.5759">
        <ele>706</ele>
        <time>2021-08-10T10:23:03.778Z</time>
      </trkpt>
      <trkpt lat="46.9417" lon="8.5759">
        <ele>706</ele>
        <time>2021-08-10T10:23:04.777Z</time>
      </trkpt>
      <trkpt lat="46.94169" lon="8.57591">
        <ele>706</ele>
        <time>2021-08-10T10:23:05.777Z</time>
      </trkpt>
      <trkpt lat="46.94168" lon="8.57592">
        <ele>706</ele>
        <time>2021-08-10T10:23:06.778Z</time>
      </trkpt>
      <trkpt lat="46.94167" lon="8.57592">
        <ele>706</ele>
        <time>2021-08-10T10:23:07.777Z</time>
      </trkpt>
      <trkpt lat="46.94166" lon="8.57593">
        <ele>706</ele>
        <time>2021-08-10T10:23:08.778Z</time>
      </trkpt>
      <trkpt lat="46.94164" lon="8.57594">
        <ele>706</ele>
        <time>2021-08-10T10:23:09.777Z</time>
      </trkpt>
      <trkpt lat="46.94163" lon="8.57595">
        <ele>706</ele>
        <time>2021-08-10T10:23:10.777Z</time>
      </trkpt>
      <trkpt lat="46.94161" lon="8.57596">
        <ele>706</ele>
        <time>2021-08-10T10:23:11.777Z</time>
      </trkpt>
      <trkpt lat="46.9416" lon="8.57598">
        <ele>706</ele>
        <time>2021-08-10T10:23:12.777Z</time>
      </trkpt>
      <trkpt lat="46.94159" lon="8.57599">
        <ele>706</ele>
        <time>2021-08-10T10:23:13.778Z</time>
      </trkpt>
      <trkpt lat="46.94158" lon="8.57601">
        <ele>706</ele>
        <time>2021-08-10T10:23:14.777Z</time>
      </trkpt>
      <trkpt lat="46.94158" lon="8.57602">
        <ele>706</ele>
        <time>2021-08-10T10:23:15.777Z</time>
      </trkpt>
      <trkpt lat="46.94158" lon="8.57604">
        <ele>706</ele>
        <time>2021-08-10T10:23:16.778Z</time>
      </trkpt>
      <trkpt lat="46.94158" lon="8.57605">
        <ele>706</ele>
        <time>2021-08-10T10:23:17.778Z</time>
      </trkpt>
      <trkpt lat="46.94158" lon="8.57606">
        <ele>707</ele>
        <time>2021-08-10T10:23:18.777Z</time>
      </trkpt>
      <trkpt lat="46.94157" lon="8.57615">
        <ele>710</ele>
        <time>2021-08-10T10:23:19.777Z</time>
      </trkpt>
      <trkpt lat="46.94157" lon="8.57617">
        <ele>710</ele>
        <time>2021-08-10T10:23:20.777Z</time>
      </trkpt>
      <trkpt lat="46.94152" lon="8.57624">
        <ele>711</ele>
        <time>2021-08-10T10:23:21.778Z</time>
      </trkpt>
      <trkpt lat="46.94152" lon="8.57625">
        <ele>712</ele>
        <time>2021-08-10T10:23:22.778Z</time>
      </trkpt>
      <trkpt lat="46.94153" lon="8.57627">
        <ele>713</ele>
        <time>2021-08-10T10:23:23.777Z</time>
      </trkpt>
      <trkpt lat="46.94156" lon="8.57632">
        <ele>719</ele>
        <time>2021-08-10T10:23:24.777Z</time>
      </trkpt>
      <trkpt lat="46.94156" lon="8.57632">
        <ele>719</ele>
        <time>2021-08-10T10:23:25.777Z</time>
      </trkpt>
      <trkpt lat="46.94151" lon="8.57639">
        <ele>723</ele>
        <time>2021-08-10T10:23:26.777Z</time>
      </trkpt>
      <trkpt lat="46.94151" lon="8.57639">
        <ele>723</ele>
        <time>2021-08-10T10:23:27.777Z</time>
      </trkpt>
      <trkpt lat="46.94154" lon="8.57636">
        <ele>731</ele>
        <time>2021-08-10T10:23:28.778Z</time>
      </trkpt>
      <trkpt lat="46.94154" lon="8.57635">
        <ele>731</ele>
        <time>2021-08-10T10:23:29.777Z</time>
      </trkpt>
      <trkpt lat="46.94154" lon="8.57635">
        <ele>732</ele>
        <time>2021-08-10T10:23:30.778Z</time>
      </trkpt>
      <trkpt lat="46.94154" lon="8.57634">
        <ele>732</ele>
        <time>2021-08-10T10:23:31.778Z</time>
      </trkpt>
      <trkpt lat="46.94154" lon="8.57634">
        <ele>732</ele>
        <time>2021-08-10T10:23:32.778Z</time>
      </trkpt>
      <trkpt lat="46.94154" lon="8.57632">
        <ele>723</ele>
        <time>2021-08-10T10:23:33.779Z</time>
      </trkpt>
      <trkpt lat="46.94154" lon="8.57631">
        <ele>722</ele>
        <time>2021-08-10T10:23:34.778Z</time>
      </trkpt>
      <trkpt lat="46.94155" lon="8.57632">
        <ele>721</ele>
        <time>2021-08-10T10:23:35.778Z</time>
      </trkpt>
      <trkpt lat="46.94155" lon="8.57632">
        <ele>720</ele>
        <time>2021-08-10T10:23:36.778Z</time>
      </trkpt>
      <trkpt lat="46.94155" lon="8.57633">
        <ele>718</ele>
        <time>2021-08-10T10:23:37.778Z</time>
      </trkpt>
      <trkpt lat="46.94157" lon="8.57631">
        <ele>714</ele>
        <time>2021-08-10T10:23:38.779Z</time>
      </trkpt>
      <trkpt lat="46.94157" lon="8.5763">
        <ele>714</ele>
        <time>2021-08-10T10:23:39.779Z</time>
      </trkpt>
      <trkpt lat="46.94157" lon="8.57629">
        <ele>713</ele>
        <time>2021-08-10T10:23:40.779Z</time>
      </trkpt>
      <trkpt lat="46.94158" lon="8.57628">
        <ele>712</ele>
        <time>2021-08-10T10:23:41.779Z</time>
      </trkpt>
      <trkpt lat="46.94158" lon="8.57628">
        <ele>712</ele>
        <time>2021-08-10T10:23:42.779Z</time>
      </trkpt>
      <trkpt lat="46.94158" lon="8.57627">
        <ele>711</ele>
        <time>2021-08-10T10:23:43.778Z</time>
      </trkpt>
      <trkpt lat="46.9416" lon="8.57625">
        <ele>709</ele>
        <time>2021-08-10T10:23:44.779Z</time>
      </trkpt>
      <trkpt lat="46.9416" lon="8.57625">
        <ele>709</ele>
        <time>2021-08-10T10:23:45.778Z</time>
      </trkpt>
      <trkpt lat="46.94161" lon="8.57624">
        <ele>709</ele>
        <time>2021-08-10T10:23:46.778Z</time>
      </trkpt>
      <trkpt lat="46.94161" lon="8.57624">
        <ele>709</ele>
        <time>2021-08-10T10:23:47.778Z</time>
      </trkpt>
      <trkpt lat="46.94161" lon="8.57623">
        <ele>709</ele>
        <time>2021-08-10T10:23:48.779Z</time>
      </trkpt>
      <trkpt lat="46.94162" lon="8.57623">
        <ele>708</ele>
        <time>2021-08-10T10:23:49.778Z</time>
      </trkpt>
      <trkpt lat="46.94162" lon="8.57623">
        <ele>708</ele>
        <time>2021-08-10T10:23:50.779Z</time>
      </trkpt>
      <trkpt lat="46.94162" lon="8.57623">
        <ele>709</ele>
        <time>2021-08-10T10:23:51.778Z</time>
      </trkpt>
      <trkpt lat="46.94163" lon="8.57623">
        <ele>709</ele>
        <time>2021-08-10T10:23:52.778Z</time>
      </trkpt>
      <trkpt lat="46.94163" lon="8.57623">
        <ele>709</ele>
        <time>2021-08-10T10:23:53.779Z</time>
      </trkpt>
      <trkpt lat="46.94163" lon="8.57624">
        <ele>709</ele>
        <time>2021-08-10T10:23:54.779Z</time>
      </trkpt>
      <trkpt lat="46.94163" lon="8.57623">
        <ele>709</ele>
        <time>2021-08-10T10:23:55.779Z</time>
      </trkpt>
      <trkpt lat="46.94164" lon="8.57617">
        <ele>709</ele>
        <time>2021-08-10T10:23:56.780Z</time>
      </trkpt>
      <trkpt lat="46.94164" lon="8.57617">
        <ele>709</ele>
        <time>2021-08-10T10:23:57.780Z</time>
      </trkpt>
      <trkpt lat="46.94164" lon="8.57616">
        <ele>709</ele>
        <time>2021-08-10T10:23:58.779Z</time>
      </trkpt>
      <trkpt lat="46.94159" lon="8.57619">
        <ele>705</ele>
        <time>2021-08-10T10:23:59.780Z</time>
      </trkpt>
      <trkpt lat="46.94159" lon="8.57618">
        <ele>704</ele>
        <time>2021-08-10T10:24:00.781Z</time>
      </trkpt>
      <trkpt lat="46.94161" lon="8.57618">
        <ele>704</ele>
        <time>2021-08-10T10:24:01.781Z</time>
      </trkpt>
      <trkpt lat="46.94161" lon="8.57618">
        <ele>705</ele>
        <time>2021-08-10T10:24:02.781Z</time>
      </trkpt>
      <trkpt lat="46.94161" lon="8.57619">
        <ele>705</ele>
        <time>2021-08-10T10:24:03.780Z</time>
      </trkpt>
      <trkpt lat="46.94161" lon="8.57623">
        <ele>709</ele>
        <time>2021-08-10T10:24:04.780Z</time>
      </trkpt>
      <trkpt lat="46.94161" lon="8.57624">
        <ele>709</ele>
        <time>2021-08-10T10:24:05.780Z</time>
      </trkpt>
      <trkpt lat="46.9416" lon="8.57627">
        <ele>710</ele>
        <time>2021-08-10T10:24:06.780Z</time>
      </trkpt>
      <trkpt lat="46.94159" lon="8.5763">
        <ele>710</ele>
        <time>2021-08-10T10:24:07.780Z</time>
      </trkpt>
      <trkpt lat="46.94162" lon="8.5763">
        <ele>720</ele>
        <time>2021-08-10T10:24:08.781Z</time>
      </trkpt>
      <trkpt lat="46.94163" lon="8.57631">
        <ele>720</ele>
        <time>2021-08-10T10:24:09.781Z</time>
      </trkpt>
      <trkpt lat="46.94164" lon="8.57631">
        <ele>721</ele>
        <time>2021-08-10T10:24:10.781Z</time>
      </trkpt>
      <trkpt lat="46.94164" lon="8.57632">
        <ele>722</ele>
        <time>2021-08-10T10:24:11.781Z</time>
      </trkpt>
      <trkpt lat="46.94166" lon="8.57632">
        <ele>722</ele>
        <time>2021-08-10T10:24:12.781Z</time>
      </trkpt>
      <trkpt lat="46.94166" lon="8.57633">
        <ele>722</ele>
        <time>2021-08-10T10:24:13.782Z</time>
      </trkpt>
      <trkpt lat="46.94166" lon="8.57633">
        <ele>722</ele>
        <time>2021-08-10T10:24:14.782Z</time>
      </trkpt>
      <trkpt lat="46.94166" lon="8.57633">
        <ele>722</ele>
        <time>2021-08-10T10:24:15.782Z</time>
      </trkpt>
      <trkpt lat="46.94169" lon="8.57632">
        <ele>721</ele>
        <time>2021-08-10T10:24:16.782Z</time>
      </trkpt>
      <trkpt lat="46.94165" lon="8.57631">
        <ele>719</ele>
        <time>2021-08-10T10:24:17.783Z</time>
      </trkpt>
      <trkpt lat="46.94163" lon="8.5763">
        <ele>717</ele>
        <time>2021-08-10T10:24:18.783Z</time>
      </trkpt>
      <trkpt lat="46.94162" lon="8.57629">
        <ele>717</ele>
        <time>2021-08-10T10:24:19.782Z</time>
      </trkpt>
      <trkpt lat="46.94161" lon="8.57629">
        <ele>717</ele>
        <time>2021-08-10T10:24:20.782Z</time>
      </trkpt>
      <trkpt lat="46.94159" lon="8.57628">
        <ele>717</ele>
        <time>2021-08-10T10:24:21.782Z</time>
      </trkpt>
      <trkpt lat="46.94158" lon="8.57626">
        <ele>717</ele>
        <time>2021-08-10T10:24:22.782Z</time>
      </trkpt>
      <trkpt lat="46.94158" lon="8.57627">
        <ele>716</ele>
        <time>2021-08-10T10:24:23.782Z</time>
      </trkpt>
      <trkpt lat="46.94157" lon="8.57627">
        <ele>716</ele>
        <time>2021-08-10T10:24:24.782Z</time>
      </trkpt>
      <trkpt lat="46.94156" lon="8.57628">
        <ele>715</ele>
        <time>2021-08-10T10:24:25.782Z</time>
      </trkpt>
      <trkpt lat="46.94156" lon="8.57629">
        <ele>715</ele>
        <time>2021-08-10T10:24:26.783Z</time>
      </trkpt>
      <trkpt lat="46.94155" lon="8.57629">
        <ele>714</ele>
        <time>2021-08-10T10:24:27.782Z</time>
      </trkpt>
      <trkpt lat="46.94156" lon="8.5763">
        <ele>714</ele>
        <time>2021-08-10T10:24:28.782Z</time>
      </trkpt>
      <trkpt lat="46.94156" lon="8.57631">
        <ele>714</ele>
        <time>2021-08-10T10:24:29.782Z</time>
      </trkpt>
      <trkpt lat="46.94156" lon="8.57632">
        <ele>713</ele>
        <time>2021-08-10T10:24:30.782Z</time>
      </trkpt>
      <trkpt lat="46.94156" lon="8.57633">
        <ele>712</ele>
        <time>2021-08-10T10:24:31.783Z</time>
      </trkpt>
      <trkpt lat="46.94156" lon="8.57634">
        <ele>711</ele>
        <time>2021-08-10T10:24:32.782Z</time>
      </trkpt>
      <trkpt lat="46.94157" lon="8.57635">
        <ele>711</ele>
        <time>2021-08-10T10:24:33.782Z</time>
      </trkpt>
      <trkpt lat="46.94157" lon="8.57636">
        <ele>710</ele>
        <time>2021-08-10T10:24:34.782Z</time>
      </trkpt>
      <trkpt lat="46.94157" lon="8.57637">
        <ele>710</ele>
        <time>2021-08-10T10:24:35.782Z</time>
      </trkpt>
      <trkpt lat="46.94158" lon="8.57638">
        <ele>709</ele>
        <time>2021-08-10T10:24:36.782Z</time>
      </trkpt>
      <trkpt lat="46.94158" lon="8.57639">
        <ele>709</ele>
        <time>2021-08-10T10:24:37.782Z</time>
      </trkpt>
      <trkpt lat="46.94158" lon="8.57639">
        <ele>709</ele>
        <time>2021-08-10T10:24:38.782Z</time>
      </trkpt>
      <trkpt lat="46.94158" lon="8.57641">
        <ele>709</ele>
        <time>2021-08-10T10:24:39.782Z</time>
      </trkpt>
      <trkpt lat="46.94157" lon="8.57642">
        <ele>709</ele>
        <time>2021-08-10T10:24:40.782Z</time>
      </trkpt>
      <trkpt lat="46.94157" lon="8.57641">
        <ele>709</ele>
        <time>2021-08-10T10:24:41.783Z</time>
      </trkpt>
      <trkpt lat="46.94156" lon="8.57641">
        <ele>709</ele>
        <time>2021-08-10T10:24:42.783Z</time>
      </trkpt>
      <trkpt lat="46.94156" lon="8.57641">
        <ele>708</ele>
        <time>2021-08-10T10:24:43.782Z</time>
      </trkpt>
      <trkpt lat="46.94155" lon="8.57641">
        <ele>707</ele>
        <time>2021-08-10T10:24:44.782Z</time>
      </trkpt>
      <trkpt lat="46.94154" lon="8.5764">
        <ele>706</ele>
        <time>2021-08-10T10:24:45.782Z</time>
      </trkpt>
      <trkpt lat="46.94153" lon="8.5764">
        <ele>705</ele>
        <time>2021-08-10T10:24:46.783Z</time>
      </trkpt>
      <trkpt lat="46.94153" lon="8.5764">
        <ele>704</ele>
        <time>2021-08-10T10:24:47.783Z</time>
      </trkpt>
      <trkpt lat="46.94153" lon="8.5764">
        <ele>703</ele>
        <time>2021-08-10T10:24:48.782Z</time>
      </trkpt>
      <trkpt lat="46.94155" lon="8.57641">
        <ele>702</ele>
        <time>2021-08-10T10:24:49.783Z</time>
      </trkpt>
      <trkpt lat="46.94156" lon="8.57641">
        <ele>701</ele>
        <time>2021-08-10T10:24:50.783Z</time>
      </trkpt>
      <trkpt lat="46.94156" lon="8.57641">
        <ele>700</ele>
        <time>2021-08-10T10:24:51.783Z</time>
      </trkpt>
      <trkpt lat="46.94157" lon="8.57641">
        <ele>699</ele>
        <time>2021-08-10T10:24:52.783Z</time>
      </trkpt>
      <trkpt lat="46.94157" lon="8.57642">
        <ele>698</ele>
        <time>2021-08-10T10:24:53.783Z</time>
      </trkpt>
      <trkpt lat="46.94157" lon="8.57643">
        <ele>697</ele>
        <time>2021-08-10T10:24:54.782Z</time>
      </trkpt>
      <trkpt lat="46.94157" lon="8.57643">
        <ele>696</ele>
        <time>2021-08-10T10:24:55.783Z</time>
      </trkpt>
      <trkpt lat="46.94157" lon="8.57643">
        <ele>695</ele>
        <time>2021-08-10T10:24:56.782Z</time>
      </trkpt>
      <trkpt lat="46.94157" lon="8.57642">
        <ele>694</ele>
        <time>2021-08-10T10:24:57.782Z</time>
      </trkpt>
      <trkpt lat="46.94157" lon="8.57642">
        <ele>693</ele>
        <time>2021-08-10T10:24:58.783Z</time>
      </trkpt>
      <trkpt lat="46.94157" lon="8.57642">
        <ele>692</ele>
        <time>2021-08-10T10:24:59.783Z</time>
      </trkpt>
      <trkpt lat="46.94157" lon="8.57643">
        <ele>691</ele>
        <time>2021-08-10T10:25:00.783Z</time>
      </trkpt>
      <trkpt lat="46.94157" lon="8.57643">
        <ele>690</ele>
        <time>2021-08-10T10:25:01.782Z</time>
      </trkpt>
      <trkpt lat="46.94156" lon="8.57644">
        <ele>689</ele>
        <time>2021-08-10T10:25:02.783Z</time>
      </trkpt>
      <trkpt lat="46.94156" lon="8.57645">
        <ele>688</ele>
        <time>2021-08-10T10:25:03.782Z</time>
      </trkpt>
      <trkpt lat="46.94155" lon="8.57645">
        <ele>686</ele>
        <time>2021-08-10T10:25:04.783Z</time>
      </trkpt>
      <trkpt lat="46.94155" lon="8.57645">
        <ele>685</ele>
        <time>2021-08-10T10:25:05.783Z</time>
      </trkpt>
      <trkpt lat="46.94154" lon="8.57645">
        <ele>684</ele>
        <time>2021-08-10T10:25:06.783Z</time>
      </trkpt>
      <trkpt lat="46.94154" lon="8.57645">
        <ele>683</ele>
        <time>2021-08-10T10:25:07.783Z</time>
      </trkpt>
      <trkpt lat="46.94153" lon="8.57645">
        <ele>682</ele>
        <time>2021-08-10T10:25:08.782Z</time>
      </trkpt>
      <trkpt lat="46.94153" lon="8.57645">
        <ele>681</ele>
        <time>2021-08-10T10:25:09.783Z</time>
      </trkpt>
      <trkpt lat="46.94152" lon="8.57644">
        <ele>680</ele>
        <time>2021-08-10T10:25:10.782Z</time>
      </trkpt>
      <trkpt lat="46.94152" lon="8.57644">
        <ele>679</ele>
        <time>2021-08-10T10:25:11.782Z</time>
      </trkpt>
      <trkpt lat="46.94151" lon="8.57644">
        <ele>678</ele>
        <time>2021-08-10T10:25:12.783Z</time>
      </trkpt>
      <trkpt lat="46.9415" lon="8.57644">
        <ele>678</ele>
        <time>2021-08-10T10:25:13.782Z</time>
      </trkpt>
      <trkpt lat="46.9415" lon="8.57644">
        <ele>677</ele>
        <time>2021-08-10T10:25:14.782Z</time>
      </trkpt>
      <trkpt lat="46.94149" lon="8.57644">
        <ele>676</ele>
        <time>2021-08-10T10:25:15.783Z</time>
      </trkpt>
      <trkpt lat="46.94148" lon="8.57645">
        <ele>676</ele>
        <time>2021-08-10T10:25:16.783Z</time>
      </trkpt>
      <trkpt lat="46.94148" lon="8.57645">
        <ele>676</ele>
        <time>2021-08-10T10:25:17.783Z</time>
      </trkpt>
      <trkpt lat="46.94147" lon="8.57645">
        <ele>676</ele>
        <time>2021-08-10T10:25:18.783Z</time>
      </trkpt>
      <trkpt lat="46.94146" lon="8.57643">
        <ele>676</ele>
        <time>2021-08-10T10:25:19.783Z</time>
      </trkpt>
      <trkpt lat="46.94144" lon="8.57643">
        <ele>676</ele>
        <time>2021-08-10T10:25:20.783Z</time>
      </trkpt>
      <trkpt lat="46.94142" lon="8.57643">
        <ele>676</ele>
        <time>2021-08-10T10:25:21.783Z</time>
      </trkpt>
      <trkpt lat="46.94141" lon="8.57642">
        <ele>676</ele>
        <time>2021-08-10T10:25:22.782Z</time>
      </trkpt>
      <trkpt lat="46.94141" lon="8.57642">
        <ele>675</ele>
        <time>2021-08-10T10:25:23.783Z</time>
      </trkpt>
      <trkpt lat="46.9414" lon="8.57643">
        <ele>675</ele>
        <time>2021-08-10T10:25:24.783Z</time>
      </trkpt>
      <trkpt lat="46.94139" lon="8.57643">
        <ele>674</ele>
        <time>2021-08-10T10:25:25.782Z</time>
      </trkpt>
      <trkpt lat="46.94138" lon="8.57643">
        <ele>674</ele>
        <time>2021-08-10T10:25:26.783Z</time>
      </trkpt>
      <trkpt lat="46.94137" lon="8.57643">
        <ele>674</ele>
        <time>2021-08-10T10:25:27.783Z</time>
      </trkpt>
      <trkpt lat="46.94136" lon="8.57643">
        <ele>673</ele>
        <time>2021-08-10T10:25:28.783Z</time>
      </trkpt>
      <trkpt lat="46.94136" lon="8.57643">
        <ele>673</ele>
        <time>2021-08-10T10:25:29.782Z</time>
      </trkpt>
      <trkpt lat="46.94136" lon="8.57643">
        <ele>672</ele>
        <time>2021-08-10T10:25:30.783Z</time>
      </trkpt>
      <trkpt lat="46.94135" lon="8.57644">
        <ele>672</ele>
        <time>2021-08-10T10:25:31.782Z</time>
      </trkpt>
      <trkpt lat="46.94134" lon="8.57644">
        <ele>671</ele>
        <time>2021-08-10T10:25:32.783Z</time>
      </trkpt>
      <trkpt lat="46.94133" lon="8.57644">
        <ele>670</ele>
        <time>2021-08-10T10:25:33.783Z</time>
      </trkpt>
      <trkpt lat="46.94132" lon="8.57644">
        <ele>669</ele>
        <time>2021-08-10T10:25:34.783Z</time>
      </trkpt>
      <trkpt lat="46.94132" lon="8.57642">
        <ele>669</ele>
        <time>2021-08-10T10:25:35.782Z</time>
      </trkpt>
      <trkpt lat="46.94131" lon="8.57641">
        <ele>668</ele>
        <time>2021-08-10T10:25:36.782Z</time>
      </trkpt>
      <trkpt lat="46.9413" lon="8.57641">
        <ele>668</ele>
        <time>2021-08-10T10:25:37.782Z</time>
      </trkpt>
      <trkpt lat="46.9413" lon="8.5764">
        <ele>667</ele>
        <time>2021-08-10T10:25:38.782Z</time>
      </trkpt>
      <trkpt lat="46.94129" lon="8.57641">
        <ele>667</ele>
        <time>2021-08-10T10:25:39.783Z</time>
      </trkpt>
      <trkpt lat="46.94129" lon="8.57642">
        <ele>667</ele>
        <time>2021-08-10T10:25:40.783Z</time>
      </trkpt>
      <trkpt lat="46.94128" lon="8.57643">
        <ele>668</ele>
        <time>2021-08-10T10:25:41.783Z</time>
      </trkpt>
      <trkpt lat="46.94128" lon="8.57645">
        <ele>669</ele>
        <time>2021-08-10T10:25:42.783Z</time>
      </trkpt>
      <trkpt lat="46.94127" lon="8.57646">
        <ele>670</ele>
        <time>2021-08-10T10:25:43.783Z</time>
      </trkpt>
      <trkpt lat="46.94127" lon="8.57646">
        <ele>671</ele>
        <time>2021-08-10T10:25:44.783Z</time>
      </trkpt>
      <trkpt lat="46.94127" lon="8.57647">
        <ele>672</ele>
        <time>2021-08-10T10:25:45.782Z</time>
      </trkpt>
      <trkpt lat="46.94127" lon="8.57648">
        <ele>672</ele>
        <time>2021-08-10T10:25:46.782Z</time>
      </trkpt>
      <trkpt lat="46.94127" lon="8.57648">
        <ele>673</ele>
        <time>2021-08-10T10:25:47.782Z</time>
      </trkpt>
      <trkpt lat="46.94127" lon="8.57649">
        <ele>672</ele>
        <time>2021-08-10T10:25:48.783Z</time>
      </trkpt>
      <trkpt lat="46.94126" lon="8.57649">
        <ele>672</ele>
        <time>2021-08-10T10:25:49.783Z</time>
      </trkpt>
      <trkpt lat="46.94126" lon="8.5765">
        <ele>672</ele>
        <time>2021-08-10T10:25:50.783Z</time>
      </trkpt>
      <trkpt lat="46.94125" lon="8.57651">
        <ele>672</ele>
        <time>2021-08-10T10:25:51.783Z</time>
      </trkpt>
      <trkpt lat="46.94124" lon="8.57652">
        <ele>672</ele>
        <time>2021-08-10T10:25:52.783Z</time>
      </trkpt>
      <trkpt lat="46.94123" lon="8.57652">
        <ele>672</ele>
        <time>2021-08-10T10:25:53.782Z</time>
      </trkpt>
      <trkpt lat="46.94123" lon="8.57652">
        <ele>672</ele>
        <time>2021-08-10T10:25:54.783Z</time>
      </trkpt>
      <trkpt lat="46.94122" lon="8.57653">
        <ele>671</ele>
        <time>2021-08-10T10:25:55.783Z</time>
      </trkpt>
      <trkpt lat="46.9412" lon="8.57653">
        <ele>671</ele>
        <time>2021-08-10T10:25:56.783Z</time>
      </trkpt>
      <trkpt lat="46.9412" lon="8.57654">
        <ele>670</ele>
        <time>2021-08-10T10:25:57.783Z</time>
      </trkpt>
      <trkpt lat="46.94119" lon="8.57655">
        <ele>670</ele>
        <time>2021-08-10T10:25:58.783Z</time>
      </trkpt>
      <trkpt lat="46.94118" lon="8.57656">
        <ele>669</ele>
        <time>2021-08-10T10:25:59.783Z</time>
      </trkpt>
      <trkpt lat="46.94117" lon="8.57656">
        <ele>669</ele>
        <time>2021-08-10T10:26:00.782Z</time>
      </trkpt>
      <trkpt lat="46.94116" lon="8.57656">
        <ele>669</ele>
        <time>2021-08-10T10:26:01.783Z</time>
      </trkpt>
      <trkpt lat="46.94115" lon="8.57657">
        <ele>669</ele>
        <time>2021-08-10T10:26:02.783Z</time>
      </trkpt>
      <trkpt lat="46.94115" lon="8.57658">
        <ele>670</ele>
        <time>2021-08-10T10:26:03.783Z</time>
      </trkpt>
      <trkpt lat="46.94114" lon="8.57659">
        <ele>670</ele>
        <time>2021-08-10T10:26:04.783Z</time>
      </trkpt>
      <trkpt lat="46.94114" lon="8.5766">
        <ele>670</ele>
        <time>2021-08-10T10:26:05.782Z</time>
      </trkpt>
      <trkpt lat="46.94114" lon="8.57661">
        <ele>670</ele>
        <time>2021-08-10T10:26:06.782Z</time>
      </trkpt>
      <trkpt lat="46.94115" lon="8.57662">
        <ele>669</ele>
        <time>2021-08-10T10:26:07.783Z</time>
      </trkpt>
      <trkpt lat="46.94115" lon="8.57663">
        <ele>668</ele>
        <time>2021-08-10T10:26:08.783Z</time>
      </trkpt>
      <trkpt lat="46.94116" lon="8.57665">
        <ele>667</ele>
        <time>2021-08-10T10:26:09.783Z</time>
      </trkpt>
      <trkpt lat="46.94116" lon="8.57666">
        <ele>666</ele>
        <time>2021-08-10T10:26:10.782Z</time>
      </trkpt>
      <trkpt lat="46.94117" lon="8.57667">
        <ele>666</ele>
        <time>2021-08-10T10:26:11.783Z</time>
      </trkpt>
      <trkpt lat="46.94117" lon="8.57668">
        <ele>665</ele>
        <time>2021-08-10T10:26:12.782Z</time>
      </trkpt>
      <trkpt lat="46.94118" lon="8.57668">
        <ele>664</ele>
        <time>2021-08-10T10:26:13.783Z</time>
      </trkpt>
      <trkpt lat="46.94118" lon="8.57669">
        <ele>663</ele>
        <time>2021-08-10T10:26:14.783Z</time>
      </trkpt>
      <trkpt lat="46.94117" lon="8.5767">
        <ele>663</ele>
        <time>2021-08-10T10:26:15.782Z</time>
      </trkpt>
      <trkpt lat="46.94117" lon="8.5767">
        <ele>663</ele>
        <time>2021-08-10T10:26:16.783Z</time>
      </trkpt>
      <trkpt lat="46.94117" lon="8.5767">
        <ele>662</ele>
        <time>2021-08-10T10:26:17.782Z</time>
      </trkpt>
      <trkpt lat="46.94117" lon="8.5767">
        <ele>662</ele>
        <time>2021-08-10T10:26:18.783Z</time>
      </trkpt>
      <trkpt lat="46.94116" lon="8.5767">
        <ele>661</ele>
        <time>2021-08-10T10:26:19.782Z</time>
      </trkpt>
      <trkpt lat="46.94115" lon="8.5767">
        <ele>661</ele>
        <time>2021-08-10T10:26:20.783Z</time>
      </trkpt>
      <trkpt lat="46.94115" lon="8.57669">
        <ele>660</ele>
        <time>2021-08-10T10:26:21.783Z</time>
      </trkpt>
      <trkpt lat="46.94114" lon="8.57669">
        <ele>660</ele>
        <time>2021-08-10T10:26:22.783Z</time>
      </trkpt>
      <trkpt lat="46.94114" lon="8.57669">
        <ele>659</ele>
        <time>2021-08-10T10:26:23.782Z</time>
      </trkpt>
      <trkpt lat="46.94113" lon="8.57669">
        <ele>659</ele>
        <time>2021-08-10T10:26:24.782Z</time>
      </trkpt>
      <trkpt lat="46.94112" lon="8.5767">
        <ele>659</ele>
        <time>2021-08-10T10:26:25.782Z</time>
      </trkpt>
      <trkpt lat="46.94112" lon="8.5767">
        <ele>659</ele>
        <time>2021-08-10T10:26:26.782Z</time>
      </trkpt>
      <trkpt lat="46.94111" lon="8.57671">
        <ele>658</ele>
        <time>2021-08-10T10:26:27.782Z</time>
      </trkpt>
      <trkpt lat="46.94111" lon="8.57671">
        <ele>658</ele>
        <time>2021-08-10T10:26:28.783Z</time>
      </trkpt>
      <trkpt lat="46.9411" lon="8.57671">
        <ele>657</ele>
        <time>2021-08-10T10:26:29.783Z</time>
      </trkpt>
      <trkpt lat="46.94109" lon="8.57672">
        <ele>657</ele>
        <time>2021-08-10T10:26:30.783Z</time>
      </trkpt>
      <trkpt lat="46.94108" lon="8.57672">
        <ele>656</ele>
        <time>2021-08-10T10:26:31.783Z</time>
      </trkpt>
      <trkpt lat="46.94108" lon="8.57672">
        <ele>656</ele>
        <time>2021-08-10T10:26:32.782Z</time>
      </trkpt>
      <trkpt lat="46.94107" lon="8.57672">
        <ele>655</ele>
        <time>2021-08-10T10:26:33.782Z</time>
      </trkpt>
      <trkpt lat="46.94107" lon="8.57672">
        <ele>655</ele>
        <time>2021-08-10T10:26:34.782Z</time>
      </trkpt>
      <trkpt lat="46.94106" lon="8.57673">
        <ele>654</ele>
        <time>2021-08-10T10:26:35.782Z</time>
      </trkpt>
      <trkpt lat="46.94105" lon="8.57673">
        <ele>654</ele>
        <time>2021-08-10T10:26:36.782Z</time>
      </trkpt>
      <trkpt lat="46.94105" lon="8.57674">
        <ele>654</ele>
        <time>2021-08-10T10:26:37.783Z</time>
      </trkpt>
      <trkpt lat="46.94104" lon="8.57675">
        <ele>654</ele>
        <time>2021-08-10T10:26:38.783Z</time>
      </trkpt>
      <trkpt lat="46.94104" lon="8.57676">
        <ele>654</ele>
        <time>2021-08-10T10:26:39.783Z</time>
      </trkpt>
      <trkpt lat="46.94105" lon="8.57677">
        <ele>654</ele>
        <time>2021-08-10T10:26:40.783Z</time>
      </trkpt>
      <trkpt lat="46.94105" lon="8.57679">
        <ele>654</ele>
        <time>2021-08-10T10:26:41.783Z</time>
      </trkpt>
      <trkpt lat="46.94105" lon="8.5768">
        <ele>654</ele>
        <time>2021-08-10T10:26:42.783Z</time>
      </trkpt>
      <trkpt lat="46.94106" lon="8.57681">
        <ele>655</ele>
        <time>2021-08-10T10:26:43.783Z</time>
      </trkpt>
      <trkpt lat="46.94107" lon="8.57682">
        <ele>655</ele>
        <time>2021-08-10T10:26:44.783Z</time>
      </trkpt>
      <trkpt lat="46.94108" lon="8.57683">
        <ele>655</ele>
        <time>2021-08-10T10:26:45.783Z</time>
      </trkpt>
      <trkpt lat="46.94108" lon="8.57684">
        <ele>655</ele>
        <time>2021-08-10T10:26:46.782Z</time>
      </trkpt>
      <trkpt lat="46.94109" lon="8.57685">
        <ele>655</ele>
        <time>2021-08-10T10:26:47.783Z</time>
      </trkpt>
      <trkpt lat="46.94109" lon="8.57686">
        <ele>655</ele>
        <time>2021-08-10T10:26:48.783Z</time>
      </trkpt>
      <trkpt lat="46.9411" lon="8.57687">
        <ele>655</ele>
        <time>2021-08-10T10:26:49.782Z</time>
      </trkpt>
      <trkpt lat="46.9411" lon="8.57688">
        <ele>655</ele>
        <time>2021-08-10T10:26:50.782Z</time>
      </trkpt>
      <trkpt lat="46.94111" lon="8.57689">
        <ele>655</ele>
        <time>2021-08-10T10:26:51.782Z</time>
      </trkpt>
      <trkpt lat="46.94111" lon="8.57689">
        <ele>654</ele>
        <time>2021-08-10T10:26:52.783Z</time>
      </trkpt>
      <trkpt lat="46.94112" lon="8.5769">
        <ele>654</ele>
        <time>2021-08-10T10:26:53.783Z</time>
      </trkpt>
      <trkpt lat="46.94112" lon="8.57691">
        <ele>654</ele>
        <time>2021-08-10T10:26:54.783Z</time>
      </trkpt>
      <trkpt lat="46.94113" lon="8.57691">
        <ele>655</ele>
        <time>2021-08-10T10:26:55.783Z</time>
      </trkpt>
      <trkpt lat="46.94113" lon="8.57692">
        <ele>655</ele>
        <time>2021-08-10T10:26:56.782Z</time>
      </trkpt>
      <trkpt lat="46.94114" lon="8.57692">
        <ele>656</ele>
        <time>2021-08-10T10:26:57.783Z</time>
      </trkpt>
      <trkpt lat="46.94114" lon="8.57693">
        <ele>656</ele>
        <time>2021-08-10T10:26:58.783Z</time>
      </trkpt>
      <trkpt lat="46.94115" lon="8.57693">
        <ele>655</ele>
        <time>2021-08-10T10:26:59.783Z</time>
      </trkpt>
      <trkpt lat="46.94115" lon="8.57694">
        <ele>655</ele>
        <time>2021-08-10T10:27:00.783Z</time>
      </trkpt>
      <trkpt lat="46.94116" lon="8.57695">
        <ele>655</ele>
        <time>2021-08-10T10:27:01.783Z</time>
      </trkpt>
      <trkpt lat="46.94116" lon="8.57695">
        <ele>655</ele>
        <time>2021-08-10T10:27:02.783Z</time>
      </trkpt>
      <trkpt lat="46.94117" lon="8.57696">
        <ele>655</ele>
        <time>2021-08-10T10:27:03.782Z</time>
      </trkpt>
      <trkpt lat="46.94118" lon="8.57696">
        <ele>655</ele>
        <time>2021-08-10T10:27:04.783Z</time>
      </trkpt>
      <trkpt lat="46.94119" lon="8.57696">
        <ele>655</ele>
        <time>2021-08-10T10:27:05.783Z</time>
      </trkpt>
      <trkpt lat="46.9412" lon="8.57697">
        <ele>656</ele>
        <time>2021-08-10T10:27:06.782Z</time>
      </trkpt>
      <trkpt lat="46.94121" lon="8.57698">
        <ele>656</ele>
        <time>2021-08-10T10:27:07.783Z</time>
      </trkpt>
      <trkpt lat="46.94122" lon="8.57699">
        <ele>656</ele>
        <time>2021-08-10T10:27:08.782Z</time>
      </trkpt>
      <trkpt lat="46.94123" lon="8.577">
        <ele>657</ele>
        <time>2021-08-10T10:27:09.783Z</time>
      </trkpt>
      <trkpt lat="46.94123" lon="8.577">
        <ele>657</ele>
        <time>2021-08-10T10:27:10.783Z</time>
      </trkpt>
      <trkpt lat="46.94124" lon="8.57701">
        <ele>657</ele>
        <time>2021-08-10T10:27:11.783Z</time>
      </trkpt>
      <trkpt lat="46.94124" lon="8.57702">
        <ele>658</ele>
        <time>2021-08-10T10:27:12.783Z</time>
      </trkpt>
      <trkpt lat="46.94125" lon="8.57703">
        <ele>658</ele>
        <time>2021-08-10T10:27:13.783Z</time>
      </trkpt>
      <trkpt lat="46.94125" lon="8.57703">
        <ele>658</ele>
        <time>2021-08-10T10:27:14.783Z</time>
      </trkpt>
      <trkpt lat="46.94126" lon="8.57704">
        <ele>658</ele>
        <time>2021-08-10T10:27:15.783Z</time>
      </trkpt>
      <trkpt lat="46.94126" lon="8.57704">
        <ele>659</ele>
        <time>2021-08-10T10:27:16.782Z</time>
      </trkpt>
      <trkpt lat="46.94125" lon="8.57704">
        <ele>659</ele>
        <time>2021-08-10T10:27:17.782Z</time>
      </trkpt>
      <trkpt lat="46.94125" lon="8.57704">
        <ele>659</ele>
        <time>2021-08-10T10:27:18.782Z</time>
      </trkpt>
      <trkpt lat="46.94124" lon="8.57706">
        <ele>660</ele>
        <time>2021-08-10T10:27:19.783Z</time>
      </trkpt>
      <trkpt lat="46.94125" lon="8.57706">
        <ele>660</ele>
        <time>2021-08-10T10:27:20.783Z</time>
      </trkpt>
      <trkpt lat="46.94125" lon="8.57705">
        <ele>660</ele>
        <time>2021-08-10T10:27:21.783Z</time>
      </trkpt>
      <trkpt lat="46.94123" lon="8.57702">
        <ele>661</ele>
        <time>2021-08-10T10:27:22.782Z</time>
      </trkpt>
      <trkpt lat="46.94123" lon="8.57701">
        <ele>661</ele>
        <time>2021-08-10T10:27:23.783Z</time>
      </trkpt>
      <trkpt lat="46.94116" lon="8.57696">
        <ele>658</ele>
        <time>2021-08-10T10:27:24.783Z</time>
      </trkpt>
      <trkpt lat="46.94115" lon="8.57696">
        <ele>658</ele>
        <time>2021-08-10T10:27:25.782Z</time>
      </trkpt>
      <trkpt lat="46.94115" lon="8.57697">
        <ele>657</ele>
        <time>2021-08-10T10:27:26.783Z</time>
      </trkpt>
      <trkpt lat="46.94115" lon="8.57697">
        <ele>657</ele>
        <time>2021-08-10T10:27:27.783Z</time>
      </trkpt>
      <trkpt lat="46.94115" lon="8.57697">
        <ele>657</ele>
        <time>2021-08-10T10:27:28.783Z</time>
      </trkpt>
      <trkpt lat="46.94114" lon="8.57698">
        <ele>656</ele>
        <time>2021-08-10T10:27:29.783Z</time>
      </trkpt>
      <trkpt lat="46.94114" lon="8.57698">
        <ele>656</ele>
        <time>2021-08-10T10:27:30.784Z</time>
      </trkpt>
      <trkpt lat="46.94114" lon="8.57699">
        <ele>656</ele>
        <time>2021-08-10T10:27:31.783Z</time>
      </trkpt>
      <trkpt lat="46.94113" lon="8.577">
        <ele>656</ele>
        <time>2021-08-10T10:27:32.784Z</time>
      </trkpt>
      <trkpt lat="46.94113" lon="8.57699">
        <ele>656</ele>
        <time>2021-08-10T10:27:33.784Z</time>
      </trkpt>
      <trkpt lat="46.94112" lon="8.577">
        <ele>656</ele>
        <time>2021-08-10T10:27:34.783Z</time>
      </trkpt>
      <trkpt lat="46.94111" lon="8.577">
        <ele>656</ele>
        <time>2021-08-10T10:27:35.784Z</time>
      </trkpt>
      <trkpt lat="46.94111" lon="8.57699">
        <ele>656</ele>
        <time>2021-08-10T10:27:36.784Z</time>
      </trkpt>
      <trkpt lat="46.9411" lon="8.57697">
        <ele>657</ele>
        <time>2021-08-10T10:27:37.783Z</time>
      </trkpt>
      <trkpt lat="46.94109" lon="8.57697">
        <ele>657</ele>
        <time>2021-08-10T10:27:38.784Z</time>
      </trkpt>
      <trkpt lat="46.94109" lon="8.57696">
        <ele>657</ele>
        <time>2021-08-10T10:27:39.784Z</time>
      </trkpt>
      <trkpt lat="46.94109" lon="8.57696">
        <ele>657</ele>
        <time>2021-08-10T10:27:40.783Z</time>
      </trkpt>
      <trkpt lat="46.94109" lon="8.57696">
        <ele>657</ele>
        <time>2021-08-10T10:27:41.783Z</time>
      </trkpt>
      <trkpt lat="46.94109" lon="8.57696">
        <ele>657</ele>
        <time>2021-08-10T10:27:42.783Z</time>
      </trkpt>
      <trkpt lat="46.94109" lon="8.57696">
        <ele>657</ele>
        <time>2021-08-10T10:27:43.783Z</time>
      </trkpt>
      <trkpt lat="46.94109" lon="8.57696">
        <ele>657</ele>
        <time>2021-08-10T10:27:44.783Z</time>
      </trkpt>
      <trkpt lat="46.94108" lon="8.57696">
        <ele>656</ele>
        <time>2021-08-10T10:27:45.783Z</time>
      </trkpt>
      <trkpt lat="46.94107" lon="8.57697">
        <ele>656</ele>
        <time>2021-08-10T10:27:46.783Z</time>
      </trkpt>
      <trkpt lat="46.94107" lon="8.57698">
        <ele>655</ele>
        <time>2021-08-10T10:27:47.783Z</time>
      </trkpt>
      <trkpt lat="46.94106" lon="8.57699">
        <ele>655</ele>
        <time>2021-08-10T10:27:48.783Z</time>
      </trkpt>
      <trkpt lat="46.94104" lon="8.577">
        <ele>655</ele>
        <time>2021-08-10T10:27:49.783Z</time>
      </trkpt>
      <trkpt lat="46.94102" lon="8.57702">
        <ele>654</ele>
        <time>2021-08-10T10:27:50.783Z</time>
      </trkpt>
      <trkpt lat="46.94102" lon="8.57703">
        <ele>654</ele>
        <time>2021-08-10T10:27:51.783Z</time>
      </trkpt>
      <trkpt lat="46.94102" lon="8.57703">
        <ele>653</ele>
        <time>2021-08-10T10:27:52.783Z</time>
      </trkpt>
      <trkpt lat="46.94102" lon="8.57704">
        <ele>652</ele>
        <time>2021-08-10T10:27:53.784Z</time>
      </trkpt>
      <trkpt lat="46.941" lon="8.57707">
        <ele>650</ele>
        <time>2021-08-10T10:27:54.785Z</time>
      </trkpt>
      <trkpt lat="46.94099" lon="8.57708">
        <ele>650</ele>
        <time>2021-08-10T10:27:55.785Z</time>
      </trkpt>
      <trkpt lat="46.941" lon="8.57709">
        <ele>649</ele>
        <time>2021-08-10T10:27:56.784Z</time>
      </trkpt>
      <trkpt lat="46.941" lon="8.57709">
        <ele>648</ele>
        <time>2021-08-10T10:27:57.785Z</time>
      </trkpt>
      <trkpt lat="46.94099" lon="8.57709">
        <ele>648</ele>
        <time>2021-08-10T10:27:58.785Z</time>
      </trkpt>
      <trkpt lat="46.94099" lon="8.5771">
        <ele>647</ele>
        <time>2021-08-10T10:27:59.784Z</time>
      </trkpt>
      <trkpt lat="46.94098" lon="8.5771">
        <ele>647</ele>
        <time>2021-08-10T10:28:00.785Z</time>
      </trkpt>
      <trkpt lat="46.94097" lon="8.5771">
        <ele>647</ele>
        <time>2021-08-10T10:28:01.785Z</time>
      </trkpt>
      <trkpt lat="46.94098" lon="8.5771">
        <ele>647</ele>
        <time>2021-08-10T10:28:02.784Z</time>
      </trkpt>
      <trkpt lat="46.94097" lon="8.57711">
        <ele>646</ele>
        <time>2021-08-10T10:28:03.784Z</time>
      </trkpt>
      <trkpt lat="46.94096" lon="8.57711">
        <ele>646</ele>
        <time>2021-08-10T10:28:04.784Z</time>
      </trkpt>
      <trkpt lat="46.94095" lon="8.57711">
        <ele>646</ele>
        <time>2021-08-10T10:28:05.784Z</time>
      </trkpt>
      <trkpt lat="46.94094" lon="8.57712">
        <ele>646</ele>
        <time>2021-08-10T10:28:06.784Z</time>
      </trkpt>
      <trkpt lat="46.94092" lon="8.57712">
        <ele>645</ele>
        <time>2021-08-10T10:28:07.785Z</time>
      </trkpt>
      <trkpt lat="46.94091" lon="8.57712">
        <ele>645</ele>
        <time>2021-08-10T10:28:08.784Z</time>
      </trkpt>
      <trkpt lat="46.94091" lon="8.57712">
        <ele>644</ele>
        <time>2021-08-10T10:28:09.785Z</time>
      </trkpt>
      <trkpt lat="46.94091" lon="8.57712">
        <ele>644</ele>
        <time>2021-08-10T10:28:10.785Z</time>
      </trkpt>
      <trkpt lat="46.9409" lon="8.57712">
        <ele>643</ele>
        <time>2021-08-10T10:28:11.785Z</time>
      </trkpt>
      <trkpt lat="46.94091" lon="8.57712">
        <ele>643</ele>
        <time>2021-08-10T10:28:12.785Z</time>
      </trkpt>
      <trkpt lat="46.94092" lon="8.57711">
        <ele>642</ele>
        <time>2021-08-10T10:28:13.785Z</time>
      </trkpt>
      <trkpt lat="46.94092" lon="8.57711">
        <ele>641</ele>
        <time>2021-08-10T10:28:14.784Z</time>
      </trkpt>
      <trkpt lat="46.94091" lon="8.5771">
        <ele>640</ele>
        <time>2021-08-10T10:28:15.784Z</time>
      </trkpt>
      <trkpt lat="46.94091" lon="8.57709">
        <ele>640</ele>
        <time>2021-08-10T10:28:16.785Z</time>
      </trkpt>
      <trkpt lat="46.94091" lon="8.57708">
        <ele>639</ele>
        <time>2021-08-10T10:28:17.785Z</time>
      </trkpt>
      <trkpt lat="46.94091" lon="8.57708">
        <ele>639</ele>
        <time>2021-08-10T10:28:18.785Z</time>
      </trkpt>
      <trkpt lat="46.9409" lon="8.57708">
        <ele>639</ele>
        <time>2021-08-10T10:28:19.784Z</time>
      </trkpt>
      <trkpt lat="46.94089" lon="8.57707">
        <ele>639</ele>
        <time>2021-08-10T10:28:20.784Z</time>
      </trkpt>
      <trkpt lat="46.94089" lon="8.57707">
        <ele>638</ele>
        <time>2021-08-10T10:28:21.785Z</time>
      </trkpt>
      <trkpt lat="46.94089" lon="8.57708">
        <ele>638</ele>
        <time>2021-08-10T10:28:22.785Z</time>
      </trkpt>
      <trkpt lat="46.94088" lon="8.57707">
        <ele>638</ele>
        <time>2021-08-10T10:28:23.785Z</time>
      </trkpt>
      <trkpt lat="46.94087" lon="8.57706">
        <ele>637</ele>
        <time>2021-08-10T10:28:24.784Z</time>
      </trkpt>
      <trkpt lat="46.94086" lon="8.57706">
        <ele>637</ele>
        <time>2021-08-10T10:28:25.785Z</time>
      </trkpt>
      <trkpt lat="46.94086" lon="8.57707">
        <ele>636</ele>
        <time>2021-08-10T10:28:26.785Z</time>
      </trkpt>
      <trkpt lat="46.94086" lon="8.57706">
        <ele>636</ele>
        <time>2021-08-10T10:28:27.784Z</time>
      </trkpt>
      <trkpt lat="46.94085" lon="8.57705">
        <ele>635</ele>
        <time>2021-08-10T10:28:28.785Z</time>
      </trkpt>
      <trkpt lat="46.94084" lon="8.57705">
        <ele>635</ele>
        <time>2021-08-10T10:28:29.784Z</time>
      </trkpt>
      <trkpt lat="46.94083" lon="8.57705">
        <ele>635</ele>
        <time>2021-08-10T10:28:30.785Z</time>
      </trkpt>
      <trkpt lat="46.94083" lon="8.57704">
        <ele>634</ele>
        <time>2021-08-10T10:28:31.785Z</time>
      </trkpt>
      <trkpt lat="46.94082" lon="8.57703">
        <ele>634</ele>
        <time>2021-08-10T10:28:32.785Z</time>
      </trkpt>
      <trkpt lat="46.94081" lon="8.57703">
        <ele>633</ele>
        <time>2021-08-10T10:28:33.785Z</time>
      </trkpt>
      <trkpt lat="46.9408" lon="8.57702">
        <ele>632</ele>
        <time>2021-08-10T10:28:34.785Z</time>
      </trkpt>
      <trkpt lat="46.94079" lon="8.57701">
        <ele>632</ele>
        <time>2021-08-10T10:28:35.785Z</time>
      </trkpt>
      <trkpt lat="46.94078" lon="8.57701">
        <ele>632</ele>
        <time>2021-08-10T10:28:36.785Z</time>
      </trkpt>
      <trkpt lat="46.94078" lon="8.57701">
        <ele>632</ele>
        <time>2021-08-10T10:28:37.785Z</time>
      </trkpt>
      <trkpt lat="46.94077" lon="8.57701">
        <ele>633</ele>
        <time>2021-08-10T10:28:38.784Z</time>
      </trkpt>
      <trkpt lat="46.94075" lon="8.57701">
        <ele>634</ele>
        <time>2021-08-10T10:28:39.785Z</time>
      </trkpt>
      <trkpt lat="46.94075" lon="8.57701">
        <ele>634</ele>
        <time>2021-08-10T10:28:40.785Z</time>
      </trkpt>
      <trkpt lat="46.94074" lon="8.57702">
        <ele>635</ele>
        <time>2021-08-10T10:28:41.785Z</time>
      </trkpt>
      <trkpt lat="46.94073" lon="8.57702">
        <ele>635</ele>
        <time>2021-08-10T10:28:42.784Z</time>
      </trkpt>
      <trkpt lat="46.94073" lon="8.57703">
        <ele>635</ele>
        <time>2021-08-10T10:28:43.785Z</time>
      </trkpt>
      <trkpt lat="46.94073" lon="8.57704">
        <ele>636</ele>
        <time>2021-08-10T10:28:44.785Z</time>
      </trkpt>
      <trkpt lat="46.94072" lon="8.57705">
        <ele>636</ele>
        <time>2021-08-10T10:28:45.785Z</time>
      </trkpt>
      <trkpt lat="46.94072" lon="8.57707">
        <ele>636</ele>
        <time>2021-08-10T10:28:46.785Z</time>
      </trkpt>
      <trkpt lat="46.94072" lon="8.57708">
        <ele>636</ele>
        <time>2021-08-10T10:28:47.785Z</time>
      </trkpt>
      <trkpt lat="46.94072" lon="8.57709">
        <ele>637</ele>
        <time>2021-08-10T10:28:48.785Z</time>
      </trkpt>
      <trkpt lat="46.94073" lon="8.5771">
        <ele>637</ele>
        <time>2021-08-10T10:28:49.785Z</time>
      </trkpt>
      <trkpt lat="46.94073" lon="8.57711">
        <ele>636</ele>
        <time>2021-08-10T10:28:50.785Z</time>
      </trkpt>
      <trkpt lat="46.94074" lon="8.57712">
        <ele>636</ele>
        <time>2021-08-10T10:28:51.785Z</time>
      </trkpt>
      <trkpt lat="46.94074" lon="8.57713">
        <ele>636</ele>
        <time>2021-08-10T10:28:52.784Z</time>
      </trkpt>
      <trkpt lat="46.94075" lon="8.57714">
        <ele>636</ele>
        <time>2021-08-10T10:28:53.785Z</time>
      </trkpt>
      <trkpt lat="46.94075" lon="8.57715">
        <ele>636</ele>
        <time>2021-08-10T10:28:54.785Z</time>
      </trkpt>
      <trkpt lat="46.94075" lon="8.57716">
        <ele>636</ele>
        <time>2021-08-10T10:28:55.785Z</time>
      </trkpt>
      <trkpt lat="46.94075" lon="8.57718">
        <ele>636</ele>
        <time>2021-08-10T10:28:56.785Z</time>
      </trkpt>
      <trkpt lat="46.94075" lon="8.57719">
        <ele>636</ele>
        <time>2021-08-10T10:28:57.785Z</time>
      </trkpt>
      <trkpt lat="46.94075" lon="8.57719">
        <ele>636</ele>
        <time>2021-08-10T10:28:58.785Z</time>
      </trkpt>
      <trkpt lat="46.94076" lon="8.5772">
        <ele>636</ele>
        <time>2021-08-10T10:28:59.785Z</time>
      </trkpt>
      <trkpt lat="46.94075" lon="8.57721">
        <ele>635</ele>
        <time>2021-08-10T10:29:00.786Z</time>
      </trkpt>
      <trkpt lat="46.94075" lon="8.57722">
        <ele>635</ele>
        <time>2021-08-10T10:29:01.785Z</time>
      </trkpt>
      <trkpt lat="46.94075" lon="8.57723">
        <ele>635</ele>
        <time>2021-08-10T10:29:02.785Z</time>
      </trkpt>
      <trkpt lat="46.94075" lon="8.57724">
        <ele>635</ele>
        <time>2021-08-10T10:29:03.786Z</time>
      </trkpt>
      <trkpt lat="46.94075" lon="8.57725">
        <ele>635</ele>
        <time>2021-08-10T10:29:04.786Z</time>
      </trkpt>
      <trkpt lat="46.94074" lon="8.57726">
        <ele>635</ele>
        <time>2021-08-10T10:29:05.786Z</time>
      </trkpt>
      <trkpt lat="46.94074" lon="8.57727">
        <ele>635</ele>
        <time>2021-08-10T10:29:06.786Z</time>
      </trkpt>
      <trkpt lat="46.94074" lon="8.57727">
        <ele>635</ele>
        <time>2021-08-10T10:29:07.786Z</time>
      </trkpt>
      <trkpt lat="46.94074" lon="8.57727">
        <ele>634</ele>
        <time>2021-08-10T10:29:08.785Z</time>
      </trkpt>
      <trkpt lat="46.94074" lon="8.57727">
        <ele>634</ele>
        <time>2021-08-10T10:29:09.786Z</time>
      </trkpt>
      <trkpt lat="46.94074" lon="8.57728">
        <ele>633</ele>
        <time>2021-08-10T10:29:10.785Z</time>
      </trkpt>
      <trkpt lat="46.94074" lon="8.57728">
        <ele>632</ele>
        <time>2021-08-10T10:29:11.786Z</time>
      </trkpt>
      <trkpt lat="46.94074" lon="8.5773">
        <ele>631</ele>
        <time>2021-08-10T10:29:12.786Z</time>
      </trkpt>
      <trkpt lat="46.94073" lon="8.57731">
        <ele>631</ele>
        <time>2021-08-10T10:29:13.785Z</time>
      </trkpt>
      <trkpt lat="46.94073" lon="8.57732">
        <ele>630</ele>
        <time>2021-08-10T10:29:14.786Z</time>
      </trkpt>
      <trkpt lat="46.94073" lon="8.57733">
        <ele>630</ele>
        <time>2021-08-10T10:29:15.786Z</time>
      </trkpt>
      <trkpt lat="46.94072" lon="8.57734">
        <ele>629</ele>
        <time>2021-08-10T10:29:16.785Z</time>
      </trkpt>
      <trkpt lat="46.94072" lon="8.57735">
        <ele>629</ele>
        <time>2021-08-10T10:29:17.785Z</time>
      </trkpt>
      <trkpt lat="46.94071" lon="8.57736">
        <ele>629</ele>
        <time>2021-08-10T10:29:18.786Z</time>
      </trkpt>
      <trkpt lat="46.94071" lon="8.57736">
        <ele>628</ele>
        <time>2021-08-10T10:29:19.786Z</time>
      </trkpt>
      <trkpt lat="46.9407" lon="8.57737">
        <ele>628</ele>
        <time>2021-08-10T10:29:20.786Z</time>
      </trkpt>
      <trkpt lat="46.9407" lon="8.57737">
        <ele>628</ele>
        <time>2021-08-10T10:29:21.785Z</time>
      </trkpt>
      <trkpt lat="46.94069" lon="8.57736">
        <ele>627</ele>
        <time>2021-08-10T10:29:22.786Z</time>
      </trkpt>
      <trkpt lat="46.94069" lon="8.57737">
        <ele>627</ele>
        <time>2021-08-10T10:29:23.785Z</time>
      </trkpt>
      <trkpt lat="46.94068" lon="8.57738">
        <ele>627</ele>
        <time>2021-08-10T10:29:24.786Z</time>
      </trkpt>
      <trkpt lat="46.94067" lon="8.57738">
        <ele>627</ele>
        <time>2021-08-10T10:29:25.786Z</time>
      </trkpt>
      <trkpt lat="46.94067" lon="8.57738">
        <ele>627</ele>
        <time>2021-08-10T10:29:26.786Z</time>
      </trkpt>
      <trkpt lat="46.94067" lon="8.57738">
        <ele>627</ele>
        <time>2021-08-10T10:29:27.786Z</time>
      </trkpt>
      <trkpt lat="46.94066" lon="8.57738">
        <ele>626</ele>
        <time>2021-08-10T10:29:28.786Z</time>
      </trkpt>
      <trkpt lat="46.94066" lon="8.57738">
        <ele>626</ele>
        <time>2021-08-10T10:29:29.786Z</time>
      </trkpt>
      <trkpt lat="46.94065" lon="8.57739">
        <ele>626</ele>
        <time>2021-08-10T10:29:30.787Z</time>
      </trkpt>
      <trkpt lat="46.94065" lon="8.5774">
        <ele>627</ele>
        <time>2021-08-10T10:29:31.787Z</time>
      </trkpt>
      <trkpt lat="46.94064" lon="8.57741">
        <ele>627</ele>
        <time>2021-08-10T10:29:32.787Z</time>
      </trkpt>
      <trkpt lat="46.94063" lon="8.57742">
        <ele>628</ele>
        <time>2021-08-10T10:29:33.786Z</time>
      </trkpt>
      <trkpt lat="46.94063" lon="8.57743">
        <ele>628</ele>
        <time>2021-08-10T10:29:34.787Z</time>
      </trkpt>
      <trkpt lat="46.94063" lon="8.57743">
        <ele>628</ele>
        <time>2021-08-10T10:29:35.786Z</time>
      </trkpt>
      <trkpt lat="46.94063" lon="8.57743">
        <ele>628</ele>
        <time>2021-08-10T10:29:36.787Z</time>
      </trkpt>
      <trkpt lat="46.94062" lon="8.57744">
        <ele>628</ele>
        <time>2021-08-10T10:29:37.787Z</time>
      </trkpt>
      <trkpt lat="46.94062" lon="8.57744">
        <ele>628</ele>
        <time>2021-08-10T10:29:38.786Z</time>
      </trkpt>
      <trkpt lat="46.94062" lon="8.57744">
        <ele>628</ele>
        <time>2021-08-10T10:29:39.786Z</time>
      </trkpt>
      <trkpt lat="46.94062" lon="8.57745">
        <ele>627</ele>
        <time>2021-08-10T10:29:40.786Z</time>
      </trkpt>
      <trkpt lat="46.9406" lon="8.57745">
        <ele>627</ele>
        <time>2021-08-10T10:29:41.787Z</time>
      </trkpt>
      <trkpt lat="46.94059" lon="8.57746">
        <ele>626</ele>
        <time>2021-08-10T10:29:42.786Z</time>
      </trkpt>
      <trkpt lat="46.94057" lon="8.57746">
        <ele>626</ele>
        <time>2021-08-10T10:29:43.787Z</time>
      </trkpt>
      <trkpt lat="46.94056" lon="8.57747">
        <ele>625</ele>
        <time>2021-08-10T10:29:44.787Z</time>
      </trkpt>
      <trkpt lat="46.94055" lon="8.57748">
        <ele>625</ele>
        <time>2021-08-10T10:29:45.787Z</time>
      </trkpt>
      <trkpt lat="46.94054" lon="8.57748">
        <ele>625</ele>
        <time>2021-08-10T10:29:46.787Z</time>
      </trkpt>
      <trkpt lat="46.94054" lon="8.57748">
        <ele>625</ele>
        <time>2021-08-10T10:29:47.787Z</time>
      </trkpt>
      <trkpt lat="46.94053" lon="8.57747">
        <ele>624</ele>
        <time>2021-08-10T10:29:48.786Z</time>
      </trkpt>
      <trkpt lat="46.94052" lon="8.57746">
        <ele>624</ele>
        <time>2021-08-10T10:29:49.786Z</time>
      </trkpt>
      <trkpt lat="46.94052" lon="8.57746">
        <ele>623</ele>
        <time>2021-08-10T10:29:50.787Z</time>
      </trkpt>
      <trkpt lat="46.94051" lon="8.57745">
        <ele>622</ele>
        <time>2021-08-10T10:29:51.787Z</time>
      </trkpt>
      <trkpt lat="46.9405" lon="8.57745">
        <ele>621</ele>
        <time>2021-08-10T10:29:52.786Z</time>
      </trkpt>
      <trkpt lat="46.94049" lon="8.57744">
        <ele>620</ele>
        <time>2021-08-10T10:29:53.786Z</time>
      </trkpt>
      <trkpt lat="46.94049" lon="8.57744">
        <ele>620</ele>
        <time>2021-08-10T10:29:54.786Z</time>
      </trkpt>
      <trkpt lat="46.94048" lon="8.57743">
        <ele>620</ele>
        <time>2021-08-10T10:29:55.786Z</time>
      </trkpt>
      <trkpt lat="46.94046" lon="8.57742">
        <ele>620</ele>
        <time>2021-08-10T10:29:56.787Z</time>
      </trkpt>
      <trkpt lat="46.94044" lon="8.57742">
        <ele>621</ele>
        <time>2021-08-10T10:29:57.786Z</time>
      </trkpt>
      <trkpt lat="46.94043" lon="8.57743">
        <ele>621</ele>
        <time>2021-08-10T10:29:58.786Z</time>
      </trkpt>
      <trkpt lat="46.94042" lon="8.57743">
        <ele>622</ele>
        <time>2021-08-10T10:29:59.786Z</time>
      </trkpt>
      <trkpt lat="46.9404" lon="8.57743">
        <ele>622</ele>
        <time>2021-08-10T10:30:00.786Z</time>
      </trkpt>
      <trkpt lat="46.94039" lon="8.57742">
        <ele>622</ele>
        <time>2021-08-10T10:30:01.786Z</time>
      </trkpt>
      <trkpt lat="46.94038" lon="8.57742">
        <ele>623</ele>
        <time>2021-08-10T10:30:02.786Z</time>
      </trkpt>
      <trkpt lat="46.94036" lon="8.57742">
        <ele>623</ele>
        <time>2021-08-10T10:30:03.787Z</time>
      </trkpt>
      <trkpt lat="46.94035" lon="8.57742">
        <ele>623</ele>
        <time>2021-08-10T10:30:04.786Z</time>
      </trkpt>
      <trkpt lat="46.94034" lon="8.57741">
        <ele>623</ele>
        <time>2021-08-10T10:30:05.786Z</time>
      </trkpt>
      <trkpt lat="46.94034" lon="8.5774">
        <ele>623</ele>
        <time>2021-08-10T10:30:06.786Z</time>
      </trkpt>
      <trkpt lat="46.94033" lon="8.57739">
        <ele>623</ele>
        <time>2021-08-10T10:30:07.786Z</time>
      </trkpt>
      <trkpt lat="46.94032" lon="8.57739">
        <ele>623</ele>
        <time>2021-08-10T10:30:08.786Z</time>
      </trkpt>
      <trkpt lat="46.94031" lon="8.57739">
        <ele>623</ele>
        <time>2021-08-10T10:30:09.786Z</time>
      </trkpt>
      <trkpt lat="46.9403" lon="8.57739">
        <ele>622</ele>
        <time>2021-08-10T10:30:10.786Z</time>
      </trkpt>
      <trkpt lat="46.9403" lon="8.57739">
        <ele>622</ele>
        <time>2021-08-10T10:30:11.786Z</time>
      </trkpt>
      <trkpt lat="46.94029" lon="8.57739">
        <ele>621</ele>
        <time>2021-08-10T10:30:12.786Z</time>
      </trkpt>
      <trkpt lat="46.94028" lon="8.57739">
        <ele>621</ele>
        <time>2021-08-10T10:30:13.786Z</time>
      </trkpt>
      <trkpt lat="46.94027" lon="8.57739">
        <ele>621</ele>
        <time>2021-08-10T10:30:14.786Z</time>
      </trkpt>
      <trkpt lat="46.94026" lon="8.57739">
        <ele>621</ele>
        <time>2021-08-10T10:30:15.786Z</time>
      </trkpt>
      <trkpt lat="46.94025" lon="8.57739">
        <ele>621</ele>
        <time>2021-08-10T10:30:16.787Z</time>
      </trkpt>
      <trkpt lat="46.94024" lon="8.5774">
        <ele>621</ele>
        <time>2021-08-10T10:30:17.787Z</time>
      </trkpt>
      <trkpt lat="46.94023" lon="8.5774">
        <ele>620</ele>
        <time>2021-08-10T10:30:18.786Z</time>
      </trkpt>
      <trkpt lat="46.94023" lon="8.5774">
        <ele>620</ele>
        <time>2021-08-10T10:30:19.786Z</time>
      </trkpt>
      <trkpt lat="46.94022" lon="8.5774">
        <ele>619</ele>
        <time>2021-08-10T10:30:20.786Z</time>
      </trkpt>
      <trkpt lat="46.94021" lon="8.5774">
        <ele>618</ele>
        <time>2021-08-10T10:30:21.786Z</time>
      </trkpt>
      <trkpt lat="46.94019" lon="8.5774">
        <ele>618</ele>
        <time>2021-08-10T10:30:22.786Z</time>
      </trkpt>
      <trkpt lat="46.94018" lon="8.5774">
        <ele>617</ele>
        <time>2021-08-10T10:30:23.786Z</time>
      </trkpt>
      <trkpt lat="46.94017" lon="8.57739">
        <ele>617</ele>
        <time>2021-08-10T10:30:24.786Z</time>
      </trkpt>
      <trkpt lat="46.94016" lon="8.57739">
        <ele>617</ele>
        <time>2021-08-10T10:30:25.786Z</time>
      </trkpt>
      <trkpt lat="46.94015" lon="8.5774">
        <ele>616</ele>
        <time>2021-08-10T10:30:26.786Z</time>
      </trkpt>
      <trkpt lat="46.94014" lon="8.5774">
        <ele>616</ele>
        <time>2021-08-10T10:30:27.787Z</time>
      </trkpt>
      <trkpt lat="46.94013" lon="8.5774">
        <ele>616</ele>
        <time>2021-08-10T10:30:28.786Z</time>
      </trkpt>
      <trkpt lat="46.94012" lon="8.57741">
        <ele>616</ele>
        <time>2021-08-10T10:30:29.786Z</time>
      </trkpt>
      <trkpt lat="46.9401" lon="8.57742">
        <ele>616</ele>
        <time>2021-08-10T10:30:30.786Z</time>
      </trkpt>
      <trkpt lat="46.94009" lon="8.57742">
        <ele>616</ele>
        <time>2021-08-10T10:30:31.787Z</time>
      </trkpt>
      <trkpt lat="46.94008" lon="8.57743">
        <ele>616</ele>
        <time>2021-08-10T10:30:32.787Z</time>
      </trkpt>
      <trkpt lat="46.94007" lon="8.57744">
        <ele>616</ele>
        <time>2021-08-10T10:30:33.786Z</time>
      </trkpt>
      <trkpt lat="46.94006" lon="8.57744">
        <ele>616</ele>
        <time>2021-08-10T10:30:34.786Z</time>
      </trkpt>
      <trkpt lat="46.94003" lon="8.57744">
        <ele>617</ele>
        <time>2021-08-10T10:30:35.786Z</time>
      </trkpt>
      <trkpt lat="46.94001" lon="8.57744">
        <ele>617</ele>
        <time>2021-08-10T10:30:36.787Z</time>
      </trkpt>
      <trkpt lat="46.93999" lon="8.57744">
        <ele>617</ele>
        <time>2021-08-10T10:30:37.786Z</time>
      </trkpt>
      <trkpt lat="46.93997" lon="8.57744">
        <ele>617</ele>
        <time>2021-08-10T10:30:38.786Z</time>
      </trkpt>
      <trkpt lat="46.93996" lon="8.57743">
        <ele>617</ele>
        <time>2021-08-10T10:30:39.787Z</time>
      </trkpt>
      <trkpt lat="46.93995" lon="8.57743">
        <ele>617</ele>
        <time>2021-08-10T10:30:40.787Z</time>
      </trkpt>
      <trkpt lat="46.93993" lon="8.57743">
        <ele>617</ele>
        <time>2021-08-10T10:30:41.786Z</time>
      </trkpt>
      <trkpt lat="46.93992" lon="8.57743">
        <ele>617</ele>
        <time>2021-08-10T10:30:42.786Z</time>
      </trkpt>
      <trkpt lat="46.9399" lon="8.57744">
        <ele>617</ele>
        <time>2021-08-10T10:30:43.786Z</time>
      </trkpt>
      <trkpt lat="46.93989" lon="8.57744">
        <ele>616</ele>
        <time>2021-08-10T10:30:44.786Z</time>
      </trkpt>
      <trkpt lat="46.93987" lon="8.57745">
        <ele>616</ele>
        <time>2021-08-10T10:30:45.786Z</time>
      </trkpt>
      <trkpt lat="46.93986" lon="8.57745">
        <ele>615</ele>
        <time>2021-08-10T10:30:46.786Z</time>
      </trkpt>
      <trkpt lat="46.93985" lon="8.57745">
        <ele>615</ele>
        <time>2021-08-10T10:30:47.786Z</time>
      </trkpt>
      <trkpt lat="46.93984" lon="8.57745">
        <ele>614</ele>
        <time>2021-08-10T10:30:48.787Z</time>
      </trkpt>
      <trkpt lat="46.93983" lon="8.57745">
        <ele>614</ele>
        <time>2021-08-10T10:30:49.787Z</time>
      </trkpt>
      <trkpt lat="46.93983" lon="8.57745">
        <ele>614</ele>
        <time>2021-08-10T10:30:50.787Z</time>
      </trkpt>
      <trkpt lat="46.93982" lon="8.57745">
        <ele>614</ele>
        <time>2021-08-10T10:30:51.786Z</time>
      </trkpt>
      <trkpt lat="46.93981" lon="8.57744">
        <ele>614</ele>
        <time>2021-08-10T10:30:52.787Z</time>
      </trkpt>
      <trkpt lat="46.9398" lon="8.57744">
        <ele>614</ele>
        <time>2021-08-10T10:30:53.787Z</time>
      </trkpt>
      <trkpt lat="46.93979" lon="8.57744">
        <ele>614</ele>
        <time>2021-08-10T10:30:54.786Z</time>
      </trkpt>
      <trkpt lat="46.93977" lon="8.57744">
        <ele>614</ele>
        <time>2021-08-10T10:30:55.787Z</time>
      </trkpt>
      <trkpt lat="46.93976" lon="8.57744">
        <ele>614</ele>
        <time>2021-08-10T10:30:56.787Z</time>
      </trkpt>
      <trkpt lat="46.93975" lon="8.57744">
        <ele>614</ele>
        <time>2021-08-10T10:30:57.787Z</time>
      </trkpt>
      <trkpt lat="46.93973" lon="8.57744">
        <ele>614</ele>
        <time>2021-08-10T10:30:58.787Z</time>
      </trkpt>
      <trkpt lat="46.93972" lon="8.57743">
        <ele>615</ele>
        <time>2021-08-10T10:30:59.787Z</time>
      </trkpt>
      <trkpt lat="46.93971" lon="8.57743">
        <ele>615</ele>
        <time>2021-08-10T10:31:00.787Z</time>
      </trkpt>
      <trkpt lat="46.9397" lon="8.57743">
        <ele>615</ele>
        <time>2021-08-10T10:31:01.787Z</time>
      </trkpt>
      <trkpt lat="46.93969" lon="8.57742">
        <ele>615</ele>
        <time>2021-08-10T10:31:02.786Z</time>
      </trkpt>
      <trkpt lat="46.93968" lon="8.57741">
        <ele>615</ele>
        <time>2021-08-10T10:31:03.787Z</time>
      </trkpt>
      <trkpt lat="46.93967" lon="8.57741">
        <ele>615</ele>
        <time>2021-08-10T10:31:04.787Z</time>
      </trkpt>
      <trkpt lat="46.93966" lon="8.5774">
        <ele>615</ele>
        <time>2021-08-10T10:31:05.786Z</time>
      </trkpt>
      <trkpt lat="46.93966" lon="8.5774">
        <ele>614</ele>
        <time>2021-08-10T10:31:06.786Z</time>
      </trkpt>
      <trkpt lat="46.93965" lon="8.57739">
        <ele>614</ele>
        <time>2021-08-10T10:31:07.786Z</time>
      </trkpt>
      <trkpt lat="46.93965" lon="8.57738">
        <ele>614</ele>
        <time>2021-08-10T10:31:08.786Z</time>
      </trkpt>
      <trkpt lat="46.93964" lon="8.57737">
        <ele>614</ele>
        <time>2021-08-10T10:31:09.786Z</time>
      </trkpt>
      <trkpt lat="46.93964" lon="8.57737">
        <ele>613</ele>
        <time>2021-08-10T10:31:10.787Z</time>
      </trkpt>
      <trkpt lat="46.93959" lon="8.57733">
        <ele>610</ele>
        <time>2021-08-10T10:31:11.786Z</time>
      </trkpt>
      <trkpt lat="46.9396" lon="8.57733">
        <ele>610</ele>
        <time>2021-08-10T10:31:12.786Z</time>
      </trkpt>
      <trkpt lat="46.9396" lon="8.57733">
        <ele>610</ele>
        <time>2021-08-10T10:31:13.786Z</time>
      </trkpt>
      <trkpt lat="46.9396" lon="8.57733">
        <ele>610</ele>
        <time>2021-08-10T10:31:14.786Z</time>
      </trkpt>
      <trkpt lat="46.9396" lon="8.57734">
        <ele>611</ele>
        <time>2021-08-10T10:31:15.787Z</time>
      </trkpt>
      <trkpt lat="46.9396" lon="8.57734">
        <ele>611</ele>
        <time>2021-08-10T10:31:16.786Z</time>
      </trkpt>
      <trkpt lat="46.9396" lon="8.57734">
        <ele>611</ele>
        <time>2021-08-10T10:31:17.787Z</time>
      </trkpt>
      <trkpt lat="46.93958" lon="8.57732">
        <ele>616</ele>
        <time>2021-08-10T10:31:18.787Z</time>
      </trkpt>
      <trkpt lat="46.93957" lon="8.57731">
        <ele>616</ele>
        <time>2021-08-10T10:31:19.786Z</time>
      </trkpt>
      <trkpt lat="46.93956" lon="8.5773">
        <ele>617</ele>
        <time>2021-08-10T10:31:20.786Z</time>
      </trkpt>
      <trkpt lat="46.93956" lon="8.5773">
        <ele>617</ele>
        <time>2021-08-10T10:31:21.786Z</time>
      </trkpt>
      <trkpt lat="46.93955" lon="8.57729">
        <ele>617</ele>
        <time>2021-08-10T10:31:22.787Z</time>
      </trkpt>
      <trkpt lat="46.93954" lon="8.57728">
        <ele>617</ele>
        <time>2021-08-10T10:31:23.786Z</time>
      </trkpt>
      <trkpt lat="46.93954" lon="8.57727">
        <ele>618</ele>
        <time>2021-08-10T10:31:24.786Z</time>
      </trkpt>
      <trkpt lat="46.93953" lon="8.57727">
        <ele>618</ele>
        <time>2021-08-10T10:31:25.787Z</time>
      </trkpt>
      <trkpt lat="46.93953" lon="8.57726">
        <ele>618</ele>
        <time>2021-08-10T10:31:26.786Z</time>
      </trkpt>
      <trkpt lat="46.93953" lon="8.57726">
        <ele>618</ele>
        <time>2021-08-10T10:31:27.787Z</time>
      </trkpt>
      <trkpt lat="46.93953" lon="8.57725">
        <ele>618</ele>
        <time>2021-08-10T10:31:28.786Z</time>
      </trkpt>
      <trkpt lat="46.93953" lon="8.57724">
        <ele>619</ele>
        <time>2021-08-10T10:31:29.786Z</time>
      </trkpt>
      <trkpt lat="46.93953" lon="8.57723">
        <ele>619</ele>
        <time>2021-08-10T10:31:30.787Z</time>
      </trkpt>
      <trkpt lat="46.93953" lon="8.57722">
        <ele>619</ele>
        <time>2021-08-10T10:31:31.786Z</time>
      </trkpt>
      <trkpt lat="46.93952" lon="8.57721">
        <ele>620</ele>
        <time>2021-08-10T10:31:32.786Z</time>
      </trkpt>
      <trkpt lat="46.93952" lon="8.5772">
        <ele>620</ele>
        <time>2021-08-10T10:31:33.787Z</time>
      </trkpt>
      <trkpt lat="46.93951" lon="8.57719">
        <ele>620</ele>
        <time>2021-08-10T10:31:34.786Z</time>
      </trkpt>
      <trkpt lat="46.9395" lon="8.57719">
        <ele>620</ele>
        <time>2021-08-10T10:31:35.786Z</time>
      </trkpt>
      <trkpt lat="46.93949" lon="8.57719">
        <ele>620</ele>
        <time>2021-08-10T10:31:36.786Z</time>
      </trkpt>
      <trkpt lat="46.93948" lon="8.57718">
        <ele>619</ele>
        <time>2021-08-10T10:31:37.786Z</time>
      </trkpt>
      <trkpt lat="46.93947" lon="8.57717">
        <ele>619</ele>
        <time>2021-08-10T10:31:38.786Z</time>
      </trkpt>
      <trkpt lat="46.93947" lon="8.57716">
        <ele>619</ele>
        <time>2021-08-10T10:31:39.786Z</time>
      </trkpt>
      <trkpt lat="46.93947" lon="8.57714">
        <ele>618</ele>
        <time>2021-08-10T10:31:40.786Z</time>
      </trkpt>
      <trkpt lat="46.93947" lon="8.57712">
        <ele>618</ele>
        <time>2021-08-10T10:31:41.786Z</time>
      </trkpt>
      <trkpt lat="46.93946" lon="8.57711">
        <ele>618</ele>
        <time>2021-08-10T10:31:42.786Z</time>
      </trkpt>
      <trkpt lat="46.93945" lon="8.57711">
        <ele>618</ele>
        <time>2021-08-10T10:31:43.786Z</time>
      </trkpt>
      <trkpt lat="46.93944" lon="8.57711">
        <ele>617</ele>
        <time>2021-08-10T10:31:44.786Z</time>
      </trkpt>
      <trkpt lat="46.93944" lon="8.57711">
        <ele>617</ele>
        <time>2021-08-10T10:31:45.786Z</time>
      </trkpt>
      <trkpt lat="46.93944" lon="8.57711">
        <ele>617</ele>
        <time>2021-08-10T10:31:46.786Z</time>
      </trkpt>
      <trkpt lat="46.93944" lon="8.57713">
        <ele>617</ele>
        <time>2021-08-10T10:31:47.786Z</time>
      </trkpt>
      <trkpt lat="46.93944" lon="8.57712">
        <ele>617</ele>
        <time>2021-08-10T10:31:48.786Z</time>
      </trkpt>
      <trkpt lat="46.93944" lon="8.57711">
        <ele>617</ele>
        <time>2021-08-10T10:31:49.787Z</time>
      </trkpt>
      <trkpt lat="46.93944" lon="8.57711">
        <ele>617</ele>
        <time>2021-08-10T10:31:50.787Z</time>
      </trkpt>
      <trkpt lat="46.93943" lon="8.57711">
        <ele>617</ele>
        <time>2021-08-10T10:31:51.787Z</time>
      </trkpt>
      <trkpt lat="46.93943" lon="8.57711">
        <ele>619</ele>
        <time>2021-08-10T10:31:52.788Z</time>
      </trkpt>
      <trkpt lat="46.93942" lon="8.57712">
        <ele>620</ele>
        <time>2021-08-10T10:31:53.789Z</time>
      </trkpt>
      <trkpt lat="46.93942" lon="8.57712">
        <ele>621</ele>
        <time>2021-08-10T10:31:54.789Z</time>
      </trkpt>
      <trkpt lat="46.93941" lon="8.57711">
        <ele>622</ele>
        <time>2021-08-10T10:31:55.789Z</time>
      </trkpt>
      <trkpt lat="46.9394" lon="8.57711">
        <ele>623</ele>
        <time>2021-08-10T10:31:56.788Z</time>
      </trkpt>
      <trkpt lat="46.93939" lon="8.5771">
        <ele>623</ele>
        <time>2021-08-10T10:31:57.789Z</time>
      </trkpt>
      <trkpt lat="46.93938" lon="8.57709">
        <ele>623</ele>
        <time>2021-08-10T10:31:58.789Z</time>
      </trkpt>
      <trkpt lat="46.93937" lon="8.57709">
        <ele>622</ele>
        <time>2021-08-10T10:31:59.789Z</time>
      </trkpt>
      <trkpt lat="46.93936" lon="8.57708">
        <ele>622</ele>
        <time>2021-08-10T10:32:00.789Z</time>
      </trkpt>
      <trkpt lat="46.93935" lon="8.57708">
        <ele>622</ele>
        <time>2021-08-10T10:32:01.788Z</time>
      </trkpt>
      <trkpt lat="46.93933" lon="8.57709">
        <ele>622</ele>
        <time>2021-08-10T10:32:02.788Z</time>
      </trkpt>
      <trkpt lat="46.93931" lon="8.57709">
        <ele>622</ele>
        <time>2021-08-10T10:32:03.789Z</time>
      </trkpt>
      <trkpt lat="46.9393" lon="8.57709">
        <ele>622</ele>
        <time>2021-08-10T10:32:04.789Z</time>
      </trkpt>
      <trkpt lat="46.93929" lon="8.57708">
        <ele>621</ele>
        <time>2021-08-10T10:32:05.788Z</time>
      </trkpt>
      <trkpt lat="46.93928" lon="8.57709">
        <ele>621</ele>
        <time>2021-08-10T10:32:06.789Z</time>
      </trkpt>
      <trkpt lat="46.93926" lon="8.57709">
        <ele>621</ele>
        <time>2021-08-10T10:32:07.788Z</time>
      </trkpt>
      <trkpt lat="46.93925" lon="8.57709">
        <ele>621</ele>
        <time>2021-08-10T10:32:08.788Z</time>
      </trkpt>
      <trkpt lat="46.93924" lon="8.5771">
        <ele>621</ele>
        <time>2021-08-10T10:32:09.788Z</time>
      </trkpt>
      <trkpt lat="46.93923" lon="8.5771">
        <ele>621</ele>
        <time>2021-08-10T10:32:10.788Z</time>
      </trkpt>
      <trkpt lat="46.93923" lon="8.5771">
        <ele>622</ele>
        <time>2021-08-10T10:32:11.788Z</time>
      </trkpt>
      <trkpt lat="46.93923" lon="8.5771">
        <ele>622</ele>
        <time>2021-08-10T10:32:12.788Z</time>
      </trkpt>
      <trkpt lat="46.93922" lon="8.57711">
        <ele>622</ele>
        <time>2021-08-10T10:32:13.788Z</time>
      </trkpt>
      <trkpt lat="46.93921" lon="8.57712">
        <ele>622</ele>
        <time>2021-08-10T10:32:14.789Z</time>
      </trkpt>
      <trkpt lat="46.9392" lon="8.57713">
        <ele>621</ele>
        <time>2021-08-10T10:32:15.789Z</time>
      </trkpt>
      <trkpt lat="46.9392" lon="8.57713">
        <ele>621</ele>
        <time>2021-08-10T10:32:16.789Z</time>
      </trkpt>
      <trkpt lat="46.93919" lon="8.57714">
        <ele>620</ele>
        <time>2021-08-10T10:32:17.789Z</time>
      </trkpt>
      <trkpt lat="46.93917" lon="8.57714">
        <ele>620</ele>
        <time>2021-08-10T10:32:18.789Z</time>
      </trkpt>
      <trkpt lat="46.93916" lon="8.57713">
        <ele>620</ele>
        <time>2021-08-10T10:32:19.789Z</time>
      </trkpt>
      <trkpt lat="46.93916" lon="8.57713">
        <ele>620</ele>
        <time>2021-08-10T10:32:20.789Z</time>
      </trkpt>
      <trkpt lat="46.93915" lon="8.57713">
        <ele>620</ele>
        <time>2021-08-10T10:32:21.788Z</time>
      </trkpt>
      <trkpt lat="46.93914" lon="8.57713">
        <ele>620</ele>
        <time>2021-08-10T10:32:22.789Z</time>
      </trkpt>
      <trkpt lat="46.93914" lon="8.57712">
        <ele>620</ele>
        <time>2021-08-10T10:32:23.788Z</time>
      </trkpt>
      <trkpt lat="46.93913" lon="8.57712">
        <ele>621</ele>
        <time>2021-08-10T10:32:24.789Z</time>
      </trkpt>
      <trkpt lat="46.93913" lon="8.5771">
        <ele>621</ele>
        <time>2021-08-10T10:32:25.788Z</time>
      </trkpt>
      <trkpt lat="46.93913" lon="8.57709">
        <ele>621</ele>
        <time>2021-08-10T10:32:26.788Z</time>
      </trkpt>
      <trkpt lat="46.93913" lon="8.57707">
        <ele>621</ele>
        <time>2021-08-10T10:32:27.789Z</time>
      </trkpt>
      <trkpt lat="46.93913" lon="8.57706">
        <ele>621</ele>
        <time>2021-08-10T10:32:28.789Z</time>
      </trkpt>
      <trkpt lat="46.93913" lon="8.57706">
        <ele>621</ele>
        <time>2021-08-10T10:32:29.789Z</time>
      </trkpt>
      <trkpt lat="46.93912" lon="8.57706">
        <ele>621</ele>
        <time>2021-08-10T10:32:30.789Z</time>
      </trkpt>
      <trkpt lat="46.93912" lon="8.57706">
        <ele>621</ele>
        <time>2021-08-10T10:32:31.789Z</time>
      </trkpt>
      <trkpt lat="46.93912" lon="8.57706">
        <ele>621</ele>
        <time>2021-08-10T10:32:32.789Z</time>
      </trkpt>
      <trkpt lat="46.93911" lon="8.57706">
        <ele>622</ele>
        <time>2021-08-10T10:32:33.789Z</time>
      </trkpt>
      <trkpt lat="46.9391" lon="8.57705">
        <ele>622</ele>
        <time>2021-08-10T10:32:34.789Z</time>
      </trkpt>
      <trkpt lat="46.9391" lon="8.57705">
        <ele>622</ele>
        <time>2021-08-10T10:32:35.790Z</time>
      </trkpt>
      <trkpt lat="46.93909" lon="8.57704">
        <ele>622</ele>
        <time>2021-08-10T10:32:36.790Z</time>
      </trkpt>
      <trkpt lat="46.93909" lon="8.57703">
        <ele>622</ele>
        <time>2021-08-10T10:32:37.789Z</time>
      </trkpt>
      <trkpt lat="46.93909" lon="8.57703">
        <ele>622</ele>
        <time>2021-08-10T10:32:38.790Z</time>
      </trkpt>
      <trkpt lat="46.93908" lon="8.57702">
        <ele>622</ele>
        <time>2021-08-10T10:32:39.790Z</time>
      </trkpt>
      <trkpt lat="46.93907" lon="8.57701">
        <ele>622</ele>
        <time>2021-08-10T10:32:40.790Z</time>
      </trkpt>
      <trkpt lat="46.93907" lon="8.57701">
        <ele>623</ele>
        <time>2021-08-10T10:32:41.789Z</time>
      </trkpt>
      <trkpt lat="46.93907" lon="8.57699">
        <ele>623</ele>
        <time>2021-08-10T10:32:42.790Z</time>
      </trkpt>
      <trkpt lat="46.93907" lon="8.57698">
        <ele>622</ele>
        <time>2021-08-10T10:32:43.789Z</time>
      </trkpt>
      <trkpt lat="46.93907" lon="8.57697">
        <ele>622</ele>
        <time>2021-08-10T10:32:44.790Z</time>
      </trkpt>
      <trkpt lat="46.93906" lon="8.57697">
        <ele>621</ele>
        <time>2021-08-10T10:32:45.790Z</time>
      </trkpt>
      <trkpt lat="46.93906" lon="8.57696">
        <ele>621</ele>
        <time>2021-08-10T10:32:46.790Z</time>
      </trkpt>
      <trkpt lat="46.93906" lon="8.57696">
        <ele>621</ele>
        <time>2021-08-10T10:32:47.790Z</time>
      </trkpt>
      <trkpt lat="46.93906" lon="8.57695">
        <ele>620</ele>
        <time>2021-08-10T10:32:48.790Z</time>
      </trkpt>
      <trkpt lat="46.93906" lon="8.57694">
        <ele>620</ele>
        <time>2021-08-10T10:32:49.790Z</time>
      </trkpt>
      <trkpt lat="46.93905" lon="8.57691">
        <ele>618</ele>
        <time>2021-08-10T10:32:50.791Z</time>
      </trkpt>
      <trkpt lat="46.93905" lon="8.57691">
        <ele>617</ele>
        <time>2021-08-10T10:32:51.790Z</time>
      </trkpt>
      <trkpt lat="46.93905" lon="8.57689">
        <ele>616</ele>
        <time>2021-08-10T10:32:52.791Z</time>
      </trkpt>
      <trkpt lat="46.93904" lon="8.57688">
        <ele>616</ele>
        <time>2021-08-10T10:32:53.790Z</time>
      </trkpt>
      <trkpt lat="46.93905" lon="8.57685">
        <ele>615</ele>
        <time>2021-08-10T10:32:54.791Z</time>
      </trkpt>
      <trkpt lat="46.93906" lon="8.57684">
        <ele>615</ele>
        <time>2021-08-10T10:32:55.790Z</time>
      </trkpt>
      <trkpt lat="46.93907" lon="8.57684">
        <ele>614</ele>
        <time>2021-08-10T10:32:56.791Z</time>
      </trkpt>
      <trkpt lat="46.93907" lon="8.57684">
        <ele>614</ele>
        <time>2021-08-10T10:32:57.790Z</time>
      </trkpt>
      <trkpt lat="46.93906" lon="8.57683">
        <ele>613</ele>
        <time>2021-08-10T10:32:58.791Z</time>
      </trkpt>
      <trkpt lat="46.93906" lon="8.57683">
        <ele>613</ele>
        <time>2021-08-10T10:32:59.790Z</time>
      </trkpt>
      <trkpt lat="46.93905" lon="8.57682">
        <ele>612</ele>
        <time>2021-08-10T10:33:00.791Z</time>
      </trkpt>
      <trkpt lat="46.93905" lon="8.57682">
        <ele>612</ele>
        <time>2021-08-10T10:33:01.791Z</time>
      </trkpt>
      <trkpt lat="46.93905" lon="8.57682">
        <ele>612</ele>
        <time>2021-08-10T10:33:02.791Z</time>
      </trkpt>
      <trkpt lat="46.93905" lon="8.57681">
        <ele>612</ele>
        <time>2021-08-10T10:33:03.790Z</time>
      </trkpt>
      <trkpt lat="46.93905" lon="8.57681">
        <ele>611</ele>
        <time>2021-08-10T10:33:04.791Z</time>
      </trkpt>
      <trkpt lat="46.93905" lon="8.57681">
        <ele>611</ele>
        <time>2021-08-10T10:33:05.791Z</time>
      </trkpt>
      <trkpt lat="46.93905" lon="8.5768">
        <ele>611</ele>
        <time>2021-08-10T10:33:06.791Z</time>
      </trkpt>
      <trkpt lat="46.93904" lon="8.57681">
        <ele>610</ele>
        <time>2021-08-10T10:33:07.791Z</time>
      </trkpt>
      <trkpt lat="46.93904" lon="8.57681">
        <ele>610</ele>
        <time>2021-08-10T10:33:08.790Z</time>
      </trkpt>
      <trkpt lat="46.93904" lon="8.57681">
        <ele>610</ele>
        <time>2021-08-10T10:33:09.791Z</time>
      </trkpt>
      <trkpt lat="46.93903" lon="8.5768">
        <ele>609</ele>
        <time>2021-08-10T10:33:10.792Z</time>
      </trkpt>
      <trkpt lat="46.93902" lon="8.57679">
        <ele>609</ele>
        <time>2021-08-10T10:33:11.792Z</time>
      </trkpt>
      <trkpt lat="46.93902" lon="8.57679">
        <ele>609</ele>
        <time>2021-08-10T10:33:12.791Z</time>
      </trkpt>
      <trkpt lat="46.93901" lon="8.57679">
        <ele>608</ele>
        <time>2021-08-10T10:33:13.792Z</time>
      </trkpt>
      <trkpt lat="46.93901" lon="8.57678">
        <ele>608</ele>
        <time>2021-08-10T10:33:14.792Z</time>
      </trkpt>
      <trkpt lat="46.939" lon="8.57678">
        <ele>608</ele>
        <time>2021-08-10T10:33:15.792Z</time>
      </trkpt>
      <trkpt lat="46.93899" lon="8.57678">
        <ele>608</ele>
        <time>2021-08-10T10:33:16.792Z</time>
      </trkpt>
      <trkpt lat="46.93899" lon="8.57678">
        <ele>608</ele>
        <time>2021-08-10T10:33:17.792Z</time>
      </trkpt>
      <trkpt lat="46.93898" lon="8.57677">
        <ele>608</ele>
        <time>2021-08-10T10:33:18.792Z</time>
      </trkpt>
      <trkpt lat="46.93897" lon="8.57677">
        <ele>608</ele>
        <time>2021-08-10T10:33:19.792Z</time>
      </trkpt>
      <trkpt lat="46.93896" lon="8.57676">
        <ele>608</ele>
        <time>2021-08-10T10:33:20.792Z</time>
      </trkpt>
      <trkpt lat="46.93894" lon="8.57675">
        <ele>607</ele>
        <time>2021-08-10T10:33:21.792Z</time>
      </trkpt>
      <trkpt lat="46.93892" lon="8.57674">
        <ele>607</ele>
        <time>2021-08-10T10:33:22.792Z</time>
      </trkpt>
      <trkpt lat="46.9389" lon="8.57673">
        <ele>607</ele>
        <time>2021-08-10T10:33:23.792Z</time>
      </trkpt>
      <trkpt lat="46.9389" lon="8.57674">
        <ele>608</ele>
        <time>2021-08-10T10:33:24.791Z</time>
      </trkpt>
      <trkpt lat="46.93889" lon="8.57676">
        <ele>607</ele>
        <time>2021-08-10T10:33:25.792Z</time>
      </trkpt>
      <trkpt lat="46.93889" lon="8.57676">
        <ele>607</ele>
        <time>2021-08-10T10:33:26.791Z</time>
      </trkpt>
      <trkpt lat="46.93889" lon="8.57676">
        <ele>607</ele>
        <time>2021-08-10T10:33:27.791Z</time>
      </trkpt>
      <trkpt lat="46.93888" lon="8.57676">
        <ele>606</ele>
        <time>2021-08-10T10:33:28.791Z</time>
      </trkpt>
      <trkpt lat="46.93888" lon="8.57676">
        <ele>605</ele>
        <time>2021-08-10T10:33:29.792Z</time>
      </trkpt>
      <trkpt lat="46.93888" lon="8.57678">
        <ele>604</ele>
        <time>2021-08-10T10:33:30.792Z</time>
      </trkpt>
      <trkpt lat="46.93889" lon="8.57679">
        <ele>604</ele>
        <time>2021-08-10T10:33:31.792Z</time>
      </trkpt>
      <trkpt lat="46.93889" lon="8.5768">
        <ele>603</ele>
        <time>2021-08-10T10:33:32.792Z</time>
      </trkpt>
      <trkpt lat="46.93889" lon="8.57682">
        <ele>602</ele>
        <time>2021-08-10T10:33:33.792Z</time>
      </trkpt>
      <trkpt lat="46.93889" lon="8.57684">
        <ele>602</ele>
        <time>2021-08-10T10:33:34.791Z</time>
      </trkpt>
      <trkpt lat="46.93888" lon="8.57685">
        <ele>601</ele>
        <time>2021-08-10T10:33:35.792Z</time>
      </trkpt>
      <trkpt lat="46.93887" lon="8.57685">
        <ele>601</ele>
        <time>2021-08-10T10:33:36.792Z</time>
      </trkpt>
      <trkpt lat="46.93886" lon="8.57685">
        <ele>601</ele>
        <time>2021-08-10T10:33:37.792Z</time>
      </trkpt>
      <trkpt lat="46.93886" lon="8.57685">
        <ele>600</ele>
        <time>2021-08-10T10:33:38.792Z</time>
      </trkpt>
      <trkpt lat="46.93886" lon="8.57685">
        <ele>600</ele>
        <time>2021-08-10T10:33:39.792Z</time>
      </trkpt>
      <trkpt lat="46.93886" lon="8.57684">
        <ele>600</ele>
        <time>2021-08-10T10:33:40.791Z</time>
      </trkpt>
      <trkpt lat="46.93885" lon="8.57684">
        <ele>600</ele>
        <time>2021-08-10T10:33:41.791Z</time>
      </trkpt>
      <trkpt lat="46.93884" lon="8.57684">
        <ele>601</ele>
        <time>2021-08-10T10:33:42.792Z</time>
      </trkpt>
      <trkpt lat="46.93884" lon="8.57683">
        <ele>601</ele>
        <time>2021-08-10T10:33:43.791Z</time>
      </trkpt>
      <trkpt lat="46.93883" lon="8.57683">
        <ele>602</ele>
        <time>2021-08-10T10:33:44.792Z</time>
      </trkpt>
      <trkpt lat="46.93882" lon="8.57682">
        <ele>602</ele>
        <time>2021-08-10T10:33:45.791Z</time>
      </trkpt>
      <trkpt lat="46.93882" lon="8.57681">
        <ele>603</ele>
        <time>2021-08-10T10:33:46.791Z</time>
      </trkpt>
      <trkpt lat="46.93881" lon="8.57681">
        <ele>603</ele>
        <time>2021-08-10T10:33:47.791Z</time>
      </trkpt>
      <trkpt lat="46.9388" lon="8.57679">
        <ele>603</ele>
        <time>2021-08-10T10:33:48.791Z</time>
      </trkpt>
      <trkpt lat="46.9388" lon="8.57678">
        <ele>603</ele>
        <time>2021-08-10T10:33:49.791Z</time>
      </trkpt>
      <trkpt lat="46.93879" lon="8.57678">
        <ele>603</ele>
        <time>2021-08-10T10:33:50.791Z</time>
      </trkpt>
      <trkpt lat="46.93878" lon="8.57677">
        <ele>603</ele>
        <time>2021-08-10T10:33:51.791Z</time>
      </trkpt>
      <trkpt lat="46.93877" lon="8.57677">
        <ele>603</ele>
        <time>2021-08-10T10:33:52.791Z</time>
      </trkpt>
      <trkpt lat="46.93876" lon="8.57677">
        <ele>603</ele>
        <time>2021-08-10T10:33:53.791Z</time>
      </trkpt>
      <trkpt lat="46.93875" lon="8.57676">
        <ele>603</ele>
        <time>2021-08-10T10:33:54.791Z</time>
      </trkpt>
      <trkpt lat="46.93875" lon="8.57675">
        <ele>603</ele>
        <time>2021-08-10T10:33:55.791Z</time>
      </trkpt>
      <trkpt lat="46.93875" lon="8.57674">
        <ele>604</ele>
        <time>2021-08-10T10:33:56.792Z</time>
      </trkpt>
      <trkpt lat="46.93874" lon="8.57673">
        <ele>604</ele>
        <time>2021-08-10T10:33:57.792Z</time>
      </trkpt>
      <trkpt lat="46.93873" lon="8.57673">
        <ele>604</ele>
        <time>2021-08-10T10:33:58.792Z</time>
      </trkpt>
      <trkpt lat="46.93873" lon="8.57672">
        <ele>604</ele>
        <time>2021-08-10T10:33:59.791Z</time>
      </trkpt>
      <trkpt lat="46.93872" lon="8.57671">
        <ele>604</ele>
        <time>2021-08-10T10:34:00.791Z</time>
      </trkpt>
      <trkpt lat="46.93871" lon="8.57671">
        <ele>604</ele>
        <time>2021-08-10T10:34:01.792Z</time>
      </trkpt>
      <trkpt lat="46.9387" lon="8.57671">
        <ele>604</ele>
        <time>2021-08-10T10:34:02.791Z</time>
      </trkpt>
      <trkpt lat="46.9387" lon="8.57671">
        <ele>603</ele>
        <time>2021-08-10T10:34:03.791Z</time>
      </trkpt>
      <trkpt lat="46.93869" lon="8.57671">
        <ele>603</ele>
        <time>2021-08-10T10:34:04.791Z</time>
      </trkpt>
      <trkpt lat="46.93867" lon="8.5767">
        <ele>602</ele>
        <time>2021-08-10T10:34:05.791Z</time>
      </trkpt>
      <trkpt lat="46.93866" lon="8.5767">
        <ele>602</ele>
        <time>2021-08-10T10:34:06.791Z</time>
      </trkpt>
      <trkpt lat="46.93864" lon="8.5767">
        <ele>601</ele>
        <time>2021-08-10T10:34:07.792Z</time>
      </trkpt>
      <trkpt lat="46.93862" lon="8.5767">
        <ele>601</ele>
        <time>2021-08-10T10:34:08.791Z</time>
      </trkpt>
      <trkpt lat="46.93861" lon="8.57671">
        <ele>600</ele>
        <time>2021-08-10T10:34:09.791Z</time>
      </trkpt>
      <trkpt lat="46.9386" lon="8.57671">
        <ele>600</ele>
        <time>2021-08-10T10:34:10.791Z</time>
      </trkpt>
      <trkpt lat="46.9386" lon="8.5767">
        <ele>599</ele>
        <time>2021-08-10T10:34:11.791Z</time>
      </trkpt>
      <trkpt lat="46.9386" lon="8.5767">
        <ele>599</ele>
        <time>2021-08-10T10:34:12.792Z</time>
      </trkpt>
      <trkpt lat="46.9386" lon="8.57668">
        <ele>598</ele>
        <time>2021-08-10T10:34:13.792Z</time>
      </trkpt>
      <trkpt lat="46.93858" lon="8.57667">
        <ele>597</ele>
        <time>2021-08-10T10:34:14.791Z</time>
      </trkpt>
      <trkpt lat="46.93858" lon="8.57667">
        <ele>597</ele>
        <time>2021-08-10T10:34:15.792Z</time>
      </trkpt>
      <trkpt lat="46.93857" lon="8.57666">
        <ele>597</ele>
        <time>2021-08-10T10:34:16.791Z</time>
      </trkpt>
      <trkpt lat="46.93857" lon="8.57666">
        <ele>596</ele>
        <time>2021-08-10T10:34:17.791Z</time>
      </trkpt>
      <trkpt lat="46.93856" lon="8.57665">
        <ele>596</ele>
        <time>2021-08-10T10:34:18.791Z</time>
      </trkpt>
      <trkpt lat="46.93856" lon="8.57665">
        <ele>595</ele>
        <time>2021-08-10T10:34:19.792Z</time>
      </trkpt>
      <trkpt lat="46.93855" lon="8.57664">
        <ele>595</ele>
        <time>2021-08-10T10:34:20.791Z</time>
      </trkpt>
      <trkpt lat="46.93854" lon="8.57664">
        <ele>595</ele>
        <time>2021-08-10T10:34:21.791Z</time>
      </trkpt>
      <trkpt lat="46.93854" lon="8.57663">
        <ele>595</ele>
        <time>2021-08-10T10:34:22.791Z</time>
      </trkpt>
      <trkpt lat="46.93854" lon="8.57663">
        <ele>595</ele>
        <time>2021-08-10T10:34:23.792Z</time>
      </trkpt>
      <trkpt lat="46.93854" lon="8.57663">
        <ele>595</ele>
        <time>2021-08-10T10:34:24.792Z</time>
      </trkpt>
      <trkpt lat="46.93854" lon="8.57662">
        <ele>595</ele>
        <time>2021-08-10T10:34:25.791Z</time>
      </trkpt>
      <trkpt lat="46.93853" lon="8.57663">
        <ele>592</ele>
        <time>2021-08-10T10:34:26.792Z</time>
      </trkpt>
      <trkpt lat="46.93852" lon="8.57662">
        <ele>591</ele>
        <time>2021-08-10T10:34:27.791Z</time>
      </trkpt>
      <trkpt lat="46.93851" lon="8.57661">
        <ele>591</ele>
        <time>2021-08-10T10:34:28.791Z</time>
      </trkpt>
      <trkpt lat="46.93851" lon="8.5766">
        <ele>591</ele>
        <time>2021-08-10T10:34:29.792Z</time>
      </trkpt>
      <trkpt lat="46.9385" lon="8.57659">
        <ele>591</ele>
        <time>2021-08-10T10:34:30.792Z</time>
      </trkpt>
      <trkpt lat="46.93849" lon="8.57657">
        <ele>591</ele>
        <time>2021-08-10T10:34:31.791Z</time>
      </trkpt>
      <trkpt lat="46.93848" lon="8.57656">
        <ele>591</ele>
        <time>2021-08-10T10:34:32.791Z</time>
      </trkpt>
      <trkpt lat="46.93848" lon="8.57654">
        <ele>591</ele>
        <time>2021-08-10T10:34:33.791Z</time>
      </trkpt>
      <trkpt lat="46.93849" lon="8.57653">
        <ele>591</ele>
        <time>2021-08-10T10:34:34.791Z</time>
      </trkpt>
      <trkpt lat="46.93849" lon="8.57651">
        <ele>591</ele>
        <time>2021-08-10T10:34:35.791Z</time>
      </trkpt>
      <trkpt lat="46.93848" lon="8.5765">
        <ele>591</ele>
        <time>2021-08-10T10:34:36.791Z</time>
      </trkpt>
      <trkpt lat="46.93848" lon="8.57649">
        <ele>591</ele>
        <time>2021-08-10T10:34:37.791Z</time>
      </trkpt>
      <trkpt lat="46.93847" lon="8.57648">
        <ele>591</ele>
        <time>2021-08-10T10:34:38.791Z</time>
      </trkpt>
      <trkpt lat="46.93847" lon="8.57646">
        <ele>591</ele>
        <time>2021-08-10T10:34:39.792Z</time>
      </trkpt>
      <trkpt lat="46.93846" lon="8.57645">
        <ele>591</ele>
        <time>2021-08-10T10:34:40.791Z</time>
      </trkpt>
      <trkpt lat="46.93845" lon="8.57643">
        <ele>591</ele>
        <time>2021-08-10T10:34:41.791Z</time>
      </trkpt>
      <trkpt lat="46.93844" lon="8.57642">
        <ele>591</ele>
        <time>2021-08-10T10:34:42.791Z</time>
      </trkpt>
      <trkpt lat="46.93843" lon="8.57641">
        <ele>591</ele>
        <time>2021-08-10T10:34:43.792Z</time>
      </trkpt>
      <trkpt lat="46.93842" lon="8.5764">
        <ele>592</ele>
        <time>2021-08-10T10:34:44.791Z</time>
      </trkpt>
      <trkpt lat="46.93841" lon="8.57639">
        <ele>592</ele>
        <time>2021-08-10T10:34:45.792Z</time>
      </trkpt>
      <trkpt lat="46.93841" lon="8.57638">
        <ele>591</ele>
        <time>2021-08-10T10:34:46.792Z</time>
      </trkpt>
      <trkpt lat="46.9384" lon="8.57637">
        <ele>591</ele>
        <time>2021-08-10T10:34:47.792Z</time>
      </trkpt>
      <trkpt lat="46.93839" lon="8.57636">
        <ele>591</ele>
        <time>2021-08-10T10:34:48.792Z</time>
      </trkpt>
      <trkpt lat="46.93839" lon="8.57636">
        <ele>590</ele>
        <time>2021-08-10T10:34:49.791Z</time>
      </trkpt>
      <trkpt lat="46.93839" lon="8.57636">
        <ele>590</ele>
        <time>2021-08-10T10:34:50.792Z</time>
      </trkpt>
      <trkpt lat="46.93838" lon="8.57637">
        <ele>589</ele>
        <time>2021-08-10T10:34:51.791Z</time>
      </trkpt>
      <trkpt lat="46.93834" lon="8.57635">
        <ele>592</ele>
        <time>2021-08-10T10:34:52.791Z</time>
      </trkpt>
      <trkpt lat="46.93834" lon="8.57634">
        <ele>592</ele>
        <time>2021-08-10T10:34:53.791Z</time>
      </trkpt>
      <trkpt lat="46.93834" lon="8.57632">
        <ele>591</ele>
        <time>2021-08-10T10:34:54.791Z</time>
      </trkpt>
      <trkpt lat="46.93834" lon="8.57631">
        <ele>591</ele>
        <time>2021-08-10T10:34:55.791Z</time>
      </trkpt>
      <trkpt lat="46.93833" lon="8.5763">
        <ele>590</ele>
        <time>2021-08-10T10:34:56.791Z</time>
      </trkpt>
      <trkpt lat="46.93833" lon="8.57629">
        <ele>590</ele>
        <time>2021-08-10T10:34:57.792Z</time>
      </trkpt>
      <trkpt lat="46.93832" lon="8.57628">
        <ele>589</ele>
        <time>2021-08-10T10:34:58.791Z</time>
      </trkpt>
      <trkpt lat="46.93832" lon="8.57627">
        <ele>589</ele>
        <time>2021-08-10T10:34:59.791Z</time>
      </trkpt>
      <trkpt lat="46.93832" lon="8.57626">
        <ele>589</ele>
        <time>2021-08-10T10:35:00.791Z</time>
      </trkpt>
      <trkpt lat="46.93832" lon="8.57625">
        <ele>589</ele>
        <time>2021-08-10T10:35:01.792Z</time>
      </trkpt>
      <trkpt lat="46.93831" lon="8.57624">
        <ele>589</ele>
        <time>2021-08-10T10:35:02.791Z</time>
      </trkpt>
      <trkpt lat="46.9383" lon="8.57623">
        <ele>589</ele>
        <time>2021-08-10T10:35:03.792Z</time>
      </trkpt>
      <trkpt lat="46.9383" lon="8.57623">
        <ele>588</ele>
        <time>2021-08-10T10:35:04.792Z</time>
      </trkpt>
      <trkpt lat="46.9383" lon="8.57621">
        <ele>588</ele>
        <time>2021-08-10T10:35:05.791Z</time>
      </trkpt>
      <trkpt lat="46.93829" lon="8.57619">
        <ele>588</ele>
        <time>2021-08-10T10:35:06.791Z</time>
      </trkpt>
      <trkpt lat="46.93828" lon="8.57618">
        <ele>587</ele>
        <time>2021-08-10T10:35:07.791Z</time>
      </trkpt>
      <trkpt lat="46.93828" lon="8.57618">
        <ele>587</ele>
        <time>2021-08-10T10:35:08.792Z</time>
      </trkpt>
      <trkpt lat="46.93827" lon="8.57617">
        <ele>587</ele>
        <time>2021-08-10T10:35:09.792Z</time>
      </trkpt>
      <trkpt lat="46.93826" lon="8.57616">
        <ele>587</ele>
        <time>2021-08-10T10:35:10.791Z</time>
      </trkpt>
      <trkpt lat="46.93825" lon="8.57615">
        <ele>588</ele>
        <time>2021-08-10T10:35:11.791Z</time>
      </trkpt>
      <trkpt lat="46.93824" lon="8.57614">
        <ele>588</ele>
        <time>2021-08-10T10:35:12.792Z</time>
      </trkpt>
      <trkpt lat="46.93823" lon="8.57613">
        <ele>588</ele>
        <time>2021-08-10T10:35:13.791Z</time>
      </trkpt>
      <trkpt lat="46.93823" lon="8.57611">
        <ele>588</ele>
        <time>2021-08-10T10:35:14.791Z</time>
      </trkpt>
      <trkpt lat="46.93822" lon="8.5761">
        <ele>588</ele>
        <time>2021-08-10T10:35:15.791Z</time>
      </trkpt>
      <trkpt lat="46.93821" lon="8.57609">
        <ele>588</ele>
        <time>2021-08-10T10:35:16.791Z</time>
      </trkpt>
      <trkpt lat="46.93821" lon="8.57607">
        <ele>588</ele>
        <time>2021-08-10T10:35:17.791Z</time>
      </trkpt>
      <trkpt lat="46.9382" lon="8.57606">
        <ele>588</ele>
        <time>2021-08-10T10:35:18.791Z</time>
      </trkpt>
      <trkpt lat="46.9382" lon="8.57603">
        <ele>588</ele>
        <time>2021-08-10T10:35:19.792Z</time>
      </trkpt>
      <trkpt lat="46.93819" lon="8.57602">
        <ele>588</ele>
        <time>2021-08-10T10:35:20.791Z</time>
      </trkpt>
      <trkpt lat="46.93818" lon="8.576">
        <ele>588</ele>
        <time>2021-08-10T10:35:21.791Z</time>
      </trkpt>
      <trkpt lat="46.93817" lon="8.57599">
        <ele>588</ele>
        <time>2021-08-10T10:35:22.791Z</time>
      </trkpt>
      <trkpt lat="46.93817" lon="8.57598">
        <ele>589</ele>
        <time>2021-08-10T10:35:23.791Z</time>
      </trkpt>
      <trkpt lat="46.93816" lon="8.57597">
        <ele>589</ele>
        <time>2021-08-10T10:35:24.792Z</time>
      </trkpt>
      <trkpt lat="46.93816" lon="8.57596">
        <ele>590</ele>
        <time>2021-08-10T10:35:25.791Z</time>
      </trkpt>
      <trkpt lat="46.93816" lon="8.57594">
        <ele>590</ele>
        <time>2021-08-10T10:35:26.792Z</time>
      </trkpt>
      <trkpt lat="46.93816" lon="8.57593">
        <ele>590</ele>
        <time>2021-08-10T10:35:27.791Z</time>
      </trkpt>
      <trkpt lat="46.93816" lon="8.57591">
        <ele>590</ele>
        <time>2021-08-10T10:35:28.791Z</time>
      </trkpt>
      <trkpt lat="46.93816" lon="8.57589">
        <ele>590</ele>
        <time>2021-08-10T10:35:29.792Z</time>
      </trkpt>
      <trkpt lat="46.93816" lon="8.57588">
        <ele>591</ele>
        <time>2021-08-10T10:35:30.792Z</time>
      </trkpt>
      <trkpt lat="46.93816" lon="8.57586">
        <ele>592</ele>
        <time>2021-08-10T10:35:31.792Z</time>
      </trkpt>
      <trkpt lat="46.93816" lon="8.57585">
        <ele>592</ele>
        <time>2021-08-10T10:35:32.792Z</time>
      </trkpt>
      <trkpt lat="46.93815" lon="8.57585">
        <ele>593</ele>
        <time>2021-08-10T10:35:33.792Z</time>
      </trkpt>
      <trkpt lat="46.93816" lon="8.57584">
        <ele>594</ele>
        <time>2021-08-10T10:35:34.792Z</time>
      </trkpt>
      <trkpt lat="46.93816" lon="8.57582">
        <ele>594</ele>
        <time>2021-08-10T10:35:35.792Z</time>
      </trkpt>
      <trkpt lat="46.93815" lon="8.5758">
        <ele>595</ele>
        <time>2021-08-10T10:35:36.791Z</time>
      </trkpt>
      <trkpt lat="46.93815" lon="8.57578">
        <ele>596</ele>
        <time>2021-08-10T10:35:37.792Z</time>
      </trkpt>
      <trkpt lat="46.93814" lon="8.57577">
        <ele>596</ele>
        <time>2021-08-10T10:35:38.792Z</time>
      </trkpt>
      <trkpt lat="46.93814" lon="8.57575">
        <ele>597</ele>
        <time>2021-08-10T10:35:39.792Z</time>
      </trkpt>
      <trkpt lat="46.93813" lon="8.57575">
        <ele>598</ele>
        <time>2021-08-10T10:35:40.791Z</time>
      </trkpt>
      <trkpt lat="46.93813" lon="8.57574">
        <ele>598</ele>
        <time>2021-08-10T10:35:41.791Z</time>
      </trkpt>
      <trkpt lat="46.93813" lon="8.57574">
        <ele>599</ele>
        <time>2021-08-10T10:35:42.791Z</time>
      </trkpt>
      <trkpt lat="46.93812" lon="8.57573">
        <ele>599</ele>
        <time>2021-08-10T10:35:43.791Z</time>
      </trkpt>
      <trkpt lat="46.93811" lon="8.57574">
        <ele>599</ele>
        <time>2021-08-10T10:35:44.791Z</time>
      </trkpt>
      <trkpt lat="46.9381" lon="8.57573">
        <ele>599</ele>
        <time>2021-08-10T10:35:45.792Z</time>
      </trkpt>
      <trkpt lat="46.93809" lon="8.57573">
        <ele>599</ele>
        <time>2021-08-10T10:35:46.791Z</time>
      </trkpt>
      <trkpt lat="46.93807" lon="8.57574">
        <ele>599</ele>
        <time>2021-08-10T10:35:47.792Z</time>
      </trkpt>
      <trkpt lat="46.93806" lon="8.57574">
        <ele>599</ele>
        <time>2021-08-10T10:35:48.791Z</time>
      </trkpt>
      <trkpt lat="46.93805" lon="8.57573">
        <ele>599</ele>
        <time>2021-08-10T10:35:49.791Z</time>
      </trkpt>
      <trkpt lat="46.93804" lon="8.57573">
        <ele>599</ele>
        <time>2021-08-10T10:35:50.791Z</time>
      </trkpt>
      <trkpt lat="46.93803" lon="8.57572">
        <ele>599</ele>
        <time>2021-08-10T10:35:51.792Z</time>
      </trkpt>
      <trkpt lat="46.93803" lon="8.57572">
        <ele>598</ele>
        <time>2021-08-10T10:35:52.791Z</time>
      </trkpt>
      <trkpt lat="46.93802" lon="8.57571">
        <ele>598</ele>
        <time>2021-08-10T10:35:53.791Z</time>
      </trkpt>
      <trkpt lat="46.93802" lon="8.5757">
        <ele>599</ele>
        <time>2021-08-10T10:35:54.791Z</time>
      </trkpt>
      <trkpt lat="46.93802" lon="8.57569">
        <ele>599</ele>
        <time>2021-08-10T10:35:55.791Z</time>
      </trkpt>
      <trkpt lat="46.93801" lon="8.57569">
        <ele>599</ele>
        <time>2021-08-10T10:35:56.791Z</time>
      </trkpt>
      <trkpt lat="46.93801" lon="8.57568">
        <ele>599</ele>
        <time>2021-08-10T10:35:57.792Z</time>
      </trkpt>
      <trkpt lat="46.93801" lon="8.57568">
        <ele>599</ele>
        <time>2021-08-10T10:35:58.792Z</time>
      </trkpt>
      <trkpt lat="46.938" lon="8.57567">
        <ele>601</ele>
        <time>2021-08-10T10:35:59.792Z</time>
      </trkpt>
      <trkpt lat="46.938" lon="8.57567">
        <ele>601</ele>
        <time>2021-08-10T10:36:00.792Z</time>
      </trkpt>
      <trkpt lat="46.938" lon="8.57566">
        <ele>602</ele>
        <time>2021-08-10T10:36:01.791Z</time>
      </trkpt>
      <trkpt lat="46.93799" lon="8.57566">
        <ele>602</ele>
        <time>2021-08-10T10:36:02.792Z</time>
      </trkpt>
      <trkpt lat="46.93799" lon="8.57565">
        <ele>603</ele>
        <time>2021-08-10T10:36:03.792Z</time>
      </trkpt>
      <trkpt lat="46.93798" lon="8.57565">
        <ele>603</ele>
        <time>2021-08-10T10:36:04.792Z</time>
      </trkpt>
      <trkpt lat="46.93797" lon="8.57565">
        <ele>602</ele>
        <time>2021-08-10T10:36:05.792Z</time>
      </trkpt>
      <trkpt lat="46.93797" lon="8.57566">
        <ele>602</ele>
        <time>2021-08-10T10:36:06.792Z</time>
      </trkpt>
      <trkpt lat="46.93797" lon="8.57565">
        <ele>602</ele>
        <time>2021-08-10T10:36:07.792Z</time>
      </trkpt>
      <trkpt lat="46.93796" lon="8.57564">
        <ele>602</ele>
        <time>2021-08-10T10:36:08.792Z</time>
      </trkpt>
      <trkpt lat="46.93796" lon="8.57563">
        <ele>602</ele>
        <time>2021-08-10T10:36:09.792Z</time>
      </trkpt>
      <trkpt lat="46.93795" lon="8.57562">
        <ele>601</ele>
        <time>2021-08-10T10:36:10.792Z</time>
      </trkpt>
      <trkpt lat="46.93795" lon="8.5756">
        <ele>601</ele>
        <time>2021-08-10T10:36:11.791Z</time>
      </trkpt>
      <trkpt lat="46.93796" lon="8.57558">
        <ele>601</ele>
        <time>2021-08-10T10:36:12.791Z</time>
      </trkpt>
      <trkpt lat="46.93796" lon="8.57557">
        <ele>601</ele>
        <time>2021-08-10T10:36:13.791Z</time>
      </trkpt>
      <trkpt lat="46.93795" lon="8.57557">
        <ele>600</ele>
        <time>2021-08-10T10:36:14.791Z</time>
      </trkpt>
      <trkpt lat="46.93795" lon="8.57557">
        <ele>600</ele>
        <time>2021-08-10T10:36:15.792Z</time>
      </trkpt>
      <trkpt lat="46.93795" lon="8.57556">
        <ele>599</ele>
        <time>2021-08-10T10:36:16.792Z</time>
      </trkpt>
      <trkpt lat="46.93795" lon="8.57554">
        <ele>599</ele>
        <time>2021-08-10T10:36:17.792Z</time>
      </trkpt>
      <trkpt lat="46.93795" lon="8.57554">
        <ele>599</ele>
        <time>2021-08-10T10:36:18.792Z</time>
      </trkpt>
      <trkpt lat="46.93794" lon="8.57553">
        <ele>599</ele>
        <time>2021-08-10T10:36:19.791Z</time>
      </trkpt>
      <trkpt lat="46.93793" lon="8.57552">
        <ele>599</ele>
        <time>2021-08-10T10:36:20.791Z</time>
      </trkpt>
      <trkpt lat="46.93792" lon="8.57551">
        <ele>599</ele>
        <time>2021-08-10T10:36:21.792Z</time>
      </trkpt>
      <trkpt lat="46.93791" lon="8.57551">
        <ele>599</ele>
        <time>2021-08-10T10:36:22.792Z</time>
      </trkpt>
      <trkpt lat="46.9379" lon="8.57551">
        <ele>600</ele>
        <time>2021-08-10T10:36:23.792Z</time>
      </trkpt>
      <trkpt lat="46.93789" lon="8.5755">
        <ele>599</ele>
        <time>2021-08-10T10:36:24.792Z</time>
      </trkpt>
      <trkpt lat="46.93788" lon="8.5755">
        <ele>599</ele>
        <time>2021-08-10T10:36:25.792Z</time>
      </trkpt>
      <trkpt lat="46.93787" lon="8.5755">
        <ele>599</ele>
        <time>2021-08-10T10:36:26.792Z</time>
      </trkpt>
      <trkpt lat="46.93786" lon="8.5755">
        <ele>599</ele>
        <time>2021-08-10T10:36:27.791Z</time>
      </trkpt>
      <trkpt lat="46.93785" lon="8.57549">
        <ele>600</ele>
        <time>2021-08-10T10:36:28.791Z</time>
      </trkpt>
      <trkpt lat="46.93784" lon="8.57549">
        <ele>600</ele>
        <time>2021-08-10T10:36:29.792Z</time>
      </trkpt>
      <trkpt lat="46.93784" lon="8.57549">
        <ele>600</ele>
        <time>2021-08-10T10:36:30.792Z</time>
      </trkpt>
      <trkpt lat="46.93783" lon="8.57548">
        <ele>600</ele>
        <time>2021-08-10T10:36:31.792Z</time>
      </trkpt>
      <trkpt lat="46.93782" lon="8.57548">
        <ele>600</ele>
        <time>2021-08-10T10:36:32.791Z</time>
      </trkpt>
      <trkpt lat="46.93782" lon="8.57548">
        <ele>600</ele>
        <time>2021-08-10T10:36:33.792Z</time>
      </trkpt>
      <trkpt lat="46.93781" lon="8.57548">
        <ele>600</ele>
        <time>2021-08-10T10:36:34.792Z</time>
      </trkpt>
      <trkpt lat="46.9378" lon="8.57548">
        <ele>600</ele>
        <time>2021-08-10T10:36:35.792Z</time>
      </trkpt>
      <trkpt lat="46.93779" lon="8.57548">
        <ele>600</ele>
        <time>2021-08-10T10:36:36.792Z</time>
      </trkpt>
      <trkpt lat="46.93778" lon="8.57548">
        <ele>600</ele>
        <time>2021-08-10T10:36:37.792Z</time>
      </trkpt>
      <trkpt lat="46.93777" lon="8.57548">
        <ele>600</ele>
        <time>2021-08-10T10:36:38.792Z</time>
      </trkpt>
      <trkpt lat="46.93776" lon="8.57548">
        <ele>600</ele>
        <time>2021-08-10T10:36:39.791Z</time>
      </trkpt>
      <trkpt lat="46.93776" lon="8.57548">
        <ele>600</ele>
        <time>2021-08-10T10:36:40.791Z</time>
      </trkpt>
      <trkpt lat="46.93776" lon="8.57549">
        <ele>600</ele>
        <time>2021-08-10T10:36:41.792Z</time>
      </trkpt>
      <trkpt lat="46.93776" lon="8.57549">
        <ele>600</ele>
        <time>2021-08-10T10:36:42.791Z</time>
      </trkpt>
      <trkpt lat="46.93774" lon="8.57549">
        <ele>599</ele>
        <time>2021-08-10T10:36:43.792Z</time>
      </trkpt>
      <trkpt lat="46.93774" lon="8.57548">
        <ele>599</ele>
        <time>2021-08-10T10:36:44.792Z</time>
      </trkpt>
      <trkpt lat="46.93773" lon="8.57548">
        <ele>599</ele>
        <time>2021-08-10T10:36:45.791Z</time>
      </trkpt>
      <trkpt lat="46.93772" lon="8.57547">
        <ele>599</ele>
        <time>2021-08-10T10:36:46.792Z</time>
      </trkpt>
      <trkpt lat="46.93771" lon="8.57546">
        <ele>599</ele>
        <time>2021-08-10T10:36:47.792Z</time>
      </trkpt>
      <trkpt lat="46.93769" lon="8.57546">
        <ele>599</ele>
        <time>2021-08-10T10:36:48.792Z</time>
      </trkpt>
      <trkpt lat="46.93768" lon="8.57546">
        <ele>599</ele>
        <time>2021-08-10T10:36:49.792Z</time>
      </trkpt>
      <trkpt lat="46.93767" lon="8.57546">
        <ele>599</ele>
        <time>2021-08-10T10:36:50.792Z</time>
      </trkpt>
      <trkpt lat="46.93766" lon="8.57545">
        <ele>599</ele>
        <time>2021-08-10T10:36:51.792Z</time>
      </trkpt>
      <trkpt lat="46.93765" lon="8.57544">
        <ele>598</ele>
        <time>2021-08-10T10:36:52.791Z</time>
      </trkpt>
      <trkpt lat="46.93763" lon="8.57543">
        <ele>598</ele>
        <time>2021-08-10T10:36:53.792Z</time>
      </trkpt>
      <trkpt lat="46.93762" lon="8.57543">
        <ele>597</ele>
        <time>2021-08-10T10:36:54.792Z</time>
      </trkpt>
      <trkpt lat="46.9376" lon="8.57543">
        <ele>596</ele>
        <time>2021-08-10T10:36:55.792Z</time>
      </trkpt>
      <trkpt lat="46.93759" lon="8.57542">
        <ele>595</ele>
        <time>2021-08-10T10:36:56.792Z</time>
      </trkpt>
      <trkpt lat="46.93758" lon="8.57541">
        <ele>594</ele>
        <time>2021-08-10T10:36:57.791Z</time>
      </trkpt>
      <trkpt lat="46.93756" lon="8.57541">
        <ele>593</ele>
        <time>2021-08-10T10:36:58.791Z</time>
      </trkpt>
      <trkpt lat="46.93755" lon="8.5754">
        <ele>592</ele>
        <time>2021-08-10T10:36:59.791Z</time>
      </trkpt>
      <trkpt lat="46.93754" lon="8.5754">
        <ele>591</ele>
        <time>2021-08-10T10:37:00.791Z</time>
      </trkpt>
      <trkpt lat="46.93753" lon="8.5754">
        <ele>591</ele>
        <time>2021-08-10T10:37:01.792Z</time>
      </trkpt>
      <trkpt lat="46.93753" lon="8.57539">
        <ele>590</ele>
        <time>2021-08-10T10:37:02.792Z</time>
      </trkpt>
      <trkpt lat="46.93752" lon="8.57539">
        <ele>590</ele>
        <time>2021-08-10T10:37:03.792Z</time>
      </trkpt>
      <trkpt lat="46.93751" lon="8.57538">
        <ele>590</ele>
        <time>2021-08-10T10:37:04.792Z</time>
      </trkpt>
      <trkpt lat="46.9375" lon="8.57538">
        <ele>590</ele>
        <time>2021-08-10T10:37:05.793Z</time>
      </trkpt>
      <trkpt lat="46.9375" lon="8.57538">
        <ele>590</ele>
        <time>2021-08-10T10:37:06.792Z</time>
      </trkpt>
      <trkpt lat="46.93749" lon="8.57538">
        <ele>591</ele>
        <time>2021-08-10T10:37:07.793Z</time>
      </trkpt>
      <trkpt lat="46.93749" lon="8.57538">
        <ele>591</ele>
        <time>2021-08-10T10:37:08.793Z</time>
      </trkpt>
      <trkpt lat="46.93749" lon="8.57538">
        <ele>591</ele>
        <time>2021-08-10T10:37:09.792Z</time>
      </trkpt>
      <trkpt lat="46.93748" lon="8.57538">
        <ele>592</ele>
        <time>2021-08-10T10:37:10.793Z</time>
      </trkpt>
      <trkpt lat="46.93748" lon="8.57538">
        <ele>592</ele>
        <time>2021-08-10T10:37:11.792Z</time>
      </trkpt>
      <trkpt lat="46.93747" lon="8.57537">
        <ele>592</ele>
        <time>2021-08-10T10:37:12.792Z</time>
      </trkpt>
      <trkpt lat="46.93747" lon="8.57537">
        <ele>592</ele>
        <time>2021-08-10T10:37:13.793Z</time>
      </trkpt>
      <trkpt lat="46.93746" lon="8.57537">
        <ele>593</ele>
        <time>2021-08-10T10:37:14.792Z</time>
      </trkpt>
      <trkpt lat="46.93746" lon="8.57536">
        <ele>593</ele>
        <time>2021-08-10T10:37:15.793Z</time>
      </trkpt>
      <trkpt lat="46.93746" lon="8.57535">
        <ele>593</ele>
        <time>2021-08-10T10:37:16.793Z</time>
      </trkpt>
      <trkpt lat="46.93747" lon="8.57535">
        <ele>593</ele>
        <time>2021-08-10T10:37:17.793Z</time>
      </trkpt>
      <trkpt lat="46.93746" lon="8.57534">
        <ele>593</ele>
        <time>2021-08-10T10:37:18.792Z</time>
      </trkpt>
      <trkpt lat="46.93744" lon="8.57536">
        <ele>593</ele>
        <time>2021-08-10T10:37:19.793Z</time>
      </trkpt>
      <trkpt lat="46.93743" lon="8.57538">
        <ele>594</ele>
        <time>2021-08-10T10:37:20.793Z</time>
      </trkpt>
      <trkpt lat="46.93741" lon="8.57538">
        <ele>594</ele>
        <time>2021-08-10T10:37:21.792Z</time>
      </trkpt>
      <trkpt lat="46.93741" lon="8.57539">
        <ele>595</ele>
        <time>2021-08-10T10:37:22.793Z</time>
      </trkpt>
      <trkpt lat="46.9374" lon="8.57539">
        <ele>596</ele>
        <time>2021-08-10T10:37:23.793Z</time>
      </trkpt>
      <trkpt lat="46.93739" lon="8.57539">
        <ele>596</ele>
        <time>2021-08-10T10:37:24.793Z</time>
      </trkpt>
      <trkpt lat="46.93738" lon="8.57539">
        <ele>596</ele>
        <time>2021-08-10T10:37:25.793Z</time>
      </trkpt>
      <trkpt lat="46.93737" lon="8.57539">
        <ele>596</ele>
        <time>2021-08-10T10:37:26.793Z</time>
      </trkpt>
      <trkpt lat="46.93736" lon="8.57539">
        <ele>596</ele>
        <time>2021-08-10T10:37:27.792Z</time>
      </trkpt>
      <trkpt lat="46.93736" lon="8.57539">
        <ele>596</ele>
        <time>2021-08-10T10:37:28.793Z</time>
      </trkpt>
      <trkpt lat="46.93736" lon="8.57539">
        <ele>596</ele>
        <time>2021-08-10T10:37:29.793Z</time>
      </trkpt>
      <trkpt lat="46.93736" lon="8.57538">
        <ele>597</ele>
        <time>2021-08-10T10:37:30.792Z</time>
      </trkpt>
      <trkpt lat="46.93736" lon="8.57537">
        <ele>597</ele>
        <time>2021-08-10T10:37:31.792Z</time>
      </trkpt>
      <trkpt lat="46.93736" lon="8.57537">
        <ele>597</ele>
        <time>2021-08-10T10:37:32.793Z</time>
      </trkpt>
      <trkpt lat="46.93736" lon="8.57537">
        <ele>597</ele>
        <time>2021-08-10T10:37:33.792Z</time>
      </trkpt>
      <trkpt lat="46.93735" lon="8.57537">
        <ele>597</ele>
        <time>2021-08-10T10:37:34.795Z</time>
      </trkpt>
      <trkpt lat="46.93734" lon="8.57537">
        <ele>597</ele>
        <time>2021-08-10T10:37:35.794Z</time>
      </trkpt>
      <trkpt lat="46.93734" lon="8.57536">
        <ele>597</ele>
        <time>2021-08-10T10:37:36.794Z</time>
      </trkpt>
      <trkpt lat="46.93733" lon="8.57536">
        <ele>597</ele>
        <time>2021-08-10T10:37:37.794Z</time>
      </trkpt>
      <trkpt lat="46.93733" lon="8.57536">
        <ele>597</ele>
        <time>2021-08-10T10:37:38.795Z</time>
      </trkpt>
      <trkpt lat="46.93733" lon="8.57535">
        <ele>597</ele>
        <time>2021-08-10T10:37:39.795Z</time>
      </trkpt>
      <trkpt lat="46.93732" lon="8.57535">
        <ele>596</ele>
        <time>2021-08-10T10:37:40.795Z</time>
      </trkpt>
      <trkpt lat="46.93732" lon="8.57535">
        <ele>596</ele>
        <time>2021-08-10T10:37:41.794Z</time>
      </trkpt>
      <trkpt lat="46.93732" lon="8.57536">
        <ele>596</ele>
        <time>2021-08-10T10:37:42.795Z</time>
      </trkpt>
      <trkpt lat="46.93731" lon="8.57538">
        <ele>596</ele>
        <time>2021-08-10T10:37:43.795Z</time>
      </trkpt>
      <trkpt lat="46.9373" lon="8.57539">
        <ele>596</ele>
        <time>2021-08-10T10:37:44.795Z</time>
      </trkpt>
      <trkpt lat="46.93728" lon="8.5754">
        <ele>596</ele>
        <time>2021-08-10T10:37:45.795Z</time>
      </trkpt>
      <trkpt lat="46.93727" lon="8.57539">
        <ele>596</ele>
        <time>2021-08-10T10:37:46.795Z</time>
      </trkpt>
      <trkpt lat="46.93727" lon="8.57539">
        <ele>595</ele>
        <time>2021-08-10T10:37:47.794Z</time>
      </trkpt>
      <trkpt lat="46.93727" lon="8.57537">
        <ele>595</ele>
        <time>2021-08-10T10:37:48.794Z</time>
      </trkpt>
      <trkpt lat="46.93727" lon="8.57534">
        <ele>595</ele>
        <time>2021-08-10T10:37:49.795Z</time>
      </trkpt>
      <trkpt lat="46.93727" lon="8.57532">
        <ele>594</ele>
        <time>2021-08-10T10:37:50.795Z</time>
      </trkpt>
      <trkpt lat="46.93726" lon="8.57532">
        <ele>594</ele>
        <time>2021-08-10T10:37:51.794Z</time>
      </trkpt>
      <trkpt lat="46.93725" lon="8.5753">
        <ele>593</ele>
        <time>2021-08-10T10:37:52.795Z</time>
      </trkpt>
      <trkpt lat="46.93724" lon="8.5753">
        <ele>593</ele>
        <time>2021-08-10T10:37:53.794Z</time>
      </trkpt>
      <trkpt lat="46.93723" lon="8.5753">
        <ele>593</ele>
        <time>2021-08-10T10:37:54.794Z</time>
      </trkpt>
      <trkpt lat="46.93723" lon="8.57531">
        <ele>593</ele>
        <time>2021-08-10T10:37:55.795Z</time>
      </trkpt>
      <trkpt lat="46.93723" lon="8.57532">
        <ele>593</ele>
        <time>2021-08-10T10:37:56.794Z</time>
      </trkpt>
      <trkpt lat="46.93723" lon="8.57533">
        <ele>594</ele>
        <time>2021-08-10T10:37:57.795Z</time>
      </trkpt>
      <trkpt lat="46.93722" lon="8.57533">
        <ele>594</ele>
        <time>2021-08-10T10:37:58.795Z</time>
      </trkpt>
      <trkpt lat="46.93721" lon="8.57534">
        <ele>594</ele>
        <time>2021-08-10T10:37:59.795Z</time>
      </trkpt>
      <trkpt lat="46.93721" lon="8.57533">
        <ele>595</ele>
        <time>2021-08-10T10:38:00.794Z</time>
      </trkpt>
      <trkpt lat="46.93721" lon="8.57533">
        <ele>595</ele>
        <time>2021-08-10T10:38:01.794Z</time>
      </trkpt>
      <trkpt lat="46.93721" lon="8.57532">
        <ele>595</ele>
        <time>2021-08-10T10:38:02.795Z</time>
      </trkpt>
      <trkpt lat="46.93721" lon="8.57531">
        <ele>595</ele>
        <time>2021-08-10T10:38:03.794Z</time>
      </trkpt>
      <trkpt lat="46.93719" lon="8.57531">
        <ele>595</ele>
        <time>2021-08-10T10:38:04.794Z</time>
      </trkpt>
      <trkpt lat="46.93718" lon="8.57531">
        <ele>595</ele>
        <time>2021-08-10T10:38:05.795Z</time>
      </trkpt>
      <trkpt lat="46.93717" lon="8.57532">
        <ele>595</ele>
        <time>2021-08-10T10:38:06.794Z</time>
      </trkpt>
      <trkpt lat="46.93716" lon="8.57532">
        <ele>594</ele>
        <time>2021-08-10T10:38:07.794Z</time>
      </trkpt>
      <trkpt lat="46.93715" lon="8.57533">
        <ele>594</ele>
        <time>2021-08-10T10:38:08.795Z</time>
      </trkpt>
      <trkpt lat="46.93715" lon="8.57534">
        <ele>594</ele>
        <time>2021-08-10T10:38:09.795Z</time>
      </trkpt>
      <trkpt lat="46.93715" lon="8.57536">
        <ele>593</ele>
        <time>2021-08-10T10:38:10.795Z</time>
      </trkpt>
      <trkpt lat="46.93714" lon="8.57537">
        <ele>593</ele>
        <time>2021-08-10T10:38:11.795Z</time>
      </trkpt>
      <trkpt lat="46.93714" lon="8.57538">
        <ele>593</ele>
        <time>2021-08-10T10:38:12.795Z</time>
      </trkpt>
      <trkpt lat="46.93713" lon="8.57538">
        <ele>592</ele>
        <time>2021-08-10T10:38:13.795Z</time>
      </trkpt>
      <trkpt lat="46.93712" lon="8.57538">
        <ele>592</ele>
        <time>2021-08-10T10:38:14.795Z</time>
      </trkpt>
      <trkpt lat="46.93712" lon="8.57539">
        <ele>591</ele>
        <time>2021-08-10T10:38:15.794Z</time>
      </trkpt>
      <trkpt lat="46.9371" lon="8.57539">
        <ele>591</ele>
        <time>2021-08-10T10:38:16.795Z</time>
      </trkpt>
      <trkpt lat="46.93709" lon="8.5754">
        <ele>590</ele>
        <time>2021-08-10T10:38:17.795Z</time>
      </trkpt>
      <trkpt lat="46.93708" lon="8.57541">
        <ele>590</ele>
        <time>2021-08-10T10:38:18.795Z</time>
      </trkpt>
      <trkpt lat="46.93708" lon="8.57542">
        <ele>589</ele>
        <time>2021-08-10T10:38:19.795Z</time>
      </trkpt>
      <trkpt lat="46.93708" lon="8.57543">
        <ele>589</ele>
        <time>2021-08-10T10:38:20.795Z</time>
      </trkpt>
      <trkpt lat="46.93707" lon="8.57544">
        <ele>589</ele>
        <time>2021-08-10T10:38:21.795Z</time>
      </trkpt>
      <trkpt lat="46.93707" lon="8.57546">
        <ele>588</ele>
        <time>2021-08-10T10:38:22.795Z</time>
      </trkpt>
      <trkpt lat="46.93707" lon="8.57547">
        <ele>588</ele>
        <time>2021-08-10T10:38:23.795Z</time>
      </trkpt>
      <trkpt lat="46.93706" lon="8.57549">
        <ele>588</ele>
        <time>2021-08-10T10:38:24.795Z</time>
      </trkpt>
      <trkpt lat="46.93706" lon="8.5755">
        <ele>587</ele>
        <time>2021-08-10T10:38:25.795Z</time>
      </trkpt>
      <trkpt lat="46.93705" lon="8.57551">
        <ele>586</ele>
        <time>2021-08-10T10:38:26.794Z</time>
      </trkpt>
      <trkpt lat="46.93705" lon="8.57551">
        <ele>585</ele>
        <time>2021-08-10T10:38:27.795Z</time>
      </trkpt>
      <trkpt lat="46.93703" lon="8.57553">
        <ele>580</ele>
        <time>2021-08-10T10:38:28.796Z</time>
      </trkpt>
      <trkpt lat="46.937" lon="8.57553">
        <ele>581</ele>
        <time>2021-08-10T10:38:29.796Z</time>
      </trkpt>
      <trkpt lat="46.937" lon="8.57554">
        <ele>581</ele>
        <time>2021-08-10T10:38:30.796Z</time>
      </trkpt>
      <trkpt lat="46.93699" lon="8.57554">
        <ele>581</ele>
        <time>2021-08-10T10:38:31.796Z</time>
      </trkpt>
      <trkpt lat="46.93699" lon="8.57554">
        <ele>581</ele>
        <time>2021-08-10T10:38:32.796Z</time>
      </trkpt>
      <trkpt lat="46.93698" lon="8.57554">
        <ele>581</ele>
        <time>2021-08-10T10:38:33.797Z</time>
      </trkpt>
      <trkpt lat="46.93698" lon="8.57554">
        <ele>581</ele>
        <time>2021-08-10T10:38:34.797Z</time>
      </trkpt>
      <trkpt lat="46.93697" lon="8.57554">
        <ele>581</ele>
        <time>2021-08-10T10:38:35.796Z</time>
      </trkpt>
      <trkpt lat="46.93697" lon="8.57554">
        <ele>582</ele>
        <time>2021-08-10T10:38:36.796Z</time>
      </trkpt>
      <trkpt lat="46.93696" lon="8.57551">
        <ele>581</ele>
        <time>2021-08-10T10:38:40.796Z</time>
      </trkpt>
      <trkpt lat="46.93696" lon="8.5755">
        <ele>581</ele>
        <time>2021-08-10T10:38:41.797Z</time>
      </trkpt>
      <trkpt lat="46.93697" lon="8.57551">
        <ele>581</ele>
        <time>2021-08-10T10:38:42.796Z</time>
      </trkpt>
      <trkpt lat="46.93699" lon="8.57552">
        <ele>581</ele>
        <time>2021-08-10T10:38:43.797Z</time>
      </trkpt>
      <trkpt lat="46.93698" lon="8.57552">
        <ele>581</ele>
        <time>2021-08-10T10:38:44.797Z</time>
      </trkpt>
      <trkpt lat="46.93698" lon="8.57552">
        <ele>580</ele>
        <time>2021-08-10T10:38:45.797Z</time>
      </trkpt>
      <trkpt lat="46.93698" lon="8.57551">
        <ele>580</ele>
        <time>2021-08-10T10:38:46.796Z</time>
      </trkpt>
      <trkpt lat="46.93699" lon="8.57548">
        <ele>580</ele>
        <time>2021-08-10T10:38:47.797Z</time>
      </trkpt>
      <trkpt lat="46.93699" lon="8.57546">
        <ele>580</ele>
        <time>2021-08-10T10:38:48.796Z</time>
      </trkpt>
      <trkpt lat="46.93698" lon="8.57545">
        <ele>579</ele>
        <time>2021-08-10T10:38:49.796Z</time>
      </trkpt>
      <trkpt lat="46.93697" lon="8.57545">
        <ele>579</ele>
        <time>2021-08-10T10:38:50.796Z</time>
      </trkpt>
      <trkpt lat="46.93696" lon="8.57544">
        <ele>578</ele>
        <time>2021-08-10T10:38:51.796Z</time>
      </trkpt>
      <trkpt lat="46.93696" lon="8.57544">
        <ele>577</ele>
        <time>2021-08-10T10:38:52.797Z</time>
      </trkpt>
      <trkpt lat="46.93697" lon="8.57543">
        <ele>577</ele>
        <time>2021-08-10T10:38:53.796Z</time>
      </trkpt>
      <trkpt lat="46.93697" lon="8.57544">
        <ele>576</ele>
        <time>2021-08-10T10:38:54.797Z</time>
      </trkpt>
      <trkpt lat="46.93698" lon="8.57544">
        <ele>577</ele>
        <time>2021-08-10T10:38:55.797Z</time>
      </trkpt>
      <trkpt lat="46.93698" lon="8.57544">
        <ele>577</ele>
        <time>2021-08-10T10:38:56.797Z</time>
      </trkpt>
      <trkpt lat="46.93698" lon="8.57544">
        <ele>577</ele>
        <time>2021-08-10T10:38:57.796Z</time>
      </trkpt>
      <trkpt lat="46.93698" lon="8.57544">
        <ele>577</ele>
        <time>2021-08-10T10:38:58.796Z</time>
      </trkpt>
      <trkpt lat="46.93698" lon="8.57544">
        <ele>577</ele>
        <time>2021-08-10T10:38:59.796Z</time>
      </trkpt>
      <trkpt lat="46.93698" lon="8.57544">
        <ele>578</ele>
        <time>2021-08-10T10:39:00.797Z</time>
      </trkpt>
      <trkpt lat="46.93698" lon="8.57543">
        <ele>577</ele>
        <time>2021-08-10T10:39:01.798Z</time>
      </trkpt>
      <trkpt lat="46.93698" lon="8.57543">
        <ele>577</ele>
        <time>2021-08-10T10:39:02.798Z</time>
      </trkpt>
      <trkpt lat="46.93697" lon="8.57543">
        <ele>577</ele>
        <time>2021-08-10T10:39:03.798Z</time>
      </trkpt>
      <trkpt lat="46.93697" lon="8.57543">
        <ele>577</ele>
        <time>2021-08-10T10:39:04.798Z</time>
      </trkpt>
      <trkpt lat="46.93696" lon="8.57544">
        <ele>576</ele>
        <time>2021-08-10T10:39:05.797Z</time>
      </trkpt>
      <trkpt lat="46.93697" lon="8.57545">
        <ele>576</ele>
        <time>2021-08-10T10:39:06.797Z</time>
      </trkpt>
      <trkpt lat="46.93697" lon="8.57545">
        <ele>576</ele>
        <time>2021-08-10T10:39:07.797Z</time>
      </trkpt>
      <trkpt lat="46.93697" lon="8.57546">
        <ele>576</ele>
        <time>2021-08-10T10:39:08.797Z</time>
      </trkpt>
      <trkpt lat="46.93696" lon="8.57547">
        <ele>576</ele>
        <time>2021-08-10T10:39:09.798Z</time>
      </trkpt>
      <trkpt lat="46.93696" lon="8.57548">
        <ele>576</ele>
        <time>2021-08-10T10:39:10.798Z</time>
      </trkpt>
      <trkpt lat="46.93695" lon="8.57548">
        <ele>575</ele>
        <time>2021-08-10T10:39:11.797Z</time>
      </trkpt>
      <trkpt lat="46.93695" lon="8.57548">
        <ele>575</ele>
        <time>2021-08-10T10:39:12.798Z</time>
      </trkpt>
      <trkpt lat="46.93694" lon="8.57548">
        <ele>574</ele>
        <time>2021-08-10T10:39:13.798Z</time>
      </trkpt>
      <trkpt lat="46.93693" lon="8.57548">
        <ele>574</ele>
        <time>2021-08-10T10:39:14.798Z</time>
      </trkpt>
      <trkpt lat="46.93693" lon="8.57546">
        <ele>573</ele>
        <time>2021-08-10T10:39:15.797Z</time>
      </trkpt>
      <trkpt lat="46.93691" lon="8.57545">
        <ele>573</ele>
        <time>2021-08-10T10:39:16.798Z</time>
      </trkpt>
      <trkpt lat="46.9369" lon="8.57544">
        <ele>572</ele>
        <time>2021-08-10T10:39:17.797Z</time>
      </trkpt>
      <trkpt lat="46.93689" lon="8.57542">
        <ele>572</ele>
        <time>2021-08-10T10:39:18.798Z</time>
      </trkpt>
      <trkpt lat="46.93688" lon="8.57542">
        <ele>572</ele>
        <time>2021-08-10T10:39:19.798Z</time>
      </trkpt>
      <trkpt lat="46.93688" lon="8.57542">
        <ele>572</ele>
        <time>2021-08-10T10:39:20.797Z</time>
      </trkpt>
      <trkpt lat="46.93688" lon="8.57541">
        <ele>572</ele>
        <time>2021-08-10T10:39:21.797Z</time>
      </trkpt>
      <trkpt lat="46.93688" lon="8.5754">
        <ele>572</ele>
        <time>2021-08-10T10:39:22.798Z</time>
      </trkpt>
      <trkpt lat="46.93688" lon="8.5754">
        <ele>572</ele>
        <time>2021-08-10T10:39:23.798Z</time>
      </trkpt>
      <trkpt lat="46.93688" lon="8.57539">
        <ele>571</ele>
        <time>2021-08-10T10:39:24.797Z</time>
      </trkpt>
      <trkpt lat="46.93689" lon="8.57539">
        <ele>571</ele>
        <time>2021-08-10T10:39:25.798Z</time>
      </trkpt>
      <trkpt lat="46.93689" lon="8.57539">
        <ele>571</ele>
        <time>2021-08-10T10:39:26.798Z</time>
      </trkpt>
      <trkpt lat="46.93689" lon="8.57538">
        <ele>571</ele>
        <time>2021-08-10T10:39:27.798Z</time>
      </trkpt>
      <trkpt lat="46.93688" lon="8.57536">
        <ele>571</ele>
        <time>2021-08-10T10:39:28.798Z</time>
      </trkpt>
      <trkpt lat="46.93687" lon="8.57536">
        <ele>570</ele>
        <time>2021-08-10T10:39:29.798Z</time>
      </trkpt>
      <trkpt lat="46.93686" lon="8.57535">
        <ele>570</ele>
        <time>2021-08-10T10:39:30.797Z</time>
      </trkpt>
      <trkpt lat="46.93684" lon="8.57533">
        <ele>569</ele>
        <time>2021-08-10T10:39:31.798Z</time>
      </trkpt>
      <trkpt lat="46.93683" lon="8.57532">
        <ele>569</ele>
        <time>2021-08-10T10:39:32.797Z</time>
      </trkpt>
      <trkpt lat="46.93683" lon="8.57532">
        <ele>569</ele>
        <time>2021-08-10T10:39:33.798Z</time>
      </trkpt>
      <trkpt lat="46.93682" lon="8.57533">
        <ele>569</ele>
        <time>2021-08-10T10:39:34.798Z</time>
      </trkpt>
      <trkpt lat="46.93682" lon="8.57532">
        <ele>569</ele>
        <time>2021-08-10T10:39:35.798Z</time>
      </trkpt>
      <trkpt lat="46.93682" lon="8.57532">
        <ele>569</ele>
        <time>2021-08-10T10:39:36.797Z</time>
      </trkpt>
      <trkpt lat="46.93683" lon="8.57533">
        <ele>568</ele>
        <time>2021-08-10T10:39:37.798Z</time>
      </trkpt>
      <trkpt lat="46.93684" lon="8.57532">
        <ele>568</ele>
        <time>2021-08-10T10:39:38.797Z</time>
      </trkpt>
      <trkpt lat="46.93684" lon="8.57531">
        <ele>568</ele>
        <time>2021-08-10T10:39:39.797Z</time>
      </trkpt>
      <trkpt lat="46.93684" lon="8.57531">
        <ele>568</ele>
        <time>2021-08-10T10:39:40.797Z</time>
      </trkpt>
      <trkpt lat="46.93685" lon="8.5753">
        <ele>568</ele>
        <time>2021-08-10T10:39:41.798Z</time>
      </trkpt>
      <trkpt lat="46.93686" lon="8.57531">
        <ele>568</ele>
        <time>2021-08-10T10:39:42.798Z</time>
      </trkpt>
      <trkpt lat="46.93687" lon="8.57532">
        <ele>568</ele>
        <time>2021-08-10T10:39:43.798Z</time>
      </trkpt>
      <trkpt lat="46.93686" lon="8.57531">
        <ele>568</ele>
        <time>2021-08-10T10:39:44.798Z</time>
      </trkpt>
      <trkpt lat="46.93686" lon="8.57531">
        <ele>569</ele>
        <time>2021-08-10T10:39:45.798Z</time>
      </trkpt>
      <trkpt lat="46.93685" lon="8.5753">
        <ele>569</ele>
        <time>2021-08-10T10:39:46.798Z</time>
      </trkpt>
      <trkpt lat="46.93683" lon="8.5753">
        <ele>570</ele>
        <time>2021-08-10T10:39:47.798Z</time>
      </trkpt>
      <trkpt lat="46.93683" lon="8.57529">
        <ele>570</ele>
        <time>2021-08-10T10:39:48.798Z</time>
      </trkpt>
      <trkpt lat="46.93682" lon="8.57528">
        <ele>570</ele>
        <time>2021-08-10T10:39:49.798Z</time>
      </trkpt>
      <trkpt lat="46.93682" lon="8.57528">
        <ele>571</ele>
        <time>2021-08-10T10:39:50.798Z</time>
      </trkpt>
      <trkpt lat="46.93682" lon="8.57527">
        <ele>571</ele>
        <time>2021-08-10T10:39:51.798Z</time>
      </trkpt>
      <trkpt lat="46.93681" lon="8.57527">
        <ele>571</ele>
        <time>2021-08-10T10:39:52.797Z</time>
      </trkpt>
      <trkpt lat="46.93681" lon="8.57527">
        <ele>572</ele>
        <time>2021-08-10T10:39:53.798Z</time>
      </trkpt>
      <trkpt lat="46.93681" lon="8.57527">
        <ele>572</ele>
        <time>2021-08-10T10:39:54.797Z</time>
      </trkpt>
      <trkpt lat="46.9368" lon="8.57527">
        <ele>572</ele>
        <time>2021-08-10T10:39:55.798Z</time>
      </trkpt>
      <trkpt lat="46.9368" lon="8.57526">
        <ele>573</ele>
        <time>2021-08-10T10:39:56.797Z</time>
      </trkpt>
      <trkpt lat="46.93679" lon="8.57525">
        <ele>573</ele>
        <time>2021-08-10T10:39:57.797Z</time>
      </trkpt>
      <trkpt lat="46.93679" lon="8.57525">
        <ele>573</ele>
        <time>2021-08-10T10:39:58.798Z</time>
      </trkpt>
      <trkpt lat="46.93678" lon="8.57525">
        <ele>573</ele>
        <time>2021-08-10T10:39:59.798Z</time>
      </trkpt>
      <trkpt lat="46.93678" lon="8.57525">
        <ele>573</ele>
        <time>2021-08-10T10:40:00.798Z</time>
      </trkpt>
      <trkpt lat="46.93678" lon="8.57525">
        <ele>572</ele>
        <time>2021-08-10T10:40:01.798Z</time>
      </trkpt>
      <trkpt lat="46.93678" lon="8.57526">
        <ele>572</ele>
        <time>2021-08-10T10:40:02.797Z</time>
      </trkpt>
      <trkpt lat="46.93678" lon="8.57526">
        <ele>572</ele>
        <time>2021-08-10T10:40:03.797Z</time>
      </trkpt>
      <trkpt lat="46.93678" lon="8.57526">
        <ele>571</ele>
        <time>2021-08-10T10:40:04.797Z</time>
      </trkpt>
      <trkpt lat="46.93678" lon="8.57528">
        <ele>570</ele>
        <time>2021-08-10T10:40:05.800Z</time>
      </trkpt>
      <trkpt lat="46.93677" lon="8.57528">
        <ele>569</ele>
        <time>2021-08-10T10:40:06.800Z</time>
      </trkpt>
      <trkpt lat="46.93676" lon="8.57529">
        <ele>569</ele>
        <time>2021-08-10T10:40:07.799Z</time>
      </trkpt>
      <trkpt lat="46.93676" lon="8.57531">
        <ele>569</ele>
        <time>2021-08-10T10:40:08.800Z</time>
      </trkpt>
      <trkpt lat="46.93675" lon="8.57532">
        <ele>569</ele>
        <time>2021-08-10T10:40:09.799Z</time>
      </trkpt>
      <trkpt lat="46.93675" lon="8.57533">
        <ele>569</ele>
        <time>2021-08-10T10:40:10.800Z</time>
      </trkpt>
      <trkpt lat="46.93675" lon="8.57534">
        <ele>570</ele>
        <time>2021-08-10T10:40:11.800Z</time>
      </trkpt>
      <trkpt lat="46.93674" lon="8.57536">
        <ele>570</ele>
        <time>2021-08-10T10:40:12.800Z</time>
      </trkpt>
      <trkpt lat="46.93674" lon="8.57537">
        <ele>570</ele>
        <time>2021-08-10T10:40:13.800Z</time>
      </trkpt>
      <trkpt lat="46.93674" lon="8.57538">
        <ele>570</ele>
        <time>2021-08-10T10:40:14.799Z</time>
      </trkpt>
      <trkpt lat="46.93673" lon="8.57539">
        <ele>570</ele>
        <time>2021-08-10T10:40:15.799Z</time>
      </trkpt>
      <trkpt lat="46.93673" lon="8.57541">
        <ele>570</ele>
        <time>2021-08-10T10:40:16.799Z</time>
      </trkpt>
      <trkpt lat="46.93672" lon="8.57541">
        <ele>570</ele>
        <time>2021-08-10T10:40:17.799Z</time>
      </trkpt>
      <trkpt lat="46.93672" lon="8.57541">
        <ele>569</ele>
        <time>2021-08-10T10:40:18.800Z</time>
      </trkpt>
      <trkpt lat="46.93671" lon="8.57542">
        <ele>569</ele>
        <time>2021-08-10T10:40:19.800Z</time>
      </trkpt>
      <trkpt lat="46.9367" lon="8.57542">
        <ele>569</ele>
        <time>2021-08-10T10:40:20.799Z</time>
      </trkpt>
      <trkpt lat="46.9367" lon="8.57541">
        <ele>569</ele>
        <time>2021-08-10T10:40:21.800Z</time>
      </trkpt>
      <trkpt lat="46.9367" lon="8.5754">
        <ele>569</ele>
        <time>2021-08-10T10:40:22.799Z</time>
      </trkpt>
      <trkpt lat="46.9367" lon="8.57538">
        <ele>568</ele>
        <time>2021-08-10T10:40:23.799Z</time>
      </trkpt>
      <trkpt lat="46.9367" lon="8.57536">
        <ele>567</ele>
        <time>2021-08-10T10:40:24.799Z</time>
      </trkpt>
      <trkpt lat="46.9367" lon="8.57535">
        <ele>567</ele>
        <time>2021-08-10T10:40:25.799Z</time>
      </trkpt>
      <trkpt lat="46.93671" lon="8.57534">
        <ele>566</ele>
        <time>2021-08-10T10:40:26.799Z</time>
      </trkpt>
      <trkpt lat="46.93671" lon="8.57535">
        <ele>565</ele>
        <time>2021-08-10T10:40:27.799Z</time>
      </trkpt>
      <trkpt lat="46.93672" lon="8.57535">
        <ele>565</ele>
        <time>2021-08-10T10:40:28.799Z</time>
      </trkpt>
      <trkpt lat="46.93671" lon="8.57535">
        <ele>565</ele>
        <time>2021-08-10T10:40:29.799Z</time>
      </trkpt>
      <trkpt lat="46.93671" lon="8.57534">
        <ele>564</ele>
        <time>2021-08-10T10:40:30.800Z</time>
      </trkpt>
      <trkpt lat="46.9367" lon="8.57534">
        <ele>564</ele>
        <time>2021-08-10T10:40:31.799Z</time>
      </trkpt>
      <trkpt lat="46.9367" lon="8.57533">
        <ele>564</ele>
        <time>2021-08-10T10:40:32.800Z</time>
      </trkpt>
      <trkpt lat="46.93669" lon="8.57533">
        <ele>563</ele>
        <time>2021-08-10T10:40:33.799Z</time>
      </trkpt>
      <trkpt lat="46.93667" lon="8.57532">
        <ele>563</ele>
        <time>2021-08-10T10:40:34.800Z</time>
      </trkpt>
      <trkpt lat="46.93666" lon="8.57531">
        <ele>562</ele>
        <time>2021-08-10T10:40:35.800Z</time>
      </trkpt>
      <trkpt lat="46.93665" lon="8.5753">
        <ele>561</ele>
        <time>2021-08-10T10:40:36.799Z</time>
      </trkpt>
      <trkpt lat="46.93663" lon="8.57528">
        <ele>560</ele>
        <time>2021-08-10T10:40:37.800Z</time>
      </trkpt>
      <trkpt lat="46.93663" lon="8.57527">
        <ele>559</ele>
        <time>2021-08-10T10:40:38.800Z</time>
      </trkpt>
      <trkpt lat="46.93662" lon="8.57527">
        <ele>559</ele>
        <time>2021-08-10T10:40:39.799Z</time>
      </trkpt>
      <trkpt lat="46.93662" lon="8.57527">
        <ele>559</ele>
        <time>2021-08-10T10:40:40.799Z</time>
      </trkpt>
      <trkpt lat="46.93662" lon="8.57526">
        <ele>558</ele>
        <time>2021-08-10T10:40:41.800Z</time>
      </trkpt>
      <trkpt lat="46.93661" lon="8.57526">
        <ele>558</ele>
        <time>2021-08-10T10:40:42.799Z</time>
      </trkpt>
      <trkpt lat="46.93661" lon="8.57525">
        <ele>558</ele>
        <time>2021-08-10T10:40:43.799Z</time>
      </trkpt>
      <trkpt lat="46.9366" lon="8.57525">
        <ele>558</ele>
        <time>2021-08-10T10:40:44.800Z</time>
      </trkpt>
      <trkpt lat="46.9366" lon="8.57524">
        <ele>558</ele>
        <time>2021-08-10T10:40:45.800Z</time>
      </trkpt>
      <trkpt lat="46.93659" lon="8.57524">
        <ele>558</ele>
        <time>2021-08-10T10:40:46.800Z</time>
      </trkpt>
      <trkpt lat="46.93659" lon="8.57524">
        <ele>558</ele>
        <time>2021-08-10T10:40:47.800Z</time>
      </trkpt>
      <trkpt lat="46.93659" lon="8.57523">
        <ele>557</ele>
        <time>2021-08-10T10:40:48.800Z</time>
      </trkpt>
      <trkpt lat="46.93659" lon="8.57522">
        <ele>557</ele>
        <time>2021-08-10T10:40:49.799Z</time>
      </trkpt>
      <trkpt lat="46.93659" lon="8.57522">
        <ele>556</ele>
        <time>2021-08-10T10:40:50.799Z</time>
      </trkpt>
      <trkpt lat="46.93656" lon="8.57518">
        <ele>553</ele>
        <time>2021-08-10T10:40:51.800Z</time>
      </trkpt>
      <trkpt lat="46.93655" lon="8.57518">
        <ele>552</ele>
        <time>2021-08-10T10:40:52.800Z</time>
      </trkpt>
      <trkpt lat="46.93654" lon="8.57519">
        <ele>552</ele>
        <time>2021-08-10T10:40:53.799Z</time>
      </trkpt>
      <trkpt lat="46.93655" lon="8.5752">
        <ele>552</ele>
        <time>2021-08-10T10:40:54.800Z</time>
      </trkpt>
      <trkpt lat="46.93655" lon="8.57521">
        <ele>551</ele>
        <time>2021-08-10T10:40:55.800Z</time>
      </trkpt>
      <trkpt lat="46.93655" lon="8.57522">
        <ele>551</ele>
        <time>2021-08-10T10:40:56.799Z</time>
      </trkpt>
      <trkpt lat="46.93655" lon="8.57522">
        <ele>550</ele>
        <time>2021-08-10T10:40:57.800Z</time>
      </trkpt>
      <trkpt lat="46.93655" lon="8.57523">
        <ele>549</ele>
        <time>2021-08-10T10:40:58.800Z</time>
      </trkpt>
      <trkpt lat="46.93654" lon="8.57524">
        <ele>549</ele>
        <time>2021-08-10T10:40:59.800Z</time>
      </trkpt>
      <trkpt lat="46.93654" lon="8.57525">
        <ele>548</ele>
        <time>2021-08-10T10:41:00.800Z</time>
      </trkpt>
      <trkpt lat="46.93653" lon="8.57526">
        <ele>548</ele>
        <time>2021-08-10T10:41:01.799Z</time>
      </trkpt>
      <trkpt lat="46.93653" lon="8.57527">
        <ele>547</ele>
        <time>2021-08-10T10:41:02.800Z</time>
      </trkpt>
      <trkpt lat="46.93653" lon="8.57528">
        <ele>547</ele>
        <time>2021-08-10T10:41:03.800Z</time>
      </trkpt>
      <trkpt lat="46.93653" lon="8.57528">
        <ele>546</ele>
        <time>2021-08-10T10:41:04.799Z</time>
      </trkpt>
      <trkpt lat="46.93653" lon="8.57529">
        <ele>546</ele>
        <time>2021-08-10T10:41:05.799Z</time>
      </trkpt>
      <trkpt lat="46.93653" lon="8.57529">
        <ele>545</ele>
        <time>2021-08-10T10:41:06.799Z</time>
      </trkpt>
      <trkpt lat="46.93654" lon="8.57528">
        <ele>545</ele>
        <time>2021-08-10T10:41:07.800Z</time>
      </trkpt>
      <trkpt lat="46.93654" lon="8.57528">
        <ele>545</ele>
        <time>2021-08-10T10:41:08.800Z</time>
      </trkpt>
      <trkpt lat="46.93653" lon="8.57527">
        <ele>544</ele>
        <time>2021-08-10T10:41:09.799Z</time>
      </trkpt>
      <trkpt lat="46.93653" lon="8.57526">
        <ele>544</ele>
        <time>2021-08-10T10:41:10.800Z</time>
      </trkpt>
      <trkpt lat="46.93652" lon="8.57525">
        <ele>544</ele>
        <time>2021-08-10T10:41:11.800Z</time>
      </trkpt>
      <trkpt lat="46.93652" lon="8.57524">
        <ele>545</ele>
        <time>2021-08-10T10:41:12.800Z</time>
      </trkpt>
      <trkpt lat="46.93652" lon="8.57523">
        <ele>545</ele>
        <time>2021-08-10T10:41:13.800Z</time>
      </trkpt>
      <trkpt lat="46.93651" lon="8.57522">
        <ele>546</ele>
        <time>2021-08-10T10:41:14.800Z</time>
      </trkpt>
      <trkpt lat="46.93651" lon="8.5752">
        <ele>546</ele>
        <time>2021-08-10T10:41:15.799Z</time>
      </trkpt>
      <trkpt lat="46.93651" lon="8.57519">
        <ele>547</ele>
        <time>2021-08-10T10:41:16.800Z</time>
      </trkpt>
      <trkpt lat="46.9365" lon="8.57518">
        <ele>548</ele>
        <time>2021-08-10T10:41:17.800Z</time>
      </trkpt>
      <trkpt lat="46.9365" lon="8.57517">
        <ele>548</ele>
        <time>2021-08-10T10:41:18.799Z</time>
      </trkpt>
      <trkpt lat="46.93649" lon="8.57516">
        <ele>548</ele>
        <time>2021-08-10T10:41:19.800Z</time>
      </trkpt>
      <trkpt lat="46.9365" lon="8.57516">
        <ele>549</ele>
        <time>2021-08-10T10:41:20.800Z</time>
      </trkpt>
      <trkpt lat="46.93649" lon="8.57515">
        <ele>548</ele>
        <time>2021-08-10T10:41:21.799Z</time>
      </trkpt>
      <trkpt lat="46.93648" lon="8.57515">
        <ele>548</ele>
        <time>2021-08-10T10:41:22.800Z</time>
      </trkpt>
      <trkpt lat="46.93648" lon="8.57514">
        <ele>549</ele>
        <time>2021-08-10T10:41:23.799Z</time>
      </trkpt>
      <trkpt lat="46.93647" lon="8.57513">
        <ele>549</ele>
        <time>2021-08-10T10:41:24.799Z</time>
      </trkpt>
      <trkpt lat="46.93646" lon="8.57512">
        <ele>549</ele>
        <time>2021-08-10T10:41:25.800Z</time>
      </trkpt>
      <trkpt lat="46.93646" lon="8.5751">
        <ele>550</ele>
        <time>2021-08-10T10:41:26.800Z</time>
      </trkpt>
      <trkpt lat="46.93646" lon="8.57509">
        <ele>550</ele>
        <time>2021-08-10T10:41:27.800Z</time>
      </trkpt>
      <trkpt lat="46.93646" lon="8.57508">
        <ele>549</ele>
        <time>2021-08-10T10:41:28.799Z</time>
      </trkpt>
      <trkpt lat="46.93645" lon="8.57506">
        <ele>549</ele>
        <time>2021-08-10T10:41:29.799Z</time>
      </trkpt>
      <trkpt lat="46.93645" lon="8.57505">
        <ele>549</ele>
        <time>2021-08-10T10:41:30.800Z</time>
      </trkpt>
      <trkpt lat="46.93645" lon="8.57504">
        <ele>549</ele>
        <time>2021-08-10T10:41:31.799Z</time>
      </trkpt>
      <trkpt lat="46.93644" lon="8.57504">
        <ele>549</ele>
        <time>2021-08-10T10:41:32.800Z</time>
      </trkpt>
      <trkpt lat="46.93643" lon="8.57503">
        <ele>550</ele>
        <time>2021-08-10T10:41:33.799Z</time>
      </trkpt>
      <trkpt lat="46.93642" lon="8.57503">
        <ele>550</ele>
        <time>2021-08-10T10:41:34.799Z</time>
      </trkpt>
      <trkpt lat="46.93642" lon="8.57502">
        <ele>550</ele>
        <time>2021-08-10T10:41:35.800Z</time>
      </trkpt>
      <trkpt lat="46.93641" lon="8.57501">
        <ele>550</ele>
        <time>2021-08-10T10:41:36.800Z</time>
      </trkpt>
      <trkpt lat="46.9364" lon="8.575">
        <ele>550</ele>
        <time>2021-08-10T10:41:37.799Z</time>
      </trkpt>
      <trkpt lat="46.9364" lon="8.575">
        <ele>550</ele>
        <time>2021-08-10T10:41:38.800Z</time>
      </trkpt>
      <trkpt lat="46.9364" lon="8.57499">
        <ele>550</ele>
        <time>2021-08-10T10:41:39.799Z</time>
      </trkpt>
      <trkpt lat="46.9364" lon="8.57499">
        <ele>550</ele>
        <time>2021-08-10T10:41:40.800Z</time>
      </trkpt>
      <trkpt lat="46.93639" lon="8.57498">
        <ele>551</ele>
        <time>2021-08-10T10:41:41.799Z</time>
      </trkpt>
      <trkpt lat="46.93638" lon="8.57498">
        <ele>551</ele>
        <time>2021-08-10T10:41:42.799Z</time>
      </trkpt>
      <trkpt lat="46.93637" lon="8.57498">
        <ele>551</ele>
        <time>2021-08-10T10:41:43.800Z</time>
      </trkpt>
      <trkpt lat="46.93637" lon="8.57499">
        <ele>550</ele>
        <time>2021-08-10T10:41:44.799Z</time>
      </trkpt>
      <trkpt lat="46.93636" lon="8.575">
        <ele>550</ele>
        <time>2021-08-10T10:41:45.799Z</time>
      </trkpt>
      <trkpt lat="46.93635" lon="8.57501">
        <ele>550</ele>
        <time>2021-08-10T10:41:46.799Z</time>
      </trkpt>
      <trkpt lat="46.93635" lon="8.57501">
        <ele>550</ele>
        <time>2021-08-10T10:41:47.799Z</time>
      </trkpt>
      <trkpt lat="46.93633" lon="8.57502">
        <ele>550</ele>
        <time>2021-08-10T10:41:48.800Z</time>
      </trkpt>
      <trkpt lat="46.93633" lon="8.57503">
        <ele>550</ele>
        <time>2021-08-10T10:41:49.799Z</time>
      </trkpt>
      <trkpt lat="46.93632" lon="8.57504">
        <ele>550</ele>
        <time>2021-08-10T10:41:50.800Z</time>
      </trkpt>
      <trkpt lat="46.93631" lon="8.57505">
        <ele>550</ele>
        <time>2021-08-10T10:41:51.799Z</time>
      </trkpt>
      <trkpt lat="46.9363" lon="8.57506">
        <ele>550</ele>
        <time>2021-08-10T10:41:52.799Z</time>
      </trkpt>
      <trkpt lat="46.93629" lon="8.57506">
        <ele>550</ele>
        <time>2021-08-10T10:41:53.800Z</time>
      </trkpt>
      <trkpt lat="46.93629" lon="8.57507">
        <ele>550</ele>
        <time>2021-08-10T10:41:54.800Z</time>
      </trkpt>
      <trkpt lat="46.93629" lon="8.57507">
        <ele>550</ele>
        <time>2021-08-10T10:41:55.799Z</time>
      </trkpt>
      <trkpt lat="46.93628" lon="8.57508">
        <ele>550</ele>
        <time>2021-08-10T10:41:56.799Z</time>
      </trkpt>
      <trkpt lat="46.93626" lon="8.57508">
        <ele>550</ele>
        <time>2021-08-10T10:41:57.799Z</time>
      </trkpt>
      <trkpt lat="46.93625" lon="8.57508">
        <ele>550</ele>
        <time>2021-08-10T10:41:58.799Z</time>
      </trkpt>
      <trkpt lat="46.93624" lon="8.57507">
        <ele>550</ele>
        <time>2021-08-10T10:41:59.800Z</time>
      </trkpt>
      <trkpt lat="46.93623" lon="8.57507">
        <ele>549</ele>
        <time>2021-08-10T10:42:00.799Z</time>
      </trkpt>
      <trkpt lat="46.93622" lon="8.57506">
        <ele>549</ele>
        <time>2021-08-10T10:42:01.800Z</time>
      </trkpt>
      <trkpt lat="46.93621" lon="8.57506">
        <ele>549</ele>
        <time>2021-08-10T10:42:02.800Z</time>
      </trkpt>
      <trkpt lat="46.9362" lon="8.57507">
        <ele>549</ele>
        <time>2021-08-10T10:42:03.800Z</time>
      </trkpt>
      <trkpt lat="46.93619" lon="8.57507">
        <ele>549</ele>
        <time>2021-08-10T10:42:04.799Z</time>
      </trkpt>
      <trkpt lat="46.93618" lon="8.57508">
        <ele>549</ele>
        <time>2021-08-10T10:42:05.799Z</time>
      </trkpt>
      <trkpt lat="46.93617" lon="8.57509">
        <ele>549</ele>
        <time>2021-08-10T10:42:06.799Z</time>
      </trkpt>
      <trkpt lat="46.93616" lon="8.57508">
        <ele>549</ele>
        <time>2021-08-10T10:42:07.799Z</time>
      </trkpt>
      <trkpt lat="46.93615" lon="8.57507">
        <ele>549</ele>
        <time>2021-08-10T10:42:08.800Z</time>
      </trkpt>
      <trkpt lat="46.93614" lon="8.57507">
        <ele>549</ele>
        <time>2021-08-10T10:42:09.800Z</time>
      </trkpt>
      <trkpt lat="46.93614" lon="8.57508">
        <ele>549</ele>
        <time>2021-08-10T10:42:10.800Z</time>
      </trkpt>
      <trkpt lat="46.93613" lon="8.57508">
        <ele>549</ele>
        <time>2021-08-10T10:42:11.800Z</time>
      </trkpt>
      <trkpt lat="46.93613" lon="8.57508">
        <ele>548</ele>
        <time>2021-08-10T10:42:12.799Z</time>
      </trkpt>
      <trkpt lat="46.93612" lon="8.57509">
        <ele>548</ele>
        <time>2021-08-10T10:42:13.799Z</time>
      </trkpt>
      <trkpt lat="46.93611" lon="8.57509">
        <ele>548</ele>
        <time>2021-08-10T10:42:14.799Z</time>
      </trkpt>
      <trkpt lat="46.9361" lon="8.57508">
        <ele>548</ele>
        <time>2021-08-10T10:42:15.799Z</time>
      </trkpt>
      <trkpt lat="46.9361" lon="8.57507">
        <ele>548</ele>
        <time>2021-08-10T10:42:16.800Z</time>
      </trkpt>
      <trkpt lat="46.9361" lon="8.57507">
        <ele>547</ele>
        <time>2021-08-10T10:42:17.799Z</time>
      </trkpt>
      <trkpt lat="46.9361" lon="8.57507">
        <ele>547</ele>
        <time>2021-08-10T10:42:18.800Z</time>
      </trkpt>
      <trkpt lat="46.93609" lon="8.57507">
        <ele>546</ele>
        <time>2021-08-10T10:42:19.799Z</time>
      </trkpt>
      <trkpt lat="46.93609" lon="8.57507">
        <ele>546</ele>
        <time>2021-08-10T10:42:20.800Z</time>
      </trkpt>
      <trkpt lat="46.93608" lon="8.57508">
        <ele>545</ele>
        <time>2021-08-10T10:42:21.799Z</time>
      </trkpt>
      <trkpt lat="46.93607" lon="8.57508">
        <ele>545</ele>
        <time>2021-08-10T10:42:22.799Z</time>
      </trkpt>
      <trkpt lat="46.93606" lon="8.57509">
        <ele>544</ele>
        <time>2021-08-10T10:42:23.799Z</time>
      </trkpt>
      <trkpt lat="46.93605" lon="8.5751">
        <ele>544</ele>
        <time>2021-08-10T10:42:24.799Z</time>
      </trkpt>
      <trkpt lat="46.93605" lon="8.57511">
        <ele>544</ele>
        <time>2021-08-10T10:42:25.800Z</time>
      </trkpt>
      <trkpt lat="46.93605" lon="8.57512">
        <ele>545</ele>
        <time>2021-08-10T10:42:26.800Z</time>
      </trkpt>
      <trkpt lat="46.93605" lon="8.57512">
        <ele>545</ele>
        <time>2021-08-10T10:42:27.799Z</time>
      </trkpt>
      <trkpt lat="46.93606" lon="8.57513">
        <ele>545</ele>
        <time>2021-08-10T10:42:28.800Z</time>
      </trkpt>
      <trkpt lat="46.93607" lon="8.57514">
        <ele>545</ele>
        <time>2021-08-10T10:42:29.800Z</time>
      </trkpt>
      <trkpt lat="46.93607" lon="8.57515">
        <ele>545</ele>
        <time>2021-08-10T10:42:30.800Z</time>
      </trkpt>
      <trkpt lat="46.93608" lon="8.57516">
        <ele>545</ele>
        <time>2021-08-10T10:42:31.799Z</time>
      </trkpt>
      <trkpt lat="46.93607" lon="8.57517">
        <ele>546</ele>
        <time>2021-08-10T10:42:32.800Z</time>
      </trkpt>
      <trkpt lat="46.93607" lon="8.57519">
        <ele>546</ele>
        <time>2021-08-10T10:42:33.800Z</time>
      </trkpt>
      <trkpt lat="46.93606" lon="8.57521">
        <ele>546</ele>
        <time>2021-08-10T10:42:34.800Z</time>
      </trkpt>
      <trkpt lat="46.93605" lon="8.57523">
        <ele>545</ele>
        <time>2021-08-10T10:42:35.800Z</time>
      </trkpt>
      <trkpt lat="46.93605" lon="8.57524">
        <ele>545</ele>
        <time>2021-08-10T10:42:36.800Z</time>
      </trkpt>
      <trkpt lat="46.93604" lon="8.57524">
        <ele>544</ele>
        <time>2021-08-10T10:42:37.799Z</time>
      </trkpt>
      <trkpt lat="46.93604" lon="8.57525">
        <ele>544</ele>
        <time>2021-08-10T10:42:38.799Z</time>
      </trkpt>
      <trkpt lat="46.93603" lon="8.57526">
        <ele>544</ele>
        <time>2021-08-10T10:42:39.799Z</time>
      </trkpt>
      <trkpt lat="46.93602" lon="8.57526">
        <ele>544</ele>
        <time>2021-08-10T10:42:40.800Z</time>
      </trkpt>
      <trkpt lat="46.93601" lon="8.57527">
        <ele>544</ele>
        <time>2021-08-10T10:42:41.800Z</time>
      </trkpt>
      <trkpt lat="46.93601" lon="8.57528">
        <ele>543</ele>
        <time>2021-08-10T10:42:42.799Z</time>
      </trkpt>
      <trkpt lat="46.936" lon="8.57528">
        <ele>542</ele>
        <time>2021-08-10T10:42:43.800Z</time>
      </trkpt>
      <trkpt lat="46.93599" lon="8.57529">
        <ele>542</ele>
        <time>2021-08-10T10:42:44.800Z</time>
      </trkpt>
      <trkpt lat="46.93598" lon="8.5753">
        <ele>541</ele>
        <time>2021-08-10T10:42:45.799Z</time>
      </trkpt>
      <trkpt lat="46.93597" lon="8.57531">
        <ele>540</ele>
        <time>2021-08-10T10:42:46.800Z</time>
      </trkpt>
      <trkpt lat="46.93596" lon="8.57532">
        <ele>540</ele>
        <time>2021-08-10T10:42:47.800Z</time>
      </trkpt>
      <trkpt lat="46.93595" lon="8.57534">
        <ele>540</ele>
        <time>2021-08-10T10:42:48.799Z</time>
      </trkpt>
      <trkpt lat="46.93595" lon="8.57535">
        <ele>540</ele>
        <time>2021-08-10T10:42:49.800Z</time>
      </trkpt>
      <trkpt lat="46.93595" lon="8.57536">
        <ele>540</ele>
        <time>2021-08-10T10:42:50.800Z</time>
      </trkpt>
      <trkpt lat="46.93595" lon="8.57537">
        <ele>539</ele>
        <time>2021-08-10T10:42:51.800Z</time>
      </trkpt>
      <trkpt lat="46.93595" lon="8.57538">
        <ele>539</ele>
        <time>2021-08-10T10:42:52.799Z</time>
      </trkpt>
      <trkpt lat="46.93595" lon="8.57539">
        <ele>538</ele>
        <time>2021-08-10T10:42:53.799Z</time>
      </trkpt>
      <trkpt lat="46.93595" lon="8.57539">
        <ele>538</ele>
        <time>2021-08-10T10:42:54.800Z</time>
      </trkpt>
      <trkpt lat="46.93596" lon="8.57541">
        <ele>537</ele>
        <time>2021-08-10T10:42:55.799Z</time>
      </trkpt>
      <trkpt lat="46.93596" lon="8.57542">
        <ele>536</ele>
        <time>2021-08-10T10:42:56.799Z</time>
      </trkpt>
      <trkpt lat="46.93597" lon="8.57542">
        <ele>536</ele>
        <time>2021-08-10T10:42:57.800Z</time>
      </trkpt>
      <trkpt lat="46.93598" lon="8.57542">
        <ele>535</ele>
        <time>2021-08-10T10:42:58.799Z</time>
      </trkpt>
      <trkpt lat="46.936" lon="8.57543">
        <ele>534</ele>
        <time>2021-08-10T10:42:59.799Z</time>
      </trkpt>
      <trkpt lat="46.93602" lon="8.57544">
        <ele>534</ele>
        <time>2021-08-10T10:43:00.800Z</time>
      </trkpt>
      <trkpt lat="46.93603" lon="8.57545">
        <ele>533</ele>
        <time>2021-08-10T10:43:01.799Z</time>
      </trkpt>
      <trkpt lat="46.93604" lon="8.57545">
        <ele>532</ele>
        <time>2021-08-10T10:43:02.799Z</time>
      </trkpt>
      <trkpt lat="46.93605" lon="8.57545">
        <ele>531</ele>
        <time>2021-08-10T10:43:03.799Z</time>
      </trkpt>
      <trkpt lat="46.93605" lon="8.57546">
        <ele>531</ele>
        <time>2021-08-10T10:43:04.799Z</time>
      </trkpt>
      <trkpt lat="46.93607" lon="8.57547">
        <ele>529</ele>
        <time>2021-08-10T10:43:05.799Z</time>
      </trkpt>
      <trkpt lat="46.93607" lon="8.57547">
        <ele>528</ele>
        <time>2021-08-10T10:43:06.799Z</time>
      </trkpt>
      <trkpt lat="46.93608" lon="8.57546">
        <ele>527</ele>
        <time>2021-08-10T10:43:07.799Z</time>
      </trkpt>
      <trkpt lat="46.93608" lon="8.57547">
        <ele>526</ele>
        <time>2021-08-10T10:43:08.799Z</time>
      </trkpt>
      <trkpt lat="46.93608" lon="8.57548">
        <ele>525</ele>
        <time>2021-08-10T10:43:09.799Z</time>
      </trkpt>
      <trkpt lat="46.93608" lon="8.57549">
        <ele>524</ele>
        <time>2021-08-10T10:43:10.799Z</time>
      </trkpt>
      <trkpt lat="46.93608" lon="8.5755">
        <ele>523</ele>
        <time>2021-08-10T10:43:11.799Z</time>
      </trkpt>
      <trkpt lat="46.93607" lon="8.57551">
        <ele>522</ele>
        <time>2021-08-10T10:43:12.800Z</time>
      </trkpt>
      <trkpt lat="46.93606" lon="8.57553">
        <ele>522</ele>
        <time>2021-08-10T10:43:13.799Z</time>
      </trkpt>
      <trkpt lat="46.93606" lon="8.57555">
        <ele>521</ele>
        <time>2021-08-10T10:43:14.799Z</time>
      </trkpt>
      <trkpt lat="46.93605" lon="8.57555">
        <ele>520</ele>
        <time>2021-08-10T10:43:15.800Z</time>
      </trkpt>
      <trkpt lat="46.93605" lon="8.57555">
        <ele>520</ele>
        <time>2021-08-10T10:43:16.799Z</time>
      </trkpt>
      <trkpt lat="46.93604" lon="8.57555">
        <ele>520</ele>
        <time>2021-08-10T10:43:17.799Z</time>
      </trkpt>
      <trkpt lat="46.93603" lon="8.57555">
        <ele>520</ele>
        <time>2021-08-10T10:43:18.799Z</time>
      </trkpt>
      <trkpt lat="46.93603" lon="8.57556">
        <ele>520</ele>
        <time>2021-08-10T10:43:19.799Z</time>
      </trkpt>
      <trkpt lat="46.93602" lon="8.57556">
        <ele>521</ele>
        <time>2021-08-10T10:43:20.799Z</time>
      </trkpt>
      <trkpt lat="46.93601" lon="8.57558">
        <ele>521</ele>
        <time>2021-08-10T10:43:21.799Z</time>
      </trkpt>
      <trkpt lat="46.936" lon="8.57559">
        <ele>521</ele>
        <time>2021-08-10T10:43:22.799Z</time>
      </trkpt>
      <trkpt lat="46.93599" lon="8.5756">
        <ele>522</ele>
        <time>2021-08-10T10:43:23.799Z</time>
      </trkpt>
      <trkpt lat="46.93599" lon="8.57561">
        <ele>522</ele>
        <time>2021-08-10T10:43:24.799Z</time>
      </trkpt>
      <trkpt lat="46.93598" lon="8.57561">
        <ele>522</ele>
        <time>2021-08-10T10:43:25.799Z</time>
      </trkpt>
      <trkpt lat="46.93597" lon="8.57561">
        <ele>522</ele>
        <time>2021-08-10T10:43:26.799Z</time>
      </trkpt>
      <trkpt lat="46.93596" lon="8.57562">
        <ele>522</ele>
        <time>2021-08-10T10:43:27.799Z</time>
      </trkpt>
      <trkpt lat="46.93595" lon="8.57562">
        <ele>522</ele>
        <time>2021-08-10T10:43:28.799Z</time>
      </trkpt>
      <trkpt lat="46.93594" lon="8.57563">
        <ele>522</ele>
        <time>2021-08-10T10:43:29.800Z</time>
      </trkpt>
      <trkpt lat="46.93592" lon="8.57564">
        <ele>522</ele>
        <time>2021-08-10T10:43:30.800Z</time>
      </trkpt>
      <trkpt lat="46.93591" lon="8.57565">
        <ele>522</ele>
        <time>2021-08-10T10:43:31.799Z</time>
      </trkpt>
      <trkpt lat="46.93591" lon="8.57565">
        <ele>522</ele>
        <time>2021-08-10T10:43:32.799Z</time>
      </trkpt>
      <trkpt lat="46.9359" lon="8.57565">
        <ele>521</ele>
        <time>2021-08-10T10:43:33.799Z</time>
      </trkpt>
      <trkpt lat="46.9359" lon="8.57565">
        <ele>521</ele>
        <time>2021-08-10T10:43:34.799Z</time>
      </trkpt>
      <trkpt lat="46.9359" lon="8.57566">
        <ele>520</ele>
        <time>2021-08-10T10:43:35.801Z</time>
      </trkpt>
      <trkpt lat="46.93589" lon="8.57566">
        <ele>520</ele>
        <time>2021-08-10T10:43:36.802Z</time>
      </trkpt>
      <trkpt lat="46.93588" lon="8.57565">
        <ele>520</ele>
        <time>2021-08-10T10:43:37.801Z</time>
      </trkpt>
      <trkpt lat="46.93587" lon="8.57565">
        <ele>520</ele>
        <time>2021-08-10T10:43:38.802Z</time>
      </trkpt>
      <trkpt lat="46.93586" lon="8.57565">
        <ele>520</ele>
        <time>2021-08-10T10:43:39.802Z</time>
      </trkpt>
      <trkpt lat="46.93585" lon="8.57565">
        <ele>520</ele>
        <time>2021-08-10T10:43:40.802Z</time>
      </trkpt>
      <trkpt lat="46.93585" lon="8.57565">
        <ele>520</ele>
        <time>2021-08-10T10:43:41.802Z</time>
      </trkpt>
      <trkpt lat="46.93584" lon="8.57565">
        <ele>519</ele>
        <time>2021-08-10T10:43:42.801Z</time>
      </trkpt>
      <trkpt lat="46.93583" lon="8.57565">
        <ele>519</ele>
        <time>2021-08-10T10:43:43.802Z</time>
      </trkpt>
      <trkpt lat="46.93583" lon="8.57565">
        <ele>518</ele>
        <time>2021-08-10T10:43:44.801Z</time>
      </trkpt>
      <trkpt lat="46.93582" lon="8.57565">
        <ele>518</ele>
        <time>2021-08-10T10:43:45.801Z</time>
      </trkpt>
      <trkpt lat="46.93581" lon="8.57565">
        <ele>517</ele>
        <time>2021-08-10T10:43:46.802Z</time>
      </trkpt>
      <trkpt lat="46.93581" lon="8.57565">
        <ele>517</ele>
        <time>2021-08-10T10:43:47.801Z</time>
      </trkpt>
      <trkpt lat="46.9358" lon="8.57566">
        <ele>516</ele>
        <time>2021-08-10T10:43:48.802Z</time>
      </trkpt>
      <trkpt lat="46.9358" lon="8.57566">
        <ele>516</ele>
        <time>2021-08-10T10:43:49.802Z</time>
      </trkpt>
      <trkpt lat="46.93579" lon="8.57567">
        <ele>515</ele>
        <time>2021-08-10T10:43:50.801Z</time>
      </trkpt>
      <trkpt lat="46.93578" lon="8.57567">
        <ele>515</ele>
        <time>2021-08-10T10:43:51.801Z</time>
      </trkpt>
      <trkpt lat="46.93578" lon="8.57568">
        <ele>515</ele>
        <time>2021-08-10T10:43:52.801Z</time>
      </trkpt>
      <trkpt lat="46.93577" lon="8.57568">
        <ele>515</ele>
        <time>2021-08-10T10:43:53.801Z</time>
      </trkpt>
      <trkpt lat="46.93577" lon="8.57568">
        <ele>515</ele>
        <time>2021-08-10T10:43:54.802Z</time>
      </trkpt>
      <trkpt lat="46.93576" lon="8.57568">
        <ele>515</ele>
        <time>2021-08-10T10:43:55.802Z</time>
      </trkpt>
      <trkpt lat="46.93576" lon="8.57568">
        <ele>515</ele>
        <time>2021-08-10T10:43:56.802Z</time>
      </trkpt>
      <trkpt lat="46.93575" lon="8.57569">
        <ele>516</ele>
        <time>2021-08-10T10:43:57.801Z</time>
      </trkpt>
      <trkpt lat="46.93575" lon="8.57569">
        <ele>516</ele>
        <time>2021-08-10T10:43:58.802Z</time>
      </trkpt>
      <trkpt lat="46.93574" lon="8.5757">
        <ele>517</ele>
        <time>2021-08-10T10:43:59.801Z</time>
      </trkpt>
      <trkpt lat="46.93574" lon="8.57571">
        <ele>517</ele>
        <time>2021-08-10T10:44:00.801Z</time>
      </trkpt>
      <trkpt lat="46.93574" lon="8.57572">
        <ele>518</ele>
        <time>2021-08-10T10:44:01.801Z</time>
      </trkpt>
      <trkpt lat="46.93574" lon="8.57573">
        <ele>518</ele>
        <time>2021-08-10T10:44:02.802Z</time>
      </trkpt>
      <trkpt lat="46.93574" lon="8.57573">
        <ele>519</ele>
        <time>2021-08-10T10:44:03.801Z</time>
      </trkpt>
      <trkpt lat="46.93574" lon="8.57574">
        <ele>520</ele>
        <time>2021-08-10T10:44:04.801Z</time>
      </trkpt>
      <trkpt lat="46.93574" lon="8.57574">
        <ele>520</ele>
        <time>2021-08-10T10:44:05.801Z</time>
      </trkpt>
      <trkpt lat="46.93573" lon="8.57575">
        <ele>521</ele>
        <time>2021-08-10T10:44:06.801Z</time>
      </trkpt>
      <trkpt lat="46.93573" lon="8.57575">
        <ele>521</ele>
        <time>2021-08-10T10:44:07.801Z</time>
      </trkpt>
      <trkpt lat="46.93573" lon="8.57577">
        <ele>521</ele>
        <time>2021-08-10T10:44:08.802Z</time>
      </trkpt>
      <trkpt lat="46.93573" lon="8.57579">
        <ele>522</ele>
        <time>2021-08-10T10:44:09.801Z</time>
      </trkpt>
      <trkpt lat="46.93572" lon="8.5758">
        <ele>522</ele>
        <time>2021-08-10T10:44:10.801Z</time>
      </trkpt>
      <trkpt lat="46.93572" lon="8.57581">
        <ele>522</ele>
        <time>2021-08-10T10:44:11.802Z</time>
      </trkpt>
      <trkpt lat="46.93572" lon="8.57581">
        <ele>522</ele>
        <time>2021-08-10T10:44:12.801Z</time>
      </trkpt>
      <trkpt lat="46.93572" lon="8.57582">
        <ele>522</ele>
        <time>2021-08-10T10:44:13.802Z</time>
      </trkpt>
      <trkpt lat="46.93571" lon="8.57582">
        <ele>522</ele>
        <time>2021-08-10T10:44:14.802Z</time>
      </trkpt>
      <trkpt lat="46.93571" lon="8.57582">
        <ele>522</ele>
        <time>2021-08-10T10:44:15.801Z</time>
      </trkpt>
      <trkpt lat="46.93571" lon="8.57583">
        <ele>521</ele>
        <time>2021-08-10T10:44:16.802Z</time>
      </trkpt>
      <trkpt lat="46.9357" lon="8.57583">
        <ele>521</ele>
        <time>2021-08-10T10:44:17.802Z</time>
      </trkpt>
      <trkpt lat="46.9357" lon="8.57584">
        <ele>522</ele>
        <time>2021-08-10T10:44:18.801Z</time>
      </trkpt>
      <trkpt lat="46.9357" lon="8.57586">
        <ele>522</ele>
        <time>2021-08-10T10:44:19.802Z</time>
      </trkpt>
      <trkpt lat="46.93569" lon="8.57587">
        <ele>522</ele>
        <time>2021-08-10T10:44:20.801Z</time>
      </trkpt>
      <trkpt lat="46.93568" lon="8.57589">
        <ele>522</ele>
        <time>2021-08-10T10:44:21.802Z</time>
      </trkpt>
      <trkpt lat="46.93568" lon="8.5759">
        <ele>522</ele>
        <time>2021-08-10T10:44:22.802Z</time>
      </trkpt>
      <trkpt lat="46.93567" lon="8.5759">
        <ele>522</ele>
        <time>2021-08-10T10:44:23.801Z</time>
      </trkpt>
      <trkpt lat="46.93567" lon="8.57591">
        <ele>522</ele>
        <time>2021-08-10T10:44:24.802Z</time>
      </trkpt>
      <trkpt lat="46.93566" lon="8.57591">
        <ele>522</ele>
        <time>2021-08-10T10:44:25.801Z</time>
      </trkpt>
      <trkpt lat="46.93566" lon="8.57592">
        <ele>522</ele>
        <time>2021-08-10T10:44:26.801Z</time>
      </trkpt>
      <trkpt lat="46.93565" lon="8.57593">
        <ele>522</ele>
        <time>2021-08-10T10:44:27.801Z</time>
      </trkpt>
      <trkpt lat="46.93565" lon="8.57594">
        <ele>522</ele>
        <time>2021-08-10T10:44:28.801Z</time>
      </trkpt>
      <trkpt lat="46.93564" lon="8.57594">
        <ele>521</ele>
        <time>2021-08-10T10:44:29.802Z</time>
      </trkpt>
      <trkpt lat="46.93564" lon="8.57595">
        <ele>521</ele>
        <time>2021-08-10T10:44:30.801Z</time>
      </trkpt>
      <trkpt lat="46.93563" lon="8.57596">
        <ele>521</ele>
        <time>2021-08-10T10:44:31.801Z</time>
      </trkpt>
      <trkpt lat="46.93563" lon="8.57596">
        <ele>521</ele>
        <time>2021-08-10T10:44:32.801Z</time>
      </trkpt>
      <trkpt lat="46.93562" lon="8.57598">
        <ele>521</ele>
        <time>2021-08-10T10:44:33.801Z</time>
      </trkpt>
      <trkpt lat="46.93563" lon="8.576">
        <ele>520</ele>
        <time>2021-08-10T10:44:34.802Z</time>
      </trkpt>
      <trkpt lat="46.93562" lon="8.57601">
        <ele>520</ele>
        <time>2021-08-10T10:44:35.801Z</time>
      </trkpt>
      <trkpt lat="46.93562" lon="8.57602">
        <ele>520</ele>
        <time>2021-08-10T10:44:36.801Z</time>
      </trkpt>
      <trkpt lat="46.93561" lon="8.57603">
        <ele>519</ele>
        <time>2021-08-10T10:44:37.801Z</time>
      </trkpt>
      <trkpt lat="46.93561" lon="8.57605">
        <ele>519</ele>
        <time>2021-08-10T10:44:38.802Z</time>
      </trkpt>
      <trkpt lat="46.93561" lon="8.57605">
        <ele>518</ele>
        <time>2021-08-10T10:44:39.802Z</time>
      </trkpt>
      <trkpt lat="46.93561" lon="8.57606">
        <ele>518</ele>
        <time>2021-08-10T10:44:40.801Z</time>
      </trkpt>
      <trkpt lat="46.93561" lon="8.57607">
        <ele>517</ele>
        <time>2021-08-10T10:44:41.802Z</time>
      </trkpt>
      <trkpt lat="46.9356" lon="8.57607">
        <ele>517</ele>
        <time>2021-08-10T10:44:42.802Z</time>
      </trkpt>
      <trkpt lat="46.9356" lon="8.57608">
        <ele>516</ele>
        <time>2021-08-10T10:44:43.801Z</time>
      </trkpt>
      <trkpt lat="46.9356" lon="8.57608">
        <ele>516</ele>
        <time>2021-08-10T10:44:44.801Z</time>
      </trkpt>
      <trkpt lat="46.9356" lon="8.57608">
        <ele>515</ele>
        <time>2021-08-10T10:44:45.802Z</time>
      </trkpt>
      <trkpt lat="46.9356" lon="8.57608">
        <ele>515</ele>
        <time>2021-08-10T10:44:46.802Z</time>
      </trkpt>
      <trkpt lat="46.9356" lon="8.57607">
        <ele>514</ele>
        <time>2021-08-10T10:44:47.802Z</time>
      </trkpt>
      <trkpt lat="46.9356" lon="8.57607">
        <ele>514</ele>
        <time>2021-08-10T10:44:48.802Z</time>
      </trkpt>
      <trkpt lat="46.93561" lon="8.57607">
        <ele>513</ele>
        <time>2021-08-10T10:44:49.801Z</time>
      </trkpt>
      <trkpt lat="46.93562" lon="8.57607">
        <ele>513</ele>
        <time>2021-08-10T10:44:50.802Z</time>
      </trkpt>
      <trkpt lat="46.93562" lon="8.57607">
        <ele>513</ele>
        <time>2021-08-10T10:44:51.801Z</time>
      </trkpt>
      <trkpt lat="46.93562" lon="8.57606">
        <ele>513</ele>
        <time>2021-08-10T10:44:52.801Z</time>
      </trkpt>
      <trkpt lat="46.93562" lon="8.57606">
        <ele>512</ele>
        <time>2021-08-10T10:44:53.801Z</time>
      </trkpt>
      <trkpt lat="46.93558" lon="8.57611">
        <ele>509</ele>
        <time>2021-08-10T10:44:54.802Z</time>
      </trkpt>
      <trkpt lat="46.93558" lon="8.57612">
        <ele>509</ele>
        <time>2021-08-10T10:44:55.801Z</time>
      </trkpt>
      <trkpt lat="46.93558" lon="8.57612">
        <ele>509</ele>
        <time>2021-08-10T10:44:56.801Z</time>
      </trkpt>
      <trkpt lat="46.93559" lon="8.57611">
        <ele>509</ele>
        <time>2021-08-10T10:44:57.802Z</time>
      </trkpt>
      <trkpt lat="46.93559" lon="8.57611">
        <ele>509</ele>
        <time>2021-08-10T10:44:58.802Z</time>
      </trkpt>
      <trkpt lat="46.9356" lon="8.57609">
        <ele>508</ele>
        <time>2021-08-10T10:44:59.802Z</time>
      </trkpt>
      <trkpt lat="46.9356" lon="8.57609">
        <ele>507</ele>
        <time>2021-08-10T10:45:00.801Z</time>
      </trkpt>
      <trkpt lat="46.9356" lon="8.57608">
        <ele>506</ele>
        <time>2021-08-10T10:45:01.802Z</time>
      </trkpt>
      <trkpt lat="46.9356" lon="8.57608">
        <ele>505</ele>
        <time>2021-08-10T10:45:02.802Z</time>
      </trkpt>
      <trkpt lat="46.9356" lon="8.57609">
        <ele>504</ele>
        <time>2021-08-10T10:45:03.803Z</time>
      </trkpt>
      <trkpt lat="46.9356" lon="8.5761">
        <ele>503</ele>
        <time>2021-08-10T10:45:04.803Z</time>
      </trkpt>
      <trkpt lat="46.9356" lon="8.57611">
        <ele>503</ele>
        <time>2021-08-10T10:45:05.803Z</time>
      </trkpt>
      <trkpt lat="46.9356" lon="8.57612">
        <ele>503</ele>
        <time>2021-08-10T10:45:06.802Z</time>
      </trkpt>
      <trkpt lat="46.9356" lon="8.57612">
        <ele>502</ele>
        <time>2021-08-10T10:45:07.802Z</time>
      </trkpt>
      <trkpt lat="46.93559" lon="8.57613">
        <ele>502</ele>
        <time>2021-08-10T10:45:08.803Z</time>
      </trkpt>
      <trkpt lat="46.93559" lon="8.57613">
        <ele>501</ele>
        <time>2021-08-10T10:45:09.803Z</time>
      </trkpt>
      <trkpt lat="46.93559" lon="8.57614">
        <ele>500</ele>
        <time>2021-08-10T10:45:10.803Z</time>
      </trkpt>
      <trkpt lat="46.93559" lon="8.57616">
        <ele>499</ele>
        <time>2021-08-10T10:45:11.803Z</time>
      </trkpt>
      <trkpt lat="46.93559" lon="8.57616">
        <ele>499</ele>
        <time>2021-08-10T10:45:12.803Z</time>
      </trkpt>
      <trkpt lat="46.93558" lon="8.57617">
        <ele>498</ele>
        <time>2021-08-10T10:45:13.803Z</time>
      </trkpt>
      <trkpt lat="46.93558" lon="8.57618">
        <ele>498</ele>
        <time>2021-08-10T10:45:14.802Z</time>
      </trkpt>
      <trkpt lat="46.93558" lon="8.5762">
        <ele>498</ele>
        <time>2021-08-10T10:45:15.802Z</time>
      </trkpt>
      <trkpt lat="46.93557" lon="8.57621">
        <ele>499</ele>
        <time>2021-08-10T10:45:16.803Z</time>
      </trkpt>
      <trkpt lat="46.93557" lon="8.57621">
        <ele>499</ele>
        <time>2021-08-10T10:45:17.803Z</time>
      </trkpt>
      <trkpt lat="46.93557" lon="8.57621">
        <ele>499</ele>
        <time>2021-08-10T10:45:18.802Z</time>
      </trkpt>
      <trkpt lat="46.93558" lon="8.57622">
        <ele>499</ele>
        <time>2021-08-10T10:45:19.803Z</time>
      </trkpt>
      <trkpt lat="46.93557" lon="8.57624">
        <ele>499</ele>
        <time>2021-08-10T10:45:20.803Z</time>
      </trkpt>
      <trkpt lat="46.93556" lon="8.57625">
        <ele>499</ele>
        <time>2021-08-10T10:45:21.802Z</time>
      </trkpt>
      <trkpt lat="46.93556" lon="8.57627">
        <ele>500</ele>
        <time>2021-08-10T10:45:22.802Z</time>
      </trkpt>
      <trkpt lat="46.93556" lon="8.57628">
        <ele>500</ele>
        <time>2021-08-10T10:45:23.802Z</time>
      </trkpt>
      <trkpt lat="46.93555" lon="8.57629">
        <ele>501</ele>
        <time>2021-08-10T10:45:24.803Z</time>
      </trkpt>
      <trkpt lat="46.93555" lon="8.5763">
        <ele>502</ele>
        <time>2021-08-10T10:45:25.803Z</time>
      </trkpt>
      <trkpt lat="46.93555" lon="8.57631">
        <ele>503</ele>
        <time>2021-08-10T10:45:26.803Z</time>
      </trkpt>
      <trkpt lat="46.93555" lon="8.57631">
        <ele>503</ele>
        <time>2021-08-10T10:45:27.802Z</time>
      </trkpt>
      <trkpt lat="46.93555" lon="8.57631">
        <ele>503</ele>
        <time>2021-08-10T10:45:28.803Z</time>
      </trkpt>
      <trkpt lat="46.93555" lon="8.57632">
        <ele>503</ele>
        <time>2021-08-10T10:45:29.802Z</time>
      </trkpt>
      <trkpt lat="46.93554" lon="8.57632">
        <ele>504</ele>
        <time>2021-08-10T10:45:30.802Z</time>
      </trkpt>
      <trkpt lat="46.93554" lon="8.57631">
        <ele>504</ele>
        <time>2021-08-10T10:45:31.802Z</time>
      </trkpt>
      <trkpt lat="46.93553" lon="8.57631">
        <ele>504</ele>
        <time>2021-08-10T10:45:32.802Z</time>
      </trkpt>
      <trkpt lat="46.93552" lon="8.57631">
        <ele>503</ele>
        <time>2021-08-10T10:45:33.803Z</time>
      </trkpt>
      <trkpt lat="46.93551" lon="8.57632">
        <ele>503</ele>
        <time>2021-08-10T10:45:34.803Z</time>
      </trkpt>
      <trkpt lat="46.9355" lon="8.57632">
        <ele>502</ele>
        <time>2021-08-10T10:45:35.802Z</time>
      </trkpt>
      <trkpt lat="46.9355" lon="8.57632">
        <ele>502</ele>
        <time>2021-08-10T10:45:36.803Z</time>
      </trkpt>
      <trkpt lat="46.9355" lon="8.57632">
        <ele>501</ele>
        <time>2021-08-10T10:45:37.803Z</time>
      </trkpt>
      <trkpt lat="46.9355" lon="8.57633">
        <ele>500</ele>
        <time>2021-08-10T10:45:38.803Z</time>
      </trkpt>
      <trkpt lat="46.93547" lon="8.57631">
        <ele>499</ele>
        <time>2021-08-10T10:45:39.804Z</time>
      </trkpt>
      <trkpt lat="46.93546" lon="8.57631">
        <ele>498</ele>
        <time>2021-08-10T10:45:40.803Z</time>
      </trkpt>
      <trkpt lat="46.93545" lon="8.57632">
        <ele>498</ele>
        <time>2021-08-10T10:45:41.804Z</time>
      </trkpt>
      <trkpt lat="46.93545" lon="8.57632">
        <ele>498</ele>
        <time>2021-08-10T10:45:42.803Z</time>
      </trkpt>
      <trkpt lat="46.93544" lon="8.57632">
        <ele>498</ele>
        <time>2021-08-10T10:45:43.803Z</time>
      </trkpt>
      <trkpt lat="46.93543" lon="8.57633">
        <ele>498</ele>
        <time>2021-08-10T10:45:44.803Z</time>
      </trkpt>
      <trkpt lat="46.93543" lon="8.57633">
        <ele>498</ele>
        <time>2021-08-10T10:45:45.803Z</time>
      </trkpt>
      <trkpt lat="46.93542" lon="8.57633">
        <ele>499</ele>
        <time>2021-08-10T10:45:46.803Z</time>
      </trkpt>
      <trkpt lat="46.93541" lon="8.57633">
        <ele>499</ele>
        <time>2021-08-10T10:45:47.803Z</time>
      </trkpt>
      <trkpt lat="46.93541" lon="8.57633">
        <ele>499</ele>
        <time>2021-08-10T10:45:48.803Z</time>
      </trkpt>
      <trkpt lat="46.9354" lon="8.57633">
        <ele>498</ele>
        <time>2021-08-10T10:45:49.803Z</time>
      </trkpt>
      <trkpt lat="46.9354" lon="8.57633">
        <ele>499</ele>
        <time>2021-08-10T10:45:50.804Z</time>
      </trkpt>
      <trkpt lat="46.93539" lon="8.57633">
        <ele>499</ele>
        <time>2021-08-10T10:45:51.803Z</time>
      </trkpt>
      <trkpt lat="46.93539" lon="8.57633">
        <ele>499</ele>
        <time>2021-08-10T10:45:52.803Z</time>
      </trkpt>
      <trkpt lat="46.93538" lon="8.57632">
        <ele>499</ele>
        <time>2021-08-10T10:45:53.804Z</time>
      </trkpt>
      <trkpt lat="46.93537" lon="8.57631">
        <ele>498</ele>
        <time>2021-08-10T10:45:54.803Z</time>
      </trkpt>
      <trkpt lat="46.93536" lon="8.5763">
        <ele>498</ele>
        <time>2021-08-10T10:45:55.803Z</time>
      </trkpt>
      <trkpt lat="46.93536" lon="8.57629">
        <ele>498</ele>
        <time>2021-08-10T10:45:56.803Z</time>
      </trkpt>
      <trkpt lat="46.93535" lon="8.57628">
        <ele>498</ele>
        <time>2021-08-10T10:45:57.803Z</time>
      </trkpt>
      <trkpt lat="46.93534" lon="8.57627">
        <ele>498</ele>
        <time>2021-08-10T10:45:58.803Z</time>
      </trkpt>
      <trkpt lat="46.93533" lon="8.57626">
        <ele>498</ele>
        <time>2021-08-10T10:45:59.803Z</time>
      </trkpt>
      <trkpt lat="46.93533" lon="8.57627">
        <ele>498</ele>
        <time>2021-08-10T10:46:00.803Z</time>
      </trkpt>
      <trkpt lat="46.93532" lon="8.57628">
        <ele>498</ele>
        <time>2021-08-10T10:46:01.804Z</time>
      </trkpt>
      <trkpt lat="46.93531" lon="8.57629">
        <ele>498</ele>
        <time>2021-08-10T10:46:02.803Z</time>
      </trkpt>
      <trkpt lat="46.93531" lon="8.57629">
        <ele>498</ele>
        <time>2021-08-10T10:46:03.803Z</time>
      </trkpt>
      <trkpt lat="46.93531" lon="8.57629">
        <ele>498</ele>
        <time>2021-08-10T10:46:04.803Z</time>
      </trkpt>
      <trkpt lat="46.9353" lon="8.57629">
        <ele>498</ele>
        <time>2021-08-10T10:46:05.803Z</time>
      </trkpt>
      <trkpt lat="46.93529" lon="8.5763">
        <ele>499</ele>
        <time>2021-08-10T10:46:06.803Z</time>
      </trkpt>
      <trkpt lat="46.93528" lon="8.5763">
        <ele>500</ele>
        <time>2021-08-10T10:46:07.803Z</time>
      </trkpt>
      <trkpt lat="46.93527" lon="8.57631">
        <ele>500</ele>
        <time>2021-08-10T10:46:08.803Z</time>
      </trkpt>
      <trkpt lat="46.93527" lon="8.57632">
        <ele>500</ele>
        <time>2021-08-10T10:46:09.803Z</time>
      </trkpt>
      <trkpt lat="46.93526" lon="8.57632">
        <ele>500</ele>
        <time>2021-08-10T10:46:10.803Z</time>
      </trkpt>
      <trkpt lat="46.93526" lon="8.57633">
        <ele>500</ele>
        <time>2021-08-10T10:46:11.803Z</time>
      </trkpt>
      <trkpt lat="46.93526" lon="8.57634">
        <ele>500</ele>
        <time>2021-08-10T10:46:12.804Z</time>
      </trkpt>
      <trkpt lat="46.93525" lon="8.57635">
        <ele>500</ele>
        <time>2021-08-10T10:46:13.803Z</time>
      </trkpt>
      <trkpt lat="46.93525" lon="8.57637">
        <ele>500</ele>
        <time>2021-08-10T10:46:14.803Z</time>
      </trkpt>
      <trkpt lat="46.93524" lon="8.57638">
        <ele>500</ele>
        <time>2021-08-10T10:46:15.804Z</time>
      </trkpt>
      <trkpt lat="46.93524" lon="8.5764">
        <ele>499</ele>
        <time>2021-08-10T10:46:16.803Z</time>
      </trkpt>
      <trkpt lat="46.93524" lon="8.57641">
        <ele>499</ele>
        <time>2021-08-10T10:46:17.803Z</time>
      </trkpt>
      <trkpt lat="46.93524" lon="8.57641">
        <ele>499</ele>
        <time>2021-08-10T10:46:18.803Z</time>
      </trkpt>
      <trkpt lat="46.93524" lon="8.57642">
        <ele>499</ele>
        <time>2021-08-10T10:46:19.804Z</time>
      </trkpt>
      <trkpt lat="46.93524" lon="8.57642">
        <ele>498</ele>
        <time>2021-08-10T10:46:20.804Z</time>
      </trkpt>
      <trkpt lat="46.93524" lon="8.57642">
        <ele>498</ele>
        <time>2021-08-10T10:46:21.804Z</time>
      </trkpt>
      <trkpt lat="46.93523" lon="8.57643">
        <ele>498</ele>
        <time>2021-08-10T10:46:22.804Z</time>
      </trkpt>
      <trkpt lat="46.93522" lon="8.57645">
        <ele>498</ele>
        <time>2021-08-10T10:46:23.803Z</time>
      </trkpt>
      <trkpt lat="46.93521" lon="8.57646">
        <ele>498</ele>
        <time>2021-08-10T10:46:24.803Z</time>
      </trkpt>
      <trkpt lat="46.9352" lon="8.57647">
        <ele>498</ele>
        <time>2021-08-10T10:46:25.803Z</time>
      </trkpt>
      <trkpt lat="46.9352" lon="8.57648">
        <ele>498</ele>
        <time>2021-08-10T10:46:26.804Z</time>
      </trkpt>
      <trkpt lat="46.93519" lon="8.57648">
        <ele>498</ele>
        <time>2021-08-10T10:46:27.804Z</time>
      </trkpt>
      <trkpt lat="46.93519" lon="8.57649">
        <ele>498</ele>
        <time>2021-08-10T10:46:28.804Z</time>
      </trkpt>
      <trkpt lat="46.93518" lon="8.57649">
        <ele>498</ele>
        <time>2021-08-10T10:46:29.804Z</time>
      </trkpt>
      <trkpt lat="46.93518" lon="8.57648">
        <ele>498</ele>
        <time>2021-08-10T10:46:30.804Z</time>
      </trkpt>
      <trkpt lat="46.93517" lon="8.57647">
        <ele>498</ele>
        <time>2021-08-10T10:46:31.804Z</time>
      </trkpt>
      <trkpt lat="46.93517" lon="8.57647">
        <ele>498</ele>
        <time>2021-08-10T10:46:32.803Z</time>
      </trkpt>
      <trkpt lat="46.93515" lon="8.57647">
        <ele>498</ele>
        <time>2021-08-10T10:46:33.804Z</time>
      </trkpt>
      <trkpt lat="46.93514" lon="8.57646">
        <ele>498</ele>
        <time>2021-08-10T10:46:34.804Z</time>
      </trkpt>
      <trkpt lat="46.93514" lon="8.57646">
        <ele>499</ele>
        <time>2021-08-10T10:46:35.804Z</time>
      </trkpt>
      <trkpt lat="46.93513" lon="8.57646">
        <ele>499</ele>
        <time>2021-08-10T10:46:36.804Z</time>
      </trkpt>
      <trkpt lat="46.93513" lon="8.57645">
        <ele>499</ele>
        <time>2021-08-10T10:46:37.803Z</time>
      </trkpt>
      <trkpt lat="46.93513" lon="8.57644">
        <ele>499</ele>
        <time>2021-08-10T10:46:38.803Z</time>
      </trkpt>
      <trkpt lat="46.93512" lon="8.57644">
        <ele>498</ele>
        <time>2021-08-10T10:46:39.804Z</time>
      </trkpt>
      <trkpt lat="46.93511" lon="8.57644">
        <ele>498</ele>
        <time>2021-08-10T10:46:40.803Z</time>
      </trkpt>
      <trkpt lat="46.93511" lon="8.57644">
        <ele>497</ele>
        <time>2021-08-10T10:46:41.804Z</time>
      </trkpt>
      <trkpt lat="46.9351" lon="8.57644">
        <ele>497</ele>
        <time>2021-08-10T10:46:42.804Z</time>
      </trkpt>
      <trkpt lat="46.93509" lon="8.57644">
        <ele>497</ele>
        <time>2021-08-10T10:46:43.804Z</time>
      </trkpt>
      <trkpt lat="46.93507" lon="8.57644">
        <ele>497</ele>
        <time>2021-08-10T10:46:44.804Z</time>
      </trkpt>
      <trkpt lat="46.93507" lon="8.57644">
        <ele>496</ele>
        <time>2021-08-10T10:46:45.804Z</time>
      </trkpt>
      <trkpt lat="46.93505" lon="8.57644">
        <ele>496</ele>
        <time>2021-08-10T10:46:46.804Z</time>
      </trkpt>
      <trkpt lat="46.93504" lon="8.57643">
        <ele>495</ele>
        <time>2021-08-10T10:46:47.803Z</time>
      </trkpt>
      <trkpt lat="46.93503" lon="8.57642">
        <ele>495</ele>
        <time>2021-08-10T10:46:48.804Z</time>
      </trkpt>
      <trkpt lat="46.93502" lon="8.57643">
        <ele>495</ele>
        <time>2021-08-10T10:46:49.804Z</time>
      </trkpt>
      <trkpt lat="46.93501" lon="8.57643">
        <ele>495</ele>
        <time>2021-08-10T10:46:50.804Z</time>
      </trkpt>
      <trkpt lat="46.935" lon="8.57643">
        <ele>495</ele>
        <time>2021-08-10T10:46:51.803Z</time>
      </trkpt>
      <trkpt lat="46.93499" lon="8.57643">
        <ele>495</ele>
        <time>2021-08-10T10:46:52.803Z</time>
      </trkpt>
      <trkpt lat="46.93498" lon="8.57643">
        <ele>496</ele>
        <time>2021-08-10T10:46:53.803Z</time>
      </trkpt>
      <trkpt lat="46.93497" lon="8.57643">
        <ele>496</ele>
        <time>2021-08-10T10:46:54.804Z</time>
      </trkpt>
      <trkpt lat="46.93495" lon="8.57643">
        <ele>497</ele>
        <time>2021-08-10T10:46:55.804Z</time>
      </trkpt>
      <trkpt lat="46.93491" lon="8.57645">
        <ele>501</ele>
        <time>2021-08-10T10:46:56.803Z</time>
      </trkpt>
      <trkpt lat="46.9349" lon="8.57645">
        <ele>502</ele>
        <time>2021-08-10T10:46:57.803Z</time>
      </trkpt>
      <trkpt lat="46.93489" lon="8.57644">
        <ele>503</ele>
        <time>2021-08-10T10:46:58.804Z</time>
      </trkpt>
      <trkpt lat="46.93489" lon="8.57644">
        <ele>503</ele>
        <time>2021-08-10T10:46:59.803Z</time>
      </trkpt>
      <trkpt lat="46.93487" lon="8.57645">
        <ele>504</ele>
        <time>2021-08-10T10:47:00.804Z</time>
      </trkpt>
      <trkpt lat="46.93486" lon="8.57647">
        <ele>504</ele>
        <time>2021-08-10T10:47:01.803Z</time>
      </trkpt>
      <trkpt lat="46.93485" lon="8.57647">
        <ele>504</ele>
        <time>2021-08-10T10:47:02.804Z</time>
      </trkpt>
      <trkpt lat="46.93485" lon="8.57648">
        <ele>504</ele>
        <time>2021-08-10T10:47:03.803Z</time>
      </trkpt>
      <trkpt lat="46.93484" lon="8.57649">
        <ele>503</ele>
        <time>2021-08-10T10:47:04.803Z</time>
      </trkpt>
      <trkpt lat="46.93483" lon="8.57649">
        <ele>502</ele>
        <time>2021-08-10T10:47:05.804Z</time>
      </trkpt>
      <trkpt lat="46.93482" lon="8.5765">
        <ele>501</ele>
        <time>2021-08-10T10:47:06.803Z</time>
      </trkpt>
      <trkpt lat="46.93481" lon="8.57651">
        <ele>501</ele>
        <time>2021-08-10T10:47:07.804Z</time>
      </trkpt>
      <trkpt lat="46.93481" lon="8.57651">
        <ele>499</ele>
        <time>2021-08-10T10:47:08.804Z</time>
      </trkpt>
      <trkpt lat="46.9348" lon="8.57653">
        <ele>498</ele>
        <time>2021-08-10T10:47:09.804Z</time>
      </trkpt>
      <trkpt lat="46.93478" lon="8.57654">
        <ele>497</ele>
        <time>2021-08-10T10:47:10.804Z</time>
      </trkpt>
      <trkpt lat="46.93477" lon="8.57654">
        <ele>496</ele>
        <time>2021-08-10T10:47:11.803Z</time>
      </trkpt>
      <trkpt lat="46.93476" lon="8.57654">
        <ele>495</ele>
        <time>2021-08-10T10:47:12.803Z</time>
      </trkpt>
      <trkpt lat="46.93475" lon="8.57654">
        <ele>495</ele>
        <time>2021-08-10T10:47:13.803Z</time>
      </trkpt>
      <trkpt lat="46.93474" lon="8.57655">
        <ele>494</ele>
        <time>2021-08-10T10:47:14.804Z</time>
      </trkpt>
      <trkpt lat="46.93473" lon="8.57655">
        <ele>494</ele>
        <time>2021-08-10T10:47:15.803Z</time>
      </trkpt>
      <trkpt lat="46.93472" lon="8.57655">
        <ele>494</ele>
        <time>2021-08-10T10:47:16.803Z</time>
      </trkpt>
      <trkpt lat="46.93471" lon="8.57656">
        <ele>493</ele>
        <time>2021-08-10T10:47:17.803Z</time>
      </trkpt>
      <trkpt lat="46.93471" lon="8.57656">
        <ele>493</ele>
        <time>2021-08-10T10:47:18.804Z</time>
      </trkpt>
      <trkpt lat="46.9347" lon="8.57657">
        <ele>492</ele>
        <time>2021-08-10T10:47:19.803Z</time>
      </trkpt>
      <trkpt lat="46.9347" lon="8.57657">
        <ele>492</ele>
        <time>2021-08-10T10:47:20.803Z</time>
      </trkpt>
      <trkpt lat="46.93469" lon="8.57658">
        <ele>491</ele>
        <time>2021-08-10T10:47:21.804Z</time>
      </trkpt>
      <trkpt lat="46.93468" lon="8.57658">
        <ele>491</ele>
        <time>2021-08-10T10:47:22.803Z</time>
      </trkpt>
      <trkpt lat="46.93468" lon="8.57659">
        <ele>492</ele>
        <time>2021-08-10T10:47:23.803Z</time>
      </trkpt>
      <trkpt lat="46.93467" lon="8.57659">
        <ele>492</ele>
        <time>2021-08-10T10:47:24.803Z</time>
      </trkpt>
      <trkpt lat="46.93466" lon="8.5766">
        <ele>492</ele>
        <time>2021-08-10T10:47:25.804Z</time>
      </trkpt>
      <trkpt lat="46.93466" lon="8.5766">
        <ele>492</ele>
        <time>2021-08-10T10:47:26.803Z</time>
      </trkpt>
      <trkpt lat="46.93465" lon="8.5766">
        <ele>492</ele>
        <time>2021-08-10T10:47:27.803Z</time>
      </trkpt>
      <trkpt lat="46.93465" lon="8.5766">
        <ele>493</ele>
        <time>2021-08-10T10:47:28.803Z</time>
      </trkpt>
      <trkpt lat="46.93464" lon="8.5766">
        <ele>493</ele>
        <time>2021-08-10T10:47:29.804Z</time>
      </trkpt>
      <trkpt lat="46.93463" lon="8.5766">
        <ele>493</ele>
        <time>2021-08-10T10:47:30.803Z</time>
      </trkpt>
      <trkpt lat="46.93462" lon="8.5766">
        <ele>493</ele>
        <time>2021-08-10T10:47:31.803Z</time>
      </trkpt>
      <trkpt lat="46.93461" lon="8.57659">
        <ele>493</ele>
        <time>2021-08-10T10:47:32.804Z</time>
      </trkpt>
      <trkpt lat="46.9346" lon="8.57658">
        <ele>494</ele>
        <time>2021-08-10T10:47:33.804Z</time>
      </trkpt>
      <trkpt lat="46.93459" lon="8.57657">
        <ele>494</ele>
        <time>2021-08-10T10:47:34.804Z</time>
      </trkpt>
      <trkpt lat="46.93458" lon="8.57657">
        <ele>494</ele>
        <time>2021-08-10T10:47:35.803Z</time>
      </trkpt>
      <trkpt lat="46.93457" lon="8.57656">
        <ele>494</ele>
        <time>2021-08-10T10:47:36.803Z</time>
      </trkpt>
      <trkpt lat="46.93456" lon="8.57656">
        <ele>494</ele>
        <time>2021-08-10T10:47:37.803Z</time>
      </trkpt>
      <trkpt lat="46.93457" lon="8.57656">
        <ele>494</ele>
        <time>2021-08-10T10:47:38.804Z</time>
      </trkpt>
      <trkpt lat="46.93455" lon="8.57657">
        <ele>493</ele>
        <time>2021-08-10T10:47:39.804Z</time>
      </trkpt>
      <trkpt lat="46.93454" lon="8.57658">
        <ele>493</ele>
        <time>2021-08-10T10:47:40.804Z</time>
      </trkpt>
      <trkpt lat="46.93454" lon="8.57659">
        <ele>492</ele>
        <time>2021-08-10T10:47:41.804Z</time>
      </trkpt>
      <trkpt lat="46.93453" lon="8.5766">
        <ele>492</ele>
        <time>2021-08-10T10:47:42.804Z</time>
      </trkpt>
      <trkpt lat="46.93452" lon="8.5766">
        <ele>492</ele>
        <time>2021-08-10T10:47:43.804Z</time>
      </trkpt>
      <trkpt lat="46.93451" lon="8.57661">
        <ele>491</ele>
        <time>2021-08-10T10:47:44.804Z</time>
      </trkpt>
      <trkpt lat="46.9345" lon="8.57662">
        <ele>491</ele>
        <time>2021-08-10T10:47:45.804Z</time>
      </trkpt>
      <trkpt lat="46.93449" lon="8.57663">
        <ele>490</ele>
        <time>2021-08-10T10:47:46.805Z</time>
      </trkpt>
      <trkpt lat="46.93448" lon="8.57664">
        <ele>489</ele>
        <time>2021-08-10T10:47:47.804Z</time>
      </trkpt>
      <trkpt lat="46.93447" lon="8.57665">
        <ele>489</ele>
        <time>2021-08-10T10:47:48.804Z</time>
      </trkpt>
      <trkpt lat="46.93446" lon="8.57666">
        <ele>488</ele>
        <time>2021-08-10T10:47:49.804Z</time>
      </trkpt>
      <trkpt lat="46.93446" lon="8.57667">
        <ele>488</ele>
        <time>2021-08-10T10:47:50.805Z</time>
      </trkpt>
      <trkpt lat="46.93445" lon="8.57668">
        <ele>488</ele>
        <time>2021-08-10T10:47:51.804Z</time>
      </trkpt>
      <trkpt lat="46.93444" lon="8.57668">
        <ele>488</ele>
        <time>2021-08-10T10:47:52.804Z</time>
      </trkpt>
      <trkpt lat="46.93443" lon="8.57669">
        <ele>487</ele>
        <time>2021-08-10T10:47:53.804Z</time>
      </trkpt>
      <trkpt lat="46.93442" lon="8.57669">
        <ele>487</ele>
        <time>2021-08-10T10:47:54.804Z</time>
      </trkpt>
      <trkpt lat="46.93441" lon="8.57671">
        <ele>486</ele>
        <time>2021-08-10T10:47:55.804Z</time>
      </trkpt>
      <trkpt lat="46.9344" lon="8.57672">
        <ele>486</ele>
        <time>2021-08-10T10:47:56.804Z</time>
      </trkpt>
      <trkpt lat="46.9344" lon="8.57672">
        <ele>486</ele>
        <time>2021-08-10T10:47:57.805Z</time>
      </trkpt>
      <trkpt lat="46.93439" lon="8.57672">
        <ele>485</ele>
        <time>2021-08-10T10:47:58.804Z</time>
      </trkpt>
      <trkpt lat="46.93438" lon="8.57674">
        <ele>485</ele>
        <time>2021-08-10T10:47:59.804Z</time>
      </trkpt>
      <trkpt lat="46.93437" lon="8.57674">
        <ele>484</ele>
        <time>2021-08-10T10:48:00.804Z</time>
      </trkpt>
      <trkpt lat="46.93436" lon="8.57674">
        <ele>483</ele>
        <time>2021-08-10T10:48:01.804Z</time>
      </trkpt>
      <trkpt lat="46.93436" lon="8.57675">
        <ele>483</ele>
        <time>2021-08-10T10:48:02.805Z</time>
      </trkpt>
      <trkpt lat="46.93435" lon="8.57675">
        <ele>482</ele>
        <time>2021-08-10T10:48:03.804Z</time>
      </trkpt>
      <trkpt lat="46.93435" lon="8.57675">
        <ele>481</ele>
        <time>2021-08-10T10:48:04.804Z</time>
      </trkpt>
      <trkpt lat="46.93434" lon="8.57675">
        <ele>480</ele>
        <time>2021-08-10T10:48:05.804Z</time>
      </trkpt>
      <trkpt lat="46.93434" lon="8.57676">
        <ele>480</ele>
        <time>2021-08-10T10:48:06.804Z</time>
      </trkpt>
      <trkpt lat="46.93434" lon="8.57676">
        <ele>479</ele>
        <time>2021-08-10T10:48:07.804Z</time>
      </trkpt>
      <trkpt lat="46.93433" lon="8.57677">
        <ele>479</ele>
        <time>2021-08-10T10:48:08.804Z</time>
      </trkpt>
      <trkpt lat="46.93433" lon="8.57677">
        <ele>478</ele>
        <time>2021-08-10T10:48:09.804Z</time>
      </trkpt>
      <trkpt lat="46.93433" lon="8.57677">
        <ele>478</ele>
        <time>2021-08-10T10:48:10.804Z</time>
      </trkpt>
      <trkpt lat="46.93432" lon="8.57677">
        <ele>475</ele>
        <time>2021-08-10T10:48:11.805Z</time>
      </trkpt>
      <trkpt lat="46.93431" lon="8.57678">
        <ele>475</ele>
        <time>2021-08-10T10:48:12.806Z</time>
      </trkpt>
      <trkpt lat="46.9343" lon="8.57679">
        <ele>475</ele>
        <time>2021-08-10T10:48:13.806Z</time>
      </trkpt>
      <trkpt lat="46.9343" lon="8.57679">
        <ele>475</ele>
        <time>2021-08-10T10:48:14.806Z</time>
      </trkpt>
      <trkpt lat="46.93429" lon="8.5768">
        <ele>475</ele>
        <time>2021-08-10T10:48:15.805Z</time>
      </trkpt>
      <trkpt lat="46.93428" lon="8.57681">
        <ele>475</ele>
        <time>2021-08-10T10:48:16.806Z</time>
      </trkpt>
      <trkpt lat="46.93427" lon="8.57681">
        <ele>475</ele>
        <time>2021-08-10T10:48:17.806Z</time>
      </trkpt>
      <trkpt lat="46.93426" lon="8.57682">
        <ele>475</ele>
        <time>2021-08-10T10:48:18.806Z</time>
      </trkpt>
      <trkpt lat="46.93425" lon="8.57682">
        <ele>475</ele>
        <time>2021-08-10T10:48:19.806Z</time>
      </trkpt>
      <trkpt lat="46.93424" lon="8.57683">
        <ele>475</ele>
        <time>2021-08-10T10:48:20.805Z</time>
      </trkpt>
      <trkpt lat="46.93423" lon="8.57683">
        <ele>475</ele>
        <time>2021-08-10T10:48:21.805Z</time>
      </trkpt>
      <trkpt lat="46.93422" lon="8.57684">
        <ele>475</ele>
        <time>2021-08-10T10:48:22.806Z</time>
      </trkpt>
      <trkpt lat="46.93421" lon="8.57685">
        <ele>475</ele>
        <time>2021-08-10T10:48:23.805Z</time>
      </trkpt>
      <trkpt lat="46.9342" lon="8.57685">
        <ele>476</ele>
        <time>2021-08-10T10:48:24.806Z</time>
      </trkpt>
      <trkpt lat="46.93419" lon="8.57686">
        <ele>476</ele>
        <time>2021-08-10T10:48:25.806Z</time>
      </trkpt>
      <trkpt lat="46.93418" lon="8.57686">
        <ele>477</ele>
        <time>2021-08-10T10:48:26.806Z</time>
      </trkpt>
      <trkpt lat="46.93417" lon="8.57686">
        <ele>477</ele>
        <time>2021-08-10T10:48:27.805Z</time>
      </trkpt>
      <trkpt lat="46.93417" lon="8.57686">
        <ele>478</ele>
        <time>2021-08-10T10:48:28.805Z</time>
      </trkpt>
      <trkpt lat="46.93416" lon="8.57686">
        <ele>478</ele>
        <time>2021-08-10T10:48:29.806Z</time>
      </trkpt>
      <trkpt lat="46.93415" lon="8.57687">
        <ele>479</ele>
        <time>2021-08-10T10:48:30.806Z</time>
      </trkpt>
      <trkpt lat="46.93414" lon="8.57687">
        <ele>479</ele>
        <time>2021-08-10T10:48:31.806Z</time>
      </trkpt>
      <trkpt lat="46.93414" lon="8.57687">
        <ele>480</ele>
        <time>2021-08-10T10:48:32.805Z</time>
      </trkpt>
      <trkpt lat="46.93413" lon="8.57688">
        <ele>480</ele>
        <time>2021-08-10T10:48:33.805Z</time>
      </trkpt>
      <trkpt lat="46.93412" lon="8.57688">
        <ele>480</ele>
        <time>2021-08-10T10:48:34.806Z</time>
      </trkpt>
      <trkpt lat="46.93412" lon="8.57688">
        <ele>480</ele>
        <time>2021-08-10T10:48:35.806Z</time>
      </trkpt>
      <trkpt lat="46.93411" lon="8.57688">
        <ele>481</ele>
        <time>2021-08-10T10:48:36.806Z</time>
      </trkpt>
      <trkpt lat="46.9341" lon="8.57687">
        <ele>481</ele>
        <time>2021-08-10T10:48:37.805Z</time>
      </trkpt>
      <trkpt lat="46.93409" lon="8.57687">
        <ele>480</ele>
        <time>2021-08-10T10:48:38.806Z</time>
      </trkpt>
      <trkpt lat="46.93408" lon="8.57687">
        <ele>480</ele>
        <time>2021-08-10T10:48:39.805Z</time>
      </trkpt>
      <trkpt lat="46.93407" lon="8.57687">
        <ele>480</ele>
        <time>2021-08-10T10:48:40.805Z</time>
      </trkpt>
      <trkpt lat="46.93407" lon="8.57686">
        <ele>480</ele>
        <time>2021-08-10T10:48:41.806Z</time>
      </trkpt>
      <trkpt lat="46.93406" lon="8.57686">
        <ele>480</ele>
        <time>2021-08-10T10:48:42.806Z</time>
      </trkpt>
      <trkpt lat="46.93404" lon="8.57686">
        <ele>481</ele>
        <time>2021-08-10T10:48:43.806Z</time>
      </trkpt>
      <trkpt lat="46.93403" lon="8.57687">
        <ele>482</ele>
        <time>2021-08-10T10:48:44.806Z</time>
      </trkpt>
      <trkpt lat="46.93402" lon="8.57687">
        <ele>482</ele>
        <time>2021-08-10T10:48:45.805Z</time>
      </trkpt>
      <trkpt lat="46.93401" lon="8.57688">
        <ele>482</ele>
        <time>2021-08-10T10:48:46.805Z</time>
      </trkpt>
      <trkpt lat="46.934" lon="8.57689">
        <ele>482</ele>
        <time>2021-08-10T10:48:47.805Z</time>
      </trkpt>
      <trkpt lat="46.93399" lon="8.5769">
        <ele>482</ele>
        <time>2021-08-10T10:48:48.805Z</time>
      </trkpt>
      <trkpt lat="46.93399" lon="8.57691">
        <ele>482</ele>
        <time>2021-08-10T10:48:49.806Z</time>
      </trkpt>
      <trkpt lat="46.93397" lon="8.57691">
        <ele>482</ele>
        <time>2021-08-10T10:48:50.805Z</time>
      </trkpt>
      <trkpt lat="46.93397" lon="8.57692">
        <ele>482</ele>
        <time>2021-08-10T10:48:51.806Z</time>
      </trkpt>
      <trkpt lat="46.93396" lon="8.57693">
        <ele>481</ele>
        <time>2021-08-10T10:48:52.806Z</time>
      </trkpt>
      <trkpt lat="46.93395" lon="8.57694">
        <ele>481</ele>
        <time>2021-08-10T10:48:53.806Z</time>
      </trkpt>
      <trkpt lat="46.93394" lon="8.57695">
        <ele>480</ele>
        <time>2021-08-10T10:48:54.806Z</time>
      </trkpt>
      <trkpt lat="46.93394" lon="8.57696">
        <ele>479</ele>
        <time>2021-08-10T10:48:55.806Z</time>
      </trkpt>
      <trkpt lat="46.93393" lon="8.57696">
        <ele>479</ele>
        <time>2021-08-10T10:48:56.806Z</time>
      </trkpt>
      <trkpt lat="46.93392" lon="8.57697">
        <ele>478</ele>
        <time>2021-08-10T10:48:57.806Z</time>
      </trkpt>
      <trkpt lat="46.93392" lon="8.57697">
        <ele>477</ele>
        <time>2021-08-10T10:48:58.806Z</time>
      </trkpt>
      <trkpt lat="46.93391" lon="8.57698">
        <ele>476</ele>
        <time>2021-08-10T10:48:59.805Z</time>
      </trkpt>
      <trkpt lat="46.9339" lon="8.57698">
        <ele>476</ele>
        <time>2021-08-10T10:49:00.806Z</time>
      </trkpt>
      <trkpt lat="46.93389" lon="8.57699">
        <ele>475</ele>
        <time>2021-08-10T10:49:01.805Z</time>
      </trkpt>
      <trkpt lat="46.93389" lon="8.57699">
        <ele>476</ele>
        <time>2021-08-10T10:49:02.805Z</time>
      </trkpt>
      <trkpt lat="46.93388" lon="8.577">
        <ele>476</ele>
        <time>2021-08-10T10:49:03.805Z</time>
      </trkpt>
      <trkpt lat="46.93387" lon="8.57702">
        <ele>476</ele>
        <time>2021-08-10T10:49:04.806Z</time>
      </trkpt>
      <trkpt lat="46.93387" lon="8.57702">
        <ele>477</ele>
        <time>2021-08-10T10:49:05.806Z</time>
      </trkpt>
      <trkpt lat="46.93386" lon="8.57703">
        <ele>477</ele>
        <time>2021-08-10T10:49:06.805Z</time>
      </trkpt>
      <trkpt lat="46.93385" lon="8.57704">
        <ele>477</ele>
        <time>2021-08-10T10:49:07.806Z</time>
      </trkpt>
      <trkpt lat="46.93384" lon="8.57704">
        <ele>477</ele>
        <time>2021-08-10T10:49:08.805Z</time>
      </trkpt>
      <trkpt lat="46.93383" lon="8.57705">
        <ele>477</ele>
        <time>2021-08-10T10:49:09.805Z</time>
      </trkpt>
      <trkpt lat="46.93382" lon="8.57705">
        <ele>477</ele>
        <time>2021-08-10T10:49:10.805Z</time>
      </trkpt>
      <trkpt lat="46.93381" lon="8.57705">
        <ele>477</ele>
        <time>2021-08-10T10:49:11.805Z</time>
      </trkpt>
      <trkpt lat="46.9338" lon="8.57705">
        <ele>476</ele>
        <time>2021-08-10T10:49:12.805Z</time>
      </trkpt>
      <trkpt lat="46.9338" lon="8.57705">
        <ele>476</ele>
        <time>2021-08-10T10:49:13.806Z</time>
      </trkpt>
      <trkpt lat="46.93378" lon="8.57705">
        <ele>476</ele>
        <time>2021-08-10T10:49:14.806Z</time>
      </trkpt>
      <trkpt lat="46.93377" lon="8.57705">
        <ele>476</ele>
        <time>2021-08-10T10:49:15.805Z</time>
      </trkpt>
      <trkpt lat="46.93376" lon="8.57705">
        <ele>476</ele>
        <time>2021-08-10T10:49:16.806Z</time>
      </trkpt>
      <trkpt lat="46.93376" lon="8.57705">
        <ele>476</ele>
        <time>2021-08-10T10:49:17.805Z</time>
      </trkpt>
      <trkpt lat="46.93375" lon="8.57704">
        <ele>475</ele>
        <time>2021-08-10T10:49:18.806Z</time>
      </trkpt>
      <trkpt lat="46.93374" lon="8.57704">
        <ele>475</ele>
        <time>2021-08-10T10:49:19.806Z</time>
      </trkpt>
      <trkpt lat="46.93373" lon="8.57704">
        <ele>475</ele>
        <time>2021-08-10T10:49:20.806Z</time>
      </trkpt>
      <trkpt lat="46.93373" lon="8.57704">
        <ele>475</ele>
        <time>2021-08-10T10:49:21.806Z</time>
      </trkpt>
      <trkpt lat="46.93372" lon="8.57704">
        <ele>476</ele>
        <time>2021-08-10T10:49:22.806Z</time>
      </trkpt>
      <trkpt lat="46.93371" lon="8.57704">
        <ele>476</ele>
        <time>2021-08-10T10:49:23.805Z</time>
      </trkpt>
      <trkpt lat="46.9337" lon="8.57703">
        <ele>476</ele>
        <time>2021-08-10T10:49:24.806Z</time>
      </trkpt>
      <trkpt lat="46.9337" lon="8.57703">
        <ele>475</ele>
        <time>2021-08-10T10:49:25.806Z</time>
      </trkpt>
      <trkpt lat="46.93369" lon="8.57703">
        <ele>475</ele>
        <time>2021-08-10T10:49:26.806Z</time>
      </trkpt>
      <trkpt lat="46.93368" lon="8.57703">
        <ele>474</ele>
        <time>2021-08-10T10:49:27.806Z</time>
      </trkpt>
      <trkpt lat="46.93368" lon="8.57704">
        <ele>473</ele>
        <time>2021-08-10T10:49:28.805Z</time>
      </trkpt>
      <trkpt lat="46.93367" lon="8.57704">
        <ele>473</ele>
        <time>2021-08-10T10:49:29.806Z</time>
      </trkpt>
      <trkpt lat="46.93366" lon="8.57704">
        <ele>473</ele>
        <time>2021-08-10T10:49:30.806Z</time>
      </trkpt>
      <trkpt lat="46.93365" lon="8.57705">
        <ele>472</ele>
        <time>2021-08-10T10:49:31.805Z</time>
      </trkpt>
      <trkpt lat="46.93364" lon="8.57705">
        <ele>472</ele>
        <time>2021-08-10T10:49:32.805Z</time>
      </trkpt>
      <trkpt lat="46.93362" lon="8.57706">
        <ele>471</ele>
        <time>2021-08-10T10:49:33.806Z</time>
      </trkpt>
      <trkpt lat="46.93361" lon="8.57706">
        <ele>471</ele>
        <time>2021-08-10T10:49:34.805Z</time>
      </trkpt>
      <trkpt lat="46.9336" lon="8.57707">
        <ele>470</ele>
        <time>2021-08-10T10:49:35.806Z</time>
      </trkpt>
      <trkpt lat="46.93359" lon="8.57706">
        <ele>469</ele>
        <time>2021-08-10T10:49:36.806Z</time>
      </trkpt>
      <trkpt lat="46.93358" lon="8.57706">
        <ele>469</ele>
        <time>2021-08-10T10:49:37.806Z</time>
      </trkpt>
      <trkpt lat="46.93357" lon="8.57706">
        <ele>468</ele>
        <time>2021-08-10T10:49:38.806Z</time>
      </trkpt>
      <trkpt lat="46.93356" lon="8.57706">
        <ele>467</ele>
        <time>2021-08-10T10:49:39.806Z</time>
      </trkpt>
      <trkpt lat="46.93356" lon="8.57706">
        <ele>467</ele>
        <time>2021-08-10T10:49:40.806Z</time>
      </trkpt>
      <trkpt lat="46.93356" lon="8.57706">
        <ele>465</ele>
        <time>2021-08-10T10:49:41.805Z</time>
      </trkpt>
      <trkpt lat="46.93355" lon="8.57707">
        <ele>464</ele>
        <time>2021-08-10T10:49:42.806Z</time>
      </trkpt>
      <trkpt lat="46.93354" lon="8.57707">
        <ele>464</ele>
        <time>2021-08-10T10:49:43.806Z</time>
      </trkpt>
      <trkpt lat="46.93353" lon="8.57707">
        <ele>463</ele>
        <time>2021-08-10T10:49:44.806Z</time>
      </trkpt>
      <trkpt lat="46.93353" lon="8.57706">
        <ele>463</ele>
        <time>2021-08-10T10:49:45.805Z</time>
      </trkpt>
      <trkpt lat="46.93352" lon="8.57706">
        <ele>464</ele>
        <time>2021-08-10T10:49:46.805Z</time>
      </trkpt>
      <trkpt lat="46.93351" lon="8.57705">
        <ele>464</ele>
        <time>2021-08-10T10:49:47.806Z</time>
      </trkpt>
      <trkpt lat="46.9335" lon="8.57705">
        <ele>464</ele>
        <time>2021-08-10T10:49:48.805Z</time>
      </trkpt>
      <trkpt lat="46.93349" lon="8.57704">
        <ele>464</ele>
        <time>2021-08-10T10:49:49.805Z</time>
      </trkpt>
      <trkpt lat="46.93348" lon="8.57703">
        <ele>464</ele>
        <time>2021-08-10T10:49:50.806Z</time>
      </trkpt>
      <trkpt lat="46.93347" lon="8.57702">
        <ele>465</ele>
        <time>2021-08-10T10:49:51.805Z</time>
      </trkpt>
      <trkpt lat="46.93346" lon="8.57701">
        <ele>465</ele>
        <time>2021-08-10T10:49:52.805Z</time>
      </trkpt>
      <trkpt lat="46.93346" lon="8.577">
        <ele>466</ele>
        <time>2021-08-10T10:49:53.806Z</time>
      </trkpt>
      <trkpt lat="46.93345" lon="8.57699">
        <ele>467</ele>
        <time>2021-08-10T10:49:54.806Z</time>
      </trkpt>
      <trkpt lat="46.93345" lon="8.57698">
        <ele>467</ele>
        <time>2021-08-10T10:49:55.805Z</time>
      </trkpt>
      <trkpt lat="46.93344" lon="8.57698">
        <ele>467</ele>
        <time>2021-08-10T10:49:56.806Z</time>
      </trkpt>
      <trkpt lat="46.93344" lon="8.57697">
        <ele>468</ele>
        <time>2021-08-10T10:49:57.806Z</time>
      </trkpt>
      <trkpt lat="46.93344" lon="8.57696">
        <ele>468</ele>
        <time>2021-08-10T10:49:58.805Z</time>
      </trkpt>
      <trkpt lat="46.93342" lon="8.57695">
        <ele>468</ele>
        <time>2021-08-10T10:49:59.806Z</time>
      </trkpt>
      <trkpt lat="46.93342" lon="8.57694">
        <ele>467</ele>
        <time>2021-08-10T10:50:00.806Z</time>
      </trkpt>
      <trkpt lat="46.93341" lon="8.57693">
        <ele>467</ele>
        <time>2021-08-10T10:50:01.806Z</time>
      </trkpt>
      <trkpt lat="46.9334" lon="8.57692">
        <ele>467</ele>
        <time>2021-08-10T10:50:02.806Z</time>
      </trkpt>
      <trkpt lat="46.93339" lon="8.57692">
        <ele>467</ele>
        <time>2021-08-10T10:50:03.805Z</time>
      </trkpt>
      <trkpt lat="46.93338" lon="8.57692">
        <ele>467</ele>
        <time>2021-08-10T10:50:04.806Z</time>
      </trkpt>
      <trkpt lat="46.93336" lon="8.57692">
        <ele>467</ele>
        <time>2021-08-10T10:50:05.805Z</time>
      </trkpt>
      <trkpt lat="46.93336" lon="8.57692">
        <ele>467</ele>
        <time>2021-08-10T10:50:06.805Z</time>
      </trkpt>
      <trkpt lat="46.93334" lon="8.57692">
        <ele>467</ele>
        <time>2021-08-10T10:50:07.806Z</time>
      </trkpt>
      <trkpt lat="46.93333" lon="8.57693">
        <ele>467</ele>
        <time>2021-08-10T10:50:08.806Z</time>
      </trkpt>
      <trkpt lat="46.93332" lon="8.57693">
        <ele>467</ele>
        <time>2021-08-10T10:50:09.806Z</time>
      </trkpt>
      <trkpt lat="46.93331" lon="8.57693">
        <ele>467</ele>
        <time>2021-08-10T10:50:10.806Z</time>
      </trkpt>
      <trkpt lat="46.93331" lon="8.57693">
        <ele>467</ele>
        <time>2021-08-10T10:50:11.806Z</time>
      </trkpt>
      <trkpt lat="46.9333" lon="8.57694">
        <ele>468</ele>
        <time>2021-08-10T10:50:12.806Z</time>
      </trkpt>
      <trkpt lat="46.93329" lon="8.57694">
        <ele>468</ele>
        <time>2021-08-10T10:50:13.806Z</time>
      </trkpt>
      <trkpt lat="46.93328" lon="8.57695">
        <ele>469</ele>
        <time>2021-08-10T10:50:14.806Z</time>
      </trkpt>
      <trkpt lat="46.93327" lon="8.57695">
        <ele>470</ele>
        <time>2021-08-10T10:50:15.805Z</time>
      </trkpt>
      <trkpt lat="46.93326" lon="8.57696">
        <ele>470</ele>
        <time>2021-08-10T10:50:16.805Z</time>
      </trkpt>
      <trkpt lat="46.93325" lon="8.57696">
        <ele>471</ele>
        <time>2021-08-10T10:50:17.806Z</time>
      </trkpt>
      <trkpt lat="46.93324" lon="8.57697">
        <ele>471</ele>
        <time>2021-08-10T10:50:18.806Z</time>
      </trkpt>
      <trkpt lat="46.93323" lon="8.57697">
        <ele>471</ele>
        <time>2021-08-10T10:50:19.805Z</time>
      </trkpt>
      <trkpt lat="46.93322" lon="8.57697">
        <ele>471</ele>
        <time>2021-08-10T10:50:20.806Z</time>
      </trkpt>
      <trkpt lat="46.93322" lon="8.57698">
        <ele>471</ele>
        <time>2021-08-10T10:50:21.806Z</time>
      </trkpt>
      <trkpt lat="46.93321" lon="8.57699">
        <ele>470</ele>
        <time>2021-08-10T10:50:22.806Z</time>
      </trkpt>
      <trkpt lat="46.9332" lon="8.57699">
        <ele>470</ele>
        <time>2021-08-10T10:50:23.806Z</time>
      </trkpt>
      <trkpt lat="46.93319" lon="8.57699">
        <ele>470</ele>
        <time>2021-08-10T10:50:24.805Z</time>
      </trkpt>
      <trkpt lat="46.93318" lon="8.57699">
        <ele>470</ele>
        <time>2021-08-10T10:50:25.806Z</time>
      </trkpt>
      <trkpt lat="46.93317" lon="8.57699">
        <ele>470</ele>
        <time>2021-08-10T10:50:26.806Z</time>
      </trkpt>
      <trkpt lat="46.93317" lon="8.57699">
        <ele>470</ele>
        <time>2021-08-10T10:50:27.805Z</time>
      </trkpt>
      <trkpt lat="46.93316" lon="8.57699">
        <ele>470</ele>
        <time>2021-08-10T10:50:28.806Z</time>
      </trkpt>
      <trkpt lat="46.93315" lon="8.57699">
        <ele>470</ele>
        <time>2021-08-10T10:50:29.806Z</time>
      </trkpt>
      <trkpt lat="46.93314" lon="8.57699">
        <ele>470</ele>
        <time>2021-08-10T10:50:30.806Z</time>
      </trkpt>
      <trkpt lat="46.93314" lon="8.57699">
        <ele>469</ele>
        <time>2021-08-10T10:50:31.806Z</time>
      </trkpt>
      <trkpt lat="46.93313" lon="8.57698">
        <ele>469</ele>
        <time>2021-08-10T10:50:32.805Z</time>
      </trkpt>
      <trkpt lat="46.93312" lon="8.57698">
        <ele>469</ele>
        <time>2021-08-10T10:50:33.806Z</time>
      </trkpt>
      <trkpt lat="46.93312" lon="8.57699">
        <ele>469</ele>
        <time>2021-08-10T10:50:34.805Z</time>
      </trkpt>
      <trkpt lat="46.93312" lon="8.57699">
        <ele>470</ele>
        <time>2021-08-10T10:50:35.806Z</time>
      </trkpt>
      <trkpt lat="46.93311" lon="8.57699">
        <ele>470</ele>
        <time>2021-08-10T10:50:36.806Z</time>
      </trkpt>
      <trkpt lat="46.93311" lon="8.57699">
        <ele>471</ele>
        <time>2021-08-10T10:50:37.805Z</time>
      </trkpt>
      <trkpt lat="46.9331" lon="8.577">
        <ele>471</ele>
        <time>2021-08-10T10:50:38.805Z</time>
      </trkpt>
      <trkpt lat="46.93308" lon="8.577">
        <ele>471</ele>
        <time>2021-08-10T10:50:39.805Z</time>
      </trkpt>
      <trkpt lat="46.93307" lon="8.577">
        <ele>471</ele>
        <time>2021-08-10T10:50:40.806Z</time>
      </trkpt>
      <trkpt lat="46.93306" lon="8.577">
        <ele>471</ele>
        <time>2021-08-10T10:50:41.805Z</time>
      </trkpt>
      <trkpt lat="46.93305" lon="8.57701">
        <ele>471</ele>
        <time>2021-08-10T10:50:42.806Z</time>
      </trkpt>
      <trkpt lat="46.93303" lon="8.57701">
        <ele>471</ele>
        <time>2021-08-10T10:50:43.805Z</time>
      </trkpt>
      <trkpt lat="46.93301" lon="8.57701">
        <ele>471</ele>
        <time>2021-08-10T10:50:44.805Z</time>
      </trkpt>
      <trkpt lat="46.93299" lon="8.57701">
        <ele>471</ele>
        <time>2021-08-10T10:50:45.806Z</time>
      </trkpt>
      <trkpt lat="46.93297" lon="8.57701">
        <ele>471</ele>
        <time>2021-08-10T10:50:46.806Z</time>
      </trkpt>
      <trkpt lat="46.93296" lon="8.57701">
        <ele>471</ele>
        <time>2021-08-10T10:50:47.806Z</time>
      </trkpt>
      <trkpt lat="46.93295" lon="8.577">
        <ele>471</ele>
        <time>2021-08-10T10:50:48.806Z</time>
      </trkpt>
      <trkpt lat="46.93294" lon="8.57699">
        <ele>471</ele>
        <time>2021-08-10T10:50:49.806Z</time>
      </trkpt>
      <trkpt lat="46.93294" lon="8.57699">
        <ele>471</ele>
        <time>2021-08-10T10:50:50.806Z</time>
      </trkpt>
      <trkpt lat="46.93293" lon="8.57699">
        <ele>471</ele>
        <time>2021-08-10T10:50:51.806Z</time>
      </trkpt>
      <trkpt lat="46.93292" lon="8.57699">
        <ele>471</ele>
        <time>2021-08-10T10:50:52.806Z</time>
      </trkpt>
      <trkpt lat="46.93292" lon="8.57698">
        <ele>471</ele>
        <time>2021-08-10T10:50:53.806Z</time>
      </trkpt>
      <trkpt lat="46.93291" lon="8.57698">
        <ele>471</ele>
        <time>2021-08-10T10:50:54.805Z</time>
      </trkpt>
      <trkpt lat="46.93291" lon="8.57698">
        <ele>471</ele>
        <time>2021-08-10T10:50:55.806Z</time>
      </trkpt>
      <trkpt lat="46.9329" lon="8.57698">
        <ele>470</ele>
        <time>2021-08-10T10:50:56.806Z</time>
      </trkpt>
      <trkpt lat="46.93289" lon="8.57699">
        <ele>470</ele>
        <time>2021-08-10T10:50:57.805Z</time>
      </trkpt>
      <trkpt lat="46.93287" lon="8.57699">
        <ele>470</ele>
        <time>2021-08-10T10:50:58.806Z</time>
      </trkpt>
      <trkpt lat="46.93286" lon="8.57699">
        <ele>470</ele>
        <time>2021-08-10T10:50:59.805Z</time>
      </trkpt>
      <trkpt lat="46.93285" lon="8.577">
        <ele>471</ele>
        <time>2021-08-10T10:51:00.806Z</time>
      </trkpt>
      <trkpt lat="46.93284" lon="8.577">
        <ele>472</ele>
        <time>2021-08-10T10:51:01.805Z</time>
      </trkpt>
      <trkpt lat="46.93283" lon="8.577">
        <ele>473</ele>
        <time>2021-08-10T10:51:02.806Z</time>
      </trkpt>
      <trkpt lat="46.93282" lon="8.577">
        <ele>474</ele>
        <time>2021-08-10T10:51:03.806Z</time>
      </trkpt>
      <trkpt lat="46.93281" lon="8.57701">
        <ele>474</ele>
        <time>2021-08-10T10:51:04.805Z</time>
      </trkpt>
      <trkpt lat="46.9328" lon="8.57702">
        <ele>475</ele>
        <time>2021-08-10T10:51:05.805Z</time>
      </trkpt>
      <trkpt lat="46.93279" lon="8.57702">
        <ele>475</ele>
        <time>2021-08-10T10:51:06.805Z</time>
      </trkpt>
      <trkpt lat="46.93278" lon="8.57703">
        <ele>476</ele>
        <time>2021-08-10T10:51:07.805Z</time>
      </trkpt>
      <trkpt lat="46.93277" lon="8.57704">
        <ele>476</ele>
        <time>2021-08-10T10:51:08.806Z</time>
      </trkpt>
      <trkpt lat="46.93276" lon="8.57705">
        <ele>476</ele>
        <time>2021-08-10T10:51:09.805Z</time>
      </trkpt>
      <trkpt lat="46.93275" lon="8.57706">
        <ele>477</ele>
        <time>2021-08-10T10:51:10.805Z</time>
      </trkpt>
      <trkpt lat="46.93275" lon="8.57707">
        <ele>477</ele>
        <time>2021-08-10T10:51:11.806Z</time>
      </trkpt>
      <trkpt lat="46.93274" lon="8.57708">
        <ele>477</ele>
        <time>2021-08-10T10:51:12.806Z</time>
      </trkpt>
      <trkpt lat="46.93273" lon="8.57708">
        <ele>478</ele>
        <time>2021-08-10T10:51:13.806Z</time>
      </trkpt>
      <trkpt lat="46.93272" lon="8.57709">
        <ele>478</ele>
        <time>2021-08-10T10:51:14.805Z</time>
      </trkpt>
      <trkpt lat="46.93272" lon="8.57711">
        <ele>478</ele>
        <time>2021-08-10T10:51:15.806Z</time>
      </trkpt>
      <trkpt lat="46.93271" lon="8.57712">
        <ele>479</ele>
        <time>2021-08-10T10:51:16.806Z</time>
      </trkpt>
      <trkpt lat="46.9327" lon="8.57713">
        <ele>479</ele>
        <time>2021-08-10T10:51:17.806Z</time>
      </trkpt>
      <trkpt lat="46.9327" lon="8.57714">
        <ele>479</ele>
        <time>2021-08-10T10:51:18.806Z</time>
      </trkpt>
      <trkpt lat="46.93269" lon="8.57714">
        <ele>479</ele>
        <time>2021-08-10T10:51:19.805Z</time>
      </trkpt>
      <trkpt lat="46.93269" lon="8.57714">
        <ele>480</ele>
        <time>2021-08-10T10:51:20.806Z</time>
      </trkpt>
      <trkpt lat="46.93268" lon="8.57715">
        <ele>480</ele>
        <time>2021-08-10T10:51:21.806Z</time>
      </trkpt>
      <trkpt lat="46.93268" lon="8.57716">
        <ele>481</ele>
        <time>2021-08-10T10:51:22.805Z</time>
      </trkpt>
      <trkpt lat="46.93267" lon="8.57717">
        <ele>481</ele>
        <time>2021-08-10T10:51:23.806Z</time>
      </trkpt>
      <trkpt lat="46.93266" lon="8.57718">
        <ele>481</ele>
        <time>2021-08-10T10:51:24.806Z</time>
      </trkpt>
      <trkpt lat="46.93266" lon="8.57719">
        <ele>481</ele>
        <time>2021-08-10T10:51:25.805Z</time>
      </trkpt>
      <trkpt lat="46.93265" lon="8.57719">
        <ele>480</ele>
        <time>2021-08-10T10:51:26.806Z</time>
      </trkpt>
      <trkpt lat="46.93265" lon="8.5772">
        <ele>480</ele>
        <time>2021-08-10T10:51:27.805Z</time>
      </trkpt>
      <trkpt lat="46.93264" lon="8.57721">
        <ele>480</ele>
        <time>2021-08-10T10:51:28.806Z</time>
      </trkpt>
      <trkpt lat="46.93264" lon="8.57722">
        <ele>479</ele>
        <time>2021-08-10T10:51:29.806Z</time>
      </trkpt>
      <trkpt lat="46.93263" lon="8.57722">
        <ele>479</ele>
        <time>2021-08-10T10:51:30.806Z</time>
      </trkpt>
      <trkpt lat="46.93263" lon="8.57723">
        <ele>479</ele>
        <time>2021-08-10T10:51:31.806Z</time>
      </trkpt>
      <trkpt lat="46.93263" lon="8.57723">
        <ele>479</ele>
        <time>2021-08-10T10:51:32.806Z</time>
      </trkpt>
      <trkpt lat="46.93264" lon="8.57739">
        <ele>485</ele>
        <time>2021-08-10T10:51:33.807Z</time>
      </trkpt>
      <trkpt lat="46.93264" lon="8.57739">
        <ele>485</ele>
        <time>2021-08-10T10:51:34.807Z</time>
      </trkpt>
      <trkpt lat="46.93264" lon="8.57737">
        <ele>485</ele>
        <time>2021-08-10T10:51:35.807Z</time>
      </trkpt>
      <trkpt lat="46.93264" lon="8.57736">
        <ele>485</ele>
        <time>2021-08-10T10:51:36.807Z</time>
      </trkpt>
      <trkpt lat="46.93262" lon="8.57738">
        <ele>486</ele>
        <time>2021-08-10T10:51:37.807Z</time>
      </trkpt>
      <trkpt lat="46.93262" lon="8.57737">
        <ele>486</ele>
        <time>2021-08-10T10:51:38.808Z</time>
      </trkpt>
      <trkpt lat="46.93262" lon="8.57737">
        <ele>486</ele>
        <time>2021-08-10T10:51:39.807Z</time>
      </trkpt>
      <trkpt lat="46.93261" lon="8.57737">
        <ele>486</ele>
        <time>2021-08-10T10:51:40.807Z</time>
      </trkpt>
      <trkpt lat="46.93259" lon="8.57738">
        <ele>485</ele>
        <time>2021-08-10T10:51:41.807Z</time>
      </trkpt>
      <trkpt lat="46.93259" lon="8.57738">
        <ele>485</ele>
        <time>2021-08-10T10:51:42.807Z</time>
      </trkpt>
      <trkpt lat="46.93258" lon="8.57739">
        <ele>485</ele>
        <time>2021-08-10T10:51:43.807Z</time>
      </trkpt>
      <trkpt lat="46.93258" lon="8.57739">
        <ele>486</ele>
        <time>2021-08-10T10:51:44.808Z</time>
      </trkpt>
      <trkpt lat="46.93257" lon="8.57739">
        <ele>485</ele>
        <time>2021-08-10T10:51:45.807Z</time>
      </trkpt>
      <trkpt lat="46.93257" lon="8.57739">
        <ele>485</ele>
        <time>2021-08-10T10:51:46.807Z</time>
      </trkpt>
      <trkpt lat="46.93256" lon="8.57738">
        <ele>485</ele>
        <time>2021-08-10T10:51:47.808Z</time>
      </trkpt>
      <trkpt lat="46.93256" lon="8.57738">
        <ele>485</ele>
        <time>2021-08-10T10:51:48.807Z</time>
      </trkpt>
      <trkpt lat="46.93254" lon="8.57739">
        <ele>485</ele>
        <time>2021-08-10T10:51:49.807Z</time>
      </trkpt>
      <trkpt lat="46.93252" lon="8.57739">
        <ele>485</ele>
        <time>2021-08-10T10:51:50.808Z</time>
      </trkpt>
      <trkpt lat="46.93251" lon="8.5774">
        <ele>484</ele>
        <time>2021-08-10T10:51:51.807Z</time>
      </trkpt>
      <trkpt lat="46.9325" lon="8.57739">
        <ele>484</ele>
        <time>2021-08-10T10:51:52.807Z</time>
      </trkpt>
      <trkpt lat="46.93249" lon="8.57739">
        <ele>484</ele>
        <time>2021-08-10T10:51:53.807Z</time>
      </trkpt>
      <trkpt lat="46.93248" lon="8.57739">
        <ele>484</ele>
        <time>2021-08-10T10:51:54.807Z</time>
      </trkpt>
      <trkpt lat="46.93247" lon="8.57738">
        <ele>484</ele>
        <time>2021-08-10T10:51:55.808Z</time>
      </trkpt>
      <trkpt lat="46.93246" lon="8.57738">
        <ele>484</ele>
        <time>2021-08-10T10:51:56.807Z</time>
      </trkpt>
      <trkpt lat="46.93245" lon="8.57737">
        <ele>484</ele>
        <time>2021-08-10T10:51:57.808Z</time>
      </trkpt>
      <trkpt lat="46.93244" lon="8.57736">
        <ele>484</ele>
        <time>2021-08-10T10:51:58.808Z</time>
      </trkpt>
      <trkpt lat="46.93243" lon="8.57736">
        <ele>484</ele>
        <time>2021-08-10T10:51:59.808Z</time>
      </trkpt>
      <trkpt lat="46.93243" lon="8.57735">
        <ele>484</ele>
        <time>2021-08-10T10:52:00.808Z</time>
      </trkpt>
      <trkpt lat="46.93241" lon="8.57735">
        <ele>483</ele>
        <time>2021-08-10T10:52:01.808Z</time>
      </trkpt>
      <trkpt lat="46.9324" lon="8.57735">
        <ele>483</ele>
        <time>2021-08-10T10:52:02.807Z</time>
      </trkpt>
      <trkpt lat="46.9324" lon="8.57735">
        <ele>483</ele>
        <time>2021-08-10T10:52:03.808Z</time>
      </trkpt>
      <trkpt lat="46.93239" lon="8.57734">
        <ele>484</ele>
        <time>2021-08-10T10:52:04.808Z</time>
      </trkpt>
      <trkpt lat="46.93238" lon="8.57734">
        <ele>484</ele>
        <time>2021-08-10T10:52:05.808Z</time>
      </trkpt>
      <trkpt lat="46.93238" lon="8.57734">
        <ele>484</ele>
        <time>2021-08-10T10:52:06.808Z</time>
      </trkpt>
      <trkpt lat="46.93237" lon="8.57732">
        <ele>484</ele>
        <time>2021-08-10T10:52:07.807Z</time>
      </trkpt>
      <trkpt lat="46.93236" lon="8.57731">
        <ele>484</ele>
        <time>2021-08-10T10:52:08.808Z</time>
      </trkpt>
      <trkpt lat="46.93236" lon="8.57731">
        <ele>484</ele>
        <time>2021-08-10T10:52:09.807Z</time>
      </trkpt>
      <trkpt lat="46.93235" lon="8.5773">
        <ele>484</ele>
        <time>2021-08-10T10:52:10.808Z</time>
      </trkpt>
      <trkpt lat="46.93234" lon="8.5773">
        <ele>484</ele>
        <time>2021-08-10T10:52:11.808Z</time>
      </trkpt>
      <trkpt lat="46.93234" lon="8.5773">
        <ele>485</ele>
        <time>2021-08-10T10:52:12.808Z</time>
      </trkpt>
      <trkpt lat="46.93233" lon="8.5773">
        <ele>485</ele>
        <time>2021-08-10T10:52:13.808Z</time>
      </trkpt>
      <trkpt lat="46.93232" lon="8.5773">
        <ele>485</ele>
        <time>2021-08-10T10:52:14.807Z</time>
      </trkpt>
      <trkpt lat="46.93231" lon="8.5773">
        <ele>486</ele>
        <time>2021-08-10T10:52:15.808Z</time>
      </trkpt>
      <trkpt lat="46.9323" lon="8.57729">
        <ele>486</ele>
        <time>2021-08-10T10:52:16.808Z</time>
      </trkpt>
      <trkpt lat="46.93229" lon="8.57729">
        <ele>486</ele>
        <time>2021-08-10T10:52:17.808Z</time>
      </trkpt>
      <trkpt lat="46.93228" lon="8.57729">
        <ele>486</ele>
        <time>2021-08-10T10:52:18.808Z</time>
      </trkpt>
      <trkpt lat="46.93228" lon="8.57728">
        <ele>486</ele>
        <time>2021-08-10T10:52:19.808Z</time>
      </trkpt>
      <trkpt lat="46.93227" lon="8.57728">
        <ele>485</ele>
        <time>2021-08-10T10:52:20.807Z</time>
      </trkpt>
      <trkpt lat="46.93226" lon="8.57727">
        <ele>485</ele>
        <time>2021-08-10T10:52:21.808Z</time>
      </trkpt>
      <trkpt lat="46.93225" lon="8.57726">
        <ele>485</ele>
        <time>2021-08-10T10:52:22.808Z</time>
      </trkpt>
      <trkpt lat="46.93224" lon="8.57726">
        <ele>484</ele>
        <time>2021-08-10T10:52:23.807Z</time>
      </trkpt>
      <trkpt lat="46.93223" lon="8.57725">
        <ele>484</ele>
        <time>2021-08-10T10:52:24.808Z</time>
      </trkpt>
      <trkpt lat="46.93222" lon="8.57724">
        <ele>483</ele>
        <time>2021-08-10T10:52:25.807Z</time>
      </trkpt>
      <trkpt lat="46.93221" lon="8.57724">
        <ele>483</ele>
        <time>2021-08-10T10:52:26.807Z</time>
      </trkpt>
      <trkpt lat="46.9322" lon="8.57723">
        <ele>483</ele>
        <time>2021-08-10T10:52:27.808Z</time>
      </trkpt>
      <trkpt lat="46.93219" lon="8.57722">
        <ele>483</ele>
        <time>2021-08-10T10:52:28.808Z</time>
      </trkpt>
      <trkpt lat="46.93218" lon="8.57721">
        <ele>483</ele>
        <time>2021-08-10T10:52:29.808Z</time>
      </trkpt>
      <trkpt lat="46.93217" lon="8.5772">
        <ele>483</ele>
        <time>2021-08-10T10:52:30.808Z</time>
      </trkpt>
      <trkpt lat="46.93217" lon="8.57719">
        <ele>483</ele>
        <time>2021-08-10T10:52:31.808Z</time>
      </trkpt>
      <trkpt lat="46.93216" lon="8.57717">
        <ele>483</ele>
        <time>2021-08-10T10:52:32.808Z</time>
      </trkpt>
      <trkpt lat="46.93216" lon="8.57716">
        <ele>483</ele>
        <time>2021-08-10T10:52:33.807Z</time>
      </trkpt>
      <trkpt lat="46.93215" lon="8.57715">
        <ele>483</ele>
        <time>2021-08-10T10:52:34.808Z</time>
      </trkpt>
      <trkpt lat="46.93215" lon="8.57714">
        <ele>483</ele>
        <time>2021-08-10T10:52:35.808Z</time>
      </trkpt>
      <trkpt lat="46.93215" lon="8.57714">
        <ele>483</ele>
        <time>2021-08-10T10:52:36.808Z</time>
      </trkpt>
      <trkpt lat="46.93214" lon="8.57713">
        <ele>483</ele>
        <time>2021-08-10T10:52:37.808Z</time>
      </trkpt>
      <trkpt lat="46.93213" lon="8.57713">
        <ele>482</ele>
        <time>2021-08-10T10:52:38.808Z</time>
      </trkpt>
      <trkpt lat="46.93213" lon="8.57712">
        <ele>482</ele>
        <time>2021-08-10T10:52:39.807Z</time>
      </trkpt>
      <trkpt lat="46.93213" lon="8.57712">
        <ele>481</ele>
        <time>2021-08-10T10:52:40.807Z</time>
      </trkpt>
      <trkpt lat="46.93212" lon="8.57711">
        <ele>481</ele>
        <time>2021-08-10T10:52:41.807Z</time>
      </trkpt>
      <trkpt lat="46.9321" lon="8.5771">
        <ele>480</ele>
        <time>2021-08-10T10:52:42.808Z</time>
      </trkpt>
      <trkpt lat="46.9321" lon="8.57709">
        <ele>480</ele>
        <time>2021-08-10T10:52:43.807Z</time>
      </trkpt>
      <trkpt lat="46.93209" lon="8.57709">
        <ele>479</ele>
        <time>2021-08-10T10:52:44.808Z</time>
      </trkpt>
      <trkpt lat="46.93208" lon="8.57708">
        <ele>479</ele>
        <time>2021-08-10T10:52:45.808Z</time>
      </trkpt>
      <trkpt lat="46.93207" lon="8.57707">
        <ele>479</ele>
        <time>2021-08-10T10:52:46.808Z</time>
      </trkpt>
      <trkpt lat="46.93206" lon="8.57707">
        <ele>479</ele>
        <time>2021-08-10T10:52:47.807Z</time>
      </trkpt>
      <trkpt lat="46.93206" lon="8.57706">
        <ele>479</ele>
        <time>2021-08-10T10:52:48.808Z</time>
      </trkpt>
      <trkpt lat="46.93204" lon="8.57704">
        <ele>479</ele>
        <time>2021-08-10T10:52:49.808Z</time>
      </trkpt>
      <trkpt lat="46.93203" lon="8.57703">
        <ele>480</ele>
        <time>2021-08-10T10:52:50.808Z</time>
      </trkpt>
      <trkpt lat="46.93202" lon="8.57703">
        <ele>480</ele>
        <time>2021-08-10T10:52:51.808Z</time>
      </trkpt>
      <trkpt lat="46.932" lon="8.57703">
        <ele>480</ele>
        <time>2021-08-10T10:52:52.808Z</time>
      </trkpt>
      <trkpt lat="46.93199" lon="8.57702">
        <ele>480</ele>
        <time>2021-08-10T10:52:53.808Z</time>
      </trkpt>
      <trkpt lat="46.93198" lon="8.57702">
        <ele>481</ele>
        <time>2021-08-10T10:52:54.807Z</time>
      </trkpt>
      <trkpt lat="46.93197" lon="8.57701">
        <ele>481</ele>
        <time>2021-08-10T10:52:55.808Z</time>
      </trkpt>
      <trkpt lat="46.93196" lon="8.57701">
        <ele>481</ele>
        <time>2021-08-10T10:52:56.808Z</time>
      </trkpt>
      <trkpt lat="46.93196" lon="8.57701">
        <ele>481</ele>
        <time>2021-08-10T10:52:57.807Z</time>
      </trkpt>
      <trkpt lat="46.93195" lon="8.577">
        <ele>481</ele>
        <time>2021-08-10T10:52:58.808Z</time>
      </trkpt>
      <trkpt lat="46.93194" lon="8.57699">
        <ele>481</ele>
        <time>2021-08-10T10:52:59.808Z</time>
      </trkpt>
      <trkpt lat="46.93194" lon="8.57698">
        <ele>480</ele>
        <time>2021-08-10T10:53:00.808Z</time>
      </trkpt>
      <trkpt lat="46.93193" lon="8.57698">
        <ele>480</ele>
        <time>2021-08-10T10:53:01.808Z</time>
      </trkpt>
      <trkpt lat="46.93192" lon="8.57697">
        <ele>480</ele>
        <time>2021-08-10T10:53:02.808Z</time>
      </trkpt>
      <trkpt lat="46.93191" lon="8.57696">
        <ele>480</ele>
        <time>2021-08-10T10:53:03.807Z</time>
      </trkpt>
      <trkpt lat="46.9319" lon="8.57695">
        <ele>480</ele>
        <time>2021-08-10T10:53:04.808Z</time>
      </trkpt>
      <trkpt lat="46.93189" lon="8.57695">
        <ele>480</ele>
        <time>2021-08-10T10:53:05.808Z</time>
      </trkpt>
      <trkpt lat="46.93189" lon="8.57694">
        <ele>479</ele>
        <time>2021-08-10T10:53:06.808Z</time>
      </trkpt>
      <trkpt lat="46.93188" lon="8.57694">
        <ele>479</ele>
        <time>2021-08-10T10:53:07.808Z</time>
      </trkpt>
      <trkpt lat="46.93187" lon="8.57693">
        <ele>479</ele>
        <time>2021-08-10T10:53:08.807Z</time>
      </trkpt>
      <trkpt lat="46.93186" lon="8.57692">
        <ele>478</ele>
        <time>2021-08-10T10:53:09.807Z</time>
      </trkpt>
      <trkpt lat="46.93185" lon="8.57691">
        <ele>478</ele>
        <time>2021-08-10T10:53:10.807Z</time>
      </trkpt>
      <trkpt lat="46.93184" lon="8.5769">
        <ele>478</ele>
        <time>2021-08-10T10:53:11.808Z</time>
      </trkpt>
      <trkpt lat="46.93183" lon="8.5769">
        <ele>479</ele>
        <time>2021-08-10T10:53:12.807Z</time>
      </trkpt>
      <trkpt lat="46.93182" lon="8.57689">
        <ele>479</ele>
        <time>2021-08-10T10:53:13.807Z</time>
      </trkpt>
      <trkpt lat="46.93181" lon="8.57688">
        <ele>479</ele>
        <time>2021-08-10T10:53:14.808Z</time>
      </trkpt>
      <trkpt lat="46.9318" lon="8.57687">
        <ele>479</ele>
        <time>2021-08-10T10:53:15.807Z</time>
      </trkpt>
      <trkpt lat="46.93179" lon="8.57686">
        <ele>479</ele>
        <time>2021-08-10T10:53:16.807Z</time>
      </trkpt>
      <trkpt lat="46.93179" lon="8.57686">
        <ele>479</ele>
        <time>2021-08-10T10:53:17.808Z</time>
      </trkpt>
      <trkpt lat="46.93178" lon="8.57686">
        <ele>480</ele>
        <time>2021-08-10T10:53:18.808Z</time>
      </trkpt>
      <trkpt lat="46.93177" lon="8.57685">
        <ele>480</ele>
        <time>2021-08-10T10:53:19.807Z</time>
      </trkpt>
      <trkpt lat="46.93176" lon="8.57684">
        <ele>479</ele>
        <time>2021-08-10T10:53:20.808Z</time>
      </trkpt>
      <trkpt lat="46.93176" lon="8.57684">
        <ele>480</ele>
        <time>2021-08-10T10:53:21.807Z</time>
      </trkpt>
      <trkpt lat="46.93175" lon="8.57684">
        <ele>479</ele>
        <time>2021-08-10T10:53:22.808Z</time>
      </trkpt>
      <trkpt lat="46.93175" lon="8.57683">
        <ele>479</ele>
        <time>2021-08-10T10:53:23.808Z</time>
      </trkpt>
      <trkpt lat="46.93174" lon="8.57683">
        <ele>478</ele>
        <time>2021-08-10T10:53:24.808Z</time>
      </trkpt>
      <trkpt lat="46.93174" lon="8.57682">
        <ele>478</ele>
        <time>2021-08-10T10:53:25.807Z</time>
      </trkpt>
      <trkpt lat="46.93173" lon="8.57682">
        <ele>478</ele>
        <time>2021-08-10T10:53:26.808Z</time>
      </trkpt>
      <trkpt lat="46.93173" lon="8.57681">
        <ele>478</ele>
        <time>2021-08-10T10:53:27.808Z</time>
      </trkpt>
      <trkpt lat="46.93172" lon="8.57681">
        <ele>479</ele>
        <time>2021-08-10T10:53:28.808Z</time>
      </trkpt>
      <trkpt lat="46.93171" lon="8.5768">
        <ele>479</ele>
        <time>2021-08-10T10:53:29.808Z</time>
      </trkpt>
      <trkpt lat="46.9317" lon="8.57679">
        <ele>480</ele>
        <time>2021-08-10T10:53:30.807Z</time>
      </trkpt>
      <trkpt lat="46.93169" lon="8.57679">
        <ele>481</ele>
        <time>2021-08-10T10:53:31.807Z</time>
      </trkpt>
      <trkpt lat="46.93169" lon="8.57678">
        <ele>482</ele>
        <time>2021-08-10T10:53:32.807Z</time>
      </trkpt>
      <trkpt lat="46.93168" lon="8.57677">
        <ele>483</ele>
        <time>2021-08-10T10:53:33.808Z</time>
      </trkpt>
      <trkpt lat="46.93168" lon="8.57677">
        <ele>484</ele>
        <time>2021-08-10T10:53:34.808Z</time>
      </trkpt>
      <trkpt lat="46.93167" lon="8.57676">
        <ele>484</ele>
        <time>2021-08-10T10:53:35.807Z</time>
      </trkpt>
      <trkpt lat="46.93167" lon="8.57675">
        <ele>484</ele>
        <time>2021-08-10T10:53:36.808Z</time>
      </trkpt>
      <trkpt lat="46.93166" lon="8.57674">
        <ele>485</ele>
        <time>2021-08-10T10:53:37.808Z</time>
      </trkpt>
      <trkpt lat="46.93166" lon="8.57673">
        <ele>485</ele>
        <time>2021-08-10T10:53:38.808Z</time>
      </trkpt>
      <trkpt lat="46.93165" lon="8.57672">
        <ele>485</ele>
        <time>2021-08-10T10:53:39.807Z</time>
      </trkpt>
      <trkpt lat="46.93164" lon="8.57671">
        <ele>486</ele>
        <time>2021-08-10T10:53:40.807Z</time>
      </trkpt>
      <trkpt lat="46.93164" lon="8.5767">
        <ele>486</ele>
        <time>2021-08-10T10:53:41.807Z</time>
      </trkpt>
      <trkpt lat="46.93163" lon="8.57668">
        <ele>486</ele>
        <time>2021-08-10T10:53:42.808Z</time>
      </trkpt>
      <trkpt lat="46.93161" lon="8.57667">
        <ele>486</ele>
        <time>2021-08-10T10:53:43.807Z</time>
      </trkpt>
      <trkpt lat="46.9316" lon="8.57666">
        <ele>486</ele>
        <time>2021-08-10T10:53:44.807Z</time>
      </trkpt>
      <trkpt lat="46.93159" lon="8.57665">
        <ele>486</ele>
        <time>2021-08-10T10:53:45.808Z</time>
      </trkpt>
      <trkpt lat="46.93158" lon="8.57665">
        <ele>487</ele>
        <time>2021-08-10T10:53:46.808Z</time>
      </trkpt>
      <trkpt lat="46.93158" lon="8.57665">
        <ele>487</ele>
        <time>2021-08-10T10:53:47.808Z</time>
      </trkpt>
      <trkpt lat="46.93157" lon="8.57664">
        <ele>487</ele>
        <time>2021-08-10T10:53:48.808Z</time>
      </trkpt>
      <trkpt lat="46.93156" lon="8.57664">
        <ele>488</ele>
        <time>2021-08-10T10:53:49.808Z</time>
      </trkpt>
      <trkpt lat="46.93155" lon="8.57663">
        <ele>489</ele>
        <time>2021-08-10T10:53:50.808Z</time>
      </trkpt>
      <trkpt lat="46.93154" lon="8.57663">
        <ele>489</ele>
        <time>2021-08-10T10:53:51.807Z</time>
      </trkpt>
      <trkpt lat="46.93154" lon="8.57662">
        <ele>490</ele>
        <time>2021-08-10T10:53:52.807Z</time>
      </trkpt>
      <trkpt lat="46.93153" lon="8.57662">
        <ele>490</ele>
        <time>2021-08-10T10:53:53.808Z</time>
      </trkpt>
      <trkpt lat="46.93152" lon="8.57661">
        <ele>490</ele>
        <time>2021-08-10T10:53:54.808Z</time>
      </trkpt>
      <trkpt lat="46.93152" lon="8.5766">
        <ele>490</ele>
        <time>2021-08-10T10:53:55.808Z</time>
      </trkpt>
      <trkpt lat="46.93151" lon="8.57659">
        <ele>490</ele>
        <time>2021-08-10T10:53:56.808Z</time>
      </trkpt>
      <trkpt lat="46.9315" lon="8.57659">
        <ele>490</ele>
        <time>2021-08-10T10:53:57.808Z</time>
      </trkpt>
      <trkpt lat="46.93149" lon="8.57658">
        <ele>490</ele>
        <time>2021-08-10T10:53:58.808Z</time>
      </trkpt>
      <trkpt lat="46.93148" lon="8.57657">
        <ele>490</ele>
        <time>2021-08-10T10:53:59.808Z</time>
      </trkpt>
      <trkpt lat="46.93147" lon="8.57656">
        <ele>490</ele>
        <time>2021-08-10T10:54:00.807Z</time>
      </trkpt>
      <trkpt lat="46.93146" lon="8.57655">
        <ele>489</ele>
        <time>2021-08-10T10:54:01.807Z</time>
      </trkpt>
      <trkpt lat="46.93146" lon="8.57654">
        <ele>489</ele>
        <time>2021-08-10T10:54:02.808Z</time>
      </trkpt>
      <trkpt lat="46.93145" lon="8.57652">
        <ele>488</ele>
        <time>2021-08-10T10:54:03.808Z</time>
      </trkpt>
      <trkpt lat="46.93144" lon="8.57651">
        <ele>488</ele>
        <time>2021-08-10T10:54:04.808Z</time>
      </trkpt>
      <trkpt lat="46.93143" lon="8.57649">
        <ele>487</ele>
        <time>2021-08-10T10:54:05.807Z</time>
      </trkpt>
      <trkpt lat="46.93143" lon="8.57648">
        <ele>487</ele>
        <time>2021-08-10T10:54:06.807Z</time>
      </trkpt>
      <trkpt lat="46.93142" lon="8.57647">
        <ele>487</ele>
        <time>2021-08-10T10:54:07.807Z</time>
      </trkpt>
      <trkpt lat="46.93141" lon="8.57645">
        <ele>487</ele>
        <time>2021-08-10T10:54:08.808Z</time>
      </trkpt>
      <trkpt lat="46.9314" lon="8.57644">
        <ele>487</ele>
        <time>2021-08-10T10:54:09.807Z</time>
      </trkpt>
      <trkpt lat="46.93139" lon="8.57643">
        <ele>488</ele>
        <time>2021-08-10T10:54:10.807Z</time>
      </trkpt>
      <trkpt lat="46.93138" lon="8.57642">
        <ele>488</ele>
        <time>2021-08-10T10:54:11.807Z</time>
      </trkpt>
      <trkpt lat="46.93137" lon="8.57642">
        <ele>488</ele>
        <time>2021-08-10T10:54:12.808Z</time>
      </trkpt>
      <trkpt lat="46.93136" lon="8.57642">
        <ele>489</ele>
        <time>2021-08-10T10:54:13.807Z</time>
      </trkpt>
      <trkpt lat="46.93135" lon="8.57641">
        <ele>489</ele>
        <time>2021-08-10T10:54:14.807Z</time>
      </trkpt>
      <trkpt lat="46.93134" lon="8.57641">
        <ele>489</ele>
        <time>2021-08-10T10:54:15.808Z</time>
      </trkpt>
      <trkpt lat="46.93133" lon="8.57641">
        <ele>489</ele>
        <time>2021-08-10T10:54:16.808Z</time>
      </trkpt>
      <trkpt lat="46.93132" lon="8.57641">
        <ele>490</ele>
        <time>2021-08-10T10:54:17.808Z</time>
      </trkpt>
      <trkpt lat="46.93131" lon="8.5764">
        <ele>490</ele>
        <time>2021-08-10T10:54:18.807Z</time>
      </trkpt>
      <trkpt lat="46.9313" lon="8.5764">
        <ele>491</ele>
        <time>2021-08-10T10:54:19.807Z</time>
      </trkpt>
      <trkpt lat="46.93129" lon="8.57639">
        <ele>491</ele>
        <time>2021-08-10T10:54:20.807Z</time>
      </trkpt>
      <trkpt lat="46.93127" lon="8.57639">
        <ele>491</ele>
        <time>2021-08-10T10:54:21.807Z</time>
      </trkpt>
      <trkpt lat="46.93126" lon="8.57638">
        <ele>491</ele>
        <time>2021-08-10T10:54:22.808Z</time>
      </trkpt>
      <trkpt lat="46.93125" lon="8.57637">
        <ele>491</ele>
        <time>2021-08-10T10:54:23.808Z</time>
      </trkpt>
      <trkpt lat="46.93124" lon="8.57636">
        <ele>491</ele>
        <time>2021-08-10T10:54:24.808Z</time>
      </trkpt>
      <trkpt lat="46.93123" lon="8.57635">
        <ele>491</ele>
        <time>2021-08-10T10:54:25.808Z</time>
      </trkpt>
      <trkpt lat="46.93122" lon="8.57634">
        <ele>491</ele>
        <time>2021-08-10T10:54:26.808Z</time>
      </trkpt>
      <trkpt lat="46.93122" lon="8.57633">
        <ele>490</ele>
        <time>2021-08-10T10:54:27.807Z</time>
      </trkpt>
      <trkpt lat="46.93121" lon="8.57632">
        <ele>489</ele>
        <time>2021-08-10T10:54:28.807Z</time>
      </trkpt>
      <trkpt lat="46.9312" lon="8.5763">
        <ele>489</ele>
        <time>2021-08-10T10:54:29.808Z</time>
      </trkpt>
      <trkpt lat="46.93119" lon="8.57629">
        <ele>489</ele>
        <time>2021-08-10T10:54:30.808Z</time>
      </trkpt>
      <trkpt lat="46.93118" lon="8.57628">
        <ele>489</ele>
        <time>2021-08-10T10:54:31.808Z</time>
      </trkpt>
      <trkpt lat="46.93118" lon="8.57627">
        <ele>489</ele>
        <time>2021-08-10T10:54:32.808Z</time>
      </trkpt>
      <trkpt lat="46.93118" lon="8.57625">
        <ele>489</ele>
        <time>2021-08-10T10:54:33.807Z</time>
      </trkpt>
      <trkpt lat="46.93117" lon="8.57624">
        <ele>489</ele>
        <time>2021-08-10T10:54:34.808Z</time>
      </trkpt>
      <trkpt lat="46.93117" lon="8.57623">
        <ele>489</ele>
        <time>2021-08-10T10:54:35.808Z</time>
      </trkpt>
      <trkpt lat="46.93117" lon="8.57622">
        <ele>489</ele>
        <time>2021-08-10T10:54:36.808Z</time>
      </trkpt>
      <trkpt lat="46.93116" lon="8.5762">
        <ele>489</ele>
        <time>2021-08-10T10:54:37.808Z</time>
      </trkpt>
      <trkpt lat="46.93115" lon="8.57619">
        <ele>489</ele>
        <time>2021-08-10T10:54:38.808Z</time>
      </trkpt>
      <trkpt lat="46.93114" lon="8.57618">
        <ele>489</ele>
        <time>2021-08-10T10:54:39.808Z</time>
      </trkpt>
      <trkpt lat="46.93114" lon="8.57617">
        <ele>489</ele>
        <time>2021-08-10T10:54:40.808Z</time>
      </trkpt>
      <trkpt lat="46.93113" lon="8.57616">
        <ele>489</ele>
        <time>2021-08-10T10:54:41.807Z</time>
      </trkpt>
      <trkpt lat="46.93112" lon="8.57615">
        <ele>489</ele>
        <time>2021-08-10T10:54:42.808Z</time>
      </trkpt>
      <trkpt lat="46.93112" lon="8.57613">
        <ele>488</ele>
        <time>2021-08-10T10:54:43.808Z</time>
      </trkpt>
      <trkpt lat="46.93111" lon="8.57612">
        <ele>488</ele>
        <time>2021-08-10T10:54:44.807Z</time>
      </trkpt>
      <trkpt lat="46.9311" lon="8.57611">
        <ele>488</ele>
        <time>2021-08-10T10:54:45.807Z</time>
      </trkpt>
      <trkpt lat="46.93109" lon="8.5761">
        <ele>488</ele>
        <time>2021-08-10T10:54:46.807Z</time>
      </trkpt>
      <trkpt lat="46.93108" lon="8.57609">
        <ele>488</ele>
        <time>2021-08-10T10:54:47.807Z</time>
      </trkpt>
      <trkpt lat="46.93107" lon="8.57608">
        <ele>488</ele>
        <time>2021-08-10T10:54:48.808Z</time>
      </trkpt>
      <trkpt lat="46.93106" lon="8.57607">
        <ele>488</ele>
        <time>2021-08-10T10:54:49.807Z</time>
      </trkpt>
      <trkpt lat="46.93104" lon="8.57606">
        <ele>488</ele>
        <time>2021-08-10T10:54:50.807Z</time>
      </trkpt>
      <trkpt lat="46.93104" lon="8.57606">
        <ele>488</ele>
        <time>2021-08-10T10:54:51.807Z</time>
      </trkpt>
      <trkpt lat="46.93103" lon="8.57606">
        <ele>488</ele>
        <time>2021-08-10T10:54:52.807Z</time>
      </trkpt>
      <trkpt lat="46.93103" lon="8.57605">
        <ele>488</ele>
        <time>2021-08-10T10:54:53.807Z</time>
      </trkpt>
      <trkpt lat="46.93102" lon="8.57604">
        <ele>488</ele>
        <time>2021-08-10T10:54:54.807Z</time>
      </trkpt>
      <trkpt lat="46.93101" lon="8.57604">
        <ele>487</ele>
        <time>2021-08-10T10:54:55.807Z</time>
      </trkpt>
      <trkpt lat="46.93101" lon="8.57603">
        <ele>487</ele>
        <time>2021-08-10T10:54:56.807Z</time>
      </trkpt>
      <trkpt lat="46.931" lon="8.57603">
        <ele>488</ele>
        <time>2021-08-10T10:54:57.808Z</time>
      </trkpt>
      <trkpt lat="46.93099" lon="8.57603">
        <ele>489</ele>
        <time>2021-08-10T10:54:58.807Z</time>
      </trkpt>
      <trkpt lat="46.93098" lon="8.57603">
        <ele>489</ele>
        <time>2021-08-10T10:54:59.808Z</time>
      </trkpt>
      <trkpt lat="46.93097" lon="8.57603">
        <ele>489</ele>
        <time>2021-08-10T10:55:00.808Z</time>
      </trkpt>
      <trkpt lat="46.93096" lon="8.57603">
        <ele>489</ele>
        <time>2021-08-10T10:55:01.807Z</time>
      </trkpt>
      <trkpt lat="46.93096" lon="8.57603">
        <ele>490</ele>
        <time>2021-08-10T10:55:02.807Z</time>
      </trkpt>
      <trkpt lat="46.93095" lon="8.57603">
        <ele>490</ele>
        <time>2021-08-10T10:55:03.807Z</time>
      </trkpt>
      <trkpt lat="46.93094" lon="8.57603">
        <ele>490</ele>
        <time>2021-08-10T10:55:04.808Z</time>
      </trkpt>
      <trkpt lat="46.93093" lon="8.57604">
        <ele>490</ele>
        <time>2021-08-10T10:55:05.808Z</time>
      </trkpt>
      <trkpt lat="46.93092" lon="8.57604">
        <ele>490</ele>
        <time>2021-08-10T10:55:06.808Z</time>
      </trkpt>
      <trkpt lat="46.93091" lon="8.57604">
        <ele>490</ele>
        <time>2021-08-10T10:55:07.807Z</time>
      </trkpt>
      <trkpt lat="46.9309" lon="8.57605">
        <ele>490</ele>
        <time>2021-08-10T10:55:08.807Z</time>
      </trkpt>
      <trkpt lat="46.93089" lon="8.57606">
        <ele>491</ele>
        <time>2021-08-10T10:55:09.807Z</time>
      </trkpt>
      <trkpt lat="46.93088" lon="8.57608">
        <ele>491</ele>
        <time>2021-08-10T10:55:10.807Z</time>
      </trkpt>
      <trkpt lat="46.93087" lon="8.57609">
        <ele>492</ele>
        <time>2021-08-10T10:55:11.807Z</time>
      </trkpt>
      <trkpt lat="46.93087" lon="8.57609">
        <ele>493</ele>
        <time>2021-08-10T10:55:12.807Z</time>
      </trkpt>
      <trkpt lat="46.93087" lon="8.5761">
        <ele>493</ele>
        <time>2021-08-10T10:55:13.807Z</time>
      </trkpt>
      <trkpt lat="46.93086" lon="8.5761">
        <ele>494</ele>
        <time>2021-08-10T10:55:14.807Z</time>
      </trkpt>
      <trkpt lat="46.93085" lon="8.5761">
        <ele>494</ele>
        <time>2021-08-10T10:55:15.807Z</time>
      </trkpt>
      <trkpt lat="46.93085" lon="8.5761">
        <ele>494</ele>
        <time>2021-08-10T10:55:16.807Z</time>
      </trkpt>
      <trkpt lat="46.93084" lon="8.57611">
        <ele>494</ele>
        <time>2021-08-10T10:55:17.808Z</time>
      </trkpt>
      <trkpt lat="46.93083" lon="8.57611">
        <ele>494</ele>
        <time>2021-08-10T10:55:18.808Z</time>
      </trkpt>
      <trkpt lat="46.93082" lon="8.57612">
        <ele>494</ele>
        <time>2021-08-10T10:55:19.807Z</time>
      </trkpt>
      <trkpt lat="46.93082" lon="8.57613">
        <ele>494</ele>
        <time>2021-08-10T10:55:20.807Z</time>
      </trkpt>
      <trkpt lat="46.93081" lon="8.57614">
        <ele>495</ele>
        <time>2021-08-10T10:55:21.807Z</time>
      </trkpt>
      <trkpt lat="46.9308" lon="8.57614">
        <ele>495</ele>
        <time>2021-08-10T10:55:22.808Z</time>
      </trkpt>
      <trkpt lat="46.93079" lon="8.57615">
        <ele>496</ele>
        <time>2021-08-10T10:55:23.808Z</time>
      </trkpt>
      <trkpt lat="46.93078" lon="8.57616">
        <ele>496</ele>
        <time>2021-08-10T10:55:24.808Z</time>
      </trkpt>
      <trkpt lat="46.93077" lon="8.57616">
        <ele>497</ele>
        <time>2021-08-10T10:55:25.807Z</time>
      </trkpt>
      <trkpt lat="46.93076" lon="8.57617">
        <ele>497</ele>
        <time>2021-08-10T10:55:26.808Z</time>
      </trkpt>
      <trkpt lat="46.93075" lon="8.57617">
        <ele>497</ele>
        <time>2021-08-10T10:55:27.808Z</time>
      </trkpt>
      <trkpt lat="46.93074" lon="8.57618">
        <ele>497</ele>
        <time>2021-08-10T10:55:28.807Z</time>
      </trkpt>
      <trkpt lat="46.93074" lon="8.57617">
        <ele>497</ele>
        <time>2021-08-10T10:55:29.808Z</time>
      </trkpt>
      <trkpt lat="46.93073" lon="8.57617">
        <ele>498</ele>
        <time>2021-08-10T10:55:30.808Z</time>
      </trkpt>
      <trkpt lat="46.93073" lon="8.57616">
        <ele>498</ele>
        <time>2021-08-10T10:55:31.808Z</time>
      </trkpt>
      <trkpt lat="46.93073" lon="8.57616">
        <ele>499</ele>
        <time>2021-08-10T10:55:32.808Z</time>
      </trkpt>
      <trkpt lat="46.93073" lon="8.57616">
        <ele>500</ele>
        <time>2021-08-10T10:55:33.808Z</time>
      </trkpt>
      <trkpt lat="46.93072" lon="8.57616">
        <ele>500</ele>
        <time>2021-08-10T10:55:34.807Z</time>
      </trkpt>
      <trkpt lat="46.93072" lon="8.57616">
        <ele>501</ele>
        <time>2021-08-10T10:55:35.807Z</time>
      </trkpt>
      <trkpt lat="46.93071" lon="8.57616">
        <ele>501</ele>
        <time>2021-08-10T10:55:36.808Z</time>
      </trkpt>
      <trkpt lat="46.93071" lon="8.57616">
        <ele>502</ele>
        <time>2021-08-10T10:55:37.808Z</time>
      </trkpt>
      <trkpt lat="46.93071" lon="8.57616">
        <ele>502</ele>
        <time>2021-08-10T10:55:38.807Z</time>
      </trkpt>
      <trkpt lat="46.93071" lon="8.57615">
        <ele>503</ele>
        <time>2021-08-10T10:55:39.807Z</time>
      </trkpt>
      <trkpt lat="46.9307" lon="8.57615">
        <ele>503</ele>
        <time>2021-08-10T10:55:40.808Z</time>
      </trkpt>
      <trkpt lat="46.9307" lon="8.57616">
        <ele>503</ele>
        <time>2021-08-10T10:55:41.807Z</time>
      </trkpt>
      <trkpt lat="46.93069" lon="8.57616">
        <ele>504</ele>
        <time>2021-08-10T10:55:42.808Z</time>
      </trkpt>
      <trkpt lat="46.93068" lon="8.57617">
        <ele>504</ele>
        <time>2021-08-10T10:55:43.808Z</time>
      </trkpt>
      <trkpt lat="46.93067" lon="8.57618">
        <ele>503</ele>
        <time>2021-08-10T10:55:44.808Z</time>
      </trkpt>
      <trkpt lat="46.93066" lon="8.57619">
        <ele>503</ele>
        <time>2021-08-10T10:55:45.807Z</time>
      </trkpt>
      <trkpt lat="46.93065" lon="8.5762">
        <ele>503</ele>
        <time>2021-08-10T10:55:46.807Z</time>
      </trkpt>
      <trkpt lat="46.93064" lon="8.57622">
        <ele>503</ele>
        <time>2021-08-10T10:55:47.807Z</time>
      </trkpt>
      <trkpt lat="46.93063" lon="8.57623">
        <ele>503</ele>
        <time>2021-08-10T10:55:48.808Z</time>
      </trkpt>
      <trkpt lat="46.93062" lon="8.57624">
        <ele>503</ele>
        <time>2021-08-10T10:55:49.807Z</time>
      </trkpt>
      <trkpt lat="46.93062" lon="8.57625">
        <ele>503</ele>
        <time>2021-08-10T10:55:50.807Z</time>
      </trkpt>
      <trkpt lat="46.93061" lon="8.57625">
        <ele>502</ele>
        <time>2021-08-10T10:55:51.807Z</time>
      </trkpt>
      <trkpt lat="46.93059" lon="8.57626">
        <ele>502</ele>
        <time>2021-08-10T10:55:52.808Z</time>
      </trkpt>
      <trkpt lat="46.93058" lon="8.57626">
        <ele>502</ele>
        <time>2021-08-10T10:55:53.808Z</time>
      </trkpt>
      <trkpt lat="46.93057" lon="8.57626">
        <ele>502</ele>
        <time>2021-08-10T10:55:54.807Z</time>
      </trkpt>
      <trkpt lat="46.93056" lon="8.57627">
        <ele>502</ele>
        <time>2021-08-10T10:55:55.808Z</time>
      </trkpt>
      <trkpt lat="46.93056" lon="8.57627">
        <ele>502</ele>
        <time>2021-08-10T10:55:56.807Z</time>
      </trkpt>
      <trkpt lat="46.93055" lon="8.57628">
        <ele>502</ele>
        <time>2021-08-10T10:55:57.808Z</time>
      </trkpt>
      <trkpt lat="46.93054" lon="8.57629">
        <ele>501</ele>
        <time>2021-08-10T10:55:58.808Z</time>
      </trkpt>
      <trkpt lat="46.93053" lon="8.57629">
        <ele>501</ele>
        <time>2021-08-10T10:55:59.807Z</time>
      </trkpt>
      <trkpt lat="46.93052" lon="8.57629">
        <ele>501</ele>
        <time>2021-08-10T10:56:00.807Z</time>
      </trkpt>
      <trkpt lat="46.93051" lon="8.57629">
        <ele>501</ele>
        <time>2021-08-10T10:56:01.807Z</time>
      </trkpt>
      <trkpt lat="46.9305" lon="8.57629">
        <ele>501</ele>
        <time>2021-08-10T10:56:02.808Z</time>
      </trkpt>
      <trkpt lat="46.93049" lon="8.57629">
        <ele>502</ele>
        <time>2021-08-10T10:56:03.808Z</time>
      </trkpt>
      <trkpt lat="46.93049" lon="8.57629">
        <ele>502</ele>
        <time>2021-08-10T10:56:04.807Z</time>
      </trkpt>
      <trkpt lat="46.93048" lon="8.57628">
        <ele>502</ele>
        <time>2021-08-10T10:56:05.807Z</time>
      </trkpt>
      <trkpt lat="46.93047" lon="8.57628">
        <ele>502</ele>
        <time>2021-08-10T10:56:06.807Z</time>
      </trkpt>
      <trkpt lat="46.93047" lon="8.57627">
        <ele>501</ele>
        <time>2021-08-10T10:56:07.808Z</time>
      </trkpt>
      <trkpt lat="46.93046" lon="8.57627">
        <ele>501</ele>
        <time>2021-08-10T10:56:08.808Z</time>
      </trkpt>
      <trkpt lat="46.93046" lon="8.57627">
        <ele>501</ele>
        <time>2021-08-10T10:56:09.807Z</time>
      </trkpt>
      <trkpt lat="46.93045" lon="8.57626">
        <ele>501</ele>
        <time>2021-08-10T10:56:10.807Z</time>
      </trkpt>
      <trkpt lat="46.93045" lon="8.57625">
        <ele>500</ele>
        <time>2021-08-10T10:56:11.807Z</time>
      </trkpt>
      <trkpt lat="46.93045" lon="8.57624">
        <ele>499</ele>
        <time>2021-08-10T10:56:12.808Z</time>
      </trkpt>
      <trkpt lat="46.93044" lon="8.57623">
        <ele>499</ele>
        <time>2021-08-10T10:56:13.807Z</time>
      </trkpt>
      <trkpt lat="46.93044" lon="8.57622">
        <ele>498</ele>
        <time>2021-08-10T10:56:14.807Z</time>
      </trkpt>
      <trkpt lat="46.93044" lon="8.57621">
        <ele>498</ele>
        <time>2021-08-10T10:56:15.807Z</time>
      </trkpt>
      <trkpt lat="46.93043" lon="8.5762">
        <ele>498</ele>
        <time>2021-08-10T10:56:16.807Z</time>
      </trkpt>
      <trkpt lat="46.93043" lon="8.5762">
        <ele>498</ele>
        <time>2021-08-10T10:56:17.808Z</time>
      </trkpt>
      <trkpt lat="46.93042" lon="8.57619">
        <ele>498</ele>
        <time>2021-08-10T10:56:18.807Z</time>
      </trkpt>
      <trkpt lat="46.93042" lon="8.57618">
        <ele>498</ele>
        <time>2021-08-10T10:56:19.807Z</time>
      </trkpt>
      <trkpt lat="46.93041" lon="8.57617">
        <ele>498</ele>
        <time>2021-08-10T10:56:20.807Z</time>
      </trkpt>
      <trkpt lat="46.9304" lon="8.57616">
        <ele>499</ele>
        <time>2021-08-10T10:56:21.807Z</time>
      </trkpt>
      <trkpt lat="46.93039" lon="8.57616">
        <ele>499</ele>
        <time>2021-08-10T10:56:22.808Z</time>
      </trkpt>
      <trkpt lat="46.93039" lon="8.57615">
        <ele>499</ele>
        <time>2021-08-10T10:56:23.807Z</time>
      </trkpt>
      <trkpt lat="46.93038" lon="8.57614">
        <ele>499</ele>
        <time>2021-08-10T10:56:24.807Z</time>
      </trkpt>
      <trkpt lat="46.93037" lon="8.57613">
        <ele>498</ele>
        <time>2021-08-10T10:56:25.807Z</time>
      </trkpt>
      <trkpt lat="46.93036" lon="8.57612">
        <ele>498</ele>
        <time>2021-08-10T10:56:26.807Z</time>
      </trkpt>
      <trkpt lat="46.93036" lon="8.57612">
        <ele>498</ele>
        <time>2021-08-10T10:56:27.807Z</time>
      </trkpt>
      <trkpt lat="46.93035" lon="8.57611">
        <ele>499</ele>
        <time>2021-08-10T10:56:28.808Z</time>
      </trkpt>
      <trkpt lat="46.93034" lon="8.5761">
        <ele>499</ele>
        <time>2021-08-10T10:56:29.807Z</time>
      </trkpt>
      <trkpt lat="46.93033" lon="8.5761">
        <ele>500</ele>
        <time>2021-08-10T10:56:30.807Z</time>
      </trkpt>
      <trkpt lat="46.93032" lon="8.57609">
        <ele>500</ele>
        <time>2021-08-10T10:56:31.808Z</time>
      </trkpt>
      <trkpt lat="46.93031" lon="8.57609">
        <ele>501</ele>
        <time>2021-08-10T10:56:32.807Z</time>
      </trkpt>
      <trkpt lat="46.9303" lon="8.57609">
        <ele>502</ele>
        <time>2021-08-10T10:56:33.807Z</time>
      </trkpt>
      <trkpt lat="46.93029" lon="8.57609">
        <ele>503</ele>
        <time>2021-08-10T10:56:34.807Z</time>
      </trkpt>
      <trkpt lat="46.93028" lon="8.57608">
        <ele>504</ele>
        <time>2021-08-10T10:56:35.808Z</time>
      </trkpt>
      <trkpt lat="46.93027" lon="8.57609">
        <ele>504</ele>
        <time>2021-08-10T10:56:36.807Z</time>
      </trkpt>
      <trkpt lat="46.93027" lon="8.57609">
        <ele>505</ele>
        <time>2021-08-10T10:56:37.808Z</time>
      </trkpt>
      <trkpt lat="46.93026" lon="8.5761">
        <ele>505</ele>
        <time>2021-08-10T10:56:38.808Z</time>
      </trkpt>
      <trkpt lat="46.93026" lon="8.57611">
        <ele>505</ele>
        <time>2021-08-10T10:56:39.808Z</time>
      </trkpt>
      <trkpt lat="46.93025" lon="8.57615">
        <ele>510</ele>
        <time>2021-08-10T10:56:40.807Z</time>
      </trkpt>
      <trkpt lat="46.93025" lon="8.57615">
        <ele>510</ele>
        <time>2021-08-10T10:56:41.808Z</time>
      </trkpt>
      <trkpt lat="46.93025" lon="8.57614">
        <ele>505</ele>
        <time>2021-08-10T10:56:42.810Z</time>
      </trkpt>
      <trkpt lat="46.93023" lon="8.57616">
        <ele>503</ele>
        <time>2021-08-10T10:56:43.809Z</time>
      </trkpt>
      <trkpt lat="46.93023" lon="8.57617">
        <ele>503</ele>
        <time>2021-08-10T10:56:44.809Z</time>
      </trkpt>
      <trkpt lat="46.93023" lon="8.57616">
        <ele>502</ele>
        <time>2021-08-10T10:56:45.809Z</time>
      </trkpt>
      <trkpt lat="46.93023" lon="8.57616">
        <ele>502</ele>
        <time>2021-08-10T10:56:46.810Z</time>
      </trkpt>
      <trkpt lat="46.93023" lon="8.57616">
        <ele>502</ele>
        <time>2021-08-10T10:56:47.810Z</time>
      </trkpt>
      <trkpt lat="46.93023" lon="8.57616">
        <ele>502</ele>
        <time>2021-08-10T10:56:48.810Z</time>
      </trkpt>
      <trkpt lat="46.93024" lon="8.57615">
        <ele>503</ele>
        <time>2021-08-10T10:56:49.811Z</time>
      </trkpt>
      <trkpt lat="46.93024" lon="8.57615">
        <ele>502</ele>
        <time>2021-08-10T10:56:50.811Z</time>
      </trkpt>
      <trkpt lat="46.93024" lon="8.57615">
        <ele>501</ele>
        <time>2021-08-10T10:56:51.810Z</time>
      </trkpt>
      <trkpt lat="46.93024" lon="8.57615">
        <ele>501</ele>
        <time>2021-08-10T10:56:52.810Z</time>
      </trkpt>
      <trkpt lat="46.93023" lon="8.57616">
        <ele>500</ele>
        <time>2021-08-10T10:56:53.812Z</time>
      </trkpt>
      <trkpt lat="46.93023" lon="8.57617">
        <ele>499</ele>
        <time>2021-08-10T10:56:54.811Z</time>
      </trkpt>
      <trkpt lat="46.93022" lon="8.57617">
        <ele>499</ele>
        <time>2021-08-10T10:56:55.812Z</time>
      </trkpt>
      <trkpt lat="46.93022" lon="8.57617">
        <ele>499</ele>
        <time>2021-08-10T10:56:56.811Z</time>
      </trkpt>
      <trkpt lat="46.93022" lon="8.57617">
        <ele>498</ele>
        <time>2021-08-10T10:56:57.811Z</time>
      </trkpt>
      <trkpt lat="46.93022" lon="8.57617">
        <ele>498</ele>
        <time>2021-08-10T10:56:58.811Z</time>
      </trkpt>
      <trkpt lat="46.93022" lon="8.57617">
        <ele>498</ele>
        <time>2021-08-10T10:56:59.812Z</time>
      </trkpt>
      <trkpt lat="46.93021" lon="8.57617">
        <ele>497</ele>
        <time>2021-08-10T10:57:00.811Z</time>
      </trkpt>
      <trkpt lat="46.9302" lon="8.57618">
        <ele>497</ele>
        <time>2021-08-10T10:57:01.812Z</time>
      </trkpt>
      <trkpt lat="46.93019" lon="8.57618">
        <ele>497</ele>
        <time>2021-08-10T10:57:02.812Z</time>
      </trkpt>
      <trkpt lat="46.93019" lon="8.57619">
        <ele>498</ele>
        <time>2021-08-10T10:57:03.812Z</time>
      </trkpt>
      <trkpt lat="46.93018" lon="8.5762">
        <ele>498</ele>
        <time>2021-08-10T10:57:04.812Z</time>
      </trkpt>
      <trkpt lat="46.93018" lon="8.57621">
        <ele>498</ele>
        <time>2021-08-10T10:57:05.812Z</time>
      </trkpt>
      <trkpt lat="46.93018" lon="8.57621">
        <ele>498</ele>
        <time>2021-08-10T10:57:06.812Z</time>
      </trkpt>
      <trkpt lat="46.93018" lon="8.57621">
        <ele>499</ele>
        <time>2021-08-10T10:57:07.812Z</time>
      </trkpt>
      <trkpt lat="46.93017" lon="8.57621">
        <ele>499</ele>
        <time>2021-08-10T10:57:08.812Z</time>
      </trkpt>
      <trkpt lat="46.93017" lon="8.57621">
        <ele>499</ele>
        <time>2021-08-10T10:57:09.811Z</time>
      </trkpt>
      <trkpt lat="46.93016" lon="8.57621">
        <ele>500</ele>
        <time>2021-08-10T10:57:10.812Z</time>
      </trkpt>
      <trkpt lat="46.93015" lon="8.57621">
        <ele>500</ele>
        <time>2021-08-10T10:57:11.811Z</time>
      </trkpt>
      <trkpt lat="46.93014" lon="8.57622">
        <ele>500</ele>
        <time>2021-08-10T10:57:12.811Z</time>
      </trkpt>
      <trkpt lat="46.93014" lon="8.57623">
        <ele>501</ele>
        <time>2021-08-10T10:57:13.812Z</time>
      </trkpt>
      <trkpt lat="46.93013" lon="8.57623">
        <ele>502</ele>
        <time>2021-08-10T10:57:14.812Z</time>
      </trkpt>
      <trkpt lat="46.93012" lon="8.57624">
        <ele>503</ele>
        <time>2021-08-10T10:57:15.812Z</time>
      </trkpt>
      <trkpt lat="46.93011" lon="8.57624">
        <ele>503</ele>
        <time>2021-08-10T10:57:16.812Z</time>
      </trkpt>
      <trkpt lat="46.9301" lon="8.57625">
        <ele>503</ele>
        <time>2021-08-10T10:57:17.812Z</time>
      </trkpt>
      <trkpt lat="46.93009" lon="8.57625">
        <ele>503</ele>
        <time>2021-08-10T10:57:18.812Z</time>
      </trkpt>
      <trkpt lat="46.93008" lon="8.57626">
        <ele>504</ele>
        <time>2021-08-10T10:57:19.812Z</time>
      </trkpt>
      <trkpt lat="46.93007" lon="8.57626">
        <ele>504</ele>
        <time>2021-08-10T10:57:20.812Z</time>
      </trkpt>
      <trkpt lat="46.93006" lon="8.57627">
        <ele>504</ele>
        <time>2021-08-10T10:57:21.812Z</time>
      </trkpt>
      <trkpt lat="46.93006" lon="8.57628">
        <ele>504</ele>
        <time>2021-08-10T10:57:22.812Z</time>
      </trkpt>
      <trkpt lat="46.93005" lon="8.57628">
        <ele>503</ele>
        <time>2021-08-10T10:57:23.812Z</time>
      </trkpt>
      <trkpt lat="46.93004" lon="8.57628">
        <ele>503</ele>
        <time>2021-08-10T10:57:24.812Z</time>
      </trkpt>
      <trkpt lat="46.93003" lon="8.57629">
        <ele>504</ele>
        <time>2021-08-10T10:57:25.812Z</time>
      </trkpt>
      <trkpt lat="46.93002" lon="8.57629">
        <ele>504</ele>
        <time>2021-08-10T10:57:26.812Z</time>
      </trkpt>
      <trkpt lat="46.93001" lon="8.5763">
        <ele>504</ele>
        <time>2021-08-10T10:57:27.812Z</time>
      </trkpt>
      <trkpt lat="46.93001" lon="8.57631">
        <ele>504</ele>
        <time>2021-08-10T10:57:28.812Z</time>
      </trkpt>
      <trkpt lat="46.93" lon="8.57632">
        <ele>504</ele>
        <time>2021-08-10T10:57:29.811Z</time>
      </trkpt>
      <trkpt lat="46.92999" lon="8.57632">
        <ele>505</ele>
        <time>2021-08-10T10:57:30.812Z</time>
      </trkpt>
      <trkpt lat="46.92999" lon="8.57632">
        <ele>505</ele>
        <time>2021-08-10T10:57:31.812Z</time>
      </trkpt>
      <trkpt lat="46.92998" lon="8.57633">
        <ele>505</ele>
        <time>2021-08-10T10:57:32.811Z</time>
      </trkpt>
      <trkpt lat="46.92998" lon="8.57633">
        <ele>505</ele>
        <time>2021-08-10T10:57:33.812Z</time>
      </trkpt>
      <trkpt lat="46.92997" lon="8.57634">
        <ele>505</ele>
        <time>2021-08-10T10:57:34.812Z</time>
      </trkpt>
      <trkpt lat="46.92996" lon="8.57634">
        <ele>505</ele>
        <time>2021-08-10T10:57:35.812Z</time>
      </trkpt>
      <trkpt lat="46.92996" lon="8.57634">
        <ele>505</ele>
        <time>2021-08-10T10:57:36.811Z</time>
      </trkpt>
      <trkpt lat="46.92995" lon="8.57634">
        <ele>505</ele>
        <time>2021-08-10T10:57:37.811Z</time>
      </trkpt>
      <trkpt lat="46.92994" lon="8.57634">
        <ele>504</ele>
        <time>2021-08-10T10:57:38.811Z</time>
      </trkpt>
      <trkpt lat="46.92994" lon="8.57634">
        <ele>504</ele>
        <time>2021-08-10T10:57:39.812Z</time>
      </trkpt>
      <trkpt lat="46.92993" lon="8.57635">
        <ele>504</ele>
        <time>2021-08-10T10:57:40.812Z</time>
      </trkpt>
      <trkpt lat="46.92992" lon="8.57635">
        <ele>505</ele>
        <time>2021-08-10T10:57:41.812Z</time>
      </trkpt>
      <trkpt lat="46.92991" lon="8.57635">
        <ele>505</ele>
        <time>2021-08-10T10:57:42.811Z</time>
      </trkpt>
      <trkpt lat="46.92991" lon="8.57636">
        <ele>505</ele>
        <time>2021-08-10T10:57:43.811Z</time>
      </trkpt>
      <trkpt lat="46.9299" lon="8.57636">
        <ele>505</ele>
        <time>2021-08-10T10:57:44.811Z</time>
      </trkpt>
      <trkpt lat="46.92989" lon="8.57637">
        <ele>505</ele>
        <time>2021-08-10T10:57:45.811Z</time>
      </trkpt>
      <trkpt lat="46.92988" lon="8.57638">
        <ele>505</ele>
        <time>2021-08-10T10:57:46.812Z</time>
      </trkpt>
      <trkpt lat="46.92987" lon="8.57639">
        <ele>505</ele>
        <time>2021-08-10T10:57:47.811Z</time>
      </trkpt>
      <trkpt lat="46.92986" lon="8.5764">
        <ele>505</ele>
        <time>2021-08-10T10:57:48.811Z</time>
      </trkpt>
      <trkpt lat="46.92986" lon="8.57641">
        <ele>505</ele>
        <time>2021-08-10T10:57:49.811Z</time>
      </trkpt>
      <trkpt lat="46.92985" lon="8.57642">
        <ele>505</ele>
        <time>2021-08-10T10:57:50.811Z</time>
      </trkpt>
      <trkpt lat="46.92984" lon="8.57643">
        <ele>504</ele>
        <time>2021-08-10T10:57:51.811Z</time>
      </trkpt>
      <trkpt lat="46.92984" lon="8.57644">
        <ele>504</ele>
        <time>2021-08-10T10:57:52.812Z</time>
      </trkpt>
      <trkpt lat="46.92983" lon="8.57645">
        <ele>504</ele>
        <time>2021-08-10T10:57:53.811Z</time>
      </trkpt>
      <trkpt lat="46.92983" lon="8.57647">
        <ele>504</ele>
        <time>2021-08-10T10:57:54.811Z</time>
      </trkpt>
      <trkpt lat="46.92983" lon="8.57648">
        <ele>503</ele>
        <time>2021-08-10T10:57:55.811Z</time>
      </trkpt>
      <trkpt lat="46.92983" lon="8.57649">
        <ele>503</ele>
        <time>2021-08-10T10:57:56.811Z</time>
      </trkpt>
      <trkpt lat="46.92982" lon="8.5765">
        <ele>503</ele>
        <time>2021-08-10T10:57:57.812Z</time>
      </trkpt>
      <trkpt lat="46.92982" lon="8.57651">
        <ele>502</ele>
        <time>2021-08-10T10:57:58.811Z</time>
      </trkpt>
      <trkpt lat="46.92982" lon="8.57652">
        <ele>502</ele>
        <time>2021-08-10T10:57:59.811Z</time>
      </trkpt>
      <trkpt lat="46.92981" lon="8.57653">
        <ele>502</ele>
        <time>2021-08-10T10:58:00.811Z</time>
      </trkpt>
      <trkpt lat="46.92981" lon="8.57653">
        <ele>502</ele>
        <time>2021-08-10T10:58:01.811Z</time>
      </trkpt>
      <trkpt lat="46.92981" lon="8.57654">
        <ele>502</ele>
        <time>2021-08-10T10:58:02.811Z</time>
      </trkpt>
      <trkpt lat="46.9298" lon="8.57655">
        <ele>502</ele>
        <time>2021-08-10T10:58:03.812Z</time>
      </trkpt>
      <trkpt lat="46.92979" lon="8.57656">
        <ele>503</ele>
        <time>2021-08-10T10:58:04.811Z</time>
      </trkpt>
      <trkpt lat="46.92978" lon="8.57657">
        <ele>503</ele>
        <time>2021-08-10T10:58:05.811Z</time>
      </trkpt>
      <trkpt lat="46.92977" lon="8.57657">
        <ele>503</ele>
        <time>2021-08-10T10:58:06.811Z</time>
      </trkpt>
      <trkpt lat="46.92976" lon="8.57658">
        <ele>503</ele>
        <time>2021-08-10T10:58:07.811Z</time>
      </trkpt>
      <trkpt lat="46.92975" lon="8.57659">
        <ele>503</ele>
        <time>2021-08-10T10:58:08.811Z</time>
      </trkpt>
      <trkpt lat="46.92975" lon="8.5766">
        <ele>504</ele>
        <time>2021-08-10T10:58:09.811Z</time>
      </trkpt>
      <trkpt lat="46.92974" lon="8.5766">
        <ele>504</ele>
        <time>2021-08-10T10:58:10.811Z</time>
      </trkpt>
      <trkpt lat="46.92973" lon="8.57661">
        <ele>504</ele>
        <time>2021-08-10T10:58:11.811Z</time>
      </trkpt>
      <trkpt lat="46.92972" lon="8.57661">
        <ele>504</ele>
        <time>2021-08-10T10:58:12.811Z</time>
      </trkpt>
      <trkpt lat="46.92972" lon="8.57661">
        <ele>505</ele>
        <time>2021-08-10T10:58:13.811Z</time>
      </trkpt>
      <trkpt lat="46.92972" lon="8.57662">
        <ele>505</ele>
        <time>2021-08-10T10:58:14.811Z</time>
      </trkpt>
      <trkpt lat="46.92971" lon="8.57662">
        <ele>506</ele>
        <time>2021-08-10T10:58:15.811Z</time>
      </trkpt>
      <trkpt lat="46.92971" lon="8.57663">
        <ele>506</ele>
        <time>2021-08-10T10:58:16.811Z</time>
      </trkpt>
      <trkpt lat="46.92969" lon="8.57664">
        <ele>506</ele>
        <time>2021-08-10T10:58:17.811Z</time>
      </trkpt>
      <trkpt lat="46.92968" lon="8.57665">
        <ele>507</ele>
        <time>2021-08-10T10:58:18.811Z</time>
      </trkpt>
      <trkpt lat="46.92967" lon="8.57665">
        <ele>507</ele>
        <time>2021-08-10T10:58:19.811Z</time>
      </trkpt>
      <trkpt lat="46.92967" lon="8.57665">
        <ele>507</ele>
        <time>2021-08-10T10:58:20.811Z</time>
      </trkpt>
      <trkpt lat="46.92966" lon="8.57665">
        <ele>507</ele>
        <time>2021-08-10T10:58:21.811Z</time>
      </trkpt>
      <trkpt lat="46.92966" lon="8.57665">
        <ele>507</ele>
        <time>2021-08-10T10:58:22.811Z</time>
      </trkpt>
      <trkpt lat="46.92965" lon="8.57665">
        <ele>507</ele>
        <time>2021-08-10T10:58:23.811Z</time>
      </trkpt>
      <trkpt lat="46.92965" lon="8.57665">
        <ele>507</ele>
        <time>2021-08-10T10:58:24.811Z</time>
      </trkpt>
      <trkpt lat="46.92964" lon="8.57665">
        <ele>506</ele>
        <time>2021-08-10T10:58:25.811Z</time>
      </trkpt>
      <trkpt lat="46.92964" lon="8.57665">
        <ele>506</ele>
        <time>2021-08-10T10:58:26.811Z</time>
      </trkpt>
      <trkpt lat="46.92963" lon="8.57665">
        <ele>505</ele>
        <time>2021-08-10T10:58:27.811Z</time>
      </trkpt>
      <trkpt lat="46.92962" lon="8.57665">
        <ele>505</ele>
        <time>2021-08-10T10:58:28.811Z</time>
      </trkpt>
      <trkpt lat="46.92961" lon="8.57665">
        <ele>505</ele>
        <time>2021-08-10T10:58:29.811Z</time>
      </trkpt>
      <trkpt lat="46.92961" lon="8.57665">
        <ele>506</ele>
        <time>2021-08-10T10:58:30.811Z</time>
      </trkpt>
      <trkpt lat="46.9296" lon="8.57665">
        <ele>506</ele>
        <time>2021-08-10T10:58:31.812Z</time>
      </trkpt>
      <trkpt lat="46.92959" lon="8.57665">
        <ele>507</ele>
        <time>2021-08-10T10:58:32.811Z</time>
      </trkpt>
      <trkpt lat="46.92959" lon="8.57666">
        <ele>507</ele>
        <time>2021-08-10T10:58:33.811Z</time>
      </trkpt>
      <trkpt lat="46.92958" lon="8.57666">
        <ele>508</ele>
        <time>2021-08-10T10:58:34.812Z</time>
      </trkpt>
      <trkpt lat="46.92958" lon="8.57666">
        <ele>509</ele>
        <time>2021-08-10T10:58:35.812Z</time>
      </trkpt>
      <trkpt lat="46.92958" lon="8.57668">
        <ele>510</ele>
        <time>2021-08-10T10:58:36.812Z</time>
      </trkpt>
      <trkpt lat="46.92957" lon="8.57669">
        <ele>511</ele>
        <time>2021-08-10T10:58:37.812Z</time>
      </trkpt>
      <trkpt lat="46.92957" lon="8.57671">
        <ele>511</ele>
        <time>2021-08-10T10:58:38.812Z</time>
      </trkpt>
      <trkpt lat="46.92957" lon="8.57672">
        <ele>512</ele>
        <time>2021-08-10T10:58:39.811Z</time>
      </trkpt>
      <trkpt lat="46.92956" lon="8.57673">
        <ele>512</ele>
        <time>2021-08-10T10:58:40.812Z</time>
      </trkpt>
      <trkpt lat="46.92955" lon="8.57674">
        <ele>512</ele>
        <time>2021-08-10T10:58:41.812Z</time>
      </trkpt>
      <trkpt lat="46.92955" lon="8.57674">
        <ele>513</ele>
        <time>2021-08-10T10:58:42.811Z</time>
      </trkpt>
      <trkpt lat="46.92954" lon="8.57674">
        <ele>513</ele>
        <time>2021-08-10T10:58:43.812Z</time>
      </trkpt>
      <trkpt lat="46.92953" lon="8.57674">
        <ele>513</ele>
        <time>2021-08-10T10:58:44.811Z</time>
      </trkpt>
      <trkpt lat="46.92953" lon="8.57673">
        <ele>513</ele>
        <time>2021-08-10T10:58:45.812Z</time>
      </trkpt>
      <trkpt lat="46.92952" lon="8.57673">
        <ele>513</ele>
        <time>2021-08-10T10:58:46.812Z</time>
      </trkpt>
      <trkpt lat="46.92951" lon="8.57673">
        <ele>514</ele>
        <time>2021-08-10T10:58:47.812Z</time>
      </trkpt>
      <trkpt lat="46.92951" lon="8.57673">
        <ele>514</ele>
        <time>2021-08-10T10:58:48.811Z</time>
      </trkpt>
      <trkpt lat="46.9295" lon="8.57672">
        <ele>514</ele>
        <time>2021-08-10T10:58:49.812Z</time>
      </trkpt>
      <trkpt lat="46.92949" lon="8.57671">
        <ele>514</ele>
        <time>2021-08-10T10:58:50.811Z</time>
      </trkpt>
      <trkpt lat="46.92948" lon="8.57671">
        <ele>514</ele>
        <time>2021-08-10T10:58:51.812Z</time>
      </trkpt>
      <trkpt lat="46.92947" lon="8.5767">
        <ele>514</ele>
        <time>2021-08-10T10:58:52.811Z</time>
      </trkpt>
      <trkpt lat="46.92947" lon="8.5767">
        <ele>514</ele>
        <time>2021-08-10T10:58:53.812Z</time>
      </trkpt>
      <trkpt lat="46.92945" lon="8.57669">
        <ele>514</ele>
        <time>2021-08-10T10:58:54.812Z</time>
      </trkpt>
      <trkpt lat="46.92945" lon="8.57669">
        <ele>513</ele>
        <time>2021-08-10T10:58:55.811Z</time>
      </trkpt>
      <trkpt lat="46.92943" lon="8.57669">
        <ele>513</ele>
        <time>2021-08-10T10:58:56.811Z</time>
      </trkpt>
      <trkpt lat="46.92942" lon="8.57668">
        <ele>512</ele>
        <time>2021-08-10T10:58:57.812Z</time>
      </trkpt>
      <trkpt lat="46.92941" lon="8.57668">
        <ele>512</ele>
        <time>2021-08-10T10:58:58.812Z</time>
      </trkpt>
      <trkpt lat="46.92939" lon="8.57667">
        <ele>511</ele>
        <time>2021-08-10T10:58:59.811Z</time>
      </trkpt>
      <trkpt lat="46.92937" lon="8.57665">
        <ele>511</ele>
        <time>2021-08-10T10:59:00.812Z</time>
      </trkpt>
      <trkpt lat="46.92937" lon="8.57664">
        <ele>511</ele>
        <time>2021-08-10T10:59:01.811Z</time>
      </trkpt>
      <trkpt lat="46.92937" lon="8.57663">
        <ele>511</ele>
        <time>2021-08-10T10:59:02.812Z</time>
      </trkpt>
      <trkpt lat="46.92937" lon="8.57663">
        <ele>511</ele>
        <time>2021-08-10T10:59:03.812Z</time>
      </trkpt>
      <trkpt lat="46.92936" lon="8.57663">
        <ele>511</ele>
        <time>2021-08-10T10:59:04.812Z</time>
      </trkpt>
      <trkpt lat="46.92936" lon="8.57662">
        <ele>511</ele>
        <time>2021-08-10T10:59:05.811Z</time>
      </trkpt>
      <trkpt lat="46.92935" lon="8.57662">
        <ele>511</ele>
        <time>2021-08-10T10:59:06.812Z</time>
      </trkpt>
      <trkpt lat="46.92934" lon="8.57661">
        <ele>511</ele>
        <time>2021-08-10T10:59:07.812Z</time>
      </trkpt>
      <trkpt lat="46.92934" lon="8.5766">
        <ele>510</ele>
        <time>2021-08-10T10:59:08.812Z</time>
      </trkpt>
      <trkpt lat="46.92933" lon="8.57658">
        <ele>510</ele>
        <time>2021-08-10T10:59:09.811Z</time>
      </trkpt>
      <trkpt lat="46.92933" lon="8.57657">
        <ele>510</ele>
        <time>2021-08-10T10:59:10.812Z</time>
      </trkpt>
      <trkpt lat="46.92932" lon="8.57656">
        <ele>510</ele>
        <time>2021-08-10T10:59:11.812Z</time>
      </trkpt>
      <trkpt lat="46.92932" lon="8.57656">
        <ele>509</ele>
        <time>2021-08-10T10:59:12.811Z</time>
      </trkpt>
      <trkpt lat="46.92931" lon="8.57655">
        <ele>509</ele>
        <time>2021-08-10T10:59:13.811Z</time>
      </trkpt>
      <trkpt lat="46.9293" lon="8.57655">
        <ele>509</ele>
        <time>2021-08-10T10:59:14.812Z</time>
      </trkpt>
      <trkpt lat="46.92929" lon="8.57655">
        <ele>508</ele>
        <time>2021-08-10T10:59:15.811Z</time>
      </trkpt>
      <trkpt lat="46.92928" lon="8.57656">
        <ele>508</ele>
        <time>2021-08-10T10:59:16.811Z</time>
      </trkpt>
      <trkpt lat="46.92928" lon="8.57658">
        <ele>507</ele>
        <time>2021-08-10T10:59:17.811Z</time>
      </trkpt>
      <trkpt lat="46.92928" lon="8.57659">
        <ele>507</ele>
        <time>2021-08-10T10:59:18.811Z</time>
      </trkpt>
      <trkpt lat="46.92928" lon="8.5766">
        <ele>506</ele>
        <time>2021-08-10T10:59:19.811Z</time>
      </trkpt>
      <trkpt lat="46.92928" lon="8.57662">
        <ele>506</ele>
        <time>2021-08-10T10:59:20.811Z</time>
      </trkpt>
      <trkpt lat="46.92927" lon="8.57663">
        <ele>506</ele>
        <time>2021-08-10T10:59:21.812Z</time>
      </trkpt>
      <trkpt lat="46.92927" lon="8.57665">
        <ele>506</ele>
        <time>2021-08-10T10:59:22.812Z</time>
      </trkpt>
      <trkpt lat="46.92927" lon="8.57666">
        <ele>505</ele>
        <time>2021-08-10T10:59:23.812Z</time>
      </trkpt>
      <trkpt lat="46.92927" lon="8.57668">
        <ele>505</ele>
        <time>2021-08-10T10:59:24.812Z</time>
      </trkpt>
      <trkpt lat="46.92928" lon="8.57669">
        <ele>504</ele>
        <time>2021-08-10T10:59:25.812Z</time>
      </trkpt>
      <trkpt lat="46.92928" lon="8.57668">
        <ele>504</ele>
        <time>2021-08-10T10:59:26.812Z</time>
      </trkpt>
      <trkpt lat="46.92928" lon="8.57669">
        <ele>503</ele>
        <time>2021-08-10T10:59:27.811Z</time>
      </trkpt>
      <trkpt lat="46.92927" lon="8.57671">
        <ele>502</ele>
        <time>2021-08-10T10:59:28.812Z</time>
      </trkpt>
      <trkpt lat="46.92927" lon="8.57672">
        <ele>501</ele>
        <time>2021-08-10T10:59:29.811Z</time>
      </trkpt>
      <trkpt lat="46.92928" lon="8.57673">
        <ele>501</ele>
        <time>2021-08-10T10:59:30.812Z</time>
      </trkpt>
      <trkpt lat="46.92928" lon="8.57673">
        <ele>501</ele>
        <time>2021-08-10T10:59:31.812Z</time>
      </trkpt>
      <trkpt lat="46.92928" lon="8.57674">
        <ele>500</ele>
        <time>2021-08-10T10:59:32.811Z</time>
      </trkpt>
      <trkpt lat="46.92928" lon="8.57675">
        <ele>500</ele>
        <time>2021-08-10T10:59:33.811Z</time>
      </trkpt>
      <trkpt lat="46.92928" lon="8.57676">
        <ele>500</ele>
        <time>2021-08-10T10:59:34.812Z</time>
      </trkpt>
      <trkpt lat="46.92928" lon="8.57677">
        <ele>500</ele>
        <time>2021-08-10T10:59:35.811Z</time>
      </trkpt>
      <trkpt lat="46.92928" lon="8.57678">
        <ele>499</ele>
        <time>2021-08-10T10:59:36.811Z</time>
      </trkpt>
      <trkpt lat="46.92928" lon="8.57679">
        <ele>499</ele>
        <time>2021-08-10T10:59:37.812Z</time>
      </trkpt>
      <trkpt lat="46.92929" lon="8.5768">
        <ele>498</ele>
        <time>2021-08-10T10:59:38.812Z</time>
      </trkpt>
      <trkpt lat="46.92929" lon="8.57681">
        <ele>498</ele>
        <time>2021-08-10T10:59:39.812Z</time>
      </trkpt>
      <trkpt lat="46.92929" lon="8.57682">
        <ele>498</ele>
        <time>2021-08-10T10:59:40.812Z</time>
      </trkpt>
      <trkpt lat="46.92929" lon="8.57683">
        <ele>497</ele>
        <time>2021-08-10T10:59:41.812Z</time>
      </trkpt>
      <trkpt lat="46.92929" lon="8.57683">
        <ele>497</ele>
        <time>2021-08-10T10:59:42.812Z</time>
      </trkpt>
      <trkpt lat="46.92929" lon="8.57684">
        <ele>497</ele>
        <time>2021-08-10T10:59:43.811Z</time>
      </trkpt>
      <trkpt lat="46.9293" lon="8.57685">
        <ele>496</ele>
        <time>2021-08-10T10:59:44.812Z</time>
      </trkpt>
      <trkpt lat="46.9293" lon="8.57685">
        <ele>496</ele>
        <time>2021-08-10T10:59:45.812Z</time>
      </trkpt>
      <trkpt lat="46.9293" lon="8.57686">
        <ele>495</ele>
        <time>2021-08-10T10:59:46.812Z</time>
      </trkpt>
      <trkpt lat="46.9293" lon="8.57687">
        <ele>495</ele>
        <time>2021-08-10T10:59:47.812Z</time>
      </trkpt>
      <trkpt lat="46.9293" lon="8.57688">
        <ele>495</ele>
        <time>2021-08-10T10:59:48.811Z</time>
      </trkpt>
      <trkpt lat="46.92929" lon="8.57689">
        <ele>494</ele>
        <time>2021-08-10T10:59:49.812Z</time>
      </trkpt>
      <trkpt lat="46.92929" lon="8.57691">
        <ele>494</ele>
        <time>2021-08-10T10:59:50.812Z</time>
      </trkpt>
      <trkpt lat="46.92929" lon="8.57692">
        <ele>493</ele>
        <time>2021-08-10T10:59:51.811Z</time>
      </trkpt>
      <trkpt lat="46.92928" lon="8.57694">
        <ele>493</ele>
        <time>2021-08-10T10:59:52.812Z</time>
      </trkpt>
      <trkpt lat="46.92929" lon="8.57695">
        <ele>492</ele>
        <time>2021-08-10T10:59:53.812Z</time>
      </trkpt>
      <trkpt lat="46.92929" lon="8.57696">
        <ele>492</ele>
        <time>2021-08-10T10:59:54.812Z</time>
      </trkpt>
      <trkpt lat="46.92929" lon="8.57697">
        <ele>491</ele>
        <time>2021-08-10T10:59:55.811Z</time>
      </trkpt>
      <trkpt lat="46.9293" lon="8.57698">
        <ele>491</ele>
        <time>2021-08-10T10:59:56.812Z</time>
      </trkpt>
      <trkpt lat="46.9293" lon="8.57699">
        <ele>490</ele>
        <time>2021-08-10T10:59:57.812Z</time>
      </trkpt>
      <trkpt lat="46.9293" lon="8.577">
        <ele>490</ele>
        <time>2021-08-10T10:59:58.812Z</time>
      </trkpt>
      <trkpt lat="46.9293" lon="8.57701">
        <ele>489</ele>
        <time>2021-08-10T10:59:59.812Z</time>
      </trkpt>
      <trkpt lat="46.92932" lon="8.577">
        <ele>489</ele>
        <time>2021-08-10T11:00:00.812Z</time>
      </trkpt>
      <trkpt lat="46.92933" lon="8.57701">
        <ele>488</ele>
        <time>2021-08-10T11:00:01.812Z</time>
      </trkpt>
      <trkpt lat="46.92933" lon="8.57702">
        <ele>488</ele>
        <time>2021-08-10T11:00:02.811Z</time>
      </trkpt>
      <trkpt lat="46.92933" lon="8.57704">
        <ele>488</ele>
        <time>2021-08-10T11:00:03.812Z</time>
      </trkpt>
      <trkpt lat="46.92932" lon="8.57704">
        <ele>488</ele>
        <time>2021-08-10T11:00:04.812Z</time>
      </trkpt>
      <trkpt lat="46.92931" lon="8.57704">
        <ele>488</ele>
        <time>2021-08-10T11:00:05.811Z</time>
      </trkpt>
      <trkpt lat="46.9293" lon="8.57704">
        <ele>488</ele>
        <time>2021-08-10T11:00:06.811Z</time>
      </trkpt>
      <trkpt lat="46.92929" lon="8.57704">
        <ele>489</ele>
        <time>2021-08-10T11:00:07.811Z</time>
      </trkpt>
      <trkpt lat="46.92928" lon="8.57705">
        <ele>489</ele>
        <time>2021-08-10T11:00:08.811Z</time>
      </trkpt>
      <trkpt lat="46.92927" lon="8.57707">
        <ele>489</ele>
        <time>2021-08-10T11:00:09.812Z</time>
      </trkpt>
      <trkpt lat="46.92926" lon="8.57708">
        <ele>489</ele>
        <time>2021-08-10T11:00:10.812Z</time>
      </trkpt>
      <trkpt lat="46.92926" lon="8.57709">
        <ele>489</ele>
        <time>2021-08-10T11:00:11.812Z</time>
      </trkpt>
      <trkpt lat="46.92925" lon="8.5771">
        <ele>489</ele>
        <time>2021-08-10T11:00:12.811Z</time>
      </trkpt>
      <trkpt lat="46.92925" lon="8.57712">
        <ele>488</ele>
        <time>2021-08-10T11:00:13.812Z</time>
      </trkpt>
      <trkpt lat="46.92925" lon="8.57713">
        <ele>488</ele>
        <time>2021-08-10T11:00:14.811Z</time>
      </trkpt>
      <trkpt lat="46.92925" lon="8.57714">
        <ele>488</ele>
        <time>2021-08-10T11:00:15.811Z</time>
      </trkpt>
      <trkpt lat="46.92924" lon="8.57715">
        <ele>488</ele>
        <time>2021-08-10T11:00:16.811Z</time>
      </trkpt>
      <trkpt lat="46.92924" lon="8.57716">
        <ele>488</ele>
        <time>2021-08-10T11:00:17.811Z</time>
      </trkpt>
      <trkpt lat="46.92924" lon="8.57718">
        <ele>488</ele>
        <time>2021-08-10T11:00:18.812Z</time>
      </trkpt>
      <trkpt lat="46.92924" lon="8.57719">
        <ele>488</ele>
        <time>2021-08-10T11:00:19.812Z</time>
      </trkpt>
      <trkpt lat="46.92923" lon="8.57721">
        <ele>488</ele>
        <time>2021-08-10T11:00:20.812Z</time>
      </trkpt>
      <trkpt lat="46.92923" lon="8.57723">
        <ele>488</ele>
        <time>2021-08-10T11:00:21.811Z</time>
      </trkpt>
      <trkpt lat="46.92923" lon="8.57725">
        <ele>488</ele>
        <time>2021-08-10T11:00:22.811Z</time>
      </trkpt>
      <trkpt lat="46.92922" lon="8.57726">
        <ele>488</ele>
        <time>2021-08-10T11:00:23.812Z</time>
      </trkpt>
      <trkpt lat="46.92922" lon="8.57726">
        <ele>488</ele>
        <time>2021-08-10T11:00:24.812Z</time>
      </trkpt>
      <trkpt lat="46.92922" lon="8.57726">
        <ele>489</ele>
        <time>2021-08-10T11:00:25.811Z</time>
      </trkpt>
      <trkpt lat="46.92921" lon="8.57726">
        <ele>489</ele>
        <time>2021-08-10T11:00:26.812Z</time>
      </trkpt>
      <trkpt lat="46.92921" lon="8.57725">
        <ele>489</ele>
        <time>2021-08-10T11:00:27.812Z</time>
      </trkpt>
      <trkpt lat="46.9292" lon="8.57724">
        <ele>489</ele>
        <time>2021-08-10T11:00:28.811Z</time>
      </trkpt>
      <trkpt lat="46.9292" lon="8.57723">
        <ele>489</ele>
        <time>2021-08-10T11:00:29.812Z</time>
      </trkpt>
      <trkpt lat="46.9292" lon="8.57721">
        <ele>489</ele>
        <time>2021-08-10T11:00:30.812Z</time>
      </trkpt>
      <trkpt lat="46.9292" lon="8.57721">
        <ele>489</ele>
        <time>2021-08-10T11:00:31.812Z</time>
      </trkpt>
      <trkpt lat="46.9292" lon="8.5772">
        <ele>489</ele>
        <time>2021-08-10T11:00:32.812Z</time>
      </trkpt>
      <trkpt lat="46.9292" lon="8.57719">
        <ele>489</ele>
        <time>2021-08-10T11:00:33.811Z</time>
      </trkpt>
      <trkpt lat="46.9292" lon="8.57717">
        <ele>489</ele>
        <time>2021-08-10T11:00:34.811Z</time>
      </trkpt>
      <trkpt lat="46.92919" lon="8.57716">
        <ele>489</ele>
        <time>2021-08-10T11:00:35.812Z</time>
      </trkpt>
      <trkpt lat="46.9292" lon="8.57715">
        <ele>489</ele>
        <time>2021-08-10T11:00:36.812Z</time>
      </trkpt>
      <trkpt lat="46.92919" lon="8.57714">
        <ele>489</ele>
        <time>2021-08-10T11:00:37.812Z</time>
      </trkpt>
      <trkpt lat="46.92919" lon="8.57713">
        <ele>489</ele>
        <time>2021-08-10T11:00:38.812Z</time>
      </trkpt>
      <trkpt lat="46.92919" lon="8.57712">
        <ele>488</ele>
        <time>2021-08-10T11:00:39.812Z</time>
      </trkpt>
      <trkpt lat="46.92919" lon="8.57711">
        <ele>488</ele>
        <time>2021-08-10T11:00:40.811Z</time>
      </trkpt>
      <trkpt lat="46.92919" lon="8.57711">
        <ele>488</ele>
        <time>2021-08-10T11:00:41.812Z</time>
      </trkpt>
      <trkpt lat="46.92919" lon="8.57709">
        <ele>487</ele>
        <time>2021-08-10T11:00:42.811Z</time>
      </trkpt>
      <trkpt lat="46.92918" lon="8.57709">
        <ele>487</ele>
        <time>2021-08-10T11:00:43.811Z</time>
      </trkpt>
      <trkpt lat="46.92919" lon="8.57709">
        <ele>487</ele>
        <time>2021-08-10T11:00:44.811Z</time>
      </trkpt>
      <trkpt lat="46.92919" lon="8.57708">
        <ele>486</ele>
        <time>2021-08-10T11:00:45.812Z</time>
      </trkpt>
      <trkpt lat="46.92919" lon="8.57707">
        <ele>486</ele>
        <time>2021-08-10T11:00:46.811Z</time>
      </trkpt>
      <trkpt lat="46.92919" lon="8.57707">
        <ele>486</ele>
        <time>2021-08-10T11:00:47.811Z</time>
      </trkpt>
      <trkpt lat="46.92918" lon="8.57707">
        <ele>486</ele>
        <time>2021-08-10T11:00:48.812Z</time>
      </trkpt>
      <trkpt lat="46.92917" lon="8.57706">
        <ele>487</ele>
        <time>2021-08-10T11:00:49.812Z</time>
      </trkpt>
      <trkpt lat="46.92918" lon="8.57706">
        <ele>487</ele>
        <time>2021-08-10T11:00:50.812Z</time>
      </trkpt>
      <trkpt lat="46.92918" lon="8.57705">
        <ele>487</ele>
        <time>2021-08-10T11:00:51.812Z</time>
      </trkpt>
      <trkpt lat="46.92917" lon="8.57704">
        <ele>487</ele>
        <time>2021-08-10T11:00:52.811Z</time>
      </trkpt>
      <trkpt lat="46.92917" lon="8.57703">
        <ele>488</ele>
        <time>2021-08-10T11:00:53.812Z</time>
      </trkpt>
      <trkpt lat="46.92916" lon="8.57703">
        <ele>488</ele>
        <time>2021-08-10T11:00:54.812Z</time>
      </trkpt>
      <trkpt lat="46.92916" lon="8.57703">
        <ele>488</ele>
        <time>2021-08-10T11:00:55.812Z</time>
      </trkpt>
      <trkpt lat="46.92917" lon="8.57702">
        <ele>489</ele>
        <time>2021-08-10T11:00:56.811Z</time>
      </trkpt>
      <trkpt lat="46.92917" lon="8.57701">
        <ele>489</ele>
        <time>2021-08-10T11:00:57.812Z</time>
      </trkpt>
      <trkpt lat="46.92916" lon="8.577">
        <ele>489</ele>
        <time>2021-08-10T11:00:58.812Z</time>
      </trkpt>
      <trkpt lat="46.92916" lon="8.577">
        <ele>489</ele>
        <time>2021-08-10T11:00:59.811Z</time>
      </trkpt>
      <trkpt lat="46.92916" lon="8.577">
        <ele>488</ele>
        <time>2021-08-10T11:01:00.811Z</time>
      </trkpt>
      <trkpt lat="46.92915" lon="8.57698">
        <ele>489</ele>
        <time>2021-08-10T11:01:01.812Z</time>
      </trkpt>
      <trkpt lat="46.92914" lon="8.57697">
        <ele>489</ele>
        <time>2021-08-10T11:01:02.813Z</time>
      </trkpt>
      <trkpt lat="46.92914" lon="8.57696">
        <ele>489</ele>
        <time>2021-08-10T11:01:03.813Z</time>
      </trkpt>
      <trkpt lat="46.92914" lon="8.57696">
        <ele>489</ele>
        <time>2021-08-10T11:01:04.812Z</time>
      </trkpt>
      <trkpt lat="46.92914" lon="8.57695">
        <ele>489</ele>
        <time>2021-08-10T11:01:05.813Z</time>
      </trkpt>
      <trkpt lat="46.92914" lon="8.57695">
        <ele>489</ele>
        <time>2021-08-10T11:01:06.813Z</time>
      </trkpt>
      <trkpt lat="46.92915" lon="8.57694">
        <ele>489</ele>
        <time>2021-08-10T11:01:07.813Z</time>
      </trkpt>
      <trkpt lat="46.92916" lon="8.57693">
        <ele>489</ele>
        <time>2021-08-10T11:01:08.813Z</time>
      </trkpt>
      <trkpt lat="46.92916" lon="8.57693">
        <ele>489</ele>
        <time>2021-08-10T11:01:09.813Z</time>
      </trkpt>
      <trkpt lat="46.92916" lon="8.57692">
        <ele>489</ele>
        <time>2021-08-10T11:01:10.813Z</time>
      </trkpt>
      <trkpt lat="46.92916" lon="8.57691">
        <ele>489</ele>
        <time>2021-08-10T11:01:11.813Z</time>
      </trkpt>
      <trkpt lat="46.92916" lon="8.5769">
        <ele>489</ele>
        <time>2021-08-10T11:01:12.813Z</time>
      </trkpt>
      <trkpt lat="46.92915" lon="8.5769">
        <ele>489</ele>
        <time>2021-08-10T11:01:13.812Z</time>
      </trkpt>
      <trkpt lat="46.92915" lon="8.5769">
        <ele>489</ele>
        <time>2021-08-10T11:01:14.813Z</time>
      </trkpt>
      <trkpt lat="46.92915" lon="8.57689">
        <ele>488</ele>
        <time>2021-08-10T11:01:15.813Z</time>
      </trkpt>
      <trkpt lat="46.92914" lon="8.57689">
        <ele>488</ele>
        <time>2021-08-10T11:01:16.812Z</time>
      </trkpt>
      <trkpt lat="46.92914" lon="8.57688">
        <ele>488</ele>
        <time>2021-08-10T11:01:17.813Z</time>
      </trkpt>
      <trkpt lat="46.92913" lon="8.57687">
        <ele>488</ele>
        <time>2021-08-10T11:01:18.813Z</time>
      </trkpt>
      <trkpt lat="46.92913" lon="8.57687">
        <ele>488</ele>
        <time>2021-08-10T11:01:19.812Z</time>
      </trkpt>
      <trkpt lat="46.92912" lon="8.57686">
        <ele>487</ele>
        <time>2021-08-10T11:01:20.812Z</time>
      </trkpt>
      <trkpt lat="46.92912" lon="8.57685">
        <ele>487</ele>
        <time>2021-08-10T11:01:21.813Z</time>
      </trkpt>
      <trkpt lat="46.92912" lon="8.57684">
        <ele>487</ele>
        <time>2021-08-10T11:01:22.812Z</time>
      </trkpt>
      <trkpt lat="46.92913" lon="8.57683">
        <ele>487</ele>
        <time>2021-08-10T11:01:23.813Z</time>
      </trkpt>
      <trkpt lat="46.92911" lon="8.57682">
        <ele>488</ele>
        <time>2021-08-10T11:01:24.813Z</time>
      </trkpt>
      <trkpt lat="46.92909" lon="8.57682">
        <ele>490</ele>
        <time>2021-08-10T11:01:25.812Z</time>
      </trkpt>
      <trkpt lat="46.92908" lon="8.57682">
        <ele>491</ele>
        <time>2021-08-10T11:01:26.813Z</time>
      </trkpt>
      <trkpt lat="46.92907" lon="8.57681">
        <ele>493</ele>
        <time>2021-08-10T11:01:27.813Z</time>
      </trkpt>
      <trkpt lat="46.92907" lon="8.57681">
        <ele>494</ele>
        <time>2021-08-10T11:01:28.812Z</time>
      </trkpt>
      <trkpt lat="46.92906" lon="8.57681">
        <ele>495</ele>
        <time>2021-08-10T11:01:29.813Z</time>
      </trkpt>
      <trkpt lat="46.92905" lon="8.57681">
        <ele>497</ele>
        <time>2021-08-10T11:01:30.812Z</time>
      </trkpt>
      <trkpt lat="46.92905" lon="8.57681">
        <ele>498</ele>
        <time>2021-08-10T11:01:31.812Z</time>
      </trkpt>
      <trkpt lat="46.92905" lon="8.57681">
        <ele>499</ele>
        <time>2021-08-10T11:01:32.813Z</time>
      </trkpt>
      <trkpt lat="46.92905" lon="8.57679">
        <ele>501</ele>
        <time>2021-08-10T11:01:33.814Z</time>
      </trkpt>
      <trkpt lat="46.92904" lon="8.57679">
        <ele>501</ele>
        <time>2021-08-10T11:01:34.813Z</time>
      </trkpt>
      <trkpt lat="46.92904" lon="8.57679">
        <ele>501</ele>
        <time>2021-08-10T11:01:35.813Z</time>
      </trkpt>
      <trkpt lat="46.92904" lon="8.57678">
        <ele>501</ele>
        <time>2021-08-10T11:01:36.813Z</time>
      </trkpt>
      <trkpt lat="46.92902" lon="8.57679">
        <ele>501</ele>
        <time>2021-08-10T11:01:37.813Z</time>
      </trkpt>
      <trkpt lat="46.92901" lon="8.5768">
        <ele>501</ele>
        <time>2021-08-10T11:01:38.813Z</time>
      </trkpt>
      <trkpt lat="46.929" lon="8.5768">
        <ele>501</ele>
        <time>2021-08-10T11:01:39.814Z</time>
      </trkpt>
      <trkpt lat="46.92899" lon="8.5768">
        <ele>501</ele>
        <time>2021-08-10T11:01:40.814Z</time>
      </trkpt>
      <trkpt lat="46.92898" lon="8.57681">
        <ele>501</ele>
        <time>2021-08-10T11:01:41.814Z</time>
      </trkpt>
      <trkpt lat="46.92898" lon="8.57682">
        <ele>501</ele>
        <time>2021-08-10T11:01:42.814Z</time>
      </trkpt>
      <trkpt lat="46.92897" lon="8.57684">
        <ele>500</ele>
        <time>2021-08-10T11:01:43.813Z</time>
      </trkpt>
      <trkpt lat="46.92896" lon="8.57685">
        <ele>500</ele>
        <time>2021-08-10T11:01:44.814Z</time>
      </trkpt>
      <trkpt lat="46.92896" lon="8.57685">
        <ele>500</ele>
        <time>2021-08-10T11:01:45.813Z</time>
      </trkpt>
      <trkpt lat="46.92895" lon="8.57685">
        <ele>500</ele>
        <time>2021-08-10T11:01:46.814Z</time>
      </trkpt>
      <trkpt lat="46.92894" lon="8.57684">
        <ele>500</ele>
        <time>2021-08-10T11:01:47.813Z</time>
      </trkpt>
      <trkpt lat="46.92893" lon="8.57685">
        <ele>500</ele>
        <time>2021-08-10T11:01:48.814Z</time>
      </trkpt>
      <trkpt lat="46.92891" lon="8.57683">
        <ele>500</ele>
        <time>2021-08-10T11:01:49.813Z</time>
      </trkpt>
      <trkpt lat="46.92889" lon="8.57682">
        <ele>500</ele>
        <time>2021-08-10T11:01:50.813Z</time>
      </trkpt>
      <trkpt lat="46.92889" lon="8.57686">
        <ele>500</ele>
        <time>2021-08-10T11:01:51.814Z</time>
      </trkpt>
      <trkpt lat="46.9289" lon="8.57688">
        <ele>500</ele>
        <time>2021-08-10T11:01:52.814Z</time>
      </trkpt>
      <trkpt lat="46.92891" lon="8.5769">
        <ele>500</ele>
        <time>2021-08-10T11:01:53.814Z</time>
      </trkpt>
      <trkpt lat="46.92893" lon="8.57693">
        <ele>500</ele>
        <time>2021-08-10T11:01:54.813Z</time>
      </trkpt>
      <trkpt lat="46.92894" lon="8.57695">
        <ele>500</ele>
        <time>2021-08-10T11:01:55.813Z</time>
      </trkpt>
      <trkpt lat="46.92894" lon="8.57698">
        <ele>500</ele>
        <time>2021-08-10T11:01:56.813Z</time>
      </trkpt>
      <trkpt lat="46.92894" lon="8.57699">
        <ele>500</ele>
        <time>2021-08-10T11:01:57.814Z</time>
      </trkpt>
      <trkpt lat="46.92889" lon="8.57703">
        <ele>500</ele>
        <time>2021-08-10T11:01:58.813Z</time>
      </trkpt>
      <trkpt lat="46.92886" lon="8.57704">
        <ele>500</ele>
        <time>2021-08-10T11:01:59.814Z</time>
      </trkpt>
      <trkpt lat="46.92883" lon="8.57706">
        <ele>500</ele>
        <time>2021-08-10T11:02:00.814Z</time>
      </trkpt>
      <trkpt lat="46.92883" lon="8.57707">
        <ele>500</ele>
        <time>2021-08-10T11:02:01.814Z</time>
      </trkpt>
      <trkpt lat="46.92884" lon="8.57708">
        <ele>501</ele>
        <time>2021-08-10T11:02:02.814Z</time>
      </trkpt>
      <trkpt lat="46.92885" lon="8.57709">
        <ele>501</ele>
        <time>2021-08-10T11:02:03.814Z</time>
      </trkpt>
      <trkpt lat="46.92886" lon="8.57711">
        <ele>501</ele>
        <time>2021-08-10T11:02:04.814Z</time>
      </trkpt>
      <trkpt lat="46.92887" lon="8.57713">
        <ele>501</ele>
        <time>2021-08-10T11:02:05.813Z</time>
      </trkpt>
      <trkpt lat="46.92887" lon="8.57713">
        <ele>501</ele>
        <time>2021-08-10T11:02:06.814Z</time>
      </trkpt>
      <trkpt lat="46.92887" lon="8.57712">
        <ele>501</ele>
        <time>2021-08-10T11:02:07.813Z</time>
      </trkpt>
      <trkpt lat="46.92887" lon="8.57712">
        <ele>501</ele>
        <time>2021-08-10T11:02:08.814Z</time>
      </trkpt>
      <trkpt lat="46.92888" lon="8.57711">
        <ele>501</ele>
        <time>2021-08-10T11:02:09.813Z</time>
      </trkpt>
      <trkpt lat="46.9289" lon="8.57711">
        <ele>501</ele>
        <time>2021-08-10T11:02:10.813Z</time>
      </trkpt>
      <trkpt lat="46.92891" lon="8.57711">
        <ele>502</ele>
        <time>2021-08-10T11:02:11.814Z</time>
      </trkpt>
      <trkpt lat="46.92891" lon="8.57711">
        <ele>502</ele>
        <time>2021-08-10T11:02:12.814Z</time>
      </trkpt>
      <trkpt lat="46.9289" lon="8.57711">
        <ele>501</ele>
        <time>2021-08-10T11:02:13.814Z</time>
      </trkpt>
      <trkpt lat="46.92892" lon="8.57711">
        <ele>501</ele>
        <time>2021-08-10T11:02:14.813Z</time>
      </trkpt>
      <trkpt lat="46.92893" lon="8.57711">
        <ele>501</ele>
        <time>2021-08-10T11:02:15.813Z</time>
      </trkpt>
      <trkpt lat="46.92894" lon="8.5771">
        <ele>501</ele>
        <time>2021-08-10T11:02:16.814Z</time>
      </trkpt>
      <trkpt lat="46.92893" lon="8.57709">
        <ele>501</ele>
        <time>2021-08-10T11:02:17.814Z</time>
      </trkpt>
      <trkpt lat="46.92894" lon="8.57709">
        <ele>501</ele>
        <time>2021-08-10T11:02:18.813Z</time>
      </trkpt>
      <trkpt lat="46.92895" lon="8.5771">
        <ele>500</ele>
        <time>2021-08-10T11:02:19.813Z</time>
      </trkpt>
      <trkpt lat="46.92897" lon="8.57711">
        <ele>500</ele>
        <time>2021-08-10T11:02:20.813Z</time>
      </trkpt>
      <trkpt lat="46.92898" lon="8.57713">
        <ele>500</ele>
        <time>2021-08-10T11:02:21.813Z</time>
      </trkpt>
      <trkpt lat="46.92898" lon="8.57714">
        <ele>500</ele>
        <time>2021-08-10T11:02:22.814Z</time>
      </trkpt>
      <trkpt lat="46.92898" lon="8.57714">
        <ele>500</ele>
        <time>2021-08-10T11:02:23.813Z</time>
      </trkpt>
      <trkpt lat="46.92898" lon="8.57715">
        <ele>500</ele>
        <time>2021-08-10T11:02:24.813Z</time>
      </trkpt>
      <trkpt lat="46.92898" lon="8.57715">
        <ele>500</ele>
        <time>2021-08-10T11:02:25.814Z</time>
      </trkpt>
      <trkpt lat="46.92899" lon="8.57715">
        <ele>500</ele>
        <time>2021-08-10T11:02:27.813Z</time>
      </trkpt>
      <trkpt lat="46.92898" lon="8.57714">
        <ele>499</ele>
        <time>2021-08-10T11:02:28.813Z</time>
      </trkpt>
      <trkpt lat="46.92898" lon="8.57714">
        <ele>499</ele>
        <time>2021-08-10T11:02:29.813Z</time>
      </trkpt>
      <trkpt lat="46.92895" lon="8.57714">
        <ele>498</ele>
        <time>2021-08-10T11:02:30.813Z</time>
      </trkpt>
      <trkpt lat="46.92894" lon="8.57715">
        <ele>498</ele>
        <time>2021-08-10T11:02:31.813Z</time>
      </trkpt>
      <trkpt lat="46.92895" lon="8.57715">
        <ele>498</ele>
        <time>2021-08-10T11:02:32.813Z</time>
      </trkpt>
      <trkpt lat="46.92895" lon="8.57715">
        <ele>497</ele>
        <time>2021-08-10T11:02:33.813Z</time>
      </trkpt>
      <trkpt lat="46.92894" lon="8.57716">
        <ele>497</ele>
        <time>2021-08-10T11:02:34.813Z</time>
      </trkpt>
      <trkpt lat="46.92894" lon="8.57718">
        <ele>496</ele>
        <time>2021-08-10T11:02:35.814Z</time>
      </trkpt>
      <trkpt lat="46.92894" lon="8.57719">
        <ele>496</ele>
        <time>2021-08-10T11:02:36.813Z</time>
      </trkpt>
      <trkpt lat="46.92893" lon="8.57718">
        <ele>496</ele>
        <time>2021-08-10T11:02:37.814Z</time>
      </trkpt>
      <trkpt lat="46.92892" lon="8.57717">
        <ele>496</ele>
        <time>2021-08-10T11:02:38.814Z</time>
      </trkpt>
      <trkpt lat="46.92891" lon="8.57716">
        <ele>497</ele>
        <time>2021-08-10T11:02:39.813Z</time>
      </trkpt>
      <trkpt lat="46.9289" lon="8.57714">
        <ele>497</ele>
        <time>2021-08-10T11:02:40.814Z</time>
      </trkpt>
      <trkpt lat="46.9289" lon="8.57713">
        <ele>497</ele>
        <time>2021-08-10T11:02:41.814Z</time>
      </trkpt>
      <trkpt lat="46.92889" lon="8.57712">
        <ele>498</ele>
        <time>2021-08-10T11:02:42.813Z</time>
      </trkpt>
      <trkpt lat="46.9289" lon="8.57711">
        <ele>498</ele>
        <time>2021-08-10T11:02:43.814Z</time>
      </trkpt>
      <trkpt lat="46.92889" lon="8.57711">
        <ele>499</ele>
        <time>2021-08-10T11:02:44.813Z</time>
      </trkpt>
      <trkpt lat="46.92889" lon="8.57711">
        <ele>500</ele>
        <time>2021-08-10T11:02:45.813Z</time>
      </trkpt>
      <trkpt lat="46.92889" lon="8.57711">
        <ele>501</ele>
        <time>2021-08-10T11:02:46.814Z</time>
      </trkpt>
      <trkpt lat="46.92888" lon="8.5771">
        <ele>502</ele>
        <time>2021-08-10T11:02:47.814Z</time>
      </trkpt>
      <trkpt lat="46.92888" lon="8.5771">
        <ele>503</ele>
        <time>2021-08-10T11:02:48.814Z</time>
      </trkpt>
      <trkpt lat="46.92887" lon="8.5771">
        <ele>504</ele>
        <time>2021-08-10T11:02:49.814Z</time>
      </trkpt>
      <trkpt lat="46.92891" lon="8.5771">
        <ele>506</ele>
        <time>2021-08-10T11:02:50.814Z</time>
      </trkpt>
      <trkpt lat="46.9289" lon="8.5771">
        <ele>506</ele>
        <time>2021-08-10T11:02:51.813Z</time>
      </trkpt>
      <trkpt lat="46.92889" lon="8.5771">
        <ele>506</ele>
        <time>2021-08-10T11:02:52.813Z</time>
      </trkpt>
      <trkpt lat="46.92889" lon="8.5771">
        <ele>507</ele>
        <time>2021-08-10T11:02:53.814Z</time>
      </trkpt>
      <trkpt lat="46.92888" lon="8.57709">
        <ele>507</ele>
        <time>2021-08-10T11:02:54.814Z</time>
      </trkpt>
      <trkpt lat="46.92888" lon="8.57709">
        <ele>507</ele>
        <time>2021-08-10T11:02:55.814Z</time>
      </trkpt>
      <trkpt lat="46.92887" lon="8.57709">
        <ele>508</ele>
        <time>2021-08-10T11:02:56.813Z</time>
      </trkpt>
      <trkpt lat="46.92887" lon="8.57708">
        <ele>508</ele>
        <time>2021-08-10T11:02:57.814Z</time>
      </trkpt>
      <trkpt lat="46.92887" lon="8.57707">
        <ele>508</ele>
        <time>2021-08-10T11:02:58.813Z</time>
      </trkpt>
      <trkpt lat="46.92886" lon="8.57707">
        <ele>509</ele>
        <time>2021-08-10T11:02:59.814Z</time>
      </trkpt>
      <trkpt lat="46.92886" lon="8.57706">
        <ele>509</ele>
        <time>2021-08-10T11:03:00.814Z</time>
      </trkpt>
      <trkpt lat="46.92886" lon="8.57706">
        <ele>509</ele>
        <time>2021-08-10T11:03:01.814Z</time>
      </trkpt>
      <trkpt lat="46.92886" lon="8.57706">
        <ele>509</ele>
        <time>2021-08-10T11:03:02.814Z</time>
      </trkpt>
      <trkpt lat="46.92885" lon="8.57707">
        <ele>509</ele>
        <time>2021-08-10T11:03:03.814Z</time>
      </trkpt>
      <trkpt lat="46.92884" lon="8.57707">
        <ele>510</ele>
        <time>2021-08-10T11:03:04.814Z</time>
      </trkpt>
      <trkpt lat="46.92883" lon="8.57707">
        <ele>510</ele>
        <time>2021-08-10T11:03:05.814Z</time>
      </trkpt>
      <trkpt lat="46.92883" lon="8.57707">
        <ele>510</ele>
        <time>2021-08-10T11:03:06.814Z</time>
      </trkpt>
      <trkpt lat="46.92883" lon="8.57707">
        <ele>510</ele>
        <time>2021-08-10T11:03:07.813Z</time>
      </trkpt>
      <trkpt lat="46.92883" lon="8.57708">
        <ele>510</ele>
        <time>2021-08-10T11:03:08.814Z</time>
      </trkpt>
      <trkpt lat="46.92882" lon="8.57709">
        <ele>511</ele>
        <time>2021-08-10T11:03:09.813Z</time>
      </trkpt>
      <trkpt lat="46.92881" lon="8.5771">
        <ele>511</ele>
        <time>2021-08-10T11:03:10.814Z</time>
      </trkpt>
      <trkpt lat="46.92881" lon="8.57711">
        <ele>512</ele>
        <time>2021-08-10T11:03:11.814Z</time>
      </trkpt>
      <trkpt lat="46.92881" lon="8.57713">
        <ele>512</ele>
        <time>2021-08-10T11:03:12.813Z</time>
      </trkpt>
      <trkpt lat="46.92881" lon="8.57713">
        <ele>513</ele>
        <time>2021-08-10T11:03:13.814Z</time>
      </trkpt>
      <trkpt lat="46.92881" lon="8.57714">
        <ele>514</ele>
        <time>2021-08-10T11:03:14.813Z</time>
      </trkpt>
      <trkpt lat="46.92881" lon="8.57715">
        <ele>515</ele>
        <time>2021-08-10T11:03:15.814Z</time>
      </trkpt>
      <trkpt lat="46.92881" lon="8.57716">
        <ele>516</ele>
        <time>2021-08-10T11:03:16.814Z</time>
      </trkpt>
      <trkpt lat="46.92881" lon="8.57717">
        <ele>517</ele>
        <time>2021-08-10T11:03:17.813Z</time>
      </trkpt>
      <trkpt lat="46.92882" lon="8.57718">
        <ele>518</ele>
        <time>2021-08-10T11:03:18.814Z</time>
      </trkpt>
      <trkpt lat="46.92883" lon="8.57719">
        <ele>519</ele>
        <time>2021-08-10T11:03:19.814Z</time>
      </trkpt>
      <trkpt lat="46.92883" lon="8.5772">
        <ele>520</ele>
        <time>2021-08-10T11:03:20.814Z</time>
      </trkpt>
      <trkpt lat="46.92884" lon="8.57721">
        <ele>521</ele>
        <time>2021-08-10T11:03:21.814Z</time>
      </trkpt>
      <trkpt lat="46.92883" lon="8.57721">
        <ele>521</ele>
        <time>2021-08-10T11:03:22.814Z</time>
      </trkpt>
      <trkpt lat="46.92882" lon="8.57722">
        <ele>522</ele>
        <time>2021-08-10T11:03:23.813Z</time>
      </trkpt>
      <trkpt lat="46.92881" lon="8.57722">
        <ele>522</ele>
        <time>2021-08-10T11:03:24.814Z</time>
      </trkpt>
      <trkpt lat="46.92881" lon="8.57723">
        <ele>522</ele>
        <time>2021-08-10T11:03:25.814Z</time>
      </trkpt>
      <trkpt lat="46.9288" lon="8.57724">
        <ele>522</ele>
        <time>2021-08-10T11:03:26.813Z</time>
      </trkpt>
      <trkpt lat="46.92879" lon="8.57726">
        <ele>522</ele>
        <time>2021-08-10T11:03:27.814Z</time>
      </trkpt>
      <trkpt lat="46.92879" lon="8.57727">
        <ele>522</ele>
        <time>2021-08-10T11:03:28.813Z</time>
      </trkpt>
      <trkpt lat="46.9288" lon="8.57728">
        <ele>522</ele>
        <time>2021-08-10T11:03:29.814Z</time>
      </trkpt>
      <trkpt lat="46.9288" lon="8.5773">
        <ele>522</ele>
        <time>2021-08-10T11:03:30.814Z</time>
      </trkpt>
      <trkpt lat="46.9288" lon="8.5773">
        <ele>522</ele>
        <time>2021-08-10T11:03:31.813Z</time>
      </trkpt>
      <trkpt lat="46.9288" lon="8.57731">
        <ele>522</ele>
        <time>2021-08-10T11:03:32.813Z</time>
      </trkpt>
      <trkpt lat="46.9288" lon="8.57733">
        <ele>522</ele>
        <time>2021-08-10T11:03:33.816Z</time>
      </trkpt>
      <trkpt lat="46.9288" lon="8.57734">
        <ele>522</ele>
        <time>2021-08-10T11:03:34.816Z</time>
      </trkpt>
      <trkpt lat="46.9288" lon="8.57735">
        <ele>521</ele>
        <time>2021-08-10T11:03:35.815Z</time>
      </trkpt>
      <trkpt lat="46.92879" lon="8.57735">
        <ele>522</ele>
        <time>2021-08-10T11:03:36.816Z</time>
      </trkpt>
      <trkpt lat="46.92879" lon="8.57736">
        <ele>522</ele>
        <time>2021-08-10T11:03:37.815Z</time>
      </trkpt>
      <trkpt lat="46.92878" lon="8.57737">
        <ele>521</ele>
        <time>2021-08-10T11:03:38.815Z</time>
      </trkpt>
      <trkpt lat="46.92878" lon="8.57738">
        <ele>521</ele>
        <time>2021-08-10T11:03:39.815Z</time>
      </trkpt>
      <trkpt lat="46.92877" lon="8.57739">
        <ele>521</ele>
        <time>2021-08-10T11:03:40.816Z</time>
      </trkpt>
      <trkpt lat="46.92877" lon="8.57741">
        <ele>521</ele>
        <time>2021-08-10T11:03:41.815Z</time>
      </trkpt>
      <trkpt lat="46.92876" lon="8.57742">
        <ele>521</ele>
        <time>2021-08-10T11:03:42.816Z</time>
      </trkpt>
      <trkpt lat="46.92875" lon="8.57743">
        <ele>520</ele>
        <time>2021-08-10T11:03:43.816Z</time>
      </trkpt>
      <trkpt lat="46.92875" lon="8.57744">
        <ele>520</ele>
        <time>2021-08-10T11:03:44.816Z</time>
      </trkpt>
      <trkpt lat="46.92874" lon="8.57745">
        <ele>520</ele>
        <time>2021-08-10T11:03:45.816Z</time>
      </trkpt>
      <trkpt lat="46.92873" lon="8.57746">
        <ele>519</ele>
        <time>2021-08-10T11:03:46.816Z</time>
      </trkpt>
      <trkpt lat="46.92873" lon="8.57747">
        <ele>519</ele>
        <time>2021-08-10T11:03:47.816Z</time>
      </trkpt>
      <trkpt lat="46.92872" lon="8.57748">
        <ele>519</ele>
        <time>2021-08-10T11:03:48.815Z</time>
      </trkpt>
      <trkpt lat="46.92872" lon="8.57749">
        <ele>519</ele>
        <time>2021-08-10T11:03:49.816Z</time>
      </trkpt>
      <trkpt lat="46.92872" lon="8.57749">
        <ele>518</ele>
        <time>2021-08-10T11:03:50.816Z</time>
      </trkpt>
      <trkpt lat="46.92871" lon="8.57751">
        <ele>518</ele>
        <time>2021-08-10T11:03:51.815Z</time>
      </trkpt>
      <trkpt lat="46.92871" lon="8.57752">
        <ele>518</ele>
        <time>2021-08-10T11:03:52.816Z</time>
      </trkpt>
      <trkpt lat="46.92871" lon="8.57753">
        <ele>517</ele>
        <time>2021-08-10T11:03:53.815Z</time>
      </trkpt>
      <trkpt lat="46.92872" lon="8.57754">
        <ele>517</ele>
        <time>2021-08-10T11:03:54.816Z</time>
      </trkpt>
      <trkpt lat="46.92872" lon="8.57755">
        <ele>517</ele>
        <time>2021-08-10T11:03:55.815Z</time>
      </trkpt>
      <trkpt lat="46.92872" lon="8.57756">
        <ele>517</ele>
        <time>2021-08-10T11:03:56.815Z</time>
      </trkpt>
      <trkpt lat="46.92872" lon="8.57756">
        <ele>517</ele>
        <time>2021-08-10T11:03:57.815Z</time>
      </trkpt>
      <trkpt lat="46.92872" lon="8.57757">
        <ele>517</ele>
        <time>2021-08-10T11:03:58.815Z</time>
      </trkpt>
      <trkpt lat="46.92872" lon="8.57758">
        <ele>517</ele>
        <time>2021-08-10T11:03:59.816Z</time>
      </trkpt>
      <trkpt lat="46.92872" lon="8.57758">
        <ele>517</ele>
        <time>2021-08-10T11:04:00.815Z</time>
      </trkpt>
      <trkpt lat="46.92871" lon="8.57759">
        <ele>517</ele>
        <time>2021-08-10T11:04:01.816Z</time>
      </trkpt>
      <trkpt lat="46.92871" lon="8.5776">
        <ele>517</ele>
        <time>2021-08-10T11:04:02.815Z</time>
      </trkpt>
      <trkpt lat="46.92869" lon="8.5776">
        <ele>517</ele>
        <time>2021-08-10T11:04:03.816Z</time>
      </trkpt>
      <trkpt lat="46.92868" lon="8.5776">
        <ele>516</ele>
        <time>2021-08-10T11:04:04.815Z</time>
      </trkpt>
      <trkpt lat="46.92868" lon="8.57759">
        <ele>516</ele>
        <time>2021-08-10T11:04:05.815Z</time>
      </trkpt>
      <trkpt lat="46.92868" lon="8.57759">
        <ele>516</ele>
        <time>2021-08-10T11:04:06.816Z</time>
      </trkpt>
      <trkpt lat="46.92869" lon="8.57757">
        <ele>516</ele>
        <time>2021-08-10T11:04:07.816Z</time>
      </trkpt>
      <trkpt lat="46.92868" lon="8.57756">
        <ele>516</ele>
        <time>2021-08-10T11:04:08.816Z</time>
      </trkpt>
      <trkpt lat="46.92868" lon="8.57755">
        <ele>516</ele>
        <time>2021-08-10T11:04:09.816Z</time>
      </trkpt>
      <trkpt lat="46.92869" lon="8.57754">
        <ele>517</ele>
        <time>2021-08-10T11:04:10.816Z</time>
      </trkpt>
      <trkpt lat="46.92869" lon="8.57753">
        <ele>517</ele>
        <time>2021-08-10T11:04:11.816Z</time>
      </trkpt>
      <trkpt lat="46.9287" lon="8.57751">
        <ele>517</ele>
        <time>2021-08-10T11:04:12.815Z</time>
      </trkpt>
      <trkpt lat="46.92869" lon="8.5775">
        <ele>517</ele>
        <time>2021-08-10T11:04:13.815Z</time>
      </trkpt>
      <trkpt lat="46.92869" lon="8.57749">
        <ele>516</ele>
        <time>2021-08-10T11:04:14.816Z</time>
      </trkpt>
      <trkpt lat="46.92868" lon="8.57749">
        <ele>515</ele>
        <time>2021-08-10T11:04:15.816Z</time>
      </trkpt>
      <trkpt lat="46.92867" lon="8.57748">
        <ele>515</ele>
        <time>2021-08-10T11:04:16.816Z</time>
      </trkpt>
      <trkpt lat="46.92867" lon="8.57748">
        <ele>514</ele>
        <time>2021-08-10T11:04:17.816Z</time>
      </trkpt>
      <trkpt lat="46.92867" lon="8.57747">
        <ele>514</ele>
        <time>2021-08-10T11:04:18.815Z</time>
      </trkpt>
      <trkpt lat="46.92867" lon="8.57747">
        <ele>515</ele>
        <time>2021-08-10T11:04:19.816Z</time>
      </trkpt>
      <trkpt lat="46.92866" lon="8.57746">
        <ele>516</ele>
        <time>2021-08-10T11:04:20.815Z</time>
      </trkpt>
      <trkpt lat="46.92866" lon="8.57745">
        <ele>517</ele>
        <time>2021-08-10T11:04:21.816Z</time>
      </trkpt>
      <trkpt lat="46.92866" lon="8.57744">
        <ele>519</ele>
        <time>2021-08-10T11:04:22.816Z</time>
      </trkpt>
      <trkpt lat="46.92866" lon="8.57743">
        <ele>520</ele>
        <time>2021-08-10T11:04:23.816Z</time>
      </trkpt>
      <trkpt lat="46.92865" lon="8.5774">
        <ele>524</ele>
        <time>2021-08-10T11:04:24.817Z</time>
      </trkpt>
      <trkpt lat="46.92865" lon="8.5774">
        <ele>525</ele>
        <time>2021-08-10T11:04:25.817Z</time>
      </trkpt>
      <trkpt lat="46.92865" lon="8.57739">
        <ele>526</ele>
        <time>2021-08-10T11:04:26.816Z</time>
      </trkpt>
      <trkpt lat="46.92866" lon="8.57738">
        <ele>527</ele>
        <time>2021-08-10T11:04:27.816Z</time>
      </trkpt>
      <trkpt lat="46.92868" lon="8.57737">
        <ele>527</ele>
        <time>2021-08-10T11:04:28.817Z</time>
      </trkpt>
      <trkpt lat="46.92869" lon="8.57735">
        <ele>528</ele>
        <time>2021-08-10T11:04:29.816Z</time>
      </trkpt>
      <trkpt lat="46.92869" lon="8.57735">
        <ele>528</ele>
        <time>2021-08-10T11:04:30.817Z</time>
      </trkpt>
      <trkpt lat="46.92869" lon="8.57735">
        <ele>529</ele>
        <time>2021-08-10T11:04:31.816Z</time>
      </trkpt>
      <trkpt lat="46.92868" lon="8.57734">
        <ele>529</ele>
        <time>2021-08-10T11:04:32.817Z</time>
      </trkpt>
      <trkpt lat="46.92867" lon="8.57733">
        <ele>529</ele>
        <time>2021-08-10T11:04:33.817Z</time>
      </trkpt>
      <trkpt lat="46.92867" lon="8.57733">
        <ele>530</ele>
        <time>2021-08-10T11:04:34.817Z</time>
      </trkpt>
      <trkpt lat="46.92866" lon="8.57732">
        <ele>530</ele>
        <time>2021-08-10T11:04:35.816Z</time>
      </trkpt>
      <trkpt lat="46.92866" lon="8.57732">
        <ele>530</ele>
        <time>2021-08-10T11:04:36.817Z</time>
      </trkpt>
      <trkpt lat="46.92866" lon="8.57732">
        <ele>531</ele>
        <time>2021-08-10T11:04:37.817Z</time>
      </trkpt>
      <trkpt lat="46.92865" lon="8.57731">
        <ele>532</ele>
        <time>2021-08-10T11:04:38.818Z</time>
      </trkpt>
      <trkpt lat="46.92864" lon="8.57731">
        <ele>532</ele>
        <time>2021-08-10T11:04:39.818Z</time>
      </trkpt>
      <trkpt lat="46.92864" lon="8.5773">
        <ele>532</ele>
        <time>2021-08-10T11:04:40.818Z</time>
      </trkpt>
      <trkpt lat="46.92863" lon="8.57729">
        <ele>532</ele>
        <time>2021-08-10T11:04:41.818Z</time>
      </trkpt>
      <trkpt lat="46.92863" lon="8.57729">
        <ele>532</ele>
        <time>2021-08-10T11:04:42.817Z</time>
      </trkpt>
      <trkpt lat="46.92862" lon="8.57728">
        <ele>532</ele>
        <time>2021-08-10T11:04:43.817Z</time>
      </trkpt>
      <trkpt lat="46.9286" lon="8.5773">
        <ele>532</ele>
        <time>2021-08-10T11:04:44.817Z</time>
      </trkpt>
      <trkpt lat="46.92859" lon="8.57732">
        <ele>531</ele>
        <time>2021-08-10T11:04:45.818Z</time>
      </trkpt>
      <trkpt lat="46.92858" lon="8.57732">
        <ele>531</ele>
        <time>2021-08-10T11:04:46.817Z</time>
      </trkpt>
      <trkpt lat="46.92857" lon="8.57733">
        <ele>530</ele>
        <time>2021-08-10T11:04:47.818Z</time>
      </trkpt>
      <trkpt lat="46.92857" lon="8.57733">
        <ele>530</ele>
        <time>2021-08-10T11:04:48.817Z</time>
      </trkpt>
      <trkpt lat="46.92857" lon="8.57733">
        <ele>529</ele>
        <time>2021-08-10T11:04:49.818Z</time>
      </trkpt>
      <trkpt lat="46.92857" lon="8.57734">
        <ele>528</ele>
        <time>2021-08-10T11:04:50.818Z</time>
      </trkpt>
      <trkpt lat="46.92857" lon="8.57735">
        <ele>527</ele>
        <time>2021-08-10T11:04:51.817Z</time>
      </trkpt>
      <trkpt lat="46.92857" lon="8.57735">
        <ele>527</ele>
        <time>2021-08-10T11:04:52.818Z</time>
      </trkpt>
      <trkpt lat="46.92856" lon="8.57736">
        <ele>527</ele>
        <time>2021-08-10T11:04:53.818Z</time>
      </trkpt>
      <trkpt lat="46.92856" lon="8.57736">
        <ele>526</ele>
        <time>2021-08-10T11:04:54.818Z</time>
      </trkpt>
      <trkpt lat="46.92855" lon="8.57736">
        <ele>526</ele>
        <time>2021-08-10T11:04:55.817Z</time>
      </trkpt>
      <trkpt lat="46.92854" lon="8.57737">
        <ele>526</ele>
        <time>2021-08-10T11:04:56.818Z</time>
      </trkpt>
      <trkpt lat="46.92854" lon="8.57737">
        <ele>526</ele>
        <time>2021-08-10T11:04:57.818Z</time>
      </trkpt>
      <trkpt lat="46.92853" lon="8.57738">
        <ele>526</ele>
        <time>2021-08-10T11:04:58.818Z</time>
      </trkpt>
      <trkpt lat="46.92852" lon="8.5774">
        <ele>526</ele>
        <time>2021-08-10T11:04:59.817Z</time>
      </trkpt>
      <trkpt lat="46.92852" lon="8.57741">
        <ele>527</ele>
        <time>2021-08-10T11:05:00.818Z</time>
      </trkpt>
      <trkpt lat="46.92851" lon="8.57743">
        <ele>527</ele>
        <time>2021-08-10T11:05:01.818Z</time>
      </trkpt>
      <trkpt lat="46.92851" lon="8.57743">
        <ele>527</ele>
        <time>2021-08-10T11:05:02.818Z</time>
      </trkpt>
      <trkpt lat="46.92851" lon="8.57743">
        <ele>527</ele>
        <time>2021-08-10T11:05:03.818Z</time>
      </trkpt>
      <trkpt lat="46.92851" lon="8.57743">
        <ele>527</ele>
        <time>2021-08-10T11:05:04.817Z</time>
      </trkpt>
      <trkpt lat="46.92851" lon="8.57745">
        <ele>528</ele>
        <time>2021-08-10T11:05:05.817Z</time>
      </trkpt>
      <trkpt lat="46.92851" lon="8.57746">
        <ele>529</ele>
        <time>2021-08-10T11:05:06.817Z</time>
      </trkpt>
      <trkpt lat="46.92851" lon="8.57747">
        <ele>529</ele>
        <time>2021-08-10T11:05:07.817Z</time>
      </trkpt>
      <trkpt lat="46.92851" lon="8.57748">
        <ele>530</ele>
        <time>2021-08-10T11:05:08.817Z</time>
      </trkpt>
      <trkpt lat="46.9285" lon="8.57749">
        <ele>530</ele>
        <time>2021-08-10T11:05:09.817Z</time>
      </trkpt>
      <trkpt lat="46.9285" lon="8.5775">
        <ele>531</ele>
        <time>2021-08-10T11:05:10.817Z</time>
      </trkpt>
      <trkpt lat="46.9285" lon="8.57751">
        <ele>532</ele>
        <time>2021-08-10T11:05:11.817Z</time>
      </trkpt>
      <trkpt lat="46.92849" lon="8.57752">
        <ele>533</ele>
        <time>2021-08-10T11:05:12.818Z</time>
      </trkpt>
      <trkpt lat="46.92849" lon="8.57752">
        <ele>533</ele>
        <time>2021-08-10T11:05:13.817Z</time>
      </trkpt>
      <trkpt lat="46.92849" lon="8.57753">
        <ele>534</ele>
        <time>2021-08-10T11:05:14.818Z</time>
      </trkpt>
      <trkpt lat="46.9285" lon="8.57753">
        <ele>534</ele>
        <time>2021-08-10T11:05:15.817Z</time>
      </trkpt>
      <trkpt lat="46.9285" lon="8.57753">
        <ele>534</ele>
        <time>2021-08-10T11:05:16.817Z</time>
      </trkpt>
      <trkpt lat="46.9285" lon="8.57754">
        <ele>535</ele>
        <time>2021-08-10T11:05:17.817Z</time>
      </trkpt>
      <trkpt lat="46.92849" lon="8.57755">
        <ele>536</ele>
        <time>2021-08-10T11:05:18.817Z</time>
      </trkpt>
      <trkpt lat="46.92848" lon="8.57755">
        <ele>536</ele>
        <time>2021-08-10T11:05:19.818Z</time>
      </trkpt>
      <trkpt lat="46.92847" lon="8.57756">
        <ele>537</ele>
        <time>2021-08-10T11:05:20.817Z</time>
      </trkpt>
      <trkpt lat="46.92846" lon="8.57757">
        <ele>538</ele>
        <time>2021-08-10T11:05:21.818Z</time>
      </trkpt>
      <trkpt lat="46.92846" lon="8.57757">
        <ele>538</ele>
        <time>2021-08-10T11:05:22.817Z</time>
      </trkpt>
      <trkpt lat="46.92845" lon="8.57757">
        <ele>539</ele>
        <time>2021-08-10T11:05:23.817Z</time>
      </trkpt>
      <trkpt lat="46.92845" lon="8.57758">
        <ele>539</ele>
        <time>2021-08-10T11:05:24.817Z</time>
      </trkpt>
      <trkpt lat="46.92845" lon="8.57758">
        <ele>540</ele>
        <time>2021-08-10T11:05:25.817Z</time>
      </trkpt>
      <trkpt lat="46.92844" lon="8.57758">
        <ele>540</ele>
        <time>2021-08-10T11:05:26.817Z</time>
      </trkpt>
      <trkpt lat="46.92844" lon="8.57758">
        <ele>540</ele>
        <time>2021-08-10T11:05:27.817Z</time>
      </trkpt>
      <trkpt lat="46.92843" lon="8.57758">
        <ele>540</ele>
        <time>2021-08-10T11:05:28.817Z</time>
      </trkpt>
      <trkpt lat="46.92843" lon="8.57758">
        <ele>541</ele>
        <time>2021-08-10T11:05:29.817Z</time>
      </trkpt>
      <trkpt lat="46.92842" lon="8.57758">
        <ele>541</ele>
        <time>2021-08-10T11:05:30.818Z</time>
      </trkpt>
      <trkpt lat="46.92842" lon="8.57758">
        <ele>541</ele>
        <time>2021-08-10T11:05:31.817Z</time>
      </trkpt>
      <trkpt lat="46.92839" lon="8.57759">
        <ele>541</ele>
        <time>2021-08-10T11:05:32.819Z</time>
      </trkpt>
      <trkpt lat="46.92839" lon="8.5776">
        <ele>541</ele>
        <time>2021-08-10T11:05:33.819Z</time>
      </trkpt>
      <trkpt lat="46.92838" lon="8.57761">
        <ele>540</ele>
        <time>2021-08-10T11:05:34.818Z</time>
      </trkpt>
      <trkpt lat="46.92837" lon="8.57762">
        <ele>540</ele>
        <time>2021-08-10T11:05:35.819Z</time>
      </trkpt>
      <trkpt lat="46.92836" lon="8.57763">
        <ele>540</ele>
        <time>2021-08-10T11:05:36.819Z</time>
      </trkpt>
      <trkpt lat="46.92835" lon="8.57764">
        <ele>540</ele>
        <time>2021-08-10T11:05:37.818Z</time>
      </trkpt>
      <trkpt lat="46.92834" lon="8.57764">
        <ele>540</ele>
        <time>2021-08-10T11:05:38.818Z</time>
      </trkpt>
      <trkpt lat="46.92834" lon="8.57764">
        <ele>540</ele>
        <time>2021-08-10T11:05:39.819Z</time>
      </trkpt>
      <trkpt lat="46.92834" lon="8.57764">
        <ele>541</ele>
        <time>2021-08-10T11:05:40.818Z</time>
      </trkpt>
      <trkpt lat="46.92834" lon="8.57764">
        <ele>541</ele>
        <time>2021-08-10T11:05:41.818Z</time>
      </trkpt>
      <trkpt lat="46.92834" lon="8.57764">
        <ele>541</ele>
        <time>2021-08-10T11:05:42.818Z</time>
      </trkpt>
      <trkpt lat="46.92833" lon="8.57763">
        <ele>541</ele>
        <time>2021-08-10T11:05:43.818Z</time>
      </trkpt>
      <trkpt lat="46.92831" lon="8.57763">
        <ele>542</ele>
        <time>2021-08-10T11:05:44.818Z</time>
      </trkpt>
      <trkpt lat="46.9283" lon="8.57764">
        <ele>542</ele>
        <time>2021-08-10T11:05:45.818Z</time>
      </trkpt>
      <trkpt lat="46.92829" lon="8.57765">
        <ele>542</ele>
        <time>2021-08-10T11:05:46.818Z</time>
      </trkpt>
      <trkpt lat="46.92828" lon="8.57766">
        <ele>543</ele>
        <time>2021-08-10T11:05:47.819Z</time>
      </trkpt>
      <trkpt lat="46.92828" lon="8.57766">
        <ele>543</ele>
        <time>2021-08-10T11:05:48.818Z</time>
      </trkpt>
      <trkpt lat="46.92827" lon="8.57766">
        <ele>543</ele>
        <time>2021-08-10T11:05:49.819Z</time>
      </trkpt>
      <trkpt lat="46.92827" lon="8.57766">
        <ele>543</ele>
        <time>2021-08-10T11:05:50.819Z</time>
      </trkpt>
      <trkpt lat="46.92826" lon="8.57766">
        <ele>543</ele>
        <time>2021-08-10T11:05:51.818Z</time>
      </trkpt>
      <trkpt lat="46.92826" lon="8.57767">
        <ele>543</ele>
        <time>2021-08-10T11:05:52.818Z</time>
      </trkpt>
      <trkpt lat="46.92825" lon="8.57767">
        <ele>542</ele>
        <time>2021-08-10T11:05:53.819Z</time>
      </trkpt>
      <trkpt lat="46.92825" lon="8.57767">
        <ele>542</ele>
        <time>2021-08-10T11:05:54.819Z</time>
      </trkpt>
      <trkpt lat="46.92825" lon="8.57767">
        <ele>542</ele>
        <time>2021-08-10T11:05:55.819Z</time>
      </trkpt>
      <trkpt lat="46.92824" lon="8.57767">
        <ele>542</ele>
        <time>2021-08-10T11:05:56.818Z</time>
      </trkpt>
      <trkpt lat="46.92823" lon="8.57766">
        <ele>542</ele>
        <time>2021-08-10T11:05:57.820Z</time>
      </trkpt>
      <trkpt lat="46.92823" lon="8.57765">
        <ele>542</ele>
        <time>2021-08-10T11:05:58.819Z</time>
      </trkpt>
      <trkpt lat="46.92822" lon="8.57764">
        <ele>543</ele>
        <time>2021-08-10T11:05:59.820Z</time>
      </trkpt>
      <trkpt lat="46.92821" lon="8.57763">
        <ele>543</ele>
        <time>2021-08-10T11:06:00.819Z</time>
      </trkpt>
      <trkpt lat="46.92821" lon="8.57762">
        <ele>543</ele>
        <time>2021-08-10T11:06:01.819Z</time>
      </trkpt>
      <trkpt lat="46.9282" lon="8.57761">
        <ele>543</ele>
        <time>2021-08-10T11:06:02.820Z</time>
      </trkpt>
      <trkpt lat="46.92819" lon="8.5776">
        <ele>544</ele>
        <time>2021-08-10T11:06:03.819Z</time>
      </trkpt>
      <trkpt lat="46.92819" lon="8.5776">
        <ele>544</ele>
        <time>2021-08-10T11:06:04.819Z</time>
      </trkpt>
      <trkpt lat="46.92818" lon="8.57759">
        <ele>545</ele>
        <time>2021-08-10T11:06:05.820Z</time>
      </trkpt>
      <trkpt lat="46.92818" lon="8.57759">
        <ele>545</ele>
        <time>2021-08-10T11:06:06.819Z</time>
      </trkpt>
      <trkpt lat="46.92818" lon="8.57759">
        <ele>545</ele>
        <time>2021-08-10T11:06:07.819Z</time>
      </trkpt>
      <trkpt lat="46.92817" lon="8.57759">
        <ele>545</ele>
        <time>2021-08-10T11:06:08.819Z</time>
      </trkpt>
      <trkpt lat="46.92816" lon="8.57759">
        <ele>545</ele>
        <time>2021-08-10T11:06:09.820Z</time>
      </trkpt>
      <trkpt lat="46.92816" lon="8.57759">
        <ele>545</ele>
        <time>2021-08-10T11:06:10.820Z</time>
      </trkpt>
      <trkpt lat="46.92815" lon="8.57759">
        <ele>545</ele>
        <time>2021-08-10T11:06:11.819Z</time>
      </trkpt>
      <trkpt lat="46.92815" lon="8.57759">
        <ele>545</ele>
        <time>2021-08-10T11:06:12.820Z</time>
      </trkpt>
      <trkpt lat="46.92815" lon="8.57758">
        <ele>545</ele>
        <time>2021-08-10T11:06:13.820Z</time>
      </trkpt>
      <trkpt lat="46.92814" lon="8.57758">
        <ele>545</ele>
        <time>2021-08-10T11:06:14.819Z</time>
      </trkpt>
      <trkpt lat="46.92814" lon="8.57758">
        <ele>544</ele>
        <time>2021-08-10T11:06:15.820Z</time>
      </trkpt>
      <trkpt lat="46.92814" lon="8.57758">
        <ele>544</ele>
        <time>2021-08-10T11:06:16.820Z</time>
      </trkpt>
      <trkpt lat="46.92813" lon="8.57758">
        <ele>544</ele>
        <time>2021-08-10T11:06:17.819Z</time>
      </trkpt>
      <trkpt lat="46.92812" lon="8.57758">
        <ele>544</ele>
        <time>2021-08-10T11:06:18.820Z</time>
      </trkpt>
      <trkpt lat="46.92811" lon="8.57757">
        <ele>544</ele>
        <time>2021-08-10T11:06:19.819Z</time>
      </trkpt>
      <trkpt lat="46.92811" lon="8.57756">
        <ele>544</ele>
        <time>2021-08-10T11:06:20.819Z</time>
      </trkpt>
      <trkpt lat="46.9281" lon="8.57754">
        <ele>544</ele>
        <time>2021-08-10T11:06:21.820Z</time>
      </trkpt>
      <trkpt lat="46.92809" lon="8.57754">
        <ele>544</ele>
        <time>2021-08-10T11:06:22.819Z</time>
      </trkpt>
      <trkpt lat="46.92807" lon="8.57756">
        <ele>544</ele>
        <time>2021-08-10T11:06:23.820Z</time>
      </trkpt>
      <trkpt lat="46.92806" lon="8.57758">
        <ele>544</ele>
        <time>2021-08-10T11:06:24.819Z</time>
      </trkpt>
      <trkpt lat="46.92806" lon="8.57759">
        <ele>544</ele>
        <time>2021-08-10T11:06:25.820Z</time>
      </trkpt>
      <trkpt lat="46.92806" lon="8.57759">
        <ele>545</ele>
        <time>2021-08-10T11:06:26.819Z</time>
      </trkpt>
      <trkpt lat="46.92807" lon="8.57759">
        <ele>545</ele>
        <time>2021-08-10T11:06:27.819Z</time>
      </trkpt>
      <trkpt lat="46.92807" lon="8.5776">
        <ele>545</ele>
        <time>2021-08-10T11:06:28.819Z</time>
      </trkpt>
      <trkpt lat="46.92807" lon="8.57761">
        <ele>545</ele>
        <time>2021-08-10T11:06:29.820Z</time>
      </trkpt>
      <trkpt lat="46.92807" lon="8.57762">
        <ele>545</ele>
        <time>2021-08-10T11:06:30.819Z</time>
      </trkpt>
      <trkpt lat="46.92807" lon="8.57763">
        <ele>546</ele>
        <time>2021-08-10T11:06:31.819Z</time>
      </trkpt>
      <trkpt lat="46.92807" lon="8.57764">
        <ele>546</ele>
        <time>2021-08-10T11:06:32.820Z</time>
      </trkpt>
      <trkpt lat="46.92807" lon="8.57765">
        <ele>546</ele>
        <time>2021-08-10T11:06:33.820Z</time>
      </trkpt>
      <trkpt lat="46.92807" lon="8.57766">
        <ele>546</ele>
        <time>2021-08-10T11:06:34.820Z</time>
      </trkpt>
      <trkpt lat="46.92807" lon="8.57766">
        <ele>546</ele>
        <time>2021-08-10T11:06:35.820Z</time>
      </trkpt>
      <trkpt lat="46.92807" lon="8.57767">
        <ele>546</ele>
        <time>2021-08-10T11:06:36.820Z</time>
      </trkpt>
      <trkpt lat="46.92808" lon="8.57767">
        <ele>547</ele>
        <time>2021-08-10T11:06:37.820Z</time>
      </trkpt>
      <trkpt lat="46.92809" lon="8.57771">
        <ele>551</ele>
        <time>2021-08-10T11:06:38.819Z</time>
      </trkpt>
      <trkpt lat="46.92808" lon="8.57772">
        <ele>551</ele>
        <time>2021-08-10T11:06:39.820Z</time>
      </trkpt>
      <trkpt lat="46.92809" lon="8.57773">
        <ele>552</ele>
        <time>2021-08-10T11:06:40.819Z</time>
      </trkpt>
      <trkpt lat="46.92809" lon="8.57772">
        <ele>552</ele>
        <time>2021-08-10T11:06:41.819Z</time>
      </trkpt>
      <trkpt lat="46.92809" lon="8.57771">
        <ele>552</ele>
        <time>2021-08-10T11:06:42.819Z</time>
      </trkpt>
      <trkpt lat="46.92806" lon="8.57769">
        <ele>554</ele>
        <time>2021-08-10T11:06:43.820Z</time>
      </trkpt>
      <trkpt lat="46.92806" lon="8.57769">
        <ele>554</ele>
        <time>2021-08-10T11:06:44.819Z</time>
      </trkpt>
      <trkpt lat="46.92806" lon="8.57769">
        <ele>555</ele>
        <time>2021-08-10T11:06:45.820Z</time>
      </trkpt>
      <trkpt lat="46.92805" lon="8.57768">
        <ele>555</ele>
        <time>2021-08-10T11:06:46.819Z</time>
      </trkpt>
      <trkpt lat="46.92805" lon="8.57768">
        <ele>555</ele>
        <time>2021-08-10T11:06:47.819Z</time>
      </trkpt>
      <trkpt lat="46.92804" lon="8.57767">
        <ele>556</ele>
        <time>2021-08-10T11:06:48.819Z</time>
      </trkpt>
      <trkpt lat="46.92804" lon="8.57766">
        <ele>556</ele>
        <time>2021-08-10T11:06:49.820Z</time>
      </trkpt>
      <trkpt lat="46.92804" lon="8.57765">
        <ele>557</ele>
        <time>2021-08-10T11:06:50.819Z</time>
      </trkpt>
      <trkpt lat="46.92803" lon="8.57764">
        <ele>557</ele>
        <time>2021-08-10T11:06:51.820Z</time>
      </trkpt>
      <trkpt lat="46.92803" lon="8.57764">
        <ele>557</ele>
        <time>2021-08-10T11:06:52.820Z</time>
      </trkpt>
      <trkpt lat="46.92801" lon="8.57762">
        <ele>558</ele>
        <time>2021-08-10T11:06:53.820Z</time>
      </trkpt>
      <trkpt lat="46.92801" lon="8.57761">
        <ele>558</ele>
        <time>2021-08-10T11:06:54.819Z</time>
      </trkpt>
      <trkpt lat="46.928" lon="8.5776">
        <ele>558</ele>
        <time>2021-08-10T11:06:55.819Z</time>
      </trkpt>
      <trkpt lat="46.928" lon="8.57759">
        <ele>558</ele>
        <time>2021-08-10T11:06:56.820Z</time>
      </trkpt>
      <trkpt lat="46.928" lon="8.57759">
        <ele>557</ele>
        <time>2021-08-10T11:06:57.820Z</time>
      </trkpt>
      <trkpt lat="46.92799" lon="8.57758">
        <ele>557</ele>
        <time>2021-08-10T11:06:58.820Z</time>
      </trkpt>
      <trkpt lat="46.92798" lon="8.57757">
        <ele>556</ele>
        <time>2021-08-10T11:06:59.819Z</time>
      </trkpt>
      <trkpt lat="46.92797" lon="8.57757">
        <ele>556</ele>
        <time>2021-08-10T11:07:00.819Z</time>
      </trkpt>
      <trkpt lat="46.92796" lon="8.57755">
        <ele>556</ele>
        <time>2021-08-10T11:07:01.820Z</time>
      </trkpt>
      <trkpt lat="46.92794" lon="8.57753">
        <ele>556</ele>
        <time>2021-08-10T11:07:02.819Z</time>
      </trkpt>
      <trkpt lat="46.92794" lon="8.57752">
        <ele>555</ele>
        <time>2021-08-10T11:07:03.820Z</time>
      </trkpt>
      <trkpt lat="46.92794" lon="8.57751">
        <ele>555</ele>
        <time>2021-08-10T11:07:04.819Z</time>
      </trkpt>
      <trkpt lat="46.92794" lon="8.5775">
        <ele>554</ele>
        <time>2021-08-10T11:07:05.820Z</time>
      </trkpt>
      <trkpt lat="46.92794" lon="8.5775">
        <ele>553</ele>
        <time>2021-08-10T11:07:06.820Z</time>
      </trkpt>
      <trkpt lat="46.92794" lon="8.57749">
        <ele>552</ele>
        <time>2021-08-10T11:07:07.820Z</time>
      </trkpt>
      <trkpt lat="46.92794" lon="8.57749">
        <ele>551</ele>
        <time>2021-08-10T11:07:08.820Z</time>
      </trkpt>
      <trkpt lat="46.92793" lon="8.57748">
        <ele>551</ele>
        <time>2021-08-10T11:07:09.820Z</time>
      </trkpt>
      <trkpt lat="46.92793" lon="8.57748">
        <ele>550</ele>
        <time>2021-08-10T11:07:10.820Z</time>
      </trkpt>
      <trkpt lat="46.92792" lon="8.57747">
        <ele>550</ele>
        <time>2021-08-10T11:07:11.821Z</time>
      </trkpt>
      <trkpt lat="46.92792" lon="8.57747">
        <ele>550</ele>
        <time>2021-08-10T11:07:12.820Z</time>
      </trkpt>
      <trkpt lat="46.92793" lon="8.57747">
        <ele>550</ele>
        <time>2021-08-10T11:07:13.820Z</time>
      </trkpt>
      <trkpt lat="46.92793" lon="8.57747">
        <ele>550</ele>
        <time>2021-08-10T11:07:14.821Z</time>
      </trkpt>
      <trkpt lat="46.92793" lon="8.57746">
        <ele>550</ele>
        <time>2021-08-10T11:07:15.821Z</time>
      </trkpt>
      <trkpt lat="46.92794" lon="8.57746">
        <ele>551</ele>
        <time>2021-08-10T11:07:16.821Z</time>
      </trkpt>
      <trkpt lat="46.92794" lon="8.57746">
        <ele>551</ele>
        <time>2021-08-10T11:07:17.821Z</time>
      </trkpt>
      <trkpt lat="46.9279" lon="8.57743">
        <ele>551</ele>
        <time>2021-08-10T11:07:18.820Z</time>
      </trkpt>
      <trkpt lat="46.92789" lon="8.57743">
        <ele>551</ele>
        <time>2021-08-10T11:07:19.820Z</time>
      </trkpt>
      <trkpt lat="46.92789" lon="8.57742">
        <ele>550</ele>
        <time>2021-08-10T11:07:20.820Z</time>
      </trkpt>
      <trkpt lat="46.92788" lon="8.57742">
        <ele>550</ele>
        <time>2021-08-10T11:07:21.820Z</time>
      </trkpt>
      <trkpt lat="46.92788" lon="8.57742">
        <ele>550</ele>
        <time>2021-08-10T11:07:22.820Z</time>
      </trkpt>
      <trkpt lat="46.92788" lon="8.57741">
        <ele>550</ele>
        <time>2021-08-10T11:07:23.821Z</time>
      </trkpt>
      <trkpt lat="46.92787" lon="8.5774">
        <ele>550</ele>
        <time>2021-08-10T11:07:24.821Z</time>
      </trkpt>
      <trkpt lat="46.92786" lon="8.5774">
        <ele>550</ele>
        <time>2021-08-10T11:07:25.821Z</time>
      </trkpt>
      <trkpt lat="46.92786" lon="8.5774">
        <ele>550</ele>
        <time>2021-08-10T11:07:26.821Z</time>
      </trkpt>
      <trkpt lat="46.92785" lon="8.5774">
        <ele>549</ele>
        <time>2021-08-10T11:07:27.821Z</time>
      </trkpt>
      <trkpt lat="46.92785" lon="8.57739">
        <ele>549</ele>
        <time>2021-08-10T11:07:28.821Z</time>
      </trkpt>
      <trkpt lat="46.92784" lon="8.57739">
        <ele>550</ele>
        <time>2021-08-10T11:07:29.821Z</time>
      </trkpt>
      <trkpt lat="46.92783" lon="8.57739">
        <ele>550</ele>
        <time>2021-08-10T11:07:30.821Z</time>
      </trkpt>
      <trkpt lat="46.92783" lon="8.57738">
        <ele>550</ele>
        <time>2021-08-10T11:07:31.820Z</time>
      </trkpt>
      <trkpt lat="46.92782" lon="8.57739">
        <ele>550</ele>
        <time>2021-08-10T11:07:32.820Z</time>
      </trkpt>
      <trkpt lat="46.92782" lon="8.57739">
        <ele>550</ele>
        <time>2021-08-10T11:07:33.821Z</time>
      </trkpt>
      <trkpt lat="46.92781" lon="8.57739">
        <ele>551</ele>
        <time>2021-08-10T11:07:34.821Z</time>
      </trkpt>
      <trkpt lat="46.9278" lon="8.57739">
        <ele>551</ele>
        <time>2021-08-10T11:07:35.821Z</time>
      </trkpt>
      <trkpt lat="46.92779" lon="8.57739">
        <ele>552</ele>
        <time>2021-08-10T11:07:36.821Z</time>
      </trkpt>
      <trkpt lat="46.92779" lon="8.5774">
        <ele>552</ele>
        <time>2021-08-10T11:07:37.821Z</time>
      </trkpt>
      <trkpt lat="46.92778" lon="8.5774">
        <ele>553</ele>
        <time>2021-08-10T11:07:38.821Z</time>
      </trkpt>
      <trkpt lat="46.92777" lon="8.5774">
        <ele>554</ele>
        <time>2021-08-10T11:07:39.821Z</time>
      </trkpt>
      <trkpt lat="46.92777" lon="8.5774">
        <ele>555</ele>
        <time>2021-08-10T11:07:40.821Z</time>
      </trkpt>
      <trkpt lat="46.92776" lon="8.5774">
        <ele>555</ele>
        <time>2021-08-10T11:07:41.821Z</time>
      </trkpt>
      <trkpt lat="46.92776" lon="8.5774">
        <ele>556</ele>
        <time>2021-08-10T11:07:42.821Z</time>
      </trkpt>
      <trkpt lat="46.92775" lon="8.57739">
        <ele>557</ele>
        <time>2021-08-10T11:07:43.821Z</time>
      </trkpt>
      <trkpt lat="46.92775" lon="8.57739">
        <ele>558</ele>
        <time>2021-08-10T11:07:44.821Z</time>
      </trkpt>
      <trkpt lat="46.92774" lon="8.57738">
        <ele>558</ele>
        <time>2021-08-10T11:07:45.820Z</time>
      </trkpt>
      <trkpt lat="46.92774" lon="8.57738">
        <ele>559</ele>
        <time>2021-08-10T11:07:46.821Z</time>
      </trkpt>
      <trkpt lat="46.92773" lon="8.57738">
        <ele>560</ele>
        <time>2021-08-10T11:07:47.821Z</time>
      </trkpt>
      <trkpt lat="46.92773" lon="8.57738">
        <ele>561</ele>
        <time>2021-08-10T11:07:48.821Z</time>
      </trkpt>
      <trkpt lat="46.92772" lon="8.57737">
        <ele>562</ele>
        <time>2021-08-10T11:07:49.821Z</time>
      </trkpt>
      <trkpt lat="46.92772" lon="8.57737">
        <ele>563</ele>
        <time>2021-08-10T11:07:50.821Z</time>
      </trkpt>
      <trkpt lat="46.92771" lon="8.57737">
        <ele>564</ele>
        <time>2021-08-10T11:07:51.821Z</time>
      </trkpt>
      <trkpt lat="46.92771" lon="8.57736">
        <ele>565</ele>
        <time>2021-08-10T11:07:52.821Z</time>
      </trkpt>
      <trkpt lat="46.9277" lon="8.57736">
        <ele>566</ele>
        <time>2021-08-10T11:07:53.821Z</time>
      </trkpt>
      <trkpt lat="46.9277" lon="8.57736">
        <ele>567</ele>
        <time>2021-08-10T11:07:54.821Z</time>
      </trkpt>
      <trkpt lat="46.92769" lon="8.57735">
        <ele>567</ele>
        <time>2021-08-10T11:07:55.821Z</time>
      </trkpt>
      <trkpt lat="46.92769" lon="8.57734">
        <ele>567</ele>
        <time>2021-08-10T11:07:56.821Z</time>
      </trkpt>
      <trkpt lat="46.92768" lon="8.57734">
        <ele>568</ele>
        <time>2021-08-10T11:07:57.821Z</time>
      </trkpt>
      <trkpt lat="46.92768" lon="8.57734">
        <ele>568</ele>
        <time>2021-08-10T11:07:58.821Z</time>
      </trkpt>
      <trkpt lat="46.92768" lon="8.57734">
        <ele>569</ele>
        <time>2021-08-10T11:07:59.821Z</time>
      </trkpt>
      <trkpt lat="46.92769" lon="8.57734">
        <ele>569</ele>
        <time>2021-08-10T11:08:00.822Z</time>
      </trkpt>
      <trkpt lat="46.92769" lon="8.57734">
        <ele>568</ele>
        <time>2021-08-10T11:08:01.822Z</time>
      </trkpt>
      <trkpt lat="46.92768" lon="8.57733">
        <ele>567</ele>
        <time>2021-08-10T11:08:02.821Z</time>
      </trkpt>
      <trkpt lat="46.92768" lon="8.57733">
        <ele>567</ele>
        <time>2021-08-10T11:08:03.822Z</time>
      </trkpt>
      <trkpt lat="46.92767" lon="8.57733">
        <ele>567</ele>
        <time>2021-08-10T11:08:04.821Z</time>
      </trkpt>
      <trkpt lat="46.92768" lon="8.5773">
        <ele>568</ele>
        <time>2021-08-10T11:08:05.822Z</time>
      </trkpt>
      <trkpt lat="46.92768" lon="8.5773">
        <ele>567</ele>
        <time>2021-08-10T11:08:06.821Z</time>
      </trkpt>
      <trkpt lat="46.92768" lon="8.5773">
        <ele>567</ele>
        <time>2021-08-10T11:08:07.822Z</time>
      </trkpt>
      <trkpt lat="46.92767" lon="8.57731">
        <ele>567</ele>
        <time>2021-08-10T11:08:08.821Z</time>
      </trkpt>
      <trkpt lat="46.92767" lon="8.57731">
        <ele>567</ele>
        <time>2021-08-10T11:08:09.821Z</time>
      </trkpt>
      <trkpt lat="46.92767" lon="8.57731">
        <ele>567</ele>
        <time>2021-08-10T11:08:10.821Z</time>
      </trkpt>
      <trkpt lat="46.92766" lon="8.57731">
        <ele>566</ele>
        <time>2021-08-10T11:08:11.822Z</time>
      </trkpt>
      <trkpt lat="46.92766" lon="8.57732">
        <ele>566</ele>
        <time>2021-08-10T11:08:12.821Z</time>
      </trkpt>
      <trkpt lat="46.92765" lon="8.57732">
        <ele>566</ele>
        <time>2021-08-10T11:08:13.822Z</time>
      </trkpt>
      <trkpt lat="46.92765" lon="8.57732">
        <ele>566</ele>
        <time>2021-08-10T11:08:14.821Z</time>
      </trkpt>
      <trkpt lat="46.92764" lon="8.57733">
        <ele>566</ele>
        <time>2021-08-10T11:08:15.822Z</time>
      </trkpt>
      <trkpt lat="46.92764" lon="8.57734">
        <ele>566</ele>
        <time>2021-08-10T11:08:16.821Z</time>
      </trkpt>
      <trkpt lat="46.92763" lon="8.57735">
        <ele>565</ele>
        <time>2021-08-10T11:08:17.821Z</time>
      </trkpt>
      <trkpt lat="46.92762" lon="8.57736">
        <ele>565</ele>
        <time>2021-08-10T11:08:18.821Z</time>
      </trkpt>
      <trkpt lat="46.92762" lon="8.57737">
        <ele>565</ele>
        <time>2021-08-10T11:08:19.821Z</time>
      </trkpt>
      <trkpt lat="46.92762" lon="8.57737">
        <ele>565</ele>
        <time>2021-08-10T11:08:20.822Z</time>
      </trkpt>
      <trkpt lat="46.92762" lon="8.57738">
        <ele>565</ele>
        <time>2021-08-10T11:08:21.821Z</time>
      </trkpt>
      <trkpt lat="46.92761" lon="8.57738">
        <ele>565</ele>
        <time>2021-08-10T11:08:22.821Z</time>
      </trkpt>
      <trkpt lat="46.9276" lon="8.57738">
        <ele>565</ele>
        <time>2021-08-10T11:08:23.821Z</time>
      </trkpt>
      <trkpt lat="46.92759" lon="8.57738">
        <ele>565</ele>
        <time>2021-08-10T11:08:24.822Z</time>
      </trkpt>
      <trkpt lat="46.92759" lon="8.57739">
        <ele>565</ele>
        <time>2021-08-10T11:08:25.822Z</time>
      </trkpt>
      <trkpt lat="46.92758" lon="8.5774">
        <ele>564</ele>
        <time>2021-08-10T11:08:26.821Z</time>
      </trkpt>
      <trkpt lat="46.92757" lon="8.5774">
        <ele>564</ele>
        <time>2021-08-10T11:08:27.822Z</time>
      </trkpt>
      <trkpt lat="46.92757" lon="8.5774">
        <ele>564</ele>
        <time>2021-08-10T11:08:28.822Z</time>
      </trkpt>
      <trkpt lat="46.92756" lon="8.57741">
        <ele>564</ele>
        <time>2021-08-10T11:08:29.822Z</time>
      </trkpt>
      <trkpt lat="46.92756" lon="8.5774">
        <ele>564</ele>
        <time>2021-08-10T11:08:30.822Z</time>
      </trkpt>
      <trkpt lat="46.92754" lon="8.5774">
        <ele>564</ele>
        <time>2021-08-10T11:08:31.822Z</time>
      </trkpt>
      <trkpt lat="46.92753" lon="8.5774">
        <ele>564</ele>
        <time>2021-08-10T11:08:32.822Z</time>
      </trkpt>
      <trkpt lat="46.92752" lon="8.57739">
        <ele>565</ele>
        <time>2021-08-10T11:08:33.822Z</time>
      </trkpt>
      <trkpt lat="46.92751" lon="8.57739">
        <ele>565</ele>
        <time>2021-08-10T11:08:34.821Z</time>
      </trkpt>
      <trkpt lat="46.92751" lon="8.57739">
        <ele>565</ele>
        <time>2021-08-10T11:08:35.821Z</time>
      </trkpt>
      <trkpt lat="46.92751" lon="8.57739">
        <ele>565</ele>
        <time>2021-08-10T11:08:36.821Z</time>
      </trkpt>
      <trkpt lat="46.92749" lon="8.5774">
        <ele>566</ele>
        <time>2021-08-10T11:08:37.823Z</time>
      </trkpt>
      <trkpt lat="46.92749" lon="8.57741">
        <ele>566</ele>
        <time>2021-08-10T11:08:38.823Z</time>
      </trkpt>
      <trkpt lat="46.92748" lon="8.57742">
        <ele>566</ele>
        <time>2021-08-10T11:08:39.822Z</time>
      </trkpt>
      <trkpt lat="46.92748" lon="8.57743">
        <ele>566</ele>
        <time>2021-08-10T11:08:40.823Z</time>
      </trkpt>
      <trkpt lat="46.92748" lon="8.57744">
        <ele>567</ele>
        <time>2021-08-10T11:08:41.823Z</time>
      </trkpt>
      <trkpt lat="46.92748" lon="8.57745">
        <ele>567</ele>
        <time>2021-08-10T11:08:42.822Z</time>
      </trkpt>
      <trkpt lat="46.92748" lon="8.57746">
        <ele>568</ele>
        <time>2021-08-10T11:08:43.823Z</time>
      </trkpt>
      <trkpt lat="46.92748" lon="8.57747">
        <ele>568</ele>
        <time>2021-08-10T11:08:44.823Z</time>
      </trkpt>
      <trkpt lat="46.92748" lon="8.57748">
        <ele>568</ele>
        <time>2021-08-10T11:08:45.823Z</time>
      </trkpt>
      <trkpt lat="46.92748" lon="8.57749">
        <ele>568</ele>
        <time>2021-08-10T11:08:46.822Z</time>
      </trkpt>
      <trkpt lat="46.92748" lon="8.5775">
        <ele>568</ele>
        <time>2021-08-10T11:08:47.823Z</time>
      </trkpt>
      <trkpt lat="46.92748" lon="8.57751">
        <ele>568</ele>
        <time>2021-08-10T11:08:48.823Z</time>
      </trkpt>
      <trkpt lat="46.92748" lon="8.57752">
        <ele>568</ele>
        <time>2021-08-10T11:08:49.823Z</time>
      </trkpt>
      <trkpt lat="46.92747" lon="8.57753">
        <ele>568</ele>
        <time>2021-08-10T11:08:50.822Z</time>
      </trkpt>
      <trkpt lat="46.92748" lon="8.57755">
        <ele>569</ele>
        <time>2021-08-10T11:08:51.823Z</time>
      </trkpt>
      <trkpt lat="46.92748" lon="8.57756">
        <ele>569</ele>
        <time>2021-08-10T11:08:52.822Z</time>
      </trkpt>
      <trkpt lat="46.92748" lon="8.57758">
        <ele>570</ele>
        <time>2021-08-10T11:08:53.823Z</time>
      </trkpt>
      <trkpt lat="46.92749" lon="8.57761">
        <ele>570</ele>
        <time>2021-08-10T11:08:54.823Z</time>
      </trkpt>
      <trkpt lat="46.92749" lon="8.57763">
        <ele>571</ele>
        <time>2021-08-10T11:08:55.823Z</time>
      </trkpt>
      <trkpt lat="46.9275" lon="8.57764">
        <ele>571</ele>
        <time>2021-08-10T11:08:56.823Z</time>
      </trkpt>
      <trkpt lat="46.9275" lon="8.57765">
        <ele>571</ele>
        <time>2021-08-10T11:08:57.823Z</time>
      </trkpt>
      <trkpt lat="46.9275" lon="8.57766">
        <ele>571</ele>
        <time>2021-08-10T11:08:58.823Z</time>
      </trkpt>
      <trkpt lat="46.9275" lon="8.57767">
        <ele>571</ele>
        <time>2021-08-10T11:08:59.822Z</time>
      </trkpt>
      <trkpt lat="46.9275" lon="8.57767">
        <ele>571</ele>
        <time>2021-08-10T11:09:00.823Z</time>
      </trkpt>
      <trkpt lat="46.92749" lon="8.57768">
        <ele>571</ele>
        <time>2021-08-10T11:09:01.822Z</time>
      </trkpt>
      <trkpt lat="46.9275" lon="8.57769">
        <ele>571</ele>
        <time>2021-08-10T11:09:02.822Z</time>
      </trkpt>
      <trkpt lat="46.92751" lon="8.57769">
        <ele>571</ele>
        <time>2021-08-10T11:09:03.822Z</time>
      </trkpt>
      <trkpt lat="46.92751" lon="8.5777">
        <ele>571</ele>
        <time>2021-08-10T11:09:04.822Z</time>
      </trkpt>
      <trkpt lat="46.92751" lon="8.57771">
        <ele>571</ele>
        <time>2021-08-10T11:09:05.823Z</time>
      </trkpt>
      <trkpt lat="46.9275" lon="8.57772">
        <ele>570</ele>
        <time>2021-08-10T11:09:06.823Z</time>
      </trkpt>
      <trkpt lat="46.9275" lon="8.57774">
        <ele>570</ele>
        <time>2021-08-10T11:09:07.823Z</time>
      </trkpt>
      <trkpt lat="46.9275" lon="8.57775">
        <ele>570</ele>
        <time>2021-08-10T11:09:08.823Z</time>
      </trkpt>
      <trkpt lat="46.9275" lon="8.57777">
        <ele>570</ele>
        <time>2021-08-10T11:09:09.823Z</time>
      </trkpt>
      <trkpt lat="46.92749" lon="8.57778">
        <ele>570</ele>
        <time>2021-08-10T11:09:10.822Z</time>
      </trkpt>
      <trkpt lat="46.92748" lon="8.57779">
        <ele>570</ele>
        <time>2021-08-10T11:09:11.822Z</time>
      </trkpt>
      <trkpt lat="46.92747" lon="8.5778">
        <ele>570</ele>
        <time>2021-08-10T11:09:12.822Z</time>
      </trkpt>
      <trkpt lat="46.92747" lon="8.5778">
        <ele>569</ele>
        <time>2021-08-10T11:09:13.823Z</time>
      </trkpt>
      <trkpt lat="46.92746" lon="8.57781">
        <ele>569</ele>
        <time>2021-08-10T11:09:14.823Z</time>
      </trkpt>
      <trkpt lat="46.92746" lon="8.57781">
        <ele>569</ele>
        <time>2021-08-10T11:09:15.822Z</time>
      </trkpt>
      <trkpt lat="46.92746" lon="8.57782">
        <ele>569</ele>
        <time>2021-08-10T11:09:16.822Z</time>
      </trkpt>
      <trkpt lat="46.92746" lon="8.57782">
        <ele>569</ele>
        <time>2021-08-10T11:09:17.823Z</time>
      </trkpt>
      <trkpt lat="46.92745" lon="8.57782">
        <ele>569</ele>
        <time>2021-08-10T11:09:18.822Z</time>
      </trkpt>
      <trkpt lat="46.92744" lon="8.57781">
        <ele>569</ele>
        <time>2021-08-10T11:09:19.823Z</time>
      </trkpt>
      <trkpt lat="46.92743" lon="8.5778">
        <ele>569</ele>
        <time>2021-08-10T11:09:20.822Z</time>
      </trkpt>
      <trkpt lat="46.92742" lon="8.5778">
        <ele>569</ele>
        <time>2021-08-10T11:09:21.823Z</time>
      </trkpt>
      <trkpt lat="46.92741" lon="8.57779">
        <ele>570</ele>
        <time>2021-08-10T11:09:22.823Z</time>
      </trkpt>
      <trkpt lat="46.92741" lon="8.57779">
        <ele>570</ele>
        <time>2021-08-10T11:09:23.823Z</time>
      </trkpt>
      <trkpt lat="46.9274" lon="8.57779">
        <ele>570</ele>
        <time>2021-08-10T11:09:24.823Z</time>
      </trkpt>
      <trkpt lat="46.9274" lon="8.57779">
        <ele>571</ele>
        <time>2021-08-10T11:09:25.823Z</time>
      </trkpt>
      <trkpt lat="46.9274" lon="8.57778">
        <ele>571</ele>
        <time>2021-08-10T11:09:26.823Z</time>
      </trkpt>
      <trkpt lat="46.92741" lon="8.57778">
        <ele>572</ele>
        <time>2021-08-10T11:09:27.823Z</time>
      </trkpt>
      <trkpt lat="46.92741" lon="8.57778">
        <ele>573</ele>
        <time>2021-08-10T11:09:28.822Z</time>
      </trkpt>
      <trkpt lat="46.92741" lon="8.57776">
        <ele>577</ele>
        <time>2021-08-10T11:09:29.822Z</time>
      </trkpt>
      <trkpt lat="46.92742" lon="8.57776">
        <ele>578</ele>
        <time>2021-08-10T11:09:30.823Z</time>
      </trkpt>
      <trkpt lat="46.92743" lon="8.57775">
        <ele>579</ele>
        <time>2021-08-10T11:09:31.823Z</time>
      </trkpt>
      <trkpt lat="46.92743" lon="8.57775">
        <ele>579</ele>
        <time>2021-08-10T11:09:32.823Z</time>
      </trkpt>
      <trkpt lat="46.92743" lon="8.57774">
        <ele>580</ele>
        <time>2021-08-10T11:09:33.822Z</time>
      </trkpt>
      <trkpt lat="46.92742" lon="8.57774">
        <ele>580</ele>
        <time>2021-08-10T11:09:34.822Z</time>
      </trkpt>
      <trkpt lat="46.92742" lon="8.57773">
        <ele>580</ele>
        <time>2021-08-10T11:09:35.822Z</time>
      </trkpt>
      <trkpt lat="46.92741" lon="8.57773">
        <ele>580</ele>
        <time>2021-08-10T11:09:36.822Z</time>
      </trkpt>
      <trkpt lat="46.92741" lon="8.57773">
        <ele>580</ele>
        <time>2021-08-10T11:09:37.823Z</time>
      </trkpt>
      <trkpt lat="46.92742" lon="8.57772">
        <ele>580</ele>
        <time>2021-08-10T11:09:38.823Z</time>
      </trkpt>
      <trkpt lat="46.92742" lon="8.57773">
        <ele>580</ele>
        <time>2021-08-10T11:09:39.822Z</time>
      </trkpt>
      <trkpt lat="46.92741" lon="8.57773">
        <ele>580</ele>
        <time>2021-08-10T11:09:40.823Z</time>
      </trkpt>
      <trkpt lat="46.92741" lon="8.57774">
        <ele>580</ele>
        <time>2021-08-10T11:09:41.822Z</time>
      </trkpt>
      <trkpt lat="46.92741" lon="8.57774">
        <ele>580</ele>
        <time>2021-08-10T11:09:42.823Z</time>
      </trkpt>
      <trkpt lat="46.92741" lon="8.57774">
        <ele>580</ele>
        <time>2021-08-10T11:09:43.822Z</time>
      </trkpt>
      <trkpt lat="46.92739" lon="8.57776">
        <ele>578</ele>
        <time>2021-08-10T11:09:44.825Z</time>
      </trkpt>
      <trkpt lat="46.92739" lon="8.57776">
        <ele>578</ele>
        <time>2021-08-10T11:09:45.825Z</time>
      </trkpt>
      <trkpt lat="46.92738" lon="8.57776">
        <ele>577</ele>
        <time>2021-08-10T11:09:46.824Z</time>
      </trkpt>
      <trkpt lat="46.92738" lon="8.57776">
        <ele>577</ele>
        <time>2021-08-10T11:09:47.825Z</time>
      </trkpt>
      <trkpt lat="46.92738" lon="8.57778">
        <ele>577</ele>
        <time>2021-08-10T11:09:48.824Z</time>
      </trkpt>
      <trkpt lat="46.92738" lon="8.57779">
        <ele>577</ele>
        <time>2021-08-10T11:09:49.824Z</time>
      </trkpt>
      <trkpt lat="46.92737" lon="8.57779">
        <ele>576</ele>
        <time>2021-08-10T11:09:50.824Z</time>
      </trkpt>
      <trkpt lat="46.92737" lon="8.57779">
        <ele>576</ele>
        <time>2021-08-10T11:09:51.825Z</time>
      </trkpt>
      <trkpt lat="46.92736" lon="8.57779">
        <ele>576</ele>
        <time>2021-08-10T11:09:52.825Z</time>
      </trkpt>
      <trkpt lat="46.92737" lon="8.57779">
        <ele>575</ele>
        <time>2021-08-10T11:09:53.825Z</time>
      </trkpt>
      <trkpt lat="46.92736" lon="8.57779">
        <ele>575</ele>
        <time>2021-08-10T11:09:54.825Z</time>
      </trkpt>
      <trkpt lat="46.92736" lon="8.5778">
        <ele>575</ele>
        <time>2021-08-10T11:09:55.824Z</time>
      </trkpt>
      <trkpt lat="46.92736" lon="8.57781">
        <ele>575</ele>
        <time>2021-08-10T11:09:56.825Z</time>
      </trkpt>
      <trkpt lat="46.92734" lon="8.57783">
        <ele>575</ele>
        <time>2021-08-10T11:09:57.825Z</time>
      </trkpt>
      <trkpt lat="46.92733" lon="8.57783">
        <ele>575</ele>
        <time>2021-08-10T11:09:58.825Z</time>
      </trkpt>
      <trkpt lat="46.92733" lon="8.57784">
        <ele>575</ele>
        <time>2021-08-10T11:09:59.825Z</time>
      </trkpt>
      <trkpt lat="46.92733" lon="8.57783">
        <ele>576</ele>
        <time>2021-08-10T11:10:00.826Z</time>
      </trkpt>
      <trkpt lat="46.92733" lon="8.57784">
        <ele>576</ele>
        <time>2021-08-10T11:10:01.826Z</time>
      </trkpt>
      <trkpt lat="46.92733" lon="8.57782">
        <ele>577</ele>
        <time>2021-08-10T11:10:02.826Z</time>
      </trkpt>
      <trkpt lat="46.92734" lon="8.57782">
        <ele>578</ele>
        <time>2021-08-10T11:10:03.825Z</time>
      </trkpt>
      <trkpt lat="46.92735" lon="8.57783">
        <ele>578</ele>
        <time>2021-08-10T11:10:04.825Z</time>
      </trkpt>
      <trkpt lat="46.92735" lon="8.57784">
        <ele>578</ele>
        <time>2021-08-10T11:10:05.825Z</time>
      </trkpt>
      <trkpt lat="46.92736" lon="8.57784">
        <ele>578</ele>
        <time>2021-08-10T11:10:06.825Z</time>
      </trkpt>
      <trkpt lat="46.92736" lon="8.57785">
        <ele>578</ele>
        <time>2021-08-10T11:10:07.825Z</time>
      </trkpt>
      <trkpt lat="46.92735" lon="8.57785">
        <ele>578</ele>
        <time>2021-08-10T11:10:08.826Z</time>
      </trkpt>
      <trkpt lat="46.92735" lon="8.57786">
        <ele>578</ele>
        <time>2021-08-10T11:10:09.825Z</time>
      </trkpt>
      <trkpt lat="46.92735" lon="8.57786">
        <ele>578</ele>
        <time>2021-08-10T11:10:10.826Z</time>
      </trkpt>
      <trkpt lat="46.92734" lon="8.57786">
        <ele>578</ele>
        <time>2021-08-10T11:10:11.825Z</time>
      </trkpt>
      <trkpt lat="46.92734" lon="8.57786">
        <ele>579</ele>
        <time>2021-08-10T11:10:12.826Z</time>
      </trkpt>
      <trkpt lat="46.92734" lon="8.57786">
        <ele>579</ele>
        <time>2021-08-10T11:10:13.825Z</time>
      </trkpt>
      <trkpt lat="46.92733" lon="8.57786">
        <ele>580</ele>
        <time>2021-08-10T11:10:14.825Z</time>
      </trkpt>
      <trkpt lat="46.92733" lon="8.57786">
        <ele>580</ele>
        <time>2021-08-10T11:10:15.826Z</time>
      </trkpt>
      <trkpt lat="46.92732" lon="8.57785">
        <ele>581</ele>
        <time>2021-08-10T11:10:16.825Z</time>
      </trkpt>
      <trkpt lat="46.92732" lon="8.57785">
        <ele>582</ele>
        <time>2021-08-10T11:10:17.825Z</time>
      </trkpt>
      <trkpt lat="46.9273" lon="8.57781">
        <ele>583</ele>
        <time>2021-08-10T11:10:18.827Z</time>
      </trkpt>
      <trkpt lat="46.92729" lon="8.57781">
        <ele>583</ele>
        <time>2021-08-10T11:10:19.827Z</time>
      </trkpt>
      <trkpt lat="46.9273" lon="8.57777">
        <ele>584</ele>
        <time>2021-08-10T11:10:20.827Z</time>
      </trkpt>
      <trkpt lat="46.9273" lon="8.57777">
        <ele>584</ele>
        <time>2021-08-10T11:10:21.826Z</time>
      </trkpt>
      <trkpt lat="46.92729" lon="8.57777">
        <ele>584</ele>
        <time>2021-08-10T11:10:22.827Z</time>
      </trkpt>
      <trkpt lat="46.92729" lon="8.57777">
        <ele>583</ele>
        <time>2021-08-10T11:10:23.826Z</time>
      </trkpt>
      <trkpt lat="46.92729" lon="8.57776">
        <ele>583</ele>
        <time>2021-08-10T11:10:24.827Z</time>
      </trkpt>
      <trkpt lat="46.9273" lon="8.57775">
        <ele>579</ele>
        <time>2021-08-10T11:10:25.828Z</time>
      </trkpt>
      <trkpt lat="46.92731" lon="8.57777">
        <ele>587</ele>
        <time>2021-08-10T11:10:26.828Z</time>
      </trkpt>
      <trkpt lat="46.92731" lon="8.57778">
        <ele>588</ele>
        <time>2021-08-10T11:10:27.828Z</time>
      </trkpt>
      <trkpt lat="46.92732" lon="8.57778">
        <ele>589</ele>
        <time>2021-08-10T11:10:28.827Z</time>
      </trkpt>
      <trkpt lat="46.92731" lon="8.57778">
        <ele>590</ele>
        <time>2021-08-10T11:10:29.827Z</time>
      </trkpt>
      <trkpt lat="46.92729" lon="8.57777">
        <ele>600</ele>
        <time>2021-08-10T11:10:30.827Z</time>
      </trkpt>
      <trkpt lat="46.9273" lon="8.57775">
        <ele>601</ele>
        <time>2021-08-10T11:10:31.828Z</time>
      </trkpt>
      <trkpt lat="46.92731" lon="8.57775">
        <ele>603</ele>
        <time>2021-08-10T11:10:32.828Z</time>
      </trkpt>
      <trkpt lat="46.92732" lon="8.57776">
        <ele>601</ele>
        <time>2021-08-10T11:10:33.828Z</time>
      </trkpt>
      <trkpt lat="46.92732" lon="8.57777">
        <ele>600</ele>
        <time>2021-08-10T11:10:34.828Z</time>
      </trkpt>
      <trkpt lat="46.92731" lon="8.57777">
        <ele>600</ele>
        <time>2021-08-10T11:10:35.829Z</time>
      </trkpt>
      <trkpt lat="46.92729" lon="8.57776">
        <ele>598</ele>
        <time>2021-08-10T11:10:36.830Z</time>
      </trkpt>
      <trkpt lat="46.92729" lon="8.57776">
        <ele>597</ele>
        <time>2021-08-10T11:10:37.830Z</time>
      </trkpt>
      <trkpt lat="46.9273" lon="8.57775">
        <ele>595</ele>
        <time>2021-08-10T11:10:38.830Z</time>
      </trkpt>
      <trkpt lat="46.92729" lon="8.57775">
        <ele>594</ele>
        <time>2021-08-10T11:10:39.831Z</time>
      </trkpt>
      <trkpt lat="46.92729" lon="8.57775">
        <ele>594</ele>
        <time>2021-08-10T11:10:40.830Z</time>
      </trkpt>
      <trkpt lat="46.92728" lon="8.57775">
        <ele>593</ele>
        <time>2021-08-10T11:10:41.831Z</time>
      </trkpt>
      <trkpt lat="46.92728" lon="8.57775">
        <ele>593</ele>
        <time>2021-08-10T11:10:42.830Z</time>
      </trkpt>
      <trkpt lat="46.92727" lon="8.57776">
        <ele>592</ele>
        <time>2021-08-10T11:10:43.830Z</time>
      </trkpt>
      <trkpt lat="46.92727" lon="8.57777">
        <ele>591</ele>
        <time>2021-08-10T11:10:44.830Z</time>
      </trkpt>
      <trkpt lat="46.92727" lon="8.57778">
        <ele>591</ele>
        <time>2021-08-10T11:10:45.831Z</time>
      </trkpt>
      <trkpt lat="46.92727" lon="8.57779">
        <ele>590</ele>
        <time>2021-08-10T11:10:46.831Z</time>
      </trkpt>
      <trkpt lat="46.92727" lon="8.5778">
        <ele>590</ele>
        <time>2021-08-10T11:10:47.830Z</time>
      </trkpt>
      <trkpt lat="46.92727" lon="8.57781">
        <ele>590</ele>
        <time>2021-08-10T11:10:48.830Z</time>
      </trkpt>
      <trkpt lat="46.92727" lon="8.57782">
        <ele>590</ele>
        <time>2021-08-10T11:10:49.831Z</time>
      </trkpt>
      <trkpt lat="46.92727" lon="8.57783">
        <ele>590</ele>
        <time>2021-08-10T11:10:50.831Z</time>
      </trkpt>
      <trkpt lat="46.92727" lon="8.57784">
        <ele>589</ele>
        <time>2021-08-10T11:10:51.830Z</time>
      </trkpt>
      <trkpt lat="46.92726" lon="8.57785">
        <ele>590</ele>
        <time>2021-08-10T11:10:52.830Z</time>
      </trkpt>
      <trkpt lat="46.92726" lon="8.57786">
        <ele>590</ele>
        <time>2021-08-10T11:10:53.830Z</time>
      </trkpt>
      <trkpt lat="46.92725" lon="8.57787">
        <ele>590</ele>
        <time>2021-08-10T11:10:54.831Z</time>
      </trkpt>
      <trkpt lat="46.92725" lon="8.57788">
        <ele>590</ele>
        <time>2021-08-10T11:10:55.831Z</time>
      </trkpt>
      <trkpt lat="46.92725" lon="8.57789">
        <ele>590</ele>
        <time>2021-08-10T11:10:56.830Z</time>
      </trkpt>
      <trkpt lat="46.92725" lon="8.5779">
        <ele>590</ele>
        <time>2021-08-10T11:10:57.830Z</time>
      </trkpt>
      <trkpt lat="46.92724" lon="8.57791">
        <ele>590</ele>
        <time>2021-08-10T11:10:58.830Z</time>
      </trkpt>
      <trkpt lat="46.92724" lon="8.57792">
        <ele>590</ele>
        <time>2021-08-10T11:10:59.831Z</time>
      </trkpt>
      <trkpt lat="46.92724" lon="8.57793">
        <ele>589</ele>
        <time>2021-08-10T11:11:00.831Z</time>
      </trkpt>
      <trkpt lat="46.92724" lon="8.57794">
        <ele>589</ele>
        <time>2021-08-10T11:11:01.830Z</time>
      </trkpt>
      <trkpt lat="46.92724" lon="8.57795">
        <ele>589</ele>
        <time>2021-08-10T11:11:02.830Z</time>
      </trkpt>
      <trkpt lat="46.92724" lon="8.57796">
        <ele>589</ele>
        <time>2021-08-10T11:11:03.830Z</time>
      </trkpt>
      <trkpt lat="46.92724" lon="8.57798">
        <ele>588</ele>
        <time>2021-08-10T11:11:04.830Z</time>
      </trkpt>
      <trkpt lat="46.92724" lon="8.57799">
        <ele>588</ele>
        <time>2021-08-10T11:11:05.830Z</time>
      </trkpt>
      <trkpt lat="46.92724" lon="8.57801">
        <ele>588</ele>
        <time>2021-08-10T11:11:06.830Z</time>
      </trkpt>
      <trkpt lat="46.92723" lon="8.57802">
        <ele>588</ele>
        <time>2021-08-10T11:11:07.830Z</time>
      </trkpt>
      <trkpt lat="46.92722" lon="8.57804">
        <ele>588</ele>
        <time>2021-08-10T11:11:08.830Z</time>
      </trkpt>
      <trkpt lat="46.92722" lon="8.57805">
        <ele>588</ele>
        <time>2021-08-10T11:11:09.830Z</time>
      </trkpt>
      <trkpt lat="46.9272" lon="8.57806">
        <ele>587</ele>
        <time>2021-08-10T11:11:10.831Z</time>
      </trkpt>
      <trkpt lat="46.92719" lon="8.57808">
        <ele>587</ele>
        <time>2021-08-10T11:11:11.831Z</time>
      </trkpt>
      <trkpt lat="46.92719" lon="8.57809">
        <ele>587</ele>
        <time>2021-08-10T11:11:12.830Z</time>
      </trkpt>
      <trkpt lat="46.92719" lon="8.5781">
        <ele>587</ele>
        <time>2021-08-10T11:11:13.830Z</time>
      </trkpt>
      <trkpt lat="46.92719" lon="8.57813">
        <ele>587</ele>
        <time>2021-08-10T11:11:14.831Z</time>
      </trkpt>
      <trkpt lat="46.92719" lon="8.57815">
        <ele>587</ele>
        <time>2021-08-10T11:11:15.831Z</time>
      </trkpt>
      <trkpt lat="46.92719" lon="8.57817">
        <ele>587</ele>
        <time>2021-08-10T11:11:16.830Z</time>
      </trkpt>
      <trkpt lat="46.92719" lon="8.57818">
        <ele>587</ele>
        <time>2021-08-10T11:11:17.830Z</time>
      </trkpt>
      <trkpt lat="46.9272" lon="8.5782">
        <ele>588</ele>
        <time>2021-08-10T11:11:18.831Z</time>
      </trkpt>
      <trkpt lat="46.9272" lon="8.57822">
        <ele>588</ele>
        <time>2021-08-10T11:11:19.830Z</time>
      </trkpt>
      <trkpt lat="46.9272" lon="8.57823">
        <ele>588</ele>
        <time>2021-08-10T11:11:20.831Z</time>
      </trkpt>
      <trkpt lat="46.9272" lon="8.57825">
        <ele>589</ele>
        <time>2021-08-10T11:11:21.830Z</time>
      </trkpt>
      <trkpt lat="46.9272" lon="8.57827">
        <ele>589</ele>
        <time>2021-08-10T11:11:22.831Z</time>
      </trkpt>
      <trkpt lat="46.9272" lon="8.57829">
        <ele>589</ele>
        <time>2021-08-10T11:11:23.831Z</time>
      </trkpt>
      <trkpt lat="46.9272" lon="8.5783">
        <ele>589</ele>
        <time>2021-08-10T11:11:24.831Z</time>
      </trkpt>
      <trkpt lat="46.92719" lon="8.57831">
        <ele>589</ele>
        <time>2021-08-10T11:11:25.831Z</time>
      </trkpt>
      <trkpt lat="46.92719" lon="8.57832">
        <ele>590</ele>
        <time>2021-08-10T11:11:26.830Z</time>
      </trkpt>
      <trkpt lat="46.92719" lon="8.57834">
        <ele>590</ele>
        <time>2021-08-10T11:11:27.830Z</time>
      </trkpt>
      <trkpt lat="46.92719" lon="8.57836">
        <ele>590</ele>
        <time>2021-08-10T11:11:28.831Z</time>
      </trkpt>
      <trkpt lat="46.92719" lon="8.57837">
        <ele>591</ele>
        <time>2021-08-10T11:11:29.831Z</time>
      </trkpt>
      <trkpt lat="46.92719" lon="8.57839">
        <ele>591</ele>
        <time>2021-08-10T11:11:30.831Z</time>
      </trkpt>
      <trkpt lat="46.92719" lon="8.5784">
        <ele>591</ele>
        <time>2021-08-10T11:11:31.831Z</time>
      </trkpt>
      <trkpt lat="46.9272" lon="8.57842">
        <ele>591</ele>
        <time>2021-08-10T11:11:32.831Z</time>
      </trkpt>
      <trkpt lat="46.92721" lon="8.57843">
        <ele>591</ele>
        <time>2021-08-10T11:11:33.830Z</time>
      </trkpt>
      <trkpt lat="46.92721" lon="8.57844">
        <ele>591</ele>
        <time>2021-08-10T11:11:34.830Z</time>
      </trkpt>
      <trkpt lat="46.92722" lon="8.57846">
        <ele>591</ele>
        <time>2021-08-10T11:11:35.831Z</time>
      </trkpt>
      <trkpt lat="46.92723" lon="8.5785">
        <ele>592</ele>
        <time>2021-08-10T11:11:36.832Z</time>
      </trkpt>
      <trkpt lat="46.92723" lon="8.5785">
        <ele>592</ele>
        <time>2021-08-10T11:11:37.832Z</time>
      </trkpt>
      <trkpt lat="46.92723" lon="8.57851">
        <ele>592</ele>
        <time>2021-08-10T11:11:38.831Z</time>
      </trkpt>
      <trkpt lat="46.92722" lon="8.57851">
        <ele>592</ele>
        <time>2021-08-10T11:11:39.832Z</time>
      </trkpt>
      <trkpt lat="46.92722" lon="8.57851">
        <ele>592</ele>
        <time>2021-08-10T11:11:40.831Z</time>
      </trkpt>
      <trkpt lat="46.92721" lon="8.57851">
        <ele>592</ele>
        <time>2021-08-10T11:11:41.831Z</time>
      </trkpt>
      <trkpt lat="46.9272" lon="8.57852">
        <ele>592</ele>
        <time>2021-08-10T11:11:42.831Z</time>
      </trkpt>
      <trkpt lat="46.9272" lon="8.57853">
        <ele>592</ele>
        <time>2021-08-10T11:11:43.832Z</time>
      </trkpt>
      <trkpt lat="46.9272" lon="8.57854">
        <ele>592</ele>
        <time>2021-08-10T11:11:44.832Z</time>
      </trkpt>
      <trkpt lat="46.92719" lon="8.57855">
        <ele>592</ele>
        <time>2021-08-10T11:11:45.832Z</time>
      </trkpt>
      <trkpt lat="46.92719" lon="8.57856">
        <ele>592</ele>
        <time>2021-08-10T11:11:46.832Z</time>
      </trkpt>
      <trkpt lat="46.92719" lon="8.57857">
        <ele>592</ele>
        <time>2021-08-10T11:11:47.832Z</time>
      </trkpt>
      <trkpt lat="46.92719" lon="8.57858">
        <ele>592</ele>
        <time>2021-08-10T11:11:48.831Z</time>
      </trkpt>
      <trkpt lat="46.92719" lon="8.57859">
        <ele>593</ele>
        <time>2021-08-10T11:11:49.832Z</time>
      </trkpt>
      <trkpt lat="46.92719" lon="8.57859">
        <ele>593</ele>
        <time>2021-08-10T11:11:50.832Z</time>
      </trkpt>
      <trkpt lat="46.9272" lon="8.57859">
        <ele>593</ele>
        <time>2021-08-10T11:11:51.832Z</time>
      </trkpt>
      <trkpt lat="46.9272" lon="8.57859">
        <ele>594</ele>
        <time>2021-08-10T11:11:52.832Z</time>
      </trkpt>
      <trkpt lat="46.92721" lon="8.57859">
        <ele>594</ele>
        <time>2021-08-10T11:11:53.832Z</time>
      </trkpt>
      <trkpt lat="46.92721" lon="8.57858">
        <ele>594</ele>
        <time>2021-08-10T11:11:54.831Z</time>
      </trkpt>
      <trkpt lat="46.92721" lon="8.57858">
        <ele>594</ele>
        <time>2021-08-10T11:11:55.832Z</time>
      </trkpt>
      <trkpt lat="46.92721" lon="8.57858">
        <ele>595</ele>
        <time>2021-08-10T11:11:56.832Z</time>
      </trkpt>
      <trkpt lat="46.92721" lon="8.57857">
        <ele>595</ele>
        <time>2021-08-10T11:11:57.832Z</time>
      </trkpt>
      <trkpt lat="46.92719" lon="8.57857">
        <ele>595</ele>
        <time>2021-08-10T11:11:58.832Z</time>
      </trkpt>
      <trkpt lat="46.92717" lon="8.57857">
        <ele>595</ele>
        <time>2021-08-10T11:11:59.831Z</time>
      </trkpt>
      <trkpt lat="46.92716" lon="8.57857">
        <ele>596</ele>
        <time>2021-08-10T11:12:00.832Z</time>
      </trkpt>
      <trkpt lat="46.92715" lon="8.57856">
        <ele>596</ele>
        <time>2021-08-10T11:12:01.832Z</time>
      </trkpt>
      <trkpt lat="46.92714" lon="8.57853">
        <ele>596</ele>
        <time>2021-08-10T11:12:02.832Z</time>
      </trkpt>
      <trkpt lat="46.92715" lon="8.57852">
        <ele>597</ele>
        <time>2021-08-10T11:12:03.832Z</time>
      </trkpt>
      <trkpt lat="46.92712" lon="8.57852">
        <ele>597</ele>
        <time>2021-08-10T11:12:04.832Z</time>
      </trkpt>
      <trkpt lat="46.92709" lon="8.57854">
        <ele>597</ele>
        <time>2021-08-10T11:12:05.831Z</time>
      </trkpt>
      <trkpt lat="46.92705" lon="8.57857">
        <ele>597</ele>
        <time>2021-08-10T11:12:06.832Z</time>
      </trkpt>
      <trkpt lat="46.92704" lon="8.57857">
        <ele>598</ele>
        <time>2021-08-10T11:12:07.831Z</time>
      </trkpt>
      <trkpt lat="46.92704" lon="8.57857">
        <ele>598</ele>
        <time>2021-08-10T11:12:08.832Z</time>
      </trkpt>
      <trkpt lat="46.92705" lon="8.57857">
        <ele>598</ele>
        <time>2021-08-10T11:12:09.831Z</time>
      </trkpt>
      <trkpt lat="46.92704" lon="8.57858">
        <ele>599</ele>
        <time>2021-08-10T11:12:10.832Z</time>
      </trkpt>
      <trkpt lat="46.92703" lon="8.57858">
        <ele>599</ele>
        <time>2021-08-10T11:12:11.832Z</time>
      </trkpt>
      <trkpt lat="46.92704" lon="8.57858">
        <ele>600</ele>
        <time>2021-08-10T11:12:12.832Z</time>
      </trkpt>
      <trkpt lat="46.92704" lon="8.57857">
        <ele>600</ele>
        <time>2021-08-10T11:12:13.831Z</time>
      </trkpt>
      <trkpt lat="46.92704" lon="8.57857">
        <ele>600</ele>
        <time>2021-08-10T11:12:14.832Z</time>
      </trkpt>
      <trkpt lat="46.92704" lon="8.57858">
        <ele>601</ele>
        <time>2021-08-10T11:12:15.831Z</time>
      </trkpt>
      <trkpt lat="46.92705" lon="8.57858">
        <ele>601</ele>
        <time>2021-08-10T11:12:16.831Z</time>
      </trkpt>
      <trkpt lat="46.92706" lon="8.57858">
        <ele>601</ele>
        <time>2021-08-10T11:12:17.832Z</time>
      </trkpt>
      <trkpt lat="46.92706" lon="8.57858">
        <ele>601</ele>
        <time>2021-08-10T11:12:18.831Z</time>
      </trkpt>
      <trkpt lat="46.92706" lon="8.57859">
        <ele>602</ele>
        <time>2021-08-10T11:12:19.831Z</time>
      </trkpt>
      <trkpt lat="46.92707" lon="8.57858">
        <ele>602</ele>
        <time>2021-08-10T11:12:20.832Z</time>
      </trkpt>
      <trkpt lat="46.92708" lon="8.57858">
        <ele>602</ele>
        <time>2021-08-10T11:12:21.832Z</time>
      </trkpt>
      <trkpt lat="46.92708" lon="8.57857">
        <ele>602</ele>
        <time>2021-08-10T11:12:22.832Z</time>
      </trkpt>
      <trkpt lat="46.92708" lon="8.57857">
        <ele>602</ele>
        <time>2021-08-10T11:12:23.831Z</time>
      </trkpt>
      <trkpt lat="46.92707" lon="8.57857">
        <ele>603</ele>
        <time>2021-08-10T11:12:24.832Z</time>
      </trkpt>
      <trkpt lat="46.92706" lon="8.57857">
        <ele>603</ele>
        <time>2021-08-10T11:12:25.832Z</time>
      </trkpt>
      <trkpt lat="46.92706" lon="8.57857">
        <ele>604</ele>
        <time>2021-08-10T11:12:26.832Z</time>
      </trkpt>
      <trkpt lat="46.92705" lon="8.57858">
        <ele>604</ele>
        <time>2021-08-10T11:12:27.832Z</time>
      </trkpt>
      <trkpt lat="46.92706" lon="8.57859">
        <ele>606</ele>
        <time>2021-08-10T11:12:28.833Z</time>
      </trkpt>
      <trkpt lat="46.92706" lon="8.5786">
        <ele>606</ele>
        <time>2021-08-10T11:12:29.832Z</time>
      </trkpt>
      <trkpt lat="46.92707" lon="8.57861">
        <ele>606</ele>
        <time>2021-08-10T11:12:30.832Z</time>
      </trkpt>
      <trkpt lat="46.92707" lon="8.57863">
        <ele>607</ele>
        <time>2021-08-10T11:12:31.832Z</time>
      </trkpt>
      <trkpt lat="46.92706" lon="8.57864">
        <ele>607</ele>
        <time>2021-08-10T11:12:32.833Z</time>
      </trkpt>
      <trkpt lat="46.92704" lon="8.57866">
        <ele>607</ele>
        <time>2021-08-10T11:12:33.833Z</time>
      </trkpt>
      <trkpt lat="46.92702" lon="8.57867">
        <ele>607</ele>
        <time>2021-08-10T11:12:34.833Z</time>
      </trkpt>
      <trkpt lat="46.92702" lon="8.57867">
        <ele>607</ele>
        <time>2021-08-10T11:12:35.832Z</time>
      </trkpt>
      <trkpt lat="46.92703" lon="8.57867">
        <ele>607</ele>
        <time>2021-08-10T11:12:36.833Z</time>
      </trkpt>
      <trkpt lat="46.92703" lon="8.57867">
        <ele>607</ele>
        <time>2021-08-10T11:12:37.833Z</time>
      </trkpt>
      <trkpt lat="46.92702" lon="8.57867">
        <ele>607</ele>
        <time>2021-08-10T11:12:38.832Z</time>
      </trkpt>
      <trkpt lat="46.92701" lon="8.57866">
        <ele>607</ele>
        <time>2021-08-10T11:12:39.833Z</time>
      </trkpt>
      <trkpt lat="46.92701" lon="8.57866">
        <ele>607</ele>
        <time>2021-08-10T11:12:40.833Z</time>
      </trkpt>
      <trkpt lat="46.927" lon="8.57866">
        <ele>607</ele>
        <time>2021-08-10T11:12:41.833Z</time>
      </trkpt>
      <trkpt lat="46.92701" lon="8.57866">
        <ele>607</ele>
        <time>2021-08-10T11:12:42.832Z</time>
      </trkpt>
      <trkpt lat="46.927" lon="8.57866">
        <ele>607</ele>
        <time>2021-08-10T11:12:43.833Z</time>
      </trkpt>
      <trkpt lat="46.92701" lon="8.57867">
        <ele>607</ele>
        <time>2021-08-10T11:12:44.833Z</time>
      </trkpt>
      <trkpt lat="46.92703" lon="8.57867">
        <ele>607</ele>
        <time>2021-08-10T11:12:45.833Z</time>
      </trkpt>
      <trkpt lat="46.92703" lon="8.57867">
        <ele>607</ele>
        <time>2021-08-10T11:12:46.832Z</time>
      </trkpt>
      <trkpt lat="46.92702" lon="8.57868">
        <ele>607</ele>
        <time>2021-08-10T11:12:47.833Z</time>
      </trkpt>
      <trkpt lat="46.92701" lon="8.57869">
        <ele>606</ele>
        <time>2021-08-10T11:12:48.832Z</time>
      </trkpt>
      <trkpt lat="46.927" lon="8.57871">
        <ele>606</ele>
        <time>2021-08-10T11:12:49.833Z</time>
      </trkpt>
      <trkpt lat="46.927" lon="8.57871">
        <ele>606</ele>
        <time>2021-08-10T11:12:50.833Z</time>
      </trkpt>
      <trkpt lat="46.927" lon="8.57871">
        <ele>605</ele>
        <time>2021-08-10T11:12:51.833Z</time>
      </trkpt>
      <trkpt lat="46.92699" lon="8.57871">
        <ele>605</ele>
        <time>2021-08-10T11:12:52.832Z</time>
      </trkpt>
      <trkpt lat="46.92697" lon="8.5787">
        <ele>604</ele>
        <time>2021-08-10T11:12:53.833Z</time>
      </trkpt>
      <trkpt lat="46.92696" lon="8.57869">
        <ele>604</ele>
        <time>2021-08-10T11:12:54.832Z</time>
      </trkpt>
      <trkpt lat="46.92695" lon="8.5787">
        <ele>603</ele>
        <time>2021-08-10T11:12:55.832Z</time>
      </trkpt>
      <trkpt lat="46.92693" lon="8.5787">
        <ele>603</ele>
        <time>2021-08-10T11:12:56.833Z</time>
      </trkpt>
      <trkpt lat="46.92692" lon="8.57869">
        <ele>603</ele>
        <time>2021-08-10T11:12:57.833Z</time>
      </trkpt>
      <trkpt lat="46.92692" lon="8.5787">
        <ele>602</ele>
        <time>2021-08-10T11:12:58.833Z</time>
      </trkpt>
      <trkpt lat="46.92692" lon="8.57871">
        <ele>602</ele>
        <time>2021-08-10T11:12:59.832Z</time>
      </trkpt>
      <trkpt lat="46.92693" lon="8.57872">
        <ele>602</ele>
        <time>2021-08-10T11:13:00.832Z</time>
      </trkpt>
      <trkpt lat="46.92693" lon="8.57874">
        <ele>603</ele>
        <time>2021-08-10T11:13:01.833Z</time>
      </trkpt>
      <trkpt lat="46.92694" lon="8.57876">
        <ele>603</ele>
        <time>2021-08-10T11:13:02.833Z</time>
      </trkpt>
      <trkpt lat="46.92694" lon="8.57879">
        <ele>603</ele>
        <time>2021-08-10T11:13:03.833Z</time>
      </trkpt>
      <trkpt lat="46.92694" lon="8.5788">
        <ele>603</ele>
        <time>2021-08-10T11:13:04.833Z</time>
      </trkpt>
      <trkpt lat="46.92694" lon="8.57881">
        <ele>604</ele>
        <time>2021-08-10T11:13:05.833Z</time>
      </trkpt>
      <trkpt lat="46.92694" lon="8.57882">
        <ele>604</ele>
        <time>2021-08-10T11:13:06.833Z</time>
      </trkpt>
      <trkpt lat="46.92693" lon="8.57883">
        <ele>604</ele>
        <time>2021-08-10T11:13:07.832Z</time>
      </trkpt>
      <trkpt lat="46.92694" lon="8.57884">
        <ele>605</ele>
        <time>2021-08-10T11:13:08.832Z</time>
      </trkpt>
      <trkpt lat="46.92694" lon="8.57886">
        <ele>605</ele>
        <time>2021-08-10T11:13:09.833Z</time>
      </trkpt>
      <trkpt lat="46.92693" lon="8.57886">
        <ele>606</ele>
        <time>2021-08-10T11:13:10.832Z</time>
      </trkpt>
      <trkpt lat="46.92693" lon="8.57885">
        <ele>606</ele>
        <time>2021-08-10T11:13:11.833Z</time>
      </trkpt>
      <trkpt lat="46.92692" lon="8.57886">
        <ele>607</ele>
        <time>2021-08-10T11:13:12.833Z</time>
      </trkpt>
      <trkpt lat="46.92692" lon="8.57886">
        <ele>607</ele>
        <time>2021-08-10T11:13:13.833Z</time>
      </trkpt>
      <trkpt lat="46.92692" lon="8.57885">
        <ele>608</ele>
        <time>2021-08-10T11:13:14.833Z</time>
      </trkpt>
      <trkpt lat="46.92692" lon="8.57886">
        <ele>608</ele>
        <time>2021-08-10T11:13:15.832Z</time>
      </trkpt>
      <trkpt lat="46.92691" lon="8.57886">
        <ele>609</ele>
        <time>2021-08-10T11:13:16.832Z</time>
      </trkpt>
      <trkpt lat="46.92692" lon="8.57888">
        <ele>610</ele>
        <time>2021-08-10T11:13:17.833Z</time>
      </trkpt>
      <trkpt lat="46.92692" lon="8.57889">
        <ele>611</ele>
        <time>2021-08-10T11:13:18.832Z</time>
      </trkpt>
      <trkpt lat="46.92692" lon="8.57891">
        <ele>612</ele>
        <time>2021-08-10T11:13:19.833Z</time>
      </trkpt>
      <trkpt lat="46.92691" lon="8.57893">
        <ele>613</ele>
        <time>2021-08-10T11:13:20.833Z</time>
      </trkpt>
      <trkpt lat="46.9269" lon="8.57894">
        <ele>614</ele>
        <time>2021-08-10T11:13:21.833Z</time>
      </trkpt>
      <trkpt lat="46.92689" lon="8.57895">
        <ele>615</ele>
        <time>2021-08-10T11:13:22.833Z</time>
      </trkpt>
      <trkpt lat="46.92688" lon="8.57896">
        <ele>616</ele>
        <time>2021-08-10T11:13:23.833Z</time>
      </trkpt>
      <trkpt lat="46.92687" lon="8.57897">
        <ele>617</ele>
        <time>2021-08-10T11:13:24.832Z</time>
      </trkpt>
      <trkpt lat="46.92687" lon="8.57897">
        <ele>617</ele>
        <time>2021-08-10T11:13:25.833Z</time>
      </trkpt>
      <trkpt lat="46.92686" lon="8.57898">
        <ele>618</ele>
        <time>2021-08-10T11:13:26.832Z</time>
      </trkpt>
      <trkpt lat="46.92686" lon="8.57898">
        <ele>619</ele>
        <time>2021-08-10T11:13:27.832Z</time>
      </trkpt>
      <trkpt lat="46.92685" lon="8.57897">
        <ele>619</ele>
        <time>2021-08-10T11:13:28.833Z</time>
      </trkpt>
      <trkpt lat="46.92684" lon="8.57896">
        <ele>619</ele>
        <time>2021-08-10T11:13:29.833Z</time>
      </trkpt>
      <trkpt lat="46.92683" lon="8.57896">
        <ele>620</ele>
        <time>2021-08-10T11:13:30.833Z</time>
      </trkpt>
      <trkpt lat="46.92683" lon="8.57895">
        <ele>620</ele>
        <time>2021-08-10T11:13:31.833Z</time>
      </trkpt>
      <trkpt lat="46.92683" lon="8.57895">
        <ele>620</ele>
        <time>2021-08-10T11:13:32.832Z</time>
      </trkpt>
      <trkpt lat="46.92683" lon="8.57895">
        <ele>621</ele>
        <time>2021-08-10T11:13:33.833Z</time>
      </trkpt>
      <trkpt lat="46.92682" lon="8.57896">
        <ele>621</ele>
        <time>2021-08-10T11:13:34.832Z</time>
      </trkpt>
      <trkpt lat="46.92681" lon="8.57896">
        <ele>621</ele>
        <time>2021-08-10T11:13:35.833Z</time>
      </trkpt>
      <trkpt lat="46.9268" lon="8.57897">
        <ele>622</ele>
        <time>2021-08-10T11:13:36.833Z</time>
      </trkpt>
      <trkpt lat="46.92679" lon="8.57897">
        <ele>622</ele>
        <time>2021-08-10T11:13:37.833Z</time>
      </trkpt>
      <trkpt lat="46.92679" lon="8.57897">
        <ele>622</ele>
        <time>2021-08-10T11:13:38.833Z</time>
      </trkpt>
      <trkpt lat="46.92679" lon="8.57898">
        <ele>622</ele>
        <time>2021-08-10T11:13:39.833Z</time>
      </trkpt>
      <trkpt lat="46.92679" lon="8.57898">
        <ele>622</ele>
        <time>2021-08-10T11:13:40.833Z</time>
      </trkpt>
      <trkpt lat="46.9268" lon="8.57898">
        <ele>623</ele>
        <time>2021-08-10T11:13:41.832Z</time>
      </trkpt>
      <trkpt lat="46.92682" lon="8.579">
        <ele>623</ele>
        <time>2021-08-10T11:13:42.832Z</time>
      </trkpt>
      <trkpt lat="46.92683" lon="8.57902">
        <ele>623</ele>
        <time>2021-08-10T11:13:43.833Z</time>
      </trkpt>
      <trkpt lat="46.92684" lon="8.57904">
        <ele>623</ele>
        <time>2021-08-10T11:13:44.833Z</time>
      </trkpt>
      <trkpt lat="46.92684" lon="8.57905">
        <ele>623</ele>
        <time>2021-08-10T11:13:45.832Z</time>
      </trkpt>
      <trkpt lat="46.92685" lon="8.57907">
        <ele>623</ele>
        <time>2021-08-10T11:13:46.833Z</time>
      </trkpt>
      <trkpt lat="46.92685" lon="8.57909">
        <ele>623</ele>
        <time>2021-08-10T11:13:47.833Z</time>
      </trkpt>
      <trkpt lat="46.92684" lon="8.57912">
        <ele>623</ele>
        <time>2021-08-10T11:13:48.833Z</time>
      </trkpt>
      <trkpt lat="46.92684" lon="8.57914">
        <ele>623</ele>
        <time>2021-08-10T11:13:49.833Z</time>
      </trkpt>
      <trkpt lat="46.92682" lon="8.57913">
        <ele>622</ele>
        <time>2021-08-10T11:13:50.833Z</time>
      </trkpt>
      <trkpt lat="46.92681" lon="8.57912">
        <ele>622</ele>
        <time>2021-08-10T11:13:51.833Z</time>
      </trkpt>
      <trkpt lat="46.9268" lon="8.57917">
        <ele>622</ele>
        <time>2021-08-10T11:13:52.833Z</time>
      </trkpt>
      <trkpt lat="46.92679" lon="8.57921">
        <ele>622</ele>
        <time>2021-08-10T11:13:53.833Z</time>
      </trkpt>
      <trkpt lat="46.92679" lon="8.57925">
        <ele>622</ele>
        <time>2021-08-10T11:13:54.833Z</time>
      </trkpt>
      <trkpt lat="46.92681" lon="8.57928">
        <ele>622</ele>
        <time>2021-08-10T11:13:55.833Z</time>
      </trkpt>
      <trkpt lat="46.92682" lon="8.5793">
        <ele>623</ele>
        <time>2021-08-10T11:13:56.833Z</time>
      </trkpt>
      <trkpt lat="46.92684" lon="8.57932">
        <ele>623</ele>
        <time>2021-08-10T11:13:57.833Z</time>
      </trkpt>
      <trkpt lat="46.92684" lon="8.57932">
        <ele>624</ele>
        <time>2021-08-10T11:13:58.833Z</time>
      </trkpt>
      <trkpt lat="46.92684" lon="8.57933">
        <ele>624</ele>
        <time>2021-08-10T11:13:59.833Z</time>
      </trkpt>
      <trkpt lat="46.92684" lon="8.57933">
        <ele>624</ele>
        <time>2021-08-10T11:14:00.833Z</time>
      </trkpt>
      <trkpt lat="46.92685" lon="8.57933">
        <ele>625</ele>
        <time>2021-08-10T11:14:01.832Z</time>
      </trkpt>
      <trkpt lat="46.92686" lon="8.57934">
        <ele>625</ele>
        <time>2021-08-10T11:14:02.833Z</time>
      </trkpt>
      <trkpt lat="46.92685" lon="8.57935">
        <ele>625</ele>
        <time>2021-08-10T11:14:03.833Z</time>
      </trkpt>
      <trkpt lat="46.92684" lon="8.57936">
        <ele>625</ele>
        <time>2021-08-10T11:14:04.833Z</time>
      </trkpt>
      <trkpt lat="46.92683" lon="8.57936">
        <ele>625</ele>
        <time>2021-08-10T11:14:05.832Z</time>
      </trkpt>
      <trkpt lat="46.92682" lon="8.57935">
        <ele>625</ele>
        <time>2021-08-10T11:14:06.832Z</time>
      </trkpt>
      <trkpt lat="46.92682" lon="8.57935">
        <ele>625</ele>
        <time>2021-08-10T11:14:07.833Z</time>
      </trkpt>
      <trkpt lat="46.9268" lon="8.57935">
        <ele>625</ele>
        <time>2021-08-10T11:14:08.832Z</time>
      </trkpt>
      <trkpt lat="46.92679" lon="8.57935">
        <ele>625</ele>
        <time>2021-08-10T11:14:09.832Z</time>
      </trkpt>
      <trkpt lat="46.92679" lon="8.57935">
        <ele>625</ele>
        <time>2021-08-10T11:14:10.833Z</time>
      </trkpt>
      <trkpt lat="46.92678" lon="8.57935">
        <ele>625</ele>
        <time>2021-08-10T11:14:11.832Z</time>
      </trkpt>
      <trkpt lat="46.92676" lon="8.57936">
        <ele>625</ele>
        <time>2021-08-10T11:14:12.832Z</time>
      </trkpt>
      <trkpt lat="46.92675" lon="8.57937">
        <ele>625</ele>
        <time>2021-08-10T11:14:13.832Z</time>
      </trkpt>
      <trkpt lat="46.92676" lon="8.57938">
        <ele>624</ele>
        <time>2021-08-10T11:14:14.832Z</time>
      </trkpt>
      <trkpt lat="46.92676" lon="8.57939">
        <ele>624</ele>
        <time>2021-08-10T11:14:15.833Z</time>
      </trkpt>
      <trkpt lat="46.92677" lon="8.57938">
        <ele>624</ele>
        <time>2021-08-10T11:14:16.833Z</time>
      </trkpt>
      <trkpt lat="46.92678" lon="8.57938">
        <ele>624</ele>
        <time>2021-08-10T11:14:17.833Z</time>
      </trkpt>
      <trkpt lat="46.92678" lon="8.57938">
        <ele>624</ele>
        <time>2021-08-10T11:14:18.832Z</time>
      </trkpt>
      <trkpt lat="46.92676" lon="8.57938">
        <ele>624</ele>
        <time>2021-08-10T11:14:19.833Z</time>
      </trkpt>
      <trkpt lat="46.92675" lon="8.57938">
        <ele>624</ele>
        <time>2021-08-10T11:14:20.833Z</time>
      </trkpt>
      <trkpt lat="46.92675" lon="8.57939">
        <ele>624</ele>
        <time>2021-08-10T11:14:21.833Z</time>
      </trkpt>
      <trkpt lat="46.92675" lon="8.57939">
        <ele>624</ele>
        <time>2021-08-10T11:14:22.832Z</time>
      </trkpt>
      <trkpt lat="46.92674" lon="8.57939">
        <ele>624</ele>
        <time>2021-08-10T11:14:23.832Z</time>
      </trkpt>
      <trkpt lat="46.92673" lon="8.57938">
        <ele>625</ele>
        <time>2021-08-10T11:14:24.832Z</time>
      </trkpt>
      <trkpt lat="46.92672" lon="8.57937">
        <ele>625</ele>
        <time>2021-08-10T11:14:25.833Z</time>
      </trkpt>
      <trkpt lat="46.92673" lon="8.57936">
        <ele>625</ele>
        <time>2021-08-10T11:14:26.833Z</time>
      </trkpt>
      <trkpt lat="46.92673" lon="8.57935">
        <ele>625</ele>
        <time>2021-08-10T11:14:27.832Z</time>
      </trkpt>
      <trkpt lat="46.92674" lon="8.57935">
        <ele>625</ele>
        <time>2021-08-10T11:14:28.832Z</time>
      </trkpt>
      <trkpt lat="46.92676" lon="8.57936">
        <ele>625</ele>
        <time>2021-08-10T11:14:29.833Z</time>
      </trkpt>
      <trkpt lat="46.92677" lon="8.57936">
        <ele>625</ele>
        <time>2021-08-10T11:14:30.832Z</time>
      </trkpt>
      <trkpt lat="46.92678" lon="8.57935">
        <ele>625</ele>
        <time>2021-08-10T11:14:31.833Z</time>
      </trkpt>
      <trkpt lat="46.92679" lon="8.57935">
        <ele>625</ele>
        <time>2021-08-10T11:14:32.833Z</time>
      </trkpt>
      <trkpt lat="46.9268" lon="8.57934">
        <ele>624</ele>
        <time>2021-08-10T11:14:33.832Z</time>
      </trkpt>
      <trkpt lat="46.9268" lon="8.57933">
        <ele>624</ele>
        <time>2021-08-10T11:14:34.832Z</time>
      </trkpt>
      <trkpt lat="46.92681" lon="8.57932">
        <ele>624</ele>
        <time>2021-08-10T11:14:35.832Z</time>
      </trkpt>
      <trkpt lat="46.92681" lon="8.57931">
        <ele>624</ele>
        <time>2021-08-10T11:14:36.833Z</time>
      </trkpt>
      <trkpt lat="46.92681" lon="8.57931">
        <ele>624</ele>
        <time>2021-08-10T11:14:37.833Z</time>
      </trkpt>
      <trkpt lat="46.92681" lon="8.5793">
        <ele>623</ele>
        <time>2021-08-10T11:14:38.832Z</time>
      </trkpt>
      <trkpt lat="46.92681" lon="8.57929">
        <ele>623</ele>
        <time>2021-08-10T11:14:39.833Z</time>
      </trkpt>
      <trkpt lat="46.92681" lon="8.57928">
        <ele>623</ele>
        <time>2021-08-10T11:14:40.832Z</time>
      </trkpt>
      <trkpt lat="46.92681" lon="8.57927">
        <ele>622</ele>
        <time>2021-08-10T11:14:41.833Z</time>
      </trkpt>
      <trkpt lat="46.9268" lon="8.57924">
        <ele>622</ele>
        <time>2021-08-10T11:14:42.832Z</time>
      </trkpt>
      <trkpt lat="46.9268" lon="8.57923">
        <ele>622</ele>
        <time>2021-08-10T11:14:43.833Z</time>
      </trkpt>
      <trkpt lat="46.9268" lon="8.57924">
        <ele>622</ele>
        <time>2021-08-10T11:14:44.832Z</time>
      </trkpt>
      <trkpt lat="46.92679" lon="8.57924">
        <ele>622</ele>
        <time>2021-08-10T11:14:45.832Z</time>
      </trkpt>
      <trkpt lat="46.92679" lon="8.57923">
        <ele>621</ele>
        <time>2021-08-10T11:14:46.833Z</time>
      </trkpt>
      <trkpt lat="46.92678" lon="8.57923">
        <ele>621</ele>
        <time>2021-08-10T11:14:47.833Z</time>
      </trkpt>
      <trkpt lat="46.92677" lon="8.57924">
        <ele>621</ele>
        <time>2021-08-10T11:14:48.833Z</time>
      </trkpt>
      <trkpt lat="46.92677" lon="8.57925">
        <ele>621</ele>
        <time>2021-08-10T11:14:49.833Z</time>
      </trkpt>
      <trkpt lat="46.92676" lon="8.57926">
        <ele>621</ele>
        <time>2021-08-10T11:14:50.832Z</time>
      </trkpt>
      <trkpt lat="46.92674" lon="8.57927">
        <ele>621</ele>
        <time>2021-08-10T11:14:51.833Z</time>
      </trkpt>
      <trkpt lat="46.92672" lon="8.57927">
        <ele>621</ele>
        <time>2021-08-10T11:14:52.832Z</time>
      </trkpt>
      <trkpt lat="46.92669" lon="8.57928">
        <ele>621</ele>
        <time>2021-08-10T11:14:53.833Z</time>
      </trkpt>
      <trkpt lat="46.92667" lon="8.57931">
        <ele>621</ele>
        <time>2021-08-10T11:14:54.833Z</time>
      </trkpt>
      <trkpt lat="46.92667" lon="8.57933">
        <ele>621</ele>
        <time>2021-08-10T11:14:55.833Z</time>
      </trkpt>
      <trkpt lat="46.92668" lon="8.57934">
        <ele>621</ele>
        <time>2021-08-10T11:14:56.832Z</time>
      </trkpt>
      <trkpt lat="46.92667" lon="8.57934">
        <ele>621</ele>
        <time>2021-08-10T11:14:57.833Z</time>
      </trkpt>
      <trkpt lat="46.92668" lon="8.57934">
        <ele>621</ele>
        <time>2021-08-10T11:14:58.832Z</time>
      </trkpt>
      <trkpt lat="46.92668" lon="8.57933">
        <ele>621</ele>
        <time>2021-08-10T11:14:59.833Z</time>
      </trkpt>
      <trkpt lat="46.92668" lon="8.57933">
        <ele>621</ele>
        <time>2021-08-10T11:15:00.833Z</time>
      </trkpt>
      <trkpt lat="46.92667" lon="8.57933">
        <ele>621</ele>
        <time>2021-08-10T11:15:01.832Z</time>
      </trkpt>
      <trkpt lat="46.92667" lon="8.57934">
        <ele>621</ele>
        <time>2021-08-10T11:15:02.832Z</time>
      </trkpt>
      <trkpt lat="46.92666" lon="8.57934">
        <ele>621</ele>
        <time>2021-08-10T11:15:03.833Z</time>
      </trkpt>
      <trkpt lat="46.92666" lon="8.57934">
        <ele>621</ele>
        <time>2021-08-10T11:15:04.832Z</time>
      </trkpt>
      <trkpt lat="46.92665" lon="8.57934">
        <ele>621</ele>
        <time>2021-08-10T11:15:05.833Z</time>
      </trkpt>
      <trkpt lat="46.92665" lon="8.57934">
        <ele>621</ele>
        <time>2021-08-10T11:15:06.833Z</time>
      </trkpt>
      <trkpt lat="46.92666" lon="8.57934">
        <ele>621</ele>
        <time>2021-08-10T11:15:07.833Z</time>
      </trkpt>
      <trkpt lat="46.92665" lon="8.57934">
        <ele>621</ele>
        <time>2021-08-10T11:15:08.832Z</time>
      </trkpt>
      <trkpt lat="46.92665" lon="8.57935">
        <ele>620</ele>
        <time>2021-08-10T11:15:09.832Z</time>
      </trkpt>
      <trkpt lat="46.92665" lon="8.57935">
        <ele>620</ele>
        <time>2021-08-10T11:15:10.833Z</time>
      </trkpt>
      <trkpt lat="46.92665" lon="8.57936">
        <ele>620</ele>
        <time>2021-08-10T11:15:11.833Z</time>
      </trkpt>
      <trkpt lat="46.92665" lon="8.57936">
        <ele>620</ele>
        <time>2021-08-10T11:15:12.832Z</time>
      </trkpt>
      <trkpt lat="46.92665" lon="8.57937">
        <ele>620</ele>
        <time>2021-08-10T11:15:13.833Z</time>
      </trkpt>
      <trkpt lat="46.92664" lon="8.57938">
        <ele>620</ele>
        <time>2021-08-10T11:15:14.833Z</time>
      </trkpt>
      <trkpt lat="46.92664" lon="8.57939">
        <ele>620</ele>
        <time>2021-08-10T11:15:15.833Z</time>
      </trkpt>
      <trkpt lat="46.92665" lon="8.57939">
        <ele>619</ele>
        <time>2021-08-10T11:15:16.832Z</time>
      </trkpt>
      <trkpt lat="46.92666" lon="8.57939">
        <ele>620</ele>
        <time>2021-08-10T11:15:17.833Z</time>
      </trkpt>
      <trkpt lat="46.92667" lon="8.57939">
        <ele>620</ele>
        <time>2021-08-10T11:15:18.833Z</time>
      </trkpt>
      <trkpt lat="46.92667" lon="8.57939">
        <ele>620</ele>
        <time>2021-08-10T11:15:19.833Z</time>
      </trkpt>
      <trkpt lat="46.92667" lon="8.57937">
        <ele>620</ele>
        <time>2021-08-10T11:15:20.832Z</time>
      </trkpt>
      <trkpt lat="46.92667" lon="8.57937">
        <ele>620</ele>
        <time>2021-08-10T11:15:21.833Z</time>
      </trkpt>
      <trkpt lat="46.92666" lon="8.57937">
        <ele>620</ele>
        <time>2021-08-10T11:15:22.833Z</time>
      </trkpt>
      <trkpt lat="46.92666" lon="8.57938">
        <ele>619</ele>
        <time>2021-08-10T11:15:23.833Z</time>
      </trkpt>
      <trkpt lat="46.92666" lon="8.5794">
        <ele>619</ele>
        <time>2021-08-10T11:15:24.833Z</time>
      </trkpt>
      <trkpt lat="46.92666" lon="8.57941">
        <ele>619</ele>
        <time>2021-08-10T11:15:25.832Z</time>
      </trkpt>
      <trkpt lat="46.92667" lon="8.5794">
        <ele>619</ele>
        <time>2021-08-10T11:15:26.833Z</time>
      </trkpt>
      <trkpt lat="46.92669" lon="8.57941">
        <ele>619</ele>
        <time>2021-08-10T11:15:27.832Z</time>
      </trkpt>
      <trkpt lat="46.92671" lon="8.57941">
        <ele>618</ele>
        <time>2021-08-10T11:15:28.832Z</time>
      </trkpt>
      <trkpt lat="46.92672" lon="8.57941">
        <ele>618</ele>
        <time>2021-08-10T11:15:29.833Z</time>
      </trkpt>
      <trkpt lat="46.92673" lon="8.5794">
        <ele>618</ele>
        <time>2021-08-10T11:15:30.832Z</time>
      </trkpt>
      <trkpt lat="46.92673" lon="8.5794">
        <ele>618</ele>
        <time>2021-08-10T11:15:31.832Z</time>
      </trkpt>
      <trkpt lat="46.9267" lon="8.57941">
        <ele>618</ele>
        <time>2021-08-10T11:15:32.832Z</time>
      </trkpt>
      <trkpt lat="46.92667" lon="8.5794">
        <ele>618</ele>
        <time>2021-08-10T11:15:33.833Z</time>
      </trkpt>
      <trkpt lat="46.92664" lon="8.57941">
        <ele>618</ele>
        <time>2021-08-10T11:15:34.833Z</time>
      </trkpt>
      <trkpt lat="46.9266" lon="8.57942">
        <ele>618</ele>
        <time>2021-08-10T11:15:35.832Z</time>
      </trkpt>
      <trkpt lat="46.92659" lon="8.57942">
        <ele>618</ele>
        <time>2021-08-10T11:15:36.833Z</time>
      </trkpt>
      <trkpt lat="46.92657" lon="8.57943">
        <ele>618</ele>
        <time>2021-08-10T11:15:37.833Z</time>
      </trkpt>
      <trkpt lat="46.92658" lon="8.57943">
        <ele>618</ele>
        <time>2021-08-10T11:15:38.832Z</time>
      </trkpt>
      <trkpt lat="46.92657" lon="8.57943">
        <ele>618</ele>
        <time>2021-08-10T11:15:39.832Z</time>
      </trkpt>
      <trkpt lat="46.92658" lon="8.57942">
        <ele>618</ele>
        <time>2021-08-10T11:15:40.832Z</time>
      </trkpt>
      <trkpt lat="46.92659" lon="8.57941">
        <ele>618</ele>
        <time>2021-08-10T11:15:41.832Z</time>
      </trkpt>
      <trkpt lat="46.9266" lon="8.57941">
        <ele>618</ele>
        <time>2021-08-10T11:15:42.833Z</time>
      </trkpt>
      <trkpt lat="46.9266" lon="8.57943">
        <ele>618</ele>
        <time>2021-08-10T11:15:43.832Z</time>
      </trkpt>
      <trkpt lat="46.92659" lon="8.57943">
        <ele>619</ele>
        <time>2021-08-10T11:15:44.833Z</time>
      </trkpt>
      <trkpt lat="46.92659" lon="8.57944">
        <ele>619</ele>
        <time>2021-08-10T11:15:45.833Z</time>
      </trkpt>
      <trkpt lat="46.92658" lon="8.57945">
        <ele>619</ele>
        <time>2021-08-10T11:15:46.832Z</time>
      </trkpt>
      <trkpt lat="46.92657" lon="8.57945">
        <ele>620</ele>
        <time>2021-08-10T11:15:47.833Z</time>
      </trkpt>
      <trkpt lat="46.92657" lon="8.57945">
        <ele>620</ele>
        <time>2021-08-10T11:15:48.833Z</time>
      </trkpt>
      <trkpt lat="46.92656" lon="8.57945">
        <ele>620</ele>
        <time>2021-08-10T11:15:49.833Z</time>
      </trkpt>
      <trkpt lat="46.92658" lon="8.57943">
        <ele>620</ele>
        <time>2021-08-10T11:15:50.832Z</time>
      </trkpt>
      <trkpt lat="46.92658" lon="8.57942">
        <ele>620</ele>
        <time>2021-08-10T11:15:51.833Z</time>
      </trkpt>
      <trkpt lat="46.92658" lon="8.57942">
        <ele>620</ele>
        <time>2021-08-10T11:15:52.833Z</time>
      </trkpt>
      <trkpt lat="46.92658" lon="8.57942">
        <ele>621</ele>
        <time>2021-08-10T11:15:53.833Z</time>
      </trkpt>
      <trkpt lat="46.9266" lon="8.57941">
        <ele>621</ele>
        <time>2021-08-10T11:15:54.833Z</time>
      </trkpt>
      <trkpt lat="46.92661" lon="8.57941">
        <ele>621</ele>
        <time>2021-08-10T11:15:55.833Z</time>
      </trkpt>
      <trkpt lat="46.92663" lon="8.5794">
        <ele>621</ele>
        <time>2021-08-10T11:15:56.832Z</time>
      </trkpt>
      <trkpt lat="46.92664" lon="8.57939">
        <ele>621</ele>
        <time>2021-08-10T11:15:57.833Z</time>
      </trkpt>
      <trkpt lat="46.92663" lon="8.5794">
        <ele>621</ele>
        <time>2021-08-10T11:15:58.833Z</time>
      </trkpt>
      <trkpt lat="46.92663" lon="8.5794">
        <ele>621</ele>
        <time>2021-08-10T11:15:59.833Z</time>
      </trkpt>
      <trkpt lat="46.92662" lon="8.5794">
        <ele>622</ele>
        <time>2021-08-10T11:16:00.833Z</time>
      </trkpt>
      <trkpt lat="46.92661" lon="8.5794">
        <ele>622</ele>
        <time>2021-08-10T11:16:01.832Z</time>
      </trkpt>
      <trkpt lat="46.92659" lon="8.57939">
        <ele>622</ele>
        <time>2021-08-10T11:16:02.832Z</time>
      </trkpt>
      <trkpt lat="46.92659" lon="8.57942">
        <ele>622</ele>
        <time>2021-08-10T11:16:03.832Z</time>
      </trkpt>
      <trkpt lat="46.92658" lon="8.57945">
        <ele>622</ele>
        <time>2021-08-10T11:16:04.832Z</time>
      </trkpt>
      <trkpt lat="46.92657" lon="8.57948">
        <ele>622</ele>
        <time>2021-08-10T11:16:05.833Z</time>
      </trkpt>
      <trkpt lat="46.92657" lon="8.5795">
        <ele>623</ele>
        <time>2021-08-10T11:16:06.832Z</time>
      </trkpt>
      <trkpt lat="46.92656" lon="8.57951">
        <ele>623</ele>
        <time>2021-08-10T11:16:07.832Z</time>
      </trkpt>
      <trkpt lat="46.92655" lon="8.57953">
        <ele>624</ele>
        <time>2021-08-10T11:16:08.832Z</time>
      </trkpt>
      <trkpt lat="46.92655" lon="8.57954">
        <ele>625</ele>
        <time>2021-08-10T11:16:09.832Z</time>
      </trkpt>
      <trkpt lat="46.92654" lon="8.57956">
        <ele>626</ele>
        <time>2021-08-10T11:16:10.832Z</time>
      </trkpt>
      <trkpt lat="46.92654" lon="8.57958">
        <ele>627</ele>
        <time>2021-08-10T11:16:11.833Z</time>
      </trkpt>
      <trkpt lat="46.92653" lon="8.5796">
        <ele>627</ele>
        <time>2021-08-10T11:16:12.832Z</time>
      </trkpt>
      <trkpt lat="46.92653" lon="8.57961">
        <ele>628</ele>
        <time>2021-08-10T11:16:13.833Z</time>
      </trkpt>
      <trkpt lat="46.92652" lon="8.57961">
        <ele>628</ele>
        <time>2021-08-10T11:16:14.833Z</time>
      </trkpt>
      <trkpt lat="46.92651" lon="8.57961">
        <ele>629</ele>
        <time>2021-08-10T11:16:15.833Z</time>
      </trkpt>
      <trkpt lat="46.9265" lon="8.57961">
        <ele>630</ele>
        <time>2021-08-10T11:16:16.833Z</time>
      </trkpt>
      <trkpt lat="46.92648" lon="8.57961">
        <ele>630</ele>
        <time>2021-08-10T11:16:17.832Z</time>
      </trkpt>
      <trkpt lat="46.92647" lon="8.57962">
        <ele>631</ele>
        <time>2021-08-10T11:16:18.832Z</time>
      </trkpt>
      <trkpt lat="46.92646" lon="8.57963">
        <ele>632</ele>
        <time>2021-08-10T11:16:19.833Z</time>
      </trkpt>
      <trkpt lat="46.92647" lon="8.57962">
        <ele>634</ele>
        <time>2021-08-10T11:16:20.832Z</time>
      </trkpt>
      <trkpt lat="46.92647" lon="8.57962">
        <ele>635</ele>
        <time>2021-08-10T11:16:21.833Z</time>
      </trkpt>
      <trkpt lat="46.92647" lon="8.57962">
        <ele>636</ele>
        <time>2021-08-10T11:16:22.833Z</time>
      </trkpt>
      <trkpt lat="46.92647" lon="8.57962">
        <ele>637</ele>
        <time>2021-08-10T11:16:23.832Z</time>
      </trkpt>
      <trkpt lat="46.92642" lon="8.57955">
        <ele>638</ele>
        <time>2021-08-10T11:16:27.833Z</time>
      </trkpt>
      <trkpt lat="46.92641" lon="8.57956">
        <ele>638</ele>
        <time>2021-08-10T11:16:28.833Z</time>
      </trkpt>
      <trkpt lat="46.92641" lon="8.57955">
        <ele>639</ele>
        <time>2021-08-10T11:16:29.832Z</time>
      </trkpt>
      <trkpt lat="46.92641" lon="8.57955">
        <ele>640</ele>
        <time>2021-08-10T11:16:30.832Z</time>
      </trkpt>
      <trkpt lat="46.92641" lon="8.57954">
        <ele>641</ele>
        <time>2021-08-10T11:16:31.833Z</time>
      </trkpt>
      <trkpt lat="46.92641" lon="8.57954">
        <ele>641</ele>
        <time>2021-08-10T11:16:32.832Z</time>
      </trkpt>
      <trkpt lat="46.92641" lon="8.57953">
        <ele>642</ele>
        <time>2021-08-10T11:16:33.832Z</time>
      </trkpt>
      <trkpt lat="46.92641" lon="8.57954">
        <ele>642</ele>
        <time>2021-08-10T11:16:34.833Z</time>
      </trkpt>
      <trkpt lat="46.9264" lon="8.57955">
        <ele>643</ele>
        <time>2021-08-10T11:16:35.833Z</time>
      </trkpt>
      <trkpt lat="46.9264" lon="8.57955">
        <ele>643</ele>
        <time>2021-08-10T11:16:36.833Z</time>
      </trkpt>
      <trkpt lat="46.92639" lon="8.57955">
        <ele>644</ele>
        <time>2021-08-10T11:16:37.832Z</time>
      </trkpt>
      <trkpt lat="46.92638" lon="8.57954">
        <ele>644</ele>
        <time>2021-08-10T11:16:38.833Z</time>
      </trkpt>
      <trkpt lat="46.92638" lon="8.57954">
        <ele>644</ele>
        <time>2021-08-10T11:16:39.833Z</time>
      </trkpt>
      <trkpt lat="46.92637" lon="8.57954">
        <ele>645</ele>
        <time>2021-08-10T11:16:40.833Z</time>
      </trkpt>
      <trkpt lat="46.92637" lon="8.57954">
        <ele>645</ele>
        <time>2021-08-10T11:16:41.833Z</time>
      </trkpt>
      <trkpt lat="46.92637" lon="8.57954">
        <ele>645</ele>
        <time>2021-08-10T11:16:42.832Z</time>
      </trkpt>
      <trkpt lat="46.92636" lon="8.57953">
        <ele>645</ele>
        <time>2021-08-10T11:16:43.833Z</time>
      </trkpt>
      <trkpt lat="46.92635" lon="8.57953">
        <ele>645</ele>
        <time>2021-08-10T11:16:44.832Z</time>
      </trkpt>
      <trkpt lat="46.92634" lon="8.57953">
        <ele>646</ele>
        <time>2021-08-10T11:16:45.833Z</time>
      </trkpt>
      <trkpt lat="46.92633" lon="8.57953">
        <ele>646</ele>
        <time>2021-08-10T11:16:46.833Z</time>
      </trkpt>
      <trkpt lat="46.92631" lon="8.57954">
        <ele>646</ele>
        <time>2021-08-10T11:16:47.832Z</time>
      </trkpt>
      <trkpt lat="46.9263" lon="8.57953">
        <ele>646</ele>
        <time>2021-08-10T11:16:48.833Z</time>
      </trkpt>
      <trkpt lat="46.92629" lon="8.57954">
        <ele>646</ele>
        <time>2021-08-10T11:16:49.832Z</time>
      </trkpt>
      <trkpt lat="46.92628" lon="8.57953">
        <ele>646</ele>
        <time>2021-08-10T11:16:50.833Z</time>
      </trkpt>
      <trkpt lat="46.92628" lon="8.57953">
        <ele>646</ele>
        <time>2021-08-10T11:16:51.832Z</time>
      </trkpt>
      <trkpt lat="46.92627" lon="8.57954">
        <ele>646</ele>
        <time>2021-08-10T11:16:52.833Z</time>
      </trkpt>
      <trkpt lat="46.92627" lon="8.57954">
        <ele>646</ele>
        <time>2021-08-10T11:16:53.833Z</time>
      </trkpt>
      <trkpt lat="46.92626" lon="8.57955">
        <ele>646</ele>
        <time>2021-08-10T11:16:54.833Z</time>
      </trkpt>
      <trkpt lat="46.92625" lon="8.57955">
        <ele>646</ele>
        <time>2021-08-10T11:16:55.833Z</time>
      </trkpt>
      <trkpt lat="46.92624" lon="8.57956">
        <ele>647</ele>
        <time>2021-08-10T11:16:56.833Z</time>
      </trkpt>
      <trkpt lat="46.92623" lon="8.57957">
        <ele>647</ele>
        <time>2021-08-10T11:16:57.833Z</time>
      </trkpt>
      <trkpt lat="46.92621" lon="8.57959">
        <ele>647</ele>
        <time>2021-08-10T11:16:58.833Z</time>
      </trkpt>
      <trkpt lat="46.9262" lon="8.5796">
        <ele>648</ele>
        <time>2021-08-10T11:16:59.833Z</time>
      </trkpt>
      <trkpt lat="46.9262" lon="8.57961">
        <ele>648</ele>
        <time>2021-08-10T11:17:00.833Z</time>
      </trkpt>
      <trkpt lat="46.9262" lon="8.57961">
        <ele>648</ele>
        <time>2021-08-10T11:17:01.832Z</time>
      </trkpt>
      <trkpt lat="46.92619" lon="8.57962">
        <ele>649</ele>
        <time>2021-08-10T11:17:02.832Z</time>
      </trkpt>
      <trkpt lat="46.92617" lon="8.57964">
        <ele>649</ele>
        <time>2021-08-10T11:17:03.832Z</time>
      </trkpt>
      <trkpt lat="46.92616" lon="8.57964">
        <ele>650</ele>
        <time>2021-08-10T11:17:04.832Z</time>
      </trkpt>
      <trkpt lat="46.92615" lon="8.57964">
        <ele>650</ele>
        <time>2021-08-10T11:17:05.832Z</time>
      </trkpt>
      <trkpt lat="46.92614" lon="8.57964">
        <ele>651</ele>
        <time>2021-08-10T11:17:06.832Z</time>
      </trkpt>
      <trkpt lat="46.92614" lon="8.57964">
        <ele>651</ele>
        <time>2021-08-10T11:17:07.833Z</time>
      </trkpt>
      <trkpt lat="46.92613" lon="8.57963">
        <ele>652</ele>
        <time>2021-08-10T11:17:08.832Z</time>
      </trkpt>
      <trkpt lat="46.92613" lon="8.57963">
        <ele>652</ele>
        <time>2021-08-10T11:17:09.832Z</time>
      </trkpt>
      <trkpt lat="46.92613" lon="8.57964">
        <ele>653</ele>
        <time>2021-08-10T11:17:10.832Z</time>
      </trkpt>
      <trkpt lat="46.92612" lon="8.57964">
        <ele>653</ele>
        <time>2021-08-10T11:17:11.832Z</time>
      </trkpt>
      <trkpt lat="46.92611" lon="8.57965">
        <ele>653</ele>
        <time>2021-08-10T11:17:12.832Z</time>
      </trkpt>
      <trkpt lat="46.9261" lon="8.57965">
        <ele>653</ele>
        <time>2021-08-10T11:17:13.833Z</time>
      </trkpt>
      <trkpt lat="46.9261" lon="8.57966">
        <ele>654</ele>
        <time>2021-08-10T11:17:14.832Z</time>
      </trkpt>
      <trkpt lat="46.92609" lon="8.57965">
        <ele>654</ele>
        <time>2021-08-10T11:17:15.833Z</time>
      </trkpt>
      <trkpt lat="46.92609" lon="8.57965">
        <ele>654</ele>
        <time>2021-08-10T11:17:16.833Z</time>
      </trkpt>
      <trkpt lat="46.92608" lon="8.57966">
        <ele>654</ele>
        <time>2021-08-10T11:17:17.833Z</time>
      </trkpt>
      <trkpt lat="46.92607" lon="8.57966">
        <ele>655</ele>
        <time>2021-08-10T11:17:18.833Z</time>
      </trkpt>
      <trkpt lat="46.92607" lon="8.57966">
        <ele>655</ele>
        <time>2021-08-10T11:17:19.833Z</time>
      </trkpt>
      <trkpt lat="46.92606" lon="8.57967">
        <ele>655</ele>
        <time>2021-08-10T11:17:20.832Z</time>
      </trkpt>
      <trkpt lat="46.92606" lon="8.57966">
        <ele>655</ele>
        <time>2021-08-10T11:17:21.833Z</time>
      </trkpt>
      <trkpt lat="46.92605" lon="8.57966">
        <ele>655</ele>
        <time>2021-08-10T11:17:22.833Z</time>
      </trkpt>
      <trkpt lat="46.92605" lon="8.57966">
        <ele>655</ele>
        <time>2021-08-10T11:17:23.832Z</time>
      </trkpt>
      <trkpt lat="46.92605" lon="8.57965">
        <ele>655</ele>
        <time>2021-08-10T11:17:24.832Z</time>
      </trkpt>
      <trkpt lat="46.92605" lon="8.57965">
        <ele>655</ele>
        <time>2021-08-10T11:17:25.833Z</time>
      </trkpt>
      <trkpt lat="46.92604" lon="8.57965">
        <ele>655</ele>
        <time>2021-08-10T11:17:26.833Z</time>
      </trkpt>
      <trkpt lat="46.92603" lon="8.57965">
        <ele>655</ele>
        <time>2021-08-10T11:17:27.832Z</time>
      </trkpt>
      <trkpt lat="46.92603" lon="8.57965">
        <ele>655</ele>
        <time>2021-08-10T11:17:28.833Z</time>
      </trkpt>
      <trkpt lat="46.92602" lon="8.57965">
        <ele>655</ele>
        <time>2021-08-10T11:17:29.833Z</time>
      </trkpt>
      <trkpt lat="46.92602" lon="8.57965">
        <ele>655</ele>
        <time>2021-08-10T11:17:30.833Z</time>
      </trkpt>
      <trkpt lat="46.92601" lon="8.57965">
        <ele>655</ele>
        <time>2021-08-10T11:17:31.833Z</time>
      </trkpt>
      <trkpt lat="46.926" lon="8.57966">
        <ele>655</ele>
        <time>2021-08-10T11:17:32.833Z</time>
      </trkpt>
      <trkpt lat="46.926" lon="8.57966">
        <ele>655</ele>
        <time>2021-08-10T11:17:33.832Z</time>
      </trkpt>
      <trkpt lat="46.92599" lon="8.57966">
        <ele>654</ele>
        <time>2021-08-10T11:17:34.833Z</time>
      </trkpt>
      <trkpt lat="46.92598" lon="8.57968">
        <ele>653</ele>
        <time>2021-08-10T11:17:35.833Z</time>
      </trkpt>
      <trkpt lat="46.92598" lon="8.57969">
        <ele>653</ele>
        <time>2021-08-10T11:17:36.833Z</time>
      </trkpt>
      <trkpt lat="46.92597" lon="8.5797">
        <ele>652</ele>
        <time>2021-08-10T11:17:37.832Z</time>
      </trkpt>
      <trkpt lat="46.92597" lon="8.57971">
        <ele>652</ele>
        <time>2021-08-10T11:17:38.832Z</time>
      </trkpt>
      <trkpt lat="46.92597" lon="8.57973">
        <ele>651</ele>
        <time>2021-08-10T11:17:39.833Z</time>
      </trkpt>
      <trkpt lat="46.92596" lon="8.57974">
        <ele>651</ele>
        <time>2021-08-10T11:17:40.832Z</time>
      </trkpt>
      <trkpt lat="46.92596" lon="8.57976">
        <ele>650</ele>
        <time>2021-08-10T11:17:41.832Z</time>
      </trkpt>
      <trkpt lat="46.92595" lon="8.57978">
        <ele>649</ele>
        <time>2021-08-10T11:17:42.833Z</time>
      </trkpt>
      <trkpt lat="46.92595" lon="8.57979">
        <ele>648</ele>
        <time>2021-08-10T11:17:43.833Z</time>
      </trkpt>
      <trkpt lat="46.92595" lon="8.57981">
        <ele>647</ele>
        <time>2021-08-10T11:17:44.833Z</time>
      </trkpt>
      <trkpt lat="46.92596" lon="8.57983">
        <ele>646</ele>
        <time>2021-08-10T11:17:45.832Z</time>
      </trkpt>
      <trkpt lat="46.92596" lon="8.57984">
        <ele>645</ele>
        <time>2021-08-10T11:17:46.832Z</time>
      </trkpt>
      <trkpt lat="46.92596" lon="8.57986">
        <ele>644</ele>
        <time>2021-08-10T11:17:47.832Z</time>
      </trkpt>
      <trkpt lat="46.92596" lon="8.57987">
        <ele>643</ele>
        <time>2021-08-10T11:17:48.832Z</time>
      </trkpt>
      <trkpt lat="46.92596" lon="8.57988">
        <ele>643</ele>
        <time>2021-08-10T11:17:49.833Z</time>
      </trkpt>
      <trkpt lat="46.92597" lon="8.57989">
        <ele>642</ele>
        <time>2021-08-10T11:17:50.833Z</time>
      </trkpt>
      <trkpt lat="46.92597" lon="8.57991">
        <ele>642</ele>
        <time>2021-08-10T11:17:51.833Z</time>
      </trkpt>
      <trkpt lat="46.92597" lon="8.57992">
        <ele>642</ele>
        <time>2021-08-10T11:17:52.833Z</time>
      </trkpt>
      <trkpt lat="46.92596" lon="8.57993">
        <ele>642</ele>
        <time>2021-08-10T11:17:53.832Z</time>
      </trkpt>
      <trkpt lat="46.92596" lon="8.57994">
        <ele>643</ele>
        <time>2021-08-10T11:17:54.833Z</time>
      </trkpt>
      <trkpt lat="46.92596" lon="8.57995">
        <ele>643</ele>
        <time>2021-08-10T11:17:55.833Z</time>
      </trkpt>
      <trkpt lat="46.92596" lon="8.57996">
        <ele>642</ele>
        <time>2021-08-10T11:17:56.833Z</time>
      </trkpt>
      <trkpt lat="46.92595" lon="8.57997">
        <ele>642</ele>
        <time>2021-08-10T11:17:57.833Z</time>
      </trkpt>
      <trkpt lat="46.92595" lon="8.57998">
        <ele>642</ele>
        <time>2021-08-10T11:17:58.832Z</time>
      </trkpt>
      <trkpt lat="46.92595" lon="8.57997">
        <ele>642</ele>
        <time>2021-08-10T11:17:59.833Z</time>
      </trkpt>
      <trkpt lat="46.92594" lon="8.57999">
        <ele>641</ele>
        <time>2021-08-10T11:18:00.833Z</time>
      </trkpt>
      <trkpt lat="46.92594" lon="8.58">
        <ele>640</ele>
        <time>2021-08-10T11:18:01.833Z</time>
      </trkpt>
      <trkpt lat="46.92594" lon="8.58">
        <ele>640</ele>
        <time>2021-08-10T11:18:02.833Z</time>
      </trkpt>
      <trkpt lat="46.92594" lon="8.58001">
        <ele>639</ele>
        <time>2021-08-10T11:18:03.833Z</time>
      </trkpt>
      <trkpt lat="46.92594" lon="8.58002">
        <ele>639</ele>
        <time>2021-08-10T11:18:04.833Z</time>
      </trkpt>
      <trkpt lat="46.92594" lon="8.58003">
        <ele>638</ele>
        <time>2021-08-10T11:18:05.833Z</time>
      </trkpt>
      <trkpt lat="46.92593" lon="8.58004">
        <ele>638</ele>
        <time>2021-08-10T11:18:06.832Z</time>
      </trkpt>
      <trkpt lat="46.92594" lon="8.58006">
        <ele>638</ele>
        <time>2021-08-10T11:18:07.832Z</time>
      </trkpt>
      <trkpt lat="46.92593" lon="8.58007">
        <ele>637</ele>
        <time>2021-08-10T11:18:08.832Z</time>
      </trkpt>
      <trkpt lat="46.92593" lon="8.58007">
        <ele>637</ele>
        <time>2021-08-10T11:18:09.833Z</time>
      </trkpt>
      <trkpt lat="46.92593" lon="8.58008">
        <ele>637</ele>
        <time>2021-08-10T11:18:10.833Z</time>
      </trkpt>
      <trkpt lat="46.92593" lon="8.58009">
        <ele>637</ele>
        <time>2021-08-10T11:18:11.833Z</time>
      </trkpt>
      <trkpt lat="46.92593" lon="8.58009">
        <ele>637</ele>
        <time>2021-08-10T11:18:12.833Z</time>
      </trkpt>
      <trkpt lat="46.92592" lon="8.5801">
        <ele>637</ele>
        <time>2021-08-10T11:18:13.833Z</time>
      </trkpt>
      <trkpt lat="46.92592" lon="8.5801">
        <ele>637</ele>
        <time>2021-08-10T11:18:14.832Z</time>
      </trkpt>
      <trkpt lat="46.92591" lon="8.58011">
        <ele>637</ele>
        <time>2021-08-10T11:18:15.832Z</time>
      </trkpt>
      <trkpt lat="46.9259" lon="8.58011">
        <ele>636</ele>
        <time>2021-08-10T11:18:16.833Z</time>
      </trkpt>
      <trkpt lat="46.92589" lon="8.5801">
        <ele>636</ele>
        <time>2021-08-10T11:18:17.833Z</time>
      </trkpt>
      <trkpt lat="46.92588" lon="8.5801">
        <ele>636</ele>
        <time>2021-08-10T11:18:18.832Z</time>
      </trkpt>
      <trkpt lat="46.92588" lon="8.5801">
        <ele>636</ele>
        <time>2021-08-10T11:18:19.833Z</time>
      </trkpt>
      <trkpt lat="46.92587" lon="8.5801">
        <ele>636</ele>
        <time>2021-08-10T11:18:20.832Z</time>
      </trkpt>
      <trkpt lat="46.92587" lon="8.58011">
        <ele>635</ele>
        <time>2021-08-10T11:18:21.833Z</time>
      </trkpt>
      <trkpt lat="46.92587" lon="8.58011">
        <ele>635</ele>
        <time>2021-08-10T11:18:22.832Z</time>
      </trkpt>
      <trkpt lat="46.92587" lon="8.58012">
        <ele>635</ele>
        <time>2021-08-10T11:18:23.833Z</time>
      </trkpt>
      <trkpt lat="46.92587" lon="8.58013">
        <ele>634</ele>
        <time>2021-08-10T11:18:24.833Z</time>
      </trkpt>
      <trkpt lat="46.92587" lon="8.58013">
        <ele>634</ele>
        <time>2021-08-10T11:18:25.832Z</time>
      </trkpt>
      <trkpt lat="46.92586" lon="8.58015">
        <ele>634</ele>
        <time>2021-08-10T11:18:26.833Z</time>
      </trkpt>
      <trkpt lat="46.92586" lon="8.58015">
        <ele>634</ele>
        <time>2021-08-10T11:18:27.833Z</time>
      </trkpt>
      <trkpt lat="46.92585" lon="8.58016">
        <ele>634</ele>
        <time>2021-08-10T11:18:28.833Z</time>
      </trkpt>
      <trkpt lat="46.92585" lon="8.58017">
        <ele>635</ele>
        <time>2021-08-10T11:18:29.833Z</time>
      </trkpt>
      <trkpt lat="46.92584" lon="8.58019">
        <ele>635</ele>
        <time>2021-08-10T11:18:30.833Z</time>
      </trkpt>
      <trkpt lat="46.92584" lon="8.5802">
        <ele>636</ele>
        <time>2021-08-10T11:18:31.833Z</time>
      </trkpt>
      <trkpt lat="46.92583" lon="8.58022">
        <ele>636</ele>
        <time>2021-08-10T11:18:32.833Z</time>
      </trkpt>
      <trkpt lat="46.92583" lon="8.58023">
        <ele>636</ele>
        <time>2021-08-10T11:18:33.833Z</time>
      </trkpt>
      <trkpt lat="46.92583" lon="8.58024">
        <ele>637</ele>
        <time>2021-08-10T11:18:34.833Z</time>
      </trkpt>
      <trkpt lat="46.92582" lon="8.58026">
        <ele>637</ele>
        <time>2021-08-10T11:18:35.833Z</time>
      </trkpt>
      <trkpt lat="46.92582" lon="8.58027">
        <ele>637</ele>
        <time>2021-08-10T11:18:36.833Z</time>
      </trkpt>
      <trkpt lat="46.92581" lon="8.58028">
        <ele>637</ele>
        <time>2021-08-10T11:18:37.832Z</time>
      </trkpt>
      <trkpt lat="46.92581" lon="8.5803">
        <ele>638</ele>
        <time>2021-08-10T11:18:38.833Z</time>
      </trkpt>
      <trkpt lat="46.9258" lon="8.58031">
        <ele>638</ele>
        <time>2021-08-10T11:18:39.833Z</time>
      </trkpt>
      <trkpt lat="46.92579" lon="8.58032">
        <ele>637</ele>
        <time>2021-08-10T11:18:40.832Z</time>
      </trkpt>
      <trkpt lat="46.92578" lon="8.58032">
        <ele>637</ele>
        <time>2021-08-10T11:18:41.833Z</time>
      </trkpt>
      <trkpt lat="46.92578" lon="8.58032">
        <ele>637</ele>
        <time>2021-08-10T11:18:42.833Z</time>
      </trkpt>
      <trkpt lat="46.92578" lon="8.58032">
        <ele>638</ele>
        <time>2021-08-10T11:18:43.832Z</time>
      </trkpt>
      <trkpt lat="46.92578" lon="8.58033">
        <ele>638</ele>
        <time>2021-08-10T11:18:44.833Z</time>
      </trkpt>
      <trkpt lat="46.92578" lon="8.58034">
        <ele>638</ele>
        <time>2021-08-10T11:18:45.833Z</time>
      </trkpt>
      <trkpt lat="46.92578" lon="8.58034">
        <ele>637</ele>
        <time>2021-08-10T11:18:46.832Z</time>
      </trkpt>
      <trkpt lat="46.92578" lon="8.58035">
        <ele>637</ele>
        <time>2021-08-10T11:18:47.833Z</time>
      </trkpt>
      <trkpt lat="46.92577" lon="8.58036">
        <ele>637</ele>
        <time>2021-08-10T11:18:48.833Z</time>
      </trkpt>
      <trkpt lat="46.92577" lon="8.58037">
        <ele>637</ele>
        <time>2021-08-10T11:18:49.833Z</time>
      </trkpt>
      <trkpt lat="46.92577" lon="8.58037">
        <ele>636</ele>
        <time>2021-08-10T11:18:50.833Z</time>
      </trkpt>
      <trkpt lat="46.92577" lon="8.58038">
        <ele>636</ele>
        <time>2021-08-10T11:18:51.833Z</time>
      </trkpt>
      <trkpt lat="46.92577" lon="8.58039">
        <ele>636</ele>
        <time>2021-08-10T11:18:52.833Z</time>
      </trkpt>
      <trkpt lat="46.92577" lon="8.5804">
        <ele>636</ele>
        <time>2021-08-10T11:18:53.832Z</time>
      </trkpt>
      <trkpt lat="46.92577" lon="8.5804">
        <ele>636</ele>
        <time>2021-08-10T11:18:54.833Z</time>
      </trkpt>
      <trkpt lat="46.92576" lon="8.5804">
        <ele>636</ele>
        <time>2021-08-10T11:18:55.833Z</time>
      </trkpt>
      <trkpt lat="46.92575" lon="8.5804">
        <ele>636</ele>
        <time>2021-08-10T11:18:56.832Z</time>
      </trkpt>
      <trkpt lat="46.92575" lon="8.58041">
        <ele>635</ele>
        <time>2021-08-10T11:18:57.833Z</time>
      </trkpt>
      <trkpt lat="46.92574" lon="8.58041">
        <ele>635</ele>
        <time>2021-08-10T11:18:58.832Z</time>
      </trkpt>
      <trkpt lat="46.92573" lon="8.58042">
        <ele>635</ele>
        <time>2021-08-10T11:18:59.832Z</time>
      </trkpt>
      <trkpt lat="46.92573" lon="8.58043">
        <ele>635</ele>
        <time>2021-08-10T11:19:00.832Z</time>
      </trkpt>
      <trkpt lat="46.92573" lon="8.58044">
        <ele>634</ele>
        <time>2021-08-10T11:19:01.833Z</time>
      </trkpt>
      <trkpt lat="46.92572" lon="8.58045">
        <ele>634</ele>
        <time>2021-08-10T11:19:02.833Z</time>
      </trkpt>
      <trkpt lat="46.92572" lon="8.58047">
        <ele>634</ele>
        <time>2021-08-10T11:19:03.832Z</time>
      </trkpt>
      <trkpt lat="46.92572" lon="8.58047">
        <ele>633</ele>
        <time>2021-08-10T11:19:04.833Z</time>
      </trkpt>
      <trkpt lat="46.92572" lon="8.58048">
        <ele>633</ele>
        <time>2021-08-10T11:19:05.833Z</time>
      </trkpt>
      <trkpt lat="46.92572" lon="8.58049">
        <ele>633</ele>
        <time>2021-08-10T11:19:06.833Z</time>
      </trkpt>
      <trkpt lat="46.92572" lon="8.5805">
        <ele>633</ele>
        <time>2021-08-10T11:19:07.832Z</time>
      </trkpt>
      <trkpt lat="46.92572" lon="8.58051">
        <ele>633</ele>
        <time>2021-08-10T11:19:08.833Z</time>
      </trkpt>
      <trkpt lat="46.92572" lon="8.58053">
        <ele>633</ele>
        <time>2021-08-10T11:19:09.833Z</time>
      </trkpt>
      <trkpt lat="46.92571" lon="8.58054">
        <ele>633</ele>
        <time>2021-08-10T11:19:10.833Z</time>
      </trkpt>
      <trkpt lat="46.92571" lon="8.58055">
        <ele>633</ele>
        <time>2021-08-10T11:19:11.832Z</time>
      </trkpt>
      <trkpt lat="46.92571" lon="8.58056">
        <ele>633</ele>
        <time>2021-08-10T11:19:12.832Z</time>
      </trkpt>
      <trkpt lat="46.92572" lon="8.58057">
        <ele>632</ele>
        <time>2021-08-10T11:19:13.832Z</time>
      </trkpt>
      <trkpt lat="46.92572" lon="8.58058">
        <ele>632</ele>
        <time>2021-08-10T11:19:14.833Z</time>
      </trkpt>
      <trkpt lat="46.92572" lon="8.5806">
        <ele>632</ele>
        <time>2021-08-10T11:19:15.833Z</time>
      </trkpt>
      <trkpt lat="46.92572" lon="8.5806">
        <ele>632</ele>
        <time>2021-08-10T11:19:16.832Z</time>
      </trkpt>
      <trkpt lat="46.92572" lon="8.58061">
        <ele>632</ele>
        <time>2021-08-10T11:19:17.833Z</time>
      </trkpt>
      <trkpt lat="46.92572" lon="8.58062">
        <ele>632</ele>
        <time>2021-08-10T11:19:18.833Z</time>
      </trkpt>
      <trkpt lat="46.92572" lon="8.58063">
        <ele>633</ele>
        <time>2021-08-10T11:19:19.833Z</time>
      </trkpt>
      <trkpt lat="46.92571" lon="8.58064">
        <ele>633</ele>
        <time>2021-08-10T11:19:20.833Z</time>
      </trkpt>
      <trkpt lat="46.92571" lon="8.58064">
        <ele>633</ele>
        <time>2021-08-10T11:19:21.832Z</time>
      </trkpt>
      <trkpt lat="46.9257" lon="8.58065">
        <ele>633</ele>
        <time>2021-08-10T11:19:22.833Z</time>
      </trkpt>
      <trkpt lat="46.9257" lon="8.58066">
        <ele>634</ele>
        <time>2021-08-10T11:19:23.833Z</time>
      </trkpt>
      <trkpt lat="46.9257" lon="8.58068">
        <ele>634</ele>
        <time>2021-08-10T11:19:24.832Z</time>
      </trkpt>
      <trkpt lat="46.9257" lon="8.58069">
        <ele>634</ele>
        <time>2021-08-10T11:19:25.833Z</time>
      </trkpt>
      <trkpt lat="46.9257" lon="8.5807">
        <ele>634</ele>
        <time>2021-08-10T11:19:26.832Z</time>
      </trkpt>
      <trkpt lat="46.92569" lon="8.58071">
        <ele>635</ele>
        <time>2021-08-10T11:19:27.833Z</time>
      </trkpt>
      <trkpt lat="46.92568" lon="8.58072">
        <ele>635</ele>
        <time>2021-08-10T11:19:28.833Z</time>
      </trkpt>
      <trkpt lat="46.92567" lon="8.58073">
        <ele>635</ele>
        <time>2021-08-10T11:19:29.833Z</time>
      </trkpt>
      <trkpt lat="46.92566" lon="8.58074">
        <ele>636</ele>
        <time>2021-08-10T11:19:30.832Z</time>
      </trkpt>
      <trkpt lat="46.92566" lon="8.58074">
        <ele>636</ele>
        <time>2021-08-10T11:19:31.833Z</time>
      </trkpt>
      <trkpt lat="46.92567" lon="8.58075">
        <ele>637</ele>
        <time>2021-08-10T11:19:32.833Z</time>
      </trkpt>
      <trkpt lat="46.92567" lon="8.58076">
        <ele>637</ele>
        <time>2021-08-10T11:19:33.833Z</time>
      </trkpt>
      <trkpt lat="46.92567" lon="8.58077">
        <ele>637</ele>
        <time>2021-08-10T11:19:34.833Z</time>
      </trkpt>
      <trkpt lat="46.92567" lon="8.58078">
        <ele>638</ele>
        <time>2021-08-10T11:19:35.832Z</time>
      </trkpt>
      <trkpt lat="46.92567" lon="8.58078">
        <ele>638</ele>
        <time>2021-08-10T11:19:36.833Z</time>
      </trkpt>
      <trkpt lat="46.92567" lon="8.58079">
        <ele>638</ele>
        <time>2021-08-10T11:19:37.833Z</time>
      </trkpt>
      <trkpt lat="46.92567" lon="8.5808">
        <ele>639</ele>
        <time>2021-08-10T11:19:38.833Z</time>
      </trkpt>
      <trkpt lat="46.92567" lon="8.5808">
        <ele>639</ele>
        <time>2021-08-10T11:19:39.833Z</time>
      </trkpt>
      <trkpt lat="46.92567" lon="8.58081">
        <ele>640</ele>
        <time>2021-08-10T11:19:40.833Z</time>
      </trkpt>
      <trkpt lat="46.92566" lon="8.58081">
        <ele>640</ele>
        <time>2021-08-10T11:19:41.833Z</time>
      </trkpt>
      <trkpt lat="46.92566" lon="8.58081">
        <ele>641</ele>
        <time>2021-08-10T11:19:42.833Z</time>
      </trkpt>
      <trkpt lat="46.92566" lon="8.58083">
        <ele>641</ele>
        <time>2021-08-10T11:19:43.832Z</time>
      </trkpt>
      <trkpt lat="46.92566" lon="8.58083">
        <ele>641</ele>
        <time>2021-08-10T11:19:44.832Z</time>
      </trkpt>
      <trkpt lat="46.92565" lon="8.58084">
        <ele>642</ele>
        <time>2021-08-10T11:19:45.832Z</time>
      </trkpt>
      <trkpt lat="46.92564" lon="8.58085">
        <ele>642</ele>
        <time>2021-08-10T11:19:46.833Z</time>
      </trkpt>
      <trkpt lat="46.92562" lon="8.58085">
        <ele>643</ele>
        <time>2021-08-10T11:19:47.832Z</time>
      </trkpt>
      <trkpt lat="46.92561" lon="8.58086">
        <ele>643</ele>
        <time>2021-08-10T11:19:48.833Z</time>
      </trkpt>
      <trkpt lat="46.92562" lon="8.58087">
        <ele>643</ele>
        <time>2021-08-10T11:19:49.832Z</time>
      </trkpt>
      <trkpt lat="46.92562" lon="8.58088">
        <ele>644</ele>
        <time>2021-08-10T11:19:50.833Z</time>
      </trkpt>
      <trkpt lat="46.92562" lon="8.58088">
        <ele>644</ele>
        <time>2021-08-10T11:19:51.833Z</time>
      </trkpt>
      <trkpt lat="46.92562" lon="8.58089">
        <ele>644</ele>
        <time>2021-08-10T11:19:52.832Z</time>
      </trkpt>
      <trkpt lat="46.92561" lon="8.5809">
        <ele>645</ele>
        <time>2021-08-10T11:19:53.832Z</time>
      </trkpt>
      <trkpt lat="46.9256" lon="8.58091">
        <ele>645</ele>
        <time>2021-08-10T11:19:54.832Z</time>
      </trkpt>
      <trkpt lat="46.92559" lon="8.58092">
        <ele>646</ele>
        <time>2021-08-10T11:19:55.832Z</time>
      </trkpt>
      <trkpt lat="46.92559" lon="8.58093">
        <ele>646</ele>
        <time>2021-08-10T11:19:56.833Z</time>
      </trkpt>
      <trkpt lat="46.92559" lon="8.58094">
        <ele>647</ele>
        <time>2021-08-10T11:19:57.832Z</time>
      </trkpt>
      <trkpt lat="46.92559" lon="8.58095">
        <ele>647</ele>
        <time>2021-08-10T11:19:58.832Z</time>
      </trkpt>
      <trkpt lat="46.92558" lon="8.58096">
        <ele>648</ele>
        <time>2021-08-10T11:19:59.833Z</time>
      </trkpt>
      <trkpt lat="46.92557" lon="8.58096">
        <ele>649</ele>
        <time>2021-08-10T11:20:00.833Z</time>
      </trkpt>
      <trkpt lat="46.92556" lon="8.58097">
        <ele>649</ele>
        <time>2021-08-10T11:20:01.832Z</time>
      </trkpt>
      <trkpt lat="46.92556" lon="8.58099">
        <ele>650</ele>
        <time>2021-08-10T11:20:02.833Z</time>
      </trkpt>
      <trkpt lat="46.92556" lon="8.58099">
        <ele>650</ele>
        <time>2021-08-10T11:20:03.832Z</time>
      </trkpt>
      <trkpt lat="46.92557" lon="8.58099">
        <ele>650</ele>
        <time>2021-08-10T11:20:04.833Z</time>
      </trkpt>
      <trkpt lat="46.92557" lon="8.58099">
        <ele>651</ele>
        <time>2021-08-10T11:20:05.832Z</time>
      </trkpt>
      <trkpt lat="46.92556" lon="8.58098">
        <ele>652</ele>
        <time>2021-08-10T11:20:06.832Z</time>
      </trkpt>
      <trkpt lat="46.92556" lon="8.58098">
        <ele>652</ele>
        <time>2021-08-10T11:20:07.832Z</time>
      </trkpt>
      <trkpt lat="46.92555" lon="8.58097">
        <ele>652</ele>
        <time>2021-08-10T11:20:08.833Z</time>
      </trkpt>
      <trkpt lat="46.92555" lon="8.58097">
        <ele>653</ele>
        <time>2021-08-10T11:20:09.832Z</time>
      </trkpt>
      <trkpt lat="46.92556" lon="8.58097">
        <ele>653</ele>
        <time>2021-08-10T11:20:10.832Z</time>
      </trkpt>
      <trkpt lat="46.92556" lon="8.58096">
        <ele>653</ele>
        <time>2021-08-10T11:20:11.832Z</time>
      </trkpt>
      <trkpt lat="46.92555" lon="8.58095">
        <ele>654</ele>
        <time>2021-08-10T11:20:12.832Z</time>
      </trkpt>
      <trkpt lat="46.92555" lon="8.58095">
        <ele>654</ele>
        <time>2021-08-10T11:20:13.832Z</time>
      </trkpt>
      <trkpt lat="46.92554" lon="8.58094">
        <ele>654</ele>
        <time>2021-08-10T11:20:14.832Z</time>
      </trkpt>
      <trkpt lat="46.92554" lon="8.58094">
        <ele>654</ele>
        <time>2021-08-10T11:20:15.833Z</time>
      </trkpt>
      <trkpt lat="46.92554" lon="8.58094">
        <ele>655</ele>
        <time>2021-08-10T11:20:16.833Z</time>
      </trkpt>
      <trkpt lat="46.92553" lon="8.58095">
        <ele>655</ele>
        <time>2021-08-10T11:20:17.833Z</time>
      </trkpt>
      <trkpt lat="46.92552" lon="8.58095">
        <ele>655</ele>
        <time>2021-08-10T11:20:18.833Z</time>
      </trkpt>
      <trkpt lat="46.9255" lon="8.58096">
        <ele>656</ele>
        <time>2021-08-10T11:20:19.833Z</time>
      </trkpt>
      <trkpt lat="46.92549" lon="8.58096">
        <ele>656</ele>
        <time>2021-08-10T11:20:20.833Z</time>
      </trkpt>
      <trkpt lat="46.92548" lon="8.58096">
        <ele>657</ele>
        <time>2021-08-10T11:20:21.832Z</time>
      </trkpt>
      <trkpt lat="46.92547" lon="8.58096">
        <ele>657</ele>
        <time>2021-08-10T11:20:22.833Z</time>
      </trkpt>
      <trkpt lat="46.92546" lon="8.58097">
        <ele>658</ele>
        <time>2021-08-10T11:20:23.833Z</time>
      </trkpt>
      <trkpt lat="46.92545" lon="8.58098">
        <ele>658</ele>
        <time>2021-08-10T11:20:24.832Z</time>
      </trkpt>
      <trkpt lat="46.92544" lon="8.58099">
        <ele>659</ele>
        <time>2021-08-10T11:20:25.833Z</time>
      </trkpt>
      <trkpt lat="46.92543" lon="8.581">
        <ele>659</ele>
        <time>2021-08-10T11:20:26.833Z</time>
      </trkpt>
      <trkpt lat="46.92542" lon="8.581">
        <ele>660</ele>
        <time>2021-08-10T11:20:27.832Z</time>
      </trkpt>
      <trkpt lat="46.92541" lon="8.58101">
        <ele>661</ele>
        <time>2021-08-10T11:20:28.833Z</time>
      </trkpt>
      <trkpt lat="46.9254" lon="8.58101">
        <ele>661</ele>
        <time>2021-08-10T11:20:29.833Z</time>
      </trkpt>
      <trkpt lat="46.92539" lon="8.58102">
        <ele>662</ele>
        <time>2021-08-10T11:20:30.833Z</time>
      </trkpt>
      <trkpt lat="46.92539" lon="8.58102">
        <ele>662</ele>
        <time>2021-08-10T11:20:31.833Z</time>
      </trkpt>
      <trkpt lat="46.92539" lon="8.58103">
        <ele>663</ele>
        <time>2021-08-10T11:20:32.833Z</time>
      </trkpt>
      <trkpt lat="46.92539" lon="8.58103">
        <ele>664</ele>
        <time>2021-08-10T11:20:33.833Z</time>
      </trkpt>
      <trkpt lat="46.9254" lon="8.58104">
        <ele>664</ele>
        <time>2021-08-10T11:20:34.833Z</time>
      </trkpt>
      <trkpt lat="46.9254" lon="8.58105">
        <ele>664</ele>
        <time>2021-08-10T11:20:35.833Z</time>
      </trkpt>
      <trkpt lat="46.92538" lon="8.58107">
        <ele>665</ele>
        <time>2021-08-10T11:20:36.833Z</time>
      </trkpt>
      <trkpt lat="46.92539" lon="8.58106">
        <ele>665</ele>
        <time>2021-08-10T11:20:37.833Z</time>
      </trkpt>
      <trkpt lat="46.9254" lon="8.58106">
        <ele>665</ele>
        <time>2021-08-10T11:20:38.833Z</time>
      </trkpt>
      <trkpt lat="46.9254" lon="8.58106">
        <ele>665</ele>
        <time>2021-08-10T11:20:39.833Z</time>
      </trkpt>
      <trkpt lat="46.9254" lon="8.58106">
        <ele>665</ele>
        <time>2021-08-10T11:20:40.832Z</time>
      </trkpt>
      <trkpt lat="46.9254" lon="8.58106">
        <ele>665</ele>
        <time>2021-08-10T11:20:41.832Z</time>
      </trkpt>
      <trkpt lat="46.92541" lon="8.58106">
        <ele>665</ele>
        <time>2021-08-10T11:20:42.833Z</time>
      </trkpt>
      <trkpt lat="46.92541" lon="8.58106">
        <ele>666</ele>
        <time>2021-08-10T11:20:43.833Z</time>
      </trkpt>
      <trkpt lat="46.9254" lon="8.58107">
        <ele>666</ele>
        <time>2021-08-10T11:20:44.832Z</time>
      </trkpt>
      <trkpt lat="46.9254" lon="8.58107">
        <ele>666</ele>
        <time>2021-08-10T11:20:45.833Z</time>
      </trkpt>
      <trkpt lat="46.9254" lon="8.58107">
        <ele>666</ele>
        <time>2021-08-10T11:20:46.832Z</time>
      </trkpt>
      <trkpt lat="46.92539" lon="8.58107">
        <ele>666</ele>
        <time>2021-08-10T11:20:47.833Z</time>
      </trkpt>
      <trkpt lat="46.92539" lon="8.58107">
        <ele>666</ele>
        <time>2021-08-10T11:20:48.833Z</time>
      </trkpt>
      <trkpt lat="46.92539" lon="8.58107">
        <ele>667</ele>
        <time>2021-08-10T11:20:49.833Z</time>
      </trkpt>
      <trkpt lat="46.92538" lon="8.58107">
        <ele>667</ele>
        <time>2021-08-10T11:20:50.832Z</time>
      </trkpt>
      <trkpt lat="46.92538" lon="8.58108">
        <ele>667</ele>
        <time>2021-08-10T11:20:51.833Z</time>
      </trkpt>
      <trkpt lat="46.92538" lon="8.58108">
        <ele>667</ele>
        <time>2021-08-10T11:20:52.832Z</time>
      </trkpt>
      <trkpt lat="46.92538" lon="8.58108">
        <ele>668</ele>
        <time>2021-08-10T11:20:53.833Z</time>
      </trkpt>
      <trkpt lat="46.92537" lon="8.58108">
        <ele>668</ele>
        <time>2021-08-10T11:20:54.832Z</time>
      </trkpt>
      <trkpt lat="46.92535" lon="8.58108">
        <ele>668</ele>
        <time>2021-08-10T11:20:55.833Z</time>
      </trkpt>
      <trkpt lat="46.92534" lon="8.58107">
        <ele>668</ele>
        <time>2021-08-10T11:20:56.832Z</time>
      </trkpt>
      <trkpt lat="46.92533" lon="8.58107">
        <ele>668</ele>
        <time>2021-08-10T11:20:57.832Z</time>
      </trkpt>
      <trkpt lat="46.92533" lon="8.58107">
        <ele>668</ele>
        <time>2021-08-10T11:20:58.833Z</time>
      </trkpt>
      <trkpt lat="46.92533" lon="8.58107">
        <ele>668</ele>
        <time>2021-08-10T11:20:59.832Z</time>
      </trkpt>
      <trkpt lat="46.92532" lon="8.5811">
        <ele>669</ele>
        <time>2021-08-10T11:21:00.832Z</time>
      </trkpt>
      <trkpt lat="46.92532" lon="8.58112">
        <ele>669</ele>
        <time>2021-08-10T11:21:01.832Z</time>
      </trkpt>
      <trkpt lat="46.92532" lon="8.58114">
        <ele>669</ele>
        <time>2021-08-10T11:21:02.832Z</time>
      </trkpt>
      <trkpt lat="46.92532" lon="8.58115">
        <ele>669</ele>
        <time>2021-08-10T11:21:03.832Z</time>
      </trkpt>
      <trkpt lat="46.92532" lon="8.58116">
        <ele>670</ele>
        <time>2021-08-10T11:21:04.833Z</time>
      </trkpt>
      <trkpt lat="46.92533" lon="8.58117">
        <ele>670</ele>
        <time>2021-08-10T11:21:05.832Z</time>
      </trkpt>
      <trkpt lat="46.92532" lon="8.58117">
        <ele>670</ele>
        <time>2021-08-10T11:21:06.832Z</time>
      </trkpt>
      <trkpt lat="46.92532" lon="8.58117">
        <ele>670</ele>
        <time>2021-08-10T11:21:07.832Z</time>
      </trkpt>
      <trkpt lat="46.92532" lon="8.58116">
        <ele>670</ele>
        <time>2021-08-10T11:21:08.832Z</time>
      </trkpt>
      <trkpt lat="46.92531" lon="8.58117">
        <ele>670</ele>
        <time>2021-08-10T11:21:09.832Z</time>
      </trkpt>
      <trkpt lat="46.92531" lon="8.58118">
        <ele>670</ele>
        <time>2021-08-10T11:21:10.832Z</time>
      </trkpt>
      <trkpt lat="46.9253" lon="8.58118">
        <ele>670</ele>
        <time>2021-08-10T11:21:11.833Z</time>
      </trkpt>
      <trkpt lat="46.92529" lon="8.58119">
        <ele>670</ele>
        <time>2021-08-10T11:21:12.833Z</time>
      </trkpt>
      <trkpt lat="46.92529" lon="8.58119">
        <ele>670</ele>
        <time>2021-08-10T11:21:13.832Z</time>
      </trkpt>
      <trkpt lat="46.92529" lon="8.5812">
        <ele>670</ele>
        <time>2021-08-10T11:21:14.832Z</time>
      </trkpt>
      <trkpt lat="46.92528" lon="8.58122">
        <ele>670</ele>
        <time>2021-08-10T11:21:15.832Z</time>
      </trkpt>
      <trkpt lat="46.92527" lon="8.58123">
        <ele>670</ele>
        <time>2021-08-10T11:21:16.833Z</time>
      </trkpt>
      <trkpt lat="46.92526" lon="8.58125">
        <ele>670</ele>
        <time>2021-08-10T11:21:17.832Z</time>
      </trkpt>
      <trkpt lat="46.92525" lon="8.58125">
        <ele>670</ele>
        <time>2021-08-10T11:21:18.833Z</time>
      </trkpt>
      <trkpt lat="46.92523" lon="8.58125">
        <ele>670</ele>
        <time>2021-08-10T11:21:19.832Z</time>
      </trkpt>
      <trkpt lat="46.92522" lon="8.58125">
        <ele>670</ele>
        <time>2021-08-10T11:21:20.832Z</time>
      </trkpt>
      <trkpt lat="46.92521" lon="8.58125">
        <ele>669</ele>
        <time>2021-08-10T11:21:21.833Z</time>
      </trkpt>
      <trkpt lat="46.9252" lon="8.58125">
        <ele>669</ele>
        <time>2021-08-10T11:21:22.833Z</time>
      </trkpt>
      <trkpt lat="46.9252" lon="8.58126">
        <ele>669</ele>
        <time>2021-08-10T11:21:23.832Z</time>
      </trkpt>
      <trkpt lat="46.92518" lon="8.58127">
        <ele>669</ele>
        <time>2021-08-10T11:21:24.832Z</time>
      </trkpt>
      <trkpt lat="46.92517" lon="8.58129">
        <ele>669</ele>
        <time>2021-08-10T11:21:25.832Z</time>
      </trkpt>
      <trkpt lat="46.92516" lon="8.58129">
        <ele>668</ele>
        <time>2021-08-10T11:21:26.832Z</time>
      </trkpt>
      <trkpt lat="46.92516" lon="8.58129">
        <ele>668</ele>
        <time>2021-08-10T11:21:27.833Z</time>
      </trkpt>
      <trkpt lat="46.92515" lon="8.58129">
        <ele>668</ele>
        <time>2021-08-10T11:21:28.833Z</time>
      </trkpt>
      <trkpt lat="46.92515" lon="8.58129">
        <ele>668</ele>
        <time>2021-08-10T11:21:29.833Z</time>
      </trkpt>
      <trkpt lat="46.92514" lon="8.58129">
        <ele>668</ele>
        <time>2021-08-10T11:21:30.832Z</time>
      </trkpt>
      <trkpt lat="46.92513" lon="8.58129">
        <ele>668</ele>
        <time>2021-08-10T11:21:31.832Z</time>
      </trkpt>
      <trkpt lat="46.92512" lon="8.58129">
        <ele>668</ele>
        <time>2021-08-10T11:21:32.833Z</time>
      </trkpt>
      <trkpt lat="46.92512" lon="8.58129">
        <ele>668</ele>
        <time>2021-08-10T11:21:33.833Z</time>
      </trkpt>
      <trkpt lat="46.92512" lon="8.58129">
        <ele>668</ele>
        <time>2021-08-10T11:21:34.832Z</time>
      </trkpt>
      <trkpt lat="46.92512" lon="8.5813">
        <ele>668</ele>
        <time>2021-08-10T11:21:35.832Z</time>
      </trkpt>
      <trkpt lat="46.92512" lon="8.5813">
        <ele>668</ele>
        <time>2021-08-10T11:21:36.833Z</time>
      </trkpt>
      <trkpt lat="46.92512" lon="8.5813">
        <ele>668</ele>
        <time>2021-08-10T11:21:37.835Z</time>
      </trkpt>
      <trkpt lat="46.92512" lon="8.58129">
        <ele>668</ele>
        <time>2021-08-10T11:21:38.835Z</time>
      </trkpt>
      <trkpt lat="46.92512" lon="8.5813">
        <ele>668</ele>
        <time>2021-08-10T11:21:39.835Z</time>
      </trkpt>
      <trkpt lat="46.92511" lon="8.5813">
        <ele>668</ele>
        <time>2021-08-10T11:21:40.835Z</time>
      </trkpt>
      <trkpt lat="46.92511" lon="8.5813">
        <ele>667</ele>
        <time>2021-08-10T11:21:41.835Z</time>
      </trkpt>
      <trkpt lat="46.9251" lon="8.5813">
        <ele>667</ele>
        <time>2021-08-10T11:21:42.835Z</time>
      </trkpt>
      <trkpt lat="46.92509" lon="8.5813">
        <ele>667</ele>
        <time>2021-08-10T11:21:43.835Z</time>
      </trkpt>
      <trkpt lat="46.92509" lon="8.58129">
        <ele>667</ele>
        <time>2021-08-10T11:21:44.835Z</time>
      </trkpt>
      <trkpt lat="46.92509" lon="8.5813">
        <ele>667</ele>
        <time>2021-08-10T11:21:45.835Z</time>
      </trkpt>
      <trkpt lat="46.92511" lon="8.58129">
        <ele>666</ele>
        <time>2021-08-10T11:21:46.835Z</time>
      </trkpt>
      <trkpt lat="46.92512" lon="8.5813">
        <ele>666</ele>
        <time>2021-08-10T11:21:47.835Z</time>
      </trkpt>
      <trkpt lat="46.92511" lon="8.5813">
        <ele>666</ele>
        <time>2021-08-10T11:21:48.834Z</time>
      </trkpt>
      <trkpt lat="46.92511" lon="8.5813">
        <ele>666</ele>
        <time>2021-08-10T11:21:49.835Z</time>
      </trkpt>
      <trkpt lat="46.92511" lon="8.5813">
        <ele>666</ele>
        <time>2021-08-10T11:21:50.834Z</time>
      </trkpt>
      <trkpt lat="46.92511" lon="8.58129">
        <ele>666</ele>
        <time>2021-08-10T11:21:51.834Z</time>
      </trkpt>
      <trkpt lat="46.92511" lon="8.58129">
        <ele>667</ele>
        <time>2021-08-10T11:21:52.834Z</time>
      </trkpt>
      <trkpt lat="46.92512" lon="8.58128">
        <ele>667</ele>
        <time>2021-08-10T11:21:53.835Z</time>
      </trkpt>
      <trkpt lat="46.92513" lon="8.58129">
        <ele>667</ele>
        <time>2021-08-10T11:21:54.835Z</time>
      </trkpt>
      <trkpt lat="46.92512" lon="8.5813">
        <ele>668</ele>
        <time>2021-08-10T11:21:55.835Z</time>
      </trkpt>
      <trkpt lat="46.92512" lon="8.58131">
        <ele>668</ele>
        <time>2021-08-10T11:21:56.834Z</time>
      </trkpt>
      <trkpt lat="46.9251" lon="8.58129">
        <ele>668</ele>
        <time>2021-08-10T11:21:57.835Z</time>
      </trkpt>
      <trkpt lat="46.92509" lon="8.58129">
        <ele>668</ele>
        <time>2021-08-10T11:21:58.835Z</time>
      </trkpt>
      <trkpt lat="46.92509" lon="8.58128">
        <ele>669</ele>
        <time>2021-08-10T11:21:59.835Z</time>
      </trkpt>
      <trkpt lat="46.92508" lon="8.58127">
        <ele>669</ele>
        <time>2021-08-10T11:22:00.835Z</time>
      </trkpt>
      <trkpt lat="46.92507" lon="8.58128">
        <ele>669</ele>
        <time>2021-08-10T11:22:01.835Z</time>
      </trkpt>
      <trkpt lat="46.92507" lon="8.58129">
        <ele>669</ele>
        <time>2021-08-10T11:22:02.834Z</time>
      </trkpt>
      <trkpt lat="46.92506" lon="8.5813">
        <ele>670</ele>
        <time>2021-08-10T11:22:03.834Z</time>
      </trkpt>
      <trkpt lat="46.92506" lon="8.58131">
        <ele>670</ele>
        <time>2021-08-10T11:22:04.835Z</time>
      </trkpt>
      <trkpt lat="46.92505" lon="8.58132">
        <ele>670</ele>
        <time>2021-08-10T11:22:05.835Z</time>
      </trkpt>
      <trkpt lat="46.92505" lon="8.58133">
        <ele>671</ele>
        <time>2021-08-10T11:22:06.835Z</time>
      </trkpt>
      <trkpt lat="46.92505" lon="8.58134">
        <ele>671</ele>
        <time>2021-08-10T11:22:07.835Z</time>
      </trkpt>
      <trkpt lat="46.92505" lon="8.58135">
        <ele>672</ele>
        <time>2021-08-10T11:22:08.835Z</time>
      </trkpt>
      <trkpt lat="46.92506" lon="8.58137">
        <ele>672</ele>
        <time>2021-08-10T11:22:09.835Z</time>
      </trkpt>
      <trkpt lat="46.92508" lon="8.58138">
        <ele>672</ele>
        <time>2021-08-10T11:22:10.835Z</time>
      </trkpt>
      <trkpt lat="46.9251" lon="8.5814">
        <ele>673</ele>
        <time>2021-08-10T11:22:11.835Z</time>
      </trkpt>
      <trkpt lat="46.92512" lon="8.58142">
        <ele>673</ele>
        <time>2021-08-10T11:22:12.834Z</time>
      </trkpt>
      <trkpt lat="46.92514" lon="8.58143">
        <ele>673</ele>
        <time>2021-08-10T11:22:13.834Z</time>
      </trkpt>
      <trkpt lat="46.92515" lon="8.58144">
        <ele>673</ele>
        <time>2021-08-10T11:22:14.835Z</time>
      </trkpt>
      <trkpt lat="46.92516" lon="8.58145">
        <ele>673</ele>
        <time>2021-08-10T11:22:15.834Z</time>
      </trkpt>
      <trkpt lat="46.92516" lon="8.58146">
        <ele>674</ele>
        <time>2021-08-10T11:22:16.835Z</time>
      </trkpt>
      <trkpt lat="46.92516" lon="8.58147">
        <ele>674</ele>
        <time>2021-08-10T11:22:17.835Z</time>
      </trkpt>
      <trkpt lat="46.92516" lon="8.58149">
        <ele>674</ele>
        <time>2021-08-10T11:22:18.835Z</time>
      </trkpt>
      <trkpt lat="46.92516" lon="8.5815">
        <ele>675</ele>
        <time>2021-08-10T11:22:19.835Z</time>
      </trkpt>
      <trkpt lat="46.92517" lon="8.58151">
        <ele>675</ele>
        <time>2021-08-10T11:22:20.835Z</time>
      </trkpt>
      <trkpt lat="46.92518" lon="8.58152">
        <ele>676</ele>
        <time>2021-08-10T11:22:21.834Z</time>
      </trkpt>
      <trkpt lat="46.9252" lon="8.58153">
        <ele>676</ele>
        <time>2021-08-10T11:22:22.834Z</time>
      </trkpt>
      <trkpt lat="46.9252" lon="8.58154">
        <ele>676</ele>
        <time>2021-08-10T11:22:23.835Z</time>
      </trkpt>
      <trkpt lat="46.9252" lon="8.58155">
        <ele>676</ele>
        <time>2021-08-10T11:22:24.835Z</time>
      </trkpt>
      <trkpt lat="46.9252" lon="8.58155">
        <ele>677</ele>
        <time>2021-08-10T11:22:25.835Z</time>
      </trkpt>
      <trkpt lat="46.92519" lon="8.58156">
        <ele>677</ele>
        <time>2021-08-10T11:22:26.834Z</time>
      </trkpt>
      <trkpt lat="46.92519" lon="8.58157">
        <ele>677</ele>
        <time>2021-08-10T11:22:27.835Z</time>
      </trkpt>
      <trkpt lat="46.92519" lon="8.58159">
        <ele>677</ele>
        <time>2021-08-10T11:22:28.834Z</time>
      </trkpt>
      <trkpt lat="46.92519" lon="8.5816">
        <ele>677</ele>
        <time>2021-08-10T11:22:29.835Z</time>
      </trkpt>
      <trkpt lat="46.92519" lon="8.58161">
        <ele>676</ele>
        <time>2021-08-10T11:22:30.835Z</time>
      </trkpt>
      <trkpt lat="46.92518" lon="8.58162">
        <ele>676</ele>
        <time>2021-08-10T11:22:31.835Z</time>
      </trkpt>
      <trkpt lat="46.92518" lon="8.58164">
        <ele>675</ele>
        <time>2021-08-10T11:22:32.835Z</time>
      </trkpt>
      <trkpt lat="46.92517" lon="8.58165">
        <ele>674</ele>
        <time>2021-08-10T11:22:33.835Z</time>
      </trkpt>
      <trkpt lat="46.92516" lon="8.58167">
        <ele>674</ele>
        <time>2021-08-10T11:22:34.835Z</time>
      </trkpt>
      <trkpt lat="46.92515" lon="8.58168">
        <ele>673</ele>
        <time>2021-08-10T11:22:35.835Z</time>
      </trkpt>
      <trkpt lat="46.92515" lon="8.58169">
        <ele>673</ele>
        <time>2021-08-10T11:22:36.835Z</time>
      </trkpt>
      <trkpt lat="46.92514" lon="8.5817">
        <ele>672</ele>
        <time>2021-08-10T11:22:37.834Z</time>
      </trkpt>
      <trkpt lat="46.92513" lon="8.58171">
        <ele>672</ele>
        <time>2021-08-10T11:22:38.834Z</time>
      </trkpt>
      <trkpt lat="46.92512" lon="8.58173">
        <ele>672</ele>
        <time>2021-08-10T11:22:39.834Z</time>
      </trkpt>
      <trkpt lat="46.92511" lon="8.58175">
        <ele>672</ele>
        <time>2021-08-10T11:22:40.835Z</time>
      </trkpt>
      <trkpt lat="46.9251" lon="8.58176">
        <ele>672</ele>
        <time>2021-08-10T11:22:41.834Z</time>
      </trkpt>
      <trkpt lat="46.92509" lon="8.58177">
        <ele>672</ele>
        <time>2021-08-10T11:22:42.835Z</time>
      </trkpt>
      <trkpt lat="46.92509" lon="8.58177">
        <ele>672</ele>
        <time>2021-08-10T11:22:43.835Z</time>
      </trkpt>
      <trkpt lat="46.92508" lon="8.58178">
        <ele>672</ele>
        <time>2021-08-10T11:22:44.835Z</time>
      </trkpt>
      <trkpt lat="46.92509" lon="8.58178">
        <ele>672</ele>
        <time>2021-08-10T11:22:45.835Z</time>
      </trkpt>
      <trkpt lat="46.92509" lon="8.58179">
        <ele>672</ele>
        <time>2021-08-10T11:22:46.835Z</time>
      </trkpt>
      <trkpt lat="46.92508" lon="8.58179">
        <ele>672</ele>
        <time>2021-08-10T11:22:47.835Z</time>
      </trkpt>
      <trkpt lat="46.92507" lon="8.58181">
        <ele>672</ele>
        <time>2021-08-10T11:22:48.834Z</time>
      </trkpt>
      <trkpt lat="46.92506" lon="8.58181">
        <ele>672</ele>
        <time>2021-08-10T11:22:49.835Z</time>
      </trkpt>
      <trkpt lat="46.92505" lon="8.58182">
        <ele>672</ele>
        <time>2021-08-10T11:22:50.835Z</time>
      </trkpt>
      <trkpt lat="46.92505" lon="8.58182">
        <ele>673</ele>
        <time>2021-08-10T11:22:51.835Z</time>
      </trkpt>
      <trkpt lat="46.92505" lon="8.58182">
        <ele>673</ele>
        <time>2021-08-10T11:22:52.835Z</time>
      </trkpt>
      <trkpt lat="46.92505" lon="8.58183">
        <ele>673</ele>
        <time>2021-08-10T11:22:53.834Z</time>
      </trkpt>
      <trkpt lat="46.92504" lon="8.58183">
        <ele>673</ele>
        <time>2021-08-10T11:22:54.834Z</time>
      </trkpt>
      <trkpt lat="46.92504" lon="8.58185">
        <ele>673</ele>
        <time>2021-08-10T11:22:55.835Z</time>
      </trkpt>
      <trkpt lat="46.92503" lon="8.58186">
        <ele>673</ele>
        <time>2021-08-10T11:22:56.834Z</time>
      </trkpt>
      <trkpt lat="46.92502" lon="8.58188">
        <ele>673</ele>
        <time>2021-08-10T11:22:57.835Z</time>
      </trkpt>
      <trkpt lat="46.92501" lon="8.58187">
        <ele>673</ele>
        <time>2021-08-10T11:22:58.834Z</time>
      </trkpt>
      <trkpt lat="46.92501" lon="8.58187">
        <ele>672</ele>
        <time>2021-08-10T11:22:59.835Z</time>
      </trkpt>
      <trkpt lat="46.92499" lon="8.58188">
        <ele>672</ele>
        <time>2021-08-10T11:23:00.834Z</time>
      </trkpt>
      <trkpt lat="46.92498" lon="8.5819">
        <ele>672</ele>
        <time>2021-08-10T11:23:01.835Z</time>
      </trkpt>
      <trkpt lat="46.92498" lon="8.58191">
        <ele>671</ele>
        <time>2021-08-10T11:23:02.835Z</time>
      </trkpt>
      <trkpt lat="46.92497" lon="8.58192">
        <ele>671</ele>
        <time>2021-08-10T11:23:03.835Z</time>
      </trkpt>
      <trkpt lat="46.92497" lon="8.58193">
        <ele>671</ele>
        <time>2021-08-10T11:23:04.835Z</time>
      </trkpt>
      <trkpt lat="46.92497" lon="8.58194">
        <ele>670</ele>
        <time>2021-08-10T11:23:05.835Z</time>
      </trkpt>
      <trkpt lat="46.92497" lon="8.58194">
        <ele>670</ele>
        <time>2021-08-10T11:23:06.835Z</time>
      </trkpt>
      <trkpt lat="46.92497" lon="8.58194">
        <ele>670</ele>
        <time>2021-08-10T11:23:07.835Z</time>
      </trkpt>
      <trkpt lat="46.92497" lon="8.58195">
        <ele>670</ele>
        <time>2021-08-10T11:23:08.835Z</time>
      </trkpt>
      <trkpt lat="46.92498" lon="8.58195">
        <ele>670</ele>
        <time>2021-08-10T11:23:09.835Z</time>
      </trkpt>
      <trkpt lat="46.92498" lon="8.58195">
        <ele>671</ele>
        <time>2021-08-10T11:23:10.835Z</time>
      </trkpt>
      <trkpt lat="46.92497" lon="8.58195">
        <ele>671</ele>
        <time>2021-08-10T11:23:11.834Z</time>
      </trkpt>
      <trkpt lat="46.92497" lon="8.58196">
        <ele>672</ele>
        <time>2021-08-10T11:23:12.835Z</time>
      </trkpt>
      <trkpt lat="46.92496" lon="8.58196">
        <ele>672</ele>
        <time>2021-08-10T11:23:13.834Z</time>
      </trkpt>
      <trkpt lat="46.92495" lon="8.58196">
        <ele>673</ele>
        <time>2021-08-10T11:23:14.835Z</time>
      </trkpt>
      <trkpt lat="46.92495" lon="8.58197">
        <ele>673</ele>
        <time>2021-08-10T11:23:15.835Z</time>
      </trkpt>
      <trkpt lat="46.92495" lon="8.58198">
        <ele>673</ele>
        <time>2021-08-10T11:23:16.835Z</time>
      </trkpt>
      <trkpt lat="46.92496" lon="8.582">
        <ele>674</ele>
        <time>2021-08-10T11:23:17.835Z</time>
      </trkpt>
      <trkpt lat="46.92497" lon="8.58202">
        <ele>674</ele>
        <time>2021-08-10T11:23:18.835Z</time>
      </trkpt>
      <trkpt lat="46.92497" lon="8.58203">
        <ele>674</ele>
        <time>2021-08-10T11:23:19.835Z</time>
      </trkpt>
      <trkpt lat="46.92497" lon="8.58205">
        <ele>675</ele>
        <time>2021-08-10T11:23:20.834Z</time>
      </trkpt>
      <trkpt lat="46.92497" lon="8.58205">
        <ele>675</ele>
        <time>2021-08-10T11:23:21.834Z</time>
      </trkpt>
      <trkpt lat="46.92497" lon="8.58205">
        <ele>675</ele>
        <time>2021-08-10T11:23:22.835Z</time>
      </trkpt>
      <trkpt lat="46.92498" lon="8.58206">
        <ele>676</ele>
        <time>2021-08-10T11:23:23.835Z</time>
      </trkpt>
      <trkpt lat="46.92498" lon="8.58207">
        <ele>676</ele>
        <time>2021-08-10T11:23:24.835Z</time>
      </trkpt>
      <trkpt lat="46.92498" lon="8.58208">
        <ele>675</ele>
        <time>2021-08-10T11:23:25.835Z</time>
      </trkpt>
      <trkpt lat="46.92498" lon="8.58209">
        <ele>675</ele>
        <time>2021-08-10T11:23:26.835Z</time>
      </trkpt>
      <trkpt lat="46.92498" lon="8.58211">
        <ele>675</ele>
        <time>2021-08-10T11:23:27.834Z</time>
      </trkpt>
      <trkpt lat="46.92498" lon="8.58212">
        <ele>675</ele>
        <time>2021-08-10T11:23:28.835Z</time>
      </trkpt>
      <trkpt lat="46.92498" lon="8.58214">
        <ele>675</ele>
        <time>2021-08-10T11:23:29.835Z</time>
      </trkpt>
      <trkpt lat="46.92498" lon="8.58215">
        <ele>675</ele>
        <time>2021-08-10T11:23:30.835Z</time>
      </trkpt>
      <trkpt lat="46.92498" lon="8.58217">
        <ele>675</ele>
        <time>2021-08-10T11:23:31.835Z</time>
      </trkpt>
      <trkpt lat="46.92498" lon="8.58219">
        <ele>675</ele>
        <time>2021-08-10T11:23:32.835Z</time>
      </trkpt>
      <trkpt lat="46.92499" lon="8.58221">
        <ele>676</ele>
        <time>2021-08-10T11:23:33.834Z</time>
      </trkpt>
      <trkpt lat="46.92499" lon="8.58222">
        <ele>676</ele>
        <time>2021-08-10T11:23:34.835Z</time>
      </trkpt>
      <trkpt lat="46.92499" lon="8.58224">
        <ele>676</ele>
        <time>2021-08-10T11:23:35.835Z</time>
      </trkpt>
      <trkpt lat="46.92498" lon="8.58225">
        <ele>677</ele>
        <time>2021-08-10T11:23:36.835Z</time>
      </trkpt>
      <trkpt lat="46.92498" lon="8.58227">
        <ele>677</ele>
        <time>2021-08-10T11:23:37.835Z</time>
      </trkpt>
      <trkpt lat="46.92498" lon="8.58228">
        <ele>677</ele>
        <time>2021-08-10T11:23:38.834Z</time>
      </trkpt>
      <trkpt lat="46.92498" lon="8.58229">
        <ele>677</ele>
        <time>2021-08-10T11:23:39.835Z</time>
      </trkpt>
      <trkpt lat="46.92498" lon="8.58231">
        <ele>676</ele>
        <time>2021-08-10T11:23:40.835Z</time>
      </trkpt>
      <trkpt lat="46.92498" lon="8.58232">
        <ele>676</ele>
        <time>2021-08-10T11:23:41.835Z</time>
      </trkpt>
      <trkpt lat="46.92498" lon="8.58234">
        <ele>676</ele>
        <time>2021-08-10T11:23:42.834Z</time>
      </trkpt>
      <trkpt lat="46.92498" lon="8.58235">
        <ele>676</ele>
        <time>2021-08-10T11:23:43.835Z</time>
      </trkpt>
      <trkpt lat="46.92498" lon="8.58236">
        <ele>676</ele>
        <time>2021-08-10T11:23:44.835Z</time>
      </trkpt>
      <trkpt lat="46.92499" lon="8.58238">
        <ele>675</ele>
        <time>2021-08-10T11:23:45.835Z</time>
      </trkpt>
      <trkpt lat="46.92498" lon="8.58239">
        <ele>675</ele>
        <time>2021-08-10T11:23:46.835Z</time>
      </trkpt>
      <trkpt lat="46.92497" lon="8.58241">
        <ele>675</ele>
        <time>2021-08-10T11:23:47.835Z</time>
      </trkpt>
      <trkpt lat="46.92496" lon="8.58242">
        <ele>675</ele>
        <time>2021-08-10T11:23:48.834Z</time>
      </trkpt>
      <trkpt lat="46.92496" lon="8.58243">
        <ele>674</ele>
        <time>2021-08-10T11:23:49.834Z</time>
      </trkpt>
      <trkpt lat="46.92497" lon="8.58242">
        <ele>674</ele>
        <time>2021-08-10T11:23:50.835Z</time>
      </trkpt>
      <trkpt lat="46.92497" lon="8.58242">
        <ele>674</ele>
        <time>2021-08-10T11:23:51.834Z</time>
      </trkpt>
      <trkpt lat="46.92497" lon="8.58242">
        <ele>673</ele>
        <time>2021-08-10T11:23:52.834Z</time>
      </trkpt>
      <trkpt lat="46.92497" lon="8.58243">
        <ele>673</ele>
        <time>2021-08-10T11:23:53.834Z</time>
      </trkpt>
      <trkpt lat="46.92496" lon="8.58244">
        <ele>673</ele>
        <time>2021-08-10T11:23:54.835Z</time>
      </trkpt>
      <trkpt lat="46.92496" lon="8.58245">
        <ele>673</ele>
        <time>2021-08-10T11:23:55.835Z</time>
      </trkpt>
      <trkpt lat="46.92496" lon="8.58245">
        <ele>673</ele>
        <time>2021-08-10T11:23:56.834Z</time>
      </trkpt>
      <trkpt lat="46.92496" lon="8.58246">
        <ele>673</ele>
        <time>2021-08-10T11:23:57.834Z</time>
      </trkpt>
      <trkpt lat="46.92496" lon="8.58247">
        <ele>673</ele>
        <time>2021-08-10T11:23:58.835Z</time>
      </trkpt>
      <trkpt lat="46.92496" lon="8.58247">
        <ele>673</ele>
        <time>2021-08-10T11:23:59.835Z</time>
      </trkpt>
      <trkpt lat="46.92495" lon="8.58248">
        <ele>673</ele>
        <time>2021-08-10T11:24:00.834Z</time>
      </trkpt>
      <trkpt lat="46.92496" lon="8.58248">
        <ele>673</ele>
        <time>2021-08-10T11:24:01.835Z</time>
      </trkpt>
      <trkpt lat="46.92496" lon="8.58248">
        <ele>673</ele>
        <time>2021-08-10T11:24:02.835Z</time>
      </trkpt>
      <trkpt lat="46.92497" lon="8.58249">
        <ele>673</ele>
        <time>2021-08-10T11:24:03.834Z</time>
      </trkpt>
      <trkpt lat="46.92496" lon="8.5825">
        <ele>673</ele>
        <time>2021-08-10T11:24:04.834Z</time>
      </trkpt>
      <trkpt lat="46.92496" lon="8.58251">
        <ele>674</ele>
        <time>2021-08-10T11:24:05.835Z</time>
      </trkpt>
      <trkpt lat="46.92495" lon="8.58253">
        <ele>674</ele>
        <time>2021-08-10T11:24:06.835Z</time>
      </trkpt>
      <trkpt lat="46.92495" lon="8.58254">
        <ele>674</ele>
        <time>2021-08-10T11:24:07.835Z</time>
      </trkpt>
      <trkpt lat="46.92495" lon="8.58255">
        <ele>674</ele>
        <time>2021-08-10T11:24:08.835Z</time>
      </trkpt>
      <trkpt lat="46.92495" lon="8.58255">
        <ele>674</ele>
        <time>2021-08-10T11:24:09.834Z</time>
      </trkpt>
      <trkpt lat="46.92495" lon="8.58256">
        <ele>674</ele>
        <time>2021-08-10T11:24:10.835Z</time>
      </trkpt>
      <trkpt lat="46.92494" lon="8.58256">
        <ele>674</ele>
        <time>2021-08-10T11:24:11.835Z</time>
      </trkpt>
      <trkpt lat="46.92495" lon="8.58256">
        <ele>674</ele>
        <time>2021-08-10T11:24:12.834Z</time>
      </trkpt>
      <trkpt lat="46.92495" lon="8.58256">
        <ele>674</ele>
        <time>2021-08-10T11:24:13.835Z</time>
      </trkpt>
      <trkpt lat="46.92495" lon="8.58257">
        <ele>674</ele>
        <time>2021-08-10T11:24:14.835Z</time>
      </trkpt>
      <trkpt lat="46.92494" lon="8.58258">
        <ele>674</ele>
        <time>2021-08-10T11:24:15.835Z</time>
      </trkpt>
      <trkpt lat="46.92494" lon="8.58259">
        <ele>674</ele>
        <time>2021-08-10T11:24:16.835Z</time>
      </trkpt>
      <trkpt lat="46.92493" lon="8.5826">
        <ele>675</ele>
        <time>2021-08-10T11:24:17.835Z</time>
      </trkpt>
      <trkpt lat="46.92493" lon="8.5826">
        <ele>675</ele>
        <time>2021-08-10T11:24:18.834Z</time>
      </trkpt>
      <trkpt lat="46.92492" lon="8.58261">
        <ele>675</ele>
        <time>2021-08-10T11:24:19.835Z</time>
      </trkpt>
      <trkpt lat="46.92491" lon="8.58262">
        <ele>675</ele>
        <time>2021-08-10T11:24:20.835Z</time>
      </trkpt>
      <trkpt lat="46.9249" lon="8.58263">
        <ele>675</ele>
        <time>2021-08-10T11:24:21.834Z</time>
      </trkpt>
      <trkpt lat="46.9249" lon="8.58263">
        <ele>675</ele>
        <time>2021-08-10T11:24:22.834Z</time>
      </trkpt>
      <trkpt lat="46.92489" lon="8.58264">
        <ele>675</ele>
        <time>2021-08-10T11:24:23.835Z</time>
      </trkpt>
      <trkpt lat="46.9249" lon="8.58264">
        <ele>675</ele>
        <time>2021-08-10T11:24:24.835Z</time>
      </trkpt>
      <trkpt lat="46.9249" lon="8.58264">
        <ele>674</ele>
        <time>2021-08-10T11:24:25.835Z</time>
      </trkpt>
      <trkpt lat="46.92492" lon="8.58265">
        <ele>674</ele>
        <time>2021-08-10T11:24:26.835Z</time>
      </trkpt>
      <trkpt lat="46.92492" lon="8.58266">
        <ele>674</ele>
        <time>2021-08-10T11:24:27.835Z</time>
      </trkpt>
      <trkpt lat="46.92492" lon="8.58266">
        <ele>674</ele>
        <time>2021-08-10T11:24:28.835Z</time>
      </trkpt>
      <trkpt lat="46.92493" lon="8.58266">
        <ele>674</ele>
        <time>2021-08-10T11:24:29.835Z</time>
      </trkpt>
      <trkpt lat="46.92492" lon="8.58266">
        <ele>674</ele>
        <time>2021-08-10T11:24:30.835Z</time>
      </trkpt>
      <trkpt lat="46.92492" lon="8.58266">
        <ele>675</ele>
        <time>2021-08-10T11:24:31.834Z</time>
      </trkpt>
      <trkpt lat="46.92491" lon="8.58266">
        <ele>675</ele>
        <time>2021-08-10T11:24:32.835Z</time>
      </trkpt>
      <trkpt lat="46.92491" lon="8.58266">
        <ele>676</ele>
        <time>2021-08-10T11:24:33.835Z</time>
      </trkpt>
      <trkpt lat="46.92491" lon="8.58267">
        <ele>676</ele>
        <time>2021-08-10T11:24:34.835Z</time>
      </trkpt>
      <trkpt lat="46.9249" lon="8.58267">
        <ele>676</ele>
        <time>2021-08-10T11:24:35.834Z</time>
      </trkpt>
      <trkpt lat="46.92491" lon="8.58267">
        <ele>676</ele>
        <time>2021-08-10T11:24:36.834Z</time>
      </trkpt>
      <trkpt lat="46.9249" lon="8.58267">
        <ele>677</ele>
        <time>2021-08-10T11:24:37.835Z</time>
      </trkpt>
      <trkpt lat="46.92489" lon="8.58268">
        <ele>677</ele>
        <time>2021-08-10T11:24:38.836Z</time>
      </trkpt>
      <trkpt lat="46.92489" lon="8.58269">
        <ele>677</ele>
        <time>2021-08-10T11:24:39.835Z</time>
      </trkpt>
      <trkpt lat="46.92489" lon="8.5827">
        <ele>678</ele>
        <time>2021-08-10T11:24:40.836Z</time>
      </trkpt>
      <trkpt lat="46.92488" lon="8.58271">
        <ele>678</ele>
        <time>2021-08-10T11:24:41.835Z</time>
      </trkpt>
      <trkpt lat="46.92488" lon="8.58272">
        <ele>678</ele>
        <time>2021-08-10T11:24:42.836Z</time>
      </trkpt>
      <trkpt lat="46.92487" lon="8.58273">
        <ele>678</ele>
        <time>2021-08-10T11:24:43.835Z</time>
      </trkpt>
      <trkpt lat="46.92486" lon="8.58274">
        <ele>678</ele>
        <time>2021-08-10T11:24:44.836Z</time>
      </trkpt>
      <trkpt lat="46.92486" lon="8.58274">
        <ele>678</ele>
        <time>2021-08-10T11:24:45.836Z</time>
      </trkpt>
      <trkpt lat="46.92485" lon="8.58275">
        <ele>679</ele>
        <time>2021-08-10T11:24:46.836Z</time>
      </trkpt>
      <trkpt lat="46.92483" lon="8.58276">
        <ele>679</ele>
        <time>2021-08-10T11:24:47.836Z</time>
      </trkpt>
      <trkpt lat="46.92481" lon="8.58277">
        <ele>679</ele>
        <time>2021-08-10T11:24:48.836Z</time>
      </trkpt>
      <trkpt lat="46.92481" lon="8.58278">
        <ele>679</ele>
        <time>2021-08-10T11:24:49.836Z</time>
      </trkpt>
      <trkpt lat="46.9248" lon="8.58278">
        <ele>680</ele>
        <time>2021-08-10T11:24:50.836Z</time>
      </trkpt>
      <trkpt lat="46.9248" lon="8.58279">
        <ele>680</ele>
        <time>2021-08-10T11:24:51.836Z</time>
      </trkpt>
      <trkpt lat="46.9248" lon="8.58281">
        <ele>680</ele>
        <time>2021-08-10T11:24:52.835Z</time>
      </trkpt>
      <trkpt lat="46.9248" lon="8.58282">
        <ele>680</ele>
        <time>2021-08-10T11:24:53.836Z</time>
      </trkpt>
      <trkpt lat="46.92479" lon="8.58283">
        <ele>680</ele>
        <time>2021-08-10T11:24:54.836Z</time>
      </trkpt>
      <trkpt lat="46.92479" lon="8.58284">
        <ele>680</ele>
        <time>2021-08-10T11:24:55.836Z</time>
      </trkpt>
      <trkpt lat="46.92479" lon="8.58285">
        <ele>680</ele>
        <time>2021-08-10T11:24:56.836Z</time>
      </trkpt>
      <trkpt lat="46.92479" lon="8.58287">
        <ele>680</ele>
        <time>2021-08-10T11:24:57.836Z</time>
      </trkpt>
      <trkpt lat="46.92479" lon="8.58288">
        <ele>681</ele>
        <time>2021-08-10T11:24:58.836Z</time>
      </trkpt>
      <trkpt lat="46.92479" lon="8.58289">
        <ele>681</ele>
        <time>2021-08-10T11:24:59.836Z</time>
      </trkpt>
      <trkpt lat="46.92479" lon="8.58289">
        <ele>681</ele>
        <time>2021-08-10T11:25:00.835Z</time>
      </trkpt>
      <trkpt lat="46.92478" lon="8.58289">
        <ele>681</ele>
        <time>2021-08-10T11:25:01.836Z</time>
      </trkpt>
      <trkpt lat="46.92478" lon="8.58289">
        <ele>681</ele>
        <time>2021-08-10T11:25:02.836Z</time>
      </trkpt>
      <trkpt lat="46.92479" lon="8.58288">
        <ele>681</ele>
        <time>2021-08-10T11:25:03.835Z</time>
      </trkpt>
      <trkpt lat="46.92478" lon="8.58289">
        <ele>682</ele>
        <time>2021-08-10T11:25:04.835Z</time>
      </trkpt>
      <trkpt lat="46.92478" lon="8.58289">
        <ele>682</ele>
        <time>2021-08-10T11:25:05.836Z</time>
      </trkpt>
      <trkpt lat="46.92479" lon="8.5829">
        <ele>682</ele>
        <time>2021-08-10T11:25:06.835Z</time>
      </trkpt>
      <trkpt lat="46.92479" lon="8.58291">
        <ele>682</ele>
        <time>2021-08-10T11:25:07.836Z</time>
      </trkpt>
      <trkpt lat="46.92478" lon="8.58292">
        <ele>682</ele>
        <time>2021-08-10T11:25:08.836Z</time>
      </trkpt>
      <trkpt lat="46.92477" lon="8.58292">
        <ele>682</ele>
        <time>2021-08-10T11:25:09.836Z</time>
      </trkpt>
      <trkpt lat="46.92477" lon="8.58293">
        <ele>682</ele>
        <time>2021-08-10T11:25:10.835Z</time>
      </trkpt>
      <trkpt lat="46.92476" lon="8.58294">
        <ele>682</ele>
        <time>2021-08-10T11:25:11.835Z</time>
      </trkpt>
      <trkpt lat="46.92476" lon="8.58295">
        <ele>682</ele>
        <time>2021-08-10T11:25:12.836Z</time>
      </trkpt>
      <trkpt lat="46.92476" lon="8.58296">
        <ele>682</ele>
        <time>2021-08-10T11:25:13.836Z</time>
      </trkpt>
      <trkpt lat="46.92476" lon="8.58297">
        <ele>682</ele>
        <time>2021-08-10T11:25:14.836Z</time>
      </trkpt>
      <trkpt lat="46.92477" lon="8.58298">
        <ele>682</ele>
        <time>2021-08-10T11:25:15.836Z</time>
      </trkpt>
      <trkpt lat="46.92477" lon="8.58298">
        <ele>682</ele>
        <time>2021-08-10T11:25:16.836Z</time>
      </trkpt>
      <trkpt lat="46.92477" lon="8.58299">
        <ele>682</ele>
        <time>2021-08-10T11:25:17.835Z</time>
      </trkpt>
      <trkpt lat="46.92477" lon="8.583">
        <ele>682</ele>
        <time>2021-08-10T11:25:18.836Z</time>
      </trkpt>
      <trkpt lat="46.92477" lon="8.583">
        <ele>682</ele>
        <time>2021-08-10T11:25:19.836Z</time>
      </trkpt>
      <trkpt lat="46.92476" lon="8.58301">
        <ele>683</ele>
        <time>2021-08-10T11:25:20.835Z</time>
      </trkpt>
      <trkpt lat="46.92475" lon="8.58302">
        <ele>683</ele>
        <time>2021-08-10T11:25:21.836Z</time>
      </trkpt>
      <trkpt lat="46.92475" lon="8.58302">
        <ele>683</ele>
        <time>2021-08-10T11:25:22.836Z</time>
      </trkpt>
      <trkpt lat="46.92475" lon="8.58303">
        <ele>684</ele>
        <time>2021-08-10T11:25:23.835Z</time>
      </trkpt>
      <trkpt lat="46.92474" lon="8.58303">
        <ele>685</ele>
        <time>2021-08-10T11:25:24.836Z</time>
      </trkpt>
      <trkpt lat="46.92474" lon="8.58303">
        <ele>686</ele>
        <time>2021-08-10T11:25:25.836Z</time>
      </trkpt>
      <trkpt lat="46.92474" lon="8.58307">
        <ele>692</ele>
        <time>2021-08-10T11:25:26.836Z</time>
      </trkpt>
      <trkpt lat="46.92474" lon="8.58308">
        <ele>693</ele>
        <time>2021-08-10T11:25:27.836Z</time>
      </trkpt>
      <trkpt lat="46.92473" lon="8.58309">
        <ele>694</ele>
        <time>2021-08-10T11:25:28.835Z</time>
      </trkpt>
      <trkpt lat="46.92472" lon="8.58321">
        <ele>699</ele>
        <time>2021-08-10T11:25:29.836Z</time>
      </trkpt>
      <trkpt lat="46.92471" lon="8.58322">
        <ele>699</ele>
        <time>2021-08-10T11:25:30.836Z</time>
      </trkpt>
      <trkpt lat="46.92471" lon="8.58322">
        <ele>700</ele>
        <time>2021-08-10T11:25:31.835Z</time>
      </trkpt>
      <trkpt lat="46.92472" lon="8.58323">
        <ele>700</ele>
        <time>2021-08-10T11:25:32.835Z</time>
      </trkpt>
      <trkpt lat="46.92473" lon="8.58324">
        <ele>700</ele>
        <time>2021-08-10T11:25:33.835Z</time>
      </trkpt>
      <trkpt lat="46.92472" lon="8.58325">
        <ele>701</ele>
        <time>2021-08-10T11:25:34.836Z</time>
      </trkpt>
      <trkpt lat="46.92472" lon="8.58324">
        <ele>701</ele>
        <time>2021-08-10T11:25:35.836Z</time>
      </trkpt>
      <trkpt lat="46.92471" lon="8.58324">
        <ele>701</ele>
        <time>2021-08-10T11:25:36.835Z</time>
      </trkpt>
      <trkpt lat="46.9247" lon="8.58325">
        <ele>701</ele>
        <time>2021-08-10T11:25:37.835Z</time>
      </trkpt>
      <trkpt lat="46.92468" lon="8.58326">
        <ele>701</ele>
        <time>2021-08-10T11:25:38.836Z</time>
      </trkpt>
      <trkpt lat="46.92468" lon="8.58327">
        <ele>701</ele>
        <time>2021-08-10T11:25:39.836Z</time>
      </trkpt>
      <trkpt lat="46.92468" lon="8.58329">
        <ele>701</ele>
        <time>2021-08-10T11:25:40.836Z</time>
      </trkpt>
      <trkpt lat="46.92468" lon="8.58331">
        <ele>701</ele>
        <time>2021-08-10T11:25:41.836Z</time>
      </trkpt>
      <trkpt lat="46.92469" lon="8.58333">
        <ele>701</ele>
        <time>2021-08-10T11:25:42.835Z</time>
      </trkpt>
      <trkpt lat="46.92469" lon="8.58334">
        <ele>701</ele>
        <time>2021-08-10T11:25:43.836Z</time>
      </trkpt>
      <trkpt lat="46.92469" lon="8.58335">
        <ele>701</ele>
        <time>2021-08-10T11:25:44.835Z</time>
      </trkpt>
      <trkpt lat="46.92469" lon="8.58336">
        <ele>701</ele>
        <time>2021-08-10T11:25:45.835Z</time>
      </trkpt>
      <trkpt lat="46.92469" lon="8.58337">
        <ele>701</ele>
        <time>2021-08-10T11:25:46.836Z</time>
      </trkpt>
      <trkpt lat="46.92469" lon="8.58338">
        <ele>701</ele>
        <time>2021-08-10T11:25:47.836Z</time>
      </trkpt>
      <trkpt lat="46.9247" lon="8.58339">
        <ele>701</ele>
        <time>2021-08-10T11:25:48.835Z</time>
      </trkpt>
      <trkpt lat="46.9247" lon="8.58339">
        <ele>700</ele>
        <time>2021-08-10T11:25:49.835Z</time>
      </trkpt>
      <trkpt lat="46.9247" lon="8.5834">
        <ele>700</ele>
        <time>2021-08-10T11:25:50.836Z</time>
      </trkpt>
      <trkpt lat="46.9247" lon="8.58341">
        <ele>700</ele>
        <time>2021-08-10T11:25:51.836Z</time>
      </trkpt>
      <trkpt lat="46.9247" lon="8.58342">
        <ele>700</ele>
        <time>2021-08-10T11:25:52.837Z</time>
      </trkpt>
      <trkpt lat="46.92471" lon="8.58343">
        <ele>700</ele>
        <time>2021-08-10T11:25:53.836Z</time>
      </trkpt>
      <trkpt lat="46.92471" lon="8.58344">
        <ele>700</ele>
        <time>2021-08-10T11:25:54.836Z</time>
      </trkpt>
      <trkpt lat="46.9247" lon="8.58344">
        <ele>700</ele>
        <time>2021-08-10T11:25:55.837Z</time>
      </trkpt>
      <trkpt lat="46.9247" lon="8.58345">
        <ele>700</ele>
        <time>2021-08-10T11:25:56.837Z</time>
      </trkpt>
      <trkpt lat="46.9247" lon="8.58346">
        <ele>700</ele>
        <time>2021-08-10T11:25:57.836Z</time>
      </trkpt>
      <trkpt lat="46.9247" lon="8.58348">
        <ele>700</ele>
        <time>2021-08-10T11:25:58.837Z</time>
      </trkpt>
      <trkpt lat="46.92469" lon="8.58349">
        <ele>700</ele>
        <time>2021-08-10T11:25:59.837Z</time>
      </trkpt>
      <trkpt lat="46.92469" lon="8.5835">
        <ele>700</ele>
        <time>2021-08-10T11:26:00.837Z</time>
      </trkpt>
      <trkpt lat="46.92469" lon="8.58351">
        <ele>700</ele>
        <time>2021-08-10T11:26:01.837Z</time>
      </trkpt>
      <trkpt lat="46.9247" lon="8.58352">
        <ele>700</ele>
        <time>2021-08-10T11:26:02.837Z</time>
      </trkpt>
      <trkpt lat="46.92469" lon="8.58353">
        <ele>700</ele>
        <time>2021-08-10T11:26:03.837Z</time>
      </trkpt>
      <trkpt lat="46.9247" lon="8.58354">
        <ele>700</ele>
        <time>2021-08-10T11:26:04.837Z</time>
      </trkpt>
      <trkpt lat="46.9247" lon="8.58355">
        <ele>700</ele>
        <time>2021-08-10T11:26:05.836Z</time>
      </trkpt>
      <trkpt lat="46.9247" lon="8.58356">
        <ele>700</ele>
        <time>2021-08-10T11:26:06.836Z</time>
      </trkpt>
      <trkpt lat="46.9247" lon="8.58356">
        <ele>700</ele>
        <time>2021-08-10T11:26:07.837Z</time>
      </trkpt>
      <trkpt lat="46.9247" lon="8.58356">
        <ele>700</ele>
        <time>2021-08-10T11:26:08.837Z</time>
      </trkpt>
      <trkpt lat="46.92469" lon="8.58357">
        <ele>700</ele>
        <time>2021-08-10T11:26:09.836Z</time>
      </trkpt>
      <trkpt lat="46.92469" lon="8.58357">
        <ele>700</ele>
        <time>2021-08-10T11:26:10.837Z</time>
      </trkpt>
      <trkpt lat="46.92469" lon="8.58358">
        <ele>700</ele>
        <time>2021-08-10T11:26:11.837Z</time>
      </trkpt>
      <trkpt lat="46.92469" lon="8.58359">
        <ele>700</ele>
        <time>2021-08-10T11:26:12.837Z</time>
      </trkpt>
      <trkpt lat="46.92469" lon="8.5836">
        <ele>700</ele>
        <time>2021-08-10T11:26:13.837Z</time>
      </trkpt>
      <trkpt lat="46.92469" lon="8.5836">
        <ele>700</ele>
        <time>2021-08-10T11:26:14.837Z</time>
      </trkpt>
      <trkpt lat="46.92469" lon="8.58361">
        <ele>700</ele>
        <time>2021-08-10T11:26:15.836Z</time>
      </trkpt>
      <trkpt lat="46.92469" lon="8.58362">
        <ele>700</ele>
        <time>2021-08-10T11:26:16.836Z</time>
      </trkpt>
      <trkpt lat="46.92469" lon="8.58363">
        <ele>700</ele>
        <time>2021-08-10T11:26:17.836Z</time>
      </trkpt>
      <trkpt lat="46.92469" lon="8.58364">
        <ele>700</ele>
        <time>2021-08-10T11:26:18.837Z</time>
      </trkpt>
      <trkpt lat="46.9247" lon="8.58364">
        <ele>700</ele>
        <time>2021-08-10T11:26:19.836Z</time>
      </trkpt>
      <trkpt lat="46.9247" lon="8.58365">
        <ele>700</ele>
        <time>2021-08-10T11:26:20.837Z</time>
      </trkpt>
      <trkpt lat="46.9247" lon="8.58365">
        <ele>700</ele>
        <time>2021-08-10T11:26:21.837Z</time>
      </trkpt>
      <trkpt lat="46.9247" lon="8.58366">
        <ele>700</ele>
        <time>2021-08-10T11:26:22.836Z</time>
      </trkpt>
      <trkpt lat="46.9247" lon="8.58367">
        <ele>700</ele>
        <time>2021-08-10T11:26:23.837Z</time>
      </trkpt>
      <trkpt lat="46.9247" lon="8.58367">
        <ele>700</ele>
        <time>2021-08-10T11:26:24.837Z</time>
      </trkpt>
      <trkpt lat="46.92469" lon="8.58367">
        <ele>700</ele>
        <time>2021-08-10T11:26:25.837Z</time>
      </trkpt>
      <trkpt lat="46.92469" lon="8.58368">
        <ele>699</ele>
        <time>2021-08-10T11:26:26.837Z</time>
      </trkpt>
      <trkpt lat="46.92468" lon="8.58369">
        <ele>699</ele>
        <time>2021-08-10T11:26:27.836Z</time>
      </trkpt>
      <trkpt lat="46.92469" lon="8.5837">
        <ele>699</ele>
        <time>2021-08-10T11:26:28.837Z</time>
      </trkpt>
      <trkpt lat="46.9247" lon="8.58371">
        <ele>698</ele>
        <time>2021-08-10T11:26:29.836Z</time>
      </trkpt>
      <trkpt lat="46.9247" lon="8.58372">
        <ele>698</ele>
        <time>2021-08-10T11:26:30.836Z</time>
      </trkpt>
      <trkpt lat="46.9247" lon="8.58373">
        <ele>698</ele>
        <time>2021-08-10T11:26:31.837Z</time>
      </trkpt>
      <trkpt lat="46.9247" lon="8.58373">
        <ele>698</ele>
        <time>2021-08-10T11:26:32.837Z</time>
      </trkpt>
      <trkpt lat="46.9247" lon="8.58374">
        <ele>698</ele>
        <time>2021-08-10T11:26:33.837Z</time>
      </trkpt>
      <trkpt lat="46.9247" lon="8.58375">
        <ele>697</ele>
        <time>2021-08-10T11:26:34.837Z</time>
      </trkpt>
      <trkpt lat="46.9247" lon="8.58377">
        <ele>697</ele>
        <time>2021-08-10T11:26:35.837Z</time>
      </trkpt>
      <trkpt lat="46.92469" lon="8.58377">
        <ele>697</ele>
        <time>2021-08-10T11:26:36.837Z</time>
      </trkpt>
      <trkpt lat="46.92468" lon="8.58378">
        <ele>696</ele>
        <time>2021-08-10T11:26:37.837Z</time>
      </trkpt>
      <trkpt lat="46.92468" lon="8.58378">
        <ele>696</ele>
        <time>2021-08-10T11:26:38.837Z</time>
      </trkpt>
      <trkpt lat="46.92467" lon="8.58378">
        <ele>696</ele>
        <time>2021-08-10T11:26:39.836Z</time>
      </trkpt>
      <trkpt lat="46.92467" lon="8.58379">
        <ele>695</ele>
        <time>2021-08-10T11:26:40.837Z</time>
      </trkpt>
      <trkpt lat="46.92467" lon="8.5838">
        <ele>695</ele>
        <time>2021-08-10T11:26:41.836Z</time>
      </trkpt>
      <trkpt lat="46.92468" lon="8.58381">
        <ele>695</ele>
        <time>2021-08-10T11:26:42.837Z</time>
      </trkpt>
      <trkpt lat="46.92469" lon="8.58382">
        <ele>694</ele>
        <time>2021-08-10T11:26:43.837Z</time>
      </trkpt>
      <trkpt lat="46.9247" lon="8.58383">
        <ele>694</ele>
        <time>2021-08-10T11:26:44.837Z</time>
      </trkpt>
      <trkpt lat="46.9247" lon="8.58383">
        <ele>694</ele>
        <time>2021-08-10T11:26:45.836Z</time>
      </trkpt>
      <trkpt lat="46.92469" lon="8.58384">
        <ele>693</ele>
        <time>2021-08-10T11:26:46.837Z</time>
      </trkpt>
      <trkpt lat="46.92469" lon="8.58385">
        <ele>693</ele>
        <time>2021-08-10T11:26:47.837Z</time>
      </trkpt>
      <trkpt lat="46.92469" lon="8.58387">
        <ele>693</ele>
        <time>2021-08-10T11:26:48.836Z</time>
      </trkpt>
      <trkpt lat="46.92469" lon="8.58387">
        <ele>693</ele>
        <time>2021-08-10T11:26:49.836Z</time>
      </trkpt>
      <trkpt lat="46.92468" lon="8.58388">
        <ele>693</ele>
        <time>2021-08-10T11:26:50.837Z</time>
      </trkpt>
      <trkpt lat="46.92468" lon="8.58389">
        <ele>693</ele>
        <time>2021-08-10T11:26:51.836Z</time>
      </trkpt>
      <trkpt lat="46.92467" lon="8.5839">
        <ele>692</ele>
        <time>2021-08-10T11:26:52.837Z</time>
      </trkpt>
      <trkpt lat="46.92466" lon="8.58391">
        <ele>692</ele>
        <time>2021-08-10T11:26:53.837Z</time>
      </trkpt>
      <trkpt lat="46.92466" lon="8.58392">
        <ele>693</ele>
        <time>2021-08-10T11:26:54.837Z</time>
      </trkpt>
      <trkpt lat="46.92466" lon="8.58393">
        <ele>693</ele>
        <time>2021-08-10T11:26:55.837Z</time>
      </trkpt>
      <trkpt lat="46.92466" lon="8.58394">
        <ele>693</ele>
        <time>2021-08-10T11:26:56.837Z</time>
      </trkpt>
      <trkpt lat="46.92465" lon="8.58396">
        <ele>693</ele>
        <time>2021-08-10T11:26:57.836Z</time>
      </trkpt>
      <trkpt lat="46.92465" lon="8.58397">
        <ele>693</ele>
        <time>2021-08-10T11:26:58.837Z</time>
      </trkpt>
      <trkpt lat="46.92465" lon="8.58398">
        <ele>693</ele>
        <time>2021-08-10T11:26:59.836Z</time>
      </trkpt>
      <trkpt lat="46.92466" lon="8.58399">
        <ele>693</ele>
        <time>2021-08-10T11:27:00.837Z</time>
      </trkpt>
      <trkpt lat="46.92466" lon="8.584">
        <ele>693</ele>
        <time>2021-08-10T11:27:01.837Z</time>
      </trkpt>
      <trkpt lat="46.92466" lon="8.58401">
        <ele>693</ele>
        <time>2021-08-10T11:27:02.837Z</time>
      </trkpt>
      <trkpt lat="46.92466" lon="8.58402">
        <ele>693</ele>
        <time>2021-08-10T11:27:03.836Z</time>
      </trkpt>
      <trkpt lat="46.92464" lon="8.58403">
        <ele>693</ele>
        <time>2021-08-10T11:27:04.837Z</time>
      </trkpt>
      <trkpt lat="46.92463" lon="8.58404">
        <ele>693</ele>
        <time>2021-08-10T11:27:05.836Z</time>
      </trkpt>
      <trkpt lat="46.92462" lon="8.58405">
        <ele>693</ele>
        <time>2021-08-10T11:27:06.837Z</time>
      </trkpt>
      <trkpt lat="46.92461" lon="8.58405">
        <ele>693</ele>
        <time>2021-08-10T11:27:07.836Z</time>
      </trkpt>
      <trkpt lat="46.92461" lon="8.58405">
        <ele>692</ele>
        <time>2021-08-10T11:27:08.836Z</time>
      </trkpt>
      <trkpt lat="46.9246" lon="8.58406">
        <ele>692</ele>
        <time>2021-08-10T11:27:09.837Z</time>
      </trkpt>
      <trkpt lat="46.9246" lon="8.58406">
        <ele>692</ele>
        <time>2021-08-10T11:27:10.836Z</time>
      </trkpt>
      <trkpt lat="46.9246" lon="8.58407">
        <ele>691</ele>
        <time>2021-08-10T11:27:11.837Z</time>
      </trkpt>
      <trkpt lat="46.92459" lon="8.58406">
        <ele>691</ele>
        <time>2021-08-10T11:27:12.836Z</time>
      </trkpt>
      <trkpt lat="46.92459" lon="8.58406">
        <ele>691</ele>
        <time>2021-08-10T11:27:13.837Z</time>
      </trkpt>
      <trkpt lat="46.9246" lon="8.58406">
        <ele>691</ele>
        <time>2021-08-10T11:27:14.837Z</time>
      </trkpt>
      <trkpt lat="46.92459" lon="8.58407">
        <ele>691</ele>
        <time>2021-08-10T11:27:15.837Z</time>
      </trkpt>
      <trkpt lat="46.92459" lon="8.58408">
        <ele>691</ele>
        <time>2021-08-10T11:27:16.837Z</time>
      </trkpt>
      <trkpt lat="46.92458" lon="8.58409">
        <ele>691</ele>
        <time>2021-08-10T11:27:17.836Z</time>
      </trkpt>
      <trkpt lat="46.92458" lon="8.5841">
        <ele>691</ele>
        <time>2021-08-10T11:27:18.837Z</time>
      </trkpt>
      <trkpt lat="46.92457" lon="8.58411">
        <ele>691</ele>
        <time>2021-08-10T11:27:19.836Z</time>
      </trkpt>
      <trkpt lat="46.92456" lon="8.58412">
        <ele>690</ele>
        <time>2021-08-10T11:27:20.837Z</time>
      </trkpt>
      <trkpt lat="46.92457" lon="8.58413">
        <ele>690</ele>
        <time>2021-08-10T11:27:21.837Z</time>
      </trkpt>
      <trkpt lat="46.92458" lon="8.58415">
        <ele>690</ele>
        <time>2021-08-10T11:27:22.837Z</time>
      </trkpt>
      <trkpt lat="46.92458" lon="8.58418">
        <ele>691</ele>
        <time>2021-08-10T11:27:23.838Z</time>
      </trkpt>
      <trkpt lat="46.92458" lon="8.58418">
        <ele>691</ele>
        <time>2021-08-10T11:27:24.837Z</time>
      </trkpt>
      <trkpt lat="46.92457" lon="8.58418">
        <ele>691</ele>
        <time>2021-08-10T11:27:25.838Z</time>
      </trkpt>
      <trkpt lat="46.92456" lon="8.58419">
        <ele>691</ele>
        <time>2021-08-10T11:27:26.838Z</time>
      </trkpt>
      <trkpt lat="46.92454" lon="8.58419">
        <ele>691</ele>
        <time>2021-08-10T11:27:27.837Z</time>
      </trkpt>
      <trkpt lat="46.92454" lon="8.5842">
        <ele>691</ele>
        <time>2021-08-10T11:27:28.838Z</time>
      </trkpt>
      <trkpt lat="46.92452" lon="8.58421">
        <ele>691</ele>
        <time>2021-08-10T11:27:29.838Z</time>
      </trkpt>
      <trkpt lat="46.92452" lon="8.58422">
        <ele>691</ele>
        <time>2021-08-10T11:27:30.837Z</time>
      </trkpt>
      <trkpt lat="46.92451" lon="8.58423">
        <ele>691</ele>
        <time>2021-08-10T11:27:31.837Z</time>
      </trkpt>
      <trkpt lat="46.92451" lon="8.58425">
        <ele>691</ele>
        <time>2021-08-10T11:27:32.837Z</time>
      </trkpt>
      <trkpt lat="46.9245" lon="8.58427">
        <ele>691</ele>
        <time>2021-08-10T11:27:33.838Z</time>
      </trkpt>
      <trkpt lat="46.92449" lon="8.58428">
        <ele>690</ele>
        <time>2021-08-10T11:27:34.838Z</time>
      </trkpt>
      <trkpt lat="46.92449" lon="8.58429">
        <ele>690</ele>
        <time>2021-08-10T11:27:35.837Z</time>
      </trkpt>
      <trkpt lat="46.92449" lon="8.5843">
        <ele>690</ele>
        <time>2021-08-10T11:27:36.838Z</time>
      </trkpt>
      <trkpt lat="46.92448" lon="8.58432">
        <ele>690</ele>
        <time>2021-08-10T11:27:37.838Z</time>
      </trkpt>
      <trkpt lat="46.92448" lon="8.58432">
        <ele>690</ele>
        <time>2021-08-10T11:27:38.838Z</time>
      </trkpt>
      <trkpt lat="46.92448" lon="8.58434">
        <ele>690</ele>
        <time>2021-08-10T11:27:39.838Z</time>
      </trkpt>
      <trkpt lat="46.92447" lon="8.58435">
        <ele>690</ele>
        <time>2021-08-10T11:27:40.838Z</time>
      </trkpt>
      <trkpt lat="46.92448" lon="8.58436">
        <ele>690</ele>
        <time>2021-08-10T11:27:41.838Z</time>
      </trkpt>
      <trkpt lat="46.92448" lon="8.58438">
        <ele>690</ele>
        <time>2021-08-10T11:27:42.838Z</time>
      </trkpt>
      <trkpt lat="46.92449" lon="8.58439">
        <ele>689</ele>
        <time>2021-08-10T11:27:43.837Z</time>
      </trkpt>
      <trkpt lat="46.9245" lon="8.5844">
        <ele>689</ele>
        <time>2021-08-10T11:27:44.838Z</time>
      </trkpt>
      <trkpt lat="46.92449" lon="8.58442">
        <ele>689</ele>
        <time>2021-08-10T11:27:45.838Z</time>
      </trkpt>
      <trkpt lat="46.92446" lon="8.58444">
        <ele>689</ele>
        <time>2021-08-10T11:27:46.837Z</time>
      </trkpt>
      <trkpt lat="46.92443" lon="8.58445">
        <ele>689</ele>
        <time>2021-08-10T11:27:47.837Z</time>
      </trkpt>
      <trkpt lat="46.9244" lon="8.58446">
        <ele>689</ele>
        <time>2021-08-10T11:27:48.838Z</time>
      </trkpt>
      <trkpt lat="46.92438" lon="8.58447">
        <ele>689</ele>
        <time>2021-08-10T11:27:49.838Z</time>
      </trkpt>
      <trkpt lat="46.92435" lon="8.58449">
        <ele>689</ele>
        <time>2021-08-10T11:27:51.837Z</time>
      </trkpt>
      <trkpt lat="46.92434" lon="8.58449">
        <ele>689</ele>
        <time>2021-08-10T11:27:52.838Z</time>
      </trkpt>
      <trkpt lat="46.92432" lon="8.58449">
        <ele>689</ele>
        <time>2021-08-10T11:27:53.837Z</time>
      </trkpt>
      <trkpt lat="46.92433" lon="8.58449">
        <ele>689</ele>
        <time>2021-08-10T11:27:54.837Z</time>
      </trkpt>
      <trkpt lat="46.92433" lon="8.58448">
        <ele>689</ele>
        <time>2021-08-10T11:27:55.838Z</time>
      </trkpt>
      <trkpt lat="46.92433" lon="8.58448">
        <ele>689</ele>
        <time>2021-08-10T11:27:56.837Z</time>
      </trkpt>
      <trkpt lat="46.92433" lon="8.58448">
        <ele>689</ele>
        <time>2021-08-10T11:27:57.837Z</time>
      </trkpt>
      <trkpt lat="46.92432" lon="8.58449">
        <ele>689</ele>
        <time>2021-08-10T11:27:58.838Z</time>
      </trkpt>
      <trkpt lat="46.92432" lon="8.5845">
        <ele>689</ele>
        <time>2021-08-10T11:27:59.838Z</time>
      </trkpt>
      <trkpt lat="46.92431" lon="8.58452">
        <ele>689</ele>
        <time>2021-08-10T11:28:00.837Z</time>
      </trkpt>
      <trkpt lat="46.9243" lon="8.58454">
        <ele>689</ele>
        <time>2021-08-10T11:28:01.837Z</time>
      </trkpt>
      <trkpt lat="46.92429" lon="8.58455">
        <ele>689</ele>
        <time>2021-08-10T11:28:02.837Z</time>
      </trkpt>
      <trkpt lat="46.92429" lon="8.58456">
        <ele>689</ele>
        <time>2021-08-10T11:28:03.837Z</time>
      </trkpt>
      <trkpt lat="46.92428" lon="8.58457">
        <ele>689</ele>
        <time>2021-08-10T11:28:04.837Z</time>
      </trkpt>
      <trkpt lat="46.92428" lon="8.58458">
        <ele>688</ele>
        <time>2021-08-10T11:28:05.838Z</time>
      </trkpt>
      <trkpt lat="46.92427" lon="8.58458">
        <ele>688</ele>
        <time>2021-08-10T11:28:06.838Z</time>
      </trkpt>
      <trkpt lat="46.92428" lon="8.58459">
        <ele>688</ele>
        <time>2021-08-10T11:28:07.838Z</time>
      </trkpt>
      <trkpt lat="46.92428" lon="8.5846">
        <ele>688</ele>
        <time>2021-08-10T11:28:08.838Z</time>
      </trkpt>
      <trkpt lat="46.92428" lon="8.5846">
        <ele>688</ele>
        <time>2021-08-10T11:28:09.838Z</time>
      </trkpt>
      <trkpt lat="46.92428" lon="8.5846">
        <ele>688</ele>
        <time>2021-08-10T11:28:10.838Z</time>
      </trkpt>
      <trkpt lat="46.92427" lon="8.5846">
        <ele>688</ele>
        <time>2021-08-10T11:28:11.838Z</time>
      </trkpt>
      <trkpt lat="46.92427" lon="8.58461">
        <ele>688</ele>
        <time>2021-08-10T11:28:12.838Z</time>
      </trkpt>
      <trkpt lat="46.92427" lon="8.58461">
        <ele>688</ele>
        <time>2021-08-10T11:28:13.838Z</time>
      </trkpt>
      <trkpt lat="46.92425" lon="8.58461">
        <ele>687</ele>
        <time>2021-08-10T11:28:14.838Z</time>
      </trkpt>
      <trkpt lat="46.92424" lon="8.58463">
        <ele>687</ele>
        <time>2021-08-10T11:28:15.837Z</time>
      </trkpt>
      <trkpt lat="46.92424" lon="8.58465">
        <ele>687</ele>
        <time>2021-08-10T11:28:16.838Z</time>
      </trkpt>
      <trkpt lat="46.92423" lon="8.58467">
        <ele>687</ele>
        <time>2021-08-10T11:28:17.837Z</time>
      </trkpt>
      <trkpt lat="46.92422" lon="8.58469">
        <ele>687</ele>
        <time>2021-08-10T11:28:18.837Z</time>
      </trkpt>
      <trkpt lat="46.92421" lon="8.58471">
        <ele>687</ele>
        <time>2021-08-10T11:28:19.838Z</time>
      </trkpt>
      <trkpt lat="46.92421" lon="8.58472">
        <ele>687</ele>
        <time>2021-08-10T11:28:20.838Z</time>
      </trkpt>
      <trkpt lat="46.92421" lon="8.58472">
        <ele>687</ele>
        <time>2021-08-10T11:28:26.020Z</time>
      </trkpt>
      <trkpt lat="46.92421" lon="8.58472">
        <ele>687</ele>
        <time>2021-08-10T11:28:27.020Z</time>
      </trkpt>
      <trkpt lat="46.92421" lon="8.58472">
        <ele>687</ele>
        <time>2021-08-10T11:28:28.022Z</time>
      </trkpt>
      <trkpt lat="46.9242" lon="8.58472">
        <ele>687</ele>
        <time>2021-08-10T11:28:29.022Z</time>
      </trkpt>
      <trkpt lat="46.92419" lon="8.58473">
        <ele>687</ele>
        <time>2021-08-10T11:28:30.022Z</time>
      </trkpt>
      <trkpt lat="46.92417" lon="8.58473">
        <ele>688</ele>
        <time>2021-08-10T11:28:31.021Z</time>
      </trkpt>
      <trkpt lat="46.92416" lon="8.58473">
        <ele>688</ele>
        <time>2021-08-10T11:28:32.022Z</time>
      </trkpt>
      <trkpt lat="46.92414" lon="8.58473">
        <ele>688</ele>
        <time>2021-08-10T11:28:33.022Z</time>
      </trkpt>
      <trkpt lat="46.92413" lon="8.58472">
        <ele>688</ele>
        <time>2021-08-10T11:28:34.021Z</time>
      </trkpt>
      <trkpt lat="46.92411" lon="8.58472">
        <ele>688</ele>
        <time>2021-08-10T11:28:35.021Z</time>
      </trkpt>
      <trkpt lat="46.9241" lon="8.58472">
        <ele>687</ele>
        <time>2021-08-10T11:28:36.021Z</time>
      </trkpt>
      <trkpt lat="46.92408" lon="8.58472">
        <ele>687</ele>
        <time>2021-08-10T11:28:37.022Z</time>
      </trkpt>
      <trkpt lat="46.92407" lon="8.58473">
        <ele>687</ele>
        <time>2021-08-10T11:28:38.022Z</time>
      </trkpt>
      <trkpt lat="46.92405" lon="8.58473">
        <ele>687</ele>
        <time>2021-08-10T11:28:39.021Z</time>
      </trkpt>
      <trkpt lat="46.92405" lon="8.58473">
        <ele>687</ele>
        <time>2021-08-10T11:28:40.022Z</time>
      </trkpt>
      <trkpt lat="46.92407" lon="8.58475">
        <ele>687</ele>
        <time>2021-08-10T11:28:41.021Z</time>
      </trkpt>
      <trkpt lat="46.92407" lon="8.58475">
        <ele>687</ele>
        <time>2021-08-10T11:28:42.022Z</time>
      </trkpt>
      <trkpt lat="46.92406" lon="8.58473">
        <ele>687</ele>
        <time>2021-08-10T11:28:43.021Z</time>
      </trkpt>
      <trkpt lat="46.92409" lon="8.58471">
        <ele>688</ele>
        <time>2021-08-10T11:28:44.022Z</time>
      </trkpt>
      <trkpt lat="46.92411" lon="8.5847">
        <ele>688</ele>
        <time>2021-08-10T11:28:45.021Z</time>
      </trkpt>
      <trkpt lat="46.92414" lon="8.5847">
        <ele>688</ele>
        <time>2021-08-10T11:28:46.021Z</time>
      </trkpt>
      <trkpt lat="46.92415" lon="8.58472">
        <ele>688</ele>
        <time>2021-08-10T11:28:47.022Z</time>
      </trkpt>
      <trkpt lat="46.92417" lon="8.58475">
        <ele>688</ele>
        <time>2021-08-10T11:28:48.022Z</time>
      </trkpt>
      <trkpt lat="46.92417" lon="8.58476">
        <ele>688</ele>
        <time>2021-08-10T11:28:49.021Z</time>
      </trkpt>
      <trkpt lat="46.92414" lon="8.58478">
        <ele>688</ele>
        <time>2021-08-10T11:28:50.021Z</time>
      </trkpt>
      <trkpt lat="46.92414" lon="8.58478">
        <ele>688</ele>
        <time>2021-08-10T11:28:51.021Z</time>
      </trkpt>
      <trkpt lat="46.92415" lon="8.58478">
        <ele>688</ele>
        <time>2021-08-10T11:28:52.022Z</time>
      </trkpt>
      <trkpt lat="46.92415" lon="8.58478">
        <ele>688</ele>
        <time>2021-08-10T11:28:53.021Z</time>
      </trkpt>
      <trkpt lat="46.92415" lon="8.58479">
        <ele>688</ele>
        <time>2021-08-10T11:28:54.022Z</time>
      </trkpt>
      <trkpt lat="46.92413" lon="8.5848">
        <ele>688</ele>
        <time>2021-08-10T11:28:55.021Z</time>
      </trkpt>
      <trkpt lat="46.9241" lon="8.58482">
        <ele>688</ele>
        <time>2021-08-10T11:28:56.022Z</time>
      </trkpt>
      <trkpt lat="46.9241" lon="8.58483">
        <ele>688</ele>
        <time>2021-08-10T11:28:57.022Z</time>
      </trkpt>
      <trkpt lat="46.9241" lon="8.58484">
        <ele>688</ele>
        <time>2021-08-10T11:28:58.021Z</time>
      </trkpt>
      <trkpt lat="46.92411" lon="8.58484">
        <ele>688</ele>
        <time>2021-08-10T11:28:59.021Z</time>
      </trkpt>
      <trkpt lat="46.92412" lon="8.58485">
        <ele>688</ele>
        <time>2021-08-10T11:29:00.021Z</time>
      </trkpt>
      <trkpt lat="46.92414" lon="8.58484">
        <ele>687</ele>
        <time>2021-08-10T11:29:01.022Z</time>
      </trkpt>
      <trkpt lat="46.92414" lon="8.58484">
        <ele>687</ele>
        <time>2021-08-10T11:29:02.021Z</time>
      </trkpt>
      <trkpt lat="46.92415" lon="8.58485">
        <ele>687</ele>
        <time>2021-08-10T11:29:03.021Z</time>
      </trkpt>
      <trkpt lat="46.92417" lon="8.58485">
        <ele>686</ele>
        <time>2021-08-10T11:29:04.021Z</time>
      </trkpt>
      <trkpt lat="46.92418" lon="8.58486">
        <ele>686</ele>
        <time>2021-08-10T11:29:05.022Z</time>
      </trkpt>
      <trkpt lat="46.92419" lon="8.58487">
        <ele>686</ele>
        <time>2021-08-10T11:29:06.022Z</time>
      </trkpt>
      <trkpt lat="46.9242" lon="8.58488">
        <ele>685</ele>
        <time>2021-08-10T11:29:07.022Z</time>
      </trkpt>
      <trkpt lat="46.92422" lon="8.5849">
        <ele>685</ele>
        <time>2021-08-10T11:29:08.022Z</time>
      </trkpt>
      <trkpt lat="46.92422" lon="8.58491">
        <ele>685</ele>
        <time>2021-08-10T11:29:09.022Z</time>
      </trkpt>
      <trkpt lat="46.92422" lon="8.58493">
        <ele>685</ele>
        <time>2021-08-10T11:29:10.021Z</time>
      </trkpt>
      <trkpt lat="46.92422" lon="8.58495">
        <ele>685</ele>
        <time>2021-08-10T11:29:11.022Z</time>
      </trkpt>
      <trkpt lat="46.92422" lon="8.58497">
        <ele>685</ele>
        <time>2021-08-10T11:29:12.022Z</time>
      </trkpt>
      <trkpt lat="46.92424" lon="8.58499">
        <ele>685</ele>
        <time>2021-08-10T11:29:13.022Z</time>
      </trkpt>
      <trkpt lat="46.92425" lon="8.585">
        <ele>685</ele>
        <time>2021-08-10T11:29:14.022Z</time>
      </trkpt>
      <trkpt lat="46.92426" lon="8.58502">
        <ele>685</ele>
        <time>2021-08-10T11:29:15.022Z</time>
      </trkpt>
      <trkpt lat="46.92428" lon="8.58504">
        <ele>685</ele>
        <time>2021-08-10T11:29:16.022Z</time>
      </trkpt>
      <trkpt lat="46.9243" lon="8.58505">
        <ele>685</ele>
        <time>2021-08-10T11:29:17.021Z</time>
      </trkpt>
      <trkpt lat="46.9243" lon="8.58507">
        <ele>685</ele>
        <time>2021-08-10T11:29:18.022Z</time>
      </trkpt>
      <trkpt lat="46.9243" lon="8.58509">
        <ele>685</ele>
        <time>2021-08-10T11:29:19.022Z</time>
      </trkpt>
      <trkpt lat="46.9243" lon="8.5851">
        <ele>685</ele>
        <time>2021-08-10T11:29:20.021Z</time>
      </trkpt>
      <trkpt lat="46.92431" lon="8.58511">
        <ele>684</ele>
        <time>2021-08-10T11:29:21.022Z</time>
      </trkpt>
      <trkpt lat="46.92431" lon="8.58511">
        <ele>684</ele>
        <time>2021-08-10T11:29:22.022Z</time>
      </trkpt>
      <trkpt lat="46.92432" lon="8.58512">
        <ele>684</ele>
        <time>2021-08-10T11:29:23.022Z</time>
      </trkpt>
      <trkpt lat="46.92431" lon="8.58513">
        <ele>684</ele>
        <time>2021-08-10T11:29:24.022Z</time>
      </trkpt>
      <trkpt lat="46.9243" lon="8.58514">
        <ele>684</ele>
        <time>2021-08-10T11:29:25.022Z</time>
      </trkpt>
      <trkpt lat="46.9243" lon="8.58515">
        <ele>683</ele>
        <time>2021-08-10T11:29:26.021Z</time>
      </trkpt>
      <trkpt lat="46.9243" lon="8.58516">
        <ele>683</ele>
        <time>2021-08-10T11:29:27.022Z</time>
      </trkpt>
      <trkpt lat="46.92431" lon="8.58517">
        <ele>683</ele>
        <time>2021-08-10T11:29:28.022Z</time>
      </trkpt>
      <trkpt lat="46.92432" lon="8.58518">
        <ele>684</ele>
        <time>2021-08-10T11:29:29.022Z</time>
      </trkpt>
      <trkpt lat="46.92432" lon="8.58519">
        <ele>684</ele>
        <time>2021-08-10T11:29:36.156Z</time>
      </trkpt>
      <trkpt lat="46.92432" lon="8.58519">
        <ele>685</ele>
        <time>2021-08-10T11:29:37.155Z</time>
      </trkpt>
      <trkpt lat="46.92433" lon="8.5852">
        <ele>686</ele>
        <time>2021-08-10T11:29:38.155Z</time>
      </trkpt>
      <trkpt lat="46.92434" lon="8.58521">
        <ele>686</ele>
        <time>2021-08-10T11:29:39.156Z</time>
      </trkpt>
      <trkpt lat="46.92433" lon="8.58522">
        <ele>686</ele>
        <time>2021-08-10T11:29:40.155Z</time>
      </trkpt>
      <trkpt lat="46.92433" lon="8.58523">
        <ele>687</ele>
        <time>2021-08-10T11:29:41.156Z</time>
      </trkpt>
      <trkpt lat="46.92431" lon="8.58525">
        <ele>687</ele>
        <time>2021-08-10T11:29:43.206Z</time>
      </trkpt>
      <trkpt lat="46.9243" lon="8.58525">
        <ele>687</ele>
        <time>2021-08-10T11:29:44.205Z</time>
      </trkpt>
      <trkpt lat="46.92429" lon="8.58526">
        <ele>687</ele>
        <time>2021-08-10T11:29:45.205Z</time>
      </trkpt>
      <trkpt lat="46.92427" lon="8.58528">
        <ele>687</ele>
        <time>2021-08-10T11:29:46.206Z</time>
      </trkpt>
      <trkpt lat="46.92425" lon="8.58529">
        <ele>687</ele>
        <time>2021-08-10T11:29:47.206Z</time>
      </trkpt>
      <trkpt lat="46.92423" lon="8.58529">
        <ele>688</ele>
        <time>2021-08-10T11:29:48.206Z</time>
      </trkpt>
      <trkpt lat="46.92422" lon="8.58528">
        <ele>688</ele>
        <time>2021-08-10T11:29:49.205Z</time>
      </trkpt>
      <trkpt lat="46.92421" lon="8.58528">
        <ele>688</ele>
        <time>2021-08-10T11:29:50.206Z</time>
      </trkpt>
      <trkpt lat="46.9242" lon="8.58528">
        <ele>688</ele>
        <time>2021-08-10T11:29:51.206Z</time>
      </trkpt>
      <trkpt lat="46.92419" lon="8.58529">
        <ele>688</ele>
        <time>2021-08-10T11:29:52.206Z</time>
      </trkpt>
      <trkpt lat="46.92416" lon="8.5853">
        <ele>689</ele>
        <time>2021-08-10T11:29:53.206Z</time>
      </trkpt>
      <trkpt lat="46.92416" lon="8.58532">
        <ele>689</ele>
        <time>2021-08-10T11:29:54.206Z</time>
      </trkpt>
      <trkpt lat="46.92416" lon="8.58533">
        <ele>689</ele>
        <time>2021-08-10T11:29:55.206Z</time>
      </trkpt>
      <trkpt lat="46.92416" lon="8.58534">
        <ele>690</ele>
        <time>2021-08-10T11:29:56.205Z</time>
      </trkpt>
      <trkpt lat="46.92417" lon="8.58534">
        <ele>690</ele>
        <time>2021-08-10T11:29:57.206Z</time>
      </trkpt>
      <trkpt lat="46.92417" lon="8.58535">
        <ele>690</ele>
        <time>2021-08-10T11:29:58.206Z</time>
      </trkpt>
      <trkpt lat="46.92417" lon="8.58535">
        <ele>690</ele>
        <time>2021-08-10T11:29:59.206Z</time>
      </trkpt>
      <trkpt lat="46.92417" lon="8.58536">
        <ele>690</ele>
        <time>2021-08-10T11:30:00.205Z</time>
      </trkpt>
      <trkpt lat="46.92418" lon="8.58536">
        <ele>690</ele>
        <time>2021-08-10T11:30:01.205Z</time>
      </trkpt>
      <trkpt lat="46.92417" lon="8.58537">
        <ele>690</ele>
        <time>2021-08-10T11:30:02.206Z</time>
      </trkpt>
      <trkpt lat="46.92416" lon="8.58538">
        <ele>690</ele>
        <time>2021-08-10T11:30:03.205Z</time>
      </trkpt>
      <trkpt lat="46.92416" lon="8.58539">
        <ele>691</ele>
        <time>2021-08-10T11:30:07.245Z</time>
      </trkpt>
      <trkpt lat="46.92415" lon="8.5854">
        <ele>691</ele>
        <time>2021-08-10T11:30:13.117Z</time>
      </trkpt>
      <trkpt lat="46.92414" lon="8.58541">
        <ele>691</ele>
        <time>2021-08-10T11:30:14.117Z</time>
      </trkpt>
      <trkpt lat="46.92413" lon="8.58541">
        <ele>690</ele>
        <time>2021-08-10T11:30:15.117Z</time>
      </trkpt>
      <trkpt lat="46.92413" lon="8.58542">
        <ele>690</ele>
        <time>2021-08-10T11:30:16.117Z</time>
      </trkpt>
      <trkpt lat="46.92412" lon="8.58541">
        <ele>690</ele>
        <time>2021-08-10T11:30:17.117Z</time>
      </trkpt>
      <trkpt lat="46.92411" lon="8.58541">
        <ele>690</ele>
        <time>2021-08-10T11:30:18.116Z</time>
      </trkpt>
      <trkpt lat="46.92411" lon="8.58541">
        <ele>689</ele>
        <time>2021-08-10T11:30:19.117Z</time>
      </trkpt>
      <trkpt lat="46.9241" lon="8.58541">
        <ele>689</ele>
        <time>2021-08-10T11:30:22.097Z</time>
      </trkpt>
      <trkpt lat="46.9241" lon="8.58541">
        <ele>689</ele>
        <time>2021-08-10T11:30:23.097Z</time>
      </trkpt>
      <trkpt lat="46.9241" lon="8.58541">
        <ele>689</ele>
        <time>2021-08-10T11:30:24.098Z</time>
      </trkpt>
      <trkpt lat="46.9241" lon="8.58542">
        <ele>689</ele>
        <time>2021-08-10T11:30:25.098Z</time>
      </trkpt>
      <trkpt lat="46.9241" lon="8.58542">
        <ele>689</ele>
        <time>2021-08-10T11:30:26.098Z</time>
      </trkpt>
      <trkpt lat="46.9241" lon="8.58542">
        <ele>689</ele>
        <time>2021-08-10T11:30:27.098Z</time>
      </trkpt>
      <trkpt lat="46.9241" lon="8.58542">
        <ele>689</ele>
        <time>2021-08-10T11:30:28.098Z</time>
      </trkpt>
      <trkpt lat="46.92411" lon="8.58542">
        <ele>689</ele>
        <time>2021-08-10T11:30:29.098Z</time>
      </trkpt>
      <trkpt lat="46.9241" lon="8.58543">
        <ele>689</ele>
        <time>2021-08-10T11:30:30.098Z</time>
      </trkpt>
      <trkpt lat="46.92409" lon="8.58543">
        <ele>689</ele>
        <time>2021-08-10T11:30:31.098Z</time>
      </trkpt>
      <trkpt lat="46.92408" lon="8.58543">
        <ele>689</ele>
        <time>2021-08-10T11:30:32.098Z</time>
      </trkpt>
      <trkpt lat="46.92409" lon="8.58542">
        <ele>690</ele>
        <time>2021-08-10T11:30:33.098Z</time>
      </trkpt>
      <trkpt lat="46.92409" lon="8.58542">
        <ele>690</ele>
        <time>2021-08-10T11:30:34.098Z</time>
      </trkpt>
      <trkpt lat="46.92409" lon="8.58542">
        <ele>690</ele>
        <time>2021-08-10T11:30:35.098Z</time>
      </trkpt>
      <trkpt lat="46.92408" lon="8.58542">
        <ele>690</ele>
        <time>2021-08-10T11:30:36.097Z</time>
      </trkpt>
      <trkpt lat="46.92407" lon="8.58541">
        <ele>690</ele>
        <time>2021-08-10T11:30:37.097Z</time>
      </trkpt>
      <trkpt lat="46.92407" lon="8.58542">
        <ele>690</ele>
        <time>2021-08-10T11:30:38.097Z</time>
      </trkpt>
      <trkpt lat="46.92407" lon="8.58542">
        <ele>690</ele>
        <time>2021-08-10T11:30:39.098Z</time>
      </trkpt>
      <trkpt lat="46.92405" lon="8.58542">
        <ele>690</ele>
        <time>2021-08-10T11:30:40.099Z</time>
      </trkpt>
      <trkpt lat="46.92405" lon="8.58541">
        <ele>690</ele>
        <time>2021-08-10T11:30:41.098Z</time>
      </trkpt>
      <trkpt lat="46.92405" lon="8.58541">
        <ele>690</ele>
        <time>2021-08-10T11:30:42.098Z</time>
      </trkpt>
      <trkpt lat="46.92405" lon="8.5854">
        <ele>690</ele>
        <time>2021-08-10T11:30:43.099Z</time>
      </trkpt>
      <trkpt lat="46.92405" lon="8.5854">
        <ele>690</ele>
        <time>2021-08-10T11:30:44.099Z</time>
      </trkpt>
      <trkpt lat="46.92406" lon="8.58539">
        <ele>690</ele>
        <time>2021-08-10T11:30:45.099Z</time>
      </trkpt>
      <trkpt lat="46.92407" lon="8.58538">
        <ele>691</ele>
        <time>2021-08-10T11:30:46.099Z</time>
      </trkpt>
      <trkpt lat="46.92407" lon="8.58537">
        <ele>691</ele>
        <time>2021-08-10T11:30:47.099Z</time>
      </trkpt>
      <trkpt lat="46.92407" lon="8.58536">
        <ele>691</ele>
        <time>2021-08-10T11:30:48.099Z</time>
      </trkpt>
      <trkpt lat="46.92408" lon="8.58535">
        <ele>691</ele>
        <time>2021-08-10T11:30:49.099Z</time>
      </trkpt>
      <trkpt lat="46.92408" lon="8.58535">
        <ele>691</ele>
        <time>2021-08-10T11:30:50.099Z</time>
      </trkpt>
      <trkpt lat="46.92409" lon="8.58536">
        <ele>691</ele>
        <time>2021-08-10T11:30:58.169Z</time>
      </trkpt>
      <trkpt lat="46.92409" lon="8.58535">
        <ele>691</ele>
        <time>2021-08-10T11:30:59.169Z</time>
      </trkpt>
      <trkpt lat="46.92409" lon="8.58535">
        <ele>691</ele>
        <time>2021-08-10T11:31:00.169Z</time>
      </trkpt>
      <trkpt lat="46.9241" lon="8.58535">
        <ele>691</ele>
        <time>2021-08-10T11:31:01.168Z</time>
      </trkpt>
      <trkpt lat="46.92411" lon="8.58534">
        <ele>691</ele>
        <time>2021-08-10T11:31:02.169Z</time>
      </trkpt>
      <trkpt lat="46.92412" lon="8.58534">
        <ele>691</ele>
        <time>2021-08-10T11:31:03.169Z</time>
      </trkpt>
      <trkpt lat="46.92413" lon="8.58534">
        <ele>692</ele>
        <time>2021-08-10T11:31:04.169Z</time>
      </trkpt>
      <trkpt lat="46.92414" lon="8.58534">
        <ele>692</ele>
        <time>2021-08-10T11:31:05.169Z</time>
      </trkpt>
      <trkpt lat="46.92414" lon="8.58534">
        <ele>692</ele>
        <time>2021-08-10T11:31:06.169Z</time>
      </trkpt>
      <trkpt lat="46.92414" lon="8.58534">
        <ele>692</ele>
        <time>2021-08-10T11:31:07.168Z</time>
      </trkpt>
      <trkpt lat="46.92415" lon="8.58532">
        <ele>692</ele>
        <time>2021-08-10T11:31:08.169Z</time>
      </trkpt>
      <trkpt lat="46.92416" lon="8.58531">
        <ele>692</ele>
        <time>2021-08-10T11:31:09.169Z</time>
      </trkpt>
      <trkpt lat="46.92416" lon="8.58529">
        <ele>693</ele>
        <time>2021-08-10T11:31:10.168Z</time>
      </trkpt>
      <trkpt lat="46.92416" lon="8.58529">
        <ele>693</ele>
        <time>2021-08-10T11:31:11.168Z</time>
      </trkpt>
      <trkpt lat="46.92416" lon="8.58528">
        <ele>693</ele>
        <time>2021-08-10T11:31:12.169Z</time>
      </trkpt>
      <trkpt lat="46.92415" lon="8.58528">
        <ele>693</ele>
        <time>2021-08-10T11:31:13.169Z</time>
      </trkpt>
      <trkpt lat="46.92414" lon="8.58529">
        <ele>693</ele>
        <time>2021-08-10T11:31:14.169Z</time>
      </trkpt>
      <trkpt lat="46.92413" lon="8.5853">
        <ele>693</ele>
        <time>2021-08-10T11:31:15.169Z</time>
      </trkpt>
      <trkpt lat="46.92412" lon="8.5853">
        <ele>694</ele>
        <time>2021-08-10T11:31:16.169Z</time>
      </trkpt>
      <trkpt lat="46.92411" lon="8.5853">
        <ele>694</ele>
        <time>2021-08-10T11:31:17.169Z</time>
      </trkpt>
      <trkpt lat="46.9241" lon="8.5853">
        <ele>694</ele>
        <time>2021-08-10T11:31:18.169Z</time>
      </trkpt>
      <trkpt lat="46.92409" lon="8.5853">
        <ele>694</ele>
        <time>2021-08-10T11:31:19.168Z</time>
      </trkpt>
      <trkpt lat="46.92409" lon="8.58531">
        <ele>694</ele>
        <time>2021-08-10T11:31:20.169Z</time>
      </trkpt>
      <trkpt lat="46.92409" lon="8.58531">
        <ele>694</ele>
        <time>2021-08-10T11:31:21.168Z</time>
      </trkpt>
      <trkpt lat="46.92409" lon="8.58531">
        <ele>694</ele>
        <time>2021-08-10T11:31:22.169Z</time>
      </trkpt>
      <trkpt lat="46.92408" lon="8.58531">
        <ele>694</ele>
        <time>2021-08-10T11:31:23.170Z</time>
      </trkpt>
      <trkpt lat="46.92407" lon="8.58531">
        <ele>693</ele>
        <time>2021-08-10T11:31:24.169Z</time>
      </trkpt>
      <trkpt lat="46.92407" lon="8.58531">
        <ele>693</ele>
        <time>2021-08-10T11:31:25.169Z</time>
      </trkpt>
      <trkpt lat="46.92406" lon="8.58531">
        <ele>693</ele>
        <time>2021-08-10T11:31:26.170Z</time>
      </trkpt>
      <trkpt lat="46.92405" lon="8.58531">
        <ele>693</ele>
        <time>2021-08-10T11:31:27.170Z</time>
      </trkpt>
      <trkpt lat="46.92405" lon="8.58531">
        <ele>693</ele>
        <time>2021-08-10T11:31:28.169Z</time>
      </trkpt>
      <trkpt lat="46.92405" lon="8.58532">
        <ele>693</ele>
        <time>2021-08-10T11:31:29.170Z</time>
      </trkpt>
      <trkpt lat="46.92405" lon="8.58532">
        <ele>693</ele>
        <time>2021-08-10T11:31:30.170Z</time>
      </trkpt>
      <trkpt lat="46.92405" lon="8.58534">
        <ele>693</ele>
        <time>2021-08-10T11:31:31.170Z</time>
      </trkpt>
      <trkpt lat="46.92404" lon="8.58535">
        <ele>693</ele>
        <time>2021-08-10T11:31:32.169Z</time>
      </trkpt>
      <trkpt lat="46.92402" lon="8.58536">
        <ele>693</ele>
        <time>2021-08-10T11:31:33.170Z</time>
      </trkpt>
      <trkpt lat="46.92401" lon="8.58538">
        <ele>693</ele>
        <time>2021-08-10T11:31:34.170Z</time>
      </trkpt>
      <trkpt lat="46.92401" lon="8.58538">
        <ele>692</ele>
        <time>2021-08-10T11:31:35.170Z</time>
      </trkpt>
      <trkpt lat="46.92401" lon="8.58538">
        <ele>692</ele>
        <time>2021-08-10T11:31:36.169Z</time>
      </trkpt>
      <trkpt lat="46.92399" lon="8.58537">
        <ele>692</ele>
        <time>2021-08-10T11:31:37.170Z</time>
      </trkpt>
      <trkpt lat="46.92399" lon="8.58538">
        <ele>692</ele>
        <time>2021-08-10T11:31:38.171Z</time>
      </trkpt>
      <trkpt lat="46.92399" lon="8.58538">
        <ele>692</ele>
        <time>2021-08-10T11:31:39.170Z</time>
      </trkpt>
      <trkpt lat="46.92399" lon="8.58538">
        <ele>692</ele>
        <time>2021-08-10T11:31:40.170Z</time>
      </trkpt>
      <trkpt lat="46.92399" lon="8.58539">
        <ele>692</ele>
        <time>2021-08-10T11:31:41.171Z</time>
      </trkpt>
      <trkpt lat="46.92398" lon="8.5854">
        <ele>692</ele>
        <time>2021-08-10T11:31:42.171Z</time>
      </trkpt>
      <trkpt lat="46.92398" lon="8.5854">
        <ele>692</ele>
        <time>2021-08-10T11:31:43.170Z</time>
      </trkpt>
      <trkpt lat="46.92399" lon="8.58538">
        <ele>693</ele>
        <time>2021-08-10T11:31:44.170Z</time>
      </trkpt>
      <trkpt lat="46.92398" lon="8.58539">
        <ele>693</ele>
        <time>2021-08-10T11:31:45.170Z</time>
      </trkpt>
      <trkpt lat="46.92398" lon="8.5854">
        <ele>693</ele>
        <time>2021-08-10T11:31:46.170Z</time>
      </trkpt>
      <trkpt lat="46.92397" lon="8.5854">
        <ele>693</ele>
        <time>2021-08-10T11:31:47.171Z</time>
      </trkpt>
      <trkpt lat="46.92397" lon="8.58541">
        <ele>693</ele>
        <time>2021-08-10T11:31:48.170Z</time>
      </trkpt>
      <trkpt lat="46.92398" lon="8.58541">
        <ele>693</ele>
        <time>2021-08-10T11:31:49.171Z</time>
      </trkpt>
      <trkpt lat="46.92397" lon="8.58543">
        <ele>693</ele>
        <time>2021-08-10T11:31:50.170Z</time>
      </trkpt>
      <trkpt lat="46.92397" lon="8.58545">
        <ele>693</ele>
        <time>2021-08-10T11:31:51.170Z</time>
      </trkpt>
      <trkpt lat="46.92397" lon="8.58546">
        <ele>693</ele>
        <time>2021-08-10T11:31:52.170Z</time>
      </trkpt>
      <trkpt lat="46.92397" lon="8.58547">
        <ele>693</ele>
        <time>2021-08-10T11:31:53.170Z</time>
      </trkpt>
      <trkpt lat="46.92396" lon="8.58548">
        <ele>693</ele>
        <time>2021-08-10T11:31:54.170Z</time>
      </trkpt>
      <trkpt lat="46.92396" lon="8.58546">
        <ele>693</ele>
        <time>2021-08-10T11:31:55.170Z</time>
      </trkpt>
      <trkpt lat="46.92396" lon="8.58545">
        <ele>693</ele>
        <time>2021-08-10T11:31:56.170Z</time>
      </trkpt>
      <trkpt lat="46.92395" lon="8.58543">
        <ele>694</ele>
        <time>2021-08-10T11:31:57.170Z</time>
      </trkpt>
      <trkpt lat="46.92395" lon="8.58541">
        <ele>694</ele>
        <time>2021-08-10T11:31:58.171Z</time>
      </trkpt>
      <trkpt lat="46.92395" lon="8.58542">
        <ele>694</ele>
        <time>2021-08-10T11:31:59.170Z</time>
      </trkpt>
      <trkpt lat="46.92394" lon="8.58541">
        <ele>694</ele>
        <time>2021-08-10T11:32:00.171Z</time>
      </trkpt>
      <trkpt lat="46.92394" lon="8.58539">
        <ele>694</ele>
        <time>2021-08-10T11:32:01.170Z</time>
      </trkpt>
      <trkpt lat="46.92392" lon="8.58536">
        <ele>694</ele>
        <time>2021-08-10T11:32:02.170Z</time>
      </trkpt>
      <trkpt lat="46.92391" lon="8.58536">
        <ele>694</ele>
        <time>2021-08-10T11:32:09.300Z</time>
      </trkpt>
      <trkpt lat="46.92391" lon="8.58539">
        <ele>694</ele>
        <time>2021-08-10T11:32:10.299Z</time>
      </trkpt>
      <trkpt lat="46.92389" lon="8.5854">
        <ele>694</ele>
        <time>2021-08-10T11:32:11.299Z</time>
      </trkpt>
      <trkpt lat="46.92389" lon="8.58541">
        <ele>695</ele>
        <time>2021-08-10T11:32:15.435Z</time>
      </trkpt>
      <trkpt lat="46.92388" lon="8.58542">
        <ele>695</ele>
        <time>2021-08-10T11:32:25.283Z</time>
      </trkpt>
      <trkpt lat="46.92388" lon="8.58543">
        <ele>695</ele>
        <time>2021-08-10T11:32:26.283Z</time>
      </trkpt>
      <trkpt lat="46.9239" lon="8.58543">
        <ele>695</ele>
        <time>2021-08-10T11:32:27.283Z</time>
      </trkpt>
      <trkpt lat="46.9239" lon="8.58543">
        <ele>695</ele>
        <time>2021-08-10T11:32:28.284Z</time>
      </trkpt>
      <trkpt lat="46.9239" lon="8.58543">
        <ele>695</ele>
        <time>2021-08-10T11:32:29.284Z</time>
      </trkpt>
      <trkpt lat="46.92389" lon="8.58544">
        <ele>696</ele>
        <time>2021-08-10T11:32:30.283Z</time>
      </trkpt>
      <trkpt lat="46.92389" lon="8.58545">
        <ele>696</ele>
        <time>2021-08-10T11:32:31.284Z</time>
      </trkpt>
      <trkpt lat="46.92388" lon="8.58546">
        <ele>696</ele>
        <time>2021-08-10T11:32:32.283Z</time>
      </trkpt>
      <trkpt lat="46.92388" lon="8.58547">
        <ele>696</ele>
        <time>2021-08-10T11:32:33.283Z</time>
      </trkpt>
      <trkpt lat="46.92389" lon="8.58549">
        <ele>697</ele>
        <time>2021-08-10T11:32:34.283Z</time>
      </trkpt>
      <trkpt lat="46.92387" lon="8.58548">
        <ele>697</ele>
        <time>2021-08-10T11:32:46.192Z</time>
      </trkpt>
      <trkpt lat="46.92384" lon="8.58545">
        <ele>697</ele>
        <time>2021-08-10T11:32:47.192Z</time>
      </trkpt>
      <trkpt lat="46.92381" lon="8.58542">
        <ele>698</ele>
        <time>2021-08-10T11:33:14.025Z</time>
      </trkpt>
      <trkpt lat="46.9238" lon="8.58541">
        <ele>698</ele>
        <time>2021-08-10T11:33:15.025Z</time>
      </trkpt>
      <trkpt lat="46.9238" lon="8.58541">
        <ele>698</ele>
        <time>2021-08-10T11:33:16.026Z</time>
      </trkpt>
      <trkpt lat="46.92381" lon="8.58541">
        <ele>698</ele>
        <time>2021-08-10T11:33:17.025Z</time>
      </trkpt>
      <trkpt lat="46.92381" lon="8.5854">
        <ele>698</ele>
        <time>2021-08-10T11:33:21.062Z</time>
      </trkpt>
      <trkpt lat="46.92381" lon="8.5854">
        <ele>698</ele>
        <time>2021-08-10T11:33:22.061Z</time>
      </trkpt>
      <trkpt lat="46.92381" lon="8.58539">
        <ele>698</ele>
        <time>2021-08-10T11:33:23.061Z</time>
      </trkpt>
      <trkpt lat="46.92382" lon="8.5854">
        <ele>698</ele>
        <time>2021-08-10T11:33:25.167Z</time>
      </trkpt>
      <trkpt lat="46.92382" lon="8.5854">
        <ele>699</ele>
        <time>2021-08-10T11:33:26.167Z</time>
      </trkpt>
      <trkpt lat="46.92383" lon="8.58539">
        <ele>699</ele>
        <time>2021-08-10T11:33:27.166Z</time>
      </trkpt>
      <trkpt lat="46.92383" lon="8.58539">
        <ele>699</ele>
        <time>2021-08-10T11:33:28.166Z</time>
      </trkpt>
      <trkpt lat="46.92384" lon="8.58538">
        <ele>699</ele>
        <time>2021-08-10T11:33:29.167Z</time>
      </trkpt>
      <trkpt lat="46.92384" lon="8.58538">
        <ele>699</ele>
        <time>2021-08-10T11:33:30.167Z</time>
      </trkpt>
      <trkpt lat="46.92384" lon="8.58537">
        <ele>699</ele>
        <time>2021-08-10T11:33:34.305Z</time>
      </trkpt>
      <trkpt lat="46.92384" lon="8.58537">
        <ele>699</ele>
        <time>2021-08-10T11:33:35.306Z</time>
      </trkpt>
      <trkpt lat="46.92383" lon="8.58538">
        <ele>700</ele>
        <time>2021-08-10T11:33:36.305Z</time>
      </trkpt>
      <trkpt lat="46.92383" lon="8.58538">
        <ele>700</ele>
        <time>2021-08-10T11:33:40.401Z</time>
      </trkpt>
      <trkpt lat="46.92382" lon="8.58538">
        <ele>700</ele>
        <time>2021-08-10T11:33:41.401Z</time>
      </trkpt>
      <trkpt lat="46.92383" lon="8.58538">
        <ele>700</ele>
        <time>2021-08-10T11:33:42.401Z</time>
      </trkpt>
      <trkpt lat="46.92384" lon="8.5854">
        <ele>700</ele>
        <time>2021-08-10T11:33:43.401Z</time>
      </trkpt>
      <trkpt lat="46.92383" lon="8.58544">
        <ele>700</ele>
        <time>2021-08-10T11:33:44.401Z</time>
      </trkpt>
      <trkpt lat="46.92382" lon="8.58547">
        <ele>701</ele>
        <time>2021-08-10T11:33:45.401Z</time>
      </trkpt>
      <trkpt lat="46.92381" lon="8.58549">
        <ele>701</ele>
        <time>2021-08-10T11:33:46.401Z</time>
      </trkpt>
      <trkpt lat="46.92379" lon="8.5855">
        <ele>702</ele>
        <time>2021-08-10T11:33:47.401Z</time>
      </trkpt>
      <trkpt lat="46.92378" lon="8.58552">
        <ele>703</ele>
        <time>2021-08-10T11:33:48.402Z</time>
      </trkpt>
      <trkpt lat="46.92371" lon="8.58557">
        <ele>703</ele>
        <time>2021-08-10T11:33:52.401Z</time>
      </trkpt>
      <trkpt lat="46.92372" lon="8.58556">
        <ele>704</ele>
        <time>2021-08-10T11:33:53.401Z</time>
      </trkpt>
      <trkpt lat="46.92373" lon="8.58557">
        <ele>704</ele>
        <time>2021-08-10T11:33:54.401Z</time>
      </trkpt>
      <trkpt lat="46.92373" lon="8.58556">
        <ele>705</ele>
        <time>2021-08-10T11:33:55.402Z</time>
      </trkpt>
      <trkpt lat="46.92373" lon="8.58556">
        <ele>705</ele>
        <time>2021-08-10T11:33:56.402Z</time>
      </trkpt>
      <trkpt lat="46.92372" lon="8.58557">
        <ele>705</ele>
        <time>2021-08-10T11:33:57.402Z</time>
      </trkpt>
      <trkpt lat="46.92372" lon="8.58558">
        <ele>706</ele>
        <time>2021-08-10T11:33:58.401Z</time>
      </trkpt>
      <trkpt lat="46.92371" lon="8.58565">
        <ele>706</ele>
        <time>2021-08-10T11:33:59.402Z</time>
      </trkpt>
      <trkpt lat="46.92371" lon="8.58565">
        <ele>706</ele>
        <time>2021-08-10T11:34:00.402Z</time>
      </trkpt>
      <trkpt lat="46.9237" lon="8.58568">
        <ele>707</ele>
        <time>2021-08-10T11:34:01.402Z</time>
      </trkpt>
      <trkpt lat="46.9237" lon="8.5857">
        <ele>707</ele>
        <time>2021-08-10T11:34:02.402Z</time>
      </trkpt>
      <trkpt lat="46.9237" lon="8.58573">
        <ele>707</ele>
        <time>2021-08-10T11:34:03.402Z</time>
      </trkpt>
      <trkpt lat="46.9237" lon="8.58574">
        <ele>708</ele>
        <time>2021-08-10T11:34:04.402Z</time>
      </trkpt>
      <trkpt lat="46.9237" lon="8.58575">
        <ele>708</ele>
        <time>2021-08-10T11:34:05.401Z</time>
      </trkpt>
      <trkpt lat="46.9237" lon="8.58576">
        <ele>708</ele>
        <time>2021-08-10T11:34:06.402Z</time>
      </trkpt>
      <trkpt lat="46.92368" lon="8.58577">
        <ele>708</ele>
        <time>2021-08-10T11:34:07.402Z</time>
      </trkpt>
      <trkpt lat="46.92368" lon="8.58576">
        <ele>709</ele>
        <time>2021-08-10T11:34:08.402Z</time>
      </trkpt>
      <trkpt lat="46.92366" lon="8.58576">
        <ele>709</ele>
        <time>2021-08-10T11:34:09.402Z</time>
      </trkpt>
      <trkpt lat="46.92364" lon="8.58575">
        <ele>709</ele>
        <time>2021-08-10T11:34:10.402Z</time>
      </trkpt>
      <trkpt lat="46.92364" lon="8.58575">
        <ele>709</ele>
        <time>2021-08-10T11:34:11.401Z</time>
      </trkpt>
      <trkpt lat="46.92363" lon="8.58576">
        <ele>709</ele>
        <time>2021-08-10T11:34:12.402Z</time>
      </trkpt>
      <trkpt lat="46.92361" lon="8.5858">
        <ele>710</ele>
        <time>2021-08-10T11:34:50.402Z</time>
      </trkpt>
      <trkpt lat="46.92359" lon="8.5858">
        <ele>711</ele>
        <time>2021-08-10T11:34:51.402Z</time>
      </trkpt>
      <trkpt lat="46.92357" lon="8.58583">
        <ele>711</ele>
        <time>2021-08-10T11:34:52.402Z</time>
      </trkpt>
      <trkpt lat="46.92356" lon="8.58585">
        <ele>712</ele>
        <time>2021-08-10T11:34:53.401Z</time>
      </trkpt>
      <trkpt lat="46.92354" lon="8.58586">
        <ele>712</ele>
        <time>2021-08-10T11:34:54.401Z</time>
      </trkpt>
      <trkpt lat="46.92353" lon="8.58586">
        <ele>713</ele>
        <time>2021-08-10T11:34:55.402Z</time>
      </trkpt>
      <trkpt lat="46.92353" lon="8.58583">
        <ele>713</ele>
        <time>2021-08-10T11:34:56.401Z</time>
      </trkpt>
      <trkpt lat="46.92355" lon="8.58582">
        <ele>714</ele>
        <time>2021-08-10T11:34:57.401Z</time>
      </trkpt>
      <trkpt lat="46.92356" lon="8.58581">
        <ele>714</ele>
        <time>2021-08-10T11:34:58.402Z</time>
      </trkpt>
      <trkpt lat="46.92355" lon="8.58581">
        <ele>715</ele>
        <time>2021-08-10T11:34:59.401Z</time>
      </trkpt>
      <trkpt lat="46.92354" lon="8.58579">
        <ele>716</ele>
        <time>2021-08-10T11:35:02.496Z</time>
      </trkpt>
      <trkpt lat="46.92354" lon="8.58578">
        <ele>716</ele>
        <time>2021-08-10T11:35:03.496Z</time>
      </trkpt>
      <trkpt lat="46.92355" lon="8.58577">
        <ele>717</ele>
        <time>2021-08-10T11:35:04.497Z</time>
      </trkpt>
      <trkpt lat="46.92353" lon="8.58577">
        <ele>718</ele>
        <time>2021-08-10T11:35:05.497Z</time>
      </trkpt>
      <trkpt lat="46.92352" lon="8.58577">
        <ele>718</ele>
        <time>2021-08-10T11:35:06.497Z</time>
      </trkpt>
      <trkpt lat="46.92351" lon="8.58578">
        <ele>718</ele>
        <time>2021-08-10T11:35:07.497Z</time>
      </trkpt>
      <trkpt lat="46.92351" lon="8.58577">
        <ele>718</ele>
        <time>2021-08-10T11:35:08.497Z</time>
      </trkpt>
      <trkpt lat="46.92349" lon="8.58577">
        <ele>718</ele>
        <time>2021-08-10T11:35:09.498Z</time>
      </trkpt>
      <trkpt lat="46.92349" lon="8.58577">
        <ele>718</ele>
        <time>2021-08-10T11:35:10.498Z</time>
      </trkpt>
      <trkpt lat="46.92349" lon="8.58577">
        <ele>718</ele>
        <time>2021-08-10T11:35:11.498Z</time>
      </trkpt>
      <trkpt lat="46.92349" lon="8.58577">
        <ele>718</ele>
        <time>2021-08-10T11:35:12.498Z</time>
      </trkpt>
      <trkpt lat="46.92348" lon="8.58576">
        <ele>717</ele>
        <time>2021-08-10T11:35:13.497Z</time>
      </trkpt>
      <trkpt lat="46.92348" lon="8.58576">
        <ele>717</ele>
        <time>2021-08-10T11:35:14.497Z</time>
      </trkpt>
      <trkpt lat="46.92348" lon="8.58575">
        <ele>717</ele>
        <time>2021-08-10T11:35:15.497Z</time>
      </trkpt>
      <trkpt lat="46.92347" lon="8.58574">
        <ele>717</ele>
        <time>2021-08-10T11:35:16.498Z</time>
      </trkpt>
      <trkpt lat="46.92346" lon="8.58574">
        <ele>717</ele>
        <time>2021-08-10T11:35:17.497Z</time>
      </trkpt>
      <trkpt lat="46.92346" lon="8.58573">
        <ele>717</ele>
        <time>2021-08-10T11:35:18.498Z</time>
      </trkpt>
      <trkpt lat="46.92346" lon="8.58572">
        <ele>716</ele>
        <time>2021-08-10T11:35:19.498Z</time>
      </trkpt>
      <trkpt lat="46.92346" lon="8.58571">
        <ele>716</ele>
        <time>2021-08-10T11:35:20.497Z</time>
      </trkpt>
      <trkpt lat="46.92345" lon="8.58571">
        <ele>716</ele>
        <time>2021-08-10T11:35:21.498Z</time>
      </trkpt>
      <trkpt lat="46.92345" lon="8.58571">
        <ele>716</ele>
        <time>2021-08-10T11:35:22.498Z</time>
      </trkpt>
      <trkpt lat="46.92344" lon="8.5857">
        <ele>716</ele>
        <time>2021-08-10T11:35:23.498Z</time>
      </trkpt>
      <trkpt lat="46.92343" lon="8.5857">
        <ele>716</ele>
        <time>2021-08-10T11:35:24.498Z</time>
      </trkpt>
      <trkpt lat="46.92342" lon="8.58571">
        <ele>715</ele>
        <time>2021-08-10T11:35:25.498Z</time>
      </trkpt>
      <trkpt lat="46.92342" lon="8.5857">
        <ele>715</ele>
        <time>2021-08-10T11:35:26.497Z</time>
      </trkpt>
      <trkpt lat="46.92341" lon="8.58569">
        <ele>715</ele>
        <time>2021-08-10T11:35:27.497Z</time>
      </trkpt>
      <trkpt lat="46.9234" lon="8.58567">
        <ele>714</ele>
        <time>2021-08-10T11:35:28.497Z</time>
      </trkpt>
      <trkpt lat="46.92339" lon="8.58566">
        <ele>714</ele>
        <time>2021-08-10T11:35:29.498Z</time>
      </trkpt>
      <trkpt lat="46.92339" lon="8.58567">
        <ele>714</ele>
        <time>2021-08-10T11:35:30.498Z</time>
      </trkpt>
      <trkpt lat="46.92339" lon="8.58567">
        <ele>714</ele>
        <time>2021-08-10T11:35:31.498Z</time>
      </trkpt>
      <trkpt lat="46.92339" lon="8.58567">
        <ele>714</ele>
        <time>2021-08-10T11:35:32.498Z</time>
      </trkpt>
      <trkpt lat="46.92339" lon="8.58567">
        <ele>714</ele>
        <time>2021-08-10T11:35:33.498Z</time>
      </trkpt>
      <trkpt lat="46.9234" lon="8.58567">
        <ele>714</ele>
        <time>2021-08-10T11:35:34.498Z</time>
      </trkpt>
      <trkpt lat="46.92341" lon="8.58567">
        <ele>714</ele>
        <time>2021-08-10T11:35:35.497Z</time>
      </trkpt>
      <trkpt lat="46.92342" lon="8.58568">
        <ele>714</ele>
        <time>2021-08-10T11:35:36.498Z</time>
      </trkpt>
      <trkpt lat="46.92342" lon="8.58567">
        <ele>714</ele>
        <time>2021-08-10T11:35:37.497Z</time>
      </trkpt>
      <trkpt lat="46.92343" lon="8.58567">
        <ele>714</ele>
        <time>2021-08-10T11:35:38.497Z</time>
      </trkpt>
      <trkpt lat="46.92344" lon="8.58566">
        <ele>714</ele>
        <time>2021-08-10T11:35:39.498Z</time>
      </trkpt>
      <trkpt lat="46.92344" lon="8.58566">
        <ele>714</ele>
        <time>2021-08-10T11:35:40.498Z</time>
      </trkpt>
      <trkpt lat="46.92344" lon="8.58566">
        <ele>714</ele>
        <time>2021-08-10T11:35:41.498Z</time>
      </trkpt>
      <trkpt lat="46.92344" lon="8.58565">
        <ele>714</ele>
        <time>2021-08-10T11:35:47.517Z</time>
      </trkpt>
      <trkpt lat="46.92344" lon="8.58565">
        <ele>714</ele>
        <time>2021-08-10T11:35:48.517Z</time>
      </trkpt>
      <trkpt lat="46.92343" lon="8.58564">
        <ele>714</ele>
        <time>2021-08-10T11:35:49.517Z</time>
      </trkpt>
      <trkpt lat="46.92342" lon="8.58564">
        <ele>715</ele>
        <time>2021-08-10T11:35:50.517Z</time>
      </trkpt>
      <trkpt lat="46.92341" lon="8.58565">
        <ele>715</ele>
        <time>2021-08-10T11:35:55.660Z</time>
      </trkpt>
      <trkpt lat="46.9234" lon="8.58565">
        <ele>715</ele>
        <time>2021-08-10T11:35:56.659Z</time>
      </trkpt>
      <trkpt lat="46.92339" lon="8.58565">
        <ele>715</ele>
        <time>2021-08-10T11:36:02.557Z</time>
      </trkpt>
      <trkpt lat="46.92338" lon="8.58564">
        <ele>715</ele>
        <time>2021-08-10T11:36:03.557Z</time>
      </trkpt>
      <trkpt lat="46.92337" lon="8.58564">
        <ele>716</ele>
        <time>2021-08-10T11:36:21.393Z</time>
      </trkpt>
      <trkpt lat="46.92336" lon="8.58563">
        <ele>716</ele>
        <time>2021-08-10T11:36:22.393Z</time>
      </trkpt>
      <trkpt lat="46.92336" lon="8.58564">
        <ele>717</ele>
        <time>2021-08-10T11:36:28.291Z</time>
      </trkpt>
      <trkpt lat="46.92335" lon="8.58564">
        <ele>718</ele>
        <time>2021-08-10T11:36:29.290Z</time>
      </trkpt>
      <trkpt lat="46.92335" lon="8.58565">
        <ele>719</ele>
        <time>2021-08-10T11:36:30.291Z</time>
      </trkpt>
      <trkpt lat="46.92334" lon="8.58566">
        <ele>720</ele>
        <time>2021-08-10T11:36:31.290Z</time>
      </trkpt>
      <trkpt lat="46.92334" lon="8.58567">
        <ele>721</ele>
        <time>2021-08-10T11:36:32.291Z</time>
      </trkpt>
      <trkpt lat="46.92334" lon="8.58567">
        <ele>721</ele>
        <time>2021-08-10T11:36:33.291Z</time>
      </trkpt>
      <trkpt lat="46.92334" lon="8.58567">
        <ele>722</ele>
        <time>2021-08-10T11:36:39.396Z</time>
      </trkpt>
      <trkpt lat="46.92333" lon="8.58568">
        <ele>723</ele>
        <time>2021-08-10T11:36:40.396Z</time>
      </trkpt>
      <trkpt lat="46.92333" lon="8.58566">
        <ele>723</ele>
        <time>2021-08-10T11:36:41.395Z</time>
      </trkpt>
      <trkpt lat="46.92333" lon="8.58565">
        <ele>724</ele>
        <time>2021-08-10T11:36:42.395Z</time>
      </trkpt>
      <trkpt lat="46.92332" lon="8.58564">
        <ele>724</ele>
        <time>2021-08-10T11:36:59.502Z</time>
      </trkpt>
      <trkpt lat="46.92331" lon="8.58565">
        <ele>725</ele>
        <time>2021-08-10T11:37:00.502Z</time>
      </trkpt>
      <trkpt lat="46.92331" lon="8.58565">
        <ele>726</ele>
        <time>2021-08-10T11:37:02.275Z</time>
      </trkpt>
      <trkpt lat="46.92332" lon="8.58565">
        <ele>726</ele>
        <time>2021-08-10T11:37:03.276Z</time>
      </trkpt>
      <trkpt lat="46.92331" lon="8.58565">
        <ele>726</ele>
        <time>2021-08-10T11:37:04.276Z</time>
      </trkpt>
      <trkpt lat="46.92331" lon="8.58566">
        <ele>727</ele>
        <time>2021-08-10T11:37:23.379Z</time>
      </trkpt>
      <trkpt lat="46.9233" lon="8.58566">
        <ele>727</ele>
        <time>2021-08-10T11:37:24.380Z</time>
      </trkpt>
      <trkpt lat="46.9233" lon="8.58566">
        <ele>727</ele>
        <time>2021-08-10T11:37:25.380Z</time>
      </trkpt>
      <trkpt lat="46.92329" lon="8.58567">
        <ele>727</ele>
        <time>2021-08-10T11:37:26.380Z</time>
      </trkpt>
      <trkpt lat="46.92328" lon="8.58568">
        <ele>728</ele>
        <time>2021-08-10T11:37:27.380Z</time>
      </trkpt>
      <trkpt lat="46.92327" lon="8.58568">
        <ele>728</ele>
        <time>2021-08-10T11:37:28.380Z</time>
      </trkpt>
      <trkpt lat="46.92326" lon="8.58569">
        <ele>728</ele>
        <time>2021-08-10T11:37:29.380Z</time>
      </trkpt>
      <trkpt lat="46.92325" lon="8.58568">
        <ele>729</ele>
        <time>2021-08-10T11:37:43.535Z</time>
      </trkpt>
      <trkpt lat="46.92325" lon="8.58568">
        <ele>729</ele>
        <time>2021-08-10T11:37:44.535Z</time>
      </trkpt>
      <trkpt lat="46.92325" lon="8.58568">
        <ele>730</ele>
        <time>2021-08-10T11:37:45.536Z</time>
      </trkpt>
      <trkpt lat="46.92325" lon="8.58568">
        <ele>730</ele>
        <time>2021-08-10T11:37:50.672Z</time>
      </trkpt>
      <trkpt lat="46.92325" lon="8.58568">
        <ele>732</ele>
        <time>2021-08-10T11:38:07.513Z</time>
      </trkpt>
      <trkpt lat="46.92325" lon="8.58568">
        <ele>732</ele>
        <time>2021-08-10T11:38:08.513Z</time>
      </trkpt>
      <trkpt lat="46.92325" lon="8.58568">
        <ele>732</ele>
        <time>2021-08-10T11:38:09.513Z</time>
      </trkpt>
      <trkpt lat="46.92324" lon="8.58567">
        <ele>733</ele>
        <time>2021-08-10T11:38:10.512Z</time>
      </trkpt>
      <trkpt lat="46.92325" lon="8.58567">
        <ele>733</ele>
        <time>2021-08-10T11:38:11.513Z</time>
      </trkpt>
      <trkpt lat="46.92325" lon="8.58567">
        <ele>733</ele>
        <time>2021-08-10T11:38:15.661Z</time>
      </trkpt>
      <trkpt lat="46.92325" lon="8.58566">
        <ele>733</ele>
        <time>2021-08-10T11:38:16.661Z</time>
      </trkpt>
      <trkpt lat="46.92323" lon="8.58567">
        <ele>734</ele>
        <time>2021-08-10T11:38:29.412Z</time>
      </trkpt>
      <trkpt lat="46.92322" lon="8.58569">
        <ele>734</ele>
        <time>2021-08-10T11:38:30.413Z</time>
      </trkpt>
      <trkpt lat="46.92321" lon="8.5857">
        <ele>734</ele>
        <time>2021-08-10T11:38:31.413Z</time>
      </trkpt>
      <trkpt lat="46.92321" lon="8.5857">
        <ele>734</ele>
        <time>2021-08-10T11:38:32.413Z</time>
      </trkpt>
      <trkpt lat="46.92321" lon="8.5857">
        <ele>735</ele>
        <time>2021-08-10T11:38:33.413Z</time>
      </trkpt>
      <trkpt lat="46.9232" lon="8.58572">
        <ele>735</ele>
        <time>2021-08-10T11:38:34.413Z</time>
      </trkpt>
      <trkpt lat="46.92319" lon="8.58573">
        <ele>735</ele>
        <time>2021-08-10T11:38:35.413Z</time>
      </trkpt>
      <trkpt lat="46.92319" lon="8.58574">
        <ele>736</ele>
        <time>2021-08-10T11:38:57.557Z</time>
      </trkpt>
      <trkpt lat="46.92319" lon="8.58574">
        <ele>735</ele>
        <time>2021-08-10T11:38:59.396Z</time>
      </trkpt>
      <trkpt lat="46.92318" lon="8.58575">
        <ele>735</ele>
        <time>2021-08-10T11:39:00.396Z</time>
      </trkpt>
      <trkpt lat="46.92318" lon="8.58576">
        <ele>736</ele>
        <time>2021-08-10T11:39:01.397Z</time>
      </trkpt>
      <trkpt lat="46.92317" lon="8.58577">
        <ele>736</ele>
        <time>2021-08-10T11:39:02.397Z</time>
      </trkpt>
      <trkpt lat="46.92316" lon="8.58577">
        <ele>736</ele>
        <time>2021-08-10T11:39:03.396Z</time>
      </trkpt>
      <trkpt lat="46.92316" lon="8.58578">
        <ele>736</ele>
        <time>2021-08-10T11:39:04.397Z</time>
      </trkpt>
      <trkpt lat="46.92315" lon="8.58578">
        <ele>736</ele>
        <time>2021-08-10T11:39:05.396Z</time>
      </trkpt>
      <trkpt lat="46.92314" lon="8.58578">
        <ele>736</ele>
        <time>2021-08-10T11:39:06.396Z</time>
      </trkpt>
      <trkpt lat="46.92313" lon="8.58579">
        <ele>736</ele>
        <time>2021-08-10T11:39:07.396Z</time>
      </trkpt>
      <trkpt lat="46.92312" lon="8.58579">
        <ele>736</ele>
        <time>2021-08-10T11:39:18.517Z</time>
      </trkpt>
      <trkpt lat="46.92311" lon="8.58579">
        <ele>736</ele>
        <time>2021-08-10T11:39:21.363Z</time>
      </trkpt>
      <trkpt lat="46.92311" lon="8.58579">
        <ele>736</ele>
        <time>2021-08-10T11:39:22.362Z</time>
      </trkpt>
      <trkpt lat="46.9231" lon="8.58579">
        <ele>735</ele>
        <time>2021-08-10T11:39:23.362Z</time>
      </trkpt>
      <trkpt lat="46.92309" lon="8.58579">
        <ele>735</ele>
        <time>2021-08-10T11:39:36.556Z</time>
      </trkpt>
      <trkpt lat="46.92308" lon="8.5858">
        <ele>735</ele>
        <time>2021-08-10T11:39:37.556Z</time>
      </trkpt>
      <trkpt lat="46.92308" lon="8.5858">
        <ele>735</ele>
        <time>2021-08-10T11:39:38.555Z</time>
      </trkpt>
      <trkpt lat="46.92307" lon="8.5858">
        <ele>735</ele>
        <time>2021-08-10T11:39:39.555Z</time>
      </trkpt>
      <trkpt lat="46.92306" lon="8.58579">
        <ele>735</ele>
        <time>2021-08-10T11:39:40.555Z</time>
      </trkpt>
      <trkpt lat="46.92306" lon="8.58579">
        <ele>735</ele>
        <time>2021-08-10T11:39:41.555Z</time>
      </trkpt>
      <trkpt lat="46.92306" lon="8.58579">
        <ele>735</ele>
        <time>2021-08-10T11:39:42.555Z</time>
      </trkpt>
      <trkpt lat="46.92305" lon="8.58579">
        <ele>735</ele>
        <time>2021-08-10T11:39:43.555Z</time>
      </trkpt>
      <trkpt lat="46.92305" lon="8.5858">
        <ele>735</ele>
        <time>2021-08-10T11:39:44.556Z</time>
      </trkpt>
      <trkpt lat="46.92304" lon="8.58583">
        <ele>735</ele>
        <time>2021-08-10T11:39:45.556Z</time>
      </trkpt>
      <trkpt lat="46.92304" lon="8.58585">
        <ele>734</ele>
        <time>2021-08-10T11:39:46.555Z</time>
      </trkpt>
      <trkpt lat="46.92302" lon="8.58586">
        <ele>734</ele>
        <time>2021-08-10T11:39:52.656Z</time>
      </trkpt>
      <trkpt lat="46.92302" lon="8.58587">
        <ele>734</ele>
        <time>2021-08-10T11:39:53.656Z</time>
      </trkpt>
      <trkpt lat="46.92301" lon="8.58588">
        <ele>734</ele>
        <time>2021-08-10T11:39:54.656Z</time>
      </trkpt>
      <trkpt lat="46.923" lon="8.58589">
        <ele>734</ele>
        <time>2021-08-10T11:40:00.789Z</time>
      </trkpt>
      <trkpt lat="46.923" lon="8.58589">
        <ele>734</ele>
        <time>2021-08-10T11:40:01.788Z</time>
      </trkpt>
      <trkpt lat="46.92299" lon="8.58589">
        <ele>734</ele>
        <time>2021-08-10T11:40:02.789Z</time>
      </trkpt>
      <trkpt lat="46.92298" lon="8.58589">
        <ele>735</ele>
        <time>2021-08-10T11:40:03.788Z</time>
      </trkpt>
      <trkpt lat="46.92298" lon="8.5859">
        <ele>735</ele>
        <time>2021-08-10T11:40:08.916Z</time>
      </trkpt>
      <trkpt lat="46.92297" lon="8.58589">
        <ele>735</ele>
        <time>2021-08-10T11:40:09.917Z</time>
      </trkpt>
      <trkpt lat="46.92296" lon="8.5859">
        <ele>736</ele>
        <time>2021-08-10T11:40:10.917Z</time>
      </trkpt>
      <trkpt lat="46.92296" lon="8.5859">
        <ele>736</ele>
        <time>2021-08-10T11:40:11.916Z</time>
      </trkpt>
      <trkpt lat="46.92294" lon="8.58589">
        <ele>736</ele>
        <time>2021-08-10T11:40:12.916Z</time>
      </trkpt>
      <trkpt lat="46.92293" lon="8.58589">
        <ele>737</ele>
        <time>2021-08-10T11:40:13.917Z</time>
      </trkpt>
      <trkpt lat="46.92293" lon="8.58589">
        <ele>737</ele>
        <time>2021-08-10T11:40:14.916Z</time>
      </trkpt>
      <trkpt lat="46.92292" lon="8.5859">
        <ele>737</ele>
        <time>2021-08-10T11:40:15.916Z</time>
      </trkpt>
      <trkpt lat="46.92292" lon="8.5859">
        <ele>738</ele>
        <time>2021-08-10T11:40:16.917Z</time>
      </trkpt>
      <trkpt lat="46.92292" lon="8.58589">
        <ele>738</ele>
        <time>2021-08-10T11:40:17.916Z</time>
      </trkpt>
      <trkpt lat="46.92291" lon="8.58589">
        <ele>738</ele>
        <time>2021-08-10T11:40:18.917Z</time>
      </trkpt>
      <trkpt lat="46.92291" lon="8.58588">
        <ele>738</ele>
        <time>2021-08-10T11:40:19.916Z</time>
      </trkpt>
      <trkpt lat="46.92291" lon="8.58585">
        <ele>739</ele>
        <time>2021-08-10T11:40:20.917Z</time>
      </trkpt>
      <trkpt lat="46.92291" lon="8.58585">
        <ele>739</ele>
        <time>2021-08-10T11:40:21.917Z</time>
      </trkpt>
      <trkpt lat="46.9229" lon="8.58585">
        <ele>740</ele>
        <time>2021-08-10T11:40:22.916Z</time>
      </trkpt>
      <trkpt lat="46.92289" lon="8.58585">
        <ele>740</ele>
        <time>2021-08-10T11:40:23.916Z</time>
      </trkpt>
      <trkpt lat="46.92288" lon="8.58584">
        <ele>740</ele>
        <time>2021-08-10T11:40:24.916Z</time>
      </trkpt>
      <trkpt lat="46.92288" lon="8.58583">
        <ele>740</ele>
        <time>2021-08-10T11:40:25.916Z</time>
      </trkpt>
      <trkpt lat="46.92287" lon="8.58581">
        <ele>741</ele>
        <time>2021-08-10T11:40:26.916Z</time>
      </trkpt>
      <trkpt lat="46.92286" lon="8.58581">
        <ele>741</ele>
        <time>2021-08-10T11:40:27.916Z</time>
      </trkpt>
      <trkpt lat="46.92284" lon="8.58579">
        <ele>742</ele>
        <time>2021-08-10T11:40:28.917Z</time>
      </trkpt>
      <trkpt lat="46.92284" lon="8.58578">
        <ele>742</ele>
        <time>2021-08-10T11:40:29.916Z</time>
      </trkpt>
      <trkpt lat="46.92284" lon="8.58578">
        <ele>742</ele>
        <time>2021-08-10T11:40:30.916Z</time>
      </trkpt>
      <trkpt lat="46.92283" lon="8.58577">
        <ele>742</ele>
        <time>2021-08-10T11:40:31.916Z</time>
      </trkpt>
      <trkpt lat="46.92283" lon="8.58577">
        <ele>742</ele>
        <time>2021-08-10T11:40:32.916Z</time>
      </trkpt>
      <trkpt lat="46.92282" lon="8.58576">
        <ele>742</ele>
        <time>2021-08-10T11:40:33.916Z</time>
      </trkpt>
      <trkpt lat="46.92281" lon="8.58576">
        <ele>742</ele>
        <time>2021-08-10T11:40:34.916Z</time>
      </trkpt>
      <trkpt lat="46.92281" lon="8.58575">
        <ele>743</ele>
        <time>2021-08-10T11:40:35.916Z</time>
      </trkpt>
      <trkpt lat="46.9228" lon="8.58573">
        <ele>743</ele>
        <time>2021-08-10T11:40:36.916Z</time>
      </trkpt>
      <trkpt lat="46.92281" lon="8.58571">
        <ele>743</ele>
        <time>2021-08-10T11:40:44.891Z</time>
      </trkpt>
      <trkpt lat="46.92281" lon="8.58569">
        <ele>744</ele>
        <time>2021-08-10T11:40:45.890Z</time>
      </trkpt>
      <trkpt lat="46.92281" lon="8.58567">
        <ele>744</ele>
        <time>2021-08-10T11:40:46.890Z</time>
      </trkpt>
      <trkpt lat="46.9228" lon="8.58566">
        <ele>744</ele>
        <time>2021-08-10T11:40:47.890Z</time>
      </trkpt>
      <trkpt lat="46.92278" lon="8.58566">
        <ele>744</ele>
        <time>2021-08-10T11:40:48.890Z</time>
      </trkpt>
      <trkpt lat="46.92278" lon="8.58566">
        <ele>744</ele>
        <time>2021-08-10T11:40:49.891Z</time>
      </trkpt>
      <trkpt lat="46.92277" lon="8.58566">
        <ele>744</ele>
        <time>2021-08-10T11:40:50.890Z</time>
      </trkpt>
      <trkpt lat="46.92277" lon="8.58566">
        <ele>745</ele>
        <time>2021-08-10T11:40:51.891Z</time>
      </trkpt>
      <trkpt lat="46.92277" lon="8.58565">
        <ele>745</ele>
        <time>2021-08-10T11:40:52.890Z</time>
      </trkpt>
      <trkpt lat="46.92276" lon="8.58565">
        <ele>745</ele>
        <time>2021-08-10T11:40:59.038Z</time>
      </trkpt>
      <trkpt lat="46.92277" lon="8.58565">
        <ele>745</ele>
        <time>2021-08-10T11:41:00.039Z</time>
      </trkpt>
      <trkpt lat="46.92277" lon="8.58564">
        <ele>745</ele>
        <time>2021-08-10T11:41:01.039Z</time>
      </trkpt>
      <trkpt lat="46.92276" lon="8.58564">
        <ele>744</ele>
        <time>2021-08-10T11:41:02.038Z</time>
      </trkpt>
      <trkpt lat="46.92276" lon="8.58563">
        <ele>744</ele>
        <time>2021-08-10T11:41:03.038Z</time>
      </trkpt>
      <trkpt lat="46.92276" lon="8.58562">
        <ele>744</ele>
        <time>2021-08-10T11:41:04.038Z</time>
      </trkpt>
      <trkpt lat="46.92275" lon="8.58561">
        <ele>744</ele>
        <time>2021-08-10T11:41:05.038Z</time>
      </trkpt>
      <trkpt lat="46.92275" lon="8.58561">
        <ele>744</ele>
        <time>2021-08-10T11:41:06.039Z</time>
      </trkpt>
      <trkpt lat="46.92274" lon="8.58561">
        <ele>744</ele>
        <time>2021-08-10T11:41:07.039Z</time>
      </trkpt>
      <trkpt lat="46.92274" lon="8.58561">
        <ele>744</ele>
        <time>2021-08-10T11:41:08.038Z</time>
      </trkpt>
      <trkpt lat="46.92275" lon="8.5856">
        <ele>744</ele>
        <time>2021-08-10T11:41:09.038Z</time>
      </trkpt>
      <trkpt lat="46.92275" lon="8.5856">
        <ele>744</ele>
        <time>2021-08-10T11:41:10.038Z</time>
      </trkpt>
      <trkpt lat="46.92273" lon="8.58561">
        <ele>737</ele>
        <time>2021-08-10T11:41:11.039Z</time>
      </trkpt>
      <trkpt lat="46.92272" lon="8.58562">
        <ele>737</ele>
        <time>2021-08-10T11:41:12.038Z</time>
      </trkpt>
      <trkpt lat="46.92271" lon="8.58561">
        <ele>736</ele>
        <time>2021-08-10T11:41:13.038Z</time>
      </trkpt>
      <trkpt lat="46.92271" lon="8.58562">
        <ele>736</ele>
        <time>2021-08-10T11:41:14.038Z</time>
      </trkpt>
      <trkpt lat="46.92271" lon="8.58562">
        <ele>735</ele>
        <time>2021-08-10T11:41:15.039Z</time>
      </trkpt>
      <trkpt lat="46.92271" lon="8.58564">
        <ele>734</ele>
        <time>2021-08-10T11:41:16.040Z</time>
      </trkpt>
      <trkpt lat="46.92271" lon="8.58564">
        <ele>733</ele>
        <time>2021-08-10T11:41:17.039Z</time>
      </trkpt>
      <trkpt lat="46.92273" lon="8.58553">
        <ele>721</ele>
        <time>2021-08-10T11:41:18.041Z</time>
      </trkpt>
      <trkpt lat="46.92273" lon="8.58553">
        <ele>721</ele>
        <time>2021-08-10T11:41:19.040Z</time>
      </trkpt>
      <trkpt lat="46.92272" lon="8.58553">
        <ele>721</ele>
        <time>2021-08-10T11:41:20.041Z</time>
      </trkpt>
      <trkpt lat="46.92271" lon="8.58554">
        <ele>720</ele>
        <time>2021-08-10T11:41:21.041Z</time>
      </trkpt>
      <trkpt lat="46.92271" lon="8.58555">
        <ele>720</ele>
        <time>2021-08-10T11:41:22.041Z</time>
      </trkpt>
      <trkpt lat="46.92269" lon="8.58554">
        <ele>720</ele>
        <time>2021-08-10T11:41:23.041Z</time>
      </trkpt>
      <trkpt lat="46.92269" lon="8.58553">
        <ele>720</ele>
        <time>2021-08-10T11:41:24.040Z</time>
      </trkpt>
      <trkpt lat="46.92269" lon="8.58552">
        <ele>720</ele>
        <time>2021-08-10T11:41:25.040Z</time>
      </trkpt>
      <trkpt lat="46.92268" lon="8.5855">
        <ele>720</ele>
        <time>2021-08-10T11:41:26.040Z</time>
      </trkpt>
      <trkpt lat="46.9227" lon="8.58548">
        <ele>714</ele>
        <time>2021-08-10T11:41:27.040Z</time>
      </trkpt>
      <trkpt lat="46.92271" lon="8.58548">
        <ele>714</ele>
        <time>2021-08-10T11:41:28.041Z</time>
      </trkpt>
      <trkpt lat="46.92271" lon="8.58547">
        <ele>713</ele>
        <time>2021-08-10T11:41:29.040Z</time>
      </trkpt>
      <trkpt lat="46.92271" lon="8.58547">
        <ele>712</ele>
        <time>2021-08-10T11:42:04.153Z</time>
      </trkpt>
      <trkpt lat="46.92271" lon="8.58545">
        <ele>711</ele>
        <time>2021-08-10T11:42:05.153Z</time>
      </trkpt>
      <trkpt lat="46.92271" lon="8.58545">
        <ele>711</ele>
        <time>2021-08-10T11:42:06.153Z</time>
      </trkpt>
      <trkpt lat="46.92271" lon="8.58548">
        <ele>714</ele>
        <time>2021-08-10T11:42:07.154Z</time>
      </trkpt>
      <trkpt lat="46.92271" lon="8.58548">
        <ele>715</ele>
        <time>2021-08-10T11:42:08.153Z</time>
      </trkpt>
      <trkpt lat="46.92271" lon="8.58548">
        <ele>715</ele>
        <time>2021-08-10T11:42:09.153Z</time>
      </trkpt>
      <trkpt lat="46.9227" lon="8.58548">
        <ele>717</ele>
        <time>2021-08-10T11:42:10.155Z</time>
      </trkpt>
      <trkpt lat="46.92268" lon="8.5855">
        <ele>717</ele>
        <time>2021-08-10T11:42:11.155Z</time>
      </trkpt>
      <trkpt lat="46.92268" lon="8.58552">
        <ele>718</ele>
        <time>2021-08-10T11:42:12.154Z</time>
      </trkpt>
      <trkpt lat="46.92267" lon="8.58553">
        <ele>718</ele>
        <time>2021-08-10T11:42:13.155Z</time>
      </trkpt>
      <trkpt lat="46.92267" lon="8.58554">
        <ele>718</ele>
        <time>2021-08-10T11:42:14.155Z</time>
      </trkpt>
      <trkpt lat="46.92267" lon="8.58555">
        <ele>719</ele>
        <time>2021-08-10T11:42:15.155Z</time>
      </trkpt>
      <trkpt lat="46.92266" lon="8.58557">
        <ele>719</ele>
        <time>2021-08-10T11:42:16.155Z</time>
      </trkpt>
      <trkpt lat="46.92265" lon="8.58558">
        <ele>719</ele>
        <time>2021-08-10T11:42:17.155Z</time>
      </trkpt>
      <trkpt lat="46.92264" lon="8.58559">
        <ele>720</ele>
        <time>2021-08-10T11:42:18.155Z</time>
      </trkpt>
      <trkpt lat="46.92263" lon="8.5856">
        <ele>720</ele>
        <time>2021-08-10T11:42:19.154Z</time>
      </trkpt>
      <trkpt lat="46.92263" lon="8.58562">
        <ele>720</ele>
        <time>2021-08-10T11:42:20.155Z</time>
      </trkpt>
      <trkpt lat="46.92263" lon="8.58563">
        <ele>721</ele>
        <time>2021-08-10T11:42:21.155Z</time>
      </trkpt>
      <trkpt lat="46.92262" lon="8.58564">
        <ele>721</ele>
        <time>2021-08-10T11:42:22.155Z</time>
      </trkpt>
      <trkpt lat="46.92261" lon="8.58565">
        <ele>721</ele>
        <time>2021-08-10T11:42:23.154Z</time>
      </trkpt>
      <trkpt lat="46.92261" lon="8.58567">
        <ele>721</ele>
        <time>2021-08-10T11:42:24.155Z</time>
      </trkpt>
      <trkpt lat="46.92261" lon="8.58569">
        <ele>721</ele>
        <time>2021-08-10T11:42:25.154Z</time>
      </trkpt>
      <trkpt lat="46.9226" lon="8.5857">
        <ele>722</ele>
        <time>2021-08-10T11:42:26.154Z</time>
      </trkpt>
      <trkpt lat="46.92259" lon="8.58572">
        <ele>722</ele>
        <time>2021-08-10T11:42:27.155Z</time>
      </trkpt>
      <trkpt lat="46.92258" lon="8.58574">
        <ele>722</ele>
        <time>2021-08-10T11:42:28.154Z</time>
      </trkpt>
      <trkpt lat="46.92257" lon="8.58575">
        <ele>722</ele>
        <time>2021-08-10T11:42:29.155Z</time>
      </trkpt>
      <trkpt lat="46.92256" lon="8.58577">
        <ele>722</ele>
        <time>2021-08-10T11:42:30.155Z</time>
      </trkpt>
      <trkpt lat="46.92255" lon="8.58578">
        <ele>722</ele>
        <time>2021-08-10T11:42:31.155Z</time>
      </trkpt>
      <trkpt lat="46.92254" lon="8.58579">
        <ele>723</ele>
        <time>2021-08-10T11:42:32.155Z</time>
      </trkpt>
      <trkpt lat="46.92253" lon="8.58581">
        <ele>723</ele>
        <time>2021-08-10T11:42:33.155Z</time>
      </trkpt>
      <trkpt lat="46.92251" lon="8.58581">
        <ele>723</ele>
        <time>2021-08-10T11:42:34.155Z</time>
      </trkpt>
      <trkpt lat="46.92249" lon="8.58581">
        <ele>723</ele>
        <time>2021-08-10T11:42:35.154Z</time>
      </trkpt>
      <trkpt lat="46.92249" lon="8.58581">
        <ele>723</ele>
        <time>2021-08-10T11:42:36.155Z</time>
      </trkpt>
      <trkpt lat="46.92248" lon="8.58582">
        <ele>724</ele>
        <time>2021-08-10T11:42:37.154Z</time>
      </trkpt>
      <trkpt lat="46.92247" lon="8.58584">
        <ele>724</ele>
        <time>2021-08-10T11:42:38.154Z</time>
      </trkpt>
      <trkpt lat="46.92246" lon="8.58586">
        <ele>724</ele>
        <time>2021-08-10T11:42:39.155Z</time>
      </trkpt>
      <trkpt lat="46.92244" lon="8.58588">
        <ele>725</ele>
        <time>2021-08-10T11:42:40.155Z</time>
      </trkpt>
      <trkpt lat="46.92244" lon="8.58588">
        <ele>725</ele>
        <time>2021-08-10T11:42:41.154Z</time>
      </trkpt>
      <trkpt lat="46.92243" lon="8.58589">
        <ele>725</ele>
        <time>2021-08-10T11:42:42.154Z</time>
      </trkpt>
      <trkpt lat="46.92242" lon="8.58592">
        <ele>726</ele>
        <time>2021-08-10T11:42:43.156Z</time>
      </trkpt>
      <trkpt lat="46.92242" lon="8.58593">
        <ele>726</ele>
        <time>2021-08-10T11:42:44.156Z</time>
      </trkpt>
      <trkpt lat="46.92241" lon="8.58593">
        <ele>726</ele>
        <time>2021-08-10T11:42:45.155Z</time>
      </trkpt>
      <trkpt lat="46.92241" lon="8.58593">
        <ele>726</ele>
        <time>2021-08-10T11:42:46.155Z</time>
      </trkpt>
      <trkpt lat="46.9224" lon="8.58594">
        <ele>726</ele>
        <time>2021-08-10T11:42:47.155Z</time>
      </trkpt>
      <trkpt lat="46.9224" lon="8.58594">
        <ele>727</ele>
        <time>2021-08-10T11:42:48.156Z</time>
      </trkpt>
      <trkpt lat="46.92239" lon="8.58594">
        <ele>727</ele>
        <time>2021-08-10T11:42:49.156Z</time>
      </trkpt>
      <trkpt lat="46.92238" lon="8.58594">
        <ele>727</ele>
        <time>2021-08-10T11:42:50.155Z</time>
      </trkpt>
      <trkpt lat="46.92238" lon="8.58594">
        <ele>727</ele>
        <time>2021-08-10T11:42:51.156Z</time>
      </trkpt>
      <trkpt lat="46.92237" lon="8.58593">
        <ele>728</ele>
        <time>2021-08-10T11:42:52.156Z</time>
      </trkpt>
      <trkpt lat="46.92236" lon="8.58592">
        <ele>728</ele>
        <time>2021-08-10T11:42:53.156Z</time>
      </trkpt>
      <trkpt lat="46.92234" lon="8.58591">
        <ele>728</ele>
        <time>2021-08-10T11:42:54.156Z</time>
      </trkpt>
      <trkpt lat="46.92233" lon="8.5859">
        <ele>728</ele>
        <time>2021-08-10T11:42:55.156Z</time>
      </trkpt>
      <trkpt lat="46.92232" lon="8.5859">
        <ele>729</ele>
        <time>2021-08-10T11:42:56.155Z</time>
      </trkpt>
      <trkpt lat="46.92231" lon="8.5859">
        <ele>729</ele>
        <time>2021-08-10T11:42:57.155Z</time>
      </trkpt>
      <trkpt lat="46.9223" lon="8.5859">
        <ele>729</ele>
        <time>2021-08-10T11:42:58.155Z</time>
      </trkpt>
      <trkpt lat="46.9223" lon="8.5859">
        <ele>729</ele>
        <time>2021-08-10T11:42:59.155Z</time>
      </trkpt>
      <trkpt lat="46.92229" lon="8.5859">
        <ele>729</ele>
        <time>2021-08-10T11:43:00.156Z</time>
      </trkpt>
      <trkpt lat="46.92228" lon="8.5859">
        <ele>729</ele>
        <time>2021-08-10T11:43:01.156Z</time>
      </trkpt>
      <trkpt lat="46.92228" lon="8.5859">
        <ele>729</ele>
        <time>2021-08-10T11:43:02.156Z</time>
      </trkpt>
      <trkpt lat="46.92227" lon="8.5859">
        <ele>729</ele>
        <time>2021-08-10T11:43:03.156Z</time>
      </trkpt>
      <trkpt lat="46.92227" lon="8.5859">
        <ele>729</ele>
        <time>2021-08-10T11:43:04.156Z</time>
      </trkpt>
      <trkpt lat="46.92226" lon="8.5859">
        <ele>729</ele>
        <time>2021-08-10T11:43:05.155Z</time>
      </trkpt>
      <trkpt lat="46.92226" lon="8.5859">
        <ele>729</ele>
        <time>2021-08-10T11:43:06.155Z</time>
      </trkpt>
      <trkpt lat="46.92226" lon="8.58589">
        <ele>729</ele>
        <time>2021-08-10T11:43:07.156Z</time>
      </trkpt>
      <trkpt lat="46.92225" lon="8.58589">
        <ele>729</ele>
        <time>2021-08-10T11:43:38.257Z</time>
      </trkpt>
      <trkpt lat="46.92224" lon="8.58589">
        <ele>729</ele>
        <time>2021-08-10T11:43:39.257Z</time>
      </trkpt>
      <trkpt lat="46.92223" lon="8.5859">
        <ele>729</ele>
        <time>2021-08-10T11:43:45.145Z</time>
      </trkpt>
      <trkpt lat="46.92222" lon="8.58591">
        <ele>729</ele>
        <time>2021-08-10T11:43:46.144Z</time>
      </trkpt>
      <trkpt lat="46.92221" lon="8.58591">
        <ele>729</ele>
        <time>2021-08-10T11:43:47.145Z</time>
      </trkpt>
      <trkpt lat="46.92221" lon="8.58591">
        <ele>728</ele>
        <time>2021-08-10T11:44:20.290Z</time>
      </trkpt>
      <trkpt lat="46.9222" lon="8.58591">
        <ele>728</ele>
        <time>2021-08-10T11:44:21.290Z</time>
      </trkpt>
      <trkpt lat="46.9222" lon="8.5859">
        <ele>728</ele>
        <time>2021-08-10T11:44:22.290Z</time>
      </trkpt>
      <trkpt lat="46.92219" lon="8.5859">
        <ele>728</ele>
        <time>2021-08-10T11:44:23.290Z</time>
      </trkpt>
      <trkpt lat="46.92219" lon="8.58589">
        <ele>728</ele>
        <time>2021-08-10T11:44:24.290Z</time>
      </trkpt>
      <trkpt lat="46.92218" lon="8.58588">
        <ele>727</ele>
        <time>2021-08-10T11:44:25.289Z</time>
      </trkpt>
      <trkpt lat="46.92217" lon="8.58588">
        <ele>727</ele>
        <time>2021-08-10T11:44:26.289Z</time>
      </trkpt>
      <trkpt lat="46.92217" lon="8.58588">
        <ele>727</ele>
        <time>2021-08-10T11:44:27.290Z</time>
      </trkpt>
      <trkpt lat="46.92216" lon="8.58588">
        <ele>727</ele>
        <time>2021-08-10T11:44:35.404Z</time>
      </trkpt>
      <trkpt lat="46.92215" lon="8.58589">
        <ele>727</ele>
        <time>2021-08-10T11:44:36.404Z</time>
      </trkpt>
      <trkpt lat="46.92214" lon="8.5859">
        <ele>727</ele>
        <time>2021-08-10T11:44:37.403Z</time>
      </trkpt>
      <trkpt lat="46.92214" lon="8.58591">
        <ele>727</ele>
        <time>2021-08-10T11:44:51.417Z</time>
      </trkpt>
      <trkpt lat="46.92213" lon="8.58592">
        <ele>727</ele>
        <time>2021-08-10T11:44:52.417Z</time>
      </trkpt>
      <trkpt lat="46.92213" lon="8.58592">
        <ele>728</ele>
        <time>2021-08-10T11:44:53.417Z</time>
      </trkpt>
      <trkpt lat="46.92212" lon="8.58592">
        <ele>728</ele>
        <time>2021-08-10T11:44:54.417Z</time>
      </trkpt>
      <trkpt lat="46.92212" lon="8.58593">
        <ele>728</ele>
        <time>2021-08-10T11:44:55.416Z</time>
      </trkpt>
      <trkpt lat="46.92211" lon="8.58594">
        <ele>728</ele>
        <time>2021-08-10T11:44:56.417Z</time>
      </trkpt>
      <trkpt lat="46.9221" lon="8.58595">
        <ele>729</ele>
        <time>2021-08-10T11:44:57.416Z</time>
      </trkpt>
      <trkpt lat="46.92209" lon="8.58595">
        <ele>729</ele>
        <time>2021-08-10T11:44:58.417Z</time>
      </trkpt>
      <trkpt lat="46.92208" lon="8.58595">
        <ele>729</ele>
        <time>2021-08-10T11:44:59.416Z</time>
      </trkpt>
      <trkpt lat="46.92208" lon="8.58595">
        <ele>730</ele>
        <time>2021-08-10T11:45:00.417Z</time>
      </trkpt>
      <trkpt lat="46.92207" lon="8.58595">
        <ele>730</ele>
        <time>2021-08-10T11:45:01.417Z</time>
      </trkpt>
      <trkpt lat="46.92207" lon="8.58594">
        <ele>731</ele>
        <time>2021-08-10T11:45:02.417Z</time>
      </trkpt>
      <trkpt lat="46.92207" lon="8.58594">
        <ele>731</ele>
        <time>2021-08-10T11:45:03.417Z</time>
      </trkpt>
      <trkpt lat="46.92207" lon="8.58594">
        <ele>731</ele>
        <time>2021-08-10T11:45:04.417Z</time>
      </trkpt>
      <trkpt lat="46.92206" lon="8.58594">
        <ele>731</ele>
        <time>2021-08-10T11:45:05.417Z</time>
      </trkpt>
      <trkpt lat="46.92205" lon="8.58594">
        <ele>731</ele>
        <time>2021-08-10T11:45:06.417Z</time>
      </trkpt>
      <trkpt lat="46.92204" lon="8.58593">
        <ele>732</ele>
        <time>2021-08-10T11:45:07.417Z</time>
      </trkpt>
      <trkpt lat="46.92204" lon="8.58592">
        <ele>732</ele>
        <time>2021-08-10T11:45:08.417Z</time>
      </trkpt>
      <trkpt lat="46.92203" lon="8.58592">
        <ele>732</ele>
        <time>2021-08-10T11:45:09.417Z</time>
      </trkpt>
      <trkpt lat="46.92203" lon="8.58591">
        <ele>732</ele>
        <time>2021-08-10T11:45:10.417Z</time>
      </trkpt>
      <trkpt lat="46.92203" lon="8.5859">
        <ele>732</ele>
        <time>2021-08-10T11:45:11.417Z</time>
      </trkpt>
      <trkpt lat="46.92202" lon="8.58588">
        <ele>732</ele>
        <time>2021-08-10T11:45:12.417Z</time>
      </trkpt>
      <trkpt lat="46.92201" lon="8.58588">
        <ele>732</ele>
        <time>2021-08-10T11:45:13.417Z</time>
      </trkpt>
      <trkpt lat="46.922" lon="8.58588">
        <ele>733</ele>
        <time>2021-08-10T11:45:14.417Z</time>
      </trkpt>
      <trkpt lat="46.92199" lon="8.58589">
        <ele>733</ele>
        <time>2021-08-10T11:45:15.417Z</time>
      </trkpt>
      <trkpt lat="46.92198" lon="8.58589">
        <ele>733</ele>
        <time>2021-08-10T11:45:16.417Z</time>
      </trkpt>
      <trkpt lat="46.92198" lon="8.58589">
        <ele>734</ele>
        <time>2021-08-10T11:45:17.416Z</time>
      </trkpt>
      <trkpt lat="46.92197" lon="8.58588">
        <ele>734</ele>
        <time>2021-08-10T11:45:18.416Z</time>
      </trkpt>
      <trkpt lat="46.92197" lon="8.58587">
        <ele>735</ele>
        <time>2021-08-10T11:45:19.417Z</time>
      </trkpt>
      <trkpt lat="46.92197" lon="8.58588">
        <ele>735</ele>
        <time>2021-08-10T11:45:20.417Z</time>
      </trkpt>
      <trkpt lat="46.92197" lon="8.58588">
        <ele>735</ele>
        <time>2021-08-10T11:45:21.417Z</time>
      </trkpt>
      <trkpt lat="46.92195" lon="8.58588">
        <ele>735</ele>
        <time>2021-08-10T11:45:22.417Z</time>
      </trkpt>
      <trkpt lat="46.92194" lon="8.58589">
        <ele>736</ele>
        <time>2021-08-10T11:45:23.416Z</time>
      </trkpt>
      <trkpt lat="46.92193" lon="8.58589">
        <ele>736</ele>
        <time>2021-08-10T11:45:24.417Z</time>
      </trkpt>
      <trkpt lat="46.92193" lon="8.58589">
        <ele>736</ele>
        <time>2021-08-10T11:45:25.416Z</time>
      </trkpt>
      <trkpt lat="46.92192" lon="8.58589">
        <ele>736</ele>
        <time>2021-08-10T11:45:26.417Z</time>
      </trkpt>
      <trkpt lat="46.92193" lon="8.5859">
        <ele>736</ele>
        <time>2021-08-10T11:45:27.416Z</time>
      </trkpt>
      <trkpt lat="46.92193" lon="8.5859">
        <ele>736</ele>
        <time>2021-08-10T11:45:28.417Z</time>
      </trkpt>
      <trkpt lat="46.92193" lon="8.58593">
        <ele>738</ele>
        <time>2021-08-10T11:45:29.416Z</time>
      </trkpt>
      <trkpt lat="46.92193" lon="8.58592">
        <ele>738</ele>
        <time>2021-08-10T11:45:30.416Z</time>
      </trkpt>
      <trkpt lat="46.92193" lon="8.58592">
        <ele>739</ele>
        <time>2021-08-10T11:45:31.417Z</time>
      </trkpt>
      <trkpt lat="46.92192" lon="8.58592">
        <ele>739</ele>
        <time>2021-08-10T11:45:32.417Z</time>
      </trkpt>
      <trkpt lat="46.92192" lon="8.58592">
        <ele>739</ele>
        <time>2021-08-10T11:45:33.417Z</time>
      </trkpt>
      <trkpt lat="46.92191" lon="8.58591">
        <ele>739</ele>
        <time>2021-08-10T11:45:34.417Z</time>
      </trkpt>
      <trkpt lat="46.92189" lon="8.5859">
        <ele>740</ele>
        <time>2021-08-10T11:45:35.417Z</time>
      </trkpt>
      <trkpt lat="46.92188" lon="8.5859">
        <ele>740</ele>
        <time>2021-08-10T11:45:36.417Z</time>
      </trkpt>
      <trkpt lat="46.92188" lon="8.58589">
        <ele>740</ele>
        <time>2021-08-10T11:45:37.417Z</time>
      </trkpt>
      <trkpt lat="46.92187" lon="8.58589">
        <ele>740</ele>
        <time>2021-08-10T11:45:38.417Z</time>
      </trkpt>
      <trkpt lat="46.92187" lon="8.58588">
        <ele>740</ele>
        <time>2021-08-10T11:45:39.417Z</time>
      </trkpt>
      <trkpt lat="46.92187" lon="8.58588">
        <ele>740</ele>
        <time>2021-08-10T11:45:40.416Z</time>
      </trkpt>
      <trkpt lat="46.92187" lon="8.58589">
        <ele>740</ele>
        <time>2021-08-10T11:45:41.416Z</time>
      </trkpt>
      <trkpt lat="46.92186" lon="8.5859">
        <ele>741</ele>
        <time>2021-08-10T11:45:42.417Z</time>
      </trkpt>
      <trkpt lat="46.92186" lon="8.5859">
        <ele>741</ele>
        <time>2021-08-10T11:45:43.417Z</time>
      </trkpt>
      <trkpt lat="46.92185" lon="8.58591">
        <ele>741</ele>
        <time>2021-08-10T11:45:44.416Z</time>
      </trkpt>
      <trkpt lat="46.92183" lon="8.58591">
        <ele>741</ele>
        <time>2021-08-10T11:45:45.416Z</time>
      </trkpt>
      <trkpt lat="46.92182" lon="8.58592">
        <ele>741</ele>
        <time>2021-08-10T11:45:46.416Z</time>
      </trkpt>
      <trkpt lat="46.92181" lon="8.58592">
        <ele>741</ele>
        <time>2021-08-10T11:45:47.416Z</time>
      </trkpt>
      <trkpt lat="46.92181" lon="8.58592">
        <ele>741</ele>
        <time>2021-08-10T11:45:48.417Z</time>
      </trkpt>
      <trkpt lat="46.9218" lon="8.58593">
        <ele>741</ele>
        <time>2021-08-10T11:45:49.417Z</time>
      </trkpt>
      <trkpt lat="46.92179" lon="8.58594">
        <ele>742</ele>
        <time>2021-08-10T11:45:50.417Z</time>
      </trkpt>
      <trkpt lat="46.92178" lon="8.58595">
        <ele>742</ele>
        <time>2021-08-10T11:45:51.417Z</time>
      </trkpt>
      <trkpt lat="46.92177" lon="8.58595">
        <ele>742</ele>
        <time>2021-08-10T11:45:52.416Z</time>
      </trkpt>
      <trkpt lat="46.92176" lon="8.58595">
        <ele>742</ele>
        <time>2021-08-10T11:45:53.416Z</time>
      </trkpt>
      <trkpt lat="46.92174" lon="8.58597">
        <ele>742</ele>
        <time>2021-08-10T11:45:54.417Z</time>
      </trkpt>
      <trkpt lat="46.92174" lon="8.58599">
        <ele>742</ele>
        <time>2021-08-10T11:45:55.416Z</time>
      </trkpt>
      <trkpt lat="46.92174" lon="8.58599">
        <ele>742</ele>
        <time>2021-08-10T11:45:56.417Z</time>
      </trkpt>
      <trkpt lat="46.92174" lon="8.586">
        <ele>743</ele>
        <time>2021-08-10T11:45:57.417Z</time>
      </trkpt>
      <trkpt lat="46.92173" lon="8.586">
        <ele>743</ele>
        <time>2021-08-10T11:45:58.417Z</time>
      </trkpt>
      <trkpt lat="46.92172" lon="8.58602">
        <ele>743</ele>
        <time>2021-08-10T11:45:59.417Z</time>
      </trkpt>
      <trkpt lat="46.92172" lon="8.58604">
        <ele>743</ele>
        <time>2021-08-10T11:46:00.417Z</time>
      </trkpt>
      <trkpt lat="46.9217" lon="8.58606">
        <ele>744</ele>
        <time>2021-08-10T11:46:01.416Z</time>
      </trkpt>
      <trkpt lat="46.92167" lon="8.58608">
        <ele>744</ele>
        <time>2021-08-10T11:46:02.417Z</time>
      </trkpt>
      <trkpt lat="46.92165" lon="8.58609">
        <ele>744</ele>
        <time>2021-08-10T11:46:03.417Z</time>
      </trkpt>
      <trkpt lat="46.92163" lon="8.58608">
        <ele>744</ele>
        <time>2021-08-10T11:46:04.416Z</time>
      </trkpt>
      <trkpt lat="46.9216" lon="8.58608">
        <ele>744</ele>
        <time>2021-08-10T11:46:05.417Z</time>
      </trkpt>
      <trkpt lat="46.92159" lon="8.58607">
        <ele>745</ele>
        <time>2021-08-10T11:46:06.416Z</time>
      </trkpt>
      <trkpt lat="46.92159" lon="8.58607">
        <ele>745</ele>
        <time>2021-08-10T11:46:07.417Z</time>
      </trkpt>
      <trkpt lat="46.92159" lon="8.58606">
        <ele>745</ele>
        <time>2021-08-10T11:46:08.417Z</time>
      </trkpt>
      <trkpt lat="46.92159" lon="8.58606">
        <ele>745</ele>
        <time>2021-08-10T11:46:09.417Z</time>
      </trkpt>
      <trkpt lat="46.92158" lon="8.58606">
        <ele>745</ele>
        <time>2021-08-10T11:46:10.417Z</time>
      </trkpt>
      <trkpt lat="46.92158" lon="8.58606">
        <ele>746</ele>
        <time>2021-08-10T11:46:11.416Z</time>
      </trkpt>
      <trkpt lat="46.92157" lon="8.58606">
        <ele>746</ele>
        <time>2021-08-10T11:46:12.416Z</time>
      </trkpt>
      <trkpt lat="46.92158" lon="8.58605">
        <ele>747</ele>
        <time>2021-08-10T11:46:13.417Z</time>
      </trkpt>
      <trkpt lat="46.92158" lon="8.58604">
        <ele>748</ele>
        <time>2021-08-10T11:46:14.416Z</time>
      </trkpt>
      <trkpt lat="46.92159" lon="8.58603">
        <ele>749</ele>
        <time>2021-08-10T11:46:15.416Z</time>
      </trkpt>
      <trkpt lat="46.92158" lon="8.58603">
        <ele>750</ele>
        <time>2021-08-10T11:46:16.416Z</time>
      </trkpt>
      <trkpt lat="46.92158" lon="8.58603">
        <ele>750</ele>
        <time>2021-08-10T11:46:17.416Z</time>
      </trkpt>
      <trkpt lat="46.92159" lon="8.58601">
        <ele>753</ele>
        <time>2021-08-10T11:46:18.417Z</time>
      </trkpt>
      <trkpt lat="46.92158" lon="8.58601">
        <ele>754</ele>
        <time>2021-08-10T11:46:19.417Z</time>
      </trkpt>
      <trkpt lat="46.92158" lon="8.586">
        <ele>754</ele>
        <time>2021-08-10T11:46:20.417Z</time>
      </trkpt>
      <trkpt lat="46.92158" lon="8.586">
        <ele>754</ele>
        <time>2021-08-10T11:46:21.417Z</time>
      </trkpt>
      <trkpt lat="46.92158" lon="8.58599">
        <ele>755</ele>
        <time>2021-08-10T11:46:22.417Z</time>
      </trkpt>
      <trkpt lat="46.92159" lon="8.58597">
        <ele>756</ele>
        <time>2021-08-10T11:46:23.417Z</time>
      </trkpt>
      <trkpt lat="46.92159" lon="8.58596">
        <ele>756</ele>
        <time>2021-08-10T11:46:24.417Z</time>
      </trkpt>
      <trkpt lat="46.92159" lon="8.58596">
        <ele>756</ele>
        <time>2021-08-10T11:46:25.417Z</time>
      </trkpt>
      <trkpt lat="46.92158" lon="8.58597">
        <ele>757</ele>
        <time>2021-08-10T11:46:26.418Z</time>
      </trkpt>
      <trkpt lat="46.92158" lon="8.58597">
        <ele>757</ele>
        <time>2021-08-10T11:46:27.417Z</time>
      </trkpt>
      <trkpt lat="46.92158" lon="8.58596">
        <ele>758</ele>
        <time>2021-08-10T11:46:28.417Z</time>
      </trkpt>
      <trkpt lat="46.92159" lon="8.58596">
        <ele>758</ele>
        <time>2021-08-10T11:46:29.417Z</time>
      </trkpt>
      <trkpt lat="46.92159" lon="8.58596">
        <ele>759</ele>
        <time>2021-08-10T11:46:30.417Z</time>
      </trkpt>
      <trkpt lat="46.92161" lon="8.58597">
        <ele>760</ele>
        <time>2021-08-10T11:46:31.417Z</time>
      </trkpt>
      <trkpt lat="46.92162" lon="8.58597">
        <ele>760</ele>
        <time>2021-08-10T11:46:32.417Z</time>
      </trkpt>
      <trkpt lat="46.9216" lon="8.58603">
        <ele>762</ele>
        <time>2021-08-10T11:46:33.417Z</time>
      </trkpt>
      <trkpt lat="46.92159" lon="8.58604">
        <ele>763</ele>
        <time>2021-08-10T11:46:34.417Z</time>
      </trkpt>
      <trkpt lat="46.92158" lon="8.58605">
        <ele>763</ele>
        <time>2021-08-10T11:46:35.418Z</time>
      </trkpt>
      <trkpt lat="46.92158" lon="8.58605">
        <ele>763</ele>
        <time>2021-08-10T11:46:36.418Z</time>
      </trkpt>
      <trkpt lat="46.92157" lon="8.58605">
        <ele>763</ele>
        <time>2021-08-10T11:46:37.418Z</time>
      </trkpt>
      <trkpt lat="46.92156" lon="8.58605">
        <ele>763</ele>
        <time>2021-08-10T11:46:38.417Z</time>
      </trkpt>
      <trkpt lat="46.92156" lon="8.58606">
        <ele>763</ele>
        <time>2021-08-10T11:46:39.417Z</time>
      </trkpt>
      <trkpt lat="46.92156" lon="8.58606">
        <ele>763</ele>
        <time>2021-08-10T11:46:40.417Z</time>
      </trkpt>
      <trkpt lat="46.92155" lon="8.58606">
        <ele>764</ele>
        <time>2021-08-10T11:46:41.417Z</time>
      </trkpt>
      <trkpt lat="46.92154" lon="8.58606">
        <ele>764</ele>
        <time>2021-08-10T11:46:42.417Z</time>
      </trkpt>
      <trkpt lat="46.92153" lon="8.58607">
        <ele>764</ele>
        <time>2021-08-10T11:46:43.417Z</time>
      </trkpt>
      <trkpt lat="46.92152" lon="8.58608">
        <ele>764</ele>
        <time>2021-08-10T11:46:44.418Z</time>
      </trkpt>
      <trkpt lat="46.92151" lon="8.58609">
        <ele>764</ele>
        <time>2021-08-10T11:46:45.417Z</time>
      </trkpt>
      <trkpt lat="46.9215" lon="8.58609">
        <ele>764</ele>
        <time>2021-08-10T11:46:46.417Z</time>
      </trkpt>
      <trkpt lat="46.92149" lon="8.5861">
        <ele>764</ele>
        <time>2021-08-10T11:46:47.418Z</time>
      </trkpt>
      <trkpt lat="46.92149" lon="8.5861">
        <ele>764</ele>
        <time>2021-08-10T11:46:48.417Z</time>
      </trkpt>
      <trkpt lat="46.92148" lon="8.5861">
        <ele>765</ele>
        <time>2021-08-10T11:46:49.418Z</time>
      </trkpt>
      <trkpt lat="46.92147" lon="8.5861">
        <ele>765</ele>
        <time>2021-08-10T11:46:50.418Z</time>
      </trkpt>
      <trkpt lat="46.92146" lon="8.58612">
        <ele>765</ele>
        <time>2021-08-10T11:46:51.417Z</time>
      </trkpt>
      <trkpt lat="46.92145" lon="8.58614">
        <ele>765</ele>
        <time>2021-08-10T11:46:52.418Z</time>
      </trkpt>
      <trkpt lat="46.92145" lon="8.58616">
        <ele>765</ele>
        <time>2021-08-10T11:46:53.417Z</time>
      </trkpt>
      <trkpt lat="46.92145" lon="8.58617">
        <ele>765</ele>
        <time>2021-08-10T11:46:54.417Z</time>
      </trkpt>
      <trkpt lat="46.92145" lon="8.58618">
        <ele>765</ele>
        <time>2021-08-10T11:46:55.417Z</time>
      </trkpt>
      <trkpt lat="46.92145" lon="8.58619">
        <ele>765</ele>
        <time>2021-08-10T11:46:56.417Z</time>
      </trkpt>
      <trkpt lat="46.92144" lon="8.58621">
        <ele>765</ele>
        <time>2021-08-10T11:46:57.418Z</time>
      </trkpt>
      <trkpt lat="46.92143" lon="8.58623">
        <ele>766</ele>
        <time>2021-08-10T11:46:58.417Z</time>
      </trkpt>
      <trkpt lat="46.92142" lon="8.58624">
        <ele>766</ele>
        <time>2021-08-10T11:46:59.417Z</time>
      </trkpt>
      <trkpt lat="46.92142" lon="8.58624">
        <ele>766</ele>
        <time>2021-08-10T11:47:00.417Z</time>
      </trkpt>
      <trkpt lat="46.92142" lon="8.58623">
        <ele>766</ele>
        <time>2021-08-10T11:47:01.417Z</time>
      </trkpt>
      <trkpt lat="46.92141" lon="8.58623">
        <ele>766</ele>
        <time>2021-08-10T11:47:02.417Z</time>
      </trkpt>
      <trkpt lat="46.9214" lon="8.58622">
        <ele>766</ele>
        <time>2021-08-10T11:47:03.417Z</time>
      </trkpt>
      <trkpt lat="46.92139" lon="8.58622">
        <ele>767</ele>
        <time>2021-08-10T11:47:04.417Z</time>
      </trkpt>
      <trkpt lat="46.92138" lon="8.58621">
        <ele>767</ele>
        <time>2021-08-10T11:47:05.417Z</time>
      </trkpt>
      <trkpt lat="46.92134" lon="8.58624">
        <ele>767</ele>
        <time>2021-08-10T11:47:06.417Z</time>
      </trkpt>
      <trkpt lat="46.92133" lon="8.58625">
        <ele>767</ele>
        <time>2021-08-10T11:47:07.417Z</time>
      </trkpt>
      <trkpt lat="46.92132" lon="8.58626">
        <ele>767</ele>
        <time>2021-08-10T11:47:08.418Z</time>
      </trkpt>
      <trkpt lat="46.92131" lon="8.58627">
        <ele>767</ele>
        <time>2021-08-10T11:47:09.417Z</time>
      </trkpt>
      <trkpt lat="46.9213" lon="8.58628">
        <ele>767</ele>
        <time>2021-08-10T11:47:10.417Z</time>
      </trkpt>
      <trkpt lat="46.92129" lon="8.58629">
        <ele>767</ele>
        <time>2021-08-10T11:47:11.417Z</time>
      </trkpt>
      <trkpt lat="46.92128" lon="8.58629">
        <ele>767</ele>
        <time>2021-08-10T11:47:12.417Z</time>
      </trkpt>
      <trkpt lat="46.92126" lon="8.58629">
        <ele>767</ele>
        <time>2021-08-10T11:47:13.417Z</time>
      </trkpt>
      <trkpt lat="46.92125" lon="8.58629">
        <ele>766</ele>
        <time>2021-08-10T11:47:14.417Z</time>
      </trkpt>
      <trkpt lat="46.92124" lon="8.58628">
        <ele>766</ele>
        <time>2021-08-10T11:47:15.418Z</time>
      </trkpt>
      <trkpt lat="46.92124" lon="8.58627">
        <ele>766</ele>
        <time>2021-08-10T11:47:16.417Z</time>
      </trkpt>
      <trkpt lat="46.92123" lon="8.58627">
        <ele>766</ele>
        <time>2021-08-10T11:47:17.417Z</time>
      </trkpt>
      <trkpt lat="46.92123" lon="8.58627">
        <ele>766</ele>
        <time>2021-08-10T11:47:18.417Z</time>
      </trkpt>
      <trkpt lat="46.92122" lon="8.58627">
        <ele>766</ele>
        <time>2021-08-10T11:47:19.418Z</time>
      </trkpt>
      <trkpt lat="46.92122" lon="8.58626">
        <ele>766</ele>
        <time>2021-08-10T11:47:20.417Z</time>
      </trkpt>
      <trkpt lat="46.92121" lon="8.58626">
        <ele>766</ele>
        <time>2021-08-10T11:47:21.417Z</time>
      </trkpt>
      <trkpt lat="46.9212" lon="8.58626">
        <ele>766</ele>
        <time>2021-08-10T11:47:22.418Z</time>
      </trkpt>
      <trkpt lat="46.92119" lon="8.58626">
        <ele>766</ele>
        <time>2021-08-10T11:47:23.417Z</time>
      </trkpt>
      <trkpt lat="46.92119" lon="8.58626">
        <ele>766</ele>
        <time>2021-08-10T11:47:24.418Z</time>
      </trkpt>
      <trkpt lat="46.92118" lon="8.58626">
        <ele>765</ele>
        <time>2021-08-10T11:47:25.417Z</time>
      </trkpt>
      <trkpt lat="46.92118" lon="8.58627">
        <ele>765</ele>
        <time>2021-08-10T11:47:26.417Z</time>
      </trkpt>
      <trkpt lat="46.92117" lon="8.58627">
        <ele>765</ele>
        <time>2021-08-10T11:47:27.417Z</time>
      </trkpt>
      <trkpt lat="46.92116" lon="8.58627">
        <ele>765</ele>
        <time>2021-08-10T11:47:28.418Z</time>
      </trkpt>
      <trkpt lat="46.92115" lon="8.58627">
        <ele>765</ele>
        <time>2021-08-10T11:47:29.418Z</time>
      </trkpt>
      <trkpt lat="46.92114" lon="8.58627">
        <ele>765</ele>
        <time>2021-08-10T11:47:30.417Z</time>
      </trkpt>
      <trkpt lat="46.92113" lon="8.58627">
        <ele>764</ele>
        <time>2021-08-10T11:47:31.418Z</time>
      </trkpt>
      <trkpt lat="46.92112" lon="8.58627">
        <ele>764</ele>
        <time>2021-08-10T11:47:32.417Z</time>
      </trkpt>
      <trkpt lat="46.92112" lon="8.58626">
        <ele>764</ele>
        <time>2021-08-10T11:47:33.418Z</time>
      </trkpt>
      <trkpt lat="46.92112" lon="8.58625">
        <ele>764</ele>
        <time>2021-08-10T11:47:34.418Z</time>
      </trkpt>
      <trkpt lat="46.92111" lon="8.58624">
        <ele>764</ele>
        <time>2021-08-10T11:47:35.417Z</time>
      </trkpt>
      <trkpt lat="46.92111" lon="8.58624">
        <ele>764</ele>
        <time>2021-08-10T11:47:36.417Z</time>
      </trkpt>
      <trkpt lat="46.9211" lon="8.58624">
        <ele>763</ele>
        <time>2021-08-10T11:47:37.417Z</time>
      </trkpt>
      <trkpt lat="46.9211" lon="8.58625">
        <ele>763</ele>
        <time>2021-08-10T11:47:38.417Z</time>
      </trkpt>
      <trkpt lat="46.9211" lon="8.58626">
        <ele>763</ele>
        <time>2021-08-10T11:47:39.417Z</time>
      </trkpt>
      <trkpt lat="46.92109" lon="8.58626">
        <ele>763</ele>
        <time>2021-08-10T11:47:40.418Z</time>
      </trkpt>
      <trkpt lat="46.92108" lon="8.58625">
        <ele>763</ele>
        <time>2021-08-10T11:47:41.417Z</time>
      </trkpt>
      <trkpt lat="46.92107" lon="8.58625">
        <ele>763</ele>
        <time>2021-08-10T11:47:42.417Z</time>
      </trkpt>
      <trkpt lat="46.92106" lon="8.58625">
        <ele>762</ele>
        <time>2021-08-10T11:47:43.417Z</time>
      </trkpt>
      <trkpt lat="46.92106" lon="8.58625">
        <ele>762</ele>
        <time>2021-08-10T11:47:44.418Z</time>
      </trkpt>
      <trkpt lat="46.92105" lon="8.58626">
        <ele>762</ele>
        <time>2021-08-10T11:47:45.417Z</time>
      </trkpt>
      <trkpt lat="46.92104" lon="8.58626">
        <ele>761</ele>
        <time>2021-08-10T11:47:46.417Z</time>
      </trkpt>
      <trkpt lat="46.92104" lon="8.58626">
        <ele>761</ele>
        <time>2021-08-10T11:47:47.417Z</time>
      </trkpt>
      <trkpt lat="46.92103" lon="8.58627">
        <ele>761</ele>
        <time>2021-08-10T11:47:48.418Z</time>
      </trkpt>
      <trkpt lat="46.92102" lon="8.58628">
        <ele>761</ele>
        <time>2021-08-10T11:47:49.418Z</time>
      </trkpt>
      <trkpt lat="46.92102" lon="8.58628">
        <ele>761</ele>
        <time>2021-08-10T11:47:50.417Z</time>
      </trkpt>
      <trkpt lat="46.92102" lon="8.58628">
        <ele>761</ele>
        <time>2021-08-10T11:47:51.417Z</time>
      </trkpt>
      <trkpt lat="46.92101" lon="8.58628">
        <ele>761</ele>
        <time>2021-08-10T11:47:52.417Z</time>
      </trkpt>
      <trkpt lat="46.921" lon="8.58627">
        <ele>761</ele>
        <time>2021-08-10T11:47:53.418Z</time>
      </trkpt>
      <trkpt lat="46.92099" lon="8.58625">
        <ele>761</ele>
        <time>2021-08-10T11:47:54.417Z</time>
      </trkpt>
      <trkpt lat="46.92099" lon="8.58624">
        <ele>761</ele>
        <time>2021-08-10T11:47:55.417Z</time>
      </trkpt>
      <trkpt lat="46.92099" lon="8.58623">
        <ele>762</ele>
        <time>2021-08-10T11:47:56.417Z</time>
      </trkpt>
      <trkpt lat="46.92098" lon="8.58622">
        <ele>762</ele>
        <time>2021-08-10T11:47:57.417Z</time>
      </trkpt>
      <trkpt lat="46.92098" lon="8.58621">
        <ele>762</ele>
        <time>2021-08-10T11:47:58.417Z</time>
      </trkpt>
      <trkpt lat="46.92097" lon="8.58621">
        <ele>762</ele>
        <time>2021-08-10T11:47:59.417Z</time>
      </trkpt>
      <trkpt lat="46.92096" lon="8.58622">
        <ele>762</ele>
        <time>2021-08-10T11:48:00.417Z</time>
      </trkpt>
      <trkpt lat="46.92095" lon="8.58623">
        <ele>762</ele>
        <time>2021-08-10T11:48:01.418Z</time>
      </trkpt>
      <trkpt lat="46.92095" lon="8.58623">
        <ele>762</ele>
        <time>2021-08-10T11:48:02.417Z</time>
      </trkpt>
      <trkpt lat="46.92094" lon="8.58623">
        <ele>763</ele>
        <time>2021-08-10T11:48:03.417Z</time>
      </trkpt>
      <trkpt lat="46.92093" lon="8.58623">
        <ele>763</ele>
        <time>2021-08-10T11:48:04.417Z</time>
      </trkpt>
      <trkpt lat="46.92093" lon="8.58624">
        <ele>763</ele>
        <time>2021-08-10T11:48:05.417Z</time>
      </trkpt>
      <trkpt lat="46.92092" lon="8.58624">
        <ele>763</ele>
        <time>2021-08-10T11:48:06.417Z</time>
      </trkpt>
      <trkpt lat="46.92091" lon="8.58625">
        <ele>764</ele>
        <time>2021-08-10T11:48:07.417Z</time>
      </trkpt>
      <trkpt lat="46.92091" lon="8.58625">
        <ele>764</ele>
        <time>2021-08-10T11:48:08.418Z</time>
      </trkpt>
      <trkpt lat="46.92091" lon="8.58624">
        <ele>764</ele>
        <time>2021-08-10T11:48:09.417Z</time>
      </trkpt>
      <trkpt lat="46.9209" lon="8.58624">
        <ele>765</ele>
        <time>2021-08-10T11:48:10.417Z</time>
      </trkpt>
      <trkpt lat="46.9209" lon="8.58623">
        <ele>765</ele>
        <time>2021-08-10T11:48:11.417Z</time>
      </trkpt>
      <trkpt lat="46.9209" lon="8.58622">
        <ele>765</ele>
        <time>2021-08-10T11:48:12.418Z</time>
      </trkpt>
      <trkpt lat="46.92089" lon="8.58621">
        <ele>765</ele>
        <time>2021-08-10T11:48:13.418Z</time>
      </trkpt>
      <trkpt lat="46.92089" lon="8.5862">
        <ele>766</ele>
        <time>2021-08-10T11:48:14.418Z</time>
      </trkpt>
      <trkpt lat="46.92088" lon="8.58621">
        <ele>766</ele>
        <time>2021-08-10T11:48:15.418Z</time>
      </trkpt>
      <trkpt lat="46.92088" lon="8.58621">
        <ele>766</ele>
        <time>2021-08-10T11:48:16.418Z</time>
      </trkpt>
      <trkpt lat="46.92087" lon="8.58621">
        <ele>766</ele>
        <time>2021-08-10T11:48:17.417Z</time>
      </trkpt>
      <trkpt lat="46.92087" lon="8.58621">
        <ele>766</ele>
        <time>2021-08-10T11:48:18.418Z</time>
      </trkpt>
      <trkpt lat="46.92087" lon="8.5862">
        <ele>766</ele>
        <time>2021-08-10T11:48:19.418Z</time>
      </trkpt>
      <trkpt lat="46.92087" lon="8.58619">
        <ele>766</ele>
        <time>2021-08-10T11:48:20.418Z</time>
      </trkpt>
      <trkpt lat="46.92086" lon="8.58618">
        <ele>766</ele>
        <time>2021-08-10T11:48:21.418Z</time>
      </trkpt>
      <trkpt lat="46.92086" lon="8.58617">
        <ele>766</ele>
        <time>2021-08-10T11:48:22.418Z</time>
      </trkpt>
      <trkpt lat="46.92086" lon="8.58617">
        <ele>766</ele>
        <time>2021-08-10T11:48:23.418Z</time>
      </trkpt>
      <trkpt lat="46.92086" lon="8.58617">
        <ele>766</ele>
        <time>2021-08-10T11:48:24.418Z</time>
      </trkpt>
      <trkpt lat="46.92085" lon="8.58617">
        <ele>767</ele>
        <time>2021-08-10T11:48:25.418Z</time>
      </trkpt>
      <trkpt lat="46.92085" lon="8.58616">
        <ele>767</ele>
        <time>2021-08-10T11:48:26.417Z</time>
      </trkpt>
      <trkpt lat="46.92085" lon="8.58615">
        <ele>767</ele>
        <time>2021-08-10T11:48:27.418Z</time>
      </trkpt>
      <trkpt lat="46.92084" lon="8.58615">
        <ele>767</ele>
        <time>2021-08-10T11:48:28.418Z</time>
      </trkpt>
      <trkpt lat="46.92083" lon="8.58614">
        <ele>768</ele>
        <time>2021-08-10T11:48:29.419Z</time>
      </trkpt>
      <trkpt lat="46.92083" lon="8.58613">
        <ele>768</ele>
        <time>2021-08-10T11:48:30.418Z</time>
      </trkpt>
      <trkpt lat="46.92082" lon="8.58612">
        <ele>768</ele>
        <time>2021-08-10T11:48:31.418Z</time>
      </trkpt>
      <trkpt lat="46.92076" lon="8.58613">
        <ele>769</ele>
        <time>2021-08-10T11:48:32.419Z</time>
      </trkpt>
      <trkpt lat="46.92075" lon="8.58613">
        <ele>769</ele>
        <time>2021-08-10T11:48:33.418Z</time>
      </trkpt>
      <trkpt lat="46.92074" lon="8.58614">
        <ele>769</ele>
        <time>2021-08-10T11:48:34.419Z</time>
      </trkpt>
      <trkpt lat="46.92073" lon="8.58614">
        <ele>769</ele>
        <time>2021-08-10T11:48:35.418Z</time>
      </trkpt>
      <trkpt lat="46.92073" lon="8.58614">
        <ele>769</ele>
        <time>2021-08-10T11:48:36.418Z</time>
      </trkpt>
      <trkpt lat="46.92073" lon="8.58613">
        <ele>770</ele>
        <time>2021-08-10T11:48:37.418Z</time>
      </trkpt>
      <trkpt lat="46.92072" lon="8.58614">
        <ele>770</ele>
        <time>2021-08-10T11:48:38.418Z</time>
      </trkpt>
      <trkpt lat="46.92071" lon="8.58613">
        <ele>770</ele>
        <time>2021-08-10T11:48:39.418Z</time>
      </trkpt>
      <trkpt lat="46.92069" lon="8.58613">
        <ele>771</ele>
        <time>2021-08-10T11:48:40.418Z</time>
      </trkpt>
      <trkpt lat="46.92068" lon="8.58614">
        <ele>771</ele>
        <time>2021-08-10T11:48:41.418Z</time>
      </trkpt>
      <trkpt lat="46.92067" lon="8.58614">
        <ele>771</ele>
        <time>2021-08-10T11:48:42.418Z</time>
      </trkpt>
      <trkpt lat="46.92067" lon="8.58614">
        <ele>771</ele>
        <time>2021-08-10T11:48:43.418Z</time>
      </trkpt>
      <trkpt lat="46.92067" lon="8.58613">
        <ele>771</ele>
        <time>2021-08-10T11:48:44.418Z</time>
      </trkpt>
      <trkpt lat="46.92067" lon="8.58613">
        <ele>771</ele>
        <time>2021-08-10T11:48:45.418Z</time>
      </trkpt>
      <trkpt lat="46.92067" lon="8.58612">
        <ele>771</ele>
        <time>2021-08-10T11:48:46.419Z</time>
      </trkpt>
      <trkpt lat="46.92067" lon="8.5861">
        <ele>771</ele>
        <time>2021-08-10T11:48:47.418Z</time>
      </trkpt>
      <trkpt lat="46.92067" lon="8.58608">
        <ele>771</ele>
        <time>2021-08-10T11:48:48.419Z</time>
      </trkpt>
      <trkpt lat="46.92067" lon="8.58607">
        <ele>771</ele>
        <time>2021-08-10T11:48:51.510Z</time>
      </trkpt>
      <trkpt lat="46.92067" lon="8.58606">
        <ele>771</ele>
        <time>2021-08-10T11:48:52.511Z</time>
      </trkpt>
      <trkpt lat="46.92066" lon="8.58605">
        <ele>771</ele>
        <time>2021-08-10T11:48:53.511Z</time>
      </trkpt>
      <trkpt lat="46.92066" lon="8.58605">
        <ele>770</ele>
        <time>2021-08-10T11:48:56.652Z</time>
      </trkpt>
      <trkpt lat="46.92065" lon="8.58605">
        <ele>770</ele>
        <time>2021-08-10T11:48:57.652Z</time>
      </trkpt>
      <trkpt lat="46.92065" lon="8.58605">
        <ele>770</ele>
        <time>2021-08-10T11:48:58.652Z</time>
      </trkpt>
      <trkpt lat="46.92065" lon="8.58604">
        <ele>770</ele>
        <time>2021-08-10T11:48:59.652Z</time>
      </trkpt>
      <trkpt lat="46.92065" lon="8.58603">
        <ele>770</ele>
        <time>2021-08-10T11:49:00.653Z</time>
      </trkpt>
      <trkpt lat="46.92065" lon="8.58603">
        <ele>770</ele>
        <time>2021-08-10T11:49:01.652Z</time>
      </trkpt>
      <trkpt lat="46.92064" lon="8.58603">
        <ele>770</ele>
        <time>2021-08-10T11:49:02.652Z</time>
      </trkpt>
      <trkpt lat="46.92063" lon="8.58603">
        <ele>771</ele>
        <time>2021-08-10T11:49:03.652Z</time>
      </trkpt>
      <trkpt lat="46.92062" lon="8.58603">
        <ele>771</ele>
        <time>2021-08-10T11:49:04.652Z</time>
      </trkpt>
      <trkpt lat="46.92061" lon="8.58604">
        <ele>771</ele>
        <time>2021-08-10T11:49:05.653Z</time>
      </trkpt>
      <trkpt lat="46.9206" lon="8.58604">
        <ele>771</ele>
        <time>2021-08-10T11:49:06.652Z</time>
      </trkpt>
      <trkpt lat="46.92059" lon="8.58605">
        <ele>771</ele>
        <time>2021-08-10T11:49:07.652Z</time>
      </trkpt>
      <trkpt lat="46.92058" lon="8.58604">
        <ele>772</ele>
        <time>2021-08-10T11:49:08.652Z</time>
      </trkpt>
      <trkpt lat="46.92058" lon="8.58604">
        <ele>772</ele>
        <time>2021-08-10T11:49:09.652Z</time>
      </trkpt>
      <trkpt lat="46.92057" lon="8.58605">
        <ele>772</ele>
        <time>2021-08-10T11:49:10.652Z</time>
      </trkpt>
      <trkpt lat="46.92058" lon="8.58605">
        <ele>772</ele>
        <time>2021-08-10T11:49:11.652Z</time>
      </trkpt>
      <trkpt lat="46.92058" lon="8.58604">
        <ele>773</ele>
        <time>2021-08-10T11:49:12.652Z</time>
      </trkpt>
      <trkpt lat="46.92058" lon="8.58603">
        <ele>773</ele>
        <time>2021-08-10T11:49:13.652Z</time>
      </trkpt>
      <trkpt lat="46.92058" lon="8.58602">
        <ele>773</ele>
        <time>2021-08-10T11:49:14.652Z</time>
      </trkpt>
      <trkpt lat="46.92057" lon="8.58602">
        <ele>773</ele>
        <time>2021-08-10T11:49:15.653Z</time>
      </trkpt>
      <trkpt lat="46.92056" lon="8.58603">
        <ele>774</ele>
        <time>2021-08-10T11:49:16.653Z</time>
      </trkpt>
      <trkpt lat="46.92056" lon="8.58604">
        <ele>774</ele>
        <time>2021-08-10T11:49:17.653Z</time>
      </trkpt>
      <trkpt lat="46.92055" lon="8.58605">
        <ele>774</ele>
        <time>2021-08-10T11:49:18.652Z</time>
      </trkpt>
      <trkpt lat="46.92055" lon="8.58604">
        <ele>774</ele>
        <time>2021-08-10T11:49:19.653Z</time>
      </trkpt>
      <trkpt lat="46.92054" lon="8.58604">
        <ele>775</ele>
        <time>2021-08-10T11:49:20.652Z</time>
      </trkpt>
      <trkpt lat="46.92054" lon="8.58603">
        <ele>775</ele>
        <time>2021-08-10T11:49:21.652Z</time>
      </trkpt>
      <trkpt lat="46.92054" lon="8.58603">
        <ele>775</ele>
        <time>2021-08-10T11:49:22.652Z</time>
      </trkpt>
      <trkpt lat="46.92054" lon="8.58603">
        <ele>775</ele>
        <time>2021-08-10T11:49:23.652Z</time>
      </trkpt>
      <trkpt lat="46.92054" lon="8.58602">
        <ele>775</ele>
        <time>2021-08-10T11:49:24.652Z</time>
      </trkpt>
      <trkpt lat="46.92054" lon="8.58603">
        <ele>775</ele>
        <time>2021-08-10T11:49:25.652Z</time>
      </trkpt>
      <trkpt lat="46.92054" lon="8.58602">
        <ele>775</ele>
        <time>2021-08-10T11:49:26.652Z</time>
      </trkpt>
      <trkpt lat="46.92054" lon="8.58603">
        <ele>776</ele>
        <time>2021-08-10T11:49:27.652Z</time>
      </trkpt>
      <trkpt lat="46.92053" lon="8.58604">
        <ele>776</ele>
        <time>2021-08-10T11:49:28.652Z</time>
      </trkpt>
      <trkpt lat="46.92052" lon="8.58605">
        <ele>776</ele>
        <time>2021-08-10T11:49:29.652Z</time>
      </trkpt>
      <trkpt lat="46.92051" lon="8.58605">
        <ele>776</ele>
        <time>2021-08-10T11:49:30.652Z</time>
      </trkpt>
      <trkpt lat="46.9205" lon="8.58605">
        <ele>777</ele>
        <time>2021-08-10T11:49:31.652Z</time>
      </trkpt>
      <trkpt lat="46.9205" lon="8.58604">
        <ele>777</ele>
        <time>2021-08-10T11:49:32.652Z</time>
      </trkpt>
      <trkpt lat="46.9205" lon="8.58604">
        <ele>777</ele>
        <time>2021-08-10T11:49:33.652Z</time>
      </trkpt>
      <trkpt lat="46.9205" lon="8.58604">
        <ele>777</ele>
        <time>2021-08-10T11:49:34.652Z</time>
      </trkpt>
      <trkpt lat="46.92049" lon="8.58604">
        <ele>778</ele>
        <time>2021-08-10T11:49:35.652Z</time>
      </trkpt>
      <trkpt lat="46.92048" lon="8.58603">
        <ele>778</ele>
        <time>2021-08-10T11:49:36.652Z</time>
      </trkpt>
      <trkpt lat="46.92047" lon="8.58603">
        <ele>779</ele>
        <time>2021-08-10T11:49:37.653Z</time>
      </trkpt>
      <trkpt lat="46.92046" lon="8.58604">
        <ele>779</ele>
        <time>2021-08-10T11:49:38.652Z</time>
      </trkpt>
      <trkpt lat="46.92045" lon="8.58603">
        <ele>779</ele>
        <time>2021-08-10T11:49:39.652Z</time>
      </trkpt>
      <trkpt lat="46.92044" lon="8.58603">
        <ele>779</ele>
        <time>2021-08-10T11:49:40.652Z</time>
      </trkpt>
      <trkpt lat="46.92042" lon="8.58602">
        <ele>780</ele>
        <time>2021-08-10T11:49:41.652Z</time>
      </trkpt>
      <trkpt lat="46.9204" lon="8.58601">
        <ele>780</ele>
        <time>2021-08-10T11:49:42.653Z</time>
      </trkpt>
      <trkpt lat="46.92039" lon="8.58601">
        <ele>780</ele>
        <time>2021-08-10T11:49:43.652Z</time>
      </trkpt>
      <trkpt lat="46.92038" lon="8.58601">
        <ele>780</ele>
        <time>2021-08-10T11:49:44.652Z</time>
      </trkpt>
      <trkpt lat="46.92037" lon="8.58602">
        <ele>780</ele>
        <time>2021-08-10T11:49:45.652Z</time>
      </trkpt>
      <trkpt lat="46.92036" lon="8.58603">
        <ele>780</ele>
        <time>2021-08-10T11:49:46.653Z</time>
      </trkpt>
      <trkpt lat="46.92036" lon="8.58602">
        <ele>780</ele>
        <time>2021-08-10T11:49:47.652Z</time>
      </trkpt>
      <trkpt lat="46.92035" lon="8.58602">
        <ele>780</ele>
        <time>2021-08-10T11:49:50.774Z</time>
      </trkpt>
      <trkpt lat="46.92035" lon="8.58602">
        <ele>780</ele>
        <time>2021-08-10T11:49:51.774Z</time>
      </trkpt>
      <trkpt lat="46.92034" lon="8.58603">
        <ele>780</ele>
        <time>2021-08-10T11:49:52.773Z</time>
      </trkpt>
      <trkpt lat="46.92033" lon="8.58603">
        <ele>780</ele>
        <time>2021-08-10T11:49:53.773Z</time>
      </trkpt>
      <trkpt lat="46.92032" lon="8.58603">
        <ele>780</ele>
        <time>2021-08-10T11:49:54.773Z</time>
      </trkpt>
      <trkpt lat="46.92032" lon="8.58603">
        <ele>780</ele>
        <time>2021-08-10T11:49:55.773Z</time>
      </trkpt>
      <trkpt lat="46.92032" lon="8.58603">
        <ele>780</ele>
        <time>2021-08-10T11:49:56.773Z</time>
      </trkpt>
      <trkpt lat="46.92031" lon="8.58603">
        <ele>779</ele>
        <time>2021-08-10T11:49:57.774Z</time>
      </trkpt>
      <trkpt lat="46.9203" lon="8.58603">
        <ele>779</ele>
        <time>2021-08-10T11:49:58.773Z</time>
      </trkpt>
      <trkpt lat="46.92029" lon="8.58603">
        <ele>779</ele>
        <time>2021-08-10T11:49:59.773Z</time>
      </trkpt>
      <trkpt lat="46.92028" lon="8.58602">
        <ele>779</ele>
        <time>2021-08-10T11:50:00.774Z</time>
      </trkpt>
      <trkpt lat="46.92028" lon="8.58602">
        <ele>779</ele>
        <time>2021-08-10T11:50:01.773Z</time>
      </trkpt>
      <trkpt lat="46.92028" lon="8.58602">
        <ele>779</ele>
        <time>2021-08-10T11:50:02.773Z</time>
      </trkpt>
      <trkpt lat="46.92027" lon="8.58602">
        <ele>779</ele>
        <time>2021-08-10T11:50:03.774Z</time>
      </trkpt>
      <trkpt lat="46.92027" lon="8.58602">
        <ele>779</ele>
        <time>2021-08-10T11:50:04.775Z</time>
      </trkpt>
      <trkpt lat="46.92027" lon="8.58602">
        <ele>779</ele>
        <time>2021-08-10T11:50:05.774Z</time>
      </trkpt>
      <trkpt lat="46.92027" lon="8.58602">
        <ele>779</ele>
        <time>2021-08-10T11:50:06.774Z</time>
      </trkpt>
      <trkpt lat="46.92027" lon="8.58602">
        <ele>779</ele>
        <time>2021-08-10T11:50:07.774Z</time>
      </trkpt>
      <trkpt lat="46.92032" lon="8.58607">
        <ele>782</ele>
        <time>2021-08-10T11:50:08.774Z</time>
      </trkpt>
      <trkpt lat="46.92032" lon="8.58607">
        <ele>781</ele>
        <time>2021-08-10T11:50:09.775Z</time>
      </trkpt>
      <trkpt lat="46.92034" lon="8.58607">
        <ele>781</ele>
        <time>2021-08-10T11:50:10.775Z</time>
      </trkpt>
      <trkpt lat="46.92034" lon="8.58607">
        <ele>781</ele>
        <time>2021-08-10T11:50:11.775Z</time>
      </trkpt>
      <trkpt lat="46.92034" lon="8.58608">
        <ele>781</ele>
        <time>2021-08-10T11:50:12.774Z</time>
      </trkpt>
      <trkpt lat="46.92034" lon="8.58607">
        <ele>781</ele>
        <time>2021-08-10T11:50:13.775Z</time>
      </trkpt>
      <trkpt lat="46.92034" lon="8.58606">
        <ele>781</ele>
        <time>2021-08-10T11:50:14.775Z</time>
      </trkpt>
      <trkpt lat="46.92034" lon="8.58605">
        <ele>781</ele>
        <time>2021-08-10T11:50:15.774Z</time>
      </trkpt>
      <trkpt lat="46.92033" lon="8.58606">
        <ele>781</ele>
        <time>2021-08-10T11:50:16.775Z</time>
      </trkpt>
      <trkpt lat="46.92033" lon="8.58606">
        <ele>781</ele>
        <time>2021-08-10T11:50:17.775Z</time>
      </trkpt>
      <trkpt lat="46.92032" lon="8.58605">
        <ele>781</ele>
        <time>2021-08-10T11:50:18.775Z</time>
      </trkpt>
      <trkpt lat="46.92031" lon="8.58604">
        <ele>781</ele>
        <time>2021-08-10T11:50:19.775Z</time>
      </trkpt>
      <trkpt lat="46.9203" lon="8.58604">
        <ele>781</ele>
        <time>2021-08-10T11:50:20.775Z</time>
      </trkpt>
      <trkpt lat="46.9203" lon="8.58604">
        <ele>781</ele>
        <time>2021-08-10T11:50:21.775Z</time>
      </trkpt>
      <trkpt lat="46.9203" lon="8.58604">
        <ele>781</ele>
        <time>2021-08-10T11:50:22.775Z</time>
      </trkpt>
      <trkpt lat="46.9203" lon="8.58603">
        <ele>781</ele>
        <time>2021-08-10T11:50:23.775Z</time>
      </trkpt>
      <trkpt lat="46.9203" lon="8.58602">
        <ele>781</ele>
        <time>2021-08-10T11:50:24.775Z</time>
      </trkpt>
      <trkpt lat="46.9203" lon="8.58602">
        <ele>781</ele>
        <time>2021-08-10T11:50:25.774Z</time>
      </trkpt>
      <trkpt lat="46.9203" lon="8.58602">
        <ele>781</ele>
        <time>2021-08-10T11:50:26.775Z</time>
      </trkpt>
      <trkpt lat="46.9203" lon="8.58603">
        <ele>782</ele>
        <time>2021-08-10T11:50:27.775Z</time>
      </trkpt>
      <trkpt lat="46.92031" lon="8.58603">
        <ele>783</ele>
        <time>2021-08-10T11:50:28.776Z</time>
      </trkpt>
      <trkpt lat="46.92031" lon="8.58603">
        <ele>783</ele>
        <time>2021-08-10T11:50:29.775Z</time>
      </trkpt>
      <trkpt lat="46.92031" lon="8.58603">
        <ele>783</ele>
        <time>2021-08-10T11:50:30.776Z</time>
      </trkpt>
      <trkpt lat="46.92031" lon="8.58604">
        <ele>784</ele>
        <time>2021-08-10T11:50:31.776Z</time>
      </trkpt>
      <trkpt lat="46.92032" lon="8.58605">
        <ele>784</ele>
        <time>2021-08-10T11:50:32.776Z</time>
      </trkpt>
      <trkpt lat="46.92031" lon="8.58606">
        <ele>784</ele>
        <time>2021-08-10T11:50:33.776Z</time>
      </trkpt>
      <trkpt lat="46.92031" lon="8.58607">
        <ele>784</ele>
        <time>2021-08-10T11:50:34.775Z</time>
      </trkpt>
      <trkpt lat="46.92032" lon="8.58608">
        <ele>785</ele>
        <time>2021-08-10T11:50:35.776Z</time>
      </trkpt>
      <trkpt lat="46.92032" lon="8.58608">
        <ele>785</ele>
        <time>2021-08-10T11:50:36.776Z</time>
      </trkpt>
      <trkpt lat="46.92033" lon="8.58608">
        <ele>785</ele>
        <time>2021-08-10T11:50:37.776Z</time>
      </trkpt>
      <trkpt lat="46.92033" lon="8.5861">
        <ele>786</ele>
        <time>2021-08-10T11:50:38.776Z</time>
      </trkpt>
      <trkpt lat="46.92033" lon="8.58612">
        <ele>786</ele>
        <time>2021-08-10T11:50:39.776Z</time>
      </trkpt>
      <trkpt lat="46.92034" lon="8.5861">
        <ele>786</ele>
        <time>2021-08-10T11:50:40.776Z</time>
      </trkpt>
      <trkpt lat="46.92035" lon="8.58608">
        <ele>786</ele>
        <time>2021-08-10T11:50:41.776Z</time>
      </trkpt>
      <trkpt lat="46.92034" lon="8.58607">
        <ele>786</ele>
        <time>2021-08-10T11:50:42.775Z</time>
      </trkpt>
      <trkpt lat="46.92034" lon="8.58605">
        <ele>786</ele>
        <time>2021-08-10T11:50:43.776Z</time>
      </trkpt>
      <trkpt lat="46.92034" lon="8.58603">
        <ele>786</ele>
        <time>2021-08-10T11:50:44.775Z</time>
      </trkpt>
      <trkpt lat="46.92034" lon="8.58601">
        <ele>786</ele>
        <time>2021-08-10T11:50:45.775Z</time>
      </trkpt>
      <trkpt lat="46.92034" lon="8.586">
        <ele>786</ele>
        <time>2021-08-10T11:50:46.775Z</time>
      </trkpt>
      <trkpt lat="46.92034" lon="8.58599">
        <ele>786</ele>
        <time>2021-08-10T11:50:47.776Z</time>
      </trkpt>
      <trkpt lat="46.92034" lon="8.58598">
        <ele>786</ele>
        <time>2021-08-10T11:50:48.776Z</time>
      </trkpt>
      <trkpt lat="46.92033" lon="8.58597">
        <ele>786</ele>
        <time>2021-08-10T11:50:49.776Z</time>
      </trkpt>
      <trkpt lat="46.92033" lon="8.58596">
        <ele>786</ele>
        <time>2021-08-10T11:50:50.775Z</time>
      </trkpt>
      <trkpt lat="46.92032" lon="8.58595">
        <ele>786</ele>
        <time>2021-08-10T11:50:51.775Z</time>
      </trkpt>
      <trkpt lat="46.92032" lon="8.58595">
        <ele>786</ele>
        <time>2021-08-10T11:50:52.776Z</time>
      </trkpt>
      <trkpt lat="46.92032" lon="8.58595">
        <ele>786</ele>
        <time>2021-08-10T11:50:53.775Z</time>
      </trkpt>
      <trkpt lat="46.92031" lon="8.58594">
        <ele>786</ele>
        <time>2021-08-10T11:50:54.776Z</time>
      </trkpt>
      <trkpt lat="46.92031" lon="8.58595">
        <ele>786</ele>
        <time>2021-08-10T11:50:55.776Z</time>
      </trkpt>
      <trkpt lat="46.92031" lon="8.58594">
        <ele>787</ele>
        <time>2021-08-10T11:50:56.776Z</time>
      </trkpt>
      <trkpt lat="46.92032" lon="8.58593">
        <ele>787</ele>
        <time>2021-08-10T11:50:57.776Z</time>
      </trkpt>
      <trkpt lat="46.92032" lon="8.58593">
        <ele>787</ele>
        <time>2021-08-10T11:50:58.775Z</time>
      </trkpt>
      <trkpt lat="46.92032" lon="8.58592">
        <ele>787</ele>
        <time>2021-08-10T11:50:59.775Z</time>
      </trkpt>
      <trkpt lat="46.92032" lon="8.58591">
        <ele>787</ele>
        <time>2021-08-10T11:51:00.776Z</time>
      </trkpt>
      <trkpt lat="46.92031" lon="8.5859">
        <ele>787</ele>
        <time>2021-08-10T11:51:01.776Z</time>
      </trkpt>
      <trkpt lat="46.9203" lon="8.58592">
        <ele>787</ele>
        <time>2021-08-10T11:51:02.776Z</time>
      </trkpt>
      <trkpt lat="46.92029" lon="8.58593">
        <ele>787</ele>
        <time>2021-08-10T11:51:03.776Z</time>
      </trkpt>
      <trkpt lat="46.92029" lon="8.58594">
        <ele>787</ele>
        <time>2021-08-10T11:51:04.775Z</time>
      </trkpt>
      <trkpt lat="46.92029" lon="8.58595">
        <ele>788</ele>
        <time>2021-08-10T11:51:05.776Z</time>
      </trkpt>
      <trkpt lat="46.92029" lon="8.58596">
        <ele>788</ele>
        <time>2021-08-10T11:51:06.776Z</time>
      </trkpt>
      <trkpt lat="46.92028" lon="8.58597">
        <ele>788</ele>
        <time>2021-08-10T11:51:07.776Z</time>
      </trkpt>
      <trkpt lat="46.92028" lon="8.58597">
        <ele>788</ele>
        <time>2021-08-10T11:51:08.775Z</time>
      </trkpt>
      <trkpt lat="46.92028" lon="8.58598">
        <ele>789</ele>
        <time>2021-08-10T11:51:09.775Z</time>
      </trkpt>
      <trkpt lat="46.92027" lon="8.58598">
        <ele>789</ele>
        <time>2021-08-10T11:51:10.776Z</time>
      </trkpt>
      <trkpt lat="46.92027" lon="8.58597">
        <ele>789</ele>
        <time>2021-08-10T11:51:11.775Z</time>
      </trkpt>
      <trkpt lat="46.92027" lon="8.58597">
        <ele>789</ele>
        <time>2021-08-10T11:51:12.775Z</time>
      </trkpt>
      <trkpt lat="46.92026" lon="8.58596">
        <ele>790</ele>
        <time>2021-08-10T11:51:13.776Z</time>
      </trkpt>
      <trkpt lat="46.92026" lon="8.58595">
        <ele>790</ele>
        <time>2021-08-10T11:51:14.776Z</time>
      </trkpt>
      <trkpt lat="46.92026" lon="8.58593">
        <ele>790</ele>
        <time>2021-08-10T11:51:15.775Z</time>
      </trkpt>
      <trkpt lat="46.92026" lon="8.58591">
        <ele>790</ele>
        <time>2021-08-10T11:51:16.775Z</time>
      </trkpt>
      <trkpt lat="46.92026" lon="8.5859">
        <ele>791</ele>
        <time>2021-08-10T11:51:17.775Z</time>
      </trkpt>
      <trkpt lat="46.92026" lon="8.58589">
        <ele>791</ele>
        <time>2021-08-10T11:51:18.775Z</time>
      </trkpt>
      <trkpt lat="46.92026" lon="8.58589">
        <ele>791</ele>
        <time>2021-08-10T11:51:19.775Z</time>
      </trkpt>
      <trkpt lat="46.92026" lon="8.58588">
        <ele>791</ele>
        <time>2021-08-10T11:51:20.775Z</time>
      </trkpt>
      <trkpt lat="46.92026" lon="8.58588">
        <ele>792</ele>
        <time>2021-08-10T11:51:21.776Z</time>
      </trkpt>
      <trkpt lat="46.92026" lon="8.58587">
        <ele>792</ele>
        <time>2021-08-10T11:51:22.775Z</time>
      </trkpt>
      <trkpt lat="46.92026" lon="8.58585">
        <ele>792</ele>
        <time>2021-08-10T11:51:23.775Z</time>
      </trkpt>
      <trkpt lat="46.92026" lon="8.58584">
        <ele>793</ele>
        <time>2021-08-10T11:51:24.776Z</time>
      </trkpt>
      <trkpt lat="46.92026" lon="8.58582">
        <ele>793</ele>
        <time>2021-08-10T11:51:25.775Z</time>
      </trkpt>
      <trkpt lat="46.92026" lon="8.58581">
        <ele>793</ele>
        <time>2021-08-10T11:51:26.775Z</time>
      </trkpt>
      <trkpt lat="46.92025" lon="8.58581">
        <ele>793</ele>
        <time>2021-08-10T11:51:27.775Z</time>
      </trkpt>
      <trkpt lat="46.92025" lon="8.5858">
        <ele>794</ele>
        <time>2021-08-10T11:51:28.775Z</time>
      </trkpt>
      <trkpt lat="46.92024" lon="8.58579">
        <ele>794</ele>
        <time>2021-08-10T11:51:29.776Z</time>
      </trkpt>
      <trkpt lat="46.92024" lon="8.58579">
        <ele>794</ele>
        <time>2021-08-10T11:51:30.776Z</time>
      </trkpt>
      <trkpt lat="46.92024" lon="8.58581">
        <ele>794</ele>
        <time>2021-08-10T11:51:31.776Z</time>
      </trkpt>
      <trkpt lat="46.92024" lon="8.58582">
        <ele>794</ele>
        <time>2021-08-10T11:51:32.775Z</time>
      </trkpt>
      <trkpt lat="46.92023" lon="8.58582">
        <ele>794</ele>
        <time>2021-08-10T11:51:34.906Z</time>
      </trkpt>
      <trkpt lat="46.92022" lon="8.58582">
        <ele>794</ele>
        <time>2021-08-10T11:51:35.907Z</time>
      </trkpt>
      <trkpt lat="46.92022" lon="8.58583">
        <ele>794</ele>
        <time>2021-08-10T11:51:36.907Z</time>
      </trkpt>
      <trkpt lat="46.92021" lon="8.58583">
        <ele>794</ele>
        <time>2021-08-10T11:51:37.906Z</time>
      </trkpt>
      <trkpt lat="46.92021" lon="8.58583">
        <ele>794</ele>
        <time>2021-08-10T11:51:38.907Z</time>
      </trkpt>
      <trkpt lat="46.9202" lon="8.58582">
        <ele>794</ele>
        <time>2021-08-10T11:51:39.906Z</time>
      </trkpt>
      <trkpt lat="46.9202" lon="8.58582">
        <ele>794</ele>
        <time>2021-08-10T11:51:40.906Z</time>
      </trkpt>
      <trkpt lat="46.9202" lon="8.58582">
        <ele>794</ele>
        <time>2021-08-10T11:51:41.907Z</time>
      </trkpt>
      <trkpt lat="46.9202" lon="8.58582">
        <ele>794</ele>
        <time>2021-08-10T11:51:42.906Z</time>
      </trkpt>
      <trkpt lat="46.92019" lon="8.58582">
        <ele>794</ele>
        <time>2021-08-10T11:51:43.907Z</time>
      </trkpt>
      <trkpt lat="46.92019" lon="8.58583">
        <ele>794</ele>
        <time>2021-08-10T11:51:44.907Z</time>
      </trkpt>
      <trkpt lat="46.92018" lon="8.58583">
        <ele>794</ele>
        <time>2021-08-10T11:51:45.906Z</time>
      </trkpt>
      <trkpt lat="46.92018" lon="8.58584">
        <ele>794</ele>
        <time>2021-08-10T11:51:46.907Z</time>
      </trkpt>
      <trkpt lat="46.92018" lon="8.58583">
        <ele>794</ele>
        <time>2021-08-10T11:51:47.907Z</time>
      </trkpt>
      <trkpt lat="46.92018" lon="8.58582">
        <ele>794</ele>
        <time>2021-08-10T11:51:48.907Z</time>
      </trkpt>
      <trkpt lat="46.92017" lon="8.58581">
        <ele>793</ele>
        <time>2021-08-10T11:51:49.907Z</time>
      </trkpt>
      <trkpt lat="46.92016" lon="8.58581">
        <ele>793</ele>
        <time>2021-08-10T11:51:50.907Z</time>
      </trkpt>
      <trkpt lat="46.92015" lon="8.58582">
        <ele>793</ele>
        <time>2021-08-10T11:51:51.907Z</time>
      </trkpt>
      <trkpt lat="46.92014" lon="8.58582">
        <ele>793</ele>
        <time>2021-08-10T11:51:52.907Z</time>
      </trkpt>
      <trkpt lat="46.92014" lon="8.58582">
        <ele>793</ele>
        <time>2021-08-10T11:51:53.907Z</time>
      </trkpt>
      <trkpt lat="46.92013" lon="8.58583">
        <ele>793</ele>
        <time>2021-08-10T11:51:54.907Z</time>
      </trkpt>
      <trkpt lat="46.92012" lon="8.58584">
        <ele>793</ele>
        <time>2021-08-10T11:51:55.906Z</time>
      </trkpt>
      <trkpt lat="46.92011" lon="8.58584">
        <ele>793</ele>
        <time>2021-08-10T11:51:56.907Z</time>
      </trkpt>
      <trkpt lat="46.92011" lon="8.58584">
        <ele>793</ele>
        <time>2021-08-10T11:51:57.907Z</time>
      </trkpt>
      <trkpt lat="46.9201" lon="8.58584">
        <ele>793</ele>
        <time>2021-08-10T11:51:58.907Z</time>
      </trkpt>
      <trkpt lat="46.92009" lon="8.58584">
        <ele>793</ele>
        <time>2021-08-10T11:51:59.907Z</time>
      </trkpt>
      <trkpt lat="46.92007" lon="8.58583">
        <ele>793</ele>
        <time>2021-08-10T11:52:00.908Z</time>
      </trkpt>
      <trkpt lat="46.92007" lon="8.58581">
        <ele>793</ele>
        <time>2021-08-10T11:52:01.907Z</time>
      </trkpt>
      <trkpt lat="46.92007" lon="8.5858">
        <ele>793</ele>
        <time>2021-08-10T11:52:02.907Z</time>
      </trkpt>
      <trkpt lat="46.92007" lon="8.58579">
        <ele>793</ele>
        <time>2021-08-10T11:52:03.907Z</time>
      </trkpt>
      <trkpt lat="46.92006" lon="8.58579">
        <ele>793</ele>
        <time>2021-08-10T11:52:04.907Z</time>
      </trkpt>
      <trkpt lat="46.92005" lon="8.5858">
        <ele>793</ele>
        <time>2021-08-10T11:52:05.907Z</time>
      </trkpt>
      <trkpt lat="46.92005" lon="8.5858">
        <ele>793</ele>
        <time>2021-08-10T11:52:06.908Z</time>
      </trkpt>
      <trkpt lat="46.92004" lon="8.58581">
        <ele>793</ele>
        <time>2021-08-10T11:52:07.907Z</time>
      </trkpt>
      <trkpt lat="46.92004" lon="8.58581">
        <ele>793</ele>
        <time>2021-08-10T11:52:08.907Z</time>
      </trkpt>
      <trkpt lat="46.92003" lon="8.58581">
        <ele>793</ele>
        <time>2021-08-10T11:52:09.907Z</time>
      </trkpt>
      <trkpt lat="46.92003" lon="8.58581">
        <ele>793</ele>
        <time>2021-08-10T11:52:10.908Z</time>
      </trkpt>
      <trkpt lat="46.92002" lon="8.58582">
        <ele>793</ele>
        <time>2021-08-10T11:52:11.908Z</time>
      </trkpt>
      <trkpt lat="46.92001" lon="8.58582">
        <ele>793</ele>
        <time>2021-08-10T11:52:12.907Z</time>
      </trkpt>
      <trkpt lat="46.92001" lon="8.58581">
        <ele>793</ele>
        <time>2021-08-10T11:52:13.907Z</time>
      </trkpt>
      <trkpt lat="46.92" lon="8.58582">
        <ele>794</ele>
        <time>2021-08-10T11:52:14.907Z</time>
      </trkpt>
      <trkpt lat="46.92" lon="8.58582">
        <ele>794</ele>
        <time>2021-08-10T11:52:15.908Z</time>
      </trkpt>
      <trkpt lat="46.92" lon="8.58582">
        <ele>794</ele>
        <time>2021-08-10T11:52:16.907Z</time>
      </trkpt>
      <trkpt lat="46.92" lon="8.58583">
        <ele>794</ele>
        <time>2021-08-10T11:52:17.907Z</time>
      </trkpt>
      <trkpt lat="46.92" lon="8.58583">
        <ele>795</ele>
        <time>2021-08-10T11:52:18.907Z</time>
      </trkpt>
      <trkpt lat="46.92" lon="8.58582">
        <ele>795</ele>
        <time>2021-08-10T11:52:19.907Z</time>
      </trkpt>
      <trkpt lat="46.92001" lon="8.58581">
        <ele>795</ele>
        <time>2021-08-10T11:52:20.907Z</time>
      </trkpt>
      <trkpt lat="46.92001" lon="8.5858">
        <ele>795</ele>
        <time>2021-08-10T11:52:21.908Z</time>
      </trkpt>
      <trkpt lat="46.92001" lon="8.58578">
        <ele>795</ele>
        <time>2021-08-10T11:52:22.907Z</time>
      </trkpt>
      <trkpt lat="46.92001" lon="8.58578">
        <ele>795</ele>
        <time>2021-08-10T11:52:23.907Z</time>
      </trkpt>
      <trkpt lat="46.92001" lon="8.58577">
        <ele>795</ele>
        <time>2021-08-10T11:52:24.907Z</time>
      </trkpt>
      <trkpt lat="46.92001" lon="8.58577">
        <ele>794</ele>
        <time>2021-08-10T11:52:25.908Z</time>
      </trkpt>
      <trkpt lat="46.92001" lon="8.58576">
        <ele>794</ele>
        <time>2021-08-10T11:52:26.907Z</time>
      </trkpt>
      <trkpt lat="46.92001" lon="8.58576">
        <ele>794</ele>
        <time>2021-08-10T11:52:27.907Z</time>
      </trkpt>
      <trkpt lat="46.92001" lon="8.58576">
        <ele>794</ele>
        <time>2021-08-10T11:52:28.907Z</time>
      </trkpt>
      <trkpt lat="46.92002" lon="8.58576">
        <ele>794</ele>
        <time>2021-08-10T11:52:29.907Z</time>
      </trkpt>
      <trkpt lat="46.92003" lon="8.58573">
        <ele>795</ele>
        <time>2021-08-10T11:52:30.909Z</time>
      </trkpt>
      <trkpt lat="46.92004" lon="8.58573">
        <ele>795</ele>
        <time>2021-08-10T11:52:31.909Z</time>
      </trkpt>
      <trkpt lat="46.92004" lon="8.58572">
        <ele>795</ele>
        <time>2021-08-10T11:52:32.909Z</time>
      </trkpt>
      <trkpt lat="46.92005" lon="8.58572">
        <ele>795</ele>
        <time>2021-08-10T11:52:33.908Z</time>
      </trkpt>
      <trkpt lat="46.92005" lon="8.58571">
        <ele>795</ele>
        <time>2021-08-10T11:52:34.908Z</time>
      </trkpt>
      <trkpt lat="46.92006" lon="8.5857">
        <ele>795</ele>
        <time>2021-08-10T11:52:35.908Z</time>
      </trkpt>
      <trkpt lat="46.92006" lon="8.5857">
        <ele>796</ele>
        <time>2021-08-10T11:52:36.909Z</time>
      </trkpt>
      <trkpt lat="46.92007" lon="8.58568">
        <ele>796</ele>
        <time>2021-08-10T11:52:37.909Z</time>
      </trkpt>
      <trkpt lat="46.92008" lon="8.58566">
        <ele>796</ele>
        <time>2021-08-10T11:52:38.908Z</time>
      </trkpt>
      <trkpt lat="46.92009" lon="8.58565">
        <ele>796</ele>
        <time>2021-08-10T11:52:39.908Z</time>
      </trkpt>
      <trkpt lat="46.9201" lon="8.58565">
        <ele>796</ele>
        <time>2021-08-10T11:52:40.909Z</time>
      </trkpt>
      <trkpt lat="46.9201" lon="8.58564">
        <ele>796</ele>
        <time>2021-08-10T11:52:41.909Z</time>
      </trkpt>
      <trkpt lat="46.9201" lon="8.58564">
        <ele>797</ele>
        <time>2021-08-10T11:52:42.908Z</time>
      </trkpt>
      <trkpt lat="46.92009" lon="8.58564">
        <ele>797</ele>
        <time>2021-08-10T11:52:43.908Z</time>
      </trkpt>
      <trkpt lat="46.92009" lon="8.58563">
        <ele>797</ele>
        <time>2021-08-10T11:52:44.908Z</time>
      </trkpt>
      <trkpt lat="46.92008" lon="8.58563">
        <ele>797</ele>
        <time>2021-08-10T11:52:45.909Z</time>
      </trkpt>
      <trkpt lat="46.92007" lon="8.58563">
        <ele>797</ele>
        <time>2021-08-10T11:52:46.908Z</time>
      </trkpt>
      <trkpt lat="46.92007" lon="8.58564">
        <ele>798</ele>
        <time>2021-08-10T11:52:47.910Z</time>
      </trkpt>
      <trkpt lat="46.92005" lon="8.58563">
        <ele>799</ele>
        <time>2021-08-10T11:52:48.910Z</time>
      </trkpt>
      <trkpt lat="46.92004" lon="8.58562">
        <ele>799</ele>
        <time>2021-08-10T11:52:49.910Z</time>
      </trkpt>
      <trkpt lat="46.92004" lon="8.58561">
        <ele>800</ele>
        <time>2021-08-10T11:52:50.909Z</time>
      </trkpt>
      <trkpt lat="46.92005" lon="8.58559">
        <ele>800</ele>
        <time>2021-08-10T11:52:51.910Z</time>
      </trkpt>
      <trkpt lat="46.92005" lon="8.58559">
        <ele>800</ele>
        <time>2021-08-10T11:52:52.909Z</time>
      </trkpt>
      <trkpt lat="46.92005" lon="8.58558">
        <ele>800</ele>
        <time>2021-08-10T11:52:53.910Z</time>
      </trkpt>
      <trkpt lat="46.92005" lon="8.58559">
        <ele>801</ele>
        <time>2021-08-10T11:52:54.910Z</time>
      </trkpt>
      <trkpt lat="46.92005" lon="8.5856">
        <ele>801</ele>
        <time>2021-08-10T11:52:55.909Z</time>
      </trkpt>
      <trkpt lat="46.92006" lon="8.58561">
        <ele>801</ele>
        <time>2021-08-10T11:52:56.910Z</time>
      </trkpt>
      <trkpt lat="46.92006" lon="8.5856">
        <ele>801</ele>
        <time>2021-08-10T11:52:57.910Z</time>
      </trkpt>
      <trkpt lat="46.92006" lon="8.58561">
        <ele>802</ele>
        <time>2021-08-10T11:52:58.910Z</time>
      </trkpt>
      <trkpt lat="46.92006" lon="8.58561">
        <ele>802</ele>
        <time>2021-08-10T11:52:59.910Z</time>
      </trkpt>
      <trkpt lat="46.92006" lon="8.5856">
        <ele>802</ele>
        <time>2021-08-10T11:53:00.909Z</time>
      </trkpt>
      <trkpt lat="46.92005" lon="8.58559">
        <ele>803</ele>
        <time>2021-08-10T11:53:01.910Z</time>
      </trkpt>
      <trkpt lat="46.92005" lon="8.58559">
        <ele>803</ele>
        <time>2021-08-10T11:53:02.910Z</time>
      </trkpt>
      <trkpt lat="46.92006" lon="8.58559">
        <ele>803</ele>
        <time>2021-08-10T11:53:03.910Z</time>
      </trkpt>
      <trkpt lat="46.92006" lon="8.58558">
        <ele>803</ele>
        <time>2021-08-10T11:53:04.910Z</time>
      </trkpt>
      <trkpt lat="46.92006" lon="8.58557">
        <ele>804</ele>
        <time>2021-08-10T11:53:05.910Z</time>
      </trkpt>
      <trkpt lat="46.92006" lon="8.58557">
        <ele>804</ele>
        <time>2021-08-10T11:53:06.909Z</time>
      </trkpt>
      <trkpt lat="46.92006" lon="8.58556">
        <ele>805</ele>
        <time>2021-08-10T11:53:07.910Z</time>
      </trkpt>
      <trkpt lat="46.92006" lon="8.58556">
        <ele>805</ele>
        <time>2021-08-10T11:53:08.909Z</time>
      </trkpt>
      <trkpt lat="46.92005" lon="8.58556">
        <ele>806</ele>
        <time>2021-08-10T11:53:09.909Z</time>
      </trkpt>
      <trkpt lat="46.92004" lon="8.58557">
        <ele>806</ele>
        <time>2021-08-10T11:53:10.909Z</time>
      </trkpt>
      <trkpt lat="46.92003" lon="8.58558">
        <ele>806</ele>
        <time>2021-08-10T11:53:11.909Z</time>
      </trkpt>
      <trkpt lat="46.92001" lon="8.58559">
        <ele>807</ele>
        <time>2021-08-10T11:53:12.910Z</time>
      </trkpt>
      <trkpt lat="46.92" lon="8.5856">
        <ele>807</ele>
        <time>2021-08-10T11:53:13.909Z</time>
      </trkpt>
      <trkpt lat="46.91999" lon="8.58561">
        <ele>807</ele>
        <time>2021-08-10T11:53:14.909Z</time>
      </trkpt>
      <trkpt lat="46.91999" lon="8.5856">
        <ele>807</ele>
        <time>2021-08-10T11:53:15.909Z</time>
      </trkpt>
      <trkpt lat="46.91998" lon="8.58559">
        <ele>807</ele>
        <time>2021-08-10T11:53:16.909Z</time>
      </trkpt>
      <trkpt lat="46.91998" lon="8.58559">
        <ele>807</ele>
        <time>2021-08-10T11:53:17.909Z</time>
      </trkpt>
      <trkpt lat="46.91999" lon="8.58559">
        <ele>807</ele>
        <time>2021-08-10T11:53:18.910Z</time>
      </trkpt>
      <trkpt lat="46.91999" lon="8.58557">
        <ele>807</ele>
        <time>2021-08-10T11:53:19.909Z</time>
      </trkpt>
      <trkpt lat="46.92" lon="8.58557">
        <ele>807</ele>
        <time>2021-08-10T11:53:20.909Z</time>
      </trkpt>
      <trkpt lat="46.92" lon="8.58556">
        <ele>808</ele>
        <time>2021-08-10T11:53:21.909Z</time>
      </trkpt>
      <trkpt lat="46.91999" lon="8.58557">
        <ele>808</ele>
        <time>2021-08-10T11:53:22.909Z</time>
      </trkpt>
      <trkpt lat="46.91998" lon="8.58557">
        <ele>808</ele>
        <time>2021-08-10T11:53:23.910Z</time>
      </trkpt>
      <trkpt lat="46.91997" lon="8.58557">
        <ele>808</ele>
        <time>2021-08-10T11:53:24.909Z</time>
      </trkpt>
      <trkpt lat="46.91996" lon="8.58557">
        <ele>809</ele>
        <time>2021-08-10T11:53:25.909Z</time>
      </trkpt>
      <trkpt lat="46.91996" lon="8.58558">
        <ele>809</ele>
        <time>2021-08-10T11:53:26.909Z</time>
      </trkpt>
      <trkpt lat="46.91996" lon="8.58559">
        <ele>809</ele>
        <time>2021-08-10T11:53:27.910Z</time>
      </trkpt>
      <trkpt lat="46.91997" lon="8.58559">
        <ele>809</ele>
        <time>2021-08-10T11:53:28.910Z</time>
      </trkpt>
      <trkpt lat="46.91997" lon="8.58559">
        <ele>810</ele>
        <time>2021-08-10T11:53:29.909Z</time>
      </trkpt>
      <trkpt lat="46.91997" lon="8.58559">
        <ele>810</ele>
        <time>2021-08-10T11:53:30.909Z</time>
      </trkpt>
      <trkpt lat="46.91996" lon="8.58559">
        <ele>810</ele>
        <time>2021-08-10T11:53:31.909Z</time>
      </trkpt>
      <trkpt lat="46.91996" lon="8.5856">
        <ele>811</ele>
        <time>2021-08-10T11:53:32.910Z</time>
      </trkpt>
      <trkpt lat="46.91995" lon="8.5856">
        <ele>811</ele>
        <time>2021-08-10T11:53:33.909Z</time>
      </trkpt>
      <trkpt lat="46.91995" lon="8.58559">
        <ele>811</ele>
        <time>2021-08-10T11:53:34.909Z</time>
      </trkpt>
      <trkpt lat="46.91995" lon="8.58559">
        <ele>811</ele>
        <time>2021-08-10T11:53:35.909Z</time>
      </trkpt>
      <trkpt lat="46.91995" lon="8.58558">
        <ele>811</ele>
        <time>2021-08-10T11:53:36.909Z</time>
      </trkpt>
      <trkpt lat="46.91995" lon="8.58557">
        <ele>812</ele>
        <time>2021-08-10T11:53:37.910Z</time>
      </trkpt>
      <trkpt lat="46.91995" lon="8.58557">
        <ele>812</ele>
        <time>2021-08-10T11:53:38.910Z</time>
      </trkpt>
      <trkpt lat="46.91995" lon="8.58557">
        <ele>812</ele>
        <time>2021-08-10T11:53:39.909Z</time>
      </trkpt>
      <trkpt lat="46.91995" lon="8.58558">
        <ele>812</ele>
        <time>2021-08-10T11:53:40.909Z</time>
      </trkpt>
      <trkpt lat="46.91995" lon="8.58558">
        <ele>812</ele>
        <time>2021-08-10T11:53:41.909Z</time>
      </trkpt>
      <trkpt lat="46.91995" lon="8.58558">
        <ele>812</ele>
        <time>2021-08-10T11:53:42.909Z</time>
      </trkpt>
      <trkpt lat="46.91992" lon="8.58561">
        <ele>812</ele>
        <time>2021-08-10T11:53:43.909Z</time>
      </trkpt>
      <trkpt lat="46.91991" lon="8.58562">
        <ele>812</ele>
        <time>2021-08-10T11:53:44.909Z</time>
      </trkpt>
      <trkpt lat="46.91991" lon="8.58562">
        <ele>812</ele>
        <time>2021-08-10T11:53:45.910Z</time>
      </trkpt>
      <trkpt lat="46.91991" lon="8.58562">
        <ele>813</ele>
        <time>2021-08-10T11:53:46.909Z</time>
      </trkpt>
      <trkpt lat="46.91988" lon="8.5856">
        <ele>814</ele>
        <time>2021-08-10T11:53:47.909Z</time>
      </trkpt>
      <trkpt lat="46.91987" lon="8.5856">
        <ele>814</ele>
        <time>2021-08-10T11:53:48.910Z</time>
      </trkpt>
      <trkpt lat="46.91988" lon="8.5856">
        <ele>814</ele>
        <time>2021-08-10T11:53:49.909Z</time>
      </trkpt>
      <trkpt lat="46.91987" lon="8.58562">
        <ele>815</ele>
        <time>2021-08-10T11:53:50.910Z</time>
      </trkpt>
      <trkpt lat="46.91987" lon="8.58563">
        <ele>815</ele>
        <time>2021-08-10T11:53:51.909Z</time>
      </trkpt>
      <trkpt lat="46.91986" lon="8.58563">
        <ele>816</ele>
        <time>2021-08-10T11:53:52.909Z</time>
      </trkpt>
      <trkpt lat="46.91986" lon="8.58564">
        <ele>816</ele>
        <time>2021-08-10T11:53:53.909Z</time>
      </trkpt>
      <trkpt lat="46.91986" lon="8.58565">
        <ele>816</ele>
        <time>2021-08-10T11:53:54.909Z</time>
      </trkpt>
      <trkpt lat="46.91986" lon="8.58567">
        <ele>817</ele>
        <time>2021-08-10T11:53:55.909Z</time>
      </trkpt>
      <trkpt lat="46.91986" lon="8.58566">
        <ele>817</ele>
        <time>2021-08-10T11:53:56.909Z</time>
      </trkpt>
      <trkpt lat="46.91986" lon="8.58565">
        <ele>817</ele>
        <time>2021-08-10T11:53:57.909Z</time>
      </trkpt>
      <trkpt lat="46.91986" lon="8.58565">
        <ele>818</ele>
        <time>2021-08-10T11:53:58.909Z</time>
      </trkpt>
      <trkpt lat="46.91985" lon="8.58565">
        <ele>818</ele>
        <time>2021-08-10T11:53:59.910Z</time>
      </trkpt>
      <trkpt lat="46.91985" lon="8.58564">
        <ele>818</ele>
        <time>2021-08-10T11:54:00.909Z</time>
      </trkpt>
      <trkpt lat="46.91985" lon="8.58565">
        <ele>818</ele>
        <time>2021-08-10T11:54:01.909Z</time>
      </trkpt>
      <trkpt lat="46.91985" lon="8.58565">
        <ele>819</ele>
        <time>2021-08-10T11:54:02.910Z</time>
      </trkpt>
      <trkpt lat="46.91986" lon="8.58565">
        <ele>819</ele>
        <time>2021-08-10T11:54:03.910Z</time>
      </trkpt>
      <trkpt lat="46.91986" lon="8.58565">
        <ele>819</ele>
        <time>2021-08-10T11:54:04.910Z</time>
      </trkpt>
      <trkpt lat="46.91987" lon="8.58564">
        <ele>819</ele>
        <time>2021-08-10T11:54:05.910Z</time>
      </trkpt>
      <trkpt lat="46.91987" lon="8.58563">
        <ele>820</ele>
        <time>2021-08-10T11:54:06.910Z</time>
      </trkpt>
      <trkpt lat="46.91989" lon="8.58561">
        <ele>822</ele>
        <time>2021-08-10T11:54:07.911Z</time>
      </trkpt>
      <trkpt lat="46.91989" lon="8.5856">
        <ele>822</ele>
        <time>2021-08-10T11:54:08.911Z</time>
      </trkpt>
      <trkpt lat="46.9199" lon="8.58558">
        <ele>823</ele>
        <time>2021-08-10T11:54:09.911Z</time>
      </trkpt>
      <trkpt lat="46.91992" lon="8.58556">
        <ele>823</ele>
        <time>2021-08-10T11:54:10.910Z</time>
      </trkpt>
      <trkpt lat="46.91992" lon="8.58557">
        <ele>823</ele>
        <time>2021-08-10T11:54:11.910Z</time>
      </trkpt>
      <trkpt lat="46.91992" lon="8.58558">
        <ele>823</ele>
        <time>2021-08-10T11:54:12.910Z</time>
      </trkpt>
      <trkpt lat="46.91992" lon="8.58559">
        <ele>824</ele>
        <time>2021-08-10T11:54:13.910Z</time>
      </trkpt>
      <trkpt lat="46.91991" lon="8.58558">
        <ele>824</ele>
        <time>2021-08-10T11:54:14.911Z</time>
      </trkpt>
      <trkpt lat="46.91989" lon="8.58558">
        <ele>824</ele>
        <time>2021-08-10T11:54:15.910Z</time>
      </trkpt>
      <trkpt lat="46.91989" lon="8.58557">
        <ele>824</ele>
        <time>2021-08-10T11:54:16.910Z</time>
      </trkpt>
      <trkpt lat="46.91989" lon="8.58557">
        <ele>824</ele>
        <time>2021-08-10T11:54:17.911Z</time>
      </trkpt>
      <trkpt lat="46.91989" lon="8.58557">
        <ele>824</ele>
        <time>2021-08-10T11:54:18.910Z</time>
      </trkpt>
      <trkpt lat="46.91989" lon="8.58558">
        <ele>823</ele>
        <time>2021-08-10T11:54:19.787Z</time>
      </trkpt>
      <trkpt lat="46.91994" lon="8.58553">
        <ele>818</ele>
        <time>2021-08-10T11:54:20.912Z</time>
      </trkpt>
      <trkpt lat="46.91995" lon="8.58552">
        <ele>819</ele>
        <time>2021-08-10T11:54:21.912Z</time>
      </trkpt>
      <trkpt lat="46.91996" lon="8.5855">
        <ele>819</ele>
        <time>2021-08-10T11:54:22.787Z</time>
      </trkpt>
      <trkpt lat="46.91996" lon="8.5855">
        <ele>819</ele>
        <time>2021-08-10T11:54:23.911Z</time>
      </trkpt>
      <trkpt lat="46.91997" lon="8.5855">
        <ele>820</ele>
        <time>2021-08-10T11:54:24.787Z</time>
      </trkpt>
      <trkpt lat="46.91998" lon="8.5855">
        <ele>820</ele>
        <time>2021-08-10T11:54:25.912Z</time>
      </trkpt>
      <trkpt lat="46.91998" lon="8.58552">
        <ele>821</ele>
        <time>2021-08-10T11:54:26.912Z</time>
      </trkpt>
      <trkpt lat="46.91998" lon="8.58552">
        <ele>821</ele>
        <time>2021-08-10T11:54:27.787Z</time>
      </trkpt>
      <trkpt lat="46.91994" lon="8.58553">
        <ele>825</ele>
        <time>2021-08-10T11:54:28.787Z</time>
      </trkpt>
      <trkpt lat="46.91993" lon="8.58552">
        <ele>826</ele>
        <time>2021-08-10T11:54:29.788Z</time>
      </trkpt>
      <trkpt lat="46.91992" lon="8.58553">
        <ele>827</ele>
        <time>2021-08-10T11:54:30.787Z</time>
      </trkpt>
      <trkpt lat="46.91991" lon="8.58553">
        <ele>828</ele>
        <time>2021-08-10T11:54:31.788Z</time>
      </trkpt>
      <trkpt lat="46.9199" lon="8.58552">
        <ele>828</ele>
        <time>2021-08-10T11:54:32.788Z</time>
      </trkpt>
      <trkpt lat="46.9199" lon="8.5855">
        <ele>829</ele>
        <time>2021-08-10T11:54:33.787Z</time>
      </trkpt>
      <trkpt lat="46.91989" lon="8.5855">
        <ele>830</ele>
        <time>2021-08-10T11:54:34.787Z</time>
      </trkpt>
      <trkpt lat="46.91989" lon="8.5855">
        <ele>831</ele>
        <time>2021-08-10T11:54:35.787Z</time>
      </trkpt>
      <trkpt lat="46.91988" lon="8.5855">
        <ele>832</ele>
        <time>2021-08-10T11:54:36.788Z</time>
      </trkpt>
      <trkpt lat="46.91988" lon="8.5855">
        <ele>833</ele>
        <time>2021-08-10T11:54:37.788Z</time>
      </trkpt>
      <trkpt lat="46.91988" lon="8.58549">
        <ele>833</ele>
        <time>2021-08-10T11:54:38.787Z</time>
      </trkpt>
      <trkpt lat="46.91987" lon="8.5855">
        <ele>834</ele>
        <time>2021-08-10T11:54:39.787Z</time>
      </trkpt>
      <trkpt lat="46.91986" lon="8.5855">
        <ele>835</ele>
        <time>2021-08-10T11:54:40.788Z</time>
      </trkpt>
      <trkpt lat="46.91985" lon="8.58549">
        <ele>836</ele>
        <time>2021-08-10T11:54:41.788Z</time>
      </trkpt>
      <trkpt lat="46.91984" lon="8.5855">
        <ele>837</ele>
        <time>2021-08-10T11:54:42.788Z</time>
      </trkpt>
      <trkpt lat="46.91984" lon="8.58549">
        <ele>837</ele>
        <time>2021-08-10T11:54:43.787Z</time>
      </trkpt>
      <trkpt lat="46.91983" lon="8.58549">
        <ele>838</ele>
        <time>2021-08-10T11:54:44.788Z</time>
      </trkpt>
      <trkpt lat="46.91982" lon="8.5855">
        <ele>838</ele>
        <time>2021-08-10T11:54:45.787Z</time>
      </trkpt>
      <trkpt lat="46.91982" lon="8.5855">
        <ele>839</ele>
        <time>2021-08-10T11:54:46.787Z</time>
      </trkpt>
      <trkpt lat="46.91982" lon="8.5855">
        <ele>839</ele>
        <time>2021-08-10T11:54:47.788Z</time>
      </trkpt>
      <trkpt lat="46.91982" lon="8.58551">
        <ele>840</ele>
        <time>2021-08-10T11:54:48.788Z</time>
      </trkpt>
      <trkpt lat="46.91981" lon="8.58553">
        <ele>840</ele>
        <time>2021-08-10T11:54:49.788Z</time>
      </trkpt>
      <trkpt lat="46.9198" lon="8.58554">
        <ele>841</ele>
        <time>2021-08-10T11:54:50.788Z</time>
      </trkpt>
      <trkpt lat="46.91979" lon="8.58555">
        <ele>841</ele>
        <time>2021-08-10T11:54:51.787Z</time>
      </trkpt>
      <trkpt lat="46.91978" lon="8.58554">
        <ele>842</ele>
        <time>2021-08-10T11:54:52.788Z</time>
      </trkpt>
      <trkpt lat="46.91977" lon="8.58553">
        <ele>842</ele>
        <time>2021-08-10T11:54:53.788Z</time>
      </trkpt>
      <trkpt lat="46.91976" lon="8.58551">
        <ele>843</ele>
        <time>2021-08-10T11:54:54.788Z</time>
      </trkpt>
      <trkpt lat="46.91976" lon="8.58551">
        <ele>844</ele>
        <time>2021-08-10T11:54:55.787Z</time>
      </trkpt>
      <trkpt lat="46.91976" lon="8.58549">
        <ele>844</ele>
        <time>2021-08-10T11:54:56.788Z</time>
      </trkpt>
      <trkpt lat="46.91976" lon="8.58548">
        <ele>845</ele>
        <time>2021-08-10T11:54:57.787Z</time>
      </trkpt>
      <trkpt lat="46.91976" lon="8.58548">
        <ele>846</ele>
        <time>2021-08-10T11:54:58.787Z</time>
      </trkpt>
      <trkpt lat="46.91976" lon="8.58548">
        <ele>847</ele>
        <time>2021-08-10T11:54:59.788Z</time>
      </trkpt>
      <trkpt lat="46.91977" lon="8.58548">
        <ele>848</ele>
        <time>2021-08-10T11:55:00.787Z</time>
      </trkpt>
      <trkpt lat="46.91978" lon="8.58548">
        <ele>849</ele>
        <time>2021-08-10T11:55:01.788Z</time>
      </trkpt>
      <trkpt lat="46.91978" lon="8.58548">
        <ele>850</ele>
        <time>2021-08-10T11:55:02.788Z</time>
      </trkpt>
      <trkpt lat="46.91978" lon="8.58548">
        <ele>850</ele>
        <time>2021-08-10T11:55:03.788Z</time>
      </trkpt>
      <trkpt lat="46.91978" lon="8.58549">
        <ele>851</ele>
        <time>2021-08-10T11:55:04.787Z</time>
      </trkpt>
      <trkpt lat="46.91978" lon="8.58549">
        <ele>851</ele>
        <time>2021-08-10T11:55:05.788Z</time>
      </trkpt>
      <trkpt lat="46.91979" lon="8.58549">
        <ele>852</ele>
        <time>2021-08-10T11:55:06.788Z</time>
      </trkpt>
      <trkpt lat="46.91979" lon="8.58548">
        <ele>852</ele>
        <time>2021-08-10T11:55:07.788Z</time>
      </trkpt>
      <trkpt lat="46.9198" lon="8.58547">
        <ele>853</ele>
        <time>2021-08-10T11:55:08.787Z</time>
      </trkpt>
      <trkpt lat="46.91981" lon="8.58545">
        <ele>854</ele>
        <time>2021-08-10T11:55:09.788Z</time>
      </trkpt>
      <trkpt lat="46.91981" lon="8.58544">
        <ele>854</ele>
        <time>2021-08-10T11:55:10.788Z</time>
      </trkpt>
      <trkpt lat="46.91982" lon="8.58544">
        <ele>855</ele>
        <time>2021-08-10T11:55:11.788Z</time>
      </trkpt>
      <trkpt lat="46.91982" lon="8.58544">
        <ele>855</ele>
        <time>2021-08-10T11:55:12.788Z</time>
      </trkpt>
      <trkpt lat="46.91982" lon="8.58544">
        <ele>855</ele>
        <time>2021-08-10T11:55:13.787Z</time>
      </trkpt>
      <trkpt lat="46.91983" lon="8.58544">
        <ele>856</ele>
        <time>2021-08-10T11:55:14.788Z</time>
      </trkpt>
      <trkpt lat="46.91983" lon="8.58544">
        <ele>856</ele>
        <time>2021-08-10T11:55:15.788Z</time>
      </trkpt>
      <trkpt lat="46.91984" lon="8.58544">
        <ele>856</ele>
        <time>2021-08-10T11:55:16.788Z</time>
      </trkpt>
      <trkpt lat="46.91984" lon="8.58544">
        <ele>857</ele>
        <time>2021-08-10T11:55:17.788Z</time>
      </trkpt>
      <trkpt lat="46.91985" lon="8.58543">
        <ele>857</ele>
        <time>2021-08-10T11:55:18.788Z</time>
      </trkpt>
      <trkpt lat="46.91985" lon="8.58543">
        <ele>857</ele>
        <time>2021-08-10T11:55:19.788Z</time>
      </trkpt>
      <trkpt lat="46.91986" lon="8.58542">
        <ele>858</ele>
        <time>2021-08-10T11:55:20.788Z</time>
      </trkpt>
      <trkpt lat="46.91986" lon="8.58541">
        <ele>858</ele>
        <time>2021-08-10T11:55:21.788Z</time>
      </trkpt>
      <trkpt lat="46.91986" lon="8.5854">
        <ele>859</ele>
        <time>2021-08-10T11:55:22.788Z</time>
      </trkpt>
      <trkpt lat="46.91987" lon="8.5854">
        <ele>860</ele>
        <time>2021-08-10T11:55:23.787Z</time>
      </trkpt>
      <trkpt lat="46.91986" lon="8.58541">
        <ele>860</ele>
        <time>2021-08-10T11:55:24.787Z</time>
      </trkpt>
      <trkpt lat="46.91985" lon="8.58541">
        <ele>861</ele>
        <time>2021-08-10T11:55:25.787Z</time>
      </trkpt>
      <trkpt lat="46.91984" lon="8.5854">
        <ele>861</ele>
        <time>2021-08-10T11:55:26.788Z</time>
      </trkpt>
      <trkpt lat="46.91983" lon="8.5854">
        <ele>861</ele>
        <time>2021-08-10T11:55:27.788Z</time>
      </trkpt>
      <trkpt lat="46.91981" lon="8.58541">
        <ele>862</ele>
        <time>2021-08-10T11:55:31.892Z</time>
      </trkpt>
      <trkpt lat="46.9198" lon="8.58542">
        <ele>862</ele>
        <time>2021-08-10T11:55:32.892Z</time>
      </trkpt>
      <trkpt lat="46.9198" lon="8.58543">
        <ele>862</ele>
        <time>2021-08-10T11:55:33.892Z</time>
      </trkpt>
      <trkpt lat="46.91979" lon="8.58544">
        <ele>862</ele>
        <time>2021-08-10T11:55:34.891Z</time>
      </trkpt>
      <trkpt lat="46.91979" lon="8.58544">
        <ele>862</ele>
        <time>2021-08-10T11:55:35.891Z</time>
      </trkpt>
      <trkpt lat="46.91978" lon="8.58545">
        <ele>862</ele>
        <time>2021-08-10T11:55:43.902Z</time>
      </trkpt>
      <trkpt lat="46.91977" lon="8.58544">
        <ele>863</ele>
        <time>2021-08-10T11:55:44.901Z</time>
      </trkpt>
      <trkpt lat="46.91977" lon="8.58544">
        <ele>863</ele>
        <time>2021-08-10T11:55:45.901Z</time>
      </trkpt>
      <trkpt lat="46.91977" lon="8.58544">
        <ele>863</ele>
        <time>2021-08-10T11:55:46.902Z</time>
      </trkpt>
      <trkpt lat="46.91978" lon="8.58543">
        <ele>864</ele>
        <time>2021-08-10T11:55:47.904Z</time>
      </trkpt>
      <trkpt lat="46.91978" lon="8.58542">
        <ele>864</ele>
        <time>2021-08-10T11:56:01.017Z</time>
      </trkpt>
      <trkpt lat="46.91978" lon="8.58542">
        <ele>864</ele>
        <time>2021-08-10T11:56:02.016Z</time>
      </trkpt>
      <trkpt lat="46.91979" lon="8.58542">
        <ele>865</ele>
        <time>2021-08-10T11:56:04.792Z</time>
      </trkpt>
      <trkpt lat="46.91979" lon="8.58542">
        <ele>865</ele>
        <time>2021-08-10T11:56:51.664Z</time>
      </trkpt>
      <trkpt lat="46.9198" lon="8.58541">
        <ele>866</ele>
        <time>2021-08-10T11:56:52.664Z</time>
      </trkpt>
      <trkpt lat="46.91981" lon="8.58541">
        <ele>866</ele>
        <time>2021-08-10T11:56:53.664Z</time>
      </trkpt>
      <trkpt lat="46.91983" lon="8.58538">
        <ele>865</ele>
        <time>2021-08-10T11:56:54.664Z</time>
      </trkpt>
      <trkpt lat="46.91984" lon="8.58536">
        <ele>864</ele>
        <time>2021-08-10T11:56:55.665Z</time>
      </trkpt>
      <trkpt lat="46.91986" lon="8.58534">
        <ele>864</ele>
        <time>2021-08-10T11:56:56.664Z</time>
      </trkpt>
      <trkpt lat="46.91988" lon="8.58532">
        <ele>863</ele>
        <time>2021-08-10T11:56:57.665Z</time>
      </trkpt>
      <trkpt lat="46.9199" lon="8.58531">
        <ele>863</ele>
        <time>2021-08-10T11:56:58.665Z</time>
      </trkpt>
      <trkpt lat="46.91991" lon="8.5853">
        <ele>863</ele>
        <time>2021-08-10T11:56:59.665Z</time>
      </trkpt>
      <trkpt lat="46.91992" lon="8.58529">
        <ele>863</ele>
        <time>2021-08-10T11:57:00.665Z</time>
      </trkpt>
      <trkpt lat="46.91992" lon="8.58528">
        <ele>863</ele>
        <time>2021-08-10T11:57:01.665Z</time>
      </trkpt>
      <trkpt lat="46.91993" lon="8.58527">
        <ele>863</ele>
        <time>2021-08-10T11:57:02.665Z</time>
      </trkpt>
      <trkpt lat="46.91993" lon="8.58526">
        <ele>864</ele>
        <time>2021-08-10T11:57:03.665Z</time>
      </trkpt>
      <trkpt lat="46.91994" lon="8.58525">
        <ele>864</ele>
        <time>2021-08-10T11:57:04.665Z</time>
      </trkpt>
      <trkpt lat="46.91994" lon="8.58525">
        <ele>864</ele>
        <time>2021-08-10T11:57:05.665Z</time>
      </trkpt>
      <trkpt lat="46.91994" lon="8.58524">
        <ele>864</ele>
        <time>2021-08-10T11:57:06.665Z</time>
      </trkpt>
      <trkpt lat="46.91994" lon="8.58524">
        <ele>865</ele>
        <time>2021-08-10T11:57:07.665Z</time>
      </trkpt>
      <trkpt lat="46.91995" lon="8.58523">
        <ele>865</ele>
        <time>2021-08-10T11:57:08.665Z</time>
      </trkpt>
      <trkpt lat="46.91995" lon="8.58523">
        <ele>865</ele>
        <time>2021-08-10T11:57:09.665Z</time>
      </trkpt>
      <trkpt lat="46.91995" lon="8.58523">
        <ele>866</ele>
        <time>2021-08-10T11:57:10.665Z</time>
      </trkpt>
      <trkpt lat="46.91995" lon="8.58523">
        <ele>866</ele>
        <time>2021-08-10T11:57:11.665Z</time>
      </trkpt>
      <trkpt lat="46.91995" lon="8.58524">
        <ele>866</ele>
        <time>2021-08-10T11:57:12.665Z</time>
      </trkpt>
      <trkpt lat="46.91994" lon="8.58524">
        <ele>867</ele>
        <time>2021-08-10T11:57:13.665Z</time>
      </trkpt>
      <trkpt lat="46.91995" lon="8.58523">
        <ele>867</ele>
        <time>2021-08-10T11:57:14.665Z</time>
      </trkpt>
      <trkpt lat="46.91996" lon="8.58529">
        <ele>869</ele>
        <time>2021-08-10T11:57:15.665Z</time>
      </trkpt>
      <trkpt lat="46.91996" lon="8.58529">
        <ele>869</ele>
        <time>2021-08-10T11:57:16.665Z</time>
      </trkpt>
      <trkpt lat="46.91996" lon="8.58529">
        <ele>869</ele>
        <time>2021-08-10T11:57:17.664Z</time>
      </trkpt>
      <trkpt lat="46.91997" lon="8.58529">
        <ele>870</ele>
        <time>2021-08-10T11:57:18.664Z</time>
      </trkpt>
      <trkpt lat="46.91997" lon="8.58529">
        <ele>871</ele>
        <time>2021-08-10T11:57:19.664Z</time>
      </trkpt>
      <trkpt lat="46.91997" lon="8.58528">
        <ele>871</ele>
        <time>2021-08-10T11:57:20.664Z</time>
      </trkpt>
      <trkpt lat="46.91997" lon="8.58528">
        <ele>871</ele>
        <time>2021-08-10T11:57:21.665Z</time>
      </trkpt>
      <trkpt lat="46.91997" lon="8.58529">
        <ele>872</ele>
        <time>2021-08-10T11:57:22.665Z</time>
      </trkpt>
      <trkpt lat="46.91996" lon="8.5853">
        <ele>872</ele>
        <time>2021-08-10T11:57:23.665Z</time>
      </trkpt>
      <trkpt lat="46.91997" lon="8.5853">
        <ele>872</ele>
        <time>2021-08-10T11:57:24.666Z</time>
      </trkpt>
      <trkpt lat="46.91997" lon="8.5853">
        <ele>872</ele>
        <time>2021-08-10T11:57:25.665Z</time>
      </trkpt>
      <trkpt lat="46.91996" lon="8.58528">
        <ele>873</ele>
        <time>2021-08-10T11:57:26.666Z</time>
      </trkpt>
      <trkpt lat="46.91996" lon="8.58528">
        <ele>874</ele>
        <time>2021-08-10T11:57:27.667Z</time>
      </trkpt>
      <trkpt lat="46.91995" lon="8.58528">
        <ele>874</ele>
        <time>2021-08-10T11:57:28.666Z</time>
      </trkpt>
      <trkpt lat="46.91995" lon="8.58528">
        <ele>874</ele>
        <time>2021-08-10T11:57:29.667Z</time>
      </trkpt>
      <trkpt lat="46.91995" lon="8.58527">
        <ele>875</ele>
        <time>2021-08-10T11:57:30.666Z</time>
      </trkpt>
      <trkpt lat="46.91995" lon="8.58526">
        <ele>875</ele>
        <time>2021-08-10T11:57:31.666Z</time>
      </trkpt>
      <trkpt lat="46.91994" lon="8.58525">
        <ele>876</ele>
        <time>2021-08-10T11:57:32.667Z</time>
      </trkpt>
      <trkpt lat="46.91994" lon="8.58524">
        <ele>876</ele>
        <time>2021-08-10T11:57:33.667Z</time>
      </trkpt>
      <trkpt lat="46.91993" lon="8.58523">
        <ele>877</ele>
        <time>2021-08-10T11:57:34.666Z</time>
      </trkpt>
      <trkpt lat="46.91992" lon="8.58522">
        <ele>877</ele>
        <time>2021-08-10T11:57:35.667Z</time>
      </trkpt>
      <trkpt lat="46.91992" lon="8.58521">
        <ele>878</ele>
        <time>2021-08-10T11:57:36.667Z</time>
      </trkpt>
      <trkpt lat="46.91991" lon="8.5852">
        <ele>878</ele>
        <time>2021-08-10T11:57:37.667Z</time>
      </trkpt>
      <trkpt lat="46.9199" lon="8.58519">
        <ele>879</ele>
        <time>2021-08-10T11:57:38.667Z</time>
      </trkpt>
      <trkpt lat="46.91989" lon="8.58519">
        <ele>879</ele>
        <time>2021-08-10T11:57:39.667Z</time>
      </trkpt>
      <trkpt lat="46.91989" lon="8.58519">
        <ele>880</ele>
        <time>2021-08-10T11:57:40.667Z</time>
      </trkpt>
      <trkpt lat="46.91989" lon="8.5852">
        <ele>881</ele>
        <time>2021-08-10T11:57:41.667Z</time>
      </trkpt>
      <trkpt lat="46.91989" lon="8.5852">
        <ele>881</ele>
        <time>2021-08-10T11:57:42.666Z</time>
      </trkpt>
      <trkpt lat="46.91989" lon="8.58519">
        <ele>881</ele>
        <time>2021-08-10T11:57:43.666Z</time>
      </trkpt>
      <trkpt lat="46.91989" lon="8.58518">
        <ele>882</ele>
        <time>2021-08-10T11:57:44.667Z</time>
      </trkpt>
      <trkpt lat="46.91988" lon="8.58518">
        <ele>882</ele>
        <time>2021-08-10T11:57:45.667Z</time>
      </trkpt>
      <trkpt lat="46.91987" lon="8.58517">
        <ele>882</ele>
        <time>2021-08-10T11:57:46.667Z</time>
      </trkpt>
      <trkpt lat="46.91986" lon="8.58516">
        <ele>883</ele>
        <time>2021-08-10T11:57:47.666Z</time>
      </trkpt>
      <trkpt lat="46.91985" lon="8.58515">
        <ele>883</ele>
        <time>2021-08-10T11:57:48.667Z</time>
      </trkpt>
      <trkpt lat="46.91985" lon="8.58515">
        <ele>883</ele>
        <time>2021-08-10T11:57:49.667Z</time>
      </trkpt>
      <trkpt lat="46.91984" lon="8.58513">
        <ele>884</ele>
        <time>2021-08-10T11:57:50.667Z</time>
      </trkpt>
      <trkpt lat="46.91983" lon="8.58512">
        <ele>884</ele>
        <time>2021-08-10T11:57:51.666Z</time>
      </trkpt>
      <trkpt lat="46.91983" lon="8.58512">
        <ele>884</ele>
        <time>2021-08-10T11:57:52.667Z</time>
      </trkpt>
      <trkpt lat="46.91983" lon="8.58511">
        <ele>884</ele>
        <time>2021-08-10T11:57:53.667Z</time>
      </trkpt>
      <trkpt lat="46.91982" lon="8.58509">
        <ele>884</ele>
        <time>2021-08-10T11:57:54.666Z</time>
      </trkpt>
      <trkpt lat="46.91981" lon="8.58508">
        <ele>884</ele>
        <time>2021-08-10T11:57:55.667Z</time>
      </trkpt>
      <trkpt lat="46.9198" lon="8.58506">
        <ele>884</ele>
        <time>2021-08-10T11:57:56.667Z</time>
      </trkpt>
      <trkpt lat="46.9198" lon="8.58506">
        <ele>885</ele>
        <time>2021-08-10T11:57:57.666Z</time>
      </trkpt>
      <trkpt lat="46.91978" lon="8.58505">
        <ele>885</ele>
        <time>2021-08-10T11:57:58.667Z</time>
      </trkpt>
      <trkpt lat="46.91977" lon="8.58505">
        <ele>885</ele>
        <time>2021-08-10T11:57:59.667Z</time>
      </trkpt>
      <trkpt lat="46.91976" lon="8.58505">
        <ele>885</ele>
        <time>2021-08-10T11:58:00.667Z</time>
      </trkpt>
      <trkpt lat="46.91975" lon="8.58504">
        <ele>885</ele>
        <time>2021-08-10T11:58:01.666Z</time>
      </trkpt>
      <trkpt lat="46.91974" lon="8.58504">
        <ele>886</ele>
        <time>2021-08-10T11:58:02.666Z</time>
      </trkpt>
      <trkpt lat="46.91973" lon="8.58504">
        <ele>886</ele>
        <time>2021-08-10T11:58:03.667Z</time>
      </trkpt>
      <trkpt lat="46.91973" lon="8.58505">
        <ele>887</ele>
        <time>2021-08-10T11:58:04.666Z</time>
      </trkpt>
      <trkpt lat="46.91972" lon="8.58507">
        <ele>887</ele>
        <time>2021-08-10T11:58:05.667Z</time>
      </trkpt>
      <trkpt lat="46.91972" lon="8.58508">
        <ele>887</ele>
        <time>2021-08-10T11:58:06.667Z</time>
      </trkpt>
      <trkpt lat="46.91971" lon="8.58508">
        <ele>887</ele>
        <time>2021-08-10T11:58:07.667Z</time>
      </trkpt>
      <trkpt lat="46.91971" lon="8.58509">
        <ele>887</ele>
        <time>2021-08-10T11:58:08.667Z</time>
      </trkpt>
      <trkpt lat="46.91971" lon="8.58509">
        <ele>887</ele>
        <time>2021-08-10T11:58:09.667Z</time>
      </trkpt>
      <trkpt lat="46.91971" lon="8.58509">
        <ele>887</ele>
        <time>2021-08-10T11:58:10.667Z</time>
      </trkpt>
      <trkpt lat="46.9197" lon="8.58508">
        <ele>888</ele>
        <time>2021-08-10T11:58:11.667Z</time>
      </trkpt>
      <trkpt lat="46.91969" lon="8.58507">
        <ele>888</ele>
        <time>2021-08-10T11:58:12.666Z</time>
      </trkpt>
      <trkpt lat="46.91969" lon="8.58507">
        <ele>888</ele>
        <time>2021-08-10T11:58:13.667Z</time>
      </trkpt>
      <trkpt lat="46.91968" lon="8.58506">
        <ele>888</ele>
        <time>2021-08-10T11:58:14.667Z</time>
      </trkpt>
      <trkpt lat="46.91967" lon="8.58506">
        <ele>888</ele>
        <time>2021-08-10T11:58:15.666Z</time>
      </trkpt>
      <trkpt lat="46.91966" lon="8.58507">
        <ele>888</ele>
        <time>2021-08-10T11:58:16.666Z</time>
      </trkpt>
      <trkpt lat="46.91966" lon="8.58507">
        <ele>888</ele>
        <time>2021-08-10T11:58:17.667Z</time>
      </trkpt>
      <trkpt lat="46.91965" lon="8.58507">
        <ele>888</ele>
        <time>2021-08-10T11:58:18.667Z</time>
      </trkpt>
      <trkpt lat="46.91965" lon="8.58508">
        <ele>888</ele>
        <time>2021-08-10T11:58:19.666Z</time>
      </trkpt>
      <trkpt lat="46.91964" lon="8.58508">
        <ele>888</ele>
        <time>2021-08-10T11:58:20.666Z</time>
      </trkpt>
      <trkpt lat="46.91964" lon="8.58508">
        <ele>888</ele>
        <time>2021-08-10T11:58:21.667Z</time>
      </trkpt>
      <trkpt lat="46.91963" lon="8.58508">
        <ele>888</ele>
        <time>2021-08-10T11:58:22.667Z</time>
      </trkpt>
      <trkpt lat="46.91962" lon="8.58508">
        <ele>888</ele>
        <time>2021-08-10T11:58:23.666Z</time>
      </trkpt>
      <trkpt lat="46.91962" lon="8.58508">
        <ele>888</ele>
        <time>2021-08-10T11:58:24.666Z</time>
      </trkpt>
      <trkpt lat="46.91961" lon="8.58508">
        <ele>889</ele>
        <time>2021-08-10T11:58:25.667Z</time>
      </trkpt>
      <trkpt lat="46.91961" lon="8.58507">
        <ele>889</ele>
        <time>2021-08-10T11:58:26.666Z</time>
      </trkpt>
      <trkpt lat="46.9196" lon="8.58507">
        <ele>889</ele>
        <time>2021-08-10T11:58:27.667Z</time>
      </trkpt>
      <trkpt lat="46.9196" lon="8.58508">
        <ele>889</ele>
        <time>2021-08-10T11:58:28.667Z</time>
      </trkpt>
      <trkpt lat="46.91959" lon="8.58508">
        <ele>888</ele>
        <time>2021-08-10T11:58:29.667Z</time>
      </trkpt>
      <trkpt lat="46.91958" lon="8.58508">
        <ele>887</ele>
        <time>2021-08-10T11:58:30.666Z</time>
      </trkpt>
      <trkpt lat="46.91957" lon="8.58508">
        <ele>887</ele>
        <time>2021-08-10T11:58:31.667Z</time>
      </trkpt>
      <trkpt lat="46.91957" lon="8.58508">
        <ele>886</ele>
        <time>2021-08-10T11:58:32.667Z</time>
      </trkpt>
      <trkpt lat="46.91956" lon="8.58508">
        <ele>885</ele>
        <time>2021-08-10T11:58:33.667Z</time>
      </trkpt>
      <trkpt lat="46.91956" lon="8.58508">
        <ele>885</ele>
        <time>2021-08-10T11:58:34.666Z</time>
      </trkpt>
      <trkpt lat="46.91955" lon="8.58507">
        <ele>884</ele>
        <time>2021-08-10T11:58:35.667Z</time>
      </trkpt>
      <trkpt lat="46.91954" lon="8.58506">
        <ele>882</ele>
        <time>2021-08-10T11:58:36.667Z</time>
      </trkpt>
      <trkpt lat="46.91954" lon="8.58505">
        <ele>882</ele>
        <time>2021-08-10T11:58:37.667Z</time>
      </trkpt>
      <trkpt lat="46.91953" lon="8.58504">
        <ele>881</ele>
        <time>2021-08-10T11:58:38.667Z</time>
      </trkpt>
      <trkpt lat="46.91953" lon="8.58503">
        <ele>880</ele>
        <time>2021-08-10T11:58:39.667Z</time>
      </trkpt>
      <trkpt lat="46.91952" lon="8.58502">
        <ele>879</ele>
        <time>2021-08-10T11:58:40.667Z</time>
      </trkpt>
      <trkpt lat="46.91952" lon="8.58502">
        <ele>878</ele>
        <time>2021-08-10T11:58:41.667Z</time>
      </trkpt>
      <trkpt lat="46.91951" lon="8.58503">
        <ele>878</ele>
        <time>2021-08-10T11:58:42.667Z</time>
      </trkpt>
      <trkpt lat="46.9195" lon="8.58503">
        <ele>877</ele>
        <time>2021-08-10T11:58:43.666Z</time>
      </trkpt>
      <trkpt lat="46.9195" lon="8.58503">
        <ele>877</ele>
        <time>2021-08-10T11:58:44.667Z</time>
      </trkpt>
      <trkpt lat="46.91949" lon="8.58503">
        <ele>876</ele>
        <time>2021-08-10T11:58:45.667Z</time>
      </trkpt>
      <trkpt lat="46.91948" lon="8.58504">
        <ele>876</ele>
        <time>2021-08-10T11:58:46.667Z</time>
      </trkpt>
      <trkpt lat="46.91948" lon="8.58504">
        <ele>875</ele>
        <time>2021-08-10T11:58:47.666Z</time>
      </trkpt>
      <trkpt lat="46.91947" lon="8.58504">
        <ele>874</ele>
        <time>2021-08-10T11:58:48.667Z</time>
      </trkpt>
      <trkpt lat="46.91947" lon="8.58504">
        <ele>874</ele>
        <time>2021-08-10T11:58:49.667Z</time>
      </trkpt>
      <trkpt lat="46.91946" lon="8.58504">
        <ele>873</ele>
        <time>2021-08-10T11:58:50.666Z</time>
      </trkpt>
      <trkpt lat="46.91945" lon="8.58505">
        <ele>873</ele>
        <time>2021-08-10T11:58:51.667Z</time>
      </trkpt>
      <trkpt lat="46.91944" lon="8.58505">
        <ele>873</ele>
        <time>2021-08-10T11:58:52.667Z</time>
      </trkpt>
      <trkpt lat="46.91944" lon="8.58505">
        <ele>874</ele>
        <time>2021-08-10T11:58:53.666Z</time>
      </trkpt>
      <trkpt lat="46.91943" lon="8.58504">
        <ele>874</ele>
        <time>2021-08-10T11:58:54.667Z</time>
      </trkpt>
      <trkpt lat="46.91942" lon="8.58504">
        <ele>875</ele>
        <time>2021-08-10T11:58:55.667Z</time>
      </trkpt>
      <trkpt lat="46.91941" lon="8.58504">
        <ele>875</ele>
        <time>2021-08-10T11:58:56.667Z</time>
      </trkpt>
      <trkpt lat="46.91941" lon="8.58504">
        <ele>875</ele>
        <time>2021-08-10T11:58:57.667Z</time>
      </trkpt>
      <trkpt lat="46.9194" lon="8.58504">
        <ele>874</ele>
        <time>2021-08-10T11:58:58.667Z</time>
      </trkpt>
      <trkpt lat="46.9194" lon="8.58505">
        <ele>874</ele>
        <time>2021-08-10T11:58:59.667Z</time>
      </trkpt>
      <trkpt lat="46.9194" lon="8.58505">
        <ele>874</ele>
        <time>2021-08-10T11:59:00.667Z</time>
      </trkpt>
      <trkpt lat="46.91939" lon="8.58505">
        <ele>874</ele>
        <time>2021-08-10T11:59:01.667Z</time>
      </trkpt>
      <trkpt lat="46.91938" lon="8.58506">
        <ele>874</ele>
        <time>2021-08-10T11:59:02.667Z</time>
      </trkpt>
      <trkpt lat="46.91938" lon="8.58505">
        <ele>874</ele>
        <time>2021-08-10T11:59:03.666Z</time>
      </trkpt>
      <trkpt lat="46.91937" lon="8.58505">
        <ele>874</ele>
        <time>2021-08-10T11:59:04.666Z</time>
      </trkpt>
      <trkpt lat="46.91936" lon="8.58505">
        <ele>874</ele>
        <time>2021-08-10T11:59:05.667Z</time>
      </trkpt>
      <trkpt lat="46.91936" lon="8.58505">
        <ele>874</ele>
        <time>2021-08-10T11:59:06.667Z</time>
      </trkpt>
      <trkpt lat="46.91936" lon="8.58505">
        <ele>874</ele>
        <time>2021-08-10T11:59:07.667Z</time>
      </trkpt>
      <trkpt lat="46.91936" lon="8.58505">
        <ele>874</ele>
        <time>2021-08-10T11:59:08.667Z</time>
      </trkpt>
      <trkpt lat="46.91935" lon="8.58504">
        <ele>874</ele>
        <time>2021-08-10T11:59:09.666Z</time>
      </trkpt>
      <trkpt lat="46.91936" lon="8.58504">
        <ele>874</ele>
        <time>2021-08-10T11:59:10.667Z</time>
      </trkpt>
      <trkpt lat="46.91936" lon="8.58504">
        <ele>875</ele>
        <time>2021-08-10T11:59:11.667Z</time>
      </trkpt>
      <trkpt lat="46.91935" lon="8.58505">
        <ele>875</ele>
        <time>2021-08-10T11:59:12.667Z</time>
      </trkpt>
      <trkpt lat="46.91935" lon="8.58505">
        <ele>874</ele>
        <time>2021-08-10T11:59:13.667Z</time>
      </trkpt>
      <trkpt lat="46.91934" lon="8.58505">
        <ele>874</ele>
        <time>2021-08-10T11:59:14.667Z</time>
      </trkpt>
      <trkpt lat="46.91934" lon="8.58506">
        <ele>874</ele>
        <time>2021-08-10T11:59:15.666Z</time>
      </trkpt>
      <trkpt lat="46.91933" lon="8.58506">
        <ele>873</ele>
        <time>2021-08-10T11:59:16.666Z</time>
      </trkpt>
      <trkpt lat="46.91933" lon="8.58506">
        <ele>873</ele>
        <time>2021-08-10T11:59:17.666Z</time>
      </trkpt>
      <trkpt lat="46.91932" lon="8.58507">
        <ele>873</ele>
        <time>2021-08-10T11:59:18.666Z</time>
      </trkpt>
      <trkpt lat="46.91931" lon="8.58507">
        <ele>873</ele>
        <time>2021-08-10T11:59:19.667Z</time>
      </trkpt>
      <trkpt lat="46.91931" lon="8.58508">
        <ele>873</ele>
        <time>2021-08-10T11:59:20.667Z</time>
      </trkpt>
      <trkpt lat="46.9193" lon="8.58508">
        <ele>874</ele>
        <time>2021-08-10T11:59:21.666Z</time>
      </trkpt>
      <trkpt lat="46.91929" lon="8.58509">
        <ele>874</ele>
        <time>2021-08-10T11:59:22.667Z</time>
      </trkpt>
      <trkpt lat="46.91929" lon="8.58509">
        <ele>874</ele>
        <time>2021-08-10T11:59:23.667Z</time>
      </trkpt>
      <trkpt lat="46.91928" lon="8.58509">
        <ele>875</ele>
        <time>2021-08-10T11:59:24.666Z</time>
      </trkpt>
      <trkpt lat="46.91928" lon="8.58509">
        <ele>875</ele>
        <time>2021-08-10T11:59:25.667Z</time>
      </trkpt>
      <trkpt lat="46.91928" lon="8.58509">
        <ele>875</ele>
        <time>2021-08-10T11:59:26.666Z</time>
      </trkpt>
      <trkpt lat="46.91926" lon="8.58512">
        <ele>876</ele>
        <time>2021-08-10T11:59:27.667Z</time>
      </trkpt>
      <trkpt lat="46.91925" lon="8.58513">
        <ele>877</ele>
        <time>2021-08-10T11:59:28.667Z</time>
      </trkpt>
      <trkpt lat="46.91923" lon="8.58514">
        <ele>877</ele>
        <time>2021-08-10T11:59:29.666Z</time>
      </trkpt>
      <trkpt lat="46.91922" lon="8.58514">
        <ele>878</ele>
        <time>2021-08-10T11:59:30.667Z</time>
      </trkpt>
      <trkpt lat="46.91922" lon="8.58513">
        <ele>878</ele>
        <time>2021-08-10T11:59:31.667Z</time>
      </trkpt>
      <trkpt lat="46.91922" lon="8.58513">
        <ele>878</ele>
        <time>2021-08-10T11:59:32.666Z</time>
      </trkpt>
      <trkpt lat="46.91921" lon="8.58514">
        <ele>878</ele>
        <time>2021-08-10T11:59:33.666Z</time>
      </trkpt>
      <trkpt lat="46.9192" lon="8.58514">
        <ele>877</ele>
        <time>2021-08-10T11:59:34.666Z</time>
      </trkpt>
      <trkpt lat="46.9192" lon="8.58515">
        <ele>877</ele>
        <time>2021-08-10T11:59:35.667Z</time>
      </trkpt>
      <trkpt lat="46.91919" lon="8.58515">
        <ele>877</ele>
        <time>2021-08-10T11:59:36.667Z</time>
      </trkpt>
      <trkpt lat="46.91918" lon="8.58515">
        <ele>877</ele>
        <time>2021-08-10T11:59:37.666Z</time>
      </trkpt>
      <trkpt lat="46.91918" lon="8.58515">
        <ele>876</ele>
        <time>2021-08-10T11:59:38.667Z</time>
      </trkpt>
      <trkpt lat="46.91917" lon="8.58516">
        <ele>876</ele>
        <time>2021-08-10T11:59:39.666Z</time>
      </trkpt>
      <trkpt lat="46.91917" lon="8.58516">
        <ele>875</ele>
        <time>2021-08-10T11:59:40.667Z</time>
      </trkpt>
      <trkpt lat="46.91916" lon="8.58517">
        <ele>875</ele>
        <time>2021-08-10T11:59:41.666Z</time>
      </trkpt>
      <trkpt lat="46.91916" lon="8.58517">
        <ele>875</ele>
        <time>2021-08-10T11:59:42.667Z</time>
      </trkpt>
      <trkpt lat="46.91915" lon="8.58517">
        <ele>875</ele>
        <time>2021-08-10T11:59:43.666Z</time>
      </trkpt>
      <trkpt lat="46.91914" lon="8.58517">
        <ele>876</ele>
        <time>2021-08-10T11:59:44.666Z</time>
      </trkpt>
      <trkpt lat="46.91913" lon="8.58517">
        <ele>876</ele>
        <time>2021-08-10T11:59:45.667Z</time>
      </trkpt>
      <trkpt lat="46.91913" lon="8.58517">
        <ele>876</ele>
        <time>2021-08-10T11:59:46.666Z</time>
      </trkpt>
      <trkpt lat="46.91912" lon="8.58518">
        <ele>876</ele>
        <time>2021-08-10T11:59:47.667Z</time>
      </trkpt>
      <trkpt lat="46.91912" lon="8.58518">
        <ele>876</ele>
        <time>2021-08-10T11:59:48.666Z</time>
      </trkpt>
      <trkpt lat="46.91911" lon="8.58518">
        <ele>876</ele>
        <time>2021-08-10T11:59:49.667Z</time>
      </trkpt>
      <trkpt lat="46.9191" lon="8.58518">
        <ele>876</ele>
        <time>2021-08-10T11:59:50.667Z</time>
      </trkpt>
      <trkpt lat="46.9191" lon="8.58519">
        <ele>876</ele>
        <time>2021-08-10T11:59:51.666Z</time>
      </trkpt>
      <trkpt lat="46.91909" lon="8.58519">
        <ele>876</ele>
        <time>2021-08-10T11:59:52.667Z</time>
      </trkpt>
      <trkpt lat="46.91908" lon="8.58519">
        <ele>876</ele>
        <time>2021-08-10T11:59:53.667Z</time>
      </trkpt>
      <trkpt lat="46.91907" lon="8.58519">
        <ele>876</ele>
        <time>2021-08-10T11:59:54.667Z</time>
      </trkpt>
      <trkpt lat="46.91906" lon="8.5852">
        <ele>876</ele>
        <time>2021-08-10T11:59:55.667Z</time>
      </trkpt>
      <trkpt lat="46.91906" lon="8.5852">
        <ele>877</ele>
        <time>2021-08-10T11:59:56.666Z</time>
      </trkpt>
      <trkpt lat="46.91905" lon="8.5852">
        <ele>877</ele>
        <time>2021-08-10T11:59:57.666Z</time>
      </trkpt>
      <trkpt lat="46.91904" lon="8.5852">
        <ele>877</ele>
        <time>2021-08-10T12:00:07.811Z</time>
      </trkpt>
      <trkpt lat="46.91904" lon="8.5852">
        <ele>878</ele>
        <time>2021-08-10T12:00:14.684Z</time>
      </trkpt>
      <trkpt lat="46.91903" lon="8.58521">
        <ele>878</ele>
        <time>2021-08-10T12:00:24.581Z</time>
      </trkpt>
      <trkpt lat="46.91903" lon="8.5852">
        <ele>878</ele>
        <time>2021-08-10T12:00:25.580Z</time>
      </trkpt>
      <trkpt lat="46.91902" lon="8.5852">
        <ele>878</ele>
        <time>2021-08-10T12:00:26.581Z</time>
      </trkpt>
      <trkpt lat="46.91901" lon="8.5852">
        <ele>878</ele>
        <time>2021-08-10T12:00:27.580Z</time>
      </trkpt>
      <trkpt lat="46.91901" lon="8.58521">
        <ele>878</ele>
        <time>2021-08-10T12:00:28.581Z</time>
      </trkpt>
      <trkpt lat="46.919" lon="8.5852">
        <ele>878</ele>
        <time>2021-08-10T12:00:30.659Z</time>
      </trkpt>
      <trkpt lat="46.91899" lon="8.5852">
        <ele>879</ele>
        <time>2021-08-10T12:00:31.659Z</time>
      </trkpt>
      <trkpt lat="46.91899" lon="8.58519">
        <ele>879</ele>
        <time>2021-08-10T12:00:32.660Z</time>
      </trkpt>
      <trkpt lat="46.91897" lon="8.58519">
        <ele>879</ele>
        <time>2021-08-10T12:00:33.659Z</time>
      </trkpt>
      <trkpt lat="46.91897" lon="8.58518">
        <ele>879</ele>
        <time>2021-08-10T12:00:34.659Z</time>
      </trkpt>
      <trkpt lat="46.91896" lon="8.58517">
        <ele>880</ele>
        <time>2021-08-10T12:00:35.660Z</time>
      </trkpt>
      <trkpt lat="46.91895" lon="8.58518">
        <ele>880</ele>
        <time>2021-08-10T12:00:36.660Z</time>
      </trkpt>
      <trkpt lat="46.91894" lon="8.58518">
        <ele>881</ele>
        <time>2021-08-10T12:00:37.660Z</time>
      </trkpt>
      <trkpt lat="46.91893" lon="8.58517">
        <ele>882</ele>
        <time>2021-08-10T12:00:38.660Z</time>
      </trkpt>
      <trkpt lat="46.91893" lon="8.58517">
        <ele>882</ele>
        <time>2021-08-10T12:00:39.660Z</time>
      </trkpt>
      <trkpt lat="46.91892" lon="8.58516">
        <ele>883</ele>
        <time>2021-08-10T12:00:40.660Z</time>
      </trkpt>
      <trkpt lat="46.91892" lon="8.58516">
        <ele>883</ele>
        <time>2021-08-10T12:00:41.660Z</time>
      </trkpt>
      <trkpt lat="46.91892" lon="8.58515">
        <ele>884</ele>
        <time>2021-08-10T12:00:42.660Z</time>
      </trkpt>
      <trkpt lat="46.91891" lon="8.58515">
        <ele>884</ele>
        <time>2021-08-10T12:00:43.660Z</time>
      </trkpt>
      <trkpt lat="46.9189" lon="8.58514">
        <ele>885</ele>
        <time>2021-08-10T12:00:44.660Z</time>
      </trkpt>
      <trkpt lat="46.91889" lon="8.58514">
        <ele>886</ele>
        <time>2021-08-10T12:00:45.660Z</time>
      </trkpt>
      <trkpt lat="46.91889" lon="8.58514">
        <ele>886</ele>
        <time>2021-08-10T12:00:46.660Z</time>
      </trkpt>
      <trkpt lat="46.91889" lon="8.58514">
        <ele>886</ele>
        <time>2021-08-10T12:00:47.660Z</time>
      </trkpt>
      <trkpt lat="46.91889" lon="8.58515">
        <ele>886</ele>
        <time>2021-08-10T12:00:48.660Z</time>
      </trkpt>
      <trkpt lat="46.91889" lon="8.58517">
        <ele>885</ele>
        <time>2021-08-10T12:00:49.660Z</time>
      </trkpt>
      <trkpt lat="46.91889" lon="8.58518">
        <ele>885</ele>
        <time>2021-08-10T12:00:50.661Z</time>
      </trkpt>
      <trkpt lat="46.91888" lon="8.58518">
        <ele>885</ele>
        <time>2021-08-10T12:00:51.660Z</time>
      </trkpt>
      <trkpt lat="46.91888" lon="8.58518">
        <ele>885</ele>
        <time>2021-08-10T12:00:54.622Z</time>
      </trkpt>
      <trkpt lat="46.91888" lon="8.58518">
        <ele>886</ele>
        <time>2021-08-10T12:00:55.622Z</time>
      </trkpt>
      <trkpt lat="46.91888" lon="8.58518">
        <ele>887</ele>
        <time>2021-08-10T12:00:56.621Z</time>
      </trkpt>
      <trkpt lat="46.91887" lon="8.58517">
        <ele>887</ele>
        <time>2021-08-10T12:00:57.621Z</time>
      </trkpt>
      <trkpt lat="46.91887" lon="8.58517">
        <ele>888</ele>
        <time>2021-08-10T12:00:58.622Z</time>
      </trkpt>
      <trkpt lat="46.91885" lon="8.58517">
        <ele>888</ele>
        <time>2021-08-10T12:00:59.622Z</time>
      </trkpt>
      <trkpt lat="46.91885" lon="8.58516">
        <ele>888</ele>
        <time>2021-08-10T12:01:00.622Z</time>
      </trkpt>
      <trkpt lat="46.91884" lon="8.58517">
        <ele>888</ele>
        <time>2021-08-10T12:01:01.622Z</time>
      </trkpt>
      <trkpt lat="46.91883" lon="8.58517">
        <ele>888</ele>
        <time>2021-08-10T12:01:02.622Z</time>
      </trkpt>
      <trkpt lat="46.91883" lon="8.58517">
        <ele>888</ele>
        <time>2021-08-10T12:01:03.622Z</time>
      </trkpt>
      <trkpt lat="46.91883" lon="8.58517">
        <ele>888</ele>
        <time>2021-08-10T12:01:04.622Z</time>
      </trkpt>
      <trkpt lat="46.91882" lon="8.58517">
        <ele>887</ele>
        <time>2021-08-10T12:01:05.621Z</time>
      </trkpt>
      <trkpt lat="46.91883" lon="8.58516">
        <ele>887</ele>
        <time>2021-08-10T12:01:06.622Z</time>
      </trkpt>
      <trkpt lat="46.91884" lon="8.58516">
        <ele>886</ele>
        <time>2021-08-10T12:01:07.622Z</time>
      </trkpt>
      <trkpt lat="46.91884" lon="8.58516">
        <ele>886</ele>
        <time>2021-08-10T12:01:08.623Z</time>
      </trkpt>
      <trkpt lat="46.91881" lon="8.58521">
        <ele>895</ele>
        <time>2021-08-10T12:01:09.623Z</time>
      </trkpt>
      <trkpt lat="46.91881" lon="8.58522">
        <ele>896</ele>
        <time>2021-08-10T12:01:10.624Z</time>
      </trkpt>
      <trkpt lat="46.91882" lon="8.58523">
        <ele>895</ele>
        <time>2021-08-10T12:01:11.623Z</time>
      </trkpt>
      <trkpt lat="46.91883" lon="8.58523">
        <ele>895</ele>
        <time>2021-08-10T12:01:12.624Z</time>
      </trkpt>
      <trkpt lat="46.91883" lon="8.58523">
        <ele>895</ele>
        <time>2021-08-10T12:01:13.624Z</time>
      </trkpt>
      <trkpt lat="46.91884" lon="8.58524">
        <ele>894</ele>
        <time>2021-08-10T12:01:14.624Z</time>
      </trkpt>
      <trkpt lat="46.91885" lon="8.58524">
        <ele>894</ele>
        <time>2021-08-10T12:01:15.623Z</time>
      </trkpt>
      <trkpt lat="46.91885" lon="8.58523">
        <ele>893</ele>
        <time>2021-08-10T12:01:16.624Z</time>
      </trkpt>
      <trkpt lat="46.91886" lon="8.58523">
        <ele>893</ele>
        <time>2021-08-10T12:01:17.623Z</time>
      </trkpt>
      <trkpt lat="46.91887" lon="8.58523">
        <ele>892</ele>
        <time>2021-08-10T12:01:18.623Z</time>
      </trkpt>
      <trkpt lat="46.91887" lon="8.58523">
        <ele>891</ele>
        <time>2021-08-10T12:01:19.624Z</time>
      </trkpt>
      <trkpt lat="46.91887" lon="8.58523">
        <ele>891</ele>
        <time>2021-08-10T12:01:20.624Z</time>
      </trkpt>
      <trkpt lat="46.91888" lon="8.58523">
        <ele>890</ele>
        <time>2021-08-10T12:01:21.623Z</time>
      </trkpt>
      <trkpt lat="46.91888" lon="8.58523">
        <ele>890</ele>
        <time>2021-08-10T12:01:22.624Z</time>
      </trkpt>
      <trkpt lat="46.91888" lon="8.58523">
        <ele>890</ele>
        <time>2021-08-10T12:01:23.623Z</time>
      </trkpt>
      <trkpt lat="46.91888" lon="8.58524">
        <ele>890</ele>
        <time>2021-08-10T12:01:24.624Z</time>
      </trkpt>
      <trkpt lat="46.91887" lon="8.58525">
        <ele>890</ele>
        <time>2021-08-10T12:01:25.624Z</time>
      </trkpt>
      <trkpt lat="46.91887" lon="8.58526">
        <ele>890</ele>
        <time>2021-08-10T12:01:26.624Z</time>
      </trkpt>
      <trkpt lat="46.91886" lon="8.58525">
        <ele>890</ele>
        <time>2021-08-10T12:01:27.624Z</time>
      </trkpt>
      <trkpt lat="46.91886" lon="8.58526">
        <ele>890</ele>
        <time>2021-08-10T12:01:28.624Z</time>
      </trkpt>
      <trkpt lat="46.91885" lon="8.58528">
        <ele>890</ele>
        <time>2021-08-10T12:01:29.624Z</time>
      </trkpt>
      <trkpt lat="46.91884" lon="8.58529">
        <ele>891</ele>
        <time>2021-08-10T12:01:30.624Z</time>
      </trkpt>
      <trkpt lat="46.91883" lon="8.58529">
        <ele>891</ele>
        <time>2021-08-10T12:01:31.624Z</time>
      </trkpt>
      <trkpt lat="46.91882" lon="8.58529">
        <ele>891</ele>
        <time>2021-08-10T12:01:32.623Z</time>
      </trkpt>
      <trkpt lat="46.91882" lon="8.5853">
        <ele>892</ele>
        <time>2021-08-10T12:01:33.624Z</time>
      </trkpt>
      <trkpt lat="46.91882" lon="8.5853">
        <ele>892</ele>
        <time>2021-08-10T12:01:34.624Z</time>
      </trkpt>
      <trkpt lat="46.91881" lon="8.5853">
        <ele>892</ele>
        <time>2021-08-10T12:01:35.624Z</time>
      </trkpt>
      <trkpt lat="46.91881" lon="8.5853">
        <ele>892</ele>
        <time>2021-08-10T12:01:36.624Z</time>
      </trkpt>
      <trkpt lat="46.91884" lon="8.58522">
        <ele>887</ele>
        <time>2021-08-10T12:01:37.623Z</time>
      </trkpt>
      <trkpt lat="46.91884" lon="8.58522">
        <ele>886</ele>
        <time>2021-08-10T12:01:38.623Z</time>
      </trkpt>
      <trkpt lat="46.91888" lon="8.58518">
        <ele>881</ele>
        <time>2021-08-10T12:01:39.624Z</time>
      </trkpt>
      <trkpt lat="46.9189" lon="8.58515">
        <ele>883</ele>
        <time>2021-08-10T12:01:40.623Z</time>
      </trkpt>
      <trkpt lat="46.9189" lon="8.58515">
        <ele>884</ele>
        <time>2021-08-10T12:01:41.623Z</time>
      </trkpt>
      <trkpt lat="46.9189" lon="8.58514">
        <ele>884</ele>
        <time>2021-08-10T12:01:42.623Z</time>
      </trkpt>
      <trkpt lat="46.9189" lon="8.58513">
        <ele>884</ele>
        <time>2021-08-10T12:01:43.624Z</time>
      </trkpt>
      <trkpt lat="46.9189" lon="8.58513">
        <ele>885</ele>
        <time>2021-08-10T12:01:44.623Z</time>
      </trkpt>
      <trkpt lat="46.9189" lon="8.58512">
        <ele>885</ele>
        <time>2021-08-10T12:01:45.624Z</time>
      </trkpt>
      <trkpt lat="46.9189" lon="8.58514">
        <ele>886</ele>
        <time>2021-08-10T12:01:46.624Z</time>
      </trkpt>
      <trkpt lat="46.91889" lon="8.58515">
        <ele>887</ele>
        <time>2021-08-10T12:01:47.625Z</time>
      </trkpt>
      <trkpt lat="46.91888" lon="8.58516">
        <ele>887</ele>
        <time>2021-08-10T12:01:48.625Z</time>
      </trkpt>
      <trkpt lat="46.91887" lon="8.58519">
        <ele>890</ele>
        <time>2021-08-10T12:01:49.625Z</time>
      </trkpt>
      <trkpt lat="46.91885" lon="8.5852">
        <ele>893</ele>
        <time>2021-08-10T12:01:50.626Z</time>
      </trkpt>
      <trkpt lat="46.91885" lon="8.5852">
        <ele>893</ele>
        <time>2021-08-10T12:01:51.626Z</time>
      </trkpt>
      <trkpt lat="46.91885" lon="8.5852">
        <ele>893</ele>
        <time>2021-08-10T12:01:52.625Z</time>
      </trkpt>
      <trkpt lat="46.91885" lon="8.58521">
        <ele>893</ele>
        <time>2021-08-10T12:01:53.625Z</time>
      </trkpt>
      <trkpt lat="46.91885" lon="8.5852">
        <ele>893</ele>
        <time>2021-08-10T12:01:54.626Z</time>
      </trkpt>
      <trkpt lat="46.91886" lon="8.58519">
        <ele>891</ele>
        <time>2021-08-10T12:01:55.627Z</time>
      </trkpt>
      <trkpt lat="46.91886" lon="8.58519">
        <ele>891</ele>
        <time>2021-08-10T12:01:56.627Z</time>
      </trkpt>
      <trkpt lat="46.91886" lon="8.58519">
        <ele>891</ele>
        <time>2021-08-10T12:01:57.627Z</time>
      </trkpt>
      <trkpt lat="46.91886" lon="8.58519">
        <ele>890</ele>
        <time>2021-08-10T12:01:58.626Z</time>
      </trkpt>
      <trkpt lat="46.91885" lon="8.58519">
        <ele>890</ele>
        <time>2021-08-10T12:01:59.626Z</time>
      </trkpt>
      <trkpt lat="46.91885" lon="8.5852">
        <ele>891</ele>
        <time>2021-08-10T12:02:00.626Z</time>
      </trkpt>
      <trkpt lat="46.91885" lon="8.5852">
        <ele>891</ele>
        <time>2021-08-10T12:02:01.627Z</time>
      </trkpt>
      <trkpt lat="46.91885" lon="8.58519">
        <ele>894</ele>
        <time>2021-08-10T12:02:02.628Z</time>
      </trkpt>
      <trkpt lat="46.91884" lon="8.58519">
        <ele>893</ele>
        <time>2021-08-10T12:02:03.627Z</time>
      </trkpt>
      <trkpt lat="46.91884" lon="8.58518">
        <ele>893</ele>
        <time>2021-08-10T12:02:04.628Z</time>
      </trkpt>
      <trkpt lat="46.91884" lon="8.58518">
        <ele>893</ele>
        <time>2021-08-10T12:02:05.628Z</time>
      </trkpt>
      <trkpt lat="46.91885" lon="8.58518">
        <ele>893</ele>
        <time>2021-08-10T12:02:06.627Z</time>
      </trkpt>
      <trkpt lat="46.91886" lon="8.5852">
        <ele>891</ele>
        <time>2021-08-10T12:02:07.628Z</time>
      </trkpt>
      <trkpt lat="46.91886" lon="8.58519">
        <ele>891</ele>
        <time>2021-08-10T12:02:08.629Z</time>
      </trkpt>
      <trkpt lat="46.91887" lon="8.58519">
        <ele>891</ele>
        <time>2021-08-10T12:02:09.629Z</time>
      </trkpt>
      <trkpt lat="46.91887" lon="8.58519">
        <ele>890</ele>
        <time>2021-08-10T12:02:10.629Z</time>
      </trkpt>
      <trkpt lat="46.91885" lon="8.5852">
        <ele>890</ele>
        <time>2021-08-10T12:02:11.629Z</time>
      </trkpt>
      <trkpt lat="46.91885" lon="8.5852">
        <ele>890</ele>
        <time>2021-08-10T12:02:12.630Z</time>
      </trkpt>
      <trkpt lat="46.91885" lon="8.5852">
        <ele>890</ele>
        <time>2021-08-10T12:02:13.629Z</time>
      </trkpt>
      <trkpt lat="46.91885" lon="8.5852">
        <ele>890</ele>
        <time>2021-08-10T12:02:14.630Z</time>
      </trkpt>
      <trkpt lat="46.91886" lon="8.5852">
        <ele>890</ele>
        <time>2021-08-10T12:02:15.629Z</time>
      </trkpt>
      <trkpt lat="46.91884" lon="8.58519">
        <ele>890</ele>
        <time>2021-08-10T12:02:16.630Z</time>
      </trkpt>
      <trkpt lat="46.91883" lon="8.58518">
        <ele>889</ele>
        <time>2021-08-10T12:02:17.630Z</time>
      </trkpt>
      <trkpt lat="46.91884" lon="8.58517">
        <ele>889</ele>
        <time>2021-08-10T12:02:18.629Z</time>
      </trkpt>
      <trkpt lat="46.91884" lon="8.58516">
        <ele>889</ele>
        <time>2021-08-10T12:02:19.629Z</time>
      </trkpt>
      <trkpt lat="46.91884" lon="8.58515">
        <ele>889</ele>
        <time>2021-08-10T12:02:20.629Z</time>
      </trkpt>
      <trkpt lat="46.91885" lon="8.58515">
        <ele>886</ele>
        <time>2021-08-10T12:02:21.630Z</time>
      </trkpt>
      <trkpt lat="46.91884" lon="8.58515">
        <ele>886</ele>
        <time>2021-08-10T12:02:23.633Z</time>
      </trkpt>
      <trkpt lat="46.91884" lon="8.58514">
        <ele>886</ele>
        <time>2021-08-10T12:02:24.633Z</time>
      </trkpt>
      <trkpt lat="46.91884" lon="8.58514">
        <ele>886</ele>
        <time>2021-08-10T12:02:25.633Z</time>
      </trkpt>
      <trkpt lat="46.91885" lon="8.58513">
        <ele>886</ele>
        <time>2021-08-10T12:02:26.632Z</time>
      </trkpt>
      <trkpt lat="46.91885" lon="8.58512">
        <ele>886</ele>
        <time>2021-08-10T12:02:27.633Z</time>
      </trkpt>
      <trkpt lat="46.91885" lon="8.58513">
        <ele>886</ele>
        <time>2021-08-10T12:02:28.633Z</time>
      </trkpt>
      <trkpt lat="46.91885" lon="8.58513">
        <ele>886</ele>
        <time>2021-08-10T12:02:29.632Z</time>
      </trkpt>
      <trkpt lat="46.91886" lon="8.58513">
        <ele>886</ele>
        <time>2021-08-10T12:02:30.633Z</time>
      </trkpt>
      <trkpt lat="46.91886" lon="8.58513">
        <ele>886</ele>
        <time>2021-08-10T12:02:31.633Z</time>
      </trkpt>
      <trkpt lat="46.91885" lon="8.58518">
        <ele>889</ele>
        <time>2021-08-10T12:02:32.632Z</time>
      </trkpt>
      <trkpt lat="46.91885" lon="8.58518">
        <ele>889</ele>
        <time>2021-08-10T12:02:33.632Z</time>
      </trkpt>
      <trkpt lat="46.91885" lon="8.58518">
        <ele>890</ele>
        <time>2021-08-10T12:02:34.632Z</time>
      </trkpt>
      <trkpt lat="46.91886" lon="8.58517">
        <ele>887</ele>
        <time>2021-08-10T12:02:35.633Z</time>
      </trkpt>
      <trkpt lat="46.91886" lon="8.58517">
        <ele>887</ele>
        <time>2021-08-10T12:02:36.633Z</time>
      </trkpt>
      <trkpt lat="46.91886" lon="8.58517">
        <ele>887</ele>
        <time>2021-08-10T12:02:37.633Z</time>
      </trkpt>
      <trkpt lat="46.91886" lon="8.58518">
        <ele>887</ele>
        <time>2021-08-10T12:02:38.632Z</time>
      </trkpt>
      <trkpt lat="46.91886" lon="8.58517">
        <ele>886</ele>
        <time>2021-08-10T12:02:39.632Z</time>
      </trkpt>
      <trkpt lat="46.91887" lon="8.58515">
        <ele>884</ele>
        <time>2021-08-10T12:02:40.633Z</time>
      </trkpt>
      <trkpt lat="46.91887" lon="8.58515">
        <ele>884</ele>
        <time>2021-08-10T12:02:41.633Z</time>
      </trkpt>
      <trkpt lat="46.91887" lon="8.58514">
        <ele>884</ele>
        <time>2021-08-10T12:02:42.632Z</time>
      </trkpt>
      <trkpt lat="46.91886" lon="8.58517">
        <ele>888</ele>
        <time>2021-08-10T12:02:43.633Z</time>
      </trkpt>
      <trkpt lat="46.91886" lon="8.58517">
        <ele>888</ele>
        <time>2021-08-10T12:02:44.634Z</time>
      </trkpt>
      <trkpt lat="46.91887" lon="8.58517">
        <ele>890</ele>
        <time>2021-08-10T12:02:45.635Z</time>
      </trkpt>
      <trkpt lat="46.91887" lon="8.58517">
        <ele>890</ele>
        <time>2021-08-10T12:02:46.635Z</time>
      </trkpt>
      <trkpt lat="46.91887" lon="8.58516">
        <ele>888</ele>
        <time>2021-08-10T12:02:47.635Z</time>
      </trkpt>
      <trkpt lat="46.91887" lon="8.58516">
        <ele>888</ele>
        <time>2021-08-10T12:02:48.635Z</time>
      </trkpt>
      <trkpt lat="46.91887" lon="8.58516">
        <ele>888</ele>
        <time>2021-08-10T12:02:49.634Z</time>
      </trkpt>
      <trkpt lat="46.91886" lon="8.58517">
        <ele>890</ele>
        <time>2021-08-10T12:02:50.635Z</time>
      </trkpt>
      <trkpt lat="46.91886" lon="8.58518">
        <ele>890</ele>
        <time>2021-08-10T12:02:51.635Z</time>
      </trkpt>
      <trkpt lat="46.91886" lon="8.58518">
        <ele>891</ele>
        <time>2021-08-10T12:02:52.634Z</time>
      </trkpt>
      <trkpt lat="46.91885" lon="8.58516">
        <ele>888</ele>
        <time>2021-08-10T12:02:53.635Z</time>
      </trkpt>
      <trkpt lat="46.91885" lon="8.58517">
        <ele>888</ele>
        <time>2021-08-10T12:02:54.635Z</time>
      </trkpt>
      <trkpt lat="46.91885" lon="8.58517">
        <ele>889</ele>
        <time>2021-08-10T12:02:55.635Z</time>
      </trkpt>
      <trkpt lat="46.91885" lon="8.58517">
        <ele>889</ele>
        <time>2021-08-10T12:02:56.634Z</time>
      </trkpt>
      <trkpt lat="46.91885" lon="8.58517">
        <ele>889</ele>
        <time>2021-08-10T12:02:57.634Z</time>
      </trkpt>
      <trkpt lat="46.91888" lon="8.58517">
        <ele>890</ele>
        <time>2021-08-10T12:03:01.635Z</time>
      </trkpt>
      <trkpt lat="46.91889" lon="8.58517">
        <ele>890</ele>
        <time>2021-08-10T12:03:02.635Z</time>
      </trkpt>
      <trkpt lat="46.91888" lon="8.58517">
        <ele>890</ele>
        <time>2021-08-10T12:03:03.635Z</time>
      </trkpt>
      <trkpt lat="46.91888" lon="8.58517">
        <ele>890</ele>
        <time>2021-08-10T12:03:04.635Z</time>
      </trkpt>
      <trkpt lat="46.91888" lon="8.58517">
        <ele>890</ele>
        <time>2021-08-10T12:03:05.634Z</time>
      </trkpt>
      <trkpt lat="46.91888" lon="8.58517">
        <ele>890</ele>
        <time>2021-08-10T12:03:06.635Z</time>
      </trkpt>
      <trkpt lat="46.91888" lon="8.58517">
        <ele>890</ele>
        <time>2021-08-10T12:03:07.635Z</time>
      </trkpt>
      <trkpt lat="46.91888" lon="8.58517">
        <ele>891</ele>
        <time>2021-08-10T12:03:08.634Z</time>
      </trkpt>
      <trkpt lat="46.91888" lon="8.58517">
        <ele>891</ele>
        <time>2021-08-10T12:03:09.634Z</time>
      </trkpt>
      <trkpt lat="46.91889" lon="8.58517">
        <ele>891</ele>
        <time>2021-08-10T12:03:10.635Z</time>
      </trkpt>
      <trkpt lat="46.9189" lon="8.58517">
        <ele>891</ele>
        <time>2021-08-10T12:03:11.635Z</time>
      </trkpt>
      <trkpt lat="46.91891" lon="8.58517">
        <ele>891</ele>
        <time>2021-08-10T12:03:12.635Z</time>
      </trkpt>
      <trkpt lat="46.91891" lon="8.58516">
        <ele>891</ele>
        <time>2021-08-10T12:03:13.634Z</time>
      </trkpt>
      <trkpt lat="46.91891" lon="8.58516">
        <ele>890</ele>
        <time>2021-08-10T12:03:14.635Z</time>
      </trkpt>
      <trkpt lat="46.91891" lon="8.58516">
        <ele>890</ele>
        <time>2021-08-10T12:03:15.634Z</time>
      </trkpt>
      <trkpt lat="46.9189" lon="8.58516">
        <ele>889</ele>
        <time>2021-08-10T12:03:16.637Z</time>
      </trkpt>
      <trkpt lat="46.9189" lon="8.58516">
        <ele>889</ele>
        <time>2021-08-10T12:03:17.637Z</time>
      </trkpt>
      <trkpt lat="46.91889" lon="8.58516">
        <ele>889</ele>
        <time>2021-08-10T12:03:18.636Z</time>
      </trkpt>
      <trkpt lat="46.91888" lon="8.58517">
        <ele>889</ele>
        <time>2021-08-10T12:03:19.637Z</time>
      </trkpt>
      <trkpt lat="46.91888" lon="8.58517">
        <ele>889</ele>
        <time>2021-08-10T12:03:20.636Z</time>
      </trkpt>
      <trkpt lat="46.91888" lon="8.58518">
        <ele>889</ele>
        <time>2021-08-10T12:03:21.637Z</time>
      </trkpt>
      <trkpt lat="46.91888" lon="8.58518">
        <ele>889</ele>
        <time>2021-08-10T12:03:22.637Z</time>
      </trkpt>
      <trkpt lat="46.91888" lon="8.5852">
        <ele>892</ele>
        <time>2021-08-10T12:03:23.638Z</time>
      </trkpt>
      <trkpt lat="46.91887" lon="8.58518">
        <ele>893</ele>
        <time>2021-08-10T12:03:24.638Z</time>
      </trkpt>
      <trkpt lat="46.91887" lon="8.58519">
        <ele>893</ele>
        <time>2021-08-10T12:03:25.638Z</time>
      </trkpt>
      <trkpt lat="46.91887" lon="8.58519">
        <ele>893</ele>
        <time>2021-08-10T12:03:26.637Z</time>
      </trkpt>
      <trkpt lat="46.91886" lon="8.58519">
        <ele>892</ele>
        <time>2021-08-10T12:03:27.638Z</time>
      </trkpt>
      <trkpt lat="46.91885" lon="8.5852">
        <ele>892</ele>
        <time>2021-08-10T12:03:28.638Z</time>
      </trkpt>
      <trkpt lat="46.91886" lon="8.5852">
        <ele>892</ele>
        <time>2021-08-10T12:03:29.637Z</time>
      </trkpt>
      <trkpt lat="46.91886" lon="8.5852">
        <ele>892</ele>
        <time>2021-08-10T12:03:30.638Z</time>
      </trkpt>
      <trkpt lat="46.91886" lon="8.5852">
        <ele>892</ele>
        <time>2021-08-10T12:03:31.637Z</time>
      </trkpt>
      <trkpt lat="46.91887" lon="8.58521">
        <ele>892</ele>
        <time>2021-08-10T12:03:32.637Z</time>
      </trkpt>
      <trkpt lat="46.91887" lon="8.5852">
        <ele>892</ele>
        <time>2021-08-10T12:03:33.637Z</time>
      </trkpt>
      <trkpt lat="46.91887" lon="8.58518">
        <ele>889</ele>
        <time>2021-08-10T12:03:34.639Z</time>
      </trkpt>
      <trkpt lat="46.91887" lon="8.58518">
        <ele>889</ele>
        <time>2021-08-10T12:03:35.640Z</time>
      </trkpt>
      <trkpt lat="46.91886" lon="8.58515">
        <ele>893</ele>
        <time>2021-08-10T12:03:36.640Z</time>
      </trkpt>
      <trkpt lat="46.91886" lon="8.58515">
        <ele>894</ele>
        <time>2021-08-10T12:03:37.639Z</time>
      </trkpt>
      <trkpt lat="46.91886" lon="8.58515">
        <ele>894</ele>
        <time>2021-08-10T12:03:38.640Z</time>
      </trkpt>
      <trkpt lat="46.91886" lon="8.58515">
        <ele>894</ele>
        <time>2021-08-10T12:03:39.639Z</time>
      </trkpt>
      <trkpt lat="46.91886" lon="8.58515">
        <ele>895</ele>
        <time>2021-08-10T12:03:40.639Z</time>
      </trkpt>
      <trkpt lat="46.91886" lon="8.58515">
        <ele>895</ele>
        <time>2021-08-10T12:03:41.639Z</time>
      </trkpt>
      <trkpt lat="46.91886" lon="8.58514">
        <ele>894</ele>
        <time>2021-08-10T12:03:42.640Z</time>
      </trkpt>
      <trkpt lat="46.91886" lon="8.58514">
        <ele>894</ele>
        <time>2021-08-10T12:03:43.639Z</time>
      </trkpt>
      <trkpt lat="46.91885" lon="8.58514">
        <ele>890</ele>
        <time>2021-08-10T12:03:44.641Z</time>
      </trkpt>
      <trkpt lat="46.91885" lon="8.58515">
        <ele>890</ele>
        <time>2021-08-10T12:03:45.641Z</time>
      </trkpt>
      <trkpt lat="46.91885" lon="8.58515">
        <ele>890</ele>
        <time>2021-08-10T12:03:46.640Z</time>
      </trkpt>
      <trkpt lat="46.91884" lon="8.58515">
        <ele>887</ele>
        <time>2021-08-10T12:03:47.640Z</time>
      </trkpt>
      <trkpt lat="46.91884" lon="8.58516">
        <ele>887</ele>
        <time>2021-08-10T12:03:48.640Z</time>
      </trkpt>
      <trkpt lat="46.91884" lon="8.58516">
        <ele>887</ele>
        <time>2021-08-10T12:03:49.640Z</time>
      </trkpt>
      <trkpt lat="46.91885" lon="8.58516">
        <ele>887</ele>
        <time>2021-08-10T12:03:50.640Z</time>
      </trkpt>
      <trkpt lat="46.91885" lon="8.58516">
        <ele>887</ele>
        <time>2021-08-10T12:03:51.640Z</time>
      </trkpt>
      <trkpt lat="46.91886" lon="8.58514">
        <ele>892</ele>
        <time>2021-08-10T12:03:52.640Z</time>
      </trkpt>
      <trkpt lat="46.91886" lon="8.58514">
        <ele>892</ele>
        <time>2021-08-10T12:03:53.640Z</time>
      </trkpt>
      <trkpt lat="46.91886" lon="8.58514">
        <ele>892</ele>
        <time>2021-08-10T12:03:54.641Z</time>
      </trkpt>
      <trkpt lat="46.91886" lon="8.58514">
        <ele>890</ele>
        <time>2021-08-10T12:03:55.642Z</time>
      </trkpt>
      <trkpt lat="46.91886" lon="8.58514">
        <ele>890</ele>
        <time>2021-08-10T12:03:56.642Z</time>
      </trkpt>
      <trkpt lat="46.91886" lon="8.58514">
        <ele>890</ele>
        <time>2021-08-10T12:03:57.641Z</time>
      </trkpt>
      <trkpt lat="46.91884" lon="8.58515">
        <ele>894</ele>
        <time>2021-08-10T12:03:58.642Z</time>
      </trkpt>
      <trkpt lat="46.91884" lon="8.58515">
        <ele>893</ele>
        <time>2021-08-10T12:03:59.641Z</time>
      </trkpt>
      <trkpt lat="46.91884" lon="8.58514">
        <ele>893</ele>
        <time>2021-08-10T12:04:00.642Z</time>
      </trkpt>
      <trkpt lat="46.91884" lon="8.58514">
        <ele>893</ele>
        <time>2021-08-10T12:04:01.643Z</time>
      </trkpt>
      <trkpt lat="46.91884" lon="8.58515">
        <ele>893</ele>
        <time>2021-08-10T12:04:02.644Z</time>
      </trkpt>
      <trkpt lat="46.91884" lon="8.58513">
        <ele>892</ele>
        <time>2021-08-10T12:04:03.645Z</time>
      </trkpt>
      <trkpt lat="46.91884" lon="8.58513">
        <ele>892</ele>
        <time>2021-08-10T12:04:04.644Z</time>
      </trkpt>
      <trkpt lat="46.91883" lon="8.58515">
        <ele>889</ele>
        <time>2021-08-10T12:04:05.645Z</time>
      </trkpt>
      <trkpt lat="46.91883" lon="8.58516">
        <ele>889</ele>
        <time>2021-08-10T12:04:06.644Z</time>
      </trkpt>
      <trkpt lat="46.91883" lon="8.58516">
        <ele>889</ele>
        <time>2021-08-10T12:04:07.644Z</time>
      </trkpt>
      <trkpt lat="46.91882" lon="8.58513">
        <ele>894</ele>
        <time>2021-08-10T12:04:08.644Z</time>
      </trkpt>
      <trkpt lat="46.91882" lon="8.58512">
        <ele>893</ele>
        <time>2021-08-10T12:04:09.644Z</time>
      </trkpt>
      <trkpt lat="46.91882" lon="8.58513">
        <ele>892</ele>
        <time>2021-08-10T12:04:10.645Z</time>
      </trkpt>
      <trkpt lat="46.91882" lon="8.58513">
        <ele>892</ele>
        <time>2021-08-10T12:04:11.645Z</time>
      </trkpt>
      <trkpt lat="46.91882" lon="8.58514">
        <ele>892</ele>
        <time>2021-08-10T12:04:12.645Z</time>
      </trkpt>
      <trkpt lat="46.91882" lon="8.58513">
        <ele>890</ele>
        <time>2021-08-10T12:04:13.647Z</time>
      </trkpt>
      <trkpt lat="46.91882" lon="8.58513">
        <ele>890</ele>
        <time>2021-08-10T12:04:14.646Z</time>
      </trkpt>
      <trkpt lat="46.91882" lon="8.58513">
        <ele>890</ele>
        <time>2021-08-10T12:04:15.647Z</time>
      </trkpt>
      <trkpt lat="46.91882" lon="8.58513">
        <ele>891</ele>
        <time>2021-08-10T12:04:16.646Z</time>
      </trkpt>
      <trkpt lat="46.91882" lon="8.58512">
        <ele>891</ele>
        <time>2021-08-10T12:04:17.647Z</time>
      </trkpt>
      <trkpt lat="46.91882" lon="8.58512">
        <ele>891</ele>
        <time>2021-08-10T12:04:18.646Z</time>
      </trkpt>
      <trkpt lat="46.91882" lon="8.58512">
        <ele>891</ele>
        <time>2021-08-10T12:04:19.646Z</time>
      </trkpt>
      <trkpt lat="46.91883" lon="8.58512">
        <ele>892</ele>
        <time>2021-08-10T12:04:20.646Z</time>
      </trkpt>
      <trkpt lat="46.91883" lon="8.58515">
        <ele>891</ele>
        <time>2021-08-10T12:04:21.646Z</time>
      </trkpt>
      <trkpt lat="46.91884" lon="8.58516">
        <ele>889</ele>
        <time>2021-08-10T12:04:22.647Z</time>
      </trkpt>
      <trkpt lat="46.91884" lon="8.58516">
        <ele>890</ele>
        <time>2021-08-10T12:04:23.647Z</time>
      </trkpt>
      <trkpt lat="46.91884" lon="8.58517">
        <ele>890</ele>
        <time>2021-08-10T12:04:24.646Z</time>
      </trkpt>
      <trkpt lat="46.91883" lon="8.58517">
        <ele>891</ele>
        <time>2021-08-10T12:04:25.647Z</time>
      </trkpt>
      <trkpt lat="46.91883" lon="8.58517">
        <ele>891</ele>
        <time>2021-08-10T12:04:26.648Z</time>
      </trkpt>
      <trkpt lat="46.91883" lon="8.58517">
        <ele>891</ele>
        <time>2021-08-10T12:04:27.648Z</time>
      </trkpt>
      <trkpt lat="46.91884" lon="8.58517">
        <ele>891</ele>
        <time>2021-08-10T12:04:28.647Z</time>
      </trkpt>
      <trkpt lat="46.91884" lon="8.58518">
        <ele>885</ele>
        <time>2021-08-10T12:04:29.647Z</time>
      </trkpt>
      <trkpt lat="46.91884" lon="8.58518">
        <ele>885</ele>
        <time>2021-08-10T12:04:30.647Z</time>
      </trkpt>
      <trkpt lat="46.91885" lon="8.58517">
        <ele>889</ele>
        <time>2021-08-10T12:04:31.647Z</time>
      </trkpt>
      <trkpt lat="46.91885" lon="8.58517">
        <ele>889</ele>
        <time>2021-08-10T12:04:32.648Z</time>
      </trkpt>
      <trkpt lat="46.91885" lon="8.58517">
        <ele>889</ele>
        <time>2021-08-10T12:04:33.648Z</time>
      </trkpt>
      <trkpt lat="46.91885" lon="8.58517">
        <ele>889</ele>
        <time>2021-08-10T12:04:34.648Z</time>
      </trkpt>
      <trkpt lat="46.91885" lon="8.58516">
        <ele>889</ele>
        <time>2021-08-10T12:04:35.648Z</time>
      </trkpt>
      <trkpt lat="46.91885" lon="8.58516">
        <ele>889</ele>
        <time>2021-08-10T12:04:36.647Z</time>
      </trkpt>
      <trkpt lat="46.91885" lon="8.58516">
        <ele>889</ele>
        <time>2021-08-10T12:04:37.649Z</time>
      </trkpt>
      <trkpt lat="46.91885" lon="8.58516">
        <ele>889</ele>
        <time>2021-08-10T12:04:38.648Z</time>
      </trkpt>
      <trkpt lat="46.91885" lon="8.58516">
        <ele>889</ele>
        <time>2021-08-10T12:04:39.648Z</time>
      </trkpt>
      <trkpt lat="46.91886" lon="8.58516">
        <ele>889</ele>
        <time>2021-08-10T12:04:40.648Z</time>
      </trkpt>
      <trkpt lat="46.91886" lon="8.58516">
        <ele>889</ele>
        <time>2021-08-10T12:04:41.649Z</time>
      </trkpt>
      <trkpt lat="46.91886" lon="8.58516">
        <ele>889</ele>
        <time>2021-08-10T12:04:42.648Z</time>
      </trkpt>
      <trkpt lat="46.91886" lon="8.58515">
        <ele>889</ele>
        <time>2021-08-10T12:04:43.648Z</time>
      </trkpt>
      <trkpt lat="46.91885" lon="8.58515">
        <ele>890</ele>
        <time>2021-08-10T12:04:44.649Z</time>
      </trkpt>
      <trkpt lat="46.91885" lon="8.58515">
        <ele>890</ele>
        <time>2021-08-10T12:04:45.648Z</time>
      </trkpt>
      <trkpt lat="46.91885" lon="8.58515">
        <ele>890</ele>
        <time>2021-08-10T12:04:46.648Z</time>
      </trkpt>
      <trkpt lat="46.91885" lon="8.58516">
        <ele>890</ele>
        <time>2021-08-10T12:04:47.648Z</time>
      </trkpt>
      <trkpt lat="46.91885" lon="8.58516">
        <ele>889</ele>
        <time>2021-08-10T12:04:48.649Z</time>
      </trkpt>
      <trkpt lat="46.91885" lon="8.58517">
        <ele>887</ele>
        <time>2021-08-10T12:04:49.650Z</time>
      </trkpt>
      <trkpt lat="46.91885" lon="8.58517">
        <ele>887</ele>
        <time>2021-08-10T12:04:50.649Z</time>
      </trkpt>
      <trkpt lat="46.91884" lon="8.58516">
        <ele>887</ele>
        <time>2021-08-10T12:04:51.651Z</time>
      </trkpt>
      <trkpt lat="46.91884" lon="8.58515">
        <ele>887</ele>
        <time>2021-08-10T12:04:52.650Z</time>
      </trkpt>
      <trkpt lat="46.91883" lon="8.58515">
        <ele>887</ele>
        <time>2021-08-10T12:04:53.651Z</time>
      </trkpt>
      <trkpt lat="46.91884" lon="8.58517">
        <ele>888</ele>
        <time>2021-08-10T12:04:54.651Z</time>
      </trkpt>
      <trkpt lat="46.91884" lon="8.58518">
        <ele>888</ele>
        <time>2021-08-10T12:04:55.650Z</time>
      </trkpt>
      <trkpt lat="46.91884" lon="8.58518">
        <ele>888</ele>
        <time>2021-08-10T12:04:56.650Z</time>
      </trkpt>
      <trkpt lat="46.91884" lon="8.58518">
        <ele>888</ele>
        <time>2021-08-10T12:04:57.651Z</time>
      </trkpt>
      <trkpt lat="46.91884" lon="8.58516">
        <ele>891</ele>
        <time>2021-08-10T12:04:58.652Z</time>
      </trkpt>
      <trkpt lat="46.91884" lon="8.58516">
        <ele>891</ele>
        <time>2021-08-10T12:04:59.651Z</time>
      </trkpt>
      <trkpt lat="46.91883" lon="8.58515">
        <ele>891</ele>
        <time>2021-08-10T12:05:00.652Z</time>
      </trkpt>
      <trkpt lat="46.91883" lon="8.58514">
        <ele>891</ele>
        <time>2021-08-10T12:05:01.652Z</time>
      </trkpt>
      <trkpt lat="46.91884" lon="8.58514">
        <ele>891</ele>
        <time>2021-08-10T12:05:02.652Z</time>
      </trkpt>
      <trkpt lat="46.91885" lon="8.58515">
        <ele>891</ele>
        <time>2021-08-10T12:05:03.652Z</time>
      </trkpt>
      <trkpt lat="46.91885" lon="8.58515">
        <ele>891</ele>
        <time>2021-08-10T12:05:04.653Z</time>
      </trkpt>
      <trkpt lat="46.91885" lon="8.58515">
        <ele>891</ele>
        <time>2021-08-10T12:05:05.652Z</time>
      </trkpt>
      <trkpt lat="46.91885" lon="8.58517">
        <ele>890</ele>
        <time>2021-08-10T12:05:06.653Z</time>
      </trkpt>
      <trkpt lat="46.91885" lon="8.58516">
        <ele>890</ele>
        <time>2021-08-10T12:05:07.653Z</time>
      </trkpt>
      <trkpt lat="46.91883" lon="8.58514">
        <ele>889</ele>
        <time>2021-08-10T12:05:08.652Z</time>
      </trkpt>
      <trkpt lat="46.91883" lon="8.58514">
        <ele>888</ele>
        <time>2021-08-10T12:05:09.653Z</time>
      </trkpt>
      <trkpt lat="46.91883" lon="8.58514">
        <ele>888</ele>
        <time>2021-08-10T12:05:10.652Z</time>
      </trkpt>
      <trkpt lat="46.91883" lon="8.58514">
        <ele>888</ele>
        <time>2021-08-10T12:05:11.653Z</time>
      </trkpt>
      <trkpt lat="46.91883" lon="8.58514">
        <ele>888</ele>
        <time>2021-08-10T12:05:12.653Z</time>
      </trkpt>
      <trkpt lat="46.91883" lon="8.58514">
        <ele>888</ele>
        <time>2021-08-10T12:05:13.652Z</time>
      </trkpt>
      <trkpt lat="46.91883" lon="8.58515">
        <ele>888</ele>
        <time>2021-08-10T12:05:14.652Z</time>
      </trkpt>
      <trkpt lat="46.91883" lon="8.58515">
        <ele>889</ele>
        <time>2021-08-10T12:05:15.652Z</time>
      </trkpt>
      <trkpt lat="46.91883" lon="8.58515">
        <ele>889</ele>
        <time>2021-08-10T12:05:16.653Z</time>
      </trkpt>
      <trkpt lat="46.91884" lon="8.58517">
        <ele>889</ele>
        <time>2021-08-10T12:05:17.654Z</time>
      </trkpt>
      <trkpt lat="46.91884" lon="8.58517">
        <ele>889</ele>
        <time>2021-08-10T12:05:18.654Z</time>
      </trkpt>
      <trkpt lat="46.91885" lon="8.58517">
        <ele>889</ele>
        <time>2021-08-10T12:05:19.653Z</time>
      </trkpt>
      <trkpt lat="46.91884" lon="8.58517">
        <ele>889</ele>
        <time>2021-08-10T12:05:20.654Z</time>
      </trkpt>
      <trkpt lat="46.91884" lon="8.58517">
        <ele>889</ele>
        <time>2021-08-10T12:05:21.653Z</time>
      </trkpt>
      <trkpt lat="46.91885" lon="8.58518">
        <ele>890</ele>
        <time>2021-08-10T12:05:22.654Z</time>
      </trkpt>
      <trkpt lat="46.91885" lon="8.58518">
        <ele>890</ele>
        <time>2021-08-10T12:05:23.654Z</time>
      </trkpt>
      <trkpt lat="46.91884" lon="8.58518">
        <ele>890</ele>
        <time>2021-08-10T12:05:24.654Z</time>
      </trkpt>
      <trkpt lat="46.91884" lon="8.58519">
        <ele>890</ele>
        <time>2021-08-10T12:05:25.654Z</time>
      </trkpt>
      <trkpt lat="46.91884" lon="8.58519">
        <ele>891</ele>
        <time>2021-08-10T12:05:26.655Z</time>
      </trkpt>
      <trkpt lat="46.91884" lon="8.58519">
        <ele>891</ele>
        <time>2021-08-10T12:05:27.654Z</time>
      </trkpt>
      <trkpt lat="46.91884" lon="8.58519">
        <ele>891</ele>
        <time>2021-08-10T12:05:28.655Z</time>
      </trkpt>
      <trkpt lat="46.91885" lon="8.58519">
        <ele>892</ele>
        <time>2021-08-10T12:05:29.655Z</time>
      </trkpt>
      <trkpt lat="46.91886" lon="8.58518">
        <ele>892</ele>
        <time>2021-08-10T12:05:30.656Z</time>
      </trkpt>
      <trkpt lat="46.91886" lon="8.58517">
        <ele>892</ele>
        <time>2021-08-10T12:05:33.692Z</time>
      </trkpt>
      <trkpt lat="46.91886" lon="8.58518">
        <ele>891</ele>
        <time>2021-08-10T12:05:34.694Z</time>
      </trkpt>
      <trkpt lat="46.91886" lon="8.58518">
        <ele>891</ele>
        <time>2021-08-10T12:05:35.694Z</time>
      </trkpt>
      <trkpt lat="46.91886" lon="8.58519">
        <ele>891</ele>
        <time>2021-08-10T12:05:36.694Z</time>
      </trkpt>
      <trkpt lat="46.91885" lon="8.58519">
        <ele>891</ele>
        <time>2021-08-10T12:05:40.711Z</time>
      </trkpt>
      <trkpt lat="46.91884" lon="8.58519">
        <ele>893</ele>
        <time>2021-08-10T12:05:41.712Z</time>
      </trkpt>
      <trkpt lat="46.91884" lon="8.58519">
        <ele>894</ele>
        <time>2021-08-10T12:05:42.711Z</time>
      </trkpt>
      <trkpt lat="46.91884" lon="8.58519">
        <ele>894</ele>
        <time>2021-08-10T12:05:48.800Z</time>
      </trkpt>
      <trkpt lat="46.91885" lon="8.58518">
        <ele>893</ele>
        <time>2021-08-10T12:05:49.801Z</time>
      </trkpt>
      <trkpt lat="46.91885" lon="8.58518">
        <ele>893</ele>
        <time>2021-08-10T12:05:59.736Z</time>
      </trkpt>
      <trkpt lat="46.91885" lon="8.58517">
        <ele>892</ele>
        <time>2021-08-10T12:06:00.735Z</time>
      </trkpt>
      <trkpt lat="46.91885" lon="8.58517">
        <ele>892</ele>
        <time>2021-08-10T12:06:13.564Z</time>
      </trkpt>
      <trkpt lat="46.91885" lon="8.58516">
        <ele>892</ele>
        <time>2021-08-10T12:06:14.563Z</time>
      </trkpt>
      <trkpt lat="46.91885" lon="8.58516">
        <ele>891</ele>
        <time>2021-08-10T12:06:15.564Z</time>
      </trkpt>
      <trkpt lat="46.91885" lon="8.58516">
        <ele>891</ele>
        <time>2021-08-10T12:06:16.563Z</time>
      </trkpt>
      <trkpt lat="46.91885" lon="8.58518">
        <ele>891</ele>
        <time>2021-08-10T12:06:17.563Z</time>
      </trkpt>
      <trkpt lat="46.91885" lon="8.58518">
        <ele>891</ele>
        <time>2021-08-10T12:06:18.563Z</time>
      </trkpt>
      <trkpt lat="46.91885" lon="8.58518">
        <ele>890</ele>
        <time>2021-08-10T12:06:19.563Z</time>
      </trkpt>
      <trkpt lat="46.91885" lon="8.58518">
        <ele>890</ele>
        <time>2021-08-10T12:06:25.673Z</time>
      </trkpt>
      <trkpt lat="46.91885" lon="8.58518">
        <ele>889</ele>
        <time>2021-08-10T12:06:26.673Z</time>
      </trkpt>
      <trkpt lat="46.91885" lon="8.58518">
        <ele>888</ele>
        <time>2021-08-10T12:06:36.440Z</time>
      </trkpt>
      <trkpt lat="46.91884" lon="8.58517">
        <ele>884</ele>
        <time>2021-08-10T12:06:37.441Z</time>
      </trkpt>
      <trkpt lat="46.91884" lon="8.58517">
        <ele>884</ele>
        <time>2021-08-10T12:06:38.441Z</time>
      </trkpt>
      <trkpt lat="46.91883" lon="8.58517">
        <ele>884</ele>
        <time>2021-08-10T12:06:39.440Z</time>
      </trkpt>
      <trkpt lat="46.91884" lon="8.58518">
        <ele>886</ele>
        <time>2021-08-10T12:06:40.441Z</time>
      </trkpt>
      <trkpt lat="46.91884" lon="8.58519">
        <ele>886</ele>
        <time>2021-08-10T12:06:41.441Z</time>
      </trkpt>
      <trkpt lat="46.91884" lon="8.58519">
        <ele>886</ele>
        <time>2021-08-10T12:06:42.440Z</time>
      </trkpt>
      <trkpt lat="46.91883" lon="8.5852">
        <ele>887</ele>
        <time>2021-08-10T12:06:43.440Z</time>
      </trkpt>
      <trkpt lat="46.91883" lon="8.5852">
        <ele>887</ele>
        <time>2021-08-10T12:06:44.440Z</time>
      </trkpt>
      <trkpt lat="46.91882" lon="8.5852">
        <ele>886</ele>
        <time>2021-08-10T12:06:49.587Z</time>
      </trkpt>
      <trkpt lat="46.91882" lon="8.5852">
        <ele>888</ele>
        <time>2021-08-10T12:06:50.588Z</time>
      </trkpt>
      <trkpt lat="46.91885" lon="8.58519">
        <ele>887</ele>
        <time>2021-08-10T12:06:51.588Z</time>
      </trkpt>
      <trkpt lat="46.91885" lon="8.58519">
        <ele>887</ele>
        <time>2021-08-10T12:06:52.588Z</time>
      </trkpt>
      <trkpt lat="46.91888" lon="8.58518">
        <ele>890</ele>
        <time>2021-08-10T12:06:53.590Z</time>
      </trkpt>
      <trkpt lat="46.91888" lon="8.58519">
        <ele>890</ele>
        <time>2021-08-10T12:06:54.590Z</time>
      </trkpt>
      <trkpt lat="46.91887" lon="8.58519">
        <ele>890</ele>
        <time>2021-08-10T12:06:55.589Z</time>
      </trkpt>
      <trkpt lat="46.91887" lon="8.58519">
        <ele>890</ele>
        <time>2021-08-10T12:06:56.590Z</time>
      </trkpt>
      <trkpt lat="46.91886" lon="8.5852">
        <ele>890</ele>
        <time>2021-08-10T12:06:57.590Z</time>
      </trkpt>
      <trkpt lat="46.91886" lon="8.58519">
        <ele>890</ele>
        <time>2021-08-10T12:06:58.590Z</time>
      </trkpt>
      <trkpt lat="46.91886" lon="8.58519">
        <ele>890</ele>
        <time>2021-08-10T12:06:59.590Z</time>
      </trkpt>
      <trkpt lat="46.91886" lon="8.58519">
        <ele>890</ele>
        <time>2021-08-10T12:07:00.590Z</time>
      </trkpt>
      <trkpt lat="46.91886" lon="8.58519">
        <ele>890</ele>
        <time>2021-08-10T12:07:01.591Z</time>
      </trkpt>
      <trkpt lat="46.91886" lon="8.58519">
        <ele>890</ele>
        <time>2021-08-10T12:07:02.590Z</time>
      </trkpt>
      <trkpt lat="46.91885" lon="8.5852">
        <ele>889</ele>
        <time>2021-08-10T12:07:03.590Z</time>
      </trkpt>
      <trkpt lat="46.91885" lon="8.58521">
        <ele>889</ele>
        <time>2021-08-10T12:07:04.591Z</time>
      </trkpt>
      <trkpt lat="46.91885" lon="8.58521">
        <ele>889</ele>
        <time>2021-08-10T12:07:05.590Z</time>
      </trkpt>
      <trkpt lat="46.91885" lon="8.58519">
        <ele>887</ele>
        <time>2021-08-10T12:07:06.591Z</time>
      </trkpt>
      <trkpt lat="46.91883" lon="8.58516">
        <ele>885</ele>
        <time>2021-08-10T12:07:07.590Z</time>
      </trkpt>
      <trkpt lat="46.91882" lon="8.58516">
        <ele>885</ele>
        <time>2021-08-10T12:07:08.591Z</time>
      </trkpt>
      <trkpt lat="46.91882" lon="8.58516">
        <ele>884</ele>
        <time>2021-08-10T12:07:09.590Z</time>
      </trkpt>
      <trkpt lat="46.91884" lon="8.58515">
        <ele>882</ele>
        <time>2021-08-10T12:07:10.591Z</time>
      </trkpt>
      <trkpt lat="46.91885" lon="8.58514">
        <ele>882</ele>
        <time>2021-08-10T12:07:11.592Z</time>
      </trkpt>
      <trkpt lat="46.91884" lon="8.58515">
        <ele>882</ele>
        <time>2021-08-10T12:07:12.591Z</time>
      </trkpt>
      <trkpt lat="46.91884" lon="8.58515">
        <ele>881</ele>
        <time>2021-08-10T12:07:13.591Z</time>
      </trkpt>
      <trkpt lat="46.91884" lon="8.58514">
        <ele>881</ele>
        <time>2021-08-10T12:07:14.592Z</time>
      </trkpt>
      <trkpt lat="46.91884" lon="8.58514">
        <ele>881</ele>
        <time>2021-08-10T12:07:15.592Z</time>
      </trkpt>
      <trkpt lat="46.91885" lon="8.58517">
        <ele>888</ele>
        <time>2021-08-10T12:07:16.593Z</time>
      </trkpt>
      <trkpt lat="46.91885" lon="8.58517">
        <ele>888</ele>
        <time>2021-08-10T12:07:17.593Z</time>
      </trkpt>
      <trkpt lat="46.91885" lon="8.58517">
        <ele>889</ele>
        <time>2021-08-10T12:07:18.592Z</time>
      </trkpt>
      <trkpt lat="46.91883" lon="8.5852">
        <ele>886</ele>
        <time>2021-08-10T12:07:19.594Z</time>
      </trkpt>
      <trkpt lat="46.91883" lon="8.58521">
        <ele>886</ele>
        <time>2021-08-10T12:07:20.594Z</time>
      </trkpt>
      <trkpt lat="46.91884" lon="8.5852">
        <ele>885</ele>
        <time>2021-08-10T12:07:21.593Z</time>
      </trkpt>
      <trkpt lat="46.91882" lon="8.58519">
        <ele>885</ele>
        <time>2021-08-10T12:07:22.594Z</time>
      </trkpt>
      <trkpt lat="46.91882" lon="8.58519">
        <ele>885</ele>
        <time>2021-08-10T12:07:23.594Z</time>
      </trkpt>
      <trkpt lat="46.91884" lon="8.58518">
        <ele>884</ele>
        <time>2021-08-10T12:07:24.593Z</time>
      </trkpt>
      <trkpt lat="46.91884" lon="8.58518">
        <ele>884</ele>
        <time>2021-08-10T12:07:25.594Z</time>
      </trkpt>
      <trkpt lat="46.91885" lon="8.58518">
        <ele>884</ele>
        <time>2021-08-10T12:07:26.593Z</time>
      </trkpt>
      <trkpt lat="46.91885" lon="8.58518">
        <ele>883</ele>
        <time>2021-08-10T12:07:27.593Z</time>
      </trkpt>
      <trkpt lat="46.91885" lon="8.58518">
        <ele>883</ele>
        <time>2021-08-10T12:07:29.696Z</time>
      </trkpt>
      <trkpt lat="46.91884" lon="8.58514">
        <ele>888</ele>
        <time>2021-08-10T12:07:30.696Z</time>
      </trkpt>
      <trkpt lat="46.91884" lon="8.58514">
        <ele>888</ele>
        <time>2021-08-10T12:07:31.695Z</time>
      </trkpt>
      <trkpt lat="46.91886" lon="8.58513">
        <ele>895</ele>
        <time>2021-08-10T12:07:32.697Z</time>
      </trkpt>
      <trkpt lat="46.91885" lon="8.58513">
        <ele>895</ele>
        <time>2021-08-10T12:07:33.696Z</time>
      </trkpt>
      <trkpt lat="46.91886" lon="8.58512">
        <ele>899</ele>
        <time>2021-08-10T12:07:34.697Z</time>
      </trkpt>
      <trkpt lat="46.91886" lon="8.58512">
        <ele>899</ele>
        <time>2021-08-10T12:07:35.696Z</time>
      </trkpt>
      <trkpt lat="46.91886" lon="8.58512">
        <ele>900</ele>
        <time>2021-08-10T12:07:36.696Z</time>
      </trkpt>
      <trkpt lat="46.91887" lon="8.58513">
        <ele>900</ele>
        <time>2021-08-10T12:07:37.696Z</time>
      </trkpt>
      <trkpt lat="46.91888" lon="8.58517">
        <ele>898</ele>
        <time>2021-08-10T12:07:38.696Z</time>
      </trkpt>
      <trkpt lat="46.91887" lon="8.58517">
        <ele>897</ele>
        <time>2021-08-10T12:07:39.697Z</time>
      </trkpt>
      <trkpt lat="46.91887" lon="8.58517">
        <ele>897</ele>
        <time>2021-08-10T12:07:40.697Z</time>
      </trkpt>
      <trkpt lat="46.91886" lon="8.58517">
        <ele>896</ele>
        <time>2021-08-10T12:07:41.697Z</time>
      </trkpt>
      <trkpt lat="46.91888" lon="8.58516">
        <ele>898</ele>
        <time>2021-08-10T12:07:42.698Z</time>
      </trkpt>
      <trkpt lat="46.91888" lon="8.58516">
        <ele>899</ele>
        <time>2021-08-10T12:07:43.697Z</time>
      </trkpt>
      <trkpt lat="46.91888" lon="8.58516">
        <ele>899</ele>
        <time>2021-08-10T12:07:44.697Z</time>
      </trkpt>
      <trkpt lat="46.91887" lon="8.58517">
        <ele>893</ele>
        <time>2021-08-10T12:07:45.698Z</time>
      </trkpt>
      <trkpt lat="46.91887" lon="8.58517">
        <ele>893</ele>
        <time>2021-08-10T12:07:46.699Z</time>
      </trkpt>
      <trkpt lat="46.91887" lon="8.5852">
        <ele>888</ele>
        <time>2021-08-10T12:07:47.700Z</time>
      </trkpt>
      <trkpt lat="46.91886" lon="8.5852">
        <ele>886</ele>
        <time>2021-08-10T12:07:48.700Z</time>
      </trkpt>
      <trkpt lat="46.91886" lon="8.58519">
        <ele>886</ele>
        <time>2021-08-10T12:07:49.701Z</time>
      </trkpt>
      <trkpt lat="46.91886" lon="8.58519">
        <ele>886</ele>
        <time>2021-08-10T12:07:50.700Z</time>
      </trkpt>
      <trkpt lat="46.91886" lon="8.58518">
        <ele>886</ele>
        <time>2021-08-10T12:07:51.701Z</time>
      </trkpt>
      <trkpt lat="46.91886" lon="8.58518">
        <ele>887</ele>
        <time>2021-08-10T12:07:52.700Z</time>
      </trkpt>
      <trkpt lat="46.91886" lon="8.58517">
        <ele>889</ele>
        <time>2021-08-10T12:07:53.702Z</time>
      </trkpt>
      <trkpt lat="46.91886" lon="8.58517">
        <ele>889</ele>
        <time>2021-08-10T12:07:54.701Z</time>
      </trkpt>
      <trkpt lat="46.91886" lon="8.58517">
        <ele>889</ele>
        <time>2021-08-10T12:07:55.701Z</time>
      </trkpt>
      <trkpt lat="46.91887" lon="8.58517">
        <ele>889</ele>
        <time>2021-08-10T12:07:57.848Z</time>
      </trkpt>
      <trkpt lat="46.91888" lon="8.58517">
        <ele>889</ele>
        <time>2021-08-10T12:07:58.849Z</time>
      </trkpt>
      <trkpt lat="46.91889" lon="8.58517">
        <ele>890</ele>
        <time>2021-08-10T12:07:59.848Z</time>
      </trkpt>
      <trkpt lat="46.91889" lon="8.58517">
        <ele>890</ele>
        <time>2021-08-10T12:08:00.848Z</time>
      </trkpt>
      <trkpt lat="46.91887" lon="8.58517">
        <ele>890</ele>
        <time>2021-08-10T12:08:01.851Z</time>
      </trkpt>
      <trkpt lat="46.91887" lon="8.58517">
        <ele>890</ele>
        <time>2021-08-10T12:08:02.850Z</time>
      </trkpt>
      <trkpt lat="46.91887" lon="8.58518">
        <ele>890</ele>
        <time>2021-08-10T12:08:03.850Z</time>
      </trkpt>
      <trkpt lat="46.91887" lon="8.58518">
        <ele>889</ele>
        <time>2021-08-10T12:08:04.850Z</time>
      </trkpt>
      <trkpt lat="46.91887" lon="8.58518">
        <ele>889</ele>
        <time>2021-08-10T12:08:05.850Z</time>
      </trkpt>
      <trkpt lat="46.91888" lon="8.58518">
        <ele>891</ele>
        <time>2021-08-10T12:08:06.851Z</time>
      </trkpt>
      <trkpt lat="46.91888" lon="8.58519">
        <ele>891</ele>
        <time>2021-08-10T12:08:07.851Z</time>
      </trkpt>
      <trkpt lat="46.91889" lon="8.58518">
        <ele>892</ele>
        <time>2021-08-10T12:08:08.851Z</time>
      </trkpt>
      <trkpt lat="46.91889" lon="8.58517">
        <ele>893</ele>
        <time>2021-08-10T12:08:09.851Z</time>
      </trkpt>
      <trkpt lat="46.91888" lon="8.58517">
        <ele>894</ele>
        <time>2021-08-10T12:08:10.850Z</time>
      </trkpt>
      <trkpt lat="46.91889" lon="8.58517">
        <ele>897</ele>
        <time>2021-08-10T12:08:11.851Z</time>
      </trkpt>
      <trkpt lat="46.91889" lon="8.58517">
        <ele>897</ele>
        <time>2021-08-10T12:08:12.850Z</time>
      </trkpt>
      <trkpt lat="46.91889" lon="8.58518">
        <ele>897</ele>
        <time>2021-08-10T12:08:13.850Z</time>
      </trkpt>
      <trkpt lat="46.91888" lon="8.58519">
        <ele>895</ele>
        <time>2021-08-10T12:08:14.851Z</time>
      </trkpt>
      <trkpt lat="46.91887" lon="8.58518">
        <ele>895</ele>
        <time>2021-08-10T12:08:15.851Z</time>
      </trkpt>
      <trkpt lat="46.91888" lon="8.58519">
        <ele>894</ele>
        <time>2021-08-10T12:08:16.851Z</time>
      </trkpt>
      <trkpt lat="46.91888" lon="8.5852">
        <ele>894</ele>
        <time>2021-08-10T12:08:42.951Z</time>
      </trkpt>
      <trkpt lat="46.91889" lon="8.5852">
        <ele>894</ele>
        <time>2021-08-10T12:08:43.950Z</time>
      </trkpt>
      <trkpt lat="46.91889" lon="8.5852">
        <ele>895</ele>
        <time>2021-08-10T12:08:44.950Z</time>
      </trkpt>
      <trkpt lat="46.9189" lon="8.58521">
        <ele>894</ele>
        <time>2021-08-10T12:08:45.951Z</time>
      </trkpt>
      <trkpt lat="46.91888" lon="8.58522">
        <ele>889</ele>
        <time>2021-08-10T12:08:46.953Z</time>
      </trkpt>
      <trkpt lat="46.91888" lon="8.58522">
        <ele>889</ele>
        <time>2021-08-10T12:08:47.952Z</time>
      </trkpt>
      <trkpt lat="46.91888" lon="8.58522">
        <ele>889</ele>
        <time>2021-08-10T12:08:48.952Z</time>
      </trkpt>
      <trkpt lat="46.91888" lon="8.58522">
        <ele>888</ele>
        <time>2021-08-10T12:08:49.952Z</time>
      </trkpt>
      <trkpt lat="46.91888" lon="8.58523">
        <ele>888</ele>
        <time>2021-08-10T12:08:50.952Z</time>
      </trkpt>
      <trkpt lat="46.91887" lon="8.58524">
        <ele>887</ele>
        <time>2021-08-10T12:08:51.952Z</time>
      </trkpt>
      <trkpt lat="46.91886" lon="8.58525">
        <ele>887</ele>
        <time>2021-08-10T12:08:52.952Z</time>
      </trkpt>
      <trkpt lat="46.91885" lon="8.58525">
        <ele>887</ele>
        <time>2021-08-10T12:08:53.953Z</time>
      </trkpt>
      <trkpt lat="46.91885" lon="8.58525">
        <ele>886</ele>
        <time>2021-08-10T12:08:54.952Z</time>
      </trkpt>
      <trkpt lat="46.91885" lon="8.58524">
        <ele>886</ele>
        <time>2021-08-10T12:08:55.952Z</time>
      </trkpt>
      <trkpt lat="46.91886" lon="8.58522">
        <ele>887</ele>
        <time>2021-08-10T12:08:56.952Z</time>
      </trkpt>
      <trkpt lat="46.91885" lon="8.58521">
        <ele>887</ele>
        <time>2021-08-10T12:08:57.952Z</time>
      </trkpt>
      <trkpt lat="46.91885" lon="8.5852">
        <ele>887</ele>
        <time>2021-08-10T12:08:58.953Z</time>
      </trkpt>
      <trkpt lat="46.91885" lon="8.58519">
        <ele>888</ele>
        <time>2021-08-10T12:08:59.952Z</time>
      </trkpt>
      <trkpt lat="46.91884" lon="8.58519">
        <ele>888</ele>
        <time>2021-08-10T12:09:00.952Z</time>
      </trkpt>
      <trkpt lat="46.91884" lon="8.58521">
        <ele>888</ele>
        <time>2021-08-10T12:09:01.952Z</time>
      </trkpt>
      <trkpt lat="46.91884" lon="8.58522">
        <ele>888</ele>
        <time>2021-08-10T12:09:02.952Z</time>
      </trkpt>
      <trkpt lat="46.91884" lon="8.58524">
        <ele>889</ele>
        <time>2021-08-10T12:09:03.952Z</time>
      </trkpt>
      <trkpt lat="46.91885" lon="8.58526">
        <ele>889</ele>
        <time>2021-08-10T12:09:04.952Z</time>
      </trkpt>
      <trkpt lat="46.91885" lon="8.58526">
        <ele>889</ele>
        <time>2021-08-10T12:09:05.952Z</time>
      </trkpt>
      <trkpt lat="46.91886" lon="8.58526">
        <ele>890</ele>
        <time>2021-08-10T12:09:06.952Z</time>
      </trkpt>
      <trkpt lat="46.91885" lon="8.58523">
        <ele>889</ele>
        <time>2021-08-10T12:09:07.952Z</time>
      </trkpt>
      <trkpt lat="46.91885" lon="8.58522">
        <ele>888</ele>
        <time>2021-08-10T12:09:08.952Z</time>
      </trkpt>
      <trkpt lat="46.91885" lon="8.58522">
        <ele>886</ele>
        <time>2021-08-10T12:09:09.954Z</time>
      </trkpt>
      <trkpt lat="46.91885" lon="8.58522">
        <ele>885</ele>
        <time>2021-08-10T12:09:10.954Z</time>
      </trkpt>
      <trkpt lat="46.91884" lon="8.58522">
        <ele>885</ele>
        <time>2021-08-10T12:09:11.953Z</time>
      </trkpt>
      <trkpt lat="46.91884" lon="8.58522">
        <ele>885</ele>
        <time>2021-08-10T12:09:12.954Z</time>
      </trkpt>
      <trkpt lat="46.91883" lon="8.58521">
        <ele>885</ele>
        <time>2021-08-10T12:09:13.953Z</time>
      </trkpt>
      <trkpt lat="46.91882" lon="8.5852">
        <ele>886</ele>
        <time>2021-08-10T12:09:14.953Z</time>
      </trkpt>
      <trkpt lat="46.91882" lon="8.58519">
        <ele>886</ele>
        <time>2021-08-10T12:09:15.954Z</time>
      </trkpt>
      <trkpt lat="46.91881" lon="8.58518">
        <ele>885</ele>
        <time>2021-08-10T12:09:16.954Z</time>
      </trkpt>
      <trkpt lat="46.9188" lon="8.58517">
        <ele>885</ele>
        <time>2021-08-10T12:09:17.953Z</time>
      </trkpt>
      <trkpt lat="46.9188" lon="8.58516">
        <ele>885</ele>
        <time>2021-08-10T12:09:18.953Z</time>
      </trkpt>
      <trkpt lat="46.91879" lon="8.58515">
        <ele>885</ele>
        <time>2021-08-10T12:09:19.954Z</time>
      </trkpt>
      <trkpt lat="46.91879" lon="8.58513">
        <ele>885</ele>
        <time>2021-08-10T12:09:20.954Z</time>
      </trkpt>
      <trkpt lat="46.91879" lon="8.58512">
        <ele>885</ele>
        <time>2021-08-10T12:09:21.954Z</time>
      </trkpt>
      <trkpt lat="46.91878" lon="8.58511">
        <ele>885</ele>
        <time>2021-08-10T12:09:22.953Z</time>
      </trkpt>
      <trkpt lat="46.91877" lon="8.58509">
        <ele>885</ele>
        <time>2021-08-10T12:09:23.954Z</time>
      </trkpt>
      <trkpt lat="46.91877" lon="8.58508">
        <ele>885</ele>
        <time>2021-08-10T12:09:24.954Z</time>
      </trkpt>
      <trkpt lat="46.91876" lon="8.58506">
        <ele>885</ele>
        <time>2021-08-10T12:09:25.953Z</time>
      </trkpt>
      <trkpt lat="46.91875" lon="8.58505">
        <ele>885</ele>
        <time>2021-08-10T12:09:26.954Z</time>
      </trkpt>
      <trkpt lat="46.91875" lon="8.58504">
        <ele>885</ele>
        <time>2021-08-10T12:09:27.954Z</time>
      </trkpt>
      <trkpt lat="46.91874" lon="8.58502">
        <ele>884</ele>
        <time>2021-08-10T12:09:28.954Z</time>
      </trkpt>
      <trkpt lat="46.91874" lon="8.58501">
        <ele>884</ele>
        <time>2021-08-10T12:09:29.953Z</time>
      </trkpt>
      <trkpt lat="46.91873" lon="8.585">
        <ele>884</ele>
        <time>2021-08-10T12:09:30.953Z</time>
      </trkpt>
      <trkpt lat="46.91873" lon="8.585">
        <ele>884</ele>
        <time>2021-08-10T12:09:31.954Z</time>
      </trkpt>
      <trkpt lat="46.91873" lon="8.58499">
        <ele>884</ele>
        <time>2021-08-10T12:09:32.953Z</time>
      </trkpt>
      <trkpt lat="46.91872" lon="8.58499">
        <ele>884</ele>
        <time>2021-08-10T12:09:33.954Z</time>
      </trkpt>
      <trkpt lat="46.91872" lon="8.58499">
        <ele>884</ele>
        <time>2021-08-10T12:09:34.954Z</time>
      </trkpt>
      <trkpt lat="46.91871" lon="8.58498">
        <ele>884</ele>
        <time>2021-08-10T12:09:35.953Z</time>
      </trkpt>
      <trkpt lat="46.91871" lon="8.58498">
        <ele>885</ele>
        <time>2021-08-10T12:09:36.954Z</time>
      </trkpt>
      <trkpt lat="46.91872" lon="8.58504">
        <ele>886</ele>
        <time>2021-08-10T12:09:37.955Z</time>
      </trkpt>
      <trkpt lat="46.91871" lon="8.58504">
        <ele>886</ele>
        <time>2021-08-10T12:09:38.955Z</time>
      </trkpt>
      <trkpt lat="46.91871" lon="8.58505">
        <ele>886</ele>
        <time>2021-08-10T12:09:39.954Z</time>
      </trkpt>
      <trkpt lat="46.91872" lon="8.58505">
        <ele>886</ele>
        <time>2021-08-10T12:09:40.954Z</time>
      </trkpt>
      <trkpt lat="46.91872" lon="8.58505">
        <ele>886</ele>
        <time>2021-08-10T12:09:41.954Z</time>
      </trkpt>
      <trkpt lat="46.91872" lon="8.58504">
        <ele>887</ele>
        <time>2021-08-10T12:09:42.954Z</time>
      </trkpt>
      <trkpt lat="46.91872" lon="8.58504">
        <ele>887</ele>
        <time>2021-08-10T12:09:43.955Z</time>
      </trkpt>
      <trkpt lat="46.91871" lon="8.58504">
        <ele>888</ele>
        <time>2021-08-10T12:09:44.954Z</time>
      </trkpt>
      <trkpt lat="46.91871" lon="8.58504">
        <ele>888</ele>
        <time>2021-08-10T12:09:45.954Z</time>
      </trkpt>
      <trkpt lat="46.9187" lon="8.58504">
        <ele>889</ele>
        <time>2021-08-10T12:09:46.954Z</time>
      </trkpt>
      <trkpt lat="46.9187" lon="8.58503">
        <ele>890</ele>
        <time>2021-08-10T12:09:47.954Z</time>
      </trkpt>
      <trkpt lat="46.91869" lon="8.58503">
        <ele>890</ele>
        <time>2021-08-10T12:09:48.954Z</time>
      </trkpt>
      <trkpt lat="46.91869" lon="8.58502">
        <ele>890</ele>
        <time>2021-08-10T12:09:49.954Z</time>
      </trkpt>
      <trkpt lat="46.91868" lon="8.58501">
        <ele>890</ele>
        <time>2021-08-10T12:09:50.954Z</time>
      </trkpt>
      <trkpt lat="46.91867" lon="8.585">
        <ele>891</ele>
        <time>2021-08-10T12:09:51.954Z</time>
      </trkpt>
      <trkpt lat="46.91866" lon="8.585">
        <ele>891</ele>
        <time>2021-08-10T12:09:52.954Z</time>
      </trkpt>
      <trkpt lat="46.91865" lon="8.585">
        <ele>891</ele>
        <time>2021-08-10T12:09:53.954Z</time>
      </trkpt>
      <trkpt lat="46.91864" lon="8.585">
        <ele>891</ele>
        <time>2021-08-10T12:09:54.954Z</time>
      </trkpt>
      <trkpt lat="46.91864" lon="8.58501">
        <ele>891</ele>
        <time>2021-08-10T12:09:55.954Z</time>
      </trkpt>
      <trkpt lat="46.91864" lon="8.58501">
        <ele>892</ele>
        <time>2021-08-10T12:09:56.954Z</time>
      </trkpt>
      <trkpt lat="46.91863" lon="8.58496">
        <ele>892</ele>
        <time>2021-08-10T12:09:57.955Z</time>
      </trkpt>
      <trkpt lat="46.91862" lon="8.58495">
        <ele>892</ele>
        <time>2021-08-10T12:09:58.956Z</time>
      </trkpt>
      <trkpt lat="46.91861" lon="8.58495">
        <ele>892</ele>
        <time>2021-08-10T12:09:59.956Z</time>
      </trkpt>
      <trkpt lat="46.9186" lon="8.58494">
        <ele>892</ele>
        <time>2021-08-10T12:10:00.955Z</time>
      </trkpt>
      <trkpt lat="46.9186" lon="8.58493">
        <ele>893</ele>
        <time>2021-08-10T12:10:01.956Z</time>
      </trkpt>
      <trkpt lat="46.9186" lon="8.58492">
        <ele>893</ele>
        <time>2021-08-10T12:10:02.956Z</time>
      </trkpt>
      <trkpt lat="46.9186" lon="8.58492">
        <ele>893</ele>
        <time>2021-08-10T12:10:03.956Z</time>
      </trkpt>
      <trkpt lat="46.9186" lon="8.58493">
        <ele>894</ele>
        <time>2021-08-10T12:10:04.956Z</time>
      </trkpt>
      <trkpt lat="46.9186" lon="8.58493">
        <ele>894</ele>
        <time>2021-08-10T12:10:05.956Z</time>
      </trkpt>
      <trkpt lat="46.9186" lon="8.58494">
        <ele>894</ele>
        <time>2021-08-10T12:10:06.955Z</time>
      </trkpt>
      <trkpt lat="46.9186" lon="8.58495">
        <ele>894</ele>
        <time>2021-08-10T12:10:07.956Z</time>
      </trkpt>
      <trkpt lat="46.91861" lon="8.58497">
        <ele>894</ele>
        <time>2021-08-10T12:10:08.956Z</time>
      </trkpt>
      <trkpt lat="46.91862" lon="8.58498">
        <ele>894</ele>
        <time>2021-08-10T12:10:09.957Z</time>
      </trkpt>
      <trkpt lat="46.91863" lon="8.58498">
        <ele>894</ele>
        <time>2021-08-10T12:10:10.956Z</time>
      </trkpt>
      <trkpt lat="46.91864" lon="8.58498">
        <ele>894</ele>
        <time>2021-08-10T12:10:11.957Z</time>
      </trkpt>
      <trkpt lat="46.91864" lon="8.58499">
        <ele>894</ele>
        <time>2021-08-10T12:10:12.956Z</time>
      </trkpt>
      <trkpt lat="46.91865" lon="8.58499">
        <ele>894</ele>
        <time>2021-08-10T12:10:13.957Z</time>
      </trkpt>
      <trkpt lat="46.91866" lon="8.58499">
        <ele>894</ele>
        <time>2021-08-10T12:10:14.956Z</time>
      </trkpt>
      <trkpt lat="46.91866" lon="8.58499">
        <ele>894</ele>
        <time>2021-08-10T12:10:15.957Z</time>
      </trkpt>
      <trkpt lat="46.91867" lon="8.58499">
        <ele>894</ele>
        <time>2021-08-10T12:10:16.957Z</time>
      </trkpt>
      <trkpt lat="46.91868" lon="8.58497">
        <ele>894</ele>
        <time>2021-08-10T12:10:17.957Z</time>
      </trkpt>
      <trkpt lat="46.91869" lon="8.58498">
        <ele>894</ele>
        <time>2021-08-10T12:10:25.102Z</time>
      </trkpt>
      <trkpt lat="46.91869" lon="8.58498">
        <ele>894</ele>
        <time>2021-08-10T12:10:26.102Z</time>
      </trkpt>
      <trkpt lat="46.91869" lon="8.58497">
        <ele>894</ele>
        <time>2021-08-10T12:10:27.103Z</time>
      </trkpt>
      <trkpt lat="46.91869" lon="8.58497">
        <ele>894</ele>
        <time>2021-08-10T12:10:28.102Z</time>
      </trkpt>
      <trkpt lat="46.9187" lon="8.58496">
        <ele>894</ele>
        <time>2021-08-10T12:10:29.102Z</time>
      </trkpt>
      <trkpt lat="46.91872" lon="8.58497">
        <ele>894</ele>
        <time>2021-08-10T12:10:30.102Z</time>
      </trkpt>
      <trkpt lat="46.91872" lon="8.58498">
        <ele>893</ele>
        <time>2021-08-10T12:10:31.103Z</time>
      </trkpt>
      <trkpt lat="46.91873" lon="8.58498">
        <ele>893</ele>
        <time>2021-08-10T12:10:32.102Z</time>
      </trkpt>
      <trkpt lat="46.91874" lon="8.58499">
        <ele>893</ele>
        <time>2021-08-10T12:10:33.102Z</time>
      </trkpt>
      <trkpt lat="46.91875" lon="8.58499">
        <ele>892</ele>
        <time>2021-08-10T12:10:34.102Z</time>
      </trkpt>
      <trkpt lat="46.91875" lon="8.58499">
        <ele>892</ele>
        <time>2021-08-10T12:10:35.103Z</time>
      </trkpt>
      <trkpt lat="46.91876" lon="8.58499">
        <ele>892</ele>
        <time>2021-08-10T12:10:36.102Z</time>
      </trkpt>
      <trkpt lat="46.91876" lon="8.58499">
        <ele>891</ele>
        <time>2021-08-10T12:10:37.103Z</time>
      </trkpt>
      <trkpt lat="46.91876" lon="8.58499">
        <ele>891</ele>
        <time>2021-08-10T12:10:38.102Z</time>
      </trkpt>
      <trkpt lat="46.91877" lon="8.58503">
        <ele>891</ele>
        <time>2021-08-10T12:10:39.103Z</time>
      </trkpt>
      <trkpt lat="46.91878" lon="8.58505">
        <ele>891</ele>
        <time>2021-08-10T12:10:40.102Z</time>
      </trkpt>
      <trkpt lat="46.91879" lon="8.58507">
        <ele>891</ele>
        <time>2021-08-10T12:10:41.103Z</time>
      </trkpt>
      <trkpt lat="46.9188" lon="8.58508">
        <ele>892</ele>
        <time>2021-08-10T12:10:42.102Z</time>
      </trkpt>
      <trkpt lat="46.91881" lon="8.58509">
        <ele>892</ele>
        <time>2021-08-10T12:10:43.103Z</time>
      </trkpt>
      <trkpt lat="46.9188" lon="8.5851">
        <ele>891</ele>
        <time>2021-08-10T12:10:44.102Z</time>
      </trkpt>
      <trkpt lat="46.9188" lon="8.58511">
        <ele>891</ele>
        <time>2021-08-10T12:10:45.102Z</time>
      </trkpt>
      <trkpt lat="46.9188" lon="8.58513">
        <ele>891</ele>
        <time>2021-08-10T12:10:46.103Z</time>
      </trkpt>
      <trkpt lat="46.91879" lon="8.58514">
        <ele>891</ele>
        <time>2021-08-10T12:10:56.223Z</time>
      </trkpt>
      <trkpt lat="46.91879" lon="8.58514">
        <ele>891</ele>
        <time>2021-08-10T12:10:57.224Z</time>
      </trkpt>
      <trkpt lat="46.91878" lon="8.58515">
        <ele>890</ele>
        <time>2021-08-10T12:10:58.224Z</time>
      </trkpt>
      <trkpt lat="46.91878" lon="8.58516">
        <ele>890</ele>
        <time>2021-08-10T12:10:59.223Z</time>
      </trkpt>
      <trkpt lat="46.91877" lon="8.58516">
        <ele>889</ele>
        <time>2021-08-10T12:11:00.223Z</time>
      </trkpt>
      <trkpt lat="46.91877" lon="8.58517">
        <ele>889</ele>
        <time>2021-08-10T12:11:01.223Z</time>
      </trkpt>
      <trkpt lat="46.91877" lon="8.58518">
        <ele>889</ele>
        <time>2021-08-10T12:11:02.223Z</time>
      </trkpt>
      <trkpt lat="46.91876" lon="8.58519">
        <ele>889</ele>
        <time>2021-08-10T12:11:03.224Z</time>
      </trkpt>
      <trkpt lat="46.91875" lon="8.58519">
        <ele>889</ele>
        <time>2021-08-10T12:11:04.224Z</time>
      </trkpt>
      <trkpt lat="46.91874" lon="8.58519">
        <ele>888</ele>
        <time>2021-08-10T12:11:05.224Z</time>
      </trkpt>
      <trkpt lat="46.91873" lon="8.5852">
        <ele>888</ele>
        <time>2021-08-10T12:11:06.223Z</time>
      </trkpt>
      <trkpt lat="46.91872" lon="8.5852">
        <ele>888</ele>
        <time>2021-08-10T12:11:07.224Z</time>
      </trkpt>
      <trkpt lat="46.91872" lon="8.58521">
        <ele>888</ele>
        <time>2021-08-10T12:11:08.223Z</time>
      </trkpt>
      <trkpt lat="46.91871" lon="8.58523">
        <ele>888</ele>
        <time>2021-08-10T12:11:09.224Z</time>
      </trkpt>
      <trkpt lat="46.9187" lon="8.58521">
        <ele>889</ele>
        <time>2021-08-10T12:11:10.224Z</time>
      </trkpt>
      <trkpt lat="46.91871" lon="8.5852">
        <ele>888</ele>
        <time>2021-08-10T12:11:11.224Z</time>
      </trkpt>
      <trkpt lat="46.91872" lon="8.58519">
        <ele>888</ele>
        <time>2021-08-10T12:11:12.224Z</time>
      </trkpt>
      <trkpt lat="46.91872" lon="8.58519">
        <ele>889</ele>
        <time>2021-08-10T12:11:13.224Z</time>
      </trkpt>
      <trkpt lat="46.91872" lon="8.58518">
        <ele>889</ele>
        <time>2021-08-10T12:11:19.349Z</time>
      </trkpt>
      <trkpt lat="46.91873" lon="8.58517">
        <ele>889</ele>
        <time>2021-08-10T12:11:20.349Z</time>
      </trkpt>
      <trkpt lat="46.91874" lon="8.58516">
        <ele>889</ele>
        <time>2021-08-10T12:11:21.348Z</time>
      </trkpt>
      <trkpt lat="46.91876" lon="8.58516">
        <ele>889</ele>
        <time>2021-08-10T12:11:22.348Z</time>
      </trkpt>
      <trkpt lat="46.91876" lon="8.58516">
        <ele>889</ele>
        <time>2021-08-10T12:11:23.349Z</time>
      </trkpt>
      <trkpt lat="46.91877" lon="8.58517">
        <ele>889</ele>
        <time>2021-08-10T12:11:24.349Z</time>
      </trkpt>
      <trkpt lat="46.91878" lon="8.58518">
        <ele>889</ele>
        <time>2021-08-10T12:11:25.349Z</time>
      </trkpt>
      <trkpt lat="46.91878" lon="8.58518">
        <ele>890</ele>
        <time>2021-08-10T12:11:26.349Z</time>
      </trkpt>
      <trkpt lat="46.91879" lon="8.58518">
        <ele>890</ele>
        <time>2021-08-10T12:11:27.349Z</time>
      </trkpt>
      <trkpt lat="46.91879" lon="8.58519">
        <ele>890</ele>
        <time>2021-08-10T12:11:28.349Z</time>
      </trkpt>
      <trkpt lat="46.91878" lon="8.5852">
        <ele>890</ele>
        <time>2021-08-10T12:11:29.349Z</time>
      </trkpt>
      <trkpt lat="46.91878" lon="8.5852">
        <ele>890</ele>
        <time>2021-08-10T12:11:30.349Z</time>
      </trkpt>
      <trkpt lat="46.9188" lon="8.58523">
        <ele>890</ele>
        <time>2021-08-10T12:11:31.351Z</time>
      </trkpt>
      <trkpt lat="46.9188" lon="8.58522">
        <ele>890</ele>
        <time>2021-08-10T12:11:32.350Z</time>
      </trkpt>
      <trkpt lat="46.9188" lon="8.5852">
        <ele>890</ele>
        <time>2021-08-10T12:11:33.351Z</time>
      </trkpt>
      <trkpt lat="46.9188" lon="8.5852">
        <ele>890</ele>
        <time>2021-08-10T12:11:34.351Z</time>
      </trkpt>
      <trkpt lat="46.91879" lon="8.5852">
        <ele>890</ele>
        <time>2021-08-10T12:11:35.350Z</time>
      </trkpt>
      <trkpt lat="46.91881" lon="8.5852">
        <ele>890</ele>
        <time>2021-08-10T12:11:36.352Z</time>
      </trkpt>
      <trkpt lat="46.91882" lon="8.58519">
        <ele>891</ele>
        <time>2021-08-10T12:11:37.351Z</time>
      </trkpt>
      <trkpt lat="46.91882" lon="8.58519">
        <ele>891</ele>
        <time>2021-08-10T12:11:38.351Z</time>
      </trkpt>
      <trkpt lat="46.91883" lon="8.58518">
        <ele>891</ele>
        <time>2021-08-10T12:11:39.351Z</time>
      </trkpt>
      <trkpt lat="46.91883" lon="8.58518">
        <ele>891</ele>
        <time>2021-08-10T12:11:40.352Z</time>
      </trkpt>
      <trkpt lat="46.91883" lon="8.58519">
        <ele>892</ele>
        <time>2021-08-10T12:11:41.353Z</time>
      </trkpt>
      <trkpt lat="46.91882" lon="8.58519">
        <ele>892</ele>
        <time>2021-08-10T12:11:42.353Z</time>
      </trkpt>
      <trkpt lat="46.91883" lon="8.58519">
        <ele>891</ele>
        <time>2021-08-10T12:11:43.353Z</time>
      </trkpt>
      <trkpt lat="46.91883" lon="8.58519">
        <ele>891</ele>
        <time>2021-08-10T12:11:44.352Z</time>
      </trkpt>
      <trkpt lat="46.91882" lon="8.58519">
        <ele>890</ele>
        <time>2021-08-10T12:11:45.353Z</time>
      </trkpt>
      <trkpt lat="46.91882" lon="8.5852">
        <ele>891</ele>
        <time>2021-08-10T12:11:46.353Z</time>
      </trkpt>
      <trkpt lat="46.91882" lon="8.5852">
        <ele>891</ele>
        <time>2021-08-10T12:11:47.352Z</time>
      </trkpt>
      <trkpt lat="46.91885" lon="8.58521">
        <ele>892</ele>
        <time>2021-08-10T12:11:48.354Z</time>
      </trkpt>
      <trkpt lat="46.91884" lon="8.58521">
        <ele>892</ele>
        <time>2021-08-10T12:11:49.354Z</time>
      </trkpt>
      <trkpt lat="46.91884" lon="8.58521">
        <ele>892</ele>
        <time>2021-08-10T12:11:50.353Z</time>
      </trkpt>
      <trkpt lat="46.91885" lon="8.58521">
        <ele>892</ele>
        <time>2021-08-10T12:11:51.353Z</time>
      </trkpt>
      <trkpt lat="46.91885" lon="8.58521">
        <ele>892</ele>
        <time>2021-08-10T12:11:52.353Z</time>
      </trkpt>
      <trkpt lat="46.91885" lon="8.58519">
        <ele>893</ele>
        <time>2021-08-10T12:11:53.354Z</time>
      </trkpt>
      <trkpt lat="46.91886" lon="8.58519">
        <ele>892</ele>
        <time>2021-08-10T12:11:54.353Z</time>
      </trkpt>
      <trkpt lat="46.91886" lon="8.58518">
        <ele>892</ele>
        <time>2021-08-10T12:11:55.353Z</time>
      </trkpt>
      <trkpt lat="46.91885" lon="8.5852">
        <ele>894</ele>
        <time>2021-08-10T12:11:56.354Z</time>
      </trkpt>
      <trkpt lat="46.91885" lon="8.58519">
        <ele>894</ele>
        <time>2021-08-10T12:11:57.353Z</time>
      </trkpt>
      <trkpt lat="46.91885" lon="8.58519">
        <ele>894</ele>
        <time>2021-08-10T12:11:58.353Z</time>
      </trkpt>
      <trkpt lat="46.91887" lon="8.58519">
        <ele>896</ele>
        <time>2021-08-10T12:11:59.354Z</time>
      </trkpt>
      <trkpt lat="46.91886" lon="8.58519">
        <ele>896</ele>
        <time>2021-08-10T12:12:00.355Z</time>
      </trkpt>
      <trkpt lat="46.91886" lon="8.58519">
        <ele>896</ele>
        <time>2021-08-10T12:12:01.354Z</time>
      </trkpt>
      <trkpt lat="46.91886" lon="8.58519">
        <ele>895</ele>
        <time>2021-08-10T12:12:02.354Z</time>
      </trkpt>
      <trkpt lat="46.91885" lon="8.58518">
        <ele>895</ele>
        <time>2021-08-10T12:12:03.355Z</time>
      </trkpt>
      <trkpt lat="46.91886" lon="8.58518">
        <ele>893</ele>
        <time>2021-08-10T12:12:04.354Z</time>
      </trkpt>
      <trkpt lat="46.91886" lon="8.58517">
        <ele>893</ele>
        <time>2021-08-10T12:12:05.355Z</time>
      </trkpt>
      <trkpt lat="46.91886" lon="8.58518">
        <ele>893</ele>
        <time>2021-08-10T12:12:06.354Z</time>
      </trkpt>
      <trkpt lat="46.91885" lon="8.58518">
        <ele>895</ele>
        <time>2021-08-10T12:12:07.355Z</time>
      </trkpt>
      <trkpt lat="46.91887" lon="8.58518">
        <ele>896</ele>
        <time>2021-08-10T12:12:08.355Z</time>
      </trkpt>
      <trkpt lat="46.91887" lon="8.58518">
        <ele>897</ele>
        <time>2021-08-10T12:12:09.354Z</time>
      </trkpt>
      <trkpt lat="46.91886" lon="8.58518">
        <ele>892</ele>
        <time>2021-08-10T12:12:10.355Z</time>
      </trkpt>
      <trkpt lat="46.91886" lon="8.58517">
        <ele>890</ele>
        <time>2021-08-10T12:12:11.355Z</time>
      </trkpt>
      <trkpt lat="46.91886" lon="8.58518">
        <ele>889</ele>
        <time>2021-08-10T12:12:12.355Z</time>
      </trkpt>
      <trkpt lat="46.91886" lon="8.58518">
        <ele>889</ele>
        <time>2021-08-10T12:12:13.354Z</time>
      </trkpt>
      <trkpt lat="46.91887" lon="8.58518">
        <ele>889</ele>
        <time>2021-08-10T12:12:14.355Z</time>
      </trkpt>
      <trkpt lat="46.91888" lon="8.58518">
        <ele>889</ele>
        <time>2021-08-10T12:12:15.355Z</time>
      </trkpt>
      <trkpt lat="46.91888" lon="8.58518">
        <ele>890</ele>
        <time>2021-08-10T12:12:16.354Z</time>
      </trkpt>
      <trkpt lat="46.91888" lon="8.58517">
        <ele>890</ele>
        <time>2021-08-10T12:12:17.355Z</time>
      </trkpt>
      <trkpt lat="46.91888" lon="8.58516">
        <ele>890</ele>
        <time>2021-08-10T12:12:18.354Z</time>
      </trkpt>
      <trkpt lat="46.91887" lon="8.58515">
        <ele>891</ele>
        <time>2021-08-10T12:12:19.354Z</time>
      </trkpt>
      <trkpt lat="46.91887" lon="8.58515">
        <ele>891</ele>
        <time>2021-08-10T12:12:20.355Z</time>
      </trkpt>
      <trkpt lat="46.91886" lon="8.58515">
        <ele>891</ele>
        <time>2021-08-10T12:12:21.355Z</time>
      </trkpt>
      <trkpt lat="46.91887" lon="8.58515">
        <ele>891</ele>
        <time>2021-08-10T12:12:22.355Z</time>
      </trkpt>
      <trkpt lat="46.91886" lon="8.58514">
        <ele>890</ele>
        <time>2021-08-10T12:12:23.355Z</time>
      </trkpt>
      <trkpt lat="46.91887" lon="8.58514">
        <ele>891</ele>
        <time>2021-08-10T12:12:24.355Z</time>
      </trkpt>
      <trkpt lat="46.91887" lon="8.58515">
        <ele>891</ele>
        <time>2021-08-10T12:12:25.355Z</time>
      </trkpt>
      <trkpt lat="46.91887" lon="8.58515">
        <ele>891</ele>
        <time>2021-08-10T12:12:26.355Z</time>
      </trkpt>
      <trkpt lat="46.91887" lon="8.58515">
        <ele>891</ele>
        <time>2021-08-10T12:12:27.354Z</time>
      </trkpt>
      <trkpt lat="46.91887" lon="8.58517">
        <ele>890</ele>
        <time>2021-08-10T12:12:28.355Z</time>
      </trkpt>
      <trkpt lat="46.91887" lon="8.58518">
        <ele>890</ele>
        <time>2021-08-10T12:12:29.354Z</time>
      </trkpt>
      <trkpt lat="46.91887" lon="8.58518">
        <ele>890</ele>
        <time>2021-08-10T12:12:30.354Z</time>
      </trkpt>
      <trkpt lat="46.91887" lon="8.58519">
        <ele>891</ele>
        <time>2021-08-10T12:12:31.354Z</time>
      </trkpt>
      <trkpt lat="46.91886" lon="8.58518">
        <ele>891</ele>
        <time>2021-08-10T12:12:32.354Z</time>
      </trkpt>
      <trkpt lat="46.91885" lon="8.58518">
        <ele>891</ele>
        <time>2021-08-10T12:12:33.355Z</time>
      </trkpt>
      <trkpt lat="46.91884" lon="8.58517">
        <ele>892</ele>
        <time>2021-08-10T12:12:34.355Z</time>
      </trkpt>
      <trkpt lat="46.91884" lon="8.58517">
        <ele>892</ele>
        <time>2021-08-10T12:12:35.354Z</time>
      </trkpt>
      <trkpt lat="46.91884" lon="8.58517">
        <ele>892</ele>
        <time>2021-08-10T12:12:36.355Z</time>
      </trkpt>
      <trkpt lat="46.91883" lon="8.58516">
        <ele>892</ele>
        <time>2021-08-10T12:12:37.354Z</time>
      </trkpt>
      <trkpt lat="46.91883" lon="8.58516">
        <ele>892</ele>
        <time>2021-08-10T12:12:38.355Z</time>
      </trkpt>
      <trkpt lat="46.91883" lon="8.58516">
        <ele>892</ele>
        <time>2021-08-10T12:12:39.354Z</time>
      </trkpt>
      <trkpt lat="46.91883" lon="8.58516">
        <ele>892</ele>
        <time>2021-08-10T12:12:40.354Z</time>
      </trkpt>
      <trkpt lat="46.91881" lon="8.58514">
        <ele>893</ele>
        <time>2021-08-10T12:12:41.355Z</time>
      </trkpt>
      <trkpt lat="46.91881" lon="8.58513">
        <ele>893</ele>
        <time>2021-08-10T12:12:42.355Z</time>
      </trkpt>
      <trkpt lat="46.91881" lon="8.58512">
        <ele>894</ele>
        <time>2021-08-10T12:12:43.355Z</time>
      </trkpt>
      <trkpt lat="46.9188" lon="8.58511">
        <ele>894</ele>
        <time>2021-08-10T12:12:44.355Z</time>
      </trkpt>
      <trkpt lat="46.91879" lon="8.58511">
        <ele>894</ele>
        <time>2021-08-10T12:12:45.356Z</time>
      </trkpt>
      <trkpt lat="46.91878" lon="8.58509">
        <ele>894</ele>
        <time>2021-08-10T12:12:46.356Z</time>
      </trkpt>
      <trkpt lat="46.91876" lon="8.58507">
        <ele>895</ele>
        <time>2021-08-10T12:12:47.356Z</time>
      </trkpt>
      <trkpt lat="46.91874" lon="8.58504">
        <ele>895</ele>
        <time>2021-08-10T12:12:48.356Z</time>
      </trkpt>
      <trkpt lat="46.91874" lon="8.58502">
        <ele>895</ele>
        <time>2021-08-10T12:12:49.356Z</time>
      </trkpt>
      <trkpt lat="46.91873" lon="8.58501">
        <ele>895</ele>
        <time>2021-08-10T12:12:50.355Z</time>
      </trkpt>
      <trkpt lat="46.91873" lon="8.58499">
        <ele>895</ele>
        <time>2021-08-10T12:12:51.355Z</time>
      </trkpt>
      <trkpt lat="46.91872" lon="8.58498">
        <ele>896</ele>
        <time>2021-08-10T12:12:52.355Z</time>
      </trkpt>
      <trkpt lat="46.91871" lon="8.58497">
        <ele>896</ele>
        <time>2021-08-10T12:12:53.356Z</time>
      </trkpt>
      <trkpt lat="46.91871" lon="8.58496">
        <ele>896</ele>
        <time>2021-08-10T12:12:54.356Z</time>
      </trkpt>
      <trkpt lat="46.9187" lon="8.58495">
        <ele>896</ele>
        <time>2021-08-10T12:12:55.355Z</time>
      </trkpt>
      <trkpt lat="46.91869" lon="8.58495">
        <ele>897</ele>
        <time>2021-08-10T12:12:56.355Z</time>
      </trkpt>
      <trkpt lat="46.91868" lon="8.58494">
        <ele>897</ele>
        <time>2021-08-10T12:12:57.356Z</time>
      </trkpt>
      <trkpt lat="46.91867" lon="8.58494">
        <ele>897</ele>
        <time>2021-08-10T12:12:58.356Z</time>
      </trkpt>
      <trkpt lat="46.91866" lon="8.58494">
        <ele>897</ele>
        <time>2021-08-10T12:12:59.356Z</time>
      </trkpt>
      <trkpt lat="46.91865" lon="8.58494">
        <ele>897</ele>
        <time>2021-08-10T12:13:00.356Z</time>
      </trkpt>
      <trkpt lat="46.91864" lon="8.58493">
        <ele>897</ele>
        <time>2021-08-10T12:13:01.356Z</time>
      </trkpt>
      <trkpt lat="46.91863" lon="8.58494">
        <ele>897</ele>
        <time>2021-08-10T12:13:02.355Z</time>
      </trkpt>
      <trkpt lat="46.91862" lon="8.58495">
        <ele>897</ele>
        <time>2021-08-10T12:13:03.356Z</time>
      </trkpt>
      <trkpt lat="46.91861" lon="8.58497">
        <ele>897</ele>
        <time>2021-08-10T12:13:04.356Z</time>
      </trkpt>
      <trkpt lat="46.9186" lon="8.58499">
        <ele>897</ele>
        <time>2021-08-10T12:13:05.356Z</time>
      </trkpt>
      <trkpt lat="46.91859" lon="8.585">
        <ele>897</ele>
        <time>2021-08-10T12:13:06.355Z</time>
      </trkpt>
      <trkpt lat="46.91859" lon="8.58502">
        <ele>896</ele>
        <time>2021-08-10T12:13:07.356Z</time>
      </trkpt>
      <trkpt lat="46.91858" lon="8.58504">
        <ele>896</ele>
        <time>2021-08-10T12:13:08.356Z</time>
      </trkpt>
      <trkpt lat="46.91858" lon="8.58505">
        <ele>896</ele>
        <time>2021-08-10T12:13:09.355Z</time>
      </trkpt>
      <trkpt lat="46.91857" lon="8.58506">
        <ele>897</ele>
        <time>2021-08-10T12:13:10.356Z</time>
      </trkpt>
      <trkpt lat="46.91857" lon="8.58507">
        <ele>897</ele>
        <time>2021-08-10T12:13:11.355Z</time>
      </trkpt>
      <trkpt lat="46.91856" lon="8.58508">
        <ele>898</ele>
        <time>2021-08-10T12:13:12.355Z</time>
      </trkpt>
      <trkpt lat="46.91856" lon="8.5851">
        <ele>898</ele>
        <time>2021-08-10T12:13:13.356Z</time>
      </trkpt>
      <trkpt lat="46.91855" lon="8.58511">
        <ele>899</ele>
        <time>2021-08-10T12:13:14.355Z</time>
      </trkpt>
      <trkpt lat="46.91855" lon="8.58513">
        <ele>900</ele>
        <time>2021-08-10T12:13:15.356Z</time>
      </trkpt>
      <trkpt lat="46.91855" lon="8.58515">
        <ele>900</ele>
        <time>2021-08-10T12:13:16.356Z</time>
      </trkpt>
      <trkpt lat="46.91856" lon="8.58517">
        <ele>900</ele>
        <time>2021-08-10T12:13:17.356Z</time>
      </trkpt>
      <trkpt lat="46.91856" lon="8.58519">
        <ele>899</ele>
        <time>2021-08-10T12:13:18.355Z</time>
      </trkpt>
      <trkpt lat="46.91856" lon="8.58523">
        <ele>899</ele>
        <time>2021-08-10T12:13:19.356Z</time>
      </trkpt>
      <trkpt lat="46.91856" lon="8.58525">
        <ele>899</ele>
        <time>2021-08-10T12:13:24.461Z</time>
      </trkpt>
      <trkpt lat="46.91858" lon="8.58527">
        <ele>899</ele>
        <time>2021-08-10T12:13:25.462Z</time>
      </trkpt>
      <trkpt lat="46.91858" lon="8.58528">
        <ele>899</ele>
        <time>2021-08-10T12:13:42.363Z</time>
      </trkpt>
      <trkpt lat="46.91859" lon="8.58529">
        <ele>898</ele>
        <time>2021-08-10T12:13:43.363Z</time>
      </trkpt>
      <trkpt lat="46.91859" lon="8.5853">
        <ele>898</ele>
        <time>2021-08-10T12:13:44.362Z</time>
      </trkpt>
      <trkpt lat="46.9186" lon="8.58531">
        <ele>898</ele>
        <time>2021-08-10T12:13:45.363Z</time>
      </trkpt>
      <trkpt lat="46.9186" lon="8.58532">
        <ele>898</ele>
        <time>2021-08-10T12:13:46.363Z</time>
      </trkpt>
      <trkpt lat="46.9186" lon="8.58533">
        <ele>898</ele>
        <time>2021-08-10T12:13:47.363Z</time>
      </trkpt>
      <trkpt lat="46.91861" lon="8.58533">
        <ele>898</ele>
        <time>2021-08-10T12:13:48.363Z</time>
      </trkpt>
      <trkpt lat="46.91862" lon="8.58534">
        <ele>898</ele>
        <time>2021-08-10T12:13:49.363Z</time>
      </trkpt>
      <trkpt lat="46.91862" lon="8.58534">
        <ele>898</ele>
        <time>2021-08-10T12:13:50.362Z</time>
      </trkpt>
      <trkpt lat="46.91862" lon="8.58535">
        <ele>898</ele>
        <time>2021-08-10T12:13:51.362Z</time>
      </trkpt>
      <trkpt lat="46.91862" lon="8.58536">
        <ele>898</ele>
        <time>2021-08-10T12:13:52.363Z</time>
      </trkpt>
      <trkpt lat="46.91862" lon="8.58537">
        <ele>898</ele>
        <time>2021-08-10T12:13:53.362Z</time>
      </trkpt>
      <trkpt lat="46.91861" lon="8.58537">
        <ele>897</ele>
        <time>2021-08-10T12:13:54.363Z</time>
      </trkpt>
      <trkpt lat="46.91861" lon="8.58537">
        <ele>897</ele>
        <time>2021-08-10T12:13:55.362Z</time>
      </trkpt>
      <trkpt lat="46.91861" lon="8.58536">
        <ele>896</ele>
        <time>2021-08-10T12:13:56.362Z</time>
      </trkpt>
      <trkpt lat="46.91862" lon="8.58535">
        <ele>896</ele>
        <time>2021-08-10T12:13:57.362Z</time>
      </trkpt>
      <trkpt lat="46.91863" lon="8.58535">
        <ele>895</ele>
        <time>2021-08-10T12:13:58.362Z</time>
      </trkpt>
      <trkpt lat="46.91864" lon="8.58533">
        <ele>895</ele>
        <time>2021-08-10T12:13:59.363Z</time>
      </trkpt>
      <trkpt lat="46.91866" lon="8.58533">
        <ele>894</ele>
        <time>2021-08-10T12:14:00.363Z</time>
      </trkpt>
      <trkpt lat="46.91866" lon="8.58532">
        <ele>894</ele>
        <time>2021-08-10T12:14:01.362Z</time>
      </trkpt>
      <trkpt lat="46.91867" lon="8.58531">
        <ele>894</ele>
        <time>2021-08-10T12:14:02.362Z</time>
      </trkpt>
      <trkpt lat="46.91867" lon="8.5853">
        <ele>893</ele>
        <time>2021-08-10T12:14:03.362Z</time>
      </trkpt>
      <trkpt lat="46.91867" lon="8.5853">
        <ele>893</ele>
        <time>2021-08-10T12:14:04.363Z</time>
      </trkpt>
      <trkpt lat="46.91867" lon="8.5853">
        <ele>892</ele>
        <time>2021-08-10T12:14:05.363Z</time>
      </trkpt>
      <trkpt lat="46.91868" lon="8.58528">
        <ele>889</ele>
        <time>2021-08-10T12:14:06.364Z</time>
      </trkpt>
      <trkpt lat="46.91868" lon="8.58528">
        <ele>889</ele>
        <time>2021-08-10T12:14:07.364Z</time>
      </trkpt>
      <trkpt lat="46.91866" lon="8.58528">
        <ele>886</ele>
        <time>2021-08-10T12:14:08.364Z</time>
      </trkpt>
      <trkpt lat="46.91865" lon="8.58528">
        <ele>886</ele>
        <time>2021-08-10T12:14:09.364Z</time>
      </trkpt>
      <trkpt lat="46.91864" lon="8.58529">
        <ele>885</ele>
        <time>2021-08-10T12:14:10.364Z</time>
      </trkpt>
      <trkpt lat="46.91864" lon="8.58529">
        <ele>884</ele>
        <time>2021-08-10T12:14:11.363Z</time>
      </trkpt>
      <trkpt lat="46.91864" lon="8.5853">
        <ele>884</ele>
        <time>2021-08-10T12:14:12.364Z</time>
      </trkpt>
      <trkpt lat="46.91864" lon="8.58531">
        <ele>884</ele>
        <time>2021-08-10T12:14:13.364Z</time>
      </trkpt>
      <trkpt lat="46.91865" lon="8.58531">
        <ele>884</ele>
        <time>2021-08-10T12:14:14.363Z</time>
      </trkpt>
      <trkpt lat="46.91865" lon="8.58531">
        <ele>884</ele>
        <time>2021-08-10T12:14:15.364Z</time>
      </trkpt>
      <trkpt lat="46.91865" lon="8.58531">
        <ele>883</ele>
        <time>2021-08-10T12:14:16.363Z</time>
      </trkpt>
      <trkpt lat="46.91864" lon="8.5853">
        <ele>883</ele>
        <time>2021-08-10T12:14:17.363Z</time>
      </trkpt>
      <trkpt lat="46.91864" lon="8.5853">
        <ele>883</ele>
        <time>2021-08-10T12:14:18.363Z</time>
      </trkpt>
      <trkpt lat="46.91863" lon="8.5853">
        <ele>882</ele>
        <time>2021-08-10T12:14:19.363Z</time>
      </trkpt>
      <trkpt lat="46.91863" lon="8.5853">
        <ele>882</ele>
        <time>2021-08-10T12:14:20.363Z</time>
      </trkpt>
      <trkpt lat="46.91862" lon="8.5853">
        <ele>882</ele>
        <time>2021-08-10T12:14:21.363Z</time>
      </trkpt>
      <trkpt lat="46.91862" lon="8.58529">
        <ele>882</ele>
        <time>2021-08-10T12:14:22.363Z</time>
      </trkpt>
      <trkpt lat="46.91862" lon="8.58529">
        <ele>882</ele>
        <time>2021-08-10T12:14:23.363Z</time>
      </trkpt>
      <trkpt lat="46.91861" lon="8.58528">
        <ele>882</ele>
        <time>2021-08-10T12:14:24.363Z</time>
      </trkpt>
      <trkpt lat="46.9186" lon="8.58528">
        <ele>883</ele>
        <time>2021-08-10T12:14:25.363Z</time>
      </trkpt>
      <trkpt lat="46.9186" lon="8.58528">
        <ele>883</ele>
        <time>2021-08-10T12:14:26.363Z</time>
      </trkpt>
      <trkpt lat="46.9186" lon="8.58526">
        <ele>883</ele>
        <time>2021-08-10T12:14:27.363Z</time>
      </trkpt>
      <trkpt lat="46.9186" lon="8.58526">
        <ele>883</ele>
        <time>2021-08-10T12:14:28.363Z</time>
      </trkpt>
      <trkpt lat="46.91859" lon="8.58525">
        <ele>884</ele>
        <time>2021-08-10T12:14:29.363Z</time>
      </trkpt>
      <trkpt lat="46.91859" lon="8.58524">
        <ele>884</ele>
        <time>2021-08-10T12:14:30.363Z</time>
      </trkpt>
      <trkpt lat="46.91858" lon="8.58523">
        <ele>884</ele>
        <time>2021-08-10T12:14:31.363Z</time>
      </trkpt>
      <trkpt lat="46.91858" lon="8.58522">
        <ele>884</ele>
        <time>2021-08-10T12:14:32.363Z</time>
      </trkpt>
      <trkpt lat="46.91857" lon="8.58521">
        <ele>885</ele>
        <time>2021-08-10T12:14:33.363Z</time>
      </trkpt>
      <trkpt lat="46.91857" lon="8.5852">
        <ele>885</ele>
        <time>2021-08-10T12:14:34.363Z</time>
      </trkpt>
      <trkpt lat="46.91857" lon="8.5852">
        <ele>885</ele>
        <time>2021-08-10T12:14:35.363Z</time>
      </trkpt>
      <trkpt lat="46.91856" lon="8.58519">
        <ele>886</ele>
        <time>2021-08-10T12:14:36.363Z</time>
      </trkpt>
      <trkpt lat="46.91856" lon="8.58518">
        <ele>886</ele>
        <time>2021-08-10T12:14:37.363Z</time>
      </trkpt>
      <trkpt lat="46.91857" lon="8.58518">
        <ele>886</ele>
        <time>2021-08-10T12:14:38.363Z</time>
      </trkpt>
      <trkpt lat="46.91857" lon="8.58516">
        <ele>886</ele>
        <time>2021-08-10T12:14:39.363Z</time>
      </trkpt>
      <trkpt lat="46.91857" lon="8.58515">
        <ele>886</ele>
        <time>2021-08-10T12:14:40.363Z</time>
      </trkpt>
      <trkpt lat="46.91859" lon="8.58516">
        <ele>887</ele>
        <time>2021-08-10T12:14:41.363Z</time>
      </trkpt>
      <trkpt lat="46.9186" lon="8.58515">
        <ele>887</ele>
        <time>2021-08-10T12:14:42.363Z</time>
      </trkpt>
      <trkpt lat="46.91862" lon="8.58515">
        <ele>887</ele>
        <time>2021-08-10T12:14:43.363Z</time>
      </trkpt>
      <trkpt lat="46.91863" lon="8.58513">
        <ele>887</ele>
        <time>2021-08-10T12:14:44.363Z</time>
      </trkpt>
      <trkpt lat="46.91864" lon="8.58512">
        <ele>887</ele>
        <time>2021-08-10T12:14:45.363Z</time>
      </trkpt>
      <trkpt lat="46.91865" lon="8.58511">
        <ele>887</ele>
        <time>2021-08-10T12:14:46.363Z</time>
      </trkpt>
      <trkpt lat="46.91865" lon="8.5851">
        <ele>886</ele>
        <time>2021-08-10T12:14:47.363Z</time>
      </trkpt>
      <trkpt lat="46.91866" lon="8.58509">
        <ele>886</ele>
        <time>2021-08-10T12:14:48.363Z</time>
      </trkpt>
      <trkpt lat="46.91866" lon="8.58507">
        <ele>886</ele>
        <time>2021-08-10T12:14:49.363Z</time>
      </trkpt>
      <trkpt lat="46.91867" lon="8.58506">
        <ele>886</ele>
        <time>2021-08-10T12:14:50.363Z</time>
      </trkpt>
      <trkpt lat="46.91868" lon="8.58505">
        <ele>886</ele>
        <time>2021-08-10T12:14:51.363Z</time>
      </trkpt>
      <trkpt lat="46.91868" lon="8.58505">
        <ele>886</ele>
        <time>2021-08-10T12:14:52.363Z</time>
      </trkpt>
      <trkpt lat="46.91868" lon="8.58507">
        <ele>886</ele>
        <time>2021-08-10T12:14:53.363Z</time>
      </trkpt>
      <trkpt lat="46.91868" lon="8.58507">
        <ele>886</ele>
        <time>2021-08-10T12:14:54.363Z</time>
      </trkpt>
      <trkpt lat="46.91869" lon="8.58508">
        <ele>886</ele>
        <time>2021-08-10T12:14:58.363Z</time>
      </trkpt>
      <trkpt lat="46.91868" lon="8.58506">
        <ele>886</ele>
        <time>2021-08-10T12:14:59.363Z</time>
      </trkpt>
      <trkpt lat="46.91867" lon="8.58506">
        <ele>886</ele>
        <time>2021-08-10T12:15:00.363Z</time>
      </trkpt>
      <trkpt lat="46.91866" lon="8.58506">
        <ele>887</ele>
        <time>2021-08-10T12:15:01.363Z</time>
      </trkpt>
      <trkpt lat="46.91866" lon="8.58505">
        <ele>887</ele>
        <time>2021-08-10T12:15:02.363Z</time>
      </trkpt>
      <trkpt lat="46.91865" lon="8.58504">
        <ele>887</ele>
        <time>2021-08-10T12:15:03.364Z</time>
      </trkpt>
      <trkpt lat="46.91865" lon="8.58504">
        <ele>887</ele>
        <time>2021-08-10T12:15:04.364Z</time>
      </trkpt>
      <trkpt lat="46.91865" lon="8.58504">
        <ele>887</ele>
        <time>2021-08-10T12:15:05.364Z</time>
      </trkpt>
      <trkpt lat="46.91864" lon="8.58503">
        <ele>888</ele>
        <time>2021-08-10T12:15:06.364Z</time>
      </trkpt>
      <trkpt lat="46.91864" lon="8.58502">
        <ele>888</ele>
        <time>2021-08-10T12:15:07.365Z</time>
      </trkpt>
      <trkpt lat="46.91864" lon="8.58502">
        <ele>888</ele>
        <time>2021-08-10T12:15:08.364Z</time>
      </trkpt>
      <trkpt lat="46.91864" lon="8.58503">
        <ele>889</ele>
        <time>2021-08-10T12:15:09.365Z</time>
      </trkpt>
      <trkpt lat="46.91864" lon="8.58503">
        <ele>889</ele>
        <time>2021-08-10T12:15:10.366Z</time>
      </trkpt>
      <trkpt lat="46.91864" lon="8.58503">
        <ele>890</ele>
        <time>2021-08-10T12:15:11.365Z</time>
      </trkpt>
      <trkpt lat="46.91865" lon="8.58504">
        <ele>890</ele>
        <time>2021-08-10T12:15:12.365Z</time>
      </trkpt>
      <trkpt lat="46.91865" lon="8.58505">
        <ele>891</ele>
        <time>2021-08-10T12:15:13.366Z</time>
      </trkpt>
      <trkpt lat="46.91865" lon="8.58505">
        <ele>891</ele>
        <time>2021-08-10T12:15:14.366Z</time>
      </trkpt>
      <trkpt lat="46.91865" lon="8.58505">
        <ele>891</ele>
        <time>2021-08-10T12:15:15.365Z</time>
      </trkpt>
      <trkpt lat="46.91864" lon="8.58505">
        <ele>892</ele>
        <time>2021-08-10T12:15:16.365Z</time>
      </trkpt>
      <trkpt lat="46.91864" lon="8.58504">
        <ele>892</ele>
        <time>2021-08-10T12:15:17.365Z</time>
      </trkpt>
      <trkpt lat="46.91864" lon="8.58503">
        <ele>892</ele>
        <time>2021-08-10T12:15:18.365Z</time>
      </trkpt>
      <trkpt lat="46.91865" lon="8.58503">
        <ele>892</ele>
        <time>2021-08-10T12:15:19.365Z</time>
      </trkpt>
      <trkpt lat="46.91866" lon="8.58503">
        <ele>892</ele>
        <time>2021-08-10T12:15:20.365Z</time>
      </trkpt>
      <trkpt lat="46.91866" lon="8.58503">
        <ele>892</ele>
        <time>2021-08-10T12:15:21.365Z</time>
      </trkpt>
      <trkpt lat="46.91866" lon="8.58504">
        <ele>892</ele>
        <time>2021-08-10T12:15:22.365Z</time>
      </trkpt>
      <trkpt lat="46.91866" lon="8.58504">
        <ele>892</ele>
        <time>2021-08-10T12:15:23.366Z</time>
      </trkpt>
      <trkpt lat="46.91866" lon="8.58506">
        <ele>892</ele>
        <time>2021-08-10T12:15:24.365Z</time>
      </trkpt>
      <trkpt lat="46.91867" lon="8.58507">
        <ele>893</ele>
        <time>2021-08-10T12:15:25.365Z</time>
      </trkpt>
      <trkpt lat="46.91866" lon="8.58507">
        <ele>893</ele>
        <time>2021-08-10T12:15:26.366Z</time>
      </trkpt>
      <trkpt lat="46.91865" lon="8.58507">
        <ele>893</ele>
        <time>2021-08-10T12:15:27.365Z</time>
      </trkpt>
      <trkpt lat="46.91864" lon="8.58508">
        <ele>893</ele>
        <time>2021-08-10T12:15:28.365Z</time>
      </trkpt>
      <trkpt lat="46.91864" lon="8.58509">
        <ele>893</ele>
        <time>2021-08-10T12:15:29.366Z</time>
      </trkpt>
      <trkpt lat="46.91866" lon="8.5851">
        <ele>893</ele>
        <time>2021-08-10T12:15:30.366Z</time>
      </trkpt>
      <trkpt lat="46.91867" lon="8.58511">
        <ele>894</ele>
        <time>2021-08-10T12:15:31.366Z</time>
      </trkpt>
      <trkpt lat="46.91868" lon="8.58511">
        <ele>894</ele>
        <time>2021-08-10T12:15:32.365Z</time>
      </trkpt>
      <trkpt lat="46.91869" lon="8.58512">
        <ele>894</ele>
        <time>2021-08-10T12:15:33.365Z</time>
      </trkpt>
      <trkpt lat="46.91869" lon="8.58512">
        <ele>895</ele>
        <time>2021-08-10T12:15:34.366Z</time>
      </trkpt>
      <trkpt lat="46.9187" lon="8.58512">
        <ele>895</ele>
        <time>2021-08-10T12:15:35.366Z</time>
      </trkpt>
      <trkpt lat="46.91871" lon="8.58512">
        <ele>895</ele>
        <time>2021-08-10T12:15:36.365Z</time>
      </trkpt>
      <trkpt lat="46.91872" lon="8.58514">
        <ele>896</ele>
        <time>2021-08-10T12:15:37.365Z</time>
      </trkpt>
      <trkpt lat="46.91873" lon="8.58516">
        <ele>896</ele>
        <time>2021-08-10T12:15:38.365Z</time>
      </trkpt>
      <trkpt lat="46.91874" lon="8.58518">
        <ele>896</ele>
        <time>2021-08-10T12:15:39.365Z</time>
      </trkpt>
      <trkpt lat="46.91874" lon="8.58518">
        <ele>896</ele>
        <time>2021-08-10T12:15:40.365Z</time>
      </trkpt>
      <trkpt lat="46.91874" lon="8.58519">
        <ele>896</ele>
        <time>2021-08-10T12:15:41.366Z</time>
      </trkpt>
      <trkpt lat="46.91874" lon="8.58519">
        <ele>896</ele>
        <time>2021-08-10T12:15:42.365Z</time>
      </trkpt>
      <trkpt lat="46.91873" lon="8.58519">
        <ele>896</ele>
        <time>2021-08-10T12:15:43.365Z</time>
      </trkpt>
      <trkpt lat="46.91873" lon="8.5852">
        <ele>895</ele>
        <time>2021-08-10T12:15:44.365Z</time>
      </trkpt>
      <trkpt lat="46.91873" lon="8.58522">
        <ele>895</ele>
        <time>2021-08-10T12:15:45.366Z</time>
      </trkpt>
      <trkpt lat="46.91873" lon="8.58523">
        <ele>895</ele>
        <time>2021-08-10T12:15:46.365Z</time>
      </trkpt>
      <trkpt lat="46.91872" lon="8.58523">
        <ele>895</ele>
        <time>2021-08-10T12:15:47.365Z</time>
      </trkpt>
      <trkpt lat="46.91873" lon="8.58524">
        <ele>895</ele>
        <time>2021-08-10T12:15:48.365Z</time>
      </trkpt>
      <trkpt lat="46.91874" lon="8.58525">
        <ele>895</ele>
        <time>2021-08-10T12:15:49.365Z</time>
      </trkpt>
      <trkpt lat="46.91876" lon="8.58526">
        <ele>894</ele>
        <time>2021-08-10T12:15:50.366Z</time>
      </trkpt>
      <trkpt lat="46.91876" lon="8.58524">
        <ele>894</ele>
        <time>2021-08-10T12:15:51.366Z</time>
      </trkpt>
      <trkpt lat="46.91876" lon="8.58523">
        <ele>894</ele>
        <time>2021-08-10T12:15:52.365Z</time>
      </trkpt>
      <trkpt lat="46.91876" lon="8.58522">
        <ele>894</ele>
        <time>2021-08-10T12:15:53.365Z</time>
      </trkpt>
      <trkpt lat="46.91875" lon="8.58521">
        <ele>894</ele>
        <time>2021-08-10T12:15:54.365Z</time>
      </trkpt>
      <trkpt lat="46.91875" lon="8.58521">
        <ele>894</ele>
        <time>2021-08-10T12:15:55.366Z</time>
      </trkpt>
      <trkpt lat="46.91875" lon="8.58519">
        <ele>894</ele>
        <time>2021-08-10T12:15:56.366Z</time>
      </trkpt>
      <trkpt lat="46.91875" lon="8.58517">
        <ele>894</ele>
        <time>2021-08-10T12:15:57.365Z</time>
      </trkpt>
      <trkpt lat="46.91876" lon="8.58515">
        <ele>894</ele>
        <time>2021-08-10T12:15:58.365Z</time>
      </trkpt>
      <trkpt lat="46.91877" lon="8.58514">
        <ele>894</ele>
        <time>2021-08-10T12:15:59.365Z</time>
      </trkpt>
      <trkpt lat="46.91876" lon="8.58512">
        <ele>894</ele>
        <time>2021-08-10T12:16:00.366Z</time>
      </trkpt>
      <trkpt lat="46.91876" lon="8.58511">
        <ele>895</ele>
        <time>2021-08-10T12:16:01.366Z</time>
      </trkpt>
      <trkpt lat="46.91875" lon="8.5851">
        <ele>895</ele>
        <time>2021-08-10T12:16:02.365Z</time>
      </trkpt>
      <trkpt lat="46.91871" lon="8.58509">
        <ele>896</ele>
        <time>2021-08-10T12:16:03.367Z</time>
      </trkpt>
      <trkpt lat="46.91869" lon="8.5851">
        <ele>895</ele>
        <time>2021-08-10T12:16:04.366Z</time>
      </trkpt>
      <trkpt lat="46.91868" lon="8.58511">
        <ele>895</ele>
        <time>2021-08-10T12:16:05.366Z</time>
      </trkpt>
      <trkpt lat="46.91867" lon="8.58511">
        <ele>895</ele>
        <time>2021-08-10T12:16:06.366Z</time>
      </trkpt>
      <trkpt lat="46.91866" lon="8.58512">
        <ele>894</ele>
        <time>2021-08-10T12:16:07.366Z</time>
      </trkpt>
      <trkpt lat="46.91866" lon="8.58512">
        <ele>894</ele>
        <time>2021-08-10T12:16:08.367Z</time>
      </trkpt>
      <trkpt lat="46.91866" lon="8.58512">
        <ele>893</ele>
        <time>2021-08-10T12:16:09.366Z</time>
      </trkpt>
      <trkpt lat="46.91866" lon="8.5851">
        <ele>892</ele>
        <time>2021-08-10T12:16:10.367Z</time>
      </trkpt>
      <trkpt lat="46.91865" lon="8.58509">
        <ele>892</ele>
        <time>2021-08-10T12:16:11.367Z</time>
      </trkpt>
      <trkpt lat="46.91864" lon="8.58508">
        <ele>891</ele>
        <time>2021-08-10T12:16:12.367Z</time>
      </trkpt>
      <trkpt lat="46.91864" lon="8.58508">
        <ele>891</ele>
        <time>2021-08-10T12:16:13.367Z</time>
      </trkpt>
      <trkpt lat="46.91864" lon="8.58507">
        <ele>891</ele>
        <time>2021-08-10T12:16:14.366Z</time>
      </trkpt>
      <trkpt lat="46.91865" lon="8.58507">
        <ele>891</ele>
        <time>2021-08-10T12:16:15.366Z</time>
      </trkpt>
      <trkpt lat="46.91864" lon="8.58508">
        <ele>891</ele>
        <time>2021-08-10T12:16:16.367Z</time>
      </trkpt>
      <trkpt lat="46.91865" lon="8.58508">
        <ele>891</ele>
        <time>2021-08-10T12:16:17.367Z</time>
      </trkpt>
      <trkpt lat="46.91865" lon="8.58508">
        <ele>891</ele>
        <time>2021-08-10T12:16:18.367Z</time>
      </trkpt>
      <trkpt lat="46.91865" lon="8.58509">
        <ele>891</ele>
        <time>2021-08-10T12:16:19.366Z</time>
      </trkpt>
      <trkpt lat="46.91865" lon="8.58507">
        <ele>891</ele>
        <time>2021-08-10T12:16:20.367Z</time>
      </trkpt>
      <trkpt lat="46.91865" lon="8.58505">
        <ele>891</ele>
        <time>2021-08-10T12:16:21.367Z</time>
      </trkpt>
      <trkpt lat="46.91866" lon="8.58503">
        <ele>891</ele>
        <time>2021-08-10T12:16:22.366Z</time>
      </trkpt>
      <trkpt lat="46.91866" lon="8.58503">
        <ele>891</ele>
        <time>2021-08-10T12:16:23.366Z</time>
      </trkpt>
      <trkpt lat="46.91866" lon="8.58505">
        <ele>892</ele>
        <time>2021-08-10T12:16:24.367Z</time>
      </trkpt>
      <trkpt lat="46.91866" lon="8.58505">
        <ele>892</ele>
        <time>2021-08-10T12:16:25.367Z</time>
      </trkpt>
      <trkpt lat="46.91866" lon="8.58505">
        <ele>892</ele>
        <time>2021-08-10T12:16:26.367Z</time>
      </trkpt>
      <trkpt lat="46.91866" lon="8.58504">
        <ele>892</ele>
        <time>2021-08-10T12:16:27.367Z</time>
      </trkpt>
      <trkpt lat="46.91865" lon="8.58504">
        <ele>892</ele>
        <time>2021-08-10T12:16:28.367Z</time>
      </trkpt>
      <trkpt lat="46.91864" lon="8.58502">
        <ele>893</ele>
        <time>2021-08-10T12:16:29.366Z</time>
      </trkpt>
      <trkpt lat="46.91863" lon="8.58501">
        <ele>893</ele>
        <time>2021-08-10T12:16:30.367Z</time>
      </trkpt>
      <trkpt lat="46.91862" lon="8.585">
        <ele>893</ele>
        <time>2021-08-10T12:16:31.367Z</time>
      </trkpt>
      <trkpt lat="46.91861" lon="8.58498">
        <ele>894</ele>
        <time>2021-08-10T12:16:32.367Z</time>
      </trkpt>
      <trkpt lat="46.91861" lon="8.58497">
        <ele>894</ele>
        <time>2021-08-10T12:16:33.367Z</time>
      </trkpt>
      <trkpt lat="46.9186" lon="8.58496">
        <ele>894</ele>
        <time>2021-08-10T12:16:34.367Z</time>
      </trkpt>
      <trkpt lat="46.9186" lon="8.58495">
        <ele>895</ele>
        <time>2021-08-10T12:16:35.366Z</time>
      </trkpt>
      <trkpt lat="46.91859" lon="8.58494">
        <ele>895</ele>
        <time>2021-08-10T12:16:36.367Z</time>
      </trkpt>
      <trkpt lat="46.91858" lon="8.58494">
        <ele>895</ele>
        <time>2021-08-10T12:16:37.366Z</time>
      </trkpt>
      <trkpt lat="46.91858" lon="8.58493">
        <ele>895</ele>
        <time>2021-08-10T12:16:38.366Z</time>
      </trkpt>
      <trkpt lat="46.91857" lon="8.58492">
        <ele>895</ele>
        <time>2021-08-10T12:16:39.367Z</time>
      </trkpt>
      <trkpt lat="46.91857" lon="8.5849">
        <ele>895</ele>
        <time>2021-08-10T12:16:40.367Z</time>
      </trkpt>
      <trkpt lat="46.91857" lon="8.58488">
        <ele>895</ele>
        <time>2021-08-10T12:16:41.367Z</time>
      </trkpt>
      <trkpt lat="46.91856" lon="8.58486">
        <ele>895</ele>
        <time>2021-08-10T12:16:42.367Z</time>
      </trkpt>
      <trkpt lat="46.91856" lon="8.58485">
        <ele>895</ele>
        <time>2021-08-10T12:16:43.366Z</time>
      </trkpt>
      <trkpt lat="46.91855" lon="8.58484">
        <ele>895</ele>
        <time>2021-08-10T12:16:44.367Z</time>
      </trkpt>
      <trkpt lat="46.91854" lon="8.58482">
        <ele>896</ele>
        <time>2021-08-10T12:16:45.367Z</time>
      </trkpt>
      <trkpt lat="46.91853" lon="8.58481">
        <ele>896</ele>
        <time>2021-08-10T12:16:46.367Z</time>
      </trkpt>
      <trkpt lat="46.91851" lon="8.5848">
        <ele>896</ele>
        <time>2021-08-10T12:16:47.367Z</time>
      </trkpt>
      <trkpt lat="46.91849" lon="8.58479">
        <ele>896</ele>
        <time>2021-08-10T12:16:48.367Z</time>
      </trkpt>
      <trkpt lat="46.91848" lon="8.58477">
        <ele>896</ele>
        <time>2021-08-10T12:16:49.367Z</time>
      </trkpt>
      <trkpt lat="46.91847" lon="8.58476">
        <ele>896</ele>
        <time>2021-08-10T12:16:50.366Z</time>
      </trkpt>
      <trkpt lat="46.91846" lon="8.58475">
        <ele>896</ele>
        <time>2021-08-10T12:16:51.366Z</time>
      </trkpt>
      <trkpt lat="46.91846" lon="8.58474">
        <ele>896</ele>
        <time>2021-08-10T12:16:52.367Z</time>
      </trkpt>
      <trkpt lat="46.91845" lon="8.58472">
        <ele>896</ele>
        <time>2021-08-10T12:16:53.367Z</time>
      </trkpt>
      <trkpt lat="46.91845" lon="8.58471">
        <ele>896</ele>
        <time>2021-08-10T12:16:54.366Z</time>
      </trkpt>
      <trkpt lat="46.91844" lon="8.58469">
        <ele>896</ele>
        <time>2021-08-10T12:16:55.366Z</time>
      </trkpt>
      <trkpt lat="46.91842" lon="8.58467">
        <ele>896</ele>
        <time>2021-08-10T12:16:56.367Z</time>
      </trkpt>
      <trkpt lat="46.91841" lon="8.58466">
        <ele>896</ele>
        <time>2021-08-10T12:16:57.366Z</time>
      </trkpt>
      <trkpt lat="46.91841" lon="8.58465">
        <ele>896</ele>
        <time>2021-08-10T12:16:58.367Z</time>
      </trkpt>
      <trkpt lat="46.91839" lon="8.58463">
        <ele>896</ele>
        <time>2021-08-10T12:16:59.366Z</time>
      </trkpt>
      <trkpt lat="46.91838" lon="8.58461">
        <ele>896</ele>
        <time>2021-08-10T12:17:00.367Z</time>
      </trkpt>
      <trkpt lat="46.91837" lon="8.5846">
        <ele>896</ele>
        <time>2021-08-10T12:17:01.367Z</time>
      </trkpt>
      <trkpt lat="46.91836" lon="8.58459">
        <ele>896</ele>
        <time>2021-08-10T12:17:02.366Z</time>
      </trkpt>
      <trkpt lat="46.91835" lon="8.58458">
        <ele>895</ele>
        <time>2021-08-10T12:17:03.366Z</time>
      </trkpt>
      <trkpt lat="46.91834" lon="8.58457">
        <ele>895</ele>
        <time>2021-08-10T12:17:04.367Z</time>
      </trkpt>
      <trkpt lat="46.91834" lon="8.58456">
        <ele>894</ele>
        <time>2021-08-10T12:17:05.366Z</time>
      </trkpt>
      <trkpt lat="46.91833" lon="8.58455">
        <ele>894</ele>
        <time>2021-08-10T12:17:06.366Z</time>
      </trkpt>
      <trkpt lat="46.91832" lon="8.58454">
        <ele>893</ele>
        <time>2021-08-10T12:17:07.366Z</time>
      </trkpt>
      <trkpt lat="46.91831" lon="8.58452">
        <ele>893</ele>
        <time>2021-08-10T12:17:08.366Z</time>
      </trkpt>
      <trkpt lat="46.9183" lon="8.58452">
        <ele>893</ele>
        <time>2021-08-10T12:17:09.366Z</time>
      </trkpt>
      <trkpt lat="46.9183" lon="8.58454">
        <ele>893</ele>
        <time>2021-08-10T12:17:10.366Z</time>
      </trkpt>
      <trkpt lat="46.91829" lon="8.58452">
        <ele>893</ele>
        <time>2021-08-10T12:17:11.366Z</time>
      </trkpt>
      <trkpt lat="46.91828" lon="8.58452">
        <ele>893</ele>
        <time>2021-08-10T12:17:12.366Z</time>
      </trkpt>
      <trkpt lat="46.91827" lon="8.58451">
        <ele>893</ele>
        <time>2021-08-10T12:17:13.366Z</time>
      </trkpt>
      <trkpt lat="46.91826" lon="8.58451">
        <ele>893</ele>
        <time>2021-08-10T12:17:14.366Z</time>
      </trkpt>
      <trkpt lat="46.91825" lon="8.5845">
        <ele>893</ele>
        <time>2021-08-10T12:17:15.366Z</time>
      </trkpt>
      <trkpt lat="46.91824" lon="8.58448">
        <ele>894</ele>
        <time>2021-08-10T12:17:16.367Z</time>
      </trkpt>
      <trkpt lat="46.91823" lon="8.58448">
        <ele>894</ele>
        <time>2021-08-10T12:17:17.366Z</time>
      </trkpt>
      <trkpt lat="46.91822" lon="8.58446">
        <ele>894</ele>
        <time>2021-08-10T12:17:18.366Z</time>
      </trkpt>
      <trkpt lat="46.91821" lon="8.58446">
        <ele>894</ele>
        <time>2021-08-10T12:17:19.367Z</time>
      </trkpt>
      <trkpt lat="46.91821" lon="8.58445">
        <ele>894</ele>
        <time>2021-08-10T12:17:20.366Z</time>
      </trkpt>
      <trkpt lat="46.9182" lon="8.58444">
        <ele>894</ele>
        <time>2021-08-10T12:17:21.367Z</time>
      </trkpt>
      <trkpt lat="46.91819" lon="8.58443">
        <ele>894</ele>
        <time>2021-08-10T12:17:22.367Z</time>
      </trkpt>
      <trkpt lat="46.91818" lon="8.58442">
        <ele>894</ele>
        <time>2021-08-10T12:17:23.366Z</time>
      </trkpt>
      <trkpt lat="46.91817" lon="8.58441">
        <ele>894</ele>
        <time>2021-08-10T12:17:24.367Z</time>
      </trkpt>
      <trkpt lat="46.91816" lon="8.5844">
        <ele>894</ele>
        <time>2021-08-10T12:17:25.366Z</time>
      </trkpt>
      <trkpt lat="46.91815" lon="8.58439">
        <ele>893</ele>
        <time>2021-08-10T12:17:26.366Z</time>
      </trkpt>
      <trkpt lat="46.91814" lon="8.58438">
        <ele>893</ele>
        <time>2021-08-10T12:17:27.366Z</time>
      </trkpt>
      <trkpt lat="46.91813" lon="8.58436">
        <ele>893</ele>
        <time>2021-08-10T12:17:28.366Z</time>
      </trkpt>
      <trkpt lat="46.91812" lon="8.58436">
        <ele>893</ele>
        <time>2021-08-10T12:17:29.366Z</time>
      </trkpt>
      <trkpt lat="46.91811" lon="8.58435">
        <ele>892</ele>
        <time>2021-08-10T12:17:30.367Z</time>
      </trkpt>
      <trkpt lat="46.9181" lon="8.58434">
        <ele>892</ele>
        <time>2021-08-10T12:17:31.366Z</time>
      </trkpt>
      <trkpt lat="46.91809" lon="8.58433">
        <ele>892</ele>
        <time>2021-08-10T12:17:32.367Z</time>
      </trkpt>
      <trkpt lat="46.91808" lon="8.58432">
        <ele>892</ele>
        <time>2021-08-10T12:17:33.367Z</time>
      </trkpt>
      <trkpt lat="46.91807" lon="8.58432">
        <ele>892</ele>
        <time>2021-08-10T12:17:34.366Z</time>
      </trkpt>
      <trkpt lat="46.91806" lon="8.58431">
        <ele>892</ele>
        <time>2021-08-10T12:17:35.366Z</time>
      </trkpt>
      <trkpt lat="46.91805" lon="8.5843">
        <ele>892</ele>
        <time>2021-08-10T12:17:36.366Z</time>
      </trkpt>
      <trkpt lat="46.91805" lon="8.5843">
        <ele>892</ele>
        <time>2021-08-10T12:17:37.367Z</time>
      </trkpt>
      <trkpt lat="46.91804" lon="8.58429">
        <ele>892</ele>
        <time>2021-08-10T12:17:38.367Z</time>
      </trkpt>
      <trkpt lat="46.91803" lon="8.58428">
        <ele>892</ele>
        <time>2021-08-10T12:17:39.366Z</time>
      </trkpt>
      <trkpt lat="46.91802" lon="8.58427">
        <ele>892</ele>
        <time>2021-08-10T12:17:40.367Z</time>
      </trkpt>
      <trkpt lat="46.91801" lon="8.58426">
        <ele>892</ele>
        <time>2021-08-10T12:17:41.367Z</time>
      </trkpt>
      <trkpt lat="46.91801" lon="8.58425">
        <ele>892</ele>
        <time>2021-08-10T12:17:42.367Z</time>
      </trkpt>
      <trkpt lat="46.918" lon="8.58424">
        <ele>892</ele>
        <time>2021-08-10T12:17:43.366Z</time>
      </trkpt>
      <trkpt lat="46.91799" lon="8.58423">
        <ele>892</ele>
        <time>2021-08-10T12:17:44.367Z</time>
      </trkpt>
      <trkpt lat="46.91798" lon="8.58422">
        <ele>892</ele>
        <time>2021-08-10T12:17:45.367Z</time>
      </trkpt>
      <trkpt lat="46.91798" lon="8.58421">
        <ele>892</ele>
        <time>2021-08-10T12:17:46.367Z</time>
      </trkpt>
      <trkpt lat="46.91797" lon="8.5842">
        <ele>892</ele>
        <time>2021-08-10T12:17:47.367Z</time>
      </trkpt>
      <trkpt lat="46.91796" lon="8.58419">
        <ele>892</ele>
        <time>2021-08-10T12:17:48.367Z</time>
      </trkpt>
      <trkpt lat="46.91795" lon="8.58418">
        <ele>892</ele>
        <time>2021-08-10T12:17:49.367Z</time>
      </trkpt>
      <trkpt lat="46.91794" lon="8.58417">
        <ele>892</ele>
        <time>2021-08-10T12:17:50.366Z</time>
      </trkpt>
      <trkpt lat="46.91793" lon="8.58416">
        <ele>893</ele>
        <time>2021-08-10T12:17:51.366Z</time>
      </trkpt>
      <trkpt lat="46.91792" lon="8.58415">
        <ele>893</ele>
        <time>2021-08-10T12:17:52.367Z</time>
      </trkpt>
      <trkpt lat="46.91791" lon="8.58414">
        <ele>893</ele>
        <time>2021-08-10T12:17:53.367Z</time>
      </trkpt>
      <trkpt lat="46.91791" lon="8.58413">
        <ele>893</ele>
        <time>2021-08-10T12:17:54.366Z</time>
      </trkpt>
      <trkpt lat="46.9179" lon="8.58412">
        <ele>893</ele>
        <time>2021-08-10T12:17:55.366Z</time>
      </trkpt>
      <trkpt lat="46.91789" lon="8.58411">
        <ele>893</ele>
        <time>2021-08-10T12:17:56.367Z</time>
      </trkpt>
      <trkpt lat="46.91788" lon="8.58409">
        <ele>893</ele>
        <time>2021-08-10T12:17:57.366Z</time>
      </trkpt>
      <trkpt lat="46.91787" lon="8.58409">
        <ele>893</ele>
        <time>2021-08-10T12:17:58.366Z</time>
      </trkpt>
      <trkpt lat="46.91787" lon="8.58408">
        <ele>892</ele>
        <time>2021-08-10T12:17:59.367Z</time>
      </trkpt>
      <trkpt lat="46.91786" lon="8.58407">
        <ele>892</ele>
        <time>2021-08-10T12:18:00.367Z</time>
      </trkpt>
      <trkpt lat="46.91785" lon="8.58406">
        <ele>892</ele>
        <time>2021-08-10T12:18:01.367Z</time>
      </trkpt>
      <trkpt lat="46.91785" lon="8.58405">
        <ele>891</ele>
        <time>2021-08-10T12:18:02.367Z</time>
      </trkpt>
      <trkpt lat="46.91784" lon="8.58404">
        <ele>891</ele>
        <time>2021-08-10T12:18:03.366Z</time>
      </trkpt>
      <trkpt lat="46.91783" lon="8.58403">
        <ele>891</ele>
        <time>2021-08-10T12:18:04.367Z</time>
      </trkpt>
      <trkpt lat="46.91783" lon="8.58402">
        <ele>890</ele>
        <time>2021-08-10T12:18:05.366Z</time>
      </trkpt>
      <trkpt lat="46.91782" lon="8.584">
        <ele>890</ele>
        <time>2021-08-10T12:18:06.366Z</time>
      </trkpt>
      <trkpt lat="46.91781" lon="8.58399">
        <ele>889</ele>
        <time>2021-08-10T12:18:07.367Z</time>
      </trkpt>
      <trkpt lat="46.9178" lon="8.58398">
        <ele>889</ele>
        <time>2021-08-10T12:18:08.367Z</time>
      </trkpt>
      <trkpt lat="46.91779" lon="8.58396">
        <ele>888</ele>
        <time>2021-08-10T12:18:09.366Z</time>
      </trkpt>
      <trkpt lat="46.91778" lon="8.58395">
        <ele>888</ele>
        <time>2021-08-10T12:18:10.367Z</time>
      </trkpt>
      <trkpt lat="46.91778" lon="8.58394">
        <ele>888</ele>
        <time>2021-08-10T12:18:11.366Z</time>
      </trkpt>
      <trkpt lat="46.91777" lon="8.58392">
        <ele>887</ele>
        <time>2021-08-10T12:18:12.367Z</time>
      </trkpt>
      <trkpt lat="46.91776" lon="8.5839">
        <ele>887</ele>
        <time>2021-08-10T12:18:13.366Z</time>
      </trkpt>
      <trkpt lat="46.91776" lon="8.58388">
        <ele>886</ele>
        <time>2021-08-10T12:18:14.366Z</time>
      </trkpt>
      <trkpt lat="46.91775" lon="8.58387">
        <ele>886</ele>
        <time>2021-08-10T12:18:15.367Z</time>
      </trkpt>
      <trkpt lat="46.91775" lon="8.58385">
        <ele>886</ele>
        <time>2021-08-10T12:18:16.367Z</time>
      </trkpt>
      <trkpt lat="46.91773" lon="8.58382">
        <ele>886</ele>
        <time>2021-08-10T12:18:17.367Z</time>
      </trkpt>
      <trkpt lat="46.91773" lon="8.58381">
        <ele>886</ele>
        <time>2021-08-10T12:18:18.367Z</time>
      </trkpt>
      <trkpt lat="46.91772" lon="8.58381">
        <ele>887</ele>
        <time>2021-08-10T12:18:19.367Z</time>
      </trkpt>
      <trkpt lat="46.91772" lon="8.58381">
        <ele>887</ele>
        <time>2021-08-10T12:18:20.367Z</time>
      </trkpt>
      <trkpt lat="46.91772" lon="8.58381">
        <ele>887</ele>
        <time>2021-08-10T12:18:21.366Z</time>
      </trkpt>
      <trkpt lat="46.91772" lon="8.58388">
        <ele>887</ele>
        <time>2021-08-10T12:18:22.367Z</time>
      </trkpt>
      <trkpt lat="46.91773" lon="8.5839">
        <ele>887</ele>
        <time>2021-08-10T12:18:23.367Z</time>
      </trkpt>
      <trkpt lat="46.91773" lon="8.58392">
        <ele>887</ele>
        <time>2021-08-10T12:18:24.367Z</time>
      </trkpt>
      <trkpt lat="46.91773" lon="8.58393">
        <ele>887</ele>
        <time>2021-08-10T12:18:25.367Z</time>
      </trkpt>
      <trkpt lat="46.91773" lon="8.58395">
        <ele>887</ele>
        <time>2021-08-10T12:18:26.367Z</time>
      </trkpt>
      <trkpt lat="46.91773" lon="8.58397">
        <ele>888</ele>
        <time>2021-08-10T12:18:28.464Z</time>
      </trkpt>
      <trkpt lat="46.9177" lon="8.58401">
        <ele>885</ele>
        <time>2021-08-10T12:18:29.466Z</time>
      </trkpt>
      <trkpt lat="46.91771" lon="8.584">
        <ele>886</ele>
        <time>2021-08-10T12:18:30.465Z</time>
      </trkpt>
      <trkpt lat="46.91771" lon="8.58399">
        <ele>886</ele>
        <time>2021-08-10T12:18:31.466Z</time>
      </trkpt>
      <trkpt lat="46.91771" lon="8.58398">
        <ele>887</ele>
        <time>2021-08-10T12:18:32.465Z</time>
      </trkpt>
      <trkpt lat="46.9177" lon="8.58395">
        <ele>892</ele>
        <time>2021-08-10T12:18:33.466Z</time>
      </trkpt>
      <trkpt lat="46.9177" lon="8.58394">
        <ele>892</ele>
        <time>2021-08-10T12:18:34.465Z</time>
      </trkpt>
      <trkpt lat="46.9177" lon="8.58392">
        <ele>892</ele>
        <time>2021-08-10T12:18:35.465Z</time>
      </trkpt>
      <trkpt lat="46.9177" lon="8.58391">
        <ele>891</ele>
        <time>2021-08-10T12:18:36.466Z</time>
      </trkpt>
      <trkpt lat="46.9177" lon="8.58389">
        <ele>891</ele>
        <time>2021-08-10T12:18:38.483Z</time>
      </trkpt>
      <trkpt lat="46.91769" lon="8.58388">
        <ele>891</ele>
        <time>2021-08-10T12:18:39.484Z</time>
      </trkpt>
      <trkpt lat="46.91769" lon="8.58387">
        <ele>890</ele>
        <time>2021-08-10T12:18:40.484Z</time>
      </trkpt>
      <trkpt lat="46.91769" lon="8.58388">
        <ele>890</ele>
        <time>2021-08-10T12:18:41.484Z</time>
      </trkpt>
      <trkpt lat="46.91768" lon="8.58388">
        <ele>889</ele>
        <time>2021-08-10T12:18:42.484Z</time>
      </trkpt>
      <trkpt lat="46.91768" lon="8.58386">
        <ele>889</ele>
        <time>2021-08-10T12:18:43.484Z</time>
      </trkpt>
      <trkpt lat="46.91767" lon="8.58385">
        <ele>889</ele>
        <time>2021-08-10T12:18:44.484Z</time>
      </trkpt>
      <trkpt lat="46.91767" lon="8.58384">
        <ele>889</ele>
        <time>2021-08-10T12:18:45.483Z</time>
      </trkpt>
      <trkpt lat="46.91766" lon="8.58383">
        <ele>889</ele>
        <time>2021-08-10T12:18:46.484Z</time>
      </trkpt>
      <trkpt lat="46.91766" lon="8.58382">
        <ele>889</ele>
        <time>2021-08-10T12:18:47.483Z</time>
      </trkpt>
      <trkpt lat="46.91765" lon="8.58381">
        <ele>888</ele>
        <time>2021-08-10T12:18:48.484Z</time>
      </trkpt>
      <trkpt lat="46.91765" lon="8.58379">
        <ele>888</ele>
        <time>2021-08-10T12:18:49.484Z</time>
      </trkpt>
      <trkpt lat="46.91764" lon="8.58377">
        <ele>888</ele>
        <time>2021-08-10T12:18:50.484Z</time>
      </trkpt>
      <trkpt lat="46.91764" lon="8.58376">
        <ele>888</ele>
        <time>2021-08-10T12:18:51.483Z</time>
      </trkpt>
      <trkpt lat="46.91763" lon="8.58374">
        <ele>888</ele>
        <time>2021-08-10T12:18:52.484Z</time>
      </trkpt>
      <trkpt lat="46.91762" lon="8.58372">
        <ele>888</ele>
        <time>2021-08-10T12:18:53.484Z</time>
      </trkpt>
      <trkpt lat="46.91761" lon="8.5837">
        <ele>889</ele>
        <time>2021-08-10T12:18:54.484Z</time>
      </trkpt>
      <trkpt lat="46.9176" lon="8.58368">
        <ele>888</ele>
        <time>2021-08-10T12:18:55.484Z</time>
      </trkpt>
      <trkpt lat="46.9176" lon="8.58367">
        <ele>888</ele>
        <time>2021-08-10T12:18:56.483Z</time>
      </trkpt>
      <trkpt lat="46.91759" lon="8.58367">
        <ele>888</ele>
        <time>2021-08-10T12:18:57.483Z</time>
      </trkpt>
      <trkpt lat="46.91758" lon="8.58365">
        <ele>888</ele>
        <time>2021-08-10T12:18:58.484Z</time>
      </trkpt>
      <trkpt lat="46.91757" lon="8.58363">
        <ele>889</ele>
        <time>2021-08-10T12:18:59.484Z</time>
      </trkpt>
      <trkpt lat="46.91756" lon="8.58361">
        <ele>890</ele>
        <time>2021-08-10T12:19:00.484Z</time>
      </trkpt>
      <trkpt lat="46.91756" lon="8.5836">
        <ele>890</ele>
        <time>2021-08-10T12:19:01.484Z</time>
      </trkpt>
      <trkpt lat="46.91755" lon="8.58358">
        <ele>890</ele>
        <time>2021-08-10T12:19:02.483Z</time>
      </trkpt>
      <trkpt lat="46.91753" lon="8.58357">
        <ele>891</ele>
        <time>2021-08-10T12:19:03.484Z</time>
      </trkpt>
      <trkpt lat="46.91753" lon="8.58356">
        <ele>891</ele>
        <time>2021-08-10T12:19:04.483Z</time>
      </trkpt>
      <trkpt lat="46.91752" lon="8.58354">
        <ele>891</ele>
        <time>2021-08-10T12:19:05.484Z</time>
      </trkpt>
      <trkpt lat="46.91752" lon="8.58353">
        <ele>891</ele>
        <time>2021-08-10T12:19:06.484Z</time>
      </trkpt>
      <trkpt lat="46.91751" lon="8.58352">
        <ele>891</ele>
        <time>2021-08-10T12:19:07.483Z</time>
      </trkpt>
      <trkpt lat="46.9175" lon="8.58351">
        <ele>891</ele>
        <time>2021-08-10T12:19:08.484Z</time>
      </trkpt>
      <trkpt lat="46.91749" lon="8.58349">
        <ele>890</ele>
        <time>2021-08-10T12:19:09.484Z</time>
      </trkpt>
      <trkpt lat="46.91748" lon="8.58348">
        <ele>890</ele>
        <time>2021-08-10T12:19:10.484Z</time>
      </trkpt>
      <trkpt lat="46.91747" lon="8.58347">
        <ele>890</ele>
        <time>2021-08-10T12:19:11.484Z</time>
      </trkpt>
      <trkpt lat="46.91746" lon="8.58346">
        <ele>890</ele>
        <time>2021-08-10T12:19:12.483Z</time>
      </trkpt>
      <trkpt lat="46.91745" lon="8.58345">
        <ele>890</ele>
        <time>2021-08-10T12:19:13.484Z</time>
      </trkpt>
      <trkpt lat="46.91744" lon="8.58343">
        <ele>890</ele>
        <time>2021-08-10T12:19:14.484Z</time>
      </trkpt>
      <trkpt lat="46.91744" lon="8.58341">
        <ele>890</ele>
        <time>2021-08-10T12:19:15.483Z</time>
      </trkpt>
      <trkpt lat="46.91743" lon="8.5834">
        <ele>891</ele>
        <time>2021-08-10T12:19:16.484Z</time>
      </trkpt>
      <trkpt lat="46.91742" lon="8.58338">
        <ele>891</ele>
        <time>2021-08-10T12:19:17.483Z</time>
      </trkpt>
      <trkpt lat="46.91741" lon="8.58337">
        <ele>891</ele>
        <time>2021-08-10T12:19:18.484Z</time>
      </trkpt>
      <trkpt lat="46.9174" lon="8.58336">
        <ele>892</ele>
        <time>2021-08-10T12:19:19.484Z</time>
      </trkpt>
      <trkpt lat="46.91739" lon="8.58335">
        <ele>892</ele>
        <time>2021-08-10T12:19:20.483Z</time>
      </trkpt>
      <trkpt lat="46.91739" lon="8.58334">
        <ele>892</ele>
        <time>2021-08-10T12:19:21.484Z</time>
      </trkpt>
      <trkpt lat="46.91738" lon="8.58333">
        <ele>892</ele>
        <time>2021-08-10T12:19:22.484Z</time>
      </trkpt>
      <trkpt lat="46.91737" lon="8.58332">
        <ele>893</ele>
        <time>2021-08-10T12:19:23.484Z</time>
      </trkpt>
      <trkpt lat="46.91736" lon="8.58331">
        <ele>893</ele>
        <time>2021-08-10T12:19:24.484Z</time>
      </trkpt>
      <trkpt lat="46.91736" lon="8.5833">
        <ele>893</ele>
        <time>2021-08-10T12:19:25.484Z</time>
      </trkpt>
      <trkpt lat="46.91734" lon="8.5833">
        <ele>893</ele>
        <time>2021-08-10T12:19:26.484Z</time>
      </trkpt>
      <trkpt lat="46.91734" lon="8.58329">
        <ele>893</ele>
        <time>2021-08-10T12:19:27.483Z</time>
      </trkpt>
      <trkpt lat="46.91732" lon="8.58326">
        <ele>893</ele>
        <time>2021-08-10T12:19:28.484Z</time>
      </trkpt>
      <trkpt lat="46.91731" lon="8.58324">
        <ele>893</ele>
        <time>2021-08-10T12:19:29.484Z</time>
      </trkpt>
      <trkpt lat="46.91731" lon="8.58325">
        <ele>893</ele>
        <time>2021-08-10T12:19:30.484Z</time>
      </trkpt>
      <trkpt lat="46.91731" lon="8.58324">
        <ele>894</ele>
        <time>2021-08-10T12:19:31.484Z</time>
      </trkpt>
      <trkpt lat="46.9173" lon="8.58323">
        <ele>894</ele>
        <time>2021-08-10T12:19:32.483Z</time>
      </trkpt>
      <trkpt lat="46.91729" lon="8.58323">
        <ele>894</ele>
        <time>2021-08-10T12:19:33.484Z</time>
      </trkpt>
      <trkpt lat="46.91728" lon="8.58321">
        <ele>895</ele>
        <time>2021-08-10T12:19:34.484Z</time>
      </trkpt>
      <trkpt lat="46.91728" lon="8.5832">
        <ele>895</ele>
        <time>2021-08-10T12:19:35.484Z</time>
      </trkpt>
      <trkpt lat="46.91727" lon="8.58318">
        <ele>895</ele>
        <time>2021-08-10T12:19:36.483Z</time>
      </trkpt>
      <trkpt lat="46.91726" lon="8.58316">
        <ele>896</ele>
        <time>2021-08-10T12:19:37.483Z</time>
      </trkpt>
      <trkpt lat="46.91725" lon="8.58315">
        <ele>896</ele>
        <time>2021-08-10T12:19:38.483Z</time>
      </trkpt>
      <trkpt lat="46.91725" lon="8.58315">
        <ele>896</ele>
        <time>2021-08-10T12:19:39.484Z</time>
      </trkpt>
      <trkpt lat="46.91724" lon="8.58314">
        <ele>896</ele>
        <time>2021-08-10T12:19:40.483Z</time>
      </trkpt>
      <trkpt lat="46.91723" lon="8.58313">
        <ele>896</ele>
        <time>2021-08-10T12:19:41.483Z</time>
      </trkpt>
      <trkpt lat="46.91723" lon="8.58312">
        <ele>896</ele>
        <time>2021-08-10T12:19:42.483Z</time>
      </trkpt>
      <trkpt lat="46.91723" lon="8.58311">
        <ele>896</ele>
        <time>2021-08-10T12:19:43.483Z</time>
      </trkpt>
      <trkpt lat="46.91722" lon="8.5831">
        <ele>896</ele>
        <time>2021-08-10T12:19:44.483Z</time>
      </trkpt>
      <trkpt lat="46.91721" lon="8.5831">
        <ele>896</ele>
        <time>2021-08-10T12:19:45.483Z</time>
      </trkpt>
      <trkpt lat="46.91721" lon="8.58309">
        <ele>896</ele>
        <time>2021-08-10T12:19:46.483Z</time>
      </trkpt>
      <trkpt lat="46.9172" lon="8.58308">
        <ele>896</ele>
        <time>2021-08-10T12:19:47.483Z</time>
      </trkpt>
      <trkpt lat="46.9172" lon="8.58308">
        <ele>896</ele>
        <time>2021-08-10T12:19:48.483Z</time>
      </trkpt>
      <trkpt lat="46.91719" lon="8.58307">
        <ele>896</ele>
        <time>2021-08-10T12:19:49.483Z</time>
      </trkpt>
      <trkpt lat="46.91719" lon="8.58306">
        <ele>896</ele>
        <time>2021-08-10T12:19:50.483Z</time>
      </trkpt>
      <trkpt lat="46.91718" lon="8.58305">
        <ele>896</ele>
        <time>2021-08-10T12:19:51.483Z</time>
      </trkpt>
      <trkpt lat="46.91718" lon="8.58304">
        <ele>897</ele>
        <time>2021-08-10T12:19:52.483Z</time>
      </trkpt>
      <trkpt lat="46.91717" lon="8.58303">
        <ele>897</ele>
        <time>2021-08-10T12:19:53.483Z</time>
      </trkpt>
      <trkpt lat="46.91717" lon="8.58301">
        <ele>897</ele>
        <time>2021-08-10T12:19:54.483Z</time>
      </trkpt>
      <trkpt lat="46.91716" lon="8.583">
        <ele>897</ele>
        <time>2021-08-10T12:19:55.483Z</time>
      </trkpt>
      <trkpt lat="46.91715" lon="8.58299">
        <ele>897</ele>
        <time>2021-08-10T12:19:56.483Z</time>
      </trkpt>
      <trkpt lat="46.91715" lon="8.58298">
        <ele>897</ele>
        <time>2021-08-10T12:19:57.484Z</time>
      </trkpt>
      <trkpt lat="46.91714" lon="8.58296">
        <ele>897</ele>
        <time>2021-08-10T12:19:58.483Z</time>
      </trkpt>
      <trkpt lat="46.91714" lon="8.58295">
        <ele>897</ele>
        <time>2021-08-10T12:19:59.484Z</time>
      </trkpt>
      <trkpt lat="46.91714" lon="8.58294">
        <ele>897</ele>
        <time>2021-08-10T12:20:00.484Z</time>
      </trkpt>
      <trkpt lat="46.91714" lon="8.58293">
        <ele>897</ele>
        <time>2021-08-10T12:20:01.484Z</time>
      </trkpt>
      <trkpt lat="46.91714" lon="8.58292">
        <ele>897</ele>
        <time>2021-08-10T12:20:02.484Z</time>
      </trkpt>
      <trkpt lat="46.91714" lon="8.58291">
        <ele>897</ele>
        <time>2021-08-10T12:20:03.484Z</time>
      </trkpt>
      <trkpt lat="46.91713" lon="8.58289">
        <ele>898</ele>
        <time>2021-08-10T12:20:04.484Z</time>
      </trkpt>
      <trkpt lat="46.91713" lon="8.58287">
        <ele>898</ele>
        <time>2021-08-10T12:20:05.484Z</time>
      </trkpt>
      <trkpt lat="46.91712" lon="8.58285">
        <ele>898</ele>
        <time>2021-08-10T12:20:06.483Z</time>
      </trkpt>
      <trkpt lat="46.91712" lon="8.58283">
        <ele>899</ele>
        <time>2021-08-10T12:20:07.483Z</time>
      </trkpt>
      <trkpt lat="46.91711" lon="8.58282">
        <ele>899</ele>
        <time>2021-08-10T12:20:08.484Z</time>
      </trkpt>
      <trkpt lat="46.91711" lon="8.58281">
        <ele>900</ele>
        <time>2021-08-10T12:20:09.484Z</time>
      </trkpt>
      <trkpt lat="46.91711" lon="8.5828">
        <ele>900</ele>
        <time>2021-08-10T12:20:10.484Z</time>
      </trkpt>
      <trkpt lat="46.9171" lon="8.58278">
        <ele>900</ele>
        <time>2021-08-10T12:20:11.483Z</time>
      </trkpt>
      <trkpt lat="46.91709" lon="8.58277">
        <ele>900</ele>
        <time>2021-08-10T12:20:12.484Z</time>
      </trkpt>
      <trkpt lat="46.91708" lon="8.58275">
        <ele>900</ele>
        <time>2021-08-10T12:20:13.483Z</time>
      </trkpt>
      <trkpt lat="46.91708" lon="8.58273">
        <ele>900</ele>
        <time>2021-08-10T12:20:14.483Z</time>
      </trkpt>
      <trkpt lat="46.91707" lon="8.58272">
        <ele>900</ele>
        <time>2021-08-10T12:20:15.484Z</time>
      </trkpt>
      <trkpt lat="46.91707" lon="8.5827">
        <ele>900</ele>
        <time>2021-08-10T12:20:16.484Z</time>
      </trkpt>
      <trkpt lat="46.91706" lon="8.58269">
        <ele>900</ele>
        <time>2021-08-10T12:20:17.484Z</time>
      </trkpt>
      <trkpt lat="46.91705" lon="8.58267">
        <ele>901</ele>
        <time>2021-08-10T12:20:18.483Z</time>
      </trkpt>
      <trkpt lat="46.91705" lon="8.58266">
        <ele>901</ele>
        <time>2021-08-10T12:20:19.484Z</time>
      </trkpt>
      <trkpt lat="46.91704" lon="8.58265">
        <ele>901</ele>
        <time>2021-08-10T12:20:20.483Z</time>
      </trkpt>
      <trkpt lat="46.91704" lon="8.58264">
        <ele>901</ele>
        <time>2021-08-10T12:20:21.484Z</time>
      </trkpt>
      <trkpt lat="46.91703" lon="8.58263">
        <ele>901</ele>
        <time>2021-08-10T12:20:22.484Z</time>
      </trkpt>
      <trkpt lat="46.91703" lon="8.58262">
        <ele>901</ele>
        <time>2021-08-10T12:20:23.483Z</time>
      </trkpt>
      <trkpt lat="46.91703" lon="8.58261">
        <ele>901</ele>
        <time>2021-08-10T12:20:24.483Z</time>
      </trkpt>
      <trkpt lat="46.91702" lon="8.58259">
        <ele>901</ele>
        <time>2021-08-10T12:20:25.484Z</time>
      </trkpt>
      <trkpt lat="46.91702" lon="8.58258">
        <ele>901</ele>
        <time>2021-08-10T12:20:26.483Z</time>
      </trkpt>
      <trkpt lat="46.91701" lon="8.58257">
        <ele>901</ele>
        <time>2021-08-10T12:20:27.484Z</time>
      </trkpt>
      <trkpt lat="46.91701" lon="8.58257">
        <ele>901</ele>
        <time>2021-08-10T12:20:28.484Z</time>
      </trkpt>
      <trkpt lat="46.917" lon="8.58256">
        <ele>902</ele>
        <time>2021-08-10T12:20:29.483Z</time>
      </trkpt>
      <trkpt lat="46.917" lon="8.58256">
        <ele>903</ele>
        <time>2021-08-10T12:20:30.483Z</time>
      </trkpt>
      <trkpt lat="46.91699" lon="8.58255">
        <ele>903</ele>
        <time>2021-08-10T12:20:31.483Z</time>
      </trkpt>
      <trkpt lat="46.91698" lon="8.58254">
        <ele>903</ele>
        <time>2021-08-10T12:20:32.484Z</time>
      </trkpt>
      <trkpt lat="46.91698" lon="8.58253">
        <ele>904</ele>
        <time>2021-08-10T12:20:33.484Z</time>
      </trkpt>
      <trkpt lat="46.91698" lon="8.58251">
        <ele>904</ele>
        <time>2021-08-10T12:20:34.484Z</time>
      </trkpt>
      <trkpt lat="46.91697" lon="8.5825">
        <ele>904</ele>
        <time>2021-08-10T12:20:35.483Z</time>
      </trkpt>
      <trkpt lat="46.91696" lon="8.58249">
        <ele>904</ele>
        <time>2021-08-10T12:20:36.483Z</time>
      </trkpt>
      <trkpt lat="46.91696" lon="8.58249">
        <ele>905</ele>
        <time>2021-08-10T12:20:37.483Z</time>
      </trkpt>
      <trkpt lat="46.91695" lon="8.58248">
        <ele>905</ele>
        <time>2021-08-10T12:20:38.483Z</time>
      </trkpt>
      <trkpt lat="46.91695" lon="8.58247">
        <ele>905</ele>
        <time>2021-08-10T12:20:39.484Z</time>
      </trkpt>
      <trkpt lat="46.91694" lon="8.58246">
        <ele>905</ele>
        <time>2021-08-10T12:20:40.484Z</time>
      </trkpt>
      <trkpt lat="46.91694" lon="8.58246">
        <ele>905</ele>
        <time>2021-08-10T12:20:41.484Z</time>
      </trkpt>
      <trkpt lat="46.91693" lon="8.58246">
        <ele>905</ele>
        <time>2021-08-10T12:20:42.483Z</time>
      </trkpt>
      <trkpt lat="46.91693" lon="8.58246">
        <ele>905</ele>
        <time>2021-08-10T12:20:43.484Z</time>
      </trkpt>
      <trkpt lat="46.91692" lon="8.58245">
        <ele>904</ele>
        <time>2021-08-10T12:20:44.483Z</time>
      </trkpt>
      <trkpt lat="46.91691" lon="8.58245">
        <ele>904</ele>
        <time>2021-08-10T12:20:45.483Z</time>
      </trkpt>
      <trkpt lat="46.9169" lon="8.58244">
        <ele>903</ele>
        <time>2021-08-10T12:20:46.483Z</time>
      </trkpt>
      <trkpt lat="46.91689" lon="8.58244">
        <ele>903</ele>
        <time>2021-08-10T12:20:47.483Z</time>
      </trkpt>
      <trkpt lat="46.91689" lon="8.58243">
        <ele>903</ele>
        <time>2021-08-10T12:20:48.484Z</time>
      </trkpt>
      <trkpt lat="46.91688" lon="8.58243">
        <ele>902</ele>
        <time>2021-08-10T12:20:49.483Z</time>
      </trkpt>
      <trkpt lat="46.91687" lon="8.58243">
        <ele>901</ele>
        <time>2021-08-10T12:20:50.484Z</time>
      </trkpt>
      <trkpt lat="46.91686" lon="8.58241">
        <ele>901</ele>
        <time>2021-08-10T12:20:51.484Z</time>
      </trkpt>
      <trkpt lat="46.91685" lon="8.58239">
        <ele>901</ele>
        <time>2021-08-10T12:20:52.484Z</time>
      </trkpt>
      <trkpt lat="46.91684" lon="8.58237">
        <ele>900</ele>
        <time>2021-08-10T12:20:53.484Z</time>
      </trkpt>
      <trkpt lat="46.91683" lon="8.58236">
        <ele>900</ele>
        <time>2021-08-10T12:20:54.484Z</time>
      </trkpt>
      <trkpt lat="46.91682" lon="8.58234">
        <ele>900</ele>
        <time>2021-08-10T12:20:55.484Z</time>
      </trkpt>
      <trkpt lat="46.91681" lon="8.58232">
        <ele>900</ele>
        <time>2021-08-10T12:20:56.483Z</time>
      </trkpt>
      <trkpt lat="46.91681" lon="8.58232">
        <ele>900</ele>
        <time>2021-08-10T12:20:57.484Z</time>
      </trkpt>
      <trkpt lat="46.9168" lon="8.58231">
        <ele>900</ele>
        <time>2021-08-10T12:20:58.483Z</time>
      </trkpt>
      <trkpt lat="46.9168" lon="8.5823">
        <ele>899</ele>
        <time>2021-08-10T12:20:59.484Z</time>
      </trkpt>
      <trkpt lat="46.9168" lon="8.58229">
        <ele>899</ele>
        <time>2021-08-10T12:21:00.484Z</time>
      </trkpt>
      <trkpt lat="46.91679" lon="8.58227">
        <ele>899</ele>
        <time>2021-08-10T12:21:01.484Z</time>
      </trkpt>
      <trkpt lat="46.91679" lon="8.58226">
        <ele>898</ele>
        <time>2021-08-10T12:21:02.484Z</time>
      </trkpt>
      <trkpt lat="46.91678" lon="8.58225">
        <ele>898</ele>
        <time>2021-08-10T12:21:03.483Z</time>
      </trkpt>
      <trkpt lat="46.91678" lon="8.58224">
        <ele>898</ele>
        <time>2021-08-10T12:21:04.484Z</time>
      </trkpt>
      <trkpt lat="46.91678" lon="8.58223">
        <ele>898</ele>
        <time>2021-08-10T12:21:05.484Z</time>
      </trkpt>
      <trkpt lat="46.91677" lon="8.58222">
        <ele>897</ele>
        <time>2021-08-10T12:21:06.483Z</time>
      </trkpt>
      <trkpt lat="46.91677" lon="8.58222">
        <ele>897</ele>
        <time>2021-08-10T12:21:07.484Z</time>
      </trkpt>
      <trkpt lat="46.91677" lon="8.58222">
        <ele>897</ele>
        <time>2021-08-10T12:21:08.484Z</time>
      </trkpt>
      <trkpt lat="46.91676" lon="8.58219">
        <ele>897</ele>
        <time>2021-08-10T12:21:09.484Z</time>
      </trkpt>
      <trkpt lat="46.91675" lon="8.58218">
        <ele>897</ele>
        <time>2021-08-10T12:21:10.484Z</time>
      </trkpt>
      <trkpt lat="46.91674" lon="8.58217">
        <ele>898</ele>
        <time>2021-08-10T12:21:11.484Z</time>
      </trkpt>
      <trkpt lat="46.91674" lon="8.58215">
        <ele>898</ele>
        <time>2021-08-10T12:21:12.484Z</time>
      </trkpt>
      <trkpt lat="46.91673" lon="8.58213">
        <ele>898</ele>
        <time>2021-08-10T12:21:13.483Z</time>
      </trkpt>
      <trkpt lat="46.91672" lon="8.58211">
        <ele>899</ele>
        <time>2021-08-10T12:21:14.484Z</time>
      </trkpt>
      <trkpt lat="46.91672" lon="8.58209">
        <ele>899</ele>
        <time>2021-08-10T12:21:15.484Z</time>
      </trkpt>
      <trkpt lat="46.91671" lon="8.58207">
        <ele>900</ele>
        <time>2021-08-10T12:21:16.484Z</time>
      </trkpt>
      <trkpt lat="46.9167" lon="8.58205">
        <ele>900</ele>
        <time>2021-08-10T12:21:17.483Z</time>
      </trkpt>
      <trkpt lat="46.9167" lon="8.58204">
        <ele>900</ele>
        <time>2021-08-10T12:21:18.484Z</time>
      </trkpt>
      <trkpt lat="46.9167" lon="8.58203">
        <ele>900</ele>
        <time>2021-08-10T12:21:19.483Z</time>
      </trkpt>
      <trkpt lat="46.91669" lon="8.58202">
        <ele>900</ele>
        <time>2021-08-10T12:21:20.483Z</time>
      </trkpt>
      <trkpt lat="46.91669" lon="8.58202">
        <ele>900</ele>
        <time>2021-08-10T12:21:21.484Z</time>
      </trkpt>
      <trkpt lat="46.91669" lon="8.58202">
        <ele>900</ele>
        <time>2021-08-10T12:21:22.483Z</time>
      </trkpt>
      <trkpt lat="46.91668" lon="8.58202">
        <ele>899</ele>
        <time>2021-08-10T12:21:23.484Z</time>
      </trkpt>
      <trkpt lat="46.91667" lon="8.58201">
        <ele>899</ele>
        <time>2021-08-10T12:21:24.484Z</time>
      </trkpt>
      <trkpt lat="46.91667" lon="8.582">
        <ele>899</ele>
        <time>2021-08-10T12:21:25.483Z</time>
      </trkpt>
      <trkpt lat="46.91667" lon="8.58199">
        <ele>899</ele>
        <time>2021-08-10T12:21:26.484Z</time>
      </trkpt>
      <trkpt lat="46.91666" lon="8.58198">
        <ele>899</ele>
        <time>2021-08-10T12:21:27.484Z</time>
      </trkpt>
      <trkpt lat="46.91666" lon="8.58197">
        <ele>899</ele>
        <time>2021-08-10T12:21:28.483Z</time>
      </trkpt>
      <trkpt lat="46.91665" lon="8.58196">
        <ele>899</ele>
        <time>2021-08-10T12:21:29.484Z</time>
      </trkpt>
      <trkpt lat="46.91664" lon="8.58194">
        <ele>900</ele>
        <time>2021-08-10T12:21:30.484Z</time>
      </trkpt>
      <trkpt lat="46.91663" lon="8.58193">
        <ele>900</ele>
        <time>2021-08-10T12:21:31.484Z</time>
      </trkpt>
      <trkpt lat="46.91663" lon="8.58192">
        <ele>901</ele>
        <time>2021-08-10T12:21:32.484Z</time>
      </trkpt>
      <trkpt lat="46.91663" lon="8.58192">
        <ele>901</ele>
        <time>2021-08-10T12:21:33.483Z</time>
      </trkpt>
      <trkpt lat="46.91663" lon="8.58191">
        <ele>902</ele>
        <time>2021-08-10T12:21:34.483Z</time>
      </trkpt>
      <trkpt lat="46.91662" lon="8.5819">
        <ele>902</ele>
        <time>2021-08-10T12:21:35.483Z</time>
      </trkpt>
      <trkpt lat="46.91662" lon="8.58188">
        <ele>903</ele>
        <time>2021-08-10T12:21:36.483Z</time>
      </trkpt>
      <trkpt lat="46.91661" lon="8.58187">
        <ele>903</ele>
        <time>2021-08-10T12:21:37.484Z</time>
      </trkpt>
      <trkpt lat="46.91661" lon="8.58186">
        <ele>904</ele>
        <time>2021-08-10T12:21:38.483Z</time>
      </trkpt>
      <trkpt lat="46.9166" lon="8.58184">
        <ele>905</ele>
        <time>2021-08-10T12:21:39.483Z</time>
      </trkpt>
      <trkpt lat="46.91659" lon="8.58182">
        <ele>906</ele>
        <time>2021-08-10T12:21:40.483Z</time>
      </trkpt>
      <trkpt lat="46.91658" lon="8.5818">
        <ele>907</ele>
        <time>2021-08-10T12:21:41.483Z</time>
      </trkpt>
      <trkpt lat="46.91657" lon="8.58179">
        <ele>907</ele>
        <time>2021-08-10T12:21:42.484Z</time>
      </trkpt>
      <trkpt lat="46.91656" lon="8.58177">
        <ele>908</ele>
        <time>2021-08-10T12:21:43.483Z</time>
      </trkpt>
      <trkpt lat="46.91656" lon="8.58175">
        <ele>908</ele>
        <time>2021-08-10T12:21:44.483Z</time>
      </trkpt>
      <trkpt lat="46.91655" lon="8.58172">
        <ele>908</ele>
        <time>2021-08-10T12:21:45.483Z</time>
      </trkpt>
      <trkpt lat="46.91653" lon="8.5817">
        <ele>908</ele>
        <time>2021-08-10T12:21:46.484Z</time>
      </trkpt>
      <trkpt lat="46.91653" lon="8.58169">
        <ele>909</ele>
        <time>2021-08-10T12:21:47.483Z</time>
      </trkpt>
      <trkpt lat="46.91652" lon="8.58167">
        <ele>910</ele>
        <time>2021-08-10T12:21:48.483Z</time>
      </trkpt>
      <trkpt lat="46.91651" lon="8.58166">
        <ele>910</ele>
        <time>2021-08-10T12:21:49.483Z</time>
      </trkpt>
      <trkpt lat="46.9165" lon="8.58165">
        <ele>910</ele>
        <time>2021-08-10T12:21:50.483Z</time>
      </trkpt>
      <trkpt lat="46.9165" lon="8.58163">
        <ele>911</ele>
        <time>2021-08-10T12:21:51.483Z</time>
      </trkpt>
      <trkpt lat="46.91649" lon="8.58162">
        <ele>911</ele>
        <time>2021-08-10T12:21:52.483Z</time>
      </trkpt>
      <trkpt lat="46.91649" lon="8.58161">
        <ele>911</ele>
        <time>2021-08-10T12:21:53.484Z</time>
      </trkpt>
      <trkpt lat="46.91649" lon="8.5816">
        <ele>911</ele>
        <time>2021-08-10T12:21:54.483Z</time>
      </trkpt>
      <trkpt lat="46.91649" lon="8.5816">
        <ele>911</ele>
        <time>2021-08-10T12:21:55.483Z</time>
      </trkpt>
      <trkpt lat="46.91649" lon="8.58159">
        <ele>911</ele>
        <time>2021-08-10T12:21:56.483Z</time>
      </trkpt>
      <trkpt lat="46.91648" lon="8.58158">
        <ele>911</ele>
        <time>2021-08-10T12:21:57.483Z</time>
      </trkpt>
      <trkpt lat="46.91648" lon="8.58156">
        <ele>911</ele>
        <time>2021-08-10T12:21:58.483Z</time>
      </trkpt>
      <trkpt lat="46.91648" lon="8.58155">
        <ele>911</ele>
        <time>2021-08-10T12:21:59.483Z</time>
      </trkpt>
      <trkpt lat="46.91647" lon="8.58155">
        <ele>911</ele>
        <time>2021-08-10T12:22:00.483Z</time>
      </trkpt>
      <trkpt lat="46.91647" lon="8.58155">
        <ele>911</ele>
        <time>2021-08-10T12:22:01.483Z</time>
      </trkpt>
      <trkpt lat="46.91647" lon="8.58154">
        <ele>911</ele>
        <time>2021-08-10T12:22:02.484Z</time>
      </trkpt>
      <trkpt lat="46.91647" lon="8.58154">
        <ele>910</ele>
        <time>2021-08-10T12:22:03.483Z</time>
      </trkpt>
      <trkpt lat="46.91646" lon="8.58153">
        <ele>910</ele>
        <time>2021-08-10T12:22:04.483Z</time>
      </trkpt>
      <trkpt lat="46.91645" lon="8.58152">
        <ele>910</ele>
        <time>2021-08-10T12:22:05.483Z</time>
      </trkpt>
      <trkpt lat="46.91645" lon="8.58151">
        <ele>910</ele>
        <time>2021-08-10T12:22:06.484Z</time>
      </trkpt>
      <trkpt lat="46.91644" lon="8.5815">
        <ele>910</ele>
        <time>2021-08-10T12:22:07.483Z</time>
      </trkpt>
      <trkpt lat="46.91644" lon="8.58148">
        <ele>910</ele>
        <time>2021-08-10T12:22:08.484Z</time>
      </trkpt>
      <trkpt lat="46.91644" lon="8.58146">
        <ele>910</ele>
        <time>2021-08-10T12:22:09.484Z</time>
      </trkpt>
      <trkpt lat="46.91643" lon="8.58143">
        <ele>910</ele>
        <time>2021-08-10T12:22:10.483Z</time>
      </trkpt>
      <trkpt lat="46.91642" lon="8.58142">
        <ele>909</ele>
        <time>2021-08-10T12:22:11.483Z</time>
      </trkpt>
      <trkpt lat="46.9164" lon="8.5814">
        <ele>909</ele>
        <time>2021-08-10T12:22:12.483Z</time>
      </trkpt>
      <trkpt lat="46.91638" lon="8.58138">
        <ele>909</ele>
        <time>2021-08-10T12:22:13.484Z</time>
      </trkpt>
      <trkpt lat="46.91638" lon="8.58135">
        <ele>909</ele>
        <time>2021-08-10T12:22:14.484Z</time>
      </trkpt>
      <trkpt lat="46.91638" lon="8.58135">
        <ele>908</ele>
        <time>2021-08-10T12:22:15.484Z</time>
      </trkpt>
      <trkpt lat="46.91638" lon="8.58134">
        <ele>908</ele>
        <time>2021-08-10T12:22:16.484Z</time>
      </trkpt>
      <trkpt lat="46.91638" lon="8.58133">
        <ele>908</ele>
        <time>2021-08-10T12:22:17.483Z</time>
      </trkpt>
      <trkpt lat="46.91638" lon="8.58131">
        <ele>908</ele>
        <time>2021-08-10T12:22:18.483Z</time>
      </trkpt>
      <trkpt lat="46.91638" lon="8.58129">
        <ele>908</ele>
        <time>2021-08-10T12:22:19.484Z</time>
      </trkpt>
      <trkpt lat="46.91637" lon="8.58127">
        <ele>908</ele>
        <time>2021-08-10T12:22:20.484Z</time>
      </trkpt>
      <trkpt lat="46.91637" lon="8.58125">
        <ele>908</ele>
        <time>2021-08-10T12:22:21.484Z</time>
      </trkpt>
      <trkpt lat="46.91636" lon="8.58123">
        <ele>908</ele>
        <time>2021-08-10T12:22:22.484Z</time>
      </trkpt>
      <trkpt lat="46.91636" lon="8.58121">
        <ele>908</ele>
        <time>2021-08-10T12:22:23.484Z</time>
      </trkpt>
      <trkpt lat="46.91636" lon="8.5812">
        <ele>909</ele>
        <time>2021-08-10T12:22:24.484Z</time>
      </trkpt>
      <trkpt lat="46.91635" lon="8.58118">
        <ele>909</ele>
        <time>2021-08-10T12:22:25.483Z</time>
      </trkpt>
      <trkpt lat="46.91635" lon="8.58117">
        <ele>909</ele>
        <time>2021-08-10T12:22:26.484Z</time>
      </trkpt>
      <trkpt lat="46.91636" lon="8.58115">
        <ele>909</ele>
        <time>2021-08-10T12:22:27.484Z</time>
      </trkpt>
      <trkpt lat="46.91636" lon="8.58114">
        <ele>909</ele>
        <time>2021-08-10T12:22:28.484Z</time>
      </trkpt>
      <trkpt lat="46.91637" lon="8.58114">
        <ele>909</ele>
        <time>2021-08-10T12:22:29.484Z</time>
      </trkpt>
      <trkpt lat="46.91637" lon="8.58113">
        <ele>909</ele>
        <time>2021-08-10T12:22:30.483Z</time>
      </trkpt>
      <trkpt lat="46.91637" lon="8.58113">
        <ele>909</ele>
        <time>2021-08-10T12:22:31.484Z</time>
      </trkpt>
      <trkpt lat="46.91636" lon="8.58111">
        <ele>909</ele>
        <time>2021-08-10T12:22:32.484Z</time>
      </trkpt>
      <trkpt lat="46.91635" lon="8.58109">
        <ele>910</ele>
        <time>2021-08-10T12:22:33.483Z</time>
      </trkpt>
      <trkpt lat="46.91634" lon="8.58107">
        <ele>910</ele>
        <time>2021-08-10T12:22:34.484Z</time>
      </trkpt>
      <trkpt lat="46.91634" lon="8.58106">
        <ele>910</ele>
        <time>2021-08-10T12:22:35.483Z</time>
      </trkpt>
      <trkpt lat="46.91633" lon="8.58105">
        <ele>910</ele>
        <time>2021-08-10T12:22:36.484Z</time>
      </trkpt>
      <trkpt lat="46.91633" lon="8.58104">
        <ele>911</ele>
        <time>2021-08-10T12:22:37.484Z</time>
      </trkpt>
      <trkpt lat="46.91632" lon="8.58102">
        <ele>911</ele>
        <time>2021-08-10T12:22:38.484Z</time>
      </trkpt>
      <trkpt lat="46.91632" lon="8.58101">
        <ele>911</ele>
        <time>2021-08-10T12:22:39.484Z</time>
      </trkpt>
      <trkpt lat="46.91631" lon="8.581">
        <ele>912</ele>
        <time>2021-08-10T12:22:40.483Z</time>
      </trkpt>
      <trkpt lat="46.91631" lon="8.58098">
        <ele>913</ele>
        <time>2021-08-10T12:22:41.484Z</time>
      </trkpt>
      <trkpt lat="46.9163" lon="8.58097">
        <ele>913</ele>
        <time>2021-08-10T12:22:42.484Z</time>
      </trkpt>
      <trkpt lat="46.9163" lon="8.58097">
        <ele>913</ele>
        <time>2021-08-10T12:22:43.484Z</time>
      </trkpt>
      <trkpt lat="46.91629" lon="8.58097">
        <ele>913</ele>
        <time>2021-08-10T12:22:44.484Z</time>
      </trkpt>
      <trkpt lat="46.91628" lon="8.58096">
        <ele>913</ele>
        <time>2021-08-10T12:22:45.484Z</time>
      </trkpt>
      <trkpt lat="46.91628" lon="8.58095">
        <ele>913</ele>
        <time>2021-08-10T12:22:46.483Z</time>
      </trkpt>
      <trkpt lat="46.91627" lon="8.58094">
        <ele>913</ele>
        <time>2021-08-10T12:22:47.483Z</time>
      </trkpt>
      <trkpt lat="46.91627" lon="8.58093">
        <ele>912</ele>
        <time>2021-08-10T12:22:48.484Z</time>
      </trkpt>
      <trkpt lat="46.91626" lon="8.58093">
        <ele>912</ele>
        <time>2021-08-10T12:22:49.484Z</time>
      </trkpt>
      <trkpt lat="46.91626" lon="8.58092">
        <ele>912</ele>
        <time>2021-08-10T12:22:50.484Z</time>
      </trkpt>
      <trkpt lat="46.91625" lon="8.58092">
        <ele>912</ele>
        <time>2021-08-10T12:22:51.484Z</time>
      </trkpt>
      <trkpt lat="46.91624" lon="8.58091">
        <ele>912</ele>
        <time>2021-08-10T12:22:52.483Z</time>
      </trkpt>
      <trkpt lat="46.91623" lon="8.5809">
        <ele>911</ele>
        <time>2021-08-10T12:22:53.484Z</time>
      </trkpt>
      <trkpt lat="46.91622" lon="8.58089">
        <ele>911</ele>
        <time>2021-08-10T12:22:54.483Z</time>
      </trkpt>
      <trkpt lat="46.91621" lon="8.58088">
        <ele>911</ele>
        <time>2021-08-10T12:22:55.484Z</time>
      </trkpt>
      <trkpt lat="46.9162" lon="8.58086">
        <ele>911</ele>
        <time>2021-08-10T12:22:56.484Z</time>
      </trkpt>
      <trkpt lat="46.91619" lon="8.58085">
        <ele>910</ele>
        <time>2021-08-10T12:22:57.483Z</time>
      </trkpt>
      <trkpt lat="46.91618" lon="8.58084">
        <ele>910</ele>
        <time>2021-08-10T12:22:58.483Z</time>
      </trkpt>
      <trkpt lat="46.91618" lon="8.58084">
        <ele>910</ele>
        <time>2021-08-10T12:22:59.483Z</time>
      </trkpt>
      <trkpt lat="46.91618" lon="8.58083">
        <ele>910</ele>
        <time>2021-08-10T12:23:00.484Z</time>
      </trkpt>
      <trkpt lat="46.91617" lon="8.58083">
        <ele>910</ele>
        <time>2021-08-10T12:23:01.484Z</time>
      </trkpt>
      <trkpt lat="46.91616" lon="8.58082">
        <ele>910</ele>
        <time>2021-08-10T12:23:02.483Z</time>
      </trkpt>
      <trkpt lat="46.91616" lon="8.58082">
        <ele>910</ele>
        <time>2021-08-10T12:23:03.484Z</time>
      </trkpt>
      <trkpt lat="46.91616" lon="8.58081">
        <ele>910</ele>
        <time>2021-08-10T12:23:04.484Z</time>
      </trkpt>
      <trkpt lat="46.91615" lon="8.5808">
        <ele>910</ele>
        <time>2021-08-10T12:23:05.484Z</time>
      </trkpt>
      <trkpt lat="46.91614" lon="8.58079">
        <ele>909</ele>
        <time>2021-08-10T12:23:06.483Z</time>
      </trkpt>
      <trkpt lat="46.91613" lon="8.58079">
        <ele>909</ele>
        <time>2021-08-10T12:23:07.483Z</time>
      </trkpt>
      <trkpt lat="46.91613" lon="8.58079">
        <ele>909</ele>
        <time>2021-08-10T12:23:08.484Z</time>
      </trkpt>
      <trkpt lat="46.91612" lon="8.58078">
        <ele>909</ele>
        <time>2021-08-10T12:23:09.484Z</time>
      </trkpt>
      <trkpt lat="46.91612" lon="8.58078">
        <ele>909</ele>
        <time>2021-08-10T12:23:10.483Z</time>
      </trkpt>
      <trkpt lat="46.91611" lon="8.58078">
        <ele>909</ele>
        <time>2021-08-10T12:23:11.484Z</time>
      </trkpt>
      <trkpt lat="46.9161" lon="8.58077">
        <ele>908</ele>
        <time>2021-08-10T12:23:12.484Z</time>
      </trkpt>
      <trkpt lat="46.91609" lon="8.58077">
        <ele>908</ele>
        <time>2021-08-10T12:23:13.483Z</time>
      </trkpt>
      <trkpt lat="46.91608" lon="8.58076">
        <ele>908</ele>
        <time>2021-08-10T12:23:14.484Z</time>
      </trkpt>
      <trkpt lat="46.91608" lon="8.58076">
        <ele>908</ele>
        <time>2021-08-10T12:23:15.484Z</time>
      </trkpt>
      <trkpt lat="46.91608" lon="8.58075">
        <ele>908</ele>
        <time>2021-08-10T12:23:16.483Z</time>
      </trkpt>
      <trkpt lat="46.91607" lon="8.58074">
        <ele>908</ele>
        <time>2021-08-10T12:23:17.484Z</time>
      </trkpt>
      <trkpt lat="46.91607" lon="8.58072">
        <ele>908</ele>
        <time>2021-08-10T12:23:18.484Z</time>
      </trkpt>
      <trkpt lat="46.91606" lon="8.58072">
        <ele>907</ele>
        <time>2021-08-10T12:23:19.484Z</time>
      </trkpt>
      <trkpt lat="46.91605" lon="8.58071">
        <ele>907</ele>
        <time>2021-08-10T12:23:20.483Z</time>
      </trkpt>
      <trkpt lat="46.91604" lon="8.58069">
        <ele>906</ele>
        <time>2021-08-10T12:23:21.484Z</time>
      </trkpt>
      <trkpt lat="46.91603" lon="8.58068">
        <ele>905</ele>
        <time>2021-08-10T12:23:22.484Z</time>
      </trkpt>
      <trkpt lat="46.91603" lon="8.58066">
        <ele>905</ele>
        <time>2021-08-10T12:23:23.484Z</time>
      </trkpt>
      <trkpt lat="46.91602" lon="8.58065">
        <ele>904</ele>
        <time>2021-08-10T12:23:24.484Z</time>
      </trkpt>
      <trkpt lat="46.91602" lon="8.58063">
        <ele>904</ele>
        <time>2021-08-10T12:23:25.484Z</time>
      </trkpt>
      <trkpt lat="46.91601" lon="8.58062">
        <ele>904</ele>
        <time>2021-08-10T12:23:26.484Z</time>
      </trkpt>
      <trkpt lat="46.916" lon="8.58061">
        <ele>904</ele>
        <time>2021-08-10T12:23:27.483Z</time>
      </trkpt>
      <trkpt lat="46.916" lon="8.58059">
        <ele>904</ele>
        <time>2021-08-10T12:23:28.484Z</time>
      </trkpt>
      <trkpt lat="46.916" lon="8.58057">
        <ele>903</ele>
        <time>2021-08-10T12:23:29.484Z</time>
      </trkpt>
      <trkpt lat="46.91599" lon="8.58057">
        <ele>903</ele>
        <time>2021-08-10T12:23:30.484Z</time>
      </trkpt>
      <trkpt lat="46.91599" lon="8.58057">
        <ele>903</ele>
        <time>2021-08-10T12:23:31.483Z</time>
      </trkpt>
      <trkpt lat="46.91599" lon="8.58056">
        <ele>902</ele>
        <time>2021-08-10T12:23:32.484Z</time>
      </trkpt>
      <trkpt lat="46.91599" lon="8.58055">
        <ele>902</ele>
        <time>2021-08-10T12:23:33.484Z</time>
      </trkpt>
      <trkpt lat="46.91598" lon="8.58053">
        <ele>902</ele>
        <time>2021-08-10T12:23:34.483Z</time>
      </trkpt>
      <trkpt lat="46.91597" lon="8.58052">
        <ele>903</ele>
        <time>2021-08-10T12:23:35.484Z</time>
      </trkpt>
      <trkpt lat="46.91596" lon="8.5805">
        <ele>903</ele>
        <time>2021-08-10T12:23:36.484Z</time>
      </trkpt>
      <trkpt lat="46.91595" lon="8.5805">
        <ele>903</ele>
        <time>2021-08-10T12:23:37.483Z</time>
      </trkpt>
      <trkpt lat="46.91595" lon="8.58048">
        <ele>903</ele>
        <time>2021-08-10T12:23:38.483Z</time>
      </trkpt>
      <trkpt lat="46.91594" lon="8.58048">
        <ele>902</ele>
        <time>2021-08-10T12:23:39.484Z</time>
      </trkpt>
      <trkpt lat="46.91594" lon="8.58047">
        <ele>901</ele>
        <time>2021-08-10T12:23:40.483Z</time>
      </trkpt>
      <trkpt lat="46.91594" lon="8.58045">
        <ele>901</ele>
        <time>2021-08-10T12:23:41.484Z</time>
      </trkpt>
      <trkpt lat="46.91593" lon="8.58045">
        <ele>900</ele>
        <time>2021-08-10T12:23:42.484Z</time>
      </trkpt>
      <trkpt lat="46.91593" lon="8.58044">
        <ele>899</ele>
        <time>2021-08-10T12:23:43.484Z</time>
      </trkpt>
      <trkpt lat="46.91592" lon="8.58042">
        <ele>898</ele>
        <time>2021-08-10T12:23:44.484Z</time>
      </trkpt>
      <trkpt lat="46.91591" lon="8.58041">
        <ele>898</ele>
        <time>2021-08-10T12:23:45.483Z</time>
      </trkpt>
      <trkpt lat="46.91591" lon="8.5804">
        <ele>897</ele>
        <time>2021-08-10T12:23:46.483Z</time>
      </trkpt>
      <trkpt lat="46.9159" lon="8.58039">
        <ele>896</ele>
        <time>2021-08-10T12:23:47.484Z</time>
      </trkpt>
      <trkpt lat="46.9159" lon="8.58039">
        <ele>896</ele>
        <time>2021-08-10T12:23:48.484Z</time>
      </trkpt>
      <trkpt lat="46.91589" lon="8.58038">
        <ele>895</ele>
        <time>2021-08-10T12:23:49.483Z</time>
      </trkpt>
      <trkpt lat="46.91589" lon="8.58037">
        <ele>894</ele>
        <time>2021-08-10T12:23:50.484Z</time>
      </trkpt>
      <trkpt lat="46.91588" lon="8.58037">
        <ele>894</ele>
        <time>2021-08-10T12:23:51.484Z</time>
      </trkpt>
      <trkpt lat="46.91588" lon="8.58037">
        <ele>893</ele>
        <time>2021-08-10T12:23:52.484Z</time>
      </trkpt>
      <trkpt lat="46.91586" lon="8.58042">
        <ele>895</ele>
        <time>2021-08-10T12:23:53.484Z</time>
      </trkpt>
      <trkpt lat="46.91586" lon="8.58042">
        <ele>895</ele>
        <time>2021-08-10T12:23:54.484Z</time>
      </trkpt>
      <trkpt lat="46.91579" lon="8.58059">
        <ele>894</ele>
        <time>2021-08-10T12:23:55.483Z</time>
      </trkpt>
      <trkpt lat="46.91579" lon="8.5806">
        <ele>894</ele>
        <time>2021-08-10T12:23:56.483Z</time>
      </trkpt>
      <trkpt lat="46.91579" lon="8.5806">
        <ele>894</ele>
        <time>2021-08-10T12:23:57.483Z</time>
      </trkpt>
      <trkpt lat="46.91577" lon="8.58064">
        <ele>887</ele>
        <time>2021-08-10T12:23:58.484Z</time>
      </trkpt>
      <trkpt lat="46.91577" lon="8.58063">
        <ele>887</ele>
        <time>2021-08-10T12:23:59.483Z</time>
      </trkpt>
      <trkpt lat="46.91577" lon="8.58061">
        <ele>887</ele>
        <time>2021-08-10T12:24:00.483Z</time>
      </trkpt>
      <trkpt lat="46.91577" lon="8.58059">
        <ele>888</ele>
        <time>2021-08-10T12:24:01.483Z</time>
      </trkpt>
      <trkpt lat="46.91577" lon="8.58057">
        <ele>888</ele>
        <time>2021-08-10T12:24:02.484Z</time>
      </trkpt>
      <trkpt lat="46.91577" lon="8.58055">
        <ele>889</ele>
        <time>2021-08-10T12:24:03.484Z</time>
      </trkpt>
      <trkpt lat="46.91577" lon="8.58054">
        <ele>890</ele>
        <time>2021-08-10T12:24:04.483Z</time>
      </trkpt>
      <trkpt lat="46.91576" lon="8.58052">
        <ele>891</ele>
        <time>2021-08-10T12:24:05.484Z</time>
      </trkpt>
      <trkpt lat="46.91576" lon="8.5805">
        <ele>892</ele>
        <time>2021-08-10T12:24:06.483Z</time>
      </trkpt>
      <trkpt lat="46.91575" lon="8.58048">
        <ele>893</ele>
        <time>2021-08-10T12:24:07.484Z</time>
      </trkpt>
      <trkpt lat="46.91575" lon="8.58047">
        <ele>894</ele>
        <time>2021-08-10T12:24:08.484Z</time>
      </trkpt>
      <trkpt lat="46.91574" lon="8.58045">
        <ele>895</ele>
        <time>2021-08-10T12:24:09.484Z</time>
      </trkpt>
      <trkpt lat="46.91574" lon="8.58044">
        <ele>895</ele>
        <time>2021-08-10T12:24:10.484Z</time>
      </trkpt>
      <trkpt lat="46.91573" lon="8.58042">
        <ele>896</ele>
        <time>2021-08-10T12:24:11.483Z</time>
      </trkpt>
      <trkpt lat="46.91573" lon="8.5804">
        <ele>897</ele>
        <time>2021-08-10T12:24:12.483Z</time>
      </trkpt>
      <trkpt lat="46.91572" lon="8.58037">
        <ele>897</ele>
        <time>2021-08-10T12:24:13.484Z</time>
      </trkpt>
      <trkpt lat="46.91573" lon="8.58035">
        <ele>898</ele>
        <time>2021-08-10T12:24:14.483Z</time>
      </trkpt>
      <trkpt lat="46.91574" lon="8.58033">
        <ele>898</ele>
        <time>2021-08-10T12:24:15.484Z</time>
      </trkpt>
      <trkpt lat="46.91574" lon="8.5803">
        <ele>898</ele>
        <time>2021-08-10T12:24:16.484Z</time>
      </trkpt>
      <trkpt lat="46.91575" lon="8.5803">
        <ele>898</ele>
        <time>2021-08-10T12:24:17.483Z</time>
      </trkpt>
      <trkpt lat="46.91576" lon="8.58029">
        <ele>898</ele>
        <time>2021-08-10T12:24:18.483Z</time>
      </trkpt>
      <trkpt lat="46.91577" lon="8.58024">
        <ele>895</ele>
        <time>2021-08-10T12:24:19.483Z</time>
      </trkpt>
      <trkpt lat="46.91577" lon="8.58023">
        <ele>895</ele>
        <time>2021-08-10T12:24:20.483Z</time>
      </trkpt>
      <trkpt lat="46.91576" lon="8.58022">
        <ele>896</ele>
        <time>2021-08-10T12:24:21.483Z</time>
      </trkpt>
      <trkpt lat="46.91575" lon="8.5802">
        <ele>896</ele>
        <time>2021-08-10T12:24:22.484Z</time>
      </trkpt>
      <trkpt lat="46.91574" lon="8.58018">
        <ele>897</ele>
        <time>2021-08-10T12:24:23.483Z</time>
      </trkpt>
      <trkpt lat="46.91573" lon="8.58017">
        <ele>898</ele>
        <time>2021-08-10T12:24:24.484Z</time>
      </trkpt>
      <trkpt lat="46.91572" lon="8.58014">
        <ele>898</ele>
        <time>2021-08-10T12:24:25.484Z</time>
      </trkpt>
      <trkpt lat="46.91571" lon="8.58012">
        <ele>899</ele>
        <time>2021-08-10T12:24:26.484Z</time>
      </trkpt>
      <trkpt lat="46.91571" lon="8.5801">
        <ele>900</ele>
        <time>2021-08-10T12:24:27.484Z</time>
      </trkpt>
      <trkpt lat="46.9157" lon="8.58008">
        <ele>900</ele>
        <time>2021-08-10T12:24:28.484Z</time>
      </trkpt>
      <trkpt lat="46.91569" lon="8.58006">
        <ele>901</ele>
        <time>2021-08-10T12:24:29.484Z</time>
      </trkpt>
      <trkpt lat="46.91568" lon="8.58004">
        <ele>901</ele>
        <time>2021-08-10T12:24:30.483Z</time>
      </trkpt>
      <trkpt lat="46.91568" lon="8.58002">
        <ele>901</ele>
        <time>2021-08-10T12:24:31.484Z</time>
      </trkpt>
      <trkpt lat="46.91567" lon="8.58001">
        <ele>902</ele>
        <time>2021-08-10T12:24:32.483Z</time>
      </trkpt>
      <trkpt lat="46.91567" lon="8.58">
        <ele>902</ele>
        <time>2021-08-10T12:24:33.484Z</time>
      </trkpt>
      <trkpt lat="46.91566" lon="8.57998">
        <ele>902</ele>
        <time>2021-08-10T12:24:34.483Z</time>
      </trkpt>
      <trkpt lat="46.91566" lon="8.57997">
        <ele>902</ele>
        <time>2021-08-10T12:24:35.483Z</time>
      </trkpt>
      <trkpt lat="46.91565" lon="8.57995">
        <ele>903</ele>
        <time>2021-08-10T12:24:36.484Z</time>
      </trkpt>
      <trkpt lat="46.91564" lon="8.57993">
        <ele>903</ele>
        <time>2021-08-10T12:24:37.483Z</time>
      </trkpt>
      <trkpt lat="46.91564" lon="8.5799">
        <ele>903</ele>
        <time>2021-08-10T12:24:38.483Z</time>
      </trkpt>
      <trkpt lat="46.91563" lon="8.57989">
        <ele>903</ele>
        <time>2021-08-10T12:24:39.483Z</time>
      </trkpt>
      <trkpt lat="46.91562" lon="8.57987">
        <ele>902</ele>
        <time>2021-08-10T12:24:40.483Z</time>
      </trkpt>
      <trkpt lat="46.91562" lon="8.57986">
        <ele>902</ele>
        <time>2021-08-10T12:24:41.484Z</time>
      </trkpt>
      <trkpt lat="46.91561" lon="8.57984">
        <ele>902</ele>
        <time>2021-08-10T12:24:42.483Z</time>
      </trkpt>
      <trkpt lat="46.91561" lon="8.57982">
        <ele>902</ele>
        <time>2021-08-10T12:24:43.483Z</time>
      </trkpt>
      <trkpt lat="46.9156" lon="8.57981">
        <ele>902</ele>
        <time>2021-08-10T12:24:44.484Z</time>
      </trkpt>
      <trkpt lat="46.91559" lon="8.5798">
        <ele>902</ele>
        <time>2021-08-10T12:24:45.484Z</time>
      </trkpt>
      <trkpt lat="46.91559" lon="8.57978">
        <ele>903</ele>
        <time>2021-08-10T12:24:46.483Z</time>
      </trkpt>
      <trkpt lat="46.91557" lon="8.57975">
        <ele>903</ele>
        <time>2021-08-10T12:24:47.484Z</time>
      </trkpt>
      <trkpt lat="46.91555" lon="8.57974">
        <ele>903</ele>
        <time>2021-08-10T12:24:48.483Z</time>
      </trkpt>
      <trkpt lat="46.91554" lon="8.57972">
        <ele>903</ele>
        <time>2021-08-10T12:24:49.484Z</time>
      </trkpt>
      <trkpt lat="46.91554" lon="8.57971">
        <ele>903</ele>
        <time>2021-08-10T12:24:50.484Z</time>
      </trkpt>
      <trkpt lat="46.91553" lon="8.5797">
        <ele>903</ele>
        <time>2021-08-10T12:24:51.484Z</time>
      </trkpt>
      <trkpt lat="46.91552" lon="8.57968">
        <ele>903</ele>
        <time>2021-08-10T12:24:52.483Z</time>
      </trkpt>
      <trkpt lat="46.91551" lon="8.57965">
        <ele>903</ele>
        <time>2021-08-10T12:24:53.484Z</time>
      </trkpt>
      <trkpt lat="46.91551" lon="8.57964">
        <ele>903</ele>
        <time>2021-08-10T12:24:54.484Z</time>
      </trkpt>
      <trkpt lat="46.9155" lon="8.57962">
        <ele>902</ele>
        <time>2021-08-10T12:24:55.484Z</time>
      </trkpt>
      <trkpt lat="46.91549" lon="8.57961">
        <ele>902</ele>
        <time>2021-08-10T12:24:56.484Z</time>
      </trkpt>
      <trkpt lat="46.91548" lon="8.57959">
        <ele>902</ele>
        <time>2021-08-10T12:24:57.484Z</time>
      </trkpt>
      <trkpt lat="46.91547" lon="8.57956">
        <ele>902</ele>
        <time>2021-08-10T12:24:58.484Z</time>
      </trkpt>
      <trkpt lat="46.91546" lon="8.57955">
        <ele>903</ele>
        <time>2021-08-10T12:24:59.483Z</time>
      </trkpt>
      <trkpt lat="46.91545" lon="8.57954">
        <ele>903</ele>
        <time>2021-08-10T12:25:00.483Z</time>
      </trkpt>
      <trkpt lat="46.91545" lon="8.57953">
        <ele>903</ele>
        <time>2021-08-10T12:25:01.484Z</time>
      </trkpt>
      <trkpt lat="46.91545" lon="8.57952">
        <ele>903</ele>
        <time>2021-08-10T12:25:02.484Z</time>
      </trkpt>
      <trkpt lat="46.91545" lon="8.57951">
        <ele>903</ele>
        <time>2021-08-10T12:25:03.483Z</time>
      </trkpt>
      <trkpt lat="46.91545" lon="8.5795">
        <ele>902</ele>
        <time>2021-08-10T12:25:04.483Z</time>
      </trkpt>
      <trkpt lat="46.91545" lon="8.5795">
        <ele>901</ele>
        <time>2021-08-10T12:25:05.484Z</time>
      </trkpt>
      <trkpt lat="46.91545" lon="8.5795">
        <ele>901</ele>
        <time>2021-08-10T12:25:06.484Z</time>
      </trkpt>
      <trkpt lat="46.91545" lon="8.57949">
        <ele>900</ele>
        <time>2021-08-10T12:25:07.484Z</time>
      </trkpt>
      <trkpt lat="46.91545" lon="8.57949">
        <ele>899</ele>
        <time>2021-08-10T12:25:08.483Z</time>
      </trkpt>
      <trkpt lat="46.91545" lon="8.57948">
        <ele>898</ele>
        <time>2021-08-10T12:25:09.483Z</time>
      </trkpt>
      <trkpt lat="46.91545" lon="8.57947">
        <ele>898</ele>
        <time>2021-08-10T12:25:10.484Z</time>
      </trkpt>
      <trkpt lat="46.91545" lon="8.57945">
        <ele>897</ele>
        <time>2021-08-10T12:25:11.484Z</time>
      </trkpt>
      <trkpt lat="46.91544" lon="8.57944">
        <ele>897</ele>
        <time>2021-08-10T12:25:12.484Z</time>
      </trkpt>
      <trkpt lat="46.91544" lon="8.57943">
        <ele>896</ele>
        <time>2021-08-10T12:25:13.483Z</time>
      </trkpt>
      <trkpt lat="46.91543" lon="8.57941">
        <ele>896</ele>
        <time>2021-08-10T12:25:14.483Z</time>
      </trkpt>
      <trkpt lat="46.91543" lon="8.5794">
        <ele>896</ele>
        <time>2021-08-10T12:25:15.484Z</time>
      </trkpt>
      <trkpt lat="46.91542" lon="8.57939">
        <ele>896</ele>
        <time>2021-08-10T12:25:16.483Z</time>
      </trkpt>
      <trkpt lat="46.91541" lon="8.57937">
        <ele>896</ele>
        <time>2021-08-10T12:25:17.484Z</time>
      </trkpt>
      <trkpt lat="46.91541" lon="8.57936">
        <ele>896</ele>
        <time>2021-08-10T12:25:18.483Z</time>
      </trkpt>
      <trkpt lat="46.9154" lon="8.57935">
        <ele>896</ele>
        <time>2021-08-10T12:25:19.484Z</time>
      </trkpt>
      <trkpt lat="46.9154" lon="8.57933">
        <ele>896</ele>
        <time>2021-08-10T12:25:20.484Z</time>
      </trkpt>
      <trkpt lat="46.91539" lon="8.57932">
        <ele>896</ele>
        <time>2021-08-10T12:25:21.483Z</time>
      </trkpt>
      <trkpt lat="46.91539" lon="8.5793">
        <ele>896</ele>
        <time>2021-08-10T12:25:22.484Z</time>
      </trkpt>
      <trkpt lat="46.91538" lon="8.57929">
        <ele>896</ele>
        <time>2021-08-10T12:25:23.483Z</time>
      </trkpt>
      <trkpt lat="46.91538" lon="8.57926">
        <ele>896</ele>
        <time>2021-08-10T12:25:24.483Z</time>
      </trkpt>
      <trkpt lat="46.91537" lon="8.57924">
        <ele>897</ele>
        <time>2021-08-10T12:25:25.483Z</time>
      </trkpt>
      <trkpt lat="46.91536" lon="8.57923">
        <ele>897</ele>
        <time>2021-08-10T12:25:26.484Z</time>
      </trkpt>
      <trkpt lat="46.91536" lon="8.57921">
        <ele>897</ele>
        <time>2021-08-10T12:25:27.484Z</time>
      </trkpt>
      <trkpt lat="46.91536" lon="8.57919">
        <ele>896</ele>
        <time>2021-08-10T12:25:28.484Z</time>
      </trkpt>
      <trkpt lat="46.91536" lon="8.57917">
        <ele>896</ele>
        <time>2021-08-10T12:25:29.484Z</time>
      </trkpt>
      <trkpt lat="46.91536" lon="8.57916">
        <ele>896</ele>
        <time>2021-08-10T12:25:30.483Z</time>
      </trkpt>
      <trkpt lat="46.91536" lon="8.57915">
        <ele>896</ele>
        <time>2021-08-10T12:25:31.483Z</time>
      </trkpt>
      <trkpt lat="46.91536" lon="8.57914">
        <ele>897</ele>
        <time>2021-08-10T12:25:32.484Z</time>
      </trkpt>
      <trkpt lat="46.91536" lon="8.57913">
        <ele>897</ele>
        <time>2021-08-10T12:25:33.483Z</time>
      </trkpt>
      <trkpt lat="46.91535" lon="8.57912">
        <ele>897</ele>
        <time>2021-08-10T12:25:34.484Z</time>
      </trkpt>
      <trkpt lat="46.91534" lon="8.5791">
        <ele>898</ele>
        <time>2021-08-10T12:25:35.484Z</time>
      </trkpt>
      <trkpt lat="46.91534" lon="8.57907">
        <ele>899</ele>
        <time>2021-08-10T12:25:36.484Z</time>
      </trkpt>
      <trkpt lat="46.91533" lon="8.57906">
        <ele>899</ele>
        <time>2021-08-10T12:25:37.484Z</time>
      </trkpt>
      <trkpt lat="46.91532" lon="8.57903">
        <ele>900</ele>
        <time>2021-08-10T12:25:38.484Z</time>
      </trkpt>
      <trkpt lat="46.91532" lon="8.57902">
        <ele>900</ele>
        <time>2021-08-10T12:25:39.484Z</time>
      </trkpt>
      <trkpt lat="46.91532" lon="8.57901">
        <ele>900</ele>
        <time>2021-08-10T12:25:40.484Z</time>
      </trkpt>
      <trkpt lat="46.91532" lon="8.579">
        <ele>901</ele>
        <time>2021-08-10T12:25:41.483Z</time>
      </trkpt>
      <trkpt lat="46.91532" lon="8.57898">
        <ele>901</ele>
        <time>2021-08-10T12:25:42.484Z</time>
      </trkpt>
      <trkpt lat="46.91532" lon="8.57896">
        <ele>902</ele>
        <time>2021-08-10T12:25:43.484Z</time>
      </trkpt>
      <trkpt lat="46.91531" lon="8.57895">
        <ele>902</ele>
        <time>2021-08-10T12:25:44.483Z</time>
      </trkpt>
      <trkpt lat="46.91531" lon="8.57893">
        <ele>903</ele>
        <time>2021-08-10T12:25:45.484Z</time>
      </trkpt>
      <trkpt lat="46.91531" lon="8.57891">
        <ele>903</ele>
        <time>2021-08-10T12:25:46.484Z</time>
      </trkpt>
      <trkpt lat="46.9153" lon="8.57889">
        <ele>903</ele>
        <time>2021-08-10T12:25:47.483Z</time>
      </trkpt>
      <trkpt lat="46.9153" lon="8.57887">
        <ele>903</ele>
        <time>2021-08-10T12:25:48.483Z</time>
      </trkpt>
      <trkpt lat="46.91529" lon="8.57885">
        <ele>903</ele>
        <time>2021-08-10T12:25:49.483Z</time>
      </trkpt>
      <trkpt lat="46.91529" lon="8.57883">
        <ele>903</ele>
        <time>2021-08-10T12:25:50.484Z</time>
      </trkpt>
      <trkpt lat="46.91529" lon="8.57881">
        <ele>903</ele>
        <time>2021-08-10T12:25:51.484Z</time>
      </trkpt>
      <trkpt lat="46.91529" lon="8.5788">
        <ele>903</ele>
        <time>2021-08-10T12:25:52.484Z</time>
      </trkpt>
      <trkpt lat="46.91528" lon="8.57879">
        <ele>902</ele>
        <time>2021-08-10T12:25:53.483Z</time>
      </trkpt>
      <trkpt lat="46.91528" lon="8.57879">
        <ele>902</ele>
        <time>2021-08-10T12:25:54.483Z</time>
      </trkpt>
      <trkpt lat="46.91528" lon="8.57878">
        <ele>902</ele>
        <time>2021-08-10T12:25:55.484Z</time>
      </trkpt>
      <trkpt lat="46.91527" lon="8.57876">
        <ele>902</ele>
        <time>2021-08-10T12:25:56.484Z</time>
      </trkpt>
      <trkpt lat="46.91526" lon="8.57875">
        <ele>902</ele>
        <time>2021-08-10T12:25:57.484Z</time>
      </trkpt>
      <trkpt lat="46.91525" lon="8.57874">
        <ele>902</ele>
        <time>2021-08-10T12:25:58.484Z</time>
      </trkpt>
      <trkpt lat="46.91526" lon="8.57872">
        <ele>901</ele>
        <time>2021-08-10T12:25:59.484Z</time>
      </trkpt>
      <trkpt lat="46.91525" lon="8.57871">
        <ele>901</ele>
        <time>2021-08-10T12:26:00.484Z</time>
      </trkpt>
      <trkpt lat="46.91524" lon="8.57869">
        <ele>900</ele>
        <time>2021-08-10T12:26:01.483Z</time>
      </trkpt>
      <trkpt lat="46.91524" lon="8.57867">
        <ele>900</ele>
        <time>2021-08-10T12:26:02.484Z</time>
      </trkpt>
      <trkpt lat="46.91523" lon="8.57866">
        <ele>900</ele>
        <time>2021-08-10T12:26:03.484Z</time>
      </trkpt>
      <trkpt lat="46.91523" lon="8.57864">
        <ele>899</ele>
        <time>2021-08-10T12:26:04.484Z</time>
      </trkpt>
      <trkpt lat="46.91522" lon="8.57863">
        <ele>899</ele>
        <time>2021-08-10T12:26:05.484Z</time>
      </trkpt>
      <trkpt lat="46.91522" lon="8.57863">
        <ele>898</ele>
        <time>2021-08-10T12:26:06.484Z</time>
      </trkpt>
      <trkpt lat="46.91521" lon="8.57862">
        <ele>898</ele>
        <time>2021-08-10T12:26:07.483Z</time>
      </trkpt>
      <trkpt lat="46.91521" lon="8.57861">
        <ele>897</ele>
        <time>2021-08-10T12:26:08.484Z</time>
      </trkpt>
      <trkpt lat="46.9152" lon="8.5786">
        <ele>897</ele>
        <time>2021-08-10T12:26:09.484Z</time>
      </trkpt>
      <trkpt lat="46.9152" lon="8.5786">
        <ele>897</ele>
        <time>2021-08-10T12:26:10.484Z</time>
      </trkpt>
      <trkpt lat="46.91519" lon="8.57859">
        <ele>896</ele>
        <time>2021-08-10T12:26:11.484Z</time>
      </trkpt>
      <trkpt lat="46.91518" lon="8.5786">
        <ele>896</ele>
        <time>2021-08-10T12:26:12.484Z</time>
      </trkpt>
      <trkpt lat="46.91518" lon="8.5786">
        <ele>896</ele>
        <time>2021-08-10T12:26:13.483Z</time>
      </trkpt>
      <trkpt lat="46.91518" lon="8.57859">
        <ele>895</ele>
        <time>2021-08-10T12:26:14.483Z</time>
      </trkpt>
      <trkpt lat="46.91517" lon="8.57857">
        <ele>895</ele>
        <time>2021-08-10T12:26:15.484Z</time>
      </trkpt>
      <trkpt lat="46.91517" lon="8.57855">
        <ele>894</ele>
        <time>2021-08-10T12:26:16.484Z</time>
      </trkpt>
      <trkpt lat="46.91514" lon="8.57854">
        <ele>892</ele>
        <time>2021-08-10T12:26:18.484Z</time>
      </trkpt>
      <trkpt lat="46.91514" lon="8.57854">
        <ele>892</ele>
        <time>2021-08-10T12:26:19.484Z</time>
      </trkpt>
      <trkpt lat="46.91514" lon="8.57853">
        <ele>891</ele>
        <time>2021-08-10T12:26:20.484Z</time>
      </trkpt>
      <trkpt lat="46.91514" lon="8.57853">
        <ele>891</ele>
        <time>2021-08-10T12:26:21.484Z</time>
      </trkpt>
      <trkpt lat="46.91514" lon="8.57853">
        <ele>891</ele>
        <time>2021-08-10T12:26:22.484Z</time>
      </trkpt>
      <trkpt lat="46.91514" lon="8.57852">
        <ele>890</ele>
        <time>2021-08-10T12:26:23.484Z</time>
      </trkpt>
      <trkpt lat="46.91514" lon="8.57852">
        <ele>890</ele>
        <time>2021-08-10T12:26:24.484Z</time>
      </trkpt>
      <trkpt lat="46.91514" lon="8.57851">
        <ele>889</ele>
        <time>2021-08-10T12:26:25.484Z</time>
      </trkpt>
      <trkpt lat="46.91513" lon="8.5785">
        <ele>889</ele>
        <time>2021-08-10T12:26:26.484Z</time>
      </trkpt>
      <trkpt lat="46.91513" lon="8.5785">
        <ele>888</ele>
        <time>2021-08-10T12:26:27.484Z</time>
      </trkpt>
      <trkpt lat="46.91512" lon="8.57849">
        <ele>888</ele>
        <time>2021-08-10T12:26:28.484Z</time>
      </trkpt>
      <trkpt lat="46.91512" lon="8.57848">
        <ele>887</ele>
        <time>2021-08-10T12:26:29.484Z</time>
      </trkpt>
      <trkpt lat="46.91511" lon="8.57846">
        <ele>887</ele>
        <time>2021-08-10T12:26:30.484Z</time>
      </trkpt>
      <trkpt lat="46.9151" lon="8.57845">
        <ele>887</ele>
        <time>2021-08-10T12:26:31.484Z</time>
      </trkpt>
      <trkpt lat="46.9151" lon="8.57843">
        <ele>887</ele>
        <time>2021-08-10T12:26:32.484Z</time>
      </trkpt>
      <trkpt lat="46.91509" lon="8.57841">
        <ele>887</ele>
        <time>2021-08-10T12:26:33.484Z</time>
      </trkpt>
      <trkpt lat="46.91509" lon="8.5784">
        <ele>886</ele>
        <time>2021-08-10T12:26:34.484Z</time>
      </trkpt>
      <trkpt lat="46.91509" lon="8.5784">
        <ele>887</ele>
        <time>2021-08-10T12:26:35.484Z</time>
      </trkpt>
      <trkpt lat="46.91508" lon="8.57838">
        <ele>887</ele>
        <time>2021-08-10T12:26:36.484Z</time>
      </trkpt>
      <trkpt lat="46.91507" lon="8.57838">
        <ele>886</ele>
        <time>2021-08-10T12:26:37.484Z</time>
      </trkpt>
      <trkpt lat="46.91507" lon="8.57837">
        <ele>886</ele>
        <time>2021-08-10T12:26:38.484Z</time>
      </trkpt>
      <trkpt lat="46.91506" lon="8.57836">
        <ele>887</ele>
        <time>2021-08-10T12:26:39.484Z</time>
      </trkpt>
      <trkpt lat="46.91505" lon="8.57834">
        <ele>887</ele>
        <time>2021-08-10T12:26:40.484Z</time>
      </trkpt>
      <trkpt lat="46.91504" lon="8.57832">
        <ele>887</ele>
        <time>2021-08-10T12:26:41.484Z</time>
      </trkpt>
      <trkpt lat="46.91504" lon="8.5783">
        <ele>888</ele>
        <time>2021-08-10T12:26:42.484Z</time>
      </trkpt>
      <trkpt lat="46.91503" lon="8.57828">
        <ele>888</ele>
        <time>2021-08-10T12:26:43.484Z</time>
      </trkpt>
      <trkpt lat="46.91503" lon="8.57826">
        <ele>889</ele>
        <time>2021-08-10T12:26:44.484Z</time>
      </trkpt>
      <trkpt lat="46.91503" lon="8.57824">
        <ele>889</ele>
        <time>2021-08-10T12:26:45.484Z</time>
      </trkpt>
      <trkpt lat="46.91502" lon="8.57823">
        <ele>889</ele>
        <time>2021-08-10T12:26:46.484Z</time>
      </trkpt>
      <trkpt lat="46.91502" lon="8.57821">
        <ele>889</ele>
        <time>2021-08-10T12:26:47.484Z</time>
      </trkpt>
      <trkpt lat="46.91501" lon="8.57819">
        <ele>889</ele>
        <time>2021-08-10T12:26:48.485Z</time>
      </trkpt>
      <trkpt lat="46.915" lon="8.57817">
        <ele>889</ele>
        <time>2021-08-10T12:26:49.484Z</time>
      </trkpt>
      <trkpt lat="46.915" lon="8.57815">
        <ele>889</ele>
        <time>2021-08-10T12:26:50.484Z</time>
      </trkpt>
      <trkpt lat="46.915" lon="8.57814">
        <ele>889</ele>
        <time>2021-08-10T12:26:51.484Z</time>
      </trkpt>
      <trkpt lat="46.91499" lon="8.57813">
        <ele>889</ele>
        <time>2021-08-10T12:26:52.485Z</time>
      </trkpt>
      <trkpt lat="46.91499" lon="8.57813">
        <ele>889</ele>
        <time>2021-08-10T12:26:53.485Z</time>
      </trkpt>
      <trkpt lat="46.91499" lon="8.57813">
        <ele>889</ele>
        <time>2021-08-10T12:26:54.484Z</time>
      </trkpt>
      <trkpt lat="46.91499" lon="8.57814">
        <ele>889</ele>
        <time>2021-08-10T12:26:55.485Z</time>
      </trkpt>
      <trkpt lat="46.91497" lon="8.57811">
        <ele>888</ele>
        <time>2021-08-10T12:26:56.486Z</time>
      </trkpt>
      <trkpt lat="46.91497" lon="8.57809">
        <ele>888</ele>
        <time>2021-08-10T12:26:57.485Z</time>
      </trkpt>
      <trkpt lat="46.91496" lon="8.57808">
        <ele>888</ele>
        <time>2021-08-10T12:26:58.485Z</time>
      </trkpt>
      <trkpt lat="46.91496" lon="8.57807">
        <ele>888</ele>
        <time>2021-08-10T12:26:59.486Z</time>
      </trkpt>
      <trkpt lat="46.91493" lon="8.57803">
        <ele>886</ele>
        <time>2021-08-10T12:27:00.486Z</time>
      </trkpt>
      <trkpt lat="46.91492" lon="8.57801">
        <ele>886</ele>
        <time>2021-08-10T12:27:01.485Z</time>
      </trkpt>
      <trkpt lat="46.91492" lon="8.578">
        <ele>886</ele>
        <time>2021-08-10T12:27:02.485Z</time>
      </trkpt>
      <trkpt lat="46.91491" lon="8.57798">
        <ele>886</ele>
        <time>2021-08-10T12:27:03.485Z</time>
      </trkpt>
      <trkpt lat="46.9149" lon="8.57797">
        <ele>885</ele>
        <time>2021-08-10T12:27:04.486Z</time>
      </trkpt>
      <trkpt lat="46.91488" lon="8.57796">
        <ele>885</ele>
        <time>2021-08-10T12:27:05.485Z</time>
      </trkpt>
      <trkpt lat="46.91486" lon="8.57796">
        <ele>885</ele>
        <time>2021-08-10T12:27:06.486Z</time>
      </trkpt>
      <trkpt lat="46.91484" lon="8.57795">
        <ele>885</ele>
        <time>2021-08-10T12:27:07.486Z</time>
      </trkpt>
      <trkpt lat="46.91483" lon="8.57795">
        <ele>885</ele>
        <time>2021-08-10T12:27:08.485Z</time>
      </trkpt>
      <trkpt lat="46.91482" lon="8.57793">
        <ele>885</ele>
        <time>2021-08-10T12:27:09.486Z</time>
      </trkpt>
      <trkpt lat="46.91481" lon="8.57792">
        <ele>885</ele>
        <time>2021-08-10T12:27:10.486Z</time>
      </trkpt>
      <trkpt lat="46.91481" lon="8.57791">
        <ele>885</ele>
        <time>2021-08-10T12:27:11.486Z</time>
      </trkpt>
      <trkpt lat="46.9148" lon="8.57789">
        <ele>886</ele>
        <time>2021-08-10T12:27:12.486Z</time>
      </trkpt>
      <trkpt lat="46.91479" lon="8.57787">
        <ele>886</ele>
        <time>2021-08-10T12:27:13.486Z</time>
      </trkpt>
      <trkpt lat="46.91479" lon="8.57786">
        <ele>886</ele>
        <time>2021-08-10T12:27:14.485Z</time>
      </trkpt>
      <trkpt lat="46.91478" lon="8.57785">
        <ele>885</ele>
        <time>2021-08-10T12:27:15.486Z</time>
      </trkpt>
      <trkpt lat="46.91477" lon="8.57784">
        <ele>885</ele>
        <time>2021-08-10T12:27:16.485Z</time>
      </trkpt>
      <trkpt lat="46.91476" lon="8.57782">
        <ele>885</ele>
        <time>2021-08-10T12:27:17.485Z</time>
      </trkpt>
      <trkpt lat="46.91475" lon="8.5778">
        <ele>885</ele>
        <time>2021-08-10T12:27:18.486Z</time>
      </trkpt>
      <trkpt lat="46.91474" lon="8.57779">
        <ele>885</ele>
        <time>2021-08-10T12:27:19.486Z</time>
      </trkpt>
      <trkpt lat="46.91473" lon="8.57777">
        <ele>885</ele>
        <time>2021-08-10T12:27:20.486Z</time>
      </trkpt>
      <trkpt lat="46.91472" lon="8.57776">
        <ele>885</ele>
        <time>2021-08-10T12:27:21.485Z</time>
      </trkpt>
      <trkpt lat="46.91471" lon="8.57775">
        <ele>885</ele>
        <time>2021-08-10T12:27:22.486Z</time>
      </trkpt>
      <trkpt lat="46.9147" lon="8.57773">
        <ele>885</ele>
        <time>2021-08-10T12:27:23.486Z</time>
      </trkpt>
      <trkpt lat="46.9147" lon="8.5777">
        <ele>885</ele>
        <time>2021-08-10T12:27:24.486Z</time>
      </trkpt>
      <trkpt lat="46.9147" lon="8.57767">
        <ele>885</ele>
        <time>2021-08-10T12:27:25.486Z</time>
      </trkpt>
      <trkpt lat="46.91469" lon="8.57763">
        <ele>885</ele>
        <time>2021-08-10T12:27:26.486Z</time>
      </trkpt>
      <trkpt lat="46.91469" lon="8.57761">
        <ele>884</ele>
        <time>2021-08-10T12:27:27.486Z</time>
      </trkpt>
      <trkpt lat="46.91469" lon="8.5776">
        <ele>884</ele>
        <time>2021-08-10T12:27:28.486Z</time>
      </trkpt>
      <trkpt lat="46.9147" lon="8.57758">
        <ele>884</ele>
        <time>2021-08-10T12:27:29.485Z</time>
      </trkpt>
      <trkpt lat="46.9147" lon="8.57756">
        <ele>884</ele>
        <time>2021-08-10T12:27:30.486Z</time>
      </trkpt>
      <trkpt lat="46.9147" lon="8.57754">
        <ele>883</ele>
        <time>2021-08-10T12:27:31.486Z</time>
      </trkpt>
      <trkpt lat="46.9147" lon="8.57753">
        <ele>883</ele>
        <time>2021-08-10T12:27:32.485Z</time>
      </trkpt>
      <trkpt lat="46.9147" lon="8.57751">
        <ele>882</ele>
        <time>2021-08-10T12:27:33.486Z</time>
      </trkpt>
      <trkpt lat="46.9147" lon="8.57751">
        <ele>882</ele>
        <time>2021-08-10T12:27:34.485Z</time>
      </trkpt>
      <trkpt lat="46.9147" lon="8.5775">
        <ele>881</ele>
        <time>2021-08-10T12:27:35.485Z</time>
      </trkpt>
      <trkpt lat="46.9147" lon="8.57748">
        <ele>881</ele>
        <time>2021-08-10T12:27:36.486Z</time>
      </trkpt>
      <trkpt lat="46.91469" lon="8.57746">
        <ele>881</ele>
        <time>2021-08-10T12:27:37.486Z</time>
      </trkpt>
      <trkpt lat="46.91468" lon="8.57745">
        <ele>880</ele>
        <time>2021-08-10T12:27:38.485Z</time>
      </trkpt>
      <trkpt lat="46.91468" lon="8.57743">
        <ele>880</ele>
        <time>2021-08-10T12:27:39.486Z</time>
      </trkpt>
      <trkpt lat="46.91467" lon="8.57741">
        <ele>880</ele>
        <time>2021-08-10T12:27:40.485Z</time>
      </trkpt>
      <trkpt lat="46.91467" lon="8.5774">
        <ele>880</ele>
        <time>2021-08-10T12:27:41.486Z</time>
      </trkpt>
      <trkpt lat="46.91466" lon="8.57738">
        <ele>880</ele>
        <time>2021-08-10T12:27:42.486Z</time>
      </trkpt>
      <trkpt lat="46.91465" lon="8.57737">
        <ele>880</ele>
        <time>2021-08-10T12:27:43.486Z</time>
      </trkpt>
      <trkpt lat="46.91464" lon="8.57736">
        <ele>880</ele>
        <time>2021-08-10T12:27:44.486Z</time>
      </trkpt>
      <trkpt lat="46.91463" lon="8.57736">
        <ele>880</ele>
        <time>2021-08-10T12:27:45.485Z</time>
      </trkpt>
      <trkpt lat="46.91462" lon="8.57736">
        <ele>879</ele>
        <time>2021-08-10T12:27:46.485Z</time>
      </trkpt>
      <trkpt lat="46.91462" lon="8.57737">
        <ele>879</ele>
        <time>2021-08-10T12:27:47.486Z</time>
      </trkpt>
      <trkpt lat="46.91461" lon="8.57739">
        <ele>879</ele>
        <time>2021-08-10T12:27:48.486Z</time>
      </trkpt>
      <trkpt lat="46.91461" lon="8.5774">
        <ele>879</ele>
        <time>2021-08-10T12:27:49.486Z</time>
      </trkpt>
      <trkpt lat="46.91461" lon="8.57741">
        <ele>879</ele>
        <time>2021-08-10T12:27:50.485Z</time>
      </trkpt>
      <trkpt lat="46.91461" lon="8.57742">
        <ele>879</ele>
        <time>2021-08-10T12:27:51.486Z</time>
      </trkpt>
      <trkpt lat="46.91461" lon="8.57743">
        <ele>879</ele>
        <time>2021-08-10T12:27:52.486Z</time>
      </trkpt>
      <trkpt lat="46.9146" lon="8.57744">
        <ele>878</ele>
        <time>2021-08-10T12:27:53.485Z</time>
      </trkpt>
      <trkpt lat="46.9146" lon="8.57746">
        <ele>878</ele>
        <time>2021-08-10T12:27:54.486Z</time>
      </trkpt>
      <trkpt lat="46.9146" lon="8.57746">
        <ele>878</ele>
        <time>2021-08-10T12:27:55.486Z</time>
      </trkpt>
      <trkpt lat="46.9146" lon="8.57748">
        <ele>878</ele>
        <time>2021-08-10T12:27:56.486Z</time>
      </trkpt>
      <trkpt lat="46.91459" lon="8.57749">
        <ele>878</ele>
        <time>2021-08-10T12:27:57.486Z</time>
      </trkpt>
      <trkpt lat="46.91458" lon="8.57749">
        <ele>878</ele>
        <time>2021-08-10T12:27:58.485Z</time>
      </trkpt>
      <trkpt lat="46.91457" lon="8.57748">
        <ele>878</ele>
        <time>2021-08-10T12:27:59.486Z</time>
      </trkpt>
      <trkpt lat="46.91456" lon="8.57747">
        <ele>878</ele>
        <time>2021-08-10T12:28:00.485Z</time>
      </trkpt>
      <trkpt lat="46.91455" lon="8.57747">
        <ele>878</ele>
        <time>2021-08-10T12:28:01.486Z</time>
      </trkpt>
      <trkpt lat="46.91454" lon="8.57745">
        <ele>878</ele>
        <time>2021-08-10T12:28:02.485Z</time>
      </trkpt>
      <trkpt lat="46.91453" lon="8.57744">
        <ele>878</ele>
        <time>2021-08-10T12:28:03.486Z</time>
      </trkpt>
      <trkpt lat="46.91452" lon="8.57742">
        <ele>878</ele>
        <time>2021-08-10T12:28:04.485Z</time>
      </trkpt>
      <trkpt lat="46.91452" lon="8.57741">
        <ele>878</ele>
        <time>2021-08-10T12:28:05.486Z</time>
      </trkpt>
      <trkpt lat="46.91451" lon="8.5774">
        <ele>878</ele>
        <time>2021-08-10T12:28:06.486Z</time>
      </trkpt>
      <trkpt lat="46.91452" lon="8.57737">
        <ele>877</ele>
        <time>2021-08-10T12:28:07.486Z</time>
      </trkpt>
      <trkpt lat="46.91452" lon="8.57737">
        <ele>876</ele>
        <time>2021-08-10T12:28:08.486Z</time>
      </trkpt>
      <trkpt lat="46.91452" lon="8.57736">
        <ele>876</ele>
        <time>2021-08-10T12:28:09.486Z</time>
      </trkpt>
      <trkpt lat="46.91452" lon="8.57735">
        <ele>875</ele>
        <time>2021-08-10T12:28:10.487Z</time>
      </trkpt>
      <trkpt lat="46.91451" lon="8.57734">
        <ele>875</ele>
        <time>2021-08-10T12:28:11.486Z</time>
      </trkpt>
      <trkpt lat="46.91451" lon="8.57733">
        <ele>875</ele>
        <time>2021-08-10T12:28:12.487Z</time>
      </trkpt>
      <trkpt lat="46.9145" lon="8.57732">
        <ele>874</ele>
        <time>2021-08-10T12:28:13.486Z</time>
      </trkpt>
      <trkpt lat="46.9145" lon="8.57732">
        <ele>874</ele>
        <time>2021-08-10T12:28:14.487Z</time>
      </trkpt>
      <trkpt lat="46.91449" lon="8.57731">
        <ele>874</ele>
        <time>2021-08-10T12:28:15.487Z</time>
      </trkpt>
      <trkpt lat="46.91449" lon="8.57731">
        <ele>874</ele>
        <time>2021-08-10T12:28:16.486Z</time>
      </trkpt>
      <trkpt lat="46.91449" lon="8.57729">
        <ele>873</ele>
        <time>2021-08-10T12:28:17.487Z</time>
      </trkpt>
      <trkpt lat="46.91449" lon="8.57728">
        <ele>873</ele>
        <time>2021-08-10T12:28:18.486Z</time>
      </trkpt>
      <trkpt lat="46.91449" lon="8.57727">
        <ele>873</ele>
        <time>2021-08-10T12:28:19.487Z</time>
      </trkpt>
      <trkpt lat="46.91448" lon="8.57725">
        <ele>873</ele>
        <time>2021-08-10T12:28:20.487Z</time>
      </trkpt>
      <trkpt lat="46.91448" lon="8.57724">
        <ele>873</ele>
        <time>2021-08-10T12:28:21.486Z</time>
      </trkpt>
      <trkpt lat="46.91446" lon="8.57723">
        <ele>872</ele>
        <time>2021-08-10T12:28:22.487Z</time>
      </trkpt>
      <trkpt lat="46.91445" lon="8.57722">
        <ele>872</ele>
        <time>2021-08-10T12:28:23.487Z</time>
      </trkpt>
      <trkpt lat="46.91445" lon="8.57722">
        <ele>872</ele>
        <time>2021-08-10T12:28:24.487Z</time>
      </trkpt>
      <trkpt lat="46.91445" lon="8.57721">
        <ele>872</ele>
        <time>2021-08-10T12:28:25.486Z</time>
      </trkpt>
      <trkpt lat="46.91445" lon="8.57721">
        <ele>872</ele>
        <time>2021-08-10T12:28:26.487Z</time>
      </trkpt>
      <trkpt lat="46.91444" lon="8.57721">
        <ele>872</ele>
        <time>2021-08-10T12:28:27.487Z</time>
      </trkpt>
      <trkpt lat="46.91444" lon="8.57721">
        <ele>872</ele>
        <time>2021-08-10T12:28:28.486Z</time>
      </trkpt>
      <trkpt lat="46.91443" lon="8.5772">
        <ele>872</ele>
        <time>2021-08-10T12:28:29.486Z</time>
      </trkpt>
      <trkpt lat="46.91442" lon="8.5772">
        <ele>872</ele>
        <time>2021-08-10T12:28:30.486Z</time>
      </trkpt>
      <trkpt lat="46.91442" lon="8.5772">
        <ele>872</ele>
        <time>2021-08-10T12:28:31.487Z</time>
      </trkpt>
      <trkpt lat="46.91441" lon="8.57719">
        <ele>871</ele>
        <time>2021-08-10T12:28:32.486Z</time>
      </trkpt>
      <trkpt lat="46.91442" lon="8.57718">
        <ele>870</ele>
        <time>2021-08-10T12:28:33.487Z</time>
      </trkpt>
      <trkpt lat="46.91441" lon="8.57717">
        <ele>870</ele>
        <time>2021-08-10T12:28:34.486Z</time>
      </trkpt>
      <trkpt lat="46.91441" lon="8.57715">
        <ele>869</ele>
        <time>2021-08-10T12:28:35.487Z</time>
      </trkpt>
      <trkpt lat="46.9144" lon="8.57712">
        <ele>869</ele>
        <time>2021-08-10T12:28:36.487Z</time>
      </trkpt>
      <trkpt lat="46.91439" lon="8.5771">
        <ele>869</ele>
        <time>2021-08-10T12:28:37.486Z</time>
      </trkpt>
      <trkpt lat="46.91438" lon="8.5771">
        <ele>868</ele>
        <time>2021-08-10T12:28:38.486Z</time>
      </trkpt>
      <trkpt lat="46.91438" lon="8.57709">
        <ele>868</ele>
        <time>2021-08-10T12:28:39.486Z</time>
      </trkpt>
      <trkpt lat="46.91438" lon="8.57708">
        <ele>868</ele>
        <time>2021-08-10T12:28:40.487Z</time>
      </trkpt>
      <trkpt lat="46.91438" lon="8.57708">
        <ele>867</ele>
        <time>2021-08-10T12:28:41.487Z</time>
      </trkpt>
      <trkpt lat="46.91438" lon="8.57708">
        <ele>867</ele>
        <time>2021-08-10T12:28:42.486Z</time>
      </trkpt>
      <trkpt lat="46.91438" lon="8.57707">
        <ele>867</ele>
        <time>2021-08-10T12:28:43.487Z</time>
      </trkpt>
      <trkpt lat="46.91438" lon="8.57706">
        <ele>866</ele>
        <time>2021-08-10T12:28:44.486Z</time>
      </trkpt>
      <trkpt lat="46.91438" lon="8.57704">
        <ele>865</ele>
        <time>2021-08-10T12:28:45.486Z</time>
      </trkpt>
      <trkpt lat="46.91438" lon="8.57703">
        <ele>864</ele>
        <time>2021-08-10T12:28:46.486Z</time>
      </trkpt>
      <trkpt lat="46.91438" lon="8.57703">
        <ele>863</ele>
        <time>2021-08-10T12:28:47.487Z</time>
      </trkpt>
      <trkpt lat="46.91437" lon="8.57703">
        <ele>863</ele>
        <time>2021-08-10T12:28:48.487Z</time>
      </trkpt>
      <trkpt lat="46.91437" lon="8.57702">
        <ele>862</ele>
        <time>2021-08-10T12:28:49.487Z</time>
      </trkpt>
      <trkpt lat="46.91436" lon="8.57701">
        <ele>861</ele>
        <time>2021-08-10T12:28:50.486Z</time>
      </trkpt>
      <trkpt lat="46.91436" lon="8.577">
        <ele>860</ele>
        <time>2021-08-10T12:28:51.487Z</time>
      </trkpt>
      <trkpt lat="46.91435" lon="8.57698">
        <ele>859</ele>
        <time>2021-08-10T12:28:52.487Z</time>
      </trkpt>
      <trkpt lat="46.91435" lon="8.57697">
        <ele>859</ele>
        <time>2021-08-10T12:28:53.487Z</time>
      </trkpt>
      <trkpt lat="46.91435" lon="8.57696">
        <ele>858</ele>
        <time>2021-08-10T12:28:54.487Z</time>
      </trkpt>
      <trkpt lat="46.91435" lon="8.57695">
        <ele>858</ele>
        <time>2021-08-10T12:28:55.486Z</time>
      </trkpt>
      <trkpt lat="46.91435" lon="8.57695">
        <ele>858</ele>
        <time>2021-08-10T12:28:56.486Z</time>
      </trkpt>
      <trkpt lat="46.91435" lon="8.57694">
        <ele>857</ele>
        <time>2021-08-10T12:28:57.487Z</time>
      </trkpt>
      <trkpt lat="46.91435" lon="8.57693">
        <ele>857</ele>
        <time>2021-08-10T12:28:58.487Z</time>
      </trkpt>
      <trkpt lat="46.91435" lon="8.57692">
        <ele>857</ele>
        <time>2021-08-10T12:28:59.486Z</time>
      </trkpt>
      <trkpt lat="46.91436" lon="8.57691">
        <ele>857</ele>
        <time>2021-08-10T12:29:00.486Z</time>
      </trkpt>
      <trkpt lat="46.91435" lon="8.5769">
        <ele>857</ele>
        <time>2021-08-10T12:29:01.487Z</time>
      </trkpt>
      <trkpt lat="46.91435" lon="8.57689">
        <ele>856</ele>
        <time>2021-08-10T12:29:02.487Z</time>
      </trkpt>
      <trkpt lat="46.91434" lon="8.57688">
        <ele>856</ele>
        <time>2021-08-10T12:29:03.487Z</time>
      </trkpt>
      <trkpt lat="46.91432" lon="8.57687">
        <ele>856</ele>
        <time>2021-08-10T12:29:04.486Z</time>
      </trkpt>
      <trkpt lat="46.91432" lon="8.57687">
        <ele>855</ele>
        <time>2021-08-10T12:29:05.487Z</time>
      </trkpt>
      <trkpt lat="46.91431" lon="8.57686">
        <ele>855</ele>
        <time>2021-08-10T12:29:17.513Z</time>
      </trkpt>
      <trkpt lat="46.9143" lon="8.57686">
        <ele>854</ele>
        <time>2021-08-10T12:29:18.514Z</time>
      </trkpt>
      <trkpt lat="46.9143" lon="8.57685">
        <ele>854</ele>
        <time>2021-08-10T12:29:19.514Z</time>
      </trkpt>
      <trkpt lat="46.9143" lon="8.57685">
        <ele>853</ele>
        <time>2021-08-10T12:29:20.514Z</time>
      </trkpt>
      <trkpt lat="46.9143" lon="8.57685">
        <ele>853</ele>
        <time>2021-08-10T12:29:21.514Z</time>
      </trkpt>
      <trkpt lat="46.9143" lon="8.57684">
        <ele>853</ele>
        <time>2021-08-10T12:29:22.514Z</time>
      </trkpt>
      <trkpt lat="46.91429" lon="8.57683">
        <ele>852</ele>
        <time>2021-08-10T12:29:24.446Z</time>
      </trkpt>
      <trkpt lat="46.91428" lon="8.57682">
        <ele>851</ele>
        <time>2021-08-10T12:29:25.445Z</time>
      </trkpt>
      <trkpt lat="46.91428" lon="8.57682">
        <ele>851</ele>
        <time>2021-08-10T12:29:57.242Z</time>
      </trkpt>
      <trkpt lat="46.91428" lon="8.57682">
        <ele>851</ele>
        <time>2021-08-10T12:29:58.242Z</time>
      </trkpt>
      <trkpt lat="46.91427" lon="8.57682">
        <ele>850</ele>
        <time>2021-08-10T12:29:59.243Z</time>
      </trkpt>
      <trkpt lat="46.91426" lon="8.57683">
        <ele>850</ele>
        <time>2021-08-10T12:30:00.243Z</time>
      </trkpt>
      <trkpt lat="46.91426" lon="8.57682">
        <ele>850</ele>
        <time>2021-08-10T12:30:09.268Z</time>
      </trkpt>
      <trkpt lat="46.91426" lon="8.57681">
        <ele>849</ele>
        <time>2021-08-10T12:30:10.268Z</time>
      </trkpt>
      <trkpt lat="46.91425" lon="8.57681">
        <ele>849</ele>
        <time>2021-08-10T12:30:11.268Z</time>
      </trkpt>
      <trkpt lat="46.91425" lon="8.57681">
        <ele>849</ele>
        <time>2021-08-10T12:30:12.268Z</time>
      </trkpt>
      <trkpt lat="46.91425" lon="8.5768">
        <ele>849</ele>
        <time>2021-08-10T12:30:13.268Z</time>
      </trkpt>
      <trkpt lat="46.91424" lon="8.57679">
        <ele>848</ele>
        <time>2021-08-10T12:30:14.270Z</time>
      </trkpt>
      <trkpt lat="46.91424" lon="8.57678">
        <ele>848</ele>
        <time>2021-08-10T12:30:15.270Z</time>
      </trkpt>
      <trkpt lat="46.91423" lon="8.57678">
        <ele>848</ele>
        <time>2021-08-10T12:30:16.269Z</time>
      </trkpt>
      <trkpt lat="46.91423" lon="8.57678">
        <ele>848</ele>
        <time>2021-08-10T12:30:17.269Z</time>
      </trkpt>
      <trkpt lat="46.91422" lon="8.57676">
        <ele>849</ele>
        <time>2021-08-10T12:30:18.269Z</time>
      </trkpt>
      <trkpt lat="46.91421" lon="8.57675">
        <ele>849</ele>
        <time>2021-08-10T12:30:19.270Z</time>
      </trkpt>
      <trkpt lat="46.9142" lon="8.57673">
        <ele>849</ele>
        <time>2021-08-10T12:30:25.373Z</time>
      </trkpt>
      <trkpt lat="46.91419" lon="8.57671">
        <ele>850</ele>
        <time>2021-08-10T12:30:26.372Z</time>
      </trkpt>
      <trkpt lat="46.91418" lon="8.57669">
        <ele>850</ele>
        <time>2021-08-10T12:30:27.373Z</time>
      </trkpt>
      <trkpt lat="46.91417" lon="8.57667">
        <ele>850</ele>
        <time>2021-08-10T12:30:28.373Z</time>
      </trkpt>
      <trkpt lat="46.91418" lon="8.57666">
        <ele>851</ele>
        <time>2021-08-10T12:30:29.373Z</time>
      </trkpt>
      <trkpt lat="46.91419" lon="8.57665">
        <ele>851</ele>
        <time>2021-08-10T12:30:30.372Z</time>
      </trkpt>
      <trkpt lat="46.91419" lon="8.57664">
        <ele>851</ele>
        <time>2021-08-10T12:30:31.373Z</time>
      </trkpt>
      <trkpt lat="46.91419" lon="8.57662">
        <ele>852</ele>
        <time>2021-08-10T12:30:32.373Z</time>
      </trkpt>
      <trkpt lat="46.91419" lon="8.5766">
        <ele>852</ele>
        <time>2021-08-10T12:30:33.372Z</time>
      </trkpt>
      <trkpt lat="46.91418" lon="8.57659">
        <ele>852</ele>
        <time>2021-08-10T12:30:34.373Z</time>
      </trkpt>
      <trkpt lat="46.91417" lon="8.57659">
        <ele>852</ele>
        <time>2021-08-10T12:30:35.372Z</time>
      </trkpt>
      <trkpt lat="46.91416" lon="8.57659">
        <ele>852</ele>
        <time>2021-08-10T12:30:36.372Z</time>
      </trkpt>
      <trkpt lat="46.91416" lon="8.57658">
        <ele>851</ele>
        <time>2021-08-10T12:30:37.372Z</time>
      </trkpt>
      <trkpt lat="46.91416" lon="8.57658">
        <ele>852</ele>
        <time>2021-08-10T12:30:38.372Z</time>
      </trkpt>
      <trkpt lat="46.91415" lon="8.57658">
        <ele>852</ele>
        <time>2021-08-10T12:30:39.373Z</time>
      </trkpt>
      <trkpt lat="46.91415" lon="8.57657">
        <ele>852</ele>
        <time>2021-08-10T12:30:40.372Z</time>
      </trkpt>
      <trkpt lat="46.91415" lon="8.57656">
        <ele>852</ele>
        <time>2021-08-10T12:30:41.372Z</time>
      </trkpt>
      <trkpt lat="46.91414" lon="8.57656">
        <ele>852</ele>
        <time>2021-08-10T12:30:42.372Z</time>
      </trkpt>
      <trkpt lat="46.91414" lon="8.57655">
        <ele>852</ele>
        <time>2021-08-10T12:30:43.372Z</time>
      </trkpt>
      <trkpt lat="46.91414" lon="8.57654">
        <ele>852</ele>
        <time>2021-08-10T12:30:44.372Z</time>
      </trkpt>
      <trkpt lat="46.91414" lon="8.57653">
        <ele>852</ele>
        <time>2021-08-10T12:30:45.372Z</time>
      </trkpt>
      <trkpt lat="46.91415" lon="8.57653">
        <ele>852</ele>
        <time>2021-08-10T12:30:46.372Z</time>
      </trkpt>
      <trkpt lat="46.91415" lon="8.57653">
        <ele>851</ele>
        <time>2021-08-10T12:30:47.372Z</time>
      </trkpt>
      <trkpt lat="46.91415" lon="8.57652">
        <ele>851</ele>
        <time>2021-08-10T12:30:48.372Z</time>
      </trkpt>
      <trkpt lat="46.91414" lon="8.57651">
        <ele>851</ele>
        <time>2021-08-10T12:30:49.372Z</time>
      </trkpt>
      <trkpt lat="46.91413" lon="8.5765">
        <ele>851</ele>
        <time>2021-08-10T12:30:50.372Z</time>
      </trkpt>
      <trkpt lat="46.91412" lon="8.57648">
        <ele>851</ele>
        <time>2021-08-10T12:30:51.372Z</time>
      </trkpt>
      <trkpt lat="46.91411" lon="8.57647">
        <ele>851</ele>
        <time>2021-08-10T12:30:52.372Z</time>
      </trkpt>
      <trkpt lat="46.91411" lon="8.57647">
        <ele>851</ele>
        <time>2021-08-10T12:30:53.372Z</time>
      </trkpt>
      <trkpt lat="46.91411" lon="8.57646">
        <ele>851</ele>
        <time>2021-08-10T12:30:54.372Z</time>
      </trkpt>
      <trkpt lat="46.91411" lon="8.57646">
        <ele>851</ele>
        <time>2021-08-10T12:30:55.372Z</time>
      </trkpt>
      <trkpt lat="46.9141" lon="8.57645">
        <ele>851</ele>
        <time>2021-08-10T12:30:56.372Z</time>
      </trkpt>
      <trkpt lat="46.91409" lon="8.57639">
        <ele>850</ele>
        <time>2021-08-10T12:30:57.374Z</time>
      </trkpt>
      <trkpt lat="46.91409" lon="8.57638">
        <ele>850</ele>
        <time>2021-08-10T12:30:58.374Z</time>
      </trkpt>
      <trkpt lat="46.91408" lon="8.57636">
        <ele>849</ele>
        <time>2021-08-10T12:30:59.373Z</time>
      </trkpt>
      <trkpt lat="46.91408" lon="8.57635">
        <ele>849</ele>
        <time>2021-08-10T12:31:00.373Z</time>
      </trkpt>
      <trkpt lat="46.91408" lon="8.57633">
        <ele>849</ele>
        <time>2021-08-10T12:31:01.373Z</time>
      </trkpt>
      <trkpt lat="46.91408" lon="8.57633">
        <ele>848</ele>
        <time>2021-08-10T12:31:02.373Z</time>
      </trkpt>
      <trkpt lat="46.91408" lon="8.57632">
        <ele>848</ele>
        <time>2021-08-10T12:31:03.374Z</time>
      </trkpt>
      <trkpt lat="46.91408" lon="8.57631">
        <ele>848</ele>
        <time>2021-08-10T12:31:04.374Z</time>
      </trkpt>
      <trkpt lat="46.91408" lon="8.5763">
        <ele>847</ele>
        <time>2021-08-10T12:31:05.374Z</time>
      </trkpt>
      <trkpt lat="46.91408" lon="8.57628">
        <ele>847</ele>
        <time>2021-08-10T12:31:06.373Z</time>
      </trkpt>
      <trkpt lat="46.91408" lon="8.57626">
        <ele>847</ele>
        <time>2021-08-10T12:31:07.373Z</time>
      </trkpt>
      <trkpt lat="46.91408" lon="8.57626">
        <ele>847</ele>
        <time>2021-08-10T12:31:08.373Z</time>
      </trkpt>
      <trkpt lat="46.91407" lon="8.57626">
        <ele>847</ele>
        <time>2021-08-10T12:31:09.373Z</time>
      </trkpt>
      <trkpt lat="46.91407" lon="8.57626">
        <ele>847</ele>
        <time>2021-08-10T12:31:10.373Z</time>
      </trkpt>
      <trkpt lat="46.91406" lon="8.57625">
        <ele>847</ele>
        <time>2021-08-10T12:31:11.373Z</time>
      </trkpt>
      <trkpt lat="46.91406" lon="8.57624">
        <ele>847</ele>
        <time>2021-08-10T12:31:12.373Z</time>
      </trkpt>
      <trkpt lat="46.91406" lon="8.57623">
        <ele>847</ele>
        <time>2021-08-10T12:31:13.373Z</time>
      </trkpt>
      <trkpt lat="46.91406" lon="8.57623">
        <ele>847</ele>
        <time>2021-08-10T12:31:14.374Z</time>
      </trkpt>
      <trkpt lat="46.91406" lon="8.57623">
        <ele>847</ele>
        <time>2021-08-10T12:31:15.374Z</time>
      </trkpt>
      <trkpt lat="46.91406" lon="8.57622">
        <ele>847</ele>
        <time>2021-08-10T12:31:16.374Z</time>
      </trkpt>
      <trkpt lat="46.91404" lon="8.5762">
        <ele>847</ele>
        <time>2021-08-10T12:31:17.374Z</time>
      </trkpt>
      <trkpt lat="46.91404" lon="8.5762">
        <ele>846</ele>
        <time>2021-08-10T12:31:18.374Z</time>
      </trkpt>
      <trkpt lat="46.91403" lon="8.57619">
        <ele>846</ele>
        <time>2021-08-10T12:31:19.374Z</time>
      </trkpt>
      <trkpt lat="46.91405" lon="8.57618">
        <ele>846</ele>
        <time>2021-08-10T12:31:20.375Z</time>
      </trkpt>
      <trkpt lat="46.91405" lon="8.57617">
        <ele>846</ele>
        <time>2021-08-10T12:31:21.375Z</time>
      </trkpt>
      <trkpt lat="46.91405" lon="8.57616">
        <ele>846</ele>
        <time>2021-08-10T12:31:22.375Z</time>
      </trkpt>
      <trkpt lat="46.91405" lon="8.57616">
        <ele>845</ele>
        <time>2021-08-10T12:31:23.375Z</time>
      </trkpt>
      <trkpt lat="46.91404" lon="8.57607">
        <ele>844</ele>
        <time>2021-08-10T12:31:24.376Z</time>
      </trkpt>
      <trkpt lat="46.91404" lon="8.57607">
        <ele>844</ele>
        <time>2021-08-10T12:31:25.375Z</time>
      </trkpt>
      <trkpt lat="46.91403" lon="8.57606">
        <ele>845</ele>
        <time>2021-08-10T12:31:26.375Z</time>
      </trkpt>
      <trkpt lat="46.91403" lon="8.57605">
        <ele>845</ele>
        <time>2021-08-10T12:31:27.375Z</time>
      </trkpt>
      <trkpt lat="46.91402" lon="8.57603">
        <ele>845</ele>
        <time>2021-08-10T12:31:28.375Z</time>
      </trkpt>
      <trkpt lat="46.91402" lon="8.57602">
        <ele>845</ele>
        <time>2021-08-10T12:31:29.375Z</time>
      </trkpt>
      <trkpt lat="46.91401" lon="8.57602">
        <ele>846</ele>
        <time>2021-08-10T12:31:30.376Z</time>
      </trkpt>
      <trkpt lat="46.91401" lon="8.57601">
        <ele>846</ele>
        <time>2021-08-10T12:31:31.376Z</time>
      </trkpt>
      <trkpt lat="46.91401" lon="8.576">
        <ele>846</ele>
        <time>2021-08-10T12:31:32.376Z</time>
      </trkpt>
      <trkpt lat="46.91401" lon="8.57599">
        <ele>846</ele>
        <time>2021-08-10T12:31:33.376Z</time>
      </trkpt>
      <trkpt lat="46.91401" lon="8.57598">
        <ele>846</ele>
        <time>2021-08-10T12:31:34.376Z</time>
      </trkpt>
      <trkpt lat="46.91401" lon="8.57597">
        <ele>846</ele>
        <time>2021-08-10T12:31:35.376Z</time>
      </trkpt>
      <trkpt lat="46.91401" lon="8.57596">
        <ele>846</ele>
        <time>2021-08-10T12:31:36.375Z</time>
      </trkpt>
      <trkpt lat="46.914" lon="8.57595">
        <ele>847</ele>
        <time>2021-08-10T12:31:37.376Z</time>
      </trkpt>
      <trkpt lat="46.914" lon="8.57594">
        <ele>847</ele>
        <time>2021-08-10T12:31:38.376Z</time>
      </trkpt>
      <trkpt lat="46.914" lon="8.57594">
        <ele>847</ele>
        <time>2021-08-10T12:31:39.376Z</time>
      </trkpt>
      <trkpt lat="46.914" lon="8.57594">
        <ele>848</ele>
        <time>2021-08-10T12:31:40.377Z</time>
      </trkpt>
      <trkpt lat="46.91399" lon="8.57593">
        <ele>848</ele>
        <time>2021-08-10T12:31:41.377Z</time>
      </trkpt>
      <trkpt lat="46.91399" lon="8.57592">
        <ele>848</ele>
        <time>2021-08-10T12:31:42.376Z</time>
      </trkpt>
      <trkpt lat="46.91398" lon="8.57591">
        <ele>848</ele>
        <time>2021-08-10T12:31:43.377Z</time>
      </trkpt>
      <trkpt lat="46.91398" lon="8.5759">
        <ele>848</ele>
        <time>2021-08-10T12:31:44.377Z</time>
      </trkpt>
      <trkpt lat="46.91398" lon="8.57589">
        <ele>847</ele>
        <time>2021-08-10T12:31:45.376Z</time>
      </trkpt>
      <trkpt lat="46.91397" lon="8.57588">
        <ele>847</ele>
        <time>2021-08-10T12:31:46.377Z</time>
      </trkpt>
      <trkpt lat="46.91396" lon="8.57588">
        <ele>847</ele>
        <time>2021-08-10T12:31:47.377Z</time>
      </trkpt>
      <trkpt lat="46.91395" lon="8.57587">
        <ele>847</ele>
        <time>2021-08-10T12:31:50.482Z</time>
      </trkpt>
      <trkpt lat="46.91395" lon="8.57587">
        <ele>847</ele>
        <time>2021-08-10T12:31:51.482Z</time>
      </trkpt>
      <trkpt lat="46.91395" lon="8.57587">
        <ele>847</ele>
        <time>2021-08-10T12:31:52.482Z</time>
      </trkpt>
      <trkpt lat="46.91395" lon="8.57587">
        <ele>847</ele>
        <time>2021-08-10T12:31:53.483Z</time>
      </trkpt>
      <trkpt lat="46.91394" lon="8.57586">
        <ele>847</ele>
        <time>2021-08-10T12:31:54.482Z</time>
      </trkpt>
      <trkpt lat="46.91394" lon="8.57586">
        <ele>847</ele>
        <time>2021-08-10T12:31:55.482Z</time>
      </trkpt>
      <trkpt lat="46.91394" lon="8.57584">
        <ele>847</ele>
        <time>2021-08-10T12:31:56.482Z</time>
      </trkpt>
      <trkpt lat="46.91394" lon="8.57584">
        <ele>847</ele>
        <time>2021-08-10T12:31:57.483Z</time>
      </trkpt>
      <trkpt lat="46.91393" lon="8.57584">
        <ele>847</ele>
        <time>2021-08-10T12:31:58.482Z</time>
      </trkpt>
      <trkpt lat="46.91393" lon="8.57583">
        <ele>848</ele>
        <time>2021-08-10T12:31:59.482Z</time>
      </trkpt>
      <trkpt lat="46.91392" lon="8.57582">
        <ele>848</ele>
        <time>2021-08-10T12:32:00.482Z</time>
      </trkpt>
      <trkpt lat="46.91392" lon="8.57582">
        <ele>848</ele>
        <time>2021-08-10T12:32:01.483Z</time>
      </trkpt>
      <trkpt lat="46.9139" lon="8.5758">
        <ele>848</ele>
        <time>2021-08-10T12:32:02.482Z</time>
      </trkpt>
      <trkpt lat="46.91388" lon="8.57578">
        <ele>848</ele>
        <time>2021-08-10T12:32:03.483Z</time>
      </trkpt>
      <trkpt lat="46.91387" lon="8.57577">
        <ele>849</ele>
        <time>2021-08-10T12:32:04.482Z</time>
      </trkpt>
      <trkpt lat="46.91386" lon="8.57576">
        <ele>849</ele>
        <time>2021-08-10T12:32:05.483Z</time>
      </trkpt>
      <trkpt lat="46.91386" lon="8.57575">
        <ele>849</ele>
        <time>2021-08-10T12:32:06.483Z</time>
      </trkpt>
      <trkpt lat="46.91385" lon="8.57573">
        <ele>850</ele>
        <time>2021-08-10T12:32:07.483Z</time>
      </trkpt>
      <trkpt lat="46.91385" lon="8.57573">
        <ele>851</ele>
        <time>2021-08-10T12:32:08.484Z</time>
      </trkpt>
      <trkpt lat="46.91385" lon="8.57572">
        <ele>851</ele>
        <time>2021-08-10T12:32:09.483Z</time>
      </trkpt>
      <trkpt lat="46.91385" lon="8.57571">
        <ele>851</ele>
        <time>2021-08-10T12:32:10.484Z</time>
      </trkpt>
      <trkpt lat="46.91384" lon="8.57571">
        <ele>852</ele>
        <time>2021-08-10T12:32:11.484Z</time>
      </trkpt>
      <trkpt lat="46.91386" lon="8.57571">
        <ele>852</ele>
        <time>2021-08-10T12:32:12.484Z</time>
      </trkpt>
      <trkpt lat="46.91386" lon="8.5757">
        <ele>852</ele>
        <time>2021-08-10T12:32:13.483Z</time>
      </trkpt>
      <trkpt lat="46.91387" lon="8.57569">
        <ele>852</ele>
        <time>2021-08-10T12:32:14.484Z</time>
      </trkpt>
      <trkpt lat="46.91387" lon="8.57569">
        <ele>853</ele>
        <time>2021-08-10T12:32:15.484Z</time>
      </trkpt>
      <trkpt lat="46.91387" lon="8.57567">
        <ele>853</ele>
        <time>2021-08-10T12:32:16.484Z</time>
      </trkpt>
      <trkpt lat="46.91386" lon="8.57568">
        <ele>853</ele>
        <time>2021-08-10T12:32:17.484Z</time>
      </trkpt>
      <trkpt lat="46.91384" lon="8.57567">
        <ele>853</ele>
        <time>2021-08-10T12:32:18.484Z</time>
      </trkpt>
      <trkpt lat="46.91383" lon="8.57567">
        <ele>853</ele>
        <time>2021-08-10T12:32:19.484Z</time>
      </trkpt>
      <trkpt lat="46.91383" lon="8.57566">
        <ele>853</ele>
        <time>2021-08-10T12:32:20.484Z</time>
      </trkpt>
      <trkpt lat="46.91384" lon="8.57567">
        <ele>853</ele>
        <time>2021-08-10T12:32:21.484Z</time>
      </trkpt>
      <trkpt lat="46.91384" lon="8.57568">
        <ele>853</ele>
        <time>2021-08-10T12:32:22.484Z</time>
      </trkpt>
      <trkpt lat="46.91385" lon="8.57568">
        <ele>853</ele>
        <time>2021-08-10T12:32:23.483Z</time>
      </trkpt>
      <trkpt lat="46.91386" lon="8.57567">
        <ele>853</ele>
        <time>2021-08-10T12:32:24.483Z</time>
      </trkpt>
      <trkpt lat="46.91386" lon="8.57567">
        <ele>853</ele>
        <time>2021-08-10T12:32:25.483Z</time>
      </trkpt>
      <trkpt lat="46.91385" lon="8.57567">
        <ele>853</ele>
        <time>2021-08-10T12:32:26.483Z</time>
      </trkpt>
      <trkpt lat="46.91385" lon="8.57566">
        <ele>852</ele>
        <time>2021-08-10T12:32:27.484Z</time>
      </trkpt>
      <trkpt lat="46.91384" lon="8.57564">
        <ele>852</ele>
        <time>2021-08-10T12:32:28.483Z</time>
      </trkpt>
      <trkpt lat="46.91383" lon="8.57563">
        <ele>851</ele>
        <time>2021-08-10T12:32:29.483Z</time>
      </trkpt>
      <trkpt lat="46.91382" lon="8.57562">
        <ele>851</ele>
        <time>2021-08-10T12:32:30.483Z</time>
      </trkpt>
      <trkpt lat="46.91381" lon="8.57561">
        <ele>850</ele>
        <time>2021-08-10T12:32:31.483Z</time>
      </trkpt>
      <trkpt lat="46.91379" lon="8.57562">
        <ele>849</ele>
        <time>2021-08-10T12:32:32.483Z</time>
      </trkpt>
      <trkpt lat="46.91379" lon="8.57562">
        <ele>849</ele>
        <time>2021-08-10T12:32:33.484Z</time>
      </trkpt>
      <trkpt lat="46.91379" lon="8.57562">
        <ele>848</ele>
        <time>2021-08-10T12:32:34.483Z</time>
      </trkpt>
      <trkpt lat="46.91379" lon="8.57561">
        <ele>848</ele>
        <time>2021-08-10T12:32:35.484Z</time>
      </trkpt>
      <trkpt lat="46.91378" lon="8.57561">
        <ele>848</ele>
        <time>2021-08-10T12:32:36.483Z</time>
      </trkpt>
      <trkpt lat="46.91378" lon="8.57562">
        <ele>847</ele>
        <time>2021-08-10T12:32:37.484Z</time>
      </trkpt>
      <trkpt lat="46.91377" lon="8.57562">
        <ele>847</ele>
        <time>2021-08-10T12:32:38.484Z</time>
      </trkpt>
      <trkpt lat="46.91377" lon="8.57562">
        <ele>846</ele>
        <time>2021-08-10T12:32:39.483Z</time>
      </trkpt>
      <trkpt lat="46.91377" lon="8.57562">
        <ele>846</ele>
        <time>2021-08-10T12:32:40.483Z</time>
      </trkpt>
      <trkpt lat="46.91375" lon="8.57561">
        <ele>845</ele>
        <time>2021-08-10T12:32:41.484Z</time>
      </trkpt>
      <trkpt lat="46.91374" lon="8.57561">
        <ele>844</ele>
        <time>2021-08-10T12:32:42.484Z</time>
      </trkpt>
      <trkpt lat="46.91374" lon="8.5756">
        <ele>844</ele>
        <time>2021-08-10T12:32:43.483Z</time>
      </trkpt>
      <trkpt lat="46.91374" lon="8.57559">
        <ele>844</ele>
        <time>2021-08-10T12:32:44.484Z</time>
      </trkpt>
      <trkpt lat="46.91373" lon="8.57558">
        <ele>844</ele>
        <time>2021-08-10T12:32:45.484Z</time>
      </trkpt>
      <trkpt lat="46.91373" lon="8.57556">
        <ele>843</ele>
        <time>2021-08-10T12:32:46.483Z</time>
      </trkpt>
      <trkpt lat="46.91373" lon="8.57554">
        <ele>843</ele>
        <time>2021-08-10T12:32:47.483Z</time>
      </trkpt>
      <trkpt lat="46.91372" lon="8.57551">
        <ele>842</ele>
        <time>2021-08-10T12:32:48.484Z</time>
      </trkpt>
      <trkpt lat="46.91372" lon="8.57549">
        <ele>842</ele>
        <time>2021-08-10T12:32:49.483Z</time>
      </trkpt>
      <trkpt lat="46.91372" lon="8.57548">
        <ele>842</ele>
        <time>2021-08-10T12:32:50.483Z</time>
      </trkpt>
      <trkpt lat="46.91372" lon="8.57547">
        <ele>842</ele>
        <time>2021-08-10T12:32:51.483Z</time>
      </trkpt>
      <trkpt lat="46.91373" lon="8.57546">
        <ele>842</ele>
        <time>2021-08-10T12:32:52.484Z</time>
      </trkpt>
      <trkpt lat="46.91372" lon="8.57545">
        <ele>842</ele>
        <time>2021-08-10T12:32:53.483Z</time>
      </trkpt>
      <trkpt lat="46.91372" lon="8.57544">
        <ele>842</ele>
        <time>2021-08-10T12:32:54.483Z</time>
      </trkpt>
      <trkpt lat="46.91371" lon="8.57543">
        <ele>841</ele>
        <time>2021-08-10T12:32:55.483Z</time>
      </trkpt>
      <trkpt lat="46.9137" lon="8.57541">
        <ele>841</ele>
        <time>2021-08-10T12:32:56.483Z</time>
      </trkpt>
      <trkpt lat="46.91369" lon="8.5754">
        <ele>840</ele>
        <time>2021-08-10T12:32:57.484Z</time>
      </trkpt>
      <trkpt lat="46.91369" lon="8.5754">
        <ele>840</ele>
        <time>2021-08-10T12:32:58.483Z</time>
      </trkpt>
      <trkpt lat="46.91369" lon="8.57539">
        <ele>840</ele>
        <time>2021-08-10T12:32:59.484Z</time>
      </trkpt>
      <trkpt lat="46.91368" lon="8.57538">
        <ele>840</ele>
        <time>2021-08-10T12:33:00.484Z</time>
      </trkpt>
      <trkpt lat="46.91368" lon="8.57537">
        <ele>840</ele>
        <time>2021-08-10T12:33:01.484Z</time>
      </trkpt>
      <trkpt lat="46.91368" lon="8.57537">
        <ele>840</ele>
        <time>2021-08-10T12:33:02.483Z</time>
      </trkpt>
      <trkpt lat="46.91368" lon="8.57537">
        <ele>839</ele>
        <time>2021-08-10T12:33:03.483Z</time>
      </trkpt>
      <trkpt lat="46.91368" lon="8.57536">
        <ele>839</ele>
        <time>2021-08-10T12:33:04.485Z</time>
      </trkpt>
      <trkpt lat="46.91368" lon="8.57536">
        <ele>839</ele>
        <time>2021-08-10T12:33:05.484Z</time>
      </trkpt>
      <trkpt lat="46.91368" lon="8.57537">
        <ele>839</ele>
        <time>2021-08-10T12:33:06.484Z</time>
      </trkpt>
      <trkpt lat="46.91368" lon="8.57536">
        <ele>839</ele>
        <time>2021-08-10T12:33:07.485Z</time>
      </trkpt>
      <trkpt lat="46.91368" lon="8.57536">
        <ele>839</ele>
        <time>2021-08-10T12:33:08.485Z</time>
      </trkpt>
      <trkpt lat="46.91368" lon="8.57536">
        <ele>839</ele>
        <time>2021-08-10T12:33:09.485Z</time>
      </trkpt>
      <trkpt lat="46.91371" lon="8.57536">
        <ele>837</ele>
        <time>2021-08-10T12:33:10.485Z</time>
      </trkpt>
      <trkpt lat="46.91371" lon="8.57536">
        <ele>837</ele>
        <time>2021-08-10T12:33:11.485Z</time>
      </trkpt>
      <trkpt lat="46.9137" lon="8.57535">
        <ele>836</ele>
        <time>2021-08-10T12:33:12.484Z</time>
      </trkpt>
      <trkpt lat="46.91369" lon="8.57534">
        <ele>835</ele>
        <time>2021-08-10T12:33:13.484Z</time>
      </trkpt>
      <trkpt lat="46.91369" lon="8.57534">
        <ele>834</ele>
        <time>2021-08-10T12:33:14.484Z</time>
      </trkpt>
      <trkpt lat="46.91369" lon="8.57533">
        <ele>834</ele>
        <time>2021-08-10T12:33:15.484Z</time>
      </trkpt>
      <trkpt lat="46.91368" lon="8.57532">
        <ele>833</ele>
        <time>2021-08-10T12:33:16.485Z</time>
      </trkpt>
      <trkpt lat="46.91368" lon="8.57532">
        <ele>833</ele>
        <time>2021-08-10T12:33:17.485Z</time>
      </trkpt>
      <trkpt lat="46.91368" lon="8.57531">
        <ele>832</ele>
        <time>2021-08-10T12:33:18.484Z</time>
      </trkpt>
      <trkpt lat="46.91368" lon="8.57531">
        <ele>832</ele>
        <time>2021-08-10T12:33:19.484Z</time>
      </trkpt>
      <trkpt lat="46.91367" lon="8.57531">
        <ele>831</ele>
        <time>2021-08-10T12:33:20.484Z</time>
      </trkpt>
      <trkpt lat="46.91367" lon="8.5753">
        <ele>831</ele>
        <time>2021-08-10T12:33:21.484Z</time>
      </trkpt>
      <trkpt lat="46.91366" lon="8.57529">
        <ele>831</ele>
        <time>2021-08-10T12:33:22.484Z</time>
      </trkpt>
      <trkpt lat="46.91366" lon="8.57529">
        <ele>831</ele>
        <time>2021-08-10T12:33:23.484Z</time>
      </trkpt>
      <trkpt lat="46.91365" lon="8.57529">
        <ele>831</ele>
        <time>2021-08-10T12:33:24.484Z</time>
      </trkpt>
      <trkpt lat="46.91365" lon="8.57528">
        <ele>831</ele>
        <time>2021-08-10T12:33:25.484Z</time>
      </trkpt>
      <trkpt lat="46.91365" lon="8.57528">
        <ele>830</ele>
        <time>2021-08-10T12:33:26.485Z</time>
      </trkpt>
      <trkpt lat="46.91364" lon="8.57527">
        <ele>830</ele>
        <time>2021-08-10T12:33:27.484Z</time>
      </trkpt>
      <trkpt lat="46.91364" lon="8.57526">
        <ele>829</ele>
        <time>2021-08-10T12:33:28.484Z</time>
      </trkpt>
      <trkpt lat="46.91363" lon="8.57525">
        <ele>829</ele>
        <time>2021-08-10T12:33:29.485Z</time>
      </trkpt>
      <trkpt lat="46.91362" lon="8.57525">
        <ele>828</ele>
        <time>2021-08-10T12:33:30.484Z</time>
      </trkpt>
      <trkpt lat="46.91362" lon="8.57525">
        <ele>828</ele>
        <time>2021-08-10T12:33:31.484Z</time>
      </trkpt>
      <trkpt lat="46.91361" lon="8.57524">
        <ele>827</ele>
        <time>2021-08-10T12:33:32.484Z</time>
      </trkpt>
      <trkpt lat="46.91361" lon="8.57523">
        <ele>827</ele>
        <time>2021-08-10T12:33:33.485Z</time>
      </trkpt>
      <trkpt lat="46.91361" lon="8.57522">
        <ele>826</ele>
        <time>2021-08-10T12:33:34.484Z</time>
      </trkpt>
      <trkpt lat="46.91361" lon="8.57523">
        <ele>826</ele>
        <time>2021-08-10T12:33:35.484Z</time>
      </trkpt>
      <trkpt lat="46.91361" lon="8.57523">
        <ele>825</ele>
        <time>2021-08-10T12:33:36.484Z</time>
      </trkpt>
      <trkpt lat="46.91362" lon="8.57521">
        <ele>825</ele>
        <time>2021-08-10T12:33:37.485Z</time>
      </trkpt>
      <trkpt lat="46.91361" lon="8.57519">
        <ele>825</ele>
        <time>2021-08-10T12:33:38.484Z</time>
      </trkpt>
      <trkpt lat="46.91361" lon="8.57516">
        <ele>825</ele>
        <time>2021-08-10T12:33:39.484Z</time>
      </trkpt>
      <trkpt lat="46.9136" lon="8.57514">
        <ele>825</ele>
        <time>2021-08-10T12:33:40.484Z</time>
      </trkpt>
      <trkpt lat="46.91359" lon="8.57512">
        <ele>825</ele>
        <time>2021-08-10T12:33:41.485Z</time>
      </trkpt>
      <trkpt lat="46.91359" lon="8.57511">
        <ele>825</ele>
        <time>2021-08-10T12:33:42.485Z</time>
      </trkpt>
      <trkpt lat="46.91359" lon="8.5751">
        <ele>825</ele>
        <time>2021-08-10T12:33:43.484Z</time>
      </trkpt>
      <trkpt lat="46.91359" lon="8.5751">
        <ele>825</ele>
        <time>2021-08-10T12:33:44.484Z</time>
      </trkpt>
      <trkpt lat="46.91359" lon="8.57509">
        <ele>825</ele>
        <time>2021-08-10T12:33:46.606Z</time>
      </trkpt>
      <trkpt lat="46.91359" lon="8.57508">
        <ele>824</ele>
        <time>2021-08-10T12:33:47.606Z</time>
      </trkpt>
      <trkpt lat="46.91358" lon="8.57507">
        <ele>824</ele>
        <time>2021-08-10T12:33:48.605Z</time>
      </trkpt>
      <trkpt lat="46.91358" lon="8.57507">
        <ele>824</ele>
        <time>2021-08-10T12:33:49.605Z</time>
      </trkpt>
      <trkpt lat="46.91357" lon="8.57506">
        <ele>824</ele>
        <time>2021-08-10T12:33:50.605Z</time>
      </trkpt>
      <trkpt lat="46.91357" lon="8.57505">
        <ele>824</ele>
        <time>2021-08-10T12:33:51.605Z</time>
      </trkpt>
      <trkpt lat="46.91357" lon="8.57504">
        <ele>824</ele>
        <time>2021-08-10T12:33:52.605Z</time>
      </trkpt>
      <trkpt lat="46.91357" lon="8.57503">
        <ele>824</ele>
        <time>2021-08-10T12:33:53.605Z</time>
      </trkpt>
      <trkpt lat="46.91356" lon="8.57502">
        <ele>823</ele>
        <time>2021-08-10T12:33:54.606Z</time>
      </trkpt>
      <trkpt lat="46.91356" lon="8.57501">
        <ele>823</ele>
        <time>2021-08-10T12:33:55.605Z</time>
      </trkpt>
      <trkpt lat="46.91356" lon="8.57501">
        <ele>823</ele>
        <time>2021-08-10T12:33:56.605Z</time>
      </trkpt>
      <trkpt lat="46.91357" lon="8.575">
        <ele>822</ele>
        <time>2021-08-10T12:33:58.731Z</time>
      </trkpt>
      <trkpt lat="46.91358" lon="8.57497">
        <ele>822</ele>
        <time>2021-08-10T12:33:59.731Z</time>
      </trkpt>
      <trkpt lat="46.91357" lon="8.57494">
        <ele>821</ele>
        <time>2021-08-10T12:34:00.731Z</time>
      </trkpt>
      <trkpt lat="46.91357" lon="8.57493">
        <ele>820</ele>
        <time>2021-08-10T12:34:01.731Z</time>
      </trkpt>
      <trkpt lat="46.91356" lon="8.57492">
        <ele>820</ele>
        <time>2021-08-10T12:34:02.731Z</time>
      </trkpt>
      <trkpt lat="46.91356" lon="8.57491">
        <ele>819</ele>
        <time>2021-08-10T12:34:03.731Z</time>
      </trkpt>
      <trkpt lat="46.91356" lon="8.57491">
        <ele>819</ele>
        <time>2021-08-10T12:34:04.731Z</time>
      </trkpt>
      <trkpt lat="46.91356" lon="8.57491">
        <ele>819</ele>
        <time>2021-08-10T12:34:05.731Z</time>
      </trkpt>
      <trkpt lat="46.91356" lon="8.57492">
        <ele>818</ele>
        <time>2021-08-10T12:34:06.731Z</time>
      </trkpt>
      <trkpt lat="46.91357" lon="8.57492">
        <ele>818</ele>
        <time>2021-08-10T12:34:07.731Z</time>
      </trkpt>
      <trkpt lat="46.91357" lon="8.57492">
        <ele>818</ele>
        <time>2021-08-10T12:34:08.731Z</time>
      </trkpt>
      <trkpt lat="46.91351" lon="8.57485">
        <ele>815</ele>
        <time>2021-08-10T12:34:09.733Z</time>
      </trkpt>
      <trkpt lat="46.91349" lon="8.57483">
        <ele>815</ele>
        <time>2021-08-10T12:34:10.734Z</time>
      </trkpt>
      <trkpt lat="46.91347" lon="8.57482">
        <ele>814</ele>
        <time>2021-08-10T12:34:11.733Z</time>
      </trkpt>
      <trkpt lat="46.91344" lon="8.57482">
        <ele>812</ele>
        <time>2021-08-10T12:34:12.734Z</time>
      </trkpt>
      <trkpt lat="46.91343" lon="8.57483">
        <ele>812</ele>
        <time>2021-08-10T12:34:13.733Z</time>
      </trkpt>
      <trkpt lat="46.91343" lon="8.57483">
        <ele>811</ele>
        <time>2021-08-10T12:34:14.734Z</time>
      </trkpt>
      <trkpt lat="46.91342" lon="8.57483">
        <ele>810</ele>
        <time>2021-08-10T12:34:15.733Z</time>
      </trkpt>
      <trkpt lat="46.91342" lon="8.57483">
        <ele>809</ele>
        <time>2021-08-10T12:34:16.733Z</time>
      </trkpt>
      <trkpt lat="46.91342" lon="8.57483">
        <ele>809</ele>
        <time>2021-08-10T12:34:17.733Z</time>
      </trkpt>
      <trkpt lat="46.91341" lon="8.57482">
        <ele>808</ele>
        <time>2021-08-10T12:34:18.733Z</time>
      </trkpt>
      <trkpt lat="46.91341" lon="8.57481">
        <ele>807</ele>
        <time>2021-08-10T12:34:19.733Z</time>
      </trkpt>
      <trkpt lat="46.9134" lon="8.5748">
        <ele>807</ele>
        <time>2021-08-10T12:34:20.733Z</time>
      </trkpt>
      <trkpt lat="46.91339" lon="8.57479">
        <ele>806</ele>
        <time>2021-08-10T12:34:21.734Z</time>
      </trkpt>
      <trkpt lat="46.91339" lon="8.57479">
        <ele>806</ele>
        <time>2021-08-10T12:34:22.733Z</time>
      </trkpt>
      <trkpt lat="46.91339" lon="8.57479">
        <ele>806</ele>
        <time>2021-08-10T12:34:23.733Z</time>
      </trkpt>
      <trkpt lat="46.91338" lon="8.57478">
        <ele>806</ele>
        <time>2021-08-10T12:34:24.734Z</time>
      </trkpt>
      <trkpt lat="46.91338" lon="8.57478">
        <ele>806</ele>
        <time>2021-08-10T12:34:25.733Z</time>
      </trkpt>
      <trkpt lat="46.91338" lon="8.57477">
        <ele>806</ele>
        <time>2021-08-10T12:34:26.733Z</time>
      </trkpt>
      <trkpt lat="46.91338" lon="8.57477">
        <ele>806</ele>
        <time>2021-08-10T12:34:27.733Z</time>
      </trkpt>
      <trkpt lat="46.91338" lon="8.57477">
        <ele>806</ele>
        <time>2021-08-10T12:34:28.733Z</time>
      </trkpt>
      <trkpt lat="46.91338" lon="8.57478">
        <ele>806</ele>
        <time>2021-08-10T12:34:29.733Z</time>
      </trkpt>
      <trkpt lat="46.91337" lon="8.57477">
        <ele>806</ele>
        <time>2021-08-10T12:34:30.733Z</time>
      </trkpt>
      <trkpt lat="46.91336" lon="8.57477">
        <ele>806</ele>
        <time>2021-08-10T12:34:31.733Z</time>
      </trkpt>
      <trkpt lat="46.91335" lon="8.57476">
        <ele>806</ele>
        <time>2021-08-10T12:34:32.733Z</time>
      </trkpt>
      <trkpt lat="46.91335" lon="8.57474">
        <ele>805</ele>
        <time>2021-08-10T12:34:33.733Z</time>
      </trkpt>
      <trkpt lat="46.91335" lon="8.57473">
        <ele>805</ele>
        <time>2021-08-10T12:34:34.734Z</time>
      </trkpt>
      <trkpt lat="46.91335" lon="8.57472">
        <ele>804</ele>
        <time>2021-08-10T12:34:35.733Z</time>
      </trkpt>
      <trkpt lat="46.91335" lon="8.57471">
        <ele>804</ele>
        <time>2021-08-10T12:34:36.733Z</time>
      </trkpt>
      <trkpt lat="46.91335" lon="8.5747">
        <ele>803</ele>
        <time>2021-08-10T12:34:38.754Z</time>
      </trkpt>
      <trkpt lat="46.91335" lon="8.5747">
        <ele>803</ele>
        <time>2021-08-10T12:34:39.754Z</time>
      </trkpt>
      <trkpt lat="46.91335" lon="8.5747">
        <ele>803</ele>
        <time>2021-08-10T12:34:40.754Z</time>
      </trkpt>
      <trkpt lat="46.91335" lon="8.57469">
        <ele>803</ele>
        <time>2021-08-10T12:34:41.754Z</time>
      </trkpt>
      <trkpt lat="46.91336" lon="8.57469">
        <ele>802</ele>
        <time>2021-08-10T12:34:42.754Z</time>
      </trkpt>
      <trkpt lat="46.91336" lon="8.57469">
        <ele>802</ele>
        <time>2021-08-10T12:34:43.754Z</time>
      </trkpt>
      <trkpt lat="46.91336" lon="8.57469">
        <ele>802</ele>
        <time>2021-08-10T12:34:44.754Z</time>
      </trkpt>
      <trkpt lat="46.91336" lon="8.57468">
        <ele>802</ele>
        <time>2021-08-10T12:34:45.756Z</time>
      </trkpt>
      <trkpt lat="46.91336" lon="8.57468">
        <ele>794</ele>
        <time>2021-08-10T12:34:46.756Z</time>
      </trkpt>
      <trkpt lat="46.91336" lon="8.57468">
        <ele>795</ele>
        <time>2021-08-10T12:34:47.756Z</time>
      </trkpt>
      <trkpt lat="46.91336" lon="8.57468">
        <ele>795</ele>
        <time>2021-08-10T12:34:48.755Z</time>
      </trkpt>
      <trkpt lat="46.91336" lon="8.5747">
        <ele>799</ele>
        <time>2021-08-10T12:34:49.755Z</time>
      </trkpt>
      <trkpt lat="46.91336" lon="8.5747">
        <ele>799</ele>
        <time>2021-08-10T12:34:50.756Z</time>
      </trkpt>
      <trkpt lat="46.91335" lon="8.57471">
        <ele>801</ele>
        <time>2021-08-10T12:34:51.757Z</time>
      </trkpt>
      <trkpt lat="46.91335" lon="8.57471">
        <ele>802</ele>
        <time>2021-08-10T12:34:52.757Z</time>
      </trkpt>
      <trkpt lat="46.91335" lon="8.5747">
        <ele>803</ele>
        <time>2021-08-10T12:34:53.756Z</time>
      </trkpt>
      <trkpt lat="46.9133" lon="8.57467">
        <ele>806</ele>
        <time>2021-08-10T12:34:54.757Z</time>
      </trkpt>
      <trkpt lat="46.91329" lon="8.57465">
        <ele>806</ele>
        <time>2021-08-10T12:34:55.756Z</time>
      </trkpt>
      <trkpt lat="46.91328" lon="8.57463">
        <ele>806</ele>
        <time>2021-08-10T12:34:56.756Z</time>
      </trkpt>
      <trkpt lat="46.91326" lon="8.57462">
        <ele>807</ele>
        <time>2021-08-10T12:35:05.889Z</time>
      </trkpt>
      <trkpt lat="46.91326" lon="8.57461">
        <ele>807</ele>
        <time>2021-08-10T12:35:06.889Z</time>
      </trkpt>
      <trkpt lat="46.91327" lon="8.5746">
        <ele>807</ele>
        <time>2021-08-10T12:35:07.890Z</time>
      </trkpt>
      <trkpt lat="46.91326" lon="8.57459">
        <ele>806</ele>
        <time>2021-08-10T12:35:14.030Z</time>
      </trkpt>
      <trkpt lat="46.91326" lon="8.57458">
        <ele>806</ele>
        <time>2021-08-10T12:35:15.030Z</time>
      </trkpt>
      <trkpt lat="46.91325" lon="8.57456">
        <ele>806</ele>
        <time>2021-08-10T12:35:23.898Z</time>
      </trkpt>
      <trkpt lat="46.91324" lon="8.57454">
        <ele>805</ele>
        <time>2021-08-10T12:35:24.898Z</time>
      </trkpt>
      <trkpt lat="46.91324" lon="8.57453">
        <ele>805</ele>
        <time>2021-08-10T12:35:25.898Z</time>
      </trkpt>
      <trkpt lat="46.91324" lon="8.57453">
        <ele>805</ele>
        <time>2021-08-10T12:35:39.985Z</time>
      </trkpt>
      <trkpt lat="46.91324" lon="8.57453">
        <ele>805</ele>
        <time>2021-08-10T12:35:51.858Z</time>
      </trkpt>
      <trkpt lat="46.91324" lon="8.57452">
        <ele>804</ele>
        <time>2021-08-10T12:35:52.858Z</time>
      </trkpt>
      <trkpt lat="46.91325" lon="8.57451">
        <ele>804</ele>
        <time>2021-08-10T12:35:53.858Z</time>
      </trkpt>
      <trkpt lat="46.91325" lon="8.57451">
        <ele>804</ele>
        <time>2021-08-10T12:35:54.857Z</time>
      </trkpt>
      <trkpt lat="46.91325" lon="8.5745">
        <ele>804</ele>
        <time>2021-08-10T12:35:55.857Z</time>
      </trkpt>
      <trkpt lat="46.91324" lon="8.5745">
        <ele>804</ele>
        <time>2021-08-10T12:35:56.858Z</time>
      </trkpt>
      <trkpt lat="46.91324" lon="8.5745">
        <ele>804</ele>
        <time>2021-08-10T12:36:11.002Z</time>
      </trkpt>
      <trkpt lat="46.91324" lon="8.57449">
        <ele>804</ele>
        <time>2021-08-10T12:36:12.003Z</time>
      </trkpt>
      <trkpt lat="46.91324" lon="8.57447">
        <ele>804</ele>
        <time>2021-08-10T12:36:13.717Z</time>
      </trkpt>
      <trkpt lat="46.91324" lon="8.57445">
        <ele>804</ele>
        <time>2021-08-10T12:36:14.716Z</time>
      </trkpt>
      <trkpt lat="46.91324" lon="8.57444">
        <ele>804</ele>
        <time>2021-08-10T12:36:15.716Z</time>
      </trkpt>
      <trkpt lat="46.91324" lon="8.57444">
        <ele>804</ele>
        <time>2021-08-10T12:36:18.742Z</time>
      </trkpt>
      <trkpt lat="46.91324" lon="8.57443">
        <ele>804</ele>
        <time>2021-08-10T12:36:19.742Z</time>
      </trkpt>
      <trkpt lat="46.91324" lon="8.57441">
        <ele>804</ele>
        <time>2021-08-10T12:36:20.741Z</time>
      </trkpt>
      <trkpt lat="46.91323" lon="8.57439">
        <ele>804</ele>
        <time>2021-08-10T12:36:21.742Z</time>
      </trkpt>
      <trkpt lat="46.91321" lon="8.57436">
        <ele>803</ele>
        <time>2021-08-10T12:36:22.741Z</time>
      </trkpt>
      <trkpt lat="46.91319" lon="8.57432">
        <ele>802</ele>
        <time>2021-08-10T12:36:25.867Z</time>
      </trkpt>
      <trkpt lat="46.91318" lon="8.57431">
        <ele>802</ele>
        <time>2021-08-10T12:36:26.867Z</time>
      </trkpt>
      <trkpt lat="46.91318" lon="8.5743">
        <ele>802</ele>
        <time>2021-08-10T12:36:27.866Z</time>
      </trkpt>
      <trkpt lat="46.91318" lon="8.57429">
        <ele>802</ele>
        <time>2021-08-10T12:36:28.867Z</time>
      </trkpt>
      <trkpt lat="46.91318" lon="8.57428">
        <ele>801</ele>
        <time>2021-08-10T12:36:29.866Z</time>
      </trkpt>
      <trkpt lat="46.91318" lon="8.57427">
        <ele>801</ele>
        <time>2021-08-10T12:36:30.866Z</time>
      </trkpt>
      <trkpt lat="46.91317" lon="8.57426">
        <ele>800</ele>
        <time>2021-08-10T12:36:31.867Z</time>
      </trkpt>
      <trkpt lat="46.91317" lon="8.57425">
        <ele>799</ele>
        <time>2021-08-10T12:36:32.867Z</time>
      </trkpt>
      <trkpt lat="46.91317" lon="8.57424">
        <ele>798</ele>
        <time>2021-08-10T12:36:33.867Z</time>
      </trkpt>
      <trkpt lat="46.91317" lon="8.57423">
        <ele>798</ele>
        <time>2021-08-10T12:36:34.866Z</time>
      </trkpt>
      <trkpt lat="46.91316" lon="8.57422">
        <ele>797</ele>
        <time>2021-08-10T12:36:35.866Z</time>
      </trkpt>
      <trkpt lat="46.91316" lon="8.57422">
        <ele>796</ele>
        <time>2021-08-10T12:36:36.867Z</time>
      </trkpt>
      <trkpt lat="46.91316" lon="8.57421">
        <ele>795</ele>
        <time>2021-08-10T12:36:37.867Z</time>
      </trkpt>
      <trkpt lat="46.91316" lon="8.57421">
        <ele>795</ele>
        <time>2021-08-10T12:36:41.981Z</time>
      </trkpt>
      <trkpt lat="46.91316" lon="8.5742">
        <ele>795</ele>
        <time>2021-08-10T12:36:42.981Z</time>
      </trkpt>
      <trkpt lat="46.91317" lon="8.5742">
        <ele>795</ele>
        <time>2021-08-10T12:36:43.981Z</time>
      </trkpt>
      <trkpt lat="46.91317" lon="8.57419">
        <ele>794</ele>
        <time>2021-08-10T12:37:01.143Z</time>
      </trkpt>
      <trkpt lat="46.91318" lon="8.57417">
        <ele>794</ele>
        <time>2021-08-10T12:37:02.143Z</time>
      </trkpt>
      <trkpt lat="46.91317" lon="8.57416">
        <ele>794</ele>
        <time>2021-08-10T12:37:09.002Z</time>
      </trkpt>
      <trkpt lat="46.91316" lon="8.57409">
        <ele>794</ele>
        <time>2021-08-10T12:37:10.002Z</time>
      </trkpt>
      <trkpt lat="46.91316" lon="8.57408">
        <ele>794</ele>
        <time>2021-08-10T12:37:11.002Z</time>
      </trkpt>
      <trkpt lat="46.91315" lon="8.57407">
        <ele>794</ele>
        <time>2021-08-10T12:37:22.113Z</time>
      </trkpt>
      <trkpt lat="46.91315" lon="8.57406">
        <ele>794</ele>
        <time>2021-08-10T12:37:23.114Z</time>
      </trkpt>
      <trkpt lat="46.91314" lon="8.57405">
        <ele>795</ele>
        <time>2021-08-10T12:37:24.113Z</time>
      </trkpt>
      <trkpt lat="46.91313" lon="8.57403">
        <ele>795</ele>
        <time>2021-08-10T12:37:25.114Z</time>
      </trkpt>
      <trkpt lat="46.91313" lon="8.57402">
        <ele>795</ele>
        <time>2021-08-10T12:37:39.230Z</time>
      </trkpt>
      <trkpt lat="46.91312" lon="8.57401">
        <ele>795</ele>
        <time>2021-08-10T12:37:40.230Z</time>
      </trkpt>
      <trkpt lat="46.91311" lon="8.574">
        <ele>795</ele>
        <time>2021-08-10T12:37:41.230Z</time>
      </trkpt>
      <trkpt lat="46.91311" lon="8.57399">
        <ele>795</ele>
        <time>2021-08-10T12:37:42.229Z</time>
      </trkpt>
      <trkpt lat="46.91311" lon="8.57398">
        <ele>795</ele>
        <time>2021-08-10T12:37:43.229Z</time>
      </trkpt>
      <trkpt lat="46.91312" lon="8.57397">
        <ele>795</ele>
        <time>2021-08-10T12:37:44.229Z</time>
      </trkpt>
      <trkpt lat="46.91311" lon="8.57395">
        <ele>795</ele>
        <time>2021-08-10T12:37:45.229Z</time>
      </trkpt>
      <trkpt lat="46.9131" lon="8.57394">
        <ele>794</ele>
        <time>2021-08-10T12:37:46.230Z</time>
      </trkpt>
      <trkpt lat="46.9131" lon="8.57393">
        <ele>794</ele>
        <time>2021-08-10T12:37:57.378Z</time>
      </trkpt>
      <trkpt lat="46.9131" lon="8.57392">
        <ele>794</ele>
        <time>2021-08-10T12:38:07.274Z</time>
      </trkpt>
      <trkpt lat="46.91309" lon="8.5739">
        <ele>794</ele>
        <time>2021-08-10T12:38:12.124Z</time>
      </trkpt>
      <trkpt lat="46.91308" lon="8.57389">
        <ele>794</ele>
        <time>2021-08-10T12:38:13.124Z</time>
      </trkpt>
      <trkpt lat="46.91307" lon="8.57388">
        <ele>794</ele>
        <time>2021-08-10T12:38:14.125Z</time>
      </trkpt>
      <trkpt lat="46.91307" lon="8.57387">
        <ele>794</ele>
        <time>2021-08-10T12:38:15.124Z</time>
      </trkpt>
      <trkpt lat="46.91306" lon="8.57386">
        <ele>794</ele>
        <time>2021-08-10T12:38:16.124Z</time>
      </trkpt>
      <trkpt lat="46.91305" lon="8.57384">
        <ele>794</ele>
        <time>2021-08-10T12:38:17.124Z</time>
      </trkpt>
      <trkpt lat="46.91305" lon="8.57382">
        <ele>794</ele>
        <time>2021-08-10T12:38:18.125Z</time>
      </trkpt>
      <trkpt lat="46.91305" lon="8.5738">
        <ele>793</ele>
        <time>2021-08-10T12:38:19.124Z</time>
      </trkpt>
      <trkpt lat="46.91304" lon="8.57377">
        <ele>793</ele>
        <time>2021-08-10T12:38:20.125Z</time>
      </trkpt>
      <trkpt lat="46.91302" lon="8.57375">
        <ele>793</ele>
        <time>2021-08-10T12:38:21.125Z</time>
      </trkpt>
      <trkpt lat="46.91301" lon="8.57373">
        <ele>792</ele>
        <time>2021-08-10T12:38:22.125Z</time>
      </trkpt>
      <trkpt lat="46.913" lon="8.57371">
        <ele>791</ele>
        <time>2021-08-10T12:38:23.125Z</time>
      </trkpt>
      <trkpt lat="46.913" lon="8.57368">
        <ele>791</ele>
        <time>2021-08-10T12:38:24.125Z</time>
      </trkpt>
      <trkpt lat="46.913" lon="8.57367">
        <ele>790</ele>
        <time>2021-08-10T12:38:25.125Z</time>
      </trkpt>
      <trkpt lat="46.913" lon="8.57366">
        <ele>790</ele>
        <time>2021-08-10T12:38:26.125Z</time>
      </trkpt>
      <trkpt lat="46.91299" lon="8.57365">
        <ele>790</ele>
        <time>2021-08-10T12:38:27.125Z</time>
      </trkpt>
      <trkpt lat="46.91298" lon="8.57364">
        <ele>790</ele>
        <time>2021-08-10T12:38:28.124Z</time>
      </trkpt>
      <trkpt lat="46.91297" lon="8.57363">
        <ele>790</ele>
        <time>2021-08-10T12:38:29.125Z</time>
      </trkpt>
      <trkpt lat="46.91297" lon="8.57361">
        <ele>790</ele>
        <time>2021-08-10T12:38:30.125Z</time>
      </trkpt>
      <trkpt lat="46.91296" lon="8.5736">
        <ele>789</ele>
        <time>2021-08-10T12:38:31.124Z</time>
      </trkpt>
      <trkpt lat="46.91295" lon="8.5736">
        <ele>789</ele>
        <time>2021-08-10T12:38:32.125Z</time>
      </trkpt>
      <trkpt lat="46.91295" lon="8.5736">
        <ele>789</ele>
        <time>2021-08-10T12:38:33.125Z</time>
      </trkpt>
      <trkpt lat="46.91294" lon="8.57358">
        <ele>789</ele>
        <time>2021-08-10T12:38:34.125Z</time>
      </trkpt>
      <trkpt lat="46.91294" lon="8.57354">
        <ele>789</ele>
        <time>2021-08-10T12:38:35.125Z</time>
      </trkpt>
      <trkpt lat="46.91294" lon="8.57353">
        <ele>789</ele>
        <time>2021-08-10T12:38:36.126Z</time>
      </trkpt>
      <trkpt lat="46.91293" lon="8.57351">
        <ele>789</ele>
        <time>2021-08-10T12:38:37.125Z</time>
      </trkpt>
      <trkpt lat="46.91292" lon="8.57349">
        <ele>789</ele>
        <time>2021-08-10T12:38:38.125Z</time>
      </trkpt>
      <trkpt lat="46.9129" lon="8.57346">
        <ele>790</ele>
        <time>2021-08-10T12:38:39.125Z</time>
      </trkpt>
      <trkpt lat="46.91289" lon="8.57343">
        <ele>790</ele>
        <time>2021-08-10T12:38:40.125Z</time>
      </trkpt>
      <trkpt lat="46.91288" lon="8.57341">
        <ele>791</ele>
        <time>2021-08-10T12:38:41.125Z</time>
      </trkpt>
      <trkpt lat="46.91287" lon="8.57339">
        <ele>791</ele>
        <time>2021-08-10T12:38:42.125Z</time>
      </trkpt>
      <trkpt lat="46.91287" lon="8.57338">
        <ele>791</ele>
        <time>2021-08-10T12:38:43.126Z</time>
      </trkpt>
      <trkpt lat="46.91287" lon="8.57337">
        <ele>791</ele>
        <time>2021-08-10T12:38:44.125Z</time>
      </trkpt>
      <trkpt lat="46.91287" lon="8.57336">
        <ele>791</ele>
        <time>2021-08-10T12:38:45.125Z</time>
      </trkpt>
      <trkpt lat="46.91286" lon="8.57335">
        <ele>791</ele>
        <time>2021-08-10T12:38:46.125Z</time>
      </trkpt>
      <trkpt lat="46.91285" lon="8.57333">
        <ele>791</ele>
        <time>2021-08-10T12:38:47.125Z</time>
      </trkpt>
      <trkpt lat="46.91285" lon="8.57332">
        <ele>790</ele>
        <time>2021-08-10T12:38:48.125Z</time>
      </trkpt>
      <trkpt lat="46.91284" lon="8.57331">
        <ele>790</ele>
        <time>2021-08-10T12:38:49.125Z</time>
      </trkpt>
      <trkpt lat="46.91284" lon="8.5733">
        <ele>789</ele>
        <time>2021-08-10T12:38:50.125Z</time>
      </trkpt>
      <trkpt lat="46.91284" lon="8.57329">
        <ele>789</ele>
        <time>2021-08-10T12:38:51.125Z</time>
      </trkpt>
      <trkpt lat="46.91283" lon="8.57328">
        <ele>789</ele>
        <time>2021-08-10T12:38:52.125Z</time>
      </trkpt>
      <trkpt lat="46.91283" lon="8.57327">
        <ele>788</ele>
        <time>2021-08-10T12:38:53.126Z</time>
      </trkpt>
      <trkpt lat="46.91283" lon="8.57326">
        <ele>788</ele>
        <time>2021-08-10T12:38:54.126Z</time>
      </trkpt>
      <trkpt lat="46.91283" lon="8.57325">
        <ele>788</ele>
        <time>2021-08-10T12:38:55.126Z</time>
      </trkpt>
      <trkpt lat="46.91283" lon="8.57324">
        <ele>788</ele>
        <time>2021-08-10T12:38:56.126Z</time>
      </trkpt>
      <trkpt lat="46.91283" lon="8.57322">
        <ele>787</ele>
        <time>2021-08-10T12:38:57.125Z</time>
      </trkpt>
      <trkpt lat="46.91282" lon="8.5732">
        <ele>787</ele>
        <time>2021-08-10T12:38:58.125Z</time>
      </trkpt>
      <trkpt lat="46.91282" lon="8.57318">
        <ele>787</ele>
        <time>2021-08-10T12:38:59.125Z</time>
      </trkpt>
      <trkpt lat="46.91282" lon="8.57317">
        <ele>786</ele>
        <time>2021-08-10T12:39:00.125Z</time>
      </trkpt>
      <trkpt lat="46.91281" lon="8.57315">
        <ele>786</ele>
        <time>2021-08-10T12:39:01.126Z</time>
      </trkpt>
      <trkpt lat="46.91281" lon="8.57314">
        <ele>785</ele>
        <time>2021-08-10T12:39:02.125Z</time>
      </trkpt>
      <trkpt lat="46.9128" lon="8.57313">
        <ele>785</ele>
        <time>2021-08-10T12:39:03.126Z</time>
      </trkpt>
      <trkpt lat="46.91279" lon="8.57311">
        <ele>785</ele>
        <time>2021-08-10T12:39:04.126Z</time>
      </trkpt>
      <trkpt lat="46.91279" lon="8.57308">
        <ele>785</ele>
        <time>2021-08-10T12:39:05.125Z</time>
      </trkpt>
      <trkpt lat="46.91278" lon="8.57307">
        <ele>785</ele>
        <time>2021-08-10T12:39:06.126Z</time>
      </trkpt>
      <trkpt lat="46.91277" lon="8.57305">
        <ele>785</ele>
        <time>2021-08-10T12:39:07.126Z</time>
      </trkpt>
      <trkpt lat="46.91277" lon="8.57305">
        <ele>785</ele>
        <time>2021-08-10T12:39:08.126Z</time>
      </trkpt>
      <trkpt lat="46.91277" lon="8.57303">
        <ele>785</ele>
        <time>2021-08-10T12:39:09.125Z</time>
      </trkpt>
      <trkpt lat="46.91277" lon="8.57301">
        <ele>785</ele>
        <time>2021-08-10T12:39:10.125Z</time>
      </trkpt>
      <trkpt lat="46.91277" lon="8.573">
        <ele>785</ele>
        <time>2021-08-10T12:39:11.126Z</time>
      </trkpt>
      <trkpt lat="46.91276" lon="8.57299">
        <ele>785</ele>
        <time>2021-08-10T12:39:12.126Z</time>
      </trkpt>
      <trkpt lat="46.91276" lon="8.57298">
        <ele>786</ele>
        <time>2021-08-10T12:39:13.126Z</time>
      </trkpt>
      <trkpt lat="46.91276" lon="8.57298">
        <ele>786</ele>
        <time>2021-08-10T12:39:14.126Z</time>
      </trkpt>
      <trkpt lat="46.91276" lon="8.57298">
        <ele>786</ele>
        <time>2021-08-10T12:39:15.126Z</time>
      </trkpt>
      <trkpt lat="46.91275" lon="8.57294">
        <ele>787</ele>
        <time>2021-08-10T12:39:16.127Z</time>
      </trkpt>
      <trkpt lat="46.91273" lon="8.57288">
        <ele>786</ele>
        <time>2021-08-10T12:39:17.127Z</time>
      </trkpt>
      <trkpt lat="46.91273" lon="8.57288">
        <ele>785</ele>
        <time>2021-08-10T12:39:18.128Z</time>
      </trkpt>
      <trkpt lat="46.91272" lon="8.57287">
        <ele>785</ele>
        <time>2021-08-10T12:39:19.127Z</time>
      </trkpt>
      <trkpt lat="46.91272" lon="8.57286">
        <ele>785</ele>
        <time>2021-08-10T12:39:20.128Z</time>
      </trkpt>
      <trkpt lat="46.91272" lon="8.57284">
        <ele>785</ele>
        <time>2021-08-10T12:39:21.128Z</time>
      </trkpt>
      <trkpt lat="46.91271" lon="8.57283">
        <ele>785</ele>
        <time>2021-08-10T12:39:22.128Z</time>
      </trkpt>
      <trkpt lat="46.9127" lon="8.57281">
        <ele>786</ele>
        <time>2021-08-10T12:39:23.128Z</time>
      </trkpt>
      <trkpt lat="46.91269" lon="8.5728">
        <ele>786</ele>
        <time>2021-08-10T12:39:24.128Z</time>
      </trkpt>
      <trkpt lat="46.91269" lon="8.57278">
        <ele>787</ele>
        <time>2021-08-10T12:39:25.127Z</time>
      </trkpt>
      <trkpt lat="46.91268" lon="8.57277">
        <ele>787</ele>
        <time>2021-08-10T12:39:26.128Z</time>
      </trkpt>
      <trkpt lat="46.91268" lon="8.57276">
        <ele>787</ele>
        <time>2021-08-10T12:39:27.128Z</time>
      </trkpt>
      <trkpt lat="46.91268" lon="8.57275">
        <ele>788</ele>
        <time>2021-08-10T12:39:28.128Z</time>
      </trkpt>
      <trkpt lat="46.91268" lon="8.57273">
        <ele>788</ele>
        <time>2021-08-10T12:39:29.128Z</time>
      </trkpt>
      <trkpt lat="46.91268" lon="8.57272">
        <ele>789</ele>
        <time>2021-08-10T12:39:30.128Z</time>
      </trkpt>
      <trkpt lat="46.91268" lon="8.5727">
        <ele>789</ele>
        <time>2021-08-10T12:39:31.127Z</time>
      </trkpt>
      <trkpt lat="46.91267" lon="8.57269">
        <ele>789</ele>
        <time>2021-08-10T12:39:32.127Z</time>
      </trkpt>
      <trkpt lat="46.91267" lon="8.57268">
        <ele>789</ele>
        <time>2021-08-10T12:39:33.127Z</time>
      </trkpt>
      <trkpt lat="46.91266" lon="8.57267">
        <ele>790</ele>
        <time>2021-08-10T12:39:34.127Z</time>
      </trkpt>
      <trkpt lat="46.91266" lon="8.57266">
        <ele>790</ele>
        <time>2021-08-10T12:39:35.128Z</time>
      </trkpt>
      <trkpt lat="46.91265" lon="8.57264">
        <ele>790</ele>
        <time>2021-08-10T12:39:36.127Z</time>
      </trkpt>
      <trkpt lat="46.91265" lon="8.57263">
        <ele>789</ele>
        <time>2021-08-10T12:39:37.128Z</time>
      </trkpt>
      <trkpt lat="46.91265" lon="8.57261">
        <ele>789</ele>
        <time>2021-08-10T12:39:38.128Z</time>
      </trkpt>
      <trkpt lat="46.91265" lon="8.5726">
        <ele>789</ele>
        <time>2021-08-10T12:39:39.128Z</time>
      </trkpt>
      <trkpt lat="46.91265" lon="8.57259">
        <ele>790</ele>
        <time>2021-08-10T12:39:40.128Z</time>
      </trkpt>
      <trkpt lat="46.91264" lon="8.57258">
        <ele>789</ele>
        <time>2021-08-10T12:39:41.128Z</time>
      </trkpt>
      <trkpt lat="46.91264" lon="8.57258">
        <ele>789</ele>
        <time>2021-08-10T12:39:42.127Z</time>
      </trkpt>
      <trkpt lat="46.91263" lon="8.57257">
        <ele>789</ele>
        <time>2021-08-10T12:39:43.128Z</time>
      </trkpt>
      <trkpt lat="46.91263" lon="8.57256">
        <ele>789</ele>
        <time>2021-08-10T12:39:44.127Z</time>
      </trkpt>
      <trkpt lat="46.91263" lon="8.57255">
        <ele>788</ele>
        <time>2021-08-10T12:39:45.128Z</time>
      </trkpt>
      <trkpt lat="46.91263" lon="8.57253">
        <ele>788</ele>
        <time>2021-08-10T12:39:46.127Z</time>
      </trkpt>
      <trkpt lat="46.91263" lon="8.57251">
        <ele>787</ele>
        <time>2021-08-10T12:39:47.127Z</time>
      </trkpt>
      <trkpt lat="46.91263" lon="8.57249">
        <ele>786</ele>
        <time>2021-08-10T12:39:48.128Z</time>
      </trkpt>
      <trkpt lat="46.91263" lon="8.57248">
        <ele>786</ele>
        <time>2021-08-10T12:39:49.128Z</time>
      </trkpt>
      <trkpt lat="46.91264" lon="8.57246">
        <ele>785</ele>
        <time>2021-08-10T12:39:50.127Z</time>
      </trkpt>
      <trkpt lat="46.91265" lon="8.57243">
        <ele>785</ele>
        <time>2021-08-10T12:39:51.127Z</time>
      </trkpt>
      <trkpt lat="46.91265" lon="8.57242">
        <ele>785</ele>
        <time>2021-08-10T12:39:52.127Z</time>
      </trkpt>
      <trkpt lat="46.91265" lon="8.57242">
        <ele>784</ele>
        <time>2021-08-10T12:39:53.127Z</time>
      </trkpt>
      <trkpt lat="46.91266" lon="8.57241">
        <ele>784</ele>
        <time>2021-08-10T12:39:54.127Z</time>
      </trkpt>
      <trkpt lat="46.91266" lon="8.5724">
        <ele>784</ele>
        <time>2021-08-10T12:39:55.128Z</time>
      </trkpt>
      <trkpt lat="46.91267" lon="8.5724">
        <ele>784</ele>
        <time>2021-08-10T12:39:56.127Z</time>
      </trkpt>
      <trkpt lat="46.91267" lon="8.57239">
        <ele>784</ele>
        <time>2021-08-10T12:39:57.127Z</time>
      </trkpt>
      <trkpt lat="46.91267" lon="8.57237">
        <ele>784</ele>
        <time>2021-08-10T12:39:58.127Z</time>
      </trkpt>
      <trkpt lat="46.91267" lon="8.57236">
        <ele>784</ele>
        <time>2021-08-10T12:39:59.128Z</time>
      </trkpt>
      <trkpt lat="46.91267" lon="8.57234">
        <ele>784</ele>
        <time>2021-08-10T12:40:00.128Z</time>
      </trkpt>
      <trkpt lat="46.91267" lon="8.57233">
        <ele>784</ele>
        <time>2021-08-10T12:40:01.128Z</time>
      </trkpt>
      <trkpt lat="46.91267" lon="8.57232">
        <ele>784</ele>
        <time>2021-08-10T12:40:02.128Z</time>
      </trkpt>
      <trkpt lat="46.91267" lon="8.57231">
        <ele>785</ele>
        <time>2021-08-10T12:40:03.128Z</time>
      </trkpt>
      <trkpt lat="46.91266" lon="8.5723">
        <ele>785</ele>
        <time>2021-08-10T12:40:04.128Z</time>
      </trkpt>
      <trkpt lat="46.91264" lon="8.57228">
        <ele>785</ele>
        <time>2021-08-10T12:40:05.128Z</time>
      </trkpt>
      <trkpt lat="46.91263" lon="8.57227">
        <ele>785</ele>
        <time>2021-08-10T12:40:06.128Z</time>
      </trkpt>
      <trkpt lat="46.91261" lon="8.57227">
        <ele>785</ele>
        <time>2021-08-10T12:40:07.128Z</time>
      </trkpt>
      <trkpt lat="46.9126" lon="8.57227">
        <ele>785</ele>
        <time>2021-08-10T12:40:08.128Z</time>
      </trkpt>
      <trkpt lat="46.9126" lon="8.57225">
        <ele>785</ele>
        <time>2021-08-10T12:40:09.128Z</time>
      </trkpt>
      <trkpt lat="46.9126" lon="8.57222">
        <ele>785</ele>
        <time>2021-08-10T12:40:10.127Z</time>
      </trkpt>
      <trkpt lat="46.9126" lon="8.57219">
        <ele>785</ele>
        <time>2021-08-10T12:40:11.128Z</time>
      </trkpt>
      <trkpt lat="46.9126" lon="8.57217">
        <ele>785</ele>
        <time>2021-08-10T12:40:12.128Z</time>
      </trkpt>
      <trkpt lat="46.9126" lon="8.57215">
        <ele>785</ele>
        <time>2021-08-10T12:40:13.128Z</time>
      </trkpt>
      <trkpt lat="46.9126" lon="8.57213">
        <ele>785</ele>
        <time>2021-08-10T12:40:14.127Z</time>
      </trkpt>
      <trkpt lat="46.91259" lon="8.57212">
        <ele>785</ele>
        <time>2021-08-10T12:40:15.128Z</time>
      </trkpt>
      <trkpt lat="46.91259" lon="8.57209">
        <ele>785</ele>
        <time>2021-08-10T12:40:16.128Z</time>
      </trkpt>
      <trkpt lat="46.91259" lon="8.57206">
        <ele>785</ele>
        <time>2021-08-10T12:40:17.127Z</time>
      </trkpt>
      <trkpt lat="46.91258" lon="8.57204">
        <ele>786</ele>
        <time>2021-08-10T12:40:18.128Z</time>
      </trkpt>
      <trkpt lat="46.91259" lon="8.57202">
        <ele>786</ele>
        <time>2021-08-10T12:40:19.128Z</time>
      </trkpt>
      <trkpt lat="46.91259" lon="8.572">
        <ele>786</ele>
        <time>2021-08-10T12:40:20.128Z</time>
      </trkpt>
      <trkpt lat="46.91259" lon="8.57199">
        <ele>786</ele>
        <time>2021-08-10T12:40:21.127Z</time>
      </trkpt>
      <trkpt lat="46.91259" lon="8.57198">
        <ele>787</ele>
        <time>2021-08-10T12:40:22.127Z</time>
      </trkpt>
      <trkpt lat="46.91259" lon="8.57195">
        <ele>787</ele>
        <time>2021-08-10T12:40:23.128Z</time>
      </trkpt>
      <trkpt lat="46.91258" lon="8.57193">
        <ele>787</ele>
        <time>2021-08-10T12:40:24.127Z</time>
      </trkpt>
      <trkpt lat="46.91257" lon="8.57191">
        <ele>787</ele>
        <time>2021-08-10T12:40:25.128Z</time>
      </trkpt>
      <trkpt lat="46.91256" lon="8.57188">
        <ele>788</ele>
        <time>2021-08-10T12:40:26.128Z</time>
      </trkpt>
      <trkpt lat="46.91256" lon="8.57185">
        <ele>788</ele>
        <time>2021-08-10T12:40:27.128Z</time>
      </trkpt>
      <trkpt lat="46.91256" lon="8.57183">
        <ele>788</ele>
        <time>2021-08-10T12:40:28.128Z</time>
      </trkpt>
      <trkpt lat="46.91256" lon="8.57181">
        <ele>789</ele>
        <time>2021-08-10T12:40:29.127Z</time>
      </trkpt>
      <trkpt lat="46.91255" lon="8.5718">
        <ele>789</ele>
        <time>2021-08-10T12:40:30.127Z</time>
      </trkpt>
      <trkpt lat="46.91254" lon="8.57179">
        <ele>789</ele>
        <time>2021-08-10T12:40:31.128Z</time>
      </trkpt>
      <trkpt lat="46.91254" lon="8.57177">
        <ele>790</ele>
        <time>2021-08-10T12:40:32.128Z</time>
      </trkpt>
      <trkpt lat="46.91252" lon="8.57175">
        <ele>790</ele>
        <time>2021-08-10T12:40:33.128Z</time>
      </trkpt>
      <trkpt lat="46.91252" lon="8.57173">
        <ele>791</ele>
        <time>2021-08-10T12:40:34.127Z</time>
      </trkpt>
      <trkpt lat="46.91251" lon="8.57172">
        <ele>791</ele>
        <time>2021-08-10T12:40:35.127Z</time>
      </trkpt>
      <trkpt lat="46.91251" lon="8.57171">
        <ele>792</ele>
        <time>2021-08-10T12:40:36.127Z</time>
      </trkpt>
      <trkpt lat="46.9125" lon="8.57169">
        <ele>792</ele>
        <time>2021-08-10T12:40:37.128Z</time>
      </trkpt>
      <trkpt lat="46.91249" lon="8.57168">
        <ele>793</ele>
        <time>2021-08-10T12:40:38.128Z</time>
      </trkpt>
      <trkpt lat="46.91248" lon="8.57166">
        <ele>793</ele>
        <time>2021-08-10T12:40:39.128Z</time>
      </trkpt>
      <trkpt lat="46.91247" lon="8.57165">
        <ele>794</ele>
        <time>2021-08-10T12:40:40.128Z</time>
      </trkpt>
      <trkpt lat="46.91247" lon="8.57163">
        <ele>794</ele>
        <time>2021-08-10T12:40:41.127Z</time>
      </trkpt>
      <trkpt lat="46.91248" lon="8.57162">
        <ele>794</ele>
        <time>2021-08-10T12:40:42.127Z</time>
      </trkpt>
      <trkpt lat="46.91248" lon="8.5716">
        <ele>794</ele>
        <time>2021-08-10T12:40:43.127Z</time>
      </trkpt>
      <trkpt lat="46.91248" lon="8.57159">
        <ele>795</ele>
        <time>2021-08-10T12:40:44.127Z</time>
      </trkpt>
      <trkpt lat="46.91248" lon="8.57158">
        <ele>795</ele>
        <time>2021-08-10T12:40:45.128Z</time>
      </trkpt>
      <trkpt lat="46.91248" lon="8.57157">
        <ele>795</ele>
        <time>2021-08-10T12:40:46.128Z</time>
      </trkpt>
      <trkpt lat="46.91248" lon="8.57157">
        <ele>795</ele>
        <time>2021-08-10T12:40:47.128Z</time>
      </trkpt>
      <trkpt lat="46.91248" lon="8.57156">
        <ele>795</ele>
        <time>2021-08-10T12:40:48.127Z</time>
      </trkpt>
      <trkpt lat="46.91248" lon="8.57155">
        <ele>795</ele>
        <time>2021-08-10T12:40:49.128Z</time>
      </trkpt>
      <trkpt lat="46.91248" lon="8.57154">
        <ele>795</ele>
        <time>2021-08-10T12:40:50.128Z</time>
      </trkpt>
      <trkpt lat="46.91248" lon="8.57153">
        <ele>795</ele>
        <time>2021-08-10T12:40:51.128Z</time>
      </trkpt>
      <trkpt lat="46.91248" lon="8.57151">
        <ele>794</ele>
        <time>2021-08-10T12:40:52.127Z</time>
      </trkpt>
      <trkpt lat="46.91248" lon="8.57149">
        <ele>794</ele>
        <time>2021-08-10T12:40:53.128Z</time>
      </trkpt>
      <trkpt lat="46.91247" lon="8.57148">
        <ele>794</ele>
        <time>2021-08-10T12:40:54.128Z</time>
      </trkpt>
      <trkpt lat="46.91247" lon="8.57146">
        <ele>794</ele>
        <time>2021-08-10T12:40:55.128Z</time>
      </trkpt>
      <trkpt lat="46.91246" lon="8.57144">
        <ele>794</ele>
        <time>2021-08-10T12:40:56.128Z</time>
      </trkpt>
      <trkpt lat="46.91246" lon="8.57142">
        <ele>794</ele>
        <time>2021-08-10T12:40:57.127Z</time>
      </trkpt>
      <trkpt lat="46.91245" lon="8.57141">
        <ele>794</ele>
        <time>2021-08-10T12:40:58.128Z</time>
      </trkpt>
      <trkpt lat="46.91244" lon="8.5714">
        <ele>794</ele>
        <time>2021-08-10T12:40:59.128Z</time>
      </trkpt>
      <trkpt lat="46.91244" lon="8.57139">
        <ele>793</ele>
        <time>2021-08-10T12:41:00.128Z</time>
      </trkpt>
      <trkpt lat="46.91243" lon="8.57137">
        <ele>793</ele>
        <time>2021-08-10T12:41:01.127Z</time>
      </trkpt>
      <trkpt lat="46.91243" lon="8.57135">
        <ele>793</ele>
        <time>2021-08-10T12:41:02.128Z</time>
      </trkpt>
      <trkpt lat="46.91242" lon="8.57134">
        <ele>793</ele>
        <time>2021-08-10T12:41:03.128Z</time>
      </trkpt>
      <trkpt lat="46.91242" lon="8.57132">
        <ele>792</ele>
        <time>2021-08-10T12:41:04.128Z</time>
      </trkpt>
      <trkpt lat="46.91242" lon="8.5713">
        <ele>792</ele>
        <time>2021-08-10T12:41:05.127Z</time>
      </trkpt>
      <trkpt lat="46.91242" lon="8.57129">
        <ele>792</ele>
        <time>2021-08-10T12:41:06.128Z</time>
      </trkpt>
      <trkpt lat="46.91241" lon="8.57127">
        <ele>792</ele>
        <time>2021-08-10T12:41:07.128Z</time>
      </trkpt>
      <trkpt lat="46.9124" lon="8.57124">
        <ele>791</ele>
        <time>2021-08-10T12:41:08.128Z</time>
      </trkpt>
      <trkpt lat="46.9124" lon="8.57122">
        <ele>791</ele>
        <time>2021-08-10T12:41:09.128Z</time>
      </trkpt>
      <trkpt lat="46.91239" lon="8.57121">
        <ele>791</ele>
        <time>2021-08-10T12:41:10.128Z</time>
      </trkpt>
      <trkpt lat="46.91238" lon="8.57118">
        <ele>791</ele>
        <time>2021-08-10T12:41:11.127Z</time>
      </trkpt>
      <trkpt lat="46.91237" lon="8.57116">
        <ele>790</ele>
        <time>2021-08-10T12:41:12.128Z</time>
      </trkpt>
      <trkpt lat="46.91237" lon="8.57115">
        <ele>790</ele>
        <time>2021-08-10T12:41:13.128Z</time>
      </trkpt>
      <trkpt lat="46.91236" lon="8.57114">
        <ele>790</ele>
        <time>2021-08-10T12:41:14.128Z</time>
      </trkpt>
      <trkpt lat="46.91236" lon="8.57113">
        <ele>789</ele>
        <time>2021-08-10T12:41:15.128Z</time>
      </trkpt>
      <trkpt lat="46.91235" lon="8.57113">
        <ele>789</ele>
        <time>2021-08-10T12:41:19.092Z</time>
      </trkpt>
      <trkpt lat="46.91235" lon="8.57112">
        <ele>789</ele>
        <time>2021-08-10T12:41:20.093Z</time>
      </trkpt>
      <trkpt lat="46.91235" lon="8.57111">
        <ele>788</ele>
        <time>2021-08-10T12:41:34.994Z</time>
      </trkpt>
      <trkpt lat="46.91234" lon="8.57109">
        <ele>788</ele>
        <time>2021-08-10T12:41:35.993Z</time>
      </trkpt>
      <trkpt lat="46.91234" lon="8.57106">
        <ele>788</ele>
        <time>2021-08-10T12:41:36.994Z</time>
      </trkpt>
      <trkpt lat="46.91235" lon="8.57105">
        <ele>787</ele>
        <time>2021-08-10T12:41:37.994Z</time>
      </trkpt>
      <trkpt lat="46.91236" lon="8.57103">
        <ele>786</ele>
        <time>2021-08-10T12:41:38.993Z</time>
      </trkpt>
      <trkpt lat="46.91236" lon="8.571">
        <ele>785</ele>
        <time>2021-08-10T12:41:41.111Z</time>
      </trkpt>
      <trkpt lat="46.91236" lon="8.57097">
        <ele>784</ele>
        <time>2021-08-10T12:41:42.111Z</time>
      </trkpt>
      <trkpt lat="46.91235" lon="8.57095">
        <ele>784</ele>
        <time>2021-08-10T12:41:43.110Z</time>
      </trkpt>
      <trkpt lat="46.91235" lon="8.57093">
        <ele>783</ele>
        <time>2021-08-10T12:41:44.111Z</time>
      </trkpt>
      <trkpt lat="46.91234" lon="8.57091">
        <ele>782</ele>
        <time>2021-08-10T12:41:45.111Z</time>
      </trkpt>
      <trkpt lat="46.91234" lon="8.57089">
        <ele>781</ele>
        <time>2021-08-10T12:41:46.111Z</time>
      </trkpt>
      <trkpt lat="46.91235" lon="8.57087">
        <ele>781</ele>
        <time>2021-08-10T12:41:47.110Z</time>
      </trkpt>
      <trkpt lat="46.91235" lon="8.57086">
        <ele>781</ele>
        <time>2021-08-10T12:41:48.111Z</time>
      </trkpt>
      <trkpt lat="46.91235" lon="8.57085">
        <ele>781</ele>
        <time>2021-08-10T12:41:49.111Z</time>
      </trkpt>
      <trkpt lat="46.91235" lon="8.57084">
        <ele>780</ele>
        <time>2021-08-10T12:41:50.111Z</time>
      </trkpt>
      <trkpt lat="46.91235" lon="8.57082">
        <ele>780</ele>
        <time>2021-08-10T12:41:51.111Z</time>
      </trkpt>
      <trkpt lat="46.91235" lon="8.57081">
        <ele>780</ele>
        <time>2021-08-10T12:41:52.110Z</time>
      </trkpt>
      <trkpt lat="46.91235" lon="8.5708">
        <ele>779</ele>
        <time>2021-08-10T12:41:53.111Z</time>
      </trkpt>
      <trkpt lat="46.91235" lon="8.57079">
        <ele>779</ele>
        <time>2021-08-10T12:41:54.110Z</time>
      </trkpt>
      <trkpt lat="46.91234" lon="8.57077">
        <ele>778</ele>
        <time>2021-08-10T12:41:55.111Z</time>
      </trkpt>
      <trkpt lat="46.91234" lon="8.57075">
        <ele>778</ele>
        <time>2021-08-10T12:41:56.111Z</time>
      </trkpt>
      <trkpt lat="46.91234" lon="8.57073">
        <ele>778</ele>
        <time>2021-08-10T12:41:57.110Z</time>
      </trkpt>
      <trkpt lat="46.91234" lon="8.57071">
        <ele>777</ele>
        <time>2021-08-10T12:41:58.110Z</time>
      </trkpt>
      <trkpt lat="46.91234" lon="8.57071">
        <ele>777</ele>
        <time>2021-08-10T12:41:59.110Z</time>
      </trkpt>
      <trkpt lat="46.91233" lon="8.57071">
        <ele>777</ele>
        <time>2021-08-10T12:42:00.110Z</time>
      </trkpt>
      <trkpt lat="46.91233" lon="8.5707">
        <ele>777</ele>
        <time>2021-08-10T12:42:01.111Z</time>
      </trkpt>
      <trkpt lat="46.91232" lon="8.57069">
        <ele>777</ele>
        <time>2021-08-10T12:42:02.110Z</time>
      </trkpt>
      <trkpt lat="46.91232" lon="8.57068">
        <ele>777</ele>
        <time>2021-08-10T12:42:03.110Z</time>
      </trkpt>
      <trkpt lat="46.91231" lon="8.57067">
        <ele>777</ele>
        <time>2021-08-10T12:42:04.110Z</time>
      </trkpt>
      <trkpt lat="46.91231" lon="8.57065">
        <ele>777</ele>
        <time>2021-08-10T12:42:05.111Z</time>
      </trkpt>
      <trkpt lat="46.91231" lon="8.57063">
        <ele>776</ele>
        <time>2021-08-10T12:42:10.230Z</time>
      </trkpt>
      <trkpt lat="46.91231" lon="8.57063">
        <ele>776</ele>
        <time>2021-08-10T12:42:11.231Z</time>
      </trkpt>
      <trkpt lat="46.91231" lon="8.57061">
        <ele>776</ele>
        <time>2021-08-10T12:42:12.231Z</time>
      </trkpt>
      <trkpt lat="46.9123" lon="8.57058">
        <ele>776</ele>
        <time>2021-08-10T12:42:13.231Z</time>
      </trkpt>
      <trkpt lat="46.91229" lon="8.57056">
        <ele>776</ele>
        <time>2021-08-10T12:42:14.231Z</time>
      </trkpt>
      <trkpt lat="46.91229" lon="8.57054">
        <ele>776</ele>
        <time>2021-08-10T12:42:15.231Z</time>
      </trkpt>
      <trkpt lat="46.91228" lon="8.57052">
        <ele>777</ele>
        <time>2021-08-10T12:42:16.231Z</time>
      </trkpt>
      <trkpt lat="46.91227" lon="8.57049">
        <ele>776</ele>
        <time>2021-08-10T12:42:17.231Z</time>
      </trkpt>
      <trkpt lat="46.91227" lon="8.57047">
        <ele>776</ele>
        <time>2021-08-10T12:42:18.231Z</time>
      </trkpt>
      <trkpt lat="46.91226" lon="8.57044">
        <ele>776</ele>
        <time>2021-08-10T12:42:19.231Z</time>
      </trkpt>
      <trkpt lat="46.91226" lon="8.5704">
        <ele>776</ele>
        <time>2021-08-10T12:42:20.231Z</time>
      </trkpt>
      <trkpt lat="46.91225" lon="8.57037">
        <ele>777</ele>
        <time>2021-08-10T12:42:21.231Z</time>
      </trkpt>
      <trkpt lat="46.91225" lon="8.57035">
        <ele>777</ele>
        <time>2021-08-10T12:42:22.231Z</time>
      </trkpt>
      <trkpt lat="46.91224" lon="8.57033">
        <ele>777</ele>
        <time>2021-08-10T12:42:23.231Z</time>
      </trkpt>
      <trkpt lat="46.91224" lon="8.57032">
        <ele>777</ele>
        <time>2021-08-10T12:42:24.231Z</time>
      </trkpt>
      <trkpt lat="46.91224" lon="8.5703">
        <ele>777</ele>
        <time>2021-08-10T12:42:25.231Z</time>
      </trkpt>
      <trkpt lat="46.91224" lon="8.57028">
        <ele>777</ele>
        <time>2021-08-10T12:42:26.230Z</time>
      </trkpt>
      <trkpt lat="46.91224" lon="8.57026">
        <ele>777</ele>
        <time>2021-08-10T12:42:27.231Z</time>
      </trkpt>
      <trkpt lat="46.91223" lon="8.57025">
        <ele>776</ele>
        <time>2021-08-10T12:42:28.230Z</time>
      </trkpt>
      <trkpt lat="46.91223" lon="8.57024">
        <ele>776</ele>
        <time>2021-08-10T12:42:29.231Z</time>
      </trkpt>
      <trkpt lat="46.91223" lon="8.57022">
        <ele>776</ele>
        <time>2021-08-10T12:42:30.230Z</time>
      </trkpt>
      <trkpt lat="46.91223" lon="8.57021">
        <ele>776</ele>
        <time>2021-08-10T12:42:31.231Z</time>
      </trkpt>
      <trkpt lat="46.91222" lon="8.57021">
        <ele>776</ele>
        <time>2021-08-10T12:42:32.230Z</time>
      </trkpt>
      <trkpt lat="46.91221" lon="8.57018">
        <ele>776</ele>
        <time>2021-08-10T12:42:33.231Z</time>
      </trkpt>
      <trkpt lat="46.91221" lon="8.57017">
        <ele>776</ele>
        <time>2021-08-10T12:42:34.231Z</time>
      </trkpt>
      <trkpt lat="46.91221" lon="8.57016">
        <ele>776</ele>
        <time>2021-08-10T12:42:35.230Z</time>
      </trkpt>
      <trkpt lat="46.9122" lon="8.57015">
        <ele>775</ele>
        <time>2021-08-10T12:42:36.230Z</time>
      </trkpt>
      <trkpt lat="46.9122" lon="8.57014">
        <ele>775</ele>
        <time>2021-08-10T12:42:37.231Z</time>
      </trkpt>
      <trkpt lat="46.9122" lon="8.57012">
        <ele>775</ele>
        <time>2021-08-10T12:42:38.230Z</time>
      </trkpt>
      <trkpt lat="46.91219" lon="8.5701">
        <ele>774</ele>
        <time>2021-08-10T12:42:39.230Z</time>
      </trkpt>
      <trkpt lat="46.91218" lon="8.57009">
        <ele>774</ele>
        <time>2021-08-10T12:42:40.231Z</time>
      </trkpt>
      <trkpt lat="46.91218" lon="8.57007">
        <ele>774</ele>
        <time>2021-08-10T12:42:41.231Z</time>
      </trkpt>
      <trkpt lat="46.91218" lon="8.57006">
        <ele>774</ele>
        <time>2021-08-10T12:42:42.230Z</time>
      </trkpt>
      <trkpt lat="46.91217" lon="8.57005">
        <ele>773</ele>
        <time>2021-08-10T12:42:43.230Z</time>
      </trkpt>
      <trkpt lat="46.91217" lon="8.57004">
        <ele>773</ele>
        <time>2021-08-10T12:42:44.231Z</time>
      </trkpt>
      <trkpt lat="46.91217" lon="8.57002">
        <ele>773</ele>
        <time>2021-08-10T12:42:45.231Z</time>
      </trkpt>
      <trkpt lat="46.91217" lon="8.56999">
        <ele>773</ele>
        <time>2021-08-10T12:42:46.231Z</time>
      </trkpt>
      <trkpt lat="46.91216" lon="8.56996">
        <ele>773</ele>
        <time>2021-08-10T12:42:47.231Z</time>
      </trkpt>
      <trkpt lat="46.91216" lon="8.56994">
        <ele>773</ele>
        <time>2021-08-10T12:42:48.231Z</time>
      </trkpt>
      <trkpt lat="46.91215" lon="8.56992">
        <ele>773</ele>
        <time>2021-08-10T12:42:49.231Z</time>
      </trkpt>
      <trkpt lat="46.91215" lon="8.56991">
        <ele>773</ele>
        <time>2021-08-10T12:42:50.230Z</time>
      </trkpt>
      <trkpt lat="46.91215" lon="8.5699">
        <ele>773</ele>
        <time>2021-08-10T12:42:51.230Z</time>
      </trkpt>
      <trkpt lat="46.91214" lon="8.56988">
        <ele>773</ele>
        <time>2021-08-10T12:42:52.231Z</time>
      </trkpt>
      <trkpt lat="46.91214" lon="8.56987">
        <ele>773</ele>
        <time>2021-08-10T12:42:53.230Z</time>
      </trkpt>
      <trkpt lat="46.91213" lon="8.56985">
        <ele>773</ele>
        <time>2021-08-10T12:42:54.230Z</time>
      </trkpt>
      <trkpt lat="46.91213" lon="8.56983">
        <ele>773</ele>
        <time>2021-08-10T12:42:55.231Z</time>
      </trkpt>
      <trkpt lat="46.91212" lon="8.56982">
        <ele>773</ele>
        <time>2021-08-10T12:42:56.231Z</time>
      </trkpt>
      <trkpt lat="46.91212" lon="8.56978">
        <ele>773</ele>
        <time>2021-08-10T12:42:57.230Z</time>
      </trkpt>
      <trkpt lat="46.91211" lon="8.56976">
        <ele>773</ele>
        <time>2021-08-10T12:42:58.231Z</time>
      </trkpt>
      <trkpt lat="46.91211" lon="8.56974">
        <ele>773</ele>
        <time>2021-08-10T12:42:59.231Z</time>
      </trkpt>
      <trkpt lat="46.9121" lon="8.56973">
        <ele>773</ele>
        <time>2021-08-10T12:43:00.230Z</time>
      </trkpt>
      <trkpt lat="46.9121" lon="8.56972">
        <ele>773</ele>
        <time>2021-08-10T12:43:01.231Z</time>
      </trkpt>
      <trkpt lat="46.91209" lon="8.5697">
        <ele>773</ele>
        <time>2021-08-10T12:43:02.231Z</time>
      </trkpt>
      <trkpt lat="46.91209" lon="8.56969">
        <ele>773</ele>
        <time>2021-08-10T12:43:03.231Z</time>
      </trkpt>
      <trkpt lat="46.91208" lon="8.56967">
        <ele>774</ele>
        <time>2021-08-10T12:43:04.231Z</time>
      </trkpt>
      <trkpt lat="46.91208" lon="8.56966">
        <ele>774</ele>
        <time>2021-08-10T12:43:05.230Z</time>
      </trkpt>
      <trkpt lat="46.91207" lon="8.56965">
        <ele>774</ele>
        <time>2021-08-10T12:43:06.230Z</time>
      </trkpt>
      <trkpt lat="46.91207" lon="8.56963">
        <ele>774</ele>
        <time>2021-08-10T12:43:07.231Z</time>
      </trkpt>
      <trkpt lat="46.91206" lon="8.56962">
        <ele>775</ele>
        <time>2021-08-10T12:43:08.230Z</time>
      </trkpt>
      <trkpt lat="46.91205" lon="8.56961">
        <ele>775</ele>
        <time>2021-08-10T12:43:09.230Z</time>
      </trkpt>
      <trkpt lat="46.91204" lon="8.56959">
        <ele>775</ele>
        <time>2021-08-10T12:43:10.231Z</time>
      </trkpt>
      <trkpt lat="46.91202" lon="8.56957">
        <ele>775</ele>
        <time>2021-08-10T12:43:11.231Z</time>
      </trkpt>
      <trkpt lat="46.91202" lon="8.56954">
        <ele>775</ele>
        <time>2021-08-10T12:43:12.230Z</time>
      </trkpt>
      <trkpt lat="46.912" lon="8.56951">
        <ele>775</ele>
        <time>2021-08-10T12:43:13.231Z</time>
      </trkpt>
      <trkpt lat="46.91199" lon="8.56948">
        <ele>775</ele>
        <time>2021-08-10T12:43:14.231Z</time>
      </trkpt>
      <trkpt lat="46.91197" lon="8.56946">
        <ele>775</ele>
        <time>2021-08-10T12:43:15.230Z</time>
      </trkpt>
      <trkpt lat="46.91197" lon="8.56945">
        <ele>775</ele>
        <time>2021-08-10T12:43:19.353Z</time>
      </trkpt>
      <trkpt lat="46.91196" lon="8.56944">
        <ele>775</ele>
        <time>2021-08-10T12:43:20.354Z</time>
      </trkpt>
      <trkpt lat="46.91195" lon="8.56943">
        <ele>774</ele>
        <time>2021-08-10T12:43:21.354Z</time>
      </trkpt>
      <trkpt lat="46.91194" lon="8.56942">
        <ele>774</ele>
        <time>2021-08-10T12:43:22.354Z</time>
      </trkpt>
      <trkpt lat="46.91194" lon="8.56941">
        <ele>774</ele>
        <time>2021-08-10T12:43:23.354Z</time>
      </trkpt>
      <trkpt lat="46.91193" lon="8.5694">
        <ele>773</ele>
        <time>2021-08-10T12:43:24.354Z</time>
      </trkpt>
      <trkpt lat="46.91193" lon="8.5694">
        <ele>773</ele>
        <time>2021-08-10T12:43:25.354Z</time>
      </trkpt>
      <trkpt lat="46.91192" lon="8.56938">
        <ele>773</ele>
        <time>2021-08-10T12:43:26.354Z</time>
      </trkpt>
      <trkpt lat="46.91191" lon="8.56937">
        <ele>773</ele>
        <time>2021-08-10T12:43:27.354Z</time>
      </trkpt>
      <trkpt lat="46.91191" lon="8.56936">
        <ele>772</ele>
        <time>2021-08-10T12:43:28.353Z</time>
      </trkpt>
      <trkpt lat="46.9119" lon="8.56935">
        <ele>772</ele>
        <time>2021-08-10T12:43:29.354Z</time>
      </trkpt>
      <trkpt lat="46.9119" lon="8.56935">
        <ele>772</ele>
        <time>2021-08-10T12:43:30.354Z</time>
      </trkpt>
      <trkpt lat="46.9119" lon="8.56934">
        <ele>772</ele>
        <time>2021-08-10T12:43:31.354Z</time>
      </trkpt>
      <trkpt lat="46.9119" lon="8.56933">
        <ele>772</ele>
        <time>2021-08-10T12:43:32.354Z</time>
      </trkpt>
      <trkpt lat="46.9119" lon="8.56932">
        <ele>771</ele>
        <time>2021-08-10T12:43:33.353Z</time>
      </trkpt>
      <trkpt lat="46.9119" lon="8.56932">
        <ele>771</ele>
        <time>2021-08-10T12:43:34.354Z</time>
      </trkpt>
      <trkpt lat="46.9119" lon="8.56932">
        <ele>771</ele>
        <time>2021-08-10T12:43:35.354Z</time>
      </trkpt>
      <trkpt lat="46.91188" lon="8.56929">
        <ele>766</ele>
        <time>2021-08-10T12:43:36.355Z</time>
      </trkpt>
      <trkpt lat="46.91187" lon="8.56929">
        <ele>766</ele>
        <time>2021-08-10T12:43:37.355Z</time>
      </trkpt>
      <trkpt lat="46.91188" lon="8.56929">
        <ele>767</ele>
        <time>2021-08-10T12:43:38.355Z</time>
      </trkpt>
      <trkpt lat="46.91188" lon="8.56928">
        <ele>767</ele>
        <time>2021-08-10T12:43:39.355Z</time>
      </trkpt>
      <trkpt lat="46.91188" lon="8.56928">
        <ele>767</ele>
        <time>2021-08-10T12:43:40.354Z</time>
      </trkpt>
      <trkpt lat="46.91188" lon="8.56925">
        <ele>768</ele>
        <time>2021-08-10T12:43:41.355Z</time>
      </trkpt>
      <trkpt lat="46.91188" lon="8.56924">
        <ele>768</ele>
        <time>2021-08-10T12:43:42.355Z</time>
      </trkpt>
      <trkpt lat="46.91188" lon="8.56923">
        <ele>768</ele>
        <time>2021-08-10T12:43:43.355Z</time>
      </trkpt>
      <trkpt lat="46.91188" lon="8.56922">
        <ele>768</ele>
        <time>2021-08-10T12:43:44.355Z</time>
      </trkpt>
      <trkpt lat="46.91187" lon="8.56923">
        <ele>770</ele>
        <time>2021-08-10T12:43:45.355Z</time>
      </trkpt>
      <trkpt lat="46.91187" lon="8.56921">
        <ele>770</ele>
        <time>2021-08-10T12:43:46.355Z</time>
      </trkpt>
      <trkpt lat="46.91187" lon="8.5692">
        <ele>770</ele>
        <time>2021-08-10T12:43:51.359Z</time>
      </trkpt>
      <trkpt lat="46.91187" lon="8.56919">
        <ele>770</ele>
        <time>2021-08-10T12:43:52.358Z</time>
      </trkpt>
      <trkpt lat="46.91187" lon="8.56918">
        <ele>769</ele>
        <time>2021-08-10T12:43:53.358Z</time>
      </trkpt>
      <trkpt lat="46.91187" lon="8.56918">
        <ele>769</ele>
        <time>2021-08-10T12:43:54.359Z</time>
      </trkpt>
      <trkpt lat="46.91187" lon="8.56917">
        <ele>767</ele>
        <time>2021-08-10T12:43:55.358Z</time>
      </trkpt>
      <trkpt lat="46.91187" lon="8.56917">
        <ele>767</ele>
        <time>2021-08-10T12:43:56.359Z</time>
      </trkpt>
      <trkpt lat="46.91187" lon="8.56916">
        <ele>767</ele>
        <time>2021-08-10T12:43:57.358Z</time>
      </trkpt>
      <trkpt lat="46.91187" lon="8.56915">
        <ele>767</ele>
        <time>2021-08-10T12:43:58.359Z</time>
      </trkpt>
      <trkpt lat="46.91187" lon="8.56915">
        <ele>767</ele>
        <time>2021-08-10T12:43:59.359Z</time>
      </trkpt>
      <trkpt lat="46.91187" lon="8.56914">
        <ele>766</ele>
        <time>2021-08-10T12:44:00.358Z</time>
      </trkpt>
      <trkpt lat="46.91188" lon="8.56913">
        <ele>766</ele>
        <time>2021-08-10T12:44:01.359Z</time>
      </trkpt>
      <trkpt lat="46.91189" lon="8.56912">
        <ele>766</ele>
        <time>2021-08-10T12:44:02.359Z</time>
      </trkpt>
      <trkpt lat="46.91189" lon="8.5691">
        <ele>766</ele>
        <time>2021-08-10T12:44:03.358Z</time>
      </trkpt>
      <trkpt lat="46.9119" lon="8.56909">
        <ele>766</ele>
        <time>2021-08-10T12:44:04.358Z</time>
      </trkpt>
      <trkpt lat="46.9119" lon="8.56907">
        <ele>766</ele>
        <time>2021-08-10T12:44:05.358Z</time>
      </trkpt>
      <trkpt lat="46.9119" lon="8.56906">
        <ele>767</ele>
        <time>2021-08-10T12:44:06.359Z</time>
      </trkpt>
      <trkpt lat="46.91189" lon="8.56904">
        <ele>767</ele>
        <time>2021-08-10T12:44:07.359Z</time>
      </trkpt>
      <trkpt lat="46.9119" lon="8.56903">
        <ele>767</ele>
        <time>2021-08-10T12:44:08.359Z</time>
      </trkpt>
      <trkpt lat="46.9119" lon="8.56902">
        <ele>767</ele>
        <time>2021-08-10T12:44:09.359Z</time>
      </trkpt>
      <trkpt lat="46.9119" lon="8.56901">
        <ele>767</ele>
        <time>2021-08-10T12:44:10.359Z</time>
      </trkpt>
      <trkpt lat="46.91191" lon="8.569">
        <ele>767</ele>
        <time>2021-08-10T12:44:11.358Z</time>
      </trkpt>
      <trkpt lat="46.91191" lon="8.569">
        <ele>767</ele>
        <time>2021-08-10T12:44:12.358Z</time>
      </trkpt>
      <trkpt lat="46.91191" lon="8.56899">
        <ele>767</ele>
        <time>2021-08-10T12:44:13.359Z</time>
      </trkpt>
      <trkpt lat="46.91191" lon="8.56898">
        <ele>767</ele>
        <time>2021-08-10T12:44:14.359Z</time>
      </trkpt>
      <trkpt lat="46.91191" lon="8.56896">
        <ele>768</ele>
        <time>2021-08-10T12:44:15.359Z</time>
      </trkpt>
      <trkpt lat="46.91192" lon="8.56896">
        <ele>768</ele>
        <time>2021-08-10T12:44:16.359Z</time>
      </trkpt>
      <trkpt lat="46.91192" lon="8.56895">
        <ele>768</ele>
        <time>2021-08-10T12:44:17.359Z</time>
      </trkpt>
      <trkpt lat="46.91193" lon="8.56894">
        <ele>768</ele>
        <time>2021-08-10T12:44:18.358Z</time>
      </trkpt>
      <trkpt lat="46.91193" lon="8.56893">
        <ele>769</ele>
        <time>2021-08-10T12:44:19.358Z</time>
      </trkpt>
      <trkpt lat="46.91193" lon="8.56891">
        <ele>769</ele>
        <time>2021-08-10T12:44:20.359Z</time>
      </trkpt>
      <trkpt lat="46.91194" lon="8.5689">
        <ele>768</ele>
        <time>2021-08-10T12:44:21.359Z</time>
      </trkpt>
      <trkpt lat="46.91194" lon="8.56888">
        <ele>768</ele>
        <time>2021-08-10T12:44:22.359Z</time>
      </trkpt>
      <trkpt lat="46.91194" lon="8.56888">
        <ele>768</ele>
        <time>2021-08-10T12:44:23.358Z</time>
      </trkpt>
      <trkpt lat="46.91195" lon="8.56887">
        <ele>768</ele>
        <time>2021-08-10T12:44:24.359Z</time>
      </trkpt>
      <trkpt lat="46.91196" lon="8.56887">
        <ele>768</ele>
        <time>2021-08-10T12:44:25.359Z</time>
      </trkpt>
      <trkpt lat="46.91196" lon="8.56887">
        <ele>768</ele>
        <time>2021-08-10T12:44:26.358Z</time>
      </trkpt>
      <trkpt lat="46.91197" lon="8.56887">
        <ele>768</ele>
        <time>2021-08-10T12:44:27.358Z</time>
      </trkpt>
      <trkpt lat="46.91199" lon="8.56887">
        <ele>768</ele>
        <time>2021-08-10T12:44:28.359Z</time>
      </trkpt>
      <trkpt lat="46.91199" lon="8.56886">
        <ele>769</ele>
        <time>2021-08-10T12:44:29.359Z</time>
      </trkpt>
      <trkpt lat="46.912" lon="8.56885">
        <ele>769</ele>
        <time>2021-08-10T12:44:30.358Z</time>
      </trkpt>
      <trkpt lat="46.91201" lon="8.56883">
        <ele>769</ele>
        <time>2021-08-10T12:44:31.359Z</time>
      </trkpt>
      <trkpt lat="46.91201" lon="8.56881">
        <ele>770</ele>
        <time>2021-08-10T12:44:32.359Z</time>
      </trkpt>
      <trkpt lat="46.91201" lon="8.5688">
        <ele>770</ele>
        <time>2021-08-10T12:44:33.359Z</time>
      </trkpt>
      <trkpt lat="46.91201" lon="8.56878">
        <ele>770</ele>
        <time>2021-08-10T12:44:34.358Z</time>
      </trkpt>
      <trkpt lat="46.91201" lon="8.56877">
        <ele>771</ele>
        <time>2021-08-10T12:44:35.359Z</time>
      </trkpt>
      <trkpt lat="46.912" lon="8.56876">
        <ele>772</ele>
        <time>2021-08-10T12:44:36.358Z</time>
      </trkpt>
      <trkpt lat="46.91199" lon="8.56875">
        <ele>772</ele>
        <time>2021-08-10T12:44:37.359Z</time>
      </trkpt>
      <trkpt lat="46.91199" lon="8.56873">
        <ele>772</ele>
        <time>2021-08-10T12:44:38.359Z</time>
      </trkpt>
      <trkpt lat="46.91198" lon="8.56872">
        <ele>773</ele>
        <time>2021-08-10T12:44:39.358Z</time>
      </trkpt>
      <trkpt lat="46.91198" lon="8.56871">
        <ele>773</ele>
        <time>2021-08-10T12:44:40.359Z</time>
      </trkpt>
      <trkpt lat="46.91198" lon="8.56869">
        <ele>774</ele>
        <time>2021-08-10T12:44:41.359Z</time>
      </trkpt>
      <trkpt lat="46.91199" lon="8.56868">
        <ele>774</ele>
        <time>2021-08-10T12:44:42.359Z</time>
      </trkpt>
      <trkpt lat="46.91199" lon="8.56866">
        <ele>775</ele>
        <time>2021-08-10T12:44:43.358Z</time>
      </trkpt>
      <trkpt lat="46.91198" lon="8.56864">
        <ele>775</ele>
        <time>2021-08-10T12:44:44.359Z</time>
      </trkpt>
      <trkpt lat="46.91197" lon="8.56862">
        <ele>775</ele>
        <time>2021-08-10T12:44:45.359Z</time>
      </trkpt>
      <trkpt lat="46.91197" lon="8.56861">
        <ele>776</ele>
        <time>2021-08-10T12:44:46.359Z</time>
      </trkpt>
      <trkpt lat="46.91196" lon="8.56859">
        <ele>776</ele>
        <time>2021-08-10T12:44:47.359Z</time>
      </trkpt>
      <trkpt lat="46.91196" lon="8.56857">
        <ele>776</ele>
        <time>2021-08-10T12:44:48.359Z</time>
      </trkpt>
      <trkpt lat="46.91195" lon="8.56856">
        <ele>776</ele>
        <time>2021-08-10T12:44:49.359Z</time>
      </trkpt>
      <trkpt lat="46.91195" lon="8.56854">
        <ele>777</ele>
        <time>2021-08-10T12:44:50.359Z</time>
      </trkpt>
      <trkpt lat="46.91195" lon="8.56853">
        <ele>777</ele>
        <time>2021-08-10T12:44:51.358Z</time>
      </trkpt>
      <trkpt lat="46.91195" lon="8.56851">
        <ele>777</ele>
        <time>2021-08-10T12:44:52.359Z</time>
      </trkpt>
      <trkpt lat="46.91195" lon="8.5685">
        <ele>777</ele>
        <time>2021-08-10T12:44:53.359Z</time>
      </trkpt>
      <trkpt lat="46.91195" lon="8.56848">
        <ele>777</ele>
        <time>2021-08-10T12:44:54.359Z</time>
      </trkpt>
      <trkpt lat="46.91195" lon="8.56847">
        <ele>778</ele>
        <time>2021-08-10T12:44:55.359Z</time>
      </trkpt>
      <trkpt lat="46.91195" lon="8.56846">
        <ele>778</ele>
        <time>2021-08-10T12:44:56.359Z</time>
      </trkpt>
      <trkpt lat="46.91195" lon="8.56845">
        <ele>778</ele>
        <time>2021-08-10T12:44:57.358Z</time>
      </trkpt>
      <trkpt lat="46.91196" lon="8.56843">
        <ele>778</ele>
        <time>2021-08-10T12:44:58.358Z</time>
      </trkpt>
      <trkpt lat="46.91197" lon="8.56842">
        <ele>778</ele>
        <time>2021-08-10T12:44:59.358Z</time>
      </trkpt>
      <trkpt lat="46.91198" lon="8.56841">
        <ele>778</ele>
        <time>2021-08-10T12:45:00.359Z</time>
      </trkpt>
      <trkpt lat="46.91198" lon="8.56839">
        <ele>778</ele>
        <time>2021-08-10T12:45:01.358Z</time>
      </trkpt>
      <trkpt lat="46.91197" lon="8.56838">
        <ele>778</ele>
        <time>2021-08-10T12:45:02.359Z</time>
      </trkpt>
      <trkpt lat="46.91197" lon="8.56836">
        <ele>778</ele>
        <time>2021-08-10T12:45:03.359Z</time>
      </trkpt>
      <trkpt lat="46.91196" lon="8.56834">
        <ele>778</ele>
        <time>2021-08-10T12:45:04.359Z</time>
      </trkpt>
      <trkpt lat="46.91195" lon="8.56833">
        <ele>778</ele>
        <time>2021-08-10T12:45:05.359Z</time>
      </trkpt>
      <trkpt lat="46.91194" lon="8.56831">
        <ele>778</ele>
        <time>2021-08-10T12:45:06.359Z</time>
      </trkpt>
      <trkpt lat="46.91194" lon="8.5683">
        <ele>778</ele>
        <time>2021-08-10T12:45:07.358Z</time>
      </trkpt>
      <trkpt lat="46.91193" lon="8.56828">
        <ele>777</ele>
        <time>2021-08-10T12:45:08.359Z</time>
      </trkpt>
      <trkpt lat="46.91192" lon="8.56827">
        <ele>777</ele>
        <time>2021-08-10T12:45:09.359Z</time>
      </trkpt>
      <trkpt lat="46.91192" lon="8.56826">
        <ele>778</ele>
        <time>2021-08-10T12:45:10.359Z</time>
      </trkpt>
      <trkpt lat="46.91191" lon="8.56825">
        <ele>778</ele>
        <time>2021-08-10T12:45:11.358Z</time>
      </trkpt>
      <trkpt lat="46.91191" lon="8.56824">
        <ele>778</ele>
        <time>2021-08-10T12:45:12.358Z</time>
      </trkpt>
      <trkpt lat="46.91191" lon="8.56823">
        <ele>778</ele>
        <time>2021-08-10T12:45:13.359Z</time>
      </trkpt>
      <trkpt lat="46.9119" lon="8.56821">
        <ele>779</ele>
        <time>2021-08-10T12:45:14.359Z</time>
      </trkpt>
      <trkpt lat="46.9119" lon="8.5682">
        <ele>779</ele>
        <time>2021-08-10T12:45:15.359Z</time>
      </trkpt>
      <trkpt lat="46.91191" lon="8.56819">
        <ele>779</ele>
        <time>2021-08-10T12:45:16.359Z</time>
      </trkpt>
      <trkpt lat="46.91191" lon="8.56817">
        <ele>780</ele>
        <time>2021-08-10T12:45:17.359Z</time>
      </trkpt>
      <trkpt lat="46.91191" lon="8.56815">
        <ele>780</ele>
        <time>2021-08-10T12:45:18.359Z</time>
      </trkpt>
      <trkpt lat="46.91191" lon="8.56814">
        <ele>780</ele>
        <time>2021-08-10T12:45:19.359Z</time>
      </trkpt>
      <trkpt lat="46.9119" lon="8.56813">
        <ele>781</ele>
        <time>2021-08-10T12:45:20.359Z</time>
      </trkpt>
      <trkpt lat="46.9119" lon="8.56811">
        <ele>781</ele>
        <time>2021-08-10T12:45:21.358Z</time>
      </trkpt>
      <trkpt lat="46.91191" lon="8.5681">
        <ele>782</ele>
        <time>2021-08-10T12:45:22.359Z</time>
      </trkpt>
      <trkpt lat="46.91192" lon="8.56809">
        <ele>782</ele>
        <time>2021-08-10T12:45:23.359Z</time>
      </trkpt>
      <trkpt lat="46.91192" lon="8.56808">
        <ele>783</ele>
        <time>2021-08-10T12:45:24.359Z</time>
      </trkpt>
      <trkpt lat="46.91192" lon="8.56806">
        <ele>783</ele>
        <time>2021-08-10T12:45:25.359Z</time>
      </trkpt>
      <trkpt lat="46.91192" lon="8.56806">
        <ele>783</ele>
        <time>2021-08-10T12:45:26.359Z</time>
      </trkpt>
      <trkpt lat="46.91192" lon="8.56805">
        <ele>783</ele>
        <time>2021-08-10T12:45:27.358Z</time>
      </trkpt>
      <trkpt lat="46.91193" lon="8.56804">
        <ele>783</ele>
        <time>2021-08-10T12:45:28.359Z</time>
      </trkpt>
      <trkpt lat="46.91193" lon="8.56803">
        <ele>783</ele>
        <time>2021-08-10T12:45:29.358Z</time>
      </trkpt>
      <trkpt lat="46.91192" lon="8.56802">
        <ele>784</ele>
        <time>2021-08-10T12:45:30.359Z</time>
      </trkpt>
      <trkpt lat="46.91192" lon="8.56801">
        <ele>784</ele>
        <time>2021-08-10T12:45:31.359Z</time>
      </trkpt>
      <trkpt lat="46.91192" lon="8.56801">
        <ele>784</ele>
        <time>2021-08-10T12:45:32.359Z</time>
      </trkpt>
      <trkpt lat="46.91192" lon="8.568">
        <ele>784</ele>
        <time>2021-08-10T12:45:33.358Z</time>
      </trkpt>
      <trkpt lat="46.91192" lon="8.56798">
        <ele>784</ele>
        <time>2021-08-10T12:45:40.378Z</time>
      </trkpt>
      <trkpt lat="46.91191" lon="8.56796">
        <ele>784</ele>
        <time>2021-08-10T12:45:41.378Z</time>
      </trkpt>
      <trkpt lat="46.91191" lon="8.56795">
        <ele>784</ele>
        <time>2021-08-10T12:45:42.378Z</time>
      </trkpt>
      <trkpt lat="46.9119" lon="8.56794">
        <ele>783</ele>
        <time>2021-08-10T12:45:43.377Z</time>
      </trkpt>
      <trkpt lat="46.91189" lon="8.56793">
        <ele>783</ele>
        <time>2021-08-10T12:45:44.377Z</time>
      </trkpt>
      <trkpt lat="46.91189" lon="8.56792">
        <ele>783</ele>
        <time>2021-08-10T12:45:45.378Z</time>
      </trkpt>
      <trkpt lat="46.91188" lon="8.56791">
        <ele>782</ele>
        <time>2021-08-10T12:45:46.377Z</time>
      </trkpt>
      <trkpt lat="46.91188" lon="8.5679">
        <ele>782</ele>
        <time>2021-08-10T12:45:54.494Z</time>
      </trkpt>
      <trkpt lat="46.91187" lon="8.56787">
        <ele>782</ele>
        <time>2021-08-10T12:45:55.494Z</time>
      </trkpt>
      <trkpt lat="46.91187" lon="8.56786">
        <ele>782</ele>
        <time>2021-08-10T12:45:56.494Z</time>
      </trkpt>
      <trkpt lat="46.91187" lon="8.56784">
        <ele>783</ele>
        <time>2021-08-10T12:45:57.493Z</time>
      </trkpt>
      <trkpt lat="46.91187" lon="8.56783">
        <ele>783</ele>
        <time>2021-08-10T12:45:58.494Z</time>
      </trkpt>
      <trkpt lat="46.91187" lon="8.56782">
        <ele>783</ele>
        <time>2021-08-10T12:45:59.494Z</time>
      </trkpt>
      <trkpt lat="46.91186" lon="8.5678">
        <ele>783</ele>
        <time>2021-08-10T12:46:00.494Z</time>
      </trkpt>
      <trkpt lat="46.91186" lon="8.56779">
        <ele>782</ele>
        <time>2021-08-10T12:46:01.494Z</time>
      </trkpt>
      <trkpt lat="46.91186" lon="8.56778">
        <ele>782</ele>
        <time>2021-08-10T12:46:02.494Z</time>
      </trkpt>
      <trkpt lat="46.91186" lon="8.56776">
        <ele>782</ele>
        <time>2021-08-10T12:46:03.494Z</time>
      </trkpt>
      <trkpt lat="46.91185" lon="8.56774">
        <ele>782</ele>
        <time>2021-08-10T12:46:04.494Z</time>
      </trkpt>
      <trkpt lat="46.91184" lon="8.56773">
        <ele>782</ele>
        <time>2021-08-10T12:46:05.493Z</time>
      </trkpt>
      <trkpt lat="46.91183" lon="8.56772">
        <ele>782</ele>
        <time>2021-08-10T12:46:06.493Z</time>
      </trkpt>
      <trkpt lat="46.91183" lon="8.56771">
        <ele>782</ele>
        <time>2021-08-10T12:46:07.493Z</time>
      </trkpt>
      <trkpt lat="46.91183" lon="8.56769">
        <ele>783</ele>
        <time>2021-08-10T12:46:08.493Z</time>
      </trkpt>
      <trkpt lat="46.91183" lon="8.56768">
        <ele>783</ele>
        <time>2021-08-10T12:46:09.494Z</time>
      </trkpt>
      <trkpt lat="46.91182" lon="8.56767">
        <ele>783</ele>
        <time>2021-08-10T12:46:10.493Z</time>
      </trkpt>
      <trkpt lat="46.91181" lon="8.56766">
        <ele>783</ele>
        <time>2021-08-10T12:46:11.494Z</time>
      </trkpt>
      <trkpt lat="46.91179" lon="8.56764">
        <ele>783</ele>
        <time>2021-08-10T12:46:12.493Z</time>
      </trkpt>
      <trkpt lat="46.91178" lon="8.56763">
        <ele>783</ele>
        <time>2021-08-10T12:46:13.494Z</time>
      </trkpt>
      <trkpt lat="46.91177" lon="8.56761">
        <ele>783</ele>
        <time>2021-08-10T12:46:14.494Z</time>
      </trkpt>
      <trkpt lat="46.91176" lon="8.56761">
        <ele>783</ele>
        <time>2021-08-10T12:46:15.494Z</time>
      </trkpt>
      <trkpt lat="46.91175" lon="8.5676">
        <ele>783</ele>
        <time>2021-08-10T12:46:16.494Z</time>
      </trkpt>
      <trkpt lat="46.91174" lon="8.56759">
        <ele>783</ele>
        <time>2021-08-10T12:46:17.494Z</time>
      </trkpt>
      <trkpt lat="46.91173" lon="8.56758">
        <ele>783</ele>
        <time>2021-08-10T12:46:18.494Z</time>
      </trkpt>
      <trkpt lat="46.91172" lon="8.56757">
        <ele>784</ele>
        <time>2021-08-10T12:46:19.494Z</time>
      </trkpt>
      <trkpt lat="46.91171" lon="8.56756">
        <ele>784</ele>
        <time>2021-08-10T12:46:20.493Z</time>
      </trkpt>
      <trkpt lat="46.9117" lon="8.56754">
        <ele>783</ele>
        <time>2021-08-10T12:46:21.494Z</time>
      </trkpt>
      <trkpt lat="46.91169" lon="8.56752">
        <ele>783</ele>
        <time>2021-08-10T12:46:22.494Z</time>
      </trkpt>
      <trkpt lat="46.91168" lon="8.5675">
        <ele>783</ele>
        <time>2021-08-10T12:46:23.494Z</time>
      </trkpt>
      <trkpt lat="46.91167" lon="8.56748">
        <ele>783</ele>
        <time>2021-08-10T12:46:24.493Z</time>
      </trkpt>
      <trkpt lat="46.91166" lon="8.56746">
        <ele>783</ele>
        <time>2021-08-10T12:46:25.494Z</time>
      </trkpt>
      <trkpt lat="46.91164" lon="8.56745">
        <ele>783</ele>
        <time>2021-08-10T12:46:26.494Z</time>
      </trkpt>
      <trkpt lat="46.91164" lon="8.56745">
        <ele>782</ele>
        <time>2021-08-10T12:46:27.494Z</time>
      </trkpt>
      <trkpt lat="46.91163" lon="8.56744">
        <ele>782</ele>
        <time>2021-08-10T12:46:29.583Z</time>
      </trkpt>
      <trkpt lat="46.91162" lon="8.56743">
        <ele>782</ele>
        <time>2021-08-10T12:46:30.584Z</time>
      </trkpt>
      <trkpt lat="46.9116" lon="8.56742">
        <ele>782</ele>
        <time>2021-08-10T12:46:31.584Z</time>
      </trkpt>
      <trkpt lat="46.9116" lon="8.56741">
        <ele>782</ele>
        <time>2021-08-10T12:46:32.584Z</time>
      </trkpt>
      <trkpt lat="46.91159" lon="8.5674">
        <ele>783</ele>
        <time>2021-08-10T12:46:33.584Z</time>
      </trkpt>
      <trkpt lat="46.91158" lon="8.56738">
        <ele>783</ele>
        <time>2021-08-10T12:46:34.584Z</time>
      </trkpt>
      <trkpt lat="46.91157" lon="8.56736">
        <ele>783</ele>
        <time>2021-08-10T12:46:35.583Z</time>
      </trkpt>
      <trkpt lat="46.91157" lon="8.56735">
        <ele>783</ele>
        <time>2021-08-10T12:46:36.583Z</time>
      </trkpt>
      <trkpt lat="46.91157" lon="8.56734">
        <ele>783</ele>
        <time>2021-08-10T12:46:37.583Z</time>
      </trkpt>
      <trkpt lat="46.91157" lon="8.56732">
        <ele>784</ele>
        <time>2021-08-10T12:46:38.584Z</time>
      </trkpt>
      <trkpt lat="46.91157" lon="8.56731">
        <ele>785</ele>
        <time>2021-08-10T12:46:39.583Z</time>
      </trkpt>
      <trkpt lat="46.91156" lon="8.56729">
        <ele>785</ele>
        <time>2021-08-10T12:46:40.583Z</time>
      </trkpt>
      <trkpt lat="46.91156" lon="8.56728">
        <ele>786</ele>
        <time>2021-08-10T12:46:41.583Z</time>
      </trkpt>
      <trkpt lat="46.91156" lon="8.56726">
        <ele>786</ele>
        <time>2021-08-10T12:46:42.583Z</time>
      </trkpt>
      <trkpt lat="46.91156" lon="8.56725">
        <ele>786</ele>
        <time>2021-08-10T12:46:43.584Z</time>
      </trkpt>
      <trkpt lat="46.91156" lon="8.56724">
        <ele>787</ele>
        <time>2021-08-10T12:46:44.584Z</time>
      </trkpt>
      <trkpt lat="46.91155" lon="8.56723">
        <ele>787</ele>
        <time>2021-08-10T12:46:45.584Z</time>
      </trkpt>
      <trkpt lat="46.91155" lon="8.56722">
        <ele>787</ele>
        <time>2021-08-10T12:46:46.583Z</time>
      </trkpt>
      <trkpt lat="46.91154" lon="8.5672">
        <ele>787</ele>
        <time>2021-08-10T12:46:47.584Z</time>
      </trkpt>
      <trkpt lat="46.91153" lon="8.56719">
        <ele>787</ele>
        <time>2021-08-10T12:46:48.583Z</time>
      </trkpt>
      <trkpt lat="46.91152" lon="8.56718">
        <ele>787</ele>
        <time>2021-08-10T12:46:49.584Z</time>
      </trkpt>
      <trkpt lat="46.91152" lon="8.56716">
        <ele>788</ele>
        <time>2021-08-10T12:46:50.584Z</time>
      </trkpt>
      <trkpt lat="46.91151" lon="8.56715">
        <ele>788</ele>
        <time>2021-08-10T12:46:51.584Z</time>
      </trkpt>
      <trkpt lat="46.91151" lon="8.56714">
        <ele>787</ele>
        <time>2021-08-10T12:46:52.583Z</time>
      </trkpt>
      <trkpt lat="46.9115" lon="8.56713">
        <ele>787</ele>
        <time>2021-08-10T12:46:53.584Z</time>
      </trkpt>
      <trkpt lat="46.9115" lon="8.56712">
        <ele>788</ele>
        <time>2021-08-10T12:46:54.583Z</time>
      </trkpt>
      <trkpt lat="46.9115" lon="8.5671">
        <ele>788</ele>
        <time>2021-08-10T12:46:55.583Z</time>
      </trkpt>
      <trkpt lat="46.91149" lon="8.56709">
        <ele>788</ele>
        <time>2021-08-10T12:46:56.583Z</time>
      </trkpt>
      <trkpt lat="46.91149" lon="8.56708">
        <ele>787</ele>
        <time>2021-08-10T12:46:57.584Z</time>
      </trkpt>
      <trkpt lat="46.91149" lon="8.56707">
        <ele>787</ele>
        <time>2021-08-10T12:46:58.584Z</time>
      </trkpt>
      <trkpt lat="46.91148" lon="8.56705">
        <ele>788</ele>
        <time>2021-08-10T12:46:59.584Z</time>
      </trkpt>
      <trkpt lat="46.91148" lon="8.56703">
        <ele>788</ele>
        <time>2021-08-10T12:47:00.584Z</time>
      </trkpt>
      <trkpt lat="46.91147" lon="8.56702">
        <ele>788</ele>
        <time>2021-08-10T12:47:01.584Z</time>
      </trkpt>
      <trkpt lat="46.91147" lon="8.567">
        <ele>789</ele>
        <time>2021-08-10T12:47:02.584Z</time>
      </trkpt>
      <trkpt lat="46.91146" lon="8.56698">
        <ele>789</ele>
        <time>2021-08-10T12:47:03.584Z</time>
      </trkpt>
      <trkpt lat="46.91146" lon="8.56697">
        <ele>790</ele>
        <time>2021-08-10T12:47:04.584Z</time>
      </trkpt>
      <trkpt lat="46.91145" lon="8.56695">
        <ele>790</ele>
        <time>2021-08-10T12:47:05.584Z</time>
      </trkpt>
      <trkpt lat="46.91144" lon="8.56693">
        <ele>790</ele>
        <time>2021-08-10T12:47:06.584Z</time>
      </trkpt>
      <trkpt lat="46.91143" lon="8.56691">
        <ele>790</ele>
        <time>2021-08-10T12:47:07.584Z</time>
      </trkpt>
      <trkpt lat="46.91142" lon="8.56689">
        <ele>790</ele>
        <time>2021-08-10T12:47:08.584Z</time>
      </trkpt>
      <trkpt lat="46.91141" lon="8.56688">
        <ele>790</ele>
        <time>2021-08-10T12:47:09.583Z</time>
      </trkpt>
      <trkpt lat="46.91141" lon="8.56686">
        <ele>789</ele>
        <time>2021-08-10T12:47:11.710Z</time>
      </trkpt>
      <trkpt lat="46.9114" lon="8.56684">
        <ele>789</ele>
        <time>2021-08-10T12:47:12.709Z</time>
      </trkpt>
      <trkpt lat="46.91139" lon="8.56683">
        <ele>789</ele>
        <time>2021-08-10T12:47:13.710Z</time>
      </trkpt>
      <trkpt lat="46.91139" lon="8.56682">
        <ele>788</ele>
        <time>2021-08-10T12:47:14.710Z</time>
      </trkpt>
      <trkpt lat="46.91138" lon="8.56681">
        <ele>788</ele>
        <time>2021-08-10T12:47:15.709Z</time>
      </trkpt>
      <trkpt lat="46.91138" lon="8.56681">
        <ele>787</ele>
        <time>2021-08-10T12:47:16.710Z</time>
      </trkpt>
      <trkpt lat="46.91137" lon="8.5668">
        <ele>787</ele>
        <time>2021-08-10T12:47:17.710Z</time>
      </trkpt>
      <trkpt lat="46.91136" lon="8.56679">
        <ele>787</ele>
        <time>2021-08-10T12:47:18.710Z</time>
      </trkpt>
      <trkpt lat="46.91135" lon="8.56678">
        <ele>786</ele>
        <time>2021-08-10T12:47:19.710Z</time>
      </trkpt>
      <trkpt lat="46.91135" lon="8.56677">
        <ele>786</ele>
        <time>2021-08-10T12:47:20.710Z</time>
      </trkpt>
      <trkpt lat="46.91134" lon="8.56676">
        <ele>786</ele>
        <time>2021-08-10T12:47:21.709Z</time>
      </trkpt>
      <trkpt lat="46.91134" lon="8.56675">
        <ele>786</ele>
        <time>2021-08-10T12:47:22.710Z</time>
      </trkpt>
      <trkpt lat="46.91134" lon="8.56674">
        <ele>786</ele>
        <time>2021-08-10T12:47:23.710Z</time>
      </trkpt>
      <trkpt lat="46.91134" lon="8.56673">
        <ele>785</ele>
        <time>2021-08-10T12:47:24.710Z</time>
      </trkpt>
      <trkpt lat="46.91133" lon="8.56672">
        <ele>785</ele>
        <time>2021-08-10T12:47:25.710Z</time>
      </trkpt>
      <trkpt lat="46.91133" lon="8.56671">
        <ele>785</ele>
        <time>2021-08-10T12:47:26.710Z</time>
      </trkpt>
      <trkpt lat="46.91132" lon="8.5667">
        <ele>785</ele>
        <time>2021-08-10T12:47:30.874Z</time>
      </trkpt>
      <trkpt lat="46.91131" lon="8.56668">
        <ele>785</ele>
        <time>2021-08-10T12:47:31.873Z</time>
      </trkpt>
      <trkpt lat="46.91131" lon="8.56667">
        <ele>784</ele>
        <time>2021-08-10T12:47:32.874Z</time>
      </trkpt>
      <trkpt lat="46.91131" lon="8.56665">
        <ele>784</ele>
        <time>2021-08-10T12:47:33.874Z</time>
      </trkpt>
      <trkpt lat="46.91131" lon="8.56663">
        <ele>784</ele>
        <time>2021-08-10T12:47:34.874Z</time>
      </trkpt>
      <trkpt lat="46.91131" lon="8.56662">
        <ele>784</ele>
        <time>2021-08-10T12:47:35.874Z</time>
      </trkpt>
      <trkpt lat="46.9113" lon="8.56661">
        <ele>783</ele>
        <time>2021-08-10T12:47:36.873Z</time>
      </trkpt>
      <trkpt lat="46.9113" lon="8.56659">
        <ele>783</ele>
        <time>2021-08-10T12:47:37.874Z</time>
      </trkpt>
      <trkpt lat="46.91129" lon="8.56657">
        <ele>782</ele>
        <time>2021-08-10T12:47:38.874Z</time>
      </trkpt>
      <trkpt lat="46.91129" lon="8.56655">
        <ele>782</ele>
        <time>2021-08-10T12:47:39.874Z</time>
      </trkpt>
      <trkpt lat="46.91128" lon="8.56657">
        <ele>782</ele>
        <time>2021-08-10T12:47:40.874Z</time>
      </trkpt>
      <trkpt lat="46.91128" lon="8.56659">
        <ele>781</ele>
        <time>2021-08-10T12:47:41.874Z</time>
      </trkpt>
      <trkpt lat="46.91128" lon="8.56661">
        <ele>781</ele>
        <time>2021-08-10T12:47:42.874Z</time>
      </trkpt>
      <trkpt lat="46.91128" lon="8.56659">
        <ele>779</ele>
        <time>2021-08-10T12:47:43.874Z</time>
      </trkpt>
      <trkpt lat="46.91128" lon="8.56658">
        <ele>779</ele>
        <time>2021-08-10T12:47:44.874Z</time>
      </trkpt>
      <trkpt lat="46.91128" lon="8.56657">
        <ele>779</ele>
        <time>2021-08-10T12:47:45.873Z</time>
      </trkpt>
      <trkpt lat="46.91127" lon="8.56655">
        <ele>778</ele>
        <time>2021-08-10T12:47:46.873Z</time>
      </trkpt>
      <trkpt lat="46.91127" lon="8.56654">
        <ele>778</ele>
        <time>2021-08-10T12:47:47.873Z</time>
      </trkpt>
      <trkpt lat="46.91127" lon="8.56652">
        <ele>778</ele>
        <time>2021-08-10T12:47:48.874Z</time>
      </trkpt>
      <trkpt lat="46.91127" lon="8.56651">
        <ele>778</ele>
        <time>2021-08-10T12:47:49.874Z</time>
      </trkpt>
      <trkpt lat="46.91126" lon="8.5665">
        <ele>778</ele>
        <time>2021-08-10T12:47:50.873Z</time>
      </trkpt>
      <trkpt lat="46.91127" lon="8.56648">
        <ele>778</ele>
        <time>2021-08-10T12:47:55.980Z</time>
      </trkpt>
      <trkpt lat="46.91126" lon="8.56647">
        <ele>778</ele>
        <time>2021-08-10T12:47:56.979Z</time>
      </trkpt>
      <trkpt lat="46.91125" lon="8.56645">
        <ele>778</ele>
        <time>2021-08-10T12:47:57.980Z</time>
      </trkpt>
      <trkpt lat="46.91124" lon="8.56643">
        <ele>778</ele>
        <time>2021-08-10T12:47:58.980Z</time>
      </trkpt>
      <trkpt lat="46.91124" lon="8.56641">
        <ele>779</ele>
        <time>2021-08-10T12:47:59.979Z</time>
      </trkpt>
      <trkpt lat="46.91123" lon="8.5664">
        <ele>779</ele>
        <time>2021-08-10T12:48:00.979Z</time>
      </trkpt>
      <trkpt lat="46.91123" lon="8.56638">
        <ele>779</ele>
        <time>2021-08-10T12:48:01.980Z</time>
      </trkpt>
      <trkpt lat="46.91123" lon="8.56637">
        <ele>779</ele>
        <time>2021-08-10T12:48:02.979Z</time>
      </trkpt>
      <trkpt lat="46.91123" lon="8.56637">
        <ele>778</ele>
        <time>2021-08-10T12:48:03.980Z</time>
      </trkpt>
      <trkpt lat="46.91123" lon="8.56636">
        <ele>778</ele>
        <time>2021-08-10T12:48:04.980Z</time>
      </trkpt>
      <trkpt lat="46.91123" lon="8.56635">
        <ele>778</ele>
        <time>2021-08-10T12:48:05.980Z</time>
      </trkpt>
      <trkpt lat="46.91123" lon="8.56633">
        <ele>777</ele>
        <time>2021-08-10T12:48:06.979Z</time>
      </trkpt>
      <trkpt lat="46.91123" lon="8.56632">
        <ele>777</ele>
        <time>2021-08-10T12:48:07.979Z</time>
      </trkpt>
      <trkpt lat="46.91123" lon="8.5663">
        <ele>777</ele>
        <time>2021-08-10T12:48:08.979Z</time>
      </trkpt>
      <trkpt lat="46.91124" lon="8.56629">
        <ele>776</ele>
        <time>2021-08-10T12:48:09.979Z</time>
      </trkpt>
      <trkpt lat="46.91123" lon="8.56627">
        <ele>776</ele>
        <time>2021-08-10T12:48:10.979Z</time>
      </trkpt>
      <trkpt lat="46.91123" lon="8.56625">
        <ele>775</ele>
        <time>2021-08-10T12:48:11.980Z</time>
      </trkpt>
      <trkpt lat="46.91123" lon="8.56624">
        <ele>775</ele>
        <time>2021-08-10T12:48:12.979Z</time>
      </trkpt>
      <trkpt lat="46.91123" lon="8.56623">
        <ele>775</ele>
        <time>2021-08-10T12:48:13.980Z</time>
      </trkpt>
      <trkpt lat="46.91123" lon="8.56621">
        <ele>775</ele>
        <time>2021-08-10T12:48:14.979Z</time>
      </trkpt>
      <trkpt lat="46.91122" lon="8.56619">
        <ele>774</ele>
        <time>2021-08-10T12:48:15.980Z</time>
      </trkpt>
      <trkpt lat="46.91122" lon="8.56617">
        <ele>773</ele>
        <time>2021-08-10T12:48:16.980Z</time>
      </trkpt>
      <trkpt lat="46.91121" lon="8.56615">
        <ele>773</ele>
        <time>2021-08-10T12:48:17.979Z</time>
      </trkpt>
      <trkpt lat="46.91121" lon="8.56613">
        <ele>772</ele>
        <time>2021-08-10T12:48:18.980Z</time>
      </trkpt>
      <trkpt lat="46.91121" lon="8.56612">
        <ele>771</ele>
        <time>2021-08-10T12:48:19.980Z</time>
      </trkpt>
      <trkpt lat="46.91121" lon="8.56611">
        <ele>770</ele>
        <time>2021-08-10T12:48:20.980Z</time>
      </trkpt>
      <trkpt lat="46.91121" lon="8.5661">
        <ele>769</ele>
        <time>2021-08-10T12:48:21.980Z</time>
      </trkpt>
      <trkpt lat="46.91121" lon="8.56609">
        <ele>768</ele>
        <time>2021-08-10T12:48:22.980Z</time>
      </trkpt>
      <trkpt lat="46.91121" lon="8.56609">
        <ele>767</ele>
        <time>2021-08-10T12:48:23.979Z</time>
      </trkpt>
      <trkpt lat="46.91122" lon="8.56608">
        <ele>766</ele>
        <time>2021-08-10T12:48:24.979Z</time>
      </trkpt>
      <trkpt lat="46.91122" lon="8.56607">
        <ele>765</ele>
        <time>2021-08-10T12:48:27.104Z</time>
      </trkpt>
      <trkpt lat="46.91121" lon="8.56606">
        <ele>765</ele>
        <time>2021-08-10T12:48:28.831Z</time>
      </trkpt>
      <trkpt lat="46.91121" lon="8.56605">
        <ele>765</ele>
        <time>2021-08-10T12:48:29.832Z</time>
      </trkpt>
      <trkpt lat="46.91121" lon="8.56604">
        <ele>765</ele>
        <time>2021-08-10T12:48:30.832Z</time>
      </trkpt>
      <trkpt lat="46.91121" lon="8.56604">
        <ele>766</ele>
        <time>2021-08-10T12:48:31.832Z</time>
      </trkpt>
      <trkpt lat="46.91121" lon="8.56603">
        <ele>766</ele>
        <time>2021-08-10T12:48:32.831Z</time>
      </trkpt>
      <trkpt lat="46.9112" lon="8.56602">
        <ele>766</ele>
        <time>2021-08-10T12:48:33.831Z</time>
      </trkpt>
      <trkpt lat="46.91119" lon="8.566">
        <ele>767</ele>
        <time>2021-08-10T12:48:34.832Z</time>
      </trkpt>
      <trkpt lat="46.91119" lon="8.56597">
        <ele>767</ele>
        <time>2021-08-10T12:48:35.832Z</time>
      </trkpt>
      <trkpt lat="46.91118" lon="8.56596">
        <ele>768</ele>
        <time>2021-08-10T12:48:36.831Z</time>
      </trkpt>
      <trkpt lat="46.91117" lon="8.56595">
        <ele>768</ele>
        <time>2021-08-10T12:48:37.832Z</time>
      </trkpt>
      <trkpt lat="46.91117" lon="8.56593">
        <ele>768</ele>
        <time>2021-08-10T12:48:38.832Z</time>
      </trkpt>
      <trkpt lat="46.91117" lon="8.56591">
        <ele>769</ele>
        <time>2021-08-10T12:48:39.832Z</time>
      </trkpt>
      <trkpt lat="46.91117" lon="8.5659">
        <ele>769</ele>
        <time>2021-08-10T12:48:40.832Z</time>
      </trkpt>
      <trkpt lat="46.91116" lon="8.56589">
        <ele>770</ele>
        <time>2021-08-10T12:48:41.831Z</time>
      </trkpt>
      <trkpt lat="46.91116" lon="8.56587">
        <ele>771</ele>
        <time>2021-08-10T12:48:42.832Z</time>
      </trkpt>
      <trkpt lat="46.91116" lon="8.56586">
        <ele>771</ele>
        <time>2021-08-10T12:48:43.832Z</time>
      </trkpt>
      <trkpt lat="46.91116" lon="8.56583">
        <ele>771</ele>
        <time>2021-08-10T12:48:44.831Z</time>
      </trkpt>
      <trkpt lat="46.91116" lon="8.56581">
        <ele>772</ele>
        <time>2021-08-10T12:48:45.831Z</time>
      </trkpt>
      <trkpt lat="46.91115" lon="8.56579">
        <ele>772</ele>
        <time>2021-08-10T12:48:46.831Z</time>
      </trkpt>
      <trkpt lat="46.91114" lon="8.56577">
        <ele>772</ele>
        <time>2021-08-10T12:48:47.831Z</time>
      </trkpt>
      <trkpt lat="46.91113" lon="8.56575">
        <ele>772</ele>
        <time>2021-08-10T12:48:48.832Z</time>
      </trkpt>
      <trkpt lat="46.91113" lon="8.56574">
        <ele>773</ele>
        <time>2021-08-10T12:48:49.831Z</time>
      </trkpt>
      <trkpt lat="46.91113" lon="8.56572">
        <ele>773</ele>
        <time>2021-08-10T12:48:50.832Z</time>
      </trkpt>
      <trkpt lat="46.91113" lon="8.56571">
        <ele>773</ele>
        <time>2021-08-10T12:48:51.832Z</time>
      </trkpt>
      <trkpt lat="46.91114" lon="8.56569">
        <ele>774</ele>
        <time>2021-08-10T12:48:52.832Z</time>
      </trkpt>
      <trkpt lat="46.91114" lon="8.56569">
        <ele>774</ele>
        <time>2021-08-10T12:48:53.831Z</time>
      </trkpt>
      <trkpt lat="46.91114" lon="8.56568">
        <ele>774</ele>
        <time>2021-08-10T12:48:54.832Z</time>
      </trkpt>
      <trkpt lat="46.91114" lon="8.56567">
        <ele>775</ele>
        <time>2021-08-10T12:48:55.831Z</time>
      </trkpt>
      <trkpt lat="46.91113" lon="8.56566">
        <ele>775</ele>
        <time>2021-08-10T12:48:56.832Z</time>
      </trkpt>
      <trkpt lat="46.91113" lon="8.56565">
        <ele>775</ele>
        <time>2021-08-10T12:48:57.831Z</time>
      </trkpt>
      <trkpt lat="46.91112" lon="8.56563">
        <ele>775</ele>
        <time>2021-08-10T12:48:58.832Z</time>
      </trkpt>
      <trkpt lat="46.91112" lon="8.56562">
        <ele>775</ele>
        <time>2021-08-10T12:48:59.832Z</time>
      </trkpt>
      <trkpt lat="46.91112" lon="8.56561">
        <ele>774</ele>
        <time>2021-08-10T12:49:00.831Z</time>
      </trkpt>
      <trkpt lat="46.91111" lon="8.56559">
        <ele>774</ele>
        <time>2021-08-10T12:49:01.832Z</time>
      </trkpt>
      <trkpt lat="46.91111" lon="8.56558">
        <ele>774</ele>
        <time>2021-08-10T12:49:02.832Z</time>
      </trkpt>
      <trkpt lat="46.9111" lon="8.56556">
        <ele>774</ele>
        <time>2021-08-10T12:49:03.831Z</time>
      </trkpt>
      <trkpt lat="46.91109" lon="8.56555">
        <ele>774</ele>
        <time>2021-08-10T12:49:04.832Z</time>
      </trkpt>
      <trkpt lat="46.91108" lon="8.56554">
        <ele>774</ele>
        <time>2021-08-10T12:49:05.831Z</time>
      </trkpt>
      <trkpt lat="46.91107" lon="8.56552">
        <ele>774</ele>
        <time>2021-08-10T12:49:06.831Z</time>
      </trkpt>
      <trkpt lat="46.91107" lon="8.56551">
        <ele>774</ele>
        <time>2021-08-10T12:49:07.832Z</time>
      </trkpt>
      <trkpt lat="46.91106" lon="8.5655">
        <ele>774</ele>
        <time>2021-08-10T12:49:08.832Z</time>
      </trkpt>
      <trkpt lat="46.91106" lon="8.56548">
        <ele>774</ele>
        <time>2021-08-10T12:49:09.831Z</time>
      </trkpt>
      <trkpt lat="46.91106" lon="8.56547">
        <ele>774</ele>
        <time>2021-08-10T12:49:10.832Z</time>
      </trkpt>
      <trkpt lat="46.91105" lon="8.56546">
        <ele>773</ele>
        <time>2021-08-10T12:49:11.831Z</time>
      </trkpt>
      <trkpt lat="46.91105" lon="8.56546">
        <ele>773</ele>
        <time>2021-08-10T12:49:19.854Z</time>
      </trkpt>
      <trkpt lat="46.91104" lon="8.56545">
        <ele>772</ele>
        <time>2021-08-10T12:49:20.853Z</time>
      </trkpt>
      <trkpt lat="46.91104" lon="8.56543">
        <ele>772</ele>
        <time>2021-08-10T12:49:21.854Z</time>
      </trkpt>
      <trkpt lat="46.91103" lon="8.56541">
        <ele>771</ele>
        <time>2021-08-10T12:49:22.854Z</time>
      </trkpt>
      <trkpt lat="46.91101" lon="8.56539">
        <ele>770</ele>
        <time>2021-08-10T12:49:23.854Z</time>
      </trkpt>
      <trkpt lat="46.911" lon="8.56537">
        <ele>770</ele>
        <time>2021-08-10T12:49:24.853Z</time>
      </trkpt>
      <trkpt lat="46.91099" lon="8.56536">
        <ele>769</ele>
        <time>2021-08-10T12:49:25.854Z</time>
      </trkpt>
      <trkpt lat="46.91099" lon="8.56535">
        <ele>769</ele>
        <time>2021-08-10T12:49:26.853Z</time>
      </trkpt>
      <trkpt lat="46.91099" lon="8.56535">
        <ele>768</ele>
        <time>2021-08-10T12:49:27.854Z</time>
      </trkpt>
      <trkpt lat="46.91099" lon="8.56533">
        <ele>767</ele>
        <time>2021-08-10T12:49:28.854Z</time>
      </trkpt>
      <trkpt lat="46.91099" lon="8.56532">
        <ele>766</ele>
        <time>2021-08-10T12:49:29.853Z</time>
      </trkpt>
      <trkpt lat="46.91099" lon="8.56531">
        <ele>766</ele>
        <time>2021-08-10T12:49:30.853Z</time>
      </trkpt>
      <trkpt lat="46.91099" lon="8.5653">
        <ele>765</ele>
        <time>2021-08-10T12:49:31.853Z</time>
      </trkpt>
      <trkpt lat="46.91099" lon="8.56529">
        <ele>765</ele>
        <time>2021-08-10T12:49:32.854Z</time>
      </trkpt>
      <trkpt lat="46.91098" lon="8.56528">
        <ele>765</ele>
        <time>2021-08-10T12:49:33.853Z</time>
      </trkpt>
      <trkpt lat="46.91098" lon="8.56526">
        <ele>765</ele>
        <time>2021-08-10T12:49:34.853Z</time>
      </trkpt>
      <trkpt lat="46.91098" lon="8.56525">
        <ele>765</ele>
        <time>2021-08-10T12:49:35.854Z</time>
      </trkpt>
      <trkpt lat="46.91097" lon="8.56524">
        <ele>765</ele>
        <time>2021-08-10T12:49:36.854Z</time>
      </trkpt>
      <trkpt lat="46.91097" lon="8.56522">
        <ele>765</ele>
        <time>2021-08-10T12:49:37.853Z</time>
      </trkpt>
      <trkpt lat="46.91097" lon="8.5652">
        <ele>764</ele>
        <time>2021-08-10T12:49:38.854Z</time>
      </trkpt>
      <trkpt lat="46.91097" lon="8.56518">
        <ele>764</ele>
        <time>2021-08-10T12:49:39.853Z</time>
      </trkpt>
      <trkpt lat="46.91096" lon="8.56517">
        <ele>764</ele>
        <time>2021-08-10T12:49:40.854Z</time>
      </trkpt>
      <trkpt lat="46.91095" lon="8.56516">
        <ele>764</ele>
        <time>2021-08-10T12:49:41.853Z</time>
      </trkpt>
      <trkpt lat="46.91094" lon="8.56514">
        <ele>764</ele>
        <time>2021-08-10T12:49:42.853Z</time>
      </trkpt>
      <trkpt lat="46.91093" lon="8.56514">
        <ele>764</ele>
        <time>2021-08-10T12:49:43.854Z</time>
      </trkpt>
      <trkpt lat="46.91094" lon="8.56513">
        <ele>763</ele>
        <time>2021-08-10T12:49:44.854Z</time>
      </trkpt>
      <trkpt lat="46.91094" lon="8.56513">
        <ele>764</ele>
        <time>2021-08-10T12:49:57.845Z</time>
      </trkpt>
      <trkpt lat="46.91094" lon="8.56511">
        <ele>763</ele>
        <time>2021-08-10T12:49:58.845Z</time>
      </trkpt>
      <trkpt lat="46.91094" lon="8.5651">
        <ele>763</ele>
        <time>2021-08-10T12:49:59.845Z</time>
      </trkpt>
      <trkpt lat="46.91094" lon="8.56508">
        <ele>763</ele>
        <time>2021-08-10T12:50:00.845Z</time>
      </trkpt>
      <trkpt lat="46.91094" lon="8.56507">
        <ele>763</ele>
        <time>2021-08-10T12:50:01.845Z</time>
      </trkpt>
      <trkpt lat="46.91093" lon="8.56506">
        <ele>763</ele>
        <time>2021-08-10T12:50:02.845Z</time>
      </trkpt>
      <trkpt lat="46.91093" lon="8.56505">
        <ele>763</ele>
        <time>2021-08-10T12:50:03.845Z</time>
      </trkpt>
      <trkpt lat="46.91093" lon="8.56504">
        <ele>763</ele>
        <time>2021-08-10T12:50:04.845Z</time>
      </trkpt>
      <trkpt lat="46.91093" lon="8.56502">
        <ele>763</ele>
        <time>2021-08-10T12:50:05.845Z</time>
      </trkpt>
      <trkpt lat="46.91092" lon="8.56501">
        <ele>763</ele>
        <time>2021-08-10T12:50:06.845Z</time>
      </trkpt>
      <trkpt lat="46.91092" lon="8.56499">
        <ele>763</ele>
        <time>2021-08-10T12:50:07.845Z</time>
      </trkpt>
      <trkpt lat="46.91092" lon="8.56498">
        <ele>763</ele>
        <time>2021-08-10T12:50:08.846Z</time>
      </trkpt>
      <trkpt lat="46.91091" lon="8.56496">
        <ele>764</ele>
        <time>2021-08-10T12:50:09.846Z</time>
      </trkpt>
      <trkpt lat="46.91091" lon="8.56495">
        <ele>764</ele>
        <time>2021-08-10T12:50:10.846Z</time>
      </trkpt>
      <trkpt lat="46.91091" lon="8.56493">
        <ele>765</ele>
        <time>2021-08-10T12:50:11.846Z</time>
      </trkpt>
      <trkpt lat="46.9109" lon="8.56492">
        <ele>765</ele>
        <time>2021-08-10T12:50:12.846Z</time>
      </trkpt>
      <trkpt lat="46.9109" lon="8.5649">
        <ele>766</ele>
        <time>2021-08-10T12:50:13.846Z</time>
      </trkpt>
      <trkpt lat="46.9109" lon="8.56489">
        <ele>766</ele>
        <time>2021-08-10T12:50:14.846Z</time>
      </trkpt>
      <trkpt lat="46.9109" lon="8.56488">
        <ele>767</ele>
        <time>2021-08-10T12:50:15.846Z</time>
      </trkpt>
      <trkpt lat="46.9109" lon="8.56487">
        <ele>768</ele>
        <time>2021-08-10T12:50:16.846Z</time>
      </trkpt>
      <trkpt lat="46.9109" lon="8.56485">
        <ele>768</ele>
        <time>2021-08-10T12:50:17.846Z</time>
      </trkpt>
      <trkpt lat="46.91089" lon="8.56484">
        <ele>769</ele>
        <time>2021-08-10T12:50:18.846Z</time>
      </trkpt>
      <trkpt lat="46.91088" lon="8.56483">
        <ele>769</ele>
        <time>2021-08-10T12:50:19.846Z</time>
      </trkpt>
      <trkpt lat="46.91087" lon="8.56481">
        <ele>770</ele>
        <time>2021-08-10T12:50:20.845Z</time>
      </trkpt>
      <trkpt lat="46.91086" lon="8.5648">
        <ele>770</ele>
        <time>2021-08-10T12:50:21.846Z</time>
      </trkpt>
      <trkpt lat="46.91086" lon="8.56479">
        <ele>770</ele>
        <time>2021-08-10T12:50:22.846Z</time>
      </trkpt>
      <trkpt lat="46.91086" lon="8.56477">
        <ele>771</ele>
        <time>2021-08-10T12:50:23.846Z</time>
      </trkpt>
      <trkpt lat="46.91086" lon="8.56476">
        <ele>771</ele>
        <time>2021-08-10T12:50:24.846Z</time>
      </trkpt>
      <trkpt lat="46.91086" lon="8.56475">
        <ele>771</ele>
        <time>2021-08-10T12:50:25.845Z</time>
      </trkpt>
      <trkpt lat="46.91086" lon="8.56473">
        <ele>772</ele>
        <time>2021-08-10T12:50:26.846Z</time>
      </trkpt>
      <trkpt lat="46.91086" lon="8.56472">
        <ele>773</ele>
        <time>2021-08-10T12:50:27.846Z</time>
      </trkpt>
      <trkpt lat="46.91085" lon="8.5647">
        <ele>773</ele>
        <time>2021-08-10T12:50:28.846Z</time>
      </trkpt>
      <trkpt lat="46.91085" lon="8.56468">
        <ele>773</ele>
        <time>2021-08-10T12:50:29.846Z</time>
      </trkpt>
      <trkpt lat="46.91085" lon="8.56467">
        <ele>773</ele>
        <time>2021-08-10T12:50:30.846Z</time>
      </trkpt>
      <trkpt lat="46.91085" lon="8.56466">
        <ele>773</ele>
        <time>2021-08-10T12:50:31.846Z</time>
      </trkpt>
      <trkpt lat="46.91084" lon="8.56465">
        <ele>773</ele>
        <time>2021-08-10T12:50:32.846Z</time>
      </trkpt>
      <trkpt lat="46.91084" lon="8.56464">
        <ele>772</ele>
        <time>2021-08-10T12:50:33.846Z</time>
      </trkpt>
      <trkpt lat="46.91084" lon="8.56463">
        <ele>772</ele>
        <time>2021-08-10T12:50:34.845Z</time>
      </trkpt>
      <trkpt lat="46.91084" lon="8.56462">
        <ele>772</ele>
        <time>2021-08-10T12:50:35.846Z</time>
      </trkpt>
      <trkpt lat="46.91084" lon="8.5646">
        <ele>772</ele>
        <time>2021-08-10T12:50:36.846Z</time>
      </trkpt>
      <trkpt lat="46.91083" lon="8.56458">
        <ele>773</ele>
        <time>2021-08-10T12:50:37.845Z</time>
      </trkpt>
      <trkpt lat="46.91082" lon="8.56456">
        <ele>773</ele>
        <time>2021-08-10T12:50:38.846Z</time>
      </trkpt>
      <trkpt lat="46.91082" lon="8.56454">
        <ele>773</ele>
        <time>2021-08-10T12:50:39.846Z</time>
      </trkpt>
      <trkpt lat="46.91081" lon="8.56453">
        <ele>773</ele>
        <time>2021-08-10T12:50:40.845Z</time>
      </trkpt>
      <trkpt lat="46.91081" lon="8.56451">
        <ele>774</ele>
        <time>2021-08-10T12:50:41.846Z</time>
      </trkpt>
      <trkpt lat="46.9108" lon="8.5645">
        <ele>774</ele>
        <time>2021-08-10T12:50:42.845Z</time>
      </trkpt>
      <trkpt lat="46.91079" lon="8.56448">
        <ele>774</ele>
        <time>2021-08-10T12:50:43.846Z</time>
      </trkpt>
      <trkpt lat="46.91079" lon="8.56446">
        <ele>774</ele>
        <time>2021-08-10T12:50:44.846Z</time>
      </trkpt>
      <trkpt lat="46.91079" lon="8.56444">
        <ele>775</ele>
        <time>2021-08-10T12:50:45.846Z</time>
      </trkpt>
      <trkpt lat="46.91078" lon="8.56443">
        <ele>774</ele>
        <time>2021-08-10T12:50:46.846Z</time>
      </trkpt>
      <trkpt lat="46.91078" lon="8.56441">
        <ele>774</ele>
        <time>2021-08-10T12:50:47.846Z</time>
      </trkpt>
      <trkpt lat="46.91078" lon="8.5644">
        <ele>774</ele>
        <time>2021-08-10T12:50:48.845Z</time>
      </trkpt>
      <trkpt lat="46.91078" lon="8.56438">
        <ele>774</ele>
        <time>2021-08-10T12:50:49.846Z</time>
      </trkpt>
      <trkpt lat="46.91077" lon="8.56437">
        <ele>774</ele>
        <time>2021-08-10T12:50:50.845Z</time>
      </trkpt>
      <trkpt lat="46.91077" lon="8.56436">
        <ele>774</ele>
        <time>2021-08-10T12:50:51.845Z</time>
      </trkpt>
      <trkpt lat="46.91077" lon="8.56433">
        <ele>774</ele>
        <time>2021-08-10T12:50:52.846Z</time>
      </trkpt>
      <trkpt lat="46.91078" lon="8.56432">
        <ele>774</ele>
        <time>2021-08-10T12:50:53.846Z</time>
      </trkpt>
      <trkpt lat="46.91077" lon="8.5643">
        <ele>774</ele>
        <time>2021-08-10T12:50:54.846Z</time>
      </trkpt>
      <trkpt lat="46.91077" lon="8.56428">
        <ele>774</ele>
        <time>2021-08-10T12:50:55.845Z</time>
      </trkpt>
      <trkpt lat="46.91077" lon="8.56427">
        <ele>774</ele>
        <time>2021-08-10T12:50:56.846Z</time>
      </trkpt>
      <trkpt lat="46.91077" lon="8.56425">
        <ele>773</ele>
        <time>2021-08-10T12:50:57.846Z</time>
      </trkpt>
      <trkpt lat="46.91077" lon="8.56425">
        <ele>773</ele>
        <time>2021-08-10T12:50:58.846Z</time>
      </trkpt>
      <trkpt lat="46.91078" lon="8.56423">
        <ele>773</ele>
        <time>2021-08-10T12:50:59.846Z</time>
      </trkpt>
      <trkpt lat="46.91079" lon="8.56422">
        <ele>774</ele>
        <time>2021-08-10T12:51:00.846Z</time>
      </trkpt>
      <trkpt lat="46.91079" lon="8.5642">
        <ele>774</ele>
        <time>2021-08-10T12:51:01.846Z</time>
      </trkpt>
      <trkpt lat="46.9108" lon="8.56418">
        <ele>774</ele>
        <time>2021-08-10T12:51:02.845Z</time>
      </trkpt>
      <trkpt lat="46.9108" lon="8.56416">
        <ele>774</ele>
        <time>2021-08-10T12:51:03.845Z</time>
      </trkpt>
      <trkpt lat="46.91081" lon="8.56414">
        <ele>774</ele>
        <time>2021-08-10T12:51:04.845Z</time>
      </trkpt>
      <trkpt lat="46.91082" lon="8.56413">
        <ele>774</ele>
        <time>2021-08-10T12:51:06.959Z</time>
      </trkpt>
      <trkpt lat="46.91081" lon="8.56411">
        <ele>775</ele>
        <time>2021-08-10T12:51:07.959Z</time>
      </trkpt>
      <trkpt lat="46.91081" lon="8.5641">
        <ele>775</ele>
        <time>2021-08-10T12:51:08.958Z</time>
      </trkpt>
      <trkpt lat="46.91081" lon="8.56408">
        <ele>774</ele>
        <time>2021-08-10T12:51:09.958Z</time>
      </trkpt>
      <trkpt lat="46.9108" lon="8.56407">
        <ele>774</ele>
        <time>2021-08-10T12:51:10.959Z</time>
      </trkpt>
      <trkpt lat="46.9108" lon="8.56405">
        <ele>774</ele>
        <time>2021-08-10T12:51:11.959Z</time>
      </trkpt>
      <trkpt lat="46.9108" lon="8.56404">
        <ele>773</ele>
        <time>2021-08-10T12:51:12.958Z</time>
      </trkpt>
      <trkpt lat="46.9108" lon="8.56403">
        <ele>773</ele>
        <time>2021-08-10T12:51:13.958Z</time>
      </trkpt>
      <trkpt lat="46.9108" lon="8.56401">
        <ele>773</ele>
        <time>2021-08-10T12:51:14.959Z</time>
      </trkpt>
      <trkpt lat="46.9108" lon="8.56399">
        <ele>772</ele>
        <time>2021-08-10T12:51:15.958Z</time>
      </trkpt>
      <trkpt lat="46.9108" lon="8.56397">
        <ele>772</ele>
        <time>2021-08-10T12:51:16.959Z</time>
      </trkpt>
      <trkpt lat="46.9108" lon="8.56396">
        <ele>772</ele>
        <time>2021-08-10T12:51:17.959Z</time>
      </trkpt>
      <trkpt lat="46.9108" lon="8.56394">
        <ele>772</ele>
        <time>2021-08-10T12:51:18.959Z</time>
      </trkpt>
      <trkpt lat="46.91081" lon="8.56392">
        <ele>772</ele>
        <time>2021-08-10T12:51:19.959Z</time>
      </trkpt>
      <trkpt lat="46.91081" lon="8.56391">
        <ele>772</ele>
        <time>2021-08-10T12:51:20.958Z</time>
      </trkpt>
      <trkpt lat="46.91082" lon="8.56389">
        <ele>773</ele>
        <time>2021-08-10T12:51:21.959Z</time>
      </trkpt>
      <trkpt lat="46.91083" lon="8.56386">
        <ele>773</ele>
        <time>2021-08-10T12:51:22.959Z</time>
      </trkpt>
      <trkpt lat="46.91083" lon="8.56384">
        <ele>773</ele>
        <time>2021-08-10T12:51:23.958Z</time>
      </trkpt>
      <trkpt lat="46.91083" lon="8.56382">
        <ele>773</ele>
        <time>2021-08-10T12:51:24.958Z</time>
      </trkpt>
      <trkpt lat="46.91083" lon="8.56381">
        <ele>774</ele>
        <time>2021-08-10T12:51:25.958Z</time>
      </trkpt>
      <trkpt lat="46.91082" lon="8.56379">
        <ele>774</ele>
        <time>2021-08-10T12:51:26.958Z</time>
      </trkpt>
      <trkpt lat="46.91082" lon="8.56378">
        <ele>774</ele>
        <time>2021-08-10T12:51:27.958Z</time>
      </trkpt>
      <trkpt lat="46.91081" lon="8.56377">
        <ele>774</ele>
        <time>2021-08-10T12:51:28.959Z</time>
      </trkpt>
      <trkpt lat="46.91082" lon="8.56376">
        <ele>774</ele>
        <time>2021-08-10T12:51:29.959Z</time>
      </trkpt>
      <trkpt lat="46.91082" lon="8.56375">
        <ele>773</ele>
        <time>2021-08-10T12:51:30.959Z</time>
      </trkpt>
      <trkpt lat="46.91082" lon="8.56373">
        <ele>773</ele>
        <time>2021-08-10T12:51:31.959Z</time>
      </trkpt>
      <trkpt lat="46.91082" lon="8.56371">
        <ele>772</ele>
        <time>2021-08-10T12:51:32.959Z</time>
      </trkpt>
      <trkpt lat="46.91081" lon="8.56369">
        <ele>771</ele>
        <time>2021-08-10T12:51:33.958Z</time>
      </trkpt>
      <trkpt lat="46.9108" lon="8.56367">
        <ele>771</ele>
        <time>2021-08-10T12:51:34.958Z</time>
      </trkpt>
      <trkpt lat="46.9108" lon="8.56366">
        <ele>771</ele>
        <time>2021-08-10T12:51:35.958Z</time>
      </trkpt>
      <trkpt lat="46.9108" lon="8.56364">
        <ele>770</ele>
        <time>2021-08-10T12:51:36.959Z</time>
      </trkpt>
      <trkpt lat="46.9108" lon="8.56363">
        <ele>770</ele>
        <time>2021-08-10T12:51:37.959Z</time>
      </trkpt>
      <trkpt lat="46.9108" lon="8.56361">
        <ele>770</ele>
        <time>2021-08-10T12:51:38.959Z</time>
      </trkpt>
      <trkpt lat="46.9108" lon="8.56359">
        <ele>770</ele>
        <time>2021-08-10T12:51:39.958Z</time>
      </trkpt>
      <trkpt lat="46.9108" lon="8.56357">
        <ele>770</ele>
        <time>2021-08-10T12:51:40.958Z</time>
      </trkpt>
      <trkpt lat="46.9108" lon="8.56355">
        <ele>770</ele>
        <time>2021-08-10T12:51:41.959Z</time>
      </trkpt>
      <trkpt lat="46.91079" lon="8.56354">
        <ele>770</ele>
        <time>2021-08-10T12:51:42.958Z</time>
      </trkpt>
      <trkpt lat="46.91079" lon="8.56352">
        <ele>770</ele>
        <time>2021-08-10T12:51:43.959Z</time>
      </trkpt>
      <trkpt lat="46.9108" lon="8.56351">
        <ele>770</ele>
        <time>2021-08-10T12:51:44.959Z</time>
      </trkpt>
      <trkpt lat="46.9108" lon="8.5635">
        <ele>771</ele>
        <time>2021-08-10T12:51:45.959Z</time>
      </trkpt>
      <trkpt lat="46.91079" lon="8.56348">
        <ele>771</ele>
        <time>2021-08-10T12:51:46.958Z</time>
      </trkpt>
      <trkpt lat="46.91078" lon="8.56347">
        <ele>771</ele>
        <time>2021-08-10T12:51:47.959Z</time>
      </trkpt>
      <trkpt lat="46.91078" lon="8.56345">
        <ele>770</ele>
        <time>2021-08-10T12:51:48.958Z</time>
      </trkpt>
      <trkpt lat="46.91077" lon="8.56342">
        <ele>770</ele>
        <time>2021-08-10T12:51:49.959Z</time>
      </trkpt>
      <trkpt lat="46.91077" lon="8.5634">
        <ele>770</ele>
        <time>2021-08-10T12:51:50.958Z</time>
      </trkpt>
      <trkpt lat="46.91077" lon="8.56338">
        <ele>770</ele>
        <time>2021-08-10T12:51:51.958Z</time>
      </trkpt>
      <trkpt lat="46.91077" lon="8.56338">
        <ele>770</ele>
        <time>2021-08-10T12:51:52.959Z</time>
      </trkpt>
      <trkpt lat="46.91078" lon="8.56337">
        <ele>771</ele>
        <time>2021-08-10T12:51:53.959Z</time>
      </trkpt>
      <trkpt lat="46.91079" lon="8.56336">
        <ele>771</ele>
        <time>2021-08-10T12:51:54.959Z</time>
      </trkpt>
      <trkpt lat="46.91079" lon="8.56335">
        <ele>772</ele>
        <time>2021-08-10T12:51:55.958Z</time>
      </trkpt>
      <trkpt lat="46.9108" lon="8.56334">
        <ele>772</ele>
        <time>2021-08-10T12:51:56.958Z</time>
      </trkpt>
      <trkpt lat="46.9108" lon="8.56333">
        <ele>772</ele>
        <time>2021-08-10T12:51:57.959Z</time>
      </trkpt>
      <trkpt lat="46.9108" lon="8.56331">
        <ele>772</ele>
        <time>2021-08-10T12:51:58.958Z</time>
      </trkpt>
      <trkpt lat="46.91081" lon="8.56329">
        <ele>773</ele>
        <time>2021-08-10T12:51:59.958Z</time>
      </trkpt>
      <trkpt lat="46.9108" lon="8.56327">
        <ele>773</ele>
        <time>2021-08-10T12:52:00.958Z</time>
      </trkpt>
      <trkpt lat="46.9108" lon="8.56326">
        <ele>774</ele>
        <time>2021-08-10T12:52:01.959Z</time>
      </trkpt>
      <trkpt lat="46.9108" lon="8.56324">
        <ele>775</ele>
        <time>2021-08-10T12:52:02.958Z</time>
      </trkpt>
      <trkpt lat="46.9108" lon="8.56323">
        <ele>776</ele>
        <time>2021-08-10T12:52:03.958Z</time>
      </trkpt>
      <trkpt lat="46.9108" lon="8.56321">
        <ele>776</ele>
        <time>2021-08-10T12:52:04.959Z</time>
      </trkpt>
      <trkpt lat="46.91081" lon="8.56319">
        <ele>777</ele>
        <time>2021-08-10T12:52:05.958Z</time>
      </trkpt>
      <trkpt lat="46.91081" lon="8.56318">
        <ele>777</ele>
        <time>2021-08-10T12:52:06.959Z</time>
      </trkpt>
      <trkpt lat="46.91081" lon="8.56316">
        <ele>777</ele>
        <time>2021-08-10T12:52:07.959Z</time>
      </trkpt>
      <trkpt lat="46.91081" lon="8.56315">
        <ele>778</ele>
        <time>2021-08-10T12:52:08.958Z</time>
      </trkpt>
      <trkpt lat="46.9108" lon="8.56312">
        <ele>778</ele>
        <time>2021-08-10T12:52:09.959Z</time>
      </trkpt>
      <trkpt lat="46.9108" lon="8.56311">
        <ele>778</ele>
        <time>2021-08-10T12:52:10.959Z</time>
      </trkpt>
      <trkpt lat="46.9108" lon="8.56309">
        <ele>777</ele>
        <time>2021-08-10T12:52:12.977Z</time>
      </trkpt>
      <trkpt lat="46.9108" lon="8.56308">
        <ele>777</ele>
        <time>2021-08-10T12:52:13.978Z</time>
      </trkpt>
      <trkpt lat="46.9108" lon="8.56306">
        <ele>777</ele>
        <time>2021-08-10T12:52:14.978Z</time>
      </trkpt>
      <trkpt lat="46.9108" lon="8.56305">
        <ele>777</ele>
        <time>2021-08-10T12:52:15.977Z</time>
      </trkpt>
      <trkpt lat="46.91081" lon="8.56304">
        <ele>777</ele>
        <time>2021-08-10T12:52:16.977Z</time>
      </trkpt>
      <trkpt lat="46.91081" lon="8.56301">
        <ele>778</ele>
        <time>2021-08-10T12:52:17.977Z</time>
      </trkpt>
      <trkpt lat="46.91081" lon="8.56298">
        <ele>778</ele>
        <time>2021-08-10T12:52:18.977Z</time>
      </trkpt>
      <trkpt lat="46.91081" lon="8.56295">
        <ele>779</ele>
        <time>2021-08-10T12:52:19.977Z</time>
      </trkpt>
      <trkpt lat="46.91081" lon="8.56291">
        <ele>779</ele>
        <time>2021-08-10T12:52:20.977Z</time>
      </trkpt>
      <trkpt lat="46.91081" lon="8.56289">
        <ele>779</ele>
        <time>2021-08-10T12:52:21.977Z</time>
      </trkpt>
      <trkpt lat="46.91081" lon="8.56287">
        <ele>780</ele>
        <time>2021-08-10T12:52:22.977Z</time>
      </trkpt>
      <trkpt lat="46.91081" lon="8.56286">
        <ele>780</ele>
        <time>2021-08-10T12:52:23.977Z</time>
      </trkpt>
      <trkpt lat="46.91081" lon="8.56284">
        <ele>781</ele>
        <time>2021-08-10T12:52:24.977Z</time>
      </trkpt>
      <trkpt lat="46.9108" lon="8.56283">
        <ele>781</ele>
        <time>2021-08-10T12:52:25.978Z</time>
      </trkpt>
      <trkpt lat="46.9108" lon="8.56282">
        <ele>781</ele>
        <time>2021-08-10T12:52:26.977Z</time>
      </trkpt>
      <trkpt lat="46.91079" lon="8.56282">
        <ele>781</ele>
        <time>2021-08-10T12:52:30.105Z</time>
      </trkpt>
      <trkpt lat="46.91079" lon="8.56281">
        <ele>780</ele>
        <time>2021-08-10T12:52:31.104Z</time>
      </trkpt>
      <trkpt lat="46.91079" lon="8.56281">
        <ele>780</ele>
        <time>2021-08-10T12:52:32.104Z</time>
      </trkpt>
      <trkpt lat="46.91078" lon="8.5628">
        <ele>780</ele>
        <time>2021-08-10T12:52:33.104Z</time>
      </trkpt>
      <trkpt lat="46.91078" lon="8.56279">
        <ele>780</ele>
        <time>2021-08-10T12:52:34.104Z</time>
      </trkpt>
      <trkpt lat="46.91078" lon="8.56278">
        <ele>779</ele>
        <time>2021-08-10T12:52:35.105Z</time>
      </trkpt>
      <trkpt lat="46.91077" lon="8.56276">
        <ele>779</ele>
        <time>2021-08-10T12:52:36.105Z</time>
      </trkpt>
      <trkpt lat="46.91077" lon="8.56275">
        <ele>779</ele>
        <time>2021-08-10T12:52:37.105Z</time>
      </trkpt>
      <trkpt lat="46.91076" lon="8.56274">
        <ele>779</ele>
        <time>2021-08-10T12:52:38.105Z</time>
      </trkpt>
      <trkpt lat="46.91076" lon="8.56272">
        <ele>779</ele>
        <time>2021-08-10T12:52:39.105Z</time>
      </trkpt>
      <trkpt lat="46.91076" lon="8.56271">
        <ele>779</ele>
        <time>2021-08-10T12:52:40.104Z</time>
      </trkpt>
      <trkpt lat="46.91076" lon="8.5627">
        <ele>780</ele>
        <time>2021-08-10T12:52:41.104Z</time>
      </trkpt>
      <trkpt lat="46.91075" lon="8.56268">
        <ele>780</ele>
        <time>2021-08-10T12:52:42.105Z</time>
      </trkpt>
      <trkpt lat="46.91075" lon="8.56266">
        <ele>780</ele>
        <time>2021-08-10T12:52:43.105Z</time>
      </trkpt>
      <trkpt lat="46.91075" lon="8.56265">
        <ele>781</ele>
        <time>2021-08-10T12:52:44.105Z</time>
      </trkpt>
      <trkpt lat="46.91075" lon="8.56263">
        <ele>781</ele>
        <time>2021-08-10T12:52:46.229Z</time>
      </trkpt>
      <trkpt lat="46.91075" lon="8.56262">
        <ele>782</ele>
        <time>2021-08-10T12:52:47.229Z</time>
      </trkpt>
      <trkpt lat="46.91075" lon="8.56261">
        <ele>783</ele>
        <time>2021-08-10T12:52:48.228Z</time>
      </trkpt>
      <trkpt lat="46.91075" lon="8.5626">
        <ele>783</ele>
        <time>2021-08-10T12:52:49.228Z</time>
      </trkpt>
      <trkpt lat="46.91074" lon="8.56258">
        <ele>784</ele>
        <time>2021-08-10T12:52:50.228Z</time>
      </trkpt>
      <trkpt lat="46.91073" lon="8.56256">
        <ele>784</ele>
        <time>2021-08-10T12:52:51.229Z</time>
      </trkpt>
      <trkpt lat="46.91072" lon="8.56254">
        <ele>785</ele>
        <time>2021-08-10T12:52:52.229Z</time>
      </trkpt>
      <trkpt lat="46.91071" lon="8.56252">
        <ele>785</ele>
        <time>2021-08-10T12:52:53.228Z</time>
      </trkpt>
      <trkpt lat="46.9107" lon="8.56249">
        <ele>785</ele>
        <time>2021-08-10T12:52:54.229Z</time>
      </trkpt>
      <trkpt lat="46.9107" lon="8.56248">
        <ele>786</ele>
        <time>2021-08-10T12:52:55.229Z</time>
      </trkpt>
      <trkpt lat="46.91069" lon="8.56246">
        <ele>786</ele>
        <time>2021-08-10T12:52:56.229Z</time>
      </trkpt>
      <trkpt lat="46.91069" lon="8.56245">
        <ele>787</ele>
        <time>2021-08-10T12:52:57.229Z</time>
      </trkpt>
      <trkpt lat="46.9107" lon="8.56244">
        <ele>787</ele>
        <time>2021-08-10T12:52:58.228Z</time>
      </trkpt>
      <trkpt lat="46.9107" lon="8.56243">
        <ele>787</ele>
        <time>2021-08-10T12:52:59.229Z</time>
      </trkpt>
      <trkpt lat="46.9107" lon="8.56241">
        <ele>787</ele>
        <time>2021-08-10T12:53:00.229Z</time>
      </trkpt>
      <trkpt lat="46.91069" lon="8.56239">
        <ele>787</ele>
        <time>2021-08-10T12:53:01.229Z</time>
      </trkpt>
      <trkpt lat="46.91069" lon="8.56238">
        <ele>788</ele>
        <time>2021-08-10T12:53:02.228Z</time>
      </trkpt>
      <trkpt lat="46.91069" lon="8.56236">
        <ele>788</ele>
        <time>2021-08-10T12:53:03.228Z</time>
      </trkpt>
      <trkpt lat="46.91069" lon="8.56235">
        <ele>788</ele>
        <time>2021-08-10T12:53:06.204Z</time>
      </trkpt>
      <trkpt lat="46.91069" lon="8.56234">
        <ele>789</ele>
        <time>2021-08-10T12:53:07.203Z</time>
      </trkpt>
      <trkpt lat="46.91069" lon="8.56233">
        <ele>790</ele>
        <time>2021-08-10T12:53:08.203Z</time>
      </trkpt>
      <trkpt lat="46.91069" lon="8.56231">
        <ele>790</ele>
        <time>2021-08-10T12:53:09.204Z</time>
      </trkpt>
      <trkpt lat="46.91068" lon="8.5623">
        <ele>791</ele>
        <time>2021-08-10T12:53:10.204Z</time>
      </trkpt>
      <trkpt lat="46.91069" lon="8.56228">
        <ele>791</ele>
        <time>2021-08-10T12:53:11.204Z</time>
      </trkpt>
      <trkpt lat="46.91068" lon="8.56226">
        <ele>792</ele>
        <time>2021-08-10T12:53:12.204Z</time>
      </trkpt>
      <trkpt lat="46.91068" lon="8.56224">
        <ele>792</ele>
        <time>2021-08-10T12:53:13.203Z</time>
      </trkpt>
      <trkpt lat="46.91067" lon="8.56223">
        <ele>792</ele>
        <time>2021-08-10T12:53:14.204Z</time>
      </trkpt>
      <trkpt lat="46.91066" lon="8.56223">
        <ele>792</ele>
        <time>2021-08-10T12:53:15.203Z</time>
      </trkpt>
      <trkpt lat="46.91064" lon="8.56223">
        <ele>793</ele>
        <time>2021-08-10T12:53:16.204Z</time>
      </trkpt>
      <trkpt lat="46.91063" lon="8.56223">
        <ele>793</ele>
        <time>2021-08-10T12:53:17.204Z</time>
      </trkpt>
      <trkpt lat="46.91063" lon="8.56223">
        <ele>793</ele>
        <time>2021-08-10T12:53:18.203Z</time>
      </trkpt>
      <trkpt lat="46.91062" lon="8.56224">
        <ele>793</ele>
        <time>2021-08-10T12:53:19.204Z</time>
      </trkpt>
      <trkpt lat="46.91062" lon="8.56224">
        <ele>793</ele>
        <time>2021-08-10T12:53:20.204Z</time>
      </trkpt>
      <trkpt lat="46.91062" lon="8.56225">
        <ele>793</ele>
        <time>2021-08-10T12:53:21.204Z</time>
      </trkpt>
      <trkpt lat="46.91063" lon="8.56225">
        <ele>793</ele>
        <time>2021-08-10T12:53:22.203Z</time>
      </trkpt>
      <trkpt lat="46.91064" lon="8.56226">
        <ele>793</ele>
        <time>2021-08-10T12:53:23.204Z</time>
      </trkpt>
      <trkpt lat="46.91064" lon="8.56227">
        <ele>793</ele>
        <time>2021-08-10T12:53:24.204Z</time>
      </trkpt>
      <trkpt lat="46.91064" lon="8.56227">
        <ele>793</ele>
        <time>2021-08-10T12:53:25.204Z</time>
      </trkpt>
      <trkpt lat="46.91064" lon="8.56227">
        <ele>792</ele>
        <time>2021-08-10T12:53:26.204Z</time>
      </trkpt>
      <trkpt lat="46.91064" lon="8.56227">
        <ele>791</ele>
        <time>2021-08-10T12:53:27.203Z</time>
      </trkpt>
      <trkpt lat="46.91062" lon="8.56223">
        <ele>782</ele>
        <time>2021-08-10T12:53:28.204Z</time>
      </trkpt>
      <trkpt lat="46.91062" lon="8.56222">
        <ele>781</ele>
        <time>2021-08-10T12:53:29.204Z</time>
      </trkpt>
      <trkpt lat="46.91062" lon="8.56223">
        <ele>781</ele>
        <time>2021-08-10T12:53:30.203Z</time>
      </trkpt>
      <trkpt lat="46.91062" lon="8.56223">
        <ele>780</ele>
        <time>2021-08-10T12:53:31.204Z</time>
      </trkpt>
      <trkpt lat="46.91062" lon="8.56223">
        <ele>779</ele>
        <time>2021-08-10T12:53:32.204Z</time>
      </trkpt>
      <trkpt lat="46.91062" lon="8.56224">
        <ele>776</ele>
        <time>2021-08-10T12:53:33.204Z</time>
      </trkpt>
      <trkpt lat="46.91059" lon="8.56223">
        <ele>768</ele>
        <time>2021-08-10T12:53:34.204Z</time>
      </trkpt>
      <trkpt lat="46.91058" lon="8.56222">
        <ele>768</ele>
        <time>2021-08-10T12:53:35.204Z</time>
      </trkpt>
      <trkpt lat="46.91058" lon="8.56222">
        <ele>767</ele>
        <time>2021-08-10T12:53:36.203Z</time>
      </trkpt>
      <trkpt lat="46.91057" lon="8.56223">
        <ele>768</ele>
        <time>2021-08-10T12:53:37.204Z</time>
      </trkpt>
      <trkpt lat="46.91057" lon="8.56222">
        <ele>769</ele>
        <time>2021-08-10T12:53:38.204Z</time>
      </trkpt>
      <trkpt lat="46.91056" lon="8.56221">
        <ele>769</ele>
        <time>2021-08-10T12:53:39.204Z</time>
      </trkpt>
      <trkpt lat="46.91055" lon="8.5622">
        <ele>769</ele>
        <time>2021-08-10T12:53:40.204Z</time>
      </trkpt>
      <trkpt lat="46.91055" lon="8.5622">
        <ele>769</ele>
        <time>2021-08-10T12:53:41.204Z</time>
      </trkpt>
      <trkpt lat="46.91055" lon="8.56222">
        <ele>769</ele>
        <time>2021-08-10T12:53:48.370Z</time>
      </trkpt>
      <trkpt lat="46.91055" lon="8.56223">
        <ele>770</ele>
        <time>2021-08-10T12:53:52.245Z</time>
      </trkpt>
      <trkpt lat="46.91055" lon="8.56222">
        <ele>771</ele>
        <time>2021-08-10T12:53:53.245Z</time>
      </trkpt>
      <trkpt lat="46.91055" lon="8.56222">
        <ele>772</ele>
        <time>2021-08-10T12:53:54.245Z</time>
      </trkpt>
      <trkpt lat="46.91056" lon="8.56222">
        <ele>773</ele>
        <time>2021-08-10T12:53:55.245Z</time>
      </trkpt>
      <trkpt lat="46.91057" lon="8.56222">
        <ele>774</ele>
        <time>2021-08-10T12:53:56.245Z</time>
      </trkpt>
      <trkpt lat="46.91058" lon="8.56222">
        <ele>775</ele>
        <time>2021-08-10T12:53:57.245Z</time>
      </trkpt>
      <trkpt lat="46.91059" lon="8.56222">
        <ele>777</ele>
        <time>2021-08-10T12:53:58.245Z</time>
      </trkpt>
      <trkpt lat="46.9106" lon="8.56223">
        <ele>778</ele>
        <time>2021-08-10T12:54:00.347Z</time>
      </trkpt>
      <trkpt lat="46.91061" lon="8.56225">
        <ele>781</ele>
        <time>2021-08-10T12:54:01.348Z</time>
      </trkpt>
      <trkpt lat="46.91062" lon="8.56227">
        <ele>781</ele>
        <time>2021-08-10T12:54:02.347Z</time>
      </trkpt>
      <trkpt lat="46.91062" lon="8.56229">
        <ele>782</ele>
        <time>2021-08-10T12:54:03.347Z</time>
      </trkpt>
      <trkpt lat="46.91063" lon="8.56231">
        <ele>782</ele>
        <time>2021-08-10T12:54:04.347Z</time>
      </trkpt>
      <trkpt lat="46.91064" lon="8.56233">
        <ele>782</ele>
        <time>2021-08-10T12:54:05.347Z</time>
      </trkpt>
      <trkpt lat="46.91065" lon="8.56234">
        <ele>782</ele>
        <time>2021-08-10T12:54:06.347Z</time>
      </trkpt>
      <trkpt lat="46.91065" lon="8.56236">
        <ele>781</ele>
        <time>2021-08-10T12:54:07.347Z</time>
      </trkpt>
      <trkpt lat="46.91065" lon="8.56238">
        <ele>781</ele>
        <time>2021-08-10T12:54:08.347Z</time>
      </trkpt>
      <trkpt lat="46.91066" lon="8.56239">
        <ele>781</ele>
        <time>2021-08-10T12:54:09.347Z</time>
      </trkpt>
      <trkpt lat="46.91067" lon="8.56241">
        <ele>781</ele>
        <time>2021-08-10T12:54:10.347Z</time>
      </trkpt>
      <trkpt lat="46.91067" lon="8.56243">
        <ele>780</ele>
        <time>2021-08-10T12:54:11.347Z</time>
      </trkpt>
      <trkpt lat="46.91066" lon="8.56245">
        <ele>780</ele>
        <time>2021-08-10T12:54:12.348Z</time>
      </trkpt>
      <trkpt lat="46.91066" lon="8.56247">
        <ele>779</ele>
        <time>2021-08-10T12:54:13.347Z</time>
      </trkpt>
      <trkpt lat="46.91067" lon="8.56249">
        <ele>779</ele>
        <time>2021-08-10T12:54:14.348Z</time>
      </trkpt>
      <trkpt lat="46.91067" lon="8.56251">
        <ele>778</ele>
        <time>2021-08-10T12:54:15.348Z</time>
      </trkpt>
      <trkpt lat="46.91067" lon="8.56252">
        <ele>778</ele>
        <time>2021-08-10T12:54:16.347Z</time>
      </trkpt>
      <trkpt lat="46.91067" lon="8.56254">
        <ele>778</ele>
        <time>2021-08-10T12:54:17.348Z</time>
      </trkpt>
      <trkpt lat="46.91067" lon="8.56255">
        <ele>777</ele>
        <time>2021-08-10T12:54:18.347Z</time>
      </trkpt>
      <trkpt lat="46.91066" lon="8.56256">
        <ele>777</ele>
        <time>2021-08-10T12:54:20.472Z</time>
      </trkpt>
      <trkpt lat="46.91066" lon="8.56258">
        <ele>776</ele>
        <time>2021-08-10T12:54:21.473Z</time>
      </trkpt>
      <trkpt lat="46.91065" lon="8.56259">
        <ele>776</ele>
        <time>2021-08-10T12:54:22.472Z</time>
      </trkpt>
      <trkpt lat="46.91065" lon="8.5626">
        <ele>776</ele>
        <time>2021-08-10T12:54:24.467Z</time>
      </trkpt>
      <trkpt lat="46.91064" lon="8.56261">
        <ele>776</ele>
        <time>2021-08-10T12:54:25.467Z</time>
      </trkpt>
      <trkpt lat="46.91063" lon="8.56262">
        <ele>776</ele>
        <time>2021-08-10T12:54:26.468Z</time>
      </trkpt>
      <trkpt lat="46.91062" lon="8.56263">
        <ele>776</ele>
        <time>2021-08-10T12:54:28.577Z</time>
      </trkpt>
      <trkpt lat="46.91062" lon="8.56262">
        <ele>776</ele>
        <time>2021-08-10T12:54:29.577Z</time>
      </trkpt>
      <trkpt lat="46.91062" lon="8.56263">
        <ele>776</ele>
        <time>2021-08-10T12:54:30.577Z</time>
      </trkpt>
      <trkpt lat="46.91063" lon="8.56263">
        <ele>776</ele>
        <time>2021-08-10T12:54:31.577Z</time>
      </trkpt>
      <trkpt lat="46.91064" lon="8.56263">
        <ele>776</ele>
        <time>2021-08-10T12:54:32.577Z</time>
      </trkpt>
      <trkpt lat="46.91066" lon="8.56263">
        <ele>777</ele>
        <time>2021-08-10T12:54:33.577Z</time>
      </trkpt>
      <trkpt lat="46.91066" lon="8.56263">
        <ele>777</ele>
        <time>2021-08-10T12:54:34.577Z</time>
      </trkpt>
      <trkpt lat="46.91064" lon="8.56263">
        <ele>778</ele>
        <time>2021-08-10T12:54:35.577Z</time>
      </trkpt>
      <trkpt lat="46.91063" lon="8.56263">
        <ele>778</ele>
        <time>2021-08-10T12:54:36.577Z</time>
      </trkpt>
      <trkpt lat="46.91063" lon="8.56264">
        <ele>779</ele>
        <time>2021-08-10T12:54:37.577Z</time>
      </trkpt>
      <trkpt lat="46.91063" lon="8.56264">
        <ele>779</ele>
        <time>2021-08-10T12:54:38.577Z</time>
      </trkpt>
      <trkpt lat="46.91064" lon="8.56265">
        <ele>779</ele>
        <time>2021-08-10T12:54:39.577Z</time>
      </trkpt>
      <trkpt lat="46.91065" lon="8.56265">
        <ele>779</ele>
        <time>2021-08-10T12:54:40.578Z</time>
      </trkpt>
      <trkpt lat="46.91066" lon="8.56266">
        <ele>779</ele>
        <time>2021-08-10T12:54:41.578Z</time>
      </trkpt>
      <trkpt lat="46.91066" lon="8.56266">
        <ele>780</ele>
        <time>2021-08-10T12:54:42.577Z</time>
      </trkpt>
      <trkpt lat="46.91068" lon="8.56266">
        <ele>780</ele>
        <time>2021-08-10T12:54:43.578Z</time>
      </trkpt>
      <trkpt lat="46.91069" lon="8.56266">
        <ele>780</ele>
        <time>2021-08-10T12:54:44.577Z</time>
      </trkpt>
      <trkpt lat="46.9107" lon="8.56264">
        <ele>781</ele>
        <time>2021-08-10T12:54:45.577Z</time>
      </trkpt>
      <trkpt lat="46.91071" lon="8.56263">
        <ele>781</ele>
        <time>2021-08-10T12:54:46.577Z</time>
      </trkpt>
      <trkpt lat="46.91071" lon="8.5626">
        <ele>781</ele>
        <time>2021-08-10T12:54:47.578Z</time>
      </trkpt>
      <trkpt lat="46.91071" lon="8.56259">
        <ele>781</ele>
        <time>2021-08-10T12:54:48.578Z</time>
      </trkpt>
      <trkpt lat="46.91071" lon="8.56259">
        <ele>781</ele>
        <time>2021-08-10T12:54:49.578Z</time>
      </trkpt>
      <trkpt lat="46.91071" lon="8.56259">
        <ele>782</ele>
        <time>2021-08-10T12:54:50.577Z</time>
      </trkpt>
      <trkpt lat="46.91072" lon="8.5626">
        <ele>782</ele>
        <time>2021-08-10T12:54:51.577Z</time>
      </trkpt>
      <trkpt lat="46.91072" lon="8.5626">
        <ele>782</ele>
        <time>2021-08-10T12:54:52.577Z</time>
      </trkpt>
      <trkpt lat="46.91072" lon="8.5626">
        <ele>782</ele>
        <time>2021-08-10T12:54:53.577Z</time>
      </trkpt>
      <trkpt lat="46.91072" lon="8.56261">
        <ele>782</ele>
        <time>2021-08-10T12:54:54.578Z</time>
      </trkpt>
      <trkpt lat="46.91072" lon="8.56262">
        <ele>781</ele>
        <time>2021-08-10T12:54:55.578Z</time>
      </trkpt>
      <trkpt lat="46.91071" lon="8.56263">
        <ele>781</ele>
        <time>2021-08-10T12:54:56.577Z</time>
      </trkpt>
      <trkpt lat="46.9107" lon="8.56264">
        <ele>781</ele>
        <time>2021-08-10T12:54:57.578Z</time>
      </trkpt>
      <trkpt lat="46.91069" lon="8.56264">
        <ele>781</ele>
        <time>2021-08-10T12:55:05.596Z</time>
      </trkpt>
      <trkpt lat="46.91068" lon="8.56264">
        <ele>781</ele>
        <time>2021-08-10T12:55:06.596Z</time>
      </trkpt>
      <trkpt lat="46.91066" lon="8.56264">
        <ele>781</ele>
        <time>2021-08-10T12:55:07.596Z</time>
      </trkpt>
      <trkpt lat="46.91066" lon="8.56265">
        <ele>780</ele>
        <time>2021-08-10T12:55:08.596Z</time>
      </trkpt>
      <trkpt lat="46.91065" lon="8.56265">
        <ele>780</ele>
        <time>2021-08-10T12:55:09.596Z</time>
      </trkpt>
      <trkpt lat="46.91064" lon="8.56265">
        <ele>779</ele>
        <time>2021-08-10T12:55:10.597Z</time>
      </trkpt>
      <trkpt lat="46.91063" lon="8.56266">
        <ele>779</ele>
        <time>2021-08-10T12:55:11.596Z</time>
      </trkpt>
      <trkpt lat="46.91062" lon="8.56266">
        <ele>778</ele>
        <time>2021-08-10T12:55:12.597Z</time>
      </trkpt>
      <trkpt lat="46.9106" lon="8.56266">
        <ele>777</ele>
        <time>2021-08-10T12:55:13.597Z</time>
      </trkpt>
      <trkpt lat="46.91058" lon="8.56266">
        <ele>777</ele>
        <time>2021-08-10T12:55:14.596Z</time>
      </trkpt>
      <trkpt lat="46.91057" lon="8.56266">
        <ele>776</ele>
        <time>2021-08-10T12:55:15.597Z</time>
      </trkpt>
      <trkpt lat="46.91056" lon="8.56265">
        <ele>776</ele>
        <time>2021-08-10T12:55:16.596Z</time>
      </trkpt>
      <trkpt lat="46.91055" lon="8.56264">
        <ele>776</ele>
        <time>2021-08-10T12:55:17.596Z</time>
      </trkpt>
      <trkpt lat="46.91054" lon="8.56263">
        <ele>775</ele>
        <time>2021-08-10T12:55:18.596Z</time>
      </trkpt>
      <trkpt lat="46.91053" lon="8.56262">
        <ele>775</ele>
        <time>2021-08-10T12:55:19.597Z</time>
      </trkpt>
      <trkpt lat="46.91053" lon="8.5626">
        <ele>776</ele>
        <time>2021-08-10T12:55:20.597Z</time>
      </trkpt>
      <trkpt lat="46.91052" lon="8.56258">
        <ele>776</ele>
        <time>2021-08-10T12:55:21.597Z</time>
      </trkpt>
      <trkpt lat="46.91051" lon="8.56257">
        <ele>777</ele>
        <time>2021-08-10T12:55:22.597Z</time>
      </trkpt>
      <trkpt lat="46.91051" lon="8.56255">
        <ele>777</ele>
        <time>2021-08-10T12:55:23.596Z</time>
      </trkpt>
      <trkpt lat="46.9105" lon="8.56254">
        <ele>778</ele>
        <time>2021-08-10T12:55:24.597Z</time>
      </trkpt>
      <trkpt lat="46.9105" lon="8.56253">
        <ele>779</ele>
        <time>2021-08-10T12:55:25.597Z</time>
      </trkpt>
      <trkpt lat="46.9105" lon="8.56253">
        <ele>779</ele>
        <time>2021-08-10T12:55:26.597Z</time>
      </trkpt>
      <trkpt lat="46.91058" lon="8.56225">
        <ele>782</ele>
        <time>2021-08-10T12:56:37.858Z</time>
      </trkpt>
      <trkpt lat="46.9105" lon="8.5624">
        <ele>784</ele>
        <time>2021-08-10T12:56:38.858Z</time>
      </trkpt>
      <trkpt lat="46.91044" lon="8.56246">
        <ele>785</ele>
        <time>2021-08-10T12:56:39.858Z</time>
      </trkpt>
      <trkpt lat="46.91042" lon="8.56249">
        <ele>787</ele>
        <time>2021-08-10T12:56:40.857Z</time>
      </trkpt>
      <trkpt lat="46.91044" lon="8.56246">
        <ele>788</ele>
        <time>2021-08-10T12:56:41.858Z</time>
      </trkpt>
      <trkpt lat="46.91042" lon="8.56248">
        <ele>789</ele>
        <time>2021-08-10T12:56:42.858Z</time>
      </trkpt>
      <trkpt lat="46.91042" lon="8.56247">
        <ele>790</ele>
        <time>2021-08-10T12:56:43.857Z</time>
      </trkpt>
      <trkpt lat="46.91043" lon="8.56247">
        <ele>791</ele>
        <time>2021-08-10T12:56:44.858Z</time>
      </trkpt>
      <trkpt lat="46.91042" lon="8.56247">
        <ele>792</ele>
        <time>2021-08-10T12:56:45.858Z</time>
      </trkpt>
      <trkpt lat="46.91041" lon="8.56248">
        <ele>793</ele>
        <time>2021-08-10T12:56:46.858Z</time>
      </trkpt>
      <trkpt lat="46.91041" lon="8.56249">
        <ele>793</ele>
        <time>2021-08-10T12:56:47.858Z</time>
      </trkpt>
      <trkpt lat="46.91042" lon="8.56248">
        <ele>793</ele>
        <time>2021-08-10T12:56:48.857Z</time>
      </trkpt>
      <trkpt lat="46.91043" lon="8.56247">
        <ele>794</ele>
        <time>2021-08-10T12:56:49.857Z</time>
      </trkpt>
      <trkpt lat="46.90967" lon="8.56362">
        <ele>794</ele>
        <time>2021-08-10T12:59:44.972Z</time>
      </trkpt>
      <trkpt lat="46.9098" lon="8.5635">
        <ele>794</ele>
        <time>2021-08-10T12:59:45.971Z</time>
      </trkpt>
      <trkpt lat="46.90961" lon="8.56345">
        <ele>795</ele>
        <time>2021-08-10T12:59:46.972Z</time>
      </trkpt>
      <trkpt lat="46.90957" lon="8.56342">
        <ele>795</ele>
        <time>2021-08-10T12:59:47.972Z</time>
      </trkpt>
      <trkpt lat="46.9095" lon="8.5635">
        <ele>795</ele>
        <time>2021-08-10T12:59:48.972Z</time>
      </trkpt>
      <trkpt lat="46.90933" lon="8.56335">
        <ele>796</ele>
        <time>2021-08-10T12:59:49.972Z</time>
      </trkpt>
      <trkpt lat="46.90941" lon="8.56309">
        <ele>796</ele>
        <time>2021-08-10T12:59:51.972Z</time>
      </trkpt>
      <trkpt lat="46.90965" lon="8.56303">
        <ele>796</ele>
        <time>2021-08-10T12:59:52.972Z</time>
      </trkpt>
      <trkpt lat="46.90974" lon="8.56313">
        <ele>797</ele>
        <time>2021-08-10T12:59:53.972Z</time>
      </trkpt>
      <trkpt lat="46.90984" lon="8.56309">
        <ele>797</ele>
        <time>2021-08-10T12:59:54.972Z</time>
      </trkpt>
      <trkpt lat="46.9099" lon="8.56305">
        <ele>798</ele>
        <time>2021-08-10T12:59:55.972Z</time>
      </trkpt>
      <trkpt lat="46.90999" lon="8.56299">
        <ele>798</ele>
        <time>2021-08-10T12:59:56.971Z</time>
      </trkpt>
      <trkpt lat="46.91007" lon="8.56289">
        <ele>798</ele>
        <time>2021-08-10T12:59:57.972Z</time>
      </trkpt>
      <trkpt lat="46.91013" lon="8.56284">
        <ele>799</ele>
        <time>2021-08-10T12:59:58.971Z</time>
      </trkpt>
      <trkpt lat="46.91016" lon="8.56281">
        <ele>799</ele>
        <time>2021-08-10T12:59:59.972Z</time>
      </trkpt>
      <trkpt lat="46.91018" lon="8.56278">
        <ele>799</ele>
        <time>2021-08-10T13:00:00.972Z</time>
      </trkpt>
      <trkpt lat="46.91021" lon="8.56277">
        <ele>800</ele>
        <time>2021-08-10T13:00:01.971Z</time>
      </trkpt>
      <trkpt lat="46.91019" lon="8.56273">
        <ele>800</ele>
        <time>2021-08-10T13:00:02.972Z</time>
      </trkpt>
      <trkpt lat="46.91016" lon="8.56271">
        <ele>800</ele>
        <time>2021-08-10T13:00:03.972Z</time>
      </trkpt>
      <trkpt lat="46.91017" lon="8.56271">
        <ele>800</ele>
        <time>2021-08-10T13:00:04.972Z</time>
      </trkpt>
      <trkpt lat="46.91019" lon="8.56271">
        <ele>801</ele>
        <time>2021-08-10T13:00:05.972Z</time>
      </trkpt>
      <trkpt lat="46.91026" lon="8.56267">
        <ele>801</ele>
        <time>2021-08-10T13:00:07.972Z</time>
      </trkpt>
      <trkpt lat="46.91028" lon="8.56266">
        <ele>800</ele>
        <time>2021-08-10T13:00:08.972Z</time>
      </trkpt>
      <trkpt lat="46.91034" lon="8.56263">
        <ele>799</ele>
        <time>2021-08-10T13:00:09.972Z</time>
      </trkpt>
      <trkpt lat="46.91035" lon="8.56263">
        <ele>798</ele>
        <time>2021-08-10T13:00:10.971Z</time>
      </trkpt>
      <trkpt lat="46.91036" lon="8.56263">
        <ele>796</ele>
        <time>2021-08-10T13:00:11.972Z</time>
      </trkpt>
      <trkpt lat="46.91037" lon="8.56262">
        <ele>792</ele>
        <time>2021-08-10T13:00:12.974Z</time>
      </trkpt>
      <trkpt lat="46.91038" lon="8.56262">
        <ele>792</ele>
        <time>2021-08-10T13:00:13.973Z</time>
      </trkpt>
      <trkpt lat="46.91041" lon="8.56261">
        <ele>789</ele>
        <time>2021-08-10T13:00:14.974Z</time>
      </trkpt>
      <trkpt lat="46.91042" lon="8.5626">
        <ele>788</ele>
        <time>2021-08-10T13:00:15.974Z</time>
      </trkpt>
      <trkpt lat="46.91044" lon="8.56259">
        <ele>788</ele>
        <time>2021-08-10T13:00:16.973Z</time>
      </trkpt>
      <trkpt lat="46.91045" lon="8.5626">
        <ele>788</ele>
        <time>2021-08-10T13:00:17.973Z</time>
      </trkpt>
      <trkpt lat="46.91046" lon="8.56259">
        <ele>788</ele>
        <time>2021-08-10T13:00:18.973Z</time>
      </trkpt>
      <trkpt lat="46.91047" lon="8.5626">
        <ele>787</ele>
        <time>2021-08-10T13:00:19.973Z</time>
      </trkpt>
      <trkpt lat="46.91047" lon="8.5626">
        <ele>787</ele>
        <time>2021-08-10T13:00:20.974Z</time>
      </trkpt>
      <trkpt lat="46.91046" lon="8.56259">
        <ele>787</ele>
        <time>2021-08-10T13:00:21.974Z</time>
      </trkpt>
      <trkpt lat="46.91047" lon="8.56258">
        <ele>787</ele>
        <time>2021-08-10T13:00:22.974Z</time>
      </trkpt>
      <trkpt lat="46.91048" lon="8.56258">
        <ele>786</ele>
        <time>2021-08-10T13:00:23.973Z</time>
      </trkpt>
      <trkpt lat="46.91048" lon="8.56259">
        <ele>786</ele>
        <time>2021-08-10T13:00:24.974Z</time>
      </trkpt>
      <trkpt lat="46.91049" lon="8.56259">
        <ele>786</ele>
        <time>2021-08-10T13:00:25.973Z</time>
      </trkpt>
      <trkpt lat="46.9105" lon="8.56259">
        <ele>786</ele>
        <time>2021-08-10T13:00:26.974Z</time>
      </trkpt>
      <trkpt lat="46.9105" lon="8.56259">
        <ele>786</ele>
        <time>2021-08-10T13:00:27.973Z</time>
      </trkpt>
      <trkpt lat="46.9105" lon="8.56258">
        <ele>785</ele>
        <time>2021-08-10T13:00:28.974Z</time>
      </trkpt>
      <trkpt lat="46.91052" lon="8.56258">
        <ele>785</ele>
        <time>2021-08-10T13:00:29.974Z</time>
      </trkpt>
      <trkpt lat="46.91052" lon="8.56257">
        <ele>785</ele>
        <time>2021-08-10T13:00:30.974Z</time>
      </trkpt>
      <trkpt lat="46.91053" lon="8.56255">
        <ele>785</ele>
        <time>2021-08-10T13:00:32.995Z</time>
      </trkpt>
      <trkpt lat="46.91053" lon="8.56254">
        <ele>785</ele>
        <time>2021-08-10T13:00:33.996Z</time>
      </trkpt>
      <trkpt lat="46.91053" lon="8.56254">
        <ele>785</ele>
        <time>2021-08-10T13:00:36.845Z</time>
      </trkpt>
      <trkpt lat="46.91053" lon="8.56253">
        <ele>785</ele>
        <time>2021-08-10T13:00:37.845Z</time>
      </trkpt>
      <trkpt lat="46.91053" lon="8.56253">
        <ele>784</ele>
        <time>2021-08-10T13:00:38.845Z</time>
      </trkpt>
      <trkpt lat="46.91053" lon="8.56253">
        <ele>784</ele>
        <time>2021-08-10T13:00:53.605Z</time>
      </trkpt>
      <trkpt lat="46.91054" lon="8.56253">
        <ele>784</ele>
        <time>2021-08-10T13:00:54.606Z</time>
      </trkpt>
      <trkpt lat="46.91054" lon="8.56253">
        <ele>784</ele>
        <time>2021-08-10T13:00:55.605Z</time>
      </trkpt>
      <trkpt lat="46.91054" lon="8.56253">
        <ele>783</ele>
        <time>2021-08-10T13:00:56.605Z</time>
      </trkpt>
      <trkpt lat="46.91054" lon="8.56254">
        <ele>783</ele>
        <time>2021-08-10T13:00:57.605Z</time>
      </trkpt>
      <trkpt lat="46.91055" lon="8.56253">
        <ele>783</ele>
        <time>2021-08-10T13:00:58.606Z</time>
      </trkpt>
      <trkpt lat="46.91055" lon="8.56253">
        <ele>783</ele>
        <time>2021-08-10T13:00:59.605Z</time>
      </trkpt>
      <trkpt lat="46.91054" lon="8.56252">
        <ele>783</ele>
        <time>2021-08-10T13:01:00.606Z</time>
      </trkpt>
      <trkpt lat="46.91054" lon="8.56252">
        <ele>783</ele>
        <time>2021-08-10T13:01:01.605Z</time>
      </trkpt>
      <trkpt lat="46.91055" lon="8.56251">
        <ele>783</ele>
        <time>2021-08-10T13:01:05.627Z</time>
      </trkpt>
      <trkpt lat="46.91055" lon="8.56251">
        <ele>783</ele>
        <time>2021-08-10T13:01:06.627Z</time>
      </trkpt>
      <trkpt lat="46.91056" lon="8.5625">
        <ele>783</ele>
        <time>2021-08-10T13:01:07.627Z</time>
      </trkpt>
      <trkpt lat="46.91057" lon="8.5625">
        <ele>783</ele>
        <time>2021-08-10T13:01:08.627Z</time>
      </trkpt>
      <trkpt lat="46.91056" lon="8.5625">
        <ele>783</ele>
        <time>2021-08-10T13:01:09.627Z</time>
      </trkpt>
      <trkpt lat="46.91056" lon="8.56249">
        <ele>783</ele>
        <time>2021-08-10T13:01:10.628Z</time>
      </trkpt>
      <trkpt lat="46.91053" lon="8.56247">
        <ele>784</ele>
        <time>2021-08-10T13:01:11.628Z</time>
      </trkpt>
      <trkpt lat="46.91051" lon="8.56247">
        <ele>784</ele>
        <time>2021-08-10T13:01:12.628Z</time>
      </trkpt>
      <trkpt lat="46.91051" lon="8.56247">
        <ele>784</ele>
        <time>2021-08-10T13:01:13.628Z</time>
      </trkpt>
      <trkpt lat="46.91051" lon="8.56246">
        <ele>784</ele>
        <time>2021-08-10T13:01:14.627Z</time>
      </trkpt>
      <trkpt lat="46.9105" lon="8.56246">
        <ele>784</ele>
        <time>2021-08-10T13:01:15.628Z</time>
      </trkpt>
      <trkpt lat="46.91049" lon="8.56248">
        <ele>785</ele>
        <time>2021-08-10T13:01:16.628Z</time>
      </trkpt>
      <trkpt lat="46.91049" lon="8.56248">
        <ele>786</ele>
        <time>2021-08-10T13:01:17.628Z</time>
      </trkpt>
      <trkpt lat="46.91049" lon="8.56248">
        <ele>786</ele>
        <time>2021-08-10T13:01:18.627Z</time>
      </trkpt>
      <trkpt lat="46.9105" lon="8.56247">
        <ele>786</ele>
        <time>2021-08-10T13:01:19.628Z</time>
      </trkpt>
      <trkpt lat="46.9105" lon="8.56247">
        <ele>786</ele>
        <time>2021-08-10T13:01:20.627Z</time>
      </trkpt>
      <trkpt lat="46.91049" lon="8.56248">
        <ele>784</ele>
        <time>2021-08-10T13:01:21.629Z</time>
      </trkpt>
      <trkpt lat="46.91046" lon="8.56249">
        <ele>781</ele>
        <time>2021-08-10T13:01:22.629Z</time>
      </trkpt>
      <trkpt lat="46.91045" lon="8.56248">
        <ele>780</ele>
        <time>2021-08-10T13:01:23.629Z</time>
      </trkpt>
      <trkpt lat="46.91045" lon="8.56247">
        <ele>779</ele>
        <time>2021-08-10T13:01:24.628Z</time>
      </trkpt>
      <trkpt lat="46.91045" lon="8.56246">
        <ele>779</ele>
        <time>2021-08-10T13:01:25.629Z</time>
      </trkpt>
      <trkpt lat="46.91044" lon="8.56246">
        <ele>778</ele>
        <time>2021-08-10T13:01:26.628Z</time>
      </trkpt>
      <trkpt lat="46.91043" lon="8.56245">
        <ele>777</ele>
        <time>2021-08-10T13:01:27.628Z</time>
      </trkpt>
      <trkpt lat="46.91042" lon="8.56245">
        <ele>776</ele>
        <time>2021-08-10T13:01:28.628Z</time>
      </trkpt>
      <trkpt lat="46.91041" lon="8.56246">
        <ele>775</ele>
        <time>2021-08-10T13:01:29.628Z</time>
      </trkpt>
      <trkpt lat="46.9104" lon="8.56246">
        <ele>774</ele>
        <time>2021-08-10T13:01:30.628Z</time>
      </trkpt>
      <trkpt lat="46.91039" lon="8.56246">
        <ele>773</ele>
        <time>2021-08-10T13:01:31.628Z</time>
      </trkpt>
      <trkpt lat="46.91038" lon="8.56246">
        <ele>772</ele>
        <time>2021-08-10T13:01:36.727Z</time>
      </trkpt>
      <trkpt lat="46.91037" lon="8.56247">
        <ele>772</ele>
        <time>2021-08-10T13:01:37.727Z</time>
      </trkpt>
      <trkpt lat="46.91036" lon="8.56247">
        <ele>771</ele>
        <time>2021-08-10T13:01:38.728Z</time>
      </trkpt>
      <trkpt lat="46.91035" lon="8.56248">
        <ele>770</ele>
        <time>2021-08-10T13:01:39.727Z</time>
      </trkpt>
      <trkpt lat="46.91035" lon="8.56248">
        <ele>769</ele>
        <time>2021-08-10T13:01:40.728Z</time>
      </trkpt>
      <trkpt lat="46.91034" lon="8.56249">
        <ele>768</ele>
        <time>2021-08-10T13:01:41.727Z</time>
      </trkpt>
      <trkpt lat="46.91034" lon="8.5625">
        <ele>767</ele>
        <time>2021-08-10T13:01:42.727Z</time>
      </trkpt>
      <trkpt lat="46.91033" lon="8.56251">
        <ele>766</ele>
        <time>2021-08-10T13:01:44.830Z</time>
      </trkpt>
      <trkpt lat="46.91032" lon="8.56252">
        <ele>766</ele>
        <time>2021-08-10T13:01:45.830Z</time>
      </trkpt>
      <trkpt lat="46.91031" lon="8.56253">
        <ele>766</ele>
        <time>2021-08-10T13:01:49.685Z</time>
      </trkpt>
      <trkpt lat="46.91029" lon="8.56254">
        <ele>766</ele>
        <time>2021-08-10T13:01:50.685Z</time>
      </trkpt>
      <trkpt lat="46.91028" lon="8.56255">
        <ele>766</ele>
        <time>2021-08-10T13:01:51.685Z</time>
      </trkpt>
      <trkpt lat="46.91027" lon="8.56257">
        <ele>766</ele>
        <time>2021-08-10T13:01:52.685Z</time>
      </trkpt>
      <trkpt lat="46.91026" lon="8.56258">
        <ele>766</ele>
        <time>2021-08-10T13:01:53.684Z</time>
      </trkpt>
      <trkpt lat="46.91025" lon="8.56258">
        <ele>766</ele>
        <time>2021-08-10T13:01:54.684Z</time>
      </trkpt>
      <trkpt lat="46.91024" lon="8.56259">
        <ele>766</ele>
        <time>2021-08-10T13:01:55.685Z</time>
      </trkpt>
      <trkpt lat="46.91023" lon="8.56259">
        <ele>765</ele>
        <time>2021-08-10T13:01:56.684Z</time>
      </trkpt>
      <trkpt lat="46.91022" lon="8.56259">
        <ele>764</ele>
        <time>2021-08-10T13:01:57.685Z</time>
      </trkpt>
      <trkpt lat="46.9102" lon="8.5626">
        <ele>764</ele>
        <time>2021-08-10T13:01:58.685Z</time>
      </trkpt>
      <trkpt lat="46.91019" lon="8.56261">
        <ele>763</ele>
        <time>2021-08-10T13:01:59.685Z</time>
      </trkpt>
      <trkpt lat="46.91018" lon="8.56261">
        <ele>762</ele>
        <time>2021-08-10T13:02:00.685Z</time>
      </trkpt>
      <trkpt lat="46.91017" lon="8.56262">
        <ele>762</ele>
        <time>2021-08-10T13:02:01.685Z</time>
      </trkpt>
      <trkpt lat="46.91015" lon="8.56262">
        <ele>761</ele>
        <time>2021-08-10T13:02:02.685Z</time>
      </trkpt>
      <trkpt lat="46.91015" lon="8.56263">
        <ele>760</ele>
        <time>2021-08-10T13:02:03.685Z</time>
      </trkpt>
      <trkpt lat="46.91014" lon="8.56263">
        <ele>759</ele>
        <time>2021-08-10T13:02:04.685Z</time>
      </trkpt>
      <trkpt lat="46.91013" lon="8.56264">
        <ele>758</ele>
        <time>2021-08-10T13:02:05.684Z</time>
      </trkpt>
      <trkpt lat="46.91012" lon="8.56264">
        <ele>758</ele>
        <time>2021-08-10T13:02:06.684Z</time>
      </trkpt>
      <trkpt lat="46.9101" lon="8.56265">
        <ele>758</ele>
        <time>2021-08-10T13:02:07.685Z</time>
      </trkpt>
      <trkpt lat="46.91008" lon="8.56266">
        <ele>758</ele>
        <time>2021-08-10T13:02:08.685Z</time>
      </trkpt>
      <trkpt lat="46.91007" lon="8.56265">
        <ele>759</ele>
        <time>2021-08-10T13:02:09.685Z</time>
      </trkpt>
      <trkpt lat="46.91006" lon="8.56266">
        <ele>759</ele>
        <time>2021-08-10T13:02:10.685Z</time>
      </trkpt>
      <trkpt lat="46.91005" lon="8.56266">
        <ele>760</ele>
        <time>2021-08-10T13:02:11.685Z</time>
      </trkpt>
      <trkpt lat="46.91004" lon="8.56267">
        <ele>760</ele>
        <time>2021-08-10T13:02:12.684Z</time>
      </trkpt>
      <trkpt lat="46.91003" lon="8.56268">
        <ele>761</ele>
        <time>2021-08-10T13:02:13.685Z</time>
      </trkpt>
      <trkpt lat="46.91001" lon="8.56268">
        <ele>762</ele>
        <time>2021-08-10T13:02:14.685Z</time>
      </trkpt>
      <trkpt lat="46.91" lon="8.56269">
        <ele>762</ele>
        <time>2021-08-10T13:02:15.685Z</time>
      </trkpt>
      <trkpt lat="46.90999" lon="8.56269">
        <ele>763</ele>
        <time>2021-08-10T13:02:16.685Z</time>
      </trkpt>
      <trkpt lat="46.90998" lon="8.56269">
        <ele>763</ele>
        <time>2021-08-10T13:02:17.685Z</time>
      </trkpt>
      <trkpt lat="46.90997" lon="8.5627">
        <ele>764</ele>
        <time>2021-08-10T13:02:18.685Z</time>
      </trkpt>
      <trkpt lat="46.90996" lon="8.5627">
        <ele>764</ele>
        <time>2021-08-10T13:02:19.685Z</time>
      </trkpt>
      <trkpt lat="46.90996" lon="8.5627">
        <ele>765</ele>
        <time>2021-08-10T13:02:20.684Z</time>
      </trkpt>
      <trkpt lat="46.90995" lon="8.5627">
        <ele>765</ele>
        <time>2021-08-10T13:02:21.685Z</time>
      </trkpt>
      <trkpt lat="46.90995" lon="8.56269">
        <ele>766</ele>
        <time>2021-08-10T13:02:22.685Z</time>
      </trkpt>
      <trkpt lat="46.90994" lon="8.56269">
        <ele>766</ele>
        <time>2021-08-10T13:02:23.685Z</time>
      </trkpt>
      <trkpt lat="46.90994" lon="8.56268">
        <ele>767</ele>
        <time>2021-08-10T13:02:24.685Z</time>
      </trkpt>
      <trkpt lat="46.90993" lon="8.56266">
        <ele>767</ele>
        <time>2021-08-10T13:02:25.685Z</time>
      </trkpt>
      <trkpt lat="46.90992" lon="8.56264">
        <ele>768</ele>
        <time>2021-08-10T13:02:26.685Z</time>
      </trkpt>
      <trkpt lat="46.90992" lon="8.56262">
        <ele>769</ele>
        <time>2021-08-10T13:02:27.684Z</time>
      </trkpt>
      <trkpt lat="46.90991" lon="8.56261">
        <ele>769</ele>
        <time>2021-08-10T13:02:28.685Z</time>
      </trkpt>
      <trkpt lat="46.9099" lon="8.56261">
        <ele>770</ele>
        <time>2021-08-10T13:02:29.685Z</time>
      </trkpt>
      <trkpt lat="46.90989" lon="8.56262">
        <ele>770</ele>
        <time>2021-08-10T13:02:30.685Z</time>
      </trkpt>
      <trkpt lat="46.90989" lon="8.56262">
        <ele>769</ele>
        <time>2021-08-10T13:02:31.684Z</time>
      </trkpt>
      <trkpt lat="46.90989" lon="8.56261">
        <ele>769</ele>
        <time>2021-08-10T13:02:32.685Z</time>
      </trkpt>
      <trkpt lat="46.90988" lon="8.5626">
        <ele>769</ele>
        <time>2021-08-10T13:02:33.685Z</time>
      </trkpt>
      <trkpt lat="46.90987" lon="8.56257">
        <ele>768</ele>
        <time>2021-08-10T13:02:34.684Z</time>
      </trkpt>
      <trkpt lat="46.90986" lon="8.56255">
        <ele>768</ele>
        <time>2021-08-10T13:02:35.685Z</time>
      </trkpt>
      <trkpt lat="46.90986" lon="8.56253">
        <ele>767</ele>
        <time>2021-08-10T13:02:36.685Z</time>
      </trkpt>
      <trkpt lat="46.90985" lon="8.56252">
        <ele>767</ele>
        <time>2021-08-10T13:02:37.685Z</time>
      </trkpt>
      <trkpt lat="46.90985" lon="8.56251">
        <ele>767</ele>
        <time>2021-08-10T13:02:38.684Z</time>
      </trkpt>
      <trkpt lat="46.90984" lon="8.5625">
        <ele>767</ele>
        <time>2021-08-10T13:02:39.684Z</time>
      </trkpt>
      <trkpt lat="46.90983" lon="8.56249">
        <ele>767</ele>
        <time>2021-08-10T13:02:40.685Z</time>
      </trkpt>
      <trkpt lat="46.90982" lon="8.56248">
        <ele>767</ele>
        <time>2021-08-10T13:02:41.685Z</time>
      </trkpt>
      <trkpt lat="46.90981" lon="8.56247">
        <ele>768</ele>
        <time>2021-08-10T13:02:42.684Z</time>
      </trkpt>
      <trkpt lat="46.90981" lon="8.56246">
        <ele>768</ele>
        <time>2021-08-10T13:02:43.685Z</time>
      </trkpt>
      <trkpt lat="46.90981" lon="8.56247">
        <ele>769</ele>
        <time>2021-08-10T13:02:44.685Z</time>
      </trkpt>
      <trkpt lat="46.90981" lon="8.56248">
        <ele>769</ele>
        <time>2021-08-10T13:02:45.684Z</time>
      </trkpt>
      <trkpt lat="46.9098" lon="8.56249">
        <ele>768</ele>
        <time>2021-08-10T13:02:46.684Z</time>
      </trkpt>
      <trkpt lat="46.90979" lon="8.56249">
        <ele>768</ele>
        <time>2021-08-10T13:02:47.685Z</time>
      </trkpt>
      <trkpt lat="46.90978" lon="8.56247">
        <ele>769</ele>
        <time>2021-08-10T13:02:48.684Z</time>
      </trkpt>
      <trkpt lat="46.90977" lon="8.56247">
        <ele>770</ele>
        <time>2021-08-10T13:02:49.684Z</time>
      </trkpt>
      <trkpt lat="46.90977" lon="8.56247">
        <ele>771</ele>
        <time>2021-08-10T13:02:50.684Z</time>
      </trkpt>
      <trkpt lat="46.90977" lon="8.56247">
        <ele>772</ele>
        <time>2021-08-10T13:02:51.684Z</time>
      </trkpt>
      <trkpt lat="46.90976" lon="8.56247">
        <ele>772</ele>
        <time>2021-08-10T13:02:52.685Z</time>
      </trkpt>
      <trkpt lat="46.90976" lon="8.56247">
        <ele>773</ele>
        <time>2021-08-10T13:02:53.684Z</time>
      </trkpt>
      <trkpt lat="46.90975" lon="8.56248">
        <ele>774</ele>
        <time>2021-08-10T13:02:54.685Z</time>
      </trkpt>
      <trkpt lat="46.90974" lon="8.56248">
        <ele>774</ele>
        <time>2021-08-10T13:02:55.685Z</time>
      </trkpt>
      <trkpt lat="46.90974" lon="8.56248">
        <ele>774</ele>
        <time>2021-08-10T13:02:56.684Z</time>
      </trkpt>
      <trkpt lat="46.90973" lon="8.56247">
        <ele>774</ele>
        <time>2021-08-10T13:02:57.685Z</time>
      </trkpt>
      <trkpt lat="46.90972" lon="8.56247">
        <ele>774</ele>
        <time>2021-08-10T13:02:58.684Z</time>
      </trkpt>
      <trkpt lat="46.90971" lon="8.56246">
        <ele>775</ele>
        <time>2021-08-10T13:02:59.685Z</time>
      </trkpt>
      <trkpt lat="46.9097" lon="8.56245">
        <ele>775</ele>
        <time>2021-08-10T13:03:00.684Z</time>
      </trkpt>
      <trkpt lat="46.90969" lon="8.56245">
        <ele>775</ele>
        <time>2021-08-10T13:03:01.685Z</time>
      </trkpt>
      <trkpt lat="46.90968" lon="8.56244">
        <ele>775</ele>
        <time>2021-08-10T13:03:02.685Z</time>
      </trkpt>
      <trkpt lat="46.90967" lon="8.56245">
        <ele>775</ele>
        <time>2021-08-10T13:03:03.685Z</time>
      </trkpt>
      <trkpt lat="46.90967" lon="8.56245">
        <ele>776</ele>
        <time>2021-08-10T13:03:04.684Z</time>
      </trkpt>
      <trkpt lat="46.90966" lon="8.56245">
        <ele>776</ele>
        <time>2021-08-10T13:03:05.684Z</time>
      </trkpt>
      <trkpt lat="46.90965" lon="8.56244">
        <ele>776</ele>
        <time>2021-08-10T13:03:12.745Z</time>
      </trkpt>
      <trkpt lat="46.90965" lon="8.56244">
        <ele>776</ele>
        <time>2021-08-10T13:03:13.745Z</time>
      </trkpt>
      <trkpt lat="46.90964" lon="8.56243">
        <ele>776</ele>
        <time>2021-08-10T13:03:14.745Z</time>
      </trkpt>
      <trkpt lat="46.90963" lon="8.56242">
        <ele>776</ele>
        <time>2021-08-10T13:03:15.744Z</time>
      </trkpt>
      <trkpt lat="46.90962" lon="8.56242">
        <ele>776</ele>
        <time>2021-08-10T13:03:16.745Z</time>
      </trkpt>
      <trkpt lat="46.90961" lon="8.56242">
        <ele>776</ele>
        <time>2021-08-10T13:03:17.745Z</time>
      </trkpt>
      <trkpt lat="46.90961" lon="8.56243">
        <ele>775</ele>
        <time>2021-08-10T13:03:18.745Z</time>
      </trkpt>
      <trkpt lat="46.9096" lon="8.56243">
        <ele>775</ele>
        <time>2021-08-10T13:03:19.744Z</time>
      </trkpt>
      <trkpt lat="46.90959" lon="8.56244">
        <ele>775</ele>
        <time>2021-08-10T13:03:20.745Z</time>
      </trkpt>
      <trkpt lat="46.90959" lon="8.56244">
        <ele>775</ele>
        <time>2021-08-10T13:03:21.745Z</time>
      </trkpt>
      <trkpt lat="46.90958" lon="8.56243">
        <ele>775</ele>
        <time>2021-08-10T13:03:22.745Z</time>
      </trkpt>
      <trkpt lat="46.90957" lon="8.56243">
        <ele>775</ele>
        <time>2021-08-10T13:03:23.745Z</time>
      </trkpt>
      <trkpt lat="46.90956" lon="8.56242">
        <ele>775</ele>
        <time>2021-08-10T13:03:24.745Z</time>
      </trkpt>
      <trkpt lat="46.90955" lon="8.56243">
        <ele>775</ele>
        <time>2021-08-10T13:03:25.745Z</time>
      </trkpt>
      <trkpt lat="46.90954" lon="8.56243">
        <ele>775</ele>
        <time>2021-08-10T13:03:26.744Z</time>
      </trkpt>
      <trkpt lat="46.90953" lon="8.56244">
        <ele>776</ele>
        <time>2021-08-10T13:03:27.745Z</time>
      </trkpt>
      <trkpt lat="46.90952" lon="8.56245">
        <ele>776</ele>
        <time>2021-08-10T13:03:28.745Z</time>
      </trkpt>
      <trkpt lat="46.90952" lon="8.56245">
        <ele>777</ele>
        <time>2021-08-10T13:03:29.745Z</time>
      </trkpt>
      <trkpt lat="46.90951" lon="8.56245">
        <ele>777</ele>
        <time>2021-08-10T13:03:30.745Z</time>
      </trkpt>
      <trkpt lat="46.90951" lon="8.56244">
        <ele>777</ele>
        <time>2021-08-10T13:03:31.745Z</time>
      </trkpt>
      <trkpt lat="46.9095" lon="8.56243">
        <ele>777</ele>
        <time>2021-08-10T13:03:32.745Z</time>
      </trkpt>
      <trkpt lat="46.9095" lon="8.56243">
        <ele>778</ele>
        <time>2021-08-10T13:03:33.744Z</time>
      </trkpt>
      <trkpt lat="46.90949" lon="8.56243">
        <ele>778</ele>
        <time>2021-08-10T13:03:34.745Z</time>
      </trkpt>
      <trkpt lat="46.90949" lon="8.56243">
        <ele>778</ele>
        <time>2021-08-10T13:03:35.744Z</time>
      </trkpt>
      <trkpt lat="46.90949" lon="8.56242">
        <ele>778</ele>
        <time>2021-08-10T13:03:36.745Z</time>
      </trkpt>
      <trkpt lat="46.90948" lon="8.56242">
        <ele>778</ele>
        <time>2021-08-10T13:03:37.745Z</time>
      </trkpt>
      <trkpt lat="46.90947" lon="8.56242">
        <ele>778</ele>
        <time>2021-08-10T13:03:38.744Z</time>
      </trkpt>
      <trkpt lat="46.90947" lon="8.56242">
        <ele>777</ele>
        <time>2021-08-10T13:03:39.744Z</time>
      </trkpt>
      <trkpt lat="46.90947" lon="8.56242">
        <ele>777</ele>
        <time>2021-08-10T13:03:40.745Z</time>
      </trkpt>
      <trkpt lat="46.90947" lon="8.56241">
        <ele>776</ele>
        <time>2021-08-10T13:03:41.745Z</time>
      </trkpt>
      <trkpt lat="46.90946" lon="8.5624">
        <ele>776</ele>
        <time>2021-08-10T13:03:42.744Z</time>
      </trkpt>
      <trkpt lat="46.90946" lon="8.5624">
        <ele>776</ele>
        <time>2021-08-10T13:03:43.744Z</time>
      </trkpt>
      <trkpt lat="46.90945" lon="8.56239">
        <ele>775</ele>
        <time>2021-08-10T13:03:44.745Z</time>
      </trkpt>
      <trkpt lat="46.90944" lon="8.56239">
        <ele>775</ele>
        <time>2021-08-10T13:03:45.744Z</time>
      </trkpt>
      <trkpt lat="46.90944" lon="8.56238">
        <ele>775</ele>
        <time>2021-08-10T13:03:46.744Z</time>
      </trkpt>
      <trkpt lat="46.90943" lon="8.56238">
        <ele>775</ele>
        <time>2021-08-10T13:03:47.745Z</time>
      </trkpt>
      <trkpt lat="46.90944" lon="8.56239">
        <ele>775</ele>
        <time>2021-08-10T13:03:48.745Z</time>
      </trkpt>
      <trkpt lat="46.90944" lon="8.5624">
        <ele>774</ele>
        <time>2021-08-10T13:03:49.745Z</time>
      </trkpt>
      <trkpt lat="46.90944" lon="8.5624">
        <ele>774</ele>
        <time>2021-08-10T13:03:50.745Z</time>
      </trkpt>
      <trkpt lat="46.90944" lon="8.56239">
        <ele>774</ele>
        <time>2021-08-10T13:03:51.745Z</time>
      </trkpt>
      <trkpt lat="46.90943" lon="8.56239">
        <ele>774</ele>
        <time>2021-08-10T13:03:52.745Z</time>
      </trkpt>
      <trkpt lat="46.90942" lon="8.56237">
        <ele>774</ele>
        <time>2021-08-10T13:03:53.745Z</time>
      </trkpt>
      <trkpt lat="46.90942" lon="8.56235">
        <ele>774</ele>
        <time>2021-08-10T13:03:55.814Z</time>
      </trkpt>
      <trkpt lat="46.9094" lon="8.56234">
        <ele>774</ele>
        <time>2021-08-10T13:03:56.814Z</time>
      </trkpt>
      <trkpt lat="46.90939" lon="8.56234">
        <ele>774</ele>
        <time>2021-08-10T13:03:57.813Z</time>
      </trkpt>
      <trkpt lat="46.90938" lon="8.56235">
        <ele>773</ele>
        <time>2021-08-10T13:03:58.814Z</time>
      </trkpt>
      <trkpt lat="46.90937" lon="8.56235">
        <ele>774</ele>
        <time>2021-08-10T13:03:59.813Z</time>
      </trkpt>
      <trkpt lat="46.90936" lon="8.56234">
        <ele>774</ele>
        <time>2021-08-10T13:04:00.814Z</time>
      </trkpt>
      <trkpt lat="46.90936" lon="8.56233">
        <ele>774</ele>
        <time>2021-08-10T13:04:01.814Z</time>
      </trkpt>
      <trkpt lat="46.90936" lon="8.56232">
        <ele>774</ele>
        <time>2021-08-10T13:04:02.814Z</time>
      </trkpt>
      <trkpt lat="46.90936" lon="8.5623">
        <ele>773</ele>
        <time>2021-08-10T13:04:03.814Z</time>
      </trkpt>
      <trkpt lat="46.90936" lon="8.56229">
        <ele>773</ele>
        <time>2021-08-10T13:04:04.814Z</time>
      </trkpt>
      <trkpt lat="46.90936" lon="8.56228">
        <ele>773</ele>
        <time>2021-08-10T13:04:05.814Z</time>
      </trkpt>
      <trkpt lat="46.90935" lon="8.56225">
        <ele>773</ele>
        <time>2021-08-10T13:04:06.814Z</time>
      </trkpt>
      <trkpt lat="46.90934" lon="8.56223">
        <ele>773</ele>
        <time>2021-08-10T13:04:07.813Z</time>
      </trkpt>
      <trkpt lat="46.90934" lon="8.56222">
        <ele>773</ele>
        <time>2021-08-10T13:04:08.814Z</time>
      </trkpt>
      <trkpt lat="46.90933" lon="8.5622">
        <ele>773</ele>
        <time>2021-08-10T13:04:09.814Z</time>
      </trkpt>
      <trkpt lat="46.90932" lon="8.56219">
        <ele>773</ele>
        <time>2021-08-10T13:04:10.813Z</time>
      </trkpt>
      <trkpt lat="46.90931" lon="8.56218">
        <ele>774</ele>
        <time>2021-08-10T13:04:11.814Z</time>
      </trkpt>
      <trkpt lat="46.9093" lon="8.56218">
        <ele>775</ele>
        <time>2021-08-10T13:04:12.814Z</time>
      </trkpt>
      <trkpt lat="46.9093" lon="8.56218">
        <ele>776</ele>
        <time>2021-08-10T13:04:13.814Z</time>
      </trkpt>
      <trkpt lat="46.90929" lon="8.56219">
        <ele>777</ele>
        <time>2021-08-10T13:04:14.814Z</time>
      </trkpt>
      <trkpt lat="46.90929" lon="8.56218">
        <ele>777</ele>
        <time>2021-08-10T13:04:15.814Z</time>
      </trkpt>
      <trkpt lat="46.90928" lon="8.56218">
        <ele>777</ele>
        <time>2021-08-10T13:04:16.814Z</time>
      </trkpt>
      <trkpt lat="46.90929" lon="8.56218">
        <ele>777</ele>
        <time>2021-08-10T13:04:17.814Z</time>
      </trkpt>
      <trkpt lat="46.90929" lon="8.56218">
        <ele>777</ele>
        <time>2021-08-10T13:04:18.814Z</time>
      </trkpt>
      <trkpt lat="46.90928" lon="8.56218">
        <ele>777</ele>
        <time>2021-08-10T13:04:19.814Z</time>
      </trkpt>
      <trkpt lat="46.90928" lon="8.56217">
        <ele>778</ele>
        <time>2021-08-10T13:04:20.815Z</time>
      </trkpt>
      <trkpt lat="46.90927" lon="8.56217">
        <ele>779</ele>
        <time>2021-08-10T13:04:21.814Z</time>
      </trkpt>
      <trkpt lat="46.90927" lon="8.56216">
        <ele>779</ele>
        <time>2021-08-10T13:04:22.815Z</time>
      </trkpt>
      <trkpt lat="46.90926" lon="8.56215">
        <ele>779</ele>
        <time>2021-08-10T13:04:23.815Z</time>
      </trkpt>
      <trkpt lat="46.90926" lon="8.56213">
        <ele>780</ele>
        <time>2021-08-10T13:04:24.815Z</time>
      </trkpt>
      <trkpt lat="46.90925" lon="8.56212">
        <ele>780</ele>
        <time>2021-08-10T13:04:25.815Z</time>
      </trkpt>
      <trkpt lat="46.90925" lon="8.56211">
        <ele>781</ele>
        <time>2021-08-10T13:04:26.815Z</time>
      </trkpt>
      <trkpt lat="46.90925" lon="8.5621">
        <ele>782</ele>
        <time>2021-08-10T13:04:27.815Z</time>
      </trkpt>
      <trkpt lat="46.90925" lon="8.5621">
        <ele>782</ele>
        <time>2021-08-10T13:04:31.998Z</time>
      </trkpt>
      <trkpt lat="46.90925" lon="8.5621">
        <ele>782</ele>
        <time>2021-08-10T13:04:32.998Z</time>
      </trkpt>
      <trkpt lat="46.90925" lon="8.56209">
        <ele>783</ele>
        <time>2021-08-10T13:04:33.998Z</time>
      </trkpt>
      <trkpt lat="46.90925" lon="8.56208">
        <ele>783</ele>
        <time>2021-08-10T13:04:34.998Z</time>
      </trkpt>
      <trkpt lat="46.90925" lon="8.56208">
        <ele>783</ele>
        <time>2021-08-10T13:04:35.998Z</time>
      </trkpt>
      <trkpt lat="46.90924" lon="8.56207">
        <ele>783</ele>
        <time>2021-08-10T13:04:36.998Z</time>
      </trkpt>
      <trkpt lat="46.90924" lon="8.56207">
        <ele>783</ele>
        <time>2021-08-10T13:04:37.998Z</time>
      </trkpt>
      <trkpt lat="46.90923" lon="8.56206">
        <ele>784</ele>
        <time>2021-08-10T13:04:38.998Z</time>
      </trkpt>
      <trkpt lat="46.90923" lon="8.56205">
        <ele>785</ele>
        <time>2021-08-10T13:04:39.997Z</time>
      </trkpt>
      <trkpt lat="46.90922" lon="8.56205">
        <ele>785</ele>
        <time>2021-08-10T13:04:40.998Z</time>
      </trkpt>
      <trkpt lat="46.90922" lon="8.56205">
        <ele>786</ele>
        <time>2021-08-10T13:04:41.997Z</time>
      </trkpt>
      <trkpt lat="46.90922" lon="8.56204">
        <ele>786</ele>
        <time>2021-08-10T13:04:42.998Z</time>
      </trkpt>
      <trkpt lat="46.90921" lon="8.56204">
        <ele>786</ele>
        <time>2021-08-10T13:04:43.997Z</time>
      </trkpt>
      <trkpt lat="46.9092" lon="8.56204">
        <ele>786</ele>
        <time>2021-08-10T13:04:44.997Z</time>
      </trkpt>
      <trkpt lat="46.9092" lon="8.56204">
        <ele>786</ele>
        <time>2021-08-10T13:04:45.998Z</time>
      </trkpt>
      <trkpt lat="46.9092" lon="8.56204">
        <ele>785</ele>
        <time>2021-08-10T13:04:46.998Z</time>
      </trkpt>
      <trkpt lat="46.90919" lon="8.56204">
        <ele>785</ele>
        <time>2021-08-10T13:04:47.998Z</time>
      </trkpt>
      <trkpt lat="46.90919" lon="8.56203">
        <ele>786</ele>
        <time>2021-08-10T13:04:48.998Z</time>
      </trkpt>
      <trkpt lat="46.90919" lon="8.56202">
        <ele>786</ele>
        <time>2021-08-10T13:04:49.997Z</time>
      </trkpt>
      <trkpt lat="46.90919" lon="8.56201">
        <ele>787</ele>
        <time>2021-08-10T13:04:50.997Z</time>
      </trkpt>
      <trkpt lat="46.90919" lon="8.562">
        <ele>788</ele>
        <time>2021-08-10T13:04:51.997Z</time>
      </trkpt>
      <trkpt lat="46.90918" lon="8.56199">
        <ele>788</ele>
        <time>2021-08-10T13:04:52.997Z</time>
      </trkpt>
      <trkpt lat="46.90918" lon="8.56198">
        <ele>789</ele>
        <time>2021-08-10T13:04:53.997Z</time>
      </trkpt>
      <trkpt lat="46.90918" lon="8.56197">
        <ele>789</ele>
        <time>2021-08-10T13:04:54.998Z</time>
      </trkpt>
      <trkpt lat="46.90917" lon="8.56197">
        <ele>789</ele>
        <time>2021-08-10T13:04:55.998Z</time>
      </trkpt>
      <trkpt lat="46.90917" lon="8.56196">
        <ele>790</ele>
        <time>2021-08-10T13:04:56.998Z</time>
      </trkpt>
      <trkpt lat="46.90916" lon="8.56195">
        <ele>790</ele>
        <time>2021-08-10T13:04:57.998Z</time>
      </trkpt>
      <trkpt lat="46.90915" lon="8.56194">
        <ele>791</ele>
        <time>2021-08-10T13:04:58.998Z</time>
      </trkpt>
      <trkpt lat="46.90915" lon="8.56194">
        <ele>791</ele>
        <time>2021-08-10T13:04:59.998Z</time>
      </trkpt>
      <trkpt lat="46.90914" lon="8.56193">
        <ele>791</ele>
        <time>2021-08-10T13:05:00.998Z</time>
      </trkpt>
      <trkpt lat="46.90914" lon="8.56193">
        <ele>791</ele>
        <time>2021-08-10T13:05:01.997Z</time>
      </trkpt>
      <trkpt lat="46.90914" lon="8.56193">
        <ele>792</ele>
        <time>2021-08-10T13:05:02.998Z</time>
      </trkpt>
      <trkpt lat="46.90913" lon="8.56192">
        <ele>792</ele>
        <time>2021-08-10T13:05:10.120Z</time>
      </trkpt>
      <trkpt lat="46.90913" lon="8.56192">
        <ele>794</ele>
        <time>2021-08-10T13:05:11.120Z</time>
      </trkpt>
      <trkpt lat="46.90912" lon="8.56191">
        <ele>795</ele>
        <time>2021-08-10T13:05:12.120Z</time>
      </trkpt>
      <trkpt lat="46.90912" lon="8.5619">
        <ele>795</ele>
        <time>2021-08-10T13:05:13.120Z</time>
      </trkpt>
      <trkpt lat="46.90911" lon="8.56189">
        <ele>796</ele>
        <time>2021-08-10T13:05:14.120Z</time>
      </trkpt>
      <trkpt lat="46.9091" lon="8.56188">
        <ele>797</ele>
        <time>2021-08-10T13:05:15.119Z</time>
      </trkpt>
      <trkpt lat="46.9091" lon="8.56187">
        <ele>797</ele>
        <time>2021-08-10T13:05:16.120Z</time>
      </trkpt>
      <trkpt lat="46.90909" lon="8.56187">
        <ele>798</ele>
        <time>2021-08-10T13:05:17.120Z</time>
      </trkpt>
      <trkpt lat="46.90909" lon="8.56188">
        <ele>798</ele>
        <time>2021-08-10T13:05:18.119Z</time>
      </trkpt>
      <trkpt lat="46.90909" lon="8.56188">
        <ele>798</ele>
        <time>2021-08-10T13:05:19.120Z</time>
      </trkpt>
      <trkpt lat="46.90908" lon="8.56187">
        <ele>798</ele>
        <time>2021-08-10T13:05:20.119Z</time>
      </trkpt>
      <trkpt lat="46.90908" lon="8.56186">
        <ele>798</ele>
        <time>2021-08-10T13:05:21.119Z</time>
      </trkpt>
      <trkpt lat="46.90906" lon="8.56186">
        <ele>798</ele>
        <time>2021-08-10T13:05:22.120Z</time>
      </trkpt>
      <trkpt lat="46.90905" lon="8.56184">
        <ele>798</ele>
        <time>2021-08-10T13:05:23.120Z</time>
      </trkpt>
      <trkpt lat="46.90904" lon="8.56184">
        <ele>798</ele>
        <time>2021-08-10T13:05:24.120Z</time>
      </trkpt>
      <trkpt lat="46.90904" lon="8.56183">
        <ele>798</ele>
        <time>2021-08-10T13:05:25.119Z</time>
      </trkpt>
      <trkpt lat="46.90903" lon="8.56182">
        <ele>799</ele>
        <time>2021-08-10T13:05:26.119Z</time>
      </trkpt>
      <trkpt lat="46.90903" lon="8.56181">
        <ele>799</ele>
        <time>2021-08-10T13:05:27.120Z</time>
      </trkpt>
      <trkpt lat="46.90902" lon="8.56181">
        <ele>799</ele>
        <time>2021-08-10T13:05:28.119Z</time>
      </trkpt>
      <trkpt lat="46.90902" lon="8.5618">
        <ele>799</ele>
        <time>2021-08-10T13:05:29.120Z</time>
      </trkpt>
      <trkpt lat="46.90902" lon="8.5618">
        <ele>799</ele>
        <time>2021-08-10T13:05:30.119Z</time>
      </trkpt>
      <trkpt lat="46.90901" lon="8.5618">
        <ele>800</ele>
        <time>2021-08-10T13:05:31.120Z</time>
      </trkpt>
      <trkpt lat="46.90901" lon="8.56179">
        <ele>800</ele>
        <time>2021-08-10T13:05:32.120Z</time>
      </trkpt>
      <trkpt lat="46.909" lon="8.56178">
        <ele>800</ele>
        <time>2021-08-10T13:05:33.119Z</time>
      </trkpt>
      <trkpt lat="46.90899" lon="8.56177">
        <ele>800</ele>
        <time>2021-08-10T13:05:34.120Z</time>
      </trkpt>
      <trkpt lat="46.90899" lon="8.56177">
        <ele>800</ele>
        <time>2021-08-10T13:05:35.120Z</time>
      </trkpt>
      <trkpt lat="46.90898" lon="8.56176">
        <ele>800</ele>
        <time>2021-08-10T13:05:36.120Z</time>
      </trkpt>
      <trkpt lat="46.90898" lon="8.56176">
        <ele>800</ele>
        <time>2021-08-10T13:05:37.120Z</time>
      </trkpt>
      <trkpt lat="46.90897" lon="8.56175">
        <ele>800</ele>
        <time>2021-08-10T13:05:38.120Z</time>
      </trkpt>
      <trkpt lat="46.90897" lon="8.56175">
        <ele>800</ele>
        <time>2021-08-10T13:05:39.120Z</time>
      </trkpt>
      <trkpt lat="46.90896" lon="8.56174">
        <ele>800</ele>
        <time>2021-08-10T13:05:40.120Z</time>
      </trkpt>
      <trkpt lat="46.90896" lon="8.56174">
        <ele>800</ele>
        <time>2021-08-10T13:05:41.119Z</time>
      </trkpt>
      <trkpt lat="46.90895" lon="8.56173">
        <ele>799</ele>
        <time>2021-08-10T13:05:42.120Z</time>
      </trkpt>
      <trkpt lat="46.90895" lon="8.56173">
        <ele>799</ele>
        <time>2021-08-10T13:05:43.119Z</time>
      </trkpt>
      <trkpt lat="46.90894" lon="8.56172">
        <ele>799</ele>
        <time>2021-08-10T13:05:44.120Z</time>
      </trkpt>
      <trkpt lat="46.90893" lon="8.56172">
        <ele>799</ele>
        <time>2021-08-10T13:05:45.120Z</time>
      </trkpt>
      <trkpt lat="46.90893" lon="8.56171">
        <ele>799</ele>
        <time>2021-08-10T13:05:46.119Z</time>
      </trkpt>
      <trkpt lat="46.90892" lon="8.5617">
        <ele>800</ele>
        <time>2021-08-10T13:05:47.120Z</time>
      </trkpt>
      <trkpt lat="46.90891" lon="8.5617">
        <ele>800</ele>
        <time>2021-08-10T13:05:48.120Z</time>
      </trkpt>
      <trkpt lat="46.9089" lon="8.56169">
        <ele>801</ele>
        <time>2021-08-10T13:05:49.119Z</time>
      </trkpt>
      <trkpt lat="46.90889" lon="8.56168">
        <ele>801</ele>
        <time>2021-08-10T13:05:50.120Z</time>
      </trkpt>
      <trkpt lat="46.90888" lon="8.56167">
        <ele>801</ele>
        <time>2021-08-10T13:05:51.120Z</time>
      </trkpt>
      <trkpt lat="46.90887" lon="8.56166">
        <ele>801</ele>
        <time>2021-08-10T13:05:52.119Z</time>
      </trkpt>
      <trkpt lat="46.90886" lon="8.56165">
        <ele>802</ele>
        <time>2021-08-10T13:05:53.119Z</time>
      </trkpt>
      <trkpt lat="46.90886" lon="8.56165">
        <ele>802</ele>
        <time>2021-08-10T13:05:54.119Z</time>
      </trkpt>
      <trkpt lat="46.90885" lon="8.56164">
        <ele>802</ele>
        <time>2021-08-10T13:05:55.120Z</time>
      </trkpt>
      <trkpt lat="46.90883" lon="8.56163">
        <ele>802</ele>
        <time>2021-08-10T13:05:56.120Z</time>
      </trkpt>
      <trkpt lat="46.90882" lon="8.56162">
        <ele>803</ele>
        <time>2021-08-10T13:05:57.119Z</time>
      </trkpt>
      <trkpt lat="46.90882" lon="8.56161">
        <ele>803</ele>
        <time>2021-08-10T13:05:58.120Z</time>
      </trkpt>
      <trkpt lat="46.90881" lon="8.56161">
        <ele>804</ele>
        <time>2021-08-10T13:05:59.119Z</time>
      </trkpt>
      <trkpt lat="46.90881" lon="8.56161">
        <ele>805</ele>
        <time>2021-08-10T13:06:00.120Z</time>
      </trkpt>
      <trkpt lat="46.9088" lon="8.56161">
        <ele>805</ele>
        <time>2021-08-10T13:06:01.119Z</time>
      </trkpt>
      <trkpt lat="46.9088" lon="8.56162">
        <ele>805</ele>
        <time>2021-08-10T13:06:02.120Z</time>
      </trkpt>
      <trkpt lat="46.90879" lon="8.56162">
        <ele>804</ele>
        <time>2021-08-10T13:06:03.119Z</time>
      </trkpt>
      <trkpt lat="46.90878" lon="8.56162">
        <ele>804</ele>
        <time>2021-08-10T13:06:04.120Z</time>
      </trkpt>
      <trkpt lat="46.90877" lon="8.56162">
        <ele>803</ele>
        <time>2021-08-10T13:06:05.119Z</time>
      </trkpt>
      <trkpt lat="46.90876" lon="8.56162">
        <ele>803</ele>
        <time>2021-08-10T13:06:06.120Z</time>
      </trkpt>
      <trkpt lat="46.90876" lon="8.56161">
        <ele>802</ele>
        <time>2021-08-10T13:06:07.119Z</time>
      </trkpt>
      <trkpt lat="46.90875" lon="8.56161">
        <ele>803</ele>
        <time>2021-08-10T13:06:08.119Z</time>
      </trkpt>
      <trkpt lat="46.90874" lon="8.5616">
        <ele>803</ele>
        <time>2021-08-10T13:06:09.120Z</time>
      </trkpt>
      <trkpt lat="46.90873" lon="8.5616">
        <ele>804</ele>
        <time>2021-08-10T13:06:10.119Z</time>
      </trkpt>
      <trkpt lat="46.90872" lon="8.56159">
        <ele>804</ele>
        <time>2021-08-10T13:06:11.120Z</time>
      </trkpt>
      <trkpt lat="46.90872" lon="8.56159">
        <ele>804</ele>
        <time>2021-08-10T13:06:12.119Z</time>
      </trkpt>
      <trkpt lat="46.90871" lon="8.56159">
        <ele>804</ele>
        <time>2021-08-10T13:06:13.119Z</time>
      </trkpt>
      <trkpt lat="46.9087" lon="8.56159">
        <ele>803</ele>
        <time>2021-08-10T13:06:14.119Z</time>
      </trkpt>
      <trkpt lat="46.9087" lon="8.56159">
        <ele>803</ele>
        <time>2021-08-10T13:06:15.119Z</time>
      </trkpt>
      <trkpt lat="46.90869" lon="8.56158">
        <ele>804</ele>
        <time>2021-08-10T13:06:16.120Z</time>
      </trkpt>
      <trkpt lat="46.90869" lon="8.56158">
        <ele>804</ele>
        <time>2021-08-10T13:06:17.120Z</time>
      </trkpt>
      <trkpt lat="46.90868" lon="8.56158">
        <ele>805</ele>
        <time>2021-08-10T13:06:18.120Z</time>
      </trkpt>
      <trkpt lat="46.90867" lon="8.56158">
        <ele>805</ele>
        <time>2021-08-10T13:06:19.120Z</time>
      </trkpt>
      <trkpt lat="46.90866" lon="8.56158">
        <ele>806</ele>
        <time>2021-08-10T13:06:20.119Z</time>
      </trkpt>
      <trkpt lat="46.90865" lon="8.56158">
        <ele>806</ele>
        <time>2021-08-10T13:06:21.120Z</time>
      </trkpt>
      <trkpt lat="46.90864" lon="8.56158">
        <ele>807</ele>
        <time>2021-08-10T13:06:22.120Z</time>
      </trkpt>
      <trkpt lat="46.90864" lon="8.56158">
        <ele>807</ele>
        <time>2021-08-10T13:06:23.120Z</time>
      </trkpt>
      <trkpt lat="46.90864" lon="8.56158">
        <ele>808</ele>
        <time>2021-08-10T13:06:24.120Z</time>
      </trkpt>
      <trkpt lat="46.90863" lon="8.56157">
        <ele>808</ele>
        <time>2021-08-10T13:06:25.120Z</time>
      </trkpt>
      <trkpt lat="46.90863" lon="8.56157">
        <ele>808</ele>
        <time>2021-08-10T13:06:26.120Z</time>
      </trkpt>
      <trkpt lat="46.90862" lon="8.56157">
        <ele>808</ele>
        <time>2021-08-10T13:06:27.119Z</time>
      </trkpt>
      <trkpt lat="46.90862" lon="8.56157">
        <ele>808</ele>
        <time>2021-08-10T13:06:28.120Z</time>
      </trkpt>
      <trkpt lat="46.90861" lon="8.56157">
        <ele>808</ele>
        <time>2021-08-10T13:06:29.120Z</time>
      </trkpt>
      <trkpt lat="46.9086" lon="8.56157">
        <ele>808</ele>
        <time>2021-08-10T13:06:30.120Z</time>
      </trkpt>
      <trkpt lat="46.90859" lon="8.56157">
        <ele>807</ele>
        <time>2021-08-10T13:06:31.120Z</time>
      </trkpt>
      <trkpt lat="46.90858" lon="8.56156">
        <ele>806</ele>
        <time>2021-08-10T13:06:32.120Z</time>
      </trkpt>
      <trkpt lat="46.90857" lon="8.56155">
        <ele>805</ele>
        <time>2021-08-10T13:06:33.120Z</time>
      </trkpt>
      <trkpt lat="46.90856" lon="8.56155">
        <ele>804</ele>
        <time>2021-08-10T13:06:34.119Z</time>
      </trkpt>
      <trkpt lat="46.90855" lon="8.56155">
        <ele>804</ele>
        <time>2021-08-10T13:06:35.120Z</time>
      </trkpt>
      <trkpt lat="46.90854" lon="8.56155">
        <ele>803</ele>
        <time>2021-08-10T13:06:36.119Z</time>
      </trkpt>
      <trkpt lat="46.90854" lon="8.56156">
        <ele>803</ele>
        <time>2021-08-10T13:06:37.120Z</time>
      </trkpt>
      <trkpt lat="46.90853" lon="8.56156">
        <ele>802</ele>
        <time>2021-08-10T13:06:38.120Z</time>
      </trkpt>
      <trkpt lat="46.90853" lon="8.56155">
        <ele>801</ele>
        <time>2021-08-10T13:06:39.120Z</time>
      </trkpt>
      <trkpt lat="46.90852" lon="8.56155">
        <ele>801</ele>
        <time>2021-08-10T13:06:40.119Z</time>
      </trkpt>
      <trkpt lat="46.90851" lon="8.56154">
        <ele>801</ele>
        <time>2021-08-10T13:06:41.120Z</time>
      </trkpt>
      <trkpt lat="46.90851" lon="8.56153">
        <ele>801</ele>
        <time>2021-08-10T13:06:42.120Z</time>
      </trkpt>
      <trkpt lat="46.90851" lon="8.56153">
        <ele>802</ele>
        <time>2021-08-10T13:06:43.120Z</time>
      </trkpt>
      <trkpt lat="46.9085" lon="8.56153">
        <ele>802</ele>
        <time>2021-08-10T13:06:44.119Z</time>
      </trkpt>
      <trkpt lat="46.90849" lon="8.56153">
        <ele>802</ele>
        <time>2021-08-10T13:06:45.119Z</time>
      </trkpt>
      <trkpt lat="46.90848" lon="8.56152">
        <ele>802</ele>
        <time>2021-08-10T13:06:46.119Z</time>
      </trkpt>
      <trkpt lat="46.90847" lon="8.56152">
        <ele>803</ele>
        <time>2021-08-10T13:06:47.120Z</time>
      </trkpt>
      <trkpt lat="46.90847" lon="8.56151">
        <ele>803</ele>
        <time>2021-08-10T13:06:48.119Z</time>
      </trkpt>
      <trkpt lat="46.90846" lon="8.56151">
        <ele>803</ele>
        <time>2021-08-10T13:06:49.120Z</time>
      </trkpt>
      <trkpt lat="46.90846" lon="8.5615">
        <ele>803</ele>
        <time>2021-08-10T13:06:50.120Z</time>
      </trkpt>
      <trkpt lat="46.90845" lon="8.5615">
        <ele>803</ele>
        <time>2021-08-10T13:06:51.120Z</time>
      </trkpt>
      <trkpt lat="46.90844" lon="8.5615">
        <ele>804</ele>
        <time>2021-08-10T13:06:52.120Z</time>
      </trkpt>
      <trkpt lat="46.90843" lon="8.5615">
        <ele>804</ele>
        <time>2021-08-10T13:06:53.120Z</time>
      </trkpt>
      <trkpt lat="46.90843" lon="8.56149">
        <ele>804</ele>
        <time>2021-08-10T13:06:54.120Z</time>
      </trkpt>
      <trkpt lat="46.90842" lon="8.56149">
        <ele>804</ele>
        <time>2021-08-10T13:06:55.120Z</time>
      </trkpt>
      <trkpt lat="46.90841" lon="8.56149">
        <ele>805</ele>
        <time>2021-08-10T13:06:56.120Z</time>
      </trkpt>
      <trkpt lat="46.90841" lon="8.56149">
        <ele>806</ele>
        <time>2021-08-10T13:06:57.120Z</time>
      </trkpt>
      <trkpt lat="46.9084" lon="8.56149">
        <ele>806</ele>
        <time>2021-08-10T13:06:58.119Z</time>
      </trkpt>
      <trkpt lat="46.9084" lon="8.5615">
        <ele>807</ele>
        <time>2021-08-10T13:06:59.120Z</time>
      </trkpt>
      <trkpt lat="46.9084" lon="8.56151">
        <ele>808</ele>
        <time>2021-08-10T13:07:00.120Z</time>
      </trkpt>
      <trkpt lat="46.9084" lon="8.56152">
        <ele>808</ele>
        <time>2021-08-10T13:07:01.120Z</time>
      </trkpt>
      <trkpt lat="46.90839" lon="8.56152">
        <ele>809</ele>
        <time>2021-08-10T13:07:02.119Z</time>
      </trkpt>
      <trkpt lat="46.90838" lon="8.56152">
        <ele>809</ele>
        <time>2021-08-10T13:07:03.119Z</time>
      </trkpt>
      <trkpt lat="46.90838" lon="8.56152">
        <ele>810</ele>
        <time>2021-08-10T13:07:04.119Z</time>
      </trkpt>
      <trkpt lat="46.90837" lon="8.56151">
        <ele>810</ele>
        <time>2021-08-10T13:07:05.120Z</time>
      </trkpt>
      <trkpt lat="46.90836" lon="8.56151">
        <ele>811</ele>
        <time>2021-08-10T13:07:06.120Z</time>
      </trkpt>
      <trkpt lat="46.90836" lon="8.5615">
        <ele>811</ele>
        <time>2021-08-10T13:07:07.120Z</time>
      </trkpt>
      <trkpt lat="46.90835" lon="8.56149">
        <ele>812</ele>
        <time>2021-08-10T13:07:08.119Z</time>
      </trkpt>
      <trkpt lat="46.90834" lon="8.56148">
        <ele>812</ele>
        <time>2021-08-10T13:07:09.120Z</time>
      </trkpt>
      <trkpt lat="46.90833" lon="8.56147">
        <ele>812</ele>
        <time>2021-08-10T13:07:10.120Z</time>
      </trkpt>
      <trkpt lat="46.90833" lon="8.56147">
        <ele>813</ele>
        <time>2021-08-10T13:07:11.119Z</time>
      </trkpt>
      <trkpt lat="46.90832" lon="8.56147">
        <ele>813</ele>
        <time>2021-08-10T13:07:12.120Z</time>
      </trkpt>
      <trkpt lat="46.90831" lon="8.56146">
        <ele>813</ele>
        <time>2021-08-10T13:07:13.119Z</time>
      </trkpt>
      <trkpt lat="46.9083" lon="8.56146">
        <ele>813</ele>
        <time>2021-08-10T13:07:14.119Z</time>
      </trkpt>
      <trkpt lat="46.9083" lon="8.56145">
        <ele>814</ele>
        <time>2021-08-10T13:07:15.120Z</time>
      </trkpt>
      <trkpt lat="46.90829" lon="8.56144">
        <ele>815</ele>
        <time>2021-08-10T13:07:16.120Z</time>
      </trkpt>
      <trkpt lat="46.90829" lon="8.56143">
        <ele>815</ele>
        <time>2021-08-10T13:07:17.119Z</time>
      </trkpt>
      <trkpt lat="46.90828" lon="8.56142">
        <ele>815</ele>
        <time>2021-08-10T13:07:18.120Z</time>
      </trkpt>
      <trkpt lat="46.90828" lon="8.5614">
        <ele>816</ele>
        <time>2021-08-10T13:07:19.119Z</time>
      </trkpt>
      <trkpt lat="46.90827" lon="8.5614">
        <ele>816</ele>
        <time>2021-08-10T13:07:20.120Z</time>
      </trkpt>
      <trkpt lat="46.90826" lon="8.56139">
        <ele>816</ele>
        <time>2021-08-10T13:07:21.120Z</time>
      </trkpt>
      <trkpt lat="46.90825" lon="8.56139">
        <ele>816</ele>
        <time>2021-08-10T13:07:22.120Z</time>
      </trkpt>
      <trkpt lat="46.90825" lon="8.56139">
        <ele>817</ele>
        <time>2021-08-10T13:07:23.120Z</time>
      </trkpt>
      <trkpt lat="46.90824" lon="8.56138">
        <ele>817</ele>
        <time>2021-08-10T13:07:24.120Z</time>
      </trkpt>
      <trkpt lat="46.90823" lon="8.56136">
        <ele>817</ele>
        <time>2021-08-10T13:07:25.120Z</time>
      </trkpt>
      <trkpt lat="46.90823" lon="8.56136">
        <ele>817</ele>
        <time>2021-08-10T13:07:26.120Z</time>
      </trkpt>
      <trkpt lat="46.90822" lon="8.56136">
        <ele>818</ele>
        <time>2021-08-10T13:07:27.120Z</time>
      </trkpt>
      <trkpt lat="46.90821" lon="8.56135">
        <ele>818</ele>
        <time>2021-08-10T13:07:28.119Z</time>
      </trkpt>
      <trkpt lat="46.90821" lon="8.56135">
        <ele>818</ele>
        <time>2021-08-10T13:07:29.120Z</time>
      </trkpt>
      <trkpt lat="46.9082" lon="8.56135">
        <ele>819</ele>
        <time>2021-08-10T13:07:30.120Z</time>
      </trkpt>
      <trkpt lat="46.9082" lon="8.56134">
        <ele>819</ele>
        <time>2021-08-10T13:07:31.120Z</time>
      </trkpt>
      <trkpt lat="46.90819" lon="8.56132">
        <ele>819</ele>
        <time>2021-08-10T13:07:32.120Z</time>
      </trkpt>
      <trkpt lat="46.90818" lon="8.5613">
        <ele>819</ele>
        <time>2021-08-10T13:07:33.119Z</time>
      </trkpt>
      <trkpt lat="46.90817" lon="8.56129">
        <ele>819</ele>
        <time>2021-08-10T13:07:34.120Z</time>
      </trkpt>
      <trkpt lat="46.90816" lon="8.56128">
        <ele>819</ele>
        <time>2021-08-10T13:07:35.119Z</time>
      </trkpt>
      <trkpt lat="46.90816" lon="8.56128">
        <ele>819</ele>
        <time>2021-08-10T13:07:36.120Z</time>
      </trkpt>
      <trkpt lat="46.90815" lon="8.56128">
        <ele>820</ele>
        <time>2021-08-10T13:07:37.120Z</time>
      </trkpt>
      <trkpt lat="46.90816" lon="8.56129">
        <ele>820</ele>
        <time>2021-08-10T13:07:38.120Z</time>
      </trkpt>
      <trkpt lat="46.90816" lon="8.56129">
        <ele>820</ele>
        <time>2021-08-10T13:07:39.120Z</time>
      </trkpt>
      <trkpt lat="46.90816" lon="8.56128">
        <ele>821</ele>
        <time>2021-08-10T13:07:40.119Z</time>
      </trkpt>
      <trkpt lat="46.90815" lon="8.56128">
        <ele>821</ele>
        <time>2021-08-10T13:07:41.120Z</time>
      </trkpt>
      <trkpt lat="46.90815" lon="8.56128">
        <ele>821</ele>
        <time>2021-08-10T13:07:42.120Z</time>
      </trkpt>
      <trkpt lat="46.90814" lon="8.56128">
        <ele>822</ele>
        <time>2021-08-10T13:07:43.119Z</time>
      </trkpt>
      <trkpt lat="46.90814" lon="8.56128">
        <ele>822</ele>
        <time>2021-08-10T13:07:44.120Z</time>
      </trkpt>
      <trkpt lat="46.90813" lon="8.56127">
        <ele>822</ele>
        <time>2021-08-10T13:07:45.120Z</time>
      </trkpt>
      <trkpt lat="46.90813" lon="8.56127">
        <ele>823</ele>
        <time>2021-08-10T13:07:46.119Z</time>
      </trkpt>
      <trkpt lat="46.90812" lon="8.56127">
        <ele>823</ele>
        <time>2021-08-10T13:07:47.119Z</time>
      </trkpt>
      <trkpt lat="46.90812" lon="8.56127">
        <ele>824</ele>
        <time>2021-08-10T13:07:48.119Z</time>
      </trkpt>
      <trkpt lat="46.90811" lon="8.56127">
        <ele>824</ele>
        <time>2021-08-10T13:07:49.120Z</time>
      </trkpt>
      <trkpt lat="46.9081" lon="8.56126">
        <ele>824</ele>
        <time>2021-08-10T13:07:50.119Z</time>
      </trkpt>
      <trkpt lat="46.9081" lon="8.56126">
        <ele>824</ele>
        <time>2021-08-10T13:07:51.120Z</time>
      </trkpt>
      <trkpt lat="46.90809" lon="8.56126">
        <ele>824</ele>
        <time>2021-08-10T13:07:52.119Z</time>
      </trkpt>
      <trkpt lat="46.90808" lon="8.56125">
        <ele>824</ele>
        <time>2021-08-10T13:07:53.119Z</time>
      </trkpt>
      <trkpt lat="46.90807" lon="8.56124">
        <ele>824</ele>
        <time>2021-08-10T13:07:54.119Z</time>
      </trkpt>
      <trkpt lat="46.90806" lon="8.56123">
        <ele>823</ele>
        <time>2021-08-10T13:07:55.120Z</time>
      </trkpt>
      <trkpt lat="46.90806" lon="8.56123">
        <ele>823</ele>
        <time>2021-08-10T13:07:56.120Z</time>
      </trkpt>
      <trkpt lat="46.90805" lon="8.56123">
        <ele>822</ele>
        <time>2021-08-10T13:07:57.120Z</time>
      </trkpt>
      <trkpt lat="46.90804" lon="8.56123">
        <ele>822</ele>
        <time>2021-08-10T13:07:58.119Z</time>
      </trkpt>
      <trkpt lat="46.90804" lon="8.56123">
        <ele>822</ele>
        <time>2021-08-10T13:07:59.120Z</time>
      </trkpt>
      <trkpt lat="46.90803" lon="8.56122">
        <ele>821</ele>
        <time>2021-08-10T13:08:56.245Z</time>
      </trkpt>
      <trkpt lat="46.90802" lon="8.56121">
        <ele>821</ele>
        <time>2021-08-10T13:08:57.245Z</time>
      </trkpt>
      <trkpt lat="46.90802" lon="8.5612">
        <ele>821</ele>
        <time>2021-08-10T13:08:58.245Z</time>
      </trkpt>
      <trkpt lat="46.90801" lon="8.5612">
        <ele>821</ele>
        <time>2021-08-10T13:08:59.245Z</time>
      </trkpt>
      <trkpt lat="46.90801" lon="8.5612">
        <ele>820</ele>
        <time>2021-08-10T13:09:11.346Z</time>
      </trkpt>
      <trkpt lat="46.908" lon="8.56119">
        <ele>820</ele>
        <time>2021-08-10T13:09:12.346Z</time>
      </trkpt>
      <trkpt lat="46.90799" lon="8.56119">
        <ele>820</ele>
        <time>2021-08-10T13:09:13.346Z</time>
      </trkpt>
      <trkpt lat="46.90798" lon="8.56119">
        <ele>819</ele>
        <time>2021-08-10T13:09:14.346Z</time>
      </trkpt>
      <trkpt lat="46.90797" lon="8.56119">
        <ele>819</ele>
        <time>2021-08-10T13:09:19.342Z</time>
      </trkpt>
      <trkpt lat="46.90795" lon="8.56118">
        <ele>819</ele>
        <time>2021-08-10T13:09:20.342Z</time>
      </trkpt>
      <trkpt lat="46.90794" lon="8.56117">
        <ele>819</ele>
        <time>2021-08-10T13:09:21.343Z</time>
      </trkpt>
      <trkpt lat="46.90793" lon="8.56116">
        <ele>819</ele>
        <time>2021-08-10T13:09:22.343Z</time>
      </trkpt>
      <trkpt lat="46.90793" lon="8.56116">
        <ele>819</ele>
        <time>2021-08-10T13:09:23.342Z</time>
      </trkpt>
      <trkpt lat="46.90793" lon="8.56115">
        <ele>819</ele>
        <time>2021-08-10T13:09:24.343Z</time>
      </trkpt>
      <trkpt lat="46.90793" lon="8.56114">
        <ele>819</ele>
        <time>2021-08-10T13:09:25.342Z</time>
      </trkpt>
      <trkpt lat="46.90792" lon="8.56114">
        <ele>820</ele>
        <time>2021-08-10T13:09:26.342Z</time>
      </trkpt>
      <trkpt lat="46.90792" lon="8.56113">
        <ele>820</ele>
        <time>2021-08-10T13:09:27.342Z</time>
      </trkpt>
      <trkpt lat="46.90791" lon="8.56114">
        <ele>821</ele>
        <time>2021-08-10T13:09:28.342Z</time>
      </trkpt>
      <trkpt lat="46.9079" lon="8.56114">
        <ele>822</ele>
        <time>2021-08-10T13:09:29.343Z</time>
      </trkpt>
      <trkpt lat="46.90789" lon="8.56114">
        <ele>822</ele>
        <time>2021-08-10T13:09:30.343Z</time>
      </trkpt>
      <trkpt lat="46.90788" lon="8.56113">
        <ele>822</ele>
        <time>2021-08-10T13:09:31.342Z</time>
      </trkpt>
      <trkpt lat="46.90788" lon="8.56113">
        <ele>823</ele>
        <time>2021-08-10T13:09:32.342Z</time>
      </trkpt>
      <trkpt lat="46.90787" lon="8.56112">
        <ele>823</ele>
        <time>2021-08-10T13:09:33.342Z</time>
      </trkpt>
      <trkpt lat="46.90786" lon="8.56112">
        <ele>823</ele>
        <time>2021-08-10T13:09:34.342Z</time>
      </trkpt>
      <trkpt lat="46.90785" lon="8.56112">
        <ele>823</ele>
        <time>2021-08-10T13:09:35.342Z</time>
      </trkpt>
      <trkpt lat="46.90784" lon="8.56111">
        <ele>823</ele>
        <time>2021-08-10T13:09:36.342Z</time>
      </trkpt>
      <trkpt lat="46.90783" lon="8.56111">
        <ele>823</ele>
        <time>2021-08-10T13:09:37.342Z</time>
      </trkpt>
      <trkpt lat="46.90782" lon="8.56109">
        <ele>823</ele>
        <time>2021-08-10T13:09:38.342Z</time>
      </trkpt>
      <trkpt lat="46.90781" lon="8.56109">
        <ele>823</ele>
        <time>2021-08-10T13:09:39.342Z</time>
      </trkpt>
      <trkpt lat="46.9078" lon="8.56108">
        <ele>824</ele>
        <time>2021-08-10T13:09:40.342Z</time>
      </trkpt>
      <trkpt lat="46.90779" lon="8.56107">
        <ele>824</ele>
        <time>2021-08-10T13:09:41.342Z</time>
      </trkpt>
      <trkpt lat="46.90778" lon="8.56106">
        <ele>824</ele>
        <time>2021-08-10T13:09:42.342Z</time>
      </trkpt>
      <trkpt lat="46.90777" lon="8.56106">
        <ele>824</ele>
        <time>2021-08-10T13:09:43.342Z</time>
      </trkpt>
      <trkpt lat="46.90775" lon="8.56105">
        <ele>824</ele>
        <time>2021-08-10T13:09:44.342Z</time>
      </trkpt>
      <trkpt lat="46.90775" lon="8.56104">
        <ele>824</ele>
        <time>2021-08-10T13:09:45.342Z</time>
      </trkpt>
      <trkpt lat="46.90774" lon="8.56103">
        <ele>824</ele>
        <time>2021-08-10T13:09:46.343Z</time>
      </trkpt>
      <trkpt lat="46.90773" lon="8.56103">
        <ele>825</ele>
        <time>2021-08-10T13:09:47.342Z</time>
      </trkpt>
      <trkpt lat="46.90772" lon="8.56102">
        <ele>825</ele>
        <time>2021-08-10T13:09:48.342Z</time>
      </trkpt>
      <trkpt lat="46.90771" lon="8.56102">
        <ele>826</ele>
        <time>2021-08-10T13:09:49.342Z</time>
      </trkpt>
      <trkpt lat="46.9077" lon="8.56101">
        <ele>826</ele>
        <time>2021-08-10T13:09:50.342Z</time>
      </trkpt>
      <trkpt lat="46.90768" lon="8.561">
        <ele>827</ele>
        <time>2021-08-10T13:09:51.342Z</time>
      </trkpt>
      <trkpt lat="46.90767" lon="8.56099">
        <ele>827</ele>
        <time>2021-08-10T13:09:52.343Z</time>
      </trkpt>
      <trkpt lat="46.90766" lon="8.56099">
        <ele>827</ele>
        <time>2021-08-10T13:09:53.343Z</time>
      </trkpt>
      <trkpt lat="46.90765" lon="8.56099">
        <ele>828</ele>
        <time>2021-08-10T13:09:54.342Z</time>
      </trkpt>
      <trkpt lat="46.90764" lon="8.56099">
        <ele>828</ele>
        <time>2021-08-10T13:09:55.342Z</time>
      </trkpt>
      <trkpt lat="46.90763" lon="8.561">
        <ele>828</ele>
        <time>2021-08-10T13:09:56.342Z</time>
      </trkpt>
      <trkpt lat="46.90762" lon="8.561">
        <ele>828</ele>
        <time>2021-08-10T13:09:57.343Z</time>
      </trkpt>
      <trkpt lat="46.90761" lon="8.56099">
        <ele>829</ele>
        <time>2021-08-10T13:09:58.342Z</time>
      </trkpt>
      <trkpt lat="46.90761" lon="8.56099">
        <ele>829</ele>
        <time>2021-08-10T13:09:59.342Z</time>
      </trkpt>
      <trkpt lat="46.90761" lon="8.56099">
        <ele>829</ele>
        <time>2021-08-10T13:10:00.342Z</time>
      </trkpt>
      <trkpt lat="46.90761" lon="8.56099">
        <ele>829</ele>
        <time>2021-08-10T13:10:01.343Z</time>
      </trkpt>
      <trkpt lat="46.9076" lon="8.56099">
        <ele>828</ele>
        <time>2021-08-10T13:10:02.343Z</time>
      </trkpt>
      <trkpt lat="46.90759" lon="8.56098">
        <ele>828</ele>
        <time>2021-08-10T13:10:03.342Z</time>
      </trkpt>
      <trkpt lat="46.90758" lon="8.56097">
        <ele>828</ele>
        <time>2021-08-10T13:10:04.343Z</time>
      </trkpt>
      <trkpt lat="46.90757" lon="8.56097">
        <ele>828</ele>
        <time>2021-08-10T13:10:05.343Z</time>
      </trkpt>
      <trkpt lat="46.90756" lon="8.56098">
        <ele>827</ele>
        <time>2021-08-10T13:10:06.343Z</time>
      </trkpt>
      <trkpt lat="46.90755" lon="8.56098">
        <ele>827</ele>
        <time>2021-08-10T13:10:07.343Z</time>
      </trkpt>
      <trkpt lat="46.90754" lon="8.56097">
        <ele>827</ele>
        <time>2021-08-10T13:10:08.343Z</time>
      </trkpt>
      <trkpt lat="46.90753" lon="8.56096">
        <ele>827</ele>
        <time>2021-08-10T13:10:09.343Z</time>
      </trkpt>
      <trkpt lat="46.90752" lon="8.56096">
        <ele>827</ele>
        <time>2021-08-10T13:10:10.343Z</time>
      </trkpt>
      <trkpt lat="46.90751" lon="8.56096">
        <ele>827</ele>
        <time>2021-08-10T13:10:11.343Z</time>
      </trkpt>
      <trkpt lat="46.9075" lon="8.56095">
        <ele>827</ele>
        <time>2021-08-10T13:10:12.343Z</time>
      </trkpt>
      <trkpt lat="46.90749" lon="8.56095">
        <ele>827</ele>
        <time>2021-08-10T13:10:13.343Z</time>
      </trkpt>
      <trkpt lat="46.90748" lon="8.56095">
        <ele>827</ele>
        <time>2021-08-10T13:10:14.342Z</time>
      </trkpt>
      <trkpt lat="46.90747" lon="8.56096">
        <ele>827</ele>
        <time>2021-08-10T13:10:15.342Z</time>
      </trkpt>
      <trkpt lat="46.90746" lon="8.56097">
        <ele>828</ele>
        <time>2021-08-10T13:10:16.342Z</time>
      </trkpt>
      <trkpt lat="46.90745" lon="8.56098">
        <ele>828</ele>
        <time>2021-08-10T13:10:17.342Z</time>
      </trkpt>
      <trkpt lat="46.90744" lon="8.56098">
        <ele>828</ele>
        <time>2021-08-10T13:10:18.343Z</time>
      </trkpt>
      <trkpt lat="46.90743" lon="8.56098">
        <ele>828</ele>
        <time>2021-08-10T13:10:19.342Z</time>
      </trkpt>
      <trkpt lat="46.90742" lon="8.56097">
        <ele>829</ele>
        <time>2021-08-10T13:10:20.342Z</time>
      </trkpt>
      <trkpt lat="46.90741" lon="8.56097">
        <ele>829</ele>
        <time>2021-08-10T13:10:21.343Z</time>
      </trkpt>
      <trkpt lat="46.9074" lon="8.56096">
        <ele>829</ele>
        <time>2021-08-10T13:10:22.342Z</time>
      </trkpt>
      <trkpt lat="46.90739" lon="8.56095">
        <ele>830</ele>
        <time>2021-08-10T13:10:23.342Z</time>
      </trkpt>
      <trkpt lat="46.90739" lon="8.56095">
        <ele>830</ele>
        <time>2021-08-10T13:10:24.343Z</time>
      </trkpt>
      <trkpt lat="46.90739" lon="8.56095">
        <ele>830</ele>
        <time>2021-08-10T13:10:25.342Z</time>
      </trkpt>
      <trkpt lat="46.90739" lon="8.56095">
        <ele>831</ele>
        <time>2021-08-10T13:10:26.343Z</time>
      </trkpt>
      <trkpt lat="46.9074" lon="8.56096">
        <ele>831</ele>
        <time>2021-08-10T13:10:27.343Z</time>
      </trkpt>
      <trkpt lat="46.9074" lon="8.56096">
        <ele>832</ele>
        <time>2021-08-10T13:10:28.343Z</time>
      </trkpt>
      <trkpt lat="46.90739" lon="8.56096">
        <ele>832</ele>
        <time>2021-08-10T13:10:29.343Z</time>
      </trkpt>
      <trkpt lat="46.90739" lon="8.56096">
        <ele>833</ele>
        <time>2021-08-10T13:10:30.343Z</time>
      </trkpt>
      <trkpt lat="46.90738" lon="8.56096">
        <ele>833</ele>
        <time>2021-08-10T13:10:31.343Z</time>
      </trkpt>
      <trkpt lat="46.90737" lon="8.56095">
        <ele>833</ele>
        <time>2021-08-10T13:10:32.343Z</time>
      </trkpt>
      <trkpt lat="46.90736" lon="8.56095">
        <ele>834</ele>
        <time>2021-08-10T13:10:33.343Z</time>
      </trkpt>
      <trkpt lat="46.90735" lon="8.56094">
        <ele>834</ele>
        <time>2021-08-10T13:10:34.343Z</time>
      </trkpt>
      <trkpt lat="46.90735" lon="8.56094">
        <ele>834</ele>
        <time>2021-08-10T13:10:35.343Z</time>
      </trkpt>
      <trkpt lat="46.90734" lon="8.56094">
        <ele>835</ele>
        <time>2021-08-10T13:10:36.342Z</time>
      </trkpt>
      <trkpt lat="46.90733" lon="8.56095">
        <ele>835</ele>
        <time>2021-08-10T13:10:37.343Z</time>
      </trkpt>
      <trkpt lat="46.90732" lon="8.56094">
        <ele>835</ele>
        <time>2021-08-10T13:10:38.343Z</time>
      </trkpt>
      <trkpt lat="46.90731" lon="8.56094">
        <ele>835</ele>
        <time>2021-08-10T13:10:39.343Z</time>
      </trkpt>
      <trkpt lat="46.9073" lon="8.56093">
        <ele>835</ele>
        <time>2021-08-10T13:10:40.343Z</time>
      </trkpt>
      <trkpt lat="46.9073" lon="8.56093">
        <ele>835</ele>
        <time>2021-08-10T13:10:41.343Z</time>
      </trkpt>
      <trkpt lat="46.90729" lon="8.56092">
        <ele>835</ele>
        <time>2021-08-10T13:10:42.342Z</time>
      </trkpt>
      <trkpt lat="46.90728" lon="8.56091">
        <ele>835</ele>
        <time>2021-08-10T13:10:43.343Z</time>
      </trkpt>
      <trkpt lat="46.90727" lon="8.5609">
        <ele>835</ele>
        <time>2021-08-10T13:10:44.343Z</time>
      </trkpt>
      <trkpt lat="46.90726" lon="8.56088">
        <ele>835</ele>
        <time>2021-08-10T13:10:45.343Z</time>
      </trkpt>
      <trkpt lat="46.90725" lon="8.56088">
        <ele>836</ele>
        <time>2021-08-10T13:10:46.343Z</time>
      </trkpt>
      <trkpt lat="46.90725" lon="8.56087">
        <ele>836</ele>
        <time>2021-08-10T13:10:47.343Z</time>
      </trkpt>
      <trkpt lat="46.90726" lon="8.56087">
        <ele>836</ele>
        <time>2021-08-10T13:10:48.343Z</time>
      </trkpt>
      <trkpt lat="46.90725" lon="8.56086">
        <ele>837</ele>
        <time>2021-08-10T13:10:49.343Z</time>
      </trkpt>
      <trkpt lat="46.90724" lon="8.56085">
        <ele>837</ele>
        <time>2021-08-10T13:10:50.343Z</time>
      </trkpt>
      <trkpt lat="46.90724" lon="8.56084">
        <ele>837</ele>
        <time>2021-08-10T13:10:51.342Z</time>
      </trkpt>
      <trkpt lat="46.90723" lon="8.56083">
        <ele>837</ele>
        <time>2021-08-10T13:10:52.343Z</time>
      </trkpt>
      <trkpt lat="46.90722" lon="8.56083">
        <ele>838</ele>
        <time>2021-08-10T13:10:53.342Z</time>
      </trkpt>
      <trkpt lat="46.90721" lon="8.56082">
        <ele>838</ele>
        <time>2021-08-10T13:10:54.342Z</time>
      </trkpt>
      <trkpt lat="46.9072" lon="8.56082">
        <ele>838</ele>
        <time>2021-08-10T13:10:55.343Z</time>
      </trkpt>
      <trkpt lat="46.9072" lon="8.56081">
        <ele>839</ele>
        <time>2021-08-10T13:10:56.343Z</time>
      </trkpt>
      <trkpt lat="46.90719" lon="8.56081">
        <ele>839</ele>
        <time>2021-08-10T13:10:57.342Z</time>
      </trkpt>
      <trkpt lat="46.90718" lon="8.5608">
        <ele>838</ele>
        <time>2021-08-10T13:10:58.343Z</time>
      </trkpt>
      <trkpt lat="46.90717" lon="8.56079">
        <ele>838</ele>
        <time>2021-08-10T13:10:59.343Z</time>
      </trkpt>
      <trkpt lat="46.90717" lon="8.56078">
        <ele>837</ele>
        <time>2021-08-10T13:11:00.342Z</time>
      </trkpt>
      <trkpt lat="46.90716" lon="8.56078">
        <ele>837</ele>
        <time>2021-08-10T13:11:01.343Z</time>
      </trkpt>
      <trkpt lat="46.90715" lon="8.56078">
        <ele>837</ele>
        <time>2021-08-10T13:11:02.343Z</time>
      </trkpt>
      <trkpt lat="46.90715" lon="8.56077">
        <ele>836</ele>
        <time>2021-08-10T13:11:03.343Z</time>
      </trkpt>
      <trkpt lat="46.90715" lon="8.56076">
        <ele>835</ele>
        <time>2021-08-10T13:11:04.343Z</time>
      </trkpt>
      <trkpt lat="46.90714" lon="8.56076">
        <ele>835</ele>
        <time>2021-08-10T13:11:05.343Z</time>
      </trkpt>
      <trkpt lat="46.90713" lon="8.56076">
        <ele>834</ele>
        <time>2021-08-10T13:11:06.343Z</time>
      </trkpt>
      <trkpt lat="46.90713" lon="8.56076">
        <ele>834</ele>
        <time>2021-08-10T13:11:07.342Z</time>
      </trkpt>
      <trkpt lat="46.90712" lon="8.56076">
        <ele>833</ele>
        <time>2021-08-10T13:11:08.343Z</time>
      </trkpt>
      <trkpt lat="46.90711" lon="8.56076">
        <ele>833</ele>
        <time>2021-08-10T13:11:09.343Z</time>
      </trkpt>
      <trkpt lat="46.9071" lon="8.56075">
        <ele>833</ele>
        <time>2021-08-10T13:11:10.343Z</time>
      </trkpt>
      <trkpt lat="46.90709" lon="8.56074">
        <ele>833</ele>
        <time>2021-08-10T13:11:11.343Z</time>
      </trkpt>
      <trkpt lat="46.90709" lon="8.56073">
        <ele>833</ele>
        <time>2021-08-10T13:11:12.343Z</time>
      </trkpt>
      <trkpt lat="46.90709" lon="8.56072">
        <ele>832</ele>
        <time>2021-08-10T13:11:13.343Z</time>
      </trkpt>
      <trkpt lat="46.90707" lon="8.56071">
        <ele>832</ele>
        <time>2021-08-10T13:11:14.343Z</time>
      </trkpt>
      <trkpt lat="46.90706" lon="8.5607">
        <ele>832</ele>
        <time>2021-08-10T13:11:15.343Z</time>
      </trkpt>
      <trkpt lat="46.90705" lon="8.56069">
        <ele>832</ele>
        <time>2021-08-10T13:11:16.343Z</time>
      </trkpt>
      <trkpt lat="46.90704" lon="8.56069">
        <ele>831</ele>
        <time>2021-08-10T13:11:17.343Z</time>
      </trkpt>
      <trkpt lat="46.90703" lon="8.56068">
        <ele>831</ele>
        <time>2021-08-10T13:11:18.343Z</time>
      </trkpt>
      <trkpt lat="46.90702" lon="8.56068">
        <ele>831</ele>
        <time>2021-08-10T13:11:19.342Z</time>
      </trkpt>
      <trkpt lat="46.90701" lon="8.56067">
        <ele>832</ele>
        <time>2021-08-10T13:11:20.343Z</time>
      </trkpt>
      <trkpt lat="46.907" lon="8.56066">
        <ele>832</ele>
        <time>2021-08-10T13:11:21.343Z</time>
      </trkpt>
      <trkpt lat="46.90698" lon="8.56066">
        <ele>832</ele>
        <time>2021-08-10T13:11:22.343Z</time>
      </trkpt>
      <trkpt lat="46.90698" lon="8.56066">
        <ele>833</ele>
        <time>2021-08-10T13:11:23.343Z</time>
      </trkpt>
      <trkpt lat="46.90697" lon="8.56065">
        <ele>833</ele>
        <time>2021-08-10T13:11:24.343Z</time>
      </trkpt>
      <trkpt lat="46.90696" lon="8.56064">
        <ele>834</ele>
        <time>2021-08-10T13:11:25.342Z</time>
      </trkpt>
      <trkpt lat="46.90696" lon="8.56064">
        <ele>834</ele>
        <time>2021-08-10T13:11:26.343Z</time>
      </trkpt>
      <trkpt lat="46.90695" lon="8.56063">
        <ele>834</ele>
        <time>2021-08-10T13:11:27.342Z</time>
      </trkpt>
      <trkpt lat="46.90695" lon="8.56062">
        <ele>834</ele>
        <time>2021-08-10T13:11:28.343Z</time>
      </trkpt>
      <trkpt lat="46.90695" lon="8.56061">
        <ele>834</ele>
        <time>2021-08-10T13:11:29.342Z</time>
      </trkpt>
      <trkpt lat="46.90695" lon="8.5606">
        <ele>834</ele>
        <time>2021-08-10T13:11:30.343Z</time>
      </trkpt>
      <trkpt lat="46.90694" lon="8.56059">
        <ele>834</ele>
        <time>2021-08-10T13:11:31.342Z</time>
      </trkpt>
      <trkpt lat="46.90693" lon="8.56058">
        <ele>834</ele>
        <time>2021-08-10T13:11:32.343Z</time>
      </trkpt>
      <trkpt lat="46.90693" lon="8.56057">
        <ele>834</ele>
        <time>2021-08-10T13:11:33.343Z</time>
      </trkpt>
      <trkpt lat="46.90692" lon="8.56056">
        <ele>834</ele>
        <time>2021-08-10T13:11:34.343Z</time>
      </trkpt>
      <trkpt lat="46.90692" lon="8.56055">
        <ele>835</ele>
        <time>2021-08-10T13:11:35.343Z</time>
      </trkpt>
      <trkpt lat="46.90692" lon="8.56054">
        <ele>835</ele>
        <time>2021-08-10T13:11:36.343Z</time>
      </trkpt>
      <trkpt lat="46.90692" lon="8.56054">
        <ele>835</ele>
        <time>2021-08-10T13:11:37.342Z</time>
      </trkpt>
      <trkpt lat="46.90691" lon="8.56053">
        <ele>836</ele>
        <time>2021-08-10T13:11:38.342Z</time>
      </trkpt>
      <trkpt lat="46.9069" lon="8.56052">
        <ele>836</ele>
        <time>2021-08-10T13:11:39.342Z</time>
      </trkpt>
      <trkpt lat="46.90689" lon="8.56051">
        <ele>836</ele>
        <time>2021-08-10T13:11:40.343Z</time>
      </trkpt>
      <trkpt lat="46.90689" lon="8.5605">
        <ele>837</ele>
        <time>2021-08-10T13:11:41.342Z</time>
      </trkpt>
      <trkpt lat="46.90688" lon="8.56049">
        <ele>837</ele>
        <time>2021-08-10T13:11:42.343Z</time>
      </trkpt>
      <trkpt lat="46.90688" lon="8.56048">
        <ele>838</ele>
        <time>2021-08-10T13:11:43.343Z</time>
      </trkpt>
      <trkpt lat="46.90687" lon="8.56047">
        <ele>838</ele>
        <time>2021-08-10T13:11:44.342Z</time>
      </trkpt>
      <trkpt lat="46.90686" lon="8.56046">
        <ele>839</ele>
        <time>2021-08-10T13:11:45.343Z</time>
      </trkpt>
      <trkpt lat="46.90686" lon="8.56046">
        <ele>839</ele>
        <time>2021-08-10T13:11:46.342Z</time>
      </trkpt>
      <trkpt lat="46.90685" lon="8.56045">
        <ele>840</ele>
        <time>2021-08-10T13:11:47.343Z</time>
      </trkpt>
      <trkpt lat="46.90685" lon="8.56044">
        <ele>840</ele>
        <time>2021-08-10T13:11:48.343Z</time>
      </trkpt>
      <trkpt lat="46.90685" lon="8.56043">
        <ele>840</ele>
        <time>2021-08-10T13:11:49.343Z</time>
      </trkpt>
      <trkpt lat="46.90684" lon="8.56043">
        <ele>839</ele>
        <time>2021-08-10T13:11:50.343Z</time>
      </trkpt>
      <trkpt lat="46.90684" lon="8.56041">
        <ele>839</ele>
        <time>2021-08-10T13:11:51.342Z</time>
      </trkpt>
      <trkpt lat="46.90684" lon="8.5604">
        <ele>838</ele>
        <time>2021-08-10T13:11:52.343Z</time>
      </trkpt>
      <trkpt lat="46.90684" lon="8.56039">
        <ele>838</ele>
        <time>2021-08-10T13:11:53.343Z</time>
      </trkpt>
      <trkpt lat="46.90683" lon="8.56037">
        <ele>838</ele>
        <time>2021-08-10T13:11:54.343Z</time>
      </trkpt>
      <trkpt lat="46.90683" lon="8.56036">
        <ele>837</ele>
        <time>2021-08-10T13:11:55.343Z</time>
      </trkpt>
      <trkpt lat="46.90681" lon="8.56035">
        <ele>837</ele>
        <time>2021-08-10T13:11:56.342Z</time>
      </trkpt>
      <trkpt lat="46.9068" lon="8.56035">
        <ele>837</ele>
        <time>2021-08-10T13:11:57.342Z</time>
      </trkpt>
      <trkpt lat="46.90679" lon="8.56035">
        <ele>837</ele>
        <time>2021-08-10T13:11:58.342Z</time>
      </trkpt>
      <trkpt lat="46.90678" lon="8.56034">
        <ele>837</ele>
        <time>2021-08-10T13:11:59.343Z</time>
      </trkpt>
      <trkpt lat="46.90677" lon="8.56033">
        <ele>837</ele>
        <time>2021-08-10T13:12:00.342Z</time>
      </trkpt>
      <trkpt lat="46.90677" lon="8.56032">
        <ele>837</ele>
        <time>2021-08-10T13:12:01.343Z</time>
      </trkpt>
      <trkpt lat="46.90676" lon="8.56031">
        <ele>837</ele>
        <time>2021-08-10T13:12:02.343Z</time>
      </trkpt>
      <trkpt lat="46.90675" lon="8.5603">
        <ele>838</ele>
        <time>2021-08-10T13:12:03.343Z</time>
      </trkpt>
      <trkpt lat="46.90675" lon="8.56029">
        <ele>838</ele>
        <time>2021-08-10T13:12:04.343Z</time>
      </trkpt>
      <trkpt lat="46.90674" lon="8.56028">
        <ele>838</ele>
        <time>2021-08-10T13:12:05.342Z</time>
      </trkpt>
      <trkpt lat="46.90673" lon="8.56027">
        <ele>838</ele>
        <time>2021-08-10T13:12:06.342Z</time>
      </trkpt>
      <trkpt lat="46.90673" lon="8.56025">
        <ele>839</ele>
        <time>2021-08-10T13:12:07.343Z</time>
      </trkpt>
      <trkpt lat="46.90672" lon="8.56024">
        <ele>839</ele>
        <time>2021-08-10T13:12:08.343Z</time>
      </trkpt>
      <trkpt lat="46.90671" lon="8.56024">
        <ele>838</ele>
        <time>2021-08-10T13:12:09.342Z</time>
      </trkpt>
      <trkpt lat="46.9067" lon="8.56023">
        <ele>838</ele>
        <time>2021-08-10T13:12:10.343Z</time>
      </trkpt>
      <trkpt lat="46.9067" lon="8.56021">
        <ele>838</ele>
        <time>2021-08-10T13:12:11.343Z</time>
      </trkpt>
      <trkpt lat="46.90671" lon="8.56019">
        <ele>838</ele>
        <time>2021-08-10T13:12:12.342Z</time>
      </trkpt>
      <trkpt lat="46.90671" lon="8.56017">
        <ele>837</ele>
        <time>2021-08-10T13:12:13.343Z</time>
      </trkpt>
      <trkpt lat="46.90672" lon="8.56016">
        <ele>837</ele>
        <time>2021-08-10T13:12:14.343Z</time>
      </trkpt>
      <trkpt lat="46.90672" lon="8.56015">
        <ele>837</ele>
        <time>2021-08-10T13:12:15.343Z</time>
      </trkpt>
      <trkpt lat="46.9067" lon="8.56014">
        <ele>837</ele>
        <time>2021-08-10T13:12:16.343Z</time>
      </trkpt>
      <trkpt lat="46.9067" lon="8.56013">
        <ele>838</ele>
        <time>2021-08-10T13:12:17.342Z</time>
      </trkpt>
      <trkpt lat="46.90669" lon="8.56012">
        <ele>838</ele>
        <time>2021-08-10T13:12:18.343Z</time>
      </trkpt>
      <trkpt lat="46.90667" lon="8.56011">
        <ele>838</ele>
        <time>2021-08-10T13:12:19.343Z</time>
      </trkpt>
      <trkpt lat="46.90666" lon="8.56011">
        <ele>838</ele>
        <time>2021-08-10T13:12:20.343Z</time>
      </trkpt>
      <trkpt lat="46.90666" lon="8.5601">
        <ele>838</ele>
        <time>2021-08-10T13:12:21.343Z</time>
      </trkpt>
      <trkpt lat="46.90665" lon="8.56009">
        <ele>838</ele>
        <time>2021-08-10T13:12:22.343Z</time>
      </trkpt>
      <trkpt lat="46.90665" lon="8.56008">
        <ele>837</ele>
        <time>2021-08-10T13:12:23.342Z</time>
      </trkpt>
      <trkpt lat="46.90665" lon="8.56007">
        <ele>837</ele>
        <time>2021-08-10T13:12:24.343Z</time>
      </trkpt>
      <trkpt lat="46.90665" lon="8.56006">
        <ele>837</ele>
        <time>2021-08-10T13:12:25.343Z</time>
      </trkpt>
      <trkpt lat="46.90664" lon="8.56004">
        <ele>837</ele>
        <time>2021-08-10T13:12:26.343Z</time>
      </trkpt>
      <trkpt lat="46.90664" lon="8.56003">
        <ele>837</ele>
        <time>2021-08-10T13:12:27.342Z</time>
      </trkpt>
      <trkpt lat="46.90663" lon="8.56002">
        <ele>837</ele>
        <time>2021-08-10T13:12:28.342Z</time>
      </trkpt>
      <trkpt lat="46.90663" lon="8.56001">
        <ele>837</ele>
        <time>2021-08-10T13:12:29.343Z</time>
      </trkpt>
      <trkpt lat="46.90662" lon="8.56001">
        <ele>837</ele>
        <time>2021-08-10T13:12:30.343Z</time>
      </trkpt>
      <trkpt lat="46.90661" lon="8.56001">
        <ele>837</ele>
        <time>2021-08-10T13:12:31.343Z</time>
      </trkpt>
      <trkpt lat="46.90661" lon="8.56001">
        <ele>837</ele>
        <time>2021-08-10T13:12:32.343Z</time>
      </trkpt>
      <trkpt lat="46.9066" lon="8.56002">
        <ele>837</ele>
        <time>2021-08-10T13:12:33.343Z</time>
      </trkpt>
      <trkpt lat="46.90659" lon="8.56002">
        <ele>838</ele>
        <time>2021-08-10T13:12:34.343Z</time>
      </trkpt>
      <trkpt lat="46.90658" lon="8.56002">
        <ele>838</ele>
        <time>2021-08-10T13:12:35.343Z</time>
      </trkpt>
      <trkpt lat="46.90657" lon="8.56002">
        <ele>838</ele>
        <time>2021-08-10T13:12:36.343Z</time>
      </trkpt>
      <trkpt lat="46.90656" lon="8.56001">
        <ele>838</ele>
        <time>2021-08-10T13:12:37.343Z</time>
      </trkpt>
      <trkpt lat="46.90656" lon="8.56">
        <ele>838</ele>
        <time>2021-08-10T13:12:38.342Z</time>
      </trkpt>
      <trkpt lat="46.90656" lon="8.55999">
        <ele>838</ele>
        <time>2021-08-10T13:12:39.342Z</time>
      </trkpt>
      <trkpt lat="46.90655" lon="8.55999">
        <ele>838</ele>
        <time>2021-08-10T13:12:40.343Z</time>
      </trkpt>
      <trkpt lat="46.90656" lon="8.55997">
        <ele>838</ele>
        <time>2021-08-10T13:12:41.343Z</time>
      </trkpt>
      <trkpt lat="46.90656" lon="8.55996">
        <ele>838</ele>
        <time>2021-08-10T13:12:42.343Z</time>
      </trkpt>
      <trkpt lat="46.90655" lon="8.55994">
        <ele>838</ele>
        <time>2021-08-10T13:12:43.343Z</time>
      </trkpt>
      <trkpt lat="46.90655" lon="8.55993">
        <ele>837</ele>
        <time>2021-08-10T13:12:44.343Z</time>
      </trkpt>
      <trkpt lat="46.90654" lon="8.55992">
        <ele>837</ele>
        <time>2021-08-10T13:12:45.343Z</time>
      </trkpt>
      <trkpt lat="46.90654" lon="8.55991">
        <ele>837</ele>
        <time>2021-08-10T13:12:46.342Z</time>
      </trkpt>
      <trkpt lat="46.90653" lon="8.55991">
        <ele>837</ele>
        <time>2021-08-10T13:12:47.343Z</time>
      </trkpt>
      <trkpt lat="46.90653" lon="8.55991">
        <ele>837</ele>
        <time>2021-08-10T13:12:48.342Z</time>
      </trkpt>
      <trkpt lat="46.90652" lon="8.5599">
        <ele>837</ele>
        <time>2021-08-10T13:12:49.342Z</time>
      </trkpt>
      <trkpt lat="46.9065" lon="8.5599">
        <ele>837</ele>
        <time>2021-08-10T13:12:50.342Z</time>
      </trkpt>
      <trkpt lat="46.90648" lon="8.55991">
        <ele>837</ele>
        <time>2021-08-10T13:12:51.343Z</time>
      </trkpt>
      <trkpt lat="46.90647" lon="8.55992">
        <ele>837</ele>
        <time>2021-08-10T13:12:52.343Z</time>
      </trkpt>
      <trkpt lat="46.90645" lon="8.5599">
        <ele>837</ele>
        <time>2021-08-10T13:12:53.343Z</time>
      </trkpt>
      <trkpt lat="46.90644" lon="8.55989">
        <ele>837</ele>
        <time>2021-08-10T13:12:54.343Z</time>
      </trkpt>
      <trkpt lat="46.90643" lon="8.55988">
        <ele>837</ele>
        <time>2021-08-10T13:12:55.343Z</time>
      </trkpt>
      <trkpt lat="46.90642" lon="8.55987">
        <ele>837</ele>
        <time>2021-08-10T13:12:56.343Z</time>
      </trkpt>
      <trkpt lat="46.90641" lon="8.55986">
        <ele>837</ele>
        <time>2021-08-10T13:12:57.343Z</time>
      </trkpt>
      <trkpt lat="46.9064" lon="8.55986">
        <ele>837</ele>
        <time>2021-08-10T13:12:58.343Z</time>
      </trkpt>
      <trkpt lat="46.90638" lon="8.55986">
        <ele>837</ele>
        <time>2021-08-10T13:12:59.342Z</time>
      </trkpt>
      <trkpt lat="46.90637" lon="8.55985">
        <ele>837</ele>
        <time>2021-08-10T13:13:00.342Z</time>
      </trkpt>
      <trkpt lat="46.90637" lon="8.55985">
        <ele>837</ele>
        <time>2021-08-10T13:13:01.343Z</time>
      </trkpt>
      <trkpt lat="46.90636" lon="8.55984">
        <ele>837</ele>
        <time>2021-08-10T13:13:02.343Z</time>
      </trkpt>
      <trkpt lat="46.90636" lon="8.55983">
        <ele>837</ele>
        <time>2021-08-10T13:13:03.343Z</time>
      </trkpt>
      <trkpt lat="46.90636" lon="8.5598">
        <ele>837</ele>
        <time>2021-08-10T13:13:04.343Z</time>
      </trkpt>
      <trkpt lat="46.90637" lon="8.55978">
        <ele>836</ele>
        <time>2021-08-10T13:13:05.342Z</time>
      </trkpt>
      <trkpt lat="46.90636" lon="8.55977">
        <ele>836</ele>
        <time>2021-08-10T13:13:06.342Z</time>
      </trkpt>
      <trkpt lat="46.90635" lon="8.55978">
        <ele>835</ele>
        <time>2021-08-10T13:13:07.342Z</time>
      </trkpt>
      <trkpt lat="46.90634" lon="8.55978">
        <ele>835</ele>
        <time>2021-08-10T13:13:08.343Z</time>
      </trkpt>
      <trkpt lat="46.90634" lon="8.55979">
        <ele>835</ele>
        <time>2021-08-10T13:13:09.343Z</time>
      </trkpt>
      <trkpt lat="46.90633" lon="8.5598">
        <ele>836</ele>
        <time>2021-08-10T13:13:10.342Z</time>
      </trkpt>
      <trkpt lat="46.90634" lon="8.5598">
        <ele>836</ele>
        <time>2021-08-10T13:13:11.343Z</time>
      </trkpt>
      <trkpt lat="46.90635" lon="8.5598">
        <ele>836</ele>
        <time>2021-08-10T13:13:12.342Z</time>
      </trkpt>
      <trkpt lat="46.90637" lon="8.55981">
        <ele>836</ele>
        <time>2021-08-10T13:13:13.342Z</time>
      </trkpt>
      <trkpt lat="46.90638" lon="8.55981">
        <ele>836</ele>
        <time>2021-08-10T13:13:14.342Z</time>
      </trkpt>
      <trkpt lat="46.90639" lon="8.55982">
        <ele>835</ele>
        <time>2021-08-10T13:13:15.343Z</time>
      </trkpt>
      <trkpt lat="46.90639" lon="8.55982">
        <ele>835</ele>
        <time>2021-08-10T13:13:16.343Z</time>
      </trkpt>
      <trkpt lat="46.90639" lon="8.55982">
        <ele>835</ele>
        <time>2021-08-10T13:13:17.343Z</time>
      </trkpt>
      <trkpt lat="46.90637" lon="8.55984">
        <ele>835</ele>
        <time>2021-08-10T13:13:18.343Z</time>
      </trkpt>
      <trkpt lat="46.90636" lon="8.55985">
        <ele>835</ele>
        <time>2021-08-10T13:13:19.343Z</time>
      </trkpt>
      <trkpt lat="46.90636" lon="8.55985">
        <ele>836</ele>
        <time>2021-08-10T13:13:20.343Z</time>
      </trkpt>
      <trkpt lat="46.90636" lon="8.55984">
        <ele>836</ele>
        <time>2021-08-10T13:13:21.343Z</time>
      </trkpt>
      <trkpt lat="46.90636" lon="8.55982">
        <ele>837</ele>
        <time>2021-08-10T13:13:22.342Z</time>
      </trkpt>
      <trkpt lat="46.90636" lon="8.55981">
        <ele>837</ele>
        <time>2021-08-10T13:13:23.343Z</time>
      </trkpt>
      <trkpt lat="46.90635" lon="8.5598">
        <ele>837</ele>
        <time>2021-08-10T13:13:24.343Z</time>
      </trkpt>
      <trkpt lat="46.90634" lon="8.55977">
        <ele>838</ele>
        <time>2021-08-10T13:13:25.343Z</time>
      </trkpt>
      <trkpt lat="46.90634" lon="8.55976">
        <ele>838</ele>
        <time>2021-08-10T13:13:26.343Z</time>
      </trkpt>
      <trkpt lat="46.90634" lon="8.55974">
        <ele>838</ele>
        <time>2021-08-10T13:13:27.343Z</time>
      </trkpt>
      <trkpt lat="46.90633" lon="8.55973">
        <ele>838</ele>
        <time>2021-08-10T13:13:28.343Z</time>
      </trkpt>
      <trkpt lat="46.90633" lon="8.55972">
        <ele>838</ele>
        <time>2021-08-10T13:13:29.342Z</time>
      </trkpt>
      <trkpt lat="46.90633" lon="8.55971">
        <ele>839</ele>
        <time>2021-08-10T13:13:30.343Z</time>
      </trkpt>
      <trkpt lat="46.90633" lon="8.55971">
        <ele>839</ele>
        <time>2021-08-10T13:13:31.342Z</time>
      </trkpt>
      <trkpt lat="46.90633" lon="8.55971">
        <ele>839</ele>
        <time>2021-08-10T13:13:32.342Z</time>
      </trkpt>
      <trkpt lat="46.90632" lon="8.55971">
        <ele>839</ele>
        <time>2021-08-10T13:13:33.343Z</time>
      </trkpt>
      <trkpt lat="46.90632" lon="8.55972">
        <ele>840</ele>
        <time>2021-08-10T13:13:34.342Z</time>
      </trkpt>
      <trkpt lat="46.90632" lon="8.55972">
        <ele>840</ele>
        <time>2021-08-10T13:13:35.342Z</time>
      </trkpt>
      <trkpt lat="46.90632" lon="8.55971">
        <ele>840</ele>
        <time>2021-08-10T13:13:36.343Z</time>
      </trkpt>
      <trkpt lat="46.90632" lon="8.5597">
        <ele>841</ele>
        <time>2021-08-10T13:13:37.342Z</time>
      </trkpt>
      <trkpt lat="46.90633" lon="8.5597">
        <ele>841</ele>
        <time>2021-08-10T13:13:38.342Z</time>
      </trkpt>
      <trkpt lat="46.90633" lon="8.5597">
        <ele>841</ele>
        <time>2021-08-10T13:13:39.343Z</time>
      </trkpt>
      <trkpt lat="46.90633" lon="8.5597">
        <ele>841</ele>
        <time>2021-08-10T13:13:40.342Z</time>
      </trkpt>
      <trkpt lat="46.90633" lon="8.55971">
        <ele>841</ele>
        <time>2021-08-10T13:13:41.343Z</time>
      </trkpt>
      <trkpt lat="46.90633" lon="8.55971">
        <ele>841</ele>
        <time>2021-08-10T13:13:42.343Z</time>
      </trkpt>
      <trkpt lat="46.90632" lon="8.55971">
        <ele>842</ele>
        <time>2021-08-10T13:13:43.344Z</time>
      </trkpt>
      <trkpt lat="46.90632" lon="8.55972">
        <ele>842</ele>
        <time>2021-08-10T13:13:44.344Z</time>
      </trkpt>
      <trkpt lat="46.90632" lon="8.55972">
        <ele>843</ele>
        <time>2021-08-10T13:13:45.343Z</time>
      </trkpt>
      <trkpt lat="46.90631" lon="8.55973">
        <ele>843</ele>
        <time>2021-08-10T13:13:46.344Z</time>
      </trkpt>
      <trkpt lat="46.90631" lon="8.55972">
        <ele>843</ele>
        <time>2021-08-10T13:13:47.344Z</time>
      </trkpt>
      <trkpt lat="46.90631" lon="8.55971">
        <ele>844</ele>
        <time>2021-08-10T13:13:48.344Z</time>
      </trkpt>
      <trkpt lat="46.90631" lon="8.55971">
        <ele>844</ele>
        <time>2021-08-10T13:13:49.344Z</time>
      </trkpt>
      <trkpt lat="46.90631" lon="8.55972">
        <ele>844</ele>
        <time>2021-08-10T13:13:50.344Z</time>
      </trkpt>
      <trkpt lat="46.90631" lon="8.55972">
        <ele>844</ele>
        <time>2021-08-10T13:13:51.344Z</time>
      </trkpt>
      <trkpt lat="46.9063" lon="8.55972">
        <ele>845</ele>
        <time>2021-08-10T13:13:52.344Z</time>
      </trkpt>
      <trkpt lat="46.9063" lon="8.55972">
        <ele>845</ele>
        <time>2021-08-10T13:13:53.344Z</time>
      </trkpt>
      <trkpt lat="46.9063" lon="8.55972">
        <ele>845</ele>
        <time>2021-08-10T13:13:54.344Z</time>
      </trkpt>
      <trkpt lat="46.90629" lon="8.55973">
        <ele>845</ele>
        <time>2021-08-10T13:13:55.344Z</time>
      </trkpt>
      <trkpt lat="46.9063" lon="8.55974">
        <ele>845</ele>
        <time>2021-08-10T13:13:56.344Z</time>
      </trkpt>
      <trkpt lat="46.9063" lon="8.55982">
        <ele>846</ele>
        <time>2021-08-10T13:13:57.345Z</time>
      </trkpt>
      <trkpt lat="46.9063" lon="8.55982">
        <ele>846</ele>
        <time>2021-08-10T13:13:58.344Z</time>
      </trkpt>
      <trkpt lat="46.9063" lon="8.55982">
        <ele>845</ele>
        <time>2021-08-10T13:13:59.344Z</time>
      </trkpt>
      <trkpt lat="46.90629" lon="8.55984">
        <ele>845</ele>
        <time>2021-08-10T13:14:00.345Z</time>
      </trkpt>
      <trkpt lat="46.90629" lon="8.55986">
        <ele>845</ele>
        <time>2021-08-10T13:14:01.344Z</time>
      </trkpt>
      <trkpt lat="46.90629" lon="8.55988">
        <ele>844</ele>
        <time>2021-08-10T13:14:02.345Z</time>
      </trkpt>
      <trkpt lat="46.90628" lon="8.5599">
        <ele>844</ele>
        <time>2021-08-10T13:14:03.345Z</time>
      </trkpt>
      <trkpt lat="46.90628" lon="8.55992">
        <ele>843</ele>
        <time>2021-08-10T13:14:04.345Z</time>
      </trkpt>
      <trkpt lat="46.90628" lon="8.55993">
        <ele>843</ele>
        <time>2021-08-10T13:14:05.345Z</time>
      </trkpt>
      <trkpt lat="46.90627" lon="8.55993">
        <ele>842</ele>
        <time>2021-08-10T13:14:06.345Z</time>
      </trkpt>
      <trkpt lat="46.90627" lon="8.55993">
        <ele>842</ele>
        <time>2021-08-10T13:14:07.345Z</time>
      </trkpt>
      <trkpt lat="46.90627" lon="8.55994">
        <ele>842</ele>
        <time>2021-08-10T13:14:08.345Z</time>
      </trkpt>
      <trkpt lat="46.90626" lon="8.55995">
        <ele>842</ele>
        <time>2021-08-10T13:14:09.345Z</time>
      </trkpt>
      <trkpt lat="46.90631" lon="8.55996">
        <ele>842</ele>
        <time>2021-08-10T13:14:10.347Z</time>
      </trkpt>
      <trkpt lat="46.90631" lon="8.55995">
        <ele>842</ele>
        <time>2021-08-10T13:14:11.347Z</time>
      </trkpt>
      <trkpt lat="46.90632" lon="8.55993">
        <ele>843</ele>
        <time>2021-08-10T13:14:12.346Z</time>
      </trkpt>
      <trkpt lat="46.90632" lon="8.5599">
        <ele>843</ele>
        <time>2021-08-10T13:14:13.347Z</time>
      </trkpt>
      <trkpt lat="46.90632" lon="8.55988">
        <ele>843</ele>
        <time>2021-08-10T13:14:14.347Z</time>
      </trkpt>
      <trkpt lat="46.90633" lon="8.55987">
        <ele>843</ele>
        <time>2021-08-10T13:14:15.346Z</time>
      </trkpt>
      <trkpt lat="46.90634" lon="8.55987">
        <ele>843</ele>
        <time>2021-08-10T13:14:16.347Z</time>
      </trkpt>
      <trkpt lat="46.90633" lon="8.55987">
        <ele>842</ele>
        <time>2021-08-10T13:14:17.347Z</time>
      </trkpt>
      <trkpt lat="46.90632" lon="8.55989">
        <ele>842</ele>
        <time>2021-08-10T13:14:31.477Z</time>
      </trkpt>
      <trkpt lat="46.90631" lon="8.5599">
        <ele>842</ele>
        <time>2021-08-10T13:14:32.477Z</time>
      </trkpt>
      <trkpt lat="46.9063" lon="8.55991">
        <ele>841</ele>
        <time>2021-08-10T13:14:46.347Z</time>
      </trkpt>
      <trkpt lat="46.9063" lon="8.55992">
        <ele>841</ele>
        <time>2021-08-10T13:14:50.244Z</time>
      </trkpt>
      <trkpt lat="46.90629" lon="8.55994">
        <ele>840</ele>
        <time>2021-08-10T13:14:51.245Z</time>
      </trkpt>
      <trkpt lat="46.90629" lon="8.55995">
        <ele>839</ele>
        <time>2021-08-10T13:14:52.245Z</time>
      </trkpt>
      <trkpt lat="46.9063" lon="8.55996">
        <ele>839</ele>
        <time>2021-08-10T13:14:53.245Z</time>
      </trkpt>
      <trkpt lat="46.9063" lon="8.55997">
        <ele>838</ele>
        <time>2021-08-10T13:14:54.245Z</time>
      </trkpt>
      <trkpt lat="46.90629" lon="8.55998">
        <ele>838</ele>
        <time>2021-08-10T13:14:55.245Z</time>
      </trkpt>
      <trkpt lat="46.90629" lon="8.56">
        <ele>837</ele>
        <time>2021-08-10T13:15:04.357Z</time>
      </trkpt>
      <trkpt lat="46.90628" lon="8.56001">
        <ele>837</ele>
        <time>2021-08-10T13:15:05.356Z</time>
      </trkpt>
      <trkpt lat="46.90621" lon="8.5601">
        <ele>835</ele>
        <time>2021-08-10T13:15:09.458Z</time>
      </trkpt>
      <trkpt lat="46.90621" lon="8.56008">
        <ele>835</ele>
        <time>2021-08-10T13:15:10.459Z</time>
      </trkpt>
      <trkpt lat="46.90621" lon="8.56006">
        <ele>835</ele>
        <time>2021-08-10T13:15:11.458Z</time>
      </trkpt>
      <trkpt lat="46.90621" lon="8.56004">
        <ele>834</ele>
        <time>2021-08-10T13:15:12.458Z</time>
      </trkpt>
      <trkpt lat="46.9062" lon="8.56003">
        <ele>835</ele>
        <time>2021-08-10T13:15:13.458Z</time>
      </trkpt>
      <trkpt lat="46.90621" lon="8.56001">
        <ele>835</ele>
        <time>2021-08-10T13:15:14.459Z</time>
      </trkpt>
      <trkpt lat="46.90621" lon="8.56001">
        <ele>835</ele>
        <time>2021-08-10T13:15:15.459Z</time>
      </trkpt>
      <trkpt lat="46.90622" lon="8.56001">
        <ele>835</ele>
        <time>2021-08-10T13:15:17.589Z</time>
      </trkpt>
      <trkpt lat="46.90622" lon="8.56002">
        <ele>835</ele>
        <time>2021-08-10T13:15:18.588Z</time>
      </trkpt>
      <trkpt lat="46.90622" lon="8.56003">
        <ele>835</ele>
        <time>2021-08-10T13:15:19.588Z</time>
      </trkpt>
      <trkpt lat="46.90622" lon="8.56004">
        <ele>835</ele>
        <time>2021-08-10T13:15:20.588Z</time>
      </trkpt>
      <trkpt lat="46.90622" lon="8.56005">
        <ele>835</ele>
        <time>2021-08-10T13:15:21.589Z</time>
      </trkpt>
      <trkpt lat="46.90621" lon="8.56006">
        <ele>834</ele>
        <time>2021-08-10T13:15:22.588Z</time>
      </trkpt>
      <trkpt lat="46.90621" lon="8.56005">
        <ele>834</ele>
        <time>2021-08-10T13:15:23.588Z</time>
      </trkpt>
      <trkpt lat="46.9062" lon="8.56">
        <ele>834</ele>
        <time>2021-08-10T13:15:24.588Z</time>
      </trkpt>
      <trkpt lat="46.90619" lon="8.55995">
        <ele>833</ele>
        <time>2021-08-10T13:15:25.588Z</time>
      </trkpt>
      <trkpt lat="46.90618" lon="8.55993">
        <ele>833</ele>
        <time>2021-08-10T13:15:26.588Z</time>
      </trkpt>
      <trkpt lat="46.90619" lon="8.55992">
        <ele>833</ele>
        <time>2021-08-10T13:15:27.589Z</time>
      </trkpt>
      <trkpt lat="46.90618" lon="8.55991">
        <ele>833</ele>
        <time>2021-08-10T13:15:28.588Z</time>
      </trkpt>
      <trkpt lat="46.90619" lon="8.5599">
        <ele>833</ele>
        <time>2021-08-10T13:15:29.588Z</time>
      </trkpt>
      <trkpt lat="46.9062" lon="8.5599">
        <ele>833</ele>
        <time>2021-08-10T13:15:30.588Z</time>
      </trkpt>
      <trkpt lat="46.90621" lon="8.5599">
        <ele>833</ele>
        <time>2021-08-10T13:15:31.589Z</time>
      </trkpt>
      <trkpt lat="46.90621" lon="8.55989">
        <ele>833</ele>
        <time>2021-08-10T13:15:32.588Z</time>
      </trkpt>
      <trkpt lat="46.90622" lon="8.55988">
        <ele>833</ele>
        <time>2021-08-10T13:15:33.589Z</time>
      </trkpt>
      <trkpt lat="46.90623" lon="8.55987">
        <ele>833</ele>
        <time>2021-08-10T13:15:34.589Z</time>
      </trkpt>
      <trkpt lat="46.90624" lon="8.55985">
        <ele>833</ele>
        <time>2021-08-10T13:15:35.588Z</time>
      </trkpt>
      <trkpt lat="46.90625" lon="8.55984">
        <ele>834</ele>
        <time>2021-08-10T13:15:36.588Z</time>
      </trkpt>
      <trkpt lat="46.90627" lon="8.55982">
        <ele>834</ele>
        <time>2021-08-10T13:15:37.588Z</time>
      </trkpt>
      <trkpt lat="46.90628" lon="8.55981">
        <ele>834</ele>
        <time>2021-08-10T13:15:38.588Z</time>
      </trkpt>
      <trkpt lat="46.90629" lon="8.55981">
        <ele>834</ele>
        <time>2021-08-10T13:15:39.588Z</time>
      </trkpt>
      <trkpt lat="46.90629" lon="8.5598">
        <ele>834</ele>
        <time>2021-08-10T13:15:40.588Z</time>
      </trkpt>
      <trkpt lat="46.90628" lon="8.55979">
        <ele>835</ele>
        <time>2021-08-10T13:15:41.588Z</time>
      </trkpt>
      <trkpt lat="46.90627" lon="8.55979">
        <ele>835</ele>
        <time>2021-08-10T13:15:42.588Z</time>
      </trkpt>
      <trkpt lat="46.90626" lon="8.55979">
        <ele>835</ele>
        <time>2021-08-10T13:15:43.588Z</time>
      </trkpt>
      <trkpt lat="46.90625" lon="8.5598">
        <ele>835</ele>
        <time>2021-08-10T13:15:44.588Z</time>
      </trkpt>
      <trkpt lat="46.90625" lon="8.5598">
        <ele>836</ele>
        <time>2021-08-10T13:15:45.589Z</time>
      </trkpt>
      <trkpt lat="46.90625" lon="8.5598">
        <ele>836</ele>
        <time>2021-08-10T13:15:46.588Z</time>
      </trkpt>
      <trkpt lat="46.90626" lon="8.55979">
        <ele>837</ele>
        <time>2021-08-10T13:15:47.588Z</time>
      </trkpt>
      <trkpt lat="46.90626" lon="8.55978">
        <ele>837</ele>
        <time>2021-08-10T13:15:48.590Z</time>
      </trkpt>
      <trkpt lat="46.90627" lon="8.55978">
        <ele>837</ele>
        <time>2021-08-10T13:15:49.590Z</time>
      </trkpt>
      <trkpt lat="46.90627" lon="8.55977">
        <ele>838</ele>
        <time>2021-08-10T13:15:50.589Z</time>
      </trkpt>
      <trkpt lat="46.90627" lon="8.55977">
        <ele>838</ele>
        <time>2021-08-10T13:15:51.590Z</time>
      </trkpt>
      <trkpt lat="46.90628" lon="8.55976">
        <ele>838</ele>
        <time>2021-08-10T13:15:52.590Z</time>
      </trkpt>
      <trkpt lat="46.90634" lon="8.55973">
        <ele>840</ele>
        <time>2021-08-10T13:15:53.590Z</time>
      </trkpt>
      <trkpt lat="46.90636" lon="8.55972">
        <ele>841</ele>
        <time>2021-08-10T13:15:54.590Z</time>
      </trkpt>
      <trkpt lat="46.90637" lon="8.55971">
        <ele>841</ele>
        <time>2021-08-10T13:15:55.590Z</time>
      </trkpt>
      <trkpt lat="46.90638" lon="8.5597">
        <ele>841</ele>
        <time>2021-08-10T13:15:56.590Z</time>
      </trkpt>
      <trkpt lat="46.90638" lon="8.55969">
        <ele>842</ele>
        <time>2021-08-10T13:15:57.589Z</time>
      </trkpt>
      <trkpt lat="46.90638" lon="8.55968">
        <ele>842</ele>
        <time>2021-08-10T13:15:58.589Z</time>
      </trkpt>
      <trkpt lat="46.90638" lon="8.55968">
        <ele>842</ele>
        <time>2021-08-10T13:15:59.590Z</time>
      </trkpt>
      <trkpt lat="46.90638" lon="8.55967">
        <ele>843</ele>
        <time>2021-08-10T13:16:00.589Z</time>
      </trkpt>
      <trkpt lat="46.90638" lon="8.55966">
        <ele>843</ele>
        <time>2021-08-10T13:16:01.590Z</time>
      </trkpt>
      <trkpt lat="46.90637" lon="8.55965">
        <ele>844</ele>
        <time>2021-08-10T13:16:02.590Z</time>
      </trkpt>
      <trkpt lat="46.90637" lon="8.55965">
        <ele>845</ele>
        <time>2021-08-10T13:16:03.590Z</time>
      </trkpt>
      <trkpt lat="46.90637" lon="8.55964">
        <ele>846</ele>
        <time>2021-08-10T13:16:04.590Z</time>
      </trkpt>
      <trkpt lat="46.90638" lon="8.55964">
        <ele>847</ele>
        <time>2021-08-10T13:16:05.590Z</time>
      </trkpt>
      <trkpt lat="46.90638" lon="8.55963">
        <ele>848</ele>
        <time>2021-08-10T13:16:06.590Z</time>
      </trkpt>
      <trkpt lat="46.90638" lon="8.55963">
        <ele>849</ele>
        <time>2021-08-10T13:16:07.589Z</time>
      </trkpt>
      <trkpt lat="46.90638" lon="8.55963">
        <ele>850</ele>
        <time>2021-08-10T13:16:08.589Z</time>
      </trkpt>
      <trkpt lat="46.90638" lon="8.55962">
        <ele>851</ele>
        <time>2021-08-10T13:16:09.592Z</time>
      </trkpt>
      <trkpt lat="46.90638" lon="8.55961">
        <ele>852</ele>
        <time>2021-08-10T13:16:10.592Z</time>
      </trkpt>
      <trkpt lat="46.90637" lon="8.5596">
        <ele>852</ele>
        <time>2021-08-10T13:16:11.591Z</time>
      </trkpt>
      <trkpt lat="46.90636" lon="8.5596">
        <ele>852</ele>
        <time>2021-08-10T13:16:12.592Z</time>
      </trkpt>
      <trkpt lat="46.90636" lon="8.55959">
        <ele>853</ele>
        <time>2021-08-10T13:16:13.592Z</time>
      </trkpt>
      <trkpt lat="46.90636" lon="8.55959">
        <ele>852</ele>
        <time>2021-08-10T13:16:14.591Z</time>
      </trkpt>
      <trkpt lat="46.90635" lon="8.55959">
        <ele>852</ele>
        <time>2021-08-10T13:16:15.591Z</time>
      </trkpt>
      <trkpt lat="46.90635" lon="8.55959">
        <ele>851</ele>
        <time>2021-08-10T13:16:16.591Z</time>
      </trkpt>
      <trkpt lat="46.90634" lon="8.55958">
        <ele>851</ele>
        <time>2021-08-10T13:16:17.591Z</time>
      </trkpt>
      <trkpt lat="46.90634" lon="8.55958">
        <ele>850</ele>
        <time>2021-08-10T13:16:18.592Z</time>
      </trkpt>
      <trkpt lat="46.90634" lon="8.55957">
        <ele>850</ele>
        <time>2021-08-10T13:16:19.592Z</time>
      </trkpt>
      <trkpt lat="46.90633" lon="8.55957">
        <ele>850</ele>
        <time>2021-08-10T13:16:20.591Z</time>
      </trkpt>
      <trkpt lat="46.90632" lon="8.55956">
        <ele>850</ele>
        <time>2021-08-10T13:16:21.592Z</time>
      </trkpt>
      <trkpt lat="46.90631" lon="8.55957">
        <ele>850</ele>
        <time>2021-08-10T13:16:22.591Z</time>
      </trkpt>
      <trkpt lat="46.9063" lon="8.55957">
        <ele>850</ele>
        <time>2021-08-10T13:16:23.592Z</time>
      </trkpt>
      <trkpt lat="46.90628" lon="8.55957">
        <ele>850</ele>
        <time>2021-08-10T13:16:24.592Z</time>
      </trkpt>
      <trkpt lat="46.90627" lon="8.55956">
        <ele>850</ele>
        <time>2021-08-10T13:16:25.592Z</time>
      </trkpt>
      <trkpt lat="46.90626" lon="8.55956">
        <ele>850</ele>
        <time>2021-08-10T13:16:26.592Z</time>
      </trkpt>
      <trkpt lat="46.90626" lon="8.55955">
        <ele>850</ele>
        <time>2021-08-10T13:16:27.592Z</time>
      </trkpt>
      <trkpt lat="46.90625" lon="8.55955">
        <ele>851</ele>
        <time>2021-08-10T13:16:28.592Z</time>
      </trkpt>
      <trkpt lat="46.90624" lon="8.55954">
        <ele>851</ele>
        <time>2021-08-10T13:16:29.592Z</time>
      </trkpt>
      <trkpt lat="46.90623" lon="8.55954">
        <ele>852</ele>
        <time>2021-08-10T13:16:30.591Z</time>
      </trkpt>
      <trkpt lat="46.90622" lon="8.55954">
        <ele>852</ele>
        <time>2021-08-10T13:16:31.592Z</time>
      </trkpt>
      <trkpt lat="46.90621" lon="8.55953">
        <ele>853</ele>
        <time>2021-08-10T13:16:32.592Z</time>
      </trkpt>
      <trkpt lat="46.90619" lon="8.55953">
        <ele>853</ele>
        <time>2021-08-10T13:16:33.592Z</time>
      </trkpt>
      <trkpt lat="46.90618" lon="8.55953">
        <ele>854</ele>
        <time>2021-08-10T13:16:34.592Z</time>
      </trkpt>
      <trkpt lat="46.90618" lon="8.55953">
        <ele>854</ele>
        <time>2021-08-10T13:16:35.592Z</time>
      </trkpt>
      <trkpt lat="46.90616" lon="8.55953">
        <ele>855</ele>
        <time>2021-08-10T13:16:36.592Z</time>
      </trkpt>
      <trkpt lat="46.90615" lon="8.55952">
        <ele>855</ele>
        <time>2021-08-10T13:16:37.592Z</time>
      </trkpt>
      <trkpt lat="46.90613" lon="8.55952">
        <ele>856</ele>
        <time>2021-08-10T13:16:38.592Z</time>
      </trkpt>
      <trkpt lat="46.90612" lon="8.55952">
        <ele>856</ele>
        <time>2021-08-10T13:16:39.591Z</time>
      </trkpt>
      <trkpt lat="46.90611" lon="8.55951">
        <ele>857</ele>
        <time>2021-08-10T13:16:40.592Z</time>
      </trkpt>
      <trkpt lat="46.90609" lon="8.55953">
        <ele>857</ele>
        <time>2021-08-10T13:16:41.592Z</time>
      </trkpt>
      <trkpt lat="46.90609" lon="8.55952">
        <ele>858</ele>
        <time>2021-08-10T13:16:42.592Z</time>
      </trkpt>
      <trkpt lat="46.90608" lon="8.55952">
        <ele>858</ele>
        <time>2021-08-10T13:16:43.592Z</time>
      </trkpt>
      <trkpt lat="46.90607" lon="8.55952">
        <ele>858</ele>
        <time>2021-08-10T13:16:44.592Z</time>
      </trkpt>
      <trkpt lat="46.90606" lon="8.55951">
        <ele>859</ele>
        <time>2021-08-10T13:16:45.592Z</time>
      </trkpt>
      <trkpt lat="46.90606" lon="8.55951">
        <ele>859</ele>
        <time>2021-08-10T13:16:46.592Z</time>
      </trkpt>
      <trkpt lat="46.90605" lon="8.5595">
        <ele>859</ele>
        <time>2021-08-10T13:16:47.591Z</time>
      </trkpt>
      <trkpt lat="46.90605" lon="8.55949">
        <ele>860</ele>
        <time>2021-08-10T13:16:48.592Z</time>
      </trkpt>
      <trkpt lat="46.90605" lon="8.55949">
        <ele>860</ele>
        <time>2021-08-10T13:16:49.591Z</time>
      </trkpt>
      <trkpt lat="46.90605" lon="8.55948">
        <ele>860</ele>
        <time>2021-08-10T13:16:50.591Z</time>
      </trkpt>
      <trkpt lat="46.90604" lon="8.55947">
        <ele>861</ele>
        <time>2021-08-10T13:16:51.592Z</time>
      </trkpt>
      <trkpt lat="46.90604" lon="8.55946">
        <ele>861</ele>
        <time>2021-08-10T13:16:52.592Z</time>
      </trkpt>
      <trkpt lat="46.90603" lon="8.55946">
        <ele>861</ele>
        <time>2021-08-10T13:16:53.591Z</time>
      </trkpt>
      <trkpt lat="46.90602" lon="8.55947">
        <ele>862</ele>
        <time>2021-08-10T13:16:54.592Z</time>
      </trkpt>
      <trkpt lat="46.906" lon="8.55949">
        <ele>862</ele>
        <time>2021-08-10T13:16:55.592Z</time>
      </trkpt>
      <trkpt lat="46.90599" lon="8.5595">
        <ele>863</ele>
        <time>2021-08-10T13:16:56.592Z</time>
      </trkpt>
      <trkpt lat="46.90598" lon="8.5595">
        <ele>863</ele>
        <time>2021-08-10T13:16:57.592Z</time>
      </trkpt>
      <trkpt lat="46.90597" lon="8.55949">
        <ele>864</ele>
        <time>2021-08-10T13:16:58.592Z</time>
      </trkpt>
      <trkpt lat="46.90596" lon="8.5595">
        <ele>864</ele>
        <time>2021-08-10T13:16:59.592Z</time>
      </trkpt>
      <trkpt lat="46.90595" lon="8.5595">
        <ele>865</ele>
        <time>2021-08-10T13:17:00.592Z</time>
      </trkpt>
      <trkpt lat="46.90594" lon="8.5595">
        <ele>866</ele>
        <time>2021-08-10T13:17:01.592Z</time>
      </trkpt>
      <trkpt lat="46.90593" lon="8.5595">
        <ele>866</ele>
        <time>2021-08-10T13:17:02.592Z</time>
      </trkpt>
      <trkpt lat="46.90592" lon="8.55949">
        <ele>867</ele>
        <time>2021-08-10T13:17:03.592Z</time>
      </trkpt>
      <trkpt lat="46.90591" lon="8.55949">
        <ele>867</ele>
        <time>2021-08-10T13:17:04.591Z</time>
      </trkpt>
      <trkpt lat="46.90591" lon="8.55949">
        <ele>868</ele>
        <time>2021-08-10T13:17:05.591Z</time>
      </trkpt>
      <trkpt lat="46.90591" lon="8.55949">
        <ele>868</ele>
        <time>2021-08-10T13:17:06.592Z</time>
      </trkpt>
      <trkpt lat="46.9059" lon="8.55949">
        <ele>869</ele>
        <time>2021-08-10T13:17:07.592Z</time>
      </trkpt>
      <trkpt lat="46.9059" lon="8.55947">
        <ele>869</ele>
        <time>2021-08-10T13:17:08.592Z</time>
      </trkpt>
      <trkpt lat="46.9059" lon="8.55946">
        <ele>870</ele>
        <time>2021-08-10T13:17:09.592Z</time>
      </trkpt>
      <trkpt lat="46.9059" lon="8.55945">
        <ele>870</ele>
        <time>2021-08-10T13:17:10.592Z</time>
      </trkpt>
      <trkpt lat="46.90589" lon="8.55944">
        <ele>870</ele>
        <time>2021-08-10T13:17:11.592Z</time>
      </trkpt>
      <trkpt lat="46.90588" lon="8.55943">
        <ele>870</ele>
        <time>2021-08-10T13:17:12.592Z</time>
      </trkpt>
      <trkpt lat="46.90587" lon="8.55944">
        <ele>871</ele>
        <time>2021-08-10T13:17:13.592Z</time>
      </trkpt>
      <trkpt lat="46.90586" lon="8.55943">
        <ele>871</ele>
        <time>2021-08-10T13:17:14.591Z</time>
      </trkpt>
      <trkpt lat="46.90586" lon="8.55943">
        <ele>871</ele>
        <time>2021-08-10T13:17:15.592Z</time>
      </trkpt>
      <trkpt lat="46.90586" lon="8.55941">
        <ele>871</ele>
        <time>2021-08-10T13:17:16.591Z</time>
      </trkpt>
      <trkpt lat="46.90585" lon="8.55941">
        <ele>872</ele>
        <time>2021-08-10T13:17:17.591Z</time>
      </trkpt>
      <trkpt lat="46.90585" lon="8.55941">
        <ele>872</ele>
        <time>2021-08-10T13:17:18.592Z</time>
      </trkpt>
      <trkpt lat="46.90584" lon="8.55941">
        <ele>872</ele>
        <time>2021-08-10T13:17:19.592Z</time>
      </trkpt>
      <trkpt lat="46.90583" lon="8.5594">
        <ele>873</ele>
        <time>2021-08-10T13:17:20.591Z</time>
      </trkpt>
      <trkpt lat="46.90582" lon="8.55939">
        <ele>873</ele>
        <time>2021-08-10T13:17:21.591Z</time>
      </trkpt>
      <trkpt lat="46.90581" lon="8.55938">
        <ele>873</ele>
        <time>2021-08-10T13:17:22.592Z</time>
      </trkpt>
      <trkpt lat="46.9058" lon="8.55938">
        <ele>873</ele>
        <time>2021-08-10T13:17:23.591Z</time>
      </trkpt>
      <trkpt lat="46.90579" lon="8.55939">
        <ele>874</ele>
        <time>2021-08-10T13:17:24.592Z</time>
      </trkpt>
      <trkpt lat="46.90578" lon="8.5594">
        <ele>874</ele>
        <time>2021-08-10T13:17:25.592Z</time>
      </trkpt>
      <trkpt lat="46.90578" lon="8.55941">
        <ele>875</ele>
        <time>2021-08-10T13:17:26.592Z</time>
      </trkpt>
      <trkpt lat="46.90578" lon="8.5594">
        <ele>875</ele>
        <time>2021-08-10T13:17:27.592Z</time>
      </trkpt>
      <trkpt lat="46.90577" lon="8.55939">
        <ele>875</ele>
        <time>2021-08-10T13:17:28.592Z</time>
      </trkpt>
      <trkpt lat="46.90576" lon="8.55939">
        <ele>875</ele>
        <time>2021-08-10T13:17:29.592Z</time>
      </trkpt>
      <trkpt lat="46.90576" lon="8.55939">
        <ele>875</ele>
        <time>2021-08-10T13:17:30.591Z</time>
      </trkpt>
      <trkpt lat="46.90575" lon="8.55939">
        <ele>875</ele>
        <time>2021-08-10T13:17:31.591Z</time>
      </trkpt>
      <trkpt lat="46.90574" lon="8.55939">
        <ele>875</ele>
        <time>2021-08-10T13:17:32.592Z</time>
      </trkpt>
      <trkpt lat="46.90574" lon="8.55938">
        <ele>875</ele>
        <time>2021-08-10T13:17:33.592Z</time>
      </trkpt>
      <trkpt lat="46.90573" lon="8.55937">
        <ele>875</ele>
        <time>2021-08-10T13:17:34.592Z</time>
      </trkpt>
      <trkpt lat="46.90573" lon="8.55938">
        <ele>875</ele>
        <time>2021-08-10T13:17:35.591Z</time>
      </trkpt>
      <trkpt lat="46.90572" lon="8.55937">
        <ele>875</ele>
        <time>2021-08-10T13:17:36.592Z</time>
      </trkpt>
      <trkpt lat="46.90571" lon="8.55937">
        <ele>875</ele>
        <time>2021-08-10T13:17:37.592Z</time>
      </trkpt>
      <trkpt lat="46.90571" lon="8.55937">
        <ele>875</ele>
        <time>2021-08-10T13:17:38.591Z</time>
      </trkpt>
      <trkpt lat="46.9057" lon="8.55936">
        <ele>875</ele>
        <time>2021-08-10T13:17:39.592Z</time>
      </trkpt>
      <trkpt lat="46.90569" lon="8.55936">
        <ele>874</ele>
        <time>2021-08-10T13:17:40.591Z</time>
      </trkpt>
      <trkpt lat="46.90569" lon="8.55936">
        <ele>874</ele>
        <time>2021-08-10T13:17:41.592Z</time>
      </trkpt>
      <trkpt lat="46.90568" lon="8.55935">
        <ele>874</ele>
        <time>2021-08-10T13:17:42.592Z</time>
      </trkpt>
      <trkpt lat="46.90567" lon="8.55935">
        <ele>874</ele>
        <time>2021-08-10T13:17:43.592Z</time>
      </trkpt>
      <trkpt lat="46.90566" lon="8.55934">
        <ele>874</ele>
        <time>2021-08-10T13:17:44.592Z</time>
      </trkpt>
      <trkpt lat="46.90567" lon="8.55933">
        <ele>874</ele>
        <time>2021-08-10T13:17:45.592Z</time>
      </trkpt>
      <trkpt lat="46.90567" lon="8.55932">
        <ele>874</ele>
        <time>2021-08-10T13:17:46.592Z</time>
      </trkpt>
      <trkpt lat="46.90567" lon="8.55931">
        <ele>874</ele>
        <time>2021-08-10T13:17:47.591Z</time>
      </trkpt>
      <trkpt lat="46.90566" lon="8.55931">
        <ele>874</ele>
        <time>2021-08-10T13:17:48.592Z</time>
      </trkpt>
      <trkpt lat="46.90566" lon="8.55931">
        <ele>874</ele>
        <time>2021-08-10T13:17:49.591Z</time>
      </trkpt>
      <trkpt lat="46.90565" lon="8.55932">
        <ele>874</ele>
        <time>2021-08-10T13:17:50.592Z</time>
      </trkpt>
      <trkpt lat="46.90564" lon="8.55932">
        <ele>874</ele>
        <time>2021-08-10T13:17:51.592Z</time>
      </trkpt>
      <trkpt lat="46.90564" lon="8.55933">
        <ele>874</ele>
        <time>2021-08-10T13:17:52.592Z</time>
      </trkpt>
      <trkpt lat="46.90563" lon="8.55933">
        <ele>875</ele>
        <time>2021-08-10T13:17:53.592Z</time>
      </trkpt>
      <trkpt lat="46.90563" lon="8.55933">
        <ele>875</ele>
        <time>2021-08-10T13:17:54.591Z</time>
      </trkpt>
      <trkpt lat="46.90562" lon="8.55932">
        <ele>875</ele>
        <time>2021-08-10T13:17:55.592Z</time>
      </trkpt>
      <trkpt lat="46.90562" lon="8.55932">
        <ele>875</ele>
        <time>2021-08-10T13:17:56.592Z</time>
      </trkpt>
      <trkpt lat="46.90561" lon="8.55932">
        <ele>876</ele>
        <time>2021-08-10T13:17:57.592Z</time>
      </trkpt>
      <trkpt lat="46.90561" lon="8.55932">
        <ele>876</ele>
        <time>2021-08-10T13:17:58.592Z</time>
      </trkpt>
      <trkpt lat="46.9056" lon="8.55932">
        <ele>876</ele>
        <time>2021-08-10T13:17:59.592Z</time>
      </trkpt>
      <trkpt lat="46.9056" lon="8.55933">
        <ele>876</ele>
        <time>2021-08-10T13:18:00.591Z</time>
      </trkpt>
      <trkpt lat="46.90559" lon="8.55933">
        <ele>876</ele>
        <time>2021-08-10T13:18:01.592Z</time>
      </trkpt>
      <trkpt lat="46.90559" lon="8.55932">
        <ele>876</ele>
        <time>2021-08-10T13:18:02.591Z</time>
      </trkpt>
      <trkpt lat="46.90558" lon="8.55931">
        <ele>876</ele>
        <time>2021-08-10T13:18:03.592Z</time>
      </trkpt>
      <trkpt lat="46.90558" lon="8.5593">
        <ele>876</ele>
        <time>2021-08-10T13:18:04.592Z</time>
      </trkpt>
      <trkpt lat="46.90557" lon="8.5593">
        <ele>876</ele>
        <time>2021-08-10T13:18:05.592Z</time>
      </trkpt>
      <trkpt lat="46.90557" lon="8.55929">
        <ele>876</ele>
        <time>2021-08-10T13:18:06.592Z</time>
      </trkpt>
      <trkpt lat="46.90557" lon="8.55928">
        <ele>876</ele>
        <time>2021-08-10T13:18:07.591Z</time>
      </trkpt>
      <trkpt lat="46.90556" lon="8.55927">
        <ele>876</ele>
        <time>2021-08-10T13:18:08.592Z</time>
      </trkpt>
      <trkpt lat="46.90556" lon="8.55926">
        <ele>876</ele>
        <time>2021-08-10T13:18:09.592Z</time>
      </trkpt>
      <trkpt lat="46.90555" lon="8.55925">
        <ele>876</ele>
        <time>2021-08-10T13:18:10.591Z</time>
      </trkpt>
      <trkpt lat="46.90555" lon="8.55924">
        <ele>876</ele>
        <time>2021-08-10T13:18:11.592Z</time>
      </trkpt>
      <trkpt lat="46.90554" lon="8.55924">
        <ele>876</ele>
        <time>2021-08-10T13:18:12.592Z</time>
      </trkpt>
      <trkpt lat="46.90553" lon="8.55923">
        <ele>875</ele>
        <time>2021-08-10T13:18:13.592Z</time>
      </trkpt>
      <trkpt lat="46.90552" lon="8.55923">
        <ele>875</ele>
        <time>2021-08-10T13:18:14.591Z</time>
      </trkpt>
      <trkpt lat="46.90551" lon="8.55923">
        <ele>875</ele>
        <time>2021-08-10T13:18:15.592Z</time>
      </trkpt>
      <trkpt lat="46.9055" lon="8.55923">
        <ele>875</ele>
        <time>2021-08-10T13:18:16.592Z</time>
      </trkpt>
      <trkpt lat="46.90549" lon="8.55925">
        <ele>875</ele>
        <time>2021-08-10T13:18:17.592Z</time>
      </trkpt>
      <trkpt lat="46.90548" lon="8.55925">
        <ele>874</ele>
        <time>2021-08-10T13:18:18.591Z</time>
      </trkpt>
      <trkpt lat="46.90547" lon="8.55925">
        <ele>874</ele>
        <time>2021-08-10T13:18:19.592Z</time>
      </trkpt>
      <trkpt lat="46.90547" lon="8.55924">
        <ele>874</ele>
        <time>2021-08-10T13:18:20.592Z</time>
      </trkpt>
      <trkpt lat="46.90546" lon="8.55924">
        <ele>874</ele>
        <time>2021-08-10T13:18:21.591Z</time>
      </trkpt>
      <trkpt lat="46.90545" lon="8.55923">
        <ele>874</ele>
        <time>2021-08-10T13:18:22.592Z</time>
      </trkpt>
      <trkpt lat="46.90545" lon="8.55922">
        <ele>874</ele>
        <time>2021-08-10T13:18:23.592Z</time>
      </trkpt>
      <trkpt lat="46.90544" lon="8.55922">
        <ele>874</ele>
        <time>2021-08-10T13:18:24.591Z</time>
      </trkpt>
      <trkpt lat="46.90544" lon="8.55921">
        <ele>874</ele>
        <time>2021-08-10T13:18:25.591Z</time>
      </trkpt>
      <trkpt lat="46.90543" lon="8.5592">
        <ele>874</ele>
        <time>2021-08-10T13:18:26.591Z</time>
      </trkpt>
      <trkpt lat="46.90543" lon="8.55919">
        <ele>874</ele>
        <time>2021-08-10T13:18:27.592Z</time>
      </trkpt>
      <trkpt lat="46.90543" lon="8.55918">
        <ele>874</ele>
        <time>2021-08-10T13:18:28.591Z</time>
      </trkpt>
      <trkpt lat="46.90542" lon="8.55916">
        <ele>875</ele>
        <time>2021-08-10T13:18:29.592Z</time>
      </trkpt>
      <trkpt lat="46.90543" lon="8.55914">
        <ele>875</ele>
        <time>2021-08-10T13:18:30.592Z</time>
      </trkpt>
      <trkpt lat="46.90543" lon="8.55912">
        <ele>875</ele>
        <time>2021-08-10T13:18:31.592Z</time>
      </trkpt>
      <trkpt lat="46.90544" lon="8.55908">
        <ele>875</ele>
        <time>2021-08-10T13:18:32.592Z</time>
      </trkpt>
      <trkpt lat="46.90544" lon="8.55906">
        <ele>876</ele>
        <time>2021-08-10T13:18:33.592Z</time>
      </trkpt>
      <trkpt lat="46.90543" lon="8.55905">
        <ele>876</ele>
        <time>2021-08-10T13:18:34.592Z</time>
      </trkpt>
      <trkpt lat="46.90543" lon="8.55904">
        <ele>876</ele>
        <time>2021-08-10T13:18:35.592Z</time>
      </trkpt>
      <trkpt lat="46.90542" lon="8.55903">
        <ele>876</ele>
        <time>2021-08-10T13:18:36.592Z</time>
      </trkpt>
      <trkpt lat="46.90541" lon="8.55903">
        <ele>877</ele>
        <time>2021-08-10T13:18:37.592Z</time>
      </trkpt>
      <trkpt lat="46.90541" lon="8.55903">
        <ele>877</ele>
        <time>2021-08-10T13:18:38.591Z</time>
      </trkpt>
      <trkpt lat="46.9054" lon="8.55902">
        <ele>878</ele>
        <time>2021-08-10T13:18:39.591Z</time>
      </trkpt>
      <trkpt lat="46.90539" lon="8.55902">
        <ele>878</ele>
        <time>2021-08-10T13:18:40.591Z</time>
      </trkpt>
      <trkpt lat="46.90539" lon="8.55901">
        <ele>878</ele>
        <time>2021-08-10T13:18:41.592Z</time>
      </trkpt>
      <trkpt lat="46.90539" lon="8.55899">
        <ele>879</ele>
        <time>2021-08-10T13:18:42.592Z</time>
      </trkpt>
      <trkpt lat="46.90539" lon="8.55897">
        <ele>879</ele>
        <time>2021-08-10T13:18:43.592Z</time>
      </trkpt>
      <trkpt lat="46.90538" lon="8.55896">
        <ele>879</ele>
        <time>2021-08-10T13:18:44.591Z</time>
      </trkpt>
      <trkpt lat="46.90538" lon="8.55895">
        <ele>880</ele>
        <time>2021-08-10T13:18:45.592Z</time>
      </trkpt>
      <trkpt lat="46.90537" lon="8.55894">
        <ele>880</ele>
        <time>2021-08-10T13:18:46.592Z</time>
      </trkpt>
      <trkpt lat="46.90537" lon="8.55893">
        <ele>880</ele>
        <time>2021-08-10T13:18:47.592Z</time>
      </trkpt>
      <trkpt lat="46.90536" lon="8.55893">
        <ele>880</ele>
        <time>2021-08-10T13:18:48.592Z</time>
      </trkpt>
      <trkpt lat="46.90535" lon="8.55893">
        <ele>880</ele>
        <time>2021-08-10T13:18:49.592Z</time>
      </trkpt>
      <trkpt lat="46.90534" lon="8.55893">
        <ele>881</ele>
        <time>2021-08-10T13:18:50.592Z</time>
      </trkpt>
      <trkpt lat="46.90533" lon="8.55892">
        <ele>881</ele>
        <time>2021-08-10T13:18:51.592Z</time>
      </trkpt>
      <trkpt lat="46.90531" lon="8.55893">
        <ele>881</ele>
        <time>2021-08-10T13:18:52.592Z</time>
      </trkpt>
      <trkpt lat="46.9053" lon="8.55894">
        <ele>881</ele>
        <time>2021-08-10T13:18:53.591Z</time>
      </trkpt>
      <trkpt lat="46.90529" lon="8.55895">
        <ele>881</ele>
        <time>2021-08-10T13:18:54.592Z</time>
      </trkpt>
      <trkpt lat="46.90529" lon="8.55895">
        <ele>882</ele>
        <time>2021-08-10T13:18:55.592Z</time>
      </trkpt>
      <trkpt lat="46.90528" lon="8.55895">
        <ele>882</ele>
        <time>2021-08-10T13:18:56.592Z</time>
      </trkpt>
      <trkpt lat="46.90528" lon="8.55894">
        <ele>882</ele>
        <time>2021-08-10T13:18:57.591Z</time>
      </trkpt>
      <trkpt lat="46.90525" lon="8.55897">
        <ele>882</ele>
        <time>2021-08-10T13:18:58.591Z</time>
      </trkpt>
      <trkpt lat="46.90525" lon="8.55897">
        <ele>883</ele>
        <time>2021-08-10T13:18:59.592Z</time>
      </trkpt>
      <trkpt lat="46.90525" lon="8.55896">
        <ele>883</ele>
        <time>2021-08-10T13:19:00.592Z</time>
      </trkpt>
      <trkpt lat="46.90525" lon="8.55895">
        <ele>883</ele>
        <time>2021-08-10T13:19:01.591Z</time>
      </trkpt>
      <trkpt lat="46.90524" lon="8.55895">
        <ele>884</ele>
        <time>2021-08-10T13:19:02.592Z</time>
      </trkpt>
      <trkpt lat="46.90523" lon="8.55894">
        <ele>884</ele>
        <time>2021-08-10T13:19:03.592Z</time>
      </trkpt>
      <trkpt lat="46.90521" lon="8.55894">
        <ele>884</ele>
        <time>2021-08-10T13:19:04.591Z</time>
      </trkpt>
      <trkpt lat="46.9052" lon="8.55895">
        <ele>884</ele>
        <time>2021-08-10T13:19:05.592Z</time>
      </trkpt>
      <trkpt lat="46.90519" lon="8.55894">
        <ele>885</ele>
        <time>2021-08-10T13:19:06.591Z</time>
      </trkpt>
      <trkpt lat="46.90518" lon="8.55894">
        <ele>885</ele>
        <time>2021-08-10T13:19:07.592Z</time>
      </trkpt>
      <trkpt lat="46.90517" lon="8.55894">
        <ele>885</ele>
        <time>2021-08-10T13:19:08.592Z</time>
      </trkpt>
      <trkpt lat="46.90517" lon="8.55893">
        <ele>885</ele>
        <time>2021-08-10T13:19:09.591Z</time>
      </trkpt>
      <trkpt lat="46.90516" lon="8.55892">
        <ele>885</ele>
        <time>2021-08-10T13:19:10.592Z</time>
      </trkpt>
      <trkpt lat="46.90515" lon="8.55891">
        <ele>885</ele>
        <time>2021-08-10T13:19:11.592Z</time>
      </trkpt>
      <trkpt lat="46.90514" lon="8.55891">
        <ele>885</ele>
        <time>2021-08-10T13:19:12.592Z</time>
      </trkpt>
      <trkpt lat="46.90513" lon="8.55892">
        <ele>885</ele>
        <time>2021-08-10T13:19:13.592Z</time>
      </trkpt>
      <trkpt lat="46.90513" lon="8.55893">
        <ele>885</ele>
        <time>2021-08-10T13:19:14.592Z</time>
      </trkpt>
      <trkpt lat="46.90512" lon="8.55893">
        <ele>885</ele>
        <time>2021-08-10T13:19:15.592Z</time>
      </trkpt>
      <trkpt lat="46.90511" lon="8.55893">
        <ele>885</ele>
        <time>2021-08-10T13:19:16.592Z</time>
      </trkpt>
      <trkpt lat="46.90511" lon="8.55891">
        <ele>885</ele>
        <time>2021-08-10T13:19:17.592Z</time>
      </trkpt>
      <trkpt lat="46.9051" lon="8.55891">
        <ele>885</ele>
        <time>2021-08-10T13:19:20.729Z</time>
      </trkpt>
      <trkpt lat="46.9051" lon="8.5589">
        <ele>885</ele>
        <time>2021-08-10T13:19:21.728Z</time>
      </trkpt>
      <trkpt lat="46.90509" lon="8.5589">
        <ele>885</ele>
        <time>2021-08-10T13:19:22.729Z</time>
      </trkpt>
      <trkpt lat="46.90508" lon="8.55891">
        <ele>885</ele>
        <time>2021-08-10T13:19:23.728Z</time>
      </trkpt>
      <trkpt lat="46.90508" lon="8.55891">
        <ele>886</ele>
        <time>2021-08-10T13:19:24.728Z</time>
      </trkpt>
      <trkpt lat="46.90507" lon="8.55892">
        <ele>886</ele>
        <time>2021-08-10T13:19:25.728Z</time>
      </trkpt>
      <trkpt lat="46.90506" lon="8.55893">
        <ele>886</ele>
        <time>2021-08-10T13:19:26.729Z</time>
      </trkpt>
      <trkpt lat="46.90505" lon="8.55893">
        <ele>886</ele>
        <time>2021-08-10T13:19:27.728Z</time>
      </trkpt>
      <trkpt lat="46.90504" lon="8.55894">
        <ele>886</ele>
        <time>2021-08-10T13:19:28.728Z</time>
      </trkpt>
      <trkpt lat="46.90504" lon="8.55893">
        <ele>886</ele>
        <time>2021-08-10T13:19:29.729Z</time>
      </trkpt>
      <trkpt lat="46.90504" lon="8.55891">
        <ele>886</ele>
        <time>2021-08-10T13:19:30.729Z</time>
      </trkpt>
      <trkpt lat="46.90504" lon="8.5589">
        <ele>886</ele>
        <time>2021-08-10T13:19:31.728Z</time>
      </trkpt>
      <trkpt lat="46.90504" lon="8.5589">
        <ele>886</ele>
        <time>2021-08-10T13:19:32.728Z</time>
      </trkpt>
      <trkpt lat="46.90502" lon="8.55893">
        <ele>886</ele>
        <time>2021-08-10T13:19:33.728Z</time>
      </trkpt>
      <trkpt lat="46.905" lon="8.55895">
        <ele>886</ele>
        <time>2021-08-10T13:19:34.729Z</time>
      </trkpt>
      <trkpt lat="46.90499" lon="8.55896">
        <ele>886</ele>
        <time>2021-08-10T13:19:35.728Z</time>
      </trkpt>
      <trkpt lat="46.90498" lon="8.55896">
        <ele>886</ele>
        <time>2021-08-10T13:19:36.728Z</time>
      </trkpt>
      <trkpt lat="46.90497" lon="8.55894">
        <ele>886</ele>
        <time>2021-08-10T13:19:37.728Z</time>
      </trkpt>
      <trkpt lat="46.90497" lon="8.55893">
        <ele>886</ele>
        <time>2021-08-10T13:19:38.728Z</time>
      </trkpt>
      <trkpt lat="46.90497" lon="8.55893">
        <ele>885</ele>
        <time>2021-08-10T13:19:39.728Z</time>
      </trkpt>
      <trkpt lat="46.90496" lon="8.55893">
        <ele>885</ele>
        <time>2021-08-10T13:19:40.728Z</time>
      </trkpt>
      <trkpt lat="46.90496" lon="8.55893">
        <ele>884</ele>
        <time>2021-08-10T13:19:41.728Z</time>
      </trkpt>
      <trkpt lat="46.90495" lon="8.55894">
        <ele>884</ele>
        <time>2021-08-10T13:19:42.728Z</time>
      </trkpt>
      <trkpt lat="46.90494" lon="8.55893">
        <ele>884</ele>
        <time>2021-08-10T13:19:43.728Z</time>
      </trkpt>
      <trkpt lat="46.90493" lon="8.55892">
        <ele>884</ele>
        <time>2021-08-10T13:19:44.728Z</time>
      </trkpt>
      <trkpt lat="46.90492" lon="8.55893">
        <ele>884</ele>
        <time>2021-08-10T13:19:45.728Z</time>
      </trkpt>
      <trkpt lat="46.90491" lon="8.55894">
        <ele>884</ele>
        <time>2021-08-10T13:19:46.728Z</time>
      </trkpt>
      <trkpt lat="46.9049" lon="8.55894">
        <ele>884</ele>
        <time>2021-08-10T13:19:47.728Z</time>
      </trkpt>
      <trkpt lat="46.9049" lon="8.55894">
        <ele>884</ele>
        <time>2021-08-10T13:19:48.728Z</time>
      </trkpt>
      <trkpt lat="46.90489" lon="8.55893">
        <ele>884</ele>
        <time>2021-08-10T13:19:49.728Z</time>
      </trkpt>
      <trkpt lat="46.90489" lon="8.55892">
        <ele>885</ele>
        <time>2021-08-10T13:19:50.729Z</time>
      </trkpt>
      <trkpt lat="46.90488" lon="8.55891">
        <ele>885</ele>
        <time>2021-08-10T13:19:54.866Z</time>
      </trkpt>
      <trkpt lat="46.90488" lon="8.55891">
        <ele>886</ele>
        <time>2021-08-10T13:19:55.866Z</time>
      </trkpt>
      <trkpt lat="46.90487" lon="8.5589">
        <ele>887</ele>
        <time>2021-08-10T13:19:56.866Z</time>
      </trkpt>
      <trkpt lat="46.90486" lon="8.55891">
        <ele>887</ele>
        <time>2021-08-10T13:19:57.867Z</time>
      </trkpt>
      <trkpt lat="46.90486" lon="8.55892">
        <ele>888</ele>
        <time>2021-08-10T13:19:58.866Z</time>
      </trkpt>
      <trkpt lat="46.90486" lon="8.55893">
        <ele>888</ele>
        <time>2021-08-10T13:19:59.867Z</time>
      </trkpt>
      <trkpt lat="46.90485" lon="8.55894">
        <ele>888</ele>
        <time>2021-08-10T13:20:00.866Z</time>
      </trkpt>
      <trkpt lat="46.90484" lon="8.55895">
        <ele>888</ele>
        <time>2021-08-10T13:20:01.866Z</time>
      </trkpt>
      <trkpt lat="46.90482" lon="8.55895">
        <ele>888</ele>
        <time>2021-08-10T13:20:02.867Z</time>
      </trkpt>
      <trkpt lat="46.90482" lon="8.55895">
        <ele>888</ele>
        <time>2021-08-10T13:20:03.866Z</time>
      </trkpt>
      <trkpt lat="46.90481" lon="8.55895">
        <ele>887</ele>
        <time>2021-08-10T13:20:04.867Z</time>
      </trkpt>
      <trkpt lat="46.9048" lon="8.55895">
        <ele>887</ele>
        <time>2021-08-10T13:20:05.866Z</time>
      </trkpt>
      <trkpt lat="46.9048" lon="8.55895">
        <ele>887</ele>
        <time>2021-08-10T13:20:06.867Z</time>
      </trkpt>
      <trkpt lat="46.90479" lon="8.55895">
        <ele>887</ele>
        <time>2021-08-10T13:20:07.867Z</time>
      </trkpt>
      <trkpt lat="46.90478" lon="8.55894">
        <ele>887</ele>
        <time>2021-08-10T13:20:08.866Z</time>
      </trkpt>
      <trkpt lat="46.90477" lon="8.55894">
        <ele>888</ele>
        <time>2021-08-10T13:20:09.867Z</time>
      </trkpt>
      <trkpt lat="46.90477" lon="8.55894">
        <ele>888</ele>
        <time>2021-08-10T13:20:10.866Z</time>
      </trkpt>
      <trkpt lat="46.90477" lon="8.55895">
        <ele>888</ele>
        <time>2021-08-10T13:20:11.866Z</time>
      </trkpt>
      <trkpt lat="46.90476" lon="8.55895">
        <ele>888</ele>
        <time>2021-08-10T13:20:12.867Z</time>
      </trkpt>
      <trkpt lat="46.90475" lon="8.55896">
        <ele>888</ele>
        <time>2021-08-10T13:20:13.867Z</time>
      </trkpt>
      <trkpt lat="46.90474" lon="8.55895">
        <ele>888</ele>
        <time>2021-08-10T13:20:14.866Z</time>
      </trkpt>
      <trkpt lat="46.90473" lon="8.55896">
        <ele>888</ele>
        <time>2021-08-10T13:20:15.867Z</time>
      </trkpt>
      <trkpt lat="46.90472" lon="8.55896">
        <ele>888</ele>
        <time>2021-08-10T13:20:16.867Z</time>
      </trkpt>
      <trkpt lat="46.90472" lon="8.55896">
        <ele>888</ele>
        <time>2021-08-10T13:20:17.867Z</time>
      </trkpt>
      <trkpt lat="46.90471" lon="8.55896">
        <ele>887</ele>
        <time>2021-08-10T13:20:18.867Z</time>
      </trkpt>
      <trkpt lat="46.90471" lon="8.55896">
        <ele>887</ele>
        <time>2021-08-10T13:20:19.866Z</time>
      </trkpt>
      <trkpt lat="46.9047" lon="8.55895">
        <ele>887</ele>
        <time>2021-08-10T13:20:20.867Z</time>
      </trkpt>
      <trkpt lat="46.90469" lon="8.55895">
        <ele>887</ele>
        <time>2021-08-10T13:20:21.867Z</time>
      </trkpt>
      <trkpt lat="46.90469" lon="8.55895">
        <ele>886</ele>
        <time>2021-08-10T13:20:22.867Z</time>
      </trkpt>
      <trkpt lat="46.90468" lon="8.55895">
        <ele>886</ele>
        <time>2021-08-10T13:20:23.867Z</time>
      </trkpt>
      <trkpt lat="46.90467" lon="8.55895">
        <ele>886</ele>
        <time>2021-08-10T13:20:24.867Z</time>
      </trkpt>
      <trkpt lat="46.90467" lon="8.55897">
        <ele>885</ele>
        <time>2021-08-10T13:20:25.867Z</time>
      </trkpt>
      <trkpt lat="46.90466" lon="8.55897">
        <ele>885</ele>
        <time>2021-08-10T13:20:26.867Z</time>
      </trkpt>
      <trkpt lat="46.90465" lon="8.55897">
        <ele>885</ele>
        <time>2021-08-10T13:20:27.866Z</time>
      </trkpt>
      <trkpt lat="46.90464" lon="8.55898">
        <ele>884</ele>
        <time>2021-08-10T13:20:28.866Z</time>
      </trkpt>
      <trkpt lat="46.90464" lon="8.55898">
        <ele>884</ele>
        <time>2021-08-10T13:20:29.867Z</time>
      </trkpt>
      <trkpt lat="46.90463" lon="8.55898">
        <ele>884</ele>
        <time>2021-08-10T13:20:30.867Z</time>
      </trkpt>
      <trkpt lat="46.90462" lon="8.55897">
        <ele>884</ele>
        <time>2021-08-10T13:20:31.867Z</time>
      </trkpt>
      <trkpt lat="46.90461" lon="8.55897">
        <ele>884</ele>
        <time>2021-08-10T13:20:32.867Z</time>
      </trkpt>
      <trkpt lat="46.90461" lon="8.55897">
        <ele>884</ele>
        <time>2021-08-10T13:20:33.867Z</time>
      </trkpt>
      <trkpt lat="46.9046" lon="8.55897">
        <ele>884</ele>
        <time>2021-08-10T13:20:34.867Z</time>
      </trkpt>
      <trkpt lat="46.90459" lon="8.55898">
        <ele>884</ele>
        <time>2021-08-10T13:20:35.867Z</time>
      </trkpt>
      <trkpt lat="46.90459" lon="8.55898">
        <ele>884</ele>
        <time>2021-08-10T13:20:36.866Z</time>
      </trkpt>
      <trkpt lat="46.90458" lon="8.55898">
        <ele>884</ele>
        <time>2021-08-10T13:20:37.866Z</time>
      </trkpt>
      <trkpt lat="46.90457" lon="8.55898">
        <ele>884</ele>
        <time>2021-08-10T13:20:38.867Z</time>
      </trkpt>
      <trkpt lat="46.90457" lon="8.55898">
        <ele>884</ele>
        <time>2021-08-10T13:20:39.866Z</time>
      </trkpt>
      <trkpt lat="46.90456" lon="8.55898">
        <ele>884</ele>
        <time>2021-08-10T13:20:40.866Z</time>
      </trkpt>
      <trkpt lat="46.90456" lon="8.55898">
        <ele>885</ele>
        <time>2021-08-10T13:20:41.866Z</time>
      </trkpt>
      <trkpt lat="46.90455" lon="8.55898">
        <ele>885</ele>
        <time>2021-08-10T13:20:42.867Z</time>
      </trkpt>
      <trkpt lat="46.90454" lon="8.55898">
        <ele>885</ele>
        <time>2021-08-10T13:20:43.867Z</time>
      </trkpt>
      <trkpt lat="46.90453" lon="8.55898">
        <ele>886</ele>
        <time>2021-08-10T13:20:44.867Z</time>
      </trkpt>
      <trkpt lat="46.90453" lon="8.55897">
        <ele>886</ele>
        <time>2021-08-10T13:20:45.867Z</time>
      </trkpt>
      <trkpt lat="46.90452" lon="8.55897">
        <ele>886</ele>
        <time>2021-08-10T13:20:46.867Z</time>
      </trkpt>
      <trkpt lat="46.90451" lon="8.55898">
        <ele>886</ele>
        <time>2021-08-10T13:20:47.866Z</time>
      </trkpt>
      <trkpt lat="46.90451" lon="8.55898">
        <ele>886</ele>
        <time>2021-08-10T13:20:49.942Z</time>
      </trkpt>
      <trkpt lat="46.9045" lon="8.55898">
        <ele>886</ele>
        <time>2021-08-10T13:20:50.942Z</time>
      </trkpt>
      <trkpt lat="46.9045" lon="8.55898">
        <ele>886</ele>
        <time>2021-08-10T13:20:51.941Z</time>
      </trkpt>
      <trkpt lat="46.9045" lon="8.55899">
        <ele>886</ele>
        <time>2021-08-10T13:20:52.942Z</time>
      </trkpt>
      <trkpt lat="46.9045" lon="8.55899">
        <ele>886</ele>
        <time>2021-08-10T13:20:53.941Z</time>
      </trkpt>
      <trkpt lat="46.90448" lon="8.55898">
        <ele>886</ele>
        <time>2021-08-10T13:20:54.942Z</time>
      </trkpt>
      <trkpt lat="46.90447" lon="8.55898">
        <ele>887</ele>
        <time>2021-08-10T13:20:55.942Z</time>
      </trkpt>
      <trkpt lat="46.90446" lon="8.55897">
        <ele>887</ele>
        <time>2021-08-10T13:20:56.941Z</time>
      </trkpt>
      <trkpt lat="46.90445" lon="8.55897">
        <ele>888</ele>
        <time>2021-08-10T13:20:57.942Z</time>
      </trkpt>
      <trkpt lat="46.90445" lon="8.55897">
        <ele>888</ele>
        <time>2021-08-10T13:20:58.941Z</time>
      </trkpt>
      <trkpt lat="46.90444" lon="8.55897">
        <ele>889</ele>
        <time>2021-08-10T13:20:59.941Z</time>
      </trkpt>
      <trkpt lat="46.90444" lon="8.55897">
        <ele>889</ele>
        <time>2021-08-10T13:21:07.001Z</time>
      </trkpt>
      <trkpt lat="46.90444" lon="8.55897">
        <ele>889</ele>
        <time>2021-08-10T13:21:08.000Z</time>
      </trkpt>
      <trkpt lat="46.90443" lon="8.55896">
        <ele>890</ele>
        <time>2021-08-10T13:21:09.002Z</time>
      </trkpt>
      <trkpt lat="46.90442" lon="8.55896">
        <ele>890</ele>
        <time>2021-08-10T13:21:10.002Z</time>
      </trkpt>
      <trkpt lat="46.90441" lon="8.55895">
        <ele>891</ele>
        <time>2021-08-10T13:21:11.002Z</time>
      </trkpt>
      <trkpt lat="46.9044" lon="8.55895">
        <ele>891</ele>
        <time>2021-08-10T13:21:12.002Z</time>
      </trkpt>
      <trkpt lat="46.90439" lon="8.55895">
        <ele>891</ele>
        <time>2021-08-10T13:21:13.002Z</time>
      </trkpt>
      <trkpt lat="46.90438" lon="8.55895">
        <ele>891</ele>
        <time>2021-08-10T13:21:14.002Z</time>
      </trkpt>
      <trkpt lat="46.90437" lon="8.55895">
        <ele>891</ele>
        <time>2021-08-10T13:21:15.002Z</time>
      </trkpt>
      <trkpt lat="46.90436" lon="8.55895">
        <ele>891</ele>
        <time>2021-08-10T13:21:16.001Z</time>
      </trkpt>
      <trkpt lat="46.90436" lon="8.55895">
        <ele>891</ele>
        <time>2021-08-10T13:21:17.002Z</time>
      </trkpt>
      <trkpt lat="46.90435" lon="8.55895">
        <ele>891</ele>
        <time>2021-08-10T13:21:18.001Z</time>
      </trkpt>
      <trkpt lat="46.90435" lon="8.55895">
        <ele>891</ele>
        <time>2021-08-10T13:21:19.002Z</time>
      </trkpt>
      <trkpt lat="46.90434" lon="8.55895">
        <ele>891</ele>
        <time>2021-08-10T13:21:23.089Z</time>
      </trkpt>
      <trkpt lat="46.90433" lon="8.55894">
        <ele>891</ele>
        <time>2021-08-10T13:21:24.090Z</time>
      </trkpt>
      <trkpt lat="46.90433" lon="8.55894">
        <ele>891</ele>
        <time>2021-08-10T13:21:25.089Z</time>
      </trkpt>
      <trkpt lat="46.90432" lon="8.55894">
        <ele>891</ele>
        <time>2021-08-10T13:21:26.089Z</time>
      </trkpt>
      <trkpt lat="46.90432" lon="8.55894">
        <ele>891</ele>
        <time>2021-08-10T13:21:27.090Z</time>
      </trkpt>
      <trkpt lat="46.90431" lon="8.55894">
        <ele>891</ele>
        <time>2021-08-10T13:21:28.089Z</time>
      </trkpt>
      <trkpt lat="46.9043" lon="8.55894">
        <ele>891</ele>
        <time>2021-08-10T13:21:29.090Z</time>
      </trkpt>
      <trkpt lat="46.9043" lon="8.55894">
        <ele>891</ele>
        <time>2021-08-10T13:21:30.090Z</time>
      </trkpt>
      <trkpt lat="46.90429" lon="8.55893">
        <ele>891</ele>
        <time>2021-08-10T13:21:31.090Z</time>
      </trkpt>
      <trkpt lat="46.90428" lon="8.55893">
        <ele>891</ele>
        <time>2021-08-10T13:21:32.089Z</time>
      </trkpt>
      <trkpt lat="46.90427" lon="8.55892">
        <ele>891</ele>
        <time>2021-08-10T13:21:33.090Z</time>
      </trkpt>
      <trkpt lat="46.90426" lon="8.55892">
        <ele>892</ele>
        <time>2021-08-10T13:21:34.090Z</time>
      </trkpt>
      <trkpt lat="46.90425" lon="8.55892">
        <ele>892</ele>
        <time>2021-08-10T13:21:35.090Z</time>
      </trkpt>
      <trkpt lat="46.90424" lon="8.55891">
        <ele>892</ele>
        <time>2021-08-10T13:21:36.090Z</time>
      </trkpt>
      <trkpt lat="46.90423" lon="8.55891">
        <ele>892</ele>
        <time>2021-08-10T13:21:37.090Z</time>
      </trkpt>
      <trkpt lat="46.90422" lon="8.55891">
        <ele>893</ele>
        <time>2021-08-10T13:21:38.090Z</time>
      </trkpt>
      <trkpt lat="46.90422" lon="8.55891">
        <ele>893</ele>
        <time>2021-08-10T13:21:39.089Z</time>
      </trkpt>
      <trkpt lat="46.90421" lon="8.55891">
        <ele>893</ele>
        <time>2021-08-10T13:21:40.089Z</time>
      </trkpt>
      <trkpt lat="46.9042" lon="8.55892">
        <ele>894</ele>
        <time>2021-08-10T13:21:41.090Z</time>
      </trkpt>
      <trkpt lat="46.9042" lon="8.55892">
        <ele>894</ele>
        <time>2021-08-10T13:21:42.089Z</time>
      </trkpt>
      <trkpt lat="46.90419" lon="8.55893">
        <ele>894</ele>
        <time>2021-08-10T13:21:43.090Z</time>
      </trkpt>
      <trkpt lat="46.90419" lon="8.55893">
        <ele>895</ele>
        <time>2021-08-10T13:21:44.090Z</time>
      </trkpt>
      <trkpt lat="46.90418" lon="8.55894">
        <ele>895</ele>
        <time>2021-08-10T13:21:45.090Z</time>
      </trkpt>
      <trkpt lat="46.90418" lon="8.55894">
        <ele>894</ele>
        <time>2021-08-10T13:21:46.090Z</time>
      </trkpt>
      <trkpt lat="46.90418" lon="8.55894">
        <ele>894</ele>
        <time>2021-08-10T13:21:47.090Z</time>
      </trkpt>
      <trkpt lat="46.90417" lon="8.55894">
        <ele>894</ele>
        <time>2021-08-10T13:21:48.090Z</time>
      </trkpt>
      <trkpt lat="46.90416" lon="8.55894">
        <ele>894</ele>
        <time>2021-08-10T13:21:49.089Z</time>
      </trkpt>
      <trkpt lat="46.90415" lon="8.55894">
        <ele>895</ele>
        <time>2021-08-10T13:21:50.090Z</time>
      </trkpt>
      <trkpt lat="46.90415" lon="8.55894">
        <ele>895</ele>
        <time>2021-08-10T13:21:51.089Z</time>
      </trkpt>
      <trkpt lat="46.90413" lon="8.55894">
        <ele>895</ele>
        <time>2021-08-10T13:21:52.089Z</time>
      </trkpt>
      <trkpt lat="46.90412" lon="8.55895">
        <ele>895</ele>
        <time>2021-08-10T13:21:53.090Z</time>
      </trkpt>
      <trkpt lat="46.9041" lon="8.55895">
        <ele>896</ele>
        <time>2021-08-10T13:21:54.090Z</time>
      </trkpt>
      <trkpt lat="46.9041" lon="8.55894">
        <ele>896</ele>
        <time>2021-08-10T13:21:55.090Z</time>
      </trkpt>
      <trkpt lat="46.90409" lon="8.55894">
        <ele>896</ele>
        <time>2021-08-10T13:21:56.090Z</time>
      </trkpt>
      <trkpt lat="46.90409" lon="8.55894">
        <ele>896</ele>
        <time>2021-08-10T13:21:57.090Z</time>
      </trkpt>
      <trkpt lat="46.90408" lon="8.55894">
        <ele>897</ele>
        <time>2021-08-10T13:21:58.089Z</time>
      </trkpt>
      <trkpt lat="46.90407" lon="8.55894">
        <ele>897</ele>
        <time>2021-08-10T13:21:59.089Z</time>
      </trkpt>
      <trkpt lat="46.90406" lon="8.55894">
        <ele>897</ele>
        <time>2021-08-10T13:22:00.089Z</time>
      </trkpt>
      <trkpt lat="46.90406" lon="8.55894">
        <ele>897</ele>
        <time>2021-08-10T13:22:01.089Z</time>
      </trkpt>
      <trkpt lat="46.90406" lon="8.55894">
        <ele>898</ele>
        <time>2021-08-10T13:22:02.089Z</time>
      </trkpt>
      <trkpt lat="46.90406" lon="8.55895">
        <ele>898</ele>
        <time>2021-08-10T13:22:03.089Z</time>
      </trkpt>
      <trkpt lat="46.90406" lon="8.55895">
        <ele>898</ele>
        <time>2021-08-10T13:22:04.089Z</time>
      </trkpt>
      <trkpt lat="46.90405" lon="8.55895">
        <ele>898</ele>
        <time>2021-08-10T13:22:05.089Z</time>
      </trkpt>
      <trkpt lat="46.90405" lon="8.55895">
        <ele>897</ele>
        <time>2021-08-10T13:22:08.227Z</time>
      </trkpt>
      <trkpt lat="46.90404" lon="8.55894">
        <ele>897</ele>
        <time>2021-08-10T13:22:09.228Z</time>
      </trkpt>
      <trkpt lat="46.90403" lon="8.55895">
        <ele>897</ele>
        <time>2021-08-10T13:22:10.228Z</time>
      </trkpt>
      <trkpt lat="46.90403" lon="8.55895">
        <ele>898</ele>
        <time>2021-08-10T13:22:11.228Z</time>
      </trkpt>
      <trkpt lat="46.90402" lon="8.55895">
        <ele>898</ele>
        <time>2021-08-10T13:22:12.228Z</time>
      </trkpt>
      <trkpt lat="46.90402" lon="8.55895">
        <ele>898</ele>
        <time>2021-08-10T13:22:13.228Z</time>
      </trkpt>
      <trkpt lat="46.90401" lon="8.55895">
        <ele>898</ele>
        <time>2021-08-10T13:22:14.228Z</time>
      </trkpt>
      <trkpt lat="46.904" lon="8.55895">
        <ele>898</ele>
        <time>2021-08-10T13:22:15.228Z</time>
      </trkpt>
      <trkpt lat="46.90399" lon="8.55895">
        <ele>897</ele>
        <time>2021-08-10T13:22:16.228Z</time>
      </trkpt>
      <trkpt lat="46.90398" lon="8.55895">
        <ele>897</ele>
        <time>2021-08-10T13:22:17.228Z</time>
      </trkpt>
      <trkpt lat="46.90398" lon="8.55895">
        <ele>897</ele>
        <time>2021-08-10T13:22:18.227Z</time>
      </trkpt>
      <trkpt lat="46.90397" lon="8.55894">
        <ele>897</ele>
        <time>2021-08-10T13:22:19.228Z</time>
      </trkpt>
      <trkpt lat="46.90397" lon="8.55894">
        <ele>897</ele>
        <time>2021-08-10T13:22:20.228Z</time>
      </trkpt>
      <trkpt lat="46.90396" lon="8.55894">
        <ele>897</ele>
        <time>2021-08-10T13:22:21.228Z</time>
      </trkpt>
      <trkpt lat="46.90395" lon="8.55894">
        <ele>897</ele>
        <time>2021-08-10T13:22:22.228Z</time>
      </trkpt>
      <trkpt lat="46.90395" lon="8.55894">
        <ele>896</ele>
        <time>2021-08-10T13:22:23.228Z</time>
      </trkpt>
      <trkpt lat="46.90394" lon="8.55895">
        <ele>896</ele>
        <time>2021-08-10T13:22:24.228Z</time>
      </trkpt>
      <trkpt lat="46.90393" lon="8.55895">
        <ele>896</ele>
        <time>2021-08-10T13:22:25.228Z</time>
      </trkpt>
      <trkpt lat="46.90393" lon="8.55895">
        <ele>896</ele>
        <time>2021-08-10T13:22:26.228Z</time>
      </trkpt>
      <trkpt lat="46.90392" lon="8.55894">
        <ele>896</ele>
        <time>2021-08-10T13:22:27.228Z</time>
      </trkpt>
      <trkpt lat="46.90391" lon="8.55894">
        <ele>895</ele>
        <time>2021-08-10T13:22:28.228Z</time>
      </trkpt>
      <trkpt lat="46.90391" lon="8.55894">
        <ele>895</ele>
        <time>2021-08-10T13:22:29.227Z</time>
      </trkpt>
      <trkpt lat="46.9039" lon="8.55894">
        <ele>896</ele>
        <time>2021-08-10T13:22:30.228Z</time>
      </trkpt>
      <trkpt lat="46.9039" lon="8.55894">
        <ele>896</ele>
        <time>2021-08-10T13:22:31.227Z</time>
      </trkpt>
      <trkpt lat="46.90389" lon="8.55894">
        <ele>896</ele>
        <time>2021-08-10T13:22:32.228Z</time>
      </trkpt>
      <trkpt lat="46.90389" lon="8.55893">
        <ele>896</ele>
        <time>2021-08-10T13:22:33.228Z</time>
      </trkpt>
      <trkpt lat="46.90389" lon="8.55893">
        <ele>897</ele>
        <time>2021-08-10T13:22:34.227Z</time>
      </trkpt>
      <trkpt lat="46.90389" lon="8.55893">
        <ele>898</ele>
        <time>2021-08-10T13:22:35.227Z</time>
      </trkpt>
      <trkpt lat="46.90388" lon="8.55893">
        <ele>899</ele>
        <time>2021-08-10T13:22:36.228Z</time>
      </trkpt>
      <trkpt lat="46.90387" lon="8.55893">
        <ele>899</ele>
        <time>2021-08-10T13:22:37.228Z</time>
      </trkpt>
      <trkpt lat="46.90387" lon="8.55893">
        <ele>900</ele>
        <time>2021-08-10T13:22:38.227Z</time>
      </trkpt>
      <trkpt lat="46.90386" lon="8.55893">
        <ele>900</ele>
        <time>2021-08-10T13:22:39.228Z</time>
      </trkpt>
      <trkpt lat="46.90385" lon="8.55893">
        <ele>900</ele>
        <time>2021-08-10T13:22:40.228Z</time>
      </trkpt>
      <trkpt lat="46.90385" lon="8.55893">
        <ele>901</ele>
        <time>2021-08-10T13:22:41.227Z</time>
      </trkpt>
      <trkpt lat="46.90385" lon="8.55893">
        <ele>901</ele>
        <time>2021-08-10T13:22:42.228Z</time>
      </trkpt>
      <trkpt lat="46.90384" lon="8.55893">
        <ele>902</ele>
        <time>2021-08-10T13:22:43.228Z</time>
      </trkpt>
      <trkpt lat="46.90383" lon="8.55893">
        <ele>902</ele>
        <time>2021-08-10T13:22:44.228Z</time>
      </trkpt>
      <trkpt lat="46.90381" lon="8.55893">
        <ele>903</ele>
        <time>2021-08-10T13:22:45.228Z</time>
      </trkpt>
      <trkpt lat="46.9038" lon="8.55893">
        <ele>903</ele>
        <time>2021-08-10T13:22:46.228Z</time>
      </trkpt>
      <trkpt lat="46.9038" lon="8.55893">
        <ele>903</ele>
        <time>2021-08-10T13:22:47.228Z</time>
      </trkpt>
      <trkpt lat="46.9038" lon="8.55892">
        <ele>904</ele>
        <time>2021-08-10T13:22:48.228Z</time>
      </trkpt>
      <trkpt lat="46.90379" lon="8.55892">
        <ele>904</ele>
        <time>2021-08-10T13:22:49.228Z</time>
      </trkpt>
      <trkpt lat="46.90379" lon="8.55892">
        <ele>904</ele>
        <time>2021-08-10T13:22:50.227Z</time>
      </trkpt>
      <trkpt lat="46.90378" lon="8.55892">
        <ele>905</ele>
        <time>2021-08-10T13:22:51.228Z</time>
      </trkpt>
      <trkpt lat="46.90377" lon="8.55892">
        <ele>905</ele>
        <time>2021-08-10T13:22:52.228Z</time>
      </trkpt>
      <trkpt lat="46.90376" lon="8.55891">
        <ele>905</ele>
        <time>2021-08-10T13:22:53.228Z</time>
      </trkpt>
      <trkpt lat="46.90376" lon="8.5589">
        <ele>905</ele>
        <time>2021-08-10T13:22:54.227Z</time>
      </trkpt>
      <trkpt lat="46.90375" lon="8.5589">
        <ele>905</ele>
        <time>2021-08-10T13:22:55.228Z</time>
      </trkpt>
      <trkpt lat="46.90375" lon="8.5589">
        <ele>905</ele>
        <time>2021-08-10T13:22:56.228Z</time>
      </trkpt>
      <trkpt lat="46.90374" lon="8.5589">
        <ele>905</ele>
        <time>2021-08-10T13:22:57.228Z</time>
      </trkpt>
      <trkpt lat="46.90374" lon="8.55889">
        <ele>905</ele>
        <time>2021-08-10T13:22:58.227Z</time>
      </trkpt>
      <trkpt lat="46.90373" lon="8.55889">
        <ele>905</ele>
        <time>2021-08-10T13:23:01.330Z</time>
      </trkpt>
      <trkpt lat="46.90373" lon="8.55889">
        <ele>905</ele>
        <time>2021-08-10T13:23:02.329Z</time>
      </trkpt>
      <trkpt lat="46.90372" lon="8.55889">
        <ele>905</ele>
        <time>2021-08-10T13:23:03.330Z</time>
      </trkpt>
      <trkpt lat="46.90372" lon="8.55888">
        <ele>906</ele>
        <time>2021-08-10T13:23:04.330Z</time>
      </trkpt>
      <trkpt lat="46.90371" lon="8.55887">
        <ele>906</ele>
        <time>2021-08-10T13:23:05.329Z</time>
      </trkpt>
      <trkpt lat="46.90369" lon="8.55886">
        <ele>906</ele>
        <time>2021-08-10T13:23:06.330Z</time>
      </trkpt>
      <trkpt lat="46.90368" lon="8.55885">
        <ele>907</ele>
        <time>2021-08-10T13:23:07.329Z</time>
      </trkpt>
      <trkpt lat="46.90367" lon="8.55884">
        <ele>907</ele>
        <time>2021-08-10T13:23:08.330Z</time>
      </trkpt>
      <trkpt lat="46.90367" lon="8.55883">
        <ele>907</ele>
        <time>2021-08-10T13:23:09.329Z</time>
      </trkpt>
      <trkpt lat="46.90367" lon="8.55882">
        <ele>908</ele>
        <time>2021-08-10T13:23:10.330Z</time>
      </trkpt>
      <trkpt lat="46.90366" lon="8.55882">
        <ele>908</ele>
        <time>2021-08-10T13:23:11.329Z</time>
      </trkpt>
      <trkpt lat="46.90365" lon="8.55882">
        <ele>908</ele>
        <time>2021-08-10T13:23:12.330Z</time>
      </trkpt>
      <trkpt lat="46.90364" lon="8.55882">
        <ele>908</ele>
        <time>2021-08-10T13:23:13.330Z</time>
      </trkpt>
      <trkpt lat="46.90364" lon="8.55881">
        <ele>908</ele>
        <time>2021-08-10T13:23:14.329Z</time>
      </trkpt>
      <trkpt lat="46.90363" lon="8.55881">
        <ele>908</ele>
        <time>2021-08-10T13:23:18.345Z</time>
      </trkpt>
      <trkpt lat="46.90362" lon="8.5588">
        <ele>908</ele>
        <time>2021-08-10T13:23:19.345Z</time>
      </trkpt>
      <trkpt lat="46.90362" lon="8.5588">
        <ele>908</ele>
        <time>2021-08-10T13:23:20.345Z</time>
      </trkpt>
      <trkpt lat="46.90361" lon="8.55879">
        <ele>908</ele>
        <time>2021-08-10T13:23:21.344Z</time>
      </trkpt>
      <trkpt lat="46.90361" lon="8.55879">
        <ele>908</ele>
        <time>2021-08-10T13:23:22.344Z</time>
      </trkpt>
      <trkpt lat="46.90361" lon="8.55879">
        <ele>908</ele>
        <time>2021-08-10T13:23:23.345Z</time>
      </trkpt>
      <trkpt lat="46.90361" lon="8.55879">
        <ele>909</ele>
        <time>2021-08-10T13:23:27.367Z</time>
      </trkpt>
      <trkpt lat="46.9036" lon="8.55878">
        <ele>909</ele>
        <time>2021-08-10T13:23:28.368Z</time>
      </trkpt>
      <trkpt lat="46.90359" lon="8.55878">
        <ele>910</ele>
        <time>2021-08-10T13:23:29.367Z</time>
      </trkpt>
      <trkpt lat="46.90358" lon="8.55878">
        <ele>910</ele>
        <time>2021-08-10T13:23:30.368Z</time>
      </trkpt>
      <trkpt lat="46.90357" lon="8.55878">
        <ele>910</ele>
        <time>2021-08-10T13:23:31.368Z</time>
      </trkpt>
      <trkpt lat="46.90357" lon="8.55878">
        <ele>910</ele>
        <time>2021-08-10T13:23:32.367Z</time>
      </trkpt>
      <trkpt lat="46.90357" lon="8.55878">
        <ele>910</ele>
        <time>2021-08-10T13:23:33.368Z</time>
      </trkpt>
      <trkpt lat="46.90356" lon="8.55878">
        <ele>911</ele>
        <time>2021-08-10T13:23:34.368Z</time>
      </trkpt>
      <trkpt lat="46.90356" lon="8.55878">
        <ele>911</ele>
        <time>2021-08-10T13:23:35.367Z</time>
      </trkpt>
      <trkpt lat="46.90355" lon="8.55878">
        <ele>912</ele>
        <time>2021-08-10T13:23:36.367Z</time>
      </trkpt>
      <trkpt lat="46.90355" lon="8.55878">
        <ele>912</ele>
        <time>2021-08-10T13:23:37.368Z</time>
      </trkpt>
      <trkpt lat="46.90354" lon="8.55878">
        <ele>913</ele>
        <time>2021-08-10T13:23:38.368Z</time>
      </trkpt>
      <trkpt lat="46.90353" lon="8.55878">
        <ele>913</ele>
        <time>2021-08-10T13:23:39.368Z</time>
      </trkpt>
      <trkpt lat="46.90353" lon="8.55877">
        <ele>913</ele>
        <time>2021-08-10T13:23:40.368Z</time>
      </trkpt>
      <trkpt lat="46.90352" lon="8.55877">
        <ele>913</ele>
        <time>2021-08-10T13:23:41.367Z</time>
      </trkpt>
      <trkpt lat="46.90351" lon="8.55876">
        <ele>913</ele>
        <time>2021-08-10T13:23:42.368Z</time>
      </trkpt>
      <trkpt lat="46.9035" lon="8.55876">
        <ele>913</ele>
        <time>2021-08-10T13:23:43.367Z</time>
      </trkpt>
      <trkpt lat="46.9035" lon="8.55877">
        <ele>913</ele>
        <time>2021-08-10T13:23:44.368Z</time>
      </trkpt>
      <trkpt lat="46.90349" lon="8.55876">
        <ele>913</ele>
        <time>2021-08-10T13:23:45.368Z</time>
      </trkpt>
      <trkpt lat="46.90349" lon="8.55875">
        <ele>913</ele>
        <time>2021-08-10T13:23:46.367Z</time>
      </trkpt>
      <trkpt lat="46.90349" lon="8.55875">
        <ele>913</ele>
        <time>2021-08-10T13:23:47.367Z</time>
      </trkpt>
      <trkpt lat="46.90348" lon="8.55874">
        <ele>913</ele>
        <time>2021-08-10T13:23:50.459Z</time>
      </trkpt>
      <trkpt lat="46.90349" lon="8.55874">
        <ele>913</ele>
        <time>2021-08-10T13:23:51.459Z</time>
      </trkpt>
      <trkpt lat="46.90347" lon="8.55873">
        <ele>915</ele>
        <time>2021-08-10T13:23:52.460Z</time>
      </trkpt>
      <trkpt lat="46.90347" lon="8.55872">
        <ele>915</ele>
        <time>2021-08-10T13:23:53.459Z</time>
      </trkpt>
      <trkpt lat="46.90346" lon="8.55872">
        <ele>915</ele>
        <time>2021-08-10T13:23:54.460Z</time>
      </trkpt>
      <trkpt lat="46.90345" lon="8.55871">
        <ele>916</ele>
        <time>2021-08-10T13:23:55.460Z</time>
      </trkpt>
      <trkpt lat="46.90343" lon="8.55871">
        <ele>916</ele>
        <time>2021-08-10T13:23:56.460Z</time>
      </trkpt>
      <trkpt lat="46.90342" lon="8.55871">
        <ele>916</ele>
        <time>2021-08-10T13:23:57.460Z</time>
      </trkpt>
      <trkpt lat="46.9034" lon="8.55871">
        <ele>916</ele>
        <time>2021-08-10T13:23:58.460Z</time>
      </trkpt>
      <trkpt lat="46.90339" lon="8.55872">
        <ele>916</ele>
        <time>2021-08-10T13:23:59.459Z</time>
      </trkpt>
      <trkpt lat="46.90338" lon="8.55873">
        <ele>916</ele>
        <time>2021-08-10T13:24:00.460Z</time>
      </trkpt>
      <trkpt lat="46.90337" lon="8.55873">
        <ele>916</ele>
        <time>2021-08-10T13:24:01.459Z</time>
      </trkpt>
      <trkpt lat="46.90336" lon="8.55874">
        <ele>916</ele>
        <time>2021-08-10T13:24:02.460Z</time>
      </trkpt>
      <trkpt lat="46.90337" lon="8.55874">
        <ele>916</ele>
        <time>2021-08-10T13:24:03.460Z</time>
      </trkpt>
      <trkpt lat="46.90337" lon="8.55874">
        <ele>915</ele>
        <time>2021-08-10T13:24:04.460Z</time>
      </trkpt>
      <trkpt lat="46.90336" lon="8.55874">
        <ele>915</ele>
        <time>2021-08-10T13:24:05.460Z</time>
      </trkpt>
      <trkpt lat="46.90335" lon="8.55873">
        <ele>915</ele>
        <time>2021-08-10T13:24:06.459Z</time>
      </trkpt>
      <trkpt lat="46.90334" lon="8.55873">
        <ele>915</ele>
        <time>2021-08-10T13:24:07.460Z</time>
      </trkpt>
      <trkpt lat="46.90333" lon="8.55873">
        <ele>915</ele>
        <time>2021-08-10T13:24:08.460Z</time>
      </trkpt>
      <trkpt lat="46.90333" lon="8.55874">
        <ele>915</ele>
        <time>2021-08-10T13:24:09.460Z</time>
      </trkpt>
      <trkpt lat="46.90332" lon="8.55874">
        <ele>915</ele>
        <time>2021-08-10T13:24:10.460Z</time>
      </trkpt>
      <trkpt lat="46.90331" lon="8.55874">
        <ele>915</ele>
        <time>2021-08-10T13:24:11.460Z</time>
      </trkpt>
      <trkpt lat="46.90331" lon="8.55874">
        <ele>915</ele>
        <time>2021-08-10T13:24:12.459Z</time>
      </trkpt>
      <trkpt lat="46.9033" lon="8.55874">
        <ele>914</ele>
        <time>2021-08-10T13:24:13.460Z</time>
      </trkpt>
      <trkpt lat="46.9033" lon="8.55874">
        <ele>914</ele>
        <time>2021-08-10T13:24:14.460Z</time>
      </trkpt>
      <trkpt lat="46.90329" lon="8.55874">
        <ele>914</ele>
        <time>2021-08-10T13:24:15.459Z</time>
      </trkpt>
      <trkpt lat="46.90328" lon="8.55874">
        <ele>914</ele>
        <time>2021-08-10T13:24:16.460Z</time>
      </trkpt>
      <trkpt lat="46.90327" lon="8.55874">
        <ele>914</ele>
        <time>2021-08-10T13:24:20.492Z</time>
      </trkpt>
      <trkpt lat="46.90326" lon="8.55873">
        <ele>914</ele>
        <time>2021-08-10T13:24:21.492Z</time>
      </trkpt>
      <trkpt lat="46.90325" lon="8.55872">
        <ele>914</ele>
        <time>2021-08-10T13:24:22.491Z</time>
      </trkpt>
      <trkpt lat="46.90325" lon="8.55872">
        <ele>913</ele>
        <time>2021-08-10T13:24:23.492Z</time>
      </trkpt>
      <trkpt lat="46.90324" lon="8.55871">
        <ele>913</ele>
        <time>2021-08-10T13:24:24.491Z</time>
      </trkpt>
      <trkpt lat="46.90324" lon="8.55871">
        <ele>913</ele>
        <time>2021-08-10T13:24:25.491Z</time>
      </trkpt>
      <trkpt lat="46.90324" lon="8.5587">
        <ele>913</ele>
        <time>2021-08-10T13:24:26.492Z</time>
      </trkpt>
      <trkpt lat="46.90324" lon="8.55869">
        <ele>913</ele>
        <time>2021-08-10T13:24:27.491Z</time>
      </trkpt>
      <trkpt lat="46.90323" lon="8.55868">
        <ele>913</ele>
        <time>2021-08-10T13:24:28.492Z</time>
      </trkpt>
      <trkpt lat="46.90323" lon="8.55867">
        <ele>913</ele>
        <time>2021-08-10T13:24:29.492Z</time>
      </trkpt>
      <trkpt lat="46.90322" lon="8.55866">
        <ele>913</ele>
        <time>2021-08-10T13:24:30.491Z</time>
      </trkpt>
      <trkpt lat="46.90322" lon="8.55866">
        <ele>913</ele>
        <time>2021-08-10T13:24:31.492Z</time>
      </trkpt>
      <trkpt lat="46.90321" lon="8.55865">
        <ele>913</ele>
        <time>2021-08-10T13:24:32.492Z</time>
      </trkpt>
      <trkpt lat="46.90321" lon="8.55864">
        <ele>913</ele>
        <time>2021-08-10T13:24:33.491Z</time>
      </trkpt>
      <trkpt lat="46.90322" lon="8.55863">
        <ele>913</ele>
        <time>2021-08-10T13:24:34.492Z</time>
      </trkpt>
      <trkpt lat="46.90322" lon="8.55862">
        <ele>913</ele>
        <time>2021-08-10T13:24:35.492Z</time>
      </trkpt>
      <trkpt lat="46.90322" lon="8.55861">
        <ele>913</ele>
        <time>2021-08-10T13:24:36.491Z</time>
      </trkpt>
      <trkpt lat="46.90322" lon="8.5586">
        <ele>913</ele>
        <time>2021-08-10T13:24:41.605Z</time>
      </trkpt>
      <trkpt lat="46.90322" lon="8.55859">
        <ele>913</ele>
        <time>2021-08-10T13:24:43.475Z</time>
      </trkpt>
      <trkpt lat="46.90322" lon="8.55858">
        <ele>912</ele>
        <time>2021-08-10T13:24:44.474Z</time>
      </trkpt>
      <trkpt lat="46.90322" lon="8.55858">
        <ele>912</ele>
        <time>2021-08-10T13:24:45.474Z</time>
      </trkpt>
      <trkpt lat="46.90323" lon="8.55858">
        <ele>912</ele>
        <time>2021-08-10T13:24:46.474Z</time>
      </trkpt>
      <trkpt lat="46.90324" lon="8.55858">
        <ele>912</ele>
        <time>2021-08-10T13:24:47.474Z</time>
      </trkpt>
      <trkpt lat="46.90324" lon="8.55858">
        <ele>912</ele>
        <time>2021-08-10T13:24:48.475Z</time>
      </trkpt>
      <trkpt lat="46.90325" lon="8.55861">
        <ele>912</ele>
        <time>2021-08-10T13:24:49.474Z</time>
      </trkpt>
      <trkpt lat="46.90325" lon="8.55862">
        <ele>912</ele>
        <time>2021-08-10T13:24:53.609Z</time>
      </trkpt>
      <trkpt lat="46.90324" lon="8.55863">
        <ele>912</ele>
        <time>2021-08-10T13:24:54.610Z</time>
      </trkpt>
      <trkpt lat="46.90324" lon="8.55862">
        <ele>910</ele>
        <time>2021-08-10T13:24:55.610Z</time>
      </trkpt>
      <trkpt lat="46.90323" lon="8.55863">
        <ele>910</ele>
        <time>2021-08-10T13:24:56.611Z</time>
      </trkpt>
      <trkpt lat="46.90323" lon="8.55864">
        <ele>909</ele>
        <time>2021-08-10T13:24:57.611Z</time>
      </trkpt>
      <trkpt lat="46.90323" lon="8.55865">
        <ele>909</ele>
        <time>2021-08-10T13:24:58.611Z</time>
      </trkpt>
      <trkpt lat="46.90322" lon="8.55866">
        <ele>909</ele>
        <time>2021-08-10T13:24:59.611Z</time>
      </trkpt>
      <trkpt lat="46.90322" lon="8.55867">
        <ele>909</ele>
        <time>2021-08-10T13:25:00.610Z</time>
      </trkpt>
      <trkpt lat="46.90322" lon="8.55868">
        <ele>909</ele>
        <time>2021-08-10T13:25:01.611Z</time>
      </trkpt>
      <trkpt lat="46.90322" lon="8.55869">
        <ele>909</ele>
        <time>2021-08-10T13:25:02.611Z</time>
      </trkpt>
      <trkpt lat="46.90323" lon="8.5587">
        <ele>908</ele>
        <time>2021-08-10T13:25:03.610Z</time>
      </trkpt>
      <trkpt lat="46.90324" lon="8.55871">
        <ele>908</ele>
        <time>2021-08-10T13:25:04.611Z</time>
      </trkpt>
      <trkpt lat="46.90324" lon="8.55872">
        <ele>909</ele>
        <time>2021-08-10T13:25:06.724Z</time>
      </trkpt>
      <trkpt lat="46.90324" lon="8.55872">
        <ele>909</ele>
        <time>2021-08-10T13:25:07.724Z</time>
      </trkpt>
      <trkpt lat="46.90323" lon="8.55871">
        <ele>910</ele>
        <time>2021-08-10T13:25:08.723Z</time>
      </trkpt>
      <trkpt lat="46.90323" lon="8.55871">
        <ele>910</ele>
        <time>2021-08-10T13:25:09.723Z</time>
      </trkpt>
      <trkpt lat="46.90322" lon="8.5587">
        <ele>910</ele>
        <time>2021-08-10T13:25:10.723Z</time>
      </trkpt>
      <trkpt lat="46.90321" lon="8.5587">
        <ele>911</ele>
        <time>2021-08-10T13:25:11.723Z</time>
      </trkpt>
      <trkpt lat="46.9032" lon="8.5587">
        <ele>911</ele>
        <time>2021-08-10T13:25:12.723Z</time>
      </trkpt>
      <trkpt lat="46.90319" lon="8.55867">
        <ele>910</ele>
        <time>2021-08-10T13:25:13.724Z</time>
      </trkpt>
      <trkpt lat="46.90318" lon="8.55866">
        <ele>909</ele>
        <time>2021-08-10T13:25:14.725Z</time>
      </trkpt>
      <trkpt lat="46.90318" lon="8.55866">
        <ele>909</ele>
        <time>2021-08-10T13:25:15.725Z</time>
      </trkpt>
      <trkpt lat="46.90319" lon="8.55865">
        <ele>915</ele>
        <time>2021-08-10T13:25:16.724Z</time>
      </trkpt>
      <trkpt lat="46.9032" lon="8.55864">
        <ele>916</ele>
        <time>2021-08-10T13:25:17.725Z</time>
      </trkpt>
      <trkpt lat="46.9032" lon="8.55865">
        <ele>917</ele>
        <time>2021-08-10T13:25:18.724Z</time>
      </trkpt>
      <trkpt lat="46.9032" lon="8.55865">
        <ele>917</ele>
        <time>2021-08-10T13:25:19.725Z</time>
      </trkpt>
      <trkpt lat="46.9032" lon="8.55865">
        <ele>917</ele>
        <time>2021-08-10T13:25:20.725Z</time>
      </trkpt>
      <trkpt lat="46.90319" lon="8.55865">
        <ele>918</ele>
        <time>2021-08-10T13:25:21.725Z</time>
      </trkpt>
      <trkpt lat="46.90318" lon="8.55865">
        <ele>918</ele>
        <time>2021-08-10T13:25:22.724Z</time>
      </trkpt>
      <trkpt lat="46.90318" lon="8.55865">
        <ele>918</ele>
        <time>2021-08-10T13:25:23.724Z</time>
      </trkpt>
      <trkpt lat="46.90319" lon="8.55864">
        <ele>919</ele>
        <time>2021-08-10T13:25:24.725Z</time>
      </trkpt>
      <trkpt lat="46.9032" lon="8.55864">
        <ele>919</ele>
        <time>2021-08-10T13:25:25.725Z</time>
      </trkpt>
      <trkpt lat="46.9032" lon="8.55865">
        <ele>920</ele>
        <time>2021-08-10T13:25:26.725Z</time>
      </trkpt>
      <trkpt lat="46.90319" lon="8.55865">
        <ele>920</ele>
        <time>2021-08-10T13:25:27.725Z</time>
      </trkpt>
      <trkpt lat="46.90316" lon="8.55864">
        <ele>920</ele>
        <time>2021-08-10T13:25:28.726Z</time>
      </trkpt>
      <trkpt lat="46.90316" lon="8.55863">
        <ele>920</ele>
        <time>2021-08-10T13:25:29.727Z</time>
      </trkpt>
      <trkpt lat="46.90317" lon="8.55863">
        <ele>920</ele>
        <time>2021-08-10T13:25:30.726Z</time>
      </trkpt>
      <trkpt lat="46.90317" lon="8.55862">
        <ele>920</ele>
        <time>2021-08-10T13:25:31.726Z</time>
      </trkpt>
      <trkpt lat="46.90317" lon="8.55862">
        <ele>920</ele>
        <time>2021-08-10T13:25:32.727Z</time>
      </trkpt>
      <trkpt lat="46.90317" lon="8.55861">
        <ele>920</ele>
        <time>2021-08-10T13:25:33.726Z</time>
      </trkpt>
      <trkpt lat="46.90317" lon="8.55861">
        <ele>920</ele>
        <time>2021-08-10T13:25:34.727Z</time>
      </trkpt>
      <trkpt lat="46.90317" lon="8.5586">
        <ele>920</ele>
        <time>2021-08-10T13:25:39.767Z</time>
      </trkpt>
      <trkpt lat="46.90316" lon="8.55861">
        <ele>921</ele>
        <time>2021-08-10T13:25:40.766Z</time>
      </trkpt>
      <trkpt lat="46.90315" lon="8.55861">
        <ele>921</ele>
        <time>2021-08-10T13:25:41.766Z</time>
      </trkpt>
      <trkpt lat="46.90314" lon="8.55863">
        <ele>921</ele>
        <time>2021-08-10T13:25:42.766Z</time>
      </trkpt>
      <trkpt lat="46.90313" lon="8.55864">
        <ele>921</ele>
        <time>2021-08-10T13:25:45.857Z</time>
      </trkpt>
      <trkpt lat="46.90313" lon="8.55861">
        <ele>922</ele>
        <time>2021-08-10T13:25:46.857Z</time>
      </trkpt>
      <trkpt lat="46.90313" lon="8.55858">
        <ele>922</ele>
        <time>2021-08-10T13:25:47.858Z</time>
      </trkpt>
      <trkpt lat="46.90313" lon="8.55859">
        <ele>922</ele>
        <time>2021-08-10T13:25:48.858Z</time>
      </trkpt>
      <trkpt lat="46.90313" lon="8.5586">
        <ele>922</ele>
        <time>2021-08-10T13:25:49.858Z</time>
      </trkpt>
      <trkpt lat="46.90311" lon="8.55861">
        <ele>923</ele>
        <time>2021-08-10T13:25:50.858Z</time>
      </trkpt>
      <trkpt lat="46.90309" lon="8.55864">
        <ele>923</ele>
        <time>2021-08-10T13:25:51.858Z</time>
      </trkpt>
      <trkpt lat="46.90308" lon="8.55866">
        <ele>924</ele>
        <time>2021-08-10T13:25:52.858Z</time>
      </trkpt>
      <trkpt lat="46.90307" lon="8.55868">
        <ele>927</ele>
        <time>2021-08-10T13:25:53.857Z</time>
      </trkpt>
      <trkpt lat="46.90307" lon="8.55867">
        <ele>928</ele>
        <time>2021-08-10T13:25:54.858Z</time>
      </trkpt>
      <trkpt lat="46.90307" lon="8.55867">
        <ele>928</ele>
        <time>2021-08-10T13:25:55.857Z</time>
      </trkpt>
      <trkpt lat="46.90307" lon="8.55869">
        <ele>930</ele>
        <time>2021-08-10T13:25:57.966Z</time>
      </trkpt>
      <trkpt lat="46.90306" lon="8.55871">
        <ele>930</ele>
        <time>2021-08-10T13:25:58.966Z</time>
      </trkpt>
      <trkpt lat="46.90305" lon="8.55872">
        <ele>931</ele>
        <time>2021-08-10T13:25:59.965Z</time>
      </trkpt>
      <trkpt lat="46.90306" lon="8.55875">
        <ele>931</ele>
        <time>2021-08-10T13:26:00.966Z</time>
      </trkpt>
      <trkpt lat="46.90305" lon="8.55879">
        <ele>932</ele>
        <time>2021-08-10T13:26:01.965Z</time>
      </trkpt>
      <trkpt lat="46.90305" lon="8.55878">
        <ele>932</ele>
        <time>2021-08-10T13:26:02.965Z</time>
      </trkpt>
      <trkpt lat="46.90305" lon="8.55877">
        <ele>933</ele>
        <time>2021-08-10T13:26:03.966Z</time>
      </trkpt>
      <trkpt lat="46.90304" lon="8.55876">
        <ele>933</ele>
        <time>2021-08-10T13:26:04.965Z</time>
      </trkpt>
      <trkpt lat="46.90304" lon="8.55876">
        <ele>933</ele>
        <time>2021-08-10T13:26:05.965Z</time>
      </trkpt>
      <trkpt lat="46.90304" lon="8.55877">
        <ele>934</ele>
        <time>2021-08-10T13:26:06.965Z</time>
      </trkpt>
      <trkpt lat="46.90304" lon="8.55877">
        <ele>934</ele>
        <time>2021-08-10T13:26:07.965Z</time>
      </trkpt>
      <trkpt lat="46.90304" lon="8.55877">
        <ele>934</ele>
        <time>2021-08-10T13:26:08.965Z</time>
      </trkpt>
      <trkpt lat="46.90308" lon="8.55873">
        <ele>935</ele>
        <time>2021-08-10T13:26:09.965Z</time>
      </trkpt>
      <trkpt lat="46.90308" lon="8.55872">
        <ele>935</ele>
        <time>2021-08-10T13:26:10.965Z</time>
      </trkpt>
      <trkpt lat="46.90308" lon="8.55872">
        <ele>935</ele>
        <time>2021-08-10T13:26:11.966Z</time>
      </trkpt>
      <trkpt lat="46.90307" lon="8.55871">
        <ele>936</ele>
        <time>2021-08-10T13:26:12.965Z</time>
      </trkpt>
      <trkpt lat="46.90306" lon="8.55871">
        <ele>936</ele>
        <time>2021-08-10T13:26:13.966Z</time>
      </trkpt>
      <trkpt lat="46.90306" lon="8.5587">
        <ele>936</ele>
        <time>2021-08-10T13:26:14.965Z</time>
      </trkpt>
      <trkpt lat="46.90306" lon="8.5587">
        <ele>937</ele>
        <time>2021-08-10T13:26:26.113Z</time>
      </trkpt>
      <trkpt lat="46.90306" lon="8.55871">
        <ele>937</ele>
        <time>2021-08-10T13:26:27.113Z</time>
      </trkpt>
      <trkpt lat="46.90306" lon="8.55871">
        <ele>937</ele>
        <time>2021-08-10T13:26:28.112Z</time>
      </trkpt>
      <trkpt lat="46.90306" lon="8.5587">
        <ele>937</ele>
        <time>2021-08-10T13:26:29.112Z</time>
      </trkpt>
      <trkpt lat="46.90306" lon="8.55869">
        <ele>937</ele>
        <time>2021-08-10T13:26:30.113Z</time>
      </trkpt>
      <trkpt lat="46.90305" lon="8.55869">
        <ele>937</ele>
        <time>2021-08-10T13:26:31.112Z</time>
      </trkpt>
      <trkpt lat="46.90306" lon="8.55868">
        <ele>936</ele>
        <time>2021-08-10T13:26:32.112Z</time>
      </trkpt>
      <trkpt lat="46.90307" lon="8.55867">
        <ele>936</ele>
        <time>2021-08-10T13:26:50.253Z</time>
      </trkpt>
      <trkpt lat="46.90308" lon="8.55867">
        <ele>935</ele>
        <time>2021-08-10T13:26:51.254Z</time>
      </trkpt>
      <trkpt lat="46.9031" lon="8.55866">
        <ele>934</ele>
        <time>2021-08-10T13:26:52.253Z</time>
      </trkpt>
      <trkpt lat="46.9031" lon="8.55866">
        <ele>934</ele>
        <time>2021-08-10T13:26:53.253Z</time>
      </trkpt>
      <trkpt lat="46.90309" lon="8.55867">
        <ele>933</ele>
        <time>2021-08-10T13:26:54.253Z</time>
      </trkpt>
      <trkpt lat="46.9031" lon="8.55867">
        <ele>933</ele>
        <time>2021-08-10T13:26:55.254Z</time>
      </trkpt>
      <trkpt lat="46.90312" lon="8.55867">
        <ele>933</ele>
        <time>2021-08-10T13:26:56.255Z</time>
      </trkpt>
      <trkpt lat="46.90312" lon="8.55866">
        <ele>932</ele>
        <time>2021-08-10T13:26:57.254Z</time>
      </trkpt>
      <trkpt lat="46.90312" lon="8.55866">
        <ele>932</ele>
        <time>2021-08-10T13:26:58.254Z</time>
      </trkpt>
      <trkpt lat="46.90311" lon="8.55867">
        <ele>932</ele>
        <time>2021-08-10T13:26:59.255Z</time>
      </trkpt>
      <trkpt lat="46.9031" lon="8.55867">
        <ele>932</ele>
        <time>2021-08-10T13:27:00.254Z</time>
      </trkpt>
      <trkpt lat="46.9031" lon="8.55867">
        <ele>932</ele>
        <time>2021-08-10T13:27:01.255Z</time>
      </trkpt>
      <trkpt lat="46.9031" lon="8.55866">
        <ele>931</ele>
        <time>2021-08-10T13:27:02.255Z</time>
      </trkpt>
      <trkpt lat="46.9031" lon="8.55865">
        <ele>931</ele>
        <time>2021-08-10T13:27:03.255Z</time>
      </trkpt>
      <trkpt lat="46.90309" lon="8.55866">
        <ele>930</ele>
        <time>2021-08-10T13:27:04.255Z</time>
      </trkpt>
      <trkpt lat="46.90309" lon="8.55865">
        <ele>929</ele>
        <time>2021-08-10T13:27:05.254Z</time>
      </trkpt>
      <trkpt lat="46.9031" lon="8.55864">
        <ele>928</ele>
        <time>2021-08-10T13:27:06.255Z</time>
      </trkpt>
      <trkpt lat="46.90309" lon="8.55864">
        <ele>928</ele>
        <time>2021-08-10T13:27:07.254Z</time>
      </trkpt>
      <trkpt lat="46.90309" lon="8.55865">
        <ele>928</ele>
        <time>2021-08-10T13:27:08.254Z</time>
      </trkpt>
      <trkpt lat="46.90308" lon="8.55866">
        <ele>928</ele>
        <time>2021-08-10T13:27:09.255Z</time>
      </trkpt>
      <trkpt lat="46.90307" lon="8.55866">
        <ele>928</ele>
        <time>2021-08-10T13:27:10.255Z</time>
      </trkpt>
      <trkpt lat="46.90306" lon="8.55867">
        <ele>928</ele>
        <time>2021-08-10T13:27:11.254Z</time>
      </trkpt>
      <trkpt lat="46.90305" lon="8.55868">
        <ele>929</ele>
        <time>2021-08-10T13:27:12.254Z</time>
      </trkpt>
      <trkpt lat="46.90304" lon="8.5587">
        <ele>929</ele>
        <time>2021-08-10T13:27:13.255Z</time>
      </trkpt>
      <trkpt lat="46.90303" lon="8.5587">
        <ele>929</ele>
        <time>2021-08-10T13:27:14.255Z</time>
      </trkpt>
      <trkpt lat="46.90303" lon="8.5587">
        <ele>929</ele>
        <time>2021-08-10T13:27:15.254Z</time>
      </trkpt>
      <trkpt lat="46.90302" lon="8.5587">
        <ele>929</ele>
        <time>2021-08-10T13:27:16.255Z</time>
      </trkpt>
      <trkpt lat="46.90302" lon="8.55871">
        <ele>929</ele>
        <time>2021-08-10T13:27:17.254Z</time>
      </trkpt>
      <trkpt lat="46.90302" lon="8.55871">
        <ele>929</ele>
        <time>2021-08-10T13:27:18.254Z</time>
      </trkpt>
      <trkpt lat="46.90301" lon="8.55872">
        <ele>930</ele>
        <time>2021-08-10T13:27:19.255Z</time>
      </trkpt>
      <trkpt lat="46.90301" lon="8.55872">
        <ele>930</ele>
        <time>2021-08-10T13:27:20.255Z</time>
      </trkpt>
      <trkpt lat="46.90301" lon="8.55873">
        <ele>930</ele>
        <time>2021-08-10T13:27:21.255Z</time>
      </trkpt>
      <trkpt lat="46.903" lon="8.55873">
        <ele>931</ele>
        <time>2021-08-10T13:27:22.254Z</time>
      </trkpt>
      <trkpt lat="46.903" lon="8.55873">
        <ele>932</ele>
        <time>2021-08-10T13:27:23.255Z</time>
      </trkpt>
      <trkpt lat="46.903" lon="8.55875">
        <ele>933</ele>
        <time>2021-08-10T13:27:24.257Z</time>
      </trkpt>
      <trkpt lat="46.90301" lon="8.55875">
        <ele>934</ele>
        <time>2021-08-10T13:27:25.257Z</time>
      </trkpt>
      <trkpt lat="46.90301" lon="8.55876">
        <ele>934</ele>
        <time>2021-08-10T13:27:26.257Z</time>
      </trkpt>
      <trkpt lat="46.90302" lon="8.55876">
        <ele>934</ele>
        <time>2021-08-10T13:27:27.256Z</time>
      </trkpt>
      <trkpt lat="46.90303" lon="8.55875">
        <ele>934</ele>
        <time>2021-08-10T13:27:28.257Z</time>
      </trkpt>
      <trkpt lat="46.90304" lon="8.55874">
        <ele>934</ele>
        <time>2021-08-10T13:27:29.257Z</time>
      </trkpt>
      <trkpt lat="46.90306" lon="8.55875">
        <ele>933</ele>
        <time>2021-08-10T13:27:30.257Z</time>
      </trkpt>
      <trkpt lat="46.90306" lon="8.55876">
        <ele>933</ele>
        <time>2021-08-10T13:27:31.257Z</time>
      </trkpt>
      <trkpt lat="46.90306" lon="8.55877">
        <ele>933</ele>
        <time>2021-08-10T13:27:33.363Z</time>
      </trkpt>
      <trkpt lat="46.90306" lon="8.55879">
        <ele>933</ele>
        <time>2021-08-10T13:27:34.362Z</time>
      </trkpt>
      <trkpt lat="46.90305" lon="8.55881">
        <ele>933</ele>
        <time>2021-08-10T13:27:36.094Z</time>
      </trkpt>
      <trkpt lat="46.90306" lon="8.55882">
        <ele>933</ele>
        <time>2021-08-10T13:27:37.093Z</time>
      </trkpt>
      <trkpt lat="46.90306" lon="8.55882">
        <ele>934</ele>
        <time>2021-08-10T13:27:38.094Z</time>
      </trkpt>
      <trkpt lat="46.90306" lon="8.55882">
        <ele>934</ele>
        <time>2021-08-10T13:27:44.115Z</time>
      </trkpt>
      <trkpt lat="46.90306" lon="8.55879">
        <ele>934</ele>
        <time>2021-08-10T13:27:45.116Z</time>
      </trkpt>
      <trkpt lat="46.90306" lon="8.55878">
        <ele>934</ele>
        <time>2021-08-10T13:27:49.000Z</time>
      </trkpt>
      <trkpt lat="46.90305" lon="8.55877">
        <ele>934</ele>
        <time>2021-08-10T13:27:50.000Z</time>
      </trkpt>
      <trkpt lat="46.90304" lon="8.55877">
        <ele>934</ele>
        <time>2021-08-10T13:27:51.001Z</time>
      </trkpt>
      <trkpt lat="46.90304" lon="8.5588">
        <ele>933</ele>
        <time>2021-08-10T13:27:52.001Z</time>
      </trkpt>
      <trkpt lat="46.90304" lon="8.55881">
        <ele>933</ele>
        <time>2021-08-10T13:27:53.000Z</time>
      </trkpt>
      <trkpt lat="46.90303" lon="8.55882">
        <ele>933</ele>
        <time>2021-08-10T13:27:54.000Z</time>
      </trkpt>
      <trkpt lat="46.90304" lon="8.55882">
        <ele>932</ele>
        <time>2021-08-10T13:27:55.000Z</time>
      </trkpt>
      <trkpt lat="46.90304" lon="8.55882">
        <ele>932</ele>
        <time>2021-08-10T13:27:56.000Z</time>
      </trkpt>
      <trkpt lat="46.90304" lon="8.55882">
        <ele>932</ele>
        <time>2021-08-10T13:27:57.001Z</time>
      </trkpt>
      <trkpt lat="46.90305" lon="8.55882">
        <ele>932</ele>
        <time>2021-08-10T13:27:58.001Z</time>
      </trkpt>
      <trkpt lat="46.90305" lon="8.55881">
        <ele>931</ele>
        <time>2021-08-10T13:27:59.000Z</time>
      </trkpt>
      <trkpt lat="46.90304" lon="8.55882">
        <ele>932</ele>
        <time>2021-08-10T13:28:00.000Z</time>
      </trkpt>
      <trkpt lat="46.90304" lon="8.55883">
        <ele>932</ele>
        <time>2021-08-10T13:28:01.001Z</time>
      </trkpt>
      <trkpt lat="46.90305" lon="8.55883">
        <ele>933</ele>
        <time>2021-08-10T13:28:02.001Z</time>
      </trkpt>
      <trkpt lat="46.90305" lon="8.55883">
        <ele>933</ele>
        <time>2021-08-10T13:28:03.001Z</time>
      </trkpt>
      <trkpt lat="46.90307" lon="8.55882">
        <ele>934</ele>
        <time>2021-08-10T13:28:04.001Z</time>
      </trkpt>
      <trkpt lat="46.90307" lon="8.55882">
        <ele>934</ele>
        <time>2021-08-10T13:28:05.001Z</time>
      </trkpt>
      <trkpt lat="46.90307" lon="8.55882">
        <ele>935</ele>
        <time>2021-08-10T13:28:06.001Z</time>
      </trkpt>
      <trkpt lat="46.90308" lon="8.55882">
        <ele>936</ele>
        <time>2021-08-10T13:28:07.001Z</time>
      </trkpt>
      <trkpt lat="46.90308" lon="8.55881">
        <ele>936</ele>
        <time>2021-08-10T13:28:08.000Z</time>
      </trkpt>
      <trkpt lat="46.90309" lon="8.55882">
        <ele>937</ele>
        <time>2021-08-10T13:28:09.000Z</time>
      </trkpt>
      <trkpt lat="46.90309" lon="8.55883">
        <ele>937</ele>
        <time>2021-08-10T13:28:10.000Z</time>
      </trkpt>
      <trkpt lat="46.90308" lon="8.55885">
        <ele>937</ele>
        <time>2021-08-10T13:28:11.001Z</time>
      </trkpt>
      <trkpt lat="46.90308" lon="8.55886">
        <ele>938</ele>
        <time>2021-08-10T13:28:12.000Z</time>
      </trkpt>
      <trkpt lat="46.90308" lon="8.55886">
        <ele>938</ele>
        <time>2021-08-10T13:28:13.000Z</time>
      </trkpt>
      <trkpt lat="46.90308" lon="8.55887">
        <ele>938</ele>
        <time>2021-08-10T13:28:14.001Z</time>
      </trkpt>
      <trkpt lat="46.90308" lon="8.55887">
        <ele>938</ele>
        <time>2021-08-10T13:28:15.000Z</time>
      </trkpt>
      <trkpt lat="46.90308" lon="8.55892">
        <ele>937</ele>
        <time>2021-08-10T13:28:16.001Z</time>
      </trkpt>
      <trkpt lat="46.90308" lon="8.55892">
        <ele>936</ele>
        <time>2021-08-10T13:28:17.000Z</time>
      </trkpt>
      <trkpt lat="46.90309" lon="8.55892">
        <ele>936</ele>
        <time>2021-08-10T13:28:18.001Z</time>
      </trkpt>
      <trkpt lat="46.90309" lon="8.55893">
        <ele>936</ele>
        <time>2021-08-10T13:28:21.123Z</time>
      </trkpt>
      <trkpt lat="46.90309" lon="8.55893">
        <ele>937</ele>
        <time>2021-08-10T13:28:22.122Z</time>
      </trkpt>
      <trkpt lat="46.90309" lon="8.55893">
        <ele>937</ele>
        <time>2021-08-10T13:28:23.123Z</time>
      </trkpt>
      <trkpt lat="46.9031" lon="8.55893">
        <ele>938</ele>
        <time>2021-08-10T13:28:24.124Z</time>
      </trkpt>
      <trkpt lat="46.9031" lon="8.55892">
        <ele>938</ele>
        <time>2021-08-10T13:28:25.124Z</time>
      </trkpt>
      <trkpt lat="46.9031" lon="8.55891">
        <ele>939</ele>
        <time>2021-08-10T13:28:26.124Z</time>
      </trkpt>
      <trkpt lat="46.9031" lon="8.55891">
        <ele>940</ele>
        <time>2021-08-10T13:28:27.124Z</time>
      </trkpt>
      <trkpt lat="46.90309" lon="8.5589">
        <ele>940</ele>
        <time>2021-08-10T13:28:28.123Z</time>
      </trkpt>
      <trkpt lat="46.90309" lon="8.5589">
        <ele>940</ele>
        <time>2021-08-10T13:28:29.124Z</time>
      </trkpt>
      <trkpt lat="46.90308" lon="8.5589">
        <ele>941</ele>
        <time>2021-08-10T13:28:30.123Z</time>
      </trkpt>
      <trkpt lat="46.90306" lon="8.5589">
        <ele>941</ele>
        <time>2021-08-10T13:28:31.123Z</time>
      </trkpt>
      <trkpt lat="46.90305" lon="8.5589">
        <ele>941</ele>
        <time>2021-08-10T13:28:32.124Z</time>
      </trkpt>
      <trkpt lat="46.90304" lon="8.5589">
        <ele>941</ele>
        <time>2021-08-10T13:28:33.124Z</time>
      </trkpt>
      <trkpt lat="46.90304" lon="8.55891">
        <ele>941</ele>
        <time>2021-08-10T13:28:34.124Z</time>
      </trkpt>
      <trkpt lat="46.90303" lon="8.55892">
        <ele>940</ele>
        <time>2021-08-10T13:28:35.123Z</time>
      </trkpt>
      <trkpt lat="46.90303" lon="8.55892">
        <ele>940</ele>
        <time>2021-08-10T13:28:36.123Z</time>
      </trkpt>
      <trkpt lat="46.90306" lon="8.55894">
        <ele>942</ele>
        <time>2021-08-10T13:28:37.123Z</time>
      </trkpt>
      <trkpt lat="46.90307" lon="8.55894">
        <ele>942</ele>
        <time>2021-08-10T13:28:38.124Z</time>
      </trkpt>
      <trkpt lat="46.90307" lon="8.55894">
        <ele>942</ele>
        <time>2021-08-10T13:28:39.124Z</time>
      </trkpt>
      <trkpt lat="46.90307" lon="8.55894">
        <ele>942</ele>
        <time>2021-08-10T13:28:40.123Z</time>
      </trkpt>
      <trkpt lat="46.90304" lon="8.55895">
        <ele>942</ele>
        <time>2021-08-10T13:28:41.124Z</time>
      </trkpt>
      <trkpt lat="46.90303" lon="8.55894">
        <ele>942</ele>
        <time>2021-08-10T13:28:42.123Z</time>
      </trkpt>
      <trkpt lat="46.90302" lon="8.55894">
        <ele>942</ele>
        <time>2021-08-10T13:28:43.124Z</time>
      </trkpt>
      <trkpt lat="46.90301" lon="8.55894">
        <ele>942</ele>
        <time>2021-08-10T13:28:44.124Z</time>
      </trkpt>
      <trkpt lat="46.90301" lon="8.55894">
        <ele>942</ele>
        <time>2021-08-10T13:28:45.124Z</time>
      </trkpt>
      <trkpt lat="46.903" lon="8.55894">
        <ele>942</ele>
        <time>2021-08-10T13:28:46.124Z</time>
      </trkpt>
      <trkpt lat="46.90299" lon="8.55893">
        <ele>942</ele>
        <time>2021-08-10T13:28:47.124Z</time>
      </trkpt>
      <trkpt lat="46.90299" lon="8.55893">
        <ele>943</ele>
        <time>2021-08-10T13:28:48.124Z</time>
      </trkpt>
      <trkpt lat="46.90298" lon="8.55892">
        <ele>944</ele>
        <time>2021-08-10T13:28:49.124Z</time>
      </trkpt>
      <trkpt lat="46.90297" lon="8.55893">
        <ele>944</ele>
        <time>2021-08-10T13:28:50.123Z</time>
      </trkpt>
      <trkpt lat="46.90297" lon="8.55894">
        <ele>945</ele>
        <time>2021-08-10T13:28:51.124Z</time>
      </trkpt>
      <trkpt lat="46.90297" lon="8.55896">
        <ele>945</ele>
        <time>2021-08-10T13:28:52.124Z</time>
      </trkpt>
      <trkpt lat="46.90297" lon="8.55898">
        <ele>946</ele>
        <time>2021-08-10T13:28:53.124Z</time>
      </trkpt>
      <trkpt lat="46.90298" lon="8.55899">
        <ele>946</ele>
        <time>2021-08-10T13:28:54.123Z</time>
      </trkpt>
      <trkpt lat="46.90299" lon="8.559">
        <ele>946</ele>
        <time>2021-08-10T13:28:55.124Z</time>
      </trkpt>
      <trkpt lat="46.90299" lon="8.55901">
        <ele>947</ele>
        <time>2021-08-10T13:28:56.124Z</time>
      </trkpt>
      <trkpt lat="46.90299" lon="8.55901">
        <ele>947</ele>
        <time>2021-08-10T13:28:57.124Z</time>
      </trkpt>
      <trkpt lat="46.903" lon="8.55902">
        <ele>947</ele>
        <time>2021-08-10T13:28:58.124Z</time>
      </trkpt>
      <trkpt lat="46.90301" lon="8.55902">
        <ele>947</ele>
        <time>2021-08-10T13:28:59.123Z</time>
      </trkpt>
      <trkpt lat="46.90301" lon="8.55903">
        <ele>947</ele>
        <time>2021-08-10T13:29:00.123Z</time>
      </trkpt>
      <trkpt lat="46.90302" lon="8.55903">
        <ele>948</ele>
        <time>2021-08-10T13:29:01.123Z</time>
      </trkpt>
      <trkpt lat="46.90302" lon="8.55904">
        <ele>948</ele>
        <time>2021-08-10T13:29:02.124Z</time>
      </trkpt>
      <trkpt lat="46.90303" lon="8.55904">
        <ele>948</ele>
        <time>2021-08-10T13:29:03.124Z</time>
      </trkpt>
      <trkpt lat="46.90303" lon="8.55905">
        <ele>948</ele>
        <time>2021-08-10T13:29:04.123Z</time>
      </trkpt>
      <trkpt lat="46.90303" lon="8.55906">
        <ele>948</ele>
        <time>2021-08-10T13:29:05.124Z</time>
      </trkpt>
      <trkpt lat="46.90303" lon="8.55907">
        <ele>948</ele>
        <time>2021-08-10T13:29:06.123Z</time>
      </trkpt>
      <trkpt lat="46.90304" lon="8.55906">
        <ele>948</ele>
        <time>2021-08-10T13:29:07.124Z</time>
      </trkpt>
      <trkpt lat="46.90304" lon="8.55906">
        <ele>948</ele>
        <time>2021-08-10T13:29:08.123Z</time>
      </trkpt>
      <trkpt lat="46.90303" lon="8.55906">
        <ele>948</ele>
        <time>2021-08-10T13:29:09.124Z</time>
      </trkpt>
      <trkpt lat="46.90301" lon="8.55903">
        <ele>948</ele>
        <time>2021-08-10T13:29:10.123Z</time>
      </trkpt>
      <trkpt lat="46.90299" lon="8.55901">
        <ele>948</ele>
        <time>2021-08-10T13:29:11.123Z</time>
      </trkpt>
      <trkpt lat="46.90298" lon="8.559">
        <ele>949</ele>
        <time>2021-08-10T13:29:12.123Z</time>
      </trkpt>
      <trkpt lat="46.90297" lon="8.55899">
        <ele>949</ele>
        <time>2021-08-10T13:29:18.235Z</time>
      </trkpt>
      <trkpt lat="46.90295" lon="8.55899">
        <ele>951</ele>
        <time>2021-08-10T13:29:19.236Z</time>
      </trkpt>
      <trkpt lat="46.90294" lon="8.55899">
        <ele>952</ele>
        <time>2021-08-10T13:29:22.978Z</time>
      </trkpt>
      <trkpt lat="46.90294" lon="8.55899">
        <ele>953</ele>
        <time>2021-08-10T13:29:23.978Z</time>
      </trkpt>
      <trkpt lat="46.90294" lon="8.55899">
        <ele>955</ele>
        <time>2021-08-10T13:29:24.978Z</time>
      </trkpt>
      <trkpt lat="46.90294" lon="8.55899">
        <ele>956</ele>
        <time>2021-08-10T13:29:25.978Z</time>
      </trkpt>
      <trkpt lat="46.90294" lon="8.55899">
        <ele>957</ele>
        <time>2021-08-10T13:29:26.978Z</time>
      </trkpt>
      <trkpt lat="46.90293" lon="8.55899">
        <ele>959</ele>
        <time>2021-08-10T13:29:27.979Z</time>
      </trkpt>
      <trkpt lat="46.90293" lon="8.55898">
        <ele>960</ele>
        <time>2021-08-10T13:29:28.979Z</time>
      </trkpt>
      <trkpt lat="46.90292" lon="8.55898">
        <ele>961</ele>
        <time>2021-08-10T13:29:29.978Z</time>
      </trkpt>
      <trkpt lat="46.90291" lon="8.55897">
        <ele>962</ele>
        <time>2021-08-10T13:29:30.979Z</time>
      </trkpt>
      <trkpt lat="46.9029" lon="8.55897">
        <ele>964</ele>
        <time>2021-08-10T13:29:31.979Z</time>
      </trkpt>
      <trkpt lat="46.90289" lon="8.55895">
        <ele>965</ele>
        <time>2021-08-10T13:29:32.979Z</time>
      </trkpt>
      <trkpt lat="46.90288" lon="8.55895">
        <ele>966</ele>
        <time>2021-08-10T13:29:33.978Z</time>
      </trkpt>
      <trkpt lat="46.90289" lon="8.55893">
        <ele>967</ele>
        <time>2021-08-10T13:29:34.979Z</time>
      </trkpt>
      <trkpt lat="46.9029" lon="8.55892">
        <ele>968</ele>
        <time>2021-08-10T13:29:38.106Z</time>
      </trkpt>
      <trkpt lat="46.9029" lon="8.55891">
        <ele>969</ele>
        <time>2021-08-10T13:29:39.106Z</time>
      </trkpt>
      <trkpt lat="46.9029" lon="8.5589">
        <ele>970</ele>
        <time>2021-08-10T13:29:40.106Z</time>
      </trkpt>
      <trkpt lat="46.9029" lon="8.55889">
        <ele>971</ele>
        <time>2021-08-10T13:29:41.105Z</time>
      </trkpt>
      <trkpt lat="46.9029" lon="8.55888">
        <ele>973</ele>
        <time>2021-08-10T13:29:42.105Z</time>
      </trkpt>
      <trkpt lat="46.90289" lon="8.55887">
        <ele>974</ele>
        <time>2021-08-10T13:29:43.106Z</time>
      </trkpt>
      <trkpt lat="46.90288" lon="8.55887">
        <ele>975</ele>
        <time>2021-08-10T13:29:44.106Z</time>
      </trkpt>
      <trkpt lat="46.90288" lon="8.55887">
        <ele>977</ele>
        <time>2021-08-10T13:29:45.106Z</time>
      </trkpt>
      <trkpt lat="46.90287" lon="8.55887">
        <ele>979</ele>
        <time>2021-08-10T13:29:46.106Z</time>
      </trkpt>
      <trkpt lat="46.90287" lon="8.55887">
        <ele>980</ele>
        <time>2021-08-10T13:29:47.105Z</time>
      </trkpt>
      <trkpt lat="46.90285" lon="8.55887">
        <ele>982</ele>
        <time>2021-08-10T13:29:48.106Z</time>
      </trkpt>
      <trkpt lat="46.90284" lon="8.55887">
        <ele>983</ele>
        <time>2021-08-10T13:29:49.106Z</time>
      </trkpt>
      <trkpt lat="46.90284" lon="8.55886">
        <ele>985</ele>
        <time>2021-08-10T13:29:50.106Z</time>
      </trkpt>
      <trkpt lat="46.90283" lon="8.55886">
        <ele>986</ele>
        <time>2021-08-10T13:29:57.211Z</time>
      </trkpt>
      <trkpt lat="46.90283" lon="8.55886">
        <ele>987</ele>
        <time>2021-08-10T13:29:58.211Z</time>
      </trkpt>
      <trkpt lat="46.90283" lon="8.55885">
        <ele>987</ele>
        <time>2021-08-10T13:29:59.211Z</time>
      </trkpt>
      <trkpt lat="46.90282" lon="8.55884">
        <ele>988</ele>
        <time>2021-08-10T13:30:00.211Z</time>
      </trkpt>
      <trkpt lat="46.90282" lon="8.55883">
        <ele>989</ele>
        <time>2021-08-10T13:30:01.211Z</time>
      </trkpt>
      <trkpt lat="46.90282" lon="8.55882">
        <ele>990</ele>
        <time>2021-08-10T13:30:06.379Z</time>
      </trkpt>
      <trkpt lat="46.90281" lon="8.55881">
        <ele>991</ele>
        <time>2021-08-10T13:30:07.378Z</time>
      </trkpt>
      <trkpt lat="46.90281" lon="8.5588">
        <ele>992</ele>
        <time>2021-08-10T13:30:08.379Z</time>
      </trkpt>
      <trkpt lat="46.90281" lon="8.55879">
        <ele>993</ele>
        <time>2021-08-10T13:30:09.379Z</time>
      </trkpt>
      <trkpt lat="46.90281" lon="8.5588">
        <ele>993</ele>
        <time>2021-08-10T13:30:14.498Z</time>
      </trkpt>
      <trkpt lat="46.90281" lon="8.5588">
        <ele>994</ele>
        <time>2021-08-10T13:30:15.498Z</time>
      </trkpt>
      <trkpt lat="46.90281" lon="8.5588">
        <ele>995</ele>
        <time>2021-08-10T13:30:16.497Z</time>
      </trkpt>
      <trkpt lat="46.90281" lon="8.55879">
        <ele>995</ele>
        <time>2021-08-10T13:30:17.497Z</time>
      </trkpt>
      <trkpt lat="46.9028" lon="8.55878">
        <ele>995</ele>
        <time>2021-08-10T13:30:18.498Z</time>
      </trkpt>
      <trkpt lat="46.9028" lon="8.55878">
        <ele>995</ele>
        <time>2021-08-10T13:30:19.497Z</time>
      </trkpt>
      <trkpt lat="46.90279" lon="8.55877">
        <ele>995</ele>
        <time>2021-08-10T13:30:20.497Z</time>
      </trkpt>
      <trkpt lat="46.90279" lon="8.55877">
        <ele>995</ele>
        <time>2021-08-10T13:30:21.498Z</time>
      </trkpt>
      <trkpt lat="46.90278" lon="8.55876">
        <ele>996</ele>
        <time>2021-08-10T13:30:22.497Z</time>
      </trkpt>
      <trkpt lat="46.90277" lon="8.55876">
        <ele>996</ele>
        <time>2021-08-10T13:30:23.498Z</time>
      </trkpt>
      <trkpt lat="46.90277" lon="8.55876">
        <ele>996</ele>
        <time>2021-08-10T13:30:24.498Z</time>
      </trkpt>
      <trkpt lat="46.90277" lon="8.55876">
        <ele>996</ele>
        <time>2021-08-10T13:30:25.497Z</time>
      </trkpt>
      <trkpt lat="46.90276" lon="8.55876">
        <ele>995</ele>
        <time>2021-08-10T13:30:30.622Z</time>
      </trkpt>
      <trkpt lat="46.90276" lon="8.55877">
        <ele>995</ele>
        <time>2021-08-10T13:30:31.622Z</time>
      </trkpt>
      <trkpt lat="46.90275" lon="8.55878">
        <ele>994</ele>
        <time>2021-08-10T13:30:37.472Z</time>
      </trkpt>
      <trkpt lat="46.90275" lon="8.55879">
        <ele>994</ele>
        <time>2021-08-10T13:30:38.473Z</time>
      </trkpt>
      <trkpt lat="46.90275" lon="8.55879">
        <ele>993</ele>
        <time>2021-08-10T13:30:39.472Z</time>
      </trkpt>
      <trkpt lat="46.90274" lon="8.55879">
        <ele>993</ele>
        <time>2021-08-10T13:30:40.473Z</time>
      </trkpt>
      <trkpt lat="46.90274" lon="8.55879">
        <ele>992</ele>
        <time>2021-08-10T13:30:41.472Z</time>
      </trkpt>
      <trkpt lat="46.90274" lon="8.55879">
        <ele>992</ele>
        <time>2021-08-10T13:30:49.603Z</time>
      </trkpt>
      <trkpt lat="46.90274" lon="8.55878">
        <ele>992</ele>
        <time>2021-08-10T13:31:05.369Z</time>
      </trkpt>
      <trkpt lat="46.90275" lon="8.55879">
        <ele>993</ele>
        <time>2021-08-10T13:31:06.368Z</time>
      </trkpt>
      <trkpt lat="46.90278" lon="8.55881">
        <ele>992</ele>
        <time>2021-08-10T13:31:07.369Z</time>
      </trkpt>
      <trkpt lat="46.90278" lon="8.55882">
        <ele>992</ele>
        <time>2021-08-10T13:31:08.368Z</time>
      </trkpt>
      <trkpt lat="46.90279" lon="8.55882">
        <ele>991</ele>
        <time>2021-08-10T13:31:21.479Z</time>
      </trkpt>
      <trkpt lat="46.90279" lon="8.55883">
        <ele>991</ele>
        <time>2021-08-10T13:31:22.479Z</time>
      </trkpt>
      <trkpt lat="46.90279" lon="8.55884">
        <ele>990</ele>
        <time>2021-08-10T13:31:25.360Z</time>
      </trkpt>
      <trkpt lat="46.90279" lon="8.55885">
        <ele>990</ele>
        <time>2021-08-10T13:31:29.116Z</time>
      </trkpt>
      <trkpt lat="46.9028" lon="8.55885">
        <ele>989</ele>
        <time>2021-08-10T13:31:30.115Z</time>
      </trkpt>
      <trkpt lat="46.9028" lon="8.55885">
        <ele>989</ele>
        <time>2021-08-10T13:31:31.115Z</time>
      </trkpt>
      <trkpt lat="46.9028" lon="8.55884">
        <ele>988</ele>
        <time>2021-08-10T13:31:36.232Z</time>
      </trkpt>
      <trkpt lat="46.90281" lon="8.55885">
        <ele>988</ele>
        <time>2021-08-10T13:31:37.231Z</time>
      </trkpt>
      <trkpt lat="46.90282" lon="8.55885">
        <ele>988</ele>
        <time>2021-08-10T13:31:39.963Z</time>
      </trkpt>
      <trkpt lat="46.90283" lon="8.55885">
        <ele>987</ele>
        <time>2021-08-10T13:31:40.963Z</time>
      </trkpt>
      <trkpt lat="46.90282" lon="8.55884">
        <ele>987</ele>
        <time>2021-08-10T13:31:41.964Z</time>
      </trkpt>
      <trkpt lat="46.90282" lon="8.55883">
        <ele>987</ele>
        <time>2021-08-10T13:31:42.963Z</time>
      </trkpt>
      <trkpt lat="46.90282" lon="8.55882">
        <ele>986</ele>
        <time>2021-08-10T13:31:43.963Z</time>
      </trkpt>
      <trkpt lat="46.90281" lon="8.55882">
        <ele>986</ele>
        <time>2021-08-10T13:31:44.964Z</time>
      </trkpt>
      <trkpt lat="46.9028" lon="8.55881">
        <ele>985</ele>
        <time>2021-08-10T13:31:45.963Z</time>
      </trkpt>
      <trkpt lat="46.9028" lon="8.55881">
        <ele>985</ele>
        <time>2021-08-10T13:31:46.964Z</time>
      </trkpt>
      <trkpt lat="46.9028" lon="8.55882">
        <ele>985</ele>
        <time>2021-08-10T13:31:47.963Z</time>
      </trkpt>
      <trkpt lat="46.9028" lon="8.55883">
        <ele>985</ele>
        <time>2021-08-10T13:31:48.963Z</time>
      </trkpt>
      <trkpt lat="46.90281" lon="8.55884">
        <ele>985</ele>
        <time>2021-08-10T13:31:49.963Z</time>
      </trkpt>
      <trkpt lat="46.90281" lon="8.55886">
        <ele>984</ele>
        <time>2021-08-10T13:31:50.964Z</time>
      </trkpt>
      <trkpt lat="46.90281" lon="8.55887">
        <ele>983</ele>
        <time>2021-08-10T13:31:51.964Z</time>
      </trkpt>
      <trkpt lat="46.90282" lon="8.55888">
        <ele>983</ele>
        <time>2021-08-10T13:31:52.963Z</time>
      </trkpt>
      <trkpt lat="46.90282" lon="8.55889">
        <ele>982</ele>
        <time>2021-08-10T13:31:53.964Z</time>
      </trkpt>
      <trkpt lat="46.90282" lon="8.55891">
        <ele>981</ele>
        <time>2021-08-10T13:31:54.963Z</time>
      </trkpt>
      <trkpt lat="46.90282" lon="8.55893">
        <ele>981</ele>
        <time>2021-08-10T13:31:55.963Z</time>
      </trkpt>
      <trkpt lat="46.90283" lon="8.55894">
        <ele>980</ele>
        <time>2021-08-10T13:31:56.964Z</time>
      </trkpt>
      <trkpt lat="46.90283" lon="8.55896">
        <ele>979</ele>
        <time>2021-08-10T13:31:57.963Z</time>
      </trkpt>
      <trkpt lat="46.90284" lon="8.55897">
        <ele>979</ele>
        <time>2021-08-10T13:31:58.964Z</time>
      </trkpt>
      <trkpt lat="46.90284" lon="8.55898">
        <ele>978</ele>
        <time>2021-08-10T13:31:59.963Z</time>
      </trkpt>
      <trkpt lat="46.90284" lon="8.55899">
        <ele>977</ele>
        <time>2021-08-10T13:32:00.964Z</time>
      </trkpt>
      <trkpt lat="46.90283" lon="8.55898">
        <ele>976</ele>
        <time>2021-08-10T13:32:01.963Z</time>
      </trkpt>
      <trkpt lat="46.90281" lon="8.55896">
        <ele>975</ele>
        <time>2021-08-10T13:32:02.963Z</time>
      </trkpt>
      <trkpt lat="46.9028" lon="8.55893">
        <ele>975</ele>
        <time>2021-08-10T13:32:03.964Z</time>
      </trkpt>
      <trkpt lat="46.90279" lon="8.55892">
        <ele>974</ele>
        <time>2021-08-10T13:32:04.964Z</time>
      </trkpt>
      <trkpt lat="46.90278" lon="8.55891">
        <ele>973</ele>
        <time>2021-08-10T13:32:05.964Z</time>
      </trkpt>
      <trkpt lat="46.90278" lon="8.55891">
        <ele>972</ele>
        <time>2021-08-10T13:32:06.964Z</time>
      </trkpt>
      <trkpt lat="46.90277" lon="8.55891">
        <ele>972</ele>
        <time>2021-08-10T13:32:07.964Z</time>
      </trkpt>
      <trkpt lat="46.90277" lon="8.55891">
        <ele>971</ele>
        <time>2021-08-10T13:32:08.964Z</time>
      </trkpt>
      <trkpt lat="46.90276" lon="8.55891">
        <ele>970</ele>
        <time>2021-08-10T13:32:09.963Z</time>
      </trkpt>
      <trkpt lat="46.90274" lon="8.55891">
        <ele>970</ele>
        <time>2021-08-10T13:32:10.963Z</time>
      </trkpt>
      <trkpt lat="46.90273" lon="8.55892">
        <ele>970</ele>
        <time>2021-08-10T13:32:11.963Z</time>
      </trkpt>
      <trkpt lat="46.90273" lon="8.55892">
        <ele>969</ele>
        <time>2021-08-10T13:32:12.963Z</time>
      </trkpt>
      <trkpt lat="46.90272" lon="8.55893">
        <ele>969</ele>
        <time>2021-08-10T13:32:13.963Z</time>
      </trkpt>
      <trkpt lat="46.90271" lon="8.55894">
        <ele>968</ele>
        <time>2021-08-10T13:32:14.963Z</time>
      </trkpt>
      <trkpt lat="46.9027" lon="8.55895">
        <ele>967</ele>
        <time>2021-08-10T13:32:15.964Z</time>
      </trkpt>
      <trkpt lat="46.90269" lon="8.55896">
        <ele>966</ele>
        <time>2021-08-10T13:32:16.964Z</time>
      </trkpt>
      <trkpt lat="46.90269" lon="8.55897">
        <ele>966</ele>
        <time>2021-08-10T13:32:17.963Z</time>
      </trkpt>
      <trkpt lat="46.90268" lon="8.55897">
        <ele>964</ele>
        <time>2021-08-10T13:32:18.965Z</time>
      </trkpt>
      <trkpt lat="46.90268" lon="8.55897">
        <ele>964</ele>
        <time>2021-08-10T13:32:19.840Z</time>
      </trkpt>
      <trkpt lat="46.90269" lon="8.55902">
        <ele>963</ele>
        <time>2021-08-10T13:32:20.964Z</time>
      </trkpt>
      <trkpt lat="46.90269" lon="8.55904">
        <ele>962</ele>
        <time>2021-08-10T13:32:21.840Z</time>
      </trkpt>
      <trkpt lat="46.9027" lon="8.55904">
        <ele>962</ele>
        <time>2021-08-10T13:32:22.840Z</time>
      </trkpt>
      <trkpt lat="46.9027" lon="8.55905">
        <ele>962</ele>
        <time>2021-08-10T13:32:23.964Z</time>
      </trkpt>
      <trkpt lat="46.9027" lon="8.55906">
        <ele>962</ele>
        <time>2021-08-10T13:32:24.840Z</time>
      </trkpt>
      <trkpt lat="46.90271" lon="8.55906">
        <ele>962</ele>
        <time>2021-08-10T13:32:25.840Z</time>
      </trkpt>
      <trkpt lat="46.90271" lon="8.55906">
        <ele>963</ele>
        <time>2021-08-10T13:32:26.964Z</time>
      </trkpt>
      <trkpt lat="46.90271" lon="8.55907">
        <ele>963</ele>
        <time>2021-08-10T13:32:27.840Z</time>
      </trkpt>
      <trkpt lat="46.90271" lon="8.55909">
        <ele>963</ele>
        <time>2021-08-10T13:32:28.840Z</time>
      </trkpt>
      <trkpt lat="46.9027" lon="8.55909">
        <ele>963</ele>
        <time>2021-08-10T13:32:29.840Z</time>
      </trkpt>
      <trkpt lat="46.90267" lon="8.55913">
        <ele>964</ele>
        <time>2021-08-10T13:32:33.964Z</time>
      </trkpt>
      <trkpt lat="46.90267" lon="8.55913">
        <ele>964</ele>
        <time>2021-08-10T13:32:34.840Z</time>
      </trkpt>
      <trkpt lat="46.90267" lon="8.55913">
        <ele>964</ele>
        <time>2021-08-10T13:32:35.840Z</time>
      </trkpt>
      <trkpt lat="46.90266" lon="8.55913">
        <ele>964</ele>
        <time>2021-08-10T13:32:36.840Z</time>
      </trkpt>
      <trkpt lat="46.90265" lon="8.55913">
        <ele>964</ele>
        <time>2021-08-10T13:32:42.983Z</time>
      </trkpt>
      <trkpt lat="46.90264" lon="8.55914">
        <ele>964</ele>
        <time>2021-08-10T13:32:43.983Z</time>
      </trkpt>
      <trkpt lat="46.90263" lon="8.55914">
        <ele>964</ele>
        <time>2021-08-10T13:32:44.983Z</time>
      </trkpt>
      <trkpt lat="46.90263" lon="8.55914">
        <ele>963</ele>
        <time>2021-08-10T13:32:45.983Z</time>
      </trkpt>
      <trkpt lat="46.90262" lon="8.55914">
        <ele>963</ele>
        <time>2021-08-10T13:32:46.983Z</time>
      </trkpt>
      <trkpt lat="46.90262" lon="8.55918">
        <ele>962</ele>
        <time>2021-08-10T13:32:48.108Z</time>
      </trkpt>
      <trkpt lat="46.90262" lon="8.55918">
        <ele>962</ele>
        <time>2021-08-10T13:32:48.983Z</time>
      </trkpt>
      <trkpt lat="46.90263" lon="8.55922">
        <ele>962</ele>
        <time>2021-08-10T13:32:49.983Z</time>
      </trkpt>
      <trkpt lat="46.90264" lon="8.55925">
        <ele>962</ele>
        <time>2021-08-10T13:32:50.983Z</time>
      </trkpt>
      <trkpt lat="46.90265" lon="8.55927">
        <ele>961</ele>
        <time>2021-08-10T13:32:51.983Z</time>
      </trkpt>
      <trkpt lat="46.90265" lon="8.55929">
        <ele>961</ele>
        <time>2021-08-10T13:32:52.983Z</time>
      </trkpt>
      <trkpt lat="46.90266" lon="8.55931">
        <ele>962</ele>
        <time>2021-08-10T13:32:53.983Z</time>
      </trkpt>
      <trkpt lat="46.90266" lon="8.55933">
        <ele>962</ele>
        <time>2021-08-10T13:32:54.983Z</time>
      </trkpt>
      <trkpt lat="46.90267" lon="8.55934">
        <ele>962</ele>
        <time>2021-08-10T13:32:55.983Z</time>
      </trkpt>
      <trkpt lat="46.90267" lon="8.55936">
        <ele>962</ele>
        <time>2021-08-10T13:32:57.108Z</time>
      </trkpt>
      <trkpt lat="46.90268" lon="8.55937">
        <ele>963</ele>
        <time>2021-08-10T13:32:58.107Z</time>
      </trkpt>
      <trkpt lat="46.90268" lon="8.55937">
        <ele>963</ele>
        <time>2021-08-10T13:32:58.983Z</time>
      </trkpt>
      <trkpt lat="46.90268" lon="8.55938">
        <ele>963</ele>
        <time>2021-08-10T13:32:59.983Z</time>
      </trkpt>
      <trkpt lat="46.90269" lon="8.55939">
        <ele>963</ele>
        <time>2021-08-10T13:33:00.983Z</time>
      </trkpt>
      <trkpt lat="46.9027" lon="8.55939">
        <ele>964</ele>
        <time>2021-08-10T13:33:01.983Z</time>
      </trkpt>
      <trkpt lat="46.9027" lon="8.5594">
        <ele>965</ele>
        <time>2021-08-10T13:33:02.983Z</time>
      </trkpt>
      <trkpt lat="46.9027" lon="8.55941">
        <ele>965</ele>
        <time>2021-08-10T13:33:03.983Z</time>
      </trkpt>
      <trkpt lat="46.90271" lon="8.55942">
        <ele>966</ele>
        <time>2021-08-10T13:33:04.983Z</time>
      </trkpt>
      <trkpt lat="46.90271" lon="8.55943">
        <ele>967</ele>
        <time>2021-08-10T13:33:05.983Z</time>
      </trkpt>
      <trkpt lat="46.90269" lon="8.55942">
        <ele>968</ele>
        <time>2021-08-10T13:33:07.108Z</time>
      </trkpt>
      <trkpt lat="46.90269" lon="8.55942">
        <ele>968</ele>
        <time>2021-08-10T13:33:07.983Z</time>
      </trkpt>
      <trkpt lat="46.90266" lon="8.55941">
        <ele>970</ele>
        <time>2021-08-10T13:33:09.108Z</time>
      </trkpt>
      <trkpt lat="46.90266" lon="8.55941">
        <ele>970</ele>
        <time>2021-08-10T13:33:09.983Z</time>
      </trkpt>
      <trkpt lat="46.90265" lon="8.5594">
        <ele>970</ele>
        <time>2021-08-10T13:33:10.983Z</time>
      </trkpt>
      <trkpt lat="46.90264" lon="8.55938">
        <ele>971</ele>
        <time>2021-08-10T13:33:11.983Z</time>
      </trkpt>
      <trkpt lat="46.90263" lon="8.55937">
        <ele>971</ele>
        <time>2021-08-10T13:33:12.983Z</time>
      </trkpt>
      <trkpt lat="46.90263" lon="8.55936">
        <ele>972</ele>
        <time>2021-08-10T13:33:14.107Z</time>
      </trkpt>
      <trkpt lat="46.90263" lon="8.55936">
        <ele>972</ele>
        <time>2021-08-10T13:33:14.983Z</time>
      </trkpt>
      <trkpt lat="46.90261" lon="8.55936">
        <ele>973</ele>
        <time>2021-08-10T13:33:16.108Z</time>
      </trkpt>
      <trkpt lat="46.90261" lon="8.55936">
        <ele>973</ele>
        <time>2021-08-10T13:33:16.983Z</time>
      </trkpt>
      <trkpt lat="46.90261" lon="8.55935">
        <ele>973</ele>
        <time>2021-08-10T13:33:17.983Z</time>
      </trkpt>
      <trkpt lat="46.9026" lon="8.55935">
        <ele>973</ele>
        <time>2021-08-10T13:33:19.108Z</time>
      </trkpt>
      <trkpt lat="46.9026" lon="8.55935">
        <ele>973</ele>
        <time>2021-08-10T13:33:19.983Z</time>
      </trkpt>
      <trkpt lat="46.9026" lon="8.55935">
        <ele>973</ele>
        <time>2021-08-10T13:33:20.983Z</time>
      </trkpt>
      <trkpt lat="46.90259" lon="8.55935">
        <ele>974</ele>
        <time>2021-08-10T13:33:22.107Z</time>
      </trkpt>
      <trkpt lat="46.90259" lon="8.55935">
        <ele>974</ele>
        <time>2021-08-10T13:33:22.983Z</time>
      </trkpt>
      <trkpt lat="46.90259" lon="8.55934">
        <ele>974</ele>
        <time>2021-08-10T13:33:23.983Z</time>
      </trkpt>
      <trkpt lat="46.90258" lon="8.55934">
        <ele>974</ele>
        <time>2021-08-10T13:33:24.983Z</time>
      </trkpt>
      <trkpt lat="46.90258" lon="8.55934">
        <ele>974</ele>
        <time>2021-08-10T13:33:25.983Z</time>
      </trkpt>
      <trkpt lat="46.90257" lon="8.55934">
        <ele>974</ele>
        <time>2021-08-10T13:33:26.983Z</time>
      </trkpt>
      <trkpt lat="46.90257" lon="8.55933">
        <ele>974</ele>
        <time>2021-08-10T13:33:27.983Z</time>
      </trkpt>
      <trkpt lat="46.90255" lon="8.55932">
        <ele>974</ele>
        <time>2021-08-10T13:33:28.983Z</time>
      </trkpt>
      <trkpt lat="46.90254" lon="8.55932">
        <ele>974</ele>
        <time>2021-08-10T13:33:29.983Z</time>
      </trkpt>
      <trkpt lat="46.90254" lon="8.55932">
        <ele>974</ele>
        <time>2021-08-10T13:33:30.983Z</time>
      </trkpt>
      <trkpt lat="46.90254" lon="8.55932">
        <ele>974</ele>
        <time>2021-08-10T13:33:31.983Z</time>
      </trkpt>
      <trkpt lat="46.90253" lon="8.55931">
        <ele>974</ele>
        <time>2021-08-10T13:33:33.108Z</time>
      </trkpt>
      <trkpt lat="46.90252" lon="8.55931">
        <ele>973</ele>
        <time>2021-08-10T13:33:34.107Z</time>
      </trkpt>
      <trkpt lat="46.90252" lon="8.55931">
        <ele>973</ele>
        <time>2021-08-10T13:33:36.104Z</time>
      </trkpt>
      <trkpt lat="46.90251" lon="8.55931">
        <ele>973</ele>
        <time>2021-08-10T13:33:37.104Z</time>
      </trkpt>
      <trkpt lat="46.9025" lon="8.55931">
        <ele>973</ele>
        <time>2021-08-10T13:33:38.104Z</time>
      </trkpt>
      <trkpt lat="46.90249" lon="8.5593">
        <ele>974</ele>
        <time>2021-08-10T13:33:39.228Z</time>
      </trkpt>
      <trkpt lat="46.90249" lon="8.5593">
        <ele>974</ele>
        <time>2021-08-10T13:33:40.104Z</time>
      </trkpt>
      <trkpt lat="46.90248" lon="8.5593">
        <ele>975</ele>
        <time>2021-08-10T13:33:41.104Z</time>
      </trkpt>
      <trkpt lat="46.90247" lon="8.5593">
        <ele>975</ele>
        <time>2021-08-10T13:33:42.104Z</time>
      </trkpt>
      <trkpt lat="46.90246" lon="8.5593">
        <ele>976</ele>
        <time>2021-08-10T13:33:43.104Z</time>
      </trkpt>
      <trkpt lat="46.90245" lon="8.55931">
        <ele>977</ele>
        <time>2021-08-10T13:33:44.104Z</time>
      </trkpt>
      <trkpt lat="46.90244" lon="8.55931">
        <ele>977</ele>
        <time>2021-08-10T13:33:45.104Z</time>
      </trkpt>
      <trkpt lat="46.90242" lon="8.55931">
        <ele>978</ele>
        <time>2021-08-10T13:33:46.228Z</time>
      </trkpt>
      <trkpt lat="46.90241" lon="8.55932">
        <ele>979</ele>
        <time>2021-08-10T13:33:47.229Z</time>
      </trkpt>
      <trkpt lat="46.90241" lon="8.55932">
        <ele>979</ele>
        <time>2021-08-10T13:33:48.104Z</time>
      </trkpt>
      <trkpt lat="46.90239" lon="8.55932">
        <ele>979</ele>
        <time>2021-08-10T13:33:49.104Z</time>
      </trkpt>
      <trkpt lat="46.90238" lon="8.55932">
        <ele>980</ele>
        <time>2021-08-10T13:33:50.228Z</time>
      </trkpt>
      <trkpt lat="46.90238" lon="8.55932">
        <ele>980</ele>
        <time>2021-08-10T13:33:51.104Z</time>
      </trkpt>
      <trkpt lat="46.90237" lon="8.55932">
        <ele>981</ele>
        <time>2021-08-10T13:33:52.104Z</time>
      </trkpt>
      <trkpt lat="46.90236" lon="8.55932">
        <ele>981</ele>
        <time>2021-08-10T13:33:53.104Z</time>
      </trkpt>
      <trkpt lat="46.90235" lon="8.55933">
        <ele>982</ele>
        <time>2021-08-10T13:33:54.229Z</time>
      </trkpt>
      <trkpt lat="46.90235" lon="8.55933">
        <ele>982</ele>
        <time>2021-08-10T13:33:55.104Z</time>
      </trkpt>
      <trkpt lat="46.90235" lon="8.55933">
        <ele>982</ele>
        <time>2021-08-10T13:33:56.104Z</time>
      </trkpt>
      <trkpt lat="46.90234" lon="8.55933">
        <ele>982</ele>
        <time>2021-08-10T13:33:57.228Z</time>
      </trkpt>
      <trkpt lat="46.90233" lon="8.55934">
        <ele>982</ele>
        <time>2021-08-10T13:33:58.229Z</time>
      </trkpt>
      <trkpt lat="46.90232" lon="8.55934">
        <ele>982</ele>
        <time>2021-08-10T13:33:59.229Z</time>
      </trkpt>
      <trkpt lat="46.90232" lon="8.55935">
        <ele>982</ele>
        <time>2021-08-10T13:34:00.229Z</time>
      </trkpt>
      <trkpt lat="46.90231" lon="8.55936">
        <ele>982</ele>
        <time>2021-08-10T13:34:01.229Z</time>
      </trkpt>
      <trkpt lat="46.9023" lon="8.55935">
        <ele>982</ele>
        <time>2021-08-10T13:34:02.228Z</time>
      </trkpt>
      <trkpt lat="46.9023" lon="8.55935">
        <ele>982</ele>
        <time>2021-08-10T13:34:03.104Z</time>
      </trkpt>
      <trkpt lat="46.90229" lon="8.55936">
        <ele>982</ele>
        <time>2021-08-10T13:34:04.104Z</time>
      </trkpt>
      <trkpt lat="46.90228" lon="8.55936">
        <ele>982</ele>
        <time>2021-08-10T13:34:05.104Z</time>
      </trkpt>
      <trkpt lat="46.90227" lon="8.55936">
        <ele>983</ele>
        <time>2021-08-10T13:34:06.104Z</time>
      </trkpt>
      <trkpt lat="46.90226" lon="8.55935">
        <ele>983</ele>
        <time>2021-08-10T13:34:07.229Z</time>
      </trkpt>
      <trkpt lat="46.90226" lon="8.55935">
        <ele>983</ele>
        <time>2021-08-10T13:34:08.104Z</time>
      </trkpt>
      <trkpt lat="46.90226" lon="8.55935">
        <ele>984</ele>
        <time>2021-08-10T13:34:09.104Z</time>
      </trkpt>
      <trkpt lat="46.90225" lon="8.55934">
        <ele>984</ele>
        <time>2021-08-10T13:34:10.104Z</time>
      </trkpt>
      <trkpt lat="46.90224" lon="8.55934">
        <ele>983</ele>
        <time>2021-08-10T13:34:11.228Z</time>
      </trkpt>
      <trkpt lat="46.90224" lon="8.55934">
        <ele>983</ele>
        <time>2021-08-10T13:34:12.104Z</time>
      </trkpt>
      <trkpt lat="46.90224" lon="8.55933">
        <ele>982</ele>
        <time>2021-08-10T13:34:13.104Z</time>
      </trkpt>
      <trkpt lat="46.90223" lon="8.55932">
        <ele>981</ele>
        <time>2021-08-10T13:34:14.104Z</time>
      </trkpt>
      <trkpt lat="46.90223" lon="8.55932">
        <ele>981</ele>
        <time>2021-08-10T13:34:15.104Z</time>
      </trkpt>
      <trkpt lat="46.90222" lon="8.55931">
        <ele>981</ele>
        <time>2021-08-10T13:34:16.104Z</time>
      </trkpt>
      <trkpt lat="46.90222" lon="8.55931">
        <ele>981</ele>
        <time>2021-08-10T13:34:17.104Z</time>
      </trkpt>
      <trkpt lat="46.90222" lon="8.5593">
        <ele>981</ele>
        <time>2021-08-10T13:34:18.104Z</time>
      </trkpt>
      <trkpt lat="46.90222" lon="8.55933">
        <ele>980</ele>
        <time>2021-08-10T13:34:19.104Z</time>
      </trkpt>
      <trkpt lat="46.90221" lon="8.55933">
        <ele>980</ele>
        <time>2021-08-10T13:34:20.104Z</time>
      </trkpt>
      <trkpt lat="46.90219" lon="8.55935">
        <ele>980</ele>
        <time>2021-08-10T13:34:21.104Z</time>
      </trkpt>
      <trkpt lat="46.90219" lon="8.55936">
        <ele>980</ele>
        <time>2021-08-10T13:34:22.104Z</time>
      </trkpt>
      <trkpt lat="46.90216" lon="8.55931">
        <ele>976</ele>
        <time>2021-08-10T13:34:23.104Z</time>
      </trkpt>
      <trkpt lat="46.90215" lon="8.55931">
        <ele>976</ele>
        <time>2021-08-10T13:34:24.104Z</time>
      </trkpt>
      <trkpt lat="46.90215" lon="8.55931">
        <ele>975</ele>
        <time>2021-08-10T13:34:25.105Z</time>
      </trkpt>
      <trkpt lat="46.90215" lon="8.55931">
        <ele>974</ele>
        <time>2021-08-10T13:34:26.105Z</time>
      </trkpt>
      <trkpt lat="46.90214" lon="8.5593">
        <ele>974</ele>
        <time>2021-08-10T13:34:27.104Z</time>
      </trkpt>
      <trkpt lat="46.90213" lon="8.55932">
        <ele>972</ele>
        <time>2021-08-10T13:34:28.106Z</time>
      </trkpt>
      <trkpt lat="46.90213" lon="8.55932">
        <ele>971</ele>
        <time>2021-08-10T13:34:29.106Z</time>
      </trkpt>
      <trkpt lat="46.90213" lon="8.55932">
        <ele>970</ele>
        <time>2021-08-10T13:34:30.105Z</time>
      </trkpt>
      <trkpt lat="46.90212" lon="8.55935">
        <ele>968</ele>
        <time>2021-08-10T13:34:31.107Z</time>
      </trkpt>
      <trkpt lat="46.90212" lon="8.55935">
        <ele>969</ele>
        <time>2021-08-10T13:34:32.106Z</time>
      </trkpt>
      <trkpt lat="46.90211" lon="8.55928">
        <ele>969</ele>
        <time>2021-08-10T13:34:33.108Z</time>
      </trkpt>
      <trkpt lat="46.9021" lon="8.55926">
        <ele>970</ele>
        <time>2021-08-10T13:34:34.108Z</time>
      </trkpt>
      <trkpt lat="46.90211" lon="8.55925">
        <ele>970</ele>
        <time>2021-08-10T13:34:35.107Z</time>
      </trkpt>
      <trkpt lat="46.90211" lon="8.55924">
        <ele>971</ele>
        <time>2021-08-10T13:34:36.108Z</time>
      </trkpt>
      <trkpt lat="46.90211" lon="8.55923">
        <ele>971</ele>
        <time>2021-08-10T13:34:37.107Z</time>
      </trkpt>
      <trkpt lat="46.90212" lon="8.55921">
        <ele>972</ele>
        <time>2021-08-10T13:34:38.107Z</time>
      </trkpt>
      <trkpt lat="46.90212" lon="8.55924">
        <ele>977</ele>
        <time>2021-08-10T13:34:39.107Z</time>
      </trkpt>
      <trkpt lat="46.90211" lon="8.55924">
        <ele>994</ele>
        <time>2021-08-10T13:34:40.108Z</time>
      </trkpt>
      <trkpt lat="46.90212" lon="8.55925">
        <ele>995</ele>
        <time>2021-08-10T13:34:41.108Z</time>
      </trkpt>
      <trkpt lat="46.90212" lon="8.55925">
        <ele>997</ele>
        <time>2021-08-10T13:34:42.107Z</time>
      </trkpt>
      <trkpt lat="46.90211" lon="8.55925">
        <ele>1001</ele>
        <time>2021-08-10T13:34:43.107Z</time>
      </trkpt>
      <trkpt lat="46.90209" lon="8.55923">
        <ele>1001</ele>
        <time>2021-08-10T13:34:44.107Z</time>
      </trkpt>
      <trkpt lat="46.90208" lon="8.55922">
        <ele>1001</ele>
        <time>2021-08-10T13:34:45.107Z</time>
      </trkpt>
      <trkpt lat="46.90207" lon="8.5592">
        <ele>1000</ele>
        <time>2021-08-10T13:34:46.108Z</time>
      </trkpt>
      <trkpt lat="46.90206" lon="8.5592">
        <ele>999</ele>
        <time>2021-08-10T13:34:47.107Z</time>
      </trkpt>
      <trkpt lat="46.90206" lon="8.5592">
        <ele>998</ele>
        <time>2021-08-10T13:34:48.107Z</time>
      </trkpt>
      <trkpt lat="46.90205" lon="8.55921">
        <ele>998</ele>
        <time>2021-08-10T13:34:49.108Z</time>
      </trkpt>
      <trkpt lat="46.90205" lon="8.55921">
        <ele>997</ele>
        <time>2021-08-10T13:34:50.108Z</time>
      </trkpt>
      <trkpt lat="46.90204" lon="8.55921">
        <ele>996</ele>
        <time>2021-08-10T13:34:51.108Z</time>
      </trkpt>
      <trkpt lat="46.90203" lon="8.5592">
        <ele>995</ele>
        <time>2021-08-10T13:34:52.107Z</time>
      </trkpt>
      <trkpt lat="46.90203" lon="8.5592">
        <ele>994</ele>
        <time>2021-08-10T13:34:53.108Z</time>
      </trkpt>
      <trkpt lat="46.90201" lon="8.55919">
        <ele>993</ele>
        <time>2021-08-10T13:34:54.107Z</time>
      </trkpt>
      <trkpt lat="46.902" lon="8.55919">
        <ele>992</ele>
        <time>2021-08-10T13:34:55.108Z</time>
      </trkpt>
      <trkpt lat="46.902" lon="8.55919">
        <ele>991</ele>
        <time>2021-08-10T13:34:56.108Z</time>
      </trkpt>
      <trkpt lat="46.902" lon="8.55919">
        <ele>990</ele>
        <time>2021-08-10T13:34:57.108Z</time>
      </trkpt>
      <trkpt lat="46.90199" lon="8.5592">
        <ele>989</ele>
        <time>2021-08-10T13:34:58.108Z</time>
      </trkpt>
      <trkpt lat="46.90198" lon="8.55921">
        <ele>988</ele>
        <time>2021-08-10T13:34:59.108Z</time>
      </trkpt>
      <trkpt lat="46.90197" lon="8.55922">
        <ele>987</ele>
        <time>2021-08-10T13:35:00.108Z</time>
      </trkpt>
      <trkpt lat="46.90197" lon="8.55923">
        <ele>987</ele>
        <time>2021-08-10T13:35:01.107Z</time>
      </trkpt>
      <trkpt lat="46.90197" lon="8.55923">
        <ele>986</ele>
        <time>2021-08-10T13:35:02.108Z</time>
      </trkpt>
      <trkpt lat="46.90198" lon="8.55924">
        <ele>985</ele>
        <time>2021-08-10T13:35:03.108Z</time>
      </trkpt>
      <trkpt lat="46.90198" lon="8.55925">
        <ele>984</ele>
        <time>2021-08-10T13:35:04.108Z</time>
      </trkpt>
      <trkpt lat="46.90198" lon="8.55928">
        <ele>981</ele>
        <time>2021-08-10T13:35:05.108Z</time>
      </trkpt>
      <trkpt lat="46.90197" lon="8.55928">
        <ele>981</ele>
        <time>2021-08-10T13:35:06.107Z</time>
      </trkpt>
      <trkpt lat="46.90197" lon="8.55928">
        <ele>981</ele>
        <time>2021-08-10T13:35:07.107Z</time>
      </trkpt>
      <trkpt lat="46.90196" lon="8.55929">
        <ele>980</ele>
        <time>2021-08-10T13:35:08.108Z</time>
      </trkpt>
      <trkpt lat="46.90196" lon="8.55929">
        <ele>980</ele>
        <time>2021-08-10T13:35:09.108Z</time>
      </trkpt>
      <trkpt lat="46.90195" lon="8.55929">
        <ele>980</ele>
        <time>2021-08-10T13:35:10.107Z</time>
      </trkpt>
      <trkpt lat="46.90195" lon="8.5593">
        <ele>980</ele>
        <time>2021-08-10T13:35:11.108Z</time>
      </trkpt>
      <trkpt lat="46.90194" lon="8.5593">
        <ele>980</ele>
        <time>2021-08-10T13:35:12.108Z</time>
      </trkpt>
      <trkpt lat="46.90194" lon="8.55931">
        <ele>980</ele>
        <time>2021-08-10T13:35:13.107Z</time>
      </trkpt>
      <trkpt lat="46.90193" lon="8.55931">
        <ele>980</ele>
        <time>2021-08-10T13:35:14.107Z</time>
      </trkpt>
      <trkpt lat="46.90193" lon="8.55932">
        <ele>980</ele>
        <time>2021-08-10T13:35:15.107Z</time>
      </trkpt>
      <trkpt lat="46.90192" lon="8.55932">
        <ele>981</ele>
        <time>2021-08-10T13:35:16.108Z</time>
      </trkpt>
      <trkpt lat="46.90192" lon="8.55933">
        <ele>982</ele>
        <time>2021-08-10T13:35:17.108Z</time>
      </trkpt>
      <trkpt lat="46.90191" lon="8.55935">
        <ele>982</ele>
        <time>2021-08-10T13:35:18.108Z</time>
      </trkpt>
      <trkpt lat="46.9019" lon="8.55936">
        <ele>983</ele>
        <time>2021-08-10T13:35:19.107Z</time>
      </trkpt>
      <trkpt lat="46.90188" lon="8.55936">
        <ele>983</ele>
        <time>2021-08-10T13:35:20.107Z</time>
      </trkpt>
      <trkpt lat="46.90187" lon="8.55936">
        <ele>983</ele>
        <time>2021-08-10T13:35:21.108Z</time>
      </trkpt>
      <trkpt lat="46.90185" lon="8.55936">
        <ele>984</ele>
        <time>2021-08-10T13:35:22.108Z</time>
      </trkpt>
      <trkpt lat="46.90183" lon="8.55936">
        <ele>984</ele>
        <time>2021-08-10T13:35:23.108Z</time>
      </trkpt>
      <trkpt lat="46.90183" lon="8.55935">
        <ele>984</ele>
        <time>2021-08-10T13:35:24.107Z</time>
      </trkpt>
      <trkpt lat="46.90182" lon="8.55934">
        <ele>985</ele>
        <time>2021-08-10T13:35:25.108Z</time>
      </trkpt>
      <trkpt lat="46.90181" lon="8.55934">
        <ele>985</ele>
        <time>2021-08-10T13:35:26.107Z</time>
      </trkpt>
      <trkpt lat="46.90181" lon="8.55935">
        <ele>985</ele>
        <time>2021-08-10T13:35:27.108Z</time>
      </trkpt>
      <trkpt lat="46.90181" lon="8.55936">
        <ele>986</ele>
        <time>2021-08-10T13:35:28.107Z</time>
      </trkpt>
      <trkpt lat="46.9018" lon="8.55937">
        <ele>986</ele>
        <time>2021-08-10T13:35:29.107Z</time>
      </trkpt>
      <trkpt lat="46.9018" lon="8.55937">
        <ele>986</ele>
        <time>2021-08-10T13:35:30.108Z</time>
      </trkpt>
      <trkpt lat="46.9018" lon="8.55938">
        <ele>985</ele>
        <time>2021-08-10T13:35:31.108Z</time>
      </trkpt>
      <trkpt lat="46.90179" lon="8.55938">
        <ele>985</ele>
        <time>2021-08-10T13:35:32.108Z</time>
      </trkpt>
      <trkpt lat="46.90179" lon="8.55939">
        <ele>985</ele>
        <time>2021-08-10T13:35:33.107Z</time>
      </trkpt>
      <trkpt lat="46.90178" lon="8.55939">
        <ele>985</ele>
        <time>2021-08-10T13:35:34.107Z</time>
      </trkpt>
      <trkpt lat="46.90177" lon="8.55939">
        <ele>984</ele>
        <time>2021-08-10T13:35:35.107Z</time>
      </trkpt>
      <trkpt lat="46.90177" lon="8.55939">
        <ele>984</ele>
        <time>2021-08-10T13:35:36.108Z</time>
      </trkpt>
      <trkpt lat="46.90176" lon="8.55939">
        <ele>984</ele>
        <time>2021-08-10T13:35:37.108Z</time>
      </trkpt>
      <trkpt lat="46.90175" lon="8.55939">
        <ele>984</ele>
        <time>2021-08-10T13:35:38.108Z</time>
      </trkpt>
      <trkpt lat="46.90174" lon="8.55939">
        <ele>984</ele>
        <time>2021-08-10T13:35:39.108Z</time>
      </trkpt>
      <trkpt lat="46.90174" lon="8.55938">
        <ele>984</ele>
        <time>2021-08-10T13:35:40.108Z</time>
      </trkpt>
      <trkpt lat="46.90173" lon="8.55937">
        <ele>984</ele>
        <time>2021-08-10T13:35:41.107Z</time>
      </trkpt>
      <trkpt lat="46.90173" lon="8.55936">
        <ele>984</ele>
        <time>2021-08-10T13:35:42.107Z</time>
      </trkpt>
      <trkpt lat="46.90172" lon="8.55934">
        <ele>984</ele>
        <time>2021-08-10T13:35:43.107Z</time>
      </trkpt>
      <trkpt lat="46.90171" lon="8.55932">
        <ele>984</ele>
        <time>2021-08-10T13:35:44.108Z</time>
      </trkpt>
      <trkpt lat="46.9017" lon="8.5593">
        <ele>984</ele>
        <time>2021-08-10T13:35:45.107Z</time>
      </trkpt>
      <trkpt lat="46.90168" lon="8.55928">
        <ele>984</ele>
        <time>2021-08-10T13:35:48.191Z</time>
      </trkpt>
      <trkpt lat="46.90167" lon="8.55926">
        <ele>984</ele>
        <time>2021-08-10T13:35:49.192Z</time>
      </trkpt>
      <trkpt lat="46.90166" lon="8.55923">
        <ele>984</ele>
        <time>2021-08-10T13:35:50.192Z</time>
      </trkpt>
      <trkpt lat="46.90166" lon="8.5592">
        <ele>985</ele>
        <time>2021-08-10T13:35:51.191Z</time>
      </trkpt>
      <trkpt lat="46.90165" lon="8.55918">
        <ele>985</ele>
        <time>2021-08-10T13:35:52.192Z</time>
      </trkpt>
      <trkpt lat="46.90164" lon="8.55915">
        <ele>985</ele>
        <time>2021-08-10T13:35:53.192Z</time>
      </trkpt>
      <trkpt lat="46.90163" lon="8.55911">
        <ele>985</ele>
        <time>2021-08-10T13:35:54.192Z</time>
      </trkpt>
      <trkpt lat="46.90162" lon="8.55909">
        <ele>985</ele>
        <time>2021-08-10T13:35:55.191Z</time>
      </trkpt>
      <trkpt lat="46.90161" lon="8.55909">
        <ele>985</ele>
        <time>2021-08-10T13:35:56.192Z</time>
      </trkpt>
      <trkpt lat="46.9016" lon="8.55907">
        <ele>985</ele>
        <time>2021-08-10T13:35:57.192Z</time>
      </trkpt>
      <trkpt lat="46.9016" lon="8.55907">
        <ele>984</ele>
        <time>2021-08-10T13:35:58.192Z</time>
      </trkpt>
      <trkpt lat="46.90159" lon="8.55906">
        <ele>985</ele>
        <time>2021-08-10T13:35:59.192Z</time>
      </trkpt>
      <trkpt lat="46.90159" lon="8.55905">
        <ele>985</ele>
        <time>2021-08-10T13:36:00.192Z</time>
      </trkpt>
      <trkpt lat="46.9016" lon="8.55903">
        <ele>985</ele>
        <time>2021-08-10T13:36:01.191Z</time>
      </trkpt>
      <trkpt lat="46.90161" lon="8.55907">
        <ele>986</ele>
        <time>2021-08-10T13:36:02.191Z</time>
      </trkpt>
      <trkpt lat="46.90161" lon="8.55907">
        <ele>987</ele>
        <time>2021-08-10T13:36:03.191Z</time>
      </trkpt>
      <trkpt lat="46.90161" lon="8.55907">
        <ele>988</ele>
        <time>2021-08-10T13:36:04.192Z</time>
      </trkpt>
      <trkpt lat="46.90162" lon="8.55907">
        <ele>989</ele>
        <time>2021-08-10T13:36:05.192Z</time>
      </trkpt>
      <trkpt lat="46.90164" lon="8.55908">
        <ele>990</ele>
        <time>2021-08-10T13:36:06.191Z</time>
      </trkpt>
      <trkpt lat="46.90165" lon="8.55908">
        <ele>991</ele>
        <time>2021-08-10T13:36:07.191Z</time>
      </trkpt>
      <trkpt lat="46.90165" lon="8.55907">
        <ele>992</ele>
        <time>2021-08-10T13:36:08.192Z</time>
      </trkpt>
      <trkpt lat="46.90166" lon="8.55907">
        <ele>993</ele>
        <time>2021-08-10T13:36:09.192Z</time>
      </trkpt>
      <trkpt lat="46.90166" lon="8.55906">
        <ele>994</ele>
        <time>2021-08-10T13:36:10.191Z</time>
      </trkpt>
      <trkpt lat="46.90167" lon="8.55905">
        <ele>995</ele>
        <time>2021-08-10T13:36:11.192Z</time>
      </trkpt>
      <trkpt lat="46.90168" lon="8.55904">
        <ele>996</ele>
        <time>2021-08-10T13:36:12.191Z</time>
      </trkpt>
      <trkpt lat="46.90168" lon="8.55903">
        <ele>996</ele>
        <time>2021-08-10T13:36:13.192Z</time>
      </trkpt>
      <trkpt lat="46.90168" lon="8.55903">
        <ele>997</ele>
        <time>2021-08-10T13:36:14.192Z</time>
      </trkpt>
      <trkpt lat="46.90168" lon="8.55903">
        <ele>997</ele>
        <time>2021-08-10T13:36:15.192Z</time>
      </trkpt>
      <trkpt lat="46.90167" lon="8.55902">
        <ele>997</ele>
        <time>2021-08-10T13:36:16.192Z</time>
      </trkpt>
      <trkpt lat="46.90167" lon="8.55901">
        <ele>996</ele>
        <time>2021-08-10T13:36:17.191Z</time>
      </trkpt>
      <trkpt lat="46.90167" lon="8.559">
        <ele>996</ele>
        <time>2021-08-10T13:36:18.191Z</time>
      </trkpt>
      <trkpt lat="46.90167" lon="8.55899">
        <ele>996</ele>
        <time>2021-08-10T13:36:19.191Z</time>
      </trkpt>
      <trkpt lat="46.90167" lon="8.55898">
        <ele>995</ele>
        <time>2021-08-10T13:36:20.191Z</time>
      </trkpt>
      <trkpt lat="46.90167" lon="8.55897">
        <ele>994</ele>
        <time>2021-08-10T13:36:21.192Z</time>
      </trkpt>
      <trkpt lat="46.90166" lon="8.55896">
        <ele>994</ele>
        <time>2021-08-10T13:36:22.191Z</time>
      </trkpt>
      <trkpt lat="46.90166" lon="8.55895">
        <ele>993</ele>
        <time>2021-08-10T13:36:23.192Z</time>
      </trkpt>
      <trkpt lat="46.90165" lon="8.55895">
        <ele>992</ele>
        <time>2021-08-10T13:36:24.192Z</time>
      </trkpt>
      <trkpt lat="46.90164" lon="8.55894">
        <ele>991</ele>
        <time>2021-08-10T13:36:25.192Z</time>
      </trkpt>
      <trkpt lat="46.90164" lon="8.55893">
        <ele>991</ele>
        <time>2021-08-10T13:36:26.191Z</time>
      </trkpt>
      <trkpt lat="46.90163" lon="8.55893">
        <ele>991</ele>
        <time>2021-08-10T13:36:27.192Z</time>
      </trkpt>
      <trkpt lat="46.90163" lon="8.55892">
        <ele>991</ele>
        <time>2021-08-10T13:36:28.191Z</time>
      </trkpt>
      <trkpt lat="46.90162" lon="8.55892">
        <ele>991</ele>
        <time>2021-08-10T13:36:29.191Z</time>
      </trkpt>
      <trkpt lat="46.90162" lon="8.55892">
        <ele>991</ele>
        <time>2021-08-10T13:36:30.192Z</time>
      </trkpt>
      <trkpt lat="46.90161" lon="8.55892">
        <ele>991</ele>
        <time>2021-08-10T13:36:31.192Z</time>
      </trkpt>
      <trkpt lat="46.9016" lon="8.55892">
        <ele>990</ele>
        <time>2021-08-10T13:36:32.191Z</time>
      </trkpt>
      <trkpt lat="46.90159" lon="8.55892">
        <ele>990</ele>
        <time>2021-08-10T13:36:33.191Z</time>
      </trkpt>
      <trkpt lat="46.90158" lon="8.55892">
        <ele>989</ele>
        <time>2021-08-10T13:36:34.192Z</time>
      </trkpt>
      <trkpt lat="46.90157" lon="8.55892">
        <ele>989</ele>
        <time>2021-08-10T13:36:35.191Z</time>
      </trkpt>
      <trkpt lat="46.90156" lon="8.55891">
        <ele>989</ele>
        <time>2021-08-10T13:36:36.192Z</time>
      </trkpt>
      <trkpt lat="46.90154" lon="8.55891">
        <ele>988</ele>
        <time>2021-08-10T13:36:37.191Z</time>
      </trkpt>
      <trkpt lat="46.90153" lon="8.5589">
        <ele>988</ele>
        <time>2021-08-10T13:36:38.191Z</time>
      </trkpt>
      <trkpt lat="46.90153" lon="8.5589">
        <ele>988</ele>
        <time>2021-08-10T13:36:39.191Z</time>
      </trkpt>
      <trkpt lat="46.90152" lon="8.5589">
        <ele>988</ele>
        <time>2021-08-10T13:36:40.191Z</time>
      </trkpt>
      <trkpt lat="46.90151" lon="8.5589">
        <ele>988</ele>
        <time>2021-08-10T13:36:41.191Z</time>
      </trkpt>
      <trkpt lat="46.90151" lon="8.5589">
        <ele>987</ele>
        <time>2021-08-10T13:36:42.191Z</time>
      </trkpt>
      <trkpt lat="46.9015" lon="8.55889">
        <ele>987</ele>
        <time>2021-08-10T13:36:43.191Z</time>
      </trkpt>
      <trkpt lat="46.90149" lon="8.55889">
        <ele>986</ele>
        <time>2021-08-10T13:36:44.191Z</time>
      </trkpt>
      <trkpt lat="46.90148" lon="8.55889">
        <ele>986</ele>
        <time>2021-08-10T13:36:45.192Z</time>
      </trkpt>
      <trkpt lat="46.90147" lon="8.55888">
        <ele>985</ele>
        <time>2021-08-10T13:36:46.191Z</time>
      </trkpt>
      <trkpt lat="46.90147" lon="8.55886">
        <ele>985</ele>
        <time>2021-08-10T13:36:47.191Z</time>
      </trkpt>
      <trkpt lat="46.90147" lon="8.55884">
        <ele>985</ele>
        <time>2021-08-10T13:36:48.191Z</time>
      </trkpt>
      <trkpt lat="46.90146" lon="8.55883">
        <ele>985</ele>
        <time>2021-08-10T13:36:49.191Z</time>
      </trkpt>
      <trkpt lat="46.90144" lon="8.55882">
        <ele>985</ele>
        <time>2021-08-10T13:36:50.191Z</time>
      </trkpt>
      <trkpt lat="46.90143" lon="8.55881">
        <ele>985</ele>
        <time>2021-08-10T13:36:51.191Z</time>
      </trkpt>
      <trkpt lat="46.90143" lon="8.5588">
        <ele>985</ele>
        <time>2021-08-10T13:36:52.191Z</time>
      </trkpt>
      <trkpt lat="46.90143" lon="8.55878">
        <ele>985</ele>
        <time>2021-08-10T13:36:53.191Z</time>
      </trkpt>
      <trkpt lat="46.90143" lon="8.55877">
        <ele>985</ele>
        <time>2021-08-10T13:36:54.191Z</time>
      </trkpt>
      <trkpt lat="46.90143" lon="8.55876">
        <ele>985</ele>
        <time>2021-08-10T13:36:55.192Z</time>
      </trkpt>
      <trkpt lat="46.90142" lon="8.55874">
        <ele>984</ele>
        <time>2021-08-10T13:36:56.191Z</time>
      </trkpt>
      <trkpt lat="46.90142" lon="8.55873">
        <ele>984</ele>
        <time>2021-08-10T13:36:57.191Z</time>
      </trkpt>
      <trkpt lat="46.90142" lon="8.55872">
        <ele>984</ele>
        <time>2021-08-10T13:36:58.191Z</time>
      </trkpt>
      <trkpt lat="46.90142" lon="8.5587">
        <ele>984</ele>
        <time>2021-08-10T13:36:59.192Z</time>
      </trkpt>
      <trkpt lat="46.90142" lon="8.55869">
        <ele>984</ele>
        <time>2021-08-10T13:37:00.191Z</time>
      </trkpt>
      <trkpt lat="46.90141" lon="8.55867">
        <ele>984</ele>
        <time>2021-08-10T13:37:01.191Z</time>
      </trkpt>
      <trkpt lat="46.90141" lon="8.55866">
        <ele>984</ele>
        <time>2021-08-10T13:37:02.191Z</time>
      </trkpt>
      <trkpt lat="46.9014" lon="8.55865">
        <ele>984</ele>
        <time>2021-08-10T13:37:03.191Z</time>
      </trkpt>
      <trkpt lat="46.9014" lon="8.55864">
        <ele>984</ele>
        <time>2021-08-10T13:37:04.191Z</time>
      </trkpt>
      <trkpt lat="46.9014" lon="8.55862">
        <ele>984</ele>
        <time>2021-08-10T13:37:05.191Z</time>
      </trkpt>
      <trkpt lat="46.90139" lon="8.55861">
        <ele>984</ele>
        <time>2021-08-10T13:37:06.192Z</time>
      </trkpt>
      <trkpt lat="46.90138" lon="8.5586">
        <ele>984</ele>
        <time>2021-08-10T13:37:07.192Z</time>
      </trkpt>
      <trkpt lat="46.90137" lon="8.5586">
        <ele>984</ele>
        <time>2021-08-10T13:37:08.191Z</time>
      </trkpt>
      <trkpt lat="46.90137" lon="8.55859">
        <ele>984</ele>
        <time>2021-08-10T13:37:09.192Z</time>
      </trkpt>
      <trkpt lat="46.90136" lon="8.55857">
        <ele>984</ele>
        <time>2021-08-10T13:37:10.192Z</time>
      </trkpt>
      <trkpt lat="46.90136" lon="8.55854">
        <ele>984</ele>
        <time>2021-08-10T13:37:11.192Z</time>
      </trkpt>
      <trkpt lat="46.90136" lon="8.55851">
        <ele>985</ele>
        <time>2021-08-10T13:37:12.192Z</time>
      </trkpt>
      <trkpt lat="46.90135" lon="8.5585">
        <ele>985</ele>
        <time>2021-08-10T13:37:13.192Z</time>
      </trkpt>
      <trkpt lat="46.90134" lon="8.55848">
        <ele>985</ele>
        <time>2021-08-10T13:37:14.191Z</time>
      </trkpt>
      <trkpt lat="46.90133" lon="8.55848">
        <ele>985</ele>
        <time>2021-08-10T13:37:15.191Z</time>
      </trkpt>
      <trkpt lat="46.90133" lon="8.55848">
        <ele>986</ele>
        <time>2021-08-10T13:37:16.192Z</time>
      </trkpt>
      <trkpt lat="46.90132" lon="8.55848">
        <ele>986</ele>
        <time>2021-08-10T13:37:17.192Z</time>
      </trkpt>
      <trkpt lat="46.90131" lon="8.55848">
        <ele>986</ele>
        <time>2021-08-10T13:37:18.192Z</time>
      </trkpt>
      <trkpt lat="46.9013" lon="8.55847">
        <ele>986</ele>
        <time>2021-08-10T13:37:19.191Z</time>
      </trkpt>
      <trkpt lat="46.90128" lon="8.55846">
        <ele>986</ele>
        <time>2021-08-10T13:37:20.191Z</time>
      </trkpt>
      <trkpt lat="46.90127" lon="8.55845">
        <ele>987</ele>
        <time>2021-08-10T13:37:21.192Z</time>
      </trkpt>
      <trkpt lat="46.90126" lon="8.55843">
        <ele>987</ele>
        <time>2021-08-10T13:37:22.192Z</time>
      </trkpt>
      <trkpt lat="46.90127" lon="8.55841">
        <ele>987</ele>
        <time>2021-08-10T13:37:23.192Z</time>
      </trkpt>
      <trkpt lat="46.90126" lon="8.55841">
        <ele>988</ele>
        <time>2021-08-10T13:37:24.191Z</time>
      </trkpt>
      <trkpt lat="46.90126" lon="8.55841">
        <ele>988</ele>
        <time>2021-08-10T13:37:25.192Z</time>
      </trkpt>
      <trkpt lat="46.90125" lon="8.55841">
        <ele>988</ele>
        <time>2021-08-10T13:37:26.192Z</time>
      </trkpt>
      <trkpt lat="46.90124" lon="8.5584">
        <ele>988</ele>
        <time>2021-08-10T13:37:27.192Z</time>
      </trkpt>
      <trkpt lat="46.90123" lon="8.55839">
        <ele>988</ele>
        <time>2021-08-10T13:37:28.192Z</time>
      </trkpt>
      <trkpt lat="46.90124" lon="8.55836">
        <ele>988</ele>
        <time>2021-08-10T13:37:29.192Z</time>
      </trkpt>
      <trkpt lat="46.90125" lon="8.55833">
        <ele>988</ele>
        <time>2021-08-10T13:37:30.192Z</time>
      </trkpt>
      <trkpt lat="46.90125" lon="8.55832">
        <ele>989</ele>
        <time>2021-08-10T13:37:31.191Z</time>
      </trkpt>
      <trkpt lat="46.90125" lon="8.5583">
        <ele>989</ele>
        <time>2021-08-10T13:37:32.191Z</time>
      </trkpt>
      <trkpt lat="46.90124" lon="8.55829">
        <ele>989</ele>
        <time>2021-08-10T13:37:33.192Z</time>
      </trkpt>
      <trkpt lat="46.90122" lon="8.5583">
        <ele>989</ele>
        <time>2021-08-10T13:37:34.191Z</time>
      </trkpt>
      <trkpt lat="46.90122" lon="8.5583">
        <ele>990</ele>
        <time>2021-08-10T13:37:35.191Z</time>
      </trkpt>
      <trkpt lat="46.90121" lon="8.55829">
        <ele>990</ele>
        <time>2021-08-10T13:37:36.192Z</time>
      </trkpt>
      <trkpt lat="46.90121" lon="8.55829">
        <ele>990</ele>
        <time>2021-08-10T13:37:37.192Z</time>
      </trkpt>
      <trkpt lat="46.9012" lon="8.55829">
        <ele>990</ele>
        <time>2021-08-10T13:37:38.192Z</time>
      </trkpt>
      <trkpt lat="46.90119" lon="8.55828">
        <ele>989</ele>
        <time>2021-08-10T13:37:39.192Z</time>
      </trkpt>
      <trkpt lat="46.90118" lon="8.55827">
        <ele>989</ele>
        <time>2021-08-10T13:37:40.191Z</time>
      </trkpt>
      <trkpt lat="46.90117" lon="8.55827">
        <ele>989</ele>
        <time>2021-08-10T13:37:41.192Z</time>
      </trkpt>
      <trkpt lat="46.90117" lon="8.55826">
        <ele>989</ele>
        <time>2021-08-10T13:37:42.191Z</time>
      </trkpt>
      <trkpt lat="46.90117" lon="8.55825">
        <ele>989</ele>
        <time>2021-08-10T13:37:43.192Z</time>
      </trkpt>
      <trkpt lat="46.90117" lon="8.55824">
        <ele>989</ele>
        <time>2021-08-10T13:37:44.191Z</time>
      </trkpt>
      <trkpt lat="46.90116" lon="8.55822">
        <ele>989</ele>
        <time>2021-08-10T13:37:45.191Z</time>
      </trkpt>
      <trkpt lat="46.90116" lon="8.55821">
        <ele>988</ele>
        <time>2021-08-10T13:37:46.192Z</time>
      </trkpt>
      <trkpt lat="46.90115" lon="8.5582">
        <ele>988</ele>
        <time>2021-08-10T13:37:47.192Z</time>
      </trkpt>
      <trkpt lat="46.90115" lon="8.55819">
        <ele>988</ele>
        <time>2021-08-10T13:37:48.192Z</time>
      </trkpt>
      <trkpt lat="46.90114" lon="8.55817">
        <ele>988</ele>
        <time>2021-08-10T13:37:49.191Z</time>
      </trkpt>
      <trkpt lat="46.90114" lon="8.55816">
        <ele>988</ele>
        <time>2021-08-10T13:37:50.192Z</time>
      </trkpt>
      <trkpt lat="46.90114" lon="8.55814">
        <ele>987</ele>
        <time>2021-08-10T13:37:51.192Z</time>
      </trkpt>
      <trkpt lat="46.90113" lon="8.55814">
        <ele>987</ele>
        <time>2021-08-10T13:37:52.192Z</time>
      </trkpt>
      <trkpt lat="46.90112" lon="8.55814">
        <ele>987</ele>
        <time>2021-08-10T13:37:53.191Z</time>
      </trkpt>
      <trkpt lat="46.90111" lon="8.55813">
        <ele>987</ele>
        <time>2021-08-10T13:37:54.191Z</time>
      </trkpt>
      <trkpt lat="46.9011" lon="8.55812">
        <ele>986</ele>
        <time>2021-08-10T13:37:55.191Z</time>
      </trkpt>
      <trkpt lat="46.9011" lon="8.55811">
        <ele>986</ele>
        <time>2021-08-10T13:37:56.192Z</time>
      </trkpt>
      <trkpt lat="46.90109" lon="8.5581">
        <ele>985</ele>
        <time>2021-08-10T13:37:57.192Z</time>
      </trkpt>
      <trkpt lat="46.90109" lon="8.55809">
        <ele>985</ele>
        <time>2021-08-10T13:37:58.192Z</time>
      </trkpt>
      <trkpt lat="46.90108" lon="8.55808">
        <ele>984</ele>
        <time>2021-08-10T13:37:59.191Z</time>
      </trkpt>
      <trkpt lat="46.90108" lon="8.55807">
        <ele>984</ele>
        <time>2021-08-10T13:38:00.191Z</time>
      </trkpt>
      <trkpt lat="46.90108" lon="8.55806">
        <ele>984</ele>
        <time>2021-08-10T13:38:01.191Z</time>
      </trkpt>
      <trkpt lat="46.90107" lon="8.55805">
        <ele>984</ele>
        <time>2021-08-10T13:38:02.191Z</time>
      </trkpt>
      <trkpt lat="46.90106" lon="8.55804">
        <ele>984</ele>
        <time>2021-08-10T13:38:03.192Z</time>
      </trkpt>
      <trkpt lat="46.90105" lon="8.55804">
        <ele>985</ele>
        <time>2021-08-10T13:38:04.191Z</time>
      </trkpt>
      <trkpt lat="46.90104" lon="8.55803">
        <ele>986</ele>
        <time>2021-08-10T13:38:05.192Z</time>
      </trkpt>
      <trkpt lat="46.90103" lon="8.55803">
        <ele>987</ele>
        <time>2021-08-10T13:38:06.191Z</time>
      </trkpt>
      <trkpt lat="46.90102" lon="8.55802">
        <ele>988</ele>
        <time>2021-08-10T13:38:07.192Z</time>
      </trkpt>
      <trkpt lat="46.90101" lon="8.55802">
        <ele>988</ele>
        <time>2021-08-10T13:38:08.191Z</time>
      </trkpt>
      <trkpt lat="46.90099" lon="8.55801">
        <ele>989</ele>
        <time>2021-08-10T13:38:09.191Z</time>
      </trkpt>
      <trkpt lat="46.90099" lon="8.55801">
        <ele>990</ele>
        <time>2021-08-10T13:38:10.191Z</time>
      </trkpt>
      <trkpt lat="46.90097" lon="8.55801">
        <ele>991</ele>
        <time>2021-08-10T13:38:11.192Z</time>
      </trkpt>
      <trkpt lat="46.90096" lon="8.55801">
        <ele>992</ele>
        <time>2021-08-10T13:38:12.191Z</time>
      </trkpt>
      <trkpt lat="46.90095" lon="8.55801">
        <ele>993</ele>
        <time>2021-08-10T13:38:13.192Z</time>
      </trkpt>
      <trkpt lat="46.90094" lon="8.558">
        <ele>994</ele>
        <time>2021-08-10T13:38:14.191Z</time>
      </trkpt>
      <trkpt lat="46.90092" lon="8.55799">
        <ele>995</ele>
        <time>2021-08-10T13:38:15.191Z</time>
      </trkpt>
      <trkpt lat="46.90091" lon="8.55798">
        <ele>997</ele>
        <time>2021-08-10T13:38:16.192Z</time>
      </trkpt>
      <trkpt lat="46.90089" lon="8.55797">
        <ele>997</ele>
        <time>2021-08-10T13:38:17.192Z</time>
      </trkpt>
      <trkpt lat="46.90089" lon="8.55798">
        <ele>998</ele>
        <time>2021-08-10T13:38:18.192Z</time>
      </trkpt>
      <trkpt lat="46.90088" lon="8.55798">
        <ele>998</ele>
        <time>2021-08-10T13:38:19.192Z</time>
      </trkpt>
      <trkpt lat="46.90087" lon="8.55798">
        <ele>998</ele>
        <time>2021-08-10T13:38:20.191Z</time>
      </trkpt>
      <trkpt lat="46.90086" lon="8.55797">
        <ele>997</ele>
        <time>2021-08-10T13:38:21.191Z</time>
      </trkpt>
      <trkpt lat="46.90085" lon="8.55797">
        <ele>997</ele>
        <time>2021-08-10T13:38:22.192Z</time>
      </trkpt>
      <trkpt lat="46.90084" lon="8.55797">
        <ele>997</ele>
        <time>2021-08-10T13:38:23.192Z</time>
      </trkpt>
      <trkpt lat="46.90083" lon="8.55796">
        <ele>997</ele>
        <time>2021-08-10T13:38:24.191Z</time>
      </trkpt>
      <trkpt lat="46.90083" lon="8.55796">
        <ele>996</ele>
        <time>2021-08-10T13:38:25.191Z</time>
      </trkpt>
      <trkpt lat="46.90082" lon="8.55795">
        <ele>996</ele>
        <time>2021-08-10T13:38:26.192Z</time>
      </trkpt>
      <trkpt lat="46.90081" lon="8.55795">
        <ele>996</ele>
        <time>2021-08-10T13:38:27.192Z</time>
      </trkpt>
      <trkpt lat="46.90081" lon="8.55795">
        <ele>995</ele>
        <time>2021-08-10T13:38:28.192Z</time>
      </trkpt>
      <trkpt lat="46.9008" lon="8.55794">
        <ele>995</ele>
        <time>2021-08-10T13:38:29.192Z</time>
      </trkpt>
      <trkpt lat="46.90079" lon="8.55793">
        <ele>995</ele>
        <time>2021-08-10T13:38:30.192Z</time>
      </trkpt>
      <trkpt lat="46.90077" lon="8.55791">
        <ele>996</ele>
        <time>2021-08-10T13:38:31.192Z</time>
      </trkpt>
      <trkpt lat="46.90077" lon="8.5579">
        <ele>997</ele>
        <time>2021-08-10T13:38:32.192Z</time>
      </trkpt>
      <trkpt lat="46.90076" lon="8.55789">
        <ele>998</ele>
        <time>2021-08-10T13:38:33.191Z</time>
      </trkpt>
      <trkpt lat="46.90074" lon="8.55787">
        <ele>998</ele>
        <time>2021-08-10T13:38:34.191Z</time>
      </trkpt>
      <trkpt lat="46.90073" lon="8.55785">
        <ele>998</ele>
        <time>2021-08-10T13:38:35.191Z</time>
      </trkpt>
      <trkpt lat="46.90072" lon="8.55785">
        <ele>998</ele>
        <time>2021-08-10T13:38:36.192Z</time>
      </trkpt>
      <trkpt lat="46.90071" lon="8.55784">
        <ele>998</ele>
        <time>2021-08-10T13:38:37.192Z</time>
      </trkpt>
      <trkpt lat="46.90071" lon="8.55783">
        <ele>998</ele>
        <time>2021-08-10T13:38:38.191Z</time>
      </trkpt>
      <trkpt lat="46.9007" lon="8.55782">
        <ele>998</ele>
        <time>2021-08-10T13:38:39.192Z</time>
      </trkpt>
      <trkpt lat="46.9007" lon="8.55781">
        <ele>998</ele>
        <time>2021-08-10T13:38:40.192Z</time>
      </trkpt>
      <trkpt lat="46.90069" lon="8.5578">
        <ele>998</ele>
        <time>2021-08-10T13:38:43.072Z</time>
      </trkpt>
      <trkpt lat="46.90068" lon="8.55779">
        <ele>998</ele>
        <time>2021-08-10T13:38:44.072Z</time>
      </trkpt>
      <trkpt lat="46.90068" lon="8.55778">
        <ele>998</ele>
        <time>2021-08-10T13:38:45.072Z</time>
      </trkpt>
      <trkpt lat="46.90067" lon="8.55777">
        <ele>997</ele>
        <time>2021-08-10T13:38:46.072Z</time>
      </trkpt>
      <trkpt lat="46.90067" lon="8.55776">
        <ele>997</ele>
        <time>2021-08-10T13:38:47.072Z</time>
      </trkpt>
      <trkpt lat="46.90066" lon="8.55776">
        <ele>997</ele>
        <time>2021-08-10T13:38:48.071Z</time>
      </trkpt>
      <trkpt lat="46.90066" lon="8.55775">
        <ele>997</ele>
        <time>2021-08-10T13:38:49.071Z</time>
      </trkpt>
      <trkpt lat="46.90065" lon="8.55775">
        <ele>997</ele>
        <time>2021-08-10T13:38:50.072Z</time>
      </trkpt>
      <trkpt lat="46.90064" lon="8.55774">
        <ele>997</ele>
        <time>2021-08-10T13:38:51.072Z</time>
      </trkpt>
      <trkpt lat="46.90064" lon="8.55774">
        <ele>997</ele>
        <time>2021-08-10T13:38:52.072Z</time>
      </trkpt>
      <trkpt lat="46.90064" lon="8.55773">
        <ele>997</ele>
        <time>2021-08-10T13:38:53.072Z</time>
      </trkpt>
      <trkpt lat="46.90063" lon="8.55772">
        <ele>997</ele>
        <time>2021-08-10T13:38:54.072Z</time>
      </trkpt>
      <trkpt lat="46.90062" lon="8.55772">
        <ele>997</ele>
        <time>2021-08-10T13:38:55.072Z</time>
      </trkpt>
      <trkpt lat="46.90062" lon="8.55771">
        <ele>997</ele>
        <time>2021-08-10T13:38:56.072Z</time>
      </trkpt>
      <trkpt lat="46.90061" lon="8.5577">
        <ele>997</ele>
        <time>2021-08-10T13:38:57.072Z</time>
      </trkpt>
      <trkpt lat="46.90061" lon="8.55769">
        <ele>997</ele>
        <time>2021-08-10T13:38:58.072Z</time>
      </trkpt>
      <trkpt lat="46.9006" lon="8.55768">
        <ele>997</ele>
        <time>2021-08-10T13:38:59.072Z</time>
      </trkpt>
      <trkpt lat="46.9006" lon="8.55767">
        <ele>997</ele>
        <time>2021-08-10T13:39:00.072Z</time>
      </trkpt>
      <trkpt lat="46.90059" lon="8.55766">
        <ele>997</ele>
        <time>2021-08-10T13:39:01.072Z</time>
      </trkpt>
      <trkpt lat="46.90059" lon="8.55766">
        <ele>996</ele>
        <time>2021-08-10T13:39:02.071Z</time>
      </trkpt>
      <trkpt lat="46.90058" lon="8.55765">
        <ele>996</ele>
        <time>2021-08-10T13:39:03.072Z</time>
      </trkpt>
      <trkpt lat="46.90057" lon="8.55764">
        <ele>996</ele>
        <time>2021-08-10T13:39:04.072Z</time>
      </trkpt>
      <trkpt lat="46.90056" lon="8.55764">
        <ele>996</ele>
        <time>2021-08-10T13:39:05.071Z</time>
      </trkpt>
      <trkpt lat="46.90055" lon="8.55764">
        <ele>996</ele>
        <time>2021-08-10T13:39:06.071Z</time>
      </trkpt>
      <trkpt lat="46.90054" lon="8.55763">
        <ele>995</ele>
        <time>2021-08-10T13:39:07.072Z</time>
      </trkpt>
      <trkpt lat="46.90054" lon="8.55762">
        <ele>995</ele>
        <time>2021-08-10T13:39:08.071Z</time>
      </trkpt>
      <trkpt lat="46.90053" lon="8.55761">
        <ele>995</ele>
        <time>2021-08-10T13:39:09.072Z</time>
      </trkpt>
      <trkpt lat="46.90053" lon="8.5576">
        <ele>994</ele>
        <time>2021-08-10T13:39:10.071Z</time>
      </trkpt>
      <trkpt lat="46.90052" lon="8.55759">
        <ele>995</ele>
        <time>2021-08-10T13:39:11.072Z</time>
      </trkpt>
      <trkpt lat="46.90051" lon="8.55758">
        <ele>995</ele>
        <time>2021-08-10T13:39:12.071Z</time>
      </trkpt>
      <trkpt lat="46.90052" lon="8.55758">
        <ele>995</ele>
        <time>2021-08-10T13:39:13.072Z</time>
      </trkpt>
      <trkpt lat="46.90051" lon="8.55757">
        <ele>994</ele>
        <time>2021-08-10T13:39:14.072Z</time>
      </trkpt>
      <trkpt lat="46.9005" lon="8.55756">
        <ele>994</ele>
        <time>2021-08-10T13:39:15.071Z</time>
      </trkpt>
      <trkpt lat="46.90049" lon="8.55755">
        <ele>993</ele>
        <time>2021-08-10T13:39:16.072Z</time>
      </trkpt>
      <trkpt lat="46.90049" lon="8.55755">
        <ele>993</ele>
        <time>2021-08-10T13:39:17.072Z</time>
      </trkpt>
      <trkpt lat="46.90048" lon="8.55754">
        <ele>993</ele>
        <time>2021-08-10T13:39:18.072Z</time>
      </trkpt>
      <trkpt lat="46.90046" lon="8.55753">
        <ele>993</ele>
        <time>2021-08-10T13:39:19.071Z</time>
      </trkpt>
      <trkpt lat="46.90045" lon="8.55753">
        <ele>993</ele>
        <time>2021-08-10T13:39:20.072Z</time>
      </trkpt>
      <trkpt lat="46.90044" lon="8.55752">
        <ele>994</ele>
        <time>2021-08-10T13:39:21.072Z</time>
      </trkpt>
      <trkpt lat="46.90043" lon="8.55751">
        <ele>994</ele>
        <time>2021-08-10T13:39:22.072Z</time>
      </trkpt>
      <trkpt lat="46.90042" lon="8.55751">
        <ele>995</ele>
        <time>2021-08-10T13:39:23.072Z</time>
      </trkpt>
      <trkpt lat="46.90041" lon="8.5575">
        <ele>996</ele>
        <time>2021-08-10T13:39:24.071Z</time>
      </trkpt>
      <trkpt lat="46.9004" lon="8.5575">
        <ele>997</ele>
        <time>2021-08-10T13:39:25.072Z</time>
      </trkpt>
      <trkpt lat="46.90039" lon="8.5575">
        <ele>998</ele>
        <time>2021-08-10T13:39:26.072Z</time>
      </trkpt>
      <trkpt lat="46.90038" lon="8.5575">
        <ele>998</ele>
        <time>2021-08-10T13:39:27.072Z</time>
      </trkpt>
      <trkpt lat="46.90038" lon="8.55749">
        <ele>999</ele>
        <time>2021-08-10T13:39:28.071Z</time>
      </trkpt>
      <trkpt lat="46.90036" lon="8.55749">
        <ele>1000</ele>
        <time>2021-08-10T13:39:29.072Z</time>
      </trkpt>
      <trkpt lat="46.90035" lon="8.55749">
        <ele>1000</ele>
        <time>2021-08-10T13:39:30.072Z</time>
      </trkpt>
      <trkpt lat="46.90034" lon="8.55748">
        <ele>1000</ele>
        <time>2021-08-10T13:39:31.072Z</time>
      </trkpt>
      <trkpt lat="46.90034" lon="8.55748">
        <ele>1000</ele>
        <time>2021-08-10T13:39:32.072Z</time>
      </trkpt>
      <trkpt lat="46.90033" lon="8.55747">
        <ele>1000</ele>
        <time>2021-08-10T13:39:33.072Z</time>
      </trkpt>
      <trkpt lat="46.90032" lon="8.55747">
        <ele>1000</ele>
        <time>2021-08-10T13:39:34.071Z</time>
      </trkpt>
      <trkpt lat="46.90031" lon="8.55747">
        <ele>1000</ele>
        <time>2021-08-10T13:39:35.072Z</time>
      </trkpt>
      <trkpt lat="46.9003" lon="8.55747">
        <ele>1000</ele>
        <time>2021-08-10T13:39:36.072Z</time>
      </trkpt>
      <trkpt lat="46.90029" lon="8.55747">
        <ele>1000</ele>
        <time>2021-08-10T13:39:37.071Z</time>
      </trkpt>
      <trkpt lat="46.90028" lon="8.55746">
        <ele>1000</ele>
        <time>2021-08-10T13:39:38.072Z</time>
      </trkpt>
      <trkpt lat="46.90027" lon="8.55746">
        <ele>1000</ele>
        <time>2021-08-10T13:39:39.072Z</time>
      </trkpt>
      <trkpt lat="46.90027" lon="8.55745">
        <ele>1001</ele>
        <time>2021-08-10T13:39:40.071Z</time>
      </trkpt>
      <trkpt lat="46.90026" lon="8.55745">
        <ele>1001</ele>
        <time>2021-08-10T13:39:41.071Z</time>
      </trkpt>
      <trkpt lat="46.90025" lon="8.55744">
        <ele>1002</ele>
        <time>2021-08-10T13:39:42.071Z</time>
      </trkpt>
      <trkpt lat="46.90024" lon="8.55744">
        <ele>1002</ele>
        <time>2021-08-10T13:39:43.071Z</time>
      </trkpt>
      <trkpt lat="46.90022" lon="8.55745">
        <ele>1002</ele>
        <time>2021-08-10T13:39:44.072Z</time>
      </trkpt>
      <trkpt lat="46.90021" lon="8.55746">
        <ele>1003</ele>
        <time>2021-08-10T13:39:45.071Z</time>
      </trkpt>
      <trkpt lat="46.9002" lon="8.55746">
        <ele>1003</ele>
        <time>2021-08-10T13:39:46.072Z</time>
      </trkpt>
      <trkpt lat="46.90018" lon="8.55746">
        <ele>1004</ele>
        <time>2021-08-10T13:39:47.072Z</time>
      </trkpt>
      <trkpt lat="46.90017" lon="8.55745">
        <ele>1005</ele>
        <time>2021-08-10T13:39:48.072Z</time>
      </trkpt>
      <trkpt lat="46.90016" lon="8.55743">
        <ele>1005</ele>
        <time>2021-08-10T13:39:49.072Z</time>
      </trkpt>
      <trkpt lat="46.90016" lon="8.55742">
        <ele>1006</ele>
        <time>2021-08-10T13:39:50.072Z</time>
      </trkpt>
      <trkpt lat="46.90015" lon="8.55741">
        <ele>1007</ele>
        <time>2021-08-10T13:39:51.072Z</time>
      </trkpt>
      <trkpt lat="46.90015" lon="8.5574">
        <ele>1008</ele>
        <time>2021-08-10T13:39:52.071Z</time>
      </trkpt>
      <trkpt lat="46.90014" lon="8.55739">
        <ele>1009</ele>
        <time>2021-08-10T13:39:53.072Z</time>
      </trkpt>
      <trkpt lat="46.90014" lon="8.55738">
        <ele>1010</ele>
        <time>2021-08-10T13:39:54.071Z</time>
      </trkpt>
      <trkpt lat="46.90013" lon="8.55736">
        <ele>1010</ele>
        <time>2021-08-10T13:39:55.072Z</time>
      </trkpt>
      <trkpt lat="46.90013" lon="8.55736">
        <ele>1011</ele>
        <time>2021-08-10T13:39:56.072Z</time>
      </trkpt>
      <trkpt lat="46.90012" lon="8.55736">
        <ele>1011</ele>
        <time>2021-08-10T13:39:57.071Z</time>
      </trkpt>
      <trkpt lat="46.90011" lon="8.55736">
        <ele>1011</ele>
        <time>2021-08-10T13:39:58.072Z</time>
      </trkpt>
      <trkpt lat="46.9001" lon="8.55736">
        <ele>1011</ele>
        <time>2021-08-10T13:39:59.072Z</time>
      </trkpt>
      <trkpt lat="46.90009" lon="8.55737">
        <ele>1011</ele>
        <time>2021-08-10T13:40:00.071Z</time>
      </trkpt>
      <trkpt lat="46.90008" lon="8.55737">
        <ele>1011</ele>
        <time>2021-08-10T13:40:01.072Z</time>
      </trkpt>
      <trkpt lat="46.90008" lon="8.55737">
        <ele>1011</ele>
        <time>2021-08-10T13:40:02.072Z</time>
      </trkpt>
      <trkpt lat="46.90005" lon="8.55738">
        <ele>1011</ele>
        <time>2021-08-10T13:40:03.072Z</time>
      </trkpt>
      <trkpt lat="46.90004" lon="8.55738">
        <ele>1011</ele>
        <time>2021-08-10T13:40:04.072Z</time>
      </trkpt>
      <trkpt lat="46.90002" lon="8.55739">
        <ele>1012</ele>
        <time>2021-08-10T13:40:05.071Z</time>
      </trkpt>
      <trkpt lat="46.90001" lon="8.55739">
        <ele>1012</ele>
        <time>2021-08-10T13:40:06.071Z</time>
      </trkpt>
      <trkpt lat="46.9" lon="8.55739">
        <ele>1012</ele>
        <time>2021-08-10T13:40:07.072Z</time>
      </trkpt>
      <trkpt lat="46.89999" lon="8.55737">
        <ele>1013</ele>
        <time>2021-08-10T13:40:08.071Z</time>
      </trkpt>
      <trkpt lat="46.89998" lon="8.55737">
        <ele>1013</ele>
        <time>2021-08-10T13:40:09.072Z</time>
      </trkpt>
      <trkpt lat="46.89997" lon="8.55737">
        <ele>1013</ele>
        <time>2021-08-10T13:40:10.071Z</time>
      </trkpt>
      <trkpt lat="46.89996" lon="8.55737">
        <ele>1014</ele>
        <time>2021-08-10T13:40:11.071Z</time>
      </trkpt>
      <trkpt lat="46.89994" lon="8.55737">
        <ele>1014</ele>
        <time>2021-08-10T13:40:12.072Z</time>
      </trkpt>
      <trkpt lat="46.89992" lon="8.55737">
        <ele>1014</ele>
        <time>2021-08-10T13:40:13.072Z</time>
      </trkpt>
      <trkpt lat="46.89991" lon="8.55738">
        <ele>1014</ele>
        <time>2021-08-10T13:40:14.071Z</time>
      </trkpt>
      <trkpt lat="46.8999" lon="8.55737">
        <ele>1015</ele>
        <time>2021-08-10T13:40:15.072Z</time>
      </trkpt>
      <trkpt lat="46.89989" lon="8.55736">
        <ele>1015</ele>
        <time>2021-08-10T13:40:16.072Z</time>
      </trkpt>
      <trkpt lat="46.89988" lon="8.55735">
        <ele>1015</ele>
        <time>2021-08-10T13:40:17.071Z</time>
      </trkpt>
      <trkpt lat="46.89988" lon="8.55733">
        <ele>1015</ele>
        <time>2021-08-10T13:40:18.071Z</time>
      </trkpt>
      <trkpt lat="46.89987" lon="8.55732">
        <ele>1016</ele>
        <time>2021-08-10T13:40:19.071Z</time>
      </trkpt>
      <trkpt lat="46.89986" lon="8.55731">
        <ele>1016</ele>
        <time>2021-08-10T13:40:20.071Z</time>
      </trkpt>
      <trkpt lat="46.89986" lon="8.5573">
        <ele>1016</ele>
        <time>2021-08-10T13:40:21.072Z</time>
      </trkpt>
      <trkpt lat="46.89986" lon="8.55728">
        <ele>1017</ele>
        <time>2021-08-10T13:40:22.071Z</time>
      </trkpt>
      <trkpt lat="46.89985" lon="8.55727">
        <ele>1017</ele>
        <time>2021-08-10T13:40:23.071Z</time>
      </trkpt>
      <trkpt lat="46.89985" lon="8.55727">
        <ele>1017</ele>
        <time>2021-08-10T13:40:24.071Z</time>
      </trkpt>
      <trkpt lat="46.89985" lon="8.55727">
        <ele>1017</ele>
        <time>2021-08-10T13:40:25.071Z</time>
      </trkpt>
      <trkpt lat="46.89985" lon="8.55726">
        <ele>1017</ele>
        <time>2021-08-10T13:40:26.071Z</time>
      </trkpt>
      <trkpt lat="46.89986" lon="8.55726">
        <ele>1017</ele>
        <time>2021-08-10T13:40:27.072Z</time>
      </trkpt>
      <trkpt lat="46.89985" lon="8.55726">
        <ele>1017</ele>
        <time>2021-08-10T13:40:28.072Z</time>
      </trkpt>
      <trkpt lat="46.89985" lon="8.55725">
        <ele>1017</ele>
        <time>2021-08-10T13:40:29.071Z</time>
      </trkpt>
      <trkpt lat="46.89984" lon="8.55725">
        <ele>1017</ele>
        <time>2021-08-10T13:40:30.071Z</time>
      </trkpt>
      <trkpt lat="46.89983" lon="8.55726">
        <ele>1017</ele>
        <time>2021-08-10T13:40:31.072Z</time>
      </trkpt>
      <trkpt lat="46.89983" lon="8.55726">
        <ele>1017</ele>
        <time>2021-08-10T13:40:32.071Z</time>
      </trkpt>
      <trkpt lat="46.89981" lon="8.55726">
        <ele>1017</ele>
        <time>2021-08-10T13:40:33.072Z</time>
      </trkpt>
      <trkpt lat="46.8998" lon="8.55727">
        <ele>1017</ele>
        <time>2021-08-10T13:40:34.071Z</time>
      </trkpt>
      <trkpt lat="46.89979" lon="8.55727">
        <ele>1017</ele>
        <time>2021-08-10T13:40:35.072Z</time>
      </trkpt>
      <trkpt lat="46.89978" lon="8.55727">
        <ele>1017</ele>
        <time>2021-08-10T13:40:36.071Z</time>
      </trkpt>
      <trkpt lat="46.89977" lon="8.55727">
        <ele>1017</ele>
        <time>2021-08-10T13:40:37.071Z</time>
      </trkpt>
      <trkpt lat="46.89977" lon="8.55727">
        <ele>1017</ele>
        <time>2021-08-10T13:40:38.072Z</time>
      </trkpt>
      <trkpt lat="46.89976" lon="8.55727">
        <ele>1017</ele>
        <time>2021-08-10T13:40:39.071Z</time>
      </trkpt>
      <trkpt lat="46.89975" lon="8.55727">
        <ele>1017</ele>
        <time>2021-08-10T13:40:40.071Z</time>
      </trkpt>
      <trkpt lat="46.89974" lon="8.55728">
        <ele>1017</ele>
        <time>2021-08-10T13:40:41.072Z</time>
      </trkpt>
      <trkpt lat="46.89973" lon="8.55728">
        <ele>1017</ele>
        <time>2021-08-10T13:40:42.072Z</time>
      </trkpt>
      <trkpt lat="46.89973" lon="8.55726">
        <ele>1017</ele>
        <time>2021-08-10T13:40:43.072Z</time>
      </trkpt>
      <trkpt lat="46.89973" lon="8.55725">
        <ele>1017</ele>
        <time>2021-08-10T13:40:44.072Z</time>
      </trkpt>
      <trkpt lat="46.89972" lon="8.55724">
        <ele>1017</ele>
        <time>2021-08-10T13:40:45.072Z</time>
      </trkpt>
      <trkpt lat="46.89972" lon="8.55723">
        <ele>1017</ele>
        <time>2021-08-10T13:40:46.072Z</time>
      </trkpt>
      <trkpt lat="46.89972" lon="8.55722">
        <ele>1017</ele>
        <time>2021-08-10T13:40:47.072Z</time>
      </trkpt>
      <trkpt lat="46.89972" lon="8.55721">
        <ele>1017</ele>
        <time>2021-08-10T13:40:48.072Z</time>
      </trkpt>
      <trkpt lat="46.89972" lon="8.5572">
        <ele>1018</ele>
        <time>2021-08-10T13:40:49.072Z</time>
      </trkpt>
      <trkpt lat="46.89972" lon="8.55721">
        <ele>1018</ele>
        <time>2021-08-10T13:40:50.071Z</time>
      </trkpt>
      <trkpt lat="46.89971" lon="8.55722">
        <ele>1018</ele>
        <time>2021-08-10T13:40:51.071Z</time>
      </trkpt>
      <trkpt lat="46.8997" lon="8.55723">
        <ele>1018</ele>
        <time>2021-08-10T13:40:52.071Z</time>
      </trkpt>
      <trkpt lat="46.89969" lon="8.55724">
        <ele>1018</ele>
        <time>2021-08-10T13:40:53.071Z</time>
      </trkpt>
      <trkpt lat="46.89968" lon="8.55724">
        <ele>1018</ele>
        <time>2021-08-10T13:40:54.071Z</time>
      </trkpt>
      <trkpt lat="46.89967" lon="8.55725">
        <ele>1018</ele>
        <time>2021-08-10T13:40:55.071Z</time>
      </trkpt>
      <trkpt lat="46.89967" lon="8.55723">
        <ele>1018</ele>
        <time>2021-08-10T13:40:56.071Z</time>
      </trkpt>
      <trkpt lat="46.89967" lon="8.55722">
        <ele>1018</ele>
        <time>2021-08-10T13:40:57.071Z</time>
      </trkpt>
      <trkpt lat="46.89967" lon="8.55721">
        <ele>1018</ele>
        <time>2021-08-10T13:40:58.071Z</time>
      </trkpt>
      <trkpt lat="46.89966" lon="8.5572">
        <ele>1018</ele>
        <time>2021-08-10T13:40:59.071Z</time>
      </trkpt>
      <trkpt lat="46.89966" lon="8.55719">
        <ele>1018</ele>
        <time>2021-08-10T13:41:00.071Z</time>
      </trkpt>
      <trkpt lat="46.89966" lon="8.55719">
        <ele>1018</ele>
        <time>2021-08-10T13:41:01.071Z</time>
      </trkpt>
      <trkpt lat="46.89965" lon="8.55719">
        <ele>1018</ele>
        <time>2021-08-10T13:41:02.072Z</time>
      </trkpt>
      <trkpt lat="46.89966" lon="8.55717">
        <ele>1018</ele>
        <time>2021-08-10T13:41:03.071Z</time>
      </trkpt>
      <trkpt lat="46.89965" lon="8.55716">
        <ele>1017</ele>
        <time>2021-08-10T13:41:04.071Z</time>
      </trkpt>
      <trkpt lat="46.89964" lon="8.55716">
        <ele>1017</ele>
        <time>2021-08-10T13:41:05.071Z</time>
      </trkpt>
      <trkpt lat="46.89963" lon="8.55715">
        <ele>1017</ele>
        <time>2021-08-10T13:41:06.072Z</time>
      </trkpt>
      <trkpt lat="46.89962" lon="8.55715">
        <ele>1016</ele>
        <time>2021-08-10T13:41:07.071Z</time>
      </trkpt>
      <trkpt lat="46.8996" lon="8.55715">
        <ele>1016</ele>
        <time>2021-08-10T13:41:08.072Z</time>
      </trkpt>
      <trkpt lat="46.89959" lon="8.55717">
        <ele>1016</ele>
        <time>2021-08-10T13:41:09.071Z</time>
      </trkpt>
      <trkpt lat="46.89957" lon="8.55718">
        <ele>1016</ele>
        <time>2021-08-10T13:41:10.072Z</time>
      </trkpt>
      <trkpt lat="46.89956" lon="8.55718">
        <ele>1016</ele>
        <time>2021-08-10T13:41:11.071Z</time>
      </trkpt>
      <trkpt lat="46.89956" lon="8.55719">
        <ele>1016</ele>
        <time>2021-08-10T13:41:12.072Z</time>
      </trkpt>
      <trkpt lat="46.89955" lon="8.5572">
        <ele>1016</ele>
        <time>2021-08-10T13:41:13.072Z</time>
      </trkpt>
      <trkpt lat="46.89954" lon="8.5572">
        <ele>1017</ele>
        <time>2021-08-10T13:41:14.072Z</time>
      </trkpt>
      <trkpt lat="46.89953" lon="8.5572">
        <ele>1017</ele>
        <time>2021-08-10T13:41:15.072Z</time>
      </trkpt>
      <trkpt lat="46.89952" lon="8.5572">
        <ele>1016</ele>
        <time>2021-08-10T13:41:16.071Z</time>
      </trkpt>
      <trkpt lat="46.89951" lon="8.55719">
        <ele>1016</ele>
        <time>2021-08-10T13:41:17.072Z</time>
      </trkpt>
      <trkpt lat="46.8995" lon="8.55719">
        <ele>1016</ele>
        <time>2021-08-10T13:41:18.071Z</time>
      </trkpt>
      <trkpt lat="46.8995" lon="8.55718">
        <ele>1016</ele>
        <time>2021-08-10T13:41:19.072Z</time>
      </trkpt>
      <trkpt lat="46.89949" lon="8.55718">
        <ele>1016</ele>
        <time>2021-08-10T13:41:20.071Z</time>
      </trkpt>
      <trkpt lat="46.89948" lon="8.55718">
        <ele>1016</ele>
        <time>2021-08-10T13:41:21.072Z</time>
      </trkpt>
      <trkpt lat="46.89946" lon="8.55718">
        <ele>1017</ele>
        <time>2021-08-10T13:41:22.072Z</time>
      </trkpt>
      <trkpt lat="46.89945" lon="8.55718">
        <ele>1017</ele>
        <time>2021-08-10T13:41:23.071Z</time>
      </trkpt>
      <trkpt lat="46.89944" lon="8.55718">
        <ele>1017</ele>
        <time>2021-08-10T13:41:24.072Z</time>
      </trkpt>
      <trkpt lat="46.89943" lon="8.55718">
        <ele>1017</ele>
        <time>2021-08-10T13:41:25.071Z</time>
      </trkpt>
      <trkpt lat="46.89941" lon="8.55718">
        <ele>1017</ele>
        <time>2021-08-10T13:41:26.071Z</time>
      </trkpt>
      <trkpt lat="46.8994" lon="8.55718">
        <ele>1017</ele>
        <time>2021-08-10T13:41:27.071Z</time>
      </trkpt>
      <trkpt lat="46.89939" lon="8.55718">
        <ele>1017</ele>
        <time>2021-08-10T13:41:28.071Z</time>
      </trkpt>
      <trkpt lat="46.89938" lon="8.55717">
        <ele>1017</ele>
        <time>2021-08-10T13:41:29.072Z</time>
      </trkpt>
      <trkpt lat="46.89936" lon="8.55715">
        <ele>1017</ele>
        <time>2021-08-10T13:41:30.071Z</time>
      </trkpt>
      <trkpt lat="46.89934" lon="8.55714">
        <ele>1018</ele>
        <time>2021-08-10T13:41:31.071Z</time>
      </trkpt>
      <trkpt lat="46.89933" lon="8.55714">
        <ele>1018</ele>
        <time>2021-08-10T13:41:32.071Z</time>
      </trkpt>
      <trkpt lat="46.89932" lon="8.55714">
        <ele>1019</ele>
        <time>2021-08-10T13:41:33.071Z</time>
      </trkpt>
      <trkpt lat="46.89931" lon="8.55714">
        <ele>1019</ele>
        <time>2021-08-10T13:41:34.072Z</time>
      </trkpt>
      <trkpt lat="46.8993" lon="8.55715">
        <ele>1020</ele>
        <time>2021-08-10T13:41:35.072Z</time>
      </trkpt>
      <trkpt lat="46.89928" lon="8.55715">
        <ele>1019</ele>
        <time>2021-08-10T13:41:36.072Z</time>
      </trkpt>
      <trkpt lat="46.89928" lon="8.55715">
        <ele>1019</ele>
        <time>2021-08-10T13:41:37.072Z</time>
      </trkpt>
      <trkpt lat="46.89927" lon="8.55715">
        <ele>1019</ele>
        <time>2021-08-10T13:41:38.072Z</time>
      </trkpt>
      <trkpt lat="46.89926" lon="8.55714">
        <ele>1018</ele>
        <time>2021-08-10T13:41:39.071Z</time>
      </trkpt>
      <trkpt lat="46.89925" lon="8.55713">
        <ele>1019</ele>
        <time>2021-08-10T13:41:40.072Z</time>
      </trkpt>
      <trkpt lat="46.89924" lon="8.55713">
        <ele>1019</ele>
        <time>2021-08-10T13:41:41.072Z</time>
      </trkpt>
      <trkpt lat="46.89923" lon="8.55713">
        <ele>1019</ele>
        <time>2021-08-10T13:41:42.072Z</time>
      </trkpt>
      <trkpt lat="46.89922" lon="8.55712">
        <ele>1020</ele>
        <time>2021-08-10T13:41:43.072Z</time>
      </trkpt>
      <trkpt lat="46.89921" lon="8.55712">
        <ele>1020</ele>
        <time>2021-08-10T13:41:44.072Z</time>
      </trkpt>
      <trkpt lat="46.8992" lon="8.55712">
        <ele>1021</ele>
        <time>2021-08-10T13:41:45.072Z</time>
      </trkpt>
      <trkpt lat="46.89919" lon="8.55711">
        <ele>1021</ele>
        <time>2021-08-10T13:41:46.072Z</time>
      </trkpt>
      <trkpt lat="46.89919" lon="8.5571">
        <ele>1022</ele>
        <time>2021-08-10T13:41:47.072Z</time>
      </trkpt>
      <trkpt lat="46.89918" lon="8.55709">
        <ele>1022</ele>
        <time>2021-08-10T13:41:48.072Z</time>
      </trkpt>
      <trkpt lat="46.89917" lon="8.55709">
        <ele>1022</ele>
        <time>2021-08-10T13:41:49.072Z</time>
      </trkpt>
      <trkpt lat="46.89917" lon="8.55708">
        <ele>1022</ele>
        <time>2021-08-10T13:41:50.072Z</time>
      </trkpt>
      <trkpt lat="46.89916" lon="8.55708">
        <ele>1022</ele>
        <time>2021-08-10T13:41:51.071Z</time>
      </trkpt>
      <trkpt lat="46.89915" lon="8.55707">
        <ele>1023</ele>
        <time>2021-08-10T13:41:52.071Z</time>
      </trkpt>
      <trkpt lat="46.89914" lon="8.55707">
        <ele>1023</ele>
        <time>2021-08-10T13:41:53.072Z</time>
      </trkpt>
      <trkpt lat="46.89913" lon="8.55706">
        <ele>1022</ele>
        <time>2021-08-10T13:41:54.071Z</time>
      </trkpt>
      <trkpt lat="46.89912" lon="8.55705">
        <ele>1022</ele>
        <time>2021-08-10T13:41:55.072Z</time>
      </trkpt>
      <trkpt lat="46.89911" lon="8.55705">
        <ele>1022</ele>
        <time>2021-08-10T13:41:56.071Z</time>
      </trkpt>
      <trkpt lat="46.8991" lon="8.55705">
        <ele>1022</ele>
        <time>2021-08-10T13:41:57.072Z</time>
      </trkpt>
      <trkpt lat="46.8991" lon="8.55705">
        <ele>1021</ele>
        <time>2021-08-10T13:41:58.071Z</time>
      </trkpt>
      <trkpt lat="46.89909" lon="8.55704">
        <ele>1021</ele>
        <time>2021-08-10T13:41:59.071Z</time>
      </trkpt>
      <trkpt lat="46.89908" lon="8.55703">
        <ele>1021</ele>
        <time>2021-08-10T13:42:00.072Z</time>
      </trkpt>
      <trkpt lat="46.89907" lon="8.55703">
        <ele>1020</ele>
        <time>2021-08-10T13:42:01.071Z</time>
      </trkpt>
      <trkpt lat="46.89906" lon="8.55702">
        <ele>1020</ele>
        <time>2021-08-10T13:42:02.071Z</time>
      </trkpt>
      <trkpt lat="46.89905" lon="8.55701">
        <ele>1019</ele>
        <time>2021-08-10T13:42:03.072Z</time>
      </trkpt>
      <trkpt lat="46.89903" lon="8.55701">
        <ele>1019</ele>
        <time>2021-08-10T13:42:04.071Z</time>
      </trkpt>
      <trkpt lat="46.89902" lon="8.55701">
        <ele>1019</ele>
        <time>2021-08-10T13:42:05.071Z</time>
      </trkpt>
      <trkpt lat="46.89901" lon="8.557">
        <ele>1019</ele>
        <time>2021-08-10T13:42:06.071Z</time>
      </trkpt>
      <trkpt lat="46.899" lon="8.55699">
        <ele>1019</ele>
        <time>2021-08-10T13:42:07.071Z</time>
      </trkpt>
      <trkpt lat="46.89899" lon="8.55699">
        <ele>1020</ele>
        <time>2021-08-10T13:42:08.072Z</time>
      </trkpt>
      <trkpt lat="46.89899" lon="8.55698">
        <ele>1020</ele>
        <time>2021-08-10T13:42:09.072Z</time>
      </trkpt>
      <trkpt lat="46.89897" lon="8.55697">
        <ele>1021</ele>
        <time>2021-08-10T13:42:10.072Z</time>
      </trkpt>
      <trkpt lat="46.89896" lon="8.55697">
        <ele>1021</ele>
        <time>2021-08-10T13:42:11.071Z</time>
      </trkpt>
      <trkpt lat="46.89895" lon="8.55697">
        <ele>1021</ele>
        <time>2021-08-10T13:42:12.072Z</time>
      </trkpt>
      <trkpt lat="46.89894" lon="8.55698">
        <ele>1021</ele>
        <time>2021-08-10T13:42:13.072Z</time>
      </trkpt>
      <trkpt lat="46.89893" lon="8.55699">
        <ele>1021</ele>
        <time>2021-08-10T13:42:14.072Z</time>
      </trkpt>
      <trkpt lat="46.89893" lon="8.55699">
        <ele>1021</ele>
        <time>2021-08-10T13:42:15.071Z</time>
      </trkpt>
      <trkpt lat="46.89892" lon="8.55699">
        <ele>1022</ele>
        <time>2021-08-10T13:42:16.072Z</time>
      </trkpt>
      <trkpt lat="46.89892" lon="8.55698">
        <ele>1022</ele>
        <time>2021-08-10T13:42:17.072Z</time>
      </trkpt>
      <trkpt lat="46.89891" lon="8.55697">
        <ele>1022</ele>
        <time>2021-08-10T13:42:18.071Z</time>
      </trkpt>
      <trkpt lat="46.8989" lon="8.55696">
        <ele>1023</ele>
        <time>2021-08-10T13:42:19.071Z</time>
      </trkpt>
      <trkpt lat="46.8989" lon="8.55696">
        <ele>1023</ele>
        <time>2021-08-10T13:42:20.072Z</time>
      </trkpt>
      <trkpt lat="46.89888" lon="8.55696">
        <ele>1024</ele>
        <time>2021-08-10T13:42:21.072Z</time>
      </trkpt>
      <trkpt lat="46.89887" lon="8.55695">
        <ele>1024</ele>
        <time>2021-08-10T13:42:22.071Z</time>
      </trkpt>
      <trkpt lat="46.89887" lon="8.55694">
        <ele>1024</ele>
        <time>2021-08-10T13:42:23.072Z</time>
      </trkpt>
      <trkpt lat="46.89886" lon="8.55694">
        <ele>1024</ele>
        <time>2021-08-10T13:42:24.071Z</time>
      </trkpt>
      <trkpt lat="46.89885" lon="8.55694">
        <ele>1024</ele>
        <time>2021-08-10T13:42:25.072Z</time>
      </trkpt>
      <trkpt lat="46.89884" lon="8.55694">
        <ele>1024</ele>
        <time>2021-08-10T13:42:26.071Z</time>
      </trkpt>
      <trkpt lat="46.89884" lon="8.55693">
        <ele>1024</ele>
        <time>2021-08-10T13:42:27.072Z</time>
      </trkpt>
      <trkpt lat="46.89884" lon="8.55693">
        <ele>1024</ele>
        <time>2021-08-10T13:42:28.072Z</time>
      </trkpt>
      <trkpt lat="46.89883" lon="8.55693">
        <ele>1024</ele>
        <time>2021-08-10T13:42:29.072Z</time>
      </trkpt>
      <trkpt lat="46.89882" lon="8.55693">
        <ele>1023</ele>
        <time>2021-08-10T13:42:30.072Z</time>
      </trkpt>
      <trkpt lat="46.89882" lon="8.55693">
        <ele>1022</ele>
        <time>2021-08-10T13:42:31.071Z</time>
      </trkpt>
      <trkpt lat="46.89881" lon="8.55694">
        <ele>1022</ele>
        <time>2021-08-10T13:42:32.071Z</time>
      </trkpt>
      <trkpt lat="46.8988" lon="8.55694">
        <ele>1022</ele>
        <time>2021-08-10T13:42:33.072Z</time>
      </trkpt>
      <trkpt lat="46.89879" lon="8.55696">
        <ele>1021</ele>
        <time>2021-08-10T13:42:34.072Z</time>
      </trkpt>
      <trkpt lat="46.89878" lon="8.55697">
        <ele>1021</ele>
        <time>2021-08-10T13:42:35.071Z</time>
      </trkpt>
      <trkpt lat="46.89877" lon="8.55697">
        <ele>1021</ele>
        <time>2021-08-10T13:42:36.071Z</time>
      </trkpt>
      <trkpt lat="46.89875" lon="8.55697">
        <ele>1021</ele>
        <time>2021-08-10T13:42:37.072Z</time>
      </trkpt>
      <trkpt lat="46.89874" lon="8.55697">
        <ele>1021</ele>
        <time>2021-08-10T13:42:38.072Z</time>
      </trkpt>
      <trkpt lat="46.89873" lon="8.55696">
        <ele>1021</ele>
        <time>2021-08-10T13:42:39.072Z</time>
      </trkpt>
      <trkpt lat="46.89872" lon="8.55696">
        <ele>1022</ele>
        <time>2021-08-10T13:42:40.071Z</time>
      </trkpt>
      <trkpt lat="46.89871" lon="8.55696">
        <ele>1022</ele>
        <time>2021-08-10T13:42:41.072Z</time>
      </trkpt>
      <trkpt lat="46.89872" lon="8.55695">
        <ele>1022</ele>
        <time>2021-08-10T13:42:42.072Z</time>
      </trkpt>
      <trkpt lat="46.89872" lon="8.55695">
        <ele>1023</ele>
        <time>2021-08-10T13:42:43.072Z</time>
      </trkpt>
      <trkpt lat="46.89871" lon="8.55694">
        <ele>1023</ele>
        <time>2021-08-10T13:42:44.072Z</time>
      </trkpt>
      <trkpt lat="46.89868" lon="8.55696">
        <ele>1023</ele>
        <time>2021-08-10T13:42:45.071Z</time>
      </trkpt>
      <trkpt lat="46.89867" lon="8.55695">
        <ele>1024</ele>
        <time>2021-08-10T13:42:46.072Z</time>
      </trkpt>
      <trkpt lat="46.89866" lon="8.55695">
        <ele>1024</ele>
        <time>2021-08-10T13:42:47.072Z</time>
      </trkpt>
      <trkpt lat="46.89864" lon="8.55695">
        <ele>1024</ele>
        <time>2021-08-10T13:42:49.104Z</time>
      </trkpt>
      <trkpt lat="46.89863" lon="8.55695">
        <ele>1024</ele>
        <time>2021-08-10T13:42:50.943Z</time>
      </trkpt>
      <trkpt lat="46.89861" lon="8.55694">
        <ele>1024</ele>
        <time>2021-08-10T13:42:51.943Z</time>
      </trkpt>
      <trkpt lat="46.89861" lon="8.55693">
        <ele>1024</ele>
        <time>2021-08-10T13:42:53.856Z</time>
      </trkpt>
      <trkpt lat="46.89859" lon="8.55693">
        <ele>1025</ele>
        <time>2021-08-10T13:42:54.856Z</time>
      </trkpt>
      <trkpt lat="46.89858" lon="8.55693">
        <ele>1025</ele>
        <time>2021-08-10T13:42:55.855Z</time>
      </trkpt>
      <trkpt lat="46.89857" lon="8.55692">
        <ele>1025</ele>
        <time>2021-08-10T13:42:56.855Z</time>
      </trkpt>
      <trkpt lat="46.89857" lon="8.55691">
        <ele>1025</ele>
        <time>2021-08-10T13:42:57.855Z</time>
      </trkpt>
      <trkpt lat="46.89856" lon="8.55692">
        <ele>1026</ele>
        <time>2021-08-10T13:42:58.856Z</time>
      </trkpt>
      <trkpt lat="46.89855" lon="8.55692">
        <ele>1026</ele>
        <time>2021-08-10T13:42:59.855Z</time>
      </trkpt>
      <trkpt lat="46.89854" lon="8.55693">
        <ele>1026</ele>
        <time>2021-08-10T13:43:00.855Z</time>
      </trkpt>
      <trkpt lat="46.89852" lon="8.55693">
        <ele>1026</ele>
        <time>2021-08-10T13:43:01.856Z</time>
      </trkpt>
      <trkpt lat="46.89851" lon="8.55693">
        <ele>1026</ele>
        <time>2021-08-10T13:43:02.855Z</time>
      </trkpt>
      <trkpt lat="46.89851" lon="8.55693">
        <ele>1026</ele>
        <time>2021-08-10T13:43:03.856Z</time>
      </trkpt>
      <trkpt lat="46.8985" lon="8.55693">
        <ele>1027</ele>
        <time>2021-08-10T13:43:04.855Z</time>
      </trkpt>
      <trkpt lat="46.89849" lon="8.55692">
        <ele>1027</ele>
        <time>2021-08-10T13:43:05.856Z</time>
      </trkpt>
      <trkpt lat="46.8985" lon="8.55689">
        <ele>1027</ele>
        <time>2021-08-10T13:43:06.856Z</time>
      </trkpt>
      <trkpt lat="46.89851" lon="8.55686">
        <ele>1027</ele>
        <time>2021-08-10T13:43:07.856Z</time>
      </trkpt>
      <trkpt lat="46.89851" lon="8.55684">
        <ele>1028</ele>
        <time>2021-08-10T13:43:08.855Z</time>
      </trkpt>
      <trkpt lat="46.89852" lon="8.55682">
        <ele>1028</ele>
        <time>2021-08-10T13:43:09.856Z</time>
      </trkpt>
      <trkpt lat="46.89853" lon="8.55679">
        <ele>1028</ele>
        <time>2021-08-10T13:43:10.856Z</time>
      </trkpt>
      <trkpt lat="46.89855" lon="8.55677">
        <ele>1028</ele>
        <time>2021-08-10T13:43:11.856Z</time>
      </trkpt>
      <trkpt lat="46.89854" lon="8.55677">
        <ele>1028</ele>
        <time>2021-08-10T13:43:12.855Z</time>
      </trkpt>
      <trkpt lat="46.89852" lon="8.55678">
        <ele>1029</ele>
        <time>2021-08-10T13:43:13.856Z</time>
      </trkpt>
      <trkpt lat="46.89849" lon="8.55679">
        <ele>1029</ele>
        <time>2021-08-10T13:43:14.856Z</time>
      </trkpt>
      <trkpt lat="46.89849" lon="8.55679">
        <ele>1030</ele>
        <time>2021-08-10T13:43:15.856Z</time>
      </trkpt>
      <trkpt lat="46.89849" lon="8.55678">
        <ele>1030</ele>
        <time>2021-08-10T13:43:16.856Z</time>
      </trkpt>
      <trkpt lat="46.89849" lon="8.55677">
        <ele>1031</ele>
        <time>2021-08-10T13:43:17.855Z</time>
      </trkpt>
      <trkpt lat="46.89849" lon="8.55677">
        <ele>1031</ele>
        <time>2021-08-10T13:43:18.855Z</time>
      </trkpt>
      <trkpt lat="46.89848" lon="8.55677">
        <ele>1031</ele>
        <time>2021-08-10T13:43:19.855Z</time>
      </trkpt>
      <trkpt lat="46.89847" lon="8.55678">
        <ele>1032</ele>
        <time>2021-08-10T13:43:20.855Z</time>
      </trkpt>
      <trkpt lat="46.89846" lon="8.55678">
        <ele>1032</ele>
        <time>2021-08-10T13:43:21.855Z</time>
      </trkpt>
      <trkpt lat="46.89846" lon="8.55678">
        <ele>1033</ele>
        <time>2021-08-10T13:43:22.855Z</time>
      </trkpt>
      <trkpt lat="46.89846" lon="8.55678">
        <ele>1033</ele>
        <time>2021-08-10T13:43:23.856Z</time>
      </trkpt>
      <trkpt lat="46.89846" lon="8.55678">
        <ele>1033</ele>
        <time>2021-08-10T13:43:24.855Z</time>
      </trkpt>
      <trkpt lat="46.89846" lon="8.55678">
        <ele>1033</ele>
        <time>2021-08-10T13:43:25.856Z</time>
      </trkpt>
      <trkpt lat="46.89847" lon="8.55677">
        <ele>1034</ele>
        <time>2021-08-10T13:43:26.855Z</time>
      </trkpt>
      <trkpt lat="46.89847" lon="8.55675">
        <ele>1034</ele>
        <time>2021-08-10T13:43:27.855Z</time>
      </trkpt>
      <trkpt lat="46.89847" lon="8.55674">
        <ele>1034</ele>
        <time>2021-08-10T13:43:28.855Z</time>
      </trkpt>
      <trkpt lat="46.89846" lon="8.55674">
        <ele>1034</ele>
        <time>2021-08-10T13:43:29.855Z</time>
      </trkpt>
      <trkpt lat="46.89845" lon="8.55674">
        <ele>1034</ele>
        <time>2021-08-10T13:43:30.855Z</time>
      </trkpt>
      <trkpt lat="46.89843" lon="8.55675">
        <ele>1035</ele>
        <time>2021-08-10T13:43:31.856Z</time>
      </trkpt>
      <trkpt lat="46.89842" lon="8.55675">
        <ele>1035</ele>
        <time>2021-08-10T13:43:32.856Z</time>
      </trkpt>
      <trkpt lat="46.89841" lon="8.55676">
        <ele>1035</ele>
        <time>2021-08-10T13:43:33.855Z</time>
      </trkpt>
      <trkpt lat="46.89839" lon="8.55679">
        <ele>1035</ele>
        <time>2021-08-10T13:43:34.856Z</time>
      </trkpt>
      <trkpt lat="46.89837" lon="8.5568">
        <ele>1034</ele>
        <time>2021-08-10T13:43:35.856Z</time>
      </trkpt>
      <trkpt lat="46.89837" lon="8.55681">
        <ele>1034</ele>
        <time>2021-08-10T13:43:36.856Z</time>
      </trkpt>
      <trkpt lat="46.89836" lon="8.55681">
        <ele>1034</ele>
        <time>2021-08-10T13:43:37.855Z</time>
      </trkpt>
      <trkpt lat="46.89836" lon="8.55681">
        <ele>1034</ele>
        <time>2021-08-10T13:43:38.855Z</time>
      </trkpt>
      <trkpt lat="46.89835" lon="8.55681">
        <ele>1034</ele>
        <time>2021-08-10T13:43:39.856Z</time>
      </trkpt>
      <trkpt lat="46.89834" lon="8.55681">
        <ele>1034</ele>
        <time>2021-08-10T13:43:40.855Z</time>
      </trkpt>
      <trkpt lat="46.89833" lon="8.55681">
        <ele>1034</ele>
        <time>2021-08-10T13:43:41.856Z</time>
      </trkpt>
      <trkpt lat="46.89833" lon="8.5568">
        <ele>1034</ele>
        <time>2021-08-10T13:43:42.855Z</time>
      </trkpt>
      <trkpt lat="46.89832" lon="8.5568">
        <ele>1034</ele>
        <time>2021-08-10T13:43:43.855Z</time>
      </trkpt>
      <trkpt lat="46.89831" lon="8.55681">
        <ele>1033</ele>
        <time>2021-08-10T13:43:44.856Z</time>
      </trkpt>
      <trkpt lat="46.89828" lon="8.55683">
        <ele>1033</ele>
        <time>2021-08-10T13:43:45.856Z</time>
      </trkpt>
      <trkpt lat="46.89824" lon="8.55685">
        <ele>1033</ele>
        <time>2021-08-10T13:43:46.855Z</time>
      </trkpt>
      <trkpt lat="46.89821" lon="8.55686">
        <ele>1033</ele>
        <time>2021-08-10T13:43:47.856Z</time>
      </trkpt>
      <trkpt lat="46.89821" lon="8.55686">
        <ele>1033</ele>
        <time>2021-08-10T13:43:48.855Z</time>
      </trkpt>
      <trkpt lat="46.8982" lon="8.55686">
        <ele>1034</ele>
        <time>2021-08-10T13:43:49.855Z</time>
      </trkpt>
      <trkpt lat="46.89819" lon="8.55686">
        <ele>1034</ele>
        <time>2021-08-10T13:43:50.856Z</time>
      </trkpt>
      <trkpt lat="46.89818" lon="8.55687">
        <ele>1034</ele>
        <time>2021-08-10T13:43:51.855Z</time>
      </trkpt>
      <trkpt lat="46.89818" lon="8.55687">
        <ele>1034</ele>
        <time>2021-08-10T13:43:52.856Z</time>
      </trkpt>
      <trkpt lat="46.89818" lon="8.55687">
        <ele>1034</ele>
        <time>2021-08-10T13:43:53.856Z</time>
      </trkpt>
      <trkpt lat="46.89818" lon="8.55689">
        <ele>1034</ele>
        <time>2021-08-10T13:43:54.857Z</time>
      </trkpt>
      <trkpt lat="46.8982" lon="8.55688">
        <ele>1034</ele>
        <time>2021-08-10T13:43:55.856Z</time>
      </trkpt>
      <trkpt lat="46.89821" lon="8.55688">
        <ele>1034</ele>
        <time>2021-08-10T13:43:56.856Z</time>
      </trkpt>
      <trkpt lat="46.8982" lon="8.55689">
        <ele>1034</ele>
        <time>2021-08-10T13:43:57.856Z</time>
      </trkpt>
      <trkpt lat="46.89818" lon="8.5569">
        <ele>1034</ele>
        <time>2021-08-10T13:43:58.858Z</time>
      </trkpt>
      <trkpt lat="46.89817" lon="8.55691">
        <ele>1034</ele>
        <time>2021-08-10T13:43:59.857Z</time>
      </trkpt>
      <trkpt lat="46.89815" lon="8.55692">
        <ele>1034</ele>
        <time>2021-08-10T13:44:00.857Z</time>
      </trkpt>
      <trkpt lat="46.89814" lon="8.55693">
        <ele>1034</ele>
        <time>2021-08-10T13:44:01.858Z</time>
      </trkpt>
      <trkpt lat="46.89814" lon="8.55694">
        <ele>1034</ele>
        <time>2021-08-10T13:44:02.858Z</time>
      </trkpt>
      <trkpt lat="46.89813" lon="8.55694">
        <ele>1034</ele>
        <time>2021-08-10T13:44:03.857Z</time>
      </trkpt>
      <trkpt lat="46.89812" lon="8.55696">
        <ele>1034</ele>
        <time>2021-08-10T13:44:04.858Z</time>
      </trkpt>
      <trkpt lat="46.89811" lon="8.55697">
        <ele>1034</ele>
        <time>2021-08-10T13:44:05.858Z</time>
      </trkpt>
      <trkpt lat="46.8981" lon="8.55699">
        <ele>1034</ele>
        <time>2021-08-10T13:44:06.858Z</time>
      </trkpt>
      <trkpt lat="46.89808" lon="8.55702">
        <ele>1034</ele>
        <time>2021-08-10T13:44:07.858Z</time>
      </trkpt>
      <trkpt lat="46.89807" lon="8.55703">
        <ele>1034</ele>
        <time>2021-08-10T13:44:08.857Z</time>
      </trkpt>
      <trkpt lat="46.89805" lon="8.55704">
        <ele>1034</ele>
        <time>2021-08-10T13:44:09.858Z</time>
      </trkpt>
      <trkpt lat="46.89803" lon="8.55704">
        <ele>1034</ele>
        <time>2021-08-10T13:44:10.858Z</time>
      </trkpt>
      <trkpt lat="46.89801" lon="8.55705">
        <ele>1034</ele>
        <time>2021-08-10T13:44:11.858Z</time>
      </trkpt>
      <trkpt lat="46.898" lon="8.55706">
        <ele>1035</ele>
        <time>2021-08-10T13:44:12.858Z</time>
      </trkpt>
      <trkpt lat="46.898" lon="8.55707">
        <ele>1035</ele>
        <time>2021-08-10T13:44:13.858Z</time>
      </trkpt>
      <trkpt lat="46.898" lon="8.55705">
        <ele>1036</ele>
        <time>2021-08-10T13:44:14.857Z</time>
      </trkpt>
      <trkpt lat="46.89801" lon="8.55704">
        <ele>1036</ele>
        <time>2021-08-10T13:44:15.858Z</time>
      </trkpt>
      <trkpt lat="46.89801" lon="8.55704">
        <ele>1036</ele>
        <time>2021-08-10T13:44:16.857Z</time>
      </trkpt>
      <trkpt lat="46.89807" lon="8.55698">
        <ele>1034</ele>
        <time>2021-08-10T13:44:17.857Z</time>
      </trkpt>
      <trkpt lat="46.89808" lon="8.55698">
        <ele>1034</ele>
        <time>2021-08-10T13:44:18.858Z</time>
      </trkpt>
      <trkpt lat="46.89812" lon="8.55699">
        <ele>1034</ele>
        <time>2021-08-10T13:44:19.857Z</time>
      </trkpt>
      <trkpt lat="46.8982" lon="8.55693">
        <ele>1036</ele>
        <time>2021-08-10T13:44:20.858Z</time>
      </trkpt>
      <trkpt lat="46.89819" lon="8.55693">
        <ele>1036</ele>
        <time>2021-08-10T13:44:21.857Z</time>
      </trkpt>
      <trkpt lat="46.89817" lon="8.55694">
        <ele>1035</ele>
        <time>2021-08-10T13:44:22.858Z</time>
      </trkpt>
      <trkpt lat="46.89817" lon="8.55692">
        <ele>1035</ele>
        <time>2021-08-10T13:44:23.858Z</time>
      </trkpt>
      <trkpt lat="46.89816" lon="8.55692">
        <ele>1035</ele>
        <time>2021-08-10T13:44:24.857Z</time>
      </trkpt>
      <trkpt lat="46.89817" lon="8.5569">
        <ele>1035</ele>
        <time>2021-08-10T13:44:25.858Z</time>
      </trkpt>
      <trkpt lat="46.89817" lon="8.5569">
        <ele>1035</ele>
        <time>2021-08-10T13:44:26.858Z</time>
      </trkpt>
      <trkpt lat="46.89818" lon="8.55689">
        <ele>1036</ele>
        <time>2021-08-10T13:44:27.858Z</time>
      </trkpt>
      <trkpt lat="46.89817" lon="8.5569">
        <ele>1036</ele>
        <time>2021-08-10T13:44:28.858Z</time>
      </trkpt>
      <trkpt lat="46.89817" lon="8.5569">
        <ele>1036</ele>
        <time>2021-08-10T13:44:29.858Z</time>
      </trkpt>
      <trkpt lat="46.89817" lon="8.5569">
        <ele>1036</ele>
        <time>2021-08-10T13:44:30.858Z</time>
      </trkpt>
      <trkpt lat="46.89815" lon="8.55691">
        <ele>1036</ele>
        <time>2021-08-10T13:44:31.858Z</time>
      </trkpt>
      <trkpt lat="46.89815" lon="8.55691">
        <ele>1036</ele>
        <time>2021-08-10T13:44:32.858Z</time>
      </trkpt>
      <trkpt lat="46.89815" lon="8.55691">
        <ele>1035</ele>
        <time>2021-08-10T13:44:33.859Z</time>
      </trkpt>
      <trkpt lat="46.89815" lon="8.55692">
        <ele>1035</ele>
        <time>2021-08-10T13:44:34.858Z</time>
      </trkpt>
      <trkpt lat="46.89815" lon="8.55693">
        <ele>1035</ele>
        <time>2021-08-10T13:44:35.859Z</time>
      </trkpt>
      <trkpt lat="46.89814" lon="8.55694">
        <ele>1034</ele>
        <time>2021-08-10T13:44:36.859Z</time>
      </trkpt>
      <trkpt lat="46.89811" lon="8.55693">
        <ele>1033</ele>
        <time>2021-08-10T13:44:37.860Z</time>
      </trkpt>
      <trkpt lat="46.89811" lon="8.55692">
        <ele>1034</ele>
        <time>2021-08-10T13:44:38.859Z</time>
      </trkpt>
      <trkpt lat="46.89811" lon="8.5569">
        <ele>1034</ele>
        <time>2021-08-10T13:44:39.860Z</time>
      </trkpt>
      <trkpt lat="46.8981" lon="8.55689">
        <ele>1034</ele>
        <time>2021-08-10T13:44:40.860Z</time>
      </trkpt>
      <trkpt lat="46.89809" lon="8.55689">
        <ele>1034</ele>
        <time>2021-08-10T13:44:41.859Z</time>
      </trkpt>
      <trkpt lat="46.89807" lon="8.5569">
        <ele>1034</ele>
        <time>2021-08-10T13:44:42.860Z</time>
      </trkpt>
      <trkpt lat="46.89806" lon="8.55691">
        <ele>1034</ele>
        <time>2021-08-10T13:44:43.860Z</time>
      </trkpt>
      <trkpt lat="46.89805" lon="8.55693">
        <ele>1034</ele>
        <time>2021-08-10T13:44:44.860Z</time>
      </trkpt>
      <trkpt lat="46.89806" lon="8.55693">
        <ele>1034</ele>
        <time>2021-08-10T13:44:45.860Z</time>
      </trkpt>
      <trkpt lat="46.89806" lon="8.55694">
        <ele>1033</ele>
        <time>2021-08-10T13:44:46.860Z</time>
      </trkpt>
      <trkpt lat="46.89807" lon="8.55694">
        <ele>1033</ele>
        <time>2021-08-10T13:44:47.860Z</time>
      </trkpt>
      <trkpt lat="46.89808" lon="8.55694">
        <ele>1032</ele>
        <time>2021-08-10T13:44:48.860Z</time>
      </trkpt>
      <trkpt lat="46.89813" lon="8.55691">
        <ele>1027</ele>
        <time>2021-08-10T13:44:49.860Z</time>
      </trkpt>
      <trkpt lat="46.89813" lon="8.55691">
        <ele>1028</ele>
        <time>2021-08-10T13:44:50.859Z</time>
      </trkpt>
      <trkpt lat="46.89813" lon="8.55691">
        <ele>1028</ele>
        <time>2021-08-10T13:44:51.860Z</time>
      </trkpt>
      <trkpt lat="46.89814" lon="8.5569">
        <ele>1031</ele>
        <time>2021-08-10T13:44:52.861Z</time>
      </trkpt>
      <trkpt lat="46.89816" lon="8.55689">
        <ele>1032</ele>
        <time>2021-08-10T13:44:53.860Z</time>
      </trkpt>
      <trkpt lat="46.89816" lon="8.55689">
        <ele>1033</ele>
        <time>2021-08-10T13:44:54.860Z</time>
      </trkpt>
      <trkpt lat="46.89817" lon="8.55689">
        <ele>1033</ele>
        <time>2021-08-10T13:44:55.860Z</time>
      </trkpt>
      <trkpt lat="46.89817" lon="8.55689">
        <ele>1033</ele>
        <time>2021-08-10T13:44:56.860Z</time>
      </trkpt>
      <trkpt lat="46.89817" lon="8.55689">
        <ele>1034</ele>
        <time>2021-08-10T13:44:57.861Z</time>
      </trkpt>
      <trkpt lat="46.89816" lon="8.55689">
        <ele>1035</ele>
        <time>2021-08-10T13:44:58.861Z</time>
      </trkpt>
      <trkpt lat="46.89815" lon="8.55689">
        <ele>1035</ele>
        <time>2021-08-10T13:44:59.860Z</time>
      </trkpt>
      <trkpt lat="46.89815" lon="8.55689">
        <ele>1036</ele>
        <time>2021-08-10T13:45:00.861Z</time>
      </trkpt>
      <trkpt lat="46.89814" lon="8.55689">
        <ele>1036</ele>
        <time>2021-08-10T13:45:01.860Z</time>
      </trkpt>
      <trkpt lat="46.89813" lon="8.5569">
        <ele>1037</ele>
        <time>2021-08-10T13:45:02.860Z</time>
      </trkpt>
      <trkpt lat="46.89813" lon="8.5569">
        <ele>1037</ele>
        <time>2021-08-10T13:45:03.861Z</time>
      </trkpt>
      <trkpt lat="46.89813" lon="8.5569">
        <ele>1037</ele>
        <time>2021-08-10T13:45:04.860Z</time>
      </trkpt>
      <trkpt lat="46.89813" lon="8.5569">
        <ele>1037</ele>
        <time>2021-08-10T13:45:05.860Z</time>
      </trkpt>
      <trkpt lat="46.89813" lon="8.5569">
        <ele>1036</ele>
        <time>2021-08-10T13:45:06.860Z</time>
      </trkpt>
      <trkpt lat="46.89814" lon="8.5569">
        <ele>1036</ele>
        <time>2021-08-10T13:45:07.860Z</time>
      </trkpt>
      <trkpt lat="46.89811" lon="8.55689">
        <ele>1051</ele>
        <time>2021-08-10T13:45:08.863Z</time>
      </trkpt>
      <trkpt lat="46.89812" lon="8.55688">
        <ele>1051</ele>
        <time>2021-08-10T13:45:09.862Z</time>
      </trkpt>
      <trkpt lat="46.89812" lon="8.55684">
        <ele>1048</ele>
        <time>2021-08-10T13:45:10.862Z</time>
      </trkpt>
      <trkpt lat="46.89811" lon="8.55685">
        <ele>1047</ele>
        <time>2021-08-10T13:45:11.862Z</time>
      </trkpt>
      <trkpt lat="46.89811" lon="8.55684">
        <ele>1047</ele>
        <time>2021-08-10T13:45:12.862Z</time>
      </trkpt>
      <trkpt lat="46.89811" lon="8.55682">
        <ele>1047</ele>
        <time>2021-08-10T13:45:13.863Z</time>
      </trkpt>
      <trkpt lat="46.8981" lon="8.55681">
        <ele>1047</ele>
        <time>2021-08-10T13:45:14.862Z</time>
      </trkpt>
      <trkpt lat="46.8981" lon="8.5568">
        <ele>1046</ele>
        <time>2021-08-10T13:45:15.863Z</time>
      </trkpt>
      <trkpt lat="46.89809" lon="8.5568">
        <ele>1046</ele>
        <time>2021-08-10T13:45:16.863Z</time>
      </trkpt>
      <trkpt lat="46.89809" lon="8.5568">
        <ele>1046</ele>
        <time>2021-08-10T13:45:17.863Z</time>
      </trkpt>
      <trkpt lat="46.89809" lon="8.55679">
        <ele>1045</ele>
        <time>2021-08-10T13:45:18.863Z</time>
      </trkpt>
      <trkpt lat="46.89809" lon="8.55679">
        <ele>1043</ele>
        <time>2021-08-10T13:45:19.863Z</time>
      </trkpt>
      <trkpt lat="46.89809" lon="8.55678">
        <ele>1042</ele>
        <time>2021-08-10T13:45:20.863Z</time>
      </trkpt>
      <trkpt lat="46.89809" lon="8.55678">
        <ele>1042</ele>
        <time>2021-08-10T13:45:21.864Z</time>
      </trkpt>
      <trkpt lat="46.89809" lon="8.55677">
        <ele>1041</ele>
        <time>2021-08-10T13:45:22.864Z</time>
      </trkpt>
      <trkpt lat="46.89809" lon="8.55677">
        <ele>1040</ele>
        <time>2021-08-10T13:45:23.864Z</time>
      </trkpt>
      <trkpt lat="46.89809" lon="8.55676">
        <ele>1039</ele>
        <time>2021-08-10T13:45:24.865Z</time>
      </trkpt>
      <trkpt lat="46.89809" lon="8.55676">
        <ele>1038</ele>
        <time>2021-08-10T13:45:25.865Z</time>
      </trkpt>
      <trkpt lat="46.89808" lon="8.55676">
        <ele>1037</ele>
        <time>2021-08-10T13:45:26.865Z</time>
      </trkpt>
      <trkpt lat="46.89807" lon="8.55677">
        <ele>1037</ele>
        <time>2021-08-10T13:45:27.865Z</time>
      </trkpt>
      <trkpt lat="46.89806" lon="8.55678">
        <ele>1037</ele>
        <time>2021-08-10T13:45:28.865Z</time>
      </trkpt>
      <trkpt lat="46.89805" lon="8.55678">
        <ele>1037</ele>
        <time>2021-08-10T13:45:29.865Z</time>
      </trkpt>
      <trkpt lat="46.89804" lon="8.55678">
        <ele>1037</ele>
        <time>2021-08-10T13:45:30.865Z</time>
      </trkpt>
      <trkpt lat="46.89804" lon="8.55678">
        <ele>1037</ele>
        <time>2021-08-10T13:45:31.865Z</time>
      </trkpt>
      <trkpt lat="46.89803" lon="8.55678">
        <ele>1037</ele>
        <time>2021-08-10T13:45:32.865Z</time>
      </trkpt>
      <trkpt lat="46.89803" lon="8.55677">
        <ele>1037</ele>
        <time>2021-08-10T13:45:33.865Z</time>
      </trkpt>
      <trkpt lat="46.89803" lon="8.55677">
        <ele>1037</ele>
        <time>2021-08-10T13:45:34.866Z</time>
      </trkpt>
      <trkpt lat="46.89802" lon="8.55677">
        <ele>1037</ele>
        <time>2021-08-10T13:45:35.865Z</time>
      </trkpt>
      <trkpt lat="46.89802" lon="8.55677">
        <ele>1038</ele>
        <time>2021-08-10T13:45:36.866Z</time>
      </trkpt>
      <trkpt lat="46.89801" lon="8.55677">
        <ele>1038</ele>
        <time>2021-08-10T13:45:37.865Z</time>
      </trkpt>
      <trkpt lat="46.89801" lon="8.55677">
        <ele>1039</ele>
        <time>2021-08-10T13:45:38.866Z</time>
      </trkpt>
      <trkpt lat="46.89801" lon="8.55677">
        <ele>1040</ele>
        <time>2021-08-10T13:45:39.866Z</time>
      </trkpt>
      <trkpt lat="46.898" lon="8.55677">
        <ele>1040</ele>
        <time>2021-08-10T13:45:40.866Z</time>
      </trkpt>
      <trkpt lat="46.89799" lon="8.55677">
        <ele>1041</ele>
        <time>2021-08-10T13:45:41.865Z</time>
      </trkpt>
      <trkpt lat="46.89799" lon="8.55677">
        <ele>1041</ele>
        <time>2021-08-10T13:45:42.865Z</time>
      </trkpt>
      <trkpt lat="46.89798" lon="8.55676">
        <ele>1042</ele>
        <time>2021-08-10T13:45:43.865Z</time>
      </trkpt>
      <trkpt lat="46.89798" lon="8.55676">
        <ele>1042</ele>
        <time>2021-08-10T13:45:44.866Z</time>
      </trkpt>
      <trkpt lat="46.89793" lon="8.55677">
        <ele>1045</ele>
        <time>2021-08-10T13:45:45.866Z</time>
      </trkpt>
      <trkpt lat="46.89792" lon="8.55677">
        <ele>1045</ele>
        <time>2021-08-10T13:45:46.867Z</time>
      </trkpt>
      <trkpt lat="46.89791" lon="8.55677">
        <ele>1046</ele>
        <time>2021-08-10T13:45:47.867Z</time>
      </trkpt>
      <trkpt lat="46.89791" lon="8.55675">
        <ele>1047</ele>
        <time>2021-08-10T13:45:48.866Z</time>
      </trkpt>
      <trkpt lat="46.89791" lon="8.55674">
        <ele>1047</ele>
        <time>2021-08-10T13:45:49.866Z</time>
      </trkpt>
      <trkpt lat="46.8979" lon="8.55673">
        <ele>1048</ele>
        <time>2021-08-10T13:45:50.866Z</time>
      </trkpt>
      <trkpt lat="46.8979" lon="8.55672">
        <ele>1048</ele>
        <time>2021-08-10T13:45:53.002Z</time>
      </trkpt>
      <trkpt lat="46.8979" lon="8.55672">
        <ele>1049</ele>
        <time>2021-08-10T13:45:54.003Z</time>
      </trkpt>
      <trkpt lat="46.8979" lon="8.55671">
        <ele>1049</ele>
        <time>2021-08-10T13:45:55.002Z</time>
      </trkpt>
      <trkpt lat="46.8979" lon="8.5567">
        <ele>1050</ele>
        <time>2021-08-10T13:45:56.003Z</time>
      </trkpt>
      <trkpt lat="46.89789" lon="8.55669">
        <ele>1050</ele>
        <time>2021-08-10T13:45:57.002Z</time>
      </trkpt>
      <trkpt lat="46.89788" lon="8.55668">
        <ele>1051</ele>
        <time>2021-08-10T13:45:58.002Z</time>
      </trkpt>
      <trkpt lat="46.89788" lon="8.55668">
        <ele>1052</ele>
        <time>2021-08-10T13:45:59.002Z</time>
      </trkpt>
      <trkpt lat="46.89787" lon="8.55667">
        <ele>1052</ele>
        <time>2021-08-10T13:46:00.002Z</time>
      </trkpt>
      <trkpt lat="46.89787" lon="8.55667">
        <ele>1053</ele>
        <time>2021-08-10T13:46:01.003Z</time>
      </trkpt>
      <trkpt lat="46.89786" lon="8.55668">
        <ele>1053</ele>
        <time>2021-08-10T13:46:02.003Z</time>
      </trkpt>
      <trkpt lat="46.89784" lon="8.55669">
        <ele>1053</ele>
        <time>2021-08-10T13:46:03.002Z</time>
      </trkpt>
      <trkpt lat="46.89785" lon="8.55668">
        <ele>1053</ele>
        <time>2021-08-10T13:46:04.002Z</time>
      </trkpt>
      <trkpt lat="46.89785" lon="8.55666">
        <ele>1053</ele>
        <time>2021-08-10T13:46:05.002Z</time>
      </trkpt>
      <trkpt lat="46.89785" lon="8.55666">
        <ele>1053</ele>
        <time>2021-08-10T13:46:06.003Z</time>
      </trkpt>
      <trkpt lat="46.89784" lon="8.55666">
        <ele>1053</ele>
        <time>2021-08-10T13:46:07.003Z</time>
      </trkpt>
      <trkpt lat="46.89782" lon="8.55666">
        <ele>1052</ele>
        <time>2021-08-10T13:46:08.002Z</time>
      </trkpt>
      <trkpt lat="46.89781" lon="8.55667">
        <ele>1052</ele>
        <time>2021-08-10T13:46:09.003Z</time>
      </trkpt>
      <trkpt lat="46.8978" lon="8.55666">
        <ele>1052</ele>
        <time>2021-08-10T13:46:10.002Z</time>
      </trkpt>
      <trkpt lat="46.89779" lon="8.55666">
        <ele>1053</ele>
        <time>2021-08-10T13:46:11.003Z</time>
      </trkpt>
      <trkpt lat="46.89779" lon="8.55665">
        <ele>1053</ele>
        <time>2021-08-10T13:46:12.003Z</time>
      </trkpt>
      <trkpt lat="46.89779" lon="8.55665">
        <ele>1053</ele>
        <time>2021-08-10T13:46:13.003Z</time>
      </trkpt>
      <trkpt lat="46.89779" lon="8.55664">
        <ele>1053</ele>
        <time>2021-08-10T13:46:14.003Z</time>
      </trkpt>
      <trkpt lat="46.89779" lon="8.55664">
        <ele>1054</ele>
        <time>2021-08-10T13:46:15.002Z</time>
      </trkpt>
      <trkpt lat="46.89778" lon="8.55665">
        <ele>1054</ele>
        <time>2021-08-10T13:46:16.003Z</time>
      </trkpt>
      <trkpt lat="46.89777" lon="8.55666">
        <ele>1054</ele>
        <time>2021-08-10T13:46:17.003Z</time>
      </trkpt>
      <trkpt lat="46.89777" lon="8.55666">
        <ele>1054</ele>
        <time>2021-08-10T13:46:18.003Z</time>
      </trkpt>
      <trkpt lat="46.89777" lon="8.55667">
        <ele>1054</ele>
        <time>2021-08-10T13:46:19.002Z</time>
      </trkpt>
      <trkpt lat="46.89776" lon="8.55668">
        <ele>1054</ele>
        <time>2021-08-10T13:46:20.003Z</time>
      </trkpt>
      <trkpt lat="46.89775" lon="8.55668">
        <ele>1054</ele>
        <time>2021-08-10T13:46:21.003Z</time>
      </trkpt>
      <trkpt lat="46.89775" lon="8.55668">
        <ele>1054</ele>
        <time>2021-08-10T13:46:22.003Z</time>
      </trkpt>
      <trkpt lat="46.89774" lon="8.55668">
        <ele>1054</ele>
        <time>2021-08-10T13:46:23.003Z</time>
      </trkpt>
      <trkpt lat="46.89773" lon="8.55668">
        <ele>1054</ele>
        <time>2021-08-10T13:46:24.003Z</time>
      </trkpt>
      <trkpt lat="46.89772" lon="8.55668">
        <ele>1054</ele>
        <time>2021-08-10T13:46:25.003Z</time>
      </trkpt>
      <trkpt lat="46.89771" lon="8.55668">
        <ele>1055</ele>
        <time>2021-08-10T13:46:26.003Z</time>
      </trkpt>
      <trkpt lat="46.8977" lon="8.55668">
        <ele>1055</ele>
        <time>2021-08-10T13:46:27.002Z</time>
      </trkpt>
      <trkpt lat="46.89769" lon="8.55668">
        <ele>1055</ele>
        <time>2021-08-10T13:46:28.003Z</time>
      </trkpt>
      <trkpt lat="46.89769" lon="8.55668">
        <ele>1054</ele>
        <time>2021-08-10T13:46:29.003Z</time>
      </trkpt>
      <trkpt lat="46.89767" lon="8.55669">
        <ele>1053</ele>
        <time>2021-08-10T13:46:30.002Z</time>
      </trkpt>
      <trkpt lat="46.89765" lon="8.5567">
        <ele>1052</ele>
        <time>2021-08-10T13:46:31.003Z</time>
      </trkpt>
      <trkpt lat="46.89764" lon="8.55671">
        <ele>1052</ele>
        <time>2021-08-10T13:46:32.002Z</time>
      </trkpt>
      <trkpt lat="46.89762" lon="8.55672">
        <ele>1051</ele>
        <time>2021-08-10T13:46:33.003Z</time>
      </trkpt>
      <trkpt lat="46.8976" lon="8.55673">
        <ele>1051</ele>
        <time>2021-08-10T13:46:34.002Z</time>
      </trkpt>
      <trkpt lat="46.89759" lon="8.55674">
        <ele>1050</ele>
        <time>2021-08-10T13:46:35.003Z</time>
      </trkpt>
      <trkpt lat="46.89758" lon="8.55675">
        <ele>1050</ele>
        <time>2021-08-10T13:46:36.003Z</time>
      </trkpt>
      <trkpt lat="46.89756" lon="8.55676">
        <ele>1049</ele>
        <time>2021-08-10T13:46:37.003Z</time>
      </trkpt>
      <trkpt lat="46.89755" lon="8.55677">
        <ele>1049</ele>
        <time>2021-08-10T13:46:38.003Z</time>
      </trkpt>
      <trkpt lat="46.89754" lon="8.55677">
        <ele>1048</ele>
        <time>2021-08-10T13:46:39.003Z</time>
      </trkpt>
      <trkpt lat="46.89754" lon="8.55678">
        <ele>1048</ele>
        <time>2021-08-10T13:46:40.003Z</time>
      </trkpt>
      <trkpt lat="46.89753" lon="8.55678">
        <ele>1048</ele>
        <time>2021-08-10T13:46:42.073Z</time>
      </trkpt>
      <trkpt lat="46.89752" lon="8.55678">
        <ele>1048</ele>
        <time>2021-08-10T13:46:50.838Z</time>
      </trkpt>
      <trkpt lat="46.89751" lon="8.55678">
        <ele>1048</ele>
        <time>2021-08-10T13:46:51.838Z</time>
      </trkpt>
      <trkpt lat="46.8975" lon="8.55677">
        <ele>1048</ele>
        <time>2021-08-10T13:46:52.837Z</time>
      </trkpt>
      <trkpt lat="46.89749" lon="8.55677">
        <ele>1048</ele>
        <time>2021-08-10T13:46:59.880Z</time>
      </trkpt>
      <trkpt lat="46.89749" lon="8.55677">
        <ele>1048</ele>
        <time>2021-08-10T13:47:00.879Z</time>
      </trkpt>
      <trkpt lat="46.89748" lon="8.55677">
        <ele>1048</ele>
        <time>2021-08-10T13:47:01.880Z</time>
      </trkpt>
      <trkpt lat="46.89746" lon="8.55677">
        <ele>1048</ele>
        <time>2021-08-10T13:47:02.880Z</time>
      </trkpt>
      <trkpt lat="46.89745" lon="8.55678">
        <ele>1048</ele>
        <time>2021-08-10T13:47:03.879Z</time>
      </trkpt>
      <trkpt lat="46.89744" lon="8.55679">
        <ele>1048</ele>
        <time>2021-08-10T13:47:04.880Z</time>
      </trkpt>
      <trkpt lat="46.89744" lon="8.55679">
        <ele>1048</ele>
        <time>2021-08-10T13:47:05.880Z</time>
      </trkpt>
      <trkpt lat="46.89743" lon="8.55679">
        <ele>1049</ele>
        <time>2021-08-10T13:47:06.880Z</time>
      </trkpt>
      <trkpt lat="46.89743" lon="8.5568">
        <ele>1049</ele>
        <time>2021-08-10T13:47:07.879Z</time>
      </trkpt>
      <trkpt lat="46.89742" lon="8.5568">
        <ele>1049</ele>
        <time>2021-08-10T13:47:08.879Z</time>
      </trkpt>
      <trkpt lat="46.8974" lon="8.5568">
        <ele>1050</ele>
        <time>2021-08-10T13:47:09.880Z</time>
      </trkpt>
      <trkpt lat="46.89739" lon="8.5568">
        <ele>1050</ele>
        <time>2021-08-10T13:47:10.880Z</time>
      </trkpt>
      <trkpt lat="46.89738" lon="8.55679">
        <ele>1051</ele>
        <time>2021-08-10T13:47:11.880Z</time>
      </trkpt>
      <trkpt lat="46.89737" lon="8.5568">
        <ele>1051</ele>
        <time>2021-08-10T13:47:12.880Z</time>
      </trkpt>
      <trkpt lat="46.89735" lon="8.5568">
        <ele>1052</ele>
        <time>2021-08-10T13:47:13.880Z</time>
      </trkpt>
      <trkpt lat="46.89734" lon="8.5568">
        <ele>1052</ele>
        <time>2021-08-10T13:47:14.880Z</time>
      </trkpt>
      <trkpt lat="46.89733" lon="8.5568">
        <ele>1053</ele>
        <time>2021-08-10T13:47:15.880Z</time>
      </trkpt>
      <trkpt lat="46.89732" lon="8.5568">
        <ele>1054</ele>
        <time>2021-08-10T13:47:16.879Z</time>
      </trkpt>
      <trkpt lat="46.8973" lon="8.55679">
        <ele>1054</ele>
        <time>2021-08-10T13:47:17.880Z</time>
      </trkpt>
      <trkpt lat="46.89728" lon="8.5568">
        <ele>1054</ele>
        <time>2021-08-10T13:47:18.880Z</time>
      </trkpt>
      <trkpt lat="46.89727" lon="8.5568">
        <ele>1055</ele>
        <time>2021-08-10T13:47:19.880Z</time>
      </trkpt>
      <trkpt lat="46.89725" lon="8.55679">
        <ele>1055</ele>
        <time>2021-08-10T13:47:20.879Z</time>
      </trkpt>
      <trkpt lat="46.89725" lon="8.55679">
        <ele>1056</ele>
        <time>2021-08-10T13:47:22.968Z</time>
      </trkpt>
      <trkpt lat="46.89724" lon="8.55679">
        <ele>1056</ele>
        <time>2021-08-10T13:47:23.969Z</time>
      </trkpt>
      <trkpt lat="46.89723" lon="8.55678">
        <ele>1056</ele>
        <time>2021-08-10T13:47:24.968Z</time>
      </trkpt>
      <trkpt lat="46.89722" lon="8.55678">
        <ele>1057</ele>
        <time>2021-08-10T13:47:25.969Z</time>
      </trkpt>
      <trkpt lat="46.89721" lon="8.55679">
        <ele>1057</ele>
        <time>2021-08-10T13:47:26.969Z</time>
      </trkpt>
      <trkpt lat="46.8972" lon="8.55679">
        <ele>1057</ele>
        <time>2021-08-10T13:47:27.968Z</time>
      </trkpt>
      <trkpt lat="46.89719" lon="8.55679">
        <ele>1058</ele>
        <time>2021-08-10T13:47:28.968Z</time>
      </trkpt>
      <trkpt lat="46.89719" lon="8.5568">
        <ele>1058</ele>
        <time>2021-08-10T13:47:29.969Z</time>
      </trkpt>
      <trkpt lat="46.89718" lon="8.5568">
        <ele>1058</ele>
        <time>2021-08-10T13:47:30.969Z</time>
      </trkpt>
      <trkpt lat="46.89717" lon="8.55681">
        <ele>1059</ele>
        <time>2021-08-10T13:47:31.969Z</time>
      </trkpt>
      <trkpt lat="46.89717" lon="8.55682">
        <ele>1059</ele>
        <time>2021-08-10T13:47:32.969Z</time>
      </trkpt>
      <trkpt lat="46.89716" lon="8.55683">
        <ele>1059</ele>
        <time>2021-08-10T13:47:33.969Z</time>
      </trkpt>
      <trkpt lat="46.89715" lon="8.55683">
        <ele>1058</ele>
        <time>2021-08-10T13:47:34.968Z</time>
      </trkpt>
      <trkpt lat="46.89715" lon="8.55684">
        <ele>1058</ele>
        <time>2021-08-10T13:47:35.969Z</time>
      </trkpt>
      <trkpt lat="46.89713" lon="8.55684">
        <ele>1057</ele>
        <time>2021-08-10T13:47:36.969Z</time>
      </trkpt>
      <trkpt lat="46.89712" lon="8.55685">
        <ele>1057</ele>
        <time>2021-08-10T13:47:37.969Z</time>
      </trkpt>
      <trkpt lat="46.8971" lon="8.55686">
        <ele>1057</ele>
        <time>2021-08-10T13:47:38.969Z</time>
      </trkpt>
      <trkpt lat="46.8971" lon="8.55687">
        <ele>1057</ele>
        <time>2021-08-10T13:47:39.969Z</time>
      </trkpt>
      <trkpt lat="46.89709" lon="8.55688">
        <ele>1056</ele>
        <time>2021-08-10T13:47:40.969Z</time>
      </trkpt>
      <trkpt lat="46.89708" lon="8.55688">
        <ele>1056</ele>
        <time>2021-08-10T13:47:41.969Z</time>
      </trkpt>
      <trkpt lat="46.89707" lon="8.55688">
        <ele>1056</ele>
        <time>2021-08-10T13:47:42.968Z</time>
      </trkpt>
      <trkpt lat="46.89707" lon="8.55688">
        <ele>1056</ele>
        <time>2021-08-10T13:47:43.969Z</time>
      </trkpt>
      <trkpt lat="46.89707" lon="8.55688">
        <ele>1056</ele>
        <time>2021-08-10T13:47:44.969Z</time>
      </trkpt>
      <trkpt lat="46.89706" lon="8.55689">
        <ele>1056</ele>
        <time>2021-08-10T13:47:45.968Z</time>
      </trkpt>
      <trkpt lat="46.89706" lon="8.55689">
        <ele>1057</ele>
        <time>2021-08-10T13:47:46.969Z</time>
      </trkpt>
      <trkpt lat="46.89705" lon="8.55689">
        <ele>1057</ele>
        <time>2021-08-10T13:47:47.968Z</time>
      </trkpt>
      <trkpt lat="46.89704" lon="8.55689">
        <ele>1057</ele>
        <time>2021-08-10T13:47:48.969Z</time>
      </trkpt>
      <trkpt lat="46.89703" lon="8.5569">
        <ele>1058</ele>
        <time>2021-08-10T13:47:49.969Z</time>
      </trkpt>
      <trkpt lat="46.89702" lon="8.5569">
        <ele>1058</ele>
        <time>2021-08-10T13:47:50.968Z</time>
      </trkpt>
      <trkpt lat="46.89701" lon="8.5569">
        <ele>1058</ele>
        <time>2021-08-10T13:47:51.969Z</time>
      </trkpt>
      <trkpt lat="46.897" lon="8.5569">
        <ele>1058</ele>
        <time>2021-08-10T13:47:52.969Z</time>
      </trkpt>
      <trkpt lat="46.89699" lon="8.55691">
        <ele>1058</ele>
        <time>2021-08-10T13:47:53.969Z</time>
      </trkpt>
      <trkpt lat="46.89698" lon="8.55691">
        <ele>1059</ele>
        <time>2021-08-10T13:47:54.969Z</time>
      </trkpt>
      <trkpt lat="46.89697" lon="8.55691">
        <ele>1059</ele>
        <time>2021-08-10T13:47:55.969Z</time>
      </trkpt>
      <trkpt lat="46.89696" lon="8.55692">
        <ele>1058</ele>
        <time>2021-08-10T13:47:56.969Z</time>
      </trkpt>
      <trkpt lat="46.89695" lon="8.55692">
        <ele>1058</ele>
        <time>2021-08-10T13:47:57.969Z</time>
      </trkpt>
      <trkpt lat="46.89695" lon="8.55692">
        <ele>1058</ele>
        <time>2021-08-10T13:47:58.969Z</time>
      </trkpt>
      <trkpt lat="46.89694" lon="8.55693">
        <ele>1058</ele>
        <time>2021-08-10T13:47:59.969Z</time>
      </trkpt>
      <trkpt lat="46.89694" lon="8.55692">
        <ele>1058</ele>
        <time>2021-08-10T13:48:00.968Z</time>
      </trkpt>
      <trkpt lat="46.89693" lon="8.55692">
        <ele>1058</ele>
        <time>2021-08-10T13:48:01.968Z</time>
      </trkpt>
      <trkpt lat="46.89692" lon="8.55692">
        <ele>1058</ele>
        <time>2021-08-10T13:48:02.968Z</time>
      </trkpt>
      <trkpt lat="46.89691" lon="8.55692">
        <ele>1059</ele>
        <time>2021-08-10T13:48:03.969Z</time>
      </trkpt>
      <trkpt lat="46.89691" lon="8.55692">
        <ele>1060</ele>
        <time>2021-08-10T13:48:04.969Z</time>
      </trkpt>
      <trkpt lat="46.8969" lon="8.55691">
        <ele>1060</ele>
        <time>2021-08-10T13:48:05.969Z</time>
      </trkpt>
      <trkpt lat="46.89689" lon="8.55691">
        <ele>1061</ele>
        <time>2021-08-10T13:48:06.969Z</time>
      </trkpt>
      <trkpt lat="46.89689" lon="8.5569">
        <ele>1061</ele>
        <time>2021-08-10T13:48:07.968Z</time>
      </trkpt>
      <trkpt lat="46.89688" lon="8.5569">
        <ele>1061</ele>
        <time>2021-08-10T13:48:08.969Z</time>
      </trkpt>
      <trkpt lat="46.89687" lon="8.5569">
        <ele>1062</ele>
        <time>2021-08-10T13:48:09.969Z</time>
      </trkpt>
      <trkpt lat="46.89686" lon="8.55691">
        <ele>1062</ele>
        <time>2021-08-10T13:48:10.969Z</time>
      </trkpt>
      <trkpt lat="46.89685" lon="8.55692">
        <ele>1062</ele>
        <time>2021-08-10T13:48:11.969Z</time>
      </trkpt>
      <trkpt lat="46.89684" lon="8.55693">
        <ele>1062</ele>
        <time>2021-08-10T13:48:12.968Z</time>
      </trkpt>
      <trkpt lat="46.89683" lon="8.55693">
        <ele>1062</ele>
        <time>2021-08-10T13:48:13.968Z</time>
      </trkpt>
      <trkpt lat="46.89682" lon="8.55692">
        <ele>1062</ele>
        <time>2021-08-10T13:48:14.969Z</time>
      </trkpt>
      <trkpt lat="46.89681" lon="8.55693">
        <ele>1062</ele>
        <time>2021-08-10T13:48:15.968Z</time>
      </trkpt>
      <trkpt lat="46.8968" lon="8.55693">
        <ele>1062</ele>
        <time>2021-08-10T13:48:16.969Z</time>
      </trkpt>
      <trkpt lat="46.89678" lon="8.55694">
        <ele>1062</ele>
        <time>2021-08-10T13:48:17.969Z</time>
      </trkpt>
      <trkpt lat="46.89677" lon="8.55694">
        <ele>1063</ele>
        <time>2021-08-10T13:48:18.969Z</time>
      </trkpt>
      <trkpt lat="46.89676" lon="8.55694">
        <ele>1063</ele>
        <time>2021-08-10T13:48:19.969Z</time>
      </trkpt>
      <trkpt lat="46.89674" lon="8.55694">
        <ele>1064</ele>
        <time>2021-08-10T13:48:20.969Z</time>
      </trkpt>
      <trkpt lat="46.89673" lon="8.55694">
        <ele>1064</ele>
        <time>2021-08-10T13:48:21.968Z</time>
      </trkpt>
      <trkpt lat="46.89672" lon="8.55695">
        <ele>1065</ele>
        <time>2021-08-10T13:48:22.969Z</time>
      </trkpt>
      <trkpt lat="46.89671" lon="8.55695">
        <ele>1065</ele>
        <time>2021-08-10T13:48:23.969Z</time>
      </trkpt>
      <trkpt lat="46.8967" lon="8.55695">
        <ele>1065</ele>
        <time>2021-08-10T13:48:24.968Z</time>
      </trkpt>
      <trkpt lat="46.89669" lon="8.55695">
        <ele>1065</ele>
        <time>2021-08-10T13:48:25.969Z</time>
      </trkpt>
      <trkpt lat="46.89668" lon="8.55696">
        <ele>1065</ele>
        <time>2021-08-10T13:48:26.969Z</time>
      </trkpt>
      <trkpt lat="46.89666" lon="8.55696">
        <ele>1065</ele>
        <time>2021-08-10T13:48:27.969Z</time>
      </trkpt>
      <trkpt lat="46.89666" lon="8.55697">
        <ele>1065</ele>
        <time>2021-08-10T13:48:28.969Z</time>
      </trkpt>
      <trkpt lat="46.89665" lon="8.55697">
        <ele>1064</ele>
        <time>2021-08-10T13:48:29.969Z</time>
      </trkpt>
      <trkpt lat="46.89664" lon="8.55697">
        <ele>1064</ele>
        <time>2021-08-10T13:48:30.968Z</time>
      </trkpt>
      <trkpt lat="46.89662" lon="8.55698">
        <ele>1064</ele>
        <time>2021-08-10T13:48:31.969Z</time>
      </trkpt>
      <trkpt lat="46.89662" lon="8.55699">
        <ele>1064</ele>
        <time>2021-08-10T13:48:32.969Z</time>
      </trkpt>
      <trkpt lat="46.89661" lon="8.55699">
        <ele>1064</ele>
        <time>2021-08-10T13:48:33.969Z</time>
      </trkpt>
      <trkpt lat="46.89661" lon="8.557">
        <ele>1063</ele>
        <time>2021-08-10T13:48:34.969Z</time>
      </trkpt>
      <trkpt lat="46.8966" lon="8.557">
        <ele>1063</ele>
        <time>2021-08-10T13:48:35.969Z</time>
      </trkpt>
      <trkpt lat="46.89659" lon="8.55701">
        <ele>1063</ele>
        <time>2021-08-10T13:48:36.968Z</time>
      </trkpt>
      <trkpt lat="46.89659" lon="8.55701">
        <ele>1063</ele>
        <time>2021-08-10T13:48:37.969Z</time>
      </trkpt>
      <trkpt lat="46.89658" lon="8.55701">
        <ele>1063</ele>
        <time>2021-08-10T13:48:38.969Z</time>
      </trkpt>
      <trkpt lat="46.89657" lon="8.55701">
        <ele>1063</ele>
        <time>2021-08-10T13:48:39.969Z</time>
      </trkpt>
      <trkpt lat="46.89656" lon="8.55701">
        <ele>1063</ele>
        <time>2021-08-10T13:48:40.968Z</time>
      </trkpt>
      <trkpt lat="46.89655" lon="8.55701">
        <ele>1063</ele>
        <time>2021-08-10T13:48:41.969Z</time>
      </trkpt>
      <trkpt lat="46.89654" lon="8.55702">
        <ele>1063</ele>
        <time>2021-08-10T13:48:42.969Z</time>
      </trkpt>
      <trkpt lat="46.89654" lon="8.55702">
        <ele>1063</ele>
        <time>2021-08-10T13:48:43.968Z</time>
      </trkpt>
      <trkpt lat="46.89654" lon="8.55702">
        <ele>1063</ele>
        <time>2021-08-10T13:48:44.968Z</time>
      </trkpt>
      <trkpt lat="46.89653" lon="8.55703">
        <ele>1063</ele>
        <time>2021-08-10T13:48:45.969Z</time>
      </trkpt>
      <trkpt lat="46.89653" lon="8.55703">
        <ele>1063</ele>
        <time>2021-08-10T13:48:46.969Z</time>
      </trkpt>
      <trkpt lat="46.89653" lon="8.55703">
        <ele>1063</ele>
        <time>2021-08-10T13:48:47.968Z</time>
      </trkpt>
      <trkpt lat="46.89651" lon="8.55703">
        <ele>1063</ele>
        <time>2021-08-10T13:48:48.969Z</time>
      </trkpt>
      <trkpt lat="46.8965" lon="8.55703">
        <ele>1063</ele>
        <time>2021-08-10T13:48:49.969Z</time>
      </trkpt>
      <trkpt lat="46.89648" lon="8.55702">
        <ele>1063</ele>
        <time>2021-08-10T13:48:50.968Z</time>
      </trkpt>
      <trkpt lat="46.89647" lon="8.55702">
        <ele>1063</ele>
        <time>2021-08-10T13:48:51.969Z</time>
      </trkpt>
      <trkpt lat="46.89647" lon="8.55701">
        <ele>1063</ele>
        <time>2021-08-10T13:48:52.969Z</time>
      </trkpt>
      <trkpt lat="46.89647" lon="8.557">
        <ele>1063</ele>
        <time>2021-08-10T13:48:53.969Z</time>
      </trkpt>
      <trkpt lat="46.89646" lon="8.557">
        <ele>1063</ele>
        <time>2021-08-10T13:48:58.004Z</time>
      </trkpt>
      <trkpt lat="46.89646" lon="8.557">
        <ele>1063</ele>
        <time>2021-08-10T13:48:59.004Z</time>
      </trkpt>
      <trkpt lat="46.89645" lon="8.55699">
        <ele>1064</ele>
        <time>2021-08-10T13:49:00.004Z</time>
      </trkpt>
      <trkpt lat="46.89645" lon="8.55699">
        <ele>1065</ele>
        <time>2021-08-10T13:49:01.004Z</time>
      </trkpt>
      <trkpt lat="46.89644" lon="8.55699">
        <ele>1065</ele>
        <time>2021-08-10T13:49:02.004Z</time>
      </trkpt>
      <trkpt lat="46.89643" lon="8.55699">
        <ele>1065</ele>
        <time>2021-08-10T13:49:03.004Z</time>
      </trkpt>
      <trkpt lat="46.89642" lon="8.557">
        <ele>1065</ele>
        <time>2021-08-10T13:49:04.004Z</time>
      </trkpt>
      <trkpt lat="46.89641" lon="8.557">
        <ele>1065</ele>
        <time>2021-08-10T13:49:05.004Z</time>
      </trkpt>
      <trkpt lat="46.8964" lon="8.557">
        <ele>1065</ele>
        <time>2021-08-10T13:49:06.003Z</time>
      </trkpt>
      <trkpt lat="46.89639" lon="8.557">
        <ele>1065</ele>
        <time>2021-08-10T13:49:07.003Z</time>
      </trkpt>
      <trkpt lat="46.89638" lon="8.557">
        <ele>1066</ele>
        <time>2021-08-10T13:49:08.004Z</time>
      </trkpt>
      <trkpt lat="46.89637" lon="8.557">
        <ele>1066</ele>
        <time>2021-08-10T13:49:09.004Z</time>
      </trkpt>
      <trkpt lat="46.89636" lon="8.55699">
        <ele>1066</ele>
        <time>2021-08-10T13:49:10.003Z</time>
      </trkpt>
      <trkpt lat="46.89635" lon="8.557">
        <ele>1066</ele>
        <time>2021-08-10T13:49:11.004Z</time>
      </trkpt>
      <trkpt lat="46.89634" lon="8.55701">
        <ele>1067</ele>
        <time>2021-08-10T13:49:12.003Z</time>
      </trkpt>
      <trkpt lat="46.89634" lon="8.55701">
        <ele>1067</ele>
        <time>2021-08-10T13:49:13.003Z</time>
      </trkpt>
      <trkpt lat="46.89633" lon="8.55702">
        <ele>1067</ele>
        <time>2021-08-10T13:49:14.003Z</time>
      </trkpt>
      <trkpt lat="46.89633" lon="8.55702">
        <ele>1067</ele>
        <time>2021-08-10T13:49:15.003Z</time>
      </trkpt>
      <trkpt lat="46.89632" lon="8.55703">
        <ele>1068</ele>
        <time>2021-08-10T13:49:16.003Z</time>
      </trkpt>
      <trkpt lat="46.89632" lon="8.55703">
        <ele>1068</ele>
        <time>2021-08-10T13:49:17.003Z</time>
      </trkpt>
      <trkpt lat="46.89631" lon="8.55703">
        <ele>1068</ele>
        <time>2021-08-10T13:49:18.003Z</time>
      </trkpt>
      <trkpt lat="46.89631" lon="8.55703">
        <ele>1069</ele>
        <time>2021-08-10T13:49:19.004Z</time>
      </trkpt>
      <trkpt lat="46.8963" lon="8.55703">
        <ele>1069</ele>
        <time>2021-08-10T13:49:20.003Z</time>
      </trkpt>
      <trkpt lat="46.8963" lon="8.55704">
        <ele>1069</ele>
        <time>2021-08-10T13:49:21.003Z</time>
      </trkpt>
      <trkpt lat="46.89629" lon="8.55704">
        <ele>1069</ele>
        <time>2021-08-10T13:49:22.003Z</time>
      </trkpt>
      <trkpt lat="46.89628" lon="8.55704">
        <ele>1069</ele>
        <time>2021-08-10T13:49:23.003Z</time>
      </trkpt>
      <trkpt lat="46.89627" lon="8.55705">
        <ele>1069</ele>
        <time>2021-08-10T13:49:24.003Z</time>
      </trkpt>
      <trkpt lat="46.89627" lon="8.55706">
        <ele>1069</ele>
        <time>2021-08-10T13:49:25.003Z</time>
      </trkpt>
      <trkpt lat="46.89626" lon="8.55707">
        <ele>1069</ele>
        <time>2021-08-10T13:49:26.003Z</time>
      </trkpt>
      <trkpt lat="46.89626" lon="8.55708">
        <ele>1069</ele>
        <time>2021-08-10T13:49:27.003Z</time>
      </trkpt>
      <trkpt lat="46.89625" lon="8.5571">
        <ele>1069</ele>
        <time>2021-08-10T13:49:28.003Z</time>
      </trkpt>
      <trkpt lat="46.89623" lon="8.55711">
        <ele>1070</ele>
        <time>2021-08-10T13:49:29.003Z</time>
      </trkpt>
      <trkpt lat="46.89623" lon="8.55712">
        <ele>1070</ele>
        <time>2021-08-10T13:49:30.003Z</time>
      </trkpt>
      <trkpt lat="46.89623" lon="8.55713">
        <ele>1070</ele>
        <time>2021-08-10T13:49:31.003Z</time>
      </trkpt>
      <trkpt lat="46.89622" lon="8.55714">
        <ele>1070</ele>
        <time>2021-08-10T13:49:32.003Z</time>
      </trkpt>
      <trkpt lat="46.89622" lon="8.55715">
        <ele>1070</ele>
        <time>2021-08-10T13:49:33.003Z</time>
      </trkpt>
      <trkpt lat="46.89622" lon="8.55716">
        <ele>1069</ele>
        <time>2021-08-10T13:49:34.003Z</time>
      </trkpt>
      <trkpt lat="46.89621" lon="8.55717">
        <ele>1070</ele>
        <time>2021-08-10T13:49:35.003Z</time>
      </trkpt>
      <trkpt lat="46.89621" lon="8.55718">
        <ele>1070</ele>
        <time>2021-08-10T13:49:36.003Z</time>
      </trkpt>
      <trkpt lat="46.8962" lon="8.55718">
        <ele>1070</ele>
        <time>2021-08-10T13:49:37.003Z</time>
      </trkpt>
      <trkpt lat="46.89619" lon="8.55719">
        <ele>1069</ele>
        <time>2021-08-10T13:49:38.003Z</time>
      </trkpt>
      <trkpt lat="46.89618" lon="8.5572">
        <ele>1069</ele>
        <time>2021-08-10T13:49:39.003Z</time>
      </trkpt>
      <trkpt lat="46.89617" lon="8.5572">
        <ele>1069</ele>
        <time>2021-08-10T13:49:40.003Z</time>
      </trkpt>
      <trkpt lat="46.89616" lon="8.5572">
        <ele>1069</ele>
        <time>2021-08-10T13:49:41.004Z</time>
      </trkpt>
      <trkpt lat="46.89614" lon="8.5572">
        <ele>1069</ele>
        <time>2021-08-10T13:49:42.003Z</time>
      </trkpt>
      <trkpt lat="46.89612" lon="8.55721">
        <ele>1069</ele>
        <time>2021-08-10T13:49:43.003Z</time>
      </trkpt>
      <trkpt lat="46.89611" lon="8.55721">
        <ele>1069</ele>
        <time>2021-08-10T13:49:44.003Z</time>
      </trkpt>
      <trkpt lat="46.8961" lon="8.55722">
        <ele>1069</ele>
        <time>2021-08-10T13:49:45.003Z</time>
      </trkpt>
      <trkpt lat="46.89609" lon="8.55722">
        <ele>1068</ele>
        <time>2021-08-10T13:49:46.004Z</time>
      </trkpt>
      <trkpt lat="46.89609" lon="8.55722">
        <ele>1068</ele>
        <time>2021-08-10T13:49:47.003Z</time>
      </trkpt>
      <trkpt lat="46.89607" lon="8.55722">
        <ele>1068</ele>
        <time>2021-08-10T13:49:48.004Z</time>
      </trkpt>
      <trkpt lat="46.89604" lon="8.55722">
        <ele>1068</ele>
        <time>2021-08-10T13:49:49.004Z</time>
      </trkpt>
      <trkpt lat="46.89602" lon="8.55722">
        <ele>1068</ele>
        <time>2021-08-10T13:49:50.004Z</time>
      </trkpt>
      <trkpt lat="46.89602" lon="8.55723">
        <ele>1068</ele>
        <time>2021-08-10T13:49:51.003Z</time>
      </trkpt>
      <trkpt lat="46.89601" lon="8.55723">
        <ele>1068</ele>
        <time>2021-08-10T13:49:52.004Z</time>
      </trkpt>
      <trkpt lat="46.896" lon="8.55723">
        <ele>1068</ele>
        <time>2021-08-10T13:49:53.004Z</time>
      </trkpt>
      <trkpt lat="46.89598" lon="8.55724">
        <ele>1067</ele>
        <time>2021-08-10T13:49:54.004Z</time>
      </trkpt>
      <trkpt lat="46.89597" lon="8.55724">
        <ele>1067</ele>
        <time>2021-08-10T13:49:55.004Z</time>
      </trkpt>
      <trkpt lat="46.89596" lon="8.55724">
        <ele>1067</ele>
        <time>2021-08-10T13:49:56.004Z</time>
      </trkpt>
      <trkpt lat="46.89595" lon="8.55725">
        <ele>1067</ele>
        <time>2021-08-10T13:49:57.004Z</time>
      </trkpt>
      <trkpt lat="46.89595" lon="8.55725">
        <ele>1067</ele>
        <time>2021-08-10T13:49:59.082Z</time>
      </trkpt>
      <trkpt lat="46.89595" lon="8.55726">
        <ele>1067</ele>
        <time>2021-08-10T13:50:00.081Z</time>
      </trkpt>
      <trkpt lat="46.89594" lon="8.55726">
        <ele>1067</ele>
        <time>2021-08-10T13:50:01.082Z</time>
      </trkpt>
      <trkpt lat="46.89593" lon="8.55726">
        <ele>1067</ele>
        <time>2021-08-10T13:50:02.082Z</time>
      </trkpt>
      <trkpt lat="46.89592" lon="8.55727">
        <ele>1067</ele>
        <time>2021-08-10T13:50:03.082Z</time>
      </trkpt>
      <trkpt lat="46.89591" lon="8.55727">
        <ele>1067</ele>
        <time>2021-08-10T13:50:04.082Z</time>
      </trkpt>
      <trkpt lat="46.89589" lon="8.55727">
        <ele>1067</ele>
        <time>2021-08-10T13:50:05.082Z</time>
      </trkpt>
      <trkpt lat="46.89588" lon="8.55726">
        <ele>1067</ele>
        <time>2021-08-10T13:50:06.082Z</time>
      </trkpt>
      <trkpt lat="46.89587" lon="8.55726">
        <ele>1067</ele>
        <time>2021-08-10T13:50:07.082Z</time>
      </trkpt>
      <trkpt lat="46.89586" lon="8.55726">
        <ele>1066</ele>
        <time>2021-08-10T13:50:08.082Z</time>
      </trkpt>
      <trkpt lat="46.89585" lon="8.55726">
        <ele>1066</ele>
        <time>2021-08-10T13:50:09.082Z</time>
      </trkpt>
      <trkpt lat="46.89585" lon="8.55727">
        <ele>1066</ele>
        <time>2021-08-10T13:50:10.082Z</time>
      </trkpt>
      <trkpt lat="46.89584" lon="8.55728">
        <ele>1066</ele>
        <time>2021-08-10T13:50:11.081Z</time>
      </trkpt>
      <trkpt lat="46.89583" lon="8.55729">
        <ele>1066</ele>
        <time>2021-08-10T13:50:12.082Z</time>
      </trkpt>
      <trkpt lat="46.89582" lon="8.55729">
        <ele>1066</ele>
        <time>2021-08-10T13:50:13.082Z</time>
      </trkpt>
      <trkpt lat="46.89581" lon="8.5573">
        <ele>1066</ele>
        <time>2021-08-10T13:50:14.082Z</time>
      </trkpt>
      <trkpt lat="46.89581" lon="8.5573">
        <ele>1067</ele>
        <time>2021-08-10T13:50:15.082Z</time>
      </trkpt>
      <trkpt lat="46.89581" lon="8.5573">
        <ele>1067</ele>
        <time>2021-08-10T13:50:16.082Z</time>
      </trkpt>
      <trkpt lat="46.89575" lon="8.5573">
        <ele>1068</ele>
        <time>2021-08-10T13:50:17.081Z</time>
      </trkpt>
      <trkpt lat="46.89573" lon="8.55731">
        <ele>1068</ele>
        <time>2021-08-10T13:50:18.082Z</time>
      </trkpt>
      <trkpt lat="46.89571" lon="8.55732">
        <ele>1069</ele>
        <time>2021-08-10T13:50:19.081Z</time>
      </trkpt>
      <trkpt lat="46.8957" lon="8.55733">
        <ele>1069</ele>
        <time>2021-08-10T13:50:20.082Z</time>
      </trkpt>
      <trkpt lat="46.89569" lon="8.55733">
        <ele>1069</ele>
        <time>2021-08-10T13:50:21.081Z</time>
      </trkpt>
      <trkpt lat="46.89568" lon="8.55733">
        <ele>1069</ele>
        <time>2021-08-10T13:50:22.082Z</time>
      </trkpt>
      <trkpt lat="46.89567" lon="8.55734">
        <ele>1070</ele>
        <time>2021-08-10T13:50:23.082Z</time>
      </trkpt>
      <trkpt lat="46.89565" lon="8.55734">
        <ele>1070</ele>
        <time>2021-08-10T13:50:24.082Z</time>
      </trkpt>
      <trkpt lat="46.89561" lon="8.55733">
        <ele>1070</ele>
        <time>2021-08-10T13:50:25.081Z</time>
      </trkpt>
      <trkpt lat="46.89559" lon="8.55733">
        <ele>1070</ele>
        <time>2021-08-10T13:50:26.082Z</time>
      </trkpt>
      <trkpt lat="46.89559" lon="8.55733">
        <ele>1070</ele>
        <time>2021-08-10T13:50:27.081Z</time>
      </trkpt>
      <trkpt lat="46.89559" lon="8.55733">
        <ele>1070</ele>
        <time>2021-08-10T13:50:28.082Z</time>
      </trkpt>
      <trkpt lat="46.8956" lon="8.55734">
        <ele>1071</ele>
        <time>2021-08-10T13:50:29.082Z</time>
      </trkpt>
      <trkpt lat="46.8956" lon="8.55735">
        <ele>1071</ele>
        <time>2021-08-10T13:50:30.081Z</time>
      </trkpt>
      <trkpt lat="46.8956" lon="8.55735">
        <ele>1071</ele>
        <time>2021-08-10T13:50:31.082Z</time>
      </trkpt>
      <trkpt lat="46.89559" lon="8.55735">
        <ele>1071</ele>
        <time>2021-08-10T13:50:32.082Z</time>
      </trkpt>
      <trkpt lat="46.89558" lon="8.55736">
        <ele>1071</ele>
        <time>2021-08-10T13:50:33.082Z</time>
      </trkpt>
      <trkpt lat="46.89557" lon="8.55737">
        <ele>1071</ele>
        <time>2021-08-10T13:50:34.081Z</time>
      </trkpt>
      <trkpt lat="46.89557" lon="8.55739">
        <ele>1071</ele>
        <time>2021-08-10T13:50:35.081Z</time>
      </trkpt>
      <trkpt lat="46.89556" lon="8.5574">
        <ele>1071</ele>
        <time>2021-08-10T13:50:36.081Z</time>
      </trkpt>
      <trkpt lat="46.89555" lon="8.55741">
        <ele>1071</ele>
        <time>2021-08-10T13:50:37.082Z</time>
      </trkpt>
      <trkpt lat="46.89553" lon="8.55742">
        <ele>1071</ele>
        <time>2021-08-10T13:50:38.082Z</time>
      </trkpt>
      <trkpt lat="46.89551" lon="8.55744">
        <ele>1071</ele>
        <time>2021-08-10T13:50:39.082Z</time>
      </trkpt>
      <trkpt lat="46.8955" lon="8.55744">
        <ele>1071</ele>
        <time>2021-08-10T13:50:40.082Z</time>
      </trkpt>
      <trkpt lat="46.89549" lon="8.55745">
        <ele>1071</ele>
        <time>2021-08-10T13:50:41.081Z</time>
      </trkpt>
      <trkpt lat="46.89549" lon="8.55746">
        <ele>1071</ele>
        <time>2021-08-10T13:50:42.082Z</time>
      </trkpt>
      <trkpt lat="46.89549" lon="8.55747">
        <ele>1071</ele>
        <time>2021-08-10T13:50:43.081Z</time>
      </trkpt>
      <trkpt lat="46.89548" lon="8.55748">
        <ele>1072</ele>
        <time>2021-08-10T13:50:44.081Z</time>
      </trkpt>
      <trkpt lat="46.89547" lon="8.55748">
        <ele>1072</ele>
        <time>2021-08-10T13:50:45.082Z</time>
      </trkpt>
      <trkpt lat="46.89547" lon="8.55749">
        <ele>1072</ele>
        <time>2021-08-10T13:50:46.081Z</time>
      </trkpt>
      <trkpt lat="46.89546" lon="8.5575">
        <ele>1073</ele>
        <time>2021-08-10T13:50:47.081Z</time>
      </trkpt>
      <trkpt lat="46.89545" lon="8.55751">
        <ele>1073</ele>
        <time>2021-08-10T13:50:48.082Z</time>
      </trkpt>
      <trkpt lat="46.89545" lon="8.55752">
        <ele>1073</ele>
        <time>2021-08-10T13:50:49.081Z</time>
      </trkpt>
      <trkpt lat="46.89544" lon="8.55752">
        <ele>1074</ele>
        <time>2021-08-10T13:50:50.082Z</time>
      </trkpt>
      <trkpt lat="46.89543" lon="8.55752">
        <ele>1075</ele>
        <time>2021-08-10T13:50:51.081Z</time>
      </trkpt>
      <trkpt lat="46.89542" lon="8.55753">
        <ele>1075</ele>
        <time>2021-08-10T13:50:52.081Z</time>
      </trkpt>
      <trkpt lat="46.89542" lon="8.55755">
        <ele>1076</ele>
        <time>2021-08-10T13:50:53.082Z</time>
      </trkpt>
      <trkpt lat="46.89541" lon="8.55755">
        <ele>1077</ele>
        <time>2021-08-10T13:50:54.081Z</time>
      </trkpt>
      <trkpt lat="46.89541" lon="8.55756">
        <ele>1078</ele>
        <time>2021-08-10T13:50:55.082Z</time>
      </trkpt>
      <trkpt lat="46.8954" lon="8.55757">
        <ele>1078</ele>
        <time>2021-08-10T13:50:56.082Z</time>
      </trkpt>
      <trkpt lat="46.89539" lon="8.55757">
        <ele>1078</ele>
        <time>2021-08-10T13:50:57.081Z</time>
      </trkpt>
      <trkpt lat="46.89538" lon="8.55757">
        <ele>1079</ele>
        <time>2021-08-10T13:50:58.082Z</time>
      </trkpt>
      <trkpt lat="46.89536" lon="8.55758">
        <ele>1079</ele>
        <time>2021-08-10T13:50:59.082Z</time>
      </trkpt>
      <trkpt lat="46.89535" lon="8.55759">
        <ele>1080</ele>
        <time>2021-08-10T13:51:00.081Z</time>
      </trkpt>
      <trkpt lat="46.89534" lon="8.5576">
        <ele>1080</ele>
        <time>2021-08-10T13:51:01.082Z</time>
      </trkpt>
      <trkpt lat="46.89532" lon="8.55761">
        <ele>1080</ele>
        <time>2021-08-10T13:51:02.082Z</time>
      </trkpt>
      <trkpt lat="46.89531" lon="8.55761">
        <ele>1080</ele>
        <time>2021-08-10T13:51:03.081Z</time>
      </trkpt>
      <trkpt lat="46.8953" lon="8.55762">
        <ele>1080</ele>
        <time>2021-08-10T13:51:04.081Z</time>
      </trkpt>
      <trkpt lat="46.89529" lon="8.55762">
        <ele>1080</ele>
        <time>2021-08-10T13:51:05.082Z</time>
      </trkpt>
      <trkpt lat="46.89528" lon="8.55762">
        <ele>1080</ele>
        <time>2021-08-10T13:51:06.082Z</time>
      </trkpt>
      <trkpt lat="46.89527" lon="8.55762">
        <ele>1081</ele>
        <time>2021-08-10T13:51:07.082Z</time>
      </trkpt>
      <trkpt lat="46.89526" lon="8.55763">
        <ele>1081</ele>
        <time>2021-08-10T13:51:08.081Z</time>
      </trkpt>
      <trkpt lat="46.89526" lon="8.55764">
        <ele>1081</ele>
        <time>2021-08-10T13:51:09.082Z</time>
      </trkpt>
      <trkpt lat="46.89525" lon="8.55765">
        <ele>1082</ele>
        <time>2021-08-10T13:51:10.081Z</time>
      </trkpt>
      <trkpt lat="46.89523" lon="8.55767">
        <ele>1082</ele>
        <time>2021-08-10T13:51:11.082Z</time>
      </trkpt>
      <trkpt lat="46.89523" lon="8.55767">
        <ele>1083</ele>
        <time>2021-08-10T13:51:12.082Z</time>
      </trkpt>
      <trkpt lat="46.89522" lon="8.55767">
        <ele>1083</ele>
        <time>2021-08-10T13:51:13.082Z</time>
      </trkpt>
      <trkpt lat="46.8952" lon="8.55768">
        <ele>1083</ele>
        <time>2021-08-10T13:51:14.082Z</time>
      </trkpt>
      <trkpt lat="46.89518" lon="8.55769">
        <ele>1083</ele>
        <time>2021-08-10T13:51:15.082Z</time>
      </trkpt>
      <trkpt lat="46.89516" lon="8.5577">
        <ele>1083</ele>
        <time>2021-08-10T13:51:16.081Z</time>
      </trkpt>
      <trkpt lat="46.89515" lon="8.5577">
        <ele>1083</ele>
        <time>2021-08-10T13:51:17.082Z</time>
      </trkpt>
      <trkpt lat="46.89514" lon="8.55771">
        <ele>1083</ele>
        <time>2021-08-10T13:51:18.082Z</time>
      </trkpt>
      <trkpt lat="46.89512" lon="8.55771">
        <ele>1083</ele>
        <time>2021-08-10T13:51:19.082Z</time>
      </trkpt>
      <trkpt lat="46.8951" lon="8.55772">
        <ele>1083</ele>
        <time>2021-08-10T13:51:20.082Z</time>
      </trkpt>
      <trkpt lat="46.89508" lon="8.55773">
        <ele>1083</ele>
        <time>2021-08-10T13:51:21.082Z</time>
      </trkpt>
      <trkpt lat="46.89508" lon="8.55774">
        <ele>1084</ele>
        <time>2021-08-10T13:51:22.082Z</time>
      </trkpt>
      <trkpt lat="46.89508" lon="8.55774">
        <ele>1084</ele>
        <time>2021-08-10T13:51:23.082Z</time>
      </trkpt>
      <trkpt lat="46.89508" lon="8.55774">
        <ele>1084</ele>
        <time>2021-08-10T13:51:24.082Z</time>
      </trkpt>
      <trkpt lat="46.89507" lon="8.55774">
        <ele>1084</ele>
        <time>2021-08-10T13:51:25.082Z</time>
      </trkpt>
      <trkpt lat="46.89507" lon="8.55775">
        <ele>1084</ele>
        <time>2021-08-10T13:51:26.082Z</time>
      </trkpt>
      <trkpt lat="46.89506" lon="8.55775">
        <ele>1084</ele>
        <time>2021-08-10T13:51:27.082Z</time>
      </trkpt>
      <trkpt lat="46.89506" lon="8.55776">
        <ele>1083</ele>
        <time>2021-08-10T13:51:28.082Z</time>
      </trkpt>
      <trkpt lat="46.89505" lon="8.55776">
        <ele>1083</ele>
        <time>2021-08-10T13:51:29.082Z</time>
      </trkpt>
      <trkpt lat="46.89504" lon="8.55777">
        <ele>1083</ele>
        <time>2021-08-10T13:51:30.082Z</time>
      </trkpt>
      <trkpt lat="46.89504" lon="8.55777">
        <ele>1083</ele>
        <time>2021-08-10T13:51:31.082Z</time>
      </trkpt>
      <trkpt lat="46.89503" lon="8.55777">
        <ele>1084</ele>
        <time>2021-08-10T13:51:32.081Z</time>
      </trkpt>
      <trkpt lat="46.89502" lon="8.55776">
        <ele>1084</ele>
        <time>2021-08-10T13:51:33.081Z</time>
      </trkpt>
      <trkpt lat="46.89501" lon="8.55776">
        <ele>1085</ele>
        <time>2021-08-10T13:51:34.082Z</time>
      </trkpt>
      <trkpt lat="46.895" lon="8.55776">
        <ele>1085</ele>
        <time>2021-08-10T13:51:35.082Z</time>
      </trkpt>
      <trkpt lat="46.895" lon="8.55776">
        <ele>1086</ele>
        <time>2021-08-10T13:51:36.082Z</time>
      </trkpt>
      <trkpt lat="46.89499" lon="8.55776">
        <ele>1086</ele>
        <time>2021-08-10T13:51:37.082Z</time>
      </trkpt>
      <trkpt lat="46.89498" lon="8.55775">
        <ele>1086</ele>
        <time>2021-08-10T13:51:38.082Z</time>
      </trkpt>
      <trkpt lat="46.89497" lon="8.55775">
        <ele>1087</ele>
        <time>2021-08-10T13:51:39.082Z</time>
      </trkpt>
      <trkpt lat="46.89496" lon="8.55774">
        <ele>1088</ele>
        <time>2021-08-10T13:51:40.082Z</time>
      </trkpt>
      <trkpt lat="46.89496" lon="8.55774">
        <ele>1088</ele>
        <time>2021-08-10T13:51:41.081Z</time>
      </trkpt>
      <trkpt lat="46.89495" lon="8.55773">
        <ele>1089</ele>
        <time>2021-08-10T13:51:42.081Z</time>
      </trkpt>
      <trkpt lat="46.89494" lon="8.55772">
        <ele>1090</ele>
        <time>2021-08-10T13:51:43.082Z</time>
      </trkpt>
      <trkpt lat="46.89494" lon="8.55771">
        <ele>1090</ele>
        <time>2021-08-10T13:51:44.082Z</time>
      </trkpt>
      <trkpt lat="46.89492" lon="8.5577">
        <ele>1091</ele>
        <time>2021-08-10T13:51:45.082Z</time>
      </trkpt>
      <trkpt lat="46.89491" lon="8.5577">
        <ele>1091</ele>
        <time>2021-08-10T13:51:46.082Z</time>
      </trkpt>
      <trkpt lat="46.8949" lon="8.55769">
        <ele>1092</ele>
        <time>2021-08-10T13:51:47.081Z</time>
      </trkpt>
      <trkpt lat="46.89489" lon="8.55768">
        <ele>1093</ele>
        <time>2021-08-10T13:51:48.082Z</time>
      </trkpt>
      <trkpt lat="46.89488" lon="8.55767">
        <ele>1093</ele>
        <time>2021-08-10T13:51:49.082Z</time>
      </trkpt>
      <trkpt lat="46.89486" lon="8.55767">
        <ele>1094</ele>
        <time>2021-08-10T13:51:50.082Z</time>
      </trkpt>
      <trkpt lat="46.89485" lon="8.55767">
        <ele>1094</ele>
        <time>2021-08-10T13:51:51.082Z</time>
      </trkpt>
      <trkpt lat="46.89484" lon="8.55767">
        <ele>1095</ele>
        <time>2021-08-10T13:51:52.082Z</time>
      </trkpt>
      <trkpt lat="46.89483" lon="8.55767">
        <ele>1095</ele>
        <time>2021-08-10T13:51:53.082Z</time>
      </trkpt>
      <trkpt lat="46.89482" lon="8.55767">
        <ele>1096</ele>
        <time>2021-08-10T13:51:57.247Z</time>
      </trkpt>
      <trkpt lat="46.89481" lon="8.55766">
        <ele>1096</ele>
        <time>2021-08-10T13:51:58.247Z</time>
      </trkpt>
      <trkpt lat="46.8948" lon="8.55766">
        <ele>1096</ele>
        <time>2021-08-10T13:51:59.246Z</time>
      </trkpt>
      <trkpt lat="46.89479" lon="8.55766">
        <ele>1097</ele>
        <time>2021-08-10T13:52:00.247Z</time>
      </trkpt>
      <trkpt lat="46.89478" lon="8.55766">
        <ele>1097</ele>
        <time>2021-08-10T13:52:01.246Z</time>
      </trkpt>
      <trkpt lat="46.89477" lon="8.55766">
        <ele>1097</ele>
        <time>2021-08-10T13:52:02.246Z</time>
      </trkpt>
      <trkpt lat="46.89475" lon="8.55765">
        <ele>1098</ele>
        <time>2021-08-10T13:52:03.246Z</time>
      </trkpt>
      <trkpt lat="46.89474" lon="8.55765">
        <ele>1098</ele>
        <time>2021-08-10T13:52:04.246Z</time>
      </trkpt>
      <trkpt lat="46.89473" lon="8.55765">
        <ele>1098</ele>
        <time>2021-08-10T13:52:05.246Z</time>
      </trkpt>
      <trkpt lat="46.89472" lon="8.55765">
        <ele>1098</ele>
        <time>2021-08-10T13:52:06.247Z</time>
      </trkpt>
      <trkpt lat="46.89471" lon="8.55765">
        <ele>1098</ele>
        <time>2021-08-10T13:52:07.247Z</time>
      </trkpt>
      <trkpt lat="46.8947" lon="8.55765">
        <ele>1098</ele>
        <time>2021-08-10T13:52:08.246Z</time>
      </trkpt>
      <trkpt lat="46.89469" lon="8.55766">
        <ele>1097</ele>
        <time>2021-08-10T13:52:09.246Z</time>
      </trkpt>
      <trkpt lat="46.89468" lon="8.55766">
        <ele>1097</ele>
        <time>2021-08-10T13:52:10.247Z</time>
      </trkpt>
      <trkpt lat="46.89467" lon="8.55767">
        <ele>1097</ele>
        <time>2021-08-10T13:52:11.247Z</time>
      </trkpt>
      <trkpt lat="46.89466" lon="8.55767">
        <ele>1096</ele>
        <time>2021-08-10T13:52:12.247Z</time>
      </trkpt>
      <trkpt lat="46.89465" lon="8.55767">
        <ele>1096</ele>
        <time>2021-08-10T13:52:13.247Z</time>
      </trkpt>
      <trkpt lat="46.89464" lon="8.55768">
        <ele>1096</ele>
        <time>2021-08-10T13:52:14.247Z</time>
      </trkpt>
      <trkpt lat="46.89463" lon="8.55768">
        <ele>1096</ele>
        <time>2021-08-10T13:52:15.246Z</time>
      </trkpt>
      <trkpt lat="46.89461" lon="8.55767">
        <ele>1096</ele>
        <time>2021-08-10T13:52:16.246Z</time>
      </trkpt>
      <trkpt lat="46.8946" lon="8.55768">
        <ele>1096</ele>
        <time>2021-08-10T13:52:17.247Z</time>
      </trkpt>
      <trkpt lat="46.89459" lon="8.55768">
        <ele>1096</ele>
        <time>2021-08-10T13:52:18.247Z</time>
      </trkpt>
      <trkpt lat="46.89458" lon="8.55768">
        <ele>1096</ele>
        <time>2021-08-10T13:52:19.247Z</time>
      </trkpt>
      <trkpt lat="46.89457" lon="8.55768">
        <ele>1096</ele>
        <time>2021-08-10T13:52:20.247Z</time>
      </trkpt>
      <trkpt lat="46.89456" lon="8.55767">
        <ele>1096</ele>
        <time>2021-08-10T13:52:21.246Z</time>
      </trkpt>
      <trkpt lat="46.89455" lon="8.55767">
        <ele>1096</ele>
        <time>2021-08-10T13:52:22.246Z</time>
      </trkpt>
      <trkpt lat="46.89454" lon="8.55766">
        <ele>1096</ele>
        <time>2021-08-10T13:52:23.247Z</time>
      </trkpt>
      <trkpt lat="46.89452" lon="8.55766">
        <ele>1097</ele>
        <time>2021-08-10T13:52:24.247Z</time>
      </trkpt>
      <trkpt lat="46.89451" lon="8.55766">
        <ele>1097</ele>
        <time>2021-08-10T13:52:25.247Z</time>
      </trkpt>
      <trkpt lat="46.89449" lon="8.55766">
        <ele>1097</ele>
        <time>2021-08-10T13:52:26.246Z</time>
      </trkpt>
      <trkpt lat="46.89448" lon="8.55766">
        <ele>1097</ele>
        <time>2021-08-10T13:52:27.247Z</time>
      </trkpt>
      <trkpt lat="46.89448" lon="8.55766">
        <ele>1097</ele>
        <time>2021-08-10T13:52:28.246Z</time>
      </trkpt>
      <trkpt lat="46.89447" lon="8.55766">
        <ele>1097</ele>
        <time>2021-08-10T13:52:29.246Z</time>
      </trkpt>
      <trkpt lat="46.89446" lon="8.55766">
        <ele>1097</ele>
        <time>2021-08-10T13:52:30.246Z</time>
      </trkpt>
      <trkpt lat="46.89445" lon="8.55766">
        <ele>1097</ele>
        <time>2021-08-10T13:52:31.247Z</time>
      </trkpt>
      <trkpt lat="46.89444" lon="8.55766">
        <ele>1097</ele>
        <time>2021-08-10T13:52:32.247Z</time>
      </trkpt>
      <trkpt lat="46.89443" lon="8.55766">
        <ele>1096</ele>
        <time>2021-08-10T13:52:34.348Z</time>
      </trkpt>
      <trkpt lat="46.89442" lon="8.55765">
        <ele>1096</ele>
        <time>2021-08-10T13:52:35.348Z</time>
      </trkpt>
      <trkpt lat="46.8944" lon="8.55763">
        <ele>1097</ele>
        <time>2021-08-10T13:52:36.348Z</time>
      </trkpt>
      <trkpt lat="46.89438" lon="8.55762">
        <ele>1097</ele>
        <time>2021-08-10T13:52:37.347Z</time>
      </trkpt>
      <trkpt lat="46.89437" lon="8.55762">
        <ele>1097</ele>
        <time>2021-08-10T13:52:38.348Z</time>
      </trkpt>
      <trkpt lat="46.89436" lon="8.55761">
        <ele>1097</ele>
        <time>2021-08-10T13:52:39.348Z</time>
      </trkpt>
      <trkpt lat="46.89434" lon="8.55759">
        <ele>1097</ele>
        <time>2021-08-10T13:52:40.347Z</time>
      </trkpt>
      <trkpt lat="46.89433" lon="8.55758">
        <ele>1097</ele>
        <time>2021-08-10T13:52:41.348Z</time>
      </trkpt>
      <trkpt lat="46.89431" lon="8.55758">
        <ele>1096</ele>
        <time>2021-08-10T13:52:42.348Z</time>
      </trkpt>
      <trkpt lat="46.8943" lon="8.55757">
        <ele>1096</ele>
        <time>2021-08-10T13:52:43.348Z</time>
      </trkpt>
      <trkpt lat="46.89429" lon="8.55756">
        <ele>1095</ele>
        <time>2021-08-10T13:52:44.347Z</time>
      </trkpt>
      <trkpt lat="46.89428" lon="8.55755">
        <ele>1095</ele>
        <time>2021-08-10T13:52:45.348Z</time>
      </trkpt>
      <trkpt lat="46.89426" lon="8.55754">
        <ele>1095</ele>
        <time>2021-08-10T13:52:46.348Z</time>
      </trkpt>
      <trkpt lat="46.89425" lon="8.55753">
        <ele>1095</ele>
        <time>2021-08-10T13:52:47.347Z</time>
      </trkpt>
      <trkpt lat="46.89424" lon="8.55754">
        <ele>1095</ele>
        <time>2021-08-10T13:52:49.366Z</time>
      </trkpt>
      <trkpt lat="46.89423" lon="8.55753">
        <ele>1095</ele>
        <time>2021-08-10T13:52:50.365Z</time>
      </trkpt>
      <trkpt lat="46.89422" lon="8.55753">
        <ele>1095</ele>
        <time>2021-08-10T13:52:51.366Z</time>
      </trkpt>
      <trkpt lat="46.89421" lon="8.55753">
        <ele>1095</ele>
        <time>2021-08-10T13:52:52.365Z</time>
      </trkpt>
      <trkpt lat="46.8942" lon="8.55753">
        <ele>1095</ele>
        <time>2021-08-10T13:52:53.366Z</time>
      </trkpt>
      <trkpt lat="46.89418" lon="8.55752">
        <ele>1096</ele>
        <time>2021-08-10T13:52:54.366Z</time>
      </trkpt>
      <trkpt lat="46.89418" lon="8.55751">
        <ele>1096</ele>
        <time>2021-08-10T13:52:55.366Z</time>
      </trkpt>
      <trkpt lat="46.89416" lon="8.5575">
        <ele>1096</ele>
        <time>2021-08-10T13:52:59.479Z</time>
      </trkpt>
      <trkpt lat="46.89415" lon="8.55749">
        <ele>1097</ele>
        <time>2021-08-10T13:53:00.478Z</time>
      </trkpt>
      <trkpt lat="46.89413" lon="8.55749">
        <ele>1097</ele>
        <time>2021-08-10T13:53:01.479Z</time>
      </trkpt>
      <trkpt lat="46.89411" lon="8.55748">
        <ele>1097</ele>
        <time>2021-08-10T13:53:02.479Z</time>
      </trkpt>
      <trkpt lat="46.8941" lon="8.55746">
        <ele>1097</ele>
        <time>2021-08-10T13:53:03.479Z</time>
      </trkpt>
      <trkpt lat="46.89408" lon="8.55745">
        <ele>1097</ele>
        <time>2021-08-10T13:53:04.479Z</time>
      </trkpt>
      <trkpt lat="46.89407" lon="8.55744">
        <ele>1097</ele>
        <time>2021-08-10T13:53:05.479Z</time>
      </trkpt>
      <trkpt lat="46.89406" lon="8.55744">
        <ele>1097</ele>
        <time>2021-08-10T13:53:06.479Z</time>
      </trkpt>
      <trkpt lat="46.89404" lon="8.55742">
        <ele>1097</ele>
        <time>2021-08-10T13:53:07.479Z</time>
      </trkpt>
      <trkpt lat="46.89403" lon="8.55741">
        <ele>1097</ele>
        <time>2021-08-10T13:53:08.478Z</time>
      </trkpt>
      <trkpt lat="46.89401" lon="8.55742">
        <ele>1097</ele>
        <time>2021-08-10T13:53:09.479Z</time>
      </trkpt>
      <trkpt lat="46.89401" lon="8.55745">
        <ele>1097</ele>
        <time>2021-08-10T13:53:10.479Z</time>
      </trkpt>
      <trkpt lat="46.894" lon="8.55745">
        <ele>1097</ele>
        <time>2021-08-10T13:53:11.479Z</time>
      </trkpt>
      <trkpt lat="46.89399" lon="8.55747">
        <ele>1097</ele>
        <time>2021-08-10T13:53:12.478Z</time>
      </trkpt>
      <trkpt lat="46.89399" lon="8.55747">
        <ele>1096</ele>
        <time>2021-08-10T13:53:13.479Z</time>
      </trkpt>
      <trkpt lat="46.89398" lon="8.55748">
        <ele>1096</ele>
        <time>2021-08-10T13:53:14.479Z</time>
      </trkpt>
      <trkpt lat="46.89397" lon="8.55748">
        <ele>1095</ele>
        <time>2021-08-10T13:53:15.479Z</time>
      </trkpt>
      <trkpt lat="46.89396" lon="8.55748">
        <ele>1095</ele>
        <time>2021-08-10T13:53:16.479Z</time>
      </trkpt>
      <trkpt lat="46.89395" lon="8.55748">
        <ele>1095</ele>
        <time>2021-08-10T13:53:17.479Z</time>
      </trkpt>
      <trkpt lat="46.89394" lon="8.55748">
        <ele>1095</ele>
        <time>2021-08-10T13:53:18.479Z</time>
      </trkpt>
      <trkpt lat="46.89393" lon="8.55748">
        <ele>1095</ele>
        <time>2021-08-10T13:53:19.478Z</time>
      </trkpt>
      <trkpt lat="46.89392" lon="8.55749">
        <ele>1095</ele>
        <time>2021-08-10T13:53:20.479Z</time>
      </trkpt>
      <trkpt lat="46.89392" lon="8.5575">
        <ele>1094</ele>
        <time>2021-08-10T13:53:21.479Z</time>
      </trkpt>
      <trkpt lat="46.89391" lon="8.5575">
        <ele>1094</ele>
        <time>2021-08-10T13:53:22.478Z</time>
      </trkpt>
      <trkpt lat="46.89391" lon="8.5575">
        <ele>1093</ele>
        <time>2021-08-10T13:53:23.479Z</time>
      </trkpt>
      <trkpt lat="46.8939" lon="8.5575">
        <ele>1093</ele>
        <time>2021-08-10T13:53:28.466Z</time>
      </trkpt>
      <trkpt lat="46.8939" lon="8.5575">
        <ele>1092</ele>
        <time>2021-08-10T13:53:29.467Z</time>
      </trkpt>
      <trkpt lat="46.89389" lon="8.5575">
        <ele>1092</ele>
        <time>2021-08-10T13:53:30.467Z</time>
      </trkpt>
      <trkpt lat="46.89389" lon="8.55751">
        <ele>1091</ele>
        <time>2021-08-10T13:53:31.467Z</time>
      </trkpt>
      <trkpt lat="46.89389" lon="8.55752">
        <ele>1091</ele>
        <time>2021-08-10T13:53:32.467Z</time>
      </trkpt>
      <trkpt lat="46.89388" lon="8.55753">
        <ele>1090</ele>
        <time>2021-08-10T13:53:33.466Z</time>
      </trkpt>
      <trkpt lat="46.89387" lon="8.55753">
        <ele>1089</ele>
        <time>2021-08-10T13:53:34.467Z</time>
      </trkpt>
      <trkpt lat="46.89386" lon="8.55754">
        <ele>1089</ele>
        <time>2021-08-10T13:53:35.466Z</time>
      </trkpt>
      <trkpt lat="46.89385" lon="8.55753">
        <ele>1088</ele>
        <time>2021-08-10T13:53:36.467Z</time>
      </trkpt>
      <trkpt lat="46.89384" lon="8.55752">
        <ele>1087</ele>
        <time>2021-08-10T13:53:37.466Z</time>
      </trkpt>
      <trkpt lat="46.89383" lon="8.55752">
        <ele>1087</ele>
        <time>2021-08-10T13:53:38.467Z</time>
      </trkpt>
      <trkpt lat="46.89381" lon="8.55752">
        <ele>1087</ele>
        <time>2021-08-10T13:53:39.466Z</time>
      </trkpt>
      <trkpt lat="46.89379" lon="8.55751">
        <ele>1087</ele>
        <time>2021-08-10T13:53:40.467Z</time>
      </trkpt>
      <trkpt lat="46.89378" lon="8.5575">
        <ele>1087</ele>
        <time>2021-08-10T13:53:41.467Z</time>
      </trkpt>
      <trkpt lat="46.89377" lon="8.5575">
        <ele>1087</ele>
        <time>2021-08-10T13:53:42.467Z</time>
      </trkpt>
      <trkpt lat="46.89377" lon="8.55751">
        <ele>1086</ele>
        <time>2021-08-10T13:53:43.467Z</time>
      </trkpt>
      <trkpt lat="46.89376" lon="8.55751">
        <ele>1086</ele>
        <time>2021-08-10T13:53:44.466Z</time>
      </trkpt>
      <trkpt lat="46.89375" lon="8.55752">
        <ele>1085</ele>
        <time>2021-08-10T13:53:45.466Z</time>
      </trkpt>
      <trkpt lat="46.89374" lon="8.55752">
        <ele>1086</ele>
        <time>2021-08-10T13:53:46.466Z</time>
      </trkpt>
      <trkpt lat="46.89373" lon="8.55752">
        <ele>1086</ele>
        <time>2021-08-10T13:53:47.467Z</time>
      </trkpt>
      <trkpt lat="46.89372" lon="8.55753">
        <ele>1086</ele>
        <time>2021-08-10T13:53:48.467Z</time>
      </trkpt>
      <trkpt lat="46.89371" lon="8.55753">
        <ele>1087</ele>
        <time>2021-08-10T13:53:49.467Z</time>
      </trkpt>
      <trkpt lat="46.89371" lon="8.55753">
        <ele>1087</ele>
        <time>2021-08-10T13:53:50.467Z</time>
      </trkpt>
      <trkpt lat="46.8937" lon="8.55753">
        <ele>1088</ele>
        <time>2021-08-10T13:53:51.466Z</time>
      </trkpt>
      <trkpt lat="46.89369" lon="8.55753">
        <ele>1088</ele>
        <time>2021-08-10T13:53:52.466Z</time>
      </trkpt>
      <trkpt lat="46.89368" lon="8.55752">
        <ele>1088</ele>
        <time>2021-08-10T13:53:53.467Z</time>
      </trkpt>
      <trkpt lat="46.89367" lon="8.55751">
        <ele>1089</ele>
        <time>2021-08-10T13:53:54.467Z</time>
      </trkpt>
      <trkpt lat="46.89365" lon="8.55751">
        <ele>1089</ele>
        <time>2021-08-10T13:53:55.467Z</time>
      </trkpt>
      <trkpt lat="46.89364" lon="8.55751">
        <ele>1089</ele>
        <time>2021-08-10T13:53:56.467Z</time>
      </trkpt>
      <trkpt lat="46.89364" lon="8.55751">
        <ele>1089</ele>
        <time>2021-08-10T13:53:57.467Z</time>
      </trkpt>
      <trkpt lat="46.89363" lon="8.55751">
        <ele>1089</ele>
        <time>2021-08-10T13:53:58.467Z</time>
      </trkpt>
      <trkpt lat="46.89362" lon="8.5575">
        <ele>1089</ele>
        <time>2021-08-10T13:53:59.467Z</time>
      </trkpt>
      <trkpt lat="46.89361" lon="8.5575">
        <ele>1089</ele>
        <time>2021-08-10T13:54:00.467Z</time>
      </trkpt>
      <trkpt lat="46.8936" lon="8.5575">
        <ele>1090</ele>
        <time>2021-08-10T13:54:01.467Z</time>
      </trkpt>
      <trkpt lat="46.89358" lon="8.55749">
        <ele>1090</ele>
        <time>2021-08-10T13:54:02.467Z</time>
      </trkpt>
      <trkpt lat="46.89357" lon="8.55749">
        <ele>1091</ele>
        <time>2021-08-10T13:54:03.467Z</time>
      </trkpt>
      <trkpt lat="46.89357" lon="8.55748">
        <ele>1092</ele>
        <time>2021-08-10T13:54:04.467Z</time>
      </trkpt>
      <trkpt lat="46.89356" lon="8.55748">
        <ele>1092</ele>
        <time>2021-08-10T13:54:05.466Z</time>
      </trkpt>
      <trkpt lat="46.89355" lon="8.55747">
        <ele>1093</ele>
        <time>2021-08-10T13:54:06.466Z</time>
      </trkpt>
      <trkpt lat="46.89354" lon="8.55746">
        <ele>1093</ele>
        <time>2021-08-10T13:54:07.467Z</time>
      </trkpt>
      <trkpt lat="46.89353" lon="8.55746">
        <ele>1093</ele>
        <time>2021-08-10T13:54:08.467Z</time>
      </trkpt>
      <trkpt lat="46.89352" lon="8.55745">
        <ele>1094</ele>
        <time>2021-08-10T13:54:09.466Z</time>
      </trkpt>
      <trkpt lat="46.89351" lon="8.55745">
        <ele>1094</ele>
        <time>2021-08-10T13:54:10.466Z</time>
      </trkpt>
      <trkpt lat="46.89351" lon="8.55745">
        <ele>1094</ele>
        <time>2021-08-10T13:54:11.466Z</time>
      </trkpt>
      <trkpt lat="46.8935" lon="8.55745">
        <ele>1094</ele>
        <time>2021-08-10T13:54:12.466Z</time>
      </trkpt>
      <trkpt lat="46.89349" lon="8.55744">
        <ele>1094</ele>
        <time>2021-08-10T13:54:13.467Z</time>
      </trkpt>
      <trkpt lat="46.89347" lon="8.55744">
        <ele>1094</ele>
        <time>2021-08-10T13:54:14.466Z</time>
      </trkpt>
      <trkpt lat="46.89346" lon="8.55743">
        <ele>1094</ele>
        <time>2021-08-10T13:54:15.466Z</time>
      </trkpt>
      <trkpt lat="46.89346" lon="8.55743">
        <ele>1094</ele>
        <time>2021-08-10T13:54:16.466Z</time>
      </trkpt>
      <trkpt lat="46.89345" lon="8.55743">
        <ele>1094</ele>
        <time>2021-08-10T13:54:17.466Z</time>
      </trkpt>
      <trkpt lat="46.89344" lon="8.55742">
        <ele>1093</ele>
        <time>2021-08-10T13:54:18.466Z</time>
      </trkpt>
      <trkpt lat="46.89343" lon="8.55742">
        <ele>1093</ele>
        <time>2021-08-10T13:54:19.467Z</time>
      </trkpt>
      <trkpt lat="46.89342" lon="8.55741">
        <ele>1093</ele>
        <time>2021-08-10T13:54:20.467Z</time>
      </trkpt>
      <trkpt lat="46.89341" lon="8.55741">
        <ele>1092</ele>
        <time>2021-08-10T13:54:21.466Z</time>
      </trkpt>
      <trkpt lat="46.8934" lon="8.55741">
        <ele>1092</ele>
        <time>2021-08-10T13:54:22.467Z</time>
      </trkpt>
      <trkpt lat="46.89339" lon="8.5574">
        <ele>1091</ele>
        <time>2021-08-10T13:54:23.466Z</time>
      </trkpt>
      <trkpt lat="46.89338" lon="8.5574">
        <ele>1091</ele>
        <time>2021-08-10T13:54:24.467Z</time>
      </trkpt>
      <trkpt lat="46.89337" lon="8.5574">
        <ele>1091</ele>
        <time>2021-08-10T13:54:25.466Z</time>
      </trkpt>
      <trkpt lat="46.89336" lon="8.55739">
        <ele>1091</ele>
        <time>2021-08-10T13:54:26.466Z</time>
      </trkpt>
      <trkpt lat="46.89335" lon="8.55739">
        <ele>1091</ele>
        <time>2021-08-10T13:54:27.466Z</time>
      </trkpt>
      <trkpt lat="46.89334" lon="8.55738">
        <ele>1091</ele>
        <time>2021-08-10T13:54:28.466Z</time>
      </trkpt>
      <trkpt lat="46.89333" lon="8.55737">
        <ele>1091</ele>
        <time>2021-08-10T13:54:29.466Z</time>
      </trkpt>
      <trkpt lat="46.89331" lon="8.55736">
        <ele>1091</ele>
        <time>2021-08-10T13:54:30.466Z</time>
      </trkpt>
      <trkpt lat="46.8933" lon="8.55736">
        <ele>1091</ele>
        <time>2021-08-10T13:54:31.466Z</time>
      </trkpt>
      <trkpt lat="46.89329" lon="8.55735">
        <ele>1092</ele>
        <time>2021-08-10T13:54:32.466Z</time>
      </trkpt>
      <trkpt lat="46.89329" lon="8.55735">
        <ele>1092</ele>
        <time>2021-08-10T13:54:33.466Z</time>
      </trkpt>
      <trkpt lat="46.89327" lon="8.55735">
        <ele>1093</ele>
        <time>2021-08-10T13:54:34.467Z</time>
      </trkpt>
      <trkpt lat="46.89326" lon="8.55734">
        <ele>1093</ele>
        <time>2021-08-10T13:54:35.466Z</time>
      </trkpt>
      <trkpt lat="46.89325" lon="8.55733">
        <ele>1094</ele>
        <time>2021-08-10T13:54:36.467Z</time>
      </trkpt>
      <trkpt lat="46.89324" lon="8.55733">
        <ele>1094</ele>
        <time>2021-08-10T13:54:37.467Z</time>
      </trkpt>
      <trkpt lat="46.89323" lon="8.55733">
        <ele>1095</ele>
        <time>2021-08-10T13:54:38.466Z</time>
      </trkpt>
      <trkpt lat="46.89323" lon="8.55733">
        <ele>1095</ele>
        <time>2021-08-10T13:54:39.467Z</time>
      </trkpt>
      <trkpt lat="46.89322" lon="8.55733">
        <ele>1095</ele>
        <time>2021-08-10T13:54:40.467Z</time>
      </trkpt>
      <trkpt lat="46.89321" lon="8.55734">
        <ele>1095</ele>
        <time>2021-08-10T13:54:41.467Z</time>
      </trkpt>
      <trkpt lat="46.8932" lon="8.55734">
        <ele>1095</ele>
        <time>2021-08-10T13:54:42.467Z</time>
      </trkpt>
      <trkpt lat="46.89318" lon="8.55734">
        <ele>1094</ele>
        <time>2021-08-10T13:54:43.467Z</time>
      </trkpt>
      <trkpt lat="46.89317" lon="8.55732">
        <ele>1094</ele>
        <time>2021-08-10T13:54:44.466Z</time>
      </trkpt>
      <trkpt lat="46.89315" lon="8.55731">
        <ele>1094</ele>
        <time>2021-08-10T13:54:45.467Z</time>
      </trkpt>
      <trkpt lat="46.89315" lon="8.55731">
        <ele>1094</ele>
        <time>2021-08-10T13:54:46.467Z</time>
      </trkpt>
      <trkpt lat="46.89314" lon="8.55731">
        <ele>1094</ele>
        <time>2021-08-10T13:54:47.467Z</time>
      </trkpt>
      <trkpt lat="46.89314" lon="8.55731">
        <ele>1094</ele>
        <time>2021-08-10T13:54:48.466Z</time>
      </trkpt>
      <trkpt lat="46.89313" lon="8.55731">
        <ele>1095</ele>
        <time>2021-08-10T13:54:49.467Z</time>
      </trkpt>
      <trkpt lat="46.89311" lon="8.5573">
        <ele>1095</ele>
        <time>2021-08-10T13:54:50.467Z</time>
      </trkpt>
      <trkpt lat="46.8931" lon="8.55729">
        <ele>1095</ele>
        <time>2021-08-10T13:54:51.466Z</time>
      </trkpt>
      <trkpt lat="46.89309" lon="8.55729">
        <ele>1096</ele>
        <time>2021-08-10T13:54:52.467Z</time>
      </trkpt>
      <trkpt lat="46.89309" lon="8.55729">
        <ele>1097</ele>
        <time>2021-08-10T13:54:53.467Z</time>
      </trkpt>
      <trkpt lat="46.89307" lon="8.55728">
        <ele>1097</ele>
        <time>2021-08-10T13:54:54.466Z</time>
      </trkpt>
      <trkpt lat="46.89306" lon="8.55728">
        <ele>1098</ele>
        <time>2021-08-10T13:54:55.467Z</time>
      </trkpt>
      <trkpt lat="46.89305" lon="8.55728">
        <ele>1099</ele>
        <time>2021-08-10T13:54:56.467Z</time>
      </trkpt>
      <trkpt lat="46.89304" lon="8.55727">
        <ele>1100</ele>
        <time>2021-08-10T13:54:57.467Z</time>
      </trkpt>
      <trkpt lat="46.89303" lon="8.55726">
        <ele>1101</ele>
        <time>2021-08-10T13:54:58.467Z</time>
      </trkpt>
      <trkpt lat="46.89302" lon="8.55725">
        <ele>1101</ele>
        <time>2021-08-10T13:54:59.466Z</time>
      </trkpt>
      <trkpt lat="46.89301" lon="8.55725">
        <ele>1102</ele>
        <time>2021-08-10T13:55:00.467Z</time>
      </trkpt>
      <trkpt lat="46.893" lon="8.55725">
        <ele>1103</ele>
        <time>2021-08-10T13:55:01.467Z</time>
      </trkpt>
      <trkpt lat="46.89299" lon="8.55724">
        <ele>1103</ele>
        <time>2021-08-10T13:55:02.467Z</time>
      </trkpt>
      <trkpt lat="46.89298" lon="8.55723">
        <ele>1103</ele>
        <time>2021-08-10T13:55:03.466Z</time>
      </trkpt>
      <trkpt lat="46.89297" lon="8.55723">
        <ele>1103</ele>
        <time>2021-08-10T13:55:04.466Z</time>
      </trkpt>
      <trkpt lat="46.89296" lon="8.55723">
        <ele>1103</ele>
        <time>2021-08-10T13:55:05.467Z</time>
      </trkpt>
      <trkpt lat="46.89296" lon="8.55722">
        <ele>1103</ele>
        <time>2021-08-10T13:55:06.467Z</time>
      </trkpt>
      <trkpt lat="46.89295" lon="8.55721">
        <ele>1103</ele>
        <time>2021-08-10T13:55:07.467Z</time>
      </trkpt>
      <trkpt lat="46.89294" lon="8.55721">
        <ele>1102</ele>
        <time>2021-08-10T13:55:08.466Z</time>
      </trkpt>
      <trkpt lat="46.89294" lon="8.5572">
        <ele>1102</ele>
        <time>2021-08-10T13:55:09.467Z</time>
      </trkpt>
      <trkpt lat="46.89293" lon="8.55719">
        <ele>1101</ele>
        <time>2021-08-10T13:55:10.467Z</time>
      </trkpt>
      <trkpt lat="46.89292" lon="8.55719">
        <ele>1101</ele>
        <time>2021-08-10T13:55:11.466Z</time>
      </trkpt>
      <trkpt lat="46.89291" lon="8.55719">
        <ele>1101</ele>
        <time>2021-08-10T13:55:12.467Z</time>
      </trkpt>
      <trkpt lat="46.8929" lon="8.5572">
        <ele>1101</ele>
        <time>2021-08-10T13:55:13.467Z</time>
      </trkpt>
      <trkpt lat="46.8929" lon="8.55719">
        <ele>1101</ele>
        <time>2021-08-10T13:55:14.467Z</time>
      </trkpt>
      <trkpt lat="46.89289" lon="8.5572">
        <ele>1101</ele>
        <time>2021-08-10T13:55:15.467Z</time>
      </trkpt>
      <trkpt lat="46.89289" lon="8.5572">
        <ele>1100</ele>
        <time>2021-08-10T13:55:19.489Z</time>
      </trkpt>
      <trkpt lat="46.89288" lon="8.5572">
        <ele>1100</ele>
        <time>2021-08-10T13:55:20.489Z</time>
      </trkpt>
      <trkpt lat="46.89288" lon="8.55721">
        <ele>1099</ele>
        <time>2021-08-10T13:55:21.488Z</time>
      </trkpt>
      <trkpt lat="46.89287" lon="8.55721">
        <ele>1099</ele>
        <time>2021-08-10T13:55:22.489Z</time>
      </trkpt>
      <trkpt lat="46.89287" lon="8.55721">
        <ele>1098</ele>
        <time>2021-08-10T13:55:23.489Z</time>
      </trkpt>
      <trkpt lat="46.89286" lon="8.5572">
        <ele>1098</ele>
        <time>2021-08-10T13:55:28.426Z</time>
      </trkpt>
      <trkpt lat="46.89286" lon="8.55719">
        <ele>1098</ele>
        <time>2021-08-10T13:55:29.425Z</time>
      </trkpt>
      <trkpt lat="46.89285" lon="8.55719">
        <ele>1099</ele>
        <time>2021-08-10T13:55:30.426Z</time>
      </trkpt>
      <trkpt lat="46.89284" lon="8.55718">
        <ele>1099</ele>
        <time>2021-08-10T13:55:31.425Z</time>
      </trkpt>
      <trkpt lat="46.89283" lon="8.55717">
        <ele>1099</ele>
        <time>2021-08-10T13:55:32.426Z</time>
      </trkpt>
      <trkpt lat="46.89282" lon="8.55717">
        <ele>1099</ele>
        <time>2021-08-10T13:55:33.426Z</time>
      </trkpt>
      <trkpt lat="46.89281" lon="8.55717">
        <ele>1099</ele>
        <time>2021-08-10T13:55:34.425Z</time>
      </trkpt>
      <trkpt lat="46.8928" lon="8.55717">
        <ele>1100</ele>
        <time>2021-08-10T13:55:35.425Z</time>
      </trkpt>
      <trkpt lat="46.89279" lon="8.55716">
        <ele>1100</ele>
        <time>2021-08-10T13:55:36.425Z</time>
      </trkpt>
      <trkpt lat="46.89278" lon="8.55716">
        <ele>1100</ele>
        <time>2021-08-10T13:55:37.426Z</time>
      </trkpt>
      <trkpt lat="46.89277" lon="8.55715">
        <ele>1100</ele>
        <time>2021-08-10T13:55:38.426Z</time>
      </trkpt>
      <trkpt lat="46.89275" lon="8.55713">
        <ele>1100</ele>
        <time>2021-08-10T13:55:39.425Z</time>
      </trkpt>
      <trkpt lat="46.89274" lon="8.55713">
        <ele>1100</ele>
        <time>2021-08-10T13:55:40.426Z</time>
      </trkpt>
      <trkpt lat="46.89273" lon="8.55712">
        <ele>1100</ele>
        <time>2021-08-10T13:55:41.425Z</time>
      </trkpt>
      <trkpt lat="46.89272" lon="8.55711">
        <ele>1100</ele>
        <time>2021-08-10T13:55:42.426Z</time>
      </trkpt>
      <trkpt lat="46.89272" lon="8.55711">
        <ele>1100</ele>
        <time>2021-08-10T13:55:43.426Z</time>
      </trkpt>
      <trkpt lat="46.89271" lon="8.5571">
        <ele>1099</ele>
        <time>2021-08-10T13:55:44.426Z</time>
      </trkpt>
      <trkpt lat="46.8927" lon="8.55709">
        <ele>1099</ele>
        <time>2021-08-10T13:55:45.426Z</time>
      </trkpt>
      <trkpt lat="46.89269" lon="8.55709">
        <ele>1099</ele>
        <time>2021-08-10T13:55:46.425Z</time>
      </trkpt>
      <trkpt lat="46.89268" lon="8.55708">
        <ele>1098</ele>
        <time>2021-08-10T13:55:47.426Z</time>
      </trkpt>
      <trkpt lat="46.89267" lon="8.55707">
        <ele>1098</ele>
        <time>2021-08-10T13:55:48.426Z</time>
      </trkpt>
      <trkpt lat="46.89266" lon="8.55707">
        <ele>1098</ele>
        <time>2021-08-10T13:55:49.426Z</time>
      </trkpt>
      <trkpt lat="46.89265" lon="8.55706">
        <ele>1098</ele>
        <time>2021-08-10T13:55:50.426Z</time>
      </trkpt>
      <trkpt lat="46.89264" lon="8.55705">
        <ele>1099</ele>
        <time>2021-08-10T13:55:51.426Z</time>
      </trkpt>
      <trkpt lat="46.89264" lon="8.55705">
        <ele>1099</ele>
        <time>2021-08-10T13:55:52.426Z</time>
      </trkpt>
      <trkpt lat="46.89263" lon="8.55705">
        <ele>1099</ele>
        <time>2021-08-10T13:55:53.426Z</time>
      </trkpt>
      <trkpt lat="46.89262" lon="8.55705">
        <ele>1099</ele>
        <time>2021-08-10T13:55:54.426Z</time>
      </trkpt>
      <trkpt lat="46.89261" lon="8.55704">
        <ele>1099</ele>
        <time>2021-08-10T13:55:55.426Z</time>
      </trkpt>
      <trkpt lat="46.8926" lon="8.55703">
        <ele>1099</ele>
        <time>2021-08-10T13:55:56.425Z</time>
      </trkpt>
      <trkpt lat="46.89259" lon="8.55703">
        <ele>1099</ele>
        <time>2021-08-10T13:55:57.426Z</time>
      </trkpt>
      <trkpt lat="46.89258" lon="8.55703">
        <ele>1099</ele>
        <time>2021-08-10T13:55:58.426Z</time>
      </trkpt>
      <trkpt lat="46.89257" lon="8.55702">
        <ele>1098</ele>
        <time>2021-08-10T13:55:59.426Z</time>
      </trkpt>
      <trkpt lat="46.89256" lon="8.55701">
        <ele>1097</ele>
        <time>2021-08-10T13:56:00.426Z</time>
      </trkpt>
      <trkpt lat="46.89256" lon="8.55701">
        <ele>1096</ele>
        <time>2021-08-10T13:56:01.426Z</time>
      </trkpt>
      <trkpt lat="46.89255" lon="8.55701">
        <ele>1096</ele>
        <time>2021-08-10T13:56:02.426Z</time>
      </trkpt>
      <trkpt lat="46.89255" lon="8.557">
        <ele>1095</ele>
        <time>2021-08-10T13:56:03.426Z</time>
      </trkpt>
      <trkpt lat="46.89254" lon="8.557">
        <ele>1095</ele>
        <time>2021-08-10T13:56:04.425Z</time>
      </trkpt>
      <trkpt lat="46.89254" lon="8.557">
        <ele>1096</ele>
        <time>2021-08-10T13:56:05.426Z</time>
      </trkpt>
      <trkpt lat="46.89253" lon="8.557">
        <ele>1096</ele>
        <time>2021-08-10T13:56:06.426Z</time>
      </trkpt>
      <trkpt lat="46.89253" lon="8.55699">
        <ele>1096</ele>
        <time>2021-08-10T13:56:07.425Z</time>
      </trkpt>
      <trkpt lat="46.89252" lon="8.55699">
        <ele>1097</ele>
        <time>2021-08-10T13:56:08.426Z</time>
      </trkpt>
      <trkpt lat="46.8925" lon="8.55698">
        <ele>1098</ele>
        <time>2021-08-10T13:56:09.426Z</time>
      </trkpt>
      <trkpt lat="46.89249" lon="8.55698">
        <ele>1098</ele>
        <time>2021-08-10T13:56:10.425Z</time>
      </trkpt>
      <trkpt lat="46.89249" lon="8.55697">
        <ele>1099</ele>
        <time>2021-08-10T13:56:11.425Z</time>
      </trkpt>
      <trkpt lat="46.89248" lon="8.55696">
        <ele>1100</ele>
        <time>2021-08-10T13:56:12.425Z</time>
      </trkpt>
      <trkpt lat="46.89248" lon="8.55695">
        <ele>1100</ele>
        <time>2021-08-10T13:56:13.425Z</time>
      </trkpt>
      <trkpt lat="46.89247" lon="8.55695">
        <ele>1100</ele>
        <time>2021-08-10T13:56:14.425Z</time>
      </trkpt>
      <trkpt lat="46.89246" lon="8.55694">
        <ele>1100</ele>
        <time>2021-08-10T13:56:15.425Z</time>
      </trkpt>
      <trkpt lat="46.89245" lon="8.55693">
        <ele>1100</ele>
        <time>2021-08-10T13:56:16.426Z</time>
      </trkpt>
      <trkpt lat="46.89244" lon="8.55692">
        <ele>1101</ele>
        <time>2021-08-10T13:56:17.425Z</time>
      </trkpt>
      <trkpt lat="46.89242" lon="8.55691">
        <ele>1101</ele>
        <time>2021-08-10T13:56:18.425Z</time>
      </trkpt>
      <trkpt lat="46.89242" lon="8.5569">
        <ele>1102</ele>
        <time>2021-08-10T13:56:19.425Z</time>
      </trkpt>
      <trkpt lat="46.89241" lon="8.55689">
        <ele>1103</ele>
        <time>2021-08-10T13:56:20.425Z</time>
      </trkpt>
      <trkpt lat="46.8924" lon="8.55688">
        <ele>1103</ele>
        <time>2021-08-10T13:56:21.426Z</time>
      </trkpt>
      <trkpt lat="46.89239" lon="8.55687">
        <ele>1104</ele>
        <time>2021-08-10T13:56:22.425Z</time>
      </trkpt>
      <trkpt lat="46.89238" lon="8.55686">
        <ele>1104</ele>
        <time>2021-08-10T13:56:23.425Z</time>
      </trkpt>
      <trkpt lat="46.89237" lon="8.55686">
        <ele>1104</ele>
        <time>2021-08-10T13:56:24.425Z</time>
      </trkpt>
      <trkpt lat="46.89237" lon="8.55684">
        <ele>1104</ele>
        <time>2021-08-10T13:56:25.426Z</time>
      </trkpt>
      <trkpt lat="46.89236" lon="8.55683">
        <ele>1105</ele>
        <time>2021-08-10T13:56:26.425Z</time>
      </trkpt>
      <trkpt lat="46.89235" lon="8.55683">
        <ele>1105</ele>
        <time>2021-08-10T13:56:27.426Z</time>
      </trkpt>
      <trkpt lat="46.89234" lon="8.55682">
        <ele>1106</ele>
        <time>2021-08-10T13:56:28.426Z</time>
      </trkpt>
      <trkpt lat="46.89233" lon="8.55681">
        <ele>1107</ele>
        <time>2021-08-10T13:56:29.426Z</time>
      </trkpt>
      <trkpt lat="46.89232" lon="8.5568">
        <ele>1107</ele>
        <time>2021-08-10T13:56:30.425Z</time>
      </trkpt>
      <trkpt lat="46.89231" lon="8.55679">
        <ele>1107</ele>
        <time>2021-08-10T13:56:31.426Z</time>
      </trkpt>
      <trkpt lat="46.89231" lon="8.55678">
        <ele>1108</ele>
        <time>2021-08-10T13:56:32.425Z</time>
      </trkpt>
      <trkpt lat="46.8923" lon="8.55678">
        <ele>1108</ele>
        <time>2021-08-10T13:56:33.425Z</time>
      </trkpt>
      <trkpt lat="46.89229" lon="8.55677">
        <ele>1108</ele>
        <time>2021-08-10T13:56:34.425Z</time>
      </trkpt>
      <trkpt lat="46.89228" lon="8.55676">
        <ele>1109</ele>
        <time>2021-08-10T13:56:35.426Z</time>
      </trkpt>
      <trkpt lat="46.89226" lon="8.55675">
        <ele>1109</ele>
        <time>2021-08-10T13:56:36.426Z</time>
      </trkpt>
      <trkpt lat="46.89225" lon="8.55673">
        <ele>1110</ele>
        <time>2021-08-10T13:56:40.521Z</time>
      </trkpt>
      <trkpt lat="46.89224" lon="8.55673">
        <ele>1111</ele>
        <time>2021-08-10T13:56:41.520Z</time>
      </trkpt>
      <trkpt lat="46.89223" lon="8.55671">
        <ele>1111</ele>
        <time>2021-08-10T13:56:42.521Z</time>
      </trkpt>
      <trkpt lat="46.89222" lon="8.55671">
        <ele>1112</ele>
        <time>2021-08-10T13:56:43.521Z</time>
      </trkpt>
      <trkpt lat="46.89221" lon="8.55671">
        <ele>1113</ele>
        <time>2021-08-10T13:56:44.520Z</time>
      </trkpt>
      <trkpt lat="46.89221" lon="8.5567">
        <ele>1113</ele>
        <time>2021-08-10T13:56:45.521Z</time>
      </trkpt>
      <trkpt lat="46.8922" lon="8.55669">
        <ele>1113</ele>
        <time>2021-08-10T13:56:46.521Z</time>
      </trkpt>
      <trkpt lat="46.89219" lon="8.55668">
        <ele>1113</ele>
        <time>2021-08-10T13:56:49.611Z</time>
      </trkpt>
      <trkpt lat="46.89218" lon="8.55666">
        <ele>1113</ele>
        <time>2021-08-10T13:56:50.610Z</time>
      </trkpt>
      <trkpt lat="46.89218" lon="8.55666">
        <ele>1113</ele>
        <time>2021-08-10T13:56:51.611Z</time>
      </trkpt>
      <trkpt lat="46.89217" lon="8.55665">
        <ele>1113</ele>
        <time>2021-08-10T13:56:52.611Z</time>
      </trkpt>
      <trkpt lat="46.89216" lon="8.55664">
        <ele>1113</ele>
        <time>2021-08-10T13:56:53.611Z</time>
      </trkpt>
      <trkpt lat="46.89215" lon="8.55663">
        <ele>1112</ele>
        <time>2021-08-10T13:56:56.634Z</time>
      </trkpt>
      <trkpt lat="46.89214" lon="8.55663">
        <ele>1112</ele>
        <time>2021-08-10T13:56:57.635Z</time>
      </trkpt>
      <trkpt lat="46.89213" lon="8.55662">
        <ele>1112</ele>
        <time>2021-08-10T13:56:58.634Z</time>
      </trkpt>
      <trkpt lat="46.89213" lon="8.55662">
        <ele>1112</ele>
        <time>2021-08-10T13:56:59.635Z</time>
      </trkpt>
      <trkpt lat="46.89212" lon="8.5566">
        <ele>1112</ele>
        <time>2021-08-10T13:57:00.635Z</time>
      </trkpt>
      <trkpt lat="46.8921" lon="8.5566">
        <ele>1112</ele>
        <time>2021-08-10T13:57:01.635Z</time>
      </trkpt>
      <trkpt lat="46.8921" lon="8.55659">
        <ele>1112</ele>
        <time>2021-08-10T13:57:02.635Z</time>
      </trkpt>
      <trkpt lat="46.89209" lon="8.55659">
        <ele>1111</ele>
        <time>2021-08-10T13:57:03.635Z</time>
      </trkpt>
      <trkpt lat="46.89208" lon="8.55658">
        <ele>1111</ele>
        <time>2021-08-10T13:57:04.634Z</time>
      </trkpt>
      <trkpt lat="46.89207" lon="8.55657">
        <ele>1111</ele>
        <time>2021-08-10T13:57:05.635Z</time>
      </trkpt>
      <trkpt lat="46.89206" lon="8.55656">
        <ele>1111</ele>
        <time>2021-08-10T13:57:06.635Z</time>
      </trkpt>
      <trkpt lat="46.89206" lon="8.55655">
        <ele>1112</ele>
        <time>2021-08-10T13:57:07.634Z</time>
      </trkpt>
      <trkpt lat="46.89204" lon="8.55655">
        <ele>1112</ele>
        <time>2021-08-10T13:57:08.635Z</time>
      </trkpt>
      <trkpt lat="46.89203" lon="8.55654">
        <ele>1111</ele>
        <time>2021-08-10T13:57:09.635Z</time>
      </trkpt>
      <trkpt lat="46.89202" lon="8.55652">
        <ele>1111</ele>
        <time>2021-08-10T13:57:10.634Z</time>
      </trkpt>
      <trkpt lat="46.89201" lon="8.5565">
        <ele>1111</ele>
        <time>2021-08-10T13:57:11.635Z</time>
      </trkpt>
      <trkpt lat="46.892" lon="8.5565">
        <ele>1111</ele>
        <time>2021-08-10T13:57:12.635Z</time>
      </trkpt>
      <trkpt lat="46.89199" lon="8.55649">
        <ele>1111</ele>
        <time>2021-08-10T13:57:13.635Z</time>
      </trkpt>
      <trkpt lat="46.89199" lon="8.55649">
        <ele>1111</ele>
        <time>2021-08-10T13:57:14.634Z</time>
      </trkpt>
      <trkpt lat="46.89198" lon="8.55648">
        <ele>1111</ele>
        <time>2021-08-10T13:57:15.635Z</time>
      </trkpt>
      <trkpt lat="46.89197" lon="8.55647">
        <ele>1111</ele>
        <time>2021-08-10T13:57:16.635Z</time>
      </trkpt>
      <trkpt lat="46.89196" lon="8.55647">
        <ele>1111</ele>
        <time>2021-08-10T13:57:17.635Z</time>
      </trkpt>
      <trkpt lat="46.89196" lon="8.55647">
        <ele>1112</ele>
        <time>2021-08-10T13:57:18.634Z</time>
      </trkpt>
      <trkpt lat="46.89194" lon="8.55647">
        <ele>1112</ele>
        <time>2021-08-10T13:57:19.635Z</time>
      </trkpt>
      <trkpt lat="46.89193" lon="8.55645">
        <ele>1112</ele>
        <time>2021-08-10T13:57:20.635Z</time>
      </trkpt>
      <trkpt lat="46.89192" lon="8.55644">
        <ele>1113</ele>
        <time>2021-08-10T13:57:21.634Z</time>
      </trkpt>
      <trkpt lat="46.89191" lon="8.55643">
        <ele>1113</ele>
        <time>2021-08-10T13:57:22.635Z</time>
      </trkpt>
      <trkpt lat="46.8919" lon="8.55643">
        <ele>1114</ele>
        <time>2021-08-10T13:57:23.635Z</time>
      </trkpt>
      <trkpt lat="46.89189" lon="8.55643">
        <ele>1114</ele>
        <time>2021-08-10T13:57:24.634Z</time>
      </trkpt>
      <trkpt lat="46.89188" lon="8.55642">
        <ele>1114</ele>
        <time>2021-08-10T13:57:25.635Z</time>
      </trkpt>
      <trkpt lat="46.89186" lon="8.55642">
        <ele>1114</ele>
        <time>2021-08-10T13:57:26.634Z</time>
      </trkpt>
      <trkpt lat="46.89185" lon="8.55641">
        <ele>1113</ele>
        <time>2021-08-10T13:57:27.635Z</time>
      </trkpt>
      <trkpt lat="46.89184" lon="8.55641">
        <ele>1113</ele>
        <time>2021-08-10T13:57:28.635Z</time>
      </trkpt>
      <trkpt lat="46.89184" lon="8.5564">
        <ele>1113</ele>
        <time>2021-08-10T13:57:29.634Z</time>
      </trkpt>
      <trkpt lat="46.89183" lon="8.5564">
        <ele>1113</ele>
        <time>2021-08-10T13:57:30.634Z</time>
      </trkpt>
      <trkpt lat="46.89182" lon="8.55639">
        <ele>1113</ele>
        <time>2021-08-10T13:57:31.634Z</time>
      </trkpt>
      <trkpt lat="46.89182" lon="8.55638">
        <ele>1113</ele>
        <time>2021-08-10T13:57:32.634Z</time>
      </trkpt>
      <trkpt lat="46.89181" lon="8.55638">
        <ele>1114</ele>
        <time>2021-08-10T13:57:33.634Z</time>
      </trkpt>
      <trkpt lat="46.8918" lon="8.55637">
        <ele>1114</ele>
        <time>2021-08-10T13:57:34.634Z</time>
      </trkpt>
      <trkpt lat="46.89178" lon="8.55636">
        <ele>1114</ele>
        <time>2021-08-10T13:57:35.635Z</time>
      </trkpt>
      <trkpt lat="46.89177" lon="8.55635">
        <ele>1114</ele>
        <time>2021-08-10T13:57:36.634Z</time>
      </trkpt>
      <trkpt lat="46.89177" lon="8.55634">
        <ele>1114</ele>
        <time>2021-08-10T13:57:37.635Z</time>
      </trkpt>
      <trkpt lat="46.89176" lon="8.55634">
        <ele>1114</ele>
        <time>2021-08-10T13:57:38.635Z</time>
      </trkpt>
      <trkpt lat="46.89175" lon="8.55634">
        <ele>1114</ele>
        <time>2021-08-10T13:57:39.635Z</time>
      </trkpt>
      <trkpt lat="46.89174" lon="8.55633">
        <ele>1114</ele>
        <time>2021-08-10T13:57:40.635Z</time>
      </trkpt>
      <trkpt lat="46.89173" lon="8.55633">
        <ele>1114</ele>
        <time>2021-08-10T13:57:41.634Z</time>
      </trkpt>
      <trkpt lat="46.89172" lon="8.55633">
        <ele>1114</ele>
        <time>2021-08-10T13:57:43.727Z</time>
      </trkpt>
      <trkpt lat="46.8917" lon="8.55631">
        <ele>1115</ele>
        <time>2021-08-10T13:57:44.728Z</time>
      </trkpt>
      <trkpt lat="46.8917" lon="8.5563">
        <ele>1115</ele>
        <time>2021-08-10T13:57:45.728Z</time>
      </trkpt>
      <trkpt lat="46.89168" lon="8.55629">
        <ele>1116</ele>
        <time>2021-08-10T13:57:46.728Z</time>
      </trkpt>
      <trkpt lat="46.89167" lon="8.55629">
        <ele>1116</ele>
        <time>2021-08-10T13:57:47.728Z</time>
      </trkpt>
      <trkpt lat="46.89166" lon="8.55628">
        <ele>1117</ele>
        <time>2021-08-10T13:57:48.728Z</time>
      </trkpt>
      <trkpt lat="46.89165" lon="8.55627">
        <ele>1117</ele>
        <time>2021-08-10T13:57:49.727Z</time>
      </trkpt>
      <trkpt lat="46.89164" lon="8.55628">
        <ele>1118</ele>
        <time>2021-08-10T13:57:50.728Z</time>
      </trkpt>
      <trkpt lat="46.89163" lon="8.55627">
        <ele>1119</ele>
        <time>2021-08-10T13:57:52.728Z</time>
      </trkpt>
      <trkpt lat="46.89162" lon="8.55627">
        <ele>1119</ele>
        <time>2021-08-10T13:57:53.729Z</time>
      </trkpt>
      <trkpt lat="46.89162" lon="8.55627">
        <ele>1120</ele>
        <time>2021-08-10T13:57:54.729Z</time>
      </trkpt>
      <trkpt lat="46.89161" lon="8.55626">
        <ele>1120</ele>
        <time>2021-08-10T13:57:55.729Z</time>
      </trkpt>
      <trkpt lat="46.8916" lon="8.55626">
        <ele>1120</ele>
        <time>2021-08-10T13:57:56.729Z</time>
      </trkpt>
      <trkpt lat="46.8916" lon="8.55626">
        <ele>1120</ele>
        <time>2021-08-10T13:57:57.728Z</time>
      </trkpt>
      <trkpt lat="46.89159" lon="8.55626">
        <ele>1119</ele>
        <time>2021-08-10T13:57:58.728Z</time>
      </trkpt>
      <trkpt lat="46.89158" lon="8.55626">
        <ele>1119</ele>
        <time>2021-08-10T13:57:59.729Z</time>
      </trkpt>
      <trkpt lat="46.89157" lon="8.55626">
        <ele>1119</ele>
        <time>2021-08-10T13:58:00.729Z</time>
      </trkpt>
      <trkpt lat="46.89157" lon="8.55625">
        <ele>1119</ele>
        <time>2021-08-10T13:58:01.728Z</time>
      </trkpt>
      <trkpt lat="46.89156" lon="8.55625">
        <ele>1118</ele>
        <time>2021-08-10T13:58:02.729Z</time>
      </trkpt>
      <trkpt lat="46.89155" lon="8.55625">
        <ele>1117</ele>
        <time>2021-08-10T13:58:03.728Z</time>
      </trkpt>
      <trkpt lat="46.89155" lon="8.55625">
        <ele>1117</ele>
        <time>2021-08-10T13:58:04.729Z</time>
      </trkpt>
      <trkpt lat="46.89157" lon="8.55626">
        <ele>1113</ele>
        <time>2021-08-10T13:58:05.730Z</time>
      </trkpt>
      <trkpt lat="46.89157" lon="8.55624">
        <ele>1113</ele>
        <time>2021-08-10T13:58:06.729Z</time>
      </trkpt>
      <trkpt lat="46.89155" lon="8.55624">
        <ele>1112</ele>
        <time>2021-08-10T13:58:07.729Z</time>
      </trkpt>
      <trkpt lat="46.89155" lon="8.55622">
        <ele>1112</ele>
        <time>2021-08-10T13:58:08.729Z</time>
      </trkpt>
      <trkpt lat="46.89153" lon="8.55621">
        <ele>1112</ele>
        <time>2021-08-10T13:58:09.730Z</time>
      </trkpt>
      <trkpt lat="46.89152" lon="8.55621">
        <ele>1112</ele>
        <time>2021-08-10T13:58:10.730Z</time>
      </trkpt>
      <trkpt lat="46.89151" lon="8.5562">
        <ele>1112</ele>
        <time>2021-08-10T13:58:11.729Z</time>
      </trkpt>
      <trkpt lat="46.8915" lon="8.5562">
        <ele>1112</ele>
        <time>2021-08-10T13:58:12.730Z</time>
      </trkpt>
      <trkpt lat="46.8915" lon="8.55619">
        <ele>1112</ele>
        <time>2021-08-10T13:58:13.729Z</time>
      </trkpt>
      <trkpt lat="46.89149" lon="8.55618">
        <ele>1112</ele>
        <time>2021-08-10T13:58:14.729Z</time>
      </trkpt>
      <trkpt lat="46.89148" lon="8.55617">
        <ele>1112</ele>
        <time>2021-08-10T13:58:15.730Z</time>
      </trkpt>
      <trkpt lat="46.89147" lon="8.55617">
        <ele>1112</ele>
        <time>2021-08-10T13:58:16.730Z</time>
      </trkpt>
      <trkpt lat="46.89147" lon="8.55617">
        <ele>1112</ele>
        <time>2021-08-10T13:58:17.730Z</time>
      </trkpt>
      <trkpt lat="46.89145" lon="8.55616">
        <ele>1112</ele>
        <time>2021-08-10T13:58:18.730Z</time>
      </trkpt>
      <trkpt lat="46.89144" lon="8.55615">
        <ele>1113</ele>
        <time>2021-08-10T13:58:19.730Z</time>
      </trkpt>
      <trkpt lat="46.89144" lon="8.55615">
        <ele>1113</ele>
        <time>2021-08-10T13:58:22.818Z</time>
      </trkpt>
      <trkpt lat="46.89143" lon="8.55615">
        <ele>1114</ele>
        <time>2021-08-10T13:58:23.817Z</time>
      </trkpt>
      <trkpt lat="46.89142" lon="8.55615">
        <ele>1114</ele>
        <time>2021-08-10T13:58:39.634Z</time>
      </trkpt>
      <trkpt lat="46.89141" lon="8.55613">
        <ele>1115</ele>
        <time>2021-08-10T13:58:40.633Z</time>
      </trkpt>
      <trkpt lat="46.8914" lon="8.55612">
        <ele>1114</ele>
        <time>2021-08-10T13:58:41.633Z</time>
      </trkpt>
      <trkpt lat="46.8914" lon="8.55611">
        <ele>1114</ele>
        <time>2021-08-10T13:58:42.634Z</time>
      </trkpt>
      <trkpt lat="46.89138" lon="8.5561">
        <ele>1114</ele>
        <time>2021-08-10T13:58:43.634Z</time>
      </trkpt>
      <trkpt lat="46.89138" lon="8.55609">
        <ele>1114</ele>
        <time>2021-08-10T13:58:46.728Z</time>
      </trkpt>
      <trkpt lat="46.89137" lon="8.55609">
        <ele>1115</ele>
        <time>2021-08-10T13:58:47.728Z</time>
      </trkpt>
      <trkpt lat="46.89135" lon="8.55608">
        <ele>1115</ele>
        <time>2021-08-10T13:59:29.584Z</time>
      </trkpt>
      <trkpt lat="46.89134" lon="8.55607">
        <ele>1116</ele>
        <time>2021-08-10T13:59:30.585Z</time>
      </trkpt>
      <trkpt lat="46.89133" lon="8.55606">
        <ele>1116</ele>
        <time>2021-08-10T13:59:31.585Z</time>
      </trkpt>
      <trkpt lat="46.89132" lon="8.55605">
        <ele>1117</ele>
        <time>2021-08-10T13:59:32.585Z</time>
      </trkpt>
      <trkpt lat="46.89131" lon="8.55604">
        <ele>1117</ele>
        <time>2021-08-10T13:59:33.584Z</time>
      </trkpt>
      <trkpt lat="46.8913" lon="8.55603">
        <ele>1118</ele>
        <time>2021-08-10T13:59:34.584Z</time>
      </trkpt>
      <trkpt lat="46.89129" lon="8.55602">
        <ele>1118</ele>
        <time>2021-08-10T13:59:35.585Z</time>
      </trkpt>
      <trkpt lat="46.89128" lon="8.55602">
        <ele>1119</ele>
        <time>2021-08-10T13:59:36.585Z</time>
      </trkpt>
      <trkpt lat="46.89127" lon="8.55601">
        <ele>1120</ele>
        <time>2021-08-10T13:59:37.585Z</time>
      </trkpt>
      <trkpt lat="46.89126" lon="8.55601">
        <ele>1120</ele>
        <time>2021-08-10T13:59:45.620Z</time>
      </trkpt>
      <trkpt lat="46.89125" lon="8.556">
        <ele>1121</ele>
        <time>2021-08-10T13:59:46.619Z</time>
      </trkpt>
      <trkpt lat="46.89124" lon="8.556">
        <ele>1120</ele>
        <time>2021-08-10T13:59:47.620Z</time>
      </trkpt>
      <trkpt lat="46.89122" lon="8.55599">
        <ele>1120</ele>
        <time>2021-08-10T13:59:48.620Z</time>
      </trkpt>
      <trkpt lat="46.89122" lon="8.55599">
        <ele>1120</ele>
        <time>2021-08-10T13:59:52.585Z</time>
      </trkpt>
      <trkpt lat="46.89121" lon="8.55598">
        <ele>1119</ele>
        <time>2021-08-10T13:59:53.586Z</time>
      </trkpt>
      <trkpt lat="46.8912" lon="8.55598">
        <ele>1119</ele>
        <time>2021-08-10T14:00:01.376Z</time>
      </trkpt>
      <trkpt lat="46.89119" lon="8.55597">
        <ele>1118</ele>
        <time>2021-08-10T14:00:02.376Z</time>
      </trkpt>
      <trkpt lat="46.89118" lon="8.55596">
        <ele>1117</ele>
        <time>2021-08-10T14:00:03.376Z</time>
      </trkpt>
      <trkpt lat="46.89117" lon="8.55595">
        <ele>1116</ele>
        <time>2021-08-10T14:00:05.354Z</time>
      </trkpt>
      <trkpt lat="46.89116" lon="8.55595">
        <ele>1116</ele>
        <time>2021-08-10T14:00:06.354Z</time>
      </trkpt>
      <trkpt lat="46.89115" lon="8.55595">
        <ele>1116</ele>
        <time>2021-08-10T14:00:07.353Z</time>
      </trkpt>
      <trkpt lat="46.89114" lon="8.55595">
        <ele>1116</ele>
        <time>2021-08-10T14:00:08.353Z</time>
      </trkpt>
      <trkpt lat="46.89113" lon="8.55595">
        <ele>1116</ele>
        <time>2021-08-10T14:00:09.353Z</time>
      </trkpt>
      <trkpt lat="46.89112" lon="8.55594">
        <ele>1117</ele>
        <time>2021-08-10T14:00:10.354Z</time>
      </trkpt>
      <trkpt lat="46.89111" lon="8.55593">
        <ele>1117</ele>
        <time>2021-08-10T14:00:11.354Z</time>
      </trkpt>
      <trkpt lat="46.8911" lon="8.55593">
        <ele>1117</ele>
        <time>2021-08-10T14:00:12.354Z</time>
      </trkpt>
      <trkpt lat="46.8911" lon="8.55592">
        <ele>1117</ele>
        <time>2021-08-10T14:00:13.353Z</time>
      </trkpt>
      <trkpt lat="46.89109" lon="8.55592">
        <ele>1117</ele>
        <time>2021-08-10T14:00:14.353Z</time>
      </trkpt>
      <trkpt lat="46.89108" lon="8.55591">
        <ele>1117</ele>
        <time>2021-08-10T14:00:15.353Z</time>
      </trkpt>
      <trkpt lat="46.89108" lon="8.55591">
        <ele>1117</ele>
        <time>2021-08-10T14:00:16.354Z</time>
      </trkpt>
      <trkpt lat="46.89107" lon="8.55591">
        <ele>1118</ele>
        <time>2021-08-10T14:00:17.354Z</time>
      </trkpt>
      <trkpt lat="46.89106" lon="8.5559">
        <ele>1118</ele>
        <time>2021-08-10T14:00:18.354Z</time>
      </trkpt>
      <trkpt lat="46.89105" lon="8.5559">
        <ele>1118</ele>
        <time>2021-08-10T14:00:19.354Z</time>
      </trkpt>
      <trkpt lat="46.89105" lon="8.55589">
        <ele>1118</ele>
        <time>2021-08-10T14:00:20.354Z</time>
      </trkpt>
      <trkpt lat="46.89104" lon="8.55589">
        <ele>1118</ele>
        <time>2021-08-10T14:00:21.353Z</time>
      </trkpt>
      <trkpt lat="46.89104" lon="8.55588">
        <ele>1118</ele>
        <time>2021-08-10T14:00:22.354Z</time>
      </trkpt>
      <trkpt lat="46.89104" lon="8.55588">
        <ele>1117</ele>
        <time>2021-08-10T14:00:23.354Z</time>
      </trkpt>
      <trkpt lat="46.89102" lon="8.55587">
        <ele>1117</ele>
        <time>2021-08-10T14:00:24.353Z</time>
      </trkpt>
      <trkpt lat="46.89101" lon="8.55587">
        <ele>1116</ele>
        <time>2021-08-10T14:00:25.353Z</time>
      </trkpt>
      <trkpt lat="46.891" lon="8.55586">
        <ele>1116</ele>
        <time>2021-08-10T14:00:26.354Z</time>
      </trkpt>
      <trkpt lat="46.891" lon="8.55586">
        <ele>1116</ele>
        <time>2021-08-10T14:00:27.353Z</time>
      </trkpt>
      <trkpt lat="46.89099" lon="8.55585">
        <ele>1116</ele>
        <time>2021-08-10T14:00:28.354Z</time>
      </trkpt>
      <trkpt lat="46.89098" lon="8.55585">
        <ele>1117</ele>
        <time>2021-08-10T14:00:29.353Z</time>
      </trkpt>
      <trkpt lat="46.89096" lon="8.55584">
        <ele>1117</ele>
        <time>2021-08-10T14:00:30.354Z</time>
      </trkpt>
      <trkpt lat="46.89096" lon="8.55584">
        <ele>1117</ele>
        <time>2021-08-10T14:00:31.353Z</time>
      </trkpt>
      <trkpt lat="46.89095" lon="8.55583">
        <ele>1117</ele>
        <time>2021-08-10T14:00:32.354Z</time>
      </trkpt>
      <trkpt lat="46.89094" lon="8.55583">
        <ele>1117</ele>
        <time>2021-08-10T14:00:33.354Z</time>
      </trkpt>
      <trkpt lat="46.89093" lon="8.55583">
        <ele>1117</ele>
        <time>2021-08-10T14:00:34.354Z</time>
      </trkpt>
      <trkpt lat="46.89093" lon="8.55583">
        <ele>1117</ele>
        <time>2021-08-10T14:00:35.353Z</time>
      </trkpt>
      <trkpt lat="46.89092" lon="8.55583">
        <ele>1118</ele>
        <time>2021-08-10T14:00:36.354Z</time>
      </trkpt>
      <trkpt lat="46.89091" lon="8.55583">
        <ele>1118</ele>
        <time>2021-08-10T14:00:37.353Z</time>
      </trkpt>
      <trkpt lat="46.89091" lon="8.55584">
        <ele>1119</ele>
        <time>2021-08-10T14:00:41.474Z</time>
      </trkpt>
      <trkpt lat="46.89089" lon="8.55585">
        <ele>1120</ele>
        <time>2021-08-10T14:00:42.474Z</time>
      </trkpt>
      <trkpt lat="46.89089" lon="8.55586">
        <ele>1120</ele>
        <time>2021-08-10T14:00:43.475Z</time>
      </trkpt>
      <trkpt lat="46.89088" lon="8.55585">
        <ele>1121</ele>
        <time>2021-08-10T14:00:44.475Z</time>
      </trkpt>
      <trkpt lat="46.89088" lon="8.55585">
        <ele>1121</ele>
        <time>2021-08-10T14:00:45.475Z</time>
      </trkpt>
      <trkpt lat="46.89087" lon="8.55584">
        <ele>1122</ele>
        <time>2021-08-10T14:00:46.475Z</time>
      </trkpt>
      <trkpt lat="46.89085" lon="8.55583">
        <ele>1122</ele>
        <time>2021-08-10T14:00:47.475Z</time>
      </trkpt>
      <trkpt lat="46.89084" lon="8.55582">
        <ele>1122</ele>
        <time>2021-08-10T14:00:48.474Z</time>
      </trkpt>
      <trkpt lat="46.89084" lon="8.55581">
        <ele>1122</ele>
        <time>2021-08-10T14:00:49.475Z</time>
      </trkpt>
      <trkpt lat="46.89083" lon="8.55581">
        <ele>1122</ele>
        <time>2021-08-10T14:00:50.475Z</time>
      </trkpt>
      <trkpt lat="46.89083" lon="8.55581">
        <ele>1122</ele>
        <time>2021-08-10T14:00:51.475Z</time>
      </trkpt>
      <trkpt lat="46.89082" lon="8.5558">
        <ele>1121</ele>
        <time>2021-08-10T14:00:52.475Z</time>
      </trkpt>
      <trkpt lat="46.89082" lon="8.5558">
        <ele>1121</ele>
        <time>2021-08-10T14:00:53.475Z</time>
      </trkpt>
      <trkpt lat="46.89081" lon="8.5558">
        <ele>1120</ele>
        <time>2021-08-10T14:00:54.474Z</time>
      </trkpt>
      <trkpt lat="46.8908" lon="8.55579">
        <ele>1120</ele>
        <time>2021-08-10T14:00:55.475Z</time>
      </trkpt>
      <trkpt lat="46.89079" lon="8.55579">
        <ele>1119</ele>
        <time>2021-08-10T14:00:56.475Z</time>
      </trkpt>
      <trkpt lat="46.89078" lon="8.55579">
        <ele>1119</ele>
        <time>2021-08-10T14:00:57.474Z</time>
      </trkpt>
      <trkpt lat="46.89077" lon="8.55578">
        <ele>1120</ele>
        <time>2021-08-10T14:00:58.474Z</time>
      </trkpt>
      <trkpt lat="46.89076" lon="8.55577">
        <ele>1120</ele>
        <time>2021-08-10T14:00:59.474Z</time>
      </trkpt>
      <trkpt lat="46.89075" lon="8.55577">
        <ele>1120</ele>
        <time>2021-08-10T14:01:00.474Z</time>
      </trkpt>
      <trkpt lat="46.89074" lon="8.55577">
        <ele>1120</ele>
        <time>2021-08-10T14:01:01.475Z</time>
      </trkpt>
      <trkpt lat="46.89074" lon="8.55577">
        <ele>1121</ele>
        <time>2021-08-10T14:01:02.475Z</time>
      </trkpt>
      <trkpt lat="46.89074" lon="8.55577">
        <ele>1121</ele>
        <time>2021-08-10T14:01:03.474Z</time>
      </trkpt>
      <trkpt lat="46.89073" lon="8.55577">
        <ele>1121</ele>
        <time>2021-08-10T14:01:04.475Z</time>
      </trkpt>
      <trkpt lat="46.89072" lon="8.55576">
        <ele>1121</ele>
        <time>2021-08-10T14:01:05.475Z</time>
      </trkpt>
      <trkpt lat="46.89071" lon="8.55576">
        <ele>1122</ele>
        <time>2021-08-10T14:01:06.475Z</time>
      </trkpt>
      <trkpt lat="46.8907" lon="8.55576">
        <ele>1122</ele>
        <time>2021-08-10T14:01:07.475Z</time>
      </trkpt>
      <trkpt lat="46.89069" lon="8.55577">
        <ele>1123</ele>
        <time>2021-08-10T14:01:08.475Z</time>
      </trkpt>
      <trkpt lat="46.89068" lon="8.55576">
        <ele>1124</ele>
        <time>2021-08-10T14:01:09.474Z</time>
      </trkpt>
      <trkpt lat="46.89068" lon="8.55576">
        <ele>1124</ele>
        <time>2021-08-10T14:01:10.475Z</time>
      </trkpt>
      <trkpt lat="46.89067" lon="8.55575">
        <ele>1125</ele>
        <time>2021-08-10T14:01:11.475Z</time>
      </trkpt>
      <trkpt lat="46.89066" lon="8.55574">
        <ele>1125</ele>
        <time>2021-08-10T14:01:12.475Z</time>
      </trkpt>
      <trkpt lat="46.89065" lon="8.55574">
        <ele>1125</ele>
        <time>2021-08-10T14:01:13.475Z</time>
      </trkpt>
      <trkpt lat="46.89063" lon="8.55573">
        <ele>1126</ele>
        <time>2021-08-10T14:01:14.475Z</time>
      </trkpt>
      <trkpt lat="46.89062" lon="8.55572">
        <ele>1126</ele>
        <time>2021-08-10T14:01:15.475Z</time>
      </trkpt>
      <trkpt lat="46.89061" lon="8.5557">
        <ele>1126</ele>
        <time>2021-08-10T14:01:16.475Z</time>
      </trkpt>
      <trkpt lat="46.89061" lon="8.55569">
        <ele>1126</ele>
        <time>2021-08-10T14:01:17.475Z</time>
      </trkpt>
      <trkpt lat="46.8906" lon="8.55568">
        <ele>1126</ele>
        <time>2021-08-10T14:01:18.475Z</time>
      </trkpt>
      <trkpt lat="46.89059" lon="8.55568">
        <ele>1126</ele>
        <time>2021-08-10T14:01:19.474Z</time>
      </trkpt>
      <trkpt lat="46.89058" lon="8.55568">
        <ele>1127</ele>
        <time>2021-08-10T14:01:20.474Z</time>
      </trkpt>
      <trkpt lat="46.89058" lon="8.55568">
        <ele>1127</ele>
        <time>2021-08-10T14:01:21.475Z</time>
      </trkpt>
      <trkpt lat="46.89057" lon="8.55567">
        <ele>1128</ele>
        <time>2021-08-10T14:01:22.475Z</time>
      </trkpt>
      <trkpt lat="46.89056" lon="8.55567">
        <ele>1128</ele>
        <time>2021-08-10T14:01:23.474Z</time>
      </trkpt>
      <trkpt lat="46.89055" lon="8.55565">
        <ele>1128</ele>
        <time>2021-08-10T14:01:24.475Z</time>
      </trkpt>
      <trkpt lat="46.89054" lon="8.55565">
        <ele>1128</ele>
        <time>2021-08-10T14:01:25.475Z</time>
      </trkpt>
      <trkpt lat="46.89054" lon="8.55565">
        <ele>1128</ele>
        <time>2021-08-10T14:01:26.475Z</time>
      </trkpt>
      <trkpt lat="46.89053" lon="8.55565">
        <ele>1128</ele>
        <time>2021-08-10T14:01:27.475Z</time>
      </trkpt>
      <trkpt lat="46.89052" lon="8.55565">
        <ele>1129</ele>
        <time>2021-08-10T14:01:28.475Z</time>
      </trkpt>
      <trkpt lat="46.89051" lon="8.55564">
        <ele>1129</ele>
        <time>2021-08-10T14:01:29.475Z</time>
      </trkpt>
      <trkpt lat="46.8905" lon="8.55564">
        <ele>1129</ele>
        <time>2021-08-10T14:01:30.475Z</time>
      </trkpt>
      <trkpt lat="46.89049" lon="8.55564">
        <ele>1129</ele>
        <time>2021-08-10T14:01:31.474Z</time>
      </trkpt>
      <trkpt lat="46.89049" lon="8.55563">
        <ele>1129</ele>
        <time>2021-08-10T14:01:32.474Z</time>
      </trkpt>
      <trkpt lat="46.89048" lon="8.55562">
        <ele>1130</ele>
        <time>2021-08-10T14:01:33.475Z</time>
      </trkpt>
      <trkpt lat="46.89047" lon="8.55561">
        <ele>1130</ele>
        <time>2021-08-10T14:01:34.475Z</time>
      </trkpt>
      <trkpt lat="46.89046" lon="8.55561">
        <ele>1130</ele>
        <time>2021-08-10T14:01:35.474Z</time>
      </trkpt>
      <trkpt lat="46.89046" lon="8.5556">
        <ele>1131</ele>
        <time>2021-08-10T14:01:36.475Z</time>
      </trkpt>
      <trkpt lat="46.89045" lon="8.5556">
        <ele>1131</ele>
        <time>2021-08-10T14:01:37.474Z</time>
      </trkpt>
      <trkpt lat="46.89044" lon="8.5556">
        <ele>1131</ele>
        <time>2021-08-10T14:01:38.475Z</time>
      </trkpt>
      <trkpt lat="46.89043" lon="8.5556">
        <ele>1131</ele>
        <time>2021-08-10T14:01:39.474Z</time>
      </trkpt>
      <trkpt lat="46.89042" lon="8.5556">
        <ele>1131</ele>
        <time>2021-08-10T14:01:40.474Z</time>
      </trkpt>
      <trkpt lat="46.89041" lon="8.5556">
        <ele>1132</ele>
        <time>2021-08-10T14:01:41.475Z</time>
      </trkpt>
      <trkpt lat="46.89041" lon="8.5556">
        <ele>1132</ele>
        <time>2021-08-10T14:01:42.475Z</time>
      </trkpt>
      <trkpt lat="46.8904" lon="8.5556">
        <ele>1133</ele>
        <time>2021-08-10T14:01:43.475Z</time>
      </trkpt>
      <trkpt lat="46.89039" lon="8.55561">
        <ele>1133</ele>
        <time>2021-08-10T14:01:44.474Z</time>
      </trkpt>
      <trkpt lat="46.89039" lon="8.55563">
        <ele>1134</ele>
        <time>2021-08-10T14:01:45.475Z</time>
      </trkpt>
      <trkpt lat="46.89039" lon="8.55564">
        <ele>1134</ele>
        <time>2021-08-10T14:01:46.475Z</time>
      </trkpt>
      <trkpt lat="46.89039" lon="8.55565">
        <ele>1134</ele>
        <time>2021-08-10T14:01:47.474Z</time>
      </trkpt>
      <trkpt lat="46.89039" lon="8.55566">
        <ele>1135</ele>
        <time>2021-08-10T14:01:48.475Z</time>
      </trkpt>
      <trkpt lat="46.89038" lon="8.55565">
        <ele>1135</ele>
        <time>2021-08-10T14:01:49.474Z</time>
      </trkpt>
      <trkpt lat="46.89038" lon="8.55565">
        <ele>1135</ele>
        <time>2021-08-10T14:01:50.475Z</time>
      </trkpt>
      <trkpt lat="46.89042" lon="8.55573">
        <ele>1131</ele>
        <time>2021-08-10T14:01:51.476Z</time>
      </trkpt>
      <trkpt lat="46.89042" lon="8.55573">
        <ele>1131</ele>
        <time>2021-08-10T14:01:52.476Z</time>
      </trkpt>
      <trkpt lat="46.89042" lon="8.55573">
        <ele>1132</ele>
        <time>2021-08-10T14:01:53.475Z</time>
      </trkpt>
      <trkpt lat="46.89042" lon="8.55573">
        <ele>1132</ele>
        <time>2021-08-10T14:01:54.475Z</time>
      </trkpt>
      <trkpt lat="46.89041" lon="8.55571">
        <ele>1131</ele>
        <time>2021-08-10T14:01:55.477Z</time>
      </trkpt>
      <trkpt lat="46.89041" lon="8.5557">
        <ele>1131</ele>
        <time>2021-08-10T14:01:56.476Z</time>
      </trkpt>
      <trkpt lat="46.89041" lon="8.55569">
        <ele>1131</ele>
        <time>2021-08-10T14:01:57.477Z</time>
      </trkpt>
      <trkpt lat="46.89041" lon="8.55568">
        <ele>1131</ele>
        <time>2021-08-10T14:01:58.477Z</time>
      </trkpt>
      <trkpt lat="46.89041" lon="8.55566">
        <ele>1131</ele>
        <time>2021-08-10T14:01:59.476Z</time>
      </trkpt>
      <trkpt lat="46.89041" lon="8.55565">
        <ele>1130</ele>
        <time>2021-08-10T14:02:05.583Z</time>
      </trkpt>
      <trkpt lat="46.89041" lon="8.55565">
        <ele>1130</ele>
        <time>2021-08-10T14:02:06.584Z</time>
      </trkpt>
      <trkpt lat="46.8904" lon="8.55564">
        <ele>1140</ele>
        <time>2021-08-10T14:02:07.584Z</time>
      </trkpt>
      <trkpt lat="46.8904" lon="8.55563">
        <ele>1141</ele>
        <time>2021-08-10T14:02:08.584Z</time>
      </trkpt>
      <trkpt lat="46.89039" lon="8.55562">
        <ele>1142</ele>
        <time>2021-08-10T14:02:09.584Z</time>
      </trkpt>
      <trkpt lat="46.89038" lon="8.55561">
        <ele>1143</ele>
        <time>2021-08-10T14:02:10.583Z</time>
      </trkpt>
      <trkpt lat="46.89036" lon="8.5556">
        <ele>1143</ele>
        <time>2021-08-10T14:02:11.584Z</time>
      </trkpt>
      <trkpt lat="46.89035" lon="8.55559">
        <ele>1143</ele>
        <time>2021-08-10T14:02:12.584Z</time>
      </trkpt>
      <trkpt lat="46.89034" lon="8.55559">
        <ele>1142</ele>
        <time>2021-08-10T14:02:13.583Z</time>
      </trkpt>
      <trkpt lat="46.89034" lon="8.55558">
        <ele>1142</ele>
        <time>2021-08-10T14:02:14.584Z</time>
      </trkpt>
      <trkpt lat="46.89033" lon="8.55558">
        <ele>1142</ele>
        <time>2021-08-10T14:02:15.584Z</time>
      </trkpt>
      <trkpt lat="46.89032" lon="8.55557">
        <ele>1142</ele>
        <time>2021-08-10T14:02:16.583Z</time>
      </trkpt>
      <trkpt lat="46.89031" lon="8.55556">
        <ele>1142</ele>
        <time>2021-08-10T14:02:17.584Z</time>
      </trkpt>
      <trkpt lat="46.89031" lon="8.55554">
        <ele>1142</ele>
        <time>2021-08-10T14:02:18.584Z</time>
      </trkpt>
      <trkpt lat="46.8903" lon="8.55552">
        <ele>1142</ele>
        <time>2021-08-10T14:02:19.584Z</time>
      </trkpt>
      <trkpt lat="46.89029" lon="8.55552">
        <ele>1142</ele>
        <time>2021-08-10T14:02:20.584Z</time>
      </trkpt>
      <trkpt lat="46.89028" lon="8.55551">
        <ele>1141</ele>
        <time>2021-08-10T14:02:21.584Z</time>
      </trkpt>
      <trkpt lat="46.89027" lon="8.55551">
        <ele>1141</ele>
        <time>2021-08-10T14:02:22.583Z</time>
      </trkpt>
      <trkpt lat="46.89026" lon="8.55551">
        <ele>1141</ele>
        <time>2021-08-10T14:02:23.584Z</time>
      </trkpt>
      <trkpt lat="46.89025" lon="8.5555">
        <ele>1140</ele>
        <time>2021-08-10T14:02:24.584Z</time>
      </trkpt>
      <trkpt lat="46.89025" lon="8.5555">
        <ele>1140</ele>
        <time>2021-08-10T14:02:25.584Z</time>
      </trkpt>
      <trkpt lat="46.89024" lon="8.55549">
        <ele>1139</ele>
        <time>2021-08-10T14:02:26.584Z</time>
      </trkpt>
      <trkpt lat="46.89023" lon="8.55548">
        <ele>1139</ele>
        <time>2021-08-10T14:02:27.584Z</time>
      </trkpt>
      <trkpt lat="46.89022" lon="8.55548">
        <ele>1138</ele>
        <time>2021-08-10T14:02:28.584Z</time>
      </trkpt>
      <trkpt lat="46.8902" lon="8.55547">
        <ele>1137</ele>
        <time>2021-08-10T14:02:29.584Z</time>
      </trkpt>
      <trkpt lat="46.89019" lon="8.55547">
        <ele>1136</ele>
        <time>2021-08-10T14:02:30.584Z</time>
      </trkpt>
      <trkpt lat="46.89018" lon="8.55546">
        <ele>1136</ele>
        <time>2021-08-10T14:02:31.583Z</time>
      </trkpt>
      <trkpt lat="46.89018" lon="8.55546">
        <ele>1135</ele>
        <time>2021-08-10T14:02:32.583Z</time>
      </trkpt>
      <trkpt lat="46.89017" lon="8.55545">
        <ele>1135</ele>
        <time>2021-08-10T14:02:33.584Z</time>
      </trkpt>
      <trkpt lat="46.89016" lon="8.55545">
        <ele>1135</ele>
        <time>2021-08-10T14:02:34.584Z</time>
      </trkpt>
      <trkpt lat="46.89015" lon="8.55545">
        <ele>1135</ele>
        <time>2021-08-10T14:02:35.584Z</time>
      </trkpt>
      <trkpt lat="46.89014" lon="8.55545">
        <ele>1135</ele>
        <time>2021-08-10T14:02:36.584Z</time>
      </trkpt>
      <trkpt lat="46.89014" lon="8.55544">
        <ele>1135</ele>
        <time>2021-08-10T14:02:37.584Z</time>
      </trkpt>
      <trkpt lat="46.89013" lon="8.55544">
        <ele>1134</ele>
        <time>2021-08-10T14:02:38.584Z</time>
      </trkpt>
      <trkpt lat="46.89012" lon="8.55543">
        <ele>1134</ele>
        <time>2021-08-10T14:02:39.583Z</time>
      </trkpt>
      <trkpt lat="46.89011" lon="8.55542">
        <ele>1134</ele>
        <time>2021-08-10T14:02:40.584Z</time>
      </trkpt>
      <trkpt lat="46.8901" lon="8.55542">
        <ele>1134</ele>
        <time>2021-08-10T14:02:41.584Z</time>
      </trkpt>
      <trkpt lat="46.89009" lon="8.55542">
        <ele>1134</ele>
        <time>2021-08-10T14:02:42.584Z</time>
      </trkpt>
      <trkpt lat="46.89008" lon="8.55542">
        <ele>1134</ele>
        <time>2021-08-10T14:02:43.584Z</time>
      </trkpt>
      <trkpt lat="46.89007" lon="8.55542">
        <ele>1134</ele>
        <time>2021-08-10T14:02:44.584Z</time>
      </trkpt>
      <trkpt lat="46.89006" lon="8.55541">
        <ele>1134</ele>
        <time>2021-08-10T14:02:45.583Z</time>
      </trkpt>
      <trkpt lat="46.89005" lon="8.55541">
        <ele>1134</ele>
        <time>2021-08-10T14:02:46.583Z</time>
      </trkpt>
      <trkpt lat="46.89005" lon="8.55541">
        <ele>1133</ele>
        <time>2021-08-10T14:02:47.584Z</time>
      </trkpt>
      <trkpt lat="46.89004" lon="8.5554">
        <ele>1133</ele>
        <time>2021-08-10T14:02:48.584Z</time>
      </trkpt>
      <trkpt lat="46.89003" lon="8.5554">
        <ele>1133</ele>
        <time>2021-08-10T14:02:49.584Z</time>
      </trkpt>
      <trkpt lat="46.89" lon="8.55537">
        <ele>1134</ele>
        <time>2021-08-10T14:02:50.583Z</time>
      </trkpt>
      <trkpt lat="46.88999" lon="8.55537">
        <ele>1134</ele>
        <time>2021-08-10T14:02:51.584Z</time>
      </trkpt>
      <trkpt lat="46.88999" lon="8.55537">
        <ele>1134</ele>
        <time>2021-08-10T14:02:52.583Z</time>
      </trkpt>
      <trkpt lat="46.88999" lon="8.55537">
        <ele>1134</ele>
        <time>2021-08-10T14:02:53.584Z</time>
      </trkpt>
      <trkpt lat="46.88998" lon="8.55537">
        <ele>1134</ele>
        <time>2021-08-10T14:02:56.701Z</time>
      </trkpt>
      <trkpt lat="46.88998" lon="8.55538">
        <ele>1134</ele>
        <time>2021-08-10T14:02:57.701Z</time>
      </trkpt>
      <trkpt lat="46.88998" lon="8.5554">
        <ele>1135</ele>
        <time>2021-08-10T14:02:58.704Z</time>
      </trkpt>
      <trkpt lat="46.88998" lon="8.55541">
        <ele>1136</ele>
        <time>2021-08-10T14:02:59.704Z</time>
      </trkpt>
      <trkpt lat="46.88999" lon="8.55541">
        <ele>1136</ele>
        <time>2021-08-10T14:03:00.704Z</time>
      </trkpt>
      <trkpt lat="46.88999" lon="8.55534">
        <ele>1136</ele>
        <time>2021-08-10T14:03:02.711Z</time>
      </trkpt>
      <trkpt lat="46.88998" lon="8.55534">
        <ele>1136</ele>
        <time>2021-08-10T14:03:03.711Z</time>
      </trkpt>
      <trkpt lat="46.88997" lon="8.55533">
        <ele>1135</ele>
        <time>2021-08-10T14:03:04.710Z</time>
      </trkpt>
      <trkpt lat="46.88996" lon="8.55533">
        <ele>1134</ele>
        <time>2021-08-10T14:03:05.710Z</time>
      </trkpt>
      <trkpt lat="46.88995" lon="8.55533">
        <ele>1134</ele>
        <time>2021-08-10T14:03:06.711Z</time>
      </trkpt>
      <trkpt lat="46.88994" lon="8.55533">
        <ele>1133</ele>
        <time>2021-08-10T14:03:07.711Z</time>
      </trkpt>
      <trkpt lat="46.88993" lon="8.55532">
        <ele>1133</ele>
        <time>2021-08-10T14:03:08.710Z</time>
      </trkpt>
      <trkpt lat="46.88992" lon="8.55532">
        <ele>1132</ele>
        <time>2021-08-10T14:03:09.711Z</time>
      </trkpt>
      <trkpt lat="46.88992" lon="8.55532">
        <ele>1133</ele>
        <time>2021-08-10T14:03:12.735Z</time>
      </trkpt>
      <trkpt lat="46.88992" lon="8.55532">
        <ele>1133</ele>
        <time>2021-08-10T14:03:13.736Z</time>
      </trkpt>
      <trkpt lat="46.88991" lon="8.55532">
        <ele>1133</ele>
        <time>2021-08-10T14:03:26.627Z</time>
      </trkpt>
      <trkpt lat="46.8899" lon="8.55532">
        <ele>1134</ele>
        <time>2021-08-10T14:03:27.627Z</time>
      </trkpt>
      <trkpt lat="46.88989" lon="8.55531">
        <ele>1135</ele>
        <time>2021-08-10T14:03:28.628Z</time>
      </trkpt>
      <trkpt lat="46.88988" lon="8.5553">
        <ele>1136</ele>
        <time>2021-08-10T14:03:29.627Z</time>
      </trkpt>
      <trkpt lat="46.88988" lon="8.5553">
        <ele>1137</ele>
        <time>2021-08-10T14:03:30.628Z</time>
      </trkpt>
      <trkpt lat="46.88988" lon="8.55529">
        <ele>1138</ele>
        <time>2021-08-10T14:03:31.628Z</time>
      </trkpt>
      <trkpt lat="46.88987" lon="8.55529">
        <ele>1139</ele>
        <time>2021-08-10T14:03:32.627Z</time>
      </trkpt>
      <trkpt lat="46.88987" lon="8.5553">
        <ele>1139</ele>
        <time>2021-08-10T14:03:33.627Z</time>
      </trkpt>
      <trkpt lat="46.88986" lon="8.55531">
        <ele>1139</ele>
        <time>2021-08-10T14:03:34.627Z</time>
      </trkpt>
      <trkpt lat="46.88985" lon="8.55531">
        <ele>1140</ele>
        <time>2021-08-10T14:03:35.627Z</time>
      </trkpt>
      <trkpt lat="46.88985" lon="8.55531">
        <ele>1140</ele>
        <time>2021-08-10T14:03:36.628Z</time>
      </trkpt>
      <trkpt lat="46.88984" lon="8.55531">
        <ele>1140</ele>
        <time>2021-08-10T14:03:37.628Z</time>
      </trkpt>
      <trkpt lat="46.88983" lon="8.5553">
        <ele>1140</ele>
        <time>2021-08-10T14:03:38.628Z</time>
      </trkpt>
      <trkpt lat="46.88982" lon="8.55529">
        <ele>1140</ele>
        <time>2021-08-10T14:03:39.627Z</time>
      </trkpt>
      <trkpt lat="46.88981" lon="8.55528">
        <ele>1140</ele>
        <time>2021-08-10T14:03:40.627Z</time>
      </trkpt>
      <trkpt lat="46.88981" lon="8.55527">
        <ele>1141</ele>
        <time>2021-08-10T14:03:41.628Z</time>
      </trkpt>
      <trkpt lat="46.8898" lon="8.55526">
        <ele>1141</ele>
        <time>2021-08-10T14:03:42.628Z</time>
      </trkpt>
      <trkpt lat="46.8898" lon="8.55526">
        <ele>1141</ele>
        <time>2021-08-10T14:03:43.628Z</time>
      </trkpt>
      <trkpt lat="46.88979" lon="8.55526">
        <ele>1141</ele>
        <time>2021-08-10T14:03:44.627Z</time>
      </trkpt>
      <trkpt lat="46.88978" lon="8.55526">
        <ele>1142</ele>
        <time>2021-08-10T14:03:45.627Z</time>
      </trkpt>
      <trkpt lat="46.88977" lon="8.55526">
        <ele>1142</ele>
        <time>2021-08-10T14:03:46.627Z</time>
      </trkpt>
      <trkpt lat="46.88976" lon="8.55526">
        <ele>1143</ele>
        <time>2021-08-10T14:03:47.628Z</time>
      </trkpt>
      <trkpt lat="46.88975" lon="8.55526">
        <ele>1143</ele>
        <time>2021-08-10T14:03:48.627Z</time>
      </trkpt>
      <trkpt lat="46.88974" lon="8.55525">
        <ele>1144</ele>
        <time>2021-08-10T14:03:49.628Z</time>
      </trkpt>
      <trkpt lat="46.88974" lon="8.55524">
        <ele>1144</ele>
        <time>2021-08-10T14:03:50.627Z</time>
      </trkpt>
      <trkpt lat="46.88974" lon="8.55523">
        <ele>1144</ele>
        <time>2021-08-10T14:03:51.628Z</time>
      </trkpt>
      <trkpt lat="46.88973" lon="8.55523">
        <ele>1145</ele>
        <time>2021-08-10T14:03:52.627Z</time>
      </trkpt>
      <trkpt lat="46.88974" lon="8.55523">
        <ele>1145</ele>
        <time>2021-08-10T14:03:53.627Z</time>
      </trkpt>
      <trkpt lat="46.88972" lon="8.55529">
        <ele>1147</ele>
        <time>2021-08-10T14:03:54.627Z</time>
      </trkpt>
      <trkpt lat="46.88972" lon="8.5553">
        <ele>1148</ele>
        <time>2021-08-10T14:03:55.627Z</time>
      </trkpt>
      <trkpt lat="46.88973" lon="8.55529">
        <ele>1149</ele>
        <time>2021-08-10T14:03:56.629Z</time>
      </trkpt>
      <trkpt lat="46.88973" lon="8.55529">
        <ele>1149</ele>
        <time>2021-08-10T14:03:57.628Z</time>
      </trkpt>
      <trkpt lat="46.88974" lon="8.55529">
        <ele>1149</ele>
        <time>2021-08-10T14:03:58.628Z</time>
      </trkpt>
      <trkpt lat="46.88977" lon="8.55528">
        <ele>1148</ele>
        <time>2021-08-10T14:04:02.631Z</time>
      </trkpt>
      <trkpt lat="46.88978" lon="8.55528">
        <ele>1148</ele>
        <time>2021-08-10T14:04:03.630Z</time>
      </trkpt>
      <trkpt lat="46.8898" lon="8.55536">
        <ele>1167</ele>
        <time>2021-08-10T14:04:04.630Z</time>
      </trkpt>
      <trkpt lat="46.88978" lon="8.55536">
        <ele>1167</ele>
        <time>2021-08-10T14:04:05.631Z</time>
      </trkpt>
      <trkpt lat="46.88977" lon="8.55534">
        <ele>1167</ele>
        <time>2021-08-10T14:04:06.631Z</time>
      </trkpt>
      <trkpt lat="46.88976" lon="8.55531">
        <ele>1167</ele>
        <time>2021-08-10T14:04:07.630Z</time>
      </trkpt>
      <trkpt lat="46.88975" lon="8.55529">
        <ele>1167</ele>
        <time>2021-08-10T14:04:08.630Z</time>
      </trkpt>
      <trkpt lat="46.88974" lon="8.55528">
        <ele>1166</ele>
        <time>2021-08-10T14:04:09.631Z</time>
      </trkpt>
      <trkpt lat="46.88973" lon="8.55527">
        <ele>1165</ele>
        <time>2021-08-10T14:04:10.630Z</time>
      </trkpt>
      <trkpt lat="46.88972" lon="8.55527">
        <ele>1164</ele>
        <time>2021-08-10T14:04:11.630Z</time>
      </trkpt>
      <trkpt lat="46.88971" lon="8.55526">
        <ele>1163</ele>
        <time>2021-08-10T14:04:12.631Z</time>
      </trkpt>
      <trkpt lat="46.8897" lon="8.55525">
        <ele>1163</ele>
        <time>2021-08-10T14:04:13.630Z</time>
      </trkpt>
      <trkpt lat="46.88969" lon="8.55525">
        <ele>1163</ele>
        <time>2021-08-10T14:04:14.630Z</time>
      </trkpt>
      <trkpt lat="46.88967" lon="8.55524">
        <ele>1162</ele>
        <time>2021-08-10T14:04:15.630Z</time>
      </trkpt>
      <trkpt lat="46.88967" lon="8.55523">
        <ele>1162</ele>
        <time>2021-08-10T14:04:16.631Z</time>
      </trkpt>
      <trkpt lat="46.88966" lon="8.55523">
        <ele>1162</ele>
        <time>2021-08-10T14:04:17.630Z</time>
      </trkpt>
      <trkpt lat="46.88965" lon="8.55522">
        <ele>1161</ele>
        <time>2021-08-10T14:04:18.630Z</time>
      </trkpt>
      <trkpt lat="46.88964" lon="8.55521">
        <ele>1161</ele>
        <time>2021-08-10T14:04:19.630Z</time>
      </trkpt>
      <trkpt lat="46.88963" lon="8.5552">
        <ele>1160</ele>
        <time>2021-08-10T14:04:20.631Z</time>
      </trkpt>
      <trkpt lat="46.88962" lon="8.55519">
        <ele>1160</ele>
        <time>2021-08-10T14:04:21.631Z</time>
      </trkpt>
      <trkpt lat="46.88961" lon="8.55518">
        <ele>1159</ele>
        <time>2021-08-10T14:04:22.631Z</time>
      </trkpt>
      <trkpt lat="46.8896" lon="8.55517">
        <ele>1159</ele>
        <time>2021-08-10T14:04:23.630Z</time>
      </trkpt>
      <trkpt lat="46.88959" lon="8.55516">
        <ele>1159</ele>
        <time>2021-08-10T14:04:24.630Z</time>
      </trkpt>
      <trkpt lat="46.88959" lon="8.55516">
        <ele>1158</ele>
        <time>2021-08-10T14:04:25.630Z</time>
      </trkpt>
      <trkpt lat="46.88959" lon="8.55515">
        <ele>1157</ele>
        <time>2021-08-10T14:04:26.630Z</time>
      </trkpt>
      <trkpt lat="46.88959" lon="8.55514">
        <ele>1157</ele>
        <time>2021-08-10T14:04:27.630Z</time>
      </trkpt>
      <trkpt lat="46.88959" lon="8.55512">
        <ele>1156</ele>
        <time>2021-08-10T14:04:28.630Z</time>
      </trkpt>
      <trkpt lat="46.8896" lon="8.55511">
        <ele>1156</ele>
        <time>2021-08-10T14:04:29.630Z</time>
      </trkpt>
      <trkpt lat="46.8896" lon="8.5551">
        <ele>1155</ele>
        <time>2021-08-10T14:04:30.631Z</time>
      </trkpt>
      <trkpt lat="46.88959" lon="8.5551">
        <ele>1154</ele>
        <time>2021-08-10T14:04:31.630Z</time>
      </trkpt>
      <trkpt lat="46.88959" lon="8.55511">
        <ele>1154</ele>
        <time>2021-08-10T14:04:32.630Z</time>
      </trkpt>
      <trkpt lat="46.88958" lon="8.55513">
        <ele>1152</ele>
        <time>2021-08-10T14:04:33.630Z</time>
      </trkpt>
      <trkpt lat="46.88958" lon="8.55514">
        <ele>1152</ele>
        <time>2021-08-10T14:04:34.630Z</time>
      </trkpt>
      <trkpt lat="46.88958" lon="8.55514">
        <ele>1152</ele>
        <time>2021-08-10T14:04:35.631Z</time>
      </trkpt>
      <trkpt lat="46.88958" lon="8.55514">
        <ele>1151</ele>
        <time>2021-08-10T14:04:36.631Z</time>
      </trkpt>
      <trkpt lat="46.88956" lon="8.55514">
        <ele>1150</ele>
        <time>2021-08-10T14:04:37.632Z</time>
      </trkpt>
      <trkpt lat="46.88956" lon="8.55514">
        <ele>1150</ele>
        <time>2021-08-10T14:04:38.631Z</time>
      </trkpt>
      <trkpt lat="46.88956" lon="8.55517">
        <ele>1148</ele>
        <time>2021-08-10T14:04:39.632Z</time>
      </trkpt>
      <trkpt lat="46.88957" lon="8.55517">
        <ele>1149</ele>
        <time>2021-08-10T14:04:40.631Z</time>
      </trkpt>
      <trkpt lat="46.88959" lon="8.55518">
        <ele>1153</ele>
        <time>2021-08-10T14:04:41.632Z</time>
      </trkpt>
      <trkpt lat="46.88959" lon="8.55519">
        <ele>1155</ele>
        <time>2021-08-10T14:04:42.633Z</time>
      </trkpt>
      <trkpt lat="46.88959" lon="8.55518">
        <ele>1155</ele>
        <time>2021-08-10T14:04:43.632Z</time>
      </trkpt>
      <trkpt lat="46.8896" lon="8.5552">
        <ele>1160</ele>
        <time>2021-08-10T14:04:44.633Z</time>
      </trkpt>
      <trkpt lat="46.8896" lon="8.55519">
        <ele>1160</ele>
        <time>2021-08-10T14:04:45.633Z</time>
      </trkpt>
      <trkpt lat="46.8896" lon="8.55518">
        <ele>1160</ele>
        <time>2021-08-10T14:04:46.632Z</time>
      </trkpt>
      <trkpt lat="46.8896" lon="8.55517">
        <ele>1160</ele>
        <time>2021-08-10T14:04:47.632Z</time>
      </trkpt>
      <trkpt lat="46.8896" lon="8.55517">
        <ele>1160</ele>
        <time>2021-08-10T14:04:48.633Z</time>
      </trkpt>
      <trkpt lat="46.88959" lon="8.55517">
        <ele>1159</ele>
        <time>2021-08-10T14:04:49.632Z</time>
      </trkpt>
      <trkpt lat="46.88958" lon="8.55517">
        <ele>1159</ele>
        <time>2021-08-10T14:04:50.632Z</time>
      </trkpt>
      <trkpt lat="46.88956" lon="8.55518">
        <ele>1158</ele>
        <time>2021-08-10T14:04:51.632Z</time>
      </trkpt>
      <trkpt lat="46.88954" lon="8.55518">
        <ele>1158</ele>
        <time>2021-08-10T14:04:52.632Z</time>
      </trkpt>
      <trkpt lat="46.88953" lon="8.55518">
        <ele>1157</ele>
        <time>2021-08-10T14:04:53.632Z</time>
      </trkpt>
      <trkpt lat="46.88953" lon="8.55517">
        <ele>1157</ele>
        <time>2021-08-10T14:04:54.632Z</time>
      </trkpt>
      <trkpt lat="46.88952" lon="8.55517">
        <ele>1158</ele>
        <time>2021-08-10T14:04:55.632Z</time>
      </trkpt>
      <trkpt lat="46.88952" lon="8.55517">
        <ele>1158</ele>
        <time>2021-08-10T14:04:56.633Z</time>
      </trkpt>
      <trkpt lat="46.88951" lon="8.55517">
        <ele>1158</ele>
        <time>2021-08-10T14:04:57.632Z</time>
      </trkpt>
      <trkpt lat="46.8895" lon="8.55516">
        <ele>1158</ele>
        <time>2021-08-10T14:04:58.633Z</time>
      </trkpt>
      <trkpt lat="46.88949" lon="8.55516">
        <ele>1158</ele>
        <time>2021-08-10T14:04:59.632Z</time>
      </trkpt>
      <trkpt lat="46.88948" lon="8.55516">
        <ele>1158</ele>
        <time>2021-08-10T14:05:00.633Z</time>
      </trkpt>
      <trkpt lat="46.88947" lon="8.55516">
        <ele>1158</ele>
        <time>2021-08-10T14:05:01.632Z</time>
      </trkpt>
      <trkpt lat="46.88947" lon="8.55516">
        <ele>1158</ele>
        <time>2021-08-10T14:05:02.633Z</time>
      </trkpt>
      <trkpt lat="46.88947" lon="8.55516">
        <ele>1159</ele>
        <time>2021-08-10T14:05:03.633Z</time>
      </trkpt>
      <trkpt lat="46.88945" lon="8.55517">
        <ele>1158</ele>
        <time>2021-08-10T14:05:04.632Z</time>
      </trkpt>
      <trkpt lat="46.88946" lon="8.55517">
        <ele>1158</ele>
        <time>2021-08-10T14:05:05.632Z</time>
      </trkpt>
      <trkpt lat="46.88946" lon="8.55517">
        <ele>1159</ele>
        <time>2021-08-10T14:05:07.732Z</time>
      </trkpt>
      <trkpt lat="46.88944" lon="8.55516">
        <ele>1159</ele>
        <time>2021-08-10T14:05:08.733Z</time>
      </trkpt>
      <trkpt lat="46.88944" lon="8.55516">
        <ele>1159</ele>
        <time>2021-08-10T14:05:09.733Z</time>
      </trkpt>
      <trkpt lat="46.88944" lon="8.55515">
        <ele>1159</ele>
        <time>2021-08-10T14:05:10.733Z</time>
      </trkpt>
      <trkpt lat="46.88943" lon="8.55515">
        <ele>1159</ele>
        <time>2021-08-10T14:05:11.733Z</time>
      </trkpt>
      <trkpt lat="46.88941" lon="8.55515">
        <ele>1160</ele>
        <time>2021-08-10T14:05:12.733Z</time>
      </trkpt>
      <trkpt lat="46.88941" lon="8.55515">
        <ele>1160</ele>
        <time>2021-08-10T14:05:13.733Z</time>
      </trkpt>
      <trkpt lat="46.8894" lon="8.55515">
        <ele>1161</ele>
        <time>2021-08-10T14:05:14.733Z</time>
      </trkpt>
      <trkpt lat="46.8894" lon="8.55516">
        <ele>1161</ele>
        <time>2021-08-10T14:05:15.733Z</time>
      </trkpt>
      <trkpt lat="46.8894" lon="8.55517">
        <ele>1162</ele>
        <time>2021-08-10T14:05:16.733Z</time>
      </trkpt>
      <trkpt lat="46.88939" lon="8.55517">
        <ele>1163</ele>
        <time>2021-08-10T14:05:17.734Z</time>
      </trkpt>
      <trkpt lat="46.88939" lon="8.55517">
        <ele>1164</ele>
        <time>2021-08-10T14:05:18.733Z</time>
      </trkpt>
      <trkpt lat="46.88937" lon="8.55518">
        <ele>1164</ele>
        <time>2021-08-10T14:05:19.733Z</time>
      </trkpt>
      <trkpt lat="46.88937" lon="8.55518">
        <ele>1165</ele>
        <time>2021-08-10T14:05:20.734Z</time>
      </trkpt>
      <trkpt lat="46.88936" lon="8.55519">
        <ele>1165</ele>
        <time>2021-08-10T14:05:21.734Z</time>
      </trkpt>
      <trkpt lat="46.88936" lon="8.5552">
        <ele>1165</ele>
        <time>2021-08-10T14:05:22.734Z</time>
      </trkpt>
      <trkpt lat="46.88935" lon="8.55521">
        <ele>1165</ele>
        <time>2021-08-10T14:05:23.734Z</time>
      </trkpt>
      <trkpt lat="46.88934" lon="8.55521">
        <ele>1165</ele>
        <time>2021-08-10T14:05:24.733Z</time>
      </trkpt>
      <trkpt lat="46.88933" lon="8.55522">
        <ele>1165</ele>
        <time>2021-08-10T14:05:25.734Z</time>
      </trkpt>
      <trkpt lat="46.88932" lon="8.55522">
        <ele>1165</ele>
        <time>2021-08-10T14:05:29.841Z</time>
      </trkpt>
      <trkpt lat="46.88931" lon="8.55522">
        <ele>1165</ele>
        <time>2021-08-10T14:05:30.841Z</time>
      </trkpt>
      <trkpt lat="46.8893" lon="8.55523">
        <ele>1165</ele>
        <time>2021-08-10T14:05:31.841Z</time>
      </trkpt>
      <trkpt lat="46.88928" lon="8.55523">
        <ele>1165</ele>
        <time>2021-08-10T14:05:38.646Z</time>
      </trkpt>
      <trkpt lat="46.88927" lon="8.55523">
        <ele>1165</ele>
        <time>2021-08-10T14:05:39.647Z</time>
      </trkpt>
      <trkpt lat="46.88926" lon="8.55523">
        <ele>1166</ele>
        <time>2021-08-10T14:05:40.647Z</time>
      </trkpt>
      <trkpt lat="46.88925" lon="8.55522">
        <ele>1166</ele>
        <time>2021-08-10T14:05:41.647Z</time>
      </trkpt>
      <trkpt lat="46.88924" lon="8.55522">
        <ele>1166</ele>
        <time>2021-08-10T14:05:42.646Z</time>
      </trkpt>
      <trkpt lat="46.88923" lon="8.55521">
        <ele>1166</ele>
        <time>2021-08-10T14:05:43.647Z</time>
      </trkpt>
      <trkpt lat="46.88922" lon="8.55521">
        <ele>1166</ele>
        <time>2021-08-10T14:05:44.647Z</time>
      </trkpt>
      <trkpt lat="46.8892" lon="8.55522">
        <ele>1166</ele>
        <time>2021-08-10T14:05:45.646Z</time>
      </trkpt>
      <trkpt lat="46.88918" lon="8.55522">
        <ele>1166</ele>
        <time>2021-08-10T14:05:46.646Z</time>
      </trkpt>
      <trkpt lat="46.88917" lon="8.55523">
        <ele>1165</ele>
        <time>2021-08-10T14:05:47.647Z</time>
      </trkpt>
      <trkpt lat="46.88916" lon="8.55522">
        <ele>1165</ele>
        <time>2021-08-10T14:05:48.647Z</time>
      </trkpt>
      <trkpt lat="46.88915" lon="8.55522">
        <ele>1165</ele>
        <time>2021-08-10T14:05:49.646Z</time>
      </trkpt>
      <trkpt lat="46.88914" lon="8.55522">
        <ele>1165</ele>
        <time>2021-08-10T14:05:50.647Z</time>
      </trkpt>
      <trkpt lat="46.88913" lon="8.55522">
        <ele>1166</ele>
        <time>2021-08-10T14:05:51.647Z</time>
      </trkpt>
      <trkpt lat="46.88911" lon="8.55522">
        <ele>1166</ele>
        <time>2021-08-10T14:05:52.647Z</time>
      </trkpt>
      <trkpt lat="46.88911" lon="8.55522">
        <ele>1167</ele>
        <time>2021-08-10T14:05:53.646Z</time>
      </trkpt>
      <trkpt lat="46.8891" lon="8.55522">
        <ele>1167</ele>
        <time>2021-08-10T14:05:54.646Z</time>
      </trkpt>
      <trkpt lat="46.8891" lon="8.55521">
        <ele>1167</ele>
        <time>2021-08-10T14:05:55.647Z</time>
      </trkpt>
      <trkpt lat="46.88909" lon="8.55521">
        <ele>1167</ele>
        <time>2021-08-10T14:05:56.646Z</time>
      </trkpt>
      <trkpt lat="46.88908" lon="8.55522">
        <ele>1167</ele>
        <time>2021-08-10T14:05:57.647Z</time>
      </trkpt>
      <trkpt lat="46.88907" lon="8.55522">
        <ele>1167</ele>
        <time>2021-08-10T14:05:58.646Z</time>
      </trkpt>
      <trkpt lat="46.88905" lon="8.55522">
        <ele>1167</ele>
        <time>2021-08-10T14:05:59.646Z</time>
      </trkpt>
      <trkpt lat="46.88904" lon="8.55522">
        <ele>1167</ele>
        <time>2021-08-10T14:06:00.646Z</time>
      </trkpt>
      <trkpt lat="46.88903" lon="8.55522">
        <ele>1167</ele>
        <time>2021-08-10T14:06:01.646Z</time>
      </trkpt>
      <trkpt lat="46.88902" lon="8.55521">
        <ele>1167</ele>
        <time>2021-08-10T14:06:02.646Z</time>
      </trkpt>
      <trkpt lat="46.88901" lon="8.55521">
        <ele>1167</ele>
        <time>2021-08-10T14:06:03.647Z</time>
      </trkpt>
      <trkpt lat="46.889" lon="8.5552">
        <ele>1167</ele>
        <time>2021-08-10T14:06:04.646Z</time>
      </trkpt>
      <trkpt lat="46.88899" lon="8.5552">
        <ele>1167</ele>
        <time>2021-08-10T14:06:05.646Z</time>
      </trkpt>
      <trkpt lat="46.88898" lon="8.55519">
        <ele>1168</ele>
        <time>2021-08-10T14:06:06.646Z</time>
      </trkpt>
      <trkpt lat="46.88896" lon="8.55518">
        <ele>1168</ele>
        <time>2021-08-10T14:06:07.646Z</time>
      </trkpt>
      <trkpt lat="46.88895" lon="8.55518">
        <ele>1168</ele>
        <time>2021-08-10T14:06:08.646Z</time>
      </trkpt>
      <trkpt lat="46.88895" lon="8.55517">
        <ele>1168</ele>
        <time>2021-08-10T14:06:09.646Z</time>
      </trkpt>
      <trkpt lat="46.88894" lon="8.55517">
        <ele>1168</ele>
        <time>2021-08-10T14:06:10.646Z</time>
      </trkpt>
      <trkpt lat="46.88894" lon="8.55517">
        <ele>1168</ele>
        <time>2021-08-10T14:06:11.646Z</time>
      </trkpt>
      <trkpt lat="46.88892" lon="8.55517">
        <ele>1168</ele>
        <time>2021-08-10T14:06:12.646Z</time>
      </trkpt>
      <trkpt lat="46.8889" lon="8.55516">
        <ele>1169</ele>
        <time>2021-08-10T14:06:13.646Z</time>
      </trkpt>
      <trkpt lat="46.88889" lon="8.55516">
        <ele>1169</ele>
        <time>2021-08-10T14:06:14.646Z</time>
      </trkpt>
      <trkpt lat="46.88888" lon="8.55516">
        <ele>1169</ele>
        <time>2021-08-10T14:06:15.646Z</time>
      </trkpt>
      <trkpt lat="46.88887" lon="8.55515">
        <ele>1169</ele>
        <time>2021-08-10T14:06:16.646Z</time>
      </trkpt>
      <trkpt lat="46.88885" lon="8.55516">
        <ele>1169</ele>
        <time>2021-08-10T14:06:17.647Z</time>
      </trkpt>
      <trkpt lat="46.88885" lon="8.55516">
        <ele>1170</ele>
        <time>2021-08-10T14:06:18.647Z</time>
      </trkpt>
      <trkpt lat="46.88884" lon="8.55516">
        <ele>1171</ele>
        <time>2021-08-10T14:06:19.647Z</time>
      </trkpt>
      <trkpt lat="46.88883" lon="8.55516">
        <ele>1171</ele>
        <time>2021-08-10T14:06:20.647Z</time>
      </trkpt>
      <trkpt lat="46.88881" lon="8.55516">
        <ele>1172</ele>
        <time>2021-08-10T14:06:21.647Z</time>
      </trkpt>
      <trkpt lat="46.88879" lon="8.55516">
        <ele>1173</ele>
        <time>2021-08-10T14:06:22.647Z</time>
      </trkpt>
      <trkpt lat="46.88878" lon="8.55516">
        <ele>1174</ele>
        <time>2021-08-10T14:06:23.647Z</time>
      </trkpt>
      <trkpt lat="46.88877" lon="8.55516">
        <ele>1174</ele>
        <time>2021-08-10T14:06:24.647Z</time>
      </trkpt>
      <trkpt lat="46.88877" lon="8.55516">
        <ele>1175</ele>
        <time>2021-08-10T14:06:25.646Z</time>
      </trkpt>
      <trkpt lat="46.88876" lon="8.55516">
        <ele>1175</ele>
        <time>2021-08-10T14:06:26.647Z</time>
      </trkpt>
      <trkpt lat="46.88875" lon="8.55516">
        <ele>1175</ele>
        <time>2021-08-10T14:06:27.647Z</time>
      </trkpt>
      <trkpt lat="46.88874" lon="8.55516">
        <ele>1176</ele>
        <time>2021-08-10T14:06:28.647Z</time>
      </trkpt>
      <trkpt lat="46.88873" lon="8.55516">
        <ele>1176</ele>
        <time>2021-08-10T14:06:29.647Z</time>
      </trkpt>
      <trkpt lat="46.88873" lon="8.55516">
        <ele>1177</ele>
        <time>2021-08-10T14:06:30.647Z</time>
      </trkpt>
      <trkpt lat="46.88872" lon="8.55515">
        <ele>1177</ele>
        <time>2021-08-10T14:06:31.647Z</time>
      </trkpt>
      <trkpt lat="46.88871" lon="8.55515">
        <ele>1177</ele>
        <time>2021-08-10T14:06:32.646Z</time>
      </trkpt>
      <trkpt lat="46.8887" lon="8.55514">
        <ele>1177</ele>
        <time>2021-08-10T14:06:33.647Z</time>
      </trkpt>
      <trkpt lat="46.88869" lon="8.55514">
        <ele>1177</ele>
        <time>2021-08-10T14:06:34.647Z</time>
      </trkpt>
      <trkpt lat="46.88869" lon="8.55515">
        <ele>1177</ele>
        <time>2021-08-10T14:06:35.647Z</time>
      </trkpt>
      <trkpt lat="46.88869" lon="8.55515">
        <ele>1178</ele>
        <time>2021-08-10T14:06:36.647Z</time>
      </trkpt>
      <trkpt lat="46.88868" lon="8.55514">
        <ele>1178</ele>
        <time>2021-08-10T14:06:38.714Z</time>
      </trkpt>
      <trkpt lat="46.88867" lon="8.55514">
        <ele>1179</ele>
        <time>2021-08-10T14:06:39.713Z</time>
      </trkpt>
      <trkpt lat="46.88867" lon="8.55514">
        <ele>1179</ele>
        <time>2021-08-10T14:06:40.714Z</time>
      </trkpt>
      <trkpt lat="46.88867" lon="8.55513">
        <ele>1179</ele>
        <time>2021-08-10T14:06:41.714Z</time>
      </trkpt>
      <trkpt lat="46.88866" lon="8.55512">
        <ele>1180</ele>
        <time>2021-08-10T14:06:42.713Z</time>
      </trkpt>
      <trkpt lat="46.88865" lon="8.55512">
        <ele>1181</ele>
        <time>2021-08-10T14:06:43.713Z</time>
      </trkpt>
      <trkpt lat="46.88864" lon="8.55512">
        <ele>1181</ele>
        <time>2021-08-10T14:06:44.714Z</time>
      </trkpt>
      <trkpt lat="46.88863" lon="8.55512">
        <ele>1181</ele>
        <time>2021-08-10T14:06:45.714Z</time>
      </trkpt>
      <trkpt lat="46.88862" lon="8.55512">
        <ele>1181</ele>
        <time>2021-08-10T14:06:46.714Z</time>
      </trkpt>
      <trkpt lat="46.88861" lon="8.55512">
        <ele>1180</ele>
        <time>2021-08-10T14:06:47.714Z</time>
      </trkpt>
      <trkpt lat="46.8886" lon="8.55513">
        <ele>1179</ele>
        <time>2021-08-10T14:06:48.714Z</time>
      </trkpt>
      <trkpt lat="46.88859" lon="8.55513">
        <ele>1178</ele>
        <time>2021-08-10T14:06:49.713Z</time>
      </trkpt>
      <trkpt lat="46.88857" lon="8.55513">
        <ele>1178</ele>
        <time>2021-08-10T14:06:50.713Z</time>
      </trkpt>
      <trkpt lat="46.88856" lon="8.55512">
        <ele>1177</ele>
        <time>2021-08-10T14:06:51.714Z</time>
      </trkpt>
      <trkpt lat="46.88855" lon="8.55512">
        <ele>1176</ele>
        <time>2021-08-10T14:06:52.714Z</time>
      </trkpt>
      <trkpt lat="46.88853" lon="8.55511">
        <ele>1175</ele>
        <time>2021-08-10T14:06:53.714Z</time>
      </trkpt>
      <trkpt lat="46.88852" lon="8.5551">
        <ele>1175</ele>
        <time>2021-08-10T14:06:54.714Z</time>
      </trkpt>
      <trkpt lat="46.88852" lon="8.5551">
        <ele>1174</ele>
        <time>2021-08-10T14:06:55.713Z</time>
      </trkpt>
      <trkpt lat="46.88851" lon="8.55509">
        <ele>1173</ele>
        <time>2021-08-10T14:06:56.714Z</time>
      </trkpt>
      <trkpt lat="46.8885" lon="8.55509">
        <ele>1173</ele>
        <time>2021-08-10T14:06:57.714Z</time>
      </trkpt>
      <trkpt lat="46.8885" lon="8.55509">
        <ele>1173</ele>
        <time>2021-08-10T14:06:58.714Z</time>
      </trkpt>
      <trkpt lat="46.88849" lon="8.5551">
        <ele>1173</ele>
        <time>2021-08-10T14:06:59.714Z</time>
      </trkpt>
      <trkpt lat="46.88848" lon="8.5551">
        <ele>1172</ele>
        <time>2021-08-10T14:07:00.713Z</time>
      </trkpt>
      <trkpt lat="46.88846" lon="8.55511">
        <ele>1172</ele>
        <time>2021-08-10T14:07:01.713Z</time>
      </trkpt>
      <trkpt lat="46.88844" lon="8.55511">
        <ele>1172</ele>
        <time>2021-08-10T14:07:02.713Z</time>
      </trkpt>
      <trkpt lat="46.88843" lon="8.55512">
        <ele>1172</ele>
        <time>2021-08-10T14:07:03.713Z</time>
      </trkpt>
      <trkpt lat="46.88843" lon="8.55512">
        <ele>1173</ele>
        <time>2021-08-10T14:07:04.714Z</time>
      </trkpt>
      <trkpt lat="46.88842" lon="8.55512">
        <ele>1173</ele>
        <time>2021-08-10T14:07:08.855Z</time>
      </trkpt>
      <trkpt lat="46.88841" lon="8.55512">
        <ele>1173</ele>
        <time>2021-08-10T14:07:09.856Z</time>
      </trkpt>
      <trkpt lat="46.8884" lon="8.55513">
        <ele>1172</ele>
        <time>2021-08-10T14:07:10.855Z</time>
      </trkpt>
      <trkpt lat="46.88839" lon="8.55513">
        <ele>1172</ele>
        <time>2021-08-10T14:07:11.856Z</time>
      </trkpt>
      <trkpt lat="46.88838" lon="8.55513">
        <ele>1172</ele>
        <time>2021-08-10T14:07:27.002Z</time>
      </trkpt>
      <trkpt lat="46.88837" lon="8.55513">
        <ele>1173</ele>
        <time>2021-08-10T14:07:28.002Z</time>
      </trkpt>
      <trkpt lat="46.88836" lon="8.55513">
        <ele>1173</ele>
        <time>2021-08-10T14:07:32.866Z</time>
      </trkpt>
      <trkpt lat="46.88835" lon="8.55513">
        <ele>1174</ele>
        <time>2021-08-10T14:07:33.866Z</time>
      </trkpt>
      <trkpt lat="46.88833" lon="8.55513">
        <ele>1174</ele>
        <time>2021-08-10T14:07:34.866Z</time>
      </trkpt>
      <trkpt lat="46.88831" lon="8.55514">
        <ele>1175</ele>
        <time>2021-08-10T14:07:35.866Z</time>
      </trkpt>
      <trkpt lat="46.8883" lon="8.55514">
        <ele>1175</ele>
        <time>2021-08-10T14:07:36.866Z</time>
      </trkpt>
      <trkpt lat="46.8883" lon="8.55514">
        <ele>1175</ele>
        <time>2021-08-10T14:07:37.866Z</time>
      </trkpt>
      <trkpt lat="46.88829" lon="8.55515">
        <ele>1176</ele>
        <time>2021-08-10T14:07:38.866Z</time>
      </trkpt>
      <trkpt lat="46.88828" lon="8.55515">
        <ele>1176</ele>
        <time>2021-08-10T14:07:39.866Z</time>
      </trkpt>
      <trkpt lat="46.88827" lon="8.55515">
        <ele>1175</ele>
        <time>2021-08-10T14:07:40.866Z</time>
      </trkpt>
      <trkpt lat="46.88826" lon="8.55516">
        <ele>1175</ele>
        <time>2021-08-10T14:07:41.866Z</time>
      </trkpt>
      <trkpt lat="46.88826" lon="8.55517">
        <ele>1175</ele>
        <time>2021-08-10T14:07:42.866Z</time>
      </trkpt>
      <trkpt lat="46.88825" lon="8.55518">
        <ele>1174</ele>
        <time>2021-08-10T14:07:43.866Z</time>
      </trkpt>
      <trkpt lat="46.88825" lon="8.55518">
        <ele>1174</ele>
        <time>2021-08-10T14:07:44.866Z</time>
      </trkpt>
      <trkpt lat="46.88824" lon="8.55519">
        <ele>1174</ele>
        <time>2021-08-10T14:07:45.866Z</time>
      </trkpt>
      <trkpt lat="46.88823" lon="8.55519">
        <ele>1173</ele>
        <time>2021-08-10T14:07:46.867Z</time>
      </trkpt>
      <trkpt lat="46.88823" lon="8.55519">
        <ele>1173</ele>
        <time>2021-08-10T14:07:47.866Z</time>
      </trkpt>
      <trkpt lat="46.88822" lon="8.55518">
        <ele>1172</ele>
        <time>2021-08-10T14:07:48.866Z</time>
      </trkpt>
      <trkpt lat="46.88822" lon="8.55519">
        <ele>1171</ele>
        <time>2021-08-10T14:07:52.969Z</time>
      </trkpt>
      <trkpt lat="46.88821" lon="8.55519">
        <ele>1171</ele>
        <time>2021-08-10T14:07:53.968Z</time>
      </trkpt>
      <trkpt lat="46.8882" lon="8.5552">
        <ele>1170</ele>
        <time>2021-08-10T14:07:54.969Z</time>
      </trkpt>
      <trkpt lat="46.8882" lon="8.55521">
        <ele>1170</ele>
        <time>2021-08-10T14:07:55.969Z</time>
      </trkpt>
      <trkpt lat="46.8882" lon="8.55522">
        <ele>1169</ele>
        <time>2021-08-10T14:07:56.969Z</time>
      </trkpt>
      <trkpt lat="46.88819" lon="8.55523">
        <ele>1169</ele>
        <time>2021-08-10T14:07:57.969Z</time>
      </trkpt>
      <trkpt lat="46.88818" lon="8.55524">
        <ele>1169</ele>
        <time>2021-08-10T14:07:58.969Z</time>
      </trkpt>
      <trkpt lat="46.88816" lon="8.55525">
        <ele>1169</ele>
        <time>2021-08-10T14:07:59.969Z</time>
      </trkpt>
      <trkpt lat="46.88815" lon="8.55526">
        <ele>1169</ele>
        <time>2021-08-10T14:08:00.969Z</time>
      </trkpt>
      <trkpt lat="46.88813" lon="8.55526">
        <ele>1169</ele>
        <time>2021-08-10T14:08:01.969Z</time>
      </trkpt>
      <trkpt lat="46.88812" lon="8.55526">
        <ele>1169</ele>
        <time>2021-08-10T14:08:02.969Z</time>
      </trkpt>
      <trkpt lat="46.8881" lon="8.55526">
        <ele>1169</ele>
        <time>2021-08-10T14:08:03.968Z</time>
      </trkpt>
      <trkpt lat="46.88809" lon="8.55527">
        <ele>1169</ele>
        <time>2021-08-10T14:08:04.968Z</time>
      </trkpt>
      <trkpt lat="46.88809" lon="8.55528">
        <ele>1169</ele>
        <time>2021-08-10T14:08:05.969Z</time>
      </trkpt>
      <trkpt lat="46.88808" lon="8.55528">
        <ele>1169</ele>
        <time>2021-08-10T14:08:06.969Z</time>
      </trkpt>
      <trkpt lat="46.88807" lon="8.55529">
        <ele>1170</ele>
        <time>2021-08-10T14:08:07.969Z</time>
      </trkpt>
      <trkpt lat="46.88806" lon="8.55529">
        <ele>1170</ele>
        <time>2021-08-10T14:08:08.968Z</time>
      </trkpt>
      <trkpt lat="46.88804" lon="8.5553">
        <ele>1171</ele>
        <time>2021-08-10T14:08:09.969Z</time>
      </trkpt>
      <trkpt lat="46.88803" lon="8.5553">
        <ele>1171</ele>
        <time>2021-08-10T14:08:10.968Z</time>
      </trkpt>
      <trkpt lat="46.88802" lon="8.55531">
        <ele>1171</ele>
        <time>2021-08-10T14:08:11.968Z</time>
      </trkpt>
      <trkpt lat="46.88801" lon="8.55532">
        <ele>1171</ele>
        <time>2021-08-10T14:08:12.968Z</time>
      </trkpt>
      <trkpt lat="46.888" lon="8.55532">
        <ele>1172</ele>
        <time>2021-08-10T14:08:13.969Z</time>
      </trkpt>
      <trkpt lat="46.88799" lon="8.55532">
        <ele>1172</ele>
        <time>2021-08-10T14:08:14.969Z</time>
      </trkpt>
      <trkpt lat="46.88798" lon="8.55532">
        <ele>1172</ele>
        <time>2021-08-10T14:08:15.969Z</time>
      </trkpt>
      <trkpt lat="46.88797" lon="8.55532">
        <ele>1172</ele>
        <time>2021-08-10T14:08:16.969Z</time>
      </trkpt>
      <trkpt lat="46.88796" lon="8.55532">
        <ele>1172</ele>
        <time>2021-08-10T14:08:17.969Z</time>
      </trkpt>
      <trkpt lat="46.88795" lon="8.55532">
        <ele>1172</ele>
        <time>2021-08-10T14:08:18.969Z</time>
      </trkpt>
      <trkpt lat="46.88794" lon="8.55533">
        <ele>1173</ele>
        <time>2021-08-10T14:08:19.968Z</time>
      </trkpt>
      <trkpt lat="46.88794" lon="8.55533">
        <ele>1174</ele>
        <time>2021-08-10T14:08:20.969Z</time>
      </trkpt>
      <trkpt lat="46.88794" lon="8.55534">
        <ele>1174</ele>
        <time>2021-08-10T14:08:21.969Z</time>
      </trkpt>
      <trkpt lat="46.88793" lon="8.55534">
        <ele>1175</ele>
        <time>2021-08-10T14:08:22.969Z</time>
      </trkpt>
      <trkpt lat="46.88792" lon="8.55534">
        <ele>1175</ele>
        <time>2021-08-10T14:08:23.969Z</time>
      </trkpt>
      <trkpt lat="46.88791" lon="8.55534">
        <ele>1176</ele>
        <time>2021-08-10T14:08:24.968Z</time>
      </trkpt>
      <trkpt lat="46.8879" lon="8.55535">
        <ele>1176</ele>
        <time>2021-08-10T14:08:25.969Z</time>
      </trkpt>
      <trkpt lat="46.8879" lon="8.55535">
        <ele>1177</ele>
        <time>2021-08-10T14:08:26.969Z</time>
      </trkpt>
      <trkpt lat="46.88789" lon="8.55535">
        <ele>1178</ele>
        <time>2021-08-10T14:08:29.001Z</time>
      </trkpt>
      <trkpt lat="46.88789" lon="8.55536">
        <ele>1178</ele>
        <time>2021-08-10T14:08:30.002Z</time>
      </trkpt>
      <trkpt lat="46.88788" lon="8.55535">
        <ele>1179</ele>
        <time>2021-08-10T14:08:31.001Z</time>
      </trkpt>
      <trkpt lat="46.88788" lon="8.55536">
        <ele>1180</ele>
        <time>2021-08-10T14:08:32.001Z</time>
      </trkpt>
      <trkpt lat="46.88787" lon="8.55538">
        <ele>1181</ele>
        <time>2021-08-10T14:08:33.002Z</time>
      </trkpt>
      <trkpt lat="46.88787" lon="8.55539">
        <ele>1181</ele>
        <time>2021-08-10T14:08:34.002Z</time>
      </trkpt>
      <trkpt lat="46.88787" lon="8.55539">
        <ele>1182</ele>
        <time>2021-08-10T14:08:35.002Z</time>
      </trkpt>
      <trkpt lat="46.88786" lon="8.5554">
        <ele>1183</ele>
        <time>2021-08-10T14:08:36.002Z</time>
      </trkpt>
      <trkpt lat="46.88785" lon="8.5554">
        <ele>1184</ele>
        <time>2021-08-10T14:08:37.001Z</time>
      </trkpt>
      <trkpt lat="46.88784" lon="8.55541">
        <ele>1185</ele>
        <time>2021-08-10T14:08:38.002Z</time>
      </trkpt>
      <trkpt lat="46.88782" lon="8.55543">
        <ele>1186</ele>
        <time>2021-08-10T14:08:39.002Z</time>
      </trkpt>
      <trkpt lat="46.88781" lon="8.55544">
        <ele>1186</ele>
        <time>2021-08-10T14:08:41.107Z</time>
      </trkpt>
      <trkpt lat="46.88781" lon="8.55544">
        <ele>1187</ele>
        <time>2021-08-10T14:08:42.107Z</time>
      </trkpt>
      <trkpt lat="46.88779" lon="8.55545">
        <ele>1187</ele>
        <time>2021-08-10T14:08:43.107Z</time>
      </trkpt>
      <trkpt lat="46.88778" lon="8.55545">
        <ele>1187</ele>
        <time>2021-08-10T14:08:44.106Z</time>
      </trkpt>
      <trkpt lat="46.88777" lon="8.55545">
        <ele>1187</ele>
        <time>2021-08-10T14:08:45.106Z</time>
      </trkpt>
      <trkpt lat="46.88777" lon="8.55545">
        <ele>1187</ele>
        <time>2021-08-10T14:08:46.106Z</time>
      </trkpt>
      <trkpt lat="46.88777" lon="8.55544">
        <ele>1187</ele>
        <time>2021-08-10T14:08:47.107Z</time>
      </trkpt>
      <trkpt lat="46.88776" lon="8.55544">
        <ele>1187</ele>
        <time>2021-08-10T14:08:48.107Z</time>
      </trkpt>
      <trkpt lat="46.88775" lon="8.55544">
        <ele>1187</ele>
        <time>2021-08-10T14:08:49.107Z</time>
      </trkpt>
      <trkpt lat="46.88774" lon="8.55545">
        <ele>1187</ele>
        <time>2021-08-10T14:08:50.107Z</time>
      </trkpt>
      <trkpt lat="46.88774" lon="8.55545">
        <ele>1187</ele>
        <time>2021-08-10T14:08:51.107Z</time>
      </trkpt>
      <trkpt lat="46.88773" lon="8.55545">
        <ele>1186</ele>
        <time>2021-08-10T14:08:52.106Z</time>
      </trkpt>
      <trkpt lat="46.88772" lon="8.55545">
        <ele>1186</ele>
        <time>2021-08-10T14:08:53.107Z</time>
      </trkpt>
      <trkpt lat="46.88771" lon="8.55546">
        <ele>1185</ele>
        <time>2021-08-10T14:08:54.106Z</time>
      </trkpt>
      <trkpt lat="46.8877" lon="8.55546">
        <ele>1184</ele>
        <time>2021-08-10T14:08:55.107Z</time>
      </trkpt>
      <trkpt lat="46.88769" lon="8.55546">
        <ele>1184</ele>
        <time>2021-08-10T14:08:56.107Z</time>
      </trkpt>
      <trkpt lat="46.88768" lon="8.55546">
        <ele>1183</ele>
        <time>2021-08-10T14:08:57.107Z</time>
      </trkpt>
      <trkpt lat="46.88767" lon="8.55545">
        <ele>1183</ele>
        <time>2021-08-10T14:08:58.106Z</time>
      </trkpt>
      <trkpt lat="46.88766" lon="8.55544">
        <ele>1183</ele>
        <time>2021-08-10T14:08:59.106Z</time>
      </trkpt>
      <trkpt lat="46.88764" lon="8.55544">
        <ele>1183</ele>
        <time>2021-08-10T14:09:00.107Z</time>
      </trkpt>
      <trkpt lat="46.88763" lon="8.55543">
        <ele>1183</ele>
        <time>2021-08-10T14:09:01.107Z</time>
      </trkpt>
      <trkpt lat="46.88762" lon="8.55543">
        <ele>1182</ele>
        <time>2021-08-10T14:09:02.107Z</time>
      </trkpt>
      <trkpt lat="46.88762" lon="8.55543">
        <ele>1182</ele>
        <time>2021-08-10T14:09:03.106Z</time>
      </trkpt>
      <trkpt lat="46.88761" lon="8.55543">
        <ele>1182</ele>
        <time>2021-08-10T14:09:04.107Z</time>
      </trkpt>
      <trkpt lat="46.8876" lon="8.55543">
        <ele>1182</ele>
        <time>2021-08-10T14:09:05.107Z</time>
      </trkpt>
      <trkpt lat="46.8876" lon="8.55542">
        <ele>1183</ele>
        <time>2021-08-10T14:09:06.106Z</time>
      </trkpt>
      <trkpt lat="46.88759" lon="8.55542">
        <ele>1183</ele>
        <time>2021-08-10T14:09:07.107Z</time>
      </trkpt>
      <trkpt lat="46.88758" lon="8.55542">
        <ele>1183</ele>
        <time>2021-08-10T14:09:08.107Z</time>
      </trkpt>
      <trkpt lat="46.88758" lon="8.55542">
        <ele>1184</ele>
        <time>2021-08-10T14:09:09.106Z</time>
      </trkpt>
      <trkpt lat="46.88757" lon="8.55541">
        <ele>1184</ele>
        <time>2021-08-10T14:09:10.107Z</time>
      </trkpt>
      <trkpt lat="46.88757" lon="8.55541">
        <ele>1184</ele>
        <time>2021-08-10T14:09:11.106Z</time>
      </trkpt>
      <trkpt lat="46.88756" lon="8.5554">
        <ele>1185</ele>
        <time>2021-08-10T14:09:12.106Z</time>
      </trkpt>
      <trkpt lat="46.88756" lon="8.55539">
        <ele>1185</ele>
        <time>2021-08-10T14:09:13.107Z</time>
      </trkpt>
      <trkpt lat="46.88755" lon="8.55538">
        <ele>1185</ele>
        <time>2021-08-10T14:09:14.107Z</time>
      </trkpt>
      <trkpt lat="46.88755" lon="8.55537">
        <ele>1186</ele>
        <time>2021-08-10T14:09:15.106Z</time>
      </trkpt>
      <trkpt lat="46.88752" lon="8.55535">
        <ele>1186</ele>
        <time>2021-08-10T14:09:16.107Z</time>
      </trkpt>
      <trkpt lat="46.8875" lon="8.55535">
        <ele>1186</ele>
        <time>2021-08-10T14:09:17.106Z</time>
      </trkpt>
      <trkpt lat="46.88749" lon="8.55534">
        <ele>1186</ele>
        <time>2021-08-10T14:09:18.106Z</time>
      </trkpt>
      <trkpt lat="46.88747" lon="8.55534">
        <ele>1187</ele>
        <time>2021-08-10T14:09:19.106Z</time>
      </trkpt>
      <trkpt lat="46.88746" lon="8.55534">
        <ele>1187</ele>
        <time>2021-08-10T14:09:20.106Z</time>
      </trkpt>
      <trkpt lat="46.88745" lon="8.55533">
        <ele>1187</ele>
        <time>2021-08-10T14:09:21.107Z</time>
      </trkpt>
      <trkpt lat="46.88744" lon="8.55532">
        <ele>1187</ele>
        <time>2021-08-10T14:09:22.107Z</time>
      </trkpt>
      <trkpt lat="46.88742" lon="8.55532">
        <ele>1188</ele>
        <time>2021-08-10T14:09:23.107Z</time>
      </trkpt>
      <trkpt lat="46.88741" lon="8.55533">
        <ele>1188</ele>
        <time>2021-08-10T14:09:24.107Z</time>
      </trkpt>
      <trkpt lat="46.88739" lon="8.55534">
        <ele>1188</ele>
        <time>2021-08-10T14:09:25.107Z</time>
      </trkpt>
      <trkpt lat="46.88738" lon="8.55534">
        <ele>1188</ele>
        <time>2021-08-10T14:09:26.107Z</time>
      </trkpt>
      <trkpt lat="46.88737" lon="8.55534">
        <ele>1188</ele>
        <time>2021-08-10T14:09:32.211Z</time>
      </trkpt>
      <trkpt lat="46.88735" lon="8.55533">
        <ele>1189</ele>
        <time>2021-08-10T14:09:33.211Z</time>
      </trkpt>
      <trkpt lat="46.88734" lon="8.55532">
        <ele>1188</ele>
        <time>2021-08-10T14:09:34.212Z</time>
      </trkpt>
      <trkpt lat="46.88732" lon="8.55532">
        <ele>1189</ele>
        <time>2021-08-10T14:09:35.212Z</time>
      </trkpt>
      <trkpt lat="46.8873" lon="8.55532">
        <ele>1189</ele>
        <time>2021-08-10T14:09:36.212Z</time>
      </trkpt>
      <trkpt lat="46.88728" lon="8.55531">
        <ele>1189</ele>
        <time>2021-08-10T14:09:37.212Z</time>
      </trkpt>
      <trkpt lat="46.88727" lon="8.55531">
        <ele>1189</ele>
        <time>2021-08-10T14:09:38.212Z</time>
      </trkpt>
      <trkpt lat="46.88726" lon="8.5553">
        <ele>1189</ele>
        <time>2021-08-10T14:09:39.211Z</time>
      </trkpt>
      <trkpt lat="46.88725" lon="8.55528">
        <ele>1190</ele>
        <time>2021-08-10T14:09:40.212Z</time>
      </trkpt>
      <trkpt lat="46.88724" lon="8.55527">
        <ele>1190</ele>
        <time>2021-08-10T14:09:41.212Z</time>
      </trkpt>
      <trkpt lat="46.88724" lon="8.55526">
        <ele>1191</ele>
        <time>2021-08-10T14:09:42.212Z</time>
      </trkpt>
      <trkpt lat="46.88724" lon="8.55525">
        <ele>1191</ele>
        <time>2021-08-10T14:09:43.211Z</time>
      </trkpt>
      <trkpt lat="46.88723" lon="8.55524">
        <ele>1192</ele>
        <time>2021-08-10T14:09:44.212Z</time>
      </trkpt>
      <trkpt lat="46.88722" lon="8.55524">
        <ele>1192</ele>
        <time>2021-08-10T14:09:45.212Z</time>
      </trkpt>
      <trkpt lat="46.88722" lon="8.55524">
        <ele>1192</ele>
        <time>2021-08-10T14:09:46.211Z</time>
      </trkpt>
      <trkpt lat="46.88721" lon="8.55523">
        <ele>1192</ele>
        <time>2021-08-10T14:09:47.212Z</time>
      </trkpt>
      <trkpt lat="46.88721" lon="8.55523">
        <ele>1193</ele>
        <time>2021-08-10T14:09:48.212Z</time>
      </trkpt>
      <trkpt lat="46.8872" lon="8.55523">
        <ele>1193</ele>
        <time>2021-08-10T14:09:49.212Z</time>
      </trkpt>
      <trkpt lat="46.88719" lon="8.55522">
        <ele>1193</ele>
        <time>2021-08-10T14:09:50.212Z</time>
      </trkpt>
      <trkpt lat="46.88718" lon="8.55522">
        <ele>1193</ele>
        <time>2021-08-10T14:09:51.212Z</time>
      </trkpt>
      <trkpt lat="46.88718" lon="8.55522">
        <ele>1193</ele>
        <time>2021-08-10T14:09:52.212Z</time>
      </trkpt>
      <trkpt lat="46.88717" lon="8.55521">
        <ele>1193</ele>
        <time>2021-08-10T14:09:53.212Z</time>
      </trkpt>
      <trkpt lat="46.88718" lon="8.55521">
        <ele>1192</ele>
        <time>2021-08-10T14:09:54.211Z</time>
      </trkpt>
      <trkpt lat="46.88719" lon="8.55521">
        <ele>1191</ele>
        <time>2021-08-10T14:09:55.211Z</time>
      </trkpt>
      <trkpt lat="46.88719" lon="8.55521">
        <ele>1191</ele>
        <time>2021-08-10T14:09:56.211Z</time>
      </trkpt>
      <trkpt lat="46.8872" lon="8.55521">
        <ele>1189</ele>
        <time>2021-08-10T14:09:57.213Z</time>
      </trkpt>
      <trkpt lat="46.88721" lon="8.55521">
        <ele>1189</ele>
        <time>2021-08-10T14:09:58.213Z</time>
      </trkpt>
      <trkpt lat="46.88726" lon="8.55522">
        <ele>1185</ele>
        <time>2021-08-10T14:09:59.213Z</time>
      </trkpt>
      <trkpt lat="46.88728" lon="8.55523">
        <ele>1185</ele>
        <time>2021-08-10T14:10:00.212Z</time>
      </trkpt>
      <trkpt lat="46.88729" lon="8.55523">
        <ele>1185</ele>
        <time>2021-08-10T14:10:01.212Z</time>
      </trkpt>
      <trkpt lat="46.88731" lon="8.55523">
        <ele>1184</ele>
        <time>2021-08-10T14:10:07.230Z</time>
      </trkpt>
      <trkpt lat="46.88731" lon="8.55522">
        <ele>1184</ele>
        <time>2021-08-10T14:10:08.230Z</time>
      </trkpt>
      <trkpt lat="46.8873" lon="8.55522">
        <ele>1184</ele>
        <time>2021-08-10T14:10:09.230Z</time>
      </trkpt>
      <trkpt lat="46.8873" lon="8.55521">
        <ele>1184</ele>
        <time>2021-08-10T14:10:10.230Z</time>
      </trkpt>
      <trkpt lat="46.88729" lon="8.5552">
        <ele>1184</ele>
        <time>2021-08-10T14:10:11.230Z</time>
      </trkpt>
      <trkpt lat="46.88728" lon="8.55519">
        <ele>1184</ele>
        <time>2021-08-10T14:10:12.230Z</time>
      </trkpt>
      <trkpt lat="46.88728" lon="8.55519">
        <ele>1184</ele>
        <time>2021-08-10T14:10:13.231Z</time>
      </trkpt>
      <trkpt lat="46.88727" lon="8.55519">
        <ele>1184</ele>
        <time>2021-08-10T14:10:14.230Z</time>
      </trkpt>
      <trkpt lat="46.88727" lon="8.55519">
        <ele>1184</ele>
        <time>2021-08-10T14:10:15.231Z</time>
      </trkpt>
      <trkpt lat="46.88726" lon="8.55519">
        <ele>1184</ele>
        <time>2021-08-10T14:10:16.231Z</time>
      </trkpt>
      <trkpt lat="46.88725" lon="8.55519">
        <ele>1184</ele>
        <time>2021-08-10T14:10:17.231Z</time>
      </trkpt>
      <trkpt lat="46.88724" lon="8.55518">
        <ele>1184</ele>
        <time>2021-08-10T14:10:18.230Z</time>
      </trkpt>
      <trkpt lat="46.88724" lon="8.55518">
        <ele>1184</ele>
        <time>2021-08-10T14:10:19.231Z</time>
      </trkpt>
      <trkpt lat="46.88724" lon="8.55518">
        <ele>1184</ele>
        <time>2021-08-10T14:10:20.230Z</time>
      </trkpt>
      <trkpt lat="46.88724" lon="8.55517">
        <ele>1184</ele>
        <time>2021-08-10T14:10:21.231Z</time>
      </trkpt>
      <trkpt lat="46.88723" lon="8.55517">
        <ele>1185</ele>
        <time>2021-08-10T14:10:22.230Z</time>
      </trkpt>
      <trkpt lat="46.88723" lon="8.55516">
        <ele>1185</ele>
        <time>2021-08-10T14:10:23.231Z</time>
      </trkpt>
      <trkpt lat="46.88721" lon="8.55514">
        <ele>1185</ele>
        <time>2021-08-10T14:10:29.374Z</time>
      </trkpt>
      <trkpt lat="46.88721" lon="8.55513">
        <ele>1186</ele>
        <time>2021-08-10T14:10:38.268Z</time>
      </trkpt>
      <trkpt lat="46.8872" lon="8.55512">
        <ele>1186</ele>
        <time>2021-08-10T14:10:39.268Z</time>
      </trkpt>
      <trkpt lat="46.8872" lon="8.55511">
        <ele>1187</ele>
        <time>2021-08-10T14:10:40.267Z</time>
      </trkpt>
      <trkpt lat="46.8872" lon="8.55509">
        <ele>1187</ele>
        <time>2021-08-10T14:10:41.268Z</time>
      </trkpt>
      <trkpt lat="46.88719" lon="8.55508">
        <ele>1188</ele>
        <time>2021-08-10T14:10:42.268Z</time>
      </trkpt>
      <trkpt lat="46.88718" lon="8.55508">
        <ele>1188</ele>
        <time>2021-08-10T14:10:43.268Z</time>
      </trkpt>
      <trkpt lat="46.88718" lon="8.55508">
        <ele>1189</ele>
        <time>2021-08-10T14:10:44.268Z</time>
      </trkpt>
      <trkpt lat="46.88717" lon="8.55507">
        <ele>1189</ele>
        <time>2021-08-10T14:10:45.268Z</time>
      </trkpt>
      <trkpt lat="46.88716" lon="8.55506">
        <ele>1190</ele>
        <time>2021-08-10T14:10:46.268Z</time>
      </trkpt>
      <trkpt lat="46.88716" lon="8.55505">
        <ele>1190</ele>
        <time>2021-08-10T14:10:47.268Z</time>
      </trkpt>
      <trkpt lat="46.88714" lon="8.55503">
        <ele>1191</ele>
        <time>2021-08-10T14:10:48.268Z</time>
      </trkpt>
      <trkpt lat="46.88713" lon="8.55502">
        <ele>1191</ele>
        <time>2021-08-10T14:10:49.267Z</time>
      </trkpt>
      <trkpt lat="46.88711" lon="8.55501">
        <ele>1192</ele>
        <time>2021-08-10T14:10:50.268Z</time>
      </trkpt>
      <trkpt lat="46.88711" lon="8.555">
        <ele>1192</ele>
        <time>2021-08-10T14:10:51.267Z</time>
      </trkpt>
      <trkpt lat="46.8871" lon="8.55499">
        <ele>1192</ele>
        <time>2021-08-10T14:10:52.267Z</time>
      </trkpt>
      <trkpt lat="46.8871" lon="8.55498">
        <ele>1192</ele>
        <time>2021-08-10T14:10:53.268Z</time>
      </trkpt>
      <trkpt lat="46.88709" lon="8.55497">
        <ele>1192</ele>
        <time>2021-08-10T14:10:54.267Z</time>
      </trkpt>
      <trkpt lat="46.88709" lon="8.55496">
        <ele>1191</ele>
        <time>2021-08-10T14:10:55.268Z</time>
      </trkpt>
      <trkpt lat="46.88707" lon="8.55496">
        <ele>1191</ele>
        <time>2021-08-10T14:10:56.268Z</time>
      </trkpt>
      <trkpt lat="46.88707" lon="8.55495">
        <ele>1191</ele>
        <time>2021-08-10T14:10:57.267Z</time>
      </trkpt>
      <trkpt lat="46.88706" lon="8.55494">
        <ele>1191</ele>
        <time>2021-08-10T14:10:58.267Z</time>
      </trkpt>
      <trkpt lat="46.88706" lon="8.55493">
        <ele>1190</ele>
        <time>2021-08-10T14:10:59.268Z</time>
      </trkpt>
      <trkpt lat="46.88706" lon="8.55493">
        <ele>1190</ele>
        <time>2021-08-10T14:11:00.268Z</time>
      </trkpt>
      <trkpt lat="46.88705" lon="8.55492">
        <ele>1190</ele>
        <time>2021-08-10T14:11:01.267Z</time>
      </trkpt>
      <trkpt lat="46.88704" lon="8.55491">
        <ele>1190</ele>
        <time>2021-08-10T14:11:02.267Z</time>
      </trkpt>
      <trkpt lat="46.88704" lon="8.55491">
        <ele>1190</ele>
        <time>2021-08-10T14:11:03.268Z</time>
      </trkpt>
      <trkpt lat="46.88703" lon="8.5549">
        <ele>1190</ele>
        <time>2021-08-10T14:11:04.267Z</time>
      </trkpt>
      <trkpt lat="46.88702" lon="8.5549">
        <ele>1190</ele>
        <time>2021-08-10T14:11:05.268Z</time>
      </trkpt>
      <trkpt lat="46.88701" lon="8.5549">
        <ele>1190</ele>
        <time>2021-08-10T14:11:06.268Z</time>
      </trkpt>
      <trkpt lat="46.88701" lon="8.5549">
        <ele>1191</ele>
        <time>2021-08-10T14:11:07.267Z</time>
      </trkpt>
      <trkpt lat="46.887" lon="8.5549">
        <ele>1191</ele>
        <time>2021-08-10T14:11:08.268Z</time>
      </trkpt>
      <trkpt lat="46.88699" lon="8.5549">
        <ele>1192</ele>
        <time>2021-08-10T14:11:09.268Z</time>
      </trkpt>
      <trkpt lat="46.88699" lon="8.55489">
        <ele>1193</ele>
        <time>2021-08-10T14:11:10.267Z</time>
      </trkpt>
      <trkpt lat="46.88698" lon="8.55489">
        <ele>1193</ele>
        <time>2021-08-10T14:11:11.267Z</time>
      </trkpt>
      <trkpt lat="46.88698" lon="8.55488">
        <ele>1194</ele>
        <time>2021-08-10T14:11:12.267Z</time>
      </trkpt>
      <trkpt lat="46.88697" lon="8.55486">
        <ele>1194</ele>
        <time>2021-08-10T14:11:13.267Z</time>
      </trkpt>
      <trkpt lat="46.88697" lon="8.55485">
        <ele>1194</ele>
        <time>2021-08-10T14:11:14.267Z</time>
      </trkpt>
      <trkpt lat="46.88696" lon="8.55484">
        <ele>1194</ele>
        <time>2021-08-10T14:11:15.267Z</time>
      </trkpt>
      <trkpt lat="46.88695" lon="8.55484">
        <ele>1195</ele>
        <time>2021-08-10T14:11:16.267Z</time>
      </trkpt>
      <trkpt lat="46.88695" lon="8.55483">
        <ele>1196</ele>
        <time>2021-08-10T14:11:17.268Z</time>
      </trkpt>
      <trkpt lat="46.88695" lon="8.55482">
        <ele>1196</ele>
        <time>2021-08-10T14:11:18.267Z</time>
      </trkpt>
      <trkpt lat="46.88695" lon="8.55481">
        <ele>1197</ele>
        <time>2021-08-10T14:11:19.267Z</time>
      </trkpt>
      <trkpt lat="46.88694" lon="8.5548">
        <ele>1197</ele>
        <time>2021-08-10T14:11:20.268Z</time>
      </trkpt>
      <trkpt lat="46.88694" lon="8.5548">
        <ele>1198</ele>
        <time>2021-08-10T14:11:21.267Z</time>
      </trkpt>
      <trkpt lat="46.88694" lon="8.55478">
        <ele>1198</ele>
        <time>2021-08-10T14:11:22.267Z</time>
      </trkpt>
      <trkpt lat="46.88694" lon="8.55477">
        <ele>1199</ele>
        <time>2021-08-10T14:11:23.267Z</time>
      </trkpt>
      <trkpt lat="46.88693" lon="8.55477">
        <ele>1199</ele>
        <time>2021-08-10T14:11:24.267Z</time>
      </trkpt>
      <trkpt lat="46.88692" lon="8.55476">
        <ele>1200</ele>
        <time>2021-08-10T14:11:25.267Z</time>
      </trkpt>
      <trkpt lat="46.88693" lon="8.55474">
        <ele>1200</ele>
        <time>2021-08-10T14:11:26.267Z</time>
      </trkpt>
      <trkpt lat="46.88692" lon="8.55473">
        <ele>1201</ele>
        <time>2021-08-10T14:11:27.267Z</time>
      </trkpt>
      <trkpt lat="46.88691" lon="8.55473">
        <ele>1201</ele>
        <time>2021-08-10T14:11:28.267Z</time>
      </trkpt>
      <trkpt lat="46.88691" lon="8.55473">
        <ele>1202</ele>
        <time>2021-08-10T14:11:29.267Z</time>
      </trkpt>
      <trkpt lat="46.8869" lon="8.55473">
        <ele>1202</ele>
        <time>2021-08-10T14:11:30.267Z</time>
      </trkpt>
      <trkpt lat="46.88689" lon="8.55472">
        <ele>1203</ele>
        <time>2021-08-10T14:11:31.267Z</time>
      </trkpt>
      <trkpt lat="46.88688" lon="8.55472">
        <ele>1203</ele>
        <time>2021-08-10T14:11:32.267Z</time>
      </trkpt>
      <trkpt lat="46.88688" lon="8.55472">
        <ele>1204</ele>
        <time>2021-08-10T14:11:33.267Z</time>
      </trkpt>
      <trkpt lat="46.88687" lon="8.55471">
        <ele>1204</ele>
        <time>2021-08-10T14:11:34.267Z</time>
      </trkpt>
      <trkpt lat="46.88686" lon="8.55471">
        <ele>1205</ele>
        <time>2021-08-10T14:11:35.267Z</time>
      </trkpt>
      <trkpt lat="46.88685" lon="8.55471">
        <ele>1205</ele>
        <time>2021-08-10T14:11:36.267Z</time>
      </trkpt>
      <trkpt lat="46.88684" lon="8.5547">
        <ele>1206</ele>
        <time>2021-08-10T14:11:40.352Z</time>
      </trkpt>
      <trkpt lat="46.88683" lon="8.55469">
        <ele>1207</ele>
        <time>2021-08-10T14:11:41.352Z</time>
      </trkpt>
      <trkpt lat="46.88682" lon="8.55468">
        <ele>1207</ele>
        <time>2021-08-10T14:11:42.352Z</time>
      </trkpt>
      <trkpt lat="46.88682" lon="8.55467">
        <ele>1208</ele>
        <time>2021-08-10T14:11:43.352Z</time>
      </trkpt>
      <trkpt lat="46.88683" lon="8.55465">
        <ele>1208</ele>
        <time>2021-08-10T14:11:44.351Z</time>
      </trkpt>
      <trkpt lat="46.88683" lon="8.55464">
        <ele>1209</ele>
        <time>2021-08-10T14:11:45.352Z</time>
      </trkpt>
      <trkpt lat="46.88682" lon="8.55464">
        <ele>1209</ele>
        <time>2021-08-10T14:11:46.352Z</time>
      </trkpt>
      <trkpt lat="46.88681" lon="8.55463">
        <ele>1209</ele>
        <time>2021-08-10T14:11:47.352Z</time>
      </trkpt>
      <trkpt lat="46.88681" lon="8.55462">
        <ele>1210</ele>
        <time>2021-08-10T14:11:48.352Z</time>
      </trkpt>
      <trkpt lat="46.8868" lon="8.55462">
        <ele>1210</ele>
        <time>2021-08-10T14:11:49.351Z</time>
      </trkpt>
      <trkpt lat="46.8868" lon="8.5546">
        <ele>1209</ele>
        <time>2021-08-10T14:11:50.351Z</time>
      </trkpt>
      <trkpt lat="46.8868" lon="8.55459">
        <ele>1209</ele>
        <time>2021-08-10T14:11:51.352Z</time>
      </trkpt>
      <trkpt lat="46.8868" lon="8.55457">
        <ele>1209</ele>
        <time>2021-08-10T14:11:52.352Z</time>
      </trkpt>
      <trkpt lat="46.8868" lon="8.55456">
        <ele>1209</ele>
        <time>2021-08-10T14:11:53.351Z</time>
      </trkpt>
      <trkpt lat="46.88679" lon="8.55455">
        <ele>1209</ele>
        <time>2021-08-10T14:11:54.351Z</time>
      </trkpt>
      <trkpt lat="46.88679" lon="8.55454">
        <ele>1208</ele>
        <time>2021-08-10T14:11:55.352Z</time>
      </trkpt>
      <trkpt lat="46.88677" lon="8.55454">
        <ele>1208</ele>
        <time>2021-08-10T14:11:56.352Z</time>
      </trkpt>
      <trkpt lat="46.88677" lon="8.55453">
        <ele>1207</ele>
        <time>2021-08-10T14:11:57.352Z</time>
      </trkpt>
      <trkpt lat="46.88676" lon="8.55452">
        <ele>1206</ele>
        <time>2021-08-10T14:11:58.352Z</time>
      </trkpt>
      <trkpt lat="46.88676" lon="8.55451">
        <ele>1206</ele>
        <time>2021-08-10T14:11:59.352Z</time>
      </trkpt>
      <trkpt lat="46.88675" lon="8.55451">
        <ele>1205</ele>
        <time>2021-08-10T14:12:03.474Z</time>
      </trkpt>
      <trkpt lat="46.88675" lon="8.5545">
        <ele>1204</ele>
        <time>2021-08-10T14:12:04.474Z</time>
      </trkpt>
      <trkpt lat="46.88674" lon="8.55448">
        <ele>1204</ele>
        <time>2021-08-10T14:12:06.355Z</time>
      </trkpt>
      <trkpt lat="46.88673" lon="8.55447">
        <ele>1203</ele>
        <time>2021-08-10T14:12:08.065Z</time>
      </trkpt>
      <trkpt lat="46.88673" lon="8.55446">
        <ele>1202</ele>
        <time>2021-08-10T14:12:09.065Z</time>
      </trkpt>
      <trkpt lat="46.88672" lon="8.55445">
        <ele>1202</ele>
        <time>2021-08-10T14:12:10.066Z</time>
      </trkpt>
      <trkpt lat="46.88671" lon="8.55444">
        <ele>1201</ele>
        <time>2021-08-10T14:12:11.066Z</time>
      </trkpt>
      <trkpt lat="46.88671" lon="8.55443">
        <ele>1201</ele>
        <time>2021-08-10T14:12:12.066Z</time>
      </trkpt>
      <trkpt lat="46.88671" lon="8.55443">
        <ele>1200</ele>
        <time>2021-08-10T14:12:13.066Z</time>
      </trkpt>
      <trkpt lat="46.8867" lon="8.55442">
        <ele>1200</ele>
        <time>2021-08-10T14:12:14.066Z</time>
      </trkpt>
      <trkpt lat="46.8867" lon="8.55441">
        <ele>1200</ele>
        <time>2021-08-10T14:12:15.066Z</time>
      </trkpt>
      <trkpt lat="46.8867" lon="8.5544">
        <ele>1199</ele>
        <time>2021-08-10T14:12:16.065Z</time>
      </trkpt>
      <trkpt lat="46.88669" lon="8.55438">
        <ele>1199</ele>
        <time>2021-08-10T14:12:21.082Z</time>
      </trkpt>
      <trkpt lat="46.88669" lon="8.55437">
        <ele>1200</ele>
        <time>2021-08-10T14:12:35.853Z</time>
      </trkpt>
      <trkpt lat="46.88668" lon="8.55436">
        <ele>1200</ele>
        <time>2021-08-10T14:12:36.852Z</time>
      </trkpt>
      <trkpt lat="46.88668" lon="8.55435">
        <ele>1200</ele>
        <time>2021-08-10T14:12:37.853Z</time>
      </trkpt>
      <trkpt lat="46.88668" lon="8.55434">
        <ele>1200</ele>
        <time>2021-08-10T14:12:38.853Z</time>
      </trkpt>
      <trkpt lat="46.88668" lon="8.55433">
        <ele>1199</ele>
        <time>2021-08-10T14:12:39.853Z</time>
      </trkpt>
      <trkpt lat="46.88667" lon="8.55432">
        <ele>1199</ele>
        <time>2021-08-10T14:12:40.853Z</time>
      </trkpt>
      <trkpt lat="46.88666" lon="8.55431">
        <ele>1199</ele>
        <time>2021-08-10T14:12:41.852Z</time>
      </trkpt>
      <trkpt lat="46.88666" lon="8.5543">
        <ele>1199</ele>
        <time>2021-08-10T14:12:42.853Z</time>
      </trkpt>
      <trkpt lat="46.88666" lon="8.55429">
        <ele>1199</ele>
        <time>2021-08-10T14:12:49.000Z</time>
      </trkpt>
      <trkpt lat="46.88666" lon="8.55429">
        <ele>1199</ele>
        <time>2021-08-10T14:12:50.000Z</time>
      </trkpt>
      <trkpt lat="46.88666" lon="8.55428">
        <ele>1200</ele>
        <time>2021-08-10T14:12:51.000Z</time>
      </trkpt>
      <trkpt lat="46.88666" lon="8.55427">
        <ele>1200</ele>
        <time>2021-08-10T14:12:51.999Z</time>
      </trkpt>
      <trkpt lat="46.88667" lon="8.55426">
        <ele>1201</ele>
        <time>2021-08-10T14:12:52.999Z</time>
      </trkpt>
      <trkpt lat="46.88667" lon="8.55424">
        <ele>1201</ele>
        <time>2021-08-10T14:12:54.000Z</time>
      </trkpt>
      <trkpt lat="46.88667" lon="8.55423">
        <ele>1202</ele>
        <time>2021-08-10T14:12:54.999Z</time>
      </trkpt>
      <trkpt lat="46.88668" lon="8.55422">
        <ele>1202</ele>
        <time>2021-08-10T14:12:56.000Z</time>
      </trkpt>
      <trkpt lat="46.88667" lon="8.55422">
        <ele>1203</ele>
        <time>2021-08-10T14:12:57.000Z</time>
      </trkpt>
      <trkpt lat="46.88667" lon="8.55421">
        <ele>1203</ele>
        <time>2021-08-10T14:12:58.000Z</time>
      </trkpt>
      <trkpt lat="46.88666" lon="8.55421">
        <ele>1203</ele>
        <time>2021-08-10T14:12:59.000Z</time>
      </trkpt>
      <trkpt lat="46.88665" lon="8.5542">
        <ele>1203</ele>
        <time>2021-08-10T14:12:59.999Z</time>
      </trkpt>
      <trkpt lat="46.88664" lon="8.55419">
        <ele>1203</ele>
        <time>2021-08-10T14:13:01.000Z</time>
      </trkpt>
      <trkpt lat="46.88663" lon="8.55419">
        <ele>1203</ele>
        <time>2021-08-10T14:13:02.000Z</time>
      </trkpt>
      <trkpt lat="46.88662" lon="8.55418">
        <ele>1202</ele>
        <time>2021-08-10T14:13:03.000Z</time>
      </trkpt>
      <trkpt lat="46.88661" lon="8.55417">
        <ele>1202</ele>
        <time>2021-08-10T14:13:04.000Z</time>
      </trkpt>
      <trkpt lat="46.88661" lon="8.55416">
        <ele>1202</ele>
        <time>2021-08-10T14:13:05.000Z</time>
      </trkpt>
      <trkpt lat="46.8866" lon="8.55415">
        <ele>1202</ele>
        <time>2021-08-10T14:13:06.000Z</time>
      </trkpt>
      <trkpt lat="46.88659" lon="8.55414">
        <ele>1202</ele>
        <time>2021-08-10T14:13:07.000Z</time>
      </trkpt>
      <trkpt lat="46.88659" lon="8.55413">
        <ele>1202</ele>
        <time>2021-08-10T14:13:08.000Z</time>
      </trkpt>
      <trkpt lat="46.88658" lon="8.55412">
        <ele>1201</ele>
        <time>2021-08-10T14:13:09.000Z</time>
      </trkpt>
      <trkpt lat="46.88658" lon="8.55412">
        <ele>1201</ele>
        <time>2021-08-10T14:13:09.999Z</time>
      </trkpt>
      <trkpt lat="46.88657" lon="8.55411">
        <ele>1201</ele>
        <time>2021-08-10T14:13:10.999Z</time>
      </trkpt>
      <trkpt lat="46.88656" lon="8.55411">
        <ele>1201</ele>
        <time>2021-08-10T14:13:11.999Z</time>
      </trkpt>
      <trkpt lat="46.88656" lon="8.5541">
        <ele>1201</ele>
        <time>2021-08-10T14:13:12.999Z</time>
      </trkpt>
      <trkpt lat="46.88655" lon="8.55409">
        <ele>1200</ele>
        <time>2021-08-10T14:13:14.000Z</time>
      </trkpt>
      <trkpt lat="46.88654" lon="8.55408">
        <ele>1200</ele>
        <time>2021-08-10T14:13:15.000Z</time>
      </trkpt>
      <trkpt lat="46.88654" lon="8.55406">
        <ele>1200</ele>
        <time>2021-08-10T14:13:16.000Z</time>
      </trkpt>
      <trkpt lat="46.88653" lon="8.55405">
        <ele>1200</ele>
        <time>2021-08-10T14:13:17.000Z</time>
      </trkpt>
      <trkpt lat="46.88653" lon="8.55404">
        <ele>1201</ele>
        <time>2021-08-10T14:13:18.000Z</time>
      </trkpt>
      <trkpt lat="46.88652" lon="8.55403">
        <ele>1201</ele>
        <time>2021-08-10T14:13:18.999Z</time>
      </trkpt>
      <trkpt lat="46.88652" lon="8.55402">
        <ele>1202</ele>
        <time>2021-08-10T14:13:19.999Z</time>
      </trkpt>
      <trkpt lat="46.88651" lon="8.55401">
        <ele>1203</ele>
        <time>2021-08-10T14:13:21.000Z</time>
      </trkpt>
      <trkpt lat="46.8865" lon="8.55401">
        <ele>1203</ele>
        <time>2021-08-10T14:13:22.000Z</time>
      </trkpt>
      <trkpt lat="46.8865" lon="8.554">
        <ele>1204</ele>
        <time>2021-08-10T14:13:23.000Z</time>
      </trkpt>
      <trkpt lat="46.88649" lon="8.55399">
        <ele>1205</ele>
        <time>2021-08-10T14:13:24.000Z</time>
      </trkpt>
      <trkpt lat="46.88648" lon="8.55399">
        <ele>1206</ele>
        <time>2021-08-10T14:13:25.000Z</time>
      </trkpt>
      <trkpt lat="46.88648" lon="8.55398">
        <ele>1207</ele>
        <time>2021-08-10T14:13:25.999Z</time>
      </trkpt>
      <trkpt lat="46.88648" lon="8.55398">
        <ele>1208</ele>
        <time>2021-08-10T14:13:27.000Z</time>
      </trkpt>
      <trkpt lat="46.88648" lon="8.55397">
        <ele>1208</ele>
        <time>2021-08-10T14:13:27.999Z</time>
      </trkpt>
      <trkpt lat="46.88647" lon="8.55396">
        <ele>1209</ele>
        <time>2021-08-10T14:13:29.000Z</time>
      </trkpt>
      <trkpt lat="46.88646" lon="8.55396">
        <ele>1209</ele>
        <time>2021-08-10T14:13:30.000Z</time>
      </trkpt>
      <trkpt lat="46.88645" lon="8.55396">
        <ele>1210</ele>
        <time>2021-08-10T14:13:30.999Z</time>
      </trkpt>
      <trkpt lat="46.88644" lon="8.55396">
        <ele>1210</ele>
        <time>2021-08-10T14:13:32.000Z</time>
      </trkpt>
      <trkpt lat="46.88644" lon="8.55394">
        <ele>1211</ele>
        <time>2021-08-10T14:13:33.000Z</time>
      </trkpt>
      <trkpt lat="46.88643" lon="8.55393">
        <ele>1211</ele>
        <time>2021-08-10T14:13:34.000Z</time>
      </trkpt>
      <trkpt lat="46.88643" lon="8.55393">
        <ele>1211</ele>
        <time>2021-08-10T14:13:35.000Z</time>
      </trkpt>
      <trkpt lat="46.88642" lon="8.55392">
        <ele>1212</ele>
        <time>2021-08-10T14:13:36.000Z</time>
      </trkpt>
      <trkpt lat="46.88641" lon="8.55392">
        <ele>1212</ele>
        <time>2021-08-10T14:13:36.999Z</time>
      </trkpt>
      <trkpt lat="46.88641" lon="8.55391">
        <ele>1212</ele>
        <time>2021-08-10T14:13:38.000Z</time>
      </trkpt>
      <trkpt lat="46.88641" lon="8.5539">
        <ele>1212</ele>
        <time>2021-08-10T14:13:39.000Z</time>
      </trkpt>
      <trkpt lat="46.8864" lon="8.55389">
        <ele>1212</ele>
        <time>2021-08-10T14:13:39.999Z</time>
      </trkpt>
      <trkpt lat="46.8864" lon="8.55388">
        <ele>1212</ele>
        <time>2021-08-10T14:13:41.000Z</time>
      </trkpt>
      <trkpt lat="46.8864" lon="8.55387">
        <ele>1211</ele>
        <time>2021-08-10T14:13:42.000Z</time>
      </trkpt>
      <trkpt lat="46.88639" lon="8.55386">
        <ele>1211</ele>
        <time>2021-08-10T14:13:43.000Z</time>
      </trkpt>
      <trkpt lat="46.88638" lon="8.55385">
        <ele>1211</ele>
        <time>2021-08-10T14:13:44.000Z</time>
      </trkpt>
      <trkpt lat="46.88638" lon="8.55384">
        <ele>1210</ele>
        <time>2021-08-10T14:13:44.999Z</time>
      </trkpt>
      <trkpt lat="46.88638" lon="8.55382">
        <ele>1210</ele>
        <time>2021-08-10T14:13:46.000Z</time>
      </trkpt>
      <trkpt lat="46.88637" lon="8.55381">
        <ele>1209</ele>
        <time>2021-08-10T14:13:46.999Z</time>
      </trkpt>
      <trkpt lat="46.88637" lon="8.55379">
        <ele>1209</ele>
        <time>2021-08-10T14:13:47.999Z</time>
      </trkpt>
      <trkpt lat="46.88636" lon="8.55379">
        <ele>1209</ele>
        <time>2021-08-10T14:13:49.000Z</time>
      </trkpt>
      <trkpt lat="46.88636" lon="8.55378">
        <ele>1208</ele>
        <time>2021-08-10T14:13:49.999Z</time>
      </trkpt>
      <trkpt lat="46.88635" lon="8.55377">
        <ele>1208</ele>
        <time>2021-08-10T14:13:51.000Z</time>
      </trkpt>
      <trkpt lat="46.88635" lon="8.55376">
        <ele>1208</ele>
        <time>2021-08-10T14:13:52.000Z</time>
      </trkpt>
      <trkpt lat="46.88634" lon="8.55374">
        <ele>1208</ele>
        <time>2021-08-10T14:13:52.999Z</time>
      </trkpt>
      <trkpt lat="46.88633" lon="8.55373">
        <ele>1208</ele>
        <time>2021-08-10T14:13:53.999Z</time>
      </trkpt>
      <trkpt lat="46.88632" lon="8.55373">
        <ele>1207</ele>
        <time>2021-08-10T14:13:54.999Z</time>
      </trkpt>
      <trkpt lat="46.88631" lon="8.55372">
        <ele>1207</ele>
        <time>2021-08-10T14:13:56.000Z</time>
      </trkpt>
      <trkpt lat="46.88631" lon="8.55372">
        <ele>1207</ele>
        <time>2021-08-10T14:13:57.000Z</time>
      </trkpt>
      <trkpt lat="46.88631" lon="8.55371">
        <ele>1207</ele>
        <time>2021-08-10T14:14:01.151Z</time>
      </trkpt>
      <trkpt lat="46.88631" lon="8.55371">
        <ele>1207</ele>
        <time>2021-08-10T14:14:02.152Z</time>
      </trkpt>
      <trkpt lat="46.8863" lon="8.55371">
        <ele>1208</ele>
        <time>2021-08-10T14:14:03.152Z</time>
      </trkpt>
      <trkpt lat="46.88629" lon="8.5537">
        <ele>1208</ele>
        <time>2021-08-10T14:14:04.152Z</time>
      </trkpt>
      <trkpt lat="46.88629" lon="8.5537">
        <ele>1208</ele>
        <time>2021-08-10T14:14:05.152Z</time>
      </trkpt>
      <trkpt lat="46.88629" lon="8.55368">
        <ele>1207</ele>
        <time>2021-08-10T14:14:09.233Z</time>
      </trkpt>
      <trkpt lat="46.88629" lon="8.55367">
        <ele>1207</ele>
        <time>2021-08-10T14:14:10.233Z</time>
      </trkpt>
      <trkpt lat="46.88629" lon="8.55366">
        <ele>1207</ele>
        <time>2021-08-10T14:14:14.000Z</time>
      </trkpt>
      <trkpt lat="46.88628" lon="8.55365">
        <ele>1208</ele>
        <time>2021-08-10T14:14:14.999Z</time>
      </trkpt>
      <trkpt lat="46.88628" lon="8.55363">
        <ele>1208</ele>
        <time>2021-08-10T14:14:16.000Z</time>
      </trkpt>
      <trkpt lat="46.88628" lon="8.55363">
        <ele>1208</ele>
        <time>2021-08-10T14:14:16.999Z</time>
      </trkpt>
      <trkpt lat="46.88627" lon="8.55362">
        <ele>1209</ele>
        <time>2021-08-10T14:14:18.000Z</time>
      </trkpt>
      <trkpt lat="46.88626" lon="8.55361">
        <ele>1209</ele>
        <time>2021-08-10T14:14:18.999Z</time>
      </trkpt>
      <trkpt lat="46.88626" lon="8.55361">
        <ele>1210</ele>
        <time>2021-08-10T14:14:19.999Z</time>
      </trkpt>
      <trkpt lat="46.88626" lon="8.5536">
        <ele>1210</ele>
        <time>2021-08-10T14:14:20.999Z</time>
      </trkpt>
      <trkpt lat="46.88625" lon="8.55359">
        <ele>1210</ele>
        <time>2021-08-10T14:14:22.000Z</time>
      </trkpt>
      <trkpt lat="46.88625" lon="8.55359">
        <ele>1210</ele>
        <time>2021-08-10T14:14:23.000Z</time>
      </trkpt>
      <trkpt lat="46.88624" lon="8.55358">
        <ele>1210</ele>
        <time>2021-08-10T14:14:23.999Z</time>
      </trkpt>
      <trkpt lat="46.88623" lon="8.55358">
        <ele>1210</ele>
        <time>2021-08-10T14:14:25.000Z</time>
      </trkpt>
      <trkpt lat="46.88623" lon="8.55358">
        <ele>1211</ele>
        <time>2021-08-10T14:14:26.000Z</time>
      </trkpt>
      <trkpt lat="46.88622" lon="8.55357">
        <ele>1211</ele>
        <time>2021-08-10T14:14:27.000Z</time>
      </trkpt>
      <trkpt lat="46.88621" lon="8.55357">
        <ele>1211</ele>
        <time>2021-08-10T14:14:27.999Z</time>
      </trkpt>
      <trkpt lat="46.88621" lon="8.55356">
        <ele>1211</ele>
        <time>2021-08-10T14:14:29.000Z</time>
      </trkpt>
      <trkpt lat="46.8862" lon="8.55356">
        <ele>1212</ele>
        <time>2021-08-10T14:14:30.000Z</time>
      </trkpt>
      <trkpt lat="46.8862" lon="8.55355">
        <ele>1212</ele>
        <time>2021-08-10T14:14:30.999Z</time>
      </trkpt>
      <trkpt lat="46.8862" lon="8.55354">
        <ele>1212</ele>
        <time>2021-08-10T14:14:32.000Z</time>
      </trkpt>
      <trkpt lat="46.8862" lon="8.55352">
        <ele>1212</ele>
        <time>2021-08-10T14:14:32.999Z</time>
      </trkpt>
      <trkpt lat="46.88619" lon="8.55351">
        <ele>1213</ele>
        <time>2021-08-10T14:14:34.000Z</time>
      </trkpt>
      <trkpt lat="46.88619" lon="8.5535">
        <ele>1213</ele>
        <time>2021-08-10T14:14:46.107Z</time>
      </trkpt>
      <trkpt lat="46.88619" lon="8.55349">
        <ele>1214</ele>
        <time>2021-08-10T14:14:47.107Z</time>
      </trkpt>
      <trkpt lat="46.88618" lon="8.55348">
        <ele>1215</ele>
        <time>2021-08-10T14:14:48.107Z</time>
      </trkpt>
      <trkpt lat="46.88618" lon="8.55347">
        <ele>1216</ele>
        <time>2021-08-10T14:14:50.214Z</time>
      </trkpt>
      <trkpt lat="46.88618" lon="8.55346">
        <ele>1217</ele>
        <time>2021-08-10T14:14:51.213Z</time>
      </trkpt>
      <trkpt lat="46.88617" lon="8.55345">
        <ele>1217</ele>
        <time>2021-08-10T14:14:52.214Z</time>
      </trkpt>
      <trkpt lat="46.88617" lon="8.55344">
        <ele>1218</ele>
        <time>2021-08-10T14:14:53.213Z</time>
      </trkpt>
      <trkpt lat="46.88617" lon="8.55343">
        <ele>1218</ele>
        <time>2021-08-10T14:14:54.213Z</time>
      </trkpt>
      <trkpt lat="46.88617" lon="8.55342">
        <ele>1219</ele>
        <time>2021-08-10T14:14:58.224Z</time>
      </trkpt>
      <trkpt lat="46.88617" lon="8.55342">
        <ele>1219</ele>
        <time>2021-08-10T14:14:59.223Z</time>
      </trkpt>
      <trkpt lat="46.88617" lon="8.55341">
        <ele>1220</ele>
        <time>2021-08-10T14:15:00.224Z</time>
      </trkpt>
      <trkpt lat="46.88616" lon="8.55341">
        <ele>1220</ele>
        <time>2021-08-10T14:15:03.326Z</time>
      </trkpt>
      <trkpt lat="46.88615" lon="8.55341">
        <ele>1220</ele>
        <time>2021-08-10T14:15:04.326Z</time>
      </trkpt>
      <trkpt lat="46.88614" lon="8.5534">
        <ele>1220</ele>
        <time>2021-08-10T14:15:05.325Z</time>
      </trkpt>
      <trkpt lat="46.88614" lon="8.55339">
        <ele>1220</ele>
        <time>2021-08-10T14:15:06.326Z</time>
      </trkpt>
      <trkpt lat="46.88614" lon="8.55338">
        <ele>1220</ele>
        <time>2021-08-10T14:15:07.325Z</time>
      </trkpt>
      <trkpt lat="46.88613" lon="8.55336">
        <ele>1220</ele>
        <time>2021-08-10T14:15:08.325Z</time>
      </trkpt>
      <trkpt lat="46.88613" lon="8.55335">
        <ele>1220</ele>
        <time>2021-08-10T14:15:09.326Z</time>
      </trkpt>
      <trkpt lat="46.88612" lon="8.55334">
        <ele>1220</ele>
        <time>2021-08-10T14:15:10.326Z</time>
      </trkpt>
      <trkpt lat="46.88612" lon="8.55333">
        <ele>1221</ele>
        <time>2021-08-10T14:15:11.326Z</time>
      </trkpt>
      <trkpt lat="46.88611" lon="8.55331">
        <ele>1221</ele>
        <time>2021-08-10T14:15:12.326Z</time>
      </trkpt>
      <trkpt lat="46.8861" lon="8.5533">
        <ele>1221</ele>
        <time>2021-08-10T14:15:13.326Z</time>
      </trkpt>
      <trkpt lat="46.88609" lon="8.5533">
        <ele>1221</ele>
        <time>2021-08-10T14:15:14.325Z</time>
      </trkpt>
      <trkpt lat="46.88608" lon="8.55329">
        <ele>1222</ele>
        <time>2021-08-10T14:15:15.326Z</time>
      </trkpt>
      <trkpt lat="46.88607" lon="8.5533">
        <ele>1223</ele>
        <time>2021-08-10T14:15:16.325Z</time>
      </trkpt>
      <trkpt lat="46.88607" lon="8.5533">
        <ele>1223</ele>
        <time>2021-08-10T14:15:17.326Z</time>
      </trkpt>
      <trkpt lat="46.88606" lon="8.5533">
        <ele>1223</ele>
        <time>2021-08-10T14:15:18.326Z</time>
      </trkpt>
      <trkpt lat="46.88607" lon="8.55331">
        <ele>1224</ele>
        <time>2021-08-10T14:15:19.325Z</time>
      </trkpt>
      <trkpt lat="46.88605" lon="8.55332">
        <ele>1220</ele>
        <time>2021-08-10T14:15:20.325Z</time>
      </trkpt>
      <trkpt lat="46.88606" lon="8.55329">
        <ele>1217</ele>
        <time>2021-08-10T14:15:21.326Z</time>
      </trkpt>
      <trkpt lat="46.88601" lon="8.5533">
        <ele>1223</ele>
        <time>2021-08-10T14:15:22.326Z</time>
      </trkpt>
      <trkpt lat="46.886" lon="8.55335">
        <ele>1220</ele>
        <time>2021-08-10T14:15:23.327Z</time>
      </trkpt>
      <trkpt lat="46.886" lon="8.55334">
        <ele>1220</ele>
        <time>2021-08-10T14:15:24.327Z</time>
      </trkpt>
      <trkpt lat="46.886" lon="8.55329">
        <ele>1220</ele>
        <time>2021-08-10T14:15:25.327Z</time>
      </trkpt>
      <trkpt lat="46.886" lon="8.55328">
        <ele>1220</ele>
        <time>2021-08-10T14:15:26.327Z</time>
      </trkpt>
      <trkpt lat="46.88599" lon="8.55328">
        <ele>1220</ele>
        <time>2021-08-10T14:15:27.328Z</time>
      </trkpt>
      <trkpt lat="46.88596" lon="8.55333">
        <ele>1211</ele>
        <time>2021-08-10T14:15:28.329Z</time>
      </trkpt>
      <trkpt lat="46.88599" lon="8.55335">
        <ele>1213</ele>
        <time>2021-08-10T14:15:29.329Z</time>
      </trkpt>
      <trkpt lat="46.88599" lon="8.55334">
        <ele>1213</ele>
        <time>2021-08-10T14:15:30.328Z</time>
      </trkpt>
      <trkpt lat="46.88596" lon="8.5534">
        <ele>1218</ele>
        <time>2021-08-10T14:15:31.330Z</time>
      </trkpt>
      <trkpt lat="46.88596" lon="8.5534">
        <ele>1218</ele>
        <time>2021-08-10T14:15:32.329Z</time>
      </trkpt>
      <trkpt lat="46.88596" lon="8.55338">
        <ele>1215</ele>
        <time>2021-08-10T14:15:33.329Z</time>
      </trkpt>
      <trkpt lat="46.88596" lon="8.55338">
        <ele>1215</ele>
        <time>2021-08-10T14:15:34.329Z</time>
      </trkpt>
      <trkpt lat="46.88595" lon="8.55339">
        <ele>1214</ele>
        <time>2021-08-10T14:15:35.329Z</time>
      </trkpt>
      <trkpt lat="46.88595" lon="8.55339">
        <ele>1214</ele>
        <time>2021-08-10T14:15:36.329Z</time>
      </trkpt>
      <trkpt lat="46.88597" lon="8.55332">
        <ele>1220</ele>
        <time>2021-08-10T14:15:37.329Z</time>
      </trkpt>
      <trkpt lat="46.88597" lon="8.55331">
        <ele>1221</ele>
        <time>2021-08-10T14:15:38.330Z</time>
      </trkpt>
      <trkpt lat="46.88597" lon="8.55331">
        <ele>1221</ele>
        <time>2021-08-10T14:15:39.330Z</time>
      </trkpt>
      <trkpt lat="46.88597" lon="8.55331">
        <ele>1221</ele>
        <time>2021-08-10T14:15:40.330Z</time>
      </trkpt>
      <trkpt lat="46.88597" lon="8.5533">
        <ele>1221</ele>
        <time>2021-08-10T14:15:41.329Z</time>
      </trkpt>
      <trkpt lat="46.88597" lon="8.55329">
        <ele>1221</ele>
        <time>2021-08-10T14:15:42.329Z</time>
      </trkpt>
      <trkpt lat="46.88597" lon="8.55327">
        <ele>1221</ele>
        <time>2021-08-10T14:15:43.329Z</time>
      </trkpt>
      <trkpt lat="46.88597" lon="8.55326">
        <ele>1221</ele>
        <time>2021-08-10T14:15:44.329Z</time>
      </trkpt>
      <trkpt lat="46.88597" lon="8.55325">
        <ele>1222</ele>
        <time>2021-08-10T14:15:45.330Z</time>
      </trkpt>
      <trkpt lat="46.88598" lon="8.55325">
        <ele>1222</ele>
        <time>2021-08-10T14:15:46.329Z</time>
      </trkpt>
      <trkpt lat="46.88597" lon="8.55324">
        <ele>1223</ele>
        <time>2021-08-10T14:15:47.329Z</time>
      </trkpt>
      <trkpt lat="46.88597" lon="8.55322">
        <ele>1223</ele>
        <time>2021-08-10T14:15:48.329Z</time>
      </trkpt>
      <trkpt lat="46.88596" lon="8.55321">
        <ele>1224</ele>
        <time>2021-08-10T14:15:49.329Z</time>
      </trkpt>
      <trkpt lat="46.88596" lon="8.5532">
        <ele>1224</ele>
        <time>2021-08-10T14:15:50.329Z</time>
      </trkpt>
      <trkpt lat="46.88596" lon="8.55319">
        <ele>1225</ele>
        <time>2021-08-10T14:15:51.329Z</time>
      </trkpt>
      <trkpt lat="46.88596" lon="8.55319">
        <ele>1225</ele>
        <time>2021-08-10T14:15:52.329Z</time>
      </trkpt>
      <trkpt lat="46.88596" lon="8.55319">
        <ele>1226</ele>
        <time>2021-08-10T14:15:53.329Z</time>
      </trkpt>
      <trkpt lat="46.88595" lon="8.55319">
        <ele>1226</ele>
        <time>2021-08-10T14:15:54.329Z</time>
      </trkpt>
      <trkpt lat="46.88595" lon="8.5532">
        <ele>1226</ele>
        <time>2021-08-10T14:15:55.329Z</time>
      </trkpt>
      <trkpt lat="46.88594" lon="8.55321">
        <ele>1226</ele>
        <time>2021-08-10T14:15:56.330Z</time>
      </trkpt>
      <trkpt lat="46.88594" lon="8.55321">
        <ele>1226</ele>
        <time>2021-08-10T14:15:57.329Z</time>
      </trkpt>
      <trkpt lat="46.88594" lon="8.55321">
        <ele>1226</ele>
        <time>2021-08-10T14:15:58.330Z</time>
      </trkpt>
      <trkpt lat="46.88594" lon="8.55321">
        <ele>1227</ele>
        <time>2021-08-10T14:15:59.329Z</time>
      </trkpt>
      <trkpt lat="46.8859" lon="8.55324">
        <ele>1227</ele>
        <time>2021-08-10T14:16:00.330Z</time>
      </trkpt>
      <trkpt lat="46.88589" lon="8.55324">
        <ele>1227</ele>
        <time>2021-08-10T14:16:01.329Z</time>
      </trkpt>
      <trkpt lat="46.88589" lon="8.55324">
        <ele>1228</ele>
        <time>2021-08-10T14:16:02.330Z</time>
      </trkpt>
      <trkpt lat="46.88588" lon="8.55324">
        <ele>1228</ele>
        <time>2021-08-10T14:16:03.330Z</time>
      </trkpt>
      <trkpt lat="46.88588" lon="8.55324">
        <ele>1228</ele>
        <time>2021-08-10T14:16:04.330Z</time>
      </trkpt>
      <trkpt lat="46.88588" lon="8.55324">
        <ele>1228</ele>
        <time>2021-08-10T14:16:05.330Z</time>
      </trkpt>
      <trkpt lat="46.88587" lon="8.55323">
        <ele>1228</ele>
        <time>2021-08-10T14:16:06.330Z</time>
      </trkpt>
      <trkpt lat="46.88587" lon="8.55323">
        <ele>1229</ele>
        <time>2021-08-10T14:16:07.329Z</time>
      </trkpt>
      <trkpt lat="46.88587" lon="8.55323">
        <ele>1229</ele>
        <time>2021-08-10T14:16:08.329Z</time>
      </trkpt>
      <trkpt lat="46.88586" lon="8.55323">
        <ele>1231</ele>
        <time>2021-08-10T14:16:09.332Z</time>
      </trkpt>
      <trkpt lat="46.88585" lon="8.55324">
        <ele>1231</ele>
        <time>2021-08-10T14:16:10.332Z</time>
      </trkpt>
      <trkpt lat="46.88585" lon="8.55324">
        <ele>1231</ele>
        <time>2021-08-10T14:16:11.331Z</time>
      </trkpt>
      <trkpt lat="46.88584" lon="8.55324">
        <ele>1231</ele>
        <time>2021-08-10T14:16:12.332Z</time>
      </trkpt>
      <trkpt lat="46.88583" lon="8.55325">
        <ele>1230</ele>
        <time>2021-08-10T14:16:13.332Z</time>
      </trkpt>
      <trkpt lat="46.88583" lon="8.55325">
        <ele>1230</ele>
        <time>2021-08-10T14:16:14.331Z</time>
      </trkpt>
      <trkpt lat="46.88583" lon="8.55324">
        <ele>1230</ele>
        <time>2021-08-10T14:16:15.332Z</time>
      </trkpt>
      <trkpt lat="46.88582" lon="8.55321">
        <ele>1224</ele>
        <time>2021-08-10T14:16:16.332Z</time>
      </trkpt>
      <trkpt lat="46.88582" lon="8.55321">
        <ele>1224</ele>
        <time>2021-08-10T14:16:17.332Z</time>
      </trkpt>
      <trkpt lat="46.88582" lon="8.5532">
        <ele>1224</ele>
        <time>2021-08-10T14:16:18.332Z</time>
      </trkpt>
      <trkpt lat="46.88586" lon="8.55323">
        <ele>1227</ele>
        <time>2021-08-10T14:16:19.334Z</time>
      </trkpt>
      <trkpt lat="46.88586" lon="8.55323">
        <ele>1227</ele>
        <time>2021-08-10T14:16:20.334Z</time>
      </trkpt>
      <trkpt lat="46.88585" lon="8.55323">
        <ele>1228</ele>
        <time>2021-08-10T14:16:21.333Z</time>
      </trkpt>
      <trkpt lat="46.88584" lon="8.55323">
        <ele>1228</ele>
        <time>2021-08-10T14:16:22.334Z</time>
      </trkpt>
      <trkpt lat="46.88584" lon="8.55322">
        <ele>1229</ele>
        <time>2021-08-10T14:16:23.333Z</time>
      </trkpt>
      <trkpt lat="46.88583" lon="8.55323">
        <ele>1229</ele>
        <time>2021-08-10T14:16:24.334Z</time>
      </trkpt>
      <trkpt lat="46.88582" lon="8.55323">
        <ele>1229</ele>
        <time>2021-08-10T14:16:25.334Z</time>
      </trkpt>
      <trkpt lat="46.88581" lon="8.55324">
        <ele>1229</ele>
        <time>2021-08-10T14:16:26.334Z</time>
      </trkpt>
      <trkpt lat="46.88581" lon="8.55324">
        <ele>1229</ele>
        <time>2021-08-10T14:16:27.334Z</time>
      </trkpt>
      <trkpt lat="46.88581" lon="8.55323">
        <ele>1230</ele>
        <time>2021-08-10T14:16:28.334Z</time>
      </trkpt>
      <trkpt lat="46.88581" lon="8.55322">
        <ele>1230</ele>
        <time>2021-08-10T14:16:29.333Z</time>
      </trkpt>
      <trkpt lat="46.8858" lon="8.55321">
        <ele>1230</ele>
        <time>2021-08-10T14:16:30.334Z</time>
      </trkpt>
      <trkpt lat="46.88579" lon="8.55321">
        <ele>1230</ele>
        <time>2021-08-10T14:16:31.334Z</time>
      </trkpt>
      <trkpt lat="46.88578" lon="8.55321">
        <ele>1230</ele>
        <time>2021-08-10T14:16:32.334Z</time>
      </trkpt>
      <trkpt lat="46.88577" lon="8.55322">
        <ele>1230</ele>
        <time>2021-08-10T14:16:33.334Z</time>
      </trkpt>
      <trkpt lat="46.88577" lon="8.55322">
        <ele>1230</ele>
        <time>2021-08-10T14:16:34.334Z</time>
      </trkpt>
      <trkpt lat="46.88576" lon="8.55322">
        <ele>1230</ele>
        <time>2021-08-10T14:16:35.334Z</time>
      </trkpt>
      <trkpt lat="46.88576" lon="8.55321">
        <ele>1230</ele>
        <time>2021-08-10T14:16:36.333Z</time>
      </trkpt>
      <trkpt lat="46.88576" lon="8.55321">
        <ele>1230</ele>
        <time>2021-08-10T14:16:37.334Z</time>
      </trkpt>
      <trkpt lat="46.88576" lon="8.5532">
        <ele>1230</ele>
        <time>2021-08-10T14:16:38.333Z</time>
      </trkpt>
      <trkpt lat="46.88575" lon="8.5532">
        <ele>1231</ele>
        <time>2021-08-10T14:16:39.334Z</time>
      </trkpt>
      <trkpt lat="46.88574" lon="8.5532">
        <ele>1231</ele>
        <time>2021-08-10T14:16:40.333Z</time>
      </trkpt>
      <trkpt lat="46.88574" lon="8.5532">
        <ele>1232</ele>
        <time>2021-08-10T14:16:41.334Z</time>
      </trkpt>
      <trkpt lat="46.88573" lon="8.55319">
        <ele>1232</ele>
        <time>2021-08-10T14:16:42.334Z</time>
      </trkpt>
      <trkpt lat="46.88573" lon="8.55319">
        <ele>1232</ele>
        <time>2021-08-10T14:16:43.333Z</time>
      </trkpt>
      <trkpt lat="46.88572" lon="8.55319">
        <ele>1232</ele>
        <time>2021-08-10T14:16:44.333Z</time>
      </trkpt>
      <trkpt lat="46.88572" lon="8.55318">
        <ele>1232</ele>
        <time>2021-08-10T14:16:45.333Z</time>
      </trkpt>
      <trkpt lat="46.88572" lon="8.55318">
        <ele>1233</ele>
        <time>2021-08-10T14:16:46.333Z</time>
      </trkpt>
      <trkpt lat="46.88571" lon="8.55318">
        <ele>1233</ele>
        <time>2021-08-10T14:16:47.334Z</time>
      </trkpt>
      <trkpt lat="46.88571" lon="8.55318">
        <ele>1234</ele>
        <time>2021-08-10T14:16:48.334Z</time>
      </trkpt>
      <trkpt lat="46.8857" lon="8.55318">
        <ele>1234</ele>
        <time>2021-08-10T14:16:49.333Z</time>
      </trkpt>
      <trkpt lat="46.88569" lon="8.55318">
        <ele>1234</ele>
        <time>2021-08-10T14:16:50.333Z</time>
      </trkpt>
      <trkpt lat="46.88569" lon="8.55317">
        <ele>1234</ele>
        <time>2021-08-10T14:16:51.333Z</time>
      </trkpt>
      <trkpt lat="46.88571" lon="8.55316">
        <ele>1235</ele>
        <time>2021-08-10T14:16:52.334Z</time>
      </trkpt>
      <trkpt lat="46.88571" lon="8.55317">
        <ele>1235</ele>
        <time>2021-08-10T14:16:53.334Z</time>
      </trkpt>
      <trkpt lat="46.88571" lon="8.55317">
        <ele>1235</ele>
        <time>2021-08-10T14:16:54.334Z</time>
      </trkpt>
      <trkpt lat="46.88571" lon="8.55316">
        <ele>1235</ele>
        <time>2021-08-10T14:16:55.334Z</time>
      </trkpt>
      <trkpt lat="46.88572" lon="8.55316">
        <ele>1235</ele>
        <time>2021-08-10T14:16:56.334Z</time>
      </trkpt>
      <trkpt lat="46.88572" lon="8.55316">
        <ele>1235</ele>
        <time>2021-08-10T14:16:57.334Z</time>
      </trkpt>
      <trkpt lat="46.88573" lon="8.55316">
        <ele>1235</ele>
        <time>2021-08-10T14:16:58.334Z</time>
      </trkpt>
      <trkpt lat="46.88573" lon="8.55316">
        <ele>1236</ele>
        <time>2021-08-10T14:16:59.334Z</time>
      </trkpt>
      <trkpt lat="46.88573" lon="8.55315">
        <ele>1236</ele>
        <time>2021-08-10T14:17:00.334Z</time>
      </trkpt>
      <trkpt lat="46.88572" lon="8.55315">
        <ele>1237</ele>
        <time>2021-08-10T14:17:01.334Z</time>
      </trkpt>
      <trkpt lat="46.88574" lon="8.55315">
        <ele>1238</ele>
        <time>2021-08-10T14:17:02.334Z</time>
      </trkpt>
      <trkpt lat="46.88578" lon="8.55316">
        <ele>1237</ele>
        <time>2021-08-10T14:17:03.335Z</time>
      </trkpt>
      <trkpt lat="46.88577" lon="8.55316">
        <ele>1237</ele>
        <time>2021-08-10T14:17:06.339Z</time>
      </trkpt>
      <trkpt lat="46.88577" lon="8.55316">
        <ele>1237</ele>
        <time>2021-08-10T14:17:07.338Z</time>
      </trkpt>
      <trkpt lat="46.88578" lon="8.55316">
        <ele>1236</ele>
        <time>2021-08-10T14:17:08.339Z</time>
      </trkpt>
      <trkpt lat="46.88578" lon="8.55315">
        <ele>1236</ele>
        <time>2021-08-10T14:17:09.338Z</time>
      </trkpt>
      <trkpt lat="46.88578" lon="8.55314">
        <ele>1236</ele>
        <time>2021-08-10T14:17:10.339Z</time>
      </trkpt>
      <trkpt lat="46.88577" lon="8.55313">
        <ele>1236</ele>
        <time>2021-08-10T14:17:11.339Z</time>
      </trkpt>
      <trkpt lat="46.88577" lon="8.55312">
        <ele>1236</ele>
        <time>2021-08-10T14:17:12.339Z</time>
      </trkpt>
      <trkpt lat="46.88577" lon="8.55312">
        <ele>1236</ele>
        <time>2021-08-10T14:17:13.339Z</time>
      </trkpt>
      <trkpt lat="46.88577" lon="8.55311">
        <ele>1236</ele>
        <time>2021-08-10T14:17:14.339Z</time>
      </trkpt>
      <trkpt lat="46.88578" lon="8.5531">
        <ele>1236</ele>
        <time>2021-08-10T14:17:15.339Z</time>
      </trkpt>
      <trkpt lat="46.88578" lon="8.55309">
        <ele>1236</ele>
        <time>2021-08-10T14:17:16.339Z</time>
      </trkpt>
      <trkpt lat="46.88577" lon="8.55309">
        <ele>1236</ele>
        <time>2021-08-10T14:17:17.339Z</time>
      </trkpt>
      <trkpt lat="46.88577" lon="8.55308">
        <ele>1235</ele>
        <time>2021-08-10T14:17:18.339Z</time>
      </trkpt>
      <trkpt lat="46.88576" lon="8.55308">
        <ele>1235</ele>
        <time>2021-08-10T14:17:19.339Z</time>
      </trkpt>
      <trkpt lat="46.88576" lon="8.55307">
        <ele>1235</ele>
        <time>2021-08-10T14:17:20.339Z</time>
      </trkpt>
      <trkpt lat="46.88574" lon="8.55306">
        <ele>1235</ele>
        <time>2021-08-10T14:17:21.339Z</time>
      </trkpt>
      <trkpt lat="46.88573" lon="8.55306">
        <ele>1234</ele>
        <time>2021-08-10T14:17:22.339Z</time>
      </trkpt>
      <trkpt lat="46.88572" lon="8.55306">
        <ele>1234</ele>
        <time>2021-08-10T14:17:23.338Z</time>
      </trkpt>
      <trkpt lat="46.88571" lon="8.55306">
        <ele>1234</ele>
        <time>2021-08-10T14:17:24.338Z</time>
      </trkpt>
      <trkpt lat="46.8857" lon="8.55306">
        <ele>1234</ele>
        <time>2021-08-10T14:17:25.339Z</time>
      </trkpt>
      <trkpt lat="46.8857" lon="8.55305">
        <ele>1234</ele>
        <time>2021-08-10T14:17:26.339Z</time>
      </trkpt>
      <trkpt lat="46.88569" lon="8.55305">
        <ele>1233</ele>
        <time>2021-08-10T14:17:27.339Z</time>
      </trkpt>
      <trkpt lat="46.8857" lon="8.55304">
        <ele>1233</ele>
        <time>2021-08-10T14:17:28.339Z</time>
      </trkpt>
      <trkpt lat="46.88569" lon="8.55303">
        <ele>1233</ele>
        <time>2021-08-10T14:17:29.339Z</time>
      </trkpt>
      <trkpt lat="46.88568" lon="8.55302">
        <ele>1233</ele>
        <time>2021-08-10T14:17:30.338Z</time>
      </trkpt>
      <trkpt lat="46.88568" lon="8.55301">
        <ele>1233</ele>
        <time>2021-08-10T14:17:31.339Z</time>
      </trkpt>
      <trkpt lat="46.88567" lon="8.55301">
        <ele>1234</ele>
        <time>2021-08-10T14:17:32.339Z</time>
      </trkpt>
      <trkpt lat="46.88567" lon="8.55301">
        <ele>1234</ele>
        <time>2021-08-10T14:17:33.338Z</time>
      </trkpt>
      <trkpt lat="46.88566" lon="8.55301">
        <ele>1234</ele>
        <time>2021-08-10T14:17:34.339Z</time>
      </trkpt>
      <trkpt lat="46.88566" lon="8.553">
        <ele>1235</ele>
        <time>2021-08-10T14:17:35.338Z</time>
      </trkpt>
      <trkpt lat="46.88567" lon="8.55299">
        <ele>1235</ele>
        <time>2021-08-10T14:17:36.338Z</time>
      </trkpt>
      <trkpt lat="46.88568" lon="8.55298">
        <ele>1235</ele>
        <time>2021-08-10T14:17:37.339Z</time>
      </trkpt>
      <trkpt lat="46.88567" lon="8.55298">
        <ele>1236</ele>
        <time>2021-08-10T14:17:38.339Z</time>
      </trkpt>
      <trkpt lat="46.88566" lon="8.55298">
        <ele>1236</ele>
        <time>2021-08-10T14:17:39.338Z</time>
      </trkpt>
      <trkpt lat="46.88565" lon="8.55298">
        <ele>1237</ele>
        <time>2021-08-10T14:17:40.339Z</time>
      </trkpt>
      <trkpt lat="46.88564" lon="8.55298">
        <ele>1237</ele>
        <time>2021-08-10T14:17:41.339Z</time>
      </trkpt>
      <trkpt lat="46.88564" lon="8.55298">
        <ele>1237</ele>
        <time>2021-08-10T14:17:42.339Z</time>
      </trkpt>
      <trkpt lat="46.88564" lon="8.55298">
        <ele>1238</ele>
        <time>2021-08-10T14:17:43.339Z</time>
      </trkpt>
      <trkpt lat="46.88563" lon="8.55298">
        <ele>1238</ele>
        <time>2021-08-10T14:17:44.339Z</time>
      </trkpt>
      <trkpt lat="46.88563" lon="8.55298">
        <ele>1238</ele>
        <time>2021-08-10T14:17:45.338Z</time>
      </trkpt>
      <trkpt lat="46.88563" lon="8.55297">
        <ele>1238</ele>
        <time>2021-08-10T14:17:46.339Z</time>
      </trkpt>
      <trkpt lat="46.88563" lon="8.55296">
        <ele>1239</ele>
        <time>2021-08-10T14:17:47.339Z</time>
      </trkpt>
      <trkpt lat="46.88563" lon="8.55295">
        <ele>1239</ele>
        <time>2021-08-10T14:17:48.338Z</time>
      </trkpt>
      <trkpt lat="46.88563" lon="8.55296">
        <ele>1239</ele>
        <time>2021-08-10T14:17:49.339Z</time>
      </trkpt>
      <trkpt lat="46.88564" lon="8.55296">
        <ele>1239</ele>
        <time>2021-08-10T14:17:50.339Z</time>
      </trkpt>
      <trkpt lat="46.88565" lon="8.55296">
        <ele>1239</ele>
        <time>2021-08-10T14:17:51.338Z</time>
      </trkpt>
      <trkpt lat="46.88566" lon="8.55296">
        <ele>1240</ele>
        <time>2021-08-10T14:17:52.339Z</time>
      </trkpt>
      <trkpt lat="46.88566" lon="8.55296">
        <ele>1240</ele>
        <time>2021-08-10T14:17:53.338Z</time>
      </trkpt>
      <trkpt lat="46.88567" lon="8.55296">
        <ele>1241</ele>
        <time>2021-08-10T14:17:54.339Z</time>
      </trkpt>
      <trkpt lat="46.88568" lon="8.55296">
        <ele>1241</ele>
        <time>2021-08-10T14:17:55.339Z</time>
      </trkpt>
      <trkpt lat="46.88568" lon="8.55296">
        <ele>1242</ele>
        <time>2021-08-10T14:17:56.339Z</time>
      </trkpt>
      <trkpt lat="46.88569" lon="8.55295">
        <ele>1242</ele>
        <time>2021-08-10T14:17:57.338Z</time>
      </trkpt>
      <trkpt lat="46.88569" lon="8.55293">
        <ele>1243</ele>
        <time>2021-08-10T14:17:58.339Z</time>
      </trkpt>
      <trkpt lat="46.8857" lon="8.55292">
        <ele>1243</ele>
        <time>2021-08-10T14:17:59.339Z</time>
      </trkpt>
      <trkpt lat="46.88571" lon="8.55291">
        <ele>1244</ele>
        <time>2021-08-10T14:18:00.338Z</time>
      </trkpt>
      <trkpt lat="46.88572" lon="8.55291">
        <ele>1244</ele>
        <time>2021-08-10T14:18:01.338Z</time>
      </trkpt>
      <trkpt lat="46.88573" lon="8.5529">
        <ele>1245</ele>
        <time>2021-08-10T14:18:02.338Z</time>
      </trkpt>
      <trkpt lat="46.88574" lon="8.55289">
        <ele>1245</ele>
        <time>2021-08-10T14:18:05.447Z</time>
      </trkpt>
      <trkpt lat="46.88575" lon="8.55287">
        <ele>1246</ele>
        <time>2021-08-10T14:18:06.447Z</time>
      </trkpt>
      <trkpt lat="46.88576" lon="8.55286">
        <ele>1246</ele>
        <time>2021-08-10T14:18:07.448Z</time>
      </trkpt>
      <trkpt lat="46.88576" lon="8.55286">
        <ele>1246</ele>
        <time>2021-08-10T14:18:09.575Z</time>
      </trkpt>
      <trkpt lat="46.88576" lon="8.55285">
        <ele>1247</ele>
        <time>2021-08-10T14:18:10.575Z</time>
      </trkpt>
      <trkpt lat="46.88577" lon="8.55285">
        <ele>1247</ele>
        <time>2021-08-10T14:18:11.575Z</time>
      </trkpt>
      <trkpt lat="46.88577" lon="8.55284">
        <ele>1248</ele>
        <time>2021-08-10T14:18:12.576Z</time>
      </trkpt>
      <trkpt lat="46.88576" lon="8.55283">
        <ele>1248</ele>
        <time>2021-08-10T14:18:13.576Z</time>
      </trkpt>
      <trkpt lat="46.88575" lon="8.55283">
        <ele>1248</ele>
        <time>2021-08-10T14:18:14.575Z</time>
      </trkpt>
      <trkpt lat="46.88574" lon="8.55283">
        <ele>1248</ele>
        <time>2021-08-10T14:18:15.575Z</time>
      </trkpt>
      <trkpt lat="46.88574" lon="8.55285">
        <ele>1248</ele>
        <time>2021-08-10T14:18:16.576Z</time>
      </trkpt>
      <trkpt lat="46.88573" lon="8.55285">
        <ele>1248</ele>
        <time>2021-08-10T14:18:17.576Z</time>
      </trkpt>
      <trkpt lat="46.88572" lon="8.55284">
        <ele>1248</ele>
        <time>2021-08-10T14:18:18.576Z</time>
      </trkpt>
      <trkpt lat="46.88571" lon="8.55284">
        <ele>1248</ele>
        <time>2021-08-10T14:18:19.576Z</time>
      </trkpt>
      <trkpt lat="46.88571" lon="8.55284">
        <ele>1249</ele>
        <time>2021-08-10T14:18:20.576Z</time>
      </trkpt>
      <trkpt lat="46.8857" lon="8.55283">
        <ele>1249</ele>
        <time>2021-08-10T14:18:23.732Z</time>
      </trkpt>
      <trkpt lat="46.8857" lon="8.55283">
        <ele>1250</ele>
        <time>2021-08-10T14:18:24.732Z</time>
      </trkpt>
      <trkpt lat="46.8857" lon="8.55284">
        <ele>1251</ele>
        <time>2021-08-10T14:18:25.731Z</time>
      </trkpt>
      <trkpt lat="46.88569" lon="8.55284">
        <ele>1251</ele>
        <time>2021-08-10T14:18:52.775Z</time>
      </trkpt>
      <trkpt lat="46.88569" lon="8.55283">
        <ele>1252</ele>
        <time>2021-08-10T14:18:58.628Z</time>
      </trkpt>
      <trkpt lat="46.88568" lon="8.55284">
        <ele>1252</ele>
        <time>2021-08-10T14:18:59.628Z</time>
      </trkpt>
      <trkpt lat="46.88568" lon="8.55283">
        <ele>1253</ele>
        <time>2021-08-10T14:19:00.628Z</time>
      </trkpt>
      <trkpt lat="46.88567" lon="8.55283">
        <ele>1253</ele>
        <time>2021-08-10T14:19:01.628Z</time>
      </trkpt>
      <trkpt lat="46.88567" lon="8.55283">
        <ele>1253</ele>
        <time>2021-08-10T14:19:02.628Z</time>
      </trkpt>
      <trkpt lat="46.88566" lon="8.55283">
        <ele>1254</ele>
        <time>2021-08-10T14:19:03.628Z</time>
      </trkpt>
      <trkpt lat="46.88566" lon="8.55283">
        <ele>1254</ele>
        <time>2021-08-10T14:19:04.628Z</time>
      </trkpt>
      <trkpt lat="46.88565" lon="8.55283">
        <ele>1254</ele>
        <time>2021-08-10T14:19:05.629Z</time>
      </trkpt>
      <trkpt lat="46.88564" lon="8.55282">
        <ele>1255</ele>
        <time>2021-08-10T14:19:08.695Z</time>
      </trkpt>
      <trkpt lat="46.88562" lon="8.55281">
        <ele>1255</ele>
        <time>2021-08-10T14:19:09.694Z</time>
      </trkpt>
      <trkpt lat="46.88561" lon="8.55281">
        <ele>1255</ele>
        <time>2021-08-10T14:19:10.695Z</time>
      </trkpt>
      <trkpt lat="46.8856" lon="8.5528">
        <ele>1255</ele>
        <time>2021-08-10T14:19:11.694Z</time>
      </trkpt>
      <trkpt lat="46.8856" lon="8.55279">
        <ele>1255</ele>
        <time>2021-08-10T14:19:12.694Z</time>
      </trkpt>
      <trkpt lat="46.8856" lon="8.55275">
        <ele>1255</ele>
        <time>2021-08-10T14:19:16.696Z</time>
      </trkpt>
      <trkpt lat="46.88559" lon="8.55274">
        <ele>1254</ele>
        <time>2021-08-10T14:19:17.695Z</time>
      </trkpt>
      <trkpt lat="46.88559" lon="8.55274">
        <ele>1254</ele>
        <time>2021-08-10T14:19:18.695Z</time>
      </trkpt>
      <trkpt lat="46.88558" lon="8.55274">
        <ele>1255</ele>
        <time>2021-08-10T14:19:19.695Z</time>
      </trkpt>
      <trkpt lat="46.88557" lon="8.55275">
        <ele>1255</ele>
        <time>2021-08-10T14:19:20.695Z</time>
      </trkpt>
      <trkpt lat="46.88557" lon="8.55275">
        <ele>1255</ele>
        <time>2021-08-10T14:19:21.695Z</time>
      </trkpt>
      <trkpt lat="46.88557" lon="8.55275">
        <ele>1255</ele>
        <time>2021-08-10T14:19:22.695Z</time>
      </trkpt>
      <trkpt lat="46.88557" lon="8.55276">
        <ele>1256</ele>
        <time>2021-08-10T14:19:23.695Z</time>
      </trkpt>
      <trkpt lat="46.88556" lon="8.55276">
        <ele>1256</ele>
        <time>2021-08-10T14:19:24.695Z</time>
      </trkpt>
      <trkpt lat="46.88557" lon="8.55275">
        <ele>1257</ele>
        <time>2021-08-10T14:19:25.697Z</time>
      </trkpt>
      <trkpt lat="46.88557" lon="8.55274">
        <ele>1257</ele>
        <time>2021-08-10T14:19:26.697Z</time>
      </trkpt>
      <trkpt lat="46.88556" lon="8.55273">
        <ele>1257</ele>
        <time>2021-08-10T14:19:44.715Z</time>
      </trkpt>
      <trkpt lat="46.88555" lon="8.55271">
        <ele>1257</ele>
        <time>2021-08-10T14:19:45.716Z</time>
      </trkpt>
      <trkpt lat="46.88555" lon="8.5527">
        <ele>1256</ele>
        <time>2021-08-10T14:20:01.630Z</time>
      </trkpt>
      <trkpt lat="46.88555" lon="8.55269">
        <ele>1256</ele>
        <time>2021-08-10T14:20:07.483Z</time>
      </trkpt>
      <trkpt lat="46.88554" lon="8.55267">
        <ele>1256</ele>
        <time>2021-08-10T14:20:08.483Z</time>
      </trkpt>
      <trkpt lat="46.88553" lon="8.55266">
        <ele>1256</ele>
        <time>2021-08-10T14:20:09.483Z</time>
      </trkpt>
      <trkpt lat="46.88552" lon="8.55266">
        <ele>1257</ele>
        <time>2021-08-10T14:20:10.483Z</time>
      </trkpt>
      <trkpt lat="46.88551" lon="8.55265">
        <ele>1257</ele>
        <time>2021-08-10T14:20:11.482Z</time>
      </trkpt>
      <trkpt lat="46.88551" lon="8.55264">
        <ele>1257</ele>
        <time>2021-08-10T14:20:12.483Z</time>
      </trkpt>
      <trkpt lat="46.88551" lon="8.55263">
        <ele>1258</ele>
        <time>2021-08-10T14:20:19.632Z</time>
      </trkpt>
      <trkpt lat="46.88551" lon="8.55264">
        <ele>1259</ele>
        <time>2021-08-10T14:20:20.632Z</time>
      </trkpt>
      <trkpt lat="46.88551" lon="8.55264">
        <ele>1259</ele>
        <time>2021-08-10T14:20:21.633Z</time>
      </trkpt>
      <trkpt lat="46.88551" lon="8.55265">
        <ele>1260</ele>
        <time>2021-08-10T14:20:35.638Z</time>
      </trkpt>
      <trkpt lat="46.8855" lon="8.55265">
        <ele>1260</ele>
        <time>2021-08-10T14:20:51.522Z</time>
      </trkpt>
      <trkpt lat="46.88549" lon="8.55266">
        <ele>1261</ele>
        <time>2021-08-10T14:20:52.521Z</time>
      </trkpt>
      <trkpt lat="46.88549" lon="8.55266">
        <ele>1261</ele>
        <time>2021-08-10T14:20:53.522Z</time>
      </trkpt>
      <trkpt lat="46.88549" lon="8.55266">
        <ele>1262</ele>
        <time>2021-08-10T14:20:54.522Z</time>
      </trkpt>
      <trkpt lat="46.88548" lon="8.55266">
        <ele>1262</ele>
        <time>2021-08-10T14:20:55.521Z</time>
      </trkpt>
      <trkpt lat="46.88548" lon="8.55266">
        <ele>1262</ele>
        <time>2021-08-10T14:21:07.609Z</time>
      </trkpt>
      <trkpt lat="46.88548" lon="8.55265">
        <ele>1262</ele>
        <time>2021-08-10T14:21:11.482Z</time>
      </trkpt>
      <trkpt lat="46.88549" lon="8.55265">
        <ele>1262</ele>
        <time>2021-08-10T14:21:12.482Z</time>
      </trkpt>
      <trkpt lat="46.88549" lon="8.55263">
        <ele>1263</ele>
        <time>2021-08-10T14:21:13.481Z</time>
      </trkpt>
      <trkpt lat="46.88551" lon="8.55262">
        <ele>1263</ele>
        <time>2021-08-10T14:21:14.482Z</time>
      </trkpt>
      <trkpt lat="46.88552" lon="8.5526">
        <ele>1263</ele>
        <time>2021-08-10T14:21:15.481Z</time>
      </trkpt>
      <trkpt lat="46.88553" lon="8.5526">
        <ele>1263</ele>
        <time>2021-08-10T14:21:16.482Z</time>
      </trkpt>
      <trkpt lat="46.88554" lon="8.5526">
        <ele>1263</ele>
        <time>2021-08-10T14:21:33.582Z</time>
      </trkpt>
      <trkpt lat="46.88555" lon="8.55261">
        <ele>1262</ele>
        <time>2021-08-10T14:21:34.583Z</time>
      </trkpt>
      <trkpt lat="46.88555" lon="8.5526">
        <ele>1262</ele>
        <time>2021-08-10T14:21:35.582Z</time>
      </trkpt>
      <trkpt lat="46.88555" lon="8.5526">
        <ele>1262</ele>
        <time>2021-08-10T14:21:36.582Z</time>
      </trkpt>
      <trkpt lat="46.88555" lon="8.55259">
        <ele>1262</ele>
        <time>2021-08-10T14:21:37.583Z</time>
      </trkpt>
      <trkpt lat="46.88555" lon="8.55258">
        <ele>1262</ele>
        <time>2021-08-10T14:21:47.610Z</time>
      </trkpt>
      <trkpt lat="46.88555" lon="8.55258">
        <ele>1262</ele>
        <time>2021-08-10T14:21:48.610Z</time>
      </trkpt>
      <trkpt lat="46.88554" lon="8.55257">
        <ele>1262</ele>
        <time>2021-08-10T14:21:49.610Z</time>
      </trkpt>
      <trkpt lat="46.88554" lon="8.55256">
        <ele>1262</ele>
        <time>2021-08-10T14:21:50.610Z</time>
      </trkpt>
      <trkpt lat="46.88554" lon="8.55255">
        <ele>1262</ele>
        <time>2021-08-10T14:21:53.737Z</time>
      </trkpt>
      <trkpt lat="46.88554" lon="8.55255">
        <ele>1262</ele>
        <time>2021-08-10T14:21:54.737Z</time>
      </trkpt>
      <trkpt lat="46.88554" lon="8.55255">
        <ele>1262</ele>
        <time>2021-08-10T14:21:55.737Z</time>
      </trkpt>
      <trkpt lat="46.88554" lon="8.55254">
        <ele>1262</ele>
        <time>2021-08-10T14:21:56.737Z</time>
      </trkpt>
      <trkpt lat="46.88554" lon="8.55254">
        <ele>1262</ele>
        <time>2021-08-10T14:22:11.748Z</time>
      </trkpt>
      <trkpt lat="46.88554" lon="8.55253">
        <ele>1262</ele>
        <time>2021-08-10T14:22:21.604Z</time>
      </trkpt>
      <trkpt lat="46.88554" lon="8.55252">
        <ele>1262</ele>
        <time>2021-08-10T14:22:23.447Z</time>
      </trkpt>
      <trkpt lat="46.88555" lon="8.55251">
        <ele>1262</ele>
        <time>2021-08-10T14:22:24.446Z</time>
      </trkpt>
      <trkpt lat="46.88555" lon="8.5525">
        <ele>1262</ele>
        <time>2021-08-10T14:22:25.446Z</time>
      </trkpt>
      <trkpt lat="46.88555" lon="8.5525">
        <ele>1262</ele>
        <time>2021-08-10T14:22:26.447Z</time>
      </trkpt>
      <trkpt lat="46.88555" lon="8.5525">
        <ele>1262</ele>
        <time>2021-08-10T14:22:36.482Z</time>
      </trkpt>
      <trkpt lat="46.88554" lon="8.5525">
        <ele>1262</ele>
        <time>2021-08-10T14:22:37.483Z</time>
      </trkpt>
      <trkpt lat="46.88554" lon="8.55249">
        <ele>1262</ele>
        <time>2021-08-10T14:22:38.482Z</time>
      </trkpt>
      <trkpt lat="46.88552" lon="8.55249">
        <ele>1261</ele>
        <time>2021-08-10T14:22:39.483Z</time>
      </trkpt>
      <trkpt lat="46.88551" lon="8.55249">
        <ele>1261</ele>
        <time>2021-08-10T14:22:45.481Z</time>
      </trkpt>
      <trkpt lat="46.8855" lon="8.55249">
        <ele>1261</ele>
        <time>2021-08-10T14:22:47.347Z</time>
      </trkpt>
      <trkpt lat="46.88549" lon="8.55249">
        <ele>1261</ele>
        <time>2021-08-10T14:22:48.348Z</time>
      </trkpt>
      <trkpt lat="46.88548" lon="8.5525">
        <ele>1261</ele>
        <time>2021-08-10T14:22:49.348Z</time>
      </trkpt>
      <trkpt lat="46.88547" lon="8.5525">
        <ele>1261</ele>
        <time>2021-08-10T14:22:50.347Z</time>
      </trkpt>
      <trkpt lat="46.88547" lon="8.5525">
        <ele>1261</ele>
        <time>2021-08-10T14:22:51.347Z</time>
      </trkpt>
      <trkpt lat="46.88546" lon="8.5525">
        <ele>1261</ele>
        <time>2021-08-10T14:23:57.397Z</time>
      </trkpt>
      <trkpt lat="46.88546" lon="8.55251">
        <ele>1261</ele>
        <time>2021-08-10T14:23:58.397Z</time>
      </trkpt>
      <trkpt lat="46.88545" lon="8.55252">
        <ele>1260</ele>
        <time>2021-08-10T14:23:59.397Z</time>
      </trkpt>
      <trkpt lat="46.88544" lon="8.55253">
        <ele>1260</ele>
        <time>2021-08-10T14:24:19.514Z</time>
      </trkpt>
      <trkpt lat="46.88543" lon="8.55253">
        <ele>1259</ele>
        <time>2021-08-10T14:24:20.513Z</time>
      </trkpt>
      <trkpt lat="46.88543" lon="8.55254">
        <ele>1259</ele>
        <time>2021-08-10T14:24:21.514Z</time>
      </trkpt>
      <trkpt lat="46.88542" lon="8.55254">
        <ele>1259</ele>
        <time>2021-08-10T14:24:22.514Z</time>
      </trkpt>
      <trkpt lat="46.88541" lon="8.55253">
        <ele>1258</ele>
        <time>2021-08-10T14:24:29.618Z</time>
      </trkpt>
      <trkpt lat="46.8854" lon="8.55252">
        <ele>1258</ele>
        <time>2021-08-10T14:25:16.536Z</time>
      </trkpt>
      <trkpt lat="46.88539" lon="8.55251">
        <ele>1258</ele>
        <time>2021-08-10T14:25:17.536Z</time>
      </trkpt>
      <trkpt lat="46.88539" lon="8.55251">
        <ele>1257</ele>
        <time>2021-08-10T14:25:18.536Z</time>
      </trkpt>
      <trkpt lat="46.88538" lon="8.5525">
        <ele>1257</ele>
        <time>2021-08-10T14:25:54.616Z</time>
      </trkpt>
      <trkpt lat="46.88538" lon="8.55248">
        <ele>1257</ele>
        <time>2021-08-10T14:25:57.454Z</time>
      </trkpt>
      <trkpt lat="46.88537" lon="8.55247">
        <ele>1257</ele>
        <time>2021-08-10T14:26:15.217Z</time>
      </trkpt>
      <trkpt lat="46.88537" lon="8.55246">
        <ele>1257</ele>
        <time>2021-08-10T14:26:16.217Z</time>
      </trkpt>
      <trkpt lat="46.88536" lon="8.55247">
        <ele>1256</ele>
        <time>2021-08-10T14:26:33.004Z</time>
      </trkpt>
      <trkpt lat="46.88535" lon="8.55247">
        <ele>1256</ele>
        <time>2021-08-10T14:26:34.005Z</time>
      </trkpt>
      <trkpt lat="46.88534" lon="8.55247">
        <ele>1256</ele>
        <time>2021-08-10T14:26:35.005Z</time>
      </trkpt>
      <trkpt lat="46.88533" lon="8.55247">
        <ele>1256</ele>
        <time>2021-08-10T14:28:11.113Z</time>
      </trkpt>
      <trkpt lat="46.88533" lon="8.55247">
        <ele>1257</ele>
        <time>2021-08-10T14:28:12.113Z</time>
      </trkpt>
      <trkpt lat="46.88531" lon="8.55246">
        <ele>1257</ele>
        <time>2021-08-10T14:28:13.113Z</time>
      </trkpt>
      <trkpt lat="46.88531" lon="8.55244">
        <ele>1257</ele>
        <time>2021-08-10T14:29:16.237Z</time>
      </trkpt>
      <trkpt lat="46.8853" lon="8.55242">
        <ele>1257</ele>
        <time>2021-08-10T14:29:17.237Z</time>
      </trkpt>
      <trkpt lat="46.8853" lon="8.55241">
        <ele>1258</ele>
        <time>2021-08-10T14:29:18.237Z</time>
      </trkpt>
      <trkpt lat="46.88529" lon="8.5524">
        <ele>1258</ele>
        <time>2021-08-10T14:29:19.237Z</time>
      </trkpt>
      <trkpt lat="46.88529" lon="8.55238">
        <ele>1258</ele>
        <time>2021-08-10T14:29:20.236Z</time>
      </trkpt>
      <trkpt lat="46.88529" lon="8.5524">
        <ele>1258</ele>
        <time>2021-08-10T14:30:43.368Z</time>
      </trkpt>
      <trkpt lat="46.88529" lon="8.55243">
        <ele>1259</ele>
        <time>2021-08-10T14:30:44.368Z</time>
      </trkpt>
      <trkpt lat="46.88529" lon="8.55244">
        <ele>1259</ele>
        <time>2021-08-10T14:30:45.368Z</time>
      </trkpt>
      <trkpt lat="46.88529" lon="8.55244">
        <ele>1259</ele>
        <time>2021-08-10T14:30:46.368Z</time>
      </trkpt>
      <trkpt lat="46.88529" lon="8.55244">
        <ele>1260</ele>
        <time>2021-08-10T14:30:47.367Z</time>
      </trkpt>
      <trkpt lat="46.88528" lon="8.55243">
        <ele>1260</ele>
        <time>2021-08-10T14:30:48.368Z</time>
      </trkpt>
      <trkpt lat="46.88528" lon="8.55243">
        <ele>1261</ele>
        <time>2021-08-10T14:30:49.367Z</time>
      </trkpt>
      <trkpt lat="46.88527" lon="8.55243">
        <ele>1262</ele>
        <time>2021-08-10T14:30:50.367Z</time>
      </trkpt>
      <trkpt lat="46.88527" lon="8.55243">
        <ele>1263</ele>
        <time>2021-08-10T14:30:51.367Z</time>
      </trkpt>
      <trkpt lat="46.88526" lon="8.55241">
        <ele>1264</ele>
        <time>2021-08-10T14:30:52.368Z</time>
      </trkpt>
      <trkpt lat="46.88526" lon="8.5524">
        <ele>1265</ele>
        <time>2021-08-10T14:30:53.367Z</time>
      </trkpt>
      <trkpt lat="46.88526" lon="8.55238">
        <ele>1265</ele>
        <time>2021-08-10T14:30:54.367Z</time>
      </trkpt>
      <trkpt lat="46.88527" lon="8.55237">
        <ele>1266</ele>
        <time>2021-08-10T14:30:55.367Z</time>
      </trkpt>
      <trkpt lat="46.88527" lon="8.55235">
        <ele>1267</ele>
        <time>2021-08-10T14:30:57.487Z</time>
      </trkpt>
      <trkpt lat="46.88527" lon="8.55234">
        <ele>1267</ele>
        <time>2021-08-10T14:30:58.487Z</time>
      </trkpt>
      <trkpt lat="46.88527" lon="8.55233">
        <ele>1268</ele>
        <time>2021-08-10T14:30:59.486Z</time>
      </trkpt>
      <trkpt lat="46.88527" lon="8.55232">
        <ele>1269</ele>
        <time>2021-08-10T14:31:00.487Z</time>
      </trkpt>
      <trkpt lat="46.88528" lon="8.55232">
        <ele>1269</ele>
        <time>2021-08-10T14:31:01.486Z</time>
      </trkpt>
      <trkpt lat="46.88529" lon="8.55231">
        <ele>1269</ele>
        <time>2021-08-10T14:31:03.614Z</time>
      </trkpt>
      <trkpt lat="46.88528" lon="8.5523">
        <ele>1270</ele>
        <time>2021-08-10T14:31:04.614Z</time>
      </trkpt>
      <trkpt lat="46.88528" lon="8.55229">
        <ele>1270</ele>
        <time>2021-08-10T14:31:05.614Z</time>
      </trkpt>
      <trkpt lat="46.88528" lon="8.55227">
        <ele>1270</ele>
        <time>2021-08-10T14:31:06.614Z</time>
      </trkpt>
      <trkpt lat="46.88528" lon="8.55226">
        <ele>1270</ele>
        <time>2021-08-10T14:31:07.613Z</time>
      </trkpt>
      <trkpt lat="46.88527" lon="8.55224">
        <ele>1271</ele>
        <time>2021-08-10T14:31:08.613Z</time>
      </trkpt>
      <trkpt lat="46.88527" lon="8.55223">
        <ele>1271</ele>
        <time>2021-08-10T14:31:09.613Z</time>
      </trkpt>
      <trkpt lat="46.88526" lon="8.55222">
        <ele>1271</ele>
        <time>2021-08-10T14:31:54.716Z</time>
      </trkpt>
      <trkpt lat="46.88526" lon="8.55222">
        <ele>1271</ele>
        <time>2021-08-10T14:32:14.620Z</time>
      </trkpt>
      <trkpt lat="46.88526" lon="8.5522">
        <ele>1272</ele>
        <time>2021-08-10T14:32:15.620Z</time>
      </trkpt>
      <trkpt lat="46.88526" lon="8.55219">
        <ele>1272</ele>
        <time>2021-08-10T14:32:21.468Z</time>
      </trkpt>
      <trkpt lat="46.88526" lon="8.55218">
        <ele>1272</ele>
        <time>2021-08-10T14:32:22.468Z</time>
      </trkpt>
      <trkpt lat="46.88525" lon="8.55217">
        <ele>1272</ele>
        <time>2021-08-10T14:32:23.468Z</time>
      </trkpt>
      <trkpt lat="46.88524" lon="8.55217">
        <ele>1272</ele>
        <time>2021-08-10T14:32:24.467Z</time>
      </trkpt>
      <trkpt lat="46.88524" lon="8.55218">
        <ele>1273</ele>
        <time>2021-08-10T14:32:25.468Z</time>
      </trkpt>
      <trkpt lat="46.88522" lon="8.55218">
        <ele>1273</ele>
        <time>2021-08-10T14:32:26.467Z</time>
      </trkpt>
      <trkpt lat="46.8852" lon="8.55219">
        <ele>1273</ele>
        <time>2021-08-10T14:32:27.468Z</time>
      </trkpt>
      <trkpt lat="46.88519" lon="8.55219">
        <ele>1274</ele>
        <time>2021-08-10T14:32:28.468Z</time>
      </trkpt>
      <trkpt lat="46.88518" lon="8.55218">
        <ele>1274</ele>
        <time>2021-08-10T14:33:02.586Z</time>
      </trkpt>
      <trkpt lat="46.88517" lon="8.55217">
        <ele>1274</ele>
        <time>2021-08-10T14:33:03.586Z</time>
      </trkpt>
      <trkpt lat="46.88516" lon="8.55218">
        <ele>1275</ele>
        <time>2021-08-10T14:34:03.475Z</time>
      </trkpt>
      <trkpt lat="46.88516" lon="8.55218">
        <ele>1275</ele>
        <time>2021-08-10T14:34:04.476Z</time>
      </trkpt>
      <trkpt lat="46.88516" lon="8.55217">
        <ele>1275</ele>
        <time>2021-08-10T14:34:05.476Z</time>
      </trkpt>
      <trkpt lat="46.88515" lon="8.55216">
        <ele>1275</ele>
        <time>2021-08-10T14:34:06.475Z</time>
      </trkpt>
      <trkpt lat="46.88515" lon="8.55216">
        <ele>1275</ele>
        <time>2021-08-10T14:34:07.476Z</time>
      </trkpt>
      <trkpt lat="46.88515" lon="8.55215">
        <ele>1276</ele>
        <time>2021-08-10T14:34:08.476Z</time>
      </trkpt>
      <trkpt lat="46.88515" lon="8.55214">
        <ele>1276</ele>
        <time>2021-08-10T14:34:09.476Z</time>
      </trkpt>
      <trkpt lat="46.88515" lon="8.55213">
        <ele>1276</ele>
        <time>2021-08-10T14:34:10.475Z</time>
      </trkpt>
      <trkpt lat="46.88514" lon="8.55213">
        <ele>1276</ele>
        <time>2021-08-10T14:34:19.614Z</time>
      </trkpt>
      <trkpt lat="46.88513" lon="8.55212">
        <ele>1277</ele>
        <time>2021-08-10T14:34:20.614Z</time>
      </trkpt>
      <trkpt lat="46.88511" lon="8.55212">
        <ele>1277</ele>
        <time>2021-08-10T14:34:21.615Z</time>
      </trkpt>
      <trkpt lat="46.8851" lon="8.55211">
        <ele>1277</ele>
        <time>2021-08-10T14:34:35.751Z</time>
      </trkpt>
      <trkpt lat="46.8851" lon="8.5521">
        <ele>1276</ele>
        <time>2021-08-10T14:34:36.751Z</time>
      </trkpt>
      <trkpt lat="46.8851" lon="8.55209">
        <ele>1276</ele>
        <time>2021-08-10T14:34:37.750Z</time>
      </trkpt>
      <trkpt lat="46.88509" lon="8.55209">
        <ele>1276</ele>
        <time>2021-08-10T14:34:38.750Z</time>
      </trkpt>
      <trkpt lat="46.88509" lon="8.55209">
        <ele>1276</ele>
        <time>2021-08-10T14:36:13.839Z</time>
      </trkpt>
      <trkpt lat="46.88508" lon="8.55209">
        <ele>1277</ele>
        <time>2021-08-10T14:36:14.838Z</time>
      </trkpt>
      <trkpt lat="46.88508" lon="8.55209">
        <ele>1277</ele>
        <time>2021-08-10T14:36:15.839Z</time>
      </trkpt>
      <trkpt lat="46.88508" lon="8.55209">
        <ele>1277</ele>
        <time>2021-08-10T14:36:16.839Z</time>
      </trkpt>
      <trkpt lat="46.88508" lon="8.55209">
        <ele>1277</ele>
        <time>2021-08-10T14:36:23.985Z</time>
      </trkpt>
      <trkpt lat="46.88508" lon="8.5521">
        <ele>1277</ele>
        <time>2021-08-10T14:36:24.984Z</time>
      </trkpt>
      <trkpt lat="46.88509" lon="8.5521">
        <ele>1277</ele>
        <time>2021-08-10T14:36:36.849Z</time>
      </trkpt>
      <trkpt lat="46.88509" lon="8.55211">
        <ele>1278</ele>
        <time>2021-08-10T14:36:37.850Z</time>
      </trkpt>
      <trkpt lat="46.88509" lon="8.55211">
        <ele>1278</ele>
        <time>2021-08-10T14:36:38.850Z</time>
      </trkpt>
      <trkpt lat="46.88509" lon="8.55212">
        <ele>1278</ele>
        <time>2021-08-10T14:36:39.850Z</time>
      </trkpt>
      <trkpt lat="46.8851" lon="8.55212">
        <ele>1278</ele>
        <time>2021-08-10T14:36:42.968Z</time>
      </trkpt>
      <trkpt lat="46.8851" lon="8.55211">
        <ele>1278</ele>
        <time>2021-08-10T14:36:55.871Z</time>
      </trkpt>
      <trkpt lat="46.88511" lon="8.55209">
        <ele>1279</ele>
        <time>2021-08-10T14:36:56.871Z</time>
      </trkpt>
      <trkpt lat="46.88511" lon="8.55209">
        <ele>1280</ele>
        <time>2021-08-10T14:36:57.870Z</time>
      </trkpt>
      <trkpt lat="46.88512" lon="8.55208">
        <ele>1280</ele>
        <time>2021-08-10T14:37:03.976Z</time>
      </trkpt>
      <trkpt lat="46.88512" lon="8.55206">
        <ele>1280</ele>
        <time>2021-08-10T14:37:04.976Z</time>
      </trkpt>
      <trkpt lat="46.88513" lon="8.55204">
        <ele>1280</ele>
        <time>2021-08-10T14:37:05.975Z</time>
      </trkpt>
      <trkpt lat="46.88512" lon="8.55204">
        <ele>1280</ele>
        <time>2021-08-10T14:37:20.729Z</time>
      </trkpt>
      <trkpt lat="46.88511" lon="8.55203">
        <ele>1280</ele>
        <time>2021-08-10T14:37:21.729Z</time>
      </trkpt>
      <trkpt lat="46.8851" lon="8.55203">
        <ele>1281</ele>
        <time>2021-08-10T14:37:22.729Z</time>
      </trkpt>
      <trkpt lat="46.88509" lon="8.55201">
        <ele>1281</ele>
        <time>2021-08-10T14:37:23.729Z</time>
      </trkpt>
      <trkpt lat="46.88509" lon="8.55201">
        <ele>1281</ele>
        <time>2021-08-10T14:37:31.848Z</time>
      </trkpt>
      <trkpt lat="46.88509" lon="8.552">
        <ele>1281</ele>
        <time>2021-08-10T14:37:32.848Z</time>
      </trkpt>
      <trkpt lat="46.88508" lon="8.55199">
        <ele>1281</ele>
        <time>2021-08-10T14:37:33.849Z</time>
      </trkpt>
      <trkpt lat="46.88507" lon="8.55199">
        <ele>1281</ele>
        <time>2021-08-10T14:37:34.848Z</time>
      </trkpt>
      <trkpt lat="46.88507" lon="8.55199">
        <ele>1281</ele>
        <time>2021-08-10T14:37:35.848Z</time>
      </trkpt>
      <trkpt lat="46.88507" lon="8.55199">
        <ele>1281</ele>
        <time>2021-08-10T14:37:36.849Z</time>
      </trkpt>
      <trkpt lat="46.88502" lon="8.55197">
        <ele>1281</ele>
        <time>2021-08-10T14:37:37.850Z</time>
      </trkpt>
      <trkpt lat="46.88502" lon="8.55197">
        <ele>1281</ele>
        <time>2021-08-10T14:37:38.850Z</time>
      </trkpt>
      <trkpt lat="46.885" lon="8.55197">
        <ele>1281</ele>
        <time>2021-08-10T14:37:45.839Z</time>
      </trkpt>
      <trkpt lat="46.885" lon="8.55196">
        <ele>1281</ele>
        <time>2021-08-10T14:37:46.838Z</time>
      </trkpt>
      <trkpt lat="46.88499" lon="8.55195">
        <ele>1282</ele>
        <time>2021-08-10T14:38:15.588Z</time>
      </trkpt>
      <trkpt lat="46.88499" lon="8.55193">
        <ele>1282</ele>
        <time>2021-08-10T14:38:16.587Z</time>
      </trkpt>
      <trkpt lat="46.885" lon="8.55192">
        <ele>1282</ele>
        <time>2021-08-10T14:38:17.587Z</time>
      </trkpt>
      <trkpt lat="46.885" lon="8.5519">
        <ele>1282</ele>
        <time>2021-08-10T14:38:21.739Z</time>
      </trkpt>
      <trkpt lat="46.885" lon="8.55189">
        <ele>1282</ele>
        <time>2021-08-10T14:38:22.739Z</time>
      </trkpt>
      <trkpt lat="46.88499" lon="8.55188">
        <ele>1282</ele>
        <time>2021-08-10T14:38:23.738Z</time>
      </trkpt>
      <trkpt lat="46.88499" lon="8.55187">
        <ele>1282</ele>
        <time>2021-08-10T14:38:49.838Z</time>
      </trkpt>
      <trkpt lat="46.88498" lon="8.55187">
        <ele>1283</ele>
        <time>2021-08-10T14:38:50.838Z</time>
      </trkpt>
      <trkpt lat="46.88499" lon="8.55187">
        <ele>1283</ele>
        <time>2021-08-10T14:38:51.838Z</time>
      </trkpt>
      <trkpt lat="46.885" lon="8.55186">
        <ele>1283</ele>
        <time>2021-08-10T14:40:05.720Z</time>
      </trkpt>
      <trkpt lat="46.885" lon="8.55186">
        <ele>1284</ele>
        <time>2021-08-10T14:40:06.720Z</time>
      </trkpt>
      <trkpt lat="46.885" lon="8.55187">
        <ele>1284</ele>
        <time>2021-08-10T14:40:07.719Z</time>
      </trkpt>
      <trkpt lat="46.885" lon="8.55187">
        <ele>1284</ele>
        <time>2021-08-10T14:40:08.720Z</time>
      </trkpt>
      <trkpt lat="46.88501" lon="8.55188">
        <ele>1284</ele>
        <time>2021-08-10T14:40:09.719Z</time>
      </trkpt>
      <trkpt lat="46.88501" lon="8.55187">
        <ele>1284</ele>
        <time>2021-08-10T14:40:11.857Z</time>
      </trkpt>
      <trkpt lat="46.88502" lon="8.55187">
        <ele>1284</ele>
        <time>2021-08-10T14:40:12.858Z</time>
      </trkpt>
      <trkpt lat="46.88501" lon="8.55188">
        <ele>1284</ele>
        <time>2021-08-10T14:40:21.750Z</time>
      </trkpt>
      <trkpt lat="46.88499" lon="8.5519">
        <ele>1280</ele>
        <time>2021-08-10T14:40:22.752Z</time>
      </trkpt>
      <trkpt lat="46.88499" lon="8.5519">
        <ele>1280</ele>
        <time>2021-08-10T14:40:23.751Z</time>
      </trkpt>
      <trkpt lat="46.88499" lon="8.5519">
        <ele>1280</ele>
        <time>2021-08-10T14:40:24.751Z</time>
      </trkpt>
      <trkpt lat="46.88495" lon="8.55198">
        <ele>1278</ele>
        <time>2021-08-10T14:40:25.751Z</time>
      </trkpt>
      <trkpt lat="46.88495" lon="8.55198">
        <ele>1278</ele>
        <time>2021-08-10T14:40:26.751Z</time>
      </trkpt>
      <trkpt lat="46.88495" lon="8.55198">
        <ele>1278</ele>
        <time>2021-08-10T14:40:27.752Z</time>
      </trkpt>
      <trkpt lat="46.88493" lon="8.55199">
        <ele>1278</ele>
        <time>2021-08-10T14:40:28.752Z</time>
      </trkpt>
      <trkpt lat="46.88493" lon="8.55199">
        <ele>1278</ele>
        <time>2021-08-10T14:40:29.751Z</time>
      </trkpt>
      <trkpt lat="46.88493" lon="8.55199">
        <ele>1278</ele>
        <time>2021-08-10T14:40:30.752Z</time>
      </trkpt>
      <trkpt lat="46.88494" lon="8.55199">
        <ele>1278</ele>
        <time>2021-08-10T14:41:20.827Z</time>
      </trkpt>
      <trkpt lat="46.88493" lon="8.55199">
        <ele>1278</ele>
        <time>2021-08-10T14:41:21.827Z</time>
      </trkpt>
      <trkpt lat="46.88492" lon="8.55199">
        <ele>1278</ele>
        <time>2021-08-10T14:41:22.828Z</time>
      </trkpt>
      <trkpt lat="46.88491" lon="8.55199">
        <ele>1278</ele>
        <time>2021-08-10T14:41:25.708Z</time>
      </trkpt>
      <trkpt lat="46.8849" lon="8.55199">
        <ele>1278</ele>
        <time>2021-08-10T14:41:26.709Z</time>
      </trkpt>
      <trkpt lat="46.8849" lon="8.55198">
        <ele>1277</ele>
        <time>2021-08-10T14:41:27.708Z</time>
      </trkpt>
      <trkpt lat="46.8849" lon="8.55198">
        <ele>1277</ele>
        <time>2021-08-10T14:41:31.720Z</time>
      </trkpt>
      <trkpt lat="46.88489" lon="8.55198">
        <ele>1277</ele>
        <time>2021-08-10T14:41:32.720Z</time>
      </trkpt>
      <trkpt lat="46.88488" lon="8.55198">
        <ele>1277</ele>
        <time>2021-08-10T14:41:33.721Z</time>
      </trkpt>
      <trkpt lat="46.88488" lon="8.55199">
        <ele>1276</ele>
        <time>2021-08-10T14:41:59.863Z</time>
      </trkpt>
      <trkpt lat="46.88488" lon="8.55199">
        <ele>1276</ele>
        <time>2021-08-10T14:42:00.863Z</time>
      </trkpt>
      <trkpt lat="46.88489" lon="8.55198">
        <ele>1276</ele>
        <time>2021-08-10T14:42:01.863Z</time>
      </trkpt>
      <trkpt lat="46.8849" lon="8.55197">
        <ele>1276</ele>
        <time>2021-08-10T14:42:02.863Z</time>
      </trkpt>
      <trkpt lat="46.88492" lon="8.55194">
        <ele>1276</ele>
        <time>2021-08-10T14:42:03.864Z</time>
      </trkpt>
      <trkpt lat="46.88492" lon="8.55194">
        <ele>1276</ele>
        <time>2021-08-10T14:42:04.864Z</time>
      </trkpt>
      <trkpt lat="46.88493" lon="8.55194">
        <ele>1276</ele>
        <time>2021-08-10T14:42:15.989Z</time>
      </trkpt>
      <trkpt lat="46.88493" lon="8.55194">
        <ele>1276</ele>
        <time>2021-08-10T14:42:16.989Z</time>
      </trkpt>
      <trkpt lat="46.88493" lon="8.55193">
        <ele>1277</ele>
        <time>2021-08-10T14:42:17.989Z</time>
      </trkpt>
      <trkpt lat="46.88493" lon="8.55193">
        <ele>1277</ele>
        <time>2021-08-10T14:43:09.102Z</time>
      </trkpt>
      <trkpt lat="46.88492" lon="8.55193">
        <ele>1278</ele>
        <time>2021-08-10T14:43:10.103Z</time>
      </trkpt>
      <trkpt lat="46.88491" lon="8.55192">
        <ele>1278</ele>
        <time>2021-08-10T14:43:39.959Z</time>
      </trkpt>
      <trkpt lat="46.88491" lon="8.55192">
        <ele>1279</ele>
        <time>2021-08-10T14:43:40.960Z</time>
      </trkpt>
      <trkpt lat="46.8849" lon="8.55191">
        <ele>1280</ele>
        <time>2021-08-10T14:43:41.959Z</time>
      </trkpt>
      <trkpt lat="46.8849" lon="8.55191">
        <ele>1280</ele>
        <time>2021-08-10T14:43:42.959Z</time>
      </trkpt>
      <trkpt lat="46.8849" lon="8.5519">
        <ele>1281</ele>
        <time>2021-08-10T14:43:43.959Z</time>
      </trkpt>
      <trkpt lat="46.88489" lon="8.5519">
        <ele>1281</ele>
        <time>2021-08-10T14:43:44.960Z</time>
      </trkpt>
      <trkpt lat="46.88489" lon="8.5519">
        <ele>1282</ele>
        <time>2021-08-10T14:43:45.960Z</time>
      </trkpt>
      <trkpt lat="46.88489" lon="8.55189">
        <ele>1282</ele>
        <time>2021-08-10T14:43:46.960Z</time>
      </trkpt>
      <trkpt lat="46.88488" lon="8.55189">
        <ele>1283</ele>
        <time>2021-08-10T14:43:47.960Z</time>
      </trkpt>
      <trkpt lat="46.88488" lon="8.55188">
        <ele>1283</ele>
        <time>2021-08-10T14:43:56.081Z</time>
      </trkpt>
      <trkpt lat="46.88488" lon="8.55187">
        <ele>1284</ele>
        <time>2021-08-10T14:43:57.081Z</time>
      </trkpt>
      <trkpt lat="46.88488" lon="8.55187">
        <ele>1284</ele>
        <time>2021-08-10T14:44:05.837Z</time>
      </trkpt>
      <trkpt lat="46.88489" lon="8.55186">
        <ele>1284</ele>
        <time>2021-08-10T14:44:06.837Z</time>
      </trkpt>
      <trkpt lat="46.88489" lon="8.55186">
        <ele>1285</ele>
        <time>2021-08-10T14:44:07.836Z</time>
      </trkpt>
      <trkpt lat="46.8849" lon="8.55186">
        <ele>1285</ele>
        <time>2021-08-10T14:44:13.706Z</time>
      </trkpt>
      <trkpt lat="46.8849" lon="8.55185">
        <ele>1285</ele>
        <time>2021-08-10T14:44:14.706Z</time>
      </trkpt>
      <trkpt lat="46.8849" lon="8.55184">
        <ele>1286</ele>
        <time>2021-08-10T14:44:15.706Z</time>
      </trkpt>
      <trkpt lat="46.88489" lon="8.55183">
        <ele>1286</ele>
        <time>2021-08-10T14:44:26.866Z</time>
      </trkpt>
      <trkpt lat="46.88488" lon="8.55182">
        <ele>1286</ele>
        <time>2021-08-10T14:44:27.867Z</time>
      </trkpt>
      <trkpt lat="46.88488" lon="8.55181">
        <ele>1286</ele>
        <time>2021-08-10T14:44:28.867Z</time>
      </trkpt>
      <trkpt lat="46.88487" lon="8.55181">
        <ele>1286</ele>
        <time>2021-08-10T14:44:29.867Z</time>
      </trkpt>
      <trkpt lat="46.88486" lon="8.55181">
        <ele>1286</ele>
        <time>2021-08-10T14:44:34.990Z</time>
      </trkpt>
      <trkpt lat="46.88486" lon="8.55181">
        <ele>1286</ele>
        <time>2021-08-10T14:44:35.989Z</time>
      </trkpt>
      <trkpt lat="46.88485" lon="8.55181">
        <ele>1286</ele>
        <time>2021-08-10T14:44:36.989Z</time>
      </trkpt>
      <trkpt lat="46.88485" lon="8.55181">
        <ele>1287</ele>
        <time>2021-08-10T14:44:47.080Z</time>
      </trkpt>
      <trkpt lat="46.88483" lon="8.55181">
        <ele>1287</ele>
        <time>2021-08-10T14:44:48.080Z</time>
      </trkpt>
      <trkpt lat="46.88482" lon="8.55182">
        <ele>1287</ele>
        <time>2021-08-10T14:44:49.080Z</time>
      </trkpt>
      <trkpt lat="46.88481" lon="8.55182">
        <ele>1287</ele>
        <time>2021-08-10T14:44:50.080Z</time>
      </trkpt>
      <trkpt lat="46.88481" lon="8.55181">
        <ele>1287</ele>
        <time>2021-08-10T14:45:22.111Z</time>
      </trkpt>
      <trkpt lat="46.8848" lon="8.5518">
        <ele>1287</ele>
        <time>2021-08-10T14:45:23.110Z</time>
      </trkpt>
      <trkpt lat="46.8848" lon="8.55178">
        <ele>1287</ele>
        <time>2021-08-10T14:45:24.110Z</time>
      </trkpt>
      <trkpt lat="46.8848" lon="8.55176">
        <ele>1287</ele>
        <time>2021-08-10T14:45:33.210Z</time>
      </trkpt>
      <trkpt lat="46.8848" lon="8.55175">
        <ele>1288</ele>
        <time>2021-08-10T14:45:34.210Z</time>
      </trkpt>
      <trkpt lat="46.8848" lon="8.55174">
        <ele>1288</ele>
        <time>2021-08-10T14:45:35.210Z</time>
      </trkpt>
      <trkpt lat="46.88479" lon="8.55174">
        <ele>1288</ele>
        <time>2021-08-10T14:45:36.209Z</time>
      </trkpt>
      <trkpt lat="46.88478" lon="8.55173">
        <ele>1288</ele>
        <time>2021-08-10T14:45:37.209Z</time>
      </trkpt>
      <trkpt lat="46.88477" lon="8.55173">
        <ele>1288</ele>
        <time>2021-08-10T14:45:38.210Z</time>
      </trkpt>
      <trkpt lat="46.88476" lon="8.55173">
        <ele>1288</ele>
        <time>2021-08-10T14:45:39.209Z</time>
      </trkpt>
      <trkpt lat="46.88476" lon="8.55172">
        <ele>1288</ele>
        <time>2021-08-10T14:45:53.382Z</time>
      </trkpt>
      <trkpt lat="46.88475" lon="8.55172">
        <ele>1288</ele>
        <time>2021-08-10T14:45:54.381Z</time>
      </trkpt>
      <trkpt lat="46.88474" lon="8.55172">
        <ele>1288</ele>
        <time>2021-08-10T14:45:55.381Z</time>
      </trkpt>
      <trkpt lat="46.88473" lon="8.55171">
        <ele>1288</ele>
        <time>2021-08-10T14:45:56.381Z</time>
      </trkpt>
      <trkpt lat="46.88472" lon="8.55171">
        <ele>1288</ele>
        <time>2021-08-10T14:45:57.382Z</time>
      </trkpt>
      <trkpt lat="46.88472" lon="8.55171">
        <ele>1288</ele>
        <time>2021-08-10T14:45:58.381Z</time>
      </trkpt>
      <trkpt lat="46.88472" lon="8.5517">
        <ele>1288</ele>
        <time>2021-08-10T14:46:34.459Z</time>
      </trkpt>
      <trkpt lat="46.88471" lon="8.55169">
        <ele>1288</ele>
        <time>2021-08-10T14:46:35.459Z</time>
      </trkpt>
      <trkpt lat="46.88471" lon="8.55167">
        <ele>1288</ele>
        <time>2021-08-10T14:46:36.460Z</time>
      </trkpt>
      <trkpt lat="46.8847" lon="8.55168">
        <ele>1288</ele>
        <time>2021-08-10T14:46:55.637Z</time>
      </trkpt>
      <trkpt lat="46.88469" lon="8.55168">
        <ele>1288</ele>
        <time>2021-08-10T14:46:56.638Z</time>
      </trkpt>
      <trkpt lat="46.88469" lon="8.55169">
        <ele>1287</ele>
        <time>2021-08-10T14:46:57.637Z</time>
      </trkpt>
      <trkpt lat="46.88469" lon="8.55169">
        <ele>1287</ele>
        <time>2021-08-10T14:46:58.637Z</time>
      </trkpt>
      <trkpt lat="46.88468" lon="8.5517">
        <ele>1287</ele>
        <time>2021-08-10T14:46:59.638Z</time>
      </trkpt>
      <trkpt lat="46.88468" lon="8.5517">
        <ele>1287</ele>
        <time>2021-08-10T14:47:07.721Z</time>
      </trkpt>
      <trkpt lat="46.88468" lon="8.55171">
        <ele>1287</ele>
        <time>2021-08-10T14:47:24.616Z</time>
      </trkpt>
      <trkpt lat="46.88468" lon="8.55171">
        <ele>1287</ele>
        <time>2021-08-10T14:48:17.466Z</time>
      </trkpt>
      <trkpt lat="46.88467" lon="8.55171">
        <ele>1287</ele>
        <time>2021-08-10T14:48:18.466Z</time>
      </trkpt>
      <trkpt lat="46.88467" lon="8.5517">
        <ele>1287</ele>
        <time>2021-08-10T14:48:43.344Z</time>
      </trkpt>
      <trkpt lat="46.88467" lon="8.5517">
        <ele>1287</ele>
        <time>2021-08-10T14:48:44.344Z</time>
      </trkpt>
      <trkpt lat="46.88466" lon="8.55169">
        <ele>1287</ele>
        <time>2021-08-10T14:48:45.344Z</time>
      </trkpt>
      <trkpt lat="46.88466" lon="8.55168">
        <ele>1287</ele>
        <time>2021-08-10T14:48:46.343Z</time>
      </trkpt>
      <trkpt lat="46.88465" lon="8.55168">
        <ele>1287</ele>
        <time>2021-08-10T14:48:54.447Z</time>
      </trkpt>
      <trkpt lat="46.88465" lon="8.55168">
        <ele>1287</ele>
        <time>2021-08-10T14:48:55.448Z</time>
      </trkpt>
      <trkpt lat="46.88465" lon="8.55168">
        <ele>1288</ele>
        <time>2021-08-10T14:48:56.447Z</time>
      </trkpt>
      <trkpt lat="46.88464" lon="8.55168">
        <ele>1288</ele>
        <time>2021-08-10T14:48:57.447Z</time>
      </trkpt>
      <trkpt lat="46.88464" lon="8.55168">
        <ele>1288</ele>
        <time>2021-08-10T14:48:58.447Z</time>
      </trkpt>
      <trkpt lat="46.88463" lon="8.55169">
        <ele>1288</ele>
        <time>2021-08-10T14:48:59.447Z</time>
      </trkpt>
      <trkpt lat="46.88462" lon="8.5517">
        <ele>1289</ele>
        <time>2021-08-10T14:49:00.447Z</time>
      </trkpt>
      <trkpt lat="46.88462" lon="8.55171">
        <ele>1289</ele>
        <time>2021-08-10T14:49:01.448Z</time>
      </trkpt>
      <trkpt lat="46.88461" lon="8.55172">
        <ele>1289</ele>
        <time>2021-08-10T14:49:02.448Z</time>
      </trkpt>
      <trkpt lat="46.88461" lon="8.55173">
        <ele>1289</ele>
        <time>2021-08-10T14:49:28.493Z</time>
      </trkpt>
      <trkpt lat="46.88461" lon="8.55174">
        <ele>1289</ele>
        <time>2021-08-10T14:49:35.361Z</time>
      </trkpt>
      <trkpt lat="46.8846" lon="8.55175">
        <ele>1289</ele>
        <time>2021-08-10T14:49:36.361Z</time>
      </trkpt>
      <trkpt lat="46.8846" lon="8.55176">
        <ele>1289</ele>
        <time>2021-08-10T14:49:37.362Z</time>
      </trkpt>
      <trkpt lat="46.8846" lon="8.55176">
        <ele>1288</ele>
        <time>2021-08-10T14:49:40.349Z</time>
      </trkpt>
      <trkpt lat="46.8846" lon="8.55177">
        <ele>1288</ele>
        <time>2021-08-10T14:49:41.350Z</time>
      </trkpt>
      <trkpt lat="46.88459" lon="8.55177">
        <ele>1288</ele>
        <time>2021-08-10T14:49:42.349Z</time>
      </trkpt>
      <trkpt lat="46.88459" lon="8.55178">
        <ele>1288</ele>
        <time>2021-08-10T14:49:43.350Z</time>
      </trkpt>
      <trkpt lat="46.88458" lon="8.55178">
        <ele>1288</ele>
        <time>2021-08-10T14:49:44.349Z</time>
      </trkpt>
      <trkpt lat="46.88457" lon="8.55178">
        <ele>1288</ele>
        <time>2021-08-10T14:49:45.349Z</time>
      </trkpt>
      <trkpt lat="46.88456" lon="8.55178">
        <ele>1288</ele>
        <time>2021-08-10T14:50:07.504Z</time>
      </trkpt>
      <trkpt lat="46.88455" lon="8.55179">
        <ele>1288</ele>
        <time>2021-08-10T14:50:08.504Z</time>
      </trkpt>
      <trkpt lat="46.88455" lon="8.5518">
        <ele>1288</ele>
        <time>2021-08-10T14:50:22.344Z</time>
      </trkpt>
      <trkpt lat="46.88454" lon="8.55181">
        <ele>1288</ele>
        <time>2021-08-10T14:50:38.134Z</time>
      </trkpt>
      <trkpt lat="46.88453" lon="8.55181">
        <ele>1289</ele>
        <time>2021-08-10T14:50:39.134Z</time>
      </trkpt>
      <trkpt lat="46.88453" lon="8.55181">
        <ele>1289</ele>
        <time>2021-08-10T14:50:40.134Z</time>
      </trkpt>
      <trkpt lat="46.88453" lon="8.5518">
        <ele>1289</ele>
        <time>2021-08-10T14:50:53.192Z</time>
      </trkpt>
      <trkpt lat="46.88452" lon="8.5518">
        <ele>1289</ele>
        <time>2021-08-10T14:50:54.191Z</time>
      </trkpt>
      <trkpt lat="46.88452" lon="8.5518">
        <ele>1290</ele>
        <time>2021-08-10T14:51:01.943Z</time>
      </trkpt>
      <trkpt lat="46.88451" lon="8.5518">
        <ele>1290</ele>
        <time>2021-08-10T14:51:02.943Z</time>
      </trkpt>
      <trkpt lat="46.88451" lon="8.55181">
        <ele>1291</ele>
        <time>2021-08-10T14:51:03.943Z</time>
      </trkpt>
      <trkpt lat="46.88451" lon="8.55181">
        <ele>1291</ele>
        <time>2021-08-10T14:51:04.943Z</time>
      </trkpt>
      <trkpt lat="46.88451" lon="8.55182">
        <ele>1292</ele>
        <time>2021-08-10T14:51:05.943Z</time>
      </trkpt>
      <trkpt lat="46.88451" lon="8.55182">
        <ele>1293</ele>
        <time>2021-08-10T14:51:41.080Z</time>
      </trkpt>
      <trkpt lat="46.8845" lon="8.55182">
        <ele>1293</ele>
        <time>2021-08-10T14:51:42.080Z</time>
      </trkpt>
      <trkpt lat="46.8845" lon="8.55181">
        <ele>1294</ele>
        <time>2021-08-10T14:51:56.841Z</time>
      </trkpt>
      <trkpt lat="46.8845" lon="8.55181">
        <ele>1295</ele>
        <time>2021-08-10T14:51:57.840Z</time>
      </trkpt>
      <trkpt lat="46.88449" lon="8.55181">
        <ele>1296</ele>
        <time>2021-08-10T14:52:05.944Z</time>
      </trkpt>
      <trkpt lat="46.88448" lon="8.55181">
        <ele>1296</ele>
        <time>2021-08-10T14:52:06.944Z</time>
      </trkpt>
      <trkpt lat="46.88447" lon="8.5518">
        <ele>1296</ele>
        <time>2021-08-10T14:52:07.944Z</time>
      </trkpt>
      <trkpt lat="46.88448" lon="8.55179">
        <ele>1297</ele>
        <time>2021-08-10T14:52:17.728Z</time>
      </trkpt>
      <trkpt lat="46.88448" lon="8.55178">
        <ele>1297</ele>
        <time>2021-08-10T14:52:58.571Z</time>
      </trkpt>
      <trkpt lat="46.88447" lon="8.55176">
        <ele>1297</ele>
        <time>2021-08-10T14:53:07.382Z</time>
      </trkpt>
      <trkpt lat="46.88446" lon="8.55177">
        <ele>1297</ele>
        <time>2021-08-10T14:53:08.382Z</time>
      </trkpt>
      <trkpt lat="46.88445" lon="8.55177">
        <ele>1297</ele>
        <time>2021-08-10T14:53:09.382Z</time>
      </trkpt>
      <trkpt lat="46.88444" lon="8.55177">
        <ele>1298</ele>
        <time>2021-08-10T14:53:30.449Z</time>
      </trkpt>
      <trkpt lat="46.88444" lon="8.55177">
        <ele>1298</ele>
        <time>2021-08-10T14:53:31.450Z</time>
      </trkpt>
      <trkpt lat="46.88444" lon="8.55177">
        <ele>1298</ele>
        <time>2021-08-10T14:53:32.450Z</time>
      </trkpt>
      <trkpt lat="46.88445" lon="8.55177">
        <ele>1299</ele>
        <time>2021-08-10T14:53:53.571Z</time>
      </trkpt>
      <trkpt lat="46.88445" lon="8.55177">
        <ele>1299</ele>
        <time>2021-08-10T14:53:54.571Z</time>
      </trkpt>
      <trkpt lat="46.88445" lon="8.55177">
        <ele>1300</ele>
        <time>2021-08-10T14:54:06.352Z</time>
      </trkpt>
      <trkpt lat="46.88446" lon="8.55177">
        <ele>1300</ele>
        <time>2021-08-10T14:54:15.079Z</time>
      </trkpt>
      <trkpt lat="46.88446" lon="8.55176">
        <ele>1300</ele>
        <time>2021-08-10T14:54:16.079Z</time>
      </trkpt>
      <trkpt lat="46.88447" lon="8.55176">
        <ele>1301</ele>
        <time>2021-08-10T14:54:17.080Z</time>
      </trkpt>
      <trkpt lat="46.88448" lon="8.55175">
        <ele>1301</ele>
        <time>2021-08-10T14:54:18.080Z</time>
      </trkpt>
      <trkpt lat="46.88448" lon="8.55174">
        <ele>1301</ele>
        <time>2021-08-10T14:54:19.080Z</time>
      </trkpt>
      <trkpt lat="46.88448" lon="8.55173">
        <ele>1301</ele>
        <time>2021-08-10T14:54:26.207Z</time>
      </trkpt>
      <trkpt lat="46.88448" lon="8.55172">
        <ele>1301</ele>
        <time>2021-08-10T14:54:27.208Z</time>
      </trkpt>
      <trkpt lat="46.88448" lon="8.55172">
        <ele>1301</ele>
        <time>2021-08-10T14:54:28.208Z</time>
      </trkpt>
      <trkpt lat="46.88447" lon="8.55173">
        <ele>1301</ele>
        <time>2021-08-10T14:54:30.336Z</time>
      </trkpt>
      <trkpt lat="46.88446" lon="8.55173">
        <ele>1302</ele>
        <time>2021-08-10T14:54:31.336Z</time>
      </trkpt>
      <trkpt lat="46.88446" lon="8.55173">
        <ele>1302</ele>
        <time>2021-08-10T14:54:32.335Z</time>
      </trkpt>
      <trkpt lat="46.88445" lon="8.55173">
        <ele>1302</ele>
        <time>2021-08-10T14:54:33.335Z</time>
      </trkpt>
      <trkpt lat="46.88445" lon="8.55172">
        <ele>1302</ele>
        <time>2021-08-10T14:54:38.479Z</time>
      </trkpt>
      <trkpt lat="46.88444" lon="8.55172">
        <ele>1302</ele>
        <time>2021-08-10T14:54:39.479Z</time>
      </trkpt>
      <trkpt lat="46.88444" lon="8.55172">
        <ele>1302</ele>
        <time>2021-08-10T14:54:40.479Z</time>
      </trkpt>
      <trkpt lat="46.88443" lon="8.55172">
        <ele>1302</ele>
        <time>2021-08-10T14:54:41.479Z</time>
      </trkpt>
      <trkpt lat="46.88443" lon="8.55172">
        <ele>1302</ele>
        <time>2021-08-10T14:54:42.479Z</time>
      </trkpt>
      <trkpt lat="46.88442" lon="8.55171">
        <ele>1303</ele>
        <time>2021-08-10T14:54:50.584Z</time>
      </trkpt>
      <trkpt lat="46.88441" lon="8.5517">
        <ele>1303</ele>
        <time>2021-08-10T14:54:51.583Z</time>
      </trkpt>
      <trkpt lat="46.88439" lon="8.55169">
        <ele>1303</ele>
        <time>2021-08-10T14:55:02.369Z</time>
      </trkpt>
      <trkpt lat="46.88438" lon="8.55168">
        <ele>1303</ele>
        <time>2021-08-10T14:55:03.369Z</time>
      </trkpt>
      <trkpt lat="46.88436" lon="8.55168">
        <ele>1304</ele>
        <time>2021-08-10T14:55:05.192Z</time>
      </trkpt>
      <trkpt lat="46.88435" lon="8.55168">
        <ele>1304</ele>
        <time>2021-08-10T14:55:13.938Z</time>
      </trkpt>
      <trkpt lat="46.88435" lon="8.55169">
        <ele>1305</ele>
        <time>2021-08-10T14:55:14.938Z</time>
      </trkpt>
      <trkpt lat="46.88434" lon="8.55169">
        <ele>1305</ele>
        <time>2021-08-10T14:55:17.793Z</time>
      </trkpt>
      <trkpt lat="46.88432" lon="8.55169">
        <ele>1306</ele>
        <time>2021-08-10T14:55:34.561Z</time>
      </trkpt>
      <trkpt lat="46.88431" lon="8.5517">
        <ele>1306</ele>
        <time>2021-08-10T14:55:35.561Z</time>
      </trkpt>
      <trkpt lat="46.88429" lon="8.5517">
        <ele>1307</ele>
        <time>2021-08-10T14:55:39.331Z</time>
      </trkpt>
      <trkpt lat="46.88428" lon="8.5517">
        <ele>1307</ele>
        <time>2021-08-10T14:55:40.332Z</time>
      </trkpt>
      <trkpt lat="46.88428" lon="8.5517">
        <ele>1307</ele>
        <time>2021-08-10T14:55:41.331Z</time>
      </trkpt>
      <trkpt lat="46.88428" lon="8.5517">
        <ele>1308</ele>
        <time>2021-08-10T14:55:42.331Z</time>
      </trkpt>
      <trkpt lat="46.88427" lon="8.5517">
        <ele>1309</ele>
        <time>2021-08-10T14:55:43.332Z</time>
      </trkpt>
      <trkpt lat="46.88426" lon="8.5517">
        <ele>1310</ele>
        <time>2021-08-10T14:55:58.475Z</time>
      </trkpt>
      <trkpt lat="46.88424" lon="8.55169">
        <ele>1310</ele>
        <time>2021-08-10T14:55:59.474Z</time>
      </trkpt>
      <trkpt lat="46.88424" lon="8.55168">
        <ele>1311</ele>
        <time>2021-08-10T14:56:00.474Z</time>
      </trkpt>
      <trkpt lat="46.88423" lon="8.55166">
        <ele>1311</ele>
        <time>2021-08-10T14:56:01.475Z</time>
      </trkpt>
      <trkpt lat="46.88423" lon="8.55165">
        <ele>1311</ele>
        <time>2021-08-10T14:56:02.474Z</time>
      </trkpt>
      <trkpt lat="46.88423" lon="8.55164">
        <ele>1312</ele>
        <time>2021-08-10T14:56:03.474Z</time>
      </trkpt>
      <trkpt lat="46.88423" lon="8.55164">
        <ele>1312</ele>
        <time>2021-08-10T14:56:04.475Z</time>
      </trkpt>
      <trkpt lat="46.88422" lon="8.55164">
        <ele>1312</ele>
        <time>2021-08-10T14:56:05.475Z</time>
      </trkpt>
      <trkpt lat="46.88422" lon="8.55163">
        <ele>1313</ele>
        <time>2021-08-10T14:56:06.475Z</time>
      </trkpt>
      <trkpt lat="46.88421" lon="8.55163">
        <ele>1313</ele>
        <time>2021-08-10T14:56:07.475Z</time>
      </trkpt>
      <trkpt lat="46.8842" lon="8.55163">
        <ele>1314</ele>
        <time>2021-08-10T14:56:08.475Z</time>
      </trkpt>
      <trkpt lat="46.8842" lon="8.55162">
        <ele>1314</ele>
        <time>2021-08-10T14:56:09.475Z</time>
      </trkpt>
      <trkpt lat="46.8842" lon="8.55161">
        <ele>1315</ele>
        <time>2021-08-10T14:56:10.475Z</time>
      </trkpt>
      <trkpt lat="46.8842" lon="8.55159">
        <ele>1315</ele>
        <time>2021-08-10T14:56:11.474Z</time>
      </trkpt>
      <trkpt lat="46.8842" lon="8.55157">
        <ele>1316</ele>
        <time>2021-08-10T14:56:12.474Z</time>
      </trkpt>
      <trkpt lat="46.8842" lon="8.55156">
        <ele>1316</ele>
        <time>2021-08-10T14:56:13.475Z</time>
      </trkpt>
      <trkpt lat="46.8842" lon="8.55155">
        <ele>1316</ele>
        <time>2021-08-10T14:56:14.474Z</time>
      </trkpt>
      <trkpt lat="46.8842" lon="8.55154">
        <ele>1316</ele>
        <time>2021-08-10T14:56:15.475Z</time>
      </trkpt>
      <trkpt lat="46.88421" lon="8.55154">
        <ele>1317</ele>
        <time>2021-08-10T14:56:16.474Z</time>
      </trkpt>
      <trkpt lat="46.88423" lon="8.55153">
        <ele>1317</ele>
        <time>2021-08-10T14:56:17.474Z</time>
      </trkpt>
      <trkpt lat="46.88424" lon="8.55153">
        <ele>1317</ele>
        <time>2021-08-10T14:56:18.475Z</time>
      </trkpt>
      <trkpt lat="46.88424" lon="8.55151">
        <ele>1318</ele>
        <time>2021-08-10T14:56:27.557Z</time>
      </trkpt>
      <trkpt lat="46.88425" lon="8.5515">
        <ele>1318</ele>
        <time>2021-08-10T14:56:28.558Z</time>
      </trkpt>
      <trkpt lat="46.88426" lon="8.5515">
        <ele>1319</ele>
        <time>2021-08-10T14:56:34.317Z</time>
      </trkpt>
      <trkpt lat="46.88426" lon="8.55149">
        <ele>1320</ele>
        <time>2021-08-10T14:56:35.317Z</time>
      </trkpt>
      <trkpt lat="46.88427" lon="8.55149">
        <ele>1320</ele>
        <time>2021-08-10T14:56:36.316Z</time>
      </trkpt>
      <trkpt lat="46.88429" lon="8.55148">
        <ele>1321</ele>
        <time>2021-08-10T14:56:37.316Z</time>
      </trkpt>
      <trkpt lat="46.8843" lon="8.55146">
        <ele>1322</ele>
        <time>2021-08-10T14:56:38.317Z</time>
      </trkpt>
      <trkpt lat="46.88429" lon="8.55145">
        <ele>1322</ele>
        <time>2021-08-10T14:56:47.309Z</time>
      </trkpt>
      <trkpt lat="46.88429" lon="8.55144">
        <ele>1322</ele>
        <time>2021-08-10T14:56:48.309Z</time>
      </trkpt>
      <trkpt lat="46.88428" lon="8.55143">
        <ele>1322</ele>
        <time>2021-08-10T14:56:49.310Z</time>
      </trkpt>
      <trkpt lat="46.88429" lon="8.55142">
        <ele>1322</ele>
        <time>2021-08-10T14:56:50.310Z</time>
      </trkpt>
      <trkpt lat="46.88429" lon="8.55142">
        <ele>1322</ele>
        <time>2021-08-10T14:56:51.310Z</time>
      </trkpt>
      <trkpt lat="46.88429" lon="8.55142">
        <ele>1322</ele>
        <time>2021-08-10T14:56:52.310Z</time>
      </trkpt>
      <trkpt lat="46.8843" lon="8.55142">
        <ele>1321</ele>
        <time>2021-08-10T14:56:53.310Z</time>
      </trkpt>
      <trkpt lat="46.8843" lon="8.55141">
        <ele>1320</ele>
        <time>2021-08-10T14:56:54.311Z</time>
      </trkpt>
      <trkpt lat="46.8843" lon="8.55141">
        <ele>1320</ele>
        <time>2021-08-10T14:56:55.310Z</time>
      </trkpt>
      <trkpt lat="46.88431" lon="8.55141">
        <ele>1320</ele>
        <time>2021-08-10T14:56:56.310Z</time>
      </trkpt>
      <trkpt lat="46.88432" lon="8.5514">
        <ele>1319</ele>
        <time>2021-08-10T14:56:57.311Z</time>
      </trkpt>
      <trkpt lat="46.88432" lon="8.5514">
        <ele>1319</ele>
        <time>2021-08-10T14:56:58.310Z</time>
      </trkpt>
      <trkpt lat="46.88432" lon="8.55139">
        <ele>1319</ele>
        <time>2021-08-10T14:56:59.310Z</time>
      </trkpt>
      <trkpt lat="46.88433" lon="8.55139">
        <ele>1319</ele>
        <time>2021-08-10T14:57:00.310Z</time>
      </trkpt>
      <trkpt lat="46.88433" lon="8.55138">
        <ele>1318</ele>
        <time>2021-08-10T14:57:01.311Z</time>
      </trkpt>
      <trkpt lat="46.88434" lon="8.55137">
        <ele>1318</ele>
        <time>2021-08-10T14:57:02.310Z</time>
      </trkpt>
      <trkpt lat="46.88434" lon="8.55137">
        <ele>1317</ele>
        <time>2021-08-10T14:57:03.310Z</time>
      </trkpt>
      <trkpt lat="46.88435" lon="8.55136">
        <ele>1317</ele>
        <time>2021-08-10T14:57:04.310Z</time>
      </trkpt>
      <trkpt lat="46.88435" lon="8.55135">
        <ele>1316</ele>
        <time>2021-08-10T14:57:05.310Z</time>
      </trkpt>
      <trkpt lat="46.88435" lon="8.55134">
        <ele>1316</ele>
        <time>2021-08-10T14:57:06.310Z</time>
      </trkpt>
      <trkpt lat="46.88435" lon="8.55134">
        <ele>1315</ele>
        <time>2021-08-10T14:57:07.310Z</time>
      </trkpt>
      <trkpt lat="46.88434" lon="8.55133">
        <ele>1315</ele>
        <time>2021-08-10T14:57:08.311Z</time>
      </trkpt>
      <trkpt lat="46.88433" lon="8.55133">
        <ele>1315</ele>
        <time>2021-08-10T14:57:09.311Z</time>
      </trkpt>
      <trkpt lat="46.88432" lon="8.55133">
        <ele>1315</ele>
        <time>2021-08-10T14:57:15.456Z</time>
      </trkpt>
      <trkpt lat="46.8843" lon="8.55134">
        <ele>1315</ele>
        <time>2021-08-10T14:57:16.455Z</time>
      </trkpt>
      <trkpt lat="46.8843" lon="8.55134">
        <ele>1315</ele>
        <time>2021-08-10T14:57:17.456Z</time>
      </trkpt>
      <trkpt lat="46.88428" lon="8.55135">
        <ele>1315</ele>
        <time>2021-08-10T14:57:18.455Z</time>
      </trkpt>
      <trkpt lat="46.88427" lon="8.55135">
        <ele>1315</ele>
        <time>2021-08-10T14:57:19.456Z</time>
      </trkpt>
      <trkpt lat="46.88426" lon="8.55136">
        <ele>1315</ele>
        <time>2021-08-10T14:57:20.455Z</time>
      </trkpt>
      <trkpt lat="46.88425" lon="8.55137">
        <ele>1314</ele>
        <time>2021-08-10T14:57:21.456Z</time>
      </trkpt>
      <trkpt lat="46.88424" lon="8.55137">
        <ele>1314</ele>
        <time>2021-08-10T14:57:22.456Z</time>
      </trkpt>
      <trkpt lat="46.88423" lon="8.55138">
        <ele>1314</ele>
        <time>2021-08-10T14:57:23.456Z</time>
      </trkpt>
      <trkpt lat="46.88423" lon="8.55139">
        <ele>1313</ele>
        <time>2021-08-10T14:57:24.456Z</time>
      </trkpt>
      <trkpt lat="46.88422" lon="8.5514">
        <ele>1313</ele>
        <time>2021-08-10T14:57:25.456Z</time>
      </trkpt>
      <trkpt lat="46.8842" lon="8.5514">
        <ele>1313</ele>
        <time>2021-08-10T14:57:26.456Z</time>
      </trkpt>
      <trkpt lat="46.88418" lon="8.55139">
        <ele>1313</ele>
        <time>2021-08-10T14:57:27.455Z</time>
      </trkpt>
      <trkpt lat="46.88417" lon="8.55139">
        <ele>1312</ele>
        <time>2021-08-10T14:57:28.456Z</time>
      </trkpt>
      <trkpt lat="46.88416" lon="8.5514">
        <ele>1312</ele>
        <time>2021-08-10T14:57:29.456Z</time>
      </trkpt>
      <trkpt lat="46.88415" lon="8.5514">
        <ele>1312</ele>
        <time>2021-08-10T14:57:30.455Z</time>
      </trkpt>
      <trkpt lat="46.88414" lon="8.5514">
        <ele>1312</ele>
        <time>2021-08-10T14:57:31.456Z</time>
      </trkpt>
      <trkpt lat="46.88413" lon="8.55142">
        <ele>1312</ele>
        <time>2021-08-10T14:57:32.456Z</time>
      </trkpt>
      <trkpt lat="46.88412" lon="8.55143">
        <ele>1311</ele>
        <time>2021-08-10T14:57:33.455Z</time>
      </trkpt>
      <trkpt lat="46.88412" lon="8.55143">
        <ele>1311</ele>
        <time>2021-08-10T14:57:34.456Z</time>
      </trkpt>
      <trkpt lat="46.88412" lon="8.55143">
        <ele>1311</ele>
        <time>2021-08-10T14:57:39.598Z</time>
      </trkpt>
      <trkpt lat="46.88412" lon="8.55144">
        <ele>1311</ele>
        <time>2021-08-10T14:57:40.598Z</time>
      </trkpt>
      <trkpt lat="46.88412" lon="8.55144">
        <ele>1311</ele>
        <time>2021-08-10T14:57:41.598Z</time>
      </trkpt>
      <trkpt lat="46.88411" lon="8.55144">
        <ele>1311</ele>
        <time>2021-08-10T14:57:42.598Z</time>
      </trkpt>
      <trkpt lat="46.88411" lon="8.55145">
        <ele>1311</ele>
        <time>2021-08-10T14:57:43.598Z</time>
      </trkpt>
      <trkpt lat="46.88411" lon="8.55146">
        <ele>1311</ele>
        <time>2021-08-10T14:57:44.597Z</time>
      </trkpt>
      <trkpt lat="46.8841" lon="8.55146">
        <ele>1311</ele>
        <time>2021-08-10T14:57:45.597Z</time>
      </trkpt>
      <trkpt lat="46.8841" lon="8.55147">
        <ele>1312</ele>
        <time>2021-08-10T14:57:46.598Z</time>
      </trkpt>
      <trkpt lat="46.8841" lon="8.55147">
        <ele>1313</ele>
        <time>2021-08-10T14:57:47.598Z</time>
      </trkpt>
      <trkpt lat="46.88409" lon="8.55147">
        <ele>1314</ele>
        <time>2021-08-10T14:57:48.597Z</time>
      </trkpt>
      <trkpt lat="46.88408" lon="8.55146">
        <ele>1314</ele>
        <time>2021-08-10T14:57:49.597Z</time>
      </trkpt>
      <trkpt lat="46.88407" lon="8.55145">
        <ele>1315</ele>
        <time>2021-08-10T14:57:51.702Z</time>
      </trkpt>
      <trkpt lat="46.88407" lon="8.55144">
        <ele>1315</ele>
        <time>2021-08-10T14:57:52.702Z</time>
      </trkpt>
      <trkpt lat="46.88407" lon="8.55143">
        <ele>1316</ele>
        <time>2021-08-10T14:57:53.702Z</time>
      </trkpt>
      <trkpt lat="46.88406" lon="8.55142">
        <ele>1316</ele>
        <time>2021-08-10T14:57:54.702Z</time>
      </trkpt>
      <trkpt lat="46.88407" lon="8.55141">
        <ele>1317</ele>
        <time>2021-08-10T14:57:55.702Z</time>
      </trkpt>
      <trkpt lat="46.88407" lon="8.5514">
        <ele>1317</ele>
        <time>2021-08-10T14:57:56.702Z</time>
      </trkpt>
      <trkpt lat="46.88408" lon="8.55139">
        <ele>1317</ele>
        <time>2021-08-10T14:57:57.701Z</time>
      </trkpt>
      <trkpt lat="46.88408" lon="8.55138">
        <ele>1317</ele>
        <time>2021-08-10T14:57:58.702Z</time>
      </trkpt>
      <trkpt lat="46.88409" lon="8.55138">
        <ele>1317</ele>
        <time>2021-08-10T14:57:59.701Z</time>
      </trkpt>
      <trkpt lat="46.8841" lon="8.55137">
        <ele>1317</ele>
        <time>2021-08-10T14:58:10.806Z</time>
      </trkpt>
      <trkpt lat="46.88411" lon="8.55136">
        <ele>1317</ele>
        <time>2021-08-10T14:58:11.806Z</time>
      </trkpt>
      <trkpt lat="46.88412" lon="8.55135">
        <ele>1317</ele>
        <time>2021-08-10T14:58:12.806Z</time>
      </trkpt>
      <trkpt lat="46.88413" lon="8.55134">
        <ele>1317</ele>
        <time>2021-08-10T14:58:13.806Z</time>
      </trkpt>
      <trkpt lat="46.88414" lon="8.55133">
        <ele>1316</ele>
        <time>2021-08-10T14:58:14.806Z</time>
      </trkpt>
      <trkpt lat="46.88414" lon="8.55132">
        <ele>1316</ele>
        <time>2021-08-10T14:58:15.805Z</time>
      </trkpt>
      <trkpt lat="46.88415" lon="8.55131">
        <ele>1316</ele>
        <time>2021-08-10T14:58:16.806Z</time>
      </trkpt>
      <trkpt lat="46.88415" lon="8.55131">
        <ele>1316</ele>
        <time>2021-08-10T14:58:17.806Z</time>
      </trkpt>
      <trkpt lat="46.88415" lon="8.5513">
        <ele>1316</ele>
        <time>2021-08-10T14:58:18.805Z</time>
      </trkpt>
      <trkpt lat="46.88414" lon="8.55129">
        <ele>1316</ele>
        <time>2021-08-10T14:58:19.805Z</time>
      </trkpt>
      <trkpt lat="46.88414" lon="8.55128">
        <ele>1316</ele>
        <time>2021-08-10T14:58:20.806Z</time>
      </trkpt>
      <trkpt lat="46.88414" lon="8.55127">
        <ele>1317</ele>
        <time>2021-08-10T14:58:21.806Z</time>
      </trkpt>
      <trkpt lat="46.88414" lon="8.55125">
        <ele>1317</ele>
        <time>2021-08-10T14:58:22.806Z</time>
      </trkpt>
      <trkpt lat="46.88415" lon="8.55124">
        <ele>1317</ele>
        <time>2021-08-10T14:58:23.805Z</time>
      </trkpt>
      <trkpt lat="46.88416" lon="8.55122">
        <ele>1318</ele>
        <time>2021-08-10T14:58:24.806Z</time>
      </trkpt>
      <trkpt lat="46.88416" lon="8.55121">
        <ele>1318</ele>
        <time>2021-08-10T14:58:30.841Z</time>
      </trkpt>
      <trkpt lat="46.88416" lon="8.5512">
        <ele>1318</ele>
        <time>2021-08-10T14:58:31.841Z</time>
      </trkpt>
      <trkpt lat="46.88416" lon="8.55118">
        <ele>1319</ele>
        <time>2021-08-10T14:58:32.841Z</time>
      </trkpt>
      <trkpt lat="46.88415" lon="8.55117">
        <ele>1319</ele>
        <time>2021-08-10T14:58:33.840Z</time>
      </trkpt>
      <trkpt lat="46.88415" lon="8.55117">
        <ele>1319</ele>
        <time>2021-08-10T14:58:34.840Z</time>
      </trkpt>
      <trkpt lat="46.88415" lon="8.55116">
        <ele>1319</ele>
        <time>2021-08-10T14:58:35.840Z</time>
      </trkpt>
      <trkpt lat="46.88415" lon="8.55115">
        <ele>1320</ele>
        <time>2021-08-10T14:58:36.841Z</time>
      </trkpt>
      <trkpt lat="46.88415" lon="8.55114">
        <ele>1320</ele>
        <time>2021-08-10T14:58:37.841Z</time>
      </trkpt>
      <trkpt lat="46.88414" lon="8.55113">
        <ele>1320</ele>
        <time>2021-08-10T14:58:38.840Z</time>
      </trkpt>
      <trkpt lat="46.88413" lon="8.55112">
        <ele>1321</ele>
        <time>2021-08-10T14:58:39.841Z</time>
      </trkpt>
      <trkpt lat="46.88412" lon="8.55111">
        <ele>1321</ele>
        <time>2021-08-10T14:58:40.840Z</time>
      </trkpt>
      <trkpt lat="46.88412" lon="8.5511">
        <ele>1321</ele>
        <time>2021-08-10T14:58:41.840Z</time>
      </trkpt>
      <trkpt lat="46.88412" lon="8.55108">
        <ele>1321</ele>
        <time>2021-08-10T14:58:42.840Z</time>
      </trkpt>
      <trkpt lat="46.88412" lon="8.55108">
        <ele>1321</ele>
        <time>2021-08-10T14:58:43.841Z</time>
      </trkpt>
      <trkpt lat="46.88411" lon="8.55107">
        <ele>1321</ele>
        <time>2021-08-10T14:58:44.841Z</time>
      </trkpt>
      <trkpt lat="46.88411" lon="8.55108">
        <ele>1320</ele>
        <time>2021-08-10T14:58:45.841Z</time>
      </trkpt>
      <trkpt lat="46.8841" lon="8.55109">
        <ele>1320</ele>
        <time>2021-08-10T14:58:46.841Z</time>
      </trkpt>
      <trkpt lat="46.8841" lon="8.5511">
        <ele>1320</ele>
        <time>2021-08-10T14:58:47.841Z</time>
      </trkpt>
      <trkpt lat="46.88409" lon="8.55111">
        <ele>1320</ele>
        <time>2021-08-10T14:58:48.841Z</time>
      </trkpt>
      <trkpt lat="46.88409" lon="8.55111">
        <ele>1320</ele>
        <time>2021-08-10T14:58:49.840Z</time>
      </trkpt>
      <trkpt lat="46.88409" lon="8.55112">
        <ele>1320</ele>
        <time>2021-08-10T14:58:50.841Z</time>
      </trkpt>
      <trkpt lat="46.88408" lon="8.55113">
        <ele>1321</ele>
        <time>2021-08-10T14:58:51.841Z</time>
      </trkpt>
      <trkpt lat="46.88407" lon="8.55112">
        <ele>1321</ele>
        <time>2021-08-10T14:58:56.693Z</time>
      </trkpt>
      <trkpt lat="46.88406" lon="8.55112">
        <ele>1321</ele>
        <time>2021-08-10T14:58:57.692Z</time>
      </trkpt>
      <trkpt lat="46.88406" lon="8.55113">
        <ele>1321</ele>
        <time>2021-08-10T14:58:58.693Z</time>
      </trkpt>
      <trkpt lat="46.88406" lon="8.55113">
        <ele>1321</ele>
        <time>2021-08-10T14:58:59.693Z</time>
      </trkpt>
      <trkpt lat="46.88406" lon="8.55113">
        <ele>1322</ele>
        <time>2021-08-10T14:59:00.693Z</time>
      </trkpt>
      <trkpt lat="46.88405" lon="8.55114">
        <ele>1322</ele>
        <time>2021-08-10T14:59:01.692Z</time>
      </trkpt>
      <trkpt lat="46.88405" lon="8.55115">
        <ele>1322</ele>
        <time>2021-08-10T14:59:02.693Z</time>
      </trkpt>
      <trkpt lat="46.88405" lon="8.55115">
        <ele>1322</ele>
        <time>2021-08-10T14:59:03.692Z</time>
      </trkpt>
      <trkpt lat="46.88405" lon="8.55115">
        <ele>1322</ele>
        <time>2021-08-10T14:59:04.693Z</time>
      </trkpt>
      <trkpt lat="46.88405" lon="8.55114">
        <ele>1323</ele>
        <time>2021-08-10T14:59:05.693Z</time>
      </trkpt>
      <trkpt lat="46.88404" lon="8.55114">
        <ele>1323</ele>
        <time>2021-08-10T14:59:06.693Z</time>
      </trkpt>
      <trkpt lat="46.88404" lon="8.55113">
        <ele>1323</ele>
        <time>2021-08-10T14:59:07.693Z</time>
      </trkpt>
      <trkpt lat="46.88403" lon="8.55113">
        <ele>1323</ele>
        <time>2021-08-10T14:59:08.693Z</time>
      </trkpt>
      <trkpt lat="46.88401" lon="8.55114">
        <ele>1323</ele>
        <time>2021-08-10T14:59:09.693Z</time>
      </trkpt>
      <trkpt lat="46.884" lon="8.55114">
        <ele>1323</ele>
        <time>2021-08-10T14:59:10.693Z</time>
      </trkpt>
      <trkpt lat="46.884" lon="8.55115">
        <ele>1323</ele>
        <time>2021-08-10T14:59:11.693Z</time>
      </trkpt>
      <trkpt lat="46.88399" lon="8.55115">
        <ele>1323</ele>
        <time>2021-08-10T14:59:14.821Z</time>
      </trkpt>
      <trkpt lat="46.88397" lon="8.55116">
        <ele>1323</ele>
        <time>2021-08-10T14:59:15.821Z</time>
      </trkpt>
      <trkpt lat="46.88396" lon="8.55126">
        <ele>1324</ele>
        <time>2021-08-10T14:59:23.965Z</time>
      </trkpt>
      <trkpt lat="46.88395" lon="8.55126">
        <ele>1324</ele>
        <time>2021-08-10T14:59:24.966Z</time>
      </trkpt>
      <trkpt lat="46.88394" lon="8.55127">
        <ele>1324</ele>
        <time>2021-08-10T14:59:25.965Z</time>
      </trkpt>
      <trkpt lat="46.88393" lon="8.55127">
        <ele>1325</ele>
        <time>2021-08-10T14:59:31.089Z</time>
      </trkpt>
      <trkpt lat="46.88392" lon="8.55126">
        <ele>1325</ele>
        <time>2021-08-10T14:59:32.089Z</time>
      </trkpt>
      <trkpt lat="46.88393" lon="8.55126">
        <ele>1326</ele>
        <time>2021-08-10T14:59:33.089Z</time>
      </trkpt>
      <trkpt lat="46.88393" lon="8.55125">
        <ele>1326</ele>
        <time>2021-08-10T14:59:34.088Z</time>
      </trkpt>
      <trkpt lat="46.88393" lon="8.55125">
        <ele>1326</ele>
        <time>2021-08-10T14:59:35.089Z</time>
      </trkpt>
      <trkpt lat="46.88392" lon="8.55124">
        <ele>1327</ele>
        <time>2021-08-10T14:59:47.195Z</time>
      </trkpt>
      <trkpt lat="46.88392" lon="8.55123">
        <ele>1327</ele>
        <time>2021-08-10T14:59:48.195Z</time>
      </trkpt>
      <trkpt lat="46.88392" lon="8.55123">
        <ele>1327</ele>
        <time>2021-08-10T14:59:50.914Z</time>
      </trkpt>
      <trkpt lat="46.88391" lon="8.55123">
        <ele>1327</ele>
        <time>2021-08-10T14:59:51.914Z</time>
      </trkpt>
      <trkpt lat="46.88393" lon="8.55124">
        <ele>1327</ele>
        <time>2021-08-10T14:59:53.696Z</time>
      </trkpt>
      <trkpt lat="46.88395" lon="8.55129">
        <ele>1327</ele>
        <time>2021-08-10T14:59:55.532Z</time>
      </trkpt>
      <trkpt lat="46.88395" lon="8.55129">
        <ele>1327</ele>
        <time>2021-08-10T14:59:56.533Z</time>
      </trkpt>
      <trkpt lat="46.88395" lon="8.55129">
        <ele>1328</ele>
        <time>2021-08-10T15:00:03.300Z</time>
      </trkpt>
      <trkpt lat="46.88394" lon="8.55129">
        <ele>1328</ele>
        <time>2021-08-10T15:00:04.301Z</time>
      </trkpt>
      <trkpt lat="46.88394" lon="8.55129">
        <ele>1329</ele>
        <time>2021-08-10T15:00:06.057Z</time>
      </trkpt>
      <trkpt lat="46.88394" lon="8.5513">
        <ele>1329</ele>
        <time>2021-08-10T15:00:07.056Z</time>
      </trkpt>
      <trkpt lat="46.88394" lon="8.55131">
        <ele>1330</ele>
        <time>2021-08-10T15:00:08.056Z</time>
      </trkpt>
      <trkpt lat="46.88394" lon="8.55131">
        <ele>1330</ele>
        <time>2021-08-10T15:00:20.051Z</time>
      </trkpt>
      <trkpt lat="46.88394" lon="8.55131">
        <ele>1331</ele>
        <time>2021-08-10T15:00:28.966Z</time>
      </trkpt>
      <trkpt lat="46.88393" lon="8.55131">
        <ele>1331</ele>
        <time>2021-08-10T15:00:29.966Z</time>
      </trkpt>
      <trkpt lat="46.88391" lon="8.55134">
        <ele>1335</ele>
        <time>2021-08-10T15:00:37.804Z</time>
      </trkpt>
      <trkpt lat="46.88391" lon="8.55133">
        <ele>1335</ele>
        <time>2021-08-10T15:00:38.803Z</time>
      </trkpt>
      <trkpt lat="46.8839" lon="8.55134">
        <ele>1335</ele>
        <time>2021-08-10T15:00:39.804Z</time>
      </trkpt>
      <trkpt lat="46.8839" lon="8.55134">
        <ele>1335</ele>
        <time>2021-08-10T15:00:50.924Z</time>
      </trkpt>
      <trkpt lat="46.8839" lon="8.55134">
        <ele>1336</ele>
        <time>2021-08-10T15:00:51.925Z</time>
      </trkpt>
      <trkpt lat="46.88387" lon="8.55136">
        <ele>1336</ele>
        <time>2021-08-10T15:00:52.924Z</time>
      </trkpt>
      <trkpt lat="46.88386" lon="8.55137">
        <ele>1336</ele>
        <time>2021-08-10T15:00:53.925Z</time>
      </trkpt>
      <trkpt lat="46.88386" lon="8.55138">
        <ele>1336</ele>
        <time>2021-08-10T15:00:54.924Z</time>
      </trkpt>
      <trkpt lat="46.88385" lon="8.55138">
        <ele>1336</ele>
        <time>2021-08-10T15:01:02.926Z</time>
      </trkpt>
      <trkpt lat="46.88385" lon="8.55139">
        <ele>1336</ele>
        <time>2021-08-10T15:01:03.925Z</time>
      </trkpt>
      <trkpt lat="46.88384" lon="8.55139">
        <ele>1336</ele>
        <time>2021-08-10T15:01:04.926Z</time>
      </trkpt>
      <trkpt lat="46.88384" lon="8.55139">
        <ele>1336</ele>
        <time>2021-08-10T15:01:08.691Z</time>
      </trkpt>
      <trkpt lat="46.88383" lon="8.5514">
        <ele>1336</ele>
        <time>2021-08-10T15:01:09.691Z</time>
      </trkpt>
      <trkpt lat="46.88383" lon="8.5514">
        <ele>1336</ele>
        <time>2021-08-10T15:01:18.554Z</time>
      </trkpt>
      <trkpt lat="46.88377" lon="8.55145">
        <ele>1328</ele>
        <time>2021-08-10T15:01:38.302Z</time>
      </trkpt>
      <trkpt lat="46.88377" lon="8.55145">
        <ele>1328</ele>
        <time>2021-08-10T15:01:43.088Z</time>
      </trkpt>
      <trkpt lat="46.88377" lon="8.55145">
        <ele>1327</ele>
        <time>2021-08-10T15:01:44.087Z</time>
      </trkpt>
      <trkpt lat="46.88376" lon="8.55146">
        <ele>1327</ele>
        <time>2021-08-10T15:01:45.087Z</time>
      </trkpt>
      <trkpt lat="46.88376" lon="8.55146">
        <ele>1328</ele>
        <time>2021-08-10T15:01:46.087Z</time>
      </trkpt>
      <trkpt lat="46.88377" lon="8.55145">
        <ele>1328</ele>
        <time>2021-08-10T15:01:47.088Z</time>
      </trkpt>
      <trkpt lat="46.88384" lon="8.55137">
        <ele>1324</ele>
        <time>2021-08-10T15:01:48.087Z</time>
      </trkpt>
      <trkpt lat="46.88384" lon="8.55138">
        <ele>1323</ele>
        <time>2021-08-10T15:01:49.087Z</time>
      </trkpt>
      <trkpt lat="46.88384" lon="8.55138">
        <ele>1323</ele>
        <time>2021-08-10T15:01:50.087Z</time>
      </trkpt>
      <trkpt lat="46.88384" lon="8.55138">
        <ele>1323</ele>
        <time>2021-08-10T15:01:51.089Z</time>
      </trkpt>
      <trkpt lat="46.88384" lon="8.55138">
        <ele>1324</ele>
        <time>2021-08-10T15:01:52.088Z</time>
      </trkpt>
      <trkpt lat="46.88379" lon="8.55143">
        <ele>1345</ele>
        <time>2021-08-10T15:01:53.088Z</time>
      </trkpt>
      <trkpt lat="46.88377" lon="8.55144">
        <ele>1346</ele>
        <time>2021-08-10T15:01:54.088Z</time>
      </trkpt>
      <trkpt lat="46.88374" lon="8.55145">
        <ele>1341</ele>
        <time>2021-08-10T15:01:55.089Z</time>
      </trkpt>
      <trkpt lat="46.88375" lon="8.55144">
        <ele>1340</ele>
        <time>2021-08-10T15:01:56.089Z</time>
      </trkpt>
      <trkpt lat="46.88375" lon="8.55143">
        <ele>1340</ele>
        <time>2021-08-10T15:01:57.088Z</time>
      </trkpt>
      <trkpt lat="46.88375" lon="8.55143">
        <ele>1340</ele>
        <time>2021-08-10T15:01:58.088Z</time>
      </trkpt>
      <trkpt lat="46.88375" lon="8.55142">
        <ele>1340</ele>
        <time>2021-08-10T15:01:59.088Z</time>
      </trkpt>
      <trkpt lat="46.88373" lon="8.55141">
        <ele>1340</ele>
        <time>2021-08-10T15:02:06.179Z</time>
      </trkpt>
      <trkpt lat="46.88372" lon="8.55141">
        <ele>1339</ele>
        <time>2021-08-10T15:02:07.179Z</time>
      </trkpt>
      <trkpt lat="46.88372" lon="8.55141">
        <ele>1339</ele>
        <time>2021-08-10T15:02:08.178Z</time>
      </trkpt>
      <trkpt lat="46.88372" lon="8.55141">
        <ele>1339</ele>
        <time>2021-08-10T15:02:09.179Z</time>
      </trkpt>
      <trkpt lat="46.88371" lon="8.55141">
        <ele>1339</ele>
        <time>2021-08-10T15:02:10.179Z</time>
      </trkpt>
      <trkpt lat="46.88371" lon="8.55141">
        <ele>1339</ele>
        <time>2021-08-10T15:02:11.179Z</time>
      </trkpt>
      <trkpt lat="46.88371" lon="8.5514">
        <ele>1333</ele>
        <time>2021-08-10T15:02:12.180Z</time>
      </trkpt>
      <trkpt lat="46.88371" lon="8.55139">
        <ele>1332</ele>
        <time>2021-08-10T15:02:13.179Z</time>
      </trkpt>
      <trkpt lat="46.8837" lon="8.55139">
        <ele>1332</ele>
        <time>2021-08-10T15:02:14.179Z</time>
      </trkpt>
      <trkpt lat="46.8837" lon="8.55138">
        <ele>1331</ele>
        <time>2021-08-10T15:02:15.180Z</time>
      </trkpt>
      <trkpt lat="46.88369" lon="8.55138">
        <ele>1331</ele>
        <time>2021-08-10T15:02:16.179Z</time>
      </trkpt>
      <trkpt lat="46.88369" lon="8.55138">
        <ele>1330</ele>
        <time>2021-08-10T15:02:17.180Z</time>
      </trkpt>
      <trkpt lat="46.88368" lon="8.55137">
        <ele>1329</ele>
        <time>2021-08-10T15:02:18.180Z</time>
      </trkpt>
      <trkpt lat="46.88368" lon="8.55136">
        <ele>1328</ele>
        <time>2021-08-10T15:02:29.342Z</time>
      </trkpt>
      <trkpt lat="46.88369" lon="8.55136">
        <ele>1328</ele>
        <time>2021-08-10T15:02:30.341Z</time>
      </trkpt>
      <trkpt lat="46.88369" lon="8.55136">
        <ele>1328</ele>
        <time>2021-08-10T15:02:31.342Z</time>
      </trkpt>
      <trkpt lat="46.88369" lon="8.55135">
        <ele>1328</ele>
        <time>2021-08-10T15:02:32.341Z</time>
      </trkpt>
      <trkpt lat="46.88369" lon="8.55134">
        <ele>1328</ele>
        <time>2021-08-10T15:02:33.341Z</time>
      </trkpt>
      <trkpt lat="46.8837" lon="8.55132">
        <ele>1329</ele>
        <time>2021-08-10T15:02:34.342Z</time>
      </trkpt>
      <trkpt lat="46.8837" lon="8.5513">
        <ele>1329</ele>
        <time>2021-08-10T15:02:35.341Z</time>
      </trkpt>
      <trkpt lat="46.8837" lon="8.55128">
        <ele>1329</ele>
        <time>2021-08-10T15:02:36.341Z</time>
      </trkpt>
      <trkpt lat="46.88371" lon="8.55127">
        <ele>1329</ele>
        <time>2021-08-10T15:02:37.342Z</time>
      </trkpt>
      <trkpt lat="46.88373" lon="8.55126">
        <ele>1329</ele>
        <time>2021-08-10T15:02:38.342Z</time>
      </trkpt>
      <trkpt lat="46.88373" lon="8.55125">
        <ele>1329</ele>
        <time>2021-08-10T15:02:39.341Z</time>
      </trkpt>
      <trkpt lat="46.88373" lon="8.55124">
        <ele>1329</ele>
        <time>2021-08-10T15:02:40.342Z</time>
      </trkpt>
      <trkpt lat="46.88373" lon="8.55123">
        <ele>1329</ele>
        <time>2021-08-10T15:02:41.341Z</time>
      </trkpt>
      <trkpt lat="46.88374" lon="8.55123">
        <ele>1330</ele>
        <time>2021-08-10T15:02:42.341Z</time>
      </trkpt>
      <trkpt lat="46.88374" lon="8.55122">
        <ele>1330</ele>
        <time>2021-08-10T15:02:43.342Z</time>
      </trkpt>
      <trkpt lat="46.88374" lon="8.55121">
        <ele>1330</ele>
        <time>2021-08-10T15:02:44.341Z</time>
      </trkpt>
      <trkpt lat="46.88374" lon="8.5512">
        <ele>1330</ele>
        <time>2021-08-10T15:02:45.341Z</time>
      </trkpt>
      <trkpt lat="46.88374" lon="8.55119">
        <ele>1329</ele>
        <time>2021-08-10T15:02:46.341Z</time>
      </trkpt>
      <trkpt lat="46.88374" lon="8.55118">
        <ele>1329</ele>
        <time>2021-08-10T15:02:47.341Z</time>
      </trkpt>
      <trkpt lat="46.88374" lon="8.55118">
        <ele>1329</ele>
        <time>2021-08-10T15:02:48.341Z</time>
      </trkpt>
      <trkpt lat="46.88375" lon="8.55117">
        <ele>1328</ele>
        <time>2021-08-10T15:02:49.341Z</time>
      </trkpt>
      <trkpt lat="46.88375" lon="8.55116">
        <ele>1328</ele>
        <time>2021-08-10T15:02:50.341Z</time>
      </trkpt>
      <trkpt lat="46.88376" lon="8.55114">
        <ele>1328</ele>
        <time>2021-08-10T15:02:51.341Z</time>
      </trkpt>
      <trkpt lat="46.88376" lon="8.55113">
        <ele>1328</ele>
        <time>2021-08-10T15:02:52.342Z</time>
      </trkpt>
      <trkpt lat="46.88376" lon="8.55113">
        <ele>1328</ele>
        <time>2021-08-10T15:02:53.341Z</time>
      </trkpt>
      <trkpt lat="46.88375" lon="8.55112">
        <ele>1328</ele>
        <time>2021-08-10T15:02:54.341Z</time>
      </trkpt>
      <trkpt lat="46.88374" lon="8.55112">
        <ele>1328</ele>
        <time>2021-08-10T15:02:55.341Z</time>
      </trkpt>
      <trkpt lat="46.88374" lon="8.55111">
        <ele>1328</ele>
        <time>2021-08-10T15:02:56.341Z</time>
      </trkpt>
      <trkpt lat="46.88374" lon="8.5511">
        <ele>1328</ele>
        <time>2021-08-10T15:02:57.342Z</time>
      </trkpt>
      <trkpt lat="46.88375" lon="8.55109">
        <ele>1328</ele>
        <time>2021-08-10T15:02:58.342Z</time>
      </trkpt>
      <trkpt lat="46.88375" lon="8.55108">
        <ele>1329</ele>
        <time>2021-08-10T15:02:59.342Z</time>
      </trkpt>
      <trkpt lat="46.88375" lon="8.55107">
        <ele>1330</ele>
        <time>2021-08-10T15:03:00.342Z</time>
      </trkpt>
      <trkpt lat="46.88375" lon="8.55107">
        <ele>1331</ele>
        <time>2021-08-10T15:03:01.341Z</time>
      </trkpt>
      <trkpt lat="46.88375" lon="8.55107">
        <ele>1332</ele>
        <time>2021-08-10T15:03:02.341Z</time>
      </trkpt>
      <trkpt lat="46.88374" lon="8.55107">
        <ele>1333</ele>
        <time>2021-08-10T15:03:03.341Z</time>
      </trkpt>
      <trkpt lat="46.88373" lon="8.55107">
        <ele>1333</ele>
        <time>2021-08-10T15:03:04.342Z</time>
      </trkpt>
      <trkpt lat="46.88373" lon="8.55106">
        <ele>1334</ele>
        <time>2021-08-10T15:03:05.341Z</time>
      </trkpt>
      <trkpt lat="46.88372" lon="8.55107">
        <ele>1334</ele>
        <time>2021-08-10T15:03:06.342Z</time>
      </trkpt>
      <trkpt lat="46.88372" lon="8.55106">
        <ele>1335</ele>
        <time>2021-08-10T15:03:07.341Z</time>
      </trkpt>
      <trkpt lat="46.88371" lon="8.55106">
        <ele>1335</ele>
        <time>2021-08-10T15:03:08.341Z</time>
      </trkpt>
      <trkpt lat="46.88371" lon="8.55106">
        <ele>1336</ele>
        <time>2021-08-10T15:03:09.342Z</time>
      </trkpt>
      <trkpt lat="46.8837" lon="8.55106">
        <ele>1336</ele>
        <time>2021-08-10T15:03:10.342Z</time>
      </trkpt>
      <trkpt lat="46.88369" lon="8.55106">
        <ele>1336</ele>
        <time>2021-08-10T15:03:11.341Z</time>
      </trkpt>
      <trkpt lat="46.88368" lon="8.55106">
        <ele>1336</ele>
        <time>2021-08-10T15:03:12.342Z</time>
      </trkpt>
      <trkpt lat="46.88367" lon="8.55106">
        <ele>1336</ele>
        <time>2021-08-10T15:03:13.341Z</time>
      </trkpt>
      <trkpt lat="46.88367" lon="8.55105">
        <ele>1337</ele>
        <time>2021-08-10T15:03:14.341Z</time>
      </trkpt>
      <trkpt lat="46.88367" lon="8.55104">
        <ele>1337</ele>
        <time>2021-08-10T15:03:15.342Z</time>
      </trkpt>
      <trkpt lat="46.88367" lon="8.55104">
        <ele>1337</ele>
        <time>2021-08-10T15:03:16.342Z</time>
      </trkpt>
      <trkpt lat="46.88367" lon="8.55104">
        <ele>1338</ele>
        <time>2021-08-10T15:03:17.341Z</time>
      </trkpt>
      <trkpt lat="46.88366" lon="8.55104">
        <ele>1338</ele>
        <time>2021-08-10T15:03:18.342Z</time>
      </trkpt>
      <trkpt lat="46.88366" lon="8.55103">
        <ele>1339</ele>
        <time>2021-08-10T15:03:19.342Z</time>
      </trkpt>
      <trkpt lat="46.88365" lon="8.55103">
        <ele>1339</ele>
        <time>2021-08-10T15:03:20.341Z</time>
      </trkpt>
      <trkpt lat="46.88365" lon="8.55102">
        <ele>1339</ele>
        <time>2021-08-10T15:03:21.341Z</time>
      </trkpt>
      <trkpt lat="46.88364" lon="8.55102">
        <ele>1340</ele>
        <time>2021-08-10T15:03:22.342Z</time>
      </trkpt>
      <trkpt lat="46.88364" lon="8.55102">
        <ele>1340</ele>
        <time>2021-08-10T15:03:23.341Z</time>
      </trkpt>
      <trkpt lat="46.88365" lon="8.55101">
        <ele>1340</ele>
        <time>2021-08-10T15:03:24.342Z</time>
      </trkpt>
      <trkpt lat="46.88366" lon="8.551">
        <ele>1341</ele>
        <time>2021-08-10T15:03:25.342Z</time>
      </trkpt>
      <trkpt lat="46.88367" lon="8.55099">
        <ele>1341</ele>
        <time>2021-08-10T15:03:26.341Z</time>
      </trkpt>
      <trkpt lat="46.88367" lon="8.55099">
        <ele>1341</ele>
        <time>2021-08-10T15:03:27.342Z</time>
      </trkpt>
      <trkpt lat="46.88367" lon="8.55099">
        <ele>1340</ele>
        <time>2021-08-10T15:03:28.342Z</time>
      </trkpt>
      <trkpt lat="46.88367" lon="8.55098">
        <ele>1340</ele>
        <time>2021-08-10T15:03:29.341Z</time>
      </trkpt>
      <trkpt lat="46.88367" lon="8.55098">
        <ele>1339</ele>
        <time>2021-08-10T15:03:30.341Z</time>
      </trkpt>
      <trkpt lat="46.88367" lon="8.55098">
        <ele>1339</ele>
        <time>2021-08-10T15:03:31.341Z</time>
      </trkpt>
      <trkpt lat="46.88368" lon="8.55098">
        <ele>1339</ele>
        <time>2021-08-10T15:03:32.341Z</time>
      </trkpt>
      <trkpt lat="46.88369" lon="8.55098">
        <ele>1339</ele>
        <time>2021-08-10T15:03:33.341Z</time>
      </trkpt>
      <trkpt lat="46.8837" lon="8.55099">
        <ele>1339</ele>
        <time>2021-08-10T15:03:40.430Z</time>
      </trkpt>
      <trkpt lat="46.88371" lon="8.55099">
        <ele>1340</ele>
        <time>2021-08-10T15:03:41.430Z</time>
      </trkpt>
      <trkpt lat="46.88371" lon="8.55099">
        <ele>1340</ele>
        <time>2021-08-10T15:03:47.305Z</time>
      </trkpt>
      <trkpt lat="46.88372" lon="8.55099">
        <ele>1341</ele>
        <time>2021-08-10T15:03:48.306Z</time>
      </trkpt>
      <trkpt lat="46.88372" lon="8.55098">
        <ele>1341</ele>
        <time>2021-08-10T15:03:51.200Z</time>
      </trkpt>
      <trkpt lat="46.88372" lon="8.55097">
        <ele>1341</ele>
        <time>2021-08-10T15:03:52.199Z</time>
      </trkpt>
      <trkpt lat="46.88373" lon="8.55096">
        <ele>1342</ele>
        <time>2021-08-10T15:03:53.199Z</time>
      </trkpt>
      <trkpt lat="46.88373" lon="8.55095">
        <ele>1342</ele>
        <time>2021-08-10T15:03:54.200Z</time>
      </trkpt>
      <trkpt lat="46.88373" lon="8.55095">
        <ele>1342</ele>
        <time>2021-08-10T15:03:58.304Z</time>
      </trkpt>
      <trkpt lat="46.88373" lon="8.55094">
        <ele>1342</ele>
        <time>2021-08-10T15:03:59.305Z</time>
      </trkpt>
      <trkpt lat="46.88373" lon="8.55093">
        <ele>1343</ele>
        <time>2021-08-10T15:04:01.182Z</time>
      </trkpt>
      <trkpt lat="46.88374" lon="8.55093">
        <ele>1343</ele>
        <time>2021-08-10T15:04:02.181Z</time>
      </trkpt>
      <trkpt lat="46.88374" lon="8.55093">
        <ele>1343</ele>
        <time>2021-08-10T15:04:03.181Z</time>
      </trkpt>
      <trkpt lat="46.88375" lon="8.55092">
        <ele>1343</ele>
        <time>2021-08-10T15:04:04.181Z</time>
      </trkpt>
      <trkpt lat="46.88375" lon="8.55092">
        <ele>1343</ele>
        <time>2021-08-10T15:04:05.182Z</time>
      </trkpt>
      <trkpt lat="46.88377" lon="8.5509">
        <ele>1344</ele>
        <time>2021-08-10T15:04:06.182Z</time>
      </trkpt>
      <trkpt lat="46.88377" lon="8.5509">
        <ele>1344</ele>
        <time>2021-08-10T15:04:07.182Z</time>
      </trkpt>
      <trkpt lat="46.88378" lon="8.55089">
        <ele>1344</ele>
        <time>2021-08-10T15:04:08.182Z</time>
      </trkpt>
      <trkpt lat="46.88378" lon="8.55089">
        <ele>1344</ele>
        <time>2021-08-10T15:04:09.182Z</time>
      </trkpt>
      <trkpt lat="46.88379" lon="8.55088">
        <ele>1344</ele>
        <time>2021-08-10T15:04:10.182Z</time>
      </trkpt>
      <trkpt lat="46.88379" lon="8.55087">
        <ele>1343</ele>
        <time>2021-08-10T15:04:11.182Z</time>
      </trkpt>
      <trkpt lat="46.88379" lon="8.55087">
        <ele>1342</ele>
        <time>2021-08-10T15:04:12.181Z</time>
      </trkpt>
      <trkpt lat="46.88379" lon="8.55086">
        <ele>1342</ele>
        <time>2021-08-10T15:04:13.181Z</time>
      </trkpt>
      <trkpt lat="46.88378" lon="8.55085">
        <ele>1341</ele>
        <time>2021-08-10T15:04:14.181Z</time>
      </trkpt>
      <trkpt lat="46.88377" lon="8.55084">
        <ele>1341</ele>
        <time>2021-08-10T15:04:15.181Z</time>
      </trkpt>
      <trkpt lat="46.88375" lon="8.55084">
        <ele>1340</ele>
        <time>2021-08-10T15:04:16.181Z</time>
      </trkpt>
      <trkpt lat="46.88374" lon="8.55083">
        <ele>1340</ele>
        <time>2021-08-10T15:04:17.181Z</time>
      </trkpt>
      <trkpt lat="46.88373" lon="8.55082">
        <ele>1340</ele>
        <time>2021-08-10T15:04:18.182Z</time>
      </trkpt>
      <trkpt lat="46.88373" lon="8.55082">
        <ele>1340</ele>
        <time>2021-08-10T15:04:19.182Z</time>
      </trkpt>
      <trkpt lat="46.88372" lon="8.55082">
        <ele>1340</ele>
        <time>2021-08-10T15:04:20.182Z</time>
      </trkpt>
      <trkpt lat="46.88371" lon="8.55081">
        <ele>1340</ele>
        <time>2021-08-10T15:04:21.182Z</time>
      </trkpt>
      <trkpt lat="46.88371" lon="8.55081">
        <ele>1341</ele>
        <time>2021-08-10T15:04:22.181Z</time>
      </trkpt>
      <trkpt lat="46.88371" lon="8.55081">
        <ele>1341</ele>
        <time>2021-08-10T15:04:23.181Z</time>
      </trkpt>
      <trkpt lat="46.8837" lon="8.5508">
        <ele>1341</ele>
        <time>2021-08-10T15:04:24.181Z</time>
      </trkpt>
      <trkpt lat="46.8837" lon="8.55079">
        <ele>1342</ele>
        <time>2021-08-10T15:04:25.181Z</time>
      </trkpt>
      <trkpt lat="46.88369" lon="8.55078">
        <ele>1342</ele>
        <time>2021-08-10T15:04:26.182Z</time>
      </trkpt>
      <trkpt lat="46.8837" lon="8.55078">
        <ele>1342</ele>
        <time>2021-08-10T15:04:27.181Z</time>
      </trkpt>
      <trkpt lat="46.8837" lon="8.55078">
        <ele>1342</ele>
        <time>2021-08-10T15:04:28.181Z</time>
      </trkpt>
      <trkpt lat="46.88371" lon="8.55079">
        <ele>1342</ele>
        <time>2021-08-10T15:04:29.181Z</time>
      </trkpt>
      <trkpt lat="46.88372" lon="8.55079">
        <ele>1342</ele>
        <time>2021-08-10T15:04:30.181Z</time>
      </trkpt>
      <trkpt lat="46.88373" lon="8.55079">
        <ele>1342</ele>
        <time>2021-08-10T15:04:31.181Z</time>
      </trkpt>
      <trkpt lat="46.88373" lon="8.5508">
        <ele>1342</ele>
        <time>2021-08-10T15:04:32.181Z</time>
      </trkpt>
      <trkpt lat="46.88374" lon="8.5508">
        <ele>1342</ele>
        <time>2021-08-10T15:04:33.181Z</time>
      </trkpt>
      <trkpt lat="46.88375" lon="8.55079">
        <ele>1342</ele>
        <time>2021-08-10T15:04:34.181Z</time>
      </trkpt>
      <trkpt lat="46.88376" lon="8.55079">
        <ele>1342</ele>
        <time>2021-08-10T15:04:35.181Z</time>
      </trkpt>
      <trkpt lat="46.88376" lon="8.55078">
        <ele>1341</ele>
        <time>2021-08-10T15:04:36.181Z</time>
      </trkpt>
      <trkpt lat="46.88375" lon="8.55076">
        <ele>1341</ele>
        <time>2021-08-10T15:04:37.181Z</time>
      </trkpt>
      <trkpt lat="46.88375" lon="8.55075">
        <ele>1341</ele>
        <time>2021-08-10T15:04:38.181Z</time>
      </trkpt>
      <trkpt lat="46.88374" lon="8.55073">
        <ele>1342</ele>
        <time>2021-08-10T15:04:39.181Z</time>
      </trkpt>
      <trkpt lat="46.88374" lon="8.55072">
        <ele>1342</ele>
        <time>2021-08-10T15:04:40.181Z</time>
      </trkpt>
      <trkpt lat="46.88373" lon="8.55072">
        <ele>1342</ele>
        <time>2021-08-10T15:04:41.181Z</time>
      </trkpt>
      <trkpt lat="46.88372" lon="8.55072">
        <ele>1342</ele>
        <time>2021-08-10T15:04:42.182Z</time>
      </trkpt>
      <trkpt lat="46.88371" lon="8.55071">
        <ele>1343</ele>
        <time>2021-08-10T15:04:45.201Z</time>
      </trkpt>
      <trkpt lat="46.8837" lon="8.55071">
        <ele>1343</ele>
        <time>2021-08-10T15:04:46.200Z</time>
      </trkpt>
      <trkpt lat="46.88369" lon="8.5507">
        <ele>1343</ele>
        <time>2021-08-10T15:04:47.200Z</time>
      </trkpt>
      <trkpt lat="46.88368" lon="8.55069">
        <ele>1344</ele>
        <time>2021-08-10T15:04:48.200Z</time>
      </trkpt>
      <trkpt lat="46.88367" lon="8.55068">
        <ele>1345</ele>
        <time>2021-08-10T15:04:49.200Z</time>
      </trkpt>
      <trkpt lat="46.88367" lon="8.55067">
        <ele>1346</ele>
        <time>2021-08-10T15:04:50.200Z</time>
      </trkpt>
      <trkpt lat="46.88367" lon="8.55067">
        <ele>1348</ele>
        <time>2021-08-10T15:04:51.200Z</time>
      </trkpt>
      <trkpt lat="46.88367" lon="8.55067">
        <ele>1348</ele>
        <time>2021-08-10T15:04:52.201Z</time>
      </trkpt>
      <trkpt lat="46.88367" lon="8.55067">
        <ele>1349</ele>
        <time>2021-08-10T15:04:54.314Z</time>
      </trkpt>
      <trkpt lat="46.88368" lon="8.55067">
        <ele>1350</ele>
        <time>2021-08-10T15:04:55.314Z</time>
      </trkpt>
      <trkpt lat="46.88368" lon="8.55068">
        <ele>1350</ele>
        <time>2021-08-10T15:04:56.315Z</time>
      </trkpt>
      <trkpt lat="46.88368" lon="8.55067">
        <ele>1350</ele>
        <time>2021-08-10T15:04:58.409Z</time>
      </trkpt>
      <trkpt lat="46.88368" lon="8.55067">
        <ele>1350</ele>
        <time>2021-08-10T15:04:59.408Z</time>
      </trkpt>
      <trkpt lat="46.88368" lon="8.55066">
        <ele>1349</ele>
        <time>2021-08-10T15:05:00.409Z</time>
      </trkpt>
      <trkpt lat="46.88368" lon="8.55064">
        <ele>1349</ele>
        <time>2021-08-10T15:05:01.409Z</time>
      </trkpt>
      <trkpt lat="46.88367" lon="8.55063">
        <ele>1349</ele>
        <time>2021-08-10T15:05:02.409Z</time>
      </trkpt>
      <trkpt lat="46.88367" lon="8.55062">
        <ele>1350</ele>
        <time>2021-08-10T15:05:03.409Z</time>
      </trkpt>
      <trkpt lat="46.88367" lon="8.55061">
        <ele>1350</ele>
        <time>2021-08-10T15:05:04.409Z</time>
      </trkpt>
      <trkpt lat="46.88366" lon="8.55061">
        <ele>1351</ele>
        <time>2021-08-10T15:05:05.409Z</time>
      </trkpt>
      <trkpt lat="46.88366" lon="8.55061">
        <ele>1351</ele>
        <time>2021-08-10T15:05:06.409Z</time>
      </trkpt>
      <trkpt lat="46.88365" lon="8.55061">
        <ele>1351</ele>
        <time>2021-08-10T15:05:07.408Z</time>
      </trkpt>
      <trkpt lat="46.88364" lon="8.55061">
        <ele>1351</ele>
        <time>2021-08-10T15:05:08.409Z</time>
      </trkpt>
      <trkpt lat="46.88364" lon="8.5506">
        <ele>1351</ele>
        <time>2021-08-10T15:05:09.408Z</time>
      </trkpt>
      <trkpt lat="46.88363" lon="8.55058">
        <ele>1352</ele>
        <time>2021-08-10T15:05:10.409Z</time>
      </trkpt>
      <trkpt lat="46.88363" lon="8.55056">
        <ele>1352</ele>
        <time>2021-08-10T15:05:11.408Z</time>
      </trkpt>
      <trkpt lat="46.88363" lon="8.55055">
        <ele>1353</ele>
        <time>2021-08-10T15:05:12.409Z</time>
      </trkpt>
      <trkpt lat="46.88363" lon="8.55054">
        <ele>1353</ele>
        <time>2021-08-10T15:05:13.408Z</time>
      </trkpt>
      <trkpt lat="46.88363" lon="8.55053">
        <ele>1354</ele>
        <time>2021-08-10T15:05:14.408Z</time>
      </trkpt>
      <trkpt lat="46.88362" lon="8.55052">
        <ele>1354</ele>
        <time>2021-08-10T15:05:15.409Z</time>
      </trkpt>
      <trkpt lat="46.88363" lon="8.55052">
        <ele>1354</ele>
        <time>2021-08-10T15:05:16.409Z</time>
      </trkpt>
      <trkpt lat="46.88362" lon="8.55051">
        <ele>1354</ele>
        <time>2021-08-10T15:05:17.409Z</time>
      </trkpt>
      <trkpt lat="46.88362" lon="8.55051">
        <ele>1354</ele>
        <time>2021-08-10T15:05:18.408Z</time>
      </trkpt>
      <trkpt lat="46.88363" lon="8.55051">
        <ele>1354</ele>
        <time>2021-08-10T15:05:19.408Z</time>
      </trkpt>
      <trkpt lat="46.88363" lon="8.55051">
        <ele>1354</ele>
        <time>2021-08-10T15:05:20.408Z</time>
      </trkpt>
      <trkpt lat="46.88362" lon="8.5505">
        <ele>1354</ele>
        <time>2021-08-10T15:05:21.409Z</time>
      </trkpt>
      <trkpt lat="46.88362" lon="8.55049">
        <ele>1354</ele>
        <time>2021-08-10T15:05:22.409Z</time>
      </trkpt>
      <trkpt lat="46.88362" lon="8.55048">
        <ele>1354</ele>
        <time>2021-08-10T15:05:23.409Z</time>
      </trkpt>
      <trkpt lat="46.88361" lon="8.55049">
        <ele>1354</ele>
        <time>2021-08-10T15:05:24.408Z</time>
      </trkpt>
      <trkpt lat="46.88361" lon="8.5505">
        <ele>1353</ele>
        <time>2021-08-10T15:05:25.409Z</time>
      </trkpt>
      <trkpt lat="46.8836" lon="8.5505">
        <ele>1353</ele>
        <time>2021-08-10T15:05:26.408Z</time>
      </trkpt>
      <trkpt lat="46.88361" lon="8.55051">
        <ele>1352</ele>
        <time>2021-08-10T15:05:27.408Z</time>
      </trkpt>
      <trkpt lat="46.88361" lon="8.55052">
        <ele>1352</ele>
        <time>2021-08-10T15:05:28.408Z</time>
      </trkpt>
      <trkpt lat="46.88361" lon="8.55049">
        <ele>1353</ele>
        <time>2021-08-10T15:05:29.409Z</time>
      </trkpt>
      <trkpt lat="46.88361" lon="8.5505">
        <ele>1353</ele>
        <time>2021-08-10T15:05:30.409Z</time>
      </trkpt>
      <trkpt lat="46.88361" lon="8.55046">
        <ele>1356</ele>
        <time>2021-08-10T15:05:31.409Z</time>
      </trkpt>
      <trkpt lat="46.88362" lon="8.55046">
        <ele>1356</ele>
        <time>2021-08-10T15:05:32.409Z</time>
      </trkpt>
      <trkpt lat="46.88362" lon="8.55046">
        <ele>1356</ele>
        <time>2021-08-10T15:05:33.408Z</time>
      </trkpt>
      <trkpt lat="46.88362" lon="8.55046">
        <ele>1356</ele>
        <time>2021-08-10T15:05:34.408Z</time>
      </trkpt>
      <trkpt lat="46.88362" lon="8.5505">
        <ele>1349</ele>
        <time>2021-08-10T15:05:35.408Z</time>
      </trkpt>
      <trkpt lat="46.88362" lon="8.5505">
        <ele>1349</ele>
        <time>2021-08-10T15:05:36.408Z</time>
      </trkpt>
      <trkpt lat="46.88362" lon="8.55046">
        <ele>1347</ele>
        <time>2021-08-10T15:05:37.409Z</time>
      </trkpt>
      <trkpt lat="46.88362" lon="8.55045">
        <ele>1347</ele>
        <time>2021-08-10T15:05:38.409Z</time>
      </trkpt>
      <trkpt lat="46.88362" lon="8.55044">
        <ele>1346</ele>
        <time>2021-08-10T15:05:39.408Z</time>
      </trkpt>
      <trkpt lat="46.88362" lon="8.55043">
        <ele>1346</ele>
        <time>2021-08-10T15:05:40.409Z</time>
      </trkpt>
      <trkpt lat="46.88362" lon="8.55042">
        <ele>1346</ele>
        <time>2021-08-10T15:05:41.409Z</time>
      </trkpt>
      <trkpt lat="46.88361" lon="8.55041">
        <ele>1346</ele>
        <time>2021-08-10T15:05:42.409Z</time>
      </trkpt>
      <trkpt lat="46.88361" lon="8.55039">
        <ele>1347</ele>
        <time>2021-08-10T15:05:43.408Z</time>
      </trkpt>
      <trkpt lat="46.88361" lon="8.55038">
        <ele>1347</ele>
        <time>2021-08-10T15:05:44.409Z</time>
      </trkpt>
      <trkpt lat="46.88361" lon="8.55038">
        <ele>1348</ele>
        <time>2021-08-10T15:05:45.409Z</time>
      </trkpt>
      <trkpt lat="46.88362" lon="8.55037">
        <ele>1349</ele>
        <time>2021-08-10T15:05:46.409Z</time>
      </trkpt>
      <trkpt lat="46.88362" lon="8.55036">
        <ele>1349</ele>
        <time>2021-08-10T15:05:47.408Z</time>
      </trkpt>
      <trkpt lat="46.88362" lon="8.55035">
        <ele>1350</ele>
        <time>2021-08-10T15:05:48.409Z</time>
      </trkpt>
      <trkpt lat="46.88361" lon="8.55034">
        <ele>1350</ele>
        <time>2021-08-10T15:05:49.409Z</time>
      </trkpt>
      <trkpt lat="46.88362" lon="8.55033">
        <ele>1350</ele>
        <time>2021-08-10T15:05:50.409Z</time>
      </trkpt>
      <trkpt lat="46.88362" lon="8.55032">
        <ele>1350</ele>
        <time>2021-08-10T15:05:51.408Z</time>
      </trkpt>
      <trkpt lat="46.88362" lon="8.55031">
        <ele>1350</ele>
        <time>2021-08-10T15:05:55.461Z</time>
      </trkpt>
      <trkpt lat="46.88362" lon="8.55031">
        <ele>1350</ele>
        <time>2021-08-10T15:05:56.460Z</time>
      </trkpt>
      <trkpt lat="46.88362" lon="8.5503">
        <ele>1350</ele>
        <time>2021-08-10T15:05:57.461Z</time>
      </trkpt>
      <trkpt lat="46.88362" lon="8.55029">
        <ele>1350</ele>
        <time>2021-08-10T15:05:58.461Z</time>
      </trkpt>
      <trkpt lat="46.88362" lon="8.55028">
        <ele>1350</ele>
        <time>2021-08-10T15:05:59.460Z</time>
      </trkpt>
      <trkpt lat="46.88362" lon="8.55027">
        <ele>1350</ele>
        <time>2021-08-10T15:06:00.461Z</time>
      </trkpt>
      <trkpt lat="46.88362" lon="8.55027">
        <ele>1350</ele>
        <time>2021-08-10T15:06:01.461Z</time>
      </trkpt>
      <trkpt lat="46.88362" lon="8.55026">
        <ele>1350</ele>
        <time>2021-08-10T15:06:03.565Z</time>
      </trkpt>
      <trkpt lat="46.88363" lon="8.55024">
        <ele>1350</ele>
        <time>2021-08-10T15:06:04.564Z</time>
      </trkpt>
      <trkpt lat="46.88363" lon="8.55023">
        <ele>1349</ele>
        <time>2021-08-10T15:06:05.565Z</time>
      </trkpt>
      <trkpt lat="46.88363" lon="8.55023">
        <ele>1349</ele>
        <time>2021-08-10T15:06:06.565Z</time>
      </trkpt>
      <trkpt lat="46.88363" lon="8.55022">
        <ele>1349</ele>
        <time>2021-08-10T15:06:07.564Z</time>
      </trkpt>
      <trkpt lat="46.88363" lon="8.55021">
        <ele>1349</ele>
        <time>2021-08-10T15:06:08.564Z</time>
      </trkpt>
      <trkpt lat="46.88363" lon="8.55021">
        <ele>1348</ele>
        <time>2021-08-10T15:06:09.565Z</time>
      </trkpt>
      <trkpt lat="46.88363" lon="8.5502">
        <ele>1348</ele>
        <time>2021-08-10T15:06:10.565Z</time>
      </trkpt>
      <trkpt lat="46.88363" lon="8.55018">
        <ele>1348</ele>
        <time>2021-08-10T15:06:11.565Z</time>
      </trkpt>
      <trkpt lat="46.88362" lon="8.55017">
        <ele>1348</ele>
        <time>2021-08-10T15:06:12.564Z</time>
      </trkpt>
      <trkpt lat="46.88362" lon="8.55016">
        <ele>1349</ele>
        <time>2021-08-10T15:06:13.565Z</time>
      </trkpt>
      <trkpt lat="46.88362" lon="8.55015">
        <ele>1349</ele>
        <time>2021-08-10T15:06:14.565Z</time>
      </trkpt>
      <trkpt lat="46.88362" lon="8.55014">
        <ele>1350</ele>
        <time>2021-08-10T15:06:15.565Z</time>
      </trkpt>
      <trkpt lat="46.88362" lon="8.55013">
        <ele>1350</ele>
        <time>2021-08-10T15:06:16.565Z</time>
      </trkpt>
      <trkpt lat="46.88362" lon="8.55011">
        <ele>1351</ele>
        <time>2021-08-10T15:06:17.565Z</time>
      </trkpt>
      <trkpt lat="46.88361" lon="8.5501">
        <ele>1352</ele>
        <time>2021-08-10T15:06:18.565Z</time>
      </trkpt>
      <trkpt lat="46.88361" lon="8.55009">
        <ele>1352</ele>
        <time>2021-08-10T15:06:19.564Z</time>
      </trkpt>
      <trkpt lat="46.88361" lon="8.55008">
        <ele>1353</ele>
        <time>2021-08-10T15:06:20.565Z</time>
      </trkpt>
      <trkpt lat="46.88361" lon="8.55006">
        <ele>1353</ele>
        <time>2021-08-10T15:06:21.565Z</time>
      </trkpt>
      <trkpt lat="46.88361" lon="8.55006">
        <ele>1354</ele>
        <time>2021-08-10T15:06:22.564Z</time>
      </trkpt>
      <trkpt lat="46.88361" lon="8.55005">
        <ele>1354</ele>
        <time>2021-08-10T15:06:23.564Z</time>
      </trkpt>
      <trkpt lat="46.88361" lon="8.55004">
        <ele>1354</ele>
        <time>2021-08-10T15:06:24.565Z</time>
      </trkpt>
      <trkpt lat="46.88361" lon="8.55003">
        <ele>1355</ele>
        <time>2021-08-10T15:06:25.564Z</time>
      </trkpt>
      <trkpt lat="46.88361" lon="8.55002">
        <ele>1355</ele>
        <time>2021-08-10T15:06:26.564Z</time>
      </trkpt>
      <trkpt lat="46.8836" lon="8.55001">
        <ele>1355</ele>
        <time>2021-08-10T15:06:27.564Z</time>
      </trkpt>
      <trkpt lat="46.8836" lon="8.55">
        <ele>1355</ele>
        <time>2021-08-10T15:06:28.565Z</time>
      </trkpt>
      <trkpt lat="46.8836" lon="8.54999">
        <ele>1356</ele>
        <time>2021-08-10T15:06:29.565Z</time>
      </trkpt>
      <trkpt lat="46.8836" lon="8.54998">
        <ele>1356</ele>
        <time>2021-08-10T15:06:30.565Z</time>
      </trkpt>
      <trkpt lat="46.88361" lon="8.54998">
        <ele>1356</ele>
        <time>2021-08-10T15:06:31.565Z</time>
      </trkpt>
      <trkpt lat="46.88361" lon="8.54997">
        <ele>1356</ele>
        <time>2021-08-10T15:06:32.565Z</time>
      </trkpt>
      <trkpt lat="46.88362" lon="8.54996">
        <ele>1356</ele>
        <time>2021-08-10T15:06:33.565Z</time>
      </trkpt>
      <trkpt lat="46.88362" lon="8.54996">
        <ele>1356</ele>
        <time>2021-08-10T15:06:34.565Z</time>
      </trkpt>
      <trkpt lat="46.88363" lon="8.54995">
        <ele>1356</ele>
        <time>2021-08-10T15:06:35.565Z</time>
      </trkpt>
      <trkpt lat="46.88363" lon="8.54993">
        <ele>1356</ele>
        <time>2021-08-10T15:06:36.565Z</time>
      </trkpt>
      <trkpt lat="46.88363" lon="8.54992">
        <ele>1357</ele>
        <time>2021-08-10T15:06:37.565Z</time>
      </trkpt>
      <trkpt lat="46.88362" lon="8.5499">
        <ele>1357</ele>
        <time>2021-08-10T15:06:38.565Z</time>
      </trkpt>
      <trkpt lat="46.88362" lon="8.54989">
        <ele>1358</ele>
        <time>2021-08-10T15:06:39.564Z</time>
      </trkpt>
      <trkpt lat="46.88361" lon="8.54988">
        <ele>1359</ele>
        <time>2021-08-10T15:06:40.565Z</time>
      </trkpt>
      <trkpt lat="46.88361" lon="8.54988">
        <ele>1359</ele>
        <time>2021-08-10T15:06:41.565Z</time>
      </trkpt>
      <trkpt lat="46.8836" lon="8.54988">
        <ele>1360</ele>
        <time>2021-08-10T15:06:42.564Z</time>
      </trkpt>
      <trkpt lat="46.8836" lon="8.54988">
        <ele>1361</ele>
        <time>2021-08-10T15:06:43.565Z</time>
      </trkpt>
      <trkpt lat="46.88359" lon="8.54988">
        <ele>1361</ele>
        <time>2021-08-10T15:06:44.564Z</time>
      </trkpt>
      <trkpt lat="46.88358" lon="8.54987">
        <ele>1362</ele>
        <time>2021-08-10T15:06:45.565Z</time>
      </trkpt>
      <trkpt lat="46.88358" lon="8.54987">
        <ele>1361</ele>
        <time>2021-08-10T15:06:46.564Z</time>
      </trkpt>
      <trkpt lat="46.88357" lon="8.54987">
        <ele>1361</ele>
        <time>2021-08-10T15:06:47.565Z</time>
      </trkpt>
      <trkpt lat="46.88356" lon="8.54987">
        <ele>1361</ele>
        <time>2021-08-10T15:06:48.565Z</time>
      </trkpt>
      <trkpt lat="46.88356" lon="8.54987">
        <ele>1361</ele>
        <time>2021-08-10T15:06:49.564Z</time>
      </trkpt>
      <trkpt lat="46.88355" lon="8.54987">
        <ele>1362</ele>
        <time>2021-08-10T15:06:50.565Z</time>
      </trkpt>
      <trkpt lat="46.88355" lon="8.54986">
        <ele>1363</ele>
        <time>2021-08-10T15:06:51.565Z</time>
      </trkpt>
      <trkpt lat="46.88354" lon="8.54986">
        <ele>1363</ele>
        <time>2021-08-10T15:06:52.565Z</time>
      </trkpt>
      <trkpt lat="46.88354" lon="8.54986">
        <ele>1364</ele>
        <time>2021-08-10T15:06:53.565Z</time>
      </trkpt>
      <trkpt lat="46.88353" lon="8.54985">
        <ele>1365</ele>
        <time>2021-08-10T15:06:54.564Z</time>
      </trkpt>
      <trkpt lat="46.88353" lon="8.54985">
        <ele>1366</ele>
        <time>2021-08-10T15:06:55.564Z</time>
      </trkpt>
      <trkpt lat="46.88352" lon="8.54984">
        <ele>1367</ele>
        <time>2021-08-10T15:06:56.564Z</time>
      </trkpt>
      <trkpt lat="46.88352" lon="8.54984">
        <ele>1367</ele>
        <time>2021-08-10T15:06:57.564Z</time>
      </trkpt>
      <trkpt lat="46.88352" lon="8.54983">
        <ele>1367</ele>
        <time>2021-08-10T15:06:58.565Z</time>
      </trkpt>
      <trkpt lat="46.88351" lon="8.54983">
        <ele>1367</ele>
        <time>2021-08-10T15:06:59.565Z</time>
      </trkpt>
      <trkpt lat="46.88351" lon="8.54982">
        <ele>1366</ele>
        <time>2021-08-10T15:07:00.565Z</time>
      </trkpt>
      <trkpt lat="46.8835" lon="8.54982">
        <ele>1366</ele>
        <time>2021-08-10T15:07:01.564Z</time>
      </trkpt>
      <trkpt lat="46.8835" lon="8.54981">
        <ele>1367</ele>
        <time>2021-08-10T15:07:02.564Z</time>
      </trkpt>
      <trkpt lat="46.88349" lon="8.54981">
        <ele>1367</ele>
        <time>2021-08-10T15:07:03.565Z</time>
      </trkpt>
      <trkpt lat="46.88348" lon="8.54981">
        <ele>1367</ele>
        <time>2021-08-10T15:07:04.564Z</time>
      </trkpt>
      <trkpt lat="46.88348" lon="8.54981">
        <ele>1367</ele>
        <time>2021-08-10T15:07:05.565Z</time>
      </trkpt>
      <trkpt lat="46.88347" lon="8.5498">
        <ele>1368</ele>
        <time>2021-08-10T15:07:06.565Z</time>
      </trkpt>
      <trkpt lat="46.88346" lon="8.5498">
        <ele>1368</ele>
        <time>2021-08-10T15:07:07.565Z</time>
      </trkpt>
      <trkpt lat="46.88345" lon="8.5498">
        <ele>1368</ele>
        <time>2021-08-10T15:07:08.565Z</time>
      </trkpt>
      <trkpt lat="46.88344" lon="8.5498">
        <ele>1368</ele>
        <time>2021-08-10T15:07:09.565Z</time>
      </trkpt>
      <trkpt lat="46.88344" lon="8.5498">
        <ele>1369</ele>
        <time>2021-08-10T15:07:10.564Z</time>
      </trkpt>
      <trkpt lat="46.88344" lon="8.5498">
        <ele>1369</ele>
        <time>2021-08-10T15:07:11.564Z</time>
      </trkpt>
      <trkpt lat="46.88344" lon="8.54979">
        <ele>1369</ele>
        <time>2021-08-10T15:07:12.565Z</time>
      </trkpt>
      <trkpt lat="46.88344" lon="8.54978">
        <ele>1369</ele>
        <time>2021-08-10T15:07:13.565Z</time>
      </trkpt>
      <trkpt lat="46.88344" lon="8.54977">
        <ele>1369</ele>
        <time>2021-08-10T15:07:14.564Z</time>
      </trkpt>
      <trkpt lat="46.88345" lon="8.54976">
        <ele>1369</ele>
        <time>2021-08-10T15:07:15.565Z</time>
      </trkpt>
      <trkpt lat="46.88345" lon="8.54976">
        <ele>1368</ele>
        <time>2021-08-10T15:07:16.565Z</time>
      </trkpt>
      <trkpt lat="46.88346" lon="8.54976">
        <ele>1368</ele>
        <time>2021-08-10T15:07:17.564Z</time>
      </trkpt>
      <trkpt lat="46.88347" lon="8.54975">
        <ele>1368</ele>
        <time>2021-08-10T15:07:18.565Z</time>
      </trkpt>
      <trkpt lat="46.88348" lon="8.54976">
        <ele>1368</ele>
        <time>2021-08-10T15:07:19.565Z</time>
      </trkpt>
      <trkpt lat="46.88349" lon="8.54976">
        <ele>1368</ele>
        <time>2021-08-10T15:07:20.565Z</time>
      </trkpt>
      <trkpt lat="46.88349" lon="8.54975">
        <ele>1368</ele>
        <time>2021-08-10T15:07:21.565Z</time>
      </trkpt>
      <trkpt lat="46.8835" lon="8.54975">
        <ele>1367</ele>
        <time>2021-08-10T15:07:22.564Z</time>
      </trkpt>
      <trkpt lat="46.8835" lon="8.54974">
        <ele>1367</ele>
        <time>2021-08-10T15:07:23.565Z</time>
      </trkpt>
      <trkpt lat="46.8835" lon="8.54973">
        <ele>1367</ele>
        <time>2021-08-10T15:07:24.565Z</time>
      </trkpt>
      <trkpt lat="46.8835" lon="8.54973">
        <ele>1367</ele>
        <time>2021-08-10T15:07:25.564Z</time>
      </trkpt>
      <trkpt lat="46.88349" lon="8.54972">
        <ele>1366</ele>
        <time>2021-08-10T15:07:26.564Z</time>
      </trkpt>
      <trkpt lat="46.88348" lon="8.5497">
        <ele>1366</ele>
        <time>2021-08-10T15:07:27.564Z</time>
      </trkpt>
      <trkpt lat="46.88348" lon="8.54969">
        <ele>1366</ele>
        <time>2021-08-10T15:07:28.565Z</time>
      </trkpt>
      <trkpt lat="46.88348" lon="8.54968">
        <ele>1366</ele>
        <time>2021-08-10T15:07:29.564Z</time>
      </trkpt>
      <trkpt lat="46.88347" lon="8.54968">
        <ele>1366</ele>
        <time>2021-08-10T15:07:30.565Z</time>
      </trkpt>
      <trkpt lat="46.88346" lon="8.54968">
        <ele>1366</ele>
        <time>2021-08-10T15:07:31.565Z</time>
      </trkpt>
      <trkpt lat="46.88346" lon="8.54969">
        <ele>1365</ele>
        <time>2021-08-10T15:07:32.565Z</time>
      </trkpt>
      <trkpt lat="46.88345" lon="8.54971">
        <ele>1365</ele>
        <time>2021-08-10T15:07:33.564Z</time>
      </trkpt>
      <trkpt lat="46.88344" lon="8.54971">
        <ele>1365</ele>
        <time>2021-08-10T15:07:34.564Z</time>
      </trkpt>
      <trkpt lat="46.88342" lon="8.54972">
        <ele>1364</ele>
        <time>2021-08-10T15:07:35.564Z</time>
      </trkpt>
      <trkpt lat="46.88341" lon="8.54972">
        <ele>1364</ele>
        <time>2021-08-10T15:07:36.564Z</time>
      </trkpt>
      <trkpt lat="46.88341" lon="8.54972">
        <ele>1363</ele>
        <time>2021-08-10T15:07:37.564Z</time>
      </trkpt>
      <trkpt lat="46.8834" lon="8.54971">
        <ele>1362</ele>
        <time>2021-08-10T15:07:38.564Z</time>
      </trkpt>
      <trkpt lat="46.88338" lon="8.54971">
        <ele>1362</ele>
        <time>2021-08-10T15:07:39.564Z</time>
      </trkpt>
      <trkpt lat="46.88338" lon="8.5497">
        <ele>1361</ele>
        <time>2021-08-10T15:07:40.565Z</time>
      </trkpt>
      <trkpt lat="46.88337" lon="8.54969">
        <ele>1361</ele>
        <time>2021-08-10T15:07:41.564Z</time>
      </trkpt>
      <trkpt lat="46.88337" lon="8.54968">
        <ele>1361</ele>
        <time>2021-08-10T15:07:42.565Z</time>
      </trkpt>
      <trkpt lat="46.88336" lon="8.54967">
        <ele>1360</ele>
        <time>2021-08-10T15:07:43.565Z</time>
      </trkpt>
      <trkpt lat="46.88336" lon="8.54966">
        <ele>1360</ele>
        <time>2021-08-10T15:07:44.565Z</time>
      </trkpt>
      <trkpt lat="46.88337" lon="8.54964">
        <ele>1359</ele>
        <time>2021-08-10T15:07:45.564Z</time>
      </trkpt>
      <trkpt lat="46.88338" lon="8.54963">
        <ele>1359</ele>
        <time>2021-08-10T15:07:46.564Z</time>
      </trkpt>
      <trkpt lat="46.88338" lon="8.54961">
        <ele>1358</ele>
        <time>2021-08-10T15:07:47.564Z</time>
      </trkpt>
      <trkpt lat="46.88338" lon="8.5496">
        <ele>1358</ele>
        <time>2021-08-10T15:07:48.564Z</time>
      </trkpt>
      <trkpt lat="46.88339" lon="8.54959">
        <ele>1357</ele>
        <time>2021-08-10T15:07:49.564Z</time>
      </trkpt>
      <trkpt lat="46.88339" lon="8.54958">
        <ele>1357</ele>
        <time>2021-08-10T15:07:50.564Z</time>
      </trkpt>
      <trkpt lat="46.8834" lon="8.54958">
        <ele>1357</ele>
        <time>2021-08-10T15:07:51.565Z</time>
      </trkpt>
      <trkpt lat="46.88341" lon="8.54957">
        <ele>1357</ele>
        <time>2021-08-10T15:07:52.565Z</time>
      </trkpt>
      <trkpt lat="46.88341" lon="8.54957">
        <ele>1357</ele>
        <time>2021-08-10T15:07:53.564Z</time>
      </trkpt>
      <trkpt lat="46.88341" lon="8.54956">
        <ele>1357</ele>
        <time>2021-08-10T15:07:54.564Z</time>
      </trkpt>
      <trkpt lat="46.88341" lon="8.54956">
        <ele>1357</ele>
        <time>2021-08-10T15:07:55.564Z</time>
      </trkpt>
      <trkpt lat="46.8834" lon="8.54955">
        <ele>1357</ele>
        <time>2021-08-10T15:07:56.564Z</time>
      </trkpt>
      <trkpt lat="46.88339" lon="8.54954">
        <ele>1357</ele>
        <time>2021-08-10T15:07:57.564Z</time>
      </trkpt>
      <trkpt lat="46.88338" lon="8.54952">
        <ele>1358</ele>
        <time>2021-08-10T15:07:58.565Z</time>
      </trkpt>
      <trkpt lat="46.88337" lon="8.54951">
        <ele>1358</ele>
        <time>2021-08-10T15:07:59.565Z</time>
      </trkpt>
      <trkpt lat="46.88337" lon="8.54951">
        <ele>1358</ele>
        <time>2021-08-10T15:08:00.565Z</time>
      </trkpt>
      <trkpt lat="46.88337" lon="8.54951">
        <ele>1359</ele>
        <time>2021-08-10T15:08:01.564Z</time>
      </trkpt>
      <trkpt lat="46.88337" lon="8.54951">
        <ele>1359</ele>
        <time>2021-08-10T15:08:02.564Z</time>
      </trkpt>
      <trkpt lat="46.88337" lon="8.54951">
        <ele>1364</ele>
        <time>2021-08-10T15:08:03.566Z</time>
      </trkpt>
      <trkpt lat="46.88337" lon="8.54949">
        <ele>1366</ele>
        <time>2021-08-10T15:08:04.565Z</time>
      </trkpt>
      <trkpt lat="46.88337" lon="8.54949">
        <ele>1366</ele>
        <time>2021-08-10T15:08:05.566Z</time>
      </trkpt>
      <trkpt lat="46.88338" lon="8.54949">
        <ele>1366</ele>
        <time>2021-08-10T15:08:06.565Z</time>
      </trkpt>
      <trkpt lat="46.88338" lon="8.54948">
        <ele>1367</ele>
        <time>2021-08-10T15:08:07.566Z</time>
      </trkpt>
      <trkpt lat="46.88338" lon="8.54948">
        <ele>1367</ele>
        <time>2021-08-10T15:08:08.566Z</time>
      </trkpt>
      <trkpt lat="46.88338" lon="8.54947">
        <ele>1368</ele>
        <time>2021-08-10T15:08:09.566Z</time>
      </trkpt>
      <trkpt lat="46.88338" lon="8.54946">
        <ele>1368</ele>
        <time>2021-08-10T15:08:10.566Z</time>
      </trkpt>
      <trkpt lat="46.88337" lon="8.54945">
        <ele>1369</ele>
        <time>2021-08-10T15:08:11.566Z</time>
      </trkpt>
      <trkpt lat="46.88337" lon="8.54945">
        <ele>1369</ele>
        <time>2021-08-10T15:08:12.566Z</time>
      </trkpt>
      <trkpt lat="46.88336" lon="8.54944">
        <ele>1370</ele>
        <time>2021-08-10T15:08:13.565Z</time>
      </trkpt>
      <trkpt lat="46.88336" lon="8.54944">
        <ele>1370</ele>
        <time>2021-08-10T15:08:14.566Z</time>
      </trkpt>
      <trkpt lat="46.88335" lon="8.54943">
        <ele>1371</ele>
        <time>2021-08-10T15:08:19.713Z</time>
      </trkpt>
      <trkpt lat="46.88335" lon="8.54943">
        <ele>1371</ele>
        <time>2021-08-10T15:08:20.713Z</time>
      </trkpt>
      <trkpt lat="46.88335" lon="8.54942">
        <ele>1371</ele>
        <time>2021-08-10T15:08:21.713Z</time>
      </trkpt>
      <trkpt lat="46.88335" lon="8.54941">
        <ele>1371</ele>
        <time>2021-08-10T15:08:22.713Z</time>
      </trkpt>
      <trkpt lat="46.88335" lon="8.54941">
        <ele>1371</ele>
        <time>2021-08-10T15:08:23.713Z</time>
      </trkpt>
      <trkpt lat="46.88335" lon="8.5494">
        <ele>1372</ele>
        <time>2021-08-10T15:08:24.713Z</time>
      </trkpt>
      <trkpt lat="46.88335" lon="8.54939">
        <ele>1373</ele>
        <time>2021-08-10T15:08:34.841Z</time>
      </trkpt>
      <trkpt lat="46.88335" lon="8.54939">
        <ele>1374</ele>
        <time>2021-08-10T15:08:35.840Z</time>
      </trkpt>
      <trkpt lat="46.88334" lon="8.54938">
        <ele>1375</ele>
        <time>2021-08-10T15:08:36.841Z</time>
      </trkpt>
      <trkpt lat="46.88334" lon="8.54938">
        <ele>1376</ele>
        <time>2021-08-10T15:08:37.841Z</time>
      </trkpt>
      <trkpt lat="46.88334" lon="8.54937">
        <ele>1376</ele>
        <time>2021-08-10T15:08:52.938Z</time>
      </trkpt>
      <trkpt lat="46.88334" lon="8.54936">
        <ele>1376</ele>
        <time>2021-08-10T15:08:53.938Z</time>
      </trkpt>
      <trkpt lat="46.88334" lon="8.54935">
        <ele>1377</ele>
        <time>2021-08-10T15:08:54.938Z</time>
      </trkpt>
      <trkpt lat="46.88334" lon="8.54935">
        <ele>1377</ele>
        <time>2021-08-10T15:08:55.938Z</time>
      </trkpt>
      <trkpt lat="46.88334" lon="8.54934">
        <ele>1377</ele>
        <time>2021-08-10T15:08:56.937Z</time>
      </trkpt>
      <trkpt lat="46.88333" lon="8.54933">
        <ele>1377</ele>
        <time>2021-08-10T15:08:57.937Z</time>
      </trkpt>
      <trkpt lat="46.88333" lon="8.54931">
        <ele>1377</ele>
        <time>2021-08-10T15:08:58.938Z</time>
      </trkpt>
      <trkpt lat="46.88333" lon="8.5493">
        <ele>1378</ele>
        <time>2021-08-10T15:08:59.938Z</time>
      </trkpt>
      <trkpt lat="46.88332" lon="8.5493">
        <ele>1378</ele>
        <time>2021-08-10T15:09:00.937Z</time>
      </trkpt>
      <trkpt lat="46.88332" lon="8.54929">
        <ele>1378</ele>
        <time>2021-08-10T15:09:01.938Z</time>
      </trkpt>
      <trkpt lat="46.88331" lon="8.54929">
        <ele>1378</ele>
        <time>2021-08-10T15:09:02.938Z</time>
      </trkpt>
      <trkpt lat="46.88332" lon="8.54929">
        <ele>1378</ele>
        <time>2021-08-10T15:09:03.938Z</time>
      </trkpt>
      <trkpt lat="46.88332" lon="8.54929">
        <ele>1378</ele>
        <time>2021-08-10T15:09:04.938Z</time>
      </trkpt>
      <trkpt lat="46.88332" lon="8.54927">
        <ele>1378</ele>
        <time>2021-08-10T15:09:05.937Z</time>
      </trkpt>
      <trkpt lat="46.8833" lon="8.54926">
        <ele>1378</ele>
        <time>2021-08-10T15:09:06.937Z</time>
      </trkpt>
      <trkpt lat="46.88329" lon="8.54924">
        <ele>1378</ele>
        <time>2021-08-10T15:09:07.938Z</time>
      </trkpt>
      <trkpt lat="46.88327" lon="8.54923">
        <ele>1379</ele>
        <time>2021-08-10T15:09:08.938Z</time>
      </trkpt>
      <trkpt lat="46.88326" lon="8.54922">
        <ele>1379</ele>
        <time>2021-08-10T15:09:09.937Z</time>
      </trkpt>
      <trkpt lat="46.88326" lon="8.54923">
        <ele>1380</ele>
        <time>2021-08-10T15:09:10.938Z</time>
      </trkpt>
      <trkpt lat="46.88326" lon="8.54923">
        <ele>1380</ele>
        <time>2021-08-10T15:09:11.937Z</time>
      </trkpt>
      <trkpt lat="46.88326" lon="8.54923">
        <ele>1381</ele>
        <time>2021-08-10T15:09:12.938Z</time>
      </trkpt>
      <trkpt lat="46.88325" lon="8.54923">
        <ele>1381</ele>
        <time>2021-08-10T15:09:13.937Z</time>
      </trkpt>
      <trkpt lat="46.88325" lon="8.54922">
        <ele>1381</ele>
        <time>2021-08-10T15:09:14.938Z</time>
      </trkpt>
      <trkpt lat="46.88325" lon="8.54922">
        <ele>1381</ele>
        <time>2021-08-10T15:09:15.938Z</time>
      </trkpt>
      <trkpt lat="46.88325" lon="8.54922">
        <ele>1381</ele>
        <time>2021-08-10T15:09:16.938Z</time>
      </trkpt>
      <trkpt lat="46.88324" lon="8.5492">
        <ele>1382</ele>
        <time>2021-08-10T15:09:17.938Z</time>
      </trkpt>
      <trkpt lat="46.88323" lon="8.5492">
        <ele>1382</ele>
        <time>2021-08-10T15:09:18.937Z</time>
      </trkpt>
      <trkpt lat="46.88323" lon="8.5492">
        <ele>1383</ele>
        <time>2021-08-10T15:09:19.938Z</time>
      </trkpt>
      <trkpt lat="46.88323" lon="8.5492">
        <ele>1383</ele>
        <time>2021-08-10T15:09:20.938Z</time>
      </trkpt>
      <trkpt lat="46.88322" lon="8.54919">
        <ele>1385</ele>
        <time>2021-08-10T15:09:21.937Z</time>
      </trkpt>
      <trkpt lat="46.88322" lon="8.54918">
        <ele>1386</ele>
        <time>2021-08-10T15:09:22.938Z</time>
      </trkpt>
      <trkpt lat="46.88321" lon="8.54917">
        <ele>1387</ele>
        <time>2021-08-10T15:09:23.938Z</time>
      </trkpt>
      <trkpt lat="46.8832" lon="8.54917">
        <ele>1387</ele>
        <time>2021-08-10T15:09:24.938Z</time>
      </trkpt>
      <trkpt lat="46.8832" lon="8.54916">
        <ele>1388</ele>
        <time>2021-08-10T15:09:25.938Z</time>
      </trkpt>
      <trkpt lat="46.8832" lon="8.54916">
        <ele>1389</ele>
        <time>2021-08-10T15:09:26.938Z</time>
      </trkpt>
      <trkpt lat="46.88319" lon="8.54915">
        <ele>1389</ele>
        <time>2021-08-10T15:09:27.937Z</time>
      </trkpt>
      <trkpt lat="46.8832" lon="8.54914">
        <ele>1389</ele>
        <time>2021-08-10T15:09:28.938Z</time>
      </trkpt>
      <trkpt lat="46.8832" lon="8.54914">
        <ele>1390</ele>
        <time>2021-08-10T15:09:29.937Z</time>
      </trkpt>
      <trkpt lat="46.88321" lon="8.54914">
        <ele>1390</ele>
        <time>2021-08-10T15:09:30.938Z</time>
      </trkpt>
      <trkpt lat="46.88321" lon="8.54913">
        <ele>1391</ele>
        <time>2021-08-10T15:09:31.938Z</time>
      </trkpt>
      <trkpt lat="46.88321" lon="8.54913">
        <ele>1391</ele>
        <time>2021-08-10T15:09:32.938Z</time>
      </trkpt>
      <trkpt lat="46.88321" lon="8.54912">
        <ele>1392</ele>
        <time>2021-08-10T15:09:33.938Z</time>
      </trkpt>
      <trkpt lat="46.88321" lon="8.54911">
        <ele>1392</ele>
        <time>2021-08-10T15:09:34.937Z</time>
      </trkpt>
      <trkpt lat="46.88321" lon="8.54909">
        <ele>1392</ele>
        <time>2021-08-10T15:09:35.938Z</time>
      </trkpt>
      <trkpt lat="46.8832" lon="8.54908">
        <ele>1393</ele>
        <time>2021-08-10T15:09:36.938Z</time>
      </trkpt>
      <trkpt lat="46.8832" lon="8.54906">
        <ele>1393</ele>
        <time>2021-08-10T15:09:37.937Z</time>
      </trkpt>
      <trkpt lat="46.8832" lon="8.54905">
        <ele>1393</ele>
        <time>2021-08-10T15:09:38.937Z</time>
      </trkpt>
      <trkpt lat="46.88319" lon="8.54903">
        <ele>1393</ele>
        <time>2021-08-10T15:09:39.938Z</time>
      </trkpt>
      <trkpt lat="46.88319" lon="8.54902">
        <ele>1394</ele>
        <time>2021-08-10T15:09:40.937Z</time>
      </trkpt>
      <trkpt lat="46.88318" lon="8.54901">
        <ele>1394</ele>
        <time>2021-08-10T15:09:41.938Z</time>
      </trkpt>
      <trkpt lat="46.88318" lon="8.549">
        <ele>1395</ele>
        <time>2021-08-10T15:09:42.938Z</time>
      </trkpt>
      <trkpt lat="46.88317" lon="8.54899">
        <ele>1395</ele>
        <time>2021-08-10T15:09:43.938Z</time>
      </trkpt>
      <trkpt lat="46.88316" lon="8.54899">
        <ele>1395</ele>
        <time>2021-08-10T15:09:44.938Z</time>
      </trkpt>
      <trkpt lat="46.88315" lon="8.54898">
        <ele>1395</ele>
        <time>2021-08-10T15:09:45.938Z</time>
      </trkpt>
      <trkpt lat="46.88314" lon="8.54897">
        <ele>1395</ele>
        <time>2021-08-10T15:09:46.938Z</time>
      </trkpt>
      <trkpt lat="46.88314" lon="8.54896">
        <ele>1395</ele>
        <time>2021-08-10T15:09:47.937Z</time>
      </trkpt>
      <trkpt lat="46.88314" lon="8.54896">
        <ele>1395</ele>
        <time>2021-08-10T15:09:48.938Z</time>
      </trkpt>
      <trkpt lat="46.88314" lon="8.54895">
        <ele>1395</ele>
        <time>2021-08-10T15:09:49.938Z</time>
      </trkpt>
      <trkpt lat="46.88313" lon="8.54894">
        <ele>1396</ele>
        <time>2021-08-10T15:09:50.938Z</time>
      </trkpt>
      <trkpt lat="46.88313" lon="8.54893">
        <ele>1396</ele>
        <time>2021-08-10T15:09:51.938Z</time>
      </trkpt>
      <trkpt lat="46.88313" lon="8.54893">
        <ele>1396</ele>
        <time>2021-08-10T15:09:52.938Z</time>
      </trkpt>
      <trkpt lat="46.88313" lon="8.54892">
        <ele>1395</ele>
        <time>2021-08-10T15:09:53.938Z</time>
      </trkpt>
      <trkpt lat="46.88313" lon="8.54891">
        <ele>1395</ele>
        <time>2021-08-10T15:09:54.938Z</time>
      </trkpt>
      <trkpt lat="46.88313" lon="8.5489">
        <ele>1394</ele>
        <time>2021-08-10T15:09:55.938Z</time>
      </trkpt>
      <trkpt lat="46.88313" lon="8.54889">
        <ele>1393</ele>
        <time>2021-08-10T15:09:56.937Z</time>
      </trkpt>
      <trkpt lat="46.88313" lon="8.54889">
        <ele>1392</ele>
        <time>2021-08-10T15:09:57.937Z</time>
      </trkpt>
      <trkpt lat="46.88313" lon="8.54887">
        <ele>1392</ele>
        <time>2021-08-10T15:09:58.938Z</time>
      </trkpt>
      <trkpt lat="46.88313" lon="8.54887">
        <ele>1392</ele>
        <time>2021-08-10T15:09:59.937Z</time>
      </trkpt>
      <trkpt lat="46.88314" lon="8.54886">
        <ele>1391</ele>
        <time>2021-08-10T15:10:00.938Z</time>
      </trkpt>
      <trkpt lat="46.88314" lon="8.54885">
        <ele>1391</ele>
        <time>2021-08-10T15:10:01.938Z</time>
      </trkpt>
      <trkpt lat="46.88315" lon="8.54885">
        <ele>1390</ele>
        <time>2021-08-10T15:10:02.937Z</time>
      </trkpt>
      <trkpt lat="46.88316" lon="8.54884">
        <ele>1390</ele>
        <time>2021-08-10T15:10:03.937Z</time>
      </trkpt>
      <trkpt lat="46.88316" lon="8.54883">
        <ele>1389</ele>
        <time>2021-08-10T15:10:04.937Z</time>
      </trkpt>
      <trkpt lat="46.88316" lon="8.54883">
        <ele>1389</ele>
        <time>2021-08-10T15:10:05.938Z</time>
      </trkpt>
      <trkpt lat="46.88318" lon="8.54882">
        <ele>1388</ele>
        <time>2021-08-10T15:10:06.937Z</time>
      </trkpt>
      <trkpt lat="46.88318" lon="8.54882">
        <ele>1388</ele>
        <time>2021-08-10T15:10:07.938Z</time>
      </trkpt>
      <trkpt lat="46.88319" lon="8.54881">
        <ele>1387</ele>
        <time>2021-08-10T15:10:08.938Z</time>
      </trkpt>
      <trkpt lat="46.8832" lon="8.5488">
        <ele>1387</ele>
        <time>2021-08-10T15:10:09.938Z</time>
      </trkpt>
      <trkpt lat="46.88321" lon="8.54879">
        <ele>1386</ele>
        <time>2021-08-10T15:10:10.938Z</time>
      </trkpt>
      <trkpt lat="46.88322" lon="8.54878">
        <ele>1386</ele>
        <time>2021-08-10T15:10:11.938Z</time>
      </trkpt>
      <trkpt lat="46.88322" lon="8.54877">
        <ele>1386</ele>
        <time>2021-08-10T15:10:12.937Z</time>
      </trkpt>
      <trkpt lat="46.88322" lon="8.54876">
        <ele>1386</ele>
        <time>2021-08-10T15:10:13.937Z</time>
      </trkpt>
      <trkpt lat="46.88323" lon="8.54875">
        <ele>1385</ele>
        <time>2021-08-10T15:10:14.938Z</time>
      </trkpt>
      <trkpt lat="46.88323" lon="8.54874">
        <ele>1385</ele>
        <time>2021-08-10T15:10:15.937Z</time>
      </trkpt>
      <trkpt lat="46.88323" lon="8.54873">
        <ele>1385</ele>
        <time>2021-08-10T15:10:16.938Z</time>
      </trkpt>
      <trkpt lat="46.88322" lon="8.54872">
        <ele>1385</ele>
        <time>2021-08-10T15:10:17.937Z</time>
      </trkpt>
      <trkpt lat="46.88321" lon="8.5487">
        <ele>1385</ele>
        <time>2021-08-10T15:10:18.937Z</time>
      </trkpt>
      <trkpt lat="46.88321" lon="8.54869">
        <ele>1385</ele>
        <time>2021-08-10T15:10:19.937Z</time>
      </trkpt>
      <trkpt lat="46.8832" lon="8.54866">
        <ele>1384</ele>
        <time>2021-08-10T15:10:20.937Z</time>
      </trkpt>
      <trkpt lat="46.88319" lon="8.54864">
        <ele>1384</ele>
        <time>2021-08-10T15:10:21.938Z</time>
      </trkpt>
      <trkpt lat="46.88318" lon="8.54863">
        <ele>1384</ele>
        <time>2021-08-10T15:10:22.937Z</time>
      </trkpt>
      <trkpt lat="46.88317" lon="8.54862">
        <ele>1384</ele>
        <time>2021-08-10T15:10:23.937Z</time>
      </trkpt>
      <trkpt lat="46.88317" lon="8.54862">
        <ele>1385</ele>
        <time>2021-08-10T15:10:24.937Z</time>
      </trkpt>
      <trkpt lat="46.88316" lon="8.54861">
        <ele>1385</ele>
        <time>2021-08-10T15:10:25.938Z</time>
      </trkpt>
      <trkpt lat="46.88316" lon="8.54861">
        <ele>1386</ele>
        <time>2021-08-10T15:10:26.937Z</time>
      </trkpt>
      <trkpt lat="46.88315" lon="8.54861">
        <ele>1387</ele>
        <time>2021-08-10T15:10:27.937Z</time>
      </trkpt>
      <trkpt lat="46.88314" lon="8.54861">
        <ele>1388</ele>
        <time>2021-08-10T15:10:28.938Z</time>
      </trkpt>
      <trkpt lat="46.88314" lon="8.5486">
        <ele>1388</ele>
        <time>2021-08-10T15:10:29.938Z</time>
      </trkpt>
      <trkpt lat="46.88313" lon="8.5486">
        <ele>1389</ele>
        <time>2021-08-10T15:10:30.937Z</time>
      </trkpt>
      <trkpt lat="46.88313" lon="8.5486">
        <ele>1389</ele>
        <time>2021-08-10T15:10:31.938Z</time>
      </trkpt>
      <trkpt lat="46.88312" lon="8.5486">
        <ele>1389</ele>
        <time>2021-08-10T15:10:32.937Z</time>
      </trkpt>
      <trkpt lat="46.88311" lon="8.54859">
        <ele>1389</ele>
        <time>2021-08-10T15:10:33.938Z</time>
      </trkpt>
      <trkpt lat="46.8831" lon="8.54858">
        <ele>1389</ele>
        <time>2021-08-10T15:10:34.937Z</time>
      </trkpt>
      <trkpt lat="46.8831" lon="8.54859">
        <ele>1390</ele>
        <time>2021-08-10T15:10:35.938Z</time>
      </trkpt>
      <trkpt lat="46.8831" lon="8.54859">
        <ele>1391</ele>
        <time>2021-08-10T15:10:36.938Z</time>
      </trkpt>
      <trkpt lat="46.88309" lon="8.5486">
        <ele>1392</ele>
        <time>2021-08-10T15:10:37.937Z</time>
      </trkpt>
      <trkpt lat="46.88308" lon="8.5486">
        <ele>1393</ele>
        <time>2021-08-10T15:10:38.938Z</time>
      </trkpt>
      <trkpt lat="46.88308" lon="8.5486">
        <ele>1393</ele>
        <time>2021-08-10T15:10:39.938Z</time>
      </trkpt>
      <trkpt lat="46.88307" lon="8.5486">
        <ele>1394</ele>
        <time>2021-08-10T15:10:40.938Z</time>
      </trkpt>
      <trkpt lat="46.88306" lon="8.5486">
        <ele>1394</ele>
        <time>2021-08-10T15:10:41.938Z</time>
      </trkpt>
      <trkpt lat="46.88305" lon="8.5486">
        <ele>1395</ele>
        <time>2021-08-10T15:10:42.938Z</time>
      </trkpt>
      <trkpt lat="46.88305" lon="8.54859">
        <ele>1395</ele>
        <time>2021-08-10T15:10:43.938Z</time>
      </trkpt>
      <trkpt lat="46.88304" lon="8.54859">
        <ele>1395</ele>
        <time>2021-08-10T15:10:44.938Z</time>
      </trkpt>
      <trkpt lat="46.88304" lon="8.54858">
        <ele>1395</ele>
        <time>2021-08-10T15:10:45.938Z</time>
      </trkpt>
      <trkpt lat="46.88303" lon="8.54858">
        <ele>1395</ele>
        <time>2021-08-10T15:10:46.938Z</time>
      </trkpt>
      <trkpt lat="46.88303" lon="8.54857">
        <ele>1394</ele>
        <time>2021-08-10T15:10:47.937Z</time>
      </trkpt>
      <trkpt lat="46.88302" lon="8.54857">
        <ele>1394</ele>
        <time>2021-08-10T15:10:48.937Z</time>
      </trkpt>
      <trkpt lat="46.88302" lon="8.54856">
        <ele>1394</ele>
        <time>2021-08-10T15:10:49.938Z</time>
      </trkpt>
      <trkpt lat="46.88301" lon="8.54855">
        <ele>1394</ele>
        <time>2021-08-10T15:10:50.938Z</time>
      </trkpt>
      <trkpt lat="46.88301" lon="8.54855">
        <ele>1394</ele>
        <time>2021-08-10T15:10:51.938Z</time>
      </trkpt>
      <trkpt lat="46.88301" lon="8.54854">
        <ele>1394</ele>
        <time>2021-08-10T15:10:52.937Z</time>
      </trkpt>
      <trkpt lat="46.88302" lon="8.54855">
        <ele>1395</ele>
        <time>2021-08-10T15:10:53.938Z</time>
      </trkpt>
      <trkpt lat="46.88301" lon="8.54855">
        <ele>1395</ele>
        <time>2021-08-10T15:10:54.938Z</time>
      </trkpt>
      <trkpt lat="46.88301" lon="8.54856">
        <ele>1396</ele>
        <time>2021-08-10T15:10:55.938Z</time>
      </trkpt>
      <trkpt lat="46.88301" lon="8.54856">
        <ele>1397</ele>
        <time>2021-08-10T15:10:56.938Z</time>
      </trkpt>
      <trkpt lat="46.883" lon="8.54856">
        <ele>1397</ele>
        <time>2021-08-10T15:10:57.937Z</time>
      </trkpt>
      <trkpt lat="46.883" lon="8.54856">
        <ele>1398</ele>
        <time>2021-08-10T15:10:58.938Z</time>
      </trkpt>
      <trkpt lat="46.883" lon="8.54855">
        <ele>1399</ele>
        <time>2021-08-10T15:10:59.938Z</time>
      </trkpt>
      <trkpt lat="46.883" lon="8.54854">
        <ele>1399</ele>
        <time>2021-08-10T15:11:00.938Z</time>
      </trkpt>
      <trkpt lat="46.88299" lon="8.54854">
        <ele>1400</ele>
        <time>2021-08-10T15:11:01.938Z</time>
      </trkpt>
      <trkpt lat="46.88298" lon="8.54853">
        <ele>1400</ele>
        <time>2021-08-10T15:11:02.937Z</time>
      </trkpt>
      <trkpt lat="46.88297" lon="8.54853">
        <ele>1400</ele>
        <time>2021-08-10T15:11:03.938Z</time>
      </trkpt>
      <trkpt lat="46.88297" lon="8.54853">
        <ele>1401</ele>
        <time>2021-08-10T15:11:04.937Z</time>
      </trkpt>
      <trkpt lat="46.88297" lon="8.54852">
        <ele>1401</ele>
        <time>2021-08-10T15:11:05.937Z</time>
      </trkpt>
      <trkpt lat="46.88296" lon="8.54852">
        <ele>1401</ele>
        <time>2021-08-10T15:11:06.938Z</time>
      </trkpt>
      <trkpt lat="46.88296" lon="8.54851">
        <ele>1400</ele>
        <time>2021-08-10T15:11:07.938Z</time>
      </trkpt>
      <trkpt lat="46.88296" lon="8.5485">
        <ele>1400</ele>
        <time>2021-08-10T15:11:08.938Z</time>
      </trkpt>
      <trkpt lat="46.88295" lon="8.5485">
        <ele>1399</ele>
        <time>2021-08-10T15:11:09.938Z</time>
      </trkpt>
      <trkpt lat="46.88295" lon="8.5485">
        <ele>1399</ele>
        <time>2021-08-10T15:11:10.938Z</time>
      </trkpt>
      <trkpt lat="46.88294" lon="8.5485">
        <ele>1399</ele>
        <time>2021-08-10T15:11:11.937Z</time>
      </trkpt>
      <trkpt lat="46.88294" lon="8.54849">
        <ele>1399</ele>
        <time>2021-08-10T15:11:12.938Z</time>
      </trkpt>
      <trkpt lat="46.88294" lon="8.54849">
        <ele>1399</ele>
        <time>2021-08-10T15:11:13.938Z</time>
      </trkpt>
      <trkpt lat="46.88295" lon="8.5485">
        <ele>1399</ele>
        <time>2021-08-10T15:11:14.940Z</time>
      </trkpt>
      <trkpt lat="46.88295" lon="8.5485">
        <ele>1399</ele>
        <time>2021-08-10T15:11:15.940Z</time>
      </trkpt>
      <trkpt lat="46.88295" lon="8.5485">
        <ele>1399</ele>
        <time>2021-08-10T15:11:16.940Z</time>
      </trkpt>
      <trkpt lat="46.88295" lon="8.54849">
        <ele>1398</ele>
        <time>2021-08-10T15:11:17.940Z</time>
      </trkpt>
      <trkpt lat="46.88294" lon="8.54849">
        <ele>1398</ele>
        <time>2021-08-10T15:11:18.940Z</time>
      </trkpt>
      <trkpt lat="46.88293" lon="8.54848">
        <ele>1398</ele>
        <time>2021-08-10T15:11:19.939Z</time>
      </trkpt>
      <trkpt lat="46.88293" lon="8.54848">
        <ele>1398</ele>
        <time>2021-08-10T15:11:20.939Z</time>
      </trkpt>
      <trkpt lat="46.88292" lon="8.54848">
        <ele>1398</ele>
        <time>2021-08-10T15:11:21.940Z</time>
      </trkpt>
      <trkpt lat="46.88291" lon="8.54847">
        <ele>1398</ele>
        <time>2021-08-10T15:11:22.939Z</time>
      </trkpt>
      <trkpt lat="46.88291" lon="8.54846">
        <ele>1399</ele>
        <time>2021-08-10T15:11:23.940Z</time>
      </trkpt>
      <trkpt lat="46.88291" lon="8.54846">
        <ele>1399</ele>
        <time>2021-08-10T15:11:24.939Z</time>
      </trkpt>
      <trkpt lat="46.88291" lon="8.54845">
        <ele>1399</ele>
        <time>2021-08-10T15:11:25.939Z</time>
      </trkpt>
      <trkpt lat="46.8829" lon="8.54844">
        <ele>1400</ele>
        <time>2021-08-10T15:11:26.940Z</time>
      </trkpt>
      <trkpt lat="46.8829" lon="8.54843">
        <ele>1400</ele>
        <time>2021-08-10T15:11:27.940Z</time>
      </trkpt>
      <trkpt lat="46.88289" lon="8.54842">
        <ele>1400</ele>
        <time>2021-08-10T15:11:28.940Z</time>
      </trkpt>
      <trkpt lat="46.88289" lon="8.54841">
        <ele>1400</ele>
        <time>2021-08-10T15:11:29.939Z</time>
      </trkpt>
      <trkpt lat="46.88289" lon="8.5484">
        <ele>1401</ele>
        <time>2021-08-10T15:11:30.939Z</time>
      </trkpt>
      <trkpt lat="46.88289" lon="8.5484">
        <ele>1401</ele>
        <time>2021-08-10T15:11:31.939Z</time>
      </trkpt>
      <trkpt lat="46.8829" lon="8.54841">
        <ele>1401</ele>
        <time>2021-08-10T15:11:32.940Z</time>
      </trkpt>
      <trkpt lat="46.88289" lon="8.54841">
        <ele>1402</ele>
        <time>2021-08-10T15:11:33.940Z</time>
      </trkpt>
      <trkpt lat="46.88289" lon="8.54841">
        <ele>1402</ele>
        <time>2021-08-10T15:11:34.939Z</time>
      </trkpt>
      <trkpt lat="46.88288" lon="8.54842">
        <ele>1403</ele>
        <time>2021-08-10T15:11:35.940Z</time>
      </trkpt>
      <trkpt lat="46.88288" lon="8.54841">
        <ele>1403</ele>
        <time>2021-08-10T15:11:36.940Z</time>
      </trkpt>
      <trkpt lat="46.88288" lon="8.54842">
        <ele>1403</ele>
        <time>2021-08-10T15:11:37.940Z</time>
      </trkpt>
      <trkpt lat="46.88288" lon="8.54842">
        <ele>1403</ele>
        <time>2021-08-10T15:11:38.939Z</time>
      </trkpt>
      <trkpt lat="46.88287" lon="8.54842">
        <ele>1404</ele>
        <time>2021-08-10T15:11:39.940Z</time>
      </trkpt>
      <trkpt lat="46.88287" lon="8.54842">
        <ele>1404</ele>
        <time>2021-08-10T15:11:40.940Z</time>
      </trkpt>
      <trkpt lat="46.88286" lon="8.54841">
        <ele>1404</ele>
        <time>2021-08-10T15:11:41.939Z</time>
      </trkpt>
      <trkpt lat="46.88286" lon="8.54841">
        <ele>1404</ele>
        <time>2021-08-10T15:11:42.940Z</time>
      </trkpt>
      <trkpt lat="46.88286" lon="8.54841">
        <ele>1404</ele>
        <time>2021-08-10T15:11:43.939Z</time>
      </trkpt>
      <trkpt lat="46.88286" lon="8.5484">
        <ele>1404</ele>
        <time>2021-08-10T15:11:44.939Z</time>
      </trkpt>
      <trkpt lat="46.88285" lon="8.54838">
        <ele>1404</ele>
        <time>2021-08-10T15:11:45.939Z</time>
      </trkpt>
      <trkpt lat="46.88285" lon="8.54838">
        <ele>1404</ele>
        <time>2021-08-10T15:11:46.939Z</time>
      </trkpt>
      <trkpt lat="46.88285" lon="8.54837">
        <ele>1404</ele>
        <time>2021-08-10T15:11:47.939Z</time>
      </trkpt>
      <trkpt lat="46.88285" lon="8.54836">
        <ele>1404</ele>
        <time>2021-08-10T15:11:48.940Z</time>
      </trkpt>
      <trkpt lat="46.88284" lon="8.54835">
        <ele>1404</ele>
        <time>2021-08-10T15:11:49.939Z</time>
      </trkpt>
      <trkpt lat="46.88284" lon="8.54833">
        <ele>1405</ele>
        <time>2021-08-10T15:11:50.939Z</time>
      </trkpt>
      <trkpt lat="46.88282" lon="8.54832">
        <ele>1405</ele>
        <time>2021-08-10T15:11:51.940Z</time>
      </trkpt>
      <trkpt lat="46.88281" lon="8.54831">
        <ele>1405</ele>
        <time>2021-08-10T15:11:52.940Z</time>
      </trkpt>
      <trkpt lat="46.8828" lon="8.54831">
        <ele>1405</ele>
        <time>2021-08-10T15:11:53.940Z</time>
      </trkpt>
      <trkpt lat="46.88279" lon="8.54829">
        <ele>1405</ele>
        <time>2021-08-10T15:11:54.940Z</time>
      </trkpt>
      <trkpt lat="46.88279" lon="8.54829">
        <ele>1405</ele>
        <time>2021-08-10T15:11:55.940Z</time>
      </trkpt>
      <trkpt lat="46.88278" lon="8.54828">
        <ele>1404</ele>
        <time>2021-08-10T15:11:56.939Z</time>
      </trkpt>
      <trkpt lat="46.88279" lon="8.54827">
        <ele>1404</ele>
        <time>2021-08-10T15:11:57.939Z</time>
      </trkpt>
      <trkpt lat="46.88278" lon="8.54826">
        <ele>1404</ele>
        <time>2021-08-10T15:11:58.939Z</time>
      </trkpt>
      <trkpt lat="46.88277" lon="8.54826">
        <ele>1404</ele>
        <time>2021-08-10T15:11:59.940Z</time>
      </trkpt>
      <trkpt lat="46.88276" lon="8.54825">
        <ele>1404</ele>
        <time>2021-08-10T15:12:00.940Z</time>
      </trkpt>
      <trkpt lat="46.88276" lon="8.54825">
        <ele>1404</ele>
        <time>2021-08-10T15:12:01.940Z</time>
      </trkpt>
      <trkpt lat="46.88276" lon="8.54824">
        <ele>1404</ele>
        <time>2021-08-10T15:12:02.939Z</time>
      </trkpt>
      <trkpt lat="46.88277" lon="8.54824">
        <ele>1404</ele>
        <time>2021-08-10T15:12:03.939Z</time>
      </trkpt>
      <trkpt lat="46.88277" lon="8.54825">
        <ele>1404</ele>
        <time>2021-08-10T15:12:04.939Z</time>
      </trkpt>
      <trkpt lat="46.88276" lon="8.54824">
        <ele>1404</ele>
        <time>2021-08-10T15:12:05.940Z</time>
      </trkpt>
      <trkpt lat="46.88275" lon="8.54823">
        <ele>1404</ele>
        <time>2021-08-10T15:12:06.940Z</time>
      </trkpt>
      <trkpt lat="46.88275" lon="8.54822">
        <ele>1405</ele>
        <time>2021-08-10T15:12:07.939Z</time>
      </trkpt>
      <trkpt lat="46.88274" lon="8.54821">
        <ele>1405</ele>
        <time>2021-08-10T15:12:08.939Z</time>
      </trkpt>
      <trkpt lat="46.88274" lon="8.5482">
        <ele>1405</ele>
        <time>2021-08-10T15:12:09.939Z</time>
      </trkpt>
      <trkpt lat="46.88274" lon="8.54819">
        <ele>1406</ele>
        <time>2021-08-10T15:12:10.939Z</time>
      </trkpt>
      <trkpt lat="46.88274" lon="8.54818">
        <ele>1406</ele>
        <time>2021-08-10T15:12:11.940Z</time>
      </trkpt>
      <trkpt lat="46.88274" lon="8.54817">
        <ele>1406</ele>
        <time>2021-08-10T15:12:12.939Z</time>
      </trkpt>
      <trkpt lat="46.88274" lon="8.54817">
        <ele>1406</ele>
        <time>2021-08-10T15:12:13.939Z</time>
      </trkpt>
      <trkpt lat="46.88274" lon="8.54816">
        <ele>1406</ele>
        <time>2021-08-10T15:12:14.940Z</time>
      </trkpt>
      <trkpt lat="46.88274" lon="8.54815">
        <ele>1406</ele>
        <time>2021-08-10T15:12:15.939Z</time>
      </trkpt>
      <trkpt lat="46.88274" lon="8.54814">
        <ele>1405</ele>
        <time>2021-08-10T15:12:16.940Z</time>
      </trkpt>
      <trkpt lat="46.88273" lon="8.54813">
        <ele>1405</ele>
        <time>2021-08-10T15:12:17.940Z</time>
      </trkpt>
      <trkpt lat="46.88273" lon="8.54812">
        <ele>1405</ele>
        <time>2021-08-10T15:12:18.940Z</time>
      </trkpt>
      <trkpt lat="46.88272" lon="8.54811">
        <ele>1405</ele>
        <time>2021-08-10T15:12:19.940Z</time>
      </trkpt>
      <trkpt lat="46.88271" lon="8.5481">
        <ele>1405</ele>
        <time>2021-08-10T15:12:20.940Z</time>
      </trkpt>
      <trkpt lat="46.88271" lon="8.54809">
        <ele>1405</ele>
        <time>2021-08-10T15:12:21.940Z</time>
      </trkpt>
      <trkpt lat="46.88271" lon="8.5481">
        <ele>1405</ele>
        <time>2021-08-10T15:12:22.939Z</time>
      </trkpt>
      <trkpt lat="46.88271" lon="8.5481">
        <ele>1405</ele>
        <time>2021-08-10T15:12:23.940Z</time>
      </trkpt>
      <trkpt lat="46.88271" lon="8.54811">
        <ele>1405</ele>
        <time>2021-08-10T15:12:24.940Z</time>
      </trkpt>
      <trkpt lat="46.88271" lon="8.54812">
        <ele>1405</ele>
        <time>2021-08-10T15:12:25.939Z</time>
      </trkpt>
      <trkpt lat="46.88271" lon="8.54812">
        <ele>1405</ele>
        <time>2021-08-10T15:12:26.939Z</time>
      </trkpt>
      <trkpt lat="46.88271" lon="8.54813">
        <ele>1405</ele>
        <time>2021-08-10T15:12:27.939Z</time>
      </trkpt>
      <trkpt lat="46.88271" lon="8.54812">
        <ele>1406</ele>
        <time>2021-08-10T15:12:28.940Z</time>
      </trkpt>
      <trkpt lat="46.8827" lon="8.54812">
        <ele>1406</ele>
        <time>2021-08-10T15:12:29.941Z</time>
      </trkpt>
      <trkpt lat="46.8827" lon="8.54812">
        <ele>1406</ele>
        <time>2021-08-10T15:12:30.940Z</time>
      </trkpt>
      <trkpt lat="46.88271" lon="8.54813">
        <ele>1406</ele>
        <time>2021-08-10T15:12:31.941Z</time>
      </trkpt>
      <trkpt lat="46.88271" lon="8.54813">
        <ele>1406</ele>
        <time>2021-08-10T15:12:32.942Z</time>
      </trkpt>
      <trkpt lat="46.8827" lon="8.54815">
        <ele>1406</ele>
        <time>2021-08-10T15:12:33.942Z</time>
      </trkpt>
      <trkpt lat="46.8827" lon="8.54816">
        <ele>1406</ele>
        <time>2021-08-10T15:12:34.942Z</time>
      </trkpt>
      <trkpt lat="46.8827" lon="8.54816">
        <ele>1406</ele>
        <time>2021-08-10T15:12:35.941Z</time>
      </trkpt>
      <trkpt lat="46.8827" lon="8.54815">
        <ele>1406</ele>
        <time>2021-08-10T15:12:36.942Z</time>
      </trkpt>
      <trkpt lat="46.88269" lon="8.54816">
        <ele>1406</ele>
        <time>2021-08-10T15:12:37.941Z</time>
      </trkpt>
      <trkpt lat="46.88269" lon="8.54816">
        <ele>1406</ele>
        <time>2021-08-10T15:12:38.942Z</time>
      </trkpt>
      <trkpt lat="46.88268" lon="8.54816">
        <ele>1406</ele>
        <time>2021-08-10T15:12:39.942Z</time>
      </trkpt>
      <trkpt lat="46.88268" lon="8.54815">
        <ele>1406</ele>
        <time>2021-08-10T15:12:40.941Z</time>
      </trkpt>
      <trkpt lat="46.88269" lon="8.54816">
        <ele>1407</ele>
        <time>2021-08-10T15:12:41.942Z</time>
      </trkpt>
      <trkpt lat="46.88268" lon="8.54816">
        <ele>1407</ele>
        <time>2021-08-10T15:12:42.941Z</time>
      </trkpt>
      <trkpt lat="46.88268" lon="8.54817">
        <ele>1410</ele>
        <time>2021-08-10T15:12:43.941Z</time>
      </trkpt>
      <trkpt lat="46.88269" lon="8.54818">
        <ele>1410</ele>
        <time>2021-08-10T15:12:44.942Z</time>
      </trkpt>
      <trkpt lat="46.88269" lon="8.54818">
        <ele>1410</ele>
        <time>2021-08-10T15:12:45.942Z</time>
      </trkpt>
      <trkpt lat="46.8827" lon="8.5482">
        <ele>1410</ele>
        <time>2021-08-10T15:12:46.942Z</time>
      </trkpt>
      <trkpt lat="46.88272" lon="8.54822">
        <ele>1410</ele>
        <time>2021-08-10T15:12:47.943Z</time>
      </trkpt>
      <trkpt lat="46.88272" lon="8.54822">
        <ele>1410</ele>
        <time>2021-08-10T15:12:48.943Z</time>
      </trkpt>
      <trkpt lat="46.88273" lon="8.54821">
        <ele>1412</ele>
        <time>2021-08-10T15:12:49.943Z</time>
      </trkpt>
      <trkpt lat="46.88273" lon="8.5482">
        <ele>1412</ele>
        <time>2021-08-10T15:12:50.944Z</time>
      </trkpt>
      <trkpt lat="46.88273" lon="8.54819">
        <ele>1413</ele>
        <time>2021-08-10T15:12:51.943Z</time>
      </trkpt>
      <trkpt lat="46.88274" lon="8.5482">
        <ele>1414</ele>
        <time>2021-08-10T15:12:52.943Z</time>
      </trkpt>
      <trkpt lat="46.88274" lon="8.5482">
        <ele>1414</ele>
        <time>2021-08-10T15:12:53.943Z</time>
      </trkpt>
      <trkpt lat="46.88274" lon="8.54819">
        <ele>1417</ele>
        <time>2021-08-10T15:12:54.945Z</time>
      </trkpt>
      <trkpt lat="46.88274" lon="8.54818">
        <ele>1417</ele>
        <time>2021-08-10T15:12:55.944Z</time>
      </trkpt>
      <trkpt lat="46.88274" lon="8.54819">
        <ele>1418</ele>
        <time>2021-08-10T15:12:56.944Z</time>
      </trkpt>
      <trkpt lat="46.88274" lon="8.54818">
        <ele>1418</ele>
        <time>2021-08-10T15:12:57.945Z</time>
      </trkpt>
      <trkpt lat="46.88274" lon="8.54817">
        <ele>1418</ele>
        <time>2021-08-10T15:12:58.946Z</time>
      </trkpt>
      <trkpt lat="46.88274" lon="8.54818">
        <ele>1419</ele>
        <time>2021-08-10T15:12:59.945Z</time>
      </trkpt>
      <trkpt lat="46.88275" lon="8.54818">
        <ele>1419</ele>
        <time>2021-08-10T15:13:00.945Z</time>
      </trkpt>
      <trkpt lat="46.88271" lon="8.5482">
        <ele>1419</ele>
        <time>2021-08-10T15:13:01.946Z</time>
      </trkpt>
      <trkpt lat="46.88269" lon="8.5482">
        <ele>1419</ele>
        <time>2021-08-10T15:13:02.947Z</time>
      </trkpt>
      <trkpt lat="46.88269" lon="8.5482">
        <ele>1419</ele>
        <time>2021-08-10T15:13:03.946Z</time>
      </trkpt>
      <trkpt lat="46.88268" lon="8.5482">
        <ele>1419</ele>
        <time>2021-08-10T15:13:04.947Z</time>
      </trkpt>
      <trkpt lat="46.88268" lon="8.5482">
        <ele>1418</ele>
        <time>2021-08-10T15:13:05.946Z</time>
      </trkpt>
      <trkpt lat="46.88267" lon="8.54818">
        <ele>1416</ele>
        <time>2021-08-10T15:13:06.947Z</time>
      </trkpt>
      <trkpt lat="46.88267" lon="8.54818">
        <ele>1416</ele>
        <time>2021-08-10T15:13:07.947Z</time>
      </trkpt>
      <trkpt lat="46.88267" lon="8.54817">
        <ele>1415</ele>
        <time>2021-08-10T15:13:08.947Z</time>
      </trkpt>
      <trkpt lat="46.8827" lon="8.5482">
        <ele>1405</ele>
        <time>2021-08-10T15:13:09.947Z</time>
      </trkpt>
      <trkpt lat="46.8827" lon="8.5482">
        <ele>1406</ele>
        <time>2021-08-10T15:13:10.946Z</time>
      </trkpt>
      <trkpt lat="46.8827" lon="8.54819">
        <ele>1406</ele>
        <time>2021-08-10T15:13:11.947Z</time>
      </trkpt>
      <trkpt lat="46.8827" lon="8.54819">
        <ele>1406</ele>
        <time>2021-08-10T15:13:12.947Z</time>
      </trkpt>
      <trkpt lat="46.88271" lon="8.54819">
        <ele>1407</ele>
        <time>2021-08-10T15:13:13.946Z</time>
      </trkpt>
      <trkpt lat="46.88271" lon="8.54819">
        <ele>1407</ele>
        <time>2021-08-10T15:13:14.946Z</time>
      </trkpt>
      <trkpt lat="46.88271" lon="8.54819">
        <ele>1407</ele>
        <time>2021-08-10T15:13:15.946Z</time>
      </trkpt>
      <trkpt lat="46.88271" lon="8.54819">
        <ele>1407</ele>
        <time>2021-08-10T15:13:16.946Z</time>
      </trkpt>
      <trkpt lat="46.88271" lon="8.54819">
        <ele>1407</ele>
        <time>2021-08-10T15:13:17.946Z</time>
      </trkpt>
      <trkpt lat="46.88271" lon="8.54819">
        <ele>1407</ele>
        <time>2021-08-10T15:13:18.947Z</time>
      </trkpt>
      <trkpt lat="46.88271" lon="8.54819">
        <ele>1406</ele>
        <time>2021-08-10T15:13:19.946Z</time>
      </trkpt>
      <trkpt lat="46.8827" lon="8.54819">
        <ele>1405</ele>
        <time>2021-08-10T15:13:20.947Z</time>
      </trkpt>
      <trkpt lat="46.8827" lon="8.54819">
        <ele>1405</ele>
        <time>2021-08-10T15:13:21.946Z</time>
      </trkpt>
      <trkpt lat="46.8827" lon="8.54818">
        <ele>1404</ele>
        <time>2021-08-10T15:13:22.946Z</time>
      </trkpt>
      <trkpt lat="46.88271" lon="8.54818">
        <ele>1403</ele>
        <time>2021-08-10T15:13:23.947Z</time>
      </trkpt>
      <trkpt lat="46.88271" lon="8.54818">
        <ele>1403</ele>
        <time>2021-08-10T15:13:24.947Z</time>
      </trkpt>
      <trkpt lat="46.88271" lon="8.5482">
        <ele>1406</ele>
        <time>2021-08-10T15:13:25.947Z</time>
      </trkpt>
      <trkpt lat="46.88269" lon="8.54819">
        <ele>1406</ele>
        <time>2021-08-10T15:13:26.946Z</time>
      </trkpt>
      <trkpt lat="46.88268" lon="8.54817">
        <ele>1411</ele>
        <time>2021-08-10T15:13:27.947Z</time>
      </trkpt>
      <trkpt lat="46.88275" lon="8.54822">
        <ele>1414</ele>
        <time>2021-08-10T15:13:28.947Z</time>
      </trkpt>
      <trkpt lat="46.88275" lon="8.54822">
        <ele>1414</ele>
        <time>2021-08-10T15:13:29.947Z</time>
      </trkpt>
      <trkpt lat="46.88275" lon="8.54822">
        <ele>1414</ele>
        <time>2021-08-10T15:13:30.946Z</time>
      </trkpt>
      <trkpt lat="46.88271" lon="8.5482">
        <ele>1415</ele>
        <time>2021-08-10T15:13:31.947Z</time>
      </trkpt>
      <trkpt lat="46.88271" lon="8.5482">
        <ele>1415</ele>
        <time>2021-08-10T15:13:32.947Z</time>
      </trkpt>
      <trkpt lat="46.88271" lon="8.54819">
        <ele>1415</ele>
        <time>2021-08-10T15:13:33.946Z</time>
      </trkpt>
      <trkpt lat="46.88268" lon="8.54818">
        <ele>1411</ele>
        <time>2021-08-10T15:13:34.946Z</time>
      </trkpt>
      <trkpt lat="46.88268" lon="8.54818">
        <ele>1411</ele>
        <time>2021-08-10T15:13:35.946Z</time>
      </trkpt>
      <trkpt lat="46.88267" lon="8.54818">
        <ele>1411</ele>
        <time>2021-08-10T15:13:36.946Z</time>
      </trkpt>
      <trkpt lat="46.88266" lon="8.54817">
        <ele>1411</ele>
        <time>2021-08-10T15:13:37.946Z</time>
      </trkpt>
      <trkpt lat="46.88265" lon="8.54818">
        <ele>1411</ele>
        <time>2021-08-10T15:13:38.946Z</time>
      </trkpt>
      <trkpt lat="46.88265" lon="8.54818">
        <ele>1411</ele>
        <time>2021-08-10T15:13:39.947Z</time>
      </trkpt>
      <trkpt lat="46.88264" lon="8.54818">
        <ele>1411</ele>
        <time>2021-08-10T15:13:40.946Z</time>
      </trkpt>
      <trkpt lat="46.88264" lon="8.54818">
        <ele>1411</ele>
        <time>2021-08-10T15:13:41.947Z</time>
      </trkpt>
      <trkpt lat="46.88264" lon="8.54818">
        <ele>1411</ele>
        <time>2021-08-10T15:13:42.947Z</time>
      </trkpt>
      <trkpt lat="46.88263" lon="8.54818">
        <ele>1411</ele>
        <time>2021-08-10T15:13:43.947Z</time>
      </trkpt>
      <trkpt lat="46.88262" lon="8.54817">
        <ele>1411</ele>
        <time>2021-08-10T15:13:44.947Z</time>
      </trkpt>
      <trkpt lat="46.88261" lon="8.54817">
        <ele>1411</ele>
        <time>2021-08-10T15:13:45.946Z</time>
      </trkpt>
      <trkpt lat="46.88261" lon="8.54817">
        <ele>1411</ele>
        <time>2021-08-10T15:13:46.946Z</time>
      </trkpt>
      <trkpt lat="46.8826" lon="8.54816">
        <ele>1410</ele>
        <time>2021-08-10T15:13:47.947Z</time>
      </trkpt>
      <trkpt lat="46.8826" lon="8.54816">
        <ele>1410</ele>
        <time>2021-08-10T15:13:48.947Z</time>
      </trkpt>
      <trkpt lat="46.8826" lon="8.54816">
        <ele>1411</ele>
        <time>2021-08-10T15:13:49.946Z</time>
      </trkpt>
      <trkpt lat="46.88259" lon="8.54815">
        <ele>1414</ele>
        <time>2021-08-10T15:13:50.946Z</time>
      </trkpt>
      <trkpt lat="46.88259" lon="8.54815">
        <ele>1415</ele>
        <time>2021-08-10T15:13:51.947Z</time>
      </trkpt>
      <trkpt lat="46.88258" lon="8.54815">
        <ele>1415</ele>
        <time>2021-08-10T15:13:52.946Z</time>
      </trkpt>
      <trkpt lat="46.88258" lon="8.54814">
        <ele>1416</ele>
        <time>2021-08-10T15:13:53.947Z</time>
      </trkpt>
      <trkpt lat="46.88258" lon="8.54813">
        <ele>1415</ele>
        <time>2021-08-10T15:13:54.947Z</time>
      </trkpt>
      <trkpt lat="46.88258" lon="8.54814">
        <ele>1416</ele>
        <time>2021-08-10T15:13:55.947Z</time>
      </trkpt>
      <trkpt lat="46.88257" lon="8.54813">
        <ele>1416</ele>
        <time>2021-08-10T15:13:56.947Z</time>
      </trkpt>
      <trkpt lat="46.88257" lon="8.54813">
        <ele>1417</ele>
        <time>2021-08-10T15:13:57.947Z</time>
      </trkpt>
      <trkpt lat="46.88256" lon="8.54813">
        <ele>1417</ele>
        <time>2021-08-10T15:13:58.946Z</time>
      </trkpt>
      <trkpt lat="46.88256" lon="8.54813">
        <ele>1417</ele>
        <time>2021-08-10T15:13:59.946Z</time>
      </trkpt>
      <trkpt lat="46.88255" lon="8.54812">
        <ele>1417</ele>
        <time>2021-08-10T15:14:00.946Z</time>
      </trkpt>
      <trkpt lat="46.88255" lon="8.54812">
        <ele>1417</ele>
        <time>2021-08-10T15:14:01.946Z</time>
      </trkpt>
      <trkpt lat="46.88254" lon="8.54812">
        <ele>1417</ele>
        <time>2021-08-10T15:14:02.946Z</time>
      </trkpt>
      <trkpt lat="46.88254" lon="8.54812">
        <ele>1416</ele>
        <time>2021-08-10T15:14:03.947Z</time>
      </trkpt>
      <trkpt lat="46.88254" lon="8.54811">
        <ele>1416</ele>
        <time>2021-08-10T15:14:04.947Z</time>
      </trkpt>
      <trkpt lat="46.88254" lon="8.54811">
        <ele>1416</ele>
        <time>2021-08-10T15:14:05.946Z</time>
      </trkpt>
      <trkpt lat="46.88253" lon="8.5481">
        <ele>1416</ele>
        <time>2021-08-10T15:14:06.946Z</time>
      </trkpt>
      <trkpt lat="46.88253" lon="8.5481">
        <ele>1416</ele>
        <time>2021-08-10T15:14:07.946Z</time>
      </trkpt>
      <trkpt lat="46.88253" lon="8.5481">
        <ele>1416</ele>
        <time>2021-08-10T15:14:08.946Z</time>
      </trkpt>
      <trkpt lat="46.88253" lon="8.54809">
        <ele>1416</ele>
        <time>2021-08-10T15:14:09.946Z</time>
      </trkpt>
      <trkpt lat="46.88252" lon="8.54809">
        <ele>1416</ele>
        <time>2021-08-10T15:14:10.946Z</time>
      </trkpt>
      <trkpt lat="46.88252" lon="8.54808">
        <ele>1416</ele>
        <time>2021-08-10T15:14:25.065Z</time>
      </trkpt>
      <trkpt lat="46.88252" lon="8.54808">
        <ele>1417</ele>
        <time>2021-08-10T15:14:26.064Z</time>
      </trkpt>
      <trkpt lat="46.88252" lon="8.54807">
        <ele>1417</ele>
        <time>2021-08-10T15:14:51.972Z</time>
      </trkpt>
      <trkpt lat="46.88251" lon="8.54807">
        <ele>1417</ele>
        <time>2021-08-10T15:14:52.971Z</time>
      </trkpt>
      <trkpt lat="46.88251" lon="8.54807">
        <ele>1417</ele>
        <time>2021-08-10T15:14:53.971Z</time>
      </trkpt>
      <trkpt lat="46.8825" lon="8.54806">
        <ele>1417</ele>
        <time>2021-08-10T15:15:13.859Z</time>
      </trkpt>
      <trkpt lat="46.88249" lon="8.54806">
        <ele>1417</ele>
        <time>2021-08-10T15:15:14.858Z</time>
      </trkpt>
      <trkpt lat="46.88249" lon="8.54805">
        <ele>1417</ele>
        <time>2021-08-10T15:15:15.858Z</time>
      </trkpt>
      <trkpt lat="46.88249" lon="8.54805">
        <ele>1417</ele>
        <time>2021-08-10T15:15:16.858Z</time>
      </trkpt>
      <trkpt lat="46.88248" lon="8.54805">
        <ele>1417</ele>
        <time>2021-08-10T15:15:17.858Z</time>
      </trkpt>
      <trkpt lat="46.88248" lon="8.54804">
        <ele>1417</ele>
        <time>2021-08-10T15:15:18.859Z</time>
      </trkpt>
      <trkpt lat="46.88248" lon="8.54804">
        <ele>1417</ele>
        <time>2021-08-10T15:15:19.858Z</time>
      </trkpt>
      <trkpt lat="46.88248" lon="8.54803">
        <ele>1418</ele>
        <time>2021-08-10T15:15:20.858Z</time>
      </trkpt>
      <trkpt lat="46.88248" lon="8.54803">
        <ele>1418</ele>
        <time>2021-08-10T15:15:21.858Z</time>
      </trkpt>
      <trkpt lat="46.88248" lon="8.54802">
        <ele>1417</ele>
        <time>2021-08-10T15:15:22.859Z</time>
      </trkpt>
      <trkpt lat="46.88247" lon="8.54801">
        <ele>1417</ele>
        <time>2021-08-10T15:15:23.858Z</time>
      </trkpt>
      <trkpt lat="46.88247" lon="8.54801">
        <ele>1416</ele>
        <time>2021-08-10T15:15:24.858Z</time>
      </trkpt>
      <trkpt lat="46.88246" lon="8.54801">
        <ele>1416</ele>
        <time>2021-08-10T15:15:25.858Z</time>
      </trkpt>
      <trkpt lat="46.88246" lon="8.54801">
        <ele>1416</ele>
        <time>2021-08-10T15:15:26.858Z</time>
      </trkpt>
      <trkpt lat="46.88245" lon="8.54801">
        <ele>1415</ele>
        <time>2021-08-10T15:15:27.858Z</time>
      </trkpt>
      <trkpt lat="46.88244" lon="8.54802">
        <ele>1415</ele>
        <time>2021-08-10T15:15:28.859Z</time>
      </trkpt>
      <trkpt lat="46.88244" lon="8.54802">
        <ele>1415</ele>
        <time>2021-08-10T15:15:29.858Z</time>
      </trkpt>
      <trkpt lat="46.88244" lon="8.54802">
        <ele>1414</ele>
        <time>2021-08-10T15:15:30.858Z</time>
      </trkpt>
      <trkpt lat="46.88243" lon="8.54802">
        <ele>1414</ele>
        <time>2021-08-10T15:15:31.858Z</time>
      </trkpt>
      <trkpt lat="46.88243" lon="8.54801">
        <ele>1414</ele>
        <time>2021-08-10T15:15:32.858Z</time>
      </trkpt>
      <trkpt lat="46.88243" lon="8.54801">
        <ele>1413</ele>
        <time>2021-08-10T15:15:33.859Z</time>
      </trkpt>
      <trkpt lat="46.88242" lon="8.548">
        <ele>1413</ele>
        <time>2021-08-10T15:15:43.865Z</time>
      </trkpt>
      <trkpt lat="46.88242" lon="8.548">
        <ele>1413</ele>
        <time>2021-08-10T15:15:44.865Z</time>
      </trkpt>
      <trkpt lat="46.88242" lon="8.54799">
        <ele>1413</ele>
        <time>2021-08-10T15:15:45.865Z</time>
      </trkpt>
      <trkpt lat="46.88239" lon="8.54796">
        <ele>1414</ele>
        <time>2021-08-10T15:15:46.868Z</time>
      </trkpt>
      <trkpt lat="46.88239" lon="8.54796">
        <ele>1413</ele>
        <time>2021-08-10T15:15:47.868Z</time>
      </trkpt>
      <trkpt lat="46.88239" lon="8.54795">
        <ele>1413</ele>
        <time>2021-08-10T15:15:48.868Z</time>
      </trkpt>
      <trkpt lat="46.88238" lon="8.54795">
        <ele>1413</ele>
        <time>2021-08-10T15:15:49.868Z</time>
      </trkpt>
      <trkpt lat="46.88238" lon="8.54794">
        <ele>1413</ele>
        <time>2021-08-10T15:15:50.867Z</time>
      </trkpt>
      <trkpt lat="46.88238" lon="8.54794">
        <ele>1413</ele>
        <time>2021-08-10T15:15:51.867Z</time>
      </trkpt>
      <trkpt lat="46.88238" lon="8.54794">
        <ele>1413</ele>
        <time>2021-08-10T15:15:52.868Z</time>
      </trkpt>
      <trkpt lat="46.88237" lon="8.54794">
        <ele>1413</ele>
        <time>2021-08-10T15:15:53.867Z</time>
      </trkpt>
      <trkpt lat="46.88236" lon="8.54793">
        <ele>1413</ele>
        <time>2021-08-10T15:15:54.867Z</time>
      </trkpt>
      <trkpt lat="46.88236" lon="8.54793">
        <ele>1413</ele>
        <time>2021-08-10T15:15:55.867Z</time>
      </trkpt>
      <trkpt lat="46.88236" lon="8.54792">
        <ele>1414</ele>
        <time>2021-08-10T15:15:56.868Z</time>
      </trkpt>
      <trkpt lat="46.88236" lon="8.54792">
        <ele>1414</ele>
        <time>2021-08-10T15:15:57.867Z</time>
      </trkpt>
      <trkpt lat="46.88235" lon="8.54792">
        <ele>1415</ele>
        <time>2021-08-10T15:15:58.867Z</time>
      </trkpt>
      <trkpt lat="46.88235" lon="8.54791">
        <ele>1415</ele>
        <time>2021-08-10T15:15:59.868Z</time>
      </trkpt>
      <trkpt lat="46.88235" lon="8.5479">
        <ele>1415</ele>
        <time>2021-08-10T15:16:00.867Z</time>
      </trkpt>
      <trkpt lat="46.88234" lon="8.5479">
        <ele>1415</ele>
        <time>2021-08-10T15:16:01.868Z</time>
      </trkpt>
      <trkpt lat="46.88233" lon="8.5479">
        <ele>1415</ele>
        <time>2021-08-10T15:16:02.867Z</time>
      </trkpt>
      <trkpt lat="46.88233" lon="8.5479">
        <ele>1416</ele>
        <time>2021-08-10T15:16:03.867Z</time>
      </trkpt>
      <trkpt lat="46.88232" lon="8.54791">
        <ele>1416</ele>
        <time>2021-08-10T15:16:04.867Z</time>
      </trkpt>
      <trkpt lat="46.88231" lon="8.54791">
        <ele>1417</ele>
        <time>2021-08-10T15:16:05.868Z</time>
      </trkpt>
      <trkpt lat="46.8823" lon="8.54791">
        <ele>1417</ele>
        <time>2021-08-10T15:16:06.867Z</time>
      </trkpt>
      <trkpt lat="46.8823" lon="8.54792">
        <ele>1418</ele>
        <time>2021-08-10T15:16:07.868Z</time>
      </trkpt>
      <trkpt lat="46.8823" lon="8.54792">
        <ele>1419</ele>
        <time>2021-08-10T15:16:08.868Z</time>
      </trkpt>
      <trkpt lat="46.88229" lon="8.54792">
        <ele>1419</ele>
        <time>2021-08-10T15:16:09.868Z</time>
      </trkpt>
      <trkpt lat="46.88229" lon="8.54792">
        <ele>1420</ele>
        <time>2021-08-10T15:16:10.867Z</time>
      </trkpt>
      <trkpt lat="46.88228" lon="8.54792">
        <ele>1420</ele>
        <time>2021-08-10T15:16:11.868Z</time>
      </trkpt>
      <trkpt lat="46.88228" lon="8.54792">
        <ele>1421</ele>
        <time>2021-08-10T15:16:12.867Z</time>
      </trkpt>
      <trkpt lat="46.88227" lon="8.54792">
        <ele>1422</ele>
        <time>2021-08-10T15:16:13.868Z</time>
      </trkpt>
      <trkpt lat="46.88227" lon="8.54792">
        <ele>1422</ele>
        <time>2021-08-10T15:16:14.868Z</time>
      </trkpt>
      <trkpt lat="46.88226" lon="8.54791">
        <ele>1423</ele>
        <time>2021-08-10T15:16:15.868Z</time>
      </trkpt>
      <trkpt lat="46.88226" lon="8.54791">
        <ele>1423</ele>
        <time>2021-08-10T15:16:16.867Z</time>
      </trkpt>
      <trkpt lat="46.88225" lon="8.54791">
        <ele>1423</ele>
        <time>2021-08-10T15:16:17.868Z</time>
      </trkpt>
      <trkpt lat="46.88225" lon="8.54791">
        <ele>1423</ele>
        <time>2021-08-10T15:16:18.868Z</time>
      </trkpt>
      <trkpt lat="46.88224" lon="8.5479">
        <ele>1423</ele>
        <time>2021-08-10T15:16:19.867Z</time>
      </trkpt>
      <trkpt lat="46.88224" lon="8.5479">
        <ele>1423</ele>
        <time>2021-08-10T15:16:20.868Z</time>
      </trkpt>
      <trkpt lat="46.88223" lon="8.5479">
        <ele>1422</ele>
        <time>2021-08-10T15:16:21.868Z</time>
      </trkpt>
      <trkpt lat="46.88223" lon="8.54789">
        <ele>1422</ele>
        <time>2021-08-10T15:16:22.868Z</time>
      </trkpt>
      <trkpt lat="46.88223" lon="8.54789">
        <ele>1422</ele>
        <time>2021-08-10T15:16:23.867Z</time>
      </trkpt>
      <trkpt lat="46.88222" lon="8.54789">
        <ele>1421</ele>
        <time>2021-08-10T15:16:24.868Z</time>
      </trkpt>
      <trkpt lat="46.88222" lon="8.54789">
        <ele>1421</ele>
        <time>2021-08-10T15:16:25.868Z</time>
      </trkpt>
      <trkpt lat="46.88221" lon="8.54788">
        <ele>1422</ele>
        <time>2021-08-10T15:16:26.868Z</time>
      </trkpt>
      <trkpt lat="46.8822" lon="8.54788">
        <ele>1422</ele>
        <time>2021-08-10T15:16:27.868Z</time>
      </trkpt>
      <trkpt lat="46.8822" lon="8.54788">
        <ele>1422</ele>
        <time>2021-08-10T15:16:28.867Z</time>
      </trkpt>
      <trkpt lat="46.88219" lon="8.54788">
        <ele>1423</ele>
        <time>2021-08-10T15:16:29.868Z</time>
      </trkpt>
      <trkpt lat="46.88219" lon="8.54787">
        <ele>1423</ele>
        <time>2021-08-10T15:16:30.868Z</time>
      </trkpt>
      <trkpt lat="46.88218" lon="8.54787">
        <ele>1423</ele>
        <time>2021-08-10T15:16:31.868Z</time>
      </trkpt>
      <trkpt lat="46.88218" lon="8.54787">
        <ele>1424</ele>
        <time>2021-08-10T15:16:32.867Z</time>
      </trkpt>
      <trkpt lat="46.88217" lon="8.54787">
        <ele>1424</ele>
        <time>2021-08-10T15:16:33.868Z</time>
      </trkpt>
      <trkpt lat="46.88216" lon="8.54787">
        <ele>1425</ele>
        <time>2021-08-10T15:16:34.868Z</time>
      </trkpt>
      <trkpt lat="46.88216" lon="8.54787">
        <ele>1426</ele>
        <time>2021-08-10T15:16:35.868Z</time>
      </trkpt>
      <trkpt lat="46.88215" lon="8.54786">
        <ele>1426</ele>
        <time>2021-08-10T15:16:36.867Z</time>
      </trkpt>
      <trkpt lat="46.88215" lon="8.54786">
        <ele>1426</ele>
        <time>2021-08-10T15:16:37.868Z</time>
      </trkpt>
      <trkpt lat="46.88215" lon="8.54786">
        <ele>1426</ele>
        <time>2021-08-10T15:16:38.868Z</time>
      </trkpt>
      <trkpt lat="46.88214" lon="8.54786">
        <ele>1427</ele>
        <time>2021-08-10T15:16:39.868Z</time>
      </trkpt>
      <trkpt lat="46.88214" lon="8.54785">
        <ele>1427</ele>
        <time>2021-08-10T15:16:40.868Z</time>
      </trkpt>
      <trkpt lat="46.88213" lon="8.54785">
        <ele>1426</ele>
        <time>2021-08-10T15:16:41.867Z</time>
      </trkpt>
      <trkpt lat="46.88213" lon="8.54785">
        <ele>1426</ele>
        <time>2021-08-10T15:16:42.868Z</time>
      </trkpt>
      <trkpt lat="46.88213" lon="8.54785">
        <ele>1426</ele>
        <time>2021-08-10T15:16:43.867Z</time>
      </trkpt>
      <trkpt lat="46.88212" lon="8.54784">
        <ele>1425</ele>
        <time>2021-08-10T15:16:44.867Z</time>
      </trkpt>
      <trkpt lat="46.88212" lon="8.54784">
        <ele>1425</ele>
        <time>2021-08-10T15:16:45.867Z</time>
      </trkpt>
      <trkpt lat="46.88212" lon="8.54784">
        <ele>1425</ele>
        <time>2021-08-10T15:16:46.867Z</time>
      </trkpt>
      <trkpt lat="46.88211" lon="8.54783">
        <ele>1425</ele>
        <time>2021-08-10T15:16:47.867Z</time>
      </trkpt>
      <trkpt lat="46.88211" lon="8.54783">
        <ele>1425</ele>
        <time>2021-08-10T15:16:48.867Z</time>
      </trkpt>
      <trkpt lat="46.88211" lon="8.54782">
        <ele>1425</ele>
        <time>2021-08-10T15:16:49.867Z</time>
      </trkpt>
      <trkpt lat="46.8821" lon="8.54782">
        <ele>1425</ele>
        <time>2021-08-10T15:16:50.868Z</time>
      </trkpt>
      <trkpt lat="46.88209" lon="8.54781">
        <ele>1425</ele>
        <time>2021-08-10T15:16:51.867Z</time>
      </trkpt>
      <trkpt lat="46.88209" lon="8.54781">
        <ele>1425</ele>
        <time>2021-08-10T15:16:52.867Z</time>
      </trkpt>
      <trkpt lat="46.88209" lon="8.54781">
        <ele>1425</ele>
        <time>2021-08-10T15:16:53.867Z</time>
      </trkpt>
      <trkpt lat="46.88208" lon="8.5478">
        <ele>1425</ele>
        <time>2021-08-10T15:16:54.867Z</time>
      </trkpt>
      <trkpt lat="46.88207" lon="8.54779">
        <ele>1425</ele>
        <time>2021-08-10T15:16:55.867Z</time>
      </trkpt>
      <trkpt lat="46.88207" lon="8.54778">
        <ele>1425</ele>
        <time>2021-08-10T15:16:56.867Z</time>
      </trkpt>
      <trkpt lat="46.88206" lon="8.54777">
        <ele>1425</ele>
        <time>2021-08-10T15:16:57.867Z</time>
      </trkpt>
      <trkpt lat="46.88206" lon="8.54777">
        <ele>1425</ele>
        <time>2021-08-10T15:16:58.867Z</time>
      </trkpt>
      <trkpt lat="46.88206" lon="8.54776">
        <ele>1426</ele>
        <time>2021-08-10T15:16:59.867Z</time>
      </trkpt>
      <trkpt lat="46.88206" lon="8.54775">
        <ele>1426</ele>
        <time>2021-08-10T15:17:00.867Z</time>
      </trkpt>
      <trkpt lat="46.88206" lon="8.54774">
        <ele>1426</ele>
        <time>2021-08-10T15:17:01.867Z</time>
      </trkpt>
      <trkpt lat="46.88206" lon="8.54774">
        <ele>1427</ele>
        <time>2021-08-10T15:17:02.867Z</time>
      </trkpt>
      <trkpt lat="46.88206" lon="8.54774">
        <ele>1427</ele>
        <time>2021-08-10T15:17:03.867Z</time>
      </trkpt>
      <trkpt lat="46.88206" lon="8.54773">
        <ele>1427</ele>
        <time>2021-08-10T15:17:04.867Z</time>
      </trkpt>
      <trkpt lat="46.88206" lon="8.54773">
        <ele>1427</ele>
        <time>2021-08-10T15:17:05.867Z</time>
      </trkpt>
      <trkpt lat="46.88207" lon="8.54772">
        <ele>1427</ele>
        <time>2021-08-10T15:17:06.867Z</time>
      </trkpt>
      <trkpt lat="46.88207" lon="8.54771">
        <ele>1427</ele>
        <time>2021-08-10T15:17:07.867Z</time>
      </trkpt>
      <trkpt lat="46.88207" lon="8.54771">
        <ele>1428</ele>
        <time>2021-08-10T15:17:08.867Z</time>
      </trkpt>
      <trkpt lat="46.88207" lon="8.5477">
        <ele>1428</ele>
        <time>2021-08-10T15:17:09.867Z</time>
      </trkpt>
      <trkpt lat="46.88207" lon="8.5477">
        <ele>1429</ele>
        <time>2021-08-10T15:17:10.867Z</time>
      </trkpt>
      <trkpt lat="46.88206" lon="8.54769">
        <ele>1429</ele>
        <time>2021-08-10T15:17:11.867Z</time>
      </trkpt>
      <trkpt lat="46.88206" lon="8.54769">
        <ele>1430</ele>
        <time>2021-08-10T15:17:12.867Z</time>
      </trkpt>
      <trkpt lat="46.88206" lon="8.54768">
        <ele>1430</ele>
        <time>2021-08-10T15:17:13.867Z</time>
      </trkpt>
      <trkpt lat="46.88207" lon="8.54767">
        <ele>1431</ele>
        <time>2021-08-10T15:17:14.867Z</time>
      </trkpt>
      <trkpt lat="46.88207" lon="8.54767">
        <ele>1431</ele>
        <time>2021-08-10T15:17:15.867Z</time>
      </trkpt>
      <trkpt lat="46.88206" lon="8.54766">
        <ele>1431</ele>
        <time>2021-08-10T15:17:16.867Z</time>
      </trkpt>
      <trkpt lat="46.88206" lon="8.54765">
        <ele>1430</ele>
        <time>2021-08-10T15:17:17.868Z</time>
      </trkpt>
      <trkpt lat="46.88206" lon="8.54764">
        <ele>1430</ele>
        <time>2021-08-10T15:17:18.868Z</time>
      </trkpt>
      <trkpt lat="46.88206" lon="8.54763">
        <ele>1429</ele>
        <time>2021-08-10T15:17:19.867Z</time>
      </trkpt>
      <trkpt lat="46.88206" lon="8.54763">
        <ele>1429</ele>
        <time>2021-08-10T15:17:20.867Z</time>
      </trkpt>
      <trkpt lat="46.88206" lon="8.54762">
        <ele>1430</ele>
        <time>2021-08-10T15:17:21.867Z</time>
      </trkpt>
      <trkpt lat="46.88206" lon="8.54761">
        <ele>1430</ele>
        <time>2021-08-10T15:17:22.868Z</time>
      </trkpt>
      <trkpt lat="46.88206" lon="8.54761">
        <ele>1430</ele>
        <time>2021-08-10T15:17:23.868Z</time>
      </trkpt>
      <trkpt lat="46.88206" lon="8.5476">
        <ele>1430</ele>
        <time>2021-08-10T15:17:24.868Z</time>
      </trkpt>
      <trkpt lat="46.88206" lon="8.54759">
        <ele>1429</ele>
        <time>2021-08-10T15:17:25.868Z</time>
      </trkpt>
      <trkpt lat="46.88206" lon="8.54758">
        <ele>1429</ele>
        <time>2021-08-10T15:17:26.868Z</time>
      </trkpt>
      <trkpt lat="46.88205" lon="8.54758">
        <ele>1430</ele>
        <time>2021-08-10T15:17:27.868Z</time>
      </trkpt>
      <trkpt lat="46.88206" lon="8.54757">
        <ele>1430</ele>
        <time>2021-08-10T15:17:28.868Z</time>
      </trkpt>
      <trkpt lat="46.88206" lon="8.54756">
        <ele>1430</ele>
        <time>2021-08-10T15:17:29.867Z</time>
      </trkpt>
      <trkpt lat="46.88206" lon="8.54756">
        <ele>1431</ele>
        <time>2021-08-10T15:17:30.868Z</time>
      </trkpt>
      <trkpt lat="46.88206" lon="8.54756">
        <ele>1431</ele>
        <time>2021-08-10T15:17:31.868Z</time>
      </trkpt>
      <trkpt lat="46.88206" lon="8.54756">
        <ele>1432</ele>
        <time>2021-08-10T15:17:32.868Z</time>
      </trkpt>
      <trkpt lat="46.88207" lon="8.54757">
        <ele>1432</ele>
        <time>2021-08-10T15:17:33.867Z</time>
      </trkpt>
      <trkpt lat="46.88208" lon="8.54757">
        <ele>1432</ele>
        <time>2021-08-10T15:17:34.868Z</time>
      </trkpt>
      <trkpt lat="46.88208" lon="8.54757">
        <ele>1432</ele>
        <time>2021-08-10T15:17:35.868Z</time>
      </trkpt>
      <trkpt lat="46.88208" lon="8.54758">
        <ele>1433</ele>
        <time>2021-08-10T15:17:36.868Z</time>
      </trkpt>
      <trkpt lat="46.88209" lon="8.5476">
        <ele>1433</ele>
        <time>2021-08-10T15:17:37.867Z</time>
      </trkpt>
      <trkpt lat="46.8821" lon="8.54761">
        <ele>1434</ele>
        <time>2021-08-10T15:17:38.868Z</time>
      </trkpt>
      <trkpt lat="46.88211" lon="8.54761">
        <ele>1434</ele>
        <time>2021-08-10T15:17:39.868Z</time>
      </trkpt>
      <trkpt lat="46.88212" lon="8.54762">
        <ele>1434</ele>
        <time>2021-08-10T15:17:40.868Z</time>
      </trkpt>
      <trkpt lat="46.88212" lon="8.54761">
        <ele>1435</ele>
        <time>2021-08-10T15:17:43.980Z</time>
      </trkpt>
      <trkpt lat="46.88213" lon="8.54762">
        <ele>1435</ele>
        <time>2021-08-10T15:17:44.979Z</time>
      </trkpt>
      <trkpt lat="46.88214" lon="8.54762">
        <ele>1435</ele>
        <time>2021-08-10T15:17:45.980Z</time>
      </trkpt>
      <trkpt lat="46.88215" lon="8.54763">
        <ele>1435</ele>
        <time>2021-08-10T15:17:46.980Z</time>
      </trkpt>
      <trkpt lat="46.88216" lon="8.54764">
        <ele>1435</ele>
        <time>2021-08-10T15:17:47.979Z</time>
      </trkpt>
      <trkpt lat="46.88217" lon="8.54764">
        <ele>1435</ele>
        <time>2021-08-10T15:17:48.979Z</time>
      </trkpt>
      <trkpt lat="46.88218" lon="8.54764">
        <ele>1436</ele>
        <time>2021-08-10T15:17:49.980Z</time>
      </trkpt>
      <trkpt lat="46.88218" lon="8.54764">
        <ele>1436</ele>
        <time>2021-08-10T15:17:50.980Z</time>
      </trkpt>
      <trkpt lat="46.88219" lon="8.54764">
        <ele>1436</ele>
        <time>2021-08-10T15:17:51.980Z</time>
      </trkpt>
      <trkpt lat="46.88219" lon="8.54763">
        <ele>1437</ele>
        <time>2021-08-10T15:17:52.980Z</time>
      </trkpt>
      <trkpt lat="46.8822" lon="8.54763">
        <ele>1437</ele>
        <time>2021-08-10T15:17:53.980Z</time>
      </trkpt>
      <trkpt lat="46.88221" lon="8.54763">
        <ele>1438</ele>
        <time>2021-08-10T15:17:54.980Z</time>
      </trkpt>
      <trkpt lat="46.88222" lon="8.54763">
        <ele>1438</ele>
        <time>2021-08-10T15:17:55.980Z</time>
      </trkpt>
      <trkpt lat="46.88223" lon="8.54763">
        <ele>1439</ele>
        <time>2021-08-10T15:17:56.980Z</time>
      </trkpt>
      <trkpt lat="46.88224" lon="8.54763">
        <ele>1439</ele>
        <time>2021-08-10T15:17:57.980Z</time>
      </trkpt>
      <trkpt lat="46.88224" lon="8.54763">
        <ele>1440</ele>
        <time>2021-08-10T15:17:58.980Z</time>
      </trkpt>
      <trkpt lat="46.88225" lon="8.54762">
        <ele>1441</ele>
        <time>2021-08-10T15:17:59.980Z</time>
      </trkpt>
      <trkpt lat="46.88226" lon="8.54762">
        <ele>1441</ele>
        <time>2021-08-10T15:18:00.979Z</time>
      </trkpt>
      <trkpt lat="46.88227" lon="8.54761">
        <ele>1442</ele>
        <time>2021-08-10T15:18:01.980Z</time>
      </trkpt>
      <trkpt lat="46.88227" lon="8.5476">
        <ele>1442</ele>
        <time>2021-08-10T15:18:02.980Z</time>
      </trkpt>
      <trkpt lat="46.88228" lon="8.54759">
        <ele>1442</ele>
        <time>2021-08-10T15:18:03.980Z</time>
      </trkpt>
      <trkpt lat="46.88229" lon="8.54758">
        <ele>1442</ele>
        <time>2021-08-10T15:18:04.980Z</time>
      </trkpt>
      <trkpt lat="46.88228" lon="8.54759">
        <ele>1442</ele>
        <time>2021-08-10T15:18:05.980Z</time>
      </trkpt>
      <trkpt lat="46.88228" lon="8.54759">
        <ele>1441</ele>
        <time>2021-08-10T15:18:06.979Z</time>
      </trkpt>
      <trkpt lat="46.88229" lon="8.54759">
        <ele>1441</ele>
        <time>2021-08-10T15:18:07.979Z</time>
      </trkpt>
      <trkpt lat="46.88229" lon="8.54758">
        <ele>1441</ele>
        <time>2021-08-10T15:18:08.979Z</time>
      </trkpt>
      <trkpt lat="46.8823" lon="8.54757">
        <ele>1440</ele>
        <time>2021-08-10T15:18:09.979Z</time>
      </trkpt>
      <trkpt lat="46.8823" lon="8.54756">
        <ele>1440</ele>
        <time>2021-08-10T15:18:10.979Z</time>
      </trkpt>
      <trkpt lat="46.88231" lon="8.54756">
        <ele>1440</ele>
        <time>2021-08-10T15:18:11.979Z</time>
      </trkpt>
      <trkpt lat="46.88231" lon="8.54755">
        <ele>1440</ele>
        <time>2021-08-10T15:18:12.980Z</time>
      </trkpt>
      <trkpt lat="46.88231" lon="8.54754">
        <ele>1440</ele>
        <time>2021-08-10T15:18:13.980Z</time>
      </trkpt>
      <trkpt lat="46.88232" lon="8.54754">
        <ele>1440</ele>
        <time>2021-08-10T15:18:16.060Z</time>
      </trkpt>
      <trkpt lat="46.88233" lon="8.54753">
        <ele>1440</ele>
        <time>2021-08-10T15:18:17.060Z</time>
      </trkpt>
      <trkpt lat="46.88234" lon="8.54752">
        <ele>1440</ele>
        <time>2021-08-10T15:18:18.060Z</time>
      </trkpt>
      <trkpt lat="46.88234" lon="8.54751">
        <ele>1440</ele>
        <time>2021-08-10T15:18:19.060Z</time>
      </trkpt>
      <trkpt lat="46.88234" lon="8.5475">
        <ele>1440</ele>
        <time>2021-08-10T15:18:20.060Z</time>
      </trkpt>
      <trkpt lat="46.88234" lon="8.54749">
        <ele>1441</ele>
        <time>2021-08-10T15:18:21.060Z</time>
      </trkpt>
      <trkpt lat="46.88235" lon="8.54747">
        <ele>1440</ele>
        <time>2021-08-10T15:18:22.060Z</time>
      </trkpt>
      <trkpt lat="46.88235" lon="8.54746">
        <ele>1440</ele>
        <time>2021-08-10T15:18:23.059Z</time>
      </trkpt>
      <trkpt lat="46.88236" lon="8.54745">
        <ele>1440</ele>
        <time>2021-08-10T15:18:26.077Z</time>
      </trkpt>
      <trkpt lat="46.88236" lon="8.54744">
        <ele>1440</ele>
        <time>2021-08-10T15:18:27.077Z</time>
      </trkpt>
      <trkpt lat="46.88237" lon="8.54744">
        <ele>1440</ele>
        <time>2021-08-10T15:18:28.077Z</time>
      </trkpt>
      <trkpt lat="46.88237" lon="8.54743">
        <ele>1440</ele>
        <time>2021-08-10T15:18:29.077Z</time>
      </trkpt>
      <trkpt lat="46.88237" lon="8.54742">
        <ele>1440</ele>
        <time>2021-08-10T15:18:34.249Z</time>
      </trkpt>
      <trkpt lat="46.88238" lon="8.54741">
        <ele>1440</ele>
        <time>2021-08-10T15:18:35.249Z</time>
      </trkpt>
      <trkpt lat="46.88238" lon="8.5474">
        <ele>1441</ele>
        <time>2021-08-10T15:18:36.250Z</time>
      </trkpt>
      <trkpt lat="46.88239" lon="8.54739">
        <ele>1441</ele>
        <time>2021-08-10T15:18:37.250Z</time>
      </trkpt>
      <trkpt lat="46.88239" lon="8.54739">
        <ele>1441</ele>
        <time>2021-08-10T15:18:38.250Z</time>
      </trkpt>
      <trkpt lat="46.8824" lon="8.54738">
        <ele>1441</ele>
        <time>2021-08-10T15:18:39.250Z</time>
      </trkpt>
      <trkpt lat="46.8824" lon="8.54737">
        <ele>1442</ele>
        <time>2021-08-10T15:18:40.249Z</time>
      </trkpt>
      <trkpt lat="46.8824" lon="8.54736">
        <ele>1442</ele>
        <time>2021-08-10T15:18:41.249Z</time>
      </trkpt>
      <trkpt lat="46.8824" lon="8.54735">
        <ele>1443</ele>
        <time>2021-08-10T15:18:42.250Z</time>
      </trkpt>
      <trkpt lat="46.88241" lon="8.54735">
        <ele>1443</ele>
        <time>2021-08-10T15:18:43.249Z</time>
      </trkpt>
      <trkpt lat="46.88241" lon="8.54735">
        <ele>1443</ele>
        <time>2021-08-10T15:18:44.249Z</time>
      </trkpt>
      <trkpt lat="46.88242" lon="8.54735">
        <ele>1443</ele>
        <time>2021-08-10T15:18:45.250Z</time>
      </trkpt>
      <trkpt lat="46.88243" lon="8.54735">
        <ele>1444</ele>
        <time>2021-08-10T15:18:46.250Z</time>
      </trkpt>
      <trkpt lat="46.88244" lon="8.54734">
        <ele>1444</ele>
        <time>2021-08-10T15:18:47.250Z</time>
      </trkpt>
      <trkpt lat="46.88245" lon="8.54734">
        <ele>1444</ele>
        <time>2021-08-10T15:18:48.250Z</time>
      </trkpt>
      <trkpt lat="46.88246" lon="8.54734">
        <ele>1445</ele>
        <time>2021-08-10T15:18:49.250Z</time>
      </trkpt>
      <trkpt lat="46.88247" lon="8.54733">
        <ele>1446</ele>
        <time>2021-08-10T15:18:50.250Z</time>
      </trkpt>
      <trkpt lat="46.88247" lon="8.54732">
        <ele>1446</ele>
        <time>2021-08-10T15:18:51.250Z</time>
      </trkpt>
      <trkpt lat="46.88247" lon="8.54731">
        <ele>1447</ele>
        <time>2021-08-10T15:18:52.250Z</time>
      </trkpt>
      <trkpt lat="46.88248" lon="8.5473">
        <ele>1447</ele>
        <time>2021-08-10T15:18:53.249Z</time>
      </trkpt>
      <trkpt lat="46.88248" lon="8.5473">
        <ele>1447</ele>
        <time>2021-08-10T15:18:54.250Z</time>
      </trkpt>
      <trkpt lat="46.88249" lon="8.5473">
        <ele>1447</ele>
        <time>2021-08-10T15:18:55.250Z</time>
      </trkpt>
      <trkpt lat="46.8825" lon="8.5473">
        <ele>1448</ele>
        <time>2021-08-10T15:18:56.250Z</time>
      </trkpt>
      <trkpt lat="46.88251" lon="8.5473">
        <ele>1448</ele>
        <time>2021-08-10T15:18:57.249Z</time>
      </trkpt>
      <trkpt lat="46.88252" lon="8.5473">
        <ele>1448</ele>
        <time>2021-08-10T15:18:58.249Z</time>
      </trkpt>
      <trkpt lat="46.88252" lon="8.54729">
        <ele>1448</ele>
        <time>2021-08-10T15:18:59.250Z</time>
      </trkpt>
      <trkpt lat="46.88253" lon="8.54727">
        <ele>1448</ele>
        <time>2021-08-10T15:19:00.250Z</time>
      </trkpt>
      <trkpt lat="46.88252" lon="8.54726">
        <ele>1447</ele>
        <time>2021-08-10T15:19:01.250Z</time>
      </trkpt>
      <trkpt lat="46.88251" lon="8.54725">
        <ele>1447</ele>
        <time>2021-08-10T15:19:02.250Z</time>
      </trkpt>
      <trkpt lat="46.88251" lon="8.54725">
        <ele>1447</ele>
        <time>2021-08-10T15:19:03.250Z</time>
      </trkpt>
      <trkpt lat="46.8825" lon="8.54724">
        <ele>1447</ele>
        <time>2021-08-10T15:19:04.249Z</time>
      </trkpt>
      <trkpt lat="46.8825" lon="8.54724">
        <ele>1446</ele>
        <time>2021-08-10T15:19:05.249Z</time>
      </trkpt>
      <trkpt lat="46.8825" lon="8.54723">
        <ele>1446</ele>
        <time>2021-08-10T15:19:06.249Z</time>
      </trkpt>
      <trkpt lat="46.8825" lon="8.54723">
        <ele>1446</ele>
        <time>2021-08-10T15:19:07.250Z</time>
      </trkpt>
      <trkpt lat="46.88249" lon="8.54722">
        <ele>1447</ele>
        <time>2021-08-10T15:19:08.250Z</time>
      </trkpt>
      <trkpt lat="46.88248" lon="8.54722">
        <ele>1447</ele>
        <time>2021-08-10T15:19:09.250Z</time>
      </trkpt>
      <trkpt lat="46.88247" lon="8.54721">
        <ele>1448</ele>
        <time>2021-08-10T15:19:10.250Z</time>
      </trkpt>
      <trkpt lat="46.88246" lon="8.54721">
        <ele>1448</ele>
        <time>2021-08-10T15:19:11.250Z</time>
      </trkpt>
      <trkpt lat="46.88246" lon="8.54721">
        <ele>1448</ele>
        <time>2021-08-10T15:19:12.250Z</time>
      </trkpt>
      <trkpt lat="46.88245" lon="8.5472">
        <ele>1448</ele>
        <time>2021-08-10T15:19:13.250Z</time>
      </trkpt>
      <trkpt lat="46.88243" lon="8.54719">
        <ele>1449</ele>
        <time>2021-08-10T15:19:14.250Z</time>
      </trkpt>
      <trkpt lat="46.88242" lon="8.54719">
        <ele>1449</ele>
        <time>2021-08-10T15:19:15.249Z</time>
      </trkpt>
      <trkpt lat="46.88241" lon="8.54719">
        <ele>1450</ele>
        <time>2021-08-10T15:19:16.250Z</time>
      </trkpt>
      <trkpt lat="46.8824" lon="8.54719">
        <ele>1450</ele>
        <time>2021-08-10T15:19:17.250Z</time>
      </trkpt>
      <trkpt lat="46.88239" lon="8.54719">
        <ele>1450</ele>
        <time>2021-08-10T15:19:18.250Z</time>
      </trkpt>
      <trkpt lat="46.88238" lon="8.54719">
        <ele>1450</ele>
        <time>2021-08-10T15:19:19.250Z</time>
      </trkpt>
      <trkpt lat="46.88237" lon="8.54719">
        <ele>1450</ele>
        <time>2021-08-10T15:19:20.250Z</time>
      </trkpt>
      <trkpt lat="46.88236" lon="8.5472">
        <ele>1449</ele>
        <time>2021-08-10T15:19:21.250Z</time>
      </trkpt>
      <trkpt lat="46.88235" lon="8.5472">
        <ele>1449</ele>
        <time>2021-08-10T15:19:22.249Z</time>
      </trkpt>
      <trkpt lat="46.88235" lon="8.54721">
        <ele>1449</ele>
        <time>2021-08-10T15:19:23.250Z</time>
      </trkpt>
      <trkpt lat="46.88234" lon="8.54722">
        <ele>1449</ele>
        <time>2021-08-10T15:19:24.250Z</time>
      </trkpt>
      <trkpt lat="46.88233" lon="8.54723">
        <ele>1449</ele>
        <time>2021-08-10T15:19:25.250Z</time>
      </trkpt>
      <trkpt lat="46.88232" lon="8.54723">
        <ele>1449</ele>
        <time>2021-08-10T15:19:26.250Z</time>
      </trkpt>
      <trkpt lat="46.88232" lon="8.54724">
        <ele>1449</ele>
        <time>2021-08-10T15:19:27.250Z</time>
      </trkpt>
      <trkpt lat="46.88231" lon="8.54723">
        <ele>1449</ele>
        <time>2021-08-10T15:19:28.249Z</time>
      </trkpt>
      <trkpt lat="46.8823" lon="8.54724">
        <ele>1448</ele>
        <time>2021-08-10T15:19:29.250Z</time>
      </trkpt>
      <trkpt lat="46.8823" lon="8.54724">
        <ele>1448</ele>
        <time>2021-08-10T15:19:30.250Z</time>
      </trkpt>
      <trkpt lat="46.88229" lon="8.54724">
        <ele>1448</ele>
        <time>2021-08-10T15:19:31.250Z</time>
      </trkpt>
      <trkpt lat="46.88228" lon="8.54724">
        <ele>1449</ele>
        <time>2021-08-10T15:19:32.250Z</time>
      </trkpt>
      <trkpt lat="46.88227" lon="8.54724">
        <ele>1449</ele>
        <time>2021-08-10T15:19:33.250Z</time>
      </trkpt>
      <trkpt lat="46.88226" lon="8.54724">
        <ele>1449</ele>
        <time>2021-08-10T15:19:34.249Z</time>
      </trkpt>
      <trkpt lat="46.88225" lon="8.54723">
        <ele>1449</ele>
        <time>2021-08-10T15:19:35.249Z</time>
      </trkpt>
      <trkpt lat="46.88224" lon="8.54722">
        <ele>1449</ele>
        <time>2021-08-10T15:19:36.250Z</time>
      </trkpt>
      <trkpt lat="46.88224" lon="8.54721">
        <ele>1449</ele>
        <time>2021-08-10T15:19:37.249Z</time>
      </trkpt>
      <trkpt lat="46.88224" lon="8.5472">
        <ele>1449</ele>
        <time>2021-08-10T15:19:38.250Z</time>
      </trkpt>
      <trkpt lat="46.88223" lon="8.54719">
        <ele>1450</ele>
        <time>2021-08-10T15:19:39.250Z</time>
      </trkpt>
      <trkpt lat="46.88223" lon="8.54717">
        <ele>1450</ele>
        <time>2021-08-10T15:19:40.249Z</time>
      </trkpt>
      <trkpt lat="46.88222" lon="8.54717">
        <ele>1450</ele>
        <time>2021-08-10T15:19:43.331Z</time>
      </trkpt>
      <trkpt lat="46.88221" lon="8.54715">
        <ele>1450</ele>
        <time>2021-08-10T15:19:44.330Z</time>
      </trkpt>
      <trkpt lat="46.8822" lon="8.54714">
        <ele>1451</ele>
        <time>2021-08-10T15:19:45.330Z</time>
      </trkpt>
      <trkpt lat="46.88219" lon="8.54712">
        <ele>1451</ele>
        <time>2021-08-10T15:19:46.330Z</time>
      </trkpt>
      <trkpt lat="46.8822" lon="8.54713">
        <ele>1451</ele>
        <time>2021-08-10T15:19:47.330Z</time>
      </trkpt>
      <trkpt lat="46.88221" lon="8.54713">
        <ele>1451</ele>
        <time>2021-08-10T15:19:48.330Z</time>
      </trkpt>
      <trkpt lat="46.88222" lon="8.54713">
        <ele>1451</ele>
        <time>2021-08-10T15:19:49.330Z</time>
      </trkpt>
      <trkpt lat="46.88223" lon="8.54712">
        <ele>1452</ele>
        <time>2021-08-10T15:19:50.330Z</time>
      </trkpt>
      <trkpt lat="46.88224" lon="8.54711">
        <ele>1452</ele>
        <time>2021-08-10T15:19:51.331Z</time>
      </trkpt>
      <trkpt lat="46.88224" lon="8.5471">
        <ele>1452</ele>
        <time>2021-08-10T15:19:52.330Z</time>
      </trkpt>
      <trkpt lat="46.88225" lon="8.54709">
        <ele>1452</ele>
        <time>2021-08-10T15:19:53.331Z</time>
      </trkpt>
      <trkpt lat="46.88225" lon="8.54707">
        <ele>1453</ele>
        <time>2021-08-10T15:19:54.330Z</time>
      </trkpt>
      <trkpt lat="46.88224" lon="8.54706">
        <ele>1453</ele>
        <time>2021-08-10T15:19:55.331Z</time>
      </trkpt>
      <trkpt lat="46.88224" lon="8.54704">
        <ele>1453</ele>
        <time>2021-08-10T15:19:56.331Z</time>
      </trkpt>
      <trkpt lat="46.88223" lon="8.54703">
        <ele>1453</ele>
        <time>2021-08-10T15:19:57.331Z</time>
      </trkpt>
      <trkpt lat="46.88223" lon="8.54703">
        <ele>1454</ele>
        <time>2021-08-10T15:19:58.331Z</time>
      </trkpt>
      <trkpt lat="46.88223" lon="8.54702">
        <ele>1454</ele>
        <time>2021-08-10T15:19:59.331Z</time>
      </trkpt>
      <trkpt lat="46.88222" lon="8.54701">
        <ele>1454</ele>
        <time>2021-08-10T15:20:00.331Z</time>
      </trkpt>
      <trkpt lat="46.88222" lon="8.547">
        <ele>1455</ele>
        <time>2021-08-10T15:20:01.331Z</time>
      </trkpt>
      <trkpt lat="46.88221" lon="8.54699">
        <ele>1455</ele>
        <time>2021-08-10T15:20:02.331Z</time>
      </trkpt>
      <trkpt lat="46.8822" lon="8.54698">
        <ele>1455</ele>
        <time>2021-08-10T15:20:03.331Z</time>
      </trkpt>
      <trkpt lat="46.8822" lon="8.54697">
        <ele>1456</ele>
        <time>2021-08-10T15:20:04.330Z</time>
      </trkpt>
      <trkpt lat="46.8822" lon="8.54696">
        <ele>1456</ele>
        <time>2021-08-10T15:20:05.330Z</time>
      </trkpt>
      <trkpt lat="46.88219" lon="8.54695">
        <ele>1457</ele>
        <time>2021-08-10T15:20:06.331Z</time>
      </trkpt>
      <trkpt lat="46.88219" lon="8.54695">
        <ele>1457</ele>
        <time>2021-08-10T15:20:07.330Z</time>
      </trkpt>
      <trkpt lat="46.88218" lon="8.54695">
        <ele>1457</ele>
        <time>2021-08-10T15:20:08.331Z</time>
      </trkpt>
      <trkpt lat="46.88218" lon="8.54694">
        <ele>1458</ele>
        <time>2021-08-10T15:20:09.330Z</time>
      </trkpt>
      <trkpt lat="46.88217" lon="8.54693">
        <ele>1458</ele>
        <time>2021-08-10T15:20:10.330Z</time>
      </trkpt>
      <trkpt lat="46.88216" lon="8.54692">
        <ele>1459</ele>
        <time>2021-08-10T15:20:11.331Z</time>
      </trkpt>
      <trkpt lat="46.88216" lon="8.54691">
        <ele>1459</ele>
        <time>2021-08-10T15:20:12.331Z</time>
      </trkpt>
      <trkpt lat="46.88216" lon="8.5469">
        <ele>1459</ele>
        <time>2021-08-10T15:20:13.331Z</time>
      </trkpt>
      <trkpt lat="46.88215" lon="8.54689">
        <ele>1459</ele>
        <time>2021-08-10T15:20:14.330Z</time>
      </trkpt>
      <trkpt lat="46.88215" lon="8.54689">
        <ele>1459</ele>
        <time>2021-08-10T15:20:15.330Z</time>
      </trkpt>
      <trkpt lat="46.88215" lon="8.54689">
        <ele>1460</ele>
        <time>2021-08-10T15:20:16.330Z</time>
      </trkpt>
      <trkpt lat="46.88214" lon="8.54688">
        <ele>1460</ele>
        <time>2021-08-10T15:20:17.331Z</time>
      </trkpt>
      <trkpt lat="46.88213" lon="8.54688">
        <ele>1460</ele>
        <time>2021-08-10T15:20:18.330Z</time>
      </trkpt>
      <trkpt lat="46.88213" lon="8.54688">
        <ele>1460</ele>
        <time>2021-08-10T15:20:19.331Z</time>
      </trkpt>
      <trkpt lat="46.88213" lon="8.54687">
        <ele>1460</ele>
        <time>2021-08-10T15:20:20.330Z</time>
      </trkpt>
      <trkpt lat="46.88212" lon="8.54686">
        <ele>1461</ele>
        <time>2021-08-10T15:20:21.331Z</time>
      </trkpt>
      <trkpt lat="46.88212" lon="8.54686">
        <ele>1461</ele>
        <time>2021-08-10T15:20:22.331Z</time>
      </trkpt>
      <trkpt lat="46.88211" lon="8.54685">
        <ele>1461</ele>
        <time>2021-08-10T15:20:23.331Z</time>
      </trkpt>
      <trkpt lat="46.8821" lon="8.54685">
        <ele>1462</ele>
        <time>2021-08-10T15:20:24.330Z</time>
      </trkpt>
      <trkpt lat="46.88209" lon="8.54684">
        <ele>1462</ele>
        <time>2021-08-10T15:20:25.330Z</time>
      </trkpt>
      <trkpt lat="46.88208" lon="8.54683">
        <ele>1462</ele>
        <time>2021-08-10T15:20:26.331Z</time>
      </trkpt>
      <trkpt lat="46.88207" lon="8.54682">
        <ele>1462</ele>
        <time>2021-08-10T15:20:27.331Z</time>
      </trkpt>
      <trkpt lat="46.88206" lon="8.54681">
        <ele>1462</ele>
        <time>2021-08-10T15:20:28.330Z</time>
      </trkpt>
      <trkpt lat="46.88206" lon="8.54681">
        <ele>1463</ele>
        <time>2021-08-10T15:20:29.330Z</time>
      </trkpt>
      <trkpt lat="46.88205" lon="8.54681">
        <ele>1463</ele>
        <time>2021-08-10T15:20:30.330Z</time>
      </trkpt>
      <trkpt lat="46.88204" lon="8.5468">
        <ele>1462</ele>
        <time>2021-08-10T15:20:31.331Z</time>
      </trkpt>
      <trkpt lat="46.88204" lon="8.5468">
        <ele>1462</ele>
        <time>2021-08-10T15:20:32.330Z</time>
      </trkpt>
      <trkpt lat="46.88203" lon="8.5468">
        <ele>1462</ele>
        <time>2021-08-10T15:20:33.330Z</time>
      </trkpt>
      <trkpt lat="46.88202" lon="8.54679">
        <ele>1462</ele>
        <time>2021-08-10T15:20:34.330Z</time>
      </trkpt>
      <trkpt lat="46.88202" lon="8.54678">
        <ele>1462</ele>
        <time>2021-08-10T15:20:35.331Z</time>
      </trkpt>
      <trkpt lat="46.88201" lon="8.54678">
        <ele>1462</ele>
        <time>2021-08-10T15:20:36.330Z</time>
      </trkpt>
      <trkpt lat="46.88201" lon="8.54677">
        <ele>1461</ele>
        <time>2021-08-10T15:20:37.330Z</time>
      </trkpt>
      <trkpt lat="46.88201" lon="8.54677">
        <ele>1461</ele>
        <time>2021-08-10T15:20:38.330Z</time>
      </trkpt>
      <trkpt lat="46.88201" lon="8.54676">
        <ele>1461</ele>
        <time>2021-08-10T15:20:39.330Z</time>
      </trkpt>
      <trkpt lat="46.882" lon="8.54676">
        <ele>1461</ele>
        <time>2021-08-10T15:20:40.330Z</time>
      </trkpt>
      <trkpt lat="46.88199" lon="8.54675">
        <ele>1461</ele>
        <time>2021-08-10T15:20:41.330Z</time>
      </trkpt>
      <trkpt lat="46.88199" lon="8.54674">
        <ele>1461</ele>
        <time>2021-08-10T15:20:42.330Z</time>
      </trkpt>
      <trkpt lat="46.88198" lon="8.54674">
        <ele>1460</ele>
        <time>2021-08-10T15:20:43.331Z</time>
      </trkpt>
      <trkpt lat="46.88197" lon="8.54673">
        <ele>1461</ele>
        <time>2021-08-10T15:20:44.330Z</time>
      </trkpt>
      <trkpt lat="46.88197" lon="8.54672">
        <ele>1461</ele>
        <time>2021-08-10T15:20:45.331Z</time>
      </trkpt>
      <trkpt lat="46.88197" lon="8.54671">
        <ele>1462</ele>
        <time>2021-08-10T15:20:46.331Z</time>
      </trkpt>
      <trkpt lat="46.88197" lon="8.5467">
        <ele>1462</ele>
        <time>2021-08-10T15:20:47.331Z</time>
      </trkpt>
      <trkpt lat="46.88196" lon="8.54669">
        <ele>1463</ele>
        <time>2021-08-10T15:20:48.331Z</time>
      </trkpt>
      <trkpt lat="46.88195" lon="8.54669">
        <ele>1463</ele>
        <time>2021-08-10T15:20:49.330Z</time>
      </trkpt>
      <trkpt lat="46.88195" lon="8.54669">
        <ele>1464</ele>
        <time>2021-08-10T15:20:50.331Z</time>
      </trkpt>
      <trkpt lat="46.88194" lon="8.54668">
        <ele>1465</ele>
        <time>2021-08-10T15:20:51.331Z</time>
      </trkpt>
      <trkpt lat="46.88193" lon="8.54668">
        <ele>1465</ele>
        <time>2021-08-10T15:20:52.331Z</time>
      </trkpt>
      <trkpt lat="46.88193" lon="8.54668">
        <ele>1465</ele>
        <time>2021-08-10T15:20:53.331Z</time>
      </trkpt>
      <trkpt lat="46.88193" lon="8.54668">
        <ele>1466</ele>
        <time>2021-08-10T15:20:54.331Z</time>
      </trkpt>
      <trkpt lat="46.88192" lon="8.54668">
        <ele>1466</ele>
        <time>2021-08-10T15:20:55.330Z</time>
      </trkpt>
      <trkpt lat="46.88191" lon="8.54667">
        <ele>1466</ele>
        <time>2021-08-10T15:20:56.330Z</time>
      </trkpt>
      <trkpt lat="46.88191" lon="8.54668">
        <ele>1466</ele>
        <time>2021-08-10T15:20:57.330Z</time>
      </trkpt>
      <trkpt lat="46.8819" lon="8.54668">
        <ele>1466</ele>
        <time>2021-08-10T15:20:58.331Z</time>
      </trkpt>
      <trkpt lat="46.88189" lon="8.54669">
        <ele>1467</ele>
        <time>2021-08-10T15:21:00.432Z</time>
      </trkpt>
      <trkpt lat="46.88188" lon="8.5467">
        <ele>1467</ele>
        <time>2021-08-10T15:21:01.433Z</time>
      </trkpt>
      <trkpt lat="46.88187" lon="8.54671">
        <ele>1467</ele>
        <time>2021-08-10T15:21:02.433Z</time>
      </trkpt>
      <trkpt lat="46.88186" lon="8.54671">
        <ele>1467</ele>
        <time>2021-08-10T15:21:03.432Z</time>
      </trkpt>
      <trkpt lat="46.88185" lon="8.54671">
        <ele>1467</ele>
        <time>2021-08-10T15:21:04.432Z</time>
      </trkpt>
      <trkpt lat="46.88184" lon="8.54671">
        <ele>1468</ele>
        <time>2021-08-10T15:21:05.433Z</time>
      </trkpt>
      <trkpt lat="46.88183" lon="8.54671">
        <ele>1468</ele>
        <time>2021-08-10T15:21:06.433Z</time>
      </trkpt>
      <trkpt lat="46.88183" lon="8.54671">
        <ele>1469</ele>
        <time>2021-08-10T15:21:07.433Z</time>
      </trkpt>
      <trkpt lat="46.88182" lon="8.54671">
        <ele>1469</ele>
        <time>2021-08-10T15:21:08.433Z</time>
      </trkpt>
      <trkpt lat="46.88182" lon="8.5467">
        <ele>1470</ele>
        <time>2021-08-10T15:21:09.433Z</time>
      </trkpt>
      <trkpt lat="46.88181" lon="8.5467">
        <ele>1470</ele>
        <time>2021-08-10T15:21:10.432Z</time>
      </trkpt>
      <trkpt lat="46.8818" lon="8.5467">
        <ele>1471</ele>
        <time>2021-08-10T15:21:11.433Z</time>
      </trkpt>
      <trkpt lat="46.8818" lon="8.5467">
        <ele>1471</ele>
        <time>2021-08-10T15:21:12.433Z</time>
      </trkpt>
      <trkpt lat="46.88178" lon="8.5467">
        <ele>1471</ele>
        <time>2021-08-10T15:21:13.433Z</time>
      </trkpt>
      <trkpt lat="46.88177" lon="8.5467">
        <ele>1471</ele>
        <time>2021-08-10T15:21:14.433Z</time>
      </trkpt>
      <trkpt lat="46.88176" lon="8.54669">
        <ele>1470</ele>
        <time>2021-08-10T15:21:15.432Z</time>
      </trkpt>
      <trkpt lat="46.88175" lon="8.54669">
        <ele>1470</ele>
        <time>2021-08-10T15:21:16.433Z</time>
      </trkpt>
      <trkpt lat="46.88174" lon="8.54668">
        <ele>1470</ele>
        <time>2021-08-10T15:21:17.432Z</time>
      </trkpt>
      <trkpt lat="46.88174" lon="8.54668">
        <ele>1470</ele>
        <time>2021-08-10T15:21:18.432Z</time>
      </trkpt>
      <trkpt lat="46.88172" lon="8.54668">
        <ele>1471</ele>
        <time>2021-08-10T15:21:19.432Z</time>
      </trkpt>
      <trkpt lat="46.88172" lon="8.54668">
        <ele>1471</ele>
        <time>2021-08-10T15:21:20.432Z</time>
      </trkpt>
      <trkpt lat="46.88171" lon="8.54668">
        <ele>1471</ele>
        <time>2021-08-10T15:21:21.433Z</time>
      </trkpt>
      <trkpt lat="46.88171" lon="8.54667">
        <ele>1471</ele>
        <time>2021-08-10T15:21:22.433Z</time>
      </trkpt>
      <trkpt lat="46.8817" lon="8.54667">
        <ele>1471</ele>
        <time>2021-08-10T15:21:23.433Z</time>
      </trkpt>
      <trkpt lat="46.88169" lon="8.54666">
        <ele>1470</ele>
        <time>2021-08-10T15:21:24.432Z</time>
      </trkpt>
      <trkpt lat="46.88168" lon="8.54666">
        <ele>1470</ele>
        <time>2021-08-10T15:21:25.433Z</time>
      </trkpt>
      <trkpt lat="46.88167" lon="8.54666">
        <ele>1470</ele>
        <time>2021-08-10T15:21:26.433Z</time>
      </trkpt>
      <trkpt lat="46.88167" lon="8.54667">
        <ele>1470</ele>
        <time>2021-08-10T15:21:27.433Z</time>
      </trkpt>
      <trkpt lat="46.88166" lon="8.54667">
        <ele>1471</ele>
        <time>2021-08-10T15:21:28.432Z</time>
      </trkpt>
      <trkpt lat="46.88166" lon="8.54666">
        <ele>1471</ele>
        <time>2021-08-10T15:21:29.433Z</time>
      </trkpt>
      <trkpt lat="46.88165" lon="8.54666">
        <ele>1471</ele>
        <time>2021-08-10T15:21:30.432Z</time>
      </trkpt>
      <trkpt lat="46.88164" lon="8.54666">
        <ele>1472</ele>
        <time>2021-08-10T15:21:31.432Z</time>
      </trkpt>
      <trkpt lat="46.88163" lon="8.54667">
        <ele>1472</ele>
        <time>2021-08-10T15:21:32.432Z</time>
      </trkpt>
      <trkpt lat="46.88162" lon="8.54666">
        <ele>1473</ele>
        <time>2021-08-10T15:21:33.432Z</time>
      </trkpt>
      <trkpt lat="46.88161" lon="8.54666">
        <ele>1473</ele>
        <time>2021-08-10T15:21:34.432Z</time>
      </trkpt>
      <trkpt lat="46.8816" lon="8.54666">
        <ele>1473</ele>
        <time>2021-08-10T15:21:35.432Z</time>
      </trkpt>
      <trkpt lat="46.88159" lon="8.54665">
        <ele>1473</ele>
        <time>2021-08-10T15:21:36.432Z</time>
      </trkpt>
      <trkpt lat="46.88159" lon="8.54665">
        <ele>1473</ele>
        <time>2021-08-10T15:21:37.432Z</time>
      </trkpt>
      <trkpt lat="46.88158" lon="8.54665">
        <ele>1473</ele>
        <time>2021-08-10T15:21:46.613Z</time>
      </trkpt>
      <trkpt lat="46.88158" lon="8.54665">
        <ele>1473</ele>
        <time>2021-08-10T15:21:47.614Z</time>
      </trkpt>
      <trkpt lat="46.88157" lon="8.54664">
        <ele>1473</ele>
        <time>2021-08-10T15:21:48.614Z</time>
      </trkpt>
      <trkpt lat="46.88157" lon="8.54664">
        <ele>1473</ele>
        <time>2021-08-10T15:21:49.613Z</time>
      </trkpt>
      <trkpt lat="46.88156" lon="8.54663">
        <ele>1473</ele>
        <time>2021-08-10T15:21:50.614Z</time>
      </trkpt>
      <trkpt lat="46.88155" lon="8.54663">
        <ele>1473</ele>
        <time>2021-08-10T15:21:51.614Z</time>
      </trkpt>
      <trkpt lat="46.88155" lon="8.54663">
        <ele>1473</ele>
        <time>2021-08-10T15:21:52.614Z</time>
      </trkpt>
      <trkpt lat="46.88154" lon="8.54662">
        <ele>1473</ele>
        <time>2021-08-10T15:21:53.614Z</time>
      </trkpt>
      <trkpt lat="46.88153" lon="8.54661">
        <ele>1473</ele>
        <time>2021-08-10T15:21:54.613Z</time>
      </trkpt>
      <trkpt lat="46.88153" lon="8.54661">
        <ele>1473</ele>
        <time>2021-08-10T15:21:55.613Z</time>
      </trkpt>
      <trkpt lat="46.88153" lon="8.5466">
        <ele>1474</ele>
        <time>2021-08-10T15:21:56.614Z</time>
      </trkpt>
      <trkpt lat="46.88154" lon="8.54659">
        <ele>1475</ele>
        <time>2021-08-10T15:21:57.613Z</time>
      </trkpt>
      <trkpt lat="46.88153" lon="8.54658">
        <ele>1475</ele>
        <time>2021-08-10T15:21:58.613Z</time>
      </trkpt>
      <trkpt lat="46.88154" lon="8.54657">
        <ele>1476</ele>
        <time>2021-08-10T15:21:59.614Z</time>
      </trkpt>
      <trkpt lat="46.88154" lon="8.54656">
        <ele>1476</ele>
        <time>2021-08-10T15:22:00.613Z</time>
      </trkpt>
      <trkpt lat="46.88154" lon="8.54655">
        <ele>1477</ele>
        <time>2021-08-10T15:22:01.614Z</time>
      </trkpt>
      <trkpt lat="46.88154" lon="8.54654">
        <ele>1477</ele>
        <time>2021-08-10T15:22:02.614Z</time>
      </trkpt>
      <trkpt lat="46.88154" lon="8.54653">
        <ele>1478</ele>
        <time>2021-08-10T15:22:03.614Z</time>
      </trkpt>
      <trkpt lat="46.88155" lon="8.54652">
        <ele>1478</ele>
        <time>2021-08-10T15:22:04.613Z</time>
      </trkpt>
      <trkpt lat="46.88155" lon="8.54652">
        <ele>1478</ele>
        <time>2021-08-10T15:22:05.614Z</time>
      </trkpt>
      <trkpt lat="46.88155" lon="8.54651">
        <ele>1478</ele>
        <time>2021-08-10T15:22:06.614Z</time>
      </trkpt>
      <trkpt lat="46.88156" lon="8.54651">
        <ele>1478</ele>
        <time>2021-08-10T15:22:07.613Z</time>
      </trkpt>
      <trkpt lat="46.88156" lon="8.54651">
        <ele>1478</ele>
        <time>2021-08-10T15:22:08.613Z</time>
      </trkpt>
      <trkpt lat="46.88156" lon="8.54651">
        <ele>1477</ele>
        <time>2021-08-10T15:22:12.702Z</time>
      </trkpt>
      <trkpt lat="46.88156" lon="8.54651">
        <ele>1477</ele>
        <time>2021-08-10T15:22:13.702Z</time>
      </trkpt>
      <trkpt lat="46.88157" lon="8.54651">
        <ele>1477</ele>
        <time>2021-08-10T15:22:14.703Z</time>
      </trkpt>
      <trkpt lat="46.88158" lon="8.5465">
        <ele>1476</ele>
        <time>2021-08-10T15:22:15.702Z</time>
      </trkpt>
      <trkpt lat="46.88158" lon="8.5465">
        <ele>1476</ele>
        <time>2021-08-10T15:22:25.872Z</time>
      </trkpt>
      <trkpt lat="46.88159" lon="8.5465">
        <ele>1476</ele>
        <time>2021-08-10T15:22:26.872Z</time>
      </trkpt>
      <trkpt lat="46.8816" lon="8.5465">
        <ele>1476</ele>
        <time>2021-08-10T15:22:27.873Z</time>
      </trkpt>
      <trkpt lat="46.88161" lon="8.5465">
        <ele>1477</ele>
        <time>2021-08-10T15:22:28.873Z</time>
      </trkpt>
      <trkpt lat="46.88162" lon="8.5465">
        <ele>1477</ele>
        <time>2021-08-10T15:22:29.872Z</time>
      </trkpt>
      <trkpt lat="46.88162" lon="8.54649">
        <ele>1478</ele>
        <time>2021-08-10T15:22:30.872Z</time>
      </trkpt>
      <trkpt lat="46.88163" lon="8.54647">
        <ele>1479</ele>
        <time>2021-08-10T15:22:31.872Z</time>
      </trkpt>
      <trkpt lat="46.88164" lon="8.54646">
        <ele>1480</ele>
        <time>2021-08-10T15:22:32.872Z</time>
      </trkpt>
      <trkpt lat="46.88164" lon="8.54645">
        <ele>1481</ele>
        <time>2021-08-10T15:22:33.873Z</time>
      </trkpt>
      <trkpt lat="46.88165" lon="8.54644">
        <ele>1482</ele>
        <time>2021-08-10T15:22:34.873Z</time>
      </trkpt>
      <trkpt lat="46.88166" lon="8.54643">
        <ele>1483</ele>
        <time>2021-08-10T15:22:35.872Z</time>
      </trkpt>
      <trkpt lat="46.88166" lon="8.54643">
        <ele>1483</ele>
        <time>2021-08-10T15:22:36.872Z</time>
      </trkpt>
      <trkpt lat="46.88167" lon="8.54642">
        <ele>1484</ele>
        <time>2021-08-10T15:22:37.872Z</time>
      </trkpt>
      <trkpt lat="46.88168" lon="8.5464">
        <ele>1485</ele>
        <time>2021-08-10T15:22:38.873Z</time>
      </trkpt>
      <trkpt lat="46.88168" lon="8.54639">
        <ele>1486</ele>
        <time>2021-08-10T15:22:39.872Z</time>
      </trkpt>
      <trkpt lat="46.88168" lon="8.54638">
        <ele>1487</ele>
        <time>2021-08-10T15:22:40.873Z</time>
      </trkpt>
      <trkpt lat="46.88169" lon="8.54637">
        <ele>1487</ele>
        <time>2021-08-10T15:22:45.949Z</time>
      </trkpt>
      <trkpt lat="46.8817" lon="8.54636">
        <ele>1487</ele>
        <time>2021-08-10T15:22:46.949Z</time>
      </trkpt>
      <trkpt lat="46.8817" lon="8.54634">
        <ele>1488</ele>
        <time>2021-08-10T15:22:47.949Z</time>
      </trkpt>
      <trkpt lat="46.88171" lon="8.54633">
        <ele>1488</ele>
        <time>2021-08-10T15:22:48.949Z</time>
      </trkpt>
      <trkpt lat="46.88171" lon="8.54632">
        <ele>1487</ele>
        <time>2021-08-10T15:22:49.949Z</time>
      </trkpt>
      <trkpt lat="46.88171" lon="8.5463">
        <ele>1488</ele>
        <time>2021-08-10T15:22:50.949Z</time>
      </trkpt>
      <trkpt lat="46.88171" lon="8.54629">
        <ele>1488</ele>
        <time>2021-08-10T15:22:51.949Z</time>
      </trkpt>
      <trkpt lat="46.88172" lon="8.54628">
        <ele>1488</ele>
        <time>2021-08-10T15:22:52.949Z</time>
      </trkpt>
      <trkpt lat="46.88172" lon="8.54626">
        <ele>1487</ele>
        <time>2021-08-10T15:22:53.949Z</time>
      </trkpt>
      <trkpt lat="46.88173" lon="8.54625">
        <ele>1487</ele>
        <time>2021-08-10T15:22:54.949Z</time>
      </trkpt>
      <trkpt lat="46.88173" lon="8.54624">
        <ele>1486</ele>
        <time>2021-08-10T15:22:55.949Z</time>
      </trkpt>
      <trkpt lat="46.88173" lon="8.54623">
        <ele>1486</ele>
        <time>2021-08-10T15:22:56.949Z</time>
      </trkpt>
      <trkpt lat="46.88174" lon="8.54622">
        <ele>1485</ele>
        <time>2021-08-10T15:22:57.949Z</time>
      </trkpt>
      <trkpt lat="46.88174" lon="8.54621">
        <ele>1485</ele>
        <time>2021-08-10T15:22:58.949Z</time>
      </trkpt>
      <trkpt lat="46.88175" lon="8.54621">
        <ele>1485</ele>
        <time>2021-08-10T15:22:59.949Z</time>
      </trkpt>
      <trkpt lat="46.88176" lon="8.5462">
        <ele>1485</ele>
        <time>2021-08-10T15:23:00.950Z</time>
      </trkpt>
      <trkpt lat="46.88177" lon="8.5462">
        <ele>1485</ele>
        <time>2021-08-10T15:23:01.950Z</time>
      </trkpt>
      <trkpt lat="46.88177" lon="8.5462">
        <ele>1485</ele>
        <time>2021-08-10T15:23:02.950Z</time>
      </trkpt>
      <trkpt lat="46.88176" lon="8.5462">
        <ele>1485</ele>
        <time>2021-08-10T15:23:03.949Z</time>
      </trkpt>
      <trkpt lat="46.88176" lon="8.5462">
        <ele>1484</ele>
        <time>2021-08-10T15:23:04.950Z</time>
      </trkpt>
      <trkpt lat="46.88175" lon="8.5462">
        <ele>1484</ele>
        <time>2021-08-10T15:23:08.076Z</time>
      </trkpt>
      <trkpt lat="46.88175" lon="8.5462">
        <ele>1484</ele>
        <time>2021-08-10T15:23:09.076Z</time>
      </trkpt>
      <trkpt lat="46.88175" lon="8.5462">
        <ele>1483</ele>
        <time>2021-08-10T15:23:10.076Z</time>
      </trkpt>
      <trkpt lat="46.88176" lon="8.5462">
        <ele>1482</ele>
        <time>2021-08-10T15:23:11.078Z</time>
      </trkpt>
      <trkpt lat="46.88176" lon="8.5462">
        <ele>1482</ele>
        <time>2021-08-10T15:23:12.078Z</time>
      </trkpt>
      <trkpt lat="46.88176" lon="8.5462">
        <ele>1481</ele>
        <time>2021-08-10T15:23:15.207Z</time>
      </trkpt>
      <trkpt lat="46.88177" lon="8.54617">
        <ele>1479</ele>
        <time>2021-08-10T15:23:16.209Z</time>
      </trkpt>
      <trkpt lat="46.88177" lon="8.54616">
        <ele>1479</ele>
        <time>2021-08-10T15:23:17.209Z</time>
      </trkpt>
      <trkpt lat="46.88177" lon="8.54615">
        <ele>1479</ele>
        <time>2021-08-10T15:23:18.209Z</time>
      </trkpt>
      <trkpt lat="46.88177" lon="8.54614">
        <ele>1479</ele>
        <time>2021-08-10T15:23:19.209Z</time>
      </trkpt>
      <trkpt lat="46.88177" lon="8.54614">
        <ele>1479</ele>
        <time>2021-08-10T15:23:20.209Z</time>
      </trkpt>
      <trkpt lat="46.88177" lon="8.54613">
        <ele>1478</ele>
        <time>2021-08-10T15:23:21.209Z</time>
      </trkpt>
      <trkpt lat="46.88175" lon="8.54615">
        <ele>1477</ele>
        <time>2021-08-10T15:23:22.208Z</time>
      </trkpt>
      <trkpt lat="46.88175" lon="8.54615">
        <ele>1477</ele>
        <time>2021-08-10T15:23:23.208Z</time>
      </trkpt>
      <trkpt lat="46.88174" lon="8.54616">
        <ele>1476</ele>
        <time>2021-08-10T15:23:24.209Z</time>
      </trkpt>
      <trkpt lat="46.88224" lon="8.54561">
        <ele>1495</ele>
        <time>2021-08-11T08:23:56.378Z</time>
      </trkpt>
      <trkpt lat="46.88224" lon="8.54561">
        <ele>1495</ele>
        <time>2021-08-11T08:23:56.378Z</time>
      </trkpt>
      <trkpt lat="46.88224" lon="8.54561">
        <ele>1495</ele>
        <time>2021-08-11T08:23:56.378Z</time>
      </trkpt>
      <trkpt lat="46.88227" lon="8.54562">
        <ele>1494</ele>
        <time>2021-08-11T08:23:57.378Z</time>
      </trkpt>
      <trkpt lat="46.88225" lon="8.54563">
        <ele>1493</ele>
        <time>2021-08-11T08:23:58.378Z</time>
      </trkpt>
      <trkpt lat="46.88222" lon="8.54564">
        <ele>1492</ele>
        <time>2021-08-11T08:23:59.378Z</time>
      </trkpt>
      <trkpt lat="46.88222" lon="8.54561">
        <ele>1491</ele>
        <time>2021-08-11T08:24:00.378Z</time>
      </trkpt>
      <trkpt lat="46.88221" lon="8.54559">
        <ele>1490</ele>
        <time>2021-08-11T08:24:01.378Z</time>
      </trkpt>
      <trkpt lat="46.8822" lon="8.54557">
        <ele>1489</ele>
        <time>2021-08-11T08:24:02.378Z</time>
      </trkpt>
      <trkpt lat="46.88219" lon="8.54554">
        <ele>1489</ele>
        <time>2021-08-11T08:24:03.378Z</time>
      </trkpt>
      <trkpt lat="46.88216" lon="8.54553">
        <ele>1488</ele>
        <time>2021-08-11T08:24:04.378Z</time>
      </trkpt>
      <trkpt lat="46.88214" lon="8.54551">
        <ele>1488</ele>
        <time>2021-08-11T08:24:05.378Z</time>
      </trkpt>
      <trkpt lat="46.88213" lon="8.5455">
        <ele>1488</ele>
        <time>2021-08-11T08:24:06.378Z</time>
      </trkpt>
      <trkpt lat="46.88212" lon="8.5455">
        <ele>1488</ele>
        <time>2021-08-11T08:24:07.378Z</time>
      </trkpt>
      <trkpt lat="46.88212" lon="8.5455">
        <ele>1488</ele>
        <time>2021-08-11T08:24:08.379Z</time>
      </trkpt>
      <trkpt lat="46.88212" lon="8.5455">
        <ele>1488</ele>
        <time>2021-08-11T08:24:09.379Z</time>
      </trkpt>
      <trkpt lat="46.88212" lon="8.5455">
        <ele>1488</ele>
        <time>2021-08-11T08:24:10.378Z</time>
      </trkpt>
      <trkpt lat="46.88212" lon="8.54549">
        <ele>1488</ele>
        <time>2021-08-11T08:24:11.378Z</time>
      </trkpt>
      <trkpt lat="46.88212" lon="8.54548">
        <ele>1488</ele>
        <time>2021-08-11T08:24:12.379Z</time>
      </trkpt>
      <trkpt lat="46.88211" lon="8.54549">
        <ele>1488</ele>
        <time>2021-08-11T08:24:13.378Z</time>
      </trkpt>
      <trkpt lat="46.8821" lon="8.54549">
        <ele>1488</ele>
        <time>2021-08-11T08:24:14.378Z</time>
      </trkpt>
      <trkpt lat="46.8821" lon="8.5455">
        <ele>1489</ele>
        <time>2021-08-11T08:24:15.378Z</time>
      </trkpt>
      <trkpt lat="46.88209" lon="8.54549">
        <ele>1489</ele>
        <time>2021-08-11T08:24:16.378Z</time>
      </trkpt>
      <trkpt lat="46.88208" lon="8.54549">
        <ele>1489</ele>
        <time>2021-08-11T08:24:17.378Z</time>
      </trkpt>
      <trkpt lat="46.88208" lon="8.54549">
        <ele>1489</ele>
        <time>2021-08-11T08:24:18.378Z</time>
      </trkpt>
      <trkpt lat="46.88208" lon="8.54549">
        <ele>1490</ele>
        <time>2021-08-11T08:24:19.378Z</time>
      </trkpt>
      <trkpt lat="46.88208" lon="8.54549">
        <ele>1490</ele>
        <time>2021-08-11T08:24:20.378Z</time>
      </trkpt>
      <trkpt lat="46.88208" lon="8.54549">
        <ele>1490</ele>
        <time>2021-08-11T08:24:21.378Z</time>
      </trkpt>
      <trkpt lat="46.88209" lon="8.5455">
        <ele>1490</ele>
        <time>2021-08-11T08:24:22.378Z</time>
      </trkpt>
      <trkpt lat="46.88208" lon="8.5455">
        <ele>1491</ele>
        <time>2021-08-11T08:24:23.378Z</time>
      </trkpt>
      <trkpt lat="46.88208" lon="8.5455">
        <ele>1491</ele>
        <time>2021-08-11T08:24:24.378Z</time>
      </trkpt>
      <trkpt lat="46.88208" lon="8.5455">
        <ele>1491</ele>
        <time>2021-08-11T08:24:25.379Z</time>
      </trkpt>
      <trkpt lat="46.88208" lon="8.5455">
        <ele>1491</ele>
        <time>2021-08-11T08:24:26.378Z</time>
      </trkpt>
      <trkpt lat="46.88208" lon="8.5455">
        <ele>1491</ele>
        <time>2021-08-11T08:24:27.378Z</time>
      </trkpt>
      <trkpt lat="46.88209" lon="8.5455">
        <ele>1491</ele>
        <time>2021-08-11T08:24:28.378Z</time>
      </trkpt>
      <trkpt lat="46.88209" lon="8.54549">
        <ele>1491</ele>
        <time>2021-08-11T08:24:29.378Z</time>
      </trkpt>
      <trkpt lat="46.8821" lon="8.54549">
        <ele>1491</ele>
        <time>2021-08-11T08:24:30.378Z</time>
      </trkpt>
      <trkpt lat="46.8821" lon="8.54549">
        <ele>1491</ele>
        <time>2021-08-11T08:24:31.378Z</time>
      </trkpt>
      <trkpt lat="46.8821" lon="8.54549">
        <ele>1491</ele>
        <time>2021-08-11T08:24:32.378Z</time>
      </trkpt>
      <trkpt lat="46.8821" lon="8.54549">
        <ele>1491</ele>
        <time>2021-08-11T08:24:33.378Z</time>
      </trkpt>
      <trkpt lat="46.8821" lon="8.54549">
        <ele>1491</ele>
        <time>2021-08-11T08:24:34.378Z</time>
      </trkpt>
      <trkpt lat="46.88209" lon="8.54548">
        <ele>1491</ele>
        <time>2021-08-11T08:24:35.378Z</time>
      </trkpt>
      <trkpt lat="46.88208" lon="8.54547">
        <ele>1491</ele>
        <time>2021-08-11T08:24:36.378Z</time>
      </trkpt>
      <trkpt lat="46.88207" lon="8.54547">
        <ele>1491</ele>
        <time>2021-08-11T08:24:37.378Z</time>
      </trkpt>
      <trkpt lat="46.88208" lon="8.54547">
        <ele>1492</ele>
        <time>2021-08-11T08:24:38.378Z</time>
      </trkpt>
      <trkpt lat="46.88208" lon="8.54547">
        <ele>1492</ele>
        <time>2021-08-11T08:24:39.378Z</time>
      </trkpt>
      <trkpt lat="46.88209" lon="8.54548">
        <ele>1492</ele>
        <time>2021-08-11T08:24:40.378Z</time>
      </trkpt>
      <trkpt lat="46.88211" lon="8.54549">
        <ele>1492</ele>
        <time>2021-08-11T08:24:41.378Z</time>
      </trkpt>
      <trkpt lat="46.88212" lon="8.5455">
        <ele>1492</ele>
        <time>2021-08-11T08:24:42.378Z</time>
      </trkpt>
      <trkpt lat="46.88213" lon="8.5455">
        <ele>1493</ele>
        <time>2021-08-11T08:24:43.378Z</time>
      </trkpt>
      <trkpt lat="46.88214" lon="8.54549">
        <ele>1493</ele>
        <time>2021-08-11T08:24:44.378Z</time>
      </trkpt>
      <trkpt lat="46.88215" lon="8.54549">
        <ele>1493</ele>
        <time>2021-08-11T08:24:45.378Z</time>
      </trkpt>
      <trkpt lat="46.88216" lon="8.54549">
        <ele>1493</ele>
        <time>2021-08-11T08:24:46.378Z</time>
      </trkpt>
      <trkpt lat="46.88217" lon="8.54549">
        <ele>1493</ele>
        <time>2021-08-11T08:24:47.378Z</time>
      </trkpt>
      <trkpt lat="46.88217" lon="8.54549">
        <ele>1493</ele>
        <time>2021-08-11T08:24:48.379Z</time>
      </trkpt>
      <trkpt lat="46.88219" lon="8.54549">
        <ele>1493</ele>
        <time>2021-08-11T08:24:49.378Z</time>
      </trkpt>
      <trkpt lat="46.88221" lon="8.54549">
        <ele>1493</ele>
        <time>2021-08-11T08:24:50.378Z</time>
      </trkpt>
      <trkpt lat="46.88221" lon="8.54549">
        <ele>1493</ele>
        <time>2021-08-11T08:24:51.378Z</time>
      </trkpt>
      <trkpt lat="46.88223" lon="8.54549">
        <ele>1494</ele>
        <time>2021-08-11T08:24:52.378Z</time>
      </trkpt>
      <trkpt lat="46.88225" lon="8.54549">
        <ele>1494</ele>
        <time>2021-08-11T08:24:53.379Z</time>
      </trkpt>
      <trkpt lat="46.88225" lon="8.54549">
        <ele>1494</ele>
        <time>2021-08-11T08:24:54.379Z</time>
      </trkpt>
      <trkpt lat="46.88227" lon="8.54549">
        <ele>1494</ele>
        <time>2021-08-11T08:24:55.378Z</time>
      </trkpt>
      <trkpt lat="46.88228" lon="8.54549">
        <ele>1494</ele>
        <time>2021-08-11T08:24:56.378Z</time>
      </trkpt>
      <trkpt lat="46.88229" lon="8.54549">
        <ele>1494</ele>
        <time>2021-08-11T08:24:57.378Z</time>
      </trkpt>
      <trkpt lat="46.8823" lon="8.54549">
        <ele>1494</ele>
        <time>2021-08-11T08:24:58.378Z</time>
      </trkpt>
      <trkpt lat="46.8823" lon="8.54548">
        <ele>1495</ele>
        <time>2021-08-11T08:24:59.378Z</time>
      </trkpt>
      <trkpt lat="46.8823" lon="8.54548">
        <ele>1495</ele>
        <time>2021-08-11T08:25:00.378Z</time>
      </trkpt>
      <trkpt lat="46.8823" lon="8.54548">
        <ele>1495</ele>
        <time>2021-08-11T08:25:01.378Z</time>
      </trkpt>
      <trkpt lat="46.8823" lon="8.54543">
        <ele>1499</ele>
        <time>2021-08-11T08:25:02.379Z</time>
      </trkpt>
      <trkpt lat="46.8823" lon="8.54542">
        <ele>1499</ele>
        <time>2021-08-11T08:25:03.378Z</time>
      </trkpt>
      <trkpt lat="46.88231" lon="8.54543">
        <ele>1499</ele>
        <time>2021-08-11T08:25:04.378Z</time>
      </trkpt>
      <trkpt lat="46.88231" lon="8.54544">
        <ele>1499</ele>
        <time>2021-08-11T08:25:05.378Z</time>
      </trkpt>
      <trkpt lat="46.88232" lon="8.54545">
        <ele>1499</ele>
        <time>2021-08-11T08:25:06.378Z</time>
      </trkpt>
      <trkpt lat="46.88233" lon="8.54546">
        <ele>1500</ele>
        <time>2021-08-11T08:25:07.378Z</time>
      </trkpt>
      <trkpt lat="46.88234" lon="8.54547">
        <ele>1500</ele>
        <time>2021-08-11T08:25:08.378Z</time>
      </trkpt>
      <trkpt lat="46.88235" lon="8.54548">
        <ele>1500</ele>
        <time>2021-08-11T08:25:09.378Z</time>
      </trkpt>
      <trkpt lat="46.88237" lon="8.54548">
        <ele>1500</ele>
        <time>2021-08-11T08:25:10.378Z</time>
      </trkpt>
      <trkpt lat="46.88238" lon="8.54549">
        <ele>1500</ele>
        <time>2021-08-11T08:25:11.378Z</time>
      </trkpt>
      <trkpt lat="46.88239" lon="8.54549">
        <ele>1501</ele>
        <time>2021-08-11T08:25:12.379Z</time>
      </trkpt>
      <trkpt lat="46.8824" lon="8.5455">
        <ele>1501</ele>
        <time>2021-08-11T08:25:13.378Z</time>
      </trkpt>
      <trkpt lat="46.8824" lon="8.5455">
        <ele>1501</ele>
        <time>2021-08-11T08:25:14.379Z</time>
      </trkpt>
      <trkpt lat="46.88241" lon="8.5455">
        <ele>1501</ele>
        <time>2021-08-11T08:25:15.378Z</time>
      </trkpt>
      <trkpt lat="46.88243" lon="8.54551">
        <ele>1501</ele>
        <time>2021-08-11T08:25:16.379Z</time>
      </trkpt>
      <trkpt lat="46.88244" lon="8.54552">
        <ele>1501</ele>
        <time>2021-08-11T08:25:17.379Z</time>
      </trkpt>
      <trkpt lat="46.88245" lon="8.54553">
        <ele>1501</ele>
        <time>2021-08-11T08:25:18.379Z</time>
      </trkpt>
      <trkpt lat="46.88245" lon="8.54554">
        <ele>1501</ele>
        <time>2021-08-11T08:25:19.379Z</time>
      </trkpt>
      <trkpt lat="46.88246" lon="8.54555">
        <ele>1500</ele>
        <time>2021-08-11T08:25:20.378Z</time>
      </trkpt>
      <trkpt lat="46.88247" lon="8.54556">
        <ele>1500</ele>
        <time>2021-08-11T08:25:21.379Z</time>
      </trkpt>
      <trkpt lat="46.88248" lon="8.54556">
        <ele>1500</ele>
        <time>2021-08-11T08:25:22.379Z</time>
      </trkpt>
      <trkpt lat="46.88249" lon="8.54557">
        <ele>1499</ele>
        <time>2021-08-11T08:25:23.379Z</time>
      </trkpt>
      <trkpt lat="46.8825" lon="8.54558">
        <ele>1499</ele>
        <time>2021-08-11T08:25:24.378Z</time>
      </trkpt>
      <trkpt lat="46.88251" lon="8.54558">
        <ele>1498</ele>
        <time>2021-08-11T08:25:25.379Z</time>
      </trkpt>
      <trkpt lat="46.88251" lon="8.54559">
        <ele>1498</ele>
        <time>2021-08-11T08:25:26.379Z</time>
      </trkpt>
      <trkpt lat="46.88252" lon="8.54561">
        <ele>1497</ele>
        <time>2021-08-11T08:25:27.379Z</time>
      </trkpt>
      <trkpt lat="46.88253" lon="8.54562">
        <ele>1497</ele>
        <time>2021-08-11T08:25:28.379Z</time>
      </trkpt>
      <trkpt lat="46.88253" lon="8.54563">
        <ele>1497</ele>
        <time>2021-08-11T08:25:29.378Z</time>
      </trkpt>
      <trkpt lat="46.88254" lon="8.54564">
        <ele>1496</ele>
        <time>2021-08-11T08:25:30.379Z</time>
      </trkpt>
      <trkpt lat="46.88255" lon="8.54565">
        <ele>1496</ele>
        <time>2021-08-11T08:25:31.379Z</time>
      </trkpt>
      <trkpt lat="46.88255" lon="8.54567">
        <ele>1496</ele>
        <time>2021-08-11T08:25:32.379Z</time>
      </trkpt>
      <trkpt lat="46.88256" lon="8.54568">
        <ele>1495</ele>
        <time>2021-08-11T08:25:33.378Z</time>
      </trkpt>
      <trkpt lat="46.88257" lon="8.54568">
        <ele>1495</ele>
        <time>2021-08-11T08:25:34.379Z</time>
      </trkpt>
      <trkpt lat="46.88258" lon="8.54569">
        <ele>1495</ele>
        <time>2021-08-11T08:25:35.379Z</time>
      </trkpt>
      <trkpt lat="46.88259" lon="8.5457">
        <ele>1495</ele>
        <time>2021-08-11T08:25:36.379Z</time>
      </trkpt>
      <trkpt lat="46.8826" lon="8.54571">
        <ele>1495</ele>
        <time>2021-08-11T08:25:37.379Z</time>
      </trkpt>
      <trkpt lat="46.8826" lon="8.54571">
        <ele>1495</ele>
        <time>2021-08-11T08:25:38.378Z</time>
      </trkpt>
      <trkpt lat="46.8826" lon="8.54571">
        <ele>1495</ele>
        <time>2021-08-11T08:25:39.379Z</time>
      </trkpt>
      <trkpt lat="46.8826" lon="8.54571">
        <ele>1495</ele>
        <time>2021-08-11T08:25:40.379Z</time>
      </trkpt>
      <trkpt lat="46.88259" lon="8.54575">
        <ele>1496</ele>
        <time>2021-08-11T08:25:41.379Z</time>
      </trkpt>
      <trkpt lat="46.8826" lon="8.54576">
        <ele>1496</ele>
        <time>2021-08-11T08:25:42.378Z</time>
      </trkpt>
      <trkpt lat="46.88261" lon="8.54576">
        <ele>1496</ele>
        <time>2021-08-11T08:25:43.378Z</time>
      </trkpt>
      <trkpt lat="46.88262" lon="8.54576">
        <ele>1496</ele>
        <time>2021-08-11T08:25:44.378Z</time>
      </trkpt>
      <trkpt lat="46.88262" lon="8.54576">
        <ele>1496</ele>
        <time>2021-08-11T08:25:45.379Z</time>
      </trkpt>
      <trkpt lat="46.88263" lon="8.54576">
        <ele>1496</ele>
        <time>2021-08-11T08:25:46.378Z</time>
      </trkpt>
      <trkpt lat="46.88263" lon="8.54576">
        <ele>1496</ele>
        <time>2021-08-11T08:25:47.378Z</time>
      </trkpt>
      <trkpt lat="46.88263" lon="8.54576">
        <ele>1495</ele>
        <time>2021-08-11T08:25:48.379Z</time>
      </trkpt>
      <trkpt lat="46.88264" lon="8.54577">
        <ele>1495</ele>
        <time>2021-08-11T08:25:49.379Z</time>
      </trkpt>
      <trkpt lat="46.88265" lon="8.54578">
        <ele>1495</ele>
        <time>2021-08-11T08:25:50.378Z</time>
      </trkpt>
      <trkpt lat="46.88266" lon="8.54579">
        <ele>1495</ele>
        <time>2021-08-11T08:25:51.378Z</time>
      </trkpt>
      <trkpt lat="46.88267" lon="8.5458">
        <ele>1494</ele>
        <time>2021-08-11T08:25:52.379Z</time>
      </trkpt>
      <trkpt lat="46.88268" lon="8.5458">
        <ele>1494</ele>
        <time>2021-08-11T08:25:53.379Z</time>
      </trkpt>
      <trkpt lat="46.88269" lon="8.54581">
        <ele>1495</ele>
        <time>2021-08-11T08:25:54.379Z</time>
      </trkpt>
      <trkpt lat="46.8827" lon="8.54581">
        <ele>1494</ele>
        <time>2021-08-11T08:25:55.378Z</time>
      </trkpt>
      <trkpt lat="46.88271" lon="8.54581">
        <ele>1494</ele>
        <time>2021-08-11T08:25:56.379Z</time>
      </trkpt>
      <trkpt lat="46.88272" lon="8.54582">
        <ele>1494</ele>
        <time>2021-08-11T08:25:57.379Z</time>
      </trkpt>
      <trkpt lat="46.88273" lon="8.54582">
        <ele>1494</ele>
        <time>2021-08-11T08:25:58.379Z</time>
      </trkpt>
      <trkpt lat="46.88274" lon="8.54583">
        <ele>1494</ele>
        <time>2021-08-11T08:25:59.379Z</time>
      </trkpt>
      <trkpt lat="46.88275" lon="8.54583">
        <ele>1493</ele>
        <time>2021-08-11T08:26:00.378Z</time>
      </trkpt>
      <trkpt lat="46.88276" lon="8.54584">
        <ele>1493</ele>
        <time>2021-08-11T08:26:01.379Z</time>
      </trkpt>
      <trkpt lat="46.88277" lon="8.54585">
        <ele>1493</ele>
        <time>2021-08-11T08:26:02.379Z</time>
      </trkpt>
      <trkpt lat="46.88278" lon="8.54586">
        <ele>1493</ele>
        <time>2021-08-11T08:26:03.379Z</time>
      </trkpt>
      <trkpt lat="46.88279" lon="8.54587">
        <ele>1493</ele>
        <time>2021-08-11T08:26:04.378Z</time>
      </trkpt>
      <trkpt lat="46.8828" lon="8.54587">
        <ele>1493</ele>
        <time>2021-08-11T08:26:05.379Z</time>
      </trkpt>
      <trkpt lat="46.88281" lon="8.54588">
        <ele>1493</ele>
        <time>2021-08-11T08:26:06.379Z</time>
      </trkpt>
      <trkpt lat="46.88282" lon="8.54588">
        <ele>1494</ele>
        <time>2021-08-11T08:26:07.379Z</time>
      </trkpt>
      <trkpt lat="46.88284" lon="8.54589">
        <ele>1494</ele>
        <time>2021-08-11T08:26:08.379Z</time>
      </trkpt>
      <trkpt lat="46.88285" lon="8.54589">
        <ele>1495</ele>
        <time>2021-08-11T08:26:09.378Z</time>
      </trkpt>
      <trkpt lat="46.88286" lon="8.5459">
        <ele>1495</ele>
        <time>2021-08-11T08:26:10.379Z</time>
      </trkpt>
      <trkpt lat="46.88287" lon="8.5459">
        <ele>1494</ele>
        <time>2021-08-11T08:26:11.379Z</time>
      </trkpt>
      <trkpt lat="46.88288" lon="8.54591">
        <ele>1494</ele>
        <time>2021-08-11T08:26:12.379Z</time>
      </trkpt>
      <trkpt lat="46.88289" lon="8.54592">
        <ele>1494</ele>
        <time>2021-08-11T08:26:13.378Z</time>
      </trkpt>
      <trkpt lat="46.8829" lon="8.54592">
        <ele>1494</ele>
        <time>2021-08-11T08:26:14.379Z</time>
      </trkpt>
      <trkpt lat="46.88291" lon="8.54593">
        <ele>1493</ele>
        <time>2021-08-11T08:26:15.378Z</time>
      </trkpt>
      <trkpt lat="46.88292" lon="8.54593">
        <ele>1493</ele>
        <time>2021-08-11T08:26:16.379Z</time>
      </trkpt>
      <trkpt lat="46.88294" lon="8.54594">
        <ele>1494</ele>
        <time>2021-08-11T08:26:17.379Z</time>
      </trkpt>
      <trkpt lat="46.88295" lon="8.54594">
        <ele>1494</ele>
        <time>2021-08-11T08:26:18.379Z</time>
      </trkpt>
      <trkpt lat="46.88296" lon="8.54596">
        <ele>1494</ele>
        <time>2021-08-11T08:26:19.379Z</time>
      </trkpt>
      <trkpt lat="46.88296" lon="8.54597">
        <ele>1495</ele>
        <time>2021-08-11T08:26:20.379Z</time>
      </trkpt>
      <trkpt lat="46.88297" lon="8.54598">
        <ele>1495</ele>
        <time>2021-08-11T08:26:21.379Z</time>
      </trkpt>
      <trkpt lat="46.88298" lon="8.54599">
        <ele>1495</ele>
        <time>2021-08-11T08:26:22.379Z</time>
      </trkpt>
      <trkpt lat="46.88299" lon="8.54599">
        <ele>1495</ele>
        <time>2021-08-11T08:26:23.378Z</time>
      </trkpt>
      <trkpt lat="46.883" lon="8.546">
        <ele>1494</ele>
        <time>2021-08-11T08:26:24.378Z</time>
      </trkpt>
      <trkpt lat="46.88301" lon="8.546">
        <ele>1494</ele>
        <time>2021-08-11T08:26:25.378Z</time>
      </trkpt>
      <trkpt lat="46.88302" lon="8.54601">
        <ele>1494</ele>
        <time>2021-08-11T08:26:26.378Z</time>
      </trkpt>
      <trkpt lat="46.88303" lon="8.54601">
        <ele>1494</ele>
        <time>2021-08-11T08:26:27.378Z</time>
      </trkpt>
      <trkpt lat="46.88304" lon="8.54601">
        <ele>1494</ele>
        <time>2021-08-11T08:26:28.379Z</time>
      </trkpt>
      <trkpt lat="46.88305" lon="8.54601">
        <ele>1494</ele>
        <time>2021-08-11T08:26:29.378Z</time>
      </trkpt>
      <trkpt lat="46.88306" lon="8.54601">
        <ele>1494</ele>
        <time>2021-08-11T08:26:30.378Z</time>
      </trkpt>
      <trkpt lat="46.88307" lon="8.54601">
        <ele>1495</ele>
        <time>2021-08-11T08:26:31.378Z</time>
      </trkpt>
      <trkpt lat="46.88308" lon="8.54601">
        <ele>1495</ele>
        <time>2021-08-11T08:26:32.379Z</time>
      </trkpt>
      <trkpt lat="46.88309" lon="8.54601">
        <ele>1495</ele>
        <time>2021-08-11T08:26:33.378Z</time>
      </trkpt>
      <trkpt lat="46.8831" lon="8.54601">
        <ele>1495</ele>
        <time>2021-08-11T08:26:34.378Z</time>
      </trkpt>
      <trkpt lat="46.8831" lon="8.54601">
        <ele>1495</ele>
        <time>2021-08-11T08:26:35.379Z</time>
      </trkpt>
      <trkpt lat="46.88311" lon="8.54601">
        <ele>1495</ele>
        <time>2021-08-11T08:26:36.379Z</time>
      </trkpt>
      <trkpt lat="46.88312" lon="8.54601">
        <ele>1495</ele>
        <time>2021-08-11T08:26:37.379Z</time>
      </trkpt>
      <trkpt lat="46.88313" lon="8.54601">
        <ele>1495</ele>
        <time>2021-08-11T08:26:38.378Z</time>
      </trkpt>
      <trkpt lat="46.88314" lon="8.546">
        <ele>1495</ele>
        <time>2021-08-11T08:26:39.379Z</time>
      </trkpt>
      <trkpt lat="46.88315" lon="8.546">
        <ele>1495</ele>
        <time>2021-08-11T08:26:40.379Z</time>
      </trkpt>
      <trkpt lat="46.88316" lon="8.546">
        <ele>1494</ele>
        <time>2021-08-11T08:26:41.379Z</time>
      </trkpt>
      <trkpt lat="46.88317" lon="8.54599">
        <ele>1494</ele>
        <time>2021-08-11T08:26:42.378Z</time>
      </trkpt>
      <trkpt lat="46.88318" lon="8.54599">
        <ele>1494</ele>
        <time>2021-08-11T08:26:43.379Z</time>
      </trkpt>
      <trkpt lat="46.88318" lon="8.54598">
        <ele>1494</ele>
        <time>2021-08-11T08:26:44.378Z</time>
      </trkpt>
      <trkpt lat="46.88319" lon="8.54598">
        <ele>1493</ele>
        <time>2021-08-11T08:26:45.379Z</time>
      </trkpt>
      <trkpt lat="46.8832" lon="8.54597">
        <ele>1493</ele>
        <time>2021-08-11T08:26:46.378Z</time>
      </trkpt>
      <trkpt lat="46.88321" lon="8.54597">
        <ele>1493</ele>
        <time>2021-08-11T08:26:47.379Z</time>
      </trkpt>
      <trkpt lat="46.88322" lon="8.54596">
        <ele>1492</ele>
        <time>2021-08-11T08:26:48.378Z</time>
      </trkpt>
      <trkpt lat="46.88323" lon="8.54596">
        <ele>1492</ele>
        <time>2021-08-11T08:26:49.379Z</time>
      </trkpt>
      <trkpt lat="46.88323" lon="8.54595">
        <ele>1492</ele>
        <time>2021-08-11T08:26:50.379Z</time>
      </trkpt>
      <trkpt lat="46.88324" lon="8.54594">
        <ele>1492</ele>
        <time>2021-08-11T08:26:51.379Z</time>
      </trkpt>
      <trkpt lat="46.88324" lon="8.54593">
        <ele>1492</ele>
        <time>2021-08-11T08:26:52.379Z</time>
      </trkpt>
      <trkpt lat="46.88324" lon="8.54592">
        <ele>1492</ele>
        <time>2021-08-11T08:26:53.379Z</time>
      </trkpt>
      <trkpt lat="46.88325" lon="8.54591">
        <ele>1492</ele>
        <time>2021-08-11T08:26:54.378Z</time>
      </trkpt>
      <trkpt lat="46.88324" lon="8.5459">
        <ele>1492</ele>
        <time>2021-08-11T08:26:55.378Z</time>
      </trkpt>
      <trkpt lat="46.88324" lon="8.54589">
        <ele>1492</ele>
        <time>2021-08-11T08:26:56.378Z</time>
      </trkpt>
      <trkpt lat="46.88324" lon="8.54587">
        <ele>1492</ele>
        <time>2021-08-11T08:26:57.378Z</time>
      </trkpt>
      <trkpt lat="46.88323" lon="8.54586">
        <ele>1492</ele>
        <time>2021-08-11T08:26:58.379Z</time>
      </trkpt>
      <trkpt lat="46.88323" lon="8.54585">
        <ele>1493</ele>
        <time>2021-08-11T08:26:59.379Z</time>
      </trkpt>
      <trkpt lat="46.88322" lon="8.54585">
        <ele>1493</ele>
        <time>2021-08-11T08:27:00.379Z</time>
      </trkpt>
      <trkpt lat="46.88321" lon="8.54584">
        <ele>1493</ele>
        <time>2021-08-11T08:27:01.379Z</time>
      </trkpt>
      <trkpt lat="46.88321" lon="8.54583">
        <ele>1494</ele>
        <time>2021-08-11T08:27:02.379Z</time>
      </trkpt>
      <trkpt lat="46.8832" lon="8.54582">
        <ele>1494</ele>
        <time>2021-08-11T08:27:03.379Z</time>
      </trkpt>
      <trkpt lat="46.88319" lon="8.54581">
        <ele>1494</ele>
        <time>2021-08-11T08:27:04.379Z</time>
      </trkpt>
      <trkpt lat="46.88318" lon="8.54581">
        <ele>1494</ele>
        <time>2021-08-11T08:27:05.379Z</time>
      </trkpt>
      <trkpt lat="46.88317" lon="8.5458">
        <ele>1495</ele>
        <time>2021-08-11T08:27:06.379Z</time>
      </trkpt>
      <trkpt lat="46.88317" lon="8.5458">
        <ele>1495</ele>
        <time>2021-08-11T08:27:07.379Z</time>
      </trkpt>
      <trkpt lat="46.88316" lon="8.5458">
        <ele>1496</ele>
        <time>2021-08-11T08:27:08.379Z</time>
      </trkpt>
      <trkpt lat="46.88315" lon="8.54579">
        <ele>1497</ele>
        <time>2021-08-11T08:27:09.379Z</time>
      </trkpt>
      <trkpt lat="46.88315" lon="8.54579">
        <ele>1497</ele>
        <time>2021-08-11T08:27:10.379Z</time>
      </trkpt>
      <trkpt lat="46.88314" lon="8.54578">
        <ele>1498</ele>
        <time>2021-08-11T08:27:11.379Z</time>
      </trkpt>
      <trkpt lat="46.88313" lon="8.54577">
        <ele>1498</ele>
        <time>2021-08-11T08:27:12.379Z</time>
      </trkpt>
      <trkpt lat="46.88313" lon="8.54577">
        <ele>1499</ele>
        <time>2021-08-11T08:27:13.379Z</time>
      </trkpt>
      <trkpt lat="46.88312" lon="8.54576">
        <ele>1499</ele>
        <time>2021-08-11T08:27:14.379Z</time>
      </trkpt>
      <trkpt lat="46.88312" lon="8.54576">
        <ele>1500</ele>
        <time>2021-08-11T08:27:15.378Z</time>
      </trkpt>
      <trkpt lat="46.88311" lon="8.54575">
        <ele>1500</ele>
        <time>2021-08-11T08:27:16.378Z</time>
      </trkpt>
      <trkpt lat="46.88311" lon="8.54575">
        <ele>1500</ele>
        <time>2021-08-11T08:27:17.379Z</time>
      </trkpt>
      <trkpt lat="46.8831" lon="8.54574">
        <ele>1500</ele>
        <time>2021-08-11T08:27:18.378Z</time>
      </trkpt>
      <trkpt lat="46.8831" lon="8.54574">
        <ele>1500</ele>
        <time>2021-08-11T08:27:19.379Z</time>
      </trkpt>
      <trkpt lat="46.8831" lon="8.54574">
        <ele>1500</ele>
        <time>2021-08-11T08:27:20.379Z</time>
      </trkpt>
      <trkpt lat="46.88309" lon="8.54574">
        <ele>1501</ele>
        <time>2021-08-11T08:27:21.379Z</time>
      </trkpt>
      <trkpt lat="46.88308" lon="8.54574">
        <ele>1501</ele>
        <time>2021-08-11T08:27:22.378Z</time>
      </trkpt>
      <trkpt lat="46.88308" lon="8.54573">
        <ele>1501</ele>
        <time>2021-08-11T08:27:23.379Z</time>
      </trkpt>
      <trkpt lat="46.88307" lon="8.54573">
        <ele>1501</ele>
        <time>2021-08-11T08:27:24.379Z</time>
      </trkpt>
      <trkpt lat="46.88307" lon="8.54573">
        <ele>1501</ele>
        <time>2021-08-11T08:27:25.379Z</time>
      </trkpt>
      <trkpt lat="46.88306" lon="8.54572">
        <ele>1501</ele>
        <time>2021-08-11T08:27:26.378Z</time>
      </trkpt>
      <trkpt lat="46.88305" lon="8.54572">
        <ele>1501</ele>
        <time>2021-08-11T08:27:27.379Z</time>
      </trkpt>
      <trkpt lat="46.88305" lon="8.54571">
        <ele>1501</ele>
        <time>2021-08-11T08:27:28.379Z</time>
      </trkpt>
      <trkpt lat="46.88304" lon="8.5457">
        <ele>1501</ele>
        <time>2021-08-11T08:27:29.378Z</time>
      </trkpt>
      <trkpt lat="46.88304" lon="8.5457">
        <ele>1502</ele>
        <time>2021-08-11T08:27:30.379Z</time>
      </trkpt>
      <trkpt lat="46.88303" lon="8.54569">
        <ele>1502</ele>
        <time>2021-08-11T08:27:31.379Z</time>
      </trkpt>
      <trkpt lat="46.88303" lon="8.54568">
        <ele>1502</ele>
        <time>2021-08-11T08:27:32.379Z</time>
      </trkpt>
      <trkpt lat="46.88303" lon="8.54568">
        <ele>1502</ele>
        <time>2021-08-11T08:27:33.379Z</time>
      </trkpt>
      <trkpt lat="46.88302" lon="8.54567">
        <ele>1503</ele>
        <time>2021-08-11T08:27:34.378Z</time>
      </trkpt>
      <trkpt lat="46.88302" lon="8.54566">
        <ele>1503</ele>
        <time>2021-08-11T08:27:35.379Z</time>
      </trkpt>
      <trkpt lat="46.88302" lon="8.54565">
        <ele>1503</ele>
        <time>2021-08-11T08:27:36.379Z</time>
      </trkpt>
      <trkpt lat="46.88302" lon="8.54564">
        <ele>1503</ele>
        <time>2021-08-11T08:27:37.379Z</time>
      </trkpt>
      <trkpt lat="46.88301" lon="8.54563">
        <ele>1503</ele>
        <time>2021-08-11T08:27:38.379Z</time>
      </trkpt>
      <trkpt lat="46.88301" lon="8.54562">
        <ele>1503</ele>
        <time>2021-08-11T08:27:39.379Z</time>
      </trkpt>
      <trkpt lat="46.88301" lon="8.54561">
        <ele>1504</ele>
        <time>2021-08-11T08:27:40.379Z</time>
      </trkpt>
      <trkpt lat="46.883" lon="8.5456">
        <ele>1504</ele>
        <time>2021-08-11T08:27:41.379Z</time>
      </trkpt>
      <trkpt lat="46.883" lon="8.54559">
        <ele>1504</ele>
        <time>2021-08-11T08:27:42.379Z</time>
      </trkpt>
      <trkpt lat="46.88299" lon="8.54558">
        <ele>1505</ele>
        <time>2021-08-11T08:27:43.379Z</time>
      </trkpt>
      <trkpt lat="46.88299" lon="8.54557">
        <ele>1505</ele>
        <time>2021-08-11T08:27:44.379Z</time>
      </trkpt>
      <trkpt lat="46.88299" lon="8.54556">
        <ele>1505</ele>
        <time>2021-08-11T08:27:45.379Z</time>
      </trkpt>
      <trkpt lat="46.88299" lon="8.54555">
        <ele>1505</ele>
        <time>2021-08-11T08:27:46.379Z</time>
      </trkpt>
      <trkpt lat="46.883" lon="8.54554">
        <ele>1505</ele>
        <time>2021-08-11T08:27:47.378Z</time>
      </trkpt>
      <trkpt lat="46.88299" lon="8.54553">
        <ele>1505</ele>
        <time>2021-08-11T08:27:48.378Z</time>
      </trkpt>
      <trkpt lat="46.88299" lon="8.54553">
        <ele>1505</ele>
        <time>2021-08-11T08:27:49.379Z</time>
      </trkpt>
      <trkpt lat="46.88299" lon="8.54552">
        <ele>1505</ele>
        <time>2021-08-11T08:27:50.379Z</time>
      </trkpt>
      <trkpt lat="46.88299" lon="8.54551">
        <ele>1505</ele>
        <time>2021-08-11T08:27:51.379Z</time>
      </trkpt>
      <trkpt lat="46.88299" lon="8.5455">
        <ele>1505</ele>
        <time>2021-08-11T08:27:52.378Z</time>
      </trkpt>
      <trkpt lat="46.88298" lon="8.54549">
        <ele>1505</ele>
        <time>2021-08-11T08:27:53.379Z</time>
      </trkpt>
      <trkpt lat="46.88298" lon="8.54548">
        <ele>1506</ele>
        <time>2021-08-11T08:27:54.379Z</time>
      </trkpt>
      <trkpt lat="46.88298" lon="8.54547">
        <ele>1506</ele>
        <time>2021-08-11T08:27:55.378Z</time>
      </trkpt>
      <trkpt lat="46.88298" lon="8.54547">
        <ele>1506</ele>
        <time>2021-08-11T08:27:56.378Z</time>
      </trkpt>
      <trkpt lat="46.88298" lon="8.54546">
        <ele>1507</ele>
        <time>2021-08-11T08:27:57.378Z</time>
      </trkpt>
      <trkpt lat="46.88297" lon="8.54545">
        <ele>1507</ele>
        <time>2021-08-11T08:27:58.379Z</time>
      </trkpt>
      <trkpt lat="46.88297" lon="8.54544">
        <ele>1507</ele>
        <time>2021-08-11T08:27:59.379Z</time>
      </trkpt>
      <trkpt lat="46.88297" lon="8.54542">
        <ele>1507</ele>
        <time>2021-08-11T08:28:00.379Z</time>
      </trkpt>
      <trkpt lat="46.88297" lon="8.54541">
        <ele>1507</ele>
        <time>2021-08-11T08:28:01.378Z</time>
      </trkpt>
      <trkpt lat="46.88297" lon="8.5454">
        <ele>1507</ele>
        <time>2021-08-11T08:28:02.378Z</time>
      </trkpt>
      <trkpt lat="46.88297" lon="8.5454">
        <ele>1507</ele>
        <time>2021-08-11T08:28:03.379Z</time>
      </trkpt>
      <trkpt lat="46.88297" lon="8.54539">
        <ele>1508</ele>
        <time>2021-08-11T08:28:04.379Z</time>
      </trkpt>
      <trkpt lat="46.88297" lon="8.54538">
        <ele>1509</ele>
        <time>2021-08-11T08:28:05.379Z</time>
      </trkpt>
      <trkpt lat="46.88298" lon="8.54538">
        <ele>1510</ele>
        <time>2021-08-11T08:28:06.379Z</time>
      </trkpt>
      <trkpt lat="46.88298" lon="8.54537">
        <ele>1510</ele>
        <time>2021-08-11T08:28:07.378Z</time>
      </trkpt>
      <trkpt lat="46.88298" lon="8.54536">
        <ele>1511</ele>
        <time>2021-08-11T08:28:08.379Z</time>
      </trkpt>
      <trkpt lat="46.88297" lon="8.54536">
        <ele>1511</ele>
        <time>2021-08-11T08:28:09.379Z</time>
      </trkpt>
      <trkpt lat="46.88297" lon="8.54535">
        <ele>1511</ele>
        <time>2021-08-11T08:28:10.379Z</time>
      </trkpt>
      <trkpt lat="46.88296" lon="8.54534">
        <ele>1511</ele>
        <time>2021-08-11T08:28:11.379Z</time>
      </trkpt>
      <trkpt lat="46.88296" lon="8.54533">
        <ele>1511</ele>
        <time>2021-08-11T08:28:12.378Z</time>
      </trkpt>
      <trkpt lat="46.88295" lon="8.54532">
        <ele>1511</ele>
        <time>2021-08-11T08:28:13.378Z</time>
      </trkpt>
      <trkpt lat="46.88295" lon="8.54532">
        <ele>1512</ele>
        <time>2021-08-11T08:28:14.379Z</time>
      </trkpt>
      <trkpt lat="46.88294" lon="8.54531">
        <ele>1512</ele>
        <time>2021-08-11T08:28:15.379Z</time>
      </trkpt>
      <trkpt lat="46.88294" lon="8.5453">
        <ele>1512</ele>
        <time>2021-08-11T08:28:16.379Z</time>
      </trkpt>
      <trkpt lat="46.88294" lon="8.5453">
        <ele>1512</ele>
        <time>2021-08-11T08:28:17.378Z</time>
      </trkpt>
      <trkpt lat="46.88295" lon="8.5453">
        <ele>1513</ele>
        <time>2021-08-11T08:28:18.378Z</time>
      </trkpt>
      <trkpt lat="46.88294" lon="8.54529">
        <ele>1513</ele>
        <time>2021-08-11T08:28:19.379Z</time>
      </trkpt>
      <trkpt lat="46.88295" lon="8.54529">
        <ele>1513</ele>
        <time>2021-08-11T08:28:20.379Z</time>
      </trkpt>
      <trkpt lat="46.88295" lon="8.54528">
        <ele>1513</ele>
        <time>2021-08-11T08:28:21.379Z</time>
      </trkpt>
      <trkpt lat="46.88295" lon="8.54527">
        <ele>1513</ele>
        <time>2021-08-11T08:28:22.378Z</time>
      </trkpt>
      <trkpt lat="46.88295" lon="8.54526">
        <ele>1513</ele>
        <time>2021-08-11T08:28:23.378Z</time>
      </trkpt>
      <trkpt lat="46.88295" lon="8.54525">
        <ele>1513</ele>
        <time>2021-08-11T08:28:24.379Z</time>
      </trkpt>
      <trkpt lat="46.88296" lon="8.54525">
        <ele>1513</ele>
        <time>2021-08-11T08:28:25.379Z</time>
      </trkpt>
      <trkpt lat="46.88296" lon="8.54524">
        <ele>1513</ele>
        <time>2021-08-11T08:28:26.379Z</time>
      </trkpt>
      <trkpt lat="46.88296" lon="8.54523">
        <ele>1513</ele>
        <time>2021-08-11T08:28:27.379Z</time>
      </trkpt>
      <trkpt lat="46.88296" lon="8.54522">
        <ele>1513</ele>
        <time>2021-08-11T08:28:28.379Z</time>
      </trkpt>
      <trkpt lat="46.88296" lon="8.54521">
        <ele>1513</ele>
        <time>2021-08-11T08:28:29.379Z</time>
      </trkpt>
      <trkpt lat="46.88296" lon="8.5452">
        <ele>1513</ele>
        <time>2021-08-11T08:28:30.379Z</time>
      </trkpt>
      <trkpt lat="46.88296" lon="8.5452">
        <ele>1513</ele>
        <time>2021-08-11T08:28:31.379Z</time>
      </trkpt>
      <trkpt lat="46.88296" lon="8.54519">
        <ele>1513</ele>
        <time>2021-08-11T08:28:32.379Z</time>
      </trkpt>
      <trkpt lat="46.88296" lon="8.54518">
        <ele>1513</ele>
        <time>2021-08-11T08:28:33.378Z</time>
      </trkpt>
      <trkpt lat="46.88296" lon="8.54518">
        <ele>1512</ele>
        <time>2021-08-11T08:28:34.379Z</time>
      </trkpt>
      <trkpt lat="46.88296" lon="8.54517">
        <ele>1512</ele>
        <time>2021-08-11T08:28:35.379Z</time>
      </trkpt>
      <trkpt lat="46.88296" lon="8.54517">
        <ele>1511</ele>
        <time>2021-08-11T08:28:36.379Z</time>
      </trkpt>
      <trkpt lat="46.88297" lon="8.54516">
        <ele>1511</ele>
        <time>2021-08-11T08:28:37.379Z</time>
      </trkpt>
      <trkpt lat="46.88297" lon="8.54516">
        <ele>1512</ele>
        <time>2021-08-11T08:28:38.379Z</time>
      </trkpt>
      <trkpt lat="46.88298" lon="8.54516">
        <ele>1512</ele>
        <time>2021-08-11T08:28:39.378Z</time>
      </trkpt>
      <trkpt lat="46.88299" lon="8.54516">
        <ele>1513</ele>
        <time>2021-08-11T08:28:40.379Z</time>
      </trkpt>
      <trkpt lat="46.883" lon="8.54516">
        <ele>1513</ele>
        <time>2021-08-11T08:28:41.378Z</time>
      </trkpt>
      <trkpt lat="46.883" lon="8.54516">
        <ele>1514</ele>
        <time>2021-08-11T08:28:42.379Z</time>
      </trkpt>
      <trkpt lat="46.88301" lon="8.54516">
        <ele>1514</ele>
        <time>2021-08-11T08:28:43.379Z</time>
      </trkpt>
      <trkpt lat="46.88302" lon="8.54516">
        <ele>1514</ele>
        <time>2021-08-11T08:28:44.379Z</time>
      </trkpt>
      <trkpt lat="46.88303" lon="8.54516">
        <ele>1514</ele>
        <time>2021-08-11T08:28:45.378Z</time>
      </trkpt>
      <trkpt lat="46.88303" lon="8.54516">
        <ele>1515</ele>
        <time>2021-08-11T08:28:46.379Z</time>
      </trkpt>
      <trkpt lat="46.88303" lon="8.54515">
        <ele>1515</ele>
        <time>2021-08-11T08:28:47.379Z</time>
      </trkpt>
      <trkpt lat="46.88304" lon="8.54514">
        <ele>1515</ele>
        <time>2021-08-11T08:28:48.378Z</time>
      </trkpt>
      <trkpt lat="46.88303" lon="8.54514">
        <ele>1515</ele>
        <time>2021-08-11T08:28:49.378Z</time>
      </trkpt>
      <trkpt lat="46.88303" lon="8.54513">
        <ele>1515</ele>
        <time>2021-08-11T08:28:50.379Z</time>
      </trkpt>
      <trkpt lat="46.88303" lon="8.54512">
        <ele>1515</ele>
        <time>2021-08-11T08:28:51.379Z</time>
      </trkpt>
      <trkpt lat="46.88302" lon="8.54511">
        <ele>1515</ele>
        <time>2021-08-11T08:28:52.379Z</time>
      </trkpt>
      <trkpt lat="46.88302" lon="8.5451">
        <ele>1515</ele>
        <time>2021-08-11T08:28:53.378Z</time>
      </trkpt>
      <trkpt lat="46.88301" lon="8.54509">
        <ele>1515</ele>
        <time>2021-08-11T08:28:54.378Z</time>
      </trkpt>
      <trkpt lat="46.883" lon="8.54509">
        <ele>1515</ele>
        <time>2021-08-11T08:28:55.378Z</time>
      </trkpt>
      <trkpt lat="46.883" lon="8.54508">
        <ele>1514</ele>
        <time>2021-08-11T08:28:56.379Z</time>
      </trkpt>
      <trkpt lat="46.883" lon="8.54507">
        <ele>1514</ele>
        <time>2021-08-11T08:28:57.378Z</time>
      </trkpt>
      <trkpt lat="46.88299" lon="8.54507">
        <ele>1515</ele>
        <time>2021-08-11T08:28:58.379Z</time>
      </trkpt>
      <trkpt lat="46.88299" lon="8.54506">
        <ele>1515</ele>
        <time>2021-08-11T08:28:59.379Z</time>
      </trkpt>
      <trkpt lat="46.88299" lon="8.54505">
        <ele>1516</ele>
        <time>2021-08-11T08:29:00.379Z</time>
      </trkpt>
      <trkpt lat="46.88299" lon="8.54505">
        <ele>1516</ele>
        <time>2021-08-11T08:29:01.378Z</time>
      </trkpt>
      <trkpt lat="46.88298" lon="8.54504">
        <ele>1517</ele>
        <time>2021-08-11T08:29:02.378Z</time>
      </trkpt>
      <trkpt lat="46.88298" lon="8.54504">
        <ele>1517</ele>
        <time>2021-08-11T08:29:03.379Z</time>
      </trkpt>
      <trkpt lat="46.88298" lon="8.54503">
        <ele>1516</ele>
        <time>2021-08-11T08:29:04.379Z</time>
      </trkpt>
      <trkpt lat="46.88297" lon="8.54502">
        <ele>1516</ele>
        <time>2021-08-11T08:29:05.379Z</time>
      </trkpt>
      <trkpt lat="46.88297" lon="8.54502">
        <ele>1516</ele>
        <time>2021-08-11T08:29:06.379Z</time>
      </trkpt>
      <trkpt lat="46.88297" lon="8.54501">
        <ele>1516</ele>
        <time>2021-08-11T08:29:07.379Z</time>
      </trkpt>
      <trkpt lat="46.88297" lon="8.54501">
        <ele>1516</ele>
        <time>2021-08-11T08:29:08.378Z</time>
      </trkpt>
      <trkpt lat="46.88296" lon="8.545">
        <ele>1516</ele>
        <time>2021-08-11T08:29:09.379Z</time>
      </trkpt>
      <trkpt lat="46.88296" lon="8.545">
        <ele>1516</ele>
        <time>2021-08-11T08:29:10.379Z</time>
      </trkpt>
      <trkpt lat="46.88296" lon="8.54499">
        <ele>1516</ele>
        <time>2021-08-11T08:29:11.379Z</time>
      </trkpt>
      <trkpt lat="46.88295" lon="8.54498">
        <ele>1517</ele>
        <time>2021-08-11T08:29:12.378Z</time>
      </trkpt>
      <trkpt lat="46.88295" lon="8.54498">
        <ele>1517</ele>
        <time>2021-08-11T08:29:13.378Z</time>
      </trkpt>
      <trkpt lat="46.88295" lon="8.54497">
        <ele>1517</ele>
        <time>2021-08-11T08:29:14.379Z</time>
      </trkpt>
      <trkpt lat="46.88295" lon="8.54496">
        <ele>1518</ele>
        <time>2021-08-11T08:29:15.379Z</time>
      </trkpt>
      <trkpt lat="46.88294" lon="8.54495">
        <ele>1518</ele>
        <time>2021-08-11T08:29:16.379Z</time>
      </trkpt>
      <trkpt lat="46.88294" lon="8.54494">
        <ele>1518</ele>
        <time>2021-08-11T08:29:17.378Z</time>
      </trkpt>
      <trkpt lat="46.88293" lon="8.54493">
        <ele>1519</ele>
        <time>2021-08-11T08:29:18.378Z</time>
      </trkpt>
      <trkpt lat="46.88293" lon="8.54491">
        <ele>1519</ele>
        <time>2021-08-11T08:29:19.379Z</time>
      </trkpt>
      <trkpt lat="46.88292" lon="8.54491">
        <ele>1520</ele>
        <time>2021-08-11T08:29:20.379Z</time>
      </trkpt>
      <trkpt lat="46.88292" lon="8.5449">
        <ele>1520</ele>
        <time>2021-08-11T08:29:21.379Z</time>
      </trkpt>
      <trkpt lat="46.88291" lon="8.54489">
        <ele>1521</ele>
        <time>2021-08-11T08:29:22.378Z</time>
      </trkpt>
      <trkpt lat="46.88291" lon="8.54488">
        <ele>1521</ele>
        <time>2021-08-11T08:29:23.379Z</time>
      </trkpt>
      <trkpt lat="46.8829" lon="8.54488">
        <ele>1522</ele>
        <time>2021-08-11T08:29:24.379Z</time>
      </trkpt>
      <trkpt lat="46.8829" lon="8.54487">
        <ele>1522</ele>
        <time>2021-08-11T08:29:25.379Z</time>
      </trkpt>
      <trkpt lat="46.8829" lon="8.54487">
        <ele>1522</ele>
        <time>2021-08-11T08:29:26.379Z</time>
      </trkpt>
      <trkpt lat="46.8829" lon="8.54486">
        <ele>1522</ele>
        <time>2021-08-11T08:29:27.378Z</time>
      </trkpt>
      <trkpt lat="46.88289" lon="8.54486">
        <ele>1522</ele>
        <time>2021-08-11T08:29:28.378Z</time>
      </trkpt>
      <trkpt lat="46.88289" lon="8.54485">
        <ele>1522</ele>
        <time>2021-08-11T08:29:29.378Z</time>
      </trkpt>
      <trkpt lat="46.88288" lon="8.54485">
        <ele>1522</ele>
        <time>2021-08-11T08:29:30.379Z</time>
      </trkpt>
      <trkpt lat="46.88288" lon="8.54484">
        <ele>1522</ele>
        <time>2021-08-11T08:29:31.379Z</time>
      </trkpt>
      <trkpt lat="46.88287" lon="8.54483">
        <ele>1522</ele>
        <time>2021-08-11T08:29:32.378Z</time>
      </trkpt>
      <trkpt lat="46.88287" lon="8.54483">
        <ele>1522</ele>
        <time>2021-08-11T08:29:33.378Z</time>
      </trkpt>
      <trkpt lat="46.88287" lon="8.54483">
        <ele>1522</ele>
        <time>2021-08-11T08:29:34.379Z</time>
      </trkpt>
      <trkpt lat="46.88287" lon="8.54482">
        <ele>1523</ele>
        <time>2021-08-11T08:29:35.378Z</time>
      </trkpt>
      <trkpt lat="46.88286" lon="8.54482">
        <ele>1523</ele>
        <time>2021-08-11T08:29:36.378Z</time>
      </trkpt>
      <trkpt lat="46.88286" lon="8.54481">
        <ele>1524</ele>
        <time>2021-08-11T08:29:37.378Z</time>
      </trkpt>
      <trkpt lat="46.88286" lon="8.5448">
        <ele>1524</ele>
        <time>2021-08-11T08:29:38.378Z</time>
      </trkpt>
      <trkpt lat="46.88285" lon="8.5448">
        <ele>1524</ele>
        <time>2021-08-11T08:29:39.378Z</time>
      </trkpt>
      <trkpt lat="46.88285" lon="8.54479">
        <ele>1524</ele>
        <time>2021-08-11T08:29:40.379Z</time>
      </trkpt>
      <trkpt lat="46.88285" lon="8.54479">
        <ele>1524</ele>
        <time>2021-08-11T08:29:41.379Z</time>
      </trkpt>
      <trkpt lat="46.88285" lon="8.54478">
        <ele>1525</ele>
        <time>2021-08-11T08:29:42.378Z</time>
      </trkpt>
      <trkpt lat="46.88284" lon="8.54478">
        <ele>1525</ele>
        <time>2021-08-11T08:29:43.378Z</time>
      </trkpt>
      <trkpt lat="46.88284" lon="8.54477">
        <ele>1525</ele>
        <time>2021-08-11T08:29:44.378Z</time>
      </trkpt>
      <trkpt lat="46.88283" lon="8.54477">
        <ele>1525</ele>
        <time>2021-08-11T08:29:45.379Z</time>
      </trkpt>
      <trkpt lat="46.88283" lon="8.54476">
        <ele>1525</ele>
        <time>2021-08-11T08:29:46.378Z</time>
      </trkpt>
      <trkpt lat="46.88283" lon="8.54476">
        <ele>1525</ele>
        <time>2021-08-11T08:29:47.378Z</time>
      </trkpt>
      <trkpt lat="46.88282" lon="8.54475">
        <ele>1525</ele>
        <time>2021-08-11T08:29:48.378Z</time>
      </trkpt>
      <trkpt lat="46.88282" lon="8.54475">
        <ele>1525</ele>
        <time>2021-08-11T08:29:49.379Z</time>
      </trkpt>
      <trkpt lat="46.88281" lon="8.54474">
        <ele>1525</ele>
        <time>2021-08-11T08:29:50.379Z</time>
      </trkpt>
      <trkpt lat="46.88281" lon="8.54474">
        <ele>1525</ele>
        <time>2021-08-11T08:29:51.378Z</time>
      </trkpt>
      <trkpt lat="46.88281" lon="8.54473">
        <ele>1524</ele>
        <time>2021-08-11T08:29:52.378Z</time>
      </trkpt>
      <trkpt lat="46.88281" lon="8.54473">
        <ele>1524</ele>
        <time>2021-08-11T08:29:53.378Z</time>
      </trkpt>
      <trkpt lat="46.88281" lon="8.54472">
        <ele>1524</ele>
        <time>2021-08-11T08:29:54.379Z</time>
      </trkpt>
      <trkpt lat="46.88281" lon="8.54471">
        <ele>1525</ele>
        <time>2021-08-11T08:29:55.378Z</time>
      </trkpt>
      <trkpt lat="46.8828" lon="8.54471">
        <ele>1525</ele>
        <time>2021-08-11T08:29:56.378Z</time>
      </trkpt>
      <trkpt lat="46.8828" lon="8.5447">
        <ele>1526</ele>
        <time>2021-08-11T08:29:57.378Z</time>
      </trkpt>
      <trkpt lat="46.8828" lon="8.5447">
        <ele>1526</ele>
        <time>2021-08-11T08:29:58.378Z</time>
      </trkpt>
      <trkpt lat="46.8828" lon="8.54469">
        <ele>1526</ele>
        <time>2021-08-11T08:29:59.379Z</time>
      </trkpt>
      <trkpt lat="46.8828" lon="8.54468">
        <ele>1527</ele>
        <time>2021-08-11T08:30:00.378Z</time>
      </trkpt>
      <trkpt lat="46.88279" lon="8.54467">
        <ele>1527</ele>
        <time>2021-08-11T08:30:01.378Z</time>
      </trkpt>
      <trkpt lat="46.88279" lon="8.54466">
        <ele>1527</ele>
        <time>2021-08-11T08:30:02.378Z</time>
      </trkpt>
      <trkpt lat="46.88278" lon="8.54466">
        <ele>1528</ele>
        <time>2021-08-11T08:30:03.379Z</time>
      </trkpt>
      <trkpt lat="46.88278" lon="8.54465">
        <ele>1528</ele>
        <time>2021-08-11T08:30:04.378Z</time>
      </trkpt>
      <trkpt lat="46.88277" lon="8.54464">
        <ele>1528</ele>
        <time>2021-08-11T08:30:05.379Z</time>
      </trkpt>
      <trkpt lat="46.88277" lon="8.54463">
        <ele>1528</ele>
        <time>2021-08-11T08:30:06.378Z</time>
      </trkpt>
      <trkpt lat="46.88277" lon="8.54462">
        <ele>1529</ele>
        <time>2021-08-11T08:30:07.378Z</time>
      </trkpt>
      <trkpt lat="46.88277" lon="8.54462">
        <ele>1529</ele>
        <time>2021-08-11T08:30:08.379Z</time>
      </trkpt>
      <trkpt lat="46.88276" lon="8.54461">
        <ele>1530</ele>
        <time>2021-08-11T08:30:09.379Z</time>
      </trkpt>
      <trkpt lat="46.88276" lon="8.5446">
        <ele>1530</ele>
        <time>2021-08-11T08:30:10.379Z</time>
      </trkpt>
      <trkpt lat="46.88276" lon="8.54459">
        <ele>1530</ele>
        <time>2021-08-11T08:30:11.379Z</time>
      </trkpt>
      <trkpt lat="46.88275" lon="8.54458">
        <ele>1530</ele>
        <time>2021-08-11T08:30:12.378Z</time>
      </trkpt>
      <trkpt lat="46.88275" lon="8.54457">
        <ele>1530</ele>
        <time>2021-08-11T08:30:13.379Z</time>
      </trkpt>
      <trkpt lat="46.88274" lon="8.54456">
        <ele>1530</ele>
        <time>2021-08-11T08:30:14.379Z</time>
      </trkpt>
      <trkpt lat="46.88274" lon="8.54456">
        <ele>1530</ele>
        <time>2021-08-11T08:30:15.379Z</time>
      </trkpt>
      <trkpt lat="46.88274" lon="8.54455">
        <ele>1530</ele>
        <time>2021-08-11T08:30:16.378Z</time>
      </trkpt>
      <trkpt lat="46.88274" lon="8.54454">
        <ele>1530</ele>
        <time>2021-08-11T08:30:17.379Z</time>
      </trkpt>
      <trkpt lat="46.88274" lon="8.54453">
        <ele>1530</ele>
        <time>2021-08-11T08:30:18.379Z</time>
      </trkpt>
      <trkpt lat="46.88273" lon="8.54452">
        <ele>1530</ele>
        <time>2021-08-11T08:30:19.379Z</time>
      </trkpt>
      <trkpt lat="46.88273" lon="8.54451">
        <ele>1529</ele>
        <time>2021-08-11T08:30:20.379Z</time>
      </trkpt>
      <trkpt lat="46.88273" lon="8.54451">
        <ele>1529</ele>
        <time>2021-08-11T08:30:21.378Z</time>
      </trkpt>
      <trkpt lat="46.88273" lon="8.5445">
        <ele>1529</ele>
        <time>2021-08-11T08:30:22.379Z</time>
      </trkpt>
      <trkpt lat="46.88272" lon="8.5445">
        <ele>1529</ele>
        <time>2021-08-11T08:30:23.379Z</time>
      </trkpt>
      <trkpt lat="46.88272" lon="8.54449">
        <ele>1529</ele>
        <time>2021-08-11T08:30:24.379Z</time>
      </trkpt>
      <trkpt lat="46.88272" lon="8.54448">
        <ele>1530</ele>
        <time>2021-08-11T08:30:25.379Z</time>
      </trkpt>
      <trkpt lat="46.88272" lon="8.54448">
        <ele>1530</ele>
        <time>2021-08-11T08:30:26.379Z</time>
      </trkpt>
      <trkpt lat="46.88271" lon="8.54447">
        <ele>1530</ele>
        <time>2021-08-11T08:30:27.379Z</time>
      </trkpt>
      <trkpt lat="46.88271" lon="8.54446">
        <ele>1530</ele>
        <time>2021-08-11T08:30:28.378Z</time>
      </trkpt>
      <trkpt lat="46.88271" lon="8.54445">
        <ele>1531</ele>
        <time>2021-08-11T08:30:29.379Z</time>
      </trkpt>
      <trkpt lat="46.8827" lon="8.54445">
        <ele>1531</ele>
        <time>2021-08-11T08:30:30.378Z</time>
      </trkpt>
      <trkpt lat="46.8827" lon="8.54444">
        <ele>1531</ele>
        <time>2021-08-11T08:30:31.379Z</time>
      </trkpt>
      <trkpt lat="46.88269" lon="8.54443">
        <ele>1531</ele>
        <time>2021-08-11T08:30:32.379Z</time>
      </trkpt>
      <trkpt lat="46.88269" lon="8.54443">
        <ele>1531</ele>
        <time>2021-08-11T08:30:33.379Z</time>
      </trkpt>
      <trkpt lat="46.88269" lon="8.54442">
        <ele>1531</ele>
        <time>2021-08-11T08:30:34.378Z</time>
      </trkpt>
      <trkpt lat="46.88269" lon="8.54442">
        <ele>1530</ele>
        <time>2021-08-11T08:30:35.379Z</time>
      </trkpt>
      <trkpt lat="46.88269" lon="8.54441">
        <ele>1530</ele>
        <time>2021-08-11T08:30:36.379Z</time>
      </trkpt>
      <trkpt lat="46.88269" lon="8.54441">
        <ele>1530</ele>
        <time>2021-08-11T08:30:37.379Z</time>
      </trkpt>
      <trkpt lat="46.88269" lon="8.5444">
        <ele>1530</ele>
        <time>2021-08-11T08:30:38.379Z</time>
      </trkpt>
      <trkpt lat="46.88269" lon="8.5444">
        <ele>1530</ele>
        <time>2021-08-11T08:30:39.378Z</time>
      </trkpt>
      <trkpt lat="46.88269" lon="8.54439">
        <ele>1530</ele>
        <time>2021-08-11T08:30:40.379Z</time>
      </trkpt>
      <trkpt lat="46.8827" lon="8.54439">
        <ele>1530</ele>
        <time>2021-08-11T08:30:41.379Z</time>
      </trkpt>
      <trkpt lat="46.8827" lon="8.54438">
        <ele>1531</ele>
        <time>2021-08-11T08:30:42.379Z</time>
      </trkpt>
      <trkpt lat="46.8827" lon="8.54438">
        <ele>1531</ele>
        <time>2021-08-11T08:30:43.379Z</time>
      </trkpt>
      <trkpt lat="46.8827" lon="8.54437">
        <ele>1531</ele>
        <time>2021-08-11T08:30:44.378Z</time>
      </trkpt>
      <trkpt lat="46.8827" lon="8.54437">
        <ele>1531</ele>
        <time>2021-08-11T08:30:45.379Z</time>
      </trkpt>
      <trkpt lat="46.88271" lon="8.54437">
        <ele>1531</ele>
        <time>2021-08-11T08:30:46.379Z</time>
      </trkpt>
      <trkpt lat="46.88271" lon="8.54436">
        <ele>1531</ele>
        <time>2021-08-11T08:30:47.379Z</time>
      </trkpt>
      <trkpt lat="46.88272" lon="8.54436">
        <ele>1531</ele>
        <time>2021-08-11T08:30:48.378Z</time>
      </trkpt>
      <trkpt lat="46.88272" lon="8.54436">
        <ele>1531</ele>
        <time>2021-08-11T08:30:49.379Z</time>
      </trkpt>
      <trkpt lat="46.88273" lon="8.54436">
        <ele>1531</ele>
        <time>2021-08-11T08:30:50.379Z</time>
      </trkpt>
      <trkpt lat="46.88273" lon="8.54436">
        <ele>1531</ele>
        <time>2021-08-11T08:30:51.379Z</time>
      </trkpt>
      <trkpt lat="46.88274" lon="8.54436">
        <ele>1531</ele>
        <time>2021-08-11T08:30:52.379Z</time>
      </trkpt>
      <trkpt lat="46.88274" lon="8.54436">
        <ele>1531</ele>
        <time>2021-08-11T08:30:53.378Z</time>
      </trkpt>
      <trkpt lat="46.88275" lon="8.54437">
        <ele>1531</ele>
        <time>2021-08-11T08:30:54.379Z</time>
      </trkpt>
      <trkpt lat="46.88276" lon="8.54437">
        <ele>1531</ele>
        <time>2021-08-11T08:30:55.379Z</time>
      </trkpt>
      <trkpt lat="46.88276" lon="8.54437">
        <ele>1532</ele>
        <time>2021-08-11T08:30:56.379Z</time>
      </trkpt>
      <trkpt lat="46.88277" lon="8.54437">
        <ele>1532</ele>
        <time>2021-08-11T08:30:57.378Z</time>
      </trkpt>
      <trkpt lat="46.88277" lon="8.54436">
        <ele>1532</ele>
        <time>2021-08-11T08:30:58.379Z</time>
      </trkpt>
      <trkpt lat="46.88278" lon="8.54436">
        <ele>1532</ele>
        <time>2021-08-11T08:30:59.379Z</time>
      </trkpt>
      <trkpt lat="46.88279" lon="8.54436">
        <ele>1533</ele>
        <time>2021-08-11T08:31:00.378Z</time>
      </trkpt>
      <trkpt lat="46.8828" lon="8.54436">
        <ele>1533</ele>
        <time>2021-08-11T08:31:01.379Z</time>
      </trkpt>
      <trkpt lat="46.88281" lon="8.54436">
        <ele>1534</ele>
        <time>2021-08-11T08:31:02.378Z</time>
      </trkpt>
      <trkpt lat="46.88281" lon="8.54436">
        <ele>1534</ele>
        <time>2021-08-11T08:31:03.379Z</time>
      </trkpt>
      <trkpt lat="46.88282" lon="8.54435">
        <ele>1534</ele>
        <time>2021-08-11T08:31:04.378Z</time>
      </trkpt>
      <trkpt lat="46.88282" lon="8.54435">
        <ele>1534</ele>
        <time>2021-08-11T08:31:05.379Z</time>
      </trkpt>
      <trkpt lat="46.88282" lon="8.54435">
        <ele>1534</ele>
        <time>2021-08-11T08:31:06.378Z</time>
      </trkpt>
      <trkpt lat="46.88283" lon="8.54435">
        <ele>1534</ele>
        <time>2021-08-11T08:31:07.378Z</time>
      </trkpt>
      <trkpt lat="46.88283" lon="8.54434">
        <ele>1535</ele>
        <time>2021-08-11T08:31:08.380Z</time>
      </trkpt>
      <trkpt lat="46.88283" lon="8.54434">
        <ele>1535</ele>
        <time>2021-08-11T08:31:09.379Z</time>
      </trkpt>
      <trkpt lat="46.88283" lon="8.54433">
        <ele>1535</ele>
        <time>2021-08-11T08:31:10.379Z</time>
      </trkpt>
      <trkpt lat="46.8828" lon="8.54432">
        <ele>1541</ele>
        <time>2021-08-11T08:31:11.381Z</time>
      </trkpt>
      <trkpt lat="46.8828" lon="8.54432">
        <ele>1541</ele>
        <time>2021-08-11T08:31:12.380Z</time>
      </trkpt>
      <trkpt lat="46.8828" lon="8.54432">
        <ele>1541</ele>
        <time>2021-08-11T08:31:13.381Z</time>
      </trkpt>
      <trkpt lat="46.8828" lon="8.54433">
        <ele>1540</ele>
        <time>2021-08-11T08:31:14.380Z</time>
      </trkpt>
      <trkpt lat="46.88281" lon="8.54432">
        <ele>1539</ele>
        <time>2021-08-11T08:31:15.382Z</time>
      </trkpt>
      <trkpt lat="46.88281" lon="8.54432">
        <ele>1540</ele>
        <time>2021-08-11T08:31:16.382Z</time>
      </trkpt>
      <trkpt lat="46.88281" lon="8.54432">
        <ele>1540</ele>
        <time>2021-08-11T08:31:17.381Z</time>
      </trkpt>
      <trkpt lat="46.88281" lon="8.54432">
        <ele>1541</ele>
        <time>2021-08-11T08:31:18.382Z</time>
      </trkpt>
      <trkpt lat="46.88281" lon="8.54432">
        <ele>1539</ele>
        <time>2021-08-11T08:31:19.381Z</time>
      </trkpt>
      <trkpt lat="46.88279" lon="8.54429">
        <ele>1539</ele>
        <time>2021-08-11T08:31:20.381Z</time>
      </trkpt>
      <trkpt lat="46.88281" lon="8.54431">
        <ele>1540</ele>
        <time>2021-08-11T08:31:21.382Z</time>
      </trkpt>
      <trkpt lat="46.88281" lon="8.54432">
        <ele>1540</ele>
        <time>2021-08-11T08:31:22.381Z</time>
      </trkpt>
      <trkpt lat="46.88283" lon="8.54436">
        <ele>1538</ele>
        <time>2021-08-11T08:31:23.382Z</time>
      </trkpt>
      <trkpt lat="46.88283" lon="8.54436">
        <ele>1538</ele>
        <time>2021-08-11T08:31:24.383Z</time>
      </trkpt>
      <trkpt lat="46.88283" lon="8.54436">
        <ele>1537</ele>
        <time>2021-08-11T08:31:25.382Z</time>
      </trkpt>
      <trkpt lat="46.88283" lon="8.54435">
        <ele>1537</ele>
        <time>2021-08-11T08:31:26.382Z</time>
      </trkpt>
      <trkpt lat="46.88283" lon="8.54435">
        <ele>1536</ele>
        <time>2021-08-11T08:31:27.382Z</time>
      </trkpt>
      <trkpt lat="46.88283" lon="8.54435">
        <ele>1536</ele>
        <time>2021-08-11T08:31:28.383Z</time>
      </trkpt>
      <trkpt lat="46.88283" lon="8.54435">
        <ele>1536</ele>
        <time>2021-08-11T08:31:29.383Z</time>
      </trkpt>
      <trkpt lat="46.88283" lon="8.54434">
        <ele>1535</ele>
        <time>2021-08-11T08:31:30.383Z</time>
      </trkpt>
      <trkpt lat="46.88281" lon="8.54432">
        <ele>1536</ele>
        <time>2021-08-11T08:31:31.384Z</time>
      </trkpt>
      <trkpt lat="46.88281" lon="8.54432">
        <ele>1537</ele>
        <time>2021-08-11T08:31:32.383Z</time>
      </trkpt>
      <trkpt lat="46.88281" lon="8.54433">
        <ele>1537</ele>
        <time>2021-08-11T08:31:33.384Z</time>
      </trkpt>
      <trkpt lat="46.88281" lon="8.54433">
        <ele>1538</ele>
        <time>2021-08-11T08:31:34.384Z</time>
      </trkpt>
      <trkpt lat="46.88281" lon="8.54434">
        <ele>1538</ele>
        <time>2021-08-11T08:31:35.384Z</time>
      </trkpt>
      <trkpt lat="46.88281" lon="8.54434">
        <ele>1538</ele>
        <time>2021-08-11T08:31:36.383Z</time>
      </trkpt>
      <trkpt lat="46.88281" lon="8.54434">
        <ele>1538</ele>
        <time>2021-08-11T08:31:37.383Z</time>
      </trkpt>
      <trkpt lat="46.8828" lon="8.54434">
        <ele>1537</ele>
        <time>2021-08-11T08:31:38.383Z</time>
      </trkpt>
      <trkpt lat="46.8828" lon="8.54434">
        <ele>1537</ele>
        <time>2021-08-11T08:31:39.384Z</time>
      </trkpt>
      <trkpt lat="46.8828" lon="8.54435">
        <ele>1537</ele>
        <time>2021-08-11T08:31:40.384Z</time>
      </trkpt>
      <trkpt lat="46.88281" lon="8.54435">
        <ele>1537</ele>
        <time>2021-08-11T08:31:41.383Z</time>
      </trkpt>
      <trkpt lat="46.88282" lon="8.54436">
        <ele>1537</ele>
        <time>2021-08-11T08:31:42.384Z</time>
      </trkpt>
      <trkpt lat="46.88282" lon="8.54436">
        <ele>1537</ele>
        <time>2021-08-11T08:31:43.384Z</time>
      </trkpt>
      <trkpt lat="46.88283" lon="8.54436">
        <ele>1537</ele>
        <time>2021-08-11T08:31:44.383Z</time>
      </trkpt>
      <trkpt lat="46.88286" lon="8.54433">
        <ele>1539</ele>
        <time>2021-08-11T08:31:45.385Z</time>
      </trkpt>
      <trkpt lat="46.88287" lon="8.54433">
        <ele>1539</ele>
        <time>2021-08-11T08:31:46.384Z</time>
      </trkpt>
      <trkpt lat="46.88287" lon="8.54433">
        <ele>1540</ele>
        <time>2021-08-11T08:31:47.384Z</time>
      </trkpt>
      <trkpt lat="46.88288" lon="8.54433">
        <ele>1540</ele>
        <time>2021-08-11T08:31:48.385Z</time>
      </trkpt>
      <trkpt lat="46.88289" lon="8.54433">
        <ele>1540</ele>
        <time>2021-08-11T08:31:49.384Z</time>
      </trkpt>
      <trkpt lat="46.8829" lon="8.54433">
        <ele>1540</ele>
        <time>2021-08-11T08:31:50.384Z</time>
      </trkpt>
      <trkpt lat="46.88291" lon="8.54433">
        <ele>1540</ele>
        <time>2021-08-11T08:31:51.385Z</time>
      </trkpt>
      <trkpt lat="46.88292" lon="8.54433">
        <ele>1540</ele>
        <time>2021-08-11T08:31:52.385Z</time>
      </trkpt>
      <trkpt lat="46.88293" lon="8.54433">
        <ele>1539</ele>
        <time>2021-08-11T08:31:53.385Z</time>
      </trkpt>
      <trkpt lat="46.88294" lon="8.54433">
        <ele>1539</ele>
        <time>2021-08-11T08:31:54.384Z</time>
      </trkpt>
      <trkpt lat="46.88295" lon="8.54433">
        <ele>1539</ele>
        <time>2021-08-11T08:31:55.384Z</time>
      </trkpt>
      <trkpt lat="46.88295" lon="8.54433">
        <ele>1538</ele>
        <time>2021-08-11T08:31:56.385Z</time>
      </trkpt>
      <trkpt lat="46.88296" lon="8.54433">
        <ele>1538</ele>
        <time>2021-08-11T08:31:57.385Z</time>
      </trkpt>
      <trkpt lat="46.88296" lon="8.54433">
        <ele>1538</ele>
        <time>2021-08-11T08:31:58.385Z</time>
      </trkpt>
      <trkpt lat="46.88297" lon="8.54434">
        <ele>1538</ele>
        <time>2021-08-11T08:31:59.385Z</time>
      </trkpt>
      <trkpt lat="46.88297" lon="8.54434">
        <ele>1537</ele>
        <time>2021-08-11T08:32:00.384Z</time>
      </trkpt>
      <trkpt lat="46.88298" lon="8.54434">
        <ele>1537</ele>
        <time>2021-08-11T08:32:01.385Z</time>
      </trkpt>
      <trkpt lat="46.88298" lon="8.54434">
        <ele>1537</ele>
        <time>2021-08-11T08:32:02.385Z</time>
      </trkpt>
      <trkpt lat="46.88299" lon="8.54434">
        <ele>1537</ele>
        <time>2021-08-11T08:32:03.385Z</time>
      </trkpt>
      <trkpt lat="46.883" lon="8.54434">
        <ele>1536</ele>
        <time>2021-08-11T08:32:04.385Z</time>
      </trkpt>
      <trkpt lat="46.883" lon="8.54434">
        <ele>1536</ele>
        <time>2021-08-11T08:32:05.384Z</time>
      </trkpt>
      <trkpt lat="46.88301" lon="8.54434">
        <ele>1536</ele>
        <time>2021-08-11T08:32:06.384Z</time>
      </trkpt>
      <trkpt lat="46.88301" lon="8.54434">
        <ele>1536</ele>
        <time>2021-08-11T08:32:07.384Z</time>
      </trkpt>
      <trkpt lat="46.88302" lon="8.54434">
        <ele>1536</ele>
        <time>2021-08-11T08:32:08.384Z</time>
      </trkpt>
      <trkpt lat="46.88303" lon="8.54434">
        <ele>1536</ele>
        <time>2021-08-11T08:32:09.385Z</time>
      </trkpt>
      <trkpt lat="46.88303" lon="8.54434">
        <ele>1536</ele>
        <time>2021-08-11T08:32:10.385Z</time>
      </trkpt>
      <trkpt lat="46.88304" lon="8.54434">
        <ele>1536</ele>
        <time>2021-08-11T08:32:11.385Z</time>
      </trkpt>
      <trkpt lat="46.88305" lon="8.54435">
        <ele>1536</ele>
        <time>2021-08-11T08:32:12.385Z</time>
      </trkpt>
      <trkpt lat="46.88305" lon="8.54435">
        <ele>1537</ele>
        <time>2021-08-11T08:32:13.385Z</time>
      </trkpt>
      <trkpt lat="46.88306" lon="8.54435">
        <ele>1537</ele>
        <time>2021-08-11T08:32:14.385Z</time>
      </trkpt>
      <trkpt lat="46.88307" lon="8.54436">
        <ele>1537</ele>
        <time>2021-08-11T08:32:15.384Z</time>
      </trkpt>
      <trkpt lat="46.88307" lon="8.54436">
        <ele>1537</ele>
        <time>2021-08-11T08:32:16.385Z</time>
      </trkpt>
      <trkpt lat="46.88308" lon="8.54438">
        <ele>1537</ele>
        <time>2021-08-11T08:32:17.384Z</time>
      </trkpt>
      <trkpt lat="46.88309" lon="8.54439">
        <ele>1538</ele>
        <time>2021-08-11T08:32:18.385Z</time>
      </trkpt>
      <trkpt lat="46.8831" lon="8.5444">
        <ele>1538</ele>
        <time>2021-08-11T08:32:19.385Z</time>
      </trkpt>
      <trkpt lat="46.88311" lon="8.54441">
        <ele>1539</ele>
        <time>2021-08-11T08:32:20.385Z</time>
      </trkpt>
      <trkpt lat="46.88312" lon="8.54442">
        <ele>1539</ele>
        <time>2021-08-11T08:32:21.385Z</time>
      </trkpt>
      <trkpt lat="46.88313" lon="8.54443">
        <ele>1540</ele>
        <time>2021-08-11T08:32:22.385Z</time>
      </trkpt>
      <trkpt lat="46.88314" lon="8.54444">
        <ele>1540</ele>
        <time>2021-08-11T08:32:23.385Z</time>
      </trkpt>
      <trkpt lat="46.88315" lon="8.54445">
        <ele>1540</ele>
        <time>2021-08-11T08:32:24.385Z</time>
      </trkpt>
      <trkpt lat="46.88316" lon="8.54445">
        <ele>1540</ele>
        <time>2021-08-11T08:32:25.385Z</time>
      </trkpt>
      <trkpt lat="46.88316" lon="8.54447">
        <ele>1540</ele>
        <time>2021-08-11T08:32:26.385Z</time>
      </trkpt>
      <trkpt lat="46.88317" lon="8.54448">
        <ele>1540</ele>
        <time>2021-08-11T08:32:27.385Z</time>
      </trkpt>
      <trkpt lat="46.88319" lon="8.54449">
        <ele>1540</ele>
        <time>2021-08-11T08:32:28.384Z</time>
      </trkpt>
      <trkpt lat="46.8832" lon="8.54449">
        <ele>1540</ele>
        <time>2021-08-11T08:32:29.385Z</time>
      </trkpt>
      <trkpt lat="46.88321" lon="8.5445">
        <ele>1540</ele>
        <time>2021-08-11T08:32:30.384Z</time>
      </trkpt>
      <trkpt lat="46.88322" lon="8.54451">
        <ele>1540</ele>
        <time>2021-08-11T08:32:31.385Z</time>
      </trkpt>
      <trkpt lat="46.88323" lon="8.54451">
        <ele>1540</ele>
        <time>2021-08-11T08:32:32.385Z</time>
      </trkpt>
      <trkpt lat="46.88324" lon="8.54452">
        <ele>1540</ele>
        <time>2021-08-11T08:32:33.385Z</time>
      </trkpt>
      <trkpt lat="46.88325" lon="8.54453">
        <ele>1540</ele>
        <time>2021-08-11T08:32:34.385Z</time>
      </trkpt>
      <trkpt lat="46.88325" lon="8.54454">
        <ele>1540</ele>
        <time>2021-08-11T08:32:35.385Z</time>
      </trkpt>
      <trkpt lat="46.88326" lon="8.54455">
        <ele>1540</ele>
        <time>2021-08-11T08:32:36.385Z</time>
      </trkpt>
      <trkpt lat="46.88327" lon="8.54455">
        <ele>1540</ele>
        <time>2021-08-11T08:32:37.385Z</time>
      </trkpt>
      <trkpt lat="46.88328" lon="8.54456">
        <ele>1540</ele>
        <time>2021-08-11T08:32:38.385Z</time>
      </trkpt>
      <trkpt lat="46.88328" lon="8.54457">
        <ele>1540</ele>
        <time>2021-08-11T08:32:39.385Z</time>
      </trkpt>
      <trkpt lat="46.88329" lon="8.54457">
        <ele>1540</ele>
        <time>2021-08-11T08:32:40.384Z</time>
      </trkpt>
      <trkpt lat="46.8833" lon="8.54457">
        <ele>1539</ele>
        <time>2021-08-11T08:32:41.385Z</time>
      </trkpt>
      <trkpt lat="46.88331" lon="8.54457">
        <ele>1540</ele>
        <time>2021-08-11T08:32:42.384Z</time>
      </trkpt>
      <trkpt lat="46.88332" lon="8.54458">
        <ele>1540</ele>
        <time>2021-08-11T08:32:43.385Z</time>
      </trkpt>
      <trkpt lat="46.88333" lon="8.54458">
        <ele>1540</ele>
        <time>2021-08-11T08:32:44.385Z</time>
      </trkpt>
      <trkpt lat="46.88334" lon="8.54459">
        <ele>1540</ele>
        <time>2021-08-11T08:32:45.385Z</time>
      </trkpt>
      <trkpt lat="46.88334" lon="8.54459">
        <ele>1540</ele>
        <time>2021-08-11T08:32:46.385Z</time>
      </trkpt>
      <trkpt lat="46.88335" lon="8.54459">
        <ele>1540</ele>
        <time>2021-08-11T08:32:47.385Z</time>
      </trkpt>
      <trkpt lat="46.88335" lon="8.54459">
        <ele>1541</ele>
        <time>2021-08-11T08:32:48.385Z</time>
      </trkpt>
      <trkpt lat="46.88336" lon="8.5446">
        <ele>1541</ele>
        <time>2021-08-11T08:32:49.384Z</time>
      </trkpt>
      <trkpt lat="46.88337" lon="8.5446">
        <ele>1541</ele>
        <time>2021-08-11T08:32:50.384Z</time>
      </trkpt>
      <trkpt lat="46.88338" lon="8.54461">
        <ele>1541</ele>
        <time>2021-08-11T08:32:51.385Z</time>
      </trkpt>
      <trkpt lat="46.88339" lon="8.54461">
        <ele>1541</ele>
        <time>2021-08-11T08:32:52.385Z</time>
      </trkpt>
      <trkpt lat="46.88339" lon="8.54461">
        <ele>1542</ele>
        <time>2021-08-11T08:32:53.385Z</time>
      </trkpt>
      <trkpt lat="46.8834" lon="8.54461">
        <ele>1542</ele>
        <time>2021-08-11T08:32:54.385Z</time>
      </trkpt>
      <trkpt lat="46.8834" lon="8.54461">
        <ele>1541</ele>
        <time>2021-08-11T08:32:55.385Z</time>
      </trkpt>
      <trkpt lat="46.88341" lon="8.54461">
        <ele>1541</ele>
        <time>2021-08-11T08:32:56.385Z</time>
      </trkpt>
      <trkpt lat="46.88341" lon="8.54462">
        <ele>1541</ele>
        <time>2021-08-11T08:32:57.385Z</time>
      </trkpt>
      <trkpt lat="46.88342" lon="8.54462">
        <ele>1541</ele>
        <time>2021-08-11T08:32:58.384Z</time>
      </trkpt>
      <trkpt lat="46.88343" lon="8.54462">
        <ele>1541</ele>
        <time>2021-08-11T08:32:59.385Z</time>
      </trkpt>
      <trkpt lat="46.88344" lon="8.54462">
        <ele>1541</ele>
        <time>2021-08-11T08:33:00.385Z</time>
      </trkpt>
      <trkpt lat="46.88344" lon="8.54462">
        <ele>1542</ele>
        <time>2021-08-11T08:33:01.385Z</time>
      </trkpt>
      <trkpt lat="46.88345" lon="8.54462">
        <ele>1542</ele>
        <time>2021-08-11T08:33:02.385Z</time>
      </trkpt>
      <trkpt lat="46.88345" lon="8.54462">
        <ele>1542</ele>
        <time>2021-08-11T08:33:03.385Z</time>
      </trkpt>
      <trkpt lat="46.88346" lon="8.54462">
        <ele>1542</ele>
        <time>2021-08-11T08:33:04.385Z</time>
      </trkpt>
      <trkpt lat="46.88347" lon="8.54462">
        <ele>1542</ele>
        <time>2021-08-11T08:33:05.385Z</time>
      </trkpt>
      <trkpt lat="46.88348" lon="8.54462">
        <ele>1542</ele>
        <time>2021-08-11T08:33:06.385Z</time>
      </trkpt>
      <trkpt lat="46.88349" lon="8.54462">
        <ele>1543</ele>
        <time>2021-08-11T08:33:07.385Z</time>
      </trkpt>
      <trkpt lat="46.8835" lon="8.54462">
        <ele>1543</ele>
        <time>2021-08-11T08:33:08.384Z</time>
      </trkpt>
      <trkpt lat="46.88351" lon="8.54462">
        <ele>1544</ele>
        <time>2021-08-11T08:33:09.385Z</time>
      </trkpt>
      <trkpt lat="46.88352" lon="8.54463">
        <ele>1544</ele>
        <time>2021-08-11T08:33:10.385Z</time>
      </trkpt>
      <trkpt lat="46.88352" lon="8.54462">
        <ele>1544</ele>
        <time>2021-08-11T08:33:11.385Z</time>
      </trkpt>
      <trkpt lat="46.88353" lon="8.54463">
        <ele>1545</ele>
        <time>2021-08-11T08:33:12.384Z</time>
      </trkpt>
      <trkpt lat="46.88353" lon="8.54463">
        <ele>1545</ele>
        <time>2021-08-11T08:33:13.385Z</time>
      </trkpt>
      <trkpt lat="46.88354" lon="8.54463">
        <ele>1546</ele>
        <time>2021-08-11T08:33:14.385Z</time>
      </trkpt>
      <trkpt lat="46.88355" lon="8.54463">
        <ele>1546</ele>
        <time>2021-08-11T08:33:15.384Z</time>
      </trkpt>
      <trkpt lat="46.88356" lon="8.54463">
        <ele>1546</ele>
        <time>2021-08-11T08:33:16.384Z</time>
      </trkpt>
      <trkpt lat="46.88357" lon="8.54462">
        <ele>1547</ele>
        <time>2021-08-11T08:33:17.385Z</time>
      </trkpt>
      <trkpt lat="46.88357" lon="8.54462">
        <ele>1547</ele>
        <time>2021-08-11T08:33:18.385Z</time>
      </trkpt>
      <trkpt lat="46.88358" lon="8.54462">
        <ele>1547</ele>
        <time>2021-08-11T08:33:19.385Z</time>
      </trkpt>
      <trkpt lat="46.88359" lon="8.54462">
        <ele>1548</ele>
        <time>2021-08-11T08:33:20.385Z</time>
      </trkpt>
      <trkpt lat="46.88359" lon="8.54462">
        <ele>1548</ele>
        <time>2021-08-11T08:33:21.384Z</time>
      </trkpt>
      <trkpt lat="46.8836" lon="8.54462">
        <ele>1548</ele>
        <time>2021-08-11T08:33:22.385Z</time>
      </trkpt>
      <trkpt lat="46.8836" lon="8.54462">
        <ele>1548</ele>
        <time>2021-08-11T08:33:23.385Z</time>
      </trkpt>
      <trkpt lat="46.88361" lon="8.54461">
        <ele>1549</ele>
        <time>2021-08-11T08:33:24.385Z</time>
      </trkpt>
      <trkpt lat="46.88362" lon="8.54461">
        <ele>1549</ele>
        <time>2021-08-11T08:33:25.384Z</time>
      </trkpt>
      <trkpt lat="46.88363" lon="8.54461">
        <ele>1549</ele>
        <time>2021-08-11T08:33:26.385Z</time>
      </trkpt>
      <trkpt lat="46.88364" lon="8.54461">
        <ele>1549</ele>
        <time>2021-08-11T08:33:27.384Z</time>
      </trkpt>
      <trkpt lat="46.88364" lon="8.54461">
        <ele>1549</ele>
        <time>2021-08-11T08:33:28.385Z</time>
      </trkpt>
      <trkpt lat="46.88365" lon="8.54461">
        <ele>1550</ele>
        <time>2021-08-11T08:33:29.384Z</time>
      </trkpt>
      <trkpt lat="46.88366" lon="8.54461">
        <ele>1550</ele>
        <time>2021-08-11T08:33:30.384Z</time>
      </trkpt>
      <trkpt lat="46.88367" lon="8.54461">
        <ele>1550</ele>
        <time>2021-08-11T08:33:31.385Z</time>
      </trkpt>
      <trkpt lat="46.88367" lon="8.5446">
        <ele>1550</ele>
        <time>2021-08-11T08:33:32.385Z</time>
      </trkpt>
      <trkpt lat="46.88368" lon="8.5446">
        <ele>1550</ele>
        <time>2021-08-11T08:33:33.385Z</time>
      </trkpt>
      <trkpt lat="46.88368" lon="8.5446">
        <ele>1550</ele>
        <time>2021-08-11T08:33:34.384Z</time>
      </trkpt>
      <trkpt lat="46.88369" lon="8.54459">
        <ele>1549</ele>
        <time>2021-08-11T08:33:35.385Z</time>
      </trkpt>
      <trkpt lat="46.8837" lon="8.54459">
        <ele>1549</ele>
        <time>2021-08-11T08:33:36.385Z</time>
      </trkpt>
      <trkpt lat="46.8837" lon="8.54458">
        <ele>1549</ele>
        <time>2021-08-11T08:33:37.384Z</time>
      </trkpt>
      <trkpt lat="46.88371" lon="8.54458">
        <ele>1548</ele>
        <time>2021-08-11T08:33:38.385Z</time>
      </trkpt>
      <trkpt lat="46.88371" lon="8.54458">
        <ele>1548</ele>
        <time>2021-08-11T08:33:39.385Z</time>
      </trkpt>
      <trkpt lat="46.88372" lon="8.54457">
        <ele>1548</ele>
        <time>2021-08-11T08:33:40.384Z</time>
      </trkpt>
      <trkpt lat="46.88372" lon="8.54457">
        <ele>1548</ele>
        <time>2021-08-11T08:33:41.384Z</time>
      </trkpt>
      <trkpt lat="46.88373" lon="8.54456">
        <ele>1549</ele>
        <time>2021-08-11T08:33:42.385Z</time>
      </trkpt>
      <trkpt lat="46.88373" lon="8.54456">
        <ele>1549</ele>
        <time>2021-08-11T08:33:43.384Z</time>
      </trkpt>
      <trkpt lat="46.88374" lon="8.54455">
        <ele>1549</ele>
        <time>2021-08-11T08:33:44.385Z</time>
      </trkpt>
      <trkpt lat="46.88374" lon="8.54455">
        <ele>1550</ele>
        <time>2021-08-11T08:33:45.385Z</time>
      </trkpt>
      <trkpt lat="46.88375" lon="8.54454">
        <ele>1550</ele>
        <time>2021-08-11T08:33:46.385Z</time>
      </trkpt>
      <trkpt lat="46.88375" lon="8.54453">
        <ele>1551</ele>
        <time>2021-08-11T08:33:47.385Z</time>
      </trkpt>
      <trkpt lat="46.88375" lon="8.54452">
        <ele>1551</ele>
        <time>2021-08-11T08:33:48.385Z</time>
      </trkpt>
      <trkpt lat="46.88375" lon="8.54451">
        <ele>1551</ele>
        <time>2021-08-11T08:33:49.385Z</time>
      </trkpt>
      <trkpt lat="46.88375" lon="8.5445">
        <ele>1551</ele>
        <time>2021-08-11T08:33:50.385Z</time>
      </trkpt>
      <trkpt lat="46.88376" lon="8.54449">
        <ele>1551</ele>
        <time>2021-08-11T08:33:51.384Z</time>
      </trkpt>
      <trkpt lat="46.88376" lon="8.54448">
        <ele>1552</ele>
        <time>2021-08-11T08:33:52.385Z</time>
      </trkpt>
      <trkpt lat="46.88377" lon="8.54447">
        <ele>1552</ele>
        <time>2021-08-11T08:33:53.385Z</time>
      </trkpt>
      <trkpt lat="46.88377" lon="8.54446">
        <ele>1552</ele>
        <time>2021-08-11T08:33:54.385Z</time>
      </trkpt>
      <trkpt lat="46.88377" lon="8.54445">
        <ele>1552</ele>
        <time>2021-08-11T08:33:55.384Z</time>
      </trkpt>
      <trkpt lat="46.88376" lon="8.54444">
        <ele>1552</ele>
        <time>2021-08-11T08:33:56.385Z</time>
      </trkpt>
      <trkpt lat="46.88376" lon="8.54443">
        <ele>1552</ele>
        <time>2021-08-11T08:33:57.384Z</time>
      </trkpt>
      <trkpt lat="46.88376" lon="8.54442">
        <ele>1552</ele>
        <time>2021-08-11T08:33:58.385Z</time>
      </trkpt>
      <trkpt lat="46.88377" lon="8.54441">
        <ele>1552</ele>
        <time>2021-08-11T08:33:59.385Z</time>
      </trkpt>
      <trkpt lat="46.88377" lon="8.5444">
        <ele>1552</ele>
        <time>2021-08-11T08:34:00.385Z</time>
      </trkpt>
      <trkpt lat="46.88377" lon="8.54439">
        <ele>1553</ele>
        <time>2021-08-11T08:34:01.385Z</time>
      </trkpt>
      <trkpt lat="46.88377" lon="8.54438">
        <ele>1553</ele>
        <time>2021-08-11T08:34:02.384Z</time>
      </trkpt>
      <trkpt lat="46.88377" lon="8.54437">
        <ele>1554</ele>
        <time>2021-08-11T08:34:03.385Z</time>
      </trkpt>
      <trkpt lat="46.88378" lon="8.54436">
        <ele>1554</ele>
        <time>2021-08-11T08:34:04.385Z</time>
      </trkpt>
      <trkpt lat="46.88378" lon="8.54435">
        <ele>1554</ele>
        <time>2021-08-11T08:34:05.384Z</time>
      </trkpt>
      <trkpt lat="46.88379" lon="8.54434">
        <ele>1555</ele>
        <time>2021-08-11T08:34:06.385Z</time>
      </trkpt>
      <trkpt lat="46.88379" lon="8.54433">
        <ele>1555</ele>
        <time>2021-08-11T08:34:07.384Z</time>
      </trkpt>
      <trkpt lat="46.88379" lon="8.54432">
        <ele>1555</ele>
        <time>2021-08-11T08:34:08.385Z</time>
      </trkpt>
      <trkpt lat="46.88379" lon="8.54431">
        <ele>1555</ele>
        <time>2021-08-11T08:34:09.385Z</time>
      </trkpt>
      <trkpt lat="46.88379" lon="8.5443">
        <ele>1555</ele>
        <time>2021-08-11T08:34:10.385Z</time>
      </trkpt>
      <trkpt lat="46.88379" lon="8.54429">
        <ele>1555</ele>
        <time>2021-08-11T08:34:11.385Z</time>
      </trkpt>
      <trkpt lat="46.88379" lon="8.54428">
        <ele>1556</ele>
        <time>2021-08-11T08:34:12.384Z</time>
      </trkpt>
      <trkpt lat="46.88379" lon="8.54427">
        <ele>1556</ele>
        <time>2021-08-11T08:34:13.385Z</time>
      </trkpt>
      <trkpt lat="46.88378" lon="8.54427">
        <ele>1556</ele>
        <time>2021-08-11T08:34:14.385Z</time>
      </trkpt>
      <trkpt lat="46.88378" lon="8.54426">
        <ele>1556</ele>
        <time>2021-08-11T08:34:15.384Z</time>
      </trkpt>
      <trkpt lat="46.88378" lon="8.54425">
        <ele>1555</ele>
        <time>2021-08-11T08:34:16.385Z</time>
      </trkpt>
      <trkpt lat="46.88378" lon="8.54425">
        <ele>1555</ele>
        <time>2021-08-11T08:34:17.384Z</time>
      </trkpt>
      <trkpt lat="46.88377" lon="8.54424">
        <ele>1555</ele>
        <time>2021-08-11T08:34:18.385Z</time>
      </trkpt>
      <trkpt lat="46.88377" lon="8.54424">
        <ele>1555</ele>
        <time>2021-08-11T08:34:19.384Z</time>
      </trkpt>
      <trkpt lat="46.88378" lon="8.54423">
        <ele>1556</ele>
        <time>2021-08-11T08:34:20.385Z</time>
      </trkpt>
      <trkpt lat="46.88378" lon="8.54423">
        <ele>1556</ele>
        <time>2021-08-11T08:34:21.385Z</time>
      </trkpt>
      <trkpt lat="46.88378" lon="8.54422">
        <ele>1557</ele>
        <time>2021-08-11T08:34:22.385Z</time>
      </trkpt>
      <trkpt lat="46.88378" lon="8.54421">
        <ele>1557</ele>
        <time>2021-08-11T08:34:23.385Z</time>
      </trkpt>
      <trkpt lat="46.88378" lon="8.54421">
        <ele>1558</ele>
        <time>2021-08-11T08:34:24.385Z</time>
      </trkpt>
      <trkpt lat="46.88378" lon="8.54421">
        <ele>1558</ele>
        <time>2021-08-11T08:34:25.385Z</time>
      </trkpt>
      <trkpt lat="46.88379" lon="8.5442">
        <ele>1559</ele>
        <time>2021-08-11T08:34:26.384Z</time>
      </trkpt>
      <trkpt lat="46.8838" lon="8.54419">
        <ele>1559</ele>
        <time>2021-08-11T08:34:27.385Z</time>
      </trkpt>
      <trkpt lat="46.8838" lon="8.54418">
        <ele>1559</ele>
        <time>2021-08-11T08:34:28.384Z</time>
      </trkpt>
      <trkpt lat="46.8838" lon="8.54418">
        <ele>1559</ele>
        <time>2021-08-11T08:34:29.384Z</time>
      </trkpt>
      <trkpt lat="46.88381" lon="8.54417">
        <ele>1559</ele>
        <time>2021-08-11T08:34:30.385Z</time>
      </trkpt>
      <trkpt lat="46.88381" lon="8.54416">
        <ele>1559</ele>
        <time>2021-08-11T08:34:31.384Z</time>
      </trkpt>
      <trkpt lat="46.88381" lon="8.54415">
        <ele>1559</ele>
        <time>2021-08-11T08:34:32.385Z</time>
      </trkpt>
      <trkpt lat="46.88381" lon="8.54414">
        <ele>1559</ele>
        <time>2021-08-11T08:34:33.385Z</time>
      </trkpt>
      <trkpt lat="46.88381" lon="8.54413">
        <ele>1559</ele>
        <time>2021-08-11T08:34:34.385Z</time>
      </trkpt>
      <trkpt lat="46.88381" lon="8.54413">
        <ele>1559</ele>
        <time>2021-08-11T08:34:35.385Z</time>
      </trkpt>
      <trkpt lat="46.88382" lon="8.54412">
        <ele>1559</ele>
        <time>2021-08-11T08:34:36.384Z</time>
      </trkpt>
      <trkpt lat="46.88382" lon="8.54411">
        <ele>1559</ele>
        <time>2021-08-11T08:34:37.384Z</time>
      </trkpt>
      <trkpt lat="46.88382" lon="8.54411">
        <ele>1559</ele>
        <time>2021-08-11T08:34:38.385Z</time>
      </trkpt>
      <trkpt lat="46.88383" lon="8.5441">
        <ele>1560</ele>
        <time>2021-08-11T08:34:39.384Z</time>
      </trkpt>
      <trkpt lat="46.88383" lon="8.54409">
        <ele>1560</ele>
        <time>2021-08-11T08:34:40.385Z</time>
      </trkpt>
      <trkpt lat="46.88383" lon="8.54409">
        <ele>1560</ele>
        <time>2021-08-11T08:34:41.385Z</time>
      </trkpt>
      <trkpt lat="46.88383" lon="8.54408">
        <ele>1560</ele>
        <time>2021-08-11T08:34:42.385Z</time>
      </trkpt>
      <trkpt lat="46.88384" lon="8.54407">
        <ele>1561</ele>
        <time>2021-08-11T08:34:43.384Z</time>
      </trkpt>
      <trkpt lat="46.88385" lon="8.54406">
        <ele>1561</ele>
        <time>2021-08-11T08:34:44.384Z</time>
      </trkpt>
      <trkpt lat="46.88386" lon="8.54405">
        <ele>1561</ele>
        <time>2021-08-11T08:34:45.385Z</time>
      </trkpt>
      <trkpt lat="46.88387" lon="8.54405">
        <ele>1562</ele>
        <time>2021-08-11T08:34:46.385Z</time>
      </trkpt>
      <trkpt lat="46.88388" lon="8.54404">
        <ele>1562</ele>
        <time>2021-08-11T08:34:47.385Z</time>
      </trkpt>
      <trkpt lat="46.88388" lon="8.54404">
        <ele>1562</ele>
        <time>2021-08-11T08:34:48.385Z</time>
      </trkpt>
      <trkpt lat="46.88388" lon="8.54404">
        <ele>1562</ele>
        <time>2021-08-11T08:34:49.384Z</time>
      </trkpt>
      <trkpt lat="46.88388" lon="8.54403">
        <ele>1562</ele>
        <time>2021-08-11T08:34:50.385Z</time>
      </trkpt>
      <trkpt lat="46.88388" lon="8.54403">
        <ele>1562</ele>
        <time>2021-08-11T08:34:51.385Z</time>
      </trkpt>
      <trkpt lat="46.88389" lon="8.54402">
        <ele>1562</ele>
        <time>2021-08-11T08:34:52.385Z</time>
      </trkpt>
      <trkpt lat="46.88389" lon="8.54401">
        <ele>1563</ele>
        <time>2021-08-11T08:34:53.385Z</time>
      </trkpt>
      <trkpt lat="46.8839" lon="8.54401">
        <ele>1563</ele>
        <time>2021-08-11T08:34:54.385Z</time>
      </trkpt>
      <trkpt lat="46.8839" lon="8.544">
        <ele>1563</ele>
        <time>2021-08-11T08:34:55.385Z</time>
      </trkpt>
      <trkpt lat="46.8839" lon="8.544">
        <ele>1563</ele>
        <time>2021-08-11T08:34:56.384Z</time>
      </trkpt>
      <trkpt lat="46.8839" lon="8.544">
        <ele>1563</ele>
        <time>2021-08-11T08:34:57.385Z</time>
      </trkpt>
      <trkpt lat="46.8839" lon="8.54399">
        <ele>1563</ele>
        <time>2021-08-11T08:34:58.384Z</time>
      </trkpt>
      <trkpt lat="46.8839" lon="8.54399">
        <ele>1563</ele>
        <time>2021-08-11T08:34:59.384Z</time>
      </trkpt>
      <trkpt lat="46.88391" lon="8.54398">
        <ele>1563</ele>
        <time>2021-08-11T08:35:00.385Z</time>
      </trkpt>
      <trkpt lat="46.88391" lon="8.54397">
        <ele>1564</ele>
        <time>2021-08-11T08:35:01.385Z</time>
      </trkpt>
      <trkpt lat="46.88391" lon="8.54397">
        <ele>1564</ele>
        <time>2021-08-11T08:35:02.385Z</time>
      </trkpt>
      <trkpt lat="46.88391" lon="8.54396">
        <ele>1564</ele>
        <time>2021-08-11T08:35:03.384Z</time>
      </trkpt>
      <trkpt lat="46.88392" lon="8.54396">
        <ele>1564</ele>
        <time>2021-08-11T08:35:04.385Z</time>
      </trkpt>
      <trkpt lat="46.88392" lon="8.54395">
        <ele>1565</ele>
        <time>2021-08-11T08:35:05.385Z</time>
      </trkpt>
      <trkpt lat="46.88392" lon="8.54395">
        <ele>1566</ele>
        <time>2021-08-11T08:35:06.385Z</time>
      </trkpt>
      <trkpt lat="46.88393" lon="8.54394">
        <ele>1566</ele>
        <time>2021-08-11T08:35:07.385Z</time>
      </trkpt>
      <trkpt lat="46.88393" lon="8.54393">
        <ele>1567</ele>
        <time>2021-08-11T08:35:08.385Z</time>
      </trkpt>
      <trkpt lat="46.88394" lon="8.54393">
        <ele>1567</ele>
        <time>2021-08-11T08:35:09.385Z</time>
      </trkpt>
      <trkpt lat="46.88394" lon="8.54392">
        <ele>1567</ele>
        <time>2021-08-11T08:35:10.385Z</time>
      </trkpt>
      <trkpt lat="46.88394" lon="8.54391">
        <ele>1568</ele>
        <time>2021-08-11T08:35:11.385Z</time>
      </trkpt>
      <trkpt lat="46.88394" lon="8.54391">
        <ele>1568</ele>
        <time>2021-08-11T08:35:12.385Z</time>
      </trkpt>
      <trkpt lat="46.88394" lon="8.54391">
        <ele>1568</ele>
        <time>2021-08-11T08:35:13.385Z</time>
      </trkpt>
      <trkpt lat="46.88395" lon="8.54391">
        <ele>1569</ele>
        <time>2021-08-11T08:35:14.385Z</time>
      </trkpt>
      <trkpt lat="46.88395" lon="8.5439">
        <ele>1568</ele>
        <time>2021-08-11T08:35:15.384Z</time>
      </trkpt>
      <trkpt lat="46.88395" lon="8.5439">
        <ele>1568</ele>
        <time>2021-08-11T08:35:16.384Z</time>
      </trkpt>
      <trkpt lat="46.88395" lon="8.54389">
        <ele>1568</ele>
        <time>2021-08-11T08:35:17.384Z</time>
      </trkpt>
      <trkpt lat="46.88395" lon="8.54389">
        <ele>1568</ele>
        <time>2021-08-11T08:35:18.385Z</time>
      </trkpt>
      <trkpt lat="46.88394" lon="8.5439">
        <ele>1568</ele>
        <time>2021-08-11T08:35:19.385Z</time>
      </trkpt>
      <trkpt lat="46.88395" lon="8.54389">
        <ele>1569</ele>
        <time>2021-08-11T08:35:20.384Z</time>
      </trkpt>
      <trkpt lat="46.88395" lon="8.54389">
        <ele>1569</ele>
        <time>2021-08-11T08:35:21.385Z</time>
      </trkpt>
      <trkpt lat="46.88396" lon="8.54388">
        <ele>1569</ele>
        <time>2021-08-11T08:35:22.384Z</time>
      </trkpt>
      <trkpt lat="46.88396" lon="8.54387">
        <ele>1569</ele>
        <time>2021-08-11T08:35:23.384Z</time>
      </trkpt>
      <trkpt lat="46.88397" lon="8.54386">
        <ele>1569</ele>
        <time>2021-08-11T08:35:24.385Z</time>
      </trkpt>
      <trkpt lat="46.88397" lon="8.54386">
        <ele>1569</ele>
        <time>2021-08-11T08:35:25.384Z</time>
      </trkpt>
      <trkpt lat="46.88398" lon="8.54386">
        <ele>1569</ele>
        <time>2021-08-11T08:35:26.384Z</time>
      </trkpt>
      <trkpt lat="46.88398" lon="8.54386">
        <ele>1569</ele>
        <time>2021-08-11T08:35:27.385Z</time>
      </trkpt>
      <trkpt lat="46.88399" lon="8.54385">
        <ele>1570</ele>
        <time>2021-08-11T08:35:28.385Z</time>
      </trkpt>
      <trkpt lat="46.88399" lon="8.54384">
        <ele>1570</ele>
        <time>2021-08-11T08:35:29.384Z</time>
      </trkpt>
      <trkpt lat="46.884" lon="8.54384">
        <ele>1570</ele>
        <time>2021-08-11T08:35:30.385Z</time>
      </trkpt>
      <trkpt lat="46.884" lon="8.54383">
        <ele>1571</ele>
        <time>2021-08-11T08:35:31.384Z</time>
      </trkpt>
      <trkpt lat="46.88401" lon="8.54383">
        <ele>1571</ele>
        <time>2021-08-11T08:35:32.384Z</time>
      </trkpt>
      <trkpt lat="46.88401" lon="8.54383">
        <ele>1571</ele>
        <time>2021-08-11T08:35:33.384Z</time>
      </trkpt>
      <trkpt lat="46.88402" lon="8.54383">
        <ele>1572</ele>
        <time>2021-08-11T08:35:34.384Z</time>
      </trkpt>
      <trkpt lat="46.88402" lon="8.54383">
        <ele>1573</ele>
        <time>2021-08-11T08:35:35.385Z</time>
      </trkpt>
      <trkpt lat="46.88403" lon="8.54382">
        <ele>1573</ele>
        <time>2021-08-11T08:35:36.384Z</time>
      </trkpt>
      <trkpt lat="46.88403" lon="8.54382">
        <ele>1573</ele>
        <time>2021-08-11T08:35:37.384Z</time>
      </trkpt>
      <trkpt lat="46.88404" lon="8.54382">
        <ele>1574</ele>
        <time>2021-08-11T08:35:38.384Z</time>
      </trkpt>
      <trkpt lat="46.88404" lon="8.54381">
        <ele>1574</ele>
        <time>2021-08-11T08:35:39.384Z</time>
      </trkpt>
      <trkpt lat="46.88404" lon="8.54381">
        <ele>1574</ele>
        <time>2021-08-11T08:35:40.384Z</time>
      </trkpt>
      <trkpt lat="46.88405" lon="8.5438">
        <ele>1574</ele>
        <time>2021-08-11T08:35:41.384Z</time>
      </trkpt>
      <trkpt lat="46.88405" lon="8.54379">
        <ele>1575</ele>
        <time>2021-08-11T08:35:42.384Z</time>
      </trkpt>
      <trkpt lat="46.88406" lon="8.54379">
        <ele>1575</ele>
        <time>2021-08-11T08:35:43.384Z</time>
      </trkpt>
      <trkpt lat="46.88406" lon="8.54378">
        <ele>1575</ele>
        <time>2021-08-11T08:35:44.384Z</time>
      </trkpt>
      <trkpt lat="46.88407" lon="8.54378">
        <ele>1575</ele>
        <time>2021-08-11T08:35:45.384Z</time>
      </trkpt>
      <trkpt lat="46.88407" lon="8.54378">
        <ele>1575</ele>
        <time>2021-08-11T08:35:46.384Z</time>
      </trkpt>
      <trkpt lat="46.88407" lon="8.54377">
        <ele>1575</ele>
        <time>2021-08-11T08:35:47.384Z</time>
      </trkpt>
      <trkpt lat="46.88407" lon="8.54377">
        <ele>1575</ele>
        <time>2021-08-11T08:35:48.385Z</time>
      </trkpt>
      <trkpt lat="46.88407" lon="8.54377">
        <ele>1574</ele>
        <time>2021-08-11T08:35:49.385Z</time>
      </trkpt>
      <trkpt lat="46.88407" lon="8.54376">
        <ele>1574</ele>
        <time>2021-08-11T08:35:50.385Z</time>
      </trkpt>
      <trkpt lat="46.88407" lon="8.54376">
        <ele>1574</ele>
        <time>2021-08-11T08:35:51.385Z</time>
      </trkpt>
      <trkpt lat="46.88407" lon="8.54375">
        <ele>1574</ele>
        <time>2021-08-11T08:35:52.385Z</time>
      </trkpt>
      <trkpt lat="46.88407" lon="8.54374">
        <ele>1574</ele>
        <time>2021-08-11T08:35:53.385Z</time>
      </trkpt>
      <trkpt lat="46.88408" lon="8.54374">
        <ele>1574</ele>
        <time>2021-08-11T08:35:54.385Z</time>
      </trkpt>
      <trkpt lat="46.88408" lon="8.54374">
        <ele>1574</ele>
        <time>2021-08-11T08:35:55.385Z</time>
      </trkpt>
      <trkpt lat="46.88409" lon="8.54374">
        <ele>1574</ele>
        <time>2021-08-11T08:35:56.384Z</time>
      </trkpt>
      <trkpt lat="46.88409" lon="8.54373">
        <ele>1574</ele>
        <time>2021-08-11T08:35:57.385Z</time>
      </trkpt>
      <trkpt lat="46.88409" lon="8.54373">
        <ele>1574</ele>
        <time>2021-08-11T08:35:58.384Z</time>
      </trkpt>
      <trkpt lat="46.88409" lon="8.54373">
        <ele>1575</ele>
        <time>2021-08-11T08:35:59.386Z</time>
      </trkpt>
      <trkpt lat="46.88409" lon="8.54373">
        <ele>1576</ele>
        <time>2021-08-11T08:36:00.386Z</time>
      </trkpt>
      <trkpt lat="46.88409" lon="8.54373">
        <ele>1575</ele>
        <time>2021-08-11T08:36:01.385Z</time>
      </trkpt>
      <trkpt lat="46.8841" lon="8.54373">
        <ele>1575</ele>
        <time>2021-08-11T08:36:02.386Z</time>
      </trkpt>
      <trkpt lat="46.8841" lon="8.54373">
        <ele>1576</ele>
        <time>2021-08-11T08:36:03.386Z</time>
      </trkpt>
      <trkpt lat="46.8841" lon="8.54372">
        <ele>1576</ele>
        <time>2021-08-11T08:36:04.385Z</time>
      </trkpt>
      <trkpt lat="46.88407" lon="8.5437">
        <ele>1577</ele>
        <time>2021-08-11T08:36:05.386Z</time>
      </trkpt>
      <trkpt lat="46.88409" lon="8.54368">
        <ele>1577</ele>
        <time>2021-08-11T08:36:06.387Z</time>
      </trkpt>
      <trkpt lat="46.88408" lon="8.54368">
        <ele>1577</ele>
        <time>2021-08-11T08:36:07.386Z</time>
      </trkpt>
      <trkpt lat="46.88409" lon="8.54369">
        <ele>1576</ele>
        <time>2021-08-11T08:36:08.386Z</time>
      </trkpt>
      <trkpt lat="46.8841" lon="8.54368">
        <ele>1576</ele>
        <time>2021-08-11T08:36:09.387Z</time>
      </trkpt>
      <trkpt lat="46.88411" lon="8.54367">
        <ele>1576</ele>
        <time>2021-08-11T08:36:10.387Z</time>
      </trkpt>
      <trkpt lat="46.88412" lon="8.54366">
        <ele>1576</ele>
        <time>2021-08-11T08:36:11.386Z</time>
      </trkpt>
      <trkpt lat="46.88412" lon="8.54366">
        <ele>1576</ele>
        <time>2021-08-11T08:36:12.386Z</time>
      </trkpt>
      <trkpt lat="46.88413" lon="8.54365">
        <ele>1577</ele>
        <time>2021-08-11T08:36:13.386Z</time>
      </trkpt>
      <trkpt lat="46.88413" lon="8.54365">
        <ele>1577</ele>
        <time>2021-08-11T08:36:14.386Z</time>
      </trkpt>
      <trkpt lat="46.88414" lon="8.54364">
        <ele>1577</ele>
        <time>2021-08-11T08:36:15.386Z</time>
      </trkpt>
      <trkpt lat="46.88414" lon="8.54362">
        <ele>1580</ele>
        <time>2021-08-11T08:36:16.386Z</time>
      </trkpt>
      <trkpt lat="46.88415" lon="8.54362">
        <ele>1580</ele>
        <time>2021-08-11T08:36:17.386Z</time>
      </trkpt>
      <trkpt lat="46.88415" lon="8.54362">
        <ele>1579</ele>
        <time>2021-08-11T08:36:18.386Z</time>
      </trkpt>
      <trkpt lat="46.88416" lon="8.54361">
        <ele>1579</ele>
        <time>2021-08-11T08:36:19.386Z</time>
      </trkpt>
      <trkpt lat="46.88416" lon="8.54361">
        <ele>1579</ele>
        <time>2021-08-11T08:36:20.386Z</time>
      </trkpt>
      <trkpt lat="46.88417" lon="8.5436">
        <ele>1580</ele>
        <time>2021-08-11T08:36:21.387Z</time>
      </trkpt>
      <trkpt lat="46.88417" lon="8.54359">
        <ele>1580</ele>
        <time>2021-08-11T08:36:22.387Z</time>
      </trkpt>
      <trkpt lat="46.88417" lon="8.54359">
        <ele>1581</ele>
        <time>2021-08-11T08:36:23.386Z</time>
      </trkpt>
      <trkpt lat="46.88417" lon="8.54358">
        <ele>1581</ele>
        <time>2021-08-11T08:36:24.386Z</time>
      </trkpt>
      <trkpt lat="46.88418" lon="8.54357">
        <ele>1581</ele>
        <time>2021-08-11T08:36:25.386Z</time>
      </trkpt>
      <trkpt lat="46.88418" lon="8.54357">
        <ele>1582</ele>
        <time>2021-08-11T08:36:26.386Z</time>
      </trkpt>
      <trkpt lat="46.88418" lon="8.54356">
        <ele>1582</ele>
        <time>2021-08-11T08:36:27.387Z</time>
      </trkpt>
      <trkpt lat="46.88419" lon="8.54355">
        <ele>1582</ele>
        <time>2021-08-11T08:36:28.386Z</time>
      </trkpt>
      <trkpt lat="46.88419" lon="8.54355">
        <ele>1583</ele>
        <time>2021-08-11T08:36:29.386Z</time>
      </trkpt>
      <trkpt lat="46.88419" lon="8.54354">
        <ele>1583</ele>
        <time>2021-08-11T08:36:30.386Z</time>
      </trkpt>
      <trkpt lat="46.88419" lon="8.54353">
        <ele>1583</ele>
        <time>2021-08-11T08:36:31.387Z</time>
      </trkpt>
      <trkpt lat="46.8842" lon="8.54353">
        <ele>1583</ele>
        <time>2021-08-11T08:36:32.386Z</time>
      </trkpt>
      <trkpt lat="46.8842" lon="8.54352">
        <ele>1583</ele>
        <time>2021-08-11T08:36:33.387Z</time>
      </trkpt>
      <trkpt lat="46.8842" lon="8.54351">
        <ele>1583</ele>
        <time>2021-08-11T08:36:34.386Z</time>
      </trkpt>
      <trkpt lat="46.88421" lon="8.5435">
        <ele>1583</ele>
        <time>2021-08-11T08:36:35.386Z</time>
      </trkpt>
      <trkpt lat="46.88421" lon="8.5435">
        <ele>1583</ele>
        <time>2021-08-11T08:36:36.387Z</time>
      </trkpt>
      <trkpt lat="46.88421" lon="8.5435">
        <ele>1582</ele>
        <time>2021-08-11T08:36:37.387Z</time>
      </trkpt>
      <trkpt lat="46.88421" lon="8.5435">
        <ele>1582</ele>
        <time>2021-08-11T08:36:38.386Z</time>
      </trkpt>
      <trkpt lat="46.88421" lon="8.54349">
        <ele>1581</ele>
        <time>2021-08-11T08:36:39.387Z</time>
      </trkpt>
      <trkpt lat="46.88421" lon="8.54348">
        <ele>1581</ele>
        <time>2021-08-11T08:36:40.386Z</time>
      </trkpt>
      <trkpt lat="46.88422" lon="8.54348">
        <ele>1581</ele>
        <time>2021-08-11T08:36:41.386Z</time>
      </trkpt>
      <trkpt lat="46.88422" lon="8.54347">
        <ele>1581</ele>
        <time>2021-08-11T08:36:42.386Z</time>
      </trkpt>
      <trkpt lat="46.88422" lon="8.54347">
        <ele>1581</ele>
        <time>2021-08-11T08:36:43.386Z</time>
      </trkpt>
      <trkpt lat="46.88422" lon="8.54346">
        <ele>1581</ele>
        <time>2021-08-11T08:36:44.386Z</time>
      </trkpt>
      <trkpt lat="46.88422" lon="8.54346">
        <ele>1581</ele>
        <time>2021-08-11T08:36:45.386Z</time>
      </trkpt>
      <trkpt lat="46.88422" lon="8.54345">
        <ele>1581</ele>
        <time>2021-08-11T08:36:46.386Z</time>
      </trkpt>
      <trkpt lat="46.88422" lon="8.54345">
        <ele>1581</ele>
        <time>2021-08-11T08:36:47.386Z</time>
      </trkpt>
      <trkpt lat="46.88422" lon="8.54344">
        <ele>1581</ele>
        <time>2021-08-11T08:36:48.388Z</time>
      </trkpt>
      <trkpt lat="46.88422" lon="8.54343">
        <ele>1581</ele>
        <time>2021-08-11T08:36:49.387Z</time>
      </trkpt>
      <trkpt lat="46.88422" lon="8.54343">
        <ele>1580</ele>
        <time>2021-08-11T08:36:50.387Z</time>
      </trkpt>
      <trkpt lat="46.88422" lon="8.54342">
        <ele>1580</ele>
        <time>2021-08-11T08:36:51.387Z</time>
      </trkpt>
      <trkpt lat="46.88422" lon="8.54341">
        <ele>1580</ele>
        <time>2021-08-11T08:36:52.387Z</time>
      </trkpt>
      <trkpt lat="46.88423" lon="8.5434">
        <ele>1580</ele>
        <time>2021-08-11T08:36:53.387Z</time>
      </trkpt>
      <trkpt lat="46.88423" lon="8.5434">
        <ele>1580</ele>
        <time>2021-08-11T08:36:54.387Z</time>
      </trkpt>
      <trkpt lat="46.88423" lon="8.54339">
        <ele>1580</ele>
        <time>2021-08-11T08:36:55.388Z</time>
      </trkpt>
      <trkpt lat="46.88423" lon="8.54339">
        <ele>1580</ele>
        <time>2021-08-11T08:36:56.387Z</time>
      </trkpt>
      <trkpt lat="46.88424" lon="8.54339">
        <ele>1580</ele>
        <time>2021-08-11T08:36:57.387Z</time>
      </trkpt>
      <trkpt lat="46.88423" lon="8.54339">
        <ele>1580</ele>
        <time>2021-08-11T08:36:58.387Z</time>
      </trkpt>
      <trkpt lat="46.88423" lon="8.54338">
        <ele>1579</ele>
        <time>2021-08-11T08:36:59.387Z</time>
      </trkpt>
      <trkpt lat="46.88423" lon="8.54338">
        <ele>1579</ele>
        <time>2021-08-11T08:37:00.388Z</time>
      </trkpt>
      <trkpt lat="46.88424" lon="8.54337">
        <ele>1578</ele>
        <time>2021-08-11T08:37:01.387Z</time>
      </trkpt>
      <trkpt lat="46.88424" lon="8.54337">
        <ele>1578</ele>
        <time>2021-08-11T08:37:02.387Z</time>
      </trkpt>
      <trkpt lat="46.88423" lon="8.54336">
        <ele>1578</ele>
        <time>2021-08-11T08:37:03.387Z</time>
      </trkpt>
      <trkpt lat="46.88422" lon="8.54336">
        <ele>1577</ele>
        <time>2021-08-11T08:37:04.388Z</time>
      </trkpt>
      <trkpt lat="46.88423" lon="8.54336">
        <ele>1576</ele>
        <time>2021-08-11T08:37:05.387Z</time>
      </trkpt>
      <trkpt lat="46.88423" lon="8.54335">
        <ele>1576</ele>
        <time>2021-08-11T08:37:06.388Z</time>
      </trkpt>
      <trkpt lat="46.88424" lon="8.54335">
        <ele>1575</ele>
        <time>2021-08-11T08:37:07.387Z</time>
      </trkpt>
      <trkpt lat="46.88424" lon="8.54335">
        <ele>1575</ele>
        <time>2021-08-11T08:37:08.387Z</time>
      </trkpt>
      <trkpt lat="46.88425" lon="8.54333">
        <ele>1577</ele>
        <time>2021-08-11T08:37:09.387Z</time>
      </trkpt>
      <trkpt lat="46.88426" lon="8.54331">
        <ele>1579</ele>
        <time>2021-08-11T08:37:10.388Z</time>
      </trkpt>
      <trkpt lat="46.88427" lon="8.5433">
        <ele>1579</ele>
        <time>2021-08-11T08:37:11.388Z</time>
      </trkpt>
      <trkpt lat="46.88427" lon="8.5433">
        <ele>1579</ele>
        <time>2021-08-11T08:37:12.387Z</time>
      </trkpt>
      <trkpt lat="46.88427" lon="8.54329">
        <ele>1579</ele>
        <time>2021-08-11T08:37:13.388Z</time>
      </trkpt>
      <trkpt lat="46.88427" lon="8.54328">
        <ele>1579</ele>
        <time>2021-08-11T08:37:14.387Z</time>
      </trkpt>
      <trkpt lat="46.88427" lon="8.54328">
        <ele>1579</ele>
        <time>2021-08-11T08:37:15.388Z</time>
      </trkpt>
      <trkpt lat="46.88427" lon="8.54328">
        <ele>1580</ele>
        <time>2021-08-11T08:37:16.388Z</time>
      </trkpt>
      <trkpt lat="46.88426" lon="8.54326">
        <ele>1579</ele>
        <time>2021-08-11T08:37:17.389Z</time>
      </trkpt>
      <trkpt lat="46.88425" lon="8.54325">
        <ele>1579</ele>
        <time>2021-08-11T08:37:18.389Z</time>
      </trkpt>
      <trkpt lat="46.88425" lon="8.54325">
        <ele>1579</ele>
        <time>2021-08-11T08:37:19.388Z</time>
      </trkpt>
      <trkpt lat="46.88425" lon="8.54325">
        <ele>1579</ele>
        <time>2021-08-11T08:37:20.388Z</time>
      </trkpt>
      <trkpt lat="46.88425" lon="8.54324">
        <ele>1578</ele>
        <time>2021-08-11T08:37:21.389Z</time>
      </trkpt>
      <trkpt lat="46.88425" lon="8.54324">
        <ele>1578</ele>
        <time>2021-08-11T08:37:22.388Z</time>
      </trkpt>
      <trkpt lat="46.88426" lon="8.54324">
        <ele>1579</ele>
        <time>2021-08-11T08:37:23.389Z</time>
      </trkpt>
      <trkpt lat="46.88426" lon="8.54324">
        <ele>1579</ele>
        <time>2021-08-11T08:37:24.388Z</time>
      </trkpt>
      <trkpt lat="46.88428" lon="8.54322">
        <ele>1578</ele>
        <time>2021-08-11T08:37:25.390Z</time>
      </trkpt>
      <trkpt lat="46.88428" lon="8.54321">
        <ele>1578</ele>
        <time>2021-08-11T08:37:26.389Z</time>
      </trkpt>
      <trkpt lat="46.88427" lon="8.5432">
        <ele>1578</ele>
        <time>2021-08-11T08:37:27.389Z</time>
      </trkpt>
      <trkpt lat="46.88427" lon="8.54319">
        <ele>1577</ele>
        <time>2021-08-11T08:37:28.389Z</time>
      </trkpt>
      <trkpt lat="46.88427" lon="8.54318">
        <ele>1577</ele>
        <time>2021-08-11T08:37:29.390Z</time>
      </trkpt>
      <trkpt lat="46.88427" lon="8.54317">
        <ele>1577</ele>
        <time>2021-08-11T08:37:30.389Z</time>
      </trkpt>
      <trkpt lat="46.88427" lon="8.54316">
        <ele>1576</ele>
        <time>2021-08-11T08:37:31.390Z</time>
      </trkpt>
      <trkpt lat="46.88427" lon="8.54316">
        <ele>1576</ele>
        <time>2021-08-11T08:37:32.390Z</time>
      </trkpt>
      <trkpt lat="46.88427" lon="8.54316">
        <ele>1576</ele>
        <time>2021-08-11T08:37:33.390Z</time>
      </trkpt>
      <trkpt lat="46.88428" lon="8.54316">
        <ele>1577</ele>
        <time>2021-08-11T08:37:34.390Z</time>
      </trkpt>
      <trkpt lat="46.88428" lon="8.54316">
        <ele>1577</ele>
        <time>2021-08-11T08:37:35.391Z</time>
      </trkpt>
      <trkpt lat="46.88429" lon="8.54315">
        <ele>1577</ele>
        <time>2021-08-11T08:37:36.391Z</time>
      </trkpt>
      <trkpt lat="46.88429" lon="8.54315">
        <ele>1578</ele>
        <time>2021-08-11T08:37:37.390Z</time>
      </trkpt>
      <trkpt lat="46.88429" lon="8.54314">
        <ele>1577</ele>
        <time>2021-08-11T08:37:38.391Z</time>
      </trkpt>
      <trkpt lat="46.88429" lon="8.54312">
        <ele>1577</ele>
        <time>2021-08-11T08:37:39.391Z</time>
      </trkpt>
      <trkpt lat="46.88429" lon="8.54311">
        <ele>1578</ele>
        <time>2021-08-11T08:37:40.391Z</time>
      </trkpt>
      <trkpt lat="46.88429" lon="8.54311">
        <ele>1578</ele>
        <time>2021-08-11T08:37:41.390Z</time>
      </trkpt>
      <trkpt lat="46.88429" lon="8.5431">
        <ele>1578</ele>
        <time>2021-08-11T08:37:42.391Z</time>
      </trkpt>
      <trkpt lat="46.88429" lon="8.5431">
        <ele>1578</ele>
        <time>2021-08-11T08:37:43.391Z</time>
      </trkpt>
      <trkpt lat="46.88429" lon="8.54309">
        <ele>1578</ele>
        <time>2021-08-11T08:37:44.391Z</time>
      </trkpt>
      <trkpt lat="46.88429" lon="8.54308">
        <ele>1578</ele>
        <time>2021-08-11T08:37:45.390Z</time>
      </trkpt>
      <trkpt lat="46.88429" lon="8.54307">
        <ele>1578</ele>
        <time>2021-08-11T08:37:46.390Z</time>
      </trkpt>
      <trkpt lat="46.88428" lon="8.54307">
        <ele>1578</ele>
        <time>2021-08-11T08:37:47.391Z</time>
      </trkpt>
      <trkpt lat="46.88428" lon="8.54306">
        <ele>1578</ele>
        <time>2021-08-11T08:37:48.390Z</time>
      </trkpt>
      <trkpt lat="46.88429" lon="8.54306">
        <ele>1578</ele>
        <time>2021-08-11T08:37:49.391Z</time>
      </trkpt>
      <trkpt lat="46.88431" lon="8.54304">
        <ele>1581</ele>
        <time>2021-08-11T08:37:50.393Z</time>
      </trkpt>
      <trkpt lat="46.88431" lon="8.54303">
        <ele>1581</ele>
        <time>2021-08-11T08:37:51.392Z</time>
      </trkpt>
      <trkpt lat="46.88432" lon="8.543">
        <ele>1580</ele>
        <time>2021-08-11T08:37:52.393Z</time>
      </trkpt>
      <trkpt lat="46.88432" lon="8.543">
        <ele>1581</ele>
        <time>2021-08-11T08:37:53.392Z</time>
      </trkpt>
      <trkpt lat="46.88433" lon="8.54299">
        <ele>1582</ele>
        <time>2021-08-11T08:37:54.393Z</time>
      </trkpt>
      <trkpt lat="46.88433" lon="8.54299">
        <ele>1582</ele>
        <time>2021-08-11T08:37:55.393Z</time>
      </trkpt>
      <trkpt lat="46.88434" lon="8.54299">
        <ele>1582</ele>
        <time>2021-08-11T08:37:56.392Z</time>
      </trkpt>
      <trkpt lat="46.88434" lon="8.54298">
        <ele>1582</ele>
        <time>2021-08-11T08:37:57.393Z</time>
      </trkpt>
      <trkpt lat="46.88434" lon="8.54298">
        <ele>1582</ele>
        <time>2021-08-11T08:37:58.393Z</time>
      </trkpt>
      <trkpt lat="46.88435" lon="8.54297">
        <ele>1582</ele>
        <time>2021-08-11T08:37:59.393Z</time>
      </trkpt>
      <trkpt lat="46.88435" lon="8.54297">
        <ele>1583</ele>
        <time>2021-08-11T08:38:00.392Z</time>
      </trkpt>
      <trkpt lat="46.88436" lon="8.54296">
        <ele>1583</ele>
        <time>2021-08-11T08:38:01.393Z</time>
      </trkpt>
      <trkpt lat="46.88437" lon="8.54296">
        <ele>1584</ele>
        <time>2021-08-11T08:38:02.392Z</time>
      </trkpt>
      <trkpt lat="46.88437" lon="8.54296">
        <ele>1584</ele>
        <time>2021-08-11T08:38:03.393Z</time>
      </trkpt>
      <trkpt lat="46.88438" lon="8.54295">
        <ele>1584</ele>
        <time>2021-08-11T08:38:04.393Z</time>
      </trkpt>
      <trkpt lat="46.88438" lon="8.54295">
        <ele>1584</ele>
        <time>2021-08-11T08:38:05.393Z</time>
      </trkpt>
      <trkpt lat="46.88438" lon="8.54294">
        <ele>1584</ele>
        <time>2021-08-11T08:38:06.393Z</time>
      </trkpt>
      <trkpt lat="46.88438" lon="8.54294">
        <ele>1584</ele>
        <time>2021-08-11T08:38:07.393Z</time>
      </trkpt>
      <trkpt lat="46.88439" lon="8.54293">
        <ele>1584</ele>
        <time>2021-08-11T08:38:08.393Z</time>
      </trkpt>
      <trkpt lat="46.88439" lon="8.54293">
        <ele>1584</ele>
        <time>2021-08-11T08:38:09.393Z</time>
      </trkpt>
      <trkpt lat="46.88439" lon="8.54292">
        <ele>1584</ele>
        <time>2021-08-11T08:38:10.393Z</time>
      </trkpt>
      <trkpt lat="46.8844" lon="8.54291">
        <ele>1584</ele>
        <time>2021-08-11T08:38:11.392Z</time>
      </trkpt>
      <trkpt lat="46.8844" lon="8.54291">
        <ele>1584</ele>
        <time>2021-08-11T08:38:12.393Z</time>
      </trkpt>
      <trkpt lat="46.88441" lon="8.5429">
        <ele>1583</ele>
        <time>2021-08-11T08:38:13.392Z</time>
      </trkpt>
      <trkpt lat="46.88441" lon="8.54289">
        <ele>1583</ele>
        <time>2021-08-11T08:38:14.393Z</time>
      </trkpt>
      <trkpt lat="46.88441" lon="8.54289">
        <ele>1584</ele>
        <time>2021-08-11T08:38:15.392Z</time>
      </trkpt>
      <trkpt lat="46.88442" lon="8.54289">
        <ele>1584</ele>
        <time>2021-08-11T08:38:16.393Z</time>
      </trkpt>
      <trkpt lat="46.88442" lon="8.54288">
        <ele>1585</ele>
        <time>2021-08-11T08:38:17.393Z</time>
      </trkpt>
      <trkpt lat="46.88442" lon="8.54287">
        <ele>1585</ele>
        <time>2021-08-11T08:38:18.393Z</time>
      </trkpt>
      <trkpt lat="46.88442" lon="8.54287">
        <ele>1585</ele>
        <time>2021-08-11T08:38:19.393Z</time>
      </trkpt>
      <trkpt lat="46.88442" lon="8.54286">
        <ele>1585</ele>
        <time>2021-08-11T08:38:20.393Z</time>
      </trkpt>
      <trkpt lat="46.88443" lon="8.54286">
        <ele>1586</ele>
        <time>2021-08-11T08:38:21.393Z</time>
      </trkpt>
      <trkpt lat="46.88443" lon="8.54285">
        <ele>1586</ele>
        <time>2021-08-11T08:38:22.393Z</time>
      </trkpt>
      <trkpt lat="46.88444" lon="8.54285">
        <ele>1587</ele>
        <time>2021-08-11T08:38:23.393Z</time>
      </trkpt>
      <trkpt lat="46.88445" lon="8.54284">
        <ele>1587</ele>
        <time>2021-08-11T08:38:24.393Z</time>
      </trkpt>
      <trkpt lat="46.88445" lon="8.54283">
        <ele>1588</ele>
        <time>2021-08-11T08:38:25.393Z</time>
      </trkpt>
      <trkpt lat="46.88445" lon="8.54282">
        <ele>1589</ele>
        <time>2021-08-11T08:38:26.393Z</time>
      </trkpt>
      <trkpt lat="46.88446" lon="8.54281">
        <ele>1588</ele>
        <time>2021-08-11T08:38:27.392Z</time>
      </trkpt>
      <trkpt lat="46.88446" lon="8.5428">
        <ele>1588</ele>
        <time>2021-08-11T08:38:28.393Z</time>
      </trkpt>
      <trkpt lat="46.88446" lon="8.5428">
        <ele>1588</ele>
        <time>2021-08-11T08:38:29.393Z</time>
      </trkpt>
      <trkpt lat="46.88447" lon="8.54279">
        <ele>1588</ele>
        <time>2021-08-11T08:38:30.393Z</time>
      </trkpt>
      <trkpt lat="46.88448" lon="8.54279">
        <ele>1589</ele>
        <time>2021-08-11T08:38:31.392Z</time>
      </trkpt>
      <trkpt lat="46.88448" lon="8.54278">
        <ele>1589</ele>
        <time>2021-08-11T08:38:32.392Z</time>
      </trkpt>
      <trkpt lat="46.88448" lon="8.54278">
        <ele>1589</ele>
        <time>2021-08-11T08:38:33.393Z</time>
      </trkpt>
      <trkpt lat="46.88448" lon="8.54277">
        <ele>1589</ele>
        <time>2021-08-11T08:38:34.393Z</time>
      </trkpt>
      <trkpt lat="46.88448" lon="8.54277">
        <ele>1589</ele>
        <time>2021-08-11T08:38:35.393Z</time>
      </trkpt>
      <trkpt lat="46.88447" lon="8.54276">
        <ele>1588</ele>
        <time>2021-08-11T08:38:36.393Z</time>
      </trkpt>
      <trkpt lat="46.88447" lon="8.54275">
        <ele>1588</ele>
        <time>2021-08-11T08:38:37.392Z</time>
      </trkpt>
      <trkpt lat="46.88447" lon="8.54274">
        <ele>1588</ele>
        <time>2021-08-11T08:38:38.392Z</time>
      </trkpt>
      <trkpt lat="46.88447" lon="8.54273">
        <ele>1589</ele>
        <time>2021-08-11T08:38:39.392Z</time>
      </trkpt>
      <trkpt lat="46.88448" lon="8.54273">
        <ele>1588</ele>
        <time>2021-08-11T08:38:40.393Z</time>
      </trkpt>
      <trkpt lat="46.88448" lon="8.54272">
        <ele>1589</ele>
        <time>2021-08-11T08:38:41.393Z</time>
      </trkpt>
      <trkpt lat="46.88448" lon="8.54272">
        <ele>1589</ele>
        <time>2021-08-11T08:38:42.393Z</time>
      </trkpt>
      <trkpt lat="46.88449" lon="8.54272">
        <ele>1589</ele>
        <time>2021-08-11T08:38:43.392Z</time>
      </trkpt>
      <trkpt lat="46.8845" lon="8.54271">
        <ele>1589</ele>
        <time>2021-08-11T08:38:44.392Z</time>
      </trkpt>
      <trkpt lat="46.8845" lon="8.54271">
        <ele>1589</ele>
        <time>2021-08-11T08:38:45.392Z</time>
      </trkpt>
      <trkpt lat="46.8845" lon="8.5427">
        <ele>1589</ele>
        <time>2021-08-11T08:38:46.392Z</time>
      </trkpt>
      <trkpt lat="46.8845" lon="8.54269">
        <ele>1589</ele>
        <time>2021-08-11T08:38:47.392Z</time>
      </trkpt>
      <trkpt lat="46.8845" lon="8.54268">
        <ele>1590</ele>
        <time>2021-08-11T08:38:48.393Z</time>
      </trkpt>
      <trkpt lat="46.88451" lon="8.54268">
        <ele>1590</ele>
        <time>2021-08-11T08:38:49.393Z</time>
      </trkpt>
      <trkpt lat="46.88451" lon="8.54267">
        <ele>1591</ele>
        <time>2021-08-11T08:38:50.393Z</time>
      </trkpt>
      <trkpt lat="46.88453" lon="8.54266">
        <ele>1591</ele>
        <time>2021-08-11T08:38:51.393Z</time>
      </trkpt>
      <trkpt lat="46.88453" lon="8.54265">
        <ele>1592</ele>
        <time>2021-08-11T08:38:52.393Z</time>
      </trkpt>
      <trkpt lat="46.88453" lon="8.54265">
        <ele>1593</ele>
        <time>2021-08-11T08:38:53.393Z</time>
      </trkpt>
      <trkpt lat="46.88453" lon="8.54265">
        <ele>1594</ele>
        <time>2021-08-11T08:38:54.392Z</time>
      </trkpt>
      <trkpt lat="46.88453" lon="8.54264">
        <ele>1594</ele>
        <time>2021-08-11T08:38:55.393Z</time>
      </trkpt>
      <trkpt lat="46.88453" lon="8.54264">
        <ele>1594</ele>
        <time>2021-08-11T08:38:56.393Z</time>
      </trkpt>
      <trkpt lat="46.88453" lon="8.54263">
        <ele>1594</ele>
        <time>2021-08-11T08:38:57.393Z</time>
      </trkpt>
      <trkpt lat="46.88453" lon="8.54263">
        <ele>1594</ele>
        <time>2021-08-11T08:38:58.393Z</time>
      </trkpt>
      <trkpt lat="46.88453" lon="8.54262">
        <ele>1594</ele>
        <time>2021-08-11T08:38:59.393Z</time>
      </trkpt>
      <trkpt lat="46.88453" lon="8.54262">
        <ele>1594</ele>
        <time>2021-08-11T08:39:00.392Z</time>
      </trkpt>
      <trkpt lat="46.88453" lon="8.54261">
        <ele>1594</ele>
        <time>2021-08-11T08:39:01.393Z</time>
      </trkpt>
      <trkpt lat="46.88453" lon="8.54261">
        <ele>1594</ele>
        <time>2021-08-11T08:39:02.393Z</time>
      </trkpt>
      <trkpt lat="46.88453" lon="8.54261">
        <ele>1594</ele>
        <time>2021-08-11T08:39:03.393Z</time>
      </trkpt>
      <trkpt lat="46.88453" lon="8.5426">
        <ele>1593</ele>
        <time>2021-08-11T08:39:04.394Z</time>
      </trkpt>
      <trkpt lat="46.88453" lon="8.54259">
        <ele>1593</ele>
        <time>2021-08-11T08:39:05.394Z</time>
      </trkpt>
      <trkpt lat="46.88452" lon="8.54258">
        <ele>1593</ele>
        <time>2021-08-11T08:39:06.394Z</time>
      </trkpt>
      <trkpt lat="46.88451" lon="8.54258">
        <ele>1594</ele>
        <time>2021-08-11T08:39:07.393Z</time>
      </trkpt>
      <trkpt lat="46.88452" lon="8.54257">
        <ele>1594</ele>
        <time>2021-08-11T08:39:08.394Z</time>
      </trkpt>
      <trkpt lat="46.88452" lon="8.54256">
        <ele>1594</ele>
        <time>2021-08-11T08:39:09.393Z</time>
      </trkpt>
      <trkpt lat="46.88453" lon="8.54256">
        <ele>1594</ele>
        <time>2021-08-11T08:39:10.394Z</time>
      </trkpt>
      <trkpt lat="46.88454" lon="8.54255">
        <ele>1595</ele>
        <time>2021-08-11T08:39:11.393Z</time>
      </trkpt>
      <trkpt lat="46.88454" lon="8.54254">
        <ele>1595</ele>
        <time>2021-08-11T08:39:12.394Z</time>
      </trkpt>
      <trkpt lat="46.88454" lon="8.54254">
        <ele>1595</ele>
        <time>2021-08-11T08:39:13.394Z</time>
      </trkpt>
      <trkpt lat="46.88454" lon="8.54254">
        <ele>1595</ele>
        <time>2021-08-11T08:39:14.394Z</time>
      </trkpt>
      <trkpt lat="46.88454" lon="8.54253">
        <ele>1595</ele>
        <time>2021-08-11T08:39:15.394Z</time>
      </trkpt>
      <trkpt lat="46.88454" lon="8.54253">
        <ele>1595</ele>
        <time>2021-08-11T08:39:16.393Z</time>
      </trkpt>
      <trkpt lat="46.88454" lon="8.54253">
        <ele>1595</ele>
        <time>2021-08-11T08:39:17.394Z</time>
      </trkpt>
      <trkpt lat="46.88454" lon="8.54252">
        <ele>1595</ele>
        <time>2021-08-11T08:39:18.394Z</time>
      </trkpt>
      <trkpt lat="46.88455" lon="8.54252">
        <ele>1595</ele>
        <time>2021-08-11T08:39:19.394Z</time>
      </trkpt>
      <trkpt lat="46.88455" lon="8.54251">
        <ele>1595</ele>
        <time>2021-08-11T08:39:20.393Z</time>
      </trkpt>
      <trkpt lat="46.88455" lon="8.5425">
        <ele>1595</ele>
        <time>2021-08-11T08:39:21.394Z</time>
      </trkpt>
      <trkpt lat="46.88455" lon="8.5425">
        <ele>1596</ele>
        <time>2021-08-11T08:39:22.394Z</time>
      </trkpt>
      <trkpt lat="46.88455" lon="8.54249">
        <ele>1596</ele>
        <time>2021-08-11T08:39:23.394Z</time>
      </trkpt>
      <trkpt lat="46.88455" lon="8.54249">
        <ele>1596</ele>
        <time>2021-08-11T08:39:24.394Z</time>
      </trkpt>
      <trkpt lat="46.88455" lon="8.54248">
        <ele>1597</ele>
        <time>2021-08-11T08:39:25.394Z</time>
      </trkpt>
      <trkpt lat="46.88456" lon="8.54248">
        <ele>1596</ele>
        <time>2021-08-11T08:39:26.393Z</time>
      </trkpt>
      <trkpt lat="46.88456" lon="8.54247">
        <ele>1597</ele>
        <time>2021-08-11T08:39:27.394Z</time>
      </trkpt>
      <trkpt lat="46.88456" lon="8.54247">
        <ele>1597</ele>
        <time>2021-08-11T08:39:28.394Z</time>
      </trkpt>
      <trkpt lat="46.88457" lon="8.54246">
        <ele>1597</ele>
        <time>2021-08-11T08:39:29.394Z</time>
      </trkpt>
      <trkpt lat="46.88458" lon="8.54245">
        <ele>1598</ele>
        <time>2021-08-11T08:39:30.394Z</time>
      </trkpt>
      <trkpt lat="46.88458" lon="8.54245">
        <ele>1598</ele>
        <time>2021-08-11T08:39:31.393Z</time>
      </trkpt>
      <trkpt lat="46.88459" lon="8.54244">
        <ele>1598</ele>
        <time>2021-08-11T08:39:32.394Z</time>
      </trkpt>
      <trkpt lat="46.88459" lon="8.54244">
        <ele>1599</ele>
        <time>2021-08-11T08:39:33.394Z</time>
      </trkpt>
      <trkpt lat="46.88459" lon="8.54243">
        <ele>1599</ele>
        <time>2021-08-11T08:39:34.394Z</time>
      </trkpt>
      <trkpt lat="46.8846" lon="8.54242">
        <ele>1600</ele>
        <time>2021-08-11T08:39:35.394Z</time>
      </trkpt>
      <trkpt lat="46.88461" lon="8.54242">
        <ele>1600</ele>
        <time>2021-08-11T08:39:36.393Z</time>
      </trkpt>
      <trkpt lat="46.88461" lon="8.54242">
        <ele>1600</ele>
        <time>2021-08-11T08:39:37.394Z</time>
      </trkpt>
      <trkpt lat="46.88462" lon="8.54241">
        <ele>1600</ele>
        <time>2021-08-11T08:39:38.394Z</time>
      </trkpt>
      <trkpt lat="46.88462" lon="8.5424">
        <ele>1600</ele>
        <time>2021-08-11T08:39:39.394Z</time>
      </trkpt>
      <trkpt lat="46.88463" lon="8.5424">
        <ele>1600</ele>
        <time>2021-08-11T08:39:40.393Z</time>
      </trkpt>
      <trkpt lat="46.88464" lon="8.54239">
        <ele>1601</ele>
        <time>2021-08-11T08:39:41.394Z</time>
      </trkpt>
      <trkpt lat="46.88463" lon="8.54239">
        <ele>1601</ele>
        <time>2021-08-11T08:39:42.394Z</time>
      </trkpt>
      <trkpt lat="46.88463" lon="8.54238">
        <ele>1601</ele>
        <time>2021-08-11T08:39:43.394Z</time>
      </trkpt>
      <trkpt lat="46.88464" lon="8.54237">
        <ele>1601</ele>
        <time>2021-08-11T08:39:44.394Z</time>
      </trkpt>
      <trkpt lat="46.88464" lon="8.54237">
        <ele>1601</ele>
        <time>2021-08-11T08:39:45.393Z</time>
      </trkpt>
      <trkpt lat="46.88464" lon="8.54236">
        <ele>1601</ele>
        <time>2021-08-11T08:39:46.394Z</time>
      </trkpt>
      <trkpt lat="46.88464" lon="8.54235">
        <ele>1601</ele>
        <time>2021-08-11T08:39:47.394Z</time>
      </trkpt>
      <trkpt lat="46.88464" lon="8.54234">
        <ele>1601</ele>
        <time>2021-08-11T08:39:48.394Z</time>
      </trkpt>
      <trkpt lat="46.88464" lon="8.54233">
        <ele>1601</ele>
        <time>2021-08-11T08:39:49.393Z</time>
      </trkpt>
      <trkpt lat="46.88464" lon="8.54233">
        <ele>1601</ele>
        <time>2021-08-11T08:39:50.393Z</time>
      </trkpt>
      <trkpt lat="46.88464" lon="8.54232">
        <ele>1601</ele>
        <time>2021-08-11T08:39:51.393Z</time>
      </trkpt>
      <trkpt lat="46.88464" lon="8.54233">
        <ele>1601</ele>
        <time>2021-08-11T08:39:52.393Z</time>
      </trkpt>
      <trkpt lat="46.88462" lon="8.54231">
        <ele>1598</ele>
        <time>2021-08-11T08:39:53.395Z</time>
      </trkpt>
      <trkpt lat="46.88462" lon="8.5423">
        <ele>1598</ele>
        <time>2021-08-11T08:39:54.395Z</time>
      </trkpt>
      <trkpt lat="46.88462" lon="8.54229">
        <ele>1598</ele>
        <time>2021-08-11T08:39:55.394Z</time>
      </trkpt>
      <trkpt lat="46.88462" lon="8.54229">
        <ele>1598</ele>
        <time>2021-08-11T08:39:56.395Z</time>
      </trkpt>
      <trkpt lat="46.88462" lon="8.54228">
        <ele>1598</ele>
        <time>2021-08-11T08:39:57.395Z</time>
      </trkpt>
      <trkpt lat="46.88461" lon="8.54228">
        <ele>1598</ele>
        <time>2021-08-11T08:39:58.395Z</time>
      </trkpt>
      <trkpt lat="46.88461" lon="8.54227">
        <ele>1598</ele>
        <time>2021-08-11T08:39:59.395Z</time>
      </trkpt>
      <trkpt lat="46.88461" lon="8.54227">
        <ele>1598</ele>
        <time>2021-08-11T08:40:00.394Z</time>
      </trkpt>
      <trkpt lat="46.88461" lon="8.54226">
        <ele>1599</ele>
        <time>2021-08-11T08:40:01.395Z</time>
      </trkpt>
      <trkpt lat="46.88461" lon="8.54225">
        <ele>1600</ele>
        <time>2021-08-11T08:40:02.395Z</time>
      </trkpt>
      <trkpt lat="46.88461" lon="8.54225">
        <ele>1600</ele>
        <time>2021-08-11T08:40:03.396Z</time>
      </trkpt>
      <trkpt lat="46.8846" lon="8.54224">
        <ele>1600</ele>
        <time>2021-08-11T08:40:04.395Z</time>
      </trkpt>
      <trkpt lat="46.8846" lon="8.54224">
        <ele>1600</ele>
        <time>2021-08-11T08:40:05.395Z</time>
      </trkpt>
      <trkpt lat="46.8846" lon="8.54223">
        <ele>1600</ele>
        <time>2021-08-11T08:40:06.395Z</time>
      </trkpt>
      <trkpt lat="46.8846" lon="8.54223">
        <ele>1600</ele>
        <time>2021-08-11T08:40:07.396Z</time>
      </trkpt>
      <trkpt lat="46.8846" lon="8.54223">
        <ele>1601</ele>
        <time>2021-08-11T08:40:08.396Z</time>
      </trkpt>
      <trkpt lat="46.8846" lon="8.54222">
        <ele>1601</ele>
        <time>2021-08-11T08:40:09.395Z</time>
      </trkpt>
      <trkpt lat="46.8846" lon="8.54221">
        <ele>1601</ele>
        <time>2021-08-11T08:40:10.396Z</time>
      </trkpt>
      <trkpt lat="46.8846" lon="8.5422">
        <ele>1601</ele>
        <time>2021-08-11T08:40:11.395Z</time>
      </trkpt>
      <trkpt lat="46.8846" lon="8.5422">
        <ele>1601</ele>
        <time>2021-08-11T08:40:12.395Z</time>
      </trkpt>
      <trkpt lat="46.8846" lon="8.54219">
        <ele>1601</ele>
        <time>2021-08-11T08:40:13.395Z</time>
      </trkpt>
      <trkpt lat="46.8846" lon="8.54218">
        <ele>1601</ele>
        <time>2021-08-11T08:40:14.395Z</time>
      </trkpt>
      <trkpt lat="46.8846" lon="8.54218">
        <ele>1601</ele>
        <time>2021-08-11T08:40:15.395Z</time>
      </trkpt>
      <trkpt lat="46.88459" lon="8.54217">
        <ele>1601</ele>
        <time>2021-08-11T08:40:16.395Z</time>
      </trkpt>
      <trkpt lat="46.88459" lon="8.54216">
        <ele>1601</ele>
        <time>2021-08-11T08:40:17.396Z</time>
      </trkpt>
      <trkpt lat="46.88459" lon="8.54216">
        <ele>1601</ele>
        <time>2021-08-11T08:40:18.396Z</time>
      </trkpt>
      <trkpt lat="46.88458" lon="8.54215">
        <ele>1601</ele>
        <time>2021-08-11T08:40:19.396Z</time>
      </trkpt>
      <trkpt lat="46.88458" lon="8.54215">
        <ele>1601</ele>
        <time>2021-08-11T08:40:20.395Z</time>
      </trkpt>
      <trkpt lat="46.88457" lon="8.54215">
        <ele>1601</ele>
        <time>2021-08-11T08:40:21.396Z</time>
      </trkpt>
      <trkpt lat="46.88457" lon="8.54214">
        <ele>1602</ele>
        <time>2021-08-11T08:40:22.395Z</time>
      </trkpt>
      <trkpt lat="46.88457" lon="8.54214">
        <ele>1603</ele>
        <time>2021-08-11T08:40:23.396Z</time>
      </trkpt>
      <trkpt lat="46.88457" lon="8.54213">
        <ele>1603</ele>
        <time>2021-08-11T08:40:24.396Z</time>
      </trkpt>
      <trkpt lat="46.88457" lon="8.54212">
        <ele>1604</ele>
        <time>2021-08-11T08:40:25.395Z</time>
      </trkpt>
      <trkpt lat="46.88458" lon="8.54212">
        <ele>1604</ele>
        <time>2021-08-11T08:40:26.395Z</time>
      </trkpt>
      <trkpt lat="46.88458" lon="8.54211">
        <ele>1605</ele>
        <time>2021-08-11T08:40:27.395Z</time>
      </trkpt>
      <trkpt lat="46.88458" lon="8.5421">
        <ele>1605</ele>
        <time>2021-08-11T08:40:28.395Z</time>
      </trkpt>
      <trkpt lat="46.88458" lon="8.5421">
        <ele>1606</ele>
        <time>2021-08-11T08:40:29.395Z</time>
      </trkpt>
      <trkpt lat="46.88458" lon="8.5421">
        <ele>1606</ele>
        <time>2021-08-11T08:40:30.395Z</time>
      </trkpt>
      <trkpt lat="46.88458" lon="8.54209">
        <ele>1606</ele>
        <time>2021-08-11T08:40:31.396Z</time>
      </trkpt>
      <trkpt lat="46.88458" lon="8.54209">
        <ele>1606</ele>
        <time>2021-08-11T08:40:32.396Z</time>
      </trkpt>
      <trkpt lat="46.88457" lon="8.54208">
        <ele>1606</ele>
        <time>2021-08-11T08:40:33.396Z</time>
      </trkpt>
      <trkpt lat="46.88456" lon="8.54207">
        <ele>1606</ele>
        <time>2021-08-11T08:40:34.395Z</time>
      </trkpt>
      <trkpt lat="46.88456" lon="8.54207">
        <ele>1607</ele>
        <time>2021-08-11T08:40:35.395Z</time>
      </trkpt>
      <trkpt lat="46.88456" lon="8.54206">
        <ele>1607</ele>
        <time>2021-08-11T08:40:36.396Z</time>
      </trkpt>
      <trkpt lat="46.88456" lon="8.54206">
        <ele>1607</ele>
        <time>2021-08-11T08:40:37.395Z</time>
      </trkpt>
      <trkpt lat="46.88457" lon="8.54205">
        <ele>1607</ele>
        <time>2021-08-11T08:40:38.396Z</time>
      </trkpt>
      <trkpt lat="46.88457" lon="8.54205">
        <ele>1608</ele>
        <time>2021-08-11T08:40:39.395Z</time>
      </trkpt>
      <trkpt lat="46.88456" lon="8.54204">
        <ele>1608</ele>
        <time>2021-08-11T08:40:40.396Z</time>
      </trkpt>
      <trkpt lat="46.88456" lon="8.54204">
        <ele>1608</ele>
        <time>2021-08-11T08:40:41.395Z</time>
      </trkpt>
      <trkpt lat="46.88456" lon="8.54203">
        <ele>1608</ele>
        <time>2021-08-11T08:40:42.395Z</time>
      </trkpt>
      <trkpt lat="46.88455" lon="8.54203">
        <ele>1609</ele>
        <time>2021-08-11T08:40:43.396Z</time>
      </trkpt>
      <trkpt lat="46.88454" lon="8.54202">
        <ele>1609</ele>
        <time>2021-08-11T08:40:44.395Z</time>
      </trkpt>
      <trkpt lat="46.88454" lon="8.54202">
        <ele>1609</ele>
        <time>2021-08-11T08:40:45.395Z</time>
      </trkpt>
      <trkpt lat="46.88454" lon="8.54201">
        <ele>1609</ele>
        <time>2021-08-11T08:40:46.395Z</time>
      </trkpt>
      <trkpt lat="46.88454" lon="8.54201">
        <ele>1610</ele>
        <time>2021-08-11T08:40:47.396Z</time>
      </trkpt>
      <trkpt lat="46.88453" lon="8.54201">
        <ele>1610</ele>
        <time>2021-08-11T08:40:48.396Z</time>
      </trkpt>
      <trkpt lat="46.88453" lon="8.542">
        <ele>1610</ele>
        <time>2021-08-11T08:40:49.396Z</time>
      </trkpt>
      <trkpt lat="46.88453" lon="8.542">
        <ele>1611</ele>
        <time>2021-08-11T08:40:50.395Z</time>
      </trkpt>
      <trkpt lat="46.88452" lon="8.54199">
        <ele>1611</ele>
        <time>2021-08-11T08:40:51.395Z</time>
      </trkpt>
      <trkpt lat="46.88451" lon="8.54198">
        <ele>1611</ele>
        <time>2021-08-11T08:40:52.395Z</time>
      </trkpt>
      <trkpt lat="46.88451" lon="8.54197">
        <ele>1611</ele>
        <time>2021-08-11T08:40:53.396Z</time>
      </trkpt>
      <trkpt lat="46.8845" lon="8.54196">
        <ele>1611</ele>
        <time>2021-08-11T08:40:54.396Z</time>
      </trkpt>
      <trkpt lat="46.8845" lon="8.54196">
        <ele>1611</ele>
        <time>2021-08-11T08:40:55.396Z</time>
      </trkpt>
      <trkpt lat="46.8845" lon="8.54195">
        <ele>1611</ele>
        <time>2021-08-11T08:40:56.396Z</time>
      </trkpt>
      <trkpt lat="46.88449" lon="8.54195">
        <ele>1611</ele>
        <time>2021-08-11T08:40:57.396Z</time>
      </trkpt>
      <trkpt lat="46.88449" lon="8.54194">
        <ele>1611</ele>
        <time>2021-08-11T08:40:58.395Z</time>
      </trkpt>
      <trkpt lat="46.88447" lon="8.54193">
        <ele>1611</ele>
        <time>2021-08-11T08:40:59.396Z</time>
      </trkpt>
      <trkpt lat="46.88447" lon="8.54193">
        <ele>1611</ele>
        <time>2021-08-11T08:41:00.396Z</time>
      </trkpt>
      <trkpt lat="46.88447" lon="8.54193">
        <ele>1611</ele>
        <time>2021-08-11T08:41:01.396Z</time>
      </trkpt>
      <trkpt lat="46.88447" lon="8.54193">
        <ele>1611</ele>
        <time>2021-08-11T08:41:02.395Z</time>
      </trkpt>
      <trkpt lat="46.88446" lon="8.54192">
        <ele>1611</ele>
        <time>2021-08-11T08:41:03.395Z</time>
      </trkpt>
      <trkpt lat="46.88445" lon="8.54191">
        <ele>1611</ele>
        <time>2021-08-11T08:41:04.395Z</time>
      </trkpt>
      <trkpt lat="46.88445" lon="8.54191">
        <ele>1611</ele>
        <time>2021-08-11T08:41:05.396Z</time>
      </trkpt>
      <trkpt lat="46.88444" lon="8.5419">
        <ele>1611</ele>
        <time>2021-08-11T08:41:06.395Z</time>
      </trkpt>
      <trkpt lat="46.88444" lon="8.5419">
        <ele>1610</ele>
        <time>2021-08-11T08:41:07.396Z</time>
      </trkpt>
      <trkpt lat="46.88444" lon="8.54189">
        <ele>1610</ele>
        <time>2021-08-11T08:41:08.396Z</time>
      </trkpt>
      <trkpt lat="46.88443" lon="8.54189">
        <ele>1610</ele>
        <time>2021-08-11T08:41:09.396Z</time>
      </trkpt>
      <trkpt lat="46.88443" lon="8.54189">
        <ele>1610</ele>
        <time>2021-08-11T08:41:10.396Z</time>
      </trkpt>
      <trkpt lat="46.88442" lon="8.54188">
        <ele>1610</ele>
        <time>2021-08-11T08:41:11.395Z</time>
      </trkpt>
      <trkpt lat="46.88442" lon="8.54188">
        <ele>1610</ele>
        <time>2021-08-11T08:41:12.396Z</time>
      </trkpt>
      <trkpt lat="46.88441" lon="8.54187">
        <ele>1610</ele>
        <time>2021-08-11T08:41:13.396Z</time>
      </trkpt>
      <trkpt lat="46.88441" lon="8.54187">
        <ele>1610</ele>
        <time>2021-08-11T08:41:14.396Z</time>
      </trkpt>
      <trkpt lat="46.88441" lon="8.54187">
        <ele>1610</ele>
        <time>2021-08-11T08:41:15.395Z</time>
      </trkpt>
      <trkpt lat="46.88441" lon="8.54186">
        <ele>1611</ele>
        <time>2021-08-11T08:41:16.396Z</time>
      </trkpt>
      <trkpt lat="46.8844" lon="8.54185">
        <ele>1611</ele>
        <time>2021-08-11T08:41:17.395Z</time>
      </trkpt>
      <trkpt lat="46.88439" lon="8.54184">
        <ele>1611</ele>
        <time>2021-08-11T08:41:18.396Z</time>
      </trkpt>
      <trkpt lat="46.88439" lon="8.54184">
        <ele>1612</ele>
        <time>2021-08-11T08:41:19.396Z</time>
      </trkpt>
      <trkpt lat="46.88439" lon="8.54183">
        <ele>1612</ele>
        <time>2021-08-11T08:41:20.396Z</time>
      </trkpt>
      <trkpt lat="46.88439" lon="8.54183">
        <ele>1612</ele>
        <time>2021-08-11T08:41:21.395Z</time>
      </trkpt>
      <trkpt lat="46.88438" lon="8.54183">
        <ele>1613</ele>
        <time>2021-08-11T08:41:22.395Z</time>
      </trkpt>
      <trkpt lat="46.88438" lon="8.54182">
        <ele>1613</ele>
        <time>2021-08-11T08:41:23.395Z</time>
      </trkpt>
      <trkpt lat="46.88437" lon="8.54182">
        <ele>1612</ele>
        <time>2021-08-11T08:41:24.396Z</time>
      </trkpt>
      <trkpt lat="46.88437" lon="8.54181">
        <ele>1612</ele>
        <time>2021-08-11T08:41:25.396Z</time>
      </trkpt>
      <trkpt lat="46.88436" lon="8.5418">
        <ele>1612</ele>
        <time>2021-08-11T08:41:26.396Z</time>
      </trkpt>
      <trkpt lat="46.88436" lon="8.5418">
        <ele>1612</ele>
        <time>2021-08-11T08:41:27.396Z</time>
      </trkpt>
      <trkpt lat="46.88435" lon="8.54179">
        <ele>1613</ele>
        <time>2021-08-11T08:41:28.395Z</time>
      </trkpt>
      <trkpt lat="46.88435" lon="8.54179">
        <ele>1613</ele>
        <time>2021-08-11T08:41:29.396Z</time>
      </trkpt>
      <trkpt lat="46.88434" lon="8.54179">
        <ele>1613</ele>
        <time>2021-08-11T08:41:30.395Z</time>
      </trkpt>
      <trkpt lat="46.88435" lon="8.54178">
        <ele>1613</ele>
        <time>2021-08-11T08:41:31.396Z</time>
      </trkpt>
      <trkpt lat="46.88434" lon="8.54178">
        <ele>1613</ele>
        <time>2021-08-11T08:41:32.395Z</time>
      </trkpt>
      <trkpt lat="46.88434" lon="8.54177">
        <ele>1613</ele>
        <time>2021-08-11T08:41:33.396Z</time>
      </trkpt>
      <trkpt lat="46.88433" lon="8.54176">
        <ele>1614</ele>
        <time>2021-08-11T08:41:34.396Z</time>
      </trkpt>
      <trkpt lat="46.88433" lon="8.54176">
        <ele>1614</ele>
        <time>2021-08-11T08:41:35.395Z</time>
      </trkpt>
      <trkpt lat="46.88433" lon="8.54175">
        <ele>1615</ele>
        <time>2021-08-11T08:41:36.395Z</time>
      </trkpt>
      <trkpt lat="46.88432" lon="8.54175">
        <ele>1615</ele>
        <time>2021-08-11T08:41:37.395Z</time>
      </trkpt>
      <trkpt lat="46.88432" lon="8.54175">
        <ele>1615</ele>
        <time>2021-08-11T08:41:38.396Z</time>
      </trkpt>
      <trkpt lat="46.88432" lon="8.54174">
        <ele>1615</ele>
        <time>2021-08-11T08:41:39.396Z</time>
      </trkpt>
      <trkpt lat="46.88431" lon="8.54173">
        <ele>1616</ele>
        <time>2021-08-11T08:41:40.396Z</time>
      </trkpt>
      <trkpt lat="46.88431" lon="8.54173">
        <ele>1616</ele>
        <time>2021-08-11T08:41:41.396Z</time>
      </trkpt>
      <trkpt lat="46.88431" lon="8.54173">
        <ele>1616</ele>
        <time>2021-08-11T08:41:42.397Z</time>
      </trkpt>
      <trkpt lat="46.8843" lon="8.54172">
        <ele>1616</ele>
        <time>2021-08-11T08:41:43.397Z</time>
      </trkpt>
      <trkpt lat="46.8843" lon="8.54171">
        <ele>1617</ele>
        <time>2021-08-11T08:41:44.397Z</time>
      </trkpt>
      <trkpt lat="46.88429" lon="8.54171">
        <ele>1616</ele>
        <time>2021-08-11T08:41:45.397Z</time>
      </trkpt>
      <trkpt lat="46.88429" lon="8.54171">
        <ele>1616</ele>
        <time>2021-08-11T08:41:46.397Z</time>
      </trkpt>
      <trkpt lat="46.88429" lon="8.54171">
        <ele>1616</ele>
        <time>2021-08-11T08:41:47.396Z</time>
      </trkpt>
      <trkpt lat="46.88429" lon="8.54171">
        <ele>1616</ele>
        <time>2021-08-11T08:41:48.397Z</time>
      </trkpt>
      <trkpt lat="46.88428" lon="8.5417">
        <ele>1615</ele>
        <time>2021-08-11T08:41:49.396Z</time>
      </trkpt>
      <trkpt lat="46.88428" lon="8.5417">
        <ele>1615</ele>
        <time>2021-08-11T08:41:50.397Z</time>
      </trkpt>
      <trkpt lat="46.88428" lon="8.5417">
        <ele>1615</ele>
        <time>2021-08-11T08:41:51.397Z</time>
      </trkpt>
      <trkpt lat="46.88427" lon="8.54169">
        <ele>1615</ele>
        <time>2021-08-11T08:41:52.397Z</time>
      </trkpt>
      <trkpt lat="46.88426" lon="8.54168">
        <ele>1616</ele>
        <time>2021-08-11T08:41:53.396Z</time>
      </trkpt>
      <trkpt lat="46.88426" lon="8.54168">
        <ele>1616</ele>
        <time>2021-08-11T08:41:54.397Z</time>
      </trkpt>
      <trkpt lat="46.88425" lon="8.54167">
        <ele>1616</ele>
        <time>2021-08-11T08:41:55.397Z</time>
      </trkpt>
      <trkpt lat="46.88425" lon="8.54167">
        <ele>1616</ele>
        <time>2021-08-11T08:41:56.396Z</time>
      </trkpt>
      <trkpt lat="46.88424" lon="8.54166">
        <ele>1617</ele>
        <time>2021-08-11T08:41:57.396Z</time>
      </trkpt>
      <trkpt lat="46.88423" lon="8.54166">
        <ele>1617</ele>
        <time>2021-08-11T08:41:58.397Z</time>
      </trkpt>
      <trkpt lat="46.88423" lon="8.54165">
        <ele>1617</ele>
        <time>2021-08-11T08:41:59.397Z</time>
      </trkpt>
      <trkpt lat="46.88423" lon="8.54165">
        <ele>1618</ele>
        <time>2021-08-11T08:42:00.396Z</time>
      </trkpt>
      <trkpt lat="46.88422" lon="8.54165">
        <ele>1617</ele>
        <time>2021-08-11T08:42:01.396Z</time>
      </trkpt>
      <trkpt lat="46.88422" lon="8.54164">
        <ele>1616</ele>
        <time>2021-08-11T08:42:02.396Z</time>
      </trkpt>
      <trkpt lat="46.88422" lon="8.54165">
        <ele>1616</ele>
        <time>2021-08-11T08:42:03.396Z</time>
      </trkpt>
      <trkpt lat="46.88421" lon="8.54164">
        <ele>1615</ele>
        <time>2021-08-11T08:42:04.396Z</time>
      </trkpt>
      <trkpt lat="46.88421" lon="8.54163">
        <ele>1615</ele>
        <time>2021-08-11T08:42:05.396Z</time>
      </trkpt>
      <trkpt lat="46.8842" lon="8.54163">
        <ele>1615</ele>
        <time>2021-08-11T08:42:06.396Z</time>
      </trkpt>
      <trkpt lat="46.88419" lon="8.54162">
        <ele>1616</ele>
        <time>2021-08-11T08:42:07.397Z</time>
      </trkpt>
      <trkpt lat="46.88419" lon="8.54162">
        <ele>1616</ele>
        <time>2021-08-11T08:42:08.396Z</time>
      </trkpt>
      <trkpt lat="46.88418" lon="8.54162">
        <ele>1616</ele>
        <time>2021-08-11T08:42:09.397Z</time>
      </trkpt>
      <trkpt lat="46.88418" lon="8.54161">
        <ele>1617</ele>
        <time>2021-08-11T08:42:10.396Z</time>
      </trkpt>
      <trkpt lat="46.88417" lon="8.54161">
        <ele>1617</ele>
        <time>2021-08-11T08:42:11.397Z</time>
      </trkpt>
      <trkpt lat="46.88417" lon="8.54161">
        <ele>1617</ele>
        <time>2021-08-11T08:42:12.397Z</time>
      </trkpt>
      <trkpt lat="46.88417" lon="8.5416">
        <ele>1618</ele>
        <time>2021-08-11T08:42:13.396Z</time>
      </trkpt>
      <trkpt lat="46.88416" lon="8.5416">
        <ele>1618</ele>
        <time>2021-08-11T08:42:14.396Z</time>
      </trkpt>
      <trkpt lat="46.88416" lon="8.54159">
        <ele>1618</ele>
        <time>2021-08-11T08:42:15.397Z</time>
      </trkpt>
      <trkpt lat="46.88415" lon="8.54159">
        <ele>1619</ele>
        <time>2021-08-11T08:42:16.397Z</time>
      </trkpt>
      <trkpt lat="46.88415" lon="8.54159">
        <ele>1619</ele>
        <time>2021-08-11T08:42:17.397Z</time>
      </trkpt>
      <trkpt lat="46.88414" lon="8.54158">
        <ele>1620</ele>
        <time>2021-08-11T08:42:18.397Z</time>
      </trkpt>
      <trkpt lat="46.88414" lon="8.54158">
        <ele>1620</ele>
        <time>2021-08-11T08:42:19.397Z</time>
      </trkpt>
      <trkpt lat="46.88413" lon="8.54157">
        <ele>1620</ele>
        <time>2021-08-11T08:42:20.396Z</time>
      </trkpt>
      <trkpt lat="46.88412" lon="8.54156">
        <ele>1620</ele>
        <time>2021-08-11T08:42:21.397Z</time>
      </trkpt>
      <trkpt lat="46.88412" lon="8.54156">
        <ele>1620</ele>
        <time>2021-08-11T08:42:22.396Z</time>
      </trkpt>
      <trkpt lat="46.88412" lon="8.54155">
        <ele>1621</ele>
        <time>2021-08-11T08:42:23.396Z</time>
      </trkpt>
      <trkpt lat="46.88411" lon="8.54155">
        <ele>1621</ele>
        <time>2021-08-11T08:42:24.396Z</time>
      </trkpt>
      <trkpt lat="46.88411" lon="8.54154">
        <ele>1622</ele>
        <time>2021-08-11T08:42:25.396Z</time>
      </trkpt>
      <trkpt lat="46.88412" lon="8.54154">
        <ele>1623</ele>
        <time>2021-08-11T08:42:26.396Z</time>
      </trkpt>
      <trkpt lat="46.88411" lon="8.54154">
        <ele>1623</ele>
        <time>2021-08-11T08:42:27.396Z</time>
      </trkpt>
      <trkpt lat="46.88411" lon="8.54153">
        <ele>1624</ele>
        <time>2021-08-11T08:42:28.396Z</time>
      </trkpt>
      <trkpt lat="46.8841" lon="8.54152">
        <ele>1624</ele>
        <time>2021-08-11T08:42:29.396Z</time>
      </trkpt>
      <trkpt lat="46.8841" lon="8.54151">
        <ele>1625</ele>
        <time>2021-08-11T08:42:30.396Z</time>
      </trkpt>
      <trkpt lat="46.88409" lon="8.54151">
        <ele>1625</ele>
        <time>2021-08-11T08:42:31.397Z</time>
      </trkpt>
      <trkpt lat="46.88409" lon="8.54151">
        <ele>1626</ele>
        <time>2021-08-11T08:42:32.396Z</time>
      </trkpt>
      <trkpt lat="46.88408" lon="8.5415">
        <ele>1626</ele>
        <time>2021-08-11T08:42:33.396Z</time>
      </trkpt>
      <trkpt lat="46.88408" lon="8.5415">
        <ele>1626</ele>
        <time>2021-08-11T08:42:34.396Z</time>
      </trkpt>
      <trkpt lat="46.88408" lon="8.5415">
        <ele>1626</ele>
        <time>2021-08-11T08:42:35.396Z</time>
      </trkpt>
      <trkpt lat="46.88407" lon="8.54149">
        <ele>1626</ele>
        <time>2021-08-11T08:42:36.396Z</time>
      </trkpt>
      <trkpt lat="46.88407" lon="8.54149">
        <ele>1626</ele>
        <time>2021-08-11T08:42:37.396Z</time>
      </trkpt>
      <trkpt lat="46.88407" lon="8.54148">
        <ele>1625</ele>
        <time>2021-08-11T08:42:38.396Z</time>
      </trkpt>
      <trkpt lat="46.88406" lon="8.54148">
        <ele>1625</ele>
        <time>2021-08-11T08:42:39.397Z</time>
      </trkpt>
      <trkpt lat="46.88406" lon="8.54147">
        <ele>1625</ele>
        <time>2021-08-11T08:42:40.397Z</time>
      </trkpt>
      <trkpt lat="46.88405" lon="8.54147">
        <ele>1624</ele>
        <time>2021-08-11T08:42:41.397Z</time>
      </trkpt>
      <trkpt lat="46.88404" lon="8.54146">
        <ele>1624</ele>
        <time>2021-08-11T08:42:42.397Z</time>
      </trkpt>
      <trkpt lat="46.88404" lon="8.54146">
        <ele>1623</ele>
        <time>2021-08-11T08:42:43.396Z</time>
      </trkpt>
      <trkpt lat="46.88404" lon="8.54145">
        <ele>1623</ele>
        <time>2021-08-11T08:42:44.396Z</time>
      </trkpt>
      <trkpt lat="46.88403" lon="8.54144">
        <ele>1623</ele>
        <time>2021-08-11T08:42:45.396Z</time>
      </trkpt>
      <trkpt lat="46.88402" lon="8.54144">
        <ele>1623</ele>
        <time>2021-08-11T08:42:46.397Z</time>
      </trkpt>
      <trkpt lat="46.88402" lon="8.54144">
        <ele>1623</ele>
        <time>2021-08-11T08:42:47.397Z</time>
      </trkpt>
      <trkpt lat="46.88402" lon="8.54144">
        <ele>1623</ele>
        <time>2021-08-11T08:42:48.397Z</time>
      </trkpt>
      <trkpt lat="46.88402" lon="8.54144">
        <ele>1623</ele>
        <time>2021-08-11T08:42:49.396Z</time>
      </trkpt>
      <trkpt lat="46.88401" lon="8.54143">
        <ele>1624</ele>
        <time>2021-08-11T08:42:50.396Z</time>
      </trkpt>
      <trkpt lat="46.88401" lon="8.54143">
        <ele>1625</ele>
        <time>2021-08-11T08:42:51.397Z</time>
      </trkpt>
      <trkpt lat="46.884" lon="8.54143">
        <ele>1625</ele>
        <time>2021-08-11T08:42:52.397Z</time>
      </trkpt>
      <trkpt lat="46.884" lon="8.54142">
        <ele>1625</ele>
        <time>2021-08-11T08:42:53.396Z</time>
      </trkpt>
      <trkpt lat="46.88399" lon="8.54142">
        <ele>1625</ele>
        <time>2021-08-11T08:42:54.397Z</time>
      </trkpt>
      <trkpt lat="46.88399" lon="8.54142">
        <ele>1625</ele>
        <time>2021-08-11T08:42:55.396Z</time>
      </trkpt>
      <trkpt lat="46.88398" lon="8.54141">
        <ele>1626</ele>
        <time>2021-08-11T08:42:56.397Z</time>
      </trkpt>
      <trkpt lat="46.88398" lon="8.5414">
        <ele>1627</ele>
        <time>2021-08-11T08:42:57.397Z</time>
      </trkpt>
      <trkpt lat="46.88397" lon="8.5414">
        <ele>1627</ele>
        <time>2021-08-11T08:42:58.396Z</time>
      </trkpt>
      <trkpt lat="46.88397" lon="8.54139">
        <ele>1627</ele>
        <time>2021-08-11T08:42:59.396Z</time>
      </trkpt>
      <trkpt lat="46.88396" lon="8.54138">
        <ele>1627</ele>
        <time>2021-08-11T08:43:00.396Z</time>
      </trkpt>
      <trkpt lat="46.88396" lon="8.54138">
        <ele>1627</ele>
        <time>2021-08-11T08:43:01.397Z</time>
      </trkpt>
      <trkpt lat="46.88395" lon="8.54138">
        <ele>1627</ele>
        <time>2021-08-11T08:43:02.396Z</time>
      </trkpt>
      <trkpt lat="46.88395" lon="8.54137">
        <ele>1627</ele>
        <time>2021-08-11T08:43:03.397Z</time>
      </trkpt>
      <trkpt lat="46.88395" lon="8.54137">
        <ele>1627</ele>
        <time>2021-08-11T08:43:04.397Z</time>
      </trkpt>
      <trkpt lat="46.88394" lon="8.54137">
        <ele>1627</ele>
        <time>2021-08-11T08:43:05.396Z</time>
      </trkpt>
      <trkpt lat="46.88394" lon="8.54137">
        <ele>1628</ele>
        <time>2021-08-11T08:43:06.396Z</time>
      </trkpt>
      <trkpt lat="46.88394" lon="8.54137">
        <ele>1628</ele>
        <time>2021-08-11T08:43:07.396Z</time>
      </trkpt>
      <trkpt lat="46.88394" lon="8.54137">
        <ele>1628</ele>
        <time>2021-08-11T08:43:08.396Z</time>
      </trkpt>
      <trkpt lat="46.88393" lon="8.54137">
        <ele>1628</ele>
        <time>2021-08-11T08:43:09.396Z</time>
      </trkpt>
      <trkpt lat="46.88393" lon="8.54137">
        <ele>1628</ele>
        <time>2021-08-11T08:43:10.396Z</time>
      </trkpt>
      <trkpt lat="46.88392" lon="8.54137">
        <ele>1628</ele>
        <time>2021-08-11T08:43:11.396Z</time>
      </trkpt>
      <trkpt lat="46.88392" lon="8.54136">
        <ele>1628</ele>
        <time>2021-08-11T08:43:12.396Z</time>
      </trkpt>
      <trkpt lat="46.88392" lon="8.54136">
        <ele>1628</ele>
        <time>2021-08-11T08:43:13.396Z</time>
      </trkpt>
      <trkpt lat="46.88392" lon="8.54136">
        <ele>1627</ele>
        <time>2021-08-11T08:43:14.396Z</time>
      </trkpt>
      <trkpt lat="46.88391" lon="8.54136">
        <ele>1627</ele>
        <time>2021-08-11T08:43:15.396Z</time>
      </trkpt>
      <trkpt lat="46.8839" lon="8.54135">
        <ele>1627</ele>
        <time>2021-08-11T08:43:16.396Z</time>
      </trkpt>
      <trkpt lat="46.8839" lon="8.54135">
        <ele>1627</ele>
        <time>2021-08-11T08:43:17.396Z</time>
      </trkpt>
      <trkpt lat="46.88389" lon="8.54135">
        <ele>1627</ele>
        <time>2021-08-11T08:43:18.396Z</time>
      </trkpt>
      <trkpt lat="46.88388" lon="8.54134">
        <ele>1626</ele>
        <time>2021-08-11T08:43:19.396Z</time>
      </trkpt>
      <trkpt lat="46.88388" lon="8.54134">
        <ele>1626</ele>
        <time>2021-08-11T08:43:20.397Z</time>
      </trkpt>
      <trkpt lat="46.88388" lon="8.54134">
        <ele>1626</ele>
        <time>2021-08-11T08:43:21.396Z</time>
      </trkpt>
      <trkpt lat="46.88388" lon="8.54134">
        <ele>1626</ele>
        <time>2021-08-11T08:43:22.397Z</time>
      </trkpt>
      <trkpt lat="46.88387" lon="8.54134">
        <ele>1626</ele>
        <time>2021-08-11T08:43:23.396Z</time>
      </trkpt>
      <trkpt lat="46.88387" lon="8.54133">
        <ele>1625</ele>
        <time>2021-08-11T08:43:24.396Z</time>
      </trkpt>
      <trkpt lat="46.88386" lon="8.54133">
        <ele>1625</ele>
        <time>2021-08-11T08:43:25.396Z</time>
      </trkpt>
      <trkpt lat="46.88386" lon="8.54133">
        <ele>1625</ele>
        <time>2021-08-11T08:43:26.396Z</time>
      </trkpt>
      <trkpt lat="46.88385" lon="8.54132">
        <ele>1630</ele>
        <time>2021-08-11T08:43:27.397Z</time>
      </trkpt>
      <trkpt lat="46.88385" lon="8.54131">
        <ele>1630</ele>
        <time>2021-08-11T08:43:28.396Z</time>
      </trkpt>
      <trkpt lat="46.88385" lon="8.54131">
        <ele>1631</ele>
        <time>2021-08-11T08:43:29.396Z</time>
      </trkpt>
      <trkpt lat="46.88385" lon="8.54131">
        <ele>1631</ele>
        <time>2021-08-11T08:43:30.396Z</time>
      </trkpt>
      <trkpt lat="46.88386" lon="8.54131">
        <ele>1631</ele>
        <time>2021-08-11T08:43:31.396Z</time>
      </trkpt>
      <trkpt lat="46.88386" lon="8.54131">
        <ele>1631</ele>
        <time>2021-08-11T08:43:32.397Z</time>
      </trkpt>
      <trkpt lat="46.88387" lon="8.5413">
        <ele>1631</ele>
        <time>2021-08-11T08:43:33.396Z</time>
      </trkpt>
      <trkpt lat="46.88387" lon="8.5413">
        <ele>1631</ele>
        <time>2021-08-11T08:43:34.396Z</time>
      </trkpt>
      <trkpt lat="46.88387" lon="8.54129">
        <ele>1631</ele>
        <time>2021-08-11T08:43:35.396Z</time>
      </trkpt>
      <trkpt lat="46.88387" lon="8.54129">
        <ele>1631</ele>
        <time>2021-08-11T08:43:36.396Z</time>
      </trkpt>
      <trkpt lat="46.88388" lon="8.54129">
        <ele>1628</ele>
        <time>2021-08-11T08:43:37.398Z</time>
      </trkpt>
      <trkpt lat="46.88388" lon="8.5413">
        <ele>1629</ele>
        <time>2021-08-11T08:43:38.399Z</time>
      </trkpt>
      <trkpt lat="46.88389" lon="8.5413">
        <ele>1629</ele>
        <time>2021-08-11T08:43:39.398Z</time>
      </trkpt>
      <trkpt lat="46.88389" lon="8.54131">
        <ele>1628</ele>
        <time>2021-08-11T08:43:40.399Z</time>
      </trkpt>
      <trkpt lat="46.88389" lon="8.54131">
        <ele>1628</ele>
        <time>2021-08-11T08:43:41.399Z</time>
      </trkpt>
      <trkpt lat="46.8839" lon="8.5413">
        <ele>1628</ele>
        <time>2021-08-11T08:43:42.400Z</time>
      </trkpt>
      <trkpt lat="46.8839" lon="8.5413">
        <ele>1628</ele>
        <time>2021-08-11T08:43:43.399Z</time>
      </trkpt>
      <trkpt lat="46.8839" lon="8.5413">
        <ele>1628</ele>
        <time>2021-08-11T08:43:44.399Z</time>
      </trkpt>
      <trkpt lat="46.8839" lon="8.54129">
        <ele>1628</ele>
        <time>2021-08-11T08:43:45.400Z</time>
      </trkpt>
      <trkpt lat="46.8839" lon="8.54129">
        <ele>1628</ele>
        <time>2021-08-11T08:43:46.399Z</time>
      </trkpt>
      <trkpt lat="46.8839" lon="8.54129">
        <ele>1629</ele>
        <time>2021-08-11T08:43:47.400Z</time>
      </trkpt>
      <trkpt lat="46.8839" lon="8.54129">
        <ele>1629</ele>
        <time>2021-08-11T08:43:48.400Z</time>
      </trkpt>
      <trkpt lat="46.88391" lon="8.54128">
        <ele>1630</ele>
        <time>2021-08-11T08:43:49.401Z</time>
      </trkpt>
      <trkpt lat="46.88392" lon="8.54128">
        <ele>1631</ele>
        <time>2021-08-11T08:43:50.400Z</time>
      </trkpt>
      <trkpt lat="46.88393" lon="8.54128">
        <ele>1631</ele>
        <time>2021-08-11T08:43:51.400Z</time>
      </trkpt>
      <trkpt lat="46.88393" lon="8.54128">
        <ele>1631</ele>
        <time>2021-08-11T08:43:52.401Z</time>
      </trkpt>
      <trkpt lat="46.88394" lon="8.54127">
        <ele>1632</ele>
        <time>2021-08-11T08:43:53.400Z</time>
      </trkpt>
      <trkpt lat="46.88394" lon="8.54127">
        <ele>1631</ele>
        <time>2021-08-11T08:43:54.400Z</time>
      </trkpt>
      <trkpt lat="46.88395" lon="8.54126">
        <ele>1631</ele>
        <time>2021-08-11T08:43:55.400Z</time>
      </trkpt>
      <trkpt lat="46.88395" lon="8.54126">
        <ele>1631</ele>
        <time>2021-08-11T08:43:56.400Z</time>
      </trkpt>
      <trkpt lat="46.88396" lon="8.54126">
        <ele>1631</ele>
        <time>2021-08-11T08:43:57.400Z</time>
      </trkpt>
      <trkpt lat="46.88397" lon="8.54125">
        <ele>1631</ele>
        <time>2021-08-11T08:43:58.400Z</time>
      </trkpt>
      <trkpt lat="46.88397" lon="8.54125">
        <ele>1632</ele>
        <time>2021-08-11T08:43:59.400Z</time>
      </trkpt>
      <trkpt lat="46.88397" lon="8.54125">
        <ele>1632</ele>
        <time>2021-08-11T08:44:00.400Z</time>
      </trkpt>
      <trkpt lat="46.88398" lon="8.54125">
        <ele>1632</ele>
        <time>2021-08-11T08:44:01.401Z</time>
      </trkpt>
      <trkpt lat="46.88398" lon="8.54124">
        <ele>1631</ele>
        <time>2021-08-11T08:44:02.401Z</time>
      </trkpt>
      <trkpt lat="46.88398" lon="8.54124">
        <ele>1631</ele>
        <time>2021-08-11T08:44:03.401Z</time>
      </trkpt>
      <trkpt lat="46.88398" lon="8.54124">
        <ele>1631</ele>
        <time>2021-08-11T08:44:04.400Z</time>
      </trkpt>
      <trkpt lat="46.88399" lon="8.54124">
        <ele>1631</ele>
        <time>2021-08-11T08:44:05.400Z</time>
      </trkpt>
      <trkpt lat="46.88399" lon="8.54124">
        <ele>1631</ele>
        <time>2021-08-11T08:44:06.401Z</time>
      </trkpt>
      <trkpt lat="46.88399" lon="8.54123">
        <ele>1631</ele>
        <time>2021-08-11T08:44:07.400Z</time>
      </trkpt>
      <trkpt lat="46.884" lon="8.54123">
        <ele>1631</ele>
        <time>2021-08-11T08:44:08.400Z</time>
      </trkpt>
      <trkpt lat="46.88401" lon="8.54123">
        <ele>1631</ele>
        <time>2021-08-11T08:44:09.401Z</time>
      </trkpt>
      <trkpt lat="46.88402" lon="8.54123">
        <ele>1631</ele>
        <time>2021-08-11T08:44:10.400Z</time>
      </trkpt>
      <trkpt lat="46.88403" lon="8.54123">
        <ele>1632</ele>
        <time>2021-08-11T08:44:11.400Z</time>
      </trkpt>
      <trkpt lat="46.88403" lon="8.54123">
        <ele>1632</ele>
        <time>2021-08-11T08:44:12.401Z</time>
      </trkpt>
      <trkpt lat="46.88404" lon="8.54123">
        <ele>1632</ele>
        <time>2021-08-11T08:44:13.400Z</time>
      </trkpt>
      <trkpt lat="46.88404" lon="8.54124">
        <ele>1632</ele>
        <time>2021-08-11T08:44:14.401Z</time>
      </trkpt>
      <trkpt lat="46.88405" lon="8.54125">
        <ele>1632</ele>
        <time>2021-08-11T08:44:15.401Z</time>
      </trkpt>
      <trkpt lat="46.88405" lon="8.54125">
        <ele>1632</ele>
        <time>2021-08-11T08:44:16.401Z</time>
      </trkpt>
      <trkpt lat="46.88405" lon="8.54125">
        <ele>1632</ele>
        <time>2021-08-11T08:44:17.400Z</time>
      </trkpt>
      <trkpt lat="46.88405" lon="8.54126">
        <ele>1632</ele>
        <time>2021-08-11T08:44:18.400Z</time>
      </trkpt>
      <trkpt lat="46.88406" lon="8.54126">
        <ele>1631</ele>
        <time>2021-08-11T08:44:19.400Z</time>
      </trkpt>
      <trkpt lat="46.88406" lon="8.54125">
        <ele>1631</ele>
        <time>2021-08-11T08:44:20.400Z</time>
      </trkpt>
      <trkpt lat="46.88407" lon="8.54125">
        <ele>1630</ele>
        <time>2021-08-11T08:44:21.401Z</time>
      </trkpt>
      <trkpt lat="46.88408" lon="8.54125">
        <ele>1630</ele>
        <time>2021-08-11T08:44:22.400Z</time>
      </trkpt>
      <trkpt lat="46.88408" lon="8.54125">
        <ele>1630</ele>
        <time>2021-08-11T08:44:23.401Z</time>
      </trkpt>
      <trkpt lat="46.88408" lon="8.54125">
        <ele>1630</ele>
        <time>2021-08-11T08:44:24.400Z</time>
      </trkpt>
      <trkpt lat="46.88409" lon="8.54125">
        <ele>1630</ele>
        <time>2021-08-11T08:44:25.400Z</time>
      </trkpt>
      <trkpt lat="46.88409" lon="8.54124">
        <ele>1630</ele>
        <time>2021-08-11T08:44:26.400Z</time>
      </trkpt>
      <trkpt lat="46.88409" lon="8.54124">
        <ele>1630</ele>
        <time>2021-08-11T08:44:27.400Z</time>
      </trkpt>
      <trkpt lat="46.8841" lon="8.54124">
        <ele>1631</ele>
        <time>2021-08-11T08:44:28.401Z</time>
      </trkpt>
      <trkpt lat="46.88411" lon="8.54123">
        <ele>1631</ele>
        <time>2021-08-11T08:44:29.400Z</time>
      </trkpt>
      <trkpt lat="46.88411" lon="8.54123">
        <ele>1631</ele>
        <time>2021-08-11T08:44:30.400Z</time>
      </trkpt>
      <trkpt lat="46.88412" lon="8.54123">
        <ele>1631</ele>
        <time>2021-08-11T08:44:31.401Z</time>
      </trkpt>
      <trkpt lat="46.88413" lon="8.54123">
        <ele>1632</ele>
        <time>2021-08-11T08:44:32.400Z</time>
      </trkpt>
      <trkpt lat="46.88413" lon="8.54123">
        <ele>1632</ele>
        <time>2021-08-11T08:44:33.400Z</time>
      </trkpt>
      <trkpt lat="46.88414" lon="8.54123">
        <ele>1633</ele>
        <time>2021-08-11T08:44:34.400Z</time>
      </trkpt>
      <trkpt lat="46.88415" lon="8.54123">
        <ele>1634</ele>
        <time>2021-08-11T08:44:35.400Z</time>
      </trkpt>
      <trkpt lat="46.88415" lon="8.54123">
        <ele>1634</ele>
        <time>2021-08-11T08:44:36.400Z</time>
      </trkpt>
      <trkpt lat="46.88415" lon="8.54122">
        <ele>1635</ele>
        <time>2021-08-11T08:44:37.401Z</time>
      </trkpt>
      <trkpt lat="46.88416" lon="8.54122">
        <ele>1635</ele>
        <time>2021-08-11T08:44:38.400Z</time>
      </trkpt>
      <trkpt lat="46.88416" lon="8.54122">
        <ele>1635</ele>
        <time>2021-08-11T08:44:39.401Z</time>
      </trkpt>
      <trkpt lat="46.88416" lon="8.54122">
        <ele>1636</ele>
        <time>2021-08-11T08:44:40.400Z</time>
      </trkpt>
      <trkpt lat="46.88417" lon="8.54121">
        <ele>1636</ele>
        <time>2021-08-11T08:44:41.400Z</time>
      </trkpt>
      <trkpt lat="46.88417" lon="8.54121">
        <ele>1636</ele>
        <time>2021-08-11T08:44:42.400Z</time>
      </trkpt>
      <trkpt lat="46.88418" lon="8.5412">
        <ele>1636</ele>
        <time>2021-08-11T08:44:43.401Z</time>
      </trkpt>
      <trkpt lat="46.88418" lon="8.5412">
        <ele>1637</ele>
        <time>2021-08-11T08:44:44.400Z</time>
      </trkpt>
      <trkpt lat="46.88418" lon="8.5412">
        <ele>1637</ele>
        <time>2021-08-11T08:44:45.400Z</time>
      </trkpt>
      <trkpt lat="46.88419" lon="8.5412">
        <ele>1638</ele>
        <time>2021-08-11T08:44:46.401Z</time>
      </trkpt>
      <trkpt lat="46.88419" lon="8.54119">
        <ele>1638</ele>
        <time>2021-08-11T08:44:47.400Z</time>
      </trkpt>
      <trkpt lat="46.88419" lon="8.54119">
        <ele>1638</ele>
        <time>2021-08-11T08:44:48.400Z</time>
      </trkpt>
      <trkpt lat="46.8842" lon="8.54118">
        <ele>1638</ele>
        <time>2021-08-11T08:44:49.401Z</time>
      </trkpt>
      <trkpt lat="46.8842" lon="8.54118">
        <ele>1638</ele>
        <time>2021-08-11T08:44:50.400Z</time>
      </trkpt>
      <trkpt lat="46.88421" lon="8.54118">
        <ele>1639</ele>
        <time>2021-08-11T08:44:51.401Z</time>
      </trkpt>
      <trkpt lat="46.88421" lon="8.54117">
        <ele>1639</ele>
        <time>2021-08-11T08:44:52.401Z</time>
      </trkpt>
      <trkpt lat="46.88422" lon="8.54117">
        <ele>1639</ele>
        <time>2021-08-11T08:44:53.400Z</time>
      </trkpt>
      <trkpt lat="46.88422" lon="8.54116">
        <ele>1640</ele>
        <time>2021-08-11T08:44:54.400Z</time>
      </trkpt>
      <trkpt lat="46.88423" lon="8.54116">
        <ele>1641</ele>
        <time>2021-08-11T08:44:55.401Z</time>
      </trkpt>
      <trkpt lat="46.88424" lon="8.54115">
        <ele>1641</ele>
        <time>2021-08-11T08:44:56.400Z</time>
      </trkpt>
      <trkpt lat="46.88424" lon="8.54114">
        <ele>1642</ele>
        <time>2021-08-11T08:44:57.400Z</time>
      </trkpt>
      <trkpt lat="46.88424" lon="8.54114">
        <ele>1643</ele>
        <time>2021-08-11T08:44:58.401Z</time>
      </trkpt>
      <trkpt lat="46.88424" lon="8.54113">
        <ele>1643</ele>
        <time>2021-08-11T08:44:59.400Z</time>
      </trkpt>
      <trkpt lat="46.88424" lon="8.54113">
        <ele>1643</ele>
        <time>2021-08-11T08:45:00.400Z</time>
      </trkpt>
      <trkpt lat="46.88424" lon="8.54113">
        <ele>1644</ele>
        <time>2021-08-11T08:45:01.400Z</time>
      </trkpt>
      <trkpt lat="46.88424" lon="8.54113">
        <ele>1644</ele>
        <time>2021-08-11T08:45:02.401Z</time>
      </trkpt>
      <trkpt lat="46.88424" lon="8.54113">
        <ele>1645</ele>
        <time>2021-08-11T08:45:03.400Z</time>
      </trkpt>
      <trkpt lat="46.88424" lon="8.54113">
        <ele>1645</ele>
        <time>2021-08-11T08:45:04.400Z</time>
      </trkpt>
      <trkpt lat="46.88424" lon="8.54113">
        <ele>1645</ele>
        <time>2021-08-11T08:45:05.400Z</time>
      </trkpt>
      <trkpt lat="46.88423" lon="8.54113">
        <ele>1644</ele>
        <time>2021-08-11T08:45:06.400Z</time>
      </trkpt>
      <trkpt lat="46.88423" lon="8.54112">
        <ele>1643</ele>
        <time>2021-08-11T08:45:07.400Z</time>
      </trkpt>
      <trkpt lat="46.88423" lon="8.54112">
        <ele>1643</ele>
        <time>2021-08-11T08:45:08.400Z</time>
      </trkpt>
      <trkpt lat="46.88424" lon="8.54111">
        <ele>1643</ele>
        <time>2021-08-11T08:45:09.401Z</time>
      </trkpt>
      <trkpt lat="46.88424" lon="8.54111">
        <ele>1643</ele>
        <time>2021-08-11T08:45:10.402Z</time>
      </trkpt>
      <trkpt lat="46.88424" lon="8.54111">
        <ele>1644</ele>
        <time>2021-08-11T08:45:11.402Z</time>
      </trkpt>
      <trkpt lat="46.88424" lon="8.5411">
        <ele>1644</ele>
        <time>2021-08-11T08:45:12.401Z</time>
      </trkpt>
      <trkpt lat="46.88423" lon="8.5411">
        <ele>1645</ele>
        <time>2021-08-11T08:45:13.402Z</time>
      </trkpt>
      <trkpt lat="46.88423" lon="8.54111">
        <ele>1645</ele>
        <time>2021-08-11T08:45:14.402Z</time>
      </trkpt>
      <trkpt lat="46.88423" lon="8.54111">
        <ele>1645</ele>
        <time>2021-08-11T08:45:15.402Z</time>
      </trkpt>
      <trkpt lat="46.88423" lon="8.54112">
        <ele>1645</ele>
        <time>2021-08-11T08:45:16.401Z</time>
      </trkpt>
      <trkpt lat="46.88423" lon="8.54115">
        <ele>1642</ele>
        <time>2021-08-11T08:45:17.401Z</time>
      </trkpt>
      <trkpt lat="46.88423" lon="8.54115">
        <ele>1641</ele>
        <time>2021-08-11T08:45:18.402Z</time>
      </trkpt>
      <trkpt lat="46.88423" lon="8.54115">
        <ele>1641</ele>
        <time>2021-08-11T08:45:19.402Z</time>
      </trkpt>
      <trkpt lat="46.88423" lon="8.54115">
        <ele>1641</ele>
        <time>2021-08-11T08:45:20.402Z</time>
      </trkpt>
      <trkpt lat="46.88424" lon="8.54114">
        <ele>1642</ele>
        <time>2021-08-11T08:45:21.401Z</time>
      </trkpt>
      <trkpt lat="46.88424" lon="8.54114">
        <ele>1642</ele>
        <time>2021-08-11T08:45:22.402Z</time>
      </trkpt>
      <trkpt lat="46.88424" lon="8.54115">
        <ele>1642</ele>
        <time>2021-08-11T08:45:23.401Z</time>
      </trkpt>
      <trkpt lat="46.88424" lon="8.54115">
        <ele>1642</ele>
        <time>2021-08-11T08:45:24.402Z</time>
      </trkpt>
      <trkpt lat="46.88424" lon="8.54115">
        <ele>1642</ele>
        <time>2021-08-11T08:45:25.402Z</time>
      </trkpt>
      <trkpt lat="46.88424" lon="8.54114">
        <ele>1640</ele>
        <time>2021-08-11T08:45:26.402Z</time>
      </trkpt>
      <trkpt lat="46.88424" lon="8.54114">
        <ele>1640</ele>
        <time>2021-08-11T08:45:27.401Z</time>
      </trkpt>
      <trkpt lat="46.88424" lon="8.54114">
        <ele>1640</ele>
        <time>2021-08-11T08:45:28.401Z</time>
      </trkpt>
      <trkpt lat="46.88423" lon="8.54116">
        <ele>1639</ele>
        <time>2021-08-11T08:45:29.403Z</time>
      </trkpt>
      <trkpt lat="46.88423" lon="8.54115">
        <ele>1640</ele>
        <time>2021-08-11T08:45:30.402Z</time>
      </trkpt>
      <trkpt lat="46.88423" lon="8.54115">
        <ele>1641</ele>
        <time>2021-08-11T08:45:31.402Z</time>
      </trkpt>
      <trkpt lat="46.88423" lon="8.54115">
        <ele>1641</ele>
        <time>2021-08-11T08:45:32.403Z</time>
      </trkpt>
      <trkpt lat="46.88423" lon="8.54115">
        <ele>1641</ele>
        <time>2021-08-11T08:45:33.402Z</time>
      </trkpt>
      <trkpt lat="46.88423" lon="8.54115">
        <ele>1644</ele>
        <time>2021-08-11T08:45:34.403Z</time>
      </trkpt>
      <trkpt lat="46.88423" lon="8.54115">
        <ele>1644</ele>
        <time>2021-08-11T08:45:35.404Z</time>
      </trkpt>
      <trkpt lat="46.88423" lon="8.54114">
        <ele>1643</ele>
        <time>2021-08-11T08:45:36.403Z</time>
      </trkpt>
      <trkpt lat="46.88423" lon="8.54114">
        <ele>1641</ele>
        <time>2021-08-11T08:45:37.405Z</time>
      </trkpt>
      <trkpt lat="46.88423" lon="8.54114">
        <ele>1641</ele>
        <time>2021-08-11T08:45:38.404Z</time>
      </trkpt>
      <trkpt lat="46.88423" lon="8.54114">
        <ele>1641</ele>
        <time>2021-08-11T08:45:39.404Z</time>
      </trkpt>
      <trkpt lat="46.88423" lon="8.54113">
        <ele>1641</ele>
        <time>2021-08-11T08:45:40.404Z</time>
      </trkpt>
      <trkpt lat="46.88423" lon="8.54114">
        <ele>1639</ele>
        <time>2021-08-11T08:45:41.405Z</time>
      </trkpt>
      <trkpt lat="46.88423" lon="8.54112">
        <ele>1639</ele>
        <time>2021-08-11T08:45:42.405Z</time>
      </trkpt>
      <trkpt lat="46.88423" lon="8.54113">
        <ele>1640</ele>
        <time>2021-08-11T08:45:43.405Z</time>
      </trkpt>
      <trkpt lat="46.88424" lon="8.54112">
        <ele>1642</ele>
        <time>2021-08-11T08:45:44.406Z</time>
      </trkpt>
      <trkpt lat="46.88424" lon="8.54112">
        <ele>1642</ele>
        <time>2021-08-11T08:45:45.406Z</time>
      </trkpt>
      <trkpt lat="46.88423" lon="8.54113">
        <ele>1640</ele>
        <time>2021-08-11T08:45:46.406Z</time>
      </trkpt>
      <trkpt lat="46.88424" lon="8.54114">
        <ele>1640</ele>
        <time>2021-08-11T08:45:47.407Z</time>
      </trkpt>
      <trkpt lat="46.88424" lon="8.54114">
        <ele>1641</ele>
        <time>2021-08-11T08:45:48.406Z</time>
      </trkpt>
      <trkpt lat="46.88425" lon="8.54114">
        <ele>1644</ele>
        <time>2021-08-11T08:45:49.406Z</time>
      </trkpt>
      <trkpt lat="46.88425" lon="8.54114">
        <ele>1644</ele>
        <time>2021-08-11T08:45:50.407Z</time>
      </trkpt>
      <trkpt lat="46.88425" lon="8.54114">
        <ele>1643</ele>
        <time>2021-08-11T08:45:51.406Z</time>
      </trkpt>
      <trkpt lat="46.88425" lon="8.54114">
        <ele>1643</ele>
        <time>2021-08-11T08:45:52.407Z</time>
      </trkpt>
      <trkpt lat="46.88425" lon="8.54114">
        <ele>1642</ele>
        <time>2021-08-11T08:45:53.406Z</time>
      </trkpt>
      <trkpt lat="46.88426" lon="8.54114">
        <ele>1638</ele>
        <time>2021-08-11T08:45:54.408Z</time>
      </trkpt>
      <trkpt lat="46.88426" lon="8.54113">
        <ele>1638</ele>
        <time>2021-08-11T08:45:55.407Z</time>
      </trkpt>
      <trkpt lat="46.88426" lon="8.54113">
        <ele>1638</ele>
        <time>2021-08-11T08:45:56.407Z</time>
      </trkpt>
      <trkpt lat="46.88426" lon="8.54113">
        <ele>1638</ele>
        <time>2021-08-11T08:45:57.408Z</time>
      </trkpt>
      <trkpt lat="46.88427" lon="8.54113">
        <ele>1638</ele>
        <time>2021-08-11T08:45:58.407Z</time>
      </trkpt>
      <trkpt lat="46.88426" lon="8.54113">
        <ele>1638</ele>
        <time>2021-08-11T08:45:59.407Z</time>
      </trkpt>
      <trkpt lat="46.88426" lon="8.54113">
        <ele>1638</ele>
        <time>2021-08-11T08:46:00.408Z</time>
      </trkpt>
      <trkpt lat="46.88427" lon="8.54112">
        <ele>1638</ele>
        <time>2021-08-11T08:46:01.407Z</time>
      </trkpt>
      <trkpt lat="46.88427" lon="8.54112">
        <ele>1637</ele>
        <time>2021-08-11T08:46:02.408Z</time>
      </trkpt>
      <trkpt lat="46.88426" lon="8.54112">
        <ele>1637</ele>
        <time>2021-08-11T08:46:03.407Z</time>
      </trkpt>
      <trkpt lat="46.88426" lon="8.54111">
        <ele>1637</ele>
        <time>2021-08-11T08:46:04.408Z</time>
      </trkpt>
      <trkpt lat="46.88426" lon="8.54111">
        <ele>1637</ele>
        <time>2021-08-11T08:46:05.407Z</time>
      </trkpt>
      <trkpt lat="46.88425" lon="8.54111">
        <ele>1638</ele>
        <time>2021-08-11T08:46:06.407Z</time>
      </trkpt>
      <trkpt lat="46.88427" lon="8.54114">
        <ele>1642</ele>
        <time>2021-08-11T08:46:07.407Z</time>
      </trkpt>
      <trkpt lat="46.88427" lon="8.54114">
        <ele>1643</ele>
        <time>2021-08-11T08:46:08.407Z</time>
      </trkpt>
      <trkpt lat="46.88425" lon="8.54115">
        <ele>1639</ele>
        <time>2021-08-11T08:46:09.408Z</time>
      </trkpt>
      <trkpt lat="46.88425" lon="8.54115">
        <ele>1639</ele>
        <time>2021-08-11T08:46:10.407Z</time>
      </trkpt>
      <trkpt lat="46.88427" lon="8.54116">
        <ele>1641</ele>
        <time>2021-08-11T08:46:11.407Z</time>
      </trkpt>
      <trkpt lat="46.88428" lon="8.54117">
        <ele>1642</ele>
        <time>2021-08-11T08:46:12.408Z</time>
      </trkpt>
      <trkpt lat="46.88428" lon="8.54116">
        <ele>1642</ele>
        <time>2021-08-11T08:46:13.407Z</time>
      </trkpt>
      <trkpt lat="46.88428" lon="8.54116">
        <ele>1642</ele>
        <time>2021-08-11T08:46:14.407Z</time>
      </trkpt>
      <trkpt lat="46.88426" lon="8.54115">
        <ele>1641</ele>
        <time>2021-08-11T08:46:15.408Z</time>
      </trkpt>
      <trkpt lat="46.88426" lon="8.54114">
        <ele>1641</ele>
        <time>2021-08-11T08:46:16.407Z</time>
      </trkpt>
      <trkpt lat="46.88426" lon="8.54114">
        <ele>1641</ele>
        <time>2021-08-11T08:46:17.407Z</time>
      </trkpt>
      <trkpt lat="46.88426" lon="8.54114">
        <ele>1640</ele>
        <time>2021-08-11T08:46:18.408Z</time>
      </trkpt>
      <trkpt lat="46.88425" lon="8.54114">
        <ele>1639</ele>
        <time>2021-08-11T08:46:19.409Z</time>
      </trkpt>
      <trkpt lat="46.88426" lon="8.54113">
        <ele>1639</ele>
        <time>2021-08-11T08:46:20.409Z</time>
      </trkpt>
      <trkpt lat="46.88427" lon="8.54112">
        <ele>1639</ele>
        <time>2021-08-11T08:46:21.408Z</time>
      </trkpt>
      <trkpt lat="46.88428" lon="8.54112">
        <ele>1639</ele>
        <time>2021-08-11T08:46:22.409Z</time>
      </trkpt>
      <trkpt lat="46.88428" lon="8.54112">
        <ele>1639</ele>
        <time>2021-08-11T08:46:23.409Z</time>
      </trkpt>
      <trkpt lat="46.88428" lon="8.54112">
        <ele>1639</ele>
        <time>2021-08-11T08:46:24.409Z</time>
      </trkpt>
      <trkpt lat="46.88428" lon="8.54112">
        <ele>1639</ele>
        <time>2021-08-11T08:46:25.408Z</time>
      </trkpt>
      <trkpt lat="46.88428" lon="8.54112">
        <ele>1639</ele>
        <time>2021-08-11T08:46:26.409Z</time>
      </trkpt>
      <trkpt lat="46.88428" lon="8.54113">
        <ele>1639</ele>
        <time>2021-08-11T08:46:27.409Z</time>
      </trkpt>
      <trkpt lat="46.88428" lon="8.54113">
        <ele>1639</ele>
        <time>2021-08-11T08:46:28.409Z</time>
      </trkpt>
      <trkpt lat="46.88429" lon="8.54112">
        <ele>1639</ele>
        <time>2021-08-11T08:46:29.409Z</time>
      </trkpt>
      <trkpt lat="46.88429" lon="8.54111">
        <ele>1639</ele>
        <time>2021-08-11T08:46:30.409Z</time>
      </trkpt>
      <trkpt lat="46.8843" lon="8.54111">
        <ele>1639</ele>
        <time>2021-08-11T08:46:31.409Z</time>
      </trkpt>
      <trkpt lat="46.8843" lon="8.54111">
        <ele>1640</ele>
        <time>2021-08-11T08:46:32.409Z</time>
      </trkpt>
      <trkpt lat="46.88431" lon="8.54111">
        <ele>1641</ele>
        <time>2021-08-11T08:46:33.409Z</time>
      </trkpt>
      <trkpt lat="46.88431" lon="8.5411">
        <ele>1641</ele>
        <time>2021-08-11T08:46:34.409Z</time>
      </trkpt>
      <trkpt lat="46.88432" lon="8.5411">
        <ele>1641</ele>
        <time>2021-08-11T08:46:35.409Z</time>
      </trkpt>
      <trkpt lat="46.88432" lon="8.54109">
        <ele>1641</ele>
        <time>2021-08-11T08:46:36.408Z</time>
      </trkpt>
      <trkpt lat="46.88432" lon="8.54109">
        <ele>1641</ele>
        <time>2021-08-11T08:46:37.409Z</time>
      </trkpt>
      <trkpt lat="46.88432" lon="8.54109">
        <ele>1641</ele>
        <time>2021-08-11T08:46:38.408Z</time>
      </trkpt>
      <trkpt lat="46.88433" lon="8.54108">
        <ele>1642</ele>
        <time>2021-08-11T08:46:39.409Z</time>
      </trkpt>
      <trkpt lat="46.88433" lon="8.54108">
        <ele>1642</ele>
        <time>2021-08-11T08:46:40.409Z</time>
      </trkpt>
      <trkpt lat="46.88434" lon="8.54107">
        <ele>1642</ele>
        <time>2021-08-11T08:46:41.409Z</time>
      </trkpt>
      <trkpt lat="46.88434" lon="8.54107">
        <ele>1642</ele>
        <time>2021-08-11T08:46:42.409Z</time>
      </trkpt>
      <trkpt lat="46.88435" lon="8.54106">
        <ele>1642</ele>
        <time>2021-08-11T08:46:43.409Z</time>
      </trkpt>
      <trkpt lat="46.88435" lon="8.54106">
        <ele>1643</ele>
        <time>2021-08-11T08:46:44.409Z</time>
      </trkpt>
      <trkpt lat="46.88435" lon="8.54105">
        <ele>1643</ele>
        <time>2021-08-11T08:46:45.409Z</time>
      </trkpt>
      <trkpt lat="46.88436" lon="8.54105">
        <ele>1643</ele>
        <time>2021-08-11T08:46:46.408Z</time>
      </trkpt>
      <trkpt lat="46.88436" lon="8.54104">
        <ele>1643</ele>
        <time>2021-08-11T08:46:47.409Z</time>
      </trkpt>
      <trkpt lat="46.88437" lon="8.54104">
        <ele>1643</ele>
        <time>2021-08-11T08:46:48.409Z</time>
      </trkpt>
      <trkpt lat="46.88437" lon="8.54103">
        <ele>1643</ele>
        <time>2021-08-11T08:46:49.409Z</time>
      </trkpt>
      <trkpt lat="46.88437" lon="8.54103">
        <ele>1643</ele>
        <time>2021-08-11T08:46:50.408Z</time>
      </trkpt>
      <trkpt lat="46.88438" lon="8.54102">
        <ele>1644</ele>
        <time>2021-08-11T08:46:51.409Z</time>
      </trkpt>
      <trkpt lat="46.88437" lon="8.54102">
        <ele>1644</ele>
        <time>2021-08-11T08:46:52.409Z</time>
      </trkpt>
      <trkpt lat="46.88437" lon="8.54102">
        <ele>1644</ele>
        <time>2021-08-11T08:46:53.409Z</time>
      </trkpt>
      <trkpt lat="46.88437" lon="8.54101">
        <ele>1644</ele>
        <time>2021-08-11T08:46:54.409Z</time>
      </trkpt>
      <trkpt lat="46.88437" lon="8.541">
        <ele>1645</ele>
        <time>2021-08-11T08:46:55.409Z</time>
      </trkpt>
      <trkpt lat="46.88438" lon="8.541">
        <ele>1646</ele>
        <time>2021-08-11T08:46:56.409Z</time>
      </trkpt>
      <trkpt lat="46.88438" lon="8.541">
        <ele>1646</ele>
        <time>2021-08-11T08:46:57.409Z</time>
      </trkpt>
      <trkpt lat="46.88438" lon="8.54099">
        <ele>1647</ele>
        <time>2021-08-11T08:46:58.409Z</time>
      </trkpt>
      <trkpt lat="46.88439" lon="8.54099">
        <ele>1648</ele>
        <time>2021-08-11T08:46:59.409Z</time>
      </trkpt>
      <trkpt lat="46.8844" lon="8.54099">
        <ele>1648</ele>
        <time>2021-08-11T08:47:00.409Z</time>
      </trkpt>
      <trkpt lat="46.8844" lon="8.54099">
        <ele>1649</ele>
        <time>2021-08-11T08:47:01.408Z</time>
      </trkpt>
      <trkpt lat="46.88441" lon="8.54098">
        <ele>1649</ele>
        <time>2021-08-11T08:47:02.409Z</time>
      </trkpt>
      <trkpt lat="46.88441" lon="8.54098">
        <ele>1650</ele>
        <time>2021-08-11T08:47:03.409Z</time>
      </trkpt>
      <trkpt lat="46.88441" lon="8.54098">
        <ele>1650</ele>
        <time>2021-08-11T08:47:04.409Z</time>
      </trkpt>
      <trkpt lat="46.88441" lon="8.54097">
        <ele>1651</ele>
        <time>2021-08-11T08:47:05.409Z</time>
      </trkpt>
      <trkpt lat="46.88442" lon="8.54096">
        <ele>1650</ele>
        <time>2021-08-11T08:47:06.410Z</time>
      </trkpt>
      <trkpt lat="46.88442" lon="8.54095">
        <ele>1649</ele>
        <time>2021-08-11T08:47:07.409Z</time>
      </trkpt>
      <trkpt lat="46.88442" lon="8.54095">
        <ele>1649</ele>
        <time>2021-08-11T08:47:08.409Z</time>
      </trkpt>
      <trkpt lat="46.88442" lon="8.54094">
        <ele>1649</ele>
        <time>2021-08-11T08:47:09.409Z</time>
      </trkpt>
      <trkpt lat="46.88442" lon="8.54094">
        <ele>1648</ele>
        <time>2021-08-11T08:47:10.410Z</time>
      </trkpt>
      <trkpt lat="46.88442" lon="8.54094">
        <ele>1648</ele>
        <time>2021-08-11T08:47:11.410Z</time>
      </trkpt>
      <trkpt lat="46.88443" lon="8.54094">
        <ele>1648</ele>
        <time>2021-08-11T08:47:12.409Z</time>
      </trkpt>
      <trkpt lat="46.88443" lon="8.54094">
        <ele>1648</ele>
        <time>2021-08-11T08:47:13.409Z</time>
      </trkpt>
      <trkpt lat="46.88443" lon="8.54093">
        <ele>1648</ele>
        <time>2021-08-11T08:47:14.410Z</time>
      </trkpt>
      <trkpt lat="46.88444" lon="8.54092">
        <ele>1648</ele>
        <time>2021-08-11T08:47:15.410Z</time>
      </trkpt>
      <trkpt lat="46.88444" lon="8.54092">
        <ele>1648</ele>
        <time>2021-08-11T08:47:16.410Z</time>
      </trkpt>
      <trkpt lat="46.88444" lon="8.54092">
        <ele>1648</ele>
        <time>2021-08-11T08:47:17.410Z</time>
      </trkpt>
      <trkpt lat="46.88445" lon="8.54091">
        <ele>1648</ele>
        <time>2021-08-11T08:47:18.409Z</time>
      </trkpt>
      <trkpt lat="46.88445" lon="8.54091">
        <ele>1648</ele>
        <time>2021-08-11T08:47:19.410Z</time>
      </trkpt>
      <trkpt lat="46.88445" lon="8.54091">
        <ele>1647</ele>
        <time>2021-08-11T08:47:20.410Z</time>
      </trkpt>
      <trkpt lat="46.88445" lon="8.54091">
        <ele>1647</ele>
        <time>2021-08-11T08:47:21.410Z</time>
      </trkpt>
      <trkpt lat="46.88446" lon="8.54091">
        <ele>1647</ele>
        <time>2021-08-11T08:47:22.410Z</time>
      </trkpt>
      <trkpt lat="46.88447" lon="8.5409">
        <ele>1647</ele>
        <time>2021-08-11T08:47:23.410Z</time>
      </trkpt>
      <trkpt lat="46.88447" lon="8.54089">
        <ele>1646</ele>
        <time>2021-08-11T08:47:24.409Z</time>
      </trkpt>
      <trkpt lat="46.88447" lon="8.54089">
        <ele>1646</ele>
        <time>2021-08-11T08:47:25.410Z</time>
      </trkpt>
      <trkpt lat="46.88448" lon="8.54089">
        <ele>1646</ele>
        <time>2021-08-11T08:47:26.410Z</time>
      </trkpt>
      <trkpt lat="46.88448" lon="8.54089">
        <ele>1646</ele>
        <time>2021-08-11T08:47:27.410Z</time>
      </trkpt>
      <trkpt lat="46.88448" lon="8.54089">
        <ele>1646</ele>
        <time>2021-08-11T08:47:28.410Z</time>
      </trkpt>
      <trkpt lat="46.88449" lon="8.54089">
        <ele>1646</ele>
        <time>2021-08-11T08:47:29.409Z</time>
      </trkpt>
      <trkpt lat="46.88449" lon="8.54089">
        <ele>1646</ele>
        <time>2021-08-11T08:47:30.410Z</time>
      </trkpt>
      <trkpt lat="46.8845" lon="8.54089">
        <ele>1646</ele>
        <time>2021-08-11T08:47:31.409Z</time>
      </trkpt>
      <trkpt lat="46.8845" lon="8.54089">
        <ele>1647</ele>
        <time>2021-08-11T08:47:32.409Z</time>
      </trkpt>
      <trkpt lat="46.88451" lon="8.54089">
        <ele>1647</ele>
        <time>2021-08-11T08:47:33.410Z</time>
      </trkpt>
      <trkpt lat="46.88451" lon="8.5409">
        <ele>1648</ele>
        <time>2021-08-11T08:47:34.409Z</time>
      </trkpt>
      <trkpt lat="46.88452" lon="8.5409">
        <ele>1649</ele>
        <time>2021-08-11T08:47:35.409Z</time>
      </trkpt>
      <trkpt lat="46.88452" lon="8.54091">
        <ele>1649</ele>
        <time>2021-08-11T08:47:36.410Z</time>
      </trkpt>
      <trkpt lat="46.88452" lon="8.54093">
        <ele>1650</ele>
        <time>2021-08-11T08:47:37.410Z</time>
      </trkpt>
      <trkpt lat="46.88453" lon="8.54093">
        <ele>1650</ele>
        <time>2021-08-11T08:47:38.409Z</time>
      </trkpt>
      <trkpt lat="46.88453" lon="8.54094">
        <ele>1651</ele>
        <time>2021-08-11T08:47:39.409Z</time>
      </trkpt>
      <trkpt lat="46.88453" lon="8.54095">
        <ele>1651</ele>
        <time>2021-08-11T08:47:40.410Z</time>
      </trkpt>
      <trkpt lat="46.88454" lon="8.54095">
        <ele>1651</ele>
        <time>2021-08-11T08:47:41.409Z</time>
      </trkpt>
      <trkpt lat="46.88454" lon="8.54095">
        <ele>1651</ele>
        <time>2021-08-11T08:47:42.409Z</time>
      </trkpt>
      <trkpt lat="46.88455" lon="8.54095">
        <ele>1651</ele>
        <time>2021-08-11T08:47:43.410Z</time>
      </trkpt>
      <trkpt lat="46.88455" lon="8.54096">
        <ele>1651</ele>
        <time>2021-08-11T08:47:44.409Z</time>
      </trkpt>
      <trkpt lat="46.88456" lon="8.54095">
        <ele>1651</ele>
        <time>2021-08-11T08:47:45.409Z</time>
      </trkpt>
      <trkpt lat="46.88456" lon="8.54095">
        <ele>1652</ele>
        <time>2021-08-11T08:47:46.410Z</time>
      </trkpt>
      <trkpt lat="46.88457" lon="8.54094">
        <ele>1652</ele>
        <time>2021-08-11T08:47:47.409Z</time>
      </trkpt>
      <trkpt lat="46.88457" lon="8.54094">
        <ele>1652</ele>
        <time>2021-08-11T08:47:48.410Z</time>
      </trkpt>
      <trkpt lat="46.88457" lon="8.54094">
        <ele>1652</ele>
        <time>2021-08-11T08:47:49.410Z</time>
      </trkpt>
      <trkpt lat="46.88457" lon="8.54094">
        <ele>1652</ele>
        <time>2021-08-11T08:47:50.409Z</time>
      </trkpt>
      <trkpt lat="46.88458" lon="8.54093">
        <ele>1651</ele>
        <time>2021-08-11T08:47:51.409Z</time>
      </trkpt>
      <trkpt lat="46.88458" lon="8.54093">
        <ele>1651</ele>
        <time>2021-08-11T08:47:52.410Z</time>
      </trkpt>
      <trkpt lat="46.88458" lon="8.54092">
        <ele>1651</ele>
        <time>2021-08-11T08:47:53.409Z</time>
      </trkpt>
      <trkpt lat="46.88459" lon="8.54091">
        <ele>1650</ele>
        <time>2021-08-11T08:47:54.410Z</time>
      </trkpt>
      <trkpt lat="46.88459" lon="8.54091">
        <ele>1650</ele>
        <time>2021-08-11T08:47:55.410Z</time>
      </trkpt>
      <trkpt lat="46.88459" lon="8.5409">
        <ele>1650</ele>
        <time>2021-08-11T08:47:56.410Z</time>
      </trkpt>
      <trkpt lat="46.8846" lon="8.5409">
        <ele>1650</ele>
        <time>2021-08-11T08:47:57.410Z</time>
      </trkpt>
      <trkpt lat="46.8846" lon="8.5409">
        <ele>1650</ele>
        <time>2021-08-11T08:47:58.409Z</time>
      </trkpt>
      <trkpt lat="46.8846" lon="8.54089">
        <ele>1650</ele>
        <time>2021-08-11T08:47:59.410Z</time>
      </trkpt>
      <trkpt lat="46.88461" lon="8.54088">
        <ele>1651</ele>
        <time>2021-08-11T08:48:00.409Z</time>
      </trkpt>
      <trkpt lat="46.88461" lon="8.54087">
        <ele>1650</ele>
        <time>2021-08-11T08:48:01.409Z</time>
      </trkpt>
      <trkpt lat="46.88461" lon="8.54087">
        <ele>1650</ele>
        <time>2021-08-11T08:48:02.409Z</time>
      </trkpt>
      <trkpt lat="46.88461" lon="8.54086">
        <ele>1650</ele>
        <time>2021-08-11T08:48:03.409Z</time>
      </trkpt>
      <trkpt lat="46.88461" lon="8.54086">
        <ele>1650</ele>
        <time>2021-08-11T08:48:04.409Z</time>
      </trkpt>
      <trkpt lat="46.88462" lon="8.54086">
        <ele>1650</ele>
        <time>2021-08-11T08:48:05.409Z</time>
      </trkpt>
      <trkpt lat="46.88462" lon="8.54086">
        <ele>1650</ele>
        <time>2021-08-11T08:48:06.409Z</time>
      </trkpt>
      <trkpt lat="46.88462" lon="8.54085">
        <ele>1650</ele>
        <time>2021-08-11T08:48:07.409Z</time>
      </trkpt>
      <trkpt lat="46.88463" lon="8.54085">
        <ele>1650</ele>
        <time>2021-08-11T08:48:08.409Z</time>
      </trkpt>
      <trkpt lat="46.88463" lon="8.54084">
        <ele>1650</ele>
        <time>2021-08-11T08:48:09.409Z</time>
      </trkpt>
      <trkpt lat="46.88464" lon="8.54084">
        <ele>1651</ele>
        <time>2021-08-11T08:48:10.409Z</time>
      </trkpt>
      <trkpt lat="46.88464" lon="8.54084">
        <ele>1651</ele>
        <time>2021-08-11T08:48:11.409Z</time>
      </trkpt>
      <trkpt lat="46.88465" lon="8.54083">
        <ele>1651</ele>
        <time>2021-08-11T08:48:12.409Z</time>
      </trkpt>
      <trkpt lat="46.88465" lon="8.54083">
        <ele>1652</ele>
        <time>2021-08-11T08:48:13.410Z</time>
      </trkpt>
      <trkpt lat="46.88465" lon="8.54083">
        <ele>1652</ele>
        <time>2021-08-11T08:48:14.410Z</time>
      </trkpt>
      <trkpt lat="46.88466" lon="8.54083">
        <ele>1653</ele>
        <time>2021-08-11T08:48:15.410Z</time>
      </trkpt>
      <trkpt lat="46.88466" lon="8.54083">
        <ele>1654</ele>
        <time>2021-08-11T08:48:16.409Z</time>
      </trkpt>
      <trkpt lat="46.88467" lon="8.54084">
        <ele>1655</ele>
        <time>2021-08-11T08:48:17.409Z</time>
      </trkpt>
      <trkpt lat="46.88468" lon="8.54084">
        <ele>1656</ele>
        <time>2021-08-11T08:48:18.410Z</time>
      </trkpt>
      <trkpt lat="46.88469" lon="8.54084">
        <ele>1656</ele>
        <time>2021-08-11T08:48:19.410Z</time>
      </trkpt>
      <trkpt lat="46.88469" lon="8.54084">
        <ele>1657</ele>
        <time>2021-08-11T08:48:20.410Z</time>
      </trkpt>
      <trkpt lat="46.8847" lon="8.54083">
        <ele>1657</ele>
        <time>2021-08-11T08:48:21.410Z</time>
      </trkpt>
      <trkpt lat="46.8847" lon="8.54083">
        <ele>1657</ele>
        <time>2021-08-11T08:48:22.409Z</time>
      </trkpt>
      <trkpt lat="46.8847" lon="8.54083">
        <ele>1657</ele>
        <time>2021-08-11T08:48:23.410Z</time>
      </trkpt>
      <trkpt lat="46.88471" lon="8.54083">
        <ele>1657</ele>
        <time>2021-08-11T08:48:24.410Z</time>
      </trkpt>
      <trkpt lat="46.88471" lon="8.54083">
        <ele>1658</ele>
        <time>2021-08-11T08:48:25.410Z</time>
      </trkpt>
      <trkpt lat="46.88472" lon="8.54083">
        <ele>1658</ele>
        <time>2021-08-11T08:48:26.409Z</time>
      </trkpt>
      <trkpt lat="46.88472" lon="8.54083">
        <ele>1658</ele>
        <time>2021-08-11T08:48:27.410Z</time>
      </trkpt>
      <trkpt lat="46.88473" lon="8.54084">
        <ele>1659</ele>
        <time>2021-08-11T08:48:28.409Z</time>
      </trkpt>
      <trkpt lat="46.88473" lon="8.54084">
        <ele>1659</ele>
        <time>2021-08-11T08:48:29.410Z</time>
      </trkpt>
      <trkpt lat="46.88474" lon="8.54084">
        <ele>1660</ele>
        <time>2021-08-11T08:48:30.410Z</time>
      </trkpt>
      <trkpt lat="46.88474" lon="8.54085">
        <ele>1660</ele>
        <time>2021-08-11T08:48:31.409Z</time>
      </trkpt>
      <trkpt lat="46.88474" lon="8.54084">
        <ele>1661</ele>
        <time>2021-08-11T08:48:32.409Z</time>
      </trkpt>
      <trkpt lat="46.88475" lon="8.54084">
        <ele>1661</ele>
        <time>2021-08-11T08:48:33.409Z</time>
      </trkpt>
      <trkpt lat="46.88475" lon="8.54083">
        <ele>1661</ele>
        <time>2021-08-11T08:48:34.410Z</time>
      </trkpt>
      <trkpt lat="46.88476" lon="8.54083">
        <ele>1661</ele>
        <time>2021-08-11T08:48:35.409Z</time>
      </trkpt>
      <trkpt lat="46.88476" lon="8.54083">
        <ele>1661</ele>
        <time>2021-08-11T08:48:36.410Z</time>
      </trkpt>
      <trkpt lat="46.88476" lon="8.54082">
        <ele>1661</ele>
        <time>2021-08-11T08:48:37.409Z</time>
      </trkpt>
      <trkpt lat="46.88476" lon="8.54082">
        <ele>1661</ele>
        <time>2021-08-11T08:48:38.410Z</time>
      </trkpt>
      <trkpt lat="46.88477" lon="8.54081">
        <ele>1661</ele>
        <time>2021-08-11T08:48:39.410Z</time>
      </trkpt>
      <trkpt lat="46.88477" lon="8.5408">
        <ele>1661</ele>
        <time>2021-08-11T08:48:40.409Z</time>
      </trkpt>
      <trkpt lat="46.88477" lon="8.5408">
        <ele>1662</ele>
        <time>2021-08-11T08:48:41.409Z</time>
      </trkpt>
      <trkpt lat="46.88477" lon="8.54079">
        <ele>1662</ele>
        <time>2021-08-11T08:48:42.410Z</time>
      </trkpt>
      <trkpt lat="46.88476" lon="8.54078">
        <ele>1662</ele>
        <time>2021-08-11T08:48:43.410Z</time>
      </trkpt>
      <trkpt lat="46.88476" lon="8.54078">
        <ele>1662</ele>
        <time>2021-08-11T08:48:44.410Z</time>
      </trkpt>
      <trkpt lat="46.88476" lon="8.54077">
        <ele>1662</ele>
        <time>2021-08-11T08:48:45.409Z</time>
      </trkpt>
      <trkpt lat="46.88476" lon="8.54076">
        <ele>1662</ele>
        <time>2021-08-11T08:48:46.409Z</time>
      </trkpt>
      <trkpt lat="46.88476" lon="8.54075">
        <ele>1662</ele>
        <time>2021-08-11T08:48:47.409Z</time>
      </trkpt>
      <trkpt lat="46.88475" lon="8.54075">
        <ele>1661</ele>
        <time>2021-08-11T08:48:48.410Z</time>
      </trkpt>
      <trkpt lat="46.88475" lon="8.54075">
        <ele>1661</ele>
        <time>2021-08-11T08:48:49.410Z</time>
      </trkpt>
      <trkpt lat="46.88474" lon="8.54075">
        <ele>1661</ele>
        <time>2021-08-11T08:48:50.410Z</time>
      </trkpt>
      <trkpt lat="46.88474" lon="8.54075">
        <ele>1661</ele>
        <time>2021-08-11T08:48:51.409Z</time>
      </trkpt>
      <trkpt lat="46.88474" lon="8.54074">
        <ele>1661</ele>
        <time>2021-08-11T08:48:52.409Z</time>
      </trkpt>
      <trkpt lat="46.88474" lon="8.54074">
        <ele>1661</ele>
        <time>2021-08-11T08:48:53.409Z</time>
      </trkpt>
      <trkpt lat="46.88473" lon="8.54072">
        <ele>1652</ele>
        <time>2021-08-11T08:48:54.410Z</time>
      </trkpt>
      <trkpt lat="46.88473" lon="8.54072">
        <ele>1653</ele>
        <time>2021-08-11T08:48:55.409Z</time>
      </trkpt>
      <trkpt lat="46.88474" lon="8.5407">
        <ele>1656</ele>
        <time>2021-08-11T08:48:56.410Z</time>
      </trkpt>
      <trkpt lat="46.88474" lon="8.5407">
        <ele>1656</ele>
        <time>2021-08-11T08:48:57.410Z</time>
      </trkpt>
      <trkpt lat="46.88474" lon="8.54069">
        <ele>1657</ele>
        <time>2021-08-11T08:48:58.409Z</time>
      </trkpt>
      <trkpt lat="46.88474" lon="8.54069">
        <ele>1657</ele>
        <time>2021-08-11T08:48:59.410Z</time>
      </trkpt>
      <trkpt lat="46.88474" lon="8.54069">
        <ele>1657</ele>
        <time>2021-08-11T08:49:00.410Z</time>
      </trkpt>
      <trkpt lat="46.88474" lon="8.54067">
        <ele>1659</ele>
        <time>2021-08-11T08:49:01.412Z</time>
      </trkpt>
      <trkpt lat="46.88475" lon="8.54067">
        <ele>1659</ele>
        <time>2021-08-11T08:49:02.412Z</time>
      </trkpt>
      <trkpt lat="46.88475" lon="8.54067">
        <ele>1659</ele>
        <time>2021-08-11T08:49:03.411Z</time>
      </trkpt>
      <trkpt lat="46.88475" lon="8.54067">
        <ele>1660</ele>
        <time>2021-08-11T08:49:04.412Z</time>
      </trkpt>
      <trkpt lat="46.88475" lon="8.54066">
        <ele>1660</ele>
        <time>2021-08-11T08:49:05.411Z</time>
      </trkpt>
      <trkpt lat="46.88475" lon="8.54066">
        <ele>1660</ele>
        <time>2021-08-11T08:49:06.411Z</time>
      </trkpt>
      <trkpt lat="46.88475" lon="8.54065">
        <ele>1659</ele>
        <time>2021-08-11T08:49:07.411Z</time>
      </trkpt>
      <trkpt lat="46.88475" lon="8.54065">
        <ele>1659</ele>
        <time>2021-08-11T08:49:08.412Z</time>
      </trkpt>
      <trkpt lat="46.88475" lon="8.54065">
        <ele>1659</ele>
        <time>2021-08-11T08:49:09.411Z</time>
      </trkpt>
      <trkpt lat="46.88475" lon="8.54064">
        <ele>1659</ele>
        <time>2021-08-11T08:49:10.411Z</time>
      </trkpt>
      <trkpt lat="46.88475" lon="8.54064">
        <ele>1658</ele>
        <time>2021-08-11T08:49:11.412Z</time>
      </trkpt>
      <trkpt lat="46.88476" lon="8.54063">
        <ele>1659</ele>
        <time>2021-08-11T08:49:12.411Z</time>
      </trkpt>
      <trkpt lat="46.88477" lon="8.54063">
        <ele>1659</ele>
        <time>2021-08-11T08:49:13.411Z</time>
      </trkpt>
      <trkpt lat="46.88476" lon="8.54062">
        <ele>1659</ele>
        <time>2021-08-11T08:49:14.411Z</time>
      </trkpt>
      <trkpt lat="46.88475" lon="8.54061">
        <ele>1660</ele>
        <time>2021-08-11T08:49:15.411Z</time>
      </trkpt>
      <trkpt lat="46.88475" lon="8.5406">
        <ele>1660</ele>
        <time>2021-08-11T08:49:16.411Z</time>
      </trkpt>
      <trkpt lat="46.88475" lon="8.5406">
        <ele>1661</ele>
        <time>2021-08-11T08:49:17.411Z</time>
      </trkpt>
      <trkpt lat="46.88476" lon="8.5406">
        <ele>1661</ele>
        <time>2021-08-11T08:49:18.411Z</time>
      </trkpt>
      <trkpt lat="46.88476" lon="8.5406">
        <ele>1661</ele>
        <time>2021-08-11T08:49:19.411Z</time>
      </trkpt>
      <trkpt lat="46.88476" lon="8.54059">
        <ele>1661</ele>
        <time>2021-08-11T08:49:20.411Z</time>
      </trkpt>
      <trkpt lat="46.88477" lon="8.54059">
        <ele>1661</ele>
        <time>2021-08-11T08:49:21.411Z</time>
      </trkpt>
      <trkpt lat="46.88478" lon="8.54059">
        <ele>1661</ele>
        <time>2021-08-11T08:49:22.411Z</time>
      </trkpt>
      <trkpt lat="46.88478" lon="8.54059">
        <ele>1661</ele>
        <time>2021-08-11T08:49:23.411Z</time>
      </trkpt>
      <trkpt lat="46.88479" lon="8.54059">
        <ele>1661</ele>
        <time>2021-08-11T08:49:24.411Z</time>
      </trkpt>
      <trkpt lat="46.8848" lon="8.54059">
        <ele>1662</ele>
        <time>2021-08-11T08:49:25.411Z</time>
      </trkpt>
      <trkpt lat="46.8848" lon="8.54059">
        <ele>1662</ele>
        <time>2021-08-11T08:49:26.411Z</time>
      </trkpt>
      <trkpt lat="46.88481" lon="8.54058">
        <ele>1663</ele>
        <time>2021-08-11T08:49:27.411Z</time>
      </trkpt>
      <trkpt lat="46.88481" lon="8.54058">
        <ele>1663</ele>
        <time>2021-08-11T08:49:28.412Z</time>
      </trkpt>
      <trkpt lat="46.88481" lon="8.54058">
        <ele>1664</ele>
        <time>2021-08-11T08:49:29.411Z</time>
      </trkpt>
      <trkpt lat="46.88482" lon="8.54058">
        <ele>1664</ele>
        <time>2021-08-11T08:49:30.411Z</time>
      </trkpt>
      <trkpt lat="46.88482" lon="8.54057">
        <ele>1665</ele>
        <time>2021-08-11T08:49:31.411Z</time>
      </trkpt>
      <trkpt lat="46.88482" lon="8.54057">
        <ele>1665</ele>
        <time>2021-08-11T08:49:32.411Z</time>
      </trkpt>
      <trkpt lat="46.88483" lon="8.54057">
        <ele>1666</ele>
        <time>2021-08-11T08:49:33.411Z</time>
      </trkpt>
      <trkpt lat="46.88483" lon="8.54057">
        <ele>1666</ele>
        <time>2021-08-11T08:49:34.411Z</time>
      </trkpt>
      <trkpt lat="46.88483" lon="8.54054">
        <ele>1665</ele>
        <time>2021-08-11T08:49:35.411Z</time>
      </trkpt>
      <trkpt lat="46.88483" lon="8.54054">
        <ele>1665</ele>
        <time>2021-08-11T08:49:36.411Z</time>
      </trkpt>
      <trkpt lat="46.88483" lon="8.54054">
        <ele>1665</ele>
        <time>2021-08-11T08:49:37.411Z</time>
      </trkpt>
      <trkpt lat="46.88484" lon="8.54053">
        <ele>1666</ele>
        <time>2021-08-11T08:49:38.411Z</time>
      </trkpt>
      <trkpt lat="46.88484" lon="8.54053">
        <ele>1666</ele>
        <time>2021-08-11T08:49:39.411Z</time>
      </trkpt>
      <trkpt lat="46.88485" lon="8.54053">
        <ele>1666</ele>
        <time>2021-08-11T08:49:40.411Z</time>
      </trkpt>
      <trkpt lat="46.88486" lon="8.54053">
        <ele>1667</ele>
        <time>2021-08-11T08:49:41.411Z</time>
      </trkpt>
      <trkpt lat="46.88486" lon="8.54052">
        <ele>1667</ele>
        <time>2021-08-11T08:49:42.411Z</time>
      </trkpt>
      <trkpt lat="46.88487" lon="8.54051">
        <ele>1668</ele>
        <time>2021-08-11T08:49:43.411Z</time>
      </trkpt>
      <trkpt lat="46.88487" lon="8.54051">
        <ele>1668</ele>
        <time>2021-08-11T08:49:44.411Z</time>
      </trkpt>
      <trkpt lat="46.88487" lon="8.5405">
        <ele>1669</ele>
        <time>2021-08-11T08:49:45.411Z</time>
      </trkpt>
      <trkpt lat="46.88488" lon="8.54049">
        <ele>1670</ele>
        <time>2021-08-11T08:49:46.411Z</time>
      </trkpt>
      <trkpt lat="46.88488" lon="8.54049">
        <ele>1670</ele>
        <time>2021-08-11T08:49:47.411Z</time>
      </trkpt>
      <trkpt lat="46.88488" lon="8.54048">
        <ele>1671</ele>
        <time>2021-08-11T08:49:48.411Z</time>
      </trkpt>
      <trkpt lat="46.88487" lon="8.54048">
        <ele>1671</ele>
        <time>2021-08-11T08:49:49.411Z</time>
      </trkpt>
      <trkpt lat="46.88487" lon="8.54048">
        <ele>1671</ele>
        <time>2021-08-11T08:49:50.411Z</time>
      </trkpt>
      <trkpt lat="46.88487" lon="8.54047">
        <ele>1671</ele>
        <time>2021-08-11T08:49:51.411Z</time>
      </trkpt>
      <trkpt lat="46.88487" lon="8.54047">
        <ele>1672</ele>
        <time>2021-08-11T08:49:52.411Z</time>
      </trkpt>
      <trkpt lat="46.88487" lon="8.54046">
        <ele>1672</ele>
        <time>2021-08-11T08:49:53.411Z</time>
      </trkpt>
      <trkpt lat="46.88487" lon="8.54046">
        <ele>1672</ele>
        <time>2021-08-11T08:49:54.411Z</time>
      </trkpt>
      <trkpt lat="46.88488" lon="8.54045">
        <ele>1672</ele>
        <time>2021-08-11T08:49:55.411Z</time>
      </trkpt>
      <trkpt lat="46.88488" lon="8.54045">
        <ele>1672</ele>
        <time>2021-08-11T08:49:56.411Z</time>
      </trkpt>
      <trkpt lat="46.88488" lon="8.54045">
        <ele>1672</ele>
        <time>2021-08-11T08:49:57.411Z</time>
      </trkpt>
      <trkpt lat="46.88488" lon="8.54044">
        <ele>1673</ele>
        <time>2021-08-11T08:49:58.411Z</time>
      </trkpt>
      <trkpt lat="46.88489" lon="8.54044">
        <ele>1672</ele>
        <time>2021-08-11T08:49:59.411Z</time>
      </trkpt>
      <trkpt lat="46.88489" lon="8.54043">
        <ele>1672</ele>
        <time>2021-08-11T08:50:00.411Z</time>
      </trkpt>
      <trkpt lat="46.88489" lon="8.54043">
        <ele>1672</ele>
        <time>2021-08-11T08:50:01.411Z</time>
      </trkpt>
      <trkpt lat="46.88489" lon="8.54043">
        <ele>1671</ele>
        <time>2021-08-11T08:50:02.412Z</time>
      </trkpt>
      <trkpt lat="46.88489" lon="8.54042">
        <ele>1671</ele>
        <time>2021-08-11T08:50:03.412Z</time>
      </trkpt>
      <trkpt lat="46.8849" lon="8.54042">
        <ele>1672</ele>
        <time>2021-08-11T08:50:04.412Z</time>
      </trkpt>
      <trkpt lat="46.8849" lon="8.54041">
        <ele>1672</ele>
        <time>2021-08-11T08:50:05.412Z</time>
      </trkpt>
      <trkpt lat="46.88489" lon="8.54041">
        <ele>1673</ele>
        <time>2021-08-11T08:50:06.413Z</time>
      </trkpt>
      <trkpt lat="46.88489" lon="8.5404">
        <ele>1673</ele>
        <time>2021-08-11T08:50:07.413Z</time>
      </trkpt>
      <trkpt lat="46.88489" lon="8.5404">
        <ele>1674</ele>
        <time>2021-08-11T08:50:08.413Z</time>
      </trkpt>
      <trkpt lat="46.8849" lon="8.54039">
        <ele>1675</ele>
        <time>2021-08-11T08:50:09.413Z</time>
      </trkpt>
      <trkpt lat="46.88489" lon="8.54039">
        <ele>1675</ele>
        <time>2021-08-11T08:50:10.413Z</time>
      </trkpt>
      <trkpt lat="46.88489" lon="8.54039">
        <ele>1676</ele>
        <time>2021-08-11T08:50:11.413Z</time>
      </trkpt>
      <trkpt lat="46.88488" lon="8.54039">
        <ele>1677</ele>
        <time>2021-08-11T08:50:12.413Z</time>
      </trkpt>
      <trkpt lat="46.88488" lon="8.54039">
        <ele>1677</ele>
        <time>2021-08-11T08:50:13.413Z</time>
      </trkpt>
      <trkpt lat="46.88488" lon="8.54039">
        <ele>1678</ele>
        <time>2021-08-11T08:50:14.413Z</time>
      </trkpt>
      <trkpt lat="46.88487" lon="8.54039">
        <ele>1678</ele>
        <time>2021-08-11T08:50:15.413Z</time>
      </trkpt>
      <trkpt lat="46.88487" lon="8.5404">
        <ele>1677</ele>
        <time>2021-08-11T08:50:16.413Z</time>
      </trkpt>
      <trkpt lat="46.88486" lon="8.5404">
        <ele>1677</ele>
        <time>2021-08-11T08:50:17.413Z</time>
      </trkpt>
      <trkpt lat="46.88486" lon="8.5404">
        <ele>1676</ele>
        <time>2021-08-11T08:50:18.412Z</time>
      </trkpt>
      <trkpt lat="46.88485" lon="8.54041">
        <ele>1675</ele>
        <time>2021-08-11T08:50:19.413Z</time>
      </trkpt>
      <trkpt lat="46.88485" lon="8.54041">
        <ele>1674</ele>
        <time>2021-08-11T08:50:20.413Z</time>
      </trkpt>
      <trkpt lat="46.88485" lon="8.54041">
        <ele>1674</ele>
        <time>2021-08-11T08:50:21.413Z</time>
      </trkpt>
      <trkpt lat="46.88484" lon="8.54041">
        <ele>1672</ele>
        <time>2021-08-11T08:50:22.414Z</time>
      </trkpt>
      <trkpt lat="46.88484" lon="8.54041">
        <ele>1672</ele>
        <time>2021-08-11T08:50:23.414Z</time>
      </trkpt>
      <trkpt lat="46.88484" lon="8.5404">
        <ele>1672</ele>
        <time>2021-08-11T08:50:24.413Z</time>
      </trkpt>
      <trkpt lat="46.88484" lon="8.5404">
        <ele>1672</ele>
        <time>2021-08-11T08:50:25.414Z</time>
      </trkpt>
      <trkpt lat="46.88483" lon="8.54039">
        <ele>1674</ele>
        <time>2021-08-11T08:50:26.415Z</time>
      </trkpt>
      <trkpt lat="46.88483" lon="8.54039">
        <ele>1675</ele>
        <time>2021-08-11T08:50:27.414Z</time>
      </trkpt>
      <trkpt lat="46.88483" lon="8.54038">
        <ele>1675</ele>
        <time>2021-08-11T08:50:28.414Z</time>
      </trkpt>
      <trkpt lat="46.88484" lon="8.54036">
        <ele>1675</ele>
        <time>2021-08-11T08:50:29.415Z</time>
      </trkpt>
      <trkpt lat="46.88485" lon="8.54036">
        <ele>1674</ele>
        <time>2021-08-11T08:50:30.415Z</time>
      </trkpt>
      <trkpt lat="46.88485" lon="8.54035">
        <ele>1674</ele>
        <time>2021-08-11T08:50:31.414Z</time>
      </trkpt>
      <trkpt lat="46.88486" lon="8.54034">
        <ele>1674</ele>
        <time>2021-08-11T08:50:32.415Z</time>
      </trkpt>
      <trkpt lat="46.88486" lon="8.54034">
        <ele>1674</ele>
        <time>2021-08-11T08:50:33.415Z</time>
      </trkpt>
      <trkpt lat="46.88486" lon="8.54034">
        <ele>1675</ele>
        <time>2021-08-11T08:50:34.414Z</time>
      </trkpt>
      <trkpt lat="46.88486" lon="8.54033">
        <ele>1676</ele>
        <time>2021-08-11T08:50:35.416Z</time>
      </trkpt>
      <trkpt lat="46.88487" lon="8.54032">
        <ele>1676</ele>
        <time>2021-08-11T08:50:36.415Z</time>
      </trkpt>
      <trkpt lat="46.88487" lon="8.54032">
        <ele>1675</ele>
        <time>2021-08-11T08:50:37.415Z</time>
      </trkpt>
      <trkpt lat="46.88487" lon="8.54032">
        <ele>1676</ele>
        <time>2021-08-11T08:50:38.415Z</time>
      </trkpt>
      <trkpt lat="46.88487" lon="8.54032">
        <ele>1676</ele>
        <time>2021-08-11T08:50:39.416Z</time>
      </trkpt>
      <trkpt lat="46.88488" lon="8.54031">
        <ele>1676</ele>
        <time>2021-08-11T08:50:40.415Z</time>
      </trkpt>
      <trkpt lat="46.88488" lon="8.54031">
        <ele>1676</ele>
        <time>2021-08-11T08:50:41.416Z</time>
      </trkpt>
      <trkpt lat="46.88488" lon="8.5403">
        <ele>1677</ele>
        <time>2021-08-11T08:50:42.416Z</time>
      </trkpt>
      <trkpt lat="46.88488" lon="8.5403">
        <ele>1677</ele>
        <time>2021-08-11T08:50:43.416Z</time>
      </trkpt>
      <trkpt lat="46.88489" lon="8.54029">
        <ele>1676</ele>
        <time>2021-08-11T08:50:44.416Z</time>
      </trkpt>
      <trkpt lat="46.88489" lon="8.54029">
        <ele>1676</ele>
        <time>2021-08-11T08:50:45.415Z</time>
      </trkpt>
      <trkpt lat="46.88489" lon="8.54028">
        <ele>1676</ele>
        <time>2021-08-11T08:50:46.416Z</time>
      </trkpt>
      <trkpt lat="46.88489" lon="8.54028">
        <ele>1676</ele>
        <time>2021-08-11T08:50:47.416Z</time>
      </trkpt>
      <trkpt lat="46.8849" lon="8.54028">
        <ele>1677</ele>
        <time>2021-08-11T08:50:48.416Z</time>
      </trkpt>
      <trkpt lat="46.8849" lon="8.54027">
        <ele>1677</ele>
        <time>2021-08-11T08:50:49.416Z</time>
      </trkpt>
      <trkpt lat="46.8849" lon="8.54027">
        <ele>1677</ele>
        <time>2021-08-11T08:50:50.416Z</time>
      </trkpt>
      <trkpt lat="46.8849" lon="8.54028">
        <ele>1678</ele>
        <time>2021-08-11T08:50:51.416Z</time>
      </trkpt>
      <trkpt lat="46.8849" lon="8.54027">
        <ele>1679</ele>
        <time>2021-08-11T08:50:52.416Z</time>
      </trkpt>
      <trkpt lat="46.88492" lon="8.54026">
        <ele>1681</ele>
        <time>2021-08-11T08:50:53.417Z</time>
      </trkpt>
      <trkpt lat="46.88493" lon="8.54025">
        <ele>1681</ele>
        <time>2021-08-11T08:50:54.416Z</time>
      </trkpt>
      <trkpt lat="46.88493" lon="8.54024">
        <ele>1681</ele>
        <time>2021-08-11T08:50:55.416Z</time>
      </trkpt>
      <trkpt lat="46.88493" lon="8.54024">
        <ele>1680</ele>
        <time>2021-08-11T08:50:56.417Z</time>
      </trkpt>
      <trkpt lat="46.88493" lon="8.54023">
        <ele>1680</ele>
        <time>2021-08-11T08:50:57.417Z</time>
      </trkpt>
      <trkpt lat="46.88493" lon="8.54023">
        <ele>1680</ele>
        <time>2021-08-11T08:50:58.416Z</time>
      </trkpt>
      <trkpt lat="46.88494" lon="8.54022">
        <ele>1680</ele>
        <time>2021-08-11T08:50:59.417Z</time>
      </trkpt>
      <trkpt lat="46.88494" lon="8.54022">
        <ele>1680</ele>
        <time>2021-08-11T08:51:00.417Z</time>
      </trkpt>
      <trkpt lat="46.88494" lon="8.54021">
        <ele>1679</ele>
        <time>2021-08-11T08:51:01.416Z</time>
      </trkpt>
      <trkpt lat="46.88494" lon="8.54021">
        <ele>1679</ele>
        <time>2021-08-11T08:51:02.417Z</time>
      </trkpt>
      <trkpt lat="46.88495" lon="8.5402">
        <ele>1679</ele>
        <time>2021-08-11T08:51:03.417Z</time>
      </trkpt>
      <trkpt lat="46.88495" lon="8.5402">
        <ele>1679</ele>
        <time>2021-08-11T08:51:04.417Z</time>
      </trkpt>
      <trkpt lat="46.88496" lon="8.54019">
        <ele>1679</ele>
        <time>2021-08-11T08:51:05.417Z</time>
      </trkpt>
      <trkpt lat="46.88496" lon="8.54019">
        <ele>1679</ele>
        <time>2021-08-11T08:51:06.416Z</time>
      </trkpt>
      <trkpt lat="46.88497" lon="8.54018">
        <ele>1679</ele>
        <time>2021-08-11T08:51:07.417Z</time>
      </trkpt>
      <trkpt lat="46.88497" lon="8.54017">
        <ele>1679</ele>
        <time>2021-08-11T08:51:08.417Z</time>
      </trkpt>
      <trkpt lat="46.88497" lon="8.54017">
        <ele>1679</ele>
        <time>2021-08-11T08:51:09.416Z</time>
      </trkpt>
      <trkpt lat="46.88497" lon="8.54017">
        <ele>1679</ele>
        <time>2021-08-11T08:51:10.417Z</time>
      </trkpt>
      <trkpt lat="46.88497" lon="8.54016">
        <ele>1679</ele>
        <time>2021-08-11T08:51:11.417Z</time>
      </trkpt>
      <trkpt lat="46.88498" lon="8.54016">
        <ele>1679</ele>
        <time>2021-08-11T08:51:12.417Z</time>
      </trkpt>
      <trkpt lat="46.88498" lon="8.54016">
        <ele>1679</ele>
        <time>2021-08-11T08:51:13.417Z</time>
      </trkpt>
      <trkpt lat="46.88499" lon="8.54015">
        <ele>1679</ele>
        <time>2021-08-11T08:51:14.416Z</time>
      </trkpt>
      <trkpt lat="46.88499" lon="8.54015">
        <ele>1680</ele>
        <time>2021-08-11T08:51:15.417Z</time>
      </trkpt>
      <trkpt lat="46.88499" lon="8.54014">
        <ele>1680</ele>
        <time>2021-08-11T08:51:16.416Z</time>
      </trkpt>
      <trkpt lat="46.88499" lon="8.54013">
        <ele>1680</ele>
        <time>2021-08-11T08:51:17.417Z</time>
      </trkpt>
      <trkpt lat="46.88499" lon="8.54013">
        <ele>1680</ele>
        <time>2021-08-11T08:51:18.416Z</time>
      </trkpt>
      <trkpt lat="46.885" lon="8.54012">
        <ele>1681</ele>
        <time>2021-08-11T08:51:19.416Z</time>
      </trkpt>
      <trkpt lat="46.885" lon="8.54011">
        <ele>1681</ele>
        <time>2021-08-11T08:51:20.417Z</time>
      </trkpt>
      <trkpt lat="46.885" lon="8.54011">
        <ele>1681</ele>
        <time>2021-08-11T08:51:21.417Z</time>
      </trkpt>
      <trkpt lat="46.88501" lon="8.5401">
        <ele>1682</ele>
        <time>2021-08-11T08:51:22.417Z</time>
      </trkpt>
      <trkpt lat="46.88501" lon="8.54009">
        <ele>1682</ele>
        <time>2021-08-11T08:51:23.417Z</time>
      </trkpt>
      <trkpt lat="46.88501" lon="8.54009">
        <ele>1682</ele>
        <time>2021-08-11T08:51:24.417Z</time>
      </trkpt>
      <trkpt lat="46.88501" lon="8.54008">
        <ele>1682</ele>
        <time>2021-08-11T08:51:25.416Z</time>
      </trkpt>
      <trkpt lat="46.88501" lon="8.54007">
        <ele>1682</ele>
        <time>2021-08-11T08:51:26.416Z</time>
      </trkpt>
      <trkpt lat="46.88501" lon="8.54006">
        <ele>1682</ele>
        <time>2021-08-11T08:51:27.417Z</time>
      </trkpt>
      <trkpt lat="46.88501" lon="8.54006">
        <ele>1682</ele>
        <time>2021-08-11T08:51:28.417Z</time>
      </trkpt>
      <trkpt lat="46.88502" lon="8.54004">
        <ele>1682</ele>
        <time>2021-08-11T08:51:29.417Z</time>
      </trkpt>
      <trkpt lat="46.88502" lon="8.54004">
        <ele>1682</ele>
        <time>2021-08-11T08:51:30.416Z</time>
      </trkpt>
      <trkpt lat="46.88502" lon="8.54003">
        <ele>1682</ele>
        <time>2021-08-11T08:51:31.416Z</time>
      </trkpt>
      <trkpt lat="46.88502" lon="8.54002">
        <ele>1683</ele>
        <time>2021-08-11T08:51:32.416Z</time>
      </trkpt>
      <trkpt lat="46.88502" lon="8.54002">
        <ele>1683</ele>
        <time>2021-08-11T08:51:33.416Z</time>
      </trkpt>
      <trkpt lat="46.88503" lon="8.54002">
        <ele>1683</ele>
        <time>2021-08-11T08:51:34.417Z</time>
      </trkpt>
      <trkpt lat="46.88503" lon="8.54001">
        <ele>1683</ele>
        <time>2021-08-11T08:51:35.417Z</time>
      </trkpt>
      <trkpt lat="46.88503" lon="8.54001">
        <ele>1684</ele>
        <time>2021-08-11T08:51:36.417Z</time>
      </trkpt>
      <trkpt lat="46.88503" lon="8.54001">
        <ele>1684</ele>
        <time>2021-08-11T08:51:37.416Z</time>
      </trkpt>
      <trkpt lat="46.88503" lon="8.54">
        <ele>1684</ele>
        <time>2021-08-11T08:51:38.417Z</time>
      </trkpt>
      <trkpt lat="46.88504" lon="8.53999">
        <ele>1684</ele>
        <time>2021-08-11T08:51:39.417Z</time>
      </trkpt>
      <trkpt lat="46.88504" lon="8.53999">
        <ele>1685</ele>
        <time>2021-08-11T08:51:40.416Z</time>
      </trkpt>
      <trkpt lat="46.88504" lon="8.53998">
        <ele>1686</ele>
        <time>2021-08-11T08:51:41.417Z</time>
      </trkpt>
      <trkpt lat="46.88504" lon="8.53998">
        <ele>1686</ele>
        <time>2021-08-11T08:51:42.416Z</time>
      </trkpt>
      <trkpt lat="46.88504" lon="8.53997">
        <ele>1686</ele>
        <time>2021-08-11T08:51:43.416Z</time>
      </trkpt>
      <trkpt lat="46.88505" lon="8.53997">
        <ele>1687</ele>
        <time>2021-08-11T08:51:44.417Z</time>
      </trkpt>
      <trkpt lat="46.88505" lon="8.53997">
        <ele>1687</ele>
        <time>2021-08-11T08:51:45.416Z</time>
      </trkpt>
      <trkpt lat="46.88505" lon="8.53997">
        <ele>1687</ele>
        <time>2021-08-11T08:51:46.417Z</time>
      </trkpt>
      <trkpt lat="46.88506" lon="8.53997">
        <ele>1687</ele>
        <time>2021-08-11T08:51:47.417Z</time>
      </trkpt>
      <trkpt lat="46.88506" lon="8.53997">
        <ele>1687</ele>
        <time>2021-08-11T08:51:48.417Z</time>
      </trkpt>
      <trkpt lat="46.88507" lon="8.53998">
        <ele>1687</ele>
        <time>2021-08-11T08:51:49.416Z</time>
      </trkpt>
      <trkpt lat="46.88507" lon="8.53999">
        <ele>1686</ele>
        <time>2021-08-11T08:51:50.417Z</time>
      </trkpt>
      <trkpt lat="46.88507" lon="8.53999">
        <ele>1686</ele>
        <time>2021-08-11T08:51:51.416Z</time>
      </trkpt>
      <trkpt lat="46.88508" lon="8.53999">
        <ele>1685</ele>
        <time>2021-08-11T08:51:52.417Z</time>
      </trkpt>
      <trkpt lat="46.88508" lon="8.53999">
        <ele>1685</ele>
        <time>2021-08-11T08:51:53.417Z</time>
      </trkpt>
      <trkpt lat="46.88508" lon="8.54">
        <ele>1684</ele>
        <time>2021-08-11T08:51:54.419Z</time>
      </trkpt>
      <trkpt lat="46.88509" lon="8.54001">
        <ele>1684</ele>
        <time>2021-08-11T08:51:55.418Z</time>
      </trkpt>
      <trkpt lat="46.88509" lon="8.54001">
        <ele>1684</ele>
        <time>2021-08-11T08:51:56.418Z</time>
      </trkpt>
      <trkpt lat="46.8851" lon="8.54001">
        <ele>1684</ele>
        <time>2021-08-11T08:51:57.419Z</time>
      </trkpt>
      <trkpt lat="46.8851" lon="8.54002">
        <ele>1683</ele>
        <time>2021-08-11T08:51:58.418Z</time>
      </trkpt>
      <trkpt lat="46.8851" lon="8.54002">
        <ele>1683</ele>
        <time>2021-08-11T08:51:59.418Z</time>
      </trkpt>
      <trkpt lat="46.88511" lon="8.54002">
        <ele>1683</ele>
        <time>2021-08-11T08:52:00.419Z</time>
      </trkpt>
      <trkpt lat="46.88512" lon="8.54002">
        <ele>1683</ele>
        <time>2021-08-11T08:52:01.419Z</time>
      </trkpt>
      <trkpt lat="46.88512" lon="8.54002">
        <ele>1684</ele>
        <time>2021-08-11T08:52:02.419Z</time>
      </trkpt>
      <trkpt lat="46.88512" lon="8.54003">
        <ele>1684</ele>
        <time>2021-08-11T08:52:03.418Z</time>
      </trkpt>
      <trkpt lat="46.88513" lon="8.54004">
        <ele>1685</ele>
        <time>2021-08-11T08:52:04.418Z</time>
      </trkpt>
      <trkpt lat="46.88513" lon="8.54005">
        <ele>1685</ele>
        <time>2021-08-11T08:52:05.419Z</time>
      </trkpt>
      <trkpt lat="46.88513" lon="8.54006">
        <ele>1686</ele>
        <time>2021-08-11T08:52:06.419Z</time>
      </trkpt>
      <trkpt lat="46.88513" lon="8.54007">
        <ele>1687</ele>
        <time>2021-08-11T08:52:07.418Z</time>
      </trkpt>
      <trkpt lat="46.88513" lon="8.54007">
        <ele>1687</ele>
        <time>2021-08-11T08:52:08.419Z</time>
      </trkpt>
      <trkpt lat="46.88514" lon="8.54008">
        <ele>1688</ele>
        <time>2021-08-11T08:52:09.419Z</time>
      </trkpt>
      <trkpt lat="46.88514" lon="8.54008">
        <ele>1688</ele>
        <time>2021-08-11T08:52:10.418Z</time>
      </trkpt>
      <trkpt lat="46.88515" lon="8.54009">
        <ele>1689</ele>
        <time>2021-08-11T08:52:11.419Z</time>
      </trkpt>
      <trkpt lat="46.88515" lon="8.54009">
        <ele>1690</ele>
        <time>2021-08-11T08:52:12.418Z</time>
      </trkpt>
      <trkpt lat="46.88516" lon="8.54009">
        <ele>1690</ele>
        <time>2021-08-11T08:52:13.419Z</time>
      </trkpt>
      <trkpt lat="46.88516" lon="8.54008">
        <ele>1691</ele>
        <time>2021-08-11T08:52:14.418Z</time>
      </trkpt>
      <trkpt lat="46.88517" lon="8.54008">
        <ele>1691</ele>
        <time>2021-08-11T08:52:15.418Z</time>
      </trkpt>
      <trkpt lat="46.88517" lon="8.54008">
        <ele>1692</ele>
        <time>2021-08-11T08:52:16.418Z</time>
      </trkpt>
      <trkpt lat="46.88517" lon="8.54008">
        <ele>1692</ele>
        <time>2021-08-11T08:52:17.419Z</time>
      </trkpt>
      <trkpt lat="46.88514" lon="8.54008">
        <ele>1691</ele>
        <time>2021-08-11T08:52:18.419Z</time>
      </trkpt>
      <trkpt lat="46.88515" lon="8.54008">
        <ele>1691</ele>
        <time>2021-08-11T08:52:19.419Z</time>
      </trkpt>
      <trkpt lat="46.88515" lon="8.54007">
        <ele>1691</ele>
        <time>2021-08-11T08:52:20.419Z</time>
      </trkpt>
      <trkpt lat="46.88516" lon="8.54007">
        <ele>1691</ele>
        <time>2021-08-11T08:52:21.419Z</time>
      </trkpt>
      <trkpt lat="46.88517" lon="8.54006">
        <ele>1691</ele>
        <time>2021-08-11T08:52:22.420Z</time>
      </trkpt>
      <trkpt lat="46.88517" lon="8.54004">
        <ele>1692</ele>
        <time>2021-08-11T08:52:23.419Z</time>
      </trkpt>
      <trkpt lat="46.88518" lon="8.54003">
        <ele>1692</ele>
        <time>2021-08-11T08:52:24.419Z</time>
      </trkpt>
      <trkpt lat="46.88518" lon="8.54003">
        <ele>1692</ele>
        <time>2021-08-11T08:52:25.419Z</time>
      </trkpt>
      <trkpt lat="46.88518" lon="8.54003">
        <ele>1692</ele>
        <time>2021-08-11T08:52:26.420Z</time>
      </trkpt>
      <trkpt lat="46.88518" lon="8.54002">
        <ele>1692</ele>
        <time>2021-08-11T08:52:27.420Z</time>
      </trkpt>
      <trkpt lat="46.88519" lon="8.54002">
        <ele>1692</ele>
        <time>2021-08-11T08:52:28.419Z</time>
      </trkpt>
      <trkpt lat="46.88519" lon="8.54002">
        <ele>1693</ele>
        <time>2021-08-11T08:52:29.419Z</time>
      </trkpt>
      <trkpt lat="46.8852" lon="8.54002">
        <ele>1693</ele>
        <time>2021-08-11T08:52:30.420Z</time>
      </trkpt>
      <trkpt lat="46.8852" lon="8.54002">
        <ele>1693</ele>
        <time>2021-08-11T08:52:31.420Z</time>
      </trkpt>
      <trkpt lat="46.8852" lon="8.54002">
        <ele>1693</ele>
        <time>2021-08-11T08:52:32.419Z</time>
      </trkpt>
      <trkpt lat="46.8852" lon="8.54003">
        <ele>1693</ele>
        <time>2021-08-11T08:52:33.419Z</time>
      </trkpt>
      <trkpt lat="46.88521" lon="8.54003">
        <ele>1693</ele>
        <time>2021-08-11T08:52:34.419Z</time>
      </trkpt>
      <trkpt lat="46.88521" lon="8.54002">
        <ele>1694</ele>
        <time>2021-08-11T08:52:35.420Z</time>
      </trkpt>
      <trkpt lat="46.88522" lon="8.54001">
        <ele>1694</ele>
        <time>2021-08-11T08:52:36.419Z</time>
      </trkpt>
      <trkpt lat="46.88521" lon="8.54001">
        <ele>1694</ele>
        <time>2021-08-11T08:52:37.419Z</time>
      </trkpt>
      <trkpt lat="46.88522" lon="8.54001">
        <ele>1693</ele>
        <time>2021-08-11T08:52:38.419Z</time>
      </trkpt>
      <trkpt lat="46.88522" lon="8.54001">
        <ele>1693</ele>
        <time>2021-08-11T08:52:39.419Z</time>
      </trkpt>
      <trkpt lat="46.88522" lon="8.54001">
        <ele>1694</ele>
        <time>2021-08-11T08:52:40.419Z</time>
      </trkpt>
      <trkpt lat="46.88522" lon="8.53999">
        <ele>1695</ele>
        <time>2021-08-11T08:52:41.419Z</time>
      </trkpt>
      <trkpt lat="46.88523" lon="8.53999">
        <ele>1696</ele>
        <time>2021-08-11T08:52:42.420Z</time>
      </trkpt>
      <trkpt lat="46.88523" lon="8.53999">
        <ele>1696</ele>
        <time>2021-08-11T08:52:43.419Z</time>
      </trkpt>
      <trkpt lat="46.88523" lon="8.53999">
        <ele>1696</ele>
        <time>2021-08-11T08:52:44.419Z</time>
      </trkpt>
      <trkpt lat="46.88523" lon="8.53999">
        <ele>1696</ele>
        <time>2021-08-11T08:52:45.420Z</time>
      </trkpt>
      <trkpt lat="46.88523" lon="8.53999">
        <ele>1696</ele>
        <time>2021-08-11T08:52:46.420Z</time>
      </trkpt>
      <trkpt lat="46.88522" lon="8.53999">
        <ele>1696</ele>
        <time>2021-08-11T08:52:47.420Z</time>
      </trkpt>
      <trkpt lat="46.88522" lon="8.53999">
        <ele>1696</ele>
        <time>2021-08-11T08:52:48.420Z</time>
      </trkpt>
      <trkpt lat="46.88522" lon="8.53999">
        <ele>1696</ele>
        <time>2021-08-11T08:52:49.420Z</time>
      </trkpt>
      <trkpt lat="46.88522" lon="8.53998">
        <ele>1697</ele>
        <time>2021-08-11T08:52:50.419Z</time>
      </trkpt>
      <trkpt lat="46.88523" lon="8.53998">
        <ele>1698</ele>
        <time>2021-08-11T08:52:51.420Z</time>
      </trkpt>
      <trkpt lat="46.88523" lon="8.53997">
        <ele>1698</ele>
        <time>2021-08-11T08:52:52.419Z</time>
      </trkpt>
      <trkpt lat="46.88525" lon="8.53998">
        <ele>1696</ele>
        <time>2021-08-11T08:52:53.419Z</time>
      </trkpt>
      <trkpt lat="46.88525" lon="8.53998">
        <ele>1695</ele>
        <time>2021-08-11T08:52:54.419Z</time>
      </trkpt>
      <trkpt lat="46.88525" lon="8.53997">
        <ele>1695</ele>
        <time>2021-08-11T08:52:55.419Z</time>
      </trkpt>
      <trkpt lat="46.88525" lon="8.53996">
        <ele>1695</ele>
        <time>2021-08-11T08:52:56.419Z</time>
      </trkpt>
      <trkpt lat="46.88526" lon="8.53996">
        <ele>1695</ele>
        <time>2021-08-11T08:52:57.419Z</time>
      </trkpt>
      <trkpt lat="46.88527" lon="8.53995">
        <ele>1695</ele>
        <time>2021-08-11T08:52:58.419Z</time>
      </trkpt>
      <trkpt lat="46.88527" lon="8.53995">
        <ele>1695</ele>
        <time>2021-08-11T08:52:59.419Z</time>
      </trkpt>
      <trkpt lat="46.88526" lon="8.53994">
        <ele>1695</ele>
        <time>2021-08-11T08:53:00.419Z</time>
      </trkpt>
      <trkpt lat="46.88526" lon="8.53994">
        <ele>1695</ele>
        <time>2021-08-11T08:53:01.419Z</time>
      </trkpt>
      <trkpt lat="46.88526" lon="8.53993">
        <ele>1695</ele>
        <time>2021-08-11T08:53:02.419Z</time>
      </trkpt>
      <trkpt lat="46.88526" lon="8.53993">
        <ele>1695</ele>
        <time>2021-08-11T08:53:03.419Z</time>
      </trkpt>
      <trkpt lat="46.88525" lon="8.53992">
        <ele>1696</ele>
        <time>2021-08-11T08:53:04.419Z</time>
      </trkpt>
      <trkpt lat="46.88525" lon="8.53992">
        <ele>1696</ele>
        <time>2021-08-11T08:53:05.419Z</time>
      </trkpt>
      <trkpt lat="46.88525" lon="8.53991">
        <ele>1696</ele>
        <time>2021-08-11T08:53:06.419Z</time>
      </trkpt>
      <trkpt lat="46.88525" lon="8.53991">
        <ele>1696</ele>
        <time>2021-08-11T08:53:07.419Z</time>
      </trkpt>
      <trkpt lat="46.88525" lon="8.53991">
        <ele>1696</ele>
        <time>2021-08-11T08:53:08.419Z</time>
      </trkpt>
      <trkpt lat="46.88526" lon="8.5399">
        <ele>1696</ele>
        <time>2021-08-11T08:53:09.419Z</time>
      </trkpt>
      <trkpt lat="46.88526" lon="8.53989">
        <ele>1697</ele>
        <time>2021-08-11T08:53:10.419Z</time>
      </trkpt>
      <trkpt lat="46.88526" lon="8.53988">
        <ele>1697</ele>
        <time>2021-08-11T08:53:11.419Z</time>
      </trkpt>
      <trkpt lat="46.88527" lon="8.53988">
        <ele>1697</ele>
        <time>2021-08-11T08:53:12.419Z</time>
      </trkpt>
      <trkpt lat="46.88528" lon="8.53987">
        <ele>1697</ele>
        <time>2021-08-11T08:53:13.419Z</time>
      </trkpt>
      <trkpt lat="46.88529" lon="8.53987">
        <ele>1697</ele>
        <time>2021-08-11T08:53:14.419Z</time>
      </trkpt>
      <trkpt lat="46.8853" lon="8.53987">
        <ele>1697</ele>
        <time>2021-08-11T08:53:15.419Z</time>
      </trkpt>
      <trkpt lat="46.8853" lon="8.53987">
        <ele>1697</ele>
        <time>2021-08-11T08:53:16.419Z</time>
      </trkpt>
      <trkpt lat="46.88531" lon="8.53987">
        <ele>1696</ele>
        <time>2021-08-11T08:53:17.419Z</time>
      </trkpt>
      <trkpt lat="46.88531" lon="8.53987">
        <ele>1696</ele>
        <time>2021-08-11T08:53:18.419Z</time>
      </trkpt>
      <trkpt lat="46.88531" lon="8.53988">
        <ele>1696</ele>
        <time>2021-08-11T08:53:19.419Z</time>
      </trkpt>
      <trkpt lat="46.88532" lon="8.53988">
        <ele>1696</ele>
        <time>2021-08-11T08:53:20.419Z</time>
      </trkpt>
      <trkpt lat="46.88532" lon="8.53989">
        <ele>1697</ele>
        <time>2021-08-11T08:53:21.419Z</time>
      </trkpt>
      <trkpt lat="46.88533" lon="8.5399">
        <ele>1697</ele>
        <time>2021-08-11T08:53:22.419Z</time>
      </trkpt>
      <trkpt lat="46.88534" lon="8.5399">
        <ele>1697</ele>
        <time>2021-08-11T08:53:23.419Z</time>
      </trkpt>
      <trkpt lat="46.88534" lon="8.5399">
        <ele>1697</ele>
        <time>2021-08-11T08:53:24.419Z</time>
      </trkpt>
      <trkpt lat="46.88535" lon="8.5399">
        <ele>1697</ele>
        <time>2021-08-11T08:53:25.419Z</time>
      </trkpt>
      <trkpt lat="46.88536" lon="8.53989">
        <ele>1697</ele>
        <time>2021-08-11T08:53:26.419Z</time>
      </trkpt>
      <trkpt lat="46.88536" lon="8.53989">
        <ele>1697</ele>
        <time>2021-08-11T08:53:27.419Z</time>
      </trkpt>
      <trkpt lat="46.88537" lon="8.53988">
        <ele>1698</ele>
        <time>2021-08-11T08:53:28.419Z</time>
      </trkpt>
      <trkpt lat="46.88537" lon="8.53988">
        <ele>1698</ele>
        <time>2021-08-11T08:53:29.419Z</time>
      </trkpt>
      <trkpt lat="46.88537" lon="8.53988">
        <ele>1698</ele>
        <time>2021-08-11T08:53:30.419Z</time>
      </trkpt>
      <trkpt lat="46.88537" lon="8.53989">
        <ele>1698</ele>
        <time>2021-08-11T08:53:31.419Z</time>
      </trkpt>
      <trkpt lat="46.88538" lon="8.53989">
        <ele>1698</ele>
        <time>2021-08-11T08:53:32.419Z</time>
      </trkpt>
      <trkpt lat="46.88539" lon="8.53989">
        <ele>1698</ele>
        <time>2021-08-11T08:53:33.419Z</time>
      </trkpt>
      <trkpt lat="46.88539" lon="8.53988">
        <ele>1698</ele>
        <time>2021-08-11T08:53:34.419Z</time>
      </trkpt>
      <trkpt lat="46.88539" lon="8.53988">
        <ele>1698</ele>
        <time>2021-08-11T08:53:35.419Z</time>
      </trkpt>
      <trkpt lat="46.88539" lon="8.53988">
        <ele>1699</ele>
        <time>2021-08-11T08:53:36.419Z</time>
      </trkpt>
      <trkpt lat="46.88539" lon="8.53987">
        <ele>1699</ele>
        <time>2021-08-11T08:53:37.419Z</time>
      </trkpt>
      <trkpt lat="46.88539" lon="8.53986">
        <ele>1699</ele>
        <time>2021-08-11T08:53:38.419Z</time>
      </trkpt>
      <trkpt lat="46.88539" lon="8.53986">
        <ele>1699</ele>
        <time>2021-08-11T08:53:39.419Z</time>
      </trkpt>
      <trkpt lat="46.88539" lon="8.53986">
        <ele>1699</ele>
        <time>2021-08-11T08:53:40.419Z</time>
      </trkpt>
      <trkpt lat="46.88539" lon="8.53985">
        <ele>1699</ele>
        <time>2021-08-11T08:53:41.419Z</time>
      </trkpt>
      <trkpt lat="46.8854" lon="8.53985">
        <ele>1699</ele>
        <time>2021-08-11T08:53:42.419Z</time>
      </trkpt>
      <trkpt lat="46.8854" lon="8.53985">
        <ele>1699</ele>
        <time>2021-08-11T08:53:43.419Z</time>
      </trkpt>
      <trkpt lat="46.8854" lon="8.53985">
        <ele>1700</ele>
        <time>2021-08-11T08:53:44.419Z</time>
      </trkpt>
      <trkpt lat="46.88541" lon="8.53985">
        <ele>1700</ele>
        <time>2021-08-11T08:53:45.419Z</time>
      </trkpt>
      <trkpt lat="46.88541" lon="8.53985">
        <ele>1701</ele>
        <time>2021-08-11T08:53:46.419Z</time>
      </trkpt>
      <trkpt lat="46.88542" lon="8.53984">
        <ele>1701</ele>
        <time>2021-08-11T08:53:47.419Z</time>
      </trkpt>
      <trkpt lat="46.88542" lon="8.53984">
        <ele>1701</ele>
        <time>2021-08-11T08:53:48.419Z</time>
      </trkpt>
      <trkpt lat="46.88543" lon="8.53984">
        <ele>1702</ele>
        <time>2021-08-11T08:53:49.419Z</time>
      </trkpt>
      <trkpt lat="46.88544" lon="8.53984">
        <ele>1702</ele>
        <time>2021-08-11T08:53:50.419Z</time>
      </trkpt>
      <trkpt lat="46.88545" lon="8.53984">
        <ele>1702</ele>
        <time>2021-08-11T08:53:51.419Z</time>
      </trkpt>
      <trkpt lat="46.88545" lon="8.53983">
        <ele>1702</ele>
        <time>2021-08-11T08:53:52.419Z</time>
      </trkpt>
      <trkpt lat="46.88546" lon="8.53983">
        <ele>1703</ele>
        <time>2021-08-11T08:53:53.419Z</time>
      </trkpt>
      <trkpt lat="46.88546" lon="8.53983">
        <ele>1703</ele>
        <time>2021-08-11T08:53:54.419Z</time>
      </trkpt>
      <trkpt lat="46.88547" lon="8.53983">
        <ele>1704</ele>
        <time>2021-08-11T08:53:55.419Z</time>
      </trkpt>
      <trkpt lat="46.88547" lon="8.53982">
        <ele>1705</ele>
        <time>2021-08-11T08:53:56.419Z</time>
      </trkpt>
      <trkpt lat="46.88548" lon="8.53982">
        <ele>1705</ele>
        <time>2021-08-11T08:53:57.419Z</time>
      </trkpt>
      <trkpt lat="46.88548" lon="8.53982">
        <ele>1706</ele>
        <time>2021-08-11T08:53:58.419Z</time>
      </trkpt>
      <trkpt lat="46.88547" lon="8.53983">
        <ele>1706</ele>
        <time>2021-08-11T08:53:59.419Z</time>
      </trkpt>
      <trkpt lat="46.88547" lon="8.53984">
        <ele>1706</ele>
        <time>2021-08-11T08:54:00.419Z</time>
      </trkpt>
      <trkpt lat="46.88548" lon="8.53984">
        <ele>1706</ele>
        <time>2021-08-11T08:54:01.419Z</time>
      </trkpt>
      <trkpt lat="46.88548" lon="8.53985">
        <ele>1706</ele>
        <time>2021-08-11T08:54:02.419Z</time>
      </trkpt>
      <trkpt lat="46.88548" lon="8.53985">
        <ele>1707</ele>
        <time>2021-08-11T08:54:03.419Z</time>
      </trkpt>
      <trkpt lat="46.88548" lon="8.53985">
        <ele>1707</ele>
        <time>2021-08-11T08:54:04.420Z</time>
      </trkpt>
      <trkpt lat="46.88549" lon="8.53984">
        <ele>1707</ele>
        <time>2021-08-11T08:54:05.420Z</time>
      </trkpt>
      <trkpt lat="46.8855" lon="8.53984">
        <ele>1708</ele>
        <time>2021-08-11T08:54:06.420Z</time>
      </trkpt>
      <trkpt lat="46.88551" lon="8.53984">
        <ele>1708</ele>
        <time>2021-08-11T08:54:07.419Z</time>
      </trkpt>
      <trkpt lat="46.88551" lon="8.53984">
        <ele>1708</ele>
        <time>2021-08-11T08:54:08.420Z</time>
      </trkpt>
      <trkpt lat="46.88552" lon="8.53983">
        <ele>1709</ele>
        <time>2021-08-11T08:54:09.419Z</time>
      </trkpt>
      <trkpt lat="46.88553" lon="8.53982">
        <ele>1709</ele>
        <time>2021-08-11T08:54:10.419Z</time>
      </trkpt>
      <trkpt lat="46.88554" lon="8.53981">
        <ele>1709</ele>
        <time>2021-08-11T08:54:11.419Z</time>
      </trkpt>
      <trkpt lat="46.88554" lon="8.53981">
        <ele>1710</ele>
        <time>2021-08-11T08:54:12.419Z</time>
      </trkpt>
      <trkpt lat="46.88555" lon="8.5398">
        <ele>1710</ele>
        <time>2021-08-11T08:54:13.419Z</time>
      </trkpt>
      <trkpt lat="46.88555" lon="8.5398">
        <ele>1710</ele>
        <time>2021-08-11T08:54:14.419Z</time>
      </trkpt>
      <trkpt lat="46.88555" lon="8.53981">
        <ele>1709</ele>
        <time>2021-08-11T08:54:15.420Z</time>
      </trkpt>
      <trkpt lat="46.88556" lon="8.53981">
        <ele>1709</ele>
        <time>2021-08-11T08:54:16.419Z</time>
      </trkpt>
      <trkpt lat="46.88557" lon="8.53981">
        <ele>1709</ele>
        <time>2021-08-11T08:54:17.419Z</time>
      </trkpt>
      <trkpt lat="46.88557" lon="8.53981">
        <ele>1709</ele>
        <time>2021-08-11T08:54:18.419Z</time>
      </trkpt>
      <trkpt lat="46.88558" lon="8.5398">
        <ele>1709</ele>
        <time>2021-08-11T08:54:19.420Z</time>
      </trkpt>
      <trkpt lat="46.88559" lon="8.53979">
        <ele>1709</ele>
        <time>2021-08-11T08:54:20.420Z</time>
      </trkpt>
      <trkpt lat="46.8856" lon="8.53978">
        <ele>1710</ele>
        <time>2021-08-11T08:54:21.419Z</time>
      </trkpt>
      <trkpt lat="46.8856" lon="8.53978">
        <ele>1710</ele>
        <time>2021-08-11T08:54:22.419Z</time>
      </trkpt>
      <trkpt lat="46.8856" lon="8.53977">
        <ele>1710</ele>
        <time>2021-08-11T08:54:23.420Z</time>
      </trkpt>
      <trkpt lat="46.88561" lon="8.53977">
        <ele>1710</ele>
        <time>2021-08-11T08:54:24.419Z</time>
      </trkpt>
      <trkpt lat="46.88562" lon="8.53976">
        <ele>1710</ele>
        <time>2021-08-11T08:54:25.419Z</time>
      </trkpt>
      <trkpt lat="46.88562" lon="8.53975">
        <ele>1710</ele>
        <time>2021-08-11T08:54:26.419Z</time>
      </trkpt>
      <trkpt lat="46.88562" lon="8.53975">
        <ele>1710</ele>
        <time>2021-08-11T08:54:27.420Z</time>
      </trkpt>
      <trkpt lat="46.88562" lon="8.53975">
        <ele>1709</ele>
        <time>2021-08-11T08:54:28.420Z</time>
      </trkpt>
      <trkpt lat="46.88562" lon="8.53975">
        <ele>1708</ele>
        <time>2021-08-11T08:54:29.421Z</time>
      </trkpt>
      <trkpt lat="46.88562" lon="8.53975">
        <ele>1708</ele>
        <time>2021-08-11T08:54:30.421Z</time>
      </trkpt>
      <trkpt lat="46.88562" lon="8.53976">
        <ele>1708</ele>
        <time>2021-08-11T08:54:31.421Z</time>
      </trkpt>
      <trkpt lat="46.88563" lon="8.53976">
        <ele>1708</ele>
        <time>2021-08-11T08:54:32.420Z</time>
      </trkpt>
      <trkpt lat="46.88563" lon="8.53975">
        <ele>1709</ele>
        <time>2021-08-11T08:54:33.421Z</time>
      </trkpt>
      <trkpt lat="46.88561" lon="8.53976">
        <ele>1707</ele>
        <time>2021-08-11T08:54:34.420Z</time>
      </trkpt>
      <trkpt lat="46.8856" lon="8.53976">
        <ele>1707</ele>
        <time>2021-08-11T08:54:35.421Z</time>
      </trkpt>
      <trkpt lat="46.88559" lon="8.53975">
        <ele>1708</ele>
        <time>2021-08-11T08:54:36.420Z</time>
      </trkpt>
      <trkpt lat="46.8856" lon="8.53976">
        <ele>1708</ele>
        <time>2021-08-11T08:54:37.421Z</time>
      </trkpt>
      <trkpt lat="46.8856" lon="8.53975">
        <ele>1708</ele>
        <time>2021-08-11T08:54:38.421Z</time>
      </trkpt>
      <trkpt lat="46.8856" lon="8.53975">
        <ele>1707</ele>
        <time>2021-08-11T08:54:39.422Z</time>
      </trkpt>
      <trkpt lat="46.88561" lon="8.53975">
        <ele>1707</ele>
        <time>2021-08-11T08:54:40.421Z</time>
      </trkpt>
      <trkpt lat="46.88561" lon="8.53975">
        <ele>1707</ele>
        <time>2021-08-11T08:54:41.421Z</time>
      </trkpt>
      <trkpt lat="46.88561" lon="8.53976">
        <ele>1706</ele>
        <time>2021-08-11T08:54:42.422Z</time>
      </trkpt>
      <trkpt lat="46.8856" lon="8.53976">
        <ele>1706</ele>
        <time>2021-08-11T08:54:43.422Z</time>
      </trkpt>
      <trkpt lat="46.88561" lon="8.53976">
        <ele>1706</ele>
        <time>2021-08-11T08:54:44.422Z</time>
      </trkpt>
      <trkpt lat="46.88561" lon="8.53977">
        <ele>1706</ele>
        <time>2021-08-11T08:54:45.422Z</time>
      </trkpt>
      <trkpt lat="46.88561" lon="8.53978">
        <ele>1706</ele>
        <time>2021-08-11T08:54:46.421Z</time>
      </trkpt>
      <trkpt lat="46.88563" lon="8.53976">
        <ele>1704</ele>
        <time>2021-08-11T08:54:47.423Z</time>
      </trkpt>
      <trkpt lat="46.88563" lon="8.53975">
        <ele>1704</ele>
        <time>2021-08-11T08:54:48.423Z</time>
      </trkpt>
      <trkpt lat="46.88563" lon="8.53975">
        <ele>1704</ele>
        <time>2021-08-11T08:54:49.423Z</time>
      </trkpt>
      <trkpt lat="46.88563" lon="8.53974">
        <ele>1704</ele>
        <time>2021-08-11T08:54:50.422Z</time>
      </trkpt>
      <trkpt lat="46.88562" lon="8.53973">
        <ele>1704</ele>
        <time>2021-08-11T08:54:51.422Z</time>
      </trkpt>
      <trkpt lat="46.88562" lon="8.53973">
        <ele>1704</ele>
        <time>2021-08-11T08:54:52.423Z</time>
      </trkpt>
      <trkpt lat="46.88562" lon="8.53972">
        <ele>1703</ele>
        <time>2021-08-11T08:54:53.422Z</time>
      </trkpt>
      <trkpt lat="46.88563" lon="8.53972">
        <ele>1703</ele>
        <time>2021-08-11T08:54:54.423Z</time>
      </trkpt>
      <trkpt lat="46.88564" lon="8.53971">
        <ele>1702</ele>
        <time>2021-08-11T08:54:55.422Z</time>
      </trkpt>
      <trkpt lat="46.88564" lon="8.5397">
        <ele>1703</ele>
        <time>2021-08-11T08:54:56.423Z</time>
      </trkpt>
      <trkpt lat="46.88564" lon="8.53969">
        <ele>1703</ele>
        <time>2021-08-11T08:54:57.423Z</time>
      </trkpt>
      <trkpt lat="46.88564" lon="8.53968">
        <ele>1703</ele>
        <time>2021-08-11T08:54:58.422Z</time>
      </trkpt>
      <trkpt lat="46.88564" lon="8.53968">
        <ele>1704</ele>
        <time>2021-08-11T08:54:59.423Z</time>
      </trkpt>
      <trkpt lat="46.88564" lon="8.53968">
        <ele>1704</ele>
        <time>2021-08-11T08:55:00.423Z</time>
      </trkpt>
      <trkpt lat="46.88565" lon="8.53968">
        <ele>1704</ele>
        <time>2021-08-11T08:55:01.423Z</time>
      </trkpt>
      <trkpt lat="46.88565" lon="8.53967">
        <ele>1705</ele>
        <time>2021-08-11T08:55:02.423Z</time>
      </trkpt>
      <trkpt lat="46.88566" lon="8.53967">
        <ele>1705</ele>
        <time>2021-08-11T08:55:03.422Z</time>
      </trkpt>
      <trkpt lat="46.88566" lon="8.53967">
        <ele>1705</ele>
        <time>2021-08-11T08:55:04.423Z</time>
      </trkpt>
      <trkpt lat="46.88567" lon="8.53968">
        <ele>1705</ele>
        <time>2021-08-11T08:55:05.423Z</time>
      </trkpt>
      <trkpt lat="46.88567" lon="8.53967">
        <ele>1706</ele>
        <time>2021-08-11T08:55:06.422Z</time>
      </trkpt>
      <trkpt lat="46.88567" lon="8.53966">
        <ele>1706</ele>
        <time>2021-08-11T08:55:07.423Z</time>
      </trkpt>
      <trkpt lat="46.88568" lon="8.53965">
        <ele>1706</ele>
        <time>2021-08-11T08:55:08.423Z</time>
      </trkpt>
      <trkpt lat="46.88568" lon="8.53964">
        <ele>1706</ele>
        <time>2021-08-11T08:55:09.422Z</time>
      </trkpt>
      <trkpt lat="46.88568" lon="8.53963">
        <ele>1706</ele>
        <time>2021-08-11T08:55:10.422Z</time>
      </trkpt>
      <trkpt lat="46.88568" lon="8.53963">
        <ele>1706</ele>
        <time>2021-08-11T08:55:11.423Z</time>
      </trkpt>
      <trkpt lat="46.88567" lon="8.53962">
        <ele>1706</ele>
        <time>2021-08-11T08:55:12.423Z</time>
      </trkpt>
      <trkpt lat="46.88567" lon="8.53962">
        <ele>1706</ele>
        <time>2021-08-11T08:55:13.423Z</time>
      </trkpt>
      <trkpt lat="46.88566" lon="8.53962">
        <ele>1706</ele>
        <time>2021-08-11T08:55:14.423Z</time>
      </trkpt>
      <trkpt lat="46.88566" lon="8.53961">
        <ele>1706</ele>
        <time>2021-08-11T08:55:15.422Z</time>
      </trkpt>
      <trkpt lat="46.88565" lon="8.53961">
        <ele>1706</ele>
        <time>2021-08-11T08:55:16.423Z</time>
      </trkpt>
      <trkpt lat="46.88565" lon="8.5396">
        <ele>1706</ele>
        <time>2021-08-11T08:55:17.422Z</time>
      </trkpt>
      <trkpt lat="46.88564" lon="8.5396">
        <ele>1707</ele>
        <time>2021-08-11T08:55:18.423Z</time>
      </trkpt>
      <trkpt lat="46.88564" lon="8.5396">
        <ele>1707</ele>
        <time>2021-08-11T08:55:19.423Z</time>
      </trkpt>
      <trkpt lat="46.88564" lon="8.53959">
        <ele>1707</ele>
        <time>2021-08-11T08:55:20.422Z</time>
      </trkpt>
      <trkpt lat="46.88563" lon="8.53959">
        <ele>1708</ele>
        <time>2021-08-11T08:55:21.423Z</time>
      </trkpt>
      <trkpt lat="46.88563" lon="8.53959">
        <ele>1708</ele>
        <time>2021-08-11T08:55:22.423Z</time>
      </trkpt>
      <trkpt lat="46.88562" lon="8.53959">
        <ele>1708</ele>
        <time>2021-08-11T08:55:23.422Z</time>
      </trkpt>
      <trkpt lat="46.88562" lon="8.53959">
        <ele>1708</ele>
        <time>2021-08-11T08:55:24.423Z</time>
      </trkpt>
      <trkpt lat="46.88561" lon="8.53959">
        <ele>1708</ele>
        <time>2021-08-11T08:55:25.423Z</time>
      </trkpt>
      <trkpt lat="46.88559" lon="8.53959">
        <ele>1712</ele>
        <time>2021-08-11T08:55:26.423Z</time>
      </trkpt>
      <trkpt lat="46.88559" lon="8.53959">
        <ele>1713</ele>
        <time>2021-08-11T08:55:27.423Z</time>
      </trkpt>
      <trkpt lat="46.88559" lon="8.53958">
        <ele>1714</ele>
        <time>2021-08-11T08:55:28.423Z</time>
      </trkpt>
      <trkpt lat="46.88559" lon="8.53957">
        <ele>1714</ele>
        <time>2021-08-11T08:55:29.422Z</time>
      </trkpt>
      <trkpt lat="46.88559" lon="8.53957">
        <ele>1714</ele>
        <time>2021-08-11T08:55:30.422Z</time>
      </trkpt>
      <trkpt lat="46.88559" lon="8.53957">
        <ele>1714</ele>
        <time>2021-08-11T08:55:31.423Z</time>
      </trkpt>
      <trkpt lat="46.8856" lon="8.53956">
        <ele>1713</ele>
        <time>2021-08-11T08:55:32.424Z</time>
      </trkpt>
      <trkpt lat="46.8856" lon="8.53956">
        <ele>1713</ele>
        <time>2021-08-11T08:55:33.424Z</time>
      </trkpt>
      <trkpt lat="46.8856" lon="8.53955">
        <ele>1713</ele>
        <time>2021-08-11T08:55:34.424Z</time>
      </trkpt>
      <trkpt lat="46.8856" lon="8.53954">
        <ele>1713</ele>
        <time>2021-08-11T08:55:35.423Z</time>
      </trkpt>
      <trkpt lat="46.8856" lon="8.53954">
        <ele>1713</ele>
        <time>2021-08-11T08:55:36.424Z</time>
      </trkpt>
      <trkpt lat="46.8856" lon="8.53954">
        <ele>1713</ele>
        <time>2021-08-11T08:55:37.424Z</time>
      </trkpt>
      <trkpt lat="46.8856" lon="8.53953">
        <ele>1713</ele>
        <time>2021-08-11T08:55:38.423Z</time>
      </trkpt>
      <trkpt lat="46.88561" lon="8.53953">
        <ele>1713</ele>
        <time>2021-08-11T08:55:39.424Z</time>
      </trkpt>
      <trkpt lat="46.88561" lon="8.53952">
        <ele>1714</ele>
        <time>2021-08-11T08:55:40.423Z</time>
      </trkpt>
      <trkpt lat="46.88562" lon="8.53952">
        <ele>1714</ele>
        <time>2021-08-11T08:55:41.424Z</time>
      </trkpt>
      <trkpt lat="46.88562" lon="8.53952">
        <ele>1714</ele>
        <time>2021-08-11T08:55:42.424Z</time>
      </trkpt>
      <trkpt lat="46.88562" lon="8.53951">
        <ele>1714</ele>
        <time>2021-08-11T08:55:43.424Z</time>
      </trkpt>
      <trkpt lat="46.88563" lon="8.5395">
        <ele>1714</ele>
        <time>2021-08-11T08:55:44.423Z</time>
      </trkpt>
      <trkpt lat="46.88563" lon="8.5395">
        <ele>1714</ele>
        <time>2021-08-11T08:55:45.424Z</time>
      </trkpt>
      <trkpt lat="46.88564" lon="8.53949">
        <ele>1715</ele>
        <time>2021-08-11T08:55:46.424Z</time>
      </trkpt>
      <trkpt lat="46.88564" lon="8.53949">
        <ele>1715</ele>
        <time>2021-08-11T08:55:47.424Z</time>
      </trkpt>
      <trkpt lat="46.88565" lon="8.53949">
        <ele>1715</ele>
        <time>2021-08-11T08:55:48.423Z</time>
      </trkpt>
      <trkpt lat="46.88565" lon="8.53948">
        <ele>1715</ele>
        <time>2021-08-11T08:55:49.423Z</time>
      </trkpt>
      <trkpt lat="46.88566" lon="8.53948">
        <ele>1715</ele>
        <time>2021-08-11T08:55:50.423Z</time>
      </trkpt>
      <trkpt lat="46.88566" lon="8.53948">
        <ele>1715</ele>
        <time>2021-08-11T08:55:51.424Z</time>
      </trkpt>
      <trkpt lat="46.88566" lon="8.53947">
        <ele>1715</ele>
        <time>2021-08-11T08:55:52.423Z</time>
      </trkpt>
      <trkpt lat="46.88567" lon="8.53947">
        <ele>1715</ele>
        <time>2021-08-11T08:55:53.423Z</time>
      </trkpt>
      <trkpt lat="46.88567" lon="8.53947">
        <ele>1715</ele>
        <time>2021-08-11T08:55:54.423Z</time>
      </trkpt>
      <trkpt lat="46.88567" lon="8.53946">
        <ele>1716</ele>
        <time>2021-08-11T08:55:55.424Z</time>
      </trkpt>
      <trkpt lat="46.88567" lon="8.53946">
        <ele>1716</ele>
        <time>2021-08-11T08:55:56.424Z</time>
      </trkpt>
      <trkpt lat="46.88568" lon="8.53945">
        <ele>1716</ele>
        <time>2021-08-11T08:55:57.423Z</time>
      </trkpt>
      <trkpt lat="46.88568" lon="8.53944">
        <ele>1716</ele>
        <time>2021-08-11T08:55:58.424Z</time>
      </trkpt>
      <trkpt lat="46.88568" lon="8.53944">
        <ele>1716</ele>
        <time>2021-08-11T08:55:59.424Z</time>
      </trkpt>
      <trkpt lat="46.88569" lon="8.53942">
        <ele>1717</ele>
        <time>2021-08-11T08:56:00.425Z</time>
      </trkpt>
      <trkpt lat="46.88569" lon="8.53941">
        <ele>1717</ele>
        <time>2021-08-11T08:56:01.425Z</time>
      </trkpt>
      <trkpt lat="46.8857" lon="8.53941">
        <ele>1717</ele>
        <time>2021-08-11T08:56:02.424Z</time>
      </trkpt>
      <trkpt lat="46.8857" lon="8.5394">
        <ele>1717</ele>
        <time>2021-08-11T08:56:03.425Z</time>
      </trkpt>
      <trkpt lat="46.8857" lon="8.53939">
        <ele>1717</ele>
        <time>2021-08-11T08:56:04.425Z</time>
      </trkpt>
      <trkpt lat="46.88571" lon="8.53939">
        <ele>1717</ele>
        <time>2021-08-11T08:56:05.425Z</time>
      </trkpt>
      <trkpt lat="46.88571" lon="8.53938">
        <ele>1717</ele>
        <time>2021-08-11T08:56:06.424Z</time>
      </trkpt>
      <trkpt lat="46.88571" lon="8.53938">
        <ele>1717</ele>
        <time>2021-08-11T08:56:07.425Z</time>
      </trkpt>
      <trkpt lat="46.88571" lon="8.53937">
        <ele>1717</ele>
        <time>2021-08-11T08:56:08.425Z</time>
      </trkpt>
      <trkpt lat="46.88572" lon="8.53937">
        <ele>1717</ele>
        <time>2021-08-11T08:56:09.425Z</time>
      </trkpt>
      <trkpt lat="46.88572" lon="8.53937">
        <ele>1717</ele>
        <time>2021-08-11T08:56:10.424Z</time>
      </trkpt>
      <trkpt lat="46.88572" lon="8.53936">
        <ele>1718</ele>
        <time>2021-08-11T08:56:11.424Z</time>
      </trkpt>
      <trkpt lat="46.88572" lon="8.53936">
        <ele>1718</ele>
        <time>2021-08-11T08:56:12.425Z</time>
      </trkpt>
      <trkpt lat="46.88573" lon="8.53935">
        <ele>1716</ele>
        <time>2021-08-11T08:56:13.426Z</time>
      </trkpt>
      <trkpt lat="46.88572" lon="8.53934">
        <ele>1716</ele>
        <time>2021-08-11T08:56:14.427Z</time>
      </trkpt>
      <trkpt lat="46.88571" lon="8.53933">
        <ele>1715</ele>
        <time>2021-08-11T08:56:15.427Z</time>
      </trkpt>
      <trkpt lat="46.88571" lon="8.53932">
        <ele>1715</ele>
        <time>2021-08-11T08:56:16.426Z</time>
      </trkpt>
      <trkpt lat="46.8857" lon="8.53931">
        <ele>1716</ele>
        <time>2021-08-11T08:56:17.426Z</time>
      </trkpt>
      <trkpt lat="46.88569" lon="8.53931">
        <ele>1715</ele>
        <time>2021-08-11T08:56:18.427Z</time>
      </trkpt>
      <trkpt lat="46.88569" lon="8.53931">
        <ele>1715</ele>
        <time>2021-08-11T08:56:19.427Z</time>
      </trkpt>
      <trkpt lat="46.88569" lon="8.5393">
        <ele>1715</ele>
        <time>2021-08-11T08:56:20.427Z</time>
      </trkpt>
      <trkpt lat="46.88569" lon="8.5393">
        <ele>1715</ele>
        <time>2021-08-11T08:56:21.426Z</time>
      </trkpt>
      <trkpt lat="46.8857" lon="8.5393">
        <ele>1715</ele>
        <time>2021-08-11T08:56:22.427Z</time>
      </trkpt>
      <trkpt lat="46.8857" lon="8.53929">
        <ele>1715</ele>
        <time>2021-08-11T08:56:23.427Z</time>
      </trkpt>
      <trkpt lat="46.8857" lon="8.53929">
        <ele>1715</ele>
        <time>2021-08-11T08:56:24.427Z</time>
      </trkpt>
      <trkpt lat="46.8857" lon="8.53928">
        <ele>1715</ele>
        <time>2021-08-11T08:56:25.426Z</time>
      </trkpt>
      <trkpt lat="46.88569" lon="8.53927">
        <ele>1716</ele>
        <time>2021-08-11T08:56:26.426Z</time>
      </trkpt>
      <trkpt lat="46.88569" lon="8.53926">
        <ele>1716</ele>
        <time>2021-08-11T08:56:27.427Z</time>
      </trkpt>
      <trkpt lat="46.88568" lon="8.53926">
        <ele>1716</ele>
        <time>2021-08-11T08:56:28.426Z</time>
      </trkpt>
      <trkpt lat="46.88567" lon="8.53925">
        <ele>1717</ele>
        <time>2021-08-11T08:56:29.426Z</time>
      </trkpt>
      <trkpt lat="46.88567" lon="8.53925">
        <ele>1718</ele>
        <time>2021-08-11T08:56:30.427Z</time>
      </trkpt>
      <trkpt lat="46.88565" lon="8.53924">
        <ele>1721</ele>
        <time>2021-08-11T08:56:31.427Z</time>
      </trkpt>
      <trkpt lat="46.88565" lon="8.53924">
        <ele>1721</ele>
        <time>2021-08-11T08:56:32.426Z</time>
      </trkpt>
      <trkpt lat="46.88564" lon="8.53924">
        <ele>1722</ele>
        <time>2021-08-11T08:56:33.428Z</time>
      </trkpt>
      <trkpt lat="46.88563" lon="8.53924">
        <ele>1722</ele>
        <time>2021-08-11T08:56:34.429Z</time>
      </trkpt>
      <trkpt lat="46.88563" lon="8.53924">
        <ele>1722</ele>
        <time>2021-08-11T08:56:35.428Z</time>
      </trkpt>
      <trkpt lat="46.88562" lon="8.53923">
        <ele>1720</ele>
        <time>2021-08-11T08:56:36.428Z</time>
      </trkpt>
      <trkpt lat="46.88562" lon="8.53923">
        <ele>1719</ele>
        <time>2021-08-11T08:56:37.428Z</time>
      </trkpt>
      <trkpt lat="46.88563" lon="8.53922">
        <ele>1719</ele>
        <time>2021-08-11T08:56:38.428Z</time>
      </trkpt>
      <trkpt lat="46.88563" lon="8.53921">
        <ele>1718</ele>
        <time>2021-08-11T08:56:39.428Z</time>
      </trkpt>
      <trkpt lat="46.88563" lon="8.53921">
        <ele>1718</ele>
        <time>2021-08-11T08:56:40.429Z</time>
      </trkpt>
      <trkpt lat="46.88563" lon="8.5392">
        <ele>1719</ele>
        <time>2021-08-11T08:56:41.428Z</time>
      </trkpt>
      <trkpt lat="46.88563" lon="8.5392">
        <ele>1719</ele>
        <time>2021-08-11T08:56:42.429Z</time>
      </trkpt>
      <trkpt lat="46.88562" lon="8.5392">
        <ele>1720</ele>
        <time>2021-08-11T08:56:43.429Z</time>
      </trkpt>
      <trkpt lat="46.88562" lon="8.5392">
        <ele>1720</ele>
        <time>2021-08-11T08:56:44.429Z</time>
      </trkpt>
      <trkpt lat="46.88562" lon="8.53921">
        <ele>1720</ele>
        <time>2021-08-11T08:56:45.428Z</time>
      </trkpt>
      <trkpt lat="46.88562" lon="8.53921">
        <ele>1721</ele>
        <time>2021-08-11T08:56:46.429Z</time>
      </trkpt>
      <trkpt lat="46.88562" lon="8.53921">
        <ele>1721</ele>
        <time>2021-08-11T08:56:47.429Z</time>
      </trkpt>
      <trkpt lat="46.88561" lon="8.53922">
        <ele>1721</ele>
        <time>2021-08-11T08:56:48.429Z</time>
      </trkpt>
      <trkpt lat="46.88561" lon="8.53921">
        <ele>1721</ele>
        <time>2021-08-11T08:56:49.429Z</time>
      </trkpt>
      <trkpt lat="46.88561" lon="8.53921">
        <ele>1722</ele>
        <time>2021-08-11T08:56:50.429Z</time>
      </trkpt>
      <trkpt lat="46.88561" lon="8.5392">
        <ele>1722</ele>
        <time>2021-08-11T08:56:51.428Z</time>
      </trkpt>
      <trkpt lat="46.8856" lon="8.53919">
        <ele>1722</ele>
        <time>2021-08-11T08:56:52.429Z</time>
      </trkpt>
      <trkpt lat="46.8856" lon="8.53919">
        <ele>1723</ele>
        <time>2021-08-11T08:56:53.429Z</time>
      </trkpt>
      <trkpt lat="46.8856" lon="8.53919">
        <ele>1723</ele>
        <time>2021-08-11T08:56:54.429Z</time>
      </trkpt>
      <trkpt lat="46.88559" lon="8.53918">
        <ele>1723</ele>
        <time>2021-08-11T08:56:55.429Z</time>
      </trkpt>
      <trkpt lat="46.88559" lon="8.53918">
        <ele>1724</ele>
        <time>2021-08-11T08:56:56.428Z</time>
      </trkpt>
      <trkpt lat="46.88558" lon="8.53918">
        <ele>1724</ele>
        <time>2021-08-11T08:56:57.429Z</time>
      </trkpt>
      <trkpt lat="46.88557" lon="8.53918">
        <ele>1724</ele>
        <time>2021-08-11T08:56:58.429Z</time>
      </trkpt>
      <trkpt lat="46.88557" lon="8.53917">
        <ele>1724</ele>
        <time>2021-08-11T08:56:59.429Z</time>
      </trkpt>
      <trkpt lat="46.88557" lon="8.53917">
        <ele>1724</ele>
        <time>2021-08-11T08:57:00.429Z</time>
      </trkpt>
      <trkpt lat="46.88557" lon="8.53916">
        <ele>1724</ele>
        <time>2021-08-11T08:57:01.428Z</time>
      </trkpt>
      <trkpt lat="46.88556" lon="8.53916">
        <ele>1724</ele>
        <time>2021-08-11T08:57:02.429Z</time>
      </trkpt>
      <trkpt lat="46.88556" lon="8.53917">
        <ele>1724</ele>
        <time>2021-08-11T08:57:03.429Z</time>
      </trkpt>
      <trkpt lat="46.88555" lon="8.53916">
        <ele>1728</ele>
        <time>2021-08-11T08:57:04.429Z</time>
      </trkpt>
      <trkpt lat="46.88555" lon="8.53916">
        <ele>1728</ele>
        <time>2021-08-11T08:57:05.429Z</time>
      </trkpt>
      <trkpt lat="46.88554" lon="8.53915">
        <ele>1728</ele>
        <time>2021-08-11T08:57:06.428Z</time>
      </trkpt>
      <trkpt lat="46.88554" lon="8.53916">
        <ele>1729</ele>
        <time>2021-08-11T08:57:07.428Z</time>
      </trkpt>
      <trkpt lat="46.88554" lon="8.53917">
        <ele>1729</ele>
        <time>2021-08-11T08:57:08.428Z</time>
      </trkpt>
      <trkpt lat="46.88554" lon="8.53916">
        <ele>1730</ele>
        <time>2021-08-11T08:57:09.429Z</time>
      </trkpt>
      <trkpt lat="46.88554" lon="8.53916">
        <ele>1730</ele>
        <time>2021-08-11T08:57:10.429Z</time>
      </trkpt>
      <trkpt lat="46.88553" lon="8.53915">
        <ele>1730</ele>
        <time>2021-08-11T08:57:11.428Z</time>
      </trkpt>
      <trkpt lat="46.88553" lon="8.53915">
        <ele>1731</ele>
        <time>2021-08-11T08:57:12.430Z</time>
      </trkpt>
      <trkpt lat="46.88553" lon="8.53915">
        <ele>1731</ele>
        <time>2021-08-11T08:57:13.430Z</time>
      </trkpt>
      <trkpt lat="46.88553" lon="8.53915">
        <ele>1731</ele>
        <time>2021-08-11T08:57:14.430Z</time>
      </trkpt>
      <trkpt lat="46.88553" lon="8.53915">
        <ele>1731</ele>
        <time>2021-08-11T08:57:15.430Z</time>
      </trkpt>
      <trkpt lat="46.88552" lon="8.53915">
        <ele>1730</ele>
        <time>2021-08-11T08:57:16.430Z</time>
      </trkpt>
      <trkpt lat="46.88552" lon="8.53915">
        <ele>1730</ele>
        <time>2021-08-11T08:57:17.430Z</time>
      </trkpt>
      <trkpt lat="46.88551" lon="8.53913">
        <ele>1729</ele>
        <time>2021-08-11T08:57:18.429Z</time>
      </trkpt>
      <trkpt lat="46.88551" lon="8.53913">
        <ele>1729</ele>
        <time>2021-08-11T08:57:19.430Z</time>
      </trkpt>
      <trkpt lat="46.8855" lon="8.53913">
        <ele>1729</ele>
        <time>2021-08-11T08:57:20.429Z</time>
      </trkpt>
      <trkpt lat="46.88549" lon="8.53913">
        <ele>1731</ele>
        <time>2021-08-11T08:57:21.429Z</time>
      </trkpt>
      <trkpt lat="46.88548" lon="8.53913">
        <ele>1731</ele>
        <time>2021-08-11T08:57:22.430Z</time>
      </trkpt>
      <trkpt lat="46.88548" lon="8.53913">
        <ele>1732</ele>
        <time>2021-08-11T08:57:23.429Z</time>
      </trkpt>
      <trkpt lat="46.88547" lon="8.53913">
        <ele>1733</ele>
        <time>2021-08-11T08:57:24.430Z</time>
      </trkpt>
      <trkpt lat="46.88547" lon="8.53913">
        <ele>1733</ele>
        <time>2021-08-11T08:57:25.430Z</time>
      </trkpt>
      <trkpt lat="46.88546" lon="8.53914">
        <ele>1737</ele>
        <time>2021-08-11T08:57:26.430Z</time>
      </trkpt>
      <trkpt lat="46.88547" lon="8.53914">
        <ele>1737</ele>
        <time>2021-08-11T08:57:27.430Z</time>
      </trkpt>
      <trkpt lat="46.88547" lon="8.53913">
        <ele>1737</ele>
        <time>2021-08-11T08:57:28.429Z</time>
      </trkpt>
      <trkpt lat="46.88547" lon="8.53913">
        <ele>1737</ele>
        <time>2021-08-11T08:57:29.431Z</time>
      </trkpt>
      <trkpt lat="46.88547" lon="8.53912">
        <ele>1737</ele>
        <time>2021-08-11T08:57:30.430Z</time>
      </trkpt>
      <trkpt lat="46.88548" lon="8.53911">
        <ele>1737</ele>
        <time>2021-08-11T08:57:31.430Z</time>
      </trkpt>
      <trkpt lat="46.88549" lon="8.53911">
        <ele>1737</ele>
        <time>2021-08-11T08:57:32.431Z</time>
      </trkpt>
      <trkpt lat="46.8855" lon="8.53911">
        <ele>1737</ele>
        <time>2021-08-11T08:57:33.430Z</time>
      </trkpt>
      <trkpt lat="46.8855" lon="8.5391">
        <ele>1737</ele>
        <time>2021-08-11T08:57:34.431Z</time>
      </trkpt>
      <trkpt lat="46.8855" lon="8.5391">
        <ele>1737</ele>
        <time>2021-08-11T08:57:35.431Z</time>
      </trkpt>
      <trkpt lat="46.8855" lon="8.5391">
        <ele>1737</ele>
        <time>2021-08-11T08:57:36.431Z</time>
      </trkpt>
      <trkpt lat="46.8855" lon="8.53909">
        <ele>1737</ele>
        <time>2021-08-11T08:57:37.431Z</time>
      </trkpt>
      <trkpt lat="46.88551" lon="8.5391">
        <ele>1737</ele>
        <time>2021-08-11T08:57:38.431Z</time>
      </trkpt>
      <trkpt lat="46.88551" lon="8.5391">
        <ele>1738</ele>
        <time>2021-08-11T08:57:39.431Z</time>
      </trkpt>
      <trkpt lat="46.88551" lon="8.5391">
        <ele>1738</ele>
        <time>2021-08-11T08:57:40.430Z</time>
      </trkpt>
      <trkpt lat="46.88551" lon="8.5391">
        <ele>1738</ele>
        <time>2021-08-11T08:57:41.431Z</time>
      </trkpt>
      <trkpt lat="46.88551" lon="8.53909">
        <ele>1738</ele>
        <time>2021-08-11T08:57:42.430Z</time>
      </trkpt>
      <trkpt lat="46.88553" lon="8.53909">
        <ele>1737</ele>
        <time>2021-08-11T08:57:43.430Z</time>
      </trkpt>
      <trkpt lat="46.88553" lon="8.53908">
        <ele>1737</ele>
        <time>2021-08-11T08:57:44.430Z</time>
      </trkpt>
      <trkpt lat="46.88554" lon="8.53907">
        <ele>1737</ele>
        <time>2021-08-11T08:57:45.430Z</time>
      </trkpt>
      <trkpt lat="46.88554" lon="8.53907">
        <ele>1737</ele>
        <time>2021-08-11T08:57:46.430Z</time>
      </trkpt>
      <trkpt lat="46.88554" lon="8.53906">
        <ele>1737</ele>
        <time>2021-08-11T08:57:47.430Z</time>
      </trkpt>
      <trkpt lat="46.88554" lon="8.53906">
        <ele>1738</ele>
        <time>2021-08-11T08:57:48.430Z</time>
      </trkpt>
      <trkpt lat="46.88555" lon="8.53905">
        <ele>1738</ele>
        <time>2021-08-11T08:57:49.430Z</time>
      </trkpt>
      <trkpt lat="46.88554" lon="8.53906">
        <ele>1738</ele>
        <time>2021-08-11T08:57:50.430Z</time>
      </trkpt>
      <trkpt lat="46.88554" lon="8.53905">
        <ele>1738</ele>
        <time>2021-08-11T08:57:51.431Z</time>
      </trkpt>
      <trkpt lat="46.88554" lon="8.53905">
        <ele>1738</ele>
        <time>2021-08-11T08:57:52.431Z</time>
      </trkpt>
      <trkpt lat="46.88555" lon="8.53905">
        <ele>1738</ele>
        <time>2021-08-11T08:57:53.431Z</time>
      </trkpt>
      <trkpt lat="46.88556" lon="8.53904">
        <ele>1738</ele>
        <time>2021-08-11T08:57:54.431Z</time>
      </trkpt>
      <trkpt lat="46.88556" lon="8.53904">
        <ele>1738</ele>
        <time>2021-08-11T08:57:55.431Z</time>
      </trkpt>
      <trkpt lat="46.88557" lon="8.53904">
        <ele>1737</ele>
        <time>2021-08-11T08:57:56.431Z</time>
      </trkpt>
      <trkpt lat="46.88557" lon="8.53903">
        <ele>1737</ele>
        <time>2021-08-11T08:57:57.431Z</time>
      </trkpt>
      <trkpt lat="46.88558" lon="8.53901">
        <ele>1737</ele>
        <time>2021-08-11T08:57:58.430Z</time>
      </trkpt>
      <trkpt lat="46.88559" lon="8.53901">
        <ele>1736</ele>
        <time>2021-08-11T08:57:59.431Z</time>
      </trkpt>
      <trkpt lat="46.88559" lon="8.539">
        <ele>1736</ele>
        <time>2021-08-11T08:58:00.431Z</time>
      </trkpt>
      <trkpt lat="46.88559" lon="8.53899">
        <ele>1737</ele>
        <time>2021-08-11T08:58:01.431Z</time>
      </trkpt>
      <trkpt lat="46.8856" lon="8.53899">
        <ele>1737</ele>
        <time>2021-08-11T08:58:02.430Z</time>
      </trkpt>
      <trkpt lat="46.88561" lon="8.53898">
        <ele>1737</ele>
        <time>2021-08-11T08:58:03.431Z</time>
      </trkpt>
      <trkpt lat="46.88562" lon="8.53897">
        <ele>1737</ele>
        <time>2021-08-11T08:58:04.430Z</time>
      </trkpt>
      <trkpt lat="46.88562" lon="8.53897">
        <ele>1737</ele>
        <time>2021-08-11T08:58:05.430Z</time>
      </trkpt>
      <trkpt lat="46.88563" lon="8.53897">
        <ele>1737</ele>
        <time>2021-08-11T08:58:06.431Z</time>
      </trkpt>
      <trkpt lat="46.88563" lon="8.53896">
        <ele>1738</ele>
        <time>2021-08-11T08:58:07.431Z</time>
      </trkpt>
      <trkpt lat="46.88563" lon="8.53896">
        <ele>1738</ele>
        <time>2021-08-11T08:58:08.431Z</time>
      </trkpt>
      <trkpt lat="46.88563" lon="8.53895">
        <ele>1738</ele>
        <time>2021-08-11T08:58:09.430Z</time>
      </trkpt>
      <trkpt lat="46.88563" lon="8.53894">
        <ele>1738</ele>
        <time>2021-08-11T08:58:10.430Z</time>
      </trkpt>
      <trkpt lat="46.88563" lon="8.53893">
        <ele>1738</ele>
        <time>2021-08-11T08:58:11.431Z</time>
      </trkpt>
      <trkpt lat="46.88563" lon="8.53892">
        <ele>1737</ele>
        <time>2021-08-11T08:58:12.430Z</time>
      </trkpt>
      <trkpt lat="46.88564" lon="8.53892">
        <ele>1737</ele>
        <time>2021-08-11T08:58:13.430Z</time>
      </trkpt>
      <trkpt lat="46.88564" lon="8.53891">
        <ele>1736</ele>
        <time>2021-08-11T08:58:14.431Z</time>
      </trkpt>
      <trkpt lat="46.88565" lon="8.5389">
        <ele>1736</ele>
        <time>2021-08-11T08:58:15.431Z</time>
      </trkpt>
      <trkpt lat="46.88565" lon="8.53889">
        <ele>1736</ele>
        <time>2021-08-11T08:58:16.430Z</time>
      </trkpt>
      <trkpt lat="46.88565" lon="8.53888">
        <ele>1736</ele>
        <time>2021-08-11T08:58:17.431Z</time>
      </trkpt>
      <trkpt lat="46.88566" lon="8.53887">
        <ele>1737</ele>
        <time>2021-08-11T08:58:18.430Z</time>
      </trkpt>
      <trkpt lat="46.88565" lon="8.53886">
        <ele>1741</ele>
        <time>2021-08-11T08:58:19.430Z</time>
      </trkpt>
      <trkpt lat="46.88563" lon="8.53886">
        <ele>1738</ele>
        <time>2021-08-11T08:58:20.431Z</time>
      </trkpt>
      <trkpt lat="46.88563" lon="8.53885">
        <ele>1738</ele>
        <time>2021-08-11T08:58:21.431Z</time>
      </trkpt>
      <trkpt lat="46.88564" lon="8.53883">
        <ele>1738</ele>
        <time>2021-08-11T08:58:22.430Z</time>
      </trkpt>
      <trkpt lat="46.88564" lon="8.53883">
        <ele>1738</ele>
        <time>2021-08-11T08:58:23.430Z</time>
      </trkpt>
      <trkpt lat="46.88565" lon="8.53882">
        <ele>1738</ele>
        <time>2021-08-11T08:58:24.430Z</time>
      </trkpt>
      <trkpt lat="46.88565" lon="8.53882">
        <ele>1738</ele>
        <time>2021-08-11T08:58:25.431Z</time>
      </trkpt>
      <trkpt lat="46.88565" lon="8.53881">
        <ele>1738</ele>
        <time>2021-08-11T08:58:26.430Z</time>
      </trkpt>
      <trkpt lat="46.88566" lon="8.5388">
        <ele>1737</ele>
        <time>2021-08-11T08:58:27.431Z</time>
      </trkpt>
      <trkpt lat="46.88566" lon="8.5388">
        <ele>1737</ele>
        <time>2021-08-11T08:58:28.431Z</time>
      </trkpt>
      <trkpt lat="46.88567" lon="8.53879">
        <ele>1737</ele>
        <time>2021-08-11T08:58:29.431Z</time>
      </trkpt>
      <trkpt lat="46.88567" lon="8.53878">
        <ele>1736</ele>
        <time>2021-08-11T08:58:30.431Z</time>
      </trkpt>
      <trkpt lat="46.88567" lon="8.53878">
        <ele>1736</ele>
        <time>2021-08-11T08:58:31.430Z</time>
      </trkpt>
      <trkpt lat="46.88568" lon="8.53878">
        <ele>1736</ele>
        <time>2021-08-11T08:58:32.430Z</time>
      </trkpt>
      <trkpt lat="46.88568" lon="8.53877">
        <ele>1736</ele>
        <time>2021-08-11T08:58:33.431Z</time>
      </trkpt>
      <trkpt lat="46.88568" lon="8.53877">
        <ele>1735</ele>
        <time>2021-08-11T08:58:34.431Z</time>
      </trkpt>
      <trkpt lat="46.88568" lon="8.53876">
        <ele>1735</ele>
        <time>2021-08-11T08:58:35.431Z</time>
      </trkpt>
      <trkpt lat="46.88568" lon="8.53876">
        <ele>1734</ele>
        <time>2021-08-11T08:58:36.431Z</time>
      </trkpt>
      <trkpt lat="46.88568" lon="8.53875">
        <ele>1734</ele>
        <time>2021-08-11T08:58:37.430Z</time>
      </trkpt>
      <trkpt lat="46.88567" lon="8.53875">
        <ele>1734</ele>
        <time>2021-08-11T08:58:38.431Z</time>
      </trkpt>
      <trkpt lat="46.88568" lon="8.53873">
        <ele>1734</ele>
        <time>2021-08-11T08:58:39.431Z</time>
      </trkpt>
      <trkpt lat="46.88568" lon="8.53873">
        <ele>1734</ele>
        <time>2021-08-11T08:58:40.431Z</time>
      </trkpt>
      <trkpt lat="46.88568" lon="8.53872">
        <ele>1734</ele>
        <time>2021-08-11T08:58:41.431Z</time>
      </trkpt>
      <trkpt lat="46.88568" lon="8.53871">
        <ele>1734</ele>
        <time>2021-08-11T08:58:42.430Z</time>
      </trkpt>
      <trkpt lat="46.88568" lon="8.5387">
        <ele>1734</ele>
        <time>2021-08-11T08:58:43.430Z</time>
      </trkpt>
      <trkpt lat="46.88569" lon="8.53869">
        <ele>1733</ele>
        <time>2021-08-11T08:58:44.431Z</time>
      </trkpt>
      <trkpt lat="46.8857" lon="8.53868">
        <ele>1733</ele>
        <time>2021-08-11T08:58:45.431Z</time>
      </trkpt>
      <trkpt lat="46.88571" lon="8.53868">
        <ele>1733</ele>
        <time>2021-08-11T08:58:46.431Z</time>
      </trkpt>
      <trkpt lat="46.88572" lon="8.53868">
        <ele>1733</ele>
        <time>2021-08-11T08:58:47.431Z</time>
      </trkpt>
      <trkpt lat="46.88571" lon="8.53867">
        <ele>1733</ele>
        <time>2021-08-11T08:58:48.430Z</time>
      </trkpt>
      <trkpt lat="46.88571" lon="8.53866">
        <ele>1734</ele>
        <time>2021-08-11T08:58:49.431Z</time>
      </trkpt>
      <trkpt lat="46.88571" lon="8.53865">
        <ele>1734</ele>
        <time>2021-08-11T08:58:50.431Z</time>
      </trkpt>
      <trkpt lat="46.88572" lon="8.53865">
        <ele>1734</ele>
        <time>2021-08-11T08:58:51.431Z</time>
      </trkpt>
      <trkpt lat="46.88572" lon="8.53865">
        <ele>1734</ele>
        <time>2021-08-11T08:58:52.431Z</time>
      </trkpt>
      <trkpt lat="46.88573" lon="8.53865">
        <ele>1734</ele>
        <time>2021-08-11T08:58:53.430Z</time>
      </trkpt>
      <trkpt lat="46.88574" lon="8.53864">
        <ele>1733</ele>
        <time>2021-08-11T08:58:54.430Z</time>
      </trkpt>
      <trkpt lat="46.88574" lon="8.53863">
        <ele>1733</ele>
        <time>2021-08-11T08:58:55.431Z</time>
      </trkpt>
      <trkpt lat="46.88574" lon="8.53859">
        <ele>1729</ele>
        <time>2021-08-11T08:58:56.431Z</time>
      </trkpt>
      <trkpt lat="46.88575" lon="8.53859">
        <ele>1729</ele>
        <time>2021-08-11T08:58:57.431Z</time>
      </trkpt>
      <trkpt lat="46.88575" lon="8.53858">
        <ele>1729</ele>
        <time>2021-08-11T08:58:58.430Z</time>
      </trkpt>
      <trkpt lat="46.88576" lon="8.53858">
        <ele>1729</ele>
        <time>2021-08-11T08:58:59.430Z</time>
      </trkpt>
      <trkpt lat="46.88577" lon="8.53858">
        <ele>1729</ele>
        <time>2021-08-11T08:59:00.431Z</time>
      </trkpt>
      <trkpt lat="46.88577" lon="8.53858">
        <ele>1729</ele>
        <time>2021-08-11T08:59:01.430Z</time>
      </trkpt>
      <trkpt lat="46.88577" lon="8.53857">
        <ele>1730</ele>
        <time>2021-08-11T08:59:02.431Z</time>
      </trkpt>
      <trkpt lat="46.88578" lon="8.53857">
        <ele>1730</ele>
        <time>2021-08-11T08:59:03.431Z</time>
      </trkpt>
      <trkpt lat="46.88578" lon="8.53857">
        <ele>1731</ele>
        <time>2021-08-11T08:59:04.431Z</time>
      </trkpt>
      <trkpt lat="46.88579" lon="8.53856">
        <ele>1732</ele>
        <time>2021-08-11T08:59:05.431Z</time>
      </trkpt>
      <trkpt lat="46.8858" lon="8.53856">
        <ele>1733</ele>
        <time>2021-08-11T08:59:06.431Z</time>
      </trkpt>
      <trkpt lat="46.88581" lon="8.53856">
        <ele>1733</ele>
        <time>2021-08-11T08:59:07.431Z</time>
      </trkpt>
      <trkpt lat="46.88582" lon="8.53855">
        <ele>1734</ele>
        <time>2021-08-11T08:59:08.430Z</time>
      </trkpt>
      <trkpt lat="46.88582" lon="8.53855">
        <ele>1735</ele>
        <time>2021-08-11T08:59:09.431Z</time>
      </trkpt>
      <trkpt lat="46.88583" lon="8.53854">
        <ele>1735</ele>
        <time>2021-08-11T08:59:10.431Z</time>
      </trkpt>
      <trkpt lat="46.88584" lon="8.53854">
        <ele>1736</ele>
        <time>2021-08-11T08:59:11.430Z</time>
      </trkpt>
      <trkpt lat="46.88584" lon="8.53854">
        <ele>1736</ele>
        <time>2021-08-11T08:59:12.431Z</time>
      </trkpt>
      <trkpt lat="46.88585" lon="8.53854">
        <ele>1737</ele>
        <time>2021-08-11T08:59:13.431Z</time>
      </trkpt>
      <trkpt lat="46.88585" lon="8.53853">
        <ele>1737</ele>
        <time>2021-08-11T08:59:14.431Z</time>
      </trkpt>
      <trkpt lat="46.88586" lon="8.53853">
        <ele>1738</ele>
        <time>2021-08-11T08:59:15.431Z</time>
      </trkpt>
      <trkpt lat="46.88587" lon="8.53853">
        <ele>1738</ele>
        <time>2021-08-11T08:59:16.431Z</time>
      </trkpt>
      <trkpt lat="46.88588" lon="8.53853">
        <ele>1739</ele>
        <time>2021-08-11T08:59:17.430Z</time>
      </trkpt>
      <trkpt lat="46.8859" lon="8.53853">
        <ele>1740</ele>
        <time>2021-08-11T08:59:18.431Z</time>
      </trkpt>
      <trkpt lat="46.88591" lon="8.53852">
        <ele>1740</ele>
        <time>2021-08-11T08:59:19.431Z</time>
      </trkpt>
      <trkpt lat="46.88591" lon="8.53851">
        <ele>1741</ele>
        <time>2021-08-11T08:59:20.430Z</time>
      </trkpt>
      <trkpt lat="46.88592" lon="8.5385">
        <ele>1741</ele>
        <time>2021-08-11T08:59:21.431Z</time>
      </trkpt>
      <trkpt lat="46.88593" lon="8.53849">
        <ele>1742</ele>
        <time>2021-08-11T08:59:22.431Z</time>
      </trkpt>
      <trkpt lat="46.88594" lon="8.53848">
        <ele>1742</ele>
        <time>2021-08-11T08:59:23.431Z</time>
      </trkpt>
      <trkpt lat="46.88594" lon="8.53848">
        <ele>1743</ele>
        <time>2021-08-11T08:59:24.430Z</time>
      </trkpt>
      <trkpt lat="46.88595" lon="8.53847">
        <ele>1743</ele>
        <time>2021-08-11T08:59:25.431Z</time>
      </trkpt>
      <trkpt lat="46.88595" lon="8.53846">
        <ele>1743</ele>
        <time>2021-08-11T08:59:26.431Z</time>
      </trkpt>
      <trkpt lat="46.88596" lon="8.53845">
        <ele>1743</ele>
        <time>2021-08-11T08:59:27.430Z</time>
      </trkpt>
      <trkpt lat="46.88597" lon="8.53844">
        <ele>1743</ele>
        <time>2021-08-11T08:59:28.431Z</time>
      </trkpt>
      <trkpt lat="46.88597" lon="8.53844">
        <ele>1743</ele>
        <time>2021-08-11T08:59:29.431Z</time>
      </trkpt>
      <trkpt lat="46.88598" lon="8.53843">
        <ele>1743</ele>
        <time>2021-08-11T08:59:30.430Z</time>
      </trkpt>
      <trkpt lat="46.88599" lon="8.53843">
        <ele>1743</ele>
        <time>2021-08-11T08:59:31.431Z</time>
      </trkpt>
      <trkpt lat="46.88599" lon="8.53843">
        <ele>1743</ele>
        <time>2021-08-11T08:59:32.431Z</time>
      </trkpt>
      <trkpt lat="46.886" lon="8.53843">
        <ele>1742</ele>
        <time>2021-08-11T08:59:33.431Z</time>
      </trkpt>
      <trkpt lat="46.886" lon="8.53843">
        <ele>1743</ele>
        <time>2021-08-11T08:59:34.430Z</time>
      </trkpt>
      <trkpt lat="46.88601" lon="8.53843">
        <ele>1743</ele>
        <time>2021-08-11T08:59:35.431Z</time>
      </trkpt>
      <trkpt lat="46.88601" lon="8.53844">
        <ele>1743</ele>
        <time>2021-08-11T08:59:36.431Z</time>
      </trkpt>
      <trkpt lat="46.88601" lon="8.53843">
        <ele>1744</ele>
        <time>2021-08-11T08:59:37.430Z</time>
      </trkpt>
      <trkpt lat="46.88601" lon="8.53843">
        <ele>1744</ele>
        <time>2021-08-11T08:59:38.431Z</time>
      </trkpt>
      <trkpt lat="46.88602" lon="8.53843">
        <ele>1744</ele>
        <time>2021-08-11T08:59:39.431Z</time>
      </trkpt>
      <trkpt lat="46.88602" lon="8.53843">
        <ele>1744</ele>
        <time>2021-08-11T08:59:40.430Z</time>
      </trkpt>
      <trkpt lat="46.88603" lon="8.53842">
        <ele>1744</ele>
        <time>2021-08-11T08:59:41.431Z</time>
      </trkpt>
      <trkpt lat="46.88603" lon="8.53842">
        <ele>1743</ele>
        <time>2021-08-11T08:59:42.431Z</time>
      </trkpt>
      <trkpt lat="46.88603" lon="8.53842">
        <ele>1743</ele>
        <time>2021-08-11T08:59:43.430Z</time>
      </trkpt>
      <trkpt lat="46.88601" lon="8.53843">
        <ele>1744</ele>
        <time>2021-08-11T08:59:44.430Z</time>
      </trkpt>
      <trkpt lat="46.88602" lon="8.53843">
        <ele>1745</ele>
        <time>2021-08-11T08:59:45.430Z</time>
      </trkpt>
      <trkpt lat="46.88602" lon="8.53842">
        <ele>1746</ele>
        <time>2021-08-11T08:59:46.430Z</time>
      </trkpt>
      <trkpt lat="46.88603" lon="8.53841">
        <ele>1747</ele>
        <time>2021-08-11T08:59:47.430Z</time>
      </trkpt>
      <trkpt lat="46.88603" lon="8.53841">
        <ele>1747</ele>
        <time>2021-08-11T08:59:48.431Z</time>
      </trkpt>
      <trkpt lat="46.88603" lon="8.53841">
        <ele>1747</ele>
        <time>2021-08-11T08:59:49.431Z</time>
      </trkpt>
      <trkpt lat="46.88604" lon="8.5384">
        <ele>1747</ele>
        <time>2021-08-11T08:59:50.430Z</time>
      </trkpt>
      <trkpt lat="46.88604" lon="8.5384">
        <ele>1747</ele>
        <time>2021-08-11T08:59:51.431Z</time>
      </trkpt>
      <trkpt lat="46.88604" lon="8.53838">
        <ele>1747</ele>
        <time>2021-08-11T08:59:52.431Z</time>
      </trkpt>
      <trkpt lat="46.88604" lon="8.53838">
        <ele>1747</ele>
        <time>2021-08-11T08:59:53.430Z</time>
      </trkpt>
      <trkpt lat="46.88604" lon="8.53837">
        <ele>1746</ele>
        <time>2021-08-11T08:59:54.431Z</time>
      </trkpt>
      <trkpt lat="46.88605" lon="8.53837">
        <ele>1746</ele>
        <time>2021-08-11T08:59:55.431Z</time>
      </trkpt>
      <trkpt lat="46.88605" lon="8.53836">
        <ele>1746</ele>
        <time>2021-08-11T08:59:56.430Z</time>
      </trkpt>
      <trkpt lat="46.88606" lon="8.53836">
        <ele>1746</ele>
        <time>2021-08-11T08:59:57.431Z</time>
      </trkpt>
      <trkpt lat="46.88606" lon="8.53835">
        <ele>1746</ele>
        <time>2021-08-11T08:59:58.431Z</time>
      </trkpt>
      <trkpt lat="46.88607" lon="8.53835">
        <ele>1747</ele>
        <time>2021-08-11T08:59:59.430Z</time>
      </trkpt>
      <trkpt lat="46.88607" lon="8.53834">
        <ele>1747</ele>
        <time>2021-08-11T09:00:00.431Z</time>
      </trkpt>
      <trkpt lat="46.88608" lon="8.53834">
        <ele>1747</ele>
        <time>2021-08-11T09:00:01.430Z</time>
      </trkpt>
      <trkpt lat="46.88608" lon="8.53834">
        <ele>1748</ele>
        <time>2021-08-11T09:00:02.430Z</time>
      </trkpt>
      <trkpt lat="46.88609" lon="8.53833">
        <ele>1748</ele>
        <time>2021-08-11T09:00:03.431Z</time>
      </trkpt>
      <trkpt lat="46.88609" lon="8.53832">
        <ele>1749</ele>
        <time>2021-08-11T09:00:04.431Z</time>
      </trkpt>
      <trkpt lat="46.8861" lon="8.53831">
        <ele>1749</ele>
        <time>2021-08-11T09:00:05.430Z</time>
      </trkpt>
      <trkpt lat="46.8861" lon="8.53829">
        <ele>1749</ele>
        <time>2021-08-11T09:00:06.431Z</time>
      </trkpt>
      <trkpt lat="46.88611" lon="8.53829">
        <ele>1749</ele>
        <time>2021-08-11T09:00:07.431Z</time>
      </trkpt>
      <trkpt lat="46.88611" lon="8.53828">
        <ele>1749</ele>
        <time>2021-08-11T09:00:08.431Z</time>
      </trkpt>
      <trkpt lat="46.88612" lon="8.53827">
        <ele>1750</ele>
        <time>2021-08-11T09:00:09.430Z</time>
      </trkpt>
      <trkpt lat="46.88612" lon="8.53827">
        <ele>1750</ele>
        <time>2021-08-11T09:00:10.431Z</time>
      </trkpt>
      <trkpt lat="46.88613" lon="8.53827">
        <ele>1751</ele>
        <time>2021-08-11T09:00:11.430Z</time>
      </trkpt>
      <trkpt lat="46.88614" lon="8.53827">
        <ele>1751</ele>
        <time>2021-08-11T09:00:12.431Z</time>
      </trkpt>
      <trkpt lat="46.88614" lon="8.53826">
        <ele>1752</ele>
        <time>2021-08-11T09:00:13.430Z</time>
      </trkpt>
      <trkpt lat="46.88615" lon="8.53825">
        <ele>1752</ele>
        <time>2021-08-11T09:00:14.430Z</time>
      </trkpt>
      <trkpt lat="46.88615" lon="8.53825">
        <ele>1752</ele>
        <time>2021-08-11T09:00:15.430Z</time>
      </trkpt>
      <trkpt lat="46.88616" lon="8.53825">
        <ele>1752</ele>
        <time>2021-08-11T09:00:16.431Z</time>
      </trkpt>
      <trkpt lat="46.88616" lon="8.53825">
        <ele>1753</ele>
        <time>2021-08-11T09:00:17.431Z</time>
      </trkpt>
      <trkpt lat="46.88617" lon="8.53825">
        <ele>1754</ele>
        <time>2021-08-11T09:00:18.431Z</time>
      </trkpt>
      <trkpt lat="46.88618" lon="8.53825">
        <ele>1754</ele>
        <time>2021-08-11T09:00:19.431Z</time>
      </trkpt>
      <trkpt lat="46.88619" lon="8.53824">
        <ele>1755</ele>
        <time>2021-08-11T09:00:20.430Z</time>
      </trkpt>
      <trkpt lat="46.8862" lon="8.53824">
        <ele>1755</ele>
        <time>2021-08-11T09:00:21.431Z</time>
      </trkpt>
      <trkpt lat="46.8862" lon="8.53824">
        <ele>1756</ele>
        <time>2021-08-11T09:00:22.431Z</time>
      </trkpt>
      <trkpt lat="46.8862" lon="8.53824">
        <ele>1756</ele>
        <time>2021-08-11T09:00:23.430Z</time>
      </trkpt>
      <trkpt lat="46.88621" lon="8.53823">
        <ele>1757</ele>
        <time>2021-08-11T09:00:24.431Z</time>
      </trkpt>
      <trkpt lat="46.88621" lon="8.53822">
        <ele>1757</ele>
        <time>2021-08-11T09:00:25.431Z</time>
      </trkpt>
      <trkpt lat="46.88621" lon="8.53822">
        <ele>1756</ele>
        <time>2021-08-11T09:00:26.431Z</time>
      </trkpt>
      <trkpt lat="46.88621" lon="8.53821">
        <ele>1756</ele>
        <time>2021-08-11T09:00:27.431Z</time>
      </trkpt>
      <trkpt lat="46.88622" lon="8.5382">
        <ele>1756</ele>
        <time>2021-08-11T09:00:28.431Z</time>
      </trkpt>
      <trkpt lat="46.88623" lon="8.53819">
        <ele>1755</ele>
        <time>2021-08-11T09:00:29.431Z</time>
      </trkpt>
      <trkpt lat="46.88624" lon="8.53818">
        <ele>1755</ele>
        <time>2021-08-11T09:00:30.431Z</time>
      </trkpt>
      <trkpt lat="46.88624" lon="8.53818">
        <ele>1754</ele>
        <time>2021-08-11T09:00:31.431Z</time>
      </trkpt>
      <trkpt lat="46.88624" lon="8.53818">
        <ele>1754</ele>
        <time>2021-08-11T09:00:32.431Z</time>
      </trkpt>
      <trkpt lat="46.88625" lon="8.53817">
        <ele>1754</ele>
        <time>2021-08-11T09:00:33.431Z</time>
      </trkpt>
      <trkpt lat="46.88625" lon="8.53817">
        <ele>1753</ele>
        <time>2021-08-11T09:00:34.430Z</time>
      </trkpt>
      <trkpt lat="46.88625" lon="8.53817">
        <ele>1753</ele>
        <time>2021-08-11T09:00:35.431Z</time>
      </trkpt>
      <trkpt lat="46.88625" lon="8.53818">
        <ele>1753</ele>
        <time>2021-08-11T09:00:36.430Z</time>
      </trkpt>
      <trkpt lat="46.88626" lon="8.53816">
        <ele>1754</ele>
        <time>2021-08-11T09:00:37.432Z</time>
      </trkpt>
      <trkpt lat="46.88626" lon="8.53815">
        <ele>1754</ele>
        <time>2021-08-11T09:00:38.432Z</time>
      </trkpt>
      <trkpt lat="46.88626" lon="8.53815">
        <ele>1754</ele>
        <time>2021-08-11T09:00:39.431Z</time>
      </trkpt>
      <trkpt lat="46.88626" lon="8.53816">
        <ele>1755</ele>
        <time>2021-08-11T09:00:40.432Z</time>
      </trkpt>
      <trkpt lat="46.88627" lon="8.53816">
        <ele>1755</ele>
        <time>2021-08-11T09:00:41.432Z</time>
      </trkpt>
      <trkpt lat="46.88628" lon="8.53815">
        <ele>1755</ele>
        <time>2021-08-11T09:00:42.433Z</time>
      </trkpt>
      <trkpt lat="46.88629" lon="8.53815">
        <ele>1755</ele>
        <time>2021-08-11T09:00:43.432Z</time>
      </trkpt>
      <trkpt lat="46.88629" lon="8.53815">
        <ele>1755</ele>
        <time>2021-08-11T09:00:44.432Z</time>
      </trkpt>
      <trkpt lat="46.8863" lon="8.53815">
        <ele>1755</ele>
        <time>2021-08-11T09:00:45.433Z</time>
      </trkpt>
      <trkpt lat="46.8863" lon="8.53815">
        <ele>1755</ele>
        <time>2021-08-11T09:00:46.433Z</time>
      </trkpt>
      <trkpt lat="46.8863" lon="8.53814">
        <ele>1755</ele>
        <time>2021-08-11T09:00:47.432Z</time>
      </trkpt>
      <trkpt lat="46.8863" lon="8.53813">
        <ele>1755</ele>
        <time>2021-08-11T09:00:48.433Z</time>
      </trkpt>
      <trkpt lat="46.8863" lon="8.53813">
        <ele>1754</ele>
        <time>2021-08-11T09:00:49.433Z</time>
      </trkpt>
      <trkpt lat="46.8863" lon="8.53812">
        <ele>1754</ele>
        <time>2021-08-11T09:00:50.432Z</time>
      </trkpt>
      <trkpt lat="46.88631" lon="8.53812">
        <ele>1754</ele>
        <time>2021-08-11T09:00:51.433Z</time>
      </trkpt>
      <trkpt lat="46.88631" lon="8.53812">
        <ele>1754</ele>
        <time>2021-08-11T09:00:52.433Z</time>
      </trkpt>
      <trkpt lat="46.88632" lon="8.53811">
        <ele>1754</ele>
        <time>2021-08-11T09:00:53.433Z</time>
      </trkpt>
      <trkpt lat="46.88632" lon="8.5381">
        <ele>1755</ele>
        <time>2021-08-11T09:00:54.432Z</time>
      </trkpt>
      <trkpt lat="46.88632" lon="8.5381">
        <ele>1755</ele>
        <time>2021-08-11T09:00:55.433Z</time>
      </trkpt>
      <trkpt lat="46.88632" lon="8.53811">
        <ele>1755</ele>
        <time>2021-08-11T09:00:56.433Z</time>
      </trkpt>
      <trkpt lat="46.88633" lon="8.53812">
        <ele>1756</ele>
        <time>2021-08-11T09:00:57.433Z</time>
      </trkpt>
      <trkpt lat="46.88633" lon="8.53812">
        <ele>1756</ele>
        <time>2021-08-11T09:00:58.432Z</time>
      </trkpt>
      <trkpt lat="46.88634" lon="8.53811">
        <ele>1761</ele>
        <time>2021-08-11T09:00:59.434Z</time>
      </trkpt>
      <trkpt lat="46.88634" lon="8.53812">
        <ele>1762</ele>
        <time>2021-08-11T09:01:00.434Z</time>
      </trkpt>
      <trkpt lat="46.88636" lon="8.5381">
        <ele>1763</ele>
        <time>2021-08-11T09:01:01.435Z</time>
      </trkpt>
      <trkpt lat="46.88636" lon="8.53809">
        <ele>1763</ele>
        <time>2021-08-11T09:01:02.434Z</time>
      </trkpt>
      <trkpt lat="46.88636" lon="8.53809">
        <ele>1762</ele>
        <time>2021-08-11T09:01:03.434Z</time>
      </trkpt>
      <trkpt lat="46.88636" lon="8.53809">
        <ele>1762</ele>
        <time>2021-08-11T09:01:04.434Z</time>
      </trkpt>
      <trkpt lat="46.88637" lon="8.53808">
        <ele>1762</ele>
        <time>2021-08-11T09:01:05.434Z</time>
      </trkpt>
      <trkpt lat="46.88637" lon="8.53806">
        <ele>1763</ele>
        <time>2021-08-11T09:01:06.435Z</time>
      </trkpt>
      <trkpt lat="46.88639" lon="8.53807">
        <ele>1764</ele>
        <time>2021-08-11T09:01:07.434Z</time>
      </trkpt>
      <trkpt lat="46.88639" lon="8.53807">
        <ele>1763</ele>
        <time>2021-08-11T09:01:08.435Z</time>
      </trkpt>
      <trkpt lat="46.88639" lon="8.53807">
        <ele>1763</ele>
        <time>2021-08-11T09:01:09.434Z</time>
      </trkpt>
      <trkpt lat="46.88639" lon="8.53807">
        <ele>1763</ele>
        <time>2021-08-11T09:01:10.434Z</time>
      </trkpt>
      <trkpt lat="46.8864" lon="8.53807">
        <ele>1763</ele>
        <time>2021-08-11T09:01:11.435Z</time>
      </trkpt>
      <trkpt lat="46.8864" lon="8.53807">
        <ele>1763</ele>
        <time>2021-08-11T09:01:12.435Z</time>
      </trkpt>
      <trkpt lat="46.88641" lon="8.53807">
        <ele>1763</ele>
        <time>2021-08-11T09:01:13.434Z</time>
      </trkpt>
      <trkpt lat="46.88642" lon="8.53807">
        <ele>1764</ele>
        <time>2021-08-11T09:01:14.435Z</time>
      </trkpt>
      <trkpt lat="46.88642" lon="8.53807">
        <ele>1764</ele>
        <time>2021-08-11T09:01:15.435Z</time>
      </trkpt>
      <trkpt lat="46.88643" lon="8.53806">
        <ele>1764</ele>
        <time>2021-08-11T09:01:16.435Z</time>
      </trkpt>
      <trkpt lat="46.88644" lon="8.53806">
        <ele>1764</ele>
        <time>2021-08-11T09:01:17.435Z</time>
      </trkpt>
      <trkpt lat="46.88644" lon="8.53806">
        <ele>1764</ele>
        <time>2021-08-11T09:01:18.435Z</time>
      </trkpt>
      <trkpt lat="46.88645" lon="8.53806">
        <ele>1764</ele>
        <time>2021-08-11T09:01:19.435Z</time>
      </trkpt>
      <trkpt lat="46.88646" lon="8.53806">
        <ele>1764</ele>
        <time>2021-08-11T09:01:20.434Z</time>
      </trkpt>
      <trkpt lat="46.88646" lon="8.53806">
        <ele>1764</ele>
        <time>2021-08-11T09:01:21.435Z</time>
      </trkpt>
      <trkpt lat="46.88647" lon="8.53805">
        <ele>1763</ele>
        <time>2021-08-11T09:01:22.435Z</time>
      </trkpt>
      <trkpt lat="46.88647" lon="8.53805">
        <ele>1763</ele>
        <time>2021-08-11T09:01:23.434Z</time>
      </trkpt>
      <trkpt lat="46.88648" lon="8.53804">
        <ele>1763</ele>
        <time>2021-08-11T09:01:24.434Z</time>
      </trkpt>
      <trkpt lat="46.88648" lon="8.53804">
        <ele>1763</ele>
        <time>2021-08-11T09:01:25.435Z</time>
      </trkpt>
      <trkpt lat="46.88648" lon="8.53803">
        <ele>1762</ele>
        <time>2021-08-11T09:01:26.434Z</time>
      </trkpt>
      <trkpt lat="46.88649" lon="8.53803">
        <ele>1762</ele>
        <time>2021-08-11T09:01:27.435Z</time>
      </trkpt>
      <trkpt lat="46.88649" lon="8.53803">
        <ele>1762</ele>
        <time>2021-08-11T09:01:28.435Z</time>
      </trkpt>
      <trkpt lat="46.8865" lon="8.53802">
        <ele>1762</ele>
        <time>2021-08-11T09:01:29.434Z</time>
      </trkpt>
      <trkpt lat="46.8865" lon="8.53802">
        <ele>1762</ele>
        <time>2021-08-11T09:01:30.435Z</time>
      </trkpt>
      <trkpt lat="46.88651" lon="8.53802">
        <ele>1762</ele>
        <time>2021-08-11T09:01:31.435Z</time>
      </trkpt>
      <trkpt lat="46.88651" lon="8.53802">
        <ele>1761</ele>
        <time>2021-08-11T09:01:32.434Z</time>
      </trkpt>
      <trkpt lat="46.88652" lon="8.53802">
        <ele>1761</ele>
        <time>2021-08-11T09:01:33.435Z</time>
      </trkpt>
      <trkpt lat="46.88652" lon="8.53801">
        <ele>1762</ele>
        <time>2021-08-11T09:01:34.435Z</time>
      </trkpt>
      <trkpt lat="46.88652" lon="8.53801">
        <ele>1762</ele>
        <time>2021-08-11T09:01:35.434Z</time>
      </trkpt>
      <trkpt lat="46.88653" lon="8.53801">
        <ele>1762</ele>
        <time>2021-08-11T09:01:36.434Z</time>
      </trkpt>
      <trkpt lat="46.88653" lon="8.538">
        <ele>1763</ele>
        <time>2021-08-11T09:01:37.434Z</time>
      </trkpt>
      <trkpt lat="46.88653" lon="8.538">
        <ele>1763</ele>
        <time>2021-08-11T09:01:38.435Z</time>
      </trkpt>
      <trkpt lat="46.88654" lon="8.53799">
        <ele>1765</ele>
        <time>2021-08-11T09:01:39.435Z</time>
      </trkpt>
      <trkpt lat="46.88654" lon="8.53798">
        <ele>1765</ele>
        <time>2021-08-11T09:01:40.435Z</time>
      </trkpt>
      <trkpt lat="46.88655" lon="8.53798">
        <ele>1764</ele>
        <time>2021-08-11T09:01:41.434Z</time>
      </trkpt>
      <trkpt lat="46.88655" lon="8.53798">
        <ele>1763</ele>
        <time>2021-08-11T09:01:42.435Z</time>
      </trkpt>
      <trkpt lat="46.88655" lon="8.53798">
        <ele>1763</ele>
        <time>2021-08-11T09:01:43.435Z</time>
      </trkpt>
      <trkpt lat="46.88655" lon="8.53798">
        <ele>1763</ele>
        <time>2021-08-11T09:01:44.435Z</time>
      </trkpt>
      <trkpt lat="46.88656" lon="8.53799">
        <ele>1762</ele>
        <time>2021-08-11T09:01:45.435Z</time>
      </trkpt>
      <trkpt lat="46.88656" lon="8.53799">
        <ele>1762</ele>
        <time>2021-08-11T09:01:46.434Z</time>
      </trkpt>
      <trkpt lat="46.88656" lon="8.538">
        <ele>1762</ele>
        <time>2021-08-11T09:01:47.435Z</time>
      </trkpt>
      <trkpt lat="46.88657" lon="8.53799">
        <ele>1761</ele>
        <time>2021-08-11T09:01:48.434Z</time>
      </trkpt>
      <trkpt lat="46.88658" lon="8.53798">
        <ele>1761</ele>
        <time>2021-08-11T09:01:49.435Z</time>
      </trkpt>
      <trkpt lat="46.88659" lon="8.53796">
        <ele>1761</ele>
        <time>2021-08-11T09:01:50.435Z</time>
      </trkpt>
      <trkpt lat="46.8866" lon="8.53795">
        <ele>1761</ele>
        <time>2021-08-11T09:01:51.434Z</time>
      </trkpt>
      <trkpt lat="46.8866" lon="8.53795">
        <ele>1761</ele>
        <time>2021-08-11T09:01:52.435Z</time>
      </trkpt>
      <trkpt lat="46.8866" lon="8.53795">
        <ele>1760</ele>
        <time>2021-08-11T09:01:53.435Z</time>
      </trkpt>
      <trkpt lat="46.88661" lon="8.53796">
        <ele>1760</ele>
        <time>2021-08-11T09:01:54.436Z</time>
      </trkpt>
      <trkpt lat="46.88662" lon="8.53796">
        <ele>1760</ele>
        <time>2021-08-11T09:01:55.435Z</time>
      </trkpt>
      <trkpt lat="46.88662" lon="8.53796">
        <ele>1760</ele>
        <time>2021-08-11T09:01:56.435Z</time>
      </trkpt>
      <trkpt lat="46.88663" lon="8.53796">
        <ele>1759</ele>
        <time>2021-08-11T09:01:57.436Z</time>
      </trkpt>
      <trkpt lat="46.88663" lon="8.53797">
        <ele>1759</ele>
        <time>2021-08-11T09:01:58.436Z</time>
      </trkpt>
      <trkpt lat="46.88663" lon="8.53797">
        <ele>1759</ele>
        <time>2021-08-11T09:01:59.435Z</time>
      </trkpt>
      <trkpt lat="46.88663" lon="8.53797">
        <ele>1760</ele>
        <time>2021-08-11T09:02:00.436Z</time>
      </trkpt>
      <trkpt lat="46.88663" lon="8.53797">
        <ele>1760</ele>
        <time>2021-08-11T09:02:01.436Z</time>
      </trkpt>
      <trkpt lat="46.88663" lon="8.53797">
        <ele>1760</ele>
        <time>2021-08-11T09:02:02.436Z</time>
      </trkpt>
      <trkpt lat="46.88664" lon="8.53796">
        <ele>1761</ele>
        <time>2021-08-11T09:02:03.436Z</time>
      </trkpt>
      <trkpt lat="46.88665" lon="8.53795">
        <ele>1761</ele>
        <time>2021-08-11T09:02:04.435Z</time>
      </trkpt>
      <trkpt lat="46.88665" lon="8.53795">
        <ele>1761</ele>
        <time>2021-08-11T09:02:05.436Z</time>
      </trkpt>
      <trkpt lat="46.88665" lon="8.53796">
        <ele>1761</ele>
        <time>2021-08-11T09:02:06.436Z</time>
      </trkpt>
      <trkpt lat="46.88665" lon="8.53796">
        <ele>1761</ele>
        <time>2021-08-11T09:02:07.436Z</time>
      </trkpt>
      <trkpt lat="46.88665" lon="8.53796">
        <ele>1761</ele>
        <time>2021-08-11T09:02:08.435Z</time>
      </trkpt>
      <trkpt lat="46.88666" lon="8.53797">
        <ele>1760</ele>
        <time>2021-08-11T09:02:09.436Z</time>
      </trkpt>
      <trkpt lat="46.88666" lon="8.53797">
        <ele>1760</ele>
        <time>2021-08-11T09:02:10.436Z</time>
      </trkpt>
      <trkpt lat="46.88667" lon="8.53796">
        <ele>1760</ele>
        <time>2021-08-11T09:02:11.435Z</time>
      </trkpt>
      <trkpt lat="46.88667" lon="8.53796">
        <ele>1761</ele>
        <time>2021-08-11T09:02:12.436Z</time>
      </trkpt>
      <trkpt lat="46.88666" lon="8.53794">
        <ele>1765</ele>
        <time>2021-08-11T09:02:13.436Z</time>
      </trkpt>
      <trkpt lat="46.88666" lon="8.53793">
        <ele>1766</ele>
        <time>2021-08-11T09:02:14.436Z</time>
      </trkpt>
      <trkpt lat="46.88665" lon="8.53792">
        <ele>1766</ele>
        <time>2021-08-11T09:02:15.435Z</time>
      </trkpt>
      <trkpt lat="46.88666" lon="8.53791">
        <ele>1766</ele>
        <time>2021-08-11T09:02:16.435Z</time>
      </trkpt>
      <trkpt lat="46.88666" lon="8.5379">
        <ele>1766</ele>
        <time>2021-08-11T09:02:17.435Z</time>
      </trkpt>
      <trkpt lat="46.88666" lon="8.5379">
        <ele>1766</ele>
        <time>2021-08-11T09:02:18.436Z</time>
      </trkpt>
      <trkpt lat="46.88666" lon="8.53789">
        <ele>1765</ele>
        <time>2021-08-11T09:02:19.436Z</time>
      </trkpt>
      <trkpt lat="46.88666" lon="8.53788">
        <ele>1765</ele>
        <time>2021-08-11T09:02:20.436Z</time>
      </trkpt>
      <trkpt lat="46.88665" lon="8.53788">
        <ele>1765</ele>
        <time>2021-08-11T09:02:21.435Z</time>
      </trkpt>
      <trkpt lat="46.88665" lon="8.53788">
        <ele>1765</ele>
        <time>2021-08-11T09:02:22.435Z</time>
      </trkpt>
      <trkpt lat="46.88666" lon="8.5379">
        <ele>1767</ele>
        <time>2021-08-11T09:02:23.437Z</time>
      </trkpt>
      <trkpt lat="46.88666" lon="8.5379">
        <ele>1767</ele>
        <time>2021-08-11T09:02:24.436Z</time>
      </trkpt>
      <trkpt lat="46.88665" lon="8.5379">
        <ele>1767</ele>
        <time>2021-08-11T09:02:25.436Z</time>
      </trkpt>
      <trkpt lat="46.88665" lon="8.5379">
        <ele>1767</ele>
        <time>2021-08-11T09:02:26.436Z</time>
      </trkpt>
      <trkpt lat="46.88664" lon="8.53789">
        <ele>1766</ele>
        <time>2021-08-11T09:02:27.438Z</time>
      </trkpt>
      <trkpt lat="46.88663" lon="8.53789">
        <ele>1766</ele>
        <time>2021-08-11T09:02:28.437Z</time>
      </trkpt>
      <trkpt lat="46.88663" lon="8.53788">
        <ele>1766</ele>
        <time>2021-08-11T09:02:29.437Z</time>
      </trkpt>
      <trkpt lat="46.88662" lon="8.53788">
        <ele>1766</ele>
        <time>2021-08-11T09:02:30.437Z</time>
      </trkpt>
      <trkpt lat="46.88662" lon="8.53788">
        <ele>1766</ele>
        <time>2021-08-11T09:02:31.438Z</time>
      </trkpt>
      <trkpt lat="46.88662" lon="8.53788">
        <ele>1766</ele>
        <time>2021-08-11T09:02:32.438Z</time>
      </trkpt>
      <trkpt lat="46.88662" lon="8.53787">
        <ele>1766</ele>
        <time>2021-08-11T09:02:33.437Z</time>
      </trkpt>
      <trkpt lat="46.88662" lon="8.53786">
        <ele>1767</ele>
        <time>2021-08-11T09:02:34.438Z</time>
      </trkpt>
      <trkpt lat="46.88662" lon="8.53785">
        <ele>1767</ele>
        <time>2021-08-11T09:02:35.438Z</time>
      </trkpt>
      <trkpt lat="46.88661" lon="8.53785">
        <ele>1767</ele>
        <time>2021-08-11T09:02:36.437Z</time>
      </trkpt>
      <trkpt lat="46.88661" lon="8.53785">
        <ele>1767</ele>
        <time>2021-08-11T09:02:37.438Z</time>
      </trkpt>
      <trkpt lat="46.88661" lon="8.53784">
        <ele>1767</ele>
        <time>2021-08-11T09:02:38.437Z</time>
      </trkpt>
      <trkpt lat="46.8866" lon="8.53784">
        <ele>1767</ele>
        <time>2021-08-11T09:02:39.437Z</time>
      </trkpt>
      <trkpt lat="46.8866" lon="8.53783">
        <ele>1767</ele>
        <time>2021-08-11T09:02:40.438Z</time>
      </trkpt>
      <trkpt lat="46.8866" lon="8.53782">
        <ele>1767</ele>
        <time>2021-08-11T09:02:41.438Z</time>
      </trkpt>
      <trkpt lat="46.8866" lon="8.53782">
        <ele>1767</ele>
        <time>2021-08-11T09:02:42.438Z</time>
      </trkpt>
      <trkpt lat="46.8866" lon="8.53782">
        <ele>1767</ele>
        <time>2021-08-11T09:02:43.438Z</time>
      </trkpt>
      <trkpt lat="46.88659" lon="8.53781">
        <ele>1767</ele>
        <time>2021-08-11T09:02:44.438Z</time>
      </trkpt>
      <trkpt lat="46.88658" lon="8.53781">
        <ele>1774</ele>
        <time>2021-08-11T09:02:45.438Z</time>
      </trkpt>
      <trkpt lat="46.88658" lon="8.53782">
        <ele>1777</ele>
        <time>2021-08-11T09:02:46.437Z</time>
      </trkpt>
      <trkpt lat="46.88658" lon="8.53781">
        <ele>1778</ele>
        <time>2021-08-11T09:02:47.438Z</time>
      </trkpt>
      <trkpt lat="46.88656" lon="8.53779">
        <ele>1771</ele>
        <time>2021-08-11T09:02:48.438Z</time>
      </trkpt>
      <trkpt lat="46.88656" lon="8.53779">
        <ele>1771</ele>
        <time>2021-08-11T09:02:49.438Z</time>
      </trkpt>
      <trkpt lat="46.88656" lon="8.53776">
        <ele>1770</ele>
        <time>2021-08-11T09:02:50.437Z</time>
      </trkpt>
      <trkpt lat="46.88656" lon="8.53775">
        <ele>1770</ele>
        <time>2021-08-11T09:02:51.438Z</time>
      </trkpt>
      <trkpt lat="46.88655" lon="8.53775">
        <ele>1769</ele>
        <time>2021-08-11T09:02:52.437Z</time>
      </trkpt>
      <trkpt lat="46.88655" lon="8.53774">
        <ele>1769</ele>
        <time>2021-08-11T09:02:53.438Z</time>
      </trkpt>
      <trkpt lat="46.88654" lon="8.53774">
        <ele>1769</ele>
        <time>2021-08-11T09:02:54.437Z</time>
      </trkpt>
      <trkpt lat="46.88654" lon="8.53773">
        <ele>1770</ele>
        <time>2021-08-11T09:02:55.437Z</time>
      </trkpt>
      <trkpt lat="46.88654" lon="8.53772">
        <ele>1770</ele>
        <time>2021-08-11T09:02:56.438Z</time>
      </trkpt>
      <trkpt lat="46.88653" lon="8.53771">
        <ele>1770</ele>
        <time>2021-08-11T09:02:57.438Z</time>
      </trkpt>
      <trkpt lat="46.88653" lon="8.53771">
        <ele>1770</ele>
        <time>2021-08-11T09:02:58.438Z</time>
      </trkpt>
      <trkpt lat="46.88653" lon="8.5377">
        <ele>1771</ele>
        <time>2021-08-11T09:02:59.438Z</time>
      </trkpt>
      <trkpt lat="46.88652" lon="8.53771">
        <ele>1771</ele>
        <time>2021-08-11T09:03:00.437Z</time>
      </trkpt>
      <trkpt lat="46.88652" lon="8.5377">
        <ele>1771</ele>
        <time>2021-08-11T09:03:01.438Z</time>
      </trkpt>
      <trkpt lat="46.88651" lon="8.53771">
        <ele>1772</ele>
        <time>2021-08-11T09:03:02.438Z</time>
      </trkpt>
      <trkpt lat="46.88651" lon="8.5377">
        <ele>1772</ele>
        <time>2021-08-11T09:03:03.438Z</time>
      </trkpt>
      <trkpt lat="46.88651" lon="8.5377">
        <ele>1772</ele>
        <time>2021-08-11T09:03:04.438Z</time>
      </trkpt>
      <trkpt lat="46.88651" lon="8.53769">
        <ele>1772</ele>
        <time>2021-08-11T09:03:05.437Z</time>
      </trkpt>
      <trkpt lat="46.8865" lon="8.53768">
        <ele>1771</ele>
        <time>2021-08-11T09:03:06.438Z</time>
      </trkpt>
      <trkpt lat="46.8865" lon="8.53768">
        <ele>1771</ele>
        <time>2021-08-11T09:03:07.438Z</time>
      </trkpt>
      <trkpt lat="46.88649" lon="8.53767">
        <ele>1771</ele>
        <time>2021-08-11T09:03:08.438Z</time>
      </trkpt>
      <trkpt lat="46.88649" lon="8.53767">
        <ele>1771</ele>
        <time>2021-08-11T09:03:09.438Z</time>
      </trkpt>
      <trkpt lat="46.88649" lon="8.53768">
        <ele>1771</ele>
        <time>2021-08-11T09:03:10.438Z</time>
      </trkpt>
      <trkpt lat="46.88649" lon="8.53767">
        <ele>1772</ele>
        <time>2021-08-11T09:03:11.437Z</time>
      </trkpt>
      <trkpt lat="46.88648" lon="8.53767">
        <ele>1772</ele>
        <time>2021-08-11T09:03:12.438Z</time>
      </trkpt>
      <trkpt lat="46.88648" lon="8.53767">
        <ele>1772</ele>
        <time>2021-08-11T09:03:13.438Z</time>
      </trkpt>
      <trkpt lat="46.88648" lon="8.53767">
        <ele>1772</ele>
        <time>2021-08-11T09:03:14.438Z</time>
      </trkpt>
      <trkpt lat="46.88648" lon="8.53767">
        <ele>1772</ele>
        <time>2021-08-11T09:03:15.437Z</time>
      </trkpt>
      <trkpt lat="46.88647" lon="8.53767">
        <ele>1772</ele>
        <time>2021-08-11T09:03:16.438Z</time>
      </trkpt>
      <trkpt lat="46.88647" lon="8.53766">
        <ele>1773</ele>
        <time>2021-08-11T09:03:17.438Z</time>
      </trkpt>
      <trkpt lat="46.88647" lon="8.53766">
        <ele>1773</ele>
        <time>2021-08-11T09:03:18.437Z</time>
      </trkpt>
      <trkpt lat="46.88646" lon="8.53765">
        <ele>1773</ele>
        <time>2021-08-11T09:03:19.438Z</time>
      </trkpt>
      <trkpt lat="46.88646" lon="8.53765">
        <ele>1773</ele>
        <time>2021-08-11T09:03:20.437Z</time>
      </trkpt>
      <trkpt lat="46.88645" lon="8.53765">
        <ele>1773</ele>
        <time>2021-08-11T09:03:21.438Z</time>
      </trkpt>
      <trkpt lat="46.88644" lon="8.53765">
        <ele>1773</ele>
        <time>2021-08-11T09:03:22.438Z</time>
      </trkpt>
      <trkpt lat="46.88643" lon="8.53764">
        <ele>1773</ele>
        <time>2021-08-11T09:03:23.437Z</time>
      </trkpt>
      <trkpt lat="46.88643" lon="8.53764">
        <ele>1773</ele>
        <time>2021-08-11T09:03:24.437Z</time>
      </trkpt>
      <trkpt lat="46.88643" lon="8.53763">
        <ele>1774</ele>
        <time>2021-08-11T09:03:25.438Z</time>
      </trkpt>
      <trkpt lat="46.88643" lon="8.53762">
        <ele>1774</ele>
        <time>2021-08-11T09:03:26.438Z</time>
      </trkpt>
      <trkpt lat="46.88643" lon="8.53762">
        <ele>1775</ele>
        <time>2021-08-11T09:03:27.438Z</time>
      </trkpt>
      <trkpt lat="46.88643" lon="8.53761">
        <ele>1775</ele>
        <time>2021-08-11T09:03:28.437Z</time>
      </trkpt>
      <trkpt lat="46.88643" lon="8.53762">
        <ele>1776</ele>
        <time>2021-08-11T09:03:29.438Z</time>
      </trkpt>
      <trkpt lat="46.88643" lon="8.53761">
        <ele>1776</ele>
        <time>2021-08-11T09:03:30.438Z</time>
      </trkpt>
      <trkpt lat="46.88643" lon="8.53762">
        <ele>1776</ele>
        <time>2021-08-11T09:03:31.438Z</time>
      </trkpt>
      <trkpt lat="46.88644" lon="8.53766">
        <ele>1776</ele>
        <time>2021-08-11T09:03:32.439Z</time>
      </trkpt>
      <trkpt lat="46.88645" lon="8.53766">
        <ele>1775</ele>
        <time>2021-08-11T09:03:33.438Z</time>
      </trkpt>
      <trkpt lat="46.88645" lon="8.53766">
        <ele>1775</ele>
        <time>2021-08-11T09:03:34.438Z</time>
      </trkpt>
      <trkpt lat="46.88644" lon="8.53763">
        <ele>1775</ele>
        <time>2021-08-11T09:03:35.440Z</time>
      </trkpt>
      <trkpt lat="46.88644" lon="8.53763">
        <ele>1775</ele>
        <time>2021-08-11T09:03:36.439Z</time>
      </trkpt>
      <trkpt lat="46.88643" lon="8.53762">
        <ele>1775</ele>
        <time>2021-08-11T09:03:37.440Z</time>
      </trkpt>
      <trkpt lat="46.88642" lon="8.53762">
        <ele>1775</ele>
        <time>2021-08-11T09:03:38.441Z</time>
      </trkpt>
      <trkpt lat="46.88642" lon="8.53762">
        <ele>1774</ele>
        <time>2021-08-11T09:03:39.440Z</time>
      </trkpt>
      <trkpt lat="46.88641" lon="8.53761">
        <ele>1772</ele>
        <time>2021-08-11T09:03:40.441Z</time>
      </trkpt>
      <trkpt lat="46.88642" lon="8.53761">
        <ele>1772</ele>
        <time>2021-08-11T09:03:41.440Z</time>
      </trkpt>
      <trkpt lat="46.88641" lon="8.53759">
        <ele>1773</ele>
        <time>2021-08-11T09:03:42.440Z</time>
      </trkpt>
      <trkpt lat="46.88639" lon="8.53758">
        <ele>1776</ele>
        <time>2021-08-11T09:03:43.440Z</time>
      </trkpt>
      <trkpt lat="46.88638" lon="8.53758">
        <ele>1776</ele>
        <time>2021-08-11T09:03:44.441Z</time>
      </trkpt>
      <trkpt lat="46.88638" lon="8.53758">
        <ele>1776</ele>
        <time>2021-08-11T09:03:45.441Z</time>
      </trkpt>
      <trkpt lat="46.88637" lon="8.53758">
        <ele>1776</ele>
        <time>2021-08-11T09:03:46.441Z</time>
      </trkpt>
      <trkpt lat="46.88637" lon="8.53757">
        <ele>1777</ele>
        <time>2021-08-11T09:03:47.441Z</time>
      </trkpt>
      <trkpt lat="46.88637" lon="8.53757">
        <ele>1777</ele>
        <time>2021-08-11T09:03:48.441Z</time>
      </trkpt>
      <trkpt lat="46.88637" lon="8.53757">
        <ele>1777</ele>
        <time>2021-08-11T09:03:49.441Z</time>
      </trkpt>
      <trkpt lat="46.88633" lon="8.53754">
        <ele>1782</ele>
        <time>2021-08-11T09:03:50.440Z</time>
      </trkpt>
      <trkpt lat="46.88632" lon="8.53754">
        <ele>1783</ele>
        <time>2021-08-11T09:03:51.440Z</time>
      </trkpt>
      <trkpt lat="46.88632" lon="8.53753">
        <ele>1783</ele>
        <time>2021-08-11T09:03:52.440Z</time>
      </trkpt>
      <trkpt lat="46.88632" lon="8.53753">
        <ele>1783</ele>
        <time>2021-08-11T09:03:53.440Z</time>
      </trkpt>
      <trkpt lat="46.88632" lon="8.53752">
        <ele>1783</ele>
        <time>2021-08-11T09:03:54.440Z</time>
      </trkpt>
      <trkpt lat="46.88632" lon="8.53752">
        <ele>1783</ele>
        <time>2021-08-11T09:03:55.440Z</time>
      </trkpt>
      <trkpt lat="46.88631" lon="8.53751">
        <ele>1783</ele>
        <time>2021-08-11T09:03:56.440Z</time>
      </trkpt>
      <trkpt lat="46.88631" lon="8.53751">
        <ele>1784</ele>
        <time>2021-08-11T09:03:57.440Z</time>
      </trkpt>
      <trkpt lat="46.88631" lon="8.53751">
        <ele>1785</ele>
        <time>2021-08-11T09:03:58.440Z</time>
      </trkpt>
      <trkpt lat="46.88631" lon="8.5375">
        <ele>1785</ele>
        <time>2021-08-11T09:03:59.440Z</time>
      </trkpt>
      <trkpt lat="46.88631" lon="8.5375">
        <ele>1785</ele>
        <time>2021-08-11T09:04:00.440Z</time>
      </trkpt>
      <trkpt lat="46.88631" lon="8.5375">
        <ele>1785</ele>
        <time>2021-08-11T09:04:01.440Z</time>
      </trkpt>
      <trkpt lat="46.8863" lon="8.5375">
        <ele>1783</ele>
        <time>2021-08-11T09:04:02.442Z</time>
      </trkpt>
      <trkpt lat="46.8863" lon="8.53749">
        <ele>1783</ele>
        <time>2021-08-11T09:04:03.442Z</time>
      </trkpt>
      <trkpt lat="46.8863" lon="8.53749">
        <ele>1782</ele>
        <time>2021-08-11T09:04:04.441Z</time>
      </trkpt>
      <trkpt lat="46.8863" lon="8.53748">
        <ele>1782</ele>
        <time>2021-08-11T09:04:05.442Z</time>
      </trkpt>
      <trkpt lat="46.8863" lon="8.53748">
        <ele>1783</ele>
        <time>2021-08-11T09:04:06.442Z</time>
      </trkpt>
      <trkpt lat="46.88631" lon="8.53748">
        <ele>1784</ele>
        <time>2021-08-11T09:04:07.442Z</time>
      </trkpt>
      <trkpt lat="46.88631" lon="8.53748">
        <ele>1784</ele>
        <time>2021-08-11T09:04:08.443Z</time>
      </trkpt>
      <trkpt lat="46.88632" lon="8.53747">
        <ele>1783</ele>
        <time>2021-08-11T09:04:09.442Z</time>
      </trkpt>
      <trkpt lat="46.88632" lon="8.53747">
        <ele>1783</ele>
        <time>2021-08-11T09:04:10.443Z</time>
      </trkpt>
      <trkpt lat="46.88633" lon="8.53747">
        <ele>1782</ele>
        <time>2021-08-11T09:04:11.443Z</time>
      </trkpt>
      <trkpt lat="46.88633" lon="8.53747">
        <ele>1782</ele>
        <time>2021-08-11T09:04:12.442Z</time>
      </trkpt>
      <trkpt lat="46.88634" lon="8.53746">
        <ele>1783</ele>
        <time>2021-08-11T09:04:13.442Z</time>
      </trkpt>
      <trkpt lat="46.88635" lon="8.53746">
        <ele>1783</ele>
        <time>2021-08-11T09:04:14.443Z</time>
      </trkpt>
      <trkpt lat="46.88635" lon="8.53746">
        <ele>1783</ele>
        <time>2021-08-11T09:04:15.443Z</time>
      </trkpt>
      <trkpt lat="46.88636" lon="8.53745">
        <ele>1783</ele>
        <time>2021-08-11T09:04:16.442Z</time>
      </trkpt>
      <trkpt lat="46.88635" lon="8.53744">
        <ele>1783</ele>
        <time>2021-08-11T09:04:17.443Z</time>
      </trkpt>
      <trkpt lat="46.88636" lon="8.53743">
        <ele>1783</ele>
        <time>2021-08-11T09:04:18.443Z</time>
      </trkpt>
      <trkpt lat="46.88636" lon="8.53742">
        <ele>1783</ele>
        <time>2021-08-11T09:04:19.443Z</time>
      </trkpt>
      <trkpt lat="46.88636" lon="8.53742">
        <ele>1782</ele>
        <time>2021-08-11T09:04:20.442Z</time>
      </trkpt>
      <trkpt lat="46.88636" lon="8.53742">
        <ele>1782</ele>
        <time>2021-08-11T09:04:21.442Z</time>
      </trkpt>
      <trkpt lat="46.88636" lon="8.53742">
        <ele>1782</ele>
        <time>2021-08-11T09:04:22.443Z</time>
      </trkpt>
      <trkpt lat="46.88637" lon="8.53741">
        <ele>1783</ele>
        <time>2021-08-11T09:04:23.443Z</time>
      </trkpt>
      <trkpt lat="46.88637" lon="8.53741">
        <ele>1783</ele>
        <time>2021-08-11T09:04:24.442Z</time>
      </trkpt>
      <trkpt lat="46.88637" lon="8.53741">
        <ele>1783</ele>
        <time>2021-08-11T09:04:25.442Z</time>
      </trkpt>
      <trkpt lat="46.88638" lon="8.53741">
        <ele>1783</ele>
        <time>2021-08-11T09:04:26.442Z</time>
      </trkpt>
      <trkpt lat="46.88638" lon="8.53741">
        <ele>1784</ele>
        <time>2021-08-11T09:04:27.442Z</time>
      </trkpt>
      <trkpt lat="46.88639" lon="8.5374">
        <ele>1784</ele>
        <time>2021-08-11T09:04:28.443Z</time>
      </trkpt>
      <trkpt lat="46.88639" lon="8.5374">
        <ele>1784</ele>
        <time>2021-08-11T09:04:29.444Z</time>
      </trkpt>
      <trkpt lat="46.8864" lon="8.5374">
        <ele>1784</ele>
        <time>2021-08-11T09:04:30.443Z</time>
      </trkpt>
      <trkpt lat="46.88642" lon="8.5374">
        <ele>1788</ele>
        <time>2021-08-11T09:04:31.444Z</time>
      </trkpt>
      <trkpt lat="46.88642" lon="8.53739">
        <ele>1788</ele>
        <time>2021-08-11T09:04:32.443Z</time>
      </trkpt>
      <trkpt lat="46.88643" lon="8.53739">
        <ele>1789</ele>
        <time>2021-08-11T09:04:33.444Z</time>
      </trkpt>
      <trkpt lat="46.88643" lon="8.53738">
        <ele>1789</ele>
        <time>2021-08-11T09:04:34.444Z</time>
      </trkpt>
      <trkpt lat="46.88643" lon="8.53738">
        <ele>1789</ele>
        <time>2021-08-11T09:04:35.443Z</time>
      </trkpt>
      <trkpt lat="46.88644" lon="8.53738">
        <ele>1789</ele>
        <time>2021-08-11T09:04:36.444Z</time>
      </trkpt>
      <trkpt lat="46.88644" lon="8.53737">
        <ele>1789</ele>
        <time>2021-08-11T09:04:37.444Z</time>
      </trkpt>
      <trkpt lat="46.88644" lon="8.53736">
        <ele>1790</ele>
        <time>2021-08-11T09:04:38.443Z</time>
      </trkpt>
      <trkpt lat="46.88644" lon="8.53736">
        <ele>1790</ele>
        <time>2021-08-11T09:04:39.444Z</time>
      </trkpt>
      <trkpt lat="46.88644" lon="8.53735">
        <ele>1790</ele>
        <time>2021-08-11T09:04:40.444Z</time>
      </trkpt>
      <trkpt lat="46.88644" lon="8.53735">
        <ele>1790</ele>
        <time>2021-08-11T09:04:41.444Z</time>
      </trkpt>
      <trkpt lat="46.88645" lon="8.53734">
        <ele>1790</ele>
        <time>2021-08-11T09:04:42.443Z</time>
      </trkpt>
      <trkpt lat="46.88645" lon="8.53734">
        <ele>1790</ele>
        <time>2021-08-11T09:04:43.444Z</time>
      </trkpt>
      <trkpt lat="46.88646" lon="8.53733">
        <ele>1790</ele>
        <time>2021-08-11T09:04:44.443Z</time>
      </trkpt>
      <trkpt lat="46.88645" lon="8.53733">
        <ele>1790</ele>
        <time>2021-08-11T09:04:45.443Z</time>
      </trkpt>
      <trkpt lat="46.88645" lon="8.53732">
        <ele>1790</ele>
        <time>2021-08-11T09:04:46.444Z</time>
      </trkpt>
      <trkpt lat="46.88644" lon="8.53731">
        <ele>1790</ele>
        <time>2021-08-11T09:04:47.444Z</time>
      </trkpt>
      <trkpt lat="46.88643" lon="8.5373">
        <ele>1790</ele>
        <time>2021-08-11T09:04:48.444Z</time>
      </trkpt>
      <trkpt lat="46.88643" lon="8.53729">
        <ele>1791</ele>
        <time>2021-08-11T09:04:49.444Z</time>
      </trkpt>
      <trkpt lat="46.88642" lon="8.53728">
        <ele>1791</ele>
        <time>2021-08-11T09:04:50.443Z</time>
      </trkpt>
      <trkpt lat="46.88641" lon="8.53728">
        <ele>1792</ele>
        <time>2021-08-11T09:04:51.444Z</time>
      </trkpt>
      <trkpt lat="46.88641" lon="8.53728">
        <ele>1792</ele>
        <time>2021-08-11T09:04:52.444Z</time>
      </trkpt>
      <trkpt lat="46.8864" lon="8.53727">
        <ele>1792</ele>
        <time>2021-08-11T09:04:53.444Z</time>
      </trkpt>
      <trkpt lat="46.8864" lon="8.53727">
        <ele>1792</ele>
        <time>2021-08-11T09:04:54.444Z</time>
      </trkpt>
      <trkpt lat="46.8864" lon="8.53727">
        <ele>1792</ele>
        <time>2021-08-11T09:04:55.443Z</time>
      </trkpt>
      <trkpt lat="46.88638" lon="8.53727">
        <ele>1791</ele>
        <time>2021-08-11T09:04:56.444Z</time>
      </trkpt>
      <trkpt lat="46.88638" lon="8.53726">
        <ele>1791</ele>
        <time>2021-08-11T09:04:57.444Z</time>
      </trkpt>
      <trkpt lat="46.88637" lon="8.53725">
        <ele>1791</ele>
        <time>2021-08-11T09:04:58.443Z</time>
      </trkpt>
      <trkpt lat="46.88637" lon="8.53725">
        <ele>1791</ele>
        <time>2021-08-11T09:04:59.444Z</time>
      </trkpt>
      <trkpt lat="46.88636" lon="8.53725">
        <ele>1791</ele>
        <time>2021-08-11T09:05:00.444Z</time>
      </trkpt>
      <trkpt lat="46.88635" lon="8.53726">
        <ele>1791</ele>
        <time>2021-08-11T09:05:01.443Z</time>
      </trkpt>
      <trkpt lat="46.88635" lon="8.53725">
        <ele>1791</ele>
        <time>2021-08-11T09:05:02.444Z</time>
      </trkpt>
      <trkpt lat="46.88635" lon="8.53725">
        <ele>1791</ele>
        <time>2021-08-11T09:05:03.444Z</time>
      </trkpt>
      <trkpt lat="46.88634" lon="8.53726">
        <ele>1791</ele>
        <time>2021-08-11T09:05:04.444Z</time>
      </trkpt>
      <trkpt lat="46.88634" lon="8.53727">
        <ele>1791</ele>
        <time>2021-08-11T09:05:05.444Z</time>
      </trkpt>
      <trkpt lat="46.88634" lon="8.53727">
        <ele>1791</ele>
        <time>2021-08-11T09:05:06.443Z</time>
      </trkpt>
      <trkpt lat="46.88633" lon="8.53727">
        <ele>1792</ele>
        <time>2021-08-11T09:05:07.443Z</time>
      </trkpt>
      <trkpt lat="46.88633" lon="8.53727">
        <ele>1791</ele>
        <time>2021-08-11T09:05:08.443Z</time>
      </trkpt>
      <trkpt lat="46.88633" lon="8.53726">
        <ele>1791</ele>
        <time>2021-08-11T09:05:09.444Z</time>
      </trkpt>
      <trkpt lat="46.88632" lon="8.53726">
        <ele>1791</ele>
        <time>2021-08-11T09:05:10.444Z</time>
      </trkpt>
      <trkpt lat="46.88632" lon="8.53727">
        <ele>1791</ele>
        <time>2021-08-11T09:05:11.443Z</time>
      </trkpt>
      <trkpt lat="46.88632" lon="8.53727">
        <ele>1791</ele>
        <time>2021-08-11T09:05:12.444Z</time>
      </trkpt>
      <trkpt lat="46.88631" lon="8.53727">
        <ele>1792</ele>
        <time>2021-08-11T09:05:13.443Z</time>
      </trkpt>
      <trkpt lat="46.88631" lon="8.53727">
        <ele>1792</ele>
        <time>2021-08-11T09:05:14.443Z</time>
      </trkpt>
      <trkpt lat="46.88631" lon="8.53727">
        <ele>1792</ele>
        <time>2021-08-11T09:05:15.444Z</time>
      </trkpt>
      <trkpt lat="46.8863" lon="8.53726">
        <ele>1792</ele>
        <time>2021-08-11T09:05:16.444Z</time>
      </trkpt>
      <trkpt lat="46.8863" lon="8.53726">
        <ele>1792</ele>
        <time>2021-08-11T09:05:17.444Z</time>
      </trkpt>
      <trkpt lat="46.8863" lon="8.53726">
        <ele>1791</ele>
        <time>2021-08-11T09:05:18.444Z</time>
      </trkpt>
      <trkpt lat="46.88629" lon="8.53725">
        <ele>1791</ele>
        <time>2021-08-11T09:05:19.443Z</time>
      </trkpt>
      <trkpt lat="46.88629" lon="8.53725">
        <ele>1791</ele>
        <time>2021-08-11T09:05:20.444Z</time>
      </trkpt>
      <trkpt lat="46.88628" lon="8.53724">
        <ele>1792</ele>
        <time>2021-08-11T09:05:21.444Z</time>
      </trkpt>
      <trkpt lat="46.88628" lon="8.53724">
        <ele>1792</ele>
        <time>2021-08-11T09:05:22.444Z</time>
      </trkpt>
      <trkpt lat="46.88628" lon="8.53724">
        <ele>1792</ele>
        <time>2021-08-11T09:05:23.444Z</time>
      </trkpt>
      <trkpt lat="46.88628" lon="8.53723">
        <ele>1792</ele>
        <time>2021-08-11T09:05:24.444Z</time>
      </trkpt>
      <trkpt lat="46.88628" lon="8.53723">
        <ele>1791</ele>
        <time>2021-08-11T09:05:25.444Z</time>
      </trkpt>
      <trkpt lat="46.88628" lon="8.53723">
        <ele>1792</ele>
        <time>2021-08-11T09:05:26.444Z</time>
      </trkpt>
      <trkpt lat="46.88627" lon="8.53722">
        <ele>1792</ele>
        <time>2021-08-11T09:05:27.445Z</time>
      </trkpt>
      <trkpt lat="46.88626" lon="8.53721">
        <ele>1793</ele>
        <time>2021-08-11T09:05:28.444Z</time>
      </trkpt>
      <trkpt lat="46.88624" lon="8.53721">
        <ele>1794</ele>
        <time>2021-08-11T09:05:29.445Z</time>
      </trkpt>
      <trkpt lat="46.88623" lon="8.53721">
        <ele>1795</ele>
        <time>2021-08-11T09:05:30.445Z</time>
      </trkpt>
      <trkpt lat="46.88622" lon="8.53722">
        <ele>1796</ele>
        <time>2021-08-11T09:05:31.445Z</time>
      </trkpt>
      <trkpt lat="46.88622" lon="8.53721">
        <ele>1797</ele>
        <time>2021-08-11T09:05:32.445Z</time>
      </trkpt>
      <trkpt lat="46.88622" lon="8.5372">
        <ele>1797</ele>
        <time>2021-08-11T09:05:33.444Z</time>
      </trkpt>
      <trkpt lat="46.88622" lon="8.5372">
        <ele>1797</ele>
        <time>2021-08-11T09:05:34.444Z</time>
      </trkpt>
      <trkpt lat="46.88622" lon="8.53721">
        <ele>1797</ele>
        <time>2021-08-11T09:05:35.444Z</time>
      </trkpt>
      <trkpt lat="46.88621" lon="8.53721">
        <ele>1797</ele>
        <time>2021-08-11T09:05:36.445Z</time>
      </trkpt>
      <trkpt lat="46.88621" lon="8.5372">
        <ele>1797</ele>
        <time>2021-08-11T09:05:37.445Z</time>
      </trkpt>
      <trkpt lat="46.88621" lon="8.5372">
        <ele>1796</ele>
        <time>2021-08-11T09:05:38.444Z</time>
      </trkpt>
      <trkpt lat="46.8862" lon="8.5372">
        <ele>1795</ele>
        <time>2021-08-11T09:05:39.445Z</time>
      </trkpt>
      <trkpt lat="46.88619" lon="8.5372">
        <ele>1796</ele>
        <time>2021-08-11T09:05:40.444Z</time>
      </trkpt>
      <trkpt lat="46.88619" lon="8.5372">
        <ele>1796</ele>
        <time>2021-08-11T09:05:41.445Z</time>
      </trkpt>
      <trkpt lat="46.88619" lon="8.53719">
        <ele>1797</ele>
        <time>2021-08-11T09:05:42.445Z</time>
      </trkpt>
      <trkpt lat="46.88619" lon="8.53719">
        <ele>1798</ele>
        <time>2021-08-11T09:05:43.445Z</time>
      </trkpt>
      <trkpt lat="46.88619" lon="8.53719">
        <ele>1798</ele>
        <time>2021-08-11T09:05:44.445Z</time>
      </trkpt>
      <trkpt lat="46.88619" lon="8.53716">
        <ele>1799</ele>
        <time>2021-08-11T09:05:45.444Z</time>
      </trkpt>
      <trkpt lat="46.88619" lon="8.53716">
        <ele>1798</ele>
        <time>2021-08-11T09:05:46.445Z</time>
      </trkpt>
      <trkpt lat="46.88619" lon="8.53716">
        <ele>1797</ele>
        <time>2021-08-11T09:05:47.444Z</time>
      </trkpt>
      <trkpt lat="46.88619" lon="8.53716">
        <ele>1796</ele>
        <time>2021-08-11T09:05:48.445Z</time>
      </trkpt>
      <trkpt lat="46.88619" lon="8.53716">
        <ele>1796</ele>
        <time>2021-08-11T09:05:49.445Z</time>
      </trkpt>
      <trkpt lat="46.88618" lon="8.53716">
        <ele>1795</ele>
        <time>2021-08-11T09:05:50.445Z</time>
      </trkpt>
      <trkpt lat="46.88618" lon="8.53716">
        <ele>1795</ele>
        <time>2021-08-11T09:05:51.445Z</time>
      </trkpt>
      <trkpt lat="46.88618" lon="8.53717">
        <ele>1794</ele>
        <time>2021-08-11T09:05:52.444Z</time>
      </trkpt>
      <trkpt lat="46.88618" lon="8.53717">
        <ele>1794</ele>
        <time>2021-08-11T09:05:53.445Z</time>
      </trkpt>
      <trkpt lat="46.88617" lon="8.53716">
        <ele>1793</ele>
        <time>2021-08-11T09:05:54.445Z</time>
      </trkpt>
      <trkpt lat="46.88617" lon="8.53717">
        <ele>1793</ele>
        <time>2021-08-11T09:05:55.445Z</time>
      </trkpt>
      <trkpt lat="46.88617" lon="8.53718">
        <ele>1793</ele>
        <time>2021-08-11T09:05:56.445Z</time>
      </trkpt>
      <trkpt lat="46.88617" lon="8.53718">
        <ele>1794</ele>
        <time>2021-08-11T09:05:57.445Z</time>
      </trkpt>
      <trkpt lat="46.88618" lon="8.53718">
        <ele>1795</ele>
        <time>2021-08-11T09:05:58.445Z</time>
      </trkpt>
      <trkpt lat="46.88618" lon="8.53717">
        <ele>1795</ele>
        <time>2021-08-11T09:05:59.444Z</time>
      </trkpt>
      <trkpt lat="46.88618" lon="8.53717">
        <ele>1796</ele>
        <time>2021-08-11T09:06:00.445Z</time>
      </trkpt>
      <trkpt lat="46.88618" lon="8.53717">
        <ele>1796</ele>
        <time>2021-08-11T09:06:01.445Z</time>
      </trkpt>
      <trkpt lat="46.88619" lon="8.53716">
        <ele>1796</ele>
        <time>2021-08-11T09:06:02.445Z</time>
      </trkpt>
      <trkpt lat="46.8862" lon="8.53716">
        <ele>1796</ele>
        <time>2021-08-11T09:06:03.445Z</time>
      </trkpt>
      <trkpt lat="46.8862" lon="8.53715">
        <ele>1796</ele>
        <time>2021-08-11T09:06:04.445Z</time>
      </trkpt>
      <trkpt lat="46.88621" lon="8.53715">
        <ele>1797</ele>
        <time>2021-08-11T09:06:05.444Z</time>
      </trkpt>
      <trkpt lat="46.88621" lon="8.53714">
        <ele>1798</ele>
        <time>2021-08-11T09:06:06.444Z</time>
      </trkpt>
      <trkpt lat="46.88621" lon="8.53713">
        <ele>1798</ele>
        <time>2021-08-11T09:06:07.445Z</time>
      </trkpt>
      <trkpt lat="46.88622" lon="8.53713">
        <ele>1798</ele>
        <time>2021-08-11T09:06:08.444Z</time>
      </trkpt>
      <trkpt lat="46.88622" lon="8.53712">
        <ele>1799</ele>
        <time>2021-08-11T09:06:09.444Z</time>
      </trkpt>
      <trkpt lat="46.88623" lon="8.53712">
        <ele>1799</ele>
        <time>2021-08-11T09:06:10.445Z</time>
      </trkpt>
      <trkpt lat="46.88623" lon="8.53712">
        <ele>1799</ele>
        <time>2021-08-11T09:06:11.445Z</time>
      </trkpt>
      <trkpt lat="46.88623" lon="8.53712">
        <ele>1799</ele>
        <time>2021-08-11T09:06:12.445Z</time>
      </trkpt>
      <trkpt lat="46.88623" lon="8.53712">
        <ele>1799</ele>
        <time>2021-08-11T09:06:13.444Z</time>
      </trkpt>
      <trkpt lat="46.88624" lon="8.53712">
        <ele>1799</ele>
        <time>2021-08-11T09:06:14.444Z</time>
      </trkpt>
      <trkpt lat="46.88625" lon="8.53711">
        <ele>1799</ele>
        <time>2021-08-11T09:06:15.444Z</time>
      </trkpt>
      <trkpt lat="46.88625" lon="8.5371">
        <ele>1800</ele>
        <time>2021-08-11T09:06:16.445Z</time>
      </trkpt>
      <trkpt lat="46.88626" lon="8.53709">
        <ele>1804</ele>
        <time>2021-08-11T09:06:17.445Z</time>
      </trkpt>
      <trkpt lat="46.88627" lon="8.53709">
        <ele>1804</ele>
        <time>2021-08-11T09:06:18.445Z</time>
      </trkpt>
      <trkpt lat="46.88627" lon="8.53708">
        <ele>1804</ele>
        <time>2021-08-11T09:06:19.445Z</time>
      </trkpt>
      <trkpt lat="46.88627" lon="8.53708">
        <ele>1803</ele>
        <time>2021-08-11T09:06:20.445Z</time>
      </trkpt>
      <trkpt lat="46.88628" lon="8.53707">
        <ele>1803</ele>
        <time>2021-08-11T09:06:21.444Z</time>
      </trkpt>
      <trkpt lat="46.88628" lon="8.53707">
        <ele>1803</ele>
        <time>2021-08-11T09:06:22.444Z</time>
      </trkpt>
      <trkpt lat="46.88628" lon="8.53707">
        <ele>1803</ele>
        <time>2021-08-11T09:06:23.444Z</time>
      </trkpt>
      <trkpt lat="46.88628" lon="8.53706">
        <ele>1802</ele>
        <time>2021-08-11T09:06:24.444Z</time>
      </trkpt>
      <trkpt lat="46.88628" lon="8.53706">
        <ele>1801</ele>
        <time>2021-08-11T09:06:25.445Z</time>
      </trkpt>
      <trkpt lat="46.88629" lon="8.53706">
        <ele>1801</ele>
        <time>2021-08-11T09:06:26.445Z</time>
      </trkpt>
      <trkpt lat="46.88629" lon="8.53706">
        <ele>1802</ele>
        <time>2021-08-11T09:06:27.445Z</time>
      </trkpt>
      <trkpt lat="46.88629" lon="8.53706">
        <ele>1802</ele>
        <time>2021-08-11T09:06:28.445Z</time>
      </trkpt>
      <trkpt lat="46.8863" lon="8.53705">
        <ele>1803</ele>
        <time>2021-08-11T09:06:29.444Z</time>
      </trkpt>
      <trkpt lat="46.8863" lon="8.53705">
        <ele>1803</ele>
        <time>2021-08-11T09:06:30.444Z</time>
      </trkpt>
      <trkpt lat="46.8863" lon="8.53704">
        <ele>1804</ele>
        <time>2021-08-11T09:06:31.444Z</time>
      </trkpt>
      <trkpt lat="46.88631" lon="8.53703">
        <ele>1805</ele>
        <time>2021-08-11T09:06:32.444Z</time>
      </trkpt>
      <trkpt lat="46.88631" lon="8.53703">
        <ele>1805</ele>
        <time>2021-08-11T09:06:33.444Z</time>
      </trkpt>
      <trkpt lat="46.88632" lon="8.53702">
        <ele>1806</ele>
        <time>2021-08-11T09:06:34.444Z</time>
      </trkpt>
      <trkpt lat="46.88633" lon="8.53702">
        <ele>1806</ele>
        <time>2021-08-11T09:06:35.444Z</time>
      </trkpt>
      <trkpt lat="46.88633" lon="8.53701">
        <ele>1807</ele>
        <time>2021-08-11T09:06:36.445Z</time>
      </trkpt>
      <trkpt lat="46.88633" lon="8.53701">
        <ele>1807</ele>
        <time>2021-08-11T09:06:37.445Z</time>
      </trkpt>
      <trkpt lat="46.88634" lon="8.537">
        <ele>1808</ele>
        <time>2021-08-11T09:06:38.444Z</time>
      </trkpt>
      <trkpt lat="46.88634" lon="8.53699">
        <ele>1808</ele>
        <time>2021-08-11T09:06:39.445Z</time>
      </trkpt>
      <trkpt lat="46.88634" lon="8.53699">
        <ele>1808</ele>
        <time>2021-08-11T09:06:40.444Z</time>
      </trkpt>
      <trkpt lat="46.88634" lon="8.53699">
        <ele>1808</ele>
        <time>2021-08-11T09:06:41.444Z</time>
      </trkpt>
      <trkpt lat="46.88635" lon="8.53699">
        <ele>1809</ele>
        <time>2021-08-11T09:06:42.444Z</time>
      </trkpt>
      <trkpt lat="46.88635" lon="8.53699">
        <ele>1808</ele>
        <time>2021-08-11T09:06:43.444Z</time>
      </trkpt>
      <trkpt lat="46.88634" lon="8.537">
        <ele>1808</ele>
        <time>2021-08-11T09:06:44.445Z</time>
      </trkpt>
      <trkpt lat="46.88634" lon="8.537">
        <ele>1808</ele>
        <time>2021-08-11T09:06:45.444Z</time>
      </trkpt>
      <trkpt lat="46.88635" lon="8.53699">
        <ele>1808</ele>
        <time>2021-08-11T09:06:46.445Z</time>
      </trkpt>
      <trkpt lat="46.88636" lon="8.53699">
        <ele>1809</ele>
        <time>2021-08-11T09:06:47.444Z</time>
      </trkpt>
      <trkpt lat="46.88636" lon="8.53698">
        <ele>1809</ele>
        <time>2021-08-11T09:06:48.445Z</time>
      </trkpt>
      <trkpt lat="46.88636" lon="8.53697">
        <ele>1809</ele>
        <time>2021-08-11T09:06:49.444Z</time>
      </trkpt>
      <trkpt lat="46.88637" lon="8.53697">
        <ele>1809</ele>
        <time>2021-08-11T09:06:50.444Z</time>
      </trkpt>
      <trkpt lat="46.88637" lon="8.53697">
        <ele>1809</ele>
        <time>2021-08-11T09:06:51.445Z</time>
      </trkpt>
      <trkpt lat="46.88637" lon="8.53696">
        <ele>1809</ele>
        <time>2021-08-11T09:06:52.444Z</time>
      </trkpt>
      <trkpt lat="46.88638" lon="8.53696">
        <ele>1809</ele>
        <time>2021-08-11T09:06:53.445Z</time>
      </trkpt>
      <trkpt lat="46.88638" lon="8.53696">
        <ele>1809</ele>
        <time>2021-08-11T09:06:54.445Z</time>
      </trkpt>
      <trkpt lat="46.88639" lon="8.53696">
        <ele>1808</ele>
        <time>2021-08-11T09:06:55.445Z</time>
      </trkpt>
      <trkpt lat="46.88639" lon="8.53695">
        <ele>1808</ele>
        <time>2021-08-11T09:06:56.445Z</time>
      </trkpt>
      <trkpt lat="46.88639" lon="8.53695">
        <ele>1808</ele>
        <time>2021-08-11T09:06:57.445Z</time>
      </trkpt>
      <trkpt lat="46.88639" lon="8.53694">
        <ele>1808</ele>
        <time>2021-08-11T09:06:58.445Z</time>
      </trkpt>
      <trkpt lat="46.8864" lon="8.53694">
        <ele>1808</ele>
        <time>2021-08-11T09:06:59.444Z</time>
      </trkpt>
      <trkpt lat="46.8864" lon="8.53694">
        <ele>1809</ele>
        <time>2021-08-11T09:07:00.445Z</time>
      </trkpt>
      <trkpt lat="46.8864" lon="8.53693">
        <ele>1809</ele>
        <time>2021-08-11T09:07:01.445Z</time>
      </trkpt>
      <trkpt lat="46.8864" lon="8.53693">
        <ele>1809</ele>
        <time>2021-08-11T09:07:02.444Z</time>
      </trkpt>
      <trkpt lat="46.8864" lon="8.53692">
        <ele>1809</ele>
        <time>2021-08-11T09:07:03.445Z</time>
      </trkpt>
      <trkpt lat="46.8864" lon="8.53692">
        <ele>1809</ele>
        <time>2021-08-11T09:07:04.445Z</time>
      </trkpt>
      <trkpt lat="46.88639" lon="8.5369">
        <ele>1812</ele>
        <time>2021-08-11T09:07:05.446Z</time>
      </trkpt>
      <trkpt lat="46.88638" lon="8.5369">
        <ele>1812</ele>
        <time>2021-08-11T09:07:06.446Z</time>
      </trkpt>
      <trkpt lat="46.88638" lon="8.5369">
        <ele>1812</ele>
        <time>2021-08-11T09:07:07.445Z</time>
      </trkpt>
      <trkpt lat="46.8864" lon="8.5369">
        <ele>1811</ele>
        <time>2021-08-11T09:07:08.446Z</time>
      </trkpt>
      <trkpt lat="46.8864" lon="8.5369">
        <ele>1811</ele>
        <time>2021-08-11T09:07:09.445Z</time>
      </trkpt>
      <trkpt lat="46.8864" lon="8.5369">
        <ele>1811</ele>
        <time>2021-08-11T09:07:10.446Z</time>
      </trkpt>
      <trkpt lat="46.8864" lon="8.5369">
        <ele>1811</ele>
        <time>2021-08-11T09:07:11.445Z</time>
      </trkpt>
      <trkpt lat="46.88641" lon="8.5369">
        <ele>1811</ele>
        <time>2021-08-11T09:07:12.445Z</time>
      </trkpt>
      <trkpt lat="46.88641" lon="8.5369">
        <ele>1810</ele>
        <time>2021-08-11T09:07:13.446Z</time>
      </trkpt>
      <trkpt lat="46.88641" lon="8.5369">
        <ele>1810</ele>
        <time>2021-08-11T09:07:14.446Z</time>
      </trkpt>
      <trkpt lat="46.88642" lon="8.53689">
        <ele>1810</ele>
        <time>2021-08-11T09:07:15.445Z</time>
      </trkpt>
      <trkpt lat="46.88642" lon="8.53689">
        <ele>1810</ele>
        <time>2021-08-11T09:07:16.445Z</time>
      </trkpt>
      <trkpt lat="46.88642" lon="8.53689">
        <ele>1810</ele>
        <time>2021-08-11T09:07:17.445Z</time>
      </trkpt>
      <trkpt lat="46.88643" lon="8.53689">
        <ele>1810</ele>
        <time>2021-08-11T09:07:18.445Z</time>
      </trkpt>
      <trkpt lat="46.88643" lon="8.53689">
        <ele>1810</ele>
        <time>2021-08-11T09:07:19.445Z</time>
      </trkpt>
      <trkpt lat="46.88643" lon="8.53689">
        <ele>1810</ele>
        <time>2021-08-11T09:07:20.446Z</time>
      </trkpt>
      <trkpt lat="46.88644" lon="8.53688">
        <ele>1811</ele>
        <time>2021-08-11T09:07:21.446Z</time>
      </trkpt>
      <trkpt lat="46.88644" lon="8.53688">
        <ele>1811</ele>
        <time>2021-08-11T09:07:22.446Z</time>
      </trkpt>
      <trkpt lat="46.88644" lon="8.53688">
        <ele>1812</ele>
        <time>2021-08-11T09:07:23.445Z</time>
      </trkpt>
      <trkpt lat="46.88644" lon="8.53689">
        <ele>1812</ele>
        <time>2021-08-11T09:07:24.445Z</time>
      </trkpt>
      <trkpt lat="46.88644" lon="8.53689">
        <ele>1812</ele>
        <time>2021-08-11T09:07:25.446Z</time>
      </trkpt>
      <trkpt lat="46.88645" lon="8.53689">
        <ele>1814</ele>
        <time>2021-08-11T09:07:26.447Z</time>
      </trkpt>
      <trkpt lat="46.88645" lon="8.53689">
        <ele>1815</ele>
        <time>2021-08-11T09:07:27.447Z</time>
      </trkpt>
      <trkpt lat="46.88646" lon="8.53688">
        <ele>1815</ele>
        <time>2021-08-11T09:07:28.446Z</time>
      </trkpt>
      <trkpt lat="46.88646" lon="8.53688">
        <ele>1816</ele>
        <time>2021-08-11T09:07:29.446Z</time>
      </trkpt>
      <trkpt lat="46.88647" lon="8.53688">
        <ele>1816</ele>
        <time>2021-08-11T09:07:30.446Z</time>
      </trkpt>
      <trkpt lat="46.88647" lon="8.53688">
        <ele>1817</ele>
        <time>2021-08-11T09:07:31.448Z</time>
      </trkpt>
      <trkpt lat="46.88648" lon="8.53688">
        <ele>1818</ele>
        <time>2021-08-11T09:07:32.447Z</time>
      </trkpt>
      <trkpt lat="46.88648" lon="8.53688">
        <ele>1818</ele>
        <time>2021-08-11T09:07:33.448Z</time>
      </trkpt>
      <trkpt lat="46.88649" lon="8.53688">
        <ele>1819</ele>
        <time>2021-08-11T09:07:34.447Z</time>
      </trkpt>
      <trkpt lat="46.8865" lon="8.53687">
        <ele>1819</ele>
        <time>2021-08-11T09:07:35.448Z</time>
      </trkpt>
      <trkpt lat="46.8865" lon="8.53687">
        <ele>1818</ele>
        <time>2021-08-11T09:07:36.448Z</time>
      </trkpt>
      <trkpt lat="46.88651" lon="8.53686">
        <ele>1818</ele>
        <time>2021-08-11T09:07:37.448Z</time>
      </trkpt>
      <trkpt lat="46.88651" lon="8.53686">
        <ele>1818</ele>
        <time>2021-08-11T09:07:38.447Z</time>
      </trkpt>
      <trkpt lat="46.88651" lon="8.53687">
        <ele>1817</ele>
        <time>2021-08-11T09:07:39.448Z</time>
      </trkpt>
      <trkpt lat="46.88651" lon="8.53687">
        <ele>1817</ele>
        <time>2021-08-11T09:07:40.449Z</time>
      </trkpt>
      <trkpt lat="46.88651" lon="8.53687">
        <ele>1817</ele>
        <time>2021-08-11T09:07:41.449Z</time>
      </trkpt>
      <trkpt lat="46.88651" lon="8.53686">
        <ele>1819</ele>
        <time>2021-08-11T09:07:42.448Z</time>
      </trkpt>
      <trkpt lat="46.88652" lon="8.53686">
        <ele>1819</ele>
        <time>2021-08-11T09:07:43.449Z</time>
      </trkpt>
      <trkpt lat="46.88652" lon="8.53686">
        <ele>1819</ele>
        <time>2021-08-11T09:07:44.448Z</time>
      </trkpt>
      <trkpt lat="46.88653" lon="8.53685">
        <ele>1820</ele>
        <time>2021-08-11T09:07:45.448Z</time>
      </trkpt>
      <trkpt lat="46.88654" lon="8.53685">
        <ele>1820</ele>
        <time>2021-08-11T09:07:46.449Z</time>
      </trkpt>
      <trkpt lat="46.88654" lon="8.53684">
        <ele>1821</ele>
        <time>2021-08-11T09:07:47.449Z</time>
      </trkpt>
      <trkpt lat="46.88655" lon="8.53684">
        <ele>1821</ele>
        <time>2021-08-11T09:07:48.449Z</time>
      </trkpt>
      <trkpt lat="46.88656" lon="8.53684">
        <ele>1822</ele>
        <time>2021-08-11T09:07:49.449Z</time>
      </trkpt>
      <trkpt lat="46.88657" lon="8.53683">
        <ele>1822</ele>
        <time>2021-08-11T09:07:50.449Z</time>
      </trkpt>
      <trkpt lat="46.88657" lon="8.53683">
        <ele>1822</ele>
        <time>2021-08-11T09:07:51.448Z</time>
      </trkpt>
      <trkpt lat="46.88658" lon="8.53683">
        <ele>1821</ele>
        <time>2021-08-11T09:07:52.449Z</time>
      </trkpt>
      <trkpt lat="46.88659" lon="8.53683">
        <ele>1821</ele>
        <time>2021-08-11T09:07:53.449Z</time>
      </trkpt>
      <trkpt lat="46.88659" lon="8.53683">
        <ele>1820</ele>
        <time>2021-08-11T09:07:54.449Z</time>
      </trkpt>
      <trkpt lat="46.88659" lon="8.53683">
        <ele>1820</ele>
        <time>2021-08-11T09:07:55.449Z</time>
      </trkpt>
      <trkpt lat="46.8866" lon="8.53682">
        <ele>1818</ele>
        <time>2021-08-11T09:07:56.449Z</time>
      </trkpt>
      <trkpt lat="46.8866" lon="8.53682">
        <ele>1818</ele>
        <time>2021-08-11T09:07:57.449Z</time>
      </trkpt>
      <trkpt lat="46.88661" lon="8.53682">
        <ele>1818</ele>
        <time>2021-08-11T09:07:58.448Z</time>
      </trkpt>
      <trkpt lat="46.88661" lon="8.53682">
        <ele>1818</ele>
        <time>2021-08-11T09:07:59.449Z</time>
      </trkpt>
      <trkpt lat="46.88662" lon="8.53682">
        <ele>1819</ele>
        <time>2021-08-11T09:08:00.448Z</time>
      </trkpt>
      <trkpt lat="46.88662" lon="8.53683">
        <ele>1819</ele>
        <time>2021-08-11T09:08:01.448Z</time>
      </trkpt>
      <trkpt lat="46.88662" lon="8.53683">
        <ele>1819</ele>
        <time>2021-08-11T09:08:02.449Z</time>
      </trkpt>
      <trkpt lat="46.88663" lon="8.53682">
        <ele>1820</ele>
        <time>2021-08-11T09:08:03.449Z</time>
      </trkpt>
      <trkpt lat="46.88663" lon="8.53681">
        <ele>1820</ele>
        <time>2021-08-11T09:08:04.448Z</time>
      </trkpt>
      <trkpt lat="46.88663" lon="8.53681">
        <ele>1820</ele>
        <time>2021-08-11T09:08:05.449Z</time>
      </trkpt>
      <trkpt lat="46.88663" lon="8.53681">
        <ele>1820</ele>
        <time>2021-08-11T09:08:06.448Z</time>
      </trkpt>
      <trkpt lat="46.88664" lon="8.5368">
        <ele>1820</ele>
        <time>2021-08-11T09:08:07.450Z</time>
      </trkpt>
      <trkpt lat="46.88664" lon="8.5368">
        <ele>1819</ele>
        <time>2021-08-11T09:08:08.449Z</time>
      </trkpt>
      <trkpt lat="46.88664" lon="8.5368">
        <ele>1819</ele>
        <time>2021-08-11T09:08:09.449Z</time>
      </trkpt>
      <trkpt lat="46.88665" lon="8.5368">
        <ele>1819</ele>
        <time>2021-08-11T09:08:10.449Z</time>
      </trkpt>
      <trkpt lat="46.88665" lon="8.5368">
        <ele>1819</ele>
        <time>2021-08-11T09:08:11.450Z</time>
      </trkpt>
      <trkpt lat="46.88665" lon="8.5368">
        <ele>1819</ele>
        <time>2021-08-11T09:08:12.450Z</time>
      </trkpt>
      <trkpt lat="46.88666" lon="8.5368">
        <ele>1819</ele>
        <time>2021-08-11T09:08:13.450Z</time>
      </trkpt>
      <trkpt lat="46.88666" lon="8.5368">
        <ele>1819</ele>
        <time>2021-08-11T09:08:14.450Z</time>
      </trkpt>
      <trkpt lat="46.88667" lon="8.5368">
        <ele>1820</ele>
        <time>2021-08-11T09:08:15.450Z</time>
      </trkpt>
      <trkpt lat="46.88667" lon="8.5368">
        <ele>1820</ele>
        <time>2021-08-11T09:08:16.450Z</time>
      </trkpt>
      <trkpt lat="46.88668" lon="8.53679">
        <ele>1820</ele>
        <time>2021-08-11T09:08:17.450Z</time>
      </trkpt>
      <trkpt lat="46.88668" lon="8.53679">
        <ele>1820</ele>
        <time>2021-08-11T09:08:18.450Z</time>
      </trkpt>
      <trkpt lat="46.88669" lon="8.53679">
        <ele>1820</ele>
        <time>2021-08-11T09:08:19.450Z</time>
      </trkpt>
      <trkpt lat="46.88669" lon="8.53678">
        <ele>1821</ele>
        <time>2021-08-11T09:08:20.450Z</time>
      </trkpt>
      <trkpt lat="46.88669" lon="8.53678">
        <ele>1821</ele>
        <time>2021-08-11T09:08:21.449Z</time>
      </trkpt>
      <trkpt lat="46.88669" lon="8.53679">
        <ele>1822</ele>
        <time>2021-08-11T09:08:22.450Z</time>
      </trkpt>
      <trkpt lat="46.88671" lon="8.53677">
        <ele>1823</ele>
        <time>2021-08-11T09:08:23.450Z</time>
      </trkpt>
      <trkpt lat="46.88671" lon="8.53677">
        <ele>1823</ele>
        <time>2021-08-11T09:08:24.451Z</time>
      </trkpt>
      <trkpt lat="46.88672" lon="8.53677">
        <ele>1825</ele>
        <time>2021-08-11T09:08:25.450Z</time>
      </trkpt>
      <trkpt lat="46.88673" lon="8.53677">
        <ele>1825</ele>
        <time>2021-08-11T09:08:26.450Z</time>
      </trkpt>
      <trkpt lat="46.88674" lon="8.53676">
        <ele>1826</ele>
        <time>2021-08-11T09:08:27.450Z</time>
      </trkpt>
      <trkpt lat="46.88674" lon="8.53676">
        <ele>1826</ele>
        <time>2021-08-11T09:08:28.450Z</time>
      </trkpt>
      <trkpt lat="46.88674" lon="8.53677">
        <ele>1826</ele>
        <time>2021-08-11T09:08:29.450Z</time>
      </trkpt>
      <trkpt lat="46.88674" lon="8.53677">
        <ele>1826</ele>
        <time>2021-08-11T09:08:30.450Z</time>
      </trkpt>
      <trkpt lat="46.88674" lon="8.53678">
        <ele>1826</ele>
        <time>2021-08-11T09:08:31.450Z</time>
      </trkpt>
      <trkpt lat="46.88675" lon="8.53678">
        <ele>1826</ele>
        <time>2021-08-11T09:08:32.451Z</time>
      </trkpt>
      <trkpt lat="46.88675" lon="8.53678">
        <ele>1826</ele>
        <time>2021-08-11T09:08:33.450Z</time>
      </trkpt>
      <trkpt lat="46.88676" lon="8.53679">
        <ele>1826</ele>
        <time>2021-08-11T09:08:34.450Z</time>
      </trkpt>
      <trkpt lat="46.88676" lon="8.53679">
        <ele>1826</ele>
        <time>2021-08-11T09:08:35.450Z</time>
      </trkpt>
      <trkpt lat="46.88677" lon="8.5368">
        <ele>1826</ele>
        <time>2021-08-11T09:08:36.451Z</time>
      </trkpt>
      <trkpt lat="46.88677" lon="8.5368">
        <ele>1826</ele>
        <time>2021-08-11T09:08:37.451Z</time>
      </trkpt>
      <trkpt lat="46.88677" lon="8.53681">
        <ele>1826</ele>
        <time>2021-08-11T09:08:38.450Z</time>
      </trkpt>
      <trkpt lat="46.88677" lon="8.53681">
        <ele>1825</ele>
        <time>2021-08-11T09:08:39.450Z</time>
      </trkpt>
      <trkpt lat="46.88678" lon="8.53682">
        <ele>1825</ele>
        <time>2021-08-11T09:08:40.450Z</time>
      </trkpt>
      <trkpt lat="46.88678" lon="8.53682">
        <ele>1825</ele>
        <time>2021-08-11T09:08:41.451Z</time>
      </trkpt>
      <trkpt lat="46.88678" lon="8.53682">
        <ele>1824</ele>
        <time>2021-08-11T09:08:42.451Z</time>
      </trkpt>
      <trkpt lat="46.88679" lon="8.53682">
        <ele>1824</ele>
        <time>2021-08-11T09:08:43.450Z</time>
      </trkpt>
      <trkpt lat="46.8868" lon="8.53682">
        <ele>1824</ele>
        <time>2021-08-11T09:08:44.450Z</time>
      </trkpt>
      <trkpt lat="46.8868" lon="8.53683">
        <ele>1823</ele>
        <time>2021-08-11T09:08:45.450Z</time>
      </trkpt>
      <trkpt lat="46.8868" lon="8.53683">
        <ele>1823</ele>
        <time>2021-08-11T09:08:46.451Z</time>
      </trkpt>
      <trkpt lat="46.8868" lon="8.53682">
        <ele>1823</ele>
        <time>2021-08-11T09:08:47.451Z</time>
      </trkpt>
      <trkpt lat="46.8868" lon="8.53682">
        <ele>1823</ele>
        <time>2021-08-11T09:08:48.450Z</time>
      </trkpt>
      <trkpt lat="46.88681" lon="8.53681">
        <ele>1823</ele>
        <time>2021-08-11T09:08:49.450Z</time>
      </trkpt>
      <trkpt lat="46.88681" lon="8.5368">
        <ele>1823</ele>
        <time>2021-08-11T09:08:50.451Z</time>
      </trkpt>
      <trkpt lat="46.88682" lon="8.5368">
        <ele>1823</ele>
        <time>2021-08-11T09:08:51.451Z</time>
      </trkpt>
      <trkpt lat="46.88682" lon="8.53679">
        <ele>1823</ele>
        <time>2021-08-11T09:08:52.451Z</time>
      </trkpt>
      <trkpt lat="46.88683" lon="8.53679">
        <ele>1824</ele>
        <time>2021-08-11T09:08:53.450Z</time>
      </trkpt>
      <trkpt lat="46.88683" lon="8.53679">
        <ele>1824</ele>
        <time>2021-08-11T09:08:54.450Z</time>
      </trkpt>
      <trkpt lat="46.88683" lon="8.53678">
        <ele>1825</ele>
        <time>2021-08-11T09:08:55.451Z</time>
      </trkpt>
      <trkpt lat="46.88683" lon="8.53678">
        <ele>1825</ele>
        <time>2021-08-11T09:08:56.451Z</time>
      </trkpt>
      <trkpt lat="46.88683" lon="8.53678">
        <ele>1825</ele>
        <time>2021-08-11T09:08:57.450Z</time>
      </trkpt>
      <trkpt lat="46.88684" lon="8.53678">
        <ele>1826</ele>
        <time>2021-08-11T09:08:58.450Z</time>
      </trkpt>
      <trkpt lat="46.88684" lon="8.53678">
        <ele>1827</ele>
        <time>2021-08-11T09:08:59.451Z</time>
      </trkpt>
      <trkpt lat="46.88684" lon="8.53677">
        <ele>1827</ele>
        <time>2021-08-11T09:09:00.451Z</time>
      </trkpt>
      <trkpt lat="46.88684" lon="8.53677">
        <ele>1827</ele>
        <time>2021-08-11T09:09:01.452Z</time>
      </trkpt>
      <trkpt lat="46.88685" lon="8.53677">
        <ele>1828</ele>
        <time>2021-08-11T09:09:02.452Z</time>
      </trkpt>
      <trkpt lat="46.88686" lon="8.53676">
        <ele>1828</ele>
        <time>2021-08-11T09:09:03.452Z</time>
      </trkpt>
      <trkpt lat="46.88686" lon="8.53676">
        <ele>1829</ele>
        <time>2021-08-11T09:09:04.452Z</time>
      </trkpt>
      <trkpt lat="46.88686" lon="8.53676">
        <ele>1829</ele>
        <time>2021-08-11T09:09:05.452Z</time>
      </trkpt>
      <trkpt lat="46.88686" lon="8.53676">
        <ele>1829</ele>
        <time>2021-08-11T09:09:06.452Z</time>
      </trkpt>
      <trkpt lat="46.88687" lon="8.53675">
        <ele>1829</ele>
        <time>2021-08-11T09:09:07.452Z</time>
      </trkpt>
      <trkpt lat="46.88688" lon="8.53675">
        <ele>1829</ele>
        <time>2021-08-11T09:09:08.452Z</time>
      </trkpt>
      <trkpt lat="46.88688" lon="8.53675">
        <ele>1829</ele>
        <time>2021-08-11T09:09:09.452Z</time>
      </trkpt>
      <trkpt lat="46.88688" lon="8.53676">
        <ele>1829</ele>
        <time>2021-08-11T09:09:10.451Z</time>
      </trkpt>
      <trkpt lat="46.88689" lon="8.53676">
        <ele>1829</ele>
        <time>2021-08-11T09:09:11.452Z</time>
      </trkpt>
      <trkpt lat="46.88689" lon="8.53676">
        <ele>1829</ele>
        <time>2021-08-11T09:09:12.452Z</time>
      </trkpt>
      <trkpt lat="46.8869" lon="8.53676">
        <ele>1829</ele>
        <time>2021-08-11T09:09:13.452Z</time>
      </trkpt>
      <trkpt lat="46.8869" lon="8.53676">
        <ele>1829</ele>
        <time>2021-08-11T09:09:14.452Z</time>
      </trkpt>
      <trkpt lat="46.8869" lon="8.53675">
        <ele>1829</ele>
        <time>2021-08-11T09:09:15.451Z</time>
      </trkpt>
      <trkpt lat="46.8869" lon="8.53675">
        <ele>1829</ele>
        <time>2021-08-11T09:09:16.451Z</time>
      </trkpt>
      <trkpt lat="46.8869" lon="8.53674">
        <ele>1829</ele>
        <time>2021-08-11T09:09:17.452Z</time>
      </trkpt>
      <trkpt lat="46.88689" lon="8.53673">
        <ele>1829</ele>
        <time>2021-08-11T09:09:18.452Z</time>
      </trkpt>
      <trkpt lat="46.88689" lon="8.53673">
        <ele>1830</ele>
        <time>2021-08-11T09:09:19.452Z</time>
      </trkpt>
      <trkpt lat="46.88688" lon="8.53672">
        <ele>1830</ele>
        <time>2021-08-11T09:09:20.452Z</time>
      </trkpt>
      <trkpt lat="46.88688" lon="8.53671">
        <ele>1830</ele>
        <time>2021-08-11T09:09:21.451Z</time>
      </trkpt>
      <trkpt lat="46.88687" lon="8.53671">
        <ele>1829</ele>
        <time>2021-08-11T09:09:22.452Z</time>
      </trkpt>
      <trkpt lat="46.88687" lon="8.5367">
        <ele>1829</ele>
        <time>2021-08-11T09:09:23.452Z</time>
      </trkpt>
      <trkpt lat="46.88687" lon="8.5367">
        <ele>1829</ele>
        <time>2021-08-11T09:09:24.452Z</time>
      </trkpt>
      <trkpt lat="46.88687" lon="8.5367">
        <ele>1829</ele>
        <time>2021-08-11T09:09:25.452Z</time>
      </trkpt>
      <trkpt lat="46.88686" lon="8.53669">
        <ele>1829</ele>
        <time>2021-08-11T09:09:26.451Z</time>
      </trkpt>
      <trkpt lat="46.88686" lon="8.53669">
        <ele>1829</ele>
        <time>2021-08-11T09:09:27.452Z</time>
      </trkpt>
      <trkpt lat="46.88686" lon="8.53668">
        <ele>1829</ele>
        <time>2021-08-11T09:09:28.452Z</time>
      </trkpt>
      <trkpt lat="46.88686" lon="8.53668">
        <ele>1829</ele>
        <time>2021-08-11T09:09:29.452Z</time>
      </trkpt>
      <trkpt lat="46.88686" lon="8.53668">
        <ele>1828</ele>
        <time>2021-08-11T09:09:30.452Z</time>
      </trkpt>
      <trkpt lat="46.88686" lon="8.53667">
        <ele>1828</ele>
        <time>2021-08-11T09:09:31.452Z</time>
      </trkpt>
      <trkpt lat="46.88686" lon="8.53667">
        <ele>1828</ele>
        <time>2021-08-11T09:09:32.451Z</time>
      </trkpt>
      <trkpt lat="46.88686" lon="8.53666">
        <ele>1828</ele>
        <time>2021-08-11T09:09:33.452Z</time>
      </trkpt>
      <trkpt lat="46.88687" lon="8.53666">
        <ele>1828</ele>
        <time>2021-08-11T09:09:34.451Z</time>
      </trkpt>
      <trkpt lat="46.88687" lon="8.53665">
        <ele>1828</ele>
        <time>2021-08-11T09:09:35.452Z</time>
      </trkpt>
      <trkpt lat="46.88686" lon="8.53664">
        <ele>1828</ele>
        <time>2021-08-11T09:09:36.452Z</time>
      </trkpt>
      <trkpt lat="46.88685" lon="8.53664">
        <ele>1828</ele>
        <time>2021-08-11T09:09:37.453Z</time>
      </trkpt>
      <trkpt lat="46.88685" lon="8.53662">
        <ele>1829</ele>
        <time>2021-08-11T09:09:38.453Z</time>
      </trkpt>
      <trkpt lat="46.88684" lon="8.53662">
        <ele>1829</ele>
        <time>2021-08-11T09:09:39.453Z</time>
      </trkpt>
      <trkpt lat="46.88684" lon="8.53661">
        <ele>1830</ele>
        <time>2021-08-11T09:09:40.453Z</time>
      </trkpt>
      <trkpt lat="46.88684" lon="8.53661">
        <ele>1831</ele>
        <time>2021-08-11T09:09:41.453Z</time>
      </trkpt>
      <trkpt lat="46.88685" lon="8.53659">
        <ele>1832</ele>
        <time>2021-08-11T09:09:42.452Z</time>
      </trkpt>
      <trkpt lat="46.88685" lon="8.53661">
        <ele>1832</ele>
        <time>2021-08-11T09:09:43.453Z</time>
      </trkpt>
      <trkpt lat="46.88684" lon="8.53663">
        <ele>1832</ele>
        <time>2021-08-11T09:09:44.453Z</time>
      </trkpt>
      <trkpt lat="46.88684" lon="8.53663">
        <ele>1832</ele>
        <time>2021-08-11T09:09:45.453Z</time>
      </trkpt>
      <trkpt lat="46.88684" lon="8.53664">
        <ele>1833</ele>
        <time>2021-08-11T09:09:46.452Z</time>
      </trkpt>
      <trkpt lat="46.88684" lon="8.53661">
        <ele>1832</ele>
        <time>2021-08-11T09:09:47.454Z</time>
      </trkpt>
      <trkpt lat="46.88684" lon="8.53661">
        <ele>1832</ele>
        <time>2021-08-11T09:09:48.454Z</time>
      </trkpt>
      <trkpt lat="46.88685" lon="8.53661">
        <ele>1832</ele>
        <time>2021-08-11T09:09:49.454Z</time>
      </trkpt>
      <trkpt lat="46.88685" lon="8.5366">
        <ele>1833</ele>
        <time>2021-08-11T09:09:50.454Z</time>
      </trkpt>
      <trkpt lat="46.88684" lon="8.53658">
        <ele>1833</ele>
        <time>2021-08-11T09:09:51.454Z</time>
      </trkpt>
      <trkpt lat="46.88684" lon="8.53657">
        <ele>1833</ele>
        <time>2021-08-11T09:09:52.454Z</time>
      </trkpt>
      <trkpt lat="46.88683" lon="8.53657">
        <ele>1833</ele>
        <time>2021-08-11T09:09:53.455Z</time>
      </trkpt>
      <trkpt lat="46.88683" lon="8.53656">
        <ele>1833</ele>
        <time>2021-08-11T09:09:54.455Z</time>
      </trkpt>
      <trkpt lat="46.88683" lon="8.53655">
        <ele>1833</ele>
        <time>2021-08-11T09:09:55.454Z</time>
      </trkpt>
      <trkpt lat="46.88684" lon="8.53652">
        <ele>1833</ele>
        <time>2021-08-11T09:09:56.454Z</time>
      </trkpt>
      <trkpt lat="46.88684" lon="8.5365">
        <ele>1833</ele>
        <time>2021-08-11T09:09:57.455Z</time>
      </trkpt>
      <trkpt lat="46.88683" lon="8.5365">
        <ele>1833</ele>
        <time>2021-08-11T09:09:58.454Z</time>
      </trkpt>
      <trkpt lat="46.88683" lon="8.53649">
        <ele>1832</ele>
        <time>2021-08-11T09:09:59.455Z</time>
      </trkpt>
      <trkpt lat="46.88682" lon="8.53649">
        <ele>1832</ele>
        <time>2021-08-11T09:10:00.455Z</time>
      </trkpt>
      <trkpt lat="46.88682" lon="8.53649">
        <ele>1831</ele>
        <time>2021-08-11T09:10:01.454Z</time>
      </trkpt>
      <trkpt lat="46.88682" lon="8.53648">
        <ele>1831</ele>
        <time>2021-08-11T09:10:02.455Z</time>
      </trkpt>
      <trkpt lat="46.88681" lon="8.53648">
        <ele>1830</ele>
        <time>2021-08-11T09:10:03.454Z</time>
      </trkpt>
      <trkpt lat="46.88681" lon="8.53648">
        <ele>1830</ele>
        <time>2021-08-11T09:10:04.455Z</time>
      </trkpt>
      <trkpt lat="46.88681" lon="8.53647">
        <ele>1830</ele>
        <time>2021-08-11T09:10:05.455Z</time>
      </trkpt>
      <trkpt lat="46.8868" lon="8.53647">
        <ele>1830</ele>
        <time>2021-08-11T09:10:06.455Z</time>
      </trkpt>
      <trkpt lat="46.88679" lon="8.53646">
        <ele>1829</ele>
        <time>2021-08-11T09:10:07.454Z</time>
      </trkpt>
      <trkpt lat="46.88679" lon="8.53646">
        <ele>1829</ele>
        <time>2021-08-11T09:10:08.455Z</time>
      </trkpt>
      <trkpt lat="46.88678" lon="8.53645">
        <ele>1829</ele>
        <time>2021-08-11T09:10:09.455Z</time>
      </trkpt>
      <trkpt lat="46.88678" lon="8.53644">
        <ele>1829</ele>
        <time>2021-08-11T09:10:10.454Z</time>
      </trkpt>
      <trkpt lat="46.88678" lon="8.53644">
        <ele>1829</ele>
        <time>2021-08-11T09:10:11.455Z</time>
      </trkpt>
      <trkpt lat="46.88678" lon="8.53643">
        <ele>1829</ele>
        <time>2021-08-11T09:10:12.454Z</time>
      </trkpt>
      <trkpt lat="46.88678" lon="8.53642">
        <ele>1830</ele>
        <time>2021-08-11T09:10:13.455Z</time>
      </trkpt>
      <trkpt lat="46.88678" lon="8.53642">
        <ele>1831</ele>
        <time>2021-08-11T09:10:14.455Z</time>
      </trkpt>
      <trkpt lat="46.88678" lon="8.53641">
        <ele>1831</ele>
        <time>2021-08-11T09:10:15.455Z</time>
      </trkpt>
      <trkpt lat="46.88677" lon="8.5364">
        <ele>1832</ele>
        <time>2021-08-11T09:10:16.454Z</time>
      </trkpt>
      <trkpt lat="46.88677" lon="8.53639">
        <ele>1833</ele>
        <time>2021-08-11T09:10:17.454Z</time>
      </trkpt>
      <trkpt lat="46.88677" lon="8.53639">
        <ele>1834</ele>
        <time>2021-08-11T09:10:18.455Z</time>
      </trkpt>
      <trkpt lat="46.88677" lon="8.53639">
        <ele>1834</ele>
        <time>2021-08-11T09:10:19.454Z</time>
      </trkpt>
      <trkpt lat="46.88677" lon="8.53638">
        <ele>1834</ele>
        <time>2021-08-11T09:10:20.455Z</time>
      </trkpt>
      <trkpt lat="46.88677" lon="8.53638">
        <ele>1834</ele>
        <time>2021-08-11T09:10:21.454Z</time>
      </trkpt>
      <trkpt lat="46.88676" lon="8.53638">
        <ele>1835</ele>
        <time>2021-08-11T09:10:22.455Z</time>
      </trkpt>
      <trkpt lat="46.88676" lon="8.53639">
        <ele>1836</ele>
        <time>2021-08-11T09:10:23.454Z</time>
      </trkpt>
      <trkpt lat="46.88675" lon="8.53639">
        <ele>1836</ele>
        <time>2021-08-11T09:10:24.455Z</time>
      </trkpt>
      <trkpt lat="46.88674" lon="8.5364">
        <ele>1837</ele>
        <time>2021-08-11T09:10:25.456Z</time>
      </trkpt>
      <trkpt lat="46.88674" lon="8.5364">
        <ele>1836</ele>
        <time>2021-08-11T09:10:26.455Z</time>
      </trkpt>
      <trkpt lat="46.88674" lon="8.53639">
        <ele>1836</ele>
        <time>2021-08-11T09:10:27.456Z</time>
      </trkpt>
      <trkpt lat="46.88673" lon="8.53639">
        <ele>1836</ele>
        <time>2021-08-11T09:10:28.457Z</time>
      </trkpt>
      <trkpt lat="46.88672" lon="8.53639">
        <ele>1836</ele>
        <time>2021-08-11T09:10:29.457Z</time>
      </trkpt>
      <trkpt lat="46.88672" lon="8.53639">
        <ele>1837</ele>
        <time>2021-08-11T09:10:30.456Z</time>
      </trkpt>
      <trkpt lat="46.88672" lon="8.5364">
        <ele>1837</ele>
        <time>2021-08-11T09:10:31.457Z</time>
      </trkpt>
      <trkpt lat="46.88671" lon="8.5364">
        <ele>1837</ele>
        <time>2021-08-11T09:10:32.456Z</time>
      </trkpt>
      <trkpt lat="46.88671" lon="8.5364">
        <ele>1837</ele>
        <time>2021-08-11T09:10:33.457Z</time>
      </trkpt>
      <trkpt lat="46.88671" lon="8.5364">
        <ele>1837</ele>
        <time>2021-08-11T09:10:34.457Z</time>
      </trkpt>
      <trkpt lat="46.88671" lon="8.53639">
        <ele>1837</ele>
        <time>2021-08-11T09:10:35.458Z</time>
      </trkpt>
      <trkpt lat="46.8867" lon="8.53639">
        <ele>1839</ele>
        <time>2021-08-11T09:10:36.457Z</time>
      </trkpt>
      <trkpt lat="46.8867" lon="8.53639">
        <ele>1840</ele>
        <time>2021-08-11T09:10:37.458Z</time>
      </trkpt>
      <trkpt lat="46.88671" lon="8.53638">
        <ele>1843</ele>
        <time>2021-08-11T09:10:38.458Z</time>
      </trkpt>
      <trkpt lat="46.88672" lon="8.53637">
        <ele>1843</ele>
        <time>2021-08-11T09:10:39.458Z</time>
      </trkpt>
      <trkpt lat="46.88672" lon="8.53637">
        <ele>1844</ele>
        <time>2021-08-11T09:10:40.458Z</time>
      </trkpt>
      <trkpt lat="46.88672" lon="8.53637">
        <ele>1845</ele>
        <time>2021-08-11T09:10:41.458Z</time>
      </trkpt>
      <trkpt lat="46.88673" lon="8.53636">
        <ele>1845</ele>
        <time>2021-08-11T09:10:42.459Z</time>
      </trkpt>
      <trkpt lat="46.88673" lon="8.53636">
        <ele>1846</ele>
        <time>2021-08-11T09:10:43.459Z</time>
      </trkpt>
      <trkpt lat="46.88673" lon="8.53635">
        <ele>1846</ele>
        <time>2021-08-11T09:10:44.459Z</time>
      </trkpt>
      <trkpt lat="46.88673" lon="8.53634">
        <ele>1847</ele>
        <time>2021-08-11T09:10:45.459Z</time>
      </trkpt>
      <trkpt lat="46.88673" lon="8.53634">
        <ele>1847</ele>
        <time>2021-08-11T09:10:46.459Z</time>
      </trkpt>
      <trkpt lat="46.88673" lon="8.53634">
        <ele>1847</ele>
        <time>2021-08-11T09:10:47.458Z</time>
      </trkpt>
      <trkpt lat="46.88672" lon="8.53634">
        <ele>1847</ele>
        <time>2021-08-11T09:10:48.459Z</time>
      </trkpt>
      <trkpt lat="46.88672" lon="8.53634">
        <ele>1847</ele>
        <time>2021-08-11T09:10:49.459Z</time>
      </trkpt>
      <trkpt lat="46.88672" lon="8.53634">
        <ele>1847</ele>
        <time>2021-08-11T09:10:50.459Z</time>
      </trkpt>
      <trkpt lat="46.8867" lon="8.53633">
        <ele>1848</ele>
        <time>2021-08-11T09:10:51.460Z</time>
      </trkpt>
      <trkpt lat="46.8867" lon="8.53633">
        <ele>1848</ele>
        <time>2021-08-11T09:10:52.460Z</time>
      </trkpt>
      <trkpt lat="46.88669" lon="8.53632">
        <ele>1849</ele>
        <time>2021-08-11T09:10:53.459Z</time>
      </trkpt>
      <trkpt lat="46.88669" lon="8.53632">
        <ele>1849</ele>
        <time>2021-08-11T09:10:54.460Z</time>
      </trkpt>
      <trkpt lat="46.88669" lon="8.53632">
        <ele>1849</ele>
        <time>2021-08-11T09:10:55.460Z</time>
      </trkpt>
      <trkpt lat="46.88668" lon="8.53631">
        <ele>1849</ele>
        <time>2021-08-11T09:10:56.459Z</time>
      </trkpt>
      <trkpt lat="46.88668" lon="8.53631">
        <ele>1849</ele>
        <time>2021-08-11T09:10:57.460Z</time>
      </trkpt>
      <trkpt lat="46.88668" lon="8.53631">
        <ele>1849</ele>
        <time>2021-08-11T09:10:58.460Z</time>
      </trkpt>
      <trkpt lat="46.88668" lon="8.53629">
        <ele>1849</ele>
        <time>2021-08-11T09:10:59.461Z</time>
      </trkpt>
      <trkpt lat="46.88669" lon="8.53628">
        <ele>1849</ele>
        <time>2021-08-11T09:11:00.461Z</time>
      </trkpt>
      <trkpt lat="46.88669" lon="8.53628">
        <ele>1849</ele>
        <time>2021-08-11T09:11:01.460Z</time>
      </trkpt>
      <trkpt lat="46.88669" lon="8.53628">
        <ele>1850</ele>
        <time>2021-08-11T09:11:02.461Z</time>
      </trkpt>
      <trkpt lat="46.88666" lon="8.53625">
        <ele>1847</ele>
        <time>2021-08-11T09:11:03.462Z</time>
      </trkpt>
      <trkpt lat="46.88666" lon="8.53624">
        <ele>1847</ele>
        <time>2021-08-11T09:11:04.462Z</time>
      </trkpt>
      <trkpt lat="46.88665" lon="8.53624">
        <ele>1847</ele>
        <time>2021-08-11T09:11:05.461Z</time>
      </trkpt>
      <trkpt lat="46.88665" lon="8.53623">
        <ele>1848</ele>
        <time>2021-08-11T09:11:06.462Z</time>
      </trkpt>
      <trkpt lat="46.88664" lon="8.53623">
        <ele>1848</ele>
        <time>2021-08-11T09:11:07.461Z</time>
      </trkpt>
      <trkpt lat="46.88664" lon="8.53623">
        <ele>1849</ele>
        <time>2021-08-11T09:11:08.461Z</time>
      </trkpt>
      <trkpt lat="46.88663" lon="8.53622">
        <ele>1849</ele>
        <time>2021-08-11T09:11:09.462Z</time>
      </trkpt>
      <trkpt lat="46.88663" lon="8.53622">
        <ele>1849</ele>
        <time>2021-08-11T09:11:10.462Z</time>
      </trkpt>
      <trkpt lat="46.88662" lon="8.53622">
        <ele>1849</ele>
        <time>2021-08-11T09:11:11.462Z</time>
      </trkpt>
      <trkpt lat="46.88662" lon="8.53621">
        <ele>1848</ele>
        <time>2021-08-11T09:11:12.461Z</time>
      </trkpt>
      <trkpt lat="46.88661" lon="8.5362">
        <ele>1848</ele>
        <time>2021-08-11T09:11:13.461Z</time>
      </trkpt>
      <trkpt lat="46.88661" lon="8.5362">
        <ele>1848</ele>
        <time>2021-08-11T09:11:14.462Z</time>
      </trkpt>
      <trkpt lat="46.8866" lon="8.53619">
        <ele>1848</ele>
        <time>2021-08-11T09:11:15.462Z</time>
      </trkpt>
      <trkpt lat="46.8866" lon="8.53619">
        <ele>1849</ele>
        <time>2021-08-11T09:11:16.462Z</time>
      </trkpt>
      <trkpt lat="46.8866" lon="8.53619">
        <ele>1849</ele>
        <time>2021-08-11T09:11:17.461Z</time>
      </trkpt>
      <trkpt lat="46.8866" lon="8.53618">
        <ele>1849</ele>
        <time>2021-08-11T09:11:18.462Z</time>
      </trkpt>
      <trkpt lat="46.8866" lon="8.53618">
        <ele>1849</ele>
        <time>2021-08-11T09:11:19.462Z</time>
      </trkpt>
      <trkpt lat="46.8866" lon="8.53618">
        <ele>1850</ele>
        <time>2021-08-11T09:11:20.462Z</time>
      </trkpt>
      <trkpt lat="46.88661" lon="8.53618">
        <ele>1851</ele>
        <time>2021-08-11T09:11:21.462Z</time>
      </trkpt>
      <trkpt lat="46.88662" lon="8.53617">
        <ele>1851</ele>
        <time>2021-08-11T09:11:22.461Z</time>
      </trkpt>
      <trkpt lat="46.88663" lon="8.53617">
        <ele>1851</ele>
        <time>2021-08-11T09:11:23.462Z</time>
      </trkpt>
      <trkpt lat="46.88663" lon="8.53618">
        <ele>1852</ele>
        <time>2021-08-11T09:11:24.461Z</time>
      </trkpt>
      <trkpt lat="46.88664" lon="8.53618">
        <ele>1852</ele>
        <time>2021-08-11T09:11:25.462Z</time>
      </trkpt>
      <trkpt lat="46.88664" lon="8.53618">
        <ele>1853</ele>
        <time>2021-08-11T09:11:26.462Z</time>
      </trkpt>
      <trkpt lat="46.88666" lon="8.53618">
        <ele>1853</ele>
        <time>2021-08-11T09:11:27.462Z</time>
      </trkpt>
      <trkpt lat="46.88666" lon="8.53617">
        <ele>1854</ele>
        <time>2021-08-11T09:11:28.462Z</time>
      </trkpt>
      <trkpt lat="46.88667" lon="8.53617">
        <ele>1854</ele>
        <time>2021-08-11T09:11:29.462Z</time>
      </trkpt>
      <trkpt lat="46.88667" lon="8.53617">
        <ele>1855</ele>
        <time>2021-08-11T09:11:30.462Z</time>
      </trkpt>
      <trkpt lat="46.88666" lon="8.53616">
        <ele>1854</ele>
        <time>2021-08-11T09:11:31.462Z</time>
      </trkpt>
      <trkpt lat="46.88666" lon="8.53616">
        <ele>1854</ele>
        <time>2021-08-11T09:11:32.462Z</time>
      </trkpt>
      <trkpt lat="46.88665" lon="8.53616">
        <ele>1853</ele>
        <time>2021-08-11T09:11:33.462Z</time>
      </trkpt>
      <trkpt lat="46.88663" lon="8.53615">
        <ele>1854</ele>
        <time>2021-08-11T09:11:34.464Z</time>
      </trkpt>
      <trkpt lat="46.88663" lon="8.53615">
        <ele>1854</ele>
        <time>2021-08-11T09:11:35.463Z</time>
      </trkpt>
      <trkpt lat="46.88662" lon="8.53614">
        <ele>1855</ele>
        <time>2021-08-11T09:11:36.463Z</time>
      </trkpt>
      <trkpt lat="46.88661" lon="8.53614">
        <ele>1855</ele>
        <time>2021-08-11T09:11:37.464Z</time>
      </trkpt>
      <trkpt lat="46.88661" lon="8.53615">
        <ele>1856</ele>
        <time>2021-08-11T09:11:38.463Z</time>
      </trkpt>
      <trkpt lat="46.88661" lon="8.53614">
        <ele>1856</ele>
        <time>2021-08-11T09:11:39.464Z</time>
      </trkpt>
      <trkpt lat="46.88661" lon="8.53614">
        <ele>1857</ele>
        <time>2021-08-11T09:11:40.464Z</time>
      </trkpt>
      <trkpt lat="46.8866" lon="8.53613">
        <ele>1857</ele>
        <time>2021-08-11T09:11:41.464Z</time>
      </trkpt>
      <trkpt lat="46.8866" lon="8.53613">
        <ele>1857</ele>
        <time>2021-08-11T09:11:42.463Z</time>
      </trkpt>
      <trkpt lat="46.88659" lon="8.53613">
        <ele>1857</ele>
        <time>2021-08-11T09:11:43.464Z</time>
      </trkpt>
      <trkpt lat="46.88658" lon="8.53612">
        <ele>1858</ele>
        <time>2021-08-11T09:11:44.464Z</time>
      </trkpt>
      <trkpt lat="46.88658" lon="8.53611">
        <ele>1858</ele>
        <time>2021-08-11T09:11:45.463Z</time>
      </trkpt>
      <trkpt lat="46.88658" lon="8.53611">
        <ele>1858</ele>
        <time>2021-08-11T09:11:46.464Z</time>
      </trkpt>
      <trkpt lat="46.88658" lon="8.53611">
        <ele>1859</ele>
        <time>2021-08-11T09:11:47.463Z</time>
      </trkpt>
      <trkpt lat="46.88657" lon="8.53611">
        <ele>1859</ele>
        <time>2021-08-11T09:11:48.464Z</time>
      </trkpt>
      <trkpt lat="46.88657" lon="8.53611">
        <ele>1859</ele>
        <time>2021-08-11T09:11:49.464Z</time>
      </trkpt>
      <trkpt lat="46.88658" lon="8.53611">
        <ele>1859</ele>
        <time>2021-08-11T09:11:50.463Z</time>
      </trkpt>
      <trkpt lat="46.88658" lon="8.53611">
        <ele>1859</ele>
        <time>2021-08-11T09:11:51.463Z</time>
      </trkpt>
      <trkpt lat="46.88658" lon="8.53611">
        <ele>1859</ele>
        <time>2021-08-11T09:11:52.463Z</time>
      </trkpt>
      <trkpt lat="46.88657" lon="8.53612">
        <ele>1859</ele>
        <time>2021-08-11T09:11:53.463Z</time>
      </trkpt>
      <trkpt lat="46.88656" lon="8.53611">
        <ele>1859</ele>
        <time>2021-08-11T09:11:54.464Z</time>
      </trkpt>
      <trkpt lat="46.88655" lon="8.53611">
        <ele>1859</ele>
        <time>2021-08-11T09:11:55.464Z</time>
      </trkpt>
      <trkpt lat="46.88657" lon="8.5361">
        <ele>1861</ele>
        <time>2021-08-11T09:11:56.464Z</time>
      </trkpt>
      <trkpt lat="46.88658" lon="8.5361">
        <ele>1862</ele>
        <time>2021-08-11T09:11:57.464Z</time>
      </trkpt>
      <trkpt lat="46.88658" lon="8.53611">
        <ele>1863</ele>
        <time>2021-08-11T09:11:58.464Z</time>
      </trkpt>
      <trkpt lat="46.88658" lon="8.53612">
        <ele>1864</ele>
        <time>2021-08-11T09:11:59.464Z</time>
      </trkpt>
      <trkpt lat="46.88659" lon="8.53612">
        <ele>1865</ele>
        <time>2021-08-11T09:12:00.464Z</time>
      </trkpt>
      <trkpt lat="46.8866" lon="8.53612">
        <ele>1866</ele>
        <time>2021-08-11T09:12:01.464Z</time>
      </trkpt>
      <trkpt lat="46.88661" lon="8.53612">
        <ele>1867</ele>
        <time>2021-08-11T09:12:02.464Z</time>
      </trkpt>
      <trkpt lat="46.88661" lon="8.53612">
        <ele>1869</ele>
        <time>2021-08-11T09:12:03.464Z</time>
      </trkpt>
      <trkpt lat="46.88661" lon="8.53613">
        <ele>1870</ele>
        <time>2021-08-11T09:12:04.464Z</time>
      </trkpt>
      <trkpt lat="46.88661" lon="8.53614">
        <ele>1870</ele>
        <time>2021-08-11T09:12:05.464Z</time>
      </trkpt>
      <trkpt lat="46.88661" lon="8.53613">
        <ele>1871</ele>
        <time>2021-08-11T09:12:06.464Z</time>
      </trkpt>
      <trkpt lat="46.88662" lon="8.53613">
        <ele>1872</ele>
        <time>2021-08-11T09:12:07.464Z</time>
      </trkpt>
      <trkpt lat="46.88663" lon="8.53613">
        <ele>1873</ele>
        <time>2021-08-11T09:12:08.464Z</time>
      </trkpt>
      <trkpt lat="46.88663" lon="8.53613">
        <ele>1874</ele>
        <time>2021-08-11T09:12:09.464Z</time>
      </trkpt>
      <trkpt lat="46.88663" lon="8.53611">
        <ele>1874</ele>
        <time>2021-08-11T09:12:10.463Z</time>
      </trkpt>
      <trkpt lat="46.88662" lon="8.53611">
        <ele>1874</ele>
        <time>2021-08-11T09:12:11.464Z</time>
      </trkpt>
      <trkpt lat="46.88661" lon="8.53609">
        <ele>1873</ele>
        <time>2021-08-11T09:12:12.464Z</time>
      </trkpt>
      <trkpt lat="46.8866" lon="8.53609">
        <ele>1873</ele>
        <time>2021-08-11T09:12:13.464Z</time>
      </trkpt>
      <trkpt lat="46.8866" lon="8.53608">
        <ele>1872</ele>
        <time>2021-08-11T09:12:14.464Z</time>
      </trkpt>
      <trkpt lat="46.88659" lon="8.53607">
        <ele>1871</ele>
        <time>2021-08-11T09:12:15.464Z</time>
      </trkpt>
      <trkpt lat="46.88659" lon="8.53607">
        <ele>1870</ele>
        <time>2021-08-11T09:12:16.464Z</time>
      </trkpt>
      <trkpt lat="46.88658" lon="8.53606">
        <ele>1869</ele>
        <time>2021-08-11T09:12:17.464Z</time>
      </trkpt>
      <trkpt lat="46.88657" lon="8.53606">
        <ele>1868</ele>
        <time>2021-08-11T09:12:18.464Z</time>
      </trkpt>
      <trkpt lat="46.88657" lon="8.53605">
        <ele>1867</ele>
        <time>2021-08-11T09:12:19.464Z</time>
      </trkpt>
      <trkpt lat="46.88657" lon="8.53605">
        <ele>1867</ele>
        <time>2021-08-11T09:12:20.464Z</time>
      </trkpt>
      <trkpt lat="46.88657" lon="8.53606">
        <ele>1867</ele>
        <time>2021-08-11T09:12:21.464Z</time>
      </trkpt>
      <trkpt lat="46.88656" lon="8.53606">
        <ele>1866</ele>
        <time>2021-08-11T09:12:22.464Z</time>
      </trkpt>
      <trkpt lat="46.88655" lon="8.53606">
        <ele>1866</ele>
        <time>2021-08-11T09:12:23.464Z</time>
      </trkpt>
      <trkpt lat="46.88655" lon="8.53606">
        <ele>1865</ele>
        <time>2021-08-11T09:12:24.464Z</time>
      </trkpt>
      <trkpt lat="46.88655" lon="8.53607">
        <ele>1864</ele>
        <time>2021-08-11T09:12:25.464Z</time>
      </trkpt>
      <trkpt lat="46.88655" lon="8.53607">
        <ele>1864</ele>
        <time>2021-08-11T09:12:26.463Z</time>
      </trkpt>
      <trkpt lat="46.88654" lon="8.53607">
        <ele>1863</ele>
        <time>2021-08-11T09:12:27.464Z</time>
      </trkpt>
      <trkpt lat="46.88654" lon="8.53607">
        <ele>1863</ele>
        <time>2021-08-11T09:12:28.463Z</time>
      </trkpt>
      <trkpt lat="46.88653" lon="8.53606">
        <ele>1862</ele>
        <time>2021-08-11T09:12:29.464Z</time>
      </trkpt>
      <trkpt lat="46.88653" lon="8.53606">
        <ele>1862</ele>
        <time>2021-08-11T09:12:30.464Z</time>
      </trkpt>
      <trkpt lat="46.88653" lon="8.53605">
        <ele>1861</ele>
        <time>2021-08-11T09:12:31.463Z</time>
      </trkpt>
      <trkpt lat="46.88653" lon="8.53604">
        <ele>1861</ele>
        <time>2021-08-11T09:12:32.464Z</time>
      </trkpt>
      <trkpt lat="46.88652" lon="8.53603">
        <ele>1861</ele>
        <time>2021-08-11T09:12:33.464Z</time>
      </trkpt>
      <trkpt lat="46.88652" lon="8.53603">
        <ele>1861</ele>
        <time>2021-08-11T09:12:34.463Z</time>
      </trkpt>
      <trkpt lat="46.88652" lon="8.53602">
        <ele>1861</ele>
        <time>2021-08-11T09:12:35.464Z</time>
      </trkpt>
      <trkpt lat="46.88651" lon="8.53601">
        <ele>1861</ele>
        <time>2021-08-11T09:12:36.463Z</time>
      </trkpt>
      <trkpt lat="46.88651" lon="8.53601">
        <ele>1862</ele>
        <time>2021-08-11T09:12:37.464Z</time>
      </trkpt>
      <trkpt lat="46.88651" lon="8.536">
        <ele>1862</ele>
        <time>2021-08-11T09:12:38.464Z</time>
      </trkpt>
      <trkpt lat="46.88652" lon="8.536">
        <ele>1862</ele>
        <time>2021-08-11T09:12:39.464Z</time>
      </trkpt>
      <trkpt lat="46.88652" lon="8.53599">
        <ele>1863</ele>
        <time>2021-08-11T09:12:40.464Z</time>
      </trkpt>
      <trkpt lat="46.88652" lon="8.53599">
        <ele>1864</ele>
        <time>2021-08-11T09:12:41.463Z</time>
      </trkpt>
      <trkpt lat="46.88653" lon="8.53598">
        <ele>1864</ele>
        <time>2021-08-11T09:12:42.464Z</time>
      </trkpt>
      <trkpt lat="46.88654" lon="8.53597">
        <ele>1867</ele>
        <time>2021-08-11T09:12:43.466Z</time>
      </trkpt>
      <trkpt lat="46.88653" lon="8.53598">
        <ele>1867</ele>
        <time>2021-08-11T09:12:44.465Z</time>
      </trkpt>
      <trkpt lat="46.88654" lon="8.53597">
        <ele>1867</ele>
        <time>2021-08-11T09:12:45.466Z</time>
      </trkpt>
      <trkpt lat="46.88654" lon="8.53596">
        <ele>1866</ele>
        <time>2021-08-11T09:12:46.466Z</time>
      </trkpt>
      <trkpt lat="46.88654" lon="8.53596">
        <ele>1865</ele>
        <time>2021-08-11T09:12:47.467Z</time>
      </trkpt>
      <trkpt lat="46.88654" lon="8.53596">
        <ele>1865</ele>
        <time>2021-08-11T09:12:48.466Z</time>
      </trkpt>
      <trkpt lat="46.88653" lon="8.53596">
        <ele>1869</ele>
        <time>2021-08-11T09:12:49.467Z</time>
      </trkpt>
      <trkpt lat="46.88653" lon="8.53595">
        <ele>1870</ele>
        <time>2021-08-11T09:12:50.467Z</time>
      </trkpt>
      <trkpt lat="46.88653" lon="8.53595">
        <ele>1870</ele>
        <time>2021-08-11T09:12:51.467Z</time>
      </trkpt>
      <trkpt lat="46.88654" lon="8.53595">
        <ele>1870</ele>
        <time>2021-08-11T09:12:52.466Z</time>
      </trkpt>
      <trkpt lat="46.88653" lon="8.53597">
        <ele>1866</ele>
        <time>2021-08-11T09:12:53.468Z</time>
      </trkpt>
      <trkpt lat="46.88653" lon="8.53597">
        <ele>1866</ele>
        <time>2021-08-11T09:12:54.467Z</time>
      </trkpt>
      <trkpt lat="46.88652" lon="8.53596">
        <ele>1868</ele>
        <time>2021-08-11T09:12:55.469Z</time>
      </trkpt>
      <trkpt lat="46.88652" lon="8.53596">
        <ele>1868</ele>
        <time>2021-08-11T09:12:56.470Z</time>
      </trkpt>
      <trkpt lat="46.88652" lon="8.53596">
        <ele>1868</ele>
        <time>2021-08-11T09:12:57.469Z</time>
      </trkpt>
      <trkpt lat="46.88649" lon="8.53594">
        <ele>1869</ele>
        <time>2021-08-11T09:12:58.470Z</time>
      </trkpt>
      <trkpt lat="46.8865" lon="8.53595">
        <ele>1869</ele>
        <time>2021-08-11T09:12:59.469Z</time>
      </trkpt>
      <trkpt lat="46.88646" lon="8.53591">
        <ele>1889</ele>
        <time>2021-08-11T09:13:00.470Z</time>
      </trkpt>
      <trkpt lat="46.88646" lon="8.53591">
        <ele>1889</ele>
        <time>2021-08-11T09:13:01.469Z</time>
      </trkpt>
      <trkpt lat="46.88647" lon="8.53588">
        <ele>1867</ele>
        <time>2021-08-11T09:13:02.470Z</time>
      </trkpt>
      <trkpt lat="46.88647" lon="8.53588">
        <ele>1867</ele>
        <time>2021-08-11T09:13:03.469Z</time>
      </trkpt>
      <trkpt lat="46.88647" lon="8.53588">
        <ele>1867</ele>
        <time>2021-08-11T09:13:04.470Z</time>
      </trkpt>
      <trkpt lat="46.8865" lon="8.53598">
        <ele>1861</ele>
        <time>2021-08-11T09:13:05.471Z</time>
      </trkpt>
      <trkpt lat="46.88651" lon="8.536">
        <ele>1864</ele>
        <time>2021-08-11T09:13:06.473Z</time>
      </trkpt>
      <trkpt lat="46.88652" lon="8.53599">
        <ele>1865</ele>
        <time>2021-08-11T09:13:07.472Z</time>
      </trkpt>
      <trkpt lat="46.88651" lon="8.53599">
        <ele>1866</ele>
        <time>2021-08-11T09:13:08.473Z</time>
      </trkpt>
      <trkpt lat="46.8865" lon="8.536">
        <ele>1866</ele>
        <time>2021-08-11T09:13:09.473Z</time>
      </trkpt>
      <trkpt lat="46.8865" lon="8.536">
        <ele>1866</ele>
        <time>2021-08-11T09:13:10.472Z</time>
      </trkpt>
      <trkpt lat="46.8865" lon="8.53601">
        <ele>1866</ele>
        <time>2021-08-11T09:13:11.472Z</time>
      </trkpt>
      <trkpt lat="46.8865" lon="8.53602">
        <ele>1864</ele>
        <time>2021-08-11T09:13:12.473Z</time>
      </trkpt>
      <trkpt lat="46.8865" lon="8.53602">
        <ele>1864</ele>
        <time>2021-08-11T09:13:13.472Z</time>
      </trkpt>
      <trkpt lat="46.88652" lon="8.53602">
        <ele>1874</ele>
        <time>2021-08-11T09:13:14.472Z</time>
      </trkpt>
      <trkpt lat="46.88653" lon="8.53601">
        <ele>1876</ele>
        <time>2021-08-11T09:13:15.473Z</time>
      </trkpt>
      <trkpt lat="46.88653" lon="8.536">
        <ele>1876</ele>
        <time>2021-08-11T09:13:16.473Z</time>
      </trkpt>
      <trkpt lat="46.88654" lon="8.53599">
        <ele>1873</ele>
        <time>2021-08-11T09:13:17.472Z</time>
      </trkpt>
      <trkpt lat="46.88653" lon="8.53599">
        <ele>1872</ele>
        <time>2021-08-11T09:13:18.473Z</time>
      </trkpt>
      <trkpt lat="46.88653" lon="8.53599">
        <ele>1872</ele>
        <time>2021-08-11T09:13:19.472Z</time>
      </trkpt>
      <trkpt lat="46.88654" lon="8.53598">
        <ele>1872</ele>
        <time>2021-08-11T09:13:20.473Z</time>
      </trkpt>
      <trkpt lat="46.88654" lon="8.53598">
        <ele>1872</ele>
        <time>2021-08-11T09:13:21.473Z</time>
      </trkpt>
      <trkpt lat="46.88656" lon="8.53597">
        <ele>1871</ele>
        <time>2021-08-11T09:13:22.472Z</time>
      </trkpt>
      <trkpt lat="46.88656" lon="8.53598">
        <ele>1871</ele>
        <time>2021-08-11T09:13:23.472Z</time>
      </trkpt>
      <trkpt lat="46.88656" lon="8.53598">
        <ele>1871</ele>
        <time>2021-08-11T09:13:24.473Z</time>
      </trkpt>
      <trkpt lat="46.88656" lon="8.53599">
        <ele>1869</ele>
        <time>2021-08-11T09:13:25.474Z</time>
      </trkpt>
      <trkpt lat="46.88656" lon="8.53599">
        <ele>1870</ele>
        <time>2021-08-11T09:13:26.473Z</time>
      </trkpt>
      <trkpt lat="46.88655" lon="8.536">
        <ele>1870</ele>
        <time>2021-08-11T09:13:27.473Z</time>
      </trkpt>
      <trkpt lat="46.88655" lon="8.536">
        <ele>1869</ele>
        <time>2021-08-11T09:13:28.474Z</time>
      </trkpt>
      <trkpt lat="46.88654" lon="8.536">
        <ele>1869</ele>
        <time>2021-08-11T09:13:29.474Z</time>
      </trkpt>
      <trkpt lat="46.88654" lon="8.53601">
        <ele>1869</ele>
        <time>2021-08-11T09:13:30.473Z</time>
      </trkpt>
      <trkpt lat="46.88654" lon="8.53601">
        <ele>1870</ele>
        <time>2021-08-11T09:13:31.473Z</time>
      </trkpt>
      <trkpt lat="46.88655" lon="8.53601">
        <ele>1870</ele>
        <time>2021-08-11T09:13:32.473Z</time>
      </trkpt>
      <trkpt lat="46.88655" lon="8.536">
        <ele>1871</ele>
        <time>2021-08-11T09:13:33.473Z</time>
      </trkpt>
      <trkpt lat="46.88651" lon="8.53599">
        <ele>1869</ele>
        <time>2021-08-11T09:13:34.474Z</time>
      </trkpt>
      <trkpt lat="46.88651" lon="8.53598">
        <ele>1869</ele>
        <time>2021-08-11T09:13:35.474Z</time>
      </trkpt>
      <trkpt lat="46.88651" lon="8.53595">
        <ele>1868</ele>
        <time>2021-08-11T09:13:36.474Z</time>
      </trkpt>
      <trkpt lat="46.88651" lon="8.53595">
        <ele>1868</ele>
        <time>2021-08-11T09:13:37.475Z</time>
      </trkpt>
      <trkpt lat="46.88651" lon="8.53596">
        <ele>1868</ele>
        <time>2021-08-11T09:13:38.475Z</time>
      </trkpt>
      <trkpt lat="46.88651" lon="8.53597">
        <ele>1868</ele>
        <time>2021-08-11T09:13:39.474Z</time>
      </trkpt>
      <trkpt lat="46.88651" lon="8.53597">
        <ele>1868</ele>
        <time>2021-08-11T09:13:40.474Z</time>
      </trkpt>
      <trkpt lat="46.8865" lon="8.53596">
        <ele>1868</ele>
        <time>2021-08-11T09:13:41.475Z</time>
      </trkpt>
      <trkpt lat="46.8865" lon="8.53596">
        <ele>1868</ele>
        <time>2021-08-11T09:13:42.474Z</time>
      </trkpt>
      <trkpt lat="46.8865" lon="8.53594">
        <ele>1868</ele>
        <time>2021-08-11T09:13:43.475Z</time>
      </trkpt>
      <trkpt lat="46.8865" lon="8.53594">
        <ele>1867</ele>
        <time>2021-08-11T09:13:44.475Z</time>
      </trkpt>
      <trkpt lat="46.8865" lon="8.53594">
        <ele>1866</ele>
        <time>2021-08-11T09:13:45.477Z</time>
      </trkpt>
      <trkpt lat="46.8865" lon="8.53594">
        <ele>1866</ele>
        <time>2021-08-11T09:13:46.476Z</time>
      </trkpt>
      <trkpt lat="46.88651" lon="8.53595">
        <ele>1865</ele>
        <time>2021-08-11T09:13:47.477Z</time>
      </trkpt>
      <trkpt lat="46.8865" lon="8.53595">
        <ele>1865</ele>
        <time>2021-08-11T09:13:48.477Z</time>
      </trkpt>
      <trkpt lat="46.8865" lon="8.53596">
        <ele>1866</ele>
        <time>2021-08-11T09:13:49.477Z</time>
      </trkpt>
      <trkpt lat="46.88649" lon="8.53596">
        <ele>1868</ele>
        <time>2021-08-11T09:13:50.476Z</time>
      </trkpt>
      <trkpt lat="46.88649" lon="8.53595">
        <ele>1869</ele>
        <time>2021-08-11T09:13:51.477Z</time>
      </trkpt>
      <trkpt lat="46.88651" lon="8.53593">
        <ele>1872</ele>
        <time>2021-08-11T09:13:52.476Z</time>
      </trkpt>
      <trkpt lat="46.88651" lon="8.53593">
        <ele>1873</ele>
        <time>2021-08-11T09:13:53.477Z</time>
      </trkpt>
      <trkpt lat="46.88652" lon="8.53594">
        <ele>1873</ele>
        <time>2021-08-11T09:13:54.477Z</time>
      </trkpt>
      <trkpt lat="46.88652" lon="8.53594">
        <ele>1873</ele>
        <time>2021-08-11T09:13:55.477Z</time>
      </trkpt>
      <trkpt lat="46.88652" lon="8.53594">
        <ele>1873</ele>
        <time>2021-08-11T09:13:56.477Z</time>
      </trkpt>
      <trkpt lat="46.88653" lon="8.53594">
        <ele>1873</ele>
        <time>2021-08-11T09:13:57.476Z</time>
      </trkpt>
      <trkpt lat="46.88653" lon="8.53594">
        <ele>1873</ele>
        <time>2021-08-11T09:13:58.476Z</time>
      </trkpt>
      <trkpt lat="46.88653" lon="8.53593">
        <ele>1873</ele>
        <time>2021-08-11T09:13:59.476Z</time>
      </trkpt>
      <trkpt lat="46.88652" lon="8.53593">
        <ele>1872</ele>
        <time>2021-08-11T09:14:00.476Z</time>
      </trkpt>
      <trkpt lat="46.88654" lon="8.5359">
        <ele>1869</ele>
        <time>2021-08-11T09:14:01.477Z</time>
      </trkpt>
      <trkpt lat="46.88654" lon="8.53589">
        <ele>1869</ele>
        <time>2021-08-11T09:14:02.477Z</time>
      </trkpt>
      <trkpt lat="46.88654" lon="8.53589">
        <ele>1868</ele>
        <time>2021-08-11T09:14:03.478Z</time>
      </trkpt>
      <trkpt lat="46.88653" lon="8.53588">
        <ele>1868</ele>
        <time>2021-08-11T09:14:04.477Z</time>
      </trkpt>
      <trkpt lat="46.88653" lon="8.53588">
        <ele>1868</ele>
        <time>2021-08-11T09:14:05.478Z</time>
      </trkpt>
      <trkpt lat="46.88652" lon="8.53588">
        <ele>1867</ele>
        <time>2021-08-11T09:14:06.478Z</time>
      </trkpt>
      <trkpt lat="46.88652" lon="8.53587">
        <ele>1867</ele>
        <time>2021-08-11T09:14:07.478Z</time>
      </trkpt>
      <trkpt lat="46.88652" lon="8.53587">
        <ele>1867</ele>
        <time>2021-08-11T09:14:08.478Z</time>
      </trkpt>
      <trkpt lat="46.88651" lon="8.53587">
        <ele>1867</ele>
        <time>2021-08-11T09:14:09.478Z</time>
      </trkpt>
      <trkpt lat="46.88651" lon="8.53586">
        <ele>1866</ele>
        <time>2021-08-11T09:14:10.477Z</time>
      </trkpt>
      <trkpt lat="46.88651" lon="8.53586">
        <ele>1866</ele>
        <time>2021-08-11T09:14:11.478Z</time>
      </trkpt>
      <trkpt lat="46.8865" lon="8.53587">
        <ele>1865</ele>
        <time>2021-08-11T09:14:12.478Z</time>
      </trkpt>
      <trkpt lat="46.8865" lon="8.53586">
        <ele>1865</ele>
        <time>2021-08-11T09:14:13.477Z</time>
      </trkpt>
      <trkpt lat="46.8865" lon="8.53586">
        <ele>1865</ele>
        <time>2021-08-11T09:14:14.478Z</time>
      </trkpt>
      <trkpt lat="46.8865" lon="8.53586">
        <ele>1865</ele>
        <time>2021-08-11T09:14:15.477Z</time>
      </trkpt>
      <trkpt lat="46.8865" lon="8.53586">
        <ele>1864</ele>
        <time>2021-08-11T09:14:16.478Z</time>
      </trkpt>
      <trkpt lat="46.88649" lon="8.53586">
        <ele>1863</ele>
        <time>2021-08-11T09:14:17.477Z</time>
      </trkpt>
      <trkpt lat="46.88648" lon="8.53586">
        <ele>1864</ele>
        <time>2021-08-11T09:14:18.478Z</time>
      </trkpt>
      <trkpt lat="46.88648" lon="8.53585">
        <ele>1864</ele>
        <time>2021-08-11T09:14:19.477Z</time>
      </trkpt>
      <trkpt lat="46.88648" lon="8.53584">
        <ele>1864</ele>
        <time>2021-08-11T09:14:20.478Z</time>
      </trkpt>
      <trkpt lat="46.88648" lon="8.53584">
        <ele>1864</ele>
        <time>2021-08-11T09:14:21.478Z</time>
      </trkpt>
      <trkpt lat="46.88647" lon="8.53583">
        <ele>1864</ele>
        <time>2021-08-11T09:14:22.478Z</time>
      </trkpt>
      <trkpt lat="46.88647" lon="8.53583">
        <ele>1864</ele>
        <time>2021-08-11T09:14:23.478Z</time>
      </trkpt>
      <trkpt lat="46.88647" lon="8.53583">
        <ele>1864</ele>
        <time>2021-08-11T09:14:24.478Z</time>
      </trkpt>
      <trkpt lat="46.88648" lon="8.53583">
        <ele>1864</ele>
        <time>2021-08-11T09:14:25.478Z</time>
      </trkpt>
      <trkpt lat="46.88649" lon="8.53582">
        <ele>1864</ele>
        <time>2021-08-11T09:14:26.478Z</time>
      </trkpt>
      <trkpt lat="46.88649" lon="8.53582">
        <ele>1864</ele>
        <time>2021-08-11T09:14:27.478Z</time>
      </trkpt>
      <trkpt lat="46.8865" lon="8.5358">
        <ele>1864</ele>
        <time>2021-08-11T09:14:28.478Z</time>
      </trkpt>
      <trkpt lat="46.88651" lon="8.5358">
        <ele>1864</ele>
        <time>2021-08-11T09:14:29.478Z</time>
      </trkpt>
      <trkpt lat="46.8865" lon="8.5358">
        <ele>1864</ele>
        <time>2021-08-11T09:14:30.477Z</time>
      </trkpt>
      <trkpt lat="46.8865" lon="8.5358">
        <ele>1864</ele>
        <time>2021-08-11T09:14:31.478Z</time>
      </trkpt>
      <trkpt lat="46.88648" lon="8.53579">
        <ele>1864</ele>
        <time>2021-08-11T09:14:32.478Z</time>
      </trkpt>
      <trkpt lat="46.88649" lon="8.53579">
        <ele>1864</ele>
        <time>2021-08-11T09:14:33.478Z</time>
      </trkpt>
      <trkpt lat="46.88648" lon="8.53578">
        <ele>1864</ele>
        <time>2021-08-11T09:14:34.478Z</time>
      </trkpt>
      <trkpt lat="46.88647" lon="8.53575">
        <ele>1865</ele>
        <time>2021-08-11T09:14:35.480Z</time>
      </trkpt>
      <trkpt lat="46.88648" lon="8.53574">
        <ele>1864</ele>
        <time>2021-08-11T09:14:36.480Z</time>
      </trkpt>
      <trkpt lat="46.88649" lon="8.53574">
        <ele>1864</ele>
        <time>2021-08-11T09:14:37.479Z</time>
      </trkpt>
      <trkpt lat="46.88646" lon="8.53573">
        <ele>1863</ele>
        <time>2021-08-11T09:14:38.479Z</time>
      </trkpt>
      <trkpt lat="46.88646" lon="8.53573">
        <ele>1864</ele>
        <time>2021-08-11T09:14:39.479Z</time>
      </trkpt>
      <trkpt lat="46.88645" lon="8.53573">
        <ele>1864</ele>
        <time>2021-08-11T09:14:40.479Z</time>
      </trkpt>
      <trkpt lat="46.88644" lon="8.53571">
        <ele>1865</ele>
        <time>2021-08-11T09:14:41.479Z</time>
      </trkpt>
      <trkpt lat="46.88643" lon="8.53571">
        <ele>1865</ele>
        <time>2021-08-11T09:14:42.479Z</time>
      </trkpt>
      <trkpt lat="46.88642" lon="8.53571">
        <ele>1865</ele>
        <time>2021-08-11T09:14:43.479Z</time>
      </trkpt>
      <trkpt lat="46.88641" lon="8.5357">
        <ele>1865</ele>
        <time>2021-08-11T09:14:44.479Z</time>
      </trkpt>
      <trkpt lat="46.88641" lon="8.53569">
        <ele>1865</ele>
        <time>2021-08-11T09:14:45.479Z</time>
      </trkpt>
      <trkpt lat="46.88641" lon="8.53569">
        <ele>1865</ele>
        <time>2021-08-11T09:14:46.479Z</time>
      </trkpt>
      <trkpt lat="46.8864" lon="8.53568">
        <ele>1865</ele>
        <time>2021-08-11T09:14:47.479Z</time>
      </trkpt>
      <trkpt lat="46.88639" lon="8.53568">
        <ele>1865</ele>
        <time>2021-08-11T09:14:48.479Z</time>
      </trkpt>
      <trkpt lat="46.88638" lon="8.53568">
        <ele>1865</ele>
        <time>2021-08-11T09:14:49.479Z</time>
      </trkpt>
      <trkpt lat="46.88637" lon="8.53568">
        <ele>1865</ele>
        <time>2021-08-11T09:14:50.479Z</time>
      </trkpt>
      <trkpt lat="46.88637" lon="8.53569">
        <ele>1864</ele>
        <time>2021-08-11T09:14:51.480Z</time>
      </trkpt>
      <trkpt lat="46.88636" lon="8.53569">
        <ele>1864</ele>
        <time>2021-08-11T09:14:52.479Z</time>
      </trkpt>
      <trkpt lat="46.88635" lon="8.53569">
        <ele>1863</ele>
        <time>2021-08-11T09:14:53.479Z</time>
      </trkpt>
      <trkpt lat="46.88635" lon="8.53569">
        <ele>1862</ele>
        <time>2021-08-11T09:14:54.480Z</time>
      </trkpt>
      <trkpt lat="46.88634" lon="8.53568">
        <ele>1861</ele>
        <time>2021-08-11T09:14:55.479Z</time>
      </trkpt>
      <trkpt lat="46.88634" lon="8.53568">
        <ele>1860</ele>
        <time>2021-08-11T09:14:56.479Z</time>
      </trkpt>
      <trkpt lat="46.88633" lon="8.53568">
        <ele>1860</ele>
        <time>2021-08-11T09:14:57.480Z</time>
      </trkpt>
      <trkpt lat="46.88633" lon="8.53568">
        <ele>1859</ele>
        <time>2021-08-11T09:14:58.479Z</time>
      </trkpt>
      <trkpt lat="46.88633" lon="8.53568">
        <ele>1859</ele>
        <time>2021-08-11T09:14:59.479Z</time>
      </trkpt>
      <trkpt lat="46.88634" lon="8.53567">
        <ele>1856</ele>
        <time>2021-08-11T09:15:00.481Z</time>
      </trkpt>
      <trkpt lat="46.88633" lon="8.53567">
        <ele>1856</ele>
        <time>2021-08-11T09:15:01.480Z</time>
      </trkpt>
      <trkpt lat="46.88633" lon="8.53567">
        <ele>1856</ele>
        <time>2021-08-11T09:15:02.480Z</time>
      </trkpt>
      <trkpt lat="46.88633" lon="8.53567">
        <ele>1854</ele>
        <time>2021-08-11T09:15:03.481Z</time>
      </trkpt>
      <trkpt lat="46.88632" lon="8.53567">
        <ele>1853</ele>
        <time>2021-08-11T09:15:04.480Z</time>
      </trkpt>
      <trkpt lat="46.88632" lon="8.53567">
        <ele>1853</ele>
        <time>2021-08-11T09:15:05.481Z</time>
      </trkpt>
      <trkpt lat="46.88632" lon="8.53567">
        <ele>1852</ele>
        <time>2021-08-11T09:15:06.481Z</time>
      </trkpt>
      <trkpt lat="46.88632" lon="8.53567">
        <ele>1852</ele>
        <time>2021-08-11T09:15:07.480Z</time>
      </trkpt>
      <trkpt lat="46.88632" lon="8.53567">
        <ele>1852</ele>
        <time>2021-08-11T09:15:08.481Z</time>
      </trkpt>
      <trkpt lat="46.88632" lon="8.53567">
        <ele>1852</ele>
        <time>2021-08-11T09:15:09.481Z</time>
      </trkpt>
      <trkpt lat="46.88632" lon="8.53568">
        <ele>1852</ele>
        <time>2021-08-11T09:15:10.481Z</time>
      </trkpt>
      <trkpt lat="46.88632" lon="8.53569">
        <ele>1851</ele>
        <time>2021-08-11T09:15:11.481Z</time>
      </trkpt>
      <trkpt lat="46.88632" lon="8.5357">
        <ele>1851</ele>
        <time>2021-08-11T09:15:12.480Z</time>
      </trkpt>
      <trkpt lat="46.88632" lon="8.5357">
        <ele>1851</ele>
        <time>2021-08-11T09:15:13.480Z</time>
      </trkpt>
      <trkpt lat="46.88632" lon="8.5357">
        <ele>1851</ele>
        <time>2021-08-11T09:15:14.481Z</time>
      </trkpt>
      <trkpt lat="46.88632" lon="8.5357">
        <ele>1851</ele>
        <time>2021-08-11T09:15:15.480Z</time>
      </trkpt>
      <trkpt lat="46.88636" lon="8.53568">
        <ele>1852</ele>
        <time>2021-08-11T09:15:16.481Z</time>
      </trkpt>
      <trkpt lat="46.88636" lon="8.53567">
        <ele>1852</ele>
        <time>2021-08-11T09:15:17.481Z</time>
      </trkpt>
      <trkpt lat="46.88639" lon="8.53562">
        <ele>1857</ele>
        <time>2021-08-11T09:15:18.482Z</time>
      </trkpt>
      <trkpt lat="46.88638" lon="8.53561">
        <ele>1857</ele>
        <time>2021-08-11T09:15:19.482Z</time>
      </trkpt>
      <trkpt lat="46.88638" lon="8.53559">
        <ele>1858</ele>
        <time>2021-08-11T09:15:20.484Z</time>
      </trkpt>
      <trkpt lat="46.88637" lon="8.53559">
        <ele>1859</ele>
        <time>2021-08-11T09:15:21.484Z</time>
      </trkpt>
      <trkpt lat="46.88637" lon="8.53558">
        <ele>1859</ele>
        <time>2021-08-11T09:15:22.483Z</time>
      </trkpt>
      <trkpt lat="46.88636" lon="8.53558">
        <ele>1860</ele>
        <time>2021-08-11T09:15:23.484Z</time>
      </trkpt>
      <trkpt lat="46.88636" lon="8.53558">
        <ele>1860</ele>
        <time>2021-08-11T09:15:24.483Z</time>
      </trkpt>
      <trkpt lat="46.88635" lon="8.53557">
        <ele>1860</ele>
        <time>2021-08-11T09:15:25.484Z</time>
      </trkpt>
      <trkpt lat="46.88635" lon="8.53556">
        <ele>1860</ele>
        <time>2021-08-11T09:15:26.484Z</time>
      </trkpt>
      <trkpt lat="46.88633" lon="8.53556">
        <ele>1860</ele>
        <time>2021-08-11T09:15:27.483Z</time>
      </trkpt>
      <trkpt lat="46.88632" lon="8.53556">
        <ele>1861</ele>
        <time>2021-08-11T09:15:28.484Z</time>
      </trkpt>
      <trkpt lat="46.88631" lon="8.53556">
        <ele>1861</ele>
        <time>2021-08-11T09:15:29.484Z</time>
      </trkpt>
      <trkpt lat="46.88631" lon="8.53556">
        <ele>1861</ele>
        <time>2021-08-11T09:15:30.484Z</time>
      </trkpt>
      <trkpt lat="46.8863" lon="8.53555">
        <ele>1862</ele>
        <time>2021-08-11T09:15:31.484Z</time>
      </trkpt>
      <trkpt lat="46.88629" lon="8.53555">
        <ele>1862</ele>
        <time>2021-08-11T09:15:32.483Z</time>
      </trkpt>
      <trkpt lat="46.88629" lon="8.53555">
        <ele>1862</ele>
        <time>2021-08-11T09:15:33.484Z</time>
      </trkpt>
      <trkpt lat="46.88628" lon="8.53555">
        <ele>1861</ele>
        <time>2021-08-11T09:15:34.484Z</time>
      </trkpt>
      <trkpt lat="46.88627" lon="8.53555">
        <ele>1861</ele>
        <time>2021-08-11T09:15:35.483Z</time>
      </trkpt>
      <trkpt lat="46.88627" lon="8.53555">
        <ele>1861</ele>
        <time>2021-08-11T09:15:36.483Z</time>
      </trkpt>
      <trkpt lat="46.88627" lon="8.53555">
        <ele>1861</ele>
        <time>2021-08-11T09:15:37.485Z</time>
      </trkpt>
      <trkpt lat="46.88625" lon="8.53555">
        <ele>1861</ele>
        <time>2021-08-11T09:15:38.485Z</time>
      </trkpt>
      <trkpt lat="46.88624" lon="8.53555">
        <ele>1861</ele>
        <time>2021-08-11T09:15:39.484Z</time>
      </trkpt>
      <trkpt lat="46.88622" lon="8.53555">
        <ele>1861</ele>
        <time>2021-08-11T09:15:40.485Z</time>
      </trkpt>
      <trkpt lat="46.88621" lon="8.53556">
        <ele>1861</ele>
        <time>2021-08-11T09:15:41.485Z</time>
      </trkpt>
      <trkpt lat="46.88621" lon="8.53556">
        <ele>1861</ele>
        <time>2021-08-11T09:15:42.485Z</time>
      </trkpt>
      <trkpt lat="46.8862" lon="8.53556">
        <ele>1860</ele>
        <time>2021-08-11T09:15:43.485Z</time>
      </trkpt>
      <trkpt lat="46.8862" lon="8.53555">
        <ele>1860</ele>
        <time>2021-08-11T09:15:44.484Z</time>
      </trkpt>
      <trkpt lat="46.88619" lon="8.53555">
        <ele>1859</ele>
        <time>2021-08-11T09:15:45.485Z</time>
      </trkpt>
      <trkpt lat="46.88619" lon="8.53555">
        <ele>1858</ele>
        <time>2021-08-11T09:15:46.485Z</time>
      </trkpt>
      <trkpt lat="46.88618" lon="8.53554">
        <ele>1858</ele>
        <time>2021-08-11T09:15:47.485Z</time>
      </trkpt>
      <trkpt lat="46.88617" lon="8.53553">
        <ele>1858</ele>
        <time>2021-08-11T09:15:48.485Z</time>
      </trkpt>
      <trkpt lat="46.88616" lon="8.53553">
        <ele>1857</ele>
        <time>2021-08-11T09:15:49.484Z</time>
      </trkpt>
      <trkpt lat="46.88616" lon="8.53553">
        <ele>1857</ele>
        <time>2021-08-11T09:15:50.484Z</time>
      </trkpt>
      <trkpt lat="46.88616" lon="8.53553">
        <ele>1856</ele>
        <time>2021-08-11T09:15:51.485Z</time>
      </trkpt>
      <trkpt lat="46.88616" lon="8.53553">
        <ele>1856</ele>
        <time>2021-08-11T09:15:52.485Z</time>
      </trkpt>
      <trkpt lat="46.88615" lon="8.53554">
        <ele>1855</ele>
        <time>2021-08-11T09:15:53.485Z</time>
      </trkpt>
      <trkpt lat="46.88615" lon="8.53553">
        <ele>1855</ele>
        <time>2021-08-11T09:15:54.485Z</time>
      </trkpt>
      <trkpt lat="46.88615" lon="8.53552">
        <ele>1855</ele>
        <time>2021-08-11T09:15:55.484Z</time>
      </trkpt>
      <trkpt lat="46.88612" lon="8.53551">
        <ele>1854</ele>
        <time>2021-08-11T09:15:56.485Z</time>
      </trkpt>
      <trkpt lat="46.88611" lon="8.5355">
        <ele>1854</ele>
        <time>2021-08-11T09:15:57.484Z</time>
      </trkpt>
      <trkpt lat="46.8861" lon="8.5355">
        <ele>1854</ele>
        <time>2021-08-11T09:15:58.484Z</time>
      </trkpt>
      <trkpt lat="46.88609" lon="8.5355">
        <ele>1854</ele>
        <time>2021-08-11T09:15:59.484Z</time>
      </trkpt>
      <trkpt lat="46.88608" lon="8.5355">
        <ele>1855</ele>
        <time>2021-08-11T09:16:00.484Z</time>
      </trkpt>
      <trkpt lat="46.88608" lon="8.5355">
        <ele>1855</ele>
        <time>2021-08-11T09:16:01.484Z</time>
      </trkpt>
      <trkpt lat="46.88607" lon="8.5355">
        <ele>1856</ele>
        <time>2021-08-11T09:16:02.485Z</time>
      </trkpt>
      <trkpt lat="46.88607" lon="8.53551">
        <ele>1856</ele>
        <time>2021-08-11T09:16:03.485Z</time>
      </trkpt>
      <trkpt lat="46.88607" lon="8.53551">
        <ele>1856</ele>
        <time>2021-08-11T09:16:04.485Z</time>
      </trkpt>
      <trkpt lat="46.88609" lon="8.53551">
        <ele>1858</ele>
        <time>2021-08-11T09:16:05.486Z</time>
      </trkpt>
      <trkpt lat="46.88609" lon="8.53551">
        <ele>1859</ele>
        <time>2021-08-11T09:16:06.486Z</time>
      </trkpt>
      <trkpt lat="46.8861" lon="8.53551">
        <ele>1859</ele>
        <time>2021-08-11T09:16:07.485Z</time>
      </trkpt>
      <trkpt lat="46.88611" lon="8.53552">
        <ele>1859</ele>
        <time>2021-08-11T09:16:08.486Z</time>
      </trkpt>
      <trkpt lat="46.88611" lon="8.53552">
        <ele>1859</ele>
        <time>2021-08-11T09:16:09.485Z</time>
      </trkpt>
      <trkpt lat="46.88611" lon="8.5355">
        <ele>1859</ele>
        <time>2021-08-11T09:16:10.485Z</time>
      </trkpt>
      <trkpt lat="46.88612" lon="8.53549">
        <ele>1859</ele>
        <time>2021-08-11T09:16:11.486Z</time>
      </trkpt>
      <trkpt lat="46.88612" lon="8.53548">
        <ele>1858</ele>
        <time>2021-08-11T09:16:12.486Z</time>
      </trkpt>
      <trkpt lat="46.88612" lon="8.53547">
        <ele>1857</ele>
        <time>2021-08-11T09:16:13.486Z</time>
      </trkpt>
      <trkpt lat="46.88614" lon="8.53546">
        <ele>1860</ele>
        <time>2021-08-11T09:16:14.486Z</time>
      </trkpt>
      <trkpt lat="46.88614" lon="8.53547">
        <ele>1860</ele>
        <time>2021-08-11T09:16:15.486Z</time>
      </trkpt>
      <trkpt lat="46.88615" lon="8.53548">
        <ele>1860</ele>
        <time>2021-08-11T09:16:16.487Z</time>
      </trkpt>
      <trkpt lat="46.88615" lon="8.53547">
        <ele>1860</ele>
        <time>2021-08-11T09:16:17.486Z</time>
      </trkpt>
      <trkpt lat="46.88616" lon="8.53547">
        <ele>1860</ele>
        <time>2021-08-11T09:16:18.487Z</time>
      </trkpt>
      <trkpt lat="46.88616" lon="8.53546">
        <ele>1860</ele>
        <time>2021-08-11T09:16:19.487Z</time>
      </trkpt>
      <trkpt lat="46.88616" lon="8.53546">
        <ele>1860</ele>
        <time>2021-08-11T09:16:20.487Z</time>
      </trkpt>
      <trkpt lat="46.88616" lon="8.53547">
        <ele>1861</ele>
        <time>2021-08-11T09:16:21.488Z</time>
      </trkpt>
      <trkpt lat="46.88615" lon="8.53548">
        <ele>1861</ele>
        <time>2021-08-11T09:16:22.488Z</time>
      </trkpt>
      <trkpt lat="46.88615" lon="8.53549">
        <ele>1861</ele>
        <time>2021-08-11T09:16:23.488Z</time>
      </trkpt>
      <trkpt lat="46.88614" lon="8.53548">
        <ele>1860</ele>
        <time>2021-08-11T09:16:24.487Z</time>
      </trkpt>
      <trkpt lat="46.88613" lon="8.53547">
        <ele>1859</ele>
        <time>2021-08-11T09:16:25.487Z</time>
      </trkpt>
      <trkpt lat="46.88612" lon="8.53548">
        <ele>1859</ele>
        <time>2021-08-11T09:16:26.488Z</time>
      </trkpt>
      <trkpt lat="46.88612" lon="8.53548">
        <ele>1858</ele>
        <time>2021-08-11T09:16:27.487Z</time>
      </trkpt>
      <trkpt lat="46.88611" lon="8.53548">
        <ele>1858</ele>
        <time>2021-08-11T09:16:28.488Z</time>
      </trkpt>
      <trkpt lat="46.88611" lon="8.53548">
        <ele>1858</ele>
        <time>2021-08-11T09:16:29.488Z</time>
      </trkpt>
      <trkpt lat="46.8861" lon="8.53547">
        <ele>1857</ele>
        <time>2021-08-11T09:16:30.490Z</time>
      </trkpt>
      <trkpt lat="46.8861" lon="8.53548">
        <ele>1856</ele>
        <time>2021-08-11T09:16:31.489Z</time>
      </trkpt>
      <trkpt lat="46.88607" lon="8.53546">
        <ele>1857</ele>
        <time>2021-08-11T09:16:32.490Z</time>
      </trkpt>
      <trkpt lat="46.88607" lon="8.53546">
        <ele>1857</ele>
        <time>2021-08-11T09:16:33.491Z</time>
      </trkpt>
      <trkpt lat="46.88607" lon="8.53546">
        <ele>1856</ele>
        <time>2021-08-11T09:16:34.491Z</time>
      </trkpt>
      <trkpt lat="46.88609" lon="8.5355">
        <ele>1854</ele>
        <time>2021-08-11T09:16:35.491Z</time>
      </trkpt>
      <trkpt lat="46.88609" lon="8.53551">
        <ele>1853</ele>
        <time>2021-08-11T09:16:36.492Z</time>
      </trkpt>
      <trkpt lat="46.88609" lon="8.53551">
        <ele>1853</ele>
        <time>2021-08-11T09:16:37.492Z</time>
      </trkpt>
      <trkpt lat="46.8861" lon="8.53552">
        <ele>1854</ele>
        <time>2021-08-11T09:16:38.493Z</time>
      </trkpt>
      <trkpt lat="46.88611" lon="8.53552">
        <ele>1855</ele>
        <time>2021-08-11T09:16:39.493Z</time>
      </trkpt>
      <trkpt lat="46.88612" lon="8.53552">
        <ele>1855</ele>
        <time>2021-08-11T09:16:40.492Z</time>
      </trkpt>
      <trkpt lat="46.88612" lon="8.53552">
        <ele>1855</ele>
        <time>2021-08-11T09:16:41.493Z</time>
      </trkpt>
      <trkpt lat="46.88613" lon="8.53551">
        <ele>1856</ele>
        <time>2021-08-11T09:16:42.493Z</time>
      </trkpt>
      <trkpt lat="46.88614" lon="8.53551">
        <ele>1856</ele>
        <time>2021-08-11T09:16:43.493Z</time>
      </trkpt>
      <trkpt lat="46.88615" lon="8.5355">
        <ele>1856</ele>
        <time>2021-08-11T09:16:44.492Z</time>
      </trkpt>
      <trkpt lat="46.88615" lon="8.53551">
        <ele>1856</ele>
        <time>2021-08-11T09:16:45.493Z</time>
      </trkpt>
      <trkpt lat="46.88615" lon="8.53551">
        <ele>1856</ele>
        <time>2021-08-11T09:16:46.493Z</time>
      </trkpt>
      <trkpt lat="46.88614" lon="8.53552">
        <ele>1856</ele>
        <time>2021-08-11T09:16:47.493Z</time>
      </trkpt>
      <trkpt lat="46.88613" lon="8.53552">
        <ele>1856</ele>
        <time>2021-08-11T09:16:48.493Z</time>
      </trkpt>
      <trkpt lat="46.88613" lon="8.53554">
        <ele>1857</ele>
        <time>2021-08-11T09:16:49.493Z</time>
      </trkpt>
      <trkpt lat="46.88613" lon="8.53554">
        <ele>1858</ele>
        <time>2021-08-11T09:16:50.494Z</time>
      </trkpt>
      <trkpt lat="46.88613" lon="8.53554">
        <ele>1858</ele>
        <time>2021-08-11T09:16:51.493Z</time>
      </trkpt>
      <trkpt lat="46.88613" lon="8.53554">
        <ele>1858</ele>
        <time>2021-08-11T09:16:52.493Z</time>
      </trkpt>
      <trkpt lat="46.88611" lon="8.53543">
        <ele>1860</ele>
        <time>2021-08-11T09:16:53.495Z</time>
      </trkpt>
      <trkpt lat="46.8861" lon="8.53543">
        <ele>1860</ele>
        <time>2021-08-11T09:16:54.495Z</time>
      </trkpt>
      <trkpt lat="46.88611" lon="8.53544">
        <ele>1860</ele>
        <time>2021-08-11T09:16:55.495Z</time>
      </trkpt>
      <trkpt lat="46.88611" lon="8.53545">
        <ele>1860</ele>
        <time>2021-08-11T09:16:56.495Z</time>
      </trkpt>
      <trkpt lat="46.88612" lon="8.53545">
        <ele>1860</ele>
        <time>2021-08-11T09:16:57.495Z</time>
      </trkpt>
      <trkpt lat="46.88613" lon="8.53545">
        <ele>1859</ele>
        <time>2021-08-11T09:16:58.494Z</time>
      </trkpt>
      <trkpt lat="46.88613" lon="8.53545">
        <ele>1859</ele>
        <time>2021-08-11T09:16:59.494Z</time>
      </trkpt>
      <trkpt lat="46.88613" lon="8.53545">
        <ele>1859</ele>
        <time>2021-08-11T09:17:00.494Z</time>
      </trkpt>
      <trkpt lat="46.88613" lon="8.53544">
        <ele>1858</ele>
        <time>2021-08-11T09:17:01.495Z</time>
      </trkpt>
      <trkpt lat="46.88612" lon="8.5354">
        <ele>1856</ele>
        <time>2021-08-11T09:17:02.495Z</time>
      </trkpt>
      <trkpt lat="46.88608" lon="8.53546">
        <ele>1856</ele>
        <time>2021-08-11T09:17:03.495Z</time>
      </trkpt>
      <trkpt lat="46.88615" lon="8.5355">
        <ele>1857</ele>
        <time>2021-08-11T09:17:04.496Z</time>
      </trkpt>
      <trkpt lat="46.88609" lon="8.5355">
        <ele>1851</ele>
        <time>2021-08-11T09:17:05.496Z</time>
      </trkpt>
      <trkpt lat="46.88609" lon="8.53551">
        <ele>1851</ele>
        <time>2021-08-11T09:17:06.495Z</time>
      </trkpt>
      <trkpt lat="46.88609" lon="8.53551">
        <ele>1852</ele>
        <time>2021-08-11T09:17:07.495Z</time>
      </trkpt>
      <trkpt lat="46.88609" lon="8.53551">
        <ele>1852</ele>
        <time>2021-08-11T09:17:08.495Z</time>
      </trkpt>
      <trkpt lat="46.88609" lon="8.5355">
        <ele>1852</ele>
        <time>2021-08-11T09:17:09.496Z</time>
      </trkpt>
      <trkpt lat="46.88609" lon="8.5355">
        <ele>1852</ele>
        <time>2021-08-11T09:17:10.496Z</time>
      </trkpt>
      <trkpt lat="46.88608" lon="8.5355">
        <ele>1852</ele>
        <time>2021-08-11T09:17:11.496Z</time>
      </trkpt>
      <trkpt lat="46.88605" lon="8.5355">
        <ele>1853</ele>
        <time>2021-08-11T09:17:12.497Z</time>
      </trkpt>
      <trkpt lat="46.88605" lon="8.5355">
        <ele>1853</ele>
        <time>2021-08-11T09:17:13.497Z</time>
      </trkpt>
      <trkpt lat="46.88605" lon="8.5355">
        <ele>1853</ele>
        <time>2021-08-11T09:17:14.497Z</time>
      </trkpt>
      <trkpt lat="46.88605" lon="8.53549">
        <ele>1853</ele>
        <time>2021-08-11T09:17:15.497Z</time>
      </trkpt>
      <trkpt lat="46.88606" lon="8.53548">
        <ele>1853</ele>
        <time>2021-08-11T09:17:16.496Z</time>
      </trkpt>
      <trkpt lat="46.88604" lon="8.53546">
        <ele>1854</ele>
        <time>2021-08-11T09:17:17.497Z</time>
      </trkpt>
      <trkpt lat="46.88604" lon="8.53545">
        <ele>1854</ele>
        <time>2021-08-11T09:17:18.496Z</time>
      </trkpt>
      <trkpt lat="46.88604" lon="8.53545">
        <ele>1854</ele>
        <time>2021-08-11T09:17:19.496Z</time>
      </trkpt>
      <trkpt lat="46.88604" lon="8.53544">
        <ele>1855</ele>
        <time>2021-08-11T09:17:20.497Z</time>
      </trkpt>
      <trkpt lat="46.88603" lon="8.53544">
        <ele>1855</ele>
        <time>2021-08-11T09:17:21.497Z</time>
      </trkpt>
      <trkpt lat="46.88603" lon="8.53544">
        <ele>1854</ele>
        <time>2021-08-11T09:17:22.497Z</time>
      </trkpt>
      <trkpt lat="46.88603" lon="8.53545">
        <ele>1853</ele>
        <time>2021-08-11T09:17:23.497Z</time>
      </trkpt>
      <trkpt lat="46.88602" lon="8.53544">
        <ele>1847</ele>
        <time>2021-08-11T09:17:24.498Z</time>
      </trkpt>
      <trkpt lat="46.88602" lon="8.53544">
        <ele>1847</ele>
        <time>2021-08-11T09:17:25.498Z</time>
      </trkpt>
      <trkpt lat="46.88601" lon="8.53543">
        <ele>1847</ele>
        <time>2021-08-11T09:17:26.497Z</time>
      </trkpt>
      <trkpt lat="46.88601" lon="8.53543">
        <ele>1846</ele>
        <time>2021-08-11T09:17:27.498Z</time>
      </trkpt>
      <trkpt lat="46.88601" lon="8.53543">
        <ele>1846</ele>
        <time>2021-08-11T09:17:28.499Z</time>
      </trkpt>
      <trkpt lat="46.88602" lon="8.53541">
        <ele>1848</ele>
        <time>2021-08-11T09:17:29.499Z</time>
      </trkpt>
      <trkpt lat="46.88602" lon="8.53541">
        <ele>1849</ele>
        <time>2021-08-11T09:17:30.499Z</time>
      </trkpt>
      <trkpt lat="46.88602" lon="8.5354">
        <ele>1849</ele>
        <time>2021-08-11T09:17:31.498Z</time>
      </trkpt>
      <trkpt lat="46.88602" lon="8.53539">
        <ele>1849</ele>
        <time>2021-08-11T09:17:32.499Z</time>
      </trkpt>
      <trkpt lat="46.88602" lon="8.53539">
        <ele>1849</ele>
        <time>2021-08-11T09:17:33.498Z</time>
      </trkpt>
      <trkpt lat="46.88602" lon="8.53539">
        <ele>1849</ele>
        <time>2021-08-11T09:17:34.498Z</time>
      </trkpt>
      <trkpt lat="46.88601" lon="8.5354">
        <ele>1847</ele>
        <time>2021-08-11T09:17:35.376Z</time>
      </trkpt>
      <trkpt lat="46.88601" lon="8.53539">
        <ele>1847</ele>
        <time>2021-08-11T09:17:36.376Z</time>
      </trkpt>
      <trkpt lat="46.886" lon="8.5354">
        <ele>1847</ele>
        <time>2021-08-11T09:17:37.500Z</time>
      </trkpt>
      <trkpt lat="46.88599" lon="8.53537">
        <ele>1849</ele>
        <time>2021-08-11T09:17:38.378Z</time>
      </trkpt>
      <trkpt lat="46.88599" lon="8.53537">
        <ele>1849</ele>
        <time>2021-08-11T09:17:39.377Z</time>
      </trkpt>
      <trkpt lat="46.88599" lon="8.53537">
        <ele>1849</ele>
        <time>2021-08-11T09:17:40.377Z</time>
      </trkpt>
      <trkpt lat="46.88599" lon="8.53536">
        <ele>1848</ele>
        <time>2021-08-11T09:17:41.378Z</time>
      </trkpt>
      <trkpt lat="46.88599" lon="8.53536">
        <ele>1848</ele>
        <time>2021-08-11T09:17:42.378Z</time>
      </trkpt>
      <trkpt lat="46.88598" lon="8.53535">
        <ele>1847</ele>
        <time>2021-08-11T09:17:43.378Z</time>
      </trkpt>
      <trkpt lat="46.88598" lon="8.53534">
        <ele>1847</ele>
        <time>2021-08-11T09:17:44.379Z</time>
      </trkpt>
      <trkpt lat="46.88598" lon="8.53534">
        <ele>1847</ele>
        <time>2021-08-11T09:17:45.378Z</time>
      </trkpt>
      <trkpt lat="46.88598" lon="8.53533">
        <ele>1847</ele>
        <time>2021-08-11T09:17:46.378Z</time>
      </trkpt>
      <trkpt lat="46.88598" lon="8.53532">
        <ele>1847</ele>
        <time>2021-08-11T09:17:47.379Z</time>
      </trkpt>
      <trkpt lat="46.88597" lon="8.53532">
        <ele>1847</ele>
        <time>2021-08-11T09:17:48.378Z</time>
      </trkpt>
      <trkpt lat="46.88597" lon="8.53532">
        <ele>1847</ele>
        <time>2021-08-11T09:17:49.378Z</time>
      </trkpt>
      <trkpt lat="46.88597" lon="8.53531">
        <ele>1847</ele>
        <time>2021-08-11T09:17:50.379Z</time>
      </trkpt>
      <trkpt lat="46.88597" lon="8.53531">
        <ele>1847</ele>
        <time>2021-08-11T09:17:51.379Z</time>
      </trkpt>
      <trkpt lat="46.88597" lon="8.53531">
        <ele>1847</ele>
        <time>2021-08-11T09:17:52.379Z</time>
      </trkpt>
      <trkpt lat="46.88596" lon="8.53531">
        <ele>1844</ele>
        <time>2021-08-11T09:17:53.380Z</time>
      </trkpt>
      <trkpt lat="46.88596" lon="8.53531">
        <ele>1844</ele>
        <time>2021-08-11T09:17:54.380Z</time>
      </trkpt>
      <trkpt lat="46.88596" lon="8.53531">
        <ele>1845</ele>
        <time>2021-08-11T09:17:55.379Z</time>
      </trkpt>
      <trkpt lat="46.88596" lon="8.53531">
        <ele>1845</ele>
        <time>2021-08-11T09:17:56.380Z</time>
      </trkpt>
      <trkpt lat="46.88595" lon="8.53531">
        <ele>1846</ele>
        <time>2021-08-11T09:17:57.380Z</time>
      </trkpt>
      <trkpt lat="46.88595" lon="8.5353">
        <ele>1846</ele>
        <time>2021-08-11T09:17:58.379Z</time>
      </trkpt>
      <trkpt lat="46.88595" lon="8.5353">
        <ele>1847</ele>
        <time>2021-08-11T09:17:59.379Z</time>
      </trkpt>
      <trkpt lat="46.88595" lon="8.53529">
        <ele>1847</ele>
        <time>2021-08-11T09:18:00.379Z</time>
      </trkpt>
      <trkpt lat="46.88593" lon="8.53527">
        <ele>1848</ele>
        <time>2021-08-11T09:18:01.381Z</time>
      </trkpt>
      <trkpt lat="46.88593" lon="8.53527">
        <ele>1848</ele>
        <time>2021-08-11T09:18:02.381Z</time>
      </trkpt>
      <trkpt lat="46.88592" lon="8.53526">
        <ele>1848</ele>
        <time>2021-08-11T09:18:03.382Z</time>
      </trkpt>
      <trkpt lat="46.88591" lon="8.53525">
        <ele>1848</ele>
        <time>2021-08-11T09:18:04.381Z</time>
      </trkpt>
      <trkpt lat="46.8859" lon="8.53524">
        <ele>1848</ele>
        <time>2021-08-11T09:18:05.382Z</time>
      </trkpt>
      <trkpt lat="46.88589" lon="8.53523">
        <ele>1848</ele>
        <time>2021-08-11T09:18:06.381Z</time>
      </trkpt>
      <trkpt lat="46.88588" lon="8.53522">
        <ele>1848</ele>
        <time>2021-08-11T09:18:07.381Z</time>
      </trkpt>
      <trkpt lat="46.88587" lon="8.53522">
        <ele>1847</ele>
        <time>2021-08-11T09:18:08.381Z</time>
      </trkpt>
      <trkpt lat="46.88587" lon="8.53521">
        <ele>1847</ele>
        <time>2021-08-11T09:18:09.381Z</time>
      </trkpt>
      <trkpt lat="46.88586" lon="8.53521">
        <ele>1847</ele>
        <time>2021-08-11T09:18:10.381Z</time>
      </trkpt>
      <trkpt lat="46.88589" lon="8.53525">
        <ele>1843</ele>
        <time>2021-08-11T09:18:11.383Z</time>
      </trkpt>
      <trkpt lat="46.88589" lon="8.53525">
        <ele>1843</ele>
        <time>2021-08-11T09:18:12.383Z</time>
      </trkpt>
      <trkpt lat="46.88589" lon="8.53525">
        <ele>1842</ele>
        <time>2021-08-11T09:18:13.383Z</time>
      </trkpt>
      <trkpt lat="46.88589" lon="8.53525">
        <ele>1842</ele>
        <time>2021-08-11T09:18:14.383Z</time>
      </trkpt>
      <trkpt lat="46.88588" lon="8.53525">
        <ele>1841</ele>
        <time>2021-08-11T09:18:15.383Z</time>
      </trkpt>
      <trkpt lat="46.88588" lon="8.53525">
        <ele>1841</ele>
        <time>2021-08-11T09:18:16.382Z</time>
      </trkpt>
      <trkpt lat="46.88587" lon="8.53525">
        <ele>1841</ele>
        <time>2021-08-11T09:18:17.382Z</time>
      </trkpt>
      <trkpt lat="46.88587" lon="8.53524">
        <ele>1841</ele>
        <time>2021-08-11T09:18:18.383Z</time>
      </trkpt>
      <trkpt lat="46.88586" lon="8.53524">
        <ele>1841</ele>
        <time>2021-08-11T09:18:19.383Z</time>
      </trkpt>
      <trkpt lat="46.88585" lon="8.53523">
        <ele>1841</ele>
        <time>2021-08-11T09:18:20.383Z</time>
      </trkpt>
      <trkpt lat="46.88584" lon="8.53522">
        <ele>1841</ele>
        <time>2021-08-11T09:18:21.383Z</time>
      </trkpt>
      <trkpt lat="46.88583" lon="8.53522">
        <ele>1841</ele>
        <time>2021-08-11T09:18:22.382Z</time>
      </trkpt>
      <trkpt lat="46.88582" lon="8.5352">
        <ele>1841</ele>
        <time>2021-08-11T09:18:23.382Z</time>
      </trkpt>
      <trkpt lat="46.88581" lon="8.5352">
        <ele>1841</ele>
        <time>2021-08-11T09:18:24.383Z</time>
      </trkpt>
      <trkpt lat="46.88581" lon="8.5352">
        <ele>1841</ele>
        <time>2021-08-11T09:18:25.382Z</time>
      </trkpt>
      <trkpt lat="46.8858" lon="8.5352">
        <ele>1841</ele>
        <time>2021-08-11T09:18:26.382Z</time>
      </trkpt>
      <trkpt lat="46.8858" lon="8.5352">
        <ele>1841</ele>
        <time>2021-08-11T09:18:27.383Z</time>
      </trkpt>
      <trkpt lat="46.88579" lon="8.5352">
        <ele>1841</ele>
        <time>2021-08-11T09:18:28.382Z</time>
      </trkpt>
      <trkpt lat="46.88579" lon="8.5352">
        <ele>1841</ele>
        <time>2021-08-11T09:18:29.383Z</time>
      </trkpt>
      <trkpt lat="46.88578" lon="8.53519">
        <ele>1841</ele>
        <time>2021-08-11T09:18:30.382Z</time>
      </trkpt>
      <trkpt lat="46.88578" lon="8.53519">
        <ele>1841</ele>
        <time>2021-08-11T09:18:31.383Z</time>
      </trkpt>
      <trkpt lat="46.88577" lon="8.53519">
        <ele>1841</ele>
        <time>2021-08-11T09:18:32.383Z</time>
      </trkpt>
      <trkpt lat="46.88577" lon="8.53519">
        <ele>1841</ele>
        <time>2021-08-11T09:18:33.383Z</time>
      </trkpt>
      <trkpt lat="46.88577" lon="8.53518">
        <ele>1840</ele>
        <time>2021-08-11T09:18:34.382Z</time>
      </trkpt>
      <trkpt lat="46.88577" lon="8.53517">
        <ele>1840</ele>
        <time>2021-08-11T09:18:35.383Z</time>
      </trkpt>
      <trkpt lat="46.88577" lon="8.53517">
        <ele>1840</ele>
        <time>2021-08-11T09:18:36.383Z</time>
      </trkpt>
      <trkpt lat="46.88577" lon="8.53516">
        <ele>1840</ele>
        <time>2021-08-11T09:18:37.383Z</time>
      </trkpt>
      <trkpt lat="46.88576" lon="8.53515">
        <ele>1840</ele>
        <time>2021-08-11T09:18:38.383Z</time>
      </trkpt>
      <trkpt lat="46.88576" lon="8.53514">
        <ele>1840</ele>
        <time>2021-08-11T09:18:39.382Z</time>
      </trkpt>
      <trkpt lat="46.88575" lon="8.53514">
        <ele>1840</ele>
        <time>2021-08-11T09:18:40.383Z</time>
      </trkpt>
      <trkpt lat="46.88575" lon="8.53513">
        <ele>1841</ele>
        <time>2021-08-11T09:18:41.383Z</time>
      </trkpt>
      <trkpt lat="46.88574" lon="8.53513">
        <ele>1841</ele>
        <time>2021-08-11T09:18:42.383Z</time>
      </trkpt>
      <trkpt lat="46.88574" lon="8.53512">
        <ele>1841</ele>
        <time>2021-08-11T09:18:43.383Z</time>
      </trkpt>
      <trkpt lat="46.88573" lon="8.53512">
        <ele>1841</ele>
        <time>2021-08-11T09:18:44.382Z</time>
      </trkpt>
      <trkpt lat="46.88573" lon="8.53511">
        <ele>1841</ele>
        <time>2021-08-11T09:18:45.382Z</time>
      </trkpt>
      <trkpt lat="46.88572" lon="8.53511">
        <ele>1841</ele>
        <time>2021-08-11T09:18:46.383Z</time>
      </trkpt>
      <trkpt lat="46.88572" lon="8.53511">
        <ele>1841</ele>
        <time>2021-08-11T09:18:47.383Z</time>
      </trkpt>
      <trkpt lat="46.88572" lon="8.5351">
        <ele>1841</ele>
        <time>2021-08-11T09:18:48.383Z</time>
      </trkpt>
      <trkpt lat="46.88572" lon="8.5351">
        <ele>1841</ele>
        <time>2021-08-11T09:18:49.382Z</time>
      </trkpt>
      <trkpt lat="46.88571" lon="8.5351">
        <ele>1841</ele>
        <time>2021-08-11T09:18:50.382Z</time>
      </trkpt>
      <trkpt lat="46.88571" lon="8.53509">
        <ele>1841</ele>
        <time>2021-08-11T09:18:51.382Z</time>
      </trkpt>
      <trkpt lat="46.88571" lon="8.53508">
        <ele>1841</ele>
        <time>2021-08-11T09:18:52.382Z</time>
      </trkpt>
      <trkpt lat="46.88571" lon="8.53508">
        <ele>1841</ele>
        <time>2021-08-11T09:18:53.382Z</time>
      </trkpt>
      <trkpt lat="46.8857" lon="8.53507">
        <ele>1841</ele>
        <time>2021-08-11T09:18:54.383Z</time>
      </trkpt>
      <trkpt lat="46.8857" lon="8.53506">
        <ele>1842</ele>
        <time>2021-08-11T09:18:55.383Z</time>
      </trkpt>
      <trkpt lat="46.88569" lon="8.53505">
        <ele>1842</ele>
        <time>2021-08-11T09:18:56.383Z</time>
      </trkpt>
      <trkpt lat="46.88568" lon="8.53504">
        <ele>1842</ele>
        <time>2021-08-11T09:18:57.383Z</time>
      </trkpt>
      <trkpt lat="46.88568" lon="8.53504">
        <ele>1841</ele>
        <time>2021-08-11T09:18:58.382Z</time>
      </trkpt>
      <trkpt lat="46.88567" lon="8.53503">
        <ele>1841</ele>
        <time>2021-08-11T09:18:59.382Z</time>
      </trkpt>
      <trkpt lat="46.88566" lon="8.53502">
        <ele>1841</ele>
        <time>2021-08-11T09:19:00.383Z</time>
      </trkpt>
      <trkpt lat="46.88565" lon="8.53502">
        <ele>1841</ele>
        <time>2021-08-11T09:19:01.383Z</time>
      </trkpt>
      <trkpt lat="46.88565" lon="8.53502">
        <ele>1840</ele>
        <time>2021-08-11T09:19:02.383Z</time>
      </trkpt>
      <trkpt lat="46.88565" lon="8.53502">
        <ele>1840</ele>
        <time>2021-08-11T09:19:03.382Z</time>
      </trkpt>
      <trkpt lat="46.88565" lon="8.53502">
        <ele>1839</ele>
        <time>2021-08-11T09:19:04.382Z</time>
      </trkpt>
      <trkpt lat="46.88565" lon="8.53505">
        <ele>1847</ele>
        <time>2021-08-11T09:19:05.383Z</time>
      </trkpt>
      <trkpt lat="46.88564" lon="8.53504">
        <ele>1847</ele>
        <time>2021-08-11T09:19:06.382Z</time>
      </trkpt>
      <trkpt lat="46.88564" lon="8.53503">
        <ele>1848</ele>
        <time>2021-08-11T09:19:07.383Z</time>
      </trkpt>
      <trkpt lat="46.88563" lon="8.53502">
        <ele>1848</ele>
        <time>2021-08-11T09:19:08.383Z</time>
      </trkpt>
      <trkpt lat="46.88558" lon="8.535">
        <ele>1855</ele>
        <time>2021-08-11T09:19:09.382Z</time>
      </trkpt>
      <trkpt lat="46.88558" lon="8.535">
        <ele>1854</ele>
        <time>2021-08-11T09:19:10.383Z</time>
      </trkpt>
      <trkpt lat="46.88558" lon="8.53499">
        <ele>1853</ele>
        <time>2021-08-11T09:19:11.382Z</time>
      </trkpt>
      <trkpt lat="46.88557" lon="8.53499">
        <ele>1851</ele>
        <time>2021-08-11T09:19:12.383Z</time>
      </trkpt>
      <trkpt lat="46.88557" lon="8.53498">
        <ele>1850</ele>
        <time>2021-08-11T09:19:13.383Z</time>
      </trkpt>
      <trkpt lat="46.88556" lon="8.53498">
        <ele>1850</ele>
        <time>2021-08-11T09:19:14.383Z</time>
      </trkpt>
      <trkpt lat="46.88555" lon="8.53498">
        <ele>1849</ele>
        <time>2021-08-11T09:19:15.382Z</time>
      </trkpt>
      <trkpt lat="46.88554" lon="8.53498">
        <ele>1849</ele>
        <time>2021-08-11T09:19:16.383Z</time>
      </trkpt>
      <trkpt lat="46.88554" lon="8.53497">
        <ele>1848</ele>
        <time>2021-08-11T09:19:17.383Z</time>
      </trkpt>
      <trkpt lat="46.88553" lon="8.53497">
        <ele>1848</ele>
        <time>2021-08-11T09:19:18.383Z</time>
      </trkpt>
      <trkpt lat="46.88553" lon="8.53497">
        <ele>1847</ele>
        <time>2021-08-11T09:19:19.383Z</time>
      </trkpt>
      <trkpt lat="46.88552" lon="8.53497">
        <ele>1847</ele>
        <time>2021-08-11T09:19:20.383Z</time>
      </trkpt>
      <trkpt lat="46.88552" lon="8.53497">
        <ele>1846</ele>
        <time>2021-08-11T09:19:21.383Z</time>
      </trkpt>
      <trkpt lat="46.88552" lon="8.53497">
        <ele>1846</ele>
        <time>2021-08-11T09:19:22.382Z</time>
      </trkpt>
      <trkpt lat="46.88552" lon="8.53497">
        <ele>1845</ele>
        <time>2021-08-11T09:19:23.382Z</time>
      </trkpt>
      <trkpt lat="46.88552" lon="8.53495">
        <ele>1839</ele>
        <time>2021-08-11T09:19:24.383Z</time>
      </trkpt>
      <trkpt lat="46.88551" lon="8.53495">
        <ele>1838</ele>
        <time>2021-08-11T09:19:25.384Z</time>
      </trkpt>
      <trkpt lat="46.88551" lon="8.53494">
        <ele>1838</ele>
        <time>2021-08-11T09:19:26.385Z</time>
      </trkpt>
      <trkpt lat="46.88551" lon="8.53494">
        <ele>1837</ele>
        <time>2021-08-11T09:19:27.384Z</time>
      </trkpt>
      <trkpt lat="46.8855" lon="8.53493">
        <ele>1836</ele>
        <time>2021-08-11T09:19:28.384Z</time>
      </trkpt>
      <trkpt lat="46.8855" lon="8.53493">
        <ele>1835</ele>
        <time>2021-08-11T09:19:29.384Z</time>
      </trkpt>
      <trkpt lat="46.88549" lon="8.53492">
        <ele>1835</ele>
        <time>2021-08-11T09:19:30.384Z</time>
      </trkpt>
      <trkpt lat="46.88549" lon="8.53492">
        <ele>1834</ele>
        <time>2021-08-11T09:19:31.384Z</time>
      </trkpt>
      <trkpt lat="46.88549" lon="8.53491">
        <ele>1834</ele>
        <time>2021-08-11T09:19:32.384Z</time>
      </trkpt>
      <trkpt lat="46.88548" lon="8.5349">
        <ele>1834</ele>
        <time>2021-08-11T09:19:33.384Z</time>
      </trkpt>
      <trkpt lat="46.88548" lon="8.5349">
        <ele>1834</ele>
        <time>2021-08-11T09:19:34.384Z</time>
      </trkpt>
      <trkpt lat="46.88547" lon="8.53489">
        <ele>1834</ele>
        <time>2021-08-11T09:19:35.384Z</time>
      </trkpt>
      <trkpt lat="46.88547" lon="8.53489">
        <ele>1833</ele>
        <time>2021-08-11T09:19:36.384Z</time>
      </trkpt>
      <trkpt lat="46.88548" lon="8.53489">
        <ele>1833</ele>
        <time>2021-08-11T09:19:37.384Z</time>
      </trkpt>
      <trkpt lat="46.88547" lon="8.53488">
        <ele>1833</ele>
        <time>2021-08-11T09:19:38.385Z</time>
      </trkpt>
      <trkpt lat="46.88547" lon="8.53488">
        <ele>1833</ele>
        <time>2021-08-11T09:19:39.385Z</time>
      </trkpt>
      <trkpt lat="46.88546" lon="8.53487">
        <ele>1832</ele>
        <time>2021-08-11T09:19:40.384Z</time>
      </trkpt>
      <trkpt lat="46.88546" lon="8.53486">
        <ele>1832</ele>
        <time>2021-08-11T09:19:41.385Z</time>
      </trkpt>
      <trkpt lat="46.88545" lon="8.53485">
        <ele>1832</ele>
        <time>2021-08-11T09:19:42.384Z</time>
      </trkpt>
      <trkpt lat="46.88547" lon="8.53484">
        <ele>1832</ele>
        <time>2021-08-11T09:19:43.385Z</time>
      </trkpt>
      <trkpt lat="46.88547" lon="8.53482">
        <ele>1832</ele>
        <time>2021-08-11T09:19:44.384Z</time>
      </trkpt>
      <trkpt lat="46.88546" lon="8.53481">
        <ele>1832</ele>
        <time>2021-08-11T09:19:45.385Z</time>
      </trkpt>
      <trkpt lat="46.88546" lon="8.5348">
        <ele>1832</ele>
        <time>2021-08-11T09:19:46.385Z</time>
      </trkpt>
      <trkpt lat="46.88544" lon="8.5348">
        <ele>1832</ele>
        <time>2021-08-11T09:19:47.385Z</time>
      </trkpt>
      <trkpt lat="46.88543" lon="8.5348">
        <ele>1831</ele>
        <time>2021-08-11T09:19:48.385Z</time>
      </trkpt>
      <trkpt lat="46.88541" lon="8.5348">
        <ele>1831</ele>
        <time>2021-08-11T09:19:49.384Z</time>
      </trkpt>
      <trkpt lat="46.8854" lon="8.53479">
        <ele>1831</ele>
        <time>2021-08-11T09:19:50.385Z</time>
      </trkpt>
      <trkpt lat="46.8854" lon="8.53478">
        <ele>1831</ele>
        <time>2021-08-11T09:19:51.385Z</time>
      </trkpt>
      <trkpt lat="46.88539" lon="8.53478">
        <ele>1830</ele>
        <time>2021-08-11T09:19:52.385Z</time>
      </trkpt>
      <trkpt lat="46.88538" lon="8.53478">
        <ele>1830</ele>
        <time>2021-08-11T09:19:53.384Z</time>
      </trkpt>
      <trkpt lat="46.88537" lon="8.53478">
        <ele>1829</ele>
        <time>2021-08-11T09:19:54.384Z</time>
      </trkpt>
      <trkpt lat="46.88537" lon="8.53479">
        <ele>1829</ele>
        <time>2021-08-11T09:19:55.384Z</time>
      </trkpt>
      <trkpt lat="46.88536" lon="8.53482">
        <ele>1828</ele>
        <time>2021-08-11T09:19:56.384Z</time>
      </trkpt>
      <trkpt lat="46.88535" lon="8.53481">
        <ele>1835</ele>
        <time>2021-08-11T09:19:57.384Z</time>
      </trkpt>
      <trkpt lat="46.88536" lon="8.5348">
        <ele>1836</ele>
        <time>2021-08-11T09:19:58.384Z</time>
      </trkpt>
      <trkpt lat="46.88535" lon="8.5348">
        <ele>1836</ele>
        <time>2021-08-11T09:19:59.384Z</time>
      </trkpt>
      <trkpt lat="46.88535" lon="8.5348">
        <ele>1837</ele>
        <time>2021-08-11T09:20:00.385Z</time>
      </trkpt>
      <trkpt lat="46.88536" lon="8.5348">
        <ele>1837</ele>
        <time>2021-08-11T09:20:01.385Z</time>
      </trkpt>
      <trkpt lat="46.88536" lon="8.53479">
        <ele>1837</ele>
        <time>2021-08-11T09:20:02.385Z</time>
      </trkpt>
      <trkpt lat="46.88535" lon="8.53479">
        <ele>1837</ele>
        <time>2021-08-11T09:20:03.385Z</time>
      </trkpt>
      <trkpt lat="46.88534" lon="8.53478">
        <ele>1837</ele>
        <time>2021-08-11T09:20:04.385Z</time>
      </trkpt>
      <trkpt lat="46.88534" lon="8.53477">
        <ele>1837</ele>
        <time>2021-08-11T09:20:05.385Z</time>
      </trkpt>
      <trkpt lat="46.88534" lon="8.53476">
        <ele>1837</ele>
        <time>2021-08-11T09:20:06.385Z</time>
      </trkpt>
      <trkpt lat="46.88534" lon="8.53475">
        <ele>1836</ele>
        <time>2021-08-11T09:20:07.385Z</time>
      </trkpt>
      <trkpt lat="46.88534" lon="8.53474">
        <ele>1836</ele>
        <time>2021-08-11T09:20:08.385Z</time>
      </trkpt>
      <trkpt lat="46.88534" lon="8.53474">
        <ele>1836</ele>
        <time>2021-08-11T09:20:09.385Z</time>
      </trkpt>
      <trkpt lat="46.88533" lon="8.53472">
        <ele>1836</ele>
        <time>2021-08-11T09:20:10.385Z</time>
      </trkpt>
      <trkpt lat="46.88533" lon="8.53471">
        <ele>1835</ele>
        <time>2021-08-11T09:20:11.385Z</time>
      </trkpt>
      <trkpt lat="46.88533" lon="8.5347">
        <ele>1835</ele>
        <time>2021-08-11T09:20:12.385Z</time>
      </trkpt>
      <trkpt lat="46.88533" lon="8.53469">
        <ele>1835</ele>
        <time>2021-08-11T09:20:13.385Z</time>
      </trkpt>
      <trkpt lat="46.88533" lon="8.53468">
        <ele>1834</ele>
        <time>2021-08-11T09:20:14.385Z</time>
      </trkpt>
      <trkpt lat="46.88533" lon="8.53468">
        <ele>1834</ele>
        <time>2021-08-11T09:20:15.385Z</time>
      </trkpt>
      <trkpt lat="46.88533" lon="8.53467">
        <ele>1833</ele>
        <time>2021-08-11T09:20:16.385Z</time>
      </trkpt>
      <trkpt lat="46.88532" lon="8.53466">
        <ele>1833</ele>
        <time>2021-08-11T09:20:17.385Z</time>
      </trkpt>
      <trkpt lat="46.88532" lon="8.53464">
        <ele>1832</ele>
        <time>2021-08-11T09:20:18.385Z</time>
      </trkpt>
      <trkpt lat="46.88532" lon="8.53463">
        <ele>1833</ele>
        <time>2021-08-11T09:20:19.385Z</time>
      </trkpt>
      <trkpt lat="46.88532" lon="8.53463">
        <ele>1833</ele>
        <time>2021-08-11T09:20:20.385Z</time>
      </trkpt>
      <trkpt lat="46.88531" lon="8.53463">
        <ele>1834</ele>
        <time>2021-08-11T09:20:21.385Z</time>
      </trkpt>
      <trkpt lat="46.88532" lon="8.53462">
        <ele>1835</ele>
        <time>2021-08-11T09:20:22.386Z</time>
      </trkpt>
      <trkpt lat="46.88532" lon="8.53461">
        <ele>1836</ele>
        <time>2021-08-11T09:20:23.386Z</time>
      </trkpt>
      <trkpt lat="46.88531" lon="8.53461">
        <ele>1836</ele>
        <time>2021-08-11T09:20:24.385Z</time>
      </trkpt>
      <trkpt lat="46.88532" lon="8.5346">
        <ele>1836</ele>
        <time>2021-08-11T09:20:25.386Z</time>
      </trkpt>
      <trkpt lat="46.88531" lon="8.53459">
        <ele>1836</ele>
        <time>2021-08-11T09:20:26.385Z</time>
      </trkpt>
      <trkpt lat="46.88531" lon="8.53458">
        <ele>1835</ele>
        <time>2021-08-11T09:20:27.386Z</time>
      </trkpt>
      <trkpt lat="46.8853" lon="8.53458">
        <ele>1835</ele>
        <time>2021-08-11T09:20:28.386Z</time>
      </trkpt>
      <trkpt lat="46.88529" lon="8.53457">
        <ele>1835</ele>
        <time>2021-08-11T09:20:29.386Z</time>
      </trkpt>
      <trkpt lat="46.88529" lon="8.53457">
        <ele>1834</ele>
        <time>2021-08-11T09:20:30.385Z</time>
      </trkpt>
      <trkpt lat="46.88528" lon="8.53457">
        <ele>1834</ele>
        <time>2021-08-11T09:20:31.386Z</time>
      </trkpt>
      <trkpt lat="46.88528" lon="8.53457">
        <ele>1833</ele>
        <time>2021-08-11T09:20:32.386Z</time>
      </trkpt>
      <trkpt lat="46.88527" lon="8.53458">
        <ele>1829</ele>
        <time>2021-08-11T09:20:33.386Z</time>
      </trkpt>
      <trkpt lat="46.88527" lon="8.53457">
        <ele>1828</ele>
        <time>2021-08-11T09:20:34.386Z</time>
      </trkpt>
      <trkpt lat="46.88527" lon="8.53457">
        <ele>1828</ele>
        <time>2021-08-11T09:20:35.385Z</time>
      </trkpt>
      <trkpt lat="46.88526" lon="8.53457">
        <ele>1828</ele>
        <time>2021-08-11T09:20:36.386Z</time>
      </trkpt>
      <trkpt lat="46.88525" lon="8.53457">
        <ele>1828</ele>
        <time>2021-08-11T09:20:37.386Z</time>
      </trkpt>
      <trkpt lat="46.88525" lon="8.53457">
        <ele>1828</ele>
        <time>2021-08-11T09:20:38.386Z</time>
      </trkpt>
      <trkpt lat="46.88524" lon="8.53457">
        <ele>1829</ele>
        <time>2021-08-11T09:20:39.385Z</time>
      </trkpt>
      <trkpt lat="46.88523" lon="8.53457">
        <ele>1830</ele>
        <time>2021-08-11T09:20:40.386Z</time>
      </trkpt>
      <trkpt lat="46.88523" lon="8.53456">
        <ele>1830</ele>
        <time>2021-08-11T09:20:41.386Z</time>
      </trkpt>
      <trkpt lat="46.88522" lon="8.53456">
        <ele>1831</ele>
        <time>2021-08-11T09:20:42.385Z</time>
      </trkpt>
      <trkpt lat="46.88522" lon="8.53456">
        <ele>1832</ele>
        <time>2021-08-11T09:20:43.385Z</time>
      </trkpt>
      <trkpt lat="46.88521" lon="8.53455">
        <ele>1832</ele>
        <time>2021-08-11T09:20:44.386Z</time>
      </trkpt>
      <trkpt lat="46.88521" lon="8.53455">
        <ele>1833</ele>
        <time>2021-08-11T09:20:45.386Z</time>
      </trkpt>
      <trkpt lat="46.88519" lon="8.53453">
        <ele>1834</ele>
        <time>2021-08-11T09:20:46.387Z</time>
      </trkpt>
      <trkpt lat="46.88519" lon="8.53452">
        <ele>1834</ele>
        <time>2021-08-11T09:20:47.387Z</time>
      </trkpt>
      <trkpt lat="46.88518" lon="8.53452">
        <ele>1834</ele>
        <time>2021-08-11T09:20:48.386Z</time>
      </trkpt>
      <trkpt lat="46.88518" lon="8.53452">
        <ele>1835</ele>
        <time>2021-08-11T09:20:49.387Z</time>
      </trkpt>
      <trkpt lat="46.88518" lon="8.53452">
        <ele>1835</ele>
        <time>2021-08-11T09:20:50.387Z</time>
      </trkpt>
      <trkpt lat="46.88517" lon="8.53452">
        <ele>1835</ele>
        <time>2021-08-11T09:20:51.386Z</time>
      </trkpt>
      <trkpt lat="46.88517" lon="8.53452">
        <ele>1835</ele>
        <time>2021-08-11T09:20:52.387Z</time>
      </trkpt>
      <trkpt lat="46.88517" lon="8.53452">
        <ele>1836</ele>
        <time>2021-08-11T09:20:53.386Z</time>
      </trkpt>
      <trkpt lat="46.88516" lon="8.53452">
        <ele>1836</ele>
        <time>2021-08-11T09:20:54.387Z</time>
      </trkpt>
      <trkpt lat="46.88516" lon="8.53452">
        <ele>1836</ele>
        <time>2021-08-11T09:20:55.386Z</time>
      </trkpt>
      <trkpt lat="46.88515" lon="8.53451">
        <ele>1836</ele>
        <time>2021-08-11T09:20:56.387Z</time>
      </trkpt>
      <trkpt lat="46.88514" lon="8.53451">
        <ele>1836</ele>
        <time>2021-08-11T09:20:57.386Z</time>
      </trkpt>
      <trkpt lat="46.88513" lon="8.5345">
        <ele>1836</ele>
        <time>2021-08-11T09:20:58.387Z</time>
      </trkpt>
      <trkpt lat="46.88512" lon="8.53451">
        <ele>1837</ele>
        <time>2021-08-11T09:20:59.387Z</time>
      </trkpt>
      <trkpt lat="46.88511" lon="8.53451">
        <ele>1837</ele>
        <time>2021-08-11T09:21:00.387Z</time>
      </trkpt>
      <trkpt lat="46.88511" lon="8.5345">
        <ele>1838</ele>
        <time>2021-08-11T09:21:01.387Z</time>
      </trkpt>
      <trkpt lat="46.88511" lon="8.53451">
        <ele>1838</ele>
        <time>2021-08-11T09:21:02.386Z</time>
      </trkpt>
      <trkpt lat="46.88511" lon="8.53451">
        <ele>1838</ele>
        <time>2021-08-11T09:21:03.386Z</time>
      </trkpt>
      <trkpt lat="46.88511" lon="8.53451">
        <ele>1835</ele>
        <time>2021-08-11T09:21:04.387Z</time>
      </trkpt>
      <trkpt lat="46.88512" lon="8.53452">
        <ele>1835</ele>
        <time>2021-08-11T09:21:05.386Z</time>
      </trkpt>
      <trkpt lat="46.88512" lon="8.53452">
        <ele>1834</ele>
        <time>2021-08-11T09:21:06.386Z</time>
      </trkpt>
      <trkpt lat="46.88511" lon="8.53451">
        <ele>1829</ele>
        <time>2021-08-11T09:21:07.387Z</time>
      </trkpt>
      <trkpt lat="46.8851" lon="8.5345">
        <ele>1829</ele>
        <time>2021-08-11T09:21:08.387Z</time>
      </trkpt>
      <trkpt lat="46.8851" lon="8.5345">
        <ele>1828</ele>
        <time>2021-08-11T09:21:09.387Z</time>
      </trkpt>
      <trkpt lat="46.8851" lon="8.5345">
        <ele>1828</ele>
        <time>2021-08-11T09:21:10.387Z</time>
      </trkpt>
      <trkpt lat="46.88509" lon="8.5345">
        <ele>1828</ele>
        <time>2021-08-11T09:21:11.388Z</time>
      </trkpt>
      <trkpt lat="46.88508" lon="8.5345">
        <ele>1827</ele>
        <time>2021-08-11T09:21:12.388Z</time>
      </trkpt>
      <trkpt lat="46.88508" lon="8.5345">
        <ele>1827</ele>
        <time>2021-08-11T09:21:13.388Z</time>
      </trkpt>
      <trkpt lat="46.88508" lon="8.53449">
        <ele>1827</ele>
        <time>2021-08-11T09:21:14.387Z</time>
      </trkpt>
      <trkpt lat="46.88508" lon="8.53449">
        <ele>1827</ele>
        <time>2021-08-11T09:21:15.387Z</time>
      </trkpt>
      <trkpt lat="46.88509" lon="8.53449">
        <ele>1827</ele>
        <time>2021-08-11T09:21:16.388Z</time>
      </trkpt>
      <trkpt lat="46.88508" lon="8.53449">
        <ele>1827</ele>
        <time>2021-08-11T09:21:17.388Z</time>
      </trkpt>
      <trkpt lat="46.88507" lon="8.53449">
        <ele>1827</ele>
        <time>2021-08-11T09:21:18.388Z</time>
      </trkpt>
      <trkpt lat="46.88507" lon="8.53449">
        <ele>1827</ele>
        <time>2021-08-11T09:21:19.388Z</time>
      </trkpt>
      <trkpt lat="46.88506" lon="8.5345">
        <ele>1825</ele>
        <time>2021-08-11T09:21:20.390Z</time>
      </trkpt>
      <trkpt lat="46.88506" lon="8.5345">
        <ele>1825</ele>
        <time>2021-08-11T09:21:21.389Z</time>
      </trkpt>
      <trkpt lat="46.88507" lon="8.5345">
        <ele>1827</ele>
        <time>2021-08-11T09:21:22.390Z</time>
      </trkpt>
      <trkpt lat="46.88507" lon="8.5345">
        <ele>1828</ele>
        <time>2021-08-11T09:21:23.390Z</time>
      </trkpt>
      <trkpt lat="46.88506" lon="8.5345">
        <ele>1828</ele>
        <time>2021-08-11T09:21:24.390Z</time>
      </trkpt>
      <trkpt lat="46.88503" lon="8.53449">
        <ele>1840</ele>
        <time>2021-08-11T09:21:25.391Z</time>
      </trkpt>
      <trkpt lat="46.88504" lon="8.5345">
        <ele>1841</ele>
        <time>2021-08-11T09:21:26.390Z</time>
      </trkpt>
      <trkpt lat="46.88504" lon="8.53451">
        <ele>1841</ele>
        <time>2021-08-11T09:21:27.391Z</time>
      </trkpt>
      <trkpt lat="46.88504" lon="8.53451">
        <ele>1842</ele>
        <time>2021-08-11T09:21:28.391Z</time>
      </trkpt>
      <trkpt lat="46.88504" lon="8.53451">
        <ele>1842</ele>
        <time>2021-08-11T09:21:29.391Z</time>
      </trkpt>
      <trkpt lat="46.88501" lon="8.53448">
        <ele>1843</ele>
        <time>2021-08-11T09:21:30.391Z</time>
      </trkpt>
      <trkpt lat="46.88501" lon="8.53447">
        <ele>1842</ele>
        <time>2021-08-11T09:21:31.390Z</time>
      </trkpt>
      <trkpt lat="46.88499" lon="8.53445">
        <ele>1840</ele>
        <time>2021-08-11T09:21:32.391Z</time>
      </trkpt>
      <trkpt lat="46.88499" lon="8.53444">
        <ele>1840</ele>
        <time>2021-08-11T09:21:33.390Z</time>
      </trkpt>
      <trkpt lat="46.88499" lon="8.53443">
        <ele>1839</ele>
        <time>2021-08-11T09:21:34.392Z</time>
      </trkpt>
      <trkpt lat="46.885" lon="8.53443">
        <ele>1839</ele>
        <time>2021-08-11T09:21:35.392Z</time>
      </trkpt>
      <trkpt lat="46.88499" lon="8.53442">
        <ele>1838</ele>
        <time>2021-08-11T09:21:36.391Z</time>
      </trkpt>
      <trkpt lat="46.88499" lon="8.53442">
        <ele>1838</ele>
        <time>2021-08-11T09:21:37.391Z</time>
      </trkpt>
      <trkpt lat="46.88494" lon="8.53445">
        <ele>1834</ele>
        <time>2021-08-11T09:21:38.393Z</time>
      </trkpt>
      <trkpt lat="46.88494" lon="8.53445">
        <ele>1834</ele>
        <time>2021-08-11T09:21:39.393Z</time>
      </trkpt>
      <trkpt lat="46.88495" lon="8.53445">
        <ele>1833</ele>
        <time>2021-08-11T09:21:40.392Z</time>
      </trkpt>
      <trkpt lat="46.88495" lon="8.53446">
        <ele>1831</ele>
        <time>2021-08-11T09:21:41.393Z</time>
      </trkpt>
      <trkpt lat="46.88495" lon="8.53445">
        <ele>1831</ele>
        <time>2021-08-11T09:21:42.394Z</time>
      </trkpt>
      <trkpt lat="46.88495" lon="8.53444">
        <ele>1832</ele>
        <time>2021-08-11T09:21:43.393Z</time>
      </trkpt>
      <trkpt lat="46.88495" lon="8.53443">
        <ele>1832</ele>
        <time>2021-08-11T09:21:44.394Z</time>
      </trkpt>
      <trkpt lat="46.88495" lon="8.53442">
        <ele>1833</ele>
        <time>2021-08-11T09:21:45.394Z</time>
      </trkpt>
      <trkpt lat="46.88502" lon="8.53439">
        <ele>1834</ele>
        <time>2021-08-11T09:21:46.394Z</time>
      </trkpt>
      <trkpt lat="46.88501" lon="8.53439">
        <ele>1834</ele>
        <time>2021-08-11T09:21:47.394Z</time>
      </trkpt>
      <trkpt lat="46.885" lon="8.53439">
        <ele>1834</ele>
        <time>2021-08-11T09:21:48.393Z</time>
      </trkpt>
      <trkpt lat="46.88498" lon="8.5344">
        <ele>1833</ele>
        <time>2021-08-11T09:21:49.393Z</time>
      </trkpt>
      <trkpt lat="46.88497" lon="8.5344">
        <ele>1833</ele>
        <time>2021-08-11T09:21:50.393Z</time>
      </trkpt>
      <trkpt lat="46.88497" lon="8.5344">
        <ele>1833</ele>
        <time>2021-08-11T09:21:51.394Z</time>
      </trkpt>
      <trkpt lat="46.88496" lon="8.5344">
        <ele>1833</ele>
        <time>2021-08-11T09:21:52.394Z</time>
      </trkpt>
      <trkpt lat="46.88496" lon="8.53439">
        <ele>1834</ele>
        <time>2021-08-11T09:21:53.394Z</time>
      </trkpt>
      <trkpt lat="46.88497" lon="8.53439">
        <ele>1834</ele>
        <time>2021-08-11T09:21:54.394Z</time>
      </trkpt>
      <trkpt lat="46.88497" lon="8.53439">
        <ele>1834</ele>
        <time>2021-08-11T09:21:55.393Z</time>
      </trkpt>
      <trkpt lat="46.88501" lon="8.53438">
        <ele>1833</ele>
        <time>2021-08-11T09:21:56.394Z</time>
      </trkpt>
      <trkpt lat="46.885" lon="8.53437">
        <ele>1833</ele>
        <time>2021-08-11T09:21:57.394Z</time>
      </trkpt>
      <trkpt lat="46.88499" lon="8.53437">
        <ele>1832</ele>
        <time>2021-08-11T09:21:58.394Z</time>
      </trkpt>
      <trkpt lat="46.88498" lon="8.53436">
        <ele>1832</ele>
        <time>2021-08-11T09:21:59.393Z</time>
      </trkpt>
      <trkpt lat="46.88497" lon="8.53436">
        <ele>1832</ele>
        <time>2021-08-11T09:22:00.394Z</time>
      </trkpt>
      <trkpt lat="46.88497" lon="8.53437">
        <ele>1832</ele>
        <time>2021-08-11T09:22:01.394Z</time>
      </trkpt>
      <trkpt lat="46.88496" lon="8.53436">
        <ele>1832</ele>
        <time>2021-08-11T09:22:02.394Z</time>
      </trkpt>
      <trkpt lat="46.88495" lon="8.53435">
        <ele>1832</ele>
        <time>2021-08-11T09:22:03.395Z</time>
      </trkpt>
      <trkpt lat="46.88494" lon="8.53435">
        <ele>1832</ele>
        <time>2021-08-11T09:22:04.394Z</time>
      </trkpt>
      <trkpt lat="46.88493" lon="8.53436">
        <ele>1832</ele>
        <time>2021-08-11T09:22:05.394Z</time>
      </trkpt>
      <trkpt lat="46.88493" lon="8.53436">
        <ele>1832</ele>
        <time>2021-08-11T09:22:06.394Z</time>
      </trkpt>
      <trkpt lat="46.88492" lon="8.53437">
        <ele>1831</ele>
        <time>2021-08-11T09:22:07.395Z</time>
      </trkpt>
      <trkpt lat="46.88492" lon="8.53437">
        <ele>1831</ele>
        <time>2021-08-11T09:22:08.395Z</time>
      </trkpt>
      <trkpt lat="46.88492" lon="8.53436">
        <ele>1831</ele>
        <time>2021-08-11T09:22:09.394Z</time>
      </trkpt>
      <trkpt lat="46.8849" lon="8.53435">
        <ele>1827</ele>
        <time>2021-08-11T09:22:10.396Z</time>
      </trkpt>
      <trkpt lat="46.8849" lon="8.53435">
        <ele>1826</ele>
        <time>2021-08-11T09:22:11.396Z</time>
      </trkpt>
      <trkpt lat="46.88489" lon="8.53434">
        <ele>1826</ele>
        <time>2021-08-11T09:22:12.395Z</time>
      </trkpt>
      <trkpt lat="46.88489" lon="8.53435">
        <ele>1826</ele>
        <time>2021-08-11T09:22:13.396Z</time>
      </trkpt>
      <trkpt lat="46.88489" lon="8.53435">
        <ele>1826</ele>
        <time>2021-08-11T09:22:14.396Z</time>
      </trkpt>
      <trkpt lat="46.88488" lon="8.53435">
        <ele>1826</ele>
        <time>2021-08-11T09:22:15.396Z</time>
      </trkpt>
      <trkpt lat="46.88488" lon="8.53435">
        <ele>1826</ele>
        <time>2021-08-11T09:22:16.396Z</time>
      </trkpt>
      <trkpt lat="46.88487" lon="8.53435">
        <ele>1826</ele>
        <time>2021-08-11T09:22:17.395Z</time>
      </trkpt>
      <trkpt lat="46.88487" lon="8.53436">
        <ele>1826</ele>
        <time>2021-08-11T09:22:18.396Z</time>
      </trkpt>
      <trkpt lat="46.88487" lon="8.53436">
        <ele>1826</ele>
        <time>2021-08-11T09:22:19.396Z</time>
      </trkpt>
      <trkpt lat="46.88487" lon="8.53436">
        <ele>1826</ele>
        <time>2021-08-11T09:22:20.396Z</time>
      </trkpt>
      <trkpt lat="46.88487" lon="8.53436">
        <ele>1826</ele>
        <time>2021-08-11T09:22:21.395Z</time>
      </trkpt>
      <trkpt lat="46.88487" lon="8.53435">
        <ele>1826</ele>
        <time>2021-08-11T09:22:22.396Z</time>
      </trkpt>
      <trkpt lat="46.88486" lon="8.53434">
        <ele>1826</ele>
        <time>2021-08-11T09:22:23.396Z</time>
      </trkpt>
      <trkpt lat="46.88486" lon="8.53434">
        <ele>1827</ele>
        <time>2021-08-11T09:22:24.396Z</time>
      </trkpt>
      <trkpt lat="46.88486" lon="8.53432">
        <ele>1829</ele>
        <time>2021-08-11T09:22:25.397Z</time>
      </trkpt>
      <trkpt lat="46.88485" lon="8.53432">
        <ele>1830</ele>
        <time>2021-08-11T09:22:26.397Z</time>
      </trkpt>
      <trkpt lat="46.88484" lon="8.53431">
        <ele>1830</ele>
        <time>2021-08-11T09:22:27.396Z</time>
      </trkpt>
      <trkpt lat="46.88483" lon="8.5343">
        <ele>1830</ele>
        <time>2021-08-11T09:22:28.397Z</time>
      </trkpt>
      <trkpt lat="46.88482" lon="8.5343">
        <ele>1830</ele>
        <time>2021-08-11T09:22:29.396Z</time>
      </trkpt>
      <trkpt lat="46.88481" lon="8.53431">
        <ele>1830</ele>
        <time>2021-08-11T09:22:30.397Z</time>
      </trkpt>
      <trkpt lat="46.88481" lon="8.53431">
        <ele>1830</ele>
        <time>2021-08-11T09:22:31.397Z</time>
      </trkpt>
      <trkpt lat="46.88481" lon="8.53431">
        <ele>1830</ele>
        <time>2021-08-11T09:22:32.396Z</time>
      </trkpt>
      <trkpt lat="46.88481" lon="8.5343">
        <ele>1831</ele>
        <time>2021-08-11T09:22:33.397Z</time>
      </trkpt>
      <trkpt lat="46.88481" lon="8.5343">
        <ele>1831</ele>
        <time>2021-08-11T09:22:34.396Z</time>
      </trkpt>
      <trkpt lat="46.88481" lon="8.53429">
        <ele>1831</ele>
        <time>2021-08-11T09:22:35.397Z</time>
      </trkpt>
      <trkpt lat="46.88481" lon="8.53429">
        <ele>1830</ele>
        <time>2021-08-11T09:22:36.397Z</time>
      </trkpt>
      <trkpt lat="46.88481" lon="8.53429">
        <ele>1830</ele>
        <time>2021-08-11T09:22:37.397Z</time>
      </trkpt>
      <trkpt lat="46.88481" lon="8.53429">
        <ele>1830</ele>
        <time>2021-08-11T09:22:38.397Z</time>
      </trkpt>
      <trkpt lat="46.88482" lon="8.53428">
        <ele>1829</ele>
        <time>2021-08-11T09:22:39.398Z</time>
      </trkpt>
      <trkpt lat="46.88481" lon="8.53427">
        <ele>1829</ele>
        <time>2021-08-11T09:22:40.398Z</time>
      </trkpt>
      <trkpt lat="46.88481" lon="8.53426">
        <ele>1829</ele>
        <time>2021-08-11T09:22:41.397Z</time>
      </trkpt>
      <trkpt lat="46.8848" lon="8.53425">
        <ele>1828</ele>
        <time>2021-08-11T09:22:42.397Z</time>
      </trkpt>
      <trkpt lat="46.8848" lon="8.53424">
        <ele>1828</ele>
        <time>2021-08-11T09:22:43.398Z</time>
      </trkpt>
      <trkpt lat="46.8848" lon="8.53423">
        <ele>1828</ele>
        <time>2021-08-11T09:22:44.398Z</time>
      </trkpt>
      <trkpt lat="46.8848" lon="8.53423">
        <ele>1828</ele>
        <time>2021-08-11T09:22:45.398Z</time>
      </trkpt>
      <trkpt lat="46.88481" lon="8.53425">
        <ele>1828</ele>
        <time>2021-08-11T09:22:46.398Z</time>
      </trkpt>
      <trkpt lat="46.88481" lon="8.53424">
        <ele>1828</ele>
        <time>2021-08-11T09:22:47.397Z</time>
      </trkpt>
      <trkpt lat="46.88482" lon="8.53422">
        <ele>1829</ele>
        <time>2021-08-11T09:22:48.398Z</time>
      </trkpt>
      <trkpt lat="46.88482" lon="8.53421">
        <ele>1829</ele>
        <time>2021-08-11T09:22:49.399Z</time>
      </trkpt>
      <trkpt lat="46.88482" lon="8.53421">
        <ele>1828</ele>
        <time>2021-08-11T09:22:50.398Z</time>
      </trkpt>
      <trkpt lat="46.88481" lon="8.5342">
        <ele>1828</ele>
        <time>2021-08-11T09:22:51.399Z</time>
      </trkpt>
      <trkpt lat="46.88481" lon="8.53419">
        <ele>1827</ele>
        <time>2021-08-11T09:22:52.399Z</time>
      </trkpt>
      <trkpt lat="46.8848" lon="8.53419">
        <ele>1827</ele>
        <time>2021-08-11T09:22:53.399Z</time>
      </trkpt>
      <trkpt lat="46.8848" lon="8.53418">
        <ele>1826</ele>
        <time>2021-08-11T09:22:54.399Z</time>
      </trkpt>
      <trkpt lat="46.88479" lon="8.53418">
        <ele>1825</ele>
        <time>2021-08-11T09:22:55.399Z</time>
      </trkpt>
      <trkpt lat="46.88478" lon="8.53417">
        <ele>1825</ele>
        <time>2021-08-11T09:22:56.398Z</time>
      </trkpt>
      <trkpt lat="46.88477" lon="8.53418">
        <ele>1824</ele>
        <time>2021-08-11T09:22:57.399Z</time>
      </trkpt>
      <trkpt lat="46.88476" lon="8.53418">
        <ele>1823</ele>
        <time>2021-08-11T09:22:58.399Z</time>
      </trkpt>
      <trkpt lat="46.88476" lon="8.53418">
        <ele>1823</ele>
        <time>2021-08-11T09:22:59.399Z</time>
      </trkpt>
      <trkpt lat="46.88477" lon="8.53417">
        <ele>1820</ele>
        <time>2021-08-11T09:23:00.401Z</time>
      </trkpt>
      <trkpt lat="46.88476" lon="8.53416">
        <ele>1820</ele>
        <time>2021-08-11T09:23:01.400Z</time>
      </trkpt>
      <trkpt lat="46.88476" lon="8.53416">
        <ele>1820</ele>
        <time>2021-08-11T09:23:02.400Z</time>
      </trkpt>
      <trkpt lat="46.88474" lon="8.53416">
        <ele>1820</ele>
        <time>2021-08-11T09:23:03.401Z</time>
      </trkpt>
      <trkpt lat="46.88473" lon="8.53416">
        <ele>1820</ele>
        <time>2021-08-11T09:23:04.401Z</time>
      </trkpt>
      <trkpt lat="46.88473" lon="8.53415">
        <ele>1820</ele>
        <time>2021-08-11T09:23:05.402Z</time>
      </trkpt>
      <trkpt lat="46.88473" lon="8.53415">
        <ele>1820</ele>
        <time>2021-08-11T09:23:06.402Z</time>
      </trkpt>
      <trkpt lat="46.88473" lon="8.53414">
        <ele>1820</ele>
        <time>2021-08-11T09:23:07.402Z</time>
      </trkpt>
      <trkpt lat="46.88472" lon="8.53413">
        <ele>1820</ele>
        <time>2021-08-11T09:23:08.402Z</time>
      </trkpt>
      <trkpt lat="46.88472" lon="8.53412">
        <ele>1820</ele>
        <time>2021-08-11T09:23:09.402Z</time>
      </trkpt>
      <trkpt lat="46.88472" lon="8.53412">
        <ele>1820</ele>
        <time>2021-08-11T09:23:10.402Z</time>
      </trkpt>
      <trkpt lat="46.88472" lon="8.53411">
        <ele>1820</ele>
        <time>2021-08-11T09:23:11.402Z</time>
      </trkpt>
      <trkpt lat="46.88468" lon="8.5341">
        <ele>1820</ele>
        <time>2021-08-11T09:23:12.401Z</time>
      </trkpt>
      <trkpt lat="46.88468" lon="8.5341">
        <ele>1820</ele>
        <time>2021-08-11T09:23:13.401Z</time>
      </trkpt>
      <trkpt lat="46.88467" lon="8.5341">
        <ele>1820</ele>
        <time>2021-08-11T09:23:14.402Z</time>
      </trkpt>
      <trkpt lat="46.88467" lon="8.5341">
        <ele>1820</ele>
        <time>2021-08-11T09:23:15.401Z</time>
      </trkpt>
      <trkpt lat="46.88467" lon="8.5341">
        <ele>1819</ele>
        <time>2021-08-11T09:23:16.402Z</time>
      </trkpt>
      <trkpt lat="46.88466" lon="8.53409">
        <ele>1819</ele>
        <time>2021-08-11T09:23:17.401Z</time>
      </trkpt>
      <trkpt lat="46.88466" lon="8.53409">
        <ele>1819</ele>
        <time>2021-08-11T09:23:18.402Z</time>
      </trkpt>
      <trkpt lat="46.88465" lon="8.53409">
        <ele>1819</ele>
        <time>2021-08-11T09:23:19.401Z</time>
      </trkpt>
      <trkpt lat="46.88465" lon="8.53408">
        <ele>1819</ele>
        <time>2021-08-11T09:23:20.402Z</time>
      </trkpt>
      <trkpt lat="46.88465" lon="8.53407">
        <ele>1818</ele>
        <time>2021-08-11T09:23:21.402Z</time>
      </trkpt>
      <trkpt lat="46.88465" lon="8.53407">
        <ele>1818</ele>
        <time>2021-08-11T09:23:22.402Z</time>
      </trkpt>
      <trkpt lat="46.88464" lon="8.53406">
        <ele>1818</ele>
        <time>2021-08-11T09:23:23.402Z</time>
      </trkpt>
      <trkpt lat="46.88463" lon="8.53405">
        <ele>1818</ele>
        <time>2021-08-11T09:23:24.401Z</time>
      </trkpt>
      <trkpt lat="46.88463" lon="8.53405">
        <ele>1817</ele>
        <time>2021-08-11T09:23:25.401Z</time>
      </trkpt>
      <trkpt lat="46.88463" lon="8.53404">
        <ele>1817</ele>
        <time>2021-08-11T09:23:26.402Z</time>
      </trkpt>
      <trkpt lat="46.88463" lon="8.53403">
        <ele>1816</ele>
        <time>2021-08-11T09:23:27.402Z</time>
      </trkpt>
      <trkpt lat="46.88464" lon="8.53403">
        <ele>1816</ele>
        <time>2021-08-11T09:23:28.401Z</time>
      </trkpt>
      <trkpt lat="46.88464" lon="8.53402">
        <ele>1816</ele>
        <time>2021-08-11T09:23:29.401Z</time>
      </trkpt>
      <trkpt lat="46.88465" lon="8.53402">
        <ele>1816</ele>
        <time>2021-08-11T09:23:30.402Z</time>
      </trkpt>
      <trkpt lat="46.88465" lon="8.53402">
        <ele>1816</ele>
        <time>2021-08-11T09:23:31.402Z</time>
      </trkpt>
      <trkpt lat="46.88464" lon="8.53401">
        <ele>1816</ele>
        <time>2021-08-11T09:23:32.402Z</time>
      </trkpt>
      <trkpt lat="46.88464" lon="8.53401">
        <ele>1816</ele>
        <time>2021-08-11T09:23:33.402Z</time>
      </trkpt>
      <trkpt lat="46.88465" lon="8.53401">
        <ele>1809</ele>
        <time>2021-08-11T09:23:34.402Z</time>
      </trkpt>
      <trkpt lat="46.88464" lon="8.53401">
        <ele>1809</ele>
        <time>2021-08-11T09:23:35.402Z</time>
      </trkpt>
      <trkpt lat="46.88463" lon="8.534">
        <ele>1809</ele>
        <time>2021-08-11T09:23:36.401Z</time>
      </trkpt>
      <trkpt lat="46.88462" lon="8.534">
        <ele>1809</ele>
        <time>2021-08-11T09:23:37.402Z</time>
      </trkpt>
      <trkpt lat="46.88462" lon="8.534">
        <ele>1809</ele>
        <time>2021-08-11T09:23:38.401Z</time>
      </trkpt>
      <trkpt lat="46.88461" lon="8.53399">
        <ele>1810</ele>
        <time>2021-08-11T09:23:39.402Z</time>
      </trkpt>
      <trkpt lat="46.8846" lon="8.53399">
        <ele>1810</ele>
        <time>2021-08-11T09:23:40.401Z</time>
      </trkpt>
      <trkpt lat="46.88459" lon="8.53399">
        <ele>1810</ele>
        <time>2021-08-11T09:23:41.401Z</time>
      </trkpt>
      <trkpt lat="46.88458" lon="8.53399">
        <ele>1810</ele>
        <time>2021-08-11T09:23:42.402Z</time>
      </trkpt>
      <trkpt lat="46.88457" lon="8.53398">
        <ele>1810</ele>
        <time>2021-08-11T09:23:43.401Z</time>
      </trkpt>
      <trkpt lat="46.88456" lon="8.53398">
        <ele>1809</ele>
        <time>2021-08-11T09:23:44.401Z</time>
      </trkpt>
      <trkpt lat="46.88455" lon="8.53398">
        <ele>1809</ele>
        <time>2021-08-11T09:23:45.401Z</time>
      </trkpt>
      <trkpt lat="46.88455" lon="8.53398">
        <ele>1808</ele>
        <time>2021-08-11T09:23:46.401Z</time>
      </trkpt>
      <trkpt lat="46.88452" lon="8.53395">
        <ele>1806</ele>
        <time>2021-08-11T09:23:47.401Z</time>
      </trkpt>
      <trkpt lat="46.8845" lon="8.53394">
        <ele>1806</ele>
        <time>2021-08-11T09:23:48.401Z</time>
      </trkpt>
      <trkpt lat="46.8845" lon="8.53394">
        <ele>1806</ele>
        <time>2021-08-11T09:23:49.402Z</time>
      </trkpt>
      <trkpt lat="46.88448" lon="8.53392">
        <ele>1807</ele>
        <time>2021-08-11T09:23:50.402Z</time>
      </trkpt>
      <trkpt lat="46.88448" lon="8.53391">
        <ele>1807</ele>
        <time>2021-08-11T09:23:51.401Z</time>
      </trkpt>
      <trkpt lat="46.88448" lon="8.53391">
        <ele>1807</ele>
        <time>2021-08-11T09:23:52.401Z</time>
      </trkpt>
      <trkpt lat="46.88448" lon="8.5339">
        <ele>1807</ele>
        <time>2021-08-11T09:23:53.402Z</time>
      </trkpt>
      <trkpt lat="46.88447" lon="8.53389">
        <ele>1807</ele>
        <time>2021-08-11T09:23:54.402Z</time>
      </trkpt>
      <trkpt lat="46.88447" lon="8.5339">
        <ele>1807</ele>
        <time>2021-08-11T09:23:55.402Z</time>
      </trkpt>
      <trkpt lat="46.88448" lon="8.53391">
        <ele>1806</ele>
        <time>2021-08-11T09:23:56.403Z</time>
      </trkpt>
      <trkpt lat="46.88448" lon="8.53391">
        <ele>1806</ele>
        <time>2021-08-11T09:23:57.403Z</time>
      </trkpt>
      <trkpt lat="46.88448" lon="8.53391">
        <ele>1806</ele>
        <time>2021-08-11T09:23:58.402Z</time>
      </trkpt>
      <trkpt lat="46.88446" lon="8.5339">
        <ele>1804</ele>
        <time>2021-08-11T09:23:59.404Z</time>
      </trkpt>
      <trkpt lat="46.88446" lon="8.5339">
        <ele>1804</ele>
        <time>2021-08-11T09:24:00.404Z</time>
      </trkpt>
      <trkpt lat="46.88446" lon="8.53389">
        <ele>1804</ele>
        <time>2021-08-11T09:24:01.404Z</time>
      </trkpt>
      <trkpt lat="46.88445" lon="8.53389">
        <ele>1804</ele>
        <time>2021-08-11T09:24:02.404Z</time>
      </trkpt>
      <trkpt lat="46.88445" lon="8.53388">
        <ele>1804</ele>
        <time>2021-08-11T09:24:03.403Z</time>
      </trkpt>
      <trkpt lat="46.88445" lon="8.53388">
        <ele>1804</ele>
        <time>2021-08-11T09:24:04.403Z</time>
      </trkpt>
      <trkpt lat="46.88445" lon="8.53388">
        <ele>1804</ele>
        <time>2021-08-11T09:24:05.404Z</time>
      </trkpt>
      <trkpt lat="46.88445" lon="8.53387">
        <ele>1804</ele>
        <time>2021-08-11T09:24:06.404Z</time>
      </trkpt>
      <trkpt lat="46.88445" lon="8.53386">
        <ele>1804</ele>
        <time>2021-08-11T09:24:07.405Z</time>
      </trkpt>
      <trkpt lat="46.88445" lon="8.53385">
        <ele>1804</ele>
        <time>2021-08-11T09:24:08.405Z</time>
      </trkpt>
      <trkpt lat="46.88445" lon="8.53385">
        <ele>1804</ele>
        <time>2021-08-11T09:24:09.404Z</time>
      </trkpt>
      <trkpt lat="46.88445" lon="8.53385">
        <ele>1804</ele>
        <time>2021-08-11T09:24:10.405Z</time>
      </trkpt>
      <trkpt lat="46.88445" lon="8.53384">
        <ele>1803</ele>
        <time>2021-08-11T09:24:11.405Z</time>
      </trkpt>
      <trkpt lat="46.88445" lon="8.53383">
        <ele>1803</ele>
        <time>2021-08-11T09:24:12.404Z</time>
      </trkpt>
      <trkpt lat="46.88445" lon="8.53383">
        <ele>1803</ele>
        <time>2021-08-11T09:24:13.405Z</time>
      </trkpt>
      <trkpt lat="46.88445" lon="8.53382">
        <ele>1803</ele>
        <time>2021-08-11T09:24:14.405Z</time>
      </trkpt>
      <trkpt lat="46.88445" lon="8.53382">
        <ele>1803</ele>
        <time>2021-08-11T09:24:15.404Z</time>
      </trkpt>
      <trkpt lat="46.88444" lon="8.53381">
        <ele>1804</ele>
        <time>2021-08-11T09:24:16.405Z</time>
      </trkpt>
      <trkpt lat="46.88444" lon="8.53381">
        <ele>1804</ele>
        <time>2021-08-11T09:24:17.405Z</time>
      </trkpt>
      <trkpt lat="46.88444" lon="8.53381">
        <ele>1804</ele>
        <time>2021-08-11T09:24:18.404Z</time>
      </trkpt>
      <trkpt lat="46.88445" lon="8.5338">
        <ele>1803</ele>
        <time>2021-08-11T09:24:19.405Z</time>
      </trkpt>
      <trkpt lat="46.88445" lon="8.5338">
        <ele>1803</ele>
        <time>2021-08-11T09:24:20.404Z</time>
      </trkpt>
      <trkpt lat="46.88445" lon="8.5338">
        <ele>1803</ele>
        <time>2021-08-11T09:24:21.404Z</time>
      </trkpt>
      <trkpt lat="46.88445" lon="8.53379">
        <ele>1803</ele>
        <time>2021-08-11T09:24:22.404Z</time>
      </trkpt>
      <trkpt lat="46.88445" lon="8.53379">
        <ele>1803</ele>
        <time>2021-08-11T09:24:23.404Z</time>
      </trkpt>
      <trkpt lat="46.88444" lon="8.53378">
        <ele>1803</ele>
        <time>2021-08-11T09:24:24.405Z</time>
      </trkpt>
      <trkpt lat="46.88443" lon="8.53377">
        <ele>1803</ele>
        <time>2021-08-11T09:24:25.405Z</time>
      </trkpt>
      <trkpt lat="46.88443" lon="8.53377">
        <ele>1803</ele>
        <time>2021-08-11T09:24:26.405Z</time>
      </trkpt>
      <trkpt lat="46.88443" lon="8.53376">
        <ele>1802</ele>
        <time>2021-08-11T09:24:27.405Z</time>
      </trkpt>
      <trkpt lat="46.88443" lon="8.53376">
        <ele>1802</ele>
        <time>2021-08-11T09:24:28.405Z</time>
      </trkpt>
      <trkpt lat="46.88442" lon="8.53375">
        <ele>1802</ele>
        <time>2021-08-11T09:24:29.404Z</time>
      </trkpt>
      <trkpt lat="46.88441" lon="8.53374">
        <ele>1801</ele>
        <time>2021-08-11T09:24:30.405Z</time>
      </trkpt>
      <trkpt lat="46.88441" lon="8.53374">
        <ele>1801</ele>
        <time>2021-08-11T09:24:31.405Z</time>
      </trkpt>
      <trkpt lat="46.8844" lon="8.53373">
        <ele>1800</ele>
        <time>2021-08-11T09:24:32.404Z</time>
      </trkpt>
      <trkpt lat="46.8844" lon="8.53372">
        <ele>1799</ele>
        <time>2021-08-11T09:24:33.405Z</time>
      </trkpt>
      <trkpt lat="46.88439" lon="8.53372">
        <ele>1798</ele>
        <time>2021-08-11T09:24:34.405Z</time>
      </trkpt>
      <trkpt lat="46.88439" lon="8.53372">
        <ele>1797</ele>
        <time>2021-08-11T09:24:35.404Z</time>
      </trkpt>
      <trkpt lat="46.8844" lon="8.53372">
        <ele>1796</ele>
        <time>2021-08-11T09:24:36.405Z</time>
      </trkpt>
      <trkpt lat="46.8844" lon="8.53372">
        <ele>1795</ele>
        <time>2021-08-11T09:24:37.405Z</time>
      </trkpt>
      <trkpt lat="46.88441" lon="8.53373">
        <ele>1794</ele>
        <time>2021-08-11T09:24:38.405Z</time>
      </trkpt>
      <trkpt lat="46.88442" lon="8.53374">
        <ele>1794</ele>
        <time>2021-08-11T09:24:39.406Z</time>
      </trkpt>
      <trkpt lat="46.88443" lon="8.53374">
        <ele>1794</ele>
        <time>2021-08-11T09:24:40.406Z</time>
      </trkpt>
      <trkpt lat="46.88443" lon="8.53374">
        <ele>1794</ele>
        <time>2021-08-11T09:24:41.405Z</time>
      </trkpt>
      <trkpt lat="46.88444" lon="8.53374">
        <ele>1793</ele>
        <time>2021-08-11T09:24:42.405Z</time>
      </trkpt>
      <trkpt lat="46.88445" lon="8.53373">
        <ele>1793</ele>
        <time>2021-08-11T09:24:43.406Z</time>
      </trkpt>
      <trkpt lat="46.88445" lon="8.53373">
        <ele>1793</ele>
        <time>2021-08-11T09:24:44.406Z</time>
      </trkpt>
      <trkpt lat="46.88445" lon="8.53373">
        <ele>1792</ele>
        <time>2021-08-11T09:24:45.406Z</time>
      </trkpt>
      <trkpt lat="46.88448" lon="8.53368">
        <ele>1794</ele>
        <time>2021-08-11T09:24:46.407Z</time>
      </trkpt>
      <trkpt lat="46.88448" lon="8.53367">
        <ele>1795</ele>
        <time>2021-08-11T09:24:47.406Z</time>
      </trkpt>
      <trkpt lat="46.88448" lon="8.53367">
        <ele>1795</ele>
        <time>2021-08-11T09:24:48.406Z</time>
      </trkpt>
      <trkpt lat="46.88447" lon="8.53367">
        <ele>1794</ele>
        <time>2021-08-11T09:24:49.407Z</time>
      </trkpt>
      <trkpt lat="46.88447" lon="8.53367">
        <ele>1794</ele>
        <time>2021-08-11T09:24:50.406Z</time>
      </trkpt>
      <trkpt lat="46.88442" lon="8.5337">
        <ele>1790</ele>
        <time>2021-08-11T09:24:51.406Z</time>
      </trkpt>
      <trkpt lat="46.88441" lon="8.5337">
        <ele>1790</ele>
        <time>2021-08-11T09:24:52.407Z</time>
      </trkpt>
      <trkpt lat="46.88442" lon="8.5337">
        <ele>1790</ele>
        <time>2021-08-11T09:24:53.407Z</time>
      </trkpt>
      <trkpt lat="46.88442" lon="8.5337">
        <ele>1789</ele>
        <time>2021-08-11T09:24:54.407Z</time>
      </trkpt>
      <trkpt lat="46.88442" lon="8.5337">
        <ele>1789</ele>
        <time>2021-08-11T09:24:55.406Z</time>
      </trkpt>
      <trkpt lat="46.88442" lon="8.5337">
        <ele>1789</ele>
        <time>2021-08-11T09:24:56.406Z</time>
      </trkpt>
      <trkpt lat="46.88443" lon="8.5337">
        <ele>1790</ele>
        <time>2021-08-11T09:24:57.407Z</time>
      </trkpt>
      <trkpt lat="46.88443" lon="8.5337">
        <ele>1790</ele>
        <time>2021-08-11T09:24:58.406Z</time>
      </trkpt>
      <trkpt lat="46.88442" lon="8.5337">
        <ele>1791</ele>
        <time>2021-08-11T09:24:59.407Z</time>
      </trkpt>
      <trkpt lat="46.88442" lon="8.5337">
        <ele>1791</ele>
        <time>2021-08-11T09:25:00.407Z</time>
      </trkpt>
      <trkpt lat="46.88442" lon="8.53371">
        <ele>1790</ele>
        <time>2021-08-11T09:25:01.407Z</time>
      </trkpt>
      <trkpt lat="46.88442" lon="8.5337">
        <ele>1789</ele>
        <time>2021-08-11T09:25:02.406Z</time>
      </trkpt>
      <trkpt lat="46.88442" lon="8.53369">
        <ele>1789</ele>
        <time>2021-08-11T09:25:03.407Z</time>
      </trkpt>
      <trkpt lat="46.88442" lon="8.53369">
        <ele>1789</ele>
        <time>2021-08-11T09:25:04.406Z</time>
      </trkpt>
      <trkpt lat="46.88442" lon="8.53368">
        <ele>1789</ele>
        <time>2021-08-11T09:25:05.406Z</time>
      </trkpt>
      <trkpt lat="46.88442" lon="8.53367">
        <ele>1789</ele>
        <time>2021-08-11T09:25:06.407Z</time>
      </trkpt>
      <trkpt lat="46.88441" lon="8.53364">
        <ele>1788</ele>
        <time>2021-08-11T09:25:07.407Z</time>
      </trkpt>
      <trkpt lat="46.88441" lon="8.53363">
        <ele>1788</ele>
        <time>2021-08-11T09:25:08.407Z</time>
      </trkpt>
      <trkpt lat="46.88441" lon="8.53363">
        <ele>1788</ele>
        <time>2021-08-11T09:25:09.406Z</time>
      </trkpt>
      <trkpt lat="46.8844" lon="8.53361">
        <ele>1788</ele>
        <time>2021-08-11T09:25:10.407Z</time>
      </trkpt>
      <trkpt lat="46.8844" lon="8.53361">
        <ele>1789</ele>
        <time>2021-08-11T09:25:11.407Z</time>
      </trkpt>
      <trkpt lat="46.88439" lon="8.5336">
        <ele>1789</ele>
        <time>2021-08-11T09:25:12.407Z</time>
      </trkpt>
      <trkpt lat="46.88438" lon="8.53359">
        <ele>1789</ele>
        <time>2021-08-11T09:25:13.407Z</time>
      </trkpt>
      <trkpt lat="46.88438" lon="8.53359">
        <ele>1789</ele>
        <time>2021-08-11T09:25:14.407Z</time>
      </trkpt>
      <trkpt lat="46.88437" lon="8.53358">
        <ele>1789</ele>
        <time>2021-08-11T09:25:15.407Z</time>
      </trkpt>
      <trkpt lat="46.88437" lon="8.53358">
        <ele>1789</ele>
        <time>2021-08-11T09:25:16.407Z</time>
      </trkpt>
      <trkpt lat="46.88437" lon="8.53357">
        <ele>1789</ele>
        <time>2021-08-11T09:25:17.406Z</time>
      </trkpt>
      <trkpt lat="46.88437" lon="8.53356">
        <ele>1789</ele>
        <time>2021-08-11T09:25:18.407Z</time>
      </trkpt>
      <trkpt lat="46.88437" lon="8.53355">
        <ele>1790</ele>
        <time>2021-08-11T09:25:19.407Z</time>
      </trkpt>
      <trkpt lat="46.88437" lon="8.53353">
        <ele>1790</ele>
        <time>2021-08-11T09:25:20.406Z</time>
      </trkpt>
      <trkpt lat="46.88436" lon="8.53352">
        <ele>1790</ele>
        <time>2021-08-11T09:25:21.407Z</time>
      </trkpt>
      <trkpt lat="46.88436" lon="8.53351">
        <ele>1790</ele>
        <time>2021-08-11T09:25:22.407Z</time>
      </trkpt>
      <trkpt lat="46.88435" lon="8.53351">
        <ele>1791</ele>
        <time>2021-08-11T09:25:23.407Z</time>
      </trkpt>
      <trkpt lat="46.88434" lon="8.5335">
        <ele>1791</ele>
        <time>2021-08-11T09:25:24.407Z</time>
      </trkpt>
      <trkpt lat="46.88434" lon="8.5335">
        <ele>1791</ele>
        <time>2021-08-11T09:25:25.407Z</time>
      </trkpt>
      <trkpt lat="46.88434" lon="8.5335">
        <ele>1791</ele>
        <time>2021-08-11T09:25:26.407Z</time>
      </trkpt>
      <trkpt lat="46.88433" lon="8.5335">
        <ele>1791</ele>
        <time>2021-08-11T09:25:27.407Z</time>
      </trkpt>
      <trkpt lat="46.88433" lon="8.53349">
        <ele>1791</ele>
        <time>2021-08-11T09:25:28.407Z</time>
      </trkpt>
      <trkpt lat="46.88432" lon="8.53349">
        <ele>1791</ele>
        <time>2021-08-11T09:25:29.406Z</time>
      </trkpt>
      <trkpt lat="46.88432" lon="8.53349">
        <ele>1791</ele>
        <time>2021-08-11T09:25:30.407Z</time>
      </trkpt>
      <trkpt lat="46.88432" lon="8.53348">
        <ele>1791</ele>
        <time>2021-08-11T09:25:31.407Z</time>
      </trkpt>
      <trkpt lat="46.88431" lon="8.53348">
        <ele>1791</ele>
        <time>2021-08-11T09:25:32.406Z</time>
      </trkpt>
      <trkpt lat="46.8843" lon="8.53348">
        <ele>1791</ele>
        <time>2021-08-11T09:25:33.406Z</time>
      </trkpt>
      <trkpt lat="46.8843" lon="8.53348">
        <ele>1791</ele>
        <time>2021-08-11T09:25:34.407Z</time>
      </trkpt>
      <trkpt lat="46.88429" lon="8.53348">
        <ele>1791</ele>
        <time>2021-08-11T09:25:35.406Z</time>
      </trkpt>
      <trkpt lat="46.88429" lon="8.53347">
        <ele>1790</ele>
        <time>2021-08-11T09:25:36.407Z</time>
      </trkpt>
      <trkpt lat="46.88428" lon="8.53347">
        <ele>1790</ele>
        <time>2021-08-11T09:25:37.407Z</time>
      </trkpt>
      <trkpt lat="46.88428" lon="8.53346">
        <ele>1789</ele>
        <time>2021-08-11T09:25:38.406Z</time>
      </trkpt>
      <trkpt lat="46.88428" lon="8.53346">
        <ele>1789</ele>
        <time>2021-08-11T09:25:39.407Z</time>
      </trkpt>
      <trkpt lat="46.88427" lon="8.53345">
        <ele>1788</ele>
        <time>2021-08-11T09:25:40.406Z</time>
      </trkpt>
      <trkpt lat="46.88427" lon="8.53344">
        <ele>1788</ele>
        <time>2021-08-11T09:25:41.406Z</time>
      </trkpt>
      <trkpt lat="46.88428" lon="8.53343">
        <ele>1788</ele>
        <time>2021-08-11T09:25:42.407Z</time>
      </trkpt>
      <trkpt lat="46.88428" lon="8.53341">
        <ele>1787</ele>
        <time>2021-08-11T09:25:43.407Z</time>
      </trkpt>
      <trkpt lat="46.88429" lon="8.5334">
        <ele>1787</ele>
        <time>2021-08-11T09:25:44.406Z</time>
      </trkpt>
      <trkpt lat="46.88429" lon="8.5334">
        <ele>1786</ele>
        <time>2021-08-11T09:25:45.406Z</time>
      </trkpt>
      <trkpt lat="46.88429" lon="8.53339">
        <ele>1786</ele>
        <time>2021-08-11T09:25:46.407Z</time>
      </trkpt>
      <trkpt lat="46.88429" lon="8.53338">
        <ele>1785</ele>
        <time>2021-08-11T09:25:47.407Z</time>
      </trkpt>
      <trkpt lat="46.88429" lon="8.53337">
        <ele>1784</ele>
        <time>2021-08-11T09:25:48.407Z</time>
      </trkpt>
      <trkpt lat="46.88429" lon="8.53336">
        <ele>1784</ele>
        <time>2021-08-11T09:25:49.406Z</time>
      </trkpt>
      <trkpt lat="46.88428" lon="8.53336">
        <ele>1784</ele>
        <time>2021-08-11T09:25:50.407Z</time>
      </trkpt>
      <trkpt lat="46.88428" lon="8.53335">
        <ele>1784</ele>
        <time>2021-08-11T09:25:51.407Z</time>
      </trkpt>
      <trkpt lat="46.88428" lon="8.53335">
        <ele>1784</ele>
        <time>2021-08-11T09:25:52.406Z</time>
      </trkpt>
      <trkpt lat="46.88427" lon="8.53334">
        <ele>1784</ele>
        <time>2021-08-11T09:25:53.407Z</time>
      </trkpt>
      <trkpt lat="46.88427" lon="8.53333">
        <ele>1784</ele>
        <time>2021-08-11T09:25:54.406Z</time>
      </trkpt>
      <trkpt lat="46.88427" lon="8.53332">
        <ele>1784</ele>
        <time>2021-08-11T09:25:55.407Z</time>
      </trkpt>
      <trkpt lat="46.88427" lon="8.53331">
        <ele>1784</ele>
        <time>2021-08-11T09:25:56.407Z</time>
      </trkpt>
      <trkpt lat="46.88428" lon="8.5333">
        <ele>1784</ele>
        <time>2021-08-11T09:25:57.407Z</time>
      </trkpt>
      <trkpt lat="46.88428" lon="8.53329">
        <ele>1784</ele>
        <time>2021-08-11T09:25:58.407Z</time>
      </trkpt>
      <trkpt lat="46.88427" lon="8.53328">
        <ele>1784</ele>
        <time>2021-08-11T09:25:59.406Z</time>
      </trkpt>
      <trkpt lat="46.88427" lon="8.53327">
        <ele>1784</ele>
        <time>2021-08-11T09:26:00.407Z</time>
      </trkpt>
      <trkpt lat="46.88427" lon="8.53326">
        <ele>1784</ele>
        <time>2021-08-11T09:26:01.406Z</time>
      </trkpt>
      <trkpt lat="46.88427" lon="8.53325">
        <ele>1784</ele>
        <time>2021-08-11T09:26:02.407Z</time>
      </trkpt>
      <trkpt lat="46.88427" lon="8.53325">
        <ele>1784</ele>
        <time>2021-08-11T09:26:03.407Z</time>
      </trkpt>
      <trkpt lat="46.88427" lon="8.53325">
        <ele>1784</ele>
        <time>2021-08-11T09:26:04.407Z</time>
      </trkpt>
      <trkpt lat="46.88427" lon="8.53324">
        <ele>1783</ele>
        <time>2021-08-11T09:26:05.407Z</time>
      </trkpt>
      <trkpt lat="46.88426" lon="8.53324">
        <ele>1783</ele>
        <time>2021-08-11T09:26:06.407Z</time>
      </trkpt>
      <trkpt lat="46.88426" lon="8.53323">
        <ele>1783</ele>
        <time>2021-08-11T09:26:07.407Z</time>
      </trkpt>
      <trkpt lat="46.88426" lon="8.53323">
        <ele>1783</ele>
        <time>2021-08-11T09:26:08.407Z</time>
      </trkpt>
      <trkpt lat="46.88426" lon="8.53322">
        <ele>1783</ele>
        <time>2021-08-11T09:26:09.407Z</time>
      </trkpt>
      <trkpt lat="46.88426" lon="8.53322">
        <ele>1782</ele>
        <time>2021-08-11T09:26:10.406Z</time>
      </trkpt>
      <trkpt lat="46.88426" lon="8.53321">
        <ele>1782</ele>
        <time>2021-08-11T09:26:11.406Z</time>
      </trkpt>
      <trkpt lat="46.88426" lon="8.5332">
        <ele>1781</ele>
        <time>2021-08-11T09:26:12.407Z</time>
      </trkpt>
      <trkpt lat="46.88425" lon="8.53319">
        <ele>1781</ele>
        <time>2021-08-11T09:26:13.407Z</time>
      </trkpt>
      <trkpt lat="46.88425" lon="8.53318">
        <ele>1781</ele>
        <time>2021-08-11T09:26:14.406Z</time>
      </trkpt>
      <trkpt lat="46.88425" lon="8.53318">
        <ele>1781</ele>
        <time>2021-08-11T09:26:15.407Z</time>
      </trkpt>
      <trkpt lat="46.88425" lon="8.53317">
        <ele>1780</ele>
        <time>2021-08-11T09:26:16.407Z</time>
      </trkpt>
      <trkpt lat="46.88424" lon="8.53316">
        <ele>1780</ele>
        <time>2021-08-11T09:26:17.407Z</time>
      </trkpt>
      <trkpt lat="46.88424" lon="8.53315">
        <ele>1780</ele>
        <time>2021-08-11T09:26:18.406Z</time>
      </trkpt>
      <trkpt lat="46.88424" lon="8.53315">
        <ele>1780</ele>
        <time>2021-08-11T09:26:19.406Z</time>
      </trkpt>
      <trkpt lat="46.88424" lon="8.53312">
        <ele>1780</ele>
        <time>2021-08-11T09:26:20.407Z</time>
      </trkpt>
      <trkpt lat="46.88424" lon="8.53312">
        <ele>1780</ele>
        <time>2021-08-11T09:26:21.407Z</time>
      </trkpt>
      <trkpt lat="46.88424" lon="8.53311">
        <ele>1780</ele>
        <time>2021-08-11T09:26:22.407Z</time>
      </trkpt>
      <trkpt lat="46.88424" lon="8.53311">
        <ele>1779</ele>
        <time>2021-08-11T09:26:23.407Z</time>
      </trkpt>
      <trkpt lat="46.88424" lon="8.53311">
        <ele>1779</ele>
        <time>2021-08-11T09:26:24.406Z</time>
      </trkpt>
      <trkpt lat="46.88424" lon="8.5331">
        <ele>1779</ele>
        <time>2021-08-11T09:26:25.406Z</time>
      </trkpt>
      <trkpt lat="46.88424" lon="8.53309">
        <ele>1779</ele>
        <time>2021-08-11T09:26:26.406Z</time>
      </trkpt>
      <trkpt lat="46.88423" lon="8.53308">
        <ele>1779</ele>
        <time>2021-08-11T09:26:27.406Z</time>
      </trkpt>
      <trkpt lat="46.88423" lon="8.53308">
        <ele>1779</ele>
        <time>2021-08-11T09:26:28.407Z</time>
      </trkpt>
      <trkpt lat="46.88422" lon="8.53308">
        <ele>1779</ele>
        <time>2021-08-11T09:26:29.407Z</time>
      </trkpt>
      <trkpt lat="46.88421" lon="8.53307">
        <ele>1780</ele>
        <time>2021-08-11T09:26:30.406Z</time>
      </trkpt>
      <trkpt lat="46.8842" lon="8.53307">
        <ele>1780</ele>
        <time>2021-08-11T09:26:31.407Z</time>
      </trkpt>
      <trkpt lat="46.8842" lon="8.53306">
        <ele>1780</ele>
        <time>2021-08-11T09:26:32.406Z</time>
      </trkpt>
      <trkpt lat="46.8842" lon="8.53306">
        <ele>1780</ele>
        <time>2021-08-11T09:26:33.407Z</time>
      </trkpt>
      <trkpt lat="46.8842" lon="8.53305">
        <ele>1780</ele>
        <time>2021-08-11T09:26:34.407Z</time>
      </trkpt>
      <trkpt lat="46.8842" lon="8.53305">
        <ele>1780</ele>
        <time>2021-08-11T09:26:35.407Z</time>
      </trkpt>
      <trkpt lat="46.8842" lon="8.53304">
        <ele>1780</ele>
        <time>2021-08-11T09:26:36.407Z</time>
      </trkpt>
      <trkpt lat="46.8842" lon="8.53304">
        <ele>1780</ele>
        <time>2021-08-11T09:26:37.407Z</time>
      </trkpt>
      <trkpt lat="46.88421" lon="8.53304">
        <ele>1779</ele>
        <time>2021-08-11T09:26:38.407Z</time>
      </trkpt>
      <trkpt lat="46.88419" lon="8.53302">
        <ele>1778</ele>
        <time>2021-08-11T09:26:39.408Z</time>
      </trkpt>
      <trkpt lat="46.88419" lon="8.53301">
        <ele>1778</ele>
        <time>2021-08-11T09:26:40.408Z</time>
      </trkpt>
      <trkpt lat="46.88419" lon="8.533">
        <ele>1778</ele>
        <time>2021-08-11T09:26:41.408Z</time>
      </trkpt>
      <trkpt lat="46.88418" lon="8.53299">
        <ele>1778</ele>
        <time>2021-08-11T09:26:42.408Z</time>
      </trkpt>
      <trkpt lat="46.88418" lon="8.53299">
        <ele>1778</ele>
        <time>2021-08-11T09:26:43.408Z</time>
      </trkpt>
      <trkpt lat="46.88418" lon="8.53298">
        <ele>1778</ele>
        <time>2021-08-11T09:26:44.409Z</time>
      </trkpt>
      <trkpt lat="46.88417" lon="8.53298">
        <ele>1777</ele>
        <time>2021-08-11T09:26:45.408Z</time>
      </trkpt>
      <trkpt lat="46.88417" lon="8.53297">
        <ele>1777</ele>
        <time>2021-08-11T09:26:46.408Z</time>
      </trkpt>
      <trkpt lat="46.88416" lon="8.53297">
        <ele>1777</ele>
        <time>2021-08-11T09:26:47.409Z</time>
      </trkpt>
      <trkpt lat="46.88416" lon="8.53296">
        <ele>1776</ele>
        <time>2021-08-11T09:26:48.408Z</time>
      </trkpt>
      <trkpt lat="46.88416" lon="8.53296">
        <ele>1776</ele>
        <time>2021-08-11T09:26:49.408Z</time>
      </trkpt>
      <trkpt lat="46.88416" lon="8.53295">
        <ele>1776</ele>
        <time>2021-08-11T09:26:50.408Z</time>
      </trkpt>
      <trkpt lat="46.88416" lon="8.53294">
        <ele>1775</ele>
        <time>2021-08-11T09:26:51.408Z</time>
      </trkpt>
      <trkpt lat="46.88416" lon="8.53294">
        <ele>1775</ele>
        <time>2021-08-11T09:26:52.408Z</time>
      </trkpt>
      <trkpt lat="46.88416" lon="8.53293">
        <ele>1774</ele>
        <time>2021-08-11T09:26:53.408Z</time>
      </trkpt>
      <trkpt lat="46.88416" lon="8.53292">
        <ele>1774</ele>
        <time>2021-08-11T09:26:54.409Z</time>
      </trkpt>
      <trkpt lat="46.88416" lon="8.53291">
        <ele>1773</ele>
        <time>2021-08-11T09:26:55.409Z</time>
      </trkpt>
      <trkpt lat="46.88417" lon="8.5329">
        <ele>1773</ele>
        <time>2021-08-11T09:26:56.408Z</time>
      </trkpt>
      <trkpt lat="46.88417" lon="8.5329">
        <ele>1773</ele>
        <time>2021-08-11T09:26:57.409Z</time>
      </trkpt>
      <trkpt lat="46.88416" lon="8.53289">
        <ele>1773</ele>
        <time>2021-08-11T09:26:58.408Z</time>
      </trkpt>
      <trkpt lat="46.88416" lon="8.53288">
        <ele>1773</ele>
        <time>2021-08-11T09:26:59.409Z</time>
      </trkpt>
      <trkpt lat="46.88415" lon="8.53287">
        <ele>1773</ele>
        <time>2021-08-11T09:27:00.408Z</time>
      </trkpt>
      <trkpt lat="46.88415" lon="8.53286">
        <ele>1773</ele>
        <time>2021-08-11T09:27:01.408Z</time>
      </trkpt>
      <trkpt lat="46.88415" lon="8.53285">
        <ele>1773</ele>
        <time>2021-08-11T09:27:02.408Z</time>
      </trkpt>
      <trkpt lat="46.88414" lon="8.53284">
        <ele>1773</ele>
        <time>2021-08-11T09:27:03.408Z</time>
      </trkpt>
      <trkpt lat="46.88414" lon="8.53284">
        <ele>1772</ele>
        <time>2021-08-11T09:27:04.408Z</time>
      </trkpt>
      <trkpt lat="46.88414" lon="8.53283">
        <ele>1772</ele>
        <time>2021-08-11T09:27:05.408Z</time>
      </trkpt>
      <trkpt lat="46.88414" lon="8.53283">
        <ele>1771</ele>
        <time>2021-08-11T09:27:06.408Z</time>
      </trkpt>
      <trkpt lat="46.88414" lon="8.53282">
        <ele>1771</ele>
        <time>2021-08-11T09:27:07.408Z</time>
      </trkpt>
      <trkpt lat="46.88414" lon="8.53282">
        <ele>1771</ele>
        <time>2021-08-11T09:27:08.408Z</time>
      </trkpt>
      <trkpt lat="46.88413" lon="8.53281">
        <ele>1771</ele>
        <time>2021-08-11T09:27:09.410Z</time>
      </trkpt>
      <trkpt lat="46.88413" lon="8.5328">
        <ele>1771</ele>
        <time>2021-08-11T09:27:10.409Z</time>
      </trkpt>
      <trkpt lat="46.88413" lon="8.53279">
        <ele>1771</ele>
        <time>2021-08-11T09:27:11.409Z</time>
      </trkpt>
      <trkpt lat="46.88413" lon="8.53279">
        <ele>1770</ele>
        <time>2021-08-11T09:27:12.409Z</time>
      </trkpt>
      <trkpt lat="46.88412" lon="8.53279">
        <ele>1769</ele>
        <time>2021-08-11T09:27:13.410Z</time>
      </trkpt>
      <trkpt lat="46.88411" lon="8.53279">
        <ele>1769</ele>
        <time>2021-08-11T09:27:14.410Z</time>
      </trkpt>
      <trkpt lat="46.88411" lon="8.53279">
        <ele>1769</ele>
        <time>2021-08-11T09:27:15.410Z</time>
      </trkpt>
      <trkpt lat="46.88412" lon="8.53278">
        <ele>1768</ele>
        <time>2021-08-11T09:27:16.410Z</time>
      </trkpt>
      <trkpt lat="46.88413" lon="8.53278">
        <ele>1768</ele>
        <time>2021-08-11T09:27:17.409Z</time>
      </trkpt>
      <trkpt lat="46.88413" lon="8.53277">
        <ele>1768</ele>
        <time>2021-08-11T09:27:18.410Z</time>
      </trkpt>
      <trkpt lat="46.88412" lon="8.53277">
        <ele>1767</ele>
        <time>2021-08-11T09:27:19.412Z</time>
      </trkpt>
      <trkpt lat="46.88412" lon="8.53277">
        <ele>1767</ele>
        <time>2021-08-11T09:27:20.412Z</time>
      </trkpt>
      <trkpt lat="46.88412" lon="8.53277">
        <ele>1766</ele>
        <time>2021-08-11T09:27:21.411Z</time>
      </trkpt>
      <trkpt lat="46.88411" lon="8.53276">
        <ele>1766</ele>
        <time>2021-08-11T09:27:22.411Z</time>
      </trkpt>
      <trkpt lat="46.88411" lon="8.53276">
        <ele>1766</ele>
        <time>2021-08-11T09:27:23.411Z</time>
      </trkpt>
      <trkpt lat="46.88411" lon="8.53274">
        <ele>1765</ele>
        <time>2021-08-11T09:27:24.412Z</time>
      </trkpt>
      <trkpt lat="46.88411" lon="8.53273">
        <ele>1765</ele>
        <time>2021-08-11T09:27:25.413Z</time>
      </trkpt>
      <trkpt lat="46.88411" lon="8.53272">
        <ele>1766</ele>
        <time>2021-08-11T09:27:26.413Z</time>
      </trkpt>
      <trkpt lat="46.88411" lon="8.53271">
        <ele>1766</ele>
        <time>2021-08-11T09:27:27.413Z</time>
      </trkpt>
      <trkpt lat="46.88411" lon="8.5327">
        <ele>1766</ele>
        <time>2021-08-11T09:27:28.412Z</time>
      </trkpt>
      <trkpt lat="46.88411" lon="8.5327">
        <ele>1766</ele>
        <time>2021-08-11T09:27:29.413Z</time>
      </trkpt>
      <trkpt lat="46.88412" lon="8.5327">
        <ele>1766</ele>
        <time>2021-08-11T09:27:30.413Z</time>
      </trkpt>
      <trkpt lat="46.88412" lon="8.53269">
        <ele>1766</ele>
        <time>2021-08-11T09:27:31.414Z</time>
      </trkpt>
      <trkpt lat="46.88412" lon="8.53268">
        <ele>1765</ele>
        <time>2021-08-11T09:27:32.414Z</time>
      </trkpt>
      <trkpt lat="46.88412" lon="8.53267">
        <ele>1765</ele>
        <time>2021-08-11T09:27:33.413Z</time>
      </trkpt>
      <trkpt lat="46.88412" lon="8.53266">
        <ele>1765</ele>
        <time>2021-08-11T09:27:34.413Z</time>
      </trkpt>
      <trkpt lat="46.88412" lon="8.53266">
        <ele>1765</ele>
        <time>2021-08-11T09:27:35.414Z</time>
      </trkpt>
      <trkpt lat="46.88412" lon="8.53265">
        <ele>1764</ele>
        <time>2021-08-11T09:27:36.413Z</time>
      </trkpt>
      <trkpt lat="46.88412" lon="8.53265">
        <ele>1764</ele>
        <time>2021-08-11T09:27:37.413Z</time>
      </trkpt>
      <trkpt lat="46.88412" lon="8.53265">
        <ele>1764</ele>
        <time>2021-08-11T09:27:38.414Z</time>
      </trkpt>
      <trkpt lat="46.88413" lon="8.53264">
        <ele>1764</ele>
        <time>2021-08-11T09:27:39.414Z</time>
      </trkpt>
      <trkpt lat="46.88413" lon="8.53263">
        <ele>1764</ele>
        <time>2021-08-11T09:27:40.413Z</time>
      </trkpt>
      <trkpt lat="46.88413" lon="8.53263">
        <ele>1764</ele>
        <time>2021-08-11T09:27:41.414Z</time>
      </trkpt>
      <trkpt lat="46.88412" lon="8.53261">
        <ele>1763</ele>
        <time>2021-08-11T09:27:42.414Z</time>
      </trkpt>
      <trkpt lat="46.88412" lon="8.53261">
        <ele>1762</ele>
        <time>2021-08-11T09:27:43.414Z</time>
      </trkpt>
      <trkpt lat="46.88412" lon="8.5326">
        <ele>1762</ele>
        <time>2021-08-11T09:27:44.414Z</time>
      </trkpt>
      <trkpt lat="46.88412" lon="8.5326">
        <ele>1762</ele>
        <time>2021-08-11T09:27:45.415Z</time>
      </trkpt>
      <trkpt lat="46.88411" lon="8.53258">
        <ele>1762</ele>
        <time>2021-08-11T09:27:46.416Z</time>
      </trkpt>
      <trkpt lat="46.88411" lon="8.53258">
        <ele>1762</ele>
        <time>2021-08-11T09:27:47.415Z</time>
      </trkpt>
      <trkpt lat="46.88411" lon="8.53257">
        <ele>1762</ele>
        <time>2021-08-11T09:27:48.415Z</time>
      </trkpt>
      <trkpt lat="46.8841" lon="8.53257">
        <ele>1762</ele>
        <time>2021-08-11T09:27:49.416Z</time>
      </trkpt>
      <trkpt lat="46.8841" lon="8.53256">
        <ele>1761</ele>
        <time>2021-08-11T09:27:50.416Z</time>
      </trkpt>
      <trkpt lat="46.8841" lon="8.53256">
        <ele>1761</ele>
        <time>2021-08-11T09:27:51.416Z</time>
      </trkpt>
      <trkpt lat="46.8841" lon="8.53255">
        <ele>1760</ele>
        <time>2021-08-11T09:27:52.416Z</time>
      </trkpt>
      <trkpt lat="46.8841" lon="8.53254">
        <ele>1760</ele>
        <time>2021-08-11T09:27:53.416Z</time>
      </trkpt>
      <trkpt lat="46.8841" lon="8.53254">
        <ele>1759</ele>
        <time>2021-08-11T09:27:54.416Z</time>
      </trkpt>
      <trkpt lat="46.88409" lon="8.53253">
        <ele>1759</ele>
        <time>2021-08-11T09:27:55.416Z</time>
      </trkpt>
      <trkpt lat="46.8841" lon="8.53252">
        <ele>1759</ele>
        <time>2021-08-11T09:27:56.416Z</time>
      </trkpt>
      <trkpt lat="46.88409" lon="8.53251">
        <ele>1759</ele>
        <time>2021-08-11T09:27:57.416Z</time>
      </trkpt>
      <trkpt lat="46.88409" lon="8.53251">
        <ele>1759</ele>
        <time>2021-08-11T09:27:58.416Z</time>
      </trkpt>
      <trkpt lat="46.88409" lon="8.5325">
        <ele>1759</ele>
        <time>2021-08-11T09:27:59.415Z</time>
      </trkpt>
      <trkpt lat="46.88409" lon="8.53249">
        <ele>1758</ele>
        <time>2021-08-11T09:28:00.416Z</time>
      </trkpt>
      <trkpt lat="46.88409" lon="8.53248">
        <ele>1758</ele>
        <time>2021-08-11T09:28:01.415Z</time>
      </trkpt>
      <trkpt lat="46.88409" lon="8.53246">
        <ele>1758</ele>
        <time>2021-08-11T09:28:02.416Z</time>
      </trkpt>
      <trkpt lat="46.88408" lon="8.53244">
        <ele>1757</ele>
        <time>2021-08-11T09:28:03.415Z</time>
      </trkpt>
      <trkpt lat="46.88408" lon="8.53243">
        <ele>1757</ele>
        <time>2021-08-11T09:28:04.416Z</time>
      </trkpt>
      <trkpt lat="46.88408" lon="8.53242">
        <ele>1758</ele>
        <time>2021-08-11T09:28:05.416Z</time>
      </trkpt>
      <trkpt lat="46.88408" lon="8.53241">
        <ele>1758</ele>
        <time>2021-08-11T09:28:06.415Z</time>
      </trkpt>
      <trkpt lat="46.88408" lon="8.5324">
        <ele>1758</ele>
        <time>2021-08-11T09:28:07.415Z</time>
      </trkpt>
      <trkpt lat="46.88407" lon="8.53239">
        <ele>1759</ele>
        <time>2021-08-11T09:28:08.416Z</time>
      </trkpt>
      <trkpt lat="46.88407" lon="8.53239">
        <ele>1759</ele>
        <time>2021-08-11T09:28:09.416Z</time>
      </trkpt>
      <trkpt lat="46.88406" lon="8.53239">
        <ele>1759</ele>
        <time>2021-08-11T09:28:10.415Z</time>
      </trkpt>
      <trkpt lat="46.88405" lon="8.53238">
        <ele>1760</ele>
        <time>2021-08-11T09:28:11.416Z</time>
      </trkpt>
      <trkpt lat="46.88404" lon="8.53238">
        <ele>1760</ele>
        <time>2021-08-11T09:28:12.415Z</time>
      </trkpt>
      <trkpt lat="46.88403" lon="8.53238">
        <ele>1761</ele>
        <time>2021-08-11T09:28:13.416Z</time>
      </trkpt>
      <trkpt lat="46.88403" lon="8.53237">
        <ele>1761</ele>
        <time>2021-08-11T09:28:14.416Z</time>
      </trkpt>
      <trkpt lat="46.88403" lon="8.53237">
        <ele>1762</ele>
        <time>2021-08-11T09:28:15.416Z</time>
      </trkpt>
      <trkpt lat="46.88402" lon="8.53236">
        <ele>1762</ele>
        <time>2021-08-11T09:28:16.416Z</time>
      </trkpt>
      <trkpt lat="46.88402" lon="8.53236">
        <ele>1763</ele>
        <time>2021-08-11T09:28:17.416Z</time>
      </trkpt>
      <trkpt lat="46.88401" lon="8.53235">
        <ele>1763</ele>
        <time>2021-08-11T09:28:18.416Z</time>
      </trkpt>
      <trkpt lat="46.884" lon="8.53235">
        <ele>1763</ele>
        <time>2021-08-11T09:28:19.415Z</time>
      </trkpt>
      <trkpt lat="46.88399" lon="8.53234">
        <ele>1763</ele>
        <time>2021-08-11T09:28:20.416Z</time>
      </trkpt>
      <trkpt lat="46.88399" lon="8.53234">
        <ele>1763</ele>
        <time>2021-08-11T09:28:21.416Z</time>
      </trkpt>
      <trkpt lat="46.88398" lon="8.53234">
        <ele>1763</ele>
        <time>2021-08-11T09:28:22.416Z</time>
      </trkpt>
      <trkpt lat="46.88397" lon="8.53233">
        <ele>1763</ele>
        <time>2021-08-11T09:28:23.416Z</time>
      </trkpt>
      <trkpt lat="46.88396" lon="8.53234">
        <ele>1762</ele>
        <time>2021-08-11T09:28:24.416Z</time>
      </trkpt>
      <trkpt lat="46.88395" lon="8.53234">
        <ele>1762</ele>
        <time>2021-08-11T09:28:25.416Z</time>
      </trkpt>
      <trkpt lat="46.88395" lon="8.53234">
        <ele>1762</ele>
        <time>2021-08-11T09:28:26.416Z</time>
      </trkpt>
      <trkpt lat="46.88395" lon="8.53234">
        <ele>1762</ele>
        <time>2021-08-11T09:28:27.416Z</time>
      </trkpt>
      <trkpt lat="46.88394" lon="8.53233">
        <ele>1762</ele>
        <time>2021-08-11T09:28:28.415Z</time>
      </trkpt>
      <trkpt lat="46.88394" lon="8.53232">
        <ele>1762</ele>
        <time>2021-08-11T09:28:29.415Z</time>
      </trkpt>
      <trkpt lat="46.88393" lon="8.53232">
        <ele>1762</ele>
        <time>2021-08-11T09:28:30.416Z</time>
      </trkpt>
      <trkpt lat="46.88393" lon="8.53231">
        <ele>1762</ele>
        <time>2021-08-11T09:28:31.416Z</time>
      </trkpt>
      <trkpt lat="46.88392" lon="8.53231">
        <ele>1762</ele>
        <time>2021-08-11T09:28:32.416Z</time>
      </trkpt>
      <trkpt lat="46.88392" lon="8.53231">
        <ele>1762</ele>
        <time>2021-08-11T09:28:33.416Z</time>
      </trkpt>
      <trkpt lat="46.88391" lon="8.5323">
        <ele>1762</ele>
        <time>2021-08-11T09:28:34.415Z</time>
      </trkpt>
      <trkpt lat="46.8839" lon="8.53229">
        <ele>1762</ele>
        <time>2021-08-11T09:28:35.416Z</time>
      </trkpt>
      <trkpt lat="46.88389" lon="8.53229">
        <ele>1762</ele>
        <time>2021-08-11T09:28:36.416Z</time>
      </trkpt>
      <trkpt lat="46.88388" lon="8.53229">
        <ele>1762</ele>
        <time>2021-08-11T09:28:37.416Z</time>
      </trkpt>
      <trkpt lat="46.88386" lon="8.53229">
        <ele>1762</ele>
        <time>2021-08-11T09:28:38.416Z</time>
      </trkpt>
      <trkpt lat="46.88385" lon="8.53228">
        <ele>1762</ele>
        <time>2021-08-11T09:28:39.415Z</time>
      </trkpt>
      <trkpt lat="46.88384" lon="8.53228">
        <ele>1762</ele>
        <time>2021-08-11T09:28:40.415Z</time>
      </trkpt>
      <trkpt lat="46.88383" lon="8.53228">
        <ele>1762</ele>
        <time>2021-08-11T09:28:41.416Z</time>
      </trkpt>
      <trkpt lat="46.88382" lon="8.53227">
        <ele>1762</ele>
        <time>2021-08-11T09:28:42.415Z</time>
      </trkpt>
      <trkpt lat="46.88382" lon="8.53227">
        <ele>1762</ele>
        <time>2021-08-11T09:28:43.415Z</time>
      </trkpt>
      <trkpt lat="46.88382" lon="8.53227">
        <ele>1762</ele>
        <time>2021-08-11T09:28:44.416Z</time>
      </trkpt>
      <trkpt lat="46.88381" lon="8.53227">
        <ele>1762</ele>
        <time>2021-08-11T09:28:45.416Z</time>
      </trkpt>
      <trkpt lat="46.8838" lon="8.53227">
        <ele>1762</ele>
        <time>2021-08-11T09:28:46.416Z</time>
      </trkpt>
      <trkpt lat="46.88379" lon="8.53227">
        <ele>1762</ele>
        <time>2021-08-11T09:28:47.416Z</time>
      </trkpt>
      <trkpt lat="46.88378" lon="8.53228">
        <ele>1762</ele>
        <time>2021-08-11T09:28:48.415Z</time>
      </trkpt>
      <trkpt lat="46.88378" lon="8.53228">
        <ele>1762</ele>
        <time>2021-08-11T09:28:49.416Z</time>
      </trkpt>
      <trkpt lat="46.88379" lon="8.53229">
        <ele>1762</ele>
        <time>2021-08-11T09:28:50.416Z</time>
      </trkpt>
      <trkpt lat="46.88378" lon="8.53229">
        <ele>1762</ele>
        <time>2021-08-11T09:28:51.416Z</time>
      </trkpt>
      <trkpt lat="46.88378" lon="8.53229">
        <ele>1763</ele>
        <time>2021-08-11T09:28:52.416Z</time>
      </trkpt>
      <trkpt lat="46.88377" lon="8.53228">
        <ele>1763</ele>
        <time>2021-08-11T09:28:53.415Z</time>
      </trkpt>
      <trkpt lat="46.88377" lon="8.53228">
        <ele>1763</ele>
        <time>2021-08-11T09:28:54.416Z</time>
      </trkpt>
      <trkpt lat="46.88377" lon="8.53228">
        <ele>1763</ele>
        <time>2021-08-11T09:28:55.416Z</time>
      </trkpt>
      <trkpt lat="46.88376" lon="8.53229">
        <ele>1763</ele>
        <time>2021-08-11T09:28:56.415Z</time>
      </trkpt>
      <trkpt lat="46.88376" lon="8.53229">
        <ele>1763</ele>
        <time>2021-08-11T09:28:57.416Z</time>
      </trkpt>
      <trkpt lat="46.88375" lon="8.53228">
        <ele>1763</ele>
        <time>2021-08-11T09:28:58.416Z</time>
      </trkpt>
      <trkpt lat="46.88374" lon="8.53228">
        <ele>1762</ele>
        <time>2021-08-11T09:28:59.415Z</time>
      </trkpt>
      <trkpt lat="46.88374" lon="8.53228">
        <ele>1762</ele>
        <time>2021-08-11T09:29:00.416Z</time>
      </trkpt>
      <trkpt lat="46.88373" lon="8.53229">
        <ele>1762</ele>
        <time>2021-08-11T09:29:01.415Z</time>
      </trkpt>
      <trkpt lat="46.88372" lon="8.53229">
        <ele>1761</ele>
        <time>2021-08-11T09:29:02.416Z</time>
      </trkpt>
      <trkpt lat="46.88372" lon="8.53229">
        <ele>1760</ele>
        <time>2021-08-11T09:29:03.416Z</time>
      </trkpt>
      <trkpt lat="46.88371" lon="8.53229">
        <ele>1760</ele>
        <time>2021-08-11T09:29:04.416Z</time>
      </trkpt>
      <trkpt lat="46.8837" lon="8.53228">
        <ele>1759</ele>
        <time>2021-08-11T09:29:05.416Z</time>
      </trkpt>
      <trkpt lat="46.88368" lon="8.53228">
        <ele>1758</ele>
        <time>2021-08-11T09:29:06.415Z</time>
      </trkpt>
      <trkpt lat="46.88368" lon="8.53228">
        <ele>1758</ele>
        <time>2021-08-11T09:29:07.416Z</time>
      </trkpt>
      <trkpt lat="46.88367" lon="8.53228">
        <ele>1757</ele>
        <time>2021-08-11T09:29:08.416Z</time>
      </trkpt>
      <trkpt lat="46.88366" lon="8.53227">
        <ele>1756</ele>
        <time>2021-08-11T09:29:09.415Z</time>
      </trkpt>
      <trkpt lat="46.88365" lon="8.53227">
        <ele>1755</ele>
        <time>2021-08-11T09:29:10.416Z</time>
      </trkpt>
      <trkpt lat="46.88365" lon="8.53227">
        <ele>1755</ele>
        <time>2021-08-11T09:29:11.416Z</time>
      </trkpt>
      <trkpt lat="46.88365" lon="8.53227">
        <ele>1754</ele>
        <time>2021-08-11T09:29:12.416Z</time>
      </trkpt>
      <trkpt lat="46.88364" lon="8.53227">
        <ele>1753</ele>
        <time>2021-08-11T09:29:13.415Z</time>
      </trkpt>
      <trkpt lat="46.88364" lon="8.53227">
        <ele>1752</ele>
        <time>2021-08-11T09:29:14.416Z</time>
      </trkpt>
      <trkpt lat="46.88363" lon="8.53225">
        <ele>1752</ele>
        <time>2021-08-11T09:29:15.416Z</time>
      </trkpt>
      <trkpt lat="46.88362" lon="8.53225">
        <ele>1751</ele>
        <time>2021-08-11T09:29:16.416Z</time>
      </trkpt>
      <trkpt lat="46.88361" lon="8.53224">
        <ele>1751</ele>
        <time>2021-08-11T09:29:17.416Z</time>
      </trkpt>
      <trkpt lat="46.88361" lon="8.53223">
        <ele>1750</ele>
        <time>2021-08-11T09:29:18.415Z</time>
      </trkpt>
      <trkpt lat="46.88361" lon="8.53222">
        <ele>1750</ele>
        <time>2021-08-11T09:29:19.416Z</time>
      </trkpt>
      <trkpt lat="46.88361" lon="8.53222">
        <ele>1750</ele>
        <time>2021-08-11T09:29:20.415Z</time>
      </trkpt>
      <trkpt lat="46.88361" lon="8.53221">
        <ele>1750</ele>
        <time>2021-08-11T09:29:21.415Z</time>
      </trkpt>
      <trkpt lat="46.88361" lon="8.53219">
        <ele>1747</ele>
        <time>2021-08-11T09:29:22.416Z</time>
      </trkpt>
      <trkpt lat="46.88353" lon="8.53219">
        <ele>1741</ele>
        <time>2021-08-11T09:29:23.415Z</time>
      </trkpt>
      <trkpt lat="46.88353" lon="8.53219">
        <ele>1740</ele>
        <time>2021-08-11T09:29:24.416Z</time>
      </trkpt>
      <trkpt lat="46.88352" lon="8.53219">
        <ele>1740</ele>
        <time>2021-08-11T09:29:25.415Z</time>
      </trkpt>
      <trkpt lat="46.88352" lon="8.53217">
        <ele>1740</ele>
        <time>2021-08-11T09:29:26.415Z</time>
      </trkpt>
      <trkpt lat="46.88351" lon="8.53217">
        <ele>1740</ele>
        <time>2021-08-11T09:29:27.416Z</time>
      </trkpt>
      <trkpt lat="46.88352" lon="8.53217">
        <ele>1741</ele>
        <time>2021-08-11T09:29:28.416Z</time>
      </trkpt>
      <trkpt lat="46.88351" lon="8.53217">
        <ele>1741</ele>
        <time>2021-08-11T09:29:29.417Z</time>
      </trkpt>
      <trkpt lat="46.88351" lon="8.53217">
        <ele>1741</ele>
        <time>2021-08-11T09:29:30.417Z</time>
      </trkpt>
      <trkpt lat="46.88356" lon="8.53213">
        <ele>1752</ele>
        <time>2021-08-11T09:29:31.417Z</time>
      </trkpt>
      <trkpt lat="46.88355" lon="8.53213">
        <ele>1752</ele>
        <time>2021-08-11T09:29:32.416Z</time>
      </trkpt>
      <trkpt lat="46.88354" lon="8.53213">
        <ele>1752</ele>
        <time>2021-08-11T09:29:33.417Z</time>
      </trkpt>
      <trkpt lat="46.88354" lon="8.53212">
        <ele>1752</ele>
        <time>2021-08-11T09:29:34.416Z</time>
      </trkpt>
      <trkpt lat="46.88354" lon="8.53213">
        <ele>1750</ele>
        <time>2021-08-11T09:29:35.417Z</time>
      </trkpt>
      <trkpt lat="46.88354" lon="8.53213">
        <ele>1749</ele>
        <time>2021-08-11T09:29:36.417Z</time>
      </trkpt>
      <trkpt lat="46.88354" lon="8.53213">
        <ele>1749</ele>
        <time>2021-08-11T09:29:37.417Z</time>
      </trkpt>
      <trkpt lat="46.88354" lon="8.53214">
        <ele>1748</ele>
        <time>2021-08-11T09:29:38.417Z</time>
      </trkpt>
      <trkpt lat="46.88353" lon="8.53214">
        <ele>1747</ele>
        <time>2021-08-11T09:29:39.417Z</time>
      </trkpt>
      <trkpt lat="46.88353" lon="8.53214">
        <ele>1746</ele>
        <time>2021-08-11T09:29:40.416Z</time>
      </trkpt>
      <trkpt lat="46.88352" lon="8.53214">
        <ele>1746</ele>
        <time>2021-08-11T09:29:41.417Z</time>
      </trkpt>
      <trkpt lat="46.88352" lon="8.53214">
        <ele>1745</ele>
        <time>2021-08-11T09:29:42.417Z</time>
      </trkpt>
      <trkpt lat="46.88351" lon="8.53213">
        <ele>1745</ele>
        <time>2021-08-11T09:29:43.417Z</time>
      </trkpt>
      <trkpt lat="46.88351" lon="8.53212">
        <ele>1745</ele>
        <time>2021-08-11T09:29:44.416Z</time>
      </trkpt>
      <trkpt lat="46.8835" lon="8.53212">
        <ele>1744</ele>
        <time>2021-08-11T09:29:45.417Z</time>
      </trkpt>
      <trkpt lat="46.8835" lon="8.53212">
        <ele>1744</ele>
        <time>2021-08-11T09:29:46.417Z</time>
      </trkpt>
      <trkpt lat="46.8835" lon="8.53212">
        <ele>1743</ele>
        <time>2021-08-11T09:29:47.417Z</time>
      </trkpt>
      <trkpt lat="46.88349" lon="8.53212">
        <ele>1743</ele>
        <time>2021-08-11T09:29:48.417Z</time>
      </trkpt>
      <trkpt lat="46.88349" lon="8.53212">
        <ele>1742</ele>
        <time>2021-08-11T09:29:49.416Z</time>
      </trkpt>
      <trkpt lat="46.88349" lon="8.53212">
        <ele>1742</ele>
        <time>2021-08-11T09:29:50.417Z</time>
      </trkpt>
      <trkpt lat="46.88348" lon="8.53211">
        <ele>1741</ele>
        <time>2021-08-11T09:29:51.417Z</time>
      </trkpt>
      <trkpt lat="46.88348" lon="8.53211">
        <ele>1741</ele>
        <time>2021-08-11T09:29:52.417Z</time>
      </trkpt>
      <trkpt lat="46.88348" lon="8.53211">
        <ele>1741</ele>
        <time>2021-08-11T09:29:53.416Z</time>
      </trkpt>
      <trkpt lat="46.88347" lon="8.5321">
        <ele>1741</ele>
        <time>2021-08-11T09:29:54.417Z</time>
      </trkpt>
      <trkpt lat="46.88347" lon="8.53209">
        <ele>1741</ele>
        <time>2021-08-11T09:29:55.417Z</time>
      </trkpt>
      <trkpt lat="46.88346" lon="8.53209">
        <ele>1741</ele>
        <time>2021-08-11T09:29:56.417Z</time>
      </trkpt>
      <trkpt lat="46.88345" lon="8.53208">
        <ele>1742</ele>
        <time>2021-08-11T09:29:57.417Z</time>
      </trkpt>
      <trkpt lat="46.88345" lon="8.53207">
        <ele>1742</ele>
        <time>2021-08-11T09:29:58.416Z</time>
      </trkpt>
      <trkpt lat="46.88344" lon="8.53207">
        <ele>1743</ele>
        <time>2021-08-11T09:29:59.417Z</time>
      </trkpt>
      <trkpt lat="46.88344" lon="8.53205">
        <ele>1743</ele>
        <time>2021-08-11T09:30:00.417Z</time>
      </trkpt>
      <trkpt lat="46.88343" lon="8.53204">
        <ele>1743</ele>
        <time>2021-08-11T09:30:01.417Z</time>
      </trkpt>
      <trkpt lat="46.88342" lon="8.53203">
        <ele>1744</ele>
        <time>2021-08-11T09:30:02.416Z</time>
      </trkpt>
      <trkpt lat="46.88342" lon="8.53203">
        <ele>1744</ele>
        <time>2021-08-11T09:30:03.417Z</time>
      </trkpt>
      <trkpt lat="46.88341" lon="8.53203">
        <ele>1744</ele>
        <time>2021-08-11T09:30:04.416Z</time>
      </trkpt>
      <trkpt lat="46.88341" lon="8.53204">
        <ele>1745</ele>
        <time>2021-08-11T09:30:05.416Z</time>
      </trkpt>
      <trkpt lat="46.88341" lon="8.53203">
        <ele>1745</ele>
        <time>2021-08-11T09:30:06.417Z</time>
      </trkpt>
      <trkpt lat="46.88341" lon="8.53203">
        <ele>1745</ele>
        <time>2021-08-11T09:30:07.416Z</time>
      </trkpt>
      <trkpt lat="46.88342" lon="8.53203">
        <ele>1745</ele>
        <time>2021-08-11T09:30:08.417Z</time>
      </trkpt>
      <trkpt lat="46.88344" lon="8.53204">
        <ele>1745</ele>
        <time>2021-08-11T09:30:09.416Z</time>
      </trkpt>
      <trkpt lat="46.88345" lon="8.53205">
        <ele>1745</ele>
        <time>2021-08-11T09:30:10.416Z</time>
      </trkpt>
      <trkpt lat="46.88345" lon="8.53206">
        <ele>1745</ele>
        <time>2021-08-11T09:30:11.416Z</time>
      </trkpt>
      <trkpt lat="46.88345" lon="8.53206">
        <ele>1745</ele>
        <time>2021-08-11T09:30:12.416Z</time>
      </trkpt>
      <trkpt lat="46.88345" lon="8.53205">
        <ele>1745</ele>
        <time>2021-08-11T09:30:13.418Z</time>
      </trkpt>
      <trkpt lat="46.88344" lon="8.53205">
        <ele>1745</ele>
        <time>2021-08-11T09:30:14.419Z</time>
      </trkpt>
      <trkpt lat="46.88343" lon="8.53204">
        <ele>1744</ele>
        <time>2021-08-11T09:30:15.418Z</time>
      </trkpt>
      <trkpt lat="46.88342" lon="8.53203">
        <ele>1744</ele>
        <time>2021-08-11T09:30:16.419Z</time>
      </trkpt>
      <trkpt lat="46.88341" lon="8.53203">
        <ele>1744</ele>
        <time>2021-08-11T09:30:17.419Z</time>
      </trkpt>
      <trkpt lat="46.88339" lon="8.53202">
        <ele>1744</ele>
        <time>2021-08-11T09:30:18.418Z</time>
      </trkpt>
      <trkpt lat="46.88338" lon="8.53201">
        <ele>1744</ele>
        <time>2021-08-11T09:30:19.419Z</time>
      </trkpt>
      <trkpt lat="46.88337" lon="8.53201">
        <ele>1744</ele>
        <time>2021-08-11T09:30:20.419Z</time>
      </trkpt>
      <trkpt lat="46.88337" lon="8.532">
        <ele>1744</ele>
        <time>2021-08-11T09:30:21.418Z</time>
      </trkpt>
      <trkpt lat="46.88336" lon="8.53199">
        <ele>1743</ele>
        <time>2021-08-11T09:30:22.419Z</time>
      </trkpt>
      <trkpt lat="46.88335" lon="8.53199">
        <ele>1742</ele>
        <time>2021-08-11T09:30:23.418Z</time>
      </trkpt>
      <trkpt lat="46.88335" lon="8.53198">
        <ele>1742</ele>
        <time>2021-08-11T09:30:24.419Z</time>
      </trkpt>
      <trkpt lat="46.88334" lon="8.53197">
        <ele>1741</ele>
        <time>2021-08-11T09:30:25.419Z</time>
      </trkpt>
      <trkpt lat="46.88333" lon="8.53196">
        <ele>1741</ele>
        <time>2021-08-11T09:30:26.418Z</time>
      </trkpt>
      <trkpt lat="46.88333" lon="8.53196">
        <ele>1741</ele>
        <time>2021-08-11T09:30:27.418Z</time>
      </trkpt>
      <trkpt lat="46.88332" lon="8.53195">
        <ele>1740</ele>
        <time>2021-08-11T09:30:28.418Z</time>
      </trkpt>
      <trkpt lat="46.88331" lon="8.53195">
        <ele>1740</ele>
        <time>2021-08-11T09:30:29.419Z</time>
      </trkpt>
      <trkpt lat="46.8833" lon="8.53194">
        <ele>1740</ele>
        <time>2021-08-11T09:30:30.419Z</time>
      </trkpt>
      <trkpt lat="46.88329" lon="8.53194">
        <ele>1739</ele>
        <time>2021-08-11T09:30:31.419Z</time>
      </trkpt>
      <trkpt lat="46.88328" lon="8.53193">
        <ele>1739</ele>
        <time>2021-08-11T09:30:32.419Z</time>
      </trkpt>
      <trkpt lat="46.88327" lon="8.53192">
        <ele>1739</ele>
        <time>2021-08-11T09:30:33.418Z</time>
      </trkpt>
      <trkpt lat="46.88326" lon="8.53192">
        <ele>1739</ele>
        <time>2021-08-11T09:30:34.418Z</time>
      </trkpt>
      <trkpt lat="46.88325" lon="8.53191">
        <ele>1739</ele>
        <time>2021-08-11T09:30:35.419Z</time>
      </trkpt>
      <trkpt lat="46.88324" lon="8.5319">
        <ele>1739</ele>
        <time>2021-08-11T09:30:36.418Z</time>
      </trkpt>
      <trkpt lat="46.88324" lon="8.53189">
        <ele>1739</ele>
        <time>2021-08-11T09:30:37.419Z</time>
      </trkpt>
      <trkpt lat="46.88323" lon="8.53188">
        <ele>1739</ele>
        <time>2021-08-11T09:30:38.419Z</time>
      </trkpt>
      <trkpt lat="46.88322" lon="8.53187">
        <ele>1739</ele>
        <time>2021-08-11T09:30:39.419Z</time>
      </trkpt>
      <trkpt lat="46.88321" lon="8.53186">
        <ele>1739</ele>
        <time>2021-08-11T09:30:40.419Z</time>
      </trkpt>
      <trkpt lat="46.8832" lon="8.53185">
        <ele>1738</ele>
        <time>2021-08-11T09:30:41.418Z</time>
      </trkpt>
      <trkpt lat="46.88319" lon="8.53184">
        <ele>1739</ele>
        <time>2021-08-11T09:30:42.419Z</time>
      </trkpt>
      <trkpt lat="46.88318" lon="8.53183">
        <ele>1739</ele>
        <time>2021-08-11T09:30:43.419Z</time>
      </trkpt>
      <trkpt lat="46.88317" lon="8.53181">
        <ele>1739</ele>
        <time>2021-08-11T09:30:44.419Z</time>
      </trkpt>
      <trkpt lat="46.88316" lon="8.5318">
        <ele>1739</ele>
        <time>2021-08-11T09:30:45.419Z</time>
      </trkpt>
      <trkpt lat="46.88315" lon="8.53179">
        <ele>1738</ele>
        <time>2021-08-11T09:30:46.418Z</time>
      </trkpt>
      <trkpt lat="46.88314" lon="8.53179">
        <ele>1738</ele>
        <time>2021-08-11T09:30:47.419Z</time>
      </trkpt>
      <trkpt lat="46.88313" lon="8.53178">
        <ele>1738</ele>
        <time>2021-08-11T09:30:48.419Z</time>
      </trkpt>
      <trkpt lat="46.88313" lon="8.53178">
        <ele>1738</ele>
        <time>2021-08-11T09:30:49.418Z</time>
      </trkpt>
      <trkpt lat="46.88312" lon="8.53177">
        <ele>1737</ele>
        <time>2021-08-11T09:30:50.419Z</time>
      </trkpt>
      <trkpt lat="46.88311" lon="8.53175">
        <ele>1737</ele>
        <time>2021-08-11T09:30:51.418Z</time>
      </trkpt>
      <trkpt lat="46.8831" lon="8.53174">
        <ele>1737</ele>
        <time>2021-08-11T09:30:52.418Z</time>
      </trkpt>
      <trkpt lat="46.8831" lon="8.53172">
        <ele>1737</ele>
        <time>2021-08-11T09:30:53.418Z</time>
      </trkpt>
      <trkpt lat="46.88309" lon="8.53171">
        <ele>1737</ele>
        <time>2021-08-11T09:30:54.419Z</time>
      </trkpt>
      <trkpt lat="46.88308" lon="8.5317">
        <ele>1737</ele>
        <time>2021-08-11T09:30:55.419Z</time>
      </trkpt>
      <trkpt lat="46.88307" lon="8.53169">
        <ele>1737</ele>
        <time>2021-08-11T09:30:56.418Z</time>
      </trkpt>
      <trkpt lat="46.88306" lon="8.53168">
        <ele>1737</ele>
        <time>2021-08-11T09:30:57.418Z</time>
      </trkpt>
      <trkpt lat="46.88305" lon="8.53168">
        <ele>1736</ele>
        <time>2021-08-11T09:30:58.419Z</time>
      </trkpt>
      <trkpt lat="46.88305" lon="8.53167">
        <ele>1736</ele>
        <time>2021-08-11T09:30:59.419Z</time>
      </trkpt>
      <trkpt lat="46.88305" lon="8.53167">
        <ele>1735</ele>
        <time>2021-08-11T09:31:00.419Z</time>
      </trkpt>
      <trkpt lat="46.88304" lon="8.53167">
        <ele>1735</ele>
        <time>2021-08-11T09:31:01.419Z</time>
      </trkpt>
      <trkpt lat="46.88303" lon="8.53168">
        <ele>1736</ele>
        <time>2021-08-11T09:31:02.419Z</time>
      </trkpt>
      <trkpt lat="46.88303" lon="8.53168">
        <ele>1736</ele>
        <time>2021-08-11T09:31:03.419Z</time>
      </trkpt>
      <trkpt lat="46.88303" lon="8.53167">
        <ele>1735</ele>
        <time>2021-08-11T09:31:04.418Z</time>
      </trkpt>
      <trkpt lat="46.88302" lon="8.53167">
        <ele>1734</ele>
        <time>2021-08-11T09:31:05.418Z</time>
      </trkpt>
      <trkpt lat="46.88301" lon="8.53166">
        <ele>1734</ele>
        <time>2021-08-11T09:31:06.418Z</time>
      </trkpt>
      <trkpt lat="46.883" lon="8.53165">
        <ele>1734</ele>
        <time>2021-08-11T09:31:07.419Z</time>
      </trkpt>
      <trkpt lat="46.88299" lon="8.53164">
        <ele>1735</ele>
        <time>2021-08-11T09:31:08.419Z</time>
      </trkpt>
      <trkpt lat="46.88298" lon="8.53164">
        <ele>1735</ele>
        <time>2021-08-11T09:31:09.418Z</time>
      </trkpt>
      <trkpt lat="46.88297" lon="8.53163">
        <ele>1735</ele>
        <time>2021-08-11T09:31:10.418Z</time>
      </trkpt>
      <trkpt lat="46.88296" lon="8.53162">
        <ele>1735</ele>
        <time>2021-08-11T09:31:11.418Z</time>
      </trkpt>
      <trkpt lat="46.88295" lon="8.53161">
        <ele>1735</ele>
        <time>2021-08-11T09:31:12.418Z</time>
      </trkpt>
      <trkpt lat="46.88294" lon="8.53161">
        <ele>1735</ele>
        <time>2021-08-11T09:31:13.418Z</time>
      </trkpt>
      <trkpt lat="46.88293" lon="8.5316">
        <ele>1735</ele>
        <time>2021-08-11T09:31:14.419Z</time>
      </trkpt>
      <trkpt lat="46.88292" lon="8.53159">
        <ele>1735</ele>
        <time>2021-08-11T09:31:15.419Z</time>
      </trkpt>
      <trkpt lat="46.88291" lon="8.53158">
        <ele>1736</ele>
        <time>2021-08-11T09:31:16.419Z</time>
      </trkpt>
      <trkpt lat="46.8829" lon="8.53157">
        <ele>1736</ele>
        <time>2021-08-11T09:31:17.418Z</time>
      </trkpt>
      <trkpt lat="46.8829" lon="8.53156">
        <ele>1736</ele>
        <time>2021-08-11T09:31:18.419Z</time>
      </trkpt>
      <trkpt lat="46.88289" lon="8.53155">
        <ele>1737</ele>
        <time>2021-08-11T09:31:19.418Z</time>
      </trkpt>
      <trkpt lat="46.88288" lon="8.53154">
        <ele>1737</ele>
        <time>2021-08-11T09:31:20.418Z</time>
      </trkpt>
      <trkpt lat="46.88287" lon="8.53153">
        <ele>1737</ele>
        <time>2021-08-11T09:31:21.419Z</time>
      </trkpt>
      <trkpt lat="46.88286" lon="8.53152">
        <ele>1737</ele>
        <time>2021-08-11T09:31:22.418Z</time>
      </trkpt>
      <trkpt lat="46.88285" lon="8.53151">
        <ele>1738</ele>
        <time>2021-08-11T09:31:23.419Z</time>
      </trkpt>
      <trkpt lat="46.88284" lon="8.5315">
        <ele>1737</ele>
        <time>2021-08-11T09:31:24.418Z</time>
      </trkpt>
      <trkpt lat="46.88283" lon="8.53149">
        <ele>1737</ele>
        <time>2021-08-11T09:31:25.418Z</time>
      </trkpt>
      <trkpt lat="46.88282" lon="8.53147">
        <ele>1737</ele>
        <time>2021-08-11T09:31:26.419Z</time>
      </trkpt>
      <trkpt lat="46.88281" lon="8.53147">
        <ele>1737</ele>
        <time>2021-08-11T09:31:27.419Z</time>
      </trkpt>
      <trkpt lat="46.8828" lon="8.53146">
        <ele>1736</ele>
        <time>2021-08-11T09:31:28.419Z</time>
      </trkpt>
      <trkpt lat="46.88279" lon="8.53146">
        <ele>1736</ele>
        <time>2021-08-11T09:31:29.418Z</time>
      </trkpt>
      <trkpt lat="46.88278" lon="8.53145">
        <ele>1735</ele>
        <time>2021-08-11T09:31:30.418Z</time>
      </trkpt>
      <trkpt lat="46.88278" lon="8.53145">
        <ele>1734</ele>
        <time>2021-08-11T09:31:31.419Z</time>
      </trkpt>
      <trkpt lat="46.88277" lon="8.53144">
        <ele>1732</ele>
        <time>2021-08-11T09:31:32.419Z</time>
      </trkpt>
      <trkpt lat="46.88276" lon="8.53144">
        <ele>1731</ele>
        <time>2021-08-11T09:31:33.419Z</time>
      </trkpt>
      <trkpt lat="46.88276" lon="8.53144">
        <ele>1730</ele>
        <time>2021-08-11T09:31:34.418Z</time>
      </trkpt>
      <trkpt lat="46.88276" lon="8.53144">
        <ele>1730</ele>
        <time>2021-08-11T09:31:35.418Z</time>
      </trkpt>
      <trkpt lat="46.88275" lon="8.53143">
        <ele>1729</ele>
        <time>2021-08-11T09:31:36.419Z</time>
      </trkpt>
      <trkpt lat="46.88274" lon="8.53143">
        <ele>1728</ele>
        <time>2021-08-11T09:31:37.418Z</time>
      </trkpt>
      <trkpt lat="46.88274" lon="8.53143">
        <ele>1728</ele>
        <time>2021-08-11T09:31:38.418Z</time>
      </trkpt>
      <trkpt lat="46.88273" lon="8.53143">
        <ele>1728</ele>
        <time>2021-08-11T09:31:39.418Z</time>
      </trkpt>
      <trkpt lat="46.88272" lon="8.53142">
        <ele>1727</ele>
        <time>2021-08-11T09:31:40.418Z</time>
      </trkpt>
      <trkpt lat="46.88271" lon="8.53141">
        <ele>1727</ele>
        <time>2021-08-11T09:31:41.418Z</time>
      </trkpt>
      <trkpt lat="46.8827" lon="8.5314">
        <ele>1727</ele>
        <time>2021-08-11T09:31:42.419Z</time>
      </trkpt>
      <trkpt lat="46.8827" lon="8.5314">
        <ele>1727</ele>
        <time>2021-08-11T09:31:43.419Z</time>
      </trkpt>
      <trkpt lat="46.88269" lon="8.53139">
        <ele>1727</ele>
        <time>2021-08-11T09:31:44.419Z</time>
      </trkpt>
      <trkpt lat="46.88268" lon="8.53138">
        <ele>1727</ele>
        <time>2021-08-11T09:31:45.418Z</time>
      </trkpt>
      <trkpt lat="46.88267" lon="8.53137">
        <ele>1727</ele>
        <time>2021-08-11T09:31:46.419Z</time>
      </trkpt>
      <trkpt lat="46.88266" lon="8.53136">
        <ele>1727</ele>
        <time>2021-08-11T09:31:47.419Z</time>
      </trkpt>
      <trkpt lat="46.88265" lon="8.53136">
        <ele>1726</ele>
        <time>2021-08-11T09:31:48.419Z</time>
      </trkpt>
      <trkpt lat="46.88264" lon="8.53135">
        <ele>1726</ele>
        <time>2021-08-11T09:31:49.418Z</time>
      </trkpt>
      <trkpt lat="46.88264" lon="8.53134">
        <ele>1726</ele>
        <time>2021-08-11T09:31:50.418Z</time>
      </trkpt>
      <trkpt lat="46.88263" lon="8.53132">
        <ele>1725</ele>
        <time>2021-08-11T09:31:51.418Z</time>
      </trkpt>
      <trkpt lat="46.88262" lon="8.53131">
        <ele>1725</ele>
        <time>2021-08-11T09:31:52.419Z</time>
      </trkpt>
      <trkpt lat="46.88261" lon="8.53129">
        <ele>1725</ele>
        <time>2021-08-11T09:31:53.419Z</time>
      </trkpt>
      <trkpt lat="46.88261" lon="8.53128">
        <ele>1724</ele>
        <time>2021-08-11T09:31:54.418Z</time>
      </trkpt>
      <trkpt lat="46.8826" lon="8.53127">
        <ele>1724</ele>
        <time>2021-08-11T09:31:55.418Z</time>
      </trkpt>
      <trkpt lat="46.8826" lon="8.53126">
        <ele>1725</ele>
        <time>2021-08-11T09:31:56.418Z</time>
      </trkpt>
      <trkpt lat="46.88259" lon="8.53125">
        <ele>1725</ele>
        <time>2021-08-11T09:31:57.419Z</time>
      </trkpt>
      <trkpt lat="46.88259" lon="8.53124">
        <ele>1725</ele>
        <time>2021-08-11T09:31:58.419Z</time>
      </trkpt>
      <trkpt lat="46.88259" lon="8.53123">
        <ele>1725</ele>
        <time>2021-08-11T09:31:59.418Z</time>
      </trkpt>
      <trkpt lat="46.88258" lon="8.53122">
        <ele>1725</ele>
        <time>2021-08-11T09:32:00.418Z</time>
      </trkpt>
      <trkpt lat="46.88257" lon="8.53121">
        <ele>1725</ele>
        <time>2021-08-11T09:32:01.418Z</time>
      </trkpt>
      <trkpt lat="46.88256" lon="8.5312">
        <ele>1725</ele>
        <time>2021-08-11T09:32:02.419Z</time>
      </trkpt>
      <trkpt lat="46.88255" lon="8.53119">
        <ele>1725</ele>
        <time>2021-08-11T09:32:03.418Z</time>
      </trkpt>
      <trkpt lat="46.88254" lon="8.53118">
        <ele>1725</ele>
        <time>2021-08-11T09:32:04.418Z</time>
      </trkpt>
      <trkpt lat="46.88253" lon="8.53117">
        <ele>1725</ele>
        <time>2021-08-11T09:32:05.418Z</time>
      </trkpt>
      <trkpt lat="46.88252" lon="8.53116">
        <ele>1724</ele>
        <time>2021-08-11T09:32:06.419Z</time>
      </trkpt>
      <trkpt lat="46.88251" lon="8.53114">
        <ele>1725</ele>
        <time>2021-08-11T09:32:07.418Z</time>
      </trkpt>
      <trkpt lat="46.8825" lon="8.53113">
        <ele>1725</ele>
        <time>2021-08-11T09:32:08.419Z</time>
      </trkpt>
      <trkpt lat="46.88249" lon="8.53112">
        <ele>1724</ele>
        <time>2021-08-11T09:32:09.418Z</time>
      </trkpt>
      <trkpt lat="46.88249" lon="8.5311">
        <ele>1724</ele>
        <time>2021-08-11T09:32:10.419Z</time>
      </trkpt>
      <trkpt lat="46.88248" lon="8.5311">
        <ele>1724</ele>
        <time>2021-08-11T09:32:11.418Z</time>
      </trkpt>
      <trkpt lat="46.88247" lon="8.53109">
        <ele>1724</ele>
        <time>2021-08-11T09:32:12.418Z</time>
      </trkpt>
      <trkpt lat="46.88246" lon="8.53108">
        <ele>1723</ele>
        <time>2021-08-11T09:32:13.418Z</time>
      </trkpt>
      <trkpt lat="46.88245" lon="8.53107">
        <ele>1723</ele>
        <time>2021-08-11T09:32:14.418Z</time>
      </trkpt>
      <trkpt lat="46.88244" lon="8.53107">
        <ele>1723</ele>
        <time>2021-08-11T09:32:15.419Z</time>
      </trkpt>
      <trkpt lat="46.88243" lon="8.53106">
        <ele>1723</ele>
        <time>2021-08-11T09:32:16.418Z</time>
      </trkpt>
      <trkpt lat="46.88242" lon="8.53106">
        <ele>1723</ele>
        <time>2021-08-11T09:32:17.418Z</time>
      </trkpt>
      <trkpt lat="46.88241" lon="8.53106">
        <ele>1723</ele>
        <time>2021-08-11T09:32:18.418Z</time>
      </trkpt>
      <trkpt lat="46.8824" lon="8.53106">
        <ele>1723</ele>
        <time>2021-08-11T09:32:19.418Z</time>
      </trkpt>
      <trkpt lat="46.88239" lon="8.53106">
        <ele>1723</ele>
        <time>2021-08-11T09:32:20.419Z</time>
      </trkpt>
      <trkpt lat="46.88238" lon="8.53106">
        <ele>1723</ele>
        <time>2021-08-11T09:32:21.419Z</time>
      </trkpt>
      <trkpt lat="46.88237" lon="8.53106">
        <ele>1723</ele>
        <time>2021-08-11T09:32:22.419Z</time>
      </trkpt>
      <trkpt lat="46.88236" lon="8.53105">
        <ele>1723</ele>
        <time>2021-08-11T09:32:23.419Z</time>
      </trkpt>
      <trkpt lat="46.88236" lon="8.53104">
        <ele>1723</ele>
        <time>2021-08-11T09:32:24.419Z</time>
      </trkpt>
      <trkpt lat="46.88235" lon="8.53103">
        <ele>1723</ele>
        <time>2021-08-11T09:32:25.419Z</time>
      </trkpt>
      <trkpt lat="46.88234" lon="8.53102">
        <ele>1723</ele>
        <time>2021-08-11T09:32:26.419Z</time>
      </trkpt>
      <trkpt lat="46.88233" lon="8.53101">
        <ele>1723</ele>
        <time>2021-08-11T09:32:27.418Z</time>
      </trkpt>
      <trkpt lat="46.88231" lon="8.53099">
        <ele>1723</ele>
        <time>2021-08-11T09:32:28.419Z</time>
      </trkpt>
      <trkpt lat="46.8823" lon="8.53098">
        <ele>1723</ele>
        <time>2021-08-11T09:32:29.419Z</time>
      </trkpt>
      <trkpt lat="46.88229" lon="8.53096">
        <ele>1723</ele>
        <time>2021-08-11T09:32:30.419Z</time>
      </trkpt>
      <trkpt lat="46.88228" lon="8.53095">
        <ele>1723</ele>
        <time>2021-08-11T09:32:31.418Z</time>
      </trkpt>
      <trkpt lat="46.88228" lon="8.53095">
        <ele>1723</ele>
        <time>2021-08-11T09:32:32.419Z</time>
      </trkpt>
      <trkpt lat="46.88227" lon="8.53094">
        <ele>1723</ele>
        <time>2021-08-11T09:32:33.419Z</time>
      </trkpt>
      <trkpt lat="46.88227" lon="8.53092">
        <ele>1722</ele>
        <time>2021-08-11T09:32:34.419Z</time>
      </trkpt>
      <trkpt lat="46.88226" lon="8.53091">
        <ele>1722</ele>
        <time>2021-08-11T09:32:35.419Z</time>
      </trkpt>
      <trkpt lat="46.88226" lon="8.5309">
        <ele>1722</ele>
        <time>2021-08-11T09:32:36.418Z</time>
      </trkpt>
      <trkpt lat="46.88226" lon="8.53088">
        <ele>1721</ele>
        <time>2021-08-11T09:32:37.418Z</time>
      </trkpt>
      <trkpt lat="46.88226" lon="8.53087">
        <ele>1721</ele>
        <time>2021-08-11T09:32:38.418Z</time>
      </trkpt>
      <trkpt lat="46.88226" lon="8.53085">
        <ele>1721</ele>
        <time>2021-08-11T09:32:39.418Z</time>
      </trkpt>
      <trkpt lat="46.88225" lon="8.53083">
        <ele>1721</ele>
        <time>2021-08-11T09:32:40.418Z</time>
      </trkpt>
      <trkpt lat="46.88224" lon="8.53082">
        <ele>1721</ele>
        <time>2021-08-11T09:32:41.418Z</time>
      </trkpt>
      <trkpt lat="46.88224" lon="8.53082">
        <ele>1720</ele>
        <time>2021-08-11T09:32:42.418Z</time>
      </trkpt>
      <trkpt lat="46.88224" lon="8.53081">
        <ele>1719</ele>
        <time>2021-08-11T09:32:43.418Z</time>
      </trkpt>
      <trkpt lat="46.88223" lon="8.5308">
        <ele>1719</ele>
        <time>2021-08-11T09:32:44.418Z</time>
      </trkpt>
      <trkpt lat="46.88223" lon="8.53079">
        <ele>1719</ele>
        <time>2021-08-11T09:32:45.419Z</time>
      </trkpt>
      <trkpt lat="46.88222" lon="8.53078">
        <ele>1719</ele>
        <time>2021-08-11T09:32:46.419Z</time>
      </trkpt>
      <trkpt lat="46.88222" lon="8.53077">
        <ele>1718</ele>
        <time>2021-08-11T09:32:47.419Z</time>
      </trkpt>
      <trkpt lat="46.88222" lon="8.53076">
        <ele>1718</ele>
        <time>2021-08-11T09:32:48.419Z</time>
      </trkpt>
      <trkpt lat="46.88221" lon="8.53074">
        <ele>1719</ele>
        <time>2021-08-11T09:32:49.418Z</time>
      </trkpt>
      <trkpt lat="46.88221" lon="8.53073">
        <ele>1719</ele>
        <time>2021-08-11T09:32:50.419Z</time>
      </trkpt>
      <trkpt lat="46.8822" lon="8.53071">
        <ele>1719</ele>
        <time>2021-08-11T09:32:51.419Z</time>
      </trkpt>
      <trkpt lat="46.88219" lon="8.5307">
        <ele>1719</ele>
        <time>2021-08-11T09:32:52.419Z</time>
      </trkpt>
      <trkpt lat="46.88219" lon="8.53068">
        <ele>1719</ele>
        <time>2021-08-11T09:32:53.419Z</time>
      </trkpt>
      <trkpt lat="46.88219" lon="8.53067">
        <ele>1719</ele>
        <time>2021-08-11T09:32:54.418Z</time>
      </trkpt>
      <trkpt lat="46.88219" lon="8.53066">
        <ele>1719</ele>
        <time>2021-08-11T09:32:55.419Z</time>
      </trkpt>
      <trkpt lat="46.88218" lon="8.53065">
        <ele>1719</ele>
        <time>2021-08-11T09:32:56.419Z</time>
      </trkpt>
      <trkpt lat="46.88218" lon="8.53064">
        <ele>1719</ele>
        <time>2021-08-11T09:32:57.419Z</time>
      </trkpt>
      <trkpt lat="46.88218" lon="8.53063">
        <ele>1719</ele>
        <time>2021-08-11T09:32:58.419Z</time>
      </trkpt>
      <trkpt lat="46.88218" lon="8.53062">
        <ele>1718</ele>
        <time>2021-08-11T09:32:59.418Z</time>
      </trkpt>
      <trkpt lat="46.88218" lon="8.53061">
        <ele>1718</ele>
        <time>2021-08-11T09:33:00.418Z</time>
      </trkpt>
      <trkpt lat="46.88218" lon="8.5306">
        <ele>1717</ele>
        <time>2021-08-11T09:33:01.418Z</time>
      </trkpt>
      <trkpt lat="46.88218" lon="8.5306">
        <ele>1717</ele>
        <time>2021-08-11T09:33:02.418Z</time>
      </trkpt>
      <trkpt lat="46.88217" lon="8.53059">
        <ele>1716</ele>
        <time>2021-08-11T09:33:03.419Z</time>
      </trkpt>
      <trkpt lat="46.88216" lon="8.53058">
        <ele>1716</ele>
        <time>2021-08-11T09:33:04.419Z</time>
      </trkpt>
      <trkpt lat="46.88216" lon="8.53056">
        <ele>1715</ele>
        <time>2021-08-11T09:33:05.418Z</time>
      </trkpt>
      <trkpt lat="46.88215" lon="8.53055">
        <ele>1715</ele>
        <time>2021-08-11T09:33:06.419Z</time>
      </trkpt>
      <trkpt lat="46.88214" lon="8.53053">
        <ele>1715</ele>
        <time>2021-08-11T09:33:07.419Z</time>
      </trkpt>
      <trkpt lat="46.88214" lon="8.53051">
        <ele>1715</ele>
        <time>2021-08-11T09:33:08.419Z</time>
      </trkpt>
      <trkpt lat="46.88214" lon="8.5305">
        <ele>1715</ele>
        <time>2021-08-11T09:33:09.418Z</time>
      </trkpt>
      <trkpt lat="46.88213" lon="8.53048">
        <ele>1715</ele>
        <time>2021-08-11T09:33:10.419Z</time>
      </trkpt>
      <trkpt lat="46.88213" lon="8.53046">
        <ele>1715</ele>
        <time>2021-08-11T09:33:11.419Z</time>
      </trkpt>
      <trkpt lat="46.88212" lon="8.53045">
        <ele>1716</ele>
        <time>2021-08-11T09:33:12.419Z</time>
      </trkpt>
      <trkpt lat="46.88212" lon="8.53044">
        <ele>1716</ele>
        <time>2021-08-11T09:33:13.419Z</time>
      </trkpt>
      <trkpt lat="46.88211" lon="8.53043">
        <ele>1716</ele>
        <time>2021-08-11T09:33:14.418Z</time>
      </trkpt>
      <trkpt lat="46.88211" lon="8.53042">
        <ele>1717</ele>
        <time>2021-08-11T09:33:15.419Z</time>
      </trkpt>
      <trkpt lat="46.8821" lon="8.53041">
        <ele>1717</ele>
        <time>2021-08-11T09:33:16.419Z</time>
      </trkpt>
      <trkpt lat="46.88209" lon="8.5304">
        <ele>1717</ele>
        <time>2021-08-11T09:33:17.419Z</time>
      </trkpt>
      <trkpt lat="46.88209" lon="8.53039">
        <ele>1718</ele>
        <time>2021-08-11T09:33:18.418Z</time>
      </trkpt>
      <trkpt lat="46.88208" lon="8.53038">
        <ele>1718</ele>
        <time>2021-08-11T09:33:19.419Z</time>
      </trkpt>
      <trkpt lat="46.88208" lon="8.53037">
        <ele>1719</ele>
        <time>2021-08-11T09:33:20.419Z</time>
      </trkpt>
      <trkpt lat="46.88207" lon="8.53036">
        <ele>1719</ele>
        <time>2021-08-11T09:33:21.419Z</time>
      </trkpt>
      <trkpt lat="46.88206" lon="8.53035">
        <ele>1719</ele>
        <time>2021-08-11T09:33:22.419Z</time>
      </trkpt>
      <trkpt lat="46.88206" lon="8.53033">
        <ele>1719</ele>
        <time>2021-08-11T09:33:23.418Z</time>
      </trkpt>
      <trkpt lat="46.88205" lon="8.53032">
        <ele>1719</ele>
        <time>2021-08-11T09:33:24.419Z</time>
      </trkpt>
      <trkpt lat="46.88204" lon="8.53031">
        <ele>1718</ele>
        <time>2021-08-11T09:33:25.419Z</time>
      </trkpt>
      <trkpt lat="46.88203" lon="8.5303">
        <ele>1718</ele>
        <time>2021-08-11T09:33:26.419Z</time>
      </trkpt>
      <trkpt lat="46.88202" lon="8.53029">
        <ele>1718</ele>
        <time>2021-08-11T09:33:27.418Z</time>
      </trkpt>
      <trkpt lat="46.88202" lon="8.53028">
        <ele>1717</ele>
        <time>2021-08-11T09:33:28.418Z</time>
      </trkpt>
      <trkpt lat="46.88202" lon="8.53027">
        <ele>1717</ele>
        <time>2021-08-11T09:33:29.419Z</time>
      </trkpt>
      <trkpt lat="46.88201" lon="8.53026">
        <ele>1716</ele>
        <time>2021-08-11T09:33:30.419Z</time>
      </trkpt>
      <trkpt lat="46.88201" lon="8.53025">
        <ele>1716</ele>
        <time>2021-08-11T09:33:31.419Z</time>
      </trkpt>
      <trkpt lat="46.882" lon="8.53025">
        <ele>1716</ele>
        <time>2021-08-11T09:33:32.418Z</time>
      </trkpt>
      <trkpt lat="46.882" lon="8.53024">
        <ele>1716</ele>
        <time>2021-08-11T09:33:33.419Z</time>
      </trkpt>
      <trkpt lat="46.88199" lon="8.53023">
        <ele>1716</ele>
        <time>2021-08-11T09:33:34.419Z</time>
      </trkpt>
      <trkpt lat="46.88198" lon="8.53022">
        <ele>1716</ele>
        <time>2021-08-11T09:33:35.419Z</time>
      </trkpt>
      <trkpt lat="46.88198" lon="8.5302">
        <ele>1716</ele>
        <time>2021-08-11T09:33:36.419Z</time>
      </trkpt>
      <trkpt lat="46.88197" lon="8.53019">
        <ele>1716</ele>
        <time>2021-08-11T09:33:37.418Z</time>
      </trkpt>
      <trkpt lat="46.88196" lon="8.53018">
        <ele>1716</ele>
        <time>2021-08-11T09:33:38.419Z</time>
      </trkpt>
      <trkpt lat="46.88195" lon="8.53017">
        <ele>1717</ele>
        <time>2021-08-11T09:33:39.419Z</time>
      </trkpt>
      <trkpt lat="46.88195" lon="8.53016">
        <ele>1717</ele>
        <time>2021-08-11T09:33:40.419Z</time>
      </trkpt>
      <trkpt lat="46.88194" lon="8.53015">
        <ele>1717</ele>
        <time>2021-08-11T09:33:41.418Z</time>
      </trkpt>
      <trkpt lat="46.88193" lon="8.53014">
        <ele>1717</ele>
        <time>2021-08-11T09:33:42.419Z</time>
      </trkpt>
      <trkpt lat="46.88192" lon="8.53013">
        <ele>1717</ele>
        <time>2021-08-11T09:33:43.419Z</time>
      </trkpt>
      <trkpt lat="46.88191" lon="8.53012">
        <ele>1718</ele>
        <time>2021-08-11T09:33:44.419Z</time>
      </trkpt>
      <trkpt lat="46.88191" lon="8.53011">
        <ele>1718</ele>
        <time>2021-08-11T09:33:45.419Z</time>
      </trkpt>
      <trkpt lat="46.8819" lon="8.5301">
        <ele>1718</ele>
        <time>2021-08-11T09:33:46.418Z</time>
      </trkpt>
      <trkpt lat="46.8819" lon="8.5301">
        <ele>1719</ele>
        <time>2021-08-11T09:33:47.419Z</time>
      </trkpt>
      <trkpt lat="46.88189" lon="8.5301">
        <ele>1719</ele>
        <time>2021-08-11T09:33:48.419Z</time>
      </trkpt>
      <trkpt lat="46.88188" lon="8.53009">
        <ele>1720</ele>
        <time>2021-08-11T09:33:49.419Z</time>
      </trkpt>
      <trkpt lat="46.88187" lon="8.53008">
        <ele>1720</ele>
        <time>2021-08-11T09:33:50.418Z</time>
      </trkpt>
      <trkpt lat="46.88187" lon="8.53007">
        <ele>1720</ele>
        <time>2021-08-11T09:33:51.419Z</time>
      </trkpt>
      <trkpt lat="46.88186" lon="8.53006">
        <ele>1720</ele>
        <time>2021-08-11T09:33:52.419Z</time>
      </trkpt>
      <trkpt lat="46.88185" lon="8.53006">
        <ele>1720</ele>
        <time>2021-08-11T09:33:53.419Z</time>
      </trkpt>
      <trkpt lat="46.88185" lon="8.53005">
        <ele>1719</ele>
        <time>2021-08-11T09:33:54.419Z</time>
      </trkpt>
      <trkpt lat="46.88184" lon="8.53004">
        <ele>1719</ele>
        <time>2021-08-11T09:33:55.418Z</time>
      </trkpt>
      <trkpt lat="46.88184" lon="8.53004">
        <ele>1718</ele>
        <time>2021-08-11T09:33:56.419Z</time>
      </trkpt>
      <trkpt lat="46.88183" lon="8.53003">
        <ele>1718</ele>
        <time>2021-08-11T09:33:57.419Z</time>
      </trkpt>
      <trkpt lat="46.88182" lon="8.53001">
        <ele>1718</ele>
        <time>2021-08-11T09:33:58.419Z</time>
      </trkpt>
      <trkpt lat="46.88182" lon="8.53">
        <ele>1717</ele>
        <time>2021-08-11T09:33:59.418Z</time>
      </trkpt>
      <trkpt lat="46.88181" lon="8.52999">
        <ele>1716</ele>
        <time>2021-08-11T09:34:00.419Z</time>
      </trkpt>
      <trkpt lat="46.88181" lon="8.52998">
        <ele>1716</ele>
        <time>2021-08-11T09:34:01.419Z</time>
      </trkpt>
      <trkpt lat="46.8818" lon="8.52996">
        <ele>1716</ele>
        <time>2021-08-11T09:34:02.419Z</time>
      </trkpt>
      <trkpt lat="46.88179" lon="8.52995">
        <ele>1715</ele>
        <time>2021-08-11T09:34:03.419Z</time>
      </trkpt>
      <trkpt lat="46.88178" lon="8.52994">
        <ele>1714</ele>
        <time>2021-08-11T09:34:04.418Z</time>
      </trkpt>
      <trkpt lat="46.88177" lon="8.52993">
        <ele>1714</ele>
        <time>2021-08-11T09:34:05.419Z</time>
      </trkpt>
      <trkpt lat="46.88176" lon="8.52992">
        <ele>1713</ele>
        <time>2021-08-11T09:34:06.419Z</time>
      </trkpt>
      <trkpt lat="46.88176" lon="8.52991">
        <ele>1713</ele>
        <time>2021-08-11T09:34:07.418Z</time>
      </trkpt>
      <trkpt lat="46.88175" lon="8.5299">
        <ele>1713</ele>
        <time>2021-08-11T09:34:08.418Z</time>
      </trkpt>
      <trkpt lat="46.88174" lon="8.52989">
        <ele>1713</ele>
        <time>2021-08-11T09:34:09.419Z</time>
      </trkpt>
      <trkpt lat="46.88173" lon="8.52989">
        <ele>1713</ele>
        <time>2021-08-11T09:34:10.419Z</time>
      </trkpt>
      <trkpt lat="46.88172" lon="8.52988">
        <ele>1713</ele>
        <time>2021-08-11T09:34:11.418Z</time>
      </trkpt>
      <trkpt lat="46.88171" lon="8.52987">
        <ele>1713</ele>
        <time>2021-08-11T09:34:12.419Z</time>
      </trkpt>
      <trkpt lat="46.8817" lon="8.52986">
        <ele>1713</ele>
        <time>2021-08-11T09:34:13.418Z</time>
      </trkpt>
      <trkpt lat="46.8817" lon="8.52985">
        <ele>1713</ele>
        <time>2021-08-11T09:34:14.419Z</time>
      </trkpt>
      <trkpt lat="46.88169" lon="8.52984">
        <ele>1713</ele>
        <time>2021-08-11T09:34:15.419Z</time>
      </trkpt>
      <trkpt lat="46.88168" lon="8.52983">
        <ele>1713</ele>
        <time>2021-08-11T09:34:16.418Z</time>
      </trkpt>
      <trkpt lat="46.88167" lon="8.52982">
        <ele>1713</ele>
        <time>2021-08-11T09:34:17.419Z</time>
      </trkpt>
      <trkpt lat="46.88166" lon="8.52982">
        <ele>1713</ele>
        <time>2021-08-11T09:34:18.419Z</time>
      </trkpt>
      <trkpt lat="46.88165" lon="8.5298">
        <ele>1713</ele>
        <time>2021-08-11T09:34:19.419Z</time>
      </trkpt>
      <trkpt lat="46.88165" lon="8.52979">
        <ele>1713</ele>
        <time>2021-08-11T09:34:20.418Z</time>
      </trkpt>
      <trkpt lat="46.88164" lon="8.52978">
        <ele>1713</ele>
        <time>2021-08-11T09:34:21.419Z</time>
      </trkpt>
      <trkpt lat="46.88163" lon="8.52977">
        <ele>1712</ele>
        <time>2021-08-11T09:34:22.419Z</time>
      </trkpt>
      <trkpt lat="46.88162" lon="8.52977">
        <ele>1712</ele>
        <time>2021-08-11T09:34:23.418Z</time>
      </trkpt>
      <trkpt lat="46.88161" lon="8.52976">
        <ele>1712</ele>
        <time>2021-08-11T09:34:24.419Z</time>
      </trkpt>
      <trkpt lat="46.8816" lon="8.52975">
        <ele>1712</ele>
        <time>2021-08-11T09:34:25.419Z</time>
      </trkpt>
      <trkpt lat="46.88159" lon="8.52973">
        <ele>1713</ele>
        <time>2021-08-11T09:34:26.418Z</time>
      </trkpt>
      <trkpt lat="46.88158" lon="8.52972">
        <ele>1713</ele>
        <time>2021-08-11T09:34:27.419Z</time>
      </trkpt>
      <trkpt lat="46.88157" lon="8.52971">
        <ele>1713</ele>
        <time>2021-08-11T09:34:28.419Z</time>
      </trkpt>
      <trkpt lat="46.88156" lon="8.5297">
        <ele>1714</ele>
        <time>2021-08-11T09:34:29.419Z</time>
      </trkpt>
      <trkpt lat="46.88155" lon="8.52969">
        <ele>1714</ele>
        <time>2021-08-11T09:34:30.418Z</time>
      </trkpt>
      <trkpt lat="46.88154" lon="8.52968">
        <ele>1714</ele>
        <time>2021-08-11T09:34:31.418Z</time>
      </trkpt>
      <trkpt lat="46.88153" lon="8.52967">
        <ele>1714</ele>
        <time>2021-08-11T09:34:32.418Z</time>
      </trkpt>
      <trkpt lat="46.88152" lon="8.52966">
        <ele>1714</ele>
        <time>2021-08-11T09:34:33.418Z</time>
      </trkpt>
      <trkpt lat="46.88151" lon="8.52965">
        <ele>1714</ele>
        <time>2021-08-11T09:34:34.419Z</time>
      </trkpt>
      <trkpt lat="46.88151" lon="8.52963">
        <ele>1714</ele>
        <time>2021-08-11T09:34:35.419Z</time>
      </trkpt>
      <trkpt lat="46.8815" lon="8.52962">
        <ele>1714</ele>
        <time>2021-08-11T09:34:36.419Z</time>
      </trkpt>
      <trkpt lat="46.88149" lon="8.5296">
        <ele>1714</ele>
        <time>2021-08-11T09:34:37.419Z</time>
      </trkpt>
      <trkpt lat="46.88149" lon="8.52959">
        <ele>1714</ele>
        <time>2021-08-11T09:34:38.418Z</time>
      </trkpt>
      <trkpt lat="46.88149" lon="8.52957">
        <ele>1714</ele>
        <time>2021-08-11T09:34:39.419Z</time>
      </trkpt>
      <trkpt lat="46.88148" lon="8.52955">
        <ele>1715</ele>
        <time>2021-08-11T09:34:40.419Z</time>
      </trkpt>
      <trkpt lat="46.88147" lon="8.52953">
        <ele>1714</ele>
        <time>2021-08-11T09:34:41.419Z</time>
      </trkpt>
      <trkpt lat="46.88147" lon="8.52952">
        <ele>1714</ele>
        <time>2021-08-11T09:34:42.419Z</time>
      </trkpt>
      <trkpt lat="46.88146" lon="8.52951">
        <ele>1714</ele>
        <time>2021-08-11T09:34:43.419Z</time>
      </trkpt>
      <trkpt lat="46.88146" lon="8.5295">
        <ele>1713</ele>
        <time>2021-08-11T09:34:44.419Z</time>
      </trkpt>
      <trkpt lat="46.88145" lon="8.52949">
        <ele>1713</ele>
        <time>2021-08-11T09:34:45.419Z</time>
      </trkpt>
      <trkpt lat="46.88145" lon="8.52947">
        <ele>1713</ele>
        <time>2021-08-11T09:34:46.419Z</time>
      </trkpt>
      <trkpt lat="46.88144" lon="8.52946">
        <ele>1713</ele>
        <time>2021-08-11T09:34:47.418Z</time>
      </trkpt>
      <trkpt lat="46.88143" lon="8.52945">
        <ele>1713</ele>
        <time>2021-08-11T09:34:48.419Z</time>
      </trkpt>
      <trkpt lat="46.88143" lon="8.52944">
        <ele>1714</ele>
        <time>2021-08-11T09:34:49.418Z</time>
      </trkpt>
      <trkpt lat="46.88142" lon="8.52943">
        <ele>1714</ele>
        <time>2021-08-11T09:34:50.419Z</time>
      </trkpt>
      <trkpt lat="46.88141" lon="8.52942">
        <ele>1714</ele>
        <time>2021-08-11T09:34:51.418Z</time>
      </trkpt>
      <trkpt lat="46.8814" lon="8.52941">
        <ele>1714</ele>
        <time>2021-08-11T09:34:52.419Z</time>
      </trkpt>
      <trkpt lat="46.8814" lon="8.5294">
        <ele>1714</ele>
        <time>2021-08-11T09:34:53.419Z</time>
      </trkpt>
      <trkpt lat="46.88139" lon="8.52939">
        <ele>1715</ele>
        <time>2021-08-11T09:34:54.419Z</time>
      </trkpt>
      <trkpt lat="46.88139" lon="8.52938">
        <ele>1715</ele>
        <time>2021-08-11T09:34:55.419Z</time>
      </trkpt>
      <trkpt lat="46.88139" lon="8.52937">
        <ele>1715</ele>
        <time>2021-08-11T09:34:56.418Z</time>
      </trkpt>
      <trkpt lat="46.88138" lon="8.52936">
        <ele>1715</ele>
        <time>2021-08-11T09:34:57.419Z</time>
      </trkpt>
      <trkpt lat="46.88137" lon="8.52935">
        <ele>1715</ele>
        <time>2021-08-11T09:34:58.419Z</time>
      </trkpt>
      <trkpt lat="46.88136" lon="8.52933">
        <ele>1715</ele>
        <time>2021-08-11T09:34:59.419Z</time>
      </trkpt>
      <trkpt lat="46.88135" lon="8.52932">
        <ele>1715</ele>
        <time>2021-08-11T09:35:00.419Z</time>
      </trkpt>
      <trkpt lat="46.88135" lon="8.5293">
        <ele>1715</ele>
        <time>2021-08-11T09:35:01.419Z</time>
      </trkpt>
      <trkpt lat="46.88134" lon="8.5293">
        <ele>1716</ele>
        <time>2021-08-11T09:35:02.418Z</time>
      </trkpt>
      <trkpt lat="46.88133" lon="8.52929">
        <ele>1716</ele>
        <time>2021-08-11T09:35:03.419Z</time>
      </trkpt>
      <trkpt lat="46.88132" lon="8.52929">
        <ele>1716</ele>
        <time>2021-08-11T09:35:04.419Z</time>
      </trkpt>
      <trkpt lat="46.88131" lon="8.52928">
        <ele>1716</ele>
        <time>2021-08-11T09:35:05.419Z</time>
      </trkpt>
      <trkpt lat="46.8813" lon="8.52928">
        <ele>1716</ele>
        <time>2021-08-11T09:35:06.418Z</time>
      </trkpt>
      <trkpt lat="46.88129" lon="8.52928">
        <ele>1716</ele>
        <time>2021-08-11T09:35:07.418Z</time>
      </trkpt>
      <trkpt lat="46.88128" lon="8.52928">
        <ele>1715</ele>
        <time>2021-08-11T09:35:08.419Z</time>
      </trkpt>
      <trkpt lat="46.88127" lon="8.52927">
        <ele>1715</ele>
        <time>2021-08-11T09:35:09.418Z</time>
      </trkpt>
      <trkpt lat="46.88125" lon="8.52926">
        <ele>1715</ele>
        <time>2021-08-11T09:35:10.419Z</time>
      </trkpt>
      <trkpt lat="46.88125" lon="8.52925">
        <ele>1715</ele>
        <time>2021-08-11T09:35:11.419Z</time>
      </trkpt>
      <trkpt lat="46.88124" lon="8.52925">
        <ele>1715</ele>
        <time>2021-08-11T09:35:12.419Z</time>
      </trkpt>
      <trkpt lat="46.88122" lon="8.52925">
        <ele>1715</ele>
        <time>2021-08-11T09:35:13.419Z</time>
      </trkpt>
      <trkpt lat="46.88121" lon="8.52924">
        <ele>1715</ele>
        <time>2021-08-11T09:35:14.418Z</time>
      </trkpt>
      <trkpt lat="46.8812" lon="8.52923">
        <ele>1715</ele>
        <time>2021-08-11T09:35:15.419Z</time>
      </trkpt>
      <trkpt lat="46.88119" lon="8.52923">
        <ele>1716</ele>
        <time>2021-08-11T09:35:16.419Z</time>
      </trkpt>
      <trkpt lat="46.88117" lon="8.52922">
        <ele>1716</ele>
        <time>2021-08-11T09:35:17.418Z</time>
      </trkpt>
      <trkpt lat="46.88116" lon="8.52921">
        <ele>1716</ele>
        <time>2021-08-11T09:35:18.419Z</time>
      </trkpt>
      <trkpt lat="46.88115" lon="8.5292">
        <ele>1716</ele>
        <time>2021-08-11T09:35:19.418Z</time>
      </trkpt>
      <trkpt lat="46.88115" lon="8.52919">
        <ele>1717</ele>
        <time>2021-08-11T09:35:20.419Z</time>
      </trkpt>
      <trkpt lat="46.88114" lon="8.52918">
        <ele>1717</ele>
        <time>2021-08-11T09:35:21.419Z</time>
      </trkpt>
      <trkpt lat="46.88112" lon="8.52917">
        <ele>1717</ele>
        <time>2021-08-11T09:35:22.419Z</time>
      </trkpt>
      <trkpt lat="46.88111" lon="8.52917">
        <ele>1718</ele>
        <time>2021-08-11T09:35:23.418Z</time>
      </trkpt>
      <trkpt lat="46.8811" lon="8.52916">
        <ele>1718</ele>
        <time>2021-08-11T09:35:24.418Z</time>
      </trkpt>
      <trkpt lat="46.88109" lon="8.52915">
        <ele>1718</ele>
        <time>2021-08-11T09:35:25.419Z</time>
      </trkpt>
      <trkpt lat="46.88108" lon="8.52915">
        <ele>1717</ele>
        <time>2021-08-11T09:35:26.419Z</time>
      </trkpt>
      <trkpt lat="46.88106" lon="8.52915">
        <ele>1717</ele>
        <time>2021-08-11T09:35:27.419Z</time>
      </trkpt>
      <trkpt lat="46.88106" lon="8.52914">
        <ele>1716</ele>
        <time>2021-08-11T09:35:28.419Z</time>
      </trkpt>
      <trkpt lat="46.88105" lon="8.52914">
        <ele>1715</ele>
        <time>2021-08-11T09:35:29.419Z</time>
      </trkpt>
      <trkpt lat="46.88105" lon="8.52913">
        <ele>1714</ele>
        <time>2021-08-11T09:35:30.419Z</time>
      </trkpt>
      <trkpt lat="46.88105" lon="8.52911">
        <ele>1713</ele>
        <time>2021-08-11T09:35:31.419Z</time>
      </trkpt>
      <trkpt lat="46.88104" lon="8.5291">
        <ele>1713</ele>
        <time>2021-08-11T09:35:32.419Z</time>
      </trkpt>
      <trkpt lat="46.88105" lon="8.52909">
        <ele>1713</ele>
        <time>2021-08-11T09:35:33.418Z</time>
      </trkpt>
      <trkpt lat="46.88104" lon="8.52907">
        <ele>1712</ele>
        <time>2021-08-11T09:35:34.419Z</time>
      </trkpt>
      <trkpt lat="46.88103" lon="8.52906">
        <ele>1712</ele>
        <time>2021-08-11T09:35:35.418Z</time>
      </trkpt>
      <trkpt lat="46.88103" lon="8.52906">
        <ele>1712</ele>
        <time>2021-08-11T09:35:36.419Z</time>
      </trkpt>
      <trkpt lat="46.88102" lon="8.52906">
        <ele>1712</ele>
        <time>2021-08-11T09:35:37.419Z</time>
      </trkpt>
      <trkpt lat="46.88101" lon="8.52905">
        <ele>1711</ele>
        <time>2021-08-11T09:35:38.419Z</time>
      </trkpt>
      <trkpt lat="46.881" lon="8.52904">
        <ele>1711</ele>
        <time>2021-08-11T09:35:39.418Z</time>
      </trkpt>
      <trkpt lat="46.88099" lon="8.52903">
        <ele>1712</ele>
        <time>2021-08-11T09:35:40.419Z</time>
      </trkpt>
      <trkpt lat="46.88098" lon="8.52902">
        <ele>1712</ele>
        <time>2021-08-11T09:35:41.419Z</time>
      </trkpt>
      <trkpt lat="46.88097" lon="8.52901">
        <ele>1712</ele>
        <time>2021-08-11T09:35:42.419Z</time>
      </trkpt>
      <trkpt lat="46.88096" lon="8.529">
        <ele>1712</ele>
        <time>2021-08-11T09:35:43.419Z</time>
      </trkpt>
      <trkpt lat="46.88095" lon="8.52899">
        <ele>1713</ele>
        <time>2021-08-11T09:35:44.418Z</time>
      </trkpt>
      <trkpt lat="46.88094" lon="8.52899">
        <ele>1713</ele>
        <time>2021-08-11T09:35:45.419Z</time>
      </trkpt>
      <trkpt lat="46.88093" lon="8.52898">
        <ele>1714</ele>
        <time>2021-08-11T09:35:46.419Z</time>
      </trkpt>
      <trkpt lat="46.88092" lon="8.52897">
        <ele>1714</ele>
        <time>2021-08-11T09:35:47.419Z</time>
      </trkpt>
      <trkpt lat="46.88091" lon="8.52896">
        <ele>1715</ele>
        <time>2021-08-11T09:35:48.419Z</time>
      </trkpt>
      <trkpt lat="46.8809" lon="8.52896">
        <ele>1715</ele>
        <time>2021-08-11T09:35:49.419Z</time>
      </trkpt>
      <trkpt lat="46.88089" lon="8.52895">
        <ele>1716</ele>
        <time>2021-08-11T09:35:50.419Z</time>
      </trkpt>
      <trkpt lat="46.88088" lon="8.52894">
        <ele>1716</ele>
        <time>2021-08-11T09:35:51.419Z</time>
      </trkpt>
      <trkpt lat="46.88087" lon="8.52894">
        <ele>1717</ele>
        <time>2021-08-11T09:35:52.419Z</time>
      </trkpt>
      <trkpt lat="46.88086" lon="8.52893">
        <ele>1717</ele>
        <time>2021-08-11T09:35:53.419Z</time>
      </trkpt>
      <trkpt lat="46.88085" lon="8.52892">
        <ele>1717</ele>
        <time>2021-08-11T09:35:54.418Z</time>
      </trkpt>
      <trkpt lat="46.88085" lon="8.52892">
        <ele>1717</ele>
        <time>2021-08-11T09:35:55.418Z</time>
      </trkpt>
      <trkpt lat="46.88084" lon="8.52891">
        <ele>1717</ele>
        <time>2021-08-11T09:35:56.419Z</time>
      </trkpt>
      <trkpt lat="46.88083" lon="8.52891">
        <ele>1716</ele>
        <time>2021-08-11T09:35:57.419Z</time>
      </trkpt>
      <trkpt lat="46.88082" lon="8.5289">
        <ele>1716</ele>
        <time>2021-08-11T09:35:58.419Z</time>
      </trkpt>
      <trkpt lat="46.88082" lon="8.52889">
        <ele>1715</ele>
        <time>2021-08-11T09:35:59.418Z</time>
      </trkpt>
      <trkpt lat="46.88081" lon="8.52889">
        <ele>1715</ele>
        <time>2021-08-11T09:36:00.419Z</time>
      </trkpt>
      <trkpt lat="46.8808" lon="8.52888">
        <ele>1714</ele>
        <time>2021-08-11T09:36:01.419Z</time>
      </trkpt>
      <trkpt lat="46.8808" lon="8.52887">
        <ele>1714</ele>
        <time>2021-08-11T09:36:02.419Z</time>
      </trkpt>
      <trkpt lat="46.88079" lon="8.52887">
        <ele>1713</ele>
        <time>2021-08-11T09:36:03.419Z</time>
      </trkpt>
      <trkpt lat="46.88079" lon="8.52887">
        <ele>1713</ele>
        <time>2021-08-11T09:36:04.419Z</time>
      </trkpt>
      <trkpt lat="46.88078" lon="8.52887">
        <ele>1712</ele>
        <time>2021-08-11T09:36:05.419Z</time>
      </trkpt>
      <trkpt lat="46.88078" lon="8.52887">
        <ele>1712</ele>
        <time>2021-08-11T09:36:06.419Z</time>
      </trkpt>
      <trkpt lat="46.88078" lon="8.52886">
        <ele>1712</ele>
        <time>2021-08-11T09:36:07.418Z</time>
      </trkpt>
      <trkpt lat="46.88078" lon="8.52886">
        <ele>1711</ele>
        <time>2021-08-11T09:36:08.419Z</time>
      </trkpt>
      <trkpt lat="46.88078" lon="8.52886">
        <ele>1711</ele>
        <time>2021-08-11T09:36:09.419Z</time>
      </trkpt>
      <trkpt lat="46.88078" lon="8.52885">
        <ele>1711</ele>
        <time>2021-08-11T09:36:10.421Z</time>
      </trkpt>
      <trkpt lat="46.88078" lon="8.52884">
        <ele>1710</ele>
        <time>2021-08-11T09:36:11.420Z</time>
      </trkpt>
      <trkpt lat="46.88078" lon="8.52884">
        <ele>1710</ele>
        <time>2021-08-11T09:36:12.420Z</time>
      </trkpt>
      <trkpt lat="46.88077" lon="8.52883">
        <ele>1709</ele>
        <time>2021-08-11T09:36:13.420Z</time>
      </trkpt>
      <trkpt lat="46.88077" lon="8.52883">
        <ele>1709</ele>
        <time>2021-08-11T09:36:14.421Z</time>
      </trkpt>
      <trkpt lat="46.88076" lon="8.52882">
        <ele>1708</ele>
        <time>2021-08-11T09:36:15.421Z</time>
      </trkpt>
      <trkpt lat="46.88076" lon="8.52881">
        <ele>1708</ele>
        <time>2021-08-11T09:36:16.420Z</time>
      </trkpt>
      <trkpt lat="46.88075" lon="8.52881">
        <ele>1709</ele>
        <time>2021-08-11T09:36:17.420Z</time>
      </trkpt>
      <trkpt lat="46.88075" lon="8.5288">
        <ele>1709</ele>
        <time>2021-08-11T09:36:18.420Z</time>
      </trkpt>
      <trkpt lat="46.88075" lon="8.52878">
        <ele>1709</ele>
        <time>2021-08-11T09:36:19.421Z</time>
      </trkpt>
      <trkpt lat="46.88074" lon="8.52877">
        <ele>1709</ele>
        <time>2021-08-11T09:36:20.420Z</time>
      </trkpt>
      <trkpt lat="46.88075" lon="8.52877">
        <ele>1709</ele>
        <time>2021-08-11T09:36:21.420Z</time>
      </trkpt>
      <trkpt lat="46.88074" lon="8.52878">
        <ele>1709</ele>
        <time>2021-08-11T09:36:22.420Z</time>
      </trkpt>
      <trkpt lat="46.88073" lon="8.52878">
        <ele>1709</ele>
        <time>2021-08-11T09:36:23.421Z</time>
      </trkpt>
      <trkpt lat="46.88073" lon="8.52879">
        <ele>1708</ele>
        <time>2021-08-11T09:36:24.420Z</time>
      </trkpt>
      <trkpt lat="46.88073" lon="8.52879">
        <ele>1708</ele>
        <time>2021-08-11T09:36:25.420Z</time>
      </trkpt>
      <trkpt lat="46.88073" lon="8.52878">
        <ele>1707</ele>
        <time>2021-08-11T09:36:26.421Z</time>
      </trkpt>
      <trkpt lat="46.88072" lon="8.52877">
        <ele>1706</ele>
        <time>2021-08-11T09:36:27.421Z</time>
      </trkpt>
      <trkpt lat="46.88072" lon="8.52875">
        <ele>1706</ele>
        <time>2021-08-11T09:36:28.420Z</time>
      </trkpt>
      <trkpt lat="46.88069" lon="8.52874">
        <ele>1705</ele>
        <time>2021-08-11T09:36:29.420Z</time>
      </trkpt>
      <trkpt lat="46.88069" lon="8.52873">
        <ele>1704</ele>
        <time>2021-08-11T09:36:30.420Z</time>
      </trkpt>
      <trkpt lat="46.88068" lon="8.52872">
        <ele>1704</ele>
        <time>2021-08-11T09:36:31.421Z</time>
      </trkpt>
      <trkpt lat="46.88068" lon="8.52871">
        <ele>1704</ele>
        <time>2021-08-11T09:36:32.420Z</time>
      </trkpt>
      <trkpt lat="46.88067" lon="8.5287">
        <ele>1703</ele>
        <time>2021-08-11T09:36:33.420Z</time>
      </trkpt>
      <trkpt lat="46.88067" lon="8.52869">
        <ele>1703</ele>
        <time>2021-08-11T09:36:34.421Z</time>
      </trkpt>
      <trkpt lat="46.88066" lon="8.52868">
        <ele>1703</ele>
        <time>2021-08-11T09:36:35.420Z</time>
      </trkpt>
      <trkpt lat="46.88065" lon="8.52868">
        <ele>1703</ele>
        <time>2021-08-11T09:36:36.420Z</time>
      </trkpt>
      <trkpt lat="46.88064" lon="8.52867">
        <ele>1703</ele>
        <time>2021-08-11T09:36:37.421Z</time>
      </trkpt>
      <trkpt lat="46.88063" lon="8.52867">
        <ele>1703</ele>
        <time>2021-08-11T09:36:38.421Z</time>
      </trkpt>
      <trkpt lat="46.88063" lon="8.52867">
        <ele>1703</ele>
        <time>2021-08-11T09:36:39.420Z</time>
      </trkpt>
      <trkpt lat="46.88061" lon="8.52866">
        <ele>1703</ele>
        <time>2021-08-11T09:36:40.420Z</time>
      </trkpt>
      <trkpt lat="46.88061" lon="8.52865">
        <ele>1703</ele>
        <time>2021-08-11T09:36:41.420Z</time>
      </trkpt>
      <trkpt lat="46.8806" lon="8.52863">
        <ele>1703</ele>
        <time>2021-08-11T09:36:42.421Z</time>
      </trkpt>
      <trkpt lat="46.88059" lon="8.52862">
        <ele>1702</ele>
        <time>2021-08-11T09:36:43.420Z</time>
      </trkpt>
      <trkpt lat="46.88058" lon="8.52862">
        <ele>1702</ele>
        <time>2021-08-11T09:36:44.420Z</time>
      </trkpt>
      <trkpt lat="46.88057" lon="8.52861">
        <ele>1702</ele>
        <time>2021-08-11T09:36:45.420Z</time>
      </trkpt>
      <trkpt lat="46.88057" lon="8.5286">
        <ele>1702</ele>
        <time>2021-08-11T09:36:46.420Z</time>
      </trkpt>
      <trkpt lat="46.88056" lon="8.52859">
        <ele>1702</ele>
        <time>2021-08-11T09:36:47.420Z</time>
      </trkpt>
      <trkpt lat="46.88055" lon="8.52858">
        <ele>1702</ele>
        <time>2021-08-11T09:36:48.420Z</time>
      </trkpt>
      <trkpt lat="46.88054" lon="8.52857">
        <ele>1702</ele>
        <time>2021-08-11T09:36:49.420Z</time>
      </trkpt>
      <trkpt lat="46.88054" lon="8.52856">
        <ele>1703</ele>
        <time>2021-08-11T09:36:50.420Z</time>
      </trkpt>
      <trkpt lat="46.88053" lon="8.52855">
        <ele>1703</ele>
        <time>2021-08-11T09:36:51.420Z</time>
      </trkpt>
      <trkpt lat="46.88052" lon="8.52854">
        <ele>1703</ele>
        <time>2021-08-11T09:36:52.421Z</time>
      </trkpt>
      <trkpt lat="46.88052" lon="8.52853">
        <ele>1703</ele>
        <time>2021-08-11T09:36:53.420Z</time>
      </trkpt>
      <trkpt lat="46.88051" lon="8.52852">
        <ele>1704</ele>
        <time>2021-08-11T09:36:54.420Z</time>
      </trkpt>
      <trkpt lat="46.8805" lon="8.52851">
        <ele>1704</ele>
        <time>2021-08-11T09:36:55.420Z</time>
      </trkpt>
      <trkpt lat="46.88049" lon="8.52849">
        <ele>1704</ele>
        <time>2021-08-11T09:36:56.421Z</time>
      </trkpt>
      <trkpt lat="46.88048" lon="8.52848">
        <ele>1704</ele>
        <time>2021-08-11T09:36:57.420Z</time>
      </trkpt>
      <trkpt lat="46.88047" lon="8.52847">
        <ele>1704</ele>
        <time>2021-08-11T09:36:58.421Z</time>
      </trkpt>
      <trkpt lat="46.88047" lon="8.52845">
        <ele>1704</ele>
        <time>2021-08-11T09:36:59.420Z</time>
      </trkpt>
      <trkpt lat="46.88046" lon="8.52844">
        <ele>1705</ele>
        <time>2021-08-11T09:37:00.420Z</time>
      </trkpt>
      <trkpt lat="46.88046" lon="8.52843">
        <ele>1705</ele>
        <time>2021-08-11T09:37:01.420Z</time>
      </trkpt>
      <trkpt lat="46.88045" lon="8.52841">
        <ele>1704</ele>
        <time>2021-08-11T09:37:02.420Z</time>
      </trkpt>
      <trkpt lat="46.88044" lon="8.52841">
        <ele>1704</ele>
        <time>2021-08-11T09:37:03.421Z</time>
      </trkpt>
      <trkpt lat="46.88043" lon="8.52839">
        <ele>1704</ele>
        <time>2021-08-11T09:37:04.420Z</time>
      </trkpt>
      <trkpt lat="46.88043" lon="8.52838">
        <ele>1703</ele>
        <time>2021-08-11T09:37:05.421Z</time>
      </trkpt>
      <trkpt lat="46.88041" lon="8.52837">
        <ele>1703</ele>
        <time>2021-08-11T09:37:06.420Z</time>
      </trkpt>
      <trkpt lat="46.88041" lon="8.52837">
        <ele>1703</ele>
        <time>2021-08-11T09:37:07.421Z</time>
      </trkpt>
      <trkpt lat="46.88039" lon="8.52835">
        <ele>1704</ele>
        <time>2021-08-11T09:37:08.421Z</time>
      </trkpt>
      <trkpt lat="46.88038" lon="8.52834">
        <ele>1704</ele>
        <time>2021-08-11T09:37:09.420Z</time>
      </trkpt>
      <trkpt lat="46.88037" lon="8.52833">
        <ele>1704</ele>
        <time>2021-08-11T09:37:10.421Z</time>
      </trkpt>
      <trkpt lat="46.88037" lon="8.52832">
        <ele>1704</ele>
        <time>2021-08-11T09:37:11.421Z</time>
      </trkpt>
      <trkpt lat="46.88036" lon="8.52831">
        <ele>1704</ele>
        <time>2021-08-11T09:37:12.421Z</time>
      </trkpt>
      <trkpt lat="46.88035" lon="8.52831">
        <ele>1704</ele>
        <time>2021-08-11T09:37:13.420Z</time>
      </trkpt>
      <trkpt lat="46.88034" lon="8.52831">
        <ele>1704</ele>
        <time>2021-08-11T09:37:14.421Z</time>
      </trkpt>
      <trkpt lat="46.88034" lon="8.5283">
        <ele>1704</ele>
        <time>2021-08-11T09:37:15.421Z</time>
      </trkpt>
      <trkpt lat="46.88033" lon="8.52829">
        <ele>1705</ele>
        <time>2021-08-11T09:37:16.421Z</time>
      </trkpt>
      <trkpt lat="46.88033" lon="8.52829">
        <ele>1705</ele>
        <time>2021-08-11T09:37:17.421Z</time>
      </trkpt>
      <trkpt lat="46.88032" lon="8.52829">
        <ele>1705</ele>
        <time>2021-08-11T09:37:18.421Z</time>
      </trkpt>
      <trkpt lat="46.88031" lon="8.52829">
        <ele>1705</ele>
        <time>2021-08-11T09:37:19.421Z</time>
      </trkpt>
      <trkpt lat="46.88031" lon="8.52829">
        <ele>1705</ele>
        <time>2021-08-11T09:37:20.421Z</time>
      </trkpt>
      <trkpt lat="46.8803" lon="8.52829">
        <ele>1705</ele>
        <time>2021-08-11T09:37:21.421Z</time>
      </trkpt>
      <trkpt lat="46.8803" lon="8.52829">
        <ele>1705</ele>
        <time>2021-08-11T09:37:22.420Z</time>
      </trkpt>
      <trkpt lat="46.88029" lon="8.52828">
        <ele>1705</ele>
        <time>2021-08-11T09:37:23.421Z</time>
      </trkpt>
      <trkpt lat="46.88029" lon="8.52828">
        <ele>1705</ele>
        <time>2021-08-11T09:37:24.421Z</time>
      </trkpt>
      <trkpt lat="46.88028" lon="8.52828">
        <ele>1705</ele>
        <time>2021-08-11T09:37:25.421Z</time>
      </trkpt>
      <trkpt lat="46.88028" lon="8.52828">
        <ele>1705</ele>
        <time>2021-08-11T09:37:26.420Z</time>
      </trkpt>
      <trkpt lat="46.88027" lon="8.52828">
        <ele>1705</ele>
        <time>2021-08-11T09:37:27.420Z</time>
      </trkpt>
      <trkpt lat="46.88026" lon="8.52828">
        <ele>1705</ele>
        <time>2021-08-11T09:37:28.421Z</time>
      </trkpt>
      <trkpt lat="46.88026" lon="8.52828">
        <ele>1705</ele>
        <time>2021-08-11T09:37:29.421Z</time>
      </trkpt>
      <trkpt lat="46.88026" lon="8.52828">
        <ele>1705</ele>
        <time>2021-08-11T09:37:30.421Z</time>
      </trkpt>
      <trkpt lat="46.88027" lon="8.52828">
        <ele>1704</ele>
        <time>2021-08-11T09:37:31.420Z</time>
      </trkpt>
      <trkpt lat="46.88026" lon="8.52828">
        <ele>1704</ele>
        <time>2021-08-11T09:37:32.421Z</time>
      </trkpt>
      <trkpt lat="46.88026" lon="8.52829">
        <ele>1703</ele>
        <time>2021-08-11T09:37:33.421Z</time>
      </trkpt>
      <trkpt lat="46.88025" lon="8.52829">
        <ele>1702</ele>
        <time>2021-08-11T09:37:34.421Z</time>
      </trkpt>
      <trkpt lat="46.88025" lon="8.52829">
        <ele>1702</ele>
        <time>2021-08-11T09:37:35.421Z</time>
      </trkpt>
      <trkpt lat="46.88025" lon="8.52828">
        <ele>1701</ele>
        <time>2021-08-11T09:37:36.420Z</time>
      </trkpt>
      <trkpt lat="46.88024" lon="8.52828">
        <ele>1701</ele>
        <time>2021-08-11T09:37:37.421Z</time>
      </trkpt>
      <trkpt lat="46.88023" lon="8.52827">
        <ele>1700</ele>
        <time>2021-08-11T09:37:38.421Z</time>
      </trkpt>
      <trkpt lat="46.88021" lon="8.52826">
        <ele>1700</ele>
        <time>2021-08-11T09:37:39.421Z</time>
      </trkpt>
      <trkpt lat="46.8802" lon="8.52825">
        <ele>1700</ele>
        <time>2021-08-11T09:37:40.421Z</time>
      </trkpt>
      <trkpt lat="46.88019" lon="8.52824">
        <ele>1700</ele>
        <time>2021-08-11T09:37:41.420Z</time>
      </trkpt>
      <trkpt lat="46.88019" lon="8.52824">
        <ele>1700</ele>
        <time>2021-08-11T09:37:42.420Z</time>
      </trkpt>
      <trkpt lat="46.88018" lon="8.52824">
        <ele>1699</ele>
        <time>2021-08-11T09:37:43.421Z</time>
      </trkpt>
      <trkpt lat="46.88017" lon="8.52824">
        <ele>1699</ele>
        <time>2021-08-11T09:37:44.421Z</time>
      </trkpt>
      <trkpt lat="46.88017" lon="8.52823">
        <ele>1699</ele>
        <time>2021-08-11T09:37:45.420Z</time>
      </trkpt>
      <trkpt lat="46.88016" lon="8.52822">
        <ele>1700</ele>
        <time>2021-08-11T09:37:46.420Z</time>
      </trkpt>
      <trkpt lat="46.88016" lon="8.52822">
        <ele>1700</ele>
        <time>2021-08-11T09:37:47.420Z</time>
      </trkpt>
      <trkpt lat="46.88015" lon="8.52821">
        <ele>1700</ele>
        <time>2021-08-11T09:37:48.421Z</time>
      </trkpt>
      <trkpt lat="46.88015" lon="8.52821">
        <ele>1700</ele>
        <time>2021-08-11T09:37:49.421Z</time>
      </trkpt>
      <trkpt lat="46.88014" lon="8.52822">
        <ele>1700</ele>
        <time>2021-08-11T09:37:50.420Z</time>
      </trkpt>
      <trkpt lat="46.88014" lon="8.52822">
        <ele>1696</ele>
        <time>2021-08-11T09:37:51.422Z</time>
      </trkpt>
      <trkpt lat="46.88012" lon="8.52823">
        <ele>1700</ele>
        <time>2021-08-11T09:37:52.422Z</time>
      </trkpt>
      <trkpt lat="46.88012" lon="8.52823">
        <ele>1701</ele>
        <time>2021-08-11T09:37:53.423Z</time>
      </trkpt>
      <trkpt lat="46.88014" lon="8.52824">
        <ele>1700</ele>
        <time>2021-08-11T09:37:54.422Z</time>
      </trkpt>
      <trkpt lat="46.88014" lon="8.52825">
        <ele>1700</ele>
        <time>2021-08-11T09:37:55.423Z</time>
      </trkpt>
      <trkpt lat="46.88014" lon="8.52825">
        <ele>1700</ele>
        <time>2021-08-11T09:37:56.422Z</time>
      </trkpt>
      <trkpt lat="46.88015" lon="8.52823">
        <ele>1702</ele>
        <time>2021-08-11T09:37:57.422Z</time>
      </trkpt>
      <trkpt lat="46.88014" lon="8.52823">
        <ele>1702</ele>
        <time>2021-08-11T09:37:58.422Z</time>
      </trkpt>
      <trkpt lat="46.88014" lon="8.52823">
        <ele>1702</ele>
        <time>2021-08-11T09:37:59.422Z</time>
      </trkpt>
      <trkpt lat="46.88014" lon="8.52823">
        <ele>1703</ele>
        <time>2021-08-11T09:38:00.422Z</time>
      </trkpt>
      <trkpt lat="46.88012" lon="8.52821">
        <ele>1706</ele>
        <time>2021-08-11T09:38:01.424Z</time>
      </trkpt>
      <trkpt lat="46.88012" lon="8.52821">
        <ele>1706</ele>
        <time>2021-08-11T09:38:02.423Z</time>
      </trkpt>
      <trkpt lat="46.88011" lon="8.52821">
        <ele>1706</ele>
        <time>2021-08-11T09:38:03.425Z</time>
      </trkpt>
      <trkpt lat="46.88011" lon="8.5282">
        <ele>1706</ele>
        <time>2021-08-11T09:38:04.425Z</time>
      </trkpt>
      <trkpt lat="46.8801" lon="8.52819">
        <ele>1706</ele>
        <time>2021-08-11T09:38:05.424Z</time>
      </trkpt>
      <trkpt lat="46.8801" lon="8.52819">
        <ele>1706</ele>
        <time>2021-08-11T09:38:06.425Z</time>
      </trkpt>
      <trkpt lat="46.8801" lon="8.52818">
        <ele>1706</ele>
        <time>2021-08-11T09:38:07.425Z</time>
      </trkpt>
      <trkpt lat="46.8801" lon="8.52817">
        <ele>1706</ele>
        <time>2021-08-11T09:38:08.424Z</time>
      </trkpt>
      <trkpt lat="46.88011" lon="8.52816">
        <ele>1706</ele>
        <time>2021-08-11T09:38:09.425Z</time>
      </trkpt>
      <trkpt lat="46.88013" lon="8.52814">
        <ele>1706</ele>
        <time>2021-08-11T09:38:10.425Z</time>
      </trkpt>
      <trkpt lat="46.88014" lon="8.52813">
        <ele>1706</ele>
        <time>2021-08-11T09:38:11.424Z</time>
      </trkpt>
      <trkpt lat="46.88015" lon="8.52812">
        <ele>1706</ele>
        <time>2021-08-11T09:38:12.425Z</time>
      </trkpt>
      <trkpt lat="46.88015" lon="8.52811">
        <ele>1706</ele>
        <time>2021-08-11T09:38:13.425Z</time>
      </trkpt>
      <trkpt lat="46.88015" lon="8.52811">
        <ele>1706</ele>
        <time>2021-08-11T09:38:14.425Z</time>
      </trkpt>
      <trkpt lat="46.88015" lon="8.52809">
        <ele>1706</ele>
        <time>2021-08-11T09:38:15.425Z</time>
      </trkpt>
      <trkpt lat="46.88015" lon="8.52809">
        <ele>1706</ele>
        <time>2021-08-11T09:38:16.424Z</time>
      </trkpt>
      <trkpt lat="46.88014" lon="8.52807">
        <ele>1706</ele>
        <time>2021-08-11T09:38:17.425Z</time>
      </trkpt>
      <trkpt lat="46.88014" lon="8.52806">
        <ele>1706</ele>
        <time>2021-08-11T09:38:18.425Z</time>
      </trkpt>
      <trkpt lat="46.88013" lon="8.52806">
        <ele>1706</ele>
        <time>2021-08-11T09:38:19.424Z</time>
      </trkpt>
      <trkpt lat="46.88013" lon="8.52806">
        <ele>1705</ele>
        <time>2021-08-11T09:38:20.425Z</time>
      </trkpt>
      <trkpt lat="46.88012" lon="8.52806">
        <ele>1705</ele>
        <time>2021-08-11T09:38:21.424Z</time>
      </trkpt>
      <trkpt lat="46.88012" lon="8.52806">
        <ele>1704</ele>
        <time>2021-08-11T09:38:22.425Z</time>
      </trkpt>
      <trkpt lat="46.88011" lon="8.52807">
        <ele>1704</ele>
        <time>2021-08-11T09:38:23.425Z</time>
      </trkpt>
      <trkpt lat="46.8801" lon="8.52807">
        <ele>1703</ele>
        <time>2021-08-11T09:38:24.425Z</time>
      </trkpt>
      <trkpt lat="46.88009" lon="8.52806">
        <ele>1702</ele>
        <time>2021-08-11T09:38:25.425Z</time>
      </trkpt>
      <trkpt lat="46.88009" lon="8.52805">
        <ele>1702</ele>
        <time>2021-08-11T09:38:26.425Z</time>
      </trkpt>
      <trkpt lat="46.88009" lon="8.52805">
        <ele>1702</ele>
        <time>2021-08-11T09:38:27.425Z</time>
      </trkpt>
      <trkpt lat="46.88007" lon="8.52805">
        <ele>1698</ele>
        <time>2021-08-11T09:38:28.425Z</time>
      </trkpt>
      <trkpt lat="46.88007" lon="8.52805">
        <ele>1697</ele>
        <time>2021-08-11T09:38:29.425Z</time>
      </trkpt>
      <trkpt lat="46.88007" lon="8.52804">
        <ele>1697</ele>
        <time>2021-08-11T09:38:30.424Z</time>
      </trkpt>
      <trkpt lat="46.88006" lon="8.52804">
        <ele>1697</ele>
        <time>2021-08-11T09:38:31.424Z</time>
      </trkpt>
      <trkpt lat="46.88005" lon="8.52803">
        <ele>1697</ele>
        <time>2021-08-11T09:38:32.424Z</time>
      </trkpt>
      <trkpt lat="46.88005" lon="8.52803">
        <ele>1697</ele>
        <time>2021-08-11T09:38:33.425Z</time>
      </trkpt>
      <trkpt lat="46.88005" lon="8.52803">
        <ele>1697</ele>
        <time>2021-08-11T09:38:34.424Z</time>
      </trkpt>
      <trkpt lat="46.88005" lon="8.52804">
        <ele>1697</ele>
        <time>2021-08-11T09:38:35.425Z</time>
      </trkpt>
      <trkpt lat="46.88005" lon="8.52804">
        <ele>1697</ele>
        <time>2021-08-11T09:38:36.424Z</time>
      </trkpt>
      <trkpt lat="46.88005" lon="8.52805">
        <ele>1697</ele>
        <time>2021-08-11T09:38:37.424Z</time>
      </trkpt>
      <trkpt lat="46.88005" lon="8.52805">
        <ele>1697</ele>
        <time>2021-08-11T09:38:38.425Z</time>
      </trkpt>
      <trkpt lat="46.88005" lon="8.52805">
        <ele>1697</ele>
        <time>2021-08-11T09:38:39.424Z</time>
      </trkpt>
      <trkpt lat="46.88006" lon="8.52806">
        <ele>1697</ele>
        <time>2021-08-11T09:38:40.425Z</time>
      </trkpt>
      <trkpt lat="46.88006" lon="8.52806">
        <ele>1697</ele>
        <time>2021-08-11T09:38:41.424Z</time>
      </trkpt>
      <trkpt lat="46.88006" lon="8.52807">
        <ele>1696</ele>
        <time>2021-08-11T09:38:42.424Z</time>
      </trkpt>
      <trkpt lat="46.88005" lon="8.52806">
        <ele>1696</ele>
        <time>2021-08-11T09:38:43.426Z</time>
      </trkpt>
      <trkpt lat="46.88007" lon="8.52806">
        <ele>1696</ele>
        <time>2021-08-11T09:38:44.427Z</time>
      </trkpt>
      <trkpt lat="46.88007" lon="8.52806">
        <ele>1697</ele>
        <time>2021-08-11T09:38:45.427Z</time>
      </trkpt>
      <trkpt lat="46.88007" lon="8.52806">
        <ele>1697</ele>
        <time>2021-08-11T09:38:46.426Z</time>
      </trkpt>
      <trkpt lat="46.88007" lon="8.52805">
        <ele>1697</ele>
        <time>2021-08-11T09:38:47.427Z</time>
      </trkpt>
      <trkpt lat="46.88007" lon="8.52805">
        <ele>1698</ele>
        <time>2021-08-11T09:38:48.426Z</time>
      </trkpt>
      <trkpt lat="46.88007" lon="8.52805">
        <ele>1698</ele>
        <time>2021-08-11T09:38:49.427Z</time>
      </trkpt>
      <trkpt lat="46.88012" lon="8.52799">
        <ele>1709</ele>
        <time>2021-08-11T09:38:50.429Z</time>
      </trkpt>
      <trkpt lat="46.88012" lon="8.52798">
        <ele>1709</ele>
        <time>2021-08-11T09:38:51.429Z</time>
      </trkpt>
      <trkpt lat="46.88012" lon="8.52797">
        <ele>1709</ele>
        <time>2021-08-11T09:38:52.428Z</time>
      </trkpt>
      <trkpt lat="46.8801" lon="8.52797">
        <ele>1709</ele>
        <time>2021-08-11T09:38:53.428Z</time>
      </trkpt>
      <trkpt lat="46.88009" lon="8.52797">
        <ele>1709</ele>
        <time>2021-08-11T09:38:54.428Z</time>
      </trkpt>
      <trkpt lat="46.88009" lon="8.52797">
        <ele>1708</ele>
        <time>2021-08-11T09:38:55.428Z</time>
      </trkpt>
      <trkpt lat="46.88007" lon="8.52799">
        <ele>1707</ele>
        <time>2021-08-11T09:38:56.429Z</time>
      </trkpt>
      <trkpt lat="46.88007" lon="8.52799">
        <ele>1706</ele>
        <time>2021-08-11T09:38:57.429Z</time>
      </trkpt>
      <trkpt lat="46.88007" lon="8.528">
        <ele>1706</ele>
        <time>2021-08-11T09:38:58.428Z</time>
      </trkpt>
      <trkpt lat="46.88002" lon="8.52807">
        <ele>1699</ele>
        <time>2021-08-11T09:38:59.430Z</time>
      </trkpt>
      <trkpt lat="46.88002" lon="8.52807">
        <ele>1699</ele>
        <time>2021-08-11T09:39:00.430Z</time>
      </trkpt>
      <trkpt lat="46.88002" lon="8.52808">
        <ele>1699</ele>
        <time>2021-08-11T09:39:01.429Z</time>
      </trkpt>
      <trkpt lat="46.88002" lon="8.52808">
        <ele>1699</ele>
        <time>2021-08-11T09:39:02.429Z</time>
      </trkpt>
      <trkpt lat="46.88002" lon="8.52808">
        <ele>1700</ele>
        <time>2021-08-11T09:39:03.429Z</time>
      </trkpt>
      <trkpt lat="46.88001" lon="8.52808">
        <ele>1697</ele>
        <time>2021-08-11T09:39:04.430Z</time>
      </trkpt>
      <trkpt lat="46.88001" lon="8.52808">
        <ele>1697</ele>
        <time>2021-08-11T09:39:05.430Z</time>
      </trkpt>
      <trkpt lat="46.88" lon="8.52808">
        <ele>1696</ele>
        <time>2021-08-11T09:39:06.429Z</time>
      </trkpt>
      <trkpt lat="46.88002" lon="8.52809">
        <ele>1698</ele>
        <time>2021-08-11T09:39:07.431Z</time>
      </trkpt>
      <trkpt lat="46.88005" lon="8.52812">
        <ele>1697</ele>
        <time>2021-08-11T09:39:08.430Z</time>
      </trkpt>
      <trkpt lat="46.88005" lon="8.52811">
        <ele>1697</ele>
        <time>2021-08-11T09:39:09.430Z</time>
      </trkpt>
      <trkpt lat="46.88005" lon="8.52812">
        <ele>1697</ele>
        <time>2021-08-11T09:39:10.431Z</time>
      </trkpt>
      <trkpt lat="46.88004" lon="8.52809">
        <ele>1697</ele>
        <time>2021-08-11T09:39:11.431Z</time>
      </trkpt>
      <trkpt lat="46.88003" lon="8.52809">
        <ele>1697</ele>
        <time>2021-08-11T09:39:12.432Z</time>
      </trkpt>
      <trkpt lat="46.88003" lon="8.52808">
        <ele>1697</ele>
        <time>2021-08-11T09:39:13.431Z</time>
      </trkpt>
      <trkpt lat="46.88003" lon="8.52808">
        <ele>1698</ele>
        <time>2021-08-11T09:39:14.432Z</time>
      </trkpt>
      <trkpt lat="46.88003" lon="8.52806">
        <ele>1695</ele>
        <time>2021-08-11T09:39:15.433Z</time>
      </trkpt>
      <trkpt lat="46.88002" lon="8.52807">
        <ele>1695</ele>
        <time>2021-08-11T09:39:16.433Z</time>
      </trkpt>
      <trkpt lat="46.88001" lon="8.52808">
        <ele>1695</ele>
        <time>2021-08-11T09:39:17.432Z</time>
      </trkpt>
      <trkpt lat="46.88001" lon="8.52808">
        <ele>1696</ele>
        <time>2021-08-11T09:39:18.433Z</time>
      </trkpt>
      <trkpt lat="46.88001" lon="8.52809">
        <ele>1696</ele>
        <time>2021-08-11T09:39:19.432Z</time>
      </trkpt>
      <trkpt lat="46.88005" lon="8.52812">
        <ele>1696</ele>
        <time>2021-08-11T09:39:20.432Z</time>
      </trkpt>
      <trkpt lat="46.88004" lon="8.52812">
        <ele>1697</ele>
        <time>2021-08-11T09:39:21.432Z</time>
      </trkpt>
      <trkpt lat="46.88004" lon="8.52811">
        <ele>1697</ele>
        <time>2021-08-11T09:39:22.432Z</time>
      </trkpt>
      <trkpt lat="46.88" lon="8.52808">
        <ele>1701</ele>
        <time>2021-08-11T09:39:23.434Z</time>
      </trkpt>
      <trkpt lat="46.87999" lon="8.52808">
        <ele>1701</ele>
        <time>2021-08-11T09:39:24.434Z</time>
      </trkpt>
      <trkpt lat="46.87999" lon="8.52809">
        <ele>1701</ele>
        <time>2021-08-11T09:39:25.434Z</time>
      </trkpt>
      <trkpt lat="46.87999" lon="8.52809">
        <ele>1702</ele>
        <time>2021-08-11T09:39:26.433Z</time>
      </trkpt>
      <trkpt lat="46.87999" lon="8.52809">
        <ele>1702</ele>
        <time>2021-08-11T09:39:27.433Z</time>
      </trkpt>
      <trkpt lat="46.88" lon="8.5281">
        <ele>1703</ele>
        <time>2021-08-11T09:39:28.434Z</time>
      </trkpt>
      <trkpt lat="46.88001" lon="8.52811">
        <ele>1703</ele>
        <time>2021-08-11T09:39:29.434Z</time>
      </trkpt>
      <trkpt lat="46.88001" lon="8.52811">
        <ele>1703</ele>
        <time>2021-08-11T09:39:30.434Z</time>
      </trkpt>
      <trkpt lat="46.88002" lon="8.52811">
        <ele>1703</ele>
        <time>2021-08-11T09:39:31.433Z</time>
      </trkpt>
      <trkpt lat="46.88002" lon="8.52811">
        <ele>1703</ele>
        <time>2021-08-11T09:39:32.434Z</time>
      </trkpt>
      <trkpt lat="46.88001" lon="8.52811">
        <ele>1703</ele>
        <time>2021-08-11T09:39:33.434Z</time>
      </trkpt>
      <trkpt lat="46.88001" lon="8.5281">
        <ele>1704</ele>
        <time>2021-08-11T09:39:34.434Z</time>
      </trkpt>
      <trkpt lat="46.88002" lon="8.52809">
        <ele>1704</ele>
        <time>2021-08-11T09:39:35.434Z</time>
      </trkpt>
      <trkpt lat="46.88002" lon="8.52809">
        <ele>1704</ele>
        <time>2021-08-11T09:39:36.434Z</time>
      </trkpt>
      <trkpt lat="46.88002" lon="8.52809">
        <ele>1705</ele>
        <time>2021-08-11T09:39:37.435Z</time>
      </trkpt>
      <trkpt lat="46.88002" lon="8.52808">
        <ele>1705</ele>
        <time>2021-08-11T09:39:38.435Z</time>
      </trkpt>
      <trkpt lat="46.88001" lon="8.52807">
        <ele>1705</ele>
        <time>2021-08-11T09:39:39.435Z</time>
      </trkpt>
      <trkpt lat="46.88001" lon="8.52807">
        <ele>1705</ele>
        <time>2021-08-11T09:39:40.434Z</time>
      </trkpt>
      <trkpt lat="46.88" lon="8.52806">
        <ele>1705</ele>
        <time>2021-08-11T09:39:41.435Z</time>
      </trkpt>
      <trkpt lat="46.88" lon="8.52805">
        <ele>1705</ele>
        <time>2021-08-11T09:39:42.435Z</time>
      </trkpt>
      <trkpt lat="46.87999" lon="8.52804">
        <ele>1704</ele>
        <time>2021-08-11T09:39:43.435Z</time>
      </trkpt>
      <trkpt lat="46.87998" lon="8.52804">
        <ele>1705</ele>
        <time>2021-08-11T09:39:44.435Z</time>
      </trkpt>
      <trkpt lat="46.87998" lon="8.52803">
        <ele>1705</ele>
        <time>2021-08-11T09:39:45.434Z</time>
      </trkpt>
      <trkpt lat="46.87997" lon="8.52802">
        <ele>1705</ele>
        <time>2021-08-11T09:39:46.435Z</time>
      </trkpt>
      <trkpt lat="46.87997" lon="8.52803">
        <ele>1705</ele>
        <time>2021-08-11T09:39:47.436Z</time>
      </trkpt>
      <trkpt lat="46.87996" lon="8.52804">
        <ele>1704</ele>
        <time>2021-08-11T09:39:48.436Z</time>
      </trkpt>
      <trkpt lat="46.87996" lon="8.52804">
        <ele>1704</ele>
        <time>2021-08-11T09:39:49.435Z</time>
      </trkpt>
      <trkpt lat="46.87995" lon="8.52803">
        <ele>1704</ele>
        <time>2021-08-11T09:39:50.436Z</time>
      </trkpt>
      <trkpt lat="46.87995" lon="8.52803">
        <ele>1703</ele>
        <time>2021-08-11T09:39:51.436Z</time>
      </trkpt>
      <trkpt lat="46.87994" lon="8.52803">
        <ele>1703</ele>
        <time>2021-08-11T09:39:52.436Z</time>
      </trkpt>
      <trkpt lat="46.87993" lon="8.52802">
        <ele>1703</ele>
        <time>2021-08-11T09:39:53.435Z</time>
      </trkpt>
      <trkpt lat="46.87992" lon="8.52802">
        <ele>1703</ele>
        <time>2021-08-11T09:39:54.436Z</time>
      </trkpt>
      <trkpt lat="46.87991" lon="8.52802">
        <ele>1703</ele>
        <time>2021-08-11T09:39:55.436Z</time>
      </trkpt>
      <trkpt lat="46.8799" lon="8.52801">
        <ele>1703</ele>
        <time>2021-08-11T09:39:56.436Z</time>
      </trkpt>
      <trkpt lat="46.87989" lon="8.528">
        <ele>1703</ele>
        <time>2021-08-11T09:39:57.436Z</time>
      </trkpt>
      <trkpt lat="46.87988" lon="8.52799">
        <ele>1703</ele>
        <time>2021-08-11T09:39:58.435Z</time>
      </trkpt>
      <trkpt lat="46.87987" lon="8.52799">
        <ele>1703</ele>
        <time>2021-08-11T09:39:59.436Z</time>
      </trkpt>
      <trkpt lat="46.87986" lon="8.52799">
        <ele>1702</ele>
        <time>2021-08-11T09:40:00.436Z</time>
      </trkpt>
      <trkpt lat="46.87985" lon="8.52799">
        <ele>1701</ele>
        <time>2021-08-11T09:40:01.435Z</time>
      </trkpt>
      <trkpt lat="46.87984" lon="8.52799">
        <ele>1701</ele>
        <time>2021-08-11T09:40:02.436Z</time>
      </trkpt>
      <trkpt lat="46.87984" lon="8.52799">
        <ele>1701</ele>
        <time>2021-08-11T09:40:03.436Z</time>
      </trkpt>
      <trkpt lat="46.87983" lon="8.52799">
        <ele>1701</ele>
        <time>2021-08-11T09:40:04.436Z</time>
      </trkpt>
      <trkpt lat="46.87982" lon="8.52799">
        <ele>1701</ele>
        <time>2021-08-11T09:40:05.435Z</time>
      </trkpt>
      <trkpt lat="46.87981" lon="8.528">
        <ele>1701</ele>
        <time>2021-08-11T09:40:06.436Z</time>
      </trkpt>
      <trkpt lat="46.8798" lon="8.52801">
        <ele>1701</ele>
        <time>2021-08-11T09:40:07.435Z</time>
      </trkpt>
      <trkpt lat="46.8798" lon="8.52801">
        <ele>1700</ele>
        <time>2021-08-11T09:40:08.435Z</time>
      </trkpt>
      <trkpt lat="46.87979" lon="8.52802">
        <ele>1700</ele>
        <time>2021-08-11T09:40:09.436Z</time>
      </trkpt>
      <trkpt lat="46.87979" lon="8.52803">
        <ele>1700</ele>
        <time>2021-08-11T09:40:10.436Z</time>
      </trkpt>
      <trkpt lat="46.87978" lon="8.52803">
        <ele>1701</ele>
        <time>2021-08-11T09:40:11.436Z</time>
      </trkpt>
      <trkpt lat="46.87978" lon="8.52804">
        <ele>1701</ele>
        <time>2021-08-11T09:40:12.436Z</time>
      </trkpt>
      <trkpt lat="46.87978" lon="8.52805">
        <ele>1700</ele>
        <time>2021-08-11T09:40:13.436Z</time>
      </trkpt>
      <trkpt lat="46.8798" lon="8.52807">
        <ele>1699</ele>
        <time>2021-08-11T09:40:14.436Z</time>
      </trkpt>
      <trkpt lat="46.87981" lon="8.52807">
        <ele>1699</ele>
        <time>2021-08-11T09:40:15.436Z</time>
      </trkpt>
      <trkpt lat="46.87982" lon="8.52804">
        <ele>1699</ele>
        <time>2021-08-11T09:40:16.436Z</time>
      </trkpt>
      <trkpt lat="46.87982" lon="8.52804">
        <ele>1699</ele>
        <time>2021-08-11T09:40:17.436Z</time>
      </trkpt>
      <trkpt lat="46.87982" lon="8.52804">
        <ele>1700</ele>
        <time>2021-08-11T09:40:18.435Z</time>
      </trkpt>
      <trkpt lat="46.87982" lon="8.52805">
        <ele>1700</ele>
        <time>2021-08-11T09:40:19.436Z</time>
      </trkpt>
      <trkpt lat="46.87982" lon="8.52808">
        <ele>1689</ele>
        <time>2021-08-11T09:40:20.437Z</time>
      </trkpt>
      <trkpt lat="46.87981" lon="8.52809">
        <ele>1688</ele>
        <time>2021-08-11T09:40:21.437Z</time>
      </trkpt>
      <trkpt lat="46.87981" lon="8.52809">
        <ele>1688</ele>
        <time>2021-08-11T09:40:22.436Z</time>
      </trkpt>
      <trkpt lat="46.8798" lon="8.52809">
        <ele>1688</ele>
        <time>2021-08-11T09:40:23.437Z</time>
      </trkpt>
      <trkpt lat="46.87979" lon="8.52809">
        <ele>1689</ele>
        <time>2021-08-11T09:40:24.437Z</time>
      </trkpt>
      <trkpt lat="46.87978" lon="8.52809">
        <ele>1690</ele>
        <time>2021-08-11T09:40:25.436Z</time>
      </trkpt>
      <trkpt lat="46.87977" lon="8.52808">
        <ele>1690</ele>
        <time>2021-08-11T09:40:26.436Z</time>
      </trkpt>
      <trkpt lat="46.87976" lon="8.52808">
        <ele>1691</ele>
        <time>2021-08-11T09:40:27.437Z</time>
      </trkpt>
      <trkpt lat="46.87975" lon="8.52808">
        <ele>1691</ele>
        <time>2021-08-11T09:40:28.437Z</time>
      </trkpt>
      <trkpt lat="46.87974" lon="8.52808">
        <ele>1691</ele>
        <time>2021-08-11T09:40:29.436Z</time>
      </trkpt>
      <trkpt lat="46.87973" lon="8.52808">
        <ele>1692</ele>
        <time>2021-08-11T09:40:30.437Z</time>
      </trkpt>
      <trkpt lat="46.87972" lon="8.52807">
        <ele>1692</ele>
        <time>2021-08-11T09:40:31.436Z</time>
      </trkpt>
      <trkpt lat="46.87971" lon="8.52807">
        <ele>1692</ele>
        <time>2021-08-11T09:40:32.436Z</time>
      </trkpt>
      <trkpt lat="46.8797" lon="8.52806">
        <ele>1692</ele>
        <time>2021-08-11T09:40:33.436Z</time>
      </trkpt>
      <trkpt lat="46.87969" lon="8.52806">
        <ele>1692</ele>
        <time>2021-08-11T09:40:34.436Z</time>
      </trkpt>
      <trkpt lat="46.87968" lon="8.52806">
        <ele>1692</ele>
        <time>2021-08-11T09:40:35.436Z</time>
      </trkpt>
      <trkpt lat="46.87967" lon="8.52806">
        <ele>1692</ele>
        <time>2021-08-11T09:40:36.436Z</time>
      </trkpt>
      <trkpt lat="46.87967" lon="8.52805">
        <ele>1692</ele>
        <time>2021-08-11T09:40:37.436Z</time>
      </trkpt>
      <trkpt lat="46.87966" lon="8.52805">
        <ele>1692</ele>
        <time>2021-08-11T09:40:38.437Z</time>
      </trkpt>
      <trkpt lat="46.87965" lon="8.52804">
        <ele>1692</ele>
        <time>2021-08-11T09:40:39.436Z</time>
      </trkpt>
      <trkpt lat="46.87964" lon="8.52804">
        <ele>1693</ele>
        <time>2021-08-11T09:40:40.437Z</time>
      </trkpt>
      <trkpt lat="46.87963" lon="8.52803">
        <ele>1693</ele>
        <time>2021-08-11T09:40:41.436Z</time>
      </trkpt>
      <trkpt lat="46.87962" lon="8.52802">
        <ele>1693</ele>
        <time>2021-08-11T09:40:42.436Z</time>
      </trkpt>
      <trkpt lat="46.87961" lon="8.52802">
        <ele>1693</ele>
        <time>2021-08-11T09:40:43.436Z</time>
      </trkpt>
      <trkpt lat="46.8796" lon="8.52802">
        <ele>1693</ele>
        <time>2021-08-11T09:40:44.437Z</time>
      </trkpt>
      <trkpt lat="46.87959" lon="8.52801">
        <ele>1693</ele>
        <time>2021-08-11T09:40:45.437Z</time>
      </trkpt>
      <trkpt lat="46.87959" lon="8.52801">
        <ele>1693</ele>
        <time>2021-08-11T09:40:46.437Z</time>
      </trkpt>
      <trkpt lat="46.87958" lon="8.528">
        <ele>1694</ele>
        <time>2021-08-11T09:40:47.437Z</time>
      </trkpt>
      <trkpt lat="46.87957" lon="8.528">
        <ele>1694</ele>
        <time>2021-08-11T09:40:48.437Z</time>
      </trkpt>
      <trkpt lat="46.87956" lon="8.52799">
        <ele>1694</ele>
        <time>2021-08-11T09:40:49.436Z</time>
      </trkpt>
      <trkpt lat="46.87956" lon="8.52799">
        <ele>1695</ele>
        <time>2021-08-11T09:40:50.437Z</time>
      </trkpt>
      <trkpt lat="46.87955" lon="8.52798">
        <ele>1695</ele>
        <time>2021-08-11T09:40:51.437Z</time>
      </trkpt>
      <trkpt lat="46.87954" lon="8.52798">
        <ele>1695</ele>
        <time>2021-08-11T09:40:52.437Z</time>
      </trkpt>
      <trkpt lat="46.87953" lon="8.52797">
        <ele>1695</ele>
        <time>2021-08-11T09:40:53.437Z</time>
      </trkpt>
      <trkpt lat="46.87952" lon="8.52797">
        <ele>1696</ele>
        <time>2021-08-11T09:40:54.436Z</time>
      </trkpt>
      <trkpt lat="46.87951" lon="8.52796">
        <ele>1696</ele>
        <time>2021-08-11T09:40:55.437Z</time>
      </trkpt>
      <trkpt lat="46.8795" lon="8.52795">
        <ele>1697</ele>
        <time>2021-08-11T09:40:56.437Z</time>
      </trkpt>
      <trkpt lat="46.87948" lon="8.52794">
        <ele>1697</ele>
        <time>2021-08-11T09:40:57.437Z</time>
      </trkpt>
      <trkpt lat="46.87947" lon="8.52793">
        <ele>1698</ele>
        <time>2021-08-11T09:40:58.437Z</time>
      </trkpt>
      <trkpt lat="46.87945" lon="8.52791">
        <ele>1699</ele>
        <time>2021-08-11T09:40:59.436Z</time>
      </trkpt>
      <trkpt lat="46.87944" lon="8.52789">
        <ele>1700</ele>
        <time>2021-08-11T09:41:00.437Z</time>
      </trkpt>
      <trkpt lat="46.87943" lon="8.52788">
        <ele>1701</ele>
        <time>2021-08-11T09:41:01.437Z</time>
      </trkpt>
      <trkpt lat="46.87942" lon="8.52787">
        <ele>1701</ele>
        <time>2021-08-11T09:41:02.437Z</time>
      </trkpt>
      <trkpt lat="46.87941" lon="8.52785">
        <ele>1701</ele>
        <time>2021-08-11T09:41:03.436Z</time>
      </trkpt>
      <trkpt lat="46.8794" lon="8.52784">
        <ele>1701</ele>
        <time>2021-08-11T09:41:04.436Z</time>
      </trkpt>
      <trkpt lat="46.87939" lon="8.52784">
        <ele>1701</ele>
        <time>2021-08-11T09:41:05.437Z</time>
      </trkpt>
      <trkpt lat="46.87938" lon="8.52783">
        <ele>1700</ele>
        <time>2021-08-11T09:41:06.436Z</time>
      </trkpt>
      <trkpt lat="46.87937" lon="8.52783">
        <ele>1700</ele>
        <time>2021-08-11T09:41:07.436Z</time>
      </trkpt>
      <trkpt lat="46.87936" lon="8.52783">
        <ele>1699</ele>
        <time>2021-08-11T09:41:08.436Z</time>
      </trkpt>
      <trkpt lat="46.87936" lon="8.52783">
        <ele>1699</ele>
        <time>2021-08-11T09:41:09.436Z</time>
      </trkpt>
      <trkpt lat="46.87935" lon="8.52783">
        <ele>1698</ele>
        <time>2021-08-11T09:41:10.437Z</time>
      </trkpt>
      <trkpt lat="46.87934" lon="8.52783">
        <ele>1697</ele>
        <time>2021-08-11T09:41:11.437Z</time>
      </trkpt>
      <trkpt lat="46.87933" lon="8.52782">
        <ele>1697</ele>
        <time>2021-08-11T09:41:12.437Z</time>
      </trkpt>
      <trkpt lat="46.87932" lon="8.52782">
        <ele>1696</ele>
        <time>2021-08-11T09:41:13.436Z</time>
      </trkpt>
      <trkpt lat="46.87931" lon="8.52782">
        <ele>1696</ele>
        <time>2021-08-11T09:41:14.436Z</time>
      </trkpt>
      <trkpt lat="46.87931" lon="8.52782">
        <ele>1697</ele>
        <time>2021-08-11T09:41:15.437Z</time>
      </trkpt>
      <trkpt lat="46.8793" lon="8.52783">
        <ele>1697</ele>
        <time>2021-08-11T09:41:16.437Z</time>
      </trkpt>
      <trkpt lat="46.87929" lon="8.52783">
        <ele>1697</ele>
        <time>2021-08-11T09:41:17.437Z</time>
      </trkpt>
      <trkpt lat="46.87927" lon="8.52782">
        <ele>1697</ele>
        <time>2021-08-11T09:41:18.437Z</time>
      </trkpt>
      <trkpt lat="46.87926" lon="8.52782">
        <ele>1696</ele>
        <time>2021-08-11T09:41:19.436Z</time>
      </trkpt>
      <trkpt lat="46.87925" lon="8.52782">
        <ele>1696</ele>
        <time>2021-08-11T09:41:20.437Z</time>
      </trkpt>
      <trkpt lat="46.87925" lon="8.52782">
        <ele>1696</ele>
        <time>2021-08-11T09:41:21.437Z</time>
      </trkpt>
      <trkpt lat="46.87924" lon="8.52782">
        <ele>1696</ele>
        <time>2021-08-11T09:41:22.437Z</time>
      </trkpt>
      <trkpt lat="46.87922" lon="8.52781">
        <ele>1696</ele>
        <time>2021-08-11T09:41:23.437Z</time>
      </trkpt>
      <trkpt lat="46.87922" lon="8.5278">
        <ele>1695</ele>
        <time>2021-08-11T09:41:24.436Z</time>
      </trkpt>
      <trkpt lat="46.87921" lon="8.52779">
        <ele>1695</ele>
        <time>2021-08-11T09:41:25.437Z</time>
      </trkpt>
      <trkpt lat="46.8792" lon="8.52778">
        <ele>1695</ele>
        <time>2021-08-11T09:41:26.437Z</time>
      </trkpt>
      <trkpt lat="46.8792" lon="8.52777">
        <ele>1695</ele>
        <time>2021-08-11T09:41:27.436Z</time>
      </trkpt>
      <trkpt lat="46.87919" lon="8.52776">
        <ele>1695</ele>
        <time>2021-08-11T09:41:28.437Z</time>
      </trkpt>
      <trkpt lat="46.87918" lon="8.52775">
        <ele>1695</ele>
        <time>2021-08-11T09:41:29.437Z</time>
      </trkpt>
      <trkpt lat="46.87917" lon="8.52775">
        <ele>1695</ele>
        <time>2021-08-11T09:41:30.436Z</time>
      </trkpt>
      <trkpt lat="46.87916" lon="8.52774">
        <ele>1696</ele>
        <time>2021-08-11T09:41:31.436Z</time>
      </trkpt>
      <trkpt lat="46.87915" lon="8.52773">
        <ele>1696</ele>
        <time>2021-08-11T09:41:32.436Z</time>
      </trkpt>
      <trkpt lat="46.87915" lon="8.52772">
        <ele>1696</ele>
        <time>2021-08-11T09:41:33.437Z</time>
      </trkpt>
      <trkpt lat="46.87914" lon="8.52772">
        <ele>1696</ele>
        <time>2021-08-11T09:41:34.437Z</time>
      </trkpt>
      <trkpt lat="46.87913" lon="8.52771">
        <ele>1696</ele>
        <time>2021-08-11T09:41:35.437Z</time>
      </trkpt>
      <trkpt lat="46.87912" lon="8.5277">
        <ele>1696</ele>
        <time>2021-08-11T09:41:36.437Z</time>
      </trkpt>
      <trkpt lat="46.87912" lon="8.5277">
        <ele>1696</ele>
        <time>2021-08-11T09:41:37.437Z</time>
      </trkpt>
      <trkpt lat="46.8791" lon="8.52769">
        <ele>1696</ele>
        <time>2021-08-11T09:41:38.437Z</time>
      </trkpt>
      <trkpt lat="46.8791" lon="8.52769">
        <ele>1696</ele>
        <time>2021-08-11T09:41:39.437Z</time>
      </trkpt>
      <trkpt lat="46.87909" lon="8.52769">
        <ele>1696</ele>
        <time>2021-08-11T09:41:40.437Z</time>
      </trkpt>
      <trkpt lat="46.87908" lon="8.52769">
        <ele>1696</ele>
        <time>2021-08-11T09:41:41.437Z</time>
      </trkpt>
      <trkpt lat="46.87907" lon="8.52769">
        <ele>1696</ele>
        <time>2021-08-11T09:41:42.436Z</time>
      </trkpt>
      <trkpt lat="46.87906" lon="8.52769">
        <ele>1696</ele>
        <time>2021-08-11T09:41:43.436Z</time>
      </trkpt>
      <trkpt lat="46.87905" lon="8.52769">
        <ele>1696</ele>
        <time>2021-08-11T09:41:44.437Z</time>
      </trkpt>
      <trkpt lat="46.87904" lon="8.52769">
        <ele>1696</ele>
        <time>2021-08-11T09:41:45.437Z</time>
      </trkpt>
      <trkpt lat="46.87903" lon="8.52769">
        <ele>1696</ele>
        <time>2021-08-11T09:41:46.437Z</time>
      </trkpt>
      <trkpt lat="46.87902" lon="8.52769">
        <ele>1695</ele>
        <time>2021-08-11T09:41:47.436Z</time>
      </trkpt>
      <trkpt lat="46.87901" lon="8.52769">
        <ele>1695</ele>
        <time>2021-08-11T09:41:48.436Z</time>
      </trkpt>
      <trkpt lat="46.87901" lon="8.52769">
        <ele>1695</ele>
        <time>2021-08-11T09:41:49.437Z</time>
      </trkpt>
      <trkpt lat="46.879" lon="8.52769">
        <ele>1695</ele>
        <time>2021-08-11T09:41:50.437Z</time>
      </trkpt>
      <trkpt lat="46.879" lon="8.52768">
        <ele>1695</ele>
        <time>2021-08-11T09:41:51.437Z</time>
      </trkpt>
      <trkpt lat="46.87899" lon="8.52768">
        <ele>1695</ele>
        <time>2021-08-11T09:41:52.437Z</time>
      </trkpt>
      <trkpt lat="46.87898" lon="8.52767">
        <ele>1695</ele>
        <time>2021-08-11T09:41:53.436Z</time>
      </trkpt>
      <trkpt lat="46.87897" lon="8.52766">
        <ele>1695</ele>
        <time>2021-08-11T09:41:54.437Z</time>
      </trkpt>
      <trkpt lat="46.87897" lon="8.52766">
        <ele>1695</ele>
        <time>2021-08-11T09:41:55.437Z</time>
      </trkpt>
      <trkpt lat="46.87896" lon="8.52765">
        <ele>1695</ele>
        <time>2021-08-11T09:41:56.437Z</time>
      </trkpt>
      <trkpt lat="46.87895" lon="8.52765">
        <ele>1695</ele>
        <time>2021-08-11T09:41:57.437Z</time>
      </trkpt>
      <trkpt lat="46.87894" lon="8.52765">
        <ele>1695</ele>
        <time>2021-08-11T09:41:58.436Z</time>
      </trkpt>
      <trkpt lat="46.87894" lon="8.52764">
        <ele>1695</ele>
        <time>2021-08-11T09:41:59.436Z</time>
      </trkpt>
      <trkpt lat="46.87893" lon="8.52763">
        <ele>1696</ele>
        <time>2021-08-11T09:42:00.436Z</time>
      </trkpt>
      <trkpt lat="46.87892" lon="8.52763">
        <ele>1695</ele>
        <time>2021-08-11T09:42:01.437Z</time>
      </trkpt>
      <trkpt lat="46.87892" lon="8.52762">
        <ele>1695</ele>
        <time>2021-08-11T09:42:02.436Z</time>
      </trkpt>
      <trkpt lat="46.87892" lon="8.52762">
        <ele>1695</ele>
        <time>2021-08-11T09:42:03.437Z</time>
      </trkpt>
      <trkpt lat="46.87891" lon="8.52761">
        <ele>1695</ele>
        <time>2021-08-11T09:42:04.437Z</time>
      </trkpt>
      <trkpt lat="46.87891" lon="8.5276">
        <ele>1695</ele>
        <time>2021-08-11T09:42:05.437Z</time>
      </trkpt>
      <trkpt lat="46.8789" lon="8.52759">
        <ele>1694</ele>
        <time>2021-08-11T09:42:06.437Z</time>
      </trkpt>
      <trkpt lat="46.8789" lon="8.52758">
        <ele>1694</ele>
        <time>2021-08-11T09:42:07.436Z</time>
      </trkpt>
      <trkpt lat="46.8789" lon="8.52757">
        <ele>1693</ele>
        <time>2021-08-11T09:42:08.436Z</time>
      </trkpt>
      <trkpt lat="46.87889" lon="8.52756">
        <ele>1693</ele>
        <time>2021-08-11T09:42:09.437Z</time>
      </trkpt>
      <trkpt lat="46.87889" lon="8.52755">
        <ele>1692</ele>
        <time>2021-08-11T09:42:10.437Z</time>
      </trkpt>
      <trkpt lat="46.87888" lon="8.52754">
        <ele>1692</ele>
        <time>2021-08-11T09:42:11.437Z</time>
      </trkpt>
      <trkpt lat="46.87888" lon="8.52753">
        <ele>1692</ele>
        <time>2021-08-11T09:42:12.437Z</time>
      </trkpt>
      <trkpt lat="46.87887" lon="8.52753">
        <ele>1692</ele>
        <time>2021-08-11T09:42:13.436Z</time>
      </trkpt>
      <trkpt lat="46.87886" lon="8.52752">
        <ele>1692</ele>
        <time>2021-08-11T09:42:14.437Z</time>
      </trkpt>
      <trkpt lat="46.87886" lon="8.52751">
        <ele>1692</ele>
        <time>2021-08-11T09:42:15.437Z</time>
      </trkpt>
      <trkpt lat="46.87885" lon="8.5275">
        <ele>1692</ele>
        <time>2021-08-11T09:42:16.437Z</time>
      </trkpt>
      <trkpt lat="46.87884" lon="8.5275">
        <ele>1693</ele>
        <time>2021-08-11T09:42:17.437Z</time>
      </trkpt>
      <trkpt lat="46.87883" lon="8.5275">
        <ele>1693</ele>
        <time>2021-08-11T09:42:18.436Z</time>
      </trkpt>
      <trkpt lat="46.87882" lon="8.52749">
        <ele>1693</ele>
        <time>2021-08-11T09:42:19.437Z</time>
      </trkpt>
      <trkpt lat="46.87881" lon="8.52749">
        <ele>1694</ele>
        <time>2021-08-11T09:42:20.437Z</time>
      </trkpt>
      <trkpt lat="46.8788" lon="8.52749">
        <ele>1694</ele>
        <time>2021-08-11T09:42:21.437Z</time>
      </trkpt>
      <trkpt lat="46.87879" lon="8.52748">
        <ele>1694</ele>
        <time>2021-08-11T09:42:22.437Z</time>
      </trkpt>
      <trkpt lat="46.87878" lon="8.52748">
        <ele>1694</ele>
        <time>2021-08-11T09:42:23.437Z</time>
      </trkpt>
      <trkpt lat="46.87878" lon="8.52747">
        <ele>1694</ele>
        <time>2021-08-11T09:42:24.436Z</time>
      </trkpt>
      <trkpt lat="46.87877" lon="8.52746">
        <ele>1694</ele>
        <time>2021-08-11T09:42:25.437Z</time>
      </trkpt>
      <trkpt lat="46.87876" lon="8.52746">
        <ele>1695</ele>
        <time>2021-08-11T09:42:26.436Z</time>
      </trkpt>
      <trkpt lat="46.87876" lon="8.52745">
        <ele>1695</ele>
        <time>2021-08-11T09:42:27.436Z</time>
      </trkpt>
      <trkpt lat="46.87875" lon="8.52745">
        <ele>1695</ele>
        <time>2021-08-11T09:42:28.436Z</time>
      </trkpt>
      <trkpt lat="46.87874" lon="8.52744">
        <ele>1696</ele>
        <time>2021-08-11T09:42:29.437Z</time>
      </trkpt>
      <trkpt lat="46.87873" lon="8.52744">
        <ele>1696</ele>
        <time>2021-08-11T09:42:30.436Z</time>
      </trkpt>
      <trkpt lat="46.87873" lon="8.52743">
        <ele>1696</ele>
        <time>2021-08-11T09:42:31.437Z</time>
      </trkpt>
      <trkpt lat="46.87872" lon="8.52743">
        <ele>1697</ele>
        <time>2021-08-11T09:42:32.437Z</time>
      </trkpt>
      <trkpt lat="46.87871" lon="8.52742">
        <ele>1697</ele>
        <time>2021-08-11T09:42:33.437Z</time>
      </trkpt>
      <trkpt lat="46.8787" lon="8.52742">
        <ele>1697</ele>
        <time>2021-08-11T09:42:34.437Z</time>
      </trkpt>
      <trkpt lat="46.87869" lon="8.52741">
        <ele>1698</ele>
        <time>2021-08-11T09:42:35.437Z</time>
      </trkpt>
      <trkpt lat="46.87867" lon="8.5274">
        <ele>1698</ele>
        <time>2021-08-11T09:42:36.436Z</time>
      </trkpt>
      <trkpt lat="46.87867" lon="8.52739">
        <ele>1699</ele>
        <time>2021-08-11T09:42:37.437Z</time>
      </trkpt>
      <trkpt lat="46.87866" lon="8.52738">
        <ele>1699</ele>
        <time>2021-08-11T09:42:38.437Z</time>
      </trkpt>
      <trkpt lat="46.87865" lon="8.52737">
        <ele>1699</ele>
        <time>2021-08-11T09:42:39.437Z</time>
      </trkpt>
      <trkpt lat="46.87865" lon="8.52736">
        <ele>1699</ele>
        <time>2021-08-11T09:42:40.436Z</time>
      </trkpt>
      <trkpt lat="46.87864" lon="8.52736">
        <ele>1699</ele>
        <time>2021-08-11T09:42:41.436Z</time>
      </trkpt>
      <trkpt lat="46.87864" lon="8.52735">
        <ele>1699</ele>
        <time>2021-08-11T09:42:42.437Z</time>
      </trkpt>
      <trkpt lat="46.87863" lon="8.52735">
        <ele>1699</ele>
        <time>2021-08-11T09:42:43.436Z</time>
      </trkpt>
      <trkpt lat="46.87862" lon="8.52734">
        <ele>1699</ele>
        <time>2021-08-11T09:42:44.437Z</time>
      </trkpt>
      <trkpt lat="46.87862" lon="8.52734">
        <ele>1699</ele>
        <time>2021-08-11T09:42:45.436Z</time>
      </trkpt>
      <trkpt lat="46.87861" lon="8.52732">
        <ele>1699</ele>
        <time>2021-08-11T09:42:46.437Z</time>
      </trkpt>
      <trkpt lat="46.8786" lon="8.52731">
        <ele>1698</ele>
        <time>2021-08-11T09:42:47.436Z</time>
      </trkpt>
      <trkpt lat="46.87859" lon="8.52731">
        <ele>1698</ele>
        <time>2021-08-11T09:42:48.437Z</time>
      </trkpt>
      <trkpt lat="46.87859" lon="8.52731">
        <ele>1698</ele>
        <time>2021-08-11T09:42:49.436Z</time>
      </trkpt>
      <trkpt lat="46.87858" lon="8.52731">
        <ele>1698</ele>
        <time>2021-08-11T09:42:50.437Z</time>
      </trkpt>
      <trkpt lat="46.87857" lon="8.5273">
        <ele>1697</ele>
        <time>2021-08-11T09:42:51.437Z</time>
      </trkpt>
      <trkpt lat="46.87856" lon="8.52729">
        <ele>1697</ele>
        <time>2021-08-11T09:42:52.437Z</time>
      </trkpt>
      <trkpt lat="46.87855" lon="8.52729">
        <ele>1697</ele>
        <time>2021-08-11T09:42:53.436Z</time>
      </trkpt>
      <trkpt lat="46.87855" lon="8.52729">
        <ele>1697</ele>
        <time>2021-08-11T09:42:54.436Z</time>
      </trkpt>
      <trkpt lat="46.87854" lon="8.52729">
        <ele>1697</ele>
        <time>2021-08-11T09:42:55.437Z</time>
      </trkpt>
      <trkpt lat="46.87853" lon="8.52729">
        <ele>1697</ele>
        <time>2021-08-11T09:42:56.437Z</time>
      </trkpt>
      <trkpt lat="46.87852" lon="8.52729">
        <ele>1697</ele>
        <time>2021-08-11T09:42:57.436Z</time>
      </trkpt>
      <trkpt lat="46.87852" lon="8.52729">
        <ele>1697</ele>
        <time>2021-08-11T09:42:58.437Z</time>
      </trkpt>
      <trkpt lat="46.87851" lon="8.52728">
        <ele>1696</ele>
        <time>2021-08-11T09:42:59.436Z</time>
      </trkpt>
      <trkpt lat="46.8785" lon="8.52727">
        <ele>1696</ele>
        <time>2021-08-11T09:43:00.437Z</time>
      </trkpt>
      <trkpt lat="46.8785" lon="8.52727">
        <ele>1697</ele>
        <time>2021-08-11T09:43:01.437Z</time>
      </trkpt>
      <trkpt lat="46.87849" lon="8.52726">
        <ele>1697</ele>
        <time>2021-08-11T09:43:02.437Z</time>
      </trkpt>
      <trkpt lat="46.87848" lon="8.52726">
        <ele>1697</ele>
        <time>2021-08-11T09:43:03.437Z</time>
      </trkpt>
      <trkpt lat="46.87848" lon="8.52726">
        <ele>1697</ele>
        <time>2021-08-11T09:43:04.437Z</time>
      </trkpt>
      <trkpt lat="46.87847" lon="8.52726">
        <ele>1698</ele>
        <time>2021-08-11T09:43:05.436Z</time>
      </trkpt>
      <trkpt lat="46.87847" lon="8.52725">
        <ele>1698</ele>
        <time>2021-08-11T09:43:06.437Z</time>
      </trkpt>
      <trkpt lat="46.87846" lon="8.52724">
        <ele>1698</ele>
        <time>2021-08-11T09:43:07.437Z</time>
      </trkpt>
      <trkpt lat="46.87846" lon="8.52722">
        <ele>1698</ele>
        <time>2021-08-11T09:43:08.436Z</time>
      </trkpt>
      <trkpt lat="46.87845" lon="8.52721">
        <ele>1698</ele>
        <time>2021-08-11T09:43:09.437Z</time>
      </trkpt>
      <trkpt lat="46.87845" lon="8.5272">
        <ele>1698</ele>
        <time>2021-08-11T09:43:10.437Z</time>
      </trkpt>
      <trkpt lat="46.87844" lon="8.52719">
        <ele>1698</ele>
        <time>2021-08-11T09:43:11.437Z</time>
      </trkpt>
      <trkpt lat="46.87843" lon="8.52718">
        <ele>1698</ele>
        <time>2021-08-11T09:43:12.436Z</time>
      </trkpt>
      <trkpt lat="46.87843" lon="8.52718">
        <ele>1697</ele>
        <time>2021-08-11T09:43:13.436Z</time>
      </trkpt>
      <trkpt lat="46.87843" lon="8.52718">
        <ele>1697</ele>
        <time>2021-08-11T09:43:14.437Z</time>
      </trkpt>
      <trkpt lat="46.87843" lon="8.52718">
        <ele>1697</ele>
        <time>2021-08-11T09:43:15.437Z</time>
      </trkpt>
      <trkpt lat="46.87843" lon="8.52717">
        <ele>1697</ele>
        <time>2021-08-11T09:43:16.437Z</time>
      </trkpt>
      <trkpt lat="46.87843" lon="8.52717">
        <ele>1697</ele>
        <time>2021-08-11T09:43:17.437Z</time>
      </trkpt>
      <trkpt lat="46.87842" lon="8.52716">
        <ele>1697</ele>
        <time>2021-08-11T09:43:18.437Z</time>
      </trkpt>
      <trkpt lat="46.87842" lon="8.52715">
        <ele>1697</ele>
        <time>2021-08-11T09:43:19.437Z</time>
      </trkpt>
      <trkpt lat="46.87841" lon="8.52714">
        <ele>1697</ele>
        <time>2021-08-11T09:43:20.436Z</time>
      </trkpt>
      <trkpt lat="46.8784" lon="8.52713">
        <ele>1697</ele>
        <time>2021-08-11T09:43:21.436Z</time>
      </trkpt>
      <trkpt lat="46.8784" lon="8.52712">
        <ele>1697</ele>
        <time>2021-08-11T09:43:22.437Z</time>
      </trkpt>
      <trkpt lat="46.87839" lon="8.52711">
        <ele>1697</ele>
        <time>2021-08-11T09:43:23.437Z</time>
      </trkpt>
      <trkpt lat="46.87838" lon="8.5271">
        <ele>1696</ele>
        <time>2021-08-11T09:43:24.437Z</time>
      </trkpt>
      <trkpt lat="46.87838" lon="8.52709">
        <ele>1696</ele>
        <time>2021-08-11T09:43:25.437Z</time>
      </trkpt>
      <trkpt lat="46.87837" lon="8.52708">
        <ele>1696</ele>
        <time>2021-08-11T09:43:26.437Z</time>
      </trkpt>
      <trkpt lat="46.87836" lon="8.52707">
        <ele>1696</ele>
        <time>2021-08-11T09:43:27.437Z</time>
      </trkpt>
      <trkpt lat="46.87835" lon="8.52706">
        <ele>1696</ele>
        <time>2021-08-11T09:43:28.437Z</time>
      </trkpt>
      <trkpt lat="46.87835" lon="8.52705">
        <ele>1696</ele>
        <time>2021-08-11T09:43:29.436Z</time>
      </trkpt>
      <trkpt lat="46.87834" lon="8.52704">
        <ele>1696</ele>
        <time>2021-08-11T09:43:30.436Z</time>
      </trkpt>
      <trkpt lat="46.87833" lon="8.52703">
        <ele>1695</ele>
        <time>2021-08-11T09:43:31.437Z</time>
      </trkpt>
      <trkpt lat="46.87832" lon="8.52702">
        <ele>1695</ele>
        <time>2021-08-11T09:43:32.437Z</time>
      </trkpt>
      <trkpt lat="46.87831" lon="8.52702">
        <ele>1695</ele>
        <time>2021-08-11T09:43:33.436Z</time>
      </trkpt>
      <trkpt lat="46.87831" lon="8.52701">
        <ele>1694</ele>
        <time>2021-08-11T09:43:34.437Z</time>
      </trkpt>
      <trkpt lat="46.8783" lon="8.527">
        <ele>1694</ele>
        <time>2021-08-11T09:43:35.437Z</time>
      </trkpt>
      <trkpt lat="46.87829" lon="8.52699">
        <ele>1694</ele>
        <time>2021-08-11T09:43:36.437Z</time>
      </trkpt>
      <trkpt lat="46.87828" lon="8.52698">
        <ele>1694</ele>
        <time>2021-08-11T09:43:37.437Z</time>
      </trkpt>
      <trkpt lat="46.87828" lon="8.52697">
        <ele>1694</ele>
        <time>2021-08-11T09:43:38.437Z</time>
      </trkpt>
      <trkpt lat="46.87827" lon="8.52696">
        <ele>1694</ele>
        <time>2021-08-11T09:43:39.437Z</time>
      </trkpt>
      <trkpt lat="46.87826" lon="8.52695">
        <ele>1694</ele>
        <time>2021-08-11T09:43:40.436Z</time>
      </trkpt>
      <trkpt lat="46.87826" lon="8.52694">
        <ele>1694</ele>
        <time>2021-08-11T09:43:41.437Z</time>
      </trkpt>
      <trkpt lat="46.87825" lon="8.52693">
        <ele>1694</ele>
        <time>2021-08-11T09:43:42.437Z</time>
      </trkpt>
      <trkpt lat="46.87825" lon="8.52692">
        <ele>1693</ele>
        <time>2021-08-11T09:43:43.437Z</time>
      </trkpt>
      <trkpt lat="46.87825" lon="8.52691">
        <ele>1693</ele>
        <time>2021-08-11T09:43:44.436Z</time>
      </trkpt>
      <trkpt lat="46.87824" lon="8.52691">
        <ele>1693</ele>
        <time>2021-08-11T09:43:45.437Z</time>
      </trkpt>
      <trkpt lat="46.87824" lon="8.5269">
        <ele>1693</ele>
        <time>2021-08-11T09:43:46.436Z</time>
      </trkpt>
      <trkpt lat="46.87824" lon="8.5269">
        <ele>1694</ele>
        <time>2021-08-11T09:43:47.437Z</time>
      </trkpt>
      <trkpt lat="46.87824" lon="8.5269">
        <ele>1694</ele>
        <time>2021-08-11T09:43:48.437Z</time>
      </trkpt>
      <trkpt lat="46.87823" lon="8.5269">
        <ele>1694</ele>
        <time>2021-08-11T09:43:49.436Z</time>
      </trkpt>
      <trkpt lat="46.87823" lon="8.5269">
        <ele>1694</ele>
        <time>2021-08-11T09:43:50.438Z</time>
      </trkpt>
      <trkpt lat="46.87823" lon="8.52691">
        <ele>1695</ele>
        <time>2021-08-11T09:43:51.437Z</time>
      </trkpt>
      <trkpt lat="46.87823" lon="8.52692">
        <ele>1694</ele>
        <time>2021-08-11T09:43:52.439Z</time>
      </trkpt>
      <trkpt lat="46.87823" lon="8.52692">
        <ele>1694</ele>
        <time>2021-08-11T09:43:53.438Z</time>
      </trkpt>
      <trkpt lat="46.87822" lon="8.52691">
        <ele>1692</ele>
        <time>2021-08-11T09:43:54.438Z</time>
      </trkpt>
      <trkpt lat="46.87821" lon="8.52691">
        <ele>1692</ele>
        <time>2021-08-11T09:43:55.438Z</time>
      </trkpt>
      <trkpt lat="46.87821" lon="8.5269">
        <ele>1693</ele>
        <time>2021-08-11T09:43:56.438Z</time>
      </trkpt>
      <trkpt lat="46.87821" lon="8.5269">
        <ele>1693</ele>
        <time>2021-08-11T09:43:57.438Z</time>
      </trkpt>
      <trkpt lat="46.8782" lon="8.52689">
        <ele>1693</ele>
        <time>2021-08-11T09:43:58.439Z</time>
      </trkpt>
      <trkpt lat="46.8782" lon="8.52688">
        <ele>1694</ele>
        <time>2021-08-11T09:43:59.439Z</time>
      </trkpt>
      <trkpt lat="46.87819" lon="8.52688">
        <ele>1695</ele>
        <time>2021-08-11T09:44:00.438Z</time>
      </trkpt>
      <trkpt lat="46.87818" lon="8.52687">
        <ele>1695</ele>
        <time>2021-08-11T09:44:01.438Z</time>
      </trkpt>
      <trkpt lat="46.87817" lon="8.52687">
        <ele>1696</ele>
        <time>2021-08-11T09:44:02.438Z</time>
      </trkpt>
      <trkpt lat="46.87817" lon="8.52686">
        <ele>1696</ele>
        <time>2021-08-11T09:44:03.438Z</time>
      </trkpt>
      <trkpt lat="46.87816" lon="8.52686">
        <ele>1697</ele>
        <time>2021-08-11T09:44:04.438Z</time>
      </trkpt>
      <trkpt lat="46.87815" lon="8.52685">
        <ele>1698</ele>
        <time>2021-08-11T09:44:05.438Z</time>
      </trkpt>
      <trkpt lat="46.87814" lon="8.52684">
        <ele>1698</ele>
        <time>2021-08-11T09:44:06.438Z</time>
      </trkpt>
      <trkpt lat="46.87813" lon="8.52684">
        <ele>1698</ele>
        <time>2021-08-11T09:44:07.438Z</time>
      </trkpt>
      <trkpt lat="46.87813" lon="8.52683">
        <ele>1699</ele>
        <time>2021-08-11T09:44:08.439Z</time>
      </trkpt>
      <trkpt lat="46.87812" lon="8.52683">
        <ele>1699</ele>
        <time>2021-08-11T09:44:09.438Z</time>
      </trkpt>
      <trkpt lat="46.87811" lon="8.52682">
        <ele>1698</ele>
        <time>2021-08-11T09:44:10.438Z</time>
      </trkpt>
      <trkpt lat="46.8781" lon="8.52681">
        <ele>1699</ele>
        <time>2021-08-11T09:44:11.438Z</time>
      </trkpt>
      <trkpt lat="46.8781" lon="8.52681">
        <ele>1699</ele>
        <time>2021-08-11T09:44:12.438Z</time>
      </trkpt>
      <trkpt lat="46.87809" lon="8.5268">
        <ele>1699</ele>
        <time>2021-08-11T09:44:13.439Z</time>
      </trkpt>
      <trkpt lat="46.87809" lon="8.5268">
        <ele>1699</ele>
        <time>2021-08-11T09:44:14.438Z</time>
      </trkpt>
      <trkpt lat="46.87809" lon="8.5268">
        <ele>1699</ele>
        <time>2021-08-11T09:44:15.439Z</time>
      </trkpt>
      <trkpt lat="46.87808" lon="8.52679">
        <ele>1699</ele>
        <time>2021-08-11T09:44:16.438Z</time>
      </trkpt>
      <trkpt lat="46.87808" lon="8.52679">
        <ele>1699</ele>
        <time>2021-08-11T09:44:17.438Z</time>
      </trkpt>
      <trkpt lat="46.87808" lon="8.52679">
        <ele>1699</ele>
        <time>2021-08-11T09:44:18.439Z</time>
      </trkpt>
      <trkpt lat="46.87807" lon="8.52679">
        <ele>1699</ele>
        <time>2021-08-11T09:44:19.439Z</time>
      </trkpt>
      <trkpt lat="46.87806" lon="8.52678">
        <ele>1699</ele>
        <time>2021-08-11T09:44:20.438Z</time>
      </trkpt>
      <trkpt lat="46.87805" lon="8.52678">
        <ele>1699</ele>
        <time>2021-08-11T09:44:21.438Z</time>
      </trkpt>
      <trkpt lat="46.87805" lon="8.52678">
        <ele>1699</ele>
        <time>2021-08-11T09:44:22.438Z</time>
      </trkpt>
      <trkpt lat="46.87804" lon="8.52677">
        <ele>1699</ele>
        <time>2021-08-11T09:44:23.438Z</time>
      </trkpt>
      <trkpt lat="46.87804" lon="8.52676">
        <ele>1699</ele>
        <time>2021-08-11T09:44:24.438Z</time>
      </trkpt>
      <trkpt lat="46.87804" lon="8.52675">
        <ele>1699</ele>
        <time>2021-08-11T09:44:25.438Z</time>
      </trkpt>
      <trkpt lat="46.87804" lon="8.52675">
        <ele>1699</ele>
        <time>2021-08-11T09:44:26.439Z</time>
      </trkpt>
      <trkpt lat="46.87803" lon="8.52674">
        <ele>1699</ele>
        <time>2021-08-11T09:44:27.439Z</time>
      </trkpt>
      <trkpt lat="46.87802" lon="8.52674">
        <ele>1699</ele>
        <time>2021-08-11T09:44:28.438Z</time>
      </trkpt>
      <trkpt lat="46.87801" lon="8.52674">
        <ele>1700</ele>
        <time>2021-08-11T09:44:29.439Z</time>
      </trkpt>
      <trkpt lat="46.87801" lon="8.52674">
        <ele>1699</ele>
        <time>2021-08-11T09:44:30.438Z</time>
      </trkpt>
      <trkpt lat="46.878" lon="8.52674">
        <ele>1699</ele>
        <time>2021-08-11T09:44:31.438Z</time>
      </trkpt>
      <trkpt lat="46.878" lon="8.52673">
        <ele>1699</ele>
        <time>2021-08-11T09:44:32.439Z</time>
      </trkpt>
      <trkpt lat="46.87799" lon="8.52673">
        <ele>1699</ele>
        <time>2021-08-11T09:44:33.438Z</time>
      </trkpt>
      <trkpt lat="46.87799" lon="8.52673">
        <ele>1699</ele>
        <time>2021-08-11T09:44:34.438Z</time>
      </trkpt>
      <trkpt lat="46.87799" lon="8.52673">
        <ele>1700</ele>
        <time>2021-08-11T09:44:35.438Z</time>
      </trkpt>
      <trkpt lat="46.87798" lon="8.52672">
        <ele>1701</ele>
        <time>2021-08-11T09:44:36.438Z</time>
      </trkpt>
      <trkpt lat="46.87798" lon="8.52673">
        <ele>1701</ele>
        <time>2021-08-11T09:44:37.438Z</time>
      </trkpt>
      <trkpt lat="46.87798" lon="8.52674">
        <ele>1702</ele>
        <time>2021-08-11T09:44:38.439Z</time>
      </trkpt>
      <trkpt lat="46.87798" lon="8.52675">
        <ele>1702</ele>
        <time>2021-08-11T09:44:39.438Z</time>
      </trkpt>
      <trkpt lat="46.87798" lon="8.52675">
        <ele>1702</ele>
        <time>2021-08-11T09:44:40.439Z</time>
      </trkpt>
      <trkpt lat="46.87797" lon="8.52673">
        <ele>1703</ele>
        <time>2021-08-11T09:44:41.440Z</time>
      </trkpt>
      <trkpt lat="46.87797" lon="8.52673">
        <ele>1703</ele>
        <time>2021-08-11T09:44:42.439Z</time>
      </trkpt>
      <trkpt lat="46.87796" lon="8.52671">
        <ele>1705</ele>
        <time>2021-08-11T09:44:43.439Z</time>
      </trkpt>
      <trkpt lat="46.87795" lon="8.5267">
        <ele>1705</ele>
        <time>2021-08-11T09:44:44.440Z</time>
      </trkpt>
      <trkpt lat="46.87794" lon="8.5267">
        <ele>1706</ele>
        <time>2021-08-11T09:44:45.439Z</time>
      </trkpt>
      <trkpt lat="46.87793" lon="8.52668">
        <ele>1706</ele>
        <time>2021-08-11T09:44:46.440Z</time>
      </trkpt>
      <trkpt lat="46.87792" lon="8.52668">
        <ele>1706</ele>
        <time>2021-08-11T09:44:47.439Z</time>
      </trkpt>
      <trkpt lat="46.87792" lon="8.52667">
        <ele>1706</ele>
        <time>2021-08-11T09:44:48.439Z</time>
      </trkpt>
      <trkpt lat="46.87792" lon="8.52667">
        <ele>1706</ele>
        <time>2021-08-11T09:44:49.440Z</time>
      </trkpt>
      <trkpt lat="46.87791" lon="8.52666">
        <ele>1707</ele>
        <time>2021-08-11T09:44:50.439Z</time>
      </trkpt>
      <trkpt lat="46.87791" lon="8.52666">
        <ele>1706</ele>
        <time>2021-08-11T09:44:51.440Z</time>
      </trkpt>
      <trkpt lat="46.8779" lon="8.52666">
        <ele>1706</ele>
        <time>2021-08-11T09:44:52.440Z</time>
      </trkpt>
      <trkpt lat="46.8779" lon="8.52665">
        <ele>1706</ele>
        <time>2021-08-11T09:44:53.439Z</time>
      </trkpt>
      <trkpt lat="46.8779" lon="8.52665">
        <ele>1705</ele>
        <time>2021-08-11T09:44:54.440Z</time>
      </trkpt>
      <trkpt lat="46.8779" lon="8.52665">
        <ele>1705</ele>
        <time>2021-08-11T09:44:55.440Z</time>
      </trkpt>
      <trkpt lat="46.87789" lon="8.52666">
        <ele>1705</ele>
        <time>2021-08-11T09:44:56.439Z</time>
      </trkpt>
      <trkpt lat="46.87789" lon="8.52665">
        <ele>1705</ele>
        <time>2021-08-11T09:44:57.440Z</time>
      </trkpt>
      <trkpt lat="46.87788" lon="8.52665">
        <ele>1705</ele>
        <time>2021-08-11T09:44:58.440Z</time>
      </trkpt>
      <trkpt lat="46.87787" lon="8.52664">
        <ele>1706</ele>
        <time>2021-08-11T09:44:59.440Z</time>
      </trkpt>
      <trkpt lat="46.87786" lon="8.52663">
        <ele>1706</ele>
        <time>2021-08-11T09:45:00.440Z</time>
      </trkpt>
      <trkpt lat="46.87786" lon="8.52663">
        <ele>1706</ele>
        <time>2021-08-11T09:45:01.440Z</time>
      </trkpt>
      <trkpt lat="46.87785" lon="8.52663">
        <ele>1706</ele>
        <time>2021-08-11T09:45:02.439Z</time>
      </trkpt>
      <trkpt lat="46.87785" lon="8.52662">
        <ele>1707</ele>
        <time>2021-08-11T09:45:03.440Z</time>
      </trkpt>
      <trkpt lat="46.87784" lon="8.52661">
        <ele>1707</ele>
        <time>2021-08-11T09:45:04.440Z</time>
      </trkpt>
      <trkpt lat="46.87784" lon="8.52661">
        <ele>1706</ele>
        <time>2021-08-11T09:45:05.439Z</time>
      </trkpt>
      <trkpt lat="46.87783" lon="8.52661">
        <ele>1706</ele>
        <time>2021-08-11T09:45:06.440Z</time>
      </trkpt>
      <trkpt lat="46.87783" lon="8.5266">
        <ele>1706</ele>
        <time>2021-08-11T09:45:07.440Z</time>
      </trkpt>
      <trkpt lat="46.87783" lon="8.52659">
        <ele>1706</ele>
        <time>2021-08-11T09:45:08.440Z</time>
      </trkpt>
      <trkpt lat="46.87782" lon="8.52658">
        <ele>1706</ele>
        <time>2021-08-11T09:45:09.440Z</time>
      </trkpt>
      <trkpt lat="46.87782" lon="8.52659">
        <ele>1706</ele>
        <time>2021-08-11T09:45:10.440Z</time>
      </trkpt>
      <trkpt lat="46.87782" lon="8.52658">
        <ele>1706</ele>
        <time>2021-08-11T09:45:11.440Z</time>
      </trkpt>
      <trkpt lat="46.87781" lon="8.52658">
        <ele>1706</ele>
        <time>2021-08-11T09:45:12.440Z</time>
      </trkpt>
      <trkpt lat="46.87781" lon="8.52658">
        <ele>1707</ele>
        <time>2021-08-11T09:45:13.440Z</time>
      </trkpt>
      <trkpt lat="46.87781" lon="8.52658">
        <ele>1707</ele>
        <time>2021-08-11T09:45:14.440Z</time>
      </trkpt>
      <trkpt lat="46.8778" lon="8.52658">
        <ele>1708</ele>
        <time>2021-08-11T09:45:15.440Z</time>
      </trkpt>
      <trkpt lat="46.8778" lon="8.52658">
        <ele>1708</ele>
        <time>2021-08-11T09:45:16.440Z</time>
      </trkpt>
      <trkpt lat="46.8778" lon="8.52658">
        <ele>1709</ele>
        <time>2021-08-11T09:45:17.439Z</time>
      </trkpt>
      <trkpt lat="46.87779" lon="8.52657">
        <ele>1708</ele>
        <time>2021-08-11T09:45:18.440Z</time>
      </trkpt>
      <trkpt lat="46.87779" lon="8.52656">
        <ele>1708</ele>
        <time>2021-08-11T09:45:19.439Z</time>
      </trkpt>
      <trkpt lat="46.87779" lon="8.52656">
        <ele>1707</ele>
        <time>2021-08-11T09:45:20.439Z</time>
      </trkpt>
      <trkpt lat="46.87778" lon="8.52656">
        <ele>1707</ele>
        <time>2021-08-11T09:45:21.440Z</time>
      </trkpt>
      <trkpt lat="46.87778" lon="8.52655">
        <ele>1707</ele>
        <time>2021-08-11T09:45:22.439Z</time>
      </trkpt>
      <trkpt lat="46.87777" lon="8.52655">
        <ele>1707</ele>
        <time>2021-08-11T09:45:23.440Z</time>
      </trkpt>
      <trkpt lat="46.87777" lon="8.52655">
        <ele>1706</ele>
        <time>2021-08-11T09:45:24.440Z</time>
      </trkpt>
      <trkpt lat="46.87776" lon="8.52655">
        <ele>1706</ele>
        <time>2021-08-11T09:45:25.439Z</time>
      </trkpt>
      <trkpt lat="46.87776" lon="8.52655">
        <ele>1706</ele>
        <time>2021-08-11T09:45:26.440Z</time>
      </trkpt>
      <trkpt lat="46.87775" lon="8.52655">
        <ele>1706</ele>
        <time>2021-08-11T09:45:27.440Z</time>
      </trkpt>
      <trkpt lat="46.87775" lon="8.52654">
        <ele>1706</ele>
        <time>2021-08-11T09:45:28.439Z</time>
      </trkpt>
      <trkpt lat="46.87775" lon="8.52654">
        <ele>1706</ele>
        <time>2021-08-11T09:45:29.440Z</time>
      </trkpt>
      <trkpt lat="46.87774" lon="8.52654">
        <ele>1707</ele>
        <time>2021-08-11T09:45:30.440Z</time>
      </trkpt>
      <trkpt lat="46.87774" lon="8.52654">
        <ele>1707</ele>
        <time>2021-08-11T09:45:31.440Z</time>
      </trkpt>
      <trkpt lat="46.87773" lon="8.52654">
        <ele>1708</ele>
        <time>2021-08-11T09:45:32.439Z</time>
      </trkpt>
      <trkpt lat="46.87772" lon="8.52654">
        <ele>1708</ele>
        <time>2021-08-11T09:45:33.440Z</time>
      </trkpt>
      <trkpt lat="46.87772" lon="8.52654">
        <ele>1708</ele>
        <time>2021-08-11T09:45:34.440Z</time>
      </trkpt>
      <trkpt lat="46.87771" lon="8.52654">
        <ele>1708</ele>
        <time>2021-08-11T09:45:35.439Z</time>
      </trkpt>
      <trkpt lat="46.87771" lon="8.52654">
        <ele>1708</ele>
        <time>2021-08-11T09:45:36.440Z</time>
      </trkpt>
      <trkpt lat="46.87771" lon="8.52653">
        <ele>1709</ele>
        <time>2021-08-11T09:45:37.440Z</time>
      </trkpt>
      <trkpt lat="46.8777" lon="8.52653">
        <ele>1709</ele>
        <time>2021-08-11T09:45:38.439Z</time>
      </trkpt>
      <trkpt lat="46.8777" lon="8.52652">
        <ele>1710</ele>
        <time>2021-08-11T09:45:39.440Z</time>
      </trkpt>
      <trkpt lat="46.87769" lon="8.52652">
        <ele>1711</ele>
        <time>2021-08-11T09:45:40.440Z</time>
      </trkpt>
      <trkpt lat="46.87769" lon="8.52652">
        <ele>1711</ele>
        <time>2021-08-11T09:45:41.439Z</time>
      </trkpt>
      <trkpt lat="46.87768" lon="8.52652">
        <ele>1711</ele>
        <time>2021-08-11T09:45:42.440Z</time>
      </trkpt>
      <trkpt lat="46.87768" lon="8.52651">
        <ele>1711</ele>
        <time>2021-08-11T09:45:43.440Z</time>
      </trkpt>
      <trkpt lat="46.87767" lon="8.5265">
        <ele>1711</ele>
        <time>2021-08-11T09:45:44.440Z</time>
      </trkpt>
      <trkpt lat="46.87766" lon="8.52649">
        <ele>1711</ele>
        <time>2021-08-11T09:45:45.439Z</time>
      </trkpt>
      <trkpt lat="46.87765" lon="8.52649">
        <ele>1712</ele>
        <time>2021-08-11T09:45:46.439Z</time>
      </trkpt>
      <trkpt lat="46.87764" lon="8.52648">
        <ele>1712</ele>
        <time>2021-08-11T09:45:47.439Z</time>
      </trkpt>
      <trkpt lat="46.87763" lon="8.52647">
        <ele>1712</ele>
        <time>2021-08-11T09:45:48.439Z</time>
      </trkpt>
      <trkpt lat="46.87763" lon="8.52646">
        <ele>1712</ele>
        <time>2021-08-11T09:45:49.439Z</time>
      </trkpt>
      <trkpt lat="46.87762" lon="8.52645">
        <ele>1712</ele>
        <time>2021-08-11T09:45:50.440Z</time>
      </trkpt>
      <trkpt lat="46.87761" lon="8.52644">
        <ele>1712</ele>
        <time>2021-08-11T09:45:51.439Z</time>
      </trkpt>
      <trkpt lat="46.8776" lon="8.52644">
        <ele>1712</ele>
        <time>2021-08-11T09:45:52.440Z</time>
      </trkpt>
      <trkpt lat="46.8776" lon="8.52644">
        <ele>1712</ele>
        <time>2021-08-11T09:45:53.440Z</time>
      </trkpt>
      <trkpt lat="46.87759" lon="8.52645">
        <ele>1712</ele>
        <time>2021-08-11T09:45:54.440Z</time>
      </trkpt>
      <trkpt lat="46.87759" lon="8.52645">
        <ele>1712</ele>
        <time>2021-08-11T09:45:55.440Z</time>
      </trkpt>
      <trkpt lat="46.87758" lon="8.52645">
        <ele>1712</ele>
        <time>2021-08-11T09:45:56.440Z</time>
      </trkpt>
      <trkpt lat="46.87758" lon="8.52645">
        <ele>1713</ele>
        <time>2021-08-11T09:45:57.440Z</time>
      </trkpt>
      <trkpt lat="46.87758" lon="8.52646">
        <ele>1713</ele>
        <time>2021-08-11T09:45:58.440Z</time>
      </trkpt>
      <trkpt lat="46.87757" lon="8.52645">
        <ele>1714</ele>
        <time>2021-08-11T09:45:59.439Z</time>
      </trkpt>
      <trkpt lat="46.87757" lon="8.52645">
        <ele>1715</ele>
        <time>2021-08-11T09:46:00.440Z</time>
      </trkpt>
      <trkpt lat="46.87757" lon="8.52645">
        <ele>1715</ele>
        <time>2021-08-11T09:46:01.439Z</time>
      </trkpt>
      <trkpt lat="46.87756" lon="8.52645">
        <ele>1716</ele>
        <time>2021-08-11T09:46:02.440Z</time>
      </trkpt>
      <trkpt lat="46.87756" lon="8.52645">
        <ele>1716</ele>
        <time>2021-08-11T09:46:03.439Z</time>
      </trkpt>
      <trkpt lat="46.87756" lon="8.52645">
        <ele>1715</ele>
        <time>2021-08-11T09:46:04.440Z</time>
      </trkpt>
      <trkpt lat="46.87755" lon="8.52645">
        <ele>1715</ele>
        <time>2021-08-11T09:46:05.440Z</time>
      </trkpt>
      <trkpt lat="46.87755" lon="8.52645">
        <ele>1715</ele>
        <time>2021-08-11T09:46:06.440Z</time>
      </trkpt>
      <trkpt lat="46.87754" lon="8.52644">
        <ele>1715</ele>
        <time>2021-08-11T09:46:07.440Z</time>
      </trkpt>
      <trkpt lat="46.87754" lon="8.52644">
        <ele>1715</ele>
        <time>2021-08-11T09:46:08.440Z</time>
      </trkpt>
      <trkpt lat="46.87753" lon="8.52644">
        <ele>1716</ele>
        <time>2021-08-11T09:46:09.440Z</time>
      </trkpt>
      <trkpt lat="46.87753" lon="8.52643">
        <ele>1717</ele>
        <time>2021-08-11T09:46:10.439Z</time>
      </trkpt>
      <trkpt lat="46.87752" lon="8.52643">
        <ele>1717</ele>
        <time>2021-08-11T09:46:11.440Z</time>
      </trkpt>
      <trkpt lat="46.87751" lon="8.52642">
        <ele>1717</ele>
        <time>2021-08-11T09:46:12.440Z</time>
      </trkpt>
      <trkpt lat="46.87751" lon="8.52642">
        <ele>1717</ele>
        <time>2021-08-11T09:46:13.440Z</time>
      </trkpt>
      <trkpt lat="46.8775" lon="8.52641">
        <ele>1717</ele>
        <time>2021-08-11T09:46:14.440Z</time>
      </trkpt>
      <trkpt lat="46.8775" lon="8.52641">
        <ele>1717</ele>
        <time>2021-08-11T09:46:15.440Z</time>
      </trkpt>
      <trkpt lat="46.87749" lon="8.52641">
        <ele>1717</ele>
        <time>2021-08-11T09:46:16.440Z</time>
      </trkpt>
      <trkpt lat="46.87749" lon="8.52642">
        <ele>1717</ele>
        <time>2021-08-11T09:46:17.440Z</time>
      </trkpt>
      <trkpt lat="46.87748" lon="8.52642">
        <ele>1718</ele>
        <time>2021-08-11T09:46:18.439Z</time>
      </trkpt>
      <trkpt lat="46.87748" lon="8.52642">
        <ele>1718</ele>
        <time>2021-08-11T09:46:19.439Z</time>
      </trkpt>
      <trkpt lat="46.87748" lon="8.52642">
        <ele>1718</ele>
        <time>2021-08-11T09:46:20.439Z</time>
      </trkpt>
      <trkpt lat="46.87747" lon="8.52642">
        <ele>1719</ele>
        <time>2021-08-11T09:46:21.440Z</time>
      </trkpt>
      <trkpt lat="46.87747" lon="8.52642">
        <ele>1718</ele>
        <time>2021-08-11T09:46:22.440Z</time>
      </trkpt>
      <trkpt lat="46.87746" lon="8.52642">
        <ele>1718</ele>
        <time>2021-08-11T09:46:23.440Z</time>
      </trkpt>
      <trkpt lat="46.87746" lon="8.52642">
        <ele>1718</ele>
        <time>2021-08-11T09:46:24.439Z</time>
      </trkpt>
      <trkpt lat="46.87745" lon="8.52642">
        <ele>1718</ele>
        <time>2021-08-11T09:46:25.440Z</time>
      </trkpt>
      <trkpt lat="46.87745" lon="8.52642">
        <ele>1718</ele>
        <time>2021-08-11T09:46:26.440Z</time>
      </trkpt>
      <trkpt lat="46.87744" lon="8.52642">
        <ele>1718</ele>
        <time>2021-08-11T09:46:27.440Z</time>
      </trkpt>
      <trkpt lat="46.87744" lon="8.52642">
        <ele>1718</ele>
        <time>2021-08-11T09:46:28.439Z</time>
      </trkpt>
      <trkpt lat="46.87743" lon="8.52642">
        <ele>1718</ele>
        <time>2021-08-11T09:46:29.440Z</time>
      </trkpt>
      <trkpt lat="46.87742" lon="8.52642">
        <ele>1719</ele>
        <time>2021-08-11T09:46:30.440Z</time>
      </trkpt>
      <trkpt lat="46.8774" lon="8.52643">
        <ele>1719</ele>
        <time>2021-08-11T09:46:31.440Z</time>
      </trkpt>
      <trkpt lat="46.87739" lon="8.52643">
        <ele>1720</ele>
        <time>2021-08-11T09:46:32.440Z</time>
      </trkpt>
      <trkpt lat="46.87739" lon="8.52644">
        <ele>1721</ele>
        <time>2021-08-11T09:46:33.439Z</time>
      </trkpt>
      <trkpt lat="46.87738" lon="8.52644">
        <ele>1721</ele>
        <time>2021-08-11T09:46:34.440Z</time>
      </trkpt>
      <trkpt lat="46.87737" lon="8.52646">
        <ele>1722</ele>
        <time>2021-08-11T09:46:35.440Z</time>
      </trkpt>
      <trkpt lat="46.87737" lon="8.52647">
        <ele>1723</ele>
        <time>2021-08-11T09:46:36.440Z</time>
      </trkpt>
      <trkpt lat="46.87736" lon="8.52648">
        <ele>1723</ele>
        <time>2021-08-11T09:46:37.439Z</time>
      </trkpt>
      <trkpt lat="46.87735" lon="8.52649">
        <ele>1723</ele>
        <time>2021-08-11T09:46:38.440Z</time>
      </trkpt>
      <trkpt lat="46.87735" lon="8.5265">
        <ele>1722</ele>
        <time>2021-08-11T09:46:39.439Z</time>
      </trkpt>
      <trkpt lat="46.87734" lon="8.52651">
        <ele>1722</ele>
        <time>2021-08-11T09:46:40.439Z</time>
      </trkpt>
      <trkpt lat="46.87733" lon="8.52652">
        <ele>1722</ele>
        <time>2021-08-11T09:46:41.440Z</time>
      </trkpt>
      <trkpt lat="46.87732" lon="8.52653">
        <ele>1722</ele>
        <time>2021-08-11T09:46:42.439Z</time>
      </trkpt>
      <trkpt lat="46.87731" lon="8.52653">
        <ele>1722</ele>
        <time>2021-08-11T09:46:43.440Z</time>
      </trkpt>
      <trkpt lat="46.8773" lon="8.52654">
        <ele>1722</ele>
        <time>2021-08-11T09:46:44.439Z</time>
      </trkpt>
      <trkpt lat="46.87729" lon="8.52654">
        <ele>1722</ele>
        <time>2021-08-11T09:46:45.440Z</time>
      </trkpt>
      <trkpt lat="46.87729" lon="8.52655">
        <ele>1722</ele>
        <time>2021-08-11T09:46:46.440Z</time>
      </trkpt>
      <trkpt lat="46.87728" lon="8.52655">
        <ele>1723</ele>
        <time>2021-08-11T09:46:47.440Z</time>
      </trkpt>
      <trkpt lat="46.87727" lon="8.52656">
        <ele>1723</ele>
        <time>2021-08-11T09:46:48.440Z</time>
      </trkpt>
      <trkpt lat="46.87726" lon="8.52656">
        <ele>1723</ele>
        <time>2021-08-11T09:46:49.439Z</time>
      </trkpt>
      <trkpt lat="46.87725" lon="8.52657">
        <ele>1723</ele>
        <time>2021-08-11T09:46:50.440Z</time>
      </trkpt>
      <trkpt lat="46.87725" lon="8.52658">
        <ele>1722</ele>
        <time>2021-08-11T09:46:51.439Z</time>
      </trkpt>
      <trkpt lat="46.87725" lon="8.52659">
        <ele>1722</ele>
        <time>2021-08-11T09:46:52.440Z</time>
      </trkpt>
      <trkpt lat="46.87724" lon="8.5266">
        <ele>1721</ele>
        <time>2021-08-11T09:46:53.440Z</time>
      </trkpt>
      <trkpt lat="46.87724" lon="8.5266">
        <ele>1720</ele>
        <time>2021-08-11T09:46:54.440Z</time>
      </trkpt>
      <trkpt lat="46.87723" lon="8.5266">
        <ele>1720</ele>
        <time>2021-08-11T09:46:55.439Z</time>
      </trkpt>
      <trkpt lat="46.87722" lon="8.5266">
        <ele>1720</ele>
        <time>2021-08-11T09:46:56.440Z</time>
      </trkpt>
      <trkpt lat="46.87722" lon="8.52659">
        <ele>1721</ele>
        <time>2021-08-11T09:46:57.440Z</time>
      </trkpt>
      <trkpt lat="46.87721" lon="8.52659">
        <ele>1721</ele>
        <time>2021-08-11T09:46:58.440Z</time>
      </trkpt>
      <trkpt lat="46.8772" lon="8.52658">
        <ele>1720</ele>
        <time>2021-08-11T09:46:59.439Z</time>
      </trkpt>
      <trkpt lat="46.8772" lon="8.52657">
        <ele>1720</ele>
        <time>2021-08-11T09:47:00.439Z</time>
      </trkpt>
      <trkpt lat="46.87719" lon="8.52656">
        <ele>1720</ele>
        <time>2021-08-11T09:47:01.440Z</time>
      </trkpt>
      <trkpt lat="46.87718" lon="8.52656">
        <ele>1719</ele>
        <time>2021-08-11T09:47:02.440Z</time>
      </trkpt>
      <trkpt lat="46.87718" lon="8.52655">
        <ele>1719</ele>
        <time>2021-08-11T09:47:03.440Z</time>
      </trkpt>
      <trkpt lat="46.87717" lon="8.52654">
        <ele>1719</ele>
        <time>2021-08-11T09:47:04.439Z</time>
      </trkpt>
      <trkpt lat="46.87717" lon="8.52654">
        <ele>1718</ele>
        <time>2021-08-11T09:47:05.440Z</time>
      </trkpt>
      <trkpt lat="46.87717" lon="8.52654">
        <ele>1718</ele>
        <time>2021-08-11T09:47:06.440Z</time>
      </trkpt>
      <trkpt lat="46.87716" lon="8.52653">
        <ele>1718</ele>
        <time>2021-08-11T09:47:07.440Z</time>
      </trkpt>
      <trkpt lat="46.87716" lon="8.52652">
        <ele>1718</ele>
        <time>2021-08-11T09:47:08.440Z</time>
      </trkpt>
      <trkpt lat="46.87716" lon="8.52652">
        <ele>1719</ele>
        <time>2021-08-11T09:47:09.440Z</time>
      </trkpt>
      <trkpt lat="46.87715" lon="8.52651">
        <ele>1719</ele>
        <time>2021-08-11T09:47:10.439Z</time>
      </trkpt>
      <trkpt lat="46.87715" lon="8.52651">
        <ele>1719</ele>
        <time>2021-08-11T09:47:11.439Z</time>
      </trkpt>
      <trkpt lat="46.87715" lon="8.5265">
        <ele>1719</ele>
        <time>2021-08-11T09:47:12.440Z</time>
      </trkpt>
      <trkpt lat="46.87714" lon="8.5265">
        <ele>1719</ele>
        <time>2021-08-11T09:47:13.439Z</time>
      </trkpt>
      <trkpt lat="46.87714" lon="8.5265">
        <ele>1719</ele>
        <time>2021-08-11T09:47:14.440Z</time>
      </trkpt>
      <trkpt lat="46.87713" lon="8.52649">
        <ele>1720</ele>
        <time>2021-08-11T09:47:15.440Z</time>
      </trkpt>
      <trkpt lat="46.87713" lon="8.52649">
        <ele>1720</ele>
        <time>2021-08-11T09:47:16.440Z</time>
      </trkpt>
      <trkpt lat="46.87712" lon="8.52648">
        <ele>1721</ele>
        <time>2021-08-11T09:47:17.440Z</time>
      </trkpt>
      <trkpt lat="46.87712" lon="8.52647">
        <ele>1721</ele>
        <time>2021-08-11T09:47:18.440Z</time>
      </trkpt>
      <trkpt lat="46.87711" lon="8.52647">
        <ele>1721</ele>
        <time>2021-08-11T09:47:19.439Z</time>
      </trkpt>
      <trkpt lat="46.87711" lon="8.52646">
        <ele>1720</ele>
        <time>2021-08-11T09:47:20.440Z</time>
      </trkpt>
      <trkpt lat="46.8771" lon="8.52646">
        <ele>1720</ele>
        <time>2021-08-11T09:47:21.439Z</time>
      </trkpt>
      <trkpt lat="46.8771" lon="8.52645">
        <ele>1720</ele>
        <time>2021-08-11T09:47:22.440Z</time>
      </trkpt>
      <trkpt lat="46.87709" lon="8.52644">
        <ele>1720</ele>
        <time>2021-08-11T09:47:23.440Z</time>
      </trkpt>
      <trkpt lat="46.87709" lon="8.52642">
        <ele>1721</ele>
        <time>2021-08-11T09:47:24.440Z</time>
      </trkpt>
      <trkpt lat="46.87708" lon="8.52642">
        <ele>1721</ele>
        <time>2021-08-11T09:47:25.440Z</time>
      </trkpt>
      <trkpt lat="46.87708" lon="8.5264">
        <ele>1721</ele>
        <time>2021-08-11T09:47:26.439Z</time>
      </trkpt>
      <trkpt lat="46.87707" lon="8.52639">
        <ele>1721</ele>
        <time>2021-08-11T09:47:27.440Z</time>
      </trkpt>
      <trkpt lat="46.87707" lon="8.52638">
        <ele>1721</ele>
        <time>2021-08-11T09:47:28.440Z</time>
      </trkpt>
      <trkpt lat="46.87707" lon="8.52637">
        <ele>1721</ele>
        <time>2021-08-11T09:47:29.440Z</time>
      </trkpt>
      <trkpt lat="46.87707" lon="8.52636">
        <ele>1721</ele>
        <time>2021-08-11T09:47:30.440Z</time>
      </trkpt>
      <trkpt lat="46.87706" lon="8.52635">
        <ele>1720</ele>
        <time>2021-08-11T09:47:31.440Z</time>
      </trkpt>
      <trkpt lat="46.87706" lon="8.52634">
        <ele>1720</ele>
        <time>2021-08-11T09:47:32.439Z</time>
      </trkpt>
      <trkpt lat="46.87706" lon="8.52634">
        <ele>1720</ele>
        <time>2021-08-11T09:47:33.440Z</time>
      </trkpt>
      <trkpt lat="46.87706" lon="8.52633">
        <ele>1720</ele>
        <time>2021-08-11T09:47:34.440Z</time>
      </trkpt>
      <trkpt lat="46.87706" lon="8.52632">
        <ele>1720</ele>
        <time>2021-08-11T09:47:35.439Z</time>
      </trkpt>
      <trkpt lat="46.87706" lon="8.52632">
        <ele>1720</ele>
        <time>2021-08-11T09:47:36.440Z</time>
      </trkpt>
      <trkpt lat="46.87706" lon="8.52631">
        <ele>1720</ele>
        <time>2021-08-11T09:47:37.440Z</time>
      </trkpt>
      <trkpt lat="46.87706" lon="8.5263">
        <ele>1720</ele>
        <time>2021-08-11T09:47:38.440Z</time>
      </trkpt>
      <trkpt lat="46.87707" lon="8.5263">
        <ele>1720</ele>
        <time>2021-08-11T09:47:39.439Z</time>
      </trkpt>
      <trkpt lat="46.87707" lon="8.52629">
        <ele>1720</ele>
        <time>2021-08-11T09:47:40.439Z</time>
      </trkpt>
      <trkpt lat="46.87707" lon="8.52628">
        <ele>1720</ele>
        <time>2021-08-11T09:47:41.439Z</time>
      </trkpt>
      <trkpt lat="46.87707" lon="8.52627">
        <ele>1720</ele>
        <time>2021-08-11T09:47:42.439Z</time>
      </trkpt>
      <trkpt lat="46.87707" lon="8.52626">
        <ele>1719</ele>
        <time>2021-08-11T09:47:43.440Z</time>
      </trkpt>
      <trkpt lat="46.87707" lon="8.52625">
        <ele>1719</ele>
        <time>2021-08-11T09:47:44.439Z</time>
      </trkpt>
      <trkpt lat="46.87707" lon="8.52624">
        <ele>1719</ele>
        <time>2021-08-11T09:47:45.439Z</time>
      </trkpt>
      <trkpt lat="46.87707" lon="8.52623">
        <ele>1719</ele>
        <time>2021-08-11T09:47:46.439Z</time>
      </trkpt>
      <trkpt lat="46.87707" lon="8.52622">
        <ele>1719</ele>
        <time>2021-08-11T09:47:47.440Z</time>
      </trkpt>
      <trkpt lat="46.87706" lon="8.52621">
        <ele>1719</ele>
        <time>2021-08-11T09:47:48.440Z</time>
      </trkpt>
      <trkpt lat="46.87706" lon="8.5262">
        <ele>1719</ele>
        <time>2021-08-11T09:47:49.439Z</time>
      </trkpt>
      <trkpt lat="46.87706" lon="8.52619">
        <ele>1720</ele>
        <time>2021-08-11T09:47:50.439Z</time>
      </trkpt>
      <trkpt lat="46.87706" lon="8.52617">
        <ele>1720</ele>
        <time>2021-08-11T09:47:51.440Z</time>
      </trkpt>
      <trkpt lat="46.87706" lon="8.52615">
        <ele>1721</ele>
        <time>2021-08-11T09:47:52.440Z</time>
      </trkpt>
      <trkpt lat="46.87706" lon="8.52614">
        <ele>1721</ele>
        <time>2021-08-11T09:47:53.440Z</time>
      </trkpt>
      <trkpt lat="46.87705" lon="8.52612">
        <ele>1721</ele>
        <time>2021-08-11T09:47:54.440Z</time>
      </trkpt>
      <trkpt lat="46.87705" lon="8.52611">
        <ele>1721</ele>
        <time>2021-08-11T09:47:55.439Z</time>
      </trkpt>
      <trkpt lat="46.87705" lon="8.5261">
        <ele>1721</ele>
        <time>2021-08-11T09:47:56.440Z</time>
      </trkpt>
      <trkpt lat="46.87704" lon="8.52609">
        <ele>1722</ele>
        <time>2021-08-11T09:47:57.440Z</time>
      </trkpt>
      <trkpt lat="46.87704" lon="8.52607">
        <ele>1722</ele>
        <time>2021-08-11T09:47:58.440Z</time>
      </trkpt>
      <trkpt lat="46.87704" lon="8.52606">
        <ele>1722</ele>
        <time>2021-08-11T09:47:59.439Z</time>
      </trkpt>
      <trkpt lat="46.87703" lon="8.52604">
        <ele>1722</ele>
        <time>2021-08-11T09:48:00.440Z</time>
      </trkpt>
      <trkpt lat="46.87703" lon="8.52603">
        <ele>1722</ele>
        <time>2021-08-11T09:48:01.440Z</time>
      </trkpt>
      <trkpt lat="46.87703" lon="8.52601">
        <ele>1722</ele>
        <time>2021-08-11T09:48:02.440Z</time>
      </trkpt>
      <trkpt lat="46.87702" lon="8.526">
        <ele>1722</ele>
        <time>2021-08-11T09:48:03.440Z</time>
      </trkpt>
      <trkpt lat="46.87702" lon="8.52599">
        <ele>1722</ele>
        <time>2021-08-11T09:48:04.439Z</time>
      </trkpt>
      <trkpt lat="46.87701" lon="8.52599">
        <ele>1722</ele>
        <time>2021-08-11T09:48:05.439Z</time>
      </trkpt>
      <trkpt lat="46.87701" lon="8.52599">
        <ele>1722</ele>
        <time>2021-08-11T09:48:06.439Z</time>
      </trkpt>
      <trkpt lat="46.877" lon="8.52598">
        <ele>1722</ele>
        <time>2021-08-11T09:48:07.440Z</time>
      </trkpt>
      <trkpt lat="46.877" lon="8.52596">
        <ele>1722</ele>
        <time>2021-08-11T09:48:08.440Z</time>
      </trkpt>
      <trkpt lat="46.87699" lon="8.52595">
        <ele>1722</ele>
        <time>2021-08-11T09:48:09.439Z</time>
      </trkpt>
      <trkpt lat="46.87698" lon="8.52594">
        <ele>1722</ele>
        <time>2021-08-11T09:48:10.439Z</time>
      </trkpt>
      <trkpt lat="46.87698" lon="8.52593">
        <ele>1721</ele>
        <time>2021-08-11T09:48:11.440Z</time>
      </trkpt>
      <trkpt lat="46.87697" lon="8.52592">
        <ele>1721</ele>
        <time>2021-08-11T09:48:12.439Z</time>
      </trkpt>
      <trkpt lat="46.87697" lon="8.5259">
        <ele>1721</ele>
        <time>2021-08-11T09:48:13.440Z</time>
      </trkpt>
      <trkpt lat="46.87697" lon="8.52589">
        <ele>1721</ele>
        <time>2021-08-11T09:48:14.439Z</time>
      </trkpt>
      <trkpt lat="46.87697" lon="8.52588">
        <ele>1721</ele>
        <time>2021-08-11T09:48:15.440Z</time>
      </trkpt>
      <trkpt lat="46.87697" lon="8.52586">
        <ele>1721</ele>
        <time>2021-08-11T09:48:16.440Z</time>
      </trkpt>
      <trkpt lat="46.87696" lon="8.52585">
        <ele>1721</ele>
        <time>2021-08-11T09:48:17.440Z</time>
      </trkpt>
      <trkpt lat="46.87696" lon="8.52584">
        <ele>1721</ele>
        <time>2021-08-11T09:48:18.440Z</time>
      </trkpt>
      <trkpt lat="46.87695" lon="8.52583">
        <ele>1721</ele>
        <time>2021-08-11T09:48:19.440Z</time>
      </trkpt>
      <trkpt lat="46.87695" lon="8.52582">
        <ele>1721</ele>
        <time>2021-08-11T09:48:20.439Z</time>
      </trkpt>
      <trkpt lat="46.87694" lon="8.52581">
        <ele>1721</ele>
        <time>2021-08-11T09:48:21.439Z</time>
      </trkpt>
      <trkpt lat="46.87694" lon="8.5258">
        <ele>1722</ele>
        <time>2021-08-11T09:48:22.440Z</time>
      </trkpt>
      <trkpt lat="46.87693" lon="8.52579">
        <ele>1722</ele>
        <time>2021-08-11T09:48:23.440Z</time>
      </trkpt>
      <trkpt lat="46.87693" lon="8.52578">
        <ele>1722</ele>
        <time>2021-08-11T09:48:24.440Z</time>
      </trkpt>
      <trkpt lat="46.87693" lon="8.52576">
        <ele>1722</ele>
        <time>2021-08-11T09:48:25.439Z</time>
      </trkpt>
      <trkpt lat="46.87694" lon="8.52575">
        <ele>1721</ele>
        <time>2021-08-11T09:48:26.440Z</time>
      </trkpt>
      <trkpt lat="46.87694" lon="8.52574">
        <ele>1721</ele>
        <time>2021-08-11T09:48:27.439Z</time>
      </trkpt>
      <trkpt lat="46.87694" lon="8.52573">
        <ele>1721</ele>
        <time>2021-08-11T09:48:28.440Z</time>
      </trkpt>
      <trkpt lat="46.87694" lon="8.52572">
        <ele>1721</ele>
        <time>2021-08-11T09:48:29.439Z</time>
      </trkpt>
      <trkpt lat="46.87694" lon="8.52571">
        <ele>1721</ele>
        <time>2021-08-11T09:48:30.440Z</time>
      </trkpt>
      <trkpt lat="46.87695" lon="8.52569">
        <ele>1720</ele>
        <time>2021-08-11T09:48:31.440Z</time>
      </trkpt>
      <trkpt lat="46.87695" lon="8.52568">
        <ele>1720</ele>
        <time>2021-08-11T09:48:32.440Z</time>
      </trkpt>
      <trkpt lat="46.87695" lon="8.52567">
        <ele>1719</ele>
        <time>2021-08-11T09:48:33.440Z</time>
      </trkpt>
      <trkpt lat="46.87695" lon="8.52565">
        <ele>1719</ele>
        <time>2021-08-11T09:48:34.440Z</time>
      </trkpt>
      <trkpt lat="46.87695" lon="8.52563">
        <ele>1718</ele>
        <time>2021-08-11T09:48:35.440Z</time>
      </trkpt>
      <trkpt lat="46.87695" lon="8.52562">
        <ele>1717</ele>
        <time>2021-08-11T09:48:36.440Z</time>
      </trkpt>
      <trkpt lat="46.87695" lon="8.5256">
        <ele>1717</ele>
        <time>2021-08-11T09:48:37.439Z</time>
      </trkpt>
      <trkpt lat="46.87694" lon="8.52559">
        <ele>1716</ele>
        <time>2021-08-11T09:48:38.439Z</time>
      </trkpt>
      <trkpt lat="46.87694" lon="8.52557">
        <ele>1716</ele>
        <time>2021-08-11T09:48:39.439Z</time>
      </trkpt>
      <trkpt lat="46.87693" lon="8.52555">
        <ele>1716</ele>
        <time>2021-08-11T09:48:40.439Z</time>
      </trkpt>
      <trkpt lat="46.87693" lon="8.52554">
        <ele>1715</ele>
        <time>2021-08-11T09:48:41.440Z</time>
      </trkpt>
      <trkpt lat="46.87693" lon="8.52552">
        <ele>1715</ele>
        <time>2021-08-11T09:48:42.440Z</time>
      </trkpt>
      <trkpt lat="46.87693" lon="8.52551">
        <ele>1715</ele>
        <time>2021-08-11T09:48:43.440Z</time>
      </trkpt>
      <trkpt lat="46.87692" lon="8.5255">
        <ele>1715</ele>
        <time>2021-08-11T09:48:44.439Z</time>
      </trkpt>
      <trkpt lat="46.87692" lon="8.52549">
        <ele>1714</ele>
        <time>2021-08-11T09:48:45.440Z</time>
      </trkpt>
      <trkpt lat="46.87691" lon="8.52547">
        <ele>1714</ele>
        <time>2021-08-11T09:48:46.440Z</time>
      </trkpt>
      <trkpt lat="46.87691" lon="8.52546">
        <ele>1714</ele>
        <time>2021-08-11T09:48:47.440Z</time>
      </trkpt>
      <trkpt lat="46.87691" lon="8.52545">
        <ele>1713</ele>
        <time>2021-08-11T09:48:48.440Z</time>
      </trkpt>
      <trkpt lat="46.8769" lon="8.52543">
        <ele>1713</ele>
        <time>2021-08-11T09:48:49.439Z</time>
      </trkpt>
      <trkpt lat="46.8769" lon="8.52542">
        <ele>1713</ele>
        <time>2021-08-11T09:48:50.439Z</time>
      </trkpt>
      <trkpt lat="46.87689" lon="8.52541">
        <ele>1712</ele>
        <time>2021-08-11T09:48:51.440Z</time>
      </trkpt>
      <trkpt lat="46.87688" lon="8.5254">
        <ele>1712</ele>
        <time>2021-08-11T09:48:52.440Z</time>
      </trkpt>
      <trkpt lat="46.87688" lon="8.5254">
        <ele>1712</ele>
        <time>2021-08-11T09:48:53.440Z</time>
      </trkpt>
      <trkpt lat="46.87687" lon="8.52539">
        <ele>1712</ele>
        <time>2021-08-11T09:48:54.440Z</time>
      </trkpt>
      <trkpt lat="46.87686" lon="8.52538">
        <ele>1713</ele>
        <time>2021-08-11T09:48:55.440Z</time>
      </trkpt>
      <trkpt lat="46.87686" lon="8.52537">
        <ele>1713</ele>
        <time>2021-08-11T09:48:56.440Z</time>
      </trkpt>
      <trkpt lat="46.87685" lon="8.52537">
        <ele>1714</ele>
        <time>2021-08-11T09:48:57.439Z</time>
      </trkpt>
      <trkpt lat="46.87684" lon="8.52536">
        <ele>1714</ele>
        <time>2021-08-11T09:48:58.440Z</time>
      </trkpt>
      <trkpt lat="46.87684" lon="8.52535">
        <ele>1714</ele>
        <time>2021-08-11T09:48:59.440Z</time>
      </trkpt>
      <trkpt lat="46.87683" lon="8.52534">
        <ele>1714</ele>
        <time>2021-08-11T09:49:00.440Z</time>
      </trkpt>
      <trkpt lat="46.87683" lon="8.52533">
        <ele>1713</ele>
        <time>2021-08-11T09:49:01.440Z</time>
      </trkpt>
      <trkpt lat="46.87683" lon="8.52532">
        <ele>1713</ele>
        <time>2021-08-11T09:49:02.440Z</time>
      </trkpt>
      <trkpt lat="46.87682" lon="8.5253">
        <ele>1713</ele>
        <time>2021-08-11T09:49:03.440Z</time>
      </trkpt>
      <trkpt lat="46.87682" lon="8.5253">
        <ele>1713</ele>
        <time>2021-08-11T09:49:04.440Z</time>
      </trkpt>
      <trkpt lat="46.87682" lon="8.52529">
        <ele>1713</ele>
        <time>2021-08-11T09:49:05.440Z</time>
      </trkpt>
      <trkpt lat="46.87681" lon="8.52527">
        <ele>1713</ele>
        <time>2021-08-11T09:49:06.439Z</time>
      </trkpt>
      <trkpt lat="46.8768" lon="8.52526">
        <ele>1713</ele>
        <time>2021-08-11T09:49:07.439Z</time>
      </trkpt>
      <trkpt lat="46.8768" lon="8.52525">
        <ele>1713</ele>
        <time>2021-08-11T09:49:08.440Z</time>
      </trkpt>
      <trkpt lat="46.87679" lon="8.52524">
        <ele>1713</ele>
        <time>2021-08-11T09:49:09.440Z</time>
      </trkpt>
      <trkpt lat="46.87679" lon="8.52523">
        <ele>1714</ele>
        <time>2021-08-11T09:49:10.439Z</time>
      </trkpt>
      <trkpt lat="46.87678" lon="8.52522">
        <ele>1713</ele>
        <time>2021-08-11T09:49:11.440Z</time>
      </trkpt>
      <trkpt lat="46.87678" lon="8.5252">
        <ele>1713</ele>
        <time>2021-08-11T09:49:12.439Z</time>
      </trkpt>
      <trkpt lat="46.87677" lon="8.52519">
        <ele>1713</ele>
        <time>2021-08-11T09:49:13.440Z</time>
      </trkpt>
      <trkpt lat="46.87677" lon="8.52519">
        <ele>1713</ele>
        <time>2021-08-11T09:49:14.439Z</time>
      </trkpt>
      <trkpt lat="46.87676" lon="8.52518">
        <ele>1713</ele>
        <time>2021-08-11T09:49:15.439Z</time>
      </trkpt>
      <trkpt lat="46.87676" lon="8.52517">
        <ele>1714</ele>
        <time>2021-08-11T09:49:16.440Z</time>
      </trkpt>
      <trkpt lat="46.87676" lon="8.52517">
        <ele>1713</ele>
        <time>2021-08-11T09:49:17.440Z</time>
      </trkpt>
      <trkpt lat="46.87675" lon="8.52516">
        <ele>1713</ele>
        <time>2021-08-11T09:49:18.440Z</time>
      </trkpt>
      <trkpt lat="46.87674" lon="8.52516">
        <ele>1713</ele>
        <time>2021-08-11T09:49:19.440Z</time>
      </trkpt>
      <trkpt lat="46.87674" lon="8.52515">
        <ele>1713</ele>
        <time>2021-08-11T09:49:20.439Z</time>
      </trkpt>
      <trkpt lat="46.87674" lon="8.52514">
        <ele>1712</ele>
        <time>2021-08-11T09:49:21.440Z</time>
      </trkpt>
      <trkpt lat="46.87673" lon="8.52514">
        <ele>1712</ele>
        <time>2021-08-11T09:49:22.440Z</time>
      </trkpt>
      <trkpt lat="46.87672" lon="8.52513">
        <ele>1712</ele>
        <time>2021-08-11T09:49:23.439Z</time>
      </trkpt>
      <trkpt lat="46.87672" lon="8.52512">
        <ele>1712</ele>
        <time>2021-08-11T09:49:24.439Z</time>
      </trkpt>
      <trkpt lat="46.87671" lon="8.52512">
        <ele>1712</ele>
        <time>2021-08-11T09:49:25.439Z</time>
      </trkpt>
      <trkpt lat="46.87671" lon="8.52511">
        <ele>1712</ele>
        <time>2021-08-11T09:49:26.440Z</time>
      </trkpt>
      <trkpt lat="46.87671" lon="8.5251">
        <ele>1712</ele>
        <time>2021-08-11T09:49:27.440Z</time>
      </trkpt>
      <trkpt lat="46.8767" lon="8.52509">
        <ele>1713</ele>
        <time>2021-08-11T09:49:28.439Z</time>
      </trkpt>
      <trkpt lat="46.8767" lon="8.52508">
        <ele>1714</ele>
        <time>2021-08-11T09:49:29.440Z</time>
      </trkpt>
      <trkpt lat="46.87669" lon="8.52507">
        <ele>1714</ele>
        <time>2021-08-11T09:49:30.440Z</time>
      </trkpt>
      <trkpt lat="46.87669" lon="8.52507">
        <ele>1715</ele>
        <time>2021-08-11T09:49:31.439Z</time>
      </trkpt>
      <trkpt lat="46.87668" lon="8.52506">
        <ele>1715</ele>
        <time>2021-08-11T09:49:32.440Z</time>
      </trkpt>
      <trkpt lat="46.87668" lon="8.52506">
        <ele>1715</ele>
        <time>2021-08-11T09:49:33.440Z</time>
      </trkpt>
      <trkpt lat="46.87668" lon="8.52505">
        <ele>1715</ele>
        <time>2021-08-11T09:49:34.440Z</time>
      </trkpt>
      <trkpt lat="46.87667" lon="8.52504">
        <ele>1716</ele>
        <time>2021-08-11T09:49:35.440Z</time>
      </trkpt>
      <trkpt lat="46.87667" lon="8.52503">
        <ele>1715</ele>
        <time>2021-08-11T09:49:36.439Z</time>
      </trkpt>
      <trkpt lat="46.87666" lon="8.52502">
        <ele>1715</ele>
        <time>2021-08-11T09:49:37.440Z</time>
      </trkpt>
      <trkpt lat="46.87665" lon="8.52501">
        <ele>1715</ele>
        <time>2021-08-11T09:49:38.440Z</time>
      </trkpt>
      <trkpt lat="46.87665" lon="8.52499">
        <ele>1715</ele>
        <time>2021-08-11T09:49:39.440Z</time>
      </trkpt>
      <trkpt lat="46.87665" lon="8.52498">
        <ele>1715</ele>
        <time>2021-08-11T09:49:40.439Z</time>
      </trkpt>
      <trkpt lat="46.87664" lon="8.52497">
        <ele>1716</ele>
        <time>2021-08-11T09:49:41.439Z</time>
      </trkpt>
      <trkpt lat="46.87663" lon="8.52496">
        <ele>1716</ele>
        <time>2021-08-11T09:49:42.440Z</time>
      </trkpt>
      <trkpt lat="46.87662" lon="8.52494">
        <ele>1716</ele>
        <time>2021-08-11T09:49:43.440Z</time>
      </trkpt>
      <trkpt lat="46.87662" lon="8.52493">
        <ele>1717</ele>
        <time>2021-08-11T09:49:44.440Z</time>
      </trkpt>
      <trkpt lat="46.87661" lon="8.52492">
        <ele>1716</ele>
        <time>2021-08-11T09:49:45.439Z</time>
      </trkpt>
      <trkpt lat="46.87661" lon="8.52491">
        <ele>1716</ele>
        <time>2021-08-11T09:49:46.440Z</time>
      </trkpt>
      <trkpt lat="46.8766" lon="8.5249">
        <ele>1715</ele>
        <time>2021-08-11T09:49:47.440Z</time>
      </trkpt>
      <trkpt lat="46.87659" lon="8.52489">
        <ele>1715</ele>
        <time>2021-08-11T09:49:48.440Z</time>
      </trkpt>
      <trkpt lat="46.87658" lon="8.52488">
        <ele>1715</ele>
        <time>2021-08-11T09:49:49.439Z</time>
      </trkpt>
      <trkpt lat="46.87658" lon="8.52487">
        <ele>1714</ele>
        <time>2021-08-11T09:49:50.440Z</time>
      </trkpt>
      <trkpt lat="46.87657" lon="8.52486">
        <ele>1714</ele>
        <time>2021-08-11T09:49:51.439Z</time>
      </trkpt>
      <trkpt lat="46.87657" lon="8.52485">
        <ele>1715</ele>
        <time>2021-08-11T09:49:52.440Z</time>
      </trkpt>
      <trkpt lat="46.87656" lon="8.52485">
        <ele>1715</ele>
        <time>2021-08-11T09:49:53.440Z</time>
      </trkpt>
      <trkpt lat="46.87655" lon="8.52484">
        <ele>1716</ele>
        <time>2021-08-11T09:49:54.440Z</time>
      </trkpt>
      <trkpt lat="46.87654" lon="8.52483">
        <ele>1716</ele>
        <time>2021-08-11T09:49:55.440Z</time>
      </trkpt>
      <trkpt lat="46.87654" lon="8.52483">
        <ele>1717</ele>
        <time>2021-08-11T09:49:56.439Z</time>
      </trkpt>
      <trkpt lat="46.87653" lon="8.52482">
        <ele>1717</ele>
        <time>2021-08-11T09:49:57.440Z</time>
      </trkpt>
      <trkpt lat="46.87652" lon="8.52481">
        <ele>1717</ele>
        <time>2021-08-11T09:49:58.440Z</time>
      </trkpt>
      <trkpt lat="46.87651" lon="8.52481">
        <ele>1717</ele>
        <time>2021-08-11T09:49:59.440Z</time>
      </trkpt>
      <trkpt lat="46.87651" lon="8.5248">
        <ele>1717</ele>
        <time>2021-08-11T09:50:00.440Z</time>
      </trkpt>
      <trkpt lat="46.8765" lon="8.52479">
        <ele>1716</ele>
        <time>2021-08-11T09:50:01.439Z</time>
      </trkpt>
      <trkpt lat="46.87649" lon="8.52479">
        <ele>1716</ele>
        <time>2021-08-11T09:50:02.440Z</time>
      </trkpt>
      <trkpt lat="46.87649" lon="8.52478">
        <ele>1716</ele>
        <time>2021-08-11T09:50:03.440Z</time>
      </trkpt>
      <trkpt lat="46.87648" lon="8.52477">
        <ele>1716</ele>
        <time>2021-08-11T09:50:04.440Z</time>
      </trkpt>
      <trkpt lat="46.87647" lon="8.52476">
        <ele>1716</ele>
        <time>2021-08-11T09:50:05.440Z</time>
      </trkpt>
      <trkpt lat="46.87646" lon="8.52476">
        <ele>1717</ele>
        <time>2021-08-11T09:50:06.439Z</time>
      </trkpt>
      <trkpt lat="46.87645" lon="8.52475">
        <ele>1716</ele>
        <time>2021-08-11T09:50:07.439Z</time>
      </trkpt>
      <trkpt lat="46.87645" lon="8.52475">
        <ele>1716</ele>
        <time>2021-08-11T09:50:08.439Z</time>
      </trkpt>
      <trkpt lat="46.87644" lon="8.52475">
        <ele>1716</ele>
        <time>2021-08-11T09:50:09.440Z</time>
      </trkpt>
      <trkpt lat="46.87643" lon="8.52474">
        <ele>1716</ele>
        <time>2021-08-11T09:50:10.440Z</time>
      </trkpt>
      <trkpt lat="46.87642" lon="8.52473">
        <ele>1715</ele>
        <time>2021-08-11T09:50:11.440Z</time>
      </trkpt>
      <trkpt lat="46.87641" lon="8.52473">
        <ele>1715</ele>
        <time>2021-08-11T09:50:12.440Z</time>
      </trkpt>
      <trkpt lat="46.8764" lon="8.52473">
        <ele>1715</ele>
        <time>2021-08-11T09:50:13.439Z</time>
      </trkpt>
      <trkpt lat="46.8764" lon="8.52472">
        <ele>1714</ele>
        <time>2021-08-11T09:50:14.440Z</time>
      </trkpt>
      <trkpt lat="46.87639" lon="8.52471">
        <ele>1714</ele>
        <time>2021-08-11T09:50:15.440Z</time>
      </trkpt>
      <trkpt lat="46.87638" lon="8.52471">
        <ele>1714</ele>
        <time>2021-08-11T09:50:16.440Z</time>
      </trkpt>
      <trkpt lat="46.87637" lon="8.5247">
        <ele>1714</ele>
        <time>2021-08-11T09:50:17.440Z</time>
      </trkpt>
      <trkpt lat="46.87636" lon="8.5247">
        <ele>1714</ele>
        <time>2021-08-11T09:50:18.440Z</time>
      </trkpt>
      <trkpt lat="46.87636" lon="8.5247">
        <ele>1715</ele>
        <time>2021-08-11T09:50:19.439Z</time>
      </trkpt>
      <trkpt lat="46.87635" lon="8.52469">
        <ele>1716</ele>
        <time>2021-08-11T09:50:20.440Z</time>
      </trkpt>
      <trkpt lat="46.87634" lon="8.52469">
        <ele>1716</ele>
        <time>2021-08-11T09:50:21.439Z</time>
      </trkpt>
      <trkpt lat="46.87633" lon="8.52468">
        <ele>1717</ele>
        <time>2021-08-11T09:50:22.440Z</time>
      </trkpt>
      <trkpt lat="46.87633" lon="8.52468">
        <ele>1717</ele>
        <time>2021-08-11T09:50:23.439Z</time>
      </trkpt>
      <trkpt lat="46.87633" lon="8.52468">
        <ele>1717</ele>
        <time>2021-08-11T09:50:24.439Z</time>
      </trkpt>
      <trkpt lat="46.87633" lon="8.52469">
        <ele>1717</ele>
        <time>2021-08-11T09:50:25.440Z</time>
      </trkpt>
      <trkpt lat="46.87634" lon="8.52469">
        <ele>1717</ele>
        <time>2021-08-11T09:50:26.440Z</time>
      </trkpt>
      <trkpt lat="46.87633" lon="8.52468">
        <ele>1717</ele>
        <time>2021-08-11T09:50:27.441Z</time>
      </trkpt>
      <trkpt lat="46.87632" lon="8.52468">
        <ele>1718</ele>
        <time>2021-08-11T09:50:28.440Z</time>
      </trkpt>
      <trkpt lat="46.87631" lon="8.52467">
        <ele>1718</ele>
        <time>2021-08-11T09:50:29.440Z</time>
      </trkpt>
      <trkpt lat="46.8763" lon="8.52468">
        <ele>1718</ele>
        <time>2021-08-11T09:50:30.441Z</time>
      </trkpt>
      <trkpt lat="46.87629" lon="8.52467">
        <ele>1718</ele>
        <time>2021-08-11T09:50:31.440Z</time>
      </trkpt>
      <trkpt lat="46.87628" lon="8.52466">
        <ele>1718</ele>
        <time>2021-08-11T09:50:32.441Z</time>
      </trkpt>
      <trkpt lat="46.87627" lon="8.52466">
        <ele>1718</ele>
        <time>2021-08-11T09:50:33.441Z</time>
      </trkpt>
      <trkpt lat="46.87626" lon="8.52465">
        <ele>1718</ele>
        <time>2021-08-11T09:50:34.440Z</time>
      </trkpt>
      <trkpt lat="46.87624" lon="8.52465">
        <ele>1718</ele>
        <time>2021-08-11T09:50:35.441Z</time>
      </trkpt>
      <trkpt lat="46.87623" lon="8.52466">
        <ele>1717</ele>
        <time>2021-08-11T09:50:36.441Z</time>
      </trkpt>
      <trkpt lat="46.87622" lon="8.52466">
        <ele>1717</ele>
        <time>2021-08-11T09:50:37.441Z</time>
      </trkpt>
      <trkpt lat="46.87621" lon="8.52466">
        <ele>1717</ele>
        <time>2021-08-11T09:50:38.441Z</time>
      </trkpt>
      <trkpt lat="46.8762" lon="8.52466">
        <ele>1717</ele>
        <time>2021-08-11T09:50:39.440Z</time>
      </trkpt>
      <trkpt lat="46.87619" lon="8.52467">
        <ele>1716</ele>
        <time>2021-08-11T09:50:40.441Z</time>
      </trkpt>
      <trkpt lat="46.87618" lon="8.52467">
        <ele>1716</ele>
        <time>2021-08-11T09:50:41.441Z</time>
      </trkpt>
      <trkpt lat="46.87617" lon="8.52467">
        <ele>1715</ele>
        <time>2021-08-11T09:50:42.441Z</time>
      </trkpt>
      <trkpt lat="46.87616" lon="8.52467">
        <ele>1715</ele>
        <time>2021-08-11T09:50:43.440Z</time>
      </trkpt>
      <trkpt lat="46.87616" lon="8.52468">
        <ele>1715</ele>
        <time>2021-08-11T09:50:44.441Z</time>
      </trkpt>
      <trkpt lat="46.87615" lon="8.52468">
        <ele>1715</ele>
        <time>2021-08-11T09:50:45.441Z</time>
      </trkpt>
      <trkpt lat="46.87614" lon="8.52469">
        <ele>1714</ele>
        <time>2021-08-11T09:50:46.441Z</time>
      </trkpt>
      <trkpt lat="46.87614" lon="8.5247">
        <ele>1714</ele>
        <time>2021-08-11T09:50:47.441Z</time>
      </trkpt>
      <trkpt lat="46.87613" lon="8.52471">
        <ele>1713</ele>
        <time>2021-08-11T09:50:48.440Z</time>
      </trkpt>
      <trkpt lat="46.87612" lon="8.52472">
        <ele>1713</ele>
        <time>2021-08-11T09:50:49.441Z</time>
      </trkpt>
      <trkpt lat="46.87612" lon="8.52473">
        <ele>1713</ele>
        <time>2021-08-11T09:50:50.441Z</time>
      </trkpt>
      <trkpt lat="46.87611" lon="8.52474">
        <ele>1713</ele>
        <time>2021-08-11T09:50:51.440Z</time>
      </trkpt>
      <trkpt lat="46.87611" lon="8.52475">
        <ele>1713</ele>
        <time>2021-08-11T09:50:52.441Z</time>
      </trkpt>
      <trkpt lat="46.8761" lon="8.52476">
        <ele>1713</ele>
        <time>2021-08-11T09:50:53.441Z</time>
      </trkpt>
      <trkpt lat="46.87609" lon="8.52476">
        <ele>1713</ele>
        <time>2021-08-11T09:50:54.441Z</time>
      </trkpt>
      <trkpt lat="46.87609" lon="8.52475">
        <ele>1713</ele>
        <time>2021-08-11T09:50:55.441Z</time>
      </trkpt>
      <trkpt lat="46.87609" lon="8.52475">
        <ele>1713</ele>
        <time>2021-08-11T09:50:56.440Z</time>
      </trkpt>
      <trkpt lat="46.87609" lon="8.52475">
        <ele>1713</ele>
        <time>2021-08-11T09:50:57.441Z</time>
      </trkpt>
      <trkpt lat="46.87608" lon="8.52475">
        <ele>1713</ele>
        <time>2021-08-11T09:50:58.441Z</time>
      </trkpt>
      <trkpt lat="46.87608" lon="8.52475">
        <ele>1713</ele>
        <time>2021-08-11T09:50:59.441Z</time>
      </trkpt>
      <trkpt lat="46.87608" lon="8.52475">
        <ele>1713</ele>
        <time>2021-08-11T09:51:00.441Z</time>
      </trkpt>
      <trkpt lat="46.87607" lon="8.52476">
        <ele>1712</ele>
        <time>2021-08-11T09:51:01.441Z</time>
      </trkpt>
      <trkpt lat="46.87607" lon="8.52475">
        <ele>1711</ele>
        <time>2021-08-11T09:51:02.440Z</time>
      </trkpt>
      <trkpt lat="46.87606" lon="8.52475">
        <ele>1711</ele>
        <time>2021-08-11T09:51:03.441Z</time>
      </trkpt>
      <trkpt lat="46.87606" lon="8.52475">
        <ele>1711</ele>
        <time>2021-08-11T09:51:04.441Z</time>
      </trkpt>
      <trkpt lat="46.87606" lon="8.52474">
        <ele>1711</ele>
        <time>2021-08-11T09:51:05.440Z</time>
      </trkpt>
      <trkpt lat="46.87606" lon="8.52473">
        <ele>1710</ele>
        <time>2021-08-11T09:51:06.441Z</time>
      </trkpt>
      <trkpt lat="46.87606" lon="8.52472">
        <ele>1710</ele>
        <time>2021-08-11T09:51:07.441Z</time>
      </trkpt>
      <trkpt lat="46.87606" lon="8.52471">
        <ele>1710</ele>
        <time>2021-08-11T09:51:08.441Z</time>
      </trkpt>
      <trkpt lat="46.87606" lon="8.5247">
        <ele>1710</ele>
        <time>2021-08-11T09:51:09.441Z</time>
      </trkpt>
      <trkpt lat="46.87605" lon="8.52469">
        <ele>1711</ele>
        <time>2021-08-11T09:51:10.440Z</time>
      </trkpt>
      <trkpt lat="46.87605" lon="8.52467">
        <ele>1711</ele>
        <time>2021-08-11T09:51:11.440Z</time>
      </trkpt>
      <trkpt lat="46.87605" lon="8.52466">
        <ele>1711</ele>
        <time>2021-08-11T09:51:12.441Z</time>
      </trkpt>
      <trkpt lat="46.87605" lon="8.52465">
        <ele>1710</ele>
        <time>2021-08-11T09:51:13.441Z</time>
      </trkpt>
      <trkpt lat="46.87604" lon="8.52464">
        <ele>1710</ele>
        <time>2021-08-11T09:51:14.441Z</time>
      </trkpt>
      <trkpt lat="46.87604" lon="8.52464">
        <ele>1710</ele>
        <time>2021-08-11T09:51:15.441Z</time>
      </trkpt>
      <trkpt lat="46.87603" lon="8.52463">
        <ele>1710</ele>
        <time>2021-08-11T09:51:16.441Z</time>
      </trkpt>
      <trkpt lat="46.87603" lon="8.52463">
        <ele>1709</ele>
        <time>2021-08-11T09:51:17.441Z</time>
      </trkpt>
      <trkpt lat="46.87603" lon="8.52462">
        <ele>1709</ele>
        <time>2021-08-11T09:51:18.441Z</time>
      </trkpt>
      <trkpt lat="46.87602" lon="8.52461">
        <ele>1709</ele>
        <time>2021-08-11T09:51:19.441Z</time>
      </trkpt>
      <trkpt lat="46.87601" lon="8.5246">
        <ele>1710</ele>
        <time>2021-08-11T09:51:20.441Z</time>
      </trkpt>
      <trkpt lat="46.87601" lon="8.52459">
        <ele>1710</ele>
        <time>2021-08-11T09:51:21.441Z</time>
      </trkpt>
      <trkpt lat="46.876" lon="8.52458">
        <ele>1711</ele>
        <time>2021-08-11T09:51:22.441Z</time>
      </trkpt>
      <trkpt lat="46.876" lon="8.52457">
        <ele>1711</ele>
        <time>2021-08-11T09:51:23.440Z</time>
      </trkpt>
      <trkpt lat="46.87599" lon="8.52456">
        <ele>1711</ele>
        <time>2021-08-11T09:51:24.441Z</time>
      </trkpt>
      <trkpt lat="46.87599" lon="8.52455">
        <ele>1711</ele>
        <time>2021-08-11T09:51:25.441Z</time>
      </trkpt>
      <trkpt lat="46.87599" lon="8.52454">
        <ele>1711</ele>
        <time>2021-08-11T09:51:26.440Z</time>
      </trkpt>
      <trkpt lat="46.87598" lon="8.52452">
        <ele>1710</ele>
        <time>2021-08-11T09:51:27.441Z</time>
      </trkpt>
      <trkpt lat="46.87598" lon="8.52451">
        <ele>1710</ele>
        <time>2021-08-11T09:51:28.440Z</time>
      </trkpt>
      <trkpt lat="46.87598" lon="8.5245">
        <ele>1710</ele>
        <time>2021-08-11T09:51:29.441Z</time>
      </trkpt>
      <trkpt lat="46.87598" lon="8.52449">
        <ele>1709</ele>
        <time>2021-08-11T09:51:30.440Z</time>
      </trkpt>
      <trkpt lat="46.87597" lon="8.52448">
        <ele>1709</ele>
        <time>2021-08-11T09:51:31.441Z</time>
      </trkpt>
      <trkpt lat="46.87597" lon="8.52447">
        <ele>1709</ele>
        <time>2021-08-11T09:51:32.441Z</time>
      </trkpt>
      <trkpt lat="46.87597" lon="8.52445">
        <ele>1709</ele>
        <time>2021-08-11T09:51:33.440Z</time>
      </trkpt>
      <trkpt lat="46.87596" lon="8.52444">
        <ele>1709</ele>
        <time>2021-08-11T09:51:34.440Z</time>
      </trkpt>
      <trkpt lat="46.87596" lon="8.52443">
        <ele>1709</ele>
        <time>2021-08-11T09:51:35.441Z</time>
      </trkpt>
      <trkpt lat="46.87596" lon="8.52441">
        <ele>1709</ele>
        <time>2021-08-11T09:51:36.441Z</time>
      </trkpt>
      <trkpt lat="46.87595" lon="8.52439">
        <ele>1709</ele>
        <time>2021-08-11T09:51:37.441Z</time>
      </trkpt>
      <trkpt lat="46.87595" lon="8.52438">
        <ele>1710</ele>
        <time>2021-08-11T09:51:38.441Z</time>
      </trkpt>
      <trkpt lat="46.87595" lon="8.52436">
        <ele>1710</ele>
        <time>2021-08-11T09:51:39.440Z</time>
      </trkpt>
      <trkpt lat="46.87595" lon="8.52434">
        <ele>1709</ele>
        <time>2021-08-11T09:51:40.441Z</time>
      </trkpt>
      <trkpt lat="46.87595" lon="8.52433">
        <ele>1709</ele>
        <time>2021-08-11T09:51:41.441Z</time>
      </trkpt>
      <trkpt lat="46.87596" lon="8.52432">
        <ele>1709</ele>
        <time>2021-08-11T09:51:42.441Z</time>
      </trkpt>
      <trkpt lat="46.87596" lon="8.5243">
        <ele>1709</ele>
        <time>2021-08-11T09:51:43.441Z</time>
      </trkpt>
      <trkpt lat="46.87597" lon="8.52429">
        <ele>1709</ele>
        <time>2021-08-11T09:51:44.441Z</time>
      </trkpt>
      <trkpt lat="46.87597" lon="8.52428">
        <ele>1709</ele>
        <time>2021-08-11T09:51:45.440Z</time>
      </trkpt>
      <trkpt lat="46.87598" lon="8.52427">
        <ele>1709</ele>
        <time>2021-08-11T09:51:46.441Z</time>
      </trkpt>
      <trkpt lat="46.87598" lon="8.52425">
        <ele>1709</ele>
        <time>2021-08-11T09:51:47.440Z</time>
      </trkpt>
      <trkpt lat="46.87599" lon="8.52424">
        <ele>1709</ele>
        <time>2021-08-11T09:51:48.441Z</time>
      </trkpt>
      <trkpt lat="46.876" lon="8.52424">
        <ele>1709</ele>
        <time>2021-08-11T09:51:49.441Z</time>
      </trkpt>
      <trkpt lat="46.876" lon="8.52423">
        <ele>1709</ele>
        <time>2021-08-11T09:51:50.441Z</time>
      </trkpt>
      <trkpt lat="46.87601" lon="8.52422">
        <ele>1709</ele>
        <time>2021-08-11T09:51:51.441Z</time>
      </trkpt>
      <trkpt lat="46.87602" lon="8.52421">
        <ele>1709</ele>
        <time>2021-08-11T09:51:52.441Z</time>
      </trkpt>
      <trkpt lat="46.87602" lon="8.52421">
        <ele>1709</ele>
        <time>2021-08-11T09:51:53.441Z</time>
      </trkpt>
      <trkpt lat="46.87602" lon="8.5242">
        <ele>1708</ele>
        <time>2021-08-11T09:51:54.441Z</time>
      </trkpt>
      <trkpt lat="46.87603" lon="8.5242">
        <ele>1708</ele>
        <time>2021-08-11T09:51:55.440Z</time>
      </trkpt>
      <trkpt lat="46.87604" lon="8.52419">
        <ele>1707</ele>
        <time>2021-08-11T09:51:56.441Z</time>
      </trkpt>
      <trkpt lat="46.87605" lon="8.52419">
        <ele>1707</ele>
        <time>2021-08-11T09:51:57.440Z</time>
      </trkpt>
      <trkpt lat="46.87606" lon="8.52418">
        <ele>1706</ele>
        <time>2021-08-11T09:51:58.440Z</time>
      </trkpt>
      <trkpt lat="46.87606" lon="8.52417">
        <ele>1705</ele>
        <time>2021-08-11T09:51:59.441Z</time>
      </trkpt>
      <trkpt lat="46.87607" lon="8.52416">
        <ele>1704</ele>
        <time>2021-08-11T09:52:00.441Z</time>
      </trkpt>
      <trkpt lat="46.87607" lon="8.52415">
        <ele>1704</ele>
        <time>2021-08-11T09:52:01.441Z</time>
      </trkpt>
      <trkpt lat="46.87608" lon="8.52414">
        <ele>1703</ele>
        <time>2021-08-11T09:52:02.441Z</time>
      </trkpt>
      <trkpt lat="46.87608" lon="8.52412">
        <ele>1702</ele>
        <time>2021-08-11T09:52:03.441Z</time>
      </trkpt>
      <trkpt lat="46.87609" lon="8.52411">
        <ele>1701</ele>
        <time>2021-08-11T09:52:04.441Z</time>
      </trkpt>
      <trkpt lat="46.87609" lon="8.5241">
        <ele>1701</ele>
        <time>2021-08-11T09:52:05.440Z</time>
      </trkpt>
      <trkpt lat="46.87609" lon="8.52407">
        <ele>1700</ele>
        <time>2021-08-11T09:52:06.440Z</time>
      </trkpt>
      <trkpt lat="46.87609" lon="8.52406">
        <ele>1700</ele>
        <time>2021-08-11T09:52:07.440Z</time>
      </trkpt>
      <trkpt lat="46.87609" lon="8.52405">
        <ele>1699</ele>
        <time>2021-08-11T09:52:08.441Z</time>
      </trkpt>
      <trkpt lat="46.8761" lon="8.52403">
        <ele>1699</ele>
        <time>2021-08-11T09:52:09.441Z</time>
      </trkpt>
      <trkpt lat="46.87611" lon="8.52402">
        <ele>1699</ele>
        <time>2021-08-11T09:52:10.441Z</time>
      </trkpt>
      <trkpt lat="46.87611" lon="8.524">
        <ele>1699</ele>
        <time>2021-08-11T09:52:11.441Z</time>
      </trkpt>
      <trkpt lat="46.87612" lon="8.52399">
        <ele>1699</ele>
        <time>2021-08-11T09:52:12.440Z</time>
      </trkpt>
      <trkpt lat="46.87612" lon="8.52398">
        <ele>1699</ele>
        <time>2021-08-11T09:52:13.441Z</time>
      </trkpt>
      <trkpt lat="46.87612" lon="8.52397">
        <ele>1699</ele>
        <time>2021-08-11T09:52:14.441Z</time>
      </trkpt>
      <trkpt lat="46.87613" lon="8.52396">
        <ele>1700</ele>
        <time>2021-08-11T09:52:15.441Z</time>
      </trkpt>
      <trkpt lat="46.87613" lon="8.52395">
        <ele>1700</ele>
        <time>2021-08-11T09:52:16.441Z</time>
      </trkpt>
      <trkpt lat="46.87613" lon="8.52394">
        <ele>1700</ele>
        <time>2021-08-11T09:52:17.440Z</time>
      </trkpt>
      <trkpt lat="46.87613" lon="8.52393">
        <ele>1699</ele>
        <time>2021-08-11T09:52:18.440Z</time>
      </trkpt>
      <trkpt lat="46.87613" lon="8.52392">
        <ele>1699</ele>
        <time>2021-08-11T09:52:19.441Z</time>
      </trkpt>
      <trkpt lat="46.87613" lon="8.52391">
        <ele>1699</ele>
        <time>2021-08-11T09:52:20.441Z</time>
      </trkpt>
      <trkpt lat="46.87613" lon="8.52389">
        <ele>1700</ele>
        <time>2021-08-11T09:52:21.441Z</time>
      </trkpt>
      <trkpt lat="46.87613" lon="8.52389">
        <ele>1699</ele>
        <time>2021-08-11T09:52:22.441Z</time>
      </trkpt>
      <trkpt lat="46.87613" lon="8.52388">
        <ele>1699</ele>
        <time>2021-08-11T09:52:23.440Z</time>
      </trkpt>
      <trkpt lat="46.87613" lon="8.52387">
        <ele>1699</ele>
        <time>2021-08-11T09:52:24.441Z</time>
      </trkpt>
      <trkpt lat="46.87613" lon="8.52386">
        <ele>1699</ele>
        <time>2021-08-11T09:52:25.441Z</time>
      </trkpt>
      <trkpt lat="46.87613" lon="8.52385">
        <ele>1699</ele>
        <time>2021-08-11T09:52:26.441Z</time>
      </trkpt>
      <trkpt lat="46.87613" lon="8.52385">
        <ele>1700</ele>
        <time>2021-08-11T09:52:27.441Z</time>
      </trkpt>
      <trkpt lat="46.87613" lon="8.52384">
        <ele>1700</ele>
        <time>2021-08-11T09:52:28.441Z</time>
      </trkpt>
      <trkpt lat="46.87613" lon="8.52383">
        <ele>1699</ele>
        <time>2021-08-11T09:52:29.441Z</time>
      </trkpt>
      <trkpt lat="46.87613" lon="8.52382">
        <ele>1698</ele>
        <time>2021-08-11T09:52:30.441Z</time>
      </trkpt>
      <trkpt lat="46.87613" lon="8.52381">
        <ele>1698</ele>
        <time>2021-08-11T09:52:31.441Z</time>
      </trkpt>
      <trkpt lat="46.87613" lon="8.5238">
        <ele>1697</ele>
        <time>2021-08-11T09:52:32.441Z</time>
      </trkpt>
      <trkpt lat="46.87613" lon="8.52379">
        <ele>1696</ele>
        <time>2021-08-11T09:52:33.442Z</time>
      </trkpt>
      <trkpt lat="46.87613" lon="8.52378">
        <ele>1696</ele>
        <time>2021-08-11T09:52:34.442Z</time>
      </trkpt>
      <trkpt lat="46.87613" lon="8.52377">
        <ele>1696</ele>
        <time>2021-08-11T09:52:35.442Z</time>
      </trkpt>
      <trkpt lat="46.87612" lon="8.52376">
        <ele>1696</ele>
        <time>2021-08-11T09:52:36.442Z</time>
      </trkpt>
      <trkpt lat="46.87612" lon="8.52375">
        <ele>1696</ele>
        <time>2021-08-11T09:52:37.442Z</time>
      </trkpt>
      <trkpt lat="46.87612" lon="8.52374">
        <ele>1696</ele>
        <time>2021-08-11T09:52:38.441Z</time>
      </trkpt>
      <trkpt lat="46.87613" lon="8.52373">
        <ele>1696</ele>
        <time>2021-08-11T09:52:39.442Z</time>
      </trkpt>
      <trkpt lat="46.87613" lon="8.52372">
        <ele>1696</ele>
        <time>2021-08-11T09:52:40.441Z</time>
      </trkpt>
      <trkpt lat="46.87612" lon="8.52371">
        <ele>1696</ele>
        <time>2021-08-11T09:52:41.442Z</time>
      </trkpt>
      <trkpt lat="46.87612" lon="8.5237">
        <ele>1696</ele>
        <time>2021-08-11T09:52:42.442Z</time>
      </trkpt>
      <trkpt lat="46.87611" lon="8.52369">
        <ele>1696</ele>
        <time>2021-08-11T09:52:43.442Z</time>
      </trkpt>
      <trkpt lat="46.87612" lon="8.52368">
        <ele>1696</ele>
        <time>2021-08-11T09:52:44.442Z</time>
      </trkpt>
      <trkpt lat="46.87612" lon="8.52367">
        <ele>1696</ele>
        <time>2021-08-11T09:52:45.441Z</time>
      </trkpt>
      <trkpt lat="46.87612" lon="8.52366">
        <ele>1696</ele>
        <time>2021-08-11T09:52:46.442Z</time>
      </trkpt>
      <trkpt lat="46.87612" lon="8.52365">
        <ele>1696</ele>
        <time>2021-08-11T09:52:47.441Z</time>
      </trkpt>
      <trkpt lat="46.87613" lon="8.52364">
        <ele>1696</ele>
        <time>2021-08-11T09:52:48.441Z</time>
      </trkpt>
      <trkpt lat="46.87613" lon="8.52363">
        <ele>1696</ele>
        <time>2021-08-11T09:52:49.442Z</time>
      </trkpt>
      <trkpt lat="46.87614" lon="8.52362">
        <ele>1696</ele>
        <time>2021-08-11T09:52:50.442Z</time>
      </trkpt>
      <trkpt lat="46.87614" lon="8.52361">
        <ele>1696</ele>
        <time>2021-08-11T09:52:51.441Z</time>
      </trkpt>
      <trkpt lat="46.87614" lon="8.52359">
        <ele>1695</ele>
        <time>2021-08-11T09:52:52.442Z</time>
      </trkpt>
      <trkpt lat="46.87615" lon="8.52358">
        <ele>1695</ele>
        <time>2021-08-11T09:52:53.441Z</time>
      </trkpt>
      <trkpt lat="46.87615" lon="8.52357">
        <ele>1694</ele>
        <time>2021-08-11T09:52:54.442Z</time>
      </trkpt>
      <trkpt lat="46.87616" lon="8.52356">
        <ele>1694</ele>
        <time>2021-08-11T09:52:55.442Z</time>
      </trkpt>
      <trkpt lat="46.87616" lon="8.52355">
        <ele>1694</ele>
        <time>2021-08-11T09:52:56.442Z</time>
      </trkpt>
      <trkpt lat="46.87616" lon="8.52354">
        <ele>1693</ele>
        <time>2021-08-11T09:52:57.442Z</time>
      </trkpt>
      <trkpt lat="46.87616" lon="8.52353">
        <ele>1693</ele>
        <time>2021-08-11T09:52:58.441Z</time>
      </trkpt>
      <trkpt lat="46.87617" lon="8.52353">
        <ele>1693</ele>
        <time>2021-08-11T09:52:59.442Z</time>
      </trkpt>
      <trkpt lat="46.87617" lon="8.52352">
        <ele>1692</ele>
        <time>2021-08-11T09:53:00.442Z</time>
      </trkpt>
      <trkpt lat="46.87617" lon="8.52351">
        <ele>1692</ele>
        <time>2021-08-11T09:53:01.442Z</time>
      </trkpt>
      <trkpt lat="46.87617" lon="8.52351">
        <ele>1691</ele>
        <time>2021-08-11T09:53:02.442Z</time>
      </trkpt>
      <trkpt lat="46.87618" lon="8.52351">
        <ele>1691</ele>
        <time>2021-08-11T09:53:03.441Z</time>
      </trkpt>
      <trkpt lat="46.87618" lon="8.52351">
        <ele>1691</ele>
        <time>2021-08-11T09:53:04.441Z</time>
      </trkpt>
      <trkpt lat="46.87623" lon="8.52351">
        <ele>1691</ele>
        <time>2021-08-11T09:53:05.442Z</time>
      </trkpt>
      <trkpt lat="46.87622" lon="8.52351">
        <ele>1691</ele>
        <time>2021-08-11T09:53:06.443Z</time>
      </trkpt>
      <trkpt lat="46.87622" lon="8.52351">
        <ele>1692</ele>
        <time>2021-08-11T09:53:07.442Z</time>
      </trkpt>
      <trkpt lat="46.87621" lon="8.52351">
        <ele>1696</ele>
        <time>2021-08-11T09:53:08.443Z</time>
      </trkpt>
      <trkpt lat="46.87621" lon="8.5235">
        <ele>1696</ele>
        <time>2021-08-11T09:53:09.442Z</time>
      </trkpt>
      <trkpt lat="46.8762" lon="8.5235">
        <ele>1696</ele>
        <time>2021-08-11T09:53:10.443Z</time>
      </trkpt>
      <trkpt lat="46.87619" lon="8.5235">
        <ele>1696</ele>
        <time>2021-08-11T09:53:11.442Z</time>
      </trkpt>
      <trkpt lat="46.87619" lon="8.5235">
        <ele>1696</ele>
        <time>2021-08-11T09:53:12.442Z</time>
      </trkpt>
      <trkpt lat="46.87618" lon="8.52349">
        <ele>1696</ele>
        <time>2021-08-11T09:53:13.442Z</time>
      </trkpt>
      <trkpt lat="46.87618" lon="8.52348">
        <ele>1696</ele>
        <time>2021-08-11T09:53:14.442Z</time>
      </trkpt>
      <trkpt lat="46.87617" lon="8.52348">
        <ele>1696</ele>
        <time>2021-08-11T09:53:15.442Z</time>
      </trkpt>
      <trkpt lat="46.87617" lon="8.52347">
        <ele>1696</ele>
        <time>2021-08-11T09:53:16.443Z</time>
      </trkpt>
      <trkpt lat="46.87617" lon="8.52346">
        <ele>1695</ele>
        <time>2021-08-11T09:53:17.443Z</time>
      </trkpt>
      <trkpt lat="46.87617" lon="8.52345">
        <ele>1695</ele>
        <time>2021-08-11T09:53:18.443Z</time>
      </trkpt>
      <trkpt lat="46.87616" lon="8.52344">
        <ele>1695</ele>
        <time>2021-08-11T09:53:19.443Z</time>
      </trkpt>
      <trkpt lat="46.87616" lon="8.52343">
        <ele>1694</ele>
        <time>2021-08-11T09:53:20.443Z</time>
      </trkpt>
      <trkpt lat="46.87615" lon="8.52342">
        <ele>1694</ele>
        <time>2021-08-11T09:53:21.442Z</time>
      </trkpt>
      <trkpt lat="46.87615" lon="8.52341">
        <ele>1693</ele>
        <time>2021-08-11T09:53:22.442Z</time>
      </trkpt>
      <trkpt lat="46.87614" lon="8.5234">
        <ele>1693</ele>
        <time>2021-08-11T09:53:23.443Z</time>
      </trkpt>
      <trkpt lat="46.87614" lon="8.52339">
        <ele>1692</ele>
        <time>2021-08-11T09:53:24.442Z</time>
      </trkpt>
      <trkpt lat="46.87614" lon="8.52338">
        <ele>1691</ele>
        <time>2021-08-11T09:53:25.443Z</time>
      </trkpt>
      <trkpt lat="46.87614" lon="8.52337">
        <ele>1691</ele>
        <time>2021-08-11T09:53:26.442Z</time>
      </trkpt>
      <trkpt lat="46.87613" lon="8.52336">
        <ele>1691</ele>
        <time>2021-08-11T09:53:27.442Z</time>
      </trkpt>
      <trkpt lat="46.87613" lon="8.52335">
        <ele>1690</ele>
        <time>2021-08-11T09:53:28.442Z</time>
      </trkpt>
      <trkpt lat="46.87612" lon="8.52334">
        <ele>1690</ele>
        <time>2021-08-11T09:53:29.442Z</time>
      </trkpt>
      <trkpt lat="46.87612" lon="8.52333">
        <ele>1689</ele>
        <time>2021-08-11T09:53:30.442Z</time>
      </trkpt>
      <trkpt lat="46.87613" lon="8.52331">
        <ele>1688</ele>
        <time>2021-08-11T09:53:31.442Z</time>
      </trkpt>
      <trkpt lat="46.87613" lon="8.52329">
        <ele>1688</ele>
        <time>2021-08-11T09:53:32.442Z</time>
      </trkpt>
      <trkpt lat="46.87613" lon="8.52328">
        <ele>1689</ele>
        <time>2021-08-11T09:53:33.442Z</time>
      </trkpt>
      <trkpt lat="46.87612" lon="8.52327">
        <ele>1689</ele>
        <time>2021-08-11T09:53:34.442Z</time>
      </trkpt>
      <trkpt lat="46.87611" lon="8.52326">
        <ele>1690</ele>
        <time>2021-08-11T09:53:35.442Z</time>
      </trkpt>
      <trkpt lat="46.87611" lon="8.52325">
        <ele>1690</ele>
        <time>2021-08-11T09:53:36.443Z</time>
      </trkpt>
      <trkpt lat="46.8761" lon="8.52325">
        <ele>1691</ele>
        <time>2021-08-11T09:53:37.442Z</time>
      </trkpt>
      <trkpt lat="46.8761" lon="8.52324">
        <ele>1691</ele>
        <time>2021-08-11T09:53:38.442Z</time>
      </trkpt>
      <trkpt lat="46.87609" lon="8.52323">
        <ele>1691</ele>
        <time>2021-08-11T09:53:39.442Z</time>
      </trkpt>
      <trkpt lat="46.87609" lon="8.52321">
        <ele>1691</ele>
        <time>2021-08-11T09:53:40.442Z</time>
      </trkpt>
      <trkpt lat="46.87608" lon="8.52321">
        <ele>1690</ele>
        <time>2021-08-11T09:53:41.443Z</time>
      </trkpt>
      <trkpt lat="46.87607" lon="8.5232">
        <ele>1690</ele>
        <time>2021-08-11T09:53:42.442Z</time>
      </trkpt>
      <trkpt lat="46.87607" lon="8.5232">
        <ele>1690</ele>
        <time>2021-08-11T09:53:43.442Z</time>
      </trkpt>
      <trkpt lat="46.87608" lon="8.52321">
        <ele>1690</ele>
        <time>2021-08-11T09:53:44.442Z</time>
      </trkpt>
      <trkpt lat="46.87607" lon="8.52323">
        <ele>1686</ele>
        <time>2021-08-11T09:53:45.444Z</time>
      </trkpt>
      <trkpt lat="46.87607" lon="8.52323">
        <ele>1686</ele>
        <time>2021-08-11T09:53:46.444Z</time>
      </trkpt>
      <trkpt lat="46.87606" lon="8.52321">
        <ele>1686</ele>
        <time>2021-08-11T09:53:47.445Z</time>
      </trkpt>
      <trkpt lat="46.87606" lon="8.5232">
        <ele>1686</ele>
        <time>2021-08-11T09:53:48.444Z</time>
      </trkpt>
      <trkpt lat="46.87605" lon="8.52319">
        <ele>1685</ele>
        <time>2021-08-11T09:53:49.445Z</time>
      </trkpt>
      <trkpt lat="46.87604" lon="8.52318">
        <ele>1685</ele>
        <time>2021-08-11T09:53:50.444Z</time>
      </trkpt>
      <trkpt lat="46.87604" lon="8.52318">
        <ele>1685</ele>
        <time>2021-08-11T09:53:51.445Z</time>
      </trkpt>
      <trkpt lat="46.87603" lon="8.52318">
        <ele>1686</ele>
        <time>2021-08-11T09:53:52.444Z</time>
      </trkpt>
      <trkpt lat="46.87602" lon="8.52318">
        <ele>1686</ele>
        <time>2021-08-11T09:53:53.445Z</time>
      </trkpt>
      <trkpt lat="46.87602" lon="8.52317">
        <ele>1686</ele>
        <time>2021-08-11T09:53:54.445Z</time>
      </trkpt>
      <trkpt lat="46.87601" lon="8.52317">
        <ele>1686</ele>
        <time>2021-08-11T09:53:55.444Z</time>
      </trkpt>
      <trkpt lat="46.876" lon="8.52316">
        <ele>1686</ele>
        <time>2021-08-11T09:53:56.445Z</time>
      </trkpt>
      <trkpt lat="46.876" lon="8.52316">
        <ele>1686</ele>
        <time>2021-08-11T09:53:57.445Z</time>
      </trkpt>
      <trkpt lat="46.876" lon="8.52317">
        <ele>1685</ele>
        <time>2021-08-11T09:53:58.444Z</time>
      </trkpt>
      <trkpt lat="46.876" lon="8.52317">
        <ele>1685</ele>
        <time>2021-08-11T09:53:59.445Z</time>
      </trkpt>
      <trkpt lat="46.87597" lon="8.52316">
        <ele>1682</ele>
        <time>2021-08-11T09:54:00.447Z</time>
      </trkpt>
      <trkpt lat="46.87597" lon="8.52315">
        <ele>1682</ele>
        <time>2021-08-11T09:54:01.446Z</time>
      </trkpt>
      <trkpt lat="46.87596" lon="8.52313">
        <ele>1683</ele>
        <time>2021-08-11T09:54:02.446Z</time>
      </trkpt>
      <trkpt lat="46.87596" lon="8.52312">
        <ele>1683</ele>
        <time>2021-08-11T09:54:03.446Z</time>
      </trkpt>
      <trkpt lat="46.87595" lon="8.5231">
        <ele>1684</ele>
        <time>2021-08-11T09:54:04.447Z</time>
      </trkpt>
      <trkpt lat="46.87594" lon="8.52309">
        <ele>1684</ele>
        <time>2021-08-11T09:54:05.446Z</time>
      </trkpt>
      <trkpt lat="46.87594" lon="8.52307">
        <ele>1684</ele>
        <time>2021-08-11T09:54:06.447Z</time>
      </trkpt>
      <trkpt lat="46.87594" lon="8.52306">
        <ele>1684</ele>
        <time>2021-08-11T09:54:07.446Z</time>
      </trkpt>
      <trkpt lat="46.87593" lon="8.52305">
        <ele>1684</ele>
        <time>2021-08-11T09:54:08.446Z</time>
      </trkpt>
      <trkpt lat="46.87593" lon="8.52303">
        <ele>1685</ele>
        <time>2021-08-11T09:54:09.446Z</time>
      </trkpt>
      <trkpt lat="46.87592" lon="8.52301">
        <ele>1685</ele>
        <time>2021-08-11T09:54:10.447Z</time>
      </trkpt>
      <trkpt lat="46.87592" lon="8.523">
        <ele>1685</ele>
        <time>2021-08-11T09:54:11.446Z</time>
      </trkpt>
      <trkpt lat="46.87591" lon="8.52299">
        <ele>1684</ele>
        <time>2021-08-11T09:54:12.446Z</time>
      </trkpt>
      <trkpt lat="46.87591" lon="8.52299">
        <ele>1684</ele>
        <time>2021-08-11T09:54:13.446Z</time>
      </trkpt>
      <trkpt lat="46.8759" lon="8.52298">
        <ele>1684</ele>
        <time>2021-08-11T09:54:14.446Z</time>
      </trkpt>
      <trkpt lat="46.8759" lon="8.52297">
        <ele>1684</ele>
        <time>2021-08-11T09:54:15.446Z</time>
      </trkpt>
      <trkpt lat="46.87589" lon="8.52296">
        <ele>1685</ele>
        <time>2021-08-11T09:54:16.446Z</time>
      </trkpt>
      <trkpt lat="46.87589" lon="8.52295">
        <ele>1685</ele>
        <time>2021-08-11T09:54:17.447Z</time>
      </trkpt>
      <trkpt lat="46.87588" lon="8.52293">
        <ele>1686</ele>
        <time>2021-08-11T09:54:18.447Z</time>
      </trkpt>
      <trkpt lat="46.87588" lon="8.52291">
        <ele>1686</ele>
        <time>2021-08-11T09:54:19.447Z</time>
      </trkpt>
      <trkpt lat="46.87588" lon="8.5229">
        <ele>1686</ele>
        <time>2021-08-11T09:54:20.447Z</time>
      </trkpt>
      <trkpt lat="46.87587" lon="8.52289">
        <ele>1686</ele>
        <time>2021-08-11T09:54:21.447Z</time>
      </trkpt>
      <trkpt lat="46.87587" lon="8.52288">
        <ele>1687</ele>
        <time>2021-08-11T09:54:22.447Z</time>
      </trkpt>
      <trkpt lat="46.87586" lon="8.52286">
        <ele>1687</ele>
        <time>2021-08-11T09:54:23.446Z</time>
      </trkpt>
      <trkpt lat="46.87586" lon="8.52285">
        <ele>1687</ele>
        <time>2021-08-11T09:54:24.447Z</time>
      </trkpt>
      <trkpt lat="46.87586" lon="8.52284">
        <ele>1686</ele>
        <time>2021-08-11T09:54:25.447Z</time>
      </trkpt>
      <trkpt lat="46.87586" lon="8.52283">
        <ele>1686</ele>
        <time>2021-08-11T09:54:26.447Z</time>
      </trkpt>
      <trkpt lat="46.87585" lon="8.52281">
        <ele>1686</ele>
        <time>2021-08-11T09:54:27.447Z</time>
      </trkpt>
      <trkpt lat="46.87585" lon="8.5228">
        <ele>1685</ele>
        <time>2021-08-11T09:54:28.446Z</time>
      </trkpt>
      <trkpt lat="46.87584" lon="8.52279">
        <ele>1684</ele>
        <time>2021-08-11T09:54:29.447Z</time>
      </trkpt>
      <trkpt lat="46.87583" lon="8.52278">
        <ele>1684</ele>
        <time>2021-08-11T09:54:30.447Z</time>
      </trkpt>
      <trkpt lat="46.87583" lon="8.52278">
        <ele>1684</ele>
        <time>2021-08-11T09:54:31.447Z</time>
      </trkpt>
      <trkpt lat="46.87582" lon="8.52277">
        <ele>1684</ele>
        <time>2021-08-11T09:54:32.447Z</time>
      </trkpt>
      <trkpt lat="46.87581" lon="8.52276">
        <ele>1684</ele>
        <time>2021-08-11T09:54:33.446Z</time>
      </trkpt>
      <trkpt lat="46.87581" lon="8.52275">
        <ele>1684</ele>
        <time>2021-08-11T09:54:34.447Z</time>
      </trkpt>
      <trkpt lat="46.87581" lon="8.52274">
        <ele>1684</ele>
        <time>2021-08-11T09:54:35.447Z</time>
      </trkpt>
      <trkpt lat="46.8758" lon="8.52273">
        <ele>1684</ele>
        <time>2021-08-11T09:54:36.447Z</time>
      </trkpt>
      <trkpt lat="46.8758" lon="8.52271">
        <ele>1684</ele>
        <time>2021-08-11T09:54:37.446Z</time>
      </trkpt>
      <trkpt lat="46.87579" lon="8.5227">
        <ele>1685</ele>
        <time>2021-08-11T09:54:38.446Z</time>
      </trkpt>
      <trkpt lat="46.87579" lon="8.52269">
        <ele>1685</ele>
        <time>2021-08-11T09:54:39.447Z</time>
      </trkpt>
      <trkpt lat="46.87578" lon="8.52268">
        <ele>1685</ele>
        <time>2021-08-11T09:54:40.446Z</time>
      </trkpt>
      <trkpt lat="46.87578" lon="8.52266">
        <ele>1684</ele>
        <time>2021-08-11T09:54:41.446Z</time>
      </trkpt>
      <trkpt lat="46.87578" lon="8.52265">
        <ele>1684</ele>
        <time>2021-08-11T09:54:42.447Z</time>
      </trkpt>
      <trkpt lat="46.87578" lon="8.52264">
        <ele>1685</ele>
        <time>2021-08-11T09:54:43.447Z</time>
      </trkpt>
      <trkpt lat="46.87577" lon="8.52263">
        <ele>1685</ele>
        <time>2021-08-11T09:54:44.447Z</time>
      </trkpt>
      <trkpt lat="46.87577" lon="8.52261">
        <ele>1685</ele>
        <time>2021-08-11T09:54:45.447Z</time>
      </trkpt>
      <trkpt lat="46.87577" lon="8.5226">
        <ele>1684</ele>
        <time>2021-08-11T09:54:46.447Z</time>
      </trkpt>
      <trkpt lat="46.87577" lon="8.52258">
        <ele>1684</ele>
        <time>2021-08-11T09:54:47.447Z</time>
      </trkpt>
      <trkpt lat="46.87576" lon="8.52257">
        <ele>1683</ele>
        <time>2021-08-11T09:54:48.446Z</time>
      </trkpt>
      <trkpt lat="46.87575" lon="8.52255">
        <ele>1683</ele>
        <time>2021-08-11T09:54:49.447Z</time>
      </trkpt>
      <trkpt lat="46.87575" lon="8.52254">
        <ele>1683</ele>
        <time>2021-08-11T09:54:50.447Z</time>
      </trkpt>
      <trkpt lat="46.87575" lon="8.52252">
        <ele>1683</ele>
        <time>2021-08-11T09:54:51.447Z</time>
      </trkpt>
      <trkpt lat="46.87574" lon="8.52251">
        <ele>1683</ele>
        <time>2021-08-11T09:54:52.447Z</time>
      </trkpt>
      <trkpt lat="46.87574" lon="8.5225">
        <ele>1683</ele>
        <time>2021-08-11T09:54:53.447Z</time>
      </trkpt>
      <trkpt lat="46.87574" lon="8.52249">
        <ele>1682</ele>
        <time>2021-08-11T09:54:54.447Z</time>
      </trkpt>
      <trkpt lat="46.87573" lon="8.52247">
        <ele>1682</ele>
        <time>2021-08-11T09:54:55.447Z</time>
      </trkpt>
      <trkpt lat="46.87573" lon="8.52246">
        <ele>1681</ele>
        <time>2021-08-11T09:54:56.447Z</time>
      </trkpt>
      <trkpt lat="46.87572" lon="8.52245">
        <ele>1681</ele>
        <time>2021-08-11T09:54:57.447Z</time>
      </trkpt>
      <trkpt lat="46.87572" lon="8.52244">
        <ele>1680</ele>
        <time>2021-08-11T09:54:58.446Z</time>
      </trkpt>
      <trkpt lat="46.87572" lon="8.52242">
        <ele>1679</ele>
        <time>2021-08-11T09:54:59.446Z</time>
      </trkpt>
      <trkpt lat="46.87571" lon="8.52241">
        <ele>1679</ele>
        <time>2021-08-11T09:55:00.446Z</time>
      </trkpt>
      <trkpt lat="46.8757" lon="8.52239">
        <ele>1678</ele>
        <time>2021-08-11T09:55:01.446Z</time>
      </trkpt>
      <trkpt lat="46.8757" lon="8.52238">
        <ele>1678</ele>
        <time>2021-08-11T09:55:02.447Z</time>
      </trkpt>
      <trkpt lat="46.87569" lon="8.52236">
        <ele>1677</ele>
        <time>2021-08-11T09:55:03.447Z</time>
      </trkpt>
      <trkpt lat="46.87569" lon="8.52235">
        <ele>1677</ele>
        <time>2021-08-11T09:55:04.447Z</time>
      </trkpt>
      <trkpt lat="46.87568" lon="8.52234">
        <ele>1677</ele>
        <time>2021-08-11T09:55:05.447Z</time>
      </trkpt>
      <trkpt lat="46.87568" lon="8.52233">
        <ele>1677</ele>
        <time>2021-08-11T09:55:06.447Z</time>
      </trkpt>
      <trkpt lat="46.87567" lon="8.52231">
        <ele>1676</ele>
        <time>2021-08-11T09:55:07.447Z</time>
      </trkpt>
      <trkpt lat="46.87567" lon="8.5223">
        <ele>1676</ele>
        <time>2021-08-11T09:55:08.446Z</time>
      </trkpt>
      <trkpt lat="46.87566" lon="8.52229">
        <ele>1676</ele>
        <time>2021-08-11T09:55:09.447Z</time>
      </trkpt>
      <trkpt lat="46.87566" lon="8.52228">
        <ele>1676</ele>
        <time>2021-08-11T09:55:10.446Z</time>
      </trkpt>
      <trkpt lat="46.87565" lon="8.52227">
        <ele>1676</ele>
        <time>2021-08-11T09:55:11.446Z</time>
      </trkpt>
      <trkpt lat="46.87565" lon="8.52226">
        <ele>1675</ele>
        <time>2021-08-11T09:55:12.447Z</time>
      </trkpt>
      <trkpt lat="46.87564" lon="8.52225">
        <ele>1675</ele>
        <time>2021-08-11T09:55:13.446Z</time>
      </trkpt>
      <trkpt lat="46.87564" lon="8.52225">
        <ele>1675</ele>
        <time>2021-08-11T09:55:14.447Z</time>
      </trkpt>
      <trkpt lat="46.87563" lon="8.52224">
        <ele>1675</ele>
        <time>2021-08-11T09:55:15.447Z</time>
      </trkpt>
      <trkpt lat="46.87562" lon="8.52222">
        <ele>1675</ele>
        <time>2021-08-11T09:55:16.447Z</time>
      </trkpt>
      <trkpt lat="46.87562" lon="8.52221">
        <ele>1675</ele>
        <time>2021-08-11T09:55:17.447Z</time>
      </trkpt>
      <trkpt lat="46.87561" lon="8.5222">
        <ele>1675</ele>
        <time>2021-08-11T09:55:18.446Z</time>
      </trkpt>
      <trkpt lat="46.87561" lon="8.52218">
        <ele>1675</ele>
        <time>2021-08-11T09:55:19.447Z</time>
      </trkpt>
      <trkpt lat="46.8756" lon="8.52217">
        <ele>1675</ele>
        <time>2021-08-11T09:55:20.447Z</time>
      </trkpt>
      <trkpt lat="46.87559" lon="8.52215">
        <ele>1676</ele>
        <time>2021-08-11T09:55:21.447Z</time>
      </trkpt>
      <trkpt lat="46.87559" lon="8.52214">
        <ele>1676</ele>
        <time>2021-08-11T09:55:22.447Z</time>
      </trkpt>
      <trkpt lat="46.87558" lon="8.52212">
        <ele>1676</ele>
        <time>2021-08-11T09:55:23.446Z</time>
      </trkpt>
      <trkpt lat="46.87558" lon="8.52211">
        <ele>1676</ele>
        <time>2021-08-11T09:55:24.446Z</time>
      </trkpt>
      <trkpt lat="46.87557" lon="8.5221">
        <ele>1676</ele>
        <time>2021-08-11T09:55:25.447Z</time>
      </trkpt>
      <trkpt lat="46.87557" lon="8.52209">
        <ele>1676</ele>
        <time>2021-08-11T09:55:26.446Z</time>
      </trkpt>
      <trkpt lat="46.87556" lon="8.52207">
        <ele>1676</ele>
        <time>2021-08-11T09:55:27.447Z</time>
      </trkpt>
      <trkpt lat="46.87555" lon="8.52206">
        <ele>1676</ele>
        <time>2021-08-11T09:55:28.446Z</time>
      </trkpt>
      <trkpt lat="46.87554" lon="8.52204">
        <ele>1676</ele>
        <time>2021-08-11T09:55:29.447Z</time>
      </trkpt>
      <trkpt lat="46.87553" lon="8.52203">
        <ele>1676</ele>
        <time>2021-08-11T09:55:30.446Z</time>
      </trkpt>
      <trkpt lat="46.87553" lon="8.52202">
        <ele>1676</ele>
        <time>2021-08-11T09:55:31.447Z</time>
      </trkpt>
      <trkpt lat="46.87553" lon="8.52201">
        <ele>1676</ele>
        <time>2021-08-11T09:55:32.447Z</time>
      </trkpt>
      <trkpt lat="46.87552" lon="8.52199">
        <ele>1676</ele>
        <time>2021-08-11T09:55:33.447Z</time>
      </trkpt>
      <trkpt lat="46.87552" lon="8.52199">
        <ele>1676</ele>
        <time>2021-08-11T09:55:34.447Z</time>
      </trkpt>
      <trkpt lat="46.87551" lon="8.52198">
        <ele>1676</ele>
        <time>2021-08-11T09:55:35.447Z</time>
      </trkpt>
      <trkpt lat="46.8755" lon="8.52196">
        <ele>1676</ele>
        <time>2021-08-11T09:55:36.447Z</time>
      </trkpt>
      <trkpt lat="46.87549" lon="8.52195">
        <ele>1676</ele>
        <time>2021-08-11T09:55:37.447Z</time>
      </trkpt>
      <trkpt lat="46.87548" lon="8.52194">
        <ele>1677</ele>
        <time>2021-08-11T09:55:38.446Z</time>
      </trkpt>
      <trkpt lat="46.87547" lon="8.52192">
        <ele>1677</ele>
        <time>2021-08-11T09:55:39.447Z</time>
      </trkpt>
      <trkpt lat="46.87546" lon="8.52191">
        <ele>1677</ele>
        <time>2021-08-11T09:55:40.446Z</time>
      </trkpt>
      <trkpt lat="46.87546" lon="8.5219">
        <ele>1678</ele>
        <time>2021-08-11T09:55:41.446Z</time>
      </trkpt>
      <trkpt lat="46.87547" lon="8.52191">
        <ele>1678</ele>
        <time>2021-08-11T09:55:42.447Z</time>
      </trkpt>
      <trkpt lat="46.87547" lon="8.52192">
        <ele>1678</ele>
        <time>2021-08-11T09:55:43.446Z</time>
      </trkpt>
      <trkpt lat="46.87548" lon="8.52192">
        <ele>1677</ele>
        <time>2021-08-11T09:55:44.447Z</time>
      </trkpt>
      <trkpt lat="46.87548" lon="8.52192">
        <ele>1676</ele>
        <time>2021-08-11T09:55:45.447Z</time>
      </trkpt>
      <trkpt lat="46.87548" lon="8.52193">
        <ele>1675</ele>
        <time>2021-08-11T09:55:46.447Z</time>
      </trkpt>
      <trkpt lat="46.87549" lon="8.52193">
        <ele>1674</ele>
        <time>2021-08-11T09:55:47.446Z</time>
      </trkpt>
      <trkpt lat="46.87549" lon="8.52192">
        <ele>1674</ele>
        <time>2021-08-11T09:55:48.448Z</time>
      </trkpt>
      <trkpt lat="46.87549" lon="8.52191">
        <ele>1674</ele>
        <time>2021-08-11T09:55:49.447Z</time>
      </trkpt>
      <trkpt lat="46.8755" lon="8.52193">
        <ele>1676</ele>
        <time>2021-08-11T09:55:50.448Z</time>
      </trkpt>
      <trkpt lat="46.8755" lon="8.52194">
        <ele>1676</ele>
        <time>2021-08-11T09:55:51.447Z</time>
      </trkpt>
      <trkpt lat="46.8755" lon="8.52194">
        <ele>1677</ele>
        <time>2021-08-11T09:55:52.447Z</time>
      </trkpt>
      <trkpt lat="46.8755" lon="8.52194">
        <ele>1678</ele>
        <time>2021-08-11T09:55:53.449Z</time>
      </trkpt>
      <trkpt lat="46.8755" lon="8.52194">
        <ele>1679</ele>
        <time>2021-08-11T09:55:54.448Z</time>
      </trkpt>
      <trkpt lat="46.87551" lon="8.52195">
        <ele>1682</ele>
        <time>2021-08-11T09:55:55.448Z</time>
      </trkpt>
      <trkpt lat="46.87552" lon="8.52195">
        <ele>1683</ele>
        <time>2021-08-11T09:55:56.449Z</time>
      </trkpt>
      <trkpt lat="46.87549" lon="8.52192">
        <ele>1671</ele>
        <time>2021-08-11T09:55:57.449Z</time>
      </trkpt>
      <trkpt lat="46.87548" lon="8.52191">
        <ele>1671</ele>
        <time>2021-08-11T09:55:58.449Z</time>
      </trkpt>
      <trkpt lat="46.87547" lon="8.52191">
        <ele>1671</ele>
        <time>2021-08-11T09:55:59.448Z</time>
      </trkpt>
      <trkpt lat="46.87546" lon="8.52191">
        <ele>1671</ele>
        <time>2021-08-11T09:56:00.449Z</time>
      </trkpt>
      <trkpt lat="46.87545" lon="8.5219">
        <ele>1671</ele>
        <time>2021-08-11T09:56:01.448Z</time>
      </trkpt>
      <trkpt lat="46.87544" lon="8.5219">
        <ele>1672</ele>
        <time>2021-08-11T09:56:02.449Z</time>
      </trkpt>
      <trkpt lat="46.87543" lon="8.52188">
        <ele>1672</ele>
        <time>2021-08-11T09:56:03.449Z</time>
      </trkpt>
      <trkpt lat="46.87542" lon="8.52188">
        <ele>1672</ele>
        <time>2021-08-11T09:56:04.449Z</time>
      </trkpt>
      <trkpt lat="46.87541" lon="8.52187">
        <ele>1671</ele>
        <time>2021-08-11T09:56:05.448Z</time>
      </trkpt>
      <trkpt lat="46.8754" lon="8.52187">
        <ele>1671</ele>
        <time>2021-08-11T09:56:06.448Z</time>
      </trkpt>
      <trkpt lat="46.87539" lon="8.52186">
        <ele>1671</ele>
        <time>2021-08-11T09:56:07.449Z</time>
      </trkpt>
      <trkpt lat="46.87537" lon="8.52185">
        <ele>1671</ele>
        <time>2021-08-11T09:56:08.448Z</time>
      </trkpt>
      <trkpt lat="46.87536" lon="8.52183">
        <ele>1671</ele>
        <time>2021-08-11T09:56:09.449Z</time>
      </trkpt>
      <trkpt lat="46.87534" lon="8.52183">
        <ele>1671</ele>
        <time>2021-08-11T09:56:10.449Z</time>
      </trkpt>
      <trkpt lat="46.87533" lon="8.52183">
        <ele>1671</ele>
        <time>2021-08-11T09:56:11.449Z</time>
      </trkpt>
      <trkpt lat="46.87532" lon="8.52182">
        <ele>1671</ele>
        <time>2021-08-11T09:56:12.448Z</time>
      </trkpt>
      <trkpt lat="46.87531" lon="8.52182">
        <ele>1671</ele>
        <time>2021-08-11T09:56:13.449Z</time>
      </trkpt>
      <trkpt lat="46.8753" lon="8.52182">
        <ele>1671</ele>
        <time>2021-08-11T09:56:14.449Z</time>
      </trkpt>
      <trkpt lat="46.87529" lon="8.52181">
        <ele>1671</ele>
        <time>2021-08-11T09:56:15.449Z</time>
      </trkpt>
      <trkpt lat="46.87528" lon="8.5218">
        <ele>1670</ele>
        <time>2021-08-11T09:56:16.448Z</time>
      </trkpt>
      <trkpt lat="46.87527" lon="8.5218">
        <ele>1670</ele>
        <time>2021-08-11T09:56:17.448Z</time>
      </trkpt>
      <trkpt lat="46.87527" lon="8.5218">
        <ele>1670</ele>
        <time>2021-08-11T09:56:18.449Z</time>
      </trkpt>
      <trkpt lat="46.87526" lon="8.5218">
        <ele>1670</ele>
        <time>2021-08-11T09:56:19.449Z</time>
      </trkpt>
      <trkpt lat="46.87525" lon="8.52179">
        <ele>1670</ele>
        <time>2021-08-11T09:56:20.448Z</time>
      </trkpt>
      <trkpt lat="46.87524" lon="8.52179">
        <ele>1670</ele>
        <time>2021-08-11T09:56:21.449Z</time>
      </trkpt>
      <trkpt lat="46.87524" lon="8.52178">
        <ele>1670</ele>
        <time>2021-08-11T09:56:22.449Z</time>
      </trkpt>
      <trkpt lat="46.87523" lon="8.52177">
        <ele>1670</ele>
        <time>2021-08-11T09:56:23.449Z</time>
      </trkpt>
      <trkpt lat="46.87522" lon="8.52176">
        <ele>1670</ele>
        <time>2021-08-11T09:56:24.449Z</time>
      </trkpt>
      <trkpt lat="46.87521" lon="8.52175">
        <ele>1670</ele>
        <time>2021-08-11T09:56:25.448Z</time>
      </trkpt>
      <trkpt lat="46.87521" lon="8.52174">
        <ele>1670</ele>
        <time>2021-08-11T09:56:26.449Z</time>
      </trkpt>
      <trkpt lat="46.8752" lon="8.52174">
        <ele>1670</ele>
        <time>2021-08-11T09:56:27.449Z</time>
      </trkpt>
      <trkpt lat="46.87519" lon="8.52174">
        <ele>1670</ele>
        <time>2021-08-11T09:56:28.449Z</time>
      </trkpt>
      <trkpt lat="46.87518" lon="8.52173">
        <ele>1669</ele>
        <time>2021-08-11T09:56:29.448Z</time>
      </trkpt>
      <trkpt lat="46.87517" lon="8.52173">
        <ele>1669</ele>
        <time>2021-08-11T09:56:30.448Z</time>
      </trkpt>
      <trkpt lat="46.87516" lon="8.52172">
        <ele>1670</ele>
        <time>2021-08-11T09:56:31.449Z</time>
      </trkpt>
      <trkpt lat="46.87516" lon="8.52172">
        <ele>1670</ele>
        <time>2021-08-11T09:56:32.448Z</time>
      </trkpt>
      <trkpt lat="46.87515" lon="8.52172">
        <ele>1670</ele>
        <time>2021-08-11T09:56:33.449Z</time>
      </trkpt>
      <trkpt lat="46.87514" lon="8.52172">
        <ele>1669</ele>
        <time>2021-08-11T09:56:34.449Z</time>
      </trkpt>
      <trkpt lat="46.87513" lon="8.52171">
        <ele>1669</ele>
        <time>2021-08-11T09:56:35.449Z</time>
      </trkpt>
      <trkpt lat="46.87512" lon="8.52171">
        <ele>1669</ele>
        <time>2021-08-11T09:56:36.449Z</time>
      </trkpt>
      <trkpt lat="46.87511" lon="8.52171">
        <ele>1668</ele>
        <time>2021-08-11T09:56:37.449Z</time>
      </trkpt>
      <trkpt lat="46.8751" lon="8.5217">
        <ele>1667</ele>
        <time>2021-08-11T09:56:38.449Z</time>
      </trkpt>
      <trkpt lat="46.8751" lon="8.5217">
        <ele>1667</ele>
        <time>2021-08-11T09:56:39.448Z</time>
      </trkpt>
      <trkpt lat="46.87509" lon="8.5217">
        <ele>1667</ele>
        <time>2021-08-11T09:56:40.448Z</time>
      </trkpt>
      <trkpt lat="46.87509" lon="8.5217">
        <ele>1666</ele>
        <time>2021-08-11T09:56:41.449Z</time>
      </trkpt>
      <trkpt lat="46.87508" lon="8.52169">
        <ele>1666</ele>
        <time>2021-08-11T09:56:42.449Z</time>
      </trkpt>
      <trkpt lat="46.87507" lon="8.52169">
        <ele>1666</ele>
        <time>2021-08-11T09:56:43.449Z</time>
      </trkpt>
      <trkpt lat="46.87507" lon="8.52168">
        <ele>1665</ele>
        <time>2021-08-11T09:56:44.449Z</time>
      </trkpt>
      <trkpt lat="46.87506" lon="8.52167">
        <ele>1665</ele>
        <time>2021-08-11T09:56:45.448Z</time>
      </trkpt>
      <trkpt lat="46.87505" lon="8.52167">
        <ele>1665</ele>
        <time>2021-08-11T09:56:46.449Z</time>
      </trkpt>
      <trkpt lat="46.87505" lon="8.52166">
        <ele>1665</ele>
        <time>2021-08-11T09:56:47.448Z</time>
      </trkpt>
      <trkpt lat="46.87504" lon="8.52165">
        <ele>1665</ele>
        <time>2021-08-11T09:56:48.449Z</time>
      </trkpt>
      <trkpt lat="46.87504" lon="8.52164">
        <ele>1665</ele>
        <time>2021-08-11T09:56:49.448Z</time>
      </trkpt>
      <trkpt lat="46.87503" lon="8.52163">
        <ele>1665</ele>
        <time>2021-08-11T09:56:50.448Z</time>
      </trkpt>
      <trkpt lat="46.87503" lon="8.52162">
        <ele>1665</ele>
        <time>2021-08-11T09:56:51.449Z</time>
      </trkpt>
      <trkpt lat="46.87502" lon="8.52161">
        <ele>1665</ele>
        <time>2021-08-11T09:56:52.448Z</time>
      </trkpt>
      <trkpt lat="46.87501" lon="8.52161">
        <ele>1665</ele>
        <time>2021-08-11T09:56:53.449Z</time>
      </trkpt>
      <trkpt lat="46.87501" lon="8.5216">
        <ele>1665</ele>
        <time>2021-08-11T09:56:54.448Z</time>
      </trkpt>
      <trkpt lat="46.875" lon="8.52159">
        <ele>1665</ele>
        <time>2021-08-11T09:56:55.448Z</time>
      </trkpt>
      <trkpt lat="46.87499" lon="8.52159">
        <ele>1665</ele>
        <time>2021-08-11T09:56:56.449Z</time>
      </trkpt>
      <trkpt lat="46.87499" lon="8.52158">
        <ele>1665</ele>
        <time>2021-08-11T09:56:57.449Z</time>
      </trkpt>
      <trkpt lat="46.87499" lon="8.52157">
        <ele>1665</ele>
        <time>2021-08-11T09:56:58.449Z</time>
      </trkpt>
      <trkpt lat="46.87498" lon="8.52156">
        <ele>1665</ele>
        <time>2021-08-11T09:56:59.449Z</time>
      </trkpt>
      <trkpt lat="46.87497" lon="8.52154">
        <ele>1665</ele>
        <time>2021-08-11T09:57:00.448Z</time>
      </trkpt>
      <trkpt lat="46.87497" lon="8.52153">
        <ele>1665</ele>
        <time>2021-08-11T09:57:01.449Z</time>
      </trkpt>
      <trkpt lat="46.87497" lon="8.52152">
        <ele>1665</ele>
        <time>2021-08-11T09:57:02.448Z</time>
      </trkpt>
      <trkpt lat="46.87496" lon="8.52151">
        <ele>1665</ele>
        <time>2021-08-11T09:57:03.449Z</time>
      </trkpt>
      <trkpt lat="46.87496" lon="8.5215">
        <ele>1666</ele>
        <time>2021-08-11T09:57:04.449Z</time>
      </trkpt>
      <trkpt lat="46.87495" lon="8.52148">
        <ele>1666</ele>
        <time>2021-08-11T09:57:05.449Z</time>
      </trkpt>
      <trkpt lat="46.87495" lon="8.52147">
        <ele>1666</ele>
        <time>2021-08-11T09:57:06.449Z</time>
      </trkpt>
      <trkpt lat="46.87494" lon="8.52146">
        <ele>1666</ele>
        <time>2021-08-11T09:57:07.449Z</time>
      </trkpt>
      <trkpt lat="46.87493" lon="8.52145">
        <ele>1666</ele>
        <time>2021-08-11T09:57:08.448Z</time>
      </trkpt>
      <trkpt lat="46.87493" lon="8.52144">
        <ele>1667</ele>
        <time>2021-08-11T09:57:09.449Z</time>
      </trkpt>
      <trkpt lat="46.87492" lon="8.52143">
        <ele>1667</ele>
        <time>2021-08-11T09:57:10.449Z</time>
      </trkpt>
      <trkpt lat="46.87491" lon="8.52142">
        <ele>1667</ele>
        <time>2021-08-11T09:57:11.449Z</time>
      </trkpt>
      <trkpt lat="46.87491" lon="8.52141">
        <ele>1667</ele>
        <time>2021-08-11T09:57:12.449Z</time>
      </trkpt>
      <trkpt lat="46.8749" lon="8.52139">
        <ele>1667</ele>
        <time>2021-08-11T09:57:13.448Z</time>
      </trkpt>
      <trkpt lat="46.8749" lon="8.52138">
        <ele>1667</ele>
        <time>2021-08-11T09:57:14.449Z</time>
      </trkpt>
      <trkpt lat="46.87489" lon="8.52137">
        <ele>1667</ele>
        <time>2021-08-11T09:57:15.449Z</time>
      </trkpt>
      <trkpt lat="46.87489" lon="8.52136">
        <ele>1667</ele>
        <time>2021-08-11T09:57:16.449Z</time>
      </trkpt>
      <trkpt lat="46.87488" lon="8.52135">
        <ele>1667</ele>
        <time>2021-08-11T09:57:17.449Z</time>
      </trkpt>
      <trkpt lat="46.87487" lon="8.52134">
        <ele>1667</ele>
        <time>2021-08-11T09:57:18.449Z</time>
      </trkpt>
      <trkpt lat="46.87486" lon="8.52132">
        <ele>1668</ele>
        <time>2021-08-11T09:57:19.449Z</time>
      </trkpt>
      <trkpt lat="46.87486" lon="8.52131">
        <ele>1668</ele>
        <time>2021-08-11T09:57:20.449Z</time>
      </trkpt>
      <trkpt lat="46.87485" lon="8.5213">
        <ele>1668</ele>
        <time>2021-08-11T09:57:21.449Z</time>
      </trkpt>
      <trkpt lat="46.87484" lon="8.52129">
        <ele>1669</ele>
        <time>2021-08-11T09:57:22.449Z</time>
      </trkpt>
      <trkpt lat="46.87483" lon="8.52128">
        <ele>1668</ele>
        <time>2021-08-11T09:57:23.448Z</time>
      </trkpt>
      <trkpt lat="46.87482" lon="8.52127">
        <ele>1668</ele>
        <time>2021-08-11T09:57:24.449Z</time>
      </trkpt>
      <trkpt lat="46.87482" lon="8.52127">
        <ele>1667</ele>
        <time>2021-08-11T09:57:25.449Z</time>
      </trkpt>
      <trkpt lat="46.87481" lon="8.52126">
        <ele>1667</ele>
        <time>2021-08-11T09:57:26.448Z</time>
      </trkpt>
      <trkpt lat="46.87481" lon="8.52125">
        <ele>1666</ele>
        <time>2021-08-11T09:57:27.448Z</time>
      </trkpt>
      <trkpt lat="46.87481" lon="8.52125">
        <ele>1665</ele>
        <time>2021-08-11T09:57:28.449Z</time>
      </trkpt>
      <trkpt lat="46.87481" lon="8.52125">
        <ele>1665</ele>
        <time>2021-08-11T09:57:29.449Z</time>
      </trkpt>
      <trkpt lat="46.8748" lon="8.52124">
        <ele>1665</ele>
        <time>2021-08-11T09:57:30.449Z</time>
      </trkpt>
      <trkpt lat="46.87479" lon="8.52122">
        <ele>1665</ele>
        <time>2021-08-11T09:57:31.449Z</time>
      </trkpt>
      <trkpt lat="46.87479" lon="8.52122">
        <ele>1665</ele>
        <time>2021-08-11T09:57:32.448Z</time>
      </trkpt>
      <trkpt lat="46.87477" lon="8.52121">
        <ele>1664</ele>
        <time>2021-08-11T09:57:33.449Z</time>
      </trkpt>
      <trkpt lat="46.87476" lon="8.52121">
        <ele>1664</ele>
        <time>2021-08-11T09:57:34.448Z</time>
      </trkpt>
      <trkpt lat="46.87475" lon="8.5212">
        <ele>1664</ele>
        <time>2021-08-11T09:57:35.448Z</time>
      </trkpt>
      <trkpt lat="46.87474" lon="8.52118">
        <ele>1663</ele>
        <time>2021-08-11T09:57:36.449Z</time>
      </trkpt>
      <trkpt lat="46.87473" lon="8.52117">
        <ele>1663</ele>
        <time>2021-08-11T09:57:37.448Z</time>
      </trkpt>
      <trkpt lat="46.87473" lon="8.52116">
        <ele>1663</ele>
        <time>2021-08-11T09:57:38.449Z</time>
      </trkpt>
      <trkpt lat="46.87472" lon="8.52115">
        <ele>1663</ele>
        <time>2021-08-11T09:57:39.449Z</time>
      </trkpt>
      <trkpt lat="46.87472" lon="8.52114">
        <ele>1664</ele>
        <time>2021-08-11T09:57:40.449Z</time>
      </trkpt>
      <trkpt lat="46.87471" lon="8.52114">
        <ele>1663</ele>
        <time>2021-08-11T09:57:41.449Z</time>
      </trkpt>
      <trkpt lat="46.8747" lon="8.52114">
        <ele>1663</ele>
        <time>2021-08-11T09:57:42.449Z</time>
      </trkpt>
      <trkpt lat="46.87469" lon="8.52114">
        <ele>1663</ele>
        <time>2021-08-11T09:57:43.449Z</time>
      </trkpt>
      <trkpt lat="46.87469" lon="8.52113">
        <ele>1662</ele>
        <time>2021-08-11T09:57:44.448Z</time>
      </trkpt>
      <trkpt lat="46.87468" lon="8.52112">
        <ele>1662</ele>
        <time>2021-08-11T09:57:45.449Z</time>
      </trkpt>
      <trkpt lat="46.87467" lon="8.52111">
        <ele>1662</ele>
        <time>2021-08-11T09:57:46.449Z</time>
      </trkpt>
      <trkpt lat="46.87465" lon="8.52109">
        <ele>1662</ele>
        <time>2021-08-11T09:57:47.449Z</time>
      </trkpt>
      <trkpt lat="46.87465" lon="8.52107">
        <ele>1662</ele>
        <time>2021-08-11T09:57:48.449Z</time>
      </trkpt>
      <trkpt lat="46.87464" lon="8.52106">
        <ele>1662</ele>
        <time>2021-08-11T09:57:49.449Z</time>
      </trkpt>
      <trkpt lat="46.87463" lon="8.52105">
        <ele>1662</ele>
        <time>2021-08-11T09:57:50.449Z</time>
      </trkpt>
      <trkpt lat="46.87463" lon="8.52103">
        <ele>1662</ele>
        <time>2021-08-11T09:57:51.448Z</time>
      </trkpt>
      <trkpt lat="46.87462" lon="8.52102">
        <ele>1661</ele>
        <time>2021-08-11T09:57:52.449Z</time>
      </trkpt>
      <trkpt lat="46.87462" lon="8.52101">
        <ele>1661</ele>
        <time>2021-08-11T09:57:53.448Z</time>
      </trkpt>
      <trkpt lat="46.87461" lon="8.52099">
        <ele>1661</ele>
        <time>2021-08-11T09:57:54.449Z</time>
      </trkpt>
      <trkpt lat="46.8746" lon="8.52098">
        <ele>1662</ele>
        <time>2021-08-11T09:57:55.448Z</time>
      </trkpt>
      <trkpt lat="46.8746" lon="8.52097">
        <ele>1662</ele>
        <time>2021-08-11T09:57:56.448Z</time>
      </trkpt>
      <trkpt lat="46.87459" lon="8.52096">
        <ele>1661</ele>
        <time>2021-08-11T09:57:57.449Z</time>
      </trkpt>
      <trkpt lat="46.87459" lon="8.52094">
        <ele>1661</ele>
        <time>2021-08-11T09:57:58.448Z</time>
      </trkpt>
      <trkpt lat="46.87458" lon="8.52093">
        <ele>1661</ele>
        <time>2021-08-11T09:57:59.449Z</time>
      </trkpt>
      <trkpt lat="46.87457" lon="8.52091">
        <ele>1660</ele>
        <time>2021-08-11T09:58:00.449Z</time>
      </trkpt>
      <trkpt lat="46.87457" lon="8.52089">
        <ele>1660</ele>
        <time>2021-08-11T09:58:01.449Z</time>
      </trkpt>
      <trkpt lat="46.87456" lon="8.52088">
        <ele>1660</ele>
        <time>2021-08-11T09:58:02.449Z</time>
      </trkpt>
      <trkpt lat="46.87455" lon="8.52086">
        <ele>1660</ele>
        <time>2021-08-11T09:58:03.448Z</time>
      </trkpt>
      <trkpt lat="46.87454" lon="8.52085">
        <ele>1660</ele>
        <time>2021-08-11T09:58:04.449Z</time>
      </trkpt>
      <trkpt lat="46.87453" lon="8.52083">
        <ele>1661</ele>
        <time>2021-08-11T09:58:05.449Z</time>
      </trkpt>
      <trkpt lat="46.87452" lon="8.52081">
        <ele>1660</ele>
        <time>2021-08-11T09:58:06.448Z</time>
      </trkpt>
      <trkpt lat="46.87451" lon="8.5208">
        <ele>1660</ele>
        <time>2021-08-11T09:58:07.449Z</time>
      </trkpt>
      <trkpt lat="46.87451" lon="8.52079">
        <ele>1660</ele>
        <time>2021-08-11T09:58:08.449Z</time>
      </trkpt>
      <trkpt lat="46.8745" lon="8.52077">
        <ele>1659</ele>
        <time>2021-08-11T09:58:09.449Z</time>
      </trkpt>
      <trkpt lat="46.87449" lon="8.52075">
        <ele>1659</ele>
        <time>2021-08-11T09:58:10.449Z</time>
      </trkpt>
      <trkpt lat="46.87448" lon="8.52074">
        <ele>1660</ele>
        <time>2021-08-11T09:58:11.448Z</time>
      </trkpt>
      <trkpt lat="46.87447" lon="8.52072">
        <ele>1660</ele>
        <time>2021-08-11T09:58:12.449Z</time>
      </trkpt>
      <trkpt lat="46.87447" lon="8.52071">
        <ele>1659</ele>
        <time>2021-08-11T09:58:13.449Z</time>
      </trkpt>
      <trkpt lat="46.87446" lon="8.52069">
        <ele>1659</ele>
        <time>2021-08-11T09:58:14.449Z</time>
      </trkpt>
      <trkpt lat="46.87445" lon="8.52068">
        <ele>1659</ele>
        <time>2021-08-11T09:58:15.448Z</time>
      </trkpt>
      <trkpt lat="46.87444" lon="8.52066">
        <ele>1659</ele>
        <time>2021-08-11T09:58:16.449Z</time>
      </trkpt>
      <trkpt lat="46.87444" lon="8.52065">
        <ele>1658</ele>
        <time>2021-08-11T09:58:17.448Z</time>
      </trkpt>
      <trkpt lat="46.87443" lon="8.52064">
        <ele>1658</ele>
        <time>2021-08-11T09:58:18.449Z</time>
      </trkpt>
      <trkpt lat="46.87442" lon="8.52063">
        <ele>1658</ele>
        <time>2021-08-11T09:58:19.448Z</time>
      </trkpt>
      <trkpt lat="46.87441" lon="8.52062">
        <ele>1658</ele>
        <time>2021-08-11T09:58:20.449Z</time>
      </trkpt>
      <trkpt lat="46.8744" lon="8.52062">
        <ele>1658</ele>
        <time>2021-08-11T09:58:21.449Z</time>
      </trkpt>
      <trkpt lat="46.87439" lon="8.52061">
        <ele>1658</ele>
        <time>2021-08-11T09:58:22.449Z</time>
      </trkpt>
      <trkpt lat="46.87438" lon="8.52059">
        <ele>1657</ele>
        <time>2021-08-11T09:58:23.448Z</time>
      </trkpt>
      <trkpt lat="46.87437" lon="8.52058">
        <ele>1658</ele>
        <time>2021-08-11T09:58:24.449Z</time>
      </trkpt>
      <trkpt lat="46.87436" lon="8.52056">
        <ele>1658</ele>
        <time>2021-08-11T09:58:25.449Z</time>
      </trkpt>
      <trkpt lat="46.87435" lon="8.52054">
        <ele>1659</ele>
        <time>2021-08-11T09:58:26.449Z</time>
      </trkpt>
      <trkpt lat="46.87435" lon="8.52052">
        <ele>1659</ele>
        <time>2021-08-11T09:58:27.449Z</time>
      </trkpt>
      <trkpt lat="46.87434" lon="8.5205">
        <ele>1659</ele>
        <time>2021-08-11T09:58:28.449Z</time>
      </trkpt>
      <trkpt lat="46.87433" lon="8.52048">
        <ele>1658</ele>
        <time>2021-08-11T09:58:29.449Z</time>
      </trkpt>
      <trkpt lat="46.87432" lon="8.52046">
        <ele>1658</ele>
        <time>2021-08-11T09:58:30.449Z</time>
      </trkpt>
      <trkpt lat="46.87431" lon="8.52044">
        <ele>1657</ele>
        <time>2021-08-11T09:58:31.448Z</time>
      </trkpt>
      <trkpt lat="46.8743" lon="8.52043">
        <ele>1657</ele>
        <time>2021-08-11T09:58:32.449Z</time>
      </trkpt>
      <trkpt lat="46.87429" lon="8.52042">
        <ele>1656</ele>
        <time>2021-08-11T09:58:33.449Z</time>
      </trkpt>
      <trkpt lat="46.87428" lon="8.52041">
        <ele>1656</ele>
        <time>2021-08-11T09:58:34.449Z</time>
      </trkpt>
      <trkpt lat="46.87427" lon="8.52039">
        <ele>1656</ele>
        <time>2021-08-11T09:58:35.448Z</time>
      </trkpt>
      <trkpt lat="46.87426" lon="8.52038">
        <ele>1656</ele>
        <time>2021-08-11T09:58:36.449Z</time>
      </trkpt>
      <trkpt lat="46.87425" lon="8.52036">
        <ele>1656</ele>
        <time>2021-08-11T09:58:37.448Z</time>
      </trkpt>
      <trkpt lat="46.87424" lon="8.52035">
        <ele>1656</ele>
        <time>2021-08-11T09:58:38.449Z</time>
      </trkpt>
      <trkpt lat="46.87423" lon="8.52033">
        <ele>1656</ele>
        <time>2021-08-11T09:58:39.449Z</time>
      </trkpt>
      <trkpt lat="46.87422" lon="8.52032">
        <ele>1656</ele>
        <time>2021-08-11T09:58:40.449Z</time>
      </trkpt>
      <trkpt lat="46.87421" lon="8.52031">
        <ele>1656</ele>
        <time>2021-08-11T09:58:41.449Z</time>
      </trkpt>
      <trkpt lat="46.87421" lon="8.52029">
        <ele>1655</ele>
        <time>2021-08-11T09:58:42.449Z</time>
      </trkpt>
      <trkpt lat="46.8742" lon="8.52028">
        <ele>1655</ele>
        <time>2021-08-11T09:58:43.449Z</time>
      </trkpt>
      <trkpt lat="46.87419" lon="8.52027">
        <ele>1655</ele>
        <time>2021-08-11T09:58:44.449Z</time>
      </trkpt>
      <trkpt lat="46.87418" lon="8.52026">
        <ele>1655</ele>
        <time>2021-08-11T09:58:45.449Z</time>
      </trkpt>
      <trkpt lat="46.87417" lon="8.52024">
        <ele>1654</ele>
        <time>2021-08-11T09:58:46.449Z</time>
      </trkpt>
      <trkpt lat="46.87417" lon="8.52023">
        <ele>1655</ele>
        <time>2021-08-11T09:58:47.448Z</time>
      </trkpt>
      <trkpt lat="46.87416" lon="8.52022">
        <ele>1655</ele>
        <time>2021-08-11T09:58:48.449Z</time>
      </trkpt>
      <trkpt lat="46.87415" lon="8.5202">
        <ele>1655</ele>
        <time>2021-08-11T09:58:49.448Z</time>
      </trkpt>
      <trkpt lat="46.87415" lon="8.52019">
        <ele>1655</ele>
        <time>2021-08-11T09:58:50.448Z</time>
      </trkpt>
      <trkpt lat="46.87414" lon="8.52017">
        <ele>1655</ele>
        <time>2021-08-11T09:58:51.449Z</time>
      </trkpt>
      <trkpt lat="46.87413" lon="8.52017">
        <ele>1655</ele>
        <time>2021-08-11T09:58:52.448Z</time>
      </trkpt>
      <trkpt lat="46.87412" lon="8.52015">
        <ele>1655</ele>
        <time>2021-08-11T09:58:53.449Z</time>
      </trkpt>
      <trkpt lat="46.87411" lon="8.52014">
        <ele>1655</ele>
        <time>2021-08-11T09:58:54.448Z</time>
      </trkpt>
      <trkpt lat="46.8741" lon="8.52013">
        <ele>1655</ele>
        <time>2021-08-11T09:58:55.449Z</time>
      </trkpt>
      <trkpt lat="46.87409" lon="8.52012">
        <ele>1655</ele>
        <time>2021-08-11T09:58:56.449Z</time>
      </trkpt>
      <trkpt lat="46.87408" lon="8.52011">
        <ele>1655</ele>
        <time>2021-08-11T09:58:57.449Z</time>
      </trkpt>
      <trkpt lat="46.87408" lon="8.5201">
        <ele>1655</ele>
        <time>2021-08-11T09:58:58.449Z</time>
      </trkpt>
      <trkpt lat="46.87407" lon="8.52009">
        <ele>1655</ele>
        <time>2021-08-11T09:58:59.448Z</time>
      </trkpt>
      <trkpt lat="46.87406" lon="8.52008">
        <ele>1654</ele>
        <time>2021-08-11T09:59:00.448Z</time>
      </trkpt>
      <trkpt lat="46.87405" lon="8.52008">
        <ele>1654</ele>
        <time>2021-08-11T09:59:01.448Z</time>
      </trkpt>
      <trkpt lat="46.87405" lon="8.52007">
        <ele>1654</ele>
        <time>2021-08-11T09:59:02.449Z</time>
      </trkpt>
      <trkpt lat="46.87404" lon="8.52006">
        <ele>1653</ele>
        <time>2021-08-11T09:59:03.449Z</time>
      </trkpt>
      <trkpt lat="46.87404" lon="8.52005">
        <ele>1653</ele>
        <time>2021-08-11T09:59:04.448Z</time>
      </trkpt>
      <trkpt lat="46.87404" lon="8.52004">
        <ele>1652</ele>
        <time>2021-08-11T09:59:05.448Z</time>
      </trkpt>
      <trkpt lat="46.87404" lon="8.52003">
        <ele>1652</ele>
        <time>2021-08-11T09:59:06.448Z</time>
      </trkpt>
      <trkpt lat="46.87403" lon="8.52001">
        <ele>1651</ele>
        <time>2021-08-11T09:59:07.448Z</time>
      </trkpt>
      <trkpt lat="46.87402" lon="8.52">
        <ele>1651</ele>
        <time>2021-08-11T09:59:08.448Z</time>
      </trkpt>
      <trkpt lat="46.87401" lon="8.51998">
        <ele>1650</ele>
        <time>2021-08-11T09:59:09.449Z</time>
      </trkpt>
      <trkpt lat="46.874" lon="8.51997">
        <ele>1650</ele>
        <time>2021-08-11T09:59:10.448Z</time>
      </trkpt>
      <trkpt lat="46.87399" lon="8.51996">
        <ele>1650</ele>
        <time>2021-08-11T09:59:11.448Z</time>
      </trkpt>
      <trkpt lat="46.87398" lon="8.51995">
        <ele>1650</ele>
        <time>2021-08-11T09:59:12.449Z</time>
      </trkpt>
      <trkpt lat="46.87397" lon="8.51993">
        <ele>1650</ele>
        <time>2021-08-11T09:59:13.448Z</time>
      </trkpt>
      <trkpt lat="46.87395" lon="8.51992">
        <ele>1650</ele>
        <time>2021-08-11T09:59:14.449Z</time>
      </trkpt>
      <trkpt lat="46.87395" lon="8.51991">
        <ele>1650</ele>
        <time>2021-08-11T09:59:15.448Z</time>
      </trkpt>
      <trkpt lat="46.87394" lon="8.5199">
        <ele>1650</ele>
        <time>2021-08-11T09:59:16.449Z</time>
      </trkpt>
      <trkpt lat="46.87393" lon="8.51989">
        <ele>1650</ele>
        <time>2021-08-11T09:59:17.449Z</time>
      </trkpt>
      <trkpt lat="46.87392" lon="8.51987">
        <ele>1650</ele>
        <time>2021-08-11T09:59:18.448Z</time>
      </trkpt>
      <trkpt lat="46.87391" lon="8.51986">
        <ele>1649</ele>
        <time>2021-08-11T09:59:19.449Z</time>
      </trkpt>
      <trkpt lat="46.87391" lon="8.51985">
        <ele>1649</ele>
        <time>2021-08-11T09:59:20.449Z</time>
      </trkpt>
      <trkpt lat="46.8739" lon="8.51984">
        <ele>1649</ele>
        <time>2021-08-11T09:59:21.449Z</time>
      </trkpt>
      <trkpt lat="46.8739" lon="8.51983">
        <ele>1649</ele>
        <time>2021-08-11T09:59:22.449Z</time>
      </trkpt>
      <trkpt lat="46.87389" lon="8.51982">
        <ele>1648</ele>
        <time>2021-08-11T09:59:23.449Z</time>
      </trkpt>
      <trkpt lat="46.87388" lon="8.5198">
        <ele>1647</ele>
        <time>2021-08-11T09:59:24.448Z</time>
      </trkpt>
      <trkpt lat="46.87387" lon="8.51979">
        <ele>1647</ele>
        <time>2021-08-11T09:59:25.449Z</time>
      </trkpt>
      <trkpt lat="46.87386" lon="8.51977">
        <ele>1646</ele>
        <time>2021-08-11T09:59:26.449Z</time>
      </trkpt>
      <trkpt lat="46.87385" lon="8.51976">
        <ele>1645</ele>
        <time>2021-08-11T09:59:27.448Z</time>
      </trkpt>
      <trkpt lat="46.87384" lon="8.51975">
        <ele>1645</ele>
        <time>2021-08-11T09:59:28.449Z</time>
      </trkpt>
      <trkpt lat="46.87384" lon="8.51974">
        <ele>1644</ele>
        <time>2021-08-11T09:59:29.448Z</time>
      </trkpt>
      <trkpt lat="46.87382" lon="8.51973">
        <ele>1643</ele>
        <time>2021-08-11T09:59:30.449Z</time>
      </trkpt>
      <trkpt lat="46.87381" lon="8.51972">
        <ele>1643</ele>
        <time>2021-08-11T09:59:31.449Z</time>
      </trkpt>
      <trkpt lat="46.8738" lon="8.51971">
        <ele>1643</ele>
        <time>2021-08-11T09:59:32.449Z</time>
      </trkpt>
      <trkpt lat="46.87378" lon="8.5197">
        <ele>1643</ele>
        <time>2021-08-11T09:59:33.448Z</time>
      </trkpt>
      <trkpt lat="46.87378" lon="8.51968">
        <ele>1643</ele>
        <time>2021-08-11T09:59:34.449Z</time>
      </trkpt>
      <trkpt lat="46.87377" lon="8.51967">
        <ele>1643</ele>
        <time>2021-08-11T09:59:35.448Z</time>
      </trkpt>
      <trkpt lat="46.87376" lon="8.51965">
        <ele>1643</ele>
        <time>2021-08-11T09:59:36.448Z</time>
      </trkpt>
      <trkpt lat="46.87375" lon="8.51964">
        <ele>1643</ele>
        <time>2021-08-11T09:59:37.449Z</time>
      </trkpt>
      <trkpt lat="46.87375" lon="8.51962">
        <ele>1643</ele>
        <time>2021-08-11T09:59:38.449Z</time>
      </trkpt>
      <trkpt lat="46.87374" lon="8.51961">
        <ele>1643</ele>
        <time>2021-08-11T09:59:39.449Z</time>
      </trkpt>
      <trkpt lat="46.87373" lon="8.5196">
        <ele>1643</ele>
        <time>2021-08-11T09:59:40.448Z</time>
      </trkpt>
      <trkpt lat="46.87372" lon="8.51959">
        <ele>1643</ele>
        <time>2021-08-11T09:59:41.448Z</time>
      </trkpt>
      <trkpt lat="46.87372" lon="8.51958">
        <ele>1643</ele>
        <time>2021-08-11T09:59:42.449Z</time>
      </trkpt>
      <trkpt lat="46.87371" lon="8.51956">
        <ele>1643</ele>
        <time>2021-08-11T09:59:43.449Z</time>
      </trkpt>
      <trkpt lat="46.87371" lon="8.51955">
        <ele>1643</ele>
        <time>2021-08-11T09:59:44.449Z</time>
      </trkpt>
      <trkpt lat="46.8737" lon="8.51953">
        <ele>1643</ele>
        <time>2021-08-11T09:59:45.448Z</time>
      </trkpt>
      <trkpt lat="46.87369" lon="8.51952">
        <ele>1643</ele>
        <time>2021-08-11T09:59:46.448Z</time>
      </trkpt>
      <trkpt lat="46.87368" lon="8.5195">
        <ele>1643</ele>
        <time>2021-08-11T09:59:47.449Z</time>
      </trkpt>
      <trkpt lat="46.87367" lon="8.51948">
        <ele>1642</ele>
        <time>2021-08-11T09:59:48.448Z</time>
      </trkpt>
      <trkpt lat="46.87366" lon="8.51946">
        <ele>1642</ele>
        <time>2021-08-11T09:59:49.449Z</time>
      </trkpt>
      <trkpt lat="46.87366" lon="8.51945">
        <ele>1641</ele>
        <time>2021-08-11T09:59:50.448Z</time>
      </trkpt>
      <trkpt lat="46.87365" lon="8.51943">
        <ele>1641</ele>
        <time>2021-08-11T09:59:51.448Z</time>
      </trkpt>
      <trkpt lat="46.87364" lon="8.51941">
        <ele>1641</ele>
        <time>2021-08-11T09:59:52.449Z</time>
      </trkpt>
      <trkpt lat="46.87363" lon="8.51939">
        <ele>1641</ele>
        <time>2021-08-11T09:59:53.449Z</time>
      </trkpt>
      <trkpt lat="46.87363" lon="8.51938">
        <ele>1641</ele>
        <time>2021-08-11T09:59:54.448Z</time>
      </trkpt>
      <trkpt lat="46.87362" lon="8.51936">
        <ele>1641</ele>
        <time>2021-08-11T09:59:55.449Z</time>
      </trkpt>
      <trkpt lat="46.87361" lon="8.51934">
        <ele>1641</ele>
        <time>2021-08-11T09:59:56.448Z</time>
      </trkpt>
      <trkpt lat="46.8736" lon="8.51933">
        <ele>1641</ele>
        <time>2021-08-11T09:59:57.448Z</time>
      </trkpt>
      <trkpt lat="46.87359" lon="8.51931">
        <ele>1641</ele>
        <time>2021-08-11T09:59:58.448Z</time>
      </trkpt>
      <trkpt lat="46.87359" lon="8.5193">
        <ele>1641</ele>
        <time>2021-08-11T09:59:59.449Z</time>
      </trkpt>
      <trkpt lat="46.87358" lon="8.51929">
        <ele>1641</ele>
        <time>2021-08-11T10:00:00.448Z</time>
      </trkpt>
      <trkpt lat="46.87357" lon="8.51928">
        <ele>1641</ele>
        <time>2021-08-11T10:00:01.448Z</time>
      </trkpt>
      <trkpt lat="46.87357" lon="8.51926">
        <ele>1641</ele>
        <time>2021-08-11T10:00:02.448Z</time>
      </trkpt>
      <trkpt lat="46.87356" lon="8.51925">
        <ele>1642</ele>
        <time>2021-08-11T10:00:03.449Z</time>
      </trkpt>
      <trkpt lat="46.87355" lon="8.51924">
        <ele>1642</ele>
        <time>2021-08-11T10:00:04.448Z</time>
      </trkpt>
      <trkpt lat="46.87354" lon="8.51922">
        <ele>1642</ele>
        <time>2021-08-11T10:00:05.448Z</time>
      </trkpt>
      <trkpt lat="46.87353" lon="8.51919">
        <ele>1642</ele>
        <time>2021-08-11T10:00:06.448Z</time>
      </trkpt>
      <trkpt lat="46.87352" lon="8.51918">
        <ele>1643</ele>
        <time>2021-08-11T10:00:07.448Z</time>
      </trkpt>
      <trkpt lat="46.87351" lon="8.51916">
        <ele>1643</ele>
        <time>2021-08-11T10:00:08.449Z</time>
      </trkpt>
      <trkpt lat="46.8735" lon="8.51915">
        <ele>1643</ele>
        <time>2021-08-11T10:00:09.448Z</time>
      </trkpt>
      <trkpt lat="46.87349" lon="8.51913">
        <ele>1643</ele>
        <time>2021-08-11T10:00:10.448Z</time>
      </trkpt>
      <trkpt lat="46.87349" lon="8.51911">
        <ele>1643</ele>
        <time>2021-08-11T10:00:11.448Z</time>
      </trkpt>
      <trkpt lat="46.87348" lon="8.5191">
        <ele>1642</ele>
        <time>2021-08-11T10:00:12.448Z</time>
      </trkpt>
      <trkpt lat="46.87347" lon="8.51908">
        <ele>1641</ele>
        <time>2021-08-11T10:00:13.449Z</time>
      </trkpt>
      <trkpt lat="46.87346" lon="8.51907">
        <ele>1641</ele>
        <time>2021-08-11T10:00:14.448Z</time>
      </trkpt>
      <trkpt lat="46.87346" lon="8.51905">
        <ele>1640</ele>
        <time>2021-08-11T10:00:15.449Z</time>
      </trkpt>
      <trkpt lat="46.87345" lon="8.51903">
        <ele>1640</ele>
        <time>2021-08-11T10:00:16.448Z</time>
      </trkpt>
      <trkpt lat="46.87344" lon="8.51902">
        <ele>1639</ele>
        <time>2021-08-11T10:00:17.448Z</time>
      </trkpt>
      <trkpt lat="46.87343" lon="8.519">
        <ele>1640</ele>
        <time>2021-08-11T10:00:18.449Z</time>
      </trkpt>
      <trkpt lat="46.87343" lon="8.51899">
        <ele>1640</ele>
        <time>2021-08-11T10:00:19.448Z</time>
      </trkpt>
      <trkpt lat="46.87341" lon="8.51897">
        <ele>1640</ele>
        <time>2021-08-11T10:00:20.448Z</time>
      </trkpt>
      <trkpt lat="46.87341" lon="8.51895">
        <ele>1639</ele>
        <time>2021-08-11T10:00:21.449Z</time>
      </trkpt>
      <trkpt lat="46.8734" lon="8.51893">
        <ele>1640</ele>
        <time>2021-08-11T10:00:22.449Z</time>
      </trkpt>
      <trkpt lat="46.87338" lon="8.51891">
        <ele>1640</ele>
        <time>2021-08-11T10:00:23.449Z</time>
      </trkpt>
      <trkpt lat="46.87337" lon="8.51888">
        <ele>1640</ele>
        <time>2021-08-11T10:00:24.448Z</time>
      </trkpt>
      <trkpt lat="46.87336" lon="8.51887">
        <ele>1641</ele>
        <time>2021-08-11T10:00:25.448Z</time>
      </trkpt>
      <trkpt lat="46.87335" lon="8.51885">
        <ele>1641</ele>
        <time>2021-08-11T10:00:26.448Z</time>
      </trkpt>
      <trkpt lat="46.87334" lon="8.51884">
        <ele>1641</ele>
        <time>2021-08-11T10:00:27.449Z</time>
      </trkpt>
      <trkpt lat="46.87334" lon="8.51883">
        <ele>1641</ele>
        <time>2021-08-11T10:00:28.448Z</time>
      </trkpt>
      <trkpt lat="46.87333" lon="8.51883">
        <ele>1641</ele>
        <time>2021-08-11T10:00:29.448Z</time>
      </trkpt>
      <trkpt lat="46.87332" lon="8.51881">
        <ele>1641</ele>
        <time>2021-08-11T10:00:30.448Z</time>
      </trkpt>
      <trkpt lat="46.87332" lon="8.5188">
        <ele>1641</ele>
        <time>2021-08-11T10:00:31.448Z</time>
      </trkpt>
      <trkpt lat="46.87331" lon="8.51878">
        <ele>1641</ele>
        <time>2021-08-11T10:00:32.449Z</time>
      </trkpt>
      <trkpt lat="46.87331" lon="8.51877">
        <ele>1641</ele>
        <time>2021-08-11T10:00:33.449Z</time>
      </trkpt>
      <trkpt lat="46.8733" lon="8.51875">
        <ele>1641</ele>
        <time>2021-08-11T10:00:34.448Z</time>
      </trkpt>
      <trkpt lat="46.87329" lon="8.51874">
        <ele>1641</ele>
        <time>2021-08-11T10:00:35.448Z</time>
      </trkpt>
      <trkpt lat="46.87328" lon="8.51872">
        <ele>1641</ele>
        <time>2021-08-11T10:00:36.448Z</time>
      </trkpt>
      <trkpt lat="46.87327" lon="8.51871">
        <ele>1641</ele>
        <time>2021-08-11T10:00:37.449Z</time>
      </trkpt>
      <trkpt lat="46.87326" lon="8.5187">
        <ele>1640</ele>
        <time>2021-08-11T10:00:38.449Z</time>
      </trkpt>
      <trkpt lat="46.87325" lon="8.51868">
        <ele>1640</ele>
        <time>2021-08-11T10:00:39.448Z</time>
      </trkpt>
      <trkpt lat="46.87325" lon="8.51866">
        <ele>1640</ele>
        <time>2021-08-11T10:00:40.449Z</time>
      </trkpt>
      <trkpt lat="46.87324" lon="8.51865">
        <ele>1640</ele>
        <time>2021-08-11T10:00:41.448Z</time>
      </trkpt>
      <trkpt lat="46.87323" lon="8.51864">
        <ele>1640</ele>
        <time>2021-08-11T10:00:42.449Z</time>
      </trkpt>
      <trkpt lat="46.87323" lon="8.51863">
        <ele>1640</ele>
        <time>2021-08-11T10:00:43.448Z</time>
      </trkpt>
      <trkpt lat="46.87322" lon="8.51861">
        <ele>1639</ele>
        <time>2021-08-11T10:00:44.448Z</time>
      </trkpt>
      <trkpt lat="46.87321" lon="8.5186">
        <ele>1639</ele>
        <time>2021-08-11T10:00:45.449Z</time>
      </trkpt>
      <trkpt lat="46.8732" lon="8.51858">
        <ele>1638</ele>
        <time>2021-08-11T10:00:46.448Z</time>
      </trkpt>
      <trkpt lat="46.87319" lon="8.51857">
        <ele>1638</ele>
        <time>2021-08-11T10:00:47.449Z</time>
      </trkpt>
      <trkpt lat="46.87319" lon="8.51855">
        <ele>1637</ele>
        <time>2021-08-11T10:00:48.448Z</time>
      </trkpt>
      <trkpt lat="46.87318" lon="8.51854">
        <ele>1637</ele>
        <time>2021-08-11T10:00:49.448Z</time>
      </trkpt>
      <trkpt lat="46.87317" lon="8.51852">
        <ele>1636</ele>
        <time>2021-08-11T10:00:50.448Z</time>
      </trkpt>
      <trkpt lat="46.87316" lon="8.51851">
        <ele>1636</ele>
        <time>2021-08-11T10:00:51.448Z</time>
      </trkpt>
      <trkpt lat="46.87315" lon="8.5185">
        <ele>1637</ele>
        <time>2021-08-11T10:00:52.449Z</time>
      </trkpt>
      <trkpt lat="46.87314" lon="8.51849">
        <ele>1637</ele>
        <time>2021-08-11T10:00:53.449Z</time>
      </trkpt>
      <trkpt lat="46.87314" lon="8.51848">
        <ele>1637</ele>
        <time>2021-08-11T10:00:54.448Z</time>
      </trkpt>
      <trkpt lat="46.87313" lon="8.51847">
        <ele>1637</ele>
        <time>2021-08-11T10:00:55.448Z</time>
      </trkpt>
      <trkpt lat="46.87313" lon="8.51846">
        <ele>1637</ele>
        <time>2021-08-11T10:00:56.448Z</time>
      </trkpt>
      <trkpt lat="46.87313" lon="8.51845">
        <ele>1637</ele>
        <time>2021-08-11T10:00:57.449Z</time>
      </trkpt>
      <trkpt lat="46.87313" lon="8.51844">
        <ele>1637</ele>
        <time>2021-08-11T10:00:58.449Z</time>
      </trkpt>
      <trkpt lat="46.87312" lon="8.51842">
        <ele>1637</ele>
        <time>2021-08-11T10:00:59.448Z</time>
      </trkpt>
      <trkpt lat="46.87312" lon="8.5184">
        <ele>1637</ele>
        <time>2021-08-11T10:01:00.448Z</time>
      </trkpt>
      <trkpt lat="46.87311" lon="8.51839">
        <ele>1637</ele>
        <time>2021-08-11T10:01:01.448Z</time>
      </trkpt>
      <trkpt lat="46.87311" lon="8.51837">
        <ele>1636</ele>
        <time>2021-08-11T10:01:02.448Z</time>
      </trkpt>
      <trkpt lat="46.8731" lon="8.51836">
        <ele>1636</ele>
        <time>2021-08-11T10:01:03.448Z</time>
      </trkpt>
      <trkpt lat="46.8731" lon="8.51835">
        <ele>1636</ele>
        <time>2021-08-11T10:01:04.448Z</time>
      </trkpt>
      <trkpt lat="46.87309" lon="8.51834">
        <ele>1636</ele>
        <time>2021-08-11T10:01:05.448Z</time>
      </trkpt>
      <trkpt lat="46.87309" lon="8.51832">
        <ele>1636</ele>
        <time>2021-08-11T10:01:06.448Z</time>
      </trkpt>
      <trkpt lat="46.87308" lon="8.51831">
        <ele>1636</ele>
        <time>2021-08-11T10:01:07.448Z</time>
      </trkpt>
      <trkpt lat="46.87308" lon="8.51829">
        <ele>1636</ele>
        <time>2021-08-11T10:01:08.448Z</time>
      </trkpt>
      <trkpt lat="46.87307" lon="8.51828">
        <ele>1636</ele>
        <time>2021-08-11T10:01:09.449Z</time>
      </trkpt>
      <trkpt lat="46.87306" lon="8.51826">
        <ele>1636</ele>
        <time>2021-08-11T10:01:10.448Z</time>
      </trkpt>
      <trkpt lat="46.87306" lon="8.51824">
        <ele>1636</ele>
        <time>2021-08-11T10:01:11.449Z</time>
      </trkpt>
      <trkpt lat="46.87305" lon="8.51823">
        <ele>1636</ele>
        <time>2021-08-11T10:01:12.449Z</time>
      </trkpt>
      <trkpt lat="46.87304" lon="8.51821">
        <ele>1637</ele>
        <time>2021-08-11T10:01:13.449Z</time>
      </trkpt>
      <trkpt lat="46.87303" lon="8.5182">
        <ele>1637</ele>
        <time>2021-08-11T10:01:14.448Z</time>
      </trkpt>
      <trkpt lat="46.87303" lon="8.51818">
        <ele>1638</ele>
        <time>2021-08-11T10:01:15.449Z</time>
      </trkpt>
      <trkpt lat="46.87302" lon="8.51817">
        <ele>1638</ele>
        <time>2021-08-11T10:01:16.449Z</time>
      </trkpt>
      <trkpt lat="46.87301" lon="8.51815">
        <ele>1639</ele>
        <time>2021-08-11T10:01:17.448Z</time>
      </trkpt>
      <trkpt lat="46.87301" lon="8.51813">
        <ele>1639</ele>
        <time>2021-08-11T10:01:18.449Z</time>
      </trkpt>
      <trkpt lat="46.873" lon="8.51812">
        <ele>1640</ele>
        <time>2021-08-11T10:01:19.449Z</time>
      </trkpt>
      <trkpt lat="46.873" lon="8.5181">
        <ele>1640</ele>
        <time>2021-08-11T10:01:20.449Z</time>
      </trkpt>
      <trkpt lat="46.873" lon="8.51809">
        <ele>1640</ele>
        <time>2021-08-11T10:01:21.449Z</time>
      </trkpt>
      <trkpt lat="46.873" lon="8.51808">
        <ele>1640</ele>
        <time>2021-08-11T10:01:22.449Z</time>
      </trkpt>
      <trkpt lat="46.873" lon="8.51806">
        <ele>1641</ele>
        <time>2021-08-11T10:01:23.449Z</time>
      </trkpt>
      <trkpt lat="46.873" lon="8.51804">
        <ele>1641</ele>
        <time>2021-08-11T10:01:24.449Z</time>
      </trkpt>
      <trkpt lat="46.873" lon="8.51802">
        <ele>1641</ele>
        <time>2021-08-11T10:01:25.449Z</time>
      </trkpt>
      <trkpt lat="46.87301" lon="8.518">
        <ele>1642</ele>
        <time>2021-08-11T10:01:26.448Z</time>
      </trkpt>
      <trkpt lat="46.87301" lon="8.51799">
        <ele>1642</ele>
        <time>2021-08-11T10:01:27.449Z</time>
      </trkpt>
      <trkpt lat="46.87301" lon="8.51797">
        <ele>1642</ele>
        <time>2021-08-11T10:01:28.448Z</time>
      </trkpt>
      <trkpt lat="46.873" lon="8.51796">
        <ele>1642</ele>
        <time>2021-08-11T10:01:29.449Z</time>
      </trkpt>
      <trkpt lat="46.873" lon="8.51795">
        <ele>1642</ele>
        <time>2021-08-11T10:01:30.449Z</time>
      </trkpt>
      <trkpt lat="46.87299" lon="8.51794">
        <ele>1641</ele>
        <time>2021-08-11T10:01:31.448Z</time>
      </trkpt>
      <trkpt lat="46.87298" lon="8.51794">
        <ele>1641</ele>
        <time>2021-08-11T10:01:32.449Z</time>
      </trkpt>
      <trkpt lat="46.87298" lon="8.51792">
        <ele>1640</ele>
        <time>2021-08-11T10:01:33.448Z</time>
      </trkpt>
      <trkpt lat="46.87297" lon="8.51791">
        <ele>1639</ele>
        <time>2021-08-11T10:01:34.449Z</time>
      </trkpt>
      <trkpt lat="46.87297" lon="8.51791">
        <ele>1639</ele>
        <time>2021-08-11T10:01:35.448Z</time>
      </trkpt>
      <trkpt lat="46.87296" lon="8.5179">
        <ele>1639</ele>
        <time>2021-08-11T10:01:36.449Z</time>
      </trkpt>
      <trkpt lat="46.87296" lon="8.51789">
        <ele>1639</ele>
        <time>2021-08-11T10:01:37.449Z</time>
      </trkpt>
      <trkpt lat="46.87295" lon="8.51788">
        <ele>1638</ele>
        <time>2021-08-11T10:01:38.449Z</time>
      </trkpt>
      <trkpt lat="46.87295" lon="8.51788">
        <ele>1637</ele>
        <time>2021-08-11T10:01:39.449Z</time>
      </trkpt>
      <trkpt lat="46.87295" lon="8.51787">
        <ele>1637</ele>
        <time>2021-08-11T10:01:40.448Z</time>
      </trkpt>
      <trkpt lat="46.87295" lon="8.51786">
        <ele>1637</ele>
        <time>2021-08-11T10:01:41.449Z</time>
      </trkpt>
      <trkpt lat="46.87295" lon="8.51785">
        <ele>1637</ele>
        <time>2021-08-11T10:01:42.449Z</time>
      </trkpt>
      <trkpt lat="46.87296" lon="8.51783">
        <ele>1637</ele>
        <time>2021-08-11T10:01:43.449Z</time>
      </trkpt>
      <trkpt lat="46.87296" lon="8.51782">
        <ele>1637</ele>
        <time>2021-08-11T10:01:44.448Z</time>
      </trkpt>
      <trkpt lat="46.87295" lon="8.51781">
        <ele>1637</ele>
        <time>2021-08-11T10:01:45.448Z</time>
      </trkpt>
      <trkpt lat="46.87294" lon="8.51781">
        <ele>1637</ele>
        <time>2021-08-11T10:01:46.449Z</time>
      </trkpt>
      <trkpt lat="46.87293" lon="8.51781">
        <ele>1637</ele>
        <time>2021-08-11T10:01:47.449Z</time>
      </trkpt>
      <trkpt lat="46.87293" lon="8.5178">
        <ele>1638</ele>
        <time>2021-08-11T10:01:48.449Z</time>
      </trkpt>
      <trkpt lat="46.87293" lon="8.51779">
        <ele>1638</ele>
        <time>2021-08-11T10:01:49.448Z</time>
      </trkpt>
      <trkpt lat="46.87293" lon="8.51778">
        <ele>1638</ele>
        <time>2021-08-11T10:01:50.449Z</time>
      </trkpt>
      <trkpt lat="46.87293" lon="8.51777">
        <ele>1639</ele>
        <time>2021-08-11T10:01:51.448Z</time>
      </trkpt>
      <trkpt lat="46.87292" lon="8.51776">
        <ele>1639</ele>
        <time>2021-08-11T10:01:52.448Z</time>
      </trkpt>
      <trkpt lat="46.87291" lon="8.51775">
        <ele>1639</ele>
        <time>2021-08-11T10:01:53.449Z</time>
      </trkpt>
      <trkpt lat="46.87291" lon="8.51775">
        <ele>1639</ele>
        <time>2021-08-11T10:01:54.449Z</time>
      </trkpt>
      <trkpt lat="46.87291" lon="8.51774">
        <ele>1639</ele>
        <time>2021-08-11T10:01:55.448Z</time>
      </trkpt>
      <trkpt lat="46.87291" lon="8.51772">
        <ele>1640</ele>
        <time>2021-08-11T10:01:56.449Z</time>
      </trkpt>
      <trkpt lat="46.87291" lon="8.5177">
        <ele>1640</ele>
        <time>2021-08-11T10:01:57.448Z</time>
      </trkpt>
      <trkpt lat="46.8729" lon="8.51769">
        <ele>1640</ele>
        <time>2021-08-11T10:01:58.449Z</time>
      </trkpt>
      <trkpt lat="46.87289" lon="8.51767">
        <ele>1640</ele>
        <time>2021-08-11T10:01:59.448Z</time>
      </trkpt>
      <trkpt lat="46.87288" lon="8.51766">
        <ele>1640</ele>
        <time>2021-08-11T10:02:00.448Z</time>
      </trkpt>
      <trkpt lat="46.87287" lon="8.51766">
        <ele>1639</ele>
        <time>2021-08-11T10:02:01.449Z</time>
      </trkpt>
      <trkpt lat="46.87286" lon="8.51766">
        <ele>1639</ele>
        <time>2021-08-11T10:02:02.449Z</time>
      </trkpt>
      <trkpt lat="46.87285" lon="8.51766">
        <ele>1638</ele>
        <time>2021-08-11T10:02:03.449Z</time>
      </trkpt>
      <trkpt lat="46.87285" lon="8.51765">
        <ele>1638</ele>
        <time>2021-08-11T10:02:04.448Z</time>
      </trkpt>
      <trkpt lat="46.87285" lon="8.51764">
        <ele>1638</ele>
        <time>2021-08-11T10:02:05.449Z</time>
      </trkpt>
      <trkpt lat="46.87285" lon="8.51763">
        <ele>1638</ele>
        <time>2021-08-11T10:02:06.449Z</time>
      </trkpt>
      <trkpt lat="46.87284" lon="8.51762">
        <ele>1638</ele>
        <time>2021-08-11T10:02:07.449Z</time>
      </trkpt>
      <trkpt lat="46.87284" lon="8.51761">
        <ele>1638</ele>
        <time>2021-08-11T10:02:08.449Z</time>
      </trkpt>
      <trkpt lat="46.87284" lon="8.5176">
        <ele>1638</ele>
        <time>2021-08-11T10:02:09.448Z</time>
      </trkpt>
      <trkpt lat="46.87284" lon="8.5176">
        <ele>1639</ele>
        <time>2021-08-11T10:02:10.449Z</time>
      </trkpt>
      <trkpt lat="46.87284" lon="8.51759">
        <ele>1639</ele>
        <time>2021-08-11T10:02:11.449Z</time>
      </trkpt>
      <trkpt lat="46.87284" lon="8.51758">
        <ele>1639</ele>
        <time>2021-08-11T10:02:12.449Z</time>
      </trkpt>
      <trkpt lat="46.87284" lon="8.51758">
        <ele>1639</ele>
        <time>2021-08-11T10:02:13.448Z</time>
      </trkpt>
      <trkpt lat="46.87284" lon="8.51757">
        <ele>1640</ele>
        <time>2021-08-11T10:02:14.449Z</time>
      </trkpt>
      <trkpt lat="46.87283" lon="8.51757">
        <ele>1640</ele>
        <time>2021-08-11T10:02:15.449Z</time>
      </trkpt>
      <trkpt lat="46.87281" lon="8.51758">
        <ele>1641</ele>
        <time>2021-08-11T10:02:16.450Z</time>
      </trkpt>
      <trkpt lat="46.87281" lon="8.51756">
        <ele>1641</ele>
        <time>2021-08-11T10:02:17.449Z</time>
      </trkpt>
      <trkpt lat="46.87281" lon="8.51756">
        <ele>1642</ele>
        <time>2021-08-11T10:02:18.449Z</time>
      </trkpt>
      <trkpt lat="46.87281" lon="8.51747">
        <ele>1649</ele>
        <time>2021-08-11T10:02:19.450Z</time>
      </trkpt>
      <trkpt lat="46.87281" lon="8.51747">
        <ele>1649</ele>
        <time>2021-08-11T10:02:20.451Z</time>
      </trkpt>
      <trkpt lat="46.87277" lon="8.51758">
        <ele>1649</ele>
        <time>2021-08-11T10:02:21.451Z</time>
      </trkpt>
      <trkpt lat="46.8728" lon="8.51758">
        <ele>1646</ele>
        <time>2021-08-11T10:02:22.451Z</time>
      </trkpt>
      <trkpt lat="46.87278" lon="8.51758">
        <ele>1645</ele>
        <time>2021-08-11T10:02:23.450Z</time>
      </trkpt>
      <trkpt lat="46.87277" lon="8.51759">
        <ele>1643</ele>
        <time>2021-08-11T10:02:24.450Z</time>
      </trkpt>
      <trkpt lat="46.87276" lon="8.51759">
        <ele>1643</ele>
        <time>2021-08-11T10:02:25.451Z</time>
      </trkpt>
      <trkpt lat="46.87277" lon="8.51759">
        <ele>1642</ele>
        <time>2021-08-11T10:02:26.450Z</time>
      </trkpt>
      <trkpt lat="46.87279" lon="8.51756">
        <ele>1642</ele>
        <time>2021-08-11T10:02:27.451Z</time>
      </trkpt>
      <trkpt lat="46.87279" lon="8.51755">
        <ele>1642</ele>
        <time>2021-08-11T10:02:28.451Z</time>
      </trkpt>
      <trkpt lat="46.87279" lon="8.51755">
        <ele>1641</ele>
        <time>2021-08-11T10:02:29.451Z</time>
      </trkpt>
      <trkpt lat="46.87279" lon="8.51755">
        <ele>1641</ele>
        <time>2021-08-11T10:02:30.451Z</time>
      </trkpt>
      <trkpt lat="46.87281" lon="8.51754">
        <ele>1639</ele>
        <time>2021-08-11T10:02:31.452Z</time>
      </trkpt>
      <trkpt lat="46.87281" lon="8.51754">
        <ele>1639</ele>
        <time>2021-08-11T10:02:32.451Z</time>
      </trkpt>
      <trkpt lat="46.87281" lon="8.51753">
        <ele>1640</ele>
        <time>2021-08-11T10:02:33.451Z</time>
      </trkpt>
      <trkpt lat="46.87282" lon="8.51752">
        <ele>1640</ele>
        <time>2021-08-11T10:02:34.451Z</time>
      </trkpt>
      <trkpt lat="46.87282" lon="8.51751">
        <ele>1640</ele>
        <time>2021-08-11T10:02:35.451Z</time>
      </trkpt>
      <trkpt lat="46.87282" lon="8.5175">
        <ele>1640</ele>
        <time>2021-08-11T10:02:36.452Z</time>
      </trkpt>
      <trkpt lat="46.87282" lon="8.51749">
        <ele>1640</ele>
        <time>2021-08-11T10:02:37.451Z</time>
      </trkpt>
      <trkpt lat="46.87282" lon="8.51748">
        <ele>1640</ele>
        <time>2021-08-11T10:02:38.451Z</time>
      </trkpt>
      <trkpt lat="46.87282" lon="8.51747">
        <ele>1640</ele>
        <time>2021-08-11T10:02:39.451Z</time>
      </trkpt>
      <trkpt lat="46.87282" lon="8.51746">
        <ele>1640</ele>
        <time>2021-08-11T10:02:40.452Z</time>
      </trkpt>
      <trkpt lat="46.87281" lon="8.51744">
        <ele>1640</ele>
        <time>2021-08-11T10:02:41.451Z</time>
      </trkpt>
      <trkpt lat="46.87281" lon="8.51743">
        <ele>1640</ele>
        <time>2021-08-11T10:02:42.451Z</time>
      </trkpt>
      <trkpt lat="46.8728" lon="8.51741">
        <ele>1641</ele>
        <time>2021-08-11T10:02:43.451Z</time>
      </trkpt>
      <trkpt lat="46.8728" lon="8.5174">
        <ele>1642</ele>
        <time>2021-08-11T10:02:44.451Z</time>
      </trkpt>
      <trkpt lat="46.87279" lon="8.51738">
        <ele>1642</ele>
        <time>2021-08-11T10:02:45.451Z</time>
      </trkpt>
      <trkpt lat="46.87278" lon="8.51737">
        <ele>1643</ele>
        <time>2021-08-11T10:02:46.451Z</time>
      </trkpt>
      <trkpt lat="46.87278" lon="8.51737">
        <ele>1643</ele>
        <time>2021-08-11T10:02:47.451Z</time>
      </trkpt>
      <trkpt lat="46.87277" lon="8.51735">
        <ele>1644</ele>
        <time>2021-08-11T10:02:48.451Z</time>
      </trkpt>
      <trkpt lat="46.87276" lon="8.51734">
        <ele>1644</ele>
        <time>2021-08-11T10:02:49.452Z</time>
      </trkpt>
      <trkpt lat="46.87276" lon="8.51733">
        <ele>1644</ele>
        <time>2021-08-11T10:02:50.452Z</time>
      </trkpt>
      <trkpt lat="46.87275" lon="8.51732">
        <ele>1644</ele>
        <time>2021-08-11T10:02:51.452Z</time>
      </trkpt>
      <trkpt lat="46.87275" lon="8.51731">
        <ele>1644</ele>
        <time>2021-08-11T10:02:52.451Z</time>
      </trkpt>
      <trkpt lat="46.87274" lon="8.5173">
        <ele>1644</ele>
        <time>2021-08-11T10:02:53.451Z</time>
      </trkpt>
      <trkpt lat="46.87274" lon="8.51729">
        <ele>1644</ele>
        <time>2021-08-11T10:02:54.451Z</time>
      </trkpt>
      <trkpt lat="46.87273" lon="8.51729">
        <ele>1643</ele>
        <time>2021-08-11T10:02:55.451Z</time>
      </trkpt>
      <trkpt lat="46.87272" lon="8.51728">
        <ele>1643</ele>
        <time>2021-08-11T10:02:56.451Z</time>
      </trkpt>
      <trkpt lat="46.87272" lon="8.51727">
        <ele>1643</ele>
        <time>2021-08-11T10:02:57.451Z</time>
      </trkpt>
      <trkpt lat="46.87271" lon="8.51727">
        <ele>1643</ele>
        <time>2021-08-11T10:02:58.452Z</time>
      </trkpt>
      <trkpt lat="46.87271" lon="8.51727">
        <ele>1643</ele>
        <time>2021-08-11T10:02:59.452Z</time>
      </trkpt>
      <trkpt lat="46.87271" lon="8.51727">
        <ele>1643</ele>
        <time>2021-08-11T10:03:00.452Z</time>
      </trkpt>
      <trkpt lat="46.8727" lon="8.51727">
        <ele>1643</ele>
        <time>2021-08-11T10:03:01.451Z</time>
      </trkpt>
      <trkpt lat="46.8727" lon="8.51728">
        <ele>1643</ele>
        <time>2021-08-11T10:03:02.452Z</time>
      </trkpt>
      <trkpt lat="46.87269" lon="8.51728">
        <ele>1643</ele>
        <time>2021-08-11T10:03:03.452Z</time>
      </trkpt>
      <trkpt lat="46.87269" lon="8.51729">
        <ele>1643</ele>
        <time>2021-08-11T10:03:04.451Z</time>
      </trkpt>
      <trkpt lat="46.87269" lon="8.5173">
        <ele>1643</ele>
        <time>2021-08-11T10:03:05.451Z</time>
      </trkpt>
      <trkpt lat="46.87271" lon="8.51727">
        <ele>1644</ele>
        <time>2021-08-11T10:03:06.452Z</time>
      </trkpt>
      <trkpt lat="46.87271" lon="8.51726">
        <ele>1644</ele>
        <time>2021-08-11T10:03:07.451Z</time>
      </trkpt>
      <trkpt lat="46.87271" lon="8.51725">
        <ele>1644</ele>
        <time>2021-08-11T10:03:08.452Z</time>
      </trkpt>
      <trkpt lat="46.8727" lon="8.51724">
        <ele>1644</ele>
        <time>2021-08-11T10:03:09.452Z</time>
      </trkpt>
      <trkpt lat="46.8727" lon="8.51723">
        <ele>1643</ele>
        <time>2021-08-11T10:03:10.451Z</time>
      </trkpt>
      <trkpt lat="46.8727" lon="8.51722">
        <ele>1643</ele>
        <time>2021-08-11T10:03:11.452Z</time>
      </trkpt>
      <trkpt lat="46.8727" lon="8.51722">
        <ele>1642</ele>
        <time>2021-08-11T10:03:12.452Z</time>
      </trkpt>
      <trkpt lat="46.8727" lon="8.51721">
        <ele>1642</ele>
        <time>2021-08-11T10:03:13.451Z</time>
      </trkpt>
      <trkpt lat="46.8727" lon="8.5172">
        <ele>1641</ele>
        <time>2021-08-11T10:03:14.452Z</time>
      </trkpt>
      <trkpt lat="46.8727" lon="8.51719">
        <ele>1641</ele>
        <time>2021-08-11T10:03:15.451Z</time>
      </trkpt>
      <trkpt lat="46.8727" lon="8.51718">
        <ele>1640</ele>
        <time>2021-08-11T10:03:16.452Z</time>
      </trkpt>
      <trkpt lat="46.87269" lon="8.51717">
        <ele>1640</ele>
        <time>2021-08-11T10:03:17.452Z</time>
      </trkpt>
      <trkpt lat="46.87269" lon="8.51716">
        <ele>1639</ele>
        <time>2021-08-11T10:03:18.452Z</time>
      </trkpt>
      <trkpt lat="46.87269" lon="8.51715">
        <ele>1639</ele>
        <time>2021-08-11T10:03:19.452Z</time>
      </trkpt>
      <trkpt lat="46.87269" lon="8.51714">
        <ele>1639</ele>
        <time>2021-08-11T10:03:20.452Z</time>
      </trkpt>
      <trkpt lat="46.87268" lon="8.51714">
        <ele>1639</ele>
        <time>2021-08-11T10:03:21.452Z</time>
      </trkpt>
      <trkpt lat="46.87267" lon="8.51711">
        <ele>1642</ele>
        <time>2021-08-11T10:03:22.453Z</time>
      </trkpt>
      <trkpt lat="46.87267" lon="8.51711">
        <ele>1643</ele>
        <time>2021-08-11T10:03:23.453Z</time>
      </trkpt>
      <trkpt lat="46.87267" lon="8.5171">
        <ele>1643</ele>
        <time>2021-08-11T10:03:24.452Z</time>
      </trkpt>
      <trkpt lat="46.87266" lon="8.51709">
        <ele>1646</ele>
        <time>2021-08-11T10:03:25.454Z</time>
      </trkpt>
      <trkpt lat="46.87266" lon="8.51708">
        <ele>1646</ele>
        <time>2021-08-11T10:03:26.454Z</time>
      </trkpt>
      <trkpt lat="46.87265" lon="8.51707">
        <ele>1646</ele>
        <time>2021-08-11T10:03:27.453Z</time>
      </trkpt>
      <trkpt lat="46.87264" lon="8.51706">
        <ele>1645</ele>
        <time>2021-08-11T10:03:28.454Z</time>
      </trkpt>
      <trkpt lat="46.87264" lon="8.51705">
        <ele>1645</ele>
        <time>2021-08-11T10:03:29.454Z</time>
      </trkpt>
      <trkpt lat="46.87263" lon="8.51705">
        <ele>1645</ele>
        <time>2021-08-11T10:03:30.454Z</time>
      </trkpt>
      <trkpt lat="46.87263" lon="8.51703">
        <ele>1645</ele>
        <time>2021-08-11T10:03:31.453Z</time>
      </trkpt>
      <trkpt lat="46.87262" lon="8.51702">
        <ele>1645</ele>
        <time>2021-08-11T10:03:32.453Z</time>
      </trkpt>
      <trkpt lat="46.87261" lon="8.51701">
        <ele>1645</ele>
        <time>2021-08-11T10:03:33.454Z</time>
      </trkpt>
      <trkpt lat="46.8726" lon="8.517">
        <ele>1644</ele>
        <time>2021-08-11T10:03:34.454Z</time>
      </trkpt>
      <trkpt lat="46.8726" lon="8.51699">
        <ele>1644</ele>
        <time>2021-08-11T10:03:35.454Z</time>
      </trkpt>
      <trkpt lat="46.87259" lon="8.51697">
        <ele>1643</ele>
        <time>2021-08-11T10:03:36.453Z</time>
      </trkpt>
      <trkpt lat="46.87258" lon="8.51696">
        <ele>1643</ele>
        <time>2021-08-11T10:03:37.454Z</time>
      </trkpt>
      <trkpt lat="46.87258" lon="8.51695">
        <ele>1643</ele>
        <time>2021-08-11T10:03:38.453Z</time>
      </trkpt>
      <trkpt lat="46.87257" lon="8.51695">
        <ele>1643</ele>
        <time>2021-08-11T10:03:39.454Z</time>
      </trkpt>
      <trkpt lat="46.87256" lon="8.51694">
        <ele>1642</ele>
        <time>2021-08-11T10:03:40.454Z</time>
      </trkpt>
      <trkpt lat="46.87255" lon="8.51693">
        <ele>1642</ele>
        <time>2021-08-11T10:03:41.454Z</time>
      </trkpt>
      <trkpt lat="46.87255" lon="8.51692">
        <ele>1641</ele>
        <time>2021-08-11T10:03:42.454Z</time>
      </trkpt>
      <trkpt lat="46.87254" lon="8.51692">
        <ele>1640</ele>
        <time>2021-08-11T10:03:43.453Z</time>
      </trkpt>
      <trkpt lat="46.87253" lon="8.51691">
        <ele>1639</ele>
        <time>2021-08-11T10:03:44.454Z</time>
      </trkpt>
      <trkpt lat="46.87252" lon="8.5169">
        <ele>1638</ele>
        <time>2021-08-11T10:03:45.454Z</time>
      </trkpt>
      <trkpt lat="46.87252" lon="8.51689">
        <ele>1638</ele>
        <time>2021-08-11T10:03:46.454Z</time>
      </trkpt>
      <trkpt lat="46.87251" lon="8.51689">
        <ele>1637</ele>
        <time>2021-08-11T10:03:47.454Z</time>
      </trkpt>
      <trkpt lat="46.87251" lon="8.5169">
        <ele>1637</ele>
        <time>2021-08-11T10:03:48.453Z</time>
      </trkpt>
      <trkpt lat="46.8725" lon="8.5169">
        <ele>1637</ele>
        <time>2021-08-11T10:03:49.454Z</time>
      </trkpt>
      <trkpt lat="46.8725" lon="8.51689">
        <ele>1637</ele>
        <time>2021-08-11T10:03:50.454Z</time>
      </trkpt>
      <trkpt lat="46.87249" lon="8.51688">
        <ele>1637</ele>
        <time>2021-08-11T10:03:51.453Z</time>
      </trkpt>
      <trkpt lat="46.87248" lon="8.51686">
        <ele>1637</ele>
        <time>2021-08-11T10:03:52.454Z</time>
      </trkpt>
      <trkpt lat="46.87247" lon="8.51686">
        <ele>1638</ele>
        <time>2021-08-11T10:03:53.454Z</time>
      </trkpt>
      <trkpt lat="46.87247" lon="8.51685">
        <ele>1638</ele>
        <time>2021-08-11T10:03:54.453Z</time>
      </trkpt>
      <trkpt lat="46.87246" lon="8.51683">
        <ele>1638</ele>
        <time>2021-08-11T10:03:55.454Z</time>
      </trkpt>
      <trkpt lat="46.87246" lon="8.51683">
        <ele>1639</ele>
        <time>2021-08-11T10:03:56.454Z</time>
      </trkpt>
      <trkpt lat="46.87245" lon="8.51683">
        <ele>1639</ele>
        <time>2021-08-11T10:03:57.454Z</time>
      </trkpt>
      <trkpt lat="46.87244" lon="8.51683">
        <ele>1639</ele>
        <time>2021-08-11T10:03:58.454Z</time>
      </trkpt>
      <trkpt lat="46.87243" lon="8.51682">
        <ele>1640</ele>
        <time>2021-08-11T10:03:59.454Z</time>
      </trkpt>
      <trkpt lat="46.87243" lon="8.51681">
        <ele>1640</ele>
        <time>2021-08-11T10:04:00.454Z</time>
      </trkpt>
      <trkpt lat="46.87241" lon="8.5168">
        <ele>1640</ele>
        <time>2021-08-11T10:04:01.454Z</time>
      </trkpt>
      <trkpt lat="46.87241" lon="8.5168">
        <ele>1640</ele>
        <time>2021-08-11T10:04:02.454Z</time>
      </trkpt>
      <trkpt lat="46.87239" lon="8.5168">
        <ele>1641</ele>
        <time>2021-08-11T10:04:03.454Z</time>
      </trkpt>
      <trkpt lat="46.87238" lon="8.51679">
        <ele>1641</ele>
        <time>2021-08-11T10:04:04.454Z</time>
      </trkpt>
      <trkpt lat="46.87237" lon="8.5168">
        <ele>1641</ele>
        <time>2021-08-11T10:04:05.454Z</time>
      </trkpt>
      <trkpt lat="46.87236" lon="8.5168">
        <ele>1640</ele>
        <time>2021-08-11T10:04:06.454Z</time>
      </trkpt>
      <trkpt lat="46.87234" lon="8.51679">
        <ele>1640</ele>
        <time>2021-08-11T10:04:07.454Z</time>
      </trkpt>
      <trkpt lat="46.87233" lon="8.51679">
        <ele>1640</ele>
        <time>2021-08-11T10:04:08.453Z</time>
      </trkpt>
      <trkpt lat="46.87233" lon="8.51678">
        <ele>1640</ele>
        <time>2021-08-11T10:04:09.454Z</time>
      </trkpt>
      <trkpt lat="46.87232" lon="8.51678">
        <ele>1640</ele>
        <time>2021-08-11T10:04:10.454Z</time>
      </trkpt>
      <trkpt lat="46.87232" lon="8.51677">
        <ele>1640</ele>
        <time>2021-08-11T10:04:11.454Z</time>
      </trkpt>
      <trkpt lat="46.87232" lon="8.51677">
        <ele>1640</ele>
        <time>2021-08-11T10:04:12.453Z</time>
      </trkpt>
      <trkpt lat="46.87232" lon="8.51677">
        <ele>1640</ele>
        <time>2021-08-11T10:04:13.454Z</time>
      </trkpt>
      <trkpt lat="46.87231" lon="8.51678">
        <ele>1643</ele>
        <time>2021-08-11T10:04:14.454Z</time>
      </trkpt>
      <trkpt lat="46.87231" lon="8.51677">
        <ele>1643</ele>
        <time>2021-08-11T10:04:15.454Z</time>
      </trkpt>
      <trkpt lat="46.87231" lon="8.51677">
        <ele>1642</ele>
        <time>2021-08-11T10:04:16.453Z</time>
      </trkpt>
      <trkpt lat="46.8723" lon="8.51676">
        <ele>1642</ele>
        <time>2021-08-11T10:04:17.454Z</time>
      </trkpt>
      <trkpt lat="46.87229" lon="8.51676">
        <ele>1642</ele>
        <time>2021-08-11T10:04:18.454Z</time>
      </trkpt>
      <trkpt lat="46.87228" lon="8.51675">
        <ele>1641</ele>
        <time>2021-08-11T10:04:19.453Z</time>
      </trkpt>
      <trkpt lat="46.87227" lon="8.51676">
        <ele>1640</ele>
        <time>2021-08-11T10:04:20.453Z</time>
      </trkpt>
      <trkpt lat="46.87226" lon="8.51676">
        <ele>1640</ele>
        <time>2021-08-11T10:04:21.453Z</time>
      </trkpt>
      <trkpt lat="46.87225" lon="8.51675">
        <ele>1639</ele>
        <time>2021-08-11T10:04:22.453Z</time>
      </trkpt>
      <trkpt lat="46.87225" lon="8.51674">
        <ele>1639</ele>
        <time>2021-08-11T10:04:23.454Z</time>
      </trkpt>
      <trkpt lat="46.87224" lon="8.51673">
        <ele>1638</ele>
        <time>2021-08-11T10:04:24.454Z</time>
      </trkpt>
      <trkpt lat="46.87224" lon="8.51672">
        <ele>1638</ele>
        <time>2021-08-11T10:04:25.454Z</time>
      </trkpt>
      <trkpt lat="46.87223" lon="8.51671">
        <ele>1637</ele>
        <time>2021-08-11T10:04:26.453Z</time>
      </trkpt>
      <trkpt lat="46.87222" lon="8.5167">
        <ele>1637</ele>
        <time>2021-08-11T10:04:27.454Z</time>
      </trkpt>
      <trkpt lat="46.87221" lon="8.5167">
        <ele>1636</ele>
        <time>2021-08-11T10:04:28.454Z</time>
      </trkpt>
      <trkpt lat="46.87221" lon="8.5167">
        <ele>1635</ele>
        <time>2021-08-11T10:04:29.454Z</time>
      </trkpt>
      <trkpt lat="46.87221" lon="8.51669">
        <ele>1634</ele>
        <time>2021-08-11T10:04:30.453Z</time>
      </trkpt>
      <trkpt lat="46.8722" lon="8.51668">
        <ele>1633</ele>
        <time>2021-08-11T10:04:31.453Z</time>
      </trkpt>
      <trkpt lat="46.8722" lon="8.51667">
        <ele>1632</ele>
        <time>2021-08-11T10:04:32.453Z</time>
      </trkpt>
      <trkpt lat="46.8722" lon="8.51667">
        <ele>1632</ele>
        <time>2021-08-11T10:04:33.454Z</time>
      </trkpt>
      <trkpt lat="46.87219" lon="8.51665">
        <ele>1631</ele>
        <time>2021-08-11T10:04:34.454Z</time>
      </trkpt>
      <trkpt lat="46.87219" lon="8.51664">
        <ele>1631</ele>
        <time>2021-08-11T10:04:35.454Z</time>
      </trkpt>
      <trkpt lat="46.87218" lon="8.51663">
        <ele>1630</ele>
        <time>2021-08-11T10:04:36.454Z</time>
      </trkpt>
      <trkpt lat="46.87218" lon="8.51661">
        <ele>1630</ele>
        <time>2021-08-11T10:04:37.453Z</time>
      </trkpt>
      <trkpt lat="46.87218" lon="8.5166">
        <ele>1630</ele>
        <time>2021-08-11T10:04:38.454Z</time>
      </trkpt>
      <trkpt lat="46.87217" lon="8.51659">
        <ele>1630</ele>
        <time>2021-08-11T10:04:39.454Z</time>
      </trkpt>
      <trkpt lat="46.87217" lon="8.51658">
        <ele>1630</ele>
        <time>2021-08-11T10:04:40.454Z</time>
      </trkpt>
      <trkpt lat="46.87216" lon="8.51657">
        <ele>1630</ele>
        <time>2021-08-11T10:04:41.454Z</time>
      </trkpt>
      <trkpt lat="46.87216" lon="8.51656">
        <ele>1630</ele>
        <time>2021-08-11T10:04:42.453Z</time>
      </trkpt>
      <trkpt lat="46.87215" lon="8.51655">
        <ele>1629</ele>
        <time>2021-08-11T10:04:43.453Z</time>
      </trkpt>
      <trkpt lat="46.87215" lon="8.51654">
        <ele>1629</ele>
        <time>2021-08-11T10:04:44.454Z</time>
      </trkpt>
      <trkpt lat="46.87214" lon="8.51653">
        <ele>1630</ele>
        <time>2021-08-11T10:04:45.454Z</time>
      </trkpt>
      <trkpt lat="46.87212" lon="8.51652">
        <ele>1629</ele>
        <time>2021-08-11T10:04:46.454Z</time>
      </trkpt>
      <trkpt lat="46.87211" lon="8.51651">
        <ele>1630</ele>
        <time>2021-08-11T10:04:47.454Z</time>
      </trkpt>
      <trkpt lat="46.87211" lon="8.5165">
        <ele>1630</ele>
        <time>2021-08-11T10:04:48.453Z</time>
      </trkpt>
      <trkpt lat="46.8721" lon="8.51648">
        <ele>1630</ele>
        <time>2021-08-11T10:04:49.454Z</time>
      </trkpt>
      <trkpt lat="46.8721" lon="8.51648">
        <ele>1631</ele>
        <time>2021-08-11T10:04:50.454Z</time>
      </trkpt>
      <trkpt lat="46.87209" lon="8.51647">
        <ele>1631</ele>
        <time>2021-08-11T10:04:51.454Z</time>
      </trkpt>
      <trkpt lat="46.87208" lon="8.51646">
        <ele>1631</ele>
        <time>2021-08-11T10:04:52.454Z</time>
      </trkpt>
      <trkpt lat="46.87208" lon="8.51644">
        <ele>1631</ele>
        <time>2021-08-11T10:04:53.453Z</time>
      </trkpt>
      <trkpt lat="46.87207" lon="8.51643">
        <ele>1631</ele>
        <time>2021-08-11T10:04:54.454Z</time>
      </trkpt>
      <trkpt lat="46.87207" lon="8.51642">
        <ele>1630</ele>
        <time>2021-08-11T10:04:55.454Z</time>
      </trkpt>
      <trkpt lat="46.87206" lon="8.51642">
        <ele>1630</ele>
        <time>2021-08-11T10:04:56.454Z</time>
      </trkpt>
      <trkpt lat="46.87206" lon="8.5164">
        <ele>1630</ele>
        <time>2021-08-11T10:04:57.454Z</time>
      </trkpt>
      <trkpt lat="46.87205" lon="8.51639">
        <ele>1630</ele>
        <time>2021-08-11T10:04:58.453Z</time>
      </trkpt>
      <trkpt lat="46.87205" lon="8.51638">
        <ele>1630</ele>
        <time>2021-08-11T10:04:59.453Z</time>
      </trkpt>
      <trkpt lat="46.87204" lon="8.51637">
        <ele>1629</ele>
        <time>2021-08-11T10:05:00.453Z</time>
      </trkpt>
      <trkpt lat="46.87203" lon="8.51636">
        <ele>1629</ele>
        <time>2021-08-11T10:05:01.453Z</time>
      </trkpt>
      <trkpt lat="46.87203" lon="8.51635">
        <ele>1629</ele>
        <time>2021-08-11T10:05:02.454Z</time>
      </trkpt>
      <trkpt lat="46.87203" lon="8.51634">
        <ele>1629</ele>
        <time>2021-08-11T10:05:03.454Z</time>
      </trkpt>
      <trkpt lat="46.87202" lon="8.51633">
        <ele>1629</ele>
        <time>2021-08-11T10:05:04.454Z</time>
      </trkpt>
      <trkpt lat="46.87202" lon="8.51632">
        <ele>1628</ele>
        <time>2021-08-11T10:05:05.454Z</time>
      </trkpt>
      <trkpt lat="46.87201" lon="8.51632">
        <ele>1628</ele>
        <time>2021-08-11T10:05:06.453Z</time>
      </trkpt>
      <trkpt lat="46.872" lon="8.51631">
        <ele>1628</ele>
        <time>2021-08-11T10:05:07.454Z</time>
      </trkpt>
      <trkpt lat="46.87199" lon="8.5163">
        <ele>1628</ele>
        <time>2021-08-11T10:05:08.454Z</time>
      </trkpt>
      <trkpt lat="46.87199" lon="8.51629">
        <ele>1628</ele>
        <time>2021-08-11T10:05:09.454Z</time>
      </trkpt>
      <trkpt lat="46.87198" lon="8.51628">
        <ele>1628</ele>
        <time>2021-08-11T10:05:10.454Z</time>
      </trkpt>
      <trkpt lat="46.87197" lon="8.51626">
        <ele>1628</ele>
        <time>2021-08-11T10:05:11.453Z</time>
      </trkpt>
      <trkpt lat="46.87197" lon="8.51624">
        <ele>1628</ele>
        <time>2021-08-11T10:05:12.454Z</time>
      </trkpt>
      <trkpt lat="46.87197" lon="8.51622">
        <ele>1628</ele>
        <time>2021-08-11T10:05:13.454Z</time>
      </trkpt>
      <trkpt lat="46.87196" lon="8.51621">
        <ele>1628</ele>
        <time>2021-08-11T10:05:14.454Z</time>
      </trkpt>
      <trkpt lat="46.87195" lon="8.51621">
        <ele>1628</ele>
        <time>2021-08-11T10:05:15.454Z</time>
      </trkpt>
      <trkpt lat="46.87195" lon="8.51621">
        <ele>1628</ele>
        <time>2021-08-11T10:05:16.454Z</time>
      </trkpt>
      <trkpt lat="46.87194" lon="8.51619">
        <ele>1628</ele>
        <time>2021-08-11T10:05:17.454Z</time>
      </trkpt>
      <trkpt lat="46.87193" lon="8.51618">
        <ele>1628</ele>
        <time>2021-08-11T10:05:18.454Z</time>
      </trkpt>
      <trkpt lat="46.87191" lon="8.51617">
        <ele>1627</ele>
        <time>2021-08-11T10:05:19.453Z</time>
      </trkpt>
      <trkpt lat="46.8719" lon="8.51616">
        <ele>1627</ele>
        <time>2021-08-11T10:05:20.454Z</time>
      </trkpt>
      <trkpt lat="46.87189" lon="8.51615">
        <ele>1626</ele>
        <time>2021-08-11T10:05:21.454Z</time>
      </trkpt>
      <trkpt lat="46.87189" lon="8.51615">
        <ele>1626</ele>
        <time>2021-08-11T10:05:22.453Z</time>
      </trkpt>
      <trkpt lat="46.87188" lon="8.51615">
        <ele>1626</ele>
        <time>2021-08-11T10:05:23.454Z</time>
      </trkpt>
      <trkpt lat="46.87187" lon="8.51616">
        <ele>1625</ele>
        <time>2021-08-11T10:05:24.454Z</time>
      </trkpt>
      <trkpt lat="46.87186" lon="8.51615">
        <ele>1625</ele>
        <time>2021-08-11T10:05:25.454Z</time>
      </trkpt>
      <trkpt lat="46.87185" lon="8.51615">
        <ele>1625</ele>
        <time>2021-08-11T10:05:26.454Z</time>
      </trkpt>
      <trkpt lat="46.87184" lon="8.51614">
        <ele>1625</ele>
        <time>2021-08-11T10:05:27.453Z</time>
      </trkpt>
      <trkpt lat="46.87183" lon="8.51614">
        <ele>1625</ele>
        <time>2021-08-11T10:05:28.454Z</time>
      </trkpt>
      <trkpt lat="46.87182" lon="8.51613">
        <ele>1625</ele>
        <time>2021-08-11T10:05:29.454Z</time>
      </trkpt>
      <trkpt lat="46.87181" lon="8.51612">
        <ele>1625</ele>
        <time>2021-08-11T10:05:30.454Z</time>
      </trkpt>
      <trkpt lat="46.8718" lon="8.51611">
        <ele>1626</ele>
        <time>2021-08-11T10:05:31.454Z</time>
      </trkpt>
      <trkpt lat="46.87179" lon="8.5161">
        <ele>1626</ele>
        <time>2021-08-11T10:05:32.453Z</time>
      </trkpt>
      <trkpt lat="46.87178" lon="8.51609">
        <ele>1626</ele>
        <time>2021-08-11T10:05:33.454Z</time>
      </trkpt>
      <trkpt lat="46.87177" lon="8.51608">
        <ele>1626</ele>
        <time>2021-08-11T10:05:34.454Z</time>
      </trkpt>
      <trkpt lat="46.87176" lon="8.51607">
        <ele>1626</ele>
        <time>2021-08-11T10:05:35.454Z</time>
      </trkpt>
      <trkpt lat="46.87175" lon="8.51605">
        <ele>1626</ele>
        <time>2021-08-11T10:05:36.454Z</time>
      </trkpt>
      <trkpt lat="46.87174" lon="8.51604">
        <ele>1626</ele>
        <time>2021-08-11T10:05:37.453Z</time>
      </trkpt>
      <trkpt lat="46.87173" lon="8.51603">
        <ele>1625</ele>
        <time>2021-08-11T10:05:38.454Z</time>
      </trkpt>
      <trkpt lat="46.87172" lon="8.51601">
        <ele>1625</ele>
        <time>2021-08-11T10:05:39.454Z</time>
      </trkpt>
      <trkpt lat="46.87171" lon="8.516">
        <ele>1625</ele>
        <time>2021-08-11T10:05:40.454Z</time>
      </trkpt>
      <trkpt lat="46.8717" lon="8.51599">
        <ele>1625</ele>
        <time>2021-08-11T10:05:41.453Z</time>
      </trkpt>
      <trkpt lat="46.87169" lon="8.51597">
        <ele>1625</ele>
        <time>2021-08-11T10:05:42.454Z</time>
      </trkpt>
      <trkpt lat="46.87168" lon="8.51596">
        <ele>1625</ele>
        <time>2021-08-11T10:05:43.454Z</time>
      </trkpt>
      <trkpt lat="46.87167" lon="8.51595">
        <ele>1625</ele>
        <time>2021-08-11T10:05:44.454Z</time>
      </trkpt>
      <trkpt lat="46.87166" lon="8.51593">
        <ele>1624</ele>
        <time>2021-08-11T10:05:45.454Z</time>
      </trkpt>
      <trkpt lat="46.87165" lon="8.51592">
        <ele>1624</ele>
        <time>2021-08-11T10:05:46.453Z</time>
      </trkpt>
      <trkpt lat="46.87165" lon="8.51591">
        <ele>1624</ele>
        <time>2021-08-11T10:05:47.454Z</time>
      </trkpt>
      <trkpt lat="46.87164" lon="8.51591">
        <ele>1624</ele>
        <time>2021-08-11T10:05:48.454Z</time>
      </trkpt>
      <trkpt lat="46.87163" lon="8.5159">
        <ele>1625</ele>
        <time>2021-08-11T10:05:49.454Z</time>
      </trkpt>
      <trkpt lat="46.87162" lon="8.51589">
        <ele>1625</ele>
        <time>2021-08-11T10:05:50.453Z</time>
      </trkpt>
      <trkpt lat="46.87161" lon="8.51588">
        <ele>1625</ele>
        <time>2021-08-11T10:05:51.454Z</time>
      </trkpt>
      <trkpt lat="46.87161" lon="8.51587">
        <ele>1625</ele>
        <time>2021-08-11T10:05:52.454Z</time>
      </trkpt>
      <trkpt lat="46.8716" lon="8.51586">
        <ele>1625</ele>
        <time>2021-08-11T10:05:53.454Z</time>
      </trkpt>
      <trkpt lat="46.87159" lon="8.51585">
        <ele>1625</ele>
        <time>2021-08-11T10:05:54.454Z</time>
      </trkpt>
      <trkpt lat="46.87158" lon="8.51584">
        <ele>1624</ele>
        <time>2021-08-11T10:05:55.453Z</time>
      </trkpt>
      <trkpt lat="46.87158" lon="8.51584">
        <ele>1623</ele>
        <time>2021-08-11T10:05:56.454Z</time>
      </trkpt>
      <trkpt lat="46.87157" lon="8.51583">
        <ele>1622</ele>
        <time>2021-08-11T10:05:57.454Z</time>
      </trkpt>
      <trkpt lat="46.87156" lon="8.51583">
        <ele>1621</ele>
        <time>2021-08-11T10:05:58.454Z</time>
      </trkpt>
      <trkpt lat="46.87155" lon="8.51582">
        <ele>1620</ele>
        <time>2021-08-11T10:05:59.453Z</time>
      </trkpt>
      <trkpt lat="46.87154" lon="8.51581">
        <ele>1619</ele>
        <time>2021-08-11T10:06:00.454Z</time>
      </trkpt>
      <trkpt lat="46.87154" lon="8.5158">
        <ele>1618</ele>
        <time>2021-08-11T10:06:01.454Z</time>
      </trkpt>
      <trkpt lat="46.87153" lon="8.51578">
        <ele>1617</ele>
        <time>2021-08-11T10:06:02.454Z</time>
      </trkpt>
      <trkpt lat="46.87152" lon="8.51577">
        <ele>1616</ele>
        <time>2021-08-11T10:06:03.454Z</time>
      </trkpt>
      <trkpt lat="46.87151" lon="8.51576">
        <ele>1615</ele>
        <time>2021-08-11T10:06:04.453Z</time>
      </trkpt>
      <trkpt lat="46.87151" lon="8.51575">
        <ele>1615</ele>
        <time>2021-08-11T10:06:05.454Z</time>
      </trkpt>
      <trkpt lat="46.8715" lon="8.51574">
        <ele>1614</ele>
        <time>2021-08-11T10:06:06.454Z</time>
      </trkpt>
      <trkpt lat="46.87149" lon="8.51572">
        <ele>1614</ele>
        <time>2021-08-11T10:06:07.454Z</time>
      </trkpt>
      <trkpt lat="46.87148" lon="8.5157">
        <ele>1613</ele>
        <time>2021-08-11T10:06:08.453Z</time>
      </trkpt>
      <trkpt lat="46.87147" lon="8.51569">
        <ele>1612</ele>
        <time>2021-08-11T10:06:09.454Z</time>
      </trkpt>
      <trkpt lat="46.87146" lon="8.51568">
        <ele>1612</ele>
        <time>2021-08-11T10:06:10.454Z</time>
      </trkpt>
      <trkpt lat="46.87145" lon="8.51567">
        <ele>1612</ele>
        <time>2021-08-11T10:06:11.454Z</time>
      </trkpt>
      <trkpt lat="46.87144" lon="8.51565">
        <ele>1612</ele>
        <time>2021-08-11T10:06:12.454Z</time>
      </trkpt>
      <trkpt lat="46.87143" lon="8.51564">
        <ele>1612</ele>
        <time>2021-08-11T10:06:13.453Z</time>
      </trkpt>
      <trkpt lat="46.87142" lon="8.51563">
        <ele>1612</ele>
        <time>2021-08-11T10:06:14.453Z</time>
      </trkpt>
      <trkpt lat="46.87141" lon="8.51562">
        <ele>1612</ele>
        <time>2021-08-11T10:06:15.454Z</time>
      </trkpt>
      <trkpt lat="46.8714" lon="8.51561">
        <ele>1612</ele>
        <time>2021-08-11T10:06:16.454Z</time>
      </trkpt>
      <trkpt lat="46.87139" lon="8.51561">
        <ele>1612</ele>
        <time>2021-08-11T10:06:17.454Z</time>
      </trkpt>
      <trkpt lat="46.87138" lon="8.5156">
        <ele>1611</ele>
        <time>2021-08-11T10:06:18.453Z</time>
      </trkpt>
      <trkpt lat="46.87137" lon="8.51559">
        <ele>1611</ele>
        <time>2021-08-11T10:06:19.453Z</time>
      </trkpt>
      <trkpt lat="46.87136" lon="8.51558">
        <ele>1611</ele>
        <time>2021-08-11T10:06:20.453Z</time>
      </trkpt>
      <trkpt lat="46.87134" lon="8.51557">
        <ele>1611</ele>
        <time>2021-08-11T10:06:21.453Z</time>
      </trkpt>
      <trkpt lat="46.87133" lon="8.51556">
        <ele>1611</ele>
        <time>2021-08-11T10:06:22.453Z</time>
      </trkpt>
      <trkpt lat="46.87132" lon="8.51554">
        <ele>1611</ele>
        <time>2021-08-11T10:06:23.453Z</time>
      </trkpt>
      <trkpt lat="46.87131" lon="8.51552">
        <ele>1611</ele>
        <time>2021-08-11T10:06:24.453Z</time>
      </trkpt>
      <trkpt lat="46.8713" lon="8.51552">
        <ele>1610</ele>
        <time>2021-08-11T10:06:25.454Z</time>
      </trkpt>
      <trkpt lat="46.87128" lon="8.51551">
        <ele>1609</ele>
        <time>2021-08-11T10:06:26.454Z</time>
      </trkpt>
      <trkpt lat="46.87127" lon="8.51549">
        <ele>1609</ele>
        <time>2021-08-11T10:06:27.454Z</time>
      </trkpt>
      <trkpt lat="46.87126" lon="8.51549">
        <ele>1608</ele>
        <time>2021-08-11T10:06:28.453Z</time>
      </trkpt>
      <trkpt lat="46.87126" lon="8.51548">
        <ele>1607</ele>
        <time>2021-08-11T10:06:29.454Z</time>
      </trkpt>
      <trkpt lat="46.87125" lon="8.51548">
        <ele>1607</ele>
        <time>2021-08-11T10:06:30.454Z</time>
      </trkpt>
      <trkpt lat="46.87125" lon="8.51547">
        <ele>1607</ele>
        <time>2021-08-11T10:06:31.454Z</time>
      </trkpt>
      <trkpt lat="46.87123" lon="8.51545">
        <ele>1606</ele>
        <time>2021-08-11T10:06:32.454Z</time>
      </trkpt>
      <trkpt lat="46.87122" lon="8.51544">
        <ele>1606</ele>
        <time>2021-08-11T10:06:33.453Z</time>
      </trkpt>
      <trkpt lat="46.87122" lon="8.51544">
        <ele>1606</ele>
        <time>2021-08-11T10:06:34.454Z</time>
      </trkpt>
      <trkpt lat="46.8712" lon="8.51543">
        <ele>1606</ele>
        <time>2021-08-11T10:06:35.454Z</time>
      </trkpt>
      <trkpt lat="46.8712" lon="8.51543">
        <ele>1605</ele>
        <time>2021-08-11T10:06:36.454Z</time>
      </trkpt>
      <trkpt lat="46.87118" lon="8.51544">
        <ele>1605</ele>
        <time>2021-08-11T10:06:37.453Z</time>
      </trkpt>
      <trkpt lat="46.87117" lon="8.51544">
        <ele>1606</ele>
        <time>2021-08-11T10:06:38.453Z</time>
      </trkpt>
      <trkpt lat="46.87116" lon="8.51544">
        <ele>1606</ele>
        <time>2021-08-11T10:06:39.454Z</time>
      </trkpt>
      <trkpt lat="46.87115" lon="8.51543">
        <ele>1606</ele>
        <time>2021-08-11T10:06:40.454Z</time>
      </trkpt>
      <trkpt lat="46.87113" lon="8.51543">
        <ele>1606</ele>
        <time>2021-08-11T10:06:41.454Z</time>
      </trkpt>
      <trkpt lat="46.87113" lon="8.51543">
        <ele>1606</ele>
        <time>2021-08-11T10:06:42.453Z</time>
      </trkpt>
      <trkpt lat="46.87112" lon="8.51543">
        <ele>1606</ele>
        <time>2021-08-11T10:06:43.454Z</time>
      </trkpt>
      <trkpt lat="46.87111" lon="8.51542">
        <ele>1606</ele>
        <time>2021-08-11T10:06:44.454Z</time>
      </trkpt>
      <trkpt lat="46.8711" lon="8.51541">
        <ele>1606</ele>
        <time>2021-08-11T10:06:45.454Z</time>
      </trkpt>
      <trkpt lat="46.8711" lon="8.51541">
        <ele>1606</ele>
        <time>2021-08-11T10:06:46.453Z</time>
      </trkpt>
      <trkpt lat="46.87109" lon="8.5154">
        <ele>1606</ele>
        <time>2021-08-11T10:06:47.453Z</time>
      </trkpt>
      <trkpt lat="46.87108" lon="8.5154">
        <ele>1606</ele>
        <time>2021-08-11T10:06:48.454Z</time>
      </trkpt>
      <trkpt lat="46.87108" lon="8.51539">
        <ele>1606</ele>
        <time>2021-08-11T10:06:49.454Z</time>
      </trkpt>
      <trkpt lat="46.87107" lon="8.51538">
        <ele>1605</ele>
        <time>2021-08-11T10:06:50.454Z</time>
      </trkpt>
      <trkpt lat="46.87105" lon="8.51537">
        <ele>1605</ele>
        <time>2021-08-11T10:06:51.453Z</time>
      </trkpt>
      <trkpt lat="46.87105" lon="8.51536">
        <ele>1605</ele>
        <time>2021-08-11T10:06:52.454Z</time>
      </trkpt>
      <trkpt lat="46.87104" lon="8.51534">
        <ele>1604</ele>
        <time>2021-08-11T10:06:53.454Z</time>
      </trkpt>
      <trkpt lat="46.87104" lon="8.51533">
        <ele>1604</ele>
        <time>2021-08-11T10:06:54.454Z</time>
      </trkpt>
      <trkpt lat="46.87103" lon="8.51532">
        <ele>1603</ele>
        <time>2021-08-11T10:06:55.453Z</time>
      </trkpt>
      <trkpt lat="46.87104" lon="8.51531">
        <ele>1603</ele>
        <time>2021-08-11T10:06:56.453Z</time>
      </trkpt>
      <trkpt lat="46.87104" lon="8.51531">
        <ele>1603</ele>
        <time>2021-08-11T10:06:57.454Z</time>
      </trkpt>
      <trkpt lat="46.87103" lon="8.51531">
        <ele>1602</ele>
        <time>2021-08-11T10:06:58.454Z</time>
      </trkpt>
      <trkpt lat="46.87102" lon="8.5153">
        <ele>1602</ele>
        <time>2021-08-11T10:06:59.454Z</time>
      </trkpt>
      <trkpt lat="46.87102" lon="8.51528">
        <ele>1601</ele>
        <time>2021-08-11T10:07:00.453Z</time>
      </trkpt>
      <trkpt lat="46.87102" lon="8.51526">
        <ele>1601</ele>
        <time>2021-08-11T10:07:01.454Z</time>
      </trkpt>
      <trkpt lat="46.87101" lon="8.51525">
        <ele>1601</ele>
        <time>2021-08-11T10:07:02.454Z</time>
      </trkpt>
      <trkpt lat="46.87101" lon="8.51524">
        <ele>1600</ele>
        <time>2021-08-11T10:07:03.454Z</time>
      </trkpt>
      <trkpt lat="46.871" lon="8.51523">
        <ele>1600</ele>
        <time>2021-08-11T10:07:04.453Z</time>
      </trkpt>
      <trkpt lat="46.871" lon="8.51521">
        <ele>1599</ele>
        <time>2021-08-11T10:07:05.453Z</time>
      </trkpt>
      <trkpt lat="46.871" lon="8.51521">
        <ele>1599</ele>
        <time>2021-08-11T10:07:06.454Z</time>
      </trkpt>
      <trkpt lat="46.871" lon="8.51521">
        <ele>1599</ele>
        <time>2021-08-11T10:07:07.454Z</time>
      </trkpt>
      <trkpt lat="46.87099" lon="8.5152">
        <ele>1599</ele>
        <time>2021-08-11T10:07:08.454Z</time>
      </trkpt>
      <trkpt lat="46.87098" lon="8.51519">
        <ele>1599</ele>
        <time>2021-08-11T10:07:09.453Z</time>
      </trkpt>
      <trkpt lat="46.87098" lon="8.51518">
        <ele>1599</ele>
        <time>2021-08-11T10:07:10.454Z</time>
      </trkpt>
      <trkpt lat="46.87097" lon="8.51518">
        <ele>1598</ele>
        <time>2021-08-11T10:07:11.454Z</time>
      </trkpt>
      <trkpt lat="46.87097" lon="8.51516">
        <ele>1598</ele>
        <time>2021-08-11T10:07:12.454Z</time>
      </trkpt>
      <trkpt lat="46.87096" lon="8.51516">
        <ele>1598</ele>
        <time>2021-08-11T10:07:13.454Z</time>
      </trkpt>
      <trkpt lat="46.87096" lon="8.51515">
        <ele>1598</ele>
        <time>2021-08-11T10:07:14.453Z</time>
      </trkpt>
      <trkpt lat="46.87095" lon="8.51514">
        <ele>1598</ele>
        <time>2021-08-11T10:07:15.454Z</time>
      </trkpt>
      <trkpt lat="46.87095" lon="8.51514">
        <ele>1598</ele>
        <time>2021-08-11T10:07:16.454Z</time>
      </trkpt>
      <trkpt lat="46.87094" lon="8.51513">
        <ele>1598</ele>
        <time>2021-08-11T10:07:17.454Z</time>
      </trkpt>
      <trkpt lat="46.87093" lon="8.51511">
        <ele>1598</ele>
        <time>2021-08-11T10:07:18.453Z</time>
      </trkpt>
      <trkpt lat="46.87092" lon="8.5151">
        <ele>1597</ele>
        <time>2021-08-11T10:07:19.454Z</time>
      </trkpt>
      <trkpt lat="46.87091" lon="8.51509">
        <ele>1597</ele>
        <time>2021-08-11T10:07:20.454Z</time>
      </trkpt>
      <trkpt lat="46.87091" lon="8.51509">
        <ele>1596</ele>
        <time>2021-08-11T10:07:21.454Z</time>
      </trkpt>
      <trkpt lat="46.8709" lon="8.5151">
        <ele>1596</ele>
        <time>2021-08-11T10:07:22.454Z</time>
      </trkpt>
      <trkpt lat="46.87088" lon="8.51508">
        <ele>1596</ele>
        <time>2021-08-11T10:07:23.453Z</time>
      </trkpt>
      <trkpt lat="46.87087" lon="8.51507">
        <ele>1596</ele>
        <time>2021-08-11T10:07:24.454Z</time>
      </trkpt>
      <trkpt lat="46.87086" lon="8.51505">
        <ele>1596</ele>
        <time>2021-08-11T10:07:25.454Z</time>
      </trkpt>
      <trkpt lat="46.87084" lon="8.51504">
        <ele>1596</ele>
        <time>2021-08-11T10:07:26.454Z</time>
      </trkpt>
      <trkpt lat="46.87083" lon="8.51503">
        <ele>1595</ele>
        <time>2021-08-11T10:07:27.453Z</time>
      </trkpt>
      <trkpt lat="46.87082" lon="8.51502">
        <ele>1595</ele>
        <time>2021-08-11T10:07:28.454Z</time>
      </trkpt>
      <trkpt lat="46.87081" lon="8.51501">
        <ele>1595</ele>
        <time>2021-08-11T10:07:29.454Z</time>
      </trkpt>
      <trkpt lat="46.8708" lon="8.515">
        <ele>1595</ele>
        <time>2021-08-11T10:07:30.454Z</time>
      </trkpt>
      <trkpt lat="46.87079" lon="8.515">
        <ele>1594</ele>
        <time>2021-08-11T10:07:31.454Z</time>
      </trkpt>
      <trkpt lat="46.87079" lon="8.51499">
        <ele>1593</ele>
        <time>2021-08-11T10:07:32.453Z</time>
      </trkpt>
      <trkpt lat="46.87078" lon="8.51498">
        <ele>1592</ele>
        <time>2021-08-11T10:07:33.454Z</time>
      </trkpt>
      <trkpt lat="46.87078" lon="8.51498">
        <ele>1590</ele>
        <time>2021-08-11T10:07:34.454Z</time>
      </trkpt>
      <trkpt lat="46.87077" lon="8.51497">
        <ele>1589</ele>
        <time>2021-08-11T10:07:35.454Z</time>
      </trkpt>
      <trkpt lat="46.87076" lon="8.51496">
        <ele>1588</ele>
        <time>2021-08-11T10:07:36.454Z</time>
      </trkpt>
      <trkpt lat="46.87076" lon="8.51495">
        <ele>1587</ele>
        <time>2021-08-11T10:07:37.454Z</time>
      </trkpt>
      <trkpt lat="46.87075" lon="8.51494">
        <ele>1587</ele>
        <time>2021-08-11T10:07:38.454Z</time>
      </trkpt>
      <trkpt lat="46.87075" lon="8.51493">
        <ele>1586</ele>
        <time>2021-08-11T10:07:39.454Z</time>
      </trkpt>
      <trkpt lat="46.87075" lon="8.51492">
        <ele>1586</ele>
        <time>2021-08-11T10:07:40.453Z</time>
      </trkpt>
      <trkpt lat="46.87075" lon="8.51491">
        <ele>1586</ele>
        <time>2021-08-11T10:07:41.454Z</time>
      </trkpt>
      <trkpt lat="46.87075" lon="8.5149">
        <ele>1585</ele>
        <time>2021-08-11T10:07:42.454Z</time>
      </trkpt>
      <trkpt lat="46.87075" lon="8.51489">
        <ele>1585</ele>
        <time>2021-08-11T10:07:43.453Z</time>
      </trkpt>
      <trkpt lat="46.87076" lon="8.51487">
        <ele>1584</ele>
        <time>2021-08-11T10:07:44.454Z</time>
      </trkpt>
      <trkpt lat="46.87075" lon="8.51486">
        <ele>1584</ele>
        <time>2021-08-11T10:07:45.453Z</time>
      </trkpt>
      <trkpt lat="46.87075" lon="8.51485">
        <ele>1584</ele>
        <time>2021-08-11T10:07:46.453Z</time>
      </trkpt>
      <trkpt lat="46.87074" lon="8.51484">
        <ele>1583</ele>
        <time>2021-08-11T10:07:47.454Z</time>
      </trkpt>
      <trkpt lat="46.87073" lon="8.51483">
        <ele>1583</ele>
        <time>2021-08-11T10:07:48.454Z</time>
      </trkpt>
      <trkpt lat="46.87072" lon="8.51482">
        <ele>1583</ele>
        <time>2021-08-11T10:07:49.454Z</time>
      </trkpt>
      <trkpt lat="46.87072" lon="8.51482">
        <ele>1583</ele>
        <time>2021-08-11T10:07:50.453Z</time>
      </trkpt>
      <trkpt lat="46.87071" lon="8.51481">
        <ele>1583</ele>
        <time>2021-08-11T10:07:51.453Z</time>
      </trkpt>
      <trkpt lat="46.8707" lon="8.5148">
        <ele>1582</ele>
        <time>2021-08-11T10:07:52.453Z</time>
      </trkpt>
      <trkpt lat="46.8707" lon="8.51479">
        <ele>1582</ele>
        <time>2021-08-11T10:07:53.453Z</time>
      </trkpt>
      <trkpt lat="46.87069" lon="8.51479">
        <ele>1581</ele>
        <time>2021-08-11T10:07:54.454Z</time>
      </trkpt>
      <trkpt lat="46.87068" lon="8.51478">
        <ele>1581</ele>
        <time>2021-08-11T10:07:55.454Z</time>
      </trkpt>
      <trkpt lat="46.87067" lon="8.51477">
        <ele>1580</ele>
        <time>2021-08-11T10:07:56.454Z</time>
      </trkpt>
      <trkpt lat="46.87066" lon="8.51477">
        <ele>1580</ele>
        <time>2021-08-11T10:07:57.454Z</time>
      </trkpt>
      <trkpt lat="46.87066" lon="8.51475">
        <ele>1579</ele>
        <time>2021-08-11T10:07:58.454Z</time>
      </trkpt>
      <trkpt lat="46.87065" lon="8.51474">
        <ele>1578</ele>
        <time>2021-08-11T10:07:59.453Z</time>
      </trkpt>
      <trkpt lat="46.87064" lon="8.51472">
        <ele>1578</ele>
        <time>2021-08-11T10:08:00.454Z</time>
      </trkpt>
      <trkpt lat="46.87063" lon="8.51471">
        <ele>1577</ele>
        <time>2021-08-11T10:08:01.454Z</time>
      </trkpt>
      <trkpt lat="46.87062" lon="8.5147">
        <ele>1577</ele>
        <time>2021-08-11T10:08:02.454Z</time>
      </trkpt>
      <trkpt lat="46.87061" lon="8.51469">
        <ele>1577</ele>
        <time>2021-08-11T10:08:03.453Z</time>
      </trkpt>
      <trkpt lat="46.8706" lon="8.51468">
        <ele>1576</ele>
        <time>2021-08-11T10:08:04.454Z</time>
      </trkpt>
      <trkpt lat="46.87059" lon="8.51467">
        <ele>1575</ele>
        <time>2021-08-11T10:08:05.454Z</time>
      </trkpt>
      <trkpt lat="46.87058" lon="8.51467">
        <ele>1575</ele>
        <time>2021-08-11T10:08:06.453Z</time>
      </trkpt>
      <trkpt lat="46.87057" lon="8.51466">
        <ele>1575</ele>
        <time>2021-08-11T10:08:07.454Z</time>
      </trkpt>
      <trkpt lat="46.87057" lon="8.51466">
        <ele>1575</ele>
        <time>2021-08-11T10:08:08.454Z</time>
      </trkpt>
      <trkpt lat="46.87055" lon="8.51465">
        <ele>1575</ele>
        <time>2021-08-11T10:08:09.454Z</time>
      </trkpt>
      <trkpt lat="46.87054" lon="8.51464">
        <ele>1575</ele>
        <time>2021-08-11T10:08:10.454Z</time>
      </trkpt>
      <trkpt lat="46.87053" lon="8.51463">
        <ele>1576</ele>
        <time>2021-08-11T10:08:11.454Z</time>
      </trkpt>
      <trkpt lat="46.87052" lon="8.51462">
        <ele>1577</ele>
        <time>2021-08-11T10:08:12.453Z</time>
      </trkpt>
      <trkpt lat="46.87052" lon="8.51461">
        <ele>1577</ele>
        <time>2021-08-11T10:08:13.454Z</time>
      </trkpt>
      <trkpt lat="46.87051" lon="8.5146">
        <ele>1577</ele>
        <time>2021-08-11T10:08:14.454Z</time>
      </trkpt>
      <trkpt lat="46.8705" lon="8.51459">
        <ele>1577</ele>
        <time>2021-08-11T10:08:15.453Z</time>
      </trkpt>
      <trkpt lat="46.87049" lon="8.51459">
        <ele>1578</ele>
        <time>2021-08-11T10:08:16.454Z</time>
      </trkpt>
      <trkpt lat="46.87048" lon="8.51458">
        <ele>1578</ele>
        <time>2021-08-11T10:08:17.454Z</time>
      </trkpt>
      <trkpt lat="46.87047" lon="8.51457">
        <ele>1578</ele>
        <time>2021-08-11T10:08:18.454Z</time>
      </trkpt>
      <trkpt lat="46.87046" lon="8.51456">
        <ele>1578</ele>
        <time>2021-08-11T10:08:19.453Z</time>
      </trkpt>
      <trkpt lat="46.87045" lon="8.51455">
        <ele>1578</ele>
        <time>2021-08-11T10:08:20.454Z</time>
      </trkpt>
      <trkpt lat="46.87044" lon="8.51455">
        <ele>1578</ele>
        <time>2021-08-11T10:08:21.454Z</time>
      </trkpt>
      <trkpt lat="46.87043" lon="8.51454">
        <ele>1578</ele>
        <time>2021-08-11T10:08:22.453Z</time>
      </trkpt>
      <trkpt lat="46.87042" lon="8.51453">
        <ele>1578</ele>
        <time>2021-08-11T10:08:23.453Z</time>
      </trkpt>
      <trkpt lat="46.87041" lon="8.51453">
        <ele>1578</ele>
        <time>2021-08-11T10:08:24.454Z</time>
      </trkpt>
      <trkpt lat="46.8704" lon="8.51452">
        <ele>1578</ele>
        <time>2021-08-11T10:08:25.454Z</time>
      </trkpt>
      <trkpt lat="46.87039" lon="8.51451">
        <ele>1577</ele>
        <time>2021-08-11T10:08:26.454Z</time>
      </trkpt>
      <trkpt lat="46.87038" lon="8.5145">
        <ele>1577</ele>
        <time>2021-08-11T10:08:27.454Z</time>
      </trkpt>
      <trkpt lat="46.87037" lon="8.51449">
        <ele>1577</ele>
        <time>2021-08-11T10:08:28.454Z</time>
      </trkpt>
      <trkpt lat="46.87035" lon="8.51447">
        <ele>1577</ele>
        <time>2021-08-11T10:08:29.453Z</time>
      </trkpt>
      <trkpt lat="46.87033" lon="8.51446">
        <ele>1577</ele>
        <time>2021-08-11T10:08:30.454Z</time>
      </trkpt>
      <trkpt lat="46.87031" lon="8.51444">
        <ele>1577</ele>
        <time>2021-08-11T10:08:31.454Z</time>
      </trkpt>
      <trkpt lat="46.8703" lon="8.51442">
        <ele>1578</ele>
        <time>2021-08-11T10:08:32.453Z</time>
      </trkpt>
      <trkpt lat="46.87029" lon="8.5144">
        <ele>1578</ele>
        <time>2021-08-11T10:08:33.454Z</time>
      </trkpt>
      <trkpt lat="46.87028" lon="8.51438">
        <ele>1578</ele>
        <time>2021-08-11T10:08:34.454Z</time>
      </trkpt>
      <trkpt lat="46.87027" lon="8.51435">
        <ele>1578</ele>
        <time>2021-08-11T10:08:35.454Z</time>
      </trkpt>
      <trkpt lat="46.87026" lon="8.51433">
        <ele>1578</ele>
        <time>2021-08-11T10:08:36.453Z</time>
      </trkpt>
      <trkpt lat="46.87025" lon="8.51432">
        <ele>1578</ele>
        <time>2021-08-11T10:08:37.454Z</time>
      </trkpt>
      <trkpt lat="46.87024" lon="8.5143">
        <ele>1578</ele>
        <time>2021-08-11T10:08:38.454Z</time>
      </trkpt>
      <trkpt lat="46.87022" lon="8.51427">
        <ele>1578</ele>
        <time>2021-08-11T10:08:39.453Z</time>
      </trkpt>
      <trkpt lat="46.87022" lon="8.51427">
        <ele>1578</ele>
        <time>2021-08-11T10:08:40.454Z</time>
      </trkpt>
      <trkpt lat="46.87021" lon="8.51426">
        <ele>1578</ele>
        <time>2021-08-11T10:08:41.454Z</time>
      </trkpt>
      <trkpt lat="46.8702" lon="8.51426">
        <ele>1578</ele>
        <time>2021-08-11T10:08:42.453Z</time>
      </trkpt>
      <trkpt lat="46.87019" lon="8.51426">
        <ele>1578</ele>
        <time>2021-08-11T10:08:43.454Z</time>
      </trkpt>
      <trkpt lat="46.87017" lon="8.51426">
        <ele>1577</ele>
        <time>2021-08-11T10:08:44.454Z</time>
      </trkpt>
      <trkpt lat="46.87016" lon="8.51425">
        <ele>1577</ele>
        <time>2021-08-11T10:08:45.454Z</time>
      </trkpt>
      <trkpt lat="46.87015" lon="8.51425">
        <ele>1577</ele>
        <time>2021-08-11T10:08:46.453Z</time>
      </trkpt>
      <trkpt lat="46.87014" lon="8.51425">
        <ele>1577</ele>
        <time>2021-08-11T10:08:47.453Z</time>
      </trkpt>
      <trkpt lat="46.87013" lon="8.51426">
        <ele>1577</ele>
        <time>2021-08-11T10:08:48.454Z</time>
      </trkpt>
      <trkpt lat="46.87013" lon="8.51426">
        <ele>1577</ele>
        <time>2021-08-11T10:08:49.453Z</time>
      </trkpt>
      <trkpt lat="46.87013" lon="8.51426">
        <ele>1577</ele>
        <time>2021-08-11T10:08:50.454Z</time>
      </trkpt>
      <trkpt lat="46.87012" lon="8.51426">
        <ele>1577</ele>
        <time>2021-08-11T10:08:51.455Z</time>
      </trkpt>
      <trkpt lat="46.87011" lon="8.51426">
        <ele>1577</ele>
        <time>2021-08-11T10:08:52.454Z</time>
      </trkpt>
      <trkpt lat="46.8701" lon="8.51425">
        <ele>1577</ele>
        <time>2021-08-11T10:08:53.455Z</time>
      </trkpt>
      <trkpt lat="46.87009" lon="8.51423">
        <ele>1577</ele>
        <time>2021-08-11T10:08:54.455Z</time>
      </trkpt>
      <trkpt lat="46.87008" lon="8.51423">
        <ele>1577</ele>
        <time>2021-08-11T10:08:55.455Z</time>
      </trkpt>
      <trkpt lat="46.87007" lon="8.51423">
        <ele>1577</ele>
        <time>2021-08-11T10:08:56.455Z</time>
      </trkpt>
      <trkpt lat="46.87006" lon="8.51422">
        <ele>1577</ele>
        <time>2021-08-11T10:08:57.455Z</time>
      </trkpt>
      <trkpt lat="46.87005" lon="8.51422">
        <ele>1577</ele>
        <time>2021-08-11T10:08:58.455Z</time>
      </trkpt>
      <trkpt lat="46.87005" lon="8.51422">
        <ele>1578</ele>
        <time>2021-08-11T10:08:59.455Z</time>
      </trkpt>
      <trkpt lat="46.87004" lon="8.51421">
        <ele>1577</ele>
        <time>2021-08-11T10:09:00.456Z</time>
      </trkpt>
      <trkpt lat="46.87004" lon="8.51422">
        <ele>1576</ele>
        <time>2021-08-11T10:09:01.456Z</time>
      </trkpt>
      <trkpt lat="46.87004" lon="8.51422">
        <ele>1576</ele>
        <time>2021-08-11T10:09:02.455Z</time>
      </trkpt>
      <trkpt lat="46.87004" lon="8.51421">
        <ele>1575</ele>
        <time>2021-08-11T10:09:03.456Z</time>
      </trkpt>
      <trkpt lat="46.87003" lon="8.51421">
        <ele>1575</ele>
        <time>2021-08-11T10:09:04.456Z</time>
      </trkpt>
      <trkpt lat="46.87003" lon="8.51421">
        <ele>1574</ele>
        <time>2021-08-11T10:09:05.455Z</time>
      </trkpt>
      <trkpt lat="46.87003" lon="8.51421">
        <ele>1573</ele>
        <time>2021-08-11T10:09:06.456Z</time>
      </trkpt>
      <trkpt lat="46.87007" lon="8.51425">
        <ele>1567</ele>
        <time>2021-08-11T10:09:07.457Z</time>
      </trkpt>
      <trkpt lat="46.87007" lon="8.51425">
        <ele>1567</ele>
        <time>2021-08-11T10:09:08.457Z</time>
      </trkpt>
      <trkpt lat="46.87007" lon="8.51425">
        <ele>1567</ele>
        <time>2021-08-11T10:09:09.456Z</time>
      </trkpt>
      <trkpt lat="46.87007" lon="8.51426">
        <ele>1568</ele>
        <time>2021-08-11T10:09:10.458Z</time>
      </trkpt>
      <trkpt lat="46.87006" lon="8.51426">
        <ele>1568</ele>
        <time>2021-08-11T10:09:11.457Z</time>
      </trkpt>
      <trkpt lat="46.87006" lon="8.51426">
        <ele>1568</ele>
        <time>2021-08-11T10:09:12.457Z</time>
      </trkpt>
      <trkpt lat="46.87005" lon="8.51427">
        <ele>1568</ele>
        <time>2021-08-11T10:09:13.458Z</time>
      </trkpt>
      <trkpt lat="46.87003" lon="8.51431">
        <ele>1567</ele>
        <time>2021-08-11T10:09:14.458Z</time>
      </trkpt>
      <trkpt lat="46.87003" lon="8.51431">
        <ele>1568</ele>
        <time>2021-08-11T10:09:15.458Z</time>
      </trkpt>
      <trkpt lat="46.87004" lon="8.51432">
        <ele>1568</ele>
        <time>2021-08-11T10:09:16.457Z</time>
      </trkpt>
      <trkpt lat="46.87004" lon="8.51432">
        <ele>1589</ele>
        <time>2021-08-11T10:09:17.457Z</time>
      </trkpt>
      <trkpt lat="46.87004" lon="8.51432">
        <ele>1589</ele>
        <time>2021-08-11T10:09:18.458Z</time>
      </trkpt>
      <trkpt lat="46.87005" lon="8.51435">
        <ele>1588</ele>
        <time>2021-08-11T10:09:19.458Z</time>
      </trkpt>
      <trkpt lat="46.87006" lon="8.51435">
        <ele>1587</ele>
        <time>2021-08-11T10:09:20.457Z</time>
      </trkpt>
      <trkpt lat="46.87006" lon="8.51434">
        <ele>1585</ele>
        <time>2021-08-11T10:09:21.457Z</time>
      </trkpt>
      <trkpt lat="46.87005" lon="8.51433">
        <ele>1584</ele>
        <time>2021-08-11T10:09:22.457Z</time>
      </trkpt>
      <trkpt lat="46.87005" lon="8.51432">
        <ele>1583</ele>
        <time>2021-08-11T10:09:23.457Z</time>
      </trkpt>
      <trkpt lat="46.87004" lon="8.51431">
        <ele>1581</ele>
        <time>2021-08-11T10:09:24.457Z</time>
      </trkpt>
      <trkpt lat="46.87003" lon="8.51431">
        <ele>1580</ele>
        <time>2021-08-11T10:09:25.457Z</time>
      </trkpt>
      <trkpt lat="46.87002" lon="8.51429">
        <ele>1579</ele>
        <time>2021-08-11T10:09:26.458Z</time>
      </trkpt>
      <trkpt lat="46.87002" lon="8.51428">
        <ele>1577</ele>
        <time>2021-08-11T10:09:27.457Z</time>
      </trkpt>
      <trkpt lat="46.87001" lon="8.51427">
        <ele>1576</ele>
        <time>2021-08-11T10:09:28.458Z</time>
      </trkpt>
      <trkpt lat="46.87001" lon="8.51426">
        <ele>1575</ele>
        <time>2021-08-11T10:09:29.458Z</time>
      </trkpt>
      <trkpt lat="46.87" lon="8.51425">
        <ele>1575</ele>
        <time>2021-08-11T10:09:30.458Z</time>
      </trkpt>
      <trkpt lat="46.87" lon="8.51425">
        <ele>1575</ele>
        <time>2021-08-11T10:09:31.457Z</time>
      </trkpt>
      <trkpt lat="46.86999" lon="8.51425">
        <ele>1575</ele>
        <time>2021-08-11T10:09:32.458Z</time>
      </trkpt>
      <trkpt lat="46.86998" lon="8.51424">
        <ele>1575</ele>
        <time>2021-08-11T10:09:33.457Z</time>
      </trkpt>
      <trkpt lat="46.86998" lon="8.51423">
        <ele>1574</ele>
        <time>2021-08-11T10:09:34.457Z</time>
      </trkpt>
      <trkpt lat="46.86997" lon="8.51421">
        <ele>1574</ele>
        <time>2021-08-11T10:09:35.457Z</time>
      </trkpt>
      <trkpt lat="46.86997" lon="8.5142">
        <ele>1574</ele>
        <time>2021-08-11T10:09:36.458Z</time>
      </trkpt>
      <trkpt lat="46.86997" lon="8.51419">
        <ele>1573</ele>
        <time>2021-08-11T10:09:37.458Z</time>
      </trkpt>
      <trkpt lat="46.86996" lon="8.51418">
        <ele>1573</ele>
        <time>2021-08-11T10:09:38.458Z</time>
      </trkpt>
      <trkpt lat="46.86996" lon="8.51417">
        <ele>1573</ele>
        <time>2021-08-11T10:09:39.457Z</time>
      </trkpt>
      <trkpt lat="46.86996" lon="8.51416">
        <ele>1572</ele>
        <time>2021-08-11T10:09:40.457Z</time>
      </trkpt>
      <trkpt lat="46.86995" lon="8.51415">
        <ele>1572</ele>
        <time>2021-08-11T10:09:41.458Z</time>
      </trkpt>
      <trkpt lat="46.86994" lon="8.51415">
        <ele>1572</ele>
        <time>2021-08-11T10:09:42.457Z</time>
      </trkpt>
      <trkpt lat="46.86994" lon="8.51415">
        <ele>1572</ele>
        <time>2021-08-11T10:09:43.458Z</time>
      </trkpt>
      <trkpt lat="46.86992" lon="8.51416">
        <ele>1572</ele>
        <time>2021-08-11T10:09:44.458Z</time>
      </trkpt>
      <trkpt lat="46.86993" lon="8.51416">
        <ele>1573</ele>
        <time>2021-08-11T10:09:45.458Z</time>
      </trkpt>
      <trkpt lat="46.86993" lon="8.51417">
        <ele>1574</ele>
        <time>2021-08-11T10:09:46.457Z</time>
      </trkpt>
      <trkpt lat="46.86992" lon="8.51417">
        <ele>1579</ele>
        <time>2021-08-11T10:09:47.459Z</time>
      </trkpt>
      <trkpt lat="46.86991" lon="8.51418">
        <ele>1580</ele>
        <time>2021-08-11T10:09:48.459Z</time>
      </trkpt>
      <trkpt lat="46.86991" lon="8.51419">
        <ele>1580</ele>
        <time>2021-08-11T10:09:49.458Z</time>
      </trkpt>
      <trkpt lat="46.86991" lon="8.51419">
        <ele>1580</ele>
        <time>2021-08-11T10:09:50.459Z</time>
      </trkpt>
      <trkpt lat="46.86991" lon="8.5142">
        <ele>1579</ele>
        <time>2021-08-11T10:09:51.459Z</time>
      </trkpt>
      <trkpt lat="46.8699" lon="8.51419">
        <ele>1579</ele>
        <time>2021-08-11T10:09:52.459Z</time>
      </trkpt>
      <trkpt lat="46.8699" lon="8.51418">
        <ele>1578</ele>
        <time>2021-08-11T10:09:53.459Z</time>
      </trkpt>
      <trkpt lat="46.8699" lon="8.51416">
        <ele>1578</ele>
        <time>2021-08-11T10:09:54.459Z</time>
      </trkpt>
      <trkpt lat="46.8699" lon="8.51415">
        <ele>1577</ele>
        <time>2021-08-11T10:09:55.459Z</time>
      </trkpt>
      <trkpt lat="46.8699" lon="8.51414">
        <ele>1576</ele>
        <time>2021-08-11T10:09:56.459Z</time>
      </trkpt>
      <trkpt lat="46.86989" lon="8.51413">
        <ele>1576</ele>
        <time>2021-08-11T10:09:57.459Z</time>
      </trkpt>
      <trkpt lat="46.86988" lon="8.51412">
        <ele>1575</ele>
        <time>2021-08-11T10:09:58.459Z</time>
      </trkpt>
      <trkpt lat="46.86988" lon="8.51411">
        <ele>1574</ele>
        <time>2021-08-11T10:09:59.458Z</time>
      </trkpt>
      <trkpt lat="46.86987" lon="8.51411">
        <ele>1574</ele>
        <time>2021-08-11T10:10:00.459Z</time>
      </trkpt>
      <trkpt lat="46.86986" lon="8.5141">
        <ele>1573</ele>
        <time>2021-08-11T10:10:01.459Z</time>
      </trkpt>
      <trkpt lat="46.86986" lon="8.5141">
        <ele>1573</ele>
        <time>2021-08-11T10:10:02.459Z</time>
      </trkpt>
      <trkpt lat="46.86985" lon="8.51409">
        <ele>1572</ele>
        <time>2021-08-11T10:10:03.459Z</time>
      </trkpt>
      <trkpt lat="46.86984" lon="8.51408">
        <ele>1572</ele>
        <time>2021-08-11T10:10:04.459Z</time>
      </trkpt>
      <trkpt lat="46.86983" lon="8.51408">
        <ele>1572</ele>
        <time>2021-08-11T10:10:05.459Z</time>
      </trkpt>
      <trkpt lat="46.86983" lon="8.51407">
        <ele>1572</ele>
        <time>2021-08-11T10:10:06.458Z</time>
      </trkpt>
      <trkpt lat="46.86982" lon="8.51405">
        <ele>1572</ele>
        <time>2021-08-11T10:10:07.459Z</time>
      </trkpt>
      <trkpt lat="46.86981" lon="8.51405">
        <ele>1572</ele>
        <time>2021-08-11T10:10:08.458Z</time>
      </trkpt>
      <trkpt lat="46.86981" lon="8.51404">
        <ele>1572</ele>
        <time>2021-08-11T10:10:09.459Z</time>
      </trkpt>
      <trkpt lat="46.8698" lon="8.51402">
        <ele>1573</ele>
        <time>2021-08-11T10:10:10.459Z</time>
      </trkpt>
      <trkpt lat="46.8698" lon="8.51401">
        <ele>1573</ele>
        <time>2021-08-11T10:10:11.459Z</time>
      </trkpt>
      <trkpt lat="46.86979" lon="8.514">
        <ele>1573</ele>
        <time>2021-08-11T10:10:12.459Z</time>
      </trkpt>
      <trkpt lat="46.86979" lon="8.51399">
        <ele>1573</ele>
        <time>2021-08-11T10:10:13.458Z</time>
      </trkpt>
      <trkpt lat="46.86977" lon="8.51398">
        <ele>1574</ele>
        <time>2021-08-11T10:10:14.458Z</time>
      </trkpt>
      <trkpt lat="46.86976" lon="8.51396">
        <ele>1574</ele>
        <time>2021-08-11T10:10:15.458Z</time>
      </trkpt>
      <trkpt lat="46.86976" lon="8.51393">
        <ele>1574</ele>
        <time>2021-08-11T10:10:16.459Z</time>
      </trkpt>
      <trkpt lat="46.86975" lon="8.51391">
        <ele>1574</ele>
        <time>2021-08-11T10:10:17.459Z</time>
      </trkpt>
      <trkpt lat="46.86975" lon="8.5139">
        <ele>1575</ele>
        <time>2021-08-11T10:10:18.458Z</time>
      </trkpt>
      <trkpt lat="46.86974" lon="8.51387">
        <ele>1575</ele>
        <time>2021-08-11T10:10:19.459Z</time>
      </trkpt>
      <trkpt lat="46.86973" lon="8.51384">
        <ele>1575</ele>
        <time>2021-08-11T10:10:20.459Z</time>
      </trkpt>
      <trkpt lat="46.86972" lon="8.51382">
        <ele>1575</ele>
        <time>2021-08-11T10:10:21.459Z</time>
      </trkpt>
      <trkpt lat="46.86971" lon="8.51381">
        <ele>1576</ele>
        <time>2021-08-11T10:10:22.458Z</time>
      </trkpt>
      <trkpt lat="46.86971" lon="8.51378">
        <ele>1576</ele>
        <time>2021-08-11T10:10:23.459Z</time>
      </trkpt>
      <trkpt lat="46.8697" lon="8.51376">
        <ele>1576</ele>
        <time>2021-08-11T10:10:24.459Z</time>
      </trkpt>
      <trkpt lat="46.86969" lon="8.51375">
        <ele>1577</ele>
        <time>2021-08-11T10:10:25.459Z</time>
      </trkpt>
      <trkpt lat="46.86969" lon="8.51374">
        <ele>1577</ele>
        <time>2021-08-11T10:10:26.458Z</time>
      </trkpt>
      <trkpt lat="46.86969" lon="8.51371">
        <ele>1577</ele>
        <time>2021-08-11T10:10:27.459Z</time>
      </trkpt>
      <trkpt lat="46.86968" lon="8.5137">
        <ele>1577</ele>
        <time>2021-08-11T10:10:28.459Z</time>
      </trkpt>
      <trkpt lat="46.86967" lon="8.51369">
        <ele>1576</ele>
        <time>2021-08-11T10:10:29.459Z</time>
      </trkpt>
      <trkpt lat="46.86966" lon="8.51368">
        <ele>1576</ele>
        <time>2021-08-11T10:10:30.459Z</time>
      </trkpt>
      <trkpt lat="46.86966" lon="8.51368">
        <ele>1575</ele>
        <time>2021-08-11T10:10:31.459Z</time>
      </trkpt>
      <trkpt lat="46.86965" lon="8.51367">
        <ele>1574</ele>
        <time>2021-08-11T10:10:32.458Z</time>
      </trkpt>
      <trkpt lat="46.86964" lon="8.51367">
        <ele>1574</ele>
        <time>2021-08-11T10:10:33.459Z</time>
      </trkpt>
      <trkpt lat="46.86964" lon="8.51366">
        <ele>1573</ele>
        <time>2021-08-11T10:10:34.459Z</time>
      </trkpt>
      <trkpt lat="46.86963" lon="8.51366">
        <ele>1572</ele>
        <time>2021-08-11T10:10:35.459Z</time>
      </trkpt>
      <trkpt lat="46.86962" lon="8.51365">
        <ele>1572</ele>
        <time>2021-08-11T10:10:36.459Z</time>
      </trkpt>
      <trkpt lat="46.86961" lon="8.51365">
        <ele>1571</ele>
        <time>2021-08-11T10:10:37.459Z</time>
      </trkpt>
      <trkpt lat="46.86961" lon="8.51365">
        <ele>1571</ele>
        <time>2021-08-11T10:10:38.458Z</time>
      </trkpt>
      <trkpt lat="46.8696" lon="8.51364">
        <ele>1570</ele>
        <time>2021-08-11T10:10:39.459Z</time>
      </trkpt>
      <trkpt lat="46.86959" lon="8.51364">
        <ele>1570</ele>
        <time>2021-08-11T10:10:40.459Z</time>
      </trkpt>
      <trkpt lat="46.86958" lon="8.51363">
        <ele>1569</ele>
        <time>2021-08-11T10:10:41.459Z</time>
      </trkpt>
      <trkpt lat="46.86958" lon="8.51362">
        <ele>1568</ele>
        <time>2021-08-11T10:10:42.459Z</time>
      </trkpt>
      <trkpt lat="46.86957" lon="8.51362">
        <ele>1567</ele>
        <time>2021-08-11T10:10:43.459Z</time>
      </trkpt>
      <trkpt lat="46.86956" lon="8.51361">
        <ele>1566</ele>
        <time>2021-08-11T10:10:44.458Z</time>
      </trkpt>
      <trkpt lat="46.86955" lon="8.51361">
        <ele>1565</ele>
        <time>2021-08-11T10:10:45.458Z</time>
      </trkpt>
      <trkpt lat="46.86955" lon="8.5136">
        <ele>1563</ele>
        <time>2021-08-11T10:10:46.459Z</time>
      </trkpt>
      <trkpt lat="46.86954" lon="8.51359">
        <ele>1562</ele>
        <time>2021-08-11T10:10:47.459Z</time>
      </trkpt>
      <trkpt lat="46.86954" lon="8.51358">
        <ele>1562</ele>
        <time>2021-08-11T10:10:48.459Z</time>
      </trkpt>
      <trkpt lat="46.86953" lon="8.51358">
        <ele>1561</ele>
        <time>2021-08-11T10:10:49.459Z</time>
      </trkpt>
      <trkpt lat="46.86952" lon="8.51357">
        <ele>1561</ele>
        <time>2021-08-11T10:10:50.458Z</time>
      </trkpt>
      <trkpt lat="46.86952" lon="8.51355">
        <ele>1561</ele>
        <time>2021-08-11T10:10:51.459Z</time>
      </trkpt>
      <trkpt lat="46.86951" lon="8.51354">
        <ele>1560</ele>
        <time>2021-08-11T10:10:52.458Z</time>
      </trkpt>
      <trkpt lat="46.86951" lon="8.51353">
        <ele>1560</ele>
        <time>2021-08-11T10:10:53.459Z</time>
      </trkpt>
      <trkpt lat="46.8695" lon="8.51352">
        <ele>1560</ele>
        <time>2021-08-11T10:10:54.458Z</time>
      </trkpt>
      <trkpt lat="46.86949" lon="8.51351">
        <ele>1560</ele>
        <time>2021-08-11T10:10:55.459Z</time>
      </trkpt>
      <trkpt lat="46.86949" lon="8.5135">
        <ele>1559</ele>
        <time>2021-08-11T10:10:56.459Z</time>
      </trkpt>
      <trkpt lat="46.86949" lon="8.51348">
        <ele>1559</ele>
        <time>2021-08-11T10:10:57.459Z</time>
      </trkpt>
      <trkpt lat="46.86948" lon="8.51347">
        <ele>1558</ele>
        <time>2021-08-11T10:10:58.459Z</time>
      </trkpt>
      <trkpt lat="46.86947" lon="8.51346">
        <ele>1558</ele>
        <time>2021-08-11T10:10:59.459Z</time>
      </trkpt>
      <trkpt lat="46.86946" lon="8.51346">
        <ele>1557</ele>
        <time>2021-08-11T10:11:00.459Z</time>
      </trkpt>
      <trkpt lat="46.86945" lon="8.51345">
        <ele>1557</ele>
        <time>2021-08-11T10:11:01.458Z</time>
      </trkpt>
      <trkpt lat="46.86944" lon="8.51344">
        <ele>1557</ele>
        <time>2021-08-11T10:11:02.459Z</time>
      </trkpt>
      <trkpt lat="46.86944" lon="8.51343">
        <ele>1556</ele>
        <time>2021-08-11T10:11:03.459Z</time>
      </trkpt>
      <trkpt lat="46.86944" lon="8.51342">
        <ele>1555</ele>
        <time>2021-08-11T10:11:04.459Z</time>
      </trkpt>
      <trkpt lat="46.86944" lon="8.51341">
        <ele>1555</ele>
        <time>2021-08-11T10:11:05.459Z</time>
      </trkpt>
      <trkpt lat="46.86944" lon="8.5134">
        <ele>1555</ele>
        <time>2021-08-11T10:11:06.459Z</time>
      </trkpt>
      <trkpt lat="46.86943" lon="8.51338">
        <ele>1555</ele>
        <time>2021-08-11T10:11:07.459Z</time>
      </trkpt>
      <trkpt lat="46.86942" lon="8.51336">
        <ele>1555</ele>
        <time>2021-08-11T10:11:08.459Z</time>
      </trkpt>
      <trkpt lat="46.86941" lon="8.51335">
        <ele>1555</ele>
        <time>2021-08-11T10:11:09.458Z</time>
      </trkpt>
      <trkpt lat="46.8694" lon="8.51333">
        <ele>1555</ele>
        <time>2021-08-11T10:11:10.459Z</time>
      </trkpt>
      <trkpt lat="46.86939" lon="8.51332">
        <ele>1555</ele>
        <time>2021-08-11T10:11:11.459Z</time>
      </trkpt>
      <trkpt lat="46.86938" lon="8.5133">
        <ele>1555</ele>
        <time>2021-08-11T10:11:12.459Z</time>
      </trkpt>
      <trkpt lat="46.86937" lon="8.51329">
        <ele>1555</ele>
        <time>2021-08-11T10:11:13.459Z</time>
      </trkpt>
      <trkpt lat="46.86936" lon="8.51326">
        <ele>1554</ele>
        <time>2021-08-11T10:11:14.459Z</time>
      </trkpt>
      <trkpt lat="46.86935" lon="8.51324">
        <ele>1553</ele>
        <time>2021-08-11T10:11:15.459Z</time>
      </trkpt>
      <trkpt lat="46.86935" lon="8.51323">
        <ele>1552</ele>
        <time>2021-08-11T10:11:16.458Z</time>
      </trkpt>
      <trkpt lat="46.86934" lon="8.51321">
        <ele>1552</ele>
        <time>2021-08-11T10:11:17.458Z</time>
      </trkpt>
      <trkpt lat="46.86933" lon="8.5132">
        <ele>1551</ele>
        <time>2021-08-11T10:11:18.459Z</time>
      </trkpt>
      <trkpt lat="46.86932" lon="8.51319">
        <ele>1551</ele>
        <time>2021-08-11T10:11:19.459Z</time>
      </trkpt>
      <trkpt lat="46.86931" lon="8.51317">
        <ele>1550</ele>
        <time>2021-08-11T10:11:20.458Z</time>
      </trkpt>
      <trkpt lat="46.8693" lon="8.51316">
        <ele>1550</ele>
        <time>2021-08-11T10:11:21.459Z</time>
      </trkpt>
      <trkpt lat="46.8693" lon="8.51315">
        <ele>1550</ele>
        <time>2021-08-11T10:11:22.459Z</time>
      </trkpt>
      <trkpt lat="46.86928" lon="8.51313">
        <ele>1550</ele>
        <time>2021-08-11T10:11:23.458Z</time>
      </trkpt>
      <trkpt lat="46.86928" lon="8.51313">
        <ele>1551</ele>
        <time>2021-08-11T10:11:24.459Z</time>
      </trkpt>
      <trkpt lat="46.86927" lon="8.51312">
        <ele>1551</ele>
        <time>2021-08-11T10:11:25.458Z</time>
      </trkpt>
      <trkpt lat="46.86925" lon="8.51311">
        <ele>1551</ele>
        <time>2021-08-11T10:11:26.458Z</time>
      </trkpt>
      <trkpt lat="46.86924" lon="8.51311">
        <ele>1551</ele>
        <time>2021-08-11T10:11:27.458Z</time>
      </trkpt>
      <trkpt lat="46.86923" lon="8.51311">
        <ele>1551</ele>
        <time>2021-08-11T10:11:28.458Z</time>
      </trkpt>
      <trkpt lat="46.86922" lon="8.5131">
        <ele>1551</ele>
        <time>2021-08-11T10:11:29.459Z</time>
      </trkpt>
      <trkpt lat="46.8692" lon="8.51308">
        <ele>1552</ele>
        <time>2021-08-11T10:11:30.459Z</time>
      </trkpt>
      <trkpt lat="46.8692" lon="8.51307">
        <ele>1552</ele>
        <time>2021-08-11T10:11:31.459Z</time>
      </trkpt>
      <trkpt lat="46.86919" lon="8.51306">
        <ele>1552</ele>
        <time>2021-08-11T10:11:32.459Z</time>
      </trkpt>
      <trkpt lat="46.86917" lon="8.51305">
        <ele>1553</ele>
        <time>2021-08-11T10:11:33.458Z</time>
      </trkpt>
      <trkpt lat="46.86915" lon="8.51304">
        <ele>1553</ele>
        <time>2021-08-11T10:11:34.459Z</time>
      </trkpt>
      <trkpt lat="46.86913" lon="8.51303">
        <ele>1553</ele>
        <time>2021-08-11T10:11:35.459Z</time>
      </trkpt>
      <trkpt lat="46.86912" lon="8.51303">
        <ele>1553</ele>
        <time>2021-08-11T10:11:36.459Z</time>
      </trkpt>
      <trkpt lat="46.86911" lon="8.51302">
        <ele>1554</ele>
        <time>2021-08-11T10:11:37.459Z</time>
      </trkpt>
      <trkpt lat="46.8691" lon="8.513">
        <ele>1554</ele>
        <time>2021-08-11T10:11:38.458Z</time>
      </trkpt>
      <trkpt lat="46.86908" lon="8.51299">
        <ele>1555</ele>
        <time>2021-08-11T10:11:39.458Z</time>
      </trkpt>
      <trkpt lat="46.86907" lon="8.51298">
        <ele>1555</ele>
        <time>2021-08-11T10:11:40.459Z</time>
      </trkpt>
      <trkpt lat="46.86905" lon="8.51297">
        <ele>1555</ele>
        <time>2021-08-11T10:11:41.459Z</time>
      </trkpt>
      <trkpt lat="46.86904" lon="8.51297">
        <ele>1555</ele>
        <time>2021-08-11T10:11:42.459Z</time>
      </trkpt>
      <trkpt lat="46.86902" lon="8.51297">
        <ele>1554</ele>
        <time>2021-08-11T10:11:43.459Z</time>
      </trkpt>
      <trkpt lat="46.86901" lon="8.51297">
        <ele>1554</ele>
        <time>2021-08-11T10:11:44.459Z</time>
      </trkpt>
      <trkpt lat="46.869" lon="8.51297">
        <ele>1553</ele>
        <time>2021-08-11T10:11:45.458Z</time>
      </trkpt>
      <trkpt lat="46.86899" lon="8.51297">
        <ele>1553</ele>
        <time>2021-08-11T10:11:46.459Z</time>
      </trkpt>
      <trkpt lat="46.86898" lon="8.51296">
        <ele>1552</ele>
        <time>2021-08-11T10:11:47.459Z</time>
      </trkpt>
      <trkpt lat="46.86898" lon="8.51296">
        <ele>1552</ele>
        <time>2021-08-11T10:11:48.459Z</time>
      </trkpt>
      <trkpt lat="46.86897" lon="8.51296">
        <ele>1551</ele>
        <time>2021-08-11T10:11:49.459Z</time>
      </trkpt>
      <trkpt lat="46.86896" lon="8.51296">
        <ele>1551</ele>
        <time>2021-08-11T10:11:50.458Z</time>
      </trkpt>
      <trkpt lat="46.86895" lon="8.51295">
        <ele>1550</ele>
        <time>2021-08-11T10:11:51.459Z</time>
      </trkpt>
      <trkpt lat="46.86894" lon="8.51295">
        <ele>1550</ele>
        <time>2021-08-11T10:11:52.459Z</time>
      </trkpt>
      <trkpt lat="46.86893" lon="8.51295">
        <ele>1550</ele>
        <time>2021-08-11T10:11:53.459Z</time>
      </trkpt>
      <trkpt lat="46.86893" lon="8.51295">
        <ele>1549</ele>
        <time>2021-08-11T10:11:54.458Z</time>
      </trkpt>
      <trkpt lat="46.86892" lon="8.51294">
        <ele>1549</ele>
        <time>2021-08-11T10:11:55.459Z</time>
      </trkpt>
      <trkpt lat="46.8689" lon="8.51294">
        <ele>1549</ele>
        <time>2021-08-11T10:11:56.459Z</time>
      </trkpt>
      <trkpt lat="46.8689" lon="8.51294">
        <ele>1549</ele>
        <time>2021-08-11T10:11:57.458Z</time>
      </trkpt>
      <trkpt lat="46.86889" lon="8.51293">
        <ele>1548</ele>
        <time>2021-08-11T10:11:58.458Z</time>
      </trkpt>
      <trkpt lat="46.86887" lon="8.51292">
        <ele>1548</ele>
        <time>2021-08-11T10:11:59.459Z</time>
      </trkpt>
      <trkpt lat="46.86886" lon="8.51291">
        <ele>1548</ele>
        <time>2021-08-11T10:12:00.459Z</time>
      </trkpt>
      <trkpt lat="46.86885" lon="8.51291">
        <ele>1548</ele>
        <time>2021-08-11T10:12:01.458Z</time>
      </trkpt>
      <trkpt lat="46.86885" lon="8.5129">
        <ele>1548</ele>
        <time>2021-08-11T10:12:02.459Z</time>
      </trkpt>
      <trkpt lat="46.86883" lon="8.5129">
        <ele>1549</ele>
        <time>2021-08-11T10:12:03.458Z</time>
      </trkpt>
      <trkpt lat="46.86882" lon="8.5129">
        <ele>1549</ele>
        <time>2021-08-11T10:12:04.459Z</time>
      </trkpt>
      <trkpt lat="46.86881" lon="8.51289">
        <ele>1549</ele>
        <time>2021-08-11T10:12:05.459Z</time>
      </trkpt>
      <trkpt lat="46.8688" lon="8.51289">
        <ele>1549</ele>
        <time>2021-08-11T10:12:06.459Z</time>
      </trkpt>
      <trkpt lat="46.86879" lon="8.51289">
        <ele>1549</ele>
        <time>2021-08-11T10:12:07.459Z</time>
      </trkpt>
      <trkpt lat="46.86878" lon="8.51289">
        <ele>1549</ele>
        <time>2021-08-11T10:12:08.458Z</time>
      </trkpt>
      <trkpt lat="46.86877" lon="8.51289">
        <ele>1548</ele>
        <time>2021-08-11T10:12:09.459Z</time>
      </trkpt>
      <trkpt lat="46.86876" lon="8.51289">
        <ele>1548</ele>
        <time>2021-08-11T10:12:10.459Z</time>
      </trkpt>
      <trkpt lat="46.86876" lon="8.51289">
        <ele>1547</ele>
        <time>2021-08-11T10:12:11.459Z</time>
      </trkpt>
      <trkpt lat="46.86875" lon="8.51288">
        <ele>1547</ele>
        <time>2021-08-11T10:12:12.459Z</time>
      </trkpt>
      <trkpt lat="46.86874" lon="8.51288">
        <ele>1547</ele>
        <time>2021-08-11T10:12:13.459Z</time>
      </trkpt>
      <trkpt lat="46.86873" lon="8.51288">
        <ele>1547</ele>
        <time>2021-08-11T10:12:14.458Z</time>
      </trkpt>
      <trkpt lat="46.86872" lon="8.51289">
        <ele>1546</ele>
        <time>2021-08-11T10:12:15.459Z</time>
      </trkpt>
      <trkpt lat="46.86871" lon="8.51289">
        <ele>1546</ele>
        <time>2021-08-11T10:12:16.459Z</time>
      </trkpt>
      <trkpt lat="46.8687" lon="8.51288">
        <ele>1546</ele>
        <time>2021-08-11T10:12:17.459Z</time>
      </trkpt>
      <trkpt lat="46.86869" lon="8.51289">
        <ele>1546</ele>
        <time>2021-08-11T10:12:18.458Z</time>
      </trkpt>
      <trkpt lat="46.86868" lon="8.51289">
        <ele>1546</ele>
        <time>2021-08-11T10:12:19.458Z</time>
      </trkpt>
      <trkpt lat="46.86866" lon="8.51289">
        <ele>1546</ele>
        <time>2021-08-11T10:12:20.459Z</time>
      </trkpt>
      <trkpt lat="46.86865" lon="8.51288">
        <ele>1546</ele>
        <time>2021-08-11T10:12:21.459Z</time>
      </trkpt>
      <trkpt lat="46.86864" lon="8.51288">
        <ele>1546</ele>
        <time>2021-08-11T10:12:22.459Z</time>
      </trkpt>
      <trkpt lat="46.86863" lon="8.51287">
        <ele>1546</ele>
        <time>2021-08-11T10:12:23.459Z</time>
      </trkpt>
      <trkpt lat="46.86862" lon="8.51287">
        <ele>1546</ele>
        <time>2021-08-11T10:12:24.458Z</time>
      </trkpt>
      <trkpt lat="46.8686" lon="8.51287">
        <ele>1546</ele>
        <time>2021-08-11T10:12:25.458Z</time>
      </trkpt>
      <trkpt lat="46.86859" lon="8.51286">
        <ele>1546</ele>
        <time>2021-08-11T10:12:26.459Z</time>
      </trkpt>
      <trkpt lat="46.86858" lon="8.51286">
        <ele>1546</ele>
        <time>2021-08-11T10:12:27.459Z</time>
      </trkpt>
      <trkpt lat="46.86857" lon="8.51286">
        <ele>1545</ele>
        <time>2021-08-11T10:12:28.459Z</time>
      </trkpt>
      <trkpt lat="46.86856" lon="8.51285">
        <ele>1545</ele>
        <time>2021-08-11T10:12:29.459Z</time>
      </trkpt>
      <trkpt lat="46.86855" lon="8.51284">
        <ele>1544</ele>
        <time>2021-08-11T10:12:30.458Z</time>
      </trkpt>
      <trkpt lat="46.86854" lon="8.51283">
        <ele>1543</ele>
        <time>2021-08-11T10:12:31.459Z</time>
      </trkpt>
      <trkpt lat="46.86853" lon="8.51282">
        <ele>1543</ele>
        <time>2021-08-11T10:12:32.458Z</time>
      </trkpt>
      <trkpt lat="46.86852" lon="8.51282">
        <ele>1542</ele>
        <time>2021-08-11T10:12:33.458Z</time>
      </trkpt>
      <trkpt lat="46.86851" lon="8.51281">
        <ele>1542</ele>
        <time>2021-08-11T10:12:34.458Z</time>
      </trkpt>
      <trkpt lat="46.8685" lon="8.5128">
        <ele>1542</ele>
        <time>2021-08-11T10:12:35.458Z</time>
      </trkpt>
      <trkpt lat="46.86849" lon="8.51279">
        <ele>1541</ele>
        <time>2021-08-11T10:12:36.458Z</time>
      </trkpt>
      <trkpt lat="46.86847" lon="8.51278">
        <ele>1541</ele>
        <time>2021-08-11T10:12:37.459Z</time>
      </trkpt>
      <trkpt lat="46.86846" lon="8.51278">
        <ele>1541</ele>
        <time>2021-08-11T10:12:38.459Z</time>
      </trkpt>
      <trkpt lat="46.86845" lon="8.51277">
        <ele>1541</ele>
        <time>2021-08-11T10:12:39.458Z</time>
      </trkpt>
      <trkpt lat="46.86845" lon="8.51277">
        <ele>1541</ele>
        <time>2021-08-11T10:12:40.458Z</time>
      </trkpt>
      <trkpt lat="46.86844" lon="8.51276">
        <ele>1541</ele>
        <time>2021-08-11T10:12:41.459Z</time>
      </trkpt>
      <trkpt lat="46.86842" lon="8.51276">
        <ele>1541</ele>
        <time>2021-08-11T10:12:42.458Z</time>
      </trkpt>
      <trkpt lat="46.86841" lon="8.51275">
        <ele>1541</ele>
        <time>2021-08-11T10:12:43.459Z</time>
      </trkpt>
      <trkpt lat="46.8684" lon="8.51274">
        <ele>1541</ele>
        <time>2021-08-11T10:12:44.458Z</time>
      </trkpt>
      <trkpt lat="46.86839" lon="8.51272">
        <ele>1541</ele>
        <time>2021-08-11T10:12:45.458Z</time>
      </trkpt>
      <trkpt lat="46.86838" lon="8.51272">
        <ele>1541</ele>
        <time>2021-08-11T10:12:46.459Z</time>
      </trkpt>
      <trkpt lat="46.86837" lon="8.51272">
        <ele>1541</ele>
        <time>2021-08-11T10:12:47.458Z</time>
      </trkpt>
      <trkpt lat="46.86836" lon="8.51273">
        <ele>1541</ele>
        <time>2021-08-11T10:12:48.459Z</time>
      </trkpt>
      <trkpt lat="46.86834" lon="8.5127">
        <ele>1541</ele>
        <time>2021-08-11T10:12:49.459Z</time>
      </trkpt>
      <trkpt lat="46.86833" lon="8.5127">
        <ele>1541</ele>
        <time>2021-08-11T10:12:50.458Z</time>
      </trkpt>
      <trkpt lat="46.86832" lon="8.51269">
        <ele>1540</ele>
        <time>2021-08-11T10:12:51.459Z</time>
      </trkpt>
      <trkpt lat="46.8683" lon="8.51269">
        <ele>1540</ele>
        <time>2021-08-11T10:12:52.459Z</time>
      </trkpt>
      <trkpt lat="46.86829" lon="8.51268">
        <ele>1540</ele>
        <time>2021-08-11T10:12:53.459Z</time>
      </trkpt>
      <trkpt lat="46.86828" lon="8.51267">
        <ele>1540</ele>
        <time>2021-08-11T10:12:54.459Z</time>
      </trkpt>
      <trkpt lat="46.86826" lon="8.51267">
        <ele>1540</ele>
        <time>2021-08-11T10:12:55.458Z</time>
      </trkpt>
      <trkpt lat="46.86825" lon="8.51266">
        <ele>1540</ele>
        <time>2021-08-11T10:12:56.459Z</time>
      </trkpt>
      <trkpt lat="46.86823" lon="8.51265">
        <ele>1540</ele>
        <time>2021-08-11T10:12:57.459Z</time>
      </trkpt>
      <trkpt lat="46.86822" lon="8.51264">
        <ele>1540</ele>
        <time>2021-08-11T10:12:58.459Z</time>
      </trkpt>
      <trkpt lat="46.86821" lon="8.51263">
        <ele>1541</ele>
        <time>2021-08-11T10:12:59.459Z</time>
      </trkpt>
      <trkpt lat="46.86819" lon="8.51263">
        <ele>1541</ele>
        <time>2021-08-11T10:13:00.459Z</time>
      </trkpt>
      <trkpt lat="46.86819" lon="8.51263">
        <ele>1541</ele>
        <time>2021-08-11T10:13:01.458Z</time>
      </trkpt>
      <trkpt lat="46.86818" lon="8.51262">
        <ele>1542</ele>
        <time>2021-08-11T10:13:02.459Z</time>
      </trkpt>
      <trkpt lat="46.86817" lon="8.51261">
        <ele>1542</ele>
        <time>2021-08-11T10:13:03.458Z</time>
      </trkpt>
      <trkpt lat="46.86817" lon="8.51259">
        <ele>1542</ele>
        <time>2021-08-11T10:13:04.459Z</time>
      </trkpt>
      <trkpt lat="46.86816" lon="8.51259">
        <ele>1542</ele>
        <time>2021-08-11T10:13:05.459Z</time>
      </trkpt>
      <trkpt lat="46.86815" lon="8.51257">
        <ele>1542</ele>
        <time>2021-08-11T10:13:06.459Z</time>
      </trkpt>
      <trkpt lat="46.86814" lon="8.51257">
        <ele>1542</ele>
        <time>2021-08-11T10:13:07.458Z</time>
      </trkpt>
      <trkpt lat="46.86813" lon="8.51256">
        <ele>1543</ele>
        <time>2021-08-11T10:13:08.458Z</time>
      </trkpt>
      <trkpt lat="46.86812" lon="8.51255">
        <ele>1543</ele>
        <time>2021-08-11T10:13:09.459Z</time>
      </trkpt>
      <trkpt lat="46.86811" lon="8.51253">
        <ele>1543</ele>
        <time>2021-08-11T10:13:10.459Z</time>
      </trkpt>
      <trkpt lat="46.86809" lon="8.51252">
        <ele>1543</ele>
        <time>2021-08-11T10:13:11.459Z</time>
      </trkpt>
      <trkpt lat="46.86808" lon="8.51252">
        <ele>1543</ele>
        <time>2021-08-11T10:13:12.459Z</time>
      </trkpt>
      <trkpt lat="46.86807" lon="8.51251">
        <ele>1544</ele>
        <time>2021-08-11T10:13:13.459Z</time>
      </trkpt>
      <trkpt lat="46.86806" lon="8.51251">
        <ele>1544</ele>
        <time>2021-08-11T10:13:14.458Z</time>
      </trkpt>
      <trkpt lat="46.86805" lon="8.5125">
        <ele>1545</ele>
        <time>2021-08-11T10:13:15.459Z</time>
      </trkpt>
      <trkpt lat="46.86804" lon="8.51249">
        <ele>1545</ele>
        <time>2021-08-11T10:13:16.458Z</time>
      </trkpt>
      <trkpt lat="46.86802" lon="8.51249">
        <ele>1545</ele>
        <time>2021-08-11T10:13:17.458Z</time>
      </trkpt>
      <trkpt lat="46.86802" lon="8.51248">
        <ele>1545</ele>
        <time>2021-08-11T10:13:18.459Z</time>
      </trkpt>
      <trkpt lat="46.86801" lon="8.51248">
        <ele>1545</ele>
        <time>2021-08-11T10:13:19.458Z</time>
      </trkpt>
      <trkpt lat="46.868" lon="8.51247">
        <ele>1545</ele>
        <time>2021-08-11T10:13:20.459Z</time>
      </trkpt>
      <trkpt lat="46.86798" lon="8.51247">
        <ele>1545</ele>
        <time>2021-08-11T10:13:21.459Z</time>
      </trkpt>
      <trkpt lat="46.86797" lon="8.51246">
        <ele>1545</ele>
        <time>2021-08-11T10:13:22.458Z</time>
      </trkpt>
      <trkpt lat="46.86796" lon="8.51246">
        <ele>1545</ele>
        <time>2021-08-11T10:13:23.459Z</time>
      </trkpt>
      <trkpt lat="46.86796" lon="8.51245">
        <ele>1544</ele>
        <time>2021-08-11T10:13:24.458Z</time>
      </trkpt>
      <trkpt lat="46.86795" lon="8.51245">
        <ele>1544</ele>
        <time>2021-08-11T10:13:25.459Z</time>
      </trkpt>
      <trkpt lat="46.86794" lon="8.51244">
        <ele>1543</ele>
        <time>2021-08-11T10:13:26.459Z</time>
      </trkpt>
      <trkpt lat="46.86792" lon="8.51242">
        <ele>1543</ele>
        <time>2021-08-11T10:13:27.458Z</time>
      </trkpt>
      <trkpt lat="46.86791" lon="8.51242">
        <ele>1542</ele>
        <time>2021-08-11T10:13:28.459Z</time>
      </trkpt>
      <trkpt lat="46.8679" lon="8.51241">
        <ele>1542</ele>
        <time>2021-08-11T10:13:29.459Z</time>
      </trkpt>
      <trkpt lat="46.86789" lon="8.5124">
        <ele>1541</ele>
        <time>2021-08-11T10:13:30.459Z</time>
      </trkpt>
      <trkpt lat="46.86787" lon="8.51238">
        <ele>1541</ele>
        <time>2021-08-11T10:13:31.459Z</time>
      </trkpt>
      <trkpt lat="46.86786" lon="8.51238">
        <ele>1540</ele>
        <time>2021-08-11T10:13:32.459Z</time>
      </trkpt>
      <trkpt lat="46.86786" lon="8.51237">
        <ele>1539</ele>
        <time>2021-08-11T10:13:33.458Z</time>
      </trkpt>
      <trkpt lat="46.86785" lon="8.51238">
        <ele>1538</ele>
        <time>2021-08-11T10:13:34.459Z</time>
      </trkpt>
      <trkpt lat="46.86785" lon="8.51238">
        <ele>1537</ele>
        <time>2021-08-11T10:13:35.458Z</time>
      </trkpt>
      <trkpt lat="46.86783" lon="8.51237">
        <ele>1536</ele>
        <time>2021-08-11T10:13:36.459Z</time>
      </trkpt>
      <trkpt lat="46.86781" lon="8.51235">
        <ele>1535</ele>
        <time>2021-08-11T10:13:37.459Z</time>
      </trkpt>
      <trkpt lat="46.8678" lon="8.51233">
        <ele>1534</ele>
        <time>2021-08-11T10:13:38.459Z</time>
      </trkpt>
      <trkpt lat="46.86779" lon="8.51231">
        <ele>1533</ele>
        <time>2021-08-11T10:13:39.459Z</time>
      </trkpt>
      <trkpt lat="46.86777" lon="8.51229">
        <ele>1533</ele>
        <time>2021-08-11T10:13:40.459Z</time>
      </trkpt>
      <trkpt lat="46.86776" lon="8.51228">
        <ele>1532</ele>
        <time>2021-08-11T10:13:41.459Z</time>
      </trkpt>
      <trkpt lat="46.86775" lon="8.51227">
        <ele>1531</ele>
        <time>2021-08-11T10:13:42.459Z</time>
      </trkpt>
      <trkpt lat="46.86774" lon="8.51227">
        <ele>1531</ele>
        <time>2021-08-11T10:13:43.458Z</time>
      </trkpt>
      <trkpt lat="46.86773" lon="8.51226">
        <ele>1531</ele>
        <time>2021-08-11T10:13:44.458Z</time>
      </trkpt>
      <trkpt lat="46.86773" lon="8.51226">
        <ele>1530</ele>
        <time>2021-08-11T10:13:45.459Z</time>
      </trkpt>
      <trkpt lat="46.86772" lon="8.51226">
        <ele>1530</ele>
        <time>2021-08-11T10:13:46.459Z</time>
      </trkpt>
      <trkpt lat="46.86771" lon="8.51226">
        <ele>1530</ele>
        <time>2021-08-11T10:13:47.459Z</time>
      </trkpt>
      <trkpt lat="46.8677" lon="8.51226">
        <ele>1530</ele>
        <time>2021-08-11T10:13:48.459Z</time>
      </trkpt>
      <trkpt lat="46.86769" lon="8.51226">
        <ele>1530</ele>
        <time>2021-08-11T10:13:49.459Z</time>
      </trkpt>
      <trkpt lat="46.86769" lon="8.51226">
        <ele>1530</ele>
        <time>2021-08-11T10:13:50.459Z</time>
      </trkpt>
      <trkpt lat="46.86768" lon="8.51226">
        <ele>1530</ele>
        <time>2021-08-11T10:13:51.459Z</time>
      </trkpt>
      <trkpt lat="46.86767" lon="8.51226">
        <ele>1531</ele>
        <time>2021-08-11T10:13:52.459Z</time>
      </trkpt>
      <trkpt lat="46.86766" lon="8.51225">
        <ele>1531</ele>
        <time>2021-08-11T10:13:53.459Z</time>
      </trkpt>
      <trkpt lat="46.86765" lon="8.51224">
        <ele>1530</ele>
        <time>2021-08-11T10:13:54.459Z</time>
      </trkpt>
      <trkpt lat="46.86764" lon="8.51224">
        <ele>1530</ele>
        <time>2021-08-11T10:13:55.459Z</time>
      </trkpt>
      <trkpt lat="46.86763" lon="8.51223">
        <ele>1529</ele>
        <time>2021-08-11T10:13:56.458Z</time>
      </trkpt>
      <trkpt lat="46.86761" lon="8.51221">
        <ele>1529</ele>
        <time>2021-08-11T10:13:57.459Z</time>
      </trkpt>
      <trkpt lat="46.8676" lon="8.5122">
        <ele>1528</ele>
        <time>2021-08-11T10:13:58.458Z</time>
      </trkpt>
      <trkpt lat="46.86759" lon="8.5122">
        <ele>1528</ele>
        <time>2021-08-11T10:13:59.459Z</time>
      </trkpt>
      <trkpt lat="46.86757" lon="8.5122">
        <ele>1527</ele>
        <time>2021-08-11T10:14:00.458Z</time>
      </trkpt>
      <trkpt lat="46.86756" lon="8.51219">
        <ele>1526</ele>
        <time>2021-08-11T10:14:01.459Z</time>
      </trkpt>
      <trkpt lat="46.86755" lon="8.51219">
        <ele>1525</ele>
        <time>2021-08-11T10:14:02.459Z</time>
      </trkpt>
      <trkpt lat="46.86754" lon="8.51219">
        <ele>1524</ele>
        <time>2021-08-11T10:14:03.459Z</time>
      </trkpt>
      <trkpt lat="46.86753" lon="8.51217">
        <ele>1524</ele>
        <time>2021-08-11T10:14:04.458Z</time>
      </trkpt>
      <trkpt lat="46.86752" lon="8.51216">
        <ele>1524</ele>
        <time>2021-08-11T10:14:05.458Z</time>
      </trkpt>
      <trkpt lat="46.86751" lon="8.51216">
        <ele>1523</ele>
        <time>2021-08-11T10:14:06.459Z</time>
      </trkpt>
      <trkpt lat="46.86749" lon="8.51214">
        <ele>1523</ele>
        <time>2021-08-11T10:14:07.459Z</time>
      </trkpt>
      <trkpt lat="46.86748" lon="8.51213">
        <ele>1523</ele>
        <time>2021-08-11T10:14:08.459Z</time>
      </trkpt>
      <trkpt lat="46.86747" lon="8.51212">
        <ele>1523</ele>
        <time>2021-08-11T10:14:09.459Z</time>
      </trkpt>
      <trkpt lat="46.86746" lon="8.51211">
        <ele>1524</ele>
        <time>2021-08-11T10:14:10.458Z</time>
      </trkpt>
      <trkpt lat="46.86745" lon="8.51211">
        <ele>1524</ele>
        <time>2021-08-11T10:14:11.459Z</time>
      </trkpt>
      <trkpt lat="46.86744" lon="8.51211">
        <ele>1523</ele>
        <time>2021-08-11T10:14:12.459Z</time>
      </trkpt>
      <trkpt lat="46.86743" lon="8.51212">
        <ele>1522</ele>
        <time>2021-08-11T10:14:13.458Z</time>
      </trkpt>
      <trkpt lat="46.86743" lon="8.51212">
        <ele>1521</ele>
        <time>2021-08-11T10:14:14.459Z</time>
      </trkpt>
      <trkpt lat="46.86742" lon="8.51212">
        <ele>1520</ele>
        <time>2021-08-11T10:14:15.459Z</time>
      </trkpt>
      <trkpt lat="46.86741" lon="8.51212">
        <ele>1520</ele>
        <time>2021-08-11T10:14:16.459Z</time>
      </trkpt>
      <trkpt lat="46.8674" lon="8.51212">
        <ele>1519</ele>
        <time>2021-08-11T10:14:17.459Z</time>
      </trkpt>
      <trkpt lat="46.86739" lon="8.51212">
        <ele>1518</ele>
        <time>2021-08-11T10:14:18.458Z</time>
      </trkpt>
      <trkpt lat="46.86738" lon="8.51211">
        <ele>1517</ele>
        <time>2021-08-11T10:14:19.459Z</time>
      </trkpt>
      <trkpt lat="46.86737" lon="8.5121">
        <ele>1517</ele>
        <time>2021-08-11T10:14:20.459Z</time>
      </trkpt>
      <trkpt lat="46.86736" lon="8.51209">
        <ele>1516</ele>
        <time>2021-08-11T10:14:21.459Z</time>
      </trkpt>
      <trkpt lat="46.86736" lon="8.5121">
        <ele>1515</ele>
        <time>2021-08-11T10:14:22.459Z</time>
      </trkpt>
      <trkpt lat="46.86735" lon="8.51209">
        <ele>1514</ele>
        <time>2021-08-11T10:14:23.459Z</time>
      </trkpt>
      <trkpt lat="46.86735" lon="8.51208">
        <ele>1512</ele>
        <time>2021-08-11T10:14:24.459Z</time>
      </trkpt>
      <trkpt lat="46.86734" lon="8.51206">
        <ele>1511</ele>
        <time>2021-08-11T10:14:25.458Z</time>
      </trkpt>
      <trkpt lat="46.86733" lon="8.51205">
        <ele>1510</ele>
        <time>2021-08-11T10:14:26.459Z</time>
      </trkpt>
      <trkpt lat="46.86732" lon="8.51202">
        <ele>1509</ele>
        <time>2021-08-11T10:14:27.458Z</time>
      </trkpt>
      <trkpt lat="46.86732" lon="8.512">
        <ele>1508</ele>
        <time>2021-08-11T10:14:28.459Z</time>
      </trkpt>
      <trkpt lat="46.86731" lon="8.51199">
        <ele>1507</ele>
        <time>2021-08-11T10:14:29.458Z</time>
      </trkpt>
      <trkpt lat="46.86731" lon="8.51197">
        <ele>1507</ele>
        <time>2021-08-11T10:14:30.459Z</time>
      </trkpt>
      <trkpt lat="46.86731" lon="8.51195">
        <ele>1506</ele>
        <time>2021-08-11T10:14:31.459Z</time>
      </trkpt>
      <trkpt lat="46.86731" lon="8.51194">
        <ele>1506</ele>
        <time>2021-08-11T10:14:32.459Z</time>
      </trkpt>
      <trkpt lat="46.86732" lon="8.51192">
        <ele>1505</ele>
        <time>2021-08-11T10:14:33.459Z</time>
      </trkpt>
      <trkpt lat="46.86732" lon="8.51191">
        <ele>1505</ele>
        <time>2021-08-11T10:14:34.459Z</time>
      </trkpt>
      <trkpt lat="46.86733" lon="8.51191">
        <ele>1505</ele>
        <time>2021-08-11T10:14:35.459Z</time>
      </trkpt>
      <trkpt lat="46.86734" lon="8.51191">
        <ele>1504</ele>
        <time>2021-08-11T10:14:36.459Z</time>
      </trkpt>
      <trkpt lat="46.86735" lon="8.5119">
        <ele>1503</ele>
        <time>2021-08-11T10:14:37.459Z</time>
      </trkpt>
      <trkpt lat="46.86736" lon="8.51189">
        <ele>1503</ele>
        <time>2021-08-11T10:14:38.458Z</time>
      </trkpt>
      <trkpt lat="46.86736" lon="8.51187">
        <ele>1502</ele>
        <time>2021-08-11T10:14:39.459Z</time>
      </trkpt>
      <trkpt lat="46.86737" lon="8.51186">
        <ele>1502</ele>
        <time>2021-08-11T10:14:40.459Z</time>
      </trkpt>
      <trkpt lat="46.86737" lon="8.51184">
        <ele>1501</ele>
        <time>2021-08-11T10:14:41.459Z</time>
      </trkpt>
      <trkpt lat="46.86737" lon="8.51181">
        <ele>1501</ele>
        <time>2021-08-11T10:14:42.459Z</time>
      </trkpt>
      <trkpt lat="46.86737" lon="8.51179">
        <ele>1500</ele>
        <time>2021-08-11T10:14:43.459Z</time>
      </trkpt>
      <trkpt lat="46.86737" lon="8.51177">
        <ele>1500</ele>
        <time>2021-08-11T10:14:44.459Z</time>
      </trkpt>
      <trkpt lat="46.86738" lon="8.51175">
        <ele>1500</ele>
        <time>2021-08-11T10:14:45.459Z</time>
      </trkpt>
      <trkpt lat="46.86738" lon="8.51173">
        <ele>1500</ele>
        <time>2021-08-11T10:14:46.458Z</time>
      </trkpt>
      <trkpt lat="46.86739" lon="8.51172">
        <ele>1500</ele>
        <time>2021-08-11T10:14:47.458Z</time>
      </trkpt>
      <trkpt lat="46.86739" lon="8.5117">
        <ele>1500</ele>
        <time>2021-08-11T10:14:48.458Z</time>
      </trkpt>
      <trkpt lat="46.86739" lon="8.51168">
        <ele>1499</ele>
        <time>2021-08-11T10:14:49.458Z</time>
      </trkpt>
      <trkpt lat="46.8674" lon="8.51167">
        <ele>1499</ele>
        <time>2021-08-11T10:14:50.459Z</time>
      </trkpt>
      <trkpt lat="46.8674" lon="8.51165">
        <ele>1499</ele>
        <time>2021-08-11T10:14:51.459Z</time>
      </trkpt>
      <trkpt lat="46.8674" lon="8.51164">
        <ele>1499</ele>
        <time>2021-08-11T10:14:52.459Z</time>
      </trkpt>
      <trkpt lat="46.86741" lon="8.51163">
        <ele>1498</ele>
        <time>2021-08-11T10:14:53.459Z</time>
      </trkpt>
      <trkpt lat="46.86742" lon="8.51161">
        <ele>1498</ele>
        <time>2021-08-11T10:14:54.459Z</time>
      </trkpt>
      <trkpt lat="46.86742" lon="8.5116">
        <ele>1498</ele>
        <time>2021-08-11T10:14:55.459Z</time>
      </trkpt>
      <trkpt lat="46.86743" lon="8.51158">
        <ele>1498</ele>
        <time>2021-08-11T10:14:56.459Z</time>
      </trkpt>
      <trkpt lat="46.86743" lon="8.51156">
        <ele>1498</ele>
        <time>2021-08-11T10:14:57.458Z</time>
      </trkpt>
      <trkpt lat="46.86743" lon="8.51155">
        <ele>1498</ele>
        <time>2021-08-11T10:14:58.459Z</time>
      </trkpt>
      <trkpt lat="46.86743" lon="8.51153">
        <ele>1498</ele>
        <time>2021-08-11T10:14:59.458Z</time>
      </trkpt>
      <trkpt lat="46.86743" lon="8.51151">
        <ele>1498</ele>
        <time>2021-08-11T10:15:00.459Z</time>
      </trkpt>
      <trkpt lat="46.86743" lon="8.5115">
        <ele>1499</ele>
        <time>2021-08-11T10:15:01.459Z</time>
      </trkpt>
      <trkpt lat="46.86743" lon="8.51149">
        <ele>1499</ele>
        <time>2021-08-11T10:15:02.458Z</time>
      </trkpt>
      <trkpt lat="46.86744" lon="8.51148">
        <ele>1500</ele>
        <time>2021-08-11T10:15:03.458Z</time>
      </trkpt>
      <trkpt lat="46.86744" lon="8.51147">
        <ele>1500</ele>
        <time>2021-08-11T10:15:04.458Z</time>
      </trkpt>
      <trkpt lat="46.86745" lon="8.51145">
        <ele>1499</ele>
        <time>2021-08-11T10:15:05.459Z</time>
      </trkpt>
      <trkpt lat="46.86745" lon="8.51145">
        <ele>1498</ele>
        <time>2021-08-11T10:15:06.459Z</time>
      </trkpt>
      <trkpt lat="46.86746" lon="8.51144">
        <ele>1498</ele>
        <time>2021-08-11T10:15:07.459Z</time>
      </trkpt>
      <trkpt lat="46.86747" lon="8.51143">
        <ele>1497</ele>
        <time>2021-08-11T10:15:08.459Z</time>
      </trkpt>
      <trkpt lat="46.86748" lon="8.51142">
        <ele>1497</ele>
        <time>2021-08-11T10:15:09.459Z</time>
      </trkpt>
      <trkpt lat="46.86749" lon="8.51142">
        <ele>1496</ele>
        <time>2021-08-11T10:15:10.458Z</time>
      </trkpt>
      <trkpt lat="46.8675" lon="8.51141">
        <ele>1495</ele>
        <time>2021-08-11T10:15:11.459Z</time>
      </trkpt>
      <trkpt lat="46.8675" lon="8.5114">
        <ele>1494</ele>
        <time>2021-08-11T10:15:12.459Z</time>
      </trkpt>
      <trkpt lat="46.86751" lon="8.5114">
        <ele>1493</ele>
        <time>2021-08-11T10:15:13.458Z</time>
      </trkpt>
      <trkpt lat="46.86752" lon="8.51138">
        <ele>1493</ele>
        <time>2021-08-11T10:15:14.459Z</time>
      </trkpt>
      <trkpt lat="46.86752" lon="8.51137">
        <ele>1493</ele>
        <time>2021-08-11T10:15:15.458Z</time>
      </trkpt>
      <trkpt lat="46.86752" lon="8.51136">
        <ele>1492</ele>
        <time>2021-08-11T10:15:16.459Z</time>
      </trkpt>
      <trkpt lat="46.86752" lon="8.51134">
        <ele>1492</ele>
        <time>2021-08-11T10:15:17.459Z</time>
      </trkpt>
      <trkpt lat="46.86753" lon="8.51132">
        <ele>1492</ele>
        <time>2021-08-11T10:15:18.459Z</time>
      </trkpt>
      <trkpt lat="46.86753" lon="8.51131">
        <ele>1492</ele>
        <time>2021-08-11T10:15:19.458Z</time>
      </trkpt>
      <trkpt lat="46.86752" lon="8.51129">
        <ele>1492</ele>
        <time>2021-08-11T10:15:20.459Z</time>
      </trkpt>
      <trkpt lat="46.86753" lon="8.51128">
        <ele>1491</ele>
        <time>2021-08-11T10:15:21.458Z</time>
      </trkpt>
      <trkpt lat="46.86752" lon="8.51126">
        <ele>1491</ele>
        <time>2021-08-11T10:15:22.459Z</time>
      </trkpt>
      <trkpt lat="46.86752" lon="8.51124">
        <ele>1491</ele>
        <time>2021-08-11T10:15:23.458Z</time>
      </trkpt>
      <trkpt lat="46.86752" lon="8.51122">
        <ele>1491</ele>
        <time>2021-08-11T10:15:24.459Z</time>
      </trkpt>
      <trkpt lat="46.86751" lon="8.5112">
        <ele>1491</ele>
        <time>2021-08-11T10:15:25.458Z</time>
      </trkpt>
      <trkpt lat="46.86751" lon="8.51119">
        <ele>1491</ele>
        <time>2021-08-11T10:15:26.458Z</time>
      </trkpt>
      <trkpt lat="46.8675" lon="8.51117">
        <ele>1491</ele>
        <time>2021-08-11T10:15:27.459Z</time>
      </trkpt>
      <trkpt lat="46.86749" lon="8.51116">
        <ele>1491</ele>
        <time>2021-08-11T10:15:28.459Z</time>
      </trkpt>
      <trkpt lat="46.86748" lon="8.51114">
        <ele>1491</ele>
        <time>2021-08-11T10:15:29.459Z</time>
      </trkpt>
      <trkpt lat="46.86747" lon="8.51112">
        <ele>1491</ele>
        <time>2021-08-11T10:15:30.459Z</time>
      </trkpt>
      <trkpt lat="46.86747" lon="8.51111">
        <ele>1491</ele>
        <time>2021-08-11T10:15:31.459Z</time>
      </trkpt>
      <trkpt lat="46.86746" lon="8.5111">
        <ele>1491</ele>
        <time>2021-08-11T10:15:32.459Z</time>
      </trkpt>
      <trkpt lat="46.86745" lon="8.51108">
        <ele>1492</ele>
        <time>2021-08-11T10:15:33.459Z</time>
      </trkpt>
      <trkpt lat="46.86744" lon="8.51107">
        <ele>1492</ele>
        <time>2021-08-11T10:15:34.458Z</time>
      </trkpt>
      <trkpt lat="46.86743" lon="8.51107">
        <ele>1492</ele>
        <time>2021-08-11T10:15:35.459Z</time>
      </trkpt>
      <trkpt lat="46.86743" lon="8.51106">
        <ele>1492</ele>
        <time>2021-08-11T10:15:36.459Z</time>
      </trkpt>
      <trkpt lat="46.86742" lon="8.51106">
        <ele>1491</ele>
        <time>2021-08-11T10:15:37.459Z</time>
      </trkpt>
      <trkpt lat="46.86741" lon="8.51105">
        <ele>1491</ele>
        <time>2021-08-11T10:15:38.459Z</time>
      </trkpt>
      <trkpt lat="46.8674" lon="8.51104">
        <ele>1491</ele>
        <time>2021-08-11T10:15:39.459Z</time>
      </trkpt>
      <trkpt lat="46.8674" lon="8.51103">
        <ele>1491</ele>
        <time>2021-08-11T10:15:40.459Z</time>
      </trkpt>
      <trkpt lat="46.86739" lon="8.51102">
        <ele>1491</ele>
        <time>2021-08-11T10:15:41.459Z</time>
      </trkpt>
      <trkpt lat="46.86739" lon="8.51101">
        <ele>1491</ele>
        <time>2021-08-11T10:15:42.458Z</time>
      </trkpt>
      <trkpt lat="46.86738" lon="8.51099">
        <ele>1491</ele>
        <time>2021-08-11T10:15:43.458Z</time>
      </trkpt>
      <trkpt lat="46.86738" lon="8.51098">
        <ele>1490</ele>
        <time>2021-08-11T10:15:44.458Z</time>
      </trkpt>
      <trkpt lat="46.86738" lon="8.51096">
        <ele>1490</ele>
        <time>2021-08-11T10:15:45.459Z</time>
      </trkpt>
      <trkpt lat="46.86738" lon="8.51095">
        <ele>1490</ele>
        <time>2021-08-11T10:15:46.459Z</time>
      </trkpt>
      <trkpt lat="46.86738" lon="8.51093">
        <ele>1489</ele>
        <time>2021-08-11T10:15:47.459Z</time>
      </trkpt>
      <trkpt lat="46.86739" lon="8.51093">
        <ele>1489</ele>
        <time>2021-08-11T10:15:48.458Z</time>
      </trkpt>
      <trkpt lat="46.8674" lon="8.51092">
        <ele>1489</ele>
        <time>2021-08-11T10:15:49.458Z</time>
      </trkpt>
      <trkpt lat="46.8674" lon="8.5109">
        <ele>1489</ele>
        <time>2021-08-11T10:15:50.459Z</time>
      </trkpt>
      <trkpt lat="46.86739" lon="8.51088">
        <ele>1489</ele>
        <time>2021-08-11T10:15:51.458Z</time>
      </trkpt>
      <trkpt lat="46.86739" lon="8.51087">
        <ele>1489</ele>
        <time>2021-08-11T10:15:52.459Z</time>
      </trkpt>
      <trkpt lat="46.86739" lon="8.51085">
        <ele>1489</ele>
        <time>2021-08-11T10:15:53.458Z</time>
      </trkpt>
      <trkpt lat="46.86739" lon="8.51083">
        <ele>1489</ele>
        <time>2021-08-11T10:15:54.458Z</time>
      </trkpt>
      <trkpt lat="46.86739" lon="8.51082">
        <ele>1489</ele>
        <time>2021-08-11T10:15:55.459Z</time>
      </trkpt>
      <trkpt lat="46.86739" lon="8.5108">
        <ele>1489</ele>
        <time>2021-08-11T10:15:56.459Z</time>
      </trkpt>
      <trkpt lat="46.86739" lon="8.51079">
        <ele>1489</ele>
        <time>2021-08-11T10:15:57.458Z</time>
      </trkpt>
      <trkpt lat="46.8674" lon="8.51077">
        <ele>1488</ele>
        <time>2021-08-11T10:15:58.458Z</time>
      </trkpt>
      <trkpt lat="46.8674" lon="8.51075">
        <ele>1488</ele>
        <time>2021-08-11T10:15:59.458Z</time>
      </trkpt>
      <trkpt lat="46.86741" lon="8.51074">
        <ele>1488</ele>
        <time>2021-08-11T10:16:00.459Z</time>
      </trkpt>
      <trkpt lat="46.86741" lon="8.51072">
        <ele>1488</ele>
        <time>2021-08-11T10:16:01.459Z</time>
      </trkpt>
      <trkpt lat="46.86741" lon="8.51071">
        <ele>1487</ele>
        <time>2021-08-11T10:16:02.459Z</time>
      </trkpt>
      <trkpt lat="46.86741" lon="8.51069">
        <ele>1487</ele>
        <time>2021-08-11T10:16:03.458Z</time>
      </trkpt>
      <trkpt lat="46.86741" lon="8.51068">
        <ele>1487</ele>
        <time>2021-08-11T10:16:04.458Z</time>
      </trkpt>
      <trkpt lat="46.86742" lon="8.51067">
        <ele>1486</ele>
        <time>2021-08-11T10:16:05.459Z</time>
      </trkpt>
      <trkpt lat="46.86742" lon="8.51065">
        <ele>1486</ele>
        <time>2021-08-11T10:16:06.458Z</time>
      </trkpt>
      <trkpt lat="46.86743" lon="8.51065">
        <ele>1485</ele>
        <time>2021-08-11T10:16:07.458Z</time>
      </trkpt>
      <trkpt lat="46.86743" lon="8.51065">
        <ele>1485</ele>
        <time>2021-08-11T10:16:08.458Z</time>
      </trkpt>
      <trkpt lat="46.86743" lon="8.51064">
        <ele>1484</ele>
        <time>2021-08-11T10:16:09.458Z</time>
      </trkpt>
      <trkpt lat="46.86743" lon="8.51063">
        <ele>1484</ele>
        <time>2021-08-11T10:16:10.458Z</time>
      </trkpt>
      <trkpt lat="46.86743" lon="8.51062">
        <ele>1483</ele>
        <time>2021-08-11T10:16:11.458Z</time>
      </trkpt>
      <trkpt lat="46.86744" lon="8.5106">
        <ele>1482</ele>
        <time>2021-08-11T10:16:12.458Z</time>
      </trkpt>
      <trkpt lat="46.86744" lon="8.51059">
        <ele>1481</ele>
        <time>2021-08-11T10:16:13.458Z</time>
      </trkpt>
      <trkpt lat="46.86745" lon="8.51058">
        <ele>1480</ele>
        <time>2021-08-11T10:16:14.458Z</time>
      </trkpt>
      <trkpt lat="46.86745" lon="8.51056">
        <ele>1479</ele>
        <time>2021-08-11T10:16:15.459Z</time>
      </trkpt>
      <trkpt lat="46.86746" lon="8.51054">
        <ele>1479</ele>
        <time>2021-08-11T10:16:16.459Z</time>
      </trkpt>
      <trkpt lat="46.86746" lon="8.51052">
        <ele>1479</ele>
        <time>2021-08-11T10:16:17.458Z</time>
      </trkpt>
      <trkpt lat="46.86746" lon="8.51051">
        <ele>1478</ele>
        <time>2021-08-11T10:16:18.458Z</time>
      </trkpt>
      <trkpt lat="46.86746" lon="8.5105">
        <ele>1478</ele>
        <time>2021-08-11T10:16:19.458Z</time>
      </trkpt>
      <trkpt lat="46.86746" lon="8.51048">
        <ele>1478</ele>
        <time>2021-08-11T10:16:20.458Z</time>
      </trkpt>
      <trkpt lat="46.86745" lon="8.51047">
        <ele>1478</ele>
        <time>2021-08-11T10:16:21.458Z</time>
      </trkpt>
      <trkpt lat="46.86745" lon="8.51046">
        <ele>1478</ele>
        <time>2021-08-11T10:16:22.458Z</time>
      </trkpt>
      <trkpt lat="46.86745" lon="8.51045">
        <ele>1478</ele>
        <time>2021-08-11T10:16:23.458Z</time>
      </trkpt>
      <trkpt lat="46.86746" lon="8.51044">
        <ele>1478</ele>
        <time>2021-08-11T10:16:24.459Z</time>
      </trkpt>
      <trkpt lat="46.86746" lon="8.51043">
        <ele>1478</ele>
        <time>2021-08-11T10:16:25.458Z</time>
      </trkpt>
      <trkpt lat="46.86747" lon="8.51041">
        <ele>1478</ele>
        <time>2021-08-11T10:16:26.458Z</time>
      </trkpt>
      <trkpt lat="46.86748" lon="8.5104">
        <ele>1478</ele>
        <time>2021-08-11T10:16:27.458Z</time>
      </trkpt>
      <trkpt lat="46.86749" lon="8.51038">
        <ele>1478</ele>
        <time>2021-08-11T10:16:28.459Z</time>
      </trkpt>
      <trkpt lat="46.86749" lon="8.51037">
        <ele>1479</ele>
        <time>2021-08-11T10:16:29.459Z</time>
      </trkpt>
      <trkpt lat="46.8675" lon="8.51035">
        <ele>1479</ele>
        <time>2021-08-11T10:16:30.459Z</time>
      </trkpt>
      <trkpt lat="46.8675" lon="8.51033">
        <ele>1479</ele>
        <time>2021-08-11T10:16:31.459Z</time>
      </trkpt>
      <trkpt lat="46.86751" lon="8.51032">
        <ele>1479</ele>
        <time>2021-08-11T10:16:32.458Z</time>
      </trkpt>
      <trkpt lat="46.86751" lon="8.5103">
        <ele>1479</ele>
        <time>2021-08-11T10:16:33.459Z</time>
      </trkpt>
      <trkpt lat="46.86751" lon="8.51029">
        <ele>1479</ele>
        <time>2021-08-11T10:16:34.459Z</time>
      </trkpt>
      <trkpt lat="46.86751" lon="8.51027">
        <ele>1479</ele>
        <time>2021-08-11T10:16:35.459Z</time>
      </trkpt>
      <trkpt lat="46.86751" lon="8.51025">
        <ele>1480</ele>
        <time>2021-08-11T10:16:36.458Z</time>
      </trkpt>
      <trkpt lat="46.86751" lon="8.51024">
        <ele>1480</ele>
        <time>2021-08-11T10:16:37.459Z</time>
      </trkpt>
      <trkpt lat="46.86751" lon="8.51023">
        <ele>1480</ele>
        <time>2021-08-11T10:16:38.459Z</time>
      </trkpt>
      <trkpt lat="46.86749" lon="8.51025">
        <ele>1481</ele>
        <time>2021-08-11T10:16:39.459Z</time>
      </trkpt>
      <trkpt lat="46.86749" lon="8.51025">
        <ele>1481</ele>
        <time>2021-08-11T10:16:40.459Z</time>
      </trkpt>
      <trkpt lat="46.86749" lon="8.51026">
        <ele>1481</ele>
        <time>2021-08-11T10:16:41.459Z</time>
      </trkpt>
      <trkpt lat="46.86748" lon="8.51027">
        <ele>1481</ele>
        <time>2021-08-11T10:16:42.460Z</time>
      </trkpt>
      <trkpt lat="46.86748" lon="8.51027">
        <ele>1487</ele>
        <time>2021-08-11T10:16:43.460Z</time>
      </trkpt>
      <trkpt lat="46.86747" lon="8.51027">
        <ele>1487</ele>
        <time>2021-08-11T10:16:44.460Z</time>
      </trkpt>
      <trkpt lat="46.86748" lon="8.51027">
        <ele>1487</ele>
        <time>2021-08-11T10:16:45.459Z</time>
      </trkpt>
      <trkpt lat="46.86748" lon="8.51027">
        <ele>1487</ele>
        <time>2021-08-11T10:16:46.459Z</time>
      </trkpt>
      <trkpt lat="46.86748" lon="8.51027">
        <ele>1487</ele>
        <time>2021-08-11T10:16:47.460Z</time>
      </trkpt>
      <trkpt lat="46.86748" lon="8.51028">
        <ele>1487</ele>
        <time>2021-08-11T10:16:48.459Z</time>
      </trkpt>
      <trkpt lat="46.86748" lon="8.51029">
        <ele>1488</ele>
        <time>2021-08-11T10:16:49.460Z</time>
      </trkpt>
      <trkpt lat="46.86749" lon="8.51026">
        <ele>1486</ele>
        <time>2021-08-11T10:16:50.461Z</time>
      </trkpt>
      <trkpt lat="46.86749" lon="8.51026">
        <ele>1486</ele>
        <time>2021-08-11T10:16:51.460Z</time>
      </trkpt>
      <trkpt lat="46.8675" lon="8.51026">
        <ele>1486</ele>
        <time>2021-08-11T10:16:52.460Z</time>
      </trkpt>
      <trkpt lat="46.86751" lon="8.51026">
        <ele>1485</ele>
        <time>2021-08-11T10:16:53.461Z</time>
      </trkpt>
      <trkpt lat="46.86751" lon="8.51025">
        <ele>1486</ele>
        <time>2021-08-11T10:16:54.461Z</time>
      </trkpt>
      <trkpt lat="46.86752" lon="8.51024">
        <ele>1486</ele>
        <time>2021-08-11T10:16:55.460Z</time>
      </trkpt>
      <trkpt lat="46.86752" lon="8.51022">
        <ele>1486</ele>
        <time>2021-08-11T10:16:56.460Z</time>
      </trkpt>
      <trkpt lat="46.86753" lon="8.5102">
        <ele>1485</ele>
        <time>2021-08-11T10:16:57.460Z</time>
      </trkpt>
      <trkpt lat="46.86754" lon="8.51019">
        <ele>1485</ele>
        <time>2021-08-11T10:16:58.461Z</time>
      </trkpt>
      <trkpt lat="46.86754" lon="8.51018">
        <ele>1485</ele>
        <time>2021-08-11T10:16:59.460Z</time>
      </trkpt>
      <trkpt lat="46.86754" lon="8.51016">
        <ele>1485</ele>
        <time>2021-08-11T10:17:00.460Z</time>
      </trkpt>
      <trkpt lat="46.86754" lon="8.51015">
        <ele>1485</ele>
        <time>2021-08-11T10:17:01.460Z</time>
      </trkpt>
      <trkpt lat="46.86754" lon="8.51014">
        <ele>1486</ele>
        <time>2021-08-11T10:17:02.461Z</time>
      </trkpt>
      <trkpt lat="46.86755" lon="8.51014">
        <ele>1486</ele>
        <time>2021-08-11T10:17:03.461Z</time>
      </trkpt>
      <trkpt lat="46.86755" lon="8.51014">
        <ele>1486</ele>
        <time>2021-08-11T10:17:04.461Z</time>
      </trkpt>
      <trkpt lat="46.86755" lon="8.51014">
        <ele>1486</ele>
        <time>2021-08-11T10:17:05.460Z</time>
      </trkpt>
      <trkpt lat="46.86755" lon="8.51015">
        <ele>1486</ele>
        <time>2021-08-11T10:17:06.461Z</time>
      </trkpt>
      <trkpt lat="46.86755" lon="8.51016">
        <ele>1486</ele>
        <time>2021-08-11T10:17:07.460Z</time>
      </trkpt>
      <trkpt lat="46.86754" lon="8.51015">
        <ele>1487</ele>
        <time>2021-08-11T10:17:08.461Z</time>
      </trkpt>
      <trkpt lat="46.86754" lon="8.51015">
        <ele>1488</ele>
        <time>2021-08-11T10:17:09.460Z</time>
      </trkpt>
      <trkpt lat="46.86754" lon="8.51015">
        <ele>1488</ele>
        <time>2021-08-11T10:17:10.460Z</time>
      </trkpt>
      <trkpt lat="46.86754" lon="8.51015">
        <ele>1488</ele>
        <time>2021-08-11T10:17:11.460Z</time>
      </trkpt>
      <trkpt lat="46.86754" lon="8.51015">
        <ele>1488</ele>
        <time>2021-08-11T10:17:12.460Z</time>
      </trkpt>
      <trkpt lat="46.86755" lon="8.51016">
        <ele>1488</ele>
        <time>2021-08-11T10:17:13.460Z</time>
      </trkpt>
      <trkpt lat="46.86756" lon="8.51012">
        <ele>1486</ele>
        <time>2021-08-11T10:17:14.461Z</time>
      </trkpt>
      <trkpt lat="46.86756" lon="8.5101">
        <ele>1485</ele>
        <time>2021-08-11T10:17:15.460Z</time>
      </trkpt>
      <trkpt lat="46.86756" lon="8.5101">
        <ele>1484</ele>
        <time>2021-08-11T10:17:16.460Z</time>
      </trkpt>
      <trkpt lat="46.86756" lon="8.5101">
        <ele>1484</ele>
        <time>2021-08-11T10:17:17.461Z</time>
      </trkpt>
      <trkpt lat="46.86757" lon="8.5101">
        <ele>1483</ele>
        <time>2021-08-11T10:17:18.460Z</time>
      </trkpt>
      <trkpt lat="46.86757" lon="8.5101">
        <ele>1483</ele>
        <time>2021-08-11T10:17:19.460Z</time>
      </trkpt>
      <trkpt lat="46.86757" lon="8.51009">
        <ele>1482</ele>
        <time>2021-08-11T10:17:20.460Z</time>
      </trkpt>
      <trkpt lat="46.86758" lon="8.51009">
        <ele>1482</ele>
        <time>2021-08-11T10:17:21.461Z</time>
      </trkpt>
      <trkpt lat="46.86758" lon="8.51009">
        <ele>1482</ele>
        <time>2021-08-11T10:17:22.461Z</time>
      </trkpt>
      <trkpt lat="46.86758" lon="8.5101">
        <ele>1482</ele>
        <time>2021-08-11T10:17:23.460Z</time>
      </trkpt>
      <trkpt lat="46.86758" lon="8.5101">
        <ele>1482</ele>
        <time>2021-08-11T10:17:24.460Z</time>
      </trkpt>
      <trkpt lat="46.86758" lon="8.5101">
        <ele>1483</ele>
        <time>2021-08-11T10:17:25.460Z</time>
      </trkpt>
      <trkpt lat="46.86758" lon="8.51009">
        <ele>1483</ele>
        <time>2021-08-11T10:17:26.461Z</time>
      </trkpt>
      <trkpt lat="46.86758" lon="8.51008">
        <ele>1483</ele>
        <time>2021-08-11T10:17:27.461Z</time>
      </trkpt>
      <trkpt lat="46.86758" lon="8.51007">
        <ele>1484</ele>
        <time>2021-08-11T10:17:28.461Z</time>
      </trkpt>
      <trkpt lat="46.86758" lon="8.51007">
        <ele>1484</ele>
        <time>2021-08-11T10:17:29.461Z</time>
      </trkpt>
      <trkpt lat="46.86759" lon="8.51006">
        <ele>1484</ele>
        <time>2021-08-11T10:17:30.460Z</time>
      </trkpt>
      <trkpt lat="46.8676" lon="8.51005">
        <ele>1484</ele>
        <time>2021-08-11T10:17:31.461Z</time>
      </trkpt>
      <trkpt lat="46.8676" lon="8.51004">
        <ele>1484</ele>
        <time>2021-08-11T10:17:32.461Z</time>
      </trkpt>
      <trkpt lat="46.86761" lon="8.51004">
        <ele>1483</ele>
        <time>2021-08-11T10:17:33.461Z</time>
      </trkpt>
      <trkpt lat="46.86761" lon="8.51003">
        <ele>1483</ele>
        <time>2021-08-11T10:17:34.460Z</time>
      </trkpt>
      <trkpt lat="46.86762" lon="8.51003">
        <ele>1483</ele>
        <time>2021-08-11T10:17:35.460Z</time>
      </trkpt>
      <trkpt lat="46.86763" lon="8.51003">
        <ele>1482</ele>
        <time>2021-08-11T10:17:36.461Z</time>
      </trkpt>
      <trkpt lat="46.86763" lon="8.51002">
        <ele>1482</ele>
        <time>2021-08-11T10:17:37.461Z</time>
      </trkpt>
      <trkpt lat="46.86764" lon="8.51002">
        <ele>1482</ele>
        <time>2021-08-11T10:17:38.461Z</time>
      </trkpt>
      <trkpt lat="46.86765" lon="8.51002">
        <ele>1483</ele>
        <time>2021-08-11T10:17:39.460Z</time>
      </trkpt>
      <trkpt lat="46.86765" lon="8.51003">
        <ele>1483</ele>
        <time>2021-08-11T10:17:40.460Z</time>
      </trkpt>
      <trkpt lat="46.86766" lon="8.51002">
        <ele>1483</ele>
        <time>2021-08-11T10:17:41.460Z</time>
      </trkpt>
      <trkpt lat="46.86767" lon="8.51002">
        <ele>1483</ele>
        <time>2021-08-11T10:17:42.461Z</time>
      </trkpt>
      <trkpt lat="46.86768" lon="8.51002">
        <ele>1483</ele>
        <time>2021-08-11T10:17:43.461Z</time>
      </trkpt>
      <trkpt lat="46.86769" lon="8.51001">
        <ele>1483</ele>
        <time>2021-08-11T10:17:44.460Z</time>
      </trkpt>
      <trkpt lat="46.8677" lon="8.51001">
        <ele>1483</ele>
        <time>2021-08-11T10:17:45.460Z</time>
      </trkpt>
      <trkpt lat="46.86771" lon="8.51">
        <ele>1483</ele>
        <time>2021-08-11T10:17:46.461Z</time>
      </trkpt>
      <trkpt lat="46.86771" lon="8.50998">
        <ele>1483</ele>
        <time>2021-08-11T10:17:47.461Z</time>
      </trkpt>
      <trkpt lat="46.86772" lon="8.50997">
        <ele>1482</ele>
        <time>2021-08-11T10:17:48.460Z</time>
      </trkpt>
      <trkpt lat="46.86772" lon="8.50996">
        <ele>1482</ele>
        <time>2021-08-11T10:17:49.460Z</time>
      </trkpt>
      <trkpt lat="46.86773" lon="8.50995">
        <ele>1482</ele>
        <time>2021-08-11T10:17:50.461Z</time>
      </trkpt>
      <trkpt lat="46.86773" lon="8.50994">
        <ele>1481</ele>
        <time>2021-08-11T10:17:51.461Z</time>
      </trkpt>
      <trkpt lat="46.86773" lon="8.50993">
        <ele>1481</ele>
        <time>2021-08-11T10:17:52.461Z</time>
      </trkpt>
      <trkpt lat="46.86773" lon="8.50992">
        <ele>1481</ele>
        <time>2021-08-11T10:17:53.460Z</time>
      </trkpt>
      <trkpt lat="46.86774" lon="8.50991">
        <ele>1480</ele>
        <time>2021-08-11T10:17:54.460Z</time>
      </trkpt>
      <trkpt lat="46.86774" lon="8.50989">
        <ele>1480</ele>
        <time>2021-08-11T10:17:55.461Z</time>
      </trkpt>
      <trkpt lat="46.86775" lon="8.50988">
        <ele>1479</ele>
        <time>2021-08-11T10:17:56.461Z</time>
      </trkpt>
      <trkpt lat="46.86776" lon="8.50986">
        <ele>1479</ele>
        <time>2021-08-11T10:17:57.461Z</time>
      </trkpt>
      <trkpt lat="46.86776" lon="8.50986">
        <ele>1479</ele>
        <time>2021-08-11T10:17:58.461Z</time>
      </trkpt>
      <trkpt lat="46.86776" lon="8.50984">
        <ele>1479</ele>
        <time>2021-08-11T10:17:59.460Z</time>
      </trkpt>
      <trkpt lat="46.86777" lon="8.50983">
        <ele>1479</ele>
        <time>2021-08-11T10:18:00.460Z</time>
      </trkpt>
      <trkpt lat="46.86778" lon="8.50981">
        <ele>1478</ele>
        <time>2021-08-11T10:18:01.460Z</time>
      </trkpt>
      <trkpt lat="46.86778" lon="8.5098">
        <ele>1478</ele>
        <time>2021-08-11T10:18:02.460Z</time>
      </trkpt>
      <trkpt lat="46.86779" lon="8.50979">
        <ele>1478</ele>
        <time>2021-08-11T10:18:03.461Z</time>
      </trkpt>
      <trkpt lat="46.86779" lon="8.50978">
        <ele>1478</ele>
        <time>2021-08-11T10:18:04.460Z</time>
      </trkpt>
      <trkpt lat="46.86779" lon="8.50976">
        <ele>1478</ele>
        <time>2021-08-11T10:18:05.460Z</time>
      </trkpt>
      <trkpt lat="46.8678" lon="8.50975">
        <ele>1478</ele>
        <time>2021-08-11T10:18:06.460Z</time>
      </trkpt>
      <trkpt lat="46.86781" lon="8.50974">
        <ele>1479</ele>
        <time>2021-08-11T10:18:07.461Z</time>
      </trkpt>
      <trkpt lat="46.86781" lon="8.50972">
        <ele>1480</ele>
        <time>2021-08-11T10:18:08.460Z</time>
      </trkpt>
      <trkpt lat="46.86782" lon="8.5097">
        <ele>1480</ele>
        <time>2021-08-11T10:18:09.460Z</time>
      </trkpt>
      <trkpt lat="46.86782" lon="8.50968">
        <ele>1481</ele>
        <time>2021-08-11T10:18:10.460Z</time>
      </trkpt>
      <trkpt lat="46.86783" lon="8.50967">
        <ele>1481</ele>
        <time>2021-08-11T10:18:11.460Z</time>
      </trkpt>
      <trkpt lat="46.86784" lon="8.50965">
        <ele>1482</ele>
        <time>2021-08-11T10:18:12.461Z</time>
      </trkpt>
      <trkpt lat="46.86784" lon="8.50964">
        <ele>1483</ele>
        <time>2021-08-11T10:18:13.460Z</time>
      </trkpt>
      <trkpt lat="46.86785" lon="8.50961">
        <ele>1483</ele>
        <time>2021-08-11T10:18:14.460Z</time>
      </trkpt>
      <trkpt lat="46.86785" lon="8.5096">
        <ele>1483</ele>
        <time>2021-08-11T10:18:15.460Z</time>
      </trkpt>
      <trkpt lat="46.86785" lon="8.50958">
        <ele>1483</ele>
        <time>2021-08-11T10:18:16.461Z</time>
      </trkpt>
      <trkpt lat="46.86785" lon="8.50957">
        <ele>1484</ele>
        <time>2021-08-11T10:18:17.460Z</time>
      </trkpt>
      <trkpt lat="46.86785" lon="8.50955">
        <ele>1483</ele>
        <time>2021-08-11T10:18:18.460Z</time>
      </trkpt>
      <trkpt lat="46.86786" lon="8.50953">
        <ele>1483</ele>
        <time>2021-08-11T10:18:19.460Z</time>
      </trkpt>
      <trkpt lat="46.86787" lon="8.50951">
        <ele>1483</ele>
        <time>2021-08-11T10:18:20.460Z</time>
      </trkpt>
      <trkpt lat="46.86788" lon="8.50949">
        <ele>1483</ele>
        <time>2021-08-11T10:18:21.460Z</time>
      </trkpt>
      <trkpt lat="46.86789" lon="8.50947">
        <ele>1482</ele>
        <time>2021-08-11T10:18:22.460Z</time>
      </trkpt>
      <trkpt lat="46.8679" lon="8.50945">
        <ele>1482</ele>
        <time>2021-08-11T10:18:23.460Z</time>
      </trkpt>
      <trkpt lat="46.8679" lon="8.50944">
        <ele>1482</ele>
        <time>2021-08-11T10:18:24.460Z</time>
      </trkpt>
      <trkpt lat="46.86791" lon="8.50943">
        <ele>1482</ele>
        <time>2021-08-11T10:18:25.460Z</time>
      </trkpt>
      <trkpt lat="46.86791" lon="8.50942">
        <ele>1482</ele>
        <time>2021-08-11T10:18:26.460Z</time>
      </trkpt>
      <trkpt lat="46.86792" lon="8.50941">
        <ele>1481</ele>
        <time>2021-08-11T10:18:27.460Z</time>
      </trkpt>
      <trkpt lat="46.86793" lon="8.5094">
        <ele>1481</ele>
        <time>2021-08-11T10:18:28.460Z</time>
      </trkpt>
      <trkpt lat="46.86793" lon="8.5094">
        <ele>1481</ele>
        <time>2021-08-11T10:18:29.460Z</time>
      </trkpt>
      <trkpt lat="46.86794" lon="8.50939">
        <ele>1482</ele>
        <time>2021-08-11T10:18:30.460Z</time>
      </trkpt>
      <trkpt lat="46.86795" lon="8.50937">
        <ele>1482</ele>
        <time>2021-08-11T10:18:31.460Z</time>
      </trkpt>
      <trkpt lat="46.86796" lon="8.50936">
        <ele>1482</ele>
        <time>2021-08-11T10:18:32.460Z</time>
      </trkpt>
      <trkpt lat="46.86797" lon="8.50935">
        <ele>1481</ele>
        <time>2021-08-11T10:18:33.460Z</time>
      </trkpt>
      <trkpt lat="46.86798" lon="8.50934">
        <ele>1482</ele>
        <time>2021-08-11T10:18:34.460Z</time>
      </trkpt>
      <trkpt lat="46.86799" lon="8.50933">
        <ele>1482</ele>
        <time>2021-08-11T10:18:35.460Z</time>
      </trkpt>
      <trkpt lat="46.86799" lon="8.50932">
        <ele>1482</ele>
        <time>2021-08-11T10:18:36.461Z</time>
      </trkpt>
      <trkpt lat="46.868" lon="8.50931">
        <ele>1482</ele>
        <time>2021-08-11T10:18:37.460Z</time>
      </trkpt>
      <trkpt lat="46.868" lon="8.50929">
        <ele>1483</ele>
        <time>2021-08-11T10:18:38.461Z</time>
      </trkpt>
      <trkpt lat="46.868" lon="8.50927">
        <ele>1483</ele>
        <time>2021-08-11T10:18:39.460Z</time>
      </trkpt>
      <trkpt lat="46.868" lon="8.50926">
        <ele>1482</ele>
        <time>2021-08-11T10:18:40.460Z</time>
      </trkpt>
      <trkpt lat="46.86801" lon="8.50925">
        <ele>1482</ele>
        <time>2021-08-11T10:18:41.460Z</time>
      </trkpt>
      <trkpt lat="46.86802" lon="8.50923">
        <ele>1482</ele>
        <time>2021-08-11T10:18:42.460Z</time>
      </trkpt>
      <trkpt lat="46.86802" lon="8.50922">
        <ele>1481</ele>
        <time>2021-08-11T10:18:43.461Z</time>
      </trkpt>
      <trkpt lat="46.86803" lon="8.5092">
        <ele>1481</ele>
        <time>2021-08-11T10:18:44.460Z</time>
      </trkpt>
      <trkpt lat="46.86803" lon="8.50919">
        <ele>1480</ele>
        <time>2021-08-11T10:18:45.461Z</time>
      </trkpt>
      <trkpt lat="46.86804" lon="8.50917">
        <ele>1480</ele>
        <time>2021-08-11T10:18:46.460Z</time>
      </trkpt>
      <trkpt lat="46.86805" lon="8.50916">
        <ele>1480</ele>
        <time>2021-08-11T10:18:47.460Z</time>
      </trkpt>
      <trkpt lat="46.86806" lon="8.50915">
        <ele>1480</ele>
        <time>2021-08-11T10:18:48.461Z</time>
      </trkpt>
      <trkpt lat="46.86807" lon="8.50914">
        <ele>1480</ele>
        <time>2021-08-11T10:18:49.460Z</time>
      </trkpt>
      <trkpt lat="46.86807" lon="8.50913">
        <ele>1480</ele>
        <time>2021-08-11T10:18:50.461Z</time>
      </trkpt>
      <trkpt lat="46.86807" lon="8.50912">
        <ele>1480</ele>
        <time>2021-08-11T10:18:51.460Z</time>
      </trkpt>
      <trkpt lat="46.86808" lon="8.5091">
        <ele>1481</ele>
        <time>2021-08-11T10:18:52.461Z</time>
      </trkpt>
      <trkpt lat="46.86809" lon="8.50909">
        <ele>1481</ele>
        <time>2021-08-11T10:18:53.461Z</time>
      </trkpt>
      <trkpt lat="46.8681" lon="8.50908">
        <ele>1481</ele>
        <time>2021-08-11T10:18:54.461Z</time>
      </trkpt>
      <trkpt lat="46.8681" lon="8.50906">
        <ele>1481</ele>
        <time>2021-08-11T10:18:55.461Z</time>
      </trkpt>
      <trkpt lat="46.86812" lon="8.50906">
        <ele>1481</ele>
        <time>2021-08-11T10:18:56.461Z</time>
      </trkpt>
      <trkpt lat="46.86813" lon="8.50905">
        <ele>1481</ele>
        <time>2021-08-11T10:18:57.461Z</time>
      </trkpt>
      <trkpt lat="46.86814" lon="8.50904">
        <ele>1482</ele>
        <time>2021-08-11T10:18:58.460Z</time>
      </trkpt>
      <trkpt lat="46.86814" lon="8.50904">
        <ele>1483</ele>
        <time>2021-08-11T10:18:59.461Z</time>
      </trkpt>
      <trkpt lat="46.86816" lon="8.50903">
        <ele>1483</ele>
        <time>2021-08-11T10:19:00.461Z</time>
      </trkpt>
      <trkpt lat="46.86817" lon="8.50901">
        <ele>1484</ele>
        <time>2021-08-11T10:19:01.461Z</time>
      </trkpt>
      <trkpt lat="46.86818" lon="8.50899">
        <ele>1483</ele>
        <time>2021-08-11T10:19:02.460Z</time>
      </trkpt>
      <trkpt lat="46.86819" lon="8.50898">
        <ele>1484</ele>
        <time>2021-08-11T10:19:03.461Z</time>
      </trkpt>
      <trkpt lat="46.8682" lon="8.50897">
        <ele>1484</ele>
        <time>2021-08-11T10:19:04.461Z</time>
      </trkpt>
      <trkpt lat="46.86821" lon="8.50896">
        <ele>1484</ele>
        <time>2021-08-11T10:19:05.461Z</time>
      </trkpt>
      <trkpt lat="46.86822" lon="8.50894">
        <ele>1484</ele>
        <time>2021-08-11T10:19:06.460Z</time>
      </trkpt>
      <trkpt lat="46.86823" lon="8.50893">
        <ele>1484</ele>
        <time>2021-08-11T10:19:07.460Z</time>
      </trkpt>
      <trkpt lat="46.86824" lon="8.50892">
        <ele>1484</ele>
        <time>2021-08-11T10:19:08.461Z</time>
      </trkpt>
      <trkpt lat="46.86825" lon="8.50892">
        <ele>1483</ele>
        <time>2021-08-11T10:19:09.461Z</time>
      </trkpt>
      <trkpt lat="46.86825" lon="8.50891">
        <ele>1482</ele>
        <time>2021-08-11T10:19:10.461Z</time>
      </trkpt>
      <trkpt lat="46.86827" lon="8.5089">
        <ele>1482</ele>
        <time>2021-08-11T10:19:11.460Z</time>
      </trkpt>
      <trkpt lat="46.86827" lon="8.5089">
        <ele>1482</ele>
        <time>2021-08-11T10:19:12.460Z</time>
      </trkpt>
      <trkpt lat="46.86828" lon="8.5089">
        <ele>1481</ele>
        <time>2021-08-11T10:19:13.461Z</time>
      </trkpt>
      <trkpt lat="46.8683" lon="8.50889">
        <ele>1481</ele>
        <time>2021-08-11T10:19:14.460Z</time>
      </trkpt>
      <trkpt lat="46.8683" lon="8.50888">
        <ele>1481</ele>
        <time>2021-08-11T10:19:15.461Z</time>
      </trkpt>
      <trkpt lat="46.86832" lon="8.50888">
        <ele>1481</ele>
        <time>2021-08-11T10:19:16.460Z</time>
      </trkpt>
      <trkpt lat="46.86833" lon="8.50887">
        <ele>1481</ele>
        <time>2021-08-11T10:19:17.461Z</time>
      </trkpt>
      <trkpt lat="46.86833" lon="8.50887">
        <ele>1481</ele>
        <time>2021-08-11T10:19:18.461Z</time>
      </trkpt>
      <trkpt lat="46.86834" lon="8.50886">
        <ele>1481</ele>
        <time>2021-08-11T10:19:19.461Z</time>
      </trkpt>
      <trkpt lat="46.86835" lon="8.50886">
        <ele>1481</ele>
        <time>2021-08-11T10:19:20.461Z</time>
      </trkpt>
      <trkpt lat="46.86836" lon="8.50885">
        <ele>1481</ele>
        <time>2021-08-11T10:19:21.460Z</time>
      </trkpt>
      <trkpt lat="46.86837" lon="8.50884">
        <ele>1481</ele>
        <time>2021-08-11T10:19:22.460Z</time>
      </trkpt>
      <trkpt lat="46.86837" lon="8.50883">
        <ele>1481</ele>
        <time>2021-08-11T10:19:23.461Z</time>
      </trkpt>
      <trkpt lat="46.86839" lon="8.50883">
        <ele>1481</ele>
        <time>2021-08-11T10:19:24.460Z</time>
      </trkpt>
      <trkpt lat="46.8684" lon="8.50882">
        <ele>1481</ele>
        <time>2021-08-11T10:19:25.461Z</time>
      </trkpt>
      <trkpt lat="46.86841" lon="8.50882">
        <ele>1481</ele>
        <time>2021-08-11T10:19:26.461Z</time>
      </trkpt>
      <trkpt lat="46.86842" lon="8.50881">
        <ele>1482</ele>
        <time>2021-08-11T10:19:27.460Z</time>
      </trkpt>
      <trkpt lat="46.86843" lon="8.50881">
        <ele>1482</ele>
        <time>2021-08-11T10:19:28.461Z</time>
      </trkpt>
      <trkpt lat="46.86844" lon="8.5088">
        <ele>1482</ele>
        <time>2021-08-11T10:19:29.460Z</time>
      </trkpt>
      <trkpt lat="46.86846" lon="8.50879">
        <ele>1482</ele>
        <time>2021-08-11T10:19:30.461Z</time>
      </trkpt>
      <trkpt lat="46.86848" lon="8.50878">
        <ele>1481</ele>
        <time>2021-08-11T10:19:31.460Z</time>
      </trkpt>
      <trkpt lat="46.86849" lon="8.50877">
        <ele>1482</ele>
        <time>2021-08-11T10:19:32.460Z</time>
      </trkpt>
      <trkpt lat="46.8685" lon="8.50877">
        <ele>1482</ele>
        <time>2021-08-11T10:19:33.460Z</time>
      </trkpt>
      <trkpt lat="46.86852" lon="8.50876">
        <ele>1482</ele>
        <time>2021-08-11T10:19:34.461Z</time>
      </trkpt>
      <trkpt lat="46.86853" lon="8.50875">
        <ele>1482</ele>
        <time>2021-08-11T10:19:35.461Z</time>
      </trkpt>
      <trkpt lat="46.86853" lon="8.50875">
        <ele>1482</ele>
        <time>2021-08-11T10:19:36.460Z</time>
      </trkpt>
      <trkpt lat="46.86854" lon="8.50874">
        <ele>1482</ele>
        <time>2021-08-11T10:19:37.461Z</time>
      </trkpt>
      <trkpt lat="46.86854" lon="8.50874">
        <ele>1482</ele>
        <time>2021-08-11T10:19:38.461Z</time>
      </trkpt>
      <trkpt lat="46.86854" lon="8.50874">
        <ele>1481</ele>
        <time>2021-08-11T10:19:39.461Z</time>
      </trkpt>
      <trkpt lat="46.86854" lon="8.50873">
        <ele>1481</ele>
        <time>2021-08-11T10:19:40.461Z</time>
      </trkpt>
      <trkpt lat="46.86854" lon="8.50873">
        <ele>1481</ele>
        <time>2021-08-11T10:19:41.460Z</time>
      </trkpt>
      <trkpt lat="46.86854" lon="8.50873">
        <ele>1480</ele>
        <time>2021-08-11T10:19:42.461Z</time>
      </trkpt>
      <trkpt lat="46.86854" lon="8.50873">
        <ele>1480</ele>
        <time>2021-08-11T10:19:43.460Z</time>
      </trkpt>
      <trkpt lat="46.86851" lon="8.50869">
        <ele>1477</ele>
        <time>2021-08-11T10:19:44.460Z</time>
      </trkpt>
      <trkpt lat="46.86852" lon="8.50869">
        <ele>1476</ele>
        <time>2021-08-11T10:19:45.461Z</time>
      </trkpt>
      <trkpt lat="46.86853" lon="8.50869">
        <ele>1475</ele>
        <time>2021-08-11T10:19:46.460Z</time>
      </trkpt>
      <trkpt lat="46.86854" lon="8.50869">
        <ele>1474</ele>
        <time>2021-08-11T10:19:47.461Z</time>
      </trkpt>
      <trkpt lat="46.86854" lon="8.50868">
        <ele>1473</ele>
        <time>2021-08-11T10:19:48.460Z</time>
      </trkpt>
      <trkpt lat="46.86854" lon="8.50869">
        <ele>1473</ele>
        <time>2021-08-11T10:19:49.460Z</time>
      </trkpt>
      <trkpt lat="46.86854" lon="8.50869">
        <ele>1472</ele>
        <time>2021-08-11T10:19:50.462Z</time>
      </trkpt>
      <trkpt lat="46.86853" lon="8.5087">
        <ele>1470</ele>
        <time>2021-08-11T10:19:51.462Z</time>
      </trkpt>
      <trkpt lat="46.86854" lon="8.5087">
        <ele>1470</ele>
        <time>2021-08-11T10:19:52.462Z</time>
      </trkpt>
      <trkpt lat="46.86848" lon="8.50879">
        <ele>1474</ele>
        <time>2021-08-11T10:19:53.462Z</time>
      </trkpt>
      <trkpt lat="46.86848" lon="8.50879">
        <ele>1474</ele>
        <time>2021-08-11T10:19:54.461Z</time>
      </trkpt>
      <trkpt lat="46.86848" lon="8.50881">
        <ele>1474</ele>
        <time>2021-08-11T10:19:55.462Z</time>
      </trkpt>
      <trkpt lat="46.86848" lon="8.50881">
        <ele>1474</ele>
        <time>2021-08-11T10:19:56.461Z</time>
      </trkpt>
      <trkpt lat="46.86848" lon="8.50882">
        <ele>1475</ele>
        <time>2021-08-11T10:19:57.461Z</time>
      </trkpt>
      <trkpt lat="46.86847" lon="8.50882">
        <ele>1475</ele>
        <time>2021-08-11T10:19:58.462Z</time>
      </trkpt>
      <trkpt lat="46.86847" lon="8.50882">
        <ele>1475</ele>
        <time>2021-08-11T10:19:59.462Z</time>
      </trkpt>
      <trkpt lat="46.86847" lon="8.50882">
        <ele>1475</ele>
        <time>2021-08-11T10:20:00.462Z</time>
      </trkpt>
      <trkpt lat="46.86847" lon="8.50882">
        <ele>1475</ele>
        <time>2021-08-11T10:20:01.461Z</time>
      </trkpt>
      <trkpt lat="46.86848" lon="8.50882">
        <ele>1475</ele>
        <time>2021-08-11T10:20:02.463Z</time>
      </trkpt>
      <trkpt lat="46.86848" lon="8.50883">
        <ele>1475</ele>
        <time>2021-08-11T10:20:03.462Z</time>
      </trkpt>
      <trkpt lat="46.86852" lon="8.50877">
        <ele>1484</ele>
        <time>2021-08-11T10:20:04.462Z</time>
      </trkpt>
      <trkpt lat="46.86853" lon="8.50878">
        <ele>1485</ele>
        <time>2021-08-11T10:20:05.463Z</time>
      </trkpt>
      <trkpt lat="46.86853" lon="8.5088">
        <ele>1486</ele>
        <time>2021-08-11T10:20:06.462Z</time>
      </trkpt>
      <trkpt lat="46.86853" lon="8.50881">
        <ele>1486</ele>
        <time>2021-08-11T10:20:07.463Z</time>
      </trkpt>
      <trkpt lat="46.86853" lon="8.50881">
        <ele>1487</ele>
        <time>2021-08-11T10:20:08.463Z</time>
      </trkpt>
      <trkpt lat="46.86854" lon="8.5088">
        <ele>1488</ele>
        <time>2021-08-11T10:20:09.463Z</time>
      </trkpt>
      <trkpt lat="46.86853" lon="8.50877">
        <ele>1491</ele>
        <time>2021-08-11T10:20:10.462Z</time>
      </trkpt>
      <trkpt lat="46.86853" lon="8.50876">
        <ele>1491</ele>
        <time>2021-08-11T10:20:11.463Z</time>
      </trkpt>
      <trkpt lat="46.86853" lon="8.50874">
        <ele>1491</ele>
        <time>2021-08-11T10:20:12.463Z</time>
      </trkpt>
      <trkpt lat="46.86853" lon="8.50873">
        <ele>1494</ele>
        <time>2021-08-11T10:20:13.463Z</time>
      </trkpt>
      <trkpt lat="46.86851" lon="8.50877">
        <ele>1496</ele>
        <time>2021-08-11T10:20:14.463Z</time>
      </trkpt>
      <trkpt lat="46.86853" lon="8.50877">
        <ele>1487</ele>
        <time>2021-08-11T10:20:15.462Z</time>
      </trkpt>
      <trkpt lat="46.86853" lon="8.50878">
        <ele>1487</ele>
        <time>2021-08-11T10:20:16.462Z</time>
      </trkpt>
      <trkpt lat="46.86855" lon="8.50875">
        <ele>1484</ele>
        <time>2021-08-11T10:20:17.462Z</time>
      </trkpt>
      <trkpt lat="46.86852" lon="8.50872">
        <ele>1480</ele>
        <time>2021-08-11T10:20:18.463Z</time>
      </trkpt>
      <trkpt lat="46.86852" lon="8.50872">
        <ele>1481</ele>
        <time>2021-08-11T10:20:19.462Z</time>
      </trkpt>
      <trkpt lat="46.86852" lon="8.50872">
        <ele>1481</ele>
        <time>2021-08-11T10:20:20.462Z</time>
      </trkpt>
      <trkpt lat="46.86852" lon="8.50872">
        <ele>1481</ele>
        <time>2021-08-11T10:20:21.463Z</time>
      </trkpt>
      <trkpt lat="46.86852" lon="8.50872">
        <ele>1481</ele>
        <time>2021-08-11T10:20:22.463Z</time>
      </trkpt>
      <trkpt lat="46.86852" lon="8.50872">
        <ele>1482</ele>
        <time>2021-08-11T10:20:23.464Z</time>
      </trkpt>
      <trkpt lat="46.86853" lon="8.50872">
        <ele>1481</ele>
        <time>2021-08-11T10:20:24.464Z</time>
      </trkpt>
      <trkpt lat="46.86853" lon="8.50873">
        <ele>1481</ele>
        <time>2021-08-11T10:20:25.463Z</time>
      </trkpt>
      <trkpt lat="46.86853" lon="8.50873">
        <ele>1481</ele>
        <time>2021-08-11T10:20:26.463Z</time>
      </trkpt>
      <trkpt lat="46.86852" lon="8.50871">
        <ele>1481</ele>
        <time>2021-08-11T10:20:27.464Z</time>
      </trkpt>
      <trkpt lat="46.86852" lon="8.50871">
        <ele>1482</ele>
        <time>2021-08-11T10:20:28.463Z</time>
      </trkpt>
      <trkpt lat="46.86851" lon="8.50871">
        <ele>1482</ele>
        <time>2021-08-11T10:20:29.463Z</time>
      </trkpt>
      <trkpt lat="46.86851" lon="8.50871">
        <ele>1483</ele>
        <time>2021-08-11T10:20:30.464Z</time>
      </trkpt>
      <trkpt lat="46.86851" lon="8.50871">
        <ele>1483</ele>
        <time>2021-08-11T10:20:31.464Z</time>
      </trkpt>
      <trkpt lat="46.86851" lon="8.5087">
        <ele>1483</ele>
        <time>2021-08-11T10:20:32.464Z</time>
      </trkpt>
      <trkpt lat="46.86851" lon="8.5087">
        <ele>1483</ele>
        <time>2021-08-11T10:20:33.463Z</time>
      </trkpt>
      <trkpt lat="46.8685" lon="8.5087">
        <ele>1483</ele>
        <time>2021-08-11T10:20:34.464Z</time>
      </trkpt>
      <trkpt lat="46.8685" lon="8.50873">
        <ele>1481</ele>
        <time>2021-08-11T10:20:35.465Z</time>
      </trkpt>
      <trkpt lat="46.8685" lon="8.50873">
        <ele>1481</ele>
        <time>2021-08-11T10:20:36.464Z</time>
      </trkpt>
      <trkpt lat="46.86849" lon="8.50873">
        <ele>1481</ele>
        <time>2021-08-11T10:20:37.464Z</time>
      </trkpt>
      <trkpt lat="46.8685" lon="8.50873">
        <ele>1483</ele>
        <time>2021-08-11T10:20:38.466Z</time>
      </trkpt>
      <trkpt lat="46.8685" lon="8.50873">
        <ele>1483</ele>
        <time>2021-08-11T10:20:39.465Z</time>
      </trkpt>
      <trkpt lat="46.86851" lon="8.50873">
        <ele>1483</ele>
        <time>2021-08-11T10:20:40.465Z</time>
      </trkpt>
      <trkpt lat="46.86852" lon="8.50873">
        <ele>1483</ele>
        <time>2021-08-11T10:20:41.465Z</time>
      </trkpt>
      <trkpt lat="46.86852" lon="8.50872">
        <ele>1483</ele>
        <time>2021-08-11T10:20:42.466Z</time>
      </trkpt>
      <trkpt lat="46.86853" lon="8.50873">
        <ele>1483</ele>
        <time>2021-08-11T10:20:43.466Z</time>
      </trkpt>
      <trkpt lat="46.86854" lon="8.50872">
        <ele>1483</ele>
        <time>2021-08-11T10:20:44.465Z</time>
      </trkpt>
      <trkpt lat="46.86854" lon="8.50871">
        <ele>1483</ele>
        <time>2021-08-11T10:20:45.466Z</time>
      </trkpt>
      <trkpt lat="46.86855" lon="8.5087">
        <ele>1483</ele>
        <time>2021-08-11T10:20:46.466Z</time>
      </trkpt>
      <trkpt lat="46.86856" lon="8.50868">
        <ele>1483</ele>
        <time>2021-08-11T10:20:47.466Z</time>
      </trkpt>
      <trkpt lat="46.86856" lon="8.50867">
        <ele>1483</ele>
        <time>2021-08-11T10:20:48.466Z</time>
      </trkpt>
      <trkpt lat="46.86856" lon="8.50865">
        <ele>1483</ele>
        <time>2021-08-11T10:20:49.466Z</time>
      </trkpt>
      <trkpt lat="46.86855" lon="8.50864">
        <ele>1483</ele>
        <time>2021-08-11T10:20:50.466Z</time>
      </trkpt>
      <trkpt lat="46.86854" lon="8.50864">
        <ele>1483</ele>
        <time>2021-08-11T10:20:51.466Z</time>
      </trkpt>
      <trkpt lat="46.86853" lon="8.50863">
        <ele>1483</ele>
        <time>2021-08-11T10:20:52.465Z</time>
      </trkpt>
      <trkpt lat="46.86852" lon="8.50863">
        <ele>1483</ele>
        <time>2021-08-11T10:20:53.466Z</time>
      </trkpt>
      <trkpt lat="46.86852" lon="8.50863">
        <ele>1483</ele>
        <time>2021-08-11T10:20:54.465Z</time>
      </trkpt>
      <trkpt lat="46.86852" lon="8.50863">
        <ele>1482</ele>
        <time>2021-08-11T10:20:55.465Z</time>
      </trkpt>
      <trkpt lat="46.86852" lon="8.50862">
        <ele>1482</ele>
        <time>2021-08-11T10:20:56.466Z</time>
      </trkpt>
      <trkpt lat="46.86851" lon="8.50863">
        <ele>1482</ele>
        <time>2021-08-11T10:20:57.466Z</time>
      </trkpt>
      <trkpt lat="46.8685" lon="8.50863">
        <ele>1481</ele>
        <time>2021-08-11T10:20:58.466Z</time>
      </trkpt>
      <trkpt lat="46.8685" lon="8.50863">
        <ele>1481</ele>
        <time>2021-08-11T10:20:59.466Z</time>
      </trkpt>
      <trkpt lat="46.86849" lon="8.50863">
        <ele>1480</ele>
        <time>2021-08-11T10:21:00.465Z</time>
      </trkpt>
      <trkpt lat="46.86849" lon="8.50863">
        <ele>1479</ele>
        <time>2021-08-11T10:21:01.466Z</time>
      </trkpt>
      <trkpt lat="46.86848" lon="8.50862">
        <ele>1479</ele>
        <time>2021-08-11T10:21:02.466Z</time>
      </trkpt>
      <trkpt lat="46.86848" lon="8.50863">
        <ele>1478</ele>
        <time>2021-08-11T10:21:03.466Z</time>
      </trkpt>
      <trkpt lat="46.86849" lon="8.50863">
        <ele>1478</ele>
        <time>2021-08-11T10:21:04.465Z</time>
      </trkpt>
      <trkpt lat="46.86848" lon="8.50862">
        <ele>1479</ele>
        <time>2021-08-11T10:21:05.466Z</time>
      </trkpt>
      <trkpt lat="46.86847" lon="8.50862">
        <ele>1479</ele>
        <time>2021-08-11T10:21:06.466Z</time>
      </trkpt>
      <trkpt lat="46.86847" lon="8.50863">
        <ele>1479</ele>
        <time>2021-08-11T10:21:07.466Z</time>
      </trkpt>
      <trkpt lat="46.86847" lon="8.50864">
        <ele>1478</ele>
        <time>2021-08-11T10:21:08.467Z</time>
      </trkpt>
      <trkpt lat="46.86847" lon="8.50865">
        <ele>1478</ele>
        <time>2021-08-11T10:21:09.466Z</time>
      </trkpt>
      <trkpt lat="46.86847" lon="8.50869">
        <ele>1473</ele>
        <time>2021-08-11T10:21:10.468Z</time>
      </trkpt>
      <trkpt lat="46.86847" lon="8.5087">
        <ele>1472</ele>
        <time>2021-08-11T10:21:11.468Z</time>
      </trkpt>
      <trkpt lat="46.86847" lon="8.5087">
        <ele>1472</ele>
        <time>2021-08-11T10:21:12.467Z</time>
      </trkpt>
      <trkpt lat="46.86846" lon="8.50868">
        <ele>1472</ele>
        <time>2021-08-11T10:21:13.469Z</time>
      </trkpt>
      <trkpt lat="46.86846" lon="8.50868">
        <ele>1472</ele>
        <time>2021-08-11T10:21:14.468Z</time>
      </trkpt>
      <trkpt lat="46.86845" lon="8.50867">
        <ele>1472</ele>
        <time>2021-08-11T10:21:15.468Z</time>
      </trkpt>
      <trkpt lat="46.86844" lon="8.50867">
        <ele>1472</ele>
        <time>2021-08-11T10:21:16.469Z</time>
      </trkpt>
      <trkpt lat="46.86844" lon="8.50866">
        <ele>1472</ele>
        <time>2021-08-11T10:21:17.468Z</time>
      </trkpt>
      <trkpt lat="46.86843" lon="8.50866">
        <ele>1473</ele>
        <time>2021-08-11T10:21:18.468Z</time>
      </trkpt>
      <trkpt lat="46.86842" lon="8.50866">
        <ele>1473</ele>
        <time>2021-08-11T10:21:19.468Z</time>
      </trkpt>
      <trkpt lat="46.86842" lon="8.50866">
        <ele>1474</ele>
        <time>2021-08-11T10:21:20.468Z</time>
      </trkpt>
      <trkpt lat="46.86841" lon="8.50865">
        <ele>1474</ele>
        <time>2021-08-11T10:21:21.468Z</time>
      </trkpt>
      <trkpt lat="46.86841" lon="8.50865">
        <ele>1475</ele>
        <time>2021-08-11T10:21:22.469Z</time>
      </trkpt>
      <trkpt lat="46.86841" lon="8.50865">
        <ele>1475</ele>
        <time>2021-08-11T10:21:23.468Z</time>
      </trkpt>
      <trkpt lat="46.86841" lon="8.50865">
        <ele>1476</ele>
        <time>2021-08-11T10:21:24.469Z</time>
      </trkpt>
      <trkpt lat="46.86842" lon="8.50866">
        <ele>1479</ele>
        <time>2021-08-11T10:21:25.470Z</time>
      </trkpt>
      <trkpt lat="46.86843" lon="8.50866">
        <ele>1480</ele>
        <time>2021-08-11T10:21:26.471Z</time>
      </trkpt>
      <trkpt lat="46.86843" lon="8.50866">
        <ele>1480</ele>
        <time>2021-08-11T10:21:27.470Z</time>
      </trkpt>
      <trkpt lat="46.86841" lon="8.50864">
        <ele>1482</ele>
        <time>2021-08-11T10:21:28.471Z</time>
      </trkpt>
      <trkpt lat="46.86841" lon="8.50864">
        <ele>1482</ele>
        <time>2021-08-11T10:21:29.472Z</time>
      </trkpt>
      <trkpt lat="46.8684" lon="8.50863">
        <ele>1483</ele>
        <time>2021-08-11T10:21:30.472Z</time>
      </trkpt>
      <trkpt lat="46.8684" lon="8.50862">
        <ele>1483</ele>
        <time>2021-08-11T10:21:31.472Z</time>
      </trkpt>
      <trkpt lat="46.86842" lon="8.50861">
        <ele>1485</ele>
        <time>2021-08-11T10:21:32.473Z</time>
      </trkpt>
      <trkpt lat="46.86842" lon="8.50861">
        <ele>1485</ele>
        <time>2021-08-11T10:21:33.473Z</time>
      </trkpt>
      <trkpt lat="46.86843" lon="8.50866">
        <ele>1475</ele>
        <time>2021-08-11T10:21:34.473Z</time>
      </trkpt>
      <trkpt lat="46.86842" lon="8.50865">
        <ele>1474</ele>
        <time>2021-08-11T10:21:35.472Z</time>
      </trkpt>
      <trkpt lat="46.86841" lon="8.50864">
        <ele>1474</ele>
        <time>2021-08-11T10:21:36.472Z</time>
      </trkpt>
      <trkpt lat="46.86841" lon="8.50863">
        <ele>1473</ele>
        <time>2021-08-11T10:21:37.473Z</time>
      </trkpt>
      <trkpt lat="46.8684" lon="8.50862">
        <ele>1473</ele>
        <time>2021-08-11T10:21:38.473Z</time>
      </trkpt>
      <trkpt lat="46.86839" lon="8.50862">
        <ele>1473</ele>
        <time>2021-08-11T10:21:39.473Z</time>
      </trkpt>
      <trkpt lat="46.86839" lon="8.50863">
        <ele>1473</ele>
        <time>2021-08-11T10:21:40.473Z</time>
      </trkpt>
      <trkpt lat="46.86838" lon="8.50863">
        <ele>1474</ele>
        <time>2021-08-11T10:21:41.472Z</time>
      </trkpt>
      <trkpt lat="46.86837" lon="8.50864">
        <ele>1474</ele>
        <time>2021-08-11T10:21:42.473Z</time>
      </trkpt>
      <trkpt lat="46.86836" lon="8.50863">
        <ele>1479</ele>
        <time>2021-08-11T10:21:43.475Z</time>
      </trkpt>
      <trkpt lat="46.86835" lon="8.50863">
        <ele>1479</ele>
        <time>2021-08-11T10:21:44.474Z</time>
      </trkpt>
      <trkpt lat="46.86835" lon="8.50863">
        <ele>1479</ele>
        <time>2021-08-11T10:21:45.474Z</time>
      </trkpt>
      <trkpt lat="46.86834" lon="8.50863">
        <ele>1481</ele>
        <time>2021-08-11T10:21:46.476Z</time>
      </trkpt>
      <trkpt lat="46.86834" lon="8.50864">
        <ele>1482</ele>
        <time>2021-08-11T10:21:47.476Z</time>
      </trkpt>
      <trkpt lat="46.86834" lon="8.50865">
        <ele>1482</ele>
        <time>2021-08-11T10:21:48.475Z</time>
      </trkpt>
      <trkpt lat="46.86833" lon="8.50865">
        <ele>1483</ele>
        <time>2021-08-11T10:21:49.475Z</time>
      </trkpt>
      <trkpt lat="46.86832" lon="8.50865">
        <ele>1483</ele>
        <time>2021-08-11T10:21:50.475Z</time>
      </trkpt>
      <trkpt lat="46.86832" lon="8.50864">
        <ele>1484</ele>
        <time>2021-08-11T10:21:51.476Z</time>
      </trkpt>
      <trkpt lat="46.86832" lon="8.50864">
        <ele>1484</ele>
        <time>2021-08-11T10:21:52.475Z</time>
      </trkpt>
      <trkpt lat="46.86832" lon="8.50863">
        <ele>1484</ele>
        <time>2021-08-11T10:21:53.476Z</time>
      </trkpt>
      <trkpt lat="46.86832" lon="8.50863">
        <ele>1484</ele>
        <time>2021-08-11T10:21:54.476Z</time>
      </trkpt>
      <trkpt lat="46.86833" lon="8.50863">
        <ele>1484</ele>
        <time>2021-08-11T10:21:55.475Z</time>
      </trkpt>
      <trkpt lat="46.86832" lon="8.50863">
        <ele>1484</ele>
        <time>2021-08-11T10:21:56.476Z</time>
      </trkpt>
      <trkpt lat="46.86831" lon="8.50863">
        <ele>1485</ele>
        <time>2021-08-11T10:21:57.475Z</time>
      </trkpt>
      <trkpt lat="46.86831" lon="8.50863">
        <ele>1485</ele>
        <time>2021-08-11T10:21:58.476Z</time>
      </trkpt>
      <trkpt lat="46.8683" lon="8.50863">
        <ele>1485</ele>
        <time>2021-08-11T10:21:59.475Z</time>
      </trkpt>
      <trkpt lat="46.8683" lon="8.50863">
        <ele>1484</ele>
        <time>2021-08-11T10:22:00.476Z</time>
      </trkpt>
      <trkpt lat="46.86829" lon="8.50864">
        <ele>1484</ele>
        <time>2021-08-11T10:22:01.476Z</time>
      </trkpt>
      <trkpt lat="46.86828" lon="8.50864">
        <ele>1484</ele>
        <time>2021-08-11T10:22:02.476Z</time>
      </trkpt>
      <trkpt lat="46.86828" lon="8.50864">
        <ele>1484</ele>
        <time>2021-08-11T10:22:03.476Z</time>
      </trkpt>
      <trkpt lat="46.86828" lon="8.50864">
        <ele>1485</ele>
        <time>2021-08-11T10:22:04.476Z</time>
      </trkpt>
      <trkpt lat="46.86828" lon="8.50864">
        <ele>1485</ele>
        <time>2021-08-11T10:22:05.476Z</time>
      </trkpt>
      <trkpt lat="46.86827" lon="8.50864">
        <ele>1485</ele>
        <time>2021-08-11T10:22:06.476Z</time>
      </trkpt>
      <trkpt lat="46.86827" lon="8.50864">
        <ele>1486</ele>
        <time>2021-08-11T10:22:07.476Z</time>
      </trkpt>
      <trkpt lat="46.86826" lon="8.50865">
        <ele>1484</ele>
        <time>2021-08-11T10:22:08.476Z</time>
      </trkpt>
      <trkpt lat="46.86825" lon="8.50865">
        <ele>1483</ele>
        <time>2021-08-11T10:22:09.475Z</time>
      </trkpt>
      <trkpt lat="46.86824" lon="8.50866">
        <ele>1483</ele>
        <time>2021-08-11T10:22:10.475Z</time>
      </trkpt>
      <trkpt lat="46.86824" lon="8.50866">
        <ele>1483</ele>
        <time>2021-08-11T10:22:11.475Z</time>
      </trkpt>
      <trkpt lat="46.86824" lon="8.50867">
        <ele>1483</ele>
        <time>2021-08-11T10:22:12.476Z</time>
      </trkpt>
      <trkpt lat="46.86824" lon="8.50868">
        <ele>1483</ele>
        <time>2021-08-11T10:22:13.476Z</time>
      </trkpt>
      <trkpt lat="46.86824" lon="8.50867">
        <ele>1482</ele>
        <time>2021-08-11T10:22:14.475Z</time>
      </trkpt>
      <trkpt lat="46.86823" lon="8.50867">
        <ele>1482</ele>
        <time>2021-08-11T10:22:15.475Z</time>
      </trkpt>
      <trkpt lat="46.86822" lon="8.50867">
        <ele>1482</ele>
        <time>2021-08-11T10:22:16.476Z</time>
      </trkpt>
      <trkpt lat="46.86822" lon="8.50867">
        <ele>1481</ele>
        <time>2021-08-11T10:22:17.476Z</time>
      </trkpt>
      <trkpt lat="46.86822" lon="8.50868">
        <ele>1481</ele>
        <time>2021-08-11T10:22:18.476Z</time>
      </trkpt>
      <trkpt lat="46.86821" lon="8.50869">
        <ele>1480</ele>
        <time>2021-08-11T10:22:19.475Z</time>
      </trkpt>
      <trkpt lat="46.8682" lon="8.5087">
        <ele>1479</ele>
        <time>2021-08-11T10:22:20.475Z</time>
      </trkpt>
      <trkpt lat="46.86819" lon="8.5087">
        <ele>1479</ele>
        <time>2021-08-11T10:22:21.476Z</time>
      </trkpt>
      <trkpt lat="46.86818" lon="8.5087">
        <ele>1478</ele>
        <time>2021-08-11T10:22:22.475Z</time>
      </trkpt>
      <trkpt lat="46.86817" lon="8.50871">
        <ele>1478</ele>
        <time>2021-08-11T10:22:23.476Z</time>
      </trkpt>
      <trkpt lat="46.86817" lon="8.50871">
        <ele>1478</ele>
        <time>2021-08-11T10:22:24.475Z</time>
      </trkpt>
      <trkpt lat="46.86816" lon="8.50871">
        <ele>1478</ele>
        <time>2021-08-11T10:22:25.475Z</time>
      </trkpt>
      <trkpt lat="46.86816" lon="8.5087">
        <ele>1477</ele>
        <time>2021-08-11T10:22:26.475Z</time>
      </trkpt>
      <trkpt lat="46.86816" lon="8.5087">
        <ele>1477</ele>
        <time>2021-08-11T10:22:27.475Z</time>
      </trkpt>
      <trkpt lat="46.86815" lon="8.5087">
        <ele>1476</ele>
        <time>2021-08-11T10:22:28.476Z</time>
      </trkpt>
      <trkpt lat="46.86815" lon="8.50871">
        <ele>1476</ele>
        <time>2021-08-11T10:22:29.476Z</time>
      </trkpt>
      <trkpt lat="46.86814" lon="8.5087">
        <ele>1476</ele>
        <time>2021-08-11T10:22:30.476Z</time>
      </trkpt>
      <trkpt lat="46.86814" lon="8.5087">
        <ele>1475</ele>
        <time>2021-08-11T10:22:31.476Z</time>
      </trkpt>
      <trkpt lat="46.86813" lon="8.5087">
        <ele>1475</ele>
        <time>2021-08-11T10:22:32.476Z</time>
      </trkpt>
      <trkpt lat="46.86812" lon="8.5087">
        <ele>1475</ele>
        <time>2021-08-11T10:22:33.475Z</time>
      </trkpt>
      <trkpt lat="46.86812" lon="8.5087">
        <ele>1476</ele>
        <time>2021-08-11T10:22:34.476Z</time>
      </trkpt>
      <trkpt lat="46.86811" lon="8.5087">
        <ele>1476</ele>
        <time>2021-08-11T10:22:35.476Z</time>
      </trkpt>
      <trkpt lat="46.8681" lon="8.50871">
        <ele>1477</ele>
        <time>2021-08-11T10:22:36.475Z</time>
      </trkpt>
      <trkpt lat="46.8681" lon="8.50871">
        <ele>1477</ele>
        <time>2021-08-11T10:22:37.476Z</time>
      </trkpt>
      <trkpt lat="46.86809" lon="8.50871">
        <ele>1477</ele>
        <time>2021-08-11T10:22:38.475Z</time>
      </trkpt>
      <trkpt lat="46.86809" lon="8.50872">
        <ele>1478</ele>
        <time>2021-08-11T10:22:39.476Z</time>
      </trkpt>
      <trkpt lat="46.86808" lon="8.50873">
        <ele>1478</ele>
        <time>2021-08-11T10:22:40.475Z</time>
      </trkpt>
      <trkpt lat="46.86808" lon="8.50873">
        <ele>1478</ele>
        <time>2021-08-11T10:22:41.475Z</time>
      </trkpt>
      <trkpt lat="46.86808" lon="8.50872">
        <ele>1478</ele>
        <time>2021-08-11T10:22:42.476Z</time>
      </trkpt>
      <trkpt lat="46.86807" lon="8.50872">
        <ele>1478</ele>
        <time>2021-08-11T10:22:43.475Z</time>
      </trkpt>
      <trkpt lat="46.86805" lon="8.50872">
        <ele>1479</ele>
        <time>2021-08-11T10:22:44.476Z</time>
      </trkpt>
      <trkpt lat="46.86805" lon="8.50872">
        <ele>1479</ele>
        <time>2021-08-11T10:22:45.475Z</time>
      </trkpt>
      <trkpt lat="46.86804" lon="8.50872">
        <ele>1480</ele>
        <time>2021-08-11T10:22:46.475Z</time>
      </trkpt>
      <trkpt lat="46.86803" lon="8.50871">
        <ele>1480</ele>
        <time>2021-08-11T10:22:47.475Z</time>
      </trkpt>
      <trkpt lat="46.86803" lon="8.50871">
        <ele>1480</ele>
        <time>2021-08-11T10:22:48.475Z</time>
      </trkpt>
      <trkpt lat="46.86802" lon="8.50872">
        <ele>1481</ele>
        <time>2021-08-11T10:22:49.475Z</time>
      </trkpt>
      <trkpt lat="46.86801" lon="8.50872">
        <ele>1481</ele>
        <time>2021-08-11T10:22:50.475Z</time>
      </trkpt>
      <trkpt lat="46.868" lon="8.50871">
        <ele>1481</ele>
        <time>2021-08-11T10:22:51.475Z</time>
      </trkpt>
      <trkpt lat="46.868" lon="8.50871">
        <ele>1482</ele>
        <time>2021-08-11T10:22:52.475Z</time>
      </trkpt>
      <trkpt lat="46.86799" lon="8.5087">
        <ele>1482</ele>
        <time>2021-08-11T10:22:53.475Z</time>
      </trkpt>
      <trkpt lat="46.86798" lon="8.5087">
        <ele>1482</ele>
        <time>2021-08-11T10:22:54.476Z</time>
      </trkpt>
      <trkpt lat="46.86797" lon="8.5087">
        <ele>1483</ele>
        <time>2021-08-11T10:22:55.475Z</time>
      </trkpt>
      <trkpt lat="46.86796" lon="8.5087">
        <ele>1483</ele>
        <time>2021-08-11T10:22:56.476Z</time>
      </trkpt>
      <trkpt lat="46.86796" lon="8.50871">
        <ele>1484</ele>
        <time>2021-08-11T10:22:57.476Z</time>
      </trkpt>
      <trkpt lat="46.86796" lon="8.50871">
        <ele>1484</ele>
        <time>2021-08-11T10:22:58.475Z</time>
      </trkpt>
      <trkpt lat="46.86795" lon="8.50872">
        <ele>1485</ele>
        <time>2021-08-11T10:22:59.475Z</time>
      </trkpt>
      <trkpt lat="46.86795" lon="8.50872">
        <ele>1485</ele>
        <time>2021-08-11T10:23:00.476Z</time>
      </trkpt>
      <trkpt lat="46.86794" lon="8.50872">
        <ele>1485</ele>
        <time>2021-08-11T10:23:01.476Z</time>
      </trkpt>
      <trkpt lat="46.86794" lon="8.50872">
        <ele>1484</ele>
        <time>2021-08-11T10:23:02.476Z</time>
      </trkpt>
      <trkpt lat="46.86793" lon="8.50873">
        <ele>1484</ele>
        <time>2021-08-11T10:23:03.475Z</time>
      </trkpt>
      <trkpt lat="46.86792" lon="8.50873">
        <ele>1483</ele>
        <time>2021-08-11T10:23:04.476Z</time>
      </trkpt>
      <trkpt lat="46.86791" lon="8.50873">
        <ele>1483</ele>
        <time>2021-08-11T10:23:05.476Z</time>
      </trkpt>
      <trkpt lat="46.8679" lon="8.50874">
        <ele>1483</ele>
        <time>2021-08-11T10:23:06.476Z</time>
      </trkpt>
      <trkpt lat="46.8679" lon="8.50875">
        <ele>1482</ele>
        <time>2021-08-11T10:23:07.476Z</time>
      </trkpt>
      <trkpt lat="46.8679" lon="8.50876">
        <ele>1482</ele>
        <time>2021-08-11T10:23:08.476Z</time>
      </trkpt>
      <trkpt lat="46.8679" lon="8.50876">
        <ele>1482</ele>
        <time>2021-08-11T10:23:09.475Z</time>
      </trkpt>
      <trkpt lat="46.8679" lon="8.50876">
        <ele>1481</ele>
        <time>2021-08-11T10:23:10.476Z</time>
      </trkpt>
      <trkpt lat="46.86789" lon="8.50877">
        <ele>1481</ele>
        <time>2021-08-11T10:23:11.476Z</time>
      </trkpt>
      <trkpt lat="46.86789" lon="8.50878">
        <ele>1481</ele>
        <time>2021-08-11T10:23:12.476Z</time>
      </trkpt>
      <trkpt lat="46.86789" lon="8.50879">
        <ele>1481</ele>
        <time>2021-08-11T10:23:13.475Z</time>
      </trkpt>
      <trkpt lat="46.86788" lon="8.5088">
        <ele>1481</ele>
        <time>2021-08-11T10:23:14.475Z</time>
      </trkpt>
      <trkpt lat="46.86788" lon="8.50881">
        <ele>1481</ele>
        <time>2021-08-11T10:23:15.476Z</time>
      </trkpt>
      <trkpt lat="46.86788" lon="8.50881">
        <ele>1481</ele>
        <time>2021-08-11T10:23:16.476Z</time>
      </trkpt>
      <trkpt lat="46.86787" lon="8.50881">
        <ele>1482</ele>
        <time>2021-08-11T10:23:17.476Z</time>
      </trkpt>
      <trkpt lat="46.86787" lon="8.50882">
        <ele>1483</ele>
        <time>2021-08-11T10:23:18.475Z</time>
      </trkpt>
      <trkpt lat="46.86786" lon="8.50882">
        <ele>1483</ele>
        <time>2021-08-11T10:23:19.475Z</time>
      </trkpt>
      <trkpt lat="46.86786" lon="8.50882">
        <ele>1483</ele>
        <time>2021-08-11T10:23:20.475Z</time>
      </trkpt>
      <trkpt lat="46.86786" lon="8.50883">
        <ele>1483</ele>
        <time>2021-08-11T10:23:21.476Z</time>
      </trkpt>
      <trkpt lat="46.86785" lon="8.50883">
        <ele>1483</ele>
        <time>2021-08-11T10:23:22.476Z</time>
      </trkpt>
      <trkpt lat="46.86785" lon="8.50883">
        <ele>1483</ele>
        <time>2021-08-11T10:23:23.476Z</time>
      </trkpt>
      <trkpt lat="46.86784" lon="8.50882">
        <ele>1482</ele>
        <time>2021-08-11T10:23:24.475Z</time>
      </trkpt>
      <trkpt lat="46.86784" lon="8.50882">
        <ele>1482</ele>
        <time>2021-08-11T10:23:25.475Z</time>
      </trkpt>
      <trkpt lat="46.86784" lon="8.50881">
        <ele>1481</ele>
        <time>2021-08-11T10:23:26.476Z</time>
      </trkpt>
      <trkpt lat="46.86783" lon="8.50881">
        <ele>1481</ele>
        <time>2021-08-11T10:23:27.476Z</time>
      </trkpt>
      <trkpt lat="46.86783" lon="8.5088">
        <ele>1482</ele>
        <time>2021-08-11T10:23:28.476Z</time>
      </trkpt>
      <trkpt lat="46.86783" lon="8.5088">
        <ele>1482</ele>
        <time>2021-08-11T10:23:29.476Z</time>
      </trkpt>
      <trkpt lat="46.86783" lon="8.5088">
        <ele>1482</ele>
        <time>2021-08-11T10:23:30.475Z</time>
      </trkpt>
      <trkpt lat="46.86783" lon="8.50879">
        <ele>1482</ele>
        <time>2021-08-11T10:23:31.476Z</time>
      </trkpt>
      <trkpt lat="46.86783" lon="8.50879">
        <ele>1482</ele>
        <time>2021-08-11T10:23:32.476Z</time>
      </trkpt>
      <trkpt lat="46.86783" lon="8.50878">
        <ele>1483</ele>
        <time>2021-08-11T10:23:33.475Z</time>
      </trkpt>
      <trkpt lat="46.86784" lon="8.50877">
        <ele>1484</ele>
        <time>2021-08-11T10:23:34.476Z</time>
      </trkpt>
      <trkpt lat="46.86784" lon="8.50876">
        <ele>1484</ele>
        <time>2021-08-11T10:23:35.476Z</time>
      </trkpt>
      <trkpt lat="46.86784" lon="8.50875">
        <ele>1485</ele>
        <time>2021-08-11T10:23:36.475Z</time>
      </trkpt>
      <trkpt lat="46.86784" lon="8.50874">
        <ele>1486</ele>
        <time>2021-08-11T10:23:37.476Z</time>
      </trkpt>
      <trkpt lat="46.86785" lon="8.50873">
        <ele>1487</ele>
        <time>2021-08-11T10:23:38.476Z</time>
      </trkpt>
      <trkpt lat="46.86784" lon="8.50871">
        <ele>1487</ele>
        <time>2021-08-11T10:23:39.476Z</time>
      </trkpt>
      <trkpt lat="46.86785" lon="8.50871">
        <ele>1488</ele>
        <time>2021-08-11T10:23:40.476Z</time>
      </trkpt>
      <trkpt lat="46.86785" lon="8.5087">
        <ele>1489</ele>
        <time>2021-08-11T10:23:41.476Z</time>
      </trkpt>
      <trkpt lat="46.86785" lon="8.5087">
        <ele>1489</ele>
        <time>2021-08-11T10:23:42.475Z</time>
      </trkpt>
      <trkpt lat="46.86786" lon="8.50869">
        <ele>1490</ele>
        <time>2021-08-11T10:23:43.476Z</time>
      </trkpt>
      <trkpt lat="46.86786" lon="8.50868">
        <ele>1490</ele>
        <time>2021-08-11T10:23:44.476Z</time>
      </trkpt>
      <trkpt lat="46.86786" lon="8.50868">
        <ele>1490</ele>
        <time>2021-08-11T10:23:45.476Z</time>
      </trkpt>
      <trkpt lat="46.86786" lon="8.50867">
        <ele>1490</ele>
        <time>2021-08-11T10:23:46.475Z</time>
      </trkpt>
      <trkpt lat="46.86786" lon="8.50866">
        <ele>1490</ele>
        <time>2021-08-11T10:23:47.476Z</time>
      </trkpt>
      <trkpt lat="46.86786" lon="8.50865">
        <ele>1491</ele>
        <time>2021-08-11T10:23:48.476Z</time>
      </trkpt>
      <trkpt lat="46.86786" lon="8.50864">
        <ele>1491</ele>
        <time>2021-08-11T10:23:49.476Z</time>
      </trkpt>
      <trkpt lat="46.86786" lon="8.50863">
        <ele>1491</ele>
        <time>2021-08-11T10:23:50.476Z</time>
      </trkpt>
      <trkpt lat="46.86786" lon="8.50862">
        <ele>1491</ele>
        <time>2021-08-11T10:23:51.475Z</time>
      </trkpt>
      <trkpt lat="46.86787" lon="8.50861">
        <ele>1491</ele>
        <time>2021-08-11T10:23:52.476Z</time>
      </trkpt>
      <trkpt lat="46.86787" lon="8.50861">
        <ele>1491</ele>
        <time>2021-08-11T10:23:53.476Z</time>
      </trkpt>
      <trkpt lat="46.86787" lon="8.5086">
        <ele>1491</ele>
        <time>2021-08-11T10:23:54.476Z</time>
      </trkpt>
      <trkpt lat="46.86788" lon="8.50859">
        <ele>1490</ele>
        <time>2021-08-11T10:23:55.476Z</time>
      </trkpt>
      <trkpt lat="46.86788" lon="8.50858">
        <ele>1490</ele>
        <time>2021-08-11T10:23:56.475Z</time>
      </trkpt>
      <trkpt lat="46.86789" lon="8.50857">
        <ele>1490</ele>
        <time>2021-08-11T10:23:57.476Z</time>
      </trkpt>
      <trkpt lat="46.86789" lon="8.50856">
        <ele>1491</ele>
        <time>2021-08-11T10:23:58.476Z</time>
      </trkpt>
      <trkpt lat="46.86789" lon="8.50856">
        <ele>1491</ele>
        <time>2021-08-11T10:23:59.476Z</time>
      </trkpt>
      <trkpt lat="46.8679" lon="8.50855">
        <ele>1492</ele>
        <time>2021-08-11T10:24:00.476Z</time>
      </trkpt>
      <trkpt lat="46.8679" lon="8.50854">
        <ele>1492</ele>
        <time>2021-08-11T10:24:01.475Z</time>
      </trkpt>
      <trkpt lat="46.8679" lon="8.50853">
        <ele>1492</ele>
        <time>2021-08-11T10:24:02.475Z</time>
      </trkpt>
      <trkpt lat="46.86791" lon="8.50852">
        <ele>1492</ele>
        <time>2021-08-11T10:24:03.476Z</time>
      </trkpt>
      <trkpt lat="46.86791" lon="8.50852">
        <ele>1492</ele>
        <time>2021-08-11T10:24:04.476Z</time>
      </trkpt>
      <trkpt lat="46.86791" lon="8.50851">
        <ele>1492</ele>
        <time>2021-08-11T10:24:05.476Z</time>
      </trkpt>
      <trkpt lat="46.86791" lon="8.50851">
        <ele>1492</ele>
        <time>2021-08-11T10:24:06.475Z</time>
      </trkpt>
      <trkpt lat="46.86791" lon="8.5085">
        <ele>1492</ele>
        <time>2021-08-11T10:24:07.475Z</time>
      </trkpt>
      <trkpt lat="46.86792" lon="8.50849">
        <ele>1492</ele>
        <time>2021-08-11T10:24:08.476Z</time>
      </trkpt>
      <trkpt lat="46.86792" lon="8.50849">
        <ele>1492</ele>
        <time>2021-08-11T10:24:09.476Z</time>
      </trkpt>
      <trkpt lat="46.86793" lon="8.50848">
        <ele>1492</ele>
        <time>2021-08-11T10:24:10.476Z</time>
      </trkpt>
      <trkpt lat="46.86793" lon="8.50847">
        <ele>1492</ele>
        <time>2021-08-11T10:24:11.475Z</time>
      </trkpt>
      <trkpt lat="46.86794" lon="8.50846">
        <ele>1492</ele>
        <time>2021-08-11T10:24:12.475Z</time>
      </trkpt>
      <trkpt lat="46.86794" lon="8.50845">
        <ele>1492</ele>
        <time>2021-08-11T10:24:13.475Z</time>
      </trkpt>
      <trkpt lat="46.86794" lon="8.50844">
        <ele>1491</ele>
        <time>2021-08-11T10:24:14.476Z</time>
      </trkpt>
      <trkpt lat="46.86794" lon="8.50843">
        <ele>1492</ele>
        <time>2021-08-11T10:24:15.476Z</time>
      </trkpt>
      <trkpt lat="46.86794" lon="8.50842">
        <ele>1492</ele>
        <time>2021-08-11T10:24:16.476Z</time>
      </trkpt>
      <trkpt lat="46.86794" lon="8.50841">
        <ele>1492</ele>
        <time>2021-08-11T10:24:17.476Z</time>
      </trkpt>
      <trkpt lat="46.86793" lon="8.5084">
        <ele>1492</ele>
        <time>2021-08-11T10:24:18.476Z</time>
      </trkpt>
      <trkpt lat="46.86793" lon="8.50839">
        <ele>1492</ele>
        <time>2021-08-11T10:24:19.475Z</time>
      </trkpt>
      <trkpt lat="46.86793" lon="8.50837">
        <ele>1492</ele>
        <time>2021-08-11T10:24:20.475Z</time>
      </trkpt>
      <trkpt lat="46.86793" lon="8.50836">
        <ele>1493</ele>
        <time>2021-08-11T10:24:21.476Z</time>
      </trkpt>
      <trkpt lat="46.86793" lon="8.50836">
        <ele>1493</ele>
        <time>2021-08-11T10:24:22.476Z</time>
      </trkpt>
      <trkpt lat="46.86793" lon="8.50835">
        <ele>1493</ele>
        <time>2021-08-11T10:24:23.476Z</time>
      </trkpt>
      <trkpt lat="46.86793" lon="8.50834">
        <ele>1493</ele>
        <time>2021-08-11T10:24:24.476Z</time>
      </trkpt>
      <trkpt lat="46.86793" lon="8.50833">
        <ele>1493</ele>
        <time>2021-08-11T10:24:25.475Z</time>
      </trkpt>
      <trkpt lat="46.86793" lon="8.50831">
        <ele>1492</ele>
        <time>2021-08-11T10:24:26.476Z</time>
      </trkpt>
      <trkpt lat="46.86793" lon="8.50831">
        <ele>1492</ele>
        <time>2021-08-11T10:24:27.476Z</time>
      </trkpt>
      <trkpt lat="46.86793" lon="8.5083">
        <ele>1492</ele>
        <time>2021-08-11T10:24:28.476Z</time>
      </trkpt>
      <trkpt lat="46.86793" lon="8.50829">
        <ele>1492</ele>
        <time>2021-08-11T10:24:29.476Z</time>
      </trkpt>
      <trkpt lat="46.86793" lon="8.50828">
        <ele>1492</ele>
        <time>2021-08-11T10:24:30.475Z</time>
      </trkpt>
      <trkpt lat="46.86793" lon="8.50827">
        <ele>1492</ele>
        <time>2021-08-11T10:24:31.476Z</time>
      </trkpt>
      <trkpt lat="46.86794" lon="8.50826">
        <ele>1492</ele>
        <time>2021-08-11T10:24:32.476Z</time>
      </trkpt>
      <trkpt lat="46.86794" lon="8.50825">
        <ele>1492</ele>
        <time>2021-08-11T10:24:33.475Z</time>
      </trkpt>
      <trkpt lat="46.86794" lon="8.50825">
        <ele>1492</ele>
        <time>2021-08-11T10:24:34.476Z</time>
      </trkpt>
      <trkpt lat="46.86795" lon="8.50824">
        <ele>1493</ele>
        <time>2021-08-11T10:24:35.476Z</time>
      </trkpt>
      <trkpt lat="46.86795" lon="8.50824">
        <ele>1493</ele>
        <time>2021-08-11T10:24:36.475Z</time>
      </trkpt>
      <trkpt lat="46.86795" lon="8.50824">
        <ele>1493</ele>
        <time>2021-08-11T10:24:37.476Z</time>
      </trkpt>
      <trkpt lat="46.86796" lon="8.50822">
        <ele>1494</ele>
        <time>2021-08-11T10:24:38.476Z</time>
      </trkpt>
      <trkpt lat="46.86796" lon="8.50822">
        <ele>1494</ele>
        <time>2021-08-11T10:24:39.476Z</time>
      </trkpt>
      <trkpt lat="46.86795" lon="8.50821">
        <ele>1494</ele>
        <time>2021-08-11T10:24:40.476Z</time>
      </trkpt>
      <trkpt lat="46.86795" lon="8.50821">
        <ele>1494</ele>
        <time>2021-08-11T10:24:41.475Z</time>
      </trkpt>
      <trkpt lat="46.86795" lon="8.5082">
        <ele>1494</ele>
        <time>2021-08-11T10:24:42.476Z</time>
      </trkpt>
      <trkpt lat="46.86795" lon="8.50818">
        <ele>1495</ele>
        <time>2021-08-11T10:24:43.476Z</time>
      </trkpt>
      <trkpt lat="46.86795" lon="8.50817">
        <ele>1495</ele>
        <time>2021-08-11T10:24:44.476Z</time>
      </trkpt>
      <trkpt lat="46.86795" lon="8.50815">
        <ele>1495</ele>
        <time>2021-08-11T10:24:45.476Z</time>
      </trkpt>
      <trkpt lat="46.86795" lon="8.50814">
        <ele>1495</ele>
        <time>2021-08-11T10:24:46.475Z</time>
      </trkpt>
      <trkpt lat="46.86794" lon="8.50812">
        <ele>1495</ele>
        <time>2021-08-11T10:24:47.475Z</time>
      </trkpt>
      <trkpt lat="46.86794" lon="8.50812">
        <ele>1496</ele>
        <time>2021-08-11T10:24:48.476Z</time>
      </trkpt>
      <trkpt lat="46.86793" lon="8.50811">
        <ele>1496</ele>
        <time>2021-08-11T10:24:49.476Z</time>
      </trkpt>
      <trkpt lat="46.86793" lon="8.5081">
        <ele>1496</ele>
        <time>2021-08-11T10:24:50.476Z</time>
      </trkpt>
      <trkpt lat="46.86793" lon="8.50809">
        <ele>1496</ele>
        <time>2021-08-11T10:24:51.475Z</time>
      </trkpt>
      <trkpt lat="46.86792" lon="8.50807">
        <ele>1496</ele>
        <time>2021-08-11T10:24:52.475Z</time>
      </trkpt>
      <trkpt lat="46.86792" lon="8.50806">
        <ele>1496</ele>
        <time>2021-08-11T10:24:53.476Z</time>
      </trkpt>
      <trkpt lat="46.86792" lon="8.50805">
        <ele>1496</ele>
        <time>2021-08-11T10:24:54.476Z</time>
      </trkpt>
      <trkpt lat="46.86792" lon="8.50804">
        <ele>1495</ele>
        <time>2021-08-11T10:24:55.476Z</time>
      </trkpt>
      <trkpt lat="46.86792" lon="8.50803">
        <ele>1495</ele>
        <time>2021-08-11T10:24:56.476Z</time>
      </trkpt>
      <trkpt lat="46.86792" lon="8.50803">
        <ele>1495</ele>
        <time>2021-08-11T10:24:57.475Z</time>
      </trkpt>
      <trkpt lat="46.86791" lon="8.50802">
        <ele>1495</ele>
        <time>2021-08-11T10:24:58.476Z</time>
      </trkpt>
      <trkpt lat="46.86791" lon="8.50802">
        <ele>1495</ele>
        <time>2021-08-11T10:24:59.476Z</time>
      </trkpt>
      <trkpt lat="46.86791" lon="8.50801">
        <ele>1496</ele>
        <time>2021-08-11T10:25:00.476Z</time>
      </trkpt>
      <trkpt lat="46.86791" lon="8.508">
        <ele>1497</ele>
        <time>2021-08-11T10:25:18.535Z</time>
      </trkpt>
      <trkpt lat="46.86792" lon="8.50798">
        <ele>1497</ele>
        <time>2021-08-11T10:25:19.534Z</time>
      </trkpt>
      <trkpt lat="46.86792" lon="8.50797">
        <ele>1498</ele>
        <time>2021-08-11T10:25:20.534Z</time>
      </trkpt>
      <trkpt lat="46.86792" lon="8.50797">
        <ele>1498</ele>
        <time>2021-08-11T10:25:21.534Z</time>
      </trkpt>
      <trkpt lat="46.86792" lon="8.50797">
        <ele>1498</ele>
        <time>2021-08-11T10:25:22.534Z</time>
      </trkpt>
      <trkpt lat="46.86792" lon="8.50796">
        <ele>1498</ele>
        <time>2021-08-11T10:25:23.534Z</time>
      </trkpt>
      <trkpt lat="46.86792" lon="8.50795">
        <ele>1499</ele>
        <time>2021-08-11T10:25:24.535Z</time>
      </trkpt>
      <trkpt lat="46.86792" lon="8.50793">
        <ele>1499</ele>
        <time>2021-08-11T10:25:25.535Z</time>
      </trkpt>
      <trkpt lat="46.86792" lon="8.50791">
        <ele>1499</ele>
        <time>2021-08-11T10:25:26.535Z</time>
      </trkpt>
      <trkpt lat="46.86793" lon="8.5079">
        <ele>1499</ele>
        <time>2021-08-11T10:25:27.535Z</time>
      </trkpt>
      <trkpt lat="46.86794" lon="8.50788">
        <ele>1499</ele>
        <time>2021-08-11T10:25:28.534Z</time>
      </trkpt>
      <trkpt lat="46.86794" lon="8.50787">
        <ele>1499</ele>
        <time>2021-08-11T10:25:29.534Z</time>
      </trkpt>
      <trkpt lat="46.86794" lon="8.50786">
        <ele>1499</ele>
        <time>2021-08-11T10:25:30.535Z</time>
      </trkpt>
      <trkpt lat="46.86794" lon="8.50784">
        <ele>1499</ele>
        <time>2021-08-11T10:25:31.535Z</time>
      </trkpt>
      <trkpt lat="46.86794" lon="8.50783">
        <ele>1499</ele>
        <time>2021-08-11T10:25:32.535Z</time>
      </trkpt>
      <trkpt lat="46.86793" lon="8.50781">
        <ele>1499</ele>
        <time>2021-08-11T10:25:33.535Z</time>
      </trkpt>
      <trkpt lat="46.86793" lon="8.5078">
        <ele>1499</ele>
        <time>2021-08-11T10:25:34.534Z</time>
      </trkpt>
      <trkpt lat="46.86793" lon="8.50778">
        <ele>1498</ele>
        <time>2021-08-11T10:25:35.535Z</time>
      </trkpt>
      <trkpt lat="46.86794" lon="8.50777">
        <ele>1498</ele>
        <time>2021-08-11T10:25:36.535Z</time>
      </trkpt>
      <trkpt lat="46.86792" lon="8.50775">
        <ele>1498</ele>
        <time>2021-08-11T10:25:37.535Z</time>
      </trkpt>
      <trkpt lat="46.86792" lon="8.50773">
        <ele>1498</ele>
        <time>2021-08-11T10:25:38.535Z</time>
      </trkpt>
      <trkpt lat="46.86793" lon="8.50772">
        <ele>1498</ele>
        <time>2021-08-11T10:25:39.534Z</time>
      </trkpt>
      <trkpt lat="46.86793" lon="8.5077">
        <ele>1498</ele>
        <time>2021-08-11T10:25:40.535Z</time>
      </trkpt>
      <trkpt lat="46.86792" lon="8.50769">
        <ele>1498</ele>
        <time>2021-08-11T10:25:41.535Z</time>
      </trkpt>
      <trkpt lat="46.86792" lon="8.50767">
        <ele>1498</ele>
        <time>2021-08-11T10:25:42.535Z</time>
      </trkpt>
      <trkpt lat="46.86792" lon="8.50766">
        <ele>1498</ele>
        <time>2021-08-11T10:25:43.535Z</time>
      </trkpt>
      <trkpt lat="46.86793" lon="8.50766">
        <ele>1497</ele>
        <time>2021-08-11T10:25:44.534Z</time>
      </trkpt>
      <trkpt lat="46.86793" lon="8.50765">
        <ele>1498</ele>
        <time>2021-08-11T10:25:45.534Z</time>
      </trkpt>
      <trkpt lat="46.86793" lon="8.50764">
        <ele>1498</ele>
        <time>2021-08-11T10:25:46.535Z</time>
      </trkpt>
      <trkpt lat="46.86793" lon="8.50763">
        <ele>1498</ele>
        <time>2021-08-11T10:25:47.535Z</time>
      </trkpt>
      <trkpt lat="46.86794" lon="8.50762">
        <ele>1498</ele>
        <time>2021-08-11T10:25:48.534Z</time>
      </trkpt>
      <trkpt lat="46.86794" lon="8.50761">
        <ele>1498</ele>
        <time>2021-08-11T10:25:49.534Z</time>
      </trkpt>
      <trkpt lat="46.86794" lon="8.50761">
        <ele>1498</ele>
        <time>2021-08-11T10:25:50.534Z</time>
      </trkpt>
      <trkpt lat="46.86794" lon="8.5076">
        <ele>1498</ele>
        <time>2021-08-11T10:25:51.535Z</time>
      </trkpt>
      <trkpt lat="46.86794" lon="8.50759">
        <ele>1497</ele>
        <time>2021-08-11T10:25:52.535Z</time>
      </trkpt>
      <trkpt lat="46.86794" lon="8.50759">
        <ele>1497</ele>
        <time>2021-08-11T10:25:53.534Z</time>
      </trkpt>
      <trkpt lat="46.86794" lon="8.50758">
        <ele>1498</ele>
        <time>2021-08-11T10:25:54.535Z</time>
      </trkpt>
      <trkpt lat="46.86794" lon="8.50755">
        <ele>1498</ele>
        <time>2021-08-11T10:25:55.535Z</time>
      </trkpt>
      <trkpt lat="46.86794" lon="8.50755">
        <ele>1499</ele>
        <time>2021-08-11T10:25:56.535Z</time>
      </trkpt>
      <trkpt lat="46.86795" lon="8.50754">
        <ele>1500</ele>
        <time>2021-08-11T10:25:57.535Z</time>
      </trkpt>
      <trkpt lat="46.86795" lon="8.50754">
        <ele>1500</ele>
        <time>2021-08-11T10:26:09.502Z</time>
      </trkpt>
      <trkpt lat="46.86795" lon="8.50755">
        <ele>1500</ele>
        <time>2021-08-11T10:26:11.276Z</time>
      </trkpt>
      <trkpt lat="46.86796" lon="8.50755">
        <ele>1501</ele>
        <time>2021-08-11T10:26:12.277Z</time>
      </trkpt>
      <trkpt lat="46.86796" lon="8.50756">
        <ele>1501</ele>
        <time>2021-08-11T10:26:13.277Z</time>
      </trkpt>
      <trkpt lat="46.86797" lon="8.50756">
        <ele>1501</ele>
        <time>2021-08-11T10:26:14.277Z</time>
      </trkpt>
      <trkpt lat="46.86797" lon="8.50755">
        <ele>1501</ele>
        <time>2021-08-11T10:26:15.276Z</time>
      </trkpt>
      <trkpt lat="46.86797" lon="8.50755">
        <ele>1502</ele>
        <time>2021-08-11T10:26:16.276Z</time>
      </trkpt>
      <trkpt lat="46.86797" lon="8.50755">
        <ele>1503</ele>
        <time>2021-08-11T10:26:17.277Z</time>
      </trkpt>
      <trkpt lat="46.86797" lon="8.50754">
        <ele>1503</ele>
        <time>2021-08-11T10:26:18.277Z</time>
      </trkpt>
      <trkpt lat="46.86798" lon="8.50754">
        <ele>1504</ele>
        <time>2021-08-11T10:26:19.277Z</time>
      </trkpt>
      <trkpt lat="46.86798" lon="8.50754">
        <ele>1505</ele>
        <time>2021-08-11T10:26:20.277Z</time>
      </trkpt>
      <trkpt lat="46.86798" lon="8.50753">
        <ele>1505</ele>
        <time>2021-08-11T10:26:21.276Z</time>
      </trkpt>
      <trkpt lat="46.86798" lon="8.5075">
        <ele>1506</ele>
        <time>2021-08-11T10:26:22.277Z</time>
      </trkpt>
      <trkpt lat="46.86799" lon="8.5075">
        <ele>1507</ele>
        <time>2021-08-11T10:26:23.277Z</time>
      </trkpt>
      <trkpt lat="46.86799" lon="8.5075">
        <ele>1507</ele>
        <time>2021-08-11T10:26:24.277Z</time>
      </trkpt>
      <trkpt lat="46.868" lon="8.5075">
        <ele>1507</ele>
        <time>2021-08-11T10:26:25.277Z</time>
      </trkpt>
      <trkpt lat="46.868" lon="8.50749">
        <ele>1507</ele>
        <time>2021-08-11T10:26:26.277Z</time>
      </trkpt>
      <trkpt lat="46.86802" lon="8.50751">
        <ele>1507</ele>
        <time>2021-08-11T10:26:27.277Z</time>
      </trkpt>
      <trkpt lat="46.86803" lon="8.50751">
        <ele>1507</ele>
        <time>2021-08-11T10:26:28.278Z</time>
      </trkpt>
      <trkpt lat="46.86803" lon="8.50751">
        <ele>1507</ele>
        <time>2021-08-11T10:26:29.277Z</time>
      </trkpt>
      <trkpt lat="46.86803" lon="8.5075">
        <ele>1507</ele>
        <time>2021-08-11T10:26:30.277Z</time>
      </trkpt>
      <trkpt lat="46.86803" lon="8.5075">
        <ele>1508</ele>
        <time>2021-08-11T10:26:31.277Z</time>
      </trkpt>
      <trkpt lat="46.86803" lon="8.50749">
        <ele>1508</ele>
        <time>2021-08-11T10:26:32.277Z</time>
      </trkpt>
      <trkpt lat="46.86805" lon="8.50747">
        <ele>1508</ele>
        <time>2021-08-11T10:26:33.278Z</time>
      </trkpt>
      <trkpt lat="46.86806" lon="8.50746">
        <ele>1509</ele>
        <time>2021-08-11T10:26:34.278Z</time>
      </trkpt>
      <trkpt lat="46.86807" lon="8.50745">
        <ele>1509</ele>
        <time>2021-08-11T10:26:35.278Z</time>
      </trkpt>
      <trkpt lat="46.86808" lon="8.50745">
        <ele>1509</ele>
        <time>2021-08-11T10:26:36.278Z</time>
      </trkpt>
      <trkpt lat="46.86809" lon="8.50745">
        <ele>1510</ele>
        <time>2021-08-11T10:26:37.277Z</time>
      </trkpt>
      <trkpt lat="46.86809" lon="8.50746">
        <ele>1510</ele>
        <time>2021-08-11T10:26:38.278Z</time>
      </trkpt>
      <trkpt lat="46.8681" lon="8.50746">
        <ele>1511</ele>
        <time>2021-08-11T10:26:39.278Z</time>
      </trkpt>
      <trkpt lat="46.86811" lon="8.50746">
        <ele>1512</ele>
        <time>2021-08-11T10:26:40.278Z</time>
      </trkpt>
      <trkpt lat="46.86811" lon="8.50746">
        <ele>1512</ele>
        <time>2021-08-11T10:26:41.278Z</time>
      </trkpt>
      <trkpt lat="46.86812" lon="8.50746">
        <ele>1513</ele>
        <time>2021-08-11T10:26:42.277Z</time>
      </trkpt>
      <trkpt lat="46.86812" lon="8.50746">
        <ele>1513</ele>
        <time>2021-08-11T10:26:43.278Z</time>
      </trkpt>
      <trkpt lat="46.86813" lon="8.50746">
        <ele>1514</ele>
        <time>2021-08-11T10:26:44.278Z</time>
      </trkpt>
      <trkpt lat="46.86813" lon="8.50745">
        <ele>1514</ele>
        <time>2021-08-11T10:26:45.278Z</time>
      </trkpt>
      <trkpt lat="46.86814" lon="8.50745">
        <ele>1514</ele>
        <time>2021-08-11T10:26:46.278Z</time>
      </trkpt>
      <trkpt lat="46.86814" lon="8.50745">
        <ele>1514</ele>
        <time>2021-08-11T10:26:47.277Z</time>
      </trkpt>
      <trkpt lat="46.86815" lon="8.50745">
        <ele>1514</ele>
        <time>2021-08-11T10:26:48.277Z</time>
      </trkpt>
      <trkpt lat="46.86815" lon="8.50744">
        <ele>1514</ele>
        <time>2021-08-11T10:26:49.277Z</time>
      </trkpt>
      <trkpt lat="46.86815" lon="8.50744">
        <ele>1514</ele>
        <time>2021-08-11T10:26:50.278Z</time>
      </trkpt>
      <trkpt lat="46.86816" lon="8.50745">
        <ele>1513</ele>
        <time>2021-08-11T10:26:51.278Z</time>
      </trkpt>
      <trkpt lat="46.86818" lon="8.50745">
        <ele>1513</ele>
        <time>2021-08-11T10:26:52.278Z</time>
      </trkpt>
      <trkpt lat="46.86818" lon="8.50745">
        <ele>1513</ele>
        <time>2021-08-11T10:26:53.278Z</time>
      </trkpt>
      <trkpt lat="46.8682" lon="8.50743">
        <ele>1513</ele>
        <time>2021-08-11T10:26:54.277Z</time>
      </trkpt>
      <trkpt lat="46.86821" lon="8.50743">
        <ele>1513</ele>
        <time>2021-08-11T10:26:55.278Z</time>
      </trkpt>
      <trkpt lat="46.8682" lon="8.50742">
        <ele>1513</ele>
        <time>2021-08-11T10:26:56.278Z</time>
      </trkpt>
      <trkpt lat="46.8682" lon="8.50742">
        <ele>1513</ele>
        <time>2021-08-11T10:26:57.278Z</time>
      </trkpt>
      <trkpt lat="46.86821" lon="8.50741">
        <ele>1513</ele>
        <time>2021-08-11T10:26:58.278Z</time>
      </trkpt>
      <trkpt lat="46.86821" lon="8.50741">
        <ele>1513</ele>
        <time>2021-08-11T10:26:59.277Z</time>
      </trkpt>
      <trkpt lat="46.86822" lon="8.5074">
        <ele>1513</ele>
        <time>2021-08-11T10:27:00.277Z</time>
      </trkpt>
      <trkpt lat="46.86822" lon="8.50739">
        <ele>1513</ele>
        <time>2021-08-11T10:27:01.278Z</time>
      </trkpt>
      <trkpt lat="46.86823" lon="8.50739">
        <ele>1513</ele>
        <time>2021-08-11T10:27:02.278Z</time>
      </trkpt>
      <trkpt lat="46.86823" lon="8.50738">
        <ele>1513</ele>
        <time>2021-08-11T10:27:03.278Z</time>
      </trkpt>
      <trkpt lat="46.86823" lon="8.50736">
        <ele>1513</ele>
        <time>2021-08-11T10:27:04.277Z</time>
      </trkpt>
      <trkpt lat="46.86824" lon="8.50735">
        <ele>1513</ele>
        <time>2021-08-11T10:27:05.277Z</time>
      </trkpt>
      <trkpt lat="46.86824" lon="8.50734">
        <ele>1513</ele>
        <time>2021-08-11T10:27:06.278Z</time>
      </trkpt>
      <trkpt lat="46.86824" lon="8.50733">
        <ele>1513</ele>
        <time>2021-08-11T10:27:07.278Z</time>
      </trkpt>
      <trkpt lat="46.86825" lon="8.50732">
        <ele>1513</ele>
        <time>2021-08-11T10:27:08.277Z</time>
      </trkpt>
      <trkpt lat="46.86825" lon="8.50731">
        <ele>1513</ele>
        <time>2021-08-11T10:27:09.278Z</time>
      </trkpt>
      <trkpt lat="46.86825" lon="8.50731">
        <ele>1513</ele>
        <time>2021-08-11T10:27:10.278Z</time>
      </trkpt>
      <trkpt lat="46.86826" lon="8.50731">
        <ele>1514</ele>
        <time>2021-08-11T10:27:11.278Z</time>
      </trkpt>
      <trkpt lat="46.86826" lon="8.5073">
        <ele>1514</ele>
        <time>2021-08-11T10:27:12.277Z</time>
      </trkpt>
      <trkpt lat="46.86826" lon="8.50729">
        <ele>1515</ele>
        <time>2021-08-11T10:27:13.278Z</time>
      </trkpt>
      <trkpt lat="46.86826" lon="8.50727">
        <ele>1515</ele>
        <time>2021-08-11T10:27:14.278Z</time>
      </trkpt>
      <trkpt lat="46.86826" lon="8.50725">
        <ele>1515</ele>
        <time>2021-08-11T10:27:15.278Z</time>
      </trkpt>
      <trkpt lat="46.86826" lon="8.50724">
        <ele>1515</ele>
        <time>2021-08-11T10:27:16.278Z</time>
      </trkpt>
      <trkpt lat="46.86826" lon="8.50724">
        <ele>1515</ele>
        <time>2021-08-11T10:27:17.277Z</time>
      </trkpt>
      <trkpt lat="46.86827" lon="8.50724">
        <ele>1515</ele>
        <time>2021-08-11T10:27:18.277Z</time>
      </trkpt>
      <trkpt lat="46.86827" lon="8.50724">
        <ele>1515</ele>
        <time>2021-08-11T10:27:19.278Z</time>
      </trkpt>
      <trkpt lat="46.86828" lon="8.50723">
        <ele>1515</ele>
        <time>2021-08-11T10:27:20.277Z</time>
      </trkpt>
      <trkpt lat="46.86828" lon="8.50723">
        <ele>1516</ele>
        <time>2021-08-11T10:27:21.278Z</time>
      </trkpt>
      <trkpt lat="46.86828" lon="8.50722">
        <ele>1516</ele>
        <time>2021-08-11T10:27:22.278Z</time>
      </trkpt>
      <trkpt lat="46.86828" lon="8.50721">
        <ele>1517</ele>
        <time>2021-08-11T10:27:23.278Z</time>
      </trkpt>
      <trkpt lat="46.86829" lon="8.5072">
        <ele>1517</ele>
        <time>2021-08-11T10:27:24.278Z</time>
      </trkpt>
      <trkpt lat="46.8683" lon="8.50719">
        <ele>1517</ele>
        <time>2021-08-11T10:27:25.278Z</time>
      </trkpt>
      <trkpt lat="46.8683" lon="8.50719">
        <ele>1517</ele>
        <time>2021-08-11T10:27:26.277Z</time>
      </trkpt>
      <trkpt lat="46.8683" lon="8.50718">
        <ele>1518</ele>
        <time>2021-08-11T10:27:27.278Z</time>
      </trkpt>
      <trkpt lat="46.8683" lon="8.50717">
        <ele>1517</ele>
        <time>2021-08-11T10:27:28.278Z</time>
      </trkpt>
      <trkpt lat="46.8683" lon="8.50716">
        <ele>1517</ele>
        <time>2021-08-11T10:27:29.278Z</time>
      </trkpt>
      <trkpt lat="46.8683" lon="8.50715">
        <ele>1517</ele>
        <time>2021-08-11T10:27:30.278Z</time>
      </trkpt>
      <trkpt lat="46.86829" lon="8.50714">
        <ele>1516</ele>
        <time>2021-08-11T10:27:31.278Z</time>
      </trkpt>
      <trkpt lat="46.86828" lon="8.50713">
        <ele>1516</ele>
        <time>2021-08-11T10:27:32.277Z</time>
      </trkpt>
      <trkpt lat="46.86827" lon="8.50712">
        <ele>1515</ele>
        <time>2021-08-11T10:27:33.278Z</time>
      </trkpt>
      <trkpt lat="46.86826" lon="8.50712">
        <ele>1515</ele>
        <time>2021-08-11T10:27:34.278Z</time>
      </trkpt>
      <trkpt lat="46.86826" lon="8.50712">
        <ele>1515</ele>
        <time>2021-08-11T10:27:35.278Z</time>
      </trkpt>
      <trkpt lat="46.86825" lon="8.50712">
        <ele>1515</ele>
        <time>2021-08-11T10:27:36.278Z</time>
      </trkpt>
      <trkpt lat="46.86824" lon="8.50712">
        <ele>1515</ele>
        <time>2021-08-11T10:27:37.278Z</time>
      </trkpt>
      <trkpt lat="46.86824" lon="8.50711">
        <ele>1515</ele>
        <time>2021-08-11T10:27:38.278Z</time>
      </trkpt>
      <trkpt lat="46.86823" lon="8.50712">
        <ele>1514</ele>
        <time>2021-08-11T10:27:39.277Z</time>
      </trkpt>
      <trkpt lat="46.86823" lon="8.50712">
        <ele>1514</ele>
        <time>2021-08-11T10:27:40.277Z</time>
      </trkpt>
      <trkpt lat="46.86822" lon="8.50713">
        <ele>1513</ele>
        <time>2021-08-11T10:27:41.278Z</time>
      </trkpt>
      <trkpt lat="46.86822" lon="8.50713">
        <ele>1512</ele>
        <time>2021-08-11T10:27:42.277Z</time>
      </trkpt>
      <trkpt lat="46.86822" lon="8.50713">
        <ele>1512</ele>
        <time>2021-08-11T10:27:43.278Z</time>
      </trkpt>
      <trkpt lat="46.86821" lon="8.50713">
        <ele>1512</ele>
        <time>2021-08-11T10:27:44.278Z</time>
      </trkpt>
      <trkpt lat="46.8682" lon="8.50713">
        <ele>1511</ele>
        <time>2021-08-11T10:27:45.278Z</time>
      </trkpt>
      <trkpt lat="46.86819" lon="8.50713">
        <ele>1511</ele>
        <time>2021-08-11T10:27:46.278Z</time>
      </trkpt>
      <trkpt lat="46.86818" lon="8.50713">
        <ele>1511</ele>
        <time>2021-08-11T10:27:47.278Z</time>
      </trkpt>
      <trkpt lat="46.86818" lon="8.50713">
        <ele>1511</ele>
        <time>2021-08-11T10:27:48.277Z</time>
      </trkpt>
      <trkpt lat="46.86817" lon="8.50713">
        <ele>1512</ele>
        <time>2021-08-11T10:27:49.278Z</time>
      </trkpt>
      <trkpt lat="46.86816" lon="8.50713">
        <ele>1512</ele>
        <time>2021-08-11T10:27:50.278Z</time>
      </trkpt>
      <trkpt lat="46.86815" lon="8.50713">
        <ele>1512</ele>
        <time>2021-08-11T10:27:51.277Z</time>
      </trkpt>
      <trkpt lat="46.86815" lon="8.50713">
        <ele>1512</ele>
        <time>2021-08-11T10:27:52.278Z</time>
      </trkpt>
      <trkpt lat="46.86815" lon="8.50712">
        <ele>1512</ele>
        <time>2021-08-11T10:27:53.278Z</time>
      </trkpt>
      <trkpt lat="46.86814" lon="8.50712">
        <ele>1513</ele>
        <time>2021-08-11T10:27:54.277Z</time>
      </trkpt>
      <trkpt lat="46.86813" lon="8.50711">
        <ele>1513</ele>
        <time>2021-08-11T10:27:55.277Z</time>
      </trkpt>
      <trkpt lat="46.86812" lon="8.5071">
        <ele>1513</ele>
        <time>2021-08-11T10:27:56.278Z</time>
      </trkpt>
      <trkpt lat="46.86812" lon="8.5071">
        <ele>1513</ele>
        <time>2021-08-11T10:27:57.277Z</time>
      </trkpt>
      <trkpt lat="46.86811" lon="8.50709">
        <ele>1513</ele>
        <time>2021-08-11T10:27:58.278Z</time>
      </trkpt>
      <trkpt lat="46.86811" lon="8.5071">
        <ele>1513</ele>
        <time>2021-08-11T10:27:59.278Z</time>
      </trkpt>
      <trkpt lat="46.86811" lon="8.5071">
        <ele>1513</ele>
        <time>2021-08-11T10:28:00.277Z</time>
      </trkpt>
      <trkpt lat="46.8681" lon="8.50709">
        <ele>1513</ele>
        <time>2021-08-11T10:28:01.278Z</time>
      </trkpt>
      <trkpt lat="46.86809" lon="8.50709">
        <ele>1514</ele>
        <time>2021-08-11T10:28:02.278Z</time>
      </trkpt>
      <trkpt lat="46.86809" lon="8.5071">
        <ele>1514</ele>
        <time>2021-08-11T10:28:03.277Z</time>
      </trkpt>
      <trkpt lat="46.86808" lon="8.50709">
        <ele>1513</ele>
        <time>2021-08-11T10:28:04.278Z</time>
      </trkpt>
      <trkpt lat="46.86807" lon="8.50709">
        <ele>1513</ele>
        <time>2021-08-11T10:28:05.278Z</time>
      </trkpt>
      <trkpt lat="46.86807" lon="8.50708">
        <ele>1513</ele>
        <time>2021-08-11T10:28:06.277Z</time>
      </trkpt>
      <trkpt lat="46.86806" lon="8.50708">
        <ele>1512</ele>
        <time>2021-08-11T10:28:07.278Z</time>
      </trkpt>
      <trkpt lat="46.86805" lon="8.50708">
        <ele>1512</ele>
        <time>2021-08-11T10:28:08.278Z</time>
      </trkpt>
      <trkpt lat="46.86804" lon="8.50708">
        <ele>1511</ele>
        <time>2021-08-11T10:28:09.277Z</time>
      </trkpt>
      <trkpt lat="46.86803" lon="8.50707">
        <ele>1511</ele>
        <time>2021-08-11T10:28:10.277Z</time>
      </trkpt>
      <trkpt lat="46.86802" lon="8.50707">
        <ele>1510</ele>
        <time>2021-08-11T10:28:11.277Z</time>
      </trkpt>
      <trkpt lat="46.86802" lon="8.50706">
        <ele>1510</ele>
        <time>2021-08-11T10:28:12.278Z</time>
      </trkpt>
      <trkpt lat="46.86802" lon="8.50706">
        <ele>1510</ele>
        <time>2021-08-11T10:28:13.277Z</time>
      </trkpt>
      <trkpt lat="46.86801" lon="8.50706">
        <ele>1509</ele>
        <time>2021-08-11T10:28:14.278Z</time>
      </trkpt>
      <trkpt lat="46.86801" lon="8.50705">
        <ele>1509</ele>
        <time>2021-08-11T10:28:15.278Z</time>
      </trkpt>
      <trkpt lat="46.868" lon="8.50705">
        <ele>1509</ele>
        <time>2021-08-11T10:28:16.277Z</time>
      </trkpt>
      <trkpt lat="46.868" lon="8.50705">
        <ele>1509</ele>
        <time>2021-08-11T10:28:17.278Z</time>
      </trkpt>
      <trkpt lat="46.86799" lon="8.50705">
        <ele>1508</ele>
        <time>2021-08-11T10:28:18.278Z</time>
      </trkpt>
      <trkpt lat="46.86799" lon="8.50706">
        <ele>1508</ele>
        <time>2021-08-11T10:28:19.278Z</time>
      </trkpt>
      <trkpt lat="46.86798" lon="8.50706">
        <ele>1508</ele>
        <time>2021-08-11T10:28:20.278Z</time>
      </trkpt>
      <trkpt lat="46.86797" lon="8.50706">
        <ele>1507</ele>
        <time>2021-08-11T10:28:21.278Z</time>
      </trkpt>
      <trkpt lat="46.86796" lon="8.50706">
        <ele>1507</ele>
        <time>2021-08-11T10:28:22.278Z</time>
      </trkpt>
      <trkpt lat="46.86795" lon="8.50706">
        <ele>1507</ele>
        <time>2021-08-11T10:28:23.278Z</time>
      </trkpt>
      <trkpt lat="46.86795" lon="8.50706">
        <ele>1507</ele>
        <time>2021-08-11T10:28:24.278Z</time>
      </trkpt>
      <trkpt lat="46.86795" lon="8.50705">
        <ele>1507</ele>
        <time>2021-08-11T10:28:25.278Z</time>
      </trkpt>
      <trkpt lat="46.86794" lon="8.50706">
        <ele>1508</ele>
        <time>2021-08-11T10:28:26.278Z</time>
      </trkpt>
      <trkpt lat="46.86794" lon="8.50705">
        <ele>1508</ele>
        <time>2021-08-11T10:28:27.277Z</time>
      </trkpt>
      <trkpt lat="46.86793" lon="8.50705">
        <ele>1509</ele>
        <time>2021-08-11T10:28:28.278Z</time>
      </trkpt>
      <trkpt lat="46.86793" lon="8.50705">
        <ele>1509</ele>
        <time>2021-08-11T10:28:29.278Z</time>
      </trkpt>
      <trkpt lat="46.86792" lon="8.50705">
        <ele>1509</ele>
        <time>2021-08-11T10:28:30.277Z</time>
      </trkpt>
      <trkpt lat="46.86791" lon="8.50705">
        <ele>1510</ele>
        <time>2021-08-11T10:28:31.278Z</time>
      </trkpt>
      <trkpt lat="46.86791" lon="8.50704">
        <ele>1510</ele>
        <time>2021-08-11T10:28:32.278Z</time>
      </trkpt>
      <trkpt lat="46.8679" lon="8.50704">
        <ele>1510</ele>
        <time>2021-08-11T10:28:33.277Z</time>
      </trkpt>
      <trkpt lat="46.8679" lon="8.50704">
        <ele>1510</ele>
        <time>2021-08-11T10:28:34.278Z</time>
      </trkpt>
      <trkpt lat="46.86789" lon="8.50703">
        <ele>1510</ele>
        <time>2021-08-11T10:28:35.278Z</time>
      </trkpt>
      <trkpt lat="46.86789" lon="8.50703">
        <ele>1510</ele>
        <time>2021-08-11T10:28:36.278Z</time>
      </trkpt>
      <trkpt lat="46.86788" lon="8.50703">
        <ele>1511</ele>
        <time>2021-08-11T10:28:37.278Z</time>
      </trkpt>
      <trkpt lat="46.86788" lon="8.50702">
        <ele>1510</ele>
        <time>2021-08-11T10:28:38.278Z</time>
      </trkpt>
      <trkpt lat="46.86787" lon="8.50701">
        <ele>1510</ele>
        <time>2021-08-11T10:28:39.277Z</time>
      </trkpt>
      <trkpt lat="46.86787" lon="8.50701">
        <ele>1510</ele>
        <time>2021-08-11T10:28:40.278Z</time>
      </trkpt>
      <trkpt lat="46.86786" lon="8.50701">
        <ele>1509</ele>
        <time>2021-08-11T10:28:41.278Z</time>
      </trkpt>
      <trkpt lat="46.86785" lon="8.507">
        <ele>1508</ele>
        <time>2021-08-11T10:28:42.277Z</time>
      </trkpt>
      <trkpt lat="46.86785" lon="8.50699">
        <ele>1508</ele>
        <time>2021-08-11T10:28:43.278Z</time>
      </trkpt>
      <trkpt lat="46.86784" lon="8.50698">
        <ele>1507</ele>
        <time>2021-08-11T10:28:44.278Z</time>
      </trkpt>
      <trkpt lat="46.86784" lon="8.50698">
        <ele>1506</ele>
        <time>2021-08-11T10:28:45.277Z</time>
      </trkpt>
      <trkpt lat="46.86783" lon="8.50698">
        <ele>1506</ele>
        <time>2021-08-11T10:28:46.278Z</time>
      </trkpt>
      <trkpt lat="46.86783" lon="8.50698">
        <ele>1505</ele>
        <time>2021-08-11T10:28:47.278Z</time>
      </trkpt>
      <trkpt lat="46.86782" lon="8.50697">
        <ele>1505</ele>
        <time>2021-08-11T10:28:48.277Z</time>
      </trkpt>
      <trkpt lat="46.86782" lon="8.50697">
        <ele>1504</ele>
        <time>2021-08-11T10:28:49.277Z</time>
      </trkpt>
      <trkpt lat="46.86781" lon="8.50697">
        <ele>1503</ele>
        <time>2021-08-11T10:28:50.278Z</time>
      </trkpt>
      <trkpt lat="46.8678" lon="8.50697">
        <ele>1503</ele>
        <time>2021-08-11T10:28:51.277Z</time>
      </trkpt>
      <trkpt lat="46.8678" lon="8.50697">
        <ele>1503</ele>
        <time>2021-08-11T10:28:52.278Z</time>
      </trkpt>
      <trkpt lat="46.86779" lon="8.50698">
        <ele>1503</ele>
        <time>2021-08-11T10:28:53.278Z</time>
      </trkpt>
      <trkpt lat="46.86779" lon="8.50698">
        <ele>1503</ele>
        <time>2021-08-11T10:28:54.277Z</time>
      </trkpt>
      <trkpt lat="46.86779" lon="8.50697">
        <ele>1504</ele>
        <time>2021-08-11T10:28:55.278Z</time>
      </trkpt>
      <trkpt lat="46.86778" lon="8.50697">
        <ele>1505</ele>
        <time>2021-08-11T10:28:56.278Z</time>
      </trkpt>
      <trkpt lat="46.86778" lon="8.50696">
        <ele>1506</ele>
        <time>2021-08-11T10:28:57.277Z</time>
      </trkpt>
      <trkpt lat="46.86779" lon="8.50695">
        <ele>1507</ele>
        <time>2021-08-11T10:28:58.278Z</time>
      </trkpt>
      <trkpt lat="46.86779" lon="8.50694">
        <ele>1508</ele>
        <time>2021-08-11T10:28:59.278Z</time>
      </trkpt>
      <trkpt lat="46.86779" lon="8.50695">
        <ele>1509</ele>
        <time>2021-08-11T10:29:00.278Z</time>
      </trkpt>
      <trkpt lat="46.86779" lon="8.50696">
        <ele>1510</ele>
        <time>2021-08-11T10:29:01.278Z</time>
      </trkpt>
      <trkpt lat="46.8678" lon="8.50697">
        <ele>1511</ele>
        <time>2021-08-11T10:29:02.278Z</time>
      </trkpt>
      <trkpt lat="46.86781" lon="8.50697">
        <ele>1513</ele>
        <time>2021-08-11T10:29:03.277Z</time>
      </trkpt>
      <trkpt lat="46.86781" lon="8.50696">
        <ele>1514</ele>
        <time>2021-08-11T10:29:04.278Z</time>
      </trkpt>
      <trkpt lat="46.86781" lon="8.50696">
        <ele>1514</ele>
        <time>2021-08-11T10:29:05.278Z</time>
      </trkpt>
      <trkpt lat="46.86782" lon="8.50695">
        <ele>1515</ele>
        <time>2021-08-11T10:29:06.278Z</time>
      </trkpt>
      <trkpt lat="46.86782" lon="8.50695">
        <ele>1515</ele>
        <time>2021-08-11T10:29:07.278Z</time>
      </trkpt>
      <trkpt lat="46.86782" lon="8.50694">
        <ele>1515</ele>
        <time>2021-08-11T10:29:08.278Z</time>
      </trkpt>
      <trkpt lat="46.86783" lon="8.50694">
        <ele>1515</ele>
        <time>2021-08-11T10:29:09.278Z</time>
      </trkpt>
      <trkpt lat="46.86783" lon="8.50694">
        <ele>1514</ele>
        <time>2021-08-11T10:29:10.278Z</time>
      </trkpt>
      <trkpt lat="46.86784" lon="8.50693">
        <ele>1514</ele>
        <time>2021-08-11T10:29:11.278Z</time>
      </trkpt>
      <trkpt lat="46.86784" lon="8.50693">
        <ele>1514</ele>
        <time>2021-08-11T10:29:12.277Z</time>
      </trkpt>
      <trkpt lat="46.86785" lon="8.50694">
        <ele>1515</ele>
        <time>2021-08-11T10:29:13.277Z</time>
      </trkpt>
      <trkpt lat="46.86785" lon="8.50694">
        <ele>1515</ele>
        <time>2021-08-11T10:29:14.277Z</time>
      </trkpt>
      <trkpt lat="46.86786" lon="8.50693">
        <ele>1515</ele>
        <time>2021-08-11T10:29:15.277Z</time>
      </trkpt>
      <trkpt lat="46.86786" lon="8.50693">
        <ele>1515</ele>
        <time>2021-08-11T10:29:16.277Z</time>
      </trkpt>
      <trkpt lat="46.86787" lon="8.50693">
        <ele>1515</ele>
        <time>2021-08-11T10:29:17.278Z</time>
      </trkpt>
      <trkpt lat="46.86787" lon="8.50693">
        <ele>1515</ele>
        <time>2021-08-11T10:29:18.278Z</time>
      </trkpt>
      <trkpt lat="46.86788" lon="8.50692">
        <ele>1515</ele>
        <time>2021-08-11T10:29:19.278Z</time>
      </trkpt>
      <trkpt lat="46.86788" lon="8.50691">
        <ele>1515</ele>
        <time>2021-08-11T10:29:20.278Z</time>
      </trkpt>
      <trkpt lat="46.86788" lon="8.50691">
        <ele>1515</ele>
        <time>2021-08-11T10:29:21.278Z</time>
      </trkpt>
      <trkpt lat="46.86789" lon="8.5069">
        <ele>1515</ele>
        <time>2021-08-11T10:29:22.278Z</time>
      </trkpt>
      <trkpt lat="46.8679" lon="8.5069">
        <ele>1515</ele>
        <time>2021-08-11T10:29:23.278Z</time>
      </trkpt>
      <trkpt lat="46.8679" lon="8.50689">
        <ele>1514</ele>
        <time>2021-08-11T10:29:24.278Z</time>
      </trkpt>
      <trkpt lat="46.86791" lon="8.50688">
        <ele>1514</ele>
        <time>2021-08-11T10:29:25.278Z</time>
      </trkpt>
      <trkpt lat="46.86792" lon="8.50688">
        <ele>1514</ele>
        <time>2021-08-11T10:29:26.277Z</time>
      </trkpt>
      <trkpt lat="46.86792" lon="8.50688">
        <ele>1514</ele>
        <time>2021-08-11T10:29:27.277Z</time>
      </trkpt>
      <trkpt lat="46.86793" lon="8.50687">
        <ele>1514</ele>
        <time>2021-08-11T10:29:28.278Z</time>
      </trkpt>
      <trkpt lat="46.86794" lon="8.50686">
        <ele>1514</ele>
        <time>2021-08-11T10:29:29.277Z</time>
      </trkpt>
      <trkpt lat="46.86795" lon="8.50685">
        <ele>1514</ele>
        <time>2021-08-11T10:29:30.278Z</time>
      </trkpt>
      <trkpt lat="46.86795" lon="8.50685">
        <ele>1513</ele>
        <time>2021-08-11T10:29:31.278Z</time>
      </trkpt>
      <trkpt lat="46.86796" lon="8.50684">
        <ele>1513</ele>
        <time>2021-08-11T10:29:32.277Z</time>
      </trkpt>
      <trkpt lat="46.86797" lon="8.50683">
        <ele>1513</ele>
        <time>2021-08-11T10:29:33.278Z</time>
      </trkpt>
      <trkpt lat="46.86797" lon="8.50683">
        <ele>1513</ele>
        <time>2021-08-11T10:29:34.278Z</time>
      </trkpt>
      <trkpt lat="46.86798" lon="8.50682">
        <ele>1514</ele>
        <time>2021-08-11T10:29:35.277Z</time>
      </trkpt>
      <trkpt lat="46.86798" lon="8.50681">
        <ele>1515</ele>
        <time>2021-08-11T10:29:36.278Z</time>
      </trkpt>
      <trkpt lat="46.86798" lon="8.5068">
        <ele>1516</ele>
        <time>2021-08-11T10:29:37.278Z</time>
      </trkpt>
      <trkpt lat="46.86799" lon="8.5068">
        <ele>1516</ele>
        <time>2021-08-11T10:29:38.277Z</time>
      </trkpt>
      <trkpt lat="46.86799" lon="8.5068">
        <ele>1517</ele>
        <time>2021-08-11T10:29:39.278Z</time>
      </trkpt>
      <trkpt lat="46.868" lon="8.50679">
        <ele>1517</ele>
        <time>2021-08-11T10:29:40.278Z</time>
      </trkpt>
      <trkpt lat="46.868" lon="8.50678">
        <ele>1518</ele>
        <time>2021-08-11T10:29:41.277Z</time>
      </trkpt>
      <trkpt lat="46.86801" lon="8.50678">
        <ele>1519</ele>
        <time>2021-08-11T10:29:42.278Z</time>
      </trkpt>
      <trkpt lat="46.86801" lon="8.50678">
        <ele>1520</ele>
        <time>2021-08-11T10:29:43.278Z</time>
      </trkpt>
      <trkpt lat="46.86802" lon="8.50677">
        <ele>1521</ele>
        <time>2021-08-11T10:29:44.277Z</time>
      </trkpt>
      <trkpt lat="46.86802" lon="8.50677">
        <ele>1521</ele>
        <time>2021-08-11T10:29:45.278Z</time>
      </trkpt>
      <trkpt lat="46.86803" lon="8.50676">
        <ele>1522</ele>
        <time>2021-08-11T10:29:46.278Z</time>
      </trkpt>
      <trkpt lat="46.86803" lon="8.50676">
        <ele>1522</ele>
        <time>2021-08-11T10:29:47.277Z</time>
      </trkpt>
      <trkpt lat="46.86804" lon="8.50675">
        <ele>1523</ele>
        <time>2021-08-11T10:29:48.278Z</time>
      </trkpt>
      <trkpt lat="46.86804" lon="8.50674">
        <ele>1523</ele>
        <time>2021-08-11T10:29:49.278Z</time>
      </trkpt>
      <trkpt lat="46.86805" lon="8.50673">
        <ele>1523</ele>
        <time>2021-08-11T10:29:50.277Z</time>
      </trkpt>
      <trkpt lat="46.86805" lon="8.50673">
        <ele>1524</ele>
        <time>2021-08-11T10:29:51.278Z</time>
      </trkpt>
      <trkpt lat="46.86805" lon="8.50672">
        <ele>1524</ele>
        <time>2021-08-11T10:29:52.278Z</time>
      </trkpt>
      <trkpt lat="46.86806" lon="8.50671">
        <ele>1525</ele>
        <time>2021-08-11T10:29:53.277Z</time>
      </trkpt>
      <trkpt lat="46.86806" lon="8.50671">
        <ele>1525</ele>
        <time>2021-08-11T10:29:54.278Z</time>
      </trkpt>
      <trkpt lat="46.86806" lon="8.5067">
        <ele>1526</ele>
        <time>2021-08-11T10:29:55.278Z</time>
      </trkpt>
      <trkpt lat="46.86807" lon="8.50669">
        <ele>1526</ele>
        <time>2021-08-11T10:29:56.277Z</time>
      </trkpt>
      <trkpt lat="46.86807" lon="8.50669">
        <ele>1527</ele>
        <time>2021-08-11T10:29:57.278Z</time>
      </trkpt>
      <trkpt lat="46.86808" lon="8.50668">
        <ele>1527</ele>
        <time>2021-08-11T10:29:58.278Z</time>
      </trkpt>
      <trkpt lat="46.86809" lon="8.50667">
        <ele>1528</ele>
        <time>2021-08-11T10:29:59.277Z</time>
      </trkpt>
      <trkpt lat="46.86809" lon="8.50667">
        <ele>1528</ele>
        <time>2021-08-11T10:30:00.278Z</time>
      </trkpt>
      <trkpt lat="46.86809" lon="8.50666">
        <ele>1528</ele>
        <time>2021-08-11T10:30:01.278Z</time>
      </trkpt>
      <trkpt lat="46.8681" lon="8.50666">
        <ele>1528</ele>
        <time>2021-08-11T10:30:02.277Z</time>
      </trkpt>
      <trkpt lat="46.86811" lon="8.50665">
        <ele>1528</ele>
        <time>2021-08-11T10:30:03.277Z</time>
      </trkpt>
      <trkpt lat="46.86812" lon="8.50665">
        <ele>1528</ele>
        <time>2021-08-11T10:30:04.278Z</time>
      </trkpt>
      <trkpt lat="46.86812" lon="8.50664">
        <ele>1528</ele>
        <time>2021-08-11T10:30:05.277Z</time>
      </trkpt>
      <trkpt lat="46.86813" lon="8.50663">
        <ele>1528</ele>
        <time>2021-08-11T10:30:06.278Z</time>
      </trkpt>
      <trkpt lat="46.86813" lon="8.50662">
        <ele>1528</ele>
        <time>2021-08-11T10:30:07.278Z</time>
      </trkpt>
      <trkpt lat="46.86813" lon="8.50661">
        <ele>1528</ele>
        <time>2021-08-11T10:30:08.277Z</time>
      </trkpt>
      <trkpt lat="46.86813" lon="8.5066">
        <ele>1527</ele>
        <time>2021-08-11T10:30:09.278Z</time>
      </trkpt>
      <trkpt lat="46.86813" lon="8.50659">
        <ele>1527</ele>
        <time>2021-08-11T10:30:10.277Z</time>
      </trkpt>
      <trkpt lat="46.86813" lon="8.50659">
        <ele>1528</ele>
        <time>2021-08-11T10:30:11.277Z</time>
      </trkpt>
      <trkpt lat="46.86814" lon="8.50659">
        <ele>1528</ele>
        <time>2021-08-11T10:30:12.278Z</time>
      </trkpt>
      <trkpt lat="46.86814" lon="8.50658">
        <ele>1528</ele>
        <time>2021-08-11T10:30:13.278Z</time>
      </trkpt>
      <trkpt lat="46.86815" lon="8.50657">
        <ele>1528</ele>
        <time>2021-08-11T10:30:14.278Z</time>
      </trkpt>
      <trkpt lat="46.86815" lon="8.50657">
        <ele>1528</ele>
        <time>2021-08-11T10:30:15.277Z</time>
      </trkpt>
      <trkpt lat="46.86815" lon="8.50656">
        <ele>1528</ele>
        <time>2021-08-11T10:30:16.278Z</time>
      </trkpt>
      <trkpt lat="46.86815" lon="8.50656">
        <ele>1528</ele>
        <time>2021-08-11T10:30:17.277Z</time>
      </trkpt>
      <trkpt lat="46.86816" lon="8.50655">
        <ele>1529</ele>
        <time>2021-08-11T10:30:18.278Z</time>
      </trkpt>
      <trkpt lat="46.86816" lon="8.50654">
        <ele>1529</ele>
        <time>2021-08-11T10:30:19.278Z</time>
      </trkpt>
      <trkpt lat="46.86817" lon="8.50653">
        <ele>1529</ele>
        <time>2021-08-11T10:30:20.278Z</time>
      </trkpt>
      <trkpt lat="46.86817" lon="8.50652">
        <ele>1529</ele>
        <time>2021-08-11T10:30:21.278Z</time>
      </trkpt>
      <trkpt lat="46.86818" lon="8.50652">
        <ele>1530</ele>
        <time>2021-08-11T10:30:22.278Z</time>
      </trkpt>
      <trkpt lat="46.86819" lon="8.50651">
        <ele>1530</ele>
        <time>2021-08-11T10:30:23.277Z</time>
      </trkpt>
      <trkpt lat="46.86819" lon="8.5065">
        <ele>1530</ele>
        <time>2021-08-11T10:30:24.278Z</time>
      </trkpt>
      <trkpt lat="46.86819" lon="8.50649">
        <ele>1530</ele>
        <time>2021-08-11T10:30:25.278Z</time>
      </trkpt>
      <trkpt lat="46.86819" lon="8.50648">
        <ele>1530</ele>
        <time>2021-08-11T10:30:26.278Z</time>
      </trkpt>
      <trkpt lat="46.8682" lon="8.50648">
        <ele>1529</ele>
        <time>2021-08-11T10:30:27.278Z</time>
      </trkpt>
      <trkpt lat="46.86821" lon="8.50647">
        <ele>1529</ele>
        <time>2021-08-11T10:30:28.278Z</time>
      </trkpt>
      <trkpt lat="46.86821" lon="8.50646">
        <ele>1530</ele>
        <time>2021-08-11T10:30:29.278Z</time>
      </trkpt>
      <trkpt lat="46.86822" lon="8.50646">
        <ele>1530</ele>
        <time>2021-08-11T10:30:30.277Z</time>
      </trkpt>
      <trkpt lat="46.86823" lon="8.50645">
        <ele>1530</ele>
        <time>2021-08-11T10:30:31.278Z</time>
      </trkpt>
      <trkpt lat="46.86824" lon="8.50644">
        <ele>1531</ele>
        <time>2021-08-11T10:30:32.278Z</time>
      </trkpt>
      <trkpt lat="46.86824" lon="8.50643">
        <ele>1531</ele>
        <time>2021-08-11T10:30:33.278Z</time>
      </trkpt>
      <trkpt lat="46.86825" lon="8.50642">
        <ele>1531</ele>
        <time>2021-08-11T10:30:34.277Z</time>
      </trkpt>
      <trkpt lat="46.86826" lon="8.50641">
        <ele>1532</ele>
        <time>2021-08-11T10:30:35.278Z</time>
      </trkpt>
      <trkpt lat="46.86826" lon="8.50641">
        <ele>1533</ele>
        <time>2021-08-11T10:30:36.278Z</time>
      </trkpt>
      <trkpt lat="46.86827" lon="8.5064">
        <ele>1533</ele>
        <time>2021-08-11T10:30:37.278Z</time>
      </trkpt>
      <trkpt lat="46.86827" lon="8.50639">
        <ele>1533</ele>
        <time>2021-08-11T10:30:38.278Z</time>
      </trkpt>
      <trkpt lat="46.86827" lon="8.50638">
        <ele>1532</ele>
        <time>2021-08-11T10:30:39.277Z</time>
      </trkpt>
      <trkpt lat="46.86828" lon="8.50637">
        <ele>1532</ele>
        <time>2021-08-11T10:30:40.278Z</time>
      </trkpt>
      <trkpt lat="46.86828" lon="8.50636">
        <ele>1532</ele>
        <time>2021-08-11T10:30:41.278Z</time>
      </trkpt>
      <trkpt lat="46.86828" lon="8.50635">
        <ele>1531</ele>
        <time>2021-08-11T10:30:42.278Z</time>
      </trkpt>
      <trkpt lat="46.86828" lon="8.50634">
        <ele>1531</ele>
        <time>2021-08-11T10:30:43.277Z</time>
      </trkpt>
      <trkpt lat="46.86829" lon="8.50634">
        <ele>1531</ele>
        <time>2021-08-11T10:30:44.278Z</time>
      </trkpt>
      <trkpt lat="46.8683" lon="8.50632">
        <ele>1531</ele>
        <time>2021-08-11T10:30:45.278Z</time>
      </trkpt>
      <trkpt lat="46.8683" lon="8.50631">
        <ele>1531</ele>
        <time>2021-08-11T10:30:46.278Z</time>
      </trkpt>
      <trkpt lat="46.86831" lon="8.50631">
        <ele>1531</ele>
        <time>2021-08-11T10:30:47.277Z</time>
      </trkpt>
      <trkpt lat="46.86832" lon="8.5063">
        <ele>1532</ele>
        <time>2021-08-11T10:30:48.278Z</time>
      </trkpt>
      <trkpt lat="46.86832" lon="8.50628">
        <ele>1532</ele>
        <time>2021-08-11T10:30:49.278Z</time>
      </trkpt>
      <trkpt lat="46.86833" lon="8.50627">
        <ele>1532</ele>
        <time>2021-08-11T10:30:50.278Z</time>
      </trkpt>
      <trkpt lat="46.86833" lon="8.50626">
        <ele>1531</ele>
        <time>2021-08-11T10:30:51.278Z</time>
      </trkpt>
      <trkpt lat="46.86833" lon="8.50625">
        <ele>1531</ele>
        <time>2021-08-11T10:30:52.277Z</time>
      </trkpt>
      <trkpt lat="46.86834" lon="8.50624">
        <ele>1531</ele>
        <time>2021-08-11T10:30:53.278Z</time>
      </trkpt>
      <trkpt lat="46.86834" lon="8.50623">
        <ele>1531</ele>
        <time>2021-08-11T10:30:54.278Z</time>
      </trkpt>
      <trkpt lat="46.86835" lon="8.50622">
        <ele>1531</ele>
        <time>2021-08-11T10:30:55.278Z</time>
      </trkpt>
      <trkpt lat="46.86835" lon="8.50622">
        <ele>1531</ele>
        <time>2021-08-11T10:30:56.278Z</time>
      </trkpt>
      <trkpt lat="46.86836" lon="8.50621">
        <ele>1531</ele>
        <time>2021-08-11T10:30:57.277Z</time>
      </trkpt>
      <trkpt lat="46.86837" lon="8.50621">
        <ele>1532</ele>
        <time>2021-08-11T10:30:58.277Z</time>
      </trkpt>
      <trkpt lat="46.86836" lon="8.50621">
        <ele>1532</ele>
        <time>2021-08-11T10:30:59.277Z</time>
      </trkpt>
      <trkpt lat="46.86837" lon="8.5062">
        <ele>1533</ele>
        <time>2021-08-11T10:31:00.278Z</time>
      </trkpt>
      <trkpt lat="46.86838" lon="8.5062">
        <ele>1533</ele>
        <time>2021-08-11T10:31:01.278Z</time>
      </trkpt>
      <trkpt lat="46.86838" lon="8.50619">
        <ele>1533</ele>
        <time>2021-08-11T10:31:02.277Z</time>
      </trkpt>
      <trkpt lat="46.86839" lon="8.50618">
        <ele>1533</ele>
        <time>2021-08-11T10:31:03.278Z</time>
      </trkpt>
      <trkpt lat="46.86839" lon="8.50618">
        <ele>1533</ele>
        <time>2021-08-11T10:31:04.278Z</time>
      </trkpt>
      <trkpt lat="46.8684" lon="8.50617">
        <ele>1534</ele>
        <time>2021-08-11T10:31:05.278Z</time>
      </trkpt>
      <trkpt lat="46.86841" lon="8.50617">
        <ele>1534</ele>
        <time>2021-08-11T10:31:06.278Z</time>
      </trkpt>
      <trkpt lat="46.86842" lon="8.50617">
        <ele>1534</ele>
        <time>2021-08-11T10:31:07.277Z</time>
      </trkpt>
      <trkpt lat="46.86842" lon="8.50616">
        <ele>1534</ele>
        <time>2021-08-11T10:31:08.277Z</time>
      </trkpt>
      <trkpt lat="46.86843" lon="8.50616">
        <ele>1534</ele>
        <time>2021-08-11T10:31:09.277Z</time>
      </trkpt>
      <trkpt lat="46.86844" lon="8.50616">
        <ele>1534</ele>
        <time>2021-08-11T10:31:10.278Z</time>
      </trkpt>
      <trkpt lat="46.86844" lon="8.50615">
        <ele>1534</ele>
        <time>2021-08-11T10:31:11.278Z</time>
      </trkpt>
      <trkpt lat="46.86844" lon="8.50614">
        <ele>1534</ele>
        <time>2021-08-11T10:31:12.278Z</time>
      </trkpt>
      <trkpt lat="46.86845" lon="8.50614">
        <ele>1533</ele>
        <time>2021-08-11T10:31:13.277Z</time>
      </trkpt>
      <trkpt lat="46.86845" lon="8.50614">
        <ele>1533</ele>
        <time>2021-08-11T10:31:14.278Z</time>
      </trkpt>
      <trkpt lat="46.86846" lon="8.50614">
        <ele>1533</ele>
        <time>2021-08-11T10:31:15.278Z</time>
      </trkpt>
      <trkpt lat="46.86847" lon="8.50615">
        <ele>1532</ele>
        <time>2021-08-11T10:31:16.278Z</time>
      </trkpt>
      <trkpt lat="46.86847" lon="8.50615">
        <ele>1532</ele>
        <time>2021-08-11T10:31:17.278Z</time>
      </trkpt>
      <trkpt lat="46.86848" lon="8.50614">
        <ele>1532</ele>
        <time>2021-08-11T10:31:18.278Z</time>
      </trkpt>
      <trkpt lat="46.86849" lon="8.50614">
        <ele>1532</ele>
        <time>2021-08-11T10:31:19.277Z</time>
      </trkpt>
      <trkpt lat="46.8685" lon="8.50613">
        <ele>1532</ele>
        <time>2021-08-11T10:31:20.278Z</time>
      </trkpt>
      <trkpt lat="46.86851" lon="8.50613">
        <ele>1532</ele>
        <time>2021-08-11T10:31:21.278Z</time>
      </trkpt>
      <trkpt lat="46.86851" lon="8.50612">
        <ele>1532</ele>
        <time>2021-08-11T10:31:22.278Z</time>
      </trkpt>
      <trkpt lat="46.86852" lon="8.50613">
        <ele>1533</ele>
        <time>2021-08-11T10:31:23.277Z</time>
      </trkpt>
      <trkpt lat="46.86853" lon="8.50612">
        <ele>1533</ele>
        <time>2021-08-11T10:31:24.277Z</time>
      </trkpt>
      <trkpt lat="46.86854" lon="8.50612">
        <ele>1534</ele>
        <time>2021-08-11T10:31:25.278Z</time>
      </trkpt>
      <trkpt lat="46.86855" lon="8.50612">
        <ele>1534</ele>
        <time>2021-08-11T10:31:26.278Z</time>
      </trkpt>
      <trkpt lat="46.86856" lon="8.50612">
        <ele>1534</ele>
        <time>2021-08-11T10:31:27.278Z</time>
      </trkpt>
      <trkpt lat="46.86857" lon="8.50612">
        <ele>1534</ele>
        <time>2021-08-11T10:31:28.277Z</time>
      </trkpt>
      <trkpt lat="46.86857" lon="8.50612">
        <ele>1534</ele>
        <time>2021-08-11T10:31:29.278Z</time>
      </trkpt>
      <trkpt lat="46.86858" lon="8.50612">
        <ele>1535</ele>
        <time>2021-08-11T10:31:30.277Z</time>
      </trkpt>
      <trkpt lat="46.86859" lon="8.50612">
        <ele>1535</ele>
        <time>2021-08-11T10:31:31.278Z</time>
      </trkpt>
      <trkpt lat="46.86859" lon="8.50612">
        <ele>1535</ele>
        <time>2021-08-11T10:31:32.278Z</time>
      </trkpt>
      <trkpt lat="46.86859" lon="8.50612">
        <ele>1535</ele>
        <time>2021-08-11T10:31:33.278Z</time>
      </trkpt>
      <trkpt lat="46.8686" lon="8.50612">
        <ele>1535</ele>
        <time>2021-08-11T10:31:34.277Z</time>
      </trkpt>
      <trkpt lat="46.8686" lon="8.50612">
        <ele>1536</ele>
        <time>2021-08-11T10:31:35.277Z</time>
      </trkpt>
      <trkpt lat="46.8686" lon="8.50613">
        <ele>1536</ele>
        <time>2021-08-11T10:31:36.277Z</time>
      </trkpt>
      <trkpt lat="46.86861" lon="8.50613">
        <ele>1536</ele>
        <time>2021-08-11T10:31:44.398Z</time>
      </trkpt>
      <trkpt lat="46.86861" lon="8.50615">
        <ele>1537</ele>
        <time>2021-08-11T10:31:45.398Z</time>
      </trkpt>
      <trkpt lat="46.86862" lon="8.50615">
        <ele>1537</ele>
        <time>2021-08-11T10:31:46.399Z</time>
      </trkpt>
      <trkpt lat="46.86863" lon="8.50614">
        <ele>1538</ele>
        <time>2021-08-11T10:31:59.377Z</time>
      </trkpt>
      <trkpt lat="46.86864" lon="8.50613">
        <ele>1539</ele>
        <time>2021-08-11T10:32:01.135Z</time>
      </trkpt>
      <trkpt lat="46.86865" lon="8.50613">
        <ele>1539</ele>
        <time>2021-08-11T10:32:02.135Z</time>
      </trkpt>
      <trkpt lat="46.86866" lon="8.50613">
        <ele>1540</ele>
        <time>2021-08-11T10:32:03.135Z</time>
      </trkpt>
      <trkpt lat="46.86867" lon="8.50613">
        <ele>1540</ele>
        <time>2021-08-11T10:33:12.258Z</time>
      </trkpt>
      <trkpt lat="46.86868" lon="8.50613">
        <ele>1540</ele>
        <time>2021-08-11T10:33:13.258Z</time>
      </trkpt>
      <trkpt lat="46.86868" lon="8.50614">
        <ele>1540</ele>
        <time>2021-08-11T10:33:14.258Z</time>
      </trkpt>
      <trkpt lat="46.86869" lon="8.50614">
        <ele>1540</ele>
        <time>2021-08-11T10:33:15.258Z</time>
      </trkpt>
      <trkpt lat="46.8687" lon="8.50614">
        <ele>1541</ele>
        <time>2021-08-11T10:33:32.382Z</time>
      </trkpt>
      <trkpt lat="46.8687" lon="8.50614">
        <ele>1541</ele>
        <time>2021-08-11T10:33:42.152Z</time>
      </trkpt>
      <trkpt lat="46.86871" lon="8.50614">
        <ele>1541</ele>
        <time>2021-08-11T10:33:43.152Z</time>
      </trkpt>
      <trkpt lat="46.86871" lon="8.50615">
        <ele>1540</ele>
        <time>2021-08-11T10:33:44.152Z</time>
      </trkpt>
      <trkpt lat="46.86872" lon="8.50615">
        <ele>1540</ele>
        <time>2021-08-11T10:34:34.283Z</time>
      </trkpt>
      <trkpt lat="46.86872" lon="8.50616">
        <ele>1540</ele>
        <time>2021-08-11T10:34:35.282Z</time>
      </trkpt>
      <trkpt lat="46.86873" lon="8.50616">
        <ele>1540</ele>
        <time>2021-08-11T10:34:37.123Z</time>
      </trkpt>
      <trkpt lat="46.86873" lon="8.50617">
        <ele>1541</ele>
        <time>2021-08-11T10:34:38.123Z</time>
      </trkpt>
      <trkpt lat="46.86874" lon="8.50617">
        <ele>1541</ele>
        <time>2021-08-11T10:34:39.123Z</time>
      </trkpt>
      <trkpt lat="46.86875" lon="8.50617">
        <ele>1541</ele>
        <time>2021-08-11T10:34:40.123Z</time>
      </trkpt>
      <trkpt lat="46.86875" lon="8.50617">
        <ele>1541</ele>
        <time>2021-08-11T10:34:41.123Z</time>
      </trkpt>
      <trkpt lat="46.86876" lon="8.50617">
        <ele>1541</ele>
        <time>2021-08-11T10:35:01.158Z</time>
      </trkpt>
      <trkpt lat="46.86876" lon="8.50617">
        <ele>1541</ele>
        <time>2021-08-11T10:35:02.157Z</time>
      </trkpt>
      <trkpt lat="46.86876" lon="8.50617">
        <ele>1541</ele>
        <time>2021-08-11T10:35:03.158Z</time>
      </trkpt>
      <trkpt lat="46.86877" lon="8.50616">
        <ele>1542</ele>
        <time>2021-08-11T10:35:04.157Z</time>
      </trkpt>
      <trkpt lat="46.86878" lon="8.50616">
        <ele>1541</ele>
        <time>2021-08-11T10:35:05.158Z</time>
      </trkpt>
      <trkpt lat="46.86879" lon="8.50616">
        <ele>1541</ele>
        <time>2021-08-11T10:35:13.282Z</time>
      </trkpt>
      <trkpt lat="46.86879" lon="8.50615">
        <ele>1541</ele>
        <time>2021-08-11T10:35:14.282Z</time>
      </trkpt>
      <trkpt lat="46.8688" lon="8.50615">
        <ele>1542</ele>
        <time>2021-08-11T10:35:15.281Z</time>
      </trkpt>
      <trkpt lat="46.8688" lon="8.50615">
        <ele>1542</ele>
        <time>2021-08-11T10:35:16.282Z</time>
      </trkpt>
      <trkpt lat="46.86881" lon="8.50615">
        <ele>1542</ele>
        <time>2021-08-11T10:35:17.282Z</time>
      </trkpt>
      <trkpt lat="46.86881" lon="8.50615">
        <ele>1542</ele>
        <time>2021-08-11T10:35:18.282Z</time>
      </trkpt>
      <trkpt lat="46.86882" lon="8.50615">
        <ele>1542</ele>
        <time>2021-08-11T10:35:19.282Z</time>
      </trkpt>
      <trkpt lat="46.86882" lon="8.50614">
        <ele>1542</ele>
        <time>2021-08-11T10:35:20.281Z</time>
      </trkpt>
      <trkpt lat="46.86883" lon="8.50614">
        <ele>1542</ele>
        <time>2021-08-11T10:35:21.281Z</time>
      </trkpt>
      <trkpt lat="46.86883" lon="8.50613">
        <ele>1541</ele>
        <time>2021-08-11T10:35:22.282Z</time>
      </trkpt>
      <trkpt lat="46.86884" lon="8.50613">
        <ele>1540</ele>
        <time>2021-08-11T10:36:07.404Z</time>
      </trkpt>
      <trkpt lat="46.86885" lon="8.50612">
        <ele>1540</ele>
        <time>2021-08-11T10:36:08.404Z</time>
      </trkpt>
      <trkpt lat="46.86885" lon="8.50611">
        <ele>1540</ele>
        <time>2021-08-11T10:36:09.404Z</time>
      </trkpt>
      <trkpt lat="46.86885" lon="8.50611">
        <ele>1540</ele>
        <time>2021-08-11T10:36:10.403Z</time>
      </trkpt>
      <trkpt lat="46.86885" lon="8.50611">
        <ele>1540</ele>
        <time>2021-08-11T10:36:11.403Z</time>
      </trkpt>
      <trkpt lat="46.86886" lon="8.50612">
        <ele>1540</ele>
        <time>2021-08-11T10:36:12.403Z</time>
      </trkpt>
      <trkpt lat="46.86886" lon="8.50612">
        <ele>1541</ele>
        <time>2021-08-11T10:36:13.404Z</time>
      </trkpt>
      <trkpt lat="46.86887" lon="8.50612">
        <ele>1542</ele>
        <time>2021-08-11T10:36:14.404Z</time>
      </trkpt>
      <trkpt lat="46.86887" lon="8.50612">
        <ele>1542</ele>
        <time>2021-08-11T10:36:15.403Z</time>
      </trkpt>
      <trkpt lat="46.86888" lon="8.50611">
        <ele>1543</ele>
        <time>2021-08-11T10:36:16.403Z</time>
      </trkpt>
      <trkpt lat="46.86889" lon="8.50611">
        <ele>1544</ele>
        <time>2021-08-11T10:36:17.404Z</time>
      </trkpt>
      <trkpt lat="46.8689" lon="8.50611">
        <ele>1544</ele>
        <time>2021-08-11T10:36:18.404Z</time>
      </trkpt>
      <trkpt lat="46.86891" lon="8.50611">
        <ele>1545</ele>
        <time>2021-08-11T10:36:19.404Z</time>
      </trkpt>
      <trkpt lat="46.86892" lon="8.50611">
        <ele>1545</ele>
        <time>2021-08-11T10:36:20.404Z</time>
      </trkpt>
      <trkpt lat="46.86892" lon="8.5061">
        <ele>1546</ele>
        <time>2021-08-11T10:36:21.404Z</time>
      </trkpt>
      <trkpt lat="46.86893" lon="8.5061">
        <ele>1546</ele>
        <time>2021-08-11T10:36:22.404Z</time>
      </trkpt>
      <trkpt lat="46.86894" lon="8.50609">
        <ele>1546</ele>
        <time>2021-08-11T10:36:23.404Z</time>
      </trkpt>
      <trkpt lat="46.86894" lon="8.50609">
        <ele>1547</ele>
        <time>2021-08-11T10:36:24.403Z</time>
      </trkpt>
      <trkpt lat="46.86895" lon="8.50608">
        <ele>1547</ele>
        <time>2021-08-11T10:36:25.404Z</time>
      </trkpt>
      <trkpt lat="46.86895" lon="8.50608">
        <ele>1547</ele>
        <time>2021-08-11T10:36:26.403Z</time>
      </trkpt>
      <trkpt lat="46.86896" lon="8.50608">
        <ele>1547</ele>
        <time>2021-08-11T10:36:27.404Z</time>
      </trkpt>
      <trkpt lat="46.86897" lon="8.50607">
        <ele>1547</ele>
        <time>2021-08-11T10:36:28.404Z</time>
      </trkpt>
      <trkpt lat="46.86898" lon="8.50606">
        <ele>1546</ele>
        <time>2021-08-11T10:36:29.404Z</time>
      </trkpt>
      <trkpt lat="46.86898" lon="8.50606">
        <ele>1546</ele>
        <time>2021-08-11T10:36:30.404Z</time>
      </trkpt>
      <trkpt lat="46.86898" lon="8.50605">
        <ele>1545</ele>
        <time>2021-08-11T10:36:31.403Z</time>
      </trkpt>
      <trkpt lat="46.86899" lon="8.50605">
        <ele>1544</ele>
        <time>2021-08-11T10:36:32.403Z</time>
      </trkpt>
      <trkpt lat="46.869" lon="8.50604">
        <ele>1544</ele>
        <time>2021-08-11T10:36:33.404Z</time>
      </trkpt>
      <trkpt lat="46.869" lon="8.50603">
        <ele>1544</ele>
        <time>2021-08-11T10:36:34.404Z</time>
      </trkpt>
      <trkpt lat="46.86901" lon="8.50603">
        <ele>1543</ele>
        <time>2021-08-11T10:36:35.404Z</time>
      </trkpt>
      <trkpt lat="46.86902" lon="8.50602">
        <ele>1543</ele>
        <time>2021-08-11T10:36:36.403Z</time>
      </trkpt>
      <trkpt lat="46.86903" lon="8.50602">
        <ele>1542</ele>
        <time>2021-08-11T10:36:37.404Z</time>
      </trkpt>
      <trkpt lat="46.86904" lon="8.50601">
        <ele>1542</ele>
        <time>2021-08-11T10:36:38.403Z</time>
      </trkpt>
      <trkpt lat="46.86905" lon="8.50601">
        <ele>1542</ele>
        <time>2021-08-11T10:36:39.403Z</time>
      </trkpt>
      <trkpt lat="46.86906" lon="8.506">
        <ele>1542</ele>
        <time>2021-08-11T10:36:40.403Z</time>
      </trkpt>
      <trkpt lat="46.86907" lon="8.506">
        <ele>1542</ele>
        <time>2021-08-11T10:36:41.404Z</time>
      </trkpt>
      <trkpt lat="46.86908" lon="8.50599">
        <ele>1543</ele>
        <time>2021-08-11T10:36:42.404Z</time>
      </trkpt>
      <trkpt lat="46.86909" lon="8.50598">
        <ele>1543</ele>
        <time>2021-08-11T10:36:43.404Z</time>
      </trkpt>
      <trkpt lat="46.86909" lon="8.50597">
        <ele>1543</ele>
        <time>2021-08-11T10:36:44.403Z</time>
      </trkpt>
      <trkpt lat="46.86909" lon="8.50596">
        <ele>1544</ele>
        <time>2021-08-11T10:36:45.404Z</time>
      </trkpt>
      <trkpt lat="46.8691" lon="8.50596">
        <ele>1544</ele>
        <time>2021-08-11T10:36:46.404Z</time>
      </trkpt>
      <trkpt lat="46.8691" lon="8.50595">
        <ele>1544</ele>
        <time>2021-08-11T10:36:47.403Z</time>
      </trkpt>
      <trkpt lat="46.86911" lon="8.50594">
        <ele>1545</ele>
        <time>2021-08-11T10:36:48.404Z</time>
      </trkpt>
      <trkpt lat="46.86912" lon="8.50594">
        <ele>1545</ele>
        <time>2021-08-11T10:36:49.403Z</time>
      </trkpt>
      <trkpt lat="46.86912" lon="8.50594">
        <ele>1545</ele>
        <time>2021-08-11T10:36:50.404Z</time>
      </trkpt>
      <trkpt lat="46.86913" lon="8.50593">
        <ele>1545</ele>
        <time>2021-08-11T10:36:51.404Z</time>
      </trkpt>
      <trkpt lat="46.86914" lon="8.50592">
        <ele>1545</ele>
        <time>2021-08-11T10:36:52.404Z</time>
      </trkpt>
      <trkpt lat="46.86914" lon="8.50592">
        <ele>1545</ele>
        <time>2021-08-11T10:36:53.404Z</time>
      </trkpt>
      <trkpt lat="46.86914" lon="8.50591">
        <ele>1546</ele>
        <time>2021-08-11T10:36:54.404Z</time>
      </trkpt>
      <trkpt lat="46.86915" lon="8.5059">
        <ele>1546</ele>
        <time>2021-08-11T10:36:55.404Z</time>
      </trkpt>
      <trkpt lat="46.86915" lon="8.5059">
        <ele>1546</ele>
        <time>2021-08-11T10:36:56.403Z</time>
      </trkpt>
      <trkpt lat="46.86915" lon="8.50589">
        <ele>1546</ele>
        <time>2021-08-11T10:36:57.403Z</time>
      </trkpt>
      <trkpt lat="46.86915" lon="8.50588">
        <ele>1546</ele>
        <time>2021-08-11T10:36:58.404Z</time>
      </trkpt>
      <trkpt lat="46.86917" lon="8.50587">
        <ele>1547</ele>
        <time>2021-08-11T10:36:59.404Z</time>
      </trkpt>
      <trkpt lat="46.86918" lon="8.50587">
        <ele>1547</ele>
        <time>2021-08-11T10:37:00.403Z</time>
      </trkpt>
      <trkpt lat="46.86919" lon="8.50586">
        <ele>1547</ele>
        <time>2021-08-11T10:37:01.404Z</time>
      </trkpt>
      <trkpt lat="46.8692" lon="8.50585">
        <ele>1547</ele>
        <time>2021-08-11T10:37:02.404Z</time>
      </trkpt>
      <trkpt lat="46.8692" lon="8.50585">
        <ele>1547</ele>
        <time>2021-08-11T10:37:03.404Z</time>
      </trkpt>
      <trkpt lat="46.86921" lon="8.50584">
        <ele>1547</ele>
        <time>2021-08-11T10:37:04.403Z</time>
      </trkpt>
      <trkpt lat="46.86922" lon="8.50583">
        <ele>1547</ele>
        <time>2021-08-11T10:37:05.404Z</time>
      </trkpt>
      <trkpt lat="46.86922" lon="8.50582">
        <ele>1547</ele>
        <time>2021-08-11T10:37:06.404Z</time>
      </trkpt>
      <trkpt lat="46.86924" lon="8.50582">
        <ele>1548</ele>
        <time>2021-08-11T10:37:07.404Z</time>
      </trkpt>
      <trkpt lat="46.86925" lon="8.50581">
        <ele>1548</ele>
        <time>2021-08-11T10:37:08.404Z</time>
      </trkpt>
      <trkpt lat="46.86926" lon="8.50581">
        <ele>1548</ele>
        <time>2021-08-11T10:37:09.403Z</time>
      </trkpt>
      <trkpt lat="46.86927" lon="8.5058">
        <ele>1548</ele>
        <time>2021-08-11T10:37:10.404Z</time>
      </trkpt>
      <trkpt lat="46.86927" lon="8.5058">
        <ele>1549</ele>
        <time>2021-08-11T10:37:11.404Z</time>
      </trkpt>
      <trkpt lat="46.86928" lon="8.5058">
        <ele>1549</ele>
        <time>2021-08-11T10:37:12.404Z</time>
      </trkpt>
      <trkpt lat="46.86929" lon="8.5058">
        <ele>1550</ele>
        <time>2021-08-11T10:37:13.403Z</time>
      </trkpt>
      <trkpt lat="46.86931" lon="8.50579">
        <ele>1550</ele>
        <time>2021-08-11T10:37:14.404Z</time>
      </trkpt>
      <trkpt lat="46.86932" lon="8.50579">
        <ele>1551</ele>
        <time>2021-08-11T10:37:15.404Z</time>
      </trkpt>
      <trkpt lat="46.86932" lon="8.50578">
        <ele>1551</ele>
        <time>2021-08-11T10:37:16.404Z</time>
      </trkpt>
      <trkpt lat="46.86933" lon="8.50577">
        <ele>1551</ele>
        <time>2021-08-11T10:37:17.404Z</time>
      </trkpt>
      <trkpt lat="46.86933" lon="8.50576">
        <ele>1551</ele>
        <time>2021-08-11T10:37:18.404Z</time>
      </trkpt>
      <trkpt lat="46.86934" lon="8.50575">
        <ele>1551</ele>
        <time>2021-08-11T10:37:19.404Z</time>
      </trkpt>
      <trkpt lat="46.86934" lon="8.50574">
        <ele>1551</ele>
        <time>2021-08-11T10:37:20.404Z</time>
      </trkpt>
      <trkpt lat="46.86934" lon="8.50573">
        <ele>1552</ele>
        <time>2021-08-11T10:37:21.404Z</time>
      </trkpt>
      <trkpt lat="46.86935" lon="8.50572">
        <ele>1552</ele>
        <time>2021-08-11T10:37:22.404Z</time>
      </trkpt>
      <trkpt lat="46.86936" lon="8.50571">
        <ele>1552</ele>
        <time>2021-08-11T10:37:23.403Z</time>
      </trkpt>
      <trkpt lat="46.86938" lon="8.50571">
        <ele>1553</ele>
        <time>2021-08-11T10:37:24.403Z</time>
      </trkpt>
      <trkpt lat="46.86939" lon="8.5057">
        <ele>1553</ele>
        <time>2021-08-11T10:37:25.404Z</time>
      </trkpt>
      <trkpt lat="46.8694" lon="8.50569">
        <ele>1554</ele>
        <time>2021-08-11T10:37:26.404Z</time>
      </trkpt>
      <trkpt lat="46.86941" lon="8.50569">
        <ele>1554</ele>
        <time>2021-08-11T10:37:27.404Z</time>
      </trkpt>
      <trkpt lat="46.86941" lon="8.50569">
        <ele>1554</ele>
        <time>2021-08-11T10:37:28.404Z</time>
      </trkpt>
      <trkpt lat="46.86942" lon="8.50568">
        <ele>1555</ele>
        <time>2021-08-11T10:37:29.403Z</time>
      </trkpt>
      <trkpt lat="46.86942" lon="8.5057">
        <ele>1555</ele>
        <time>2021-08-11T10:37:30.404Z</time>
      </trkpt>
      <trkpt lat="46.86943" lon="8.50571">
        <ele>1556</ele>
        <time>2021-08-11T10:37:31.404Z</time>
      </trkpt>
      <trkpt lat="46.86943" lon="8.50571">
        <ele>1556</ele>
        <time>2021-08-11T10:37:32.404Z</time>
      </trkpt>
      <trkpt lat="46.86943" lon="8.50571">
        <ele>1556</ele>
        <time>2021-08-11T10:37:33.404Z</time>
      </trkpt>
      <trkpt lat="46.86943" lon="8.50571">
        <ele>1556</ele>
        <time>2021-08-11T10:37:34.403Z</time>
      </trkpt>
      <trkpt lat="46.86943" lon="8.50572">
        <ele>1557</ele>
        <time>2021-08-11T10:37:35.404Z</time>
      </trkpt>
      <trkpt lat="46.86943" lon="8.50572">
        <ele>1557</ele>
        <time>2021-08-11T10:37:36.404Z</time>
      </trkpt>
      <trkpt lat="46.86943" lon="8.50572">
        <ele>1557</ele>
        <time>2021-08-11T10:37:37.404Z</time>
      </trkpt>
      <trkpt lat="46.86943" lon="8.50573">
        <ele>1558</ele>
        <time>2021-08-11T10:37:38.404Z</time>
      </trkpt>
      <trkpt lat="46.86944" lon="8.50573">
        <ele>1558</ele>
        <time>2021-08-11T10:37:39.403Z</time>
      </trkpt>
      <trkpt lat="46.86944" lon="8.50573">
        <ele>1558</ele>
        <time>2021-08-11T10:37:40.403Z</time>
      </trkpt>
      <trkpt lat="46.86945" lon="8.50574">
        <ele>1559</ele>
        <time>2021-08-11T10:37:41.404Z</time>
      </trkpt>
      <trkpt lat="46.86946" lon="8.50574">
        <ele>1559</ele>
        <time>2021-08-11T10:37:42.403Z</time>
      </trkpt>
      <trkpt lat="46.86947" lon="8.50574">
        <ele>1560</ele>
        <time>2021-08-11T10:37:43.404Z</time>
      </trkpt>
      <trkpt lat="46.86947" lon="8.50575">
        <ele>1560</ele>
        <time>2021-08-11T10:37:44.404Z</time>
      </trkpt>
      <trkpt lat="46.86947" lon="8.50575">
        <ele>1561</ele>
        <time>2021-08-11T10:37:45.404Z</time>
      </trkpt>
      <trkpt lat="46.86948" lon="8.50574">
        <ele>1561</ele>
        <time>2021-08-11T10:37:46.403Z</time>
      </trkpt>
      <trkpt lat="46.86949" lon="8.50573">
        <ele>1561</ele>
        <time>2021-08-11T10:37:47.404Z</time>
      </trkpt>
      <trkpt lat="46.86949" lon="8.50573">
        <ele>1561</ele>
        <time>2021-08-11T10:37:48.403Z</time>
      </trkpt>
      <trkpt lat="46.8695" lon="8.50572">
        <ele>1561</ele>
        <time>2021-08-11T10:37:49.404Z</time>
      </trkpt>
      <trkpt lat="46.86951" lon="8.50572">
        <ele>1561</ele>
        <time>2021-08-11T10:37:50.404Z</time>
      </trkpt>
      <trkpt lat="46.86952" lon="8.50571">
        <ele>1561</ele>
        <time>2021-08-11T10:37:51.403Z</time>
      </trkpt>
      <trkpt lat="46.86952" lon="8.5057">
        <ele>1562</ele>
        <time>2021-08-11T10:37:52.404Z</time>
      </trkpt>
      <trkpt lat="46.86953" lon="8.50569">
        <ele>1562</ele>
        <time>2021-08-11T10:37:53.403Z</time>
      </trkpt>
      <trkpt lat="46.86954" lon="8.50568">
        <ele>1562</ele>
        <time>2021-08-11T10:37:54.404Z</time>
      </trkpt>
      <trkpt lat="46.86955" lon="8.50567">
        <ele>1562</ele>
        <time>2021-08-11T10:37:55.404Z</time>
      </trkpt>
      <trkpt lat="46.86955" lon="8.50567">
        <ele>1563</ele>
        <time>2021-08-11T10:37:56.404Z</time>
      </trkpt>
      <trkpt lat="46.86956" lon="8.50566">
        <ele>1563</ele>
        <time>2021-08-11T10:37:57.403Z</time>
      </trkpt>
      <trkpt lat="46.86957" lon="8.50565">
        <ele>1563</ele>
        <time>2021-08-11T10:37:58.404Z</time>
      </trkpt>
      <trkpt lat="46.86958" lon="8.50564">
        <ele>1563</ele>
        <time>2021-08-11T10:37:59.404Z</time>
      </trkpt>
      <trkpt lat="46.86958" lon="8.50564">
        <ele>1563</ele>
        <time>2021-08-11T10:38:00.404Z</time>
      </trkpt>
      <trkpt lat="46.86958" lon="8.50564">
        <ele>1563</ele>
        <time>2021-08-11T10:38:01.403Z</time>
      </trkpt>
      <trkpt lat="46.86958" lon="8.50564">
        <ele>1563</ele>
        <time>2021-08-11T10:38:02.403Z</time>
      </trkpt>
      <trkpt lat="46.86959" lon="8.50564">
        <ele>1563</ele>
        <time>2021-08-11T10:38:03.403Z</time>
      </trkpt>
      <trkpt lat="46.86958" lon="8.50564">
        <ele>1564</ele>
        <time>2021-08-11T10:38:04.403Z</time>
      </trkpt>
      <trkpt lat="46.86958" lon="8.50563">
        <ele>1564</ele>
        <time>2021-08-11T10:38:05.404Z</time>
      </trkpt>
      <trkpt lat="46.86957" lon="8.50563">
        <ele>1564</ele>
        <time>2021-08-11T10:38:06.404Z</time>
      </trkpt>
      <trkpt lat="46.86958" lon="8.50562">
        <ele>1564</ele>
        <time>2021-08-11T10:38:07.404Z</time>
      </trkpt>
      <trkpt lat="46.86958" lon="8.50562">
        <ele>1564</ele>
        <time>2021-08-11T10:38:08.403Z</time>
      </trkpt>
      <trkpt lat="46.86959" lon="8.50561">
        <ele>1565</ele>
        <time>2021-08-11T10:38:09.404Z</time>
      </trkpt>
      <trkpt lat="46.86959" lon="8.50561">
        <ele>1565</ele>
        <time>2021-08-11T10:38:10.404Z</time>
      </trkpt>
      <trkpt lat="46.8696" lon="8.5056">
        <ele>1565</ele>
        <time>2021-08-11T10:38:11.404Z</time>
      </trkpt>
      <trkpt lat="46.86961" lon="8.50559">
        <ele>1565</ele>
        <time>2021-08-11T10:38:12.404Z</time>
      </trkpt>
      <trkpt lat="46.86961" lon="8.50558">
        <ele>1564</ele>
        <time>2021-08-11T10:38:13.403Z</time>
      </trkpt>
      <trkpt lat="46.86962" lon="8.50558">
        <ele>1564</ele>
        <time>2021-08-11T10:38:14.404Z</time>
      </trkpt>
      <trkpt lat="46.86962" lon="8.50557">
        <ele>1564</ele>
        <time>2021-08-11T10:38:15.404Z</time>
      </trkpt>
      <trkpt lat="46.86963" lon="8.50556">
        <ele>1564</ele>
        <time>2021-08-11T10:38:16.404Z</time>
      </trkpt>
      <trkpt lat="46.86965" lon="8.50555">
        <ele>1564</ele>
        <time>2021-08-11T10:38:17.404Z</time>
      </trkpt>
      <trkpt lat="46.86966" lon="8.50553">
        <ele>1564</ele>
        <time>2021-08-11T10:38:18.403Z</time>
      </trkpt>
      <trkpt lat="46.86967" lon="8.50553">
        <ele>1564</ele>
        <time>2021-08-11T10:38:19.403Z</time>
      </trkpt>
      <trkpt lat="46.86969" lon="8.50552">
        <ele>1564</ele>
        <time>2021-08-11T10:38:20.403Z</time>
      </trkpt>
      <trkpt lat="46.8697" lon="8.50552">
        <ele>1564</ele>
        <time>2021-08-11T10:38:21.404Z</time>
      </trkpt>
      <trkpt lat="46.86971" lon="8.50551">
        <ele>1564</ele>
        <time>2021-08-11T10:38:22.404Z</time>
      </trkpt>
      <trkpt lat="46.86973" lon="8.50549">
        <ele>1564</ele>
        <time>2021-08-11T10:38:23.404Z</time>
      </trkpt>
      <trkpt lat="46.86974" lon="8.50548">
        <ele>1564</ele>
        <time>2021-08-11T10:38:24.404Z</time>
      </trkpt>
      <trkpt lat="46.86975" lon="8.50547">
        <ele>1564</ele>
        <time>2021-08-11T10:38:25.403Z</time>
      </trkpt>
      <trkpt lat="46.86975" lon="8.50546">
        <ele>1564</ele>
        <time>2021-08-11T10:38:26.404Z</time>
      </trkpt>
      <trkpt lat="46.86976" lon="8.50545">
        <ele>1563</ele>
        <time>2021-08-11T10:38:27.404Z</time>
      </trkpt>
      <trkpt lat="46.86976" lon="8.50545">
        <ele>1563</ele>
        <time>2021-08-11T10:38:28.403Z</time>
      </trkpt>
      <trkpt lat="46.86977" lon="8.50544">
        <ele>1563</ele>
        <time>2021-08-11T10:38:29.404Z</time>
      </trkpt>
      <trkpt lat="46.86978" lon="8.50543">
        <ele>1563</ele>
        <time>2021-08-11T10:38:30.403Z</time>
      </trkpt>
      <trkpt lat="46.86979" lon="8.50543">
        <ele>1562</ele>
        <time>2021-08-11T10:38:31.404Z</time>
      </trkpt>
      <trkpt lat="46.86979" lon="8.50542">
        <ele>1562</ele>
        <time>2021-08-11T10:38:32.404Z</time>
      </trkpt>
      <trkpt lat="46.86979" lon="8.50541">
        <ele>1562</ele>
        <time>2021-08-11T10:38:33.403Z</time>
      </trkpt>
      <trkpt lat="46.8698" lon="8.50541">
        <ele>1562</ele>
        <time>2021-08-11T10:38:34.404Z</time>
      </trkpt>
      <trkpt lat="46.8698" lon="8.50541">
        <ele>1562</ele>
        <time>2021-08-11T10:38:35.403Z</time>
      </trkpt>
      <trkpt lat="46.86981" lon="8.50541">
        <ele>1562</ele>
        <time>2021-08-11T10:38:36.404Z</time>
      </trkpt>
      <trkpt lat="46.86982" lon="8.50542">
        <ele>1561</ele>
        <time>2021-08-11T10:38:37.404Z</time>
      </trkpt>
      <trkpt lat="46.86982" lon="8.50543">
        <ele>1561</ele>
        <time>2021-08-11T10:38:38.403Z</time>
      </trkpt>
      <trkpt lat="46.86982" lon="8.50544">
        <ele>1561</ele>
        <time>2021-08-11T10:38:39.404Z</time>
      </trkpt>
      <trkpt lat="46.86982" lon="8.50545">
        <ele>1560</ele>
        <time>2021-08-11T10:38:40.403Z</time>
      </trkpt>
      <trkpt lat="46.86983" lon="8.50548">
        <ele>1560</ele>
        <time>2021-08-11T10:38:41.403Z</time>
      </trkpt>
      <trkpt lat="46.86983" lon="8.50549">
        <ele>1560</ele>
        <time>2021-08-11T10:38:42.404Z</time>
      </trkpt>
      <trkpt lat="46.86983" lon="8.50549">
        <ele>1560</ele>
        <time>2021-08-11T10:38:43.404Z</time>
      </trkpt>
      <trkpt lat="46.86983" lon="8.50548">
        <ele>1560</ele>
        <time>2021-08-11T10:38:44.403Z</time>
      </trkpt>
      <trkpt lat="46.86983" lon="8.50548">
        <ele>1560</ele>
        <time>2021-08-11T10:38:45.404Z</time>
      </trkpt>
      <trkpt lat="46.86983" lon="8.50548">
        <ele>1560</ele>
        <time>2021-08-11T10:38:46.404Z</time>
      </trkpt>
      <trkpt lat="46.86983" lon="8.50548">
        <ele>1560</ele>
        <time>2021-08-11T10:38:47.404Z</time>
      </trkpt>
      <trkpt lat="46.86984" lon="8.50548">
        <ele>1560</ele>
        <time>2021-08-11T10:38:48.403Z</time>
      </trkpt>
      <trkpt lat="46.86985" lon="8.50548">
        <ele>1560</ele>
        <time>2021-08-11T10:38:49.404Z</time>
      </trkpt>
      <trkpt lat="46.86985" lon="8.50548">
        <ele>1561</ele>
        <time>2021-08-11T10:38:50.404Z</time>
      </trkpt>
      <trkpt lat="46.86986" lon="8.50548">
        <ele>1561</ele>
        <time>2021-08-11T10:38:51.404Z</time>
      </trkpt>
      <trkpt lat="46.86987" lon="8.50547">
        <ele>1562</ele>
        <time>2021-08-11T10:38:52.404Z</time>
      </trkpt>
      <trkpt lat="46.86987" lon="8.50547">
        <ele>1562</ele>
        <time>2021-08-11T10:38:53.404Z</time>
      </trkpt>
      <trkpt lat="46.86988" lon="8.50547">
        <ele>1562</ele>
        <time>2021-08-11T10:38:54.404Z</time>
      </trkpt>
      <trkpt lat="46.86988" lon="8.50547">
        <ele>1562</ele>
        <time>2021-08-11T10:38:55.403Z</time>
      </trkpt>
      <trkpt lat="46.86988" lon="8.50547">
        <ele>1562</ele>
        <time>2021-08-11T10:38:56.403Z</time>
      </trkpt>
      <trkpt lat="46.86988" lon="8.50547">
        <ele>1562</ele>
        <time>2021-08-11T10:38:57.403Z</time>
      </trkpt>
      <trkpt lat="46.86988" lon="8.50547">
        <ele>1562</ele>
        <time>2021-08-11T10:38:58.404Z</time>
      </trkpt>
      <trkpt lat="46.86989" lon="8.50547">
        <ele>1562</ele>
        <time>2021-08-11T10:38:59.404Z</time>
      </trkpt>
      <trkpt lat="46.86989" lon="8.50547">
        <ele>1562</ele>
        <time>2021-08-11T10:39:00.403Z</time>
      </trkpt>
      <trkpt lat="46.86989" lon="8.50547">
        <ele>1561</ele>
        <time>2021-08-11T10:39:01.403Z</time>
      </trkpt>
      <trkpt lat="46.86989" lon="8.50548">
        <ele>1561</ele>
        <time>2021-08-11T10:39:02.404Z</time>
      </trkpt>
      <trkpt lat="46.86989" lon="8.50548">
        <ele>1561</ele>
        <time>2021-08-11T10:39:03.404Z</time>
      </trkpt>
      <trkpt lat="46.86989" lon="8.50548">
        <ele>1561</ele>
        <time>2021-08-11T10:39:04.403Z</time>
      </trkpt>
      <trkpt lat="46.8699" lon="8.50549">
        <ele>1561</ele>
        <time>2021-08-11T10:39:05.404Z</time>
      </trkpt>
      <trkpt lat="46.86991" lon="8.50549">
        <ele>1561</ele>
        <time>2021-08-11T10:39:06.404Z</time>
      </trkpt>
      <trkpt lat="46.86992" lon="8.50549">
        <ele>1561</ele>
        <time>2021-08-11T10:39:07.404Z</time>
      </trkpt>
      <trkpt lat="46.86992" lon="8.50549">
        <ele>1561</ele>
        <time>2021-08-11T10:39:08.403Z</time>
      </trkpt>
      <trkpt lat="46.86993" lon="8.50548">
        <ele>1561</ele>
        <time>2021-08-11T10:39:09.403Z</time>
      </trkpt>
      <trkpt lat="46.86993" lon="8.50548">
        <ele>1561</ele>
        <time>2021-08-11T10:39:10.404Z</time>
      </trkpt>
      <trkpt lat="46.86994" lon="8.50547">
        <ele>1561</ele>
        <time>2021-08-11T10:39:11.404Z</time>
      </trkpt>
      <trkpt lat="46.86995" lon="8.50546">
        <ele>1561</ele>
        <time>2021-08-11T10:39:12.404Z</time>
      </trkpt>
      <trkpt lat="46.86995" lon="8.50545">
        <ele>1561</ele>
        <time>2021-08-11T10:39:13.404Z</time>
      </trkpt>
      <trkpt lat="46.86997" lon="8.50544">
        <ele>1560</ele>
        <time>2021-08-11T10:39:14.403Z</time>
      </trkpt>
      <trkpt lat="46.86998" lon="8.50543">
        <ele>1560</ele>
        <time>2021-08-11T10:39:15.404Z</time>
      </trkpt>
      <trkpt lat="46.86999" lon="8.50542">
        <ele>1560</ele>
        <time>2021-08-11T10:39:16.403Z</time>
      </trkpt>
      <trkpt lat="46.87" lon="8.50542">
        <ele>1560</ele>
        <time>2021-08-11T10:39:17.404Z</time>
      </trkpt>
      <trkpt lat="46.87001" lon="8.50541">
        <ele>1560</ele>
        <time>2021-08-11T10:39:18.404Z</time>
      </trkpt>
      <trkpt lat="46.87003" lon="8.5054">
        <ele>1560</ele>
        <time>2021-08-11T10:39:19.404Z</time>
      </trkpt>
      <trkpt lat="46.87004" lon="8.5054">
        <ele>1560</ele>
        <time>2021-08-11T10:39:20.404Z</time>
      </trkpt>
      <trkpt lat="46.87004" lon="8.5054">
        <ele>1561</ele>
        <time>2021-08-11T10:39:21.403Z</time>
      </trkpt>
      <trkpt lat="46.87005" lon="8.50539">
        <ele>1561</ele>
        <time>2021-08-11T10:39:22.404Z</time>
      </trkpt>
      <trkpt lat="46.87006" lon="8.50538">
        <ele>1561</ele>
        <time>2021-08-11T10:39:23.404Z</time>
      </trkpt>
      <trkpt lat="46.87007" lon="8.50538">
        <ele>1561</ele>
        <time>2021-08-11T10:39:24.403Z</time>
      </trkpt>
      <trkpt lat="46.87007" lon="8.50538">
        <ele>1561</ele>
        <time>2021-08-11T10:39:25.404Z</time>
      </trkpt>
      <trkpt lat="46.87008" lon="8.50537">
        <ele>1561</ele>
        <time>2021-08-11T10:39:26.404Z</time>
      </trkpt>
      <trkpt lat="46.87009" lon="8.50537">
        <ele>1562</ele>
        <time>2021-08-11T10:39:27.403Z</time>
      </trkpt>
      <trkpt lat="46.8701" lon="8.50536">
        <ele>1562</ele>
        <time>2021-08-11T10:39:28.404Z</time>
      </trkpt>
      <trkpt lat="46.87011" lon="8.50535">
        <ele>1562</ele>
        <time>2021-08-11T10:39:29.403Z</time>
      </trkpt>
      <trkpt lat="46.87011" lon="8.50534">
        <ele>1563</ele>
        <time>2021-08-11T10:39:30.404Z</time>
      </trkpt>
      <trkpt lat="46.87012" lon="8.50533">
        <ele>1563</ele>
        <time>2021-08-11T10:39:31.404Z</time>
      </trkpt>
      <trkpt lat="46.87012" lon="8.50533">
        <ele>1563</ele>
        <time>2021-08-11T10:39:32.403Z</time>
      </trkpt>
      <trkpt lat="46.87013" lon="8.50532">
        <ele>1563</ele>
        <time>2021-08-11T10:39:33.404Z</time>
      </trkpt>
      <trkpt lat="46.87013" lon="8.50531">
        <ele>1564</ele>
        <time>2021-08-11T10:39:34.404Z</time>
      </trkpt>
      <trkpt lat="46.87014" lon="8.50531">
        <ele>1564</ele>
        <time>2021-08-11T10:39:35.404Z</time>
      </trkpt>
      <trkpt lat="46.87014" lon="8.50531">
        <ele>1564</ele>
        <time>2021-08-11T10:39:36.404Z</time>
      </trkpt>
      <trkpt lat="46.87015" lon="8.50531">
        <ele>1565</ele>
        <time>2021-08-11T10:39:37.403Z</time>
      </trkpt>
      <trkpt lat="46.87015" lon="8.50532">
        <ele>1565</ele>
        <time>2021-08-11T10:39:38.404Z</time>
      </trkpt>
      <trkpt lat="46.87015" lon="8.50533">
        <ele>1565</ele>
        <time>2021-08-11T10:39:39.404Z</time>
      </trkpt>
      <trkpt lat="46.87016" lon="8.50533">
        <ele>1565</ele>
        <time>2021-08-11T10:39:40.404Z</time>
      </trkpt>
      <trkpt lat="46.87016" lon="8.50533">
        <ele>1565</ele>
        <time>2021-08-11T10:39:44.398Z</time>
      </trkpt>
      <trkpt lat="46.87017" lon="8.50532">
        <ele>1565</ele>
        <time>2021-08-11T10:39:46.237Z</time>
      </trkpt>
      <trkpt lat="46.87018" lon="8.50532">
        <ele>1566</ele>
        <time>2021-08-11T10:39:47.237Z</time>
      </trkpt>
      <trkpt lat="46.87021" lon="8.50531">
        <ele>1567</ele>
        <time>2021-08-11T10:39:48.237Z</time>
      </trkpt>
      <trkpt lat="46.87023" lon="8.50531">
        <ele>1567</ele>
        <time>2021-08-11T10:39:49.237Z</time>
      </trkpt>
      <trkpt lat="46.87025" lon="8.5053">
        <ele>1568</ele>
        <time>2021-08-11T10:39:50.237Z</time>
      </trkpt>
      <trkpt lat="46.87027" lon="8.5053">
        <ele>1568</ele>
        <time>2021-08-11T10:39:51.236Z</time>
      </trkpt>
      <trkpt lat="46.87029" lon="8.50529">
        <ele>1568</ele>
        <time>2021-08-11T10:39:52.237Z</time>
      </trkpt>
      <trkpt lat="46.8703" lon="8.50528">
        <ele>1569</ele>
        <time>2021-08-11T10:39:53.237Z</time>
      </trkpt>
      <trkpt lat="46.87031" lon="8.50528">
        <ele>1569</ele>
        <time>2021-08-11T10:39:54.237Z</time>
      </trkpt>
      <trkpt lat="46.87033" lon="8.50527">
        <ele>1569</ele>
        <time>2021-08-11T10:39:55.237Z</time>
      </trkpt>
      <trkpt lat="46.87034" lon="8.50527">
        <ele>1569</ele>
        <time>2021-08-11T10:39:56.236Z</time>
      </trkpt>
      <trkpt lat="46.87035" lon="8.50527">
        <ele>1570</ele>
        <time>2021-08-11T10:39:57.237Z</time>
      </trkpt>
      <trkpt lat="46.87036" lon="8.50526">
        <ele>1570</ele>
        <time>2021-08-11T10:39:58.237Z</time>
      </trkpt>
      <trkpt lat="46.87037" lon="8.50526">
        <ele>1570</ele>
        <time>2021-08-11T10:39:59.236Z</time>
      </trkpt>
      <trkpt lat="46.87037" lon="8.50526">
        <ele>1570</ele>
        <time>2021-08-11T10:40:00.237Z</time>
      </trkpt>
      <trkpt lat="46.87038" lon="8.50526">
        <ele>1570</ele>
        <time>2021-08-11T10:40:01.237Z</time>
      </trkpt>
      <trkpt lat="46.87039" lon="8.50526">
        <ele>1571</ele>
        <time>2021-08-11T10:40:02.237Z</time>
      </trkpt>
      <trkpt lat="46.87039" lon="8.50526">
        <ele>1571</ele>
        <time>2021-08-11T10:40:03.237Z</time>
      </trkpt>
      <trkpt lat="46.87041" lon="8.50524">
        <ele>1571</ele>
        <time>2021-08-11T10:40:04.236Z</time>
      </trkpt>
      <trkpt lat="46.87042" lon="8.50524">
        <ele>1571</ele>
        <time>2021-08-11T10:40:05.237Z</time>
      </trkpt>
      <trkpt lat="46.87043" lon="8.50523">
        <ele>1571</ele>
        <time>2021-08-11T10:40:06.237Z</time>
      </trkpt>
      <trkpt lat="46.87044" lon="8.50522">
        <ele>1571</ele>
        <time>2021-08-11T10:40:07.237Z</time>
      </trkpt>
      <trkpt lat="46.87044" lon="8.50521">
        <ele>1571</ele>
        <time>2021-08-11T10:40:08.236Z</time>
      </trkpt>
      <trkpt lat="46.87045" lon="8.50521">
        <ele>1570</ele>
        <time>2021-08-11T10:40:09.236Z</time>
      </trkpt>
      <trkpt lat="46.87046" lon="8.50521">
        <ele>1570</ele>
        <time>2021-08-11T10:40:10.237Z</time>
      </trkpt>
      <trkpt lat="46.87046" lon="8.5052">
        <ele>1570</ele>
        <time>2021-08-11T10:40:11.236Z</time>
      </trkpt>
      <trkpt lat="46.87047" lon="8.5052">
        <ele>1570</ele>
        <time>2021-08-11T10:40:12.237Z</time>
      </trkpt>
      <trkpt lat="46.87048" lon="8.5052">
        <ele>1570</ele>
        <time>2021-08-11T10:40:13.237Z</time>
      </trkpt>
      <trkpt lat="46.87049" lon="8.50519">
        <ele>1570</ele>
        <time>2021-08-11T10:40:14.237Z</time>
      </trkpt>
      <trkpt lat="46.8705" lon="8.50519">
        <ele>1569</ele>
        <time>2021-08-11T10:40:15.237Z</time>
      </trkpt>
      <trkpt lat="46.87051" lon="8.50518">
        <ele>1569</ele>
        <time>2021-08-11T10:40:16.237Z</time>
      </trkpt>
      <trkpt lat="46.87051" lon="8.50518">
        <ele>1569</ele>
        <time>2021-08-11T10:40:17.236Z</time>
      </trkpt>
      <trkpt lat="46.87052" lon="8.50518">
        <ele>1568</ele>
        <time>2021-08-11T10:40:18.237Z</time>
      </trkpt>
      <trkpt lat="46.87053" lon="8.50516">
        <ele>1568</ele>
        <time>2021-08-11T10:40:19.237Z</time>
      </trkpt>
      <trkpt lat="46.87054" lon="8.50516">
        <ele>1567</ele>
        <time>2021-08-11T10:40:20.237Z</time>
      </trkpt>
      <trkpt lat="46.87056" lon="8.50514">
        <ele>1567</ele>
        <time>2021-08-11T10:40:21.237Z</time>
      </trkpt>
      <trkpt lat="46.87057" lon="8.50513">
        <ele>1567</ele>
        <time>2021-08-11T10:40:22.236Z</time>
      </trkpt>
      <trkpt lat="46.87059" lon="8.50513">
        <ele>1567</ele>
        <time>2021-08-11T10:40:23.237Z</time>
      </trkpt>
      <trkpt lat="46.87061" lon="8.50512">
        <ele>1567</ele>
        <time>2021-08-11T10:40:24.237Z</time>
      </trkpt>
      <trkpt lat="46.87062" lon="8.50512">
        <ele>1567</ele>
        <time>2021-08-11T10:40:30.256Z</time>
      </trkpt>
      <trkpt lat="46.87063" lon="8.50512">
        <ele>1566</ele>
        <time>2021-08-11T10:40:31.256Z</time>
      </trkpt>
      <trkpt lat="46.87064" lon="8.50511">
        <ele>1566</ele>
        <time>2021-08-11T10:40:32.255Z</time>
      </trkpt>
      <trkpt lat="46.87065" lon="8.5051">
        <ele>1566</ele>
        <time>2021-08-11T10:40:43.369Z</time>
      </trkpt>
      <trkpt lat="46.87065" lon="8.50509">
        <ele>1565</ele>
        <time>2021-08-11T10:40:44.369Z</time>
      </trkpt>
      <trkpt lat="46.87066" lon="8.50509">
        <ele>1565</ele>
        <time>2021-08-11T10:40:45.368Z</time>
      </trkpt>
      <trkpt lat="46.87066" lon="8.50508">
        <ele>1565</ele>
        <time>2021-08-11T10:41:07.395Z</time>
      </trkpt>
      <trkpt lat="46.87066" lon="8.50508">
        <ele>1565</ele>
        <time>2021-08-11T10:41:11.272Z</time>
      </trkpt>
      <trkpt lat="46.87067" lon="8.50508">
        <ele>1565</ele>
        <time>2021-08-11T10:41:12.272Z</time>
      </trkpt>
      <trkpt lat="46.87068" lon="8.50507">
        <ele>1565</ele>
        <time>2021-08-11T10:41:25.045Z</time>
      </trkpt>
      <trkpt lat="46.8707" lon="8.50506">
        <ele>1565</ele>
        <time>2021-08-11T10:41:26.045Z</time>
      </trkpt>
      <trkpt lat="46.87071" lon="8.50505">
        <ele>1565</ele>
        <time>2021-08-11T10:41:27.045Z</time>
      </trkpt>
      <trkpt lat="46.87072" lon="8.50504">
        <ele>1565</ele>
        <time>2021-08-11T10:41:28.045Z</time>
      </trkpt>
      <trkpt lat="46.87073" lon="8.50504">
        <ele>1565</ele>
        <time>2021-08-11T10:41:29.045Z</time>
      </trkpt>
      <trkpt lat="46.87075" lon="8.50504">
        <ele>1565</ele>
        <time>2021-08-11T10:41:30.045Z</time>
      </trkpt>
      <trkpt lat="46.87076" lon="8.50504">
        <ele>1565</ele>
        <time>2021-08-11T10:41:31.045Z</time>
      </trkpt>
      <trkpt lat="46.87076" lon="8.50503">
        <ele>1565</ele>
        <time>2021-08-11T10:41:51.126Z</time>
      </trkpt>
      <trkpt lat="46.87077" lon="8.50503">
        <ele>1565</ele>
        <time>2021-08-11T10:41:52.126Z</time>
      </trkpt>
      <trkpt lat="46.87078" lon="8.50502">
        <ele>1565</ele>
        <time>2021-08-11T10:41:53.125Z</time>
      </trkpt>
      <trkpt lat="46.87078" lon="8.50501">
        <ele>1565</ele>
        <time>2021-08-11T10:41:54.125Z</time>
      </trkpt>
      <trkpt lat="46.87079" lon="8.505">
        <ele>1565</ele>
        <time>2021-08-11T10:41:55.126Z</time>
      </trkpt>
      <trkpt lat="46.8708" lon="8.50499">
        <ele>1565</ele>
        <time>2021-08-11T10:41:56.126Z</time>
      </trkpt>
      <trkpt lat="46.87081" lon="8.50499">
        <ele>1565</ele>
        <time>2021-08-11T10:41:57.126Z</time>
      </trkpt>
      <trkpt lat="46.87082" lon="8.50499">
        <ele>1565</ele>
        <time>2021-08-11T10:41:58.125Z</time>
      </trkpt>
      <trkpt lat="46.87083" lon="8.50498">
        <ele>1565</ele>
        <time>2021-08-11T10:41:59.125Z</time>
      </trkpt>
      <trkpt lat="46.87084" lon="8.50498">
        <ele>1565</ele>
        <time>2021-08-11T10:42:00.126Z</time>
      </trkpt>
      <trkpt lat="46.87085" lon="8.50498">
        <ele>1565</ele>
        <time>2021-08-11T10:42:01.126Z</time>
      </trkpt>
      <trkpt lat="46.87085" lon="8.50497">
        <ele>1565</ele>
        <time>2021-08-11T10:42:02.126Z</time>
      </trkpt>
      <trkpt lat="46.87085" lon="8.50497">
        <ele>1565</ele>
        <time>2021-08-11T10:42:03.126Z</time>
      </trkpt>
      <trkpt lat="46.87086" lon="8.50496">
        <ele>1565</ele>
        <time>2021-08-11T10:42:04.125Z</time>
      </trkpt>
      <trkpt lat="46.87087" lon="8.50495">
        <ele>1565</ele>
        <time>2021-08-11T10:42:05.126Z</time>
      </trkpt>
      <trkpt lat="46.87088" lon="8.50495">
        <ele>1565</ele>
        <time>2021-08-11T10:42:06.126Z</time>
      </trkpt>
      <trkpt lat="46.87089" lon="8.50495">
        <ele>1565</ele>
        <time>2021-08-11T10:42:07.125Z</time>
      </trkpt>
      <trkpt lat="46.87091" lon="8.50496">
        <ele>1565</ele>
        <time>2021-08-11T10:42:08.126Z</time>
      </trkpt>
      <trkpt lat="46.87092" lon="8.50496">
        <ele>1565</ele>
        <time>2021-08-11T10:42:09.126Z</time>
      </trkpt>
      <trkpt lat="46.87093" lon="8.50496">
        <ele>1565</ele>
        <time>2021-08-11T10:42:10.126Z</time>
      </trkpt>
      <trkpt lat="46.87094" lon="8.50496">
        <ele>1565</ele>
        <time>2021-08-11T10:42:11.125Z</time>
      </trkpt>
      <trkpt lat="46.87095" lon="8.50496">
        <ele>1565</ele>
        <time>2021-08-11T10:42:12.126Z</time>
      </trkpt>
      <trkpt lat="46.87096" lon="8.50495">
        <ele>1565</ele>
        <time>2021-08-11T10:42:13.126Z</time>
      </trkpt>
      <trkpt lat="46.87097" lon="8.50494">
        <ele>1565</ele>
        <time>2021-08-11T10:42:15.110Z</time>
      </trkpt>
      <trkpt lat="46.87098" lon="8.50493">
        <ele>1565</ele>
        <time>2021-08-11T10:42:16.110Z</time>
      </trkpt>
      <trkpt lat="46.87099" lon="8.50493">
        <ele>1565</ele>
        <time>2021-08-11T10:42:17.109Z</time>
      </trkpt>
      <trkpt lat="46.871" lon="8.50493">
        <ele>1565</ele>
        <time>2021-08-11T10:42:18.110Z</time>
      </trkpt>
      <trkpt lat="46.871" lon="8.50494">
        <ele>1565</ele>
        <time>2021-08-11T10:42:19.110Z</time>
      </trkpt>
      <trkpt lat="46.87101" lon="8.50493">
        <ele>1565</ele>
        <time>2021-08-11T10:42:20.109Z</time>
      </trkpt>
      <trkpt lat="46.87102" lon="8.50494">
        <ele>1565</ele>
        <time>2021-08-11T10:42:21.109Z</time>
      </trkpt>
      <trkpt lat="46.87103" lon="8.50494">
        <ele>1565</ele>
        <time>2021-08-11T10:42:22.110Z</time>
      </trkpt>
      <trkpt lat="46.87104" lon="8.50493">
        <ele>1565</ele>
        <time>2021-08-11T10:42:23.110Z</time>
      </trkpt>
      <trkpt lat="46.87106" lon="8.50493">
        <ele>1566</ele>
        <time>2021-08-11T10:42:25.111Z</time>
      </trkpt>
      <trkpt lat="46.87107" lon="8.50492">
        <ele>1566</ele>
        <time>2021-08-11T10:42:26.110Z</time>
      </trkpt>
      <trkpt lat="46.87107" lon="8.50491">
        <ele>1566</ele>
        <time>2021-08-11T10:42:27.110Z</time>
      </trkpt>
      <trkpt lat="46.87108" lon="8.5049">
        <ele>1566</ele>
        <time>2021-08-11T10:42:28.111Z</time>
      </trkpt>
      <trkpt lat="46.87109" lon="8.50489">
        <ele>1565</ele>
        <time>2021-08-11T10:42:29.111Z</time>
      </trkpt>
      <trkpt lat="46.8711" lon="8.50488">
        <ele>1565</ele>
        <time>2021-08-11T10:42:30.111Z</time>
      </trkpt>
      <trkpt lat="46.8711" lon="8.50488">
        <ele>1564</ele>
        <time>2021-08-11T10:42:31.111Z</time>
      </trkpt>
      <trkpt lat="46.87111" lon="8.50487">
        <ele>1564</ele>
        <time>2021-08-11T10:42:32.110Z</time>
      </trkpt>
      <trkpt lat="46.87112" lon="8.50486">
        <ele>1563</ele>
        <time>2021-08-11T10:42:33.111Z</time>
      </trkpt>
      <trkpt lat="46.87113" lon="8.50486">
        <ele>1563</ele>
        <time>2021-08-11T10:42:34.110Z</time>
      </trkpt>
      <trkpt lat="46.87115" lon="8.50485">
        <ele>1562</ele>
        <time>2021-08-11T10:42:35.111Z</time>
      </trkpt>
      <trkpt lat="46.87115" lon="8.50484">
        <ele>1562</ele>
        <time>2021-08-11T10:42:36.111Z</time>
      </trkpt>
      <trkpt lat="46.87117" lon="8.50484">
        <ele>1561</ele>
        <time>2021-08-11T10:42:37.111Z</time>
      </trkpt>
      <trkpt lat="46.87118" lon="8.50483">
        <ele>1561</ele>
        <time>2021-08-11T10:42:38.111Z</time>
      </trkpt>
      <trkpt lat="46.87119" lon="8.50481">
        <ele>1560</ele>
        <time>2021-08-11T10:42:39.110Z</time>
      </trkpt>
      <trkpt lat="46.8712" lon="8.5048">
        <ele>1560</ele>
        <time>2021-08-11T10:42:40.110Z</time>
      </trkpt>
      <trkpt lat="46.87121" lon="8.50478">
        <ele>1560</ele>
        <time>2021-08-11T10:42:45.147Z</time>
      </trkpt>
      <trkpt lat="46.87121" lon="8.50478">
        <ele>1559</ele>
        <time>2021-08-11T10:42:46.148Z</time>
      </trkpt>
      <trkpt lat="46.87122" lon="8.50477">
        <ele>1559</ele>
        <time>2021-08-11T10:42:47.148Z</time>
      </trkpt>
      <trkpt lat="46.87123" lon="8.50476">
        <ele>1559</ele>
        <time>2021-08-11T10:42:48.148Z</time>
      </trkpt>
      <trkpt lat="46.87124" lon="8.50476">
        <ele>1558</ele>
        <time>2021-08-11T10:42:49.148Z</time>
      </trkpt>
      <trkpt lat="46.87125" lon="8.50476">
        <ele>1558</ele>
        <time>2021-08-11T10:42:56.124Z</time>
      </trkpt>
      <trkpt lat="46.87126" lon="8.50475">
        <ele>1557</ele>
        <time>2021-08-11T10:42:57.125Z</time>
      </trkpt>
      <trkpt lat="46.87127" lon="8.50475">
        <ele>1557</ele>
        <time>2021-08-11T10:43:02.897Z</time>
      </trkpt>
      <trkpt lat="46.87128" lon="8.50474">
        <ele>1556</ele>
        <time>2021-08-11T10:43:03.898Z</time>
      </trkpt>
      <trkpt lat="46.87128" lon="8.50474">
        <ele>1555</ele>
        <time>2021-08-11T10:43:04.898Z</time>
      </trkpt>
      <trkpt lat="46.87129" lon="8.50474">
        <ele>1555</ele>
        <time>2021-08-11T10:43:05.898Z</time>
      </trkpt>
      <trkpt lat="46.8713" lon="8.50474">
        <ele>1555</ele>
        <time>2021-08-11T10:43:06.898Z</time>
      </trkpt>
      <trkpt lat="46.87131" lon="8.50475">
        <ele>1554</ele>
        <time>2021-08-11T10:43:07.897Z</time>
      </trkpt>
      <trkpt lat="46.87132" lon="8.50475">
        <ele>1554</ele>
        <time>2021-08-11T10:43:08.897Z</time>
      </trkpt>
      <trkpt lat="46.87133" lon="8.50476">
        <ele>1553</ele>
        <time>2021-08-11T10:43:13.893Z</time>
      </trkpt>
      <trkpt lat="46.87135" lon="8.50475">
        <ele>1553</ele>
        <time>2021-08-11T10:43:14.892Z</time>
      </trkpt>
      <trkpt lat="46.87137" lon="8.50474">
        <ele>1553</ele>
        <time>2021-08-11T10:43:15.893Z</time>
      </trkpt>
      <trkpt lat="46.87138" lon="8.50474">
        <ele>1552</ele>
        <time>2021-08-11T10:43:16.893Z</time>
      </trkpt>
      <trkpt lat="46.87139" lon="8.50473">
        <ele>1552</ele>
        <time>2021-08-11T10:43:17.892Z</time>
      </trkpt>
      <trkpt lat="46.8714" lon="8.50473">
        <ele>1552</ele>
        <time>2021-08-11T10:43:20.880Z</time>
      </trkpt>
      <trkpt lat="46.87141" lon="8.50473">
        <ele>1552</ele>
        <time>2021-08-11T10:43:21.879Z</time>
      </trkpt>
      <trkpt lat="46.87142" lon="8.50473">
        <ele>1552</ele>
        <time>2021-08-11T10:43:22.880Z</time>
      </trkpt>
      <trkpt lat="46.87143" lon="8.50473">
        <ele>1552</ele>
        <time>2021-08-11T10:43:31.999Z</time>
      </trkpt>
      <trkpt lat="46.87144" lon="8.50474">
        <ele>1553</ele>
        <time>2021-08-11T10:43:32.999Z</time>
      </trkpt>
      <trkpt lat="46.87145" lon="8.50474">
        <ele>1553</ele>
        <time>2021-08-11T10:43:33.999Z</time>
      </trkpt>
      <trkpt lat="46.87145" lon="8.50474">
        <ele>1553</ele>
        <time>2021-08-11T10:43:34.998Z</time>
      </trkpt>
      <trkpt lat="46.87146" lon="8.50474">
        <ele>1554</ele>
        <time>2021-08-11T10:43:35.998Z</time>
      </trkpt>
      <trkpt lat="46.87147" lon="8.50473">
        <ele>1554</ele>
        <time>2021-08-11T10:43:36.999Z</time>
      </trkpt>
      <trkpt lat="46.87148" lon="8.50472">
        <ele>1554</ele>
        <time>2021-08-11T10:43:37.999Z</time>
      </trkpt>
      <trkpt lat="46.87149" lon="8.50472">
        <ele>1553</ele>
        <time>2021-08-11T10:43:38.999Z</time>
      </trkpt>
      <trkpt lat="46.8715" lon="8.50471">
        <ele>1553</ele>
        <time>2021-08-11T10:43:39.998Z</time>
      </trkpt>
      <trkpt lat="46.87151" lon="8.50471">
        <ele>1553</ele>
        <time>2021-08-11T10:43:42.997Z</time>
      </trkpt>
      <trkpt lat="46.87151" lon="8.50471">
        <ele>1554</ele>
        <time>2021-08-11T10:43:44.771Z</time>
      </trkpt>
      <trkpt lat="46.87152" lon="8.5047">
        <ele>1554</ele>
        <time>2021-08-11T10:43:45.771Z</time>
      </trkpt>
      <trkpt lat="46.87153" lon="8.5047">
        <ele>1554</ele>
        <time>2021-08-11T10:43:46.771Z</time>
      </trkpt>
      <trkpt lat="46.87153" lon="8.5047">
        <ele>1554</ele>
        <time>2021-08-11T10:43:47.771Z</time>
      </trkpt>
      <trkpt lat="46.87154" lon="8.5047">
        <ele>1554</ele>
        <time>2021-08-11T10:43:51.874Z</time>
      </trkpt>
      <trkpt lat="46.87154" lon="8.50469">
        <ele>1554</ele>
        <time>2021-08-11T10:43:52.874Z</time>
      </trkpt>
      <trkpt lat="46.87155" lon="8.50468">
        <ele>1554</ele>
        <time>2021-08-11T10:43:53.874Z</time>
      </trkpt>
      <trkpt lat="46.87156" lon="8.50467">
        <ele>1554</ele>
        <time>2021-08-11T10:43:54.873Z</time>
      </trkpt>
      <trkpt lat="46.87157" lon="8.50465">
        <ele>1554</ele>
        <time>2021-08-11T10:43:55.874Z</time>
      </trkpt>
      <trkpt lat="46.87158" lon="8.50464">
        <ele>1555</ele>
        <time>2021-08-11T10:43:56.873Z</time>
      </trkpt>
      <trkpt lat="46.87158" lon="8.50462">
        <ele>1555</ele>
        <time>2021-08-11T10:43:57.873Z</time>
      </trkpt>
      <trkpt lat="46.87158" lon="8.50461">
        <ele>1556</ele>
        <time>2021-08-11T10:43:58.874Z</time>
      </trkpt>
      <trkpt lat="46.87159" lon="8.50459">
        <ele>1556</ele>
        <time>2021-08-11T10:43:59.874Z</time>
      </trkpt>
      <trkpt lat="46.87159" lon="8.50458">
        <ele>1557</ele>
        <time>2021-08-11T10:44:00.874Z</time>
      </trkpt>
      <trkpt lat="46.87159" lon="8.50456">
        <ele>1557</ele>
        <time>2021-08-11T10:44:01.874Z</time>
      </trkpt>
      <trkpt lat="46.87159" lon="8.50456">
        <ele>1558</ele>
        <time>2021-08-11T10:44:14.018Z</time>
      </trkpt>
      <trkpt lat="46.87158" lon="8.50455">
        <ele>1558</ele>
        <time>2021-08-11T10:44:15.018Z</time>
      </trkpt>
      <trkpt lat="46.87159" lon="8.50453">
        <ele>1558</ele>
        <time>2021-08-11T10:44:22.876Z</time>
      </trkpt>
      <trkpt lat="46.8716" lon="8.5045">
        <ele>1558</ele>
        <time>2021-08-11T10:44:23.875Z</time>
      </trkpt>
      <trkpt lat="46.87161" lon="8.50448">
        <ele>1558</ele>
        <time>2021-08-11T10:44:29.773Z</time>
      </trkpt>
      <trkpt lat="46.87162" lon="8.50446">
        <ele>1558</ele>
        <time>2021-08-11T10:44:30.773Z</time>
      </trkpt>
      <trkpt lat="46.87162" lon="8.50444">
        <ele>1558</ele>
        <time>2021-08-11T10:44:31.773Z</time>
      </trkpt>
      <trkpt lat="46.87162" lon="8.50444">
        <ele>1558</ele>
        <time>2021-08-11T10:44:32.772Z</time>
      </trkpt>
      <trkpt lat="46.87162" lon="8.50444">
        <ele>1558</ele>
        <time>2021-08-11T10:44:33.773Z</time>
      </trkpt>
      <trkpt lat="46.87163" lon="8.50444">
        <ele>1558</ele>
        <time>2021-08-11T10:44:34.773Z</time>
      </trkpt>
      <trkpt lat="46.87163" lon="8.50444">
        <ele>1558</ele>
        <time>2021-08-11T10:44:35.773Z</time>
      </trkpt>
      <trkpt lat="46.87164" lon="8.50443">
        <ele>1557</ele>
        <time>2021-08-11T10:44:36.773Z</time>
      </trkpt>
      <trkpt lat="46.87165" lon="8.50442">
        <ele>1557</ele>
        <time>2021-08-11T10:44:37.772Z</time>
      </trkpt>
      <trkpt lat="46.87166" lon="8.50441">
        <ele>1557</ele>
        <time>2021-08-11T10:44:38.773Z</time>
      </trkpt>
      <trkpt lat="46.87166" lon="8.5044">
        <ele>1557</ele>
        <time>2021-08-11T10:44:39.773Z</time>
      </trkpt>
      <trkpt lat="46.87167" lon="8.50439">
        <ele>1557</ele>
        <time>2021-08-11T10:44:40.773Z</time>
      </trkpt>
      <trkpt lat="46.87167" lon="8.50437">
        <ele>1557</ele>
        <time>2021-08-11T10:44:41.773Z</time>
      </trkpt>
      <trkpt lat="46.87168" lon="8.50436">
        <ele>1556</ele>
        <time>2021-08-11T10:44:42.772Z</time>
      </trkpt>
      <trkpt lat="46.87169" lon="8.50435">
        <ele>1556</ele>
        <time>2021-08-11T10:44:43.773Z</time>
      </trkpt>
      <trkpt lat="46.8717" lon="8.50435">
        <ele>1556</ele>
        <time>2021-08-11T10:44:44.773Z</time>
      </trkpt>
      <trkpt lat="46.8717" lon="8.50434">
        <ele>1556</ele>
        <time>2021-08-11T10:44:45.773Z</time>
      </trkpt>
      <trkpt lat="46.87171" lon="8.50434">
        <ele>1556</ele>
        <time>2021-08-11T10:44:46.772Z</time>
      </trkpt>
      <trkpt lat="46.87172" lon="8.50433">
        <ele>1556</ele>
        <time>2021-08-11T10:44:47.773Z</time>
      </trkpt>
      <trkpt lat="46.87172" lon="8.50433">
        <ele>1556</ele>
        <time>2021-08-11T10:44:48.773Z</time>
      </trkpt>
      <trkpt lat="46.87173" lon="8.50432">
        <ele>1556</ele>
        <time>2021-08-11T10:44:49.773Z</time>
      </trkpt>
      <trkpt lat="46.87174" lon="8.50432">
        <ele>1556</ele>
        <time>2021-08-11T10:44:50.773Z</time>
      </trkpt>
      <trkpt lat="46.87175" lon="8.50432">
        <ele>1556</ele>
        <time>2021-08-11T10:44:51.773Z</time>
      </trkpt>
      <trkpt lat="46.87176" lon="8.50432">
        <ele>1555</ele>
        <time>2021-08-11T10:44:52.773Z</time>
      </trkpt>
      <trkpt lat="46.87177" lon="8.50432">
        <ele>1555</ele>
        <time>2021-08-11T10:44:53.773Z</time>
      </trkpt>
      <trkpt lat="46.87178" lon="8.50432">
        <ele>1555</ele>
        <time>2021-08-11T10:44:54.773Z</time>
      </trkpt>
      <trkpt lat="46.87178" lon="8.50432">
        <ele>1555</ele>
        <time>2021-08-11T10:44:55.772Z</time>
      </trkpt>
      <trkpt lat="46.87179" lon="8.50432">
        <ele>1554</ele>
        <time>2021-08-11T10:44:56.772Z</time>
      </trkpt>
      <trkpt lat="46.8718" lon="8.50432">
        <ele>1554</ele>
        <time>2021-08-11T10:44:57.772Z</time>
      </trkpt>
      <trkpt lat="46.87181" lon="8.50433">
        <ele>1554</ele>
        <time>2021-08-11T10:44:58.772Z</time>
      </trkpt>
      <trkpt lat="46.87181" lon="8.50433">
        <ele>1554</ele>
        <time>2021-08-11T10:44:59.772Z</time>
      </trkpt>
      <trkpt lat="46.87181" lon="8.50432">
        <ele>1554</ele>
        <time>2021-08-11T10:45:00.772Z</time>
      </trkpt>
      <trkpt lat="46.87182" lon="8.50432">
        <ele>1554</ele>
        <time>2021-08-11T10:45:01.772Z</time>
      </trkpt>
      <trkpt lat="46.87183" lon="8.50431">
        <ele>1554</ele>
        <time>2021-08-11T10:45:02.772Z</time>
      </trkpt>
      <trkpt lat="46.87184" lon="8.5043">
        <ele>1554</ele>
        <time>2021-08-11T10:45:03.772Z</time>
      </trkpt>
      <trkpt lat="46.87185" lon="8.5043">
        <ele>1554</ele>
        <time>2021-08-11T10:45:04.773Z</time>
      </trkpt>
      <trkpt lat="46.87186" lon="8.50429">
        <ele>1554</ele>
        <time>2021-08-11T10:45:05.773Z</time>
      </trkpt>
      <trkpt lat="46.87187" lon="8.50429">
        <ele>1554</ele>
        <time>2021-08-11T10:45:06.772Z</time>
      </trkpt>
      <trkpt lat="46.87188" lon="8.50429">
        <ele>1554</ele>
        <time>2021-08-11T10:45:07.773Z</time>
      </trkpt>
      <trkpt lat="46.87189" lon="8.50429">
        <ele>1554</ele>
        <time>2021-08-11T10:45:08.773Z</time>
      </trkpt>
      <trkpt lat="46.8719" lon="8.50429">
        <ele>1554</ele>
        <time>2021-08-11T10:45:09.773Z</time>
      </trkpt>
      <trkpt lat="46.87191" lon="8.50428">
        <ele>1554</ele>
        <time>2021-08-11T10:45:10.772Z</time>
      </trkpt>
      <trkpt lat="46.87192" lon="8.50428">
        <ele>1555</ele>
        <time>2021-08-11T10:45:11.772Z</time>
      </trkpt>
      <trkpt lat="46.87193" lon="8.50428">
        <ele>1555</ele>
        <time>2021-08-11T10:45:12.773Z</time>
      </trkpt>
      <trkpt lat="46.87193" lon="8.50427">
        <ele>1555</ele>
        <time>2021-08-11T10:45:13.773Z</time>
      </trkpt>
      <trkpt lat="46.87195" lon="8.50427">
        <ele>1555</ele>
        <time>2021-08-11T10:45:14.773Z</time>
      </trkpt>
      <trkpt lat="46.87196" lon="8.50426">
        <ele>1555</ele>
        <time>2021-08-11T10:45:15.772Z</time>
      </trkpt>
      <trkpt lat="46.87197" lon="8.50426">
        <ele>1555</ele>
        <time>2021-08-11T10:45:16.773Z</time>
      </trkpt>
      <trkpt lat="46.87198" lon="8.50426">
        <ele>1555</ele>
        <time>2021-08-11T10:45:17.773Z</time>
      </trkpt>
      <trkpt lat="46.87198" lon="8.50425">
        <ele>1555</ele>
        <time>2021-08-11T10:45:18.773Z</time>
      </trkpt>
      <trkpt lat="46.87199" lon="8.50424">
        <ele>1554</ele>
        <time>2021-08-11T10:45:19.773Z</time>
      </trkpt>
      <trkpt lat="46.872" lon="8.50424">
        <ele>1554</ele>
        <time>2021-08-11T10:45:20.772Z</time>
      </trkpt>
      <trkpt lat="46.872" lon="8.50424">
        <ele>1554</ele>
        <time>2021-08-11T10:45:21.773Z</time>
      </trkpt>
      <trkpt lat="46.872" lon="8.50424">
        <ele>1554</ele>
        <time>2021-08-11T10:45:22.773Z</time>
      </trkpt>
      <trkpt lat="46.87202" lon="8.50424">
        <ele>1554</ele>
        <time>2021-08-11T10:45:23.773Z</time>
      </trkpt>
      <trkpt lat="46.87203" lon="8.50423">
        <ele>1555</ele>
        <time>2021-08-11T10:45:24.772Z</time>
      </trkpt>
      <trkpt lat="46.87205" lon="8.50422">
        <ele>1555</ele>
        <time>2021-08-11T10:45:25.773Z</time>
      </trkpt>
      <trkpt lat="46.87206" lon="8.50421">
        <ele>1555</ele>
        <time>2021-08-11T10:45:26.773Z</time>
      </trkpt>
      <trkpt lat="46.87207" lon="8.5042">
        <ele>1556</ele>
        <time>2021-08-11T10:45:27.773Z</time>
      </trkpt>
      <trkpt lat="46.87209" lon="8.5042">
        <ele>1556</ele>
        <time>2021-08-11T10:45:28.773Z</time>
      </trkpt>
      <trkpt lat="46.8721" lon="8.50421">
        <ele>1557</ele>
        <time>2021-08-11T10:45:29.772Z</time>
      </trkpt>
      <trkpt lat="46.87211" lon="8.50421">
        <ele>1557</ele>
        <time>2021-08-11T10:45:30.773Z</time>
      </trkpt>
      <trkpt lat="46.87211" lon="8.50422">
        <ele>1558</ele>
        <time>2021-08-11T10:45:31.773Z</time>
      </trkpt>
      <trkpt lat="46.87212" lon="8.50423">
        <ele>1558</ele>
        <time>2021-08-11T10:45:32.773Z</time>
      </trkpt>
      <trkpt lat="46.87213" lon="8.50423">
        <ele>1559</ele>
        <time>2021-08-11T10:45:33.772Z</time>
      </trkpt>
      <trkpt lat="46.87214" lon="8.50422">
        <ele>1559</ele>
        <time>2021-08-11T10:45:34.773Z</time>
      </trkpt>
      <trkpt lat="46.87216" lon="8.50422">
        <ele>1560</ele>
        <time>2021-08-11T10:45:35.773Z</time>
      </trkpt>
      <trkpt lat="46.87218" lon="8.50421">
        <ele>1559</ele>
        <time>2021-08-11T10:45:36.773Z</time>
      </trkpt>
      <trkpt lat="46.8722" lon="8.50422">
        <ele>1559</ele>
        <time>2021-08-11T10:45:37.773Z</time>
      </trkpt>
      <trkpt lat="46.87221" lon="8.50422">
        <ele>1559</ele>
        <time>2021-08-11T10:45:38.772Z</time>
      </trkpt>
      <trkpt lat="46.87223" lon="8.50422">
        <ele>1558</ele>
        <time>2021-08-11T10:45:40.856Z</time>
      </trkpt>
      <trkpt lat="46.87224" lon="8.50422">
        <ele>1558</ele>
        <time>2021-08-11T10:45:41.856Z</time>
      </trkpt>
      <trkpt lat="46.87225" lon="8.50423">
        <ele>1557</ele>
        <time>2021-08-11T10:45:42.856Z</time>
      </trkpt>
      <trkpt lat="46.87226" lon="8.50424">
        <ele>1557</ele>
        <time>2021-08-11T10:45:43.855Z</time>
      </trkpt>
      <trkpt lat="46.87227" lon="8.50425">
        <ele>1556</ele>
        <time>2021-08-11T10:45:44.856Z</time>
      </trkpt>
      <trkpt lat="46.87228" lon="8.50426">
        <ele>1556</ele>
        <time>2021-08-11T10:45:45.856Z</time>
      </trkpt>
      <trkpt lat="46.87229" lon="8.50426">
        <ele>1556</ele>
        <time>2021-08-11T10:45:46.855Z</time>
      </trkpt>
      <trkpt lat="46.8723" lon="8.50427">
        <ele>1555</ele>
        <time>2021-08-11T10:45:47.856Z</time>
      </trkpt>
      <trkpt lat="46.87231" lon="8.50428">
        <ele>1555</ele>
        <time>2021-08-11T10:45:48.855Z</time>
      </trkpt>
      <trkpt lat="46.87232" lon="8.50428">
        <ele>1554</ele>
        <time>2021-08-11T10:45:49.856Z</time>
      </trkpt>
      <trkpt lat="46.87233" lon="8.50429">
        <ele>1554</ele>
        <time>2021-08-11T10:45:50.856Z</time>
      </trkpt>
      <trkpt lat="46.87234" lon="8.50429">
        <ele>1553</ele>
        <time>2021-08-11T10:45:51.856Z</time>
      </trkpt>
      <trkpt lat="46.87235" lon="8.5043">
        <ele>1553</ele>
        <time>2021-08-11T10:45:52.856Z</time>
      </trkpt>
      <trkpt lat="46.87236" lon="8.5043">
        <ele>1552</ele>
        <time>2021-08-11T10:45:53.855Z</time>
      </trkpt>
      <trkpt lat="46.87237" lon="8.50431">
        <ele>1552</ele>
        <time>2021-08-11T10:45:54.856Z</time>
      </trkpt>
      <trkpt lat="46.87238" lon="8.50432">
        <ele>1552</ele>
        <time>2021-08-11T10:45:55.856Z</time>
      </trkpt>
      <trkpt lat="46.8724" lon="8.50432">
        <ele>1552</ele>
        <time>2021-08-11T10:45:56.856Z</time>
      </trkpt>
      <trkpt lat="46.8724" lon="8.50432">
        <ele>1552</ele>
        <time>2021-08-11T10:45:57.855Z</time>
      </trkpt>
      <trkpt lat="46.87241" lon="8.50433">
        <ele>1552</ele>
        <time>2021-08-11T10:45:58.856Z</time>
      </trkpt>
      <trkpt lat="46.87242" lon="8.50433">
        <ele>1552</ele>
        <time>2021-08-11T10:45:59.856Z</time>
      </trkpt>
      <trkpt lat="46.87242" lon="8.50434">
        <ele>1552</ele>
        <time>2021-08-11T10:46:00.856Z</time>
      </trkpt>
      <trkpt lat="46.87243" lon="8.50435">
        <ele>1553</ele>
        <time>2021-08-11T10:46:01.856Z</time>
      </trkpt>
      <trkpt lat="46.87244" lon="8.50436">
        <ele>1553</ele>
        <time>2021-08-11T10:46:02.855Z</time>
      </trkpt>
      <trkpt lat="46.87245" lon="8.50436">
        <ele>1553</ele>
        <time>2021-08-11T10:46:03.856Z</time>
      </trkpt>
      <trkpt lat="46.87246" lon="8.50436">
        <ele>1553</ele>
        <time>2021-08-11T10:46:04.856Z</time>
      </trkpt>
      <trkpt lat="46.87247" lon="8.50436">
        <ele>1553</ele>
        <time>2021-08-11T10:46:05.856Z</time>
      </trkpt>
      <trkpt lat="46.87248" lon="8.50436">
        <ele>1552</ele>
        <time>2021-08-11T10:46:06.855Z</time>
      </trkpt>
      <trkpt lat="46.87249" lon="8.50436">
        <ele>1552</ele>
        <time>2021-08-11T10:46:07.855Z</time>
      </trkpt>
      <trkpt lat="46.8725" lon="8.50435">
        <ele>1552</ele>
        <time>2021-08-11T10:46:08.856Z</time>
      </trkpt>
      <trkpt lat="46.8725" lon="8.50436">
        <ele>1551</ele>
        <time>2021-08-11T10:46:09.856Z</time>
      </trkpt>
      <trkpt lat="46.87251" lon="8.50438">
        <ele>1551</ele>
        <time>2021-08-11T10:46:10.856Z</time>
      </trkpt>
      <trkpt lat="46.87253" lon="8.50438">
        <ele>1551</ele>
        <time>2021-08-11T10:46:11.855Z</time>
      </trkpt>
      <trkpt lat="46.87254" lon="8.50438">
        <ele>1551</ele>
        <time>2021-08-11T10:46:12.856Z</time>
      </trkpt>
      <trkpt lat="46.87257" lon="8.50437">
        <ele>1550</ele>
        <time>2021-08-11T10:46:13.856Z</time>
      </trkpt>
      <trkpt lat="46.87258" lon="8.50436">
        <ele>1550</ele>
        <time>2021-08-11T10:46:14.856Z</time>
      </trkpt>
      <trkpt lat="46.87259" lon="8.50434">
        <ele>1550</ele>
        <time>2021-08-11T10:46:15.855Z</time>
      </trkpt>
      <trkpt lat="46.8726" lon="8.50433">
        <ele>1550</ele>
        <time>2021-08-11T10:46:16.856Z</time>
      </trkpt>
      <trkpt lat="46.8726" lon="8.50431">
        <ele>1549</ele>
        <time>2021-08-11T10:46:17.856Z</time>
      </trkpt>
      <trkpt lat="46.8726" lon="8.5043">
        <ele>1549</ele>
        <time>2021-08-11T10:46:18.856Z</time>
      </trkpt>
      <trkpt lat="46.8726" lon="8.50429">
        <ele>1549</ele>
        <time>2021-08-11T10:46:19.855Z</time>
      </trkpt>
      <trkpt lat="46.8726" lon="8.50428">
        <ele>1548</ele>
        <time>2021-08-11T10:46:20.856Z</time>
      </trkpt>
      <trkpt lat="46.87261" lon="8.50427">
        <ele>1547</ele>
        <time>2021-08-11T10:46:21.856Z</time>
      </trkpt>
      <trkpt lat="46.87261" lon="8.50426">
        <ele>1547</ele>
        <time>2021-08-11T10:46:22.856Z</time>
      </trkpt>
      <trkpt lat="46.87262" lon="8.50425">
        <ele>1546</ele>
        <time>2021-08-11T10:46:23.855Z</time>
      </trkpt>
      <trkpt lat="46.87262" lon="8.50424">
        <ele>1546</ele>
        <time>2021-08-11T10:46:24.856Z</time>
      </trkpt>
      <trkpt lat="46.87262" lon="8.50422">
        <ele>1545</ele>
        <time>2021-08-11T10:46:25.856Z</time>
      </trkpt>
      <trkpt lat="46.87262" lon="8.5042">
        <ele>1545</ele>
        <time>2021-08-11T10:46:26.856Z</time>
      </trkpt>
      <trkpt lat="46.87262" lon="8.50419">
        <ele>1545</ele>
        <time>2021-08-11T10:46:27.855Z</time>
      </trkpt>
      <trkpt lat="46.87262" lon="8.50419">
        <ele>1545</ele>
        <time>2021-08-11T10:46:28.856Z</time>
      </trkpt>
      <trkpt lat="46.87263" lon="8.50418">
        <ele>1544</ele>
        <time>2021-08-11T10:46:36.871Z</time>
      </trkpt>
      <trkpt lat="46.87263" lon="8.50417">
        <ele>1543</ele>
        <time>2021-08-11T10:46:37.871Z</time>
      </trkpt>
      <trkpt lat="46.87263" lon="8.50416">
        <ele>1542</ele>
        <time>2021-08-11T10:46:38.870Z</time>
      </trkpt>
      <trkpt lat="46.87263" lon="8.50415">
        <ele>1541</ele>
        <time>2021-08-11T10:46:39.871Z</time>
      </trkpt>
      <trkpt lat="46.87263" lon="8.50415">
        <ele>1540</ele>
        <time>2021-08-11T10:46:40.871Z</time>
      </trkpt>
      <trkpt lat="46.87264" lon="8.50414">
        <ele>1539</ele>
        <time>2021-08-11T10:46:41.871Z</time>
      </trkpt>
      <trkpt lat="46.87265" lon="8.50413">
        <ele>1538</ele>
        <time>2021-08-11T10:46:42.870Z</time>
      </trkpt>
      <trkpt lat="46.87265" lon="8.50412">
        <ele>1538</ele>
        <time>2021-08-11T10:46:43.870Z</time>
      </trkpt>
      <trkpt lat="46.87266" lon="8.5041">
        <ele>1537</ele>
        <time>2021-08-11T10:46:44.870Z</time>
      </trkpt>
      <trkpt lat="46.87267" lon="8.50409">
        <ele>1537</ele>
        <time>2021-08-11T10:46:47.991Z</time>
      </trkpt>
      <trkpt lat="46.87267" lon="8.50407">
        <ele>1537</ele>
        <time>2021-08-11T10:46:48.991Z</time>
      </trkpt>
      <trkpt lat="46.87268" lon="8.50406">
        <ele>1537</ele>
        <time>2021-08-11T10:46:49.991Z</time>
      </trkpt>
      <trkpt lat="46.87269" lon="8.50405">
        <ele>1536</ele>
        <time>2021-08-11T10:46:50.991Z</time>
      </trkpt>
      <trkpt lat="46.87269" lon="8.50404">
        <ele>1535</ele>
        <time>2021-08-11T10:46:51.992Z</time>
      </trkpt>
      <trkpt lat="46.8727" lon="8.50403">
        <ele>1534</ele>
        <time>2021-08-11T10:46:52.992Z</time>
      </trkpt>
      <trkpt lat="46.8727" lon="8.50402">
        <ele>1534</ele>
        <time>2021-08-11T10:46:53.991Z</time>
      </trkpt>
      <trkpt lat="46.8727" lon="8.50401">
        <ele>1533</ele>
        <time>2021-08-11T10:46:54.991Z</time>
      </trkpt>
      <trkpt lat="46.87271" lon="8.50401">
        <ele>1532</ele>
        <time>2021-08-11T10:46:55.992Z</time>
      </trkpt>
      <trkpt lat="46.87272" lon="8.504">
        <ele>1532</ele>
        <time>2021-08-11T10:46:56.992Z</time>
      </trkpt>
      <trkpt lat="46.87273" lon="8.50398">
        <ele>1531</ele>
        <time>2021-08-11T10:46:57.992Z</time>
      </trkpt>
      <trkpt lat="46.87275" lon="8.50397">
        <ele>1531</ele>
        <time>2021-08-11T10:46:58.991Z</time>
      </trkpt>
      <trkpt lat="46.87276" lon="8.50396">
        <ele>1531</ele>
        <time>2021-08-11T10:46:59.992Z</time>
      </trkpt>
      <trkpt lat="46.87278" lon="8.50394">
        <ele>1531</ele>
        <time>2021-08-11T10:47:00.992Z</time>
      </trkpt>
      <trkpt lat="46.87278" lon="8.50393">
        <ele>1531</ele>
        <time>2021-08-11T10:47:01.992Z</time>
      </trkpt>
      <trkpt lat="46.87279" lon="8.50392">
        <ele>1531</ele>
        <time>2021-08-11T10:47:02.992Z</time>
      </trkpt>
      <trkpt lat="46.8728" lon="8.50392">
        <ele>1531</ele>
        <time>2021-08-11T10:47:03.991Z</time>
      </trkpt>
      <trkpt lat="46.8728" lon="8.50391">
        <ele>1531</ele>
        <time>2021-08-11T10:47:04.991Z</time>
      </trkpt>
      <trkpt lat="46.8728" lon="8.5039">
        <ele>1531</ele>
        <time>2021-08-11T10:47:05.991Z</time>
      </trkpt>
      <trkpt lat="46.8728" lon="8.50389">
        <ele>1531</ele>
        <time>2021-08-11T10:47:06.991Z</time>
      </trkpt>
      <trkpt lat="46.8728" lon="8.50388">
        <ele>1532</ele>
        <time>2021-08-11T10:47:07.992Z</time>
      </trkpt>
      <trkpt lat="46.8728" lon="8.50387">
        <ele>1532</ele>
        <time>2021-08-11T10:47:08.992Z</time>
      </trkpt>
      <trkpt lat="46.8728" lon="8.50385">
        <ele>1533</ele>
        <time>2021-08-11T10:47:09.992Z</time>
      </trkpt>
      <trkpt lat="46.87281" lon="8.50385">
        <ele>1533</ele>
        <time>2021-08-11T10:47:10.991Z</time>
      </trkpt>
      <trkpt lat="46.87282" lon="8.50384">
        <ele>1534</ele>
        <time>2021-08-11T10:47:11.992Z</time>
      </trkpt>
      <trkpt lat="46.87281" lon="8.50381">
        <ele>1534</ele>
        <time>2021-08-11T10:47:12.992Z</time>
      </trkpt>
      <trkpt lat="46.8728" lon="8.5038">
        <ele>1534</ele>
        <time>2021-08-11T10:47:13.992Z</time>
      </trkpt>
      <trkpt lat="46.87279" lon="8.50379">
        <ele>1534</ele>
        <time>2021-08-11T10:47:14.992Z</time>
      </trkpt>
      <trkpt lat="46.87278" lon="8.50378">
        <ele>1533</ele>
        <time>2021-08-11T10:47:15.992Z</time>
      </trkpt>
      <trkpt lat="46.87279" lon="8.50377">
        <ele>1533</ele>
        <time>2021-08-11T10:47:16.991Z</time>
      </trkpt>
      <trkpt lat="46.8728" lon="8.50376">
        <ele>1533</ele>
        <time>2021-08-11T10:47:17.992Z</time>
      </trkpt>
      <trkpt lat="46.87281" lon="8.50376">
        <ele>1532</ele>
        <time>2021-08-11T10:47:18.991Z</time>
      </trkpt>
      <trkpt lat="46.87281" lon="8.50375">
        <ele>1531</ele>
        <time>2021-08-11T10:47:19.991Z</time>
      </trkpt>
      <trkpt lat="46.87281" lon="8.50373">
        <ele>1531</ele>
        <time>2021-08-11T10:47:20.992Z</time>
      </trkpt>
      <trkpt lat="46.87282" lon="8.50372">
        <ele>1530</ele>
        <time>2021-08-11T10:47:21.991Z</time>
      </trkpt>
      <trkpt lat="46.87282" lon="8.50372">
        <ele>1531</ele>
        <time>2021-08-11T10:47:22.992Z</time>
      </trkpt>
      <trkpt lat="46.87283" lon="8.5037">
        <ele>1531</ele>
        <time>2021-08-11T10:47:23.991Z</time>
      </trkpt>
      <trkpt lat="46.87283" lon="8.50369">
        <ele>1531</ele>
        <time>2021-08-11T10:47:24.992Z</time>
      </trkpt>
      <trkpt lat="46.87283" lon="8.50367">
        <ele>1531</ele>
        <time>2021-08-11T10:47:25.992Z</time>
      </trkpt>
      <trkpt lat="46.87283" lon="8.50366">
        <ele>1531</ele>
        <time>2021-08-11T10:47:26.991Z</time>
      </trkpt>
      <trkpt lat="46.87283" lon="8.50365">
        <ele>1531</ele>
        <time>2021-08-11T10:47:27.992Z</time>
      </trkpt>
      <trkpt lat="46.87283" lon="8.50364">
        <ele>1531</ele>
        <time>2021-08-11T10:47:28.991Z</time>
      </trkpt>
      <trkpt lat="46.87284" lon="8.50363">
        <ele>1530</ele>
        <time>2021-08-11T10:47:29.992Z</time>
      </trkpt>
      <trkpt lat="46.87285" lon="8.50361">
        <ele>1530</ele>
        <time>2021-08-11T10:47:30.992Z</time>
      </trkpt>
      <trkpt lat="46.87286" lon="8.5036">
        <ele>1530</ele>
        <time>2021-08-11T10:47:31.992Z</time>
      </trkpt>
      <trkpt lat="46.87287" lon="8.50359">
        <ele>1530</ele>
        <time>2021-08-11T10:47:32.992Z</time>
      </trkpt>
      <trkpt lat="46.87288" lon="8.50358">
        <ele>1529</ele>
        <time>2021-08-11T10:47:33.992Z</time>
      </trkpt>
      <trkpt lat="46.87288" lon="8.50357">
        <ele>1529</ele>
        <time>2021-08-11T10:47:34.992Z</time>
      </trkpt>
      <trkpt lat="46.87288" lon="8.50356">
        <ele>1529</ele>
        <time>2021-08-11T10:47:35.992Z</time>
      </trkpt>
      <trkpt lat="46.87289" lon="8.50355">
        <ele>1529</ele>
        <time>2021-08-11T10:47:36.991Z</time>
      </trkpt>
      <trkpt lat="46.87289" lon="8.50354">
        <ele>1529</ele>
        <time>2021-08-11T10:47:37.992Z</time>
      </trkpt>
      <trkpt lat="46.87289" lon="8.50351">
        <ele>1529</ele>
        <time>2021-08-11T10:47:38.991Z</time>
      </trkpt>
      <trkpt lat="46.87289" lon="8.50349">
        <ele>1530</ele>
        <time>2021-08-11T10:47:39.992Z</time>
      </trkpt>
      <trkpt lat="46.87289" lon="8.50348">
        <ele>1531</ele>
        <time>2021-08-11T10:47:40.992Z</time>
      </trkpt>
      <trkpt lat="46.87289" lon="8.50346">
        <ele>1531</ele>
        <time>2021-08-11T10:47:41.992Z</time>
      </trkpt>
      <trkpt lat="46.8729" lon="8.50345">
        <ele>1532</ele>
        <time>2021-08-11T10:47:42.992Z</time>
      </trkpt>
      <trkpt lat="46.87289" lon="8.50344">
        <ele>1532</ele>
        <time>2021-08-11T10:47:43.992Z</time>
      </trkpt>
      <trkpt lat="46.8729" lon="8.50342">
        <ele>1532</ele>
        <time>2021-08-11T10:47:44.992Z</time>
      </trkpt>
      <trkpt lat="46.8729" lon="8.50341">
        <ele>1532</ele>
        <time>2021-08-11T10:47:45.992Z</time>
      </trkpt>
      <trkpt lat="46.8729" lon="8.5034">
        <ele>1533</ele>
        <time>2021-08-11T10:47:46.992Z</time>
      </trkpt>
      <trkpt lat="46.87291" lon="8.5034">
        <ele>1533</ele>
        <time>2021-08-11T10:47:47.992Z</time>
      </trkpt>
      <trkpt lat="46.87292" lon="8.50339">
        <ele>1533</ele>
        <time>2021-08-11T10:47:48.992Z</time>
      </trkpt>
      <trkpt lat="46.87292" lon="8.50338">
        <ele>1533</ele>
        <time>2021-08-11T10:47:49.991Z</time>
      </trkpt>
      <trkpt lat="46.87291" lon="8.50337">
        <ele>1533</ele>
        <time>2021-08-11T10:47:50.992Z</time>
      </trkpt>
      <trkpt lat="46.87291" lon="8.50337">
        <ele>1532</ele>
        <time>2021-08-11T10:47:51.992Z</time>
      </trkpt>
      <trkpt lat="46.8729" lon="8.50337">
        <ele>1532</ele>
        <time>2021-08-11T10:47:52.992Z</time>
      </trkpt>
      <trkpt lat="46.8729" lon="8.50337">
        <ele>1532</ele>
        <time>2021-08-11T10:47:53.992Z</time>
      </trkpt>
      <trkpt lat="46.8729" lon="8.50337">
        <ele>1531</ele>
        <time>2021-08-11T10:47:54.992Z</time>
      </trkpt>
      <trkpt lat="46.8729" lon="8.50336">
        <ele>1526</ele>
        <time>2021-08-11T10:47:55.994Z</time>
      </trkpt>
      <trkpt lat="46.8729" lon="8.50336">
        <ele>1525</ele>
        <time>2021-08-11T10:47:56.994Z</time>
      </trkpt>
      <trkpt lat="46.87291" lon="8.50335">
        <ele>1524</ele>
        <time>2021-08-11T10:47:57.993Z</time>
      </trkpt>
      <trkpt lat="46.87291" lon="8.50334">
        <ele>1523</ele>
        <time>2021-08-11T10:47:58.994Z</time>
      </trkpt>
      <trkpt lat="46.87291" lon="8.50333">
        <ele>1523</ele>
        <time>2021-08-11T10:47:59.993Z</time>
      </trkpt>
      <trkpt lat="46.8729" lon="8.50332">
        <ele>1523</ele>
        <time>2021-08-11T10:48:00.993Z</time>
      </trkpt>
      <trkpt lat="46.8729" lon="8.50331">
        <ele>1522</ele>
        <time>2021-08-11T10:48:01.994Z</time>
      </trkpt>
      <trkpt lat="46.8729" lon="8.5033">
        <ele>1522</ele>
        <time>2021-08-11T10:48:02.993Z</time>
      </trkpt>
      <trkpt lat="46.8729" lon="8.50329">
        <ele>1521</ele>
        <time>2021-08-11T10:48:03.994Z</time>
      </trkpt>
      <trkpt lat="46.87289" lon="8.50328">
        <ele>1521</ele>
        <time>2021-08-11T10:48:04.994Z</time>
      </trkpt>
      <trkpt lat="46.87289" lon="8.50327">
        <ele>1521</ele>
        <time>2021-08-11T10:48:05.994Z</time>
      </trkpt>
      <trkpt lat="46.87289" lon="8.50326">
        <ele>1521</ele>
        <time>2021-08-11T10:48:06.994Z</time>
      </trkpt>
      <trkpt lat="46.87288" lon="8.50325">
        <ele>1521</ele>
        <time>2021-08-11T10:48:07.993Z</time>
      </trkpt>
      <trkpt lat="46.87288" lon="8.50323">
        <ele>1520</ele>
        <time>2021-08-11T10:48:08.994Z</time>
      </trkpt>
      <trkpt lat="46.87288" lon="8.50322">
        <ele>1520</ele>
        <time>2021-08-11T10:48:09.993Z</time>
      </trkpt>
      <trkpt lat="46.87288" lon="8.50321">
        <ele>1520</ele>
        <time>2021-08-11T10:48:10.994Z</time>
      </trkpt>
      <trkpt lat="46.87289" lon="8.5032">
        <ele>1519</ele>
        <time>2021-08-11T10:48:11.993Z</time>
      </trkpt>
      <trkpt lat="46.87289" lon="8.5032">
        <ele>1519</ele>
        <time>2021-08-11T10:48:12.993Z</time>
      </trkpt>
      <trkpt lat="46.87288" lon="8.50319">
        <ele>1518</ele>
        <time>2021-08-11T10:48:13.994Z</time>
      </trkpt>
      <trkpt lat="46.87288" lon="8.50318">
        <ele>1518</ele>
        <time>2021-08-11T10:48:14.993Z</time>
      </trkpt>
      <trkpt lat="46.87288" lon="8.50316">
        <ele>1518</ele>
        <time>2021-08-11T10:48:15.994Z</time>
      </trkpt>
      <trkpt lat="46.87288" lon="8.50315">
        <ele>1518</ele>
        <time>2021-08-11T10:48:16.994Z</time>
      </trkpt>
      <trkpt lat="46.87289" lon="8.50313">
        <ele>1518</ele>
        <time>2021-08-11T10:48:17.994Z</time>
      </trkpt>
      <trkpt lat="46.8729" lon="8.50312">
        <ele>1518</ele>
        <time>2021-08-11T10:48:18.994Z</time>
      </trkpt>
      <trkpt lat="46.87291" lon="8.5031">
        <ele>1518</ele>
        <time>2021-08-11T10:48:19.993Z</time>
      </trkpt>
      <trkpt lat="46.87291" lon="8.50309">
        <ele>1518</ele>
        <time>2021-08-11T10:48:20.994Z</time>
      </trkpt>
      <trkpt lat="46.87292" lon="8.50307">
        <ele>1518</ele>
        <time>2021-08-11T10:48:21.994Z</time>
      </trkpt>
      <trkpt lat="46.87293" lon="8.50305">
        <ele>1517</ele>
        <time>2021-08-11T10:48:22.993Z</time>
      </trkpt>
      <trkpt lat="46.87293" lon="8.50304">
        <ele>1516</ele>
        <time>2021-08-11T10:48:23.993Z</time>
      </trkpt>
      <trkpt lat="46.87294" lon="8.50304">
        <ele>1516</ele>
        <time>2021-08-11T10:48:26.126Z</time>
      </trkpt>
      <trkpt lat="46.87294" lon="8.50304">
        <ele>1515</ele>
        <time>2021-08-11T10:48:27.126Z</time>
      </trkpt>
      <trkpt lat="46.87294" lon="8.50304">
        <ele>1515</ele>
        <time>2021-08-11T10:48:28.126Z</time>
      </trkpt>
      <trkpt lat="46.87293" lon="8.50306">
        <ele>1515</ele>
        <time>2021-08-11T10:48:29.126Z</time>
      </trkpt>
      <trkpt lat="46.87293" lon="8.50307">
        <ele>1515</ele>
        <time>2021-08-11T10:48:30.126Z</time>
      </trkpt>
      <trkpt lat="46.87293" lon="8.50308">
        <ele>1515</ele>
        <time>2021-08-11T10:48:31.126Z</time>
      </trkpt>
      <trkpt lat="46.87293" lon="8.5031">
        <ele>1515</ele>
        <time>2021-08-11T10:48:32.126Z</time>
      </trkpt>
      <trkpt lat="46.87293" lon="8.50312">
        <ele>1515</ele>
        <time>2021-08-11T10:48:33.126Z</time>
      </trkpt>
      <trkpt lat="46.87293" lon="8.50313">
        <ele>1515</ele>
        <time>2021-08-11T10:48:34.126Z</time>
      </trkpt>
      <trkpt lat="46.87293" lon="8.50315">
        <ele>1516</ele>
        <time>2021-08-11T10:48:35.126Z</time>
      </trkpt>
      <trkpt lat="46.87293" lon="8.50316">
        <ele>1516</ele>
        <time>2021-08-11T10:48:36.125Z</time>
      </trkpt>
      <trkpt lat="46.87294" lon="8.50317">
        <ele>1517</ele>
        <time>2021-08-11T10:48:37.125Z</time>
      </trkpt>
      <trkpt lat="46.87294" lon="8.50319">
        <ele>1517</ele>
        <time>2021-08-11T10:48:38.126Z</time>
      </trkpt>
      <trkpt lat="46.87295" lon="8.50319">
        <ele>1518</ele>
        <time>2021-08-11T10:48:39.126Z</time>
      </trkpt>
      <trkpt lat="46.87295" lon="8.5032">
        <ele>1518</ele>
        <time>2021-08-11T10:48:40.126Z</time>
      </trkpt>
      <trkpt lat="46.87296" lon="8.50321">
        <ele>1518</ele>
        <time>2021-08-11T10:48:41.126Z</time>
      </trkpt>
      <trkpt lat="46.87296" lon="8.50322">
        <ele>1518</ele>
        <time>2021-08-11T10:48:42.126Z</time>
      </trkpt>
      <trkpt lat="46.87297" lon="8.50323">
        <ele>1518</ele>
        <time>2021-08-11T10:48:43.126Z</time>
      </trkpt>
      <trkpt lat="46.87298" lon="8.50325">
        <ele>1518</ele>
        <time>2021-08-11T10:48:44.126Z</time>
      </trkpt>
      <trkpt lat="46.87299" lon="8.50324">
        <ele>1518</ele>
        <time>2021-08-11T10:48:45.126Z</time>
      </trkpt>
      <trkpt lat="46.87301" lon="8.50323">
        <ele>1518</ele>
        <time>2021-08-11T10:48:46.126Z</time>
      </trkpt>
      <trkpt lat="46.87302" lon="8.50321">
        <ele>1518</ele>
        <time>2021-08-11T10:48:47.126Z</time>
      </trkpt>
      <trkpt lat="46.87303" lon="8.50319">
        <ele>1519</ele>
        <time>2021-08-11T10:48:48.126Z</time>
      </trkpt>
      <trkpt lat="46.87303" lon="8.50317">
        <ele>1519</ele>
        <time>2021-08-11T10:48:49.126Z</time>
      </trkpt>
      <trkpt lat="46.87303" lon="8.50316">
        <ele>1520</ele>
        <time>2021-08-11T10:48:52.103Z</time>
      </trkpt>
      <trkpt lat="46.87302" lon="8.50315">
        <ele>1520</ele>
        <time>2021-08-11T10:48:53.104Z</time>
      </trkpt>
      <trkpt lat="46.87302" lon="8.50314">
        <ele>1520</ele>
        <time>2021-08-11T10:48:54.104Z</time>
      </trkpt>
      <trkpt lat="46.87301" lon="8.50312">
        <ele>1520</ele>
        <time>2021-08-11T10:48:55.104Z</time>
      </trkpt>
      <trkpt lat="46.87301" lon="8.50311">
        <ele>1520</ele>
        <time>2021-08-11T10:48:56.103Z</time>
      </trkpt>
      <trkpt lat="46.87301" lon="8.5031">
        <ele>1519</ele>
        <time>2021-08-11T10:48:57.104Z</time>
      </trkpt>
      <trkpt lat="46.87301" lon="8.50309">
        <ele>1518</ele>
        <time>2021-08-11T10:48:58.104Z</time>
      </trkpt>
      <trkpt lat="46.87301" lon="8.50308">
        <ele>1517</ele>
        <time>2021-08-11T10:48:59.104Z</time>
      </trkpt>
      <trkpt lat="46.87301" lon="8.50307">
        <ele>1517</ele>
        <time>2021-08-11T10:49:00.104Z</time>
      </trkpt>
      <trkpt lat="46.87301" lon="8.50306">
        <ele>1516</ele>
        <time>2021-08-11T10:49:01.103Z</time>
      </trkpt>
      <trkpt lat="46.873" lon="8.50305">
        <ele>1516</ele>
        <time>2021-08-11T10:49:02.104Z</time>
      </trkpt>
      <trkpt lat="46.873" lon="8.50303">
        <ele>1515</ele>
        <time>2021-08-11T10:49:03.104Z</time>
      </trkpt>
      <trkpt lat="46.873" lon="8.50302">
        <ele>1514</ele>
        <time>2021-08-11T10:49:04.104Z</time>
      </trkpt>
      <trkpt lat="46.873" lon="8.50301">
        <ele>1514</ele>
        <time>2021-08-11T10:49:05.103Z</time>
      </trkpt>
      <trkpt lat="46.87301" lon="8.503">
        <ele>1513</ele>
        <time>2021-08-11T10:49:06.103Z</time>
      </trkpt>
      <trkpt lat="46.87302" lon="8.50298">
        <ele>1513</ele>
        <time>2021-08-11T10:49:07.104Z</time>
      </trkpt>
      <trkpt lat="46.87302" lon="8.50297">
        <ele>1512</ele>
        <time>2021-08-11T10:49:08.103Z</time>
      </trkpt>
      <trkpt lat="46.87303" lon="8.50296">
        <ele>1512</ele>
        <time>2021-08-11T10:49:09.104Z</time>
      </trkpt>
      <trkpt lat="46.87303" lon="8.50294">
        <ele>1512</ele>
        <time>2021-08-11T10:49:10.103Z</time>
      </trkpt>
      <trkpt lat="46.87304" lon="8.50293">
        <ele>1512</ele>
        <time>2021-08-11T10:49:11.104Z</time>
      </trkpt>
      <trkpt lat="46.87304" lon="8.50292">
        <ele>1511</ele>
        <time>2021-08-11T10:49:12.104Z</time>
      </trkpt>
      <trkpt lat="46.87304" lon="8.50291">
        <ele>1511</ele>
        <time>2021-08-11T10:49:13.104Z</time>
      </trkpt>
      <trkpt lat="46.87305" lon="8.5029">
        <ele>1511</ele>
        <time>2021-08-11T10:49:14.103Z</time>
      </trkpt>
      <trkpt lat="46.87305" lon="8.50288">
        <ele>1510</ele>
        <time>2021-08-11T10:49:15.103Z</time>
      </trkpt>
      <trkpt lat="46.87305" lon="8.50287">
        <ele>1510</ele>
        <time>2021-08-11T10:49:16.104Z</time>
      </trkpt>
      <trkpt lat="46.87306" lon="8.50287">
        <ele>1510</ele>
        <time>2021-08-11T10:49:17.104Z</time>
      </trkpt>
      <trkpt lat="46.87306" lon="8.50285">
        <ele>1509</ele>
        <time>2021-08-11T10:49:18.104Z</time>
      </trkpt>
      <trkpt lat="46.87306" lon="8.50284">
        <ele>1509</ele>
        <time>2021-08-11T10:49:19.103Z</time>
      </trkpt>
      <trkpt lat="46.87307" lon="8.50283">
        <ele>1508</ele>
        <time>2021-08-11T10:49:20.104Z</time>
      </trkpt>
      <trkpt lat="46.87308" lon="8.50281">
        <ele>1508</ele>
        <time>2021-08-11T10:49:21.103Z</time>
      </trkpt>
      <trkpt lat="46.87309" lon="8.5028">
        <ele>1507</ele>
        <time>2021-08-11T10:49:22.103Z</time>
      </trkpt>
      <trkpt lat="46.8731" lon="8.50278">
        <ele>1507</ele>
        <time>2021-08-11T10:49:23.103Z</time>
      </trkpt>
      <trkpt lat="46.8731" lon="8.50277">
        <ele>1507</ele>
        <time>2021-08-11T10:49:24.104Z</time>
      </trkpt>
      <trkpt lat="46.8731" lon="8.50275">
        <ele>1507</ele>
        <time>2021-08-11T10:49:25.103Z</time>
      </trkpt>
      <trkpt lat="46.8731" lon="8.50274">
        <ele>1507</ele>
        <time>2021-08-11T10:49:26.104Z</time>
      </trkpt>
      <trkpt lat="46.87311" lon="8.50273">
        <ele>1507</ele>
        <time>2021-08-11T10:49:27.104Z</time>
      </trkpt>
      <trkpt lat="46.87311" lon="8.50272">
        <ele>1506</ele>
        <time>2021-08-11T10:49:28.104Z</time>
      </trkpt>
      <trkpt lat="46.87311" lon="8.50272">
        <ele>1505</ele>
        <time>2021-08-11T10:49:29.103Z</time>
      </trkpt>
      <trkpt lat="46.87312" lon="8.50271">
        <ele>1505</ele>
        <time>2021-08-11T10:49:30.103Z</time>
      </trkpt>
      <trkpt lat="46.87313" lon="8.50269">
        <ele>1504</ele>
        <time>2021-08-11T10:49:31.104Z</time>
      </trkpt>
      <trkpt lat="46.87314" lon="8.50268">
        <ele>1504</ele>
        <time>2021-08-11T10:49:32.104Z</time>
      </trkpt>
      <trkpt lat="46.87314" lon="8.50267">
        <ele>1504</ele>
        <time>2021-08-11T10:49:33.104Z</time>
      </trkpt>
      <trkpt lat="46.87316" lon="8.50266">
        <ele>1504</ele>
        <time>2021-08-11T10:49:34.103Z</time>
      </trkpt>
      <trkpt lat="46.87318" lon="8.50265">
        <ele>1504</ele>
        <time>2021-08-11T10:49:35.104Z</time>
      </trkpt>
      <trkpt lat="46.8732" lon="8.50265">
        <ele>1503</ele>
        <time>2021-08-11T10:49:36.104Z</time>
      </trkpt>
      <trkpt lat="46.87321" lon="8.50264">
        <ele>1503</ele>
        <time>2021-08-11T10:49:37.104Z</time>
      </trkpt>
      <trkpt lat="46.87322" lon="8.50262">
        <ele>1503</ele>
        <time>2021-08-11T10:49:38.104Z</time>
      </trkpt>
      <trkpt lat="46.87323" lon="8.50261">
        <ele>1503</ele>
        <time>2021-08-11T10:49:39.103Z</time>
      </trkpt>
      <trkpt lat="46.87324" lon="8.5026">
        <ele>1503</ele>
        <time>2021-08-11T10:49:40.104Z</time>
      </trkpt>
      <trkpt lat="46.87326" lon="8.50259">
        <ele>1504</ele>
        <time>2021-08-11T10:49:41.104Z</time>
      </trkpt>
      <trkpt lat="46.87327" lon="8.50257">
        <ele>1504</ele>
        <time>2021-08-11T10:49:42.103Z</time>
      </trkpt>
      <trkpt lat="46.87327" lon="8.50256">
        <ele>1504</ele>
        <time>2021-08-11T10:49:43.103Z</time>
      </trkpt>
      <trkpt lat="46.87328" lon="8.50254">
        <ele>1504</ele>
        <time>2021-08-11T10:49:44.104Z</time>
      </trkpt>
      <trkpt lat="46.87328" lon="8.50253">
        <ele>1504</ele>
        <time>2021-08-11T10:49:45.104Z</time>
      </trkpt>
      <trkpt lat="46.87329" lon="8.50252">
        <ele>1504</ele>
        <time>2021-08-11T10:49:46.104Z</time>
      </trkpt>
      <trkpt lat="46.8733" lon="8.5025">
        <ele>1504</ele>
        <time>2021-08-11T10:49:47.104Z</time>
      </trkpt>
      <trkpt lat="46.8733" lon="8.50249">
        <ele>1505</ele>
        <time>2021-08-11T10:49:48.103Z</time>
      </trkpt>
      <trkpt lat="46.87331" lon="8.50248">
        <ele>1505</ele>
        <time>2021-08-11T10:49:49.104Z</time>
      </trkpt>
      <trkpt lat="46.8733" lon="8.50247">
        <ele>1504</ele>
        <time>2021-08-11T10:49:50.104Z</time>
      </trkpt>
      <trkpt lat="46.8733" lon="8.50246">
        <ele>1504</ele>
        <time>2021-08-11T10:49:51.104Z</time>
      </trkpt>
      <trkpt lat="46.8733" lon="8.50244">
        <ele>1503</ele>
        <time>2021-08-11T10:49:52.103Z</time>
      </trkpt>
      <trkpt lat="46.87329" lon="8.50243">
        <ele>1503</ele>
        <time>2021-08-11T10:49:53.104Z</time>
      </trkpt>
      <trkpt lat="46.8733" lon="8.50243">
        <ele>1502</ele>
        <time>2021-08-11T10:49:54.103Z</time>
      </trkpt>
      <trkpt lat="46.8733" lon="8.50242">
        <ele>1502</ele>
        <time>2021-08-11T10:49:55.104Z</time>
      </trkpt>
      <trkpt lat="46.87331" lon="8.50242">
        <ele>1501</ele>
        <time>2021-08-11T10:49:56.104Z</time>
      </trkpt>
      <trkpt lat="46.87331" lon="8.50242">
        <ele>1500</ele>
        <time>2021-08-11T10:49:57.103Z</time>
      </trkpt>
      <trkpt lat="46.87332" lon="8.50241">
        <ele>1499</ele>
        <time>2021-08-11T10:49:58.103Z</time>
      </trkpt>
      <trkpt lat="46.87333" lon="8.5024">
        <ele>1499</ele>
        <time>2021-08-11T10:49:59.104Z</time>
      </trkpt>
      <trkpt lat="46.87334" lon="8.50239">
        <ele>1498</ele>
        <time>2021-08-11T10:50:00.104Z</time>
      </trkpt>
      <trkpt lat="46.87335" lon="8.50238">
        <ele>1498</ele>
        <time>2021-08-11T10:50:01.104Z</time>
      </trkpt>
      <trkpt lat="46.87335" lon="8.50237">
        <ele>1497</ele>
        <time>2021-08-11T10:50:02.103Z</time>
      </trkpt>
      <trkpt lat="46.87336" lon="8.50236">
        <ele>1496</ele>
        <time>2021-08-11T10:50:03.103Z</time>
      </trkpt>
      <trkpt lat="46.87337" lon="8.50236">
        <ele>1496</ele>
        <time>2021-08-11T10:50:04.104Z</time>
      </trkpt>
      <trkpt lat="46.87337" lon="8.50236">
        <ele>1495</ele>
        <time>2021-08-11T10:50:05.104Z</time>
      </trkpt>
      <trkpt lat="46.87337" lon="8.50236">
        <ele>1494</ele>
        <time>2021-08-11T10:50:06.103Z</time>
      </trkpt>
      <trkpt lat="46.87338" lon="8.50234">
        <ele>1493</ele>
        <time>2021-08-11T10:50:07.104Z</time>
      </trkpt>
      <trkpt lat="46.87338" lon="8.50233">
        <ele>1492</ele>
        <time>2021-08-11T10:50:08.104Z</time>
      </trkpt>
      <trkpt lat="46.87339" lon="8.50232">
        <ele>1491</ele>
        <time>2021-08-11T10:50:09.104Z</time>
      </trkpt>
      <trkpt lat="46.8734" lon="8.50231">
        <ele>1490</ele>
        <time>2021-08-11T10:50:10.104Z</time>
      </trkpt>
      <trkpt lat="46.87341" lon="8.50229">
        <ele>1490</ele>
        <time>2021-08-11T10:50:11.103Z</time>
      </trkpt>
      <trkpt lat="46.87342" lon="8.50228">
        <ele>1489</ele>
        <time>2021-08-11T10:50:12.104Z</time>
      </trkpt>
      <trkpt lat="46.87342" lon="8.50227">
        <ele>1489</ele>
        <time>2021-08-11T10:50:13.104Z</time>
      </trkpt>
      <trkpt lat="46.87343" lon="8.50226">
        <ele>1489</ele>
        <time>2021-08-11T10:50:14.104Z</time>
      </trkpt>
      <trkpt lat="46.87344" lon="8.50226">
        <ele>1488</ele>
        <time>2021-08-11T10:50:24.120Z</time>
      </trkpt>
      <trkpt lat="46.87345" lon="8.50224">
        <ele>1488</ele>
        <time>2021-08-11T10:50:25.120Z</time>
      </trkpt>
      <trkpt lat="46.87345" lon="8.50223">
        <ele>1488</ele>
        <time>2021-08-11T10:50:26.121Z</time>
      </trkpt>
      <trkpt lat="46.87346" lon="8.50222">
        <ele>1488</ele>
        <time>2021-08-11T10:50:27.121Z</time>
      </trkpt>
      <trkpt lat="46.87347" lon="8.50222">
        <ele>1488</ele>
        <time>2021-08-11T10:50:28.121Z</time>
      </trkpt>
      <trkpt lat="46.87348" lon="8.50221">
        <ele>1489</ele>
        <time>2021-08-11T10:50:29.120Z</time>
      </trkpt>
      <trkpt lat="46.87349" lon="8.50221">
        <ele>1489</ele>
        <time>2021-08-11T10:50:30.121Z</time>
      </trkpt>
      <trkpt lat="46.8735" lon="8.5022">
        <ele>1490</ele>
        <time>2021-08-11T10:50:31.121Z</time>
      </trkpt>
      <trkpt lat="46.8735" lon="8.50219">
        <ele>1490</ele>
        <time>2021-08-11T10:50:32.121Z</time>
      </trkpt>
      <trkpt lat="46.87351" lon="8.50218">
        <ele>1490</ele>
        <time>2021-08-11T10:50:33.120Z</time>
      </trkpt>
      <trkpt lat="46.87352" lon="8.50217">
        <ele>1489</ele>
        <time>2021-08-11T10:50:34.120Z</time>
      </trkpt>
      <trkpt lat="46.87352" lon="8.50216">
        <ele>1489</ele>
        <time>2021-08-11T10:50:43.263Z</time>
      </trkpt>
      <trkpt lat="46.87353" lon="8.50215">
        <ele>1489</ele>
        <time>2021-08-11T10:50:44.263Z</time>
      </trkpt>
      <trkpt lat="46.87354" lon="8.50214">
        <ele>1489</ele>
        <time>2021-08-11T10:50:45.263Z</time>
      </trkpt>
      <trkpt lat="46.87354" lon="8.50213">
        <ele>1489</ele>
        <time>2021-08-11T10:50:50.992Z</time>
      </trkpt>
      <trkpt lat="46.87355" lon="8.50212">
        <ele>1490</ele>
        <time>2021-08-11T10:50:51.993Z</time>
      </trkpt>
      <trkpt lat="46.87355" lon="8.50211">
        <ele>1490</ele>
        <time>2021-08-11T10:50:52.993Z</time>
      </trkpt>
      <trkpt lat="46.87356" lon="8.5021">
        <ele>1491</ele>
        <time>2021-08-11T10:50:53.993Z</time>
      </trkpt>
      <trkpt lat="46.87357" lon="8.50208">
        <ele>1491</ele>
        <time>2021-08-11T10:50:54.993Z</time>
      </trkpt>
      <trkpt lat="46.87358" lon="8.50206">
        <ele>1492</ele>
        <time>2021-08-11T10:50:55.992Z</time>
      </trkpt>
      <trkpt lat="46.87359" lon="8.50204">
        <ele>1492</ele>
        <time>2021-08-11T10:50:56.993Z</time>
      </trkpt>
      <trkpt lat="46.87361" lon="8.50203">
        <ele>1492</ele>
        <time>2021-08-11T10:50:57.993Z</time>
      </trkpt>
      <trkpt lat="46.87362" lon="8.50202">
        <ele>1492</ele>
        <time>2021-08-11T10:51:10.115Z</time>
      </trkpt>
      <trkpt lat="46.87364" lon="8.50201">
        <ele>1492</ele>
        <time>2021-08-11T10:51:11.116Z</time>
      </trkpt>
      <trkpt lat="46.87365" lon="8.502">
        <ele>1492</ele>
        <time>2021-08-11T10:51:12.116Z</time>
      </trkpt>
      <trkpt lat="46.87365" lon="8.50199">
        <ele>1491</ele>
        <time>2021-08-11T10:51:13.116Z</time>
      </trkpt>
      <trkpt lat="46.87366" lon="8.50198">
        <ele>1491</ele>
        <time>2021-08-11T10:51:14.115Z</time>
      </trkpt>
      <trkpt lat="46.87367" lon="8.50196">
        <ele>1491</ele>
        <time>2021-08-11T10:51:15.115Z</time>
      </trkpt>
      <trkpt lat="46.87367" lon="8.50195">
        <ele>1490</ele>
        <time>2021-08-11T10:51:16.116Z</time>
      </trkpt>
      <trkpt lat="46.87368" lon="8.50193">
        <ele>1490</ele>
        <time>2021-08-11T10:51:17.116Z</time>
      </trkpt>
      <trkpt lat="46.87369" lon="8.50192">
        <ele>1490</ele>
        <time>2021-08-11T10:51:18.115Z</time>
      </trkpt>
      <trkpt lat="46.8737" lon="8.50192">
        <ele>1489</ele>
        <time>2021-08-11T10:51:19.116Z</time>
      </trkpt>
      <trkpt lat="46.87371" lon="8.50192">
        <ele>1489</ele>
        <time>2021-08-11T10:51:20.116Z</time>
      </trkpt>
      <trkpt lat="46.87371" lon="8.50191">
        <ele>1488</ele>
        <time>2021-08-11T10:51:21.115Z</time>
      </trkpt>
      <trkpt lat="46.87373" lon="8.5019">
        <ele>1488</ele>
        <time>2021-08-11T10:51:22.115Z</time>
      </trkpt>
      <trkpt lat="46.87374" lon="8.50189">
        <ele>1488</ele>
        <time>2021-08-11T10:51:23.116Z</time>
      </trkpt>
      <trkpt lat="46.87375" lon="8.50188">
        <ele>1488</ele>
        <time>2021-08-11T10:51:24.116Z</time>
      </trkpt>
      <trkpt lat="46.87376" lon="8.50187">
        <ele>1488</ele>
        <time>2021-08-11T10:51:25.115Z</time>
      </trkpt>
      <trkpt lat="46.87377" lon="8.50186">
        <ele>1489</ele>
        <time>2021-08-11T10:51:26.115Z</time>
      </trkpt>
      <trkpt lat="46.87378" lon="8.50185">
        <ele>1490</ele>
        <time>2021-08-11T10:51:27.115Z</time>
      </trkpt>
      <trkpt lat="46.8738" lon="8.50183">
        <ele>1490</ele>
        <time>2021-08-11T10:51:28.115Z</time>
      </trkpt>
      <trkpt lat="46.87381" lon="8.50182">
        <ele>1491</ele>
        <time>2021-08-11T10:51:29.115Z</time>
      </trkpt>
      <trkpt lat="46.87382" lon="8.5018">
        <ele>1491</ele>
        <time>2021-08-11T10:51:30.115Z</time>
      </trkpt>
      <trkpt lat="46.87382" lon="8.50178">
        <ele>1492</ele>
        <time>2021-08-11T10:51:31.116Z</time>
      </trkpt>
      <trkpt lat="46.87382" lon="8.50177">
        <ele>1492</ele>
        <time>2021-08-11T10:51:32.115Z</time>
      </trkpt>
      <trkpt lat="46.87381" lon="8.50175">
        <ele>1493</ele>
        <time>2021-08-11T10:51:33.116Z</time>
      </trkpt>
      <trkpt lat="46.87381" lon="8.50175">
        <ele>1494</ele>
        <time>2021-08-11T10:51:34.116Z</time>
      </trkpt>
      <trkpt lat="46.87381" lon="8.50174">
        <ele>1495</ele>
        <time>2021-08-11T10:51:35.116Z</time>
      </trkpt>
      <trkpt lat="46.8738" lon="8.50174">
        <ele>1495</ele>
        <time>2021-08-11T10:51:36.115Z</time>
      </trkpt>
      <trkpt lat="46.8738" lon="8.50174">
        <ele>1496</ele>
        <time>2021-08-11T10:51:37.116Z</time>
      </trkpt>
      <trkpt lat="46.8738" lon="8.50173">
        <ele>1499</ele>
        <time>2021-08-11T10:51:38.117Z</time>
      </trkpt>
      <trkpt lat="46.8738" lon="8.50173">
        <ele>1499</ele>
        <time>2021-08-11T10:51:39.117Z</time>
      </trkpt>
      <trkpt lat="46.8738" lon="8.50172">
        <ele>1498</ele>
        <time>2021-08-11T10:51:40.116Z</time>
      </trkpt>
      <trkpt lat="46.87379" lon="8.50168">
        <ele>1497</ele>
        <time>2021-08-11T10:51:41.116Z</time>
      </trkpt>
      <trkpt lat="46.8738" lon="8.50167">
        <ele>1497</ele>
        <time>2021-08-11T10:51:42.116Z</time>
      </trkpt>
      <trkpt lat="46.8738" lon="8.50167">
        <ele>1497</ele>
        <time>2021-08-11T10:51:43.117Z</time>
      </trkpt>
      <trkpt lat="46.87381" lon="8.50167">
        <ele>1495</ele>
        <time>2021-08-11T10:51:44.118Z</time>
      </trkpt>
      <trkpt lat="46.87381" lon="8.50166">
        <ele>1495</ele>
        <time>2021-08-11T10:51:45.117Z</time>
      </trkpt>
      <trkpt lat="46.87381" lon="8.50165">
        <ele>1495</ele>
        <time>2021-08-11T10:51:46.118Z</time>
      </trkpt>
      <trkpt lat="46.87382" lon="8.50164">
        <ele>1495</ele>
        <time>2021-08-11T10:51:47.118Z</time>
      </trkpt>
      <trkpt lat="46.87382" lon="8.50164">
        <ele>1495</ele>
        <time>2021-08-11T10:51:48.117Z</time>
      </trkpt>
      <trkpt lat="46.87382" lon="8.50163">
        <ele>1495</ele>
        <time>2021-08-11T10:51:49.118Z</time>
      </trkpt>
      <trkpt lat="46.87383" lon="8.50163">
        <ele>1495</ele>
        <time>2021-08-11T10:51:50.118Z</time>
      </trkpt>
      <trkpt lat="46.87383" lon="8.50162">
        <ele>1495</ele>
        <time>2021-08-11T10:51:51.118Z</time>
      </trkpt>
      <trkpt lat="46.87384" lon="8.50161">
        <ele>1495</ele>
        <time>2021-08-11T10:51:52.118Z</time>
      </trkpt>
      <trkpt lat="46.87384" lon="8.50161">
        <ele>1495</ele>
        <time>2021-08-11T10:51:53.118Z</time>
      </trkpt>
      <trkpt lat="46.87384" lon="8.5016">
        <ele>1495</ele>
        <time>2021-08-11T10:51:54.118Z</time>
      </trkpt>
      <trkpt lat="46.87384" lon="8.50159">
        <ele>1495</ele>
        <time>2021-08-11T10:51:55.118Z</time>
      </trkpt>
      <trkpt lat="46.87385" lon="8.50159">
        <ele>1495</ele>
        <time>2021-08-11T10:51:56.118Z</time>
      </trkpt>
      <trkpt lat="46.87385" lon="8.50158">
        <ele>1495</ele>
        <time>2021-08-11T10:51:57.118Z</time>
      </trkpt>
      <trkpt lat="46.87385" lon="8.50157">
        <ele>1495</ele>
        <time>2021-08-11T10:51:58.117Z</time>
      </trkpt>
      <trkpt lat="46.87386" lon="8.50157">
        <ele>1494</ele>
        <time>2021-08-11T10:51:59.117Z</time>
      </trkpt>
      <trkpt lat="46.87386" lon="8.50157">
        <ele>1494</ele>
        <time>2021-08-11T10:52:00.118Z</time>
      </trkpt>
      <trkpt lat="46.87387" lon="8.50156">
        <ele>1494</ele>
        <time>2021-08-11T10:52:01.118Z</time>
      </trkpt>
      <trkpt lat="46.87386" lon="8.50155">
        <ele>1494</ele>
        <time>2021-08-11T10:52:02.118Z</time>
      </trkpt>
      <trkpt lat="46.87387" lon="8.50154">
        <ele>1494</ele>
        <time>2021-08-11T10:52:03.118Z</time>
      </trkpt>
      <trkpt lat="46.87387" lon="8.50153">
        <ele>1494</ele>
        <time>2021-08-11T10:52:04.118Z</time>
      </trkpt>
      <trkpt lat="46.87387" lon="8.50152">
        <ele>1494</ele>
        <time>2021-08-11T10:52:05.118Z</time>
      </trkpt>
      <trkpt lat="46.87387" lon="8.50151">
        <ele>1494</ele>
        <time>2021-08-11T10:52:06.118Z</time>
      </trkpt>
      <trkpt lat="46.87387" lon="8.5015">
        <ele>1494</ele>
        <time>2021-08-11T10:52:07.118Z</time>
      </trkpt>
      <trkpt lat="46.87388" lon="8.50149">
        <ele>1495</ele>
        <time>2021-08-11T10:52:08.117Z</time>
      </trkpt>
      <trkpt lat="46.87388" lon="8.50148">
        <ele>1495</ele>
        <time>2021-08-11T10:52:09.117Z</time>
      </trkpt>
      <trkpt lat="46.87389" lon="8.50147">
        <ele>1495</ele>
        <time>2021-08-11T10:52:10.117Z</time>
      </trkpt>
      <trkpt lat="46.87389" lon="8.50146">
        <ele>1496</ele>
        <time>2021-08-11T10:52:11.117Z</time>
      </trkpt>
      <trkpt lat="46.8739" lon="8.50145">
        <ele>1496</ele>
        <time>2021-08-11T10:52:12.118Z</time>
      </trkpt>
      <trkpt lat="46.87391" lon="8.50144">
        <ele>1496</ele>
        <time>2021-08-11T10:52:13.117Z</time>
      </trkpt>
      <trkpt lat="46.87391" lon="8.50143">
        <ele>1496</ele>
        <time>2021-08-11T10:52:14.118Z</time>
      </trkpt>
      <trkpt lat="46.87392" lon="8.50143">
        <ele>1496</ele>
        <time>2021-08-11T10:52:15.118Z</time>
      </trkpt>
      <trkpt lat="46.87394" lon="8.50143">
        <ele>1495</ele>
        <time>2021-08-11T10:52:16.117Z</time>
      </trkpt>
      <trkpt lat="46.87394" lon="8.50142">
        <ele>1495</ele>
        <time>2021-08-11T10:52:17.118Z</time>
      </trkpt>
      <trkpt lat="46.87394" lon="8.50141">
        <ele>1495</ele>
        <time>2021-08-11T10:52:18.118Z</time>
      </trkpt>
      <trkpt lat="46.87394" lon="8.5014">
        <ele>1496</ele>
        <time>2021-08-11T10:52:19.117Z</time>
      </trkpt>
      <trkpt lat="46.87395" lon="8.50139">
        <ele>1496</ele>
        <time>2021-08-11T10:52:20.118Z</time>
      </trkpt>
      <trkpt lat="46.87396" lon="8.50138">
        <ele>1496</ele>
        <time>2021-08-11T10:52:21.118Z</time>
      </trkpt>
      <trkpt lat="46.87397" lon="8.50137">
        <ele>1497</ele>
        <time>2021-08-11T10:52:22.118Z</time>
      </trkpt>
      <trkpt lat="46.87398" lon="8.50136">
        <ele>1497</ele>
        <time>2021-08-11T10:52:23.118Z</time>
      </trkpt>
      <trkpt lat="46.87398" lon="8.50135">
        <ele>1497</ele>
        <time>2021-08-11T10:52:24.117Z</time>
      </trkpt>
      <trkpt lat="46.87398" lon="8.50135">
        <ele>1498</ele>
        <time>2021-08-11T10:52:25.117Z</time>
      </trkpt>
      <trkpt lat="46.87398" lon="8.50133">
        <ele>1498</ele>
        <time>2021-08-11T10:52:26.118Z</time>
      </trkpt>
      <trkpt lat="46.87398" lon="8.50132">
        <ele>1498</ele>
        <time>2021-08-11T10:52:34.123Z</time>
      </trkpt>
      <trkpt lat="46.87398" lon="8.50131">
        <ele>1498</ele>
        <time>2021-08-11T10:52:35.123Z</time>
      </trkpt>
      <trkpt lat="46.87398" lon="8.5013">
        <ele>1498</ele>
        <time>2021-08-11T10:52:36.123Z</time>
      </trkpt>
      <trkpt lat="46.87398" lon="8.5013">
        <ele>1498</ele>
        <time>2021-08-11T10:52:43.146Z</time>
      </trkpt>
      <trkpt lat="46.87398" lon="8.50129">
        <ele>1498</ele>
        <time>2021-08-11T10:52:44.146Z</time>
      </trkpt>
      <trkpt lat="46.87397" lon="8.50129">
        <ele>1498</ele>
        <time>2021-08-11T10:52:45.871Z</time>
      </trkpt>
      <trkpt lat="46.87396" lon="8.50128">
        <ele>1497</ele>
        <time>2021-08-11T10:52:46.872Z</time>
      </trkpt>
      <trkpt lat="46.87394" lon="8.50126">
        <ele>1495</ele>
        <time>2021-08-11T10:52:47.874Z</time>
      </trkpt>
      <trkpt lat="46.87393" lon="8.50126">
        <ele>1495</ele>
        <time>2021-08-11T10:52:48.873Z</time>
      </trkpt>
      <trkpt lat="46.87393" lon="8.50126">
        <ele>1495</ele>
        <time>2021-08-11T10:52:49.873Z</time>
      </trkpt>
      <trkpt lat="46.87391" lon="8.50124">
        <ele>1496</ele>
        <time>2021-08-11T10:52:50.875Z</time>
      </trkpt>
      <trkpt lat="46.87391" lon="8.50124">
        <ele>1497</ele>
        <time>2021-08-11T10:52:51.875Z</time>
      </trkpt>
      <trkpt lat="46.87391" lon="8.50124">
        <ele>1497</ele>
        <time>2021-08-11T10:53:19.893Z</time>
      </trkpt>
      <trkpt lat="46.87392" lon="8.50123">
        <ele>1497</ele>
        <time>2021-08-11T10:53:20.892Z</time>
      </trkpt>
      <trkpt lat="46.87393" lon="8.50123">
        <ele>1498</ele>
        <time>2021-08-11T10:53:21.893Z</time>
      </trkpt>
      <trkpt lat="46.87393" lon="8.50122">
        <ele>1498</ele>
        <time>2021-08-11T10:53:22.893Z</time>
      </trkpt>
      <trkpt lat="46.87394" lon="8.50121">
        <ele>1498</ele>
        <time>2021-08-11T10:53:54.893Z</time>
      </trkpt>
      <trkpt lat="46.87394" lon="8.5012">
        <ele>1499</ele>
        <time>2021-08-11T10:53:55.893Z</time>
      </trkpt>
      <trkpt lat="46.87393" lon="8.50119">
        <ele>1499</ele>
        <time>2021-08-11T10:53:56.893Z</time>
      </trkpt>
      <trkpt lat="46.87393" lon="8.50119">
        <ele>1500</ele>
        <time>2021-08-11T10:53:57.893Z</time>
      </trkpt>
      <trkpt lat="46.87393" lon="8.50118">
        <ele>1500</ele>
        <time>2021-08-11T10:53:58.893Z</time>
      </trkpt>
      <trkpt lat="46.87393" lon="8.50117">
        <ele>1500</ele>
        <time>2021-08-11T10:54:27.870Z</time>
      </trkpt>
      <trkpt lat="46.87393" lon="8.50116">
        <ele>1500</ele>
        <time>2021-08-11T10:54:28.870Z</time>
      </trkpt>
      <trkpt lat="46.87393" lon="8.50115">
        <ele>1501</ele>
        <time>2021-08-11T10:54:29.869Z</time>
      </trkpt>
      <trkpt lat="46.87392" lon="8.50113">
        <ele>1501</ele>
        <time>2021-08-11T10:54:39.870Z</time>
      </trkpt>
      <trkpt lat="46.87392" lon="8.50113">
        <ele>1501</ele>
        <time>2021-08-11T10:54:40.869Z</time>
      </trkpt>
      <trkpt lat="46.87392" lon="8.50113">
        <ele>1502</ele>
        <time>2021-08-11T10:54:41.870Z</time>
      </trkpt>
      <trkpt lat="46.87392" lon="8.50112">
        <ele>1502</ele>
        <time>2021-08-11T10:54:42.870Z</time>
      </trkpt>
      <trkpt lat="46.87391" lon="8.50111">
        <ele>1502</ele>
        <time>2021-08-11T10:54:43.869Z</time>
      </trkpt>
      <trkpt lat="46.87391" lon="8.50109">
        <ele>1502</ele>
        <time>2021-08-11T10:54:49.889Z</time>
      </trkpt>
      <trkpt lat="46.8739" lon="8.50108">
        <ele>1502</ele>
        <time>2021-08-11T10:54:50.888Z</time>
      </trkpt>
      <trkpt lat="46.8739" lon="8.50107">
        <ele>1502</ele>
        <time>2021-08-11T10:54:56.621Z</time>
      </trkpt>
      <trkpt lat="46.8739" lon="8.50106">
        <ele>1503</ele>
        <time>2021-08-11T10:55:03.369Z</time>
      </trkpt>
      <trkpt lat="46.8739" lon="8.50105">
        <ele>1503</ele>
        <time>2021-08-11T10:55:04.368Z</time>
      </trkpt>
      <trkpt lat="46.8739" lon="8.50104">
        <ele>1503</ele>
        <time>2021-08-11T10:55:23.120Z</time>
      </trkpt>
      <trkpt lat="46.87389" lon="8.50103">
        <ele>1503</ele>
        <time>2021-08-11T10:55:24.120Z</time>
      </trkpt>
      <trkpt lat="46.8739" lon="8.50103">
        <ele>1503</ele>
        <time>2021-08-11T10:55:30.890Z</time>
      </trkpt>
      <trkpt lat="46.8739" lon="8.50102">
        <ele>1503</ele>
        <time>2021-08-11T10:55:35.611Z</time>
      </trkpt>
      <trkpt lat="46.87391" lon="8.50101">
        <ele>1503</ele>
        <time>2021-08-11T10:55:36.612Z</time>
      </trkpt>
      <trkpt lat="46.87392" lon="8.501">
        <ele>1504</ele>
        <time>2021-08-11T10:55:46.366Z</time>
      </trkpt>
      <trkpt lat="46.87393" lon="8.50099">
        <ele>1504</ele>
        <time>2021-08-11T10:56:15.117Z</time>
      </trkpt>
      <trkpt lat="46.87393" lon="8.50098">
        <ele>1505</ele>
        <time>2021-08-11T10:56:16.117Z</time>
      </trkpt>
      <trkpt lat="46.87392" lon="8.50097">
        <ele>1505</ele>
        <time>2021-08-11T10:56:38.861Z</time>
      </trkpt>
      <trkpt lat="46.87392" lon="8.50096">
        <ele>1504</ele>
        <time>2021-08-11T10:56:39.862Z</time>
      </trkpt>
      <trkpt lat="46.87392" lon="8.50096">
        <ele>1504</ele>
        <time>2021-08-11T10:56:49.737Z</time>
      </trkpt>
      <trkpt lat="46.87393" lon="8.50095">
        <ele>1504</ele>
        <time>2021-08-11T10:56:50.737Z</time>
      </trkpt>
      <trkpt lat="46.87393" lon="8.50094">
        <ele>1503</ele>
        <time>2021-08-11T10:56:51.736Z</time>
      </trkpt>
      <trkpt lat="46.87393" lon="8.50093">
        <ele>1503</ele>
        <time>2021-08-11T10:56:52.737Z</time>
      </trkpt>
      <trkpt lat="46.87393" lon="8.50091">
        <ele>1503</ele>
        <time>2021-08-11T10:56:53.737Z</time>
      </trkpt>
      <trkpt lat="46.87394" lon="8.50089">
        <ele>1504</ele>
        <time>2021-08-11T10:57:00.866Z</time>
      </trkpt>
      <trkpt lat="46.87394" lon="8.50088">
        <ele>1504</ele>
        <time>2021-08-11T10:57:01.866Z</time>
      </trkpt>
      <trkpt lat="46.87395" lon="8.50087">
        <ele>1504</ele>
        <time>2021-08-11T10:57:02.865Z</time>
      </trkpt>
      <trkpt lat="46.87395" lon="8.50086">
        <ele>1504</ele>
        <time>2021-08-11T10:57:03.866Z</time>
      </trkpt>
      <trkpt lat="46.87395" lon="8.50086">
        <ele>1504</ele>
        <time>2021-08-11T10:57:04.865Z</time>
      </trkpt>
      <trkpt lat="46.87395" lon="8.50086">
        <ele>1504</ele>
        <time>2021-08-11T10:57:05.866Z</time>
      </trkpt>
      <trkpt lat="46.87395" lon="8.50085">
        <ele>1503</ele>
        <time>2021-08-11T10:57:06.866Z</time>
      </trkpt>
      <trkpt lat="46.87394" lon="8.50083">
        <ele>1503</ele>
        <time>2021-08-11T10:57:07.865Z</time>
      </trkpt>
      <trkpt lat="46.87394" lon="8.50082">
        <ele>1503</ele>
        <time>2021-08-11T10:57:08.866Z</time>
      </trkpt>
      <trkpt lat="46.87393" lon="8.50082">
        <ele>1503</ele>
        <time>2021-08-11T10:57:09.865Z</time>
      </trkpt>
      <trkpt lat="46.87393" lon="8.50081">
        <ele>1503</ele>
        <time>2021-08-11T10:57:10.865Z</time>
      </trkpt>
      <trkpt lat="46.87393" lon="8.5008">
        <ele>1504</ele>
        <time>2021-08-11T10:57:11.866Z</time>
      </trkpt>
      <trkpt lat="46.87393" lon="8.5008">
        <ele>1504</ele>
        <time>2021-08-11T10:57:12.866Z</time>
      </trkpt>
      <trkpt lat="46.87393" lon="8.50079">
        <ele>1504</ele>
        <time>2021-08-11T10:57:20.868Z</time>
      </trkpt>
      <trkpt lat="46.87393" lon="8.50078">
        <ele>1504</ele>
        <time>2021-08-11T10:57:21.868Z</time>
      </trkpt>
      <trkpt lat="46.87393" lon="8.50077">
        <ele>1504</ele>
        <time>2021-08-11T10:57:37.614Z</time>
      </trkpt>
      <trkpt lat="46.87393" lon="8.50076">
        <ele>1504</ele>
        <time>2021-08-11T10:57:38.614Z</time>
      </trkpt>
      <trkpt lat="46.87393" lon="8.50074">
        <ele>1504</ele>
        <time>2021-08-11T10:57:49.365Z</time>
      </trkpt>
      <trkpt lat="46.87393" lon="8.50073">
        <ele>1504</ele>
        <time>2021-08-11T10:57:56.243Z</time>
      </trkpt>
      <trkpt lat="46.87393" lon="8.50072">
        <ele>1505</ele>
        <time>2021-08-11T10:57:57.243Z</time>
      </trkpt>
      <trkpt lat="46.87394" lon="8.50071">
        <ele>1505</ele>
        <time>2021-08-11T10:57:58.243Z</time>
      </trkpt>
      <trkpt lat="46.87394" lon="8.50071">
        <ele>1506</ele>
        <time>2021-08-11T10:58:02.367Z</time>
      </trkpt>
      <trkpt lat="46.87393" lon="8.5007">
        <ele>1506</ele>
        <time>2021-08-11T10:58:03.367Z</time>
      </trkpt>
      <trkpt lat="46.87393" lon="8.5007">
        <ele>1506</ele>
        <time>2021-08-11T10:58:04.366Z</time>
      </trkpt>
      <trkpt lat="46.87394" lon="8.50069">
        <ele>1506</ele>
        <time>2021-08-11T10:58:05.367Z</time>
      </trkpt>
      <trkpt lat="46.87393" lon="8.50068">
        <ele>1507</ele>
        <time>2021-08-11T10:58:17.511Z</time>
      </trkpt>
      <trkpt lat="46.87394" lon="8.50067">
        <ele>1507</ele>
        <time>2021-08-11T10:58:18.511Z</time>
      </trkpt>
      <trkpt lat="46.87394" lon="8.50066">
        <ele>1507</ele>
        <time>2021-08-11T10:58:19.512Z</time>
      </trkpt>
      <trkpt lat="46.87394" lon="8.50065">
        <ele>1507</ele>
        <time>2021-08-11T10:58:20.512Z</time>
      </trkpt>
      <trkpt lat="46.87393" lon="8.50065">
        <ele>1506</ele>
        <time>2021-08-11T10:58:21.511Z</time>
      </trkpt>
      <trkpt lat="46.87393" lon="8.50064">
        <ele>1506</ele>
        <time>2021-08-11T10:58:22.512Z</time>
      </trkpt>
      <trkpt lat="46.87392" lon="8.50063">
        <ele>1506</ele>
        <time>2021-08-11T10:58:23.512Z</time>
      </trkpt>
      <trkpt lat="46.87392" lon="8.50062">
        <ele>1506</ele>
        <time>2021-08-11T10:58:24.512Z</time>
      </trkpt>
      <trkpt lat="46.87392" lon="8.50061">
        <ele>1506</ele>
        <time>2021-08-11T10:58:25.512Z</time>
      </trkpt>
      <trkpt lat="46.87393" lon="8.5006">
        <ele>1506</ele>
        <time>2021-08-11T10:58:26.512Z</time>
      </trkpt>
      <trkpt lat="46.87393" lon="8.5006">
        <ele>1507</ele>
        <time>2021-08-11T10:58:27.512Z</time>
      </trkpt>
      <trkpt lat="46.87393" lon="8.50058">
        <ele>1507</ele>
        <time>2021-08-11T10:58:28.511Z</time>
      </trkpt>
      <trkpt lat="46.87394" lon="8.50057">
        <ele>1507</ele>
        <time>2021-08-11T10:58:29.511Z</time>
      </trkpt>
      <trkpt lat="46.87394" lon="8.50056">
        <ele>1507</ele>
        <time>2021-08-11T10:58:30.512Z</time>
      </trkpt>
      <trkpt lat="46.87394" lon="8.50055">
        <ele>1507</ele>
        <time>2021-08-11T10:58:31.512Z</time>
      </trkpt>
      <trkpt lat="46.87394" lon="8.50054">
        <ele>1508</ele>
        <time>2021-08-11T10:58:32.512Z</time>
      </trkpt>
      <trkpt lat="46.87394" lon="8.50053">
        <ele>1508</ele>
        <time>2021-08-11T10:58:33.512Z</time>
      </trkpt>
      <trkpt lat="46.87394" lon="8.50052">
        <ele>1508</ele>
        <time>2021-08-11T10:58:34.511Z</time>
      </trkpt>
      <trkpt lat="46.87394" lon="8.50051">
        <ele>1509</ele>
        <time>2021-08-11T10:58:35.512Z</time>
      </trkpt>
      <trkpt lat="46.87394" lon="8.50051">
        <ele>1509</ele>
        <time>2021-08-11T10:58:36.512Z</time>
      </trkpt>
      <trkpt lat="46.87394" lon="8.5005">
        <ele>1509</ele>
        <time>2021-08-11T10:58:37.512Z</time>
      </trkpt>
      <trkpt lat="46.87394" lon="8.50049">
        <ele>1509</ele>
        <time>2021-08-11T10:58:38.512Z</time>
      </trkpt>
      <trkpt lat="46.87393" lon="8.50048">
        <ele>1509</ele>
        <time>2021-08-11T10:58:39.512Z</time>
      </trkpt>
      <trkpt lat="46.87394" lon="8.50048">
        <ele>1509</ele>
        <time>2021-08-11T10:58:40.512Z</time>
      </trkpt>
      <trkpt lat="46.87394" lon="8.50047">
        <ele>1509</ele>
        <time>2021-08-11T10:58:41.512Z</time>
      </trkpt>
      <trkpt lat="46.87393" lon="8.50046">
        <ele>1509</ele>
        <time>2021-08-11T10:58:42.512Z</time>
      </trkpt>
      <trkpt lat="46.87393" lon="8.50046">
        <ele>1509</ele>
        <time>2021-08-11T10:58:43.512Z</time>
      </trkpt>
      <trkpt lat="46.87392" lon="8.50045">
        <ele>1510</ele>
        <time>2021-08-11T10:58:44.512Z</time>
      </trkpt>
      <trkpt lat="46.87392" lon="8.50045">
        <ele>1510</ele>
        <time>2021-08-11T10:58:45.512Z</time>
      </trkpt>
      <trkpt lat="46.87393" lon="8.50044">
        <ele>1511</ele>
        <time>2021-08-11T10:58:46.512Z</time>
      </trkpt>
      <trkpt lat="46.87393" lon="8.50044">
        <ele>1511</ele>
        <time>2021-08-11T10:58:47.512Z</time>
      </trkpt>
      <trkpt lat="46.87393" lon="8.50043">
        <ele>1511</ele>
        <time>2021-08-11T10:58:48.511Z</time>
      </trkpt>
      <trkpt lat="46.87393" lon="8.50042">
        <ele>1511</ele>
        <time>2021-08-11T10:58:49.512Z</time>
      </trkpt>
      <trkpt lat="46.87393" lon="8.50041">
        <ele>1511</ele>
        <time>2021-08-11T10:58:50.512Z</time>
      </trkpt>
      <trkpt lat="46.87391" lon="8.50041">
        <ele>1511</ele>
        <time>2021-08-11T10:58:51.512Z</time>
      </trkpt>
      <trkpt lat="46.87391" lon="8.5004">
        <ele>1511</ele>
        <time>2021-08-11T10:58:52.512Z</time>
      </trkpt>
      <trkpt lat="46.87389" lon="8.50042">
        <ele>1511</ele>
        <time>2021-08-11T10:58:53.512Z</time>
      </trkpt>
      <trkpt lat="46.87389" lon="8.50042">
        <ele>1510</ele>
        <time>2021-08-11T10:58:54.512Z</time>
      </trkpt>
      <trkpt lat="46.87388" lon="8.50042">
        <ele>1510</ele>
        <time>2021-08-11T10:58:55.512Z</time>
      </trkpt>
      <trkpt lat="46.87385" lon="8.50042">
        <ele>1507</ele>
        <time>2021-08-11T10:58:56.512Z</time>
      </trkpt>
      <trkpt lat="46.87387" lon="8.50042">
        <ele>1507</ele>
        <time>2021-08-11T10:58:57.513Z</time>
      </trkpt>
      <trkpt lat="46.87387" lon="8.50042">
        <ele>1507</ele>
        <time>2021-08-11T10:58:58.513Z</time>
      </trkpt>
      <trkpt lat="46.87387" lon="8.50042">
        <ele>1508</ele>
        <time>2021-08-11T10:58:59.512Z</time>
      </trkpt>
      <trkpt lat="46.87389" lon="8.50039">
        <ele>1514</ele>
        <time>2021-08-11T10:59:00.512Z</time>
      </trkpt>
      <trkpt lat="46.87389" lon="8.50038">
        <ele>1514</ele>
        <time>2021-08-11T10:59:01.513Z</time>
      </trkpt>
      <trkpt lat="46.8739" lon="8.50037">
        <ele>1514</ele>
        <time>2021-08-11T10:59:02.512Z</time>
      </trkpt>
      <trkpt lat="46.8739" lon="8.50037">
        <ele>1514</ele>
        <time>2021-08-11T10:59:03.512Z</time>
      </trkpt>
      <trkpt lat="46.8739" lon="8.50036">
        <ele>1515</ele>
        <time>2021-08-11T10:59:09.657Z</time>
      </trkpt>
      <trkpt lat="46.8739" lon="8.50036">
        <ele>1515</ele>
        <time>2021-08-11T10:59:10.657Z</time>
      </trkpt>
      <trkpt lat="46.8739" lon="8.50035">
        <ele>1515</ele>
        <time>2021-08-11T10:59:11.657Z</time>
      </trkpt>
      <trkpt lat="46.8739" lon="8.50035">
        <ele>1514</ele>
        <time>2021-08-11T10:59:12.657Z</time>
      </trkpt>
      <trkpt lat="46.87391" lon="8.50034">
        <ele>1514</ele>
        <time>2021-08-11T10:59:13.656Z</time>
      </trkpt>
      <trkpt lat="46.87391" lon="8.50033">
        <ele>1514</ele>
        <time>2021-08-11T10:59:14.657Z</time>
      </trkpt>
      <trkpt lat="46.87391" lon="8.50033">
        <ele>1514</ele>
        <time>2021-08-11T10:59:15.657Z</time>
      </trkpt>
      <trkpt lat="46.87391" lon="8.50032">
        <ele>1514</ele>
        <time>2021-08-11T10:59:16.657Z</time>
      </trkpt>
      <trkpt lat="46.87391" lon="8.50031">
        <ele>1514</ele>
        <time>2021-08-11T10:59:17.656Z</time>
      </trkpt>
      <trkpt lat="46.8739" lon="8.50029">
        <ele>1514</ele>
        <time>2021-08-11T10:59:18.656Z</time>
      </trkpt>
      <trkpt lat="46.8739" lon="8.50027">
        <ele>1514</ele>
        <time>2021-08-11T10:59:19.656Z</time>
      </trkpt>
      <trkpt lat="46.8739" lon="8.50026">
        <ele>1514</ele>
        <time>2021-08-11T10:59:20.657Z</time>
      </trkpt>
      <trkpt lat="46.87391" lon="8.50025">
        <ele>1513</ele>
        <time>2021-08-11T10:59:21.657Z</time>
      </trkpt>
      <trkpt lat="46.87392" lon="8.50025">
        <ele>1513</ele>
        <time>2021-08-11T10:59:22.657Z</time>
      </trkpt>
      <trkpt lat="46.87393" lon="8.50024">
        <ele>1513</ele>
        <time>2021-08-11T10:59:23.656Z</time>
      </trkpt>
      <trkpt lat="46.87393" lon="8.50023">
        <ele>1513</ele>
        <time>2021-08-11T10:59:24.656Z</time>
      </trkpt>
      <trkpt lat="46.87393" lon="8.50022">
        <ele>1513</ele>
        <time>2021-08-11T10:59:25.657Z</time>
      </trkpt>
      <trkpt lat="46.87393" lon="8.50021">
        <ele>1512</ele>
        <time>2021-08-11T10:59:26.656Z</time>
      </trkpt>
      <trkpt lat="46.87393" lon="8.5002">
        <ele>1512</ele>
        <time>2021-08-11T10:59:27.657Z</time>
      </trkpt>
      <trkpt lat="46.87394" lon="8.50018">
        <ele>1512</ele>
        <time>2021-08-11T10:59:28.657Z</time>
      </trkpt>
      <trkpt lat="46.87394" lon="8.50017">
        <ele>1512</ele>
        <time>2021-08-11T10:59:29.656Z</time>
      </trkpt>
      <trkpt lat="46.87395" lon="8.50017">
        <ele>1512</ele>
        <time>2021-08-11T10:59:30.656Z</time>
      </trkpt>
      <trkpt lat="46.87395" lon="8.50016">
        <ele>1512</ele>
        <time>2021-08-11T10:59:31.656Z</time>
      </trkpt>
      <trkpt lat="46.87395" lon="8.50015">
        <ele>1513</ele>
        <time>2021-08-11T10:59:32.657Z</time>
      </trkpt>
      <trkpt lat="46.87394" lon="8.50014">
        <ele>1512</ele>
        <time>2021-08-11T10:59:33.657Z</time>
      </trkpt>
      <trkpt lat="46.87394" lon="8.50014">
        <ele>1512</ele>
        <time>2021-08-11T10:59:34.657Z</time>
      </trkpt>
      <trkpt lat="46.87394" lon="8.50013">
        <ele>1512</ele>
        <time>2021-08-11T10:59:35.657Z</time>
      </trkpt>
      <trkpt lat="46.87394" lon="8.50012">
        <ele>1512</ele>
        <time>2021-08-11T10:59:36.656Z</time>
      </trkpt>
      <trkpt lat="46.87394" lon="8.50011">
        <ele>1512</ele>
        <time>2021-08-11T10:59:37.657Z</time>
      </trkpt>
      <trkpt lat="46.87395" lon="8.5001">
        <ele>1512</ele>
        <time>2021-08-11T10:59:38.656Z</time>
      </trkpt>
      <trkpt lat="46.87395" lon="8.5001">
        <ele>1512</ele>
        <time>2021-08-11T10:59:39.657Z</time>
      </trkpt>
      <trkpt lat="46.87395" lon="8.50009">
        <ele>1513</ele>
        <time>2021-08-11T10:59:40.657Z</time>
      </trkpt>
      <trkpt lat="46.87395" lon="8.50009">
        <ele>1513</ele>
        <time>2021-08-11T10:59:41.657Z</time>
      </trkpt>
      <trkpt lat="46.87395" lon="8.50008">
        <ele>1514</ele>
        <time>2021-08-11T10:59:42.657Z</time>
      </trkpt>
      <trkpt lat="46.87396" lon="8.50007">
        <ele>1514</ele>
        <time>2021-08-11T10:59:43.656Z</time>
      </trkpt>
      <trkpt lat="46.87395" lon="8.50007">
        <ele>1514</ele>
        <time>2021-08-11T10:59:44.656Z</time>
      </trkpt>
      <trkpt lat="46.87395" lon="8.50006">
        <ele>1514</ele>
        <time>2021-08-11T10:59:45.657Z</time>
      </trkpt>
      <trkpt lat="46.87395" lon="8.50005">
        <ele>1514</ele>
        <time>2021-08-11T10:59:46.657Z</time>
      </trkpt>
      <trkpt lat="46.87395" lon="8.50004">
        <ele>1514</ele>
        <time>2021-08-11T10:59:47.657Z</time>
      </trkpt>
      <trkpt lat="46.87395" lon="8.50004">
        <ele>1514</ele>
        <time>2021-08-11T10:59:48.657Z</time>
      </trkpt>
      <trkpt lat="46.87395" lon="8.50003">
        <ele>1514</ele>
        <time>2021-08-11T10:59:49.657Z</time>
      </trkpt>
      <trkpt lat="46.87395" lon="8.50003">
        <ele>1514</ele>
        <time>2021-08-11T10:59:50.657Z</time>
      </trkpt>
      <trkpt lat="46.87395" lon="8.50001">
        <ele>1514</ele>
        <time>2021-08-11T10:59:51.657Z</time>
      </trkpt>
      <trkpt lat="46.87395" lon="8.50001">
        <ele>1514</ele>
        <time>2021-08-11T10:59:52.657Z</time>
      </trkpt>
      <trkpt lat="46.87394" lon="8.5">
        <ele>1514</ele>
        <time>2021-08-11T10:59:53.657Z</time>
      </trkpt>
      <trkpt lat="46.87394" lon="8.49999">
        <ele>1514</ele>
        <time>2021-08-11T10:59:54.656Z</time>
      </trkpt>
      <trkpt lat="46.87394" lon="8.49998">
        <ele>1513</ele>
        <time>2021-08-11T10:59:55.657Z</time>
      </trkpt>
      <trkpt lat="46.87394" lon="8.49997">
        <ele>1513</ele>
        <time>2021-08-11T10:59:56.657Z</time>
      </trkpt>
      <trkpt lat="46.87394" lon="8.49996">
        <ele>1513</ele>
        <time>2021-08-11T10:59:57.656Z</time>
      </trkpt>
      <trkpt lat="46.87395" lon="8.49995">
        <ele>1514</ele>
        <time>2021-08-11T10:59:58.656Z</time>
      </trkpt>
      <trkpt lat="46.87395" lon="8.49994">
        <ele>1514</ele>
        <time>2021-08-11T10:59:59.657Z</time>
      </trkpt>
      <trkpt lat="46.87395" lon="8.49993">
        <ele>1515</ele>
        <time>2021-08-11T11:00:00.657Z</time>
      </trkpt>
      <trkpt lat="46.87395" lon="8.49992">
        <ele>1515</ele>
        <time>2021-08-11T11:00:01.657Z</time>
      </trkpt>
      <trkpt lat="46.87395" lon="8.49991">
        <ele>1515</ele>
        <time>2021-08-11T11:00:02.657Z</time>
      </trkpt>
      <trkpt lat="46.87395" lon="8.4999">
        <ele>1515</ele>
        <time>2021-08-11T11:00:03.657Z</time>
      </trkpt>
      <trkpt lat="46.87396" lon="8.49989">
        <ele>1516</ele>
        <time>2021-08-11T11:00:04.657Z</time>
      </trkpt>
      <trkpt lat="46.87396" lon="8.49988">
        <ele>1516</ele>
        <time>2021-08-11T11:00:05.656Z</time>
      </trkpt>
      <trkpt lat="46.87396" lon="8.49987">
        <ele>1517</ele>
        <time>2021-08-11T11:00:06.657Z</time>
      </trkpt>
      <trkpt lat="46.87397" lon="8.49986">
        <ele>1518</ele>
        <time>2021-08-11T11:00:07.657Z</time>
      </trkpt>
      <trkpt lat="46.87397" lon="8.49985">
        <ele>1519</ele>
        <time>2021-08-11T11:00:08.657Z</time>
      </trkpt>
      <trkpt lat="46.87397" lon="8.49984">
        <ele>1519</ele>
        <time>2021-08-11T11:00:09.657Z</time>
      </trkpt>
      <trkpt lat="46.87398" lon="8.49983">
        <ele>1520</ele>
        <time>2021-08-11T11:00:10.656Z</time>
      </trkpt>
      <trkpt lat="46.87398" lon="8.49982">
        <ele>1520</ele>
        <time>2021-08-11T11:00:11.656Z</time>
      </trkpt>
      <trkpt lat="46.87398" lon="8.49981">
        <ele>1520</ele>
        <time>2021-08-11T11:00:12.657Z</time>
      </trkpt>
      <trkpt lat="46.87398" lon="8.4998">
        <ele>1520</ele>
        <time>2021-08-11T11:00:13.656Z</time>
      </trkpt>
      <trkpt lat="46.87398" lon="8.4998">
        <ele>1520</ele>
        <time>2021-08-11T11:00:14.656Z</time>
      </trkpt>
      <trkpt lat="46.87399" lon="8.49978">
        <ele>1520</ele>
        <time>2021-08-11T11:00:15.657Z</time>
      </trkpt>
      <trkpt lat="46.87399" lon="8.49978">
        <ele>1520</ele>
        <time>2021-08-11T11:00:16.657Z</time>
      </trkpt>
      <trkpt lat="46.87399" lon="8.49977">
        <ele>1520</ele>
        <time>2021-08-11T11:00:17.657Z</time>
      </trkpt>
      <trkpt lat="46.874" lon="8.49976">
        <ele>1520</ele>
        <time>2021-08-11T11:00:18.656Z</time>
      </trkpt>
      <trkpt lat="46.87401" lon="8.49975">
        <ele>1520</ele>
        <time>2021-08-11T11:00:19.657Z</time>
      </trkpt>
      <trkpt lat="46.87401" lon="8.49974">
        <ele>1520</ele>
        <time>2021-08-11T11:00:20.657Z</time>
      </trkpt>
      <trkpt lat="46.87401" lon="8.49973">
        <ele>1520</ele>
        <time>2021-08-11T11:00:21.657Z</time>
      </trkpt>
      <trkpt lat="46.87401" lon="8.49973">
        <ele>1520</ele>
        <time>2021-08-11T11:00:22.657Z</time>
      </trkpt>
      <trkpt lat="46.874" lon="8.49972">
        <ele>1520</ele>
        <time>2021-08-11T11:00:23.657Z</time>
      </trkpt>
      <trkpt lat="46.874" lon="8.49972">
        <ele>1520</ele>
        <time>2021-08-11T11:00:24.657Z</time>
      </trkpt>
      <trkpt lat="46.87401" lon="8.49971">
        <ele>1520</ele>
        <time>2021-08-11T11:00:25.656Z</time>
      </trkpt>
      <trkpt lat="46.87401" lon="8.4997">
        <ele>1520</ele>
        <time>2021-08-11T11:00:26.657Z</time>
      </trkpt>
      <trkpt lat="46.87401" lon="8.49969">
        <ele>1521</ele>
        <time>2021-08-11T11:00:27.657Z</time>
      </trkpt>
      <trkpt lat="46.87402" lon="8.49968">
        <ele>1521</ele>
        <time>2021-08-11T11:00:28.656Z</time>
      </trkpt>
      <trkpt lat="46.87402" lon="8.49967">
        <ele>1521</ele>
        <time>2021-08-11T11:00:29.657Z</time>
      </trkpt>
      <trkpt lat="46.87403" lon="8.49966">
        <ele>1521</ele>
        <time>2021-08-11T11:00:30.657Z</time>
      </trkpt>
      <trkpt lat="46.87404" lon="8.49965">
        <ele>1521</ele>
        <time>2021-08-11T11:00:31.657Z</time>
      </trkpt>
      <trkpt lat="46.87404" lon="8.49965">
        <ele>1522</ele>
        <time>2021-08-11T11:00:32.657Z</time>
      </trkpt>
      <trkpt lat="46.87404" lon="8.49964">
        <ele>1522</ele>
        <time>2021-08-11T11:00:33.656Z</time>
      </trkpt>
      <trkpt lat="46.87406" lon="8.49962">
        <ele>1523</ele>
        <time>2021-08-11T11:00:34.657Z</time>
      </trkpt>
      <trkpt lat="46.87406" lon="8.4996">
        <ele>1523</ele>
        <time>2021-08-11T11:00:35.657Z</time>
      </trkpt>
      <trkpt lat="46.87406" lon="8.4996">
        <ele>1524</ele>
        <time>2021-08-11T11:00:36.657Z</time>
      </trkpt>
      <trkpt lat="46.87406" lon="8.49959">
        <ele>1524</ele>
        <time>2021-08-11T11:00:37.657Z</time>
      </trkpt>
      <trkpt lat="46.87405" lon="8.49958">
        <ele>1524</ele>
        <time>2021-08-11T11:00:38.656Z</time>
      </trkpt>
      <trkpt lat="46.87406" lon="8.49957">
        <ele>1523</ele>
        <time>2021-08-11T11:00:39.657Z</time>
      </trkpt>
      <trkpt lat="46.87406" lon="8.49955">
        <ele>1524</ele>
        <time>2021-08-11T11:00:40.657Z</time>
      </trkpt>
      <trkpt lat="46.87405" lon="8.49954">
        <ele>1524</ele>
        <time>2021-08-11T11:00:41.656Z</time>
      </trkpt>
      <trkpt lat="46.87406" lon="8.49953">
        <ele>1524</ele>
        <time>2021-08-11T11:00:42.657Z</time>
      </trkpt>
      <trkpt lat="46.87406" lon="8.49953">
        <ele>1524</ele>
        <time>2021-08-11T11:00:43.657Z</time>
      </trkpt>
      <trkpt lat="46.87407" lon="8.49953">
        <ele>1524</ele>
        <time>2021-08-11T11:00:44.656Z</time>
      </trkpt>
      <trkpt lat="46.87407" lon="8.49951">
        <ele>1524</ele>
        <time>2021-08-11T11:00:45.657Z</time>
      </trkpt>
      <trkpt lat="46.87407" lon="8.4995">
        <ele>1524</ele>
        <time>2021-08-11T11:00:46.657Z</time>
      </trkpt>
      <trkpt lat="46.87408" lon="8.49949">
        <ele>1524</ele>
        <time>2021-08-11T11:00:47.657Z</time>
      </trkpt>
      <trkpt lat="46.87408" lon="8.49948">
        <ele>1525</ele>
        <time>2021-08-11T11:00:48.657Z</time>
      </trkpt>
      <trkpt lat="46.87408" lon="8.49947">
        <ele>1525</ele>
        <time>2021-08-11T11:00:49.656Z</time>
      </trkpt>
      <trkpt lat="46.87408" lon="8.49946">
        <ele>1525</ele>
        <time>2021-08-11T11:00:50.657Z</time>
      </trkpt>
      <trkpt lat="46.87408" lon="8.49945">
        <ele>1526</ele>
        <time>2021-08-11T11:00:51.656Z</time>
      </trkpt>
      <trkpt lat="46.87409" lon="8.49944">
        <ele>1526</ele>
        <time>2021-08-11T11:00:52.656Z</time>
      </trkpt>
      <trkpt lat="46.87408" lon="8.49944">
        <ele>1526</ele>
        <time>2021-08-11T11:00:53.656Z</time>
      </trkpt>
      <trkpt lat="46.87408" lon="8.49943">
        <ele>1527</ele>
        <time>2021-08-11T11:00:54.656Z</time>
      </trkpt>
      <trkpt lat="46.87408" lon="8.49942">
        <ele>1527</ele>
        <time>2021-08-11T11:00:55.656Z</time>
      </trkpt>
      <trkpt lat="46.87409" lon="8.49941">
        <ele>1528</ele>
        <time>2021-08-11T11:00:56.656Z</time>
      </trkpt>
      <trkpt lat="46.87409" lon="8.49939">
        <ele>1528</ele>
        <time>2021-08-11T11:01:47.739Z</time>
      </trkpt>
      <trkpt lat="46.87409" lon="8.49938">
        <ele>1529</ele>
        <time>2021-08-11T11:01:48.739Z</time>
      </trkpt>
      <trkpt lat="46.87409" lon="8.49937">
        <ele>1528</ele>
        <time>2021-08-11T11:01:54.489Z</time>
      </trkpt>
      <trkpt lat="46.8741" lon="8.49936">
        <ele>1528</ele>
        <time>2021-08-11T11:01:55.490Z</time>
      </trkpt>
      <trkpt lat="46.8741" lon="8.49935">
        <ele>1528</ele>
        <time>2021-08-11T11:01:56.490Z</time>
      </trkpt>
      <trkpt lat="46.87409" lon="8.49934">
        <ele>1527</ele>
        <time>2021-08-11T11:01:57.489Z</time>
      </trkpt>
      <trkpt lat="46.8741" lon="8.49932">
        <ele>1527</ele>
        <time>2021-08-11T11:01:58.490Z</time>
      </trkpt>
      <trkpt lat="46.8741" lon="8.49931">
        <ele>1527</ele>
        <time>2021-08-11T11:02:01.597Z</time>
      </trkpt>
      <trkpt lat="46.87409" lon="8.4993">
        <ele>1527</ele>
        <time>2021-08-11T11:02:02.597Z</time>
      </trkpt>
      <trkpt lat="46.87409" lon="8.4993">
        <ele>1527</ele>
        <time>2021-08-11T11:02:03.598Z</time>
      </trkpt>
      <trkpt lat="46.87409" lon="8.49928">
        <ele>1527</ele>
        <time>2021-08-11T11:02:04.598Z</time>
      </trkpt>
      <trkpt lat="46.87408" lon="8.49927">
        <ele>1527</ele>
        <time>2021-08-11T11:02:05.598Z</time>
      </trkpt>
      <trkpt lat="46.87409" lon="8.49927">
        <ele>1527</ele>
        <time>2021-08-11T11:02:06.597Z</time>
      </trkpt>
      <trkpt lat="46.87409" lon="8.49926">
        <ele>1527</ele>
        <time>2021-08-11T11:02:07.598Z</time>
      </trkpt>
      <trkpt lat="46.8741" lon="8.49924">
        <ele>1527</ele>
        <time>2021-08-11T11:02:08.597Z</time>
      </trkpt>
      <trkpt lat="46.87411" lon="8.49923">
        <ele>1528</ele>
        <time>2021-08-11T11:02:09.598Z</time>
      </trkpt>
      <trkpt lat="46.87411" lon="8.49922">
        <ele>1528</ele>
        <time>2021-08-11T11:02:10.597Z</time>
      </trkpt>
      <trkpt lat="46.87411" lon="8.49921">
        <ele>1528</ele>
        <time>2021-08-11T11:02:12.616Z</time>
      </trkpt>
      <trkpt lat="46.87411" lon="8.4992">
        <ele>1529</ele>
        <time>2021-08-11T11:02:22.365Z</time>
      </trkpt>
      <trkpt lat="46.87412" lon="8.49919">
        <ele>1529</ele>
        <time>2021-08-11T11:02:23.365Z</time>
      </trkpt>
      <trkpt lat="46.87412" lon="8.49918">
        <ele>1529</ele>
        <time>2021-08-11T11:02:24.366Z</time>
      </trkpt>
      <trkpt lat="46.87412" lon="8.49917">
        <ele>1529</ele>
        <time>2021-08-11T11:02:29.491Z</time>
      </trkpt>
      <trkpt lat="46.87413" lon="8.49915">
        <ele>1529</ele>
        <time>2021-08-11T11:02:30.491Z</time>
      </trkpt>
      <trkpt lat="46.87413" lon="8.49915">
        <ele>1529</ele>
        <time>2021-08-11T11:02:31.490Z</time>
      </trkpt>
      <trkpt lat="46.87413" lon="8.49914">
        <ele>1529</ele>
        <time>2021-08-11T11:02:32.491Z</time>
      </trkpt>
      <trkpt lat="46.87414" lon="8.49913">
        <ele>1529</ele>
        <time>2021-08-11T11:02:33.491Z</time>
      </trkpt>
      <trkpt lat="46.87414" lon="8.49912">
        <ele>1530</ele>
        <time>2021-08-11T11:02:34.491Z</time>
      </trkpt>
      <trkpt lat="46.87415" lon="8.49911">
        <ele>1530</ele>
        <time>2021-08-11T11:02:35.491Z</time>
      </trkpt>
      <trkpt lat="46.87415" lon="8.4991">
        <ele>1530</ele>
        <time>2021-08-11T11:02:36.490Z</time>
      </trkpt>
      <trkpt lat="46.87415" lon="8.49909">
        <ele>1530</ele>
        <time>2021-08-11T11:02:37.491Z</time>
      </trkpt>
      <trkpt lat="46.87415" lon="8.49908">
        <ele>1530</ele>
        <time>2021-08-11T11:02:38.490Z</time>
      </trkpt>
      <trkpt lat="46.87415" lon="8.49906">
        <ele>1530</ele>
        <time>2021-08-11T11:02:39.491Z</time>
      </trkpt>
      <trkpt lat="46.87415" lon="8.49905">
        <ele>1530</ele>
        <time>2021-08-11T11:02:40.491Z</time>
      </trkpt>
      <trkpt lat="46.87415" lon="8.49904">
        <ele>1530</ele>
        <time>2021-08-11T11:02:41.491Z</time>
      </trkpt>
      <trkpt lat="46.87416" lon="8.49903">
        <ele>1530</ele>
        <time>2021-08-11T11:02:42.491Z</time>
      </trkpt>
      <trkpt lat="46.87416" lon="8.49903">
        <ele>1530</ele>
        <time>2021-08-11T11:02:43.491Z</time>
      </trkpt>
      <trkpt lat="46.87417" lon="8.49902">
        <ele>1530</ele>
        <time>2021-08-11T11:02:44.491Z</time>
      </trkpt>
      <trkpt lat="46.87417" lon="8.499">
        <ele>1530</ele>
        <time>2021-08-11T11:02:45.491Z</time>
      </trkpt>
      <trkpt lat="46.87418" lon="8.49899">
        <ele>1531</ele>
        <time>2021-08-11T11:02:46.490Z</time>
      </trkpt>
      <trkpt lat="46.87418" lon="8.49898">
        <ele>1531</ele>
        <time>2021-08-11T11:02:49.495Z</time>
      </trkpt>
      <trkpt lat="46.87418" lon="8.49898">
        <ele>1531</ele>
        <time>2021-08-11T11:02:50.495Z</time>
      </trkpt>
      <trkpt lat="46.87419" lon="8.49897">
        <ele>1531</ele>
        <time>2021-08-11T11:02:55.241Z</time>
      </trkpt>
      <trkpt lat="46.87418" lon="8.49896">
        <ele>1531</ele>
        <time>2021-08-11T11:02:56.240Z</time>
      </trkpt>
      <trkpt lat="46.87418" lon="8.49894">
        <ele>1530</ele>
        <time>2021-08-11T11:02:57.241Z</time>
      </trkpt>
      <trkpt lat="46.87417" lon="8.49893">
        <ele>1529</ele>
        <time>2021-08-11T11:02:58.240Z</time>
      </trkpt>
      <trkpt lat="46.87418" lon="8.49893">
        <ele>1529</ele>
        <time>2021-08-11T11:02:59.241Z</time>
      </trkpt>
      <trkpt lat="46.87418" lon="8.49892">
        <ele>1529</ele>
        <time>2021-08-11T11:03:00.241Z</time>
      </trkpt>
      <trkpt lat="46.87418" lon="8.49892">
        <ele>1529</ele>
        <time>2021-08-11T11:03:01.240Z</time>
      </trkpt>
      <trkpt lat="46.87419" lon="8.49892">
        <ele>1529</ele>
        <time>2021-08-11T11:03:02.241Z</time>
      </trkpt>
      <trkpt lat="46.8742" lon="8.49891">
        <ele>1529</ele>
        <time>2021-08-11T11:03:03.240Z</time>
      </trkpt>
      <trkpt lat="46.87421" lon="8.4989">
        <ele>1528</ele>
        <time>2021-08-11T11:03:04.241Z</time>
      </trkpt>
      <trkpt lat="46.87421" lon="8.49889">
        <ele>1529</ele>
        <time>2021-08-11T11:03:05.241Z</time>
      </trkpt>
      <trkpt lat="46.87421" lon="8.49888">
        <ele>1529</ele>
        <time>2021-08-11T11:03:06.241Z</time>
      </trkpt>
      <trkpt lat="46.87421" lon="8.49887">
        <ele>1530</ele>
        <time>2021-08-11T11:03:07.240Z</time>
      </trkpt>
      <trkpt lat="46.87421" lon="8.49886">
        <ele>1530</ele>
        <time>2021-08-11T11:03:08.241Z</time>
      </trkpt>
      <trkpt lat="46.87421" lon="8.49885">
        <ele>1531</ele>
        <time>2021-08-11T11:03:09.241Z</time>
      </trkpt>
      <trkpt lat="46.87421" lon="8.49884">
        <ele>1531</ele>
        <time>2021-08-11T11:03:10.241Z</time>
      </trkpt>
      <trkpt lat="46.87421" lon="8.49883">
        <ele>1532</ele>
        <time>2021-08-11T11:03:11.241Z</time>
      </trkpt>
      <trkpt lat="46.87421" lon="8.49883">
        <ele>1532</ele>
        <time>2021-08-11T11:03:12.241Z</time>
      </trkpt>
      <trkpt lat="46.87421" lon="8.49882">
        <ele>1532</ele>
        <time>2021-08-11T11:03:13.240Z</time>
      </trkpt>
      <trkpt lat="46.87421" lon="8.49881">
        <ele>1532</ele>
        <time>2021-08-11T11:03:14.240Z</time>
      </trkpt>
      <trkpt lat="46.87421" lon="8.4988">
        <ele>1532</ele>
        <time>2021-08-11T11:03:15.241Z</time>
      </trkpt>
      <trkpt lat="46.8742" lon="8.4988">
        <ele>1532</ele>
        <time>2021-08-11T11:03:16.241Z</time>
      </trkpt>
      <trkpt lat="46.8742" lon="8.49879">
        <ele>1532</ele>
        <time>2021-08-11T11:03:17.240Z</time>
      </trkpt>
      <trkpt lat="46.8742" lon="8.49879">
        <ele>1532</ele>
        <time>2021-08-11T11:03:18.240Z</time>
      </trkpt>
      <trkpt lat="46.8742" lon="8.49878">
        <ele>1532</ele>
        <time>2021-08-11T11:03:19.240Z</time>
      </trkpt>
      <trkpt lat="46.87421" lon="8.49878">
        <ele>1532</ele>
        <time>2021-08-11T11:03:20.241Z</time>
      </trkpt>
      <trkpt lat="46.87421" lon="8.49877">
        <ele>1533</ele>
        <time>2021-08-11T11:03:21.242Z</time>
      </trkpt>
      <trkpt lat="46.87421" lon="8.49876">
        <ele>1533</ele>
        <time>2021-08-11T11:03:23.242Z</time>
      </trkpt>
      <trkpt lat="46.87422" lon="8.49875">
        <ele>1533</ele>
        <time>2021-08-11T11:03:24.242Z</time>
      </trkpt>
      <trkpt lat="46.87423" lon="8.49874">
        <ele>1534</ele>
        <time>2021-08-11T11:03:25.242Z</time>
      </trkpt>
      <trkpt lat="46.87424" lon="8.49874">
        <ele>1534</ele>
        <time>2021-08-11T11:03:26.241Z</time>
      </trkpt>
      <trkpt lat="46.87424" lon="8.49873">
        <ele>1534</ele>
        <time>2021-08-11T11:03:27.241Z</time>
      </trkpt>
      <trkpt lat="46.87425" lon="8.49872">
        <ele>1534</ele>
        <time>2021-08-11T11:03:28.242Z</time>
      </trkpt>
      <trkpt lat="46.87424" lon="8.49871">
        <ele>1534</ele>
        <time>2021-08-11T11:03:29.241Z</time>
      </trkpt>
      <trkpt lat="46.87424" lon="8.49869">
        <ele>1534</ele>
        <time>2021-08-11T11:03:30.242Z</time>
      </trkpt>
      <trkpt lat="46.87424" lon="8.49868">
        <ele>1534</ele>
        <time>2021-08-11T11:03:31.242Z</time>
      </trkpt>
      <trkpt lat="46.87425" lon="8.49867">
        <ele>1534</ele>
        <time>2021-08-11T11:03:32.242Z</time>
      </trkpt>
      <trkpt lat="46.87425" lon="8.49865">
        <ele>1534</ele>
        <time>2021-08-11T11:03:33.242Z</time>
      </trkpt>
      <trkpt lat="46.87425" lon="8.49864">
        <ele>1534</ele>
        <time>2021-08-11T11:03:34.241Z</time>
      </trkpt>
      <trkpt lat="46.87425" lon="8.49864">
        <ele>1535</ele>
        <time>2021-08-11T11:03:35.242Z</time>
      </trkpt>
      <trkpt lat="46.87425" lon="8.49864">
        <ele>1535</ele>
        <time>2021-08-11T11:03:36.242Z</time>
      </trkpt>
      <trkpt lat="46.87426" lon="8.49863">
        <ele>1535</ele>
        <time>2021-08-11T11:03:37.242Z</time>
      </trkpt>
      <trkpt lat="46.87426" lon="8.49863">
        <ele>1536</ele>
        <time>2021-08-11T11:03:38.242Z</time>
      </trkpt>
      <trkpt lat="46.87426" lon="8.49861">
        <ele>1537</ele>
        <time>2021-08-11T11:03:39.242Z</time>
      </trkpt>
      <trkpt lat="46.87425" lon="8.4986">
        <ele>1537</ele>
        <time>2021-08-11T11:03:40.242Z</time>
      </trkpt>
      <trkpt lat="46.87425" lon="8.49859">
        <ele>1538</ele>
        <time>2021-08-11T11:03:41.242Z</time>
      </trkpt>
      <trkpt lat="46.87426" lon="8.49858">
        <ele>1538</ele>
        <time>2021-08-11T11:03:42.241Z</time>
      </trkpt>
      <trkpt lat="46.87426" lon="8.49857">
        <ele>1538</ele>
        <time>2021-08-11T11:03:48.363Z</time>
      </trkpt>
      <trkpt lat="46.87426" lon="8.49856">
        <ele>1538</ele>
        <time>2021-08-11T11:03:49.364Z</time>
      </trkpt>
      <trkpt lat="46.87426" lon="8.49855">
        <ele>1538</ele>
        <time>2021-08-11T11:03:50.364Z</time>
      </trkpt>
      <trkpt lat="46.87426" lon="8.49854">
        <ele>1538</ele>
        <time>2021-08-11T11:03:51.364Z</time>
      </trkpt>
      <trkpt lat="46.87426" lon="8.49853">
        <ele>1539</ele>
        <time>2021-08-11T11:03:57.363Z</time>
      </trkpt>
      <trkpt lat="46.87427" lon="8.49852">
        <ele>1539</ele>
        <time>2021-08-11T11:03:58.362Z</time>
      </trkpt>
      <trkpt lat="46.87427" lon="8.49851">
        <ele>1539</ele>
        <time>2021-08-11T11:04:02.135Z</time>
      </trkpt>
      <trkpt lat="46.87427" lon="8.49849">
        <ele>1540</ele>
        <time>2021-08-11T11:04:03.135Z</time>
      </trkpt>
      <trkpt lat="46.87428" lon="8.49848">
        <ele>1540</ele>
        <time>2021-08-11T11:04:04.135Z</time>
      </trkpt>
      <trkpt lat="46.87428" lon="8.49848">
        <ele>1541</ele>
        <time>2021-08-11T11:04:05.135Z</time>
      </trkpt>
      <trkpt lat="46.87428" lon="8.49847">
        <ele>1541</ele>
        <time>2021-08-11T11:04:06.135Z</time>
      </trkpt>
      <trkpt lat="46.87428" lon="8.49846">
        <ele>1541</ele>
        <time>2021-08-11T11:04:07.134Z</time>
      </trkpt>
      <trkpt lat="46.87429" lon="8.49845">
        <ele>1542</ele>
        <time>2021-08-11T11:04:08.135Z</time>
      </trkpt>
      <trkpt lat="46.87428" lon="8.49843">
        <ele>1542</ele>
        <time>2021-08-11T11:04:10.261Z</time>
      </trkpt>
      <trkpt lat="46.87428" lon="8.49843">
        <ele>1542</ele>
        <time>2021-08-11T11:04:11.261Z</time>
      </trkpt>
      <trkpt lat="46.87427" lon="8.49842">
        <ele>1542</ele>
        <time>2021-08-11T11:04:12.261Z</time>
      </trkpt>
      <trkpt lat="46.87427" lon="8.49841">
        <ele>1542</ele>
        <time>2021-08-11T11:04:13.260Z</time>
      </trkpt>
      <trkpt lat="46.87426" lon="8.4984">
        <ele>1543</ele>
        <time>2021-08-11T11:04:14.261Z</time>
      </trkpt>
      <trkpt lat="46.87426" lon="8.4984">
        <ele>1543</ele>
        <time>2021-08-11T11:04:15.261Z</time>
      </trkpt>
      <trkpt lat="46.87426" lon="8.49839">
        <ele>1543</ele>
        <time>2021-08-11T11:04:16.261Z</time>
      </trkpt>
      <trkpt lat="46.87426" lon="8.49838">
        <ele>1543</ele>
        <time>2021-08-11T11:04:17.261Z</time>
      </trkpt>
      <trkpt lat="46.87426" lon="8.49837">
        <ele>1544</ele>
        <time>2021-08-11T11:04:18.260Z</time>
      </trkpt>
      <trkpt lat="46.87426" lon="8.49837">
        <ele>1544</ele>
        <time>2021-08-11T11:04:19.260Z</time>
      </trkpt>
      <trkpt lat="46.87426" lon="8.49836">
        <ele>1544</ele>
        <time>2021-08-11T11:04:20.261Z</time>
      </trkpt>
      <trkpt lat="46.87426" lon="8.49835">
        <ele>1545</ele>
        <time>2021-08-11T11:04:21.260Z</time>
      </trkpt>
      <trkpt lat="46.87425" lon="8.49834">
        <ele>1545</ele>
        <time>2021-08-11T11:04:22.260Z</time>
      </trkpt>
      <trkpt lat="46.87425" lon="8.49833">
        <ele>1545</ele>
        <time>2021-08-11T11:04:23.260Z</time>
      </trkpt>
      <trkpt lat="46.87425" lon="8.49832">
        <ele>1546</ele>
        <time>2021-08-11T11:04:24.261Z</time>
      </trkpt>
      <trkpt lat="46.87425" lon="8.49832">
        <ele>1546</ele>
        <time>2021-08-11T11:04:25.260Z</time>
      </trkpt>
      <trkpt lat="46.87425" lon="8.49831">
        <ele>1546</ele>
        <time>2021-08-11T11:04:26.261Z</time>
      </trkpt>
      <trkpt lat="46.87426" lon="8.49831">
        <ele>1546</ele>
        <time>2021-08-11T11:04:27.261Z</time>
      </trkpt>
      <trkpt lat="46.87426" lon="8.4983">
        <ele>1546</ele>
        <time>2021-08-11T11:04:34.425Z</time>
      </trkpt>
      <trkpt lat="46.87426" lon="8.49829">
        <ele>1546</ele>
        <time>2021-08-11T11:04:35.425Z</time>
      </trkpt>
      <trkpt lat="46.87426" lon="8.49829">
        <ele>1546</ele>
        <time>2021-08-11T11:04:36.424Z</time>
      </trkpt>
      <trkpt lat="46.87427" lon="8.49828">
        <ele>1546</ele>
        <time>2021-08-11T11:04:37.425Z</time>
      </trkpt>
      <trkpt lat="46.87427" lon="8.49828">
        <ele>1547</ele>
        <time>2021-08-11T11:04:38.425Z</time>
      </trkpt>
      <trkpt lat="46.87426" lon="8.49827">
        <ele>1547</ele>
        <time>2021-08-11T11:04:39.424Z</time>
      </trkpt>
      <trkpt lat="46.87426" lon="8.49826">
        <ele>1547</ele>
        <time>2021-08-11T11:04:40.425Z</time>
      </trkpt>
      <trkpt lat="46.87427" lon="8.49824">
        <ele>1547</ele>
        <time>2021-08-11T11:04:41.425Z</time>
      </trkpt>
      <trkpt lat="46.87427" lon="8.49823">
        <ele>1548</ele>
        <time>2021-08-11T11:04:42.425Z</time>
      </trkpt>
      <trkpt lat="46.87427" lon="8.49822">
        <ele>1548</ele>
        <time>2021-08-11T11:04:43.425Z</time>
      </trkpt>
      <trkpt lat="46.87428" lon="8.49821">
        <ele>1548</ele>
        <time>2021-08-11T11:04:44.424Z</time>
      </trkpt>
      <trkpt lat="46.87428" lon="8.49821">
        <ele>1548</ele>
        <time>2021-08-11T11:04:45.425Z</time>
      </trkpt>
      <trkpt lat="46.87428" lon="8.4982">
        <ele>1549</ele>
        <time>2021-08-11T11:04:46.425Z</time>
      </trkpt>
      <trkpt lat="46.87427" lon="8.4982">
        <ele>1549</ele>
        <time>2021-08-11T11:04:47.425Z</time>
      </trkpt>
      <trkpt lat="46.87427" lon="8.49819">
        <ele>1550</ele>
        <time>2021-08-11T11:04:48.425Z</time>
      </trkpt>
      <trkpt lat="46.87427" lon="8.49818">
        <ele>1550</ele>
        <time>2021-08-11T11:04:49.425Z</time>
      </trkpt>
      <trkpt lat="46.87427" lon="8.49817">
        <ele>1551</ele>
        <time>2021-08-11T11:04:50.424Z</time>
      </trkpt>
      <trkpt lat="46.87428" lon="8.49816">
        <ele>1551</ele>
        <time>2021-08-11T11:04:51.425Z</time>
      </trkpt>
      <trkpt lat="46.87428" lon="8.49815">
        <ele>1551</ele>
        <time>2021-08-11T11:04:52.424Z</time>
      </trkpt>
      <trkpt lat="46.87428" lon="8.49814">
        <ele>1551</ele>
        <time>2021-08-11T11:04:53.425Z</time>
      </trkpt>
      <trkpt lat="46.87428" lon="8.49813">
        <ele>1551</ele>
        <time>2021-08-11T11:04:54.425Z</time>
      </trkpt>
      <trkpt lat="46.87428" lon="8.49812">
        <ele>1550</ele>
        <time>2021-08-11T11:04:55.425Z</time>
      </trkpt>
      <trkpt lat="46.87428" lon="8.49811">
        <ele>1550</ele>
        <time>2021-08-11T11:04:56.425Z</time>
      </trkpt>
      <trkpt lat="46.87428" lon="8.49811">
        <ele>1550</ele>
        <time>2021-08-11T11:04:57.425Z</time>
      </trkpt>
      <trkpt lat="46.87429" lon="8.4981">
        <ele>1550</ele>
        <time>2021-08-11T11:04:58.425Z</time>
      </trkpt>
      <trkpt lat="46.87429" lon="8.49809">
        <ele>1550</ele>
        <time>2021-08-11T11:04:59.425Z</time>
      </trkpt>
      <trkpt lat="46.87428" lon="8.49809">
        <ele>1550</ele>
        <time>2021-08-11T11:05:00.425Z</time>
      </trkpt>
      <trkpt lat="46.87428" lon="8.49808">
        <ele>1550</ele>
        <time>2021-08-11T11:05:01.425Z</time>
      </trkpt>
      <trkpt lat="46.87428" lon="8.49807">
        <ele>1550</ele>
        <time>2021-08-11T11:05:02.425Z</time>
      </trkpt>
      <trkpt lat="46.87428" lon="8.49806">
        <ele>1550</ele>
        <time>2021-08-11T11:05:03.425Z</time>
      </trkpt>
      <trkpt lat="46.87428" lon="8.49804">
        <ele>1551</ele>
        <time>2021-08-11T11:05:04.424Z</time>
      </trkpt>
      <trkpt lat="46.87428" lon="8.49803">
        <ele>1551</ele>
        <time>2021-08-11T11:05:05.424Z</time>
      </trkpt>
      <trkpt lat="46.87429" lon="8.49802">
        <ele>1552</ele>
        <time>2021-08-11T11:05:06.425Z</time>
      </trkpt>
      <trkpt lat="46.87428" lon="8.49801">
        <ele>1552</ele>
        <time>2021-08-11T11:05:07.425Z</time>
      </trkpt>
      <trkpt lat="46.87428" lon="8.49801">
        <ele>1552</ele>
        <time>2021-08-11T11:05:08.425Z</time>
      </trkpt>
      <trkpt lat="46.87427" lon="8.498">
        <ele>1552</ele>
        <time>2021-08-11T11:05:09.425Z</time>
      </trkpt>
      <trkpt lat="46.87428" lon="8.498">
        <ele>1552</ele>
        <time>2021-08-11T11:05:13.504Z</time>
      </trkpt>
      <trkpt lat="46.87428" lon="8.49799">
        <ele>1551</ele>
        <time>2021-08-11T11:05:14.505Z</time>
      </trkpt>
      <trkpt lat="46.87429" lon="8.49798">
        <ele>1551</ele>
        <time>2021-08-11T11:05:15.505Z</time>
      </trkpt>
      <trkpt lat="46.87429" lon="8.49797">
        <ele>1551</ele>
        <time>2021-08-11T11:05:16.504Z</time>
      </trkpt>
      <trkpt lat="46.87429" lon="8.49795">
        <ele>1551</ele>
        <time>2021-08-11T11:05:17.505Z</time>
      </trkpt>
      <trkpt lat="46.87429" lon="8.49795">
        <ele>1550</ele>
        <time>2021-08-11T11:05:18.505Z</time>
      </trkpt>
      <trkpt lat="46.87429" lon="8.49794">
        <ele>1550</ele>
        <time>2021-08-11T11:05:19.505Z</time>
      </trkpt>
      <trkpt lat="46.87428" lon="8.49794">
        <ele>1550</ele>
        <time>2021-08-11T11:05:20.504Z</time>
      </trkpt>
      <trkpt lat="46.87429" lon="8.49793">
        <ele>1550</ele>
        <time>2021-08-11T11:05:21.504Z</time>
      </trkpt>
      <trkpt lat="46.87429" lon="8.49791">
        <ele>1550</ele>
        <time>2021-08-11T11:05:22.505Z</time>
      </trkpt>
      <trkpt lat="46.87429" lon="8.4979">
        <ele>1550</ele>
        <time>2021-08-11T11:05:23.505Z</time>
      </trkpt>
      <trkpt lat="46.87429" lon="8.49789">
        <ele>1551</ele>
        <time>2021-08-11T11:05:24.505Z</time>
      </trkpt>
      <trkpt lat="46.87429" lon="8.49788">
        <ele>1551</ele>
        <time>2021-08-11T11:05:25.505Z</time>
      </trkpt>
      <trkpt lat="46.8743" lon="8.49788">
        <ele>1552</ele>
        <time>2021-08-11T11:05:26.505Z</time>
      </trkpt>
      <trkpt lat="46.8743" lon="8.49787">
        <ele>1552</ele>
        <time>2021-08-11T11:05:27.505Z</time>
      </trkpt>
      <trkpt lat="46.8743" lon="8.49787">
        <ele>1552</ele>
        <time>2021-08-11T11:05:28.505Z</time>
      </trkpt>
      <trkpt lat="46.87431" lon="8.49785">
        <ele>1552</ele>
        <time>2021-08-11T11:05:29.505Z</time>
      </trkpt>
      <trkpt lat="46.87431" lon="8.49784">
        <ele>1552</ele>
        <time>2021-08-11T11:05:30.505Z</time>
      </trkpt>
      <trkpt lat="46.87432" lon="8.49782">
        <ele>1552</ele>
        <time>2021-08-11T11:05:35.510Z</time>
      </trkpt>
      <trkpt lat="46.87432" lon="8.49782">
        <ele>1552</ele>
        <time>2021-08-11T11:05:36.510Z</time>
      </trkpt>
      <trkpt lat="46.87432" lon="8.49781">
        <ele>1552</ele>
        <time>2021-08-11T11:05:37.510Z</time>
      </trkpt>
      <trkpt lat="46.87432" lon="8.4978">
        <ele>1552</ele>
        <time>2021-08-11T11:05:38.509Z</time>
      </trkpt>
      <trkpt lat="46.87433" lon="8.49779">
        <ele>1552</ele>
        <time>2021-08-11T11:05:39.510Z</time>
      </trkpt>
      <trkpt lat="46.87433" lon="8.49777">
        <ele>1552</ele>
        <time>2021-08-11T11:05:40.510Z</time>
      </trkpt>
      <trkpt lat="46.87433" lon="8.49776">
        <ele>1552</ele>
        <time>2021-08-11T11:05:41.510Z</time>
      </trkpt>
      <trkpt lat="46.87433" lon="8.49775">
        <ele>1552</ele>
        <time>2021-08-11T11:05:44.600Z</time>
      </trkpt>
      <trkpt lat="46.87433" lon="8.49773">
        <ele>1552</ele>
        <time>2021-08-11T11:05:45.599Z</time>
      </trkpt>
      <trkpt lat="46.87433" lon="8.49773">
        <ele>1553</ele>
        <time>2021-08-11T11:05:46.600Z</time>
      </trkpt>
      <trkpt lat="46.87433" lon="8.49773">
        <ele>1553</ele>
        <time>2021-08-11T11:05:47.600Z</time>
      </trkpt>
      <trkpt lat="46.87433" lon="8.49773">
        <ele>1553</ele>
        <time>2021-08-11T11:05:48.600Z</time>
      </trkpt>
      <trkpt lat="46.87434" lon="8.49772">
        <ele>1553</ele>
        <time>2021-08-11T11:05:49.599Z</time>
      </trkpt>
      <trkpt lat="46.87434" lon="8.49772">
        <ele>1553</ele>
        <time>2021-08-11T11:05:50.600Z</time>
      </trkpt>
      <trkpt lat="46.87434" lon="8.49771">
        <ele>1554</ele>
        <time>2021-08-11T11:05:51.599Z</time>
      </trkpt>
      <trkpt lat="46.87435" lon="8.4977">
        <ele>1554</ele>
        <time>2021-08-11T11:05:52.600Z</time>
      </trkpt>
      <trkpt lat="46.87436" lon="8.49769">
        <ele>1554</ele>
        <time>2021-08-11T11:05:53.599Z</time>
      </trkpt>
      <trkpt lat="46.87436" lon="8.49768">
        <ele>1554</ele>
        <time>2021-08-11T11:05:54.600Z</time>
      </trkpt>
      <trkpt lat="46.87435" lon="8.49767">
        <ele>1554</ele>
        <time>2021-08-11T11:05:55.599Z</time>
      </trkpt>
      <trkpt lat="46.87435" lon="8.49766">
        <ele>1554</ele>
        <time>2021-08-11T11:05:56.599Z</time>
      </trkpt>
      <trkpt lat="46.87436" lon="8.49765">
        <ele>1554</ele>
        <time>2021-08-11T11:05:57.600Z</time>
      </trkpt>
      <trkpt lat="46.87436" lon="8.49764">
        <ele>1555</ele>
        <time>2021-08-11T11:05:58.600Z</time>
      </trkpt>
      <trkpt lat="46.87436" lon="8.49763">
        <ele>1555</ele>
        <time>2021-08-11T11:05:59.599Z</time>
      </trkpt>
      <trkpt lat="46.87436" lon="8.49761">
        <ele>1555</ele>
        <time>2021-08-11T11:06:00.600Z</time>
      </trkpt>
      <trkpt lat="46.87435" lon="8.49761">
        <ele>1556</ele>
        <time>2021-08-11T11:06:01.600Z</time>
      </trkpt>
      <trkpt lat="46.87435" lon="8.4976">
        <ele>1556</ele>
        <time>2021-08-11T11:06:02.600Z</time>
      </trkpt>
      <trkpt lat="46.87435" lon="8.49759">
        <ele>1556</ele>
        <time>2021-08-11T11:06:03.600Z</time>
      </trkpt>
      <trkpt lat="46.87436" lon="8.49758">
        <ele>1557</ele>
        <time>2021-08-11T11:06:04.600Z</time>
      </trkpt>
      <trkpt lat="46.87436" lon="8.49757">
        <ele>1557</ele>
        <time>2021-08-11T11:06:05.599Z</time>
      </trkpt>
      <trkpt lat="46.87436" lon="8.49756">
        <ele>1557</ele>
        <time>2021-08-11T11:06:06.600Z</time>
      </trkpt>
      <trkpt lat="46.87436" lon="8.49755">
        <ele>1557</ele>
        <time>2021-08-11T11:06:07.600Z</time>
      </trkpt>
      <trkpt lat="46.87437" lon="8.49754">
        <ele>1557</ele>
        <time>2021-08-11T11:06:12.631Z</time>
      </trkpt>
      <trkpt lat="46.87437" lon="8.49753">
        <ele>1557</ele>
        <time>2021-08-11T11:06:13.631Z</time>
      </trkpt>
      <trkpt lat="46.87438" lon="8.49752">
        <ele>1557</ele>
        <time>2021-08-11T11:06:14.630Z</time>
      </trkpt>
      <trkpt lat="46.87438" lon="8.49751">
        <ele>1558</ele>
        <time>2021-08-11T11:06:15.631Z</time>
      </trkpt>
      <trkpt lat="46.87438" lon="8.4975">
        <ele>1559</ele>
        <time>2021-08-11T11:06:16.630Z</time>
      </trkpt>
      <trkpt lat="46.87438" lon="8.49749">
        <ele>1559</ele>
        <time>2021-08-11T11:06:17.631Z</time>
      </trkpt>
      <trkpt lat="46.87439" lon="8.49749">
        <ele>1560</ele>
        <time>2021-08-11T11:06:18.631Z</time>
      </trkpt>
      <trkpt lat="46.87439" lon="8.49748">
        <ele>1560</ele>
        <time>2021-08-11T11:06:19.630Z</time>
      </trkpt>
      <trkpt lat="46.87439" lon="8.49747">
        <ele>1560</ele>
        <time>2021-08-11T11:06:20.631Z</time>
      </trkpt>
      <trkpt lat="46.8744" lon="8.49746">
        <ele>1560</ele>
        <time>2021-08-11T11:06:21.631Z</time>
      </trkpt>
      <trkpt lat="46.87439" lon="8.49745">
        <ele>1559</ele>
        <time>2021-08-11T11:06:22.631Z</time>
      </trkpt>
      <trkpt lat="46.87439" lon="8.49744">
        <ele>1559</ele>
        <time>2021-08-11T11:06:23.631Z</time>
      </trkpt>
      <trkpt lat="46.87438" lon="8.49744">
        <ele>1559</ele>
        <time>2021-08-11T11:06:24.630Z</time>
      </trkpt>
      <trkpt lat="46.87438" lon="8.49742">
        <ele>1559</ele>
        <time>2021-08-11T11:06:25.631Z</time>
      </trkpt>
      <trkpt lat="46.87439" lon="8.49741">
        <ele>1558</ele>
        <time>2021-08-11T11:06:26.630Z</time>
      </trkpt>
      <trkpt lat="46.87439" lon="8.49741">
        <ele>1558</ele>
        <time>2021-08-11T11:06:27.630Z</time>
      </trkpt>
      <trkpt lat="46.87439" lon="8.49739">
        <ele>1558</ele>
        <time>2021-08-11T11:06:28.630Z</time>
      </trkpt>
      <trkpt lat="46.8744" lon="8.49739">
        <ele>1559</ele>
        <time>2021-08-11T11:06:29.631Z</time>
      </trkpt>
      <trkpt lat="46.8744" lon="8.49739">
        <ele>1559</ele>
        <time>2021-08-11T11:06:30.631Z</time>
      </trkpt>
      <trkpt lat="46.8744" lon="8.49738">
        <ele>1559</ele>
        <time>2021-08-11T11:06:31.631Z</time>
      </trkpt>
      <trkpt lat="46.8744" lon="8.49737">
        <ele>1559</ele>
        <time>2021-08-11T11:06:32.631Z</time>
      </trkpt>
      <trkpt lat="46.87441" lon="8.49736">
        <ele>1559</ele>
        <time>2021-08-11T11:06:33.631Z</time>
      </trkpt>
      <trkpt lat="46.87441" lon="8.49735">
        <ele>1560</ele>
        <time>2021-08-11T11:06:34.631Z</time>
      </trkpt>
      <trkpt lat="46.87442" lon="8.49734">
        <ele>1560</ele>
        <time>2021-08-11T11:06:40.607Z</time>
      </trkpt>
      <trkpt lat="46.87442" lon="8.49732">
        <ele>1560</ele>
        <time>2021-08-11T11:06:41.607Z</time>
      </trkpt>
      <trkpt lat="46.87443" lon="8.49731">
        <ele>1560</ele>
        <time>2021-08-11T11:06:42.607Z</time>
      </trkpt>
      <trkpt lat="46.87443" lon="8.4973">
        <ele>1560</ele>
        <time>2021-08-11T11:06:43.607Z</time>
      </trkpt>
      <trkpt lat="46.87442" lon="8.49729">
        <ele>1560</ele>
        <time>2021-08-11T11:06:44.606Z</time>
      </trkpt>
      <trkpt lat="46.87442" lon="8.49727">
        <ele>1560</ele>
        <time>2021-08-11T11:06:45.607Z</time>
      </trkpt>
      <trkpt lat="46.87443" lon="8.49727">
        <ele>1560</ele>
        <time>2021-08-11T11:06:46.607Z</time>
      </trkpt>
      <trkpt lat="46.87444" lon="8.49725">
        <ele>1560</ele>
        <time>2021-08-11T11:06:47.607Z</time>
      </trkpt>
      <trkpt lat="46.87443" lon="8.49724">
        <ele>1560</ele>
        <time>2021-08-11T11:06:48.607Z</time>
      </trkpt>
      <trkpt lat="46.87444" lon="8.49723">
        <ele>1560</ele>
        <time>2021-08-11T11:06:51.633Z</time>
      </trkpt>
      <trkpt lat="46.87443" lon="8.49722">
        <ele>1560</ele>
        <time>2021-08-11T11:06:52.633Z</time>
      </trkpt>
      <trkpt lat="46.87443" lon="8.49721">
        <ele>1560</ele>
        <time>2021-08-11T11:06:53.632Z</time>
      </trkpt>
      <trkpt lat="46.87444" lon="8.4972">
        <ele>1560</ele>
        <time>2021-08-11T11:06:58.608Z</time>
      </trkpt>
      <trkpt lat="46.87444" lon="8.49719">
        <ele>1560</ele>
        <time>2021-08-11T11:06:59.608Z</time>
      </trkpt>
      <trkpt lat="46.87444" lon="8.49718">
        <ele>1561</ele>
        <time>2021-08-11T11:07:00.608Z</time>
      </trkpt>
      <trkpt lat="46.87444" lon="8.49716">
        <ele>1561</ele>
        <time>2021-08-11T11:07:01.609Z</time>
      </trkpt>
      <trkpt lat="46.87444" lon="8.49716">
        <ele>1561</ele>
        <time>2021-08-11T11:07:02.608Z</time>
      </trkpt>
      <trkpt lat="46.87444" lon="8.49714">
        <ele>1561</ele>
        <time>2021-08-11T11:07:03.609Z</time>
      </trkpt>
      <trkpt lat="46.87444" lon="8.49714">
        <ele>1562</ele>
        <time>2021-08-11T11:07:04.608Z</time>
      </trkpt>
      <trkpt lat="46.87445" lon="8.49713">
        <ele>1562</ele>
        <time>2021-08-11T11:07:05.609Z</time>
      </trkpt>
      <trkpt lat="46.87445" lon="8.49712">
        <ele>1562</ele>
        <time>2021-08-11T11:07:06.609Z</time>
      </trkpt>
      <trkpt lat="46.87445" lon="8.49711">
        <ele>1562</ele>
        <time>2021-08-11T11:07:07.609Z</time>
      </trkpt>
      <trkpt lat="46.87445" lon="8.4971">
        <ele>1562</ele>
        <time>2021-08-11T11:07:08.609Z</time>
      </trkpt>
      <trkpt lat="46.87446" lon="8.49709">
        <ele>1562</ele>
        <time>2021-08-11T11:07:09.609Z</time>
      </trkpt>
      <trkpt lat="46.87446" lon="8.49708">
        <ele>1563</ele>
        <time>2021-08-11T11:07:10.608Z</time>
      </trkpt>
      <trkpt lat="46.87446" lon="8.49707">
        <ele>1564</ele>
        <time>2021-08-11T11:07:11.608Z</time>
      </trkpt>
      <trkpt lat="46.87446" lon="8.49707">
        <ele>1564</ele>
        <time>2021-08-11T11:07:12.608Z</time>
      </trkpt>
      <trkpt lat="46.87447" lon="8.49706">
        <ele>1565</ele>
        <time>2021-08-11T11:07:13.609Z</time>
      </trkpt>
      <trkpt lat="46.87448" lon="8.49704">
        <ele>1565</ele>
        <time>2021-08-11T11:07:14.609Z</time>
      </trkpt>
      <trkpt lat="46.87449" lon="8.49703">
        <ele>1565</ele>
        <time>2021-08-11T11:07:15.608Z</time>
      </trkpt>
      <trkpt lat="46.8745" lon="8.49703">
        <ele>1565</ele>
        <time>2021-08-11T11:07:16.608Z</time>
      </trkpt>
      <trkpt lat="46.8745" lon="8.49702">
        <ele>1566</ele>
        <time>2021-08-11T11:07:17.609Z</time>
      </trkpt>
      <trkpt lat="46.8745" lon="8.49702">
        <ele>1566</ele>
        <time>2021-08-11T11:07:18.609Z</time>
      </trkpt>
      <trkpt lat="46.87449" lon="8.49702">
        <ele>1567</ele>
        <time>2021-08-11T11:07:19.609Z</time>
      </trkpt>
      <trkpt lat="46.87449" lon="8.497">
        <ele>1567</ele>
        <time>2021-08-11T11:07:20.608Z</time>
      </trkpt>
      <trkpt lat="46.8745" lon="8.49698">
        <ele>1568</ele>
        <time>2021-08-11T11:07:21.608Z</time>
      </trkpt>
      <trkpt lat="46.8745" lon="8.49697">
        <ele>1568</ele>
        <time>2021-08-11T11:07:22.608Z</time>
      </trkpt>
      <trkpt lat="46.87449" lon="8.49696">
        <ele>1568</ele>
        <time>2021-08-11T11:07:23.609Z</time>
      </trkpt>
      <trkpt lat="46.87449" lon="8.49695">
        <ele>1568</ele>
        <time>2021-08-11T11:07:24.609Z</time>
      </trkpt>
      <trkpt lat="46.87449" lon="8.49694">
        <ele>1568</ele>
        <time>2021-08-11T11:07:25.608Z</time>
      </trkpt>
      <trkpt lat="46.8745" lon="8.49693">
        <ele>1568</ele>
        <time>2021-08-11T11:07:26.609Z</time>
      </trkpt>
      <trkpt lat="46.8745" lon="8.49692">
        <ele>1568</ele>
        <time>2021-08-11T11:07:27.608Z</time>
      </trkpt>
      <trkpt lat="46.87451" lon="8.49691">
        <ele>1568</ele>
        <time>2021-08-11T11:07:28.609Z</time>
      </trkpt>
      <trkpt lat="46.87451" lon="8.4969">
        <ele>1568</ele>
        <time>2021-08-11T11:07:29.609Z</time>
      </trkpt>
      <trkpt lat="46.87451" lon="8.49689">
        <ele>1567</ele>
        <time>2021-08-11T11:07:30.609Z</time>
      </trkpt>
      <trkpt lat="46.87452" lon="8.49688">
        <ele>1567</ele>
        <time>2021-08-11T11:07:31.608Z</time>
      </trkpt>
      <trkpt lat="46.87452" lon="8.49687">
        <ele>1567</ele>
        <time>2021-08-11T11:07:32.608Z</time>
      </trkpt>
      <trkpt lat="46.87452" lon="8.49686">
        <ele>1567</ele>
        <time>2021-08-11T11:07:33.609Z</time>
      </trkpt>
      <trkpt lat="46.87453" lon="8.49685">
        <ele>1567</ele>
        <time>2021-08-11T11:07:34.609Z</time>
      </trkpt>
      <trkpt lat="46.87453" lon="8.49685">
        <ele>1567</ele>
        <time>2021-08-11T11:07:35.609Z</time>
      </trkpt>
      <trkpt lat="46.87451" lon="8.49688">
        <ele>1570</ele>
        <time>2021-08-11T11:07:36.609Z</time>
      </trkpt>
      <trkpt lat="46.8745" lon="8.4969">
        <ele>1576</ele>
        <time>2021-08-11T11:07:37.610Z</time>
      </trkpt>
      <trkpt lat="46.87451" lon="8.4969">
        <ele>1576</ele>
        <time>2021-08-11T11:07:38.609Z</time>
      </trkpt>
      <trkpt lat="46.8745" lon="8.49691">
        <ele>1577</ele>
        <time>2021-08-11T11:07:39.609Z</time>
      </trkpt>
      <trkpt lat="46.87442" lon="8.49694">
        <ele>1582</ele>
        <time>2021-08-11T11:07:40.611Z</time>
      </trkpt>
      <trkpt lat="46.87443" lon="8.49693">
        <ele>1583</ele>
        <time>2021-08-11T11:07:41.611Z</time>
      </trkpt>
      <trkpt lat="46.87444" lon="8.49693">
        <ele>1583</ele>
        <time>2021-08-11T11:07:42.610Z</time>
      </trkpt>
      <trkpt lat="46.87444" lon="8.49693">
        <ele>1584</ele>
        <time>2021-08-11T11:07:43.610Z</time>
      </trkpt>
      <trkpt lat="46.87443" lon="8.49695">
        <ele>1587</ele>
        <time>2021-08-11T11:07:44.612Z</time>
      </trkpt>
      <trkpt lat="46.87443" lon="8.49695">
        <ele>1587</ele>
        <time>2021-08-11T11:07:45.611Z</time>
      </trkpt>
      <trkpt lat="46.87444" lon="8.49697">
        <ele>1584</ele>
        <time>2021-08-11T11:07:46.612Z</time>
      </trkpt>
      <trkpt lat="46.87444" lon="8.49697">
        <ele>1583</ele>
        <time>2021-08-11T11:07:47.612Z</time>
      </trkpt>
      <trkpt lat="46.87443" lon="8.49699">
        <ele>1584</ele>
        <time>2021-08-11T11:07:48.612Z</time>
      </trkpt>
      <trkpt lat="46.87442" lon="8.497">
        <ele>1587</ele>
        <time>2021-08-11T11:07:49.613Z</time>
      </trkpt>
      <trkpt lat="46.87442" lon="8.497">
        <ele>1587</ele>
        <time>2021-08-11T11:07:50.613Z</time>
      </trkpt>
      <trkpt lat="46.87442" lon="8.49699">
        <ele>1587</ele>
        <time>2021-08-11T11:07:51.612Z</time>
      </trkpt>
      <trkpt lat="46.87443" lon="8.49699">
        <ele>1586</ele>
        <time>2021-08-11T11:07:52.612Z</time>
      </trkpt>
      <trkpt lat="46.87443" lon="8.49699">
        <ele>1586</ele>
        <time>2021-08-11T11:07:53.613Z</time>
      </trkpt>
      <trkpt lat="46.87442" lon="8.49699">
        <ele>1586</ele>
        <time>2021-08-11T11:07:54.612Z</time>
      </trkpt>
      <trkpt lat="46.87441" lon="8.49699">
        <ele>1586</ele>
        <time>2021-08-11T11:07:55.613Z</time>
      </trkpt>
      <trkpt lat="46.87441" lon="8.49699">
        <ele>1585</ele>
        <time>2021-08-11T11:07:56.612Z</time>
      </trkpt>
      <trkpt lat="46.87441" lon="8.49698">
        <ele>1585</ele>
        <time>2021-08-11T11:07:57.613Z</time>
      </trkpt>
      <trkpt lat="46.8744" lon="8.49687">
        <ele>1562</ele>
        <time>2021-08-11T11:07:58.613Z</time>
      </trkpt>
      <trkpt lat="46.8744" lon="8.49688">
        <ele>1562</ele>
        <time>2021-08-11T11:07:59.613Z</time>
      </trkpt>
      <trkpt lat="46.87439" lon="8.49687">
        <ele>1561</ele>
        <time>2021-08-11T11:08:00.613Z</time>
      </trkpt>
      <trkpt lat="46.8744" lon="8.49687">
        <ele>1561</ele>
        <time>2021-08-11T11:08:01.612Z</time>
      </trkpt>
      <trkpt lat="46.87435" lon="8.49688">
        <ele>1560</ele>
        <time>2021-08-11T11:08:02.614Z</time>
      </trkpt>
      <trkpt lat="46.87435" lon="8.49687">
        <ele>1559</ele>
        <time>2021-08-11T11:08:03.614Z</time>
      </trkpt>
      <trkpt lat="46.87435" lon="8.49686">
        <ele>1559</ele>
        <time>2021-08-11T11:08:04.613Z</time>
      </trkpt>
      <trkpt lat="46.87438" lon="8.49683">
        <ele>1558</ele>
        <time>2021-08-11T11:08:05.614Z</time>
      </trkpt>
      <trkpt lat="46.87437" lon="8.49683">
        <ele>1558</ele>
        <time>2021-08-11T11:08:06.613Z</time>
      </trkpt>
      <trkpt lat="46.87437" lon="8.49682">
        <ele>1558</ele>
        <time>2021-08-11T11:08:07.614Z</time>
      </trkpt>
      <trkpt lat="46.87437" lon="8.49682">
        <ele>1558</ele>
        <time>2021-08-11T11:08:08.614Z</time>
      </trkpt>
      <trkpt lat="46.87437" lon="8.49681">
        <ele>1559</ele>
        <time>2021-08-11T11:08:10.719Z</time>
      </trkpt>
      <trkpt lat="46.87438" lon="8.49681">
        <ele>1558</ele>
        <time>2021-08-11T11:08:11.719Z</time>
      </trkpt>
      <trkpt lat="46.87439" lon="8.4968">
        <ele>1558</ele>
        <time>2021-08-11T11:08:12.719Z</time>
      </trkpt>
      <trkpt lat="46.8744" lon="8.49679">
        <ele>1558</ele>
        <time>2021-08-11T11:08:13.718Z</time>
      </trkpt>
      <trkpt lat="46.8744" lon="8.49678">
        <ele>1558</ele>
        <time>2021-08-11T11:08:14.719Z</time>
      </trkpt>
      <trkpt lat="46.8744" lon="8.49677">
        <ele>1558</ele>
        <time>2021-08-11T11:08:15.719Z</time>
      </trkpt>
      <trkpt lat="46.87441" lon="8.49679">
        <ele>1557</ele>
        <time>2021-08-11T11:08:16.719Z</time>
      </trkpt>
      <trkpt lat="46.8744" lon="8.49679">
        <ele>1557</ele>
        <time>2021-08-11T11:08:17.721Z</time>
      </trkpt>
      <trkpt lat="46.87441" lon="8.49679">
        <ele>1556</ele>
        <time>2021-08-11T11:08:18.720Z</time>
      </trkpt>
      <trkpt lat="46.8744" lon="8.4968">
        <ele>1556</ele>
        <time>2021-08-11T11:08:19.721Z</time>
      </trkpt>
      <trkpt lat="46.8744" lon="8.4968">
        <ele>1556</ele>
        <time>2021-08-11T11:08:20.720Z</time>
      </trkpt>
      <trkpt lat="46.87441" lon="8.4968">
        <ele>1556</ele>
        <time>2021-08-11T11:08:21.721Z</time>
      </trkpt>
      <trkpt lat="46.87441" lon="8.4968">
        <ele>1557</ele>
        <time>2021-08-11T11:08:22.721Z</time>
      </trkpt>
      <trkpt lat="46.87441" lon="8.49681">
        <ele>1553</ele>
        <time>2021-08-11T11:08:23.722Z</time>
      </trkpt>
      <trkpt lat="46.87441" lon="8.49681">
        <ele>1554</ele>
        <time>2021-08-11T11:08:24.722Z</time>
      </trkpt>
      <trkpt lat="46.87441" lon="8.49682">
        <ele>1554</ele>
        <time>2021-08-11T11:08:25.723Z</time>
      </trkpt>
      <trkpt lat="46.87441" lon="8.49682">
        <ele>1554</ele>
        <time>2021-08-11T11:08:26.722Z</time>
      </trkpt>
      <trkpt lat="46.87441" lon="8.49682">
        <ele>1554</ele>
        <time>2021-08-11T11:08:27.722Z</time>
      </trkpt>
      <trkpt lat="46.87442" lon="8.49682">
        <ele>1554</ele>
        <time>2021-08-11T11:08:28.724Z</time>
      </trkpt>
      <trkpt lat="46.87441" lon="8.49682">
        <ele>1554</ele>
        <time>2021-08-11T11:08:29.724Z</time>
      </trkpt>
      <trkpt lat="46.87442" lon="8.49682">
        <ele>1554</ele>
        <time>2021-08-11T11:08:30.723Z</time>
      </trkpt>
      <trkpt lat="46.87441" lon="8.49682">
        <ele>1555</ele>
        <time>2021-08-11T11:08:31.723Z</time>
      </trkpt>
      <trkpt lat="46.87442" lon="8.49682">
        <ele>1556</ele>
        <time>2021-08-11T11:08:32.724Z</time>
      </trkpt>
      <trkpt lat="46.87443" lon="8.49682">
        <ele>1556</ele>
        <time>2021-08-11T11:08:33.723Z</time>
      </trkpt>
      <trkpt lat="46.87443" lon="8.49682">
        <ele>1557</ele>
        <time>2021-08-11T11:08:34.724Z</time>
      </trkpt>
      <trkpt lat="46.87444" lon="8.49682">
        <ele>1557</ele>
        <time>2021-08-11T11:08:38.738Z</time>
      </trkpt>
      <trkpt lat="46.87443" lon="8.49682">
        <ele>1557</ele>
        <time>2021-08-11T11:08:40.475Z</time>
      </trkpt>
      <trkpt lat="46.87443" lon="8.49684">
        <ele>1558</ele>
        <time>2021-08-11T11:08:41.477Z</time>
      </trkpt>
      <trkpt lat="46.87443" lon="8.49683">
        <ele>1555</ele>
        <time>2021-08-11T11:08:42.479Z</time>
      </trkpt>
      <trkpt lat="46.87443" lon="8.49683">
        <ele>1555</ele>
        <time>2021-08-11T11:08:43.478Z</time>
      </trkpt>
      <trkpt lat="46.87443" lon="8.49683">
        <ele>1554</ele>
        <time>2021-08-11T11:08:59.495Z</time>
      </trkpt>
      <trkpt lat="46.87442" lon="8.49683">
        <ele>1554</ele>
        <time>2021-08-11T11:09:00.496Z</time>
      </trkpt>
      <trkpt lat="46.87443" lon="8.49681">
        <ele>1550</ele>
        <time>2021-08-11T11:09:01.496Z</time>
      </trkpt>
      <trkpt lat="46.87444" lon="8.4968">
        <ele>1550</ele>
        <time>2021-08-11T11:09:02.496Z</time>
      </trkpt>
      <trkpt lat="46.87444" lon="8.49681">
        <ele>1550</ele>
        <time>2021-08-11T11:09:15.645Z</time>
      </trkpt>
      <trkpt lat="46.87444" lon="8.49681">
        <ele>1550</ele>
        <time>2021-08-11T11:09:16.646Z</time>
      </trkpt>
      <trkpt lat="46.87444" lon="8.49681">
        <ele>1551</ele>
        <time>2021-08-11T11:09:17.646Z</time>
      </trkpt>
      <trkpt lat="46.87445" lon="8.49678">
        <ele>1552</ele>
        <time>2021-08-11T11:09:18.522Z</time>
      </trkpt>
      <trkpt lat="46.87445" lon="8.49678">
        <ele>1553</ele>
        <time>2021-08-11T11:09:19.522Z</time>
      </trkpt>
      <trkpt lat="46.87445" lon="8.49677">
        <ele>1557</ele>
        <time>2021-08-11T11:09:20.523Z</time>
      </trkpt>
      <trkpt lat="46.87445" lon="8.49677">
        <ele>1557</ele>
        <time>2021-08-11T11:09:21.522Z</time>
      </trkpt>
      <trkpt lat="46.87444" lon="8.49678">
        <ele>1557</ele>
        <time>2021-08-11T11:09:22.524Z</time>
      </trkpt>
      <trkpt lat="46.87443" lon="8.49681">
        <ele>1557</ele>
        <time>2021-08-11T11:09:23.525Z</time>
      </trkpt>
      <trkpt lat="46.87442" lon="8.49681">
        <ele>1557</ele>
        <time>2021-08-11T11:09:30.667Z</time>
      </trkpt>
      <trkpt lat="46.87442" lon="8.4968">
        <ele>1557</ele>
        <time>2021-08-11T11:09:31.666Z</time>
      </trkpt>
      <trkpt lat="46.87442" lon="8.4968">
        <ele>1560</ele>
        <time>2021-08-11T11:09:33.510Z</time>
      </trkpt>
      <trkpt lat="46.87443" lon="8.49679">
        <ele>1559</ele>
        <time>2021-08-11T11:09:34.510Z</time>
      </trkpt>
      <trkpt lat="46.87443" lon="8.49679">
        <ele>1559</ele>
        <time>2021-08-11T11:09:35.510Z</time>
      </trkpt>
      <trkpt lat="46.87444" lon="8.49679">
        <ele>1559</ele>
        <time>2021-08-11T11:09:36.511Z</time>
      </trkpt>
      <trkpt lat="46.87444" lon="8.49679">
        <ele>1559</ele>
        <time>2021-08-11T11:09:37.510Z</time>
      </trkpt>
      <trkpt lat="46.87444" lon="8.49679">
        <ele>1559</ele>
        <time>2021-08-11T11:09:38.511Z</time>
      </trkpt>
      <trkpt lat="46.87445" lon="8.49679">
        <ele>1558</ele>
        <time>2021-08-11T11:09:39.511Z</time>
      </trkpt>
      <trkpt lat="46.87445" lon="8.49678">
        <ele>1558</ele>
        <time>2021-08-11T11:09:40.511Z</time>
      </trkpt>
      <trkpt lat="46.87445" lon="8.49678">
        <ele>1558</ele>
        <time>2021-08-11T11:09:41.511Z</time>
      </trkpt>
      <trkpt lat="46.87443" lon="8.49679">
        <ele>1557</ele>
        <time>2021-08-11T11:09:42.510Z</time>
      </trkpt>
      <trkpt lat="46.87443" lon="8.49679">
        <ele>1557</ele>
        <time>2021-08-11T11:09:43.511Z</time>
      </trkpt>
      <trkpt lat="46.87443" lon="8.49679">
        <ele>1557</ele>
        <time>2021-08-11T11:09:44.511Z</time>
      </trkpt>
      <trkpt lat="46.87443" lon="8.49678">
        <ele>1557</ele>
        <time>2021-08-11T11:09:45.511Z</time>
      </trkpt>
      <trkpt lat="46.87442" lon="8.49679">
        <ele>1556</ele>
        <time>2021-08-11T11:09:46.511Z</time>
      </trkpt>
      <trkpt lat="46.87442" lon="8.4968">
        <ele>1556</ele>
        <time>2021-08-11T11:09:47.511Z</time>
      </trkpt>
      <trkpt lat="46.87442" lon="8.49682">
        <ele>1554</ele>
        <time>2021-08-11T11:09:48.511Z</time>
      </trkpt>
      <trkpt lat="46.87441" lon="8.49682">
        <ele>1554</ele>
        <time>2021-08-11T11:09:49.510Z</time>
      </trkpt>
      <trkpt lat="46.87441" lon="8.49683">
        <ele>1554</ele>
        <time>2021-08-11T11:09:50.511Z</time>
      </trkpt>
      <trkpt lat="46.8744" lon="8.49682">
        <ele>1557</ele>
        <time>2021-08-11T11:09:51.512Z</time>
      </trkpt>
      <trkpt lat="46.8744" lon="8.49682">
        <ele>1557</ele>
        <time>2021-08-11T11:09:52.511Z</time>
      </trkpt>
      <trkpt lat="46.87441" lon="8.49682">
        <ele>1556</ele>
        <time>2021-08-11T11:09:53.511Z</time>
      </trkpt>
      <trkpt lat="46.87439" lon="8.49684">
        <ele>1561</ele>
        <time>2021-08-11T11:09:54.511Z</time>
      </trkpt>
      <trkpt lat="46.8744" lon="8.49685">
        <ele>1560</ele>
        <time>2021-08-11T11:09:55.511Z</time>
      </trkpt>
      <trkpt lat="46.8744" lon="8.49685">
        <ele>1560</ele>
        <time>2021-08-11T11:09:56.511Z</time>
      </trkpt>
      <trkpt lat="46.87441" lon="8.49685">
        <ele>1560</ele>
        <time>2021-08-11T11:09:57.512Z</time>
      </trkpt>
      <trkpt lat="46.87441" lon="8.49684">
        <ele>1560</ele>
        <time>2021-08-11T11:09:58.514Z</time>
      </trkpt>
      <trkpt lat="46.87441" lon="8.49684">
        <ele>1560</ele>
        <time>2021-08-11T11:09:59.513Z</time>
      </trkpt>
      <trkpt lat="46.87442" lon="8.49683">
        <ele>1559</ele>
        <time>2021-08-11T11:10:00.515Z</time>
      </trkpt>
      <trkpt lat="46.87442" lon="8.49683">
        <ele>1559</ele>
        <time>2021-08-11T11:10:01.515Z</time>
      </trkpt>
      <trkpt lat="46.87443" lon="8.49683">
        <ele>1558</ele>
        <time>2021-08-11T11:10:02.514Z</time>
      </trkpt>
      <trkpt lat="46.87442" lon="8.4968">
        <ele>1551</ele>
        <time>2021-08-11T11:10:03.515Z</time>
      </trkpt>
      <trkpt lat="46.87442" lon="8.49679">
        <ele>1551</ele>
        <time>2021-08-11T11:10:04.516Z</time>
      </trkpt>
      <trkpt lat="46.87443" lon="8.49679">
        <ele>1551</ele>
        <time>2021-08-11T11:10:05.515Z</time>
      </trkpt>
      <trkpt lat="46.87443" lon="8.49679">
        <ele>1551</ele>
        <time>2021-08-11T11:10:06.516Z</time>
      </trkpt>
      <trkpt lat="46.87443" lon="8.49679">
        <ele>1552</ele>
        <time>2021-08-11T11:10:07.516Z</time>
      </trkpt>
      <trkpt lat="46.87442" lon="8.4968">
        <ele>1552</ele>
        <time>2021-08-11T11:10:08.516Z</time>
      </trkpt>
      <trkpt lat="46.87442" lon="8.4968">
        <ele>1552</ele>
        <time>2021-08-11T11:10:09.516Z</time>
      </trkpt>
      <trkpt lat="46.87439" lon="8.49685">
        <ele>1558</ele>
        <time>2021-08-11T11:10:16.505Z</time>
      </trkpt>
      <trkpt lat="46.87442" lon="8.4968">
        <ele>1556</ele>
        <time>2021-08-11T11:10:17.505Z</time>
      </trkpt>
      <trkpt lat="46.87442" lon="8.4968">
        <ele>1556</ele>
        <time>2021-08-11T11:10:24.276Z</time>
      </trkpt>
      <trkpt lat="46.87442" lon="8.4968">
        <ele>1555</ele>
        <time>2021-08-11T11:10:25.275Z</time>
      </trkpt>
      <trkpt lat="46.87442" lon="8.4968">
        <ele>1555</ele>
        <time>2021-08-11T11:10:26.276Z</time>
      </trkpt>
      <trkpt lat="46.87442" lon="8.4968">
        <ele>1555</ele>
        <time>2021-08-11T11:10:27.276Z</time>
      </trkpt>
      <trkpt lat="46.87442" lon="8.49681">
        <ele>1556</ele>
        <time>2021-08-11T11:10:31.404Z</time>
      </trkpt>
      <trkpt lat="46.87441" lon="8.49681">
        <ele>1556</ele>
        <time>2021-08-11T11:10:32.404Z</time>
      </trkpt>
      <trkpt lat="46.87441" lon="8.49681">
        <ele>1556</ele>
        <time>2021-08-11T11:10:33.404Z</time>
      </trkpt>
      <trkpt lat="46.87441" lon="8.49681">
        <ele>1556</ele>
        <time>2021-08-11T11:10:34.405Z</time>
      </trkpt>
      <trkpt lat="46.87441" lon="8.49682">
        <ele>1555</ele>
        <time>2021-08-11T11:10:35.404Z</time>
      </trkpt>
      <trkpt lat="46.8744" lon="8.49682">
        <ele>1555</ele>
        <time>2021-08-11T11:10:36.405Z</time>
      </trkpt>
      <trkpt lat="46.8744" lon="8.49682">
        <ele>1555</ele>
        <time>2021-08-11T11:10:37.405Z</time>
      </trkpt>
      <trkpt lat="46.8744" lon="8.49683">
        <ele>1553</ele>
        <time>2021-08-11T11:10:38.405Z</time>
      </trkpt>
      <trkpt lat="46.87439" lon="8.49684">
        <ele>1553</ele>
        <time>2021-08-11T11:10:39.406Z</time>
      </trkpt>
      <trkpt lat="46.87439" lon="8.49684">
        <ele>1556</ele>
        <time>2021-08-11T11:10:40.406Z</time>
      </trkpt>
      <trkpt lat="46.87439" lon="8.49683">
        <ele>1556</ele>
        <time>2021-08-11T11:10:41.406Z</time>
      </trkpt>
      <trkpt lat="46.87437" lon="8.49684">
        <ele>1558</ele>
        <time>2021-08-11T11:10:42.406Z</time>
      </trkpt>
      <trkpt lat="46.87437" lon="8.49685">
        <ele>1558</ele>
        <time>2021-08-11T11:10:43.406Z</time>
      </trkpt>
      <trkpt lat="46.87436" lon="8.49685">
        <ele>1559</ele>
        <time>2021-08-11T11:10:44.407Z</time>
      </trkpt>
      <trkpt lat="46.87436" lon="8.49685">
        <ele>1559</ele>
        <time>2021-08-11T11:10:45.406Z</time>
      </trkpt>
      <trkpt lat="46.87437" lon="8.49687">
        <ele>1558</ele>
        <time>2021-08-11T11:10:46.406Z</time>
      </trkpt>
      <trkpt lat="46.87437" lon="8.49686">
        <ele>1558</ele>
        <time>2021-08-11T11:10:47.406Z</time>
      </trkpt>
      <trkpt lat="46.87441" lon="8.49681">
        <ele>1558</ele>
        <time>2021-08-11T11:10:48.407Z</time>
      </trkpt>
      <trkpt lat="46.87441" lon="8.49681">
        <ele>1558</ele>
        <time>2021-08-11T11:10:49.407Z</time>
      </trkpt>
      <trkpt lat="46.87442" lon="8.4968">
        <ele>1558</ele>
        <time>2021-08-11T11:10:50.406Z</time>
      </trkpt>
      <trkpt lat="46.87441" lon="8.49683">
        <ele>1560</ele>
        <time>2021-08-11T11:10:51.407Z</time>
      </trkpt>
      <trkpt lat="46.8744" lon="8.49684">
        <ele>1561</ele>
        <time>2021-08-11T11:10:52.407Z</time>
      </trkpt>
      <trkpt lat="46.87439" lon="8.49684">
        <ele>1562</ele>
        <time>2021-08-11T11:10:53.406Z</time>
      </trkpt>
      <trkpt lat="46.87438" lon="8.49685">
        <ele>1563</ele>
        <time>2021-08-11T11:10:54.407Z</time>
      </trkpt>
      <trkpt lat="46.87438" lon="8.49686">
        <ele>1564</ele>
        <time>2021-08-11T11:10:55.407Z</time>
      </trkpt>
      <trkpt lat="46.8744" lon="8.49683">
        <ele>1565</ele>
        <time>2021-08-11T11:10:56.407Z</time>
      </trkpt>
      <trkpt lat="46.8744" lon="8.49682">
        <ele>1564</ele>
        <time>2021-08-11T11:10:57.407Z</time>
      </trkpt>
      <trkpt lat="46.87441" lon="8.49682">
        <ele>1564</ele>
        <time>2021-08-11T11:10:58.407Z</time>
      </trkpt>
      <trkpt lat="46.87441" lon="8.49681">
        <ele>1564</ele>
        <time>2021-08-11T11:11:03.531Z</time>
      </trkpt>
      <trkpt lat="46.87441" lon="8.49681">
        <ele>1564</ele>
        <time>2021-08-11T11:11:04.530Z</time>
      </trkpt>
      <trkpt lat="46.87442" lon="8.49681">
        <ele>1564</ele>
        <time>2021-08-11T11:11:05.530Z</time>
      </trkpt>
      <trkpt lat="46.87441" lon="8.49682">
        <ele>1561</ele>
        <time>2021-08-11T11:11:06.531Z</time>
      </trkpt>
      <trkpt lat="46.8744" lon="8.49682">
        <ele>1561</ele>
        <time>2021-08-11T11:11:07.531Z</time>
      </trkpt>
      <trkpt lat="46.8744" lon="8.49682">
        <ele>1561</ele>
        <time>2021-08-11T11:11:08.531Z</time>
      </trkpt>
      <trkpt lat="46.8744" lon="8.49683">
        <ele>1561</ele>
        <time>2021-08-11T11:11:09.531Z</time>
      </trkpt>
      <trkpt lat="46.87439" lon="8.49683">
        <ele>1560</ele>
        <time>2021-08-11T11:11:10.530Z</time>
      </trkpt>
      <trkpt lat="46.87439" lon="8.49683">
        <ele>1560</ele>
        <time>2021-08-11T11:11:11.531Z</time>
      </trkpt>
      <trkpt lat="46.87441" lon="8.49685">
        <ele>1554</ele>
        <time>2021-08-11T11:11:12.531Z</time>
      </trkpt>
      <trkpt lat="46.8744" lon="8.49683">
        <ele>1553</ele>
        <time>2021-08-11T11:11:13.532Z</time>
      </trkpt>
      <trkpt lat="46.8744" lon="8.49683">
        <ele>1553</ele>
        <time>2021-08-11T11:11:14.532Z</time>
      </trkpt>
      <trkpt lat="46.8744" lon="8.49682">
        <ele>1553</ele>
        <time>2021-08-11T11:11:15.531Z</time>
      </trkpt>
      <trkpt lat="46.87442" lon="8.49683">
        <ele>1556</ele>
        <time>2021-08-11T11:11:23.634Z</time>
      </trkpt>
      <trkpt lat="46.87442" lon="8.49683">
        <ele>1557</ele>
        <time>2021-08-11T11:11:24.634Z</time>
      </trkpt>
      <trkpt lat="46.87441" lon="8.49683">
        <ele>1557</ele>
        <time>2021-08-11T11:11:26.370Z</time>
      </trkpt>
      <trkpt lat="46.87443" lon="8.49683">
        <ele>1558</ele>
        <time>2021-08-11T11:11:27.371Z</time>
      </trkpt>
      <trkpt lat="46.87444" lon="8.49682">
        <ele>1559</ele>
        <time>2021-08-11T11:11:28.370Z</time>
      </trkpt>
      <trkpt lat="46.87443" lon="8.49682">
        <ele>1559</ele>
        <time>2021-08-11T11:11:29.370Z</time>
      </trkpt>
      <trkpt lat="46.87443" lon="8.49682">
        <ele>1559</ele>
        <time>2021-08-11T11:11:30.370Z</time>
      </trkpt>
      <trkpt lat="46.87443" lon="8.49682">
        <ele>1559</ele>
        <time>2021-08-11T11:11:31.371Z</time>
      </trkpt>
      <trkpt lat="46.87443" lon="8.49682">
        <ele>1559</ele>
        <time>2021-08-11T11:11:32.371Z</time>
      </trkpt>
      <trkpt lat="46.87441" lon="8.49683">
        <ele>1561</ele>
        <time>2021-08-11T11:11:33.373Z</time>
      </trkpt>
      <trkpt lat="46.87441" lon="8.49683">
        <ele>1561</ele>
        <time>2021-08-11T11:11:34.373Z</time>
      </trkpt>
      <trkpt lat="46.87441" lon="8.49683">
        <ele>1561</ele>
        <time>2021-08-11T11:11:35.373Z</time>
      </trkpt>
      <trkpt lat="46.87442" lon="8.49682">
        <ele>1561</ele>
        <time>2021-08-11T11:11:36.373Z</time>
      </trkpt>
      <trkpt lat="46.87442" lon="8.49682">
        <ele>1560</ele>
        <time>2021-08-11T11:11:37.373Z</time>
      </trkpt>
      <trkpt lat="46.8744" lon="8.49683">
        <ele>1560</ele>
        <time>2021-08-11T11:11:38.372Z</time>
      </trkpt>
      <trkpt lat="46.8744" lon="8.49683">
        <ele>1560</ele>
        <time>2021-08-11T11:11:39.372Z</time>
      </trkpt>
      <trkpt lat="46.8744" lon="8.49683">
        <ele>1560</ele>
        <time>2021-08-11T11:11:40.372Z</time>
      </trkpt>
      <trkpt lat="46.8744" lon="8.49683">
        <ele>1559</ele>
        <time>2021-08-11T11:11:41.372Z</time>
      </trkpt>
      <trkpt lat="46.8744" lon="8.49682">
        <ele>1557</ele>
        <time>2021-08-11T11:11:45.408Z</time>
      </trkpt>
      <trkpt lat="46.87441" lon="8.49682">
        <ele>1556</ele>
        <time>2021-08-11T11:11:46.409Z</time>
      </trkpt>
      <trkpt lat="46.87444" lon="8.4968">
        <ele>1554</ele>
        <time>2021-08-11T11:11:48.270Z</time>
      </trkpt>
      <trkpt lat="46.87444" lon="8.49679">
        <ele>1554</ele>
        <time>2021-08-11T11:11:49.270Z</time>
      </trkpt>
      <trkpt lat="46.87444" lon="8.4968">
        <ele>1554</ele>
        <time>2021-08-11T11:11:50.270Z</time>
      </trkpt>
      <trkpt lat="46.87444" lon="8.4968">
        <ele>1553</ele>
        <time>2021-08-11T11:11:56.281Z</time>
      </trkpt>
      <trkpt lat="46.87443" lon="8.4968">
        <ele>1554</ele>
        <time>2021-08-11T11:11:57.282Z</time>
      </trkpt>
      <trkpt lat="46.87443" lon="8.4968">
        <ele>1555</ele>
        <time>2021-08-11T11:11:58.282Z</time>
      </trkpt>
      <trkpt lat="46.87443" lon="8.49679">
        <ele>1557</ele>
        <time>2021-08-11T11:11:59.283Z</time>
      </trkpt>
      <trkpt lat="46.87443" lon="8.49679">
        <ele>1557</ele>
        <time>2021-08-11T11:12:00.283Z</time>
      </trkpt>
      <trkpt lat="46.87442" lon="8.4968">
        <ele>1558</ele>
        <time>2021-08-11T11:12:01.283Z</time>
      </trkpt>
      <trkpt lat="46.87442" lon="8.4968">
        <ele>1558</ele>
        <time>2021-08-11T11:12:02.282Z</time>
      </trkpt>
      <trkpt lat="46.87442" lon="8.4968">
        <ele>1558</ele>
        <time>2021-08-11T11:12:03.282Z</time>
      </trkpt>
      <trkpt lat="46.87441" lon="8.49681">
        <ele>1558</ele>
        <time>2021-08-11T11:12:04.283Z</time>
      </trkpt>
      <trkpt lat="46.8744" lon="8.49681">
        <ele>1558</ele>
        <time>2021-08-11T11:12:05.284Z</time>
      </trkpt>
      <trkpt lat="46.8744" lon="8.49681">
        <ele>1559</ele>
        <time>2021-08-11T11:12:06.283Z</time>
      </trkpt>
      <trkpt lat="46.87438" lon="8.49682">
        <ele>1561</ele>
        <time>2021-08-11T11:12:07.284Z</time>
      </trkpt>
      <trkpt lat="46.87437" lon="8.49683">
        <ele>1561</ele>
        <time>2021-08-11T11:12:08.284Z</time>
      </trkpt>
      <trkpt lat="46.87437" lon="8.49683">
        <ele>1561</ele>
        <time>2021-08-11T11:12:09.283Z</time>
      </trkpt>
      <trkpt lat="46.87436" lon="8.49683">
        <ele>1561</ele>
        <time>2021-08-11T11:12:10.283Z</time>
      </trkpt>
      <trkpt lat="46.87436" lon="8.49684">
        <ele>1561</ele>
        <time>2021-08-11T11:12:11.284Z</time>
      </trkpt>
      <trkpt lat="46.87436" lon="8.49684">
        <ele>1561</ele>
        <time>2021-08-11T11:12:12.284Z</time>
      </trkpt>
      <trkpt lat="46.87436" lon="8.49684">
        <ele>1561</ele>
        <time>2021-08-11T11:12:13.283Z</time>
      </trkpt>
      <trkpt lat="46.87436" lon="8.49684">
        <ele>1561</ele>
        <time>2021-08-11T11:12:14.283Z</time>
      </trkpt>
      <trkpt lat="46.87436" lon="8.49684">
        <ele>1562</ele>
        <time>2021-08-11T11:12:15.284Z</time>
      </trkpt>
      <trkpt lat="46.87436" lon="8.49685">
        <ele>1562</ele>
        <time>2021-08-11T11:12:16.283Z</time>
      </trkpt>
      <trkpt lat="46.87436" lon="8.49686">
        <ele>1562</ele>
        <time>2021-08-11T11:12:17.284Z</time>
      </trkpt>
      <trkpt lat="46.87436" lon="8.49686">
        <ele>1562</ele>
        <time>2021-08-11T11:12:18.284Z</time>
      </trkpt>
      <trkpt lat="46.87437" lon="8.49685">
        <ele>1562</ele>
        <time>2021-08-11T11:12:19.284Z</time>
      </trkpt>
      <trkpt lat="46.87435" lon="8.49687">
        <ele>1563</ele>
        <time>2021-08-11T11:12:20.284Z</time>
      </trkpt>
      <trkpt lat="46.87438" lon="8.49684">
        <ele>1564</ele>
        <time>2021-08-11T11:12:21.284Z</time>
      </trkpt>
      <trkpt lat="46.87437" lon="8.49684">
        <ele>1563</ele>
        <time>2021-08-11T11:12:22.285Z</time>
      </trkpt>
      <trkpt lat="46.87437" lon="8.49684">
        <ele>1563</ele>
        <time>2021-08-11T11:12:23.284Z</time>
      </trkpt>
      <trkpt lat="46.87438" lon="8.49684">
        <ele>1562</ele>
        <time>2021-08-11T11:12:29.391Z</time>
      </trkpt>
      <trkpt lat="46.87438" lon="8.49684">
        <ele>1562</ele>
        <time>2021-08-11T11:12:30.392Z</time>
      </trkpt>
      <trkpt lat="46.87439" lon="8.49684">
        <ele>1561</ele>
        <time>2021-08-11T11:12:31.393Z</time>
      </trkpt>
      <trkpt lat="46.8744" lon="8.49681">
        <ele>1565</ele>
        <time>2021-08-11T11:12:32.392Z</time>
      </trkpt>
      <trkpt lat="46.8744" lon="8.49681">
        <ele>1565</ele>
        <time>2021-08-11T11:12:33.393Z</time>
      </trkpt>
      <trkpt lat="46.8744" lon="8.49681">
        <ele>1565</ele>
        <time>2021-08-11T11:12:34.392Z</time>
      </trkpt>
      <trkpt lat="46.8744" lon="8.4968">
        <ele>1565</ele>
        <time>2021-08-11T11:12:35.392Z</time>
      </trkpt>
      <trkpt lat="46.8744" lon="8.4968">
        <ele>1565</ele>
        <time>2021-08-11T11:12:36.392Z</time>
      </trkpt>
      <trkpt lat="46.8744" lon="8.4968">
        <ele>1565</ele>
        <time>2021-08-11T11:12:43.388Z</time>
      </trkpt>
      <trkpt lat="46.8744" lon="8.49679">
        <ele>1565</ele>
        <time>2021-08-11T11:12:44.388Z</time>
      </trkpt>
      <trkpt lat="46.87441" lon="8.49679">
        <ele>1565</ele>
        <time>2021-08-11T11:12:45.390Z</time>
      </trkpt>
      <trkpt lat="46.87441" lon="8.49678">
        <ele>1565</ele>
        <time>2021-08-11T11:12:46.389Z</time>
      </trkpt>
      <trkpt lat="46.87441" lon="8.49678">
        <ele>1565</ele>
        <time>2021-08-11T11:12:47.389Z</time>
      </trkpt>
      <trkpt lat="46.87442" lon="8.49678">
        <ele>1565</ele>
        <time>2021-08-11T11:12:48.390Z</time>
      </trkpt>
      <trkpt lat="46.87442" lon="8.49678">
        <ele>1565</ele>
        <time>2021-08-11T11:13:08.534Z</time>
      </trkpt>
      <trkpt lat="46.87441" lon="8.49679">
        <ele>1565</ele>
        <time>2021-08-11T11:13:09.535Z</time>
      </trkpt>
      <trkpt lat="46.87441" lon="8.4968">
        <ele>1566</ele>
        <time>2021-08-11T11:13:10.535Z</time>
      </trkpt>
      <trkpt lat="46.87441" lon="8.4968">
        <ele>1566</ele>
        <time>2021-08-11T11:13:15.563Z</time>
      </trkpt>
      <trkpt lat="46.87441" lon="8.4968">
        <ele>1565</ele>
        <time>2021-08-11T11:13:16.564Z</time>
      </trkpt>
      <trkpt lat="46.8744" lon="8.49681">
        <ele>1565</ele>
        <time>2021-08-11T11:13:17.564Z</time>
      </trkpt>
      <trkpt lat="46.87439" lon="8.4968">
        <ele>1562</ele>
        <time>2021-08-11T11:13:18.564Z</time>
      </trkpt>
      <trkpt lat="46.87439" lon="8.4968">
        <ele>1562</ele>
        <time>2021-08-11T11:13:19.563Z</time>
      </trkpt>
      <trkpt lat="46.8744" lon="8.4968">
        <ele>1562</ele>
        <time>2021-08-11T11:13:32.665Z</time>
      </trkpt>
      <trkpt lat="46.87441" lon="8.49679">
        <ele>1562</ele>
        <time>2021-08-11T11:13:33.665Z</time>
      </trkpt>
      <trkpt lat="46.87441" lon="8.49679">
        <ele>1561</ele>
        <time>2021-08-11T11:13:34.666Z</time>
      </trkpt>
      <trkpt lat="46.87442" lon="8.49679">
        <ele>1561</ele>
        <time>2021-08-11T11:13:36.752Z</time>
      </trkpt>
      <trkpt lat="46.87441" lon="8.49679">
        <ele>1561</ele>
        <time>2021-08-11T11:13:37.752Z</time>
      </trkpt>
      <trkpt lat="46.87441" lon="8.4968">
        <ele>1560</ele>
        <time>2021-08-11T11:13:38.752Z</time>
      </trkpt>
      <trkpt lat="46.87441" lon="8.4968">
        <ele>1560</ele>
        <time>2021-08-11T11:13:39.752Z</time>
      </trkpt>
      <trkpt lat="46.8744" lon="8.49679">
        <ele>1559</ele>
        <time>2021-08-11T11:13:40.752Z</time>
      </trkpt>
      <trkpt lat="46.8744" lon="8.49679">
        <ele>1560</ele>
        <time>2021-08-11T11:13:41.753Z</time>
      </trkpt>
      <trkpt lat="46.8744" lon="8.4968">
        <ele>1561</ele>
        <time>2021-08-11T11:13:42.753Z</time>
      </trkpt>
      <trkpt lat="46.87439" lon="8.4968">
        <ele>1561</ele>
        <time>2021-08-11T11:13:43.752Z</time>
      </trkpt>
      <trkpt lat="46.87439" lon="8.49681">
        <ele>1561</ele>
        <time>2021-08-11T11:13:44.752Z</time>
      </trkpt>
      <trkpt lat="46.87439" lon="8.49684">
        <ele>1559</ele>
        <time>2021-08-11T11:13:46.751Z</time>
      </trkpt>
      <trkpt lat="46.87439" lon="8.49684">
        <ele>1558</ele>
        <time>2021-08-11T11:13:47.750Z</time>
      </trkpt>
      <trkpt lat="46.87438" lon="8.49684">
        <ele>1558</ele>
        <time>2021-08-11T11:13:48.751Z</time>
      </trkpt>
      <trkpt lat="46.87438" lon="8.49684">
        <ele>1558</ele>
        <time>2021-08-11T11:13:49.750Z</time>
      </trkpt>
      <trkpt lat="46.87438" lon="8.49684">
        <ele>1558</ele>
        <time>2021-08-11T11:13:50.751Z</time>
      </trkpt>
      <trkpt lat="46.87438" lon="8.49684">
        <ele>1558</ele>
        <time>2021-08-11T11:13:55.788Z</time>
      </trkpt>
      <trkpt lat="46.87439" lon="8.49684">
        <ele>1559</ele>
        <time>2021-08-11T11:13:56.788Z</time>
      </trkpt>
      <trkpt lat="46.87439" lon="8.49684">
        <ele>1559</ele>
        <time>2021-08-11T11:13:57.787Z</time>
      </trkpt>
      <trkpt lat="46.87439" lon="8.49684">
        <ele>1559</ele>
        <time>2021-08-11T11:13:58.788Z</time>
      </trkpt>
      <trkpt lat="46.8744" lon="8.49684">
        <ele>1563</ele>
        <time>2021-08-11T11:13:59.788Z</time>
      </trkpt>
      <trkpt lat="46.8744" lon="8.49683">
        <ele>1563</ele>
        <time>2021-08-11T11:14:00.787Z</time>
      </trkpt>
      <trkpt lat="46.87441" lon="8.49682">
        <ele>1563</ele>
        <time>2021-08-11T11:14:01.787Z</time>
      </trkpt>
      <trkpt lat="46.87441" lon="8.49681">
        <ele>1563</ele>
        <time>2021-08-11T11:14:02.788Z</time>
      </trkpt>
      <trkpt lat="46.87441" lon="8.49681">
        <ele>1564</ele>
        <time>2021-08-11T11:14:03.788Z</time>
      </trkpt>
      <trkpt lat="46.8744" lon="8.49681">
        <ele>1564</ele>
        <time>2021-08-11T11:14:04.788Z</time>
      </trkpt>
      <trkpt lat="46.87439" lon="8.49682">
        <ele>1564</ele>
        <time>2021-08-11T11:14:05.787Z</time>
      </trkpt>
      <trkpt lat="46.87438" lon="8.49683">
        <ele>1564</ele>
        <time>2021-08-11T11:14:06.787Z</time>
      </trkpt>
      <trkpt lat="46.87438" lon="8.49684">
        <ele>1564</ele>
        <time>2021-08-11T11:14:07.788Z</time>
      </trkpt>
      <trkpt lat="46.87438" lon="8.49684">
        <ele>1564</ele>
        <time>2021-08-11T11:14:08.787Z</time>
      </trkpt>
      <trkpt lat="46.87437" lon="8.49684">
        <ele>1564</ele>
        <time>2021-08-11T11:14:09.788Z</time>
      </trkpt>
      <trkpt lat="46.87437" lon="8.49685">
        <ele>1564</ele>
        <time>2021-08-11T11:14:10.787Z</time>
      </trkpt>
      <trkpt lat="46.87436" lon="8.49685">
        <ele>1564</ele>
        <time>2021-08-11T11:14:11.788Z</time>
      </trkpt>
      <trkpt lat="46.87436" lon="8.49685">
        <ele>1564</ele>
        <time>2021-08-11T11:14:12.787Z</time>
      </trkpt>
      <trkpt lat="46.87437" lon="8.49685">
        <ele>1564</ele>
        <time>2021-08-11T11:14:13.788Z</time>
      </trkpt>
      <trkpt lat="46.87437" lon="8.49685">
        <ele>1564</ele>
        <time>2021-08-11T11:14:14.788Z</time>
      </trkpt>
      <trkpt lat="46.87437" lon="8.49684">
        <ele>1564</ele>
        <time>2021-08-11T11:14:18.889Z</time>
      </trkpt>
      <trkpt lat="46.87437" lon="8.49684">
        <ele>1563</ele>
        <time>2021-08-11T11:14:19.889Z</time>
      </trkpt>
      <trkpt lat="46.87436" lon="8.49685">
        <ele>1564</ele>
        <time>2021-08-11T11:14:20.888Z</time>
      </trkpt>
      <trkpt lat="46.87435" lon="8.49686">
        <ele>1564</ele>
        <time>2021-08-11T11:14:21.890Z</time>
      </trkpt>
      <trkpt lat="46.87435" lon="8.49686">
        <ele>1564</ele>
        <time>2021-08-11T11:14:22.890Z</time>
      </trkpt>
      <trkpt lat="46.87435" lon="8.49686">
        <ele>1565</ele>
        <time>2021-08-11T11:14:23.889Z</time>
      </trkpt>
      <trkpt lat="46.87436" lon="8.49686">
        <ele>1565</ele>
        <time>2021-08-11T11:14:24.890Z</time>
      </trkpt>
      <trkpt lat="46.87437" lon="8.49684">
        <ele>1564</ele>
        <time>2021-08-11T11:14:25.890Z</time>
      </trkpt>
      <trkpt lat="46.87437" lon="8.49685">
        <ele>1564</ele>
        <time>2021-08-11T11:14:26.889Z</time>
      </trkpt>
      <trkpt lat="46.87436" lon="8.49685">
        <ele>1564</ele>
        <time>2021-08-11T11:14:27.890Z</time>
      </trkpt>
      <trkpt lat="46.87438" lon="8.49682">
        <ele>1561</ele>
        <time>2021-08-11T11:14:28.890Z</time>
      </trkpt>
      <trkpt lat="46.87438" lon="8.49682">
        <ele>1561</ele>
        <time>2021-08-11T11:14:29.889Z</time>
      </trkpt>
      <trkpt lat="46.87437" lon="8.49683">
        <ele>1561</ele>
        <time>2021-08-11T11:14:30.889Z</time>
      </trkpt>
      <trkpt lat="46.87437" lon="8.49683">
        <ele>1561</ele>
        <time>2021-08-11T11:14:31.889Z</time>
      </trkpt>
      <trkpt lat="46.87436" lon="8.49683">
        <ele>1561</ele>
        <time>2021-08-11T11:14:32.889Z</time>
      </trkpt>
      <trkpt lat="46.87436" lon="8.49684">
        <ele>1560</ele>
        <time>2021-08-11T11:14:33.889Z</time>
      </trkpt>
      <trkpt lat="46.87436" lon="8.49684">
        <ele>1560</ele>
        <time>2021-08-11T11:14:41.020Z</time>
      </trkpt>
      <trkpt lat="46.87435" lon="8.49684">
        <ele>1559</ele>
        <time>2021-08-11T11:14:48.768Z</time>
      </trkpt>
      <trkpt lat="46.87435" lon="8.49685">
        <ele>1559</ele>
        <time>2021-08-11T11:14:49.768Z</time>
      </trkpt>
      <trkpt lat="46.87435" lon="8.49685">
        <ele>1559</ele>
        <time>2021-08-11T11:14:55.539Z</time>
      </trkpt>
      <trkpt lat="46.87435" lon="8.49685">
        <ele>1559</ele>
        <time>2021-08-11T11:14:56.539Z</time>
      </trkpt>
      <trkpt lat="46.87434" lon="8.49686">
        <ele>1559</ele>
        <time>2021-08-11T11:14:57.539Z</time>
      </trkpt>
      <trkpt lat="46.87435" lon="8.49686">
        <ele>1559</ele>
        <time>2021-08-11T11:14:58.540Z</time>
      </trkpt>
      <trkpt lat="46.87435" lon="8.49686">
        <ele>1560</ele>
        <time>2021-08-11T11:14:59.539Z</time>
      </trkpt>
      <trkpt lat="46.87435" lon="8.49686">
        <ele>1560</ele>
        <time>2021-08-11T11:15:00.539Z</time>
      </trkpt>
      <trkpt lat="46.87436" lon="8.49686">
        <ele>1560</ele>
        <time>2021-08-11T11:15:01.540Z</time>
      </trkpt>
      <trkpt lat="46.87436" lon="8.49686">
        <ele>1561</ele>
        <time>2021-08-11T11:15:02.540Z</time>
      </trkpt>
      <trkpt lat="46.87436" lon="8.49686">
        <ele>1561</ele>
        <time>2021-08-11T11:15:03.540Z</time>
      </trkpt>
      <trkpt lat="46.87436" lon="8.49686">
        <ele>1561</ele>
        <time>2021-08-11T11:15:04.539Z</time>
      </trkpt>
      <trkpt lat="46.87442" lon="8.49681">
        <ele>1564</ele>
        <time>2021-08-11T11:15:05.540Z</time>
      </trkpt>
      <trkpt lat="46.87446" lon="8.49677">
        <ele>1561</ele>
        <time>2021-08-11T11:15:06.540Z</time>
      </trkpt>
      <trkpt lat="46.87446" lon="8.49678">
        <ele>1561</ele>
        <time>2021-08-11T11:15:07.540Z</time>
      </trkpt>
      <trkpt lat="46.87447" lon="8.49678">
        <ele>1560</ele>
        <time>2021-08-11T11:15:08.540Z</time>
      </trkpt>
      <trkpt lat="46.87447" lon="8.49678">
        <ele>1560</ele>
        <time>2021-08-11T11:15:09.540Z</time>
      </trkpt>
      <trkpt lat="46.87446" lon="8.49678">
        <ele>1560</ele>
        <time>2021-08-11T11:15:10.539Z</time>
      </trkpt>
      <trkpt lat="46.87444" lon="8.4968">
        <ele>1559</ele>
        <time>2021-08-11T11:15:11.539Z</time>
      </trkpt>
      <trkpt lat="46.87443" lon="8.4968">
        <ele>1559</ele>
        <time>2021-08-11T11:15:12.540Z</time>
      </trkpt>
      <trkpt lat="46.87441" lon="8.49682">
        <ele>1564</ele>
        <time>2021-08-11T11:15:13.540Z</time>
      </trkpt>
      <trkpt lat="46.87441" lon="8.49682">
        <ele>1563</ele>
        <time>2021-08-11T11:15:14.541Z</time>
      </trkpt>
      <trkpt lat="46.8744" lon="8.49684">
        <ele>1560</ele>
        <time>2021-08-11T11:15:15.541Z</time>
      </trkpt>
      <trkpt lat="46.8744" lon="8.49684">
        <ele>1559</ele>
        <time>2021-08-11T11:15:16.541Z</time>
      </trkpt>
      <trkpt lat="46.8744" lon="8.49684">
        <ele>1559</ele>
        <time>2021-08-11T11:15:17.540Z</time>
      </trkpt>
      <trkpt lat="46.87439" lon="8.49684">
        <ele>1559</ele>
        <time>2021-08-11T11:15:18.541Z</time>
      </trkpt>
      <trkpt lat="46.87436" lon="8.49686">
        <ele>1561</ele>
        <time>2021-08-11T11:15:19.541Z</time>
      </trkpt>
      <trkpt lat="46.87436" lon="8.49685">
        <ele>1561</ele>
        <time>2021-08-11T11:15:20.541Z</time>
      </trkpt>
      <trkpt lat="46.87436" lon="8.49685">
        <ele>1561</ele>
        <time>2021-08-11T11:15:21.540Z</time>
      </trkpt>
      <trkpt lat="46.87436" lon="8.49686">
        <ele>1561</ele>
        <time>2021-08-11T11:15:22.541Z</time>
      </trkpt>
      <trkpt lat="46.87436" lon="8.49686">
        <ele>1561</ele>
        <time>2021-08-11T11:15:23.540Z</time>
      </trkpt>
      <trkpt lat="46.87437" lon="8.49686">
        <ele>1560</ele>
        <time>2021-08-11T11:15:24.541Z</time>
      </trkpt>
      <trkpt lat="46.87437" lon="8.49685">
        <ele>1559</ele>
        <time>2021-08-11T11:15:25.541Z</time>
      </trkpt>
      <trkpt lat="46.87437" lon="8.49685">
        <ele>1559</ele>
        <time>2021-08-11T11:15:26.541Z</time>
      </trkpt>
      <trkpt lat="46.87437" lon="8.49686">
        <ele>1558</ele>
        <time>2021-08-11T11:15:27.541Z</time>
      </trkpt>
      <trkpt lat="46.8744" lon="8.49681">
        <ele>1558</ele>
        <time>2021-08-11T11:15:28.543Z</time>
      </trkpt>
      <trkpt lat="46.8744" lon="8.4968">
        <ele>1559</ele>
        <time>2021-08-11T11:15:40.671Z</time>
      </trkpt>
      <trkpt lat="46.8744" lon="8.4968">
        <ele>1559</ele>
        <time>2021-08-11T11:15:41.671Z</time>
      </trkpt>
      <trkpt lat="46.87441" lon="8.49682">
        <ele>1560</ele>
        <time>2021-08-11T11:15:42.673Z</time>
      </trkpt>
      <trkpt lat="46.87441" lon="8.49682">
        <ele>1560</ele>
        <time>2021-08-11T11:15:43.672Z</time>
      </trkpt>
      <trkpt lat="46.87441" lon="8.49682">
        <ele>1560</ele>
        <time>2021-08-11T11:15:44.672Z</time>
      </trkpt>
      <trkpt lat="46.87442" lon="8.49681">
        <ele>1556</ele>
        <time>2021-08-11T11:15:45.675Z</time>
      </trkpt>
      <trkpt lat="46.87442" lon="8.49681">
        <ele>1555</ele>
        <time>2021-08-11T11:15:46.675Z</time>
      </trkpt>
      <trkpt lat="46.87443" lon="8.49681">
        <ele>1555</ele>
        <time>2021-08-11T11:15:47.675Z</time>
      </trkpt>
      <trkpt lat="46.87443" lon="8.4968">
        <ele>1555</ele>
        <time>2021-08-11T11:15:48.675Z</time>
      </trkpt>
      <trkpt lat="46.87442" lon="8.49681">
        <ele>1555</ele>
        <time>2021-08-11T11:15:49.675Z</time>
      </trkpt>
      <trkpt lat="46.87442" lon="8.49681">
        <ele>1555</ele>
        <time>2021-08-11T11:15:50.675Z</time>
      </trkpt>
      <trkpt lat="46.87442" lon="8.49682">
        <ele>1555</ele>
        <time>2021-08-11T11:15:51.675Z</time>
      </trkpt>
      <trkpt lat="46.87443" lon="8.49682">
        <ele>1555</ele>
        <time>2021-08-11T11:15:52.675Z</time>
      </trkpt>
      <trkpt lat="46.87441" lon="8.49683">
        <ele>1556</ele>
        <time>2021-08-11T11:15:53.677Z</time>
      </trkpt>
      <trkpt lat="46.87441" lon="8.49683">
        <ele>1556</ele>
        <time>2021-08-11T11:15:54.676Z</time>
      </trkpt>
      <trkpt lat="46.87441" lon="8.49684">
        <ele>1556</ele>
        <time>2021-08-11T11:15:55.676Z</time>
      </trkpt>
      <trkpt lat="46.87441" lon="8.49685">
        <ele>1557</ele>
        <time>2021-08-11T11:15:56.676Z</time>
      </trkpt>
      <trkpt lat="46.87441" lon="8.49685">
        <ele>1558</ele>
        <time>2021-08-11T11:15:57.676Z</time>
      </trkpt>
      <trkpt lat="46.87439" lon="8.49686">
        <ele>1559</ele>
        <time>2021-08-11T11:15:58.677Z</time>
      </trkpt>
      <trkpt lat="46.87439" lon="8.49687">
        <ele>1559</ele>
        <time>2021-08-11T11:15:59.677Z</time>
      </trkpt>
      <trkpt lat="46.87438" lon="8.49687">
        <ele>1559</ele>
        <time>2021-08-11T11:16:00.676Z</time>
      </trkpt>
      <trkpt lat="46.87438" lon="8.49688">
        <ele>1559</ele>
        <time>2021-08-11T11:16:01.677Z</time>
      </trkpt>
      <trkpt lat="46.87438" lon="8.49688">
        <ele>1560</ele>
        <time>2021-08-11T11:16:02.677Z</time>
      </trkpt>
      <trkpt lat="46.87437" lon="8.49688">
        <ele>1560</ele>
        <time>2021-08-11T11:16:03.678Z</time>
      </trkpt>
      <trkpt lat="46.87437" lon="8.49688">
        <ele>1560</ele>
        <time>2021-08-11T11:16:04.678Z</time>
      </trkpt>
      <trkpt lat="46.87436" lon="8.49688">
        <ele>1561</ele>
        <time>2021-08-11T11:16:05.677Z</time>
      </trkpt>
      <trkpt lat="46.87435" lon="8.49689">
        <ele>1561</ele>
        <time>2021-08-11T11:16:06.678Z</time>
      </trkpt>
      <trkpt lat="46.87435" lon="8.49689">
        <ele>1561</ele>
        <time>2021-08-11T11:16:07.677Z</time>
      </trkpt>
      <trkpt lat="46.87435" lon="8.49689">
        <ele>1561</ele>
        <time>2021-08-11T11:16:08.678Z</time>
      </trkpt>
      <trkpt lat="46.87435" lon="8.49688">
        <ele>1561</ele>
        <time>2021-08-11T11:16:09.677Z</time>
      </trkpt>
      <trkpt lat="46.87435" lon="8.49688">
        <ele>1561</ele>
        <time>2021-08-11T11:16:10.678Z</time>
      </trkpt>
      <trkpt lat="46.87436" lon="8.49688">
        <ele>1560</ele>
        <time>2021-08-11T11:16:11.678Z</time>
      </trkpt>
      <trkpt lat="46.87436" lon="8.49688">
        <ele>1560</ele>
        <time>2021-08-11T11:16:12.678Z</time>
      </trkpt>
      <trkpt lat="46.87437" lon="8.49688">
        <ele>1560</ele>
        <time>2021-08-11T11:16:13.677Z</time>
      </trkpt>
      <trkpt lat="46.87438" lon="8.49685">
        <ele>1558</ele>
        <time>2021-08-11T11:16:14.677Z</time>
      </trkpt>
      <trkpt lat="46.87438" lon="8.49685">
        <ele>1558</ele>
        <time>2021-08-11T11:16:15.677Z</time>
      </trkpt>
      <trkpt lat="46.87439" lon="8.49684">
        <ele>1556</ele>
        <time>2021-08-11T11:16:16.679Z</time>
      </trkpt>
      <trkpt lat="46.87439" lon="8.49684">
        <ele>1556</ele>
        <time>2021-08-11T11:16:17.679Z</time>
      </trkpt>
      <trkpt lat="46.87439" lon="8.49685">
        <ele>1556</ele>
        <time>2021-08-11T11:16:18.678Z</time>
      </trkpt>
      <trkpt lat="46.87439" lon="8.49686">
        <ele>1557</ele>
        <time>2021-08-11T11:16:19.679Z</time>
      </trkpt>
      <trkpt lat="46.87439" lon="8.49686">
        <ele>1557</ele>
        <time>2021-08-11T11:16:20.678Z</time>
      </trkpt>
      <trkpt lat="46.87438" lon="8.49687">
        <ele>1557</ele>
        <time>2021-08-11T11:16:21.679Z</time>
      </trkpt>
      <trkpt lat="46.87437" lon="8.49688">
        <ele>1557</ele>
        <time>2021-08-11T11:16:22.678Z</time>
      </trkpt>
      <trkpt lat="46.87436" lon="8.49689">
        <ele>1557</ele>
        <time>2021-08-11T11:16:23.679Z</time>
      </trkpt>
      <trkpt lat="46.87436" lon="8.49689">
        <ele>1558</ele>
        <time>2021-08-11T11:16:24.679Z</time>
      </trkpt>
      <trkpt lat="46.87436" lon="8.49689">
        <ele>1558</ele>
        <time>2021-08-11T11:16:25.679Z</time>
      </trkpt>
      <trkpt lat="46.87436" lon="8.49688">
        <ele>1558</ele>
        <time>2021-08-11T11:16:26.680Z</time>
      </trkpt>
      <trkpt lat="46.87436" lon="8.49688">
        <ele>1558</ele>
        <time>2021-08-11T11:16:27.680Z</time>
      </trkpt>
      <trkpt lat="46.87437" lon="8.49688">
        <ele>1559</ele>
        <time>2021-08-11T11:16:38.698Z</time>
      </trkpt>
      <trkpt lat="46.87437" lon="8.49688">
        <ele>1559</ele>
        <time>2021-08-11T11:16:39.698Z</time>
      </trkpt>
      <trkpt lat="46.87437" lon="8.49689">
        <ele>1559</ele>
        <time>2021-08-11T11:16:40.699Z</time>
      </trkpt>
      <trkpt lat="46.87437" lon="8.4969">
        <ele>1559</ele>
        <time>2021-08-11T11:16:41.698Z</time>
      </trkpt>
      <trkpt lat="46.87438" lon="8.49692">
        <ele>1566</ele>
        <time>2021-08-11T11:16:42.699Z</time>
      </trkpt>
      <trkpt lat="46.87438" lon="8.49693">
        <ele>1566</ele>
        <time>2021-08-11T11:16:43.699Z</time>
      </trkpt>
      <trkpt lat="46.87439" lon="8.49693">
        <ele>1567</ele>
        <time>2021-08-11T11:16:44.698Z</time>
      </trkpt>
      <trkpt lat="46.87439" lon="8.49693">
        <ele>1567</ele>
        <time>2021-08-11T11:16:45.699Z</time>
      </trkpt>
      <trkpt lat="46.87438" lon="8.49694">
        <ele>1567</ele>
        <time>2021-08-11T11:16:46.699Z</time>
      </trkpt>
      <trkpt lat="46.87439" lon="8.49694">
        <ele>1567</ele>
        <time>2021-08-11T11:16:47.699Z</time>
      </trkpt>
      <trkpt lat="46.87438" lon="8.49694">
        <ele>1569</ele>
        <time>2021-08-11T11:16:48.699Z</time>
      </trkpt>
      <trkpt lat="46.87438" lon="8.49694">
        <ele>1569</ele>
        <time>2021-08-11T11:16:49.700Z</time>
      </trkpt>
      <trkpt lat="46.87438" lon="8.49694">
        <ele>1569</ele>
        <time>2021-08-11T11:16:50.699Z</time>
      </trkpt>
      <trkpt lat="46.87438" lon="8.49694">
        <ele>1568</ele>
        <time>2021-08-11T11:16:51.699Z</time>
      </trkpt>
      <trkpt lat="46.87439" lon="8.49694">
        <ele>1568</ele>
        <time>2021-08-11T11:16:52.700Z</time>
      </trkpt>
      <trkpt lat="46.87439" lon="8.49695">
        <ele>1568</ele>
        <time>2021-08-11T11:16:53.700Z</time>
      </trkpt>
      <trkpt lat="46.87439" lon="8.49695">
        <ele>1568</ele>
        <time>2021-08-11T11:16:54.700Z</time>
      </trkpt>
      <trkpt lat="46.87439" lon="8.49695">
        <ele>1568</ele>
        <time>2021-08-11T11:16:55.699Z</time>
      </trkpt>
      <trkpt lat="46.87439" lon="8.49696">
        <ele>1568</ele>
        <time>2021-08-11T11:16:56.700Z</time>
      </trkpt>
      <trkpt lat="46.87439" lon="8.49696">
        <ele>1568</ele>
        <time>2021-08-11T11:16:57.700Z</time>
      </trkpt>
      <trkpt lat="46.87439" lon="8.49696">
        <ele>1568</ele>
        <time>2021-08-11T11:16:58.701Z</time>
      </trkpt>
      <trkpt lat="46.87439" lon="8.49695">
        <ele>1568</ele>
        <time>2021-08-11T11:16:59.701Z</time>
      </trkpt>
      <trkpt lat="46.87439" lon="8.49695">
        <ele>1567</ele>
        <time>2021-08-11T11:17:00.700Z</time>
      </trkpt>
      <trkpt lat="46.87439" lon="8.49694">
        <ele>1567</ele>
        <time>2021-08-11T11:17:01.701Z</time>
      </trkpt>
      <trkpt lat="46.8744" lon="8.4969">
        <ele>1565</ele>
        <time>2021-08-11T11:17:02.702Z</time>
      </trkpt>
      <trkpt lat="46.8744" lon="8.4969">
        <ele>1564</ele>
        <time>2021-08-11T11:17:03.702Z</time>
      </trkpt>
      <trkpt lat="46.8744" lon="8.4969">
        <ele>1563</ele>
        <time>2021-08-11T11:17:04.702Z</time>
      </trkpt>
      <trkpt lat="46.8744" lon="8.4969">
        <ele>1563</ele>
        <time>2021-08-11T11:17:05.702Z</time>
      </trkpt>
      <trkpt lat="46.8744" lon="8.4969">
        <ele>1562</ele>
        <time>2021-08-11T11:17:06.702Z</time>
      </trkpt>
      <trkpt lat="46.87439" lon="8.49688">
        <ele>1560</ele>
        <time>2021-08-11T11:17:07.703Z</time>
      </trkpt>
      <trkpt lat="46.87439" lon="8.49686">
        <ele>1562</ele>
        <time>2021-08-11T11:17:08.702Z</time>
      </trkpt>
      <trkpt lat="46.8744" lon="8.49686">
        <ele>1563</ele>
        <time>2021-08-11T11:17:09.703Z</time>
      </trkpt>
      <trkpt lat="46.87443" lon="8.49687">
        <ele>1563</ele>
        <time>2021-08-11T11:17:10.704Z</time>
      </trkpt>
      <trkpt lat="46.87444" lon="8.49686">
        <ele>1564</ele>
        <time>2021-08-11T11:17:11.704Z</time>
      </trkpt>
      <trkpt lat="46.87444" lon="8.49686">
        <ele>1564</ele>
        <time>2021-08-11T11:17:12.703Z</time>
      </trkpt>
      <trkpt lat="46.87444" lon="8.49685">
        <ele>1565</ele>
        <time>2021-08-11T11:17:13.704Z</time>
      </trkpt>
      <trkpt lat="46.87443" lon="8.49687">
        <ele>1565</ele>
        <time>2021-08-11T11:17:14.705Z</time>
      </trkpt>
      <trkpt lat="46.87443" lon="8.49687">
        <ele>1565</ele>
        <time>2021-08-11T11:17:15.704Z</time>
      </trkpt>
      <trkpt lat="46.87438" lon="8.49686">
        <ele>1560</ele>
        <time>2021-08-11T11:17:16.705Z</time>
      </trkpt>
      <trkpt lat="46.87439" lon="8.49688">
        <ele>1561</ele>
        <time>2021-08-11T11:17:17.706Z</time>
      </trkpt>
      <trkpt lat="46.87439" lon="8.49688">
        <ele>1561</ele>
        <time>2021-08-11T11:17:18.705Z</time>
      </trkpt>
      <trkpt lat="46.87437" lon="8.49685">
        <ele>1560</ele>
        <time>2021-08-11T11:17:19.706Z</time>
      </trkpt>
      <trkpt lat="46.87437" lon="8.49686">
        <ele>1560</ele>
        <time>2021-08-11T11:17:20.705Z</time>
      </trkpt>
      <trkpt lat="46.87437" lon="8.49686">
        <ele>1561</ele>
        <time>2021-08-11T11:17:21.705Z</time>
      </trkpt>
      <trkpt lat="46.87437" lon="8.49686">
        <ele>1561</ele>
        <time>2021-08-11T11:17:22.706Z</time>
      </trkpt>
      <trkpt lat="46.87433" lon="8.49681">
        <ele>1563</ele>
        <time>2021-08-11T11:17:23.705Z</time>
      </trkpt>
      <trkpt lat="46.87433" lon="8.49681">
        <ele>1563</ele>
        <time>2021-08-11T11:17:24.705Z</time>
      </trkpt>
      <trkpt lat="46.87432" lon="8.49682">
        <ele>1562</ele>
        <time>2021-08-11T11:17:25.705Z</time>
      </trkpt>
      <trkpt lat="46.87432" lon="8.49683">
        <ele>1562</ele>
        <time>2021-08-11T11:17:26.705Z</time>
      </trkpt>
      <trkpt lat="46.87432" lon="8.49683">
        <ele>1562</ele>
        <time>2021-08-11T11:17:27.706Z</time>
      </trkpt>
      <trkpt lat="46.87432" lon="8.49683">
        <ele>1562</ele>
        <time>2021-08-11T11:17:28.706Z</time>
      </trkpt>
      <trkpt lat="46.87433" lon="8.49682">
        <ele>1561</ele>
        <time>2021-08-11T11:17:29.706Z</time>
      </trkpt>
      <trkpt lat="46.87434" lon="8.49682">
        <ele>1561</ele>
        <time>2021-08-11T11:17:30.706Z</time>
      </trkpt>
      <trkpt lat="46.87434" lon="8.49682">
        <ele>1561</ele>
        <time>2021-08-11T11:17:34.830Z</time>
      </trkpt>
      <trkpt lat="46.87435" lon="8.4968">
        <ele>1559</ele>
        <time>2021-08-11T11:17:35.832Z</time>
      </trkpt>
      <trkpt lat="46.87435" lon="8.4968">
        <ele>1558</ele>
        <time>2021-08-11T11:17:36.832Z</time>
      </trkpt>
      <trkpt lat="46.87436" lon="8.49679">
        <ele>1558</ele>
        <time>2021-08-11T11:17:37.831Z</time>
      </trkpt>
      <trkpt lat="46.87436" lon="8.49679">
        <ele>1557</ele>
        <time>2021-08-11T11:17:40.922Z</time>
      </trkpt>
      <trkpt lat="46.87437" lon="8.49679">
        <ele>1557</ele>
        <time>2021-08-11T11:17:41.922Z</time>
      </trkpt>
      <trkpt lat="46.87437" lon="8.49679">
        <ele>1556</ele>
        <time>2021-08-11T11:17:42.923Z</time>
      </trkpt>
      <trkpt lat="46.87437" lon="8.49679">
        <ele>1556</ele>
        <time>2021-08-11T11:17:43.923Z</time>
      </trkpt>
      <trkpt lat="46.87438" lon="8.49678">
        <ele>1556</ele>
        <time>2021-08-11T11:17:44.922Z</time>
      </trkpt>
      <trkpt lat="46.87438" lon="8.49679">
        <ele>1556</ele>
        <time>2021-08-11T11:17:45.922Z</time>
      </trkpt>
      <trkpt lat="46.87439" lon="8.49679">
        <ele>1556</ele>
        <time>2021-08-11T11:17:46.923Z</time>
      </trkpt>
      <trkpt lat="46.87439" lon="8.4968">
        <ele>1557</ele>
        <time>2021-08-11T11:17:47.923Z</time>
      </trkpt>
      <trkpt lat="46.8744" lon="8.4968">
        <ele>1557</ele>
        <time>2021-08-11T11:17:48.923Z</time>
      </trkpt>
      <trkpt lat="46.87439" lon="8.49683">
        <ele>1563</ele>
        <time>2021-08-11T11:17:49.924Z</time>
      </trkpt>
      <trkpt lat="46.8744" lon="8.49683">
        <ele>1563</ele>
        <time>2021-08-11T11:17:50.923Z</time>
      </trkpt>
      <trkpt lat="46.8744" lon="8.49683">
        <ele>1565</ele>
        <time>2021-08-11T11:17:51.924Z</time>
      </trkpt>
      <trkpt lat="46.8744" lon="8.49682">
        <ele>1565</ele>
        <time>2021-08-11T11:17:52.925Z</time>
      </trkpt>
      <trkpt lat="46.8744" lon="8.49682">
        <ele>1565</ele>
        <time>2021-08-11T11:17:53.925Z</time>
      </trkpt>
      <trkpt lat="46.87441" lon="8.49683">
        <ele>1569</ele>
        <time>2021-08-11T11:17:54.926Z</time>
      </trkpt>
      <trkpt lat="46.87441" lon="8.49683">
        <ele>1569</ele>
        <time>2021-08-11T11:17:56.900Z</time>
      </trkpt>
      <trkpt lat="46.87441" lon="8.49682">
        <ele>1569</ele>
        <time>2021-08-11T11:17:57.899Z</time>
      </trkpt>
      <trkpt lat="46.87438" lon="8.49683">
        <ele>1562</ele>
        <time>2021-08-11T11:17:58.900Z</time>
      </trkpt>
      <trkpt lat="46.87438" lon="8.49683">
        <ele>1562</ele>
        <time>2021-08-11T11:18:05.917Z</time>
      </trkpt>
      <trkpt lat="46.87438" lon="8.49684">
        <ele>1560</ele>
        <time>2021-08-11T11:18:06.918Z</time>
      </trkpt>
      <trkpt lat="46.87439" lon="8.49684">
        <ele>1560</ele>
        <time>2021-08-11T11:18:10.689Z</time>
      </trkpt>
      <trkpt lat="46.87439" lon="8.49684">
        <ele>1560</ele>
        <time>2021-08-11T11:18:11.688Z</time>
      </trkpt>
      <trkpt lat="46.87439" lon="8.49683">
        <ele>1561</ele>
        <time>2021-08-11T11:18:12.688Z</time>
      </trkpt>
      <trkpt lat="46.87439" lon="8.49683">
        <ele>1561</ele>
        <time>2021-08-11T11:18:13.689Z</time>
      </trkpt>
      <trkpt lat="46.87439" lon="8.49683">
        <ele>1561</ele>
        <time>2021-08-11T11:18:14.688Z</time>
      </trkpt>
      <trkpt lat="46.87439" lon="8.49683">
        <ele>1561</ele>
        <time>2021-08-11T11:18:40.662Z</time>
      </trkpt>
      <trkpt lat="46.8744" lon="8.49684">
        <ele>1562</ele>
        <time>2021-08-11T11:18:50.441Z</time>
      </trkpt>
      <trkpt lat="46.87439" lon="8.49683">
        <ele>1564</ele>
        <time>2021-08-11T11:18:51.441Z</time>
      </trkpt>
      <trkpt lat="46.87439" lon="8.49684">
        <ele>1564</ele>
        <time>2021-08-11T11:18:52.441Z</time>
      </trkpt>
      <trkpt lat="46.87437" lon="8.49685">
        <ele>1561</ele>
        <time>2021-08-11T11:18:53.442Z</time>
      </trkpt>
      <trkpt lat="46.87437" lon="8.49688">
        <ele>1560</ele>
        <time>2021-08-11T11:18:54.442Z</time>
      </trkpt>
      <trkpt lat="46.87437" lon="8.49689">
        <ele>1560</ele>
        <time>2021-08-11T11:18:55.441Z</time>
      </trkpt>
      <trkpt lat="46.87437" lon="8.49688">
        <ele>1560</ele>
        <time>2021-08-11T11:18:56.441Z</time>
      </trkpt>
      <trkpt lat="46.87436" lon="8.49689">
        <ele>1560</ele>
        <time>2021-08-11T11:18:57.443Z</time>
      </trkpt>
      <trkpt lat="46.87436" lon="8.49688">
        <ele>1557</ele>
        <time>2021-08-11T11:18:58.442Z</time>
      </trkpt>
      <trkpt lat="46.87437" lon="8.49688">
        <ele>1557</ele>
        <time>2021-08-11T11:18:59.443Z</time>
      </trkpt>
      <trkpt lat="46.87437" lon="8.49687">
        <ele>1557</ele>
        <time>2021-08-11T11:19:00.442Z</time>
      </trkpt>
      <trkpt lat="46.87437" lon="8.49686">
        <ele>1556</ele>
        <time>2021-08-11T11:19:01.443Z</time>
      </trkpt>
      <trkpt lat="46.87437" lon="8.49687">
        <ele>1556</ele>
        <time>2021-08-11T11:19:02.443Z</time>
      </trkpt>
      <trkpt lat="46.87436" lon="8.49687">
        <ele>1556</ele>
        <time>2021-08-11T11:19:03.443Z</time>
      </trkpt>
      <trkpt lat="46.87436" lon="8.49687">
        <ele>1556</ele>
        <time>2021-08-11T11:19:04.442Z</time>
      </trkpt>
      <trkpt lat="46.87437" lon="8.49686">
        <ele>1555</ele>
        <time>2021-08-11T11:19:05.442Z</time>
      </trkpt>
      <trkpt lat="46.87434" lon="8.49686">
        <ele>1551</ele>
        <time>2021-08-11T11:19:06.442Z</time>
      </trkpt>
      <trkpt lat="46.87433" lon="8.49685">
        <ele>1550</ele>
        <time>2021-08-11T11:19:07.442Z</time>
      </trkpt>
      <trkpt lat="46.87433" lon="8.49685">
        <ele>1549</ele>
        <time>2021-08-11T11:19:08.442Z</time>
      </trkpt>
      <trkpt lat="46.87433" lon="8.49685">
        <ele>1548</ele>
        <time>2021-08-11T11:19:09.444Z</time>
      </trkpt>
      <trkpt lat="46.87433" lon="8.49685">
        <ele>1548</ele>
        <time>2021-08-11T11:19:10.444Z</time>
      </trkpt>
      <trkpt lat="46.87433" lon="8.49685">
        <ele>1549</ele>
        <time>2021-08-11T11:19:11.443Z</time>
      </trkpt>
      <trkpt lat="46.87436" lon="8.49684">
        <ele>1554</ele>
        <time>2021-08-11T11:19:12.444Z</time>
      </trkpt>
      <trkpt lat="46.87436" lon="8.49685">
        <ele>1555</ele>
        <time>2021-08-11T11:19:13.443Z</time>
      </trkpt>
      <trkpt lat="46.87437" lon="8.49685">
        <ele>1558</ele>
        <time>2021-08-11T11:19:14.443Z</time>
      </trkpt>
      <trkpt lat="46.87437" lon="8.49685">
        <ele>1558</ele>
        <time>2021-08-11T11:19:15.443Z</time>
      </trkpt>
      <trkpt lat="46.87437" lon="8.49685">
        <ele>1558</ele>
        <time>2021-08-11T11:19:16.443Z</time>
      </trkpt>
      <trkpt lat="46.87436" lon="8.49685">
        <ele>1556</ele>
        <time>2021-08-11T11:19:17.443Z</time>
      </trkpt>
      <trkpt lat="46.87436" lon="8.49685">
        <ele>1556</ele>
        <time>2021-08-11T11:19:18.443Z</time>
      </trkpt>
      <trkpt lat="46.87438" lon="8.49684">
        <ele>1557</ele>
        <time>2021-08-11T11:19:19.445Z</time>
      </trkpt>
      <trkpt lat="46.87438" lon="8.49685">
        <ele>1557</ele>
        <time>2021-08-11T11:19:20.445Z</time>
      </trkpt>
      <trkpt lat="46.87437" lon="8.49686">
        <ele>1557</ele>
        <time>2021-08-11T11:19:21.444Z</time>
      </trkpt>
      <trkpt lat="46.87437" lon="8.49686">
        <ele>1556</ele>
        <time>2021-08-11T11:19:29.594Z</time>
      </trkpt>
      <trkpt lat="46.87437" lon="8.49686">
        <ele>1556</ele>
        <time>2021-08-11T11:19:30.594Z</time>
      </trkpt>
      <trkpt lat="46.87437" lon="8.49686">
        <ele>1557</ele>
        <time>2021-08-11T11:19:31.595Z</time>
      </trkpt>
      <trkpt lat="46.87437" lon="8.49687">
        <ele>1557</ele>
        <time>2021-08-11T11:19:32.596Z</time>
      </trkpt>
      <trkpt lat="46.87437" lon="8.49687">
        <ele>1557</ele>
        <time>2021-08-11T11:19:33.596Z</time>
      </trkpt>
      <trkpt lat="46.87437" lon="8.49687">
        <ele>1556</ele>
        <time>2021-08-11T11:19:34.596Z</time>
      </trkpt>
      <trkpt lat="46.87437" lon="8.49687">
        <ele>1556</ele>
        <time>2021-08-11T11:19:35.596Z</time>
      </trkpt>
      <trkpt lat="46.87436" lon="8.49688">
        <ele>1554</ele>
        <time>2021-08-11T11:19:36.596Z</time>
      </trkpt>
      <trkpt lat="46.87435" lon="8.49688">
        <ele>1554</ele>
        <time>2021-08-11T11:19:37.597Z</time>
      </trkpt>
      <trkpt lat="46.87434" lon="8.49688">
        <ele>1553</ele>
        <time>2021-08-11T11:19:38.596Z</time>
      </trkpt>
      <trkpt lat="46.87434" lon="8.49688">
        <ele>1552</ele>
        <time>2021-08-11T11:19:39.597Z</time>
      </trkpt>
      <trkpt lat="46.87437" lon="8.49688">
        <ele>1556</ele>
        <time>2021-08-11T11:19:40.597Z</time>
      </trkpt>
      <trkpt lat="46.87439" lon="8.49688">
        <ele>1563</ele>
        <time>2021-08-11T11:19:41.599Z</time>
      </trkpt>
      <trkpt lat="46.87439" lon="8.49688">
        <ele>1563</ele>
        <time>2021-08-11T11:19:42.598Z</time>
      </trkpt>
      <trkpt lat="46.87439" lon="8.49686">
        <ele>1563</ele>
        <time>2021-08-11T11:19:43.599Z</time>
      </trkpt>
      <trkpt lat="46.87439" lon="8.49685">
        <ele>1563</ele>
        <time>2021-08-11T11:19:45.655Z</time>
      </trkpt>
      <trkpt lat="46.87438" lon="8.49684">
        <ele>1563</ele>
        <time>2021-08-11T11:19:46.654Z</time>
      </trkpt>
      <trkpt lat="46.87439" lon="8.49683">
        <ele>1563</ele>
        <time>2021-08-11T11:19:47.654Z</time>
      </trkpt>
      <trkpt lat="46.8744" lon="8.49683">
        <ele>1563</ele>
        <time>2021-08-11T11:19:48.654Z</time>
      </trkpt>
      <trkpt lat="46.8744" lon="8.49683">
        <ele>1564</ele>
        <time>2021-08-11T11:19:49.655Z</time>
      </trkpt>
      <trkpt lat="46.8744" lon="8.49683">
        <ele>1564</ele>
        <time>2021-08-11T11:19:50.655Z</time>
      </trkpt>
      <trkpt lat="46.87441" lon="8.49685">
        <ele>1561</ele>
        <time>2021-08-11T11:19:51.656Z</time>
      </trkpt>
      <trkpt lat="46.87441" lon="8.49685">
        <ele>1562</ele>
        <time>2021-08-11T11:19:52.656Z</time>
      </trkpt>
      <trkpt lat="46.87441" lon="8.49686">
        <ele>1563</ele>
        <time>2021-08-11T11:19:53.656Z</time>
      </trkpt>
      <trkpt lat="46.87441" lon="8.49687">
        <ele>1563</ele>
        <time>2021-08-11T11:19:54.655Z</time>
      </trkpt>
      <trkpt lat="46.87441" lon="8.49687">
        <ele>1563</ele>
        <time>2021-08-11T11:19:55.655Z</time>
      </trkpt>
      <trkpt lat="46.87444" lon="8.49688">
        <ele>1566</ele>
        <time>2021-08-11T11:19:56.655Z</time>
      </trkpt>
      <trkpt lat="46.87443" lon="8.49687">
        <ele>1566</ele>
        <time>2021-08-11T11:19:57.656Z</time>
      </trkpt>
      <trkpt lat="46.87442" lon="8.49687">
        <ele>1566</ele>
        <time>2021-08-11T11:19:58.656Z</time>
      </trkpt>
      <trkpt lat="46.87442" lon="8.49687">
        <ele>1566</ele>
        <time>2021-08-11T11:19:59.655Z</time>
      </trkpt>
      <trkpt lat="46.87441" lon="8.49687">
        <ele>1563</ele>
        <time>2021-08-11T11:20:05.675Z</time>
      </trkpt>
      <trkpt lat="46.87441" lon="8.49686">
        <ele>1562</ele>
        <time>2021-08-11T11:20:06.675Z</time>
      </trkpt>
      <trkpt lat="46.87442" lon="8.49685">
        <ele>1562</ele>
        <time>2021-08-11T11:20:07.675Z</time>
      </trkpt>
      <trkpt lat="46.8744" lon="8.49687">
        <ele>1564</ele>
        <time>2021-08-11T11:20:08.675Z</time>
      </trkpt>
      <trkpt lat="46.8744" lon="8.49688">
        <ele>1564</ele>
        <time>2021-08-11T11:20:21.679Z</time>
      </trkpt>
      <trkpt lat="46.8744" lon="8.49688">
        <ele>1564</ele>
        <time>2021-08-11T11:20:22.679Z</time>
      </trkpt>
      <trkpt lat="46.8744" lon="8.49688">
        <ele>1564</ele>
        <time>2021-08-11T11:20:23.679Z</time>
      </trkpt>
      <trkpt lat="46.8744" lon="8.49687">
        <ele>1563</ele>
        <time>2021-08-11T11:20:24.680Z</time>
      </trkpt>
      <trkpt lat="46.8744" lon="8.49687">
        <ele>1563</ele>
        <time>2021-08-11T11:20:25.679Z</time>
      </trkpt>
      <trkpt lat="46.8744" lon="8.49687">
        <ele>1563</ele>
        <time>2021-08-11T11:20:26.679Z</time>
      </trkpt>
      <trkpt lat="46.8744" lon="8.49687">
        <ele>1563</ele>
        <time>2021-08-11T11:20:27.680Z</time>
      </trkpt>
      <trkpt lat="46.87439" lon="8.49689">
        <ele>1562</ele>
        <time>2021-08-11T11:20:28.679Z</time>
      </trkpt>
      <trkpt lat="46.8744" lon="8.49689">
        <ele>1562</ele>
        <time>2021-08-11T11:20:29.679Z</time>
      </trkpt>
      <trkpt lat="46.8744" lon="8.49689">
        <ele>1562</ele>
        <time>2021-08-11T11:20:30.679Z</time>
      </trkpt>
      <trkpt lat="46.87441" lon="8.49689">
        <ele>1562</ele>
        <time>2021-08-11T11:20:38.720Z</time>
      </trkpt>
      <trkpt lat="46.87441" lon="8.49689">
        <ele>1563</ele>
        <time>2021-08-11T11:20:39.720Z</time>
      </trkpt>
      <trkpt lat="46.87441" lon="8.49689">
        <ele>1564</ele>
        <time>2021-08-11T11:20:40.720Z</time>
      </trkpt>
      <trkpt lat="46.87441" lon="8.49689">
        <ele>1564</ele>
        <time>2021-08-11T11:20:41.720Z</time>
      </trkpt>
      <trkpt lat="46.87441" lon="8.49689">
        <ele>1565</ele>
        <time>2021-08-11T11:20:43.840Z</time>
      </trkpt>
      <trkpt lat="46.87441" lon="8.49689">
        <ele>1565</ele>
        <time>2021-08-11T11:20:44.840Z</time>
      </trkpt>
      <trkpt lat="46.87441" lon="8.49689">
        <ele>1565</ele>
        <time>2021-08-11T11:20:45.840Z</time>
      </trkpt>
      <trkpt lat="46.87441" lon="8.49688">
        <ele>1565</ele>
        <time>2021-08-11T11:20:46.840Z</time>
      </trkpt>
      <trkpt lat="46.87442" lon="8.49687">
        <ele>1564</ele>
        <time>2021-08-11T11:20:47.840Z</time>
      </trkpt>
      <trkpt lat="46.87438" lon="8.49689">
        <ele>1565</ele>
        <time>2021-08-11T11:20:48.841Z</time>
      </trkpt>
      <trkpt lat="46.87437" lon="8.49688">
        <ele>1564</ele>
        <time>2021-08-11T11:20:50.910Z</time>
      </trkpt>
      <trkpt lat="46.87437" lon="8.49688">
        <ele>1563</ele>
        <time>2021-08-11T11:20:51.909Z</time>
      </trkpt>
      <trkpt lat="46.87439" lon="8.4969">
        <ele>1558</ele>
        <time>2021-08-11T11:20:52.911Z</time>
      </trkpt>
      <trkpt lat="46.87438" lon="8.49689">
        <ele>1557</ele>
        <time>2021-08-11T11:20:53.910Z</time>
      </trkpt>
      <trkpt lat="46.87439" lon="8.49689">
        <ele>1557</ele>
        <time>2021-08-11T11:20:54.910Z</time>
      </trkpt>
      <trkpt lat="46.8744" lon="8.49686">
        <ele>1560</ele>
        <time>2021-08-11T11:20:55.911Z</time>
      </trkpt>
      <trkpt lat="46.87441" lon="8.49686">
        <ele>1560</ele>
        <time>2021-08-11T11:20:56.911Z</time>
      </trkpt>
      <trkpt lat="46.87441" lon="8.49685">
        <ele>1561</ele>
        <time>2021-08-11T11:20:57.910Z</time>
      </trkpt>
      <trkpt lat="46.87441" lon="8.49685">
        <ele>1561</ele>
        <time>2021-08-11T11:20:58.911Z</time>
      </trkpt>
      <trkpt lat="46.87442" lon="8.49685">
        <ele>1562</ele>
        <time>2021-08-11T11:20:59.912Z</time>
      </trkpt>
      <trkpt lat="46.87443" lon="8.49685">
        <ele>1562</ele>
        <time>2021-08-11T11:21:00.913Z</time>
      </trkpt>
      <trkpt lat="46.87443" lon="8.49685">
        <ele>1562</ele>
        <time>2021-08-11T11:21:01.912Z</time>
      </trkpt>
      <trkpt lat="46.87443" lon="8.49684">
        <ele>1563</ele>
        <time>2021-08-11T11:21:44.922Z</time>
      </trkpt>
      <trkpt lat="46.87442" lon="8.49684">
        <ele>1563</ele>
        <time>2021-08-11T11:21:50.674Z</time>
      </trkpt>
      <trkpt lat="46.87442" lon="8.49684">
        <ele>1563</ele>
        <time>2021-08-11T11:21:51.674Z</time>
      </trkpt>
      <trkpt lat="46.87442" lon="8.49683">
        <ele>1563</ele>
        <time>2021-08-11T11:23:12.445Z</time>
      </trkpt>
      <trkpt lat="46.87443" lon="8.49682">
        <ele>1564</ele>
        <time>2021-08-11T11:23:13.446Z</time>
      </trkpt>
      <trkpt lat="46.87443" lon="8.49682">
        <ele>1564</ele>
        <time>2021-08-11T11:23:17.320Z</time>
      </trkpt>
      <trkpt lat="46.87443" lon="8.49681">
        <ele>1564</ele>
        <time>2021-08-11T11:23:18.320Z</time>
      </trkpt>
      <trkpt lat="46.87442" lon="8.49681">
        <ele>1564</ele>
        <time>2021-08-11T11:23:19.320Z</time>
      </trkpt>
      <trkpt lat="46.87442" lon="8.4968">
        <ele>1563</ele>
        <time>2021-08-11T11:23:20.320Z</time>
      </trkpt>
      <trkpt lat="46.87442" lon="8.4968">
        <ele>1563</ele>
        <time>2021-08-11T11:23:21.321Z</time>
      </trkpt>
      <trkpt lat="46.87443" lon="8.49679">
        <ele>1563</ele>
        <time>2021-08-11T11:23:22.321Z</time>
      </trkpt>
      <trkpt lat="46.87442" lon="8.49679">
        <ele>1562</ele>
        <time>2021-08-11T11:23:23.321Z</time>
      </trkpt>
      <trkpt lat="46.87442" lon="8.49678">
        <ele>1562</ele>
        <time>2021-08-11T11:23:24.321Z</time>
      </trkpt>
      <trkpt lat="46.87442" lon="8.49678">
        <ele>1562</ele>
        <time>2021-08-11T11:23:25.320Z</time>
      </trkpt>
      <trkpt lat="46.87443" lon="8.49678">
        <ele>1561</ele>
        <time>2021-08-11T11:23:26.321Z</time>
      </trkpt>
      <trkpt lat="46.87443" lon="8.49677">
        <ele>1561</ele>
        <time>2021-08-11T11:23:27.321Z</time>
      </trkpt>
      <trkpt lat="46.87444" lon="8.49677">
        <ele>1561</ele>
        <time>2021-08-11T11:23:28.321Z</time>
      </trkpt>
      <trkpt lat="46.87444" lon="8.49677">
        <ele>1562</ele>
        <time>2021-08-11T11:23:29.321Z</time>
      </trkpt>
      <trkpt lat="46.87445" lon="8.49676">
        <ele>1562</ele>
        <time>2021-08-11T11:23:30.321Z</time>
      </trkpt>
      <trkpt lat="46.87444" lon="8.49676">
        <ele>1563</ele>
        <time>2021-08-11T11:23:31.320Z</time>
      </trkpt>
      <trkpt lat="46.87444" lon="8.49676">
        <ele>1564</ele>
        <time>2021-08-11T11:23:32.320Z</time>
      </trkpt>
      <trkpt lat="46.87442" lon="8.49676">
        <ele>1563</ele>
        <time>2021-08-11T11:23:33.321Z</time>
      </trkpt>
      <trkpt lat="46.87443" lon="8.49676">
        <ele>1563</ele>
        <time>2021-08-11T11:23:34.322Z</time>
      </trkpt>
      <trkpt lat="46.87444" lon="8.49674">
        <ele>1568</ele>
        <time>2021-08-11T11:23:35.321Z</time>
      </trkpt>
      <trkpt lat="46.87444" lon="8.49673">
        <ele>1568</ele>
        <time>2021-08-11T11:23:36.322Z</time>
      </trkpt>
      <trkpt lat="46.87444" lon="8.49672">
        <ele>1567</ele>
        <time>2021-08-11T11:23:37.322Z</time>
      </trkpt>
      <trkpt lat="46.87444" lon="8.49671">
        <ele>1567</ele>
        <time>2021-08-11T11:23:38.322Z</time>
      </trkpt>
      <trkpt lat="46.87444" lon="8.49671">
        <ele>1567</ele>
        <time>2021-08-11T11:23:39.322Z</time>
      </trkpt>
      <trkpt lat="46.87444" lon="8.4967">
        <ele>1567</ele>
        <time>2021-08-11T11:23:40.322Z</time>
      </trkpt>
      <trkpt lat="46.87444" lon="8.49669">
        <ele>1566</ele>
        <time>2021-08-11T11:23:41.323Z</time>
      </trkpt>
      <trkpt lat="46.87445" lon="8.49669">
        <ele>1566</ele>
        <time>2021-08-11T11:23:42.323Z</time>
      </trkpt>
      <trkpt lat="46.87445" lon="8.49668">
        <ele>1566</ele>
        <time>2021-08-11T11:23:46.319Z</time>
      </trkpt>
      <trkpt lat="46.87445" lon="8.49668">
        <ele>1566</ele>
        <time>2021-08-11T11:23:47.320Z</time>
      </trkpt>
      <trkpt lat="46.87445" lon="8.49667">
        <ele>1566</ele>
        <time>2021-08-11T11:23:48.320Z</time>
      </trkpt>
      <trkpt lat="46.87446" lon="8.49667">
        <ele>1567</ele>
        <time>2021-08-11T11:23:49.320Z</time>
      </trkpt>
      <trkpt lat="46.87447" lon="8.49666">
        <ele>1567</ele>
        <time>2021-08-11T11:23:50.319Z</time>
      </trkpt>
      <trkpt lat="46.87447" lon="8.49666">
        <ele>1567</ele>
        <time>2021-08-11T11:23:51.320Z</time>
      </trkpt>
      <trkpt lat="46.87447" lon="8.49665">
        <ele>1567</ele>
        <time>2021-08-11T11:23:52.320Z</time>
      </trkpt>
      <trkpt lat="46.87448" lon="8.49665">
        <ele>1567</ele>
        <time>2021-08-11T11:23:53.319Z</time>
      </trkpt>
      <trkpt lat="46.87448" lon="8.49664">
        <ele>1566</ele>
        <time>2021-08-11T11:23:54.320Z</time>
      </trkpt>
      <trkpt lat="46.87448" lon="8.49664">
        <ele>1566</ele>
        <time>2021-08-11T11:23:55.320Z</time>
      </trkpt>
      <trkpt lat="46.87448" lon="8.49663">
        <ele>1565</ele>
        <time>2021-08-11T11:23:56.320Z</time>
      </trkpt>
      <trkpt lat="46.87448" lon="8.49663">
        <ele>1565</ele>
        <time>2021-08-11T11:23:57.319Z</time>
      </trkpt>
      <trkpt lat="46.87448" lon="8.49662">
        <ele>1565</ele>
        <time>2021-08-11T11:23:58.319Z</time>
      </trkpt>
      <trkpt lat="46.87449" lon="8.49662">
        <ele>1565</ele>
        <time>2021-08-11T11:23:59.319Z</time>
      </trkpt>
      <trkpt lat="46.87449" lon="8.49661">
        <ele>1565</ele>
        <time>2021-08-11T11:24:00.319Z</time>
      </trkpt>
      <trkpt lat="46.8745" lon="8.49661">
        <ele>1565</ele>
        <time>2021-08-11T11:24:01.319Z</time>
      </trkpt>
      <trkpt lat="46.87449" lon="8.49661">
        <ele>1565</ele>
        <time>2021-08-11T11:24:05.345Z</time>
      </trkpt>
      <trkpt lat="46.87449" lon="8.4966">
        <ele>1566</ele>
        <time>2021-08-11T11:24:06.346Z</time>
      </trkpt>
      <trkpt lat="46.87449" lon="8.49659">
        <ele>1566</ele>
        <time>2021-08-11T11:24:11.073Z</time>
      </trkpt>
      <trkpt lat="46.87449" lon="8.49659">
        <ele>1566</ele>
        <time>2021-08-11T11:24:12.072Z</time>
      </trkpt>
      <trkpt lat="46.87449" lon="8.49658">
        <ele>1566</ele>
        <time>2021-08-11T11:24:13.073Z</time>
      </trkpt>
      <trkpt lat="46.8745" lon="8.49658">
        <ele>1566</ele>
        <time>2021-08-11T11:24:16.181Z</time>
      </trkpt>
      <trkpt lat="46.87449" lon="8.49657">
        <ele>1566</ele>
        <time>2021-08-11T11:24:17.181Z</time>
      </trkpt>
      <trkpt lat="46.87449" lon="8.49657">
        <ele>1565</ele>
        <time>2021-08-11T11:24:18.181Z</time>
      </trkpt>
      <trkpt lat="46.87449" lon="8.49656">
        <ele>1564</ele>
        <time>2021-08-11T11:24:22.340Z</time>
      </trkpt>
      <trkpt lat="46.87448" lon="8.49655">
        <ele>1564</ele>
        <time>2021-08-11T11:24:26.076Z</time>
      </trkpt>
      <trkpt lat="46.87449" lon="8.49655">
        <ele>1563</ele>
        <time>2021-08-11T11:24:27.076Z</time>
      </trkpt>
      <trkpt lat="46.87449" lon="8.49654">
        <ele>1563</ele>
        <time>2021-08-11T11:24:35.825Z</time>
      </trkpt>
      <trkpt lat="46.87448" lon="8.49654">
        <ele>1562</ele>
        <time>2021-08-11T11:24:36.825Z</time>
      </trkpt>
      <trkpt lat="46.87448" lon="8.49653">
        <ele>1562</ele>
        <time>2021-08-11T11:24:37.825Z</time>
      </trkpt>
      <trkpt lat="46.87449" lon="8.49652">
        <ele>1562</ele>
        <time>2021-08-11T11:24:38.824Z</time>
      </trkpt>
      <trkpt lat="46.87449" lon="8.49652">
        <ele>1562</ele>
        <time>2021-08-11T11:24:39.825Z</time>
      </trkpt>
      <trkpt lat="46.87449" lon="8.49651">
        <ele>1562</ele>
        <time>2021-08-11T11:24:40.825Z</time>
      </trkpt>
      <trkpt lat="46.87449" lon="8.49651">
        <ele>1562</ele>
        <time>2021-08-11T11:24:41.825Z</time>
      </trkpt>
      <trkpt lat="46.87449" lon="8.4965">
        <ele>1563</ele>
        <time>2021-08-11T11:24:51.794Z</time>
      </trkpt>
      <trkpt lat="46.87449" lon="8.4965">
        <ele>1563</ele>
        <time>2021-08-11T11:24:52.793Z</time>
      </trkpt>
      <trkpt lat="46.8745" lon="8.49649">
        <ele>1564</ele>
        <time>2021-08-11T11:24:53.793Z</time>
      </trkpt>
      <trkpt lat="46.87451" lon="8.49648">
        <ele>1564</ele>
        <time>2021-08-11T11:24:54.793Z</time>
      </trkpt>
      <trkpt lat="46.87451" lon="8.49647">
        <ele>1563</ele>
        <time>2021-08-11T11:24:55.794Z</time>
      </trkpt>
      <trkpt lat="46.87451" lon="8.49647">
        <ele>1563</ele>
        <time>2021-08-11T11:24:56.794Z</time>
      </trkpt>
      <trkpt lat="46.87451" lon="8.49646">
        <ele>1563</ele>
        <time>2021-08-11T11:24:57.794Z</time>
      </trkpt>
      <trkpt lat="46.87451" lon="8.49645">
        <ele>1563</ele>
        <time>2021-08-11T11:24:58.794Z</time>
      </trkpt>
      <trkpt lat="46.87451" lon="8.49645">
        <ele>1564</ele>
        <time>2021-08-11T11:24:59.793Z</time>
      </trkpt>
      <trkpt lat="46.87451" lon="8.49644">
        <ele>1564</ele>
        <time>2021-08-11T11:25:00.794Z</time>
      </trkpt>
      <trkpt lat="46.87452" lon="8.49643">
        <ele>1564</ele>
        <time>2021-08-11T11:25:01.794Z</time>
      </trkpt>
      <trkpt lat="46.87452" lon="8.49643">
        <ele>1564</ele>
        <time>2021-08-11T11:25:02.793Z</time>
      </trkpt>
      <trkpt lat="46.87452" lon="8.49643">
        <ele>1564</ele>
        <time>2021-08-11T11:25:24.799Z</time>
      </trkpt>
      <trkpt lat="46.87453" lon="8.49642">
        <ele>1564</ele>
        <time>2021-08-11T11:25:25.799Z</time>
      </trkpt>
      <trkpt lat="46.87454" lon="8.49641">
        <ele>1565</ele>
        <time>2021-08-11T11:25:26.798Z</time>
      </trkpt>
      <trkpt lat="46.87455" lon="8.4964">
        <ele>1565</ele>
        <time>2021-08-11T11:25:27.799Z</time>
      </trkpt>
      <trkpt lat="46.87456" lon="8.4964">
        <ele>1566</ele>
        <time>2021-08-11T11:25:28.798Z</time>
      </trkpt>
      <trkpt lat="46.87456" lon="8.49639">
        <ele>1567</ele>
        <time>2021-08-11T11:25:45.927Z</time>
      </trkpt>
      <trkpt lat="46.87456" lon="8.49639">
        <ele>1567</ele>
        <time>2021-08-11T11:25:46.927Z</time>
      </trkpt>
      <trkpt lat="46.87456" lon="8.49638">
        <ele>1567</ele>
        <time>2021-08-11T11:25:47.926Z</time>
      </trkpt>
      <trkpt lat="46.87455" lon="8.49637">
        <ele>1567</ele>
        <time>2021-08-11T11:25:48.927Z</time>
      </trkpt>
      <trkpt lat="46.87455" lon="8.49636">
        <ele>1568</ele>
        <time>2021-08-11T11:25:49.927Z</time>
      </trkpt>
      <trkpt lat="46.87455" lon="8.49635">
        <ele>1568</ele>
        <time>2021-08-11T11:25:50.927Z</time>
      </trkpt>
      <trkpt lat="46.87456" lon="8.49634">
        <ele>1569</ele>
        <time>2021-08-11T11:25:51.927Z</time>
      </trkpt>
      <trkpt lat="46.87457" lon="8.49633">
        <ele>1570</ele>
        <time>2021-08-11T11:25:52.927Z</time>
      </trkpt>
      <trkpt lat="46.87458" lon="8.49633">
        <ele>1570</ele>
        <time>2021-08-11T11:25:53.927Z</time>
      </trkpt>
      <trkpt lat="46.87458" lon="8.49632">
        <ele>1571</ele>
        <time>2021-08-11T11:25:54.927Z</time>
      </trkpt>
      <trkpt lat="46.87458" lon="8.49632">
        <ele>1571</ele>
        <time>2021-08-11T11:25:55.927Z</time>
      </trkpt>
      <trkpt lat="46.87458" lon="8.49631">
        <ele>1571</ele>
        <time>2021-08-11T11:25:56.926Z</time>
      </trkpt>
      <trkpt lat="46.87458" lon="8.49631">
        <ele>1571</ele>
        <time>2021-08-11T11:25:57.926Z</time>
      </trkpt>
      <trkpt lat="46.87458" lon="8.4963">
        <ele>1571</ele>
        <time>2021-08-11T11:25:58.927Z</time>
      </trkpt>
      <trkpt lat="46.87458" lon="8.49629">
        <ele>1570</ele>
        <time>2021-08-11T11:25:59.927Z</time>
      </trkpt>
      <trkpt lat="46.87458" lon="8.49629">
        <ele>1570</ele>
        <time>2021-08-11T11:26:00.927Z</time>
      </trkpt>
      <trkpt lat="46.87459" lon="8.49628">
        <ele>1570</ele>
        <time>2021-08-11T11:26:02.910Z</time>
      </trkpt>
      <trkpt lat="46.87459" lon="8.49628">
        <ele>1570</ele>
        <time>2021-08-11T11:26:03.910Z</time>
      </trkpt>
      <trkpt lat="46.8746" lon="8.49627">
        <ele>1570</ele>
        <time>2021-08-11T11:26:04.910Z</time>
      </trkpt>
      <trkpt lat="46.8746" lon="8.49627">
        <ele>1570</ele>
        <time>2021-08-11T11:26:05.910Z</time>
      </trkpt>
      <trkpt lat="46.8746" lon="8.49626">
        <ele>1570</ele>
        <time>2021-08-11T11:26:06.910Z</time>
      </trkpt>
      <trkpt lat="46.87459" lon="8.49625">
        <ele>1570</ele>
        <time>2021-08-11T11:26:10.944Z</time>
      </trkpt>
      <trkpt lat="46.87458" lon="8.49625">
        <ele>1569</ele>
        <time>2021-08-11T11:26:11.944Z</time>
      </trkpt>
      <trkpt lat="46.87458" lon="8.49624">
        <ele>1569</ele>
        <time>2021-08-11T11:26:12.945Z</time>
      </trkpt>
      <trkpt lat="46.87459" lon="8.49623">
        <ele>1569</ele>
        <time>2021-08-11T11:26:18.087Z</time>
      </trkpt>
      <trkpt lat="46.87459" lon="8.49622">
        <ele>1569</ele>
        <time>2021-08-11T11:26:19.088Z</time>
      </trkpt>
      <trkpt lat="46.87459" lon="8.49622">
        <ele>1569</ele>
        <time>2021-08-11T11:26:21.818Z</time>
      </trkpt>
      <trkpt lat="46.8746" lon="8.49621">
        <ele>1568</ele>
        <time>2021-08-11T11:26:22.818Z</time>
      </trkpt>
      <trkpt lat="46.8746" lon="8.49621">
        <ele>1568</ele>
        <time>2021-08-11T11:26:23.818Z</time>
      </trkpt>
      <trkpt lat="46.8746" lon="8.4962">
        <ele>1569</ele>
        <time>2021-08-11T11:26:24.818Z</time>
      </trkpt>
      <trkpt lat="46.8746" lon="8.4962">
        <ele>1569</ele>
        <time>2021-08-11T11:26:25.817Z</time>
      </trkpt>
      <trkpt lat="46.8746" lon="8.4962">
        <ele>1569</ele>
        <time>2021-08-11T11:26:26.818Z</time>
      </trkpt>
      <trkpt lat="46.8746" lon="8.49619">
        <ele>1570</ele>
        <time>2021-08-11T11:26:27.818Z</time>
      </trkpt>
      <trkpt lat="46.8746" lon="8.49618">
        <ele>1570</ele>
        <time>2021-08-11T11:26:28.817Z</time>
      </trkpt>
      <trkpt lat="46.87459" lon="8.49618">
        <ele>1569</ele>
        <time>2021-08-11T11:26:29.818Z</time>
      </trkpt>
      <trkpt lat="46.87458" lon="8.49617">
        <ele>1569</ele>
        <time>2021-08-11T11:26:30.817Z</time>
      </trkpt>
      <trkpt lat="46.87458" lon="8.49616">
        <ele>1568</ele>
        <time>2021-08-11T11:26:31.818Z</time>
      </trkpt>
      <trkpt lat="46.87458" lon="8.49615">
        <ele>1568</ele>
        <time>2021-08-11T11:26:32.818Z</time>
      </trkpt>
      <trkpt lat="46.87458" lon="8.49614">
        <ele>1568</ele>
        <time>2021-08-11T11:26:33.818Z</time>
      </trkpt>
      <trkpt lat="46.87459" lon="8.49614">
        <ele>1568</ele>
        <time>2021-08-11T11:26:34.818Z</time>
      </trkpt>
      <trkpt lat="46.87459" lon="8.49613">
        <ele>1569</ele>
        <time>2021-08-11T11:26:35.818Z</time>
      </trkpt>
      <trkpt lat="46.87459" lon="8.49612">
        <ele>1569</ele>
        <time>2021-08-11T11:26:36.818Z</time>
      </trkpt>
      <trkpt lat="46.8746" lon="8.49612">
        <ele>1570</ele>
        <time>2021-08-11T11:26:37.817Z</time>
      </trkpt>
      <trkpt lat="46.8746" lon="8.49612">
        <ele>1571</ele>
        <time>2021-08-11T11:26:38.818Z</time>
      </trkpt>
      <trkpt lat="46.8746" lon="8.49611">
        <ele>1571</ele>
        <time>2021-08-11T11:26:39.818Z</time>
      </trkpt>
      <trkpt lat="46.87461" lon="8.49611">
        <ele>1572</ele>
        <time>2021-08-11T11:26:40.817Z</time>
      </trkpt>
      <trkpt lat="46.87461" lon="8.4961">
        <ele>1572</ele>
        <time>2021-08-11T11:26:41.818Z</time>
      </trkpt>
      <trkpt lat="46.87461" lon="8.49609">
        <ele>1572</ele>
        <time>2021-08-11T11:26:42.818Z</time>
      </trkpt>
      <trkpt lat="46.87461" lon="8.49609">
        <ele>1572</ele>
        <time>2021-08-11T11:26:43.817Z</time>
      </trkpt>
      <trkpt lat="46.87462" lon="8.49608">
        <ele>1573</ele>
        <time>2021-08-11T11:26:50.829Z</time>
      </trkpt>
      <trkpt lat="46.87462" lon="8.49607">
        <ele>1573</ele>
        <time>2021-08-11T11:26:51.829Z</time>
      </trkpt>
      <trkpt lat="46.87462" lon="8.49607">
        <ele>1573</ele>
        <time>2021-08-11T11:26:52.829Z</time>
      </trkpt>
      <trkpt lat="46.87462" lon="8.49606">
        <ele>1573</ele>
        <time>2021-08-11T11:26:53.829Z</time>
      </trkpt>
      <trkpt lat="46.87463" lon="8.49606">
        <ele>1574</ele>
        <time>2021-08-11T11:26:54.828Z</time>
      </trkpt>
      <trkpt lat="46.87463" lon="8.49605">
        <ele>1574</ele>
        <time>2021-08-11T11:26:55.829Z</time>
      </trkpt>
      <trkpt lat="46.87463" lon="8.49605">
        <ele>1574</ele>
        <time>2021-08-11T11:26:56.828Z</time>
      </trkpt>
      <trkpt lat="46.87463" lon="8.49604">
        <ele>1574</ele>
        <time>2021-08-11T11:26:57.829Z</time>
      </trkpt>
      <trkpt lat="46.87463" lon="8.49603">
        <ele>1575</ele>
        <time>2021-08-11T11:26:58.829Z</time>
      </trkpt>
      <trkpt lat="46.87464" lon="8.49603">
        <ele>1575</ele>
        <time>2021-08-11T11:26:59.829Z</time>
      </trkpt>
      <trkpt lat="46.87464" lon="8.49602">
        <ele>1575</ele>
        <time>2021-08-11T11:27:00.829Z</time>
      </trkpt>
      <trkpt lat="46.87465" lon="8.49602">
        <ele>1575</ele>
        <time>2021-08-11T11:27:01.828Z</time>
      </trkpt>
      <trkpt lat="46.87465" lon="8.49601">
        <ele>1575</ele>
        <time>2021-08-11T11:27:02.828Z</time>
      </trkpt>
      <trkpt lat="46.87465" lon="8.496">
        <ele>1575</ele>
        <time>2021-08-11T11:27:03.829Z</time>
      </trkpt>
      <trkpt lat="46.87465" lon="8.496">
        <ele>1574</ele>
        <time>2021-08-11T11:27:04.828Z</time>
      </trkpt>
      <trkpt lat="46.87466" lon="8.49599">
        <ele>1575</ele>
        <time>2021-08-11T11:27:05.829Z</time>
      </trkpt>
      <trkpt lat="46.87466" lon="8.49598">
        <ele>1575</ele>
        <time>2021-08-11T11:27:06.829Z</time>
      </trkpt>
      <trkpt lat="46.87467" lon="8.49597">
        <ele>1576</ele>
        <time>2021-08-11T11:27:07.829Z</time>
      </trkpt>
      <trkpt lat="46.87467" lon="8.49596">
        <ele>1576</ele>
        <time>2021-08-11T11:27:08.829Z</time>
      </trkpt>
      <trkpt lat="46.87467" lon="8.49596">
        <ele>1576</ele>
        <time>2021-08-11T11:27:09.829Z</time>
      </trkpt>
      <trkpt lat="46.87467" lon="8.49595">
        <ele>1576</ele>
        <time>2021-08-11T11:27:10.829Z</time>
      </trkpt>
      <trkpt lat="46.87467" lon="8.49595">
        <ele>1575</ele>
        <time>2021-08-11T11:27:11.829Z</time>
      </trkpt>
      <trkpt lat="46.87467" lon="8.49594">
        <ele>1575</ele>
        <time>2021-08-11T11:27:12.829Z</time>
      </trkpt>
      <trkpt lat="46.87466" lon="8.49593">
        <ele>1575</ele>
        <time>2021-08-11T11:27:13.829Z</time>
      </trkpt>
      <trkpt lat="46.87466" lon="8.49593">
        <ele>1575</ele>
        <time>2021-08-11T11:27:14.829Z</time>
      </trkpt>
      <trkpt lat="46.87466" lon="8.49592">
        <ele>1575</ele>
        <time>2021-08-11T11:27:15.829Z</time>
      </trkpt>
      <trkpt lat="46.87467" lon="8.49591">
        <ele>1574</ele>
        <time>2021-08-11T11:27:16.829Z</time>
      </trkpt>
      <trkpt lat="46.87467" lon="8.49591">
        <ele>1574</ele>
        <time>2021-08-11T11:27:17.829Z</time>
      </trkpt>
      <trkpt lat="46.87467" lon="8.4959">
        <ele>1574</ele>
        <time>2021-08-11T11:27:18.829Z</time>
      </trkpt>
      <trkpt lat="46.87467" lon="8.4959">
        <ele>1574</ele>
        <time>2021-08-11T11:27:19.828Z</time>
      </trkpt>
      <trkpt lat="46.87467" lon="8.49589">
        <ele>1574</ele>
        <time>2021-08-11T11:27:20.828Z</time>
      </trkpt>
      <trkpt lat="46.87466" lon="8.49588">
        <ele>1574</ele>
        <time>2021-08-11T11:27:22.912Z</time>
      </trkpt>
      <trkpt lat="46.87467" lon="8.49588">
        <ele>1574</ele>
        <time>2021-08-11T11:27:23.911Z</time>
      </trkpt>
      <trkpt lat="46.87465" lon="8.49587">
        <ele>1574</ele>
        <time>2021-08-11T11:27:24.912Z</time>
      </trkpt>
      <trkpt lat="46.87466" lon="8.49587">
        <ele>1574</ele>
        <time>2021-08-11T11:27:25.912Z</time>
      </trkpt>
      <trkpt lat="46.87466" lon="8.49586">
        <ele>1575</ele>
        <time>2021-08-11T11:27:26.912Z</time>
      </trkpt>
      <trkpt lat="46.87467" lon="8.49585">
        <ele>1575</ele>
        <time>2021-08-11T11:27:27.912Z</time>
      </trkpt>
      <trkpt lat="46.87468" lon="8.49585">
        <ele>1576</ele>
        <time>2021-08-11T11:27:28.912Z</time>
      </trkpt>
      <trkpt lat="46.87468" lon="8.49584">
        <ele>1576</ele>
        <time>2021-08-11T11:27:29.912Z</time>
      </trkpt>
      <trkpt lat="46.87469" lon="8.49584">
        <ele>1576</ele>
        <time>2021-08-11T11:27:30.912Z</time>
      </trkpt>
      <trkpt lat="46.87469" lon="8.49583">
        <ele>1577</ele>
        <time>2021-08-11T11:27:32.907Z</time>
      </trkpt>
      <trkpt lat="46.87469" lon="8.49582">
        <ele>1577</ele>
        <time>2021-08-11T11:27:33.907Z</time>
      </trkpt>
      <trkpt lat="46.87469" lon="8.49581">
        <ele>1577</ele>
        <time>2021-08-11T11:27:37.697Z</time>
      </trkpt>
      <trkpt lat="46.8747" lon="8.49581">
        <ele>1578</ele>
        <time>2021-08-11T11:27:38.698Z</time>
      </trkpt>
      <trkpt lat="46.8747" lon="8.4958">
        <ele>1578</ele>
        <time>2021-08-11T11:27:39.698Z</time>
      </trkpt>
      <trkpt lat="46.87471" lon="8.49579">
        <ele>1579</ele>
        <time>2021-08-11T11:27:40.698Z</time>
      </trkpt>
      <trkpt lat="46.87472" lon="8.49578">
        <ele>1579</ele>
        <time>2021-08-11T11:27:41.698Z</time>
      </trkpt>
      <trkpt lat="46.87471" lon="8.49578">
        <ele>1579</ele>
        <time>2021-08-11T11:27:42.697Z</time>
      </trkpt>
      <trkpt lat="46.8747" lon="8.49577">
        <ele>1579</ele>
        <time>2021-08-11T11:27:43.698Z</time>
      </trkpt>
      <trkpt lat="46.87469" lon="8.49576">
        <ele>1579</ele>
        <time>2021-08-11T11:28:08.798Z</time>
      </trkpt>
      <trkpt lat="46.87469" lon="8.49575">
        <ele>1579</ele>
        <time>2021-08-11T11:28:09.798Z</time>
      </trkpt>
      <trkpt lat="46.8747" lon="8.49574">
        <ele>1579</ele>
        <time>2021-08-11T11:28:10.797Z</time>
      </trkpt>
      <trkpt lat="46.8747" lon="8.49573">
        <ele>1579</ele>
        <time>2021-08-11T11:28:11.798Z</time>
      </trkpt>
      <trkpt lat="46.8747" lon="8.49572">
        <ele>1579</ele>
        <time>2021-08-11T11:28:12.797Z</time>
      </trkpt>
      <trkpt lat="46.8747" lon="8.49571">
        <ele>1579</ele>
        <time>2021-08-11T11:28:13.797Z</time>
      </trkpt>
      <trkpt lat="46.8747" lon="8.49571">
        <ele>1579</ele>
        <time>2021-08-11T11:28:14.798Z</time>
      </trkpt>
      <trkpt lat="46.87471" lon="8.4957">
        <ele>1579</ele>
        <time>2021-08-11T11:28:15.798Z</time>
      </trkpt>
      <trkpt lat="46.87472" lon="8.49569">
        <ele>1579</ele>
        <time>2021-08-11T11:28:16.798Z</time>
      </trkpt>
      <trkpt lat="46.87472" lon="8.49568">
        <ele>1579</ele>
        <time>2021-08-11T11:28:17.798Z</time>
      </trkpt>
      <trkpt lat="46.87473" lon="8.49567">
        <ele>1580</ele>
        <time>2021-08-11T11:28:18.797Z</time>
      </trkpt>
      <trkpt lat="46.87473" lon="8.49566">
        <ele>1580</ele>
        <time>2021-08-11T11:28:19.798Z</time>
      </trkpt>
      <trkpt lat="46.87474" lon="8.49566">
        <ele>1580</ele>
        <time>2021-08-11T11:28:20.798Z</time>
      </trkpt>
      <trkpt lat="46.87474" lon="8.49565">
        <ele>1581</ele>
        <time>2021-08-11T11:28:21.798Z</time>
      </trkpt>
      <trkpt lat="46.87475" lon="8.49564">
        <ele>1581</ele>
        <time>2021-08-11T11:28:22.798Z</time>
      </trkpt>
      <trkpt lat="46.87475" lon="8.49564">
        <ele>1581</ele>
        <time>2021-08-11T11:28:23.798Z</time>
      </trkpt>
      <trkpt lat="46.87476" lon="8.49563">
        <ele>1582</ele>
        <time>2021-08-11T11:28:24.798Z</time>
      </trkpt>
      <trkpt lat="46.87477" lon="8.49562">
        <ele>1583</ele>
        <time>2021-08-11T11:28:25.797Z</time>
      </trkpt>
      <trkpt lat="46.87478" lon="8.49561">
        <ele>1583</ele>
        <time>2021-08-11T11:28:26.797Z</time>
      </trkpt>
      <trkpt lat="46.87478" lon="8.4956">
        <ele>1584</ele>
        <time>2021-08-11T11:28:27.797Z</time>
      </trkpt>
      <trkpt lat="46.87478" lon="8.49559">
        <ele>1584</ele>
        <time>2021-08-11T11:28:28.797Z</time>
      </trkpt>
      <trkpt lat="46.87478" lon="8.49558">
        <ele>1584</ele>
        <time>2021-08-11T11:28:29.797Z</time>
      </trkpt>
      <trkpt lat="46.87479" lon="8.49558">
        <ele>1584</ele>
        <time>2021-08-11T11:28:30.798Z</time>
      </trkpt>
      <trkpt lat="46.8748" lon="8.49557">
        <ele>1585</ele>
        <time>2021-08-11T11:28:31.798Z</time>
      </trkpt>
      <trkpt lat="46.8748" lon="8.49556">
        <ele>1585</ele>
        <time>2021-08-11T11:28:32.798Z</time>
      </trkpt>
      <trkpt lat="46.8748" lon="8.49555">
        <ele>1585</ele>
        <time>2021-08-11T11:28:33.797Z</time>
      </trkpt>
      <trkpt lat="46.8748" lon="8.49554">
        <ele>1585</ele>
        <time>2021-08-11T11:28:34.798Z</time>
      </trkpt>
      <trkpt lat="46.87481" lon="8.49553">
        <ele>1586</ele>
        <time>2021-08-11T11:28:35.798Z</time>
      </trkpt>
      <trkpt lat="46.87481" lon="8.49552">
        <ele>1586</ele>
        <time>2021-08-11T11:28:36.798Z</time>
      </trkpt>
      <trkpt lat="46.87482" lon="8.49551">
        <ele>1586</ele>
        <time>2021-08-11T11:28:37.798Z</time>
      </trkpt>
      <trkpt lat="46.87483" lon="8.4955">
        <ele>1587</ele>
        <time>2021-08-11T11:28:38.798Z</time>
      </trkpt>
      <trkpt lat="46.87483" lon="8.49549">
        <ele>1588</ele>
        <time>2021-08-11T11:28:39.798Z</time>
      </trkpt>
      <trkpt lat="46.87483" lon="8.49549">
        <ele>1588</ele>
        <time>2021-08-11T11:28:50.800Z</time>
      </trkpt>
      <trkpt lat="46.87483" lon="8.49548">
        <ele>1588</ele>
        <time>2021-08-11T11:28:51.801Z</time>
      </trkpt>
      <trkpt lat="46.87484" lon="8.49547">
        <ele>1589</ele>
        <time>2021-08-11T11:28:52.801Z</time>
      </trkpt>
      <trkpt lat="46.87484" lon="8.49546">
        <ele>1589</ele>
        <time>2021-08-11T11:28:53.801Z</time>
      </trkpt>
      <trkpt lat="46.87483" lon="8.49545">
        <ele>1589</ele>
        <time>2021-08-11T11:28:54.801Z</time>
      </trkpt>
      <trkpt lat="46.87483" lon="8.49544">
        <ele>1588</ele>
        <time>2021-08-11T11:28:55.800Z</time>
      </trkpt>
      <trkpt lat="46.87482" lon="8.49544">
        <ele>1587</ele>
        <time>2021-08-11T11:28:56.800Z</time>
      </trkpt>
      <trkpt lat="46.87482" lon="8.49543">
        <ele>1587</ele>
        <time>2021-08-11T11:28:57.801Z</time>
      </trkpt>
      <trkpt lat="46.87482" lon="8.49542">
        <ele>1586</ele>
        <time>2021-08-11T11:29:02.960Z</time>
      </trkpt>
      <trkpt lat="46.87482" lon="8.49541">
        <ele>1586</ele>
        <time>2021-08-11T11:29:03.961Z</time>
      </trkpt>
      <trkpt lat="46.87481" lon="8.4954">
        <ele>1586</ele>
        <time>2021-08-11T11:29:04.961Z</time>
      </trkpt>
      <trkpt lat="46.87481" lon="8.49539">
        <ele>1586</ele>
        <time>2021-08-11T11:29:05.961Z</time>
      </trkpt>
      <trkpt lat="46.87481" lon="8.49538">
        <ele>1586</ele>
        <time>2021-08-11T11:29:06.961Z</time>
      </trkpt>
      <trkpt lat="46.8748" lon="8.49537">
        <ele>1585</ele>
        <time>2021-08-11T11:29:07.961Z</time>
      </trkpt>
      <trkpt lat="46.87481" lon="8.49537">
        <ele>1585</ele>
        <time>2021-08-11T11:29:08.961Z</time>
      </trkpt>
      <trkpt lat="46.87481" lon="8.49536">
        <ele>1585</ele>
        <time>2021-08-11T11:29:09.961Z</time>
      </trkpt>
      <trkpt lat="46.87481" lon="8.49535">
        <ele>1585</ele>
        <time>2021-08-11T11:29:10.961Z</time>
      </trkpt>
      <trkpt lat="46.87482" lon="8.49534">
        <ele>1585</ele>
        <time>2021-08-11T11:29:11.961Z</time>
      </trkpt>
      <trkpt lat="46.87482" lon="8.49533">
        <ele>1585</ele>
        <time>2021-08-11T11:29:12.961Z</time>
      </trkpt>
      <trkpt lat="46.87482" lon="8.49532">
        <ele>1585</ele>
        <time>2021-08-11T11:29:13.961Z</time>
      </trkpt>
      <trkpt lat="46.87482" lon="8.49531">
        <ele>1586</ele>
        <time>2021-08-11T11:29:14.960Z</time>
      </trkpt>
      <trkpt lat="46.87483" lon="8.49531">
        <ele>1586</ele>
        <time>2021-08-11T11:29:15.960Z</time>
      </trkpt>
      <trkpt lat="46.87483" lon="8.4953">
        <ele>1587</ele>
        <time>2021-08-11T11:29:16.961Z</time>
      </trkpt>
      <trkpt lat="46.87483" lon="8.49529">
        <ele>1587</ele>
        <time>2021-08-11T11:29:17.961Z</time>
      </trkpt>
      <trkpt lat="46.87483" lon="8.49528">
        <ele>1587</ele>
        <time>2021-08-11T11:29:18.961Z</time>
      </trkpt>
      <trkpt lat="46.87483" lon="8.49527">
        <ele>1587</ele>
        <time>2021-08-11T11:29:21.049Z</time>
      </trkpt>
      <trkpt lat="46.87482" lon="8.49526">
        <ele>1587</ele>
        <time>2021-08-11T11:29:22.050Z</time>
      </trkpt>
      <trkpt lat="46.87481" lon="8.49525">
        <ele>1587</ele>
        <time>2021-08-11T11:29:23.050Z</time>
      </trkpt>
      <trkpt lat="46.87479" lon="8.49524">
        <ele>1587</ele>
        <time>2021-08-11T11:29:24.050Z</time>
      </trkpt>
      <trkpt lat="46.87479" lon="8.49523">
        <ele>1587</ele>
        <time>2021-08-11T11:29:25.050Z</time>
      </trkpt>
      <trkpt lat="46.87479" lon="8.49522">
        <ele>1587</ele>
        <time>2021-08-11T11:29:26.049Z</time>
      </trkpt>
      <trkpt lat="46.87479" lon="8.49521">
        <ele>1586</ele>
        <time>2021-08-11T11:29:27.050Z</time>
      </trkpt>
      <trkpt lat="46.87479" lon="8.4952">
        <ele>1586</ele>
        <time>2021-08-11T11:29:28.050Z</time>
      </trkpt>
      <trkpt lat="46.87479" lon="8.4952">
        <ele>1585</ele>
        <time>2021-08-11T11:29:29.049Z</time>
      </trkpt>
      <trkpt lat="46.87478" lon="8.49519">
        <ele>1585</ele>
        <time>2021-08-11T11:29:30.050Z</time>
      </trkpt>
      <trkpt lat="46.87478" lon="8.49518">
        <ele>1584</ele>
        <time>2021-08-11T11:29:31.050Z</time>
      </trkpt>
      <trkpt lat="46.87477" lon="8.49517">
        <ele>1583</ele>
        <time>2021-08-11T11:29:32.050Z</time>
      </trkpt>
      <trkpt lat="46.87476" lon="8.49517">
        <ele>1583</ele>
        <time>2021-08-11T11:29:33.050Z</time>
      </trkpt>
      <trkpt lat="46.87476" lon="8.49516">
        <ele>1582</ele>
        <time>2021-08-11T11:29:34.049Z</time>
      </trkpt>
      <trkpt lat="46.87475" lon="8.49515">
        <ele>1581</ele>
        <time>2021-08-11T11:29:35.049Z</time>
      </trkpt>
      <trkpt lat="46.87474" lon="8.49515">
        <ele>1581</ele>
        <time>2021-08-11T11:29:36.050Z</time>
      </trkpt>
      <trkpt lat="46.87474" lon="8.49514">
        <ele>1580</ele>
        <time>2021-08-11T11:29:37.050Z</time>
      </trkpt>
      <trkpt lat="46.87472" lon="8.49513">
        <ele>1579</ele>
        <time>2021-08-11T11:29:38.050Z</time>
      </trkpt>
      <trkpt lat="46.87472" lon="8.49512">
        <ele>1579</ele>
        <time>2021-08-11T11:29:39.049Z</time>
      </trkpt>
      <trkpt lat="46.87471" lon="8.49511">
        <ele>1578</ele>
        <time>2021-08-11T11:29:40.050Z</time>
      </trkpt>
      <trkpt lat="46.87471" lon="8.4951">
        <ele>1578</ele>
        <time>2021-08-11T11:29:41.050Z</time>
      </trkpt>
      <trkpt lat="46.87472" lon="8.4951">
        <ele>1578</ele>
        <time>2021-08-11T11:29:42.050Z</time>
      </trkpt>
      <trkpt lat="46.8747" lon="8.49509">
        <ele>1578</ele>
        <time>2021-08-11T11:29:43.050Z</time>
      </trkpt>
      <trkpt lat="46.87469" lon="8.49508">
        <ele>1578</ele>
        <time>2021-08-11T11:29:50.197Z</time>
      </trkpt>
      <trkpt lat="46.87468" lon="8.49506">
        <ele>1577</ele>
        <time>2021-08-11T11:29:51.197Z</time>
      </trkpt>
      <trkpt lat="46.87467" lon="8.49505">
        <ele>1576</ele>
        <time>2021-08-11T11:29:52.196Z</time>
      </trkpt>
      <trkpt lat="46.87467" lon="8.49504">
        <ele>1576</ele>
        <time>2021-08-11T11:29:57.095Z</time>
      </trkpt>
      <trkpt lat="46.87467" lon="8.49503">
        <ele>1576</ele>
        <time>2021-08-11T11:29:58.095Z</time>
      </trkpt>
      <trkpt lat="46.87467" lon="8.49502">
        <ele>1576</ele>
        <time>2021-08-11T11:29:59.095Z</time>
      </trkpt>
      <trkpt lat="46.87467" lon="8.49501">
        <ele>1576</ele>
        <time>2021-08-11T11:30:00.095Z</time>
      </trkpt>
      <trkpt lat="46.87467" lon="8.49501">
        <ele>1576</ele>
        <time>2021-08-11T11:30:01.095Z</time>
      </trkpt>
      <trkpt lat="46.87467" lon="8.49499">
        <ele>1577</ele>
        <time>2021-08-11T11:30:02.094Z</time>
      </trkpt>
      <trkpt lat="46.87467" lon="8.49498">
        <ele>1577</ele>
        <time>2021-08-11T11:30:03.095Z</time>
      </trkpt>
      <trkpt lat="46.87467" lon="8.49497">
        <ele>1578</ele>
        <time>2021-08-11T11:30:06.159Z</time>
      </trkpt>
      <trkpt lat="46.87467" lon="8.49496">
        <ele>1578</ele>
        <time>2021-08-11T11:30:07.159Z</time>
      </trkpt>
      <trkpt lat="46.87467" lon="8.49496">
        <ele>1578</ele>
        <time>2021-08-11T11:30:08.158Z</time>
      </trkpt>
      <trkpt lat="46.87467" lon="8.49495">
        <ele>1578</ele>
        <time>2021-08-11T11:30:09.159Z</time>
      </trkpt>
      <trkpt lat="46.87467" lon="8.49495">
        <ele>1578</ele>
        <time>2021-08-11T11:30:10.159Z</time>
      </trkpt>
      <trkpt lat="46.87468" lon="8.49494">
        <ele>1578</ele>
        <time>2021-08-11T11:30:11.158Z</time>
      </trkpt>
      <trkpt lat="46.87468" lon="8.49493">
        <ele>1577</ele>
        <time>2021-08-11T11:30:12.159Z</time>
      </trkpt>
      <trkpt lat="46.87468" lon="8.49492">
        <ele>1577</ele>
        <time>2021-08-11T11:30:13.159Z</time>
      </trkpt>
      <trkpt lat="46.87468" lon="8.49491">
        <ele>1577</ele>
        <time>2021-08-11T11:30:14.159Z</time>
      </trkpt>
      <trkpt lat="46.87468" lon="8.49491">
        <ele>1577</ele>
        <time>2021-08-11T11:30:15.159Z</time>
      </trkpt>
      <trkpt lat="46.87468" lon="8.4949">
        <ele>1577</ele>
        <time>2021-08-11T11:30:16.159Z</time>
      </trkpt>
      <trkpt lat="46.87468" lon="8.49489">
        <ele>1577</ele>
        <time>2021-08-11T11:30:23.317Z</time>
      </trkpt>
      <trkpt lat="46.87468" lon="8.49488">
        <ele>1577</ele>
        <time>2021-08-11T11:30:24.317Z</time>
      </trkpt>
      <trkpt lat="46.87469" lon="8.49487">
        <ele>1578</ele>
        <time>2021-08-11T11:30:25.317Z</time>
      </trkpt>
      <trkpt lat="46.8747" lon="8.49486">
        <ele>1578</ele>
        <time>2021-08-11T11:30:26.317Z</time>
      </trkpt>
      <trkpt lat="46.87471" lon="8.49486">
        <ele>1579</ele>
        <time>2021-08-11T11:30:27.317Z</time>
      </trkpt>
      <trkpt lat="46.87472" lon="8.49485">
        <ele>1579</ele>
        <time>2021-08-11T11:30:30.406Z</time>
      </trkpt>
      <trkpt lat="46.87472" lon="8.49484">
        <ele>1580</ele>
        <time>2021-08-11T11:30:33.320Z</time>
      </trkpt>
      <trkpt lat="46.87473" lon="8.49483">
        <ele>1582</ele>
        <time>2021-08-11T11:30:34.321Z</time>
      </trkpt>
      <trkpt lat="46.87473" lon="8.49482">
        <ele>1583</ele>
        <time>2021-08-11T11:30:35.321Z</time>
      </trkpt>
      <trkpt lat="46.87473" lon="8.49481">
        <ele>1583</ele>
        <time>2021-08-11T11:30:36.321Z</time>
      </trkpt>
      <trkpt lat="46.87473" lon="8.4948">
        <ele>1583</ele>
        <time>2021-08-11T11:30:37.321Z</time>
      </trkpt>
      <trkpt lat="46.87474" lon="8.4948">
        <ele>1583</ele>
        <time>2021-08-11T11:30:38.321Z</time>
      </trkpt>
      <trkpt lat="46.87474" lon="8.49479">
        <ele>1583</ele>
        <time>2021-08-11T11:30:39.321Z</time>
      </trkpt>
      <trkpt lat="46.87474" lon="8.49478">
        <ele>1583</ele>
        <time>2021-08-11T11:30:40.321Z</time>
      </trkpt>
      <trkpt lat="46.87475" lon="8.49477">
        <ele>1583</ele>
        <time>2021-08-11T11:30:42.403Z</time>
      </trkpt>
      <trkpt lat="46.87475" lon="8.49476">
        <ele>1583</ele>
        <time>2021-08-11T11:30:43.402Z</time>
      </trkpt>
      <trkpt lat="46.87475" lon="8.49475">
        <ele>1584</ele>
        <time>2021-08-11T11:30:46.308Z</time>
      </trkpt>
      <trkpt lat="46.87475" lon="8.49474">
        <ele>1584</ele>
        <time>2021-08-11T11:30:47.308Z</time>
      </trkpt>
      <trkpt lat="46.87475" lon="8.49473">
        <ele>1584</ele>
        <time>2021-08-11T11:30:48.309Z</time>
      </trkpt>
      <trkpt lat="46.87474" lon="8.49472">
        <ele>1584</ele>
        <time>2021-08-11T11:30:49.309Z</time>
      </trkpt>
      <trkpt lat="46.87474" lon="8.49471">
        <ele>1583</ele>
        <time>2021-08-11T11:30:50.309Z</time>
      </trkpt>
      <trkpt lat="46.87474" lon="8.4947">
        <ele>1583</ele>
        <time>2021-08-11T11:30:51.308Z</time>
      </trkpt>
      <trkpt lat="46.87474" lon="8.49469">
        <ele>1583</ele>
        <time>2021-08-11T11:30:52.309Z</time>
      </trkpt>
      <trkpt lat="46.87474" lon="8.49469">
        <ele>1583</ele>
        <time>2021-08-11T11:30:53.308Z</time>
      </trkpt>
      <trkpt lat="46.87474" lon="8.49468">
        <ele>1582</ele>
        <time>2021-08-11T11:30:54.309Z</time>
      </trkpt>
      <trkpt lat="46.87474" lon="8.49467">
        <ele>1582</ele>
        <time>2021-08-11T11:30:55.308Z</time>
      </trkpt>
      <trkpt lat="46.87474" lon="8.49466">
        <ele>1582</ele>
        <time>2021-08-11T11:30:56.308Z</time>
      </trkpt>
      <trkpt lat="46.87475" lon="8.49465">
        <ele>1582</ele>
        <time>2021-08-11T11:30:57.309Z</time>
      </trkpt>
      <trkpt lat="46.87475" lon="8.49464">
        <ele>1583</ele>
        <time>2021-08-11T11:30:58.308Z</time>
      </trkpt>
      <trkpt lat="46.87476" lon="8.49463">
        <ele>1583</ele>
        <time>2021-08-11T11:30:59.309Z</time>
      </trkpt>
      <trkpt lat="46.87476" lon="8.49462">
        <ele>1584</ele>
        <time>2021-08-11T11:31:03.419Z</time>
      </trkpt>
      <trkpt lat="46.87476" lon="8.49461">
        <ele>1584</ele>
        <time>2021-08-11T11:31:04.419Z</time>
      </trkpt>
      <trkpt lat="46.87476" lon="8.4946">
        <ele>1584</ele>
        <time>2021-08-11T11:31:05.418Z</time>
      </trkpt>
      <trkpt lat="46.87477" lon="8.49459">
        <ele>1585</ele>
        <time>2021-08-11T11:31:06.418Z</time>
      </trkpt>
      <trkpt lat="46.87477" lon="8.49458">
        <ele>1586</ele>
        <time>2021-08-11T11:31:07.419Z</time>
      </trkpt>
      <trkpt lat="46.87478" lon="8.49457">
        <ele>1587</ele>
        <time>2021-08-11T11:31:08.418Z</time>
      </trkpt>
      <trkpt lat="46.87479" lon="8.49457">
        <ele>1588</ele>
        <time>2021-08-11T11:31:09.419Z</time>
      </trkpt>
      <trkpt lat="46.8748" lon="8.49455">
        <ele>1589</ele>
        <time>2021-08-11T11:31:10.419Z</time>
      </trkpt>
      <trkpt lat="46.8748" lon="8.49454">
        <ele>1590</ele>
        <time>2021-08-11T11:31:11.418Z</time>
      </trkpt>
      <trkpt lat="46.87479" lon="8.49452">
        <ele>1590</ele>
        <time>2021-08-11T11:31:12.419Z</time>
      </trkpt>
      <trkpt lat="46.87479" lon="8.49452">
        <ele>1590</ele>
        <time>2021-08-11T11:31:13.418Z</time>
      </trkpt>
      <trkpt lat="46.87479" lon="8.49451">
        <ele>1591</ele>
        <time>2021-08-11T11:31:15.552Z</time>
      </trkpt>
      <trkpt lat="46.8748" lon="8.4945">
        <ele>1591</ele>
        <time>2021-08-11T11:31:16.552Z</time>
      </trkpt>
      <trkpt lat="46.8748" lon="8.49449">
        <ele>1591</ele>
        <time>2021-08-11T11:31:17.551Z</time>
      </trkpt>
      <trkpt lat="46.87481" lon="8.49448">
        <ele>1592</ele>
        <time>2021-08-11T11:31:18.551Z</time>
      </trkpt>
      <trkpt lat="46.87481" lon="8.49447">
        <ele>1591</ele>
        <time>2021-08-11T11:31:19.552Z</time>
      </trkpt>
      <trkpt lat="46.87482" lon="8.49446">
        <ele>1591</ele>
        <time>2021-08-11T11:31:20.552Z</time>
      </trkpt>
      <trkpt lat="46.87482" lon="8.49445">
        <ele>1591</ele>
        <time>2021-08-11T11:31:21.552Z</time>
      </trkpt>
      <trkpt lat="46.87482" lon="8.49444">
        <ele>1592</ele>
        <time>2021-08-11T11:31:22.552Z</time>
      </trkpt>
      <trkpt lat="46.87482" lon="8.49442">
        <ele>1592</ele>
        <time>2021-08-11T11:31:23.551Z</time>
      </trkpt>
      <trkpt lat="46.87482" lon="8.49441">
        <ele>1592</ele>
        <time>2021-08-11T11:31:24.551Z</time>
      </trkpt>
      <trkpt lat="46.87482" lon="8.4944">
        <ele>1592</ele>
        <time>2021-08-11T11:31:25.551Z</time>
      </trkpt>
      <trkpt lat="46.87482" lon="8.49439">
        <ele>1592</ele>
        <time>2021-08-11T11:31:26.551Z</time>
      </trkpt>
      <trkpt lat="46.87482" lon="8.49438">
        <ele>1592</ele>
        <time>2021-08-11T11:31:27.551Z</time>
      </trkpt>
      <trkpt lat="46.87483" lon="8.49438">
        <ele>1592</ele>
        <time>2021-08-11T11:31:28.551Z</time>
      </trkpt>
      <trkpt lat="46.87483" lon="8.49437">
        <ele>1592</ele>
        <time>2021-08-11T11:31:29.552Z</time>
      </trkpt>
      <trkpt lat="46.87483" lon="8.49436">
        <ele>1592</ele>
        <time>2021-08-11T11:31:30.551Z</time>
      </trkpt>
      <trkpt lat="46.87483" lon="8.49435">
        <ele>1592</ele>
        <time>2021-08-11T11:31:35.690Z</time>
      </trkpt>
      <trkpt lat="46.87483" lon="8.49434">
        <ele>1592</ele>
        <time>2021-08-11T11:31:36.689Z</time>
      </trkpt>
      <trkpt lat="46.87482" lon="8.49433">
        <ele>1591</ele>
        <time>2021-08-11T11:31:39.527Z</time>
      </trkpt>
      <trkpt lat="46.87483" lon="8.49432">
        <ele>1591</ele>
        <time>2021-08-11T11:31:40.526Z</time>
      </trkpt>
      <trkpt lat="46.87483" lon="8.49431">
        <ele>1591</ele>
        <time>2021-08-11T11:31:41.526Z</time>
      </trkpt>
      <trkpt lat="46.87484" lon="8.49431">
        <ele>1591</ele>
        <time>2021-08-11T11:31:42.526Z</time>
      </trkpt>
      <trkpt lat="46.87484" lon="8.4943">
        <ele>1591</ele>
        <time>2021-08-11T11:31:43.526Z</time>
      </trkpt>
      <trkpt lat="46.87484" lon="8.49429">
        <ele>1591</ele>
        <time>2021-08-11T11:31:44.527Z</time>
      </trkpt>
      <trkpt lat="46.87484" lon="8.49428">
        <ele>1591</ele>
        <time>2021-08-11T11:31:45.526Z</time>
      </trkpt>
      <trkpt lat="46.87484" lon="8.49428">
        <ele>1591</ele>
        <time>2021-08-11T11:31:46.527Z</time>
      </trkpt>
      <trkpt lat="46.87484" lon="8.49427">
        <ele>1590</ele>
        <time>2021-08-11T11:31:47.526Z</time>
      </trkpt>
      <trkpt lat="46.87484" lon="8.49426">
        <ele>1590</ele>
        <time>2021-08-11T11:31:48.526Z</time>
      </trkpt>
      <trkpt lat="46.87483" lon="8.49425">
        <ele>1590</ele>
        <time>2021-08-11T11:31:49.527Z</time>
      </trkpt>
      <trkpt lat="46.87483" lon="8.49424">
        <ele>1589</ele>
        <time>2021-08-11T11:31:50.527Z</time>
      </trkpt>
      <trkpt lat="46.87483" lon="8.49423">
        <ele>1589</ele>
        <time>2021-08-11T11:31:51.527Z</time>
      </trkpt>
      <trkpt lat="46.87483" lon="8.49423">
        <ele>1588</ele>
        <time>2021-08-11T11:31:52.526Z</time>
      </trkpt>
      <trkpt lat="46.87482" lon="8.49422">
        <ele>1588</ele>
        <time>2021-08-11T11:31:53.527Z</time>
      </trkpt>
      <trkpt lat="46.87482" lon="8.49421">
        <ele>1587</ele>
        <time>2021-08-11T11:31:54.527Z</time>
      </trkpt>
      <trkpt lat="46.87482" lon="8.4942">
        <ele>1587</ele>
        <time>2021-08-11T11:31:55.527Z</time>
      </trkpt>
      <trkpt lat="46.87482" lon="8.49419">
        <ele>1588</ele>
        <time>2021-08-11T11:31:56.526Z</time>
      </trkpt>
      <trkpt lat="46.87482" lon="8.49418">
        <ele>1588</ele>
        <time>2021-08-11T11:31:57.527Z</time>
      </trkpt>
      <trkpt lat="46.87481" lon="8.49417">
        <ele>1588</ele>
        <time>2021-08-11T11:31:58.526Z</time>
      </trkpt>
      <trkpt lat="46.87482" lon="8.49415">
        <ele>1587</ele>
        <time>2021-08-11T11:31:59.527Z</time>
      </trkpt>
      <trkpt lat="46.87482" lon="8.49414">
        <ele>1587</ele>
        <time>2021-08-11T11:32:00.526Z</time>
      </trkpt>
      <trkpt lat="46.87482" lon="8.49413">
        <ele>1587</ele>
        <time>2021-08-11T11:32:01.526Z</time>
      </trkpt>
      <trkpt lat="46.87482" lon="8.49412">
        <ele>1587</ele>
        <time>2021-08-11T11:32:02.527Z</time>
      </trkpt>
      <trkpt lat="46.87482" lon="8.49411">
        <ele>1587</ele>
        <time>2021-08-11T11:32:03.527Z</time>
      </trkpt>
      <trkpt lat="46.87481" lon="8.49411">
        <ele>1587</ele>
        <time>2021-08-11T11:32:04.527Z</time>
      </trkpt>
      <trkpt lat="46.8748" lon="8.4941">
        <ele>1586</ele>
        <time>2021-08-11T11:32:05.526Z</time>
      </trkpt>
      <trkpt lat="46.87479" lon="8.49409">
        <ele>1586</ele>
        <time>2021-08-11T11:32:06.527Z</time>
      </trkpt>
      <trkpt lat="46.87478" lon="8.49408">
        <ele>1585</ele>
        <time>2021-08-11T11:32:07.527Z</time>
      </trkpt>
      <trkpt lat="46.87478" lon="8.49407">
        <ele>1585</ele>
        <time>2021-08-11T11:32:08.527Z</time>
      </trkpt>
      <trkpt lat="46.87478" lon="8.49406">
        <ele>1584</ele>
        <time>2021-08-11T11:32:09.527Z</time>
      </trkpt>
      <trkpt lat="46.87479" lon="8.49405">
        <ele>1584</ele>
        <time>2021-08-11T11:32:10.527Z</time>
      </trkpt>
      <trkpt lat="46.8748" lon="8.49404">
        <ele>1584</ele>
        <time>2021-08-11T11:32:11.527Z</time>
      </trkpt>
      <trkpt lat="46.87481" lon="8.49403">
        <ele>1584</ele>
        <time>2021-08-11T11:32:12.526Z</time>
      </trkpt>
      <trkpt lat="46.87482" lon="8.49402">
        <ele>1585</ele>
        <time>2021-08-11T11:32:15.652Z</time>
      </trkpt>
      <trkpt lat="46.87482" lon="8.49401">
        <ele>1585</ele>
        <time>2021-08-11T11:32:16.651Z</time>
      </trkpt>
      <trkpt lat="46.87483" lon="8.49401">
        <ele>1586</ele>
        <time>2021-08-11T11:32:17.652Z</time>
      </trkpt>
      <trkpt lat="46.87484" lon="8.494">
        <ele>1587</ele>
        <time>2021-08-11T11:32:18.652Z</time>
      </trkpt>
      <trkpt lat="46.87485" lon="8.49399">
        <ele>1588</ele>
        <time>2021-08-11T11:32:19.651Z</time>
      </trkpt>
      <trkpt lat="46.87486" lon="8.49398">
        <ele>1589</ele>
        <time>2021-08-11T11:32:20.652Z</time>
      </trkpt>
      <trkpt lat="46.87486" lon="8.49397">
        <ele>1590</ele>
        <time>2021-08-11T11:32:21.652Z</time>
      </trkpt>
      <trkpt lat="46.87487" lon="8.49396">
        <ele>1591</ele>
        <time>2021-08-11T11:32:22.652Z</time>
      </trkpt>
      <trkpt lat="46.87487" lon="8.49395">
        <ele>1592</ele>
        <time>2021-08-11T11:32:23.652Z</time>
      </trkpt>
      <trkpt lat="46.87487" lon="8.49394">
        <ele>1592</ele>
        <time>2021-08-11T11:32:24.652Z</time>
      </trkpt>
      <trkpt lat="46.87488" lon="8.49393">
        <ele>1592</ele>
        <time>2021-08-11T11:32:25.652Z</time>
      </trkpt>
      <trkpt lat="46.87488" lon="8.49392">
        <ele>1592</ele>
        <time>2021-08-11T11:32:26.651Z</time>
      </trkpt>
      <trkpt lat="46.87489" lon="8.49391">
        <ele>1592</ele>
        <time>2021-08-11T11:32:27.652Z</time>
      </trkpt>
      <trkpt lat="46.87489" lon="8.49391">
        <ele>1593</ele>
        <time>2021-08-11T11:32:28.652Z</time>
      </trkpt>
      <trkpt lat="46.8749" lon="8.4939">
        <ele>1593</ele>
        <time>2021-08-11T11:32:29.652Z</time>
      </trkpt>
      <trkpt lat="46.8749" lon="8.49389">
        <ele>1594</ele>
        <time>2021-08-11T11:32:30.651Z</time>
      </trkpt>
      <trkpt lat="46.8749" lon="8.49388">
        <ele>1594</ele>
        <time>2021-08-11T11:32:31.652Z</time>
      </trkpt>
      <trkpt lat="46.87491" lon="8.49387">
        <ele>1594</ele>
        <time>2021-08-11T11:32:32.652Z</time>
      </trkpt>
      <trkpt lat="46.8749" lon="8.49386">
        <ele>1594</ele>
        <time>2021-08-11T11:32:33.651Z</time>
      </trkpt>
      <trkpt lat="46.8749" lon="8.49384">
        <ele>1593</ele>
        <time>2021-08-11T11:32:34.652Z</time>
      </trkpt>
      <trkpt lat="46.8749" lon="8.49383">
        <ele>1593</ele>
        <time>2021-08-11T11:32:35.652Z</time>
      </trkpt>
      <trkpt lat="46.8749" lon="8.49382">
        <ele>1592</ele>
        <time>2021-08-11T11:32:36.652Z</time>
      </trkpt>
      <trkpt lat="46.87491" lon="8.49381">
        <ele>1592</ele>
        <time>2021-08-11T11:32:37.652Z</time>
      </trkpt>
      <trkpt lat="46.87491" lon="8.4938">
        <ele>1591</ele>
        <time>2021-08-11T11:32:38.651Z</time>
      </trkpt>
      <trkpt lat="46.87491" lon="8.49379">
        <ele>1591</ele>
        <time>2021-08-11T11:32:39.651Z</time>
      </trkpt>
      <trkpt lat="46.87491" lon="8.49378">
        <ele>1591</ele>
        <time>2021-08-11T11:32:40.652Z</time>
      </trkpt>
      <trkpt lat="46.87491" lon="8.49377">
        <ele>1592</ele>
        <time>2021-08-11T11:32:41.652Z</time>
      </trkpt>
      <trkpt lat="46.87492" lon="8.49376">
        <ele>1592</ele>
        <time>2021-08-11T11:32:42.651Z</time>
      </trkpt>
      <trkpt lat="46.87492" lon="8.49374">
        <ele>1593</ele>
        <time>2021-08-11T11:32:43.651Z</time>
      </trkpt>
      <trkpt lat="46.87492" lon="8.49373">
        <ele>1594</ele>
        <time>2021-08-11T11:32:44.652Z</time>
      </trkpt>
      <trkpt lat="46.87492" lon="8.49372">
        <ele>1594</ele>
        <time>2021-08-11T11:32:45.652Z</time>
      </trkpt>
      <trkpt lat="46.87492" lon="8.49372">
        <ele>1595</ele>
        <time>2021-08-11T11:32:46.651Z</time>
      </trkpt>
      <trkpt lat="46.87492" lon="8.49371">
        <ele>1595</ele>
        <time>2021-08-11T11:32:47.651Z</time>
      </trkpt>
      <trkpt lat="46.87493" lon="8.4937">
        <ele>1596</ele>
        <time>2021-08-11T11:32:48.652Z</time>
      </trkpt>
      <trkpt lat="46.87494" lon="8.49369">
        <ele>1597</ele>
        <time>2021-08-11T11:32:51.677Z</time>
      </trkpt>
      <trkpt lat="46.87494" lon="8.49368">
        <ele>1597</ele>
        <time>2021-08-11T11:32:52.677Z</time>
      </trkpt>
      <trkpt lat="46.87494" lon="8.49367">
        <ele>1597</ele>
        <time>2021-08-11T11:32:53.677Z</time>
      </trkpt>
      <trkpt lat="46.87494" lon="8.49366">
        <ele>1597</ele>
        <time>2021-08-11T11:32:57.810Z</time>
      </trkpt>
      <trkpt lat="46.87495" lon="8.49365">
        <ele>1597</ele>
        <time>2021-08-11T11:32:58.810Z</time>
      </trkpt>
      <trkpt lat="46.87495" lon="8.49364">
        <ele>1597</ele>
        <time>2021-08-11T11:33:01.773Z</time>
      </trkpt>
      <trkpt lat="46.87496" lon="8.49363">
        <ele>1598</ele>
        <time>2021-08-11T11:33:02.774Z</time>
      </trkpt>
      <trkpt lat="46.87496" lon="8.49362">
        <ele>1598</ele>
        <time>2021-08-11T11:33:03.774Z</time>
      </trkpt>
      <trkpt lat="46.87496" lon="8.49361">
        <ele>1598</ele>
        <time>2021-08-11T11:33:04.774Z</time>
      </trkpt>
      <trkpt lat="46.87496" lon="8.4936">
        <ele>1598</ele>
        <time>2021-08-11T11:33:10.792Z</time>
      </trkpt>
      <trkpt lat="46.87496" lon="8.49359">
        <ele>1599</ele>
        <time>2021-08-11T11:33:11.791Z</time>
      </trkpt>
      <trkpt lat="46.87496" lon="8.49357">
        <ele>1599</ele>
        <time>2021-08-11T11:33:12.792Z</time>
      </trkpt>
      <trkpt lat="46.87496" lon="8.49356">
        <ele>1598</ele>
        <time>2021-08-11T11:33:13.792Z</time>
      </trkpt>
      <trkpt lat="46.87495" lon="8.49355">
        <ele>1598</ele>
        <time>2021-08-11T11:33:14.792Z</time>
      </trkpt>
      <trkpt lat="46.87493" lon="8.49353">
        <ele>1598</ele>
        <time>2021-08-11T11:33:22.936Z</time>
      </trkpt>
      <trkpt lat="46.87493" lon="8.49352">
        <ele>1597</ele>
        <time>2021-08-11T11:33:23.935Z</time>
      </trkpt>
      <trkpt lat="46.87493" lon="8.49352">
        <ele>1597</ele>
        <time>2021-08-11T11:33:24.935Z</time>
      </trkpt>
      <trkpt lat="46.87494" lon="8.49351">
        <ele>1597</ele>
        <time>2021-08-11T11:33:25.936Z</time>
      </trkpt>
      <trkpt lat="46.87494" lon="8.4935">
        <ele>1597</ele>
        <time>2021-08-11T11:33:34.059Z</time>
      </trkpt>
      <trkpt lat="46.87494" lon="8.49349">
        <ele>1597</ele>
        <time>2021-08-11T11:33:35.059Z</time>
      </trkpt>
      <trkpt lat="46.87495" lon="8.49348">
        <ele>1598</ele>
        <time>2021-08-11T11:33:36.059Z</time>
      </trkpt>
      <trkpt lat="46.87494" lon="8.49347">
        <ele>1597</ele>
        <time>2021-08-11T11:33:37.059Z</time>
      </trkpt>
      <trkpt lat="46.87494" lon="8.49347">
        <ele>1597</ele>
        <time>2021-08-11T11:33:38.059Z</time>
      </trkpt>
      <trkpt lat="46.87494" lon="8.49346">
        <ele>1597</ele>
        <time>2021-08-11T11:33:39.059Z</time>
      </trkpt>
      <trkpt lat="46.87494" lon="8.49345">
        <ele>1597</ele>
        <time>2021-08-11T11:33:40.059Z</time>
      </trkpt>
      <trkpt lat="46.87494" lon="8.49344">
        <ele>1597</ele>
        <time>2021-08-11T11:33:41.059Z</time>
      </trkpt>
      <trkpt lat="46.87494" lon="8.49343">
        <ele>1597</ele>
        <time>2021-08-11T11:33:42.059Z</time>
      </trkpt>
      <trkpt lat="46.87495" lon="8.49343">
        <ele>1597</ele>
        <time>2021-08-11T11:33:43.058Z</time>
      </trkpt>
      <trkpt lat="46.87496" lon="8.49342">
        <ele>1597</ele>
        <time>2021-08-11T11:33:44.058Z</time>
      </trkpt>
      <trkpt lat="46.87496" lon="8.49341">
        <ele>1597</ele>
        <time>2021-08-11T11:33:45.058Z</time>
      </trkpt>
      <trkpt lat="46.87497" lon="8.49341">
        <ele>1597</ele>
        <time>2021-08-11T11:33:46.058Z</time>
      </trkpt>
      <trkpt lat="46.87497" lon="8.4934">
        <ele>1597</ele>
        <time>2021-08-11T11:33:47.059Z</time>
      </trkpt>
      <trkpt lat="46.87498" lon="8.49339">
        <ele>1597</ele>
        <time>2021-08-11T11:33:48.059Z</time>
      </trkpt>
      <trkpt lat="46.87498" lon="8.49338">
        <ele>1597</ele>
        <time>2021-08-11T11:33:49.059Z</time>
      </trkpt>
      <trkpt lat="46.87499" lon="8.49338">
        <ele>1597</ele>
        <time>2021-08-11T11:33:50.059Z</time>
      </trkpt>
      <trkpt lat="46.87499" lon="8.49337">
        <ele>1597</ele>
        <time>2021-08-11T11:33:51.058Z</time>
      </trkpt>
      <trkpt lat="46.87499" lon="8.49336">
        <ele>1597</ele>
        <time>2021-08-11T11:33:52.059Z</time>
      </trkpt>
      <trkpt lat="46.87499" lon="8.49335">
        <ele>1597</ele>
        <time>2021-08-11T11:33:53.058Z</time>
      </trkpt>
      <trkpt lat="46.87498" lon="8.49335">
        <ele>1597</ele>
        <time>2021-08-11T11:33:54.059Z</time>
      </trkpt>
      <trkpt lat="46.87499" lon="8.49334">
        <ele>1596</ele>
        <time>2021-08-11T11:33:55.059Z</time>
      </trkpt>
      <trkpt lat="46.87499" lon="8.49333">
        <ele>1596</ele>
        <time>2021-08-11T11:33:56.058Z</time>
      </trkpt>
      <trkpt lat="46.87499" lon="8.49332">
        <ele>1596</ele>
        <time>2021-08-11T11:33:57.059Z</time>
      </trkpt>
      <trkpt lat="46.875" lon="8.49331">
        <ele>1596</ele>
        <time>2021-08-11T11:33:58.059Z</time>
      </trkpt>
      <trkpt lat="46.875" lon="8.4933">
        <ele>1596</ele>
        <time>2021-08-11T11:33:59.059Z</time>
      </trkpt>
      <trkpt lat="46.875" lon="8.4933">
        <ele>1596</ele>
        <time>2021-08-11T11:34:00.059Z</time>
      </trkpt>
      <trkpt lat="46.87501" lon="8.49329">
        <ele>1596</ele>
        <time>2021-08-11T11:34:01.058Z</time>
      </trkpt>
      <trkpt lat="46.87501" lon="8.49328">
        <ele>1596</ele>
        <time>2021-08-11T11:34:02.058Z</time>
      </trkpt>
      <trkpt lat="46.87501" lon="8.49327">
        <ele>1596</ele>
        <time>2021-08-11T11:34:03.059Z</time>
      </trkpt>
      <trkpt lat="46.87501" lon="8.49326">
        <ele>1595</ele>
        <time>2021-08-11T11:34:04.058Z</time>
      </trkpt>
      <trkpt lat="46.875" lon="8.49325">
        <ele>1595</ele>
        <time>2021-08-11T11:34:05.059Z</time>
      </trkpt>
      <trkpt lat="46.875" lon="8.49323">
        <ele>1595</ele>
        <time>2021-08-11T11:34:06.059Z</time>
      </trkpt>
      <trkpt lat="46.875" lon="8.49323">
        <ele>1594</ele>
        <time>2021-08-11T11:34:07.059Z</time>
      </trkpt>
      <trkpt lat="46.875" lon="8.49322">
        <ele>1594</ele>
        <time>2021-08-11T11:34:15.207Z</time>
      </trkpt>
      <trkpt lat="46.87499" lon="8.49321">
        <ele>1594</ele>
        <time>2021-08-11T11:34:16.206Z</time>
      </trkpt>
      <trkpt lat="46.87499" lon="8.49319">
        <ele>1594</ele>
        <time>2021-08-11T11:34:18.026Z</time>
      </trkpt>
      <trkpt lat="46.875" lon="8.49319">
        <ele>1594</ele>
        <time>2021-08-11T11:34:19.026Z</time>
      </trkpt>
      <trkpt lat="46.87501" lon="8.49318">
        <ele>1594</ele>
        <time>2021-08-11T11:34:20.026Z</time>
      </trkpt>
      <trkpt lat="46.87501" lon="8.49317">
        <ele>1594</ele>
        <time>2021-08-11T11:34:21.026Z</time>
      </trkpt>
      <trkpt lat="46.87501" lon="8.49317">
        <ele>1594</ele>
        <time>2021-08-11T11:34:22.026Z</time>
      </trkpt>
      <trkpt lat="46.87502" lon="8.49316">
        <ele>1595</ele>
        <time>2021-08-11T11:34:23.025Z</time>
      </trkpt>
      <trkpt lat="46.87502" lon="8.49314">
        <ele>1595</ele>
        <time>2021-08-11T11:34:24.025Z</time>
      </trkpt>
      <trkpt lat="46.87503" lon="8.49313">
        <ele>1595</ele>
        <time>2021-08-11T11:34:25.026Z</time>
      </trkpt>
      <trkpt lat="46.87503" lon="8.49312">
        <ele>1595</ele>
        <time>2021-08-11T11:34:27.183Z</time>
      </trkpt>
      <trkpt lat="46.87503" lon="8.49311">
        <ele>1595</ele>
        <time>2021-08-11T11:34:31.203Z</time>
      </trkpt>
      <trkpt lat="46.87502" lon="8.49311">
        <ele>1595</ele>
        <time>2021-08-11T11:34:32.203Z</time>
      </trkpt>
      <trkpt lat="46.87502" lon="8.49311">
        <ele>1596</ele>
        <time>2021-08-11T11:34:41.182Z</time>
      </trkpt>
      <trkpt lat="46.87502" lon="8.49311">
        <ele>1596</ele>
        <time>2021-08-11T11:34:42.183Z</time>
      </trkpt>
      <trkpt lat="46.87503" lon="8.49311">
        <ele>1596</ele>
        <time>2021-08-11T11:34:43.182Z</time>
      </trkpt>
      <trkpt lat="46.87503" lon="8.49311">
        <ele>1597</ele>
        <time>2021-08-11T11:34:44.182Z</time>
      </trkpt>
      <trkpt lat="46.87503" lon="8.49311">
        <ele>1597</ele>
        <time>2021-08-11T11:34:45.183Z</time>
      </trkpt>
      <trkpt lat="46.87504" lon="8.49311">
        <ele>1598</ele>
        <time>2021-08-11T11:34:46.183Z</time>
      </trkpt>
      <trkpt lat="46.87503" lon="8.49312">
        <ele>1598</ele>
        <time>2021-08-11T11:34:47.183Z</time>
      </trkpt>
      <trkpt lat="46.87503" lon="8.49312">
        <ele>1598</ele>
        <time>2021-08-11T11:34:48.183Z</time>
      </trkpt>
      <trkpt lat="46.87504" lon="8.49311">
        <ele>1598</ele>
        <time>2021-08-11T11:34:49.182Z</time>
      </trkpt>
      <trkpt lat="46.87505" lon="8.49311">
        <ele>1598</ele>
        <time>2021-08-11T11:34:50.183Z</time>
      </trkpt>
      <trkpt lat="46.87505" lon="8.49311">
        <ele>1599</ele>
        <time>2021-08-11T11:34:51.183Z</time>
      </trkpt>
      <trkpt lat="46.87506" lon="8.49311">
        <ele>1599</ele>
        <time>2021-08-11T11:34:52.183Z</time>
      </trkpt>
      <trkpt lat="46.87507" lon="8.49311">
        <ele>1599</ele>
        <time>2021-08-11T11:34:53.183Z</time>
      </trkpt>
      <trkpt lat="46.87508" lon="8.49311">
        <ele>1599</ele>
        <time>2021-08-11T11:35:00.286Z</time>
      </trkpt>
      <trkpt lat="46.87509" lon="8.49311">
        <ele>1599</ele>
        <time>2021-08-11T11:35:01.286Z</time>
      </trkpt>
      <trkpt lat="46.8751" lon="8.49311">
        <ele>1600</ele>
        <time>2021-08-11T11:35:02.286Z</time>
      </trkpt>
      <trkpt lat="46.8751" lon="8.49311">
        <ele>1600</ele>
        <time>2021-08-11T11:35:03.286Z</time>
      </trkpt>
      <trkpt lat="46.8751" lon="8.49311">
        <ele>1600</ele>
        <time>2021-08-11T11:35:04.285Z</time>
      </trkpt>
      <trkpt lat="46.87511" lon="8.49311">
        <ele>1599</ele>
        <time>2021-08-11T11:35:05.286Z</time>
      </trkpt>
      <trkpt lat="46.87512" lon="8.49312">
        <ele>1600</ele>
        <time>2021-08-11T11:35:06.286Z</time>
      </trkpt>
      <trkpt lat="46.87513" lon="8.49313">
        <ele>1600</ele>
        <time>2021-08-11T11:35:07.286Z</time>
      </trkpt>
      <trkpt lat="46.87512" lon="8.49314">
        <ele>1600</ele>
        <time>2021-08-11T11:35:09.433Z</time>
      </trkpt>
      <trkpt lat="46.87512" lon="8.49314">
        <ele>1600</ele>
        <time>2021-08-11T11:35:10.432Z</time>
      </trkpt>
      <trkpt lat="46.87514" lon="8.49314">
        <ele>1600</ele>
        <time>2021-08-11T11:35:11.433Z</time>
      </trkpt>
      <trkpt lat="46.87514" lon="8.49314">
        <ele>1601</ele>
        <time>2021-08-11T11:35:12.433Z</time>
      </trkpt>
      <trkpt lat="46.87515" lon="8.49315">
        <ele>1601</ele>
        <time>2021-08-11T11:35:27.537Z</time>
      </trkpt>
      <trkpt lat="46.87515" lon="8.49315">
        <ele>1602</ele>
        <time>2021-08-11T11:35:28.538Z</time>
      </trkpt>
      <trkpt lat="46.87517" lon="8.49316">
        <ele>1602</ele>
        <time>2021-08-11T11:35:29.538Z</time>
      </trkpt>
      <trkpt lat="46.87517" lon="8.49316">
        <ele>1603</ele>
        <time>2021-08-11T11:35:30.538Z</time>
      </trkpt>
      <trkpt lat="46.87518" lon="8.49316">
        <ele>1604</ele>
        <time>2021-08-11T11:35:31.538Z</time>
      </trkpt>
      <trkpt lat="46.87519" lon="8.49316">
        <ele>1604</ele>
        <time>2021-08-11T11:35:32.538Z</time>
      </trkpt>
      <trkpt lat="46.8752" lon="8.49317">
        <ele>1605</ele>
        <time>2021-08-11T11:35:33.537Z</time>
      </trkpt>
      <trkpt lat="46.8752" lon="8.49317">
        <ele>1605</ele>
        <time>2021-08-11T11:35:34.538Z</time>
      </trkpt>
      <trkpt lat="46.8752" lon="8.49319">
        <ele>1605</ele>
        <time>2021-08-11T11:35:35.538Z</time>
      </trkpt>
      <trkpt lat="46.87521" lon="8.4932">
        <ele>1606</ele>
        <time>2021-08-11T11:35:36.538Z</time>
      </trkpt>
      <trkpt lat="46.87521" lon="8.4932">
        <ele>1606</ele>
        <time>2021-08-11T11:35:40.659Z</time>
      </trkpt>
      <trkpt lat="46.87522" lon="8.49321">
        <ele>1606</ele>
        <time>2021-08-11T11:35:41.658Z</time>
      </trkpt>
      <trkpt lat="46.87523" lon="8.49321">
        <ele>1606</ele>
        <time>2021-08-11T11:35:42.659Z</time>
      </trkpt>
      <trkpt lat="46.87523" lon="8.49322">
        <ele>1606</ele>
        <time>2021-08-11T11:35:43.659Z</time>
      </trkpt>
      <trkpt lat="46.87524" lon="8.49322">
        <ele>1606</ele>
        <time>2021-08-11T11:35:44.659Z</time>
      </trkpt>
      <trkpt lat="46.87525" lon="8.49323">
        <ele>1607</ele>
        <time>2021-08-11T11:35:45.659Z</time>
      </trkpt>
      <trkpt lat="46.87525" lon="8.49324">
        <ele>1608</ele>
        <time>2021-08-11T11:35:46.659Z</time>
      </trkpt>
      <trkpt lat="46.87526" lon="8.49325">
        <ele>1609</ele>
        <time>2021-08-11T11:35:47.659Z</time>
      </trkpt>
      <trkpt lat="46.87527" lon="8.49326">
        <ele>1609</ele>
        <time>2021-08-11T11:35:48.658Z</time>
      </trkpt>
      <trkpt lat="46.87527" lon="8.49326">
        <ele>1610</ele>
        <time>2021-08-11T11:35:49.658Z</time>
      </trkpt>
      <trkpt lat="46.87528" lon="8.49327">
        <ele>1610</ele>
        <time>2021-08-11T11:35:50.659Z</time>
      </trkpt>
      <trkpt lat="46.87529" lon="8.49328">
        <ele>1611</ele>
        <time>2021-08-11T11:35:51.659Z</time>
      </trkpt>
      <trkpt lat="46.8753" lon="8.49328">
        <ele>1611</ele>
        <time>2021-08-11T11:35:52.659Z</time>
      </trkpt>
      <trkpt lat="46.87531" lon="8.49329">
        <ele>1612</ele>
        <time>2021-08-11T11:35:53.659Z</time>
      </trkpt>
      <trkpt lat="46.87531" lon="8.4933">
        <ele>1612</ele>
        <time>2021-08-11T11:35:54.658Z</time>
      </trkpt>
      <trkpt lat="46.87533" lon="8.4933">
        <ele>1613</ele>
        <time>2021-08-11T11:35:55.659Z</time>
      </trkpt>
      <trkpt lat="46.87534" lon="8.4933">
        <ele>1614</ele>
        <time>2021-08-11T11:35:56.659Z</time>
      </trkpt>
      <trkpt lat="46.87536" lon="8.49329">
        <ele>1614</ele>
        <time>2021-08-11T11:35:57.659Z</time>
      </trkpt>
      <trkpt lat="46.87537" lon="8.49329">
        <ele>1615</ele>
        <time>2021-08-11T11:36:01.784Z</time>
      </trkpt>
      <trkpt lat="46.87538" lon="8.49329">
        <ele>1616</ele>
        <time>2021-08-11T11:36:02.784Z</time>
      </trkpt>
      <trkpt lat="46.87539" lon="8.49328">
        <ele>1617</ele>
        <time>2021-08-11T11:36:03.783Z</time>
      </trkpt>
      <trkpt lat="46.8754" lon="8.49328">
        <ele>1618</ele>
        <time>2021-08-11T11:36:13.906Z</time>
      </trkpt>
      <trkpt lat="46.87542" lon="8.49326">
        <ele>1618</ele>
        <time>2021-08-11T11:36:14.906Z</time>
      </trkpt>
      <trkpt lat="46.87543" lon="8.49325">
        <ele>1619</ele>
        <time>2021-08-11T11:36:15.906Z</time>
      </trkpt>
      <trkpt lat="46.87543" lon="8.49323">
        <ele>1619</ele>
        <time>2021-08-11T11:36:16.906Z</time>
      </trkpt>
      <trkpt lat="46.87544" lon="8.4932">
        <ele>1619</ele>
        <time>2021-08-11T11:36:17.905Z</time>
      </trkpt>
      <trkpt lat="46.87545" lon="8.49319">
        <ele>1619</ele>
        <time>2021-08-11T11:36:18.905Z</time>
      </trkpt>
      <trkpt lat="46.87545" lon="8.49318">
        <ele>1619</ele>
        <time>2021-08-11T11:36:19.906Z</time>
      </trkpt>
      <trkpt lat="46.87546" lon="8.49317">
        <ele>1619</ele>
        <time>2021-08-11T11:36:20.906Z</time>
      </trkpt>
      <trkpt lat="46.87547" lon="8.49315">
        <ele>1619</ele>
        <time>2021-08-11T11:36:21.905Z</time>
      </trkpt>
      <trkpt lat="46.87548" lon="8.49314">
        <ele>1619</ele>
        <time>2021-08-11T11:36:22.905Z</time>
      </trkpt>
      <trkpt lat="46.87548" lon="8.49313">
        <ele>1619</ele>
        <time>2021-08-11T11:36:23.906Z</time>
      </trkpt>
      <trkpt lat="46.87549" lon="8.49313">
        <ele>1619</ele>
        <time>2021-08-11T11:36:24.906Z</time>
      </trkpt>
      <trkpt lat="46.8755" lon="8.49311">
        <ele>1619</ele>
        <time>2021-08-11T11:36:25.906Z</time>
      </trkpt>
      <trkpt lat="46.87551" lon="8.4931">
        <ele>1619</ele>
        <time>2021-08-11T11:36:26.906Z</time>
      </trkpt>
      <trkpt lat="46.87551" lon="8.49309">
        <ele>1619</ele>
        <time>2021-08-11T11:36:27.906Z</time>
      </trkpt>
      <trkpt lat="46.8755" lon="8.49308">
        <ele>1618</ele>
        <time>2021-08-11T11:36:28.905Z</time>
      </trkpt>
      <trkpt lat="46.8755" lon="8.49308">
        <ele>1617</ele>
        <time>2021-08-11T11:36:29.906Z</time>
      </trkpt>
      <trkpt lat="46.8755" lon="8.49307">
        <ele>1617</ele>
        <time>2021-08-11T11:36:30.906Z</time>
      </trkpt>
      <trkpt lat="46.87552" lon="8.49305">
        <ele>1616</ele>
        <time>2021-08-11T11:36:40.056Z</time>
      </trkpt>
      <trkpt lat="46.87552" lon="8.49305">
        <ele>1616</ele>
        <time>2021-08-11T11:36:41.056Z</time>
      </trkpt>
      <trkpt lat="46.87552" lon="8.49305">
        <ele>1616</ele>
        <time>2021-08-11T11:36:44.926Z</time>
      </trkpt>
      <trkpt lat="46.87553" lon="8.49304">
        <ele>1616</ele>
        <time>2021-08-11T11:36:45.926Z</time>
      </trkpt>
      <trkpt lat="46.87553" lon="8.49304">
        <ele>1616</ele>
        <time>2021-08-11T11:36:50.807Z</time>
      </trkpt>
      <trkpt lat="46.87554" lon="8.49303">
        <ele>1616</ele>
        <time>2021-08-11T11:36:51.806Z</time>
      </trkpt>
      <trkpt lat="46.87553" lon="8.49303">
        <ele>1617</ele>
        <time>2021-08-11T11:36:52.806Z</time>
      </trkpt>
      <trkpt lat="46.87553" lon="8.49303">
        <ele>1617</ele>
        <time>2021-08-11T11:36:53.807Z</time>
      </trkpt>
      <trkpt lat="46.87552" lon="8.49304">
        <ele>1617</ele>
        <time>2021-08-11T11:36:54.807Z</time>
      </trkpt>
      <trkpt lat="46.87552" lon="8.49303">
        <ele>1617</ele>
        <time>2021-08-11T11:36:55.807Z</time>
      </trkpt>
      <trkpt lat="46.87553" lon="8.49301">
        <ele>1617</ele>
        <time>2021-08-11T11:36:56.807Z</time>
      </trkpt>
      <trkpt lat="46.87554" lon="8.493">
        <ele>1617</ele>
        <time>2021-08-11T11:36:57.806Z</time>
      </trkpt>
      <trkpt lat="46.87554" lon="8.49299">
        <ele>1617</ele>
        <time>2021-08-11T11:36:58.806Z</time>
      </trkpt>
      <trkpt lat="46.87554" lon="8.49299">
        <ele>1618</ele>
        <time>2021-08-11T11:36:59.807Z</time>
      </trkpt>
      <trkpt lat="46.87555" lon="8.49298">
        <ele>1618</ele>
        <time>2021-08-11T11:37:00.807Z</time>
      </trkpt>
      <trkpt lat="46.87555" lon="8.49298">
        <ele>1619</ele>
        <time>2021-08-11T11:37:01.807Z</time>
      </trkpt>
      <trkpt lat="46.87556" lon="8.49297">
        <ele>1619</ele>
        <time>2021-08-11T11:37:02.807Z</time>
      </trkpt>
      <trkpt lat="46.87556" lon="8.49296">
        <ele>1619</ele>
        <time>2021-08-11T11:37:03.807Z</time>
      </trkpt>
      <trkpt lat="46.87557" lon="8.49296">
        <ele>1619</ele>
        <time>2021-08-11T11:37:04.807Z</time>
      </trkpt>
      <trkpt lat="46.87557" lon="8.49295">
        <ele>1619</ele>
        <time>2021-08-11T11:37:05.807Z</time>
      </trkpt>
      <trkpt lat="46.87557" lon="8.49294">
        <ele>1619</ele>
        <time>2021-08-11T11:37:06.806Z</time>
      </trkpt>
      <trkpt lat="46.87557" lon="8.49293">
        <ele>1619</ele>
        <time>2021-08-11T11:37:07.807Z</time>
      </trkpt>
      <trkpt lat="46.87557" lon="8.49292">
        <ele>1619</ele>
        <time>2021-08-11T11:37:08.807Z</time>
      </trkpt>
      <trkpt lat="46.87557" lon="8.49292">
        <ele>1619</ele>
        <time>2021-08-11T11:37:09.807Z</time>
      </trkpt>
      <trkpt lat="46.87557" lon="8.49291">
        <ele>1619</ele>
        <time>2021-08-11T11:37:10.806Z</time>
      </trkpt>
      <trkpt lat="46.87557" lon="8.4929">
        <ele>1619</ele>
        <time>2021-08-11T11:37:11.807Z</time>
      </trkpt>
      <trkpt lat="46.87557" lon="8.4929">
        <ele>1618</ele>
        <time>2021-08-11T11:37:12.807Z</time>
      </trkpt>
      <trkpt lat="46.87558" lon="8.49289">
        <ele>1618</ele>
        <time>2021-08-11T11:37:13.807Z</time>
      </trkpt>
      <trkpt lat="46.87558" lon="8.49288">
        <ele>1617</ele>
        <time>2021-08-11T11:37:14.807Z</time>
      </trkpt>
      <trkpt lat="46.87558" lon="8.49288">
        <ele>1616</ele>
        <time>2021-08-11T11:37:15.807Z</time>
      </trkpt>
      <trkpt lat="46.87559" lon="8.49288">
        <ele>1616</ele>
        <time>2021-08-11T11:37:16.807Z</time>
      </trkpt>
      <trkpt lat="46.87559" lon="8.49287">
        <ele>1615</ele>
        <time>2021-08-11T11:37:17.806Z</time>
      </trkpt>
      <trkpt lat="46.87559" lon="8.49287">
        <ele>1614</ele>
        <time>2021-08-11T11:37:18.807Z</time>
      </trkpt>
      <trkpt lat="46.8756" lon="8.49286">
        <ele>1614</ele>
        <time>2021-08-11T11:37:19.807Z</time>
      </trkpt>
      <trkpt lat="46.87561" lon="8.49285">
        <ele>1614</ele>
        <time>2021-08-11T11:37:20.807Z</time>
      </trkpt>
      <trkpt lat="46.8756" lon="8.49285">
        <ele>1614</ele>
        <time>2021-08-11T11:37:21.807Z</time>
      </trkpt>
      <trkpt lat="46.8756" lon="8.49285">
        <ele>1614</ele>
        <time>2021-08-11T11:37:22.806Z</time>
      </trkpt>
      <trkpt lat="46.87561" lon="8.49284">
        <ele>1614</ele>
        <time>2021-08-11T11:37:23.806Z</time>
      </trkpt>
      <trkpt lat="46.87561" lon="8.49283">
        <ele>1614</ele>
        <time>2021-08-11T11:37:24.807Z</time>
      </trkpt>
      <trkpt lat="46.87562" lon="8.49282">
        <ele>1614</ele>
        <time>2021-08-11T11:37:25.807Z</time>
      </trkpt>
      <trkpt lat="46.87563" lon="8.49282">
        <ele>1614</ele>
        <time>2021-08-11T11:37:26.807Z</time>
      </trkpt>
      <trkpt lat="46.87564" lon="8.49281">
        <ele>1615</ele>
        <time>2021-08-11T11:37:27.806Z</time>
      </trkpt>
      <trkpt lat="46.87565" lon="8.49278">
        <ele>1615</ele>
        <time>2021-08-11T11:37:28.806Z</time>
      </trkpt>
      <trkpt lat="46.87566" lon="8.49276">
        <ele>1615</ele>
        <time>2021-08-11T11:37:29.807Z</time>
      </trkpt>
      <trkpt lat="46.87566" lon="8.49275">
        <ele>1615</ele>
        <time>2021-08-11T11:37:30.807Z</time>
      </trkpt>
      <trkpt lat="46.87566" lon="8.49274">
        <ele>1616</ele>
        <time>2021-08-11T11:37:31.807Z</time>
      </trkpt>
      <trkpt lat="46.87567" lon="8.49272">
        <ele>1616</ele>
        <time>2021-08-11T11:37:32.807Z</time>
      </trkpt>
      <trkpt lat="46.87567" lon="8.49271">
        <ele>1616</ele>
        <time>2021-08-11T11:37:33.806Z</time>
      </trkpt>
      <trkpt lat="46.87568" lon="8.4927">
        <ele>1617</ele>
        <time>2021-08-11T11:37:34.806Z</time>
      </trkpt>
      <trkpt lat="46.87568" lon="8.49268">
        <ele>1617</ele>
        <time>2021-08-11T11:37:35.806Z</time>
      </trkpt>
      <trkpt lat="46.87567" lon="8.49268">
        <ele>1617</ele>
        <time>2021-08-11T11:37:36.807Z</time>
      </trkpt>
      <trkpt lat="46.87565" lon="8.49268">
        <ele>1617</ele>
        <time>2021-08-11T11:37:43.926Z</time>
      </trkpt>
      <trkpt lat="46.87564" lon="8.49268">
        <ele>1617</ele>
        <time>2021-08-11T11:37:44.926Z</time>
      </trkpt>
      <trkpt lat="46.87564" lon="8.49268">
        <ele>1618</ele>
        <time>2021-08-11T11:37:45.926Z</time>
      </trkpt>
      <trkpt lat="46.87563" lon="8.49268">
        <ele>1618</ele>
        <time>2021-08-11T11:37:46.926Z</time>
      </trkpt>
      <trkpt lat="46.87563" lon="8.49267">
        <ele>1618</ele>
        <time>2021-08-11T11:37:50.035Z</time>
      </trkpt>
      <trkpt lat="46.87563" lon="8.49266">
        <ele>1618</ele>
        <time>2021-08-11T11:37:51.034Z</time>
      </trkpt>
      <trkpt lat="46.87563" lon="8.49266">
        <ele>1618</ele>
        <time>2021-08-11T11:38:08.924Z</time>
      </trkpt>
      <trkpt lat="46.87563" lon="8.49265">
        <ele>1618</ele>
        <time>2021-08-11T11:38:09.924Z</time>
      </trkpt>
      <trkpt lat="46.87563" lon="8.49265">
        <ele>1618</ele>
        <time>2021-08-11T11:38:10.925Z</time>
      </trkpt>
      <trkpt lat="46.87562" lon="8.49264">
        <ele>1618</ele>
        <time>2021-08-11T11:38:11.925Z</time>
      </trkpt>
      <trkpt lat="46.87561" lon="8.49264">
        <ele>1619</ele>
        <time>2021-08-11T11:38:56.055Z</time>
      </trkpt>
      <trkpt lat="46.8756" lon="8.49264">
        <ele>1619</ele>
        <time>2021-08-11T11:38:57.055Z</time>
      </trkpt>
      <trkpt lat="46.8756" lon="8.49262">
        <ele>1619</ele>
        <time>2021-08-11T11:40:10.178Z</time>
      </trkpt>
      <trkpt lat="46.87559" lon="8.49262">
        <ele>1620</ele>
        <time>2021-08-11T11:40:11.178Z</time>
      </trkpt>
      <trkpt lat="46.87559" lon="8.49261">
        <ele>1620</ele>
        <time>2021-08-11T11:40:12.177Z</time>
      </trkpt>
      <trkpt lat="46.87559" lon="8.49261">
        <ele>1620</ele>
        <time>2021-08-11T11:40:30.054Z</time>
      </trkpt>
      <trkpt lat="46.87559" lon="8.4926">
        <ele>1620</ele>
        <time>2021-08-11T11:40:31.055Z</time>
      </trkpt>
      <trkpt lat="46.87559" lon="8.49259">
        <ele>1620</ele>
        <time>2021-08-11T11:41:05.028Z</time>
      </trkpt>
      <trkpt lat="46.87559" lon="8.49258">
        <ele>1621</ele>
        <time>2021-08-11T11:41:06.028Z</time>
      </trkpt>
      <trkpt lat="46.87558" lon="8.49257">
        <ele>1621</ele>
        <time>2021-08-11T11:41:45.921Z</time>
      </trkpt>
      <trkpt lat="46.87557" lon="8.49257">
        <ele>1621</ele>
        <time>2021-08-11T11:41:46.920Z</time>
      </trkpt>
      <trkpt lat="46.87557" lon="8.49256">
        <ele>1622</ele>
        <time>2021-08-11T11:41:47.921Z</time>
      </trkpt>
      <trkpt lat="46.87556" lon="8.49256">
        <ele>1622</ele>
        <time>2021-08-11T11:42:11.067Z</time>
      </trkpt>
      <trkpt lat="46.87556" lon="8.49255">
        <ele>1622</ele>
        <time>2021-08-11T11:42:22.033Z</time>
      </trkpt>
      <trkpt lat="46.87556" lon="8.49255">
        <ele>1622</ele>
        <time>2021-08-11T11:42:23.033Z</time>
      </trkpt>
      <trkpt lat="46.87555" lon="8.49253">
        <ele>1622</ele>
        <time>2021-08-11T11:42:26.158Z</time>
      </trkpt>
      <trkpt lat="46.87555" lon="8.49251">
        <ele>1622</ele>
        <time>2021-08-11T11:42:27.159Z</time>
      </trkpt>
      <trkpt lat="46.87556" lon="8.49249">
        <ele>1622</ele>
        <time>2021-08-11T11:42:28.159Z</time>
      </trkpt>
      <trkpt lat="46.87555" lon="8.49249">
        <ele>1622</ele>
        <time>2021-08-11T11:42:29.159Z</time>
      </trkpt>
      <trkpt lat="46.87554" lon="8.49249">
        <ele>1622</ele>
        <time>2021-08-11T11:42:58.166Z</time>
      </trkpt>
      <trkpt lat="46.87554" lon="8.49248">
        <ele>1622</ele>
        <time>2021-08-11T11:42:59.165Z</time>
      </trkpt>
      <trkpt lat="46.87555" lon="8.49246">
        <ele>1622</ele>
        <time>2021-08-11T11:43:29.052Z</time>
      </trkpt>
      <trkpt lat="46.87556" lon="8.49243">
        <ele>1622</ele>
        <time>2021-08-11T11:44:20.924Z</time>
      </trkpt>
      <trkpt lat="46.87555" lon="8.49243">
        <ele>1622</ele>
        <time>2021-08-11T11:44:21.924Z</time>
      </trkpt>
      <trkpt lat="46.87554" lon="8.49242">
        <ele>1622</ele>
        <time>2021-08-11T11:44:40.928Z</time>
      </trkpt>
      <trkpt lat="46.87554" lon="8.49241">
        <ele>1622</ele>
        <time>2021-08-11T11:44:41.929Z</time>
      </trkpt>
      <trkpt lat="46.87554" lon="8.49239">
        <ele>1622</ele>
        <time>2021-08-11T11:44:42.929Z</time>
      </trkpt>
      <trkpt lat="46.87554" lon="8.49238">
        <ele>1622</ele>
        <time>2021-08-11T11:44:43.928Z</time>
      </trkpt>
      <trkpt lat="46.87554" lon="8.49237">
        <ele>1622</ele>
        <time>2021-08-11T11:44:44.929Z</time>
      </trkpt>
      <trkpt lat="46.87553" lon="8.49236">
        <ele>1622</ele>
        <time>2021-08-11T11:44:50.956Z</time>
      </trkpt>
      <trkpt lat="46.87553" lon="8.49235">
        <ele>1622</ele>
        <time>2021-08-11T11:44:51.957Z</time>
      </trkpt>
      <trkpt lat="46.87552" lon="8.49235">
        <ele>1621</ele>
        <time>2021-08-11T11:44:52.957Z</time>
      </trkpt>
      <trkpt lat="46.87552" lon="8.49235">
        <ele>1621</ele>
        <time>2021-08-11T11:45:12.026Z</time>
      </trkpt>
      <trkpt lat="46.87552" lon="8.49235">
        <ele>1621</ele>
        <time>2021-08-11T11:45:13.026Z</time>
      </trkpt>
      <trkpt lat="46.87552" lon="8.49235">
        <ele>1621</ele>
        <time>2021-08-11T11:45:14.025Z</time>
      </trkpt>
      <trkpt lat="46.87551" lon="8.49235">
        <ele>1621</ele>
        <time>2021-08-11T11:45:15.026Z</time>
      </trkpt>
      <trkpt lat="46.8755" lon="8.49237">
        <ele>1621</ele>
        <time>2021-08-11T11:45:16.025Z</time>
      </trkpt>
      <trkpt lat="46.87549" lon="8.49237">
        <ele>1621</ele>
        <time>2021-08-11T11:45:17.025Z</time>
      </trkpt>
      <trkpt lat="46.87548" lon="8.49237">
        <ele>1621</ele>
        <time>2021-08-11T11:45:18.026Z</time>
      </trkpt>
      <trkpt lat="46.87548" lon="8.49237">
        <ele>1621</ele>
        <time>2021-08-11T11:45:19.026Z</time>
      </trkpt>
      <trkpt lat="46.87548" lon="8.49236">
        <ele>1622</ele>
        <time>2021-08-11T11:45:20.025Z</time>
      </trkpt>
      <trkpt lat="46.87548" lon="8.49236">
        <ele>1622</ele>
        <time>2021-08-11T11:45:34.066Z</time>
      </trkpt>
      <trkpt lat="46.87546" lon="8.49236">
        <ele>1622</ele>
        <time>2021-08-11T11:45:35.066Z</time>
      </trkpt>
      <trkpt lat="46.87546" lon="8.49236">
        <ele>1622</ele>
        <time>2021-08-11T11:45:40.931Z</time>
      </trkpt>
      <trkpt lat="46.87545" lon="8.49236">
        <ele>1622</ele>
        <time>2021-08-11T11:45:41.931Z</time>
      </trkpt>
      <trkpt lat="46.87544" lon="8.49236">
        <ele>1623</ele>
        <time>2021-08-11T11:45:42.931Z</time>
      </trkpt>
      <trkpt lat="46.87543" lon="8.49235">
        <ele>1623</ele>
        <time>2021-08-11T11:45:43.931Z</time>
      </trkpt>
      <trkpt lat="46.87543" lon="8.49235">
        <ele>1623</ele>
        <time>2021-08-11T11:45:44.931Z</time>
      </trkpt>
      <trkpt lat="46.87543" lon="8.49235">
        <ele>1623</ele>
        <time>2021-08-11T11:45:45.931Z</time>
      </trkpt>
      <trkpt lat="46.87542" lon="8.49234">
        <ele>1623</ele>
        <time>2021-08-11T11:45:46.931Z</time>
      </trkpt>
      <trkpt lat="46.87542" lon="8.49234">
        <ele>1623</ele>
        <time>2021-08-11T11:45:53.073Z</time>
      </trkpt>
      <trkpt lat="46.87542" lon="8.49235">
        <ele>1623</ele>
        <time>2021-08-11T11:45:54.073Z</time>
      </trkpt>
      <trkpt lat="46.87541" lon="8.49235">
        <ele>1623</ele>
        <time>2021-08-11T11:46:01.901Z</time>
      </trkpt>
      <trkpt lat="46.87541" lon="8.49236">
        <ele>1623</ele>
        <time>2021-08-11T11:46:02.900Z</time>
      </trkpt>
      <trkpt lat="46.8754" lon="8.49236">
        <ele>1623</ele>
        <time>2021-08-11T11:46:08.813Z</time>
      </trkpt>
      <trkpt lat="46.8754" lon="8.49236">
        <ele>1623</ele>
        <time>2021-08-11T11:46:09.813Z</time>
      </trkpt>
      <trkpt lat="46.87539" lon="8.49236">
        <ele>1624</ele>
        <time>2021-08-11T11:46:10.813Z</time>
      </trkpt>
      <trkpt lat="46.87539" lon="8.49235">
        <ele>1624</ele>
        <time>2021-08-11T11:46:21.897Z</time>
      </trkpt>
      <trkpt lat="46.87539" lon="8.49235">
        <ele>1624</ele>
        <time>2021-08-11T11:46:22.896Z</time>
      </trkpt>
      <trkpt lat="46.87538" lon="8.49235">
        <ele>1624</ele>
        <time>2021-08-11T11:46:28.776Z</time>
      </trkpt>
      <trkpt lat="46.87537" lon="8.49235">
        <ele>1624</ele>
        <time>2021-08-11T11:46:29.776Z</time>
      </trkpt>
      <trkpt lat="46.87537" lon="8.49236">
        <ele>1624</ele>
        <time>2021-08-11T11:46:30.776Z</time>
      </trkpt>
      <trkpt lat="46.87536" lon="8.49236">
        <ele>1625</ele>
        <time>2021-08-11T11:46:31.776Z</time>
      </trkpt>
      <trkpt lat="46.87536" lon="8.49235">
        <ele>1625</ele>
        <time>2021-08-11T11:46:32.776Z</time>
      </trkpt>
      <trkpt lat="46.87536" lon="8.49234">
        <ele>1625</ele>
        <time>2021-08-11T11:46:33.775Z</time>
      </trkpt>
      <trkpt lat="46.87536" lon="8.49234">
        <ele>1625</ele>
        <time>2021-08-11T11:46:34.776Z</time>
      </trkpt>
      <trkpt lat="46.87535" lon="8.49233">
        <ele>1625</ele>
        <time>2021-08-11T11:46:35.776Z</time>
      </trkpt>
      <trkpt lat="46.87534" lon="8.49232">
        <ele>1625</ele>
        <time>2021-08-11T11:46:36.776Z</time>
      </trkpt>
      <trkpt lat="46.87533" lon="8.49231">
        <ele>1625</ele>
        <time>2021-08-11T11:46:45.895Z</time>
      </trkpt>
      <trkpt lat="46.87533" lon="8.49231">
        <ele>1625</ele>
        <time>2021-08-11T11:46:46.894Z</time>
      </trkpt>
      <trkpt lat="46.87532" lon="8.4923">
        <ele>1625</ele>
        <time>2021-08-11T11:46:47.895Z</time>
      </trkpt>
      <trkpt lat="46.87531" lon="8.4923">
        <ele>1625</ele>
        <time>2021-08-11T11:46:48.895Z</time>
      </trkpt>
      <trkpt lat="46.87531" lon="8.4923">
        <ele>1625</ele>
        <time>2021-08-11T11:46:49.895Z</time>
      </trkpt>
      <trkpt lat="46.87531" lon="8.49229">
        <ele>1626</ele>
        <time>2021-08-11T11:46:50.895Z</time>
      </trkpt>
      <trkpt lat="46.8753" lon="8.49228">
        <ele>1626</ele>
        <time>2021-08-11T11:46:51.895Z</time>
      </trkpt>
      <trkpt lat="46.8753" lon="8.49228">
        <ele>1626</ele>
        <time>2021-08-11T11:46:52.894Z</time>
      </trkpt>
      <trkpt lat="46.87529" lon="8.49227">
        <ele>1626</ele>
        <time>2021-08-11T11:46:53.895Z</time>
      </trkpt>
      <trkpt lat="46.87528" lon="8.49227">
        <ele>1626</ele>
        <time>2021-08-11T11:46:54.895Z</time>
      </trkpt>
      <trkpt lat="46.87526" lon="8.49227">
        <ele>1626</ele>
        <time>2021-08-11T11:46:55.895Z</time>
      </trkpt>
      <trkpt lat="46.87525" lon="8.49227">
        <ele>1626</ele>
        <time>2021-08-11T11:46:56.894Z</time>
      </trkpt>
      <trkpt lat="46.87525" lon="8.49224">
        <ele>1626</ele>
        <time>2021-08-11T11:46:57.894Z</time>
      </trkpt>
      <trkpt lat="46.87525" lon="8.49223">
        <ele>1626</ele>
        <time>2021-08-11T11:46:58.894Z</time>
      </trkpt>
      <trkpt lat="46.87524" lon="8.49223">
        <ele>1626</ele>
        <time>2021-08-11T11:46:59.895Z</time>
      </trkpt>
      <trkpt lat="46.87524" lon="8.49222">
        <ele>1626</ele>
        <time>2021-08-11T11:47:00.895Z</time>
      </trkpt>
      <trkpt lat="46.87524" lon="8.49222">
        <ele>1626</ele>
        <time>2021-08-11T11:47:04.897Z</time>
      </trkpt>
      <trkpt lat="46.87523" lon="8.49223">
        <ele>1627</ele>
        <time>2021-08-11T11:47:05.898Z</time>
      </trkpt>
      <trkpt lat="46.87522" lon="8.49224">
        <ele>1627</ele>
        <time>2021-08-11T11:47:06.898Z</time>
      </trkpt>
      <trkpt lat="46.87521" lon="8.49225">
        <ele>1628</ele>
        <time>2021-08-11T11:47:07.898Z</time>
      </trkpt>
      <trkpt lat="46.8752" lon="8.49225">
        <ele>1628</ele>
        <time>2021-08-11T11:47:08.898Z</time>
      </trkpt>
      <trkpt lat="46.8752" lon="8.49225">
        <ele>1629</ele>
        <time>2021-08-11T11:47:09.897Z</time>
      </trkpt>
      <trkpt lat="46.8752" lon="8.49225">
        <ele>1629</ele>
        <time>2021-08-11T11:47:10.897Z</time>
      </trkpt>
      <trkpt lat="46.87519" lon="8.49224">
        <ele>1630</ele>
        <time>2021-08-11T11:47:11.898Z</time>
      </trkpt>
      <trkpt lat="46.87519" lon="8.49223">
        <ele>1630</ele>
        <time>2021-08-11T11:47:12.898Z</time>
      </trkpt>
      <trkpt lat="46.87518" lon="8.49223">
        <ele>1631</ele>
        <time>2021-08-11T11:47:13.898Z</time>
      </trkpt>
      <trkpt lat="46.87518" lon="8.49222">
        <ele>1631</ele>
        <time>2021-08-11T11:47:14.898Z</time>
      </trkpt>
      <trkpt lat="46.87518" lon="8.49222">
        <ele>1631</ele>
        <time>2021-08-11T11:47:15.897Z</time>
      </trkpt>
      <trkpt lat="46.87517" lon="8.49222">
        <ele>1632</ele>
        <time>2021-08-11T11:47:16.898Z</time>
      </trkpt>
      <trkpt lat="46.87517" lon="8.49221">
        <ele>1632</ele>
        <time>2021-08-11T11:47:17.898Z</time>
      </trkpt>
      <trkpt lat="46.87517" lon="8.49221">
        <ele>1632</ele>
        <time>2021-08-11T11:47:18.898Z</time>
      </trkpt>
      <trkpt lat="46.87516" lon="8.49221">
        <ele>1632</ele>
        <time>2021-08-11T11:47:19.898Z</time>
      </trkpt>
      <trkpt lat="46.87516" lon="8.4922">
        <ele>1632</ele>
        <time>2021-08-11T11:47:20.897Z</time>
      </trkpt>
      <trkpt lat="46.87516" lon="8.4922">
        <ele>1632</ele>
        <time>2021-08-11T11:47:21.897Z</time>
      </trkpt>
      <trkpt lat="46.87516" lon="8.4922">
        <ele>1632</ele>
        <time>2021-08-11T11:47:33.043Z</time>
      </trkpt>
      <trkpt lat="46.87515" lon="8.4922">
        <ele>1632</ele>
        <time>2021-08-11T11:47:34.905Z</time>
      </trkpt>
      <trkpt lat="46.87514" lon="8.49221">
        <ele>1633</ele>
        <time>2021-08-11T11:47:35.905Z</time>
      </trkpt>
      <trkpt lat="46.87513" lon="8.49223">
        <ele>1633</ele>
        <time>2021-08-11T11:47:40.772Z</time>
      </trkpt>
      <trkpt lat="46.87513" lon="8.49223">
        <ele>1633</ele>
        <time>2021-08-11T11:47:41.771Z</time>
      </trkpt>
      <trkpt lat="46.87513" lon="8.49223">
        <ele>1634</ele>
        <time>2021-08-11T11:47:42.772Z</time>
      </trkpt>
      <trkpt lat="46.87512" lon="8.49223">
        <ele>1634</ele>
        <time>2021-08-11T11:47:46.937Z</time>
      </trkpt>
      <trkpt lat="46.87511" lon="8.49224">
        <ele>1634</ele>
        <time>2021-08-11T11:47:47.937Z</time>
      </trkpt>
      <trkpt lat="46.87511" lon="8.49224">
        <ele>1635</ele>
        <time>2021-08-11T11:47:48.937Z</time>
      </trkpt>
      <trkpt lat="46.8751" lon="8.49224">
        <ele>1635</ele>
        <time>2021-08-11T11:47:49.936Z</time>
      </trkpt>
      <trkpt lat="46.87509" lon="8.49223">
        <ele>1635</ele>
        <time>2021-08-11T11:47:50.937Z</time>
      </trkpt>
      <trkpt lat="46.87508" lon="8.49223">
        <ele>1635</ele>
        <time>2021-08-11T11:47:51.937Z</time>
      </trkpt>
      <trkpt lat="46.87508" lon="8.49222">
        <ele>1636</ele>
        <time>2021-08-11T11:47:52.937Z</time>
      </trkpt>
      <trkpt lat="46.87507" lon="8.49222">
        <ele>1636</ele>
        <time>2021-08-11T11:47:53.937Z</time>
      </trkpt>
      <trkpt lat="46.87507" lon="8.4922">
        <ele>1637</ele>
        <time>2021-08-11T11:47:54.936Z</time>
      </trkpt>
      <trkpt lat="46.87506" lon="8.4922">
        <ele>1637</ele>
        <time>2021-08-11T11:47:55.937Z</time>
      </trkpt>
      <trkpt lat="46.87506" lon="8.4922">
        <ele>1638</ele>
        <time>2021-08-11T11:47:56.937Z</time>
      </trkpt>
      <trkpt lat="46.87505" lon="8.4922">
        <ele>1638</ele>
        <time>2021-08-11T11:47:57.937Z</time>
      </trkpt>
      <trkpt lat="46.87503" lon="8.49221">
        <ele>1639</ele>
        <time>2021-08-11T11:47:58.936Z</time>
      </trkpt>
      <trkpt lat="46.87502" lon="8.49221">
        <ele>1639</ele>
        <time>2021-08-11T11:47:59.936Z</time>
      </trkpt>
      <trkpt lat="46.87501" lon="8.49221">
        <ele>1639</ele>
        <time>2021-08-11T11:48:00.936Z</time>
      </trkpt>
      <trkpt lat="46.87501" lon="8.49221">
        <ele>1640</ele>
        <time>2021-08-11T11:48:01.937Z</time>
      </trkpt>
      <trkpt lat="46.875" lon="8.4922">
        <ele>1641</ele>
        <time>2021-08-11T11:48:02.937Z</time>
      </trkpt>
      <trkpt lat="46.87499" lon="8.49219">
        <ele>1641</ele>
        <time>2021-08-11T11:48:03.937Z</time>
      </trkpt>
      <trkpt lat="46.87499" lon="8.49219">
        <ele>1642</ele>
        <time>2021-08-11T11:48:04.937Z</time>
      </trkpt>
      <trkpt lat="46.87498" lon="8.49219">
        <ele>1642</ele>
        <time>2021-08-11T11:48:09.021Z</time>
      </trkpt>
      <trkpt lat="46.87498" lon="8.4922">
        <ele>1642</ele>
        <time>2021-08-11T11:48:10.021Z</time>
      </trkpt>
      <trkpt lat="46.87498" lon="8.4922">
        <ele>1642</ele>
        <time>2021-08-11T11:48:11.021Z</time>
      </trkpt>
      <trkpt lat="46.87497" lon="8.49219">
        <ele>1643</ele>
        <time>2021-08-11T11:48:15.040Z</time>
      </trkpt>
      <trkpt lat="46.87496" lon="8.49218">
        <ele>1643</ele>
        <time>2021-08-11T11:48:16.040Z</time>
      </trkpt>
      <trkpt lat="46.87496" lon="8.49218">
        <ele>1644</ele>
        <time>2021-08-11T11:48:17.040Z</time>
      </trkpt>
      <trkpt lat="46.87495" lon="8.49217">
        <ele>1644</ele>
        <time>2021-08-11T11:48:18.040Z</time>
      </trkpt>
      <trkpt lat="46.87494" lon="8.49218">
        <ele>1644</ele>
        <time>2021-08-11T11:48:19.040Z</time>
      </trkpt>
      <trkpt lat="46.87493" lon="8.49218">
        <ele>1644</ele>
        <time>2021-08-11T11:48:20.040Z</time>
      </trkpt>
      <trkpt lat="46.87492" lon="8.49218">
        <ele>1644</ele>
        <time>2021-08-11T11:48:21.039Z</time>
      </trkpt>
      <trkpt lat="46.87492" lon="8.49219">
        <ele>1644</ele>
        <time>2021-08-11T11:48:22.040Z</time>
      </trkpt>
      <trkpt lat="46.87492" lon="8.49219">
        <ele>1644</ele>
        <time>2021-08-11T11:48:23.040Z</time>
      </trkpt>
      <trkpt lat="46.87491" lon="8.49219">
        <ele>1644</ele>
        <time>2021-08-11T11:48:24.040Z</time>
      </trkpt>
      <trkpt lat="46.87491" lon="8.4922">
        <ele>1644</ele>
        <time>2021-08-11T11:48:25.039Z</time>
      </trkpt>
      <trkpt lat="46.87489" lon="8.49221">
        <ele>1644</ele>
        <time>2021-08-11T11:48:26.039Z</time>
      </trkpt>
      <trkpt lat="46.87488" lon="8.49221">
        <ele>1644</ele>
        <time>2021-08-11T11:48:27.039Z</time>
      </trkpt>
      <trkpt lat="46.87488" lon="8.49222">
        <ele>1644</ele>
        <time>2021-08-11T11:48:39.158Z</time>
      </trkpt>
      <trkpt lat="46.87487" lon="8.49223">
        <ele>1644</ele>
        <time>2021-08-11T11:48:40.158Z</time>
      </trkpt>
      <trkpt lat="46.87486" lon="8.49223">
        <ele>1644</ele>
        <time>2021-08-11T11:48:48.037Z</time>
      </trkpt>
      <trkpt lat="46.87486" lon="8.49224">
        <ele>1644</ele>
        <time>2021-08-11T11:48:49.036Z</time>
      </trkpt>
      <trkpt lat="46.87485" lon="8.49225">
        <ele>1644</ele>
        <time>2021-08-11T11:48:53.159Z</time>
      </trkpt>
      <trkpt lat="46.87484" lon="8.49225">
        <ele>1644</ele>
        <time>2021-08-11T11:48:54.159Z</time>
      </trkpt>
      <trkpt lat="46.87483" lon="8.49224">
        <ele>1644</ele>
        <time>2021-08-11T11:48:55.160Z</time>
      </trkpt>
      <trkpt lat="46.87483" lon="8.49224">
        <ele>1644</ele>
        <time>2021-08-11T11:48:56.160Z</time>
      </trkpt>
      <trkpt lat="46.87483" lon="8.49224">
        <ele>1643</ele>
        <time>2021-08-11T11:48:57.160Z</time>
      </trkpt>
      <trkpt lat="46.87482" lon="8.49224">
        <ele>1643</ele>
        <time>2021-08-11T11:48:58.159Z</time>
      </trkpt>
      <trkpt lat="46.87482" lon="8.49225">
        <ele>1642</ele>
        <time>2021-08-11T11:48:59.160Z</time>
      </trkpt>
      <trkpt lat="46.87481" lon="8.49224">
        <ele>1642</ele>
        <time>2021-08-11T11:49:00.160Z</time>
      </trkpt>
      <trkpt lat="46.8748" lon="8.49224">
        <ele>1642</ele>
        <time>2021-08-11T11:49:01.160Z</time>
      </trkpt>
      <trkpt lat="46.87481" lon="8.49223">
        <ele>1642</ele>
        <time>2021-08-11T11:49:02.160Z</time>
      </trkpt>
      <trkpt lat="46.87481" lon="8.49223">
        <ele>1642</ele>
        <time>2021-08-11T11:49:03.159Z</time>
      </trkpt>
      <trkpt lat="46.8748" lon="8.49224">
        <ele>1642</ele>
        <time>2021-08-11T11:49:04.159Z</time>
      </trkpt>
      <trkpt lat="46.87479" lon="8.49224">
        <ele>1642</ele>
        <time>2021-08-11T11:49:05.159Z</time>
      </trkpt>
      <trkpt lat="46.87478" lon="8.49224">
        <ele>1642</ele>
        <time>2021-08-11T11:49:06.160Z</time>
      </trkpt>
      <trkpt lat="46.87477" lon="8.49224">
        <ele>1642</ele>
        <time>2021-08-11T11:49:07.160Z</time>
      </trkpt>
      <trkpt lat="46.87476" lon="8.49224">
        <ele>1642</ele>
        <time>2021-08-11T11:49:08.159Z</time>
      </trkpt>
      <trkpt lat="46.87476" lon="8.49225">
        <ele>1641</ele>
        <time>2021-08-11T11:49:09.160Z</time>
      </trkpt>
      <trkpt lat="46.87475" lon="8.49225">
        <ele>1641</ele>
        <time>2021-08-11T11:49:11.268Z</time>
      </trkpt>
      <trkpt lat="46.87474" lon="8.49225">
        <ele>1640</ele>
        <time>2021-08-11T11:49:12.268Z</time>
      </trkpt>
      <trkpt lat="46.87474" lon="8.49225">
        <ele>1640</ele>
        <time>2021-08-11T11:49:13.268Z</time>
      </trkpt>
      <trkpt lat="46.87474" lon="8.49225">
        <ele>1639</ele>
        <time>2021-08-11T11:49:14.268Z</time>
      </trkpt>
      <trkpt lat="46.87473" lon="8.49224">
        <ele>1634</ele>
        <time>2021-08-11T11:49:15.267Z</time>
      </trkpt>
      <trkpt lat="46.87473" lon="8.49224">
        <ele>1633</ele>
        <time>2021-08-11T11:49:16.267Z</time>
      </trkpt>
      <trkpt lat="46.87473" lon="8.49224">
        <ele>1633</ele>
        <time>2021-08-11T11:49:17.267Z</time>
      </trkpt>
      <trkpt lat="46.87473" lon="8.49224">
        <ele>1632</ele>
        <time>2021-08-11T11:49:18.267Z</time>
      </trkpt>
      <trkpt lat="46.87473" lon="8.49224">
        <ele>1632</ele>
        <time>2021-08-11T11:49:19.268Z</time>
      </trkpt>
      <trkpt lat="46.87473" lon="8.49224">
        <ele>1632</ele>
        <time>2021-08-11T11:49:20.268Z</time>
      </trkpt>
      <trkpt lat="46.87473" lon="8.49224">
        <ele>1632</ele>
        <time>2021-08-11T11:49:21.268Z</time>
      </trkpt>
      <trkpt lat="46.87472" lon="8.49224">
        <ele>1632</ele>
        <time>2021-08-11T11:49:22.268Z</time>
      </trkpt>
      <trkpt lat="46.87472" lon="8.49223">
        <ele>1632</ele>
        <time>2021-08-11T11:49:23.268Z</time>
      </trkpt>
      <trkpt lat="46.87472" lon="8.49223">
        <ele>1633</ele>
        <time>2021-08-11T11:49:24.267Z</time>
      </trkpt>
      <trkpt lat="46.87473" lon="8.49222">
        <ele>1633</ele>
        <time>2021-08-11T11:49:25.268Z</time>
      </trkpt>
      <trkpt lat="46.87473" lon="8.49222">
        <ele>1634</ele>
        <time>2021-08-11T11:49:26.268Z</time>
      </trkpt>
      <trkpt lat="46.87473" lon="8.49221">
        <ele>1634</ele>
        <time>2021-08-11T11:49:28.368Z</time>
      </trkpt>
      <trkpt lat="46.87473" lon="8.4922">
        <ele>1635</ele>
        <time>2021-08-11T11:49:29.368Z</time>
      </trkpt>
      <trkpt lat="46.87473" lon="8.49219">
        <ele>1635</ele>
        <time>2021-08-11T11:49:30.368Z</time>
      </trkpt>
      <trkpt lat="46.87474" lon="8.49219">
        <ele>1635</ele>
        <time>2021-08-11T11:49:37.386Z</time>
      </trkpt>
      <trkpt lat="46.87475" lon="8.49219">
        <ele>1636</ele>
        <time>2021-08-11T11:49:38.386Z</time>
      </trkpt>
      <trkpt lat="46.87476" lon="8.49219">
        <ele>1636</ele>
        <time>2021-08-11T11:49:39.386Z</time>
      </trkpt>
      <trkpt lat="46.87476" lon="8.49219">
        <ele>1636</ele>
        <time>2021-08-11T11:49:40.385Z</time>
      </trkpt>
      <trkpt lat="46.87478" lon="8.49218">
        <ele>1637</ele>
        <time>2021-08-11T11:49:41.387Z</time>
      </trkpt>
      <trkpt lat="46.87479" lon="8.49217">
        <ele>1637</ele>
        <time>2021-08-11T11:49:42.386Z</time>
      </trkpt>
      <trkpt lat="46.87481" lon="8.49216">
        <ele>1637</ele>
        <time>2021-08-11T11:49:43.386Z</time>
      </trkpt>
      <trkpt lat="46.87482" lon="8.49216">
        <ele>1637</ele>
        <time>2021-08-11T11:49:44.387Z</time>
      </trkpt>
      <trkpt lat="46.87484" lon="8.49215">
        <ele>1638</ele>
        <time>2021-08-11T11:49:45.387Z</time>
      </trkpt>
      <trkpt lat="46.87485" lon="8.49215">
        <ele>1639</ele>
        <time>2021-08-11T11:49:53.512Z</time>
      </trkpt>
      <trkpt lat="46.87486" lon="8.49215">
        <ele>1639</ele>
        <time>2021-08-11T11:49:54.513Z</time>
      </trkpt>
      <trkpt lat="46.87487" lon="8.49214">
        <ele>1640</ele>
        <time>2021-08-11T11:49:55.513Z</time>
      </trkpt>
      <trkpt lat="46.87488" lon="8.49214">
        <ele>1640</ele>
        <time>2021-08-11T11:49:56.513Z</time>
      </trkpt>
      <trkpt lat="46.87489" lon="8.49213">
        <ele>1640</ele>
        <time>2021-08-11T11:49:57.513Z</time>
      </trkpt>
      <trkpt lat="46.87489" lon="8.49212">
        <ele>1640</ele>
        <time>2021-08-11T11:49:58.512Z</time>
      </trkpt>
      <trkpt lat="46.87489" lon="8.49211">
        <ele>1640</ele>
        <time>2021-08-11T11:49:59.513Z</time>
      </trkpt>
      <trkpt lat="46.8749" lon="8.49211">
        <ele>1640</ele>
        <time>2021-08-11T11:50:00.512Z</time>
      </trkpt>
      <trkpt lat="46.87491" lon="8.4921">
        <ele>1640</ele>
        <time>2021-08-11T11:50:01.512Z</time>
      </trkpt>
      <trkpt lat="46.87492" lon="8.49209">
        <ele>1639</ele>
        <time>2021-08-11T11:50:13.652Z</time>
      </trkpt>
      <trkpt lat="46.87493" lon="8.49209">
        <ele>1639</ele>
        <time>2021-08-11T11:50:14.652Z</time>
      </trkpt>
      <trkpt lat="46.87493" lon="8.49208">
        <ele>1640</ele>
        <time>2021-08-11T11:50:15.653Z</time>
      </trkpt>
      <trkpt lat="46.87495" lon="8.49207">
        <ele>1640</ele>
        <time>2021-08-11T11:50:16.653Z</time>
      </trkpt>
      <trkpt lat="46.87497" lon="8.49207">
        <ele>1641</ele>
        <time>2021-08-11T11:50:17.652Z</time>
      </trkpt>
      <trkpt lat="46.87497" lon="8.49206">
        <ele>1641</ele>
        <time>2021-08-11T11:50:18.652Z</time>
      </trkpt>
      <trkpt lat="46.87498" lon="8.49205">
        <ele>1642</ele>
        <time>2021-08-11T11:50:19.653Z</time>
      </trkpt>
      <trkpt lat="46.87499" lon="8.49204">
        <ele>1642</ele>
        <time>2021-08-11T11:50:24.797Z</time>
      </trkpt>
      <trkpt lat="46.87499" lon="8.49203">
        <ele>1643</ele>
        <time>2021-08-11T11:50:25.796Z</time>
      </trkpt>
      <trkpt lat="46.875" lon="8.49203">
        <ele>1643</ele>
        <time>2021-08-11T11:50:26.797Z</time>
      </trkpt>
      <trkpt lat="46.875" lon="8.49203">
        <ele>1644</ele>
        <time>2021-08-11T11:50:36.905Z</time>
      </trkpt>
      <trkpt lat="46.87501" lon="8.49202">
        <ele>1645</ele>
        <time>2021-08-11T11:50:37.905Z</time>
      </trkpt>
      <trkpt lat="46.87501" lon="8.49202">
        <ele>1646</ele>
        <time>2021-08-11T11:50:38.904Z</time>
      </trkpt>
      <trkpt lat="46.87501" lon="8.49201">
        <ele>1646</ele>
        <time>2021-08-11T11:50:39.905Z</time>
      </trkpt>
      <trkpt lat="46.87501" lon="8.492">
        <ele>1647</ele>
        <time>2021-08-11T11:50:40.904Z</time>
      </trkpt>
      <trkpt lat="46.87502" lon="8.49199">
        <ele>1648</ele>
        <time>2021-08-11T11:50:41.905Z</time>
      </trkpt>
      <trkpt lat="46.87502" lon="8.49198">
        <ele>1649</ele>
        <time>2021-08-11T11:50:47.008Z</time>
      </trkpt>
      <trkpt lat="46.87503" lon="8.49197">
        <ele>1649</ele>
        <time>2021-08-11T11:50:48.007Z</time>
      </trkpt>
      <trkpt lat="46.87503" lon="8.49197">
        <ele>1650</ele>
        <time>2021-08-11T11:51:04.132Z</time>
      </trkpt>
      <trkpt lat="46.87503" lon="8.49196">
        <ele>1651</ele>
        <time>2021-08-11T11:51:05.132Z</time>
      </trkpt>
      <trkpt lat="46.87504" lon="8.49195">
        <ele>1652</ele>
        <time>2021-08-11T11:51:06.132Z</time>
      </trkpt>
      <trkpt lat="46.87505" lon="8.49195">
        <ele>1653</ele>
        <time>2021-08-11T11:51:14.256Z</time>
      </trkpt>
      <trkpt lat="46.87505" lon="8.49195">
        <ele>1653</ele>
        <time>2021-08-11T11:51:15.256Z</time>
      </trkpt>
      <trkpt lat="46.87506" lon="8.49194">
        <ele>1654</ele>
        <time>2021-08-11T11:51:16.255Z</time>
      </trkpt>
      <trkpt lat="46.87507" lon="8.49194">
        <ele>1655</ele>
        <time>2021-08-11T11:51:19.364Z</time>
      </trkpt>
      <trkpt lat="46.87507" lon="8.49193">
        <ele>1655</ele>
        <time>2021-08-11T11:51:20.364Z</time>
      </trkpt>
      <trkpt lat="46.87506" lon="8.49193">
        <ele>1656</ele>
        <time>2021-08-11T11:51:21.364Z</time>
      </trkpt>
      <trkpt lat="46.87507" lon="8.49193">
        <ele>1656</ele>
        <time>2021-08-11T11:51:22.364Z</time>
      </trkpt>
      <trkpt lat="46.87507" lon="8.49192">
        <ele>1656</ele>
        <time>2021-08-11T11:51:23.363Z</time>
      </trkpt>
      <trkpt lat="46.87507" lon="8.49191">
        <ele>1656</ele>
        <time>2021-08-11T11:51:24.363Z</time>
      </trkpt>
      <trkpt lat="46.87508" lon="8.49191">
        <ele>1656</ele>
        <time>2021-08-11T11:51:25.364Z</time>
      </trkpt>
      <trkpt lat="46.87509" lon="8.4919">
        <ele>1656</ele>
        <time>2021-08-11T11:51:26.363Z</time>
      </trkpt>
      <trkpt lat="46.8751" lon="8.49189">
        <ele>1656</ele>
        <time>2021-08-11T11:51:27.363Z</time>
      </trkpt>
      <trkpt lat="46.87511" lon="8.49188">
        <ele>1656</ele>
        <time>2021-08-11T11:51:28.364Z</time>
      </trkpt>
      <trkpt lat="46.87512" lon="8.49188">
        <ele>1657</ele>
        <time>2021-08-11T11:51:29.364Z</time>
      </trkpt>
      <trkpt lat="46.87512" lon="8.49187">
        <ele>1657</ele>
        <time>2021-08-11T11:51:31.513Z</time>
      </trkpt>
      <trkpt lat="46.87512" lon="8.49187">
        <ele>1657</ele>
        <time>2021-08-11T11:51:32.513Z</time>
      </trkpt>
      <trkpt lat="46.87512" lon="8.49186">
        <ele>1657</ele>
        <time>2021-08-11T11:51:33.512Z</time>
      </trkpt>
      <trkpt lat="46.87513" lon="8.49185">
        <ele>1657</ele>
        <time>2021-08-11T11:51:34.512Z</time>
      </trkpt>
      <trkpt lat="46.87513" lon="8.49185">
        <ele>1657</ele>
        <time>2021-08-11T11:51:56.657Z</time>
      </trkpt>
      <trkpt lat="46.87513" lon="8.49184">
        <ele>1657</ele>
        <time>2021-08-11T11:51:57.658Z</time>
      </trkpt>
      <trkpt lat="46.87513" lon="8.49184">
        <ele>1657</ele>
        <time>2021-08-11T11:51:58.658Z</time>
      </trkpt>
      <trkpt lat="46.87513" lon="8.49183">
        <ele>1657</ele>
        <time>2021-08-11T11:51:59.658Z</time>
      </trkpt>
      <trkpt lat="46.87514" lon="8.49182">
        <ele>1658</ele>
        <time>2021-08-11T11:52:00.658Z</time>
      </trkpt>
      <trkpt lat="46.87514" lon="8.49181">
        <ele>1658</ele>
        <time>2021-08-11T11:52:01.658Z</time>
      </trkpt>
      <trkpt lat="46.87514" lon="8.49181">
        <ele>1658</ele>
        <time>2021-08-11T11:52:02.658Z</time>
      </trkpt>
      <trkpt lat="46.87515" lon="8.4918">
        <ele>1658</ele>
        <time>2021-08-11T11:52:03.658Z</time>
      </trkpt>
      <trkpt lat="46.87515" lon="8.4918">
        <ele>1658</ele>
        <time>2021-08-11T11:52:05.737Z</time>
      </trkpt>
      <trkpt lat="46.87516" lon="8.49179">
        <ele>1658</ele>
        <time>2021-08-11T11:52:13.628Z</time>
      </trkpt>
      <trkpt lat="46.87516" lon="8.49178">
        <ele>1658</ele>
        <time>2021-08-11T11:52:27.508Z</time>
      </trkpt>
      <trkpt lat="46.87516" lon="8.49178">
        <ele>1658</ele>
        <time>2021-08-11T11:53:15.397Z</time>
      </trkpt>
      <trkpt lat="46.87516" lon="8.49177">
        <ele>1658</ele>
        <time>2021-08-11T11:53:32.371Z</time>
      </trkpt>
      <trkpt lat="46.87516" lon="8.49177">
        <ele>1658</ele>
        <time>2021-08-11T11:53:33.372Z</time>
      </trkpt>
      <trkpt lat="46.87517" lon="8.49176">
        <ele>1658</ele>
        <time>2021-08-11T11:53:34.372Z</time>
      </trkpt>
      <trkpt lat="46.87518" lon="8.49176">
        <ele>1658</ele>
        <time>2021-08-11T11:53:35.372Z</time>
      </trkpt>
      <trkpt lat="46.87518" lon="8.49176">
        <ele>1658</ele>
        <time>2021-08-11T11:53:36.371Z</time>
      </trkpt>
      <trkpt lat="46.87519" lon="8.49175">
        <ele>1658</ele>
        <time>2021-08-11T11:53:37.372Z</time>
      </trkpt>
      <trkpt lat="46.8752" lon="8.49174">
        <ele>1658</ele>
        <time>2021-08-11T11:53:38.372Z</time>
      </trkpt>
      <trkpt lat="46.87521" lon="8.49172">
        <ele>1658</ele>
        <time>2021-08-11T11:53:40.359Z</time>
      </trkpt>
      <trkpt lat="46.87521" lon="8.49172">
        <ele>1658</ele>
        <time>2021-08-11T11:53:41.358Z</time>
      </trkpt>
      <trkpt lat="46.87522" lon="8.4917">
        <ele>1658</ele>
        <time>2021-08-11T11:53:42.359Z</time>
      </trkpt>
      <trkpt lat="46.87523" lon="8.49169">
        <ele>1659</ele>
        <time>2021-08-11T11:53:43.359Z</time>
      </trkpt>
      <trkpt lat="46.87523" lon="8.49168">
        <ele>1659</ele>
        <time>2021-08-11T11:53:46.360Z</time>
      </trkpt>
      <trkpt lat="46.87523" lon="8.49168">
        <ele>1658</ele>
        <time>2021-08-11T11:53:50.271Z</time>
      </trkpt>
      <trkpt lat="46.87523" lon="8.49167">
        <ele>1658</ele>
        <time>2021-08-11T11:53:51.270Z</time>
      </trkpt>
      <trkpt lat="46.87523" lon="8.49167">
        <ele>1658</ele>
        <time>2021-08-11T11:53:52.271Z</time>
      </trkpt>
      <trkpt lat="46.87524" lon="8.49166">
        <ele>1658</ele>
        <time>2021-08-11T11:53:55.359Z</time>
      </trkpt>
      <trkpt lat="46.87524" lon="8.49165">
        <ele>1659</ele>
        <time>2021-08-11T11:53:56.359Z</time>
      </trkpt>
      <trkpt lat="46.87525" lon="8.49165">
        <ele>1659</ele>
        <time>2021-08-11T11:54:01.251Z</time>
      </trkpt>
      <trkpt lat="46.87525" lon="8.49164">
        <ele>1659</ele>
        <time>2021-08-11T11:54:02.251Z</time>
      </trkpt>
      <trkpt lat="46.87525" lon="8.49164">
        <ele>1660</ele>
        <time>2021-08-11T11:54:14.122Z</time>
      </trkpt>
      <trkpt lat="46.87525" lon="8.49164">
        <ele>1660</ele>
        <time>2021-08-11T11:54:15.122Z</time>
      </trkpt>
      <trkpt lat="46.87526" lon="8.49163">
        <ele>1661</ele>
        <time>2021-08-11T11:54:16.122Z</time>
      </trkpt>
      <trkpt lat="46.87526" lon="8.49162">
        <ele>1661</ele>
        <time>2021-08-11T11:54:17.121Z</time>
      </trkpt>
      <trkpt lat="46.87526" lon="8.49162">
        <ele>1662</ele>
        <time>2021-08-11T11:54:19.272Z</time>
      </trkpt>
      <trkpt lat="46.87527" lon="8.49161">
        <ele>1662</ele>
        <time>2021-08-11T11:54:27.272Z</time>
      </trkpt>
      <trkpt lat="46.87527" lon="8.49161">
        <ele>1662</ele>
        <time>2021-08-11T11:54:28.271Z</time>
      </trkpt>
      <trkpt lat="46.87528" lon="8.4916">
        <ele>1663</ele>
        <time>2021-08-11T11:54:29.271Z</time>
      </trkpt>
      <trkpt lat="46.87528" lon="8.4916">
        <ele>1663</ele>
        <time>2021-08-11T11:54:30.271Z</time>
      </trkpt>
      <trkpt lat="46.87528" lon="8.49159">
        <ele>1663</ele>
        <time>2021-08-11T11:54:31.272Z</time>
      </trkpt>
      <trkpt lat="46.87528" lon="8.49159">
        <ele>1663</ele>
        <time>2021-08-11T11:54:32.272Z</time>
      </trkpt>
      <trkpt lat="46.87528" lon="8.4916">
        <ele>1664</ele>
        <time>2021-08-11T11:54:40.371Z</time>
      </trkpt>
      <trkpt lat="46.87528" lon="8.4916">
        <ele>1664</ele>
        <time>2021-08-11T11:54:41.371Z</time>
      </trkpt>
      <trkpt lat="46.87528" lon="8.4916">
        <ele>1664</ele>
        <time>2021-08-11T11:54:42.370Z</time>
      </trkpt>
      <trkpt lat="46.87529" lon="8.4916">
        <ele>1664</ele>
        <time>2021-08-11T11:54:46.493Z</time>
      </trkpt>
      <trkpt lat="46.8753" lon="8.4916">
        <ele>1666</ele>
        <time>2021-08-11T11:54:47.494Z</time>
      </trkpt>
      <trkpt lat="46.87532" lon="8.4916">
        <ele>1666</ele>
        <time>2021-08-11T11:54:48.494Z</time>
      </trkpt>
      <trkpt lat="46.87533" lon="8.4916">
        <ele>1666</ele>
        <time>2021-08-11T11:54:51.603Z</time>
      </trkpt>
      <trkpt lat="46.87535" lon="8.49159">
        <ele>1666</ele>
        <time>2021-08-11T11:54:52.604Z</time>
      </trkpt>
      <trkpt lat="46.87536" lon="8.49158">
        <ele>1667</ele>
        <time>2021-08-11T11:54:53.604Z</time>
      </trkpt>
      <trkpt lat="46.87538" lon="8.49157">
        <ele>1667</ele>
        <time>2021-08-11T11:54:54.604Z</time>
      </trkpt>
      <trkpt lat="46.87538" lon="8.49157">
        <ele>1667</ele>
        <time>2021-08-11T11:54:55.603Z</time>
      </trkpt>
      <trkpt lat="46.87537" lon="8.49156">
        <ele>1667</ele>
        <time>2021-08-11T11:54:56.603Z</time>
      </trkpt>
      <trkpt lat="46.87535" lon="8.49157">
        <ele>1667</ele>
        <time>2021-08-11T11:54:57.604Z</time>
      </trkpt>
      <trkpt lat="46.87534" lon="8.49159">
        <ele>1666</ele>
        <time>2021-08-11T11:54:58.604Z</time>
      </trkpt>
      <trkpt lat="46.87534" lon="8.4916">
        <ele>1666</ele>
        <time>2021-08-11T11:54:59.604Z</time>
      </trkpt>
      <trkpt lat="46.87534" lon="8.4916">
        <ele>1666</ele>
        <time>2021-08-11T11:55:00.603Z</time>
      </trkpt>
      <trkpt lat="46.87534" lon="8.4916">
        <ele>1666</ele>
        <time>2021-08-11T11:55:01.604Z</time>
      </trkpt>
      <trkpt lat="46.87535" lon="8.49159">
        <ele>1665</ele>
        <time>2021-08-11T11:55:02.605Z</time>
      </trkpt>
      <trkpt lat="46.87535" lon="8.49159">
        <ele>1664</ele>
        <time>2021-08-11T11:55:10.744Z</time>
      </trkpt>
      <trkpt lat="46.87535" lon="8.49159">
        <ele>1664</ele>
        <time>2021-08-11T11:55:11.743Z</time>
      </trkpt>
      <trkpt lat="46.87535" lon="8.49159">
        <ele>1664</ele>
        <time>2021-08-11T11:55:12.744Z</time>
      </trkpt>
      <trkpt lat="46.87535" lon="8.49159">
        <ele>1663</ele>
        <time>2021-08-11T11:55:13.743Z</time>
      </trkpt>
      <trkpt lat="46.87536" lon="8.49158">
        <ele>1663</ele>
        <time>2021-08-11T11:55:14.744Z</time>
      </trkpt>
      <trkpt lat="46.87536" lon="8.49158">
        <ele>1663</ele>
        <time>2021-08-11T11:55:15.744Z</time>
      </trkpt>
      <trkpt lat="46.87536" lon="8.49159">
        <ele>1663</ele>
        <time>2021-08-11T11:55:16.743Z</time>
      </trkpt>
      <trkpt lat="46.87537" lon="8.4916">
        <ele>1663</ele>
        <time>2021-08-11T11:55:17.744Z</time>
      </trkpt>
      <trkpt lat="46.87537" lon="8.4916">
        <ele>1664</ele>
        <time>2021-08-11T11:55:20.874Z</time>
      </trkpt>
      <trkpt lat="46.87538" lon="8.4916">
        <ele>1664</ele>
        <time>2021-08-11T11:55:21.873Z</time>
      </trkpt>
      <trkpt lat="46.87536" lon="8.49161">
        <ele>1664</ele>
        <time>2021-08-11T11:55:22.874Z</time>
      </trkpt>
      <trkpt lat="46.87536" lon="8.4916">
        <ele>1664</ele>
        <time>2021-08-11T11:55:23.874Z</time>
      </trkpt>
      <trkpt lat="46.87537" lon="8.4916">
        <ele>1664</ele>
        <time>2021-08-11T11:55:24.873Z</time>
      </trkpt>
      <trkpt lat="46.87537" lon="8.4916">
        <ele>1664</ele>
        <time>2021-08-11T11:55:25.873Z</time>
      </trkpt>
      <trkpt lat="46.87537" lon="8.4916">
        <ele>1664</ele>
        <time>2021-08-11T11:55:26.873Z</time>
      </trkpt>
      <trkpt lat="46.87536" lon="8.49161">
        <ele>1664</ele>
        <time>2021-08-11T11:55:27.874Z</time>
      </trkpt>
      <trkpt lat="46.87535" lon="8.49162">
        <ele>1664</ele>
        <time>2021-08-11T11:55:28.874Z</time>
      </trkpt>
      <trkpt lat="46.87535" lon="8.49162">
        <ele>1664</ele>
        <time>2021-08-11T11:55:29.874Z</time>
      </trkpt>
      <trkpt lat="46.87536" lon="8.49162">
        <ele>1664</ele>
        <time>2021-08-11T11:55:38.015Z</time>
      </trkpt>
      <trkpt lat="46.87536" lon="8.49162">
        <ele>1663</ele>
        <time>2021-08-11T11:55:39.014Z</time>
      </trkpt>
      <trkpt lat="46.87536" lon="8.49161">
        <ele>1663</ele>
        <time>2021-08-11T11:55:40.015Z</time>
      </trkpt>
      <trkpt lat="46.87536" lon="8.49161">
        <ele>1663</ele>
        <time>2021-08-11T11:55:41.015Z</time>
      </trkpt>
      <trkpt lat="46.87536" lon="8.49162">
        <ele>1663</ele>
        <time>2021-08-11T11:55:42.015Z</time>
      </trkpt>
      <trkpt lat="46.87536" lon="8.49162">
        <ele>1662</ele>
        <time>2021-08-11T11:55:43.015Z</time>
      </trkpt>
      <trkpt lat="46.87537" lon="8.49161">
        <ele>1662</ele>
        <time>2021-08-11T11:55:44.015Z</time>
      </trkpt>
      <trkpt lat="46.87538" lon="8.4916">
        <ele>1662</ele>
        <time>2021-08-11T11:55:45.014Z</time>
      </trkpt>
      <trkpt lat="46.8754" lon="8.49158">
        <ele>1662</ele>
        <time>2021-08-11T11:55:46.014Z</time>
      </trkpt>
      <trkpt lat="46.8754" lon="8.49157">
        <ele>1662</ele>
        <time>2021-08-11T11:55:47.015Z</time>
      </trkpt>
      <trkpt lat="46.87541" lon="8.49157">
        <ele>1662</ele>
        <time>2021-08-11T11:55:48.015Z</time>
      </trkpt>
      <trkpt lat="46.87542" lon="8.49157">
        <ele>1662</ele>
        <time>2021-08-11T11:55:49.014Z</time>
      </trkpt>
      <trkpt lat="46.87542" lon="8.49156">
        <ele>1662</ele>
        <time>2021-08-11T11:55:50.015Z</time>
      </trkpt>
      <trkpt lat="46.87542" lon="8.49156">
        <ele>1662</ele>
        <time>2021-08-11T11:55:51.015Z</time>
      </trkpt>
      <trkpt lat="46.87542" lon="8.49154">
        <ele>1662</ele>
        <time>2021-08-11T11:55:52.014Z</time>
      </trkpt>
      <trkpt lat="46.87542" lon="8.49153">
        <ele>1662</ele>
        <time>2021-08-11T11:55:53.015Z</time>
      </trkpt>
      <trkpt lat="46.87542" lon="8.49153">
        <ele>1662</ele>
        <time>2021-08-11T11:55:54.015Z</time>
      </trkpt>
      <trkpt lat="46.87543" lon="8.49153">
        <ele>1662</ele>
        <time>2021-08-11T11:55:55.015Z</time>
      </trkpt>
      <trkpt lat="46.87543" lon="8.49152">
        <ele>1662</ele>
        <time>2021-08-11T11:55:56.015Z</time>
      </trkpt>
      <trkpt lat="46.87543" lon="8.49151">
        <ele>1662</ele>
        <time>2021-08-11T11:55:57.015Z</time>
      </trkpt>
      <trkpt lat="46.87543" lon="8.4915">
        <ele>1662</ele>
        <time>2021-08-11T11:55:58.015Z</time>
      </trkpt>
      <trkpt lat="46.87543" lon="8.49148">
        <ele>1662</ele>
        <time>2021-08-11T11:55:59.015Z</time>
      </trkpt>
      <trkpt lat="46.87543" lon="8.49146">
        <ele>1662</ele>
        <time>2021-08-11T11:56:00.015Z</time>
      </trkpt>
      <trkpt lat="46.87543" lon="8.49145">
        <ele>1662</ele>
        <time>2021-08-11T11:56:01.015Z</time>
      </trkpt>
      <trkpt lat="46.87543" lon="8.49145">
        <ele>1662</ele>
        <time>2021-08-11T11:56:02.015Z</time>
      </trkpt>
      <trkpt lat="46.87543" lon="8.49144">
        <ele>1662</ele>
        <time>2021-08-11T11:56:03.014Z</time>
      </trkpt>
      <trkpt lat="46.87543" lon="8.49143">
        <ele>1663</ele>
        <time>2021-08-11T11:56:04.015Z</time>
      </trkpt>
      <trkpt lat="46.87543" lon="8.49141">
        <ele>1663</ele>
        <time>2021-08-11T11:56:05.015Z</time>
      </trkpt>
      <trkpt lat="46.87542" lon="8.49141">
        <ele>1663</ele>
        <time>2021-08-11T11:56:06.014Z</time>
      </trkpt>
      <trkpt lat="46.87541" lon="8.4914">
        <ele>1664</ele>
        <time>2021-08-11T11:56:07.014Z</time>
      </trkpt>
      <trkpt lat="46.8754" lon="8.49141">
        <ele>1664</ele>
        <time>2021-08-11T11:56:08.014Z</time>
      </trkpt>
      <trkpt lat="46.8754" lon="8.49141">
        <ele>1665</ele>
        <time>2021-08-11T11:56:09.014Z</time>
      </trkpt>
      <trkpt lat="46.8754" lon="8.4914">
        <ele>1665</ele>
        <time>2021-08-11T11:56:10.015Z</time>
      </trkpt>
      <trkpt lat="46.8754" lon="8.49139">
        <ele>1665</ele>
        <time>2021-08-11T11:56:11.015Z</time>
      </trkpt>
      <trkpt lat="46.87539" lon="8.49138">
        <ele>1666</ele>
        <time>2021-08-11T11:56:12.014Z</time>
      </trkpt>
      <trkpt lat="46.87539" lon="8.49137">
        <ele>1666</ele>
        <time>2021-08-11T11:56:13.015Z</time>
      </trkpt>
      <trkpt lat="46.87539" lon="8.49136">
        <ele>1666</ele>
        <time>2021-08-11T11:56:14.015Z</time>
      </trkpt>
      <trkpt lat="46.87538" lon="8.49136">
        <ele>1666</ele>
        <time>2021-08-11T11:56:15.015Z</time>
      </trkpt>
      <trkpt lat="46.87538" lon="8.49135">
        <ele>1666</ele>
        <time>2021-08-11T11:56:16.015Z</time>
      </trkpt>
      <trkpt lat="46.87538" lon="8.49134">
        <ele>1666</ele>
        <time>2021-08-11T11:56:17.015Z</time>
      </trkpt>
      <trkpt lat="46.87538" lon="8.49133">
        <ele>1666</ele>
        <time>2021-08-11T11:56:18.015Z</time>
      </trkpt>
      <trkpt lat="46.87538" lon="8.49132">
        <ele>1666</ele>
        <time>2021-08-11T11:56:19.015Z</time>
      </trkpt>
      <trkpt lat="46.87537" lon="8.49132">
        <ele>1666</ele>
        <time>2021-08-11T11:56:20.015Z</time>
      </trkpt>
      <trkpt lat="46.87537" lon="8.49131">
        <ele>1666</ele>
        <time>2021-08-11T11:56:21.014Z</time>
      </trkpt>
      <trkpt lat="46.87536" lon="8.49131">
        <ele>1666</ele>
        <time>2021-08-11T11:56:22.014Z</time>
      </trkpt>
      <trkpt lat="46.87536" lon="8.4913">
        <ele>1666</ele>
        <time>2021-08-11T11:56:23.015Z</time>
      </trkpt>
      <trkpt lat="46.87536" lon="8.49129">
        <ele>1667</ele>
        <time>2021-08-11T11:56:24.014Z</time>
      </trkpt>
      <trkpt lat="46.87536" lon="8.49128">
        <ele>1667</ele>
        <time>2021-08-11T11:56:25.015Z</time>
      </trkpt>
      <trkpt lat="46.87536" lon="8.49126">
        <ele>1667</ele>
        <time>2021-08-11T11:56:26.015Z</time>
      </trkpt>
      <trkpt lat="46.87535" lon="8.49125">
        <ele>1667</ele>
        <time>2021-08-11T11:56:27.014Z</time>
      </trkpt>
      <trkpt lat="46.87534" lon="8.49124">
        <ele>1667</ele>
        <time>2021-08-11T11:56:28.015Z</time>
      </trkpt>
      <trkpt lat="46.87534" lon="8.49122">
        <ele>1667</ele>
        <time>2021-08-11T11:56:29.015Z</time>
      </trkpt>
      <trkpt lat="46.87534" lon="8.49121">
        <ele>1667</ele>
        <time>2021-08-11T11:56:30.014Z</time>
      </trkpt>
      <trkpt lat="46.87533" lon="8.49122">
        <ele>1667</ele>
        <time>2021-08-11T11:56:55.114Z</time>
      </trkpt>
      <trkpt lat="46.8753" lon="8.49124">
        <ele>1667</ele>
        <time>2021-08-11T11:56:56.114Z</time>
      </trkpt>
      <trkpt lat="46.87528" lon="8.49127">
        <ele>1666</ele>
        <time>2021-08-11T11:56:57.113Z</time>
      </trkpt>
      <trkpt lat="46.87527" lon="8.49128">
        <ele>1666</ele>
        <time>2021-08-11T11:56:58.114Z</time>
      </trkpt>
      <trkpt lat="46.87526" lon="8.49128">
        <ele>1666</ele>
        <time>2021-08-11T11:56:59.114Z</time>
      </trkpt>
      <trkpt lat="46.87525" lon="8.49128">
        <ele>1666</ele>
        <time>2021-08-11T11:57:22.265Z</time>
      </trkpt>
      <trkpt lat="46.87525" lon="8.49127">
        <ele>1666</ele>
        <time>2021-08-11T11:57:23.265Z</time>
      </trkpt>
      <trkpt lat="46.87524" lon="8.49127">
        <ele>1666</ele>
        <time>2021-08-11T11:57:24.265Z</time>
      </trkpt>
      <trkpt lat="46.87523" lon="8.49127">
        <ele>1666</ele>
        <time>2021-08-11T11:57:25.266Z</time>
      </trkpt>
      <trkpt lat="46.87523" lon="8.49127">
        <ele>1666</ele>
        <time>2021-08-11T11:57:26.265Z</time>
      </trkpt>
      <trkpt lat="46.87522" lon="8.49127">
        <ele>1666</ele>
        <time>2021-08-11T11:57:27.266Z</time>
      </trkpt>
      <trkpt lat="46.87521" lon="8.49128">
        <ele>1666</ele>
        <time>2021-08-11T11:57:28.266Z</time>
      </trkpt>
      <trkpt lat="46.87521" lon="8.49128">
        <ele>1666</ele>
        <time>2021-08-11T11:57:29.265Z</time>
      </trkpt>
      <trkpt lat="46.87519" lon="8.49128">
        <ele>1666</ele>
        <time>2021-08-11T11:57:30.266Z</time>
      </trkpt>
      <trkpt lat="46.87518" lon="8.49128">
        <ele>1666</ele>
        <time>2021-08-11T11:57:31.266Z</time>
      </trkpt>
      <trkpt lat="46.87518" lon="8.49127">
        <ele>1666</ele>
        <time>2021-08-11T11:57:32.265Z</time>
      </trkpt>
      <trkpt lat="46.87517" lon="8.49127">
        <ele>1667</ele>
        <time>2021-08-11T11:57:33.266Z</time>
      </trkpt>
      <trkpt lat="46.87516" lon="8.49127">
        <ele>1667</ele>
        <time>2021-08-11T11:57:34.266Z</time>
      </trkpt>
      <trkpt lat="46.87515" lon="8.49128">
        <ele>1667</ele>
        <time>2021-08-11T11:57:35.265Z</time>
      </trkpt>
      <trkpt lat="46.87513" lon="8.49128">
        <ele>1667</ele>
        <time>2021-08-11T11:57:36.266Z</time>
      </trkpt>
      <trkpt lat="46.87513" lon="8.49128">
        <ele>1667</ele>
        <time>2021-08-11T11:57:44.365Z</time>
      </trkpt>
      <trkpt lat="46.87512" lon="8.49128">
        <ele>1667</ele>
        <time>2021-08-11T11:57:46.230Z</time>
      </trkpt>
      <trkpt lat="46.87511" lon="8.49128">
        <ele>1667</ele>
        <time>2021-08-11T11:57:47.230Z</time>
      </trkpt>
      <trkpt lat="46.8751" lon="8.49128">
        <ele>1667</ele>
        <time>2021-08-11T11:57:48.230Z</time>
      </trkpt>
      <trkpt lat="46.8751" lon="8.49127">
        <ele>1667</ele>
        <time>2021-08-11T11:57:51.351Z</time>
      </trkpt>
      <trkpt lat="46.87509" lon="8.49126">
        <ele>1667</ele>
        <time>2021-08-11T11:57:52.351Z</time>
      </trkpt>
      <trkpt lat="46.87509" lon="8.49124">
        <ele>1667</ele>
        <time>2021-08-11T11:57:53.352Z</time>
      </trkpt>
      <trkpt lat="46.87509" lon="8.49124">
        <ele>1667</ele>
        <time>2021-08-11T11:57:54.351Z</time>
      </trkpt>
      <trkpt lat="46.87508" lon="8.49124">
        <ele>1667</ele>
        <time>2021-08-11T11:57:55.352Z</time>
      </trkpt>
      <trkpt lat="46.87508" lon="8.49125">
        <ele>1667</ele>
        <time>2021-08-11T11:57:56.352Z</time>
      </trkpt>
      <trkpt lat="46.87507" lon="8.49125">
        <ele>1667</ele>
        <time>2021-08-11T11:57:57.351Z</time>
      </trkpt>
      <trkpt lat="46.87506" lon="8.49125">
        <ele>1668</ele>
        <time>2021-08-11T11:57:58.352Z</time>
      </trkpt>
      <trkpt lat="46.87505" lon="8.49125">
        <ele>1668</ele>
        <time>2021-08-11T11:57:59.352Z</time>
      </trkpt>
      <trkpt lat="46.87505" lon="8.49125">
        <ele>1668</ele>
        <time>2021-08-11T11:58:00.351Z</time>
      </trkpt>
      <trkpt lat="46.87504" lon="8.49125">
        <ele>1668</ele>
        <time>2021-08-11T11:58:03.349Z</time>
      </trkpt>
      <trkpt lat="46.87503" lon="8.49125">
        <ele>1668</ele>
        <time>2021-08-11T11:58:04.349Z</time>
      </trkpt>
      <trkpt lat="46.87503" lon="8.49125">
        <ele>1669</ele>
        <time>2021-08-11T11:58:05.348Z</time>
      </trkpt>
      <trkpt lat="46.87502" lon="8.49126">
        <ele>1669</ele>
        <time>2021-08-11T11:58:06.349Z</time>
      </trkpt>
      <trkpt lat="46.87501" lon="8.49125">
        <ele>1669</ele>
        <time>2021-08-11T11:58:07.349Z</time>
      </trkpt>
      <trkpt lat="46.87501" lon="8.49125">
        <ele>1669</ele>
        <time>2021-08-11T11:58:08.349Z</time>
      </trkpt>
      <trkpt lat="46.87501" lon="8.49124">
        <ele>1669</ele>
        <time>2021-08-11T11:58:09.349Z</time>
      </trkpt>
      <trkpt lat="46.87501" lon="8.49124">
        <ele>1670</ele>
        <time>2021-08-11T11:58:10.349Z</time>
      </trkpt>
      <trkpt lat="46.87501" lon="8.49123">
        <ele>1670</ele>
        <time>2021-08-11T11:58:11.348Z</time>
      </trkpt>
      <trkpt lat="46.875" lon="8.49124">
        <ele>1671</ele>
        <time>2021-08-11T11:58:12.349Z</time>
      </trkpt>
      <trkpt lat="46.875" lon="8.49124">
        <ele>1671</ele>
        <time>2021-08-11T11:58:13.349Z</time>
      </trkpt>
      <trkpt lat="46.87499" lon="8.49125">
        <ele>1671</ele>
        <time>2021-08-11T11:58:14.348Z</time>
      </trkpt>
      <trkpt lat="46.875" lon="8.49124">
        <ele>1672</ele>
        <time>2021-08-11T11:58:15.349Z</time>
      </trkpt>
      <trkpt lat="46.87498" lon="8.49125">
        <ele>1672</ele>
        <time>2021-08-11T11:58:16.348Z</time>
      </trkpt>
      <trkpt lat="46.87498" lon="8.49126">
        <ele>1672</ele>
        <time>2021-08-11T11:58:17.348Z</time>
      </trkpt>
      <trkpt lat="46.87497" lon="8.49126">
        <ele>1672</ele>
        <time>2021-08-11T11:58:18.349Z</time>
      </trkpt>
      <trkpt lat="46.87497" lon="8.49127">
        <ele>1673</ele>
        <time>2021-08-11T11:58:19.349Z</time>
      </trkpt>
      <trkpt lat="46.87496" lon="8.49127">
        <ele>1673</ele>
        <time>2021-08-11T11:58:20.349Z</time>
      </trkpt>
      <trkpt lat="46.87495" lon="8.49127">
        <ele>1673</ele>
        <time>2021-08-11T11:58:26.384Z</time>
      </trkpt>
      <trkpt lat="46.87495" lon="8.49127">
        <ele>1673</ele>
        <time>2021-08-11T11:58:36.393Z</time>
      </trkpt>
      <trkpt lat="46.87494" lon="8.49128">
        <ele>1673</ele>
        <time>2021-08-11T11:58:37.392Z</time>
      </trkpt>
      <trkpt lat="46.87494" lon="8.49128">
        <ele>1674</ele>
        <time>2021-08-11T11:58:38.393Z</time>
      </trkpt>
      <trkpt lat="46.87494" lon="8.49128">
        <ele>1674</ele>
        <time>2021-08-11T11:58:39.393Z</time>
      </trkpt>
      <trkpt lat="46.87493" lon="8.49129">
        <ele>1674</ele>
        <time>2021-08-11T11:58:40.392Z</time>
      </trkpt>
      <trkpt lat="46.87492" lon="8.49128">
        <ele>1674</ele>
        <time>2021-08-11T11:58:41.393Z</time>
      </trkpt>
      <trkpt lat="46.87492" lon="8.49128">
        <ele>1674</ele>
        <time>2021-08-11T11:58:42.393Z</time>
      </trkpt>
      <trkpt lat="46.8749" lon="8.49128">
        <ele>1673</ele>
        <time>2021-08-11T11:58:43.392Z</time>
      </trkpt>
      <trkpt lat="46.87489" lon="8.49128">
        <ele>1673</ele>
        <time>2021-08-11T11:58:44.393Z</time>
      </trkpt>
      <trkpt lat="46.87488" lon="8.49128">
        <ele>1673</ele>
        <time>2021-08-11T11:58:45.393Z</time>
      </trkpt>
      <trkpt lat="46.87487" lon="8.49128">
        <ele>1672</ele>
        <time>2021-08-11T11:58:46.392Z</time>
      </trkpt>
      <trkpt lat="46.87487" lon="8.49129">
        <ele>1672</ele>
        <time>2021-08-11T11:58:47.393Z</time>
      </trkpt>
      <trkpt lat="46.87487" lon="8.49129">
        <ele>1672</ele>
        <time>2021-08-11T11:58:48.393Z</time>
      </trkpt>
      <trkpt lat="46.87486" lon="8.49129">
        <ele>1671</ele>
        <time>2021-08-11T11:58:49.392Z</time>
      </trkpt>
      <trkpt lat="46.87486" lon="8.49128">
        <ele>1671</ele>
        <time>2021-08-11T11:58:50.393Z</time>
      </trkpt>
      <trkpt lat="46.87485" lon="8.49129">
        <ele>1672</ele>
        <time>2021-08-11T11:58:51.393Z</time>
      </trkpt>
      <trkpt lat="46.87485" lon="8.49129">
        <ele>1672</ele>
        <time>2021-08-11T11:58:52.392Z</time>
      </trkpt>
      <trkpt lat="46.87484" lon="8.49128">
        <ele>1672</ele>
        <time>2021-08-11T11:58:53.392Z</time>
      </trkpt>
      <trkpt lat="46.87483" lon="8.49129">
        <ele>1672</ele>
        <time>2021-08-11T11:58:54.392Z</time>
      </trkpt>
      <trkpt lat="46.87483" lon="8.49129">
        <ele>1673</ele>
        <time>2021-08-11T11:58:55.392Z</time>
      </trkpt>
      <trkpt lat="46.87482" lon="8.4913">
        <ele>1673</ele>
        <time>2021-08-11T11:58:56.393Z</time>
      </trkpt>
      <trkpt lat="46.87482" lon="8.49131">
        <ele>1673</ele>
        <time>2021-08-11T11:58:57.392Z</time>
      </trkpt>
      <trkpt lat="46.87482" lon="8.49132">
        <ele>1673</ele>
        <time>2021-08-11T11:58:58.393Z</time>
      </trkpt>
      <trkpt lat="46.87481" lon="8.49132">
        <ele>1674</ele>
        <time>2021-08-11T11:58:59.393Z</time>
      </trkpt>
      <trkpt lat="46.87481" lon="8.49132">
        <ele>1674</ele>
        <time>2021-08-11T11:59:00.392Z</time>
      </trkpt>
      <trkpt lat="46.8748" lon="8.49133">
        <ele>1674</ele>
        <time>2021-08-11T11:59:20.511Z</time>
      </trkpt>
      <trkpt lat="46.87479" lon="8.49134">
        <ele>1674</ele>
        <time>2021-08-11T11:59:21.511Z</time>
      </trkpt>
      <trkpt lat="46.87476" lon="8.49136">
        <ele>1672</ele>
        <time>2021-08-11T11:59:22.511Z</time>
      </trkpt>
      <trkpt lat="46.87478" lon="8.49136">
        <ele>1672</ele>
        <time>2021-08-11T11:59:23.511Z</time>
      </trkpt>
      <trkpt lat="46.87478" lon="8.49136">
        <ele>1673</ele>
        <time>2021-08-11T11:59:24.510Z</time>
      </trkpt>
      <trkpt lat="46.87479" lon="8.49136">
        <ele>1673</ele>
        <time>2021-08-11T11:59:25.511Z</time>
      </trkpt>
      <trkpt lat="46.8748" lon="8.49136">
        <ele>1673</ele>
        <time>2021-08-11T11:59:26.510Z</time>
      </trkpt>
      <trkpt lat="46.8748" lon="8.49137">
        <ele>1674</ele>
        <time>2021-08-11T11:59:27.510Z</time>
      </trkpt>
      <trkpt lat="46.8748" lon="8.49137">
        <ele>1674</ele>
        <time>2021-08-11T11:59:28.510Z</time>
      </trkpt>
      <trkpt lat="46.8748" lon="8.49138">
        <ele>1676</ele>
        <time>2021-08-11T11:59:30.510Z</time>
      </trkpt>
      <trkpt lat="46.87481" lon="8.4914">
        <ele>1677</ele>
        <time>2021-08-11T11:59:38.510Z</time>
      </trkpt>
      <trkpt lat="46.8748" lon="8.4914">
        <ele>1678</ele>
        <time>2021-08-11T11:59:39.510Z</time>
      </trkpt>
      <trkpt lat="46.8748" lon="8.4914">
        <ele>1678</ele>
        <time>2021-08-11T11:59:40.511Z</time>
      </trkpt>
      <trkpt lat="46.87479" lon="8.49139">
        <ele>1679</ele>
        <time>2021-08-11T11:59:41.511Z</time>
      </trkpt>
      <trkpt lat="46.87478" lon="8.49138">
        <ele>1680</ele>
        <time>2021-08-11T11:59:42.510Z</time>
      </trkpt>
      <trkpt lat="46.87477" lon="8.49138">
        <ele>1680</ele>
        <time>2021-08-11T11:59:43.510Z</time>
      </trkpt>
      <trkpt lat="46.87476" lon="8.49138">
        <ele>1681</ele>
        <time>2021-08-11T11:59:44.511Z</time>
      </trkpt>
      <trkpt lat="46.87476" lon="8.49137">
        <ele>1682</ele>
        <time>2021-08-11T11:59:45.511Z</time>
      </trkpt>
      <trkpt lat="46.87476" lon="8.49137">
        <ele>1682</ele>
        <time>2021-08-11T11:59:46.511Z</time>
      </trkpt>
      <trkpt lat="46.87475" lon="8.49137">
        <ele>1683</ele>
        <time>2021-08-11T11:59:47.510Z</time>
      </trkpt>
      <trkpt lat="46.87474" lon="8.49138">
        <ele>1684</ele>
        <time>2021-08-11T11:59:48.512Z</time>
      </trkpt>
      <trkpt lat="46.87473" lon="8.4914">
        <ele>1684</ele>
        <time>2021-08-11T11:59:49.512Z</time>
      </trkpt>
      <trkpt lat="46.87473" lon="8.49141">
        <ele>1684</ele>
        <time>2021-08-11T11:59:50.511Z</time>
      </trkpt>
      <trkpt lat="46.87472" lon="8.49143">
        <ele>1684</ele>
        <time>2021-08-11T11:59:52.597Z</time>
      </trkpt>
      <trkpt lat="46.87472" lon="8.49144">
        <ele>1685</ele>
        <time>2021-08-11T11:59:53.596Z</time>
      </trkpt>
      <trkpt lat="46.87472" lon="8.49145">
        <ele>1685</ele>
        <time>2021-08-11T11:59:54.597Z</time>
      </trkpt>
      <trkpt lat="46.8747" lon="8.49146">
        <ele>1685</ele>
        <time>2021-08-11T11:59:55.597Z</time>
      </trkpt>
      <trkpt lat="46.8747" lon="8.49146">
        <ele>1684</ele>
        <time>2021-08-11T11:59:56.597Z</time>
      </trkpt>
      <trkpt lat="46.87469" lon="8.49145">
        <ele>1684</ele>
        <time>2021-08-11T11:59:57.597Z</time>
      </trkpt>
      <trkpt lat="46.87469" lon="8.49145">
        <ele>1684</ele>
        <time>2021-08-11T11:59:58.597Z</time>
      </trkpt>
      <trkpt lat="46.87469" lon="8.49145">
        <ele>1684</ele>
        <time>2021-08-11T11:59:59.596Z</time>
      </trkpt>
      <trkpt lat="46.87469" lon="8.49146">
        <ele>1684</ele>
        <time>2021-08-11T12:00:00.597Z</time>
      </trkpt>
      <trkpt lat="46.87468" lon="8.49147">
        <ele>1684</ele>
        <time>2021-08-11T12:00:01.597Z</time>
      </trkpt>
      <trkpt lat="46.87468" lon="8.49148">
        <ele>1683</ele>
        <time>2021-08-11T12:00:02.597Z</time>
      </trkpt>
      <trkpt lat="46.87468" lon="8.49148">
        <ele>1683</ele>
        <time>2021-08-11T12:00:03.597Z</time>
      </trkpt>
      <trkpt lat="46.87467" lon="8.49146">
        <ele>1683</ele>
        <time>2021-08-11T12:00:04.597Z</time>
      </trkpt>
      <trkpt lat="46.87467" lon="8.49146">
        <ele>1683</ele>
        <time>2021-08-11T12:00:05.596Z</time>
      </trkpt>
      <trkpt lat="46.87467" lon="8.49145">
        <ele>1683</ele>
        <time>2021-08-11T12:00:06.596Z</time>
      </trkpt>
      <trkpt lat="46.87468" lon="8.49142">
        <ele>1684</ele>
        <time>2021-08-11T12:00:07.597Z</time>
      </trkpt>
      <trkpt lat="46.87468" lon="8.4914">
        <ele>1684</ele>
        <time>2021-08-11T12:00:08.597Z</time>
      </trkpt>
      <trkpt lat="46.8747" lon="8.49137">
        <ele>1684</ele>
        <time>2021-08-11T12:00:09.597Z</time>
      </trkpt>
      <trkpt lat="46.8747" lon="8.49136">
        <ele>1684</ele>
        <time>2021-08-11T12:00:14.776Z</time>
      </trkpt>
      <trkpt lat="46.87471" lon="8.49135">
        <ele>1685</ele>
        <time>2021-08-11T12:00:15.776Z</time>
      </trkpt>
      <trkpt lat="46.87471" lon="8.49134">
        <ele>1685</ele>
        <time>2021-08-11T12:00:16.776Z</time>
      </trkpt>
      <trkpt lat="46.87471" lon="8.49134">
        <ele>1686</ele>
        <time>2021-08-11T12:00:22.886Z</time>
      </trkpt>
      <trkpt lat="46.8747" lon="8.49136">
        <ele>1686</ele>
        <time>2021-08-11T12:00:23.886Z</time>
      </trkpt>
      <trkpt lat="46.87469" lon="8.49137">
        <ele>1685</ele>
        <time>2021-08-11T12:00:24.886Z</time>
      </trkpt>
      <trkpt lat="46.87469" lon="8.49137">
        <ele>1685</ele>
        <time>2021-08-11T12:00:25.886Z</time>
      </trkpt>
      <trkpt lat="46.87467" lon="8.49138">
        <ele>1685</ele>
        <time>2021-08-11T12:00:27.972Z</time>
      </trkpt>
      <trkpt lat="46.87466" lon="8.4914">
        <ele>1685</ele>
        <time>2021-08-11T12:00:28.972Z</time>
      </trkpt>
      <trkpt lat="46.87465" lon="8.49141">
        <ele>1685</ele>
        <time>2021-08-11T12:00:29.973Z</time>
      </trkpt>
      <trkpt lat="46.87463" lon="8.49142">
        <ele>1684</ele>
        <time>2021-08-11T12:00:30.973Z</time>
      </trkpt>
      <trkpt lat="46.87462" lon="8.49143">
        <ele>1684</ele>
        <time>2021-08-11T12:00:31.973Z</time>
      </trkpt>
      <trkpt lat="46.87461" lon="8.49145">
        <ele>1684</ele>
        <time>2021-08-11T12:00:34.099Z</time>
      </trkpt>
      <trkpt lat="46.87461" lon="8.49146">
        <ele>1684</ele>
        <time>2021-08-11T12:00:35.098Z</time>
      </trkpt>
      <trkpt lat="46.8746" lon="8.49145">
        <ele>1684</ele>
        <time>2021-08-11T12:00:36.099Z</time>
      </trkpt>
      <trkpt lat="46.87459" lon="8.49144">
        <ele>1684</ele>
        <time>2021-08-11T12:00:58.133Z</time>
      </trkpt>
      <trkpt lat="46.87458" lon="8.49144">
        <ele>1684</ele>
        <time>2021-08-11T12:00:59.133Z</time>
      </trkpt>
      <trkpt lat="46.87457" lon="8.49143">
        <ele>1684</ele>
        <time>2021-08-11T12:01:00.133Z</time>
      </trkpt>
      <trkpt lat="46.87455" lon="8.49142">
        <ele>1684</ele>
        <time>2021-08-11T12:01:05.987Z</time>
      </trkpt>
      <trkpt lat="46.87454" lon="8.4914">
        <ele>1683</ele>
        <time>2021-08-11T12:01:06.988Z</time>
      </trkpt>
      <trkpt lat="46.87453" lon="8.49139">
        <ele>1683</ele>
        <time>2021-08-11T12:01:20.109Z</time>
      </trkpt>
      <trkpt lat="46.87452" lon="8.49138">
        <ele>1683</ele>
        <time>2021-08-11T12:01:21.109Z</time>
      </trkpt>
      <trkpt lat="46.87452" lon="8.49138">
        <ele>1682</ele>
        <time>2021-08-11T12:01:22.108Z</time>
      </trkpt>
      <trkpt lat="46.87452" lon="8.49138">
        <ele>1682</ele>
        <time>2021-08-11T12:01:23.109Z</time>
      </trkpt>
      <trkpt lat="46.87453" lon="8.49138">
        <ele>1682</ele>
        <time>2021-08-11T12:01:24.109Z</time>
      </trkpt>
      <trkpt lat="46.87453" lon="8.49138">
        <ele>1683</ele>
        <time>2021-08-11T12:01:25.109Z</time>
      </trkpt>
      <trkpt lat="46.87454" lon="8.49137">
        <ele>1683</ele>
        <time>2021-08-11T12:01:30.235Z</time>
      </trkpt>
      <trkpt lat="46.87455" lon="8.49137">
        <ele>1683</ele>
        <time>2021-08-11T12:01:39.136Z</time>
      </trkpt>
      <trkpt lat="46.87455" lon="8.49136">
        <ele>1683</ele>
        <time>2021-08-11T12:01:40.135Z</time>
      </trkpt>
      <trkpt lat="46.87456" lon="8.49135">
        <ele>1684</ele>
        <time>2021-08-11T12:01:41.136Z</time>
      </trkpt>
      <trkpt lat="46.87456" lon="8.49135">
        <ele>1684</ele>
        <time>2021-08-11T12:01:49.255Z</time>
      </trkpt>
      <trkpt lat="46.87457" lon="8.49134">
        <ele>1684</ele>
        <time>2021-08-11T12:01:50.254Z</time>
      </trkpt>
      <trkpt lat="46.87457" lon="8.49134">
        <ele>1684</ele>
        <time>2021-08-11T12:01:51.255Z</time>
      </trkpt>
      <trkpt lat="46.87457" lon="8.49134">
        <ele>1684</ele>
        <time>2021-08-11T12:01:52.254Z</time>
      </trkpt>
      <trkpt lat="46.87459" lon="8.49131">
        <ele>1685</ele>
        <time>2021-08-11T12:02:23.378Z</time>
      </trkpt>
      <trkpt lat="46.87461" lon="8.49129">
        <ele>1685</ele>
        <time>2021-08-11T12:02:24.378Z</time>
      </trkpt>
      <trkpt lat="46.87461" lon="8.49128">
        <ele>1685</ele>
        <time>2021-08-11T12:02:25.378Z</time>
      </trkpt>
      <trkpt lat="46.87461" lon="8.49128">
        <ele>1685</ele>
        <time>2021-08-11T12:02:31.484Z</time>
      </trkpt>
      <trkpt lat="46.87462" lon="8.49128">
        <ele>1686</ele>
        <time>2021-08-11T12:02:32.484Z</time>
      </trkpt>
      <trkpt lat="46.87463" lon="8.49127">
        <ele>1686</ele>
        <time>2021-08-11T12:02:33.484Z</time>
      </trkpt>
      <trkpt lat="46.87463" lon="8.49127">
        <ele>1686</ele>
        <time>2021-08-11T12:02:34.484Z</time>
      </trkpt>
      <trkpt lat="46.87463" lon="8.49127">
        <ele>1686</ele>
        <time>2021-08-11T12:02:35.483Z</time>
      </trkpt>
      <trkpt lat="46.87463" lon="8.49128">
        <ele>1686</ele>
        <time>2021-08-11T12:02:51.486Z</time>
      </trkpt>
      <trkpt lat="46.87463" lon="8.49127">
        <ele>1686</ele>
        <time>2021-08-11T12:02:52.487Z</time>
      </trkpt>
      <trkpt lat="46.87463" lon="8.49126">
        <ele>1686</ele>
        <time>2021-08-11T12:02:53.487Z</time>
      </trkpt>
      <trkpt lat="46.87463" lon="8.49126">
        <ele>1686</ele>
        <time>2021-08-11T12:02:54.486Z</time>
      </trkpt>
      <trkpt lat="46.87462" lon="8.49125">
        <ele>1686</ele>
        <time>2021-08-11T12:02:55.487Z</time>
      </trkpt>
      <trkpt lat="46.87463" lon="8.49126">
        <ele>1686</ele>
        <time>2021-08-11T12:02:56.487Z</time>
      </trkpt>
      <trkpt lat="46.87463" lon="8.49125">
        <ele>1685</ele>
        <time>2021-08-11T12:02:57.487Z</time>
      </trkpt>
      <trkpt lat="46.87463" lon="8.49125">
        <ele>1685</ele>
        <time>2021-08-11T12:03:01.650Z</time>
      </trkpt>
      <trkpt lat="46.87462" lon="8.49127">
        <ele>1685</ele>
        <time>2021-08-11T12:03:02.649Z</time>
      </trkpt>
      <trkpt lat="46.87461" lon="8.49127">
        <ele>1685</ele>
        <time>2021-08-11T12:03:03.650Z</time>
      </trkpt>
      <trkpt lat="46.87461" lon="8.49128">
        <ele>1685</ele>
        <time>2021-08-11T12:03:26.731Z</time>
      </trkpt>
      <trkpt lat="46.87462" lon="8.49129">
        <ele>1685</ele>
        <time>2021-08-11T12:03:27.731Z</time>
      </trkpt>
      <trkpt lat="46.87462" lon="8.4913">
        <ele>1686</ele>
        <time>2021-08-11T12:03:28.731Z</time>
      </trkpt>
      <trkpt lat="46.87462" lon="8.4913">
        <ele>1687</ele>
        <time>2021-08-11T12:03:29.731Z</time>
      </trkpt>
      <trkpt lat="46.87462" lon="8.4913">
        <ele>1687</ele>
        <time>2021-08-11T12:03:30.730Z</time>
      </trkpt>
      <trkpt lat="46.8746" lon="8.49129">
        <ele>1685</ele>
        <time>2021-08-11T12:03:31.732Z</time>
      </trkpt>
      <trkpt lat="46.8746" lon="8.49128">
        <ele>1684</ele>
        <time>2021-08-11T12:03:32.732Z</time>
      </trkpt>
      <trkpt lat="46.8746" lon="8.49129">
        <ele>1683</ele>
        <time>2021-08-11T12:03:35.843Z</time>
      </trkpt>
      <trkpt lat="46.8746" lon="8.49129">
        <ele>1683</ele>
        <time>2021-08-11T12:03:36.843Z</time>
      </trkpt>
      <trkpt lat="46.87459" lon="8.49129">
        <ele>1682</ele>
        <time>2021-08-11T12:03:37.843Z</time>
      </trkpt>
      <trkpt lat="46.87459" lon="8.49129">
        <ele>1681</ele>
        <time>2021-08-11T12:03:38.843Z</time>
      </trkpt>
      <trkpt lat="46.87459" lon="8.49128">
        <ele>1680</ele>
        <time>2021-08-11T12:03:39.844Z</time>
      </trkpt>
      <trkpt lat="46.87458" lon="8.49128">
        <ele>1680</ele>
        <time>2021-08-11T12:03:40.844Z</time>
      </trkpt>
      <trkpt lat="46.87458" lon="8.49128">
        <ele>1680</ele>
        <time>2021-08-11T12:03:41.843Z</time>
      </trkpt>
      <trkpt lat="46.87458" lon="8.49128">
        <ele>1679</ele>
        <time>2021-08-11T12:03:51.983Z</time>
      </trkpt>
      <trkpt lat="46.87458" lon="8.49128">
        <ele>1679</ele>
        <time>2021-08-11T12:03:52.984Z</time>
      </trkpt>
      <trkpt lat="46.87458" lon="8.49128">
        <ele>1679</ele>
        <time>2021-08-11T12:03:53.983Z</time>
      </trkpt>
      <trkpt lat="46.87457" lon="8.49128">
        <ele>1684</ele>
        <time>2021-08-11T12:03:54.985Z</time>
      </trkpt>
      <trkpt lat="46.87455" lon="8.49131">
        <ele>1685</ele>
        <time>2021-08-11T12:03:55.984Z</time>
      </trkpt>
      <trkpt lat="46.87455" lon="8.49132">
        <ele>1686</ele>
        <time>2021-08-11T12:03:56.985Z</time>
      </trkpt>
      <trkpt lat="46.87454" lon="8.49133">
        <ele>1686</ele>
        <time>2021-08-11T12:03:57.984Z</time>
      </trkpt>
      <trkpt lat="46.87454" lon="8.49133">
        <ele>1686</ele>
        <time>2021-08-11T12:03:58.985Z</time>
      </trkpt>
      <trkpt lat="46.87455" lon="8.49134">
        <ele>1686</ele>
        <time>2021-08-11T12:03:59.984Z</time>
      </trkpt>
      <trkpt lat="46.87455" lon="8.49134">
        <ele>1687</ele>
        <time>2021-08-11T12:04:00.984Z</time>
      </trkpt>
      <trkpt lat="46.87454" lon="8.49135">
        <ele>1687</ele>
        <time>2021-08-11T12:04:01.985Z</time>
      </trkpt>
      <trkpt lat="46.87454" lon="8.49135">
        <ele>1686</ele>
        <time>2021-08-11T12:04:04.136Z</time>
      </trkpt>
      <trkpt lat="46.87453" lon="8.49134">
        <ele>1685</ele>
        <time>2021-08-11T12:04:05.135Z</time>
      </trkpt>
      <trkpt lat="46.87452" lon="8.49133">
        <ele>1684</ele>
        <time>2021-08-11T12:04:06.135Z</time>
      </trkpt>
      <trkpt lat="46.87451" lon="8.49133">
        <ele>1683</ele>
        <time>2021-08-11T12:04:07.136Z</time>
      </trkpt>
      <trkpt lat="46.87451" lon="8.49133">
        <ele>1682</ele>
        <time>2021-08-11T12:04:17.232Z</time>
      </trkpt>
      <trkpt lat="46.87451" lon="8.49133">
        <ele>1681</ele>
        <time>2021-08-11T12:04:18.233Z</time>
      </trkpt>
      <trkpt lat="46.87451" lon="8.49131">
        <ele>1678</ele>
        <time>2021-08-11T12:04:19.234Z</time>
      </trkpt>
      <trkpt lat="46.87452" lon="8.49131">
        <ele>1678</ele>
        <time>2021-08-11T12:04:20.235Z</time>
      </trkpt>
      <trkpt lat="46.87452" lon="8.49131">
        <ele>1678</ele>
        <time>2021-08-11T12:04:21.234Z</time>
      </trkpt>
      <trkpt lat="46.87452" lon="8.4913">
        <ele>1677</ele>
        <time>2021-08-11T12:04:22.236Z</time>
      </trkpt>
      <trkpt lat="46.8745" lon="8.49131">
        <ele>1679</ele>
        <time>2021-08-11T12:04:23.235Z</time>
      </trkpt>
      <trkpt lat="46.8745" lon="8.49131">
        <ele>1679</ele>
        <time>2021-08-11T12:04:24.235Z</time>
      </trkpt>
      <trkpt lat="46.87451" lon="8.49131">
        <ele>1680</ele>
        <time>2021-08-11T12:04:25.235Z</time>
      </trkpt>
      <trkpt lat="46.87451" lon="8.4913">
        <ele>1681</ele>
        <time>2021-08-11T12:04:26.235Z</time>
      </trkpt>
      <trkpt lat="46.87453" lon="8.49128">
        <ele>1681</ele>
        <time>2021-08-11T12:04:27.235Z</time>
      </trkpt>
      <trkpt lat="46.87453" lon="8.49128">
        <ele>1680</ele>
        <time>2021-08-11T12:04:28.236Z</time>
      </trkpt>
      <trkpt lat="46.87453" lon="8.49127">
        <ele>1680</ele>
        <time>2021-08-11T12:04:29.235Z</time>
      </trkpt>
      <trkpt lat="46.87452" lon="8.49127">
        <ele>1680</ele>
        <time>2021-08-11T12:04:30.236Z</time>
      </trkpt>
      <trkpt lat="46.87452" lon="8.49125">
        <ele>1676</ele>
        <time>2021-08-11T12:04:33.346Z</time>
      </trkpt>
      <trkpt lat="46.87452" lon="8.49126">
        <ele>1676</ele>
        <time>2021-08-11T12:04:34.347Z</time>
      </trkpt>
      <trkpt lat="46.87451" lon="8.49126">
        <ele>1675</ele>
        <time>2021-08-11T12:04:35.347Z</time>
      </trkpt>
      <trkpt lat="46.87451" lon="8.49126">
        <ele>1675</ele>
        <time>2021-08-11T12:04:36.347Z</time>
      </trkpt>
      <trkpt lat="46.8745" lon="8.49126">
        <ele>1674</ele>
        <time>2021-08-11T12:04:37.347Z</time>
      </trkpt>
      <trkpt lat="46.87451" lon="8.49128">
        <ele>1675</ele>
        <time>2021-08-11T12:04:38.348Z</time>
      </trkpt>
      <trkpt lat="46.87451" lon="8.49128">
        <ele>1675</ele>
        <time>2021-08-11T12:04:39.348Z</time>
      </trkpt>
      <trkpt lat="46.87451" lon="8.49129">
        <ele>1675</ele>
        <time>2021-08-11T12:04:40.347Z</time>
      </trkpt>
      <trkpt lat="46.87451" lon="8.49129">
        <ele>1675</ele>
        <time>2021-08-11T12:04:41.348Z</time>
      </trkpt>
      <trkpt lat="46.87452" lon="8.49129">
        <ele>1676</ele>
        <time>2021-08-11T12:04:46.485Z</time>
      </trkpt>
      <trkpt lat="46.87457" lon="8.49128">
        <ele>1688</ele>
        <time>2021-08-11T12:04:47.487Z</time>
      </trkpt>
      <trkpt lat="46.87458" lon="8.49128">
        <ele>1688</ele>
        <time>2021-08-11T12:04:48.486Z</time>
      </trkpt>
      <trkpt lat="46.87458" lon="8.49128">
        <ele>1689</ele>
        <time>2021-08-11T12:04:49.486Z</time>
      </trkpt>
      <trkpt lat="46.87462" lon="8.49127">
        <ele>1690</ele>
        <time>2021-08-11T12:04:50.487Z</time>
      </trkpt>
      <trkpt lat="46.87463" lon="8.49125">
        <ele>1690</ele>
        <time>2021-08-11T12:04:51.487Z</time>
      </trkpt>
      <trkpt lat="46.87463" lon="8.49124">
        <ele>1690</ele>
        <time>2021-08-11T12:04:52.487Z</time>
      </trkpt>
      <trkpt lat="46.87463" lon="8.49123">
        <ele>1690</ele>
        <time>2021-08-11T12:04:53.487Z</time>
      </trkpt>
      <trkpt lat="46.87464" lon="8.49123">
        <ele>1690</ele>
        <time>2021-08-11T12:04:54.488Z</time>
      </trkpt>
      <trkpt lat="46.87466" lon="8.49123">
        <ele>1690</ele>
        <time>2021-08-11T12:04:55.488Z</time>
      </trkpt>
      <trkpt lat="46.87467" lon="8.49123">
        <ele>1690</ele>
        <time>2021-08-11T12:04:56.488Z</time>
      </trkpt>
      <trkpt lat="46.87467" lon="8.49122">
        <ele>1691</ele>
        <time>2021-08-11T12:04:57.487Z</time>
      </trkpt>
      <trkpt lat="46.87468" lon="8.49121">
        <ele>1691</ele>
        <time>2021-08-11T12:05:02.612Z</time>
      </trkpt>
      <trkpt lat="46.87468" lon="8.49121">
        <ele>1692</ele>
        <time>2021-08-11T12:05:03.612Z</time>
      </trkpt>
      <trkpt lat="46.87469" lon="8.4912">
        <ele>1692</ele>
        <time>2021-08-11T12:05:04.612Z</time>
      </trkpt>
      <trkpt lat="46.87469" lon="8.4912">
        <ele>1692</ele>
        <time>2021-08-11T12:05:08.735Z</time>
      </trkpt>
      <trkpt lat="46.87469" lon="8.49119">
        <ele>1692</ele>
        <time>2021-08-11T12:05:09.735Z</time>
      </trkpt>
      <trkpt lat="46.8747" lon="8.49119">
        <ele>1692</ele>
        <time>2021-08-11T12:05:10.736Z</time>
      </trkpt>
      <trkpt lat="46.87471" lon="8.49118">
        <ele>1693</ele>
        <time>2021-08-11T12:05:11.736Z</time>
      </trkpt>
      <trkpt lat="46.87471" lon="8.49118">
        <ele>1693</ele>
        <time>2021-08-11T12:05:12.735Z</time>
      </trkpt>
      <trkpt lat="46.87472" lon="8.49117">
        <ele>1694</ele>
        <time>2021-08-11T12:05:13.736Z</time>
      </trkpt>
      <trkpt lat="46.87472" lon="8.49116">
        <ele>1694</ele>
        <time>2021-08-11T12:05:14.735Z</time>
      </trkpt>
      <trkpt lat="46.87472" lon="8.49116">
        <ele>1694</ele>
        <time>2021-08-11T12:05:15.736Z</time>
      </trkpt>
      <trkpt lat="46.87473" lon="8.49115">
        <ele>1694</ele>
        <time>2021-08-11T12:05:16.735Z</time>
      </trkpt>
      <trkpt lat="46.87473" lon="8.49115">
        <ele>1693</ele>
        <time>2021-08-11T12:05:20.881Z</time>
      </trkpt>
      <trkpt lat="46.87472" lon="8.49114">
        <ele>1693</ele>
        <time>2021-08-11T12:05:21.881Z</time>
      </trkpt>
      <trkpt lat="46.87472" lon="8.49113">
        <ele>1693</ele>
        <time>2021-08-11T12:05:22.880Z</time>
      </trkpt>
      <trkpt lat="46.87473" lon="8.49113">
        <ele>1693</ele>
        <time>2021-08-11T12:05:23.880Z</time>
      </trkpt>
      <trkpt lat="46.87474" lon="8.49112">
        <ele>1693</ele>
        <time>2021-08-11T12:05:24.881Z</time>
      </trkpt>
      <trkpt lat="46.87474" lon="8.49112">
        <ele>1693</ele>
        <time>2021-08-11T12:05:25.881Z</time>
      </trkpt>
      <trkpt lat="46.87474" lon="8.49111">
        <ele>1694</ele>
        <time>2021-08-11T12:05:26.881Z</time>
      </trkpt>
      <trkpt lat="46.87475" lon="8.4911">
        <ele>1694</ele>
        <time>2021-08-11T12:05:27.880Z</time>
      </trkpt>
      <trkpt lat="46.87476" lon="8.49109">
        <ele>1695</ele>
        <time>2021-08-11T12:05:28.880Z</time>
      </trkpt>
      <trkpt lat="46.87477" lon="8.49109">
        <ele>1695</ele>
        <time>2021-08-11T12:05:29.881Z</time>
      </trkpt>
      <trkpt lat="46.87478" lon="8.49108">
        <ele>1696</ele>
        <time>2021-08-11T12:05:30.881Z</time>
      </trkpt>
      <trkpt lat="46.87479" lon="8.49107">
        <ele>1697</ele>
        <time>2021-08-11T12:05:31.881Z</time>
      </trkpt>
      <trkpt lat="46.87479" lon="8.49107">
        <ele>1697</ele>
        <time>2021-08-11T12:05:32.880Z</time>
      </trkpt>
      <trkpt lat="46.8748" lon="8.49106">
        <ele>1698</ele>
        <time>2021-08-11T12:05:33.880Z</time>
      </trkpt>
      <trkpt lat="46.87481" lon="8.49105">
        <ele>1698</ele>
        <time>2021-08-11T12:05:34.881Z</time>
      </trkpt>
      <trkpt lat="46.87482" lon="8.49104">
        <ele>1699</ele>
        <time>2021-08-11T12:05:35.880Z</time>
      </trkpt>
      <trkpt lat="46.87482" lon="8.49103">
        <ele>1699</ele>
        <time>2021-08-11T12:05:36.881Z</time>
      </trkpt>
      <trkpt lat="46.87482" lon="8.49102">
        <ele>1699</ele>
        <time>2021-08-11T12:05:37.881Z</time>
      </trkpt>
      <trkpt lat="46.87482" lon="8.49102">
        <ele>1699</ele>
        <time>2021-08-11T12:05:38.880Z</time>
      </trkpt>
      <trkpt lat="46.87482" lon="8.49101">
        <ele>1699</ele>
        <time>2021-08-11T12:05:39.881Z</time>
      </trkpt>
      <trkpt lat="46.87482" lon="8.49101">
        <ele>1698</ele>
        <time>2021-08-11T12:05:40.881Z</time>
      </trkpt>
      <trkpt lat="46.87481" lon="8.491">
        <ele>1698</ele>
        <time>2021-08-11T12:05:41.881Z</time>
      </trkpt>
      <trkpt lat="46.87481" lon="8.49099">
        <ele>1698</ele>
        <time>2021-08-11T12:05:54.990Z</time>
      </trkpt>
      <trkpt lat="46.8748" lon="8.49098">
        <ele>1697</ele>
        <time>2021-08-11T12:05:55.989Z</time>
      </trkpt>
      <trkpt lat="46.8748" lon="8.49098">
        <ele>1696</ele>
        <time>2021-08-11T12:05:56.990Z</time>
      </trkpt>
      <trkpt lat="46.87479" lon="8.49097">
        <ele>1696</ele>
        <time>2021-08-11T12:05:57.989Z</time>
      </trkpt>
      <trkpt lat="46.8748" lon="8.49097">
        <ele>1695</ele>
        <time>2021-08-11T12:05:58.990Z</time>
      </trkpt>
      <trkpt lat="46.87481" lon="8.49097">
        <ele>1695</ele>
        <time>2021-08-11T12:05:59.990Z</time>
      </trkpt>
      <trkpt lat="46.87481" lon="8.49096">
        <ele>1695</ele>
        <time>2021-08-11T12:06:00.990Z</time>
      </trkpt>
      <trkpt lat="46.87482" lon="8.49096">
        <ele>1695</ele>
        <time>2021-08-11T12:06:01.990Z</time>
      </trkpt>
      <trkpt lat="46.87483" lon="8.49095">
        <ele>1695</ele>
        <time>2021-08-11T12:06:02.990Z</time>
      </trkpt>
      <trkpt lat="46.87483" lon="8.49095">
        <ele>1694</ele>
        <time>2021-08-11T12:06:03.990Z</time>
      </trkpt>
      <trkpt lat="46.87483" lon="8.49094">
        <ele>1694</ele>
        <time>2021-08-11T12:06:04.989Z</time>
      </trkpt>
      <trkpt lat="46.87483" lon="8.49094">
        <ele>1693</ele>
        <time>2021-08-11T12:06:05.990Z</time>
      </trkpt>
      <trkpt lat="46.87482" lon="8.49093">
        <ele>1693</ele>
        <time>2021-08-11T12:06:06.989Z</time>
      </trkpt>
      <trkpt lat="46.87482" lon="8.49093">
        <ele>1693</ele>
        <time>2021-08-11T12:06:40.010Z</time>
      </trkpt>
      <trkpt lat="46.87482" lon="8.49093">
        <ele>1693</ele>
        <time>2021-08-11T12:06:44.864Z</time>
      </trkpt>
      <trkpt lat="46.87482" lon="8.49092">
        <ele>1693</ele>
        <time>2021-08-11T12:06:45.863Z</time>
      </trkpt>
      <trkpt lat="46.87482" lon="8.49091">
        <ele>1692</ele>
        <time>2021-08-11T12:06:53.614Z</time>
      </trkpt>
      <trkpt lat="46.87482" lon="8.49091">
        <ele>1692</ele>
        <time>2021-08-11T12:06:54.613Z</time>
      </trkpt>
      <trkpt lat="46.87482" lon="8.4909">
        <ele>1692</ele>
        <time>2021-08-11T12:06:55.614Z</time>
      </trkpt>
      <trkpt lat="46.87482" lon="8.49089">
        <ele>1692</ele>
        <time>2021-08-11T12:06:56.613Z</time>
      </trkpt>
      <trkpt lat="46.87483" lon="8.49089">
        <ele>1692</ele>
        <time>2021-08-11T12:06:57.613Z</time>
      </trkpt>
      <trkpt lat="46.87483" lon="8.49089">
        <ele>1693</ele>
        <time>2021-08-11T12:06:58.613Z</time>
      </trkpt>
      <trkpt lat="46.87484" lon="8.49089">
        <ele>1693</ele>
        <time>2021-08-11T12:07:05.738Z</time>
      </trkpt>
      <trkpt lat="46.87484" lon="8.49088">
        <ele>1694</ele>
        <time>2021-08-11T12:07:06.738Z</time>
      </trkpt>
      <trkpt lat="46.87484" lon="8.49087">
        <ele>1694</ele>
        <time>2021-08-11T12:07:07.738Z</time>
      </trkpt>
      <trkpt lat="46.87485" lon="8.49086">
        <ele>1695</ele>
        <time>2021-08-11T12:07:14.870Z</time>
      </trkpt>
      <trkpt lat="46.87485" lon="8.49085">
        <ele>1696</ele>
        <time>2021-08-11T12:07:15.871Z</time>
      </trkpt>
      <trkpt lat="46.87485" lon="8.49085">
        <ele>1696</ele>
        <time>2021-08-11T12:07:18.599Z</time>
      </trkpt>
      <trkpt lat="46.87486" lon="8.49085">
        <ele>1697</ele>
        <time>2021-08-11T12:07:19.598Z</time>
      </trkpt>
      <trkpt lat="46.87486" lon="8.49085">
        <ele>1697</ele>
        <time>2021-08-11T12:07:20.599Z</time>
      </trkpt>
      <trkpt lat="46.87486" lon="8.49085">
        <ele>1697</ele>
        <time>2021-08-11T12:07:21.598Z</time>
      </trkpt>
      <trkpt lat="46.87487" lon="8.49084">
        <ele>1698</ele>
        <time>2021-08-11T12:07:22.599Z</time>
      </trkpt>
      <trkpt lat="46.87487" lon="8.49084">
        <ele>1698</ele>
        <time>2021-08-11T12:07:23.599Z</time>
      </trkpt>
      <trkpt lat="46.87487" lon="8.49084">
        <ele>1698</ele>
        <time>2021-08-11T12:07:25.613Z</time>
      </trkpt>
      <trkpt lat="46.87488" lon="8.49083">
        <ele>1698</ele>
        <time>2021-08-11T12:07:26.612Z</time>
      </trkpt>
      <trkpt lat="46.87488" lon="8.49083">
        <ele>1698</ele>
        <time>2021-08-11T12:07:27.613Z</time>
      </trkpt>
      <trkpt lat="46.87488" lon="8.49082">
        <ele>1698</ele>
        <time>2021-08-11T12:07:28.613Z</time>
      </trkpt>
      <trkpt lat="46.87489" lon="8.49082">
        <ele>1698</ele>
        <time>2021-08-11T12:07:29.613Z</time>
      </trkpt>
      <trkpt lat="46.8749" lon="8.49081">
        <ele>1698</ele>
        <time>2021-08-11T12:07:30.613Z</time>
      </trkpt>
      <trkpt lat="46.8749" lon="8.49081">
        <ele>1698</ele>
        <time>2021-08-11T12:07:31.612Z</time>
      </trkpt>
      <trkpt lat="46.87491" lon="8.49081">
        <ele>1698</ele>
        <time>2021-08-11T12:07:32.613Z</time>
      </trkpt>
      <trkpt lat="46.87492" lon="8.4908">
        <ele>1698</ele>
        <time>2021-08-11T12:07:33.613Z</time>
      </trkpt>
      <trkpt lat="46.87492" lon="8.49079">
        <ele>1698</ele>
        <time>2021-08-11T12:07:34.612Z</time>
      </trkpt>
      <trkpt lat="46.87493" lon="8.49078">
        <ele>1698</ele>
        <time>2021-08-11T12:07:35.612Z</time>
      </trkpt>
      <trkpt lat="46.87494" lon="8.49078">
        <ele>1698</ele>
        <time>2021-08-11T12:07:36.612Z</time>
      </trkpt>
      <trkpt lat="46.87495" lon="8.49077">
        <ele>1699</ele>
        <time>2021-08-11T12:07:38.738Z</time>
      </trkpt>
      <trkpt lat="46.87496" lon="8.49077">
        <ele>1699</ele>
        <time>2021-08-11T12:07:39.739Z</time>
      </trkpt>
      <trkpt lat="46.87498" lon="8.49077">
        <ele>1700</ele>
        <time>2021-08-11T12:07:40.739Z</time>
      </trkpt>
      <trkpt lat="46.87498" lon="8.49076">
        <ele>1700</ele>
        <time>2021-08-11T12:07:41.739Z</time>
      </trkpt>
      <trkpt lat="46.87498" lon="8.49075">
        <ele>1700</ele>
        <time>2021-08-11T12:07:42.738Z</time>
      </trkpt>
      <trkpt lat="46.87498" lon="8.49074">
        <ele>1700</ele>
        <time>2021-08-11T12:07:43.739Z</time>
      </trkpt>
      <trkpt lat="46.87497" lon="8.49072">
        <ele>1701</ele>
        <time>2021-08-11T12:07:44.739Z</time>
      </trkpt>
      <trkpt lat="46.87497" lon="8.4907">
        <ele>1701</ele>
        <time>2021-08-11T12:07:45.739Z</time>
      </trkpt>
      <trkpt lat="46.87497" lon="8.4907">
        <ele>1701</ele>
        <time>2021-08-11T12:07:46.739Z</time>
      </trkpt>
      <trkpt lat="46.87497" lon="8.49068">
        <ele>1702</ele>
        <time>2021-08-11T12:07:47.738Z</time>
      </trkpt>
      <trkpt lat="46.87497" lon="8.49067">
        <ele>1702</ele>
        <time>2021-08-11T12:07:48.739Z</time>
      </trkpt>
      <trkpt lat="46.87497" lon="8.49067">
        <ele>1702</ele>
        <time>2021-08-11T12:07:49.739Z</time>
      </trkpt>
      <trkpt lat="46.87498" lon="8.49066">
        <ele>1702</ele>
        <time>2021-08-11T12:07:50.738Z</time>
      </trkpt>
      <trkpt lat="46.87498" lon="8.49066">
        <ele>1703</ele>
        <time>2021-08-11T12:07:51.739Z</time>
      </trkpt>
      <trkpt lat="46.87499" lon="8.49065">
        <ele>1703</ele>
        <time>2021-08-11T12:07:52.739Z</time>
      </trkpt>
      <trkpt lat="46.87499" lon="8.49065">
        <ele>1703</ele>
        <time>2021-08-11T12:07:53.739Z</time>
      </trkpt>
      <trkpt lat="46.87499" lon="8.49064">
        <ele>1703</ele>
        <time>2021-08-11T12:07:54.739Z</time>
      </trkpt>
      <trkpt lat="46.875" lon="8.49064">
        <ele>1704</ele>
        <time>2021-08-11T12:07:55.739Z</time>
      </trkpt>
      <trkpt lat="46.875" lon="8.49063">
        <ele>1704</ele>
        <time>2021-08-11T12:07:56.739Z</time>
      </trkpt>
      <trkpt lat="46.87501" lon="8.49063">
        <ele>1705</ele>
        <time>2021-08-11T12:08:02.857Z</time>
      </trkpt>
      <trkpt lat="46.87501" lon="8.49062">
        <ele>1705</ele>
        <time>2021-08-11T12:08:03.856Z</time>
      </trkpt>
      <trkpt lat="46.87502" lon="8.49061">
        <ele>1706</ele>
        <time>2021-08-11T12:08:04.857Z</time>
      </trkpt>
      <trkpt lat="46.87502" lon="8.4906">
        <ele>1706</ele>
        <time>2021-08-11T12:08:05.857Z</time>
      </trkpt>
      <trkpt lat="46.87502" lon="8.49059">
        <ele>1707</ele>
        <time>2021-08-11T12:08:06.857Z</time>
      </trkpt>
      <trkpt lat="46.87503" lon="8.49059">
        <ele>1707</ele>
        <time>2021-08-11T12:08:07.857Z</time>
      </trkpt>
      <trkpt lat="46.87503" lon="8.49058">
        <ele>1707</ele>
        <time>2021-08-11T12:08:08.857Z</time>
      </trkpt>
      <trkpt lat="46.87503" lon="8.49057">
        <ele>1708</ele>
        <time>2021-08-11T12:08:09.857Z</time>
      </trkpt>
      <trkpt lat="46.875" lon="8.4905">
        <ele>1715</ele>
        <time>2021-08-11T12:08:15.895Z</time>
      </trkpt>
      <trkpt lat="46.87501" lon="8.4905">
        <ele>1715</ele>
        <time>2021-08-11T12:08:16.895Z</time>
      </trkpt>
      <trkpt lat="46.87501" lon="8.49046">
        <ele>1719</ele>
        <time>2021-08-11T12:08:17.895Z</time>
      </trkpt>
      <trkpt lat="46.87501" lon="8.49046">
        <ele>1720</ele>
        <time>2021-08-11T12:08:34.997Z</time>
      </trkpt>
      <trkpt lat="46.87502" lon="8.49046">
        <ele>1720</ele>
        <time>2021-08-11T12:08:35.996Z</time>
      </trkpt>
      <trkpt lat="46.87502" lon="8.49046">
        <ele>1720</ele>
        <time>2021-08-11T12:08:56.875Z</time>
      </trkpt>
      <trkpt lat="46.87502" lon="8.49047">
        <ele>1719</ele>
        <time>2021-08-11T12:08:57.876Z</time>
      </trkpt>
      <trkpt lat="46.87503" lon="8.49047">
        <ele>1719</ele>
        <time>2021-08-11T12:08:58.875Z</time>
      </trkpt>
      <trkpt lat="46.87503" lon="8.49047">
        <ele>1718</ele>
        <time>2021-08-11T12:09:04.874Z</time>
      </trkpt>
      <trkpt lat="46.87503" lon="8.49046">
        <ele>1718</ele>
        <time>2021-08-11T12:09:05.873Z</time>
      </trkpt>
      <trkpt lat="46.87502" lon="8.49046">
        <ele>1717</ele>
        <time>2021-08-11T12:09:06.873Z</time>
      </trkpt>
      <trkpt lat="46.87502" lon="8.49046">
        <ele>1717</ele>
        <time>2021-08-11T12:09:07.873Z</time>
      </trkpt>
      <trkpt lat="46.87502" lon="8.49045">
        <ele>1716</ele>
        <time>2021-08-11T12:09:08.874Z</time>
      </trkpt>
      <trkpt lat="46.87503" lon="8.49045">
        <ele>1716</ele>
        <time>2021-08-11T12:09:12.877Z</time>
      </trkpt>
      <trkpt lat="46.87503" lon="8.49045">
        <ele>1716</ele>
        <time>2021-08-11T12:09:13.877Z</time>
      </trkpt>
      <trkpt lat="46.87504" lon="8.49044">
        <ele>1716</ele>
        <time>2021-08-11T12:09:14.877Z</time>
      </trkpt>
      <trkpt lat="46.87504" lon="8.49044">
        <ele>1716</ele>
        <time>2021-08-11T12:09:38.880Z</time>
      </trkpt>
      <trkpt lat="46.87504" lon="8.49045">
        <ele>1716</ele>
        <time>2021-08-11T12:09:39.879Z</time>
      </trkpt>
      <trkpt lat="46.87505" lon="8.49044">
        <ele>1716</ele>
        <time>2021-08-11T12:09:40.879Z</time>
      </trkpt>
      <trkpt lat="46.87505" lon="8.49045">
        <ele>1716</ele>
        <time>2021-08-11T12:09:41.880Z</time>
      </trkpt>
      <trkpt lat="46.87505" lon="8.49045">
        <ele>1716</ele>
        <time>2021-08-11T12:09:42.880Z</time>
      </trkpt>
      <trkpt lat="46.87505" lon="8.49045">
        <ele>1715</ele>
        <time>2021-08-11T12:09:49.898Z</time>
      </trkpt>
      <trkpt lat="46.87505" lon="8.49046">
        <ele>1712</ele>
        <time>2021-08-11T12:09:50.900Z</time>
      </trkpt>
      <trkpt lat="46.87506" lon="8.49047">
        <ele>1712</ele>
        <time>2021-08-11T12:09:51.900Z</time>
      </trkpt>
      <trkpt lat="46.87506" lon="8.49047">
        <ele>1711</ele>
        <time>2021-08-11T12:09:52.899Z</time>
      </trkpt>
      <trkpt lat="46.87506" lon="8.49048">
        <ele>1710</ele>
        <time>2021-08-11T12:09:53.900Z</time>
      </trkpt>
      <trkpt lat="46.87507" lon="8.49048">
        <ele>1709</ele>
        <time>2021-08-11T12:09:54.900Z</time>
      </trkpt>
      <trkpt lat="46.87507" lon="8.49048">
        <ele>1709</ele>
        <time>2021-08-11T12:09:55.900Z</time>
      </trkpt>
      <trkpt lat="46.87507" lon="8.49048">
        <ele>1709</ele>
        <time>2021-08-11T12:09:56.900Z</time>
      </trkpt>
      <trkpt lat="46.87508" lon="8.49049">
        <ele>1709</ele>
        <time>2021-08-11T12:09:57.899Z</time>
      </trkpt>
      <trkpt lat="46.87508" lon="8.49049">
        <ele>1709</ele>
        <time>2021-08-11T12:09:58.899Z</time>
      </trkpt>
      <trkpt lat="46.87508" lon="8.49049">
        <ele>1708</ele>
        <time>2021-08-11T12:09:59.900Z</time>
      </trkpt>
      <trkpt lat="46.87509" lon="8.49049">
        <ele>1708</ele>
        <time>2021-08-11T12:10:00.900Z</time>
      </trkpt>
      <trkpt lat="46.8751" lon="8.4905">
        <ele>1708</ele>
        <time>2021-08-11T12:10:01.900Z</time>
      </trkpt>
      <trkpt lat="46.8751" lon="8.4905">
        <ele>1708</ele>
        <time>2021-08-11T12:10:02.900Z</time>
      </trkpt>
      <trkpt lat="46.8751" lon="8.49049">
        <ele>1708</ele>
        <time>2021-08-11T12:10:03.899Z</time>
      </trkpt>
      <trkpt lat="46.8751" lon="8.49048">
        <ele>1709</ele>
        <time>2021-08-11T12:10:04.900Z</time>
      </trkpt>
      <trkpt lat="46.8751" lon="8.49048">
        <ele>1710</ele>
        <time>2021-08-11T12:10:05.899Z</time>
      </trkpt>
      <trkpt lat="46.87511" lon="8.49047">
        <ele>1710</ele>
        <time>2021-08-11T12:10:06.900Z</time>
      </trkpt>
      <trkpt lat="46.87512" lon="8.49047">
        <ele>1711</ele>
        <time>2021-08-11T12:10:07.900Z</time>
      </trkpt>
      <trkpt lat="46.87512" lon="8.49047">
        <ele>1712</ele>
        <time>2021-08-11T12:10:08.900Z</time>
      </trkpt>
      <trkpt lat="46.87513" lon="8.49046">
        <ele>1712</ele>
        <time>2021-08-11T12:10:09.900Z</time>
      </trkpt>
      <trkpt lat="46.87513" lon="8.49046">
        <ele>1712</ele>
        <time>2021-08-11T12:10:10.899Z</time>
      </trkpt>
      <trkpt lat="46.87513" lon="8.49045">
        <ele>1713</ele>
        <time>2021-08-11T12:10:11.900Z</time>
      </trkpt>
      <trkpt lat="46.87514" lon="8.49045">
        <ele>1713</ele>
        <time>2021-08-11T12:10:12.900Z</time>
      </trkpt>
      <trkpt lat="46.87514" lon="8.49044">
        <ele>1714</ele>
        <time>2021-08-11T12:10:13.900Z</time>
      </trkpt>
      <trkpt lat="46.87515" lon="8.49044">
        <ele>1714</ele>
        <time>2021-08-11T12:10:14.900Z</time>
      </trkpt>
      <trkpt lat="46.87516" lon="8.49044">
        <ele>1714</ele>
        <time>2021-08-11T12:10:15.899Z</time>
      </trkpt>
      <trkpt lat="46.87517" lon="8.49043">
        <ele>1714</ele>
        <time>2021-08-11T12:10:16.899Z</time>
      </trkpt>
      <trkpt lat="46.87517" lon="8.49042">
        <ele>1715</ele>
        <time>2021-08-11T12:10:17.900Z</time>
      </trkpt>
      <trkpt lat="46.87518" lon="8.49041">
        <ele>1715</ele>
        <time>2021-08-11T12:10:18.900Z</time>
      </trkpt>
      <trkpt lat="46.87518" lon="8.49041">
        <ele>1715</ele>
        <time>2021-08-11T12:10:19.899Z</time>
      </trkpt>
      <trkpt lat="46.87519" lon="8.49041">
        <ele>1715</ele>
        <time>2021-08-11T12:10:20.899Z</time>
      </trkpt>
      <trkpt lat="46.87519" lon="8.49041">
        <ele>1716</ele>
        <time>2021-08-11T12:10:21.900Z</time>
      </trkpt>
      <trkpt lat="46.8752" lon="8.49041">
        <ele>1716</ele>
        <time>2021-08-11T12:10:22.900Z</time>
      </trkpt>
      <trkpt lat="46.8752" lon="8.49041">
        <ele>1716</ele>
        <time>2021-08-11T12:10:23.900Z</time>
      </trkpt>
      <trkpt lat="46.87519" lon="8.4904">
        <ele>1716</ele>
        <time>2021-08-11T12:10:24.899Z</time>
      </trkpt>
      <trkpt lat="46.87519" lon="8.49039">
        <ele>1716</ele>
        <time>2021-08-11T12:10:25.900Z</time>
      </trkpt>
      <trkpt lat="46.87518" lon="8.49038">
        <ele>1716</ele>
        <time>2021-08-11T12:10:26.900Z</time>
      </trkpt>
      <trkpt lat="46.87518" lon="8.49038">
        <ele>1716</ele>
        <time>2021-08-11T12:10:27.900Z</time>
      </trkpt>
      <trkpt lat="46.87517" lon="8.49037">
        <ele>1715</ele>
        <time>2021-08-11T12:10:28.900Z</time>
      </trkpt>
      <trkpt lat="46.87516" lon="8.49037">
        <ele>1715</ele>
        <time>2021-08-11T12:10:29.899Z</time>
      </trkpt>
      <trkpt lat="46.87517" lon="8.49037">
        <ele>1715</ele>
        <time>2021-08-11T12:10:30.899Z</time>
      </trkpt>
      <trkpt lat="46.87517" lon="8.49036">
        <ele>1714</ele>
        <time>2021-08-11T12:10:31.900Z</time>
      </trkpt>
      <trkpt lat="46.87517" lon="8.49035">
        <ele>1714</ele>
        <time>2021-08-11T12:10:32.900Z</time>
      </trkpt>
      <trkpt lat="46.87517" lon="8.49034">
        <ele>1714</ele>
        <time>2021-08-11T12:10:33.899Z</time>
      </trkpt>
      <trkpt lat="46.87517" lon="8.49033">
        <ele>1714</ele>
        <time>2021-08-11T12:10:34.900Z</time>
      </trkpt>
      <trkpt lat="46.87517" lon="8.49033">
        <ele>1714</ele>
        <time>2021-08-11T12:10:35.899Z</time>
      </trkpt>
      <trkpt lat="46.87516" lon="8.49032">
        <ele>1714</ele>
        <time>2021-08-11T12:10:36.900Z</time>
      </trkpt>
      <trkpt lat="46.87516" lon="8.49032">
        <ele>1714</ele>
        <time>2021-08-11T12:10:37.900Z</time>
      </trkpt>
      <trkpt lat="46.87517" lon="8.49032">
        <ele>1714</ele>
        <time>2021-08-11T12:10:38.899Z</time>
      </trkpt>
      <trkpt lat="46.87518" lon="8.49032">
        <ele>1715</ele>
        <time>2021-08-11T12:10:39.900Z</time>
      </trkpt>
      <trkpt lat="46.87518" lon="8.49031">
        <ele>1715</ele>
        <time>2021-08-11T12:10:40.899Z</time>
      </trkpt>
      <trkpt lat="46.87519" lon="8.49031">
        <ele>1715</ele>
        <time>2021-08-11T12:10:41.900Z</time>
      </trkpt>
      <trkpt lat="46.87519" lon="8.4903">
        <ele>1715</ele>
        <time>2021-08-11T12:10:42.899Z</time>
      </trkpt>
      <trkpt lat="46.87519" lon="8.49029">
        <ele>1716</ele>
        <time>2021-08-11T12:10:43.900Z</time>
      </trkpt>
      <trkpt lat="46.87518" lon="8.49028">
        <ele>1716</ele>
        <time>2021-08-11T12:10:44.899Z</time>
      </trkpt>
      <trkpt lat="46.87518" lon="8.49028">
        <ele>1716</ele>
        <time>2021-08-11T12:10:45.899Z</time>
      </trkpt>
      <trkpt lat="46.87518" lon="8.49027">
        <ele>1716</ele>
        <time>2021-08-11T12:10:46.900Z</time>
      </trkpt>
      <trkpt lat="46.87518" lon="8.49027">
        <ele>1716</ele>
        <time>2021-08-11T12:10:47.899Z</time>
      </trkpt>
      <trkpt lat="46.87518" lon="8.49027">
        <ele>1716</ele>
        <time>2021-08-11T12:10:48.900Z</time>
      </trkpt>
      <trkpt lat="46.87518" lon="8.49026">
        <ele>1716</ele>
        <time>2021-08-11T12:10:49.899Z</time>
      </trkpt>
      <trkpt lat="46.87519" lon="8.49026">
        <ele>1716</ele>
        <time>2021-08-11T12:10:50.900Z</time>
      </trkpt>
      <trkpt lat="46.87519" lon="8.49026">
        <ele>1716</ele>
        <time>2021-08-11T12:10:51.900Z</time>
      </trkpt>
      <trkpt lat="46.87519" lon="8.49025">
        <ele>1717</ele>
        <time>2021-08-11T12:10:52.899Z</time>
      </trkpt>
      <trkpt lat="46.87519" lon="8.49024">
        <ele>1717</ele>
        <time>2021-08-11T12:10:53.900Z</time>
      </trkpt>
      <trkpt lat="46.8752" lon="8.49023">
        <ele>1717</ele>
        <time>2021-08-11T12:10:54.900Z</time>
      </trkpt>
      <trkpt lat="46.8752" lon="8.49022">
        <ele>1718</ele>
        <time>2021-08-11T12:10:55.899Z</time>
      </trkpt>
      <trkpt lat="46.8752" lon="8.49022">
        <ele>1718</ele>
        <time>2021-08-11T12:10:56.900Z</time>
      </trkpt>
      <trkpt lat="46.8752" lon="8.49021">
        <ele>1718</ele>
        <time>2021-08-11T12:10:57.899Z</time>
      </trkpt>
      <trkpt lat="46.87521" lon="8.4902">
        <ele>1718</ele>
        <time>2021-08-11T12:10:58.899Z</time>
      </trkpt>
      <trkpt lat="46.87521" lon="8.4902">
        <ele>1718</ele>
        <time>2021-08-11T12:10:59.899Z</time>
      </trkpt>
      <trkpt lat="46.87521" lon="8.4902">
        <ele>1718</ele>
        <time>2021-08-11T12:11:00.900Z</time>
      </trkpt>
      <trkpt lat="46.87521" lon="8.49019">
        <ele>1718</ele>
        <time>2021-08-11T12:11:01.900Z</time>
      </trkpt>
      <trkpt lat="46.87521" lon="8.49017">
        <ele>1718</ele>
        <time>2021-08-11T12:11:06.014Z</time>
      </trkpt>
      <trkpt lat="46.87521" lon="8.49015">
        <ele>1718</ele>
        <time>2021-08-11T12:11:07.015Z</time>
      </trkpt>
      <trkpt lat="46.87521" lon="8.49012">
        <ele>1717</ele>
        <time>2021-08-11T12:11:08.014Z</time>
      </trkpt>
      <trkpt lat="46.87521" lon="8.49011">
        <ele>1717</ele>
        <time>2021-08-11T12:11:09.014Z</time>
      </trkpt>
      <trkpt lat="46.8752" lon="8.4901">
        <ele>1717</ele>
        <time>2021-08-11T12:11:10.014Z</time>
      </trkpt>
      <trkpt lat="46.8752" lon="8.49011">
        <ele>1717</ele>
        <time>2021-08-11T12:11:11.015Z</time>
      </trkpt>
      <trkpt lat="46.87519" lon="8.49011">
        <ele>1716</ele>
        <time>2021-08-11T12:11:12.015Z</time>
      </trkpt>
      <trkpt lat="46.87518" lon="8.4901">
        <ele>1716</ele>
        <time>2021-08-11T12:11:13.015Z</time>
      </trkpt>
      <trkpt lat="46.87517" lon="8.49011">
        <ele>1715</ele>
        <time>2021-08-11T12:11:14.015Z</time>
      </trkpt>
      <trkpt lat="46.87516" lon="8.49011">
        <ele>1715</ele>
        <time>2021-08-11T12:11:15.015Z</time>
      </trkpt>
      <trkpt lat="46.87515" lon="8.49011">
        <ele>1715</ele>
        <time>2021-08-11T12:11:16.014Z</time>
      </trkpt>
      <trkpt lat="46.87515" lon="8.49011">
        <ele>1715</ele>
        <time>2021-08-11T12:11:17.014Z</time>
      </trkpt>
      <trkpt lat="46.87515" lon="8.4901">
        <ele>1714</ele>
        <time>2021-08-11T12:11:18.015Z</time>
      </trkpt>
      <trkpt lat="46.87514" lon="8.49009">
        <ele>1714</ele>
        <time>2021-08-11T12:11:19.014Z</time>
      </trkpt>
      <trkpt lat="46.87515" lon="8.49008">
        <ele>1714</ele>
        <time>2021-08-11T12:11:23.011Z</time>
      </trkpt>
      <trkpt lat="46.87514" lon="8.49007">
        <ele>1714</ele>
        <time>2021-08-11T12:11:24.011Z</time>
      </trkpt>
      <trkpt lat="46.87514" lon="8.49006">
        <ele>1714</ele>
        <time>2021-08-11T12:11:25.012Z</time>
      </trkpt>
      <trkpt lat="46.87514" lon="8.49006">
        <ele>1714</ele>
        <time>2021-08-11T12:11:26.012Z</time>
      </trkpt>
      <trkpt lat="46.87514" lon="8.49005">
        <ele>1714</ele>
        <time>2021-08-11T12:11:31.139Z</time>
      </trkpt>
      <trkpt lat="46.87513" lon="8.49004">
        <ele>1715</ele>
        <time>2021-08-11T12:11:32.140Z</time>
      </trkpt>
      <trkpt lat="46.87513" lon="8.49003">
        <ele>1715</ele>
        <time>2021-08-11T12:11:33.139Z</time>
      </trkpt>
      <trkpt lat="46.87512" lon="8.49003">
        <ele>1715</ele>
        <time>2021-08-11T12:11:34.140Z</time>
      </trkpt>
      <trkpt lat="46.87512" lon="8.49002">
        <ele>1715</ele>
        <time>2021-08-11T12:11:35.140Z</time>
      </trkpt>
      <trkpt lat="46.87512" lon="8.49001">
        <ele>1715</ele>
        <time>2021-08-11T12:11:36.140Z</time>
      </trkpt>
      <trkpt lat="46.87511" lon="8.49">
        <ele>1715</ele>
        <time>2021-08-11T12:11:37.140Z</time>
      </trkpt>
      <trkpt lat="46.8751" lon="8.48999">
        <ele>1715</ele>
        <time>2021-08-11T12:11:38.140Z</time>
      </trkpt>
      <trkpt lat="46.8751" lon="8.48999">
        <ele>1716</ele>
        <time>2021-08-11T12:11:39.140Z</time>
      </trkpt>
      <trkpt lat="46.8751" lon="8.48998">
        <ele>1716</ele>
        <time>2021-08-11T12:11:40.140Z</time>
      </trkpt>
      <trkpt lat="46.8751" lon="8.48998">
        <ele>1716</ele>
        <time>2021-08-11T12:11:41.139Z</time>
      </trkpt>
      <trkpt lat="46.87509" lon="8.48997">
        <ele>1717</ele>
        <time>2021-08-11T12:11:42.140Z</time>
      </trkpt>
      <trkpt lat="46.87509" lon="8.48997">
        <ele>1717</ele>
        <time>2021-08-11T12:11:43.139Z</time>
      </trkpt>
      <trkpt lat="46.87508" lon="8.48996">
        <ele>1717</ele>
        <time>2021-08-11T12:11:44.140Z</time>
      </trkpt>
      <trkpt lat="46.87508" lon="8.48995">
        <ele>1718</ele>
        <time>2021-08-11T12:11:45.139Z</time>
      </trkpt>
      <trkpt lat="46.87509" lon="8.48995">
        <ele>1718</ele>
        <time>2021-08-11T12:11:46.139Z</time>
      </trkpt>
      <trkpt lat="46.87509" lon="8.48995">
        <ele>1718</ele>
        <time>2021-08-11T12:11:47.140Z</time>
      </trkpt>
      <trkpt lat="46.87509" lon="8.48995">
        <ele>1718</ele>
        <time>2021-08-11T12:11:48.139Z</time>
      </trkpt>
      <trkpt lat="46.87509" lon="8.48994">
        <ele>1718</ele>
        <time>2021-08-11T12:11:49.140Z</time>
      </trkpt>
      <trkpt lat="46.87509" lon="8.48994">
        <ele>1719</ele>
        <time>2021-08-11T12:11:50.140Z</time>
      </trkpt>
      <trkpt lat="46.87509" lon="8.48993">
        <ele>1719</ele>
        <time>2021-08-11T12:11:51.140Z</time>
      </trkpt>
      <trkpt lat="46.87509" lon="8.48992">
        <ele>1720</ele>
        <time>2021-08-11T12:11:52.140Z</time>
      </trkpt>
      <trkpt lat="46.87509" lon="8.48992">
        <ele>1720</ele>
        <time>2021-08-11T12:11:53.140Z</time>
      </trkpt>
      <trkpt lat="46.87508" lon="8.48991">
        <ele>1721</ele>
        <time>2021-08-11T12:11:54.140Z</time>
      </trkpt>
      <trkpt lat="46.87508" lon="8.4899">
        <ele>1721</ele>
        <time>2021-08-11T12:11:55.140Z</time>
      </trkpt>
      <trkpt lat="46.87507" lon="8.48989">
        <ele>1722</ele>
        <time>2021-08-11T12:11:56.140Z</time>
      </trkpt>
      <trkpt lat="46.87507" lon="8.48988">
        <ele>1722</ele>
        <time>2021-08-11T12:11:57.139Z</time>
      </trkpt>
      <trkpt lat="46.87507" lon="8.48988">
        <ele>1722</ele>
        <time>2021-08-11T12:11:58.139Z</time>
      </trkpt>
      <trkpt lat="46.87508" lon="8.48988">
        <ele>1723</ele>
        <time>2021-08-11T12:11:59.140Z</time>
      </trkpt>
      <trkpt lat="46.87508" lon="8.48988">
        <ele>1723</ele>
        <time>2021-08-11T12:12:00.140Z</time>
      </trkpt>
      <trkpt lat="46.87507" lon="8.48988">
        <ele>1723</ele>
        <time>2021-08-11T12:12:01.139Z</time>
      </trkpt>
      <trkpt lat="46.87507" lon="8.48987">
        <ele>1723</ele>
        <time>2021-08-11T12:12:07.262Z</time>
      </trkpt>
      <trkpt lat="46.87507" lon="8.48987">
        <ele>1724</ele>
        <time>2021-08-11T12:12:08.261Z</time>
      </trkpt>
      <trkpt lat="46.87507" lon="8.48986">
        <ele>1724</ele>
        <time>2021-08-11T12:12:09.262Z</time>
      </trkpt>
      <trkpt lat="46.87507" lon="8.48985">
        <ele>1725</ele>
        <time>2021-08-11T12:12:10.261Z</time>
      </trkpt>
      <trkpt lat="46.87508" lon="8.48984">
        <ele>1725</ele>
        <time>2021-08-11T12:12:11.261Z</time>
      </trkpt>
      <trkpt lat="46.87507" lon="8.48984">
        <ele>1725</ele>
        <time>2021-08-11T12:12:12.262Z</time>
      </trkpt>
      <trkpt lat="46.87507" lon="8.48983">
        <ele>1725</ele>
        <time>2021-08-11T12:12:13.261Z</time>
      </trkpt>
      <trkpt lat="46.87507" lon="8.48982">
        <ele>1725</ele>
        <time>2021-08-11T12:12:14.261Z</time>
      </trkpt>
      <trkpt lat="46.87507" lon="8.48982">
        <ele>1726</ele>
        <time>2021-08-11T12:12:15.262Z</time>
      </trkpt>
      <trkpt lat="46.87508" lon="8.48981">
        <ele>1726</ele>
        <time>2021-08-11T12:12:16.262Z</time>
      </trkpt>
      <trkpt lat="46.87508" lon="8.48981">
        <ele>1726</ele>
        <time>2021-08-11T12:12:23.259Z</time>
      </trkpt>
      <trkpt lat="46.87508" lon="8.4898">
        <ele>1726</ele>
        <time>2021-08-11T12:12:24.260Z</time>
      </trkpt>
      <trkpt lat="46.87508" lon="8.48979">
        <ele>1726</ele>
        <time>2021-08-11T12:12:25.260Z</time>
      </trkpt>
      <trkpt lat="46.87509" lon="8.48978">
        <ele>1726</ele>
        <time>2021-08-11T12:12:26.260Z</time>
      </trkpt>
      <trkpt lat="46.87509" lon="8.48978">
        <ele>1727</ele>
        <time>2021-08-11T12:12:27.260Z</time>
      </trkpt>
      <trkpt lat="46.8751" lon="8.48978">
        <ele>1727</ele>
        <time>2021-08-11T12:12:30.357Z</time>
      </trkpt>
      <trkpt lat="46.87509" lon="8.48977">
        <ele>1728</ele>
        <time>2021-08-11T12:12:31.358Z</time>
      </trkpt>
      <trkpt lat="46.87509" lon="8.48976">
        <ele>1728</ele>
        <time>2021-08-11T12:12:32.357Z</time>
      </trkpt>
      <trkpt lat="46.8751" lon="8.48975">
        <ele>1728</ele>
        <time>2021-08-11T12:12:33.358Z</time>
      </trkpt>
      <trkpt lat="46.8751" lon="8.48975">
        <ele>1729</ele>
        <time>2021-08-11T12:12:34.357Z</time>
      </trkpt>
      <trkpt lat="46.8751" lon="8.48974">
        <ele>1729</ele>
        <time>2021-08-11T12:12:35.358Z</time>
      </trkpt>
      <trkpt lat="46.87509" lon="8.48973">
        <ele>1730</ele>
        <time>2021-08-11T12:12:36.358Z</time>
      </trkpt>
      <trkpt lat="46.87509" lon="8.48972">
        <ele>1730</ele>
        <time>2021-08-11T12:12:38.490Z</time>
      </trkpt>
      <trkpt lat="46.87509" lon="8.48971">
        <ele>1730</ele>
        <time>2021-08-11T12:12:39.490Z</time>
      </trkpt>
      <trkpt lat="46.8751" lon="8.48971">
        <ele>1730</ele>
        <time>2021-08-11T12:12:40.489Z</time>
      </trkpt>
      <trkpt lat="46.8751" lon="8.4897">
        <ele>1729</ele>
        <time>2021-08-11T12:12:41.490Z</time>
      </trkpt>
      <trkpt lat="46.8751" lon="8.4897">
        <ele>1729</ele>
        <time>2021-08-11T12:12:42.490Z</time>
      </trkpt>
      <trkpt lat="46.8751" lon="8.48969">
        <ele>1729</ele>
        <time>2021-08-11T12:12:43.490Z</time>
      </trkpt>
      <trkpt lat="46.8751" lon="8.48968">
        <ele>1729</ele>
        <time>2021-08-11T12:12:44.489Z</time>
      </trkpt>
      <trkpt lat="46.8751" lon="8.48968">
        <ele>1728</ele>
        <time>2021-08-11T12:12:45.490Z</time>
      </trkpt>
      <trkpt lat="46.8751" lon="8.48967">
        <ele>1728</ele>
        <time>2021-08-11T12:12:46.489Z</time>
      </trkpt>
      <trkpt lat="46.8751" lon="8.48967">
        <ele>1728</ele>
        <time>2021-08-11T12:12:47.490Z</time>
      </trkpt>
      <trkpt lat="46.87511" lon="8.48967">
        <ele>1728</ele>
        <time>2021-08-11T12:12:48.489Z</time>
      </trkpt>
      <trkpt lat="46.87511" lon="8.48966">
        <ele>1729</ele>
        <time>2021-08-11T12:12:56.604Z</time>
      </trkpt>
      <trkpt lat="46.87511" lon="8.48966">
        <ele>1729</ele>
        <time>2021-08-11T12:12:57.605Z</time>
      </trkpt>
      <trkpt lat="46.87512" lon="8.48965">
        <ele>1729</ele>
        <time>2021-08-11T12:12:58.605Z</time>
      </trkpt>
      <trkpt lat="46.87513" lon="8.48964">
        <ele>1729</ele>
        <time>2021-08-11T12:12:59.605Z</time>
      </trkpt>
      <trkpt lat="46.87513" lon="8.48964">
        <ele>1729</ele>
        <time>2021-08-11T12:13:04.726Z</time>
      </trkpt>
      <trkpt lat="46.87513" lon="8.48963">
        <ele>1729</ele>
        <time>2021-08-11T12:13:05.725Z</time>
      </trkpt>
      <trkpt lat="46.87513" lon="8.48962">
        <ele>1729</ele>
        <time>2021-08-11T12:13:06.726Z</time>
      </trkpt>
      <trkpt lat="46.87513" lon="8.48961">
        <ele>1729</ele>
        <time>2021-08-11T12:13:07.725Z</time>
      </trkpt>
      <trkpt lat="46.87513" lon="8.4896">
        <ele>1730</ele>
        <time>2021-08-11T12:13:08.726Z</time>
      </trkpt>
      <trkpt lat="46.87513" lon="8.4896">
        <ele>1730</ele>
        <time>2021-08-11T12:13:09.725Z</time>
      </trkpt>
      <trkpt lat="46.87513" lon="8.48959">
        <ele>1730</ele>
        <time>2021-08-11T12:13:10.725Z</time>
      </trkpt>
      <trkpt lat="46.87513" lon="8.48958">
        <ele>1730</ele>
        <time>2021-08-11T12:13:11.726Z</time>
      </trkpt>
      <trkpt lat="46.87514" lon="8.48958">
        <ele>1730</ele>
        <time>2021-08-11T12:13:12.726Z</time>
      </trkpt>
      <trkpt lat="46.87514" lon="8.48958">
        <ele>1730</ele>
        <time>2021-08-11T12:13:13.726Z</time>
      </trkpt>
      <trkpt lat="46.87514" lon="8.48958">
        <ele>1730</ele>
        <time>2021-08-11T12:13:14.725Z</time>
      </trkpt>
      <trkpt lat="46.87514" lon="8.48958">
        <ele>1730</ele>
        <time>2021-08-11T12:13:15.726Z</time>
      </trkpt>
      <trkpt lat="46.87515" lon="8.48958">
        <ele>1729</ele>
        <time>2021-08-11T12:13:16.726Z</time>
      </trkpt>
      <trkpt lat="46.87515" lon="8.48957">
        <ele>1729</ele>
        <time>2021-08-11T12:13:17.726Z</time>
      </trkpt>
      <trkpt lat="46.87514" lon="8.48956">
        <ele>1729</ele>
        <time>2021-08-11T12:13:18.725Z</time>
      </trkpt>
      <trkpt lat="46.87514" lon="8.48955">
        <ele>1729</ele>
        <time>2021-08-11T12:13:19.726Z</time>
      </trkpt>
      <trkpt lat="46.87515" lon="8.48955">
        <ele>1729</ele>
        <time>2021-08-11T12:13:20.726Z</time>
      </trkpt>
      <trkpt lat="46.87515" lon="8.48954">
        <ele>1729</ele>
        <time>2021-08-11T12:13:21.726Z</time>
      </trkpt>
      <trkpt lat="46.87515" lon="8.48954">
        <ele>1730</ele>
        <time>2021-08-11T12:13:22.726Z</time>
      </trkpt>
      <trkpt lat="46.87516" lon="8.48954">
        <ele>1730</ele>
        <time>2021-08-11T12:13:23.725Z</time>
      </trkpt>
      <trkpt lat="46.87516" lon="8.48955">
        <ele>1730</ele>
        <time>2021-08-11T12:13:24.725Z</time>
      </trkpt>
      <trkpt lat="46.87516" lon="8.48954">
        <ele>1731</ele>
        <time>2021-08-11T12:13:25.725Z</time>
      </trkpt>
      <trkpt lat="46.87516" lon="8.48954">
        <ele>1731</ele>
        <time>2021-08-11T12:13:26.725Z</time>
      </trkpt>
      <trkpt lat="46.87515" lon="8.48953">
        <ele>1728</ele>
        <time>2021-08-11T12:13:27.726Z</time>
      </trkpt>
      <trkpt lat="46.87515" lon="8.48952">
        <ele>1728</ele>
        <time>2021-08-11T12:13:28.726Z</time>
      </trkpt>
      <trkpt lat="46.87515" lon="8.48952">
        <ele>1727</ele>
        <time>2021-08-11T12:13:29.725Z</time>
      </trkpt>
      <trkpt lat="46.87515" lon="8.48952">
        <ele>1726</ele>
        <time>2021-08-11T12:13:30.727Z</time>
      </trkpt>
      <trkpt lat="46.87515" lon="8.48951">
        <ele>1725</ele>
        <time>2021-08-11T12:13:31.726Z</time>
      </trkpt>
      <trkpt lat="46.87515" lon="8.48949">
        <ele>1725</ele>
        <time>2021-08-11T12:13:32.728Z</time>
      </trkpt>
      <trkpt lat="46.87515" lon="8.48949">
        <ele>1725</ele>
        <time>2021-08-11T12:13:33.728Z</time>
      </trkpt>
      <trkpt lat="46.87513" lon="8.48946">
        <ele>1728</ele>
        <time>2021-08-11T12:13:34.728Z</time>
      </trkpt>
      <trkpt lat="46.87513" lon="8.48945">
        <ele>1729</ele>
        <time>2021-08-11T12:13:35.727Z</time>
      </trkpt>
      <trkpt lat="46.87514" lon="8.48945">
        <ele>1730</ele>
        <time>2021-08-11T12:13:36.727Z</time>
      </trkpt>
      <trkpt lat="46.87514" lon="8.48944">
        <ele>1731</ele>
        <time>2021-08-11T12:13:37.727Z</time>
      </trkpt>
      <trkpt lat="46.87513" lon="8.48944">
        <ele>1732</ele>
        <time>2021-08-11T12:13:38.728Z</time>
      </trkpt>
      <trkpt lat="46.87513" lon="8.48943">
        <ele>1733</ele>
        <time>2021-08-11T12:13:39.728Z</time>
      </trkpt>
      <trkpt lat="46.87513" lon="8.48942">
        <ele>1733</ele>
        <time>2021-08-11T12:13:40.728Z</time>
      </trkpt>
      <trkpt lat="46.87513" lon="8.48941">
        <ele>1734</ele>
        <time>2021-08-11T12:13:41.727Z</time>
      </trkpt>
      <trkpt lat="46.87512" lon="8.4894">
        <ele>1735</ele>
        <time>2021-08-11T12:13:42.728Z</time>
      </trkpt>
      <trkpt lat="46.87512" lon="8.48939">
        <ele>1735</ele>
        <time>2021-08-11T12:13:43.728Z</time>
      </trkpt>
      <trkpt lat="46.87512" lon="8.48938">
        <ele>1736</ele>
        <time>2021-08-11T12:13:44.728Z</time>
      </trkpt>
      <trkpt lat="46.87512" lon="8.48938">
        <ele>1736</ele>
        <time>2021-08-11T12:13:45.728Z</time>
      </trkpt>
      <trkpt lat="46.87512" lon="8.48937">
        <ele>1736</ele>
        <time>2021-08-11T12:13:46.727Z</time>
      </trkpt>
      <trkpt lat="46.87513" lon="8.48937">
        <ele>1736</ele>
        <time>2021-08-11T12:13:47.728Z</time>
      </trkpt>
      <trkpt lat="46.87513" lon="8.48936">
        <ele>1736</ele>
        <time>2021-08-11T12:13:48.728Z</time>
      </trkpt>
      <trkpt lat="46.87513" lon="8.48936">
        <ele>1735</ele>
        <time>2021-08-11T12:13:49.728Z</time>
      </trkpt>
      <trkpt lat="46.87512" lon="8.48935">
        <ele>1735</ele>
        <time>2021-08-11T12:13:50.728Z</time>
      </trkpt>
      <trkpt lat="46.87512" lon="8.48934">
        <ele>1735</ele>
        <time>2021-08-11T12:13:51.728Z</time>
      </trkpt>
      <trkpt lat="46.87511" lon="8.48933">
        <ele>1735</ele>
        <time>2021-08-11T12:13:52.728Z</time>
      </trkpt>
      <trkpt lat="46.87511" lon="8.48932">
        <ele>1734</ele>
        <time>2021-08-11T12:13:53.728Z</time>
      </trkpt>
      <trkpt lat="46.87511" lon="8.48931">
        <ele>1734</ele>
        <time>2021-08-11T12:13:54.728Z</time>
      </trkpt>
      <trkpt lat="46.87511" lon="8.4893">
        <ele>1735</ele>
        <time>2021-08-11T12:13:55.727Z</time>
      </trkpt>
      <trkpt lat="46.8751" lon="8.48929">
        <ele>1735</ele>
        <time>2021-08-11T12:13:56.728Z</time>
      </trkpt>
      <trkpt lat="46.8751" lon="8.48929">
        <ele>1735</ele>
        <time>2021-08-11T12:13:57.728Z</time>
      </trkpt>
      <trkpt lat="46.87506" lon="8.48931">
        <ele>1732</ele>
        <time>2021-08-11T12:13:58.728Z</time>
      </trkpt>
      <trkpt lat="46.87506" lon="8.4893">
        <ele>1732</ele>
        <time>2021-08-11T12:13:59.727Z</time>
      </trkpt>
      <trkpt lat="46.87507" lon="8.4893">
        <ele>1731</ele>
        <time>2021-08-11T12:14:00.727Z</time>
      </trkpt>
      <trkpt lat="46.87507" lon="8.48929">
        <ele>1730</ele>
        <time>2021-08-11T12:14:01.729Z</time>
      </trkpt>
      <trkpt lat="46.87507" lon="8.48928">
        <ele>1731</ele>
        <time>2021-08-11T12:14:02.729Z</time>
      </trkpt>
      <trkpt lat="46.87507" lon="8.48928">
        <ele>1731</ele>
        <time>2021-08-11T12:14:03.728Z</time>
      </trkpt>
      <trkpt lat="46.87507" lon="8.48927">
        <ele>1731</ele>
        <time>2021-08-11T12:14:04.729Z</time>
      </trkpt>
      <trkpt lat="46.87507" lon="8.48927">
        <ele>1731</ele>
        <time>2021-08-11T12:14:05.728Z</time>
      </trkpt>
      <trkpt lat="46.87506" lon="8.48926">
        <ele>1731</ele>
        <time>2021-08-11T12:14:06.729Z</time>
      </trkpt>
      <trkpt lat="46.87506" lon="8.48926">
        <ele>1731</ele>
        <time>2021-08-11T12:14:07.728Z</time>
      </trkpt>
      <trkpt lat="46.87506" lon="8.48925">
        <ele>1731</ele>
        <time>2021-08-11T12:14:08.728Z</time>
      </trkpt>
      <trkpt lat="46.87506" lon="8.48924">
        <ele>1731</ele>
        <time>2021-08-11T12:14:09.728Z</time>
      </trkpt>
      <trkpt lat="46.87506" lon="8.48924">
        <ele>1731</ele>
        <time>2021-08-11T12:14:10.729Z</time>
      </trkpt>
      <trkpt lat="46.87506" lon="8.48923">
        <ele>1731</ele>
        <time>2021-08-11T12:14:11.729Z</time>
      </trkpt>
      <trkpt lat="46.87505" lon="8.48922">
        <ele>1731</ele>
        <time>2021-08-11T12:14:12.729Z</time>
      </trkpt>
      <trkpt lat="46.87505" lon="8.48921">
        <ele>1730</ele>
        <time>2021-08-11T12:14:13.729Z</time>
      </trkpt>
      <trkpt lat="46.87505" lon="8.4892">
        <ele>1730</ele>
        <time>2021-08-11T12:14:14.728Z</time>
      </trkpt>
      <trkpt lat="46.87506" lon="8.4892">
        <ele>1730</ele>
        <time>2021-08-11T12:14:15.729Z</time>
      </trkpt>
      <trkpt lat="46.87506" lon="8.48919">
        <ele>1730</ele>
        <time>2021-08-11T12:14:16.729Z</time>
      </trkpt>
      <trkpt lat="46.87507" lon="8.48919">
        <ele>1731</ele>
        <time>2021-08-11T12:14:17.729Z</time>
      </trkpt>
      <trkpt lat="46.87507" lon="8.48918">
        <ele>1731</ele>
        <time>2021-08-11T12:14:18.728Z</time>
      </trkpt>
      <trkpt lat="46.87507" lon="8.48917">
        <ele>1731</ele>
        <time>2021-08-11T12:14:19.729Z</time>
      </trkpt>
      <trkpt lat="46.87507" lon="8.48917">
        <ele>1731</ele>
        <time>2021-08-11T12:14:20.729Z</time>
      </trkpt>
      <trkpt lat="46.87508" lon="8.48917">
        <ele>1732</ele>
        <time>2021-08-11T12:14:21.728Z</time>
      </trkpt>
      <trkpt lat="46.87507" lon="8.48916">
        <ele>1732</ele>
        <time>2021-08-11T12:14:22.728Z</time>
      </trkpt>
      <trkpt lat="46.87507" lon="8.48915">
        <ele>1732</ele>
        <time>2021-08-11T12:14:23.728Z</time>
      </trkpt>
      <trkpt lat="46.87507" lon="8.48914">
        <ele>1733</ele>
        <time>2021-08-11T12:14:24.729Z</time>
      </trkpt>
      <trkpt lat="46.87507" lon="8.48913">
        <ele>1733</ele>
        <time>2021-08-11T12:14:25.729Z</time>
      </trkpt>
      <trkpt lat="46.87508" lon="8.48913">
        <ele>1733</ele>
        <time>2021-08-11T12:14:26.728Z</time>
      </trkpt>
      <trkpt lat="46.87508" lon="8.48913">
        <ele>1733</ele>
        <time>2021-08-11T12:14:27.728Z</time>
      </trkpt>
      <trkpt lat="46.87508" lon="8.48912">
        <ele>1734</ele>
        <time>2021-08-11T12:14:28.728Z</time>
      </trkpt>
      <trkpt lat="46.87508" lon="8.48912">
        <ele>1734</ele>
        <time>2021-08-11T12:14:29.728Z</time>
      </trkpt>
      <trkpt lat="46.87507" lon="8.48911">
        <ele>1735</ele>
        <time>2021-08-11T12:14:30.729Z</time>
      </trkpt>
      <trkpt lat="46.87507" lon="8.4891">
        <ele>1735</ele>
        <time>2021-08-11T12:14:31.728Z</time>
      </trkpt>
      <trkpt lat="46.87508" lon="8.4891">
        <ele>1735</ele>
        <time>2021-08-11T12:14:32.729Z</time>
      </trkpt>
      <trkpt lat="46.87508" lon="8.48909">
        <ele>1736</ele>
        <time>2021-08-11T12:14:33.728Z</time>
      </trkpt>
      <trkpt lat="46.87508" lon="8.48908">
        <ele>1736</ele>
        <time>2021-08-11T12:14:34.729Z</time>
      </trkpt>
      <trkpt lat="46.87507" lon="8.48907">
        <ele>1736</ele>
        <time>2021-08-11T12:14:35.729Z</time>
      </trkpt>
      <trkpt lat="46.87507" lon="8.48906">
        <ele>1736</ele>
        <time>2021-08-11T12:14:36.729Z</time>
      </trkpt>
      <trkpt lat="46.87507" lon="8.48904">
        <ele>1736</ele>
        <time>2021-08-11T12:14:37.728Z</time>
      </trkpt>
      <trkpt lat="46.87507" lon="8.48903">
        <ele>1736</ele>
        <time>2021-08-11T12:14:38.728Z</time>
      </trkpt>
      <trkpt lat="46.87506" lon="8.48901">
        <ele>1736</ele>
        <time>2021-08-11T12:14:39.729Z</time>
      </trkpt>
      <trkpt lat="46.87506" lon="8.489">
        <ele>1737</ele>
        <time>2021-08-11T12:14:43.876Z</time>
      </trkpt>
      <trkpt lat="46.87506" lon="8.48899">
        <ele>1737</ele>
        <time>2021-08-11T12:14:56.605Z</time>
      </trkpt>
      <trkpt lat="46.87506" lon="8.48899">
        <ele>1737</ele>
        <time>2021-08-11T12:14:57.604Z</time>
      </trkpt>
      <trkpt lat="46.87505" lon="8.48897">
        <ele>1738</ele>
        <time>2021-08-11T12:14:58.604Z</time>
      </trkpt>
      <trkpt lat="46.87505" lon="8.48896">
        <ele>1738</ele>
        <time>2021-08-11T12:14:59.605Z</time>
      </trkpt>
      <trkpt lat="46.87505" lon="8.48894">
        <ele>1738</ele>
        <time>2021-08-11T12:15:00.604Z</time>
      </trkpt>
      <trkpt lat="46.87506" lon="8.48894">
        <ele>1739</ele>
        <time>2021-08-11T12:15:01.604Z</time>
      </trkpt>
      <trkpt lat="46.87506" lon="8.48893">
        <ele>1739</ele>
        <time>2021-08-11T12:15:03.707Z</time>
      </trkpt>
      <trkpt lat="46.87507" lon="8.48893">
        <ele>1739</ele>
        <time>2021-08-11T12:15:04.707Z</time>
      </trkpt>
      <trkpt lat="46.87507" lon="8.48893">
        <ele>1740</ele>
        <time>2021-08-11T12:15:31.475Z</time>
      </trkpt>
      <trkpt lat="46.87507" lon="8.48893">
        <ele>1740</ele>
        <time>2021-08-11T12:15:33.213Z</time>
      </trkpt>
      <trkpt lat="46.87507" lon="8.48892">
        <ele>1740</ele>
        <time>2021-08-11T12:15:34.212Z</time>
      </trkpt>
      <trkpt lat="46.87506" lon="8.48891">
        <ele>1740</ele>
        <time>2021-08-11T12:15:35.213Z</time>
      </trkpt>
      <trkpt lat="46.87507" lon="8.48891">
        <ele>1739</ele>
        <time>2021-08-11T12:15:43.231Z</time>
      </trkpt>
      <trkpt lat="46.87507" lon="8.4889">
        <ele>1739</ele>
        <time>2021-08-11T12:15:44.232Z</time>
      </trkpt>
      <trkpt lat="46.87507" lon="8.4889">
        <ele>1739</ele>
        <time>2021-08-11T12:15:45.231Z</time>
      </trkpt>
      <trkpt lat="46.87507" lon="8.48889">
        <ele>1739</ele>
        <time>2021-08-11T12:15:46.232Z</time>
      </trkpt>
      <trkpt lat="46.87508" lon="8.48888">
        <ele>1738</ele>
        <time>2021-08-11T12:15:47.231Z</time>
      </trkpt>
      <trkpt lat="46.87508" lon="8.48888">
        <ele>1738</ele>
        <time>2021-08-11T12:15:48.231Z</time>
      </trkpt>
      <trkpt lat="46.87508" lon="8.48887">
        <ele>1738</ele>
        <time>2021-08-11T12:15:49.231Z</time>
      </trkpt>
      <trkpt lat="46.87507" lon="8.48886">
        <ele>1738</ele>
        <time>2021-08-11T12:15:50.232Z</time>
      </trkpt>
      <trkpt lat="46.87508" lon="8.48885">
        <ele>1738</ele>
        <time>2021-08-11T12:15:51.231Z</time>
      </trkpt>
      <trkpt lat="46.87508" lon="8.48885">
        <ele>1738</ele>
        <time>2021-08-11T12:15:52.231Z</time>
      </trkpt>
      <trkpt lat="46.87508" lon="8.48882">
        <ele>1738</ele>
        <time>2021-08-11T12:15:53.231Z</time>
      </trkpt>
      <trkpt lat="46.87506" lon="8.4888">
        <ele>1738</ele>
        <time>2021-08-11T12:15:54.231Z</time>
      </trkpt>
      <trkpt lat="46.87506" lon="8.48879">
        <ele>1738</ele>
        <time>2021-08-11T12:15:55.231Z</time>
      </trkpt>
      <trkpt lat="46.87506" lon="8.48878">
        <ele>1738</ele>
        <time>2021-08-11T12:15:56.231Z</time>
      </trkpt>
      <trkpt lat="46.87506" lon="8.48877">
        <ele>1738</ele>
        <time>2021-08-11T12:15:57.232Z</time>
      </trkpt>
      <trkpt lat="46.87506" lon="8.48877">
        <ele>1738</ele>
        <time>2021-08-11T12:15:58.231Z</time>
      </trkpt>
      <trkpt lat="46.87506" lon="8.48876">
        <ele>1738</ele>
        <time>2021-08-11T12:15:59.231Z</time>
      </trkpt>
      <trkpt lat="46.87507" lon="8.48875">
        <ele>1738</ele>
        <time>2021-08-11T12:16:00.231Z</time>
      </trkpt>
      <trkpt lat="46.87507" lon="8.48874">
        <ele>1738</ele>
        <time>2021-08-11T12:16:01.231Z</time>
      </trkpt>
      <trkpt lat="46.87507" lon="8.48873">
        <ele>1738</ele>
        <time>2021-08-11T12:16:02.232Z</time>
      </trkpt>
      <trkpt lat="46.87507" lon="8.48873">
        <ele>1738</ele>
        <time>2021-08-11T12:16:03.231Z</time>
      </trkpt>
      <trkpt lat="46.87508" lon="8.48872">
        <ele>1739</ele>
        <time>2021-08-11T12:16:04.231Z</time>
      </trkpt>
      <trkpt lat="46.87508" lon="8.48871">
        <ele>1739</ele>
        <time>2021-08-11T12:16:05.231Z</time>
      </trkpt>
      <trkpt lat="46.87508" lon="8.48871">
        <ele>1739</ele>
        <time>2021-08-11T12:16:06.231Z</time>
      </trkpt>
      <trkpt lat="46.87508" lon="8.4887">
        <ele>1740</ele>
        <time>2021-08-11T12:16:07.231Z</time>
      </trkpt>
      <trkpt lat="46.87508" lon="8.4887">
        <ele>1740</ele>
        <time>2021-08-11T12:16:08.231Z</time>
      </trkpt>
      <trkpt lat="46.87507" lon="8.48869">
        <ele>1741</ele>
        <time>2021-08-11T12:16:09.231Z</time>
      </trkpt>
      <trkpt lat="46.87507" lon="8.48868">
        <ele>1742</ele>
        <time>2021-08-11T12:16:10.231Z</time>
      </trkpt>
      <trkpt lat="46.87507" lon="8.48868">
        <ele>1742</ele>
        <time>2021-08-11T12:16:11.231Z</time>
      </trkpt>
      <trkpt lat="46.87508" lon="8.48867">
        <ele>1742</ele>
        <time>2021-08-11T12:16:12.231Z</time>
      </trkpt>
      <trkpt lat="46.87508" lon="8.48866">
        <ele>1743</ele>
        <time>2021-08-11T12:16:13.231Z</time>
      </trkpt>
      <trkpt lat="46.87508" lon="8.48865">
        <ele>1743</ele>
        <time>2021-08-11T12:16:14.231Z</time>
      </trkpt>
      <trkpt lat="46.87507" lon="8.48863">
        <ele>1743</ele>
        <time>2021-08-11T12:16:15.231Z</time>
      </trkpt>
      <trkpt lat="46.87507" lon="8.48862">
        <ele>1743</ele>
        <time>2021-08-11T12:16:16.231Z</time>
      </trkpt>
      <trkpt lat="46.87507" lon="8.48861">
        <ele>1744</ele>
        <time>2021-08-11T12:16:22.264Z</time>
      </trkpt>
      <trkpt lat="46.87507" lon="8.4886">
        <ele>1744</ele>
        <time>2021-08-11T12:16:23.264Z</time>
      </trkpt>
      <trkpt lat="46.87507" lon="8.48859">
        <ele>1744</ele>
        <time>2021-08-11T12:16:24.264Z</time>
      </trkpt>
      <trkpt lat="46.87507" lon="8.48858">
        <ele>1745</ele>
        <time>2021-08-11T12:16:25.263Z</time>
      </trkpt>
      <trkpt lat="46.87507" lon="8.48857">
        <ele>1745</ele>
        <time>2021-08-11T12:16:30.376Z</time>
      </trkpt>
      <trkpt lat="46.87507" lon="8.48856">
        <ele>1745</ele>
        <time>2021-08-11T12:16:31.376Z</time>
      </trkpt>
      <trkpt lat="46.87506" lon="8.48856">
        <ele>1745</ele>
        <time>2021-08-11T12:16:32.375Z</time>
      </trkpt>
      <trkpt lat="46.87506" lon="8.48855">
        <ele>1745</ele>
        <time>2021-08-11T12:16:33.376Z</time>
      </trkpt>
      <trkpt lat="46.87506" lon="8.48854">
        <ele>1745</ele>
        <time>2021-08-11T12:16:34.375Z</time>
      </trkpt>
      <trkpt lat="46.87506" lon="8.48853">
        <ele>1746</ele>
        <time>2021-08-11T12:16:35.376Z</time>
      </trkpt>
      <trkpt lat="46.87506" lon="8.48852">
        <ele>1746</ele>
        <time>2021-08-11T12:16:36.375Z</time>
      </trkpt>
      <trkpt lat="46.87506" lon="8.48851">
        <ele>1746</ele>
        <time>2021-08-11T12:16:37.375Z</time>
      </trkpt>
      <trkpt lat="46.87505" lon="8.4885">
        <ele>1746</ele>
        <time>2021-08-11T12:16:38.375Z</time>
      </trkpt>
      <trkpt lat="46.87505" lon="8.48849">
        <ele>1746</ele>
        <time>2021-08-11T12:16:39.376Z</time>
      </trkpt>
      <trkpt lat="46.87505" lon="8.48848">
        <ele>1746</ele>
        <time>2021-08-11T12:16:40.376Z</time>
      </trkpt>
      <trkpt lat="46.87505" lon="8.48848">
        <ele>1747</ele>
        <time>2021-08-11T12:16:41.375Z</time>
      </trkpt>
      <trkpt lat="46.87505" lon="8.48847">
        <ele>1747</ele>
        <time>2021-08-11T12:16:42.375Z</time>
      </trkpt>
      <trkpt lat="46.87505" lon="8.48846">
        <ele>1747</ele>
        <time>2021-08-11T12:16:43.375Z</time>
      </trkpt>
      <trkpt lat="46.87505" lon="8.48845">
        <ele>1748</ele>
        <time>2021-08-11T12:16:44.376Z</time>
      </trkpt>
      <trkpt lat="46.87504" lon="8.48843">
        <ele>1748</ele>
        <time>2021-08-11T12:16:45.376Z</time>
      </trkpt>
      <trkpt lat="46.87504" lon="8.48843">
        <ele>1748</ele>
        <time>2021-08-11T12:16:46.375Z</time>
      </trkpt>
      <trkpt lat="46.87505" lon="8.48842">
        <ele>1749</ele>
        <time>2021-08-11T12:16:47.375Z</time>
      </trkpt>
      <trkpt lat="46.87505" lon="8.48841">
        <ele>1749</ele>
        <time>2021-08-11T12:16:48.376Z</time>
      </trkpt>
      <trkpt lat="46.87505" lon="8.48841">
        <ele>1750</ele>
        <time>2021-08-11T12:16:49.376Z</time>
      </trkpt>
      <trkpt lat="46.87505" lon="8.48839">
        <ele>1750</ele>
        <time>2021-08-11T12:16:50.376Z</time>
      </trkpt>
      <trkpt lat="46.87504" lon="8.48838">
        <ele>1750</ele>
        <time>2021-08-11T12:16:51.376Z</time>
      </trkpt>
      <trkpt lat="46.87503" lon="8.48837">
        <ele>1751</ele>
        <time>2021-08-11T12:16:52.375Z</time>
      </trkpt>
      <trkpt lat="46.87503" lon="8.48836">
        <ele>1751</ele>
        <time>2021-08-11T12:16:53.376Z</time>
      </trkpt>
      <trkpt lat="46.87503" lon="8.48835">
        <ele>1751</ele>
        <time>2021-08-11T12:16:54.376Z</time>
      </trkpt>
      <trkpt lat="46.87503" lon="8.48835">
        <ele>1751</ele>
        <time>2021-08-11T12:16:55.376Z</time>
      </trkpt>
      <trkpt lat="46.87503" lon="8.48834">
        <ele>1751</ele>
        <time>2021-08-11T12:16:56.375Z</time>
      </trkpt>
      <trkpt lat="46.87503" lon="8.48833">
        <ele>1751</ele>
        <time>2021-08-11T12:16:57.376Z</time>
      </trkpt>
      <trkpt lat="46.87503" lon="8.48832">
        <ele>1751</ele>
        <time>2021-08-11T12:16:58.376Z</time>
      </trkpt>
      <trkpt lat="46.87503" lon="8.48831">
        <ele>1751</ele>
        <time>2021-08-11T12:16:59.376Z</time>
      </trkpt>
      <trkpt lat="46.87504" lon="8.4883">
        <ele>1751</ele>
        <time>2021-08-11T12:17:00.376Z</time>
      </trkpt>
      <trkpt lat="46.87503" lon="8.48829">
        <ele>1752</ele>
        <time>2021-08-11T12:17:01.375Z</time>
      </trkpt>
      <trkpt lat="46.87503" lon="8.48829">
        <ele>1752</ele>
        <time>2021-08-11T12:17:02.375Z</time>
      </trkpt>
      <trkpt lat="46.87503" lon="8.48828">
        <ele>1752</ele>
        <time>2021-08-11T12:17:03.376Z</time>
      </trkpt>
      <trkpt lat="46.87503" lon="8.48827">
        <ele>1752</ele>
        <time>2021-08-11T12:17:04.376Z</time>
      </trkpt>
      <trkpt lat="46.87503" lon="8.48826">
        <ele>1752</ele>
        <time>2021-08-11T12:17:05.376Z</time>
      </trkpt>
      <trkpt lat="46.87503" lon="8.48826">
        <ele>1752</ele>
        <time>2021-08-11T12:17:06.375Z</time>
      </trkpt>
      <trkpt lat="46.87503" lon="8.48825">
        <ele>1752</ele>
        <time>2021-08-11T12:17:07.375Z</time>
      </trkpt>
      <trkpt lat="46.87503" lon="8.48825">
        <ele>1752</ele>
        <time>2021-08-11T12:17:08.376Z</time>
      </trkpt>
      <trkpt lat="46.87504" lon="8.48824">
        <ele>1752</ele>
        <time>2021-08-11T12:17:09.376Z</time>
      </trkpt>
      <trkpt lat="46.87504" lon="8.48824">
        <ele>1752</ele>
        <time>2021-08-11T12:17:10.375Z</time>
      </trkpt>
      <trkpt lat="46.87504" lon="8.48823">
        <ele>1752</ele>
        <time>2021-08-11T12:17:11.375Z</time>
      </trkpt>
      <trkpt lat="46.87504" lon="8.48822">
        <ele>1752</ele>
        <time>2021-08-11T12:17:12.376Z</time>
      </trkpt>
      <trkpt lat="46.87504" lon="8.48822">
        <ele>1752</ele>
        <time>2021-08-11T12:17:13.376Z</time>
      </trkpt>
      <trkpt lat="46.87504" lon="8.48822">
        <ele>1752</ele>
        <time>2021-08-11T12:17:14.376Z</time>
      </trkpt>
      <trkpt lat="46.87505" lon="8.48822">
        <ele>1752</ele>
        <time>2021-08-11T12:17:15.375Z</time>
      </trkpt>
      <trkpt lat="46.87505" lon="8.48823">
        <ele>1752</ele>
        <time>2021-08-11T12:17:16.376Z</time>
      </trkpt>
      <trkpt lat="46.87506" lon="8.48823">
        <ele>1753</ele>
        <time>2021-08-11T12:17:17.376Z</time>
      </trkpt>
      <trkpt lat="46.87506" lon="8.48824">
        <ele>1753</ele>
        <time>2021-08-11T12:17:18.376Z</time>
      </trkpt>
      <trkpt lat="46.87507" lon="8.48824">
        <ele>1753</ele>
        <time>2021-08-11T12:17:38.374Z</time>
      </trkpt>
      <trkpt lat="46.87508" lon="8.48825">
        <ele>1754</ele>
        <time>2021-08-11T12:17:39.375Z</time>
      </trkpt>
      <trkpt lat="46.87508" lon="8.48825">
        <ele>1754</ele>
        <time>2021-08-11T12:17:40.375Z</time>
      </trkpt>
      <trkpt lat="46.87508" lon="8.48826">
        <ele>1754</ele>
        <time>2021-08-11T12:17:41.374Z</time>
      </trkpt>
      <trkpt lat="46.87509" lon="8.48826">
        <ele>1754</ele>
        <time>2021-08-11T12:17:42.375Z</time>
      </trkpt>
      <trkpt lat="46.87509" lon="8.48828">
        <ele>1754</ele>
        <time>2021-08-11T12:17:43.374Z</time>
      </trkpt>
      <trkpt lat="46.87509" lon="8.48829">
        <ele>1754</ele>
        <time>2021-08-11T12:17:44.375Z</time>
      </trkpt>
      <trkpt lat="46.8751" lon="8.4883">
        <ele>1754</ele>
        <time>2021-08-11T12:17:45.374Z</time>
      </trkpt>
      <trkpt lat="46.87511" lon="8.48831">
        <ele>1754</ele>
        <time>2021-08-11T12:17:46.375Z</time>
      </trkpt>
      <trkpt lat="46.87511" lon="8.48833">
        <ele>1754</ele>
        <time>2021-08-11T12:17:47.374Z</time>
      </trkpt>
      <trkpt lat="46.87512" lon="8.48834">
        <ele>1754</ele>
        <time>2021-08-11T12:17:48.374Z</time>
      </trkpt>
      <trkpt lat="46.87512" lon="8.48834">
        <ele>1754</ele>
        <time>2021-08-11T12:17:49.374Z</time>
      </trkpt>
      <trkpt lat="46.87512" lon="8.48834">
        <ele>1754</ele>
        <time>2021-08-11T12:17:50.374Z</time>
      </trkpt>
      <trkpt lat="46.87512" lon="8.48834">
        <ele>1754</ele>
        <time>2021-08-11T12:17:51.374Z</time>
      </trkpt>
      <trkpt lat="46.87512" lon="8.48835">
        <ele>1754</ele>
        <time>2021-08-11T12:17:52.374Z</time>
      </trkpt>
      <trkpt lat="46.87513" lon="8.48836">
        <ele>1754</ele>
        <time>2021-08-11T12:17:53.375Z</time>
      </trkpt>
      <trkpt lat="46.87513" lon="8.48838">
        <ele>1754</ele>
        <time>2021-08-11T12:17:54.375Z</time>
      </trkpt>
      <trkpt lat="46.87514" lon="8.48839">
        <ele>1754</ele>
        <time>2021-08-11T12:17:55.375Z</time>
      </trkpt>
      <trkpt lat="46.87515" lon="8.4884">
        <ele>1754</ele>
        <time>2021-08-11T12:17:56.374Z</time>
      </trkpt>
      <trkpt lat="46.87516" lon="8.48841">
        <ele>1754</ele>
        <time>2021-08-11T12:17:57.374Z</time>
      </trkpt>
      <trkpt lat="46.87516" lon="8.48842">
        <ele>1753</ele>
        <time>2021-08-11T12:17:58.375Z</time>
      </trkpt>
      <trkpt lat="46.87516" lon="8.48842">
        <ele>1753</ele>
        <time>2021-08-11T12:17:59.374Z</time>
      </trkpt>
      <trkpt lat="46.87517" lon="8.48843">
        <ele>1753</ele>
        <time>2021-08-11T12:18:00.375Z</time>
      </trkpt>
      <trkpt lat="46.87516" lon="8.48843">
        <ele>1753</ele>
        <time>2021-08-11T12:18:01.374Z</time>
      </trkpt>
      <trkpt lat="46.87516" lon="8.48844">
        <ele>1753</ele>
        <time>2021-08-11T12:18:02.375Z</time>
      </trkpt>
      <trkpt lat="46.87517" lon="8.48844">
        <ele>1753</ele>
        <time>2021-08-11T12:18:03.375Z</time>
      </trkpt>
      <trkpt lat="46.87518" lon="8.48845">
        <ele>1753</ele>
        <time>2021-08-11T12:18:04.375Z</time>
      </trkpt>
      <trkpt lat="46.87518" lon="8.48845">
        <ele>1753</ele>
        <time>2021-08-11T12:18:05.375Z</time>
      </trkpt>
      <trkpt lat="46.87518" lon="8.48846">
        <ele>1753</ele>
        <time>2021-08-11T12:18:06.374Z</time>
      </trkpt>
      <trkpt lat="46.87519" lon="8.48847">
        <ele>1753</ele>
        <time>2021-08-11T12:18:07.375Z</time>
      </trkpt>
      <trkpt lat="46.87519" lon="8.48848">
        <ele>1753</ele>
        <time>2021-08-11T12:18:08.375Z</time>
      </trkpt>
      <trkpt lat="46.87519" lon="8.48849">
        <ele>1753</ele>
        <time>2021-08-11T12:18:09.375Z</time>
      </trkpt>
      <trkpt lat="46.87519" lon="8.4885">
        <ele>1753</ele>
        <time>2021-08-11T12:18:10.374Z</time>
      </trkpt>
      <trkpt lat="46.87519" lon="8.4885">
        <ele>1752</ele>
        <time>2021-08-11T12:18:11.374Z</time>
      </trkpt>
      <trkpt lat="46.87519" lon="8.4885">
        <ele>1752</ele>
        <time>2021-08-11T12:18:12.375Z</time>
      </trkpt>
      <trkpt lat="46.87519" lon="8.48851">
        <ele>1752</ele>
        <time>2021-08-11T12:18:13.375Z</time>
      </trkpt>
      <trkpt lat="46.87519" lon="8.4885">
        <ele>1751</ele>
        <time>2021-08-11T12:18:14.375Z</time>
      </trkpt>
      <trkpt lat="46.87519" lon="8.48851">
        <ele>1751</ele>
        <time>2021-08-11T12:18:15.374Z</time>
      </trkpt>
      <trkpt lat="46.87519" lon="8.48852">
        <ele>1750</ele>
        <time>2021-08-11T12:18:16.375Z</time>
      </trkpt>
      <trkpt lat="46.8752" lon="8.48853">
        <ele>1750</ele>
        <time>2021-08-11T12:18:17.375Z</time>
      </trkpt>
      <trkpt lat="46.8752" lon="8.48854">
        <ele>1750</ele>
        <time>2021-08-11T12:18:18.375Z</time>
      </trkpt>
      <trkpt lat="46.8752" lon="8.48855">
        <ele>1749</ele>
        <time>2021-08-11T12:18:19.374Z</time>
      </trkpt>
      <trkpt lat="46.8752" lon="8.48855">
        <ele>1749</ele>
        <time>2021-08-11T12:18:20.375Z</time>
      </trkpt>
      <trkpt lat="46.87521" lon="8.48856">
        <ele>1750</ele>
        <time>2021-08-11T12:18:21.375Z</time>
      </trkpt>
      <trkpt lat="46.87522" lon="8.48858">
        <ele>1750</ele>
        <time>2021-08-11T12:18:22.375Z</time>
      </trkpt>
      <trkpt lat="46.87522" lon="8.48859">
        <ele>1750</ele>
        <time>2021-08-11T12:18:23.375Z</time>
      </trkpt>
      <trkpt lat="46.87522" lon="8.48861">
        <ele>1750</ele>
        <time>2021-08-11T12:18:24.374Z</time>
      </trkpt>
      <trkpt lat="46.87522" lon="8.48862">
        <ele>1751</ele>
        <time>2021-08-11T12:18:25.375Z</time>
      </trkpt>
      <trkpt lat="46.87523" lon="8.48864">
        <ele>1751</ele>
        <time>2021-08-11T12:18:26.374Z</time>
      </trkpt>
      <trkpt lat="46.87524" lon="8.48865">
        <ele>1751</ele>
        <time>2021-08-11T12:18:27.375Z</time>
      </trkpt>
      <trkpt lat="46.87525" lon="8.48866">
        <ele>1752</ele>
        <time>2021-08-11T12:18:28.374Z</time>
      </trkpt>
      <trkpt lat="46.87525" lon="8.48868">
        <ele>1752</ele>
        <time>2021-08-11T12:18:29.374Z</time>
      </trkpt>
      <trkpt lat="46.87526" lon="8.4887">
        <ele>1752</ele>
        <time>2021-08-11T12:18:30.375Z</time>
      </trkpt>
      <trkpt lat="46.87526" lon="8.48871">
        <ele>1753</ele>
        <time>2021-08-11T12:18:31.374Z</time>
      </trkpt>
      <trkpt lat="46.87526" lon="8.48871">
        <ele>1753</ele>
        <time>2021-08-11T12:18:32.375Z</time>
      </trkpt>
      <trkpt lat="46.87527" lon="8.48872">
        <ele>1753</ele>
        <time>2021-08-11T12:18:33.375Z</time>
      </trkpt>
      <trkpt lat="46.87527" lon="8.48873">
        <ele>1753</ele>
        <time>2021-08-11T12:18:34.375Z</time>
      </trkpt>
      <trkpt lat="46.87527" lon="8.48875">
        <ele>1753</ele>
        <time>2021-08-11T12:18:35.374Z</time>
      </trkpt>
      <trkpt lat="46.87528" lon="8.48877">
        <ele>1753</ele>
        <time>2021-08-11T12:18:36.374Z</time>
      </trkpt>
      <trkpt lat="46.87528" lon="8.48879">
        <ele>1753</ele>
        <time>2021-08-11T12:18:37.375Z</time>
      </trkpt>
      <trkpt lat="46.87528" lon="8.48881">
        <ele>1753</ele>
        <time>2021-08-11T12:18:38.374Z</time>
      </trkpt>
      <trkpt lat="46.87527" lon="8.48882">
        <ele>1753</ele>
        <time>2021-08-11T12:18:39.375Z</time>
      </trkpt>
      <trkpt lat="46.87529" lon="8.48884">
        <ele>1753</ele>
        <time>2021-08-11T12:18:40.374Z</time>
      </trkpt>
      <trkpt lat="46.8753" lon="8.48885">
        <ele>1753</ele>
        <time>2021-08-11T12:18:41.375Z</time>
      </trkpt>
      <trkpt lat="46.87531" lon="8.48886">
        <ele>1753</ele>
        <time>2021-08-11T12:18:42.375Z</time>
      </trkpt>
      <trkpt lat="46.87531" lon="8.48888">
        <ele>1754</ele>
        <time>2021-08-11T12:18:43.375Z</time>
      </trkpt>
      <trkpt lat="46.87532" lon="8.4889">
        <ele>1754</ele>
        <time>2021-08-11T12:18:44.375Z</time>
      </trkpt>
      <trkpt lat="46.87534" lon="8.48893">
        <ele>1754</ele>
        <time>2021-08-11T12:18:45.375Z</time>
      </trkpt>
      <trkpt lat="46.87536" lon="8.48894">
        <ele>1755</ele>
        <time>2021-08-11T12:18:46.375Z</time>
      </trkpt>
      <trkpt lat="46.87536" lon="8.48895">
        <ele>1755</ele>
        <time>2021-08-11T12:18:47.374Z</time>
      </trkpt>
      <trkpt lat="46.87536" lon="8.48895">
        <ele>1755</ele>
        <time>2021-08-11T12:18:48.375Z</time>
      </trkpt>
      <trkpt lat="46.87537" lon="8.48896">
        <ele>1756</ele>
        <time>2021-08-11T12:18:49.375Z</time>
      </trkpt>
      <trkpt lat="46.87537" lon="8.48897">
        <ele>1756</ele>
        <time>2021-08-11T12:18:50.375Z</time>
      </trkpt>
      <trkpt lat="46.87537" lon="8.48897">
        <ele>1756</ele>
        <time>2021-08-11T12:18:51.374Z</time>
      </trkpt>
      <trkpt lat="46.87537" lon="8.48898">
        <ele>1757</ele>
        <time>2021-08-11T12:18:52.375Z</time>
      </trkpt>
      <trkpt lat="46.87537" lon="8.48899">
        <ele>1757</ele>
        <time>2021-08-11T12:18:53.375Z</time>
      </trkpt>
      <trkpt lat="46.87538" lon="8.489">
        <ele>1758</ele>
        <time>2021-08-11T12:18:54.374Z</time>
      </trkpt>
      <trkpt lat="46.87538" lon="8.489">
        <ele>1758</ele>
        <time>2021-08-11T12:18:55.375Z</time>
      </trkpt>
      <trkpt lat="46.87538" lon="8.48901">
        <ele>1758</ele>
        <time>2021-08-11T12:18:56.374Z</time>
      </trkpt>
      <trkpt lat="46.87539" lon="8.48902">
        <ele>1759</ele>
        <time>2021-08-11T12:18:57.375Z</time>
      </trkpt>
      <trkpt lat="46.87539" lon="8.48903">
        <ele>1759</ele>
        <time>2021-08-11T12:18:58.375Z</time>
      </trkpt>
      <trkpt lat="46.8754" lon="8.48904">
        <ele>1760</ele>
        <time>2021-08-11T12:18:59.375Z</time>
      </trkpt>
      <trkpt lat="46.87541" lon="8.48905">
        <ele>1760</ele>
        <time>2021-08-11T12:19:00.374Z</time>
      </trkpt>
      <trkpt lat="46.87542" lon="8.48906">
        <ele>1760</ele>
        <time>2021-08-11T12:19:01.375Z</time>
      </trkpt>
      <trkpt lat="46.87543" lon="8.48907">
        <ele>1761</ele>
        <time>2021-08-11T12:19:02.375Z</time>
      </trkpt>
      <trkpt lat="46.87543" lon="8.48908">
        <ele>1761</ele>
        <time>2021-08-11T12:19:03.375Z</time>
      </trkpt>
      <trkpt lat="46.87543" lon="8.48909">
        <ele>1761</ele>
        <time>2021-08-11T12:19:04.375Z</time>
      </trkpt>
      <trkpt lat="46.87543" lon="8.48909">
        <ele>1762</ele>
        <time>2021-08-11T12:19:05.374Z</time>
      </trkpt>
      <trkpt lat="46.87543" lon="8.4891">
        <ele>1762</ele>
        <time>2021-08-11T12:19:06.375Z</time>
      </trkpt>
      <trkpt lat="46.87544" lon="8.48911">
        <ele>1763</ele>
        <time>2021-08-11T12:19:07.375Z</time>
      </trkpt>
      <trkpt lat="46.87545" lon="8.48912">
        <ele>1763</ele>
        <time>2021-08-11T12:19:08.375Z</time>
      </trkpt>
      <trkpt lat="46.87545" lon="8.48913">
        <ele>1764</ele>
        <time>2021-08-11T12:19:09.374Z</time>
      </trkpt>
      <trkpt lat="46.87546" lon="8.48914">
        <ele>1765</ele>
        <time>2021-08-11T12:19:10.375Z</time>
      </trkpt>
      <trkpt lat="46.87547" lon="8.48915">
        <ele>1765</ele>
        <time>2021-08-11T12:19:11.375Z</time>
      </trkpt>
      <trkpt lat="46.87547" lon="8.48915">
        <ele>1765</ele>
        <time>2021-08-11T12:19:12.375Z</time>
      </trkpt>
      <trkpt lat="46.87548" lon="8.48916">
        <ele>1765</ele>
        <time>2021-08-11T12:19:13.374Z</time>
      </trkpt>
      <trkpt lat="46.87548" lon="8.48917">
        <ele>1765</ele>
        <time>2021-08-11T12:19:14.375Z</time>
      </trkpt>
      <trkpt lat="46.87549" lon="8.48918">
        <ele>1765</ele>
        <time>2021-08-11T12:19:15.375Z</time>
      </trkpt>
      <trkpt lat="46.8755" lon="8.48918">
        <ele>1765</ele>
        <time>2021-08-11T12:19:16.375Z</time>
      </trkpt>
      <trkpt lat="46.8755" lon="8.48919">
        <ele>1765</ele>
        <time>2021-08-11T12:19:17.374Z</time>
      </trkpt>
      <trkpt lat="46.8755" lon="8.48919">
        <ele>1765</ele>
        <time>2021-08-11T12:19:18.374Z</time>
      </trkpt>
      <trkpt lat="46.87551" lon="8.4892">
        <ele>1765</ele>
        <time>2021-08-11T12:19:19.375Z</time>
      </trkpt>
      <trkpt lat="46.87551" lon="8.4892">
        <ele>1765</ele>
        <time>2021-08-11T12:19:20.374Z</time>
      </trkpt>
      <trkpt lat="46.87552" lon="8.4892">
        <ele>1765</ele>
        <time>2021-08-11T12:19:21.375Z</time>
      </trkpt>
      <trkpt lat="46.87553" lon="8.48921">
        <ele>1764</ele>
        <time>2021-08-11T12:19:22.375Z</time>
      </trkpt>
      <trkpt lat="46.87553" lon="8.48922">
        <ele>1764</ele>
        <time>2021-08-11T12:19:23.375Z</time>
      </trkpt>
      <trkpt lat="46.87554" lon="8.48924">
        <ele>1764</ele>
        <time>2021-08-11T12:19:24.374Z</time>
      </trkpt>
      <trkpt lat="46.87555" lon="8.48925">
        <ele>1764</ele>
        <time>2021-08-11T12:19:25.375Z</time>
      </trkpt>
      <trkpt lat="46.87556" lon="8.48925">
        <ele>1763</ele>
        <time>2021-08-11T12:19:26.375Z</time>
      </trkpt>
      <trkpt lat="46.87557" lon="8.48926">
        <ele>1763</ele>
        <time>2021-08-11T12:19:27.375Z</time>
      </trkpt>
      <trkpt lat="46.87558" lon="8.48927">
        <ele>1763</ele>
        <time>2021-08-11T12:19:28.374Z</time>
      </trkpt>
      <trkpt lat="46.87558" lon="8.48928">
        <ele>1763</ele>
        <time>2021-08-11T12:19:29.374Z</time>
      </trkpt>
      <trkpt lat="46.87559" lon="8.48929">
        <ele>1763</ele>
        <time>2021-08-11T12:19:30.374Z</time>
      </trkpt>
      <trkpt lat="46.8756" lon="8.4893">
        <ele>1762</ele>
        <time>2021-08-11T12:19:31.375Z</time>
      </trkpt>
      <trkpt lat="46.8756" lon="8.48931">
        <ele>1762</ele>
        <time>2021-08-11T12:19:32.374Z</time>
      </trkpt>
      <trkpt lat="46.87561" lon="8.48932">
        <ele>1762</ele>
        <time>2021-08-11T12:19:33.375Z</time>
      </trkpt>
      <trkpt lat="46.87561" lon="8.48932">
        <ele>1761</ele>
        <time>2021-08-11T12:19:34.375Z</time>
      </trkpt>
      <trkpt lat="46.87562" lon="8.48933">
        <ele>1761</ele>
        <time>2021-08-11T12:19:35.375Z</time>
      </trkpt>
      <trkpt lat="46.87562" lon="8.48934">
        <ele>1761</ele>
        <time>2021-08-11T12:19:36.374Z</time>
      </trkpt>
      <trkpt lat="46.87562" lon="8.48934">
        <ele>1761</ele>
        <time>2021-08-11T12:19:37.375Z</time>
      </trkpt>
      <trkpt lat="46.87562" lon="8.48934">
        <ele>1761</ele>
        <time>2021-08-11T12:19:38.375Z</time>
      </trkpt>
      <trkpt lat="46.87563" lon="8.48935">
        <ele>1761</ele>
        <time>2021-08-11T12:19:39.375Z</time>
      </trkpt>
      <trkpt lat="46.87564" lon="8.48936">
        <ele>1761</ele>
        <time>2021-08-11T12:19:40.375Z</time>
      </trkpt>
      <trkpt lat="46.87565" lon="8.48938">
        <ele>1761</ele>
        <time>2021-08-11T12:19:41.375Z</time>
      </trkpt>
      <trkpt lat="46.87567" lon="8.48939">
        <ele>1761</ele>
        <time>2021-08-11T12:19:42.375Z</time>
      </trkpt>
      <trkpt lat="46.87568" lon="8.48939">
        <ele>1762</ele>
        <time>2021-08-11T12:19:43.375Z</time>
      </trkpt>
      <trkpt lat="46.87569" lon="8.48939">
        <ele>1762</ele>
        <time>2021-08-11T12:19:44.374Z</time>
      </trkpt>
      <trkpt lat="46.8757" lon="8.48938">
        <ele>1763</ele>
        <time>2021-08-11T12:19:45.375Z</time>
      </trkpt>
      <trkpt lat="46.8757" lon="8.48938">
        <ele>1763</ele>
        <time>2021-08-11T12:19:46.375Z</time>
      </trkpt>
      <trkpt lat="46.87571" lon="8.48938">
        <ele>1763</ele>
        <time>2021-08-11T12:19:47.375Z</time>
      </trkpt>
      <trkpt lat="46.87572" lon="8.48937">
        <ele>1763</ele>
        <time>2021-08-11T12:19:48.374Z</time>
      </trkpt>
      <trkpt lat="46.87573" lon="8.48937">
        <ele>1763</ele>
        <time>2021-08-11T12:19:49.375Z</time>
      </trkpt>
      <trkpt lat="46.87573" lon="8.48937">
        <ele>1763</ele>
        <time>2021-08-11T12:19:50.374Z</time>
      </trkpt>
      <trkpt lat="46.87574" lon="8.48936">
        <ele>1763</ele>
        <time>2021-08-11T12:19:51.374Z</time>
      </trkpt>
      <trkpt lat="46.87574" lon="8.48935">
        <ele>1763</ele>
        <time>2021-08-11T12:19:52.375Z</time>
      </trkpt>
      <trkpt lat="46.87574" lon="8.48934">
        <ele>1763</ele>
        <time>2021-08-11T12:19:53.375Z</time>
      </trkpt>
      <trkpt lat="46.87574" lon="8.48933">
        <ele>1763</ele>
        <time>2021-08-11T12:19:54.375Z</time>
      </trkpt>
      <trkpt lat="46.87574" lon="8.48932">
        <ele>1763</ele>
        <time>2021-08-11T12:19:55.375Z</time>
      </trkpt>
      <trkpt lat="46.87574" lon="8.48931">
        <ele>1763</ele>
        <time>2021-08-11T12:19:56.375Z</time>
      </trkpt>
      <trkpt lat="46.87574" lon="8.48929">
        <ele>1763</ele>
        <time>2021-08-11T12:19:57.374Z</time>
      </trkpt>
      <trkpt lat="46.87574" lon="8.48928">
        <ele>1764</ele>
        <time>2021-08-11T12:19:58.374Z</time>
      </trkpt>
      <trkpt lat="46.87574" lon="8.48927">
        <ele>1764</ele>
        <time>2021-08-11T12:19:59.375Z</time>
      </trkpt>
      <trkpt lat="46.87574" lon="8.48925">
        <ele>1765</ele>
        <time>2021-08-11T12:20:00.374Z</time>
      </trkpt>
      <trkpt lat="46.87573" lon="8.48924">
        <ele>1765</ele>
        <time>2021-08-11T12:20:01.374Z</time>
      </trkpt>
      <trkpt lat="46.87572" lon="8.48921">
        <ele>1765</ele>
        <time>2021-08-11T12:20:02.374Z</time>
      </trkpt>
      <trkpt lat="46.87572" lon="8.4892">
        <ele>1766</ele>
        <time>2021-08-11T12:20:03.374Z</time>
      </trkpt>
      <trkpt lat="46.87572" lon="8.48918">
        <ele>1766</ele>
        <time>2021-08-11T12:20:04.375Z</time>
      </trkpt>
      <trkpt lat="46.87572" lon="8.48917">
        <ele>1766</ele>
        <time>2021-08-11T12:20:05.375Z</time>
      </trkpt>
      <trkpt lat="46.87571" lon="8.48915">
        <ele>1767</ele>
        <time>2021-08-11T12:20:06.375Z</time>
      </trkpt>
      <trkpt lat="46.8757" lon="8.48913">
        <ele>1767</ele>
        <time>2021-08-11T12:20:07.375Z</time>
      </trkpt>
      <trkpt lat="46.87569" lon="8.48911">
        <ele>1767</ele>
        <time>2021-08-11T12:20:08.375Z</time>
      </trkpt>
      <trkpt lat="46.87569" lon="8.4891">
        <ele>1767</ele>
        <time>2021-08-11T12:20:09.375Z</time>
      </trkpt>
      <trkpt lat="46.8757" lon="8.48909">
        <ele>1767</ele>
        <time>2021-08-11T12:20:10.374Z</time>
      </trkpt>
      <trkpt lat="46.87571" lon="8.48907">
        <ele>1768</ele>
        <time>2021-08-11T12:20:11.375Z</time>
      </trkpt>
      <trkpt lat="46.87572" lon="8.48906">
        <ele>1768</ele>
        <time>2021-08-11T12:20:12.374Z</time>
      </trkpt>
      <trkpt lat="46.87572" lon="8.48905">
        <ele>1769</ele>
        <time>2021-08-11T12:20:13.375Z</time>
      </trkpt>
      <trkpt lat="46.87571" lon="8.48904">
        <ele>1769</ele>
        <time>2021-08-11T12:20:14.374Z</time>
      </trkpt>
      <trkpt lat="46.87571" lon="8.48903">
        <ele>1770</ele>
        <time>2021-08-11T12:20:15.374Z</time>
      </trkpt>
      <trkpt lat="46.87571" lon="8.48901">
        <ele>1770</ele>
        <time>2021-08-11T12:20:16.375Z</time>
      </trkpt>
      <trkpt lat="46.8757" lon="8.489">
        <ele>1771</ele>
        <time>2021-08-11T12:20:17.375Z</time>
      </trkpt>
      <trkpt lat="46.8757" lon="8.48899">
        <ele>1771</ele>
        <time>2021-08-11T12:20:18.374Z</time>
      </trkpt>
      <trkpt lat="46.8757" lon="8.48898">
        <ele>1771</ele>
        <time>2021-08-11T12:20:19.374Z</time>
      </trkpt>
      <trkpt lat="46.87569" lon="8.48897">
        <ele>1771</ele>
        <time>2021-08-11T12:20:20.375Z</time>
      </trkpt>
      <trkpt lat="46.8757" lon="8.48896">
        <ele>1771</ele>
        <time>2021-08-11T12:20:21.375Z</time>
      </trkpt>
      <trkpt lat="46.87569" lon="8.48894">
        <ele>1771</ele>
        <time>2021-08-11T12:20:22.375Z</time>
      </trkpt>
      <trkpt lat="46.87569" lon="8.48893">
        <ele>1771</ele>
        <time>2021-08-11T12:20:23.375Z</time>
      </trkpt>
      <trkpt lat="46.87568" lon="8.48891">
        <ele>1772</ele>
        <time>2021-08-11T12:20:24.374Z</time>
      </trkpt>
      <trkpt lat="46.87568" lon="8.4889">
        <ele>1772</ele>
        <time>2021-08-11T12:20:25.375Z</time>
      </trkpt>
      <trkpt lat="46.87568" lon="8.48889">
        <ele>1773</ele>
        <time>2021-08-11T12:20:26.375Z</time>
      </trkpt>
      <trkpt lat="46.87568" lon="8.48887">
        <ele>1773</ele>
        <time>2021-08-11T12:20:27.374Z</time>
      </trkpt>
      <trkpt lat="46.87568" lon="8.48886">
        <ele>1774</ele>
        <time>2021-08-11T12:20:28.375Z</time>
      </trkpt>
      <trkpt lat="46.87568" lon="8.48885">
        <ele>1774</ele>
        <time>2021-08-11T12:20:29.374Z</time>
      </trkpt>
      <trkpt lat="46.87568" lon="8.48884">
        <ele>1774</ele>
        <time>2021-08-11T12:20:30.375Z</time>
      </trkpt>
      <trkpt lat="46.87568" lon="8.48884">
        <ele>1774</ele>
        <time>2021-08-11T12:20:31.375Z</time>
      </trkpt>
      <trkpt lat="46.87568" lon="8.48882">
        <ele>1774</ele>
        <time>2021-08-11T12:20:32.375Z</time>
      </trkpt>
      <trkpt lat="46.87568" lon="8.48881">
        <ele>1774</ele>
        <time>2021-08-11T12:20:33.375Z</time>
      </trkpt>
      <trkpt lat="46.87568" lon="8.48881">
        <ele>1774</ele>
        <time>2021-08-11T12:20:34.375Z</time>
      </trkpt>
      <trkpt lat="46.87568" lon="8.4888">
        <ele>1774</ele>
        <time>2021-08-11T12:20:35.375Z</time>
      </trkpt>
      <trkpt lat="46.87568" lon="8.48879">
        <ele>1774</ele>
        <time>2021-08-11T12:20:36.375Z</time>
      </trkpt>
      <trkpt lat="46.87568" lon="8.48879">
        <ele>1773</ele>
        <time>2021-08-11T12:20:37.375Z</time>
      </trkpt>
      <trkpt lat="46.87568" lon="8.48879">
        <ele>1774</ele>
        <time>2021-08-11T12:20:38.375Z</time>
      </trkpt>
      <trkpt lat="46.87567" lon="8.48878">
        <ele>1773</ele>
        <time>2021-08-11T12:20:39.375Z</time>
      </trkpt>
      <trkpt lat="46.87567" lon="8.48878">
        <ele>1773</ele>
        <time>2021-08-11T12:20:40.375Z</time>
      </trkpt>
      <trkpt lat="46.87566" lon="8.48877">
        <ele>1773</ele>
        <time>2021-08-11T12:20:41.374Z</time>
      </trkpt>
      <trkpt lat="46.87566" lon="8.48877">
        <ele>1772</ele>
        <time>2021-08-11T12:20:42.375Z</time>
      </trkpt>
      <trkpt lat="46.87565" lon="8.48876">
        <ele>1772</ele>
        <time>2021-08-11T12:20:43.374Z</time>
      </trkpt>
      <trkpt lat="46.87565" lon="8.48875">
        <ele>1771</ele>
        <time>2021-08-11T12:20:44.374Z</time>
      </trkpt>
      <trkpt lat="46.87565" lon="8.48873">
        <ele>1771</ele>
        <time>2021-08-11T12:20:45.374Z</time>
      </trkpt>
      <trkpt lat="46.87564" lon="8.48871">
        <ele>1771</ele>
        <time>2021-08-11T12:20:46.374Z</time>
      </trkpt>
      <trkpt lat="46.87564" lon="8.4887">
        <ele>1771</ele>
        <time>2021-08-11T12:20:47.374Z</time>
      </trkpt>
      <trkpt lat="46.87564" lon="8.48869">
        <ele>1770</ele>
        <time>2021-08-11T12:20:48.374Z</time>
      </trkpt>
      <trkpt lat="46.87564" lon="8.48868">
        <ele>1770</ele>
        <time>2021-08-11T12:20:49.374Z</time>
      </trkpt>
      <trkpt lat="46.87564" lon="8.48868">
        <ele>1770</ele>
        <time>2021-08-11T12:20:50.374Z</time>
      </trkpt>
      <trkpt lat="46.87564" lon="8.48866">
        <ele>1769</ele>
        <time>2021-08-11T12:20:51.374Z</time>
      </trkpt>
      <trkpt lat="46.87564" lon="8.48865">
        <ele>1769</ele>
        <time>2021-08-11T12:20:52.375Z</time>
      </trkpt>
      <trkpt lat="46.87564" lon="8.48864">
        <ele>1769</ele>
        <time>2021-08-11T12:20:53.374Z</time>
      </trkpt>
      <trkpt lat="46.87564" lon="8.48863">
        <ele>1769</ele>
        <time>2021-08-11T12:20:54.374Z</time>
      </trkpt>
      <trkpt lat="46.87564" lon="8.48861">
        <ele>1769</ele>
        <time>2021-08-11T12:20:55.374Z</time>
      </trkpt>
      <trkpt lat="46.87564" lon="8.48859">
        <ele>1770</ele>
        <time>2021-08-11T12:20:56.374Z</time>
      </trkpt>
      <trkpt lat="46.87564" lon="8.48858">
        <ele>1770</ele>
        <time>2021-08-11T12:20:57.375Z</time>
      </trkpt>
      <trkpt lat="46.87564" lon="8.48856">
        <ele>1770</ele>
        <time>2021-08-11T12:20:58.375Z</time>
      </trkpt>
      <trkpt lat="46.87565" lon="8.48855">
        <ele>1770</ele>
        <time>2021-08-11T12:20:59.375Z</time>
      </trkpt>
      <trkpt lat="46.87565" lon="8.48853">
        <ele>1771</ele>
        <time>2021-08-11T12:21:00.375Z</time>
      </trkpt>
      <trkpt lat="46.87564" lon="8.48851">
        <ele>1772</ele>
        <time>2021-08-11T12:21:01.375Z</time>
      </trkpt>
      <trkpt lat="46.87564" lon="8.48849">
        <ele>1772</ele>
        <time>2021-08-11T12:21:02.375Z</time>
      </trkpt>
      <trkpt lat="46.87564" lon="8.48847">
        <ele>1772</ele>
        <time>2021-08-11T12:21:03.375Z</time>
      </trkpt>
      <trkpt lat="46.87564" lon="8.48846">
        <ele>1772</ele>
        <time>2021-08-11T12:21:04.375Z</time>
      </trkpt>
      <trkpt lat="46.87564" lon="8.48844">
        <ele>1773</ele>
        <time>2021-08-11T12:21:05.374Z</time>
      </trkpt>
      <trkpt lat="46.87564" lon="8.48843">
        <ele>1773</ele>
        <time>2021-08-11T12:21:06.375Z</time>
      </trkpt>
      <trkpt lat="46.87563" lon="8.48841">
        <ele>1773</ele>
        <time>2021-08-11T12:21:07.375Z</time>
      </trkpt>
      <trkpt lat="46.87563" lon="8.48839">
        <ele>1774</ele>
        <time>2021-08-11T12:21:08.375Z</time>
      </trkpt>
      <trkpt lat="46.87564" lon="8.48838">
        <ele>1774</ele>
        <time>2021-08-11T12:21:09.375Z</time>
      </trkpt>
      <trkpt lat="46.87564" lon="8.48837">
        <ele>1774</ele>
        <time>2021-08-11T12:21:10.374Z</time>
      </trkpt>
      <trkpt lat="46.87564" lon="8.48836">
        <ele>1773</ele>
        <time>2021-08-11T12:21:11.375Z</time>
      </trkpt>
      <trkpt lat="46.87564" lon="8.48835">
        <ele>1773</ele>
        <time>2021-08-11T12:21:12.374Z</time>
      </trkpt>
      <trkpt lat="46.87565" lon="8.48834">
        <ele>1773</ele>
        <time>2021-08-11T12:21:13.375Z</time>
      </trkpt>
      <trkpt lat="46.87565" lon="8.48833">
        <ele>1772</ele>
        <time>2021-08-11T12:21:14.375Z</time>
      </trkpt>
      <trkpt lat="46.87565" lon="8.48832">
        <ele>1771</ele>
        <time>2021-08-11T12:21:15.375Z</time>
      </trkpt>
      <trkpt lat="46.87566" lon="8.48831">
        <ele>1771</ele>
        <time>2021-08-11T12:21:16.375Z</time>
      </trkpt>
      <trkpt lat="46.87566" lon="8.4883">
        <ele>1770</ele>
        <time>2021-08-11T12:21:17.375Z</time>
      </trkpt>
      <trkpt lat="46.87566" lon="8.48828">
        <ele>1770</ele>
        <time>2021-08-11T12:21:18.375Z</time>
      </trkpt>
      <trkpt lat="46.87567" lon="8.48827">
        <ele>1769</ele>
        <time>2021-08-11T12:21:19.375Z</time>
      </trkpt>
      <trkpt lat="46.87568" lon="8.48826">
        <ele>1769</ele>
        <time>2021-08-11T12:21:20.375Z</time>
      </trkpt>
      <trkpt lat="46.87569" lon="8.48825">
        <ele>1769</ele>
        <time>2021-08-11T12:21:21.374Z</time>
      </trkpt>
      <trkpt lat="46.87569" lon="8.48824">
        <ele>1769</ele>
        <time>2021-08-11T12:21:22.374Z</time>
      </trkpt>
      <trkpt lat="46.87569" lon="8.48823">
        <ele>1769</ele>
        <time>2021-08-11T12:21:23.375Z</time>
      </trkpt>
      <trkpt lat="46.8757" lon="8.48823">
        <ele>1769</ele>
        <time>2021-08-11T12:21:24.374Z</time>
      </trkpt>
      <trkpt lat="46.8757" lon="8.48822">
        <ele>1768</ele>
        <time>2021-08-11T12:21:25.375Z</time>
      </trkpt>
      <trkpt lat="46.87571" lon="8.48821">
        <ele>1768</ele>
        <time>2021-08-11T12:21:26.374Z</time>
      </trkpt>
      <trkpt lat="46.87571" lon="8.48821">
        <ele>1768</ele>
        <time>2021-08-11T12:21:27.375Z</time>
      </trkpt>
      <trkpt lat="46.87572" lon="8.48819">
        <ele>1768</ele>
        <time>2021-08-11T12:21:28.374Z</time>
      </trkpt>
      <trkpt lat="46.87572" lon="8.48818">
        <ele>1768</ele>
        <time>2021-08-11T12:21:29.375Z</time>
      </trkpt>
      <trkpt lat="46.87574" lon="8.48819">
        <ele>1769</ele>
        <time>2021-08-11T12:21:30.375Z</time>
      </trkpt>
      <trkpt lat="46.87575" lon="8.48818">
        <ele>1769</ele>
        <time>2021-08-11T12:21:31.374Z</time>
      </trkpt>
      <trkpt lat="46.87576" lon="8.48817">
        <ele>1769</ele>
        <time>2021-08-11T12:21:32.375Z</time>
      </trkpt>
      <trkpt lat="46.87576" lon="8.48817">
        <ele>1769</ele>
        <time>2021-08-11T12:21:33.374Z</time>
      </trkpt>
      <trkpt lat="46.87576" lon="8.48816">
        <ele>1768</ele>
        <time>2021-08-11T12:21:34.375Z</time>
      </trkpt>
      <trkpt lat="46.87577" lon="8.48816">
        <ele>1768</ele>
        <time>2021-08-11T12:21:35.375Z</time>
      </trkpt>
      <trkpt lat="46.87578" lon="8.48815">
        <ele>1768</ele>
        <time>2021-08-11T12:21:36.374Z</time>
      </trkpt>
      <trkpt lat="46.87578" lon="8.48815">
        <ele>1767</ele>
        <time>2021-08-11T12:21:37.375Z</time>
      </trkpt>
      <trkpt lat="46.87578" lon="8.48815">
        <ele>1767</ele>
        <time>2021-08-11T12:21:38.375Z</time>
      </trkpt>
      <trkpt lat="46.87579" lon="8.48816">
        <ele>1766</ele>
        <time>2021-08-11T12:21:39.375Z</time>
      </trkpt>
      <trkpt lat="46.87579" lon="8.48816">
        <ele>1765</ele>
        <time>2021-08-11T12:21:40.376Z</time>
      </trkpt>
      <trkpt lat="46.8758" lon="8.48817">
        <ele>1765</ele>
        <time>2021-08-11T12:21:41.377Z</time>
      </trkpt>
      <trkpt lat="46.87581" lon="8.48817">
        <ele>1765</ele>
        <time>2021-08-11T12:21:42.377Z</time>
      </trkpt>
      <trkpt lat="46.87581" lon="8.48818">
        <ele>1765</ele>
        <time>2021-08-11T12:21:43.376Z</time>
      </trkpt>
      <trkpt lat="46.87581" lon="8.48821">
        <ele>1768</ele>
        <time>2021-08-11T12:21:44.378Z</time>
      </trkpt>
      <trkpt lat="46.87581" lon="8.48821">
        <ele>1768</ele>
        <time>2021-08-11T12:21:45.377Z</time>
      </trkpt>
      <trkpt lat="46.87579" lon="8.48822">
        <ele>1770</ele>
        <time>2021-08-11T12:21:46.377Z</time>
      </trkpt>
      <trkpt lat="46.87578" lon="8.48823">
        <ele>1770</ele>
        <time>2021-08-11T12:21:47.378Z</time>
      </trkpt>
      <trkpt lat="46.87579" lon="8.48823">
        <ele>1769</ele>
        <time>2021-08-11T12:21:48.378Z</time>
      </trkpt>
      <trkpt lat="46.87579" lon="8.48822">
        <ele>1769</ele>
        <time>2021-08-11T12:21:49.378Z</time>
      </trkpt>
      <trkpt lat="46.87579" lon="8.48822">
        <ele>1769</ele>
        <time>2021-08-11T12:21:50.378Z</time>
      </trkpt>
      <trkpt lat="46.87579" lon="8.48821">
        <ele>1769</ele>
        <time>2021-08-11T12:21:51.377Z</time>
      </trkpt>
      <trkpt lat="46.87579" lon="8.48822">
        <ele>1768</ele>
        <time>2021-08-11T12:21:52.378Z</time>
      </trkpt>
      <trkpt lat="46.87579" lon="8.48822">
        <ele>1768</ele>
        <time>2021-08-11T12:21:53.378Z</time>
      </trkpt>
      <trkpt lat="46.87578" lon="8.48822">
        <ele>1768</ele>
        <time>2021-08-11T12:21:54.378Z</time>
      </trkpt>
      <trkpt lat="46.87578" lon="8.48821">
        <ele>1768</ele>
        <time>2021-08-11T12:21:55.377Z</time>
      </trkpt>
      <trkpt lat="46.87577" lon="8.4882">
        <ele>1767</ele>
        <time>2021-08-11T12:21:56.378Z</time>
      </trkpt>
      <trkpt lat="46.87577" lon="8.4882">
        <ele>1767</ele>
        <time>2021-08-11T12:21:57.378Z</time>
      </trkpt>
      <trkpt lat="46.87576" lon="8.4882">
        <ele>1767</ele>
        <time>2021-08-11T12:21:58.377Z</time>
      </trkpt>
      <trkpt lat="46.87576" lon="8.4882">
        <ele>1767</ele>
        <time>2021-08-11T12:21:59.378Z</time>
      </trkpt>
      <trkpt lat="46.87574" lon="8.48821">
        <ele>1766</ele>
        <time>2021-08-11T12:22:00.378Z</time>
      </trkpt>
      <trkpt lat="46.87573" lon="8.48816">
        <ele>1766</ele>
        <time>2021-08-11T12:22:01.378Z</time>
      </trkpt>
      <trkpt lat="46.87574" lon="8.48817">
        <ele>1765</ele>
        <time>2021-08-11T12:22:02.378Z</time>
      </trkpt>
      <trkpt lat="46.87574" lon="8.48814">
        <ele>1765</ele>
        <time>2021-08-11T12:22:03.378Z</time>
      </trkpt>
      <trkpt lat="46.87575" lon="8.4881">
        <ele>1764</ele>
        <time>2021-08-11T12:22:04.378Z</time>
      </trkpt>
      <trkpt lat="46.87575" lon="8.48809">
        <ele>1764</ele>
        <time>2021-08-11T12:22:05.377Z</time>
      </trkpt>
      <trkpt lat="46.87576" lon="8.48809">
        <ele>1764</ele>
        <time>2021-08-11T12:22:06.377Z</time>
      </trkpt>
      <trkpt lat="46.87577" lon="8.48808">
        <ele>1764</ele>
        <time>2021-08-11T12:22:07.378Z</time>
      </trkpt>
      <trkpt lat="46.87577" lon="8.48806">
        <ele>1764</ele>
        <time>2021-08-11T12:22:08.378Z</time>
      </trkpt>
      <trkpt lat="46.87577" lon="8.48804">
        <ele>1764</ele>
        <time>2021-08-11T12:22:09.378Z</time>
      </trkpt>
      <trkpt lat="46.87577" lon="8.48804">
        <ele>1764</ele>
        <time>2021-08-11T12:22:10.377Z</time>
      </trkpt>
      <trkpt lat="46.87577" lon="8.48805">
        <ele>1764</ele>
        <time>2021-08-11T12:22:11.378Z</time>
      </trkpt>
      <trkpt lat="46.87577" lon="8.48807">
        <ele>1764</ele>
        <time>2021-08-11T12:22:12.378Z</time>
      </trkpt>
      <trkpt lat="46.87577" lon="8.48811">
        <ele>1767</ele>
        <time>2021-08-11T12:22:13.378Z</time>
      </trkpt>
      <trkpt lat="46.87576" lon="8.4881">
        <ele>1767</ele>
        <time>2021-08-11T12:22:14.378Z</time>
      </trkpt>
      <trkpt lat="46.87576" lon="8.4881">
        <ele>1767</ele>
        <time>2021-08-11T12:22:15.377Z</time>
      </trkpt>
      <trkpt lat="46.87575" lon="8.48809">
        <ele>1769</ele>
        <time>2021-08-11T12:22:16.378Z</time>
      </trkpt>
      <trkpt lat="46.87574" lon="8.48809">
        <ele>1769</ele>
        <time>2021-08-11T12:22:17.377Z</time>
      </trkpt>
      <trkpt lat="46.87574" lon="8.4881">
        <ele>1769</ele>
        <time>2021-08-11T12:22:18.378Z</time>
      </trkpt>
      <trkpt lat="46.87574" lon="8.4881">
        <ele>1769</ele>
        <time>2021-08-11T12:22:19.378Z</time>
      </trkpt>
      <trkpt lat="46.87574" lon="8.48811">
        <ele>1770</ele>
        <time>2021-08-11T12:22:20.377Z</time>
      </trkpt>
      <trkpt lat="46.87576" lon="8.48811">
        <ele>1771</ele>
        <time>2021-08-11T12:22:21.378Z</time>
      </trkpt>
      <trkpt lat="46.87576" lon="8.48811">
        <ele>1771</ele>
        <time>2021-08-11T12:22:22.377Z</time>
      </trkpt>
      <trkpt lat="46.87577" lon="8.48811">
        <ele>1771</ele>
        <time>2021-08-11T12:22:23.378Z</time>
      </trkpt>
      <trkpt lat="46.87577" lon="8.4881">
        <ele>1771</ele>
        <time>2021-08-11T12:22:24.379Z</time>
      </trkpt>
      <trkpt lat="46.87577" lon="8.4881">
        <ele>1771</ele>
        <time>2021-08-11T12:22:25.378Z</time>
      </trkpt>
      <trkpt lat="46.87577" lon="8.48811">
        <ele>1771</ele>
        <time>2021-08-11T12:22:26.378Z</time>
      </trkpt>
      <trkpt lat="46.87577" lon="8.48812">
        <ele>1770</ele>
        <time>2021-08-11T12:22:27.379Z</time>
      </trkpt>
      <trkpt lat="46.87577" lon="8.48813">
        <ele>1768</ele>
        <time>2021-08-11T12:22:28.379Z</time>
      </trkpt>
      <trkpt lat="46.87578" lon="8.48812">
        <ele>1768</ele>
        <time>2021-08-11T12:22:29.379Z</time>
      </trkpt>
      <trkpt lat="46.87578" lon="8.48812">
        <ele>1768</ele>
        <time>2021-08-11T12:22:30.378Z</time>
      </trkpt>
      <trkpt lat="46.87577" lon="8.48814">
        <ele>1767</ele>
        <time>2021-08-11T12:22:31.378Z</time>
      </trkpt>
      <trkpt lat="46.87577" lon="8.48813">
        <ele>1767</ele>
        <time>2021-08-11T12:22:32.379Z</time>
      </trkpt>
      <trkpt lat="46.87576" lon="8.48815">
        <ele>1767</ele>
        <time>2021-08-11T12:22:33.379Z</time>
      </trkpt>
      <trkpt lat="46.87577" lon="8.48815">
        <ele>1767</ele>
        <time>2021-08-11T12:22:34.379Z</time>
      </trkpt>
      <trkpt lat="46.87577" lon="8.48816">
        <ele>1767</ele>
        <time>2021-08-11T12:22:35.378Z</time>
      </trkpt>
      <trkpt lat="46.87578" lon="8.48816">
        <ele>1767</ele>
        <time>2021-08-11T12:22:36.379Z</time>
      </trkpt>
      <trkpt lat="46.87579" lon="8.48817">
        <ele>1767</ele>
        <time>2021-08-11T12:22:37.378Z</time>
      </trkpt>
      <trkpt lat="46.87579" lon="8.48817">
        <ele>1767</ele>
        <time>2021-08-11T12:22:38.378Z</time>
      </trkpt>
      <trkpt lat="46.87578" lon="8.48818">
        <ele>1766</ele>
        <time>2021-08-11T12:22:39.379Z</time>
      </trkpt>
      <trkpt lat="46.87578" lon="8.48817">
        <ele>1766</ele>
        <time>2021-08-11T12:22:40.379Z</time>
      </trkpt>
      <trkpt lat="46.87577" lon="8.48817">
        <ele>1767</ele>
        <time>2021-08-11T12:22:41.379Z</time>
      </trkpt>
      <trkpt lat="46.87577" lon="8.48817">
        <ele>1767</ele>
        <time>2021-08-11T12:22:42.379Z</time>
      </trkpt>
      <trkpt lat="46.87577" lon="8.48817">
        <ele>1767</ele>
        <time>2021-08-11T12:22:43.379Z</time>
      </trkpt>
      <trkpt lat="46.87577" lon="8.48815">
        <ele>1767</ele>
        <time>2021-08-11T12:22:44.379Z</time>
      </trkpt>
      <trkpt lat="46.87577" lon="8.48815">
        <ele>1767</ele>
        <time>2021-08-11T12:22:45.380Z</time>
      </trkpt>
      <trkpt lat="46.87577" lon="8.48814">
        <ele>1767</ele>
        <time>2021-08-11T12:22:48.482Z</time>
      </trkpt>
      <trkpt lat="46.87577" lon="8.48814">
        <ele>1767</ele>
        <time>2021-08-11T12:22:49.483Z</time>
      </trkpt>
      <trkpt lat="46.87576" lon="8.48814">
        <ele>1767</ele>
        <time>2021-08-11T12:22:50.483Z</time>
      </trkpt>
      <trkpt lat="46.87576" lon="8.48813">
        <ele>1768</ele>
        <time>2021-08-11T12:22:51.482Z</time>
      </trkpt>
      <trkpt lat="46.87573" lon="8.48818">
        <ele>1767</ele>
        <time>2021-08-11T12:22:52.483Z</time>
      </trkpt>
      <trkpt lat="46.87572" lon="8.48819">
        <ele>1767</ele>
        <time>2021-08-11T12:22:53.483Z</time>
      </trkpt>
      <trkpt lat="46.87571" lon="8.4882">
        <ele>1767</ele>
        <time>2021-08-11T12:22:54.482Z</time>
      </trkpt>
      <trkpt lat="46.87571" lon="8.48822">
        <ele>1767</ele>
        <time>2021-08-11T12:22:55.483Z</time>
      </trkpt>
      <trkpt lat="46.87571" lon="8.48823">
        <ele>1767</ele>
        <time>2021-08-11T12:22:56.483Z</time>
      </trkpt>
      <trkpt lat="46.87571" lon="8.48824">
        <ele>1767</ele>
        <time>2021-08-11T12:22:57.483Z</time>
      </trkpt>
      <trkpt lat="46.87572" lon="8.48824">
        <ele>1767</ele>
        <time>2021-08-11T12:22:58.483Z</time>
      </trkpt>
      <trkpt lat="46.87572" lon="8.48824">
        <ele>1767</ele>
        <time>2021-08-11T12:22:59.482Z</time>
      </trkpt>
      <trkpt lat="46.87572" lon="8.48823">
        <ele>1767</ele>
        <time>2021-08-11T12:23:03.500Z</time>
      </trkpt>
      <trkpt lat="46.87573" lon="8.48824">
        <ele>1767</ele>
        <time>2021-08-11T12:23:04.500Z</time>
      </trkpt>
      <trkpt lat="46.87574" lon="8.48825">
        <ele>1767</ele>
        <time>2021-08-11T12:23:05.499Z</time>
      </trkpt>
      <trkpt lat="46.87573" lon="8.48827">
        <ele>1768</ele>
        <time>2021-08-11T12:23:06.502Z</time>
      </trkpt>
      <trkpt lat="46.87573" lon="8.48828">
        <ele>1768</ele>
        <time>2021-08-11T12:23:07.502Z</time>
      </trkpt>
      <trkpt lat="46.87573" lon="8.48828">
        <ele>1768</ele>
        <time>2021-08-11T12:23:08.501Z</time>
      </trkpt>
      <trkpt lat="46.87573" lon="8.48828">
        <ele>1768</ele>
        <time>2021-08-11T12:23:09.502Z</time>
      </trkpt>
      <trkpt lat="46.87573" lon="8.48828">
        <ele>1768</ele>
        <time>2021-08-11T12:23:10.502Z</time>
      </trkpt>
      <trkpt lat="46.87574" lon="8.48828">
        <ele>1768</ele>
        <time>2021-08-11T12:23:11.502Z</time>
      </trkpt>
      <trkpt lat="46.87574" lon="8.48829">
        <ele>1769</ele>
        <time>2021-08-11T12:23:12.502Z</time>
      </trkpt>
      <trkpt lat="46.87575" lon="8.4883">
        <ele>1769</ele>
        <time>2021-08-11T12:23:13.502Z</time>
      </trkpt>
      <trkpt lat="46.87576" lon="8.4883">
        <ele>1770</ele>
        <time>2021-08-11T12:23:14.502Z</time>
      </trkpt>
      <trkpt lat="46.87576" lon="8.48832">
        <ele>1770</ele>
        <time>2021-08-11T12:23:15.501Z</time>
      </trkpt>
      <trkpt lat="46.87575" lon="8.48834">
        <ele>1770</ele>
        <time>2021-08-11T12:23:16.502Z</time>
      </trkpt>
      <trkpt lat="46.87575" lon="8.48834">
        <ele>1771</ele>
        <time>2021-08-11T12:23:17.502Z</time>
      </trkpt>
      <trkpt lat="46.87574" lon="8.48834">
        <ele>1771</ele>
        <time>2021-08-11T12:23:18.502Z</time>
      </trkpt>
      <trkpt lat="46.87573" lon="8.48834">
        <ele>1771</ele>
        <time>2021-08-11T12:23:19.502Z</time>
      </trkpt>
      <trkpt lat="46.87572" lon="8.48834">
        <ele>1771</ele>
        <time>2021-08-11T12:23:20.502Z</time>
      </trkpt>
      <trkpt lat="46.87572" lon="8.48834">
        <ele>1772</ele>
        <time>2021-08-11T12:23:21.501Z</time>
      </trkpt>
      <trkpt lat="46.87572" lon="8.48834">
        <ele>1772</ele>
        <time>2021-08-11T12:23:22.502Z</time>
      </trkpt>
      <trkpt lat="46.87572" lon="8.48834">
        <ele>1772</ele>
        <time>2021-08-11T12:23:23.502Z</time>
      </trkpt>
      <trkpt lat="46.8757" lon="8.48835">
        <ele>1771</ele>
        <time>2021-08-11T12:23:24.501Z</time>
      </trkpt>
      <trkpt lat="46.87569" lon="8.48835">
        <ele>1771</ele>
        <time>2021-08-11T12:23:25.501Z</time>
      </trkpt>
      <trkpt lat="46.87572" lon="8.48836">
        <ele>1770</ele>
        <time>2021-08-11T12:23:26.502Z</time>
      </trkpt>
      <trkpt lat="46.87573" lon="8.48835">
        <ele>1770</ele>
        <time>2021-08-11T12:23:27.502Z</time>
      </trkpt>
      <trkpt lat="46.87574" lon="8.48835">
        <ele>1771</ele>
        <time>2021-08-11T12:23:28.502Z</time>
      </trkpt>
      <trkpt lat="46.87574" lon="8.48835">
        <ele>1771</ele>
        <time>2021-08-11T12:23:29.501Z</time>
      </trkpt>
      <trkpt lat="46.87574" lon="8.48834">
        <ele>1771</ele>
        <time>2021-08-11T12:23:30.501Z</time>
      </trkpt>
      <trkpt lat="46.87576" lon="8.4883">
        <ele>1772</ele>
        <time>2021-08-11T12:23:31.502Z</time>
      </trkpt>
      <trkpt lat="46.87577" lon="8.4883">
        <ele>1773</ele>
        <time>2021-08-11T12:23:32.502Z</time>
      </trkpt>
      <trkpt lat="46.87577" lon="8.48829">
        <ele>1773</ele>
        <time>2021-08-11T12:23:33.501Z</time>
      </trkpt>
      <trkpt lat="46.87577" lon="8.48827">
        <ele>1773</ele>
        <time>2021-08-11T12:23:34.501Z</time>
      </trkpt>
      <trkpt lat="46.87577" lon="8.48827">
        <ele>1774</ele>
        <time>2021-08-11T12:23:35.502Z</time>
      </trkpt>
      <trkpt lat="46.87577" lon="8.48826">
        <ele>1774</ele>
        <time>2021-08-11T12:23:36.502Z</time>
      </trkpt>
      <trkpt lat="46.87577" lon="8.48825">
        <ele>1774</ele>
        <time>2021-08-11T12:23:37.501Z</time>
      </trkpt>
      <trkpt lat="46.87576" lon="8.48824">
        <ele>1774</ele>
        <time>2021-08-11T12:23:38.501Z</time>
      </trkpt>
      <trkpt lat="46.87575" lon="8.48825">
        <ele>1775</ele>
        <time>2021-08-11T12:23:39.502Z</time>
      </trkpt>
      <trkpt lat="46.87574" lon="8.48825">
        <ele>1775</ele>
        <time>2021-08-11T12:23:40.501Z</time>
      </trkpt>
      <trkpt lat="46.87578" lon="8.4882">
        <ele>1769</ele>
        <time>2021-08-11T12:23:41.502Z</time>
      </trkpt>
      <trkpt lat="46.87579" lon="8.48821">
        <ele>1770</ele>
        <time>2021-08-11T12:23:42.502Z</time>
      </trkpt>
      <trkpt lat="46.87579" lon="8.48821">
        <ele>1770</ele>
        <time>2021-08-11T12:23:43.502Z</time>
      </trkpt>
      <trkpt lat="46.87579" lon="8.48821">
        <ele>1770</ele>
        <time>2021-08-11T12:23:44.501Z</time>
      </trkpt>
      <trkpt lat="46.87579" lon="8.48821">
        <ele>1770</ele>
        <time>2021-08-11T12:23:45.502Z</time>
      </trkpt>
      <trkpt lat="46.8758" lon="8.48816">
        <ele>1766</ele>
        <time>2021-08-11T12:23:46.502Z</time>
      </trkpt>
      <trkpt lat="46.87581" lon="8.48816">
        <ele>1766</ele>
        <time>2021-08-11T12:23:47.502Z</time>
      </trkpt>
      <trkpt lat="46.87581" lon="8.48816">
        <ele>1765</ele>
        <time>2021-08-11T12:23:48.501Z</time>
      </trkpt>
      <trkpt lat="46.87582" lon="8.48817">
        <ele>1762</ele>
        <time>2021-08-11T12:23:49.501Z</time>
      </trkpt>
      <trkpt lat="46.87582" lon="8.48816">
        <ele>1763</ele>
        <time>2021-08-11T12:23:50.501Z</time>
      </trkpt>
      <trkpt lat="46.87582" lon="8.48818">
        <ele>1762</ele>
        <time>2021-08-11T12:23:51.502Z</time>
      </trkpt>
      <trkpt lat="46.87583" lon="8.48819">
        <ele>1762</ele>
        <time>2021-08-11T12:23:52.501Z</time>
      </trkpt>
      <trkpt lat="46.87583" lon="8.48819">
        <ele>1762</ele>
        <time>2021-08-11T12:23:53.502Z</time>
      </trkpt>
      <trkpt lat="46.87582" lon="8.48819">
        <ele>1761</ele>
        <time>2021-08-11T12:23:54.501Z</time>
      </trkpt>
      <trkpt lat="46.87581" lon="8.48822">
        <ele>1761</ele>
        <time>2021-08-11T12:23:55.502Z</time>
      </trkpt>
      <trkpt lat="46.87581" lon="8.48821">
        <ele>1760</ele>
        <time>2021-08-11T12:23:56.501Z</time>
      </trkpt>
      <trkpt lat="46.87581" lon="8.4882">
        <ele>1761</ele>
        <time>2021-08-11T12:23:57.501Z</time>
      </trkpt>
      <trkpt lat="46.87581" lon="8.4882">
        <ele>1761</ele>
        <time>2021-08-11T12:23:58.502Z</time>
      </trkpt>
      <trkpt lat="46.87581" lon="8.4882">
        <ele>1761</ele>
        <time>2021-08-11T12:23:59.502Z</time>
      </trkpt>
      <trkpt lat="46.87581" lon="8.4882">
        <ele>1762</ele>
        <time>2021-08-11T12:24:00.502Z</time>
      </trkpt>
      <trkpt lat="46.87581" lon="8.4882">
        <ele>1762</ele>
        <time>2021-08-11T12:24:01.501Z</time>
      </trkpt>
      <trkpt lat="46.87581" lon="8.4882">
        <ele>1762</ele>
        <time>2021-08-11T12:24:02.502Z</time>
      </trkpt>
      <trkpt lat="46.8758" lon="8.48819">
        <ele>1761</ele>
        <time>2021-08-11T12:24:03.503Z</time>
      </trkpt>
      <trkpt lat="46.8758" lon="8.48819">
        <ele>1763</ele>
        <time>2021-08-11T12:24:04.503Z</time>
      </trkpt>
      <trkpt lat="46.8758" lon="8.48818">
        <ele>1763</ele>
        <time>2021-08-11T12:24:05.503Z</time>
      </trkpt>
      <trkpt lat="46.8758" lon="8.48817">
        <ele>1763</ele>
        <time>2021-08-11T12:24:06.503Z</time>
      </trkpt>
      <trkpt lat="46.8758" lon="8.48815">
        <ele>1762</ele>
        <time>2021-08-11T12:24:07.503Z</time>
      </trkpt>
      <trkpt lat="46.8758" lon="8.48814">
        <ele>1762</ele>
        <time>2021-08-11T12:24:08.503Z</time>
      </trkpt>
      <trkpt lat="46.8758" lon="8.48813">
        <ele>1762</ele>
        <time>2021-08-11T12:24:09.502Z</time>
      </trkpt>
      <trkpt lat="46.8758" lon="8.48812">
        <ele>1762</ele>
        <time>2021-08-11T12:24:10.503Z</time>
      </trkpt>
      <trkpt lat="46.8758" lon="8.48811">
        <ele>1762</ele>
        <time>2021-08-11T12:24:11.503Z</time>
      </trkpt>
      <trkpt lat="46.87581" lon="8.4881">
        <ele>1762</ele>
        <time>2021-08-11T12:24:12.502Z</time>
      </trkpt>
      <trkpt lat="46.87581" lon="8.48808">
        <ele>1762</ele>
        <time>2021-08-11T12:24:13.502Z</time>
      </trkpt>
      <trkpt lat="46.87582" lon="8.48807">
        <ele>1762</ele>
        <time>2021-08-11T12:24:14.503Z</time>
      </trkpt>
      <trkpt lat="46.87582" lon="8.48805">
        <ele>1762</ele>
        <time>2021-08-11T12:24:15.503Z</time>
      </trkpt>
      <trkpt lat="46.87582" lon="8.48804">
        <ele>1762</ele>
        <time>2021-08-11T12:24:16.502Z</time>
      </trkpt>
      <trkpt lat="46.87582" lon="8.48802">
        <ele>1762</ele>
        <time>2021-08-11T12:24:17.503Z</time>
      </trkpt>
      <trkpt lat="46.87582" lon="8.48801">
        <ele>1762</ele>
        <time>2021-08-11T12:24:18.503Z</time>
      </trkpt>
      <trkpt lat="46.87582" lon="8.488">
        <ele>1762</ele>
        <time>2021-08-11T12:24:19.503Z</time>
      </trkpt>
      <trkpt lat="46.87582" lon="8.48799">
        <ele>1762</ele>
        <time>2021-08-11T12:24:20.503Z</time>
      </trkpt>
      <trkpt lat="46.87583" lon="8.48798">
        <ele>1762</ele>
        <time>2021-08-11T12:24:21.503Z</time>
      </trkpt>
      <trkpt lat="46.87584" lon="8.48797">
        <ele>1762</ele>
        <time>2021-08-11T12:24:22.503Z</time>
      </trkpt>
      <trkpt lat="46.87584" lon="8.48796">
        <ele>1762</ele>
        <time>2021-08-11T12:24:23.502Z</time>
      </trkpt>
      <trkpt lat="46.87585" lon="8.48794">
        <ele>1763</ele>
        <time>2021-08-11T12:24:24.503Z</time>
      </trkpt>
      <trkpt lat="46.87585" lon="8.48792">
        <ele>1763</ele>
        <time>2021-08-11T12:24:25.503Z</time>
      </trkpt>
      <trkpt lat="46.87586" lon="8.48791">
        <ele>1763</ele>
        <time>2021-08-11T12:24:26.502Z</time>
      </trkpt>
      <trkpt lat="46.87587" lon="8.4879">
        <ele>1763</ele>
        <time>2021-08-11T12:24:27.502Z</time>
      </trkpt>
      <trkpt lat="46.87588" lon="8.48789">
        <ele>1764</ele>
        <time>2021-08-11T12:24:28.503Z</time>
      </trkpt>
      <trkpt lat="46.87589" lon="8.48788">
        <ele>1764</ele>
        <time>2021-08-11T12:24:29.502Z</time>
      </trkpt>
      <trkpt lat="46.87589" lon="8.48787">
        <ele>1764</ele>
        <time>2021-08-11T12:24:30.503Z</time>
      </trkpt>
      <trkpt lat="46.87589" lon="8.48785">
        <ele>1764</ele>
        <time>2021-08-11T12:24:31.503Z</time>
      </trkpt>
      <trkpt lat="46.87589" lon="8.48784">
        <ele>1765</ele>
        <time>2021-08-11T12:24:38.626Z</time>
      </trkpt>
      <trkpt lat="46.87589" lon="8.48782">
        <ele>1765</ele>
        <time>2021-08-11T12:24:54.399Z</time>
      </trkpt>
      <trkpt lat="46.8759" lon="8.48781">
        <ele>1765</ele>
        <time>2021-08-11T12:24:55.400Z</time>
      </trkpt>
      <trkpt lat="46.8759" lon="8.48779">
        <ele>1765</ele>
        <time>2021-08-11T12:25:05.231Z</time>
      </trkpt>
      <trkpt lat="46.8759" lon="8.48778">
        <ele>1765</ele>
        <time>2021-08-11T12:25:06.231Z</time>
      </trkpt>
      <trkpt lat="46.87591" lon="8.48777">
        <ele>1766</ele>
        <time>2021-08-11T12:25:18.107Z</time>
      </trkpt>
      <trkpt lat="46.87591" lon="8.48775">
        <ele>1766</ele>
        <time>2021-08-11T12:25:19.108Z</time>
      </trkpt>
      <trkpt lat="46.87591" lon="8.48775">
        <ele>1766</ele>
        <time>2021-08-11T12:25:20.108Z</time>
      </trkpt>
      <trkpt lat="46.87592" lon="8.48774">
        <ele>1767</ele>
        <time>2021-08-11T12:25:21.107Z</time>
      </trkpt>
      <trkpt lat="46.87592" lon="8.48773">
        <ele>1767</ele>
        <time>2021-08-11T12:25:42.103Z</time>
      </trkpt>
      <trkpt lat="46.87592" lon="8.48772">
        <ele>1767</ele>
        <time>2021-08-11T12:25:43.103Z</time>
      </trkpt>
      <trkpt lat="46.87593" lon="8.48771">
        <ele>1768</ele>
        <time>2021-08-11T12:25:44.103Z</time>
      </trkpt>
      <trkpt lat="46.87593" lon="8.4877">
        <ele>1768</ele>
        <time>2021-08-11T12:25:46.841Z</time>
      </trkpt>
      <trkpt lat="46.87594" lon="8.48769">
        <ele>1768</ele>
        <time>2021-08-11T12:25:47.840Z</time>
      </trkpt>
      <trkpt lat="46.87595" lon="8.48768">
        <ele>1769</ele>
        <time>2021-08-11T12:25:48.841Z</time>
      </trkpt>
      <trkpt lat="46.87596" lon="8.48767">
        <ele>1769</ele>
        <time>2021-08-11T12:25:49.841Z</time>
      </trkpt>
      <trkpt lat="46.87596" lon="8.48766">
        <ele>1769</ele>
        <time>2021-08-11T12:25:50.841Z</time>
      </trkpt>
      <trkpt lat="46.87597" lon="8.48766">
        <ele>1769</ele>
        <time>2021-08-11T12:25:51.841Z</time>
      </trkpt>
      <trkpt lat="46.87598" lon="8.48765">
        <ele>1769</ele>
        <time>2021-08-11T12:25:52.841Z</time>
      </trkpt>
      <trkpt lat="46.87598" lon="8.48764">
        <ele>1769</ele>
        <time>2021-08-11T12:25:53.841Z</time>
      </trkpt>
      <trkpt lat="46.87598" lon="8.48763">
        <ele>1769</ele>
        <time>2021-08-11T12:25:54.841Z</time>
      </trkpt>
      <trkpt lat="46.87599" lon="8.48762">
        <ele>1769</ele>
        <time>2021-08-11T12:25:55.840Z</time>
      </trkpt>
      <trkpt lat="46.876" lon="8.48761">
        <ele>1769</ele>
        <time>2021-08-11T12:25:56.841Z</time>
      </trkpt>
      <trkpt lat="46.876" lon="8.4876">
        <ele>1769</ele>
        <time>2021-08-11T12:25:57.841Z</time>
      </trkpt>
      <trkpt lat="46.87601" lon="8.48759">
        <ele>1769</ele>
        <time>2021-08-11T12:25:58.840Z</time>
      </trkpt>
      <trkpt lat="46.87602" lon="8.48758">
        <ele>1769</ele>
        <time>2021-08-11T12:25:59.841Z</time>
      </trkpt>
      <trkpt lat="46.87603" lon="8.48758">
        <ele>1769</ele>
        <time>2021-08-11T12:26:00.841Z</time>
      </trkpt>
      <trkpt lat="46.87603" lon="8.48757">
        <ele>1769</ele>
        <time>2021-08-11T12:26:01.841Z</time>
      </trkpt>
      <trkpt lat="46.87604" lon="8.48756">
        <ele>1769</ele>
        <time>2021-08-11T12:26:02.841Z</time>
      </trkpt>
      <trkpt lat="46.87604" lon="8.48754">
        <ele>1769</ele>
        <time>2021-08-11T12:26:03.840Z</time>
      </trkpt>
      <trkpt lat="46.87605" lon="8.48752">
        <ele>1769</ele>
        <time>2021-08-11T12:26:04.841Z</time>
      </trkpt>
      <trkpt lat="46.87605" lon="8.48751">
        <ele>1770</ele>
        <time>2021-08-11T12:26:05.841Z</time>
      </trkpt>
      <trkpt lat="46.87606" lon="8.4875">
        <ele>1770</ele>
        <time>2021-08-11T12:26:06.841Z</time>
      </trkpt>
      <trkpt lat="46.87606" lon="8.48749">
        <ele>1770</ele>
        <time>2021-08-11T12:26:07.841Z</time>
      </trkpt>
      <trkpt lat="46.87606" lon="8.48747">
        <ele>1770</ele>
        <time>2021-08-11T12:26:08.841Z</time>
      </trkpt>
      <trkpt lat="46.87607" lon="8.48746">
        <ele>1770</ele>
        <time>2021-08-11T12:26:09.841Z</time>
      </trkpt>
      <trkpt lat="46.87607" lon="8.48745">
        <ele>1770</ele>
        <time>2021-08-11T12:26:10.841Z</time>
      </trkpt>
      <trkpt lat="46.87607" lon="8.48744">
        <ele>1770</ele>
        <time>2021-08-11T12:26:21.856Z</time>
      </trkpt>
      <trkpt lat="46.87608" lon="8.48743">
        <ele>1770</ele>
        <time>2021-08-11T12:26:22.856Z</time>
      </trkpt>
      <trkpt lat="46.87608" lon="8.48741">
        <ele>1771</ele>
        <time>2021-08-11T12:26:23.856Z</time>
      </trkpt>
      <trkpt lat="46.87608" lon="8.4874">
        <ele>1771</ele>
        <time>2021-08-11T12:26:24.856Z</time>
      </trkpt>
      <trkpt lat="46.87608" lon="8.48739">
        <ele>1772</ele>
        <time>2021-08-11T12:26:25.856Z</time>
      </trkpt>
      <trkpt lat="46.87609" lon="8.48738">
        <ele>1772</ele>
        <time>2021-08-11T12:26:26.856Z</time>
      </trkpt>
      <trkpt lat="46.87609" lon="8.48737">
        <ele>1773</ele>
        <time>2021-08-11T12:26:27.855Z</time>
      </trkpt>
      <trkpt lat="46.8761" lon="8.48736">
        <ele>1772</ele>
        <time>2021-08-11T12:26:28.855Z</time>
      </trkpt>
      <trkpt lat="46.8761" lon="8.48735">
        <ele>1772</ele>
        <time>2021-08-11T12:26:29.856Z</time>
      </trkpt>
      <trkpt lat="46.8761" lon="8.48733">
        <ele>1772</ele>
        <time>2021-08-11T12:26:30.856Z</time>
      </trkpt>
      <trkpt lat="46.8761" lon="8.48732">
        <ele>1772</ele>
        <time>2021-08-11T12:26:32.966Z</time>
      </trkpt>
      <trkpt lat="46.8761" lon="8.4873">
        <ele>1772</ele>
        <time>2021-08-11T12:26:40.730Z</time>
      </trkpt>
      <trkpt lat="46.8761" lon="8.48729">
        <ele>1772</ele>
        <time>2021-08-11T12:26:41.730Z</time>
      </trkpt>
      <trkpt lat="46.8761" lon="8.48727">
        <ele>1772</ele>
        <time>2021-08-11T12:26:42.730Z</time>
      </trkpt>
      <trkpt lat="46.8761" lon="8.48726">
        <ele>1772</ele>
        <time>2021-08-11T12:26:43.729Z</time>
      </trkpt>
      <trkpt lat="46.8761" lon="8.48725">
        <ele>1772</ele>
        <time>2021-08-11T12:26:45.713Z</time>
      </trkpt>
      <trkpt lat="46.87611" lon="8.48724">
        <ele>1772</ele>
        <time>2021-08-11T12:26:53.484Z</time>
      </trkpt>
      <trkpt lat="46.87611" lon="8.48723">
        <ele>1772</ele>
        <time>2021-08-11T12:26:54.484Z</time>
      </trkpt>
      <trkpt lat="46.8761" lon="8.48721">
        <ele>1771</ele>
        <time>2021-08-11T12:26:55.484Z</time>
      </trkpt>
      <trkpt lat="46.87609" lon="8.48719">
        <ele>1771</ele>
        <time>2021-08-11T12:26:56.483Z</time>
      </trkpt>
      <trkpt lat="46.87609" lon="8.48719">
        <ele>1771</ele>
        <time>2021-08-11T12:26:57.484Z</time>
      </trkpt>
      <trkpt lat="46.87608" lon="8.48717">
        <ele>1771</ele>
        <time>2021-08-11T12:26:58.484Z</time>
      </trkpt>
      <trkpt lat="46.87607" lon="8.48715">
        <ele>1772</ele>
        <time>2021-08-11T12:27:23.622Z</time>
      </trkpt>
      <trkpt lat="46.87607" lon="8.48714">
        <ele>1772</ele>
        <time>2021-08-11T12:27:24.621Z</time>
      </trkpt>
      <trkpt lat="46.87607" lon="8.48713">
        <ele>1773</ele>
        <time>2021-08-11T12:27:25.621Z</time>
      </trkpt>
      <trkpt lat="46.87606" lon="8.48711">
        <ele>1773</ele>
        <time>2021-08-11T12:27:26.622Z</time>
      </trkpt>
      <trkpt lat="46.87606" lon="8.48709">
        <ele>1774</ele>
        <time>2021-08-11T12:27:27.621Z</time>
      </trkpt>
      <trkpt lat="46.87605" lon="8.48707">
        <ele>1774</ele>
        <time>2021-08-11T12:27:28.622Z</time>
      </trkpt>
      <trkpt lat="46.87604" lon="8.48706">
        <ele>1775</ele>
        <time>2021-08-11T12:27:36.602Z</time>
      </trkpt>
      <trkpt lat="46.87603" lon="8.48705">
        <ele>1775</ele>
        <time>2021-08-11T12:27:37.602Z</time>
      </trkpt>
      <trkpt lat="46.87603" lon="8.48705">
        <ele>1775</ele>
        <time>2021-08-11T12:27:38.602Z</time>
      </trkpt>
      <trkpt lat="46.87603" lon="8.48705">
        <ele>1775</ele>
        <time>2021-08-11T12:28:00.725Z</time>
      </trkpt>
      <trkpt lat="46.87602" lon="8.48705">
        <ele>1775</ele>
        <time>2021-08-11T12:28:01.725Z</time>
      </trkpt>
      <trkpt lat="46.87602" lon="8.48705">
        <ele>1774</ele>
        <time>2021-08-11T12:28:02.725Z</time>
      </trkpt>
      <trkpt lat="46.87603" lon="8.48705">
        <ele>1774</ele>
        <time>2021-08-11T12:28:03.725Z</time>
      </trkpt>
      <trkpt lat="46.87603" lon="8.4871">
        <ele>1770</ele>
        <time>2021-08-11T12:28:04.725Z</time>
      </trkpt>
      <trkpt lat="46.87603" lon="8.4871">
        <ele>1769</ele>
        <time>2021-08-11T12:28:11.745Z</time>
      </trkpt>
      <trkpt lat="46.87603" lon="8.48711">
        <ele>1769</ele>
        <time>2021-08-11T12:28:12.744Z</time>
      </trkpt>
      <trkpt lat="46.87603" lon="8.48711">
        <ele>1769</ele>
        <time>2021-08-11T12:28:13.744Z</time>
      </trkpt>
      <trkpt lat="46.87604" lon="8.48711">
        <ele>1769</ele>
        <time>2021-08-11T12:28:24.749Z</time>
      </trkpt>
      <trkpt lat="46.87604" lon="8.48711">
        <ele>1769</ele>
        <time>2021-08-11T12:28:37.600Z</time>
      </trkpt>
      <trkpt lat="46.87605" lon="8.48712">
        <ele>1767</ele>
        <time>2021-08-11T12:28:38.601Z</time>
      </trkpt>
      <trkpt lat="46.87605" lon="8.48713">
        <ele>1767</ele>
        <time>2021-08-11T12:28:45.475Z</time>
      </trkpt>
      <trkpt lat="46.87605" lon="8.48714">
        <ele>1767</ele>
        <time>2021-08-11T12:28:52.373Z</time>
      </trkpt>
      <trkpt lat="46.87606" lon="8.48715">
        <ele>1767</ele>
        <time>2021-08-11T12:28:53.373Z</time>
      </trkpt>
      <trkpt lat="46.87607" lon="8.48716">
        <ele>1767</ele>
        <time>2021-08-11T12:28:54.373Z</time>
      </trkpt>
      <trkpt lat="46.87609" lon="8.48717">
        <ele>1768</ele>
        <time>2021-08-11T12:28:55.373Z</time>
      </trkpt>
      <trkpt lat="46.8761" lon="8.48718">
        <ele>1768</ele>
        <time>2021-08-11T12:29:36.348Z</time>
      </trkpt>
      <trkpt lat="46.87611" lon="8.48719">
        <ele>1768</ele>
        <time>2021-08-11T12:29:37.348Z</time>
      </trkpt>
      <trkpt lat="46.87611" lon="8.48719">
        <ele>1768</ele>
        <time>2021-08-11T12:29:38.348Z</time>
      </trkpt>
      <trkpt lat="46.87612" lon="8.48719">
        <ele>1768</ele>
        <time>2021-08-11T12:29:39.347Z</time>
      </trkpt>
      <trkpt lat="46.87612" lon="8.48718">
        <ele>1768</ele>
        <time>2021-08-11T12:29:40.348Z</time>
      </trkpt>
      <trkpt lat="46.87612" lon="8.48717">
        <ele>1768</ele>
        <time>2021-08-11T12:29:45.352Z</time>
      </trkpt>
      <trkpt lat="46.87613" lon="8.48716">
        <ele>1769</ele>
        <time>2021-08-11T12:29:46.352Z</time>
      </trkpt>
      <trkpt lat="46.87613" lon="8.48716">
        <ele>1769</ele>
        <time>2021-08-11T12:29:47.352Z</time>
      </trkpt>
      <trkpt lat="46.87613" lon="8.48716">
        <ele>1769</ele>
        <time>2021-08-11T12:29:59.482Z</time>
      </trkpt>
      <trkpt lat="46.87614" lon="8.48716">
        <ele>1770</ele>
        <time>2021-08-11T12:30:00.481Z</time>
      </trkpt>
      <trkpt lat="46.87614" lon="8.48716">
        <ele>1770</ele>
        <time>2021-08-11T12:30:01.481Z</time>
      </trkpt>
      <trkpt lat="46.87615" lon="8.48716">
        <ele>1771</ele>
        <time>2021-08-11T12:30:02.482Z</time>
      </trkpt>
      <trkpt lat="46.87616" lon="8.48717">
        <ele>1772</ele>
        <time>2021-08-11T12:30:03.481Z</time>
      </trkpt>
      <trkpt lat="46.87617" lon="8.48717">
        <ele>1772</ele>
        <time>2021-08-11T12:30:04.482Z</time>
      </trkpt>
      <trkpt lat="46.87617" lon="8.48718">
        <ele>1773</ele>
        <time>2021-08-11T12:30:05.482Z</time>
      </trkpt>
      <trkpt lat="46.87617" lon="8.48719">
        <ele>1774</ele>
        <time>2021-08-11T12:30:06.482Z</time>
      </trkpt>
      <trkpt lat="46.87617" lon="8.4872">
        <ele>1774</ele>
        <time>2021-08-11T12:30:07.482Z</time>
      </trkpt>
      <trkpt lat="46.87617" lon="8.4872">
        <ele>1775</ele>
        <time>2021-08-11T12:30:08.481Z</time>
      </trkpt>
      <trkpt lat="46.87617" lon="8.4872">
        <ele>1775</ele>
        <time>2021-08-11T12:30:10.581Z</time>
      </trkpt>
      <trkpt lat="46.87617" lon="8.48721">
        <ele>1775</ele>
        <time>2021-08-11T12:30:11.582Z</time>
      </trkpt>
      <trkpt lat="46.87617" lon="8.48721">
        <ele>1776</ele>
        <time>2021-08-11T12:30:12.582Z</time>
      </trkpt>
      <trkpt lat="46.87617" lon="8.48721">
        <ele>1776</ele>
        <time>2021-08-11T12:30:13.582Z</time>
      </trkpt>
      <trkpt lat="46.87617" lon="8.4872">
        <ele>1776</ele>
        <time>2021-08-11T12:30:14.582Z</time>
      </trkpt>
      <trkpt lat="46.87617" lon="8.48718">
        <ele>1777</ele>
        <time>2021-08-11T12:30:15.581Z</time>
      </trkpt>
      <trkpt lat="46.87616" lon="8.48717">
        <ele>1777</ele>
        <time>2021-08-11T12:30:16.581Z</time>
      </trkpt>
      <trkpt lat="46.87616" lon="8.48717">
        <ele>1777</ele>
        <time>2021-08-11T12:30:17.582Z</time>
      </trkpt>
      <trkpt lat="46.87617" lon="8.48716">
        <ele>1777</ele>
        <time>2021-08-11T12:30:18.581Z</time>
      </trkpt>
      <trkpt lat="46.87617" lon="8.48716">
        <ele>1777</ele>
        <time>2021-08-11T12:30:19.582Z</time>
      </trkpt>
      <trkpt lat="46.87618" lon="8.48716">
        <ele>1778</ele>
        <time>2021-08-11T12:30:20.581Z</time>
      </trkpt>
      <trkpt lat="46.87619" lon="8.48716">
        <ele>1778</ele>
        <time>2021-08-11T12:30:21.582Z</time>
      </trkpt>
      <trkpt lat="46.87619" lon="8.48716">
        <ele>1777</ele>
        <time>2021-08-11T12:30:22.582Z</time>
      </trkpt>
      <trkpt lat="46.87619" lon="8.48716">
        <ele>1777</ele>
        <time>2021-08-11T12:30:23.582Z</time>
      </trkpt>
      <trkpt lat="46.87619" lon="8.48715">
        <ele>1778</ele>
        <time>2021-08-11T12:30:28.643Z</time>
      </trkpt>
      <trkpt lat="46.87618" lon="8.48715">
        <ele>1778</ele>
        <time>2021-08-11T12:30:29.644Z</time>
      </trkpt>
      <trkpt lat="46.87618" lon="8.48714">
        <ele>1778</ele>
        <time>2021-08-11T12:30:30.643Z</time>
      </trkpt>
      <trkpt lat="46.87618" lon="8.48713">
        <ele>1779</ele>
        <time>2021-08-11T12:30:31.644Z</time>
      </trkpt>
      <trkpt lat="46.87617" lon="8.48711">
        <ele>1779</ele>
        <time>2021-08-11T12:30:32.643Z</time>
      </trkpt>
      <trkpt lat="46.87617" lon="8.4871">
        <ele>1779</ele>
        <time>2021-08-11T12:30:33.643Z</time>
      </trkpt>
      <trkpt lat="46.87616" lon="8.4871">
        <ele>1779</ele>
        <time>2021-08-11T12:30:34.643Z</time>
      </trkpt>
      <trkpt lat="46.87614" lon="8.48705">
        <ele>1786</ele>
        <time>2021-08-11T12:30:35.644Z</time>
      </trkpt>
      <trkpt lat="46.87612" lon="8.48706">
        <ele>1786</ele>
        <time>2021-08-11T12:30:36.644Z</time>
      </trkpt>
      <trkpt lat="46.87612" lon="8.48706">
        <ele>1787</ele>
        <time>2021-08-11T12:30:37.645Z</time>
      </trkpt>
      <trkpt lat="46.87612" lon="8.48706">
        <ele>1787</ele>
        <time>2021-08-11T12:30:38.644Z</time>
      </trkpt>
      <trkpt lat="46.87611" lon="8.48705">
        <ele>1787</ele>
        <time>2021-08-11T12:30:39.645Z</time>
      </trkpt>
      <trkpt lat="46.87611" lon="8.48705">
        <ele>1787</ele>
        <time>2021-08-11T12:30:40.644Z</time>
      </trkpt>
      <trkpt lat="46.87613" lon="8.48704">
        <ele>1788</ele>
        <time>2021-08-11T12:30:41.646Z</time>
      </trkpt>
      <trkpt lat="46.87612" lon="8.48703">
        <ele>1788</ele>
        <time>2021-08-11T12:30:42.645Z</time>
      </trkpt>
      <trkpt lat="46.87612" lon="8.48702">
        <ele>1788</ele>
        <time>2021-08-11T12:30:43.646Z</time>
      </trkpt>
      <trkpt lat="46.87613" lon="8.487">
        <ele>1788</ele>
        <time>2021-08-11T12:30:44.646Z</time>
      </trkpt>
      <trkpt lat="46.87613" lon="8.487">
        <ele>1788</ele>
        <time>2021-08-11T12:30:45.646Z</time>
      </trkpt>
      <trkpt lat="46.87613" lon="8.48699">
        <ele>1788</ele>
        <time>2021-08-11T12:30:46.645Z</time>
      </trkpt>
      <trkpt lat="46.87613" lon="8.48698">
        <ele>1787</ele>
        <time>2021-08-11T12:30:47.646Z</time>
      </trkpt>
      <trkpt lat="46.87613" lon="8.48697">
        <ele>1786</ele>
        <time>2021-08-11T12:30:48.646Z</time>
      </trkpt>
      <trkpt lat="46.87613" lon="8.48696">
        <ele>1785</ele>
        <time>2021-08-11T12:30:49.645Z</time>
      </trkpt>
      <trkpt lat="46.87613" lon="8.48695">
        <ele>1785</ele>
        <time>2021-08-11T12:30:50.646Z</time>
      </trkpt>
      <trkpt lat="46.87613" lon="8.48694">
        <ele>1784</ele>
        <time>2021-08-11T12:30:51.646Z</time>
      </trkpt>
      <trkpt lat="46.87613" lon="8.48693">
        <ele>1784</ele>
        <time>2021-08-11T12:30:52.645Z</time>
      </trkpt>
      <trkpt lat="46.87614" lon="8.48692">
        <ele>1783</ele>
        <time>2021-08-11T12:30:53.646Z</time>
      </trkpt>
      <trkpt lat="46.87613" lon="8.48691">
        <ele>1783</ele>
        <time>2021-08-11T12:30:54.646Z</time>
      </trkpt>
      <trkpt lat="46.87613" lon="8.4869">
        <ele>1782</ele>
        <time>2021-08-11T12:30:59.723Z</time>
      </trkpt>
      <trkpt lat="46.87614" lon="8.48689">
        <ele>1782</ele>
        <time>2021-08-11T12:31:00.722Z</time>
      </trkpt>
      <trkpt lat="46.87614" lon="8.48688">
        <ele>1782</ele>
        <time>2021-08-11T12:31:37.473Z</time>
      </trkpt>
      <trkpt lat="46.87615" lon="8.48687">
        <ele>1781</ele>
        <time>2021-08-11T12:31:38.473Z</time>
      </trkpt>
      <trkpt lat="46.87614" lon="8.48686">
        <ele>1781</ele>
        <time>2021-08-11T12:31:39.472Z</time>
      </trkpt>
      <trkpt lat="46.87614" lon="8.48684">
        <ele>1782</ele>
        <time>2021-08-11T12:31:40.473Z</time>
      </trkpt>
      <trkpt lat="46.87614" lon="8.48684">
        <ele>1782</ele>
        <time>2021-08-11T12:32:20.476Z</time>
      </trkpt>
      <trkpt lat="46.87615" lon="8.48683">
        <ele>1782</ele>
        <time>2021-08-11T12:32:21.475Z</time>
      </trkpt>
      <trkpt lat="46.87615" lon="8.48682">
        <ele>1782</ele>
        <time>2021-08-11T12:32:22.476Z</time>
      </trkpt>
      <trkpt lat="46.87616" lon="8.48681">
        <ele>1783</ele>
        <time>2021-08-11T12:32:23.476Z</time>
      </trkpt>
      <trkpt lat="46.87616" lon="8.48681">
        <ele>1783</ele>
        <time>2021-08-11T12:32:24.476Z</time>
      </trkpt>
      <trkpt lat="46.87617" lon="8.4868">
        <ele>1783</ele>
        <time>2021-08-11T12:32:25.475Z</time>
      </trkpt>
      <trkpt lat="46.87617" lon="8.4868">
        <ele>1782</ele>
        <time>2021-08-11T12:32:26.476Z</time>
      </trkpt>
      <trkpt lat="46.87617" lon="8.48679">
        <ele>1781</ele>
        <time>2021-08-11T12:32:27.476Z</time>
      </trkpt>
      <trkpt lat="46.87618" lon="8.48678">
        <ele>1781</ele>
        <time>2021-08-11T12:32:28.475Z</time>
      </trkpt>
      <trkpt lat="46.87618" lon="8.48677">
        <ele>1780</ele>
        <time>2021-08-11T12:32:29.476Z</time>
      </trkpt>
      <trkpt lat="46.87618" lon="8.48676">
        <ele>1780</ele>
        <time>2021-08-11T12:32:30.476Z</time>
      </trkpt>
      <trkpt lat="46.87619" lon="8.48675">
        <ele>1779</ele>
        <time>2021-08-11T12:32:31.475Z</time>
      </trkpt>
      <trkpt lat="46.87619" lon="8.48674">
        <ele>1779</ele>
        <time>2021-08-11T12:32:32.475Z</time>
      </trkpt>
      <trkpt lat="46.87619" lon="8.48674">
        <ele>1778</ele>
        <time>2021-08-11T12:32:33.476Z</time>
      </trkpt>
      <trkpt lat="46.87619" lon="8.48673">
        <ele>1777</ele>
        <time>2021-08-11T12:32:34.475Z</time>
      </trkpt>
      <trkpt lat="46.87619" lon="8.48673">
        <ele>1777</ele>
        <time>2021-08-11T12:32:35.476Z</time>
      </trkpt>
      <trkpt lat="46.87622" lon="8.48674">
        <ele>1773</ele>
        <time>2021-08-11T12:32:36.476Z</time>
      </trkpt>
      <trkpt lat="46.87623" lon="8.48673">
        <ele>1773</ele>
        <time>2021-08-11T12:32:37.477Z</time>
      </trkpt>
      <trkpt lat="46.87623" lon="8.48672">
        <ele>1773</ele>
        <time>2021-08-11T12:32:38.476Z</time>
      </trkpt>
      <trkpt lat="46.87623" lon="8.48671">
        <ele>1773</ele>
        <time>2021-08-11T12:32:39.477Z</time>
      </trkpt>
      <trkpt lat="46.87623" lon="8.4867">
        <ele>1773</ele>
        <time>2021-08-11T12:32:40.477Z</time>
      </trkpt>
      <trkpt lat="46.87623" lon="8.48669">
        <ele>1773</ele>
        <time>2021-08-11T12:32:41.476Z</time>
      </trkpt>
      <trkpt lat="46.87623" lon="8.48667">
        <ele>1773</ele>
        <time>2021-08-11T12:32:42.477Z</time>
      </trkpt>
      <trkpt lat="46.87622" lon="8.48665">
        <ele>1773</ele>
        <time>2021-08-11T12:32:43.477Z</time>
      </trkpt>
      <trkpt lat="46.87622" lon="8.48664">
        <ele>1773</ele>
        <time>2021-08-11T12:32:44.476Z</time>
      </trkpt>
      <trkpt lat="46.87621" lon="8.48663">
        <ele>1772</ele>
        <time>2021-08-11T12:32:45.477Z</time>
      </trkpt>
      <trkpt lat="46.8762" lon="8.48663">
        <ele>1772</ele>
        <time>2021-08-11T12:32:46.477Z</time>
      </trkpt>
      <trkpt lat="46.87619" lon="8.48662">
        <ele>1772</ele>
        <time>2021-08-11T12:32:47.477Z</time>
      </trkpt>
      <trkpt lat="46.87619" lon="8.48662">
        <ele>1772</ele>
        <time>2021-08-11T12:32:48.476Z</time>
      </trkpt>
      <trkpt lat="46.87618" lon="8.48662">
        <ele>1772</ele>
        <time>2021-08-11T12:32:49.476Z</time>
      </trkpt>
      <trkpt lat="46.87617" lon="8.48662">
        <ele>1771</ele>
        <time>2021-08-11T12:32:50.476Z</time>
      </trkpt>
      <trkpt lat="46.87617" lon="8.48661">
        <ele>1771</ele>
        <time>2021-08-11T12:32:51.476Z</time>
      </trkpt>
      <trkpt lat="46.87616" lon="8.48661">
        <ele>1770</ele>
        <time>2021-08-11T12:32:52.477Z</time>
      </trkpt>
      <trkpt lat="46.87616" lon="8.4866">
        <ele>1770</ele>
        <time>2021-08-11T12:32:53.477Z</time>
      </trkpt>
      <trkpt lat="46.87615" lon="8.4866">
        <ele>1770</ele>
        <time>2021-08-11T12:32:54.477Z</time>
      </trkpt>
      <trkpt lat="46.87615" lon="8.4866">
        <ele>1770</ele>
        <time>2021-08-11T12:32:55.476Z</time>
      </trkpt>
      <trkpt lat="46.87614" lon="8.4866">
        <ele>1770</ele>
        <time>2021-08-11T12:32:56.477Z</time>
      </trkpt>
      <trkpt lat="46.87615" lon="8.48664">
        <ele>1770</ele>
        <time>2021-08-11T12:32:57.478Z</time>
      </trkpt>
      <trkpt lat="46.87615" lon="8.48664">
        <ele>1770</ele>
        <time>2021-08-11T12:32:58.477Z</time>
      </trkpt>
      <trkpt lat="46.87615" lon="8.48664">
        <ele>1770</ele>
        <time>2021-08-11T12:32:59.478Z</time>
      </trkpt>
      <trkpt lat="46.87614" lon="8.48664">
        <ele>1774</ele>
        <time>2021-08-11T12:33:00.479Z</time>
      </trkpt>
      <trkpt lat="46.87615" lon="8.48664">
        <ele>1774</ele>
        <time>2021-08-11T12:33:01.478Z</time>
      </trkpt>
      <trkpt lat="46.87615" lon="8.48664">
        <ele>1774</ele>
        <time>2021-08-11T12:33:02.479Z</time>
      </trkpt>
      <trkpt lat="46.87615" lon="8.48665">
        <ele>1775</ele>
        <time>2021-08-11T12:33:03.478Z</time>
      </trkpt>
      <trkpt lat="46.87615" lon="8.48665">
        <ele>1775</ele>
        <time>2021-08-11T12:33:04.479Z</time>
      </trkpt>
      <trkpt lat="46.87616" lon="8.48665">
        <ele>1775</ele>
        <time>2021-08-11T12:33:05.479Z</time>
      </trkpt>
      <trkpt lat="46.87615" lon="8.48663">
        <ele>1778</ele>
        <time>2021-08-11T12:33:06.479Z</time>
      </trkpt>
      <trkpt lat="46.87615" lon="8.48663">
        <ele>1778</ele>
        <time>2021-08-11T12:33:07.479Z</time>
      </trkpt>
      <trkpt lat="46.87612" lon="8.48658">
        <ele>1776</ele>
        <time>2021-08-11T12:33:08.480Z</time>
      </trkpt>
      <trkpt lat="46.87611" lon="8.48657">
        <ele>1776</ele>
        <time>2021-08-11T12:33:09.480Z</time>
      </trkpt>
      <trkpt lat="46.87611" lon="8.48657">
        <ele>1775</ele>
        <time>2021-08-11T12:33:10.479Z</time>
      </trkpt>
      <trkpt lat="46.8761" lon="8.48656">
        <ele>1775</ele>
        <time>2021-08-11T12:33:11.479Z</time>
      </trkpt>
      <trkpt lat="46.87609" lon="8.48655">
        <ele>1775</ele>
        <time>2021-08-11T12:33:12.479Z</time>
      </trkpt>
      <trkpt lat="46.87608" lon="8.48655">
        <ele>1775</ele>
        <time>2021-08-11T12:33:13.479Z</time>
      </trkpt>
      <trkpt lat="46.87607" lon="8.48654">
        <ele>1775</ele>
        <time>2021-08-11T12:33:14.479Z</time>
      </trkpt>
      <trkpt lat="46.87606" lon="8.48654">
        <ele>1775</ele>
        <time>2021-08-11T12:33:15.479Z</time>
      </trkpt>
      <trkpt lat="46.87606" lon="8.48653">
        <ele>1774</ele>
        <time>2021-08-11T12:33:16.479Z</time>
      </trkpt>
      <trkpt lat="46.87606" lon="8.48652">
        <ele>1774</ele>
        <time>2021-08-11T12:33:17.480Z</time>
      </trkpt>
      <trkpt lat="46.87605" lon="8.48652">
        <ele>1774</ele>
        <time>2021-08-11T12:33:18.479Z</time>
      </trkpt>
      <trkpt lat="46.87605" lon="8.48652">
        <ele>1774</ele>
        <time>2021-08-11T12:33:19.479Z</time>
      </trkpt>
      <trkpt lat="46.87604" lon="8.48651">
        <ele>1774</ele>
        <time>2021-08-11T12:33:20.480Z</time>
      </trkpt>
      <trkpt lat="46.87603" lon="8.4865">
        <ele>1774</ele>
        <time>2021-08-11T12:33:21.479Z</time>
      </trkpt>
      <trkpt lat="46.87602" lon="8.48649">
        <ele>1774</ele>
        <time>2021-08-11T12:33:22.480Z</time>
      </trkpt>
      <trkpt lat="46.87601" lon="8.48648">
        <ele>1774</ele>
        <time>2021-08-11T12:33:23.479Z</time>
      </trkpt>
      <trkpt lat="46.87601" lon="8.48647">
        <ele>1774</ele>
        <time>2021-08-11T12:33:24.479Z</time>
      </trkpt>
      <trkpt lat="46.87601" lon="8.48646">
        <ele>1774</ele>
        <time>2021-08-11T12:33:25.479Z</time>
      </trkpt>
      <trkpt lat="46.876" lon="8.48646">
        <ele>1774</ele>
        <time>2021-08-11T12:33:26.480Z</time>
      </trkpt>
      <trkpt lat="46.876" lon="8.48646">
        <ele>1773</ele>
        <time>2021-08-11T12:33:27.479Z</time>
      </trkpt>
      <trkpt lat="46.87599" lon="8.48646">
        <ele>1773</ele>
        <time>2021-08-11T12:33:28.480Z</time>
      </trkpt>
      <trkpt lat="46.87599" lon="8.48645">
        <ele>1773</ele>
        <time>2021-08-11T12:33:29.479Z</time>
      </trkpt>
      <trkpt lat="46.87598" lon="8.48644">
        <ele>1774</ele>
        <time>2021-08-11T12:33:30.479Z</time>
      </trkpt>
      <trkpt lat="46.87596" lon="8.48644">
        <ele>1774</ele>
        <time>2021-08-11T12:33:31.480Z</time>
      </trkpt>
      <trkpt lat="46.87596" lon="8.48644">
        <ele>1774</ele>
        <time>2021-08-11T12:33:32.479Z</time>
      </trkpt>
      <trkpt lat="46.87595" lon="8.48644">
        <ele>1775</ele>
        <time>2021-08-11T12:33:33.479Z</time>
      </trkpt>
      <trkpt lat="46.87594" lon="8.48643">
        <ele>1775</ele>
        <time>2021-08-11T12:33:34.479Z</time>
      </trkpt>
      <trkpt lat="46.87593" lon="8.48641">
        <ele>1775</ele>
        <time>2021-08-11T12:33:35.479Z</time>
      </trkpt>
      <trkpt lat="46.87593" lon="8.4864">
        <ele>1776</ele>
        <time>2021-08-11T12:33:36.479Z</time>
      </trkpt>
      <trkpt lat="46.87592" lon="8.48639">
        <ele>1776</ele>
        <time>2021-08-11T12:33:37.479Z</time>
      </trkpt>
      <trkpt lat="46.87592" lon="8.48638">
        <ele>1776</ele>
        <time>2021-08-11T12:33:38.479Z</time>
      </trkpt>
      <trkpt lat="46.87591" lon="8.48637">
        <ele>1777</ele>
        <time>2021-08-11T12:33:39.479Z</time>
      </trkpt>
      <trkpt lat="46.87591" lon="8.48637">
        <ele>1777</ele>
        <time>2021-08-11T12:33:40.480Z</time>
      </trkpt>
      <trkpt lat="46.87591" lon="8.48636">
        <ele>1777</ele>
        <time>2021-08-11T12:33:41.479Z</time>
      </trkpt>
      <trkpt lat="46.87591" lon="8.48634">
        <ele>1777</ele>
        <time>2021-08-11T12:33:42.479Z</time>
      </trkpt>
      <trkpt lat="46.87591" lon="8.48633">
        <ele>1777</ele>
        <time>2021-08-11T12:33:43.479Z</time>
      </trkpt>
      <trkpt lat="46.8759" lon="8.48632">
        <ele>1777</ele>
        <time>2021-08-11T12:33:44.479Z</time>
      </trkpt>
      <trkpt lat="46.8759" lon="8.48632">
        <ele>1777</ele>
        <time>2021-08-11T12:33:45.480Z</time>
      </trkpt>
      <trkpt lat="46.8759" lon="8.48631">
        <ele>1777</ele>
        <time>2021-08-11T12:33:46.479Z</time>
      </trkpt>
      <trkpt lat="46.87591" lon="8.4863">
        <ele>1777</ele>
        <time>2021-08-11T12:33:47.479Z</time>
      </trkpt>
      <trkpt lat="46.87591" lon="8.4863">
        <ele>1777</ele>
        <time>2021-08-11T12:33:48.479Z</time>
      </trkpt>
      <trkpt lat="46.87591" lon="8.48628">
        <ele>1777</ele>
        <time>2021-08-11T12:33:49.479Z</time>
      </trkpt>
      <trkpt lat="46.8759" lon="8.48628">
        <ele>1778</ele>
        <time>2021-08-11T12:33:50.479Z</time>
      </trkpt>
      <trkpt lat="46.87591" lon="8.48627">
        <ele>1778</ele>
        <time>2021-08-11T12:33:51.479Z</time>
      </trkpt>
      <trkpt lat="46.87591" lon="8.48626">
        <ele>1778</ele>
        <time>2021-08-11T12:33:52.479Z</time>
      </trkpt>
      <trkpt lat="46.8759" lon="8.48625">
        <ele>1778</ele>
        <time>2021-08-11T12:33:53.479Z</time>
      </trkpt>
      <trkpt lat="46.87591" lon="8.48625">
        <ele>1778</ele>
        <time>2021-08-11T12:33:54.480Z</time>
      </trkpt>
      <trkpt lat="46.87591" lon="8.48624">
        <ele>1778</ele>
        <time>2021-08-11T12:33:55.479Z</time>
      </trkpt>
      <trkpt lat="46.87591" lon="8.48623">
        <ele>1778</ele>
        <time>2021-08-11T12:33:56.480Z</time>
      </trkpt>
      <trkpt lat="46.87591" lon="8.48622">
        <ele>1778</ele>
        <time>2021-08-11T12:33:57.479Z</time>
      </trkpt>
      <trkpt lat="46.87591" lon="8.48621">
        <ele>1778</ele>
        <time>2021-08-11T12:33:58.479Z</time>
      </trkpt>
      <trkpt lat="46.87591" lon="8.48619">
        <ele>1778</ele>
        <time>2021-08-11T12:33:59.479Z</time>
      </trkpt>
      <trkpt lat="46.8759" lon="8.48617">
        <ele>1778</ele>
        <time>2021-08-11T12:34:00.479Z</time>
      </trkpt>
      <trkpt lat="46.8759" lon="8.48615">
        <ele>1778</ele>
        <time>2021-08-11T12:34:01.479Z</time>
      </trkpt>
      <trkpt lat="46.87589" lon="8.48613">
        <ele>1778</ele>
        <time>2021-08-11T12:34:02.479Z</time>
      </trkpt>
      <trkpt lat="46.87589" lon="8.48612">
        <ele>1778</ele>
        <time>2021-08-11T12:34:03.479Z</time>
      </trkpt>
      <trkpt lat="46.87588" lon="8.4861">
        <ele>1778</ele>
        <time>2021-08-11T12:34:04.480Z</time>
      </trkpt>
      <trkpt lat="46.87587" lon="8.48607">
        <ele>1779</ele>
        <time>2021-08-11T12:34:05.479Z</time>
      </trkpt>
      <trkpt lat="46.87586" lon="8.48605">
        <ele>1779</ele>
        <time>2021-08-11T12:34:06.479Z</time>
      </trkpt>
      <trkpt lat="46.87585" lon="8.48603">
        <ele>1779</ele>
        <time>2021-08-11T12:34:07.479Z</time>
      </trkpt>
      <trkpt lat="46.87585" lon="8.48601">
        <ele>1779</ele>
        <time>2021-08-11T12:34:08.479Z</time>
      </trkpt>
      <trkpt lat="46.87584" lon="8.48599">
        <ele>1779</ele>
        <time>2021-08-11T12:34:09.479Z</time>
      </trkpt>
      <trkpt lat="46.87583" lon="8.48598">
        <ele>1779</ele>
        <time>2021-08-11T12:34:10.479Z</time>
      </trkpt>
      <trkpt lat="46.87583" lon="8.48597">
        <ele>1779</ele>
        <time>2021-08-11T12:34:11.479Z</time>
      </trkpt>
      <trkpt lat="46.87582" lon="8.48596">
        <ele>1779</ele>
        <time>2021-08-11T12:34:12.479Z</time>
      </trkpt>
      <trkpt lat="46.87581" lon="8.48595">
        <ele>1779</ele>
        <time>2021-08-11T12:34:13.479Z</time>
      </trkpt>
      <trkpt lat="46.87581" lon="8.48593">
        <ele>1779</ele>
        <time>2021-08-11T12:34:14.479Z</time>
      </trkpt>
      <trkpt lat="46.87581" lon="8.48591">
        <ele>1779</ele>
        <time>2021-08-11T12:34:15.479Z</time>
      </trkpt>
      <trkpt lat="46.8758" lon="8.4859">
        <ele>1779</ele>
        <time>2021-08-11T12:34:16.479Z</time>
      </trkpt>
      <trkpt lat="46.8758" lon="8.48588">
        <ele>1779</ele>
        <time>2021-08-11T12:34:17.479Z</time>
      </trkpt>
      <trkpt lat="46.87579" lon="8.48587">
        <ele>1779</ele>
        <time>2021-08-11T12:34:18.479Z</time>
      </trkpt>
      <trkpt lat="46.87577" lon="8.48585">
        <ele>1779</ele>
        <time>2021-08-11T12:34:19.479Z</time>
      </trkpt>
      <trkpt lat="46.87576" lon="8.48584">
        <ele>1778</ele>
        <time>2021-08-11T12:34:20.479Z</time>
      </trkpt>
      <trkpt lat="46.87574" lon="8.48583">
        <ele>1778</ele>
        <time>2021-08-11T12:34:21.479Z</time>
      </trkpt>
      <trkpt lat="46.87573" lon="8.48581">
        <ele>1778</ele>
        <time>2021-08-11T12:34:22.479Z</time>
      </trkpt>
      <trkpt lat="46.87572" lon="8.4858">
        <ele>1778</ele>
        <time>2021-08-11T12:34:23.480Z</time>
      </trkpt>
      <trkpt lat="46.87572" lon="8.48579">
        <ele>1778</ele>
        <time>2021-08-11T12:34:24.479Z</time>
      </trkpt>
      <trkpt lat="46.87571" lon="8.48578">
        <ele>1777</ele>
        <time>2021-08-11T12:34:25.480Z</time>
      </trkpt>
      <trkpt lat="46.87571" lon="8.48577">
        <ele>1777</ele>
        <time>2021-08-11T12:34:26.480Z</time>
      </trkpt>
      <trkpt lat="46.87572" lon="8.48576">
        <ele>1777</ele>
        <time>2021-08-11T12:34:27.479Z</time>
      </trkpt>
      <trkpt lat="46.87572" lon="8.48576">
        <ele>1777</ele>
        <time>2021-08-11T12:34:28.479Z</time>
      </trkpt>
      <trkpt lat="46.87572" lon="8.48574">
        <ele>1777</ele>
        <time>2021-08-11T12:34:29.479Z</time>
      </trkpt>
      <trkpt lat="46.87572" lon="8.48573">
        <ele>1777</ele>
        <time>2021-08-11T12:34:30.479Z</time>
      </trkpt>
      <trkpt lat="46.87572" lon="8.48571">
        <ele>1777</ele>
        <time>2021-08-11T12:34:31.479Z</time>
      </trkpt>
      <trkpt lat="46.87572" lon="8.4857">
        <ele>1777</ele>
        <time>2021-08-11T12:34:32.480Z</time>
      </trkpt>
      <trkpt lat="46.87571" lon="8.48568">
        <ele>1777</ele>
        <time>2021-08-11T12:34:33.479Z</time>
      </trkpt>
      <trkpt lat="46.87571" lon="8.48566">
        <ele>1777</ele>
        <time>2021-08-11T12:34:34.479Z</time>
      </trkpt>
      <trkpt lat="46.87569" lon="8.48565">
        <ele>1777</ele>
        <time>2021-08-11T12:34:35.479Z</time>
      </trkpt>
      <trkpt lat="46.87569" lon="8.48564">
        <ele>1777</ele>
        <time>2021-08-11T12:34:36.479Z</time>
      </trkpt>
      <trkpt lat="46.87569" lon="8.48563">
        <ele>1777</ele>
        <time>2021-08-11T12:34:37.479Z</time>
      </trkpt>
      <trkpt lat="46.87568" lon="8.48561">
        <ele>1777</ele>
        <time>2021-08-11T12:34:38.479Z</time>
      </trkpt>
      <trkpt lat="46.87567" lon="8.48559">
        <ele>1777</ele>
        <time>2021-08-11T12:34:39.480Z</time>
      </trkpt>
      <trkpt lat="46.87564" lon="8.48556">
        <ele>1777</ele>
        <time>2021-08-11T12:34:40.479Z</time>
      </trkpt>
      <trkpt lat="46.87561" lon="8.48552">
        <ele>1777</ele>
        <time>2021-08-11T12:34:41.479Z</time>
      </trkpt>
      <trkpt lat="46.87558" lon="8.4855">
        <ele>1777</ele>
        <time>2021-08-11T12:34:42.479Z</time>
      </trkpt>
      <trkpt lat="46.87557" lon="8.48547">
        <ele>1777</ele>
        <time>2021-08-11T12:34:43.479Z</time>
      </trkpt>
      <trkpt lat="46.87555" lon="8.48546">
        <ele>1777</ele>
        <time>2021-08-11T12:34:44.479Z</time>
      </trkpt>
      <trkpt lat="46.87554" lon="8.48544">
        <ele>1777</ele>
        <time>2021-08-11T12:34:45.479Z</time>
      </trkpt>
      <trkpt lat="46.87553" lon="8.48542">
        <ele>1777</ele>
        <time>2021-08-11T12:34:46.479Z</time>
      </trkpt>
      <trkpt lat="46.87552" lon="8.4854">
        <ele>1777</ele>
        <time>2021-08-11T12:34:47.479Z</time>
      </trkpt>
      <trkpt lat="46.87552" lon="8.48539">
        <ele>1777</ele>
        <time>2021-08-11T12:34:48.479Z</time>
      </trkpt>
      <trkpt lat="46.87552" lon="8.48538">
        <ele>1777</ele>
        <time>2021-08-11T12:34:49.480Z</time>
      </trkpt>
      <trkpt lat="46.87552" lon="8.48536">
        <ele>1778</ele>
        <time>2021-08-11T12:34:50.479Z</time>
      </trkpt>
      <trkpt lat="46.87552" lon="8.48535">
        <ele>1778</ele>
        <time>2021-08-11T12:34:51.479Z</time>
      </trkpt>
      <trkpt lat="46.87551" lon="8.48533">
        <ele>1778</ele>
        <time>2021-08-11T12:34:52.480Z</time>
      </trkpt>
      <trkpt lat="46.87551" lon="8.48532">
        <ele>1778</ele>
        <time>2021-08-11T12:34:53.479Z</time>
      </trkpt>
      <trkpt lat="46.87552" lon="8.4853">
        <ele>1778</ele>
        <time>2021-08-11T12:34:54.479Z</time>
      </trkpt>
      <trkpt lat="46.87552" lon="8.48529">
        <ele>1778</ele>
        <time>2021-08-11T12:34:55.479Z</time>
      </trkpt>
      <trkpt lat="46.87553" lon="8.48528">
        <ele>1778</ele>
        <time>2021-08-11T12:34:56.479Z</time>
      </trkpt>
      <trkpt lat="46.87553" lon="8.48527">
        <ele>1777</ele>
        <time>2021-08-11T12:34:57.479Z</time>
      </trkpt>
      <trkpt lat="46.87554" lon="8.48526">
        <ele>1777</ele>
        <time>2021-08-11T12:34:58.479Z</time>
      </trkpt>
      <trkpt lat="46.87555" lon="8.48525">
        <ele>1777</ele>
        <time>2021-08-11T12:34:59.479Z</time>
      </trkpt>
      <trkpt lat="46.87555" lon="8.48523">
        <ele>1777</ele>
        <time>2021-08-11T12:35:00.479Z</time>
      </trkpt>
      <trkpt lat="46.87555" lon="8.48522">
        <ele>1777</ele>
        <time>2021-08-11T12:35:01.479Z</time>
      </trkpt>
      <trkpt lat="46.87555" lon="8.4852">
        <ele>1777</ele>
        <time>2021-08-11T12:35:02.479Z</time>
      </trkpt>
      <trkpt lat="46.87555" lon="8.48519">
        <ele>1777</ele>
        <time>2021-08-11T12:35:03.479Z</time>
      </trkpt>
      <trkpt lat="46.87555" lon="8.48517">
        <ele>1777</ele>
        <time>2021-08-11T12:35:04.479Z</time>
      </trkpt>
      <trkpt lat="46.87556" lon="8.48517">
        <ele>1776</ele>
        <time>2021-08-11T12:35:05.479Z</time>
      </trkpt>
      <trkpt lat="46.87557" lon="8.48516">
        <ele>1776</ele>
        <time>2021-08-11T12:35:06.480Z</time>
      </trkpt>
      <trkpt lat="46.87559" lon="8.48515">
        <ele>1776</ele>
        <time>2021-08-11T12:35:07.479Z</time>
      </trkpt>
      <trkpt lat="46.87561" lon="8.48513">
        <ele>1776</ele>
        <time>2021-08-11T12:35:08.480Z</time>
      </trkpt>
      <trkpt lat="46.87561" lon="8.48512">
        <ele>1776</ele>
        <time>2021-08-11T12:35:09.479Z</time>
      </trkpt>
      <trkpt lat="46.87562" lon="8.48511">
        <ele>1776</ele>
        <time>2021-08-11T12:35:10.479Z</time>
      </trkpt>
      <trkpt lat="46.87563" lon="8.48509">
        <ele>1776</ele>
        <time>2021-08-11T12:35:11.479Z</time>
      </trkpt>
      <trkpt lat="46.87565" lon="8.48508">
        <ele>1776</ele>
        <time>2021-08-11T12:35:12.480Z</time>
      </trkpt>
      <trkpt lat="46.87566" lon="8.48508">
        <ele>1776</ele>
        <time>2021-08-11T12:35:13.479Z</time>
      </trkpt>
      <trkpt lat="46.87568" lon="8.48507">
        <ele>1776</ele>
        <time>2021-08-11T12:35:14.479Z</time>
      </trkpt>
      <trkpt lat="46.87569" lon="8.48506">
        <ele>1776</ele>
        <time>2021-08-11T12:35:15.479Z</time>
      </trkpt>
      <trkpt lat="46.87571" lon="8.48505">
        <ele>1775</ele>
        <time>2021-08-11T12:35:28.475Z</time>
      </trkpt>
      <trkpt lat="46.87572" lon="8.48503">
        <ele>1775</ele>
        <time>2021-08-11T12:35:29.475Z</time>
      </trkpt>
      <trkpt lat="46.87572" lon="8.48501">
        <ele>1775</ele>
        <time>2021-08-11T12:35:30.476Z</time>
      </trkpt>
      <trkpt lat="46.87572" lon="8.48499">
        <ele>1775</ele>
        <time>2021-08-11T12:35:31.476Z</time>
      </trkpt>
      <trkpt lat="46.87571" lon="8.48497">
        <ele>1775</ele>
        <time>2021-08-11T12:35:32.475Z</time>
      </trkpt>
      <trkpt lat="46.87571" lon="8.48496">
        <ele>1775</ele>
        <time>2021-08-11T12:35:33.475Z</time>
      </trkpt>
      <trkpt lat="46.87571" lon="8.48495">
        <ele>1775</ele>
        <time>2021-08-11T12:35:34.476Z</time>
      </trkpt>
      <trkpt lat="46.8757" lon="8.48493">
        <ele>1775</ele>
        <time>2021-08-11T12:35:35.475Z</time>
      </trkpt>
      <trkpt lat="46.87571" lon="8.48492">
        <ele>1775</ele>
        <time>2021-08-11T12:35:36.475Z</time>
      </trkpt>
      <trkpt lat="46.87571" lon="8.4849">
        <ele>1775</ele>
        <time>2021-08-11T12:35:37.475Z</time>
      </trkpt>
      <trkpt lat="46.8757" lon="8.48489">
        <ele>1775</ele>
        <time>2021-08-11T12:35:38.475Z</time>
      </trkpt>
      <trkpt lat="46.87569" lon="8.48489">
        <ele>1775</ele>
        <time>2021-08-11T12:35:39.475Z</time>
      </trkpt>
      <trkpt lat="46.87567" lon="8.48488">
        <ele>1774</ele>
        <time>2021-08-11T12:35:40.475Z</time>
      </trkpt>
      <trkpt lat="46.87565" lon="8.48486">
        <ele>1774</ele>
        <time>2021-08-11T12:35:41.475Z</time>
      </trkpt>
      <trkpt lat="46.87563" lon="8.48485">
        <ele>1774</ele>
        <time>2021-08-11T12:35:42.475Z</time>
      </trkpt>
      <trkpt lat="46.87563" lon="8.48484">
        <ele>1774</ele>
        <time>2021-08-11T12:35:43.475Z</time>
      </trkpt>
      <trkpt lat="46.87564" lon="8.48482">
        <ele>1774</ele>
        <time>2021-08-11T12:35:44.475Z</time>
      </trkpt>
      <trkpt lat="46.87565" lon="8.48482">
        <ele>1774</ele>
        <time>2021-08-11T12:35:45.475Z</time>
      </trkpt>
      <trkpt lat="46.87567" lon="8.48482">
        <ele>1774</ele>
        <time>2021-08-11T12:35:46.475Z</time>
      </trkpt>
      <trkpt lat="46.8757" lon="8.48481">
        <ele>1774</ele>
        <time>2021-08-11T12:35:47.476Z</time>
      </trkpt>
      <trkpt lat="46.87571" lon="8.4848">
        <ele>1774</ele>
        <time>2021-08-11T12:35:48.475Z</time>
      </trkpt>
      <trkpt lat="46.87573" lon="8.48479">
        <ele>1774</ele>
        <time>2021-08-11T12:35:49.475Z</time>
      </trkpt>
      <trkpt lat="46.87574" lon="8.48477">
        <ele>1774</ele>
        <time>2021-08-11T12:35:50.475Z</time>
      </trkpt>
      <trkpt lat="46.87575" lon="8.48475">
        <ele>1774</ele>
        <time>2021-08-11T12:35:51.475Z</time>
      </trkpt>
      <trkpt lat="46.87575" lon="8.48473">
        <ele>1774</ele>
        <time>2021-08-11T12:35:52.475Z</time>
      </trkpt>
      <trkpt lat="46.87575" lon="8.48472">
        <ele>1773</ele>
        <time>2021-08-11T12:35:53.475Z</time>
      </trkpt>
      <trkpt lat="46.87576" lon="8.48472">
        <ele>1773</ele>
        <time>2021-08-11T12:35:54.476Z</time>
      </trkpt>
      <trkpt lat="46.87577" lon="8.4847">
        <ele>1773</ele>
        <time>2021-08-11T12:35:55.475Z</time>
      </trkpt>
      <trkpt lat="46.87579" lon="8.4847">
        <ele>1773</ele>
        <time>2021-08-11T12:35:56.475Z</time>
      </trkpt>
      <trkpt lat="46.87579" lon="8.48469">
        <ele>1773</ele>
        <time>2021-08-11T12:35:57.476Z</time>
      </trkpt>
      <trkpt lat="46.87579" lon="8.48468">
        <ele>1773</ele>
        <time>2021-08-11T12:35:58.476Z</time>
      </trkpt>
      <trkpt lat="46.87579" lon="8.48467">
        <ele>1773</ele>
        <time>2021-08-11T12:35:59.475Z</time>
      </trkpt>
      <trkpt lat="46.87578" lon="8.48466">
        <ele>1773</ele>
        <time>2021-08-11T12:36:00.475Z</time>
      </trkpt>
      <trkpt lat="46.87578" lon="8.48464">
        <ele>1773</ele>
        <time>2021-08-11T12:36:01.475Z</time>
      </trkpt>
      <trkpt lat="46.87576" lon="8.48463">
        <ele>1773</ele>
        <time>2021-08-11T12:36:10.491Z</time>
      </trkpt>
      <trkpt lat="46.87577" lon="8.48461">
        <ele>1773</ele>
        <time>2021-08-11T12:36:11.492Z</time>
      </trkpt>
      <trkpt lat="46.87576" lon="8.4846">
        <ele>1773</ele>
        <time>2021-08-11T12:36:21.242Z</time>
      </trkpt>
      <trkpt lat="46.87577" lon="8.48459">
        <ele>1773</ele>
        <time>2021-08-11T12:36:28.108Z</time>
      </trkpt>
      <trkpt lat="46.87576" lon="8.48458">
        <ele>1773</ele>
        <time>2021-08-11T12:36:29.108Z</time>
      </trkpt>
      <trkpt lat="46.87576" lon="8.48456">
        <ele>1773</ele>
        <time>2021-08-11T12:36:30.108Z</time>
      </trkpt>
      <trkpt lat="46.87575" lon="8.48454">
        <ele>1773</ele>
        <time>2021-08-11T12:36:31.108Z</time>
      </trkpt>
      <trkpt lat="46.87577" lon="8.48453">
        <ele>1773</ele>
        <time>2021-08-11T12:36:32.108Z</time>
      </trkpt>
      <trkpt lat="46.87578" lon="8.48451">
        <ele>1773</ele>
        <time>2021-08-11T12:36:33.109Z</time>
      </trkpt>
      <trkpt lat="46.87579" lon="8.48451">
        <ele>1773</ele>
        <time>2021-08-11T12:36:34.108Z</time>
      </trkpt>
      <trkpt lat="46.8758" lon="8.4845">
        <ele>1774</ele>
        <time>2021-08-11T12:36:35.109Z</time>
      </trkpt>
      <trkpt lat="46.87578" lon="8.48449">
        <ele>1774</ele>
        <time>2021-08-11T12:36:36.108Z</time>
      </trkpt>
      <trkpt lat="46.87576" lon="8.48447">
        <ele>1774</ele>
        <time>2021-08-11T12:36:37.108Z</time>
      </trkpt>
      <trkpt lat="46.87576" lon="8.48445">
        <ele>1774</ele>
        <time>2021-08-11T12:36:38.108Z</time>
      </trkpt>
      <trkpt lat="46.87575" lon="8.48444">
        <ele>1774</ele>
        <time>2021-08-11T12:36:39.109Z</time>
      </trkpt>
      <trkpt lat="46.87574" lon="8.48442">
        <ele>1774</ele>
        <time>2021-08-11T12:36:40.108Z</time>
      </trkpt>
      <trkpt lat="46.87574" lon="8.4844">
        <ele>1775</ele>
        <time>2021-08-11T12:36:41.108Z</time>
      </trkpt>
      <trkpt lat="46.87575" lon="8.4844">
        <ele>1775</ele>
        <time>2021-08-11T12:36:42.108Z</time>
      </trkpt>
      <trkpt lat="46.87577" lon="8.4844">
        <ele>1775</ele>
        <time>2021-08-11T12:36:43.108Z</time>
      </trkpt>
      <trkpt lat="46.87578" lon="8.4844">
        <ele>1775</ele>
        <time>2021-08-11T12:36:44.108Z</time>
      </trkpt>
      <trkpt lat="46.87579" lon="8.4844">
        <ele>1775</ele>
        <time>2021-08-11T12:36:45.108Z</time>
      </trkpt>
      <trkpt lat="46.87579" lon="8.4844">
        <ele>1775</ele>
        <time>2021-08-11T12:36:46.108Z</time>
      </trkpt>
      <trkpt lat="46.87578" lon="8.48439">
        <ele>1775</ele>
        <time>2021-08-11T12:36:47.108Z</time>
      </trkpt>
      <trkpt lat="46.87576" lon="8.48438">
        <ele>1775</ele>
        <time>2021-08-11T12:36:48.108Z</time>
      </trkpt>
      <trkpt lat="46.87576" lon="8.48437">
        <ele>1775</ele>
        <time>2021-08-11T12:36:49.108Z</time>
      </trkpt>
      <trkpt lat="46.87575" lon="8.48436">
        <ele>1775</ele>
        <time>2021-08-11T12:36:50.108Z</time>
      </trkpt>
      <trkpt lat="46.87571" lon="8.48434">
        <ele>1774</ele>
        <time>2021-08-11T12:36:51.108Z</time>
      </trkpt>
      <trkpt lat="46.87568" lon="8.48432">
        <ele>1774</ele>
        <time>2021-08-11T12:36:52.108Z</time>
      </trkpt>
      <trkpt lat="46.87565" lon="8.48429">
        <ele>1774</ele>
        <time>2021-08-11T12:36:53.108Z</time>
      </trkpt>
      <trkpt lat="46.87564" lon="8.48428">
        <ele>1774</ele>
        <time>2021-08-11T12:36:54.108Z</time>
      </trkpt>
      <trkpt lat="46.87561" lon="8.48424">
        <ele>1774</ele>
        <time>2021-08-11T12:36:55.108Z</time>
      </trkpt>
      <trkpt lat="46.87561" lon="8.48423">
        <ele>1774</ele>
        <time>2021-08-11T12:36:56.108Z</time>
      </trkpt>
      <trkpt lat="46.87561" lon="8.48422">
        <ele>1774</ele>
        <time>2021-08-11T12:36:57.108Z</time>
      </trkpt>
      <trkpt lat="46.87564" lon="8.48422">
        <ele>1774</ele>
        <time>2021-08-11T12:36:58.108Z</time>
      </trkpt>
      <trkpt lat="46.87566" lon="8.48422">
        <ele>1774</ele>
        <time>2021-08-11T12:36:59.108Z</time>
      </trkpt>
      <trkpt lat="46.87571" lon="8.48421">
        <ele>1774</ele>
        <time>2021-08-11T12:37:00.108Z</time>
      </trkpt>
      <trkpt lat="46.87571" lon="8.4842">
        <ele>1773</ele>
        <time>2021-08-11T12:37:01.108Z</time>
      </trkpt>
      <trkpt lat="46.87572" lon="8.48419">
        <ele>1773</ele>
        <time>2021-08-11T12:37:02.108Z</time>
      </trkpt>
      <trkpt lat="46.87572" lon="8.48418">
        <ele>1774</ele>
        <time>2021-08-11T12:37:03.108Z</time>
      </trkpt>
      <trkpt lat="46.87573" lon="8.48417">
        <ele>1774</ele>
        <time>2021-08-11T12:37:04.108Z</time>
      </trkpt>
      <trkpt lat="46.87574" lon="8.48416">
        <ele>1774</ele>
        <time>2021-08-11T12:37:05.108Z</time>
      </trkpt>
      <trkpt lat="46.87576" lon="8.48415">
        <ele>1774</ele>
        <time>2021-08-11T12:37:06.108Z</time>
      </trkpt>
      <trkpt lat="46.87578" lon="8.48414">
        <ele>1774</ele>
        <time>2021-08-11T12:37:07.108Z</time>
      </trkpt>
      <trkpt lat="46.87579" lon="8.48413">
        <ele>1773</ele>
        <time>2021-08-11T12:37:08.108Z</time>
      </trkpt>
      <trkpt lat="46.8758" lon="8.48412">
        <ele>1773</ele>
        <time>2021-08-11T12:37:09.108Z</time>
      </trkpt>
      <trkpt lat="46.87581" lon="8.48411">
        <ele>1773</ele>
        <time>2021-08-11T12:37:10.109Z</time>
      </trkpt>
      <trkpt lat="46.87582" lon="8.4841">
        <ele>1773</ele>
        <time>2021-08-11T12:37:11.108Z</time>
      </trkpt>
      <trkpt lat="46.87583" lon="8.48409">
        <ele>1773</ele>
        <time>2021-08-11T12:37:12.108Z</time>
      </trkpt>
      <trkpt lat="46.87585" lon="8.48408">
        <ele>1773</ele>
        <time>2021-08-11T12:37:17.250Z</time>
      </trkpt>
      <trkpt lat="46.87587" lon="8.48406">
        <ele>1773</ele>
        <time>2021-08-11T12:37:18.250Z</time>
      </trkpt>
      <trkpt lat="46.87587" lon="8.48405">
        <ele>1773</ele>
        <time>2021-08-11T12:37:23.104Z</time>
      </trkpt>
      <trkpt lat="46.87588" lon="8.48404">
        <ele>1774</ele>
        <time>2021-08-11T12:37:24.104Z</time>
      </trkpt>
      <trkpt lat="46.87591" lon="8.48403">
        <ele>1774</ele>
        <time>2021-08-11T12:37:25.104Z</time>
      </trkpt>
      <trkpt lat="46.87593" lon="8.48403">
        <ele>1774</ele>
        <time>2021-08-11T12:37:53.852Z</time>
      </trkpt>
      <trkpt lat="46.87593" lon="8.48404">
        <ele>1774</ele>
        <time>2021-08-11T12:37:56.634Z</time>
      </trkpt>
      <trkpt lat="46.87594" lon="8.48403">
        <ele>1774</ele>
        <time>2021-08-11T12:37:57.635Z</time>
      </trkpt>
      <trkpt lat="46.87594" lon="8.48402">
        <ele>1774</ele>
        <time>2021-08-11T12:38:01.494Z</time>
      </trkpt>
      <trkpt lat="46.87594" lon="8.484">
        <ele>1774</ele>
        <time>2021-08-11T12:38:02.493Z</time>
      </trkpt>
      <trkpt lat="46.87595" lon="8.48397">
        <ele>1774</ele>
        <time>2021-08-11T12:38:03.493Z</time>
      </trkpt>
      <trkpt lat="46.87596" lon="8.48396">
        <ele>1774</ele>
        <time>2021-08-11T12:38:04.493Z</time>
      </trkpt>
      <trkpt lat="46.87598" lon="8.48395">
        <ele>1774</ele>
        <time>2021-08-11T12:38:05.493Z</time>
      </trkpt>
      <trkpt lat="46.876" lon="8.48394">
        <ele>1775</ele>
        <time>2021-08-11T12:38:06.493Z</time>
      </trkpt>
      <trkpt lat="46.87602" lon="8.48393">
        <ele>1775</ele>
        <time>2021-08-11T12:38:07.493Z</time>
      </trkpt>
      <trkpt lat="46.87604" lon="8.48393">
        <ele>1775</ele>
        <time>2021-08-11T12:38:08.493Z</time>
      </trkpt>
      <trkpt lat="46.87606" lon="8.48392">
        <ele>1776</ele>
        <time>2021-08-11T12:38:09.493Z</time>
      </trkpt>
      <trkpt lat="46.87607" lon="8.4839">
        <ele>1776</ele>
        <time>2021-08-11T12:38:10.493Z</time>
      </trkpt>
      <trkpt lat="46.87607" lon="8.48388">
        <ele>1776</ele>
        <time>2021-08-11T12:38:11.493Z</time>
      </trkpt>
      <trkpt lat="46.87607" lon="8.48386">
        <ele>1776</ele>
        <time>2021-08-11T12:38:12.493Z</time>
      </trkpt>
      <trkpt lat="46.87608" lon="8.48385">
        <ele>1776</ele>
        <time>2021-08-11T12:38:13.493Z</time>
      </trkpt>
      <trkpt lat="46.87609" lon="8.48384">
        <ele>1776</ele>
        <time>2021-08-11T12:38:14.494Z</time>
      </trkpt>
      <trkpt lat="46.87609" lon="8.48383">
        <ele>1776</ele>
        <time>2021-08-11T12:38:15.493Z</time>
      </trkpt>
      <trkpt lat="46.8761" lon="8.48382">
        <ele>1776</ele>
        <time>2021-08-11T12:38:16.493Z</time>
      </trkpt>
      <trkpt lat="46.87611" lon="8.48382">
        <ele>1776</ele>
        <time>2021-08-11T12:38:17.493Z</time>
      </trkpt>
      <trkpt lat="46.87612" lon="8.48381">
        <ele>1776</ele>
        <time>2021-08-11T12:38:18.494Z</time>
      </trkpt>
      <trkpt lat="46.87613" lon="8.4838">
        <ele>1776</ele>
        <time>2021-08-11T12:38:19.493Z</time>
      </trkpt>
      <trkpt lat="46.87614" lon="8.48379">
        <ele>1776</ele>
        <time>2021-08-11T12:38:20.493Z</time>
      </trkpt>
      <trkpt lat="46.87616" lon="8.48378">
        <ele>1776</ele>
        <time>2021-08-11T12:38:21.493Z</time>
      </trkpt>
      <trkpt lat="46.87617" lon="8.48376">
        <ele>1777</ele>
        <time>2021-08-11T12:38:22.493Z</time>
      </trkpt>
      <trkpt lat="46.87617" lon="8.48375">
        <ele>1777</ele>
        <time>2021-08-11T12:38:23.493Z</time>
      </trkpt>
      <trkpt lat="46.87617" lon="8.48374">
        <ele>1777</ele>
        <time>2021-08-11T12:38:24.494Z</time>
      </trkpt>
      <trkpt lat="46.87616" lon="8.48373">
        <ele>1777</ele>
        <time>2021-08-11T12:38:25.493Z</time>
      </trkpt>
      <trkpt lat="46.87617" lon="8.48372">
        <ele>1778</ele>
        <time>2021-08-11T12:38:26.493Z</time>
      </trkpt>
      <trkpt lat="46.87617" lon="8.48371">
        <ele>1778</ele>
        <time>2021-08-11T12:38:27.493Z</time>
      </trkpt>
      <trkpt lat="46.87619" lon="8.4837">
        <ele>1778</ele>
        <time>2021-08-11T12:38:28.493Z</time>
      </trkpt>
      <trkpt lat="46.8762" lon="8.4837">
        <ele>1778</ele>
        <time>2021-08-11T12:38:29.493Z</time>
      </trkpt>
      <trkpt lat="46.87618" lon="8.48369">
        <ele>1779</ele>
        <time>2021-08-11T12:38:30.493Z</time>
      </trkpt>
      <trkpt lat="46.87618" lon="8.48367">
        <ele>1779</ele>
        <time>2021-08-11T12:38:31.494Z</time>
      </trkpt>
      <trkpt lat="46.8762" lon="8.48368">
        <ele>1779</ele>
        <time>2021-08-11T12:38:32.493Z</time>
      </trkpt>
      <trkpt lat="46.87621" lon="8.48368">
        <ele>1779</ele>
        <time>2021-08-11T12:38:35.518Z</time>
      </trkpt>
      <trkpt lat="46.87623" lon="8.48368">
        <ele>1779</ele>
        <time>2021-08-11T12:38:36.518Z</time>
      </trkpt>
      <trkpt lat="46.87624" lon="8.48368">
        <ele>1780</ele>
        <time>2021-08-11T12:38:37.519Z</time>
      </trkpt>
      <trkpt lat="46.87624" lon="8.48367">
        <ele>1780</ele>
        <time>2021-08-11T12:38:38.519Z</time>
      </trkpt>
      <trkpt lat="46.87624" lon="8.48366">
        <ele>1780</ele>
        <time>2021-08-11T12:38:39.518Z</time>
      </trkpt>
      <trkpt lat="46.87624" lon="8.48365">
        <ele>1781</ele>
        <time>2021-08-11T12:38:40.518Z</time>
      </trkpt>
      <trkpt lat="46.87626" lon="8.48365">
        <ele>1781</ele>
        <time>2021-08-11T12:38:41.518Z</time>
      </trkpt>
      <trkpt lat="46.87626" lon="8.48364">
        <ele>1781</ele>
        <time>2021-08-11T12:38:42.518Z</time>
      </trkpt>
      <trkpt lat="46.87627" lon="8.48363">
        <ele>1782</ele>
        <time>2021-08-11T12:38:43.518Z</time>
      </trkpt>
      <trkpt lat="46.87627" lon="8.48363">
        <ele>1782</ele>
        <time>2021-08-11T12:38:44.518Z</time>
      </trkpt>
      <trkpt lat="46.87627" lon="8.48362">
        <ele>1782</ele>
        <time>2021-08-11T12:38:45.518Z</time>
      </trkpt>
      <trkpt lat="46.87627" lon="8.48362">
        <ele>1782</ele>
        <time>2021-08-11T12:38:46.519Z</time>
      </trkpt>
      <trkpt lat="46.87627" lon="8.48361">
        <ele>1782</ele>
        <time>2021-08-11T12:38:47.519Z</time>
      </trkpt>
      <trkpt lat="46.87627" lon="8.4836">
        <ele>1782</ele>
        <time>2021-08-11T12:38:48.520Z</time>
      </trkpt>
      <trkpt lat="46.87629" lon="8.4836">
        <ele>1782</ele>
        <time>2021-08-11T12:38:49.520Z</time>
      </trkpt>
      <trkpt lat="46.8763" lon="8.48359">
        <ele>1782</ele>
        <time>2021-08-11T12:38:50.520Z</time>
      </trkpt>
      <trkpt lat="46.87631" lon="8.48358">
        <ele>1782</ele>
        <time>2021-08-11T12:38:51.520Z</time>
      </trkpt>
      <trkpt lat="46.87632" lon="8.48357">
        <ele>1782</ele>
        <time>2021-08-11T12:38:52.520Z</time>
      </trkpt>
      <trkpt lat="46.87633" lon="8.48356">
        <ele>1781</ele>
        <time>2021-08-11T12:38:53.520Z</time>
      </trkpt>
      <trkpt lat="46.87633" lon="8.48355">
        <ele>1781</ele>
        <time>2021-08-11T12:38:54.520Z</time>
      </trkpt>
      <trkpt lat="46.87633" lon="8.48354">
        <ele>1781</ele>
        <time>2021-08-11T12:38:55.519Z</time>
      </trkpt>
      <trkpt lat="46.87632" lon="8.48353">
        <ele>1781</ele>
        <time>2021-08-11T12:38:56.519Z</time>
      </trkpt>
      <trkpt lat="46.87632" lon="8.48352">
        <ele>1780</ele>
        <time>2021-08-11T12:38:57.520Z</time>
      </trkpt>
      <trkpt lat="46.87633" lon="8.48351">
        <ele>1780</ele>
        <time>2021-08-11T12:38:58.519Z</time>
      </trkpt>
      <trkpt lat="46.87632" lon="8.4835">
        <ele>1780</ele>
        <time>2021-08-11T12:38:59.520Z</time>
      </trkpt>
      <trkpt lat="46.87633" lon="8.48349">
        <ele>1780</ele>
        <time>2021-08-11T12:39:00.520Z</time>
      </trkpt>
      <trkpt lat="46.87633" lon="8.48348">
        <ele>1780</ele>
        <time>2021-08-11T12:39:01.520Z</time>
      </trkpt>
      <trkpt lat="46.87634" lon="8.48347">
        <ele>1780</ele>
        <time>2021-08-11T12:39:02.520Z</time>
      </trkpt>
      <trkpt lat="46.87635" lon="8.48347">
        <ele>1780</ele>
        <time>2021-08-11T12:39:03.520Z</time>
      </trkpt>
      <trkpt lat="46.87635" lon="8.48346">
        <ele>1780</ele>
        <time>2021-08-11T12:39:04.520Z</time>
      </trkpt>
      <trkpt lat="46.87635" lon="8.48345">
        <ele>1780</ele>
        <time>2021-08-11T12:39:05.520Z</time>
      </trkpt>
      <trkpt lat="46.87635" lon="8.48343">
        <ele>1780</ele>
        <time>2021-08-11T12:39:06.520Z</time>
      </trkpt>
      <trkpt lat="46.87635" lon="8.48342">
        <ele>1780</ele>
        <time>2021-08-11T12:39:07.519Z</time>
      </trkpt>
      <trkpt lat="46.87636" lon="8.48341">
        <ele>1780</ele>
        <time>2021-08-11T12:39:08.519Z</time>
      </trkpt>
      <trkpt lat="46.87636" lon="8.4834">
        <ele>1780</ele>
        <time>2021-08-11T12:39:09.520Z</time>
      </trkpt>
      <trkpt lat="46.87636" lon="8.48339">
        <ele>1780</ele>
        <time>2021-08-11T12:39:10.519Z</time>
      </trkpt>
      <trkpt lat="46.87636" lon="8.48338">
        <ele>1781</ele>
        <time>2021-08-11T12:39:11.519Z</time>
      </trkpt>
      <trkpt lat="46.87637" lon="8.48337">
        <ele>1781</ele>
        <time>2021-08-11T12:39:12.519Z</time>
      </trkpt>
      <trkpt lat="46.87638" lon="8.48335">
        <ele>1781</ele>
        <time>2021-08-11T12:39:13.520Z</time>
      </trkpt>
      <trkpt lat="46.87639" lon="8.48334">
        <ele>1781</ele>
        <time>2021-08-11T12:39:14.520Z</time>
      </trkpt>
      <trkpt lat="46.87639" lon="8.48333">
        <ele>1781</ele>
        <time>2021-08-11T12:39:15.520Z</time>
      </trkpt>
      <trkpt lat="46.87639" lon="8.48332">
        <ele>1781</ele>
        <time>2021-08-11T12:39:17.636Z</time>
      </trkpt>
      <trkpt lat="46.87639" lon="8.48331">
        <ele>1781</ele>
        <time>2021-08-11T12:39:18.636Z</time>
      </trkpt>
      <trkpt lat="46.87639" lon="8.4833">
        <ele>1781</ele>
        <time>2021-08-11T12:39:19.637Z</time>
      </trkpt>
      <trkpt lat="46.87639" lon="8.48329">
        <ele>1781</ele>
        <time>2021-08-11T12:39:20.637Z</time>
      </trkpt>
      <trkpt lat="46.8764" lon="8.48328">
        <ele>1781</ele>
        <time>2021-08-11T12:39:21.636Z</time>
      </trkpt>
      <trkpt lat="46.87641" lon="8.48327">
        <ele>1781</ele>
        <time>2021-08-11T12:39:22.637Z</time>
      </trkpt>
      <trkpt lat="46.87641" lon="8.48326">
        <ele>1782</ele>
        <time>2021-08-11T12:39:23.637Z</time>
      </trkpt>
      <trkpt lat="46.87643" lon="8.48325">
        <ele>1782</ele>
        <time>2021-08-11T12:39:24.637Z</time>
      </trkpt>
      <trkpt lat="46.87644" lon="8.48325">
        <ele>1782</ele>
        <time>2021-08-11T12:39:25.637Z</time>
      </trkpt>
      <trkpt lat="46.87645" lon="8.48324">
        <ele>1782</ele>
        <time>2021-08-11T12:39:26.637Z</time>
      </trkpt>
      <trkpt lat="46.87646" lon="8.48322">
        <ele>1782</ele>
        <time>2021-08-11T12:39:27.636Z</time>
      </trkpt>
      <trkpt lat="46.87648" lon="8.48321">
        <ele>1782</ele>
        <time>2021-08-11T12:39:28.636Z</time>
      </trkpt>
      <trkpt lat="46.8765" lon="8.4832">
        <ele>1783</ele>
        <time>2021-08-11T12:39:29.636Z</time>
      </trkpt>
      <trkpt lat="46.87651" lon="8.48319">
        <ele>1783</ele>
        <time>2021-08-11T12:39:30.637Z</time>
      </trkpt>
      <trkpt lat="46.87649" lon="8.48317">
        <ele>1783</ele>
        <time>2021-08-11T12:39:31.636Z</time>
      </trkpt>
      <trkpt lat="46.87647" lon="8.48316">
        <ele>1783</ele>
        <time>2021-08-11T12:39:32.636Z</time>
      </trkpt>
      <trkpt lat="46.87646" lon="8.48314">
        <ele>1783</ele>
        <time>2021-08-11T12:39:33.637Z</time>
      </trkpt>
      <trkpt lat="46.87647" lon="8.48312">
        <ele>1782</ele>
        <time>2021-08-11T12:39:34.636Z</time>
      </trkpt>
      <trkpt lat="46.87647" lon="8.48311">
        <ele>1782</ele>
        <time>2021-08-11T12:39:35.636Z</time>
      </trkpt>
      <trkpt lat="46.87647" lon="8.4831">
        <ele>1782</ele>
        <time>2021-08-11T12:39:36.636Z</time>
      </trkpt>
      <trkpt lat="46.87647" lon="8.48308">
        <ele>1782</ele>
        <time>2021-08-11T12:39:37.637Z</time>
      </trkpt>
      <trkpt lat="46.87648" lon="8.48307">
        <ele>1782</ele>
        <time>2021-08-11T12:39:38.637Z</time>
      </trkpt>
      <trkpt lat="46.87647" lon="8.48305">
        <ele>1782</ele>
        <time>2021-08-11T12:39:39.637Z</time>
      </trkpt>
      <trkpt lat="46.87647" lon="8.48303">
        <ele>1782</ele>
        <time>2021-08-11T12:39:40.637Z</time>
      </trkpt>
      <trkpt lat="46.87648" lon="8.48302">
        <ele>1782</ele>
        <time>2021-08-11T12:39:41.636Z</time>
      </trkpt>
      <trkpt lat="46.87649" lon="8.48302">
        <ele>1781</ele>
        <time>2021-08-11T12:39:42.636Z</time>
      </trkpt>
      <trkpt lat="46.8765" lon="8.48301">
        <ele>1781</ele>
        <time>2021-08-11T12:39:43.637Z</time>
      </trkpt>
      <trkpt lat="46.87652" lon="8.48301">
        <ele>1781</ele>
        <time>2021-08-11T12:39:44.637Z</time>
      </trkpt>
      <trkpt lat="46.87652" lon="8.483">
        <ele>1781</ele>
        <time>2021-08-11T12:39:45.636Z</time>
      </trkpt>
      <trkpt lat="46.87653" lon="8.48299">
        <ele>1781</ele>
        <time>2021-08-11T12:39:46.636Z</time>
      </trkpt>
      <trkpt lat="46.87653" lon="8.48299">
        <ele>1781</ele>
        <time>2021-08-11T12:39:47.636Z</time>
      </trkpt>
      <trkpt lat="46.87653" lon="8.48299">
        <ele>1781</ele>
        <time>2021-08-11T12:39:48.637Z</time>
      </trkpt>
      <trkpt lat="46.87654" lon="8.48299">
        <ele>1781</ele>
        <time>2021-08-11T12:39:49.637Z</time>
      </trkpt>
      <trkpt lat="46.87654" lon="8.48299">
        <ele>1782</ele>
        <time>2021-08-11T12:39:50.637Z</time>
      </trkpt>
      <trkpt lat="46.87654" lon="8.48299">
        <ele>1782</ele>
        <time>2021-08-11T12:39:51.637Z</time>
      </trkpt>
      <trkpt lat="46.87654" lon="8.48299">
        <ele>1784</ele>
        <time>2021-08-11T12:39:52.637Z</time>
      </trkpt>
      <trkpt lat="46.87654" lon="8.48299">
        <ele>1785</ele>
        <time>2021-08-11T12:39:53.636Z</time>
      </trkpt>
      <trkpt lat="46.87653" lon="8.48298">
        <ele>1785</ele>
        <time>2021-08-11T12:39:54.636Z</time>
      </trkpt>
      <trkpt lat="46.87653" lon="8.48297">
        <ele>1785</ele>
        <time>2021-08-11T12:39:55.636Z</time>
      </trkpt>
      <trkpt lat="46.87652" lon="8.48297">
        <ele>1785</ele>
        <time>2021-08-11T12:39:56.636Z</time>
      </trkpt>
      <trkpt lat="46.87651" lon="8.48296">
        <ele>1785</ele>
        <time>2021-08-11T12:39:57.636Z</time>
      </trkpt>
      <trkpt lat="46.87651" lon="8.48296">
        <ele>1785</ele>
        <time>2021-08-11T12:39:58.636Z</time>
      </trkpt>
      <trkpt lat="46.87651" lon="8.48296">
        <ele>1785</ele>
        <time>2021-08-11T12:39:59.636Z</time>
      </trkpt>
      <trkpt lat="46.87652" lon="8.48295">
        <ele>1786</ele>
        <time>2021-08-11T12:40:00.636Z</time>
      </trkpt>
      <trkpt lat="46.87652" lon="8.48295">
        <ele>1786</ele>
        <time>2021-08-11T12:40:01.637Z</time>
      </trkpt>
      <trkpt lat="46.87653" lon="8.48295">
        <ele>1786</ele>
        <time>2021-08-11T12:40:02.636Z</time>
      </trkpt>
      <trkpt lat="46.87651" lon="8.48297">
        <ele>1787</ele>
        <time>2021-08-11T12:40:03.636Z</time>
      </trkpt>
      <trkpt lat="46.87651" lon="8.48298">
        <ele>1786</ele>
        <time>2021-08-11T12:40:04.636Z</time>
      </trkpt>
      <trkpt lat="46.87651" lon="8.48298">
        <ele>1785</ele>
        <time>2021-08-11T12:40:05.636Z</time>
      </trkpt>
      <trkpt lat="46.87653" lon="8.48297">
        <ele>1785</ele>
        <time>2021-08-11T12:40:06.636Z</time>
      </trkpt>
      <trkpt lat="46.87653" lon="8.48298">
        <ele>1786</ele>
        <time>2021-08-11T12:40:07.636Z</time>
      </trkpt>
      <trkpt lat="46.87651" lon="8.48296">
        <ele>1785</ele>
        <time>2021-08-11T12:40:08.637Z</time>
      </trkpt>
      <trkpt lat="46.87651" lon="8.48296">
        <ele>1785</ele>
        <time>2021-08-11T12:40:09.636Z</time>
      </trkpt>
      <trkpt lat="46.87649" lon="8.48295">
        <ele>1785</ele>
        <time>2021-08-11T12:40:10.637Z</time>
      </trkpt>
      <trkpt lat="46.87649" lon="8.48295">
        <ele>1785</ele>
        <time>2021-08-11T12:40:11.637Z</time>
      </trkpt>
      <trkpt lat="46.87651" lon="8.48295">
        <ele>1785</ele>
        <time>2021-08-11T12:40:12.637Z</time>
      </trkpt>
      <trkpt lat="46.8765" lon="8.48295">
        <ele>1785</ele>
        <time>2021-08-11T12:40:13.637Z</time>
      </trkpt>
      <trkpt lat="46.87649" lon="8.48295">
        <ele>1785</ele>
        <time>2021-08-11T12:40:14.636Z</time>
      </trkpt>
      <trkpt lat="46.87649" lon="8.48295">
        <ele>1785</ele>
        <time>2021-08-11T12:40:15.637Z</time>
      </trkpt>
      <trkpt lat="46.87648" lon="8.48296">
        <ele>1784</ele>
        <time>2021-08-11T12:40:16.637Z</time>
      </trkpt>
      <trkpt lat="46.87649" lon="8.48296">
        <ele>1784</ele>
        <time>2021-08-11T12:40:17.638Z</time>
      </trkpt>
      <trkpt lat="46.87649" lon="8.48296">
        <ele>1784</ele>
        <time>2021-08-11T12:40:18.638Z</time>
      </trkpt>
      <trkpt lat="46.87647" lon="8.48296">
        <ele>1785</ele>
        <time>2021-08-11T12:40:19.638Z</time>
      </trkpt>
      <trkpt lat="46.87646" lon="8.48296">
        <ele>1785</ele>
        <time>2021-08-11T12:40:20.638Z</time>
      </trkpt>
      <trkpt lat="46.87646" lon="8.48296">
        <ele>1785</ele>
        <time>2021-08-11T12:40:21.638Z</time>
      </trkpt>
      <trkpt lat="46.87645" lon="8.48295">
        <ele>1785</ele>
        <time>2021-08-11T12:40:22.637Z</time>
      </trkpt>
      <trkpt lat="46.87645" lon="8.48296">
        <ele>1785</ele>
        <time>2021-08-11T12:40:23.637Z</time>
      </trkpt>
      <trkpt lat="46.87644" lon="8.48296">
        <ele>1785</ele>
        <time>2021-08-11T12:40:24.638Z</time>
      </trkpt>
      <trkpt lat="46.87645" lon="8.48297">
        <ele>1785</ele>
        <time>2021-08-11T12:40:25.638Z</time>
      </trkpt>
      <trkpt lat="46.87645" lon="8.48296">
        <ele>1785</ele>
        <time>2021-08-11T12:40:26.638Z</time>
      </trkpt>
      <trkpt lat="46.87645" lon="8.48296">
        <ele>1785</ele>
        <time>2021-08-11T12:40:27.638Z</time>
      </trkpt>
      <trkpt lat="46.87646" lon="8.48297">
        <ele>1785</ele>
        <time>2021-08-11T12:40:28.637Z</time>
      </trkpt>
      <trkpt lat="46.87644" lon="8.48296">
        <ele>1785</ele>
        <time>2021-08-11T12:40:29.638Z</time>
      </trkpt>
      <trkpt lat="46.87643" lon="8.48295">
        <ele>1785</ele>
        <time>2021-08-11T12:40:30.638Z</time>
      </trkpt>
      <trkpt lat="46.87649" lon="8.48299">
        <ele>1782</ele>
        <time>2021-08-11T12:40:31.639Z</time>
      </trkpt>
      <trkpt lat="46.87648" lon="8.483">
        <ele>1782</ele>
        <time>2021-08-11T12:40:32.638Z</time>
      </trkpt>
      <trkpt lat="46.87649" lon="8.48301">
        <ele>1781</ele>
        <time>2021-08-11T12:40:33.638Z</time>
      </trkpt>
      <trkpt lat="46.8765" lon="8.48299">
        <ele>1782</ele>
        <time>2021-08-11T12:40:34.639Z</time>
      </trkpt>
      <trkpt lat="46.8765" lon="8.48297">
        <ele>1783</ele>
        <time>2021-08-11T12:40:35.639Z</time>
      </trkpt>
      <trkpt lat="46.87649" lon="8.48297">
        <ele>1783</ele>
        <time>2021-08-11T12:40:36.638Z</time>
      </trkpt>
      <trkpt lat="46.87651" lon="8.48298">
        <ele>1785</ele>
        <time>2021-08-11T12:40:37.639Z</time>
      </trkpt>
      <trkpt lat="46.8765" lon="8.48299">
        <ele>1785</ele>
        <time>2021-08-11T12:40:38.638Z</time>
      </trkpt>
      <trkpt lat="46.8765" lon="8.48299">
        <ele>1785</ele>
        <time>2021-08-11T12:40:39.639Z</time>
      </trkpt>
      <trkpt lat="46.87649" lon="8.483">
        <ele>1785</ele>
        <time>2021-08-11T12:40:40.639Z</time>
      </trkpt>
      <trkpt lat="46.8765" lon="8.483">
        <ele>1786</ele>
        <time>2021-08-11T12:40:41.639Z</time>
      </trkpt>
      <trkpt lat="46.8765" lon="8.48301">
        <ele>1786</ele>
        <time>2021-08-11T12:40:42.638Z</time>
      </trkpt>
      <trkpt lat="46.87649" lon="8.483">
        <ele>1787</ele>
        <time>2021-08-11T12:40:43.640Z</time>
      </trkpt>
      <trkpt lat="46.8765" lon="8.483">
        <ele>1787</ele>
        <time>2021-08-11T12:40:44.639Z</time>
      </trkpt>
      <trkpt lat="46.8765" lon="8.483">
        <ele>1788</ele>
        <time>2021-08-11T12:40:45.639Z</time>
      </trkpt>
      <trkpt lat="46.87651" lon="8.483">
        <ele>1788</ele>
        <time>2021-08-11T12:40:46.639Z</time>
      </trkpt>
      <trkpt lat="46.87652" lon="8.48299">
        <ele>1788</ele>
        <time>2021-08-11T12:40:47.640Z</time>
      </trkpt>
      <trkpt lat="46.87652" lon="8.48298">
        <ele>1789</ele>
        <time>2021-08-11T12:40:48.640Z</time>
      </trkpt>
      <trkpt lat="46.87652" lon="8.48297">
        <ele>1789</ele>
        <time>2021-08-11T12:40:49.639Z</time>
      </trkpt>
      <trkpt lat="46.87652" lon="8.48297">
        <ele>1789</ele>
        <time>2021-08-11T12:40:50.640Z</time>
      </trkpt>
      <trkpt lat="46.87653" lon="8.48296">
        <ele>1789</ele>
        <time>2021-08-11T12:40:51.640Z</time>
      </trkpt>
      <trkpt lat="46.87653" lon="8.48296">
        <ele>1789</ele>
        <time>2021-08-11T12:40:52.639Z</time>
      </trkpt>
      <trkpt lat="46.87653" lon="8.48295">
        <ele>1790</ele>
        <time>2021-08-11T12:40:53.640Z</time>
      </trkpt>
      <trkpt lat="46.87652" lon="8.48294">
        <ele>1790</ele>
        <time>2021-08-11T12:40:54.639Z</time>
      </trkpt>
      <trkpt lat="46.87652" lon="8.48293">
        <ele>1789</ele>
        <time>2021-08-11T12:40:55.640Z</time>
      </trkpt>
      <trkpt lat="46.87652" lon="8.48293">
        <ele>1789</ele>
        <time>2021-08-11T12:40:56.640Z</time>
      </trkpt>
      <trkpt lat="46.87651" lon="8.4829">
        <ele>1792</ele>
        <time>2021-08-11T12:40:57.639Z</time>
      </trkpt>
      <trkpt lat="46.87651" lon="8.4829">
        <ele>1792</ele>
        <time>2021-08-11T12:40:58.640Z</time>
      </trkpt>
      <trkpt lat="46.87651" lon="8.4829">
        <ele>1792</ele>
        <time>2021-08-11T12:40:59.639Z</time>
      </trkpt>
      <trkpt lat="46.87655" lon="8.48292">
        <ele>1789</ele>
        <time>2021-08-11T12:41:00.641Z</time>
      </trkpt>
      <trkpt lat="46.87656" lon="8.48292">
        <ele>1789</ele>
        <time>2021-08-11T12:41:01.640Z</time>
      </trkpt>
      <trkpt lat="46.87657" lon="8.48292">
        <ele>1789</ele>
        <time>2021-08-11T12:41:02.640Z</time>
      </trkpt>
      <trkpt lat="46.87658" lon="8.48292">
        <ele>1788</ele>
        <time>2021-08-11T12:41:03.641Z</time>
      </trkpt>
      <trkpt lat="46.87659" lon="8.48291">
        <ele>1788</ele>
        <time>2021-08-11T12:41:04.641Z</time>
      </trkpt>
      <trkpt lat="46.8766" lon="8.4829">
        <ele>1788</ele>
        <time>2021-08-11T12:41:05.640Z</time>
      </trkpt>
      <trkpt lat="46.87661" lon="8.48289">
        <ele>1788</ele>
        <time>2021-08-11T12:41:06.641Z</time>
      </trkpt>
      <trkpt lat="46.87661" lon="8.48287">
        <ele>1787</ele>
        <time>2021-08-11T12:41:07.640Z</time>
      </trkpt>
      <trkpt lat="46.87661" lon="8.48286">
        <ele>1787</ele>
        <time>2021-08-11T12:41:08.640Z</time>
      </trkpt>
      <trkpt lat="46.87661" lon="8.48285">
        <ele>1787</ele>
        <time>2021-08-11T12:41:09.641Z</time>
      </trkpt>
      <trkpt lat="46.87662" lon="8.48284">
        <ele>1787</ele>
        <time>2021-08-11T12:41:10.641Z</time>
      </trkpt>
      <trkpt lat="46.87663" lon="8.48283">
        <ele>1787</ele>
        <time>2021-08-11T12:41:11.640Z</time>
      </trkpt>
      <trkpt lat="46.87665" lon="8.48282">
        <ele>1787</ele>
        <time>2021-08-11T12:41:12.641Z</time>
      </trkpt>
      <trkpt lat="46.87666" lon="8.48281">
        <ele>1787</ele>
        <time>2021-08-11T12:41:13.641Z</time>
      </trkpt>
      <trkpt lat="46.87667" lon="8.4828">
        <ele>1787</ele>
        <time>2021-08-11T12:41:14.640Z</time>
      </trkpt>
      <trkpt lat="46.87668" lon="8.4828">
        <ele>1786</ele>
        <time>2021-08-11T12:41:15.641Z</time>
      </trkpt>
      <trkpt lat="46.87668" lon="8.48279">
        <ele>1786</ele>
        <time>2021-08-11T12:41:16.641Z</time>
      </trkpt>
      <trkpt lat="46.87669" lon="8.48278">
        <ele>1786</ele>
        <time>2021-08-11T12:41:17.641Z</time>
      </trkpt>
      <trkpt lat="46.8767" lon="8.48277">
        <ele>1786</ele>
        <time>2021-08-11T12:41:18.640Z</time>
      </trkpt>
      <trkpt lat="46.87671" lon="8.48276">
        <ele>1786</ele>
        <time>2021-08-11T12:41:19.640Z</time>
      </trkpt>
      <trkpt lat="46.87672" lon="8.48276">
        <ele>1786</ele>
        <time>2021-08-11T12:41:20.640Z</time>
      </trkpt>
      <trkpt lat="46.87673" lon="8.48275">
        <ele>1785</ele>
        <time>2021-08-11T12:41:21.640Z</time>
      </trkpt>
      <trkpt lat="46.87674" lon="8.48274">
        <ele>1786</ele>
        <time>2021-08-11T12:41:22.641Z</time>
      </trkpt>
      <trkpt lat="46.87674" lon="8.48274">
        <ele>1786</ele>
        <time>2021-08-11T12:41:23.641Z</time>
      </trkpt>
      <trkpt lat="46.87675" lon="8.48274">
        <ele>1786</ele>
        <time>2021-08-11T12:41:24.641Z</time>
      </trkpt>
      <trkpt lat="46.87676" lon="8.48273">
        <ele>1786</ele>
        <time>2021-08-11T12:41:25.641Z</time>
      </trkpt>
      <trkpt lat="46.87676" lon="8.48272">
        <ele>1787</ele>
        <time>2021-08-11T12:41:26.641Z</time>
      </trkpt>
      <trkpt lat="46.87677" lon="8.48272">
        <ele>1787</ele>
        <time>2021-08-11T12:41:27.641Z</time>
      </trkpt>
      <trkpt lat="46.87677" lon="8.48271">
        <ele>1787</ele>
        <time>2021-08-11T12:41:28.641Z</time>
      </trkpt>
      <trkpt lat="46.87677" lon="8.4827">
        <ele>1787</ele>
        <time>2021-08-11T12:41:29.641Z</time>
      </trkpt>
      <trkpt lat="46.87678" lon="8.48269">
        <ele>1787</ele>
        <time>2021-08-11T12:41:30.641Z</time>
      </trkpt>
      <trkpt lat="46.87678" lon="8.48268">
        <ele>1787</ele>
        <time>2021-08-11T12:41:31.641Z</time>
      </trkpt>
      <trkpt lat="46.87679" lon="8.48268">
        <ele>1786</ele>
        <time>2021-08-11T12:41:32.641Z</time>
      </trkpt>
      <trkpt lat="46.87679" lon="8.48267">
        <ele>1786</ele>
        <time>2021-08-11T12:41:33.640Z</time>
      </trkpt>
      <trkpt lat="46.8768" lon="8.48266">
        <ele>1785</ele>
        <time>2021-08-11T12:41:34.640Z</time>
      </trkpt>
      <trkpt lat="46.87681" lon="8.48265">
        <ele>1785</ele>
        <time>2021-08-11T12:41:35.641Z</time>
      </trkpt>
      <trkpt lat="46.87681" lon="8.48264">
        <ele>1785</ele>
        <time>2021-08-11T12:41:36.640Z</time>
      </trkpt>
      <trkpt lat="46.87683" lon="8.48264">
        <ele>1785</ele>
        <time>2021-08-11T12:41:37.641Z</time>
      </trkpt>
      <trkpt lat="46.87684" lon="8.48265">
        <ele>1785</ele>
        <time>2021-08-11T12:41:38.641Z</time>
      </trkpt>
      <trkpt lat="46.87684" lon="8.48264">
        <ele>1785</ele>
        <time>2021-08-11T12:41:39.640Z</time>
      </trkpt>
      <trkpt lat="46.87685" lon="8.48264">
        <ele>1785</ele>
        <time>2021-08-11T12:41:40.641Z</time>
      </trkpt>
      <trkpt lat="46.87685" lon="8.48264">
        <ele>1785</ele>
        <time>2021-08-11T12:41:41.641Z</time>
      </trkpt>
      <trkpt lat="46.87686" lon="8.48264">
        <ele>1786</ele>
        <time>2021-08-11T12:41:42.642Z</time>
      </trkpt>
      <trkpt lat="46.87687" lon="8.48264">
        <ele>1786</ele>
        <time>2021-08-11T12:41:43.642Z</time>
      </trkpt>
      <trkpt lat="46.87688" lon="8.48264">
        <ele>1786</ele>
        <time>2021-08-11T12:41:44.642Z</time>
      </trkpt>
      <trkpt lat="46.87688" lon="8.48264">
        <ele>1785</ele>
        <time>2021-08-11T12:41:45.642Z</time>
      </trkpt>
      <trkpt lat="46.87688" lon="8.48263">
        <ele>1785</ele>
        <time>2021-08-11T12:41:46.641Z</time>
      </trkpt>
      <trkpt lat="46.87688" lon="8.48262">
        <ele>1785</ele>
        <time>2021-08-11T12:41:47.642Z</time>
      </trkpt>
      <trkpt lat="46.87688" lon="8.4826">
        <ele>1784</ele>
        <time>2021-08-11T12:41:48.641Z</time>
      </trkpt>
      <trkpt lat="46.87688" lon="8.48258">
        <ele>1784</ele>
        <time>2021-08-11T12:41:49.642Z</time>
      </trkpt>
      <trkpt lat="46.87689" lon="8.48258">
        <ele>1784</ele>
        <time>2021-08-11T12:41:50.642Z</time>
      </trkpt>
      <trkpt lat="46.87688" lon="8.48258">
        <ele>1784</ele>
        <time>2021-08-11T12:41:51.642Z</time>
      </trkpt>
      <trkpt lat="46.87688" lon="8.48257">
        <ele>1784</ele>
        <time>2021-08-11T12:41:52.642Z</time>
      </trkpt>
      <trkpt lat="46.87688" lon="8.48256">
        <ele>1783</ele>
        <time>2021-08-11T12:41:53.642Z</time>
      </trkpt>
      <trkpt lat="46.87688" lon="8.48255">
        <ele>1783</ele>
        <time>2021-08-11T12:41:54.641Z</time>
      </trkpt>
      <trkpt lat="46.87685" lon="8.48252">
        <ele>1789</ele>
        <time>2021-08-11T12:41:55.642Z</time>
      </trkpt>
      <trkpt lat="46.87685" lon="8.4825">
        <ele>1789</ele>
        <time>2021-08-11T12:41:56.642Z</time>
      </trkpt>
      <trkpt lat="46.87684" lon="8.48249">
        <ele>1789</ele>
        <time>2021-08-11T12:41:57.641Z</time>
      </trkpt>
      <trkpt lat="46.87683" lon="8.48248">
        <ele>1789</ele>
        <time>2021-08-11T12:41:58.642Z</time>
      </trkpt>
      <trkpt lat="46.87683" lon="8.48248">
        <ele>1790</ele>
        <time>2021-08-11T12:41:59.642Z</time>
      </trkpt>
      <trkpt lat="46.87683" lon="8.48248">
        <ele>1790</ele>
        <time>2021-08-11T12:42:00.642Z</time>
      </trkpt>
      <trkpt lat="46.87682" lon="8.48248">
        <ele>1791</ele>
        <time>2021-08-11T12:42:01.642Z</time>
      </trkpt>
      <trkpt lat="46.87682" lon="8.48249">
        <ele>1791</ele>
        <time>2021-08-11T12:42:02.641Z</time>
      </trkpt>
      <trkpt lat="46.87682" lon="8.48249">
        <ele>1791</ele>
        <time>2021-08-11T12:42:03.642Z</time>
      </trkpt>
      <trkpt lat="46.87682" lon="8.48248">
        <ele>1791</ele>
        <time>2021-08-11T12:42:04.642Z</time>
      </trkpt>
      <trkpt lat="46.87682" lon="8.48248">
        <ele>1791</ele>
        <time>2021-08-11T12:42:05.642Z</time>
      </trkpt>
      <trkpt lat="46.87682" lon="8.48247">
        <ele>1790</ele>
        <time>2021-08-11T12:42:06.642Z</time>
      </trkpt>
      <trkpt lat="46.87681" lon="8.48247">
        <ele>1790</ele>
        <time>2021-08-11T12:42:07.641Z</time>
      </trkpt>
      <trkpt lat="46.87681" lon="8.48246">
        <ele>1789</ele>
        <time>2021-08-11T12:42:08.642Z</time>
      </trkpt>
      <trkpt lat="46.87681" lon="8.48246">
        <ele>1789</ele>
        <time>2021-08-11T12:42:09.642Z</time>
      </trkpt>
      <trkpt lat="46.8768" lon="8.48247">
        <ele>1789</ele>
        <time>2021-08-11T12:42:10.642Z</time>
      </trkpt>
      <trkpt lat="46.8768" lon="8.48247">
        <ele>1789</ele>
        <time>2021-08-11T12:42:11.642Z</time>
      </trkpt>
      <trkpt lat="46.8768" lon="8.48246">
        <ele>1789</ele>
        <time>2021-08-11T12:42:12.641Z</time>
      </trkpt>
      <trkpt lat="46.8768" lon="8.4825">
        <ele>1789</ele>
        <time>2021-08-11T12:42:13.642Z</time>
      </trkpt>
      <trkpt lat="46.87683" lon="8.48255">
        <ele>1780</ele>
        <time>2021-08-11T12:42:14.642Z</time>
      </trkpt>
      <trkpt lat="46.87681" lon="8.48254">
        <ele>1783</ele>
        <time>2021-08-11T12:42:15.643Z</time>
      </trkpt>
      <trkpt lat="46.87681" lon="8.48254">
        <ele>1784</ele>
        <time>2021-08-11T12:42:16.643Z</time>
      </trkpt>
      <trkpt lat="46.87681" lon="8.48254">
        <ele>1785</ele>
        <time>2021-08-11T12:42:17.643Z</time>
      </trkpt>
      <trkpt lat="46.87682" lon="8.48254">
        <ele>1785</ele>
        <time>2021-08-11T12:42:18.643Z</time>
      </trkpt>
      <trkpt lat="46.87682" lon="8.48254">
        <ele>1786</ele>
        <time>2021-08-11T12:42:19.643Z</time>
      </trkpt>
      <trkpt lat="46.87683" lon="8.48256">
        <ele>1787</ele>
        <time>2021-08-11T12:42:20.644Z</time>
      </trkpt>
      <trkpt lat="46.87683" lon="8.48256">
        <ele>1787</ele>
        <time>2021-08-11T12:42:21.643Z</time>
      </trkpt>
      <trkpt lat="46.87683" lon="8.48257">
        <ele>1787</ele>
        <time>2021-08-11T12:42:22.644Z</time>
      </trkpt>
      <trkpt lat="46.87683" lon="8.48258">
        <ele>1787</ele>
        <time>2021-08-11T12:42:23.643Z</time>
      </trkpt>
      <trkpt lat="46.87683" lon="8.48259">
        <ele>1791</ele>
        <time>2021-08-11T12:42:24.644Z</time>
      </trkpt>
      <trkpt lat="46.87683" lon="8.48259">
        <ele>1791</ele>
        <time>2021-08-11T12:42:25.643Z</time>
      </trkpt>
      <trkpt lat="46.87683" lon="8.48259">
        <ele>1791</ele>
        <time>2021-08-11T12:42:26.643Z</time>
      </trkpt>
      <trkpt lat="46.87682" lon="8.4826">
        <ele>1791</ele>
        <time>2021-08-11T12:42:27.643Z</time>
      </trkpt>
      <trkpt lat="46.87682" lon="8.4826">
        <ele>1791</ele>
        <time>2021-08-11T12:42:28.644Z</time>
      </trkpt>
      <trkpt lat="46.87682" lon="8.4826">
        <ele>1791</ele>
        <time>2021-08-11T12:42:29.644Z</time>
      </trkpt>
      <trkpt lat="46.87683" lon="8.48257">
        <ele>1789</ele>
        <time>2021-08-11T12:42:30.645Z</time>
      </trkpt>
      <trkpt lat="46.87683" lon="8.48257">
        <ele>1790</ele>
        <time>2021-08-11T12:42:31.644Z</time>
      </trkpt>
      <trkpt lat="46.87683" lon="8.48257">
        <ele>1790</ele>
        <time>2021-08-11T12:42:32.644Z</time>
      </trkpt>
      <trkpt lat="46.87683" lon="8.48257">
        <ele>1790</ele>
        <time>2021-08-11T12:42:33.644Z</time>
      </trkpt>
      <trkpt lat="46.87682" lon="8.48257">
        <ele>1790</ele>
        <time>2021-08-11T12:42:34.644Z</time>
      </trkpt>
      <trkpt lat="46.87682" lon="8.48256">
        <ele>1790</ele>
        <time>2021-08-11T12:42:35.645Z</time>
      </trkpt>
      <trkpt lat="46.87682" lon="8.48256">
        <ele>1790</ele>
        <time>2021-08-11T12:42:36.644Z</time>
      </trkpt>
      <trkpt lat="46.87682" lon="8.48255">
        <ele>1790</ele>
        <time>2021-08-11T12:42:37.645Z</time>
      </trkpt>
      <trkpt lat="46.87681" lon="8.48254">
        <ele>1790</ele>
        <time>2021-08-11T12:42:38.645Z</time>
      </trkpt>
      <trkpt lat="46.87683" lon="8.48253">
        <ele>1786</ele>
        <time>2021-08-11T12:42:39.645Z</time>
      </trkpt>
      <trkpt lat="46.87682" lon="8.48254">
        <ele>1786</ele>
        <time>2021-08-11T12:42:40.645Z</time>
      </trkpt>
      <trkpt lat="46.87682" lon="8.48254">
        <ele>1786</ele>
        <time>2021-08-11T12:42:41.644Z</time>
      </trkpt>
      <trkpt lat="46.87682" lon="8.48253">
        <ele>1783</ele>
        <time>2021-08-11T12:42:42.647Z</time>
      </trkpt>
      <trkpt lat="46.87682" lon="8.48252">
        <ele>1783</ele>
        <time>2021-08-11T12:42:43.647Z</time>
      </trkpt>
      <trkpt lat="46.8768" lon="8.48253">
        <ele>1790</ele>
        <time>2021-08-11T12:42:44.647Z</time>
      </trkpt>
      <trkpt lat="46.8768" lon="8.48252">
        <ele>1790</ele>
        <time>2021-08-11T12:42:45.647Z</time>
      </trkpt>
      <trkpt lat="46.8768" lon="8.4825">
        <ele>1790</ele>
        <time>2021-08-11T12:42:46.646Z</time>
      </trkpt>
      <trkpt lat="46.8768" lon="8.48249">
        <ele>1791</ele>
        <time>2021-08-11T12:42:47.648Z</time>
      </trkpt>
      <trkpt lat="46.8768" lon="8.4825">
        <ele>1791</ele>
        <time>2021-08-11T12:42:48.647Z</time>
      </trkpt>
      <trkpt lat="46.8768" lon="8.4825">
        <ele>1790</ele>
        <time>2021-08-11T12:42:49.647Z</time>
      </trkpt>
      <trkpt lat="46.8768" lon="8.48251">
        <ele>1789</ele>
        <time>2021-08-11T12:42:50.648Z</time>
      </trkpt>
      <trkpt lat="46.8768" lon="8.4825">
        <ele>1789</ele>
        <time>2021-08-11T12:42:51.647Z</time>
      </trkpt>
      <trkpt lat="46.87681" lon="8.48251">
        <ele>1787</ele>
        <time>2021-08-11T12:42:52.648Z</time>
      </trkpt>
      <trkpt lat="46.8768" lon="8.48251">
        <ele>1787</ele>
        <time>2021-08-11T12:42:53.648Z</time>
      </trkpt>
      <trkpt lat="46.8768" lon="8.4825">
        <ele>1787</ele>
        <time>2021-08-11T12:42:54.647Z</time>
      </trkpt>
      <trkpt lat="46.87679" lon="8.48249">
        <ele>1787</ele>
        <time>2021-08-11T12:42:55.648Z</time>
      </trkpt>
      <trkpt lat="46.87679" lon="8.48249">
        <ele>1787</ele>
        <time>2021-08-11T12:42:56.647Z</time>
      </trkpt>
      <trkpt lat="46.87678" lon="8.48249">
        <ele>1786</ele>
        <time>2021-08-11T12:42:57.648Z</time>
      </trkpt>
      <trkpt lat="46.87678" lon="8.48249">
        <ele>1786</ele>
        <time>2021-08-11T12:42:58.648Z</time>
      </trkpt>
      <trkpt lat="46.87677" lon="8.48249">
        <ele>1786</ele>
        <time>2021-08-11T12:42:59.647Z</time>
      </trkpt>
      <trkpt lat="46.87678" lon="8.48248">
        <ele>1786</ele>
        <time>2021-08-11T12:43:00.648Z</time>
      </trkpt>
      <trkpt lat="46.87677" lon="8.48247">
        <ele>1786</ele>
        <time>2021-08-11T12:43:01.648Z</time>
      </trkpt>
      <trkpt lat="46.87677" lon="8.48247">
        <ele>1786</ele>
        <time>2021-08-11T12:43:02.647Z</time>
      </trkpt>
      <trkpt lat="46.87676" lon="8.48246">
        <ele>1786</ele>
        <time>2021-08-11T12:43:03.647Z</time>
      </trkpt>
      <trkpt lat="46.87676" lon="8.48247">
        <ele>1786</ele>
        <time>2021-08-11T12:43:04.648Z</time>
      </trkpt>
      <trkpt lat="46.87677" lon="8.48247">
        <ele>1785</ele>
        <time>2021-08-11T12:43:05.650Z</time>
      </trkpt>
      <trkpt lat="46.87677" lon="8.48247">
        <ele>1783</ele>
        <time>2021-08-11T12:43:06.651Z</time>
      </trkpt>
      <trkpt lat="46.87678" lon="8.48248">
        <ele>1782</ele>
        <time>2021-08-11T12:43:07.650Z</time>
      </trkpt>
      <trkpt lat="46.87678" lon="8.48248">
        <ele>1783</ele>
        <time>2021-08-11T12:43:08.651Z</time>
      </trkpt>
      <trkpt lat="46.87679" lon="8.48248">
        <ele>1788</ele>
        <time>2021-08-11T12:43:09.651Z</time>
      </trkpt>
      <trkpt lat="46.87679" lon="8.48248">
        <ele>1788</ele>
        <time>2021-08-11T12:43:10.650Z</time>
      </trkpt>
      <trkpt lat="46.87684" lon="8.48253">
        <ele>1786</ele>
        <time>2021-08-11T12:43:11.651Z</time>
      </trkpt>
      <trkpt lat="46.87684" lon="8.48253">
        <ele>1786</ele>
        <time>2021-08-11T12:43:12.651Z</time>
      </trkpt>
      <trkpt lat="46.87684" lon="8.48253">
        <ele>1785</ele>
        <time>2021-08-11T12:43:13.650Z</time>
      </trkpt>
      <trkpt lat="46.87686" lon="8.48249">
        <ele>1783</ele>
        <time>2021-08-11T12:43:14.652Z</time>
      </trkpt>
      <trkpt lat="46.87687" lon="8.48249">
        <ele>1783</ele>
        <time>2021-08-11T12:43:15.652Z</time>
      </trkpt>
      <trkpt lat="46.87686" lon="8.4825">
        <ele>1782</ele>
        <time>2021-08-11T12:43:16.652Z</time>
      </trkpt>
      <trkpt lat="46.87686" lon="8.4825">
        <ele>1781</ele>
        <time>2021-08-11T12:43:17.652Z</time>
      </trkpt>
      <trkpt lat="46.87686" lon="8.4825">
        <ele>1780</ele>
        <time>2021-08-11T12:43:18.651Z</time>
      </trkpt>
      <trkpt lat="46.87687" lon="8.4825">
        <ele>1780</ele>
        <time>2021-08-11T12:43:19.652Z</time>
      </trkpt>
      <trkpt lat="46.87686" lon="8.48251">
        <ele>1775</ele>
        <time>2021-08-11T12:43:20.653Z</time>
      </trkpt>
      <trkpt lat="46.87686" lon="8.48251">
        <ele>1775</ele>
        <time>2021-08-11T12:43:21.653Z</time>
      </trkpt>
      <trkpt lat="46.87686" lon="8.48251">
        <ele>1775</ele>
        <time>2021-08-11T12:43:22.652Z</time>
      </trkpt>
      <trkpt lat="46.87686" lon="8.48251">
        <ele>1775</ele>
        <time>2021-08-11T12:43:23.654Z</time>
      </trkpt>
      <trkpt lat="46.87684" lon="8.48249">
        <ele>1779</ele>
        <time>2021-08-11T12:43:24.654Z</time>
      </trkpt>
      <trkpt lat="46.87684" lon="8.4825">
        <ele>1779</ele>
        <time>2021-08-11T12:43:25.654Z</time>
      </trkpt>
      <trkpt lat="46.87684" lon="8.48251">
        <ele>1779</ele>
        <time>2021-08-11T12:43:26.653Z</time>
      </trkpt>
      <trkpt lat="46.87683" lon="8.48252">
        <ele>1782</ele>
        <time>2021-08-11T12:43:27.653Z</time>
      </trkpt>
      <trkpt lat="46.87682" lon="8.48252">
        <ele>1782</ele>
        <time>2021-08-11T12:43:28.653Z</time>
      </trkpt>
      <trkpt lat="46.87683" lon="8.48256">
        <ele>1786</ele>
        <time>2021-08-11T12:43:29.655Z</time>
      </trkpt>
      <trkpt lat="46.87683" lon="8.48257">
        <ele>1786</ele>
        <time>2021-08-11T12:43:30.655Z</time>
      </trkpt>
      <trkpt lat="46.87682" lon="8.48257">
        <ele>1786</ele>
        <time>2021-08-11T12:43:31.655Z</time>
      </trkpt>
      <trkpt lat="46.87682" lon="8.4826">
        <ele>1786</ele>
        <time>2021-08-11T12:43:32.654Z</time>
      </trkpt>
      <trkpt lat="46.87683" lon="8.4826">
        <ele>1786</ele>
        <time>2021-08-11T12:43:33.654Z</time>
      </trkpt>
      <trkpt lat="46.87684" lon="8.48261">
        <ele>1785</ele>
        <time>2021-08-11T12:43:34.655Z</time>
      </trkpt>
      <trkpt lat="46.87684" lon="8.48262">
        <ele>1785</ele>
        <time>2021-08-11T12:43:35.654Z</time>
      </trkpt>
      <trkpt lat="46.87684" lon="8.48262">
        <ele>1786</ele>
        <time>2021-08-11T12:43:36.654Z</time>
      </trkpt>
      <trkpt lat="46.87683" lon="8.48263">
        <ele>1786</ele>
        <time>2021-08-11T12:43:37.654Z</time>
      </trkpt>
      <trkpt lat="46.87683" lon="8.48264">
        <ele>1786</ele>
        <time>2021-08-11T12:43:38.654Z</time>
      </trkpt>
      <trkpt lat="46.87683" lon="8.48263">
        <ele>1785</ele>
        <time>2021-08-11T12:43:39.655Z</time>
      </trkpt>
      <trkpt lat="46.87683" lon="8.48262">
        <ele>1785</ele>
        <time>2021-08-11T12:43:40.655Z</time>
      </trkpt>
      <trkpt lat="46.87683" lon="8.48261">
        <ele>1785</ele>
        <time>2021-08-11T12:43:41.654Z</time>
      </trkpt>
      <trkpt lat="46.87688" lon="8.48264">
        <ele>1782</ele>
        <time>2021-08-11T12:43:42.654Z</time>
      </trkpt>
      <trkpt lat="46.87688" lon="8.48264">
        <ele>1782</ele>
        <time>2021-08-11T12:43:43.654Z</time>
      </trkpt>
      <trkpt lat="46.87688" lon="8.48263">
        <ele>1782</ele>
        <time>2021-08-11T12:43:52.770Z</time>
      </trkpt>
      <trkpt lat="46.87685" lon="8.48262">
        <ele>1789</ele>
        <time>2021-08-11T12:43:53.771Z</time>
      </trkpt>
      <trkpt lat="46.87685" lon="8.48261">
        <ele>1787</ele>
        <time>2021-08-11T12:43:54.772Z</time>
      </trkpt>
      <trkpt lat="46.87686" lon="8.48261">
        <ele>1782</ele>
        <time>2021-08-11T12:43:55.772Z</time>
      </trkpt>
      <trkpt lat="46.87687" lon="8.48261">
        <ele>1782</ele>
        <time>2021-08-11T12:43:56.771Z</time>
      </trkpt>
      <trkpt lat="46.87687" lon="8.48261">
        <ele>1783</ele>
        <time>2021-08-11T12:43:57.771Z</time>
      </trkpt>
      <trkpt lat="46.87686" lon="8.48259">
        <ele>1782</ele>
        <time>2021-08-11T12:43:58.773Z</time>
      </trkpt>
      <trkpt lat="46.87686" lon="8.4826">
        <ele>1781</ele>
        <time>2021-08-11T12:43:59.772Z</time>
      </trkpt>
      <trkpt lat="46.87686" lon="8.4826">
        <ele>1781</ele>
        <time>2021-08-11T12:44:00.773Z</time>
      </trkpt>
      <trkpt lat="46.87687" lon="8.48261">
        <ele>1780</ele>
        <time>2021-08-11T12:44:01.773Z</time>
      </trkpt>
      <trkpt lat="46.87687" lon="8.4826">
        <ele>1782</ele>
        <time>2021-08-11T12:44:02.773Z</time>
      </trkpt>
      <trkpt lat="46.87687" lon="8.4826">
        <ele>1783</ele>
        <time>2021-08-11T12:44:03.773Z</time>
      </trkpt>
      <trkpt lat="46.87688" lon="8.4826">
        <ele>1783</ele>
        <time>2021-08-11T12:44:04.773Z</time>
      </trkpt>
      <trkpt lat="46.87691" lon="8.48259">
        <ele>1786</ele>
        <time>2021-08-11T12:44:05.774Z</time>
      </trkpt>
      <trkpt lat="46.8769" lon="8.48258">
        <ele>1786</ele>
        <time>2021-08-11T12:44:06.773Z</time>
      </trkpt>
      <trkpt lat="46.8769" lon="8.48258">
        <ele>1787</ele>
        <time>2021-08-11T12:44:07.774Z</time>
      </trkpt>
      <trkpt lat="46.87691" lon="8.48257">
        <ele>1788</ele>
        <time>2021-08-11T12:44:08.775Z</time>
      </trkpt>
      <trkpt lat="46.87691" lon="8.48257">
        <ele>1788</ele>
        <time>2021-08-11T12:44:09.775Z</time>
      </trkpt>
      <trkpt lat="46.8769" lon="8.48257">
        <ele>1788</ele>
        <time>2021-08-11T12:44:10.774Z</time>
      </trkpt>
      <trkpt lat="46.8769" lon="8.48256">
        <ele>1788</ele>
        <time>2021-08-11T12:44:11.775Z</time>
      </trkpt>
      <trkpt lat="46.8769" lon="8.48256">
        <ele>1788</ele>
        <time>2021-08-11T12:44:12.775Z</time>
      </trkpt>
      <trkpt lat="46.8769" lon="8.48258">
        <ele>1782</ele>
        <time>2021-08-11T12:44:13.775Z</time>
      </trkpt>
      <trkpt lat="46.8769" lon="8.48258">
        <ele>1782</ele>
        <time>2021-08-11T12:44:14.776Z</time>
      </trkpt>
      <trkpt lat="46.87691" lon="8.48258">
        <ele>1782</ele>
        <time>2021-08-11T12:44:15.775Z</time>
      </trkpt>
      <trkpt lat="46.87691" lon="8.48259">
        <ele>1779</ele>
        <time>2021-08-11T12:44:16.651Z</time>
      </trkpt>
      <trkpt lat="46.87691" lon="8.48259">
        <ele>1779</ele>
        <time>2021-08-11T12:44:17.651Z</time>
      </trkpt>
      <trkpt lat="46.87691" lon="8.48259">
        <ele>1778</ele>
        <time>2021-08-11T12:44:18.651Z</time>
      </trkpt>
      <trkpt lat="46.8769" lon="8.48258">
        <ele>1778</ele>
        <time>2021-08-11T12:44:19.651Z</time>
      </trkpt>
      <trkpt lat="46.87691" lon="8.48259">
        <ele>1778</ele>
        <time>2021-08-11T12:44:20.775Z</time>
      </trkpt>
      <trkpt lat="46.87691" lon="8.48259">
        <ele>1778</ele>
        <time>2021-08-11T12:44:21.651Z</time>
      </trkpt>
      <trkpt lat="46.87692" lon="8.48259">
        <ele>1778</ele>
        <time>2021-08-11T12:44:22.651Z</time>
      </trkpt>
      <trkpt lat="46.87692" lon="8.48259">
        <ele>1779</ele>
        <time>2021-08-11T12:44:23.651Z</time>
      </trkpt>
      <trkpt lat="46.87693" lon="8.48259">
        <ele>1779</ele>
        <time>2021-08-11T12:44:24.775Z</time>
      </trkpt>
      <trkpt lat="46.87693" lon="8.48259">
        <ele>1779</ele>
        <time>2021-08-11T12:44:25.651Z</time>
      </trkpt>
      <trkpt lat="46.87694" lon="8.48259">
        <ele>1780</ele>
        <time>2021-08-11T12:44:26.775Z</time>
      </trkpt>
      <trkpt lat="46.87694" lon="8.48259">
        <ele>1781</ele>
        <time>2021-08-11T12:44:27.775Z</time>
      </trkpt>
      <trkpt lat="46.87695" lon="8.48259">
        <ele>1781</ele>
        <time>2021-08-11T12:44:28.775Z</time>
      </trkpt>
      <trkpt lat="46.87695" lon="8.48258">
        <ele>1781</ele>
        <time>2021-08-11T12:44:29.775Z</time>
      </trkpt>
      <trkpt lat="46.87695" lon="8.48258">
        <ele>1781</ele>
        <time>2021-08-11T12:44:30.775Z</time>
      </trkpt>
      <trkpt lat="46.87695" lon="8.48257">
        <ele>1781</ele>
        <time>2021-08-11T12:44:31.775Z</time>
      </trkpt>
      <trkpt lat="46.87696" lon="8.48256">
        <ele>1780</ele>
        <time>2021-08-11T12:44:32.775Z</time>
      </trkpt>
      <trkpt lat="46.87697" lon="8.48254">
        <ele>1780</ele>
        <time>2021-08-11T12:44:33.776Z</time>
      </trkpt>
      <trkpt lat="46.87697" lon="8.48253">
        <ele>1780</ele>
        <time>2021-08-11T12:44:34.775Z</time>
      </trkpt>
      <trkpt lat="46.87697" lon="8.48253">
        <ele>1780</ele>
        <time>2021-08-11T12:44:35.651Z</time>
      </trkpt>
      <trkpt lat="46.87698" lon="8.48252">
        <ele>1780</ele>
        <time>2021-08-11T12:44:36.776Z</time>
      </trkpt>
      <trkpt lat="46.87698" lon="8.48252">
        <ele>1780</ele>
        <time>2021-08-11T12:44:37.651Z</time>
      </trkpt>
      <trkpt lat="46.87698" lon="8.48251">
        <ele>1779</ele>
        <time>2021-08-11T12:44:38.651Z</time>
      </trkpt>
      <trkpt lat="46.87698" lon="8.48251">
        <ele>1779</ele>
        <time>2021-08-11T12:44:39.651Z</time>
      </trkpt>
      <trkpt lat="46.87698" lon="8.4825">
        <ele>1779</ele>
        <time>2021-08-11T12:44:40.776Z</time>
      </trkpt>
      <trkpt lat="46.87698" lon="8.4825">
        <ele>1779</ele>
        <time>2021-08-11T12:44:41.651Z</time>
      </trkpt>
      <trkpt lat="46.87699" lon="8.48249">
        <ele>1778</ele>
        <time>2021-08-11T12:44:42.775Z</time>
      </trkpt>
      <trkpt lat="46.87699" lon="8.48249">
        <ele>1778</ele>
        <time>2021-08-11T12:44:43.651Z</time>
      </trkpt>
      <trkpt lat="46.87699" lon="8.48248">
        <ele>1778</ele>
        <time>2021-08-11T12:44:44.651Z</time>
      </trkpt>
      <trkpt lat="46.877" lon="8.48247">
        <ele>1778</ele>
        <time>2021-08-11T12:44:45.651Z</time>
      </trkpt>
      <trkpt lat="46.877" lon="8.48245">
        <ele>1777</ele>
        <time>2021-08-11T12:44:46.651Z</time>
      </trkpt>
      <trkpt lat="46.877" lon="8.48244">
        <ele>1776</ele>
        <time>2021-08-11T12:44:47.775Z</time>
      </trkpt>
      <trkpt lat="46.877" lon="8.48242">
        <ele>1776</ele>
        <time>2021-08-11T12:44:48.775Z</time>
      </trkpt>
      <trkpt lat="46.877" lon="8.48242">
        <ele>1776</ele>
        <time>2021-08-11T12:44:49.651Z</time>
      </trkpt>
      <trkpt lat="46.877" lon="8.48242">
        <ele>1775</ele>
        <time>2021-08-11T12:44:50.651Z</time>
      </trkpt>
      <trkpt lat="46.877" lon="8.48242">
        <ele>1775</ele>
        <time>2021-08-11T12:44:51.651Z</time>
      </trkpt>
      <trkpt lat="46.87701" lon="8.48242">
        <ele>1775</ele>
        <time>2021-08-11T12:44:52.651Z</time>
      </trkpt>
      <trkpt lat="46.87701" lon="8.4824">
        <ele>1775</ele>
        <time>2021-08-11T12:44:53.776Z</time>
      </trkpt>
      <trkpt lat="46.87701" lon="8.4824">
        <ele>1775</ele>
        <time>2021-08-11T12:44:54.651Z</time>
      </trkpt>
      <trkpt lat="46.87702" lon="8.48239">
        <ele>1776</ele>
        <time>2021-08-11T12:44:55.651Z</time>
      </trkpt>
      <trkpt lat="46.87703" lon="8.48238">
        <ele>1776</ele>
        <time>2021-08-11T12:44:56.651Z</time>
      </trkpt>
      <trkpt lat="46.87704" lon="8.48235">
        <ele>1777</ele>
        <time>2021-08-11T12:44:57.775Z</time>
      </trkpt>
      <trkpt lat="46.87704" lon="8.48234">
        <ele>1777</ele>
        <time>2021-08-11T12:44:58.775Z</time>
      </trkpt>
      <trkpt lat="46.87704" lon="8.48234">
        <ele>1777</ele>
        <time>2021-08-11T12:44:59.651Z</time>
      </trkpt>
      <trkpt lat="46.87703" lon="8.48233">
        <ele>1777</ele>
        <time>2021-08-11T12:45:00.651Z</time>
      </trkpt>
      <trkpt lat="46.87704" lon="8.48232">
        <ele>1777</ele>
        <time>2021-08-11T12:45:01.651Z</time>
      </trkpt>
      <trkpt lat="46.87704" lon="8.48231">
        <ele>1777</ele>
        <time>2021-08-11T12:45:02.651Z</time>
      </trkpt>
      <trkpt lat="46.87704" lon="8.4823">
        <ele>1778</ele>
        <time>2021-08-11T12:45:03.651Z</time>
      </trkpt>
      <trkpt lat="46.87704" lon="8.48229">
        <ele>1778</ele>
        <time>2021-08-11T12:45:04.651Z</time>
      </trkpt>
      <trkpt lat="46.87704" lon="8.48228">
        <ele>1778</ele>
        <time>2021-08-11T12:45:05.651Z</time>
      </trkpt>
      <trkpt lat="46.87704" lon="8.48227">
        <ele>1778</ele>
        <time>2021-08-11T12:45:06.775Z</time>
      </trkpt>
      <trkpt lat="46.87704" lon="8.48227">
        <ele>1778</ele>
        <time>2021-08-11T12:45:07.651Z</time>
      </trkpt>
      <trkpt lat="46.87704" lon="8.48226">
        <ele>1778</ele>
        <time>2021-08-11T12:45:08.651Z</time>
      </trkpt>
      <trkpt lat="46.87706" lon="8.48225">
        <ele>1779</ele>
        <time>2021-08-11T12:45:09.776Z</time>
      </trkpt>
      <trkpt lat="46.87706" lon="8.48225">
        <ele>1779</ele>
        <time>2021-08-11T12:45:10.651Z</time>
      </trkpt>
      <trkpt lat="46.87707" lon="8.48224">
        <ele>1780</ele>
        <time>2021-08-11T12:45:11.775Z</time>
      </trkpt>
      <trkpt lat="46.87707" lon="8.48223">
        <ele>1781</ele>
        <time>2021-08-11T12:45:12.775Z</time>
      </trkpt>
      <trkpt lat="46.87707" lon="8.48223">
        <ele>1781</ele>
        <time>2021-08-11T12:45:13.651Z</time>
      </trkpt>
      <trkpt lat="46.87707" lon="8.48222">
        <ele>1781</ele>
        <time>2021-08-11T12:45:14.651Z</time>
      </trkpt>
      <trkpt lat="46.87707" lon="8.48221">
        <ele>1781</ele>
        <time>2021-08-11T12:45:15.651Z</time>
      </trkpt>
      <trkpt lat="46.87708" lon="8.48221">
        <ele>1781</ele>
        <time>2021-08-11T12:45:16.651Z</time>
      </trkpt>
      <trkpt lat="46.87708" lon="8.4822">
        <ele>1781</ele>
        <time>2021-08-11T12:45:17.651Z</time>
      </trkpt>
      <trkpt lat="46.87708" lon="8.48219">
        <ele>1781</ele>
        <time>2021-08-11T12:45:18.651Z</time>
      </trkpt>
      <trkpt lat="46.87709" lon="8.48217">
        <ele>1780</ele>
        <time>2021-08-11T12:45:19.775Z</time>
      </trkpt>
      <trkpt lat="46.87709" lon="8.48216">
        <ele>1779</ele>
        <time>2021-08-11T12:45:20.776Z</time>
      </trkpt>
      <trkpt lat="46.87709" lon="8.48216">
        <ele>1779</ele>
        <time>2021-08-11T12:45:21.651Z</time>
      </trkpt>
      <trkpt lat="46.87708" lon="8.48216">
        <ele>1779</ele>
        <time>2021-08-11T12:45:22.651Z</time>
      </trkpt>
      <trkpt lat="46.87708" lon="8.48215">
        <ele>1779</ele>
        <time>2021-08-11T12:45:23.651Z</time>
      </trkpt>
      <trkpt lat="46.87708" lon="8.48215">
        <ele>1779</ele>
        <time>2021-08-11T12:45:24.651Z</time>
      </trkpt>
      <trkpt lat="46.87709" lon="8.48214">
        <ele>1778</ele>
        <time>2021-08-11T12:45:25.775Z</time>
      </trkpt>
      <trkpt lat="46.87709" lon="8.48214">
        <ele>1778</ele>
        <time>2021-08-11T12:45:26.651Z</time>
      </trkpt>
      <trkpt lat="46.87709" lon="8.48213">
        <ele>1778</ele>
        <time>2021-08-11T12:45:27.651Z</time>
      </trkpt>
      <trkpt lat="46.87709" lon="8.48212">
        <ele>1779</ele>
        <time>2021-08-11T12:45:28.651Z</time>
      </trkpt>
      <trkpt lat="46.87708" lon="8.48211">
        <ele>1779</ele>
        <time>2021-08-11T12:45:29.651Z</time>
      </trkpt>
      <trkpt lat="46.87707" lon="8.4821">
        <ele>1779</ele>
        <time>2021-08-11T12:45:30.775Z</time>
      </trkpt>
      <trkpt lat="46.87707" lon="8.48208">
        <ele>1779</ele>
        <time>2021-08-11T12:45:31.775Z</time>
      </trkpt>
      <trkpt lat="46.87707" lon="8.48208">
        <ele>1779</ele>
        <time>2021-08-11T12:45:32.651Z</time>
      </trkpt>
      <trkpt lat="46.87707" lon="8.48208">
        <ele>1779</ele>
        <time>2021-08-11T12:45:33.651Z</time>
      </trkpt>
      <trkpt lat="46.87707" lon="8.48207">
        <ele>1779</ele>
        <time>2021-08-11T12:45:34.651Z</time>
      </trkpt>
      <trkpt lat="46.87707" lon="8.48205">
        <ele>1779</ele>
        <time>2021-08-11T12:45:35.775Z</time>
      </trkpt>
      <trkpt lat="46.87707" lon="8.48204">
        <ele>1779</ele>
        <time>2021-08-11T12:45:36.775Z</time>
      </trkpt>
      <trkpt lat="46.87707" lon="8.48204">
        <ele>1779</ele>
        <time>2021-08-11T12:45:37.651Z</time>
      </trkpt>
      <trkpt lat="46.87709" lon="8.48202">
        <ele>1780</ele>
        <time>2021-08-11T12:45:38.775Z</time>
      </trkpt>
      <trkpt lat="46.8771" lon="8.48201">
        <ele>1781</ele>
        <time>2021-08-11T12:45:39.775Z</time>
      </trkpt>
      <trkpt lat="46.8771" lon="8.48201">
        <ele>1781</ele>
        <time>2021-08-11T12:45:40.775Z</time>
      </trkpt>
      <trkpt lat="46.8771" lon="8.48201">
        <ele>1781</ele>
        <time>2021-08-11T12:45:41.651Z</time>
      </trkpt>
      <trkpt lat="46.8771" lon="8.48199">
        <ele>1781</ele>
        <time>2021-08-11T12:45:42.651Z</time>
      </trkpt>
      <trkpt lat="46.87711" lon="8.48198">
        <ele>1780</ele>
        <time>2021-08-11T12:45:43.651Z</time>
      </trkpt>
      <trkpt lat="46.8771" lon="8.48197">
        <ele>1781</ele>
        <time>2021-08-11T12:45:44.651Z</time>
      </trkpt>
      <trkpt lat="46.8771" lon="8.48196">
        <ele>1781</ele>
        <time>2021-08-11T12:45:45.651Z</time>
      </trkpt>
      <trkpt lat="46.8771" lon="8.48195">
        <ele>1781</ele>
        <time>2021-08-11T12:45:46.651Z</time>
      </trkpt>
      <trkpt lat="46.87711" lon="8.48196">
        <ele>1781</ele>
        <time>2021-08-11T12:45:47.776Z</time>
      </trkpt>
      <trkpt lat="46.87711" lon="8.48196">
        <ele>1781</ele>
        <time>2021-08-11T12:45:48.651Z</time>
      </trkpt>
      <trkpt lat="46.87711" lon="8.48196">
        <ele>1782</ele>
        <time>2021-08-11T12:45:49.651Z</time>
      </trkpt>
      <trkpt lat="46.87711" lon="8.48197">
        <ele>1783</ele>
        <time>2021-08-11T12:45:50.651Z</time>
      </trkpt>
      <trkpt lat="46.87711" lon="8.48199">
        <ele>1784</ele>
        <time>2021-08-11T12:45:51.651Z</time>
      </trkpt>
      <trkpt lat="46.87712" lon="8.48201">
        <ele>1786</ele>
        <time>2021-08-11T12:45:52.775Z</time>
      </trkpt>
      <trkpt lat="46.87712" lon="8.48202">
        <ele>1787</ele>
        <time>2021-08-11T12:45:53.775Z</time>
      </trkpt>
      <trkpt lat="46.87712" lon="8.48202">
        <ele>1787</ele>
        <time>2021-08-11T12:45:54.651Z</time>
      </trkpt>
      <trkpt lat="46.87713" lon="8.48202">
        <ele>1787</ele>
        <time>2021-08-11T12:45:59.775Z</time>
      </trkpt>
      <trkpt lat="46.87713" lon="8.48201">
        <ele>1788</ele>
        <time>2021-08-11T12:46:00.775Z</time>
      </trkpt>
      <trkpt lat="46.87713" lon="8.48201">
        <ele>1788</ele>
        <time>2021-08-11T12:46:01.775Z</time>
      </trkpt>
      <trkpt lat="46.87714" lon="8.482">
        <ele>1789</ele>
        <time>2021-08-11T12:46:02.775Z</time>
      </trkpt>
      <trkpt lat="46.87714" lon="8.482">
        <ele>1789</ele>
        <time>2021-08-11T12:46:03.775Z</time>
      </trkpt>
      <trkpt lat="46.87715" lon="8.48198">
        <ele>1790</ele>
        <time>2021-08-11T12:46:04.899Z</time>
      </trkpt>
      <trkpt lat="46.87715" lon="8.48198">
        <ele>1790</ele>
        <time>2021-08-11T12:46:05.775Z</time>
      </trkpt>
      <trkpt lat="46.87716" lon="8.48196">
        <ele>1790</ele>
        <time>2021-08-11T12:46:06.900Z</time>
      </trkpt>
      <trkpt lat="46.87716" lon="8.48196">
        <ele>1790</ele>
        <time>2021-08-11T12:46:07.775Z</time>
      </trkpt>
      <trkpt lat="46.87716" lon="8.48197">
        <ele>1790</ele>
        <time>2021-08-11T12:46:08.899Z</time>
      </trkpt>
      <trkpt lat="46.87716" lon="8.48197">
        <ele>1790</ele>
        <time>2021-08-11T12:46:09.775Z</time>
      </trkpt>
      <trkpt lat="46.87717" lon="8.48197">
        <ele>1790</ele>
        <time>2021-08-11T12:46:10.775Z</time>
      </trkpt>
      <trkpt lat="46.87718" lon="8.48198">
        <ele>1791</ele>
        <time>2021-08-11T12:46:11.775Z</time>
      </trkpt>
      <trkpt lat="46.87718" lon="8.48198">
        <ele>1791</ele>
        <time>2021-08-11T12:46:12.775Z</time>
      </trkpt>
      <trkpt lat="46.87718" lon="8.48197">
        <ele>1791</ele>
        <time>2021-08-11T12:46:13.775Z</time>
      </trkpt>
      <trkpt lat="46.87719" lon="8.48197">
        <ele>1791</ele>
        <time>2021-08-11T12:46:14.775Z</time>
      </trkpt>
      <trkpt lat="46.87719" lon="8.48196">
        <ele>1791</ele>
        <time>2021-08-11T12:46:15.775Z</time>
      </trkpt>
      <trkpt lat="46.87719" lon="8.48195">
        <ele>1791</ele>
        <time>2021-08-11T12:46:16.900Z</time>
      </trkpt>
      <trkpt lat="46.87719" lon="8.48195">
        <ele>1791</ele>
        <time>2021-08-11T12:46:17.775Z</time>
      </trkpt>
      <trkpt lat="46.87719" lon="8.48194">
        <ele>1791</ele>
        <time>2021-08-11T12:46:18.775Z</time>
      </trkpt>
      <trkpt lat="46.87719" lon="8.48194">
        <ele>1791</ele>
        <time>2021-08-11T12:46:19.775Z</time>
      </trkpt>
      <trkpt lat="46.8772" lon="8.48193">
        <ele>1791</ele>
        <time>2021-08-11T12:46:20.775Z</time>
      </trkpt>
      <trkpt lat="46.87722" lon="8.4819">
        <ele>1792</ele>
        <time>2021-08-11T12:46:21.900Z</time>
      </trkpt>
      <trkpt lat="46.87722" lon="8.4819">
        <ele>1792</ele>
        <time>2021-08-11T12:46:22.775Z</time>
      </trkpt>
      <trkpt lat="46.87722" lon="8.48189">
        <ele>1792</ele>
        <time>2021-08-11T12:46:23.775Z</time>
      </trkpt>
      <trkpt lat="46.87722" lon="8.48189">
        <ele>1792</ele>
        <time>2021-08-11T12:46:24.775Z</time>
      </trkpt>
      <trkpt lat="46.87722" lon="8.48188">
        <ele>1792</ele>
        <time>2021-08-11T12:46:25.775Z</time>
      </trkpt>
      <trkpt lat="46.87721" lon="8.48186">
        <ele>1793</ele>
        <time>2021-08-11T12:46:26.900Z</time>
      </trkpt>
      <trkpt lat="46.87721" lon="8.48185">
        <ele>1793</ele>
        <time>2021-08-11T12:46:27.899Z</time>
      </trkpt>
      <trkpt lat="46.87721" lon="8.48185">
        <ele>1793</ele>
        <time>2021-08-11T12:46:28.775Z</time>
      </trkpt>
      <trkpt lat="46.8772" lon="8.48185">
        <ele>1793</ele>
        <time>2021-08-11T12:46:29.775Z</time>
      </trkpt>
      <trkpt lat="46.87721" lon="8.48184">
        <ele>1793</ele>
        <time>2021-08-11T12:46:30.775Z</time>
      </trkpt>
      <trkpt lat="46.87721" lon="8.48183">
        <ele>1794</ele>
        <time>2021-08-11T12:46:31.775Z</time>
      </trkpt>
      <trkpt lat="46.87721" lon="8.48181">
        <ele>1794</ele>
        <time>2021-08-11T12:46:32.900Z</time>
      </trkpt>
      <trkpt lat="46.87721" lon="8.48179">
        <ele>1794</ele>
        <time>2021-08-11T12:46:33.899Z</time>
      </trkpt>
      <trkpt lat="46.87721" lon="8.48179">
        <ele>1794</ele>
        <time>2021-08-11T12:46:34.775Z</time>
      </trkpt>
      <trkpt lat="46.87722" lon="8.48178">
        <ele>1794</ele>
        <time>2021-08-11T12:46:54.898Z</time>
      </trkpt>
      <trkpt lat="46.87721" lon="8.48178">
        <ele>1794</ele>
        <time>2021-08-11T12:46:55.898Z</time>
      </trkpt>
      <trkpt lat="46.87721" lon="8.48178">
        <ele>1794</ele>
        <time>2021-08-11T12:46:56.898Z</time>
      </trkpt>
      <trkpt lat="46.87721" lon="8.48178">
        <ele>1794</ele>
        <time>2021-08-11T12:47:05.002Z</time>
      </trkpt>
      <trkpt lat="46.87721" lon="8.48177">
        <ele>1794</ele>
        <time>2021-08-11T12:47:06.002Z</time>
      </trkpt>
      <trkpt lat="46.87721" lon="8.48176">
        <ele>1793</ele>
        <time>2021-08-11T12:47:07.126Z</time>
      </trkpt>
      <trkpt lat="46.87722" lon="8.48176">
        <ele>1793</ele>
        <time>2021-08-11T12:47:08.126Z</time>
      </trkpt>
      <trkpt lat="46.87722" lon="8.48176">
        <ele>1793</ele>
        <time>2021-08-11T12:47:09.002Z</time>
      </trkpt>
      <trkpt lat="46.87722" lon="8.48176">
        <ele>1793</ele>
        <time>2021-08-11T12:47:10.002Z</time>
      </trkpt>
      <trkpt lat="46.87722" lon="8.48175">
        <ele>1793</ele>
        <time>2021-08-11T12:47:11.002Z</time>
      </trkpt>
      <trkpt lat="46.87722" lon="8.48175">
        <ele>1792</ele>
        <time>2021-08-11T12:47:12.002Z</time>
      </trkpt>
      <trkpt lat="46.87722" lon="8.48174">
        <ele>1791</ele>
        <time>2021-08-11T12:47:13.127Z</time>
      </trkpt>
      <trkpt lat="46.87722" lon="8.48173">
        <ele>1791</ele>
        <time>2021-08-11T12:47:14.127Z</time>
      </trkpt>
      <trkpt lat="46.87722" lon="8.48173">
        <ele>1791</ele>
        <time>2021-08-11T12:47:15.002Z</time>
      </trkpt>
      <trkpt lat="46.87723" lon="8.48173">
        <ele>1791</ele>
        <time>2021-08-11T12:47:16.002Z</time>
      </trkpt>
      <trkpt lat="46.87723" lon="8.48172">
        <ele>1791</ele>
        <time>2021-08-11T12:47:17.126Z</time>
      </trkpt>
      <trkpt lat="46.87724" lon="8.48172">
        <ele>1791</ele>
        <time>2021-08-11T12:47:18.127Z</time>
      </trkpt>
      <trkpt lat="46.87724" lon="8.48172">
        <ele>1791</ele>
        <time>2021-08-11T12:47:19.002Z</time>
      </trkpt>
      <trkpt lat="46.87724" lon="8.48172">
        <ele>1791</ele>
        <time>2021-08-11T12:47:20.002Z</time>
      </trkpt>
      <trkpt lat="46.87723" lon="8.48173">
        <ele>1791</ele>
        <time>2021-08-11T12:47:21.002Z</time>
      </trkpt>
      <trkpt lat="46.87723" lon="8.48172">
        <ele>1791</ele>
        <time>2021-08-11T12:47:22.002Z</time>
      </trkpt>
      <trkpt lat="46.87724" lon="8.48172">
        <ele>1791</ele>
        <time>2021-08-11T12:47:23.002Z</time>
      </trkpt>
      <trkpt lat="46.87725" lon="8.48173">
        <ele>1792</ele>
        <time>2021-08-11T12:47:24.002Z</time>
      </trkpt>
      <trkpt lat="46.87726" lon="8.48172">
        <ele>1792</ele>
        <time>2021-08-11T12:47:25.002Z</time>
      </trkpt>
      <trkpt lat="46.87726" lon="8.48172">
        <ele>1792</ele>
        <time>2021-08-11T12:47:26.002Z</time>
      </trkpt>
      <trkpt lat="46.87727" lon="8.48172">
        <ele>1792</ele>
        <time>2021-08-11T12:47:27.126Z</time>
      </trkpt>
      <trkpt lat="46.87727" lon="8.48172">
        <ele>1792</ele>
        <time>2021-08-11T12:47:28.002Z</time>
      </trkpt>
      <trkpt lat="46.87727" lon="8.48172">
        <ele>1793</ele>
        <time>2021-08-11T12:47:29.002Z</time>
      </trkpt>
      <trkpt lat="46.87728" lon="8.48173">
        <ele>1793</ele>
        <time>2021-08-11T12:47:30.002Z</time>
      </trkpt>
      <trkpt lat="46.87728" lon="8.48173">
        <ele>1794</ele>
        <time>2021-08-11T12:47:31.002Z</time>
      </trkpt>
      <trkpt lat="46.87729" lon="8.48174">
        <ele>1794</ele>
        <time>2021-08-11T12:47:32.126Z</time>
      </trkpt>
      <trkpt lat="46.87729" lon="8.48174">
        <ele>1794</ele>
        <time>2021-08-11T12:47:33.002Z</time>
      </trkpt>
      <trkpt lat="46.87729" lon="8.48175">
        <ele>1794</ele>
        <time>2021-08-11T12:47:34.002Z</time>
      </trkpt>
      <trkpt lat="46.87729" lon="8.48175">
        <ele>1794</ele>
        <time>2021-08-11T12:47:35.002Z</time>
      </trkpt>
      <trkpt lat="46.8773" lon="8.48176">
        <ele>1794</ele>
        <time>2021-08-11T12:47:36.127Z</time>
      </trkpt>
      <trkpt lat="46.8773" lon="8.48176">
        <ele>1794</ele>
        <time>2021-08-11T12:47:37.002Z</time>
      </trkpt>
      <trkpt lat="46.8773" lon="8.48177">
        <ele>1793</ele>
        <time>2021-08-11T12:47:38.002Z</time>
      </trkpt>
      <trkpt lat="46.87731" lon="8.48177">
        <ele>1793</ele>
        <time>2021-08-11T12:47:39.002Z</time>
      </trkpt>
      <trkpt lat="46.87731" lon="8.48178">
        <ele>1793</ele>
        <time>2021-08-11T12:47:40.002Z</time>
      </trkpt>
      <trkpt lat="46.87732" lon="8.48178">
        <ele>1793</ele>
        <time>2021-08-11T12:47:41.002Z</time>
      </trkpt>
      <trkpt lat="46.87733" lon="8.48179">
        <ele>1794</ele>
        <time>2021-08-11T12:47:56.267Z</time>
      </trkpt>
      <trkpt lat="46.87733" lon="8.48179">
        <ele>1794</ele>
        <time>2021-08-11T12:47:57.143Z</time>
      </trkpt>
      <trkpt lat="46.87733" lon="8.4818">
        <ele>1794</ele>
        <time>2021-08-11T12:48:01.016Z</time>
      </trkpt>
      <trkpt lat="46.87733" lon="8.48181">
        <ele>1795</ele>
        <time>2021-08-11T12:48:02.016Z</time>
      </trkpt>
      <trkpt lat="46.87734" lon="8.48182">
        <ele>1796</ele>
        <time>2021-08-11T12:48:03.016Z</time>
      </trkpt>
      <trkpt lat="46.87735" lon="8.48183">
        <ele>1796</ele>
        <time>2021-08-11T12:48:04.016Z</time>
      </trkpt>
      <trkpt lat="46.87735" lon="8.48183">
        <ele>1797</ele>
        <time>2021-08-11T12:48:05.016Z</time>
      </trkpt>
      <trkpt lat="46.87736" lon="8.48184">
        <ele>1797</ele>
        <time>2021-08-11T12:48:06.016Z</time>
      </trkpt>
      <trkpt lat="46.87737" lon="8.48184">
        <ele>1797</ele>
        <time>2021-08-11T12:48:07.140Z</time>
      </trkpt>
      <trkpt lat="46.87737" lon="8.48184">
        <ele>1797</ele>
        <time>2021-08-11T12:48:08.016Z</time>
      </trkpt>
      <trkpt lat="46.87738" lon="8.48184">
        <ele>1797</ele>
        <time>2021-08-11T12:48:09.016Z</time>
      </trkpt>
      <trkpt lat="46.87738" lon="8.48185">
        <ele>1797</ele>
        <time>2021-08-11T12:48:10.016Z</time>
      </trkpt>
      <trkpt lat="46.87739" lon="8.48185">
        <ele>1798</ele>
        <time>2021-08-11T12:48:11.016Z</time>
      </trkpt>
      <trkpt lat="46.8774" lon="8.48186">
        <ele>1798</ele>
        <time>2021-08-11T12:48:12.140Z</time>
      </trkpt>
      <trkpt lat="46.8774" lon="8.48186">
        <ele>1798</ele>
        <time>2021-08-11T12:48:13.016Z</time>
      </trkpt>
      <trkpt lat="46.8774" lon="8.48187">
        <ele>1798</ele>
        <time>2021-08-11T12:48:30.142Z</time>
      </trkpt>
      <trkpt lat="46.8774" lon="8.48188">
        <ele>1798</ele>
        <time>2021-08-11T12:48:31.142Z</time>
      </trkpt>
      <trkpt lat="46.87741" lon="8.48188">
        <ele>1797</ele>
        <time>2021-08-11T12:48:32.266Z</time>
      </trkpt>
      <trkpt lat="46.87741" lon="8.48188">
        <ele>1797</ele>
        <time>2021-08-11T12:48:33.142Z</time>
      </trkpt>
      <trkpt lat="46.87742" lon="8.48188">
        <ele>1797</ele>
        <time>2021-08-11T12:48:34.142Z</time>
      </trkpt>
      <trkpt lat="46.87742" lon="8.48189">
        <ele>1798</ele>
        <time>2021-08-11T12:48:35.142Z</time>
      </trkpt>
      <trkpt lat="46.87744" lon="8.4819">
        <ele>1799</ele>
        <time>2021-08-11T12:48:36.267Z</time>
      </trkpt>
      <trkpt lat="46.87744" lon="8.4819">
        <ele>1799</ele>
        <time>2021-08-11T12:48:37.266Z</time>
      </trkpt>
      <trkpt lat="46.87744" lon="8.4819">
        <ele>1799</ele>
        <time>2021-08-11T12:48:38.142Z</time>
      </trkpt>
      <trkpt lat="46.87745" lon="8.4819">
        <ele>1799</ele>
        <time>2021-08-11T12:48:39.142Z</time>
      </trkpt>
      <trkpt lat="46.87745" lon="8.48191">
        <ele>1799</ele>
        <time>2021-08-11T12:48:40.142Z</time>
      </trkpt>
      <trkpt lat="46.87746" lon="8.48192">
        <ele>1800</ele>
        <time>2021-08-11T12:48:41.266Z</time>
      </trkpt>
      <trkpt lat="46.87746" lon="8.48192">
        <ele>1800</ele>
        <time>2021-08-11T12:48:42.142Z</time>
      </trkpt>
      <trkpt lat="46.87747" lon="8.48191">
        <ele>1800</ele>
        <time>2021-08-11T12:48:43.142Z</time>
      </trkpt>
      <trkpt lat="46.87747" lon="8.48191">
        <ele>1800</ele>
        <time>2021-08-11T12:48:44.142Z</time>
      </trkpt>
      <trkpt lat="46.87747" lon="8.48191">
        <ele>1800</ele>
        <time>2021-08-11T12:48:45.142Z</time>
      </trkpt>
      <trkpt lat="46.87749" lon="8.48191">
        <ele>1799</ele>
        <time>2021-08-11T12:48:46.266Z</time>
      </trkpt>
      <trkpt lat="46.87749" lon="8.4819">
        <ele>1804</ele>
        <time>2021-08-11T12:48:47.142Z</time>
      </trkpt>
      <trkpt lat="46.87749" lon="8.4819">
        <ele>1805</ele>
        <time>2021-08-11T12:48:48.142Z</time>
      </trkpt>
      <trkpt lat="46.87748" lon="8.48192">
        <ele>1810</ele>
        <time>2021-08-11T12:48:49.143Z</time>
      </trkpt>
      <trkpt lat="46.87748" lon="8.48193">
        <ele>1810</ele>
        <time>2021-08-11T12:48:50.142Z</time>
      </trkpt>
      <trkpt lat="46.87749" lon="8.48194">
        <ele>1811</ele>
        <time>2021-08-11T12:48:51.143Z</time>
      </trkpt>
      <trkpt lat="46.87749" lon="8.48194">
        <ele>1811</ele>
        <time>2021-08-11T12:48:52.143Z</time>
      </trkpt>
      <trkpt lat="46.8775" lon="8.48194">
        <ele>1811</ele>
        <time>2021-08-11T12:48:53.142Z</time>
      </trkpt>
      <trkpt lat="46.8775" lon="8.48193">
        <ele>1811</ele>
        <time>2021-08-11T12:48:54.143Z</time>
      </trkpt>
      <trkpt lat="46.87751" lon="8.48193">
        <ele>1811</ele>
        <time>2021-08-11T12:48:55.143Z</time>
      </trkpt>
      <trkpt lat="46.87751" lon="8.48194">
        <ele>1811</ele>
        <time>2021-08-11T12:48:56.142Z</time>
      </trkpt>
      <trkpt lat="46.87751" lon="8.48195">
        <ele>1811</ele>
        <time>2021-08-11T12:48:57.143Z</time>
      </trkpt>
      <trkpt lat="46.87751" lon="8.48195">
        <ele>1812</ele>
        <time>2021-08-11T12:48:58.142Z</time>
      </trkpt>
      <trkpt lat="46.87752" lon="8.48197">
        <ele>1812</ele>
        <time>2021-08-11T12:48:59.143Z</time>
      </trkpt>
      <trkpt lat="46.87753" lon="8.48197">
        <ele>1813</ele>
        <time>2021-08-11T12:49:00.142Z</time>
      </trkpt>
      <trkpt lat="46.87753" lon="8.48197">
        <ele>1814</ele>
        <time>2021-08-11T12:49:01.143Z</time>
      </trkpt>
      <trkpt lat="46.87753" lon="8.48198">
        <ele>1814</ele>
        <time>2021-08-11T12:49:02.143Z</time>
      </trkpt>
      <trkpt lat="46.87754" lon="8.48199">
        <ele>1814</ele>
        <time>2021-08-11T12:49:03.143Z</time>
      </trkpt>
      <trkpt lat="46.87754" lon="8.48199">
        <ele>1815</ele>
        <time>2021-08-11T12:49:04.143Z</time>
      </trkpt>
      <trkpt lat="46.87756" lon="8.48201">
        <ele>1815</ele>
        <time>2021-08-11T12:49:05.142Z</time>
      </trkpt>
      <trkpt lat="46.87757" lon="8.48203">
        <ele>1815</ele>
        <time>2021-08-11T12:49:06.142Z</time>
      </trkpt>
      <trkpt lat="46.87757" lon="8.48203">
        <ele>1815</ele>
        <time>2021-08-11T12:49:07.143Z</time>
      </trkpt>
      <trkpt lat="46.87757" lon="8.48204">
        <ele>1815</ele>
        <time>2021-08-11T12:49:08.143Z</time>
      </trkpt>
      <trkpt lat="46.87757" lon="8.48205">
        <ele>1814</ele>
        <time>2021-08-11T12:49:09.143Z</time>
      </trkpt>
      <trkpt lat="46.87757" lon="8.48205">
        <ele>1814</ele>
        <time>2021-08-11T12:49:10.142Z</time>
      </trkpt>
      <trkpt lat="46.87758" lon="8.48205">
        <ele>1813</ele>
        <time>2021-08-11T12:49:11.142Z</time>
      </trkpt>
      <trkpt lat="46.87758" lon="8.48205">
        <ele>1813</ele>
        <time>2021-08-11T12:49:12.142Z</time>
      </trkpt>
      <trkpt lat="46.87759" lon="8.48205">
        <ele>1812</ele>
        <time>2021-08-11T12:49:13.143Z</time>
      </trkpt>
      <trkpt lat="46.8776" lon="8.48205">
        <ele>1812</ele>
        <time>2021-08-11T12:49:14.142Z</time>
      </trkpt>
      <trkpt lat="46.87761" lon="8.48206">
        <ele>1812</ele>
        <time>2021-08-11T12:49:15.142Z</time>
      </trkpt>
      <trkpt lat="46.87761" lon="8.48207">
        <ele>1811</ele>
        <time>2021-08-11T12:49:16.143Z</time>
      </trkpt>
      <trkpt lat="46.87761" lon="8.48207">
        <ele>1811</ele>
        <time>2021-08-11T12:49:17.142Z</time>
      </trkpt>
      <trkpt lat="46.87762" lon="8.48206">
        <ele>1811</ele>
        <time>2021-08-11T12:49:18.143Z</time>
      </trkpt>
      <trkpt lat="46.87763" lon="8.48206">
        <ele>1811</ele>
        <time>2021-08-11T12:49:19.143Z</time>
      </trkpt>
      <trkpt lat="46.87763" lon="8.48206">
        <ele>1810</ele>
        <time>2021-08-11T12:49:20.142Z</time>
      </trkpt>
      <trkpt lat="46.87764" lon="8.48206">
        <ele>1810</ele>
        <time>2021-08-11T12:49:21.143Z</time>
      </trkpt>
      <trkpt lat="46.87764" lon="8.48206">
        <ele>1809</ele>
        <time>2021-08-11T12:49:22.142Z</time>
      </trkpt>
      <trkpt lat="46.87765" lon="8.48206">
        <ele>1809</ele>
        <time>2021-08-11T12:49:23.143Z</time>
      </trkpt>
      <trkpt lat="46.87766" lon="8.48206">
        <ele>1809</ele>
        <time>2021-08-11T12:49:24.143Z</time>
      </trkpt>
      <trkpt lat="46.87766" lon="8.48205">
        <ele>1808</ele>
        <time>2021-08-11T12:49:25.142Z</time>
      </trkpt>
      <trkpt lat="46.87767" lon="8.48206">
        <ele>1808</ele>
        <time>2021-08-11T12:49:26.142Z</time>
      </trkpt>
      <trkpt lat="46.87767" lon="8.48206">
        <ele>1808</ele>
        <time>2021-08-11T12:49:27.142Z</time>
      </trkpt>
      <trkpt lat="46.87768" lon="8.48206">
        <ele>1807</ele>
        <time>2021-08-11T12:49:28.143Z</time>
      </trkpt>
      <trkpt lat="46.87768" lon="8.48206">
        <ele>1806</ele>
        <time>2021-08-11T12:49:29.143Z</time>
      </trkpt>
      <trkpt lat="46.87769" lon="8.48206">
        <ele>1806</ele>
        <time>2021-08-11T12:49:30.143Z</time>
      </trkpt>
      <trkpt lat="46.8777" lon="8.48206">
        <ele>1805</ele>
        <time>2021-08-11T12:49:31.143Z</time>
      </trkpt>
      <trkpt lat="46.87771" lon="8.48206">
        <ele>1805</ele>
        <time>2021-08-11T12:49:32.143Z</time>
      </trkpt>
      <trkpt lat="46.87771" lon="8.48206">
        <ele>1804</ele>
        <time>2021-08-11T12:49:33.142Z</time>
      </trkpt>
      <trkpt lat="46.87772" lon="8.48206">
        <ele>1804</ele>
        <time>2021-08-11T12:49:34.143Z</time>
      </trkpt>
      <trkpt lat="46.87773" lon="8.48206">
        <ele>1803</ele>
        <time>2021-08-11T12:49:35.143Z</time>
      </trkpt>
      <trkpt lat="46.87774" lon="8.48206">
        <ele>1802</ele>
        <time>2021-08-11T12:49:36.143Z</time>
      </trkpt>
      <trkpt lat="46.87774" lon="8.48206">
        <ele>1802</ele>
        <time>2021-08-11T12:49:37.143Z</time>
      </trkpt>
      <trkpt lat="46.87775" lon="8.48205">
        <ele>1801</ele>
        <time>2021-08-11T12:49:38.142Z</time>
      </trkpt>
      <trkpt lat="46.87776" lon="8.48204">
        <ele>1801</ele>
        <time>2021-08-11T12:49:39.143Z</time>
      </trkpt>
      <trkpt lat="46.87777" lon="8.48204">
        <ele>1800</ele>
        <time>2021-08-11T12:49:40.143Z</time>
      </trkpt>
      <trkpt lat="46.87778" lon="8.48203">
        <ele>1800</ele>
        <time>2021-08-11T12:49:41.143Z</time>
      </trkpt>
      <trkpt lat="46.87779" lon="8.48203">
        <ele>1800</ele>
        <time>2021-08-11T12:49:42.143Z</time>
      </trkpt>
      <trkpt lat="46.8778" lon="8.48203">
        <ele>1800</ele>
        <time>2021-08-11T12:49:43.143Z</time>
      </trkpt>
      <trkpt lat="46.8778" lon="8.48203">
        <ele>1800</ele>
        <time>2021-08-11T12:49:44.143Z</time>
      </trkpt>
      <trkpt lat="46.87781" lon="8.48203">
        <ele>1800</ele>
        <time>2021-08-11T12:49:45.143Z</time>
      </trkpt>
      <trkpt lat="46.87782" lon="8.48203">
        <ele>1800</ele>
        <time>2021-08-11T12:49:46.142Z</time>
      </trkpt>
      <trkpt lat="46.87783" lon="8.48204">
        <ele>1799</ele>
        <time>2021-08-11T12:49:47.143Z</time>
      </trkpt>
      <trkpt lat="46.87784" lon="8.48204">
        <ele>1799</ele>
        <time>2021-08-11T12:49:48.142Z</time>
      </trkpt>
      <trkpt lat="46.87785" lon="8.48205">
        <ele>1800</ele>
        <time>2021-08-11T12:49:49.143Z</time>
      </trkpt>
      <trkpt lat="46.87785" lon="8.48206">
        <ele>1800</ele>
        <time>2021-08-11T12:49:50.143Z</time>
      </trkpt>
      <trkpt lat="46.87786" lon="8.48206">
        <ele>1800</ele>
        <time>2021-08-11T12:49:51.143Z</time>
      </trkpt>
      <trkpt lat="46.87787" lon="8.48207">
        <ele>1801</ele>
        <time>2021-08-11T12:49:52.143Z</time>
      </trkpt>
      <trkpt lat="46.87787" lon="8.48207">
        <ele>1801</ele>
        <time>2021-08-11T12:49:53.142Z</time>
      </trkpt>
      <trkpt lat="46.87788" lon="8.48207">
        <ele>1801</ele>
        <time>2021-08-11T12:49:54.143Z</time>
      </trkpt>
      <trkpt lat="46.87789" lon="8.48207">
        <ele>1801</ele>
        <time>2021-08-11T12:49:55.143Z</time>
      </trkpt>
      <trkpt lat="46.8779" lon="8.48207">
        <ele>1801</ele>
        <time>2021-08-11T12:49:56.143Z</time>
      </trkpt>
      <trkpt lat="46.8779" lon="8.48208">
        <ele>1801</ele>
        <time>2021-08-11T12:49:57.143Z</time>
      </trkpt>
      <trkpt lat="46.87791" lon="8.48209">
        <ele>1801</ele>
        <time>2021-08-11T12:49:58.143Z</time>
      </trkpt>
      <trkpt lat="46.87792" lon="8.4821">
        <ele>1800</ele>
        <time>2021-08-11T12:49:59.143Z</time>
      </trkpt>
      <trkpt lat="46.87793" lon="8.48211">
        <ele>1801</ele>
        <time>2021-08-11T12:50:00.143Z</time>
      </trkpt>
      <trkpt lat="46.87792" lon="8.48212">
        <ele>1801</ele>
        <time>2021-08-11T12:50:01.143Z</time>
      </trkpt>
      <trkpt lat="46.87792" lon="8.48213">
        <ele>1801</ele>
        <time>2021-08-11T12:50:02.143Z</time>
      </trkpt>
      <trkpt lat="46.87792" lon="8.48213">
        <ele>1801</ele>
        <time>2021-08-11T12:50:03.142Z</time>
      </trkpt>
      <trkpt lat="46.87793" lon="8.48214">
        <ele>1801</ele>
        <time>2021-08-11T12:50:04.143Z</time>
      </trkpt>
      <trkpt lat="46.87793" lon="8.48214">
        <ele>1801</ele>
        <time>2021-08-11T12:50:05.142Z</time>
      </trkpt>
      <trkpt lat="46.87793" lon="8.48214">
        <ele>1801</ele>
        <time>2021-08-11T12:50:06.142Z</time>
      </trkpt>
      <trkpt lat="46.87794" lon="8.48214">
        <ele>1801</ele>
        <time>2021-08-11T12:50:07.142Z</time>
      </trkpt>
      <trkpt lat="46.87795" lon="8.48214">
        <ele>1801</ele>
        <time>2021-08-11T12:50:08.143Z</time>
      </trkpt>
      <trkpt lat="46.87795" lon="8.48214">
        <ele>1801</ele>
        <time>2021-08-11T12:50:09.142Z</time>
      </trkpt>
      <trkpt lat="46.87796" lon="8.48214">
        <ele>1802</ele>
        <time>2021-08-11T12:50:10.143Z</time>
      </trkpt>
      <trkpt lat="46.87797" lon="8.48214">
        <ele>1802</ele>
        <time>2021-08-11T12:50:11.142Z</time>
      </trkpt>
      <trkpt lat="46.87798" lon="8.48215">
        <ele>1802</ele>
        <time>2021-08-11T12:50:12.143Z</time>
      </trkpt>
      <trkpt lat="46.87799" lon="8.48215">
        <ele>1802</ele>
        <time>2021-08-11T12:50:13.142Z</time>
      </trkpt>
      <trkpt lat="46.878" lon="8.48215">
        <ele>1803</ele>
        <time>2021-08-11T12:50:14.142Z</time>
      </trkpt>
      <trkpt lat="46.878" lon="8.48215">
        <ele>1803</ele>
        <time>2021-08-11T12:50:27.269Z</time>
      </trkpt>
      <trkpt lat="46.87801" lon="8.48215">
        <ele>1803</ele>
        <time>2021-08-11T12:50:28.269Z</time>
      </trkpt>
      <trkpt lat="46.87802" lon="8.48214">
        <ele>1803</ele>
        <time>2021-08-11T12:50:29.269Z</time>
      </trkpt>
      <trkpt lat="46.87803" lon="8.48214">
        <ele>1803</ele>
        <time>2021-08-11T12:50:41.392Z</time>
      </trkpt>
      <trkpt lat="46.87804" lon="8.48215">
        <ele>1804</ele>
        <time>2021-08-11T12:50:42.392Z</time>
      </trkpt>
      <trkpt lat="46.87805" lon="8.48215">
        <ele>1804</ele>
        <time>2021-08-11T12:50:59.246Z</time>
      </trkpt>
      <trkpt lat="46.87806" lon="8.48216">
        <ele>1804</ele>
        <time>2021-08-11T12:51:00.247Z</time>
      </trkpt>
      <trkpt lat="46.87807" lon="8.48216">
        <ele>1804</ele>
        <time>2021-08-11T12:51:01.247Z</time>
      </trkpt>
      <trkpt lat="46.87808" lon="8.48216">
        <ele>1804</ele>
        <time>2021-08-11T12:51:06.998Z</time>
      </trkpt>
      <trkpt lat="46.87809" lon="8.48216">
        <ele>1803</ele>
        <time>2021-08-11T12:51:07.998Z</time>
      </trkpt>
      <trkpt lat="46.87809" lon="8.48216">
        <ele>1803</ele>
        <time>2021-08-11T12:51:13.749Z</time>
      </trkpt>
      <trkpt lat="46.87809" lon="8.48217">
        <ele>1803</ele>
        <time>2021-08-11T12:51:14.749Z</time>
      </trkpt>
      <trkpt lat="46.8781" lon="8.48217">
        <ele>1803</ele>
        <time>2021-08-11T12:51:53.643Z</time>
      </trkpt>
      <trkpt lat="46.8781" lon="8.48218">
        <ele>1803</ele>
        <time>2021-08-11T12:51:54.642Z</time>
      </trkpt>
      <trkpt lat="46.87811" lon="8.48219">
        <ele>1803</ele>
        <time>2021-08-11T12:51:55.643Z</time>
      </trkpt>
      <trkpt lat="46.87811" lon="8.48219">
        <ele>1804</ele>
        <time>2021-08-11T12:51:56.643Z</time>
      </trkpt>
      <trkpt lat="46.87812" lon="8.48218">
        <ele>1804</ele>
        <time>2021-08-11T12:51:57.642Z</time>
      </trkpt>
      <trkpt lat="46.87812" lon="8.48218">
        <ele>1804</ele>
        <time>2021-08-11T12:51:58.643Z</time>
      </trkpt>
      <trkpt lat="46.87813" lon="8.48218">
        <ele>1804</ele>
        <time>2021-08-11T12:51:59.642Z</time>
      </trkpt>
      <trkpt lat="46.87813" lon="8.48218">
        <ele>1804</ele>
        <time>2021-08-11T12:52:00.642Z</time>
      </trkpt>
      <trkpt lat="46.87813" lon="8.48218">
        <ele>1804</ele>
        <time>2021-08-11T12:52:01.643Z</time>
      </trkpt>
      <trkpt lat="46.87814" lon="8.48219">
        <ele>1805</ele>
        <time>2021-08-11T12:52:02.643Z</time>
      </trkpt>
      <trkpt lat="46.87814" lon="8.4822">
        <ele>1805</ele>
        <time>2021-08-11T12:52:03.642Z</time>
      </trkpt>
      <trkpt lat="46.87814" lon="8.4822">
        <ele>1804</ele>
        <time>2021-08-11T12:52:04.642Z</time>
      </trkpt>
      <trkpt lat="46.87815" lon="8.48221">
        <ele>1804</ele>
        <time>2021-08-11T12:52:05.643Z</time>
      </trkpt>
      <trkpt lat="46.87815" lon="8.48224">
        <ele>1804</ele>
        <time>2021-08-11T12:52:06.643Z</time>
      </trkpt>
      <trkpt lat="46.87815" lon="8.48224">
        <ele>1804</ele>
        <time>2021-08-11T12:52:07.643Z</time>
      </trkpt>
      <trkpt lat="46.87816" lon="8.48225">
        <ele>1804</ele>
        <time>2021-08-11T12:52:08.642Z</time>
      </trkpt>
      <trkpt lat="46.87816" lon="8.48226">
        <ele>1804</ele>
        <time>2021-08-11T12:52:09.643Z</time>
      </trkpt>
      <trkpt lat="46.87817" lon="8.48226">
        <ele>1805</ele>
        <time>2021-08-11T12:52:10.643Z</time>
      </trkpt>
      <trkpt lat="46.87817" lon="8.48226">
        <ele>1805</ele>
        <time>2021-08-11T12:52:11.642Z</time>
      </trkpt>
      <trkpt lat="46.87818" lon="8.48226">
        <ele>1805</ele>
        <time>2021-08-11T12:52:12.643Z</time>
      </trkpt>
      <trkpt lat="46.87818" lon="8.48227">
        <ele>1805</ele>
        <time>2021-08-11T12:52:13.643Z</time>
      </trkpt>
      <trkpt lat="46.87818" lon="8.48227">
        <ele>1805</ele>
        <time>2021-08-11T12:52:14.642Z</time>
      </trkpt>
      <trkpt lat="46.87818" lon="8.48227">
        <ele>1805</ele>
        <time>2021-08-11T12:52:15.643Z</time>
      </trkpt>
      <trkpt lat="46.87819" lon="8.48228">
        <ele>1805</ele>
        <time>2021-08-11T12:52:16.643Z</time>
      </trkpt>
      <trkpt lat="46.87819" lon="8.48229">
        <ele>1805</ele>
        <time>2021-08-11T12:52:17.643Z</time>
      </trkpt>
      <trkpt lat="46.8782" lon="8.48229">
        <ele>1806</ele>
        <time>2021-08-11T12:52:18.643Z</time>
      </trkpt>
      <trkpt lat="46.87821" lon="8.4823">
        <ele>1806</ele>
        <time>2021-08-11T12:52:19.642Z</time>
      </trkpt>
      <trkpt lat="46.87821" lon="8.48231">
        <ele>1807</ele>
        <time>2021-08-11T12:52:20.643Z</time>
      </trkpt>
      <trkpt lat="46.87821" lon="8.48232">
        <ele>1807</ele>
        <time>2021-08-11T12:52:21.643Z</time>
      </trkpt>
      <trkpt lat="46.87822" lon="8.48232">
        <ele>1808</ele>
        <time>2021-08-11T12:52:22.643Z</time>
      </trkpt>
      <trkpt lat="46.87822" lon="8.48233">
        <ele>1808</ele>
        <time>2021-08-11T12:52:23.643Z</time>
      </trkpt>
      <trkpt lat="46.87822" lon="8.48233">
        <ele>1809</ele>
        <time>2021-08-11T12:52:24.643Z</time>
      </trkpt>
      <trkpt lat="46.87822" lon="8.48234">
        <ele>1809</ele>
        <time>2021-08-11T12:52:25.643Z</time>
      </trkpt>
      <trkpt lat="46.87822" lon="8.48234">
        <ele>1809</ele>
        <time>2021-08-11T12:52:26.642Z</time>
      </trkpt>
      <trkpt lat="46.87822" lon="8.48235">
        <ele>1809</ele>
        <time>2021-08-11T12:52:27.642Z</time>
      </trkpt>
      <trkpt lat="46.87823" lon="8.48236">
        <ele>1809</ele>
        <time>2021-08-11T12:52:28.643Z</time>
      </trkpt>
      <trkpt lat="46.87823" lon="8.48237">
        <ele>1809</ele>
        <time>2021-08-11T12:52:29.643Z</time>
      </trkpt>
      <trkpt lat="46.87823" lon="8.48238">
        <ele>1809</ele>
        <time>2021-08-11T12:52:30.643Z</time>
      </trkpt>
      <trkpt lat="46.87823" lon="8.48239">
        <ele>1809</ele>
        <time>2021-08-11T12:52:31.643Z</time>
      </trkpt>
      <trkpt lat="46.87824" lon="8.48239">
        <ele>1808</ele>
        <time>2021-08-11T12:52:32.643Z</time>
      </trkpt>
      <trkpt lat="46.87824" lon="8.4824">
        <ele>1808</ele>
        <time>2021-08-11T12:52:33.642Z</time>
      </trkpt>
      <trkpt lat="46.87824" lon="8.48241">
        <ele>1808</ele>
        <time>2021-08-11T12:52:34.643Z</time>
      </trkpt>
      <trkpt lat="46.87824" lon="8.48242">
        <ele>1808</ele>
        <time>2021-08-11T12:52:35.643Z</time>
      </trkpt>
      <trkpt lat="46.87825" lon="8.48242">
        <ele>1808</ele>
        <time>2021-08-11T12:52:36.643Z</time>
      </trkpt>
      <trkpt lat="46.87825" lon="8.48243">
        <ele>1808</ele>
        <time>2021-08-11T12:52:37.643Z</time>
      </trkpt>
      <trkpt lat="46.87825" lon="8.48244">
        <ele>1809</ele>
        <time>2021-08-11T12:52:38.643Z</time>
      </trkpt>
      <trkpt lat="46.87825" lon="8.48244">
        <ele>1809</ele>
        <time>2021-08-11T12:52:39.643Z</time>
      </trkpt>
      <trkpt lat="46.87825" lon="8.48245">
        <ele>1809</ele>
        <time>2021-08-11T12:52:40.642Z</time>
      </trkpt>
      <trkpt lat="46.87826" lon="8.48245">
        <ele>1809</ele>
        <time>2021-08-11T12:52:41.642Z</time>
      </trkpt>
      <trkpt lat="46.87826" lon="8.48246">
        <ele>1809</ele>
        <time>2021-08-11T12:52:42.642Z</time>
      </trkpt>
      <trkpt lat="46.87826" lon="8.48247">
        <ele>1810</ele>
        <time>2021-08-11T12:52:43.643Z</time>
      </trkpt>
      <trkpt lat="46.87826" lon="8.48247">
        <ele>1810</ele>
        <time>2021-08-11T12:52:44.643Z</time>
      </trkpt>
      <trkpt lat="46.87827" lon="8.48248">
        <ele>1810</ele>
        <time>2021-08-11T12:52:45.643Z</time>
      </trkpt>
      <trkpt lat="46.87827" lon="8.48249">
        <ele>1810</ele>
        <time>2021-08-11T12:52:46.643Z</time>
      </trkpt>
      <trkpt lat="46.87827" lon="8.4825">
        <ele>1810</ele>
        <time>2021-08-11T12:52:47.643Z</time>
      </trkpt>
      <trkpt lat="46.87827" lon="8.48251">
        <ele>1811</ele>
        <time>2021-08-11T12:52:48.643Z</time>
      </trkpt>
      <trkpt lat="46.87827" lon="8.48251">
        <ele>1810</ele>
        <time>2021-08-11T12:52:49.643Z</time>
      </trkpt>
      <trkpt lat="46.87828" lon="8.48251">
        <ele>1810</ele>
        <time>2021-08-11T12:52:50.642Z</time>
      </trkpt>
      <trkpt lat="46.87828" lon="8.48252">
        <ele>1810</ele>
        <time>2021-08-11T12:52:51.642Z</time>
      </trkpt>
      <trkpt lat="46.87829" lon="8.48253">
        <ele>1810</ele>
        <time>2021-08-11T12:52:52.642Z</time>
      </trkpt>
      <trkpt lat="46.87829" lon="8.48254">
        <ele>1810</ele>
        <time>2021-08-11T12:52:53.643Z</time>
      </trkpt>
      <trkpt lat="46.87829" lon="8.48254">
        <ele>1810</ele>
        <time>2021-08-11T12:52:54.643Z</time>
      </trkpt>
      <trkpt lat="46.8783" lon="8.48256">
        <ele>1810</ele>
        <time>2021-08-11T12:52:55.643Z</time>
      </trkpt>
      <trkpt lat="46.8783" lon="8.48257">
        <ele>1810</ele>
        <time>2021-08-11T12:52:56.643Z</time>
      </trkpt>
      <trkpt lat="46.8783" lon="8.48258">
        <ele>1810</ele>
        <time>2021-08-11T12:52:57.642Z</time>
      </trkpt>
      <trkpt lat="46.8783" lon="8.48259">
        <ele>1810</ele>
        <time>2021-08-11T12:52:58.643Z</time>
      </trkpt>
      <trkpt lat="46.8783" lon="8.4826">
        <ele>1810</ele>
        <time>2021-08-11T12:52:59.643Z</time>
      </trkpt>
      <trkpt lat="46.8783" lon="8.48261">
        <ele>1810</ele>
        <time>2021-08-11T12:53:00.643Z</time>
      </trkpt>
      <trkpt lat="46.8783" lon="8.48262">
        <ele>1810</ele>
        <time>2021-08-11T12:53:01.643Z</time>
      </trkpt>
      <trkpt lat="46.87831" lon="8.48262">
        <ele>1810</ele>
        <time>2021-08-11T12:53:02.643Z</time>
      </trkpt>
      <trkpt lat="46.87831" lon="8.48263">
        <ele>1811</ele>
        <time>2021-08-11T12:53:03.642Z</time>
      </trkpt>
      <trkpt lat="46.87831" lon="8.48264">
        <ele>1812</ele>
        <time>2021-08-11T12:53:04.643Z</time>
      </trkpt>
      <trkpt lat="46.87832" lon="8.48265">
        <ele>1812</ele>
        <time>2021-08-11T12:53:05.643Z</time>
      </trkpt>
      <trkpt lat="46.87832" lon="8.48266">
        <ele>1813</ele>
        <time>2021-08-11T12:53:06.643Z</time>
      </trkpt>
      <trkpt lat="46.87833" lon="8.48267">
        <ele>1813</ele>
        <time>2021-08-11T12:53:07.642Z</time>
      </trkpt>
      <trkpt lat="46.87833" lon="8.48268">
        <ele>1814</ele>
        <time>2021-08-11T12:53:08.643Z</time>
      </trkpt>
      <trkpt lat="46.87834" lon="8.48269">
        <ele>1814</ele>
        <time>2021-08-11T12:53:09.643Z</time>
      </trkpt>
      <trkpt lat="46.87834" lon="8.4827">
        <ele>1815</ele>
        <time>2021-08-11T12:53:10.642Z</time>
      </trkpt>
      <trkpt lat="46.87834" lon="8.4827">
        <ele>1815</ele>
        <time>2021-08-11T12:53:11.643Z</time>
      </trkpt>
      <trkpt lat="46.87835" lon="8.48271">
        <ele>1816</ele>
        <time>2021-08-11T12:53:12.642Z</time>
      </trkpt>
      <trkpt lat="46.87835" lon="8.48272">
        <ele>1816</ele>
        <time>2021-08-11T12:53:13.643Z</time>
      </trkpt>
      <trkpt lat="46.87835" lon="8.48272">
        <ele>1816</ele>
        <time>2021-08-11T12:53:14.643Z</time>
      </trkpt>
      <trkpt lat="46.87836" lon="8.48273">
        <ele>1816</ele>
        <time>2021-08-11T12:53:15.642Z</time>
      </trkpt>
      <trkpt lat="46.87836" lon="8.48274">
        <ele>1816</ele>
        <time>2021-08-11T12:53:16.643Z</time>
      </trkpt>
      <trkpt lat="46.87836" lon="8.48274">
        <ele>1817</ele>
        <time>2021-08-11T12:53:17.643Z</time>
      </trkpt>
      <trkpt lat="46.87836" lon="8.48275">
        <ele>1817</ele>
        <time>2021-08-11T12:53:18.643Z</time>
      </trkpt>
      <trkpt lat="46.87837" lon="8.48276">
        <ele>1817</ele>
        <time>2021-08-11T12:53:19.642Z</time>
      </trkpt>
      <trkpt lat="46.87837" lon="8.48276">
        <ele>1817</ele>
        <time>2021-08-11T12:53:20.643Z</time>
      </trkpt>
      <trkpt lat="46.87837" lon="8.48277">
        <ele>1817</ele>
        <time>2021-08-11T12:53:21.643Z</time>
      </trkpt>
      <trkpt lat="46.87837" lon="8.48278">
        <ele>1817</ele>
        <time>2021-08-11T12:53:22.643Z</time>
      </trkpt>
      <trkpt lat="46.87838" lon="8.48279">
        <ele>1817</ele>
        <time>2021-08-11T12:53:23.642Z</time>
      </trkpt>
      <trkpt lat="46.87838" lon="8.4828">
        <ele>1817</ele>
        <time>2021-08-11T12:53:24.643Z</time>
      </trkpt>
      <trkpt lat="46.87838" lon="8.48281">
        <ele>1817</ele>
        <time>2021-08-11T12:53:25.642Z</time>
      </trkpt>
      <trkpt lat="46.87838" lon="8.48281">
        <ele>1817</ele>
        <time>2021-08-11T12:53:26.643Z</time>
      </trkpt>
      <trkpt lat="46.87839" lon="8.48282">
        <ele>1817</ele>
        <time>2021-08-11T12:53:27.642Z</time>
      </trkpt>
      <trkpt lat="46.87839" lon="8.48282">
        <ele>1816</ele>
        <time>2021-08-11T12:53:28.643Z</time>
      </trkpt>
      <trkpt lat="46.87839" lon="8.48283">
        <ele>1816</ele>
        <time>2021-08-11T12:53:29.643Z</time>
      </trkpt>
      <trkpt lat="46.8784" lon="8.48283">
        <ele>1816</ele>
        <time>2021-08-11T12:53:30.643Z</time>
      </trkpt>
      <trkpt lat="46.8784" lon="8.48284">
        <ele>1816</ele>
        <time>2021-08-11T12:53:31.642Z</time>
      </trkpt>
      <trkpt lat="46.87841" lon="8.48285">
        <ele>1817</ele>
        <time>2021-08-11T12:53:32.643Z</time>
      </trkpt>
      <trkpt lat="46.87841" lon="8.48285">
        <ele>1817</ele>
        <time>2021-08-11T12:53:33.643Z</time>
      </trkpt>
      <trkpt lat="46.87841" lon="8.48286">
        <ele>1817</ele>
        <time>2021-08-11T12:53:34.642Z</time>
      </trkpt>
      <trkpt lat="46.87841" lon="8.48287">
        <ele>1817</ele>
        <time>2021-08-11T12:53:35.642Z</time>
      </trkpt>
      <trkpt lat="46.87842" lon="8.48288">
        <ele>1818</ele>
        <time>2021-08-11T12:53:36.643Z</time>
      </trkpt>
      <trkpt lat="46.87842" lon="8.48289">
        <ele>1818</ele>
        <time>2021-08-11T12:53:37.642Z</time>
      </trkpt>
      <trkpt lat="46.87842" lon="8.4829">
        <ele>1819</ele>
        <time>2021-08-11T12:53:38.642Z</time>
      </trkpt>
      <trkpt lat="46.87843" lon="8.4829">
        <ele>1819</ele>
        <time>2021-08-11T12:53:39.643Z</time>
      </trkpt>
      <trkpt lat="46.87843" lon="8.48292">
        <ele>1819</ele>
        <time>2021-08-11T12:53:40.643Z</time>
      </trkpt>
      <trkpt lat="46.87844" lon="8.48293">
        <ele>1819</ele>
        <time>2021-08-11T12:53:41.642Z</time>
      </trkpt>
      <trkpt lat="46.87845" lon="8.48293">
        <ele>1819</ele>
        <time>2021-08-11T12:53:42.642Z</time>
      </trkpt>
      <trkpt lat="46.87846" lon="8.48293">
        <ele>1820</ele>
        <time>2021-08-11T12:53:43.643Z</time>
      </trkpt>
      <trkpt lat="46.87846" lon="8.48293">
        <ele>1820</ele>
        <time>2021-08-11T12:53:44.643Z</time>
      </trkpt>
      <trkpt lat="46.87846" lon="8.48294">
        <ele>1820</ele>
        <time>2021-08-11T12:53:45.643Z</time>
      </trkpt>
      <trkpt lat="46.87847" lon="8.48295">
        <ele>1820</ele>
        <time>2021-08-11T12:53:46.643Z</time>
      </trkpt>
      <trkpt lat="46.87847" lon="8.48296">
        <ele>1821</ele>
        <time>2021-08-11T12:53:47.643Z</time>
      </trkpt>
      <trkpt lat="46.87847" lon="8.48298">
        <ele>1822</ele>
        <time>2021-08-11T12:53:48.643Z</time>
      </trkpt>
      <trkpt lat="46.87848" lon="8.48298">
        <ele>1822</ele>
        <time>2021-08-11T12:53:49.643Z</time>
      </trkpt>
      <trkpt lat="46.87848" lon="8.48299">
        <ele>1822</ele>
        <time>2021-08-11T12:53:50.643Z</time>
      </trkpt>
      <trkpt lat="46.87848" lon="8.48299">
        <ele>1822</ele>
        <time>2021-08-11T12:53:51.643Z</time>
      </trkpt>
      <trkpt lat="46.87848" lon="8.48299">
        <ele>1821</ele>
        <time>2021-08-11T12:53:52.643Z</time>
      </trkpt>
      <trkpt lat="46.87849" lon="8.48299">
        <ele>1821</ele>
        <time>2021-08-11T12:53:53.643Z</time>
      </trkpt>
      <trkpt lat="46.87849" lon="8.48299">
        <ele>1821</ele>
        <time>2021-08-11T12:53:54.643Z</time>
      </trkpt>
      <trkpt lat="46.8785" lon="8.48299">
        <ele>1821</ele>
        <time>2021-08-11T12:53:55.643Z</time>
      </trkpt>
      <trkpt lat="46.8785" lon="8.48299">
        <ele>1821</ele>
        <time>2021-08-11T12:53:56.643Z</time>
      </trkpt>
      <trkpt lat="46.87851" lon="8.483">
        <ele>1820</ele>
        <time>2021-08-11T12:53:57.642Z</time>
      </trkpt>
      <trkpt lat="46.87851" lon="8.483">
        <ele>1820</ele>
        <time>2021-08-11T12:53:58.643Z</time>
      </trkpt>
      <trkpt lat="46.87851" lon="8.48301">
        <ele>1820</ele>
        <time>2021-08-11T12:53:59.643Z</time>
      </trkpt>
      <trkpt lat="46.87852" lon="8.48302">
        <ele>1820</ele>
        <time>2021-08-11T12:54:00.642Z</time>
      </trkpt>
      <trkpt lat="46.87852" lon="8.48303">
        <ele>1821</ele>
        <time>2021-08-11T12:54:01.643Z</time>
      </trkpt>
      <trkpt lat="46.87852" lon="8.48304">
        <ele>1821</ele>
        <time>2021-08-11T12:54:02.643Z</time>
      </trkpt>
      <trkpt lat="46.87853" lon="8.48305">
        <ele>1822</ele>
        <time>2021-08-11T12:54:03.642Z</time>
      </trkpt>
      <trkpt lat="46.87853" lon="8.48305">
        <ele>1822</ele>
        <time>2021-08-11T12:54:04.643Z</time>
      </trkpt>
      <trkpt lat="46.87853" lon="8.48306">
        <ele>1822</ele>
        <time>2021-08-11T12:54:05.643Z</time>
      </trkpt>
      <trkpt lat="46.87853" lon="8.48307">
        <ele>1822</ele>
        <time>2021-08-11T12:54:06.642Z</time>
      </trkpt>
      <trkpt lat="46.87854" lon="8.48308">
        <ele>1822</ele>
        <time>2021-08-11T12:54:07.643Z</time>
      </trkpt>
      <trkpt lat="46.87854" lon="8.48309">
        <ele>1823</ele>
        <time>2021-08-11T12:54:08.643Z</time>
      </trkpt>
      <trkpt lat="46.87854" lon="8.4831">
        <ele>1823</ele>
        <time>2021-08-11T12:54:09.643Z</time>
      </trkpt>
      <trkpt lat="46.87854" lon="8.4831">
        <ele>1824</ele>
        <time>2021-08-11T12:54:10.643Z</time>
      </trkpt>
      <trkpt lat="46.87854" lon="8.48311">
        <ele>1824</ele>
        <time>2021-08-11T12:54:11.643Z</time>
      </trkpt>
      <trkpt lat="46.87854" lon="8.48312">
        <ele>1824</ele>
        <time>2021-08-11T12:54:12.642Z</time>
      </trkpt>
      <trkpt lat="46.87854" lon="8.48312">
        <ele>1824</ele>
        <time>2021-08-11T12:54:13.643Z</time>
      </trkpt>
      <trkpt lat="46.87855" lon="8.48313">
        <ele>1824</ele>
        <time>2021-08-11T12:54:14.643Z</time>
      </trkpt>
      <trkpt lat="46.87855" lon="8.48314">
        <ele>1824</ele>
        <time>2021-08-11T12:54:15.642Z</time>
      </trkpt>
      <trkpt lat="46.87855" lon="8.48314">
        <ele>1825</ele>
        <time>2021-08-11T12:54:16.642Z</time>
      </trkpt>
      <trkpt lat="46.87855" lon="8.48315">
        <ele>1824</ele>
        <time>2021-08-11T12:54:17.643Z</time>
      </trkpt>
      <trkpt lat="46.87855" lon="8.48316">
        <ele>1824</ele>
        <time>2021-08-11T12:54:18.642Z</time>
      </trkpt>
      <trkpt lat="46.87856" lon="8.48317">
        <ele>1824</ele>
        <time>2021-08-11T12:54:19.643Z</time>
      </trkpt>
      <trkpt lat="46.87856" lon="8.48317">
        <ele>1824</ele>
        <time>2021-08-11T12:54:20.642Z</time>
      </trkpt>
      <trkpt lat="46.87856" lon="8.48318">
        <ele>1825</ele>
        <time>2021-08-11T12:54:21.642Z</time>
      </trkpt>
      <trkpt lat="46.87856" lon="8.48318">
        <ele>1825</ele>
        <time>2021-08-11T12:54:22.643Z</time>
      </trkpt>
      <trkpt lat="46.87857" lon="8.48319">
        <ele>1825</ele>
        <time>2021-08-11T12:54:23.643Z</time>
      </trkpt>
      <trkpt lat="46.87857" lon="8.4832">
        <ele>1825</ele>
        <time>2021-08-11T12:54:24.642Z</time>
      </trkpt>
      <trkpt lat="46.87857" lon="8.48321">
        <ele>1825</ele>
        <time>2021-08-11T12:54:25.642Z</time>
      </trkpt>
      <trkpt lat="46.87858" lon="8.48321">
        <ele>1825</ele>
        <time>2021-08-11T12:54:26.643Z</time>
      </trkpt>
      <trkpt lat="46.87858" lon="8.48322">
        <ele>1825</ele>
        <time>2021-08-11T12:54:27.643Z</time>
      </trkpt>
      <trkpt lat="46.87859" lon="8.48322">
        <ele>1826</ele>
        <time>2021-08-11T12:54:28.643Z</time>
      </trkpt>
      <trkpt lat="46.87859" lon="8.48323">
        <ele>1826</ele>
        <time>2021-08-11T12:54:29.643Z</time>
      </trkpt>
      <trkpt lat="46.87859" lon="8.48323">
        <ele>1826</ele>
        <time>2021-08-11T12:54:30.643Z</time>
      </trkpt>
      <trkpt lat="46.87859" lon="8.48323">
        <ele>1826</ele>
        <time>2021-08-11T12:54:31.643Z</time>
      </trkpt>
      <trkpt lat="46.8786" lon="8.48324">
        <ele>1826</ele>
        <time>2021-08-11T12:54:32.643Z</time>
      </trkpt>
      <trkpt lat="46.8786" lon="8.48324">
        <ele>1827</ele>
        <time>2021-08-11T12:54:33.643Z</time>
      </trkpt>
      <trkpt lat="46.8786" lon="8.48324">
        <ele>1827</ele>
        <time>2021-08-11T12:54:34.643Z</time>
      </trkpt>
      <trkpt lat="46.87861" lon="8.48325">
        <ele>1827</ele>
        <time>2021-08-11T12:54:35.643Z</time>
      </trkpt>
      <trkpt lat="46.87861" lon="8.48325">
        <ele>1826</ele>
        <time>2021-08-11T12:54:36.643Z</time>
      </trkpt>
      <trkpt lat="46.87861" lon="8.48326">
        <ele>1826</ele>
        <time>2021-08-11T12:54:37.643Z</time>
      </trkpt>
      <trkpt lat="46.87861" lon="8.48327">
        <ele>1826</ele>
        <time>2021-08-11T12:54:38.643Z</time>
      </trkpt>
      <trkpt lat="46.87861" lon="8.48327">
        <ele>1826</ele>
        <time>2021-08-11T12:54:39.642Z</time>
      </trkpt>
      <trkpt lat="46.87861" lon="8.48328">
        <ele>1826</ele>
        <time>2021-08-11T12:54:40.643Z</time>
      </trkpt>
      <trkpt lat="46.87861" lon="8.48329">
        <ele>1826</ele>
        <time>2021-08-11T12:54:41.642Z</time>
      </trkpt>
      <trkpt lat="46.87862" lon="8.48329">
        <ele>1826</ele>
        <time>2021-08-11T12:54:42.643Z</time>
      </trkpt>
      <trkpt lat="46.87862" lon="8.4833">
        <ele>1826</ele>
        <time>2021-08-11T12:54:43.643Z</time>
      </trkpt>
      <trkpt lat="46.87862" lon="8.4833">
        <ele>1826</ele>
        <time>2021-08-11T12:54:44.643Z</time>
      </trkpt>
      <trkpt lat="46.87863" lon="8.4833">
        <ele>1826</ele>
        <time>2021-08-11T12:54:45.643Z</time>
      </trkpt>
      <trkpt lat="46.87863" lon="8.4833">
        <ele>1826</ele>
        <time>2021-08-11T12:54:46.643Z</time>
      </trkpt>
      <trkpt lat="46.87863" lon="8.48331">
        <ele>1827</ele>
        <time>2021-08-11T12:54:47.643Z</time>
      </trkpt>
      <trkpt lat="46.87864" lon="8.48332">
        <ele>1827</ele>
        <time>2021-08-11T12:54:48.643Z</time>
      </trkpt>
      <trkpt lat="46.87864" lon="8.48332">
        <ele>1827</ele>
        <time>2021-08-11T12:54:49.643Z</time>
      </trkpt>
      <trkpt lat="46.87865" lon="8.48333">
        <ele>1828</ele>
        <time>2021-08-11T12:54:50.643Z</time>
      </trkpt>
      <trkpt lat="46.87865" lon="8.48333">
        <ele>1828</ele>
        <time>2021-08-11T12:54:51.643Z</time>
      </trkpt>
      <trkpt lat="46.87866" lon="8.48333">
        <ele>1828</ele>
        <time>2021-08-11T12:54:52.642Z</time>
      </trkpt>
      <trkpt lat="46.87866" lon="8.48334">
        <ele>1829</ele>
        <time>2021-08-11T12:54:53.643Z</time>
      </trkpt>
      <trkpt lat="46.87867" lon="8.48334">
        <ele>1828</ele>
        <time>2021-08-11T12:54:54.643Z</time>
      </trkpt>
      <trkpt lat="46.87867" lon="8.48335">
        <ele>1828</ele>
        <time>2021-08-11T12:54:55.642Z</time>
      </trkpt>
      <trkpt lat="46.87867" lon="8.48335">
        <ele>1828</ele>
        <time>2021-08-11T12:54:56.642Z</time>
      </trkpt>
      <trkpt lat="46.87868" lon="8.48336">
        <ele>1828</ele>
        <time>2021-08-11T12:54:57.642Z</time>
      </trkpt>
      <trkpt lat="46.87868" lon="8.48336">
        <ele>1827</ele>
        <time>2021-08-11T12:54:58.643Z</time>
      </trkpt>
      <trkpt lat="46.87869" lon="8.48336">
        <ele>1827</ele>
        <time>2021-08-11T12:54:59.643Z</time>
      </trkpt>
      <trkpt lat="46.87869" lon="8.48336">
        <ele>1826</ele>
        <time>2021-08-11T12:55:00.642Z</time>
      </trkpt>
      <trkpt lat="46.87869" lon="8.48333">
        <ele>1826</ele>
        <time>2021-08-11T12:55:01.643Z</time>
      </trkpt>
      <trkpt lat="46.87869" lon="8.48333">
        <ele>1826</ele>
        <time>2021-08-11T12:55:02.643Z</time>
      </trkpt>
      <trkpt lat="46.87871" lon="8.48334">
        <ele>1828</ele>
        <time>2021-08-11T12:55:03.643Z</time>
      </trkpt>
      <trkpt lat="46.87871" lon="8.48334">
        <ele>1828</ele>
        <time>2021-08-11T12:55:04.643Z</time>
      </trkpt>
      <trkpt lat="46.87871" lon="8.48332">
        <ele>1828</ele>
        <time>2021-08-11T12:55:05.644Z</time>
      </trkpt>
      <trkpt lat="46.87871" lon="8.48331">
        <ele>1828</ele>
        <time>2021-08-11T12:55:06.644Z</time>
      </trkpt>
      <trkpt lat="46.8787" lon="8.48331">
        <ele>1827</ele>
        <time>2021-08-11T12:55:07.643Z</time>
      </trkpt>
      <trkpt lat="46.8787" lon="8.4833">
        <ele>1823</ele>
        <time>2021-08-11T12:55:08.645Z</time>
      </trkpt>
      <trkpt lat="46.8787" lon="8.4833">
        <ele>1823</ele>
        <time>2021-08-11T12:55:09.644Z</time>
      </trkpt>
      <trkpt lat="46.8787" lon="8.4833">
        <ele>1823</ele>
        <time>2021-08-11T12:55:10.645Z</time>
      </trkpt>
      <trkpt lat="46.8787" lon="8.48331">
        <ele>1823</ele>
        <time>2021-08-11T12:55:11.644Z</time>
      </trkpt>
      <trkpt lat="46.8787" lon="8.48331">
        <ele>1823</ele>
        <time>2021-08-11T12:55:12.644Z</time>
      </trkpt>
      <trkpt lat="46.87865" lon="8.48332">
        <ele>1820</ele>
        <time>2021-08-11T12:55:13.645Z</time>
      </trkpt>
      <trkpt lat="46.87865" lon="8.48332">
        <ele>1819</ele>
        <time>2021-08-11T12:55:14.645Z</time>
      </trkpt>
      <trkpt lat="46.87864" lon="8.48332">
        <ele>1819</ele>
        <time>2021-08-11T12:55:15.644Z</time>
      </trkpt>
      <trkpt lat="46.87861" lon="8.48333">
        <ele>1823</ele>
        <time>2021-08-11T12:55:16.644Z</time>
      </trkpt>
      <trkpt lat="46.87861" lon="8.48333">
        <ele>1824</ele>
        <time>2021-08-11T12:55:17.645Z</time>
      </trkpt>
      <trkpt lat="46.87862" lon="8.48333">
        <ele>1825</ele>
        <time>2021-08-11T12:55:18.645Z</time>
      </trkpt>
      <trkpt lat="46.87862" lon="8.48333">
        <ele>1825</ele>
        <time>2021-08-11T12:55:19.644Z</time>
      </trkpt>
      <trkpt lat="46.87862" lon="8.48333">
        <ele>1825</ele>
        <time>2021-08-11T12:55:20.644Z</time>
      </trkpt>
      <trkpt lat="46.87866" lon="8.48334">
        <ele>1828</ele>
        <time>2021-08-11T12:55:21.645Z</time>
      </trkpt>
      <trkpt lat="46.87867" lon="8.48333">
        <ele>1828</ele>
        <time>2021-08-11T12:55:22.644Z</time>
      </trkpt>
      <trkpt lat="46.87866" lon="8.48333">
        <ele>1828</ele>
        <time>2021-08-11T12:55:23.644Z</time>
      </trkpt>
      <trkpt lat="46.87866" lon="8.48333">
        <ele>1828</ele>
        <time>2021-08-11T12:55:24.644Z</time>
      </trkpt>
      <trkpt lat="46.87866" lon="8.48334">
        <ele>1829</ele>
        <time>2021-08-11T12:55:25.645Z</time>
      </trkpt>
      <trkpt lat="46.87866" lon="8.48335">
        <ele>1830</ele>
        <time>2021-08-11T12:55:26.646Z</time>
      </trkpt>
      <trkpt lat="46.87866" lon="8.48336">
        <ele>1830</ele>
        <time>2021-08-11T12:55:27.645Z</time>
      </trkpt>
      <trkpt lat="46.87867" lon="8.48337">
        <ele>1830</ele>
        <time>2021-08-11T12:55:28.646Z</time>
      </trkpt>
      <trkpt lat="46.87867" lon="8.48337">
        <ele>1830</ele>
        <time>2021-08-11T12:55:29.646Z</time>
      </trkpt>
      <trkpt lat="46.87867" lon="8.48337">
        <ele>1830</ele>
        <time>2021-08-11T12:55:30.645Z</time>
      </trkpt>
      <trkpt lat="46.87867" lon="8.48336">
        <ele>1831</ele>
        <time>2021-08-11T12:55:31.645Z</time>
      </trkpt>
      <trkpt lat="46.87867" lon="8.48336">
        <ele>1831</ele>
        <time>2021-08-11T12:55:32.646Z</time>
      </trkpt>
      <trkpt lat="46.87867" lon="8.48337">
        <ele>1831</ele>
        <time>2021-08-11T12:55:33.645Z</time>
      </trkpt>
      <trkpt lat="46.87867" lon="8.48338">
        <ele>1831</ele>
        <time>2021-08-11T12:55:34.646Z</time>
      </trkpt>
      <trkpt lat="46.87868" lon="8.48338">
        <ele>1832</ele>
        <time>2021-08-11T12:55:35.645Z</time>
      </trkpt>
      <trkpt lat="46.87868" lon="8.48338">
        <ele>1833</ele>
        <time>2021-08-11T12:55:36.646Z</time>
      </trkpt>
      <trkpt lat="46.87869" lon="8.48338">
        <ele>1833</ele>
        <time>2021-08-11T12:55:37.646Z</time>
      </trkpt>
      <trkpt lat="46.8787" lon="8.48338">
        <ele>1834</ele>
        <time>2021-08-11T12:55:38.646Z</time>
      </trkpt>
      <trkpt lat="46.8787" lon="8.48339">
        <ele>1834</ele>
        <time>2021-08-11T12:55:39.646Z</time>
      </trkpt>
      <trkpt lat="46.8787" lon="8.4834">
        <ele>1835</ele>
        <time>2021-08-11T12:55:40.646Z</time>
      </trkpt>
      <trkpt lat="46.87871" lon="8.4834">
        <ele>1835</ele>
        <time>2021-08-11T12:55:41.646Z</time>
      </trkpt>
      <trkpt lat="46.87872" lon="8.48341">
        <ele>1835</ele>
        <time>2021-08-11T12:55:42.646Z</time>
      </trkpt>
      <trkpt lat="46.87873" lon="8.4834">
        <ele>1835</ele>
        <time>2021-08-11T12:55:43.645Z</time>
      </trkpt>
      <trkpt lat="46.87874" lon="8.48339">
        <ele>1835</ele>
        <time>2021-08-11T12:55:44.645Z</time>
      </trkpt>
      <trkpt lat="46.87877" lon="8.48338">
        <ele>1836</ele>
        <time>2021-08-11T12:55:45.648Z</time>
      </trkpt>
      <trkpt lat="46.87878" lon="8.48338">
        <ele>1836</ele>
        <time>2021-08-11T12:55:46.648Z</time>
      </trkpt>
      <trkpt lat="46.87878" lon="8.48337">
        <ele>1837</ele>
        <time>2021-08-11T12:55:47.647Z</time>
      </trkpt>
      <trkpt lat="46.87878" lon="8.48337">
        <ele>1837</ele>
        <time>2021-08-11T12:55:48.648Z</time>
      </trkpt>
      <trkpt lat="46.87879" lon="8.48337">
        <ele>1837</ele>
        <time>2021-08-11T12:55:49.648Z</time>
      </trkpt>
      <trkpt lat="46.8788" lon="8.48338">
        <ele>1837</ele>
        <time>2021-08-11T12:55:50.649Z</time>
      </trkpt>
      <trkpt lat="46.8788" lon="8.48338">
        <ele>1837</ele>
        <time>2021-08-11T12:55:51.649Z</time>
      </trkpt>
      <trkpt lat="46.8788" lon="8.48338">
        <ele>1837</ele>
        <time>2021-08-11T12:55:52.649Z</time>
      </trkpt>
      <trkpt lat="46.87881" lon="8.48338">
        <ele>1836</ele>
        <time>2021-08-11T12:55:53.648Z</time>
      </trkpt>
      <trkpt lat="46.87882" lon="8.4834">
        <ele>1836</ele>
        <time>2021-08-11T12:55:54.648Z</time>
      </trkpt>
      <trkpt lat="46.87882" lon="8.4834">
        <ele>1836</ele>
        <time>2021-08-11T12:55:55.648Z</time>
      </trkpt>
      <trkpt lat="46.87883" lon="8.4834">
        <ele>1836</ele>
        <time>2021-08-11T12:55:56.648Z</time>
      </trkpt>
      <trkpt lat="46.87883" lon="8.4834">
        <ele>1836</ele>
        <time>2021-08-11T12:55:57.648Z</time>
      </trkpt>
      <trkpt lat="46.87884" lon="8.48339">
        <ele>1836</ele>
        <time>2021-08-11T12:55:58.648Z</time>
      </trkpt>
      <trkpt lat="46.87884" lon="8.48339">
        <ele>1836</ele>
        <time>2021-08-11T12:55:59.648Z</time>
      </trkpt>
      <trkpt lat="46.87884" lon="8.48339">
        <ele>1836</ele>
        <time>2021-08-11T12:56:00.648Z</time>
      </trkpt>
      <trkpt lat="46.87884" lon="8.48339">
        <ele>1836</ele>
        <time>2021-08-11T12:56:01.648Z</time>
      </trkpt>
      <trkpt lat="46.87884" lon="8.4834">
        <ele>1836</ele>
        <time>2021-08-11T12:56:02.649Z</time>
      </trkpt>
      <trkpt lat="46.87885" lon="8.4834">
        <ele>1835</ele>
        <time>2021-08-11T12:56:03.649Z</time>
      </trkpt>
      <trkpt lat="46.87885" lon="8.4834">
        <ele>1835</ele>
        <time>2021-08-11T12:56:04.649Z</time>
      </trkpt>
      <trkpt lat="46.87884" lon="8.48339">
        <ele>1835</ele>
        <time>2021-08-11T12:56:05.648Z</time>
      </trkpt>
      <trkpt lat="46.87884" lon="8.4834">
        <ele>1834</ele>
        <time>2021-08-11T12:56:06.649Z</time>
      </trkpt>
      <trkpt lat="46.87885" lon="8.48339">
        <ele>1834</ele>
        <time>2021-08-11T12:56:07.649Z</time>
      </trkpt>
      <trkpt lat="46.87885" lon="8.48339">
        <ele>1834</ele>
        <time>2021-08-11T12:56:08.648Z</time>
      </trkpt>
      <trkpt lat="46.87886" lon="8.48338">
        <ele>1834</ele>
        <time>2021-08-11T12:56:09.649Z</time>
      </trkpt>
      <trkpt lat="46.87886" lon="8.48338">
        <ele>1834</ele>
        <time>2021-08-11T12:56:10.648Z</time>
      </trkpt>
      <trkpt lat="46.87886" lon="8.48339">
        <ele>1834</ele>
        <time>2021-08-11T12:56:11.649Z</time>
      </trkpt>
      <trkpt lat="46.87887" lon="8.48339">
        <ele>1833</ele>
        <time>2021-08-11T12:56:12.649Z</time>
      </trkpt>
      <trkpt lat="46.87888" lon="8.48339">
        <ele>1833</ele>
        <time>2021-08-11T12:56:13.649Z</time>
      </trkpt>
      <trkpt lat="46.87889" lon="8.48339">
        <ele>1833</ele>
        <time>2021-08-11T12:56:14.649Z</time>
      </trkpt>
      <trkpt lat="46.87889" lon="8.4834">
        <ele>1833</ele>
        <time>2021-08-11T12:56:15.649Z</time>
      </trkpt>
      <trkpt lat="46.8789" lon="8.4834">
        <ele>1833</ele>
        <time>2021-08-11T12:56:16.648Z</time>
      </trkpt>
      <trkpt lat="46.8789" lon="8.4834">
        <ele>1833</ele>
        <time>2021-08-11T12:56:17.649Z</time>
      </trkpt>
      <trkpt lat="46.87891" lon="8.48341">
        <ele>1833</ele>
        <time>2021-08-11T12:56:18.648Z</time>
      </trkpt>
      <trkpt lat="46.87891" lon="8.48342">
        <ele>1833</ele>
        <time>2021-08-11T12:56:19.649Z</time>
      </trkpt>
      <trkpt lat="46.87891" lon="8.48342">
        <ele>1834</ele>
        <time>2021-08-11T12:56:20.648Z</time>
      </trkpt>
      <trkpt lat="46.87892" lon="8.48343">
        <ele>1834</ele>
        <time>2021-08-11T12:56:21.649Z</time>
      </trkpt>
      <trkpt lat="46.87892" lon="8.48343">
        <ele>1834</ele>
        <time>2021-08-11T12:56:22.649Z</time>
      </trkpt>
      <trkpt lat="46.87893" lon="8.48343">
        <ele>1835</ele>
        <time>2021-08-11T12:56:23.648Z</time>
      </trkpt>
      <trkpt lat="46.87893" lon="8.48343">
        <ele>1835</ele>
        <time>2021-08-11T12:56:24.649Z</time>
      </trkpt>
      <trkpt lat="46.87893" lon="8.48344">
        <ele>1836</ele>
        <time>2021-08-11T12:56:25.648Z</time>
      </trkpt>
      <trkpt lat="46.87894" lon="8.48343">
        <ele>1836</ele>
        <time>2021-08-11T12:56:26.649Z</time>
      </trkpt>
      <trkpt lat="46.87894" lon="8.48344">
        <ele>1836</ele>
        <time>2021-08-11T12:56:27.649Z</time>
      </trkpt>
      <trkpt lat="46.87894" lon="8.48344">
        <ele>1836</ele>
        <time>2021-08-11T12:56:28.649Z</time>
      </trkpt>
      <trkpt lat="46.87894" lon="8.48345">
        <ele>1836</ele>
        <time>2021-08-11T12:56:29.649Z</time>
      </trkpt>
      <trkpt lat="46.87895" lon="8.48345">
        <ele>1836</ele>
        <time>2021-08-11T12:56:30.649Z</time>
      </trkpt>
      <trkpt lat="46.87895" lon="8.48346">
        <ele>1836</ele>
        <time>2021-08-11T12:56:31.649Z</time>
      </trkpt>
      <trkpt lat="46.87895" lon="8.48347">
        <ele>1836</ele>
        <time>2021-08-11T12:56:32.649Z</time>
      </trkpt>
      <trkpt lat="46.87895" lon="8.48348">
        <ele>1836</ele>
        <time>2021-08-11T12:56:33.648Z</time>
      </trkpt>
      <trkpt lat="46.87896" lon="8.48349">
        <ele>1836</ele>
        <time>2021-08-11T12:56:34.649Z</time>
      </trkpt>
      <trkpt lat="46.87896" lon="8.4835">
        <ele>1836</ele>
        <time>2021-08-11T12:56:35.649Z</time>
      </trkpt>
      <trkpt lat="46.87896" lon="8.48351">
        <ele>1837</ele>
        <time>2021-08-11T12:56:36.649Z</time>
      </trkpt>
      <trkpt lat="46.87896" lon="8.48352">
        <ele>1837</ele>
        <time>2021-08-11T12:56:37.648Z</time>
      </trkpt>
      <trkpt lat="46.87896" lon="8.48352">
        <ele>1838</ele>
        <time>2021-08-11T12:56:38.648Z</time>
      </trkpt>
      <trkpt lat="46.87897" lon="8.48353">
        <ele>1838</ele>
        <time>2021-08-11T12:56:39.649Z</time>
      </trkpt>
      <trkpt lat="46.87897" lon="8.48353">
        <ele>1838</ele>
        <time>2021-08-11T12:56:40.648Z</time>
      </trkpt>
      <trkpt lat="46.87897" lon="8.48354">
        <ele>1839</ele>
        <time>2021-08-11T12:56:41.649Z</time>
      </trkpt>
      <trkpt lat="46.87897" lon="8.48355">
        <ele>1839</ele>
        <time>2021-08-11T12:56:42.649Z</time>
      </trkpt>
      <trkpt lat="46.87897" lon="8.48356">
        <ele>1839</ele>
        <time>2021-08-11T12:56:43.649Z</time>
      </trkpt>
      <trkpt lat="46.87897" lon="8.48357">
        <ele>1840</ele>
        <time>2021-08-11T12:56:44.649Z</time>
      </trkpt>
      <trkpt lat="46.87897" lon="8.48358">
        <ele>1840</ele>
        <time>2021-08-11T12:56:45.648Z</time>
      </trkpt>
      <trkpt lat="46.87898" lon="8.48358">
        <ele>1840</ele>
        <time>2021-08-11T12:56:46.649Z</time>
      </trkpt>
      <trkpt lat="46.87898" lon="8.48359">
        <ele>1840</ele>
        <time>2021-08-11T12:56:47.648Z</time>
      </trkpt>
      <trkpt lat="46.87898" lon="8.4836">
        <ele>1839</ele>
        <time>2021-08-11T12:56:48.649Z</time>
      </trkpt>
      <trkpt lat="46.87898" lon="8.4836">
        <ele>1839</ele>
        <time>2021-08-11T12:56:49.649Z</time>
      </trkpt>
      <trkpt lat="46.87898" lon="8.48361">
        <ele>1839</ele>
        <time>2021-08-11T12:56:50.649Z</time>
      </trkpt>
      <trkpt lat="46.87899" lon="8.48361">
        <ele>1839</ele>
        <time>2021-08-11T12:56:51.649Z</time>
      </trkpt>
      <trkpt lat="46.87899" lon="8.48362">
        <ele>1839</ele>
        <time>2021-08-11T12:56:52.648Z</time>
      </trkpt>
      <trkpt lat="46.87899" lon="8.48362">
        <ele>1839</ele>
        <time>2021-08-11T12:56:53.648Z</time>
      </trkpt>
      <trkpt lat="46.87899" lon="8.48363">
        <ele>1839</ele>
        <time>2021-08-11T12:56:54.649Z</time>
      </trkpt>
      <trkpt lat="46.879" lon="8.48365">
        <ele>1839</ele>
        <time>2021-08-11T12:56:55.649Z</time>
      </trkpt>
      <trkpt lat="46.87901" lon="8.48365">
        <ele>1840</ele>
        <time>2021-08-11T12:56:56.649Z</time>
      </trkpt>
      <trkpt lat="46.87901" lon="8.48366">
        <ele>1840</ele>
        <time>2021-08-11T12:56:57.648Z</time>
      </trkpt>
      <trkpt lat="46.87901" lon="8.48367">
        <ele>1841</ele>
        <time>2021-08-11T12:56:58.649Z</time>
      </trkpt>
      <trkpt lat="46.87902" lon="8.48368">
        <ele>1841</ele>
        <time>2021-08-11T12:56:59.648Z</time>
      </trkpt>
      <trkpt lat="46.87902" lon="8.4837">
        <ele>1842</ele>
        <time>2021-08-11T12:57:00.648Z</time>
      </trkpt>
      <trkpt lat="46.87902" lon="8.4837">
        <ele>1842</ele>
        <time>2021-08-11T12:57:01.649Z</time>
      </trkpt>
      <trkpt lat="46.87902" lon="8.4837">
        <ele>1842</ele>
        <time>2021-08-11T12:57:02.649Z</time>
      </trkpt>
      <trkpt lat="46.87903" lon="8.4837">
        <ele>1842</ele>
        <time>2021-08-11T12:57:03.649Z</time>
      </trkpt>
      <trkpt lat="46.87903" lon="8.48371">
        <ele>1842</ele>
        <time>2021-08-11T12:57:04.649Z</time>
      </trkpt>
      <trkpt lat="46.87903" lon="8.48372">
        <ele>1842</ele>
        <time>2021-08-11T12:57:05.648Z</time>
      </trkpt>
      <trkpt lat="46.87903" lon="8.48372">
        <ele>1842</ele>
        <time>2021-08-11T12:57:06.648Z</time>
      </trkpt>
      <trkpt lat="46.87904" lon="8.48372">
        <ele>1843</ele>
        <time>2021-08-11T12:57:07.649Z</time>
      </trkpt>
      <trkpt lat="46.87904" lon="8.48373">
        <ele>1843</ele>
        <time>2021-08-11T12:57:08.649Z</time>
      </trkpt>
      <trkpt lat="46.87904" lon="8.48373">
        <ele>1843</ele>
        <time>2021-08-11T12:57:09.649Z</time>
      </trkpt>
      <trkpt lat="46.87904" lon="8.48374">
        <ele>1844</ele>
        <time>2021-08-11T12:57:10.648Z</time>
      </trkpt>
      <trkpt lat="46.87904" lon="8.48375">
        <ele>1844</ele>
        <time>2021-08-11T12:57:11.648Z</time>
      </trkpt>
      <trkpt lat="46.87905" lon="8.48375">
        <ele>1844</ele>
        <time>2021-08-11T12:57:12.648Z</time>
      </trkpt>
      <trkpt lat="46.87905" lon="8.48375">
        <ele>1844</ele>
        <time>2021-08-11T12:57:13.649Z</time>
      </trkpt>
      <trkpt lat="46.87905" lon="8.48375">
        <ele>1843</ele>
        <time>2021-08-11T12:57:14.649Z</time>
      </trkpt>
      <trkpt lat="46.87906" lon="8.48376">
        <ele>1843</ele>
        <time>2021-08-11T12:57:15.649Z</time>
      </trkpt>
      <trkpt lat="46.87906" lon="8.48376">
        <ele>1843</ele>
        <time>2021-08-11T12:57:16.648Z</time>
      </trkpt>
      <trkpt lat="46.87907" lon="8.48376">
        <ele>1843</ele>
        <time>2021-08-11T12:57:17.649Z</time>
      </trkpt>
      <trkpt lat="46.87907" lon="8.48377">
        <ele>1843</ele>
        <time>2021-08-11T12:57:18.648Z</time>
      </trkpt>
      <trkpt lat="46.87907" lon="8.48377">
        <ele>1843</ele>
        <time>2021-08-11T12:57:19.649Z</time>
      </trkpt>
      <trkpt lat="46.87908" lon="8.48378">
        <ele>1843</ele>
        <time>2021-08-11T12:57:20.648Z</time>
      </trkpt>
      <trkpt lat="46.87908" lon="8.48378">
        <ele>1843</ele>
        <time>2021-08-11T12:57:21.648Z</time>
      </trkpt>
      <trkpt lat="46.87908" lon="8.48378">
        <ele>1844</ele>
        <time>2021-08-11T12:57:22.648Z</time>
      </trkpt>
      <trkpt lat="46.87909" lon="8.48379">
        <ele>1844</ele>
        <time>2021-08-11T12:57:23.649Z</time>
      </trkpt>
      <trkpt lat="46.87909" lon="8.48379">
        <ele>1844</ele>
        <time>2021-08-11T12:57:24.649Z</time>
      </trkpt>
      <trkpt lat="46.87909" lon="8.48379">
        <ele>1844</ele>
        <time>2021-08-11T12:57:25.649Z</time>
      </trkpt>
      <trkpt lat="46.8791" lon="8.48379">
        <ele>1844</ele>
        <time>2021-08-11T12:57:26.648Z</time>
      </trkpt>
      <trkpt lat="46.8791" lon="8.48379">
        <ele>1843</ele>
        <time>2021-08-11T12:57:27.648Z</time>
      </trkpt>
      <trkpt lat="46.8791" lon="8.4838">
        <ele>1843</ele>
        <time>2021-08-11T12:57:28.649Z</time>
      </trkpt>
      <trkpt lat="46.87911" lon="8.4838">
        <ele>1843</ele>
        <time>2021-08-11T12:57:29.649Z</time>
      </trkpt>
      <trkpt lat="46.87911" lon="8.48381">
        <ele>1844</ele>
        <time>2021-08-11T12:57:30.649Z</time>
      </trkpt>
      <trkpt lat="46.87911" lon="8.48381">
        <ele>1844</ele>
        <time>2021-08-11T12:57:31.649Z</time>
      </trkpt>
      <trkpt lat="46.87912" lon="8.48382">
        <ele>1845</ele>
        <time>2021-08-11T12:57:32.648Z</time>
      </trkpt>
      <trkpt lat="46.87912" lon="8.48383">
        <ele>1845</ele>
        <time>2021-08-11T12:57:33.648Z</time>
      </trkpt>
      <trkpt lat="46.87913" lon="8.48383">
        <ele>1845</ele>
        <time>2021-08-11T12:57:34.649Z</time>
      </trkpt>
      <trkpt lat="46.87913" lon="8.48384">
        <ele>1845</ele>
        <time>2021-08-11T12:57:35.648Z</time>
      </trkpt>
      <trkpt lat="46.87914" lon="8.48384">
        <ele>1845</ele>
        <time>2021-08-11T12:57:36.648Z</time>
      </trkpt>
      <trkpt lat="46.87914" lon="8.48384">
        <ele>1845</ele>
        <time>2021-08-11T12:57:37.649Z</time>
      </trkpt>
      <trkpt lat="46.87915" lon="8.48384">
        <ele>1845</ele>
        <time>2021-08-11T12:57:38.649Z</time>
      </trkpt>
      <trkpt lat="46.87915" lon="8.48384">
        <ele>1845</ele>
        <time>2021-08-11T12:57:39.649Z</time>
      </trkpt>
      <trkpt lat="46.87916" lon="8.48385">
        <ele>1846</ele>
        <time>2021-08-11T12:57:40.648Z</time>
      </trkpt>
      <trkpt lat="46.87916" lon="8.48385">
        <ele>1846</ele>
        <time>2021-08-11T12:57:41.649Z</time>
      </trkpt>
      <trkpt lat="46.87916" lon="8.48385">
        <ele>1846</ele>
        <time>2021-08-11T12:57:42.649Z</time>
      </trkpt>
      <trkpt lat="46.87917" lon="8.48386">
        <ele>1846</ele>
        <time>2021-08-11T12:57:43.649Z</time>
      </trkpt>
      <trkpt lat="46.87917" lon="8.48386">
        <ele>1846</ele>
        <time>2021-08-11T12:57:44.649Z</time>
      </trkpt>
      <trkpt lat="46.87918" lon="8.48387">
        <ele>1846</ele>
        <time>2021-08-11T12:57:45.649Z</time>
      </trkpt>
      <trkpt lat="46.87918" lon="8.48387">
        <ele>1846</ele>
        <time>2021-08-11T12:57:46.648Z</time>
      </trkpt>
      <trkpt lat="46.87918" lon="8.48387">
        <ele>1846</ele>
        <time>2021-08-11T12:57:47.649Z</time>
      </trkpt>
      <trkpt lat="46.87919" lon="8.48387">
        <ele>1846</ele>
        <time>2021-08-11T12:57:48.649Z</time>
      </trkpt>
      <trkpt lat="46.87919" lon="8.48388">
        <ele>1846</ele>
        <time>2021-08-11T12:57:49.649Z</time>
      </trkpt>
      <trkpt lat="46.8792" lon="8.48388">
        <ele>1846</ele>
        <time>2021-08-11T12:57:50.649Z</time>
      </trkpt>
      <trkpt lat="46.8792" lon="8.48389">
        <ele>1846</ele>
        <time>2021-08-11T12:57:51.649Z</time>
      </trkpt>
      <trkpt lat="46.87921" lon="8.48389">
        <ele>1846</ele>
        <time>2021-08-11T12:57:52.649Z</time>
      </trkpt>
      <trkpt lat="46.87921" lon="8.4839">
        <ele>1846</ele>
        <time>2021-08-11T12:57:53.649Z</time>
      </trkpt>
      <trkpt lat="46.87921" lon="8.4839">
        <ele>1846</ele>
        <time>2021-08-11T12:57:54.648Z</time>
      </trkpt>
      <trkpt lat="46.87922" lon="8.4839">
        <ele>1846</ele>
        <time>2021-08-11T12:57:55.648Z</time>
      </trkpt>
      <trkpt lat="46.87922" lon="8.48391">
        <ele>1846</ele>
        <time>2021-08-11T12:57:56.649Z</time>
      </trkpt>
      <trkpt lat="46.87923" lon="8.48391">
        <ele>1846</ele>
        <time>2021-08-11T12:57:57.648Z</time>
      </trkpt>
      <trkpt lat="46.87923" lon="8.48392">
        <ele>1847</ele>
        <time>2021-08-11T12:57:58.649Z</time>
      </trkpt>
      <trkpt lat="46.87923" lon="8.48393">
        <ele>1847</ele>
        <time>2021-08-11T12:57:59.649Z</time>
      </trkpt>
      <trkpt lat="46.87924" lon="8.48394">
        <ele>1847</ele>
        <time>2021-08-11T12:58:00.648Z</time>
      </trkpt>
      <trkpt lat="46.87924" lon="8.48395">
        <ele>1847</ele>
        <time>2021-08-11T12:58:01.649Z</time>
      </trkpt>
      <trkpt lat="46.87924" lon="8.48395">
        <ele>1846</ele>
        <time>2021-08-11T12:58:02.649Z</time>
      </trkpt>
      <trkpt lat="46.87925" lon="8.48396">
        <ele>1847</ele>
        <time>2021-08-11T12:58:03.649Z</time>
      </trkpt>
      <trkpt lat="46.87925" lon="8.48396">
        <ele>1847</ele>
        <time>2021-08-11T12:58:04.649Z</time>
      </trkpt>
      <trkpt lat="46.87926" lon="8.48397">
        <ele>1848</ele>
        <time>2021-08-11T12:58:05.649Z</time>
      </trkpt>
      <trkpt lat="46.87926" lon="8.48397">
        <ele>1848</ele>
        <time>2021-08-11T12:58:06.648Z</time>
      </trkpt>
      <trkpt lat="46.87926" lon="8.48398">
        <ele>1848</ele>
        <time>2021-08-11T12:58:07.649Z</time>
      </trkpt>
      <trkpt lat="46.87927" lon="8.48399">
        <ele>1849</ele>
        <time>2021-08-11T12:58:08.649Z</time>
      </trkpt>
      <trkpt lat="46.87927" lon="8.484">
        <ele>1849</ele>
        <time>2021-08-11T12:58:09.649Z</time>
      </trkpt>
      <trkpt lat="46.87928" lon="8.48401">
        <ele>1849</ele>
        <time>2021-08-11T12:58:10.649Z</time>
      </trkpt>
      <trkpt lat="46.87928" lon="8.48401">
        <ele>1849</ele>
        <time>2021-08-11T12:58:11.648Z</time>
      </trkpt>
      <trkpt lat="46.87929" lon="8.48402">
        <ele>1849</ele>
        <time>2021-08-11T12:58:15.631Z</time>
      </trkpt>
      <trkpt lat="46.87929" lon="8.48402">
        <ele>1849</ele>
        <time>2021-08-11T12:58:16.631Z</time>
      </trkpt>
      <trkpt lat="46.8793" lon="8.48402">
        <ele>1849</ele>
        <time>2021-08-11T12:58:17.631Z</time>
      </trkpt>
      <trkpt lat="46.87931" lon="8.48402">
        <ele>1849</ele>
        <time>2021-08-11T12:58:27.625Z</time>
      </trkpt>
      <trkpt lat="46.87931" lon="8.48402">
        <ele>1850</ele>
        <time>2021-08-11T12:58:28.624Z</time>
      </trkpt>
      <trkpt lat="46.87931" lon="8.48402">
        <ele>1850</ele>
        <time>2021-08-11T12:58:44.524Z</time>
      </trkpt>
      <trkpt lat="46.87932" lon="8.48403">
        <ele>1850</ele>
        <time>2021-08-11T12:58:59.295Z</time>
      </trkpt>
      <trkpt lat="46.87932" lon="8.48403">
        <ele>1851</ele>
        <time>2021-08-11T12:59:00.295Z</time>
      </trkpt>
      <trkpt lat="46.87933" lon="8.48403">
        <ele>1851</ele>
        <time>2021-08-11T12:59:07.138Z</time>
      </trkpt>
      <trkpt lat="46.87933" lon="8.48403">
        <ele>1851</ele>
        <time>2021-08-11T12:59:08.139Z</time>
      </trkpt>
      <trkpt lat="46.87934" lon="8.48402">
        <ele>1851</ele>
        <time>2021-08-11T12:59:09.139Z</time>
      </trkpt>
      <trkpt lat="46.87935" lon="8.48402">
        <ele>1851</ele>
        <time>2021-08-11T12:59:32.877Z</time>
      </trkpt>
      <trkpt lat="46.87936" lon="8.48402">
        <ele>1851</ele>
        <time>2021-08-11T12:59:33.876Z</time>
      </trkpt>
      <trkpt lat="46.87936" lon="8.48401">
        <ele>1852</ele>
        <time>2021-08-11T12:59:34.877Z</time>
      </trkpt>
      <trkpt lat="46.87936" lon="8.48401">
        <ele>1852</ele>
        <time>2021-08-11T12:59:35.877Z</time>
      </trkpt>
      <trkpt lat="46.87937" lon="8.484">
        <ele>1852</ele>
        <time>2021-08-11T13:00:02.002Z</time>
      </trkpt>
      <trkpt lat="46.87937" lon="8.48399">
        <ele>1852</ele>
        <time>2021-08-11T13:00:03.002Z</time>
      </trkpt>
      <trkpt lat="46.87938" lon="8.48398">
        <ele>1852</ele>
        <time>2021-08-11T13:00:04.001Z</time>
      </trkpt>
      <trkpt lat="46.87939" lon="8.48396">
        <ele>1853</ele>
        <time>2021-08-11T13:00:05.002Z</time>
      </trkpt>
      <trkpt lat="46.87938" lon="8.48395">
        <ele>1853</ele>
        <time>2021-08-11T13:00:06.002Z</time>
      </trkpt>
      <trkpt lat="46.87938" lon="8.48394">
        <ele>1853</ele>
        <time>2021-08-11T13:00:07.002Z</time>
      </trkpt>
      <trkpt lat="46.87937" lon="8.48393">
        <ele>1854</ele>
        <time>2021-08-11T13:00:08.001Z</time>
      </trkpt>
      <trkpt lat="46.87937" lon="8.48392">
        <ele>1854</ele>
        <time>2021-08-11T13:00:09.002Z</time>
      </trkpt>
      <trkpt lat="46.87937" lon="8.48391">
        <ele>1854</ele>
        <time>2021-08-11T13:00:10.002Z</time>
      </trkpt>
      <trkpt lat="46.87937" lon="8.4839">
        <ele>1853</ele>
        <time>2021-08-11T13:00:11.002Z</time>
      </trkpt>
      <trkpt lat="46.87936" lon="8.48389">
        <ele>1853</ele>
        <time>2021-08-11T13:00:12.002Z</time>
      </trkpt>
      <trkpt lat="46.87936" lon="8.48388">
        <ele>1853</ele>
        <time>2021-08-11T13:00:13.001Z</time>
      </trkpt>
      <trkpt lat="46.87936" lon="8.48387">
        <ele>1854</ele>
        <time>2021-08-11T13:00:14.002Z</time>
      </trkpt>
      <trkpt lat="46.87936" lon="8.48386">
        <ele>1854</ele>
        <time>2021-08-11T13:00:15.002Z</time>
      </trkpt>
      <trkpt lat="46.87936" lon="8.48384">
        <ele>1854</ele>
        <time>2021-08-11T13:00:16.002Z</time>
      </trkpt>
      <trkpt lat="46.87936" lon="8.48384">
        <ele>1854</ele>
        <time>2021-08-11T13:00:17.002Z</time>
      </trkpt>
      <trkpt lat="46.87935" lon="8.48383">
        <ele>1854</ele>
        <time>2021-08-11T13:00:18.001Z</time>
      </trkpt>
      <trkpt lat="46.87935" lon="8.48383">
        <ele>1855</ele>
        <time>2021-08-11T13:00:19.002Z</time>
      </trkpt>
      <trkpt lat="46.87935" lon="8.48382">
        <ele>1855</ele>
        <time>2021-08-11T13:00:20.002Z</time>
      </trkpt>
      <trkpt lat="46.87935" lon="8.48381">
        <ele>1855</ele>
        <time>2021-08-11T13:00:21.002Z</time>
      </trkpt>
      <trkpt lat="46.87935" lon="8.48379">
        <ele>1855</ele>
        <time>2021-08-11T13:00:22.002Z</time>
      </trkpt>
      <trkpt lat="46.87934" lon="8.48378">
        <ele>1855</ele>
        <time>2021-08-11T13:00:23.001Z</time>
      </trkpt>
      <trkpt lat="46.87934" lon="8.48378">
        <ele>1855</ele>
        <time>2021-08-11T13:00:24.002Z</time>
      </trkpt>
      <trkpt lat="46.87933" lon="8.48377">
        <ele>1855</ele>
        <time>2021-08-11T13:00:25.002Z</time>
      </trkpt>
      <trkpt lat="46.87933" lon="8.48376">
        <ele>1855</ele>
        <time>2021-08-11T13:00:26.002Z</time>
      </trkpt>
      <trkpt lat="46.87932" lon="8.48376">
        <ele>1854</ele>
        <time>2021-08-11T13:00:27.002Z</time>
      </trkpt>
      <trkpt lat="46.87932" lon="8.48375">
        <ele>1854</ele>
        <time>2021-08-11T13:00:28.001Z</time>
      </trkpt>
      <trkpt lat="46.87932" lon="8.48374">
        <ele>1854</ele>
        <time>2021-08-11T13:00:29.002Z</time>
      </trkpt>
      <trkpt lat="46.87931" lon="8.48373">
        <ele>1855</ele>
        <time>2021-08-11T13:00:30.002Z</time>
      </trkpt>
      <trkpt lat="46.87931" lon="8.48372">
        <ele>1855</ele>
        <time>2021-08-11T13:00:31.002Z</time>
      </trkpt>
      <trkpt lat="46.87931" lon="8.48372">
        <ele>1856</ele>
        <time>2021-08-11T13:00:32.002Z</time>
      </trkpt>
      <trkpt lat="46.87931" lon="8.48371">
        <ele>1856</ele>
        <time>2021-08-11T13:00:33.002Z</time>
      </trkpt>
      <trkpt lat="46.8793" lon="8.4837">
        <ele>1856</ele>
        <time>2021-08-11T13:00:34.001Z</time>
      </trkpt>
      <trkpt lat="46.8793" lon="8.48369">
        <ele>1856</ele>
        <time>2021-08-11T13:00:35.001Z</time>
      </trkpt>
      <trkpt lat="46.8793" lon="8.48368">
        <ele>1856</ele>
        <time>2021-08-11T13:00:36.001Z</time>
      </trkpt>
      <trkpt lat="46.8793" lon="8.48367">
        <ele>1856</ele>
        <time>2021-08-11T13:00:40.023Z</time>
      </trkpt>
      <trkpt lat="46.8793" lon="8.48366">
        <ele>1856</ele>
        <time>2021-08-11T13:00:41.023Z</time>
      </trkpt>
      <trkpt lat="46.87929" lon="8.48365">
        <ele>1856</ele>
        <time>2021-08-11T13:00:42.023Z</time>
      </trkpt>
      <trkpt lat="46.87929" lon="8.48364">
        <ele>1856</ele>
        <time>2021-08-11T13:00:43.023Z</time>
      </trkpt>
      <trkpt lat="46.87929" lon="8.48363">
        <ele>1856</ele>
        <time>2021-08-11T13:00:44.022Z</time>
      </trkpt>
      <trkpt lat="46.87929" lon="8.48362">
        <ele>1856</ele>
        <time>2021-08-11T13:00:45.023Z</time>
      </trkpt>
      <trkpt lat="46.8793" lon="8.48361">
        <ele>1856</ele>
        <time>2021-08-11T13:00:46.023Z</time>
      </trkpt>
      <trkpt lat="46.8793" lon="8.4836">
        <ele>1856</ele>
        <time>2021-08-11T13:00:47.023Z</time>
      </trkpt>
      <trkpt lat="46.8793" lon="8.48359">
        <ele>1856</ele>
        <time>2021-08-11T13:00:48.023Z</time>
      </trkpt>
      <trkpt lat="46.8793" lon="8.48358">
        <ele>1856</ele>
        <time>2021-08-11T13:00:49.022Z</time>
      </trkpt>
      <trkpt lat="46.8793" lon="8.48357">
        <ele>1856</ele>
        <time>2021-08-11T13:00:50.022Z</time>
      </trkpt>
      <trkpt lat="46.8793" lon="8.48356">
        <ele>1856</ele>
        <time>2021-08-11T13:00:51.023Z</time>
      </trkpt>
      <trkpt lat="46.8793" lon="8.48355">
        <ele>1856</ele>
        <time>2021-08-11T13:00:52.023Z</time>
      </trkpt>
      <trkpt lat="46.8793" lon="8.48354">
        <ele>1856</ele>
        <time>2021-08-11T13:00:53.023Z</time>
      </trkpt>
      <trkpt lat="46.8793" lon="8.48353">
        <ele>1857</ele>
        <time>2021-08-11T13:00:54.023Z</time>
      </trkpt>
      <trkpt lat="46.87929" lon="8.48352">
        <ele>1857</ele>
        <time>2021-08-11T13:00:55.022Z</time>
      </trkpt>
      <trkpt lat="46.87929" lon="8.48352">
        <ele>1858</ele>
        <time>2021-08-11T13:00:59.145Z</time>
      </trkpt>
      <trkpt lat="46.87928" lon="8.4835">
        <ele>1858</ele>
        <time>2021-08-11T13:01:00.145Z</time>
      </trkpt>
      <trkpt lat="46.87927" lon="8.48349">
        <ele>1859</ele>
        <time>2021-08-11T13:01:01.144Z</time>
      </trkpt>
      <trkpt lat="46.87926" lon="8.48348">
        <ele>1859</ele>
        <time>2021-08-11T13:01:11.247Z</time>
      </trkpt>
      <trkpt lat="46.87925" lon="8.48347">
        <ele>1860</ele>
        <time>2021-08-11T13:01:12.246Z</time>
      </trkpt>
      <trkpt lat="46.87925" lon="8.48346">
        <ele>1860</ele>
        <time>2021-08-11T13:01:13.247Z</time>
      </trkpt>
      <trkpt lat="46.87925" lon="8.48344">
        <ele>1860</ele>
        <time>2021-08-11T13:01:14.247Z</time>
      </trkpt>
      <trkpt lat="46.87925" lon="8.48343">
        <ele>1860</ele>
        <time>2021-08-11T13:01:15.247Z</time>
      </trkpt>
      <trkpt lat="46.87925" lon="8.48342">
        <ele>1860</ele>
        <time>2021-08-11T13:01:16.247Z</time>
      </trkpt>
      <trkpt lat="46.87924" lon="8.48342">
        <ele>1860</ele>
        <time>2021-08-11T13:01:17.247Z</time>
      </trkpt>
      <trkpt lat="46.87924" lon="8.48342">
        <ele>1860</ele>
        <time>2021-08-11T13:01:18.246Z</time>
      </trkpt>
      <trkpt lat="46.87924" lon="8.48342">
        <ele>1860</ele>
        <time>2021-08-11T13:01:19.247Z</time>
      </trkpt>
      <trkpt lat="46.87924" lon="8.48341">
        <ele>1861</ele>
        <time>2021-08-11T13:01:20.246Z</time>
      </trkpt>
      <trkpt lat="46.87924" lon="8.48342">
        <ele>1861</ele>
        <time>2021-08-11T13:01:21.247Z</time>
      </trkpt>
      <trkpt lat="46.87924" lon="8.48342">
        <ele>1861</ele>
        <time>2021-08-11T13:01:22.246Z</time>
      </trkpt>
      <trkpt lat="46.87924" lon="8.48343">
        <ele>1861</ele>
        <time>2021-08-11T13:01:23.247Z</time>
      </trkpt>
      <trkpt lat="46.87925" lon="8.48342">
        <ele>1861</ele>
        <time>2021-08-11T13:01:24.247Z</time>
      </trkpt>
      <trkpt lat="46.87924" lon="8.48342">
        <ele>1861</ele>
        <time>2021-08-11T13:01:25.248Z</time>
      </trkpt>
      <trkpt lat="46.87924" lon="8.48343">
        <ele>1860</ele>
        <time>2021-08-11T13:01:26.247Z</time>
      </trkpt>
      <trkpt lat="46.87923" lon="8.48343">
        <ele>1860</ele>
        <time>2021-08-11T13:01:27.248Z</time>
      </trkpt>
      <trkpt lat="46.87923" lon="8.48343">
        <ele>1860</ele>
        <time>2021-08-11T13:01:28.248Z</time>
      </trkpt>
      <trkpt lat="46.87923" lon="8.48342">
        <ele>1859</ele>
        <time>2021-08-11T13:01:29.248Z</time>
      </trkpt>
      <trkpt lat="46.87923" lon="8.48342">
        <ele>1858</ele>
        <time>2021-08-11T13:01:30.249Z</time>
      </trkpt>
      <trkpt lat="46.87924" lon="8.48342">
        <ele>1858</ele>
        <time>2021-08-11T13:01:31.248Z</time>
      </trkpt>
      <trkpt lat="46.87924" lon="8.48341">
        <ele>1858</ele>
        <time>2021-08-11T13:01:32.249Z</time>
      </trkpt>
      <trkpt lat="46.87924" lon="8.48341">
        <ele>1858</ele>
        <time>2021-08-11T13:01:33.249Z</time>
      </trkpt>
      <trkpt lat="46.87924" lon="8.48342">
        <ele>1857</ele>
        <time>2021-08-11T13:01:34.248Z</time>
      </trkpt>
      <trkpt lat="46.87924" lon="8.48342">
        <ele>1855</ele>
        <time>2021-08-11T13:01:35.249Z</time>
      </trkpt>
      <trkpt lat="46.87924" lon="8.48343">
        <ele>1855</ele>
        <time>2021-08-11T13:01:36.248Z</time>
      </trkpt>
      <trkpt lat="46.87924" lon="8.48343">
        <ele>1855</ele>
        <time>2021-08-11T13:01:37.248Z</time>
      </trkpt>
      <trkpt lat="46.87927" lon="8.48341">
        <ele>1861</ele>
        <time>2021-08-11T13:01:38.248Z</time>
      </trkpt>
      <trkpt lat="46.87927" lon="8.48341">
        <ele>1860</ele>
        <time>2021-08-11T13:01:39.249Z</time>
      </trkpt>
      <trkpt lat="46.87924" lon="8.4834">
        <ele>1860</ele>
        <time>2021-08-11T13:01:40.250Z</time>
      </trkpt>
      <trkpt lat="46.87924" lon="8.48339">
        <ele>1860</ele>
        <time>2021-08-11T13:01:41.250Z</time>
      </trkpt>
      <trkpt lat="46.87924" lon="8.48338">
        <ele>1860</ele>
        <time>2021-08-11T13:01:42.249Z</time>
      </trkpt>
      <trkpt lat="46.87925" lon="8.48337">
        <ele>1860</ele>
        <time>2021-08-11T13:01:43.250Z</time>
      </trkpt>
      <trkpt lat="46.87925" lon="8.48336">
        <ele>1859</ele>
        <time>2021-08-11T13:01:44.249Z</time>
      </trkpt>
      <trkpt lat="46.87925" lon="8.48335">
        <ele>1859</ele>
        <time>2021-08-11T13:01:45.250Z</time>
      </trkpt>
      <trkpt lat="46.87927" lon="8.48335">
        <ele>1859</ele>
        <time>2021-08-11T13:01:46.249Z</time>
      </trkpt>
      <trkpt lat="46.87928" lon="8.48335">
        <ele>1859</ele>
        <time>2021-08-11T13:01:47.249Z</time>
      </trkpt>
      <trkpt lat="46.87928" lon="8.48335">
        <ele>1859</ele>
        <time>2021-08-11T13:01:48.250Z</time>
      </trkpt>
      <trkpt lat="46.87929" lon="8.48334">
        <ele>1859</ele>
        <time>2021-08-11T13:01:49.250Z</time>
      </trkpt>
      <trkpt lat="46.87928" lon="8.48333">
        <ele>1859</ele>
        <time>2021-08-11T13:01:50.250Z</time>
      </trkpt>
      <trkpt lat="46.87928" lon="8.48332">
        <ele>1858</ele>
        <time>2021-08-11T13:01:51.249Z</time>
      </trkpt>
      <trkpt lat="46.87928" lon="8.48332">
        <ele>1858</ele>
        <time>2021-08-11T13:01:52.249Z</time>
      </trkpt>
      <trkpt lat="46.87928" lon="8.48331">
        <ele>1858</ele>
        <time>2021-08-11T13:01:53.250Z</time>
      </trkpt>
      <trkpt lat="46.87928" lon="8.4833">
        <ele>1858</ele>
        <time>2021-08-11T13:01:54.249Z</time>
      </trkpt>
      <trkpt lat="46.87927" lon="8.48329">
        <ele>1859</ele>
        <time>2021-08-11T13:01:55.250Z</time>
      </trkpt>
      <trkpt lat="46.87927" lon="8.48328">
        <ele>1859</ele>
        <time>2021-08-11T13:01:56.250Z</time>
      </trkpt>
      <trkpt lat="46.87925" lon="8.48328">
        <ele>1859</ele>
        <time>2021-08-11T13:01:57.249Z</time>
      </trkpt>
      <trkpt lat="46.87925" lon="8.48327">
        <ele>1860</ele>
        <time>2021-08-11T13:01:58.250Z</time>
      </trkpt>
      <trkpt lat="46.87925" lon="8.48327">
        <ele>1860</ele>
        <time>2021-08-11T13:01:59.249Z</time>
      </trkpt>
      <trkpt lat="46.87926" lon="8.48326">
        <ele>1860</ele>
        <time>2021-08-11T13:02:06.275Z</time>
      </trkpt>
      <trkpt lat="46.87925" lon="8.48325">
        <ele>1860</ele>
        <time>2021-08-11T13:02:07.276Z</time>
      </trkpt>
      <trkpt lat="46.87923" lon="8.48325">
        <ele>1860</ele>
        <time>2021-08-11T13:02:08.276Z</time>
      </trkpt>
      <trkpt lat="46.87922" lon="8.48324">
        <ele>1860</ele>
        <time>2021-08-11T13:02:09.276Z</time>
      </trkpt>
      <trkpt lat="46.87922" lon="8.48324">
        <ele>1860</ele>
        <time>2021-08-11T13:02:10.276Z</time>
      </trkpt>
      <trkpt lat="46.87921" lon="8.48323">
        <ele>1860</ele>
        <time>2021-08-11T13:02:11.276Z</time>
      </trkpt>
      <trkpt lat="46.87921" lon="8.48322">
        <ele>1860</ele>
        <time>2021-08-11T13:02:12.275Z</time>
      </trkpt>
      <trkpt lat="46.87921" lon="8.48321">
        <ele>1860</ele>
        <time>2021-08-11T13:02:13.275Z</time>
      </trkpt>
      <trkpt lat="46.87922" lon="8.4832">
        <ele>1860</ele>
        <time>2021-08-11T13:02:14.275Z</time>
      </trkpt>
      <trkpt lat="46.87923" lon="8.48319">
        <ele>1860</ele>
        <time>2021-08-11T13:02:15.275Z</time>
      </trkpt>
      <trkpt lat="46.87923" lon="8.48318">
        <ele>1860</ele>
        <time>2021-08-11T13:02:16.275Z</time>
      </trkpt>
      <trkpt lat="46.87923" lon="8.48318">
        <ele>1861</ele>
        <time>2021-08-11T13:02:17.275Z</time>
      </trkpt>
      <trkpt lat="46.87922" lon="8.48317">
        <ele>1861</ele>
        <time>2021-08-11T13:02:18.275Z</time>
      </trkpt>
      <trkpt lat="46.87922" lon="8.48316">
        <ele>1862</ele>
        <time>2021-08-11T13:02:19.275Z</time>
      </trkpt>
      <trkpt lat="46.87922" lon="8.48315">
        <ele>1862</ele>
        <time>2021-08-11T13:02:20.276Z</time>
      </trkpt>
      <trkpt lat="46.87922" lon="8.48314">
        <ele>1863</ele>
        <time>2021-08-11T13:02:21.275Z</time>
      </trkpt>
      <trkpt lat="46.87922" lon="8.48313">
        <ele>1863</ele>
        <time>2021-08-11T13:02:22.276Z</time>
      </trkpt>
      <trkpt lat="46.87921" lon="8.48312">
        <ele>1864</ele>
        <time>2021-08-11T13:02:23.276Z</time>
      </trkpt>
      <trkpt lat="46.87921" lon="8.48311">
        <ele>1864</ele>
        <time>2021-08-11T13:02:24.275Z</time>
      </trkpt>
      <trkpt lat="46.87921" lon="8.4831">
        <ele>1865</ele>
        <time>2021-08-11T13:02:25.275Z</time>
      </trkpt>
      <trkpt lat="46.8792" lon="8.48309">
        <ele>1865</ele>
        <time>2021-08-11T13:02:26.275Z</time>
      </trkpt>
      <trkpt lat="46.8792" lon="8.48307">
        <ele>1866</ele>
        <time>2021-08-11T13:02:27.276Z</time>
      </trkpt>
      <trkpt lat="46.8792" lon="8.48305">
        <ele>1866</ele>
        <time>2021-08-11T13:02:28.276Z</time>
      </trkpt>
      <trkpt lat="46.87919" lon="8.48304">
        <ele>1866</ele>
        <time>2021-08-11T13:02:29.276Z</time>
      </trkpt>
      <trkpt lat="46.87919" lon="8.48303">
        <ele>1867</ele>
        <time>2021-08-11T13:02:30.275Z</time>
      </trkpt>
      <trkpt lat="46.87919" lon="8.48303">
        <ele>1867</ele>
        <time>2021-08-11T13:02:31.276Z</time>
      </trkpt>
      <trkpt lat="46.87919" lon="8.48302">
        <ele>1868</ele>
        <time>2021-08-11T13:02:32.276Z</time>
      </trkpt>
      <trkpt lat="46.87919" lon="8.48301">
        <ele>1868</ele>
        <time>2021-08-11T13:02:33.276Z</time>
      </trkpt>
      <trkpt lat="46.87919" lon="8.483">
        <ele>1869</ele>
        <time>2021-08-11T13:02:34.276Z</time>
      </trkpt>
      <trkpt lat="46.87919" lon="8.48299">
        <ele>1869</ele>
        <time>2021-08-11T13:02:35.275Z</time>
      </trkpt>
      <trkpt lat="46.8792" lon="8.48298">
        <ele>1870</ele>
        <time>2021-08-11T13:02:36.275Z</time>
      </trkpt>
      <trkpt lat="46.8792" lon="8.48297">
        <ele>1870</ele>
        <time>2021-08-11T13:02:37.276Z</time>
      </trkpt>
      <trkpt lat="46.87919" lon="8.48296">
        <ele>1870</ele>
        <time>2021-08-11T13:02:38.276Z</time>
      </trkpt>
      <trkpt lat="46.87919" lon="8.48295">
        <ele>1870</ele>
        <time>2021-08-11T13:02:39.275Z</time>
      </trkpt>
      <trkpt lat="46.87919" lon="8.48293">
        <ele>1870</ele>
        <time>2021-08-11T13:02:40.275Z</time>
      </trkpt>
      <trkpt lat="46.8792" lon="8.48291">
        <ele>1870</ele>
        <time>2021-08-11T13:02:41.275Z</time>
      </trkpt>
      <trkpt lat="46.8792" lon="8.4829">
        <ele>1870</ele>
        <time>2021-08-11T13:02:42.276Z</time>
      </trkpt>
      <trkpt lat="46.87919" lon="8.48288">
        <ele>1870</ele>
        <time>2021-08-11T13:02:43.275Z</time>
      </trkpt>
      <trkpt lat="46.87919" lon="8.48288">
        <ele>1870</ele>
        <time>2021-08-11T13:02:44.276Z</time>
      </trkpt>
      <trkpt lat="46.87918" lon="8.48287">
        <ele>1870</ele>
        <time>2021-08-11T13:02:45.275Z</time>
      </trkpt>
      <trkpt lat="46.87916" lon="8.48286">
        <ele>1870</ele>
        <time>2021-08-11T13:02:46.275Z</time>
      </trkpt>
      <trkpt lat="46.87916" lon="8.48285">
        <ele>1870</ele>
        <time>2021-08-11T13:02:47.276Z</time>
      </trkpt>
      <trkpt lat="46.87914" lon="8.48285">
        <ele>1870</ele>
        <time>2021-08-11T13:02:48.275Z</time>
      </trkpt>
      <trkpt lat="46.87914" lon="8.48285">
        <ele>1870</ele>
        <time>2021-08-11T13:02:49.276Z</time>
      </trkpt>
      <trkpt lat="46.87914" lon="8.48284">
        <ele>1870</ele>
        <time>2021-08-11T13:02:50.275Z</time>
      </trkpt>
      <trkpt lat="46.87914" lon="8.48284">
        <ele>1870</ele>
        <time>2021-08-11T13:02:51.275Z</time>
      </trkpt>
      <trkpt lat="46.87915" lon="8.48284">
        <ele>1870</ele>
        <time>2021-08-11T13:02:52.276Z</time>
      </trkpt>
      <trkpt lat="46.87914" lon="8.48283">
        <ele>1869</ele>
        <time>2021-08-11T13:02:53.275Z</time>
      </trkpt>
      <trkpt lat="46.87913" lon="8.48282">
        <ele>1869</ele>
        <time>2021-08-11T13:02:54.276Z</time>
      </trkpt>
      <trkpt lat="46.87913" lon="8.48281">
        <ele>1868</ele>
        <time>2021-08-11T13:02:55.275Z</time>
      </trkpt>
      <trkpt lat="46.87913" lon="8.48279">
        <ele>1868</ele>
        <time>2021-08-11T13:02:56.276Z</time>
      </trkpt>
      <trkpt lat="46.87912" lon="8.48277">
        <ele>1867</ele>
        <time>2021-08-11T13:02:57.275Z</time>
      </trkpt>
      <trkpt lat="46.87912" lon="8.48276">
        <ele>1867</ele>
        <time>2021-08-11T13:02:58.276Z</time>
      </trkpt>
      <trkpt lat="46.87911" lon="8.48275">
        <ele>1866</ele>
        <time>2021-08-11T13:02:59.276Z</time>
      </trkpt>
      <trkpt lat="46.87911" lon="8.48273">
        <ele>1865</ele>
        <time>2021-08-11T13:03:00.276Z</time>
      </trkpt>
      <trkpt lat="46.87911" lon="8.48273">
        <ele>1865</ele>
        <time>2021-08-11T13:03:01.275Z</time>
      </trkpt>
      <trkpt lat="46.87911" lon="8.48272">
        <ele>1864</ele>
        <time>2021-08-11T13:03:02.275Z</time>
      </trkpt>
      <trkpt lat="46.87911" lon="8.48271">
        <ele>1864</ele>
        <time>2021-08-11T13:03:03.276Z</time>
      </trkpt>
      <trkpt lat="46.87911" lon="8.4827">
        <ele>1864</ele>
        <time>2021-08-11T13:03:04.276Z</time>
      </trkpt>
      <trkpt lat="46.87912" lon="8.48269">
        <ele>1863</ele>
        <time>2021-08-11T13:03:05.275Z</time>
      </trkpt>
      <trkpt lat="46.87912" lon="8.48267">
        <ele>1863</ele>
        <time>2021-08-11T13:03:06.275Z</time>
      </trkpt>
      <trkpt lat="46.87912" lon="8.48266">
        <ele>1864</ele>
        <time>2021-08-11T13:03:07.276Z</time>
      </trkpt>
      <trkpt lat="46.87912" lon="8.48265">
        <ele>1864</ele>
        <time>2021-08-11T13:03:08.275Z</time>
      </trkpt>
      <trkpt lat="46.87912" lon="8.48264">
        <ele>1864</ele>
        <time>2021-08-11T13:03:09.276Z</time>
      </trkpt>
      <trkpt lat="46.87912" lon="8.48263">
        <ele>1864</ele>
        <time>2021-08-11T13:03:10.275Z</time>
      </trkpt>
      <trkpt lat="46.87912" lon="8.48262">
        <ele>1864</ele>
        <time>2021-08-11T13:03:11.275Z</time>
      </trkpt>
      <trkpt lat="46.87912" lon="8.4826">
        <ele>1864</ele>
        <time>2021-08-11T13:03:12.275Z</time>
      </trkpt>
      <trkpt lat="46.87913" lon="8.48259">
        <ele>1865</ele>
        <time>2021-08-11T13:03:13.276Z</time>
      </trkpt>
      <trkpt lat="46.87913" lon="8.48258">
        <ele>1865</ele>
        <time>2021-08-11T13:03:14.275Z</time>
      </trkpt>
      <trkpt lat="46.87914" lon="8.48256">
        <ele>1866</ele>
        <time>2021-08-11T13:03:15.276Z</time>
      </trkpt>
      <trkpt lat="46.87914" lon="8.48255">
        <ele>1866</ele>
        <time>2021-08-11T13:03:16.275Z</time>
      </trkpt>
      <trkpt lat="46.87913" lon="8.48254">
        <ele>1867</ele>
        <time>2021-08-11T13:03:17.276Z</time>
      </trkpt>
      <trkpt lat="46.87913" lon="8.48253">
        <ele>1868</ele>
        <time>2021-08-11T13:03:18.275Z</time>
      </trkpt>
      <trkpt lat="46.87912" lon="8.48252">
        <ele>1869</ele>
        <time>2021-08-11T13:03:19.276Z</time>
      </trkpt>
      <trkpt lat="46.8791" lon="8.48251">
        <ele>1870</ele>
        <time>2021-08-11T13:03:20.275Z</time>
      </trkpt>
      <trkpt lat="46.87909" lon="8.4825">
        <ele>1870</ele>
        <time>2021-08-11T13:03:21.276Z</time>
      </trkpt>
      <trkpt lat="46.87908" lon="8.48249">
        <ele>1871</ele>
        <time>2021-08-11T13:03:22.275Z</time>
      </trkpt>
      <trkpt lat="46.87907" lon="8.48247">
        <ele>1871</ele>
        <time>2021-08-11T13:03:23.276Z</time>
      </trkpt>
      <trkpt lat="46.87907" lon="8.48246">
        <ele>1872</ele>
        <time>2021-08-11T13:03:24.276Z</time>
      </trkpt>
      <trkpt lat="46.87909" lon="8.48245">
        <ele>1873</ele>
        <time>2021-08-11T13:03:25.275Z</time>
      </trkpt>
      <trkpt lat="46.8791" lon="8.48244">
        <ele>1873</ele>
        <time>2021-08-11T13:03:26.276Z</time>
      </trkpt>
      <trkpt lat="46.8791" lon="8.48244">
        <ele>1874</ele>
        <time>2021-08-11T13:03:27.275Z</time>
      </trkpt>
      <trkpt lat="46.87909" lon="8.48243">
        <ele>1874</ele>
        <time>2021-08-11T13:03:28.275Z</time>
      </trkpt>
      <trkpt lat="46.8791" lon="8.48242">
        <ele>1874</ele>
        <time>2021-08-11T13:03:29.276Z</time>
      </trkpt>
      <trkpt lat="46.87909" lon="8.48241">
        <ele>1875</ele>
        <time>2021-08-11T13:03:30.276Z</time>
      </trkpt>
      <trkpt lat="46.87908" lon="8.4824">
        <ele>1875</ele>
        <time>2021-08-11T13:03:31.276Z</time>
      </trkpt>
      <trkpt lat="46.87908" lon="8.48239">
        <ele>1875</ele>
        <time>2021-08-11T13:03:32.276Z</time>
      </trkpt>
      <trkpt lat="46.87908" lon="8.48239">
        <ele>1874</ele>
        <time>2021-08-11T13:03:33.276Z</time>
      </trkpt>
      <trkpt lat="46.87908" lon="8.48238">
        <ele>1874</ele>
        <time>2021-08-11T13:03:34.276Z</time>
      </trkpt>
      <trkpt lat="46.87908" lon="8.48237">
        <ele>1874</ele>
        <time>2021-08-11T13:03:35.276Z</time>
      </trkpt>
      <trkpt lat="46.87907" lon="8.48237">
        <ele>1873</ele>
        <time>2021-08-11T13:03:36.275Z</time>
      </trkpt>
      <trkpt lat="46.87906" lon="8.48236">
        <ele>1873</ele>
        <time>2021-08-11T13:03:37.275Z</time>
      </trkpt>
      <trkpt lat="46.87906" lon="8.48236">
        <ele>1873</ele>
        <time>2021-08-11T13:03:38.275Z</time>
      </trkpt>
      <trkpt lat="46.87905" lon="8.48235">
        <ele>1873</ele>
        <time>2021-08-11T13:03:39.276Z</time>
      </trkpt>
      <trkpt lat="46.87904" lon="8.48235">
        <ele>1873</ele>
        <time>2021-08-11T13:03:40.276Z</time>
      </trkpt>
      <trkpt lat="46.87903" lon="8.48234">
        <ele>1873</ele>
        <time>2021-08-11T13:03:41.275Z</time>
      </trkpt>
      <trkpt lat="46.87902" lon="8.48233">
        <ele>1873</ele>
        <time>2021-08-11T13:03:42.276Z</time>
      </trkpt>
      <trkpt lat="46.87902" lon="8.48232">
        <ele>1873</ele>
        <time>2021-08-11T13:03:43.276Z</time>
      </trkpt>
      <trkpt lat="46.87902" lon="8.48231">
        <ele>1873</ele>
        <time>2021-08-11T13:03:44.276Z</time>
      </trkpt>
      <trkpt lat="46.87901" lon="8.4823">
        <ele>1873</ele>
        <time>2021-08-11T13:03:45.275Z</time>
      </trkpt>
      <trkpt lat="46.87902" lon="8.4823">
        <ele>1874</ele>
        <time>2021-08-11T13:03:46.275Z</time>
      </trkpt>
      <trkpt lat="46.87903" lon="8.48228">
        <ele>1874</ele>
        <time>2021-08-11T13:03:47.275Z</time>
      </trkpt>
      <trkpt lat="46.87903" lon="8.48227">
        <ele>1874</ele>
        <time>2021-08-11T13:03:48.276Z</time>
      </trkpt>
      <trkpt lat="46.87903" lon="8.48226">
        <ele>1874</ele>
        <time>2021-08-11T13:03:49.276Z</time>
      </trkpt>
      <trkpt lat="46.87903" lon="8.48225">
        <ele>1874</ele>
        <time>2021-08-11T13:03:50.275Z</time>
      </trkpt>
      <trkpt lat="46.87903" lon="8.48225">
        <ele>1874</ele>
        <time>2021-08-11T13:03:51.275Z</time>
      </trkpt>
      <trkpt lat="46.87902" lon="8.48224">
        <ele>1874</ele>
        <time>2021-08-11T13:03:52.276Z</time>
      </trkpt>
      <trkpt lat="46.87902" lon="8.48223">
        <ele>1874</ele>
        <time>2021-08-11T13:03:53.276Z</time>
      </trkpt>
      <trkpt lat="46.87901" lon="8.48222">
        <ele>1874</ele>
        <time>2021-08-11T13:03:54.276Z</time>
      </trkpt>
      <trkpt lat="46.87901" lon="8.48222">
        <ele>1874</ele>
        <time>2021-08-11T13:03:55.276Z</time>
      </trkpt>
      <trkpt lat="46.87902" lon="8.48221">
        <ele>1874</ele>
        <time>2021-08-11T13:03:56.276Z</time>
      </trkpt>
      <trkpt lat="46.87902" lon="8.4822">
        <ele>1874</ele>
        <time>2021-08-11T13:03:57.275Z</time>
      </trkpt>
      <trkpt lat="46.87901" lon="8.4822">
        <ele>1874</ele>
        <time>2021-08-11T13:03:58.276Z</time>
      </trkpt>
      <trkpt lat="46.87901" lon="8.48219">
        <ele>1874</ele>
        <time>2021-08-11T13:03:59.276Z</time>
      </trkpt>
      <trkpt lat="46.87902" lon="8.48218">
        <ele>1875</ele>
        <time>2021-08-11T13:04:00.276Z</time>
      </trkpt>
      <trkpt lat="46.87901" lon="8.48217">
        <ele>1875</ele>
        <time>2021-08-11T13:04:01.275Z</time>
      </trkpt>
      <trkpt lat="46.87901" lon="8.48216">
        <ele>1875</ele>
        <time>2021-08-11T13:04:02.275Z</time>
      </trkpt>
      <trkpt lat="46.87901" lon="8.48215">
        <ele>1874</ele>
        <time>2021-08-11T13:04:03.275Z</time>
      </trkpt>
      <trkpt lat="46.87901" lon="8.48215">
        <ele>1874</ele>
        <time>2021-08-11T13:04:04.276Z</time>
      </trkpt>
      <trkpt lat="46.87901" lon="8.48214">
        <ele>1874</ele>
        <time>2021-08-11T13:04:05.276Z</time>
      </trkpt>
      <trkpt lat="46.87901" lon="8.48213">
        <ele>1874</ele>
        <time>2021-08-11T13:04:06.275Z</time>
      </trkpt>
      <trkpt lat="46.879" lon="8.48212">
        <ele>1875</ele>
        <time>2021-08-11T13:04:07.275Z</time>
      </trkpt>
      <trkpt lat="46.879" lon="8.48211">
        <ele>1875</ele>
        <time>2021-08-11T13:04:08.275Z</time>
      </trkpt>
      <trkpt lat="46.87899" lon="8.48209">
        <ele>1875</ele>
        <time>2021-08-11T13:04:09.276Z</time>
      </trkpt>
      <trkpt lat="46.87899" lon="8.48208">
        <ele>1875</ele>
        <time>2021-08-11T13:04:10.275Z</time>
      </trkpt>
      <trkpt lat="46.87898" lon="8.48207">
        <ele>1875</ele>
        <time>2021-08-11T13:04:11.276Z</time>
      </trkpt>
      <trkpt lat="46.87898" lon="8.48206">
        <ele>1876</ele>
        <time>2021-08-11T13:04:12.276Z</time>
      </trkpt>
      <trkpt lat="46.87898" lon="8.48205">
        <ele>1876</ele>
        <time>2021-08-11T13:04:13.275Z</time>
      </trkpt>
      <trkpt lat="46.87897" lon="8.48204">
        <ele>1877</ele>
        <time>2021-08-11T13:04:14.276Z</time>
      </trkpt>
      <trkpt lat="46.87897" lon="8.48203">
        <ele>1877</ele>
        <time>2021-08-11T13:04:15.275Z</time>
      </trkpt>
      <trkpt lat="46.87898" lon="8.48202">
        <ele>1878</ele>
        <time>2021-08-11T13:04:16.276Z</time>
      </trkpt>
      <trkpt lat="46.87897" lon="8.48201">
        <ele>1878</ele>
        <time>2021-08-11T13:04:17.276Z</time>
      </trkpt>
      <trkpt lat="46.87898" lon="8.482">
        <ele>1878</ele>
        <time>2021-08-11T13:04:18.276Z</time>
      </trkpt>
      <trkpt lat="46.87898" lon="8.48199">
        <ele>1878</ele>
        <time>2021-08-11T13:04:19.276Z</time>
      </trkpt>
      <trkpt lat="46.87897" lon="8.48198">
        <ele>1878</ele>
        <time>2021-08-11T13:04:20.276Z</time>
      </trkpt>
      <trkpt lat="46.87897" lon="8.48197">
        <ele>1878</ele>
        <time>2021-08-11T13:04:21.276Z</time>
      </trkpt>
      <trkpt lat="46.87896" lon="8.48197">
        <ele>1878</ele>
        <time>2021-08-11T13:04:22.275Z</time>
      </trkpt>
      <trkpt lat="46.87896" lon="8.48196">
        <ele>1878</ele>
        <time>2021-08-11T13:04:23.275Z</time>
      </trkpt>
      <trkpt lat="46.87896" lon="8.48196">
        <ele>1878</ele>
        <time>2021-08-11T13:04:24.276Z</time>
      </trkpt>
      <trkpt lat="46.87896" lon="8.48195">
        <ele>1878</ele>
        <time>2021-08-11T13:04:25.276Z</time>
      </trkpt>
      <trkpt lat="46.87896" lon="8.48194">
        <ele>1878</ele>
        <time>2021-08-11T13:04:26.276Z</time>
      </trkpt>
      <trkpt lat="46.87896" lon="8.48194">
        <ele>1878</ele>
        <time>2021-08-11T13:04:27.276Z</time>
      </trkpt>
      <trkpt lat="46.87896" lon="8.48193">
        <ele>1878</ele>
        <time>2021-08-11T13:04:28.275Z</time>
      </trkpt>
      <trkpt lat="46.87896" lon="8.48193">
        <ele>1878</ele>
        <time>2021-08-11T13:04:29.276Z</time>
      </trkpt>
      <trkpt lat="46.87896" lon="8.48193">
        <ele>1879</ele>
        <time>2021-08-11T13:04:30.276Z</time>
      </trkpt>
      <trkpt lat="46.87896" lon="8.48193">
        <ele>1879</ele>
        <time>2021-08-11T13:04:31.276Z</time>
      </trkpt>
      <trkpt lat="46.87896" lon="8.48192">
        <ele>1879</ele>
        <time>2021-08-11T13:04:32.276Z</time>
      </trkpt>
      <trkpt lat="46.87897" lon="8.48192">
        <ele>1879</ele>
        <time>2021-08-11T13:04:33.275Z</time>
      </trkpt>
      <trkpt lat="46.87897" lon="8.48191">
        <ele>1879</ele>
        <time>2021-08-11T13:04:34.275Z</time>
      </trkpt>
      <trkpt lat="46.87897" lon="8.4819">
        <ele>1879</ele>
        <time>2021-08-11T13:04:35.276Z</time>
      </trkpt>
      <trkpt lat="46.87897" lon="8.48189">
        <ele>1880</ele>
        <time>2021-08-11T13:04:36.276Z</time>
      </trkpt>
      <trkpt lat="46.87898" lon="8.48188">
        <ele>1880</ele>
        <time>2021-08-11T13:04:37.276Z</time>
      </trkpt>
      <trkpt lat="46.87898" lon="8.48187">
        <ele>1880</ele>
        <time>2021-08-11T13:04:38.276Z</time>
      </trkpt>
      <trkpt lat="46.87898" lon="8.48186">
        <ele>1880</ele>
        <time>2021-08-11T13:04:39.275Z</time>
      </trkpt>
      <trkpt lat="46.87897" lon="8.48185">
        <ele>1879</ele>
        <time>2021-08-11T13:04:40.276Z</time>
      </trkpt>
      <trkpt lat="46.87897" lon="8.48184">
        <ele>1878</ele>
        <time>2021-08-11T13:04:41.276Z</time>
      </trkpt>
      <trkpt lat="46.87897" lon="8.48183">
        <ele>1877</ele>
        <time>2021-08-11T13:04:42.276Z</time>
      </trkpt>
      <trkpt lat="46.87898" lon="8.48182">
        <ele>1877</ele>
        <time>2021-08-11T13:04:43.275Z</time>
      </trkpt>
      <trkpt lat="46.87898" lon="8.48181">
        <ele>1876</ele>
        <time>2021-08-11T13:04:44.276Z</time>
      </trkpt>
      <trkpt lat="46.87898" lon="8.4818">
        <ele>1876</ele>
        <time>2021-08-11T13:04:45.276Z</time>
      </trkpt>
      <trkpt lat="46.87897" lon="8.4818">
        <ele>1875</ele>
        <time>2021-08-11T13:04:46.275Z</time>
      </trkpt>
      <trkpt lat="46.87897" lon="8.4818">
        <ele>1875</ele>
        <time>2021-08-11T13:04:47.275Z</time>
      </trkpt>
      <trkpt lat="46.87896" lon="8.48179">
        <ele>1875</ele>
        <time>2021-08-11T13:04:48.276Z</time>
      </trkpt>
      <trkpt lat="46.87896" lon="8.48178">
        <ele>1875</ele>
        <time>2021-08-11T13:04:49.275Z</time>
      </trkpt>
      <trkpt lat="46.87896" lon="8.48177">
        <ele>1875</ele>
        <time>2021-08-11T13:04:50.276Z</time>
      </trkpt>
      <trkpt lat="46.87895" lon="8.48176">
        <ele>1875</ele>
        <time>2021-08-11T13:04:51.276Z</time>
      </trkpt>
      <trkpt lat="46.87894" lon="8.48175">
        <ele>1875</ele>
        <time>2021-08-11T13:04:52.276Z</time>
      </trkpt>
      <trkpt lat="46.87893" lon="8.48174">
        <ele>1876</ele>
        <time>2021-08-11T13:04:53.276Z</time>
      </trkpt>
      <trkpt lat="46.87893" lon="8.48173">
        <ele>1876</ele>
        <time>2021-08-11T13:04:54.275Z</time>
      </trkpt>
      <trkpt lat="46.87893" lon="8.48172">
        <ele>1876</ele>
        <time>2021-08-11T13:04:55.275Z</time>
      </trkpt>
      <trkpt lat="46.87893" lon="8.48171">
        <ele>1876</ele>
        <time>2021-08-11T13:04:56.276Z</time>
      </trkpt>
      <trkpt lat="46.87893" lon="8.4817">
        <ele>1876</ele>
        <time>2021-08-11T13:04:57.276Z</time>
      </trkpt>
      <trkpt lat="46.87892" lon="8.48169">
        <ele>1876</ele>
        <time>2021-08-11T13:04:58.276Z</time>
      </trkpt>
      <trkpt lat="46.87892" lon="8.48168">
        <ele>1876</ele>
        <time>2021-08-11T13:04:59.275Z</time>
      </trkpt>
      <trkpt lat="46.87893" lon="8.48167">
        <ele>1876</ele>
        <time>2021-08-11T13:05:00.275Z</time>
      </trkpt>
      <trkpt lat="46.87893" lon="8.48166">
        <ele>1876</ele>
        <time>2021-08-11T13:05:01.276Z</time>
      </trkpt>
      <trkpt lat="46.87892" lon="8.48165">
        <ele>1876</ele>
        <time>2021-08-11T13:05:02.275Z</time>
      </trkpt>
      <trkpt lat="46.87892" lon="8.48164">
        <ele>1875</ele>
        <time>2021-08-11T13:05:03.276Z</time>
      </trkpt>
      <trkpt lat="46.87891" lon="8.48163">
        <ele>1875</ele>
        <time>2021-08-11T13:05:04.276Z</time>
      </trkpt>
      <trkpt lat="46.87891" lon="8.48163">
        <ele>1875</ele>
        <time>2021-08-11T13:05:05.276Z</time>
      </trkpt>
      <trkpt lat="46.87891" lon="8.48162">
        <ele>1875</ele>
        <time>2021-08-11T13:05:06.276Z</time>
      </trkpt>
      <trkpt lat="46.87891" lon="8.48161">
        <ele>1876</ele>
        <time>2021-08-11T13:05:07.275Z</time>
      </trkpt>
      <trkpt lat="46.87891" lon="8.4816">
        <ele>1876</ele>
        <time>2021-08-11T13:05:08.275Z</time>
      </trkpt>
      <trkpt lat="46.87891" lon="8.48159">
        <ele>1877</ele>
        <time>2021-08-11T13:05:09.276Z</time>
      </trkpt>
      <trkpt lat="46.87891" lon="8.48158">
        <ele>1877</ele>
        <time>2021-08-11T13:05:10.276Z</time>
      </trkpt>
      <trkpt lat="46.87891" lon="8.48157">
        <ele>1877</ele>
        <time>2021-08-11T13:05:11.276Z</time>
      </trkpt>
      <trkpt lat="46.87891" lon="8.48156">
        <ele>1877</ele>
        <time>2021-08-11T13:05:12.276Z</time>
      </trkpt>
      <trkpt lat="46.87891" lon="8.48155">
        <ele>1878</ele>
        <time>2021-08-11T13:05:13.275Z</time>
      </trkpt>
      <trkpt lat="46.87892" lon="8.48153">
        <ele>1878</ele>
        <time>2021-08-11T13:05:14.276Z</time>
      </trkpt>
      <trkpt lat="46.87892" lon="8.48153">
        <ele>1878</ele>
        <time>2021-08-11T13:05:15.275Z</time>
      </trkpt>
      <trkpt lat="46.87892" lon="8.48152">
        <ele>1879</ele>
        <time>2021-08-11T13:05:16.275Z</time>
      </trkpt>
      <trkpt lat="46.87892" lon="8.48151">
        <ele>1879</ele>
        <time>2021-08-11T13:05:17.276Z</time>
      </trkpt>
      <trkpt lat="46.87892" lon="8.48149">
        <ele>1879</ele>
        <time>2021-08-11T13:05:18.276Z</time>
      </trkpt>
      <trkpt lat="46.87892" lon="8.48148">
        <ele>1879</ele>
        <time>2021-08-11T13:05:19.276Z</time>
      </trkpt>
      <trkpt lat="46.87892" lon="8.48147">
        <ele>1879</ele>
        <time>2021-08-11T13:05:20.276Z</time>
      </trkpt>
      <trkpt lat="46.87892" lon="8.48146">
        <ele>1880</ele>
        <time>2021-08-11T13:05:21.275Z</time>
      </trkpt>
      <trkpt lat="46.87892" lon="8.48145">
        <ele>1881</ele>
        <time>2021-08-11T13:05:22.276Z</time>
      </trkpt>
      <trkpt lat="46.87892" lon="8.48145">
        <ele>1881</ele>
        <time>2021-08-11T13:05:23.276Z</time>
      </trkpt>
      <trkpt lat="46.87892" lon="8.48143">
        <ele>1881</ele>
        <time>2021-08-11T13:05:24.275Z</time>
      </trkpt>
      <trkpt lat="46.87892" lon="8.48142">
        <ele>1882</ele>
        <time>2021-08-11T13:05:25.276Z</time>
      </trkpt>
      <trkpt lat="46.87892" lon="8.48141">
        <ele>1882</ele>
        <time>2021-08-11T13:05:26.276Z</time>
      </trkpt>
      <trkpt lat="46.87892" lon="8.4814">
        <ele>1882</ele>
        <time>2021-08-11T13:05:27.276Z</time>
      </trkpt>
      <trkpt lat="46.87892" lon="8.48139">
        <ele>1882</ele>
        <time>2021-08-11T13:05:28.276Z</time>
      </trkpt>
      <trkpt lat="46.87892" lon="8.48138">
        <ele>1882</ele>
        <time>2021-08-11T13:05:29.276Z</time>
      </trkpt>
      <trkpt lat="46.87892" lon="8.48137">
        <ele>1882</ele>
        <time>2021-08-11T13:05:30.275Z</time>
      </trkpt>
      <trkpt lat="46.87892" lon="8.48137">
        <ele>1882</ele>
        <time>2021-08-11T13:05:31.276Z</time>
      </trkpt>
      <trkpt lat="46.87891" lon="8.48135">
        <ele>1882</ele>
        <time>2021-08-11T13:05:32.276Z</time>
      </trkpt>
      <trkpt lat="46.87891" lon="8.48134">
        <ele>1882</ele>
        <time>2021-08-11T13:05:33.276Z</time>
      </trkpt>
      <trkpt lat="46.87891" lon="8.48133">
        <ele>1881</ele>
        <time>2021-08-11T13:05:34.275Z</time>
      </trkpt>
      <trkpt lat="46.87892" lon="8.48132">
        <ele>1881</ele>
        <time>2021-08-11T13:05:35.275Z</time>
      </trkpt>
      <trkpt lat="46.87892" lon="8.4813">
        <ele>1881</ele>
        <time>2021-08-11T13:05:36.276Z</time>
      </trkpt>
      <trkpt lat="46.87893" lon="8.48129">
        <ele>1881</ele>
        <time>2021-08-11T13:05:37.275Z</time>
      </trkpt>
      <trkpt lat="46.87894" lon="8.48128">
        <ele>1881</ele>
        <time>2021-08-11T13:05:38.275Z</time>
      </trkpt>
      <trkpt lat="46.87894" lon="8.48127">
        <ele>1881</ele>
        <time>2021-08-11T13:05:39.276Z</time>
      </trkpt>
      <trkpt lat="46.87895" lon="8.48126">
        <ele>1881</ele>
        <time>2021-08-11T13:05:40.275Z</time>
      </trkpt>
      <trkpt lat="46.87895" lon="8.48124">
        <ele>1882</ele>
        <time>2021-08-11T13:05:41.275Z</time>
      </trkpt>
      <trkpt lat="46.87896" lon="8.48123">
        <ele>1882</ele>
        <time>2021-08-11T13:05:42.276Z</time>
      </trkpt>
      <trkpt lat="46.87896" lon="8.48122">
        <ele>1882</ele>
        <time>2021-08-11T13:05:43.275Z</time>
      </trkpt>
      <trkpt lat="46.87896" lon="8.48121">
        <ele>1883</ele>
        <time>2021-08-11T13:05:44.275Z</time>
      </trkpt>
      <trkpt lat="46.87896" lon="8.4812">
        <ele>1883</ele>
        <time>2021-08-11T13:05:45.275Z</time>
      </trkpt>
      <trkpt lat="46.87896" lon="8.4812">
        <ele>1884</ele>
        <time>2021-08-11T13:05:46.276Z</time>
      </trkpt>
      <trkpt lat="46.87896" lon="8.48119">
        <ele>1884</ele>
        <time>2021-08-11T13:05:47.276Z</time>
      </trkpt>
      <trkpt lat="46.87895" lon="8.48118">
        <ele>1884</ele>
        <time>2021-08-11T13:05:48.276Z</time>
      </trkpt>
      <trkpt lat="46.87895" lon="8.48118">
        <ele>1884</ele>
        <time>2021-08-11T13:05:49.275Z</time>
      </trkpt>
      <trkpt lat="46.87895" lon="8.48117">
        <ele>1884</ele>
        <time>2021-08-11T13:05:50.276Z</time>
      </trkpt>
      <trkpt lat="46.87894" lon="8.48117">
        <ele>1884</ele>
        <time>2021-08-11T13:05:51.276Z</time>
      </trkpt>
      <trkpt lat="46.87895" lon="8.48115">
        <ele>1884</ele>
        <time>2021-08-11T13:05:52.276Z</time>
      </trkpt>
      <trkpt lat="46.87895" lon="8.48114">
        <ele>1884</ele>
        <time>2021-08-11T13:05:53.276Z</time>
      </trkpt>
      <trkpt lat="46.87894" lon="8.48113">
        <ele>1884</ele>
        <time>2021-08-11T13:05:54.276Z</time>
      </trkpt>
      <trkpt lat="46.87895" lon="8.48112">
        <ele>1884</ele>
        <time>2021-08-11T13:05:55.276Z</time>
      </trkpt>
      <trkpt lat="46.87895" lon="8.48111">
        <ele>1885</ele>
        <time>2021-08-11T13:05:56.276Z</time>
      </trkpt>
      <trkpt lat="46.87895" lon="8.4811">
        <ele>1885</ele>
        <time>2021-08-11T13:05:57.276Z</time>
      </trkpt>
      <trkpt lat="46.87895" lon="8.48108">
        <ele>1885</ele>
        <time>2021-08-11T13:05:58.276Z</time>
      </trkpt>
      <trkpt lat="46.87895" lon="8.48108">
        <ele>1885</ele>
        <time>2021-08-11T13:05:59.276Z</time>
      </trkpt>
      <trkpt lat="46.87895" lon="8.48107">
        <ele>1885</ele>
        <time>2021-08-11T13:06:00.276Z</time>
      </trkpt>
      <trkpt lat="46.87895" lon="8.48106">
        <ele>1885</ele>
        <time>2021-08-11T13:06:01.275Z</time>
      </trkpt>
      <trkpt lat="46.87894" lon="8.48105">
        <ele>1885</ele>
        <time>2021-08-11T13:06:02.275Z</time>
      </trkpt>
      <trkpt lat="46.87893" lon="8.48105">
        <ele>1886</ele>
        <time>2021-08-11T13:06:03.275Z</time>
      </trkpt>
      <trkpt lat="46.87893" lon="8.48104">
        <ele>1886</ele>
        <time>2021-08-11T13:06:04.275Z</time>
      </trkpt>
      <trkpt lat="46.87893" lon="8.48104">
        <ele>1886</ele>
        <time>2021-08-11T13:06:05.276Z</time>
      </trkpt>
      <trkpt lat="46.87894" lon="8.48103">
        <ele>1886</ele>
        <time>2021-08-11T13:06:06.276Z</time>
      </trkpt>
      <trkpt lat="46.87894" lon="8.48102">
        <ele>1886</ele>
        <time>2021-08-11T13:06:07.276Z</time>
      </trkpt>
      <trkpt lat="46.87895" lon="8.48101">
        <ele>1886</ele>
        <time>2021-08-11T13:06:08.275Z</time>
      </trkpt>
      <trkpt lat="46.87895" lon="8.48101">
        <ele>1886</ele>
        <time>2021-08-11T13:06:09.276Z</time>
      </trkpt>
      <trkpt lat="46.87895" lon="8.48101">
        <ele>1886</ele>
        <time>2021-08-11T13:06:10.275Z</time>
      </trkpt>
      <trkpt lat="46.87895" lon="8.481">
        <ele>1885</ele>
        <time>2021-08-11T13:06:11.276Z</time>
      </trkpt>
      <trkpt lat="46.87896" lon="8.481">
        <ele>1885</ele>
        <time>2021-08-11T13:06:12.275Z</time>
      </trkpt>
      <trkpt lat="46.87896" lon="8.481">
        <ele>1885</ele>
        <time>2021-08-11T13:06:13.276Z</time>
      </trkpt>
      <trkpt lat="46.87896" lon="8.481">
        <ele>1885</ele>
        <time>2021-08-11T13:06:14.275Z</time>
      </trkpt>
      <trkpt lat="46.87896" lon="8.48101">
        <ele>1884</ele>
        <time>2021-08-11T13:06:15.277Z</time>
      </trkpt>
      <trkpt lat="46.87895" lon="8.48101">
        <ele>1885</ele>
        <time>2021-08-11T13:06:16.277Z</time>
      </trkpt>
      <trkpt lat="46.87895" lon="8.48101">
        <ele>1885</ele>
        <time>2021-08-11T13:06:17.276Z</time>
      </trkpt>
      <trkpt lat="46.87894" lon="8.48101">
        <ele>1886</ele>
        <time>2021-08-11T13:06:18.279Z</time>
      </trkpt>
      <trkpt lat="46.87894" lon="8.481">
        <ele>1887</ele>
        <time>2021-08-11T13:06:19.278Z</time>
      </trkpt>
      <trkpt lat="46.87894" lon="8.481">
        <ele>1887</ele>
        <time>2021-08-11T13:06:20.278Z</time>
      </trkpt>
      <trkpt lat="46.87894" lon="8.481">
        <ele>1887</ele>
        <time>2021-08-11T13:06:21.278Z</time>
      </trkpt>
      <trkpt lat="46.87893" lon="8.481">
        <ele>1888</ele>
        <time>2021-08-11T13:06:22.278Z</time>
      </trkpt>
      <trkpt lat="46.8789" lon="8.48099">
        <ele>1887</ele>
        <time>2021-08-11T13:06:23.279Z</time>
      </trkpt>
      <trkpt lat="46.87891" lon="8.48103">
        <ele>1891</ele>
        <time>2021-08-11T13:06:24.279Z</time>
      </trkpt>
      <trkpt lat="46.87891" lon="8.48103">
        <ele>1891</ele>
        <time>2021-08-11T13:06:25.279Z</time>
      </trkpt>
      <trkpt lat="46.87892" lon="8.48104">
        <ele>1891</ele>
        <time>2021-08-11T13:06:26.279Z</time>
      </trkpt>
      <trkpt lat="46.87892" lon="8.48104">
        <ele>1891</ele>
        <time>2021-08-11T13:06:27.279Z</time>
      </trkpt>
      <trkpt lat="46.87891" lon="8.48104">
        <ele>1891</ele>
        <time>2021-08-11T13:06:28.278Z</time>
      </trkpt>
      <trkpt lat="46.8789" lon="8.48105">
        <ele>1891</ele>
        <time>2021-08-11T13:06:29.279Z</time>
      </trkpt>
      <trkpt lat="46.87889" lon="8.48106">
        <ele>1890</ele>
        <time>2021-08-11T13:06:30.278Z</time>
      </trkpt>
      <trkpt lat="46.87889" lon="8.48106">
        <ele>1890</ele>
        <time>2021-08-11T13:06:31.278Z</time>
      </trkpt>
      <trkpt lat="46.87889" lon="8.48105">
        <ele>1890</ele>
        <time>2021-08-11T13:06:32.278Z</time>
      </trkpt>
      <trkpt lat="46.87889" lon="8.48102">
        <ele>1893</ele>
        <time>2021-08-11T13:06:33.279Z</time>
      </trkpt>
      <trkpt lat="46.8789" lon="8.48101">
        <ele>1893</ele>
        <time>2021-08-11T13:06:34.280Z</time>
      </trkpt>
      <trkpt lat="46.8789" lon="8.48099">
        <ele>1893</ele>
        <time>2021-08-11T13:06:35.280Z</time>
      </trkpt>
      <trkpt lat="46.87889" lon="8.48098">
        <ele>1893</ele>
        <time>2021-08-11T13:06:36.279Z</time>
      </trkpt>
      <trkpt lat="46.87889" lon="8.48097">
        <ele>1893</ele>
        <time>2021-08-11T13:06:37.280Z</time>
      </trkpt>
      <trkpt lat="46.87888" lon="8.48097">
        <ele>1893</ele>
        <time>2021-08-11T13:06:38.280Z</time>
      </trkpt>
      <trkpt lat="46.87888" lon="8.48097">
        <ele>1893</ele>
        <time>2021-08-11T13:06:39.280Z</time>
      </trkpt>
      <trkpt lat="46.87887" lon="8.48097">
        <ele>1893</ele>
        <time>2021-08-11T13:06:40.279Z</time>
      </trkpt>
      <trkpt lat="46.87887" lon="8.48096">
        <ele>1893</ele>
        <time>2021-08-11T13:06:41.279Z</time>
      </trkpt>
      <trkpt lat="46.87887" lon="8.48096">
        <ele>1894</ele>
        <time>2021-08-11T13:06:42.280Z</time>
      </trkpt>
      <trkpt lat="46.87887" lon="8.48095">
        <ele>1894</ele>
        <time>2021-08-11T13:06:44.244Z</time>
      </trkpt>
      <trkpt lat="46.87887" lon="8.48095">
        <ele>1895</ele>
        <time>2021-08-11T13:06:45.245Z</time>
      </trkpt>
      <trkpt lat="46.87887" lon="8.48094">
        <ele>1895</ele>
        <time>2021-08-11T13:06:46.244Z</time>
      </trkpt>
      <trkpt lat="46.87887" lon="8.48093">
        <ele>1895</ele>
        <time>2021-08-11T13:06:47.245Z</time>
      </trkpt>
      <trkpt lat="46.87887" lon="8.48092">
        <ele>1895</ele>
        <time>2021-08-11T13:06:48.245Z</time>
      </trkpt>
      <trkpt lat="46.87887" lon="8.48091">
        <ele>1896</ele>
        <time>2021-08-11T13:06:49.244Z</time>
      </trkpt>
      <trkpt lat="46.87887" lon="8.4809">
        <ele>1896</ele>
        <time>2021-08-11T13:06:50.244Z</time>
      </trkpt>
      <trkpt lat="46.87888" lon="8.48089">
        <ele>1896</ele>
        <time>2021-08-11T13:06:51.244Z</time>
      </trkpt>
      <trkpt lat="46.87888" lon="8.48088">
        <ele>1897</ele>
        <time>2021-08-11T13:06:52.244Z</time>
      </trkpt>
      <trkpt lat="46.87889" lon="8.48087">
        <ele>1897</ele>
        <time>2021-08-11T13:06:57.272Z</time>
      </trkpt>
      <trkpt lat="46.87889" lon="8.48087">
        <ele>1897</ele>
        <time>2021-08-11T13:06:58.272Z</time>
      </trkpt>
      <trkpt lat="46.8789" lon="8.48086">
        <ele>1897</ele>
        <time>2021-08-11T13:06:59.271Z</time>
      </trkpt>
      <trkpt lat="46.87891" lon="8.48085">
        <ele>1897</ele>
        <time>2021-08-11T13:07:00.271Z</time>
      </trkpt>
      <trkpt lat="46.87891" lon="8.48085">
        <ele>1897</ele>
        <time>2021-08-11T13:07:01.272Z</time>
      </trkpt>
      <trkpt lat="46.87892" lon="8.48084">
        <ele>1897</ele>
        <time>2021-08-11T13:07:02.272Z</time>
      </trkpt>
      <trkpt lat="46.87891" lon="8.48084">
        <ele>1897</ele>
        <time>2021-08-11T13:07:03.272Z</time>
      </trkpt>
      <trkpt lat="46.87892" lon="8.48083">
        <ele>1897</ele>
        <time>2021-08-11T13:07:21.428Z</time>
      </trkpt>
      <trkpt lat="46.87892" lon="8.48082">
        <ele>1896</ele>
        <time>2021-08-11T13:07:22.427Z</time>
      </trkpt>
      <trkpt lat="46.87892" lon="8.48081">
        <ele>1896</ele>
        <time>2021-08-11T13:07:23.428Z</time>
      </trkpt>
      <trkpt lat="46.87893" lon="8.48081">
        <ele>1895</ele>
        <time>2021-08-11T13:07:27.534Z</time>
      </trkpt>
      <trkpt lat="46.87892" lon="8.4808">
        <ele>1895</ele>
        <time>2021-08-11T13:07:28.534Z</time>
      </trkpt>
      <trkpt lat="46.87893" lon="8.48079">
        <ele>1895</ele>
        <time>2021-08-11T13:07:29.534Z</time>
      </trkpt>
      <trkpt lat="46.87893" lon="8.48078">
        <ele>1895</ele>
        <time>2021-08-11T13:07:30.533Z</time>
      </trkpt>
      <trkpt lat="46.87894" lon="8.48078">
        <ele>1895</ele>
        <time>2021-08-11T13:07:36.531Z</time>
      </trkpt>
      <trkpt lat="46.87893" lon="8.48078">
        <ele>1895</ele>
        <time>2021-08-11T13:07:37.532Z</time>
      </trkpt>
      <trkpt lat="46.87892" lon="8.48077">
        <ele>1894</ele>
        <time>2021-08-11T13:07:38.531Z</time>
      </trkpt>
      <trkpt lat="46.87892" lon="8.48076">
        <ele>1894</ele>
        <time>2021-08-11T13:08:00.505Z</time>
      </trkpt>
      <trkpt lat="46.87891" lon="8.48075">
        <ele>1894</ele>
        <time>2021-08-11T13:08:01.504Z</time>
      </trkpt>
      <trkpt lat="46.87891" lon="8.48074">
        <ele>1894</ele>
        <time>2021-08-11T13:08:10.256Z</time>
      </trkpt>
      <trkpt lat="46.87891" lon="8.48073">
        <ele>1894</ele>
        <time>2021-08-11T13:08:11.256Z</time>
      </trkpt>
      <trkpt lat="46.87892" lon="8.48073">
        <ele>1893</ele>
        <time>2021-08-11T13:08:12.255Z</time>
      </trkpt>
      <trkpt lat="46.87892" lon="8.48072">
        <ele>1893</ele>
        <time>2021-08-11T13:08:13.256Z</time>
      </trkpt>
      <trkpt lat="46.87892" lon="8.48071">
        <ele>1893</ele>
        <time>2021-08-11T13:08:14.255Z</time>
      </trkpt>
      <trkpt lat="46.87892" lon="8.4807">
        <ele>1893</ele>
        <time>2021-08-11T13:08:15.256Z</time>
      </trkpt>
      <trkpt lat="46.87892" lon="8.48069">
        <ele>1892</ele>
        <time>2021-08-11T13:08:16.256Z</time>
      </trkpt>
      <trkpt lat="46.87892" lon="8.48068">
        <ele>1892</ele>
        <time>2021-08-11T13:08:17.256Z</time>
      </trkpt>
      <trkpt lat="46.87892" lon="8.48068">
        <ele>1893</ele>
        <time>2021-08-11T13:08:18.255Z</time>
      </trkpt>
      <trkpt lat="46.87892" lon="8.48067">
        <ele>1893</ele>
        <time>2021-08-11T13:08:19.256Z</time>
      </trkpt>
      <trkpt lat="46.87892" lon="8.48066">
        <ele>1893</ele>
        <time>2021-08-11T13:08:20.256Z</time>
      </trkpt>
      <trkpt lat="46.87891" lon="8.48066">
        <ele>1894</ele>
        <time>2021-08-11T13:08:21.256Z</time>
      </trkpt>
      <trkpt lat="46.87891" lon="8.48065">
        <ele>1894</ele>
        <time>2021-08-11T13:08:22.256Z</time>
      </trkpt>
      <trkpt lat="46.87891" lon="8.48064">
        <ele>1894</ele>
        <time>2021-08-11T13:08:23.256Z</time>
      </trkpt>
      <trkpt lat="46.87891" lon="8.48064">
        <ele>1895</ele>
        <time>2021-08-11T13:08:24.256Z</time>
      </trkpt>
      <trkpt lat="46.87891" lon="8.48062">
        <ele>1895</ele>
        <time>2021-08-11T13:08:25.255Z</time>
      </trkpt>
      <trkpt lat="46.87891" lon="8.48061">
        <ele>1895</ele>
        <time>2021-08-11T13:08:26.256Z</time>
      </trkpt>
      <trkpt lat="46.8789" lon="8.48061">
        <ele>1894</ele>
        <time>2021-08-11T13:08:27.256Z</time>
      </trkpt>
      <trkpt lat="46.87889" lon="8.4806">
        <ele>1894</ele>
        <time>2021-08-11T13:08:28.255Z</time>
      </trkpt>
      <trkpt lat="46.87888" lon="8.48059">
        <ele>1894</ele>
        <time>2021-08-11T13:08:29.256Z</time>
      </trkpt>
      <trkpt lat="46.87887" lon="8.48059">
        <ele>1894</ele>
        <time>2021-08-11T13:08:30.256Z</time>
      </trkpt>
      <trkpt lat="46.87887" lon="8.48058">
        <ele>1894</ele>
        <time>2021-08-11T13:08:31.256Z</time>
      </trkpt>
      <trkpt lat="46.87887" lon="8.48056">
        <ele>1894</ele>
        <time>2021-08-11T13:08:32.255Z</time>
      </trkpt>
      <trkpt lat="46.87887" lon="8.48056">
        <ele>1894</ele>
        <time>2021-08-11T13:08:33.256Z</time>
      </trkpt>
      <trkpt lat="46.87886" lon="8.48055">
        <ele>1893</ele>
        <time>2021-08-11T13:08:34.256Z</time>
      </trkpt>
      <trkpt lat="46.87886" lon="8.48055">
        <ele>1893</ele>
        <time>2021-08-11T13:08:35.256Z</time>
      </trkpt>
      <trkpt lat="46.87886" lon="8.48054">
        <ele>1893</ele>
        <time>2021-08-11T13:08:36.256Z</time>
      </trkpt>
      <trkpt lat="46.87885" lon="8.48053">
        <ele>1893</ele>
        <time>2021-08-11T13:08:37.255Z</time>
      </trkpt>
      <trkpt lat="46.87885" lon="8.48053">
        <ele>1893</ele>
        <time>2021-08-11T13:08:41.275Z</time>
      </trkpt>
      <trkpt lat="46.87885" lon="8.48052">
        <ele>1893</ele>
        <time>2021-08-11T13:08:42.275Z</time>
      </trkpt>
      <trkpt lat="46.87885" lon="8.48051">
        <ele>1893</ele>
        <time>2021-08-11T13:08:43.276Z</time>
      </trkpt>
      <trkpt lat="46.87885" lon="8.48051">
        <ele>1893</ele>
        <time>2021-08-11T13:08:44.275Z</time>
      </trkpt>
      <trkpt lat="46.87885" lon="8.48051">
        <ele>1894</ele>
        <time>2021-08-11T13:08:45.276Z</time>
      </trkpt>
      <trkpt lat="46.87885" lon="8.4805">
        <ele>1893</ele>
        <time>2021-08-11T13:08:46.276Z</time>
      </trkpt>
      <trkpt lat="46.87885" lon="8.4805">
        <ele>1893</ele>
        <time>2021-08-11T13:08:47.276Z</time>
      </trkpt>
      <trkpt lat="46.87885" lon="8.48049">
        <ele>1893</ele>
        <time>2021-08-11T13:08:48.275Z</time>
      </trkpt>
      <trkpt lat="46.87885" lon="8.48049">
        <ele>1893</ele>
        <time>2021-08-11T13:08:49.275Z</time>
      </trkpt>
      <trkpt lat="46.87885" lon="8.48048">
        <ele>1892</ele>
        <time>2021-08-11T13:08:50.275Z</time>
      </trkpt>
      <trkpt lat="46.87884" lon="8.48047">
        <ele>1892</ele>
        <time>2021-08-11T13:08:51.275Z</time>
      </trkpt>
      <trkpt lat="46.87884" lon="8.48046">
        <ele>1891</ele>
        <time>2021-08-11T13:08:52.276Z</time>
      </trkpt>
      <trkpt lat="46.87883" lon="8.48046">
        <ele>1891</ele>
        <time>2021-08-11T13:08:53.276Z</time>
      </trkpt>
      <trkpt lat="46.87883" lon="8.48045">
        <ele>1891</ele>
        <time>2021-08-11T13:08:54.276Z</time>
      </trkpt>
      <trkpt lat="46.87882" lon="8.48044">
        <ele>1891</ele>
        <time>2021-08-11T13:08:55.275Z</time>
      </trkpt>
      <trkpt lat="46.87882" lon="8.48043">
        <ele>1891</ele>
        <time>2021-08-11T13:08:56.276Z</time>
      </trkpt>
      <trkpt lat="46.87881" lon="8.48042">
        <ele>1892</ele>
        <time>2021-08-11T13:08:57.276Z</time>
      </trkpt>
      <trkpt lat="46.87881" lon="8.48041">
        <ele>1893</ele>
        <time>2021-08-11T13:08:58.275Z</time>
      </trkpt>
      <trkpt lat="46.8788" lon="8.48041">
        <ele>1894</ele>
        <time>2021-08-11T13:08:59.276Z</time>
      </trkpt>
      <trkpt lat="46.8788" lon="8.4804">
        <ele>1894</ele>
        <time>2021-08-11T13:09:00.276Z</time>
      </trkpt>
      <trkpt lat="46.87879" lon="8.4804">
        <ele>1895</ele>
        <time>2021-08-11T13:09:01.276Z</time>
      </trkpt>
      <trkpt lat="46.87879" lon="8.48039">
        <ele>1895</ele>
        <time>2021-08-11T13:09:02.275Z</time>
      </trkpt>
      <trkpt lat="46.87879" lon="8.48038">
        <ele>1896</ele>
        <time>2021-08-11T13:09:03.276Z</time>
      </trkpt>
      <trkpt lat="46.87879" lon="8.48037">
        <ele>1896</ele>
        <time>2021-08-11T13:09:04.276Z</time>
      </trkpt>
      <trkpt lat="46.87879" lon="8.48036">
        <ele>1896</ele>
        <time>2021-08-11T13:09:05.275Z</time>
      </trkpt>
      <trkpt lat="46.87879" lon="8.48035">
        <ele>1895</ele>
        <time>2021-08-11T13:09:06.276Z</time>
      </trkpt>
      <trkpt lat="46.87879" lon="8.48034">
        <ele>1894</ele>
        <time>2021-08-11T13:09:07.275Z</time>
      </trkpt>
      <trkpt lat="46.87879" lon="8.48033">
        <ele>1894</ele>
        <time>2021-08-11T13:09:08.275Z</time>
      </trkpt>
      <trkpt lat="46.87878" lon="8.48033">
        <ele>1894</ele>
        <time>2021-08-11T13:09:09.275Z</time>
      </trkpt>
      <trkpt lat="46.87878" lon="8.48032">
        <ele>1893</ele>
        <time>2021-08-11T13:09:10.276Z</time>
      </trkpt>
      <trkpt lat="46.87879" lon="8.48032">
        <ele>1893</ele>
        <time>2021-08-11T13:09:11.276Z</time>
      </trkpt>
      <trkpt lat="46.87879" lon="8.48031">
        <ele>1893</ele>
        <time>2021-08-11T13:09:12.276Z</time>
      </trkpt>
      <trkpt lat="46.87878" lon="8.48033">
        <ele>1894</ele>
        <time>2021-08-11T13:09:13.277Z</time>
      </trkpt>
      <trkpt lat="46.87878" lon="8.48033">
        <ele>1894</ele>
        <time>2021-08-11T13:09:14.277Z</time>
      </trkpt>
      <trkpt lat="46.87875" lon="8.48031">
        <ele>1895</ele>
        <time>2021-08-11T13:09:15.276Z</time>
      </trkpt>
      <trkpt lat="46.87875" lon="8.48031">
        <ele>1895</ele>
        <time>2021-08-11T13:09:16.277Z</time>
      </trkpt>
      <trkpt lat="46.87875" lon="8.4803">
        <ele>1895</ele>
        <time>2021-08-11T13:09:17.276Z</time>
      </trkpt>
      <trkpt lat="46.87874" lon="8.48029">
        <ele>1895</ele>
        <time>2021-08-11T13:09:18.277Z</time>
      </trkpt>
      <trkpt lat="46.87874" lon="8.48029">
        <ele>1896</ele>
        <time>2021-08-11T13:09:19.277Z</time>
      </trkpt>
      <trkpt lat="46.87874" lon="8.48028">
        <ele>1896</ele>
        <time>2021-08-11T13:09:20.277Z</time>
      </trkpt>
      <trkpt lat="46.87873" lon="8.48027">
        <ele>1896</ele>
        <time>2021-08-11T13:09:21.277Z</time>
      </trkpt>
      <trkpt lat="46.87873" lon="8.48025">
        <ele>1896</ele>
        <time>2021-08-11T13:09:22.276Z</time>
      </trkpt>
      <trkpt lat="46.87873" lon="8.48024">
        <ele>1896</ele>
        <time>2021-08-11T13:09:23.276Z</time>
      </trkpt>
      <trkpt lat="46.87873" lon="8.48023">
        <ele>1896</ele>
        <time>2021-08-11T13:09:24.277Z</time>
      </trkpt>
      <trkpt lat="46.87873" lon="8.48022">
        <ele>1896</ele>
        <time>2021-08-11T13:09:25.277Z</time>
      </trkpt>
      <trkpt lat="46.87872" lon="8.48021">
        <ele>1896</ele>
        <time>2021-08-11T13:09:26.277Z</time>
      </trkpt>
      <trkpt lat="46.87872" lon="8.4802">
        <ele>1896</ele>
        <time>2021-08-11T13:09:27.276Z</time>
      </trkpt>
      <trkpt lat="46.87872" lon="8.48019">
        <ele>1895</ele>
        <time>2021-08-11T13:09:28.276Z</time>
      </trkpt>
      <trkpt lat="46.87872" lon="8.48018">
        <ele>1895</ele>
        <time>2021-08-11T13:09:29.277Z</time>
      </trkpt>
      <trkpt lat="46.87871" lon="8.48016">
        <ele>1895</ele>
        <time>2021-08-11T13:09:30.277Z</time>
      </trkpt>
      <trkpt lat="46.87871" lon="8.48015">
        <ele>1896</ele>
        <time>2021-08-11T13:09:31.276Z</time>
      </trkpt>
      <trkpt lat="46.87871" lon="8.48014">
        <ele>1896</ele>
        <time>2021-08-11T13:09:32.277Z</time>
      </trkpt>
      <trkpt lat="46.87871" lon="8.48013">
        <ele>1896</ele>
        <time>2021-08-11T13:09:33.277Z</time>
      </trkpt>
      <trkpt lat="46.87871" lon="8.48012">
        <ele>1896</ele>
        <time>2021-08-11T13:09:34.277Z</time>
      </trkpt>
      <trkpt lat="46.87871" lon="8.48011">
        <ele>1896</ele>
        <time>2021-08-11T13:09:35.276Z</time>
      </trkpt>
      <trkpt lat="46.87871" lon="8.4801">
        <ele>1896</ele>
        <time>2021-08-11T13:09:36.277Z</time>
      </trkpt>
      <trkpt lat="46.8787" lon="8.4801">
        <ele>1897</ele>
        <time>2021-08-11T13:09:37.276Z</time>
      </trkpt>
      <trkpt lat="46.8787" lon="8.48009">
        <ele>1897</ele>
        <time>2021-08-11T13:09:38.276Z</time>
      </trkpt>
      <trkpt lat="46.8787" lon="8.48009">
        <ele>1897</ele>
        <time>2021-08-11T13:09:39.277Z</time>
      </trkpt>
      <trkpt lat="46.8787" lon="8.48008">
        <ele>1897</ele>
        <time>2021-08-11T13:09:40.277Z</time>
      </trkpt>
      <trkpt lat="46.8787" lon="8.48008">
        <ele>1897</ele>
        <time>2021-08-11T13:09:41.277Z</time>
      </trkpt>
      <trkpt lat="46.8787" lon="8.48008">
        <ele>1897</ele>
        <time>2021-08-11T13:09:42.277Z</time>
      </trkpt>
      <trkpt lat="46.87869" lon="8.48007">
        <ele>1896</ele>
        <time>2021-08-11T13:09:43.276Z</time>
      </trkpt>
      <trkpt lat="46.87869" lon="8.48007">
        <ele>1896</ele>
        <time>2021-08-11T13:09:44.277Z</time>
      </trkpt>
      <trkpt lat="46.87868" lon="8.48006">
        <ele>1895</ele>
        <time>2021-08-11T13:09:45.276Z</time>
      </trkpt>
      <trkpt lat="46.87868" lon="8.48006">
        <ele>1895</ele>
        <time>2021-08-11T13:09:46.276Z</time>
      </trkpt>
      <trkpt lat="46.87867" lon="8.48005">
        <ele>1895</ele>
        <time>2021-08-11T13:09:47.276Z</time>
      </trkpt>
      <trkpt lat="46.87866" lon="8.48005">
        <ele>1895</ele>
        <time>2021-08-11T13:09:48.277Z</time>
      </trkpt>
      <trkpt lat="46.87865" lon="8.48004">
        <ele>1894</ele>
        <time>2021-08-11T13:09:49.277Z</time>
      </trkpt>
      <trkpt lat="46.87865" lon="8.48002">
        <ele>1894</ele>
        <time>2021-08-11T13:09:50.277Z</time>
      </trkpt>
      <trkpt lat="46.87865" lon="8.48001">
        <ele>1893</ele>
        <time>2021-08-11T13:09:51.277Z</time>
      </trkpt>
      <trkpt lat="46.87865" lon="8.48">
        <ele>1893</ele>
        <time>2021-08-11T13:09:52.276Z</time>
      </trkpt>
      <trkpt lat="46.87864" lon="8.47999">
        <ele>1893</ele>
        <time>2021-08-11T13:09:53.277Z</time>
      </trkpt>
      <trkpt lat="46.87864" lon="8.47999">
        <ele>1892</ele>
        <time>2021-08-11T13:09:54.277Z</time>
      </trkpt>
      <trkpt lat="46.87864" lon="8.47998">
        <ele>1892</ele>
        <time>2021-08-11T13:09:55.277Z</time>
      </trkpt>
      <trkpt lat="46.87863" lon="8.47997">
        <ele>1892</ele>
        <time>2021-08-11T13:09:56.277Z</time>
      </trkpt>
      <trkpt lat="46.87863" lon="8.47996">
        <ele>1892</ele>
        <time>2021-08-11T13:09:57.277Z</time>
      </trkpt>
      <trkpt lat="46.87862" lon="8.47995">
        <ele>1892</ele>
        <time>2021-08-11T13:09:58.277Z</time>
      </trkpt>
      <trkpt lat="46.87862" lon="8.47995">
        <ele>1892</ele>
        <time>2021-08-11T13:09:59.276Z</time>
      </trkpt>
      <trkpt lat="46.87862" lon="8.47994">
        <ele>1892</ele>
        <time>2021-08-11T13:10:00.276Z</time>
      </trkpt>
      <trkpt lat="46.87862" lon="8.47993">
        <ele>1893</ele>
        <time>2021-08-11T13:10:01.277Z</time>
      </trkpt>
      <trkpt lat="46.87862" lon="8.47992">
        <ele>1893</ele>
        <time>2021-08-11T13:10:02.277Z</time>
      </trkpt>
      <trkpt lat="46.87861" lon="8.47991">
        <ele>1893</ele>
        <time>2021-08-11T13:10:03.277Z</time>
      </trkpt>
      <trkpt lat="46.87861" lon="8.4799">
        <ele>1894</ele>
        <time>2021-08-11T13:10:04.277Z</time>
      </trkpt>
      <trkpt lat="46.87861" lon="8.4799">
        <ele>1894</ele>
        <time>2021-08-11T13:10:05.276Z</time>
      </trkpt>
      <trkpt lat="46.87861" lon="8.47989">
        <ele>1893</ele>
        <time>2021-08-11T13:10:06.277Z</time>
      </trkpt>
      <trkpt lat="46.87861" lon="8.47989">
        <ele>1893</ele>
        <time>2021-08-11T13:10:07.277Z</time>
      </trkpt>
      <trkpt lat="46.8786" lon="8.47989">
        <ele>1893</ele>
        <time>2021-08-11T13:10:08.277Z</time>
      </trkpt>
      <trkpt lat="46.8786" lon="8.47988">
        <ele>1893</ele>
        <time>2021-08-11T13:10:09.277Z</time>
      </trkpt>
      <trkpt lat="46.8786" lon="8.47988">
        <ele>1893</ele>
        <time>2021-08-11T13:10:10.276Z</time>
      </trkpt>
      <trkpt lat="46.8786" lon="8.47987">
        <ele>1892</ele>
        <time>2021-08-11T13:10:11.277Z</time>
      </trkpt>
      <trkpt lat="46.8786" lon="8.47987">
        <ele>1892</ele>
        <time>2021-08-11T13:10:12.277Z</time>
      </trkpt>
      <trkpt lat="46.8786" lon="8.47987">
        <ele>1892</ele>
        <time>2021-08-11T13:10:13.277Z</time>
      </trkpt>
      <trkpt lat="46.87859" lon="8.47986">
        <ele>1892</ele>
        <time>2021-08-11T13:10:14.277Z</time>
      </trkpt>
      <trkpt lat="46.87859" lon="8.47985">
        <ele>1893</ele>
        <time>2021-08-11T13:10:15.277Z</time>
      </trkpt>
      <trkpt lat="46.87858" lon="8.47984">
        <ele>1893</ele>
        <time>2021-08-11T13:10:16.276Z</time>
      </trkpt>
      <trkpt lat="46.87858" lon="8.47984">
        <ele>1893</ele>
        <time>2021-08-11T13:10:17.276Z</time>
      </trkpt>
      <trkpt lat="46.87857" lon="8.47984">
        <ele>1894</ele>
        <time>2021-08-11T13:10:18.277Z</time>
      </trkpt>
      <trkpt lat="46.87857" lon="8.47983">
        <ele>1894</ele>
        <time>2021-08-11T13:10:19.277Z</time>
      </trkpt>
      <trkpt lat="46.87856" lon="8.47983">
        <ele>1894</ele>
        <time>2021-08-11T13:10:20.277Z</time>
      </trkpt>
      <trkpt lat="46.87856" lon="8.47982">
        <ele>1895</ele>
        <time>2021-08-11T13:10:21.277Z</time>
      </trkpt>
      <trkpt lat="46.87856" lon="8.47981">
        <ele>1895</ele>
        <time>2021-08-11T13:10:22.276Z</time>
      </trkpt>
      <trkpt lat="46.87856" lon="8.4798">
        <ele>1895</ele>
        <time>2021-08-11T13:10:23.277Z</time>
      </trkpt>
      <trkpt lat="46.87856" lon="8.4798">
        <ele>1895</ele>
        <time>2021-08-11T13:10:24.277Z</time>
      </trkpt>
      <trkpt lat="46.87856" lon="8.47979">
        <ele>1894</ele>
        <time>2021-08-11T13:10:25.277Z</time>
      </trkpt>
      <trkpt lat="46.87856" lon="8.47978">
        <ele>1894</ele>
        <time>2021-08-11T13:10:26.277Z</time>
      </trkpt>
      <trkpt lat="46.87855" lon="8.47977">
        <ele>1894</ele>
        <time>2021-08-11T13:10:27.277Z</time>
      </trkpt>
      <trkpt lat="46.87855" lon="8.47977">
        <ele>1894</ele>
        <time>2021-08-11T13:10:28.277Z</time>
      </trkpt>
      <trkpt lat="46.87855" lon="8.47976">
        <ele>1893</ele>
        <time>2021-08-11T13:10:29.276Z</time>
      </trkpt>
      <trkpt lat="46.87855" lon="8.47976">
        <ele>1893</ele>
        <time>2021-08-11T13:10:30.276Z</time>
      </trkpt>
      <trkpt lat="46.87855" lon="8.47976">
        <ele>1893</ele>
        <time>2021-08-11T13:10:31.277Z</time>
      </trkpt>
      <trkpt lat="46.87856" lon="8.47976">
        <ele>1893</ele>
        <time>2021-08-11T13:10:32.277Z</time>
      </trkpt>
      <trkpt lat="46.87855" lon="8.47974">
        <ele>1893</ele>
        <time>2021-08-11T13:10:33.277Z</time>
      </trkpt>
      <trkpt lat="46.87855" lon="8.47974">
        <ele>1894</ele>
        <time>2021-08-11T13:10:34.277Z</time>
      </trkpt>
      <trkpt lat="46.87855" lon="8.47973">
        <ele>1894</ele>
        <time>2021-08-11T13:10:35.277Z</time>
      </trkpt>
      <trkpt lat="46.87855" lon="8.47972">
        <ele>1895</ele>
        <time>2021-08-11T13:10:36.278Z</time>
      </trkpt>
      <trkpt lat="46.87855" lon="8.47972">
        <ele>1896</ele>
        <time>2021-08-11T13:10:37.277Z</time>
      </trkpt>
      <trkpt lat="46.87854" lon="8.47971">
        <ele>1896</ele>
        <time>2021-08-11T13:10:38.278Z</time>
      </trkpt>
      <trkpt lat="46.87855" lon="8.4797">
        <ele>1896</ele>
        <time>2021-08-11T13:10:39.278Z</time>
      </trkpt>
      <trkpt lat="46.87855" lon="8.47968">
        <ele>1896</ele>
        <time>2021-08-11T13:10:40.278Z</time>
      </trkpt>
      <trkpt lat="46.87855" lon="8.47967">
        <ele>1896</ele>
        <time>2021-08-11T13:10:41.278Z</time>
      </trkpt>
      <trkpt lat="46.87854" lon="8.47966">
        <ele>1896</ele>
        <time>2021-08-11T13:10:42.277Z</time>
      </trkpt>
      <trkpt lat="46.87853" lon="8.47966">
        <ele>1896</ele>
        <time>2021-08-11T13:10:43.277Z</time>
      </trkpt>
      <trkpt lat="46.87852" lon="8.47965">
        <ele>1896</ele>
        <time>2021-08-11T13:10:44.278Z</time>
      </trkpt>
      <trkpt lat="46.87852" lon="8.47964">
        <ele>1896</ele>
        <time>2021-08-11T13:10:45.278Z</time>
      </trkpt>
      <trkpt lat="46.87852" lon="8.47963">
        <ele>1896</ele>
        <time>2021-08-11T13:10:46.278Z</time>
      </trkpt>
      <trkpt lat="46.87852" lon="8.47963">
        <ele>1895</ele>
        <time>2021-08-11T13:10:47.278Z</time>
      </trkpt>
      <trkpt lat="46.87852" lon="8.47962">
        <ele>1895</ele>
        <time>2021-08-11T13:10:48.277Z</time>
      </trkpt>
      <trkpt lat="46.87852" lon="8.47962">
        <ele>1895</ele>
        <time>2021-08-11T13:10:49.278Z</time>
      </trkpt>
      <trkpt lat="46.87852" lon="8.4796">
        <ele>1895</ele>
        <time>2021-08-11T13:10:50.278Z</time>
      </trkpt>
      <trkpt lat="46.87852" lon="8.4796">
        <ele>1895</ele>
        <time>2021-08-11T13:10:51.278Z</time>
      </trkpt>
      <trkpt lat="46.87852" lon="8.47959">
        <ele>1894</ele>
        <time>2021-08-11T13:10:52.278Z</time>
      </trkpt>
      <trkpt lat="46.87851" lon="8.47958">
        <ele>1893</ele>
        <time>2021-08-11T13:10:53.277Z</time>
      </trkpt>
      <trkpt lat="46.87851" lon="8.47957">
        <ele>1893</ele>
        <time>2021-08-11T13:10:54.278Z</time>
      </trkpt>
      <trkpt lat="46.87851" lon="8.47956">
        <ele>1893</ele>
        <time>2021-08-11T13:10:55.278Z</time>
      </trkpt>
      <trkpt lat="46.87851" lon="8.47955">
        <ele>1892</ele>
        <time>2021-08-11T13:10:56.278Z</time>
      </trkpt>
      <trkpt lat="46.8785" lon="8.47954">
        <ele>1893</ele>
        <time>2021-08-11T13:10:57.278Z</time>
      </trkpt>
      <trkpt lat="46.87849" lon="8.47953">
        <ele>1893</ele>
        <time>2021-08-11T13:10:58.278Z</time>
      </trkpt>
      <trkpt lat="46.87849" lon="8.47953">
        <ele>1893</ele>
        <time>2021-08-11T13:10:59.277Z</time>
      </trkpt>
      <trkpt lat="46.87849" lon="8.47952">
        <ele>1894</ele>
        <time>2021-08-11T13:11:00.278Z</time>
      </trkpt>
      <trkpt lat="46.87848" lon="8.47951">
        <ele>1894</ele>
        <time>2021-08-11T13:11:01.277Z</time>
      </trkpt>
      <trkpt lat="46.87848" lon="8.4795">
        <ele>1895</ele>
        <time>2021-08-11T13:11:02.278Z</time>
      </trkpt>
      <trkpt lat="46.87849" lon="8.47949">
        <ele>1895</ele>
        <time>2021-08-11T13:11:03.278Z</time>
      </trkpt>
      <trkpt lat="46.87849" lon="8.47948">
        <ele>1896</ele>
        <time>2021-08-11T13:11:04.277Z</time>
      </trkpt>
      <trkpt lat="46.87849" lon="8.47948">
        <ele>1896</ele>
        <time>2021-08-11T13:11:05.278Z</time>
      </trkpt>
      <trkpt lat="46.87849" lon="8.47947">
        <ele>1897</ele>
        <time>2021-08-11T13:11:06.278Z</time>
      </trkpt>
      <trkpt lat="46.87849" lon="8.47946">
        <ele>1897</ele>
        <time>2021-08-11T13:11:07.278Z</time>
      </trkpt>
      <trkpt lat="46.87849" lon="8.47945">
        <ele>1897</ele>
        <time>2021-08-11T13:11:08.278Z</time>
      </trkpt>
      <trkpt lat="46.87849" lon="8.47944">
        <ele>1898</ele>
        <time>2021-08-11T13:11:09.278Z</time>
      </trkpt>
      <trkpt lat="46.87849" lon="8.47944">
        <ele>1898</ele>
        <time>2021-08-11T13:11:10.277Z</time>
      </trkpt>
      <trkpt lat="46.87849" lon="8.47944">
        <ele>1899</ele>
        <time>2021-08-11T13:11:11.278Z</time>
      </trkpt>
      <trkpt lat="46.87848" lon="8.47942">
        <ele>1900</ele>
        <time>2021-08-11T13:11:12.279Z</time>
      </trkpt>
      <trkpt lat="46.87848" lon="8.47942">
        <ele>1900</ele>
        <time>2021-08-11T13:11:13.279Z</time>
      </trkpt>
      <trkpt lat="46.87847" lon="8.47942">
        <ele>1900</ele>
        <time>2021-08-11T13:11:14.278Z</time>
      </trkpt>
      <trkpt lat="46.87847" lon="8.47942">
        <ele>1900</ele>
        <time>2021-08-11T13:11:15.279Z</time>
      </trkpt>
      <trkpt lat="46.87846" lon="8.47941">
        <ele>1900</ele>
        <time>2021-08-11T13:11:16.279Z</time>
      </trkpt>
      <trkpt lat="46.87845" lon="8.47941">
        <ele>1900</ele>
        <time>2021-08-11T13:11:17.278Z</time>
      </trkpt>
      <trkpt lat="46.87845" lon="8.4794">
        <ele>1900</ele>
        <time>2021-08-11T13:11:18.278Z</time>
      </trkpt>
      <trkpt lat="46.87844" lon="8.47939">
        <ele>1900</ele>
        <time>2021-08-11T13:11:19.279Z</time>
      </trkpt>
      <trkpt lat="46.87844" lon="8.47938">
        <ele>1900</ele>
        <time>2021-08-11T13:11:20.279Z</time>
      </trkpt>
      <trkpt lat="46.87843" lon="8.47938">
        <ele>1900</ele>
        <time>2021-08-11T13:11:21.278Z</time>
      </trkpt>
      <trkpt lat="46.87843" lon="8.47937">
        <ele>1901</ele>
        <time>2021-08-11T13:11:22.278Z</time>
      </trkpt>
      <trkpt lat="46.87843" lon="8.47937">
        <ele>1901</ele>
        <time>2021-08-11T13:11:23.278Z</time>
      </trkpt>
      <trkpt lat="46.87842" lon="8.47936">
        <ele>1901</ele>
        <time>2021-08-11T13:11:24.278Z</time>
      </trkpt>
      <trkpt lat="46.87842" lon="8.47935">
        <ele>1902</ele>
        <time>2021-08-11T13:11:25.279Z</time>
      </trkpt>
      <trkpt lat="46.87842" lon="8.47935">
        <ele>1902</ele>
        <time>2021-08-11T13:11:26.278Z</time>
      </trkpt>
      <trkpt lat="46.87841" lon="8.47934">
        <ele>1902</ele>
        <time>2021-08-11T13:11:27.279Z</time>
      </trkpt>
      <trkpt lat="46.87841" lon="8.47933">
        <ele>1903</ele>
        <time>2021-08-11T13:11:28.278Z</time>
      </trkpt>
      <trkpt lat="46.87841" lon="8.47932">
        <ele>1903</ele>
        <time>2021-08-11T13:11:29.279Z</time>
      </trkpt>
      <trkpt lat="46.8784" lon="8.47931">
        <ele>1903</ele>
        <time>2021-08-11T13:11:30.279Z</time>
      </trkpt>
      <trkpt lat="46.8784" lon="8.47931">
        <ele>1904</ele>
        <time>2021-08-11T13:11:31.279Z</time>
      </trkpt>
      <trkpt lat="46.8784" lon="8.4793">
        <ele>1904</ele>
        <time>2021-08-11T13:11:32.278Z</time>
      </trkpt>
      <trkpt lat="46.87839" lon="8.47928">
        <ele>1904</ele>
        <time>2021-08-11T13:11:33.279Z</time>
      </trkpt>
      <trkpt lat="46.87839" lon="8.47928">
        <ele>1904</ele>
        <time>2021-08-11T13:11:34.279Z</time>
      </trkpt>
      <trkpt lat="46.87838" lon="8.47926">
        <ele>1905</ele>
        <time>2021-08-11T13:11:35.279Z</time>
      </trkpt>
      <trkpt lat="46.87838" lon="8.47925">
        <ele>1906</ele>
        <time>2021-08-11T13:11:36.279Z</time>
      </trkpt>
      <trkpt lat="46.87837" lon="8.47924">
        <ele>1906</ele>
        <time>2021-08-11T13:11:37.279Z</time>
      </trkpt>
      <trkpt lat="46.87837" lon="8.47924">
        <ele>1907</ele>
        <time>2021-08-11T13:11:38.279Z</time>
      </trkpt>
      <trkpt lat="46.87836" lon="8.47923">
        <ele>1907</ele>
        <time>2021-08-11T13:11:39.278Z</time>
      </trkpt>
      <trkpt lat="46.87836" lon="8.47923">
        <ele>1907</ele>
        <time>2021-08-11T13:11:40.279Z</time>
      </trkpt>
      <trkpt lat="46.87837" lon="8.47923">
        <ele>1907</ele>
        <time>2021-08-11T13:11:41.278Z</time>
      </trkpt>
      <trkpt lat="46.87837" lon="8.47923">
        <ele>1907</ele>
        <time>2021-08-11T13:11:42.278Z</time>
      </trkpt>
      <trkpt lat="46.87839" lon="8.47919">
        <ele>1907</ele>
        <time>2021-08-11T13:11:43.278Z</time>
      </trkpt>
      <trkpt lat="46.87839" lon="8.47919">
        <ele>1908</ele>
        <time>2021-08-11T13:11:44.279Z</time>
      </trkpt>
      <trkpt lat="46.87838" lon="8.47918">
        <ele>1908</ele>
        <time>2021-08-11T13:11:45.278Z</time>
      </trkpt>
      <trkpt lat="46.87838" lon="8.47917">
        <ele>1907</ele>
        <time>2021-08-11T13:11:46.278Z</time>
      </trkpt>
      <trkpt lat="46.87837" lon="8.47916">
        <ele>1907</ele>
        <time>2021-08-11T13:11:47.278Z</time>
      </trkpt>
      <trkpt lat="46.87837" lon="8.47915">
        <ele>1907</ele>
        <time>2021-08-11T13:11:48.278Z</time>
      </trkpt>
      <trkpt lat="46.87836" lon="8.47914">
        <ele>1907</ele>
        <time>2021-08-11T13:11:49.278Z</time>
      </trkpt>
      <trkpt lat="46.87836" lon="8.47913">
        <ele>1907</ele>
        <time>2021-08-11T13:11:50.278Z</time>
      </trkpt>
      <trkpt lat="46.87836" lon="8.47913">
        <ele>1906</ele>
        <time>2021-08-11T13:11:51.278Z</time>
      </trkpt>
      <trkpt lat="46.87836" lon="8.47912">
        <ele>1906</ele>
        <time>2021-08-11T13:11:52.278Z</time>
      </trkpt>
      <trkpt lat="46.87836" lon="8.47911">
        <ele>1906</ele>
        <time>2021-08-11T13:11:53.279Z</time>
      </trkpt>
      <trkpt lat="46.87835" lon="8.4791">
        <ele>1906</ele>
        <time>2021-08-11T13:11:54.279Z</time>
      </trkpt>
      <trkpt lat="46.87836" lon="8.47909">
        <ele>1907</ele>
        <time>2021-08-11T13:11:55.278Z</time>
      </trkpt>
      <trkpt lat="46.87836" lon="8.47908">
        <ele>1907</ele>
        <time>2021-08-11T13:11:56.278Z</time>
      </trkpt>
      <trkpt lat="46.87836" lon="8.47908">
        <ele>1907</ele>
        <time>2021-08-11T13:11:57.279Z</time>
      </trkpt>
      <trkpt lat="46.87836" lon="8.47906">
        <ele>1907</ele>
        <time>2021-08-11T13:11:58.279Z</time>
      </trkpt>
      <trkpt lat="46.87836" lon="8.47905">
        <ele>1907</ele>
        <time>2021-08-11T13:11:59.279Z</time>
      </trkpt>
      <trkpt lat="46.87836" lon="8.47904">
        <ele>1907</ele>
        <time>2021-08-11T13:12:00.279Z</time>
      </trkpt>
      <trkpt lat="46.87836" lon="8.47903">
        <ele>1907</ele>
        <time>2021-08-11T13:12:01.278Z</time>
      </trkpt>
      <trkpt lat="46.87835" lon="8.47902">
        <ele>1907</ele>
        <time>2021-08-11T13:12:02.279Z</time>
      </trkpt>
      <trkpt lat="46.87834" lon="8.47902">
        <ele>1907</ele>
        <time>2021-08-11T13:12:03.279Z</time>
      </trkpt>
      <trkpt lat="46.87834" lon="8.47901">
        <ele>1907</ele>
        <time>2021-08-11T13:12:04.279Z</time>
      </trkpt>
      <trkpt lat="46.87833" lon="8.479">
        <ele>1907</ele>
        <time>2021-08-11T13:12:05.279Z</time>
      </trkpt>
      <trkpt lat="46.87833" lon="8.47899">
        <ele>1907</ele>
        <time>2021-08-11T13:12:06.278Z</time>
      </trkpt>
      <trkpt lat="46.87832" lon="8.47897">
        <ele>1907</ele>
        <time>2021-08-11T13:12:07.279Z</time>
      </trkpt>
      <trkpt lat="46.87832" lon="8.47896">
        <ele>1907</ele>
        <time>2021-08-11T13:12:08.279Z</time>
      </trkpt>
      <trkpt lat="46.87831" lon="8.47895">
        <ele>1907</ele>
        <time>2021-08-11T13:12:09.278Z</time>
      </trkpt>
      <trkpt lat="46.87831" lon="8.47894">
        <ele>1907</ele>
        <time>2021-08-11T13:12:10.279Z</time>
      </trkpt>
      <trkpt lat="46.87831" lon="8.47892">
        <ele>1907</ele>
        <time>2021-08-11T13:12:11.278Z</time>
      </trkpt>
      <trkpt lat="46.87831" lon="8.47891">
        <ele>1907</ele>
        <time>2021-08-11T13:12:12.278Z</time>
      </trkpt>
      <trkpt lat="46.8783" lon="8.4789">
        <ele>1908</ele>
        <time>2021-08-11T13:12:13.279Z</time>
      </trkpt>
      <trkpt lat="46.87829" lon="8.4789">
        <ele>1908</ele>
        <time>2021-08-11T13:12:14.279Z</time>
      </trkpt>
      <trkpt lat="46.87829" lon="8.47889">
        <ele>1908</ele>
        <time>2021-08-11T13:12:15.279Z</time>
      </trkpt>
      <trkpt lat="46.87829" lon="8.47888">
        <ele>1908</ele>
        <time>2021-08-11T13:12:16.279Z</time>
      </trkpt>
      <trkpt lat="46.87828" lon="8.47887">
        <ele>1908</ele>
        <time>2021-08-11T13:12:17.278Z</time>
      </trkpt>
      <trkpt lat="46.87828" lon="8.47886">
        <ele>1908</ele>
        <time>2021-08-11T13:12:18.279Z</time>
      </trkpt>
      <trkpt lat="46.87828" lon="8.47885">
        <ele>1908</ele>
        <time>2021-08-11T13:12:19.279Z</time>
      </trkpt>
      <trkpt lat="46.87828" lon="8.47885">
        <ele>1907</ele>
        <time>2021-08-11T13:12:20.279Z</time>
      </trkpt>
      <trkpt lat="46.87827" lon="8.47884">
        <ele>1907</ele>
        <time>2021-08-11T13:12:21.279Z</time>
      </trkpt>
      <trkpt lat="46.87827" lon="8.47883">
        <ele>1907</ele>
        <time>2021-08-11T13:12:22.279Z</time>
      </trkpt>
      <trkpt lat="46.87827" lon="8.47881">
        <ele>1907</ele>
        <time>2021-08-11T13:12:23.279Z</time>
      </trkpt>
      <trkpt lat="46.87826" lon="8.4788">
        <ele>1907</ele>
        <time>2021-08-11T13:12:24.279Z</time>
      </trkpt>
      <trkpt lat="46.87825" lon="8.47879">
        <ele>1907</ele>
        <time>2021-08-11T13:12:25.279Z</time>
      </trkpt>
      <trkpt lat="46.87825" lon="8.47878">
        <ele>1908</ele>
        <time>2021-08-11T13:12:26.278Z</time>
      </trkpt>
      <trkpt lat="46.87824" lon="8.47877">
        <ele>1908</ele>
        <time>2021-08-11T13:12:27.278Z</time>
      </trkpt>
      <trkpt lat="46.87824" lon="8.47877">
        <ele>1909</ele>
        <time>2021-08-11T13:12:28.279Z</time>
      </trkpt>
      <trkpt lat="46.87823" lon="8.47876">
        <ele>1909</ele>
        <time>2021-08-11T13:12:29.279Z</time>
      </trkpt>
      <trkpt lat="46.87823" lon="8.47875">
        <ele>1910</ele>
        <time>2021-08-11T13:12:30.279Z</time>
      </trkpt>
      <trkpt lat="46.87823" lon="8.47875">
        <ele>1910</ele>
        <time>2021-08-11T13:12:31.278Z</time>
      </trkpt>
      <trkpt lat="46.87822" lon="8.47874">
        <ele>1911</ele>
        <time>2021-08-11T13:12:32.278Z</time>
      </trkpt>
      <trkpt lat="46.87822" lon="8.47873">
        <ele>1911</ele>
        <time>2021-08-11T13:12:33.279Z</time>
      </trkpt>
      <trkpt lat="46.87822" lon="8.47872">
        <ele>1911</ele>
        <time>2021-08-11T13:12:34.279Z</time>
      </trkpt>
      <trkpt lat="46.87821" lon="8.47871">
        <ele>1912</ele>
        <time>2021-08-11T13:12:35.279Z</time>
      </trkpt>
      <trkpt lat="46.87821" lon="8.4787">
        <ele>1912</ele>
        <time>2021-08-11T13:12:36.278Z</time>
      </trkpt>
      <trkpt lat="46.87821" lon="8.4787">
        <ele>1912</ele>
        <time>2021-08-11T13:12:37.278Z</time>
      </trkpt>
      <trkpt lat="46.87821" lon="8.47869">
        <ele>1912</ele>
        <time>2021-08-11T13:12:38.279Z</time>
      </trkpt>
      <trkpt lat="46.87821" lon="8.47869">
        <ele>1912</ele>
        <time>2021-08-11T13:12:39.279Z</time>
      </trkpt>
      <trkpt lat="46.87821" lon="8.47868">
        <ele>1912</ele>
        <time>2021-08-11T13:12:40.279Z</time>
      </trkpt>
      <trkpt lat="46.87821" lon="8.47867">
        <ele>1913</ele>
        <time>2021-08-11T13:12:41.280Z</time>
      </trkpt>
      <trkpt lat="46.87821" lon="8.47866">
        <ele>1913</ele>
        <time>2021-08-11T13:12:42.279Z</time>
      </trkpt>
      <trkpt lat="46.8782" lon="8.47866">
        <ele>1913</ele>
        <time>2021-08-11T13:12:43.279Z</time>
      </trkpt>
      <trkpt lat="46.8782" lon="8.47865">
        <ele>1912</ele>
        <time>2021-08-11T13:12:44.280Z</time>
      </trkpt>
      <trkpt lat="46.87821" lon="8.47865">
        <ele>1912</ele>
        <time>2021-08-11T13:12:45.280Z</time>
      </trkpt>
      <trkpt lat="46.87821" lon="8.47864">
        <ele>1912</ele>
        <time>2021-08-11T13:12:46.279Z</time>
      </trkpt>
      <trkpt lat="46.87821" lon="8.47864">
        <ele>1911</ele>
        <time>2021-08-11T13:12:47.280Z</time>
      </trkpt>
      <trkpt lat="46.87821" lon="8.47863">
        <ele>1911</ele>
        <time>2021-08-11T13:12:48.279Z</time>
      </trkpt>
      <trkpt lat="46.8782" lon="8.47862">
        <ele>1911</ele>
        <time>2021-08-11T13:12:49.279Z</time>
      </trkpt>
      <trkpt lat="46.8782" lon="8.47862">
        <ele>1911</ele>
        <time>2021-08-11T13:12:50.279Z</time>
      </trkpt>
      <trkpt lat="46.8782" lon="8.47862">
        <ele>1911</ele>
        <time>2021-08-11T13:12:51.280Z</time>
      </trkpt>
      <trkpt lat="46.8782" lon="8.47861">
        <ele>1911</ele>
        <time>2021-08-11T13:12:52.279Z</time>
      </trkpt>
      <trkpt lat="46.8782" lon="8.47861">
        <ele>1909</ele>
        <time>2021-08-11T13:12:53.281Z</time>
      </trkpt>
      <trkpt lat="46.87821" lon="8.47863">
        <ele>1915</ele>
        <time>2021-08-11T13:12:54.281Z</time>
      </trkpt>
      <trkpt lat="46.87821" lon="8.47863">
        <ele>1915</ele>
        <time>2021-08-11T13:12:55.280Z</time>
      </trkpt>
      <trkpt lat="46.87821" lon="8.47863">
        <ele>1915</ele>
        <time>2021-08-11T13:12:56.280Z</time>
      </trkpt>
      <trkpt lat="46.87821" lon="8.47863">
        <ele>1914</ele>
        <time>2021-08-11T13:12:57.281Z</time>
      </trkpt>
      <trkpt lat="46.8782" lon="8.47863">
        <ele>1914</ele>
        <time>2021-08-11T13:12:58.280Z</time>
      </trkpt>
      <trkpt lat="46.8782" lon="8.47863">
        <ele>1914</ele>
        <time>2021-08-11T13:12:59.280Z</time>
      </trkpt>
      <trkpt lat="46.8782" lon="8.47863">
        <ele>1914</ele>
        <time>2021-08-11T13:13:00.281Z</time>
      </trkpt>
      <trkpt lat="46.87821" lon="8.47863">
        <ele>1914</ele>
        <time>2021-08-11T13:13:01.281Z</time>
      </trkpt>
      <trkpt lat="46.87821" lon="8.47863">
        <ele>1914</ele>
        <time>2021-08-11T13:13:02.280Z</time>
      </trkpt>
      <trkpt lat="46.87821" lon="8.47863">
        <ele>1914</ele>
        <time>2021-08-11T13:13:03.281Z</time>
      </trkpt>
      <trkpt lat="46.87822" lon="8.47863">
        <ele>1914</ele>
        <time>2021-08-11T13:13:04.282Z</time>
      </trkpt>
      <trkpt lat="46.87821" lon="8.47862">
        <ele>1915</ele>
        <time>2021-08-11T13:13:05.281Z</time>
      </trkpt>
      <trkpt lat="46.87818" lon="8.47857">
        <ele>1916</ele>
        <time>2021-08-11T13:13:06.281Z</time>
      </trkpt>
      <trkpt lat="46.87819" lon="8.47855">
        <ele>1917</ele>
        <time>2021-08-11T13:13:07.282Z</time>
      </trkpt>
      <trkpt lat="46.87819" lon="8.47854">
        <ele>1918</ele>
        <time>2021-08-11T13:13:08.282Z</time>
      </trkpt>
      <trkpt lat="46.87819" lon="8.47853">
        <ele>1918</ele>
        <time>2021-08-11T13:13:09.282Z</time>
      </trkpt>
      <trkpt lat="46.87819" lon="8.47852">
        <ele>1919</ele>
        <time>2021-08-11T13:13:10.282Z</time>
      </trkpt>
      <trkpt lat="46.87819" lon="8.47852">
        <ele>1919</ele>
        <time>2021-08-11T13:13:11.282Z</time>
      </trkpt>
      <trkpt lat="46.87819" lon="8.47852">
        <ele>1919</ele>
        <time>2021-08-11T13:13:12.282Z</time>
      </trkpt>
      <trkpt lat="46.87819" lon="8.47851">
        <ele>1919</ele>
        <time>2021-08-11T13:13:13.282Z</time>
      </trkpt>
      <trkpt lat="46.8782" lon="8.4785">
        <ele>1919</ele>
        <time>2021-08-11T13:13:14.282Z</time>
      </trkpt>
      <trkpt lat="46.87821" lon="8.47849">
        <ele>1919</ele>
        <time>2021-08-11T13:13:15.282Z</time>
      </trkpt>
      <trkpt lat="46.87822" lon="8.47847">
        <ele>1919</ele>
        <time>2021-08-11T13:13:16.282Z</time>
      </trkpt>
      <trkpt lat="46.87822" lon="8.47847">
        <ele>1919</ele>
        <time>2021-08-11T13:13:17.282Z</time>
      </trkpt>
      <trkpt lat="46.87822" lon="8.47846">
        <ele>1919</ele>
        <time>2021-08-11T13:13:18.282Z</time>
      </trkpt>
      <trkpt lat="46.87822" lon="8.47846">
        <ele>1919</ele>
        <time>2021-08-11T13:13:19.282Z</time>
      </trkpt>
      <trkpt lat="46.87822" lon="8.47845">
        <ele>1920</ele>
        <time>2021-08-11T13:13:20.282Z</time>
      </trkpt>
      <trkpt lat="46.87822" lon="8.47844">
        <ele>1920</ele>
        <time>2021-08-11T13:13:21.282Z</time>
      </trkpt>
      <trkpt lat="46.87821" lon="8.47843">
        <ele>1920</ele>
        <time>2021-08-11T13:13:22.282Z</time>
      </trkpt>
      <trkpt lat="46.8782" lon="8.47843">
        <ele>1920</ele>
        <time>2021-08-11T13:13:23.282Z</time>
      </trkpt>
      <trkpt lat="46.87819" lon="8.47843">
        <ele>1919</ele>
        <time>2021-08-11T13:13:24.282Z</time>
      </trkpt>
      <trkpt lat="46.87818" lon="8.47842">
        <ele>1919</ele>
        <time>2021-08-11T13:13:25.281Z</time>
      </trkpt>
      <trkpt lat="46.87817" lon="8.47842">
        <ele>1919</ele>
        <time>2021-08-11T13:13:26.282Z</time>
      </trkpt>
      <trkpt lat="46.87816" lon="8.47842">
        <ele>1919</ele>
        <time>2021-08-11T13:13:27.282Z</time>
      </trkpt>
      <trkpt lat="46.87816" lon="8.47842">
        <ele>1920</ele>
        <time>2021-08-11T13:13:28.282Z</time>
      </trkpt>
      <trkpt lat="46.87816" lon="8.47842">
        <ele>1920</ele>
        <time>2021-08-11T13:13:29.281Z</time>
      </trkpt>
      <trkpt lat="46.87817" lon="8.47841">
        <ele>1921</ele>
        <time>2021-08-11T13:13:30.282Z</time>
      </trkpt>
      <trkpt lat="46.87817" lon="8.4784">
        <ele>1921</ele>
        <time>2021-08-11T13:13:31.282Z</time>
      </trkpt>
      <trkpt lat="46.87816" lon="8.4784">
        <ele>1921</ele>
        <time>2021-08-11T13:13:32.281Z</time>
      </trkpt>
      <trkpt lat="46.87814" lon="8.47839">
        <ele>1922</ele>
        <time>2021-08-11T13:13:33.282Z</time>
      </trkpt>
      <trkpt lat="46.87813" lon="8.47838">
        <ele>1922</ele>
        <time>2021-08-11T13:13:34.282Z</time>
      </trkpt>
      <trkpt lat="46.87812" lon="8.47837">
        <ele>1922</ele>
        <time>2021-08-11T13:13:35.282Z</time>
      </trkpt>
      <trkpt lat="46.87812" lon="8.47836">
        <ele>1923</ele>
        <time>2021-08-11T13:13:36.282Z</time>
      </trkpt>
      <trkpt lat="46.87812" lon="8.47836">
        <ele>1923</ele>
        <time>2021-08-11T13:13:37.282Z</time>
      </trkpt>
      <trkpt lat="46.87812" lon="8.47836">
        <ele>1923</ele>
        <time>2021-08-11T13:13:38.281Z</time>
      </trkpt>
      <trkpt lat="46.87812" lon="8.47836">
        <ele>1923</ele>
        <time>2021-08-11T13:13:39.282Z</time>
      </trkpt>
      <trkpt lat="46.87812" lon="8.47835">
        <ele>1923</ele>
        <time>2021-08-11T13:13:40.282Z</time>
      </trkpt>
      <trkpt lat="46.87812" lon="8.47835">
        <ele>1923</ele>
        <time>2021-08-11T13:13:41.282Z</time>
      </trkpt>
      <trkpt lat="46.87812" lon="8.47834">
        <ele>1923</ele>
        <time>2021-08-11T13:13:42.281Z</time>
      </trkpt>
      <trkpt lat="46.87811" lon="8.47833">
        <ele>1923</ele>
        <time>2021-08-11T13:13:43.282Z</time>
      </trkpt>
      <trkpt lat="46.87811" lon="8.47832">
        <ele>1923</ele>
        <time>2021-08-11T13:13:44.282Z</time>
      </trkpt>
      <trkpt lat="46.87811" lon="8.47831">
        <ele>1923</ele>
        <time>2021-08-11T13:13:45.281Z</time>
      </trkpt>
      <trkpt lat="46.87811" lon="8.4783">
        <ele>1923</ele>
        <time>2021-08-11T13:13:46.282Z</time>
      </trkpt>
      <trkpt lat="46.8781" lon="8.4783">
        <ele>1923</ele>
        <time>2021-08-11T13:13:47.282Z</time>
      </trkpt>
      <trkpt lat="46.8781" lon="8.4783">
        <ele>1923</ele>
        <time>2021-08-11T13:13:48.282Z</time>
      </trkpt>
      <trkpt lat="46.8781" lon="8.4783">
        <ele>1924</ele>
        <time>2021-08-11T13:13:49.282Z</time>
      </trkpt>
      <trkpt lat="46.87811" lon="8.47829">
        <ele>1924</ele>
        <time>2021-08-11T13:13:50.282Z</time>
      </trkpt>
      <trkpt lat="46.87811" lon="8.47828">
        <ele>1924</ele>
        <time>2021-08-11T13:13:51.282Z</time>
      </trkpt>
      <trkpt lat="46.87811" lon="8.47827">
        <ele>1924</ele>
        <time>2021-08-11T13:13:52.282Z</time>
      </trkpt>
      <trkpt lat="46.87811" lon="8.47827">
        <ele>1925</ele>
        <time>2021-08-11T13:13:53.282Z</time>
      </trkpt>
      <trkpt lat="46.8781" lon="8.47827">
        <ele>1925</ele>
        <time>2021-08-11T13:13:54.282Z</time>
      </trkpt>
      <trkpt lat="46.8781" lon="8.47827">
        <ele>1925</ele>
        <time>2021-08-11T13:13:55.282Z</time>
      </trkpt>
      <trkpt lat="46.87809" lon="8.47826">
        <ele>1925</ele>
        <time>2021-08-11T13:13:56.281Z</time>
      </trkpt>
      <trkpt lat="46.87809" lon="8.47826">
        <ele>1926</ele>
        <time>2021-08-11T13:13:57.282Z</time>
      </trkpt>
      <trkpt lat="46.87809" lon="8.47825">
        <ele>1926</ele>
        <time>2021-08-11T13:13:58.282Z</time>
      </trkpt>
      <trkpt lat="46.87809" lon="8.47824">
        <ele>1926</ele>
        <time>2021-08-11T13:13:59.282Z</time>
      </trkpt>
      <trkpt lat="46.87809" lon="8.47823">
        <ele>1926</ele>
        <time>2021-08-11T13:14:00.281Z</time>
      </trkpt>
      <trkpt lat="46.87809" lon="8.47822">
        <ele>1926</ele>
        <time>2021-08-11T13:14:01.282Z</time>
      </trkpt>
      <trkpt lat="46.87809" lon="8.47821">
        <ele>1926</ele>
        <time>2021-08-11T13:14:02.281Z</time>
      </trkpt>
      <trkpt lat="46.87809" lon="8.4782">
        <ele>1926</ele>
        <time>2021-08-11T13:14:03.281Z</time>
      </trkpt>
      <trkpt lat="46.8781" lon="8.47819">
        <ele>1925</ele>
        <time>2021-08-11T13:14:04.281Z</time>
      </trkpt>
      <trkpt lat="46.8781" lon="8.47818">
        <ele>1925</ele>
        <time>2021-08-11T13:14:05.282Z</time>
      </trkpt>
      <trkpt lat="46.8781" lon="8.47817">
        <ele>1925</ele>
        <time>2021-08-11T13:14:06.281Z</time>
      </trkpt>
      <trkpt lat="46.87809" lon="8.47816">
        <ele>1925</ele>
        <time>2021-08-11T13:14:07.282Z</time>
      </trkpt>
      <trkpt lat="46.87809" lon="8.47814">
        <ele>1924</ele>
        <time>2021-08-11T13:14:08.281Z</time>
      </trkpt>
      <trkpt lat="46.87808" lon="8.47813">
        <ele>1924</ele>
        <time>2021-08-11T13:14:09.282Z</time>
      </trkpt>
      <trkpt lat="46.87808" lon="8.47813">
        <ele>1924</ele>
        <time>2021-08-11T13:14:10.282Z</time>
      </trkpt>
      <trkpt lat="46.87807" lon="8.47812">
        <ele>1925</ele>
        <time>2021-08-11T13:14:11.282Z</time>
      </trkpt>
      <trkpt lat="46.87806" lon="8.47811">
        <ele>1925</ele>
        <time>2021-08-11T13:14:12.282Z</time>
      </trkpt>
      <trkpt lat="46.87806" lon="8.47809">
        <ele>1925</ele>
        <time>2021-08-11T13:14:13.282Z</time>
      </trkpt>
      <trkpt lat="46.87805" lon="8.47807">
        <ele>1926</ele>
        <time>2021-08-11T13:14:14.282Z</time>
      </trkpt>
      <trkpt lat="46.87805" lon="8.47806">
        <ele>1926</ele>
        <time>2021-08-11T13:14:15.282Z</time>
      </trkpt>
      <trkpt lat="46.87804" lon="8.47805">
        <ele>1926</ele>
        <time>2021-08-11T13:14:16.282Z</time>
      </trkpt>
      <trkpt lat="46.87803" lon="8.47804">
        <ele>1926</ele>
        <time>2021-08-11T13:14:17.282Z</time>
      </trkpt>
      <trkpt lat="46.87802" lon="8.47803">
        <ele>1926</ele>
        <time>2021-08-11T13:14:18.281Z</time>
      </trkpt>
      <trkpt lat="46.87801" lon="8.47802">
        <ele>1926</ele>
        <time>2021-08-11T13:14:19.282Z</time>
      </trkpt>
      <trkpt lat="46.87801" lon="8.47802">
        <ele>1926</ele>
        <time>2021-08-11T13:14:20.282Z</time>
      </trkpt>
      <trkpt lat="46.878" lon="8.47801">
        <ele>1926</ele>
        <time>2021-08-11T13:14:21.282Z</time>
      </trkpt>
      <trkpt lat="46.878" lon="8.478">
        <ele>1926</ele>
        <time>2021-08-11T13:14:22.282Z</time>
      </trkpt>
      <trkpt lat="46.878" lon="8.478">
        <ele>1926</ele>
        <time>2021-08-11T13:14:23.282Z</time>
      </trkpt>
      <trkpt lat="46.878" lon="8.47799">
        <ele>1926</ele>
        <time>2021-08-11T13:14:24.281Z</time>
      </trkpt>
      <trkpt lat="46.878" lon="8.47799">
        <ele>1926</ele>
        <time>2021-08-11T13:14:25.282Z</time>
      </trkpt>
      <trkpt lat="46.878" lon="8.47798">
        <ele>1926</ele>
        <time>2021-08-11T13:14:26.282Z</time>
      </trkpt>
      <trkpt lat="46.87799" lon="8.47797">
        <ele>1926</ele>
        <time>2021-08-11T13:14:27.281Z</time>
      </trkpt>
      <trkpt lat="46.87799" lon="8.47797">
        <ele>1926</ele>
        <time>2021-08-11T13:14:28.282Z</time>
      </trkpt>
      <trkpt lat="46.87798" lon="8.47796">
        <ele>1926</ele>
        <time>2021-08-11T13:14:29.281Z</time>
      </trkpt>
      <trkpt lat="46.87798" lon="8.47796">
        <ele>1927</ele>
        <time>2021-08-11T13:14:30.282Z</time>
      </trkpt>
      <trkpt lat="46.87798" lon="8.47795">
        <ele>1927</ele>
        <time>2021-08-11T13:14:31.282Z</time>
      </trkpt>
      <trkpt lat="46.87798" lon="8.47795">
        <ele>1927</ele>
        <time>2021-08-11T13:14:32.281Z</time>
      </trkpt>
      <trkpt lat="46.87798" lon="8.47795">
        <ele>1928</ele>
        <time>2021-08-11T13:14:33.282Z</time>
      </trkpt>
      <trkpt lat="46.87797" lon="8.47795">
        <ele>1928</ele>
        <time>2021-08-11T13:14:34.281Z</time>
      </trkpt>
      <trkpt lat="46.87796" lon="8.47795">
        <ele>1928</ele>
        <time>2021-08-11T13:14:35.281Z</time>
      </trkpt>
      <trkpt lat="46.87796" lon="8.47795">
        <ele>1928</ele>
        <time>2021-08-11T13:14:36.282Z</time>
      </trkpt>
      <trkpt lat="46.87796" lon="8.47794">
        <ele>1928</ele>
        <time>2021-08-11T13:14:37.282Z</time>
      </trkpt>
      <trkpt lat="46.87795" lon="8.47794">
        <ele>1927</ele>
        <time>2021-08-11T13:14:38.282Z</time>
      </trkpt>
      <trkpt lat="46.87795" lon="8.47793">
        <ele>1927</ele>
        <time>2021-08-11T13:14:39.282Z</time>
      </trkpt>
      <trkpt lat="46.87795" lon="8.47792">
        <ele>1927</ele>
        <time>2021-08-11T13:14:40.281Z</time>
      </trkpt>
      <trkpt lat="46.87794" lon="8.47792">
        <ele>1926</ele>
        <time>2021-08-11T13:14:41.282Z</time>
      </trkpt>
      <trkpt lat="46.87794" lon="8.47791">
        <ele>1926</ele>
        <time>2021-08-11T13:14:42.281Z</time>
      </trkpt>
      <trkpt lat="46.87793" lon="8.4779">
        <ele>1927</ele>
        <time>2021-08-11T13:14:43.281Z</time>
      </trkpt>
      <trkpt lat="46.87793" lon="8.4779">
        <ele>1927</ele>
        <time>2021-08-11T13:14:44.282Z</time>
      </trkpt>
      <trkpt lat="46.87793" lon="8.47789">
        <ele>1927</ele>
        <time>2021-08-11T13:14:45.282Z</time>
      </trkpt>
      <trkpt lat="46.87793" lon="8.47789">
        <ele>1926</ele>
        <time>2021-08-11T13:14:46.282Z</time>
      </trkpt>
      <trkpt lat="46.87793" lon="8.4779">
        <ele>1931</ele>
        <time>2021-08-11T13:14:47.282Z</time>
      </trkpt>
      <trkpt lat="46.87793" lon="8.47789">
        <ele>1932</ele>
        <time>2021-08-11T13:14:48.282Z</time>
      </trkpt>
      <trkpt lat="46.87793" lon="8.47789">
        <ele>1932</ele>
        <time>2021-08-11T13:14:49.281Z</time>
      </trkpt>
      <trkpt lat="46.87793" lon="8.47789">
        <ele>1931</ele>
        <time>2021-08-11T13:14:50.281Z</time>
      </trkpt>
      <trkpt lat="46.87794" lon="8.47789">
        <ele>1931</ele>
        <time>2021-08-11T13:14:51.282Z</time>
      </trkpt>
      <trkpt lat="46.87794" lon="8.47789">
        <ele>1931</ele>
        <time>2021-08-11T13:14:52.283Z</time>
      </trkpt>
      <trkpt lat="46.87793" lon="8.47789">
        <ele>1933</ele>
        <time>2021-08-11T13:14:53.282Z</time>
      </trkpt>
      <trkpt lat="46.87793" lon="8.47789">
        <ele>1933</ele>
        <time>2021-08-11T13:14:54.283Z</time>
      </trkpt>
      <trkpt lat="46.87793" lon="8.47789">
        <ele>1934</ele>
        <time>2021-08-11T13:14:55.282Z</time>
      </trkpt>
      <trkpt lat="46.87793" lon="8.47789">
        <ele>1933</ele>
        <time>2021-08-11T13:14:56.283Z</time>
      </trkpt>
      <trkpt lat="46.87794" lon="8.47789">
        <ele>1934</ele>
        <time>2021-08-11T13:14:57.283Z</time>
      </trkpt>
      <trkpt lat="46.87794" lon="8.47788">
        <ele>1934</ele>
        <time>2021-08-11T13:14:58.283Z</time>
      </trkpt>
      <trkpt lat="46.87794" lon="8.47788">
        <ele>1934</ele>
        <time>2021-08-11T13:14:59.283Z</time>
      </trkpt>
      <trkpt lat="46.87793" lon="8.47788">
        <ele>1940</ele>
        <time>2021-08-11T13:15:00.283Z</time>
      </trkpt>
      <trkpt lat="46.87793" lon="8.47787">
        <ele>1940</ele>
        <time>2021-08-11T13:15:01.283Z</time>
      </trkpt>
      <trkpt lat="46.87792" lon="8.4779">
        <ele>1936</ele>
        <time>2021-08-11T13:15:02.285Z</time>
      </trkpt>
      <trkpt lat="46.87792" lon="8.4779">
        <ele>1936</ele>
        <time>2021-08-11T13:15:03.285Z</time>
      </trkpt>
      <trkpt lat="46.87792" lon="8.4779">
        <ele>1935</ele>
        <time>2021-08-11T13:15:04.284Z</time>
      </trkpt>
      <trkpt lat="46.87792" lon="8.4779">
        <ele>1935</ele>
        <time>2021-08-11T13:15:05.285Z</time>
      </trkpt>
      <trkpt lat="46.87794" lon="8.47789">
        <ele>1935</ele>
        <time>2021-08-11T13:15:06.284Z</time>
      </trkpt>
      <trkpt lat="46.87791" lon="8.47788">
        <ele>1928</ele>
        <time>2021-08-11T13:15:07.285Z</time>
      </trkpt>
      <trkpt lat="46.87791" lon="8.47789">
        <ele>1930</ele>
        <time>2021-08-11T13:15:08.285Z</time>
      </trkpt>
      <trkpt lat="46.8779" lon="8.47788">
        <ele>1932</ele>
        <time>2021-08-11T13:15:09.285Z</time>
      </trkpt>
      <trkpt lat="46.87791" lon="8.47787">
        <ele>1932</ele>
        <time>2021-08-11T13:15:10.284Z</time>
      </trkpt>
      <trkpt lat="46.87792" lon="8.47787">
        <ele>1932</ele>
        <time>2021-08-11T13:15:11.284Z</time>
      </trkpt>
      <trkpt lat="46.87792" lon="8.47787">
        <ele>1932</ele>
        <time>2021-08-11T13:15:12.285Z</time>
      </trkpt>
      <trkpt lat="46.87791" lon="8.47786">
        <ele>1933</ele>
        <time>2021-08-11T13:15:13.284Z</time>
      </trkpt>
      <trkpt lat="46.87791" lon="8.47786">
        <ele>1933</ele>
        <time>2021-08-11T13:15:14.285Z</time>
      </trkpt>
      <trkpt lat="46.8779" lon="8.47785">
        <ele>1933</ele>
        <time>2021-08-11T13:15:15.285Z</time>
      </trkpt>
      <trkpt lat="46.8779" lon="8.47784">
        <ele>1933</ele>
        <time>2021-08-11T13:15:16.284Z</time>
      </trkpt>
      <trkpt lat="46.87789" lon="8.47784">
        <ele>1934</ele>
        <time>2021-08-11T13:15:17.285Z</time>
      </trkpt>
      <trkpt lat="46.87788" lon="8.47783">
        <ele>1935</ele>
        <time>2021-08-11T13:15:18.285Z</time>
      </trkpt>
      <trkpt lat="46.87787" lon="8.47782">
        <ele>1936</ele>
        <time>2021-08-11T13:15:19.284Z</time>
      </trkpt>
      <trkpt lat="46.87787" lon="8.47782">
        <ele>1936</ele>
        <time>2021-08-11T13:15:20.284Z</time>
      </trkpt>
      <trkpt lat="46.87786" lon="8.47782">
        <ele>1937</ele>
        <time>2021-08-11T13:15:21.285Z</time>
      </trkpt>
      <trkpt lat="46.87785" lon="8.47781">
        <ele>1937</ele>
        <time>2021-08-11T13:15:22.284Z</time>
      </trkpt>
      <trkpt lat="46.87785" lon="8.4778">
        <ele>1937</ele>
        <time>2021-08-11T13:15:23.285Z</time>
      </trkpt>
      <trkpt lat="46.87785" lon="8.4778">
        <ele>1937</ele>
        <time>2021-08-11T13:15:24.285Z</time>
      </trkpt>
      <trkpt lat="46.87785" lon="8.4778">
        <ele>1937</ele>
        <time>2021-08-11T13:15:25.285Z</time>
      </trkpt>
      <trkpt lat="46.87785" lon="8.47779">
        <ele>1937</ele>
        <time>2021-08-11T13:15:26.284Z</time>
      </trkpt>
      <trkpt lat="46.87784" lon="8.47778">
        <ele>1938</ele>
        <time>2021-08-11T13:15:27.284Z</time>
      </trkpt>
      <trkpt lat="46.87784" lon="8.47778">
        <ele>1938</ele>
        <time>2021-08-11T13:15:28.285Z</time>
      </trkpt>
      <trkpt lat="46.87784" lon="8.47777">
        <ele>1938</ele>
        <time>2021-08-11T13:15:29.284Z</time>
      </trkpt>
      <trkpt lat="46.87784" lon="8.47777">
        <ele>1938</ele>
        <time>2021-08-11T13:15:30.285Z</time>
      </trkpt>
      <trkpt lat="46.87784" lon="8.47776">
        <ele>1938</ele>
        <time>2021-08-11T13:15:31.285Z</time>
      </trkpt>
      <trkpt lat="46.87784" lon="8.47776">
        <ele>1937</ele>
        <time>2021-08-11T13:15:32.284Z</time>
      </trkpt>
      <trkpt lat="46.87784" lon="8.47775">
        <ele>1936</ele>
        <time>2021-08-11T13:15:39.407Z</time>
      </trkpt>
      <trkpt lat="46.87784" lon="8.47775">
        <ele>1936</ele>
        <time>2021-08-11T13:15:40.407Z</time>
      </trkpt>
      <trkpt lat="46.87784" lon="8.47774">
        <ele>1936</ele>
        <time>2021-08-11T13:15:41.406Z</time>
      </trkpt>
      <trkpt lat="46.87784" lon="8.47774">
        <ele>1936</ele>
        <time>2021-08-11T13:15:42.407Z</time>
      </trkpt>
      <trkpt lat="46.87783" lon="8.47774">
        <ele>1936</ele>
        <time>2021-08-11T13:15:57.385Z</time>
      </trkpt>
      <trkpt lat="46.87783" lon="8.47773">
        <ele>1936</ele>
        <time>2021-08-11T13:15:58.385Z</time>
      </trkpt>
      <trkpt lat="46.87783" lon="8.47773">
        <ele>1936</ele>
        <time>2021-08-11T13:15:59.384Z</time>
      </trkpt>
      <trkpt lat="46.87783" lon="8.47772">
        <ele>1936</ele>
        <time>2021-08-11T13:16:00.385Z</time>
      </trkpt>
      <trkpt lat="46.87783" lon="8.47772">
        <ele>1936</ele>
        <time>2021-08-11T13:16:01.385Z</time>
      </trkpt>
      <trkpt lat="46.87783" lon="8.47772">
        <ele>1936</ele>
        <time>2021-08-11T13:16:02.385Z</time>
      </trkpt>
      <trkpt lat="46.87782" lon="8.47771">
        <ele>1936</ele>
        <time>2021-08-11T13:16:03.385Z</time>
      </trkpt>
      <trkpt lat="46.87782" lon="8.47771">
        <ele>1936</ele>
        <time>2021-08-11T13:16:16.385Z</time>
      </trkpt>
      <trkpt lat="46.87781" lon="8.4777">
        <ele>1936</ele>
        <time>2021-08-11T13:16:17.384Z</time>
      </trkpt>
      <trkpt lat="46.87781" lon="8.47769">
        <ele>1936</ele>
        <time>2021-08-11T13:16:18.385Z</time>
      </trkpt>
      <trkpt lat="46.8778" lon="8.47769">
        <ele>1937</ele>
        <time>2021-08-11T13:16:19.385Z</time>
      </trkpt>
      <trkpt lat="46.8778" lon="8.47768">
        <ele>1938</ele>
        <time>2021-08-11T13:16:20.385Z</time>
      </trkpt>
      <trkpt lat="46.87779" lon="8.47768">
        <ele>1938</ele>
        <time>2021-08-11T13:16:21.385Z</time>
      </trkpt>
      <trkpt lat="46.8778" lon="8.47768">
        <ele>1939</ele>
        <time>2021-08-11T13:16:22.385Z</time>
      </trkpt>
      <trkpt lat="46.87779" lon="8.47767">
        <ele>1940</ele>
        <time>2021-08-11T13:16:23.385Z</time>
      </trkpt>
      <trkpt lat="46.87779" lon="8.47767">
        <ele>1940</ele>
        <time>2021-08-11T13:16:24.385Z</time>
      </trkpt>
      <trkpt lat="46.87778" lon="8.47766">
        <ele>1939</ele>
        <time>2021-08-11T13:16:25.385Z</time>
      </trkpt>
      <trkpt lat="46.87778" lon="8.47766">
        <ele>1939</ele>
        <time>2021-08-11T13:16:26.385Z</time>
      </trkpt>
      <trkpt lat="46.87777" lon="8.47766">
        <ele>1939</ele>
        <time>2021-08-11T13:16:27.384Z</time>
      </trkpt>
      <trkpt lat="46.87777" lon="8.47765">
        <ele>1939</ele>
        <time>2021-08-11T13:16:28.385Z</time>
      </trkpt>
      <trkpt lat="46.87776" lon="8.47765">
        <ele>1939</ele>
        <time>2021-08-11T13:16:29.385Z</time>
      </trkpt>
      <trkpt lat="46.87776" lon="8.47764">
        <ele>1939</ele>
        <time>2021-08-11T13:16:30.385Z</time>
      </trkpt>
      <trkpt lat="46.87776" lon="8.47764">
        <ele>1939</ele>
        <time>2021-08-11T13:16:31.385Z</time>
      </trkpt>
      <trkpt lat="46.87776" lon="8.47763">
        <ele>1939</ele>
        <time>2021-08-11T13:16:32.385Z</time>
      </trkpt>
      <trkpt lat="46.87775" lon="8.47763">
        <ele>1939</ele>
        <time>2021-08-11T13:16:33.385Z</time>
      </trkpt>
      <trkpt lat="46.87775" lon="8.47762">
        <ele>1939</ele>
        <time>2021-08-11T13:16:39.387Z</time>
      </trkpt>
      <trkpt lat="46.87775" lon="8.47761">
        <ele>1938</ele>
        <time>2021-08-11T13:16:40.388Z</time>
      </trkpt>
      <trkpt lat="46.87775" lon="8.47761">
        <ele>1938</ele>
        <time>2021-08-11T13:16:41.388Z</time>
      </trkpt>
      <trkpt lat="46.87775" lon="8.4776">
        <ele>1938</ele>
        <time>2021-08-11T13:16:42.387Z</time>
      </trkpt>
      <trkpt lat="46.87775" lon="8.47759">
        <ele>1938</ele>
        <time>2021-08-11T13:16:43.388Z</time>
      </trkpt>
      <trkpt lat="46.87774" lon="8.47759">
        <ele>1938</ele>
        <time>2021-08-11T13:16:44.388Z</time>
      </trkpt>
      <trkpt lat="46.87774" lon="8.47758">
        <ele>1938</ele>
        <time>2021-08-11T13:17:07.406Z</time>
      </trkpt>
      <trkpt lat="46.87774" lon="8.47758">
        <ele>1938</ele>
        <time>2021-08-11T13:17:08.407Z</time>
      </trkpt>
      <trkpt lat="46.87773" lon="8.47757">
        <ele>1938</ele>
        <time>2021-08-11T13:17:09.407Z</time>
      </trkpt>
      <trkpt lat="46.87773" lon="8.47755">
        <ele>1937</ele>
        <time>2021-08-11T13:17:10.407Z</time>
      </trkpt>
      <trkpt lat="46.87773" lon="8.47755">
        <ele>1937</ele>
        <time>2021-08-11T13:17:11.407Z</time>
      </trkpt>
      <trkpt lat="46.87773" lon="8.47755">
        <ele>1937</ele>
        <time>2021-08-11T13:17:12.407Z</time>
      </trkpt>
      <trkpt lat="46.87772" lon="8.47754">
        <ele>1937</ele>
        <time>2021-08-11T13:17:13.406Z</time>
      </trkpt>
      <trkpt lat="46.87772" lon="8.47754">
        <ele>1937</ele>
        <time>2021-08-11T13:17:14.407Z</time>
      </trkpt>
      <trkpt lat="46.87773" lon="8.47753">
        <ele>1937</ele>
        <time>2021-08-11T13:17:15.407Z</time>
      </trkpt>
      <trkpt lat="46.87773" lon="8.47753">
        <ele>1938</ele>
        <time>2021-08-11T13:17:16.407Z</time>
      </trkpt>
      <trkpt lat="46.87773" lon="8.47754">
        <ele>1938</ele>
        <time>2021-08-11T13:17:17.407Z</time>
      </trkpt>
      <trkpt lat="46.87773" lon="8.47753">
        <ele>1939</ele>
        <time>2021-08-11T13:17:18.407Z</time>
      </trkpt>
      <trkpt lat="46.87773" lon="8.47752">
        <ele>1939</ele>
        <time>2021-08-11T13:17:19.407Z</time>
      </trkpt>
      <trkpt lat="46.87774" lon="8.47751">
        <ele>1940</ele>
        <time>2021-08-11T13:17:20.406Z</time>
      </trkpt>
      <trkpt lat="46.87773" lon="8.47751">
        <ele>1940</ele>
        <time>2021-08-11T13:17:21.407Z</time>
      </trkpt>
      <trkpt lat="46.87773" lon="8.4775">
        <ele>1940</ele>
        <time>2021-08-11T13:17:22.407Z</time>
      </trkpt>
      <trkpt lat="46.87772" lon="8.4775">
        <ele>1940</ele>
        <time>2021-08-11T13:17:23.406Z</time>
      </trkpt>
      <trkpt lat="46.87772" lon="8.4775">
        <ele>1940</ele>
        <time>2021-08-11T13:17:24.407Z</time>
      </trkpt>
      <trkpt lat="46.87771" lon="8.47749">
        <ele>1941</ele>
        <time>2021-08-11T13:17:25.407Z</time>
      </trkpt>
      <trkpt lat="46.87771" lon="8.47749">
        <ele>1941</ele>
        <time>2021-08-11T13:17:26.406Z</time>
      </trkpt>
      <trkpt lat="46.87771" lon="8.47749">
        <ele>1941</ele>
        <time>2021-08-11T13:17:27.407Z</time>
      </trkpt>
      <trkpt lat="46.87771" lon="8.47749">
        <ele>1941</ele>
        <time>2021-08-11T13:17:28.407Z</time>
      </trkpt>
      <trkpt lat="46.87771" lon="8.47748">
        <ele>1941</ele>
        <time>2021-08-11T13:17:29.406Z</time>
      </trkpt>
      <trkpt lat="46.87771" lon="8.47747">
        <ele>1942</ele>
        <time>2021-08-11T13:17:30.406Z</time>
      </trkpt>
      <trkpt lat="46.87771" lon="8.47746">
        <ele>1942</ele>
        <time>2021-08-11T13:17:31.406Z</time>
      </trkpt>
      <trkpt lat="46.8777" lon="8.47746">
        <ele>1942</ele>
        <time>2021-08-11T13:17:32.406Z</time>
      </trkpt>
      <trkpt lat="46.8777" lon="8.47746">
        <ele>1942</ele>
        <time>2021-08-11T13:17:33.407Z</time>
      </trkpt>
      <trkpt lat="46.8777" lon="8.47746">
        <ele>1943</ele>
        <time>2021-08-11T13:17:34.407Z</time>
      </trkpt>
      <trkpt lat="46.87769" lon="8.47745">
        <ele>1944</ele>
        <time>2021-08-11T13:17:35.407Z</time>
      </trkpt>
      <trkpt lat="46.87769" lon="8.47745">
        <ele>1944</ele>
        <time>2021-08-11T13:17:36.407Z</time>
      </trkpt>
      <trkpt lat="46.87768" lon="8.47744">
        <ele>1945</ele>
        <time>2021-08-11T13:17:37.407Z</time>
      </trkpt>
      <trkpt lat="46.87768" lon="8.47744">
        <ele>1945</ele>
        <time>2021-08-11T13:17:38.406Z</time>
      </trkpt>
      <trkpt lat="46.87767" lon="8.47743">
        <ele>1945</ele>
        <time>2021-08-11T13:17:39.407Z</time>
      </trkpt>
      <trkpt lat="46.87767" lon="8.47743">
        <ele>1945</ele>
        <time>2021-08-11T13:17:40.407Z</time>
      </trkpt>
      <trkpt lat="46.87766" lon="8.47743">
        <ele>1945</ele>
        <time>2021-08-11T13:17:41.406Z</time>
      </trkpt>
      <trkpt lat="46.87765" lon="8.47744">
        <ele>1945</ele>
        <time>2021-08-11T13:17:42.407Z</time>
      </trkpt>
      <trkpt lat="46.87765" lon="8.47744">
        <ele>1946</ele>
        <time>2021-08-11T13:17:43.407Z</time>
      </trkpt>
      <trkpt lat="46.87765" lon="8.47744">
        <ele>1947</ele>
        <time>2021-08-11T13:17:44.407Z</time>
      </trkpt>
      <trkpt lat="46.87764" lon="8.47744">
        <ele>1947</ele>
        <time>2021-08-11T13:17:45.408Z</time>
      </trkpt>
      <trkpt lat="46.87764" lon="8.47744">
        <ele>1947</ele>
        <time>2021-08-11T13:17:46.408Z</time>
      </trkpt>
      <trkpt lat="46.87764" lon="8.47743">
        <ele>1947</ele>
        <time>2021-08-11T13:17:47.407Z</time>
      </trkpt>
      <trkpt lat="46.87764" lon="8.47743">
        <ele>1947</ele>
        <time>2021-08-11T13:17:48.407Z</time>
      </trkpt>
      <trkpt lat="46.87763" lon="8.47743">
        <ele>1947</ele>
        <time>2021-08-11T13:17:49.408Z</time>
      </trkpt>
      <trkpt lat="46.87763" lon="8.47743">
        <ele>1947</ele>
        <time>2021-08-11T13:17:50.408Z</time>
      </trkpt>
      <trkpt lat="46.87763" lon="8.47741">
        <ele>1948</ele>
        <time>2021-08-11T13:17:51.408Z</time>
      </trkpt>
      <trkpt lat="46.87763" lon="8.47741">
        <ele>1947</ele>
        <time>2021-08-11T13:17:52.408Z</time>
      </trkpt>
      <trkpt lat="46.87762" lon="8.4774">
        <ele>1947</ele>
        <time>2021-08-11T13:17:53.407Z</time>
      </trkpt>
      <trkpt lat="46.87761" lon="8.47739">
        <ele>1947</ele>
        <time>2021-08-11T13:17:54.408Z</time>
      </trkpt>
      <trkpt lat="46.8776" lon="8.4774">
        <ele>1946</ele>
        <time>2021-08-11T13:17:55.408Z</time>
      </trkpt>
      <trkpt lat="46.8776" lon="8.4774">
        <ele>1946</ele>
        <time>2021-08-11T13:17:56.407Z</time>
      </trkpt>
      <trkpt lat="46.87759" lon="8.47739">
        <ele>1946</ele>
        <time>2021-08-11T13:17:57.408Z</time>
      </trkpt>
      <trkpt lat="46.87758" lon="8.47739">
        <ele>1945</ele>
        <time>2021-08-11T13:17:58.408Z</time>
      </trkpt>
      <trkpt lat="46.87757" lon="8.47739">
        <ele>1945</ele>
        <time>2021-08-11T13:17:59.407Z</time>
      </trkpt>
      <trkpt lat="46.87757" lon="8.47739">
        <ele>1945</ele>
        <time>2021-08-11T13:18:00.408Z</time>
      </trkpt>
      <trkpt lat="46.87756" lon="8.47738">
        <ele>1945</ele>
        <time>2021-08-11T13:18:01.408Z</time>
      </trkpt>
      <trkpt lat="46.87756" lon="8.47738">
        <ele>1944</ele>
        <time>2021-08-11T13:18:02.407Z</time>
      </trkpt>
      <trkpt lat="46.87755" lon="8.47737">
        <ele>1944</ele>
        <time>2021-08-11T13:18:03.408Z</time>
      </trkpt>
      <trkpt lat="46.87755" lon="8.47737">
        <ele>1943</ele>
        <time>2021-08-11T13:18:04.408Z</time>
      </trkpt>
      <trkpt lat="46.87755" lon="8.47737">
        <ele>1943</ele>
        <time>2021-08-11T13:18:05.407Z</time>
      </trkpt>
      <trkpt lat="46.87755" lon="8.47736">
        <ele>1943</ele>
        <time>2021-08-11T13:18:06.408Z</time>
      </trkpt>
      <trkpt lat="46.87755" lon="8.47736">
        <ele>1943</ele>
        <time>2021-08-11T13:18:07.408Z</time>
      </trkpt>
      <trkpt lat="46.87755" lon="8.47735">
        <ele>1943</ele>
        <time>2021-08-11T13:18:08.408Z</time>
      </trkpt>
      <trkpt lat="46.87755" lon="8.47735">
        <ele>1942</ele>
        <time>2021-08-11T13:18:09.408Z</time>
      </trkpt>
      <trkpt lat="46.87755" lon="8.47734">
        <ele>1942</ele>
        <time>2021-08-11T13:18:10.408Z</time>
      </trkpt>
      <trkpt lat="46.87754" lon="8.47734">
        <ele>1941</ele>
        <time>2021-08-11T13:18:11.409Z</time>
      </trkpt>
      <trkpt lat="46.87754" lon="8.47733">
        <ele>1941</ele>
        <time>2021-08-11T13:18:12.409Z</time>
      </trkpt>
      <trkpt lat="46.87754" lon="8.47733">
        <ele>1942</ele>
        <time>2021-08-11T13:18:13.409Z</time>
      </trkpt>
      <trkpt lat="46.87754" lon="8.47732">
        <ele>1942</ele>
        <time>2021-08-11T13:18:14.409Z</time>
      </trkpt>
      <trkpt lat="46.87754" lon="8.47731">
        <ele>1942</ele>
        <time>2021-08-11T13:18:15.409Z</time>
      </trkpt>
      <trkpt lat="46.87753" lon="8.47731">
        <ele>1942</ele>
        <time>2021-08-11T13:18:16.409Z</time>
      </trkpt>
      <trkpt lat="46.87753" lon="8.47731">
        <ele>1942</ele>
        <time>2021-08-11T13:18:17.409Z</time>
      </trkpt>
      <trkpt lat="46.87753" lon="8.4773">
        <ele>1942</ele>
        <time>2021-08-11T13:18:18.409Z</time>
      </trkpt>
      <trkpt lat="46.87752" lon="8.47729">
        <ele>1943</ele>
        <time>2021-08-11T13:18:19.409Z</time>
      </trkpt>
      <trkpt lat="46.87752" lon="8.47729">
        <ele>1943</ele>
        <time>2021-08-11T13:18:20.409Z</time>
      </trkpt>
      <trkpt lat="46.87752" lon="8.47728">
        <ele>1944</ele>
        <time>2021-08-11T13:18:21.409Z</time>
      </trkpt>
      <trkpt lat="46.87751" lon="8.47728">
        <ele>1945</ele>
        <time>2021-08-11T13:18:22.409Z</time>
      </trkpt>
      <trkpt lat="46.8775" lon="8.47728">
        <ele>1946</ele>
        <time>2021-08-11T13:18:23.409Z</time>
      </trkpt>
      <trkpt lat="46.87749" lon="8.47728">
        <ele>1946</ele>
        <time>2021-08-11T13:18:24.409Z</time>
      </trkpt>
      <trkpt lat="46.87749" lon="8.47728">
        <ele>1947</ele>
        <time>2021-08-11T13:18:25.409Z</time>
      </trkpt>
      <trkpt lat="46.87749" lon="8.47727">
        <ele>1947</ele>
        <time>2021-08-11T13:18:26.409Z</time>
      </trkpt>
      <trkpt lat="46.87748" lon="8.47727">
        <ele>1948</ele>
        <time>2021-08-11T13:18:27.409Z</time>
      </trkpt>
      <trkpt lat="46.87748" lon="8.47727">
        <ele>1948</ele>
        <time>2021-08-11T13:18:28.409Z</time>
      </trkpt>
      <trkpt lat="46.87748" lon="8.47726">
        <ele>1948</ele>
        <time>2021-08-11T13:18:29.409Z</time>
      </trkpt>
      <trkpt lat="46.87748" lon="8.47726">
        <ele>1948</ele>
        <time>2021-08-11T13:18:30.409Z</time>
      </trkpt>
      <trkpt lat="46.87747" lon="8.47725">
        <ele>1949</ele>
        <time>2021-08-11T13:18:31.409Z</time>
      </trkpt>
      <trkpt lat="46.87747" lon="8.47725">
        <ele>1949</ele>
        <time>2021-08-11T13:18:32.409Z</time>
      </trkpt>
      <trkpt lat="46.87746" lon="8.47724">
        <ele>1949</ele>
        <time>2021-08-11T13:18:33.409Z</time>
      </trkpt>
      <trkpt lat="46.87746" lon="8.47724">
        <ele>1949</ele>
        <time>2021-08-11T13:18:34.409Z</time>
      </trkpt>
      <trkpt lat="46.87745" lon="8.47723">
        <ele>1950</ele>
        <time>2021-08-11T13:18:35.409Z</time>
      </trkpt>
      <trkpt lat="46.87745" lon="8.47722">
        <ele>1949</ele>
        <time>2021-08-11T13:18:36.409Z</time>
      </trkpt>
      <trkpt lat="46.87745" lon="8.47721">
        <ele>1949</ele>
        <time>2021-08-11T13:18:37.409Z</time>
      </trkpt>
      <trkpt lat="46.87744" lon="8.47721">
        <ele>1949</ele>
        <time>2021-08-11T13:18:38.409Z</time>
      </trkpt>
      <trkpt lat="46.87744" lon="8.47721">
        <ele>1949</ele>
        <time>2021-08-11T13:18:39.409Z</time>
      </trkpt>
      <trkpt lat="46.87743" lon="8.4772">
        <ele>1949</ele>
        <time>2021-08-11T13:18:40.409Z</time>
      </trkpt>
      <trkpt lat="46.87743" lon="8.4772">
        <ele>1949</ele>
        <time>2021-08-11T13:18:41.409Z</time>
      </trkpt>
      <trkpt lat="46.87742" lon="8.47719">
        <ele>1949</ele>
        <time>2021-08-11T13:18:42.409Z</time>
      </trkpt>
      <trkpt lat="46.87742" lon="8.47719">
        <ele>1949</ele>
        <time>2021-08-11T13:18:43.409Z</time>
      </trkpt>
      <trkpt lat="46.87742" lon="8.47718">
        <ele>1949</ele>
        <time>2021-08-11T13:18:44.409Z</time>
      </trkpt>
      <trkpt lat="46.87742" lon="8.47717">
        <ele>1949</ele>
        <time>2021-08-11T13:18:45.409Z</time>
      </trkpt>
      <trkpt lat="46.87742" lon="8.47717">
        <ele>1949</ele>
        <time>2021-08-11T13:18:46.409Z</time>
      </trkpt>
      <trkpt lat="46.87742" lon="8.47717">
        <ele>1949</ele>
        <time>2021-08-11T13:18:47.409Z</time>
      </trkpt>
      <trkpt lat="46.87742" lon="8.47717">
        <ele>1950</ele>
        <time>2021-08-11T13:18:48.409Z</time>
      </trkpt>
      <trkpt lat="46.87742" lon="8.47716">
        <ele>1950</ele>
        <time>2021-08-11T13:18:49.409Z</time>
      </trkpt>
      <trkpt lat="46.87741" lon="8.47717">
        <ele>1954</ele>
        <time>2021-08-11T13:18:50.410Z</time>
      </trkpt>
      <trkpt lat="46.87742" lon="8.47714">
        <ele>1956</ele>
        <time>2021-08-11T13:18:51.410Z</time>
      </trkpt>
      <trkpt lat="46.87742" lon="8.47714">
        <ele>1956</ele>
        <time>2021-08-11T13:18:52.409Z</time>
      </trkpt>
      <trkpt lat="46.87743" lon="8.47714">
        <ele>1956</ele>
        <time>2021-08-11T13:18:53.409Z</time>
      </trkpt>
      <trkpt lat="46.87743" lon="8.47714">
        <ele>1956</ele>
        <time>2021-08-11T13:18:54.410Z</time>
      </trkpt>
      <trkpt lat="46.87744" lon="8.47715">
        <ele>1956</ele>
        <time>2021-08-11T13:18:55.409Z</time>
      </trkpt>
      <trkpt lat="46.87745" lon="8.47715">
        <ele>1956</ele>
        <time>2021-08-11T13:18:56.410Z</time>
      </trkpt>
      <trkpt lat="46.87745" lon="8.47715">
        <ele>1956</ele>
        <time>2021-08-11T13:18:57.410Z</time>
      </trkpt>
      <trkpt lat="46.87746" lon="8.47715">
        <ele>1956</ele>
        <time>2021-08-11T13:18:58.410Z</time>
      </trkpt>
      <trkpt lat="46.87746" lon="8.47713">
        <ele>1956</ele>
        <time>2021-08-11T13:18:59.409Z</time>
      </trkpt>
      <trkpt lat="46.87746" lon="8.47712">
        <ele>1956</ele>
        <time>2021-08-11T13:19:00.409Z</time>
      </trkpt>
      <trkpt lat="46.87746" lon="8.4771">
        <ele>1956</ele>
        <time>2021-08-11T13:19:01.410Z</time>
      </trkpt>
      <trkpt lat="46.87746" lon="8.47709">
        <ele>1957</ele>
        <time>2021-08-11T13:19:02.410Z</time>
      </trkpt>
      <trkpt lat="46.87746" lon="8.47708">
        <ele>1957</ele>
        <time>2021-08-11T13:19:03.410Z</time>
      </trkpt>
      <trkpt lat="46.87746" lon="8.47707">
        <ele>1957</ele>
        <time>2021-08-11T13:19:04.409Z</time>
      </trkpt>
      <trkpt lat="46.87746" lon="8.47707">
        <ele>1957</ele>
        <time>2021-08-11T13:19:05.410Z</time>
      </trkpt>
      <trkpt lat="46.87746" lon="8.47706">
        <ele>1957</ele>
        <time>2021-08-11T13:19:06.409Z</time>
      </trkpt>
      <trkpt lat="46.87747" lon="8.47705">
        <ele>1957</ele>
        <time>2021-08-11T13:19:07.410Z</time>
      </trkpt>
      <trkpt lat="46.87747" lon="8.47704">
        <ele>1957</ele>
        <time>2021-08-11T13:19:08.410Z</time>
      </trkpt>
      <trkpt lat="46.87747" lon="8.47703">
        <ele>1957</ele>
        <time>2021-08-11T13:19:09.410Z</time>
      </trkpt>
      <trkpt lat="46.87747" lon="8.47702">
        <ele>1957</ele>
        <time>2021-08-11T13:19:10.410Z</time>
      </trkpt>
      <trkpt lat="46.87747" lon="8.47701">
        <ele>1957</ele>
        <time>2021-08-11T13:19:11.410Z</time>
      </trkpt>
      <trkpt lat="46.87746" lon="8.47701">
        <ele>1957</ele>
        <time>2021-08-11T13:19:12.410Z</time>
      </trkpt>
      <trkpt lat="46.87746" lon="8.47701">
        <ele>1957</ele>
        <time>2021-08-11T13:19:13.410Z</time>
      </trkpt>
      <trkpt lat="46.87745" lon="8.477">
        <ele>1957</ele>
        <time>2021-08-11T13:19:14.409Z</time>
      </trkpt>
      <trkpt lat="46.87745" lon="8.477">
        <ele>1956</ele>
        <time>2021-08-11T13:19:15.410Z</time>
      </trkpt>
      <trkpt lat="46.87745" lon="8.47699">
        <ele>1956</ele>
        <time>2021-08-11T13:19:16.410Z</time>
      </trkpt>
      <trkpt lat="46.87744" lon="8.47699">
        <ele>1956</ele>
        <time>2021-08-11T13:19:17.410Z</time>
      </trkpt>
      <trkpt lat="46.87744" lon="8.47698">
        <ele>1956</ele>
        <time>2021-08-11T13:19:18.409Z</time>
      </trkpt>
      <trkpt lat="46.87743" lon="8.47698">
        <ele>1957</ele>
        <time>2021-08-11T13:19:19.410Z</time>
      </trkpt>
      <trkpt lat="46.87742" lon="8.47698">
        <ele>1958</ele>
        <time>2021-08-11T13:19:20.410Z</time>
      </trkpt>
      <trkpt lat="46.87741" lon="8.47698">
        <ele>1958</ele>
        <time>2021-08-11T13:19:21.410Z</time>
      </trkpt>
      <trkpt lat="46.8774" lon="8.47698">
        <ele>1959</ele>
        <time>2021-08-11T13:19:22.410Z</time>
      </trkpt>
      <trkpt lat="46.8774" lon="8.47698">
        <ele>1959</ele>
        <time>2021-08-11T13:19:23.409Z</time>
      </trkpt>
      <trkpt lat="46.8774" lon="8.47697">
        <ele>1959</ele>
        <time>2021-08-11T13:19:24.410Z</time>
      </trkpt>
      <trkpt lat="46.87739" lon="8.47698">
        <ele>1960</ele>
        <time>2021-08-11T13:19:25.409Z</time>
      </trkpt>
      <trkpt lat="46.87739" lon="8.47698">
        <ele>1960</ele>
        <time>2021-08-11T13:19:26.410Z</time>
      </trkpt>
      <trkpt lat="46.87739" lon="8.47698">
        <ele>1959</ele>
        <time>2021-08-11T13:19:27.410Z</time>
      </trkpt>
      <trkpt lat="46.87739" lon="8.47697">
        <ele>1959</ele>
        <time>2021-08-11T13:19:28.410Z</time>
      </trkpt>
      <trkpt lat="46.87739" lon="8.47697">
        <ele>1959</ele>
        <time>2021-08-11T13:19:29.409Z</time>
      </trkpt>
      <trkpt lat="46.87739" lon="8.47696">
        <ele>1959</ele>
        <time>2021-08-11T13:19:30.410Z</time>
      </trkpt>
      <trkpt lat="46.87739" lon="8.47696">
        <ele>1959</ele>
        <time>2021-08-11T13:19:31.410Z</time>
      </trkpt>
      <trkpt lat="46.87739" lon="8.47695">
        <ele>1959</ele>
        <time>2021-08-11T13:19:32.410Z</time>
      </trkpt>
      <trkpt lat="46.87739" lon="8.47695">
        <ele>1959</ele>
        <time>2021-08-11T13:19:33.409Z</time>
      </trkpt>
      <trkpt lat="46.87738" lon="8.47694">
        <ele>1959</ele>
        <time>2021-08-11T13:19:34.410Z</time>
      </trkpt>
      <trkpt lat="46.87738" lon="8.47693">
        <ele>1959</ele>
        <time>2021-08-11T13:19:35.410Z</time>
      </trkpt>
      <trkpt lat="46.87738" lon="8.47692">
        <ele>1959</ele>
        <time>2021-08-11T13:19:36.409Z</time>
      </trkpt>
      <trkpt lat="46.87739" lon="8.47691">
        <ele>1959</ele>
        <time>2021-08-11T13:19:56.514Z</time>
      </trkpt>
      <trkpt lat="46.87739" lon="8.47691">
        <ele>1959</ele>
        <time>2021-08-11T13:19:57.514Z</time>
      </trkpt>
      <trkpt lat="46.87738" lon="8.4769">
        <ele>1959</ele>
        <time>2021-08-11T13:19:58.513Z</time>
      </trkpt>
      <trkpt lat="46.87738" lon="8.4769">
        <ele>1960</ele>
        <time>2021-08-11T13:19:59.513Z</time>
      </trkpt>
      <trkpt lat="46.87738" lon="8.47689">
        <ele>1960</ele>
        <time>2021-08-11T13:20:00.514Z</time>
      </trkpt>
      <trkpt lat="46.87738" lon="8.47689">
        <ele>1960</ele>
        <time>2021-08-11T13:20:01.514Z</time>
      </trkpt>
      <trkpt lat="46.87738" lon="8.47688">
        <ele>1960</ele>
        <time>2021-08-11T13:20:03.617Z</time>
      </trkpt>
      <trkpt lat="46.87738" lon="8.47688">
        <ele>1960</ele>
        <time>2021-08-11T13:20:09.387Z</time>
      </trkpt>
      <trkpt lat="46.87738" lon="8.47687">
        <ele>1961</ele>
        <time>2021-08-11T13:20:10.387Z</time>
      </trkpt>
      <trkpt lat="46.87739" lon="8.47687">
        <ele>1962</ele>
        <time>2021-08-11T13:20:22.135Z</time>
      </trkpt>
      <trkpt lat="46.87739" lon="8.47687">
        <ele>1962</ele>
        <time>2021-08-11T13:20:23.136Z</time>
      </trkpt>
      <trkpt lat="46.87739" lon="8.47686">
        <ele>1962</ele>
        <time>2021-08-11T13:20:27.013Z</time>
      </trkpt>
      <trkpt lat="46.87738" lon="8.47686">
        <ele>1962</ele>
        <time>2021-08-11T13:20:28.013Z</time>
      </trkpt>
      <trkpt lat="46.87738" lon="8.47686">
        <ele>1962</ele>
        <time>2021-08-11T13:20:29.013Z</time>
      </trkpt>
      <trkpt lat="46.87738" lon="8.47685">
        <ele>1962</ele>
        <time>2021-08-11T13:20:30.012Z</time>
      </trkpt>
      <trkpt lat="46.87738" lon="8.47684">
        <ele>1962</ele>
        <time>2021-08-11T13:20:31.013Z</time>
      </trkpt>
      <trkpt lat="46.87737" lon="8.47683">
        <ele>1962</ele>
        <time>2021-08-11T13:20:32.012Z</time>
      </trkpt>
      <trkpt lat="46.87737" lon="8.47683">
        <ele>1962</ele>
        <time>2021-08-11T13:20:33.013Z</time>
      </trkpt>
      <trkpt lat="46.87735" lon="8.47683">
        <ele>1963</ele>
        <time>2021-08-11T13:20:39.013Z</time>
      </trkpt>
      <trkpt lat="46.87734" lon="8.47683">
        <ele>1964</ele>
        <time>2021-08-11T13:20:40.014Z</time>
      </trkpt>
      <trkpt lat="46.87733" lon="8.47683">
        <ele>1964</ele>
        <time>2021-08-11T13:21:03.779Z</time>
      </trkpt>
      <trkpt lat="46.87733" lon="8.47684">
        <ele>1965</ele>
        <time>2021-08-11T13:21:04.779Z</time>
      </trkpt>
      <trkpt lat="46.87733" lon="8.47684">
        <ele>1965</ele>
        <time>2021-08-11T13:21:05.779Z</time>
      </trkpt>
      <trkpt lat="46.87732" lon="8.47684">
        <ele>1966</ele>
        <time>2021-08-11T13:21:06.779Z</time>
      </trkpt>
      <trkpt lat="46.87732" lon="8.47683">
        <ele>1966</ele>
        <time>2021-08-11T13:21:07.779Z</time>
      </trkpt>
      <trkpt lat="46.87732" lon="8.47684">
        <ele>1966</ele>
        <time>2021-08-11T13:21:08.779Z</time>
      </trkpt>
      <trkpt lat="46.87732" lon="8.47683">
        <ele>1966</ele>
        <time>2021-08-11T13:21:13.786Z</time>
      </trkpt>
      <trkpt lat="46.87732" lon="8.47682">
        <ele>1963</ele>
        <time>2021-08-11T13:21:14.787Z</time>
      </trkpt>
      <trkpt lat="46.87732" lon="8.47682">
        <ele>1963</ele>
        <time>2021-08-11T13:21:15.787Z</time>
      </trkpt>
      <trkpt lat="46.87731" lon="8.47681">
        <ele>1963</ele>
        <time>2021-08-11T13:21:28.907Z</time>
      </trkpt>
      <trkpt lat="46.8773" lon="8.47681">
        <ele>1963</ele>
        <time>2021-08-11T13:21:50.765Z</time>
      </trkpt>
      <trkpt lat="46.8773" lon="8.4768">
        <ele>1963</ele>
        <time>2021-08-11T13:22:19.517Z</time>
      </trkpt>
      <trkpt lat="46.87729" lon="8.4768">
        <ele>1964</ele>
        <time>2021-08-11T13:22:20.517Z</time>
      </trkpt>
      <trkpt lat="46.87729" lon="8.4768">
        <ele>1964</ele>
        <time>2021-08-11T13:22:36.386Z</time>
      </trkpt>
      <trkpt lat="46.87728" lon="8.47679">
        <ele>1964</ele>
        <time>2021-08-11T13:22:49.137Z</time>
      </trkpt>
      <trkpt lat="46.87727" lon="8.47679">
        <ele>1964</ele>
        <time>2021-08-11T13:22:50.137Z</time>
      </trkpt>
      <trkpt lat="46.87727" lon="8.47678">
        <ele>1965</ele>
        <time>2021-08-11T13:22:51.137Z</time>
      </trkpt>
      <trkpt lat="46.87727" lon="8.47678">
        <ele>1965</ele>
        <time>2021-08-11T13:22:53.246Z</time>
      </trkpt>
      <trkpt lat="46.87728" lon="8.47676">
        <ele>1969</ele>
        <time>2021-08-11T13:22:54.246Z</time>
      </trkpt>
      <trkpt lat="46.87727" lon="8.47676">
        <ele>1968</ele>
        <time>2021-08-11T13:22:57.002Z</time>
      </trkpt>
      <trkpt lat="46.87728" lon="8.47676">
        <ele>1967</ele>
        <time>2021-08-11T13:22:58.003Z</time>
      </trkpt>
      <trkpt lat="46.87728" lon="8.47676">
        <ele>1968</ele>
        <time>2021-08-11T13:22:59.003Z</time>
      </trkpt>
      <trkpt lat="46.87728" lon="8.47676">
        <ele>1968</ele>
        <time>2021-08-11T13:23:00.002Z</time>
      </trkpt>
      <trkpt lat="46.87727" lon="8.47676">
        <ele>1967</ele>
        <time>2021-08-11T13:23:09.012Z</time>
      </trkpt>
      <trkpt lat="46.87727" lon="8.47676">
        <ele>1968</ele>
        <time>2021-08-11T13:23:10.012Z</time>
      </trkpt>
      <trkpt lat="46.87726" lon="8.47676">
        <ele>1968</ele>
        <time>2021-08-11T13:23:11.011Z</time>
      </trkpt>
      <trkpt lat="46.87726" lon="8.47675">
        <ele>1968</ele>
        <time>2021-08-11T13:23:12.012Z</time>
      </trkpt>
      <trkpt lat="46.87726" lon="8.47675">
        <ele>1967</ele>
        <time>2021-08-11T13:23:13.011Z</time>
      </trkpt>
      <trkpt lat="46.87726" lon="8.47675">
        <ele>1967</ele>
        <time>2021-08-11T13:23:14.012Z</time>
      </trkpt>
      <trkpt lat="46.87726" lon="8.47674">
        <ele>1966</ele>
        <time>2021-08-11T13:23:15.012Z</time>
      </trkpt>
      <trkpt lat="46.87725" lon="8.47673">
        <ele>1965</ele>
        <time>2021-08-11T13:23:16.011Z</time>
      </trkpt>
      <trkpt lat="46.87724" lon="8.47673">
        <ele>1965</ele>
        <time>2021-08-11T13:23:21.030Z</time>
      </trkpt>
      <trkpt lat="46.87724" lon="8.47673">
        <ele>1965</ele>
        <time>2021-08-11T13:23:22.031Z</time>
      </trkpt>
      <trkpt lat="46.87725" lon="8.47672">
        <ele>1965</ele>
        <time>2021-08-11T13:23:23.031Z</time>
      </trkpt>
      <trkpt lat="46.87725" lon="8.47671">
        <ele>1966</ele>
        <time>2021-08-11T13:23:29.140Z</time>
      </trkpt>
      <trkpt lat="46.87725" lon="8.47671">
        <ele>1966</ele>
        <time>2021-08-11T13:23:30.139Z</time>
      </trkpt>
      <trkpt lat="46.87725" lon="8.4767">
        <ele>1967</ele>
        <time>2021-08-11T13:23:31.140Z</time>
      </trkpt>
      <trkpt lat="46.87726" lon="8.4767">
        <ele>1967</ele>
        <time>2021-08-11T13:23:32.140Z</time>
      </trkpt>
      <trkpt lat="46.87726" lon="8.4767">
        <ele>1967</ele>
        <time>2021-08-11T13:23:33.139Z</time>
      </trkpt>
      <trkpt lat="46.87726" lon="8.4767">
        <ele>1967</ele>
        <time>2021-08-11T13:23:34.140Z</time>
      </trkpt>
      <trkpt lat="46.87727" lon="8.4767">
        <ele>1968</ele>
        <time>2021-08-11T13:23:35.139Z</time>
      </trkpt>
      <trkpt lat="46.87727" lon="8.4767">
        <ele>1968</ele>
        <time>2021-08-11T13:23:36.140Z</time>
      </trkpt>
      <trkpt lat="46.87727" lon="8.4767">
        <ele>1969</ele>
        <time>2021-08-11T13:23:37.139Z</time>
      </trkpt>
      <trkpt lat="46.87727" lon="8.4767">
        <ele>1969</ele>
        <time>2021-08-11T13:23:38.139Z</time>
      </trkpt>
      <trkpt lat="46.87728" lon="8.4767">
        <ele>1969</ele>
        <time>2021-08-11T13:23:39.140Z</time>
      </trkpt>
      <trkpt lat="46.87728" lon="8.47669">
        <ele>1969</ele>
        <time>2021-08-11T13:23:40.140Z</time>
      </trkpt>
      <trkpt lat="46.87728" lon="8.47669">
        <ele>1969</ele>
        <time>2021-08-11T13:23:41.140Z</time>
      </trkpt>
      <trkpt lat="46.87728" lon="8.47668">
        <ele>1973</ele>
        <time>2021-08-11T13:23:42.140Z</time>
      </trkpt>
      <trkpt lat="46.87728" lon="8.47667">
        <ele>1973</ele>
        <time>2021-08-11T13:23:43.140Z</time>
      </trkpt>
      <trkpt lat="46.87727" lon="8.47667">
        <ele>1972</ele>
        <time>2021-08-11T13:23:44.139Z</time>
      </trkpt>
      <trkpt lat="46.87727" lon="8.47666">
        <ele>1972</ele>
        <time>2021-08-11T13:23:45.140Z</time>
      </trkpt>
      <trkpt lat="46.87726" lon="8.47666">
        <ele>1972</ele>
        <time>2021-08-11T13:23:46.139Z</time>
      </trkpt>
      <trkpt lat="46.87725" lon="8.47666">
        <ele>1973</ele>
        <time>2021-08-11T13:23:47.140Z</time>
      </trkpt>
      <trkpt lat="46.87724" lon="8.47666">
        <ele>1973</ele>
        <time>2021-08-11T13:23:48.139Z</time>
      </trkpt>
      <trkpt lat="46.87724" lon="8.47665">
        <ele>1972</ele>
        <time>2021-08-11T13:23:49.139Z</time>
      </trkpt>
      <trkpt lat="46.87723" lon="8.47665">
        <ele>1972</ele>
        <time>2021-08-11T13:23:50.140Z</time>
      </trkpt>
      <trkpt lat="46.87723" lon="8.47665">
        <ele>1972</ele>
        <time>2021-08-11T13:23:51.140Z</time>
      </trkpt>
      <trkpt lat="46.87722" lon="8.47665">
        <ele>1972</ele>
        <time>2021-08-11T13:23:52.140Z</time>
      </trkpt>
      <trkpt lat="46.87722" lon="8.47665">
        <ele>1972</ele>
        <time>2021-08-11T13:23:53.139Z</time>
      </trkpt>
      <trkpt lat="46.87722" lon="8.47665">
        <ele>1971</ele>
        <time>2021-08-11T13:23:54.140Z</time>
      </trkpt>
      <trkpt lat="46.87723" lon="8.47664">
        <ele>1971</ele>
        <time>2021-08-11T13:23:55.139Z</time>
      </trkpt>
      <trkpt lat="46.87724" lon="8.47664">
        <ele>1970</ele>
        <time>2021-08-11T13:24:00.261Z</time>
      </trkpt>
      <trkpt lat="46.87724" lon="8.47664">
        <ele>1970</ele>
        <time>2021-08-11T13:24:01.260Z</time>
      </trkpt>
      <trkpt lat="46.87725" lon="8.47662">
        <ele>1970</ele>
        <time>2021-08-11T13:24:02.260Z</time>
      </trkpt>
      <trkpt lat="46.87725" lon="8.47661">
        <ele>1971</ele>
        <time>2021-08-11T13:24:03.261Z</time>
      </trkpt>
      <trkpt lat="46.87724" lon="8.4766">
        <ele>1972</ele>
        <time>2021-08-11T13:24:04.260Z</time>
      </trkpt>
      <trkpt lat="46.87724" lon="8.4766">
        <ele>1972</ele>
        <time>2021-08-11T13:24:12.383Z</time>
      </trkpt>
      <trkpt lat="46.87724" lon="8.4766">
        <ele>1972</ele>
        <time>2021-08-11T13:24:13.383Z</time>
      </trkpt>
      <trkpt lat="46.87725" lon="8.47659">
        <ele>1973</ele>
        <time>2021-08-11T13:24:14.384Z</time>
      </trkpt>
      <trkpt lat="46.87725" lon="8.47658">
        <ele>1973</ele>
        <time>2021-08-11T13:24:19.532Z</time>
      </trkpt>
      <trkpt lat="46.87725" lon="8.47657">
        <ele>1973</ele>
        <time>2021-08-11T13:24:20.531Z</time>
      </trkpt>
      <trkpt lat="46.87725" lon="8.47657">
        <ele>1973</ele>
        <time>2021-08-11T13:24:21.532Z</time>
      </trkpt>
      <trkpt lat="46.87725" lon="8.47657">
        <ele>1973</ele>
        <time>2021-08-11T13:24:22.531Z</time>
      </trkpt>
      <trkpt lat="46.87724" lon="8.47656">
        <ele>1972</ele>
        <time>2021-08-11T13:24:23.531Z</time>
      </trkpt>
      <trkpt lat="46.87724" lon="8.47655">
        <ele>1972</ele>
        <time>2021-08-11T13:24:24.532Z</time>
      </trkpt>
      <trkpt lat="46.87724" lon="8.47655">
        <ele>1972</ele>
        <time>2021-08-11T13:24:25.532Z</time>
      </trkpt>
      <trkpt lat="46.87724" lon="8.47654">
        <ele>1971</ele>
        <time>2021-08-11T13:24:26.532Z</time>
      </trkpt>
      <trkpt lat="46.87724" lon="8.47654">
        <ele>1971</ele>
        <time>2021-08-11T13:24:27.532Z</time>
      </trkpt>
      <trkpt lat="46.87724" lon="8.47653">
        <ele>1971</ele>
        <time>2021-08-11T13:24:28.531Z</time>
      </trkpt>
      <trkpt lat="46.87724" lon="8.47652">
        <ele>1971</ele>
        <time>2021-08-11T13:24:29.532Z</time>
      </trkpt>
      <trkpt lat="46.87724" lon="8.47651">
        <ele>1971</ele>
        <time>2021-08-11T13:24:30.532Z</time>
      </trkpt>
      <trkpt lat="46.87724" lon="8.4765">
        <ele>1971</ele>
        <time>2021-08-11T13:24:38.633Z</time>
      </trkpt>
      <trkpt lat="46.87723" lon="8.47649">
        <ele>1972</ele>
        <time>2021-08-11T13:24:39.632Z</time>
      </trkpt>
      <trkpt lat="46.87722" lon="8.47649">
        <ele>1973</ele>
        <time>2021-08-11T13:24:40.632Z</time>
      </trkpt>
      <trkpt lat="46.87721" lon="8.47649">
        <ele>1974</ele>
        <time>2021-08-11T13:24:53.776Z</time>
      </trkpt>
      <trkpt lat="46.8772" lon="8.47649">
        <ele>1974</ele>
        <time>2021-08-11T13:24:54.776Z</time>
      </trkpt>
      <trkpt lat="46.87719" lon="8.47648">
        <ele>1975</ele>
        <time>2021-08-11T13:24:56.642Z</time>
      </trkpt>
      <trkpt lat="46.87719" lon="8.47648">
        <ele>1976</ele>
        <time>2021-08-11T13:24:57.641Z</time>
      </trkpt>
      <trkpt lat="46.87719" lon="8.47648">
        <ele>1977</ele>
        <time>2021-08-11T13:25:03.524Z</time>
      </trkpt>
      <trkpt lat="46.87719" lon="8.47647">
        <ele>1978</ele>
        <time>2021-08-11T13:25:04.525Z</time>
      </trkpt>
      <trkpt lat="46.87719" lon="8.47647">
        <ele>1978</ele>
        <time>2021-08-11T13:25:27.377Z</time>
      </trkpt>
      <trkpt lat="46.87719" lon="8.47647">
        <ele>1977</ele>
        <time>2021-08-11T13:25:28.378Z</time>
      </trkpt>
      <trkpt lat="46.87719" lon="8.47647">
        <ele>1978</ele>
        <time>2021-08-11T13:25:29.378Z</time>
      </trkpt>
      <trkpt lat="46.87718" lon="8.47646">
        <ele>1978</ele>
        <time>2021-08-11T13:25:30.378Z</time>
      </trkpt>
      <trkpt lat="46.87718" lon="8.47646">
        <ele>1978</ele>
        <time>2021-08-11T13:25:31.378Z</time>
      </trkpt>
      <trkpt lat="46.87718" lon="8.47645">
        <ele>1978</ele>
        <time>2021-08-11T13:25:32.378Z</time>
      </trkpt>
      <trkpt lat="46.87717" lon="8.47644">
        <ele>1979</ele>
        <time>2021-08-11T13:25:33.377Z</time>
      </trkpt>
      <trkpt lat="46.87717" lon="8.47644">
        <ele>1979</ele>
        <time>2021-08-11T13:25:34.378Z</time>
      </trkpt>
      <trkpt lat="46.87716" lon="8.47644">
        <ele>1978</ele>
        <time>2021-08-11T13:25:35.378Z</time>
      </trkpt>
      <trkpt lat="46.87716" lon="8.47643">
        <ele>1978</ele>
        <time>2021-08-11T13:25:48.554Z</time>
      </trkpt>
      <trkpt lat="46.87716" lon="8.47643">
        <ele>1978</ele>
        <time>2021-08-11T13:25:49.554Z</time>
      </trkpt>
      <trkpt lat="46.87715" lon="8.47643">
        <ele>1978</ele>
        <time>2021-08-11T13:25:50.554Z</time>
      </trkpt>
      <trkpt lat="46.87714" lon="8.47643">
        <ele>1979</ele>
        <time>2021-08-11T13:25:52.636Z</time>
      </trkpt>
      <trkpt lat="46.87714" lon="8.47644">
        <ele>1979</ele>
        <time>2021-08-11T13:25:53.635Z</time>
      </trkpt>
      <trkpt lat="46.87714" lon="8.47644">
        <ele>1979</ele>
        <time>2021-08-11T13:25:54.636Z</time>
      </trkpt>
      <trkpt lat="46.87715" lon="8.47644">
        <ele>1979</ele>
        <time>2021-08-11T13:25:55.637Z</time>
      </trkpt>
      <trkpt lat="46.87715" lon="8.47644">
        <ele>1979</ele>
        <time>2021-08-11T13:25:56.637Z</time>
      </trkpt>
      <trkpt lat="46.87713" lon="8.47642">
        <ele>1980</ele>
        <time>2021-08-11T13:25:57.638Z</time>
      </trkpt>
      <trkpt lat="46.87714" lon="8.47642">
        <ele>1980</ele>
        <time>2021-08-11T13:25:58.637Z</time>
      </trkpt>
      <trkpt lat="46.87714" lon="8.47641">
        <ele>1980</ele>
        <time>2021-08-11T13:25:59.637Z</time>
      </trkpt>
      <trkpt lat="46.87714" lon="8.47641">
        <ele>1980</ele>
        <time>2021-08-11T13:26:00.638Z</time>
      </trkpt>
      <trkpt lat="46.87713" lon="8.4764">
        <ele>1982</ele>
        <time>2021-08-11T13:26:01.638Z</time>
      </trkpt>
      <trkpt lat="46.87712" lon="8.4764">
        <ele>1982</ele>
        <time>2021-08-11T13:26:02.637Z</time>
      </trkpt>
      <trkpt lat="46.87712" lon="8.47639">
        <ele>1983</ele>
        <time>2021-08-11T13:26:03.637Z</time>
      </trkpt>
      <trkpt lat="46.87711" lon="8.47639">
        <ele>1984</ele>
        <time>2021-08-11T13:26:04.638Z</time>
      </trkpt>
      <trkpt lat="46.87711" lon="8.47638">
        <ele>1985</ele>
        <time>2021-08-11T13:26:05.638Z</time>
      </trkpt>
      <trkpt lat="46.8771" lon="8.47637">
        <ele>1985</ele>
        <time>2021-08-11T13:26:06.638Z</time>
      </trkpt>
      <trkpt lat="46.8771" lon="8.47637">
        <ele>1986</ele>
        <time>2021-08-11T13:26:07.638Z</time>
      </trkpt>
      <trkpt lat="46.87709" lon="8.47636">
        <ele>1986</ele>
        <time>2021-08-11T13:26:08.638Z</time>
      </trkpt>
      <trkpt lat="46.87709" lon="8.47636">
        <ele>1987</ele>
        <time>2021-08-11T13:26:09.638Z</time>
      </trkpt>
      <trkpt lat="46.87708" lon="8.47636">
        <ele>1987</ele>
        <time>2021-08-11T13:26:10.638Z</time>
      </trkpt>
      <trkpt lat="46.87708" lon="8.47635">
        <ele>1986</ele>
        <time>2021-08-11T13:26:11.638Z</time>
      </trkpt>
      <trkpt lat="46.87708" lon="8.47634">
        <ele>1986</ele>
        <time>2021-08-11T13:26:12.638Z</time>
      </trkpt>
      <trkpt lat="46.87708" lon="8.47634">
        <ele>1986</ele>
        <time>2021-08-11T13:26:13.638Z</time>
      </trkpt>
      <trkpt lat="46.87708" lon="8.47634">
        <ele>1985</ele>
        <time>2021-08-11T13:26:19.635Z</time>
      </trkpt>
      <trkpt lat="46.87708" lon="8.47632">
        <ele>1985</ele>
        <time>2021-08-11T13:26:20.635Z</time>
      </trkpt>
      <trkpt lat="46.87708" lon="8.47632">
        <ele>1985</ele>
        <time>2021-08-11T13:26:21.636Z</time>
      </trkpt>
      <trkpt lat="46.87708" lon="8.47631">
        <ele>1985</ele>
        <time>2021-08-11T13:26:22.635Z</time>
      </trkpt>
      <trkpt lat="46.87707" lon="8.47631">
        <ele>1984</ele>
        <time>2021-08-11T13:26:23.635Z</time>
      </trkpt>
      <trkpt lat="46.87707" lon="8.4763">
        <ele>1984</ele>
        <time>2021-08-11T13:26:24.636Z</time>
      </trkpt>
      <trkpt lat="46.87707" lon="8.47629">
        <ele>1984</ele>
        <time>2021-08-11T13:26:25.636Z</time>
      </trkpt>
      <trkpt lat="46.87707" lon="8.47628">
        <ele>1984</ele>
        <time>2021-08-11T13:26:26.636Z</time>
      </trkpt>
      <trkpt lat="46.87706" lon="8.47628">
        <ele>1984</ele>
        <time>2021-08-11T13:26:27.635Z</time>
      </trkpt>
      <trkpt lat="46.87706" lon="8.47628">
        <ele>1984</ele>
        <time>2021-08-11T13:26:28.635Z</time>
      </trkpt>
      <trkpt lat="46.87706" lon="8.47627">
        <ele>1985</ele>
        <time>2021-08-11T13:26:29.636Z</time>
      </trkpt>
      <trkpt lat="46.87706" lon="8.47626">
        <ele>1985</ele>
        <time>2021-08-11T13:26:30.636Z</time>
      </trkpt>
      <trkpt lat="46.87706" lon="8.47626">
        <ele>1985</ele>
        <time>2021-08-11T13:26:31.636Z</time>
      </trkpt>
      <trkpt lat="46.87705" lon="8.47625">
        <ele>1985</ele>
        <time>2021-08-11T13:26:32.636Z</time>
      </trkpt>
      <trkpt lat="46.87705" lon="8.47625">
        <ele>1985</ele>
        <time>2021-08-11T13:26:33.636Z</time>
      </trkpt>
      <trkpt lat="46.87705" lon="8.47624">
        <ele>1985</ele>
        <time>2021-08-11T13:26:34.635Z</time>
      </trkpt>
      <trkpt lat="46.87705" lon="8.47624">
        <ele>1985</ele>
        <time>2021-08-11T13:26:35.636Z</time>
      </trkpt>
      <trkpt lat="46.87704" lon="8.47623">
        <ele>1985</ele>
        <time>2021-08-11T13:26:36.636Z</time>
      </trkpt>
      <trkpt lat="46.87704" lon="8.47623">
        <ele>1985</ele>
        <time>2021-08-11T13:26:37.636Z</time>
      </trkpt>
      <trkpt lat="46.87703" lon="8.47622">
        <ele>1985</ele>
        <time>2021-08-11T13:26:38.636Z</time>
      </trkpt>
      <trkpt lat="46.87703" lon="8.47622">
        <ele>1985</ele>
        <time>2021-08-11T13:26:39.635Z</time>
      </trkpt>
      <trkpt lat="46.87703" lon="8.47622">
        <ele>1986</ele>
        <time>2021-08-11T13:26:40.636Z</time>
      </trkpt>
      <trkpt lat="46.87703" lon="8.47621">
        <ele>1986</ele>
        <time>2021-08-11T13:26:41.636Z</time>
      </trkpt>
      <trkpt lat="46.87702" lon="8.47621">
        <ele>1986</ele>
        <time>2021-08-11T13:26:42.636Z</time>
      </trkpt>
      <trkpt lat="46.87702" lon="8.47621">
        <ele>1986</ele>
        <time>2021-08-11T13:26:43.635Z</time>
      </trkpt>
      <trkpt lat="46.87702" lon="8.47621">
        <ele>1985</ele>
        <time>2021-08-11T13:26:44.635Z</time>
      </trkpt>
      <trkpt lat="46.87701" lon="8.47616">
        <ele>1986</ele>
        <time>2021-08-11T13:26:45.637Z</time>
      </trkpt>
      <trkpt lat="46.877" lon="8.47616">
        <ele>1987</ele>
        <time>2021-08-11T13:26:46.637Z</time>
      </trkpt>
      <trkpt lat="46.877" lon="8.47615">
        <ele>1987</ele>
        <time>2021-08-11T13:26:47.637Z</time>
      </trkpt>
      <trkpt lat="46.87699" lon="8.47616">
        <ele>1988</ele>
        <time>2021-08-11T13:26:48.636Z</time>
      </trkpt>
      <trkpt lat="46.87699" lon="8.47616">
        <ele>1988</ele>
        <time>2021-08-11T13:26:49.636Z</time>
      </trkpt>
      <trkpt lat="46.87699" lon="8.47615">
        <ele>1989</ele>
        <time>2021-08-11T13:26:50.637Z</time>
      </trkpt>
      <trkpt lat="46.87699" lon="8.47615">
        <ele>1989</ele>
        <time>2021-08-11T13:26:51.637Z</time>
      </trkpt>
      <trkpt lat="46.87698" lon="8.47614">
        <ele>1989</ele>
        <time>2021-08-11T13:26:52.637Z</time>
      </trkpt>
      <trkpt lat="46.87698" lon="8.47614">
        <ele>1989</ele>
        <time>2021-08-11T13:26:53.637Z</time>
      </trkpt>
      <trkpt lat="46.87698" lon="8.47614">
        <ele>1989</ele>
        <time>2021-08-11T13:26:54.637Z</time>
      </trkpt>
      <trkpt lat="46.87698" lon="8.47614">
        <ele>1989</ele>
        <time>2021-08-11T13:26:55.637Z</time>
      </trkpt>
      <trkpt lat="46.87697" lon="8.47611">
        <ele>1985</ele>
        <time>2021-08-11T13:26:56.637Z</time>
      </trkpt>
      <trkpt lat="46.87697" lon="8.4761">
        <ele>1986</ele>
        <time>2021-08-11T13:26:57.637Z</time>
      </trkpt>
      <trkpt lat="46.87696" lon="8.4761">
        <ele>1986</ele>
        <time>2021-08-11T13:26:58.636Z</time>
      </trkpt>
      <trkpt lat="46.87696" lon="8.4761">
        <ele>1986</ele>
        <time>2021-08-11T13:26:59.637Z</time>
      </trkpt>
      <trkpt lat="46.87695" lon="8.47609">
        <ele>1987</ele>
        <time>2021-08-11T13:27:00.636Z</time>
      </trkpt>
      <trkpt lat="46.87695" lon="8.47609">
        <ele>1988</ele>
        <time>2021-08-11T13:27:01.636Z</time>
      </trkpt>
      <trkpt lat="46.87694" lon="8.47609">
        <ele>1988</ele>
        <time>2021-08-11T13:27:02.637Z</time>
      </trkpt>
      <trkpt lat="46.87694" lon="8.47609">
        <ele>1988</ele>
        <time>2021-08-11T13:27:03.637Z</time>
      </trkpt>
      <trkpt lat="46.87694" lon="8.47609">
        <ele>1988</ele>
        <time>2021-08-11T13:27:04.636Z</time>
      </trkpt>
      <trkpt lat="46.87693" lon="8.47608">
        <ele>1988</ele>
        <time>2021-08-11T13:27:05.637Z</time>
      </trkpt>
      <trkpt lat="46.87693" lon="8.47608">
        <ele>1988</ele>
        <time>2021-08-11T13:27:06.636Z</time>
      </trkpt>
      <trkpt lat="46.87693" lon="8.47608">
        <ele>1988</ele>
        <time>2021-08-11T13:27:07.637Z</time>
      </trkpt>
      <trkpt lat="46.87692" lon="8.47607">
        <ele>1988</ele>
        <time>2021-08-11T13:27:08.637Z</time>
      </trkpt>
      <trkpt lat="46.87692" lon="8.47607">
        <ele>1988</ele>
        <time>2021-08-11T13:27:09.637Z</time>
      </trkpt>
      <trkpt lat="46.87691" lon="8.47606">
        <ele>1988</ele>
        <time>2021-08-11T13:27:10.637Z</time>
      </trkpt>
      <trkpt lat="46.87691" lon="8.47606">
        <ele>1988</ele>
        <time>2021-08-11T13:27:11.637Z</time>
      </trkpt>
      <trkpt lat="46.8769" lon="8.47605">
        <ele>1988</ele>
        <time>2021-08-11T13:27:12.637Z</time>
      </trkpt>
      <trkpt lat="46.8769" lon="8.47605">
        <ele>1988</ele>
        <time>2021-08-11T13:27:13.637Z</time>
      </trkpt>
      <trkpt lat="46.8769" lon="8.47605">
        <ele>1988</ele>
        <time>2021-08-11T13:27:14.636Z</time>
      </trkpt>
      <trkpt lat="46.87689" lon="8.47605">
        <ele>1988</ele>
        <time>2021-08-11T13:27:15.637Z</time>
      </trkpt>
      <trkpt lat="46.87688" lon="8.47605">
        <ele>1988</ele>
        <time>2021-08-11T13:27:16.637Z</time>
      </trkpt>
      <trkpt lat="46.87688" lon="8.47605">
        <ele>1989</ele>
        <time>2021-08-11T13:27:17.636Z</time>
      </trkpt>
      <trkpt lat="46.87687" lon="8.47604">
        <ele>1989</ele>
        <time>2021-08-11T13:27:18.636Z</time>
      </trkpt>
      <trkpt lat="46.87687" lon="8.47603">
        <ele>1989</ele>
        <time>2021-08-11T13:27:19.637Z</time>
      </trkpt>
      <trkpt lat="46.87687" lon="8.47602">
        <ele>1989</ele>
        <time>2021-08-11T13:27:20.637Z</time>
      </trkpt>
      <trkpt lat="46.87686" lon="8.47602">
        <ele>1988</ele>
        <time>2021-08-11T13:27:21.637Z</time>
      </trkpt>
      <trkpt lat="46.87685" lon="8.47602">
        <ele>1988</ele>
        <time>2021-08-11T13:27:22.637Z</time>
      </trkpt>
      <trkpt lat="46.87684" lon="8.47602">
        <ele>1987</ele>
        <time>2021-08-11T13:27:23.636Z</time>
      </trkpt>
      <trkpt lat="46.87683" lon="8.47602">
        <ele>1987</ele>
        <time>2021-08-11T13:27:24.636Z</time>
      </trkpt>
      <trkpt lat="46.87682" lon="8.47602">
        <ele>1988</ele>
        <time>2021-08-11T13:27:25.636Z</time>
      </trkpt>
      <trkpt lat="46.87682" lon="8.47601">
        <ele>1988</ele>
        <time>2021-08-11T13:27:26.636Z</time>
      </trkpt>
      <trkpt lat="46.87681" lon="8.47601">
        <ele>1988</ele>
        <time>2021-08-11T13:27:27.637Z</time>
      </trkpt>
      <trkpt lat="46.87681" lon="8.476">
        <ele>1989</ele>
        <time>2021-08-11T13:27:28.637Z</time>
      </trkpt>
      <trkpt lat="46.8768" lon="8.476">
        <ele>1989</ele>
        <time>2021-08-11T13:27:29.637Z</time>
      </trkpt>
      <trkpt lat="46.8768" lon="8.476">
        <ele>1990</ele>
        <time>2021-08-11T13:27:30.636Z</time>
      </trkpt>
      <trkpt lat="46.8768" lon="8.476">
        <ele>1990</ele>
        <time>2021-08-11T13:27:31.636Z</time>
      </trkpt>
      <trkpt lat="46.87679" lon="8.47599">
        <ele>1990</ele>
        <time>2021-08-11T13:27:32.637Z</time>
      </trkpt>
      <trkpt lat="46.87679" lon="8.47599">
        <ele>1990</ele>
        <time>2021-08-11T13:27:33.637Z</time>
      </trkpt>
      <trkpt lat="46.8768" lon="8.47598">
        <ele>1989</ele>
        <time>2021-08-11T13:27:34.637Z</time>
      </trkpt>
      <trkpt lat="46.87679" lon="8.47597">
        <ele>1989</ele>
        <time>2021-08-11T13:27:35.637Z</time>
      </trkpt>
      <trkpt lat="46.87678" lon="8.47597">
        <ele>1989</ele>
        <time>2021-08-11T13:27:36.636Z</time>
      </trkpt>
      <trkpt lat="46.87677" lon="8.47596">
        <ele>1988</ele>
        <time>2021-08-11T13:27:37.637Z</time>
      </trkpt>
      <trkpt lat="46.87676" lon="8.47595">
        <ele>1989</ele>
        <time>2021-08-11T13:27:38.637Z</time>
      </trkpt>
      <trkpt lat="46.87676" lon="8.47594">
        <ele>1989</ele>
        <time>2021-08-11T13:27:39.637Z</time>
      </trkpt>
      <trkpt lat="46.87676" lon="8.47594">
        <ele>1990</ele>
        <time>2021-08-11T13:27:40.637Z</time>
      </trkpt>
      <trkpt lat="46.87676" lon="8.47594">
        <ele>1991</ele>
        <time>2021-08-11T13:27:41.636Z</time>
      </trkpt>
      <trkpt lat="46.87675" lon="8.47593">
        <ele>1991</ele>
        <time>2021-08-11T13:27:42.637Z</time>
      </trkpt>
      <trkpt lat="46.87675" lon="8.47593">
        <ele>1992</ele>
        <time>2021-08-11T13:27:43.637Z</time>
      </trkpt>
      <trkpt lat="46.87674" lon="8.47593">
        <ele>1992</ele>
        <time>2021-08-11T13:27:44.636Z</time>
      </trkpt>
      <trkpt lat="46.87674" lon="8.47593">
        <ele>1992</ele>
        <time>2021-08-11T13:27:45.636Z</time>
      </trkpt>
      <trkpt lat="46.87673" lon="8.47593">
        <ele>1992</ele>
        <time>2021-08-11T13:27:46.637Z</time>
      </trkpt>
      <trkpt lat="46.87673" lon="8.47593">
        <ele>1992</ele>
        <time>2021-08-11T13:27:47.636Z</time>
      </trkpt>
      <trkpt lat="46.87672" lon="8.47593">
        <ele>1993</ele>
        <time>2021-08-11T13:27:48.636Z</time>
      </trkpt>
      <trkpt lat="46.87672" lon="8.47592">
        <ele>1993</ele>
        <time>2021-08-11T13:27:49.637Z</time>
      </trkpt>
      <trkpt lat="46.87671" lon="8.47592">
        <ele>1994</ele>
        <time>2021-08-11T13:27:50.637Z</time>
      </trkpt>
      <trkpt lat="46.8767" lon="8.47592">
        <ele>1995</ele>
        <time>2021-08-11T13:27:51.636Z</time>
      </trkpt>
      <trkpt lat="46.8767" lon="8.47592">
        <ele>1996</ele>
        <time>2021-08-11T13:27:52.636Z</time>
      </trkpt>
      <trkpt lat="46.87669" lon="8.47592">
        <ele>1997</ele>
        <time>2021-08-11T13:27:53.637Z</time>
      </trkpt>
      <trkpt lat="46.87668" lon="8.47592">
        <ele>1998</ele>
        <time>2021-08-11T13:27:54.637Z</time>
      </trkpt>
      <trkpt lat="46.87667" lon="8.47592">
        <ele>1998</ele>
        <time>2021-08-11T13:27:55.637Z</time>
      </trkpt>
      <trkpt lat="46.87666" lon="8.47592">
        <ele>1999</ele>
        <time>2021-08-11T13:27:56.637Z</time>
      </trkpt>
      <trkpt lat="46.87666" lon="8.47591">
        <ele>1999</ele>
        <time>2021-08-11T13:27:57.636Z</time>
      </trkpt>
      <trkpt lat="46.87665" lon="8.47591">
        <ele>1999</ele>
        <time>2021-08-11T13:27:58.637Z</time>
      </trkpt>
      <trkpt lat="46.87665" lon="8.4759">
        <ele>1999</ele>
        <time>2021-08-11T13:27:59.637Z</time>
      </trkpt>
      <trkpt lat="46.87665" lon="8.4759">
        <ele>1999</ele>
        <time>2021-08-11T13:28:00.637Z</time>
      </trkpt>
      <trkpt lat="46.87665" lon="8.47589">
        <ele>1998</ele>
        <time>2021-08-11T13:28:01.637Z</time>
      </trkpt>
      <trkpt lat="46.87664" lon="8.47589">
        <ele>1998</ele>
        <time>2021-08-11T13:28:02.636Z</time>
      </trkpt>
      <trkpt lat="46.87664" lon="8.47589">
        <ele>1997</ele>
        <time>2021-08-11T13:28:03.637Z</time>
      </trkpt>
      <trkpt lat="46.87663" lon="8.47588">
        <ele>1997</ele>
        <time>2021-08-11T13:28:04.637Z</time>
      </trkpt>
      <trkpt lat="46.87662" lon="8.47589">
        <ele>1996</ele>
        <time>2021-08-11T13:28:05.636Z</time>
      </trkpt>
      <trkpt lat="46.87662" lon="8.47589">
        <ele>1997</ele>
        <time>2021-08-11T13:28:06.637Z</time>
      </trkpt>
      <trkpt lat="46.87661" lon="8.4759">
        <ele>1997</ele>
        <time>2021-08-11T13:28:07.637Z</time>
      </trkpt>
      <trkpt lat="46.8766" lon="8.4759">
        <ele>1997</ele>
        <time>2021-08-11T13:28:08.636Z</time>
      </trkpt>
      <trkpt lat="46.87659" lon="8.4759">
        <ele>1998</ele>
        <time>2021-08-11T13:28:09.637Z</time>
      </trkpt>
      <trkpt lat="46.87659" lon="8.4759">
        <ele>1998</ele>
        <time>2021-08-11T13:28:10.637Z</time>
      </trkpt>
      <trkpt lat="46.87658" lon="8.4759">
        <ele>1998</ele>
        <time>2021-08-11T13:28:11.637Z</time>
      </trkpt>
      <trkpt lat="46.87657" lon="8.47589">
        <ele>1998</ele>
        <time>2021-08-11T13:28:12.637Z</time>
      </trkpt>
      <trkpt lat="46.87657" lon="8.47589">
        <ele>1998</ele>
        <time>2021-08-11T13:28:13.636Z</time>
      </trkpt>
      <trkpt lat="46.87656" lon="8.47589">
        <ele>1998</ele>
        <time>2021-08-11T13:28:14.637Z</time>
      </trkpt>
      <trkpt lat="46.87655" lon="8.47589">
        <ele>1998</ele>
        <time>2021-08-11T13:28:15.637Z</time>
      </trkpt>
      <trkpt lat="46.87655" lon="8.47589">
        <ele>1998</ele>
        <time>2021-08-11T13:28:16.637Z</time>
      </trkpt>
      <trkpt lat="46.87654" lon="8.47588">
        <ele>1998</ele>
        <time>2021-08-11T13:28:17.637Z</time>
      </trkpt>
      <trkpt lat="46.87654" lon="8.47588">
        <ele>1999</ele>
        <time>2021-08-11T13:28:18.636Z</time>
      </trkpt>
      <trkpt lat="46.87653" lon="8.47588">
        <ele>1999</ele>
        <time>2021-08-11T13:28:19.637Z</time>
      </trkpt>
      <trkpt lat="46.87653" lon="8.47587">
        <ele>1999</ele>
        <time>2021-08-11T13:28:20.636Z</time>
      </trkpt>
      <trkpt lat="46.87652" lon="8.47587">
        <ele>2000</ele>
        <time>2021-08-11T13:28:21.636Z</time>
      </trkpt>
      <trkpt lat="46.87651" lon="8.47586">
        <ele>2001</ele>
        <time>2021-08-11T13:28:22.637Z</time>
      </trkpt>
      <trkpt lat="46.8765" lon="8.47586">
        <ele>2002</ele>
        <time>2021-08-11T13:28:23.636Z</time>
      </trkpt>
      <trkpt lat="46.87649" lon="8.47586">
        <ele>2003</ele>
        <time>2021-08-11T13:28:24.637Z</time>
      </trkpt>
      <trkpt lat="46.87648" lon="8.47586">
        <ele>2003</ele>
        <time>2021-08-11T13:28:25.637Z</time>
      </trkpt>
      <trkpt lat="46.87647" lon="8.47586">
        <ele>2004</ele>
        <time>2021-08-11T13:28:26.636Z</time>
      </trkpt>
      <trkpt lat="46.87647" lon="8.47586">
        <ele>2004</ele>
        <time>2021-08-11T13:28:27.637Z</time>
      </trkpt>
      <trkpt lat="46.87646" lon="8.47586">
        <ele>2004</ele>
        <time>2021-08-11T13:28:28.637Z</time>
      </trkpt>
      <trkpt lat="46.87645" lon="8.47586">
        <ele>2004</ele>
        <time>2021-08-11T13:28:29.637Z</time>
      </trkpt>
      <trkpt lat="46.87644" lon="8.47586">
        <ele>2004</ele>
        <time>2021-08-11T13:28:30.637Z</time>
      </trkpt>
      <trkpt lat="46.87644" lon="8.47585">
        <ele>2004</ele>
        <time>2021-08-11T13:28:31.637Z</time>
      </trkpt>
      <trkpt lat="46.87643" lon="8.47585">
        <ele>2004</ele>
        <time>2021-08-11T13:28:32.637Z</time>
      </trkpt>
      <trkpt lat="46.87643" lon="8.47586">
        <ele>2004</ele>
        <time>2021-08-11T13:28:33.637Z</time>
      </trkpt>
      <trkpt lat="46.87643" lon="8.47586">
        <ele>2004</ele>
        <time>2021-08-11T13:28:34.636Z</time>
      </trkpt>
      <trkpt lat="46.87642" lon="8.47585">
        <ele>2003</ele>
        <time>2021-08-11T13:28:35.636Z</time>
      </trkpt>
      <trkpt lat="46.87641" lon="8.47587">
        <ele>2002</ele>
        <time>2021-08-11T13:28:36.636Z</time>
      </trkpt>
      <trkpt lat="46.87639" lon="8.47586">
        <ele>2002</ele>
        <time>2021-08-11T13:28:37.636Z</time>
      </trkpt>
      <trkpt lat="46.87638" lon="8.47586">
        <ele>2002</ele>
        <time>2021-08-11T13:28:38.636Z</time>
      </trkpt>
      <trkpt lat="46.87638" lon="8.47586">
        <ele>2003</ele>
        <time>2021-08-11T13:28:39.637Z</time>
      </trkpt>
      <trkpt lat="46.87637" lon="8.47586">
        <ele>2004</ele>
        <time>2021-08-11T13:28:40.637Z</time>
      </trkpt>
      <trkpt lat="46.87637" lon="8.47585">
        <ele>2004</ele>
        <time>2021-08-11T13:28:41.636Z</time>
      </trkpt>
      <trkpt lat="46.87637" lon="8.47585">
        <ele>2005</ele>
        <time>2021-08-11T13:28:42.636Z</time>
      </trkpt>
      <trkpt lat="46.87636" lon="8.47585">
        <ele>2005</ele>
        <time>2021-08-11T13:28:43.636Z</time>
      </trkpt>
      <trkpt lat="46.87635" lon="8.47586">
        <ele>2004</ele>
        <time>2021-08-11T13:28:44.637Z</time>
      </trkpt>
      <trkpt lat="46.87635" lon="8.47587">
        <ele>2003</ele>
        <time>2021-08-11T13:28:45.637Z</time>
      </trkpt>
      <trkpt lat="46.87634" lon="8.47587">
        <ele>2003</ele>
        <time>2021-08-11T13:28:46.637Z</time>
      </trkpt>
      <trkpt lat="46.87634" lon="8.47588">
        <ele>2003</ele>
        <time>2021-08-11T13:28:47.637Z</time>
      </trkpt>
      <trkpt lat="46.87633" lon="8.47588">
        <ele>2003</ele>
        <time>2021-08-11T13:28:48.637Z</time>
      </trkpt>
      <trkpt lat="46.87633" lon="8.47588">
        <ele>2004</ele>
        <time>2021-08-11T13:28:49.636Z</time>
      </trkpt>
      <trkpt lat="46.87632" lon="8.47589">
        <ele>2004</ele>
        <time>2021-08-11T13:28:50.636Z</time>
      </trkpt>
      <trkpt lat="46.87632" lon="8.47589">
        <ele>2005</ele>
        <time>2021-08-11T13:28:51.637Z</time>
      </trkpt>
      <trkpt lat="46.87632" lon="8.4759">
        <ele>2005</ele>
        <time>2021-08-11T13:28:52.636Z</time>
      </trkpt>
      <trkpt lat="46.87632" lon="8.47591">
        <ele>2005</ele>
        <time>2021-08-11T13:28:53.636Z</time>
      </trkpt>
      <trkpt lat="46.87631" lon="8.47592">
        <ele>2005</ele>
        <time>2021-08-11T13:28:54.636Z</time>
      </trkpt>
      <trkpt lat="46.87631" lon="8.47593">
        <ele>2006</ele>
        <time>2021-08-11T13:28:55.636Z</time>
      </trkpt>
      <trkpt lat="46.8763" lon="8.47594">
        <ele>2007</ele>
        <time>2021-08-11T13:28:56.636Z</time>
      </trkpt>
      <trkpt lat="46.8763" lon="8.47595">
        <ele>2007</ele>
        <time>2021-08-11T13:28:57.636Z</time>
      </trkpt>
      <trkpt lat="46.8763" lon="8.47595">
        <ele>2007</ele>
        <time>2021-08-11T13:28:58.636Z</time>
      </trkpt>
      <trkpt lat="46.8763" lon="8.47596">
        <ele>2007</ele>
        <time>2021-08-11T13:28:59.636Z</time>
      </trkpt>
      <trkpt lat="46.8763" lon="8.47597">
        <ele>2007</ele>
        <time>2021-08-11T13:29:00.636Z</time>
      </trkpt>
      <trkpt lat="46.87629" lon="8.47599">
        <ele>2007</ele>
        <time>2021-08-11T13:29:01.636Z</time>
      </trkpt>
      <trkpt lat="46.87629" lon="8.476">
        <ele>2007</ele>
        <time>2021-08-11T13:29:02.636Z</time>
      </trkpt>
      <trkpt lat="46.87628" lon="8.47601">
        <ele>2007</ele>
        <time>2021-08-11T13:29:03.636Z</time>
      </trkpt>
      <trkpt lat="46.87628" lon="8.47602">
        <ele>2007</ele>
        <time>2021-08-11T13:29:04.636Z</time>
      </trkpt>
      <trkpt lat="46.87628" lon="8.47603">
        <ele>2007</ele>
        <time>2021-08-11T13:29:05.636Z</time>
      </trkpt>
      <trkpt lat="46.87628" lon="8.47604">
        <ele>2007</ele>
        <time>2021-08-11T13:29:06.636Z</time>
      </trkpt>
      <trkpt lat="46.87628" lon="8.47605">
        <ele>2006</ele>
        <time>2021-08-11T13:29:07.636Z</time>
      </trkpt>
      <trkpt lat="46.87627" lon="8.47606">
        <ele>2006</ele>
        <time>2021-08-11T13:29:08.636Z</time>
      </trkpt>
      <trkpt lat="46.87627" lon="8.47607">
        <ele>2006</ele>
        <time>2021-08-11T13:29:09.636Z</time>
      </trkpt>
      <trkpt lat="46.87627" lon="8.47607">
        <ele>2006</ele>
        <time>2021-08-11T13:29:10.636Z</time>
      </trkpt>
      <trkpt lat="46.87627" lon="8.47608">
        <ele>2006</ele>
        <time>2021-08-11T13:29:11.636Z</time>
      </trkpt>
      <trkpt lat="46.87627" lon="8.47609">
        <ele>2006</ele>
        <time>2021-08-11T13:29:12.636Z</time>
      </trkpt>
      <trkpt lat="46.87627" lon="8.4761">
        <ele>2006</ele>
        <time>2021-08-11T13:29:13.637Z</time>
      </trkpt>
      <trkpt lat="46.87627" lon="8.47611">
        <ele>2006</ele>
        <time>2021-08-11T13:29:14.636Z</time>
      </trkpt>
      <trkpt lat="46.87627" lon="8.47612">
        <ele>2006</ele>
        <time>2021-08-11T13:29:15.636Z</time>
      </trkpt>
      <trkpt lat="46.87627" lon="8.47612">
        <ele>2006</ele>
        <time>2021-08-11T13:29:16.636Z</time>
      </trkpt>
      <trkpt lat="46.87627" lon="8.47613">
        <ele>2006</ele>
        <time>2021-08-11T13:29:17.636Z</time>
      </trkpt>
      <trkpt lat="46.87627" lon="8.47615">
        <ele>2006</ele>
        <time>2021-08-11T13:29:18.636Z</time>
      </trkpt>
      <trkpt lat="46.87627" lon="8.47615">
        <ele>2007</ele>
        <time>2021-08-11T13:29:19.636Z</time>
      </trkpt>
      <trkpt lat="46.87627" lon="8.47616">
        <ele>2007</ele>
        <time>2021-08-11T13:29:20.636Z</time>
      </trkpt>
      <trkpt lat="46.87627" lon="8.47617">
        <ele>2007</ele>
        <time>2021-08-11T13:29:21.636Z</time>
      </trkpt>
      <trkpt lat="46.87627" lon="8.47617">
        <ele>2008</ele>
        <time>2021-08-11T13:29:22.636Z</time>
      </trkpt>
      <trkpt lat="46.87627" lon="8.47618">
        <ele>2008</ele>
        <time>2021-08-11T13:29:23.637Z</time>
      </trkpt>
      <trkpt lat="46.87626" lon="8.47619">
        <ele>2007</ele>
        <time>2021-08-11T13:29:24.636Z</time>
      </trkpt>
      <trkpt lat="46.87626" lon="8.47619">
        <ele>2008</ele>
        <time>2021-08-11T13:29:25.636Z</time>
      </trkpt>
      <trkpt lat="46.87626" lon="8.4762">
        <ele>2008</ele>
        <time>2021-08-11T13:29:26.636Z</time>
      </trkpt>
      <trkpt lat="46.87626" lon="8.4762">
        <ele>2009</ele>
        <time>2021-08-11T13:29:27.636Z</time>
      </trkpt>
      <trkpt lat="46.87626" lon="8.47621">
        <ele>2009</ele>
        <time>2021-08-11T13:29:28.636Z</time>
      </trkpt>
      <trkpt lat="46.87626" lon="8.47621">
        <ele>2009</ele>
        <time>2021-08-11T13:29:29.636Z</time>
      </trkpt>
      <trkpt lat="46.87625" lon="8.47622">
        <ele>2009</ele>
        <time>2021-08-11T13:29:30.636Z</time>
      </trkpt>
      <trkpt lat="46.87625" lon="8.47622">
        <ele>2010</ele>
        <time>2021-08-11T13:29:31.637Z</time>
      </trkpt>
      <trkpt lat="46.87625" lon="8.47623">
        <ele>2010</ele>
        <time>2021-08-11T13:29:32.637Z</time>
      </trkpt>
      <trkpt lat="46.87625" lon="8.47623">
        <ele>2010</ele>
        <time>2021-08-11T13:29:33.636Z</time>
      </trkpt>
      <trkpt lat="46.87625" lon="8.47624">
        <ele>2010</ele>
        <time>2021-08-11T13:29:34.636Z</time>
      </trkpt>
      <trkpt lat="46.87624" lon="8.47624">
        <ele>2011</ele>
        <time>2021-08-11T13:29:35.636Z</time>
      </trkpt>
      <trkpt lat="46.87624" lon="8.47624">
        <ele>2011</ele>
        <time>2021-08-11T13:29:36.636Z</time>
      </trkpt>
      <trkpt lat="46.87624" lon="8.47625">
        <ele>2012</ele>
        <time>2021-08-11T13:29:37.636Z</time>
      </trkpt>
      <trkpt lat="46.87623" lon="8.47625">
        <ele>2013</ele>
        <time>2021-08-11T13:29:38.636Z</time>
      </trkpt>
      <trkpt lat="46.87623" lon="8.47626">
        <ele>2014</ele>
        <time>2021-08-11T13:29:39.636Z</time>
      </trkpt>
      <trkpt lat="46.87623" lon="8.47627">
        <ele>2015</ele>
        <time>2021-08-11T13:29:40.636Z</time>
      </trkpt>
      <trkpt lat="46.87622" lon="8.47627">
        <ele>2016</ele>
        <time>2021-08-11T13:29:41.637Z</time>
      </trkpt>
      <trkpt lat="46.87622" lon="8.47627">
        <ele>2016</ele>
        <time>2021-08-11T13:29:42.637Z</time>
      </trkpt>
      <trkpt lat="46.87622" lon="8.47627">
        <ele>2017</ele>
        <time>2021-08-11T13:29:43.636Z</time>
      </trkpt>
      <trkpt lat="46.87621" lon="8.47627">
        <ele>2017</ele>
        <time>2021-08-11T13:29:44.636Z</time>
      </trkpt>
      <trkpt lat="46.87621" lon="8.47627">
        <ele>2016</ele>
        <time>2021-08-11T13:29:45.636Z</time>
      </trkpt>
      <trkpt lat="46.8762" lon="8.47628">
        <ele>2016</ele>
        <time>2021-08-11T13:29:46.636Z</time>
      </trkpt>
      <trkpt lat="46.87619" lon="8.47629">
        <ele>2016</ele>
        <time>2021-08-11T13:29:47.636Z</time>
      </trkpt>
      <trkpt lat="46.87619" lon="8.4763">
        <ele>2016</ele>
        <time>2021-08-11T13:29:48.636Z</time>
      </trkpt>
      <trkpt lat="46.87618" lon="8.4763">
        <ele>2017</ele>
        <time>2021-08-11T13:29:49.636Z</time>
      </trkpt>
      <trkpt lat="46.87618" lon="8.4763">
        <ele>2017</ele>
        <time>2021-08-11T13:29:50.636Z</time>
      </trkpt>
      <trkpt lat="46.87617" lon="8.4763">
        <ele>2018</ele>
        <time>2021-08-11T13:29:51.636Z</time>
      </trkpt>
      <trkpt lat="46.87617" lon="8.47631">
        <ele>2018</ele>
        <time>2021-08-11T13:29:52.636Z</time>
      </trkpt>
      <trkpt lat="46.87617" lon="8.47631">
        <ele>2018</ele>
        <time>2021-08-11T13:29:53.636Z</time>
      </trkpt>
      <trkpt lat="46.87617" lon="8.47631">
        <ele>2019</ele>
        <time>2021-08-11T13:29:54.636Z</time>
      </trkpt>
      <trkpt lat="46.87616" lon="8.47631">
        <ele>2019</ele>
        <time>2021-08-11T13:29:55.636Z</time>
      </trkpt>
      <trkpt lat="46.87616" lon="8.47631">
        <ele>2019</ele>
        <time>2021-08-11T13:29:56.636Z</time>
      </trkpt>
      <trkpt lat="46.87615" lon="8.47632">
        <ele>2019</ele>
        <time>2021-08-11T13:29:57.636Z</time>
      </trkpt>
      <trkpt lat="46.87615" lon="8.47632">
        <ele>2020</ele>
        <time>2021-08-11T13:29:58.636Z</time>
      </trkpt>
      <trkpt lat="46.87615" lon="8.47633">
        <ele>2019</ele>
        <time>2021-08-11T13:29:59.637Z</time>
      </trkpt>
      <trkpt lat="46.87614" lon="8.47633">
        <ele>2019</ele>
        <time>2021-08-11T13:30:00.636Z</time>
      </trkpt>
      <trkpt lat="46.87614" lon="8.47634">
        <ele>2019</ele>
        <time>2021-08-11T13:30:01.636Z</time>
      </trkpt>
      <trkpt lat="46.87614" lon="8.47635">
        <ele>2019</ele>
        <time>2021-08-11T13:30:02.636Z</time>
      </trkpt>
      <trkpt lat="46.87614" lon="8.47635">
        <ele>2019</ele>
        <time>2021-08-11T13:30:03.636Z</time>
      </trkpt>
      <trkpt lat="46.87613" lon="8.47635">
        <ele>2019</ele>
        <time>2021-08-11T13:30:07.670Z</time>
      </trkpt>
      <trkpt lat="46.87613" lon="8.47636">
        <ele>2020</ele>
        <time>2021-08-11T13:30:08.670Z</time>
      </trkpt>
      <trkpt lat="46.87613" lon="8.47636">
        <ele>2020</ele>
        <time>2021-08-11T13:30:09.670Z</time>
      </trkpt>
      <trkpt lat="46.87612" lon="8.47637">
        <ele>2020</ele>
        <time>2021-08-11T13:30:10.670Z</time>
      </trkpt>
      <trkpt lat="46.87612" lon="8.47637">
        <ele>2020</ele>
        <time>2021-08-11T13:30:11.670Z</time>
      </trkpt>
      <trkpt lat="46.87612" lon="8.47637">
        <ele>2020</ele>
        <time>2021-08-11T13:30:12.670Z</time>
      </trkpt>
      <trkpt lat="46.87612" lon="8.47638">
        <ele>2020</ele>
        <time>2021-08-11T13:30:13.670Z</time>
      </trkpt>
      <trkpt lat="46.87612" lon="8.47638">
        <ele>2020</ele>
        <time>2021-08-11T13:30:14.671Z</time>
      </trkpt>
      <trkpt lat="46.87612" lon="8.47639">
        <ele>2020</ele>
        <time>2021-08-11T13:30:15.670Z</time>
      </trkpt>
      <trkpt lat="46.87611" lon="8.47639">
        <ele>2020</ele>
        <time>2021-08-11T13:30:16.670Z</time>
      </trkpt>
      <trkpt lat="46.87611" lon="8.47639">
        <ele>2021</ele>
        <time>2021-08-11T13:30:17.670Z</time>
      </trkpt>
      <trkpt lat="46.8761" lon="8.4764">
        <ele>2022</ele>
        <time>2021-08-11T13:30:18.671Z</time>
      </trkpt>
      <trkpt lat="46.8761" lon="8.4764">
        <ele>2022</ele>
        <time>2021-08-11T13:30:19.670Z</time>
      </trkpt>
      <trkpt lat="46.87609" lon="8.4764">
        <ele>2021</ele>
        <time>2021-08-11T13:30:20.671Z</time>
      </trkpt>
      <trkpt lat="46.87609" lon="8.4764">
        <ele>2021</ele>
        <time>2021-08-11T13:30:21.671Z</time>
      </trkpt>
      <trkpt lat="46.87609" lon="8.4764">
        <ele>2020</ele>
        <time>2021-08-11T13:30:22.670Z</time>
      </trkpt>
      <trkpt lat="46.87609" lon="8.4764">
        <ele>2020</ele>
        <time>2021-08-11T13:30:23.670Z</time>
      </trkpt>
      <trkpt lat="46.87609" lon="8.4764">
        <ele>2019</ele>
        <time>2021-08-11T13:30:24.671Z</time>
      </trkpt>
      <trkpt lat="46.87609" lon="8.4764">
        <ele>2019</ele>
        <time>2021-08-11T13:30:25.671Z</time>
      </trkpt>
      <trkpt lat="46.87609" lon="8.47639">
        <ele>2019</ele>
        <time>2021-08-11T13:30:26.670Z</time>
      </trkpt>
      <trkpt lat="46.87609" lon="8.47639">
        <ele>2019</ele>
        <time>2021-08-11T13:30:27.671Z</time>
      </trkpt>
      <trkpt lat="46.87609" lon="8.47638">
        <ele>2020</ele>
        <time>2021-08-11T13:30:28.671Z</time>
      </trkpt>
      <trkpt lat="46.87609" lon="8.47637">
        <ele>2020</ele>
        <time>2021-08-11T13:30:29.670Z</time>
      </trkpt>
      <trkpt lat="46.87609" lon="8.47636">
        <ele>2020</ele>
        <time>2021-08-11T13:30:30.671Z</time>
      </trkpt>
      <trkpt lat="46.87609" lon="8.47636">
        <ele>2020</ele>
        <time>2021-08-11T13:30:31.670Z</time>
      </trkpt>
      <trkpt lat="46.87609" lon="8.47635">
        <ele>2020</ele>
        <time>2021-08-11T13:30:32.671Z</time>
      </trkpt>
      <trkpt lat="46.87609" lon="8.47635">
        <ele>2020</ele>
        <time>2021-08-11T13:30:33.671Z</time>
      </trkpt>
      <trkpt lat="46.87609" lon="8.47634">
        <ele>2020</ele>
        <time>2021-08-11T13:30:34.670Z</time>
      </trkpt>
      <trkpt lat="46.87608" lon="8.47634">
        <ele>2020</ele>
        <time>2021-08-11T13:30:35.670Z</time>
      </trkpt>
      <trkpt lat="46.87608" lon="8.47633">
        <ele>2020</ele>
        <time>2021-08-11T13:30:36.670Z</time>
      </trkpt>
      <trkpt lat="46.87608" lon="8.47632">
        <ele>2020</ele>
        <time>2021-08-11T13:30:37.671Z</time>
      </trkpt>
      <trkpt lat="46.87608" lon="8.47632">
        <ele>2020</ele>
        <time>2021-08-11T13:30:38.670Z</time>
      </trkpt>
      <trkpt lat="46.87609" lon="8.47631">
        <ele>2020</ele>
        <time>2021-08-11T13:30:39.671Z</time>
      </trkpt>
      <trkpt lat="46.87609" lon="8.47631">
        <ele>2020</ele>
        <time>2021-08-11T13:30:40.671Z</time>
      </trkpt>
      <trkpt lat="46.87609" lon="8.47629">
        <ele>2020</ele>
        <time>2021-08-11T13:30:41.671Z</time>
      </trkpt>
      <trkpt lat="46.87608" lon="8.47628">
        <ele>2020</ele>
        <time>2021-08-11T13:30:42.670Z</time>
      </trkpt>
      <trkpt lat="46.87608" lon="8.47627">
        <ele>2020</ele>
        <time>2021-08-11T13:30:43.671Z</time>
      </trkpt>
      <trkpt lat="46.87608" lon="8.47626">
        <ele>2020</ele>
        <time>2021-08-11T13:30:44.671Z</time>
      </trkpt>
      <trkpt lat="46.87607" lon="8.47625">
        <ele>2020</ele>
        <time>2021-08-11T13:30:45.671Z</time>
      </trkpt>
      <trkpt lat="46.87607" lon="8.47624">
        <ele>2020</ele>
        <time>2021-08-11T13:30:46.670Z</time>
      </trkpt>
      <trkpt lat="46.87606" lon="8.47624">
        <ele>2020</ele>
        <time>2021-08-11T13:30:47.670Z</time>
      </trkpt>
      <trkpt lat="46.87606" lon="8.47623">
        <ele>2019</ele>
        <time>2021-08-11T13:30:48.671Z</time>
      </trkpt>
      <trkpt lat="46.87606" lon="8.47623">
        <ele>2019</ele>
        <time>2021-08-11T13:30:49.670Z</time>
      </trkpt>
      <trkpt lat="46.87606" lon="8.47623">
        <ele>2019</ele>
        <time>2021-08-11T13:30:50.670Z</time>
      </trkpt>
      <trkpt lat="46.87606" lon="8.47623">
        <ele>2019</ele>
        <time>2021-08-11T13:30:51.671Z</time>
      </trkpt>
      <trkpt lat="46.87606" lon="8.47623">
        <ele>2020</ele>
        <time>2021-08-11T13:30:52.670Z</time>
      </trkpt>
      <trkpt lat="46.87606" lon="8.47622">
        <ele>2021</ele>
        <time>2021-08-11T13:30:53.670Z</time>
      </trkpt>
      <trkpt lat="46.87606" lon="8.47621">
        <ele>2021</ele>
        <time>2021-08-11T13:30:54.671Z</time>
      </trkpt>
      <trkpt lat="46.87606" lon="8.47622">
        <ele>2021</ele>
        <time>2021-08-11T13:30:55.670Z</time>
      </trkpt>
      <trkpt lat="46.87605" lon="8.47621">
        <ele>2021</ele>
        <time>2021-08-11T13:30:56.670Z</time>
      </trkpt>
      <trkpt lat="46.87605" lon="8.47621">
        <ele>2021</ele>
        <time>2021-08-11T13:30:57.670Z</time>
      </trkpt>
      <trkpt lat="46.87604" lon="8.47621">
        <ele>2021</ele>
        <time>2021-08-11T13:30:58.671Z</time>
      </trkpt>
      <trkpt lat="46.87604" lon="8.4762">
        <ele>2021</ele>
        <time>2021-08-11T13:30:59.670Z</time>
      </trkpt>
      <trkpt lat="46.87603" lon="8.4762">
        <ele>2021</ele>
        <time>2021-08-11T13:31:00.670Z</time>
      </trkpt>
      <trkpt lat="46.87603" lon="8.47619">
        <ele>2021</ele>
        <time>2021-08-11T13:31:01.670Z</time>
      </trkpt>
      <trkpt lat="46.87602" lon="8.47618">
        <ele>2021</ele>
        <time>2021-08-11T13:31:02.670Z</time>
      </trkpt>
      <trkpt lat="46.87602" lon="8.47618">
        <ele>2021</ele>
        <time>2021-08-11T13:31:03.671Z</time>
      </trkpt>
      <trkpt lat="46.87601" lon="8.47617">
        <ele>2021</ele>
        <time>2021-08-11T13:31:04.670Z</time>
      </trkpt>
      <trkpt lat="46.87601" lon="8.47617">
        <ele>2021</ele>
        <time>2021-08-11T13:31:05.671Z</time>
      </trkpt>
      <trkpt lat="46.87601" lon="8.47617">
        <ele>2021</ele>
        <time>2021-08-11T13:31:06.671Z</time>
      </trkpt>
      <trkpt lat="46.876" lon="8.47617">
        <ele>2021</ele>
        <time>2021-08-11T13:31:07.670Z</time>
      </trkpt>
      <trkpt lat="46.876" lon="8.47616">
        <ele>2020</ele>
        <time>2021-08-11T13:31:08.670Z</time>
      </trkpt>
      <trkpt lat="46.87599" lon="8.47616">
        <ele>2020</ele>
        <time>2021-08-11T13:31:09.670Z</time>
      </trkpt>
      <trkpt lat="46.87599" lon="8.47616">
        <ele>2019</ele>
        <time>2021-08-11T13:31:10.671Z</time>
      </trkpt>
      <trkpt lat="46.87598" lon="8.47616">
        <ele>2019</ele>
        <time>2021-08-11T13:31:11.670Z</time>
      </trkpt>
      <trkpt lat="46.87598" lon="8.47616">
        <ele>2019</ele>
        <time>2021-08-11T13:31:12.671Z</time>
      </trkpt>
      <trkpt lat="46.87597" lon="8.47616">
        <ele>2019</ele>
        <time>2021-08-11T13:31:13.671Z</time>
      </trkpt>
      <trkpt lat="46.87597" lon="8.47616">
        <ele>2020</ele>
        <time>2021-08-11T13:31:14.670Z</time>
      </trkpt>
      <trkpt lat="46.87596" lon="8.47616">
        <ele>2021</ele>
        <time>2021-08-11T13:31:15.670Z</time>
      </trkpt>
      <trkpt lat="46.87596" lon="8.47616">
        <ele>2022</ele>
        <time>2021-08-11T13:31:16.670Z</time>
      </trkpt>
      <trkpt lat="46.87596" lon="8.47617">
        <ele>2022</ele>
        <time>2021-08-11T13:31:17.671Z</time>
      </trkpt>
      <trkpt lat="46.87596" lon="8.47617">
        <ele>2023</ele>
        <time>2021-08-11T13:31:18.670Z</time>
      </trkpt>
      <trkpt lat="46.87596" lon="8.47617">
        <ele>2024</ele>
        <time>2021-08-11T13:31:19.671Z</time>
      </trkpt>
      <trkpt lat="46.87596" lon="8.47614">
        <ele>2030</ele>
        <time>2021-08-11T13:31:20.672Z</time>
      </trkpt>
      <trkpt lat="46.87596" lon="8.47614">
        <ele>2030</ele>
        <time>2021-08-11T13:31:21.671Z</time>
      </trkpt>
      <trkpt lat="46.87596" lon="8.47613">
        <ele>2031</ele>
        <time>2021-08-11T13:31:22.672Z</time>
      </trkpt>
      <trkpt lat="46.87595" lon="8.47612">
        <ele>2031</ele>
        <time>2021-08-11T13:31:23.672Z</time>
      </trkpt>
      <trkpt lat="46.87595" lon="8.47612">
        <ele>2031</ele>
        <time>2021-08-11T13:31:24.671Z</time>
      </trkpt>
      <trkpt lat="46.87595" lon="8.47611">
        <ele>2031</ele>
        <time>2021-08-11T13:31:25.671Z</time>
      </trkpt>
      <trkpt lat="46.87595" lon="8.4761">
        <ele>2031</ele>
        <time>2021-08-11T13:31:26.671Z</time>
      </trkpt>
      <trkpt lat="46.87595" lon="8.47609">
        <ele>2030</ele>
        <time>2021-08-11T13:31:27.672Z</time>
      </trkpt>
      <trkpt lat="46.87594" lon="8.47609">
        <ele>2029</ele>
        <time>2021-08-11T13:31:28.672Z</time>
      </trkpt>
      <trkpt lat="46.87594" lon="8.47608">
        <ele>2028</ele>
        <time>2021-08-11T13:31:29.671Z</time>
      </trkpt>
      <trkpt lat="46.87594" lon="8.47607">
        <ele>2028</ele>
        <time>2021-08-11T13:31:30.672Z</time>
      </trkpt>
      <trkpt lat="46.87593" lon="8.47607">
        <ele>2027</ele>
        <time>2021-08-11T13:31:31.672Z</time>
      </trkpt>
      <trkpt lat="46.87593" lon="8.47607">
        <ele>2027</ele>
        <time>2021-08-11T13:31:32.671Z</time>
      </trkpt>
      <trkpt lat="46.87593" lon="8.47606">
        <ele>2027</ele>
        <time>2021-08-11T13:31:33.672Z</time>
      </trkpt>
      <trkpt lat="46.87592" lon="8.47606">
        <ele>2028</ele>
        <time>2021-08-11T13:31:34.672Z</time>
      </trkpt>
      <trkpt lat="46.87592" lon="8.47605">
        <ele>2028</ele>
        <time>2021-08-11T13:31:35.671Z</time>
      </trkpt>
      <trkpt lat="46.87592" lon="8.47605">
        <ele>2029</ele>
        <time>2021-08-11T13:31:36.671Z</time>
      </trkpt>
      <trkpt lat="46.87591" lon="8.47604">
        <ele>2029</ele>
        <time>2021-08-11T13:31:37.671Z</time>
      </trkpt>
      <trkpt lat="46.8759" lon="8.47603">
        <ele>2029</ele>
        <time>2021-08-11T13:31:38.671Z</time>
      </trkpt>
      <trkpt lat="46.8759" lon="8.47603">
        <ele>2029</ele>
        <time>2021-08-11T13:31:39.671Z</time>
      </trkpt>
      <trkpt lat="46.8759" lon="8.47602">
        <ele>2029</ele>
        <time>2021-08-11T13:31:40.672Z</time>
      </trkpt>
      <trkpt lat="46.8759" lon="8.47602">
        <ele>2029</ele>
        <time>2021-08-11T13:31:41.672Z</time>
      </trkpt>
      <trkpt lat="46.8759" lon="8.47602">
        <ele>2029</ele>
        <time>2021-08-11T13:31:42.671Z</time>
      </trkpt>
      <trkpt lat="46.87588" lon="8.47601">
        <ele>2032</ele>
        <time>2021-08-11T13:31:43.672Z</time>
      </trkpt>
      <trkpt lat="46.87588" lon="8.47601">
        <ele>2032</ele>
        <time>2021-08-11T13:31:44.671Z</time>
      </trkpt>
      <trkpt lat="46.87588" lon="8.476">
        <ele>2032</ele>
        <time>2021-08-11T13:31:45.672Z</time>
      </trkpt>
      <trkpt lat="46.87588" lon="8.476">
        <ele>2033</ele>
        <time>2021-08-11T13:31:46.672Z</time>
      </trkpt>
      <trkpt lat="46.87588" lon="8.476">
        <ele>2033</ele>
        <time>2021-08-11T13:31:47.671Z</time>
      </trkpt>
      <trkpt lat="46.87588" lon="8.47599">
        <ele>2035</ele>
        <time>2021-08-11T13:31:48.673Z</time>
      </trkpt>
      <trkpt lat="46.87588" lon="8.476">
        <ele>2035</ele>
        <time>2021-08-11T13:31:49.673Z</time>
      </trkpt>
      <trkpt lat="46.87587" lon="8.476">
        <ele>2036</ele>
        <time>2021-08-11T13:31:50.672Z</time>
      </trkpt>
      <trkpt lat="46.87586" lon="8.47599">
        <ele>2036</ele>
        <time>2021-08-11T13:31:51.673Z</time>
      </trkpt>
      <trkpt lat="46.87585" lon="8.47599">
        <ele>2036</ele>
        <time>2021-08-11T13:31:52.673Z</time>
      </trkpt>
      <trkpt lat="46.87584" lon="8.47599">
        <ele>2036</ele>
        <time>2021-08-11T13:31:53.673Z</time>
      </trkpt>
      <trkpt lat="46.87583" lon="8.476">
        <ele>2037</ele>
        <time>2021-08-11T13:31:54.673Z</time>
      </trkpt>
      <trkpt lat="46.87582" lon="8.476">
        <ele>2037</ele>
        <time>2021-08-11T13:31:55.673Z</time>
      </trkpt>
      <trkpt lat="46.87582" lon="8.47601">
        <ele>2037</ele>
        <time>2021-08-11T13:31:56.673Z</time>
      </trkpt>
      <trkpt lat="46.87581" lon="8.47601">
        <ele>2037</ele>
        <time>2021-08-11T13:31:57.673Z</time>
      </trkpt>
      <trkpt lat="46.8758" lon="8.47601">
        <ele>2038</ele>
        <time>2021-08-11T13:31:58.673Z</time>
      </trkpt>
      <trkpt lat="46.87579" lon="8.476">
        <ele>2038</ele>
        <time>2021-08-11T13:31:59.672Z</time>
      </trkpt>
      <trkpt lat="46.87578" lon="8.47601">
        <ele>2038</ele>
        <time>2021-08-11T13:32:00.672Z</time>
      </trkpt>
      <trkpt lat="46.87577" lon="8.476">
        <ele>2039</ele>
        <time>2021-08-11T13:32:01.672Z</time>
      </trkpt>
      <trkpt lat="46.87577" lon="8.476">
        <ele>2040</ele>
        <time>2021-08-11T13:32:02.672Z</time>
      </trkpt>
      <trkpt lat="46.87577" lon="8.47599">
        <ele>2041</ele>
        <time>2021-08-11T13:32:03.673Z</time>
      </trkpt>
      <trkpt lat="46.87576" lon="8.47599">
        <ele>2041</ele>
        <time>2021-08-11T13:32:04.672Z</time>
      </trkpt>
      <trkpt lat="46.87576" lon="8.47599">
        <ele>2041</ele>
        <time>2021-08-11T13:32:05.673Z</time>
      </trkpt>
      <trkpt lat="46.87576" lon="8.47599">
        <ele>2041</ele>
        <time>2021-08-11T13:32:06.673Z</time>
      </trkpt>
      <trkpt lat="46.87576" lon="8.47598">
        <ele>2041</ele>
        <time>2021-08-11T13:32:07.673Z</time>
      </trkpt>
      <trkpt lat="46.87576" lon="8.47599">
        <ele>2041</ele>
        <time>2021-08-11T13:32:08.673Z</time>
      </trkpt>
      <trkpt lat="46.87576" lon="8.476">
        <ele>2041</ele>
        <time>2021-08-11T13:32:09.672Z</time>
      </trkpt>
      <trkpt lat="46.87574" lon="8.47598">
        <ele>2034</ele>
        <time>2021-08-11T13:32:10.673Z</time>
      </trkpt>
      <trkpt lat="46.87575" lon="8.47598">
        <ele>2034</ele>
        <time>2021-08-11T13:32:11.673Z</time>
      </trkpt>
      <trkpt lat="46.87574" lon="8.47599">
        <ele>2031</ele>
        <time>2021-08-11T13:32:12.673Z</time>
      </trkpt>
      <trkpt lat="46.87574" lon="8.47599">
        <ele>2031</ele>
        <time>2021-08-11T13:32:13.672Z</time>
      </trkpt>
      <trkpt lat="46.87578" lon="8.47599">
        <ele>2031</ele>
        <time>2021-08-11T13:32:14.672Z</time>
      </trkpt>
      <trkpt lat="46.87578" lon="8.47599">
        <ele>2031</ele>
        <time>2021-08-11T13:32:15.672Z</time>
      </trkpt>
      <trkpt lat="46.87578" lon="8.47599">
        <ele>2031</ele>
        <time>2021-08-11T13:32:16.672Z</time>
      </trkpt>
      <trkpt lat="46.87578" lon="8.47599">
        <ele>2030</ele>
        <time>2021-08-11T13:32:17.673Z</time>
      </trkpt>
      <trkpt lat="46.87578" lon="8.47598">
        <ele>2030</ele>
        <time>2021-08-11T13:32:18.673Z</time>
      </trkpt>
      <trkpt lat="46.87577" lon="8.47597">
        <ele>2030</ele>
        <time>2021-08-11T13:32:19.673Z</time>
      </trkpt>
      <trkpt lat="46.87577" lon="8.47596">
        <ele>2029</ele>
        <time>2021-08-11T13:32:20.673Z</time>
      </trkpt>
      <trkpt lat="46.87576" lon="8.47595">
        <ele>2029</ele>
        <time>2021-08-11T13:32:21.673Z</time>
      </trkpt>
      <trkpt lat="46.87576" lon="8.47595">
        <ele>2028</ele>
        <time>2021-08-11T13:32:22.673Z</time>
      </trkpt>
      <trkpt lat="46.87576" lon="8.47594">
        <ele>2028</ele>
        <time>2021-08-11T13:32:23.673Z</time>
      </trkpt>
      <trkpt lat="46.87576" lon="8.47593">
        <ele>2027</ele>
        <time>2021-08-11T13:32:24.673Z</time>
      </trkpt>
      <trkpt lat="46.87576" lon="8.47592">
        <ele>2026</ele>
        <time>2021-08-11T13:32:25.673Z</time>
      </trkpt>
      <trkpt lat="46.87577" lon="8.47591">
        <ele>2026</ele>
        <time>2021-08-11T13:32:26.673Z</time>
      </trkpt>
      <trkpt lat="46.87576" lon="8.47591">
        <ele>2025</ele>
        <time>2021-08-11T13:32:27.673Z</time>
      </trkpt>
      <trkpt lat="46.87576" lon="8.47591">
        <ele>2025</ele>
        <time>2021-08-11T13:32:28.673Z</time>
      </trkpt>
      <trkpt lat="46.87576" lon="8.47591">
        <ele>2025</ele>
        <time>2021-08-11T13:32:29.674Z</time>
      </trkpt>
      <trkpt lat="46.87576" lon="8.4759">
        <ele>2025</ele>
        <time>2021-08-11T13:32:30.673Z</time>
      </trkpt>
      <trkpt lat="46.87575" lon="8.47589">
        <ele>2026</ele>
        <time>2021-08-11T13:32:31.674Z</time>
      </trkpt>
      <trkpt lat="46.87575" lon="8.47588">
        <ele>2026</ele>
        <time>2021-08-11T13:32:32.673Z</time>
      </trkpt>
      <trkpt lat="46.87574" lon="8.47587">
        <ele>2027</ele>
        <time>2021-08-11T13:32:33.673Z</time>
      </trkpt>
      <trkpt lat="46.87574" lon="8.47586">
        <ele>2027</ele>
        <time>2021-08-11T13:32:34.673Z</time>
      </trkpt>
      <trkpt lat="46.87574" lon="8.47586">
        <ele>2026</ele>
        <time>2021-08-11T13:32:35.674Z</time>
      </trkpt>
      <trkpt lat="46.87574" lon="8.47585">
        <ele>2026</ele>
        <time>2021-08-11T13:32:36.673Z</time>
      </trkpt>
      <trkpt lat="46.87574" lon="8.47585">
        <ele>2026</ele>
        <time>2021-08-11T13:32:37.673Z</time>
      </trkpt>
      <trkpt lat="46.87574" lon="8.47584">
        <ele>2026</ele>
        <time>2021-08-11T13:32:38.673Z</time>
      </trkpt>
      <trkpt lat="46.87574" lon="8.47584">
        <ele>2026</ele>
        <time>2021-08-11T13:32:39.673Z</time>
      </trkpt>
      <trkpt lat="46.87573" lon="8.47584">
        <ele>2026</ele>
        <time>2021-08-11T13:32:40.673Z</time>
      </trkpt>
      <trkpt lat="46.87573" lon="8.47584">
        <ele>2027</ele>
        <time>2021-08-11T13:32:41.673Z</time>
      </trkpt>
      <trkpt lat="46.87572" lon="8.47583">
        <ele>2027</ele>
        <time>2021-08-11T13:32:42.673Z</time>
      </trkpt>
      <trkpt lat="46.87572" lon="8.47583">
        <ele>2027</ele>
        <time>2021-08-11T13:32:43.673Z</time>
      </trkpt>
      <trkpt lat="46.87571" lon="8.47583">
        <ele>2027</ele>
        <time>2021-08-11T13:32:44.673Z</time>
      </trkpt>
      <trkpt lat="46.8757" lon="8.47587">
        <ele>2028</ele>
        <time>2021-08-11T13:32:45.675Z</time>
      </trkpt>
      <trkpt lat="46.87572" lon="8.47582">
        <ele>2037</ele>
        <time>2021-08-11T13:32:46.675Z</time>
      </trkpt>
      <trkpt lat="46.87572" lon="8.4758">
        <ele>2037</ele>
        <time>2021-08-11T13:32:47.676Z</time>
      </trkpt>
      <trkpt lat="46.87572" lon="8.4758">
        <ele>2037</ele>
        <time>2021-08-11T13:32:48.675Z</time>
      </trkpt>
      <trkpt lat="46.87571" lon="8.47581">
        <ele>2036</ele>
        <time>2021-08-11T13:32:49.677Z</time>
      </trkpt>
      <trkpt lat="46.87572" lon="8.47583">
        <ele>2037</ele>
        <time>2021-08-11T13:32:50.677Z</time>
      </trkpt>
      <trkpt lat="46.87571" lon="8.47583">
        <ele>2037</ele>
        <time>2021-08-11T13:32:51.678Z</time>
      </trkpt>
      <trkpt lat="46.8757" lon="8.47583">
        <ele>2037</ele>
        <time>2021-08-11T13:32:52.677Z</time>
      </trkpt>
      <trkpt lat="46.8757" lon="8.47584">
        <ele>2036</ele>
        <time>2021-08-11T13:32:53.678Z</time>
      </trkpt>
      <trkpt lat="46.8757" lon="8.47584">
        <ele>2036</ele>
        <time>2021-08-11T13:32:54.678Z</time>
      </trkpt>
      <trkpt lat="46.87571" lon="8.47583">
        <ele>2037</ele>
        <time>2021-08-11T13:32:55.679Z</time>
      </trkpt>
      <trkpt lat="46.87571" lon="8.47583">
        <ele>2037</ele>
        <time>2021-08-11T13:32:56.679Z</time>
      </trkpt>
      <trkpt lat="46.87571" lon="8.47583">
        <ele>2038</ele>
        <time>2021-08-11T13:32:57.678Z</time>
      </trkpt>
      <trkpt lat="46.87573" lon="8.4758">
        <ele>2025</ele>
        <time>2021-08-11T13:32:58.678Z</time>
      </trkpt>
      <trkpt lat="46.87573" lon="8.47581">
        <ele>2025</ele>
        <time>2021-08-11T13:32:59.679Z</time>
      </trkpt>
      <trkpt lat="46.87572" lon="8.47581">
        <ele>2025</ele>
        <time>2021-08-11T13:33:00.678Z</time>
      </trkpt>
      <trkpt lat="46.87572" lon="8.47581">
        <ele>2025</ele>
        <time>2021-08-11T13:33:01.678Z</time>
      </trkpt>
      <trkpt lat="46.87572" lon="8.4758">
        <ele>2025</ele>
        <time>2021-08-11T13:33:02.678Z</time>
      </trkpt>
      <trkpt lat="46.87572" lon="8.4758">
        <ele>2025</ele>
        <time>2021-08-11T13:33:03.679Z</time>
      </trkpt>
      <trkpt lat="46.87572" lon="8.4758">
        <ele>2025</ele>
        <time>2021-08-11T13:33:04.678Z</time>
      </trkpt>
      <trkpt lat="46.87572" lon="8.47579">
        <ele>2024</ele>
        <time>2021-08-11T13:33:05.679Z</time>
      </trkpt>
      <trkpt lat="46.87572" lon="8.47579">
        <ele>2024</ele>
        <time>2021-08-11T13:33:06.678Z</time>
      </trkpt>
      <trkpt lat="46.87573" lon="8.4758">
        <ele>2024</ele>
        <time>2021-08-11T13:33:07.679Z</time>
      </trkpt>
      <trkpt lat="46.87574" lon="8.4758">
        <ele>2024</ele>
        <time>2021-08-11T13:33:08.679Z</time>
      </trkpt>
      <trkpt lat="46.87574" lon="8.47581">
        <ele>2024</ele>
        <time>2021-08-11T13:33:09.678Z</time>
      </trkpt>
      <trkpt lat="46.87574" lon="8.47581">
        <ele>2024</ele>
        <time>2021-08-11T13:33:10.679Z</time>
      </trkpt>
      <trkpt lat="46.87573" lon="8.47581">
        <ele>2025</ele>
        <time>2021-08-11T13:33:11.679Z</time>
      </trkpt>
      <trkpt lat="46.87573" lon="8.47581">
        <ele>2025</ele>
        <time>2021-08-11T13:33:12.679Z</time>
      </trkpt>
      <trkpt lat="46.87573" lon="8.47582">
        <ele>2025</ele>
        <time>2021-08-11T13:33:13.678Z</time>
      </trkpt>
      <trkpt lat="46.87573" lon="8.47583">
        <ele>2025</ele>
        <time>2021-08-11T13:33:14.679Z</time>
      </trkpt>
      <trkpt lat="46.87573" lon="8.47584">
        <ele>2025</ele>
        <time>2021-08-11T13:33:15.679Z</time>
      </trkpt>
      <trkpt lat="46.87573" lon="8.47585">
        <ele>2026</ele>
        <time>2021-08-11T13:33:16.679Z</time>
      </trkpt>
      <trkpt lat="46.87572" lon="8.47586">
        <ele>2026</ele>
        <time>2021-08-11T13:33:17.679Z</time>
      </trkpt>
      <trkpt lat="46.87572" lon="8.47585">
        <ele>2027</ele>
        <time>2021-08-11T13:33:18.678Z</time>
      </trkpt>
      <trkpt lat="46.87572" lon="8.47585">
        <ele>2027</ele>
        <time>2021-08-11T13:33:19.679Z</time>
      </trkpt>
      <trkpt lat="46.87572" lon="8.47585">
        <ele>2028</ele>
        <time>2021-08-11T13:33:20.679Z</time>
      </trkpt>
      <trkpt lat="46.87573" lon="8.47584">
        <ele>2029</ele>
        <time>2021-08-11T13:33:21.679Z</time>
      </trkpt>
      <trkpt lat="46.87573" lon="8.47583">
        <ele>2029</ele>
        <time>2021-08-11T13:33:22.678Z</time>
      </trkpt>
      <trkpt lat="46.87573" lon="8.47582">
        <ele>2030</ele>
        <time>2021-08-11T13:33:23.678Z</time>
      </trkpt>
      <trkpt lat="46.87574" lon="8.47581">
        <ele>2030</ele>
        <time>2021-08-11T13:33:24.679Z</time>
      </trkpt>
      <trkpt lat="46.87575" lon="8.4758">
        <ele>2030</ele>
        <time>2021-08-11T13:33:25.679Z</time>
      </trkpt>
      <trkpt lat="46.87575" lon="8.4758">
        <ele>2030</ele>
        <time>2021-08-11T13:33:26.679Z</time>
      </trkpt>
      <trkpt lat="46.87576" lon="8.47579">
        <ele>2031</ele>
        <time>2021-08-11T13:33:27.679Z</time>
      </trkpt>
      <trkpt lat="46.87577" lon="8.47578">
        <ele>2031</ele>
        <time>2021-08-11T13:33:28.679Z</time>
      </trkpt>
      <trkpt lat="46.87578" lon="8.47577">
        <ele>2031</ele>
        <time>2021-08-11T13:33:29.678Z</time>
      </trkpt>
      <trkpt lat="46.87578" lon="8.47576">
        <ele>2031</ele>
        <time>2021-08-11T13:33:30.678Z</time>
      </trkpt>
      <trkpt lat="46.87579" lon="8.47576">
        <ele>2031</ele>
        <time>2021-08-11T13:33:31.679Z</time>
      </trkpt>
      <trkpt lat="46.8758" lon="8.47576">
        <ele>2031</ele>
        <time>2021-08-11T13:33:32.678Z</time>
      </trkpt>
      <trkpt lat="46.8758" lon="8.47576">
        <ele>2032</ele>
        <time>2021-08-11T13:33:33.679Z</time>
      </trkpt>
      <trkpt lat="46.87579" lon="8.47577">
        <ele>2032</ele>
        <time>2021-08-11T13:33:34.679Z</time>
      </trkpt>
      <trkpt lat="46.87579" lon="8.47577">
        <ele>2032</ele>
        <time>2021-08-11T13:33:35.679Z</time>
      </trkpt>
      <trkpt lat="46.87579" lon="8.47578">
        <ele>2032</ele>
        <time>2021-08-11T13:33:36.679Z</time>
      </trkpt>
      <trkpt lat="46.87579" lon="8.47578">
        <ele>2032</ele>
        <time>2021-08-11T13:33:37.679Z</time>
      </trkpt>
      <trkpt lat="46.8758" lon="8.47577">
        <ele>2033</ele>
        <time>2021-08-11T13:33:38.679Z</time>
      </trkpt>
      <trkpt lat="46.87579" lon="8.47576">
        <ele>2033</ele>
        <time>2021-08-11T13:33:39.679Z</time>
      </trkpt>
      <trkpt lat="46.87579" lon="8.47576">
        <ele>2033</ele>
        <time>2021-08-11T13:33:40.679Z</time>
      </trkpt>
      <trkpt lat="46.87577" lon="8.47576">
        <ele>2033</ele>
        <time>2021-08-11T13:33:41.678Z</time>
      </trkpt>
      <trkpt lat="46.87577" lon="8.47576">
        <ele>2033</ele>
        <time>2021-08-11T13:33:42.679Z</time>
      </trkpt>
      <trkpt lat="46.87575" lon="8.47577">
        <ele>2034</ele>
        <time>2021-08-11T13:33:43.678Z</time>
      </trkpt>
      <trkpt lat="46.87575" lon="8.47577">
        <ele>2033</ele>
        <time>2021-08-11T13:33:44.679Z</time>
      </trkpt>
      <trkpt lat="46.87575" lon="8.47577">
        <ele>2033</ele>
        <time>2021-08-11T13:33:45.679Z</time>
      </trkpt>
      <trkpt lat="46.87576" lon="8.47576">
        <ele>2033</ele>
        <time>2021-08-11T13:33:46.679Z</time>
      </trkpt>
      <trkpt lat="46.87578" lon="8.47575">
        <ele>2033</ele>
        <time>2021-08-11T13:33:47.679Z</time>
      </trkpt>
      <trkpt lat="46.8758" lon="8.47572">
        <ele>2033</ele>
        <time>2021-08-11T13:33:48.678Z</time>
      </trkpt>
      <trkpt lat="46.87582" lon="8.4757">
        <ele>2033</ele>
        <time>2021-08-11T13:33:49.679Z</time>
      </trkpt>
      <trkpt lat="46.87584" lon="8.47569">
        <ele>2033</ele>
        <time>2021-08-11T13:33:50.679Z</time>
      </trkpt>
      <trkpt lat="46.87585" lon="8.4757">
        <ele>2033</ele>
        <time>2021-08-11T13:33:51.679Z</time>
      </trkpt>
      <trkpt lat="46.87586" lon="8.47569">
        <ele>2033</ele>
        <time>2021-08-11T13:33:52.679Z</time>
      </trkpt>
      <trkpt lat="46.87587" lon="8.47568">
        <ele>2033</ele>
        <time>2021-08-11T13:33:53.678Z</time>
      </trkpt>
      <trkpt lat="46.87585" lon="8.4757">
        <ele>2033</ele>
        <time>2021-08-11T13:33:54.678Z</time>
      </trkpt>
      <trkpt lat="46.87582" lon="8.47572">
        <ele>2033</ele>
        <time>2021-08-11T13:33:55.679Z</time>
      </trkpt>
      <trkpt lat="46.8758" lon="8.47574">
        <ele>2033</ele>
        <time>2021-08-11T13:33:56.678Z</time>
      </trkpt>
      <trkpt lat="46.87576" lon="8.47577">
        <ele>2033</ele>
        <time>2021-08-11T13:33:57.679Z</time>
      </trkpt>
      <trkpt lat="46.87574" lon="8.47578">
        <ele>2034</ele>
        <time>2021-08-11T13:33:58.679Z</time>
      </trkpt>
      <trkpt lat="46.87572" lon="8.4758">
        <ele>2034</ele>
        <time>2021-08-11T13:33:59.679Z</time>
      </trkpt>
      <trkpt lat="46.8757" lon="8.4758">
        <ele>2034</ele>
        <time>2021-08-11T13:34:00.679Z</time>
      </trkpt>
      <trkpt lat="46.87568" lon="8.4758">
        <ele>2034</ele>
        <time>2021-08-11T13:34:01.678Z</time>
      </trkpt>
      <trkpt lat="46.87566" lon="8.47581">
        <ele>2034</ele>
        <time>2021-08-11T13:34:02.679Z</time>
      </trkpt>
      <trkpt lat="46.87564" lon="8.47582">
        <ele>2034</ele>
        <time>2021-08-11T13:34:03.678Z</time>
      </trkpt>
      <trkpt lat="46.87563" lon="8.47583">
        <ele>2034</ele>
        <time>2021-08-11T13:34:04.679Z</time>
      </trkpt>
      <trkpt lat="46.87563" lon="8.47584">
        <ele>2035</ele>
        <time>2021-08-11T13:34:05.679Z</time>
      </trkpt>
      <trkpt lat="46.87564" lon="8.47583">
        <ele>2035</ele>
        <time>2021-08-11T13:34:06.678Z</time>
      </trkpt>
      <trkpt lat="46.87565" lon="8.47583">
        <ele>2035</ele>
        <time>2021-08-11T13:34:07.679Z</time>
      </trkpt>
      <trkpt lat="46.87565" lon="8.47584">
        <ele>2037</ele>
        <time>2021-08-11T13:34:08.680Z</time>
      </trkpt>
      <trkpt lat="46.87565" lon="8.47584">
        <ele>2037</ele>
        <time>2021-08-11T13:34:09.680Z</time>
      </trkpt>
      <trkpt lat="46.87564" lon="8.47584">
        <ele>2037</ele>
        <time>2021-08-11T13:34:10.680Z</time>
      </trkpt>
      <trkpt lat="46.87564" lon="8.47585">
        <ele>2037</ele>
        <time>2021-08-11T13:34:11.680Z</time>
      </trkpt>
      <trkpt lat="46.87565" lon="8.47586">
        <ele>2037</ele>
        <time>2021-08-11T13:34:12.679Z</time>
      </trkpt>
      <trkpt lat="46.87568" lon="8.47585">
        <ele>2039</ele>
        <time>2021-08-11T13:34:13.680Z</time>
      </trkpt>
      <trkpt lat="46.87569" lon="8.47583">
        <ele>2040</ele>
        <time>2021-08-11T13:34:14.680Z</time>
      </trkpt>
      <trkpt lat="46.87575" lon="8.47577">
        <ele>2041</ele>
        <time>2021-08-11T13:34:15.681Z</time>
      </trkpt>
      <trkpt lat="46.87576" lon="8.47575">
        <ele>2042</ele>
        <time>2021-08-11T13:34:16.680Z</time>
      </trkpt>
      <trkpt lat="46.87576" lon="8.47575">
        <ele>2042</ele>
        <time>2021-08-11T13:34:17.680Z</time>
      </trkpt>
      <trkpt lat="46.87578" lon="8.47575">
        <ele>2042</ele>
        <time>2021-08-11T13:34:18.681Z</time>
      </trkpt>
      <trkpt lat="46.87579" lon="8.47575">
        <ele>2042</ele>
        <time>2021-08-11T13:34:19.680Z</time>
      </trkpt>
      <trkpt lat="46.87579" lon="8.47576">
        <ele>2042</ele>
        <time>2021-08-11T13:34:20.680Z</time>
      </trkpt>
      <trkpt lat="46.87578" lon="8.47576">
        <ele>2043</ele>
        <time>2021-08-11T13:34:21.681Z</time>
      </trkpt>
      <trkpt lat="46.87577" lon="8.47577">
        <ele>2043</ele>
        <time>2021-08-11T13:34:22.680Z</time>
      </trkpt>
      <trkpt lat="46.87577" lon="8.47576">
        <ele>2043</ele>
        <time>2021-08-11T13:34:23.680Z</time>
      </trkpt>
      <trkpt lat="46.87578" lon="8.47576">
        <ele>2043</ele>
        <time>2021-08-11T13:34:24.680Z</time>
      </trkpt>
      <trkpt lat="46.87579" lon="8.47575">
        <ele>2043</ele>
        <time>2021-08-11T13:34:25.681Z</time>
      </trkpt>
      <trkpt lat="46.8758" lon="8.47575">
        <ele>2043</ele>
        <time>2021-08-11T13:34:26.681Z</time>
      </trkpt>
      <trkpt lat="46.8758" lon="8.47574">
        <ele>2043</ele>
        <time>2021-08-11T13:34:27.681Z</time>
      </trkpt>
      <trkpt lat="46.8758" lon="8.47574">
        <ele>2043</ele>
        <time>2021-08-11T13:34:28.681Z</time>
      </trkpt>
      <trkpt lat="46.8758" lon="8.47574">
        <ele>2043</ele>
        <time>2021-08-11T13:34:29.681Z</time>
      </trkpt>
      <trkpt lat="46.8758" lon="8.47574">
        <ele>2044</ele>
        <time>2021-08-11T13:34:30.680Z</time>
      </trkpt>
      <trkpt lat="46.87579" lon="8.47575">
        <ele>2043</ele>
        <time>2021-08-11T13:34:31.680Z</time>
      </trkpt>
      <trkpt lat="46.87578" lon="8.47578">
        <ele>2042</ele>
        <time>2021-08-11T13:34:32.681Z</time>
      </trkpt>
      <trkpt lat="46.87579" lon="8.47578">
        <ele>2042</ele>
        <time>2021-08-11T13:34:33.680Z</time>
      </trkpt>
      <trkpt lat="46.87579" lon="8.47578">
        <ele>2041</ele>
        <time>2021-08-11T13:34:34.680Z</time>
      </trkpt>
      <trkpt lat="46.87578" lon="8.47577">
        <ele>2041</ele>
        <time>2021-08-11T13:34:35.681Z</time>
      </trkpt>
      <trkpt lat="46.87574" lon="8.47579">
        <ele>2036</ele>
        <time>2021-08-11T13:34:36.683Z</time>
      </trkpt>
      <trkpt lat="46.87575" lon="8.47579">
        <ele>2039</ele>
        <time>2021-08-11T13:34:37.684Z</time>
      </trkpt>
      <trkpt lat="46.87574" lon="8.4758">
        <ele>2039</ele>
        <time>2021-08-11T13:34:38.683Z</time>
      </trkpt>
      <trkpt lat="46.87572" lon="8.4758">
        <ele>2040</ele>
        <time>2021-08-11T13:34:39.683Z</time>
      </trkpt>
      <trkpt lat="46.87572" lon="8.47581">
        <ele>2042</ele>
        <time>2021-08-11T13:34:40.684Z</time>
      </trkpt>
      <trkpt lat="46.87571" lon="8.47581">
        <ele>2043</ele>
        <time>2021-08-11T13:34:41.684Z</time>
      </trkpt>
      <trkpt lat="46.87569" lon="8.47582">
        <ele>2038</ele>
        <time>2021-08-11T13:34:42.685Z</time>
      </trkpt>
      <trkpt lat="46.87568" lon="8.47583">
        <ele>2038</ele>
        <time>2021-08-11T13:34:43.685Z</time>
      </trkpt>
      <trkpt lat="46.87567" lon="8.47584">
        <ele>2040</ele>
        <time>2021-08-11T13:34:44.686Z</time>
      </trkpt>
      <trkpt lat="46.87567" lon="8.47582">
        <ele>2040</ele>
        <time>2021-08-11T13:34:45.685Z</time>
      </trkpt>
      <trkpt lat="46.87567" lon="8.47582">
        <ele>2040</ele>
        <time>2021-08-11T13:34:46.685Z</time>
      </trkpt>
      <trkpt lat="46.87569" lon="8.47582">
        <ele>2040</ele>
        <time>2021-08-11T13:34:47.685Z</time>
      </trkpt>
      <trkpt lat="46.87568" lon="8.47582">
        <ele>2040</ele>
        <time>2021-08-11T13:34:48.685Z</time>
      </trkpt>
      <trkpt lat="46.87568" lon="8.47582">
        <ele>2040</ele>
        <time>2021-08-11T13:34:49.686Z</time>
      </trkpt>
      <trkpt lat="46.87569" lon="8.47577">
        <ele>2035</ele>
        <time>2021-08-11T13:34:50.687Z</time>
      </trkpt>
      <trkpt lat="46.87569" lon="8.47577">
        <ele>2035</ele>
        <time>2021-08-11T13:34:51.687Z</time>
      </trkpt>
      <trkpt lat="46.87569" lon="8.47576">
        <ele>2035</ele>
        <time>2021-08-11T13:34:52.686Z</time>
      </trkpt>
      <trkpt lat="46.87569" lon="8.47576">
        <ele>2035</ele>
        <time>2021-08-11T13:34:53.687Z</time>
      </trkpt>
      <trkpt lat="46.8757" lon="8.47576">
        <ele>2035</ele>
        <time>2021-08-11T13:34:54.687Z</time>
      </trkpt>
      <trkpt lat="46.87572" lon="8.47575">
        <ele>2040</ele>
        <time>2021-08-11T13:34:55.688Z</time>
      </trkpt>
      <trkpt lat="46.87572" lon="8.47575">
        <ele>2040</ele>
        <time>2021-08-11T13:34:56.687Z</time>
      </trkpt>
      <trkpt lat="46.87572" lon="8.47574">
        <ele>2041</ele>
        <time>2021-08-11T13:34:57.687Z</time>
      </trkpt>
      <trkpt lat="46.87572" lon="8.47574">
        <ele>2045</ele>
        <time>2021-08-11T13:34:58.687Z</time>
      </trkpt>
      <trkpt lat="46.87571" lon="8.47575">
        <ele>2046</ele>
        <time>2021-08-11T13:35:00.688Z</time>
      </trkpt>
      <trkpt lat="46.8757" lon="8.47575">
        <ele>2047</ele>
        <time>2021-08-11T13:35:01.688Z</time>
      </trkpt>
      <trkpt lat="46.87573" lon="8.4758">
        <ele>2040</ele>
        <time>2021-08-11T13:35:02.691Z</time>
      </trkpt>
      <trkpt lat="46.87573" lon="8.47579">
        <ele>2040</ele>
        <time>2021-08-11T13:35:03.690Z</time>
      </trkpt>
      <trkpt lat="46.87573" lon="8.47579">
        <ele>2040</ele>
        <time>2021-08-11T13:35:04.690Z</time>
      </trkpt>
      <trkpt lat="46.87572" lon="8.47579">
        <ele>2039</ele>
        <time>2021-08-11T13:35:05.691Z</time>
      </trkpt>
      <trkpt lat="46.87572" lon="8.47579">
        <ele>2039</ele>
        <time>2021-08-11T13:35:06.690Z</time>
      </trkpt>
      <trkpt lat="46.87572" lon="8.4758">
        <ele>2039</ele>
        <time>2021-08-11T13:35:07.691Z</time>
      </trkpt>
      <trkpt lat="46.87572" lon="8.4758">
        <ele>2040</ele>
        <time>2021-08-11T13:35:08.690Z</time>
      </trkpt>
      <trkpt lat="46.87573" lon="8.4758">
        <ele>2039</ele>
        <time>2021-08-11T13:35:09.690Z</time>
      </trkpt>
      <trkpt lat="46.87573" lon="8.4758">
        <ele>2039</ele>
        <time>2021-08-11T13:35:10.691Z</time>
      </trkpt>
      <trkpt lat="46.87573" lon="8.4758">
        <ele>2039</ele>
        <time>2021-08-11T13:35:11.691Z</time>
      </trkpt>
      <trkpt lat="46.87572" lon="8.47579">
        <ele>2039</ele>
        <time>2021-08-11T13:35:12.690Z</time>
      </trkpt>
      <trkpt lat="46.87572" lon="8.47578">
        <ele>2039</ele>
        <time>2021-08-11T13:35:13.691Z</time>
      </trkpt>
      <trkpt lat="46.87572" lon="8.47578">
        <ele>2039</ele>
        <time>2021-08-11T13:35:14.691Z</time>
      </trkpt>
      <trkpt lat="46.87572" lon="8.47577">
        <ele>2040</ele>
        <time>2021-08-11T13:35:15.691Z</time>
      </trkpt>
      <trkpt lat="46.87572" lon="8.47577">
        <ele>2040</ele>
        <time>2021-08-11T13:35:16.691Z</time>
      </trkpt>
      <trkpt lat="46.87572" lon="8.47577">
        <ele>2040</ele>
        <time>2021-08-11T13:35:17.690Z</time>
      </trkpt>
      <trkpt lat="46.87571" lon="8.47577">
        <ele>2041</ele>
        <time>2021-08-11T13:35:18.690Z</time>
      </trkpt>
      <trkpt lat="46.87571" lon="8.47577">
        <ele>2041</ele>
        <time>2021-08-11T13:35:19.691Z</time>
      </trkpt>
      <trkpt lat="46.8757" lon="8.47577">
        <ele>2041</ele>
        <time>2021-08-11T13:35:20.691Z</time>
      </trkpt>
      <trkpt lat="46.87571" lon="8.47577">
        <ele>2041</ele>
        <time>2021-08-11T13:35:21.691Z</time>
      </trkpt>
      <trkpt lat="46.87571" lon="8.47577">
        <ele>2041</ele>
        <time>2021-08-11T13:35:22.691Z</time>
      </trkpt>
      <trkpt lat="46.87571" lon="8.47577">
        <ele>2041</ele>
        <time>2021-08-11T13:35:23.690Z</time>
      </trkpt>
      <trkpt lat="46.87571" lon="8.47578">
        <ele>2041</ele>
        <time>2021-08-11T13:35:24.691Z</time>
      </trkpt>
      <trkpt lat="46.8757" lon="8.47578">
        <ele>2041</ele>
        <time>2021-08-11T13:35:25.691Z</time>
      </trkpt>
      <trkpt lat="46.8757" lon="8.47578">
        <ele>2041</ele>
        <time>2021-08-11T13:35:26.691Z</time>
      </trkpt>
      <trkpt lat="46.87569" lon="8.47578">
        <ele>2040</ele>
        <time>2021-08-11T13:35:27.691Z</time>
      </trkpt>
      <trkpt lat="46.8757" lon="8.47577">
        <ele>2040</ele>
        <time>2021-08-11T13:35:28.691Z</time>
      </trkpt>
      <trkpt lat="46.8757" lon="8.47577">
        <ele>2040</ele>
        <time>2021-08-11T13:35:29.690Z</time>
      </trkpt>
      <trkpt lat="46.87571" lon="8.47577">
        <ele>2039</ele>
        <time>2021-08-11T13:35:30.690Z</time>
      </trkpt>
      <trkpt lat="46.87572" lon="8.47578">
        <ele>2038</ele>
        <time>2021-08-11T13:35:31.692Z</time>
      </trkpt>
      <trkpt lat="46.87573" lon="8.47578">
        <ele>2038</ele>
        <time>2021-08-11T13:35:32.692Z</time>
      </trkpt>
      <trkpt lat="46.87573" lon="8.47578">
        <ele>2038</ele>
        <time>2021-08-11T13:35:33.692Z</time>
      </trkpt>
      <trkpt lat="46.87573" lon="8.47578">
        <ele>2038</ele>
        <time>2021-08-11T13:35:34.692Z</time>
      </trkpt>
      <trkpt lat="46.87572" lon="8.47578">
        <ele>2039</ele>
        <time>2021-08-11T13:35:35.692Z</time>
      </trkpt>
      <trkpt lat="46.87572" lon="8.47578">
        <ele>2039</ele>
        <time>2021-08-11T13:35:36.691Z</time>
      </trkpt>
      <trkpt lat="46.87572" lon="8.47578">
        <ele>2039</ele>
        <time>2021-08-11T13:35:37.692Z</time>
      </trkpt>
      <trkpt lat="46.87573" lon="8.47578">
        <ele>2040</ele>
        <time>2021-08-11T13:35:38.692Z</time>
      </trkpt>
      <trkpt lat="46.87574" lon="8.47578">
        <ele>2040</ele>
        <time>2021-08-11T13:35:39.692Z</time>
      </trkpt>
      <trkpt lat="46.87575" lon="8.47577">
        <ele>2041</ele>
        <time>2021-08-11T13:35:40.691Z</time>
      </trkpt>
      <trkpt lat="46.87576" lon="8.47577">
        <ele>2041</ele>
        <time>2021-08-11T13:35:41.691Z</time>
      </trkpt>
      <trkpt lat="46.87576" lon="8.47577">
        <ele>2041</ele>
        <time>2021-08-11T13:35:42.692Z</time>
      </trkpt>
      <trkpt lat="46.87577" lon="8.47577">
        <ele>2041</ele>
        <time>2021-08-11T13:35:43.692Z</time>
      </trkpt>
      <trkpt lat="46.87576" lon="8.47578">
        <ele>2041</ele>
        <time>2021-08-11T13:35:44.692Z</time>
      </trkpt>
      <trkpt lat="46.87576" lon="8.47578">
        <ele>2041</ele>
        <time>2021-08-11T13:35:45.692Z</time>
      </trkpt>
      <trkpt lat="46.87576" lon="8.47578">
        <ele>2041</ele>
        <time>2021-08-11T13:35:46.691Z</time>
      </trkpt>
      <trkpt lat="46.87577" lon="8.47577">
        <ele>2041</ele>
        <time>2021-08-11T13:35:47.691Z</time>
      </trkpt>
      <trkpt lat="46.87577" lon="8.47577">
        <ele>2041</ele>
        <time>2021-08-11T13:35:48.692Z</time>
      </trkpt>
      <trkpt lat="46.87576" lon="8.47575">
        <ele>2041</ele>
        <time>2021-08-11T13:35:49.693Z</time>
      </trkpt>
      <trkpt lat="46.87575" lon="8.47575">
        <ele>2041</ele>
        <time>2021-08-11T13:35:50.692Z</time>
      </trkpt>
      <trkpt lat="46.87575" lon="8.47575">
        <ele>2041</ele>
        <time>2021-08-11T13:35:51.692Z</time>
      </trkpt>
      <trkpt lat="46.87575" lon="8.47575">
        <ele>2040</ele>
        <time>2021-08-11T13:35:52.692Z</time>
      </trkpt>
      <trkpt lat="46.87575" lon="8.47576">
        <ele>2040</ele>
        <time>2021-08-11T13:35:53.692Z</time>
      </trkpt>
      <trkpt lat="46.87577" lon="8.47577">
        <ele>2042</ele>
        <time>2021-08-11T13:35:54.692Z</time>
      </trkpt>
      <trkpt lat="46.87577" lon="8.47576">
        <ele>2042</ele>
        <time>2021-08-11T13:35:55.692Z</time>
      </trkpt>
      <trkpt lat="46.87577" lon="8.47575">
        <ele>2042</ele>
        <time>2021-08-11T13:35:56.692Z</time>
      </trkpt>
      <trkpt lat="46.87576" lon="8.47575">
        <ele>2042</ele>
        <time>2021-08-11T13:35:57.693Z</time>
      </trkpt>
      <trkpt lat="46.87575" lon="8.47575">
        <ele>2042</ele>
        <time>2021-08-11T13:35:58.692Z</time>
      </trkpt>
      <trkpt lat="46.87576" lon="8.47576">
        <ele>2041</ele>
        <time>2021-08-11T13:35:59.693Z</time>
      </trkpt>
      <trkpt lat="46.87576" lon="8.47576">
        <ele>2039</ele>
        <time>2021-08-11T13:36:00.694Z</time>
      </trkpt>
      <trkpt lat="46.87575" lon="8.47576">
        <ele>2038</ele>
        <time>2021-08-11T13:36:01.694Z</time>
      </trkpt>
      <trkpt lat="46.87573" lon="8.47573">
        <ele>2031</ele>
        <time>2021-08-11T13:36:02.694Z</time>
      </trkpt>
      <trkpt lat="46.87573" lon="8.47574">
        <ele>2031</ele>
        <time>2021-08-11T13:36:03.694Z</time>
      </trkpt>
      <trkpt lat="46.8757" lon="8.47575">
        <ele>2026</ele>
        <time>2021-08-11T13:36:04.694Z</time>
      </trkpt>
      <trkpt lat="46.87569" lon="8.47575">
        <ele>2025</ele>
        <time>2021-08-11T13:36:05.693Z</time>
      </trkpt>
      <trkpt lat="46.87569" lon="8.47575">
        <ele>2025</ele>
        <time>2021-08-11T13:36:06.693Z</time>
      </trkpt>
      <trkpt lat="46.8757" lon="8.47575">
        <ele>2025</ele>
        <time>2021-08-11T13:36:07.694Z</time>
      </trkpt>
      <trkpt lat="46.8757" lon="8.47577">
        <ele>2025</ele>
        <time>2021-08-11T13:36:08.694Z</time>
      </trkpt>
      <trkpt lat="46.87571" lon="8.47578">
        <ele>2026</ele>
        <time>2021-08-11T13:36:09.694Z</time>
      </trkpt>
      <trkpt lat="46.8757" lon="8.47578">
        <ele>2026</ele>
        <time>2021-08-11T13:36:10.693Z</time>
      </trkpt>
      <trkpt lat="46.87569" lon="8.47577">
        <ele>2027</ele>
        <time>2021-08-11T13:36:11.694Z</time>
      </trkpt>
      <trkpt lat="46.87568" lon="8.47577">
        <ele>2027</ele>
        <time>2021-08-11T13:36:12.694Z</time>
      </trkpt>
      <trkpt lat="46.87569" lon="8.47577">
        <ele>2027</ele>
        <time>2021-08-11T13:36:13.693Z</time>
      </trkpt>
      <trkpt lat="46.87569" lon="8.47577">
        <ele>2026</ele>
        <time>2021-08-11T13:36:14.694Z</time>
      </trkpt>
      <trkpt lat="46.87569" lon="8.47577">
        <ele>2026</ele>
        <time>2021-08-11T13:36:15.693Z</time>
      </trkpt>
      <trkpt lat="46.8757" lon="8.47577">
        <ele>2026</ele>
        <time>2021-08-11T13:36:16.694Z</time>
      </trkpt>
      <trkpt lat="46.8757" lon="8.47577">
        <ele>2026</ele>
        <time>2021-08-11T13:36:17.694Z</time>
      </trkpt>
      <trkpt lat="46.8757" lon="8.47578">
        <ele>2032</ele>
        <time>2021-08-11T13:36:18.694Z</time>
      </trkpt>
      <trkpt lat="46.8757" lon="8.47578">
        <ele>2032</ele>
        <time>2021-08-11T13:36:19.695Z</time>
      </trkpt>
      <trkpt lat="46.87569" lon="8.47577">
        <ele>2033</ele>
        <time>2021-08-11T13:36:20.694Z</time>
      </trkpt>
      <trkpt lat="46.87568" lon="8.47577">
        <ele>2033</ele>
        <time>2021-08-11T13:36:21.695Z</time>
      </trkpt>
      <trkpt lat="46.87568" lon="8.47577">
        <ele>2035</ele>
        <time>2021-08-11T13:36:22.696Z</time>
      </trkpt>
      <trkpt lat="46.87569" lon="8.47577">
        <ele>2035</ele>
        <time>2021-08-11T13:36:23.695Z</time>
      </trkpt>
      <trkpt lat="46.87569" lon="8.47577">
        <ele>2035</ele>
        <time>2021-08-11T13:36:24.695Z</time>
      </trkpt>
      <trkpt lat="46.87569" lon="8.47576">
        <ele>2034</ele>
        <time>2021-08-11T13:36:25.695Z</time>
      </trkpt>
      <trkpt lat="46.87569" lon="8.47577">
        <ele>2034</ele>
        <time>2021-08-11T13:36:26.695Z</time>
      </trkpt>
      <trkpt lat="46.8757" lon="8.47577">
        <ele>2030</ele>
        <time>2021-08-11T13:36:27.696Z</time>
      </trkpt>
      <trkpt lat="46.87569" lon="8.47578">
        <ele>2029</ele>
        <time>2021-08-11T13:36:28.697Z</time>
      </trkpt>
      <trkpt lat="46.87569" lon="8.47578">
        <ele>2029</ele>
        <time>2021-08-11T13:36:29.697Z</time>
      </trkpt>
      <trkpt lat="46.87569" lon="8.47578">
        <ele>2029</ele>
        <time>2021-08-11T13:36:30.696Z</time>
      </trkpt>
      <trkpt lat="46.87569" lon="8.47579">
        <ele>2029</ele>
        <time>2021-08-11T13:36:31.696Z</time>
      </trkpt>
      <trkpt lat="46.87569" lon="8.4758">
        <ele>2029</ele>
        <time>2021-08-11T13:36:32.696Z</time>
      </trkpt>
      <trkpt lat="46.87569" lon="8.4758">
        <ele>2029</ele>
        <time>2021-08-11T13:36:33.697Z</time>
      </trkpt>
      <trkpt lat="46.87569" lon="8.4758">
        <ele>2028</ele>
        <time>2021-08-11T13:36:34.697Z</time>
      </trkpt>
      <trkpt lat="46.87569" lon="8.4758">
        <ele>2028</ele>
        <time>2021-08-11T13:36:35.697Z</time>
      </trkpt>
      <trkpt lat="46.87569" lon="8.47581">
        <ele>2028</ele>
        <time>2021-08-11T13:36:36.698Z</time>
      </trkpt>
      <trkpt lat="46.87569" lon="8.47582">
        <ele>2028</ele>
        <time>2021-08-11T13:36:37.698Z</time>
      </trkpt>
      <trkpt lat="46.8757" lon="8.47582">
        <ele>2028</ele>
        <time>2021-08-11T13:36:38.697Z</time>
      </trkpt>
      <trkpt lat="46.87571" lon="8.47582">
        <ele>2029</ele>
        <time>2021-08-11T13:36:39.698Z</time>
      </trkpt>
      <trkpt lat="46.87571" lon="8.47582">
        <ele>2029</ele>
        <time>2021-08-11T13:36:40.697Z</time>
      </trkpt>
      <trkpt lat="46.87571" lon="8.47583">
        <ele>2029</ele>
        <time>2021-08-11T13:36:41.698Z</time>
      </trkpt>
      <trkpt lat="46.8757" lon="8.47583">
        <ele>2029</ele>
        <time>2021-08-11T13:36:42.697Z</time>
      </trkpt>
      <trkpt lat="46.87568" lon="8.47576">
        <ele>2040</ele>
        <time>2021-08-11T13:36:43.698Z</time>
      </trkpt>
      <trkpt lat="46.87568" lon="8.47575">
        <ele>2040</ele>
        <time>2021-08-11T13:36:44.698Z</time>
      </trkpt>
      <trkpt lat="46.87568" lon="8.47575">
        <ele>2041</ele>
        <time>2021-08-11T13:36:45.698Z</time>
      </trkpt>
      <trkpt lat="46.87568" lon="8.47575">
        <ele>2041</ele>
        <time>2021-08-11T13:36:46.698Z</time>
      </trkpt>
      <trkpt lat="46.87568" lon="8.47575">
        <ele>2041</ele>
        <time>2021-08-11T13:36:47.697Z</time>
      </trkpt>
      <trkpt lat="46.87567" lon="8.47575">
        <ele>2044</ele>
        <time>2021-08-11T13:36:48.699Z</time>
      </trkpt>
      <trkpt lat="46.87567" lon="8.47576">
        <ele>2044</ele>
        <time>2021-08-11T13:36:49.698Z</time>
      </trkpt>
      <trkpt lat="46.87567" lon="8.47577">
        <ele>2047</ele>
        <time>2021-08-11T13:36:50.700Z</time>
      </trkpt>
      <trkpt lat="46.87567" lon="8.47577">
        <ele>2046</ele>
        <time>2021-08-11T13:36:51.700Z</time>
      </trkpt>
      <trkpt lat="46.87567" lon="8.47577">
        <ele>2046</ele>
        <time>2021-08-11T13:36:52.700Z</time>
      </trkpt>
      <trkpt lat="46.87567" lon="8.47576">
        <ele>2046</ele>
        <time>2021-08-11T13:36:53.700Z</time>
      </trkpt>
      <trkpt lat="46.87569" lon="8.47575">
        <ele>2037</ele>
        <time>2021-08-11T13:36:54.701Z</time>
      </trkpt>
      <trkpt lat="46.87569" lon="8.47575">
        <ele>2036</ele>
        <time>2021-08-11T13:36:55.701Z</time>
      </trkpt>
      <trkpt lat="46.8757" lon="8.47579">
        <ele>2028</ele>
        <time>2021-08-11T13:36:56.701Z</time>
      </trkpt>
      <trkpt lat="46.87571" lon="8.47578">
        <ele>2027</ele>
        <time>2021-08-11T13:36:57.700Z</time>
      </trkpt>
      <trkpt lat="46.8757" lon="8.47578">
        <ele>2027</ele>
        <time>2021-08-11T13:36:58.700Z</time>
      </trkpt>
      <trkpt lat="46.87569" lon="8.47577">
        <ele>2026</ele>
        <time>2021-08-11T13:36:59.701Z</time>
      </trkpt>
      <trkpt lat="46.87569" lon="8.47576">
        <ele>2026</ele>
        <time>2021-08-11T13:37:00.701Z</time>
      </trkpt>
      <trkpt lat="46.87569" lon="8.47576">
        <ele>2023</ele>
        <time>2021-08-11T13:37:01.700Z</time>
      </trkpt>
      <trkpt lat="46.8757" lon="8.47576">
        <ele>2023</ele>
        <time>2021-08-11T13:37:02.701Z</time>
      </trkpt>
      <trkpt lat="46.8757" lon="8.47576">
        <ele>2023</ele>
        <time>2021-08-11T13:37:03.700Z</time>
      </trkpt>
      <trkpt lat="46.87571" lon="8.47577">
        <ele>2023</ele>
        <time>2021-08-11T13:37:04.700Z</time>
      </trkpt>
      <trkpt lat="46.87571" lon="8.47577">
        <ele>2023</ele>
        <time>2021-08-11T13:37:05.701Z</time>
      </trkpt>
      <trkpt lat="46.87571" lon="8.47577">
        <ele>2025</ele>
        <time>2021-08-11T13:37:06.700Z</time>
      </trkpt>
      <trkpt lat="46.87569" lon="8.47576">
        <ele>2031</ele>
        <time>2021-08-11T13:37:07.701Z</time>
      </trkpt>
      <trkpt lat="46.87569" lon="8.47576">
        <ele>2031</ele>
        <time>2021-08-11T13:37:08.701Z</time>
      </trkpt>
      <trkpt lat="46.87569" lon="8.47575">
        <ele>2031</ele>
        <time>2021-08-11T13:37:09.700Z</time>
      </trkpt>
      <trkpt lat="46.8757" lon="8.47576">
        <ele>2031</ele>
        <time>2021-08-11T13:37:10.701Z</time>
      </trkpt>
      <trkpt lat="46.87569" lon="8.47577">
        <ele>2031</ele>
        <time>2021-08-11T13:37:11.701Z</time>
      </trkpt>
      <trkpt lat="46.87569" lon="8.47577">
        <ele>2031</ele>
        <time>2021-08-11T13:37:12.700Z</time>
      </trkpt>
      <trkpt lat="46.8757" lon="8.47577">
        <ele>2034</ele>
        <time>2021-08-11T13:37:13.700Z</time>
      </trkpt>
      <trkpt lat="46.8757" lon="8.47577">
        <ele>2034</ele>
        <time>2021-08-11T13:37:14.700Z</time>
      </trkpt>
      <trkpt lat="46.8757" lon="8.47577">
        <ele>2034</ele>
        <time>2021-08-11T13:37:15.700Z</time>
      </trkpt>
      <trkpt lat="46.87569" lon="8.47577">
        <ele>2033</ele>
        <time>2021-08-11T13:37:16.701Z</time>
      </trkpt>
      <trkpt lat="46.87569" lon="8.47577">
        <ele>2033</ele>
        <time>2021-08-11T13:37:17.700Z</time>
      </trkpt>
      <trkpt lat="46.87569" lon="8.47577">
        <ele>2032</ele>
        <time>2021-08-11T13:37:18.701Z</time>
      </trkpt>
      <trkpt lat="46.8757" lon="8.47576">
        <ele>2032</ele>
        <time>2021-08-11T13:37:19.701Z</time>
      </trkpt>
      <trkpt lat="46.8757" lon="8.47576">
        <ele>2032</ele>
        <time>2021-08-11T13:37:20.701Z</time>
      </trkpt>
      <trkpt lat="46.87574" lon="8.47579">
        <ele>2037</ele>
        <time>2021-08-11T13:37:21.701Z</time>
      </trkpt>
      <trkpt lat="46.87573" lon="8.47579">
        <ele>2037</ele>
        <time>2021-08-11T13:37:22.701Z</time>
      </trkpt>
      <trkpt lat="46.87573" lon="8.47579">
        <ele>2038</ele>
        <time>2021-08-11T13:37:27.700Z</time>
      </trkpt>
      <trkpt lat="46.87574" lon="8.47579">
        <ele>2038</ele>
        <time>2021-08-11T13:37:28.701Z</time>
      </trkpt>
      <trkpt lat="46.87575" lon="8.47579">
        <ele>2038</ele>
        <time>2021-08-11T13:37:29.701Z</time>
      </trkpt>
      <trkpt lat="46.87573" lon="8.47579">
        <ele>2039</ele>
        <time>2021-08-11T13:37:30.700Z</time>
      </trkpt>
      <trkpt lat="46.87572" lon="8.47579">
        <ele>2039</ele>
        <time>2021-08-11T13:37:31.701Z</time>
      </trkpt>
      <trkpt lat="46.87572" lon="8.47579">
        <ele>2039</ele>
        <time>2021-08-11T13:37:32.701Z</time>
      </trkpt>
      <trkpt lat="46.87573" lon="8.47578">
        <ele>2038</ele>
        <time>2021-08-11T13:37:33.700Z</time>
      </trkpt>
      <trkpt lat="46.87573" lon="8.47577">
        <ele>2038</ele>
        <time>2021-08-11T13:37:34.700Z</time>
      </trkpt>
      <trkpt lat="46.87574" lon="8.47576">
        <ele>2038</ele>
        <time>2021-08-11T13:37:35.700Z</time>
      </trkpt>
      <trkpt lat="46.87573" lon="8.47575">
        <ele>2037</ele>
        <time>2021-08-11T13:37:36.701Z</time>
      </trkpt>
      <trkpt lat="46.87572" lon="8.47576">
        <ele>2036</ele>
        <time>2021-08-11T13:37:37.700Z</time>
      </trkpt>
      <trkpt lat="46.8757" lon="8.47578">
        <ele>2035</ele>
        <time>2021-08-11T13:37:39.670Z</time>
      </trkpt>
      <trkpt lat="46.87569" lon="8.47578">
        <ele>2034</ele>
        <time>2021-08-11T13:37:40.670Z</time>
      </trkpt>
      <trkpt lat="46.8757" lon="8.47578">
        <ele>2033</ele>
        <time>2021-08-11T13:37:41.669Z</time>
      </trkpt>
      <trkpt lat="46.8757" lon="8.47578">
        <ele>2033</ele>
        <time>2021-08-11T13:37:42.670Z</time>
      </trkpt>
      <trkpt lat="46.8757" lon="8.47578">
        <ele>2032</ele>
        <time>2021-08-11T13:37:43.670Z</time>
      </trkpt>
      <trkpt lat="46.87571" lon="8.47578">
        <ele>2032</ele>
        <time>2021-08-11T13:37:44.669Z</time>
      </trkpt>
      <trkpt lat="46.87571" lon="8.47578">
        <ele>2031</ele>
        <time>2021-08-11T13:37:45.669Z</time>
      </trkpt>
      <trkpt lat="46.87571" lon="8.47579">
        <ele>2031</ele>
        <time>2021-08-11T13:37:46.670Z</time>
      </trkpt>
      <trkpt lat="46.87571" lon="8.47578">
        <ele>2031</ele>
        <time>2021-08-11T13:37:47.670Z</time>
      </trkpt>
      <trkpt lat="46.8757" lon="8.47578">
        <ele>2032</ele>
        <time>2021-08-11T13:37:48.670Z</time>
      </trkpt>
      <trkpt lat="46.8757" lon="8.47578">
        <ele>2032</ele>
        <time>2021-08-11T13:37:49.670Z</time>
      </trkpt>
      <trkpt lat="46.8757" lon="8.47578">
        <ele>2033</ele>
        <time>2021-08-11T13:37:50.670Z</time>
      </trkpt>
      <trkpt lat="46.8757" lon="8.47578">
        <ele>2033</ele>
        <time>2021-08-11T13:37:51.670Z</time>
      </trkpt>
      <trkpt lat="46.8757" lon="8.47578">
        <ele>2034</ele>
        <time>2021-08-11T13:37:52.670Z</time>
      </trkpt>
      <trkpt lat="46.8757" lon="8.47578">
        <ele>2035</ele>
        <time>2021-08-11T13:37:53.670Z</time>
      </trkpt>
      <trkpt lat="46.8757" lon="8.47578">
        <ele>2035</ele>
        <time>2021-08-11T13:37:54.669Z</time>
      </trkpt>
      <trkpt lat="46.87571" lon="8.47577">
        <ele>2036</ele>
        <time>2021-08-11T13:37:55.670Z</time>
      </trkpt>
      <trkpt lat="46.87571" lon="8.47577">
        <ele>2036</ele>
        <time>2021-08-11T13:37:56.670Z</time>
      </trkpt>
      <trkpt lat="46.87571" lon="8.47577">
        <ele>2037</ele>
        <time>2021-08-11T13:37:57.670Z</time>
      </trkpt>
      <trkpt lat="46.87571" lon="8.47576">
        <ele>2037</ele>
        <time>2021-08-11T13:37:58.670Z</time>
      </trkpt>
      <trkpt lat="46.87571" lon="8.47575">
        <ele>2038</ele>
        <time>2021-08-11T13:37:59.669Z</time>
      </trkpt>
      <trkpt lat="46.8757" lon="8.47575">
        <ele>2038</ele>
        <time>2021-08-11T13:38:00.670Z</time>
      </trkpt>
      <trkpt lat="46.8757" lon="8.47574">
        <ele>2038</ele>
        <time>2021-08-11T13:38:01.670Z</time>
      </trkpt>
      <trkpt lat="46.8757" lon="8.47573">
        <ele>2038</ele>
        <time>2021-08-11T13:38:02.669Z</time>
      </trkpt>
      <trkpt lat="46.87569" lon="8.47572">
        <ele>2038</ele>
        <time>2021-08-11T13:38:03.670Z</time>
      </trkpt>
      <trkpt lat="46.87569" lon="8.47572">
        <ele>2038</ele>
        <time>2021-08-11T13:38:04.670Z</time>
      </trkpt>
      <trkpt lat="46.87569" lon="8.47571">
        <ele>2038</ele>
        <time>2021-08-11T13:38:05.670Z</time>
      </trkpt>
      <trkpt lat="46.87568" lon="8.47571">
        <ele>2038</ele>
        <time>2021-08-11T13:38:06.670Z</time>
      </trkpt>
      <trkpt lat="46.87568" lon="8.4757">
        <ele>2037</ele>
        <time>2021-08-11T13:38:07.669Z</time>
      </trkpt>
      <trkpt lat="46.87568" lon="8.4757">
        <ele>2036</ele>
        <time>2021-08-11T13:38:08.669Z</time>
      </trkpt>
      <trkpt lat="46.87567" lon="8.4757">
        <ele>2035</ele>
        <time>2021-08-11T13:38:09.669Z</time>
      </trkpt>
      <trkpt lat="46.87567" lon="8.47571">
        <ele>2035</ele>
        <time>2021-08-11T13:38:10.670Z</time>
      </trkpt>
      <trkpt lat="46.87567" lon="8.47571">
        <ele>2036</ele>
        <time>2021-08-11T13:38:11.670Z</time>
      </trkpt>
      <trkpt lat="46.87565" lon="8.47571">
        <ele>2047</ele>
        <time>2021-08-11T13:38:12.671Z</time>
      </trkpt>
      <trkpt lat="46.87565" lon="8.47571">
        <ele>2047</ele>
        <time>2021-08-11T13:38:13.671Z</time>
      </trkpt>
      <trkpt lat="46.87565" lon="8.47571">
        <ele>2048</ele>
        <time>2021-08-11T13:38:14.671Z</time>
      </trkpt>
      <trkpt lat="46.87565" lon="8.47571">
        <ele>2048</ele>
        <time>2021-08-11T13:38:15.671Z</time>
      </trkpt>
      <trkpt lat="46.87564" lon="8.4757">
        <ele>2049</ele>
        <time>2021-08-11T13:38:16.671Z</time>
      </trkpt>
      <trkpt lat="46.87564" lon="8.47569">
        <ele>2049</ele>
        <time>2021-08-11T13:38:17.670Z</time>
      </trkpt>
      <trkpt lat="46.87564" lon="8.47569">
        <ele>2048</ele>
        <time>2021-08-11T13:38:18.670Z</time>
      </trkpt>
      <trkpt lat="46.87565" lon="8.47569">
        <ele>2048</ele>
        <time>2021-08-11T13:38:19.670Z</time>
      </trkpt>
      <trkpt lat="46.87566" lon="8.47568">
        <ele>2045</ele>
        <time>2021-08-11T13:38:20.671Z</time>
      </trkpt>
      <trkpt lat="46.87566" lon="8.47568">
        <ele>2045</ele>
        <time>2021-08-11T13:38:21.671Z</time>
      </trkpt>
      <trkpt lat="46.87566" lon="8.47568">
        <ele>2044</ele>
        <time>2021-08-11T13:38:22.671Z</time>
      </trkpt>
      <trkpt lat="46.87565" lon="8.47567">
        <ele>2040</ele>
        <time>2021-08-11T13:38:23.672Z</time>
      </trkpt>
      <trkpt lat="46.87567" lon="8.47565">
        <ele>2043</ele>
        <time>2021-08-11T13:38:24.672Z</time>
      </trkpt>
      <trkpt lat="46.87567" lon="8.47565">
        <ele>2042</ele>
        <time>2021-08-11T13:38:25.671Z</time>
      </trkpt>
      <trkpt lat="46.87566" lon="8.47564">
        <ele>2042</ele>
        <time>2021-08-11T13:38:26.671Z</time>
      </trkpt>
      <trkpt lat="46.87565" lon="8.47564">
        <ele>2041</ele>
        <time>2021-08-11T13:38:27.671Z</time>
      </trkpt>
      <trkpt lat="46.87565" lon="8.47563">
        <ele>2041</ele>
        <time>2021-08-11T13:38:28.672Z</time>
      </trkpt>
      <trkpt lat="46.87565" lon="8.47563">
        <ele>2041</ele>
        <time>2021-08-11T13:38:29.672Z</time>
      </trkpt>
      <trkpt lat="46.87564" lon="8.47562">
        <ele>2041</ele>
        <time>2021-08-11T13:38:30.672Z</time>
      </trkpt>
      <trkpt lat="46.87563" lon="8.47561">
        <ele>2042</ele>
        <time>2021-08-11T13:38:31.672Z</time>
      </trkpt>
      <trkpt lat="46.87562" lon="8.47559">
        <ele>2042</ele>
        <time>2021-08-11T13:38:32.672Z</time>
      </trkpt>
      <trkpt lat="46.87562" lon="8.47558">
        <ele>2042</ele>
        <time>2021-08-11T13:38:33.671Z</time>
      </trkpt>
      <trkpt lat="46.87561" lon="8.47557">
        <ele>2041</ele>
        <time>2021-08-11T13:38:34.672Z</time>
      </trkpt>
      <trkpt lat="46.87561" lon="8.47556">
        <ele>2042</ele>
        <time>2021-08-11T13:38:35.672Z</time>
      </trkpt>
      <trkpt lat="46.87561" lon="8.47556">
        <ele>2042</ele>
        <time>2021-08-11T13:38:36.672Z</time>
      </trkpt>
      <trkpt lat="46.87561" lon="8.47555">
        <ele>2042</ele>
        <time>2021-08-11T13:38:37.671Z</time>
      </trkpt>
      <trkpt lat="46.87561" lon="8.47554">
        <ele>2043</ele>
        <time>2021-08-11T13:38:38.671Z</time>
      </trkpt>
      <trkpt lat="46.87561" lon="8.47554">
        <ele>2043</ele>
        <time>2021-08-11T13:38:39.672Z</time>
      </trkpt>
      <trkpt lat="46.87561" lon="8.47549">
        <ele>2034</ele>
        <time>2021-08-11T13:38:40.674Z</time>
      </trkpt>
      <trkpt lat="46.8756" lon="8.47548">
        <ele>2035</ele>
        <time>2021-08-11T13:38:41.674Z</time>
      </trkpt>
      <trkpt lat="46.8756" lon="8.47548">
        <ele>2035</ele>
        <time>2021-08-11T13:38:42.673Z</time>
      </trkpt>
      <trkpt lat="46.87559" lon="8.47547">
        <ele>2035</ele>
        <time>2021-08-11T13:38:43.673Z</time>
      </trkpt>
      <trkpt lat="46.87559" lon="8.47547">
        <ele>2035</ele>
        <time>2021-08-11T13:38:44.674Z</time>
      </trkpt>
      <trkpt lat="46.87558" lon="8.47546">
        <ele>2035</ele>
        <time>2021-08-11T13:38:45.674Z</time>
      </trkpt>
      <trkpt lat="46.87558" lon="8.47545">
        <ele>2035</ele>
        <time>2021-08-11T13:38:46.674Z</time>
      </trkpt>
      <trkpt lat="46.87558" lon="8.47544">
        <ele>2035</ele>
        <time>2021-08-11T13:38:47.674Z</time>
      </trkpt>
      <trkpt lat="46.87557" lon="8.47543">
        <ele>2035</ele>
        <time>2021-08-11T13:38:48.673Z</time>
      </trkpt>
      <trkpt lat="46.87557" lon="8.47543">
        <ele>2035</ele>
        <time>2021-08-11T13:38:49.674Z</time>
      </trkpt>
      <trkpt lat="46.87557" lon="8.47543">
        <ele>2035</ele>
        <time>2021-08-11T13:38:50.674Z</time>
      </trkpt>
      <trkpt lat="46.87557" lon="8.47542">
        <ele>2036</ele>
        <time>2021-08-11T13:38:51.674Z</time>
      </trkpt>
      <trkpt lat="46.87556" lon="8.47542">
        <ele>2037</ele>
        <time>2021-08-11T13:38:52.673Z</time>
      </trkpt>
      <trkpt lat="46.87556" lon="8.47542">
        <ele>2042</ele>
        <time>2021-08-11T13:38:53.674Z</time>
      </trkpt>
      <trkpt lat="46.87556" lon="8.47542">
        <ele>2042</ele>
        <time>2021-08-11T13:38:54.673Z</time>
      </trkpt>
      <trkpt lat="46.87555" lon="8.47541">
        <ele>2041</ele>
        <time>2021-08-11T13:38:57.690Z</time>
      </trkpt>
      <trkpt lat="46.87554" lon="8.4754">
        <ele>2037</ele>
        <time>2021-08-11T13:38:58.691Z</time>
      </trkpt>
      <trkpt lat="46.87554" lon="8.4754">
        <ele>2037</ele>
        <time>2021-08-11T13:38:59.691Z</time>
      </trkpt>
      <trkpt lat="46.87555" lon="8.47539">
        <ele>2037</ele>
        <time>2021-08-11T13:39:00.690Z</time>
      </trkpt>
      <trkpt lat="46.87555" lon="8.47539">
        <ele>2037</ele>
        <time>2021-08-11T13:39:01.691Z</time>
      </trkpt>
      <trkpt lat="46.87557" lon="8.47537">
        <ele>2037</ele>
        <time>2021-08-11T13:39:02.692Z</time>
      </trkpt>
      <trkpt lat="46.87557" lon="8.47536">
        <ele>2037</ele>
        <time>2021-08-11T13:39:03.692Z</time>
      </trkpt>
      <trkpt lat="46.87556" lon="8.47536">
        <ele>2043</ele>
        <time>2021-08-11T13:39:04.691Z</time>
      </trkpt>
      <trkpt lat="46.87557" lon="8.47536">
        <ele>2043</ele>
        <time>2021-08-11T13:39:05.692Z</time>
      </trkpt>
      <trkpt lat="46.87557" lon="8.47535">
        <ele>2044</ele>
        <time>2021-08-11T13:39:06.691Z</time>
      </trkpt>
      <trkpt lat="46.87558" lon="8.47535">
        <ele>2044</ele>
        <time>2021-08-11T13:39:07.692Z</time>
      </trkpt>
      <trkpt lat="46.87558" lon="8.47534">
        <ele>2045</ele>
        <time>2021-08-11T13:39:08.692Z</time>
      </trkpt>
      <trkpt lat="46.87559" lon="8.47533">
        <ele>2046</ele>
        <time>2021-08-11T13:39:09.692Z</time>
      </trkpt>
      <trkpt lat="46.8756" lon="8.47533">
        <ele>2046</ele>
        <time>2021-08-11T13:39:10.691Z</time>
      </trkpt>
      <trkpt lat="46.87561" lon="8.47532">
        <ele>2047</ele>
        <time>2021-08-11T13:39:11.691Z</time>
      </trkpt>
      <trkpt lat="46.87561" lon="8.47531">
        <ele>2047</ele>
        <time>2021-08-11T13:39:12.692Z</time>
      </trkpt>
      <trkpt lat="46.87561" lon="8.47531">
        <ele>2046</ele>
        <time>2021-08-11T13:39:13.692Z</time>
      </trkpt>
      <trkpt lat="46.87562" lon="8.4753">
        <ele>2046</ele>
        <time>2021-08-11T13:39:14.691Z</time>
      </trkpt>
      <trkpt lat="46.87562" lon="8.47529">
        <ele>2045</ele>
        <time>2021-08-11T13:39:15.692Z</time>
      </trkpt>
      <trkpt lat="46.87562" lon="8.47528">
        <ele>2045</ele>
        <time>2021-08-11T13:39:16.691Z</time>
      </trkpt>
      <trkpt lat="46.87562" lon="8.47526">
        <ele>2045</ele>
        <time>2021-08-11T13:39:17.692Z</time>
      </trkpt>
      <trkpt lat="46.87562" lon="8.47525">
        <ele>2044</ele>
        <time>2021-08-11T13:39:18.692Z</time>
      </trkpt>
      <trkpt lat="46.87562" lon="8.47525">
        <ele>2044</ele>
        <time>2021-08-11T13:39:19.691Z</time>
      </trkpt>
      <trkpt lat="46.87562" lon="8.47524">
        <ele>2043</ele>
        <time>2021-08-11T13:39:20.692Z</time>
      </trkpt>
      <trkpt lat="46.87562" lon="8.47522">
        <ele>2043</ele>
        <time>2021-08-11T13:39:21.692Z</time>
      </trkpt>
      <trkpt lat="46.87561" lon="8.47521">
        <ele>2043</ele>
        <time>2021-08-11T13:39:22.692Z</time>
      </trkpt>
      <trkpt lat="46.87561" lon="8.4752">
        <ele>2043</ele>
        <time>2021-08-11T13:39:23.691Z</time>
      </trkpt>
      <trkpt lat="46.87561" lon="8.47518">
        <ele>2043</ele>
        <time>2021-08-11T13:39:24.692Z</time>
      </trkpt>
      <trkpt lat="46.87562" lon="8.47517">
        <ele>2043</ele>
        <time>2021-08-11T13:39:25.692Z</time>
      </trkpt>
      <trkpt lat="46.87562" lon="8.47515">
        <ele>2043</ele>
        <time>2021-08-11T13:39:26.692Z</time>
      </trkpt>
      <trkpt lat="46.87562" lon="8.47514">
        <ele>2043</ele>
        <time>2021-08-11T13:39:27.692Z</time>
      </trkpt>
      <trkpt lat="46.87562" lon="8.47512">
        <ele>2043</ele>
        <time>2021-08-11T13:39:28.692Z</time>
      </trkpt>
      <trkpt lat="46.87562" lon="8.47511">
        <ele>2042</ele>
        <time>2021-08-11T13:39:29.691Z</time>
      </trkpt>
      <trkpt lat="46.87562" lon="8.4751">
        <ele>2042</ele>
        <time>2021-08-11T13:39:30.692Z</time>
      </trkpt>
      <trkpt lat="46.87563" lon="8.47508">
        <ele>2042</ele>
        <time>2021-08-11T13:39:31.692Z</time>
      </trkpt>
      <trkpt lat="46.87563" lon="8.47507">
        <ele>2043</ele>
        <time>2021-08-11T13:39:32.692Z</time>
      </trkpt>
      <trkpt lat="46.87563" lon="8.47506">
        <ele>2043</ele>
        <time>2021-08-11T13:39:33.692Z</time>
      </trkpt>
      <trkpt lat="46.87564" lon="8.47504">
        <ele>2043</ele>
        <time>2021-08-11T13:39:34.692Z</time>
      </trkpt>
      <trkpt lat="46.87564" lon="8.47503">
        <ele>2044</ele>
        <time>2021-08-11T13:39:35.691Z</time>
      </trkpt>
      <trkpt lat="46.87563" lon="8.47502">
        <ele>2044</ele>
        <time>2021-08-11T13:39:36.692Z</time>
      </trkpt>
      <trkpt lat="46.87564" lon="8.47501">
        <ele>2044</ele>
        <time>2021-08-11T13:39:37.692Z</time>
      </trkpt>
      <trkpt lat="46.87564" lon="8.475">
        <ele>2043</ele>
        <time>2021-08-11T13:39:38.691Z</time>
      </trkpt>
      <trkpt lat="46.87565" lon="8.47499">
        <ele>2043</ele>
        <time>2021-08-11T13:39:39.692Z</time>
      </trkpt>
      <trkpt lat="46.87566" lon="8.47498">
        <ele>2043</ele>
        <time>2021-08-11T13:39:40.691Z</time>
      </trkpt>
      <trkpt lat="46.87566" lon="8.47497">
        <ele>2043</ele>
        <time>2021-08-11T13:39:41.692Z</time>
      </trkpt>
      <trkpt lat="46.87566" lon="8.47495">
        <ele>2042</ele>
        <time>2021-08-11T13:39:42.692Z</time>
      </trkpt>
      <trkpt lat="46.87566" lon="8.47494">
        <ele>2042</ele>
        <time>2021-08-11T13:39:43.692Z</time>
      </trkpt>
      <trkpt lat="46.87567" lon="8.47493">
        <ele>2042</ele>
        <time>2021-08-11T13:39:44.692Z</time>
      </trkpt>
      <trkpt lat="46.87567" lon="8.47492">
        <ele>2041</ele>
        <time>2021-08-11T13:39:45.692Z</time>
      </trkpt>
      <trkpt lat="46.87568" lon="8.47491">
        <ele>2041</ele>
        <time>2021-08-11T13:39:46.692Z</time>
      </trkpt>
      <trkpt lat="46.87568" lon="8.4749">
        <ele>2041</ele>
        <time>2021-08-11T13:39:47.692Z</time>
      </trkpt>
      <trkpt lat="46.87568" lon="8.47489">
        <ele>2040</ele>
        <time>2021-08-11T13:39:48.692Z</time>
      </trkpt>
      <trkpt lat="46.87568" lon="8.47488">
        <ele>2040</ele>
        <time>2021-08-11T13:39:49.692Z</time>
      </trkpt>
      <trkpt lat="46.87568" lon="8.47488">
        <ele>2040</ele>
        <time>2021-08-11T13:39:50.691Z</time>
      </trkpt>
      <trkpt lat="46.87568" lon="8.47487">
        <ele>2040</ele>
        <time>2021-08-11T13:39:51.691Z</time>
      </trkpt>
      <trkpt lat="46.87568" lon="8.47487">
        <ele>2040</ele>
        <time>2021-08-11T13:39:52.692Z</time>
      </trkpt>
      <trkpt lat="46.87568" lon="8.47487">
        <ele>2040</ele>
        <time>2021-08-11T13:39:53.692Z</time>
      </trkpt>
      <trkpt lat="46.87568" lon="8.47486">
        <ele>2040</ele>
        <time>2021-08-11T13:39:54.692Z</time>
      </trkpt>
      <trkpt lat="46.87569" lon="8.47485">
        <ele>2040</ele>
        <time>2021-08-11T13:39:55.692Z</time>
      </trkpt>
      <trkpt lat="46.87569" lon="8.47485">
        <ele>2040</ele>
        <time>2021-08-11T13:39:56.691Z</time>
      </trkpt>
      <trkpt lat="46.87569" lon="8.47484">
        <ele>2040</ele>
        <time>2021-08-11T13:39:57.692Z</time>
      </trkpt>
      <trkpt lat="46.87569" lon="8.47483">
        <ele>2039</ele>
        <time>2021-08-11T13:39:58.692Z</time>
      </trkpt>
      <trkpt lat="46.87568" lon="8.47482">
        <ele>2039</ele>
        <time>2021-08-11T13:39:59.692Z</time>
      </trkpt>
      <trkpt lat="46.87568" lon="8.47482">
        <ele>2039</ele>
        <time>2021-08-11T13:40:00.692Z</time>
      </trkpt>
      <trkpt lat="46.87568" lon="8.47481">
        <ele>2038</ele>
        <time>2021-08-11T13:40:01.691Z</time>
      </trkpt>
      <trkpt lat="46.87568" lon="8.4748">
        <ele>2038</ele>
        <time>2021-08-11T13:40:02.692Z</time>
      </trkpt>
      <trkpt lat="46.87567" lon="8.4748">
        <ele>2038</ele>
        <time>2021-08-11T13:40:03.692Z</time>
      </trkpt>
      <trkpt lat="46.87567" lon="8.47479">
        <ele>2037</ele>
        <time>2021-08-11T13:40:04.692Z</time>
      </trkpt>
      <trkpt lat="46.87567" lon="8.47478">
        <ele>2037</ele>
        <time>2021-08-11T13:40:05.692Z</time>
      </trkpt>
      <trkpt lat="46.87567" lon="8.47478">
        <ele>2038</ele>
        <time>2021-08-11T13:40:06.692Z</time>
      </trkpt>
      <trkpt lat="46.87567" lon="8.47477">
        <ele>2038</ele>
        <time>2021-08-11T13:40:07.691Z</time>
      </trkpt>
      <trkpt lat="46.87567" lon="8.47477">
        <ele>2038</ele>
        <time>2021-08-11T13:40:08.692Z</time>
      </trkpt>
      <trkpt lat="46.87567" lon="8.47476">
        <ele>2038</ele>
        <time>2021-08-11T13:40:09.692Z</time>
      </trkpt>
      <trkpt lat="46.87567" lon="8.47475">
        <ele>2038</ele>
        <time>2021-08-11T13:40:10.691Z</time>
      </trkpt>
      <trkpt lat="46.87566" lon="8.47475">
        <ele>2038</ele>
        <time>2021-08-11T13:40:11.691Z</time>
      </trkpt>
      <trkpt lat="46.87566" lon="8.47474">
        <ele>2037</ele>
        <time>2021-08-11T13:40:12.691Z</time>
      </trkpt>
      <trkpt lat="46.87566" lon="8.47473">
        <ele>2037</ele>
        <time>2021-08-11T13:40:13.692Z</time>
      </trkpt>
      <trkpt lat="46.87566" lon="8.47473">
        <ele>2037</ele>
        <time>2021-08-11T13:40:14.692Z</time>
      </trkpt>
      <trkpt lat="46.87566" lon="8.47473">
        <ele>2037</ele>
        <time>2021-08-11T13:40:15.692Z</time>
      </trkpt>
      <trkpt lat="46.87565" lon="8.47472">
        <ele>2037</ele>
        <time>2021-08-11T13:40:16.693Z</time>
      </trkpt>
      <trkpt lat="46.87565" lon="8.47471">
        <ele>2037</ele>
        <time>2021-08-11T13:40:17.693Z</time>
      </trkpt>
      <trkpt lat="46.87565" lon="8.4747">
        <ele>2038</ele>
        <time>2021-08-11T13:40:18.692Z</time>
      </trkpt>
      <trkpt lat="46.87565" lon="8.47469">
        <ele>2038</ele>
        <time>2021-08-11T13:40:19.693Z</time>
      </trkpt>
      <trkpt lat="46.87565" lon="8.47468">
        <ele>2038</ele>
        <time>2021-08-11T13:40:20.693Z</time>
      </trkpt>
      <trkpt lat="46.87565" lon="8.47467">
        <ele>2039</ele>
        <time>2021-08-11T13:40:21.692Z</time>
      </trkpt>
      <trkpt lat="46.87565" lon="8.47467">
        <ele>2039</ele>
        <time>2021-08-11T13:40:22.692Z</time>
      </trkpt>
      <trkpt lat="46.87565" lon="8.47466">
        <ele>2040</ele>
        <time>2021-08-11T13:40:23.693Z</time>
      </trkpt>
      <trkpt lat="46.87565" lon="8.47465">
        <ele>2040</ele>
        <time>2021-08-11T13:40:24.693Z</time>
      </trkpt>
      <trkpt lat="46.87565" lon="8.47463">
        <ele>2041</ele>
        <time>2021-08-11T13:40:25.693Z</time>
      </trkpt>
      <trkpt lat="46.87564" lon="8.47462">
        <ele>2041</ele>
        <time>2021-08-11T13:40:26.693Z</time>
      </trkpt>
      <trkpt lat="46.87564" lon="8.47461">
        <ele>2041</ele>
        <time>2021-08-11T13:40:27.692Z</time>
      </trkpt>
      <trkpt lat="46.87563" lon="8.47461">
        <ele>2040</ele>
        <time>2021-08-11T13:40:28.692Z</time>
      </trkpt>
      <trkpt lat="46.87562" lon="8.4746">
        <ele>2040</ele>
        <time>2021-08-11T13:40:29.693Z</time>
      </trkpt>
      <trkpt lat="46.87562" lon="8.4746">
        <ele>2040</ele>
        <time>2021-08-11T13:40:30.693Z</time>
      </trkpt>
      <trkpt lat="46.87561" lon="8.47459">
        <ele>2039</ele>
        <time>2021-08-11T13:40:31.693Z</time>
      </trkpt>
      <trkpt lat="46.87561" lon="8.47459">
        <ele>2039</ele>
        <time>2021-08-11T13:40:32.692Z</time>
      </trkpt>
      <trkpt lat="46.87561" lon="8.47458">
        <ele>2039</ele>
        <time>2021-08-11T13:40:33.693Z</time>
      </trkpt>
      <trkpt lat="46.87561" lon="8.47457">
        <ele>2039</ele>
        <time>2021-08-11T13:40:34.692Z</time>
      </trkpt>
      <trkpt lat="46.87561" lon="8.47457">
        <ele>2039</ele>
        <time>2021-08-11T13:40:35.692Z</time>
      </trkpt>
      <trkpt lat="46.87561" lon="8.47456">
        <ele>2038</ele>
        <time>2021-08-11T13:40:36.693Z</time>
      </trkpt>
      <trkpt lat="46.87562" lon="8.47455">
        <ele>2038</ele>
        <time>2021-08-11T13:40:37.693Z</time>
      </trkpt>
      <trkpt lat="46.87562" lon="8.47454">
        <ele>2038</ele>
        <time>2021-08-11T13:40:38.693Z</time>
      </trkpt>
      <trkpt lat="46.87561" lon="8.47452">
        <ele>2038</ele>
        <time>2021-08-11T13:40:39.693Z</time>
      </trkpt>
      <trkpt lat="46.8756" lon="8.47451">
        <ele>2038</ele>
        <time>2021-08-11T13:40:40.692Z</time>
      </trkpt>
      <trkpt lat="46.87559" lon="8.4745">
        <ele>2039</ele>
        <time>2021-08-11T13:40:41.693Z</time>
      </trkpt>
      <trkpt lat="46.87559" lon="8.47449">
        <ele>2039</ele>
        <time>2021-08-11T13:40:42.692Z</time>
      </trkpt>
      <trkpt lat="46.87559" lon="8.47449">
        <ele>2038</ele>
        <time>2021-08-11T13:40:43.693Z</time>
      </trkpt>
      <trkpt lat="46.87559" lon="8.47448">
        <ele>2038</ele>
        <time>2021-08-11T13:40:44.693Z</time>
      </trkpt>
      <trkpt lat="46.87558" lon="8.47448">
        <ele>2038</ele>
        <time>2021-08-11T13:40:45.692Z</time>
      </trkpt>
      <trkpt lat="46.87558" lon="8.47447">
        <ele>2038</ele>
        <time>2021-08-11T13:40:46.692Z</time>
      </trkpt>
      <trkpt lat="46.87557" lon="8.47446">
        <ele>2038</ele>
        <time>2021-08-11T13:40:47.693Z</time>
      </trkpt>
      <trkpt lat="46.87557" lon="8.47446">
        <ele>2039</ele>
        <time>2021-08-11T13:40:48.693Z</time>
      </trkpt>
      <trkpt lat="46.87557" lon="8.47445">
        <ele>2039</ele>
        <time>2021-08-11T13:40:49.693Z</time>
      </trkpt>
      <trkpt lat="46.87557" lon="8.47445">
        <ele>2039</ele>
        <time>2021-08-11T13:40:50.692Z</time>
      </trkpt>
      <trkpt lat="46.87557" lon="8.47445">
        <ele>2039</ele>
        <time>2021-08-11T13:40:51.692Z</time>
      </trkpt>
      <trkpt lat="46.87556" lon="8.47444">
        <ele>2040</ele>
        <time>2021-08-11T13:40:52.693Z</time>
      </trkpt>
      <trkpt lat="46.87557" lon="8.47443">
        <ele>2040</ele>
        <time>2021-08-11T13:40:53.693Z</time>
      </trkpt>
      <trkpt lat="46.87557" lon="8.47442">
        <ele>2040</ele>
        <time>2021-08-11T13:40:54.692Z</time>
      </trkpt>
      <trkpt lat="46.87557" lon="8.47441">
        <ele>2040</ele>
        <time>2021-08-11T13:40:55.692Z</time>
      </trkpt>
      <trkpt lat="46.87556" lon="8.47441">
        <ele>2040</ele>
        <time>2021-08-11T13:40:56.693Z</time>
      </trkpt>
      <trkpt lat="46.87556" lon="8.4744">
        <ele>2040</ele>
        <time>2021-08-11T13:40:57.693Z</time>
      </trkpt>
      <trkpt lat="46.87555" lon="8.47439">
        <ele>2041</ele>
        <time>2021-08-11T13:40:58.693Z</time>
      </trkpt>
      <trkpt lat="46.87555" lon="8.47439">
        <ele>2041</ele>
        <time>2021-08-11T13:40:59.692Z</time>
      </trkpt>
      <trkpt lat="46.87555" lon="8.47438">
        <ele>2041</ele>
        <time>2021-08-11T13:41:00.692Z</time>
      </trkpt>
      <trkpt lat="46.87555" lon="8.47437">
        <ele>2041</ele>
        <time>2021-08-11T13:41:01.693Z</time>
      </trkpt>
      <trkpt lat="46.87555" lon="8.47437">
        <ele>2041</ele>
        <time>2021-08-11T13:41:02.693Z</time>
      </trkpt>
      <trkpt lat="46.87555" lon="8.47436">
        <ele>2041</ele>
        <time>2021-08-11T13:41:03.692Z</time>
      </trkpt>
      <trkpt lat="46.87554" lon="8.47436">
        <ele>2041</ele>
        <time>2021-08-11T13:41:04.692Z</time>
      </trkpt>
      <trkpt lat="46.87554" lon="8.47435">
        <ele>2041</ele>
        <time>2021-08-11T13:41:05.693Z</time>
      </trkpt>
      <trkpt lat="46.87553" lon="8.47435">
        <ele>2041</ele>
        <time>2021-08-11T13:41:06.693Z</time>
      </trkpt>
      <trkpt lat="46.87554" lon="8.47435">
        <ele>2041</ele>
        <time>2021-08-11T13:41:07.693Z</time>
      </trkpt>
      <trkpt lat="46.87554" lon="8.47435">
        <ele>2041</ele>
        <time>2021-08-11T13:41:08.693Z</time>
      </trkpt>
      <trkpt lat="46.87554" lon="8.47434">
        <ele>2041</ele>
        <time>2021-08-11T13:41:09.693Z</time>
      </trkpt>
      <trkpt lat="46.87554" lon="8.47434">
        <ele>2040</ele>
        <time>2021-08-11T13:41:10.693Z</time>
      </trkpt>
      <trkpt lat="46.87554" lon="8.47433">
        <ele>2040</ele>
        <time>2021-08-11T13:41:11.693Z</time>
      </trkpt>
      <trkpt lat="46.87553" lon="8.47433">
        <ele>2040</ele>
        <time>2021-08-11T13:41:12.692Z</time>
      </trkpt>
      <trkpt lat="46.87553" lon="8.47432">
        <ele>2040</ele>
        <time>2021-08-11T13:41:13.693Z</time>
      </trkpt>
      <trkpt lat="46.87553" lon="8.47431">
        <ele>2040</ele>
        <time>2021-08-11T13:41:14.693Z</time>
      </trkpt>
      <trkpt lat="46.87553" lon="8.47431">
        <ele>2040</ele>
        <time>2021-08-11T13:41:15.693Z</time>
      </trkpt>
      <trkpt lat="46.87553" lon="8.4743">
        <ele>2040</ele>
        <time>2021-08-11T13:41:16.693Z</time>
      </trkpt>
      <trkpt lat="46.87553" lon="8.47429">
        <ele>2040</ele>
        <time>2021-08-11T13:41:17.692Z</time>
      </trkpt>
      <trkpt lat="46.87553" lon="8.47429">
        <ele>2040</ele>
        <time>2021-08-11T13:41:18.692Z</time>
      </trkpt>
      <trkpt lat="46.87552" lon="8.47428">
        <ele>2040</ele>
        <time>2021-08-11T13:41:19.693Z</time>
      </trkpt>
      <trkpt lat="46.87552" lon="8.47428">
        <ele>2040</ele>
        <time>2021-08-11T13:41:20.693Z</time>
      </trkpt>
      <trkpt lat="46.87552" lon="8.47427">
        <ele>2040</ele>
        <time>2021-08-11T13:41:21.692Z</time>
      </trkpt>
      <trkpt lat="46.87551" lon="8.47426">
        <ele>2041</ele>
        <time>2021-08-11T13:41:22.692Z</time>
      </trkpt>
      <trkpt lat="46.87551" lon="8.47426">
        <ele>2041</ele>
        <time>2021-08-11T13:41:23.692Z</time>
      </trkpt>
      <trkpt lat="46.87551" lon="8.47426">
        <ele>2042</ele>
        <time>2021-08-11T13:41:24.692Z</time>
      </trkpt>
      <trkpt lat="46.87551" lon="8.47425">
        <ele>2042</ele>
        <time>2021-08-11T13:41:25.693Z</time>
      </trkpt>
      <trkpt lat="46.8755" lon="8.47425">
        <ele>2042</ele>
        <time>2021-08-11T13:41:26.693Z</time>
      </trkpt>
      <trkpt lat="46.8755" lon="8.47427">
        <ele>2052</ele>
        <time>2021-08-11T13:41:27.694Z</time>
      </trkpt>
      <trkpt lat="46.8755" lon="8.47427">
        <ele>2053</ele>
        <time>2021-08-11T13:41:28.694Z</time>
      </trkpt>
      <trkpt lat="46.8755" lon="8.47428">
        <ele>2053</ele>
        <time>2021-08-11T13:41:29.693Z</time>
      </trkpt>
      <trkpt lat="46.8755" lon="8.4743">
        <ele>2052</ele>
        <time>2021-08-11T13:41:30.696Z</time>
      </trkpt>
      <trkpt lat="46.8755" lon="8.4743">
        <ele>2052</ele>
        <time>2021-08-11T13:41:31.696Z</time>
      </trkpt>
      <trkpt lat="46.87549" lon="8.4743">
        <ele>2052</ele>
        <time>2021-08-11T13:41:32.696Z</time>
      </trkpt>
      <trkpt lat="46.87549" lon="8.47429">
        <ele>2052</ele>
        <time>2021-08-11T13:41:33.696Z</time>
      </trkpt>
      <trkpt lat="46.87548" lon="8.47428">
        <ele>2050</ele>
        <time>2021-08-11T13:41:34.698Z</time>
      </trkpt>
      <trkpt lat="46.87548" lon="8.47428">
        <ele>2049</ele>
        <time>2021-08-11T13:41:35.698Z</time>
      </trkpt>
      <trkpt lat="46.87547" lon="8.47428">
        <ele>2048</ele>
        <time>2021-08-11T13:41:36.697Z</time>
      </trkpt>
      <trkpt lat="46.87547" lon="8.47428">
        <ele>2048</ele>
        <time>2021-08-11T13:41:37.698Z</time>
      </trkpt>
      <trkpt lat="46.87547" lon="8.47427">
        <ele>2048</ele>
        <time>2021-08-11T13:41:38.697Z</time>
      </trkpt>
      <trkpt lat="46.87547" lon="8.47426">
        <ele>2047</ele>
        <time>2021-08-11T13:41:39.698Z</time>
      </trkpt>
      <trkpt lat="46.87547" lon="8.47426">
        <ele>2047</ele>
        <time>2021-08-11T13:41:40.698Z</time>
      </trkpt>
      <trkpt lat="46.87546" lon="8.47425">
        <ele>2047</ele>
        <time>2021-08-11T13:41:41.698Z</time>
      </trkpt>
      <trkpt lat="46.87546" lon="8.47424">
        <ele>2047</ele>
        <time>2021-08-11T13:41:42.697Z</time>
      </trkpt>
      <trkpt lat="46.87546" lon="8.47423">
        <ele>2047</ele>
        <time>2021-08-11T13:41:43.698Z</time>
      </trkpt>
      <trkpt lat="46.87546" lon="8.47423">
        <ele>2047</ele>
        <time>2021-08-11T13:41:44.698Z</time>
      </trkpt>
      <trkpt lat="46.87546" lon="8.47422">
        <ele>2047</ele>
        <time>2021-08-11T13:41:45.698Z</time>
      </trkpt>
      <trkpt lat="46.87546" lon="8.47421">
        <ele>2047</ele>
        <time>2021-08-11T13:41:46.698Z</time>
      </trkpt>
      <trkpt lat="46.87546" lon="8.47421">
        <ele>2047</ele>
        <time>2021-08-11T13:41:47.697Z</time>
      </trkpt>
      <trkpt lat="46.87546" lon="8.4742">
        <ele>2048</ele>
        <time>2021-08-11T13:41:48.698Z</time>
      </trkpt>
      <trkpt lat="46.87546" lon="8.4742">
        <ele>2048</ele>
        <time>2021-08-11T13:41:49.698Z</time>
      </trkpt>
      <trkpt lat="46.87545" lon="8.4742">
        <ele>2049</ele>
        <time>2021-08-11T13:41:50.698Z</time>
      </trkpt>
      <trkpt lat="46.87545" lon="8.47419">
        <ele>2049</ele>
        <time>2021-08-11T13:41:51.698Z</time>
      </trkpt>
      <trkpt lat="46.87545" lon="8.47418">
        <ele>2050</ele>
        <time>2021-08-11T13:41:52.697Z</time>
      </trkpt>
      <trkpt lat="46.87545" lon="8.47418">
        <ele>2051</ele>
        <time>2021-08-11T13:41:53.698Z</time>
      </trkpt>
      <trkpt lat="46.87544" lon="8.47418">
        <ele>2051</ele>
        <time>2021-08-11T13:41:54.698Z</time>
      </trkpt>
      <trkpt lat="46.87544" lon="8.47417">
        <ele>2051</ele>
        <time>2021-08-11T13:41:55.698Z</time>
      </trkpt>
      <trkpt lat="46.87544" lon="8.47417">
        <ele>2051</ele>
        <time>2021-08-11T13:41:56.698Z</time>
      </trkpt>
      <trkpt lat="46.87544" lon="8.47416">
        <ele>2052</ele>
        <time>2021-08-11T13:41:57.698Z</time>
      </trkpt>
      <trkpt lat="46.87543" lon="8.47416">
        <ele>2052</ele>
        <time>2021-08-11T13:41:58.697Z</time>
      </trkpt>
      <trkpt lat="46.87543" lon="8.47415">
        <ele>2052</ele>
        <time>2021-08-11T13:41:59.698Z</time>
      </trkpt>
      <trkpt lat="46.87543" lon="8.47415">
        <ele>2052</ele>
        <time>2021-08-11T13:42:00.698Z</time>
      </trkpt>
      <trkpt lat="46.87542" lon="8.47414">
        <ele>2052</ele>
        <time>2021-08-11T13:42:01.698Z</time>
      </trkpt>
      <trkpt lat="46.87542" lon="8.47413">
        <ele>2052</ele>
        <time>2021-08-11T13:42:02.698Z</time>
      </trkpt>
      <trkpt lat="46.87542" lon="8.47412">
        <ele>2052</ele>
        <time>2021-08-11T13:42:03.698Z</time>
      </trkpt>
      <trkpt lat="46.87542" lon="8.47411">
        <ele>2053</ele>
        <time>2021-08-11T13:42:04.697Z</time>
      </trkpt>
      <trkpt lat="46.87542" lon="8.4741">
        <ele>2054</ele>
        <time>2021-08-11T13:42:05.698Z</time>
      </trkpt>
      <trkpt lat="46.87541" lon="8.4741">
        <ele>2054</ele>
        <time>2021-08-11T13:42:06.697Z</time>
      </trkpt>
      <trkpt lat="46.87541" lon="8.47409">
        <ele>2054</ele>
        <time>2021-08-11T13:42:07.698Z</time>
      </trkpt>
      <trkpt lat="46.87541" lon="8.47409">
        <ele>2055</ele>
        <time>2021-08-11T13:42:08.697Z</time>
      </trkpt>
      <trkpt lat="46.87541" lon="8.47408">
        <ele>2055</ele>
        <time>2021-08-11T13:42:09.698Z</time>
      </trkpt>
      <trkpt lat="46.87541" lon="8.47407">
        <ele>2055</ele>
        <time>2021-08-11T13:42:10.698Z</time>
      </trkpt>
      <trkpt lat="46.87541" lon="8.47406">
        <ele>2055</ele>
        <time>2021-08-11T13:42:11.698Z</time>
      </trkpt>
      <trkpt lat="46.87541" lon="8.47405">
        <ele>2055</ele>
        <time>2021-08-11T13:42:12.698Z</time>
      </trkpt>
      <trkpt lat="46.87541" lon="8.47405">
        <ele>2056</ele>
        <time>2021-08-11T13:42:13.697Z</time>
      </trkpt>
      <trkpt lat="46.8754" lon="8.47404">
        <ele>2056</ele>
        <time>2021-08-11T13:42:14.698Z</time>
      </trkpt>
      <trkpt lat="46.8754" lon="8.47404">
        <ele>2056</ele>
        <time>2021-08-11T13:42:15.698Z</time>
      </trkpt>
      <trkpt lat="46.8754" lon="8.47403">
        <ele>2056</ele>
        <time>2021-08-11T13:42:16.697Z</time>
      </trkpt>
      <trkpt lat="46.8754" lon="8.47403">
        <ele>2056</ele>
        <time>2021-08-11T13:42:17.698Z</time>
      </trkpt>
      <trkpt lat="46.8754" lon="8.47402">
        <ele>2056</ele>
        <time>2021-08-11T13:42:18.698Z</time>
      </trkpt>
      <trkpt lat="46.8754" lon="8.47402">
        <ele>2056</ele>
        <time>2021-08-11T13:42:19.698Z</time>
      </trkpt>
      <trkpt lat="46.87539" lon="8.47401">
        <ele>2056</ele>
        <time>2021-08-11T13:42:20.698Z</time>
      </trkpt>
      <trkpt lat="46.87539" lon="8.47401">
        <ele>2056</ele>
        <time>2021-08-11T13:42:21.697Z</time>
      </trkpt>
      <trkpt lat="46.8754" lon="8.474">
        <ele>2056</ele>
        <time>2021-08-11T13:42:22.697Z</time>
      </trkpt>
      <trkpt lat="46.87539" lon="8.47399">
        <ele>2056</ele>
        <time>2021-08-11T13:42:23.697Z</time>
      </trkpt>
      <trkpt lat="46.87538" lon="8.47398">
        <ele>2056</ele>
        <time>2021-08-11T13:42:24.697Z</time>
      </trkpt>
      <trkpt lat="46.87539" lon="8.47396">
        <ele>2056</ele>
        <time>2021-08-11T13:42:25.698Z</time>
      </trkpt>
      <trkpt lat="46.87539" lon="8.47396">
        <ele>2056</ele>
        <time>2021-08-11T13:42:26.698Z</time>
      </trkpt>
      <trkpt lat="46.87539" lon="8.47393">
        <ele>2059</ele>
        <time>2021-08-11T13:42:27.698Z</time>
      </trkpt>
      <trkpt lat="46.87538" lon="8.47392">
        <ele>2059</ele>
        <time>2021-08-11T13:42:28.698Z</time>
      </trkpt>
      <trkpt lat="46.87538" lon="8.47392">
        <ele>2058</ele>
        <time>2021-08-11T13:42:29.697Z</time>
      </trkpt>
      <trkpt lat="46.87538" lon="8.47391">
        <ele>2058</ele>
        <time>2021-08-11T13:42:30.697Z</time>
      </trkpt>
      <trkpt lat="46.87538" lon="8.4739">
        <ele>2058</ele>
        <time>2021-08-11T13:42:31.697Z</time>
      </trkpt>
      <trkpt lat="46.87538" lon="8.4739">
        <ele>2058</ele>
        <time>2021-08-11T13:42:32.698Z</time>
      </trkpt>
      <trkpt lat="46.87538" lon="8.47389">
        <ele>2058</ele>
        <time>2021-08-11T13:42:33.698Z</time>
      </trkpt>
      <trkpt lat="46.87538" lon="8.47388">
        <ele>2059</ele>
        <time>2021-08-11T13:42:34.698Z</time>
      </trkpt>
      <trkpt lat="46.87538" lon="8.47388">
        <ele>2060</ele>
        <time>2021-08-11T13:42:35.698Z</time>
      </trkpt>
      <trkpt lat="46.87539" lon="8.47387">
        <ele>2060</ele>
        <time>2021-08-11T13:42:36.697Z</time>
      </trkpt>
      <trkpt lat="46.87539" lon="8.47387">
        <ele>2061</ele>
        <time>2021-08-11T13:42:37.697Z</time>
      </trkpt>
      <trkpt lat="46.8754" lon="8.47388">
        <ele>2061</ele>
        <time>2021-08-11T13:42:38.698Z</time>
      </trkpt>
      <trkpt lat="46.87541" lon="8.47387">
        <ele>2061</ele>
        <time>2021-08-11T13:42:39.698Z</time>
      </trkpt>
      <trkpt lat="46.87541" lon="8.47386">
        <ele>2061</ele>
        <time>2021-08-11T13:42:40.698Z</time>
      </trkpt>
      <trkpt lat="46.87541" lon="8.47385">
        <ele>2061</ele>
        <time>2021-08-11T13:42:41.698Z</time>
      </trkpt>
      <trkpt lat="46.87541" lon="8.47384">
        <ele>2061</ele>
        <time>2021-08-11T13:42:42.698Z</time>
      </trkpt>
      <trkpt lat="46.8754" lon="8.47383">
        <ele>2061</ele>
        <time>2021-08-11T13:42:43.698Z</time>
      </trkpt>
      <trkpt lat="46.8754" lon="8.47382">
        <ele>2061</ele>
        <time>2021-08-11T13:42:44.697Z</time>
      </trkpt>
      <trkpt lat="46.87541" lon="8.47382">
        <ele>2061</ele>
        <time>2021-08-11T13:42:45.698Z</time>
      </trkpt>
      <trkpt lat="46.87541" lon="8.47381">
        <ele>2061</ele>
        <time>2021-08-11T13:42:46.698Z</time>
      </trkpt>
      <trkpt lat="46.87541" lon="8.4738">
        <ele>2060</ele>
        <time>2021-08-11T13:42:47.697Z</time>
      </trkpt>
      <trkpt lat="46.87541" lon="8.4738">
        <ele>2060</ele>
        <time>2021-08-11T13:42:48.698Z</time>
      </trkpt>
      <trkpt lat="46.87541" lon="8.47379">
        <ele>2060</ele>
        <time>2021-08-11T13:42:49.698Z</time>
      </trkpt>
      <trkpt lat="46.87541" lon="8.47378">
        <ele>2060</ele>
        <time>2021-08-11T13:42:50.698Z</time>
      </trkpt>
      <trkpt lat="46.87541" lon="8.47378">
        <ele>2059</ele>
        <time>2021-08-11T13:42:51.697Z</time>
      </trkpt>
      <trkpt lat="46.87541" lon="8.47377">
        <ele>2059</ele>
        <time>2021-08-11T13:42:52.698Z</time>
      </trkpt>
      <trkpt lat="46.87542" lon="8.47376">
        <ele>2059</ele>
        <time>2021-08-11T13:42:53.698Z</time>
      </trkpt>
      <trkpt lat="46.87543" lon="8.47375">
        <ele>2060</ele>
        <time>2021-08-11T13:42:54.698Z</time>
      </trkpt>
      <trkpt lat="46.87543" lon="8.47374">
        <ele>2060</ele>
        <time>2021-08-11T13:42:55.698Z</time>
      </trkpt>
      <trkpt lat="46.87543" lon="8.47374">
        <ele>2060</ele>
        <time>2021-08-11T13:42:56.697Z</time>
      </trkpt>
      <trkpt lat="46.87543" lon="8.47374">
        <ele>2061</ele>
        <time>2021-08-11T13:42:57.698Z</time>
      </trkpt>
      <trkpt lat="46.87543" lon="8.47374">
        <ele>2061</ele>
        <time>2021-08-11T13:42:58.698Z</time>
      </trkpt>
      <trkpt lat="46.87543" lon="8.47374">
        <ele>2061</ele>
        <time>2021-08-11T13:42:59.698Z</time>
      </trkpt>
      <trkpt lat="46.87543" lon="8.47373">
        <ele>2062</ele>
        <time>2021-08-11T13:43:00.697Z</time>
      </trkpt>
      <trkpt lat="46.87543" lon="8.47373">
        <ele>2062</ele>
        <time>2021-08-11T13:43:01.697Z</time>
      </trkpt>
      <trkpt lat="46.87543" lon="8.47372">
        <ele>2062</ele>
        <time>2021-08-11T13:43:02.698Z</time>
      </trkpt>
      <trkpt lat="46.87544" lon="8.47372">
        <ele>2060</ele>
        <time>2021-08-11T13:43:03.699Z</time>
      </trkpt>
      <trkpt lat="46.87544" lon="8.47372">
        <ele>2060</ele>
        <time>2021-08-11T13:43:04.699Z</time>
      </trkpt>
      <trkpt lat="46.87544" lon="8.47372">
        <ele>2060</ele>
        <time>2021-08-11T13:43:05.699Z</time>
      </trkpt>
      <trkpt lat="46.87543" lon="8.47371">
        <ele>2060</ele>
        <time>2021-08-11T13:43:06.699Z</time>
      </trkpt>
      <trkpt lat="46.87543" lon="8.47369">
        <ele>2060</ele>
        <time>2021-08-11T13:43:07.700Z</time>
      </trkpt>
      <trkpt lat="46.87542" lon="8.47368">
        <ele>2060</ele>
        <time>2021-08-11T13:43:08.700Z</time>
      </trkpt>
      <trkpt lat="46.8754" lon="8.47366">
        <ele>2063</ele>
        <time>2021-08-11T13:43:09.699Z</time>
      </trkpt>
      <trkpt lat="46.87539" lon="8.47366">
        <ele>2063</ele>
        <time>2021-08-11T13:43:10.700Z</time>
      </trkpt>
      <trkpt lat="46.87538" lon="8.47366">
        <ele>2063</ele>
        <time>2021-08-11T13:43:11.699Z</time>
      </trkpt>
      <trkpt lat="46.87537" lon="8.47366">
        <ele>2063</ele>
        <time>2021-08-11T13:43:12.700Z</time>
      </trkpt>
      <trkpt lat="46.87536" lon="8.47366">
        <ele>2063</ele>
        <time>2021-08-11T13:43:13.700Z</time>
      </trkpt>
      <trkpt lat="46.87535" lon="8.47365">
        <ele>2063</ele>
        <time>2021-08-11T13:43:14.700Z</time>
      </trkpt>
      <trkpt lat="46.87535" lon="8.47366">
        <ele>2063</ele>
        <time>2021-08-11T13:43:15.700Z</time>
      </trkpt>
      <trkpt lat="46.87535" lon="8.47366">
        <ele>2062</ele>
        <time>2021-08-11T13:43:16.700Z</time>
      </trkpt>
      <trkpt lat="46.87534" lon="8.47366">
        <ele>2062</ele>
        <time>2021-08-11T13:43:17.700Z</time>
      </trkpt>
      <trkpt lat="46.87534" lon="8.47367">
        <ele>2062</ele>
        <time>2021-08-11T13:43:18.699Z</time>
      </trkpt>
      <trkpt lat="46.87534" lon="8.47368">
        <ele>2061</ele>
        <time>2021-08-11T13:43:19.700Z</time>
      </trkpt>
      <trkpt lat="46.87535" lon="8.47369">
        <ele>2061</ele>
        <time>2021-08-11T13:43:20.700Z</time>
      </trkpt>
      <trkpt lat="46.87535" lon="8.4737">
        <ele>2061</ele>
        <time>2021-08-11T13:43:21.699Z</time>
      </trkpt>
      <trkpt lat="46.87535" lon="8.47371">
        <ele>2062</ele>
        <time>2021-08-11T13:43:22.700Z</time>
      </trkpt>
      <trkpt lat="46.87535" lon="8.47372">
        <ele>2062</ele>
        <time>2021-08-11T13:43:23.700Z</time>
      </trkpt>
      <trkpt lat="46.87535" lon="8.47372">
        <ele>2062</ele>
        <time>2021-08-11T13:43:24.700Z</time>
      </trkpt>
      <trkpt lat="46.87535" lon="8.47373">
        <ele>2061</ele>
        <time>2021-08-11T13:43:25.700Z</time>
      </trkpt>
      <trkpt lat="46.87535" lon="8.47374">
        <ele>2061</ele>
        <time>2021-08-11T13:43:26.700Z</time>
      </trkpt>
      <trkpt lat="46.87534" lon="8.47374">
        <ele>2062</ele>
        <time>2021-08-11T13:43:27.699Z</time>
      </trkpt>
      <trkpt lat="46.87534" lon="8.47375">
        <ele>2062</ele>
        <time>2021-08-11T13:43:28.700Z</time>
      </trkpt>
      <trkpt lat="46.87533" lon="8.47375">
        <ele>2062</ele>
        <time>2021-08-11T13:43:29.700Z</time>
      </trkpt>
      <trkpt lat="46.87532" lon="8.47376">
        <ele>2062</ele>
        <time>2021-08-11T13:43:30.700Z</time>
      </trkpt>
      <trkpt lat="46.87532" lon="8.47378">
        <ele>2062</ele>
        <time>2021-08-11T13:43:31.699Z</time>
      </trkpt>
      <trkpt lat="46.87531" lon="8.4738">
        <ele>2063</ele>
        <time>2021-08-11T13:43:32.699Z</time>
      </trkpt>
      <trkpt lat="46.87531" lon="8.47381">
        <ele>2064</ele>
        <time>2021-08-11T13:43:33.700Z</time>
      </trkpt>
      <trkpt lat="46.87531" lon="8.47382">
        <ele>2064</ele>
        <time>2021-08-11T13:43:34.700Z</time>
      </trkpt>
      <trkpt lat="46.87531" lon="8.47383">
        <ele>2065</ele>
        <time>2021-08-11T13:43:35.700Z</time>
      </trkpt>
      <trkpt lat="46.87531" lon="8.47383">
        <ele>2065</ele>
        <time>2021-08-11T13:43:36.700Z</time>
      </trkpt>
      <trkpt lat="46.87532" lon="8.47383">
        <ele>2065</ele>
        <time>2021-08-11T13:43:37.700Z</time>
      </trkpt>
      <trkpt lat="46.87532" lon="8.47383">
        <ele>2065</ele>
        <time>2021-08-11T13:43:38.699Z</time>
      </trkpt>
      <trkpt lat="46.87532" lon="8.47384">
        <ele>2066</ele>
        <time>2021-08-11T13:43:39.699Z</time>
      </trkpt>
      <trkpt lat="46.87532" lon="8.47385">
        <ele>2065</ele>
        <time>2021-08-11T13:43:40.700Z</time>
      </trkpt>
      <trkpt lat="46.87532" lon="8.47385">
        <ele>2065</ele>
        <time>2021-08-11T13:43:41.699Z</time>
      </trkpt>
      <trkpt lat="46.87532" lon="8.47385">
        <ele>2064</ele>
        <time>2021-08-11T13:43:42.700Z</time>
      </trkpt>
      <trkpt lat="46.87531" lon="8.47385">
        <ele>2064</ele>
        <time>2021-08-11T13:43:43.700Z</time>
      </trkpt>
      <trkpt lat="46.87531" lon="8.47385">
        <ele>2064</ele>
        <time>2021-08-11T13:43:44.700Z</time>
      </trkpt>
      <trkpt lat="46.8753" lon="8.47386">
        <ele>2063</ele>
        <time>2021-08-11T13:43:45.699Z</time>
      </trkpt>
      <trkpt lat="46.8753" lon="8.47386">
        <ele>2063</ele>
        <time>2021-08-11T13:43:46.699Z</time>
      </trkpt>
      <trkpt lat="46.8753" lon="8.47387">
        <ele>2062</ele>
        <time>2021-08-11T13:43:47.700Z</time>
      </trkpt>
      <trkpt lat="46.87529" lon="8.47388">
        <ele>2062</ele>
        <time>2021-08-11T13:43:48.699Z</time>
      </trkpt>
      <trkpt lat="46.87529" lon="8.47389">
        <ele>2061</ele>
        <time>2021-08-11T13:43:49.700Z</time>
      </trkpt>
      <trkpt lat="46.87529" lon="8.4739">
        <ele>2061</ele>
        <time>2021-08-11T13:43:50.700Z</time>
      </trkpt>
      <trkpt lat="46.87529" lon="8.4739">
        <ele>2060</ele>
        <time>2021-08-11T13:43:51.700Z</time>
      </trkpt>
      <trkpt lat="46.87529" lon="8.47391">
        <ele>2059</ele>
        <time>2021-08-11T13:43:52.699Z</time>
      </trkpt>
      <trkpt lat="46.87529" lon="8.47392">
        <ele>2059</ele>
        <time>2021-08-11T13:43:53.700Z</time>
      </trkpt>
      <trkpt lat="46.87529" lon="8.47392">
        <ele>2058</ele>
        <time>2021-08-11T13:43:54.700Z</time>
      </trkpt>
      <trkpt lat="46.87529" lon="8.47392">
        <ele>2057</ele>
        <time>2021-08-11T13:43:55.700Z</time>
      </trkpt>
      <trkpt lat="46.87528" lon="8.47393">
        <ele>2057</ele>
        <time>2021-08-11T13:43:56.700Z</time>
      </trkpt>
      <trkpt lat="46.87528" lon="8.47393">
        <ele>2057</ele>
        <time>2021-08-11T13:43:57.700Z</time>
      </trkpt>
      <trkpt lat="46.87528" lon="8.47394">
        <ele>2057</ele>
        <time>2021-08-11T13:43:58.700Z</time>
      </trkpt>
      <trkpt lat="46.87528" lon="8.47394">
        <ele>2058</ele>
        <time>2021-08-11T13:43:59.699Z</time>
      </trkpt>
      <trkpt lat="46.87527" lon="8.47395">
        <ele>2058</ele>
        <time>2021-08-11T13:44:00.700Z</time>
      </trkpt>
      <trkpt lat="46.87527" lon="8.47396">
        <ele>2058</ele>
        <time>2021-08-11T13:44:01.699Z</time>
      </trkpt>
      <trkpt lat="46.87527" lon="8.47396">
        <ele>2059</ele>
        <time>2021-08-11T13:44:02.699Z</time>
      </trkpt>
      <trkpt lat="46.87527" lon="8.47397">
        <ele>2059</ele>
        <time>2021-08-11T13:44:03.699Z</time>
      </trkpt>
      <trkpt lat="46.87527" lon="8.47398">
        <ele>2059</ele>
        <time>2021-08-11T13:44:04.699Z</time>
      </trkpt>
      <trkpt lat="46.87527" lon="8.47398">
        <ele>2060</ele>
        <time>2021-08-11T13:44:05.699Z</time>
      </trkpt>
      <trkpt lat="46.87527" lon="8.47399">
        <ele>2060</ele>
        <time>2021-08-11T13:44:06.699Z</time>
      </trkpt>
      <trkpt lat="46.87527" lon="8.47399">
        <ele>2060</ele>
        <time>2021-08-11T13:44:07.700Z</time>
      </trkpt>
      <trkpt lat="46.87527" lon="8.47399">
        <ele>2060</ele>
        <time>2021-08-11T13:44:08.700Z</time>
      </trkpt>
      <trkpt lat="46.87526" lon="8.47399">
        <ele>2059</ele>
        <time>2021-08-11T13:44:09.700Z</time>
      </trkpt>
      <trkpt lat="46.87526" lon="8.474">
        <ele>2059</ele>
        <time>2021-08-11T13:44:10.700Z</time>
      </trkpt>
      <trkpt lat="46.87525" lon="8.474">
        <ele>2059</ele>
        <time>2021-08-11T13:44:11.700Z</time>
      </trkpt>
      <trkpt lat="46.87525" lon="8.474">
        <ele>2059</ele>
        <time>2021-08-11T13:44:12.700Z</time>
      </trkpt>
      <trkpt lat="46.87526" lon="8.474">
        <ele>2059</ele>
        <time>2021-08-11T13:44:13.700Z</time>
      </trkpt>
      <trkpt lat="46.87526" lon="8.474">
        <ele>2059</ele>
        <time>2021-08-11T13:44:14.700Z</time>
      </trkpt>
      <trkpt lat="46.87526" lon="8.47401">
        <ele>2058</ele>
        <time>2021-08-11T13:44:15.700Z</time>
      </trkpt>
      <trkpt lat="46.87526" lon="8.47401">
        <ele>2058</ele>
        <time>2021-08-11T13:44:16.700Z</time>
      </trkpt>
      <trkpt lat="46.87526" lon="8.47402">
        <ele>2057</ele>
        <time>2021-08-11T13:44:17.700Z</time>
      </trkpt>
      <trkpt lat="46.87526" lon="8.47403">
        <ele>2057</ele>
        <time>2021-08-11T13:44:18.700Z</time>
      </trkpt>
      <trkpt lat="46.87526" lon="8.47404">
        <ele>2057</ele>
        <time>2021-08-11T13:44:19.700Z</time>
      </trkpt>
      <trkpt lat="46.87525" lon="8.47405">
        <ele>2057</ele>
        <time>2021-08-11T13:44:20.700Z</time>
      </trkpt>
      <trkpt lat="46.87525" lon="8.47406">
        <ele>2057</ele>
        <time>2021-08-11T13:44:21.700Z</time>
      </trkpt>
      <trkpt lat="46.87525" lon="8.47406">
        <ele>2058</ele>
        <time>2021-08-11T13:44:22.699Z</time>
      </trkpt>
      <trkpt lat="46.87524" lon="8.47406">
        <ele>2058</ele>
        <time>2021-08-11T13:44:23.699Z</time>
      </trkpt>
      <trkpt lat="46.87523" lon="8.47405">
        <ele>2058</ele>
        <time>2021-08-11T13:44:24.700Z</time>
      </trkpt>
      <trkpt lat="46.87523" lon="8.47405">
        <ele>2058</ele>
        <time>2021-08-11T13:44:25.699Z</time>
      </trkpt>
      <trkpt lat="46.87522" lon="8.47405">
        <ele>2058</ele>
        <time>2021-08-11T13:44:26.700Z</time>
      </trkpt>
      <trkpt lat="46.87521" lon="8.47405">
        <ele>2057</ele>
        <time>2021-08-11T13:44:27.700Z</time>
      </trkpt>
      <trkpt lat="46.87521" lon="8.47405">
        <ele>2057</ele>
        <time>2021-08-11T13:44:28.700Z</time>
      </trkpt>
      <trkpt lat="46.87521" lon="8.47404">
        <ele>2057</ele>
        <time>2021-08-11T13:44:29.700Z</time>
      </trkpt>
      <trkpt lat="46.87521" lon="8.47404">
        <ele>2057</ele>
        <time>2021-08-11T13:44:30.699Z</time>
      </trkpt>
      <trkpt lat="46.87521" lon="8.47403">
        <ele>2057</ele>
        <time>2021-08-11T13:44:31.700Z</time>
      </trkpt>
      <trkpt lat="46.87521" lon="8.47403">
        <ele>2057</ele>
        <time>2021-08-11T13:44:32.699Z</time>
      </trkpt>
      <trkpt lat="46.87521" lon="8.47403">
        <ele>2057</ele>
        <time>2021-08-11T13:44:33.700Z</time>
      </trkpt>
      <trkpt lat="46.87522" lon="8.47403">
        <ele>2057</ele>
        <time>2021-08-11T13:44:34.700Z</time>
      </trkpt>
      <trkpt lat="46.87523" lon="8.47402">
        <ele>2057</ele>
        <time>2021-08-11T13:44:35.700Z</time>
      </trkpt>
      <trkpt lat="46.87523" lon="8.47398">
        <ele>2060</ele>
        <time>2021-08-11T13:44:36.699Z</time>
      </trkpt>
      <trkpt lat="46.87522" lon="8.47397">
        <ele>2061</ele>
        <time>2021-08-11T13:44:37.699Z</time>
      </trkpt>
      <trkpt lat="46.87521" lon="8.47397">
        <ele>2061</ele>
        <time>2021-08-11T13:44:38.699Z</time>
      </trkpt>
      <trkpt lat="46.87521" lon="8.47397">
        <ele>2062</ele>
        <time>2021-08-11T13:44:39.700Z</time>
      </trkpt>
      <trkpt lat="46.87521" lon="8.47397">
        <ele>2062</ele>
        <time>2021-08-11T13:44:40.699Z</time>
      </trkpt>
      <trkpt lat="46.8752" lon="8.47397">
        <ele>2063</ele>
        <time>2021-08-11T13:44:41.699Z</time>
      </trkpt>
      <trkpt lat="46.8752" lon="8.47397">
        <ele>2064</ele>
        <time>2021-08-11T13:44:42.699Z</time>
      </trkpt>
      <trkpt lat="46.87521" lon="8.47396">
        <ele>2064</ele>
        <time>2021-08-11T13:44:43.700Z</time>
      </trkpt>
      <trkpt lat="46.87521" lon="8.47396">
        <ele>2065</ele>
        <time>2021-08-11T13:44:44.699Z</time>
      </trkpt>
      <trkpt lat="46.87521" lon="8.47396">
        <ele>2065</ele>
        <time>2021-08-11T13:44:45.700Z</time>
      </trkpt>
      <trkpt lat="46.87521" lon="8.47395">
        <ele>2065</ele>
        <time>2021-08-11T13:44:46.700Z</time>
      </trkpt>
      <trkpt lat="46.87522" lon="8.47395">
        <ele>2064</ele>
        <time>2021-08-11T13:44:47.699Z</time>
      </trkpt>
      <trkpt lat="46.87522" lon="8.47394">
        <ele>2064</ele>
        <time>2021-08-11T13:44:48.700Z</time>
      </trkpt>
      <trkpt lat="46.87523" lon="8.47394">
        <ele>2064</ele>
        <time>2021-08-11T13:44:49.700Z</time>
      </trkpt>
      <trkpt lat="46.87524" lon="8.47393">
        <ele>2064</ele>
        <time>2021-08-11T13:44:50.700Z</time>
      </trkpt>
      <trkpt lat="46.87524" lon="8.47392">
        <ele>2064</ele>
        <time>2021-08-11T13:44:51.699Z</time>
      </trkpt>
      <trkpt lat="46.87523" lon="8.4739">
        <ele>2064</ele>
        <time>2021-08-11T13:44:52.700Z</time>
      </trkpt>
      <trkpt lat="46.87522" lon="8.4739">
        <ele>2064</ele>
        <time>2021-08-11T13:44:53.700Z</time>
      </trkpt>
      <trkpt lat="46.87522" lon="8.47389">
        <ele>2065</ele>
        <time>2021-08-11T13:44:54.700Z</time>
      </trkpt>
      <trkpt lat="46.87521" lon="8.47389">
        <ele>2065</ele>
        <time>2021-08-11T13:44:55.700Z</time>
      </trkpt>
      <trkpt lat="46.8752" lon="8.47389">
        <ele>2065</ele>
        <time>2021-08-11T13:44:56.699Z</time>
      </trkpt>
      <trkpt lat="46.87519" lon="8.47389">
        <ele>2065</ele>
        <time>2021-08-11T13:44:57.700Z</time>
      </trkpt>
      <trkpt lat="46.87518" lon="8.47389">
        <ele>2065</ele>
        <time>2021-08-11T13:44:58.700Z</time>
      </trkpt>
      <trkpt lat="46.87518" lon="8.47388">
        <ele>2065</ele>
        <time>2021-08-11T13:44:59.700Z</time>
      </trkpt>
      <trkpt lat="46.87517" lon="8.47388">
        <ele>2065</ele>
        <time>2021-08-11T13:45:00.699Z</time>
      </trkpt>
      <trkpt lat="46.87517" lon="8.47388">
        <ele>2066</ele>
        <time>2021-08-11T13:45:01.699Z</time>
      </trkpt>
      <trkpt lat="46.87516" lon="8.47387">
        <ele>2066</ele>
        <time>2021-08-11T13:45:02.699Z</time>
      </trkpt>
      <trkpt lat="46.87516" lon="8.47386">
        <ele>2067</ele>
        <time>2021-08-11T13:45:03.699Z</time>
      </trkpt>
      <trkpt lat="46.87515" lon="8.47386">
        <ele>2067</ele>
        <time>2021-08-11T13:45:04.700Z</time>
      </trkpt>
      <trkpt lat="46.87514" lon="8.47386">
        <ele>2067</ele>
        <time>2021-08-11T13:45:05.699Z</time>
      </trkpt>
      <trkpt lat="46.87514" lon="8.47386">
        <ele>2067</ele>
        <time>2021-08-11T13:45:06.699Z</time>
      </trkpt>
      <trkpt lat="46.87513" lon="8.47386">
        <ele>2068</ele>
        <time>2021-08-11T13:45:07.699Z</time>
      </trkpt>
      <trkpt lat="46.87513" lon="8.47385">
        <ele>2068</ele>
        <time>2021-08-11T13:45:08.700Z</time>
      </trkpt>
      <trkpt lat="46.87513" lon="8.47385">
        <ele>2068</ele>
        <time>2021-08-11T13:45:09.699Z</time>
      </trkpt>
      <trkpt lat="46.87513" lon="8.47385">
        <ele>2068</ele>
        <time>2021-08-11T13:45:10.699Z</time>
      </trkpt>
      <trkpt lat="46.87513" lon="8.47384">
        <ele>2069</ele>
        <time>2021-08-11T13:45:11.701Z</time>
      </trkpt>
      <trkpt lat="46.87514" lon="8.47384">
        <ele>2069</ele>
        <time>2021-08-11T13:45:12.700Z</time>
      </trkpt>
      <trkpt lat="46.87515" lon="8.47384">
        <ele>2069</ele>
        <time>2021-08-11T13:45:13.700Z</time>
      </trkpt>
      <trkpt lat="46.87515" lon="8.47384">
        <ele>2069</ele>
        <time>2021-08-11T13:45:14.701Z</time>
      </trkpt>
      <trkpt lat="46.87516" lon="8.47384">
        <ele>2069</ele>
        <time>2021-08-11T13:45:15.700Z</time>
      </trkpt>
      <trkpt lat="46.87516" lon="8.47384">
        <ele>2069</ele>
        <time>2021-08-11T13:45:16.700Z</time>
      </trkpt>
      <trkpt lat="46.87517" lon="8.47384">
        <ele>2069</ele>
        <time>2021-08-11T13:45:17.700Z</time>
      </trkpt>
      <trkpt lat="46.87517" lon="8.47384">
        <ele>2069</ele>
        <time>2021-08-11T13:45:18.701Z</time>
      </trkpt>
      <trkpt lat="46.87518" lon="8.47383">
        <ele>2068</ele>
        <time>2021-08-11T13:45:19.701Z</time>
      </trkpt>
      <trkpt lat="46.87519" lon="8.47383">
        <ele>2067</ele>
        <time>2021-08-11T13:45:20.701Z</time>
      </trkpt>
      <trkpt lat="46.87519" lon="8.47382">
        <ele>2067</ele>
        <time>2021-08-11T13:45:21.701Z</time>
      </trkpt>
      <trkpt lat="46.87519" lon="8.47381">
        <ele>2066</ele>
        <time>2021-08-11T13:45:22.700Z</time>
      </trkpt>
      <trkpt lat="46.87519" lon="8.4738">
        <ele>2066</ele>
        <time>2021-08-11T13:45:23.701Z</time>
      </trkpt>
      <trkpt lat="46.87518" lon="8.47379">
        <ele>2066</ele>
        <time>2021-08-11T13:45:24.701Z</time>
      </trkpt>
      <trkpt lat="46.87517" lon="8.47378">
        <ele>2066</ele>
        <time>2021-08-11T13:45:25.700Z</time>
      </trkpt>
      <trkpt lat="46.87516" lon="8.47377">
        <ele>2067</ele>
        <time>2021-08-11T13:45:26.701Z</time>
      </trkpt>
      <trkpt lat="46.87516" lon="8.47376">
        <ele>2067</ele>
        <time>2021-08-11T13:45:30.795Z</time>
      </trkpt>
      <trkpt lat="46.87515" lon="8.47375">
        <ele>2067</ele>
        <time>2021-08-11T13:45:31.795Z</time>
      </trkpt>
      <trkpt lat="46.87515" lon="8.47375">
        <ele>2068</ele>
        <time>2021-08-11T13:45:32.795Z</time>
      </trkpt>
      <trkpt lat="46.87515" lon="8.47374">
        <ele>2069</ele>
        <time>2021-08-11T13:45:33.795Z</time>
      </trkpt>
      <trkpt lat="46.87514" lon="8.47373">
        <ele>2069</ele>
        <time>2021-08-11T13:45:34.795Z</time>
      </trkpt>
      <trkpt lat="46.87514" lon="8.47373">
        <ele>2070</ele>
        <time>2021-08-11T13:45:35.795Z</time>
      </trkpt>
      <trkpt lat="46.87513" lon="8.47372">
        <ele>2071</ele>
        <time>2021-08-11T13:45:36.794Z</time>
      </trkpt>
      <trkpt lat="46.87512" lon="8.47372">
        <ele>2072</ele>
        <time>2021-08-11T13:45:37.795Z</time>
      </trkpt>
      <trkpt lat="46.87512" lon="8.47371">
        <ele>2073</ele>
        <time>2021-08-11T13:45:38.795Z</time>
      </trkpt>
      <trkpt lat="46.87512" lon="8.47374">
        <ele>2076</ele>
        <time>2021-08-11T13:45:39.796Z</time>
      </trkpt>
      <trkpt lat="46.87511" lon="8.47374">
        <ele>2075</ele>
        <time>2021-08-11T13:45:40.796Z</time>
      </trkpt>
      <trkpt lat="46.87511" lon="8.47373">
        <ele>2075</ele>
        <time>2021-08-11T13:45:41.795Z</time>
      </trkpt>
      <trkpt lat="46.87511" lon="8.47373">
        <ele>2074</ele>
        <time>2021-08-11T13:45:42.796Z</time>
      </trkpt>
      <trkpt lat="46.87512" lon="8.47373">
        <ele>2074</ele>
        <time>2021-08-11T13:45:43.796Z</time>
      </trkpt>
      <trkpt lat="46.87513" lon="8.47375">
        <ele>2072</ele>
        <time>2021-08-11T13:45:44.795Z</time>
      </trkpt>
      <trkpt lat="46.87513" lon="8.47375">
        <ele>2071</ele>
        <time>2021-08-11T13:45:45.796Z</time>
      </trkpt>
      <trkpt lat="46.87513" lon="8.47376">
        <ele>2071</ele>
        <time>2021-08-11T13:45:46.795Z</time>
      </trkpt>
      <trkpt lat="46.87513" lon="8.47376">
        <ele>2070</ele>
        <time>2021-08-11T13:45:47.796Z</time>
      </trkpt>
      <trkpt lat="46.87514" lon="8.47376">
        <ele>2070</ele>
        <time>2021-08-11T13:45:48.795Z</time>
      </trkpt>
      <trkpt lat="46.87514" lon="8.47377">
        <ele>2070</ele>
        <time>2021-08-11T13:45:49.796Z</time>
      </trkpt>
      <trkpt lat="46.87511" lon="8.47375">
        <ele>2073</ele>
        <time>2021-08-11T13:45:50.797Z</time>
      </trkpt>
      <trkpt lat="46.87511" lon="8.47375">
        <ele>2073</ele>
        <time>2021-08-11T13:45:51.797Z</time>
      </trkpt>
      <trkpt lat="46.87509" lon="8.4737">
        <ele>2070</ele>
        <time>2021-08-11T13:45:52.799Z</time>
      </trkpt>
      <trkpt lat="46.87508" lon="8.47369">
        <ele>2070</ele>
        <time>2021-08-11T13:45:53.798Z</time>
      </trkpt>
      <trkpt lat="46.87508" lon="8.47369">
        <ele>2069</ele>
        <time>2021-08-11T13:45:54.798Z</time>
      </trkpt>
      <trkpt lat="46.87508" lon="8.47368">
        <ele>2069</ele>
        <time>2021-08-11T13:45:55.799Z</time>
      </trkpt>
      <trkpt lat="46.87508" lon="8.47368">
        <ele>2069</ele>
        <time>2021-08-11T13:45:56.798Z</time>
      </trkpt>
      <trkpt lat="46.87508" lon="8.47365">
        <ele>2070</ele>
        <time>2021-08-11T13:45:57.799Z</time>
      </trkpt>
      <trkpt lat="46.87508" lon="8.47365">
        <ele>2069</ele>
        <time>2021-08-11T13:45:58.799Z</time>
      </trkpt>
      <trkpt lat="46.87509" lon="8.47364">
        <ele>2069</ele>
        <time>2021-08-11T13:45:59.798Z</time>
      </trkpt>
      <trkpt lat="46.87509" lon="8.47364">
        <ele>2069</ele>
        <time>2021-08-11T13:46:00.798Z</time>
      </trkpt>
      <trkpt lat="46.87509" lon="8.47363">
        <ele>2069</ele>
        <time>2021-08-11T13:46:01.798Z</time>
      </trkpt>
      <trkpt lat="46.87509" lon="8.47362">
        <ele>2069</ele>
        <time>2021-08-11T13:46:02.799Z</time>
      </trkpt>
      <trkpt lat="46.8751" lon="8.47361">
        <ele>2069</ele>
        <time>2021-08-11T13:46:03.799Z</time>
      </trkpt>
      <trkpt lat="46.8751" lon="8.47361">
        <ele>2069</ele>
        <time>2021-08-11T13:46:04.798Z</time>
      </trkpt>
      <trkpt lat="46.87508" lon="8.47358">
        <ele>2069</ele>
        <time>2021-08-11T13:46:05.799Z</time>
      </trkpt>
      <trkpt lat="46.87508" lon="8.47358">
        <ele>2069</ele>
        <time>2021-08-11T13:46:06.799Z</time>
      </trkpt>
      <trkpt lat="46.87509" lon="8.47358">
        <ele>2069</ele>
        <time>2021-08-11T13:46:07.799Z</time>
      </trkpt>
      <trkpt lat="46.87509" lon="8.47358">
        <ele>2069</ele>
        <time>2021-08-11T13:46:08.799Z</time>
      </trkpt>
      <trkpt lat="46.87509" lon="8.47357">
        <ele>2069</ele>
        <time>2021-08-11T13:46:09.799Z</time>
      </trkpt>
      <trkpt lat="46.87509" lon="8.47357">
        <ele>2068</ele>
        <time>2021-08-11T13:46:10.799Z</time>
      </trkpt>
      <trkpt lat="46.87509" lon="8.47356">
        <ele>2068</ele>
        <time>2021-08-11T13:46:11.799Z</time>
      </trkpt>
      <trkpt lat="46.87509" lon="8.47356">
        <ele>2068</ele>
        <time>2021-08-11T13:46:12.799Z</time>
      </trkpt>
      <trkpt lat="46.87509" lon="8.47355">
        <ele>2068</ele>
        <time>2021-08-11T13:46:13.799Z</time>
      </trkpt>
      <trkpt lat="46.8751" lon="8.47355">
        <ele>2067</ele>
        <time>2021-08-11T13:46:14.800Z</time>
      </trkpt>
      <trkpt lat="46.8751" lon="8.47354">
        <ele>2067</ele>
        <time>2021-08-11T13:46:15.800Z</time>
      </trkpt>
      <trkpt lat="46.87511" lon="8.47354">
        <ele>2066</ele>
        <time>2021-08-11T13:46:16.800Z</time>
      </trkpt>
      <trkpt lat="46.87512" lon="8.47352">
        <ele>2066</ele>
        <time>2021-08-11T13:46:17.800Z</time>
      </trkpt>
      <trkpt lat="46.87512" lon="8.47352">
        <ele>2065</ele>
        <time>2021-08-11T13:46:18.800Z</time>
      </trkpt>
      <trkpt lat="46.87511" lon="8.47351">
        <ele>2067</ele>
        <time>2021-08-11T13:46:19.800Z</time>
      </trkpt>
      <trkpt lat="46.8751" lon="8.47352">
        <ele>2068</ele>
        <time>2021-08-11T13:46:20.800Z</time>
      </trkpt>
      <trkpt lat="46.87509" lon="8.47352">
        <ele>2068</ele>
        <time>2021-08-11T13:46:21.800Z</time>
      </trkpt>
      <trkpt lat="46.87509" lon="8.47351">
        <ele>2069</ele>
        <time>2021-08-11T13:46:22.800Z</time>
      </trkpt>
      <trkpt lat="46.87509" lon="8.4735">
        <ele>2070</ele>
        <time>2021-08-11T13:46:23.800Z</time>
      </trkpt>
      <trkpt lat="46.87509" lon="8.47351">
        <ele>2071</ele>
        <time>2021-08-11T13:46:24.800Z</time>
      </trkpt>
      <trkpt lat="46.87508" lon="8.47349">
        <ele>2074</ele>
        <time>2021-08-11T13:46:25.800Z</time>
      </trkpt>
      <trkpt lat="46.87509" lon="8.47349">
        <ele>2074</ele>
        <time>2021-08-11T13:46:26.800Z</time>
      </trkpt>
      <trkpt lat="46.87509" lon="8.47349">
        <ele>2074</ele>
        <time>2021-08-11T13:46:27.800Z</time>
      </trkpt>
      <trkpt lat="46.87508" lon="8.47347">
        <ele>2074</ele>
        <time>2021-08-11T13:46:28.801Z</time>
      </trkpt>
      <trkpt lat="46.87509" lon="8.47346">
        <ele>2073</ele>
        <time>2021-08-11T13:46:29.800Z</time>
      </trkpt>
      <trkpt lat="46.87509" lon="8.47346">
        <ele>2073</ele>
        <time>2021-08-11T13:46:30.800Z</time>
      </trkpt>
      <trkpt lat="46.87509" lon="8.47345">
        <ele>2073</ele>
        <time>2021-08-11T13:46:31.801Z</time>
      </trkpt>
      <trkpt lat="46.87509" lon="8.47345">
        <ele>2073</ele>
        <time>2021-08-11T13:46:32.801Z</time>
      </trkpt>
      <trkpt lat="46.87509" lon="8.47344">
        <ele>2073</ele>
        <time>2021-08-11T13:46:33.801Z</time>
      </trkpt>
      <trkpt lat="46.8751" lon="8.47343">
        <ele>2073</ele>
        <time>2021-08-11T13:46:34.801Z</time>
      </trkpt>
      <trkpt lat="46.8751" lon="8.47343">
        <ele>2073</ele>
        <time>2021-08-11T13:46:35.801Z</time>
      </trkpt>
      <trkpt lat="46.8751" lon="8.47342">
        <ele>2074</ele>
        <time>2021-08-11T13:46:36.800Z</time>
      </trkpt>
      <trkpt lat="46.87509" lon="8.47342">
        <ele>2075</ele>
        <time>2021-08-11T13:46:37.801Z</time>
      </trkpt>
      <trkpt lat="46.8751" lon="8.4734">
        <ele>2075</ele>
        <time>2021-08-11T13:46:38.801Z</time>
      </trkpt>
      <trkpt lat="46.8751" lon="8.47339">
        <ele>2076</ele>
        <time>2021-08-11T13:46:39.801Z</time>
      </trkpt>
      <trkpt lat="46.8751" lon="8.47339">
        <ele>2077</ele>
        <time>2021-08-11T13:46:40.801Z</time>
      </trkpt>
      <trkpt lat="46.8751" lon="8.47339">
        <ele>2077</ele>
        <time>2021-08-11T13:46:41.800Z</time>
      </trkpt>
      <trkpt lat="46.8751" lon="8.47339">
        <ele>2077</ele>
        <time>2021-08-11T13:46:42.800Z</time>
      </trkpt>
      <trkpt lat="46.87509" lon="8.47336">
        <ele>2083</ele>
        <time>2021-08-11T13:46:43.801Z</time>
      </trkpt>
      <trkpt lat="46.87509" lon="8.47335">
        <ele>2084</ele>
        <time>2021-08-11T13:46:44.800Z</time>
      </trkpt>
      <trkpt lat="46.87508" lon="8.47334">
        <ele>2085</ele>
        <time>2021-08-11T13:46:45.801Z</time>
      </trkpt>
      <trkpt lat="46.87508" lon="8.47333">
        <ele>2087</ele>
        <time>2021-08-11T13:46:46.800Z</time>
      </trkpt>
      <trkpt lat="46.87507" lon="8.47333">
        <ele>2088</ele>
        <time>2021-08-11T13:46:47.800Z</time>
      </trkpt>
      <trkpt lat="46.87506" lon="8.47332">
        <ele>2088</ele>
        <time>2021-08-11T13:46:48.800Z</time>
      </trkpt>
      <trkpt lat="46.87506" lon="8.47332">
        <ele>2089</ele>
        <time>2021-08-11T13:46:49.800Z</time>
      </trkpt>
      <trkpt lat="46.87506" lon="8.47331">
        <ele>2089</ele>
        <time>2021-08-11T13:46:50.801Z</time>
      </trkpt>
      <trkpt lat="46.87507" lon="8.47331">
        <ele>2090</ele>
        <time>2021-08-11T13:46:51.801Z</time>
      </trkpt>
      <trkpt lat="46.87507" lon="8.4733">
        <ele>2090</ele>
        <time>2021-08-11T13:46:52.801Z</time>
      </trkpt>
      <trkpt lat="46.87507" lon="8.4733">
        <ele>2090</ele>
        <time>2021-08-11T13:46:53.801Z</time>
      </trkpt>
      <trkpt lat="46.87507" lon="8.47334">
        <ele>2090</ele>
        <time>2021-08-11T13:46:54.802Z</time>
      </trkpt>
      <trkpt lat="46.87508" lon="8.47334">
        <ele>2090</ele>
        <time>2021-08-11T13:46:55.801Z</time>
      </trkpt>
      <trkpt lat="46.87508" lon="8.47335">
        <ele>2089</ele>
        <time>2021-08-11T13:46:56.802Z</time>
      </trkpt>
      <trkpt lat="46.87509" lon="8.47335">
        <ele>2089</ele>
        <time>2021-08-11T13:46:57.802Z</time>
      </trkpt>
      <trkpt lat="46.87507" lon="8.47336">
        <ele>2085</ele>
        <time>2021-08-11T13:46:58.803Z</time>
      </trkpt>
      <trkpt lat="46.87508" lon="8.47336">
        <ele>2085</ele>
        <time>2021-08-11T13:46:59.802Z</time>
      </trkpt>
      <trkpt lat="46.87509" lon="8.47336">
        <ele>2084</ele>
        <time>2021-08-11T13:47:00.802Z</time>
      </trkpt>
      <trkpt lat="46.8751" lon="8.47336">
        <ele>2084</ele>
        <time>2021-08-11T13:47:01.803Z</time>
      </trkpt>
      <trkpt lat="46.8751" lon="8.47336">
        <ele>2084</ele>
        <time>2021-08-11T13:47:02.803Z</time>
      </trkpt>
      <trkpt lat="46.8751" lon="8.47335">
        <ele>2084</ele>
        <time>2021-08-11T13:47:03.803Z</time>
      </trkpt>
      <trkpt lat="46.87512" lon="8.4733">
        <ele>2082</ele>
        <time>2021-08-11T13:47:04.803Z</time>
      </trkpt>
      <trkpt lat="46.87511" lon="8.4733">
        <ele>2082</ele>
        <time>2021-08-11T13:47:05.804Z</time>
      </trkpt>
      <trkpt lat="46.87511" lon="8.4733">
        <ele>2082</ele>
        <time>2021-08-11T13:47:06.803Z</time>
      </trkpt>
      <trkpt lat="46.8751" lon="8.47329">
        <ele>2083</ele>
        <time>2021-08-11T13:47:07.804Z</time>
      </trkpt>
      <trkpt lat="46.87509" lon="8.47329">
        <ele>2083</ele>
        <time>2021-08-11T13:47:08.804Z</time>
      </trkpt>
      <trkpt lat="46.87509" lon="8.47329">
        <ele>2084</ele>
        <time>2021-08-11T13:47:09.804Z</time>
      </trkpt>
      <trkpt lat="46.87509" lon="8.47329">
        <ele>2084</ele>
        <time>2021-08-11T13:47:10.804Z</time>
      </trkpt>
      <trkpt lat="46.87508" lon="8.47329">
        <ele>2084</ele>
        <time>2021-08-11T13:47:11.803Z</time>
      </trkpt>
      <trkpt lat="46.87509" lon="8.47328">
        <ele>2084</ele>
        <time>2021-08-11T13:47:12.804Z</time>
      </trkpt>
      <trkpt lat="46.8751" lon="8.47328">
        <ele>2084</ele>
        <time>2021-08-11T13:47:13.804Z</time>
      </trkpt>
      <trkpt lat="46.8751" lon="8.47328">
        <ele>2084</ele>
        <time>2021-08-11T13:47:14.804Z</time>
      </trkpt>
      <trkpt lat="46.87511" lon="8.47327">
        <ele>2084</ele>
        <time>2021-08-11T13:47:15.804Z</time>
      </trkpt>
      <trkpt lat="46.87512" lon="8.47326">
        <ele>2084</ele>
        <time>2021-08-11T13:47:16.804Z</time>
      </trkpt>
      <trkpt lat="46.87512" lon="8.47325">
        <ele>2084</ele>
        <time>2021-08-11T13:47:17.804Z</time>
      </trkpt>
      <trkpt lat="46.87512" lon="8.47323">
        <ele>2085</ele>
        <time>2021-08-11T13:47:18.803Z</time>
      </trkpt>
      <trkpt lat="46.87511" lon="8.47322">
        <ele>2086</ele>
        <time>2021-08-11T13:47:19.804Z</time>
      </trkpt>
      <trkpt lat="46.8751" lon="8.47321">
        <ele>2087</ele>
        <time>2021-08-11T13:47:20.804Z</time>
      </trkpt>
      <trkpt lat="46.87509" lon="8.4732">
        <ele>2088</ele>
        <time>2021-08-11T13:47:21.803Z</time>
      </trkpt>
      <trkpt lat="46.87509" lon="8.4732">
        <ele>2090</ele>
        <time>2021-08-11T13:47:22.804Z</time>
      </trkpt>
      <trkpt lat="46.87508" lon="8.47319">
        <ele>2091</ele>
        <time>2021-08-11T13:47:23.803Z</time>
      </trkpt>
      <trkpt lat="46.87508" lon="8.47319">
        <ele>2092</ele>
        <time>2021-08-11T13:47:24.804Z</time>
      </trkpt>
      <trkpt lat="46.87507" lon="8.47318">
        <ele>2093</ele>
        <time>2021-08-11T13:47:25.804Z</time>
      </trkpt>
      <trkpt lat="46.87506" lon="8.47317">
        <ele>2094</ele>
        <time>2021-08-11T13:47:26.804Z</time>
      </trkpt>
      <trkpt lat="46.87506" lon="8.47317">
        <ele>2095</ele>
        <time>2021-08-11T13:47:27.804Z</time>
      </trkpt>
      <trkpt lat="46.87506" lon="8.47317">
        <ele>2096</ele>
        <time>2021-08-11T13:47:28.804Z</time>
      </trkpt>
      <trkpt lat="46.87506" lon="8.47317">
        <ele>2096</ele>
        <time>2021-08-11T13:47:29.804Z</time>
      </trkpt>
      <trkpt lat="46.87507" lon="8.47317">
        <ele>2096</ele>
        <time>2021-08-11T13:47:30.804Z</time>
      </trkpt>
      <trkpt lat="46.87508" lon="8.47317">
        <ele>2096</ele>
        <time>2021-08-11T13:47:31.804Z</time>
      </trkpt>
      <trkpt lat="46.87509" lon="8.47316">
        <ele>2096</ele>
        <time>2021-08-11T13:47:32.804Z</time>
      </trkpt>
      <trkpt lat="46.87509" lon="8.47315">
        <ele>2096</ele>
        <time>2021-08-11T13:47:33.803Z</time>
      </trkpt>
      <trkpt lat="46.8751" lon="8.47314">
        <ele>2095</ele>
        <time>2021-08-11T13:47:34.804Z</time>
      </trkpt>
      <trkpt lat="46.87509" lon="8.47317">
        <ele>2093</ele>
        <time>2021-08-11T13:47:35.803Z</time>
      </trkpt>
      <trkpt lat="46.87509" lon="8.47319">
        <ele>2092</ele>
        <time>2021-08-11T13:47:36.804Z</time>
      </trkpt>
      <trkpt lat="46.87508" lon="8.47319">
        <ele>2090</ele>
        <time>2021-08-11T13:47:37.804Z</time>
      </trkpt>
      <trkpt lat="46.87509" lon="8.47319">
        <ele>2090</ele>
        <time>2021-08-11T13:47:38.804Z</time>
      </trkpt>
      <trkpt lat="46.87509" lon="8.47319">
        <ele>2089</ele>
        <time>2021-08-11T13:47:39.803Z</time>
      </trkpt>
      <trkpt lat="46.87509" lon="8.47316">
        <ele>2091</ele>
        <time>2021-08-11T13:47:40.804Z</time>
      </trkpt>
      <trkpt lat="46.87507" lon="8.47318">
        <ele>2091</ele>
        <time>2021-08-11T13:47:41.804Z</time>
      </trkpt>
      <trkpt lat="46.87507" lon="8.47319">
        <ele>2091</ele>
        <time>2021-08-11T13:47:42.804Z</time>
      </trkpt>
      <trkpt lat="46.87507" lon="8.47318">
        <ele>2090</ele>
        <time>2021-08-11T13:47:43.804Z</time>
      </trkpt>
      <trkpt lat="46.87507" lon="8.47318">
        <ele>2090</ele>
        <time>2021-08-11T13:47:44.804Z</time>
      </trkpt>
      <trkpt lat="46.87506" lon="8.47317">
        <ele>2086</ele>
        <time>2021-08-11T13:47:45.805Z</time>
      </trkpt>
      <trkpt lat="46.87506" lon="8.47317">
        <ele>2085</ele>
        <time>2021-08-11T13:47:46.805Z</time>
      </trkpt>
      <trkpt lat="46.87506" lon="8.47317">
        <ele>2085</ele>
        <time>2021-08-11T13:47:47.805Z</time>
      </trkpt>
      <trkpt lat="46.87506" lon="8.47312">
        <ele>2094</ele>
        <time>2021-08-11T13:47:48.806Z</time>
      </trkpt>
      <trkpt lat="46.87505" lon="8.47311">
        <ele>2095</ele>
        <time>2021-08-11T13:47:49.806Z</time>
      </trkpt>
      <trkpt lat="46.87505" lon="8.47311">
        <ele>2096</ele>
        <time>2021-08-11T13:47:50.805Z</time>
      </trkpt>
      <trkpt lat="46.87505" lon="8.47311">
        <ele>2097</ele>
        <time>2021-08-11T13:47:51.806Z</time>
      </trkpt>
      <trkpt lat="46.87505" lon="8.4731">
        <ele>2098</ele>
        <time>2021-08-11T13:47:52.806Z</time>
      </trkpt>
      <trkpt lat="46.87504" lon="8.4731">
        <ele>2098</ele>
        <time>2021-08-11T13:47:53.806Z</time>
      </trkpt>
      <trkpt lat="46.87505" lon="8.47307">
        <ele>2100</ele>
        <time>2021-08-11T13:47:54.806Z</time>
      </trkpt>
      <trkpt lat="46.87505" lon="8.47307">
        <ele>2100</ele>
        <time>2021-08-11T13:47:55.806Z</time>
      </trkpt>
      <trkpt lat="46.87506" lon="8.47306">
        <ele>2100</ele>
        <time>2021-08-11T13:47:56.806Z</time>
      </trkpt>
      <trkpt lat="46.87506" lon="8.47306">
        <ele>2100</ele>
        <time>2021-08-11T13:47:57.807Z</time>
      </trkpt>
      <trkpt lat="46.87507" lon="8.47305">
        <ele>2100</ele>
        <time>2021-08-11T13:47:58.806Z</time>
      </trkpt>
      <trkpt lat="46.87507" lon="8.47304">
        <ele>2100</ele>
        <time>2021-08-11T13:47:59.806Z</time>
      </trkpt>
      <trkpt lat="46.87508" lon="8.47303">
        <ele>2100</ele>
        <time>2021-08-11T13:48:00.806Z</time>
      </trkpt>
      <trkpt lat="46.87507" lon="8.47302">
        <ele>2100</ele>
        <time>2021-08-11T13:48:01.806Z</time>
      </trkpt>
      <trkpt lat="46.87506" lon="8.47302">
        <ele>2101</ele>
        <time>2021-08-11T13:48:02.806Z</time>
      </trkpt>
      <trkpt lat="46.87505" lon="8.47301">
        <ele>2102</ele>
        <time>2021-08-11T13:48:03.806Z</time>
      </trkpt>
      <trkpt lat="46.87503" lon="8.47303">
        <ele>2103</ele>
        <time>2021-08-11T13:48:04.806Z</time>
      </trkpt>
      <trkpt lat="46.87502" lon="8.47303">
        <ele>2103</ele>
        <time>2021-08-11T13:48:05.806Z</time>
      </trkpt>
      <trkpt lat="46.87502" lon="8.47303">
        <ele>2104</ele>
        <time>2021-08-11T13:48:06.806Z</time>
      </trkpt>
      <trkpt lat="46.87502" lon="8.47303">
        <ele>2104</ele>
        <time>2021-08-11T13:48:07.806Z</time>
      </trkpt>
      <trkpt lat="46.87501" lon="8.47303">
        <ele>2104</ele>
        <time>2021-08-11T13:48:08.806Z</time>
      </trkpt>
      <trkpt lat="46.87501" lon="8.47303">
        <ele>2104</ele>
        <time>2021-08-11T13:48:09.806Z</time>
      </trkpt>
      <trkpt lat="46.87501" lon="8.47303">
        <ele>2103</ele>
        <time>2021-08-11T13:48:10.806Z</time>
      </trkpt>
      <trkpt lat="46.87502" lon="8.47303">
        <ele>2098</ele>
        <time>2021-08-11T13:48:11.807Z</time>
      </trkpt>
      <trkpt lat="46.87502" lon="8.47304">
        <ele>2098</ele>
        <time>2021-08-11T13:48:12.807Z</time>
      </trkpt>
      <trkpt lat="46.87502" lon="8.47303">
        <ele>2098</ele>
        <time>2021-08-11T13:48:13.806Z</time>
      </trkpt>
      <trkpt lat="46.87502" lon="8.47304">
        <ele>2100</ele>
        <time>2021-08-11T13:48:14.808Z</time>
      </trkpt>
      <trkpt lat="46.87502" lon="8.47305">
        <ele>2101</ele>
        <time>2021-08-11T13:48:15.808Z</time>
      </trkpt>
      <trkpt lat="46.87502" lon="8.47305">
        <ele>2101</ele>
        <time>2021-08-11T13:48:16.807Z</time>
      </trkpt>
      <trkpt lat="46.87505" lon="8.47298">
        <ele>2110</ele>
        <time>2021-08-11T13:48:17.807Z</time>
      </trkpt>
      <trkpt lat="46.87506" lon="8.47298">
        <ele>2110</ele>
        <time>2021-08-11T13:48:18.808Z</time>
      </trkpt>
      <trkpt lat="46.87506" lon="8.47298">
        <ele>2110</ele>
        <time>2021-08-11T13:48:19.807Z</time>
      </trkpt>
      <trkpt lat="46.87506" lon="8.47298">
        <ele>2109</ele>
        <time>2021-08-11T13:48:20.808Z</time>
      </trkpt>
      <trkpt lat="46.87507" lon="8.47297">
        <ele>2108</ele>
        <time>2021-08-11T13:48:21.808Z</time>
      </trkpt>
      <trkpt lat="46.87507" lon="8.47296">
        <ele>2108</ele>
        <time>2021-08-11T13:48:22.808Z</time>
      </trkpt>
      <trkpt lat="46.87507" lon="8.47295">
        <ele>2107</ele>
        <time>2021-08-11T13:48:23.808Z</time>
      </trkpt>
      <trkpt lat="46.87507" lon="8.47294">
        <ele>2106</ele>
        <time>2021-08-11T13:48:24.807Z</time>
      </trkpt>
      <trkpt lat="46.87506" lon="8.47294">
        <ele>2106</ele>
        <time>2021-08-11T13:48:25.807Z</time>
      </trkpt>
      <trkpt lat="46.87504" lon="8.47294">
        <ele>2105</ele>
        <time>2021-08-11T13:48:26.808Z</time>
      </trkpt>
      <trkpt lat="46.87503" lon="8.47294">
        <ele>2105</ele>
        <time>2021-08-11T13:48:27.808Z</time>
      </trkpt>
      <trkpt lat="46.87503" lon="8.47294">
        <ele>2105</ele>
        <time>2021-08-11T13:48:28.808Z</time>
      </trkpt>
      <trkpt lat="46.87503" lon="8.47294">
        <ele>2105</ele>
        <time>2021-08-11T13:48:29.808Z</time>
      </trkpt>
      <trkpt lat="46.87503" lon="8.47295">
        <ele>2106</ele>
        <time>2021-08-11T13:48:30.808Z</time>
      </trkpt>
      <trkpt lat="46.87502" lon="8.47294">
        <ele>2108</ele>
        <time>2021-08-11T13:48:31.808Z</time>
      </trkpt>
      <trkpt lat="46.87502" lon="8.47293">
        <ele>2108</ele>
        <time>2021-08-11T13:48:32.809Z</time>
      </trkpt>
      <trkpt lat="46.87502" lon="8.47293">
        <ele>2108</ele>
        <time>2021-08-11T13:48:33.808Z</time>
      </trkpt>
      <trkpt lat="46.87504" lon="8.47291">
        <ele>2108</ele>
        <time>2021-08-11T13:48:34.809Z</time>
      </trkpt>
      <trkpt lat="46.87505" lon="8.4729">
        <ele>2108</ele>
        <time>2021-08-11T13:48:35.809Z</time>
      </trkpt>
      <trkpt lat="46.87505" lon="8.4729">
        <ele>2108</ele>
        <time>2021-08-11T13:48:45.831Z</time>
      </trkpt>
      <trkpt lat="46.87505" lon="8.47289">
        <ele>2108</ele>
        <time>2021-08-11T13:48:46.832Z</time>
      </trkpt>
      <trkpt lat="46.87503" lon="8.47287">
        <ele>2106</ele>
        <time>2021-08-11T13:48:47.832Z</time>
      </trkpt>
      <trkpt lat="46.87503" lon="8.47286">
        <ele>2106</ele>
        <time>2021-08-11T13:48:54.953Z</time>
      </trkpt>
      <trkpt lat="46.87503" lon="8.47286">
        <ele>2106</ele>
        <time>2021-08-11T13:48:55.952Z</time>
      </trkpt>
      <trkpt lat="46.87503" lon="8.47285">
        <ele>2106</ele>
        <time>2021-08-11T13:48:56.953Z</time>
      </trkpt>
      <trkpt lat="46.87503" lon="8.47284">
        <ele>2107</ele>
        <time>2021-08-11T13:49:07.095Z</time>
      </trkpt>
      <trkpt lat="46.87503" lon="8.47284">
        <ele>2108</ele>
        <time>2021-08-11T13:49:08.096Z</time>
      </trkpt>
      <trkpt lat="46.87503" lon="8.47283">
        <ele>2109</ele>
        <time>2021-08-11T13:49:09.096Z</time>
      </trkpt>
      <trkpt lat="46.87503" lon="8.47283">
        <ele>2110</ele>
        <time>2021-08-11T13:49:10.095Z</time>
      </trkpt>
      <trkpt lat="46.87502" lon="8.47282">
        <ele>2111</ele>
        <time>2021-08-11T13:49:11.095Z</time>
      </trkpt>
      <trkpt lat="46.87502" lon="8.47282">
        <ele>2111</ele>
        <time>2021-08-11T13:49:12.096Z</time>
      </trkpt>
      <trkpt lat="46.87501" lon="8.47281">
        <ele>2112</ele>
        <time>2021-08-11T13:49:13.096Z</time>
      </trkpt>
      <trkpt lat="46.87501" lon="8.47281">
        <ele>2112</ele>
        <time>2021-08-11T13:49:14.096Z</time>
      </trkpt>
      <trkpt lat="46.875" lon="8.47281">
        <ele>2112</ele>
        <time>2021-08-11T13:49:15.095Z</time>
      </trkpt>
      <trkpt lat="46.875" lon="8.47281">
        <ele>2111</ele>
        <time>2021-08-11T13:49:16.095Z</time>
      </trkpt>
      <trkpt lat="46.875" lon="8.47282">
        <ele>2110</ele>
        <time>2021-08-11T13:49:17.096Z</time>
      </trkpt>
      <trkpt lat="46.87499" lon="8.47282">
        <ele>2108</ele>
        <time>2021-08-11T13:49:18.096Z</time>
      </trkpt>
      <trkpt lat="46.87498" lon="8.47281">
        <ele>2108</ele>
        <time>2021-08-11T13:49:19.096Z</time>
      </trkpt>
      <trkpt lat="46.87497" lon="8.47281">
        <ele>2108</ele>
        <time>2021-08-11T13:49:20.095Z</time>
      </trkpt>
      <trkpt lat="46.87497" lon="8.4728">
        <ele>2108</ele>
        <time>2021-08-11T13:49:21.095Z</time>
      </trkpt>
      <trkpt lat="46.87496" lon="8.4728">
        <ele>2108</ele>
        <time>2021-08-11T13:49:22.096Z</time>
      </trkpt>
      <trkpt lat="46.87496" lon="8.47279">
        <ele>2107</ele>
        <time>2021-08-11T13:49:23.095Z</time>
      </trkpt>
      <trkpt lat="46.87495" lon="8.47278">
        <ele>2107</ele>
        <time>2021-08-11T13:49:24.095Z</time>
      </trkpt>
      <trkpt lat="46.87494" lon="8.47278">
        <ele>2108</ele>
        <time>2021-08-11T13:49:25.095Z</time>
      </trkpt>
      <trkpt lat="46.87493" lon="8.47277">
        <ele>2108</ele>
        <time>2021-08-11T13:49:26.095Z</time>
      </trkpt>
      <trkpt lat="46.87492" lon="8.47277">
        <ele>2108</ele>
        <time>2021-08-11T13:49:27.095Z</time>
      </trkpt>
      <trkpt lat="46.87492" lon="8.47277">
        <ele>2108</ele>
        <time>2021-08-11T13:49:28.095Z</time>
      </trkpt>
      <trkpt lat="46.87492" lon="8.47276">
        <ele>2108</ele>
        <time>2021-08-11T13:49:29.095Z</time>
      </trkpt>
      <trkpt lat="46.87491" lon="8.47276">
        <ele>2108</ele>
        <time>2021-08-11T13:49:30.095Z</time>
      </trkpt>
      <trkpt lat="46.8749" lon="8.47275">
        <ele>2108</ele>
        <time>2021-08-11T13:49:31.095Z</time>
      </trkpt>
      <trkpt lat="46.87488" lon="8.47273">
        <ele>2108</ele>
        <time>2021-08-11T13:49:32.097Z</time>
      </trkpt>
      <trkpt lat="46.87489" lon="8.47273">
        <ele>2108</ele>
        <time>2021-08-11T13:49:33.097Z</time>
      </trkpt>
      <trkpt lat="46.8749" lon="8.47273">
        <ele>2107</ele>
        <time>2021-08-11T13:49:34.097Z</time>
      </trkpt>
      <trkpt lat="46.87489" lon="8.47272">
        <ele>2115</ele>
        <time>2021-08-11T13:49:35.097Z</time>
      </trkpt>
      <trkpt lat="46.87489" lon="8.47271">
        <ele>2116</ele>
        <time>2021-08-11T13:49:36.096Z</time>
      </trkpt>
      <trkpt lat="46.87489" lon="8.4727">
        <ele>2116</ele>
        <time>2021-08-11T13:49:37.097Z</time>
      </trkpt>
      <trkpt lat="46.87489" lon="8.4727">
        <ele>2117</ele>
        <time>2021-08-11T13:49:38.097Z</time>
      </trkpt>
      <trkpt lat="46.87488" lon="8.47269">
        <ele>2118</ele>
        <time>2021-08-11T13:49:39.097Z</time>
      </trkpt>
      <trkpt lat="46.87488" lon="8.47269">
        <ele>2119</ele>
        <time>2021-08-11T13:49:40.096Z</time>
      </trkpt>
      <trkpt lat="46.87488" lon="8.47268">
        <ele>2120</ele>
        <time>2021-08-11T13:49:41.097Z</time>
      </trkpt>
      <trkpt lat="46.87488" lon="8.47267">
        <ele>2121</ele>
        <time>2021-08-11T13:49:42.098Z</time>
      </trkpt>
      <trkpt lat="46.87488" lon="8.47267">
        <ele>2121</ele>
        <time>2021-08-11T13:49:43.097Z</time>
      </trkpt>
      <trkpt lat="46.87488" lon="8.47271">
        <ele>2112</ele>
        <time>2021-08-11T13:49:44.098Z</time>
      </trkpt>
      <trkpt lat="46.87487" lon="8.47273">
        <ele>2111</ele>
        <time>2021-08-11T13:49:45.098Z</time>
      </trkpt>
      <trkpt lat="46.87487" lon="8.47274">
        <ele>2111</ele>
        <time>2021-08-11T13:49:46.098Z</time>
      </trkpt>
      <trkpt lat="46.87487" lon="8.47274">
        <ele>2110</ele>
        <time>2021-08-11T13:49:47.098Z</time>
      </trkpt>
      <trkpt lat="46.87487" lon="8.47273">
        <ele>2110</ele>
        <time>2021-08-11T13:49:48.098Z</time>
      </trkpt>
      <trkpt lat="46.87489" lon="8.47274">
        <ele>2108</ele>
        <time>2021-08-11T13:49:49.099Z</time>
      </trkpt>
      <trkpt lat="46.87489" lon="8.47274">
        <ele>2108</ele>
        <time>2021-08-11T13:49:50.099Z</time>
      </trkpt>
      <trkpt lat="46.87489" lon="8.47274">
        <ele>2108</ele>
        <time>2021-08-11T13:49:51.098Z</time>
      </trkpt>
      <trkpt lat="46.87489" lon="8.47273">
        <ele>2108</ele>
        <time>2021-08-11T13:49:52.098Z</time>
      </trkpt>
      <trkpt lat="46.87488" lon="8.47273">
        <ele>2108</ele>
        <time>2021-08-11T13:49:53.098Z</time>
      </trkpt>
      <trkpt lat="46.87487" lon="8.47271">
        <ele>2111</ele>
        <time>2021-08-11T13:49:54.098Z</time>
      </trkpt>
      <trkpt lat="46.87487" lon="8.4727">
        <ele>2111</ele>
        <time>2021-08-11T13:49:55.098Z</time>
      </trkpt>
      <trkpt lat="46.87487" lon="8.47269">
        <ele>2111</ele>
        <time>2021-08-11T13:49:58.065Z</time>
      </trkpt>
      <trkpt lat="46.87486" lon="8.47269">
        <ele>2112</ele>
        <time>2021-08-11T13:50:10.834Z</time>
      </trkpt>
      <trkpt lat="46.87486" lon="8.47268">
        <ele>2112</ele>
        <time>2021-08-11T13:50:11.834Z</time>
      </trkpt>
      <trkpt lat="46.87485" lon="8.47267">
        <ele>2113</ele>
        <time>2021-08-11T13:50:12.833Z</time>
      </trkpt>
      <trkpt lat="46.87485" lon="8.47266">
        <ele>2113</ele>
        <time>2021-08-11T13:50:15.917Z</time>
      </trkpt>
      <trkpt lat="46.87484" lon="8.47266">
        <ele>2113</ele>
        <time>2021-08-11T13:50:16.917Z</time>
      </trkpt>
      <trkpt lat="46.87485" lon="8.47265">
        <ele>2114</ele>
        <time>2021-08-11T13:50:17.917Z</time>
      </trkpt>
      <trkpt lat="46.87484" lon="8.47265">
        <ele>2114</ele>
        <time>2021-08-11T13:50:20.919Z</time>
      </trkpt>
      <trkpt lat="46.87484" lon="8.47265">
        <ele>2115</ele>
        <time>2021-08-11T13:50:21.918Z</time>
      </trkpt>
      <trkpt lat="46.87483" lon="8.47264">
        <ele>2116</ele>
        <time>2021-08-11T13:50:22.919Z</time>
      </trkpt>
      <trkpt lat="46.87483" lon="8.47264">
        <ele>2117</ele>
        <time>2021-08-11T13:50:23.919Z</time>
      </trkpt>
      <trkpt lat="46.87483" lon="8.47263">
        <ele>2117</ele>
        <time>2021-08-11T13:50:24.919Z</time>
      </trkpt>
      <trkpt lat="46.87482" lon="8.47263">
        <ele>2118</ele>
        <time>2021-08-11T13:50:25.918Z</time>
      </trkpt>
      <trkpt lat="46.87482" lon="8.47262">
        <ele>2118</ele>
        <time>2021-08-11T13:50:26.919Z</time>
      </trkpt>
      <trkpt lat="46.87481" lon="8.47262">
        <ele>2118</ele>
        <time>2021-08-11T13:50:27.918Z</time>
      </trkpt>
      <trkpt lat="46.87481" lon="8.47262">
        <ele>2118</ele>
        <time>2021-08-11T13:50:28.919Z</time>
      </trkpt>
      <trkpt lat="46.87481" lon="8.47262">
        <ele>2118</ele>
        <time>2021-08-11T13:50:29.918Z</time>
      </trkpt>
      <trkpt lat="46.8748" lon="8.47261">
        <ele>2118</ele>
        <time>2021-08-11T13:50:30.919Z</time>
      </trkpt>
      <trkpt lat="46.8748" lon="8.47261">
        <ele>2118</ele>
        <time>2021-08-11T13:50:31.919Z</time>
      </trkpt>
      <trkpt lat="46.87479" lon="8.4726">
        <ele>2118</ele>
        <time>2021-08-11T13:50:32.919Z</time>
      </trkpt>
      <trkpt lat="46.87477" lon="8.47259">
        <ele>2119</ele>
        <time>2021-08-11T13:50:33.919Z</time>
      </trkpt>
      <trkpt lat="46.87477" lon="8.47258">
        <ele>2119</ele>
        <time>2021-08-11T13:50:34.918Z</time>
      </trkpt>
      <trkpt lat="46.87476" lon="8.47257">
        <ele>2119</ele>
        <time>2021-08-11T13:50:35.919Z</time>
      </trkpt>
      <trkpt lat="46.87475" lon="8.47256">
        <ele>2118</ele>
        <time>2021-08-11T13:50:36.919Z</time>
      </trkpt>
      <trkpt lat="46.87474" lon="8.47255">
        <ele>2118</ele>
        <time>2021-08-11T13:50:37.919Z</time>
      </trkpt>
      <trkpt lat="46.87473" lon="8.47254">
        <ele>2119</ele>
        <time>2021-08-11T13:50:38.919Z</time>
      </trkpt>
      <trkpt lat="46.87472" lon="8.47254">
        <ele>2119</ele>
        <time>2021-08-11T13:50:39.918Z</time>
      </trkpt>
      <trkpt lat="46.87472" lon="8.47253">
        <ele>2120</ele>
        <time>2021-08-11T13:50:40.919Z</time>
      </trkpt>
      <trkpt lat="46.87471" lon="8.47252">
        <ele>2121</ele>
        <time>2021-08-11T13:50:41.919Z</time>
      </trkpt>
      <trkpt lat="46.87471" lon="8.47251">
        <ele>2121</ele>
        <time>2021-08-11T13:50:42.919Z</time>
      </trkpt>
      <trkpt lat="46.8747" lon="8.4725">
        <ele>2121</ele>
        <time>2021-08-11T13:50:43.918Z</time>
      </trkpt>
      <trkpt lat="46.87469" lon="8.47249">
        <ele>2121</ele>
        <time>2021-08-11T13:50:44.919Z</time>
      </trkpt>
      <trkpt lat="46.87469" lon="8.47248">
        <ele>2121</ele>
        <time>2021-08-11T13:50:45.919Z</time>
      </trkpt>
      <trkpt lat="46.87468" lon="8.47247">
        <ele>2121</ele>
        <time>2021-08-11T13:50:46.919Z</time>
      </trkpt>
      <trkpt lat="46.87467" lon="8.47245">
        <ele>2121</ele>
        <time>2021-08-11T13:50:47.919Z</time>
      </trkpt>
      <trkpt lat="46.87466" lon="8.47245">
        <ele>2121</ele>
        <time>2021-08-11T13:50:48.918Z</time>
      </trkpt>
      <trkpt lat="46.87465" lon="8.47244">
        <ele>2121</ele>
        <time>2021-08-11T13:50:49.919Z</time>
      </trkpt>
      <trkpt lat="46.87464" lon="8.47244">
        <ele>2121</ele>
        <time>2021-08-11T13:50:50.919Z</time>
      </trkpt>
      <trkpt lat="46.87464" lon="8.47244">
        <ele>2122</ele>
        <time>2021-08-11T13:50:51.919Z</time>
      </trkpt>
      <trkpt lat="46.87463" lon="8.47243">
        <ele>2122</ele>
        <time>2021-08-11T13:50:52.919Z</time>
      </trkpt>
      <trkpt lat="46.87462" lon="8.47243">
        <ele>2123</ele>
        <time>2021-08-11T13:50:53.918Z</time>
      </trkpt>
      <trkpt lat="46.87461" lon="8.47243">
        <ele>2123</ele>
        <time>2021-08-11T13:50:54.918Z</time>
      </trkpt>
      <trkpt lat="46.87461" lon="8.47243">
        <ele>2123</ele>
        <time>2021-08-11T13:50:55.918Z</time>
      </trkpt>
      <trkpt lat="46.8746" lon="8.47243">
        <ele>2122</ele>
        <time>2021-08-11T13:50:56.918Z</time>
      </trkpt>
      <trkpt lat="46.8746" lon="8.47242">
        <ele>2122</ele>
        <time>2021-08-11T13:50:57.918Z</time>
      </trkpt>
      <trkpt lat="46.8746" lon="8.47241">
        <ele>2122</ele>
        <time>2021-08-11T13:50:58.918Z</time>
      </trkpt>
      <trkpt lat="46.87459" lon="8.4724">
        <ele>2121</ele>
        <time>2021-08-11T13:50:59.919Z</time>
      </trkpt>
      <trkpt lat="46.87459" lon="8.4724">
        <ele>2121</ele>
        <time>2021-08-11T13:51:00.919Z</time>
      </trkpt>
      <trkpt lat="46.87459" lon="8.47239">
        <ele>2121</ele>
        <time>2021-08-11T13:51:01.918Z</time>
      </trkpt>
      <trkpt lat="46.87458" lon="8.47239">
        <ele>2122</ele>
        <time>2021-08-11T13:51:03.957Z</time>
      </trkpt>
      <trkpt lat="46.87457" lon="8.47239">
        <ele>2122</ele>
        <time>2021-08-11T13:51:04.957Z</time>
      </trkpt>
      <trkpt lat="46.87456" lon="8.47239">
        <ele>2122</ele>
        <time>2021-08-11T13:51:05.957Z</time>
      </trkpt>
      <trkpt lat="46.87455" lon="8.47239">
        <ele>2122</ele>
        <time>2021-08-11T13:51:06.956Z</time>
      </trkpt>
      <trkpt lat="46.87454" lon="8.47239">
        <ele>2123</ele>
        <time>2021-08-11T13:51:07.957Z</time>
      </trkpt>
      <trkpt lat="46.87454" lon="8.47239">
        <ele>2123</ele>
        <time>2021-08-11T13:51:08.957Z</time>
      </trkpt>
      <trkpt lat="46.87453" lon="8.47239">
        <ele>2124</ele>
        <time>2021-08-11T13:51:09.957Z</time>
      </trkpt>
      <trkpt lat="46.87452" lon="8.47238">
        <ele>2125</ele>
        <time>2021-08-11T13:51:10.957Z</time>
      </trkpt>
      <trkpt lat="46.87451" lon="8.47238">
        <ele>2126</ele>
        <time>2021-08-11T13:51:11.956Z</time>
      </trkpt>
      <trkpt lat="46.87451" lon="8.47238">
        <ele>2126</ele>
        <time>2021-08-11T13:51:12.957Z</time>
      </trkpt>
      <trkpt lat="46.8745" lon="8.47238">
        <ele>2127</ele>
        <time>2021-08-11T13:51:13.957Z</time>
      </trkpt>
      <trkpt lat="46.87449" lon="8.47238">
        <ele>2127</ele>
        <time>2021-08-11T13:51:14.957Z</time>
      </trkpt>
      <trkpt lat="46.87448" lon="8.47238">
        <ele>2128</ele>
        <time>2021-08-11T13:51:15.956Z</time>
      </trkpt>
      <trkpt lat="46.87448" lon="8.47237">
        <ele>2129</ele>
        <time>2021-08-11T13:51:16.957Z</time>
      </trkpt>
      <trkpt lat="46.87448" lon="8.47237">
        <ele>2130</ele>
        <time>2021-08-11T13:51:17.957Z</time>
      </trkpt>
      <trkpt lat="46.87448" lon="8.47236">
        <ele>2130</ele>
        <time>2021-08-11T13:51:18.957Z</time>
      </trkpt>
      <trkpt lat="46.87447" lon="8.47236">
        <ele>2131</ele>
        <time>2021-08-11T13:51:19.957Z</time>
      </trkpt>
      <trkpt lat="46.87447" lon="8.47235">
        <ele>2131</ele>
        <time>2021-08-11T13:51:20.957Z</time>
      </trkpt>
      <trkpt lat="46.87447" lon="8.47234">
        <ele>2131</ele>
        <time>2021-08-11T13:51:21.956Z</time>
      </trkpt>
      <trkpt lat="46.87446" lon="8.47234">
        <ele>2131</ele>
        <time>2021-08-11T13:51:22.956Z</time>
      </trkpt>
      <trkpt lat="46.87446" lon="8.47233">
        <ele>2131</ele>
        <time>2021-08-11T13:51:23.956Z</time>
      </trkpt>
      <trkpt lat="46.87445" lon="8.47233">
        <ele>2131</ele>
        <time>2021-08-11T13:51:24.957Z</time>
      </trkpt>
      <trkpt lat="46.87445" lon="8.47234">
        <ele>2131</ele>
        <time>2021-08-11T13:51:25.956Z</time>
      </trkpt>
      <trkpt lat="46.87445" lon="8.47234">
        <ele>2131</ele>
        <time>2021-08-11T13:51:26.956Z</time>
      </trkpt>
      <trkpt lat="46.87445" lon="8.47234">
        <ele>2131</ele>
        <time>2021-08-11T13:51:27.956Z</time>
      </trkpt>
      <trkpt lat="46.87445" lon="8.47233">
        <ele>2131</ele>
        <time>2021-08-11T13:51:28.957Z</time>
      </trkpt>
      <trkpt lat="46.87445" lon="8.47233">
        <ele>2131</ele>
        <time>2021-08-11T13:51:29.956Z</time>
      </trkpt>
      <trkpt lat="46.87445" lon="8.47232">
        <ele>2131</ele>
        <time>2021-08-11T13:51:30.956Z</time>
      </trkpt>
      <trkpt lat="46.87445" lon="8.47232">
        <ele>2131</ele>
        <time>2021-08-11T13:51:31.956Z</time>
      </trkpt>
      <trkpt lat="46.87446" lon="8.4723">
        <ele>2135</ele>
        <time>2021-08-11T13:51:32.958Z</time>
      </trkpt>
      <trkpt lat="46.87446" lon="8.47229">
        <ele>2135</ele>
        <time>2021-08-11T13:51:33.958Z</time>
      </trkpt>
      <trkpt lat="46.87445" lon="8.47229">
        <ele>2135</ele>
        <time>2021-08-11T13:51:34.958Z</time>
      </trkpt>
      <trkpt lat="46.87445" lon="8.47229">
        <ele>2136</ele>
        <time>2021-08-11T13:51:35.958Z</time>
      </trkpt>
      <trkpt lat="46.87444" lon="8.47229">
        <ele>2136</ele>
        <time>2021-08-11T13:51:36.958Z</time>
      </trkpt>
      <trkpt lat="46.87444" lon="8.47229">
        <ele>2136</ele>
        <time>2021-08-11T13:51:37.958Z</time>
      </trkpt>
      <trkpt lat="46.87444" lon="8.4723">
        <ele>2135</ele>
        <time>2021-08-11T13:51:38.957Z</time>
      </trkpt>
      <trkpt lat="46.87444" lon="8.4723">
        <ele>2134</ele>
        <time>2021-08-11T13:51:39.957Z</time>
      </trkpt>
      <trkpt lat="46.87444" lon="8.4723">
        <ele>2134</ele>
        <time>2021-08-11T13:51:40.958Z</time>
      </trkpt>
      <trkpt lat="46.87444" lon="8.47231">
        <ele>2134</ele>
        <time>2021-08-11T13:51:41.957Z</time>
      </trkpt>
      <trkpt lat="46.87444" lon="8.47231">
        <ele>2134</ele>
        <time>2021-08-11T13:51:42.958Z</time>
      </trkpt>
      <trkpt lat="46.87443" lon="8.47231">
        <ele>2134</ele>
        <time>2021-08-11T13:51:43.958Z</time>
      </trkpt>
      <trkpt lat="46.87442" lon="8.47231">
        <ele>2134</ele>
        <time>2021-08-11T13:51:44.958Z</time>
      </trkpt>
      <trkpt lat="46.87442" lon="8.47231">
        <ele>2134</ele>
        <time>2021-08-11T13:51:45.957Z</time>
      </trkpt>
      <trkpt lat="46.87442" lon="8.4723">
        <ele>2134</ele>
        <time>2021-08-11T13:51:46.958Z</time>
      </trkpt>
      <trkpt lat="46.87443" lon="8.47228">
        <ele>2133</ele>
        <time>2021-08-11T13:51:47.959Z</time>
      </trkpt>
      <trkpt lat="46.87442" lon="8.47228">
        <ele>2133</ele>
        <time>2021-08-11T13:51:48.958Z</time>
      </trkpt>
      <trkpt lat="46.87441" lon="8.47227">
        <ele>2133</ele>
        <time>2021-08-11T13:51:49.958Z</time>
      </trkpt>
      <trkpt lat="46.87441" lon="8.47227">
        <ele>2133</ele>
        <time>2021-08-11T13:51:50.959Z</time>
      </trkpt>
      <trkpt lat="46.87441" lon="8.47226">
        <ele>2137</ele>
        <time>2021-08-11T13:51:51.958Z</time>
      </trkpt>
      <trkpt lat="46.8744" lon="8.47226">
        <ele>2137</ele>
        <time>2021-08-11T13:51:52.959Z</time>
      </trkpt>
      <trkpt lat="46.8744" lon="8.47225">
        <ele>2136</ele>
        <time>2021-08-11T13:51:53.958Z</time>
      </trkpt>
      <trkpt lat="46.8744" lon="8.47225">
        <ele>2135</ele>
        <time>2021-08-11T13:51:54.959Z</time>
      </trkpt>
      <trkpt lat="46.8744" lon="8.47224">
        <ele>2135</ele>
        <time>2021-08-11T13:51:55.959Z</time>
      </trkpt>
      <trkpt lat="46.8744" lon="8.47224">
        <ele>2134</ele>
        <time>2021-08-11T13:51:56.959Z</time>
      </trkpt>
      <trkpt lat="46.87439" lon="8.47224">
        <ele>2133</ele>
        <time>2021-08-11T13:51:57.958Z</time>
      </trkpt>
      <trkpt lat="46.87438" lon="8.47223">
        <ele>2132</ele>
        <time>2021-08-11T13:52:06.056Z</time>
      </trkpt>
      <trkpt lat="46.87438" lon="8.47222">
        <ele>2131</ele>
        <time>2021-08-11T13:52:07.056Z</time>
      </trkpt>
      <trkpt lat="46.87437" lon="8.47221">
        <ele>2131</ele>
        <time>2021-08-11T13:52:08.055Z</time>
      </trkpt>
      <trkpt lat="46.87437" lon="8.4722">
        <ele>2130</ele>
        <time>2021-08-11T13:52:21.059Z</time>
      </trkpt>
      <trkpt lat="46.87437" lon="8.4722">
        <ele>2129</ele>
        <time>2021-08-11T13:52:22.792Z</time>
      </trkpt>
      <trkpt lat="46.87437" lon="8.47219">
        <ele>2129</ele>
        <time>2021-08-11T13:52:23.793Z</time>
      </trkpt>
      <trkpt lat="46.87436" lon="8.47219">
        <ele>2128</ele>
        <time>2021-08-11T13:52:24.793Z</time>
      </trkpt>
      <trkpt lat="46.87436" lon="8.47218">
        <ele>2128</ele>
        <time>2021-08-11T13:52:38.811Z</time>
      </trkpt>
      <trkpt lat="46.87435" lon="8.47218">
        <ele>2128</ele>
        <time>2021-08-11T13:52:39.811Z</time>
      </trkpt>
      <trkpt lat="46.87434" lon="8.47218">
        <ele>2128</ele>
        <time>2021-08-11T13:52:40.812Z</time>
      </trkpt>
      <trkpt lat="46.87435" lon="8.47221">
        <ele>2129</ele>
        <time>2021-08-11T13:52:41.813Z</time>
      </trkpt>
      <trkpt lat="46.87436" lon="8.47221">
        <ele>2130</ele>
        <time>2021-08-11T13:52:42.813Z</time>
      </trkpt>
      <trkpt lat="46.87436" lon="8.47222">
        <ele>2131</ele>
        <time>2021-08-11T13:52:43.812Z</time>
      </trkpt>
      <trkpt lat="46.87434" lon="8.47218">
        <ele>2134</ele>
        <time>2021-08-11T13:52:44.812Z</time>
      </trkpt>
      <trkpt lat="46.87433" lon="8.47218">
        <ele>2134</ele>
        <time>2021-08-11T13:52:45.813Z</time>
      </trkpt>
      <trkpt lat="46.87432" lon="8.47217">
        <ele>2134</ele>
        <time>2021-08-11T13:52:46.812Z</time>
      </trkpt>
      <trkpt lat="46.87431" lon="8.47216">
        <ele>2135</ele>
        <time>2021-08-11T13:52:47.813Z</time>
      </trkpt>
      <trkpt lat="46.8743" lon="8.47216">
        <ele>2136</ele>
        <time>2021-08-11T13:52:48.813Z</time>
      </trkpt>
      <trkpt lat="46.8743" lon="8.47214">
        <ele>2136</ele>
        <time>2021-08-11T13:52:49.812Z</time>
      </trkpt>
      <trkpt lat="46.8743" lon="8.47213">
        <ele>2137</ele>
        <time>2021-08-11T13:52:50.812Z</time>
      </trkpt>
      <trkpt lat="46.8743" lon="8.47213">
        <ele>2137</ele>
        <time>2021-08-11T13:52:51.812Z</time>
      </trkpt>
      <trkpt lat="46.8743" lon="8.47212">
        <ele>2138</ele>
        <time>2021-08-11T13:52:52.813Z</time>
      </trkpt>
      <trkpt lat="46.8743" lon="8.47212">
        <ele>2138</ele>
        <time>2021-08-11T13:52:53.813Z</time>
      </trkpt>
      <trkpt lat="46.87431" lon="8.47211">
        <ele>2138</ele>
        <time>2021-08-11T13:52:54.812Z</time>
      </trkpt>
      <trkpt lat="46.87432" lon="8.4721">
        <ele>2139</ele>
        <time>2021-08-11T13:52:55.813Z</time>
      </trkpt>
      <trkpt lat="46.87432" lon="8.47209">
        <ele>2139</ele>
        <time>2021-08-11T13:52:56.813Z</time>
      </trkpt>
      <trkpt lat="46.87432" lon="8.47208">
        <ele>2139</ele>
        <time>2021-08-11T13:52:57.813Z</time>
      </trkpt>
      <trkpt lat="46.87432" lon="8.47207">
        <ele>2139</ele>
        <time>2021-08-11T13:52:58.813Z</time>
      </trkpt>
      <trkpt lat="46.87432" lon="8.47207">
        <ele>2140</ele>
        <time>2021-08-11T13:52:59.813Z</time>
      </trkpt>
      <trkpt lat="46.87432" lon="8.47207">
        <ele>2140</ele>
        <time>2021-08-11T13:53:00.813Z</time>
      </trkpt>
      <trkpt lat="46.87431" lon="8.47206">
        <ele>2140</ele>
        <time>2021-08-11T13:53:01.812Z</time>
      </trkpt>
      <trkpt lat="46.87431" lon="8.47206">
        <ele>2140</ele>
        <time>2021-08-11T13:53:02.812Z</time>
      </trkpt>
      <trkpt lat="46.87431" lon="8.47205">
        <ele>2141</ele>
        <time>2021-08-11T13:53:03.813Z</time>
      </trkpt>
      <trkpt lat="46.87431" lon="8.47205">
        <ele>2141</ele>
        <time>2021-08-11T13:53:04.813Z</time>
      </trkpt>
      <trkpt lat="46.87431" lon="8.47204">
        <ele>2142</ele>
        <time>2021-08-11T13:53:05.813Z</time>
      </trkpt>
      <trkpt lat="46.87431" lon="8.47204">
        <ele>2142</ele>
        <time>2021-08-11T13:53:06.813Z</time>
      </trkpt>
      <trkpt lat="46.87431" lon="8.47203">
        <ele>2142</ele>
        <time>2021-08-11T13:53:07.812Z</time>
      </trkpt>
      <trkpt lat="46.87431" lon="8.47203">
        <ele>2142</ele>
        <time>2021-08-11T13:53:08.813Z</time>
      </trkpt>
      <trkpt lat="46.87431" lon="8.47201">
        <ele>2141</ele>
        <time>2021-08-11T13:53:09.814Z</time>
      </trkpt>
      <trkpt lat="46.8743" lon="8.472">
        <ele>2140</ele>
        <time>2021-08-11T13:53:10.813Z</time>
      </trkpt>
      <trkpt lat="46.8743" lon="8.47199">
        <ele>2140</ele>
        <time>2021-08-11T13:53:11.813Z</time>
      </trkpt>
      <trkpt lat="46.8743" lon="8.47198">
        <ele>2140</ele>
        <time>2021-08-11T13:53:12.814Z</time>
      </trkpt>
      <trkpt lat="46.87429" lon="8.47197">
        <ele>2139</ele>
        <time>2021-08-11T13:53:13.813Z</time>
      </trkpt>
      <trkpt lat="46.87429" lon="8.47197">
        <ele>2139</ele>
        <time>2021-08-11T13:53:14.814Z</time>
      </trkpt>
      <trkpt lat="46.87429" lon="8.47196">
        <ele>2139</ele>
        <time>2021-08-11T13:53:15.813Z</time>
      </trkpt>
      <trkpt lat="46.87429" lon="8.47196">
        <ele>2139</ele>
        <time>2021-08-11T13:53:16.814Z</time>
      </trkpt>
      <trkpt lat="46.87429" lon="8.47196">
        <ele>2138</ele>
        <time>2021-08-11T13:53:17.814Z</time>
      </trkpt>
      <trkpt lat="46.87429" lon="8.47196">
        <ele>2138</ele>
        <time>2021-08-11T13:53:18.813Z</time>
      </trkpt>
      <trkpt lat="46.87428" lon="8.47197">
        <ele>2138</ele>
        <time>2021-08-11T13:53:19.813Z</time>
      </trkpt>
      <trkpt lat="46.87429" lon="8.47196">
        <ele>2136</ele>
        <time>2021-08-11T13:53:20.815Z</time>
      </trkpt>
      <trkpt lat="46.87428" lon="8.47196">
        <ele>2137</ele>
        <time>2021-08-11T13:53:21.815Z</time>
      </trkpt>
      <trkpt lat="46.87428" lon="8.47196">
        <ele>2137</ele>
        <time>2021-08-11T13:53:22.814Z</time>
      </trkpt>
      <trkpt lat="46.87428" lon="8.47195">
        <ele>2138</ele>
        <time>2021-08-11T13:53:23.815Z</time>
      </trkpt>
      <trkpt lat="46.87427" lon="8.47195">
        <ele>2138</ele>
        <time>2021-08-11T13:53:24.815Z</time>
      </trkpt>
      <trkpt lat="46.87427" lon="8.47195">
        <ele>2138</ele>
        <time>2021-08-11T13:53:25.815Z</time>
      </trkpt>
      <trkpt lat="46.87427" lon="8.47195">
        <ele>2138</ele>
        <time>2021-08-11T13:53:26.814Z</time>
      </trkpt>
      <trkpt lat="46.87426" lon="8.47194">
        <ele>2138</ele>
        <time>2021-08-11T13:53:27.814Z</time>
      </trkpt>
      <trkpt lat="46.87426" lon="8.47194">
        <ele>2139</ele>
        <time>2021-08-11T13:53:28.815Z</time>
      </trkpt>
      <trkpt lat="46.87425" lon="8.47194">
        <ele>2139</ele>
        <time>2021-08-11T13:53:29.815Z</time>
      </trkpt>
      <trkpt lat="46.87425" lon="8.47193">
        <ele>2139</ele>
        <time>2021-08-11T13:53:30.814Z</time>
      </trkpt>
      <trkpt lat="46.87424" lon="8.47192">
        <ele>2139</ele>
        <time>2021-08-11T13:53:31.815Z</time>
      </trkpt>
      <trkpt lat="46.87424" lon="8.47192">
        <ele>2139</ele>
        <time>2021-08-11T13:53:32.815Z</time>
      </trkpt>
      <trkpt lat="46.87424" lon="8.47191">
        <ele>2139</ele>
        <time>2021-08-11T13:53:33.815Z</time>
      </trkpt>
      <trkpt lat="46.87424" lon="8.47189">
        <ele>2140</ele>
        <time>2021-08-11T13:53:34.815Z</time>
      </trkpt>
      <trkpt lat="46.87424" lon="8.47188">
        <ele>2140</ele>
        <time>2021-08-11T13:53:35.815Z</time>
      </trkpt>
      <trkpt lat="46.87425" lon="8.47187">
        <ele>2140</ele>
        <time>2021-08-11T13:53:36.815Z</time>
      </trkpt>
      <trkpt lat="46.87425" lon="8.47187">
        <ele>2140</ele>
        <time>2021-08-11T13:53:37.815Z</time>
      </trkpt>
      <trkpt lat="46.87425" lon="8.47187">
        <ele>2141</ele>
        <time>2021-08-11T13:53:38.815Z</time>
      </trkpt>
      <trkpt lat="46.87424" lon="8.47185">
        <ele>2141</ele>
        <time>2021-08-11T13:53:39.815Z</time>
      </trkpt>
      <trkpt lat="46.87424" lon="8.47185">
        <ele>2142</ele>
        <time>2021-08-11T13:53:40.815Z</time>
      </trkpt>
      <trkpt lat="46.87424" lon="8.47185">
        <ele>2143</ele>
        <time>2021-08-11T13:53:41.815Z</time>
      </trkpt>
      <trkpt lat="46.87424" lon="8.47184">
        <ele>2143</ele>
        <time>2021-08-11T13:53:42.815Z</time>
      </trkpt>
      <trkpt lat="46.87423" lon="8.47184">
        <ele>2144</ele>
        <time>2021-08-11T13:53:43.815Z</time>
      </trkpt>
      <trkpt lat="46.87423" lon="8.47183">
        <ele>2145</ele>
        <time>2021-08-11T13:53:44.815Z</time>
      </trkpt>
      <trkpt lat="46.87423" lon="8.47183">
        <ele>2146</ele>
        <time>2021-08-11T13:53:45.815Z</time>
      </trkpt>
      <trkpt lat="46.87423" lon="8.47183">
        <ele>2146</ele>
        <time>2021-08-11T13:53:46.814Z</time>
      </trkpt>
      <trkpt lat="46.87424" lon="8.47182">
        <ele>2147</ele>
        <time>2021-08-11T13:53:47.815Z</time>
      </trkpt>
      <trkpt lat="46.87424" lon="8.47183">
        <ele>2147</ele>
        <time>2021-08-11T13:53:48.815Z</time>
      </trkpt>
      <trkpt lat="46.87422" lon="8.47182">
        <ele>2150</ele>
        <time>2021-08-11T13:53:49.816Z</time>
      </trkpt>
      <trkpt lat="46.87424" lon="8.47184">
        <ele>2151</ele>
        <time>2021-08-11T13:53:50.816Z</time>
      </trkpt>
      <trkpt lat="46.87424" lon="8.47184">
        <ele>2151</ele>
        <time>2021-08-11T13:53:51.816Z</time>
      </trkpt>
      <trkpt lat="46.87424" lon="8.47182">
        <ele>2152</ele>
        <time>2021-08-11T13:53:52.815Z</time>
      </trkpt>
      <trkpt lat="46.87424" lon="8.47181">
        <ele>2152</ele>
        <time>2021-08-11T13:53:53.815Z</time>
      </trkpt>
      <trkpt lat="46.87424" lon="8.4718">
        <ele>2152</ele>
        <time>2021-08-11T13:53:54.816Z</time>
      </trkpt>
      <trkpt lat="46.87424" lon="8.47178">
        <ele>2153</ele>
        <time>2021-08-11T13:53:55.815Z</time>
      </trkpt>
      <trkpt lat="46.87424" lon="8.47177">
        <ele>2153</ele>
        <time>2021-08-11T13:53:56.815Z</time>
      </trkpt>
      <trkpt lat="46.87423" lon="8.47177">
        <ele>2153</ele>
        <time>2021-08-11T13:53:57.816Z</time>
      </trkpt>
      <trkpt lat="46.87423" lon="8.47176">
        <ele>2155</ele>
        <time>2021-08-11T13:53:58.817Z</time>
      </trkpt>
      <trkpt lat="46.87423" lon="8.47176">
        <ele>2156</ele>
        <time>2021-08-11T13:53:59.817Z</time>
      </trkpt>
      <trkpt lat="46.87422" lon="8.47175">
        <ele>2158</ele>
        <time>2021-08-11T13:54:00.817Z</time>
      </trkpt>
      <trkpt lat="46.87422" lon="8.47175">
        <ele>2158</ele>
        <time>2021-08-11T13:54:01.817Z</time>
      </trkpt>
      <trkpt lat="46.87422" lon="8.47174">
        <ele>2159</ele>
        <time>2021-08-11T13:54:02.816Z</time>
      </trkpt>
      <trkpt lat="46.87422" lon="8.47173">
        <ele>2160</ele>
        <time>2021-08-11T13:54:03.817Z</time>
      </trkpt>
      <trkpt lat="46.87421" lon="8.47172">
        <ele>2160</ele>
        <time>2021-08-11T13:54:04.817Z</time>
      </trkpt>
      <trkpt lat="46.87421" lon="8.47171">
        <ele>2160</ele>
        <time>2021-08-11T13:54:05.816Z</time>
      </trkpt>
      <trkpt lat="46.87421" lon="8.47171">
        <ele>2160</ele>
        <time>2021-08-11T13:54:06.817Z</time>
      </trkpt>
      <trkpt lat="46.87421" lon="8.4717">
        <ele>2160</ele>
        <time>2021-08-11T13:54:07.817Z</time>
      </trkpt>
      <trkpt lat="46.87421" lon="8.4717">
        <ele>2159</ele>
        <time>2021-08-11T13:54:08.816Z</time>
      </trkpt>
      <trkpt lat="46.87421" lon="8.47169">
        <ele>2159</ele>
        <time>2021-08-11T13:54:09.817Z</time>
      </trkpt>
      <trkpt lat="46.87421" lon="8.47169">
        <ele>2159</ele>
        <time>2021-08-11T13:54:10.817Z</time>
      </trkpt>
      <trkpt lat="46.8742" lon="8.47169">
        <ele>2158</ele>
        <time>2021-08-11T13:54:11.816Z</time>
      </trkpt>
      <trkpt lat="46.8742" lon="8.47168">
        <ele>2158</ele>
        <time>2021-08-11T13:54:12.817Z</time>
      </trkpt>
      <trkpt lat="46.8742" lon="8.47168">
        <ele>2157</ele>
        <time>2021-08-11T13:54:13.817Z</time>
      </trkpt>
      <trkpt lat="46.8742" lon="8.47167">
        <ele>2157</ele>
        <time>2021-08-11T13:54:14.816Z</time>
      </trkpt>
      <trkpt lat="46.8742" lon="8.47167">
        <ele>2155</ele>
        <time>2021-08-11T13:54:15.816Z</time>
      </trkpt>
      <trkpt lat="46.8742" lon="8.47167">
        <ele>2155</ele>
        <time>2021-08-11T13:54:16.817Z</time>
      </trkpt>
      <trkpt lat="46.8742" lon="8.47166">
        <ele>2155</ele>
        <time>2021-08-11T13:54:17.816Z</time>
      </trkpt>
      <trkpt lat="46.87419" lon="8.47166">
        <ele>2155</ele>
        <time>2021-08-11T13:54:18.816Z</time>
      </trkpt>
      <trkpt lat="46.87418" lon="8.47165">
        <ele>2155</ele>
        <time>2021-08-11T13:54:19.817Z</time>
      </trkpt>
      <trkpt lat="46.87417" lon="8.47164">
        <ele>2155</ele>
        <time>2021-08-11T13:54:20.817Z</time>
      </trkpt>
      <trkpt lat="46.87416" lon="8.47163">
        <ele>2155</ele>
        <time>2021-08-11T13:54:21.817Z</time>
      </trkpt>
      <trkpt lat="46.87416" lon="8.47162">
        <ele>2155</ele>
        <time>2021-08-11T13:54:22.817Z</time>
      </trkpt>
      <trkpt lat="46.87416" lon="8.47161">
        <ele>2155</ele>
        <time>2021-08-11T13:54:23.817Z</time>
      </trkpt>
      <trkpt lat="46.87416" lon="8.4716">
        <ele>2155</ele>
        <time>2021-08-11T13:54:24.816Z</time>
      </trkpt>
      <trkpt lat="46.87416" lon="8.4716">
        <ele>2155</ele>
        <time>2021-08-11T13:54:25.817Z</time>
      </trkpt>
      <trkpt lat="46.87415" lon="8.47159">
        <ele>2154</ele>
        <time>2021-08-11T13:54:26.817Z</time>
      </trkpt>
      <trkpt lat="46.87415" lon="8.47158">
        <ele>2155</ele>
        <time>2021-08-11T13:54:27.816Z</time>
      </trkpt>
      <trkpt lat="46.87414" lon="8.47157">
        <ele>2155</ele>
        <time>2021-08-11T13:54:28.817Z</time>
      </trkpt>
      <trkpt lat="46.87414" lon="8.47156">
        <ele>2155</ele>
        <time>2021-08-11T13:54:29.817Z</time>
      </trkpt>
      <trkpt lat="46.87414" lon="8.47156">
        <ele>2155</ele>
        <time>2021-08-11T13:54:30.816Z</time>
      </trkpt>
      <trkpt lat="46.87414" lon="8.47156">
        <ele>2155</ele>
        <time>2021-08-11T13:54:31.817Z</time>
      </trkpt>
      <trkpt lat="46.87414" lon="8.47156">
        <ele>2155</ele>
        <time>2021-08-11T13:54:32.816Z</time>
      </trkpt>
      <trkpt lat="46.87414" lon="8.47156">
        <ele>2156</ele>
        <time>2021-08-11T13:54:33.817Z</time>
      </trkpt>
      <trkpt lat="46.87413" lon="8.47155">
        <ele>2156</ele>
        <time>2021-08-11T13:54:34.817Z</time>
      </trkpt>
      <trkpt lat="46.87413" lon="8.47155">
        <ele>2156</ele>
        <time>2021-08-11T13:54:35.816Z</time>
      </trkpt>
      <trkpt lat="46.87413" lon="8.47155">
        <ele>2156</ele>
        <time>2021-08-11T13:54:36.816Z</time>
      </trkpt>
      <trkpt lat="46.87413" lon="8.47154">
        <ele>2156</ele>
        <time>2021-08-11T13:54:37.817Z</time>
      </trkpt>
      <trkpt lat="46.87413" lon="8.47154">
        <ele>2155</ele>
        <time>2021-08-11T13:54:38.817Z</time>
      </trkpt>
      <trkpt lat="46.87413" lon="8.47154">
        <ele>2155</ele>
        <time>2021-08-11T13:54:39.816Z</time>
      </trkpt>
      <trkpt lat="46.87413" lon="8.47153">
        <ele>2155</ele>
        <time>2021-08-11T13:54:40.816Z</time>
      </trkpt>
      <trkpt lat="46.87413" lon="8.47153">
        <ele>2155</ele>
        <time>2021-08-11T13:54:41.817Z</time>
      </trkpt>
      <trkpt lat="46.87412" lon="8.47152">
        <ele>2156</ele>
        <time>2021-08-11T13:54:42.817Z</time>
      </trkpt>
      <trkpt lat="46.87412" lon="8.47152">
        <ele>2156</ele>
        <time>2021-08-11T13:54:43.816Z</time>
      </trkpt>
      <trkpt lat="46.87412" lon="8.47151">
        <ele>2156</ele>
        <time>2021-08-11T13:54:44.816Z</time>
      </trkpt>
      <trkpt lat="46.87412" lon="8.47152">
        <ele>2153</ele>
        <time>2021-08-11T13:54:45.816Z</time>
      </trkpt>
      <trkpt lat="46.87412" lon="8.47152">
        <ele>2153</ele>
        <time>2021-08-11T13:54:46.816Z</time>
      </trkpt>
      <trkpt lat="46.87413" lon="8.4715">
        <ele>2153</ele>
        <time>2021-08-11T13:54:47.817Z</time>
      </trkpt>
      <trkpt lat="46.87413" lon="8.47149">
        <ele>2153</ele>
        <time>2021-08-11T13:54:48.816Z</time>
      </trkpt>
      <trkpt lat="46.87413" lon="8.47149">
        <ele>2153</ele>
        <time>2021-08-11T13:54:49.816Z</time>
      </trkpt>
      <trkpt lat="46.87413" lon="8.47147">
        <ele>2153</ele>
        <time>2021-08-11T13:54:50.817Z</time>
      </trkpt>
      <trkpt lat="46.87413" lon="8.47146">
        <ele>2153</ele>
        <time>2021-08-11T13:54:51.816Z</time>
      </trkpt>
      <trkpt lat="46.87413" lon="8.47145">
        <ele>2153</ele>
        <time>2021-08-11T13:54:52.816Z</time>
      </trkpt>
      <trkpt lat="46.87413" lon="8.47144">
        <ele>2154</ele>
        <time>2021-08-11T13:54:53.817Z</time>
      </trkpt>
      <trkpt lat="46.87413" lon="8.47143">
        <ele>2154</ele>
        <time>2021-08-11T13:54:54.816Z</time>
      </trkpt>
      <trkpt lat="46.87413" lon="8.47141">
        <ele>2155</ele>
        <time>2021-08-11T13:54:55.817Z</time>
      </trkpt>
      <trkpt lat="46.87413" lon="8.4714">
        <ele>2156</ele>
        <time>2021-08-11T13:54:56.817Z</time>
      </trkpt>
      <trkpt lat="46.87413" lon="8.47139">
        <ele>2156</ele>
        <time>2021-08-11T13:54:57.816Z</time>
      </trkpt>
      <trkpt lat="46.87413" lon="8.47137">
        <ele>2157</ele>
        <time>2021-08-11T13:54:58.817Z</time>
      </trkpt>
      <trkpt lat="46.87413" lon="8.47137">
        <ele>2157</ele>
        <time>2021-08-11T13:54:59.817Z</time>
      </trkpt>
      <trkpt lat="46.87412" lon="8.47137">
        <ele>2157</ele>
        <time>2021-08-11T13:55:00.817Z</time>
      </trkpt>
      <trkpt lat="46.87411" lon="8.47137">
        <ele>2157</ele>
        <time>2021-08-11T13:55:01.817Z</time>
      </trkpt>
      <trkpt lat="46.87411" lon="8.47137">
        <ele>2157</ele>
        <time>2021-08-11T13:55:02.817Z</time>
      </trkpt>
      <trkpt lat="46.87411" lon="8.47136">
        <ele>2157</ele>
        <time>2021-08-11T13:55:03.817Z</time>
      </trkpt>
      <trkpt lat="46.87411" lon="8.47135">
        <ele>2157</ele>
        <time>2021-08-11T13:55:04.817Z</time>
      </trkpt>
      <trkpt lat="46.87412" lon="8.47134">
        <ele>2156</ele>
        <time>2021-08-11T13:55:05.817Z</time>
      </trkpt>
      <trkpt lat="46.87412" lon="8.47133">
        <ele>2156</ele>
        <time>2021-08-11T13:55:06.817Z</time>
      </trkpt>
      <trkpt lat="46.87412" lon="8.47132">
        <ele>2156</ele>
        <time>2021-08-11T13:55:07.817Z</time>
      </trkpt>
      <trkpt lat="46.87411" lon="8.47131">
        <ele>2156</ele>
        <time>2021-08-11T13:55:08.817Z</time>
      </trkpt>
      <trkpt lat="46.87411" lon="8.4713">
        <ele>2156</ele>
        <time>2021-08-11T13:55:09.817Z</time>
      </trkpt>
      <trkpt lat="46.8741" lon="8.47129">
        <ele>2157</ele>
        <time>2021-08-11T13:55:10.817Z</time>
      </trkpt>
      <trkpt lat="46.87409" lon="8.4713">
        <ele>2157</ele>
        <time>2021-08-11T13:55:11.817Z</time>
      </trkpt>
      <trkpt lat="46.87408" lon="8.47131">
        <ele>2158</ele>
        <time>2021-08-11T13:55:12.816Z</time>
      </trkpt>
      <trkpt lat="46.87408" lon="8.47131">
        <ele>2158</ele>
        <time>2021-08-11T13:55:13.817Z</time>
      </trkpt>
      <trkpt lat="46.87407" lon="8.47132">
        <ele>2159</ele>
        <time>2021-08-11T13:55:14.817Z</time>
      </trkpt>
      <trkpt lat="46.87407" lon="8.47133">
        <ele>2159</ele>
        <time>2021-08-11T13:55:15.817Z</time>
      </trkpt>
      <trkpt lat="46.87407" lon="8.47133">
        <ele>2159</ele>
        <time>2021-08-11T13:55:16.817Z</time>
      </trkpt>
      <trkpt lat="46.87405" lon="8.47133">
        <ele>2160</ele>
        <time>2021-08-11T13:55:17.817Z</time>
      </trkpt>
      <trkpt lat="46.87405" lon="8.47133">
        <ele>2161</ele>
        <time>2021-08-11T13:55:18.817Z</time>
      </trkpt>
      <trkpt lat="46.87406" lon="8.47133">
        <ele>2161</ele>
        <time>2021-08-11T13:55:19.817Z</time>
      </trkpt>
      <trkpt lat="46.87405" lon="8.47132">
        <ele>2161</ele>
        <time>2021-08-11T13:55:20.818Z</time>
      </trkpt>
      <trkpt lat="46.87405" lon="8.47132">
        <ele>2161</ele>
        <time>2021-08-11T13:55:21.817Z</time>
      </trkpt>
      <trkpt lat="46.87404" lon="8.47132">
        <ele>2162</ele>
        <time>2021-08-11T13:55:22.818Z</time>
      </trkpt>
      <trkpt lat="46.87404" lon="8.47132">
        <ele>2161</ele>
        <time>2021-08-11T13:55:23.818Z</time>
      </trkpt>
      <trkpt lat="46.87404" lon="8.47132">
        <ele>2161</ele>
        <time>2021-08-11T13:55:24.818Z</time>
      </trkpt>
      <trkpt lat="46.87403" lon="8.47132">
        <ele>2159</ele>
        <time>2021-08-11T13:55:25.819Z</time>
      </trkpt>
      <trkpt lat="46.87401" lon="8.47131">
        <ele>2158</ele>
        <time>2021-08-11T13:55:26.820Z</time>
      </trkpt>
      <trkpt lat="46.87401" lon="8.4713">
        <ele>2159</ele>
        <time>2021-08-11T13:55:27.819Z</time>
      </trkpt>
      <trkpt lat="46.87399" lon="8.47127">
        <ele>2162</ele>
        <time>2021-08-11T13:55:28.820Z</time>
      </trkpt>
      <trkpt lat="46.87399" lon="8.47126">
        <ele>2163</ele>
        <time>2021-08-11T13:55:29.819Z</time>
      </trkpt>
      <trkpt lat="46.87399" lon="8.47125">
        <ele>2163</ele>
        <time>2021-08-11T13:55:30.820Z</time>
      </trkpt>
      <trkpt lat="46.87399" lon="8.47125">
        <ele>2164</ele>
        <time>2021-08-11T13:55:31.819Z</time>
      </trkpt>
      <trkpt lat="46.87399" lon="8.47124">
        <ele>2164</ele>
        <time>2021-08-11T13:55:32.819Z</time>
      </trkpt>
      <trkpt lat="46.87399" lon="8.47124">
        <ele>2165</ele>
        <time>2021-08-11T13:55:33.820Z</time>
      </trkpt>
      <trkpt lat="46.874" lon="8.47125">
        <ele>2165</ele>
        <time>2021-08-11T13:55:34.820Z</time>
      </trkpt>
      <trkpt lat="46.874" lon="8.47124">
        <ele>2164</ele>
        <time>2021-08-11T13:55:35.820Z</time>
      </trkpt>
      <trkpt lat="46.874" lon="8.47124">
        <ele>2164</ele>
        <time>2021-08-11T13:55:36.820Z</time>
      </trkpt>
      <trkpt lat="46.87401" lon="8.47123">
        <ele>2164</ele>
        <time>2021-08-11T13:55:38.949Z</time>
      </trkpt>
      <trkpt lat="46.87401" lon="8.47123">
        <ele>2163</ele>
        <time>2021-08-11T13:55:39.948Z</time>
      </trkpt>
      <trkpt lat="46.874" lon="8.47122">
        <ele>2163</ele>
        <time>2021-08-11T13:55:40.949Z</time>
      </trkpt>
      <trkpt lat="46.874" lon="8.47121">
        <ele>2163</ele>
        <time>2021-08-11T13:55:41.949Z</time>
      </trkpt>
      <trkpt lat="46.874" lon="8.4712">
        <ele>2163</ele>
        <time>2021-08-11T13:55:42.948Z</time>
      </trkpt>
      <trkpt lat="46.87399" lon="8.47118">
        <ele>2164</ele>
        <time>2021-08-11T13:55:43.948Z</time>
      </trkpt>
      <trkpt lat="46.87399" lon="8.47118">
        <ele>2164</ele>
        <time>2021-08-11T13:55:44.949Z</time>
      </trkpt>
      <trkpt lat="46.87399" lon="8.47118">
        <ele>2164</ele>
        <time>2021-08-11T13:55:45.948Z</time>
      </trkpt>
      <trkpt lat="46.87399" lon="8.47118">
        <ele>2165</ele>
        <time>2021-08-11T13:55:46.949Z</time>
      </trkpt>
      <trkpt lat="46.87399" lon="8.47117">
        <ele>2165</ele>
        <time>2021-08-11T13:55:47.949Z</time>
      </trkpt>
      <trkpt lat="46.87399" lon="8.47116">
        <ele>2165</ele>
        <time>2021-08-11T13:55:48.949Z</time>
      </trkpt>
      <trkpt lat="46.87398" lon="8.47115">
        <ele>2165</ele>
        <time>2021-08-11T13:55:49.949Z</time>
      </trkpt>
      <trkpt lat="46.87398" lon="8.47115">
        <ele>2165</ele>
        <time>2021-08-11T13:55:50.949Z</time>
      </trkpt>
      <trkpt lat="46.87398" lon="8.47114">
        <ele>2165</ele>
        <time>2021-08-11T13:55:51.948Z</time>
      </trkpt>
      <trkpt lat="46.87397" lon="8.47113">
        <ele>2165</ele>
        <time>2021-08-11T13:55:52.949Z</time>
      </trkpt>
      <trkpt lat="46.87396" lon="8.47111">
        <ele>2166</ele>
        <time>2021-08-11T13:55:53.949Z</time>
      </trkpt>
      <trkpt lat="46.87396" lon="8.4711">
        <ele>2167</ele>
        <time>2021-08-11T13:55:54.948Z</time>
      </trkpt>
      <trkpt lat="46.87396" lon="8.47109">
        <ele>2168</ele>
        <time>2021-08-11T13:55:55.949Z</time>
      </trkpt>
      <trkpt lat="46.87395" lon="8.47109">
        <ele>2169</ele>
        <time>2021-08-11T13:55:56.949Z</time>
      </trkpt>
      <trkpt lat="46.87395" lon="8.47109">
        <ele>2170</ele>
        <time>2021-08-11T13:55:57.948Z</time>
      </trkpt>
      <trkpt lat="46.87395" lon="8.47109">
        <ele>2170</ele>
        <time>2021-08-11T13:55:58.948Z</time>
      </trkpt>
      <trkpt lat="46.87394" lon="8.47109">
        <ele>2170</ele>
        <time>2021-08-11T13:55:59.948Z</time>
      </trkpt>
      <trkpt lat="46.87394" lon="8.47108">
        <ele>2169</ele>
        <time>2021-08-11T13:56:00.949Z</time>
      </trkpt>
      <trkpt lat="46.87394" lon="8.47108">
        <ele>2169</ele>
        <time>2021-08-11T13:56:01.948Z</time>
      </trkpt>
      <trkpt lat="46.87393" lon="8.47107">
        <ele>2169</ele>
        <time>2021-08-11T13:56:02.949Z</time>
      </trkpt>
      <trkpt lat="46.87393" lon="8.47106">
        <ele>2168</ele>
        <time>2021-08-11T13:56:03.949Z</time>
      </trkpt>
      <trkpt lat="46.87393" lon="8.47106">
        <ele>2168</ele>
        <time>2021-08-11T13:56:04.948Z</time>
      </trkpt>
      <trkpt lat="46.87393" lon="8.47106">
        <ele>2168</ele>
        <time>2021-08-11T13:56:05.949Z</time>
      </trkpt>
      <trkpt lat="46.87392" lon="8.47105">
        <ele>2167</ele>
        <time>2021-08-11T13:56:06.949Z</time>
      </trkpt>
      <trkpt lat="46.87392" lon="8.47104">
        <ele>2167</ele>
        <time>2021-08-11T13:56:07.948Z</time>
      </trkpt>
      <trkpt lat="46.87392" lon="8.47104">
        <ele>2166</ele>
        <time>2021-08-11T13:56:08.949Z</time>
      </trkpt>
      <trkpt lat="46.87392" lon="8.47103">
        <ele>2166</ele>
        <time>2021-08-11T13:56:09.949Z</time>
      </trkpt>
      <trkpt lat="46.87392" lon="8.47103">
        <ele>2165</ele>
        <time>2021-08-11T13:56:10.948Z</time>
      </trkpt>
      <trkpt lat="46.87391" lon="8.47102">
        <ele>2164</ele>
        <time>2021-08-11T13:56:11.949Z</time>
      </trkpt>
      <trkpt lat="46.87391" lon="8.47101">
        <ele>2164</ele>
        <time>2021-08-11T13:56:12.949Z</time>
      </trkpt>
      <trkpt lat="46.8739" lon="8.47101">
        <ele>2164</ele>
        <time>2021-08-11T13:56:13.948Z</time>
      </trkpt>
      <trkpt lat="46.8739" lon="8.47101">
        <ele>2164</ele>
        <time>2021-08-11T13:56:14.949Z</time>
      </trkpt>
      <trkpt lat="46.87389" lon="8.47102">
        <ele>2165</ele>
        <time>2021-08-11T13:56:15.949Z</time>
      </trkpt>
      <trkpt lat="46.87389" lon="8.47103">
        <ele>2165</ele>
        <time>2021-08-11T13:56:16.948Z</time>
      </trkpt>
      <trkpt lat="46.87389" lon="8.47103">
        <ele>2166</ele>
        <time>2021-08-11T13:56:17.949Z</time>
      </trkpt>
      <trkpt lat="46.87389" lon="8.47103">
        <ele>2166</ele>
        <time>2021-08-11T13:56:18.949Z</time>
      </trkpt>
      <trkpt lat="46.87388" lon="8.47102">
        <ele>2169</ele>
        <time>2021-08-11T13:56:19.948Z</time>
      </trkpt>
      <trkpt lat="46.87387" lon="8.47102">
        <ele>2170</ele>
        <time>2021-08-11T13:56:20.949Z</time>
      </trkpt>
      <trkpt lat="46.87387" lon="8.47102">
        <ele>2170</ele>
        <time>2021-08-11T13:56:21.949Z</time>
      </trkpt>
      <trkpt lat="46.87387" lon="8.47101">
        <ele>2171</ele>
        <time>2021-08-11T13:56:22.949Z</time>
      </trkpt>
      <trkpt lat="46.87386" lon="8.47101">
        <ele>2172</ele>
        <time>2021-08-11T13:56:23.949Z</time>
      </trkpt>
      <trkpt lat="46.87387" lon="8.47108">
        <ele>2172</ele>
        <time>2021-08-11T13:56:24.949Z</time>
      </trkpt>
      <trkpt lat="46.87386" lon="8.47107">
        <ele>2171</ele>
        <time>2021-08-11T13:56:25.948Z</time>
      </trkpt>
      <trkpt lat="46.87386" lon="8.47106">
        <ele>2170</ele>
        <time>2021-08-11T13:56:26.948Z</time>
      </trkpt>
      <trkpt lat="46.87386" lon="8.47105">
        <ele>2169</ele>
        <time>2021-08-11T13:56:27.949Z</time>
      </trkpt>
      <trkpt lat="46.87386" lon="8.47103">
        <ele>2169</ele>
        <time>2021-08-11T13:56:28.950Z</time>
      </trkpt>
      <trkpt lat="46.87386" lon="8.47103">
        <ele>2169</ele>
        <time>2021-08-11T13:56:29.949Z</time>
      </trkpt>
      <trkpt lat="46.87386" lon="8.47103">
        <ele>2169</ele>
        <time>2021-08-11T13:56:30.949Z</time>
      </trkpt>
      <trkpt lat="46.87387" lon="8.47106">
        <ele>2162</ele>
        <time>2021-08-11T13:56:31.950Z</time>
      </trkpt>
      <trkpt lat="46.87387" lon="8.47105">
        <ele>2162</ele>
        <time>2021-08-11T13:56:32.951Z</time>
      </trkpt>
      <trkpt lat="46.87388" lon="8.47103">
        <ele>2161</ele>
        <time>2021-08-11T13:56:33.951Z</time>
      </trkpt>
      <trkpt lat="46.87389" lon="8.47102">
        <ele>2161</ele>
        <time>2021-08-11T13:56:34.951Z</time>
      </trkpt>
      <trkpt lat="46.8739" lon="8.47102">
        <ele>2160</ele>
        <time>2021-08-11T13:56:35.951Z</time>
      </trkpt>
      <trkpt lat="46.8739" lon="8.47102">
        <ele>2160</ele>
        <time>2021-08-11T13:56:36.951Z</time>
      </trkpt>
      <trkpt lat="46.87389" lon="8.47101">
        <ele>2161</ele>
        <time>2021-08-11T13:56:37.951Z</time>
      </trkpt>
      <trkpt lat="46.87388" lon="8.47101">
        <ele>2161</ele>
        <time>2021-08-11T13:56:38.951Z</time>
      </trkpt>
      <trkpt lat="46.87388" lon="8.47101">
        <ele>2162</ele>
        <time>2021-08-11T13:56:39.950Z</time>
      </trkpt>
      <trkpt lat="46.87388" lon="8.47102">
        <ele>2164</ele>
        <time>2021-08-11T13:56:40.950Z</time>
      </trkpt>
      <trkpt lat="46.87388" lon="8.47103">
        <ele>2166</ele>
        <time>2021-08-11T13:56:41.951Z</time>
      </trkpt>
      <trkpt lat="46.87388" lon="8.47103">
        <ele>2166</ele>
        <time>2021-08-11T13:56:42.950Z</time>
      </trkpt>
      <trkpt lat="46.87388" lon="8.47104">
        <ele>2165</ele>
        <time>2021-08-11T13:56:43.950Z</time>
      </trkpt>
      <trkpt lat="46.87389" lon="8.47105">
        <ele>2171</ele>
        <time>2021-08-11T13:56:44.951Z</time>
      </trkpt>
      <trkpt lat="46.87389" lon="8.47105">
        <ele>2171</ele>
        <time>2021-08-11T13:56:45.951Z</time>
      </trkpt>
      <trkpt lat="46.87389" lon="8.47105">
        <ele>2171</ele>
        <time>2021-08-11T13:56:46.952Z</time>
      </trkpt>
      <trkpt lat="46.8739" lon="8.47105">
        <ele>2171</ele>
        <time>2021-08-11T13:56:47.951Z</time>
      </trkpt>
      <trkpt lat="46.87389" lon="8.47106">
        <ele>2158</ele>
        <time>2021-08-11T13:56:48.952Z</time>
      </trkpt>
      <trkpt lat="46.87389" lon="8.47106">
        <ele>2159</ele>
        <time>2021-08-11T13:56:49.951Z</time>
      </trkpt>
      <trkpt lat="46.87389" lon="8.47106">
        <ele>2159</ele>
        <time>2021-08-11T13:56:50.952Z</time>
      </trkpt>
      <trkpt lat="46.87388" lon="8.47106">
        <ele>2159</ele>
        <time>2021-08-11T13:56:51.951Z</time>
      </trkpt>
      <trkpt lat="46.87388" lon="8.47106">
        <ele>2159</ele>
        <time>2021-08-11T13:56:52.952Z</time>
      </trkpt>
      <trkpt lat="46.87388" lon="8.47105">
        <ele>2161</ele>
        <time>2021-08-11T13:56:53.952Z</time>
      </trkpt>
      <trkpt lat="46.87387" lon="8.47104">
        <ele>2165</ele>
        <time>2021-08-11T13:56:54.953Z</time>
      </trkpt>
      <trkpt lat="46.87387" lon="8.47103">
        <ele>2166</ele>
        <time>2021-08-11T13:56:55.953Z</time>
      </trkpt>
      <trkpt lat="46.87387" lon="8.47102">
        <ele>2166</ele>
        <time>2021-08-11T13:56:56.952Z</time>
      </trkpt>
      <trkpt lat="46.87386" lon="8.47101">
        <ele>2166</ele>
        <time>2021-08-11T13:56:57.953Z</time>
      </trkpt>
      <trkpt lat="46.87386" lon="8.471">
        <ele>2166</ele>
        <time>2021-08-11T13:56:58.953Z</time>
      </trkpt>
      <trkpt lat="46.87386" lon="8.47099">
        <ele>2166</ele>
        <time>2021-08-11T13:56:59.953Z</time>
      </trkpt>
      <trkpt lat="46.87385" lon="8.47098">
        <ele>2166</ele>
        <time>2021-08-11T13:57:00.953Z</time>
      </trkpt>
      <trkpt lat="46.87385" lon="8.47097">
        <ele>2166</ele>
        <time>2021-08-11T13:57:01.953Z</time>
      </trkpt>
      <trkpt lat="46.87384" lon="8.47095">
        <ele>2166</ele>
        <time>2021-08-11T13:57:02.953Z</time>
      </trkpt>
      <trkpt lat="46.87384" lon="8.47094">
        <ele>2166</ele>
        <time>2021-08-11T13:57:03.953Z</time>
      </trkpt>
      <trkpt lat="46.87383" lon="8.47094">
        <ele>2166</ele>
        <time>2021-08-11T13:57:04.953Z</time>
      </trkpt>
      <trkpt lat="46.87382" lon="8.47094">
        <ele>2165</ele>
        <time>2021-08-11T13:57:05.953Z</time>
      </trkpt>
      <trkpt lat="46.87381" lon="8.47094">
        <ele>2165</ele>
        <time>2021-08-11T13:57:06.953Z</time>
      </trkpt>
      <trkpt lat="46.87381" lon="8.47093">
        <ele>2165</ele>
        <time>2021-08-11T13:57:07.952Z</time>
      </trkpt>
      <trkpt lat="46.8738" lon="8.47092">
        <ele>2165</ele>
        <time>2021-08-11T13:57:08.953Z</time>
      </trkpt>
      <trkpt lat="46.87379" lon="8.47092">
        <ele>2164</ele>
        <time>2021-08-11T13:57:09.953Z</time>
      </trkpt>
      <trkpt lat="46.87379" lon="8.47091">
        <ele>2164</ele>
        <time>2021-08-11T13:57:10.953Z</time>
      </trkpt>
      <trkpt lat="46.87378" lon="8.4709">
        <ele>2164</ele>
        <time>2021-08-11T13:57:11.953Z</time>
      </trkpt>
      <trkpt lat="46.87376" lon="8.4709">
        <ele>2164</ele>
        <time>2021-08-11T13:57:12.952Z</time>
      </trkpt>
      <trkpt lat="46.87375" lon="8.4709">
        <ele>2164</ele>
        <time>2021-08-11T13:57:13.953Z</time>
      </trkpt>
      <trkpt lat="46.87374" lon="8.4709">
        <ele>2165</ele>
        <time>2021-08-11T13:57:14.953Z</time>
      </trkpt>
      <trkpt lat="46.87373" lon="8.47091">
        <ele>2166</ele>
        <time>2021-08-11T13:57:15.953Z</time>
      </trkpt>
      <trkpt lat="46.87372" lon="8.47091">
        <ele>2166</ele>
        <time>2021-08-11T13:57:16.953Z</time>
      </trkpt>
      <trkpt lat="46.87372" lon="8.47091">
        <ele>2167</ele>
        <time>2021-08-11T13:57:17.953Z</time>
      </trkpt>
      <trkpt lat="46.87371" lon="8.4709">
        <ele>2167</ele>
        <time>2021-08-11T13:57:18.952Z</time>
      </trkpt>
      <trkpt lat="46.87371" lon="8.4709">
        <ele>2168</ele>
        <time>2021-08-11T13:57:19.953Z</time>
      </trkpt>
      <trkpt lat="46.8737" lon="8.47089">
        <ele>2168</ele>
        <time>2021-08-11T13:57:20.953Z</time>
      </trkpt>
      <trkpt lat="46.8737" lon="8.47088">
        <ele>2169</ele>
        <time>2021-08-11T13:57:21.953Z</time>
      </trkpt>
      <trkpt lat="46.87369" lon="8.47087">
        <ele>2169</ele>
        <time>2021-08-11T13:57:22.953Z</time>
      </trkpt>
      <trkpt lat="46.87368" lon="8.47086">
        <ele>2170</ele>
        <time>2021-08-11T13:57:23.952Z</time>
      </trkpt>
      <trkpt lat="46.87368" lon="8.47086">
        <ele>2170</ele>
        <time>2021-08-11T13:57:24.953Z</time>
      </trkpt>
      <trkpt lat="46.87367" lon="8.47085">
        <ele>2171</ele>
        <time>2021-08-11T13:57:25.953Z</time>
      </trkpt>
      <trkpt lat="46.87367" lon="8.47085">
        <ele>2171</ele>
        <time>2021-08-11T13:57:26.953Z</time>
      </trkpt>
      <trkpt lat="46.87367" lon="8.47084">
        <ele>2171</ele>
        <time>2021-08-11T13:57:27.953Z</time>
      </trkpt>
      <trkpt lat="46.87367" lon="8.47083">
        <ele>2172</ele>
        <time>2021-08-11T13:57:28.952Z</time>
      </trkpt>
      <trkpt lat="46.87367" lon="8.47082">
        <ele>2172</ele>
        <time>2021-08-11T13:57:29.953Z</time>
      </trkpt>
      <trkpt lat="46.87367" lon="8.47081">
        <ele>2172</ele>
        <time>2021-08-11T13:57:30.953Z</time>
      </trkpt>
      <trkpt lat="46.87366" lon="8.47081">
        <ele>2173</ele>
        <time>2021-08-11T13:57:31.952Z</time>
      </trkpt>
      <trkpt lat="46.87366" lon="8.47081">
        <ele>2173</ele>
        <time>2021-08-11T13:57:32.952Z</time>
      </trkpt>
      <trkpt lat="46.87365" lon="8.47081">
        <ele>2173</ele>
        <time>2021-08-11T13:57:33.953Z</time>
      </trkpt>
      <trkpt lat="46.87364" lon="8.47081">
        <ele>2173</ele>
        <time>2021-08-11T13:57:34.953Z</time>
      </trkpt>
      <trkpt lat="46.87364" lon="8.47081">
        <ele>2174</ele>
        <time>2021-08-11T13:57:35.953Z</time>
      </trkpt>
      <trkpt lat="46.87363" lon="8.47081">
        <ele>2175</ele>
        <time>2021-08-11T13:57:36.953Z</time>
      </trkpt>
      <trkpt lat="46.87363" lon="8.4708">
        <ele>2175</ele>
        <time>2021-08-11T13:57:37.952Z</time>
      </trkpt>
      <trkpt lat="46.87363" lon="8.47079">
        <ele>2176</ele>
        <time>2021-08-11T13:57:38.953Z</time>
      </trkpt>
      <trkpt lat="46.87363" lon="8.47078">
        <ele>2177</ele>
        <time>2021-08-11T13:57:39.953Z</time>
      </trkpt>
      <trkpt lat="46.87363" lon="8.47077">
        <ele>2178</ele>
        <time>2021-08-11T13:57:40.953Z</time>
      </trkpt>
      <trkpt lat="46.87363" lon="8.47077">
        <ele>2178</ele>
        <time>2021-08-11T13:57:41.953Z</time>
      </trkpt>
      <trkpt lat="46.87363" lon="8.47076">
        <ele>2179</ele>
        <time>2021-08-11T13:57:42.953Z</time>
      </trkpt>
      <trkpt lat="46.87363" lon="8.47075">
        <ele>2179</ele>
        <time>2021-08-11T13:57:43.953Z</time>
      </trkpt>
      <trkpt lat="46.87363" lon="8.47075">
        <ele>2179</ele>
        <time>2021-08-11T13:57:44.953Z</time>
      </trkpt>
      <trkpt lat="46.87363" lon="8.47074">
        <ele>2178</ele>
        <time>2021-08-11T13:57:45.953Z</time>
      </trkpt>
      <trkpt lat="46.87363" lon="8.47073">
        <ele>2178</ele>
        <time>2021-08-11T13:57:46.952Z</time>
      </trkpt>
      <trkpt lat="46.87363" lon="8.47073">
        <ele>2177</ele>
        <time>2021-08-11T13:57:47.953Z</time>
      </trkpt>
      <trkpt lat="46.87362" lon="8.47072">
        <ele>2176</ele>
        <time>2021-08-11T13:57:48.953Z</time>
      </trkpt>
      <trkpt lat="46.87362" lon="8.47071">
        <ele>2176</ele>
        <time>2021-08-11T13:57:49.953Z</time>
      </trkpt>
      <trkpt lat="46.87361" lon="8.47071">
        <ele>2175</ele>
        <time>2021-08-11T13:57:50.953Z</time>
      </trkpt>
      <trkpt lat="46.87361" lon="8.47071">
        <ele>2175</ele>
        <time>2021-08-11T13:57:51.952Z</time>
      </trkpt>
      <trkpt lat="46.87361" lon="8.4707">
        <ele>2174</ele>
        <time>2021-08-11T13:57:52.952Z</time>
      </trkpt>
      <trkpt lat="46.8736" lon="8.4707">
        <ele>2174</ele>
        <time>2021-08-11T13:57:53.953Z</time>
      </trkpt>
      <trkpt lat="46.8736" lon="8.4707">
        <ele>2175</ele>
        <time>2021-08-11T13:57:54.953Z</time>
      </trkpt>
      <trkpt lat="46.87359" lon="8.4707">
        <ele>2175</ele>
        <time>2021-08-11T13:57:55.953Z</time>
      </trkpt>
      <trkpt lat="46.87359" lon="8.47069">
        <ele>2175</ele>
        <time>2021-08-11T13:57:56.953Z</time>
      </trkpt>
      <trkpt lat="46.87359" lon="8.47069">
        <ele>2176</ele>
        <time>2021-08-11T13:57:57.952Z</time>
      </trkpt>
      <trkpt lat="46.87359" lon="8.47069">
        <ele>2176</ele>
        <time>2021-08-11T13:57:58.953Z</time>
      </trkpt>
      <trkpt lat="46.87358" lon="8.47068">
        <ele>2177</ele>
        <time>2021-08-11T13:57:59.953Z</time>
      </trkpt>
      <trkpt lat="46.87358" lon="8.47068">
        <ele>2178</ele>
        <time>2021-08-11T13:58:00.953Z</time>
      </trkpt>
      <trkpt lat="46.87357" lon="8.47068">
        <ele>2179</ele>
        <time>2021-08-11T13:58:01.953Z</time>
      </trkpt>
      <trkpt lat="46.87357" lon="8.47068">
        <ele>2179</ele>
        <time>2021-08-11T13:58:02.952Z</time>
      </trkpt>
      <trkpt lat="46.87357" lon="8.47068">
        <ele>2180</ele>
        <time>2021-08-11T13:58:03.953Z</time>
      </trkpt>
      <trkpt lat="46.87356" lon="8.47069">
        <ele>2180</ele>
        <time>2021-08-11T13:58:04.953Z</time>
      </trkpt>
      <trkpt lat="46.87356" lon="8.47069">
        <ele>2180</ele>
        <time>2021-08-11T13:58:05.953Z</time>
      </trkpt>
      <trkpt lat="46.87356" lon="8.47069">
        <ele>2180</ele>
        <time>2021-08-11T13:58:06.953Z</time>
      </trkpt>
      <trkpt lat="46.87356" lon="8.4707">
        <ele>2180</ele>
        <time>2021-08-11T13:58:07.952Z</time>
      </trkpt>
      <trkpt lat="46.87356" lon="8.4707">
        <ele>2180</ele>
        <time>2021-08-11T13:58:08.953Z</time>
      </trkpt>
      <trkpt lat="46.87355" lon="8.4707">
        <ele>2180</ele>
        <time>2021-08-11T13:58:09.953Z</time>
      </trkpt>
      <trkpt lat="46.87355" lon="8.4707">
        <ele>2182</ele>
        <time>2021-08-11T13:58:10.954Z</time>
      </trkpt>
      <trkpt lat="46.87354" lon="8.47069">
        <ele>2183</ele>
        <time>2021-08-11T13:58:11.954Z</time>
      </trkpt>
      <trkpt lat="46.87354" lon="8.47069">
        <ele>2183</ele>
        <time>2021-08-11T13:58:12.954Z</time>
      </trkpt>
      <trkpt lat="46.87354" lon="8.47069">
        <ele>2184</ele>
        <time>2021-08-11T13:58:13.954Z</time>
      </trkpt>
      <trkpt lat="46.87354" lon="8.47068">
        <ele>2184</ele>
        <time>2021-08-11T13:58:14.953Z</time>
      </trkpt>
      <trkpt lat="46.87354" lon="8.47068">
        <ele>2184</ele>
        <time>2021-08-11T13:58:15.954Z</time>
      </trkpt>
      <trkpt lat="46.87354" lon="8.47068">
        <ele>2184</ele>
        <time>2021-08-11T13:58:16.954Z</time>
      </trkpt>
      <trkpt lat="46.87355" lon="8.47067">
        <ele>2184</ele>
        <time>2021-08-11T13:58:17.954Z</time>
      </trkpt>
      <trkpt lat="46.87355" lon="8.47066">
        <ele>2183</ele>
        <time>2021-08-11T13:58:18.954Z</time>
      </trkpt>
      <trkpt lat="46.87355" lon="8.47065">
        <ele>2183</ele>
        <time>2021-08-11T13:58:19.954Z</time>
      </trkpt>
      <trkpt lat="46.87355" lon="8.47065">
        <ele>2183</ele>
        <time>2021-08-11T13:58:20.954Z</time>
      </trkpt>
      <trkpt lat="46.87354" lon="8.47064">
        <ele>2183</ele>
        <time>2021-08-11T13:58:21.955Z</time>
      </trkpt>
      <trkpt lat="46.87354" lon="8.47064">
        <ele>2183</ele>
        <time>2021-08-11T13:58:22.955Z</time>
      </trkpt>
      <trkpt lat="46.87353" lon="8.47063">
        <ele>2184</ele>
        <time>2021-08-11T13:58:23.954Z</time>
      </trkpt>
      <trkpt lat="46.87352" lon="8.47063">
        <ele>2184</ele>
        <time>2021-08-11T13:58:24.954Z</time>
      </trkpt>
      <trkpt lat="46.87351" lon="8.47063">
        <ele>2185</ele>
        <time>2021-08-11T13:58:25.955Z</time>
      </trkpt>
      <trkpt lat="46.87351" lon="8.47063">
        <ele>2185</ele>
        <time>2021-08-11T13:58:26.955Z</time>
      </trkpt>
      <trkpt lat="46.87348" lon="8.47059">
        <ele>2184</ele>
        <time>2021-08-11T13:58:28.955Z</time>
      </trkpt>
      <trkpt lat="46.87347" lon="8.47058">
        <ele>2185</ele>
        <time>2021-08-11T13:58:29.955Z</time>
      </trkpt>
      <trkpt lat="46.87347" lon="8.47058">
        <ele>2185</ele>
        <time>2021-08-11T13:58:30.956Z</time>
      </trkpt>
      <trkpt lat="46.87346" lon="8.47058">
        <ele>2185</ele>
        <time>2021-08-11T13:58:31.955Z</time>
      </trkpt>
      <trkpt lat="46.87346" lon="8.47058">
        <ele>2185</ele>
        <time>2021-08-11T13:58:32.955Z</time>
      </trkpt>
      <trkpt lat="46.87345" lon="8.47058">
        <ele>2185</ele>
        <time>2021-08-11T13:58:33.955Z</time>
      </trkpt>
      <trkpt lat="46.87345" lon="8.47058">
        <ele>2185</ele>
        <time>2021-08-11T13:58:34.956Z</time>
      </trkpt>
      <trkpt lat="46.87345" lon="8.47058">
        <ele>2185</ele>
        <time>2021-08-11T13:58:35.955Z</time>
      </trkpt>
      <trkpt lat="46.87344" lon="8.47057">
        <ele>2186</ele>
        <time>2021-08-11T13:58:36.957Z</time>
      </trkpt>
      <trkpt lat="46.87343" lon="8.47057">
        <ele>2186</ele>
        <time>2021-08-11T13:58:37.957Z</time>
      </trkpt>
      <trkpt lat="46.87343" lon="8.47057">
        <ele>2186</ele>
        <time>2021-08-11T13:58:38.956Z</time>
      </trkpt>
      <trkpt lat="46.87343" lon="8.47057">
        <ele>2185</ele>
        <time>2021-08-11T13:58:39.956Z</time>
      </trkpt>
      <trkpt lat="46.87343" lon="8.47057">
        <ele>2185</ele>
        <time>2021-08-11T13:58:40.957Z</time>
      </trkpt>
      <trkpt lat="46.87342" lon="8.47057">
        <ele>2185</ele>
        <time>2021-08-11T13:58:41.957Z</time>
      </trkpt>
      <trkpt lat="46.87341" lon="8.47057">
        <ele>2185</ele>
        <time>2021-08-11T13:58:42.957Z</time>
      </trkpt>
      <trkpt lat="46.87341" lon="8.47057">
        <ele>2185</ele>
        <time>2021-08-11T13:58:43.957Z</time>
      </trkpt>
      <trkpt lat="46.87341" lon="8.47057">
        <ele>2185</ele>
        <time>2021-08-11T13:58:44.957Z</time>
      </trkpt>
      <trkpt lat="46.87341" lon="8.47057">
        <ele>2186</ele>
        <time>2021-08-11T13:58:45.958Z</time>
      </trkpt>
      <trkpt lat="46.87341" lon="8.47056">
        <ele>2186</ele>
        <time>2021-08-11T13:58:46.959Z</time>
      </trkpt>
      <trkpt lat="46.87341" lon="8.47057">
        <ele>2185</ele>
        <time>2021-08-11T13:58:47.958Z</time>
      </trkpt>
      <trkpt lat="46.8734" lon="8.47057">
        <ele>2185</ele>
        <time>2021-08-11T13:58:48.958Z</time>
      </trkpt>
      <trkpt lat="46.8734" lon="8.47057">
        <ele>2185</ele>
        <time>2021-08-11T13:58:49.958Z</time>
      </trkpt>
      <trkpt lat="46.8734" lon="8.47058">
        <ele>2185</ele>
        <time>2021-08-11T13:58:50.959Z</time>
      </trkpt>
      <trkpt lat="46.8734" lon="8.47058">
        <ele>2185</ele>
        <time>2021-08-11T13:58:51.959Z</time>
      </trkpt>
      <trkpt lat="46.87339" lon="8.47058">
        <ele>2189</ele>
        <time>2021-08-11T13:58:52.959Z</time>
      </trkpt>
      <trkpt lat="46.87339" lon="8.47058">
        <ele>2190</ele>
        <time>2021-08-11T13:58:53.960Z</time>
      </trkpt>
      <trkpt lat="46.87339" lon="8.47057">
        <ele>2190</ele>
        <time>2021-08-11T13:58:54.959Z</time>
      </trkpt>
      <trkpt lat="46.87338" lon="8.47057">
        <ele>2190</ele>
        <time>2021-08-11T13:58:55.960Z</time>
      </trkpt>
      <trkpt lat="46.87338" lon="8.47056">
        <ele>2190</ele>
        <time>2021-08-11T13:58:56.960Z</time>
      </trkpt>
      <trkpt lat="46.87339" lon="8.47056">
        <ele>2190</ele>
        <time>2021-08-11T13:58:57.959Z</time>
      </trkpt>
      <trkpt lat="46.87338" lon="8.47055">
        <ele>2190</ele>
        <time>2021-08-11T13:58:58.960Z</time>
      </trkpt>
      <trkpt lat="46.87338" lon="8.47055">
        <ele>2190</ele>
        <time>2021-08-11T13:58:59.960Z</time>
      </trkpt>
      <trkpt lat="46.87338" lon="8.47055">
        <ele>2189</ele>
        <time>2021-08-11T13:59:00.960Z</time>
      </trkpt>
      <trkpt lat="46.87338" lon="8.47053">
        <ele>2189</ele>
        <time>2021-08-11T13:59:01.960Z</time>
      </trkpt>
      <trkpt lat="46.87337" lon="8.47052">
        <ele>2189</ele>
        <time>2021-08-11T13:59:02.959Z</time>
      </trkpt>
      <trkpt lat="46.87337" lon="8.47051">
        <ele>2189</ele>
        <time>2021-08-11T13:59:03.959Z</time>
      </trkpt>
      <trkpt lat="46.87336" lon="8.47052">
        <ele>2189</ele>
        <time>2021-08-11T13:59:04.960Z</time>
      </trkpt>
      <trkpt lat="46.87336" lon="8.47052">
        <ele>2189</ele>
        <time>2021-08-11T13:59:05.960Z</time>
      </trkpt>
      <trkpt lat="46.87336" lon="8.47051">
        <ele>2190</ele>
        <time>2021-08-11T13:59:06.960Z</time>
      </trkpt>
      <trkpt lat="46.87335" lon="8.47051">
        <ele>2191</ele>
        <time>2021-08-11T13:59:07.961Z</time>
      </trkpt>
      <trkpt lat="46.87335" lon="8.47051">
        <ele>2192</ele>
        <time>2021-08-11T13:59:13.980Z</time>
      </trkpt>
      <trkpt lat="46.87335" lon="8.4705">
        <ele>2190</ele>
        <time>2021-08-11T13:59:24.829Z</time>
      </trkpt>
      <trkpt lat="46.87335" lon="8.4705">
        <ele>2191</ele>
        <time>2021-08-11T13:59:25.828Z</time>
      </trkpt>
      <trkpt lat="46.87335" lon="8.4705">
        <ele>2192</ele>
        <time>2021-08-11T13:59:26.828Z</time>
      </trkpt>
      <trkpt lat="46.87334" lon="8.47048">
        <ele>2194</ele>
        <time>2021-08-11T13:59:53.828Z</time>
      </trkpt>
      <trkpt lat="46.87334" lon="8.47047">
        <ele>2195</ele>
        <time>2021-08-11T13:59:54.828Z</time>
      </trkpt>
      <trkpt lat="46.87334" lon="8.47046">
        <ele>2195</ele>
        <time>2021-08-11T13:59:55.828Z</time>
      </trkpt>
      <trkpt lat="46.87334" lon="8.47045">
        <ele>2196</ele>
        <time>2021-08-11T13:59:56.829Z</time>
      </trkpt>
      <trkpt lat="46.87334" lon="8.47045">
        <ele>2196</ele>
        <time>2021-08-11T14:00:11.828Z</time>
      </trkpt>
      <trkpt lat="46.87334" lon="8.47044">
        <ele>2197</ele>
        <time>2021-08-11T14:00:12.828Z</time>
      </trkpt>
      <trkpt lat="46.87334" lon="8.47043">
        <ele>2197</ele>
        <time>2021-08-11T14:00:27.739Z</time>
      </trkpt>
      <trkpt lat="46.87333" lon="8.47041">
        <ele>2198</ele>
        <time>2021-08-11T14:00:28.739Z</time>
      </trkpt>
      <trkpt lat="46.87333" lon="8.4704">
        <ele>2199</ele>
        <time>2021-08-11T14:00:36.578Z</time>
      </trkpt>
      <trkpt lat="46.87333" lon="8.4704">
        <ele>2200</ele>
        <time>2021-08-11T14:00:51.335Z</time>
      </trkpt>
      <trkpt lat="46.87332" lon="8.4704">
        <ele>2201</ele>
        <time>2021-08-11T14:00:52.335Z</time>
      </trkpt>
      <trkpt lat="46.87332" lon="8.47039">
        <ele>2201</ele>
        <time>2021-08-11T14:00:53.335Z</time>
      </trkpt>
      <trkpt lat="46.87331" lon="8.4704">
        <ele>2202</ele>
        <time>2021-08-11T14:00:54.335Z</time>
      </trkpt>
      <trkpt lat="46.87331" lon="8.47039">
        <ele>2202</ele>
        <time>2021-08-11T14:00:55.335Z</time>
      </trkpt>
      <trkpt lat="46.8733" lon="8.47039">
        <ele>2202</ele>
        <time>2021-08-11T14:00:56.334Z</time>
      </trkpt>
      <trkpt lat="46.8733" lon="8.47038">
        <ele>2202</ele>
        <time>2021-08-11T14:00:57.334Z</time>
      </trkpt>
      <trkpt lat="46.8733" lon="8.47038">
        <ele>2203</ele>
        <time>2021-08-11T14:00:58.335Z</time>
      </trkpt>
      <trkpt lat="46.8733" lon="8.47037">
        <ele>2203</ele>
        <time>2021-08-11T14:00:59.335Z</time>
      </trkpt>
      <trkpt lat="46.8733" lon="8.47036">
        <ele>2203</ele>
        <time>2021-08-11T14:01:28.359Z</time>
      </trkpt>
      <trkpt lat="46.87331" lon="8.47036">
        <ele>2203</ele>
        <time>2021-08-11T14:01:29.358Z</time>
      </trkpt>
      <trkpt lat="46.87331" lon="8.47035">
        <ele>2202</ele>
        <time>2021-08-11T14:01:35.224Z</time>
      </trkpt>
      <trkpt lat="46.87331" lon="8.47034">
        <ele>2202</ele>
        <time>2021-08-11T14:01:36.223Z</time>
      </trkpt>
      <trkpt lat="46.87332" lon="8.47034">
        <ele>2202</ele>
        <time>2021-08-11T14:01:42.950Z</time>
      </trkpt>
      <trkpt lat="46.87331" lon="8.47034">
        <ele>2201</ele>
        <time>2021-08-11T14:01:43.951Z</time>
      </trkpt>
      <trkpt lat="46.87332" lon="8.47033">
        <ele>2201</ele>
        <time>2021-08-11T14:01:44.950Z</time>
      </trkpt>
      <trkpt lat="46.87331" lon="8.47033">
        <ele>2201</ele>
        <time>2021-08-11T14:01:52.950Z</time>
      </trkpt>
      <trkpt lat="46.87331" lon="8.47032">
        <ele>2201</ele>
        <time>2021-08-11T14:01:53.950Z</time>
      </trkpt>
      <trkpt lat="46.8733" lon="8.47032">
        <ele>2202</ele>
        <time>2021-08-11T14:01:54.951Z</time>
      </trkpt>
      <trkpt lat="46.8733" lon="8.47031">
        <ele>2202</ele>
        <time>2021-08-11T14:01:55.950Z</time>
      </trkpt>
      <trkpt lat="46.87329" lon="8.47031">
        <ele>2202</ele>
        <time>2021-08-11T14:01:56.950Z</time>
      </trkpt>
      <trkpt lat="46.87328" lon="8.4703">
        <ele>2202</ele>
        <time>2021-08-11T14:01:57.950Z</time>
      </trkpt>
      <trkpt lat="46.87328" lon="8.4703">
        <ele>2202</ele>
        <time>2021-08-11T14:01:58.950Z</time>
      </trkpt>
      <trkpt lat="46.87327" lon="8.4703">
        <ele>2201</ele>
        <time>2021-08-11T14:01:59.950Z</time>
      </trkpt>
      <trkpt lat="46.87327" lon="8.4703">
        <ele>2202</ele>
        <time>2021-08-11T14:02:00.950Z</time>
      </trkpt>
      <trkpt lat="46.87327" lon="8.4703">
        <ele>2202</ele>
        <time>2021-08-11T14:02:03.071Z</time>
      </trkpt>
      <trkpt lat="46.87326" lon="8.4703">
        <ele>2202</ele>
        <time>2021-08-11T14:02:04.071Z</time>
      </trkpt>
      <trkpt lat="46.87326" lon="8.4703">
        <ele>2203</ele>
        <time>2021-08-11T14:02:05.849Z</time>
      </trkpt>
      <trkpt lat="46.87326" lon="8.47028">
        <ele>2205</ele>
        <time>2021-08-11T14:02:08.596Z</time>
      </trkpt>
      <trkpt lat="46.87326" lon="8.47028">
        <ele>2205</ele>
        <time>2021-08-11T14:02:09.596Z</time>
      </trkpt>
      <trkpt lat="46.87326" lon="8.47028">
        <ele>2205</ele>
        <time>2021-08-11T14:02:10.595Z</time>
      </trkpt>
      <trkpt lat="46.87325" lon="8.47027">
        <ele>2204</ele>
        <time>2021-08-11T14:02:15.743Z</time>
      </trkpt>
      <trkpt lat="46.87325" lon="8.47027">
        <ele>2203</ele>
        <time>2021-08-11T14:02:16.743Z</time>
      </trkpt>
      <trkpt lat="46.87324" lon="8.47026">
        <ele>2202</ele>
        <time>2021-08-11T14:02:31.574Z</time>
      </trkpt>
      <trkpt lat="46.87324" lon="8.47026">
        <ele>2202</ele>
        <time>2021-08-11T14:02:34.449Z</time>
      </trkpt>
      <trkpt lat="46.87324" lon="8.47025">
        <ele>2202</ele>
        <time>2021-08-11T14:02:35.449Z</time>
      </trkpt>
      <trkpt lat="46.87324" lon="8.47024">
        <ele>2202</ele>
        <time>2021-08-11T14:02:36.449Z</time>
      </trkpt>
      <trkpt lat="46.87323" lon="8.47024">
        <ele>2202</ele>
        <time>2021-08-11T14:02:37.448Z</time>
      </trkpt>
      <trkpt lat="46.87323" lon="8.47024">
        <ele>2202</ele>
        <time>2021-08-11T14:02:44.479Z</time>
      </trkpt>
      <trkpt lat="46.87323" lon="8.47023">
        <ele>2203</ele>
        <time>2021-08-11T14:02:45.480Z</time>
      </trkpt>
      <trkpt lat="46.87322" lon="8.47023">
        <ele>2204</ele>
        <time>2021-08-11T14:02:46.479Z</time>
      </trkpt>
      <trkpt lat="46.87322" lon="8.47023">
        <ele>2205</ele>
        <time>2021-08-11T14:02:47.480Z</time>
      </trkpt>
      <trkpt lat="46.87322" lon="8.47023">
        <ele>2204</ele>
        <time>2021-08-11T14:02:48.479Z</time>
      </trkpt>
      <trkpt lat="46.87321" lon="8.47023">
        <ele>2204</ele>
        <time>2021-08-11T14:02:49.479Z</time>
      </trkpt>
      <trkpt lat="46.87322" lon="8.47024">
        <ele>2201</ele>
        <time>2021-08-11T14:02:50.482Z</time>
      </trkpt>
      <trkpt lat="46.87321" lon="8.47024">
        <ele>2201</ele>
        <time>2021-08-11T14:02:51.481Z</time>
      </trkpt>
      <trkpt lat="46.87322" lon="8.47023">
        <ele>2201</ele>
        <time>2021-08-11T14:02:52.481Z</time>
      </trkpt>
      <trkpt lat="46.87322" lon="8.47023">
        <ele>2201</ele>
        <time>2021-08-11T14:02:55.452Z</time>
      </trkpt>
      <trkpt lat="46.87321" lon="8.47023">
        <ele>2201</ele>
        <time>2021-08-11T14:03:00.216Z</time>
      </trkpt>
      <trkpt lat="46.87321" lon="8.47022">
        <ele>2202</ele>
        <time>2021-08-11T14:03:01.217Z</time>
      </trkpt>
      <trkpt lat="46.87321" lon="8.4702">
        <ele>2205</ele>
        <time>2021-08-11T14:03:02.217Z</time>
      </trkpt>
      <trkpt lat="46.87321" lon="8.47019">
        <ele>2205</ele>
        <time>2021-08-11T14:03:03.217Z</time>
      </trkpt>
      <trkpt lat="46.87321" lon="8.47018">
        <ele>2206</ele>
        <time>2021-08-11T14:03:17.213Z</time>
      </trkpt>
      <trkpt lat="46.87321" lon="8.47018">
        <ele>2207</ele>
        <time>2021-08-11T14:03:18.214Z</time>
      </trkpt>
      <trkpt lat="46.8732" lon="8.47017">
        <ele>2207</ele>
        <time>2021-08-11T14:03:19.214Z</time>
      </trkpt>
      <trkpt lat="46.8732" lon="8.47017">
        <ele>2207</ele>
        <time>2021-08-11T14:03:20.214Z</time>
      </trkpt>
      <trkpt lat="46.87319" lon="8.47016">
        <ele>2206</ele>
        <time>2021-08-11T14:03:21.213Z</time>
      </trkpt>
      <trkpt lat="46.87319" lon="8.47016">
        <ele>2206</ele>
        <time>2021-08-11T14:03:25.346Z</time>
      </trkpt>
      <trkpt lat="46.87318" lon="8.47016">
        <ele>2206</ele>
        <time>2021-08-11T14:03:35.227Z</time>
      </trkpt>
      <trkpt lat="46.87318" lon="8.47016">
        <ele>2207</ele>
        <time>2021-08-11T14:03:36.226Z</time>
      </trkpt>
      <trkpt lat="46.87317" lon="8.47015">
        <ele>2206</ele>
        <time>2021-08-11T14:03:37.227Z</time>
      </trkpt>
      <trkpt lat="46.87317" lon="8.47015">
        <ele>2206</ele>
        <time>2021-08-11T14:03:43.070Z</time>
      </trkpt>
      <trkpt lat="46.87316" lon="8.47014">
        <ele>2206</ele>
        <time>2021-08-11T14:03:55.843Z</time>
      </trkpt>
      <trkpt lat="46.87317" lon="8.47014">
        <ele>2206</ele>
        <time>2021-08-11T14:03:56.842Z</time>
      </trkpt>
      <trkpt lat="46.87317" lon="8.47013">
        <ele>2206</ele>
        <time>2021-08-11T14:03:57.842Z</time>
      </trkpt>
      <trkpt lat="46.87317" lon="8.47013">
        <ele>2206</ele>
        <time>2021-08-11T14:04:03.965Z</time>
      </trkpt>
      <trkpt lat="46.87317" lon="8.47013">
        <ele>2206</ele>
        <time>2021-08-11T14:04:04.966Z</time>
      </trkpt>
      <trkpt lat="46.87316" lon="8.47013">
        <ele>2207</ele>
        <time>2021-08-11T14:04:05.966Z</time>
      </trkpt>
      <trkpt lat="46.87316" lon="8.47012">
        <ele>2207</ele>
        <time>2021-08-11T14:04:06.966Z</time>
      </trkpt>
      <trkpt lat="46.87313" lon="8.47014">
        <ele>2214</ele>
        <time>2021-08-11T14:04:07.968Z</time>
      </trkpt>
      <trkpt lat="46.87312" lon="8.47012">
        <ele>2214</ele>
        <time>2021-08-11T14:04:08.967Z</time>
      </trkpt>
      <trkpt lat="46.87312" lon="8.47011">
        <ele>2214</ele>
        <time>2021-08-11T14:04:16.098Z</time>
      </trkpt>
      <trkpt lat="46.87313" lon="8.47011">
        <ele>2210</ele>
        <time>2021-08-11T14:04:17.099Z</time>
      </trkpt>
      <trkpt lat="46.87313" lon="8.47011">
        <ele>2211</ele>
        <time>2021-08-11T14:04:18.099Z</time>
      </trkpt>
      <trkpt lat="46.87313" lon="8.47011">
        <ele>2211</ele>
        <time>2021-08-11T14:04:33.071Z</time>
      </trkpt>
      <trkpt lat="46.87313" lon="8.4701">
        <ele>2211</ele>
        <time>2021-08-11T14:04:34.072Z</time>
      </trkpt>
      <trkpt lat="46.87313" lon="8.4701">
        <ele>2211</ele>
        <time>2021-08-11T14:04:35.071Z</time>
      </trkpt>
      <trkpt lat="46.87314" lon="8.4701">
        <ele>2211</ele>
        <time>2021-08-11T14:04:36.072Z</time>
      </trkpt>
      <trkpt lat="46.87309" lon="8.47014">
        <ele>2224</ele>
        <time>2021-08-11T14:04:36.948Z</time>
      </trkpt>
      <trkpt lat="46.87309" lon="8.47014">
        <ele>2225</ele>
        <time>2021-08-11T14:04:37.948Z</time>
      </trkpt>
      <trkpt lat="46.87308" lon="8.47014">
        <ele>2226</ele>
        <time>2021-08-11T14:04:50.067Z</time>
      </trkpt>
      <trkpt lat="46.87308" lon="8.47014">
        <ele>2227</ele>
        <time>2021-08-11T14:04:50.943Z</time>
      </trkpt>
      <trkpt lat="46.87309" lon="8.47014">
        <ele>2227</ele>
        <time>2021-08-11T14:04:59.194Z</time>
      </trkpt>
      <trkpt lat="46.87309" lon="8.47015">
        <ele>2227</ele>
        <time>2021-08-11T14:05:00.069Z</time>
      </trkpt>
      <trkpt lat="46.87309" lon="8.47015">
        <ele>2227</ele>
        <time>2021-08-11T14:05:01.069Z</time>
      </trkpt>
      <trkpt lat="46.87312" lon="8.47013">
        <ele>2220</ele>
        <time>2021-08-11T14:05:02.954Z</time>
      </trkpt>
      <trkpt lat="46.87312" lon="8.47012">
        <ele>2219</ele>
        <time>2021-08-11T14:05:39.762Z</time>
      </trkpt>
      <trkpt lat="46.87315" lon="8.47016">
        <ele>2213</ele>
        <time>2021-08-11T14:05:40.762Z</time>
      </trkpt>
      <trkpt lat="46.87315" lon="8.47016">
        <ele>2212</ele>
        <time>2021-08-11T14:05:41.762Z</time>
      </trkpt>
      <trkpt lat="46.87314" lon="8.47013">
        <ele>2210</ele>
        <time>2021-08-11T14:05:42.762Z</time>
      </trkpt>
      <trkpt lat="46.87314" lon="8.47013">
        <ele>2210</ele>
        <time>2021-08-11T14:05:49.845Z</time>
      </trkpt>
      <trkpt lat="46.87315" lon="8.47013">
        <ele>2209</ele>
        <time>2021-08-11T14:05:50.844Z</time>
      </trkpt>
      <trkpt lat="46.87315" lon="8.47015">
        <ele>2208</ele>
        <time>2021-08-11T14:05:57.718Z</time>
      </trkpt>
      <trkpt lat="46.87314" lon="8.47014">
        <ele>2208</ele>
        <time>2021-08-11T14:05:58.717Z</time>
      </trkpt>
      <trkpt lat="46.87314" lon="8.47014">
        <ele>2208</ele>
        <time>2021-08-11T14:05:59.717Z</time>
      </trkpt>
      <trkpt lat="46.87314" lon="8.47013">
        <ele>2208</ele>
        <time>2021-08-11T14:06:10.840Z</time>
      </trkpt>
      <trkpt lat="46.87312" lon="8.47012">
        <ele>2209</ele>
        <time>2021-08-11T14:06:11.841Z</time>
      </trkpt>
      <trkpt lat="46.87312" lon="8.47011">
        <ele>2209</ele>
        <time>2021-08-11T14:06:12.841Z</time>
      </trkpt>
      <trkpt lat="46.87312" lon="8.47011">
        <ele>2209</ele>
        <time>2021-08-11T14:06:14.929Z</time>
      </trkpt>
      <trkpt lat="46.87312" lon="8.4701">
        <ele>2209</ele>
        <time>2021-08-11T14:06:15.930Z</time>
      </trkpt>
      <trkpt lat="46.87312" lon="8.47009">
        <ele>2210</ele>
        <time>2021-08-11T14:06:16.929Z</time>
      </trkpt>
      <trkpt lat="46.87311" lon="8.47009">
        <ele>2210</ele>
        <time>2021-08-11T14:06:17.930Z</time>
      </trkpt>
      <trkpt lat="46.87311" lon="8.47008">
        <ele>2210</ele>
        <time>2021-08-11T14:06:40.943Z</time>
      </trkpt>
      <trkpt lat="46.87312" lon="8.47007">
        <ele>2214</ele>
        <time>2021-08-11T14:06:59.716Z</time>
      </trkpt>
      <trkpt lat="46.87312" lon="8.47007">
        <ele>2214</ele>
        <time>2021-08-11T14:07:00.715Z</time>
      </trkpt>
      <trkpt lat="46.87312" lon="8.47007">
        <ele>2214</ele>
        <time>2021-08-11T14:07:01.715Z</time>
      </trkpt>
      <trkpt lat="46.8731" lon="8.47006">
        <ele>2213</ele>
        <time>2021-08-11T14:07:02.717Z</time>
      </trkpt>
      <trkpt lat="46.8731" lon="8.47005">
        <ele>2213</ele>
        <time>2021-08-11T14:07:03.716Z</time>
      </trkpt>
      <trkpt lat="46.87305" lon="8.47007">
        <ele>2217</ele>
        <time>2021-08-11T14:07:04.717Z</time>
      </trkpt>
      <trkpt lat="46.87305" lon="8.47007">
        <ele>2217</ele>
        <time>2021-08-11T14:07:05.717Z</time>
      </trkpt>
      <trkpt lat="46.87305" lon="8.47006">
        <ele>2218</ele>
        <time>2021-08-11T14:07:06.716Z</time>
      </trkpt>
      <trkpt lat="46.87305" lon="8.47006">
        <ele>2215</ele>
        <time>2021-08-11T14:07:07.716Z</time>
      </trkpt>
      <trkpt lat="46.87305" lon="8.47007">
        <ele>2214</ele>
        <time>2021-08-11T14:07:08.716Z</time>
      </trkpt>
      <trkpt lat="46.87305" lon="8.47007">
        <ele>2214</ele>
        <time>2021-08-11T14:07:09.716Z</time>
      </trkpt>
      <trkpt lat="46.87306" lon="8.47008">
        <ele>2210</ele>
        <time>2021-08-11T14:07:10.718Z</time>
      </trkpt>
      <trkpt lat="46.87306" lon="8.47009">
        <ele>2210</ele>
        <time>2021-08-11T14:07:18.840Z</time>
      </trkpt>
      <trkpt lat="46.87305" lon="8.47007">
        <ele>2207</ele>
        <time>2021-08-11T14:07:24.570Z</time>
      </trkpt>
      <trkpt lat="46.87306" lon="8.47008">
        <ele>2205</ele>
        <time>2021-08-11T14:07:51.340Z</time>
      </trkpt>
      <trkpt lat="46.87306" lon="8.47008">
        <ele>2205</ele>
        <time>2021-08-11T14:07:52.340Z</time>
      </trkpt>
      <trkpt lat="46.87306" lon="8.47008">
        <ele>2206</ele>
        <time>2021-08-11T14:07:58.070Z</time>
      </trkpt>
      <trkpt lat="46.87306" lon="8.47008">
        <ele>2206</ele>
        <time>2021-08-11T14:07:59.071Z</time>
      </trkpt>
      <trkpt lat="46.87306" lon="8.47008">
        <ele>2207</ele>
        <time>2021-08-11T14:08:00.071Z</time>
      </trkpt>
      <trkpt lat="46.87305" lon="8.47008">
        <ele>2208</ele>
        <time>2021-08-11T14:08:01.070Z</time>
      </trkpt>
      <trkpt lat="46.87304" lon="8.47008">
        <ele>2215</ele>
        <time>2021-08-11T14:08:16.070Z</time>
      </trkpt>
      <trkpt lat="46.87304" lon="8.47008">
        <ele>2215</ele>
        <time>2021-08-11T14:08:17.070Z</time>
      </trkpt>
      <trkpt lat="46.87304" lon="8.47005">
        <ele>2224</ele>
        <time>2021-08-11T14:08:27.817Z</time>
      </trkpt>
      <trkpt lat="46.87304" lon="8.47005">
        <ele>2224</ele>
        <time>2021-08-11T14:08:28.818Z</time>
      </trkpt>
      <trkpt lat="46.87304" lon="8.47005">
        <ele>2224</ele>
        <time>2021-08-11T14:08:29.817Z</time>
      </trkpt>
      <trkpt lat="46.87303" lon="8.47004">
        <ele>2224</ele>
        <time>2021-08-11T14:08:39.821Z</time>
      </trkpt>
      <trkpt lat="46.87303" lon="8.47003">
        <ele>2224</ele>
        <time>2021-08-11T14:08:40.821Z</time>
      </trkpt>
      <trkpt lat="46.87303" lon="8.47002">
        <ele>2223</ele>
        <time>2021-08-11T14:08:41.820Z</time>
      </trkpt>
      <trkpt lat="46.87302" lon="8.47002">
        <ele>2223</ele>
        <time>2021-08-11T14:08:42.821Z</time>
      </trkpt>
      <trkpt lat="46.87301" lon="8.47001">
        <ele>2223</ele>
        <time>2021-08-11T14:08:43.820Z</time>
      </trkpt>
      <trkpt lat="46.87301" lon="8.47">
        <ele>2223</ele>
        <time>2021-08-11T14:08:49.841Z</time>
      </trkpt>
      <trkpt lat="46.87301" lon="8.46999">
        <ele>2223</ele>
        <time>2021-08-11T14:08:50.842Z</time>
      </trkpt>
      <trkpt lat="46.87302" lon="8.46999">
        <ele>2223</ele>
        <time>2021-08-11T14:08:51.842Z</time>
      </trkpt>
      <trkpt lat="46.87302" lon="8.46998">
        <ele>2223</ele>
        <time>2021-08-11T14:08:52.841Z</time>
      </trkpt>
      <trkpt lat="46.87301" lon="8.46997">
        <ele>2222</ele>
        <time>2021-08-11T14:08:53.841Z</time>
      </trkpt>
      <trkpt lat="46.87301" lon="8.46997">
        <ele>2222</ele>
        <time>2021-08-11T14:08:54.842Z</time>
      </trkpt>
      <trkpt lat="46.87301" lon="8.46995">
        <ele>2221</ele>
        <time>2021-08-11T14:09:12.947Z</time>
      </trkpt>
      <trkpt lat="46.87301" lon="8.46994">
        <ele>2221</ele>
        <time>2021-08-11T14:09:13.947Z</time>
      </trkpt>
      <trkpt lat="46.87301" lon="8.46994">
        <ele>2221</ele>
        <time>2021-08-11T14:09:14.947Z</time>
      </trkpt>
      <trkpt lat="46.873" lon="8.46993">
        <ele>2221</ele>
        <time>2021-08-11T14:09:15.947Z</time>
      </trkpt>
      <trkpt lat="46.873" lon="8.46994">
        <ele>2221</ele>
        <time>2021-08-11T14:09:16.947Z</time>
      </trkpt>
      <trkpt lat="46.873" lon="8.46994">
        <ele>2222</ele>
        <time>2021-08-11T14:09:17.947Z</time>
      </trkpt>
      <trkpt lat="46.87299" lon="8.46993">
        <ele>2225</ele>
        <time>2021-08-11T14:09:28.945Z</time>
      </trkpt>
      <trkpt lat="46.87299" lon="8.46993">
        <ele>2225</ele>
        <time>2021-08-11T14:09:34.720Z</time>
      </trkpt>
      <trkpt lat="46.87298" lon="8.46993">
        <ele>2225</ele>
        <time>2021-08-11T14:09:35.719Z</time>
      </trkpt>
      <trkpt lat="46.87297" lon="8.46993">
        <ele>2225</ele>
        <time>2021-08-11T14:09:36.722Z</time>
      </trkpt>
      <trkpt lat="46.87297" lon="8.46993">
        <ele>2225</ele>
        <time>2021-08-11T14:09:49.820Z</time>
      </trkpt>
      <trkpt lat="46.87297" lon="8.46993">
        <ele>2226</ele>
        <time>2021-08-11T14:09:50.820Z</time>
      </trkpt>
      <trkpt lat="46.87297" lon="8.46992">
        <ele>2227</ele>
        <time>2021-08-11T14:09:51.821Z</time>
      </trkpt>
      <trkpt lat="46.87297" lon="8.46991">
        <ele>2227</ele>
        <time>2021-08-11T14:10:31.828Z</time>
      </trkpt>
      <trkpt lat="46.87297" lon="8.46991">
        <ele>2228</ele>
        <time>2021-08-11T14:10:32.828Z</time>
      </trkpt>
      <trkpt lat="46.87296" lon="8.4699">
        <ele>2228</ele>
        <time>2021-08-11T14:10:33.828Z</time>
      </trkpt>
      <trkpt lat="46.87296" lon="8.4699">
        <ele>2228</ele>
        <time>2021-08-11T14:10:34.828Z</time>
      </trkpt>
      <trkpt lat="46.87296" lon="8.46989">
        <ele>2228</ele>
        <time>2021-08-11T14:10:35.828Z</time>
      </trkpt>
      <trkpt lat="46.87296" lon="8.46988">
        <ele>2228</ele>
        <time>2021-08-11T14:10:36.828Z</time>
      </trkpt>
      <trkpt lat="46.87296" lon="8.46986">
        <ele>2229</ele>
        <time>2021-08-11T14:10:45.968Z</time>
      </trkpt>
      <trkpt lat="46.87295" lon="8.46985">
        <ele>2229</ele>
        <time>2021-08-11T14:10:46.968Z</time>
      </trkpt>
      <trkpt lat="46.87295" lon="8.46985">
        <ele>2229</ele>
        <time>2021-08-11T14:10:47.968Z</time>
      </trkpt>
      <trkpt lat="46.87294" lon="8.46986">
        <ele>2229</ele>
        <time>2021-08-11T14:10:48.968Z</time>
      </trkpt>
      <trkpt lat="46.87293" lon="8.46986">
        <ele>2228</ele>
        <time>2021-08-11T14:10:49.968Z</time>
      </trkpt>
      <trkpt lat="46.87293" lon="8.46986">
        <ele>2228</ele>
        <time>2021-08-11T14:10:55.970Z</time>
      </trkpt>
      <trkpt lat="46.87292" lon="8.46987">
        <ele>2227</ele>
        <time>2021-08-11T14:10:56.970Z</time>
      </trkpt>
      <trkpt lat="46.87292" lon="8.46987">
        <ele>2227</ele>
        <time>2021-08-11T14:10:57.971Z</time>
      </trkpt>
      <trkpt lat="46.87291" lon="8.46987">
        <ele>2227</ele>
        <time>2021-08-11T14:10:58.970Z</time>
      </trkpt>
      <trkpt lat="46.8729" lon="8.46988">
        <ele>2227</ele>
        <time>2021-08-11T14:11:04.071Z</time>
      </trkpt>
      <trkpt lat="46.8729" lon="8.46988">
        <ele>2227</ele>
        <time>2021-08-11T14:11:07.850Z</time>
      </trkpt>
      <trkpt lat="46.8729" lon="8.46987">
        <ele>2227</ele>
        <time>2021-08-11T14:11:12.702Z</time>
      </trkpt>
      <trkpt lat="46.87291" lon="8.46987">
        <ele>2228</ele>
        <time>2021-08-11T14:11:13.702Z</time>
      </trkpt>
      <trkpt lat="46.87291" lon="8.46986">
        <ele>2228</ele>
        <time>2021-08-11T14:11:14.703Z</time>
      </trkpt>
      <trkpt lat="46.87291" lon="8.46987">
        <ele>2230</ele>
        <time>2021-08-11T14:11:15.705Z</time>
      </trkpt>
      <trkpt lat="46.87291" lon="8.46986">
        <ele>2230</ele>
        <time>2021-08-11T14:11:24.828Z</time>
      </trkpt>
      <trkpt lat="46.87292" lon="8.46986">
        <ele>2230</ele>
        <time>2021-08-11T14:11:25.828Z</time>
      </trkpt>
      <trkpt lat="46.87291" lon="8.46986">
        <ele>2230</ele>
        <time>2021-08-11T14:11:33.702Z</time>
      </trkpt>
      <trkpt lat="46.87291" lon="8.46985">
        <ele>2230</ele>
        <time>2021-08-11T14:11:34.702Z</time>
      </trkpt>
      <trkpt lat="46.87291" lon="8.46985">
        <ele>2230</ele>
        <time>2021-08-11T14:11:37.557Z</time>
      </trkpt>
      <trkpt lat="46.87291" lon="8.46985">
        <ele>2231</ele>
        <time>2021-08-11T14:11:38.558Z</time>
      </trkpt>
      <trkpt lat="46.8729" lon="8.46985">
        <ele>2231</ele>
        <time>2021-08-11T14:11:39.558Z</time>
      </trkpt>
      <trkpt lat="46.8729" lon="8.46986">
        <ele>2231</ele>
        <time>2021-08-11T14:11:42.582Z</time>
      </trkpt>
      <trkpt lat="46.8729" lon="8.46987">
        <ele>2230</ele>
        <time>2021-08-11T14:11:43.582Z</time>
      </trkpt>
      <trkpt lat="46.87289" lon="8.46987">
        <ele>2230</ele>
        <time>2021-08-11T14:11:44.581Z</time>
      </trkpt>
      <trkpt lat="46.87288" lon="8.46987">
        <ele>2230</ele>
        <time>2021-08-11T14:11:56.596Z</time>
      </trkpt>
      <trkpt lat="46.87288" lon="8.46988">
        <ele>2230</ele>
        <time>2021-08-11T14:11:57.596Z</time>
      </trkpt>
      <trkpt lat="46.87287" lon="8.4699">
        <ele>2220</ele>
        <time>2021-08-11T14:11:58.595Z</time>
      </trkpt>
      <trkpt lat="46.87287" lon="8.46991">
        <ele>2219</ele>
        <time>2021-08-11T14:11:59.596Z</time>
      </trkpt>
      <trkpt lat="46.87287" lon="8.46991">
        <ele>2218</ele>
        <time>2021-08-11T14:12:00.595Z</time>
      </trkpt>
      <trkpt lat="46.87287" lon="8.46992">
        <ele>2217</ele>
        <time>2021-08-11T14:12:01.596Z</time>
      </trkpt>
      <trkpt lat="46.87286" lon="8.46991">
        <ele>2218</ele>
        <time>2021-08-11T14:12:02.597Z</time>
      </trkpt>
      <trkpt lat="46.87285" lon="8.46989">
        <ele>2222</ele>
        <time>2021-08-11T14:12:03.598Z</time>
      </trkpt>
      <trkpt lat="46.87285" lon="8.46988">
        <ele>2223</ele>
        <time>2021-08-11T14:12:04.598Z</time>
      </trkpt>
      <trkpt lat="46.87285" lon="8.46987">
        <ele>2224</ele>
        <time>2021-08-11T14:12:05.597Z</time>
      </trkpt>
      <trkpt lat="46.87285" lon="8.46987">
        <ele>2225</ele>
        <time>2021-08-11T14:12:06.597Z</time>
      </trkpt>
      <trkpt lat="46.87285" lon="8.46986">
        <ele>2226</ele>
        <time>2021-08-11T14:12:07.598Z</time>
      </trkpt>
      <trkpt lat="46.87285" lon="8.46985">
        <ele>2226</ele>
        <time>2021-08-11T14:12:08.597Z</time>
      </trkpt>
      <trkpt lat="46.87284" lon="8.46984">
        <ele>2227</ele>
        <time>2021-08-11T14:12:12.722Z</time>
      </trkpt>
      <trkpt lat="46.87284" lon="8.46983">
        <ele>2228</ele>
        <time>2021-08-11T14:12:21.578Z</time>
      </trkpt>
      <trkpt lat="46.87283" lon="8.46983">
        <ele>2229</ele>
        <time>2021-08-11T14:12:22.578Z</time>
      </trkpt>
      <trkpt lat="46.87283" lon="8.46983">
        <ele>2230</ele>
        <time>2021-08-11T14:12:23.577Z</time>
      </trkpt>
      <trkpt lat="46.87283" lon="8.46982">
        <ele>2231</ele>
        <time>2021-08-11T14:12:24.577Z</time>
      </trkpt>
      <trkpt lat="46.87283" lon="8.46982">
        <ele>2231</ele>
        <time>2021-08-11T14:12:25.577Z</time>
      </trkpt>
      <trkpt lat="46.87283" lon="8.46981">
        <ele>2232</ele>
        <time>2021-08-11T14:12:29.577Z</time>
      </trkpt>
      <trkpt lat="46.87283" lon="8.46981">
        <ele>2233</ele>
        <time>2021-08-11T14:12:53.326Z</time>
      </trkpt>
      <trkpt lat="46.87282" lon="8.46981">
        <ele>2233</ele>
        <time>2021-08-11T14:12:54.327Z</time>
      </trkpt>
      <trkpt lat="46.87282" lon="8.46981">
        <ele>2234</ele>
        <time>2021-08-11T14:12:55.326Z</time>
      </trkpt>
      <trkpt lat="46.87282" lon="8.4698">
        <ele>2235</ele>
        <time>2021-08-11T14:12:56.327Z</time>
      </trkpt>
      <trkpt lat="46.87282" lon="8.4698">
        <ele>2235</ele>
        <time>2021-08-11T14:12:57.328Z</time>
      </trkpt>
      <trkpt lat="46.87282" lon="8.4698">
        <ele>2235</ele>
        <time>2021-08-11T14:12:58.328Z</time>
      </trkpt>
      <trkpt lat="46.87282" lon="8.4698">
        <ele>2235</ele>
        <time>2021-08-11T14:12:59.327Z</time>
      </trkpt>
      <trkpt lat="46.87282" lon="8.46978">
        <ele>2234</ele>
        <time>2021-08-11T14:13:01.455Z</time>
      </trkpt>
      <trkpt lat="46.87281" lon="8.46977">
        <ele>2234</ele>
        <time>2021-08-11T14:13:02.455Z</time>
      </trkpt>
      <trkpt lat="46.87281" lon="8.46976">
        <ele>2235</ele>
        <time>2021-08-11T14:13:03.455Z</time>
      </trkpt>
      <trkpt lat="46.87281" lon="8.46976">
        <ele>2235</ele>
        <time>2021-08-11T14:13:04.455Z</time>
      </trkpt>
      <trkpt lat="46.8728" lon="8.46975">
        <ele>2235</ele>
        <time>2021-08-11T14:13:05.455Z</time>
      </trkpt>
      <trkpt lat="46.8728" lon="8.46975">
        <ele>2235</ele>
        <time>2021-08-11T14:13:07.580Z</time>
      </trkpt>
      <trkpt lat="46.87279" lon="8.46974">
        <ele>2236</ele>
        <time>2021-08-11T14:13:08.581Z</time>
      </trkpt>
      <trkpt lat="46.87279" lon="8.46973">
        <ele>2236</ele>
        <time>2021-08-11T14:13:09.581Z</time>
      </trkpt>
      <trkpt lat="46.87279" lon="8.46973">
        <ele>2236</ele>
        <time>2021-08-11T14:13:10.580Z</time>
      </trkpt>
      <trkpt lat="46.87279" lon="8.46972">
        <ele>2236</ele>
        <time>2021-08-11T14:13:11.580Z</time>
      </trkpt>
      <trkpt lat="46.87278" lon="8.46971">
        <ele>2237</ele>
        <time>2021-08-11T14:13:27.592Z</time>
      </trkpt>
      <trkpt lat="46.87278" lon="8.4697">
        <ele>2242</ele>
        <time>2021-08-11T14:13:28.593Z</time>
      </trkpt>
      <trkpt lat="46.87278" lon="8.4697">
        <ele>2242</ele>
        <time>2021-08-11T14:13:29.594Z</time>
      </trkpt>
      <trkpt lat="46.87279" lon="8.46971">
        <ele>2242</ele>
        <time>2021-08-11T14:13:30.594Z</time>
      </trkpt>
      <trkpt lat="46.87277" lon="8.4697">
        <ele>2242</ele>
        <time>2021-08-11T14:13:31.595Z</time>
      </trkpt>
      <trkpt lat="46.87277" lon="8.4697">
        <ele>2242</ele>
        <time>2021-08-11T14:13:32.594Z</time>
      </trkpt>
      <trkpt lat="46.87277" lon="8.4697">
        <ele>2243</ele>
        <time>2021-08-11T14:13:33.595Z</time>
      </trkpt>
      <trkpt lat="46.87276" lon="8.4697">
        <ele>2243</ele>
        <time>2021-08-11T14:13:34.596Z</time>
      </trkpt>
      <trkpt lat="46.87276" lon="8.46971">
        <ele>2243</ele>
        <time>2021-08-11T14:13:35.596Z</time>
      </trkpt>
      <trkpt lat="46.87276" lon="8.46971">
        <ele>2243</ele>
        <time>2021-08-11T14:13:56.720Z</time>
      </trkpt>
      <trkpt lat="46.87276" lon="8.4697">
        <ele>2243</ele>
        <time>2021-08-11T14:14:09.597Z</time>
      </trkpt>
      <trkpt lat="46.87276" lon="8.4697">
        <ele>2243</ele>
        <time>2021-08-11T14:14:13.474Z</time>
      </trkpt>
      <trkpt lat="46.87277" lon="8.46968">
        <ele>2241</ele>
        <time>2021-08-11T14:14:14.474Z</time>
      </trkpt>
      <trkpt lat="46.87277" lon="8.46968">
        <ele>2241</ele>
        <time>2021-08-11T14:14:15.474Z</time>
      </trkpt>
      <trkpt lat="46.87276" lon="8.46967">
        <ele>2241</ele>
        <time>2021-08-11T14:14:40.598Z</time>
      </trkpt>
      <trkpt lat="46.87275" lon="8.46968">
        <ele>2240</ele>
        <time>2021-08-11T14:14:44.453Z</time>
      </trkpt>
      <trkpt lat="46.87276" lon="8.46968">
        <ele>2240</ele>
        <time>2021-08-11T14:14:45.453Z</time>
      </trkpt>
      <trkpt lat="46.87275" lon="8.46967">
        <ele>2240</ele>
        <time>2021-08-11T14:14:46.454Z</time>
      </trkpt>
      <trkpt lat="46.87275" lon="8.46967">
        <ele>2240</ele>
        <time>2021-08-11T14:14:47.453Z</time>
      </trkpt>
      <trkpt lat="46.87274" lon="8.46966">
        <ele>2242</ele>
        <time>2021-08-11T14:14:48.454Z</time>
      </trkpt>
      <trkpt lat="46.87274" lon="8.46965">
        <ele>2242</ele>
        <time>2021-08-11T14:14:49.453Z</time>
      </trkpt>
      <trkpt lat="46.87273" lon="8.46964">
        <ele>2243</ele>
        <time>2021-08-11T14:14:50.453Z</time>
      </trkpt>
      <trkpt lat="46.87273" lon="8.46964">
        <ele>2243</ele>
        <time>2021-08-11T14:14:51.454Z</time>
      </trkpt>
      <trkpt lat="46.87274" lon="8.46964">
        <ele>2244</ele>
        <time>2021-08-11T14:15:05.474Z</time>
      </trkpt>
      <trkpt lat="46.87274" lon="8.46964">
        <ele>2244</ele>
        <time>2021-08-11T14:15:06.473Z</time>
      </trkpt>
      <trkpt lat="46.87273" lon="8.46964">
        <ele>2245</ele>
        <time>2021-08-11T14:15:07.473Z</time>
      </trkpt>
      <trkpt lat="46.87273" lon="8.46965">
        <ele>2245</ele>
        <time>2021-08-11T14:15:08.474Z</time>
      </trkpt>
      <trkpt lat="46.87272" lon="8.46965">
        <ele>2245</ele>
        <time>2021-08-11T14:15:09.474Z</time>
      </trkpt>
      <trkpt lat="46.87272" lon="8.46966">
        <ele>2246</ele>
        <time>2021-08-11T14:15:10.473Z</time>
      </trkpt>
      <trkpt lat="46.87271" lon="8.46966">
        <ele>2246</ele>
        <time>2021-08-11T14:15:11.473Z</time>
      </trkpt>
      <trkpt lat="46.87271" lon="8.46965">
        <ele>2246</ele>
        <time>2021-08-11T14:15:12.474Z</time>
      </trkpt>
      <trkpt lat="46.8727" lon="8.46965">
        <ele>2245</ele>
        <time>2021-08-11T14:15:13.473Z</time>
      </trkpt>
      <trkpt lat="46.8727" lon="8.46965">
        <ele>2245</ele>
        <time>2021-08-11T14:15:14.473Z</time>
      </trkpt>
      <trkpt lat="46.8727" lon="8.46965">
        <ele>2245</ele>
        <time>2021-08-11T14:15:15.474Z</time>
      </trkpt>
      <trkpt lat="46.87269" lon="8.46966">
        <ele>2243</ele>
        <time>2021-08-11T14:15:16.474Z</time>
      </trkpt>
      <trkpt lat="46.87269" lon="8.46965">
        <ele>2243</ele>
        <time>2021-08-11T14:15:17.473Z</time>
      </trkpt>
      <trkpt lat="46.87266" lon="8.46965">
        <ele>2242</ele>
        <time>2021-08-11T14:15:18.473Z</time>
      </trkpt>
      <trkpt lat="46.87266" lon="8.46964">
        <ele>2242</ele>
        <time>2021-08-11T14:15:19.474Z</time>
      </trkpt>
      <trkpt lat="46.87265" lon="8.46964">
        <ele>2243</ele>
        <time>2021-08-11T14:15:20.473Z</time>
      </trkpt>
      <trkpt lat="46.87265" lon="8.46964">
        <ele>2243</ele>
        <time>2021-08-11T14:15:21.473Z</time>
      </trkpt>
      <trkpt lat="46.87265" lon="8.46964">
        <ele>2243</ele>
        <time>2021-08-11T14:15:22.474Z</time>
      </trkpt>
      <trkpt lat="46.87265" lon="8.46963">
        <ele>2243</ele>
        <time>2021-08-11T14:15:23.475Z</time>
      </trkpt>
      <trkpt lat="46.87265" lon="8.46963">
        <ele>2242</ele>
        <time>2021-08-11T14:15:29.454Z</time>
      </trkpt>
      <trkpt lat="46.87265" lon="8.46962">
        <ele>2242</ele>
        <time>2021-08-11T14:15:30.453Z</time>
      </trkpt>
      <trkpt lat="46.87266" lon="8.46962">
        <ele>2242</ele>
        <time>2021-08-11T14:15:31.454Z</time>
      </trkpt>
      <trkpt lat="46.87266" lon="8.46962">
        <ele>2242</ele>
        <time>2021-08-11T14:15:32.453Z</time>
      </trkpt>
      <trkpt lat="46.87266" lon="8.46961">
        <ele>2242</ele>
        <time>2021-08-11T14:15:33.454Z</time>
      </trkpt>
      <trkpt lat="46.87266" lon="8.4696">
        <ele>2242</ele>
        <time>2021-08-11T14:15:34.454Z</time>
      </trkpt>
      <trkpt lat="46.87266" lon="8.4696">
        <ele>2241</ele>
        <time>2021-08-11T14:15:35.454Z</time>
      </trkpt>
      <trkpt lat="46.87265" lon="8.46959">
        <ele>2241</ele>
        <time>2021-08-11T14:15:42.452Z</time>
      </trkpt>
      <trkpt lat="46.87265" lon="8.46959">
        <ele>2241</ele>
        <time>2021-08-11T14:15:43.453Z</time>
      </trkpt>
      <trkpt lat="46.87265" lon="8.46958">
        <ele>2241</ele>
        <time>2021-08-11T14:15:51.206Z</time>
      </trkpt>
      <trkpt lat="46.87265" lon="8.46958">
        <ele>2241</ele>
        <time>2021-08-11T14:15:52.205Z</time>
      </trkpt>
      <trkpt lat="46.87265" lon="8.46956">
        <ele>2241</ele>
        <time>2021-08-11T14:15:53.206Z</time>
      </trkpt>
      <trkpt lat="46.87265" lon="8.46955">
        <ele>2241</ele>
        <time>2021-08-11T14:15:54.205Z</time>
      </trkpt>
      <trkpt lat="46.87265" lon="8.46954">
        <ele>2241</ele>
        <time>2021-08-11T14:15:55.206Z</time>
      </trkpt>
      <trkpt lat="46.87265" lon="8.46954">
        <ele>2241</ele>
        <time>2021-08-11T14:16:01.206Z</time>
      </trkpt>
      <trkpt lat="46.87266" lon="8.46954">
        <ele>2241</ele>
        <time>2021-08-11T14:16:02.206Z</time>
      </trkpt>
      <trkpt lat="46.87266" lon="8.46953">
        <ele>2241</ele>
        <time>2021-08-11T14:16:03.205Z</time>
      </trkpt>
      <trkpt lat="46.87267" lon="8.46953">
        <ele>2242</ele>
        <time>2021-08-11T14:16:08.955Z</time>
      </trkpt>
      <trkpt lat="46.87267" lon="8.46953">
        <ele>2242</ele>
        <time>2021-08-11T14:16:09.955Z</time>
      </trkpt>
      <trkpt lat="46.87268" lon="8.46952">
        <ele>2242</ele>
        <time>2021-08-11T14:16:10.955Z</time>
      </trkpt>
      <trkpt lat="46.87267" lon="8.46951">
        <ele>2242</ele>
        <time>2021-08-11T14:16:11.955Z</time>
      </trkpt>
      <trkpt lat="46.87268" lon="8.4695">
        <ele>2243</ele>
        <time>2021-08-11T14:16:12.954Z</time>
      </trkpt>
      <trkpt lat="46.87268" lon="8.4695">
        <ele>2243</ele>
        <time>2021-08-11T14:16:13.955Z</time>
      </trkpt>
      <trkpt lat="46.87268" lon="8.46949">
        <ele>2243</ele>
        <time>2021-08-11T14:16:14.955Z</time>
      </trkpt>
      <trkpt lat="46.87268" lon="8.46949">
        <ele>2243</ele>
        <time>2021-08-11T14:16:15.955Z</time>
      </trkpt>
      <trkpt lat="46.87268" lon="8.46949">
        <ele>2243</ele>
        <time>2021-08-11T14:16:16.955Z</time>
      </trkpt>
      <trkpt lat="46.87268" lon="8.46948">
        <ele>2243</ele>
        <time>2021-08-11T14:16:52.950Z</time>
      </trkpt>
      <trkpt lat="46.87268" lon="8.46948">
        <ele>2243</ele>
        <time>2021-08-11T14:17:08.844Z</time>
      </trkpt>
      <trkpt lat="46.87268" lon="8.46947">
        <ele>2243</ele>
        <time>2021-08-11T14:17:09.844Z</time>
      </trkpt>
      <trkpt lat="46.87269" lon="8.46947">
        <ele>2244</ele>
        <time>2021-08-11T14:17:20.702Z</time>
      </trkpt>
      <trkpt lat="46.87269" lon="8.46947">
        <ele>2244</ele>
        <time>2021-08-11T14:17:21.701Z</time>
      </trkpt>
      <trkpt lat="46.87269" lon="8.46946">
        <ele>2244</ele>
        <time>2021-08-11T14:17:22.702Z</time>
      </trkpt>
      <trkpt lat="46.87269" lon="8.46946">
        <ele>2244</ele>
        <time>2021-08-11T14:17:31.704Z</time>
      </trkpt>
      <trkpt lat="46.8727" lon="8.46946">
        <ele>2244</ele>
        <time>2021-08-11T14:17:32.704Z</time>
      </trkpt>
      <trkpt lat="46.87269" lon="8.46947">
        <ele>2244</ele>
        <time>2021-08-11T14:18:48.578Z</time>
      </trkpt>
      <trkpt lat="46.87269" lon="8.46947">
        <ele>2244</ele>
        <time>2021-08-11T14:18:49.577Z</time>
      </trkpt>
      <trkpt lat="46.87269" lon="8.46948">
        <ele>2244</ele>
        <time>2021-08-11T14:18:59.327Z</time>
      </trkpt>
      <trkpt lat="46.87269" lon="8.46948">
        <ele>2244</ele>
        <time>2021-08-11T14:19:00.327Z</time>
      </trkpt>
      <trkpt lat="46.87267" lon="8.46947">
        <ele>2244</ele>
        <time>2021-08-11T14:19:01.328Z</time>
      </trkpt>
      <trkpt lat="46.87268" lon="8.46947">
        <ele>2244</ele>
        <time>2021-08-11T14:19:02.329Z</time>
      </trkpt>
      <trkpt lat="46.87268" lon="8.46947">
        <ele>2244</ele>
        <time>2021-08-11T14:19:10.476Z</time>
      </trkpt>
      <trkpt lat="46.87268" lon="8.46946">
        <ele>2244</ele>
        <time>2021-08-11T14:19:11.477Z</time>
      </trkpt>
      <trkpt lat="46.87268" lon="8.46945">
        <ele>2245</ele>
        <time>2021-08-11T14:19:12.478Z</time>
      </trkpt>
      <trkpt lat="46.87268" lon="8.46944">
        <ele>2245</ele>
        <time>2021-08-11T14:19:13.478Z</time>
      </trkpt>
      <trkpt lat="46.87268" lon="8.46944">
        <ele>2246</ele>
        <time>2021-08-11T14:19:14.478Z</time>
      </trkpt>
      <trkpt lat="46.87268" lon="8.46943">
        <ele>2246</ele>
        <time>2021-08-11T14:19:20.601Z</time>
      </trkpt>
      <trkpt lat="46.87268" lon="8.46943">
        <ele>2246</ele>
        <time>2021-08-11T14:19:21.601Z</time>
      </trkpt>
      <trkpt lat="46.87267" lon="8.46942">
        <ele>2247</ele>
        <time>2021-08-11T14:19:22.600Z</time>
      </trkpt>
      <trkpt lat="46.87267" lon="8.46942">
        <ele>2247</ele>
        <time>2021-08-11T14:19:23.600Z</time>
      </trkpt>
      <trkpt lat="46.87267" lon="8.46942">
        <ele>2247</ele>
        <time>2021-08-11T14:19:37.725Z</time>
      </trkpt>
      <trkpt lat="46.87266" lon="8.46942">
        <ele>2248</ele>
        <time>2021-08-11T14:19:38.725Z</time>
      </trkpt>
      <trkpt lat="46.87265" lon="8.46942">
        <ele>2248</ele>
        <time>2021-08-11T14:19:39.725Z</time>
      </trkpt>
      <trkpt lat="46.87265" lon="8.46942">
        <ele>2248</ele>
        <time>2021-08-11T14:19:48.853Z</time>
      </trkpt>
      <trkpt lat="46.87266" lon="8.46942">
        <ele>2248</ele>
        <time>2021-08-11T14:19:49.852Z</time>
      </trkpt>
      <trkpt lat="46.87265" lon="8.46941">
        <ele>2248</ele>
        <time>2021-08-11T14:19:50.852Z</time>
      </trkpt>
      <trkpt lat="46.87265" lon="8.4694">
        <ele>2248</ele>
        <time>2021-08-11T14:20:01.972Z</time>
      </trkpt>
      <trkpt lat="46.87264" lon="8.46939">
        <ele>2248</ele>
        <time>2021-08-11T14:20:02.972Z</time>
      </trkpt>
      <trkpt lat="46.87265" lon="8.46939">
        <ele>2249</ele>
        <time>2021-08-11T14:20:03.973Z</time>
      </trkpt>
      <trkpt lat="46.87265" lon="8.46939">
        <ele>2249</ele>
        <time>2021-08-11T14:20:04.972Z</time>
      </trkpt>
      <trkpt lat="46.87264" lon="8.46939">
        <ele>2249</ele>
        <time>2021-08-11T14:20:05.972Z</time>
      </trkpt>
      <trkpt lat="46.87263" lon="8.46939">
        <ele>2250</ele>
        <time>2021-08-11T14:20:06.973Z</time>
      </trkpt>
      <trkpt lat="46.87263" lon="8.46939">
        <ele>2250</ele>
        <time>2021-08-11T14:20:07.973Z</time>
      </trkpt>
      <trkpt lat="46.87262" lon="8.46939">
        <ele>2250</ele>
        <time>2021-08-11T14:20:08.972Z</time>
      </trkpt>
      <trkpt lat="46.87262" lon="8.46939">
        <ele>2251</ele>
        <time>2021-08-11T14:20:14.077Z</time>
      </trkpt>
      <trkpt lat="46.87262" lon="8.46939">
        <ele>2251</ele>
        <time>2021-08-11T14:20:15.077Z</time>
      </trkpt>
      <trkpt lat="46.87261" lon="8.46939">
        <ele>2251</ele>
        <time>2021-08-11T14:20:16.078Z</time>
      </trkpt>
      <trkpt lat="46.87261" lon="8.46938">
        <ele>2252</ele>
        <time>2021-08-11T14:20:25.077Z</time>
      </trkpt>
      <trkpt lat="46.8726" lon="8.46938">
        <ele>2253</ele>
        <time>2021-08-11T14:20:26.077Z</time>
      </trkpt>
      <trkpt lat="46.8726" lon="8.46939">
        <ele>2253</ele>
        <time>2021-08-11T14:20:31.826Z</time>
      </trkpt>
      <trkpt lat="46.8726" lon="8.46939">
        <ele>2253</ele>
        <time>2021-08-11T14:20:32.825Z</time>
      </trkpt>
      <trkpt lat="46.8726" lon="8.46938">
        <ele>2253</ele>
        <time>2021-08-11T14:20:33.825Z</time>
      </trkpt>
      <trkpt lat="46.8726" lon="8.46938">
        <ele>2252</ele>
        <time>2021-08-11T14:20:34.826Z</time>
      </trkpt>
      <trkpt lat="46.8726" lon="8.46938">
        <ele>2252</ele>
        <time>2021-08-11T14:20:35.826Z</time>
      </trkpt>
      <trkpt lat="46.87258" lon="8.46939">
        <ele>2253</ele>
        <time>2021-08-11T14:20:39.954Z</time>
      </trkpt>
      <trkpt lat="46.87258" lon="8.4694">
        <ele>2254</ele>
        <time>2021-08-11T14:20:40.953Z</time>
      </trkpt>
      <trkpt lat="46.87258" lon="8.4694">
        <ele>2254</ele>
        <time>2021-08-11T14:20:48.702Z</time>
      </trkpt>
      <trkpt lat="46.87257" lon="8.4694">
        <ele>2254</ele>
        <time>2021-08-11T14:20:49.703Z</time>
      </trkpt>
      <trkpt lat="46.87257" lon="8.46941">
        <ele>2255</ele>
        <time>2021-08-11T14:20:50.702Z</time>
      </trkpt>
      <trkpt lat="46.87257" lon="8.46942">
        <ele>2256</ele>
        <time>2021-08-11T14:20:51.704Z</time>
      </trkpt>
      <trkpt lat="46.87257" lon="8.46942">
        <ele>2256</ele>
        <time>2021-08-11T14:20:52.704Z</time>
      </trkpt>
      <trkpt lat="46.87257" lon="8.46941">
        <ele>2256</ele>
        <time>2021-08-11T14:20:53.704Z</time>
      </trkpt>
      <trkpt lat="46.87256" lon="8.46941">
        <ele>2257</ele>
        <time>2021-08-11T14:20:54.703Z</time>
      </trkpt>
      <trkpt lat="46.87255" lon="8.46941">
        <ele>2257</ele>
        <time>2021-08-11T14:20:55.703Z</time>
      </trkpt>
      <trkpt lat="46.87255" lon="8.46941">
        <ele>2256</ele>
        <time>2021-08-11T14:20:56.703Z</time>
      </trkpt>
      <trkpt lat="46.87254" lon="8.46939">
        <ele>2263</ele>
        <time>2021-08-11T14:21:11.825Z</time>
      </trkpt>
      <trkpt lat="46.87254" lon="8.46938">
        <ele>2263</ele>
        <time>2021-08-11T14:21:12.826Z</time>
      </trkpt>
      <trkpt lat="46.87254" lon="8.46937">
        <ele>2263</ele>
        <time>2021-08-11T14:21:22.572Z</time>
      </trkpt>
      <trkpt lat="46.87254" lon="8.46936">
        <ele>2264</ele>
        <time>2021-08-11T14:21:23.571Z</time>
      </trkpt>
      <trkpt lat="46.87255" lon="8.46935">
        <ele>2264</ele>
        <time>2021-08-11T14:21:27.472Z</time>
      </trkpt>
      <trkpt lat="46.87255" lon="8.46934">
        <ele>2264</ele>
        <time>2021-08-11T14:21:28.472Z</time>
      </trkpt>
      <trkpt lat="46.87256" lon="8.46934">
        <ele>2264</ele>
        <time>2021-08-11T14:21:29.471Z</time>
      </trkpt>
      <trkpt lat="46.87257" lon="8.46934">
        <ele>2263</ele>
        <time>2021-08-11T14:21:30.471Z</time>
      </trkpt>
      <trkpt lat="46.87257" lon="8.46934">
        <ele>2263</ele>
        <time>2021-08-11T14:21:31.472Z</time>
      </trkpt>
      <trkpt lat="46.87258" lon="8.46934">
        <ele>2262</ele>
        <time>2021-08-11T14:21:32.471Z</time>
      </trkpt>
      <trkpt lat="46.87258" lon="8.46934">
        <ele>2262</ele>
        <time>2021-08-11T14:21:33.471Z</time>
      </trkpt>
      <trkpt lat="46.87258" lon="8.46933">
        <ele>2261</ele>
        <time>2021-08-11T14:21:34.471Z</time>
      </trkpt>
      <trkpt lat="46.87258" lon="8.46933">
        <ele>2261</ele>
        <time>2021-08-11T14:21:36.558Z</time>
      </trkpt>
      <trkpt lat="46.87259" lon="8.46932">
        <ele>2260</ele>
        <time>2021-08-11T14:21:37.557Z</time>
      </trkpt>
      <trkpt lat="46.8726" lon="8.46931">
        <ele>2259</ele>
        <time>2021-08-11T14:21:38.557Z</time>
      </trkpt>
      <trkpt lat="46.87261" lon="8.4693">
        <ele>2259</ele>
        <time>2021-08-11T14:21:39.557Z</time>
      </trkpt>
      <trkpt lat="46.8726" lon="8.4693">
        <ele>2259</ele>
        <time>2021-08-11T14:21:43.594Z</time>
      </trkpt>
      <trkpt lat="46.8726" lon="8.4693">
        <ele>2259</ele>
        <time>2021-08-11T14:21:44.593Z</time>
      </trkpt>
      <trkpt lat="46.8726" lon="8.46929">
        <ele>2258</ele>
        <time>2021-08-11T14:21:58.467Z</time>
      </trkpt>
      <trkpt lat="46.87261" lon="8.46928">
        <ele>2258</ele>
        <time>2021-08-11T14:21:59.468Z</time>
      </trkpt>
      <trkpt lat="46.87261" lon="8.46928">
        <ele>2258</ele>
        <time>2021-08-11T14:22:00.468Z</time>
      </trkpt>
      <trkpt lat="46.87261" lon="8.46927">
        <ele>2258</ele>
        <time>2021-08-11T14:22:01.467Z</time>
      </trkpt>
      <trkpt lat="46.87261" lon="8.46926">
        <ele>2258</ele>
        <time>2021-08-11T14:22:02.468Z</time>
      </trkpt>
      <trkpt lat="46.8726" lon="8.46926">
        <ele>2259</ele>
        <time>2021-08-11T14:22:03.468Z</time>
      </trkpt>
      <trkpt lat="46.8726" lon="8.46926">
        <ele>2259</ele>
        <time>2021-08-11T14:22:09.571Z</time>
      </trkpt>
      <trkpt lat="46.87263" lon="8.4693">
        <ele>2259</ele>
        <time>2021-08-11T14:22:10.572Z</time>
      </trkpt>
      <trkpt lat="46.87263" lon="8.46931">
        <ele>2259</ele>
        <time>2021-08-11T14:22:11.571Z</time>
      </trkpt>
      <trkpt lat="46.87262" lon="8.46931">
        <ele>2260</ele>
        <time>2021-08-11T14:22:12.571Z</time>
      </trkpt>
      <trkpt lat="46.87263" lon="8.46928">
        <ele>2260</ele>
        <time>2021-08-11T14:22:13.572Z</time>
      </trkpt>
      <trkpt lat="46.87264" lon="8.46928">
        <ele>2259</ele>
        <time>2021-08-11T14:22:14.571Z</time>
      </trkpt>
      <trkpt lat="46.87264" lon="8.46927">
        <ele>2259</ele>
        <time>2021-08-11T14:22:15.571Z</time>
      </trkpt>
      <trkpt lat="46.87264" lon="8.46927">
        <ele>2259</ele>
        <time>2021-08-11T14:22:16.572Z</time>
      </trkpt>
      <trkpt lat="46.87264" lon="8.46926">
        <ele>2258</ele>
        <time>2021-08-11T14:22:17.571Z</time>
      </trkpt>
      <trkpt lat="46.87265" lon="8.46926">
        <ele>2258</ele>
        <time>2021-08-11T14:22:18.572Z</time>
      </trkpt>
      <trkpt lat="46.87264" lon="8.46925">
        <ele>2258</ele>
        <time>2021-08-11T14:22:24.697Z</time>
      </trkpt>
      <trkpt lat="46.87264" lon="8.46925">
        <ele>2258</ele>
        <time>2021-08-11T14:22:25.696Z</time>
      </trkpt>
      <trkpt lat="46.87266" lon="8.46924">
        <ele>2257</ele>
        <time>2021-08-11T14:22:26.698Z</time>
      </trkpt>
      <trkpt lat="46.87267" lon="8.46924">
        <ele>2257</ele>
        <time>2021-08-11T14:22:27.698Z</time>
      </trkpt>
      <trkpt lat="46.87267" lon="8.46924">
        <ele>2257</ele>
        <time>2021-08-11T14:22:31.822Z</time>
      </trkpt>
      <trkpt lat="46.87267" lon="8.46924">
        <ele>2258</ele>
        <time>2021-08-11T14:22:32.822Z</time>
      </trkpt>
      <trkpt lat="46.87268" lon="8.46923">
        <ele>2258</ele>
        <time>2021-08-11T14:22:33.821Z</time>
      </trkpt>
      <trkpt lat="46.87268" lon="8.46923">
        <ele>2257</ele>
        <time>2021-08-11T14:22:34.822Z</time>
      </trkpt>
      <trkpt lat="46.87269" lon="8.46923">
        <ele>2257</ele>
        <time>2021-08-11T14:22:35.821Z</time>
      </trkpt>
      <trkpt lat="46.87268" lon="8.46922">
        <ele>2257</ele>
        <time>2021-08-11T14:22:40.948Z</time>
      </trkpt>
      <trkpt lat="46.87269" lon="8.4692">
        <ele>2256</ele>
        <time>2021-08-11T14:22:55.695Z</time>
      </trkpt>
      <trkpt lat="46.8727" lon="8.46919">
        <ele>2256</ele>
        <time>2021-08-11T14:22:57.451Z</time>
      </trkpt>
      <trkpt lat="46.8727" lon="8.46919">
        <ele>2256</ele>
        <time>2021-08-11T14:23:07.217Z</time>
      </trkpt>
      <trkpt lat="46.8727" lon="8.46919">
        <ele>2257</ele>
        <time>2021-08-11T14:23:08.218Z</time>
      </trkpt>
      <trkpt lat="46.87269" lon="8.46918">
        <ele>2257</ele>
        <time>2021-08-11T14:23:09.219Z</time>
      </trkpt>
      <trkpt lat="46.87269" lon="8.46918">
        <ele>2258</ele>
        <time>2021-08-11T14:23:10.218Z</time>
      </trkpt>
      <trkpt lat="46.87269" lon="8.46918">
        <ele>2258</ele>
        <time>2021-08-11T14:23:12.326Z</time>
      </trkpt>
      <trkpt lat="46.87268" lon="8.46918">
        <ele>2259</ele>
        <time>2021-08-11T14:23:13.327Z</time>
      </trkpt>
      <trkpt lat="46.87268" lon="8.46918">
        <ele>2259</ele>
        <time>2021-08-11T14:23:31.065Z</time>
      </trkpt>
      <trkpt lat="46.87268" lon="8.46918">
        <ele>2259</ele>
        <time>2021-08-11T14:23:49.841Z</time>
      </trkpt>
      <trkpt lat="46.87268" lon="8.46918">
        <ele>2260</ele>
        <time>2021-08-11T14:23:50.840Z</time>
      </trkpt>
      <trkpt lat="46.87267" lon="8.46918">
        <ele>2260</ele>
        <time>2021-08-11T14:24:08.718Z</time>
      </trkpt>
      <trkpt lat="46.87267" lon="8.46918">
        <ele>2260</ele>
        <time>2021-08-11T14:24:09.717Z</time>
      </trkpt>
      <trkpt lat="46.87267" lon="8.46918">
        <ele>2260</ele>
        <time>2021-08-11T14:24:10.718Z</time>
      </trkpt>
      <trkpt lat="46.87266" lon="8.46918">
        <ele>2260</ele>
        <time>2021-08-11T14:24:11.718Z</time>
      </trkpt>
      <trkpt lat="46.87266" lon="8.46919">
        <ele>2260</ele>
        <time>2021-08-11T14:24:19.821Z</time>
      </trkpt>
      <trkpt lat="46.87266" lon="8.4692">
        <ele>2260</ele>
        <time>2021-08-11T14:24:20.822Z</time>
      </trkpt>
      <trkpt lat="46.87265" lon="8.4692">
        <ele>2261</ele>
        <time>2021-08-11T14:24:21.821Z</time>
      </trkpt>
      <trkpt lat="46.87265" lon="8.46921">
        <ele>2261</ele>
        <time>2021-08-11T14:24:22.822Z</time>
      </trkpt>
      <trkpt lat="46.87264" lon="8.46921">
        <ele>2261</ele>
        <time>2021-08-11T14:24:23.822Z</time>
      </trkpt>
      <trkpt lat="46.87264" lon="8.46921">
        <ele>2261</ele>
        <time>2021-08-11T14:24:24.821Z</time>
      </trkpt>
      <trkpt lat="46.87263" lon="8.46921">
        <ele>2261</ele>
        <time>2021-08-11T14:24:25.822Z</time>
      </trkpt>
      <trkpt lat="46.87263" lon="8.46922">
        <ele>2261</ele>
        <time>2021-08-11T14:24:26.822Z</time>
      </trkpt>
      <trkpt lat="46.87262" lon="8.46922">
        <ele>2261</ele>
        <time>2021-08-11T14:24:27.822Z</time>
      </trkpt>
      <trkpt lat="46.87262" lon="8.46922">
        <ele>2262</ele>
        <time>2021-08-11T14:24:31.964Z</time>
      </trkpt>
      <trkpt lat="46.87262" lon="8.46922">
        <ele>2262</ele>
        <time>2021-08-11T14:24:32.964Z</time>
      </trkpt>
      <trkpt lat="46.87261" lon="8.46922">
        <ele>2262</ele>
        <time>2021-08-11T14:24:33.964Z</time>
      </trkpt>
      <trkpt lat="46.8726" lon="8.46922">
        <ele>2262</ele>
        <time>2021-08-11T14:24:34.964Z</time>
      </trkpt>
      <trkpt lat="46.8726" lon="8.46922">
        <ele>2262</ele>
        <time>2021-08-11T14:24:35.965Z</time>
      </trkpt>
      <trkpt lat="46.87259" lon="8.46922">
        <ele>2262</ele>
        <time>2021-08-11T14:24:36.965Z</time>
      </trkpt>
      <trkpt lat="46.87259" lon="8.46923">
        <ele>2262</ele>
        <time>2021-08-11T14:24:37.965Z</time>
      </trkpt>
      <trkpt lat="46.87258" lon="8.46923">
        <ele>2262</ele>
        <time>2021-08-11T14:24:38.964Z</time>
      </trkpt>
      <trkpt lat="46.87258" lon="8.46923">
        <ele>2262</ele>
        <time>2021-08-11T14:24:39.964Z</time>
      </trkpt>
      <trkpt lat="46.87258" lon="8.46923">
        <ele>2262</ele>
        <time>2021-08-11T14:24:40.965Z</time>
      </trkpt>
      <trkpt lat="46.87258" lon="8.46922">
        <ele>2262</ele>
        <time>2021-08-11T14:24:41.965Z</time>
      </trkpt>
      <trkpt lat="46.87257" lon="8.46921">
        <ele>2265</ele>
        <time>2021-08-11T14:24:42.966Z</time>
      </trkpt>
      <trkpt lat="46.87256" lon="8.4692">
        <ele>2265</ele>
        <time>2021-08-11T14:24:58.069Z</time>
      </trkpt>
      <trkpt lat="46.87256" lon="8.4692">
        <ele>2266</ele>
        <time>2021-08-11T14:24:59.069Z</time>
      </trkpt>
      <trkpt lat="46.87255" lon="8.4692">
        <ele>2266</ele>
        <time>2021-08-11T14:25:05.943Z</time>
      </trkpt>
      <trkpt lat="46.87255" lon="8.4692">
        <ele>2265</ele>
        <time>2021-08-11T14:25:06.943Z</time>
      </trkpt>
      <trkpt lat="46.87254" lon="8.4692">
        <ele>2265</ele>
        <time>2021-08-11T14:25:07.943Z</time>
      </trkpt>
      <trkpt lat="46.87254" lon="8.4692">
        <ele>2265</ele>
        <time>2021-08-11T14:25:19.067Z</time>
      </trkpt>
      <trkpt lat="46.87253" lon="8.4692">
        <ele>2265</ele>
        <time>2021-08-11T14:25:20.066Z</time>
      </trkpt>
      <trkpt lat="46.87252" lon="8.4692">
        <ele>2265</ele>
        <time>2021-08-11T14:25:21.067Z</time>
      </trkpt>
      <trkpt lat="46.87252" lon="8.46921">
        <ele>2265</ele>
        <time>2021-08-11T14:25:42.088Z</time>
      </trkpt>
      <trkpt lat="46.87251" lon="8.46921">
        <ele>2265</ele>
        <time>2021-08-11T14:25:43.088Z</time>
      </trkpt>
      <trkpt lat="46.87251" lon="8.46921">
        <ele>2265</ele>
        <time>2021-08-11T14:26:02.213Z</time>
      </trkpt>
      <trkpt lat="46.8725" lon="8.46922">
        <ele>2266</ele>
        <time>2021-08-11T14:26:03.213Z</time>
      </trkpt>
      <trkpt lat="46.8725" lon="8.46922">
        <ele>2266</ele>
        <time>2021-08-11T14:26:04.213Z</time>
      </trkpt>
      <trkpt lat="46.8725" lon="8.46922">
        <ele>2266</ele>
        <time>2021-08-11T14:26:13.086Z</time>
      </trkpt>
      <trkpt lat="46.87248" lon="8.46922">
        <ele>2263</ele>
        <time>2021-08-11T14:26:26.963Z</time>
      </trkpt>
      <trkpt lat="46.87246" lon="8.46923">
        <ele>2263</ele>
        <time>2021-08-11T14:26:27.964Z</time>
      </trkpt>
      <trkpt lat="46.87246" lon="8.46923">
        <ele>2263</ele>
        <time>2021-08-11T14:26:28.964Z</time>
      </trkpt>
      <trkpt lat="46.87246" lon="8.46923">
        <ele>2263</ele>
        <time>2021-08-11T14:26:42.941Z</time>
      </trkpt>
      <trkpt lat="46.87245" lon="8.46924">
        <ele>2263</ele>
        <time>2021-08-11T14:26:57.817Z</time>
      </trkpt>
      <trkpt lat="46.87245" lon="8.46924">
        <ele>2265</ele>
        <time>2021-08-11T14:26:58.817Z</time>
      </trkpt>
      <trkpt lat="46.87245" lon="8.46924">
        <ele>2265</ele>
        <time>2021-08-11T14:27:11.587Z</time>
      </trkpt>
      <trkpt lat="46.87244" lon="8.46924">
        <ele>2265</ele>
        <time>2021-08-11T14:27:22.443Z</time>
      </trkpt>
      <trkpt lat="46.87244" lon="8.46924">
        <ele>2265</ele>
        <time>2021-08-11T14:27:23.444Z</time>
      </trkpt>
      <trkpt lat="46.87243" lon="8.46924">
        <ele>2266</ele>
        <time>2021-08-11T14:27:24.443Z</time>
      </trkpt>
      <trkpt lat="46.87243" lon="8.46925">
        <ele>2266</ele>
        <time>2021-08-11T14:27:27.449Z</time>
      </trkpt>
      <trkpt lat="46.87243" lon="8.46925">
        <ele>2266</ele>
        <time>2021-08-11T14:27:37.189Z</time>
      </trkpt>
      <trkpt lat="46.87243" lon="8.46926">
        <ele>2266</ele>
        <time>2021-08-11T14:27:38.190Z</time>
      </trkpt>
      <trkpt lat="46.87242" lon="8.46925">
        <ele>2269</ele>
        <time>2021-08-11T14:27:39.191Z</time>
      </trkpt>
      <trkpt lat="46.87243" lon="8.46925">
        <ele>2272</ele>
        <time>2021-08-11T14:27:53.940Z</time>
      </trkpt>
      <trkpt lat="46.87243" lon="8.46925">
        <ele>2272</ele>
        <time>2021-08-11T14:27:54.939Z</time>
      </trkpt>
      <trkpt lat="46.87243" lon="8.46925">
        <ele>2273</ele>
        <time>2021-08-11T14:27:55.939Z</time>
      </trkpt>
      <trkpt lat="46.87245" lon="8.46922">
        <ele>2276</ele>
        <time>2021-08-11T14:27:56.940Z</time>
      </trkpt>
      <trkpt lat="46.87245" lon="8.46922">
        <ele>2276</ele>
        <time>2021-08-11T14:27:57.940Z</time>
      </trkpt>
      <trkpt lat="46.87245" lon="8.46921">
        <ele>2277</ele>
        <time>2021-08-11T14:28:08.068Z</time>
      </trkpt>
      <trkpt lat="46.87245" lon="8.46921">
        <ele>2277</ele>
        <time>2021-08-11T14:28:09.069Z</time>
      </trkpt>
      <trkpt lat="46.87246" lon="8.4692">
        <ele>2277</ele>
        <time>2021-08-11T14:28:10.069Z</time>
      </trkpt>
      <trkpt lat="46.87245" lon="8.46919">
        <ele>2277</ele>
        <time>2021-08-11T14:28:18.068Z</time>
      </trkpt>
      <trkpt lat="46.87245" lon="8.46918">
        <ele>2277</ele>
        <time>2021-08-11T14:28:19.069Z</time>
      </trkpt>
      <trkpt lat="46.87245" lon="8.46918">
        <ele>2277</ele>
        <time>2021-08-11T14:28:20.069Z</time>
      </trkpt>
      <trkpt lat="46.87245" lon="8.46919">
        <ele>2277</ele>
        <time>2021-08-11T14:31:16.088Z</time>
      </trkpt>
      <trkpt lat="46.87245" lon="8.46919">
        <ele>2277</ele>
        <time>2021-08-11T14:31:17.088Z</time>
      </trkpt>
      <trkpt lat="46.87245" lon="8.46918">
        <ele>2277</ele>
        <time>2021-08-11T14:31:52.942Z</time>
      </trkpt>
      <trkpt lat="46.87244" lon="8.46919">
        <ele>2276</ele>
        <time>2021-08-11T14:31:53.943Z</time>
      </trkpt>
      <trkpt lat="46.87243" lon="8.46918">
        <ele>2276</ele>
        <time>2021-08-11T14:31:54.942Z</time>
      </trkpt>
      <trkpt lat="46.87243" lon="8.46919">
        <ele>2276</ele>
        <time>2021-08-11T14:32:17.065Z</time>
      </trkpt>
      <trkpt lat="46.87242" lon="8.46918">
        <ele>2275</ele>
        <time>2021-08-11T14:32:18.065Z</time>
      </trkpt>
      <trkpt lat="46.87242" lon="8.46918">
        <ele>2275</ele>
        <time>2021-08-11T14:32:26.816Z</time>
      </trkpt>
      <trkpt lat="46.87241" lon="8.46919">
        <ele>2275</ele>
        <time>2021-08-11T14:32:27.816Z</time>
      </trkpt>
      <trkpt lat="46.8724" lon="8.46918">
        <ele>2275</ele>
        <time>2021-08-11T14:32:28.816Z</time>
      </trkpt>
      <trkpt lat="46.8724" lon="8.46918">
        <ele>2276</ele>
        <time>2021-08-11T14:32:29.816Z</time>
      </trkpt>
      <trkpt lat="46.87239" lon="8.46918">
        <ele>2276</ele>
        <time>2021-08-11T14:32:30.815Z</time>
      </trkpt>
      <trkpt lat="46.87239" lon="8.46918">
        <ele>2276</ele>
        <time>2021-08-11T14:32:40.939Z</time>
      </trkpt>
      <trkpt lat="46.87238" lon="8.46918">
        <ele>2277</ele>
        <time>2021-08-11T14:32:41.939Z</time>
      </trkpt>
      <trkpt lat="46.87238" lon="8.46918">
        <ele>2277</ele>
        <time>2021-08-11T14:32:42.939Z</time>
      </trkpt>
      <trkpt lat="46.87238" lon="8.46918">
        <ele>2277</ele>
        <time>2021-08-11T14:32:43.939Z</time>
      </trkpt>
      <trkpt lat="46.87237" lon="8.46918">
        <ele>2278</ele>
        <time>2021-08-11T14:32:44.939Z</time>
      </trkpt>
      <trkpt lat="46.87237" lon="8.46918">
        <ele>2278</ele>
        <time>2021-08-11T14:32:51.064Z</time>
      </trkpt>
      <trkpt lat="46.87236" lon="8.46918">
        <ele>2279</ele>
        <time>2021-08-11T14:32:56.811Z</time>
      </trkpt>
      <trkpt lat="46.87236" lon="8.46918">
        <ele>2279</ele>
        <time>2021-08-11T14:32:57.812Z</time>
      </trkpt>
      <trkpt lat="46.87235" lon="8.46919">
        <ele>2280</ele>
        <time>2021-08-11T14:32:58.811Z</time>
      </trkpt>
      <trkpt lat="46.87235" lon="8.46919">
        <ele>2281</ele>
        <time>2021-08-11T14:33:06.938Z</time>
      </trkpt>
      <trkpt lat="46.87234" lon="8.46919">
        <ele>2281</ele>
        <time>2021-08-11T14:33:19.685Z</time>
      </trkpt>
      <trkpt lat="46.87233" lon="8.46919">
        <ele>2282</ele>
        <time>2021-08-11T14:33:20.686Z</time>
      </trkpt>
      <trkpt lat="46.87233" lon="8.46918">
        <ele>2282</ele>
        <time>2021-08-11T14:33:28.463Z</time>
      </trkpt>
      <trkpt lat="46.87232" lon="8.46918">
        <ele>2282</ele>
        <time>2021-08-11T14:33:29.462Z</time>
      </trkpt>
      <trkpt lat="46.87232" lon="8.46918">
        <ele>2282</ele>
        <time>2021-08-11T14:33:30.463Z</time>
      </trkpt>
      <trkpt lat="46.87231" lon="8.46917">
        <ele>2282</ele>
        <time>2021-08-11T14:33:31.463Z</time>
      </trkpt>
      <trkpt lat="46.87231" lon="8.46918">
        <ele>2282</ele>
        <time>2021-08-11T14:33:32.462Z</time>
      </trkpt>
      <trkpt lat="46.87231" lon="8.46917">
        <ele>2282</ele>
        <time>2021-08-11T14:33:33.463Z</time>
      </trkpt>
      <trkpt lat="46.8723" lon="8.46917">
        <ele>2281</ele>
        <time>2021-08-11T14:33:34.463Z</time>
      </trkpt>
      <trkpt lat="46.8723" lon="8.46916">
        <ele>2281</ele>
        <time>2021-08-11T14:33:57.585Z</time>
      </trkpt>
      <trkpt lat="46.87229" lon="8.46916">
        <ele>2281</ele>
        <time>2021-08-11T14:33:58.584Z</time>
      </trkpt>
      <trkpt lat="46.87229" lon="8.46915">
        <ele>2280</ele>
        <time>2021-08-11T14:34:01.319Z</time>
      </trkpt>
      <trkpt lat="46.87229" lon="8.46915">
        <ele>2280</ele>
        <time>2021-08-11T14:34:02.319Z</time>
      </trkpt>
      <trkpt lat="46.87229" lon="8.46915">
        <ele>2280</ele>
        <time>2021-08-11T14:34:03.319Z</time>
      </trkpt>
      <trkpt lat="46.87229" lon="8.46915">
        <ele>2280</ele>
        <time>2021-08-11T14:34:09.061Z</time>
      </trkpt>
      <trkpt lat="46.8723" lon="8.46914">
        <ele>2280</ele>
        <time>2021-08-11T14:34:10.061Z</time>
      </trkpt>
      <trkpt lat="46.8723" lon="8.46913">
        <ele>2280</ele>
        <time>2021-08-11T14:34:11.061Z</time>
      </trkpt>
      <trkpt lat="46.8723" lon="8.46913">
        <ele>2279</ele>
        <time>2021-08-11T14:34:12.061Z</time>
      </trkpt>
      <trkpt lat="46.8723" lon="8.46912">
        <ele>2279</ele>
        <time>2021-08-11T14:34:18.187Z</time>
      </trkpt>
      <trkpt lat="46.8723" lon="8.46911">
        <ele>2279</ele>
        <time>2021-08-11T14:34:19.186Z</time>
      </trkpt>
      <trkpt lat="46.87229" lon="8.46911">
        <ele>2280</ele>
        <time>2021-08-11T14:34:20.187Z</time>
      </trkpt>
      <trkpt lat="46.87229" lon="8.46911">
        <ele>2280</ele>
        <time>2021-08-11T14:34:25.955Z</time>
      </trkpt>
      <trkpt lat="46.87228" lon="8.4691">
        <ele>2280</ele>
        <time>2021-08-11T14:34:26.954Z</time>
      </trkpt>
      <trkpt lat="46.87228" lon="8.4691">
        <ele>2279</ele>
        <time>2021-08-11T14:34:27.955Z</time>
      </trkpt>
      <trkpt lat="46.87227" lon="8.4691">
        <ele>2279</ele>
        <time>2021-08-11T14:34:28.955Z</time>
      </trkpt>
      <trkpt lat="46.87226" lon="8.46911">
        <ele>2279</ele>
        <time>2021-08-11T14:34:33.060Z</time>
      </trkpt>
      <trkpt lat="46.87226" lon="8.46911">
        <ele>2279</ele>
        <time>2021-08-11T14:34:34.061Z</time>
      </trkpt>
      <trkpt lat="46.87225" lon="8.46911">
        <ele>2279</ele>
        <time>2021-08-11T14:34:38.814Z</time>
      </trkpt>
      <trkpt lat="46.87225" lon="8.4691">
        <ele>2279</ele>
        <time>2021-08-11T14:34:39.813Z</time>
      </trkpt>
      <trkpt lat="46.87224" lon="8.4691">
        <ele>2279</ele>
        <time>2021-08-11T14:34:47.561Z</time>
      </trkpt>
      <trkpt lat="46.87224" lon="8.4691">
        <ele>2280</ele>
        <time>2021-08-11T14:34:48.561Z</time>
      </trkpt>
      <trkpt lat="46.87223" lon="8.4691">
        <ele>2280</ele>
        <time>2021-08-11T14:34:49.560Z</time>
      </trkpt>
      <trkpt lat="46.87222" lon="8.4691">
        <ele>2280</ele>
        <time>2021-08-11T14:34:50.561Z</time>
      </trkpt>
      <trkpt lat="46.87222" lon="8.4691">
        <ele>2280</ele>
        <time>2021-08-11T14:34:51.561Z</time>
      </trkpt>
      <trkpt lat="46.87222" lon="8.4691">
        <ele>2280</ele>
        <time>2021-08-11T14:34:52.560Z</time>
      </trkpt>
      <trkpt lat="46.87221" lon="8.4691">
        <ele>2280</ele>
        <time>2021-08-11T14:34:53.561Z</time>
      </trkpt>
      <trkpt lat="46.87221" lon="8.46909">
        <ele>2286</ele>
        <time>2021-08-11T14:34:54.561Z</time>
      </trkpt>
      <trkpt lat="46.87221" lon="8.46909">
        <ele>2286</ele>
        <time>2021-08-11T14:34:55.560Z</time>
      </trkpt>
      <trkpt lat="46.87221" lon="8.46909">
        <ele>2286</ele>
        <time>2021-08-11T14:34:56.560Z</time>
      </trkpt>
      <trkpt lat="46.87223" lon="8.46909">
        <ele>2284</ele>
        <time>2021-08-11T14:34:57.560Z</time>
      </trkpt>
      <trkpt lat="46.87222" lon="8.46909">
        <ele>2284</ele>
        <time>2021-08-11T14:34:58.560Z</time>
      </trkpt>
      <trkpt lat="46.87222" lon="8.46906">
        <ele>2290</ele>
        <time>2021-08-11T14:35:36.560Z</time>
      </trkpt>
      <trkpt lat="46.87221" lon="8.46905">
        <ele>2289</ele>
        <time>2021-08-11T14:35:37.559Z</time>
      </trkpt>
      <trkpt lat="46.87221" lon="8.46905">
        <ele>2289</ele>
        <time>2021-08-11T14:35:38.559Z</time>
      </trkpt>
      <trkpt lat="46.87221" lon="8.46907">
        <ele>2286</ele>
        <time>2021-08-11T14:35:49.684Z</time>
      </trkpt>
      <trkpt lat="46.87221" lon="8.46907">
        <ele>2286</ele>
        <time>2021-08-11T14:35:57.435Z</time>
      </trkpt>
      <trkpt lat="46.87221" lon="8.46909">
        <ele>2283</ele>
        <time>2021-08-11T14:35:58.434Z</time>
      </trkpt>
      <trkpt lat="46.87221" lon="8.46909">
        <ele>2283</ele>
        <time>2021-08-11T14:36:18.310Z</time>
      </trkpt>
      <trkpt lat="46.87221" lon="8.46909">
        <ele>2282</ele>
        <time>2021-08-11T14:36:19.309Z</time>
      </trkpt>
      <trkpt lat="46.87223" lon="8.46911">
        <ele>2280</ele>
        <time>2021-08-11T14:36:20.310Z</time>
      </trkpt>
      <trkpt lat="46.87223" lon="8.46911">
        <ele>2280</ele>
        <time>2021-08-11T14:36:21.311Z</time>
      </trkpt>
      <trkpt lat="46.87223" lon="8.46911">
        <ele>2280</ele>
        <time>2021-08-11T14:36:23.413Z</time>
      </trkpt>
      <trkpt lat="46.87224" lon="8.46911">
        <ele>2280</ele>
        <time>2021-08-11T14:36:24.413Z</time>
      </trkpt>
      <trkpt lat="46.87223" lon="8.4691">
        <ele>2280</ele>
        <time>2021-08-11T14:36:25.414Z</time>
      </trkpt>
      <trkpt lat="46.87223" lon="8.4691">
        <ele>2280</ele>
        <time>2021-08-11T14:36:26.413Z</time>
      </trkpt>
      <trkpt lat="46.87224" lon="8.4691">
        <ele>2279</ele>
        <time>2021-08-11T14:36:27.413Z</time>
      </trkpt>
      <trkpt lat="46.87223" lon="8.46904">
        <ele>2278</ele>
        <time>2021-08-11T14:36:28.414Z</time>
      </trkpt>
      <trkpt lat="46.87223" lon="8.46902">
        <ele>2278</ele>
        <time>2021-08-11T14:36:29.413Z</time>
      </trkpt>
      <trkpt lat="46.87223" lon="8.46903">
        <ele>2278</ele>
        <time>2021-08-11T14:36:33.431Z</time>
      </trkpt>
      <trkpt lat="46.87223" lon="8.46903">
        <ele>2278</ele>
        <time>2021-08-11T14:36:34.431Z</time>
      </trkpt>
      <trkpt lat="46.87224" lon="8.46906">
        <ele>2278</ele>
        <time>2021-08-11T14:36:35.432Z</time>
      </trkpt>
      <trkpt lat="46.87225" lon="8.46907">
        <ele>2277</ele>
        <time>2021-08-11T14:36:36.433Z</time>
      </trkpt>
      <trkpt lat="46.87225" lon="8.46907">
        <ele>2277</ele>
        <time>2021-08-11T14:36:37.433Z</time>
      </trkpt>
      <trkpt lat="46.87225" lon="8.46907">
        <ele>2277</ele>
        <time>2021-08-11T14:36:38.432Z</time>
      </trkpt>
      <trkpt lat="46.87225" lon="8.46907">
        <ele>2277</ele>
        <time>2021-08-11T14:36:39.432Z</time>
      </trkpt>
      <trkpt lat="46.87225" lon="8.46907">
        <ele>2277</ele>
        <time>2021-08-11T14:36:41.435Z</time>
      </trkpt>
      <trkpt lat="46.87225" lon="8.46906">
        <ele>2278</ele>
        <time>2021-08-11T14:36:42.435Z</time>
      </trkpt>
      <trkpt lat="46.87225" lon="8.46907">
        <ele>2278</ele>
        <time>2021-08-11T14:36:43.434Z</time>
      </trkpt>
      <trkpt lat="46.87222" lon="8.46905">
        <ele>2280</ele>
        <time>2021-08-11T14:36:44.434Z</time>
      </trkpt>
      <trkpt lat="46.87222" lon="8.46904">
        <ele>2280</ele>
        <time>2021-08-11T14:36:45.434Z</time>
      </trkpt>
      <trkpt lat="46.87223" lon="8.46904">
        <ele>2279</ele>
        <time>2021-08-11T14:36:46.435Z</time>
      </trkpt>
      <trkpt lat="46.87224" lon="8.46903">
        <ele>2278</ele>
        <time>2021-08-11T14:36:47.436Z</time>
      </trkpt>
      <trkpt lat="46.87224" lon="8.46903">
        <ele>2278</ele>
        <time>2021-08-11T14:36:48.436Z</time>
      </trkpt>
      <trkpt lat="46.87224" lon="8.46903">
        <ele>2278</ele>
        <time>2021-08-11T14:36:49.435Z</time>
      </trkpt>
      <trkpt lat="46.87225" lon="8.46902">
        <ele>2278</ele>
        <time>2021-08-11T14:36:50.436Z</time>
      </trkpt>
      <trkpt lat="46.87225" lon="8.46902">
        <ele>2278</ele>
        <time>2021-08-11T14:36:56.553Z</time>
      </trkpt>
      <trkpt lat="46.87225" lon="8.46902">
        <ele>2278</ele>
        <time>2021-08-11T14:36:57.553Z</time>
      </trkpt>
      <trkpt lat="46.87226" lon="8.46902">
        <ele>2279</ele>
        <time>2021-08-11T14:37:15.348Z</time>
      </trkpt>
      <trkpt lat="46.87227" lon="8.46902">
        <ele>2279</ele>
        <time>2021-08-11T14:37:16.347Z</time>
      </trkpt>
      <trkpt lat="46.87227" lon="8.46902">
        <ele>2279</ele>
        <time>2021-08-11T14:37:19.166Z</time>
      </trkpt>
      <trkpt lat="46.87228" lon="8.46902">
        <ele>2279</ele>
        <time>2021-08-11T14:37:20.166Z</time>
      </trkpt>
      <trkpt lat="46.87229" lon="8.46901">
        <ele>2279</ele>
        <time>2021-08-11T14:37:21.166Z</time>
      </trkpt>
      <trkpt lat="46.87229" lon="8.46901">
        <ele>2280</ele>
        <time>2021-08-11T14:37:22.166Z</time>
      </trkpt>
      <trkpt lat="46.8723" lon="8.46901">
        <ele>2280</ele>
        <time>2021-08-11T14:37:23.166Z</time>
      </trkpt>
      <trkpt lat="46.8723" lon="8.469">
        <ele>2280</ele>
        <time>2021-08-11T14:37:24.165Z</time>
      </trkpt>
      <trkpt lat="46.87231" lon="8.469">
        <ele>2281</ele>
        <time>2021-08-11T14:37:25.166Z</time>
      </trkpt>
      <trkpt lat="46.87231" lon="8.46898">
        <ele>2281</ele>
        <time>2021-08-11T14:37:26.166Z</time>
      </trkpt>
      <trkpt lat="46.87231" lon="8.46897">
        <ele>2281</ele>
        <time>2021-08-11T14:37:27.165Z</time>
      </trkpt>
      <trkpt lat="46.87232" lon="8.46896">
        <ele>2282</ele>
        <time>2021-08-11T14:37:28.165Z</time>
      </trkpt>
      <trkpt lat="46.87232" lon="8.46895">
        <ele>2282</ele>
        <time>2021-08-11T14:37:29.166Z</time>
      </trkpt>
      <trkpt lat="46.87232" lon="8.46894">
        <ele>2283</ele>
        <time>2021-08-11T14:37:30.166Z</time>
      </trkpt>
      <trkpt lat="46.87233" lon="8.46893">
        <ele>2283</ele>
        <time>2021-08-11T14:37:31.166Z</time>
      </trkpt>
      <trkpt lat="46.87233" lon="8.46892">
        <ele>2284</ele>
        <time>2021-08-11T14:37:32.166Z</time>
      </trkpt>
      <trkpt lat="46.87234" lon="8.46891">
        <ele>2284</ele>
        <time>2021-08-11T14:37:33.165Z</time>
      </trkpt>
      <trkpt lat="46.87235" lon="8.46891">
        <ele>2284</ele>
        <time>2021-08-11T14:37:34.166Z</time>
      </trkpt>
      <trkpt lat="46.87235" lon="8.46891">
        <ele>2285</ele>
        <time>2021-08-11T14:37:35.165Z</time>
      </trkpt>
      <trkpt lat="46.87236" lon="8.4689">
        <ele>2285</ele>
        <time>2021-08-11T14:37:36.166Z</time>
      </trkpt>
      <trkpt lat="46.87237" lon="8.4689">
        <ele>2285</ele>
        <time>2021-08-11T14:37:37.166Z</time>
      </trkpt>
      <trkpt lat="46.87237" lon="8.46891">
        <ele>2285</ele>
        <time>2021-08-11T14:37:38.166Z</time>
      </trkpt>
      <trkpt lat="46.87237" lon="8.46891">
        <ele>2285</ele>
        <time>2021-08-11T14:37:39.165Z</time>
      </trkpt>
      <trkpt lat="46.87238" lon="8.46891">
        <ele>2286</ele>
        <time>2021-08-11T14:37:40.165Z</time>
      </trkpt>
      <trkpt lat="46.87239" lon="8.46891">
        <ele>2286</ele>
        <time>2021-08-11T14:37:41.166Z</time>
      </trkpt>
      <trkpt lat="46.87239" lon="8.4689">
        <ele>2286</ele>
        <time>2021-08-11T14:37:42.166Z</time>
      </trkpt>
      <trkpt lat="46.87241" lon="8.4689">
        <ele>2286</ele>
        <time>2021-08-11T14:37:43.166Z</time>
      </trkpt>
      <trkpt lat="46.87242" lon="8.4689">
        <ele>2286</ele>
        <time>2021-08-11T14:37:44.166Z</time>
      </trkpt>
      <trkpt lat="46.87242" lon="8.46889">
        <ele>2286</ele>
        <time>2021-08-11T14:37:45.165Z</time>
      </trkpt>
      <trkpt lat="46.87242" lon="8.46889">
        <ele>2286</ele>
        <time>2021-08-11T14:37:46.166Z</time>
      </trkpt>
      <trkpt lat="46.87243" lon="8.46888">
        <ele>2286</ele>
        <time>2021-08-11T14:37:47.165Z</time>
      </trkpt>
      <trkpt lat="46.87243" lon="8.46888">
        <ele>2286</ele>
        <time>2021-08-11T14:37:48.166Z</time>
      </trkpt>
      <trkpt lat="46.87244" lon="8.46888">
        <ele>2287</ele>
        <time>2021-08-11T14:37:49.165Z</time>
      </trkpt>
      <trkpt lat="46.87244" lon="8.46888">
        <ele>2287</ele>
        <time>2021-08-11T14:37:50.165Z</time>
      </trkpt>
      <trkpt lat="46.87245" lon="8.46887">
        <ele>2287</ele>
        <time>2021-08-11T14:37:51.165Z</time>
      </trkpt>
      <trkpt lat="46.87245" lon="8.46887">
        <ele>2287</ele>
        <time>2021-08-11T14:37:52.166Z</time>
      </trkpt>
      <trkpt lat="46.87246" lon="8.46886">
        <ele>2288</ele>
        <time>2021-08-11T14:37:53.166Z</time>
      </trkpt>
      <trkpt lat="46.87247" lon="8.46886">
        <ele>2288</ele>
        <time>2021-08-11T14:37:54.167Z</time>
      </trkpt>
      <trkpt lat="46.87247" lon="8.46886">
        <ele>2287</ele>
        <time>2021-08-11T14:37:55.166Z</time>
      </trkpt>
      <trkpt lat="46.87248" lon="8.46885">
        <ele>2287</ele>
        <time>2021-08-11T14:37:56.166Z</time>
      </trkpt>
      <trkpt lat="46.87249" lon="8.46885">
        <ele>2287</ele>
        <time>2021-08-11T14:37:57.167Z</time>
      </trkpt>
      <trkpt lat="46.87249" lon="8.46884">
        <ele>2287</ele>
        <time>2021-08-11T14:37:58.167Z</time>
      </trkpt>
      <trkpt lat="46.8725" lon="8.46884">
        <ele>2286</ele>
        <time>2021-08-11T14:37:59.167Z</time>
      </trkpt>
      <trkpt lat="46.8725" lon="8.46883">
        <ele>2286</ele>
        <time>2021-08-11T14:38:00.167Z</time>
      </trkpt>
      <trkpt lat="46.87251" lon="8.46883">
        <ele>2286</ele>
        <time>2021-08-11T14:38:01.166Z</time>
      </trkpt>
      <trkpt lat="46.87252" lon="8.46883">
        <ele>2286</ele>
        <time>2021-08-11T14:38:02.167Z</time>
      </trkpt>
      <trkpt lat="46.87252" lon="8.46884">
        <ele>2286</ele>
        <time>2021-08-11T14:38:03.166Z</time>
      </trkpt>
      <trkpt lat="46.87253" lon="8.46883">
        <ele>2286</ele>
        <time>2021-08-11T14:38:04.167Z</time>
      </trkpt>
      <trkpt lat="46.87253" lon="8.46883">
        <ele>2287</ele>
        <time>2021-08-11T14:38:05.167Z</time>
      </trkpt>
      <trkpt lat="46.87254" lon="8.46882">
        <ele>2287</ele>
        <time>2021-08-11T14:38:06.166Z</time>
      </trkpt>
      <trkpt lat="46.87254" lon="8.46881">
        <ele>2287</ele>
        <time>2021-08-11T14:38:07.167Z</time>
      </trkpt>
      <trkpt lat="46.87255" lon="8.46881">
        <ele>2287</ele>
        <time>2021-08-11T14:38:08.166Z</time>
      </trkpt>
      <trkpt lat="46.87255" lon="8.46881">
        <ele>2287</ele>
        <time>2021-08-11T14:38:09.166Z</time>
      </trkpt>
      <trkpt lat="46.87256" lon="8.4688">
        <ele>2287</ele>
        <time>2021-08-11T14:38:10.167Z</time>
      </trkpt>
      <trkpt lat="46.87257" lon="8.46879">
        <ele>2286</ele>
        <time>2021-08-11T14:38:11.167Z</time>
      </trkpt>
      <trkpt lat="46.87259" lon="8.4688">
        <ele>2286</ele>
        <time>2021-08-11T14:38:12.167Z</time>
      </trkpt>
      <trkpt lat="46.8726" lon="8.4688">
        <ele>2285</ele>
        <time>2021-08-11T14:38:13.167Z</time>
      </trkpt>
      <trkpt lat="46.87261" lon="8.4688">
        <ele>2285</ele>
        <time>2021-08-11T14:38:14.167Z</time>
      </trkpt>
      <trkpt lat="46.87262" lon="8.4688">
        <ele>2285</ele>
        <time>2021-08-11T14:38:15.166Z</time>
      </trkpt>
      <trkpt lat="46.87263" lon="8.4688">
        <ele>2285</ele>
        <time>2021-08-11T14:38:16.167Z</time>
      </trkpt>
      <trkpt lat="46.87264" lon="8.46879">
        <ele>2285</ele>
        <time>2021-08-11T14:38:17.166Z</time>
      </trkpt>
      <trkpt lat="46.87265" lon="8.46879">
        <ele>2284</ele>
        <time>2021-08-11T14:38:18.166Z</time>
      </trkpt>
      <trkpt lat="46.87266" lon="8.46878">
        <ele>2285</ele>
        <time>2021-08-11T14:38:19.167Z</time>
      </trkpt>
      <trkpt lat="46.87267" lon="8.46877">
        <ele>2285</ele>
        <time>2021-08-11T14:38:20.167Z</time>
      </trkpt>
      <trkpt lat="46.87267" lon="8.46876">
        <ele>2285</ele>
        <time>2021-08-11T14:38:21.167Z</time>
      </trkpt>
      <trkpt lat="46.87269" lon="8.46875">
        <ele>2285</ele>
        <time>2021-08-11T14:38:22.167Z</time>
      </trkpt>
      <trkpt lat="46.87269" lon="8.46875">
        <ele>2285</ele>
        <time>2021-08-11T14:38:23.166Z</time>
      </trkpt>
      <trkpt lat="46.8727" lon="8.46874">
        <ele>2285</ele>
        <time>2021-08-11T14:38:24.167Z</time>
      </trkpt>
      <trkpt lat="46.87271" lon="8.46873">
        <ele>2285</ele>
        <time>2021-08-11T14:38:25.167Z</time>
      </trkpt>
      <trkpt lat="46.87271" lon="8.46872">
        <ele>2286</ele>
        <time>2021-08-11T14:38:26.167Z</time>
      </trkpt>
      <trkpt lat="46.87272" lon="8.46871">
        <ele>2286</ele>
        <time>2021-08-11T14:38:27.167Z</time>
      </trkpt>
      <trkpt lat="46.87273" lon="8.4687">
        <ele>2286</ele>
        <time>2021-08-11T14:38:28.166Z</time>
      </trkpt>
      <trkpt lat="46.87273" lon="8.46869">
        <ele>2287</ele>
        <time>2021-08-11T14:38:29.167Z</time>
      </trkpt>
      <trkpt lat="46.87274" lon="8.46868">
        <ele>2287</ele>
        <time>2021-08-11T14:38:30.167Z</time>
      </trkpt>
      <trkpt lat="46.87274" lon="8.46868">
        <ele>2287</ele>
        <time>2021-08-11T14:38:31.167Z</time>
      </trkpt>
      <trkpt lat="46.87274" lon="8.46867">
        <ele>2287</ele>
        <time>2021-08-11T14:38:32.167Z</time>
      </trkpt>
      <trkpt lat="46.87275" lon="8.46867">
        <ele>2287</ele>
        <time>2021-08-11T14:38:33.166Z</time>
      </trkpt>
      <trkpt lat="46.87276" lon="8.46867">
        <ele>2287</ele>
        <time>2021-08-11T14:38:34.166Z</time>
      </trkpt>
      <trkpt lat="46.87276" lon="8.46866">
        <ele>2287</ele>
        <time>2021-08-11T14:38:35.167Z</time>
      </trkpt>
      <trkpt lat="46.87277" lon="8.46866">
        <ele>2288</ele>
        <time>2021-08-11T14:38:36.167Z</time>
      </trkpt>
      <trkpt lat="46.87278" lon="8.46865">
        <ele>2288</ele>
        <time>2021-08-11T14:38:37.167Z</time>
      </trkpt>
      <trkpt lat="46.87278" lon="8.46864">
        <ele>2288</ele>
        <time>2021-08-11T14:38:38.167Z</time>
      </trkpt>
      <trkpt lat="46.87278" lon="8.46864">
        <ele>2288</ele>
        <time>2021-08-11T14:38:39.166Z</time>
      </trkpt>
      <trkpt lat="46.87278" lon="8.46864">
        <ele>2287</ele>
        <time>2021-08-11T14:38:40.167Z</time>
      </trkpt>
      <trkpt lat="46.87279" lon="8.46863">
        <ele>2287</ele>
        <time>2021-08-11T14:38:41.166Z</time>
      </trkpt>
      <trkpt lat="46.8728" lon="8.46862">
        <ele>2287</ele>
        <time>2021-08-11T14:38:42.167Z</time>
      </trkpt>
      <trkpt lat="46.8728" lon="8.46862">
        <ele>2286</ele>
        <time>2021-08-11T14:38:43.166Z</time>
      </trkpt>
      <trkpt lat="46.87281" lon="8.46861">
        <ele>2286</ele>
        <time>2021-08-11T14:38:44.166Z</time>
      </trkpt>
      <trkpt lat="46.87282" lon="8.46861">
        <ele>2286</ele>
        <time>2021-08-11T14:38:45.167Z</time>
      </trkpt>
      <trkpt lat="46.87282" lon="8.4686">
        <ele>2286</ele>
        <time>2021-08-11T14:38:46.167Z</time>
      </trkpt>
      <trkpt lat="46.87283" lon="8.4686">
        <ele>2286</ele>
        <time>2021-08-11T14:38:47.167Z</time>
      </trkpt>
      <trkpt lat="46.87284" lon="8.4686">
        <ele>2286</ele>
        <time>2021-08-11T14:38:48.166Z</time>
      </trkpt>
      <trkpt lat="46.87285" lon="8.4686">
        <ele>2286</ele>
        <time>2021-08-11T14:38:49.167Z</time>
      </trkpt>
      <trkpt lat="46.87286" lon="8.4686">
        <ele>2286</ele>
        <time>2021-08-11T14:38:50.167Z</time>
      </trkpt>
      <trkpt lat="46.87287" lon="8.46859">
        <ele>2286</ele>
        <time>2021-08-11T14:38:51.166Z</time>
      </trkpt>
      <trkpt lat="46.87288" lon="8.46859">
        <ele>2286</ele>
        <time>2021-08-11T14:38:52.167Z</time>
      </trkpt>
      <trkpt lat="46.87288" lon="8.46859">
        <ele>2286</ele>
        <time>2021-08-11T14:38:53.167Z</time>
      </trkpt>
      <trkpt lat="46.87289" lon="8.46858">
        <ele>2286</ele>
        <time>2021-08-11T14:38:54.167Z</time>
      </trkpt>
      <trkpt lat="46.8729" lon="8.46858">
        <ele>2286</ele>
        <time>2021-08-11T14:38:55.167Z</time>
      </trkpt>
      <trkpt lat="46.87291" lon="8.46857">
        <ele>2286</ele>
        <time>2021-08-11T14:38:56.166Z</time>
      </trkpt>
      <trkpt lat="46.87291" lon="8.46856">
        <ele>2286</ele>
        <time>2021-08-11T14:38:57.167Z</time>
      </trkpt>
      <trkpt lat="46.87291" lon="8.46856">
        <ele>2286</ele>
        <time>2021-08-11T14:38:58.167Z</time>
      </trkpt>
      <trkpt lat="46.87291" lon="8.46855">
        <ele>2286</ele>
        <time>2021-08-11T14:38:59.167Z</time>
      </trkpt>
      <trkpt lat="46.8729" lon="8.46854">
        <ele>2286</ele>
        <time>2021-08-11T14:39:00.167Z</time>
      </trkpt>
      <trkpt lat="46.87291" lon="8.46854">
        <ele>2287</ele>
        <time>2021-08-11T14:39:01.167Z</time>
      </trkpt>
      <trkpt lat="46.87291" lon="8.46853">
        <ele>2287</ele>
        <time>2021-08-11T14:39:02.166Z</time>
      </trkpt>
      <trkpt lat="46.87291" lon="8.46852">
        <ele>2287</ele>
        <time>2021-08-11T14:39:03.167Z</time>
      </trkpt>
      <trkpt lat="46.87292" lon="8.46852">
        <ele>2288</ele>
        <time>2021-08-11T14:39:04.166Z</time>
      </trkpt>
      <trkpt lat="46.87293" lon="8.46851">
        <ele>2288</ele>
        <time>2021-08-11T14:39:05.166Z</time>
      </trkpt>
      <trkpt lat="46.87293" lon="8.46851">
        <ele>2288</ele>
        <time>2021-08-11T14:39:06.167Z</time>
      </trkpt>
      <trkpt lat="46.87294" lon="8.4685">
        <ele>2289</ele>
        <time>2021-08-11T14:39:07.166Z</time>
      </trkpt>
      <trkpt lat="46.87294" lon="8.4685">
        <ele>2289</ele>
        <time>2021-08-11T14:39:08.167Z</time>
      </trkpt>
      <trkpt lat="46.87294" lon="8.46848">
        <ele>2290</ele>
        <time>2021-08-11T14:39:09.167Z</time>
      </trkpt>
      <trkpt lat="46.87294" lon="8.46847">
        <ele>2290</ele>
        <time>2021-08-11T14:39:10.166Z</time>
      </trkpt>
      <trkpt lat="46.87295" lon="8.46846">
        <ele>2290</ele>
        <time>2021-08-11T14:39:11.166Z</time>
      </trkpt>
      <trkpt lat="46.87295" lon="8.46846">
        <ele>2291</ele>
        <time>2021-08-11T14:39:12.167Z</time>
      </trkpt>
      <trkpt lat="46.87295" lon="8.46845">
        <ele>2291</ele>
        <time>2021-08-11T14:39:13.166Z</time>
      </trkpt>
      <trkpt lat="46.87296" lon="8.46845">
        <ele>2292</ele>
        <time>2021-08-11T14:39:14.167Z</time>
      </trkpt>
      <trkpt lat="46.87297" lon="8.46844">
        <ele>2292</ele>
        <time>2021-08-11T14:39:15.167Z</time>
      </trkpt>
      <trkpt lat="46.87297" lon="8.46844">
        <ele>2293</ele>
        <time>2021-08-11T14:39:16.167Z</time>
      </trkpt>
      <trkpt lat="46.87297" lon="8.46843">
        <ele>2294</ele>
        <time>2021-08-11T14:39:17.167Z</time>
      </trkpt>
      <trkpt lat="46.87298" lon="8.46842">
        <ele>2294</ele>
        <time>2021-08-11T14:39:18.166Z</time>
      </trkpt>
      <trkpt lat="46.87298" lon="8.46842">
        <ele>2295</ele>
        <time>2021-08-11T14:39:19.167Z</time>
      </trkpt>
      <trkpt lat="46.87299" lon="8.46841">
        <ele>2295</ele>
        <time>2021-08-11T14:39:20.167Z</time>
      </trkpt>
      <trkpt lat="46.87299" lon="8.4684">
        <ele>2296</ele>
        <time>2021-08-11T14:39:21.167Z</time>
      </trkpt>
      <trkpt lat="46.87299" lon="8.46838">
        <ele>2296</ele>
        <time>2021-08-11T14:39:22.166Z</time>
      </trkpt>
      <trkpt lat="46.873" lon="8.46837">
        <ele>2296</ele>
        <time>2021-08-11T14:39:23.166Z</time>
      </trkpt>
      <trkpt lat="46.873" lon="8.46836">
        <ele>2296</ele>
        <time>2021-08-11T14:39:24.166Z</time>
      </trkpt>
      <trkpt lat="46.873" lon="8.46835">
        <ele>2296</ele>
        <time>2021-08-11T14:39:25.167Z</time>
      </trkpt>
      <trkpt lat="46.873" lon="8.46834">
        <ele>2296</ele>
        <time>2021-08-11T14:39:26.167Z</time>
      </trkpt>
      <trkpt lat="46.873" lon="8.46832">
        <ele>2296</ele>
        <time>2021-08-11T14:39:27.167Z</time>
      </trkpt>
      <trkpt lat="46.87301" lon="8.46832">
        <ele>2296</ele>
        <time>2021-08-11T14:39:28.166Z</time>
      </trkpt>
      <trkpt lat="46.87301" lon="8.46831">
        <ele>2296</ele>
        <time>2021-08-11T14:39:29.166Z</time>
      </trkpt>
      <trkpt lat="46.87301" lon="8.46831">
        <ele>2296</ele>
        <time>2021-08-11T14:39:30.166Z</time>
      </trkpt>
      <trkpt lat="46.87301" lon="8.4683">
        <ele>2296</ele>
        <time>2021-08-11T14:39:31.167Z</time>
      </trkpt>
      <trkpt lat="46.87302" lon="8.46829">
        <ele>2296</ele>
        <time>2021-08-11T14:39:32.167Z</time>
      </trkpt>
      <trkpt lat="46.87302" lon="8.46828">
        <ele>2296</ele>
        <time>2021-08-11T14:39:33.167Z</time>
      </trkpt>
      <trkpt lat="46.87302" lon="8.46827">
        <ele>2297</ele>
        <time>2021-08-11T14:39:34.166Z</time>
      </trkpt>
      <trkpt lat="46.87302" lon="8.46826">
        <ele>2297</ele>
        <time>2021-08-11T14:39:35.167Z</time>
      </trkpt>
      <trkpt lat="46.87302" lon="8.46825">
        <ele>2298</ele>
        <time>2021-08-11T14:39:36.167Z</time>
      </trkpt>
      <trkpt lat="46.87302" lon="8.46824">
        <ele>2298</ele>
        <time>2021-08-11T14:39:37.166Z</time>
      </trkpt>
      <trkpt lat="46.87301" lon="8.46822">
        <ele>2298</ele>
        <time>2021-08-11T14:39:38.166Z</time>
      </trkpt>
      <trkpt lat="46.87301" lon="8.46821">
        <ele>2298</ele>
        <time>2021-08-11T14:39:39.167Z</time>
      </trkpt>
      <trkpt lat="46.87302" lon="8.4682">
        <ele>2298</ele>
        <time>2021-08-11T14:39:40.166Z</time>
      </trkpt>
      <trkpt lat="46.87302" lon="8.4682">
        <ele>2298</ele>
        <time>2021-08-11T14:39:41.166Z</time>
      </trkpt>
      <trkpt lat="46.87303" lon="8.46819">
        <ele>2298</ele>
        <time>2021-08-11T14:39:42.167Z</time>
      </trkpt>
      <trkpt lat="46.87303" lon="8.46818">
        <ele>2298</ele>
        <time>2021-08-11T14:39:43.167Z</time>
      </trkpt>
      <trkpt lat="46.87303" lon="8.46817">
        <ele>2298</ele>
        <time>2021-08-11T14:39:44.167Z</time>
      </trkpt>
      <trkpt lat="46.87304" lon="8.46817">
        <ele>2298</ele>
        <time>2021-08-11T14:39:45.166Z</time>
      </trkpt>
      <trkpt lat="46.87305" lon="8.46816">
        <ele>2298</ele>
        <time>2021-08-11T14:39:46.166Z</time>
      </trkpt>
      <trkpt lat="46.87305" lon="8.46816">
        <ele>2298</ele>
        <time>2021-08-11T14:39:47.167Z</time>
      </trkpt>
      <trkpt lat="46.87306" lon="8.46816">
        <ele>2298</ele>
        <time>2021-08-11T14:39:48.166Z</time>
      </trkpt>
      <trkpt lat="46.87306" lon="8.46816">
        <ele>2298</ele>
        <time>2021-08-11T14:39:49.166Z</time>
      </trkpt>
      <trkpt lat="46.87308" lon="8.46815">
        <ele>2298</ele>
        <time>2021-08-11T14:39:50.167Z</time>
      </trkpt>
      <trkpt lat="46.87308" lon="8.46814">
        <ele>2298</ele>
        <time>2021-08-11T14:39:51.167Z</time>
      </trkpt>
      <trkpt lat="46.87308" lon="8.46814">
        <ele>2298</ele>
        <time>2021-08-11T14:39:52.167Z</time>
      </trkpt>
      <trkpt lat="46.87309" lon="8.46814">
        <ele>2298</ele>
        <time>2021-08-11T14:39:53.166Z</time>
      </trkpt>
      <trkpt lat="46.87309" lon="8.46814">
        <ele>2298</ele>
        <time>2021-08-11T14:39:54.167Z</time>
      </trkpt>
      <trkpt lat="46.8731" lon="8.46814">
        <ele>2298</ele>
        <time>2021-08-11T14:39:55.166Z</time>
      </trkpt>
      <trkpt lat="46.87311" lon="8.46814">
        <ele>2298</ele>
        <time>2021-08-11T14:39:56.167Z</time>
      </trkpt>
      <trkpt lat="46.87311" lon="8.46813">
        <ele>2299</ele>
        <time>2021-08-11T14:39:57.167Z</time>
      </trkpt>
      <trkpt lat="46.87312" lon="8.46813">
        <ele>2299</ele>
        <time>2021-08-11T14:39:58.166Z</time>
      </trkpt>
      <trkpt lat="46.87313" lon="8.46813">
        <ele>2299</ele>
        <time>2021-08-11T14:39:59.166Z</time>
      </trkpt>
      <trkpt lat="46.87313" lon="8.46812">
        <ele>2299</ele>
        <time>2021-08-11T14:40:00.167Z</time>
      </trkpt>
      <trkpt lat="46.87314" lon="8.46812">
        <ele>2299</ele>
        <time>2021-08-11T14:40:01.167Z</time>
      </trkpt>
      <trkpt lat="46.87315" lon="8.46811">
        <ele>2299</ele>
        <time>2021-08-11T14:40:02.167Z</time>
      </trkpt>
      <trkpt lat="46.87315" lon="8.4681">
        <ele>2299</ele>
        <time>2021-08-11T14:40:03.166Z</time>
      </trkpt>
      <trkpt lat="46.87316" lon="8.4681">
        <ele>2299</ele>
        <time>2021-08-11T14:40:04.166Z</time>
      </trkpt>
      <trkpt lat="46.87316" lon="8.46809">
        <ele>2299</ele>
        <time>2021-08-11T14:40:05.166Z</time>
      </trkpt>
      <trkpt lat="46.87317" lon="8.46809">
        <ele>2299</ele>
        <time>2021-08-11T14:40:06.167Z</time>
      </trkpt>
      <trkpt lat="46.87317" lon="8.46809">
        <ele>2299</ele>
        <time>2021-08-11T14:40:07.167Z</time>
      </trkpt>
      <trkpt lat="46.87318" lon="8.46809">
        <ele>2299</ele>
        <time>2021-08-11T14:40:08.167Z</time>
      </trkpt>
      <trkpt lat="46.87318" lon="8.46809">
        <ele>2298</ele>
        <time>2021-08-11T14:40:09.166Z</time>
      </trkpt>
      <trkpt lat="46.87319" lon="8.46808">
        <ele>2298</ele>
        <time>2021-08-11T14:40:10.167Z</time>
      </trkpt>
      <trkpt lat="46.87319" lon="8.46808">
        <ele>2298</ele>
        <time>2021-08-11T14:40:11.166Z</time>
      </trkpt>
      <trkpt lat="46.8732" lon="8.46807">
        <ele>2298</ele>
        <time>2021-08-11T14:40:12.167Z</time>
      </trkpt>
      <trkpt lat="46.8732" lon="8.46807">
        <ele>2299</ele>
        <time>2021-08-11T14:40:13.167Z</time>
      </trkpt>
      <trkpt lat="46.8732" lon="8.46807">
        <ele>2299</ele>
        <time>2021-08-11T14:40:14.166Z</time>
      </trkpt>
      <trkpt lat="46.87321" lon="8.46807">
        <ele>2299</ele>
        <time>2021-08-11T14:40:15.166Z</time>
      </trkpt>
      <trkpt lat="46.87322" lon="8.46806">
        <ele>2300</ele>
        <time>2021-08-11T14:40:16.167Z</time>
      </trkpt>
      <trkpt lat="46.87322" lon="8.46806">
        <ele>2300</ele>
        <time>2021-08-11T14:40:17.167Z</time>
      </trkpt>
      <trkpt lat="46.87322" lon="8.46805">
        <ele>2301</ele>
        <time>2021-08-11T14:40:18.166Z</time>
      </trkpt>
      <trkpt lat="46.87323" lon="8.46804">
        <ele>2301</ele>
        <time>2021-08-11T14:40:19.167Z</time>
      </trkpt>
      <trkpt lat="46.87323" lon="8.46804">
        <ele>2302</ele>
        <time>2021-08-11T14:40:20.167Z</time>
      </trkpt>
      <trkpt lat="46.87324" lon="8.46803">
        <ele>2302</ele>
        <time>2021-08-11T14:40:21.166Z</time>
      </trkpt>
      <trkpt lat="46.87324" lon="8.46802">
        <ele>2303</ele>
        <time>2021-08-11T14:40:22.167Z</time>
      </trkpt>
      <trkpt lat="46.87324" lon="8.46802">
        <ele>2303</ele>
        <time>2021-08-11T14:40:23.166Z</time>
      </trkpt>
      <trkpt lat="46.87324" lon="8.46801">
        <ele>2303</ele>
        <time>2021-08-11T14:40:24.167Z</time>
      </trkpt>
      <trkpt lat="46.87325" lon="8.46801">
        <ele>2303</ele>
        <time>2021-08-11T14:40:25.167Z</time>
      </trkpt>
      <trkpt lat="46.87325" lon="8.46801">
        <ele>2304</ele>
        <time>2021-08-11T14:40:26.166Z</time>
      </trkpt>
      <trkpt lat="46.87327" lon="8.468">
        <ele>2304</ele>
        <time>2021-08-11T14:40:27.167Z</time>
      </trkpt>
      <trkpt lat="46.87327" lon="8.468">
        <ele>2304</ele>
        <time>2021-08-11T14:40:28.167Z</time>
      </trkpt>
      <trkpt lat="46.87328" lon="8.46799">
        <ele>2304</ele>
        <time>2021-08-11T14:40:29.167Z</time>
      </trkpt>
      <trkpt lat="46.87328" lon="8.46799">
        <ele>2303</ele>
        <time>2021-08-11T14:40:30.167Z</time>
      </trkpt>
      <trkpt lat="46.87329" lon="8.46798">
        <ele>2303</ele>
        <time>2021-08-11T14:40:31.166Z</time>
      </trkpt>
      <trkpt lat="46.87329" lon="8.46797">
        <ele>2303</ele>
        <time>2021-08-11T14:40:32.166Z</time>
      </trkpt>
      <trkpt lat="46.87329" lon="8.46796">
        <ele>2303</ele>
        <time>2021-08-11T14:40:33.167Z</time>
      </trkpt>
      <trkpt lat="46.8733" lon="8.46796">
        <ele>2303</ele>
        <time>2021-08-11T14:40:34.167Z</time>
      </trkpt>
      <trkpt lat="46.8733" lon="8.46795">
        <ele>2303</ele>
        <time>2021-08-11T14:40:35.166Z</time>
      </trkpt>
      <trkpt lat="46.87331" lon="8.46795">
        <ele>2303</ele>
        <time>2021-08-11T14:40:36.167Z</time>
      </trkpt>
      <trkpt lat="46.87331" lon="8.46794">
        <ele>2303</ele>
        <time>2021-08-11T14:40:37.166Z</time>
      </trkpt>
      <trkpt lat="46.87331" lon="8.46793">
        <ele>2303</ele>
        <time>2021-08-11T14:40:38.166Z</time>
      </trkpt>
      <trkpt lat="46.87331" lon="8.46792">
        <ele>2304</ele>
        <time>2021-08-11T14:40:39.166Z</time>
      </trkpt>
      <trkpt lat="46.87331" lon="8.46792">
        <ele>2304</ele>
        <time>2021-08-11T14:40:40.166Z</time>
      </trkpt>
      <trkpt lat="46.87331" lon="8.46791">
        <ele>2304</ele>
        <time>2021-08-11T14:40:41.167Z</time>
      </trkpt>
      <trkpt lat="46.87332" lon="8.46789">
        <ele>2305</ele>
        <time>2021-08-11T14:40:42.168Z</time>
      </trkpt>
      <trkpt lat="46.87332" lon="8.46789">
        <ele>2305</ele>
        <time>2021-08-11T14:40:43.167Z</time>
      </trkpt>
      <trkpt lat="46.87332" lon="8.46788">
        <ele>2305</ele>
        <time>2021-08-11T14:40:44.167Z</time>
      </trkpt>
      <trkpt lat="46.87332" lon="8.46789">
        <ele>2306</ele>
        <time>2021-08-11T14:40:45.168Z</time>
      </trkpt>
      <trkpt lat="46.87332" lon="8.46788">
        <ele>2306</ele>
        <time>2021-08-11T14:40:46.168Z</time>
      </trkpt>
      <trkpt lat="46.87331" lon="8.46788">
        <ele>2306</ele>
        <time>2021-08-11T14:40:47.168Z</time>
      </trkpt>
      <trkpt lat="46.8733" lon="8.46788">
        <ele>2307</ele>
        <time>2021-08-11T14:40:48.168Z</time>
      </trkpt>
      <trkpt lat="46.87329" lon="8.46785">
        <ele>2308</ele>
        <time>2021-08-11T14:40:49.169Z</time>
      </trkpt>
      <trkpt lat="46.87328" lon="8.46784">
        <ele>2309</ele>
        <time>2021-08-11T14:40:50.169Z</time>
      </trkpt>
      <trkpt lat="46.87328" lon="8.46784">
        <ele>2309</ele>
        <time>2021-08-11T14:40:51.169Z</time>
      </trkpt>
      <trkpt lat="46.87328" lon="8.46784">
        <ele>2310</ele>
        <time>2021-08-11T14:40:52.168Z</time>
      </trkpt>
      <trkpt lat="46.87329" lon="8.46785">
        <ele>2311</ele>
        <time>2021-08-11T14:40:53.169Z</time>
      </trkpt>
      <trkpt lat="46.87329" lon="8.46785">
        <ele>2311</ele>
        <time>2021-08-11T14:40:54.170Z</time>
      </trkpt>
      <trkpt lat="46.87329" lon="8.46784">
        <ele>2311</ele>
        <time>2021-08-11T14:40:55.169Z</time>
      </trkpt>
      <trkpt lat="46.87329" lon="8.46784">
        <ele>2311</ele>
        <time>2021-08-11T14:40:56.170Z</time>
      </trkpt>
      <trkpt lat="46.87329" lon="8.46784">
        <ele>2311</ele>
        <time>2021-08-11T14:40:57.170Z</time>
      </trkpt>
      <trkpt lat="46.8733" lon="8.46783">
        <ele>2311</ele>
        <time>2021-08-11T14:40:58.169Z</time>
      </trkpt>
      <trkpt lat="46.87329" lon="8.46783">
        <ele>2311</ele>
        <time>2021-08-11T14:40:59.170Z</time>
      </trkpt>
      <trkpt lat="46.87329" lon="8.46782">
        <ele>2311</ele>
        <time>2021-08-11T14:41:00.170Z</time>
      </trkpt>
      <trkpt lat="46.87329" lon="8.46782">
        <ele>2311</ele>
        <time>2021-08-11T14:41:01.170Z</time>
      </trkpt>
      <trkpt lat="46.8733" lon="8.46782">
        <ele>2311</ele>
        <time>2021-08-11T14:41:02.170Z</time>
      </trkpt>
      <trkpt lat="46.8733" lon="8.46781">
        <ele>2311</ele>
        <time>2021-08-11T14:41:03.170Z</time>
      </trkpt>
      <trkpt lat="46.87331" lon="8.46781">
        <ele>2311</ele>
        <time>2021-08-11T14:41:04.170Z</time>
      </trkpt>
      <trkpt lat="46.87332" lon="8.46781">
        <ele>2311</ele>
        <time>2021-08-11T14:41:05.169Z</time>
      </trkpt>
      <trkpt lat="46.87333" lon="8.46782">
        <ele>2311</ele>
        <time>2021-08-11T14:41:06.169Z</time>
      </trkpt>
      <trkpt lat="46.87334" lon="8.46783">
        <ele>2312</ele>
        <time>2021-08-11T14:41:07.170Z</time>
      </trkpt>
      <trkpt lat="46.87335" lon="8.46784">
        <ele>2312</ele>
        <time>2021-08-11T14:41:08.170Z</time>
      </trkpt>
      <trkpt lat="46.87335" lon="8.46784">
        <ele>2312</ele>
        <time>2021-08-11T14:41:09.170Z</time>
      </trkpt>
      <trkpt lat="46.87336" lon="8.46784">
        <ele>2312</ele>
        <time>2021-08-11T14:41:10.170Z</time>
      </trkpt>
      <trkpt lat="46.87337" lon="8.46785">
        <ele>2313</ele>
        <time>2021-08-11T14:41:11.169Z</time>
      </trkpt>
      <trkpt lat="46.87337" lon="8.46785">
        <ele>2313</ele>
        <time>2021-08-11T14:41:12.170Z</time>
      </trkpt>
      <trkpt lat="46.87338" lon="8.46785">
        <ele>2313</ele>
        <time>2021-08-11T14:41:13.170Z</time>
      </trkpt>
      <trkpt lat="46.87338" lon="8.46785">
        <ele>2313</ele>
        <time>2021-08-11T14:41:14.170Z</time>
      </trkpt>
      <trkpt lat="46.87339" lon="8.46784">
        <ele>2313</ele>
        <time>2021-08-11T14:41:15.169Z</time>
      </trkpt>
      <trkpt lat="46.87339" lon="8.46783">
        <ele>2313</ele>
        <time>2021-08-11T14:41:16.169Z</time>
      </trkpt>
      <trkpt lat="46.87339" lon="8.46782">
        <ele>2313</ele>
        <time>2021-08-11T14:41:17.170Z</time>
      </trkpt>
      <trkpt lat="46.87339" lon="8.46781">
        <ele>2313</ele>
        <time>2021-08-11T14:41:18.170Z</time>
      </trkpt>
      <trkpt lat="46.8734" lon="8.46781">
        <ele>2313</ele>
        <time>2021-08-11T14:41:19.170Z</time>
      </trkpt>
      <trkpt lat="46.87341" lon="8.46781">
        <ele>2313</ele>
        <time>2021-08-11T14:41:20.170Z</time>
      </trkpt>
      <trkpt lat="46.87341" lon="8.46781">
        <ele>2313</ele>
        <time>2021-08-11T14:41:21.169Z</time>
      </trkpt>
      <trkpt lat="46.87342" lon="8.46781">
        <ele>2313</ele>
        <time>2021-08-11T14:41:22.169Z</time>
      </trkpt>
      <trkpt lat="46.87343" lon="8.46781">
        <ele>2312</ele>
        <time>2021-08-11T14:41:23.170Z</time>
      </trkpt>
      <trkpt lat="46.87344" lon="8.4678">
        <ele>2312</ele>
        <time>2021-08-11T14:41:24.170Z</time>
      </trkpt>
      <trkpt lat="46.87345" lon="8.4678">
        <ele>2312</ele>
        <time>2021-08-11T14:41:25.170Z</time>
      </trkpt>
      <trkpt lat="46.87345" lon="8.46779">
        <ele>2312</ele>
        <time>2021-08-11T14:41:26.170Z</time>
      </trkpt>
      <trkpt lat="46.87346" lon="8.46779">
        <ele>2312</ele>
        <time>2021-08-11T14:41:27.169Z</time>
      </trkpt>
      <trkpt lat="46.87346" lon="8.46778">
        <ele>2312</ele>
        <time>2021-08-11T14:41:28.169Z</time>
      </trkpt>
      <trkpt lat="46.87347" lon="8.46778">
        <ele>2312</ele>
        <time>2021-08-11T14:41:29.170Z</time>
      </trkpt>
      <trkpt lat="46.87348" lon="8.46778">
        <ele>2311</ele>
        <time>2021-08-11T14:41:30.169Z</time>
      </trkpt>
      <trkpt lat="46.87348" lon="8.46778">
        <ele>2311</ele>
        <time>2021-08-11T14:41:31.169Z</time>
      </trkpt>
      <trkpt lat="46.87349" lon="8.46777">
        <ele>2311</ele>
        <time>2021-08-11T14:41:32.170Z</time>
      </trkpt>
      <trkpt lat="46.87349" lon="8.46777">
        <ele>2311</ele>
        <time>2021-08-11T14:41:33.170Z</time>
      </trkpt>
      <trkpt lat="46.87349" lon="8.46776">
        <ele>2310</ele>
        <time>2021-08-11T14:41:34.170Z</time>
      </trkpt>
      <trkpt lat="46.8735" lon="8.46776">
        <ele>2310</ele>
        <time>2021-08-11T14:41:35.169Z</time>
      </trkpt>
      <trkpt lat="46.87351" lon="8.46776">
        <ele>2309</ele>
        <time>2021-08-11T14:41:36.169Z</time>
      </trkpt>
      <trkpt lat="46.87352" lon="8.46775">
        <ele>2309</ele>
        <time>2021-08-11T14:41:37.170Z</time>
      </trkpt>
      <trkpt lat="46.87352" lon="8.46774">
        <ele>2308</ele>
        <time>2021-08-11T14:41:38.170Z</time>
      </trkpt>
      <trkpt lat="46.87353" lon="8.46774">
        <ele>2308</ele>
        <time>2021-08-11T14:41:39.170Z</time>
      </trkpt>
      <trkpt lat="46.87353" lon="8.46773">
        <ele>2308</ele>
        <time>2021-08-11T14:41:40.170Z</time>
      </trkpt>
      <trkpt lat="46.87354" lon="8.46773">
        <ele>2308</ele>
        <time>2021-08-11T14:41:41.170Z</time>
      </trkpt>
      <trkpt lat="46.87354" lon="8.46773">
        <ele>2308</ele>
        <time>2021-08-11T14:41:42.170Z</time>
      </trkpt>
      <trkpt lat="46.87355" lon="8.46773">
        <ele>2308</ele>
        <time>2021-08-11T14:41:43.169Z</time>
      </trkpt>
      <trkpt lat="46.87355" lon="8.46772">
        <ele>2308</ele>
        <time>2021-08-11T14:41:44.170Z</time>
      </trkpt>
      <trkpt lat="46.87356" lon="8.46772">
        <ele>2308</ele>
        <time>2021-08-11T14:41:45.170Z</time>
      </trkpt>
      <trkpt lat="46.87356" lon="8.46772">
        <ele>2308</ele>
        <time>2021-08-11T14:41:46.170Z</time>
      </trkpt>
      <trkpt lat="46.87356" lon="8.46772">
        <ele>2307</ele>
        <time>2021-08-11T14:41:47.170Z</time>
      </trkpt>
      <trkpt lat="46.87357" lon="8.46772">
        <ele>2307</ele>
        <time>2021-08-11T14:41:48.170Z</time>
      </trkpt>
      <trkpt lat="46.87357" lon="8.46772">
        <ele>2307</ele>
        <time>2021-08-11T14:41:49.169Z</time>
      </trkpt>
      <trkpt lat="46.87358" lon="8.46771">
        <ele>2308</ele>
        <time>2021-08-11T14:41:50.170Z</time>
      </trkpt>
      <trkpt lat="46.87357" lon="8.46771">
        <ele>2308</ele>
        <time>2021-08-11T14:41:51.170Z</time>
      </trkpt>
      <trkpt lat="46.87358" lon="8.46771">
        <ele>2308</ele>
        <time>2021-08-11T14:41:52.170Z</time>
      </trkpt>
      <trkpt lat="46.87358" lon="8.4677">
        <ele>2308</ele>
        <time>2021-08-11T14:41:53.170Z</time>
      </trkpt>
      <trkpt lat="46.87358" lon="8.4677">
        <ele>2308</ele>
        <time>2021-08-11T14:41:54.169Z</time>
      </trkpt>
      <trkpt lat="46.87358" lon="8.46769">
        <ele>2308</ele>
        <time>2021-08-11T14:41:55.169Z</time>
      </trkpt>
      <trkpt lat="46.87359" lon="8.46769">
        <ele>2308</ele>
        <time>2021-08-11T14:41:56.170Z</time>
      </trkpt>
      <trkpt lat="46.87359" lon="8.46768">
        <ele>2308</ele>
        <time>2021-08-11T14:41:57.170Z</time>
      </trkpt>
      <trkpt lat="46.87359" lon="8.46768">
        <ele>2308</ele>
        <time>2021-08-11T14:41:58.170Z</time>
      </trkpt>
      <trkpt lat="46.87359" lon="8.46767">
        <ele>2308</ele>
        <time>2021-08-11T14:41:59.170Z</time>
      </trkpt>
      <trkpt lat="46.87359" lon="8.46767">
        <ele>2309</ele>
        <time>2021-08-11T14:42:00.170Z</time>
      </trkpt>
      <trkpt lat="46.87359" lon="8.46766">
        <ele>2309</ele>
        <time>2021-08-11T14:42:01.169Z</time>
      </trkpt>
      <trkpt lat="46.8736" lon="8.46765">
        <ele>2309</ele>
        <time>2021-08-11T14:42:02.170Z</time>
      </trkpt>
      <trkpt lat="46.8736" lon="8.46765">
        <ele>2309</ele>
        <time>2021-08-11T14:42:03.170Z</time>
      </trkpt>
      <trkpt lat="46.87361" lon="8.46764">
        <ele>2309</ele>
        <time>2021-08-11T14:42:04.169Z</time>
      </trkpt>
      <trkpt lat="46.87361" lon="8.46764">
        <ele>2310</ele>
        <time>2021-08-11T14:42:05.170Z</time>
      </trkpt>
      <trkpt lat="46.87361" lon="8.46763">
        <ele>2310</ele>
        <time>2021-08-11T14:42:06.169Z</time>
      </trkpt>
      <trkpt lat="46.87361" lon="8.46763">
        <ele>2310</ele>
        <time>2021-08-11T14:42:07.170Z</time>
      </trkpt>
      <trkpt lat="46.87362" lon="8.46764">
        <ele>2311</ele>
        <time>2021-08-11T14:42:08.170Z</time>
      </trkpt>
      <trkpt lat="46.87362" lon="8.46764">
        <ele>2310</ele>
        <time>2021-08-11T14:42:09.170Z</time>
      </trkpt>
      <trkpt lat="46.87362" lon="8.46765">
        <ele>2310</ele>
        <time>2021-08-11T14:42:10.170Z</time>
      </trkpt>
      <trkpt lat="46.87362" lon="8.46765">
        <ele>2310</ele>
        <time>2021-08-11T14:42:11.169Z</time>
      </trkpt>
      <trkpt lat="46.87361" lon="8.46766">
        <ele>2309</ele>
        <time>2021-08-11T14:42:12.170Z</time>
      </trkpt>
      <trkpt lat="46.87361" lon="8.46767">
        <ele>2309</ele>
        <time>2021-08-11T14:42:13.170Z</time>
      </trkpt>
      <trkpt lat="46.87362" lon="8.46767">
        <ele>2309</ele>
        <time>2021-08-11T14:42:14.170Z</time>
      </trkpt>
      <trkpt lat="46.87362" lon="8.46767">
        <ele>2309</ele>
        <time>2021-08-11T14:42:15.169Z</time>
      </trkpt>
      <trkpt lat="46.87362" lon="8.46767">
        <ele>2309</ele>
        <time>2021-08-11T14:42:16.170Z</time>
      </trkpt>
      <trkpt lat="46.87363" lon="8.46767">
        <ele>2309</ele>
        <time>2021-08-11T14:42:17.169Z</time>
      </trkpt>
      <trkpt lat="46.87363" lon="8.46767">
        <ele>2309</ele>
        <time>2021-08-11T14:42:18.170Z</time>
      </trkpt>
      <trkpt lat="46.87364" lon="8.46766">
        <ele>2309</ele>
        <time>2021-08-11T14:42:19.169Z</time>
      </trkpt>
      <trkpt lat="46.87364" lon="8.46766">
        <ele>2309</ele>
        <time>2021-08-11T14:42:20.170Z</time>
      </trkpt>
      <trkpt lat="46.87364" lon="8.46765">
        <ele>2309</ele>
        <time>2021-08-11T14:42:21.170Z</time>
      </trkpt>
      <trkpt lat="46.87365" lon="8.46765">
        <ele>2309</ele>
        <time>2021-08-11T14:42:22.169Z</time>
      </trkpt>
      <trkpt lat="46.87365" lon="8.46764">
        <ele>2309</ele>
        <time>2021-08-11T14:42:23.170Z</time>
      </trkpt>
      <trkpt lat="46.87365" lon="8.46764">
        <ele>2309</ele>
        <time>2021-08-11T14:42:24.169Z</time>
      </trkpt>
      <trkpt lat="46.87366" lon="8.46764">
        <ele>2309</ele>
        <time>2021-08-11T14:42:25.170Z</time>
      </trkpt>
      <trkpt lat="46.87366" lon="8.46763">
        <ele>2309</ele>
        <time>2021-08-11T14:42:26.170Z</time>
      </trkpt>
      <trkpt lat="46.87367" lon="8.46763">
        <ele>2310</ele>
        <time>2021-08-11T14:42:27.170Z</time>
      </trkpt>
      <trkpt lat="46.87367" lon="8.46763">
        <ele>2310</ele>
        <time>2021-08-11T14:42:28.170Z</time>
      </trkpt>
      <trkpt lat="46.87368" lon="8.46762">
        <ele>2310</ele>
        <time>2021-08-11T14:42:29.170Z</time>
      </trkpt>
      <trkpt lat="46.87369" lon="8.46762">
        <ele>2310</ele>
        <time>2021-08-11T14:42:30.170Z</time>
      </trkpt>
      <trkpt lat="46.87369" lon="8.46761">
        <ele>2310</ele>
        <time>2021-08-11T14:42:31.170Z</time>
      </trkpt>
      <trkpt lat="46.87369" lon="8.46761">
        <ele>2310</ele>
        <time>2021-08-11T14:42:32.169Z</time>
      </trkpt>
      <trkpt lat="46.87369" lon="8.46761">
        <ele>2311</ele>
        <time>2021-08-11T14:42:33.169Z</time>
      </trkpt>
      <trkpt lat="46.87369" lon="8.46762">
        <ele>2312</ele>
        <time>2021-08-11T14:42:34.170Z</time>
      </trkpt>
      <trkpt lat="46.8737" lon="8.46762">
        <ele>2312</ele>
        <time>2021-08-11T14:42:35.169Z</time>
      </trkpt>
      <trkpt lat="46.87371" lon="8.46762">
        <ele>2315</ele>
        <time>2021-08-11T14:42:36.171Z</time>
      </trkpt>
      <trkpt lat="46.87371" lon="8.46762">
        <ele>2315</ele>
        <time>2021-08-11T14:42:37.171Z</time>
      </trkpt>
      <trkpt lat="46.87372" lon="8.46762">
        <ele>2316</ele>
        <time>2021-08-11T14:42:38.170Z</time>
      </trkpt>
      <trkpt lat="46.87372" lon="8.46762">
        <ele>2316</ele>
        <time>2021-08-11T14:42:39.170Z</time>
      </trkpt>
      <trkpt lat="46.87373" lon="8.46761">
        <ele>2316</ele>
        <time>2021-08-11T14:42:40.171Z</time>
      </trkpt>
      <trkpt lat="46.87373" lon="8.46761">
        <ele>2317</ele>
        <time>2021-08-11T14:42:41.171Z</time>
      </trkpt>
      <trkpt lat="46.87374" lon="8.4676">
        <ele>2317</ele>
        <time>2021-08-11T14:42:42.171Z</time>
      </trkpt>
      <trkpt lat="46.87375" lon="8.4676">
        <ele>2317</ele>
        <time>2021-08-11T14:42:43.170Z</time>
      </trkpt>
      <trkpt lat="46.87376" lon="8.4676">
        <ele>2317</ele>
        <time>2021-08-11T14:42:44.171Z</time>
      </trkpt>
      <trkpt lat="46.87376" lon="8.4676">
        <ele>2317</ele>
        <time>2021-08-11T14:42:45.171Z</time>
      </trkpt>
      <trkpt lat="46.87376" lon="8.46759">
        <ele>2317</ele>
        <time>2021-08-11T14:42:46.170Z</time>
      </trkpt>
      <trkpt lat="46.87377" lon="8.46758">
        <ele>2317</ele>
        <time>2021-08-11T14:42:47.171Z</time>
      </trkpt>
      <trkpt lat="46.87378" lon="8.46758">
        <ele>2317</ele>
        <time>2021-08-11T14:42:48.171Z</time>
      </trkpt>
      <trkpt lat="46.87378" lon="8.46757">
        <ele>2317</ele>
        <time>2021-08-11T14:42:49.171Z</time>
      </trkpt>
      <trkpt lat="46.87378" lon="8.46756">
        <ele>2318</ele>
        <time>2021-08-11T14:42:50.171Z</time>
      </trkpt>
      <trkpt lat="46.87378" lon="8.46755">
        <ele>2318</ele>
        <time>2021-08-11T14:42:51.171Z</time>
      </trkpt>
      <trkpt lat="46.87379" lon="8.46755">
        <ele>2318</ele>
        <time>2021-08-11T14:42:52.170Z</time>
      </trkpt>
      <trkpt lat="46.87379" lon="8.46754">
        <ele>2318</ele>
        <time>2021-08-11T14:42:53.171Z</time>
      </trkpt>
      <trkpt lat="46.8738" lon="8.46754">
        <ele>2317</ele>
        <time>2021-08-11T14:42:54.171Z</time>
      </trkpt>
      <trkpt lat="46.8738" lon="8.46753">
        <ele>2317</ele>
        <time>2021-08-11T14:42:55.171Z</time>
      </trkpt>
      <trkpt lat="46.8738" lon="8.46752">
        <ele>2318</ele>
        <time>2021-08-11T14:42:56.171Z</time>
      </trkpt>
      <trkpt lat="46.8738" lon="8.46751">
        <ele>2318</ele>
        <time>2021-08-11T14:42:57.170Z</time>
      </trkpt>
      <trkpt lat="46.8738" lon="8.4675">
        <ele>2318</ele>
        <time>2021-08-11T14:42:58.171Z</time>
      </trkpt>
      <trkpt lat="46.87381" lon="8.4675">
        <ele>2318</ele>
        <time>2021-08-11T14:42:59.170Z</time>
      </trkpt>
      <trkpt lat="46.87382" lon="8.46749">
        <ele>2318</ele>
        <time>2021-08-11T14:43:00.171Z</time>
      </trkpt>
      <trkpt lat="46.87382" lon="8.46749">
        <ele>2318</ele>
        <time>2021-08-11T14:43:01.171Z</time>
      </trkpt>
      <trkpt lat="46.87383" lon="8.46749">
        <ele>2318</ele>
        <time>2021-08-11T14:43:02.171Z</time>
      </trkpt>
      <trkpt lat="46.87383" lon="8.46748">
        <ele>2318</ele>
        <time>2021-08-11T14:43:03.171Z</time>
      </trkpt>
      <trkpt lat="46.87383" lon="8.46747">
        <ele>2318</ele>
        <time>2021-08-11T14:43:04.171Z</time>
      </trkpt>
      <trkpt lat="46.87383" lon="8.46747">
        <ele>2318</ele>
        <time>2021-08-11T14:43:05.171Z</time>
      </trkpt>
      <trkpt lat="46.87384" lon="8.46746">
        <ele>2318</ele>
        <time>2021-08-11T14:43:06.171Z</time>
      </trkpt>
      <trkpt lat="46.87384" lon="8.46745">
        <ele>2318</ele>
        <time>2021-08-11T14:43:07.170Z</time>
      </trkpt>
      <trkpt lat="46.87384" lon="8.46745">
        <ele>2318</ele>
        <time>2021-08-11T14:43:08.171Z</time>
      </trkpt>
      <trkpt lat="46.87385" lon="8.46745">
        <ele>2318</ele>
        <time>2021-08-11T14:43:09.172Z</time>
      </trkpt>
      <trkpt lat="46.87386" lon="8.46744">
        <ele>2318</ele>
        <time>2021-08-11T14:43:10.172Z</time>
      </trkpt>
      <trkpt lat="46.87385" lon="8.46743">
        <ele>2319</ele>
        <time>2021-08-11T14:43:11.172Z</time>
      </trkpt>
      <trkpt lat="46.87386" lon="8.46742">
        <ele>2319</ele>
        <time>2021-08-11T14:43:12.172Z</time>
      </trkpt>
      <trkpt lat="46.87386" lon="8.46741">
        <ele>2319</ele>
        <time>2021-08-11T14:43:13.173Z</time>
      </trkpt>
      <trkpt lat="46.87386" lon="8.46741">
        <ele>2319</ele>
        <time>2021-08-11T14:43:14.173Z</time>
      </trkpt>
      <trkpt lat="46.87387" lon="8.4674">
        <ele>2319</ele>
        <time>2021-08-11T14:43:15.173Z</time>
      </trkpt>
      <trkpt lat="46.87387" lon="8.46739">
        <ele>2319</ele>
        <time>2021-08-11T14:43:16.173Z</time>
      </trkpt>
      <trkpt lat="46.87387" lon="8.46738">
        <ele>2319</ele>
        <time>2021-08-11T14:43:17.172Z</time>
      </trkpt>
      <trkpt lat="46.87387" lon="8.46738">
        <ele>2319</ele>
        <time>2021-08-11T14:43:18.173Z</time>
      </trkpt>
      <trkpt lat="46.87387" lon="8.46737">
        <ele>2319</ele>
        <time>2021-08-11T14:43:19.173Z</time>
      </trkpt>
      <trkpt lat="46.87387" lon="8.46736">
        <ele>2319</ele>
        <time>2021-08-11T14:43:20.173Z</time>
      </trkpt>
      <trkpt lat="46.87388" lon="8.46736">
        <ele>2320</ele>
        <time>2021-08-11T14:43:21.173Z</time>
      </trkpt>
      <trkpt lat="46.87388" lon="8.46735">
        <ele>2320</ele>
        <time>2021-08-11T14:43:22.173Z</time>
      </trkpt>
      <trkpt lat="46.87389" lon="8.46735">
        <ele>2320</ele>
        <time>2021-08-11T14:43:23.173Z</time>
      </trkpt>
      <trkpt lat="46.8739" lon="8.46734">
        <ele>2321</ele>
        <time>2021-08-11T14:43:24.173Z</time>
      </trkpt>
      <trkpt lat="46.8739" lon="8.46733">
        <ele>2321</ele>
        <time>2021-08-11T14:43:25.173Z</time>
      </trkpt>
      <trkpt lat="46.8739" lon="8.46733">
        <ele>2321</ele>
        <time>2021-08-11T14:43:26.173Z</time>
      </trkpt>
      <trkpt lat="46.87391" lon="8.46732">
        <ele>2321</ele>
        <time>2021-08-11T14:43:27.172Z</time>
      </trkpt>
      <trkpt lat="46.87391" lon="8.46731">
        <ele>2321</ele>
        <time>2021-08-11T14:43:28.172Z</time>
      </trkpt>
      <trkpt lat="46.87392" lon="8.4673">
        <ele>2321</ele>
        <time>2021-08-11T14:43:29.173Z</time>
      </trkpt>
      <trkpt lat="46.87393" lon="8.4673">
        <ele>2321</ele>
        <time>2021-08-11T14:43:30.173Z</time>
      </trkpt>
      <trkpt lat="46.87393" lon="8.46729">
        <ele>2321</ele>
        <time>2021-08-11T14:43:31.173Z</time>
      </trkpt>
      <trkpt lat="46.87394" lon="8.46729">
        <ele>2322</ele>
        <time>2021-08-11T14:43:32.173Z</time>
      </trkpt>
      <trkpt lat="46.87395" lon="8.46729">
        <ele>2322</ele>
        <time>2021-08-11T14:43:33.173Z</time>
      </trkpt>
      <trkpt lat="46.87395" lon="8.46729">
        <ele>2323</ele>
        <time>2021-08-11T14:43:34.173Z</time>
      </trkpt>
      <trkpt lat="46.87396" lon="8.46728">
        <ele>2323</ele>
        <time>2021-08-11T14:43:35.172Z</time>
      </trkpt>
      <trkpt lat="46.87397" lon="8.46728">
        <ele>2324</ele>
        <time>2021-08-11T14:43:36.173Z</time>
      </trkpt>
      <trkpt lat="46.87397" lon="8.46728">
        <ele>2324</ele>
        <time>2021-08-11T14:43:37.173Z</time>
      </trkpt>
      <trkpt lat="46.87398" lon="8.46727">
        <ele>2324</ele>
        <time>2021-08-11T14:43:38.173Z</time>
      </trkpt>
      <trkpt lat="46.87398" lon="8.46727">
        <ele>2324</ele>
        <time>2021-08-11T14:43:39.173Z</time>
      </trkpt>
      <trkpt lat="46.87398" lon="8.46727">
        <ele>2325</ele>
        <time>2021-08-11T14:43:40.172Z</time>
      </trkpt>
      <trkpt lat="46.87398" lon="8.46727">
        <ele>2326</ele>
        <time>2021-08-11T14:43:41.173Z</time>
      </trkpt>
      <trkpt lat="46.87397" lon="8.46726">
        <ele>2326</ele>
        <time>2021-08-11T14:43:42.174Z</time>
      </trkpt>
      <trkpt lat="46.87399" lon="8.46726">
        <ele>2326</ele>
        <time>2021-08-11T14:43:43.174Z</time>
      </trkpt>
      <trkpt lat="46.87399" lon="8.46727">
        <ele>2327</ele>
        <time>2021-08-11T14:43:44.174Z</time>
      </trkpt>
      <trkpt lat="46.87399" lon="8.46726">
        <ele>2327</ele>
        <time>2021-08-11T14:43:45.174Z</time>
      </trkpt>
      <trkpt lat="46.87398" lon="8.46726">
        <ele>2327</ele>
        <time>2021-08-11T14:43:46.173Z</time>
      </trkpt>
      <trkpt lat="46.87398" lon="8.46727">
        <ele>2327</ele>
        <time>2021-08-11T14:43:47.173Z</time>
      </trkpt>
      <trkpt lat="46.87398" lon="8.46727">
        <ele>2327</ele>
        <time>2021-08-11T14:43:48.174Z</time>
      </trkpt>
      <trkpt lat="46.87398" lon="8.46723">
        <ele>2322</ele>
        <time>2021-08-11T14:43:49.175Z</time>
      </trkpt>
      <trkpt lat="46.87399" lon="8.46723">
        <ele>2322</ele>
        <time>2021-08-11T14:43:50.175Z</time>
      </trkpt>
      <trkpt lat="46.87399" lon="8.46723">
        <ele>2321</ele>
        <time>2021-08-11T14:43:51.174Z</time>
      </trkpt>
      <trkpt lat="46.874" lon="8.46723">
        <ele>2321</ele>
        <time>2021-08-11T14:43:52.175Z</time>
      </trkpt>
      <trkpt lat="46.874" lon="8.46726">
        <ele>2323</ele>
        <time>2021-08-11T14:43:53.176Z</time>
      </trkpt>
      <trkpt lat="46.874" lon="8.46726">
        <ele>2323</ele>
        <time>2021-08-11T14:43:54.175Z</time>
      </trkpt>
      <trkpt lat="46.87399" lon="8.46726">
        <ele>2324</ele>
        <time>2021-08-11T14:43:55.175Z</time>
      </trkpt>
      <trkpt lat="46.87399" lon="8.46726">
        <ele>2328</ele>
        <time>2021-08-11T14:43:56.177Z</time>
      </trkpt>
      <trkpt lat="46.87399" lon="8.46725">
        <ele>2328</ele>
        <time>2021-08-11T14:43:57.177Z</time>
      </trkpt>
      <trkpt lat="46.874" lon="8.46725">
        <ele>2328</ele>
        <time>2021-08-11T14:43:58.176Z</time>
      </trkpt>
      <trkpt lat="46.87401" lon="8.46725">
        <ele>2328</ele>
        <time>2021-08-11T14:43:59.177Z</time>
      </trkpt>
      <trkpt lat="46.87401" lon="8.46725">
        <ele>2328</ele>
        <time>2021-08-11T14:44:00.176Z</time>
      </trkpt>
      <trkpt lat="46.87401" lon="8.46725">
        <ele>2328</ele>
        <time>2021-08-11T14:44:01.177Z</time>
      </trkpt>
      <trkpt lat="46.874" lon="8.46724">
        <ele>2328</ele>
        <time>2021-08-11T14:44:02.177Z</time>
      </trkpt>
      <trkpt lat="46.87399" lon="8.46724">
        <ele>2328</ele>
        <time>2021-08-11T14:44:03.176Z</time>
      </trkpt>
      <trkpt lat="46.87398" lon="8.46724">
        <ele>2328</ele>
        <time>2021-08-11T14:44:04.177Z</time>
      </trkpt>
      <trkpt lat="46.87398" lon="8.46725">
        <ele>2328</ele>
        <time>2021-08-11T14:44:05.176Z</time>
      </trkpt>
      <trkpt lat="46.87397" lon="8.46725">
        <ele>2328</ele>
        <time>2021-08-11T14:44:06.176Z</time>
      </trkpt>
      <trkpt lat="46.87397" lon="8.46726">
        <ele>2328</ele>
        <time>2021-08-11T14:44:07.177Z</time>
      </trkpt>
      <trkpt lat="46.87398" lon="8.46726">
        <ele>2328</ele>
        <time>2021-08-11T14:44:08.177Z</time>
      </trkpt>
      <trkpt lat="46.87399" lon="8.46726">
        <ele>2328</ele>
        <time>2021-08-11T14:44:09.177Z</time>
      </trkpt>
      <trkpt lat="46.87399" lon="8.46727">
        <ele>2328</ele>
        <time>2021-08-11T14:44:10.177Z</time>
      </trkpt>
      <trkpt lat="46.87398" lon="8.46728">
        <ele>2326</ele>
        <time>2021-08-11T14:44:11.176Z</time>
      </trkpt>
      <trkpt lat="46.87398" lon="8.46729">
        <ele>2326</ele>
        <time>2021-08-11T14:44:12.176Z</time>
      </trkpt>
      <trkpt lat="46.87399" lon="8.4673">
        <ele>2326</ele>
        <time>2021-08-11T14:44:13.176Z</time>
      </trkpt>
      <trkpt lat="46.87399" lon="8.4673">
        <ele>2326</ele>
        <time>2021-08-11T14:44:14.176Z</time>
      </trkpt>
      <trkpt lat="46.874" lon="8.46729">
        <ele>2326</ele>
        <time>2021-08-11T14:44:15.177Z</time>
      </trkpt>
      <trkpt lat="46.87401" lon="8.46728">
        <ele>2327</ele>
        <time>2021-08-11T14:44:16.177Z</time>
      </trkpt>
      <trkpt lat="46.87401" lon="8.46727">
        <ele>2327</ele>
        <time>2021-08-11T14:44:17.177Z</time>
      </trkpt>
      <trkpt lat="46.87401" lon="8.46726">
        <ele>2325</ele>
        <time>2021-08-11T14:44:18.177Z</time>
      </trkpt>
      <trkpt lat="46.87401" lon="8.46726">
        <ele>2325</ele>
        <time>2021-08-11T14:44:19.176Z</time>
      </trkpt>
      <trkpt lat="46.87402" lon="8.46726">
        <ele>2325</ele>
        <time>2021-08-11T14:44:20.176Z</time>
      </trkpt>
      <trkpt lat="46.87402" lon="8.46726">
        <ele>2325</ele>
        <time>2021-08-11T14:44:21.176Z</time>
      </trkpt>
      <trkpt lat="46.87403" lon="8.46726">
        <ele>2324</ele>
        <time>2021-08-11T14:44:22.178Z</time>
      </trkpt>
      <trkpt lat="46.87404" lon="8.46726">
        <ele>2324</ele>
        <time>2021-08-11T14:44:23.177Z</time>
      </trkpt>
      <trkpt lat="46.87405" lon="8.46726">
        <ele>2324</ele>
        <time>2021-08-11T14:44:24.177Z</time>
      </trkpt>
      <trkpt lat="46.87405" lon="8.46726">
        <ele>2323</ele>
        <time>2021-08-11T14:44:25.177Z</time>
      </trkpt>
      <trkpt lat="46.87406" lon="8.46726">
        <ele>2323</ele>
        <time>2021-08-11T14:44:26.178Z</time>
      </trkpt>
      <trkpt lat="46.87407" lon="8.46726">
        <ele>2323</ele>
        <time>2021-08-11T14:44:27.177Z</time>
      </trkpt>
      <trkpt lat="46.87407" lon="8.46725">
        <ele>2323</ele>
        <time>2021-08-11T14:44:28.177Z</time>
      </trkpt>
      <trkpt lat="46.87407" lon="8.46725">
        <ele>2323</ele>
        <time>2021-08-11T14:44:29.178Z</time>
      </trkpt>
      <trkpt lat="46.87408" lon="8.46725">
        <ele>2323</ele>
        <time>2021-08-11T14:44:30.177Z</time>
      </trkpt>
      <trkpt lat="46.87408" lon="8.46724">
        <ele>2323</ele>
        <time>2021-08-11T14:44:31.177Z</time>
      </trkpt>
      <trkpt lat="46.87409" lon="8.46724">
        <ele>2323</ele>
        <time>2021-08-11T14:44:32.177Z</time>
      </trkpt>
      <trkpt lat="46.87409" lon="8.46723">
        <ele>2322</ele>
        <time>2021-08-11T14:44:33.177Z</time>
      </trkpt>
      <trkpt lat="46.8741" lon="8.46723">
        <ele>2322</ele>
        <time>2021-08-11T14:44:34.178Z</time>
      </trkpt>
      <trkpt lat="46.8741" lon="8.46723">
        <ele>2322</ele>
        <time>2021-08-11T14:44:35.177Z</time>
      </trkpt>
      <trkpt lat="46.8741" lon="8.46723">
        <ele>2322</ele>
        <time>2021-08-11T14:44:36.178Z</time>
      </trkpt>
      <trkpt lat="46.87411" lon="8.46722">
        <ele>2322</ele>
        <time>2021-08-11T14:44:37.178Z</time>
      </trkpt>
      <trkpt lat="46.87412" lon="8.46722">
        <ele>2322</ele>
        <time>2021-08-11T14:44:38.178Z</time>
      </trkpt>
      <trkpt lat="46.87412" lon="8.46722">
        <ele>2322</ele>
        <time>2021-08-11T14:44:39.178Z</time>
      </trkpt>
      <trkpt lat="46.87412" lon="8.46722">
        <ele>2322</ele>
        <time>2021-08-11T14:44:40.177Z</time>
      </trkpt>
      <trkpt lat="46.87412" lon="8.46721">
        <ele>2321</ele>
        <time>2021-08-11T14:44:41.177Z</time>
      </trkpt>
      <trkpt lat="46.87412" lon="8.4672">
        <ele>2321</ele>
        <time>2021-08-11T14:44:42.177Z</time>
      </trkpt>
      <trkpt lat="46.87413" lon="8.46719">
        <ele>2318</ele>
        <time>2021-08-11T14:44:43.180Z</time>
      </trkpt>
      <trkpt lat="46.87414" lon="8.46719">
        <ele>2318</ele>
        <time>2021-08-11T14:44:44.180Z</time>
      </trkpt>
      <trkpt lat="46.87414" lon="8.4672">
        <ele>2318</ele>
        <time>2021-08-11T14:44:45.179Z</time>
      </trkpt>
      <trkpt lat="46.87415" lon="8.46719">
        <ele>2318</ele>
        <time>2021-08-11T14:44:46.180Z</time>
      </trkpt>
      <trkpt lat="46.87416" lon="8.46719">
        <ele>2318</ele>
        <time>2021-08-11T14:44:47.179Z</time>
      </trkpt>
      <trkpt lat="46.87416" lon="8.46719">
        <ele>2317</ele>
        <time>2021-08-11T14:44:48.179Z</time>
      </trkpt>
      <trkpt lat="46.87417" lon="8.46718">
        <ele>2317</ele>
        <time>2021-08-11T14:44:49.179Z</time>
      </trkpt>
      <trkpt lat="46.87418" lon="8.46718">
        <ele>2317</ele>
        <time>2021-08-11T14:44:50.179Z</time>
      </trkpt>
      <trkpt lat="46.87418" lon="8.46717">
        <ele>2317</ele>
        <time>2021-08-11T14:44:51.179Z</time>
      </trkpt>
      <trkpt lat="46.87419" lon="8.46716">
        <ele>2317</ele>
        <time>2021-08-11T14:44:52.179Z</time>
      </trkpt>
      <trkpt lat="46.87419" lon="8.46715">
        <ele>2317</ele>
        <time>2021-08-11T14:44:53.179Z</time>
      </trkpt>
      <trkpt lat="46.87419" lon="8.46714">
        <ele>2317</ele>
        <time>2021-08-11T14:44:54.180Z</time>
      </trkpt>
      <trkpt lat="46.87419" lon="8.46714">
        <ele>2317</ele>
        <time>2021-08-11T14:44:55.180Z</time>
      </trkpt>
      <trkpt lat="46.8742" lon="8.46715">
        <ele>2318</ele>
        <time>2021-08-11T14:44:56.181Z</time>
      </trkpt>
      <trkpt lat="46.87421" lon="8.46715">
        <ele>2319</ele>
        <time>2021-08-11T14:44:57.182Z</time>
      </trkpt>
      <trkpt lat="46.87421" lon="8.46714">
        <ele>2320</ele>
        <time>2021-08-11T14:44:58.182Z</time>
      </trkpt>
      <trkpt lat="46.8742" lon="8.46714">
        <ele>2320</ele>
        <time>2021-08-11T14:44:59.181Z</time>
      </trkpt>
      <trkpt lat="46.8742" lon="8.46715">
        <ele>2320</ele>
        <time>2021-08-11T14:45:00.182Z</time>
      </trkpt>
      <trkpt lat="46.87419" lon="8.46714">
        <ele>2318</ele>
        <time>2021-08-11T14:45:01.182Z</time>
      </trkpt>
      <trkpt lat="46.87419" lon="8.46713">
        <ele>2318</ele>
        <time>2021-08-11T14:45:02.181Z</time>
      </trkpt>
      <trkpt lat="46.87419" lon="8.46713">
        <ele>2318</ele>
        <time>2021-08-11T14:45:03.181Z</time>
      </trkpt>
      <trkpt lat="46.8742" lon="8.46713">
        <ele>2319</ele>
        <time>2021-08-11T14:45:04.181Z</time>
      </trkpt>
      <trkpt lat="46.8742" lon="8.46713">
        <ele>2320</ele>
        <time>2021-08-11T14:45:05.181Z</time>
      </trkpt>
      <trkpt lat="46.8742" lon="8.46713">
        <ele>2320</ele>
        <time>2021-08-11T14:45:06.181Z</time>
      </trkpt>
      <trkpt lat="46.87421" lon="8.46713">
        <ele>2320</ele>
        <time>2021-08-11T14:45:07.182Z</time>
      </trkpt>
      <trkpt lat="46.87421" lon="8.46713">
        <ele>2320</ele>
        <time>2021-08-11T14:45:08.182Z</time>
      </trkpt>
      <trkpt lat="46.87423" lon="8.46714">
        <ele>2318</ele>
        <time>2021-08-11T14:45:09.182Z</time>
      </trkpt>
      <trkpt lat="46.87423" lon="8.46714">
        <ele>2318</ele>
        <time>2021-08-11T14:45:10.182Z</time>
      </trkpt>
      <trkpt lat="46.87423" lon="8.46714">
        <ele>2318</ele>
        <time>2021-08-11T14:45:11.181Z</time>
      </trkpt>
      <trkpt lat="46.87423" lon="8.46713">
        <ele>2318</ele>
        <time>2021-08-11T14:45:12.182Z</time>
      </trkpt>
      <trkpt lat="46.87423" lon="8.46713">
        <ele>2319</ele>
        <time>2021-08-11T14:45:13.182Z</time>
      </trkpt>
      <trkpt lat="46.87422" lon="8.46713">
        <ele>2321</ele>
        <time>2021-08-11T14:45:14.181Z</time>
      </trkpt>
      <trkpt lat="46.87423" lon="8.46713">
        <ele>2321</ele>
        <time>2021-08-11T14:45:15.182Z</time>
      </trkpt>
      <trkpt lat="46.87423" lon="8.46713">
        <ele>2322</ele>
        <time>2021-08-11T14:45:16.181Z</time>
      </trkpt>
      <trkpt lat="46.87424" lon="8.46714">
        <ele>2322</ele>
        <time>2021-08-11T14:45:17.182Z</time>
      </trkpt>
      <trkpt lat="46.87424" lon="8.46714">
        <ele>2323</ele>
        <time>2021-08-11T14:45:18.181Z</time>
      </trkpt>
      <trkpt lat="46.87425" lon="8.46714">
        <ele>2323</ele>
        <time>2021-08-11T14:45:19.182Z</time>
      </trkpt>
      <trkpt lat="46.87425" lon="8.46714">
        <ele>2324</ele>
        <time>2021-08-11T14:45:20.182Z</time>
      </trkpt>
      <trkpt lat="46.87425" lon="8.46714">
        <ele>2324</ele>
        <time>2021-08-11T14:45:21.182Z</time>
      </trkpt>
      <trkpt lat="46.87426" lon="8.46715">
        <ele>2324</ele>
        <time>2021-08-11T14:45:22.181Z</time>
      </trkpt>
      <trkpt lat="46.87427" lon="8.46715">
        <ele>2324</ele>
        <time>2021-08-11T14:45:23.182Z</time>
      </trkpt>
      <trkpt lat="46.87428" lon="8.46715">
        <ele>2324</ele>
        <time>2021-08-11T14:45:24.182Z</time>
      </trkpt>
      <trkpt lat="46.87429" lon="8.46716">
        <ele>2324</ele>
        <time>2021-08-11T14:45:25.181Z</time>
      </trkpt>
      <trkpt lat="46.87429" lon="8.46716">
        <ele>2325</ele>
        <time>2021-08-11T14:45:26.181Z</time>
      </trkpt>
      <trkpt lat="46.8743" lon="8.46716">
        <ele>2325</ele>
        <time>2021-08-11T14:45:27.182Z</time>
      </trkpt>
      <trkpt lat="46.8743" lon="8.46716">
        <ele>2325</ele>
        <time>2021-08-11T14:45:28.182Z</time>
      </trkpt>
      <trkpt lat="46.87431" lon="8.46716">
        <ele>2324</ele>
        <time>2021-08-11T14:45:29.181Z</time>
      </trkpt>
      <trkpt lat="46.87432" lon="8.46717">
        <ele>2325</ele>
        <time>2021-08-11T14:45:30.182Z</time>
      </trkpt>
      <trkpt lat="46.87433" lon="8.46717">
        <ele>2325</ele>
        <time>2021-08-11T14:45:31.181Z</time>
      </trkpt>
      <trkpt lat="46.87434" lon="8.46717">
        <ele>2325</ele>
        <time>2021-08-11T14:45:32.182Z</time>
      </trkpt>
      <trkpt lat="46.87435" lon="8.46717">
        <ele>2325</ele>
        <time>2021-08-11T14:45:33.181Z</time>
      </trkpt>
      <trkpt lat="46.87436" lon="8.46717">
        <ele>2325</ele>
        <time>2021-08-11T14:45:34.182Z</time>
      </trkpt>
      <trkpt lat="46.87437" lon="8.46717">
        <ele>2325</ele>
        <time>2021-08-11T14:45:35.182Z</time>
      </trkpt>
      <trkpt lat="46.87438" lon="8.46717">
        <ele>2325</ele>
        <time>2021-08-11T14:45:36.181Z</time>
      </trkpt>
      <trkpt lat="46.8744" lon="8.46717">
        <ele>2325</ele>
        <time>2021-08-11T14:45:37.182Z</time>
      </trkpt>
      <trkpt lat="46.87441" lon="8.46718">
        <ele>2325</ele>
        <time>2021-08-11T14:45:38.181Z</time>
      </trkpt>
      <trkpt lat="46.87442" lon="8.46718">
        <ele>2325</ele>
        <time>2021-08-11T14:45:39.182Z</time>
      </trkpt>
      <trkpt lat="46.87442" lon="8.46718">
        <ele>2325</ele>
        <time>2021-08-11T14:45:40.181Z</time>
      </trkpt>
      <trkpt lat="46.87443" lon="8.46718">
        <ele>2325</ele>
        <time>2021-08-11T14:45:41.182Z</time>
      </trkpt>
      <trkpt lat="46.87443" lon="8.46717">
        <ele>2326</ele>
        <time>2021-08-11T14:45:42.182Z</time>
      </trkpt>
      <trkpt lat="46.87443" lon="8.46717">
        <ele>2326</ele>
        <time>2021-08-11T14:45:43.182Z</time>
      </trkpt>
      <trkpt lat="46.87445" lon="8.46717">
        <ele>2327</ele>
        <time>2021-08-11T14:45:44.181Z</time>
      </trkpt>
      <trkpt lat="46.87447" lon="8.46717">
        <ele>2327</ele>
        <time>2021-08-11T14:45:45.182Z</time>
      </trkpt>
      <trkpt lat="46.87448" lon="8.46717">
        <ele>2327</ele>
        <time>2021-08-11T14:45:46.182Z</time>
      </trkpt>
      <trkpt lat="46.87449" lon="8.46716">
        <ele>2328</ele>
        <time>2021-08-11T14:45:47.182Z</time>
      </trkpt>
      <trkpt lat="46.8745" lon="8.46716">
        <ele>2328</ele>
        <time>2021-08-11T14:45:48.181Z</time>
      </trkpt>
      <trkpt lat="46.8745" lon="8.46715">
        <ele>2328</ele>
        <time>2021-08-11T14:45:49.181Z</time>
      </trkpt>
      <trkpt lat="46.87451" lon="8.46715">
        <ele>2328</ele>
        <time>2021-08-11T14:45:50.182Z</time>
      </trkpt>
      <trkpt lat="46.87453" lon="8.46715">
        <ele>2328</ele>
        <time>2021-08-11T14:45:51.182Z</time>
      </trkpt>
      <trkpt lat="46.87454" lon="8.46715">
        <ele>2329</ele>
        <time>2021-08-11T14:45:52.182Z</time>
      </trkpt>
      <trkpt lat="46.87454" lon="8.46715">
        <ele>2329</ele>
        <time>2021-08-11T14:45:53.182Z</time>
      </trkpt>
      <trkpt lat="46.87455" lon="8.46715">
        <ele>2329</ele>
        <time>2021-08-11T14:45:54.182Z</time>
      </trkpt>
      <trkpt lat="46.87455" lon="8.46715">
        <ele>2329</ele>
        <time>2021-08-11T14:45:55.181Z</time>
      </trkpt>
      <trkpt lat="46.87456" lon="8.46716">
        <ele>2329</ele>
        <time>2021-08-11T14:45:56.181Z</time>
      </trkpt>
      <trkpt lat="46.87457" lon="8.46716">
        <ele>2328</ele>
        <time>2021-08-11T14:45:57.182Z</time>
      </trkpt>
      <trkpt lat="46.87457" lon="8.46717">
        <ele>2328</ele>
        <time>2021-08-11T14:45:58.182Z</time>
      </trkpt>
      <trkpt lat="46.87458" lon="8.46717">
        <ele>2327</ele>
        <time>2021-08-11T14:45:59.182Z</time>
      </trkpt>
      <trkpt lat="46.87458" lon="8.46717">
        <ele>2327</ele>
        <time>2021-08-11T14:46:00.182Z</time>
      </trkpt>
      <trkpt lat="46.87459" lon="8.46718">
        <ele>2327</ele>
        <time>2021-08-11T14:46:01.181Z</time>
      </trkpt>
      <trkpt lat="46.87459" lon="8.46718">
        <ele>2326</ele>
        <time>2021-08-11T14:46:02.182Z</time>
      </trkpt>
      <trkpt lat="46.8746" lon="8.46719">
        <ele>2326</ele>
        <time>2021-08-11T14:46:03.182Z</time>
      </trkpt>
      <trkpt lat="46.8746" lon="8.46719">
        <ele>2325</ele>
        <time>2021-08-11T14:46:04.182Z</time>
      </trkpt>
      <trkpt lat="46.87461" lon="8.4672">
        <ele>2325</ele>
        <time>2021-08-11T14:46:05.182Z</time>
      </trkpt>
      <trkpt lat="46.87462" lon="8.4672">
        <ele>2325</ele>
        <time>2021-08-11T14:46:06.181Z</time>
      </trkpt>
      <trkpt lat="46.87462" lon="8.46721">
        <ele>2325</ele>
        <time>2021-08-11T14:46:07.182Z</time>
      </trkpt>
      <trkpt lat="46.87463" lon="8.46721">
        <ele>2324</ele>
        <time>2021-08-11T14:46:08.182Z</time>
      </trkpt>
      <trkpt lat="46.87464" lon="8.46721">
        <ele>2324</ele>
        <time>2021-08-11T14:46:09.182Z</time>
      </trkpt>
      <trkpt lat="46.87465" lon="8.46721">
        <ele>2324</ele>
        <time>2021-08-11T14:46:10.182Z</time>
      </trkpt>
      <trkpt lat="46.87466" lon="8.4672">
        <ele>2324</ele>
        <time>2021-08-11T14:46:11.181Z</time>
      </trkpt>
      <trkpt lat="46.87466" lon="8.4672">
        <ele>2325</ele>
        <time>2021-08-11T14:46:12.182Z</time>
      </trkpt>
      <trkpt lat="46.87467" lon="8.46719">
        <ele>2325</ele>
        <time>2021-08-11T14:46:13.181Z</time>
      </trkpt>
      <trkpt lat="46.87467" lon="8.46718">
        <ele>2325</ele>
        <time>2021-08-11T14:46:14.181Z</time>
      </trkpt>
      <trkpt lat="46.87467" lon="8.46717">
        <ele>2324</ele>
        <time>2021-08-11T14:46:15.182Z</time>
      </trkpt>
      <trkpt lat="46.87467" lon="8.46716">
        <ele>2324</ele>
        <time>2021-08-11T14:46:16.182Z</time>
      </trkpt>
      <trkpt lat="46.87467" lon="8.46715">
        <ele>2324</ele>
        <time>2021-08-11T14:46:17.182Z</time>
      </trkpt>
      <trkpt lat="46.87468" lon="8.46714">
        <ele>2325</ele>
        <time>2021-08-11T14:46:18.181Z</time>
      </trkpt>
      <trkpt lat="46.87469" lon="8.46714">
        <ele>2325</ele>
        <time>2021-08-11T14:46:19.182Z</time>
      </trkpt>
      <trkpt lat="46.87469" lon="8.46712">
        <ele>2325</ele>
        <time>2021-08-11T14:46:20.181Z</time>
      </trkpt>
      <trkpt lat="46.87469" lon="8.46711">
        <ele>2325</ele>
        <time>2021-08-11T14:46:21.182Z</time>
      </trkpt>
      <trkpt lat="46.87469" lon="8.4671">
        <ele>2326</ele>
        <time>2021-08-11T14:46:22.181Z</time>
      </trkpt>
      <trkpt lat="46.87469" lon="8.46709">
        <ele>2326</ele>
        <time>2021-08-11T14:46:23.182Z</time>
      </trkpt>
      <trkpt lat="46.87471" lon="8.46709">
        <ele>2327</ele>
        <time>2021-08-11T14:46:24.182Z</time>
      </trkpt>
      <trkpt lat="46.87471" lon="8.46709">
        <ele>2327</ele>
        <time>2021-08-11T14:46:25.182Z</time>
      </trkpt>
      <trkpt lat="46.87471" lon="8.46708">
        <ele>2327</ele>
        <time>2021-08-11T14:46:26.182Z</time>
      </trkpt>
      <trkpt lat="46.87471" lon="8.46708">
        <ele>2327</ele>
        <time>2021-08-11T14:46:27.181Z</time>
      </trkpt>
      <trkpt lat="46.87472" lon="8.46708">
        <ele>2328</ele>
        <time>2021-08-11T14:46:28.182Z</time>
      </trkpt>
      <trkpt lat="46.87472" lon="8.46707">
        <ele>2328</ele>
        <time>2021-08-11T14:46:29.182Z</time>
      </trkpt>
      <trkpt lat="46.87473" lon="8.46707">
        <ele>2328</ele>
        <time>2021-08-11T14:46:30.182Z</time>
      </trkpt>
      <trkpt lat="46.87474" lon="8.46706">
        <ele>2329</ele>
        <time>2021-08-11T14:46:31.182Z</time>
      </trkpt>
      <trkpt lat="46.87474" lon="8.46705">
        <ele>2329</ele>
        <time>2021-08-11T14:46:32.181Z</time>
      </trkpt>
      <trkpt lat="46.87474" lon="8.46704">
        <ele>2329</ele>
        <time>2021-08-11T14:46:33.182Z</time>
      </trkpt>
      <trkpt lat="46.87475" lon="8.46702">
        <ele>2329</ele>
        <time>2021-08-11T14:46:34.182Z</time>
      </trkpt>
      <trkpt lat="46.87476" lon="8.46702">
        <ele>2329</ele>
        <time>2021-08-11T14:46:35.182Z</time>
      </trkpt>
      <trkpt lat="46.87476" lon="8.46702">
        <ele>2329</ele>
        <time>2021-08-11T14:46:36.181Z</time>
      </trkpt>
      <trkpt lat="46.87477" lon="8.46702">
        <ele>2329</ele>
        <time>2021-08-11T14:46:37.182Z</time>
      </trkpt>
      <trkpt lat="46.87478" lon="8.46701">
        <ele>2329</ele>
        <time>2021-08-11T14:46:38.182Z</time>
      </trkpt>
      <trkpt lat="46.87479" lon="8.46701">
        <ele>2329</ele>
        <time>2021-08-11T14:46:39.181Z</time>
      </trkpt>
      <trkpt lat="46.8748" lon="8.46701">
        <ele>2329</ele>
        <time>2021-08-11T14:46:40.181Z</time>
      </trkpt>
      <trkpt lat="46.87481" lon="8.46701">
        <ele>2329</ele>
        <time>2021-08-11T14:46:41.181Z</time>
      </trkpt>
      <trkpt lat="46.87482" lon="8.46701">
        <ele>2329</ele>
        <time>2021-08-11T14:46:42.182Z</time>
      </trkpt>
      <trkpt lat="46.87483" lon="8.46701">
        <ele>2329</ele>
        <time>2021-08-11T14:46:43.181Z</time>
      </trkpt>
      <trkpt lat="46.87484" lon="8.46701">
        <ele>2329</ele>
        <time>2021-08-11T14:46:44.182Z</time>
      </trkpt>
      <trkpt lat="46.87484" lon="8.467">
        <ele>2328</ele>
        <time>2021-08-11T14:46:45.181Z</time>
      </trkpt>
      <trkpt lat="46.87485" lon="8.46699">
        <ele>2328</ele>
        <time>2021-08-11T14:46:46.182Z</time>
      </trkpt>
      <trkpt lat="46.87485" lon="8.46699">
        <ele>2328</ele>
        <time>2021-08-11T14:46:47.182Z</time>
      </trkpt>
      <trkpt lat="46.87486" lon="8.46699">
        <ele>2328</ele>
        <time>2021-08-11T14:46:48.182Z</time>
      </trkpt>
      <trkpt lat="46.87486" lon="8.46699">
        <ele>2329</ele>
        <time>2021-08-11T14:46:49.182Z</time>
      </trkpt>
      <trkpt lat="46.87486" lon="8.46699">
        <ele>2329</ele>
        <time>2021-08-11T14:46:50.181Z</time>
      </trkpt>
      <trkpt lat="46.87486" lon="8.46699">
        <ele>2329</ele>
        <time>2021-08-11T14:46:51.181Z</time>
      </trkpt>
      <trkpt lat="46.87487" lon="8.46698">
        <ele>2329</ele>
        <time>2021-08-11T14:46:52.182Z</time>
      </trkpt>
      <trkpt lat="46.87488" lon="8.46699">
        <ele>2329</ele>
        <time>2021-08-11T14:46:53.181Z</time>
      </trkpt>
      <trkpt lat="46.87488" lon="8.46699">
        <ele>2330</ele>
        <time>2021-08-11T14:46:54.181Z</time>
      </trkpt>
      <trkpt lat="46.87488" lon="8.46699">
        <ele>2330</ele>
        <time>2021-08-11T14:46:55.182Z</time>
      </trkpt>
      <trkpt lat="46.87489" lon="8.46699">
        <ele>2330</ele>
        <time>2021-08-11T14:46:56.182Z</time>
      </trkpt>
      <trkpt lat="46.87489" lon="8.46699">
        <ele>2330</ele>
        <time>2021-08-11T14:46:57.182Z</time>
      </trkpt>
      <trkpt lat="46.8749" lon="8.46699">
        <ele>2329</ele>
        <time>2021-08-11T14:46:58.182Z</time>
      </trkpt>
      <trkpt lat="46.8749" lon="8.46699">
        <ele>2329</ele>
        <time>2021-08-11T14:46:59.181Z</time>
      </trkpt>
      <trkpt lat="46.87491" lon="8.46699">
        <ele>2329</ele>
        <time>2021-08-11T14:47:00.181Z</time>
      </trkpt>
      <trkpt lat="46.87491" lon="8.46699">
        <ele>2329</ele>
        <time>2021-08-11T14:47:01.182Z</time>
      </trkpt>
      <trkpt lat="46.87491" lon="8.46699">
        <ele>2328</ele>
        <time>2021-08-11T14:47:02.183Z</time>
      </trkpt>
      <trkpt lat="46.87492" lon="8.46699">
        <ele>2328</ele>
        <time>2021-08-11T14:47:03.182Z</time>
      </trkpt>
      <trkpt lat="46.87492" lon="8.46699">
        <ele>2328</ele>
        <time>2021-08-11T14:47:04.182Z</time>
      </trkpt>
      <trkpt lat="46.87493" lon="8.46699">
        <ele>2328</ele>
        <time>2021-08-11T14:47:05.183Z</time>
      </trkpt>
      <trkpt lat="46.87493" lon="8.46699">
        <ele>2328</ele>
        <time>2021-08-11T14:47:06.182Z</time>
      </trkpt>
      <trkpt lat="46.87494" lon="8.46699">
        <ele>2329</ele>
        <time>2021-08-11T14:47:07.182Z</time>
      </trkpt>
      <trkpt lat="46.87493" lon="8.46699">
        <ele>2329</ele>
        <time>2021-08-11T14:47:08.182Z</time>
      </trkpt>
      <trkpt lat="46.87493" lon="8.46698">
        <ele>2329</ele>
        <time>2021-08-11T14:47:09.183Z</time>
      </trkpt>
      <trkpt lat="46.87493" lon="8.46698">
        <ele>2329</ele>
        <time>2021-08-11T14:47:10.182Z</time>
      </trkpt>
      <trkpt lat="46.87494" lon="8.46698">
        <ele>2329</ele>
        <time>2021-08-11T14:47:11.183Z</time>
      </trkpt>
      <trkpt lat="46.87495" lon="8.46698">
        <ele>2330</ele>
        <time>2021-08-11T14:47:12.183Z</time>
      </trkpt>
      <trkpt lat="46.87495" lon="8.46698">
        <ele>2330</ele>
        <time>2021-08-11T14:47:13.183Z</time>
      </trkpt>
      <trkpt lat="46.87495" lon="8.46698">
        <ele>2331</ele>
        <time>2021-08-11T14:47:14.183Z</time>
      </trkpt>
      <trkpt lat="46.87496" lon="8.46698">
        <ele>2331</ele>
        <time>2021-08-11T14:47:15.184Z</time>
      </trkpt>
      <trkpt lat="46.87496" lon="8.46698">
        <ele>2331</ele>
        <time>2021-08-11T14:47:16.184Z</time>
      </trkpt>
      <trkpt lat="46.87497" lon="8.46697">
        <ele>2331</ele>
        <time>2021-08-11T14:47:17.184Z</time>
      </trkpt>
      <trkpt lat="46.87497" lon="8.46697">
        <ele>2331</ele>
        <time>2021-08-11T14:47:18.184Z</time>
      </trkpt>
      <trkpt lat="46.87498" lon="8.46697">
        <ele>2331</ele>
        <time>2021-08-11T14:47:19.183Z</time>
      </trkpt>
      <trkpt lat="46.87499" lon="8.46697">
        <ele>2332</ele>
        <time>2021-08-11T14:47:20.183Z</time>
      </trkpt>
      <trkpt lat="46.87499" lon="8.46697">
        <ele>2332</ele>
        <time>2021-08-11T14:47:21.183Z</time>
      </trkpt>
      <trkpt lat="46.875" lon="8.46697">
        <ele>2332</ele>
        <time>2021-08-11T14:47:22.184Z</time>
      </trkpt>
      <trkpt lat="46.875" lon="8.46697">
        <ele>2332</ele>
        <time>2021-08-11T14:47:23.183Z</time>
      </trkpt>
      <trkpt lat="46.87501" lon="8.46696">
        <ele>2333</ele>
        <time>2021-08-11T14:47:24.183Z</time>
      </trkpt>
      <trkpt lat="46.87501" lon="8.46696">
        <ele>2333</ele>
        <time>2021-08-11T14:47:25.184Z</time>
      </trkpt>
      <trkpt lat="46.87502" lon="8.46695">
        <ele>2333</ele>
        <time>2021-08-11T14:47:26.184Z</time>
      </trkpt>
      <trkpt lat="46.87503" lon="8.46695">
        <ele>2334</ele>
        <time>2021-08-11T14:47:27.184Z</time>
      </trkpt>
      <trkpt lat="46.87503" lon="8.46695">
        <ele>2334</ele>
        <time>2021-08-11T14:47:28.183Z</time>
      </trkpt>
      <trkpt lat="46.87503" lon="8.46694">
        <ele>2335</ele>
        <time>2021-08-11T14:47:29.183Z</time>
      </trkpt>
      <trkpt lat="46.87504" lon="8.46694">
        <ele>2335</ele>
        <time>2021-08-11T14:47:30.183Z</time>
      </trkpt>
      <trkpt lat="46.87504" lon="8.46693">
        <ele>2335</ele>
        <time>2021-08-11T14:47:31.183Z</time>
      </trkpt>
      <trkpt lat="46.87505" lon="8.46693">
        <ele>2335</ele>
        <time>2021-08-11T14:47:32.183Z</time>
      </trkpt>
      <trkpt lat="46.87505" lon="8.46693">
        <ele>2335</ele>
        <time>2021-08-11T14:47:33.183Z</time>
      </trkpt>
      <trkpt lat="46.87506" lon="8.46692">
        <ele>2336</ele>
        <time>2021-08-11T14:47:34.184Z</time>
      </trkpt>
      <trkpt lat="46.87507" lon="8.46692">
        <ele>2336</ele>
        <time>2021-08-11T14:47:35.183Z</time>
      </trkpt>
      <trkpt lat="46.87508" lon="8.46691">
        <ele>2336</ele>
        <time>2021-08-11T14:47:36.183Z</time>
      </trkpt>
      <trkpt lat="46.87509" lon="8.46691">
        <ele>2336</ele>
        <time>2021-08-11T14:47:38.186Z</time>
      </trkpt>
      <trkpt lat="46.8751" lon="8.4669">
        <ele>2336</ele>
        <time>2021-08-11T14:47:39.187Z</time>
      </trkpt>
      <trkpt lat="46.87511" lon="8.46689">
        <ele>2336</ele>
        <time>2021-08-11T14:47:40.186Z</time>
      </trkpt>
      <trkpt lat="46.87511" lon="8.46689">
        <ele>2337</ele>
        <time>2021-08-11T14:47:41.186Z</time>
      </trkpt>
      <trkpt lat="46.87512" lon="8.46688">
        <ele>2337</ele>
        <time>2021-08-11T14:47:42.187Z</time>
      </trkpt>
      <trkpt lat="46.87513" lon="8.46688">
        <ele>2338</ele>
        <time>2021-08-11T14:47:43.187Z</time>
      </trkpt>
      <trkpt lat="46.87514" lon="8.46688">
        <ele>2338</ele>
        <time>2021-08-11T14:47:44.186Z</time>
      </trkpt>
      <trkpt lat="46.87515" lon="8.46688">
        <ele>2339</ele>
        <time>2021-08-11T14:47:45.186Z</time>
      </trkpt>
      <trkpt lat="46.87515" lon="8.46688">
        <ele>2340</ele>
        <time>2021-08-11T14:47:46.187Z</time>
      </trkpt>
      <trkpt lat="46.87516" lon="8.46688">
        <ele>2340</ele>
        <time>2021-08-11T14:47:47.187Z</time>
      </trkpt>
      <trkpt lat="46.87516" lon="8.46688">
        <ele>2340</ele>
        <time>2021-08-11T14:47:48.186Z</time>
      </trkpt>
      <trkpt lat="46.87517" lon="8.46688">
        <ele>2340</ele>
        <time>2021-08-11T14:47:49.186Z</time>
      </trkpt>
      <trkpt lat="46.87518" lon="8.46688">
        <ele>2340</ele>
        <time>2021-08-11T14:47:50.187Z</time>
      </trkpt>
      <trkpt lat="46.87519" lon="8.46688">
        <ele>2340</ele>
        <time>2021-08-11T14:47:51.186Z</time>
      </trkpt>
      <trkpt lat="46.8752" lon="8.46688">
        <ele>2340</ele>
        <time>2021-08-11T14:47:52.186Z</time>
      </trkpt>
      <trkpt lat="46.8752" lon="8.46688">
        <ele>2339</ele>
        <time>2021-08-11T14:47:53.187Z</time>
      </trkpt>
      <trkpt lat="46.87521" lon="8.46689">
        <ele>2339</ele>
        <time>2021-08-11T14:47:54.187Z</time>
      </trkpt>
      <trkpt lat="46.87522" lon="8.46689">
        <ele>2339</ele>
        <time>2021-08-11T14:47:55.187Z</time>
      </trkpt>
      <trkpt lat="46.87522" lon="8.4669">
        <ele>2339</ele>
        <time>2021-08-11T14:47:56.187Z</time>
      </trkpt>
      <trkpt lat="46.87523" lon="8.4669">
        <ele>2339</ele>
        <time>2021-08-11T14:47:57.187Z</time>
      </trkpt>
      <trkpt lat="46.87524" lon="8.46691">
        <ele>2339</ele>
        <time>2021-08-11T14:47:58.187Z</time>
      </trkpt>
      <trkpt lat="46.87524" lon="8.46691">
        <ele>2338</ele>
        <time>2021-08-11T14:47:59.186Z</time>
      </trkpt>
      <trkpt lat="46.87525" lon="8.46691">
        <ele>2338</ele>
        <time>2021-08-11T14:48:00.186Z</time>
      </trkpt>
      <trkpt lat="46.87526" lon="8.46692">
        <ele>2338</ele>
        <time>2021-08-11T14:48:01.187Z</time>
      </trkpt>
      <trkpt lat="46.87527" lon="8.46692">
        <ele>2338</ele>
        <time>2021-08-11T14:48:02.187Z</time>
      </trkpt>
      <trkpt lat="46.87527" lon="8.46693">
        <ele>2338</ele>
        <time>2021-08-11T14:48:03.186Z</time>
      </trkpt>
      <trkpt lat="46.87527" lon="8.46693">
        <ele>2338</ele>
        <time>2021-08-11T14:48:04.186Z</time>
      </trkpt>
      <trkpt lat="46.87527" lon="8.46694">
        <ele>2337</ele>
        <time>2021-08-11T14:48:05.186Z</time>
      </trkpt>
      <trkpt lat="46.87527" lon="8.46695">
        <ele>2337</ele>
        <time>2021-08-11T14:48:06.186Z</time>
      </trkpt>
      <trkpt lat="46.87527" lon="8.46696">
        <ele>2337</ele>
        <time>2021-08-11T14:48:07.186Z</time>
      </trkpt>
      <trkpt lat="46.87527" lon="8.46697">
        <ele>2336</ele>
        <time>2021-08-11T14:48:08.187Z</time>
      </trkpt>
      <trkpt lat="46.87527" lon="8.46698">
        <ele>2336</ele>
        <time>2021-08-11T14:48:09.186Z</time>
      </trkpt>
      <trkpt lat="46.87528" lon="8.46699">
        <ele>2336</ele>
        <time>2021-08-11T14:48:10.187Z</time>
      </trkpt>
      <trkpt lat="46.87528" lon="8.467">
        <ele>2336</ele>
        <time>2021-08-11T14:48:11.187Z</time>
      </trkpt>
      <trkpt lat="46.87528" lon="8.467">
        <ele>2336</ele>
        <time>2021-08-11T14:48:12.186Z</time>
      </trkpt>
      <trkpt lat="46.87528" lon="8.46702">
        <ele>2336</ele>
        <time>2021-08-11T14:48:13.187Z</time>
      </trkpt>
      <trkpt lat="46.87529" lon="8.46703">
        <ele>2336</ele>
        <time>2021-08-11T14:48:14.186Z</time>
      </trkpt>
      <trkpt lat="46.87529" lon="8.46703">
        <ele>2336</ele>
        <time>2021-08-11T14:48:15.186Z</time>
      </trkpt>
      <trkpt lat="46.87529" lon="8.46703">
        <ele>2336</ele>
        <time>2021-08-11T14:48:16.186Z</time>
      </trkpt>
      <trkpt lat="46.87529" lon="8.46703">
        <ele>2338</ele>
        <time>2021-08-11T14:48:17.189Z</time>
      </trkpt>
      <trkpt lat="46.87529" lon="8.46703">
        <ele>2338</ele>
        <time>2021-08-11T14:48:18.189Z</time>
      </trkpt>
      <trkpt lat="46.87529" lon="8.46703">
        <ele>2338</ele>
        <time>2021-08-11T14:48:19.188Z</time>
      </trkpt>
      <trkpt lat="46.87529" lon="8.46703">
        <ele>2338</ele>
        <time>2021-08-11T14:48:20.189Z</time>
      </trkpt>
      <trkpt lat="46.87529" lon="8.46702">
        <ele>2338</ele>
        <time>2021-08-11T14:48:21.189Z</time>
      </trkpt>
      <trkpt lat="46.87529" lon="8.46702">
        <ele>2338</ele>
        <time>2021-08-11T14:48:22.188Z</time>
      </trkpt>
      <trkpt lat="46.87529" lon="8.46701">
        <ele>2338</ele>
        <time>2021-08-11T14:48:23.189Z</time>
      </trkpt>
      <trkpt lat="46.87528" lon="8.46701">
        <ele>2337</ele>
        <time>2021-08-11T14:48:24.191Z</time>
      </trkpt>
      <trkpt lat="46.87528" lon="8.46702">
        <ele>2337</ele>
        <time>2021-08-11T14:48:25.191Z</time>
      </trkpt>
      <trkpt lat="46.87527" lon="8.46703">
        <ele>2337</ele>
        <time>2021-08-11T14:48:26.191Z</time>
      </trkpt>
      <trkpt lat="46.87527" lon="8.46704">
        <ele>2337</ele>
        <time>2021-08-11T14:48:27.190Z</time>
      </trkpt>
      <trkpt lat="46.87527" lon="8.46704">
        <ele>2337</ele>
        <time>2021-08-11T14:48:28.191Z</time>
      </trkpt>
      <trkpt lat="46.87527" lon="8.46705">
        <ele>2337</ele>
        <time>2021-08-11T14:48:29.190Z</time>
      </trkpt>
      <trkpt lat="46.8752" lon="8.46683">
        <ele>2333</ele>
        <time>2021-08-12T08:18:56.233Z</time>
      </trkpt>
      <trkpt lat="46.8752" lon="8.46683">
        <ele>2333</ele>
        <time>2021-08-12T08:18:56.233Z</time>
      </trkpt>
      <trkpt lat="46.8752" lon="8.46683">
        <ele>2333</ele>
        <time>2021-08-12T08:18:56.233Z</time>
      </trkpt>
      <trkpt lat="46.8752" lon="8.46683">
        <ele>2333</ele>
        <time>2021-08-12T08:18:57.234Z</time>
      </trkpt>
      <trkpt lat="46.87519" lon="8.46683">
        <ele>2334</ele>
        <time>2021-08-12T08:18:58.234Z</time>
      </trkpt>
      <trkpt lat="46.87519" lon="8.46683">
        <ele>2334</ele>
        <time>2021-08-12T08:18:59.234Z</time>
      </trkpt>
      <trkpt lat="46.87519" lon="8.46683">
        <ele>2334</ele>
        <time>2021-08-12T08:19:00.234Z</time>
      </trkpt>
      <trkpt lat="46.87518" lon="8.46683">
        <ele>2335</ele>
        <time>2021-08-12T08:19:01.234Z</time>
      </trkpt>
      <trkpt lat="46.87518" lon="8.46683">
        <ele>2335</ele>
        <time>2021-08-12T08:19:02.234Z</time>
      </trkpt>
      <trkpt lat="46.87517" lon="8.46684">
        <ele>2335</ele>
        <time>2021-08-12T08:19:03.233Z</time>
      </trkpt>
      <trkpt lat="46.87517" lon="8.46684">
        <ele>2335</ele>
        <time>2021-08-12T08:19:04.233Z</time>
      </trkpt>
      <trkpt lat="46.87516" lon="8.46684">
        <ele>2335</ele>
        <time>2021-08-12T08:19:05.234Z</time>
      </trkpt>
      <trkpt lat="46.87516" lon="8.46683">
        <ele>2334</ele>
        <time>2021-08-12T08:19:06.233Z</time>
      </trkpt>
      <trkpt lat="46.87515" lon="8.46683">
        <ele>2334</ele>
        <time>2021-08-12T08:19:07.233Z</time>
      </trkpt>
      <trkpt lat="46.87515" lon="8.46683">
        <ele>2333</ele>
        <time>2021-08-12T08:19:08.233Z</time>
      </trkpt>
      <trkpt lat="46.87514" lon="8.46683">
        <ele>2332</ele>
        <time>2021-08-12T08:19:09.233Z</time>
      </trkpt>
      <trkpt lat="46.87513" lon="8.46682">
        <ele>2332</ele>
        <time>2021-08-12T08:19:10.233Z</time>
      </trkpt>
      <trkpt lat="46.87512" lon="8.46683">
        <ele>2331</ele>
        <time>2021-08-12T08:19:11.233Z</time>
      </trkpt>
      <trkpt lat="46.87512" lon="8.46683">
        <ele>2330</ele>
        <time>2021-08-12T08:19:12.233Z</time>
      </trkpt>
      <trkpt lat="46.87511" lon="8.46683">
        <ele>2330</ele>
        <time>2021-08-12T08:19:13.234Z</time>
      </trkpt>
      <trkpt lat="46.87511" lon="8.46684">
        <ele>2329</ele>
        <time>2021-08-12T08:19:14.234Z</time>
      </trkpt>
      <trkpt lat="46.87511" lon="8.46684">
        <ele>2328</ele>
        <time>2021-08-12T08:19:15.234Z</time>
      </trkpt>
      <trkpt lat="46.87511" lon="8.46684">
        <ele>2327</ele>
        <time>2021-08-12T08:19:16.233Z</time>
      </trkpt>
      <trkpt lat="46.87511" lon="8.46684">
        <ele>2327</ele>
        <time>2021-08-12T08:19:17.233Z</time>
      </trkpt>
      <trkpt lat="46.87511" lon="8.46684">
        <ele>2327</ele>
        <time>2021-08-12T08:19:18.233Z</time>
      </trkpt>
      <trkpt lat="46.87511" lon="8.46685">
        <ele>2327</ele>
        <time>2021-08-12T08:19:19.234Z</time>
      </trkpt>
      <trkpt lat="46.8751" lon="8.46685">
        <ele>2327</ele>
        <time>2021-08-12T08:19:20.234Z</time>
      </trkpt>
      <trkpt lat="46.87509" lon="8.46686">
        <ele>2327</ele>
        <time>2021-08-12T08:19:21.233Z</time>
      </trkpt>
      <trkpt lat="46.87508" lon="8.46686">
        <ele>2328</ele>
        <time>2021-08-12T08:19:22.234Z</time>
      </trkpt>
      <trkpt lat="46.87508" lon="8.46687">
        <ele>2328</ele>
        <time>2021-08-12T08:19:23.234Z</time>
      </trkpt>
      <trkpt lat="46.87507" lon="8.46688">
        <ele>2329</ele>
        <time>2021-08-12T08:19:24.234Z</time>
      </trkpt>
      <trkpt lat="46.87506" lon="8.46688">
        <ele>2329</ele>
        <time>2021-08-12T08:19:25.233Z</time>
      </trkpt>
      <trkpt lat="46.87506" lon="8.46689">
        <ele>2330</ele>
        <time>2021-08-12T08:19:26.234Z</time>
      </trkpt>
      <trkpt lat="46.87505" lon="8.46689">
        <ele>2331</ele>
        <time>2021-08-12T08:19:27.233Z</time>
      </trkpt>
      <trkpt lat="46.87504" lon="8.4669">
        <ele>2331</ele>
        <time>2021-08-12T08:19:28.233Z</time>
      </trkpt>
      <trkpt lat="46.87503" lon="8.4669">
        <ele>2332</ele>
        <time>2021-08-12T08:19:29.234Z</time>
      </trkpt>
      <trkpt lat="46.87502" lon="8.4669">
        <ele>2332</ele>
        <time>2021-08-12T08:19:30.234Z</time>
      </trkpt>
      <trkpt lat="46.87501" lon="8.4669">
        <ele>2332</ele>
        <time>2021-08-12T08:19:31.234Z</time>
      </trkpt>
      <trkpt lat="46.87501" lon="8.46691">
        <ele>2333</ele>
        <time>2021-08-12T08:19:32.234Z</time>
      </trkpt>
      <trkpt lat="46.875" lon="8.46691">
        <ele>2333</ele>
        <time>2021-08-12T08:19:33.234Z</time>
      </trkpt>
      <trkpt lat="46.87499" lon="8.46691">
        <ele>2333</ele>
        <time>2021-08-12T08:19:34.233Z</time>
      </trkpt>
      <trkpt lat="46.87498" lon="8.46692">
        <ele>2333</ele>
        <time>2021-08-12T08:19:35.234Z</time>
      </trkpt>
      <trkpt lat="46.87497" lon="8.46692">
        <ele>2333</ele>
        <time>2021-08-12T08:19:36.234Z</time>
      </trkpt>
      <trkpt lat="46.87497" lon="8.46693">
        <ele>2332</ele>
        <time>2021-08-12T08:19:37.233Z</time>
      </trkpt>
      <trkpt lat="46.87496" lon="8.46694">
        <ele>2332</ele>
        <time>2021-08-12T08:19:38.233Z</time>
      </trkpt>
      <trkpt lat="46.87495" lon="8.46694">
        <ele>2331</ele>
        <time>2021-08-12T08:19:39.234Z</time>
      </trkpt>
      <trkpt lat="46.87494" lon="8.46695">
        <ele>2331</ele>
        <time>2021-08-12T08:19:40.234Z</time>
      </trkpt>
      <trkpt lat="46.87494" lon="8.46695">
        <ele>2330</ele>
        <time>2021-08-12T08:19:41.234Z</time>
      </trkpt>
      <trkpt lat="46.87494" lon="8.46695">
        <ele>2329</ele>
        <time>2021-08-12T08:19:42.234Z</time>
      </trkpt>
      <trkpt lat="46.87494" lon="8.46694">
        <ele>2329</ele>
        <time>2021-08-12T08:19:43.234Z</time>
      </trkpt>
      <trkpt lat="46.87493" lon="8.46693">
        <ele>2329</ele>
        <time>2021-08-12T08:19:44.234Z</time>
      </trkpt>
      <trkpt lat="46.87493" lon="8.46693">
        <ele>2329</ele>
        <time>2021-08-12T08:19:45.234Z</time>
      </trkpt>
      <trkpt lat="46.87492" lon="8.46693">
        <ele>2329</ele>
        <time>2021-08-12T08:19:46.234Z</time>
      </trkpt>
      <trkpt lat="46.87492" lon="8.46693">
        <ele>2329</ele>
        <time>2021-08-12T08:19:47.234Z</time>
      </trkpt>
      <trkpt lat="46.87491" lon="8.46694">
        <ele>2329</ele>
        <time>2021-08-12T08:19:48.234Z</time>
      </trkpt>
      <trkpt lat="46.87491" lon="8.46694">
        <ele>2329</ele>
        <time>2021-08-12T08:19:49.234Z</time>
      </trkpt>
      <trkpt lat="46.87491" lon="8.46694">
        <ele>2329</ele>
        <time>2021-08-12T08:19:50.233Z</time>
      </trkpt>
      <trkpt lat="46.8749" lon="8.46694">
        <ele>2328</ele>
        <time>2021-08-12T08:19:51.234Z</time>
      </trkpt>
      <trkpt lat="46.87489" lon="8.46693">
        <ele>2328</ele>
        <time>2021-08-12T08:19:52.234Z</time>
      </trkpt>
      <trkpt lat="46.87489" lon="8.46693">
        <ele>2328</ele>
        <time>2021-08-12T08:19:53.234Z</time>
      </trkpt>
      <trkpt lat="46.87488" lon="8.46693">
        <ele>2328</ele>
        <time>2021-08-12T08:19:54.234Z</time>
      </trkpt>
      <trkpt lat="46.87487" lon="8.46692">
        <ele>2327</ele>
        <time>2021-08-12T08:19:55.234Z</time>
      </trkpt>
      <trkpt lat="46.87486" lon="8.46692">
        <ele>2327</ele>
        <time>2021-08-12T08:19:56.234Z</time>
      </trkpt>
      <trkpt lat="46.87486" lon="8.46692">
        <ele>2327</ele>
        <time>2021-08-12T08:19:57.233Z</time>
      </trkpt>
      <trkpt lat="46.87485" lon="8.46692">
        <ele>2327</ele>
        <time>2021-08-12T08:19:58.233Z</time>
      </trkpt>
      <trkpt lat="46.87484" lon="8.46692">
        <ele>2326</ele>
        <time>2021-08-12T08:19:59.234Z</time>
      </trkpt>
      <trkpt lat="46.87484" lon="8.46692">
        <ele>2326</ele>
        <time>2021-08-12T08:20:00.234Z</time>
      </trkpt>
      <trkpt lat="46.87484" lon="8.46693">
        <ele>2325</ele>
        <time>2021-08-12T08:20:01.233Z</time>
      </trkpt>
      <trkpt lat="46.87483" lon="8.46693">
        <ele>2325</ele>
        <time>2021-08-12T08:20:02.234Z</time>
      </trkpt>
      <trkpt lat="46.87482" lon="8.46693">
        <ele>2324</ele>
        <time>2021-08-12T08:20:03.234Z</time>
      </trkpt>
      <trkpt lat="46.87482" lon="8.46693">
        <ele>2324</ele>
        <time>2021-08-12T08:20:04.233Z</time>
      </trkpt>
      <trkpt lat="46.87481" lon="8.46693">
        <ele>2324</ele>
        <time>2021-08-12T08:20:05.233Z</time>
      </trkpt>
      <trkpt lat="46.87481" lon="8.46693">
        <ele>2325</ele>
        <time>2021-08-12T08:20:06.233Z</time>
      </trkpt>
      <trkpt lat="46.8748" lon="8.46693">
        <ele>2325</ele>
        <time>2021-08-12T08:20:07.233Z</time>
      </trkpt>
      <trkpt lat="46.8748" lon="8.46694">
        <ele>2325</ele>
        <time>2021-08-12T08:20:08.234Z</time>
      </trkpt>
      <trkpt lat="46.87479" lon="8.46694">
        <ele>2325</ele>
        <time>2021-08-12T08:20:09.233Z</time>
      </trkpt>
      <trkpt lat="46.87478" lon="8.46694">
        <ele>2325</ele>
        <time>2021-08-12T08:20:10.234Z</time>
      </trkpt>
      <trkpt lat="46.87477" lon="8.46694">
        <ele>2325</ele>
        <time>2021-08-12T08:20:11.234Z</time>
      </trkpt>
      <trkpt lat="46.87476" lon="8.46694">
        <ele>2325</ele>
        <time>2021-08-12T08:20:12.233Z</time>
      </trkpt>
      <trkpt lat="46.87475" lon="8.46695">
        <ele>2324</ele>
        <time>2021-08-12T08:20:13.233Z</time>
      </trkpt>
      <trkpt lat="46.87474" lon="8.46696">
        <ele>2323</ele>
        <time>2021-08-12T08:20:14.234Z</time>
      </trkpt>
      <trkpt lat="46.87473" lon="8.46697">
        <ele>2323</ele>
        <time>2021-08-12T08:20:15.233Z</time>
      </trkpt>
      <trkpt lat="46.87472" lon="8.46698">
        <ele>2323</ele>
        <time>2021-08-12T08:20:16.233Z</time>
      </trkpt>
      <trkpt lat="46.87471" lon="8.467">
        <ele>2322</ele>
        <time>2021-08-12T08:20:17.234Z</time>
      </trkpt>
      <trkpt lat="46.87471" lon="8.46701">
        <ele>2322</ele>
        <time>2021-08-12T08:20:18.233Z</time>
      </trkpt>
      <trkpt lat="46.8747" lon="8.46703">
        <ele>2322</ele>
        <time>2021-08-12T08:20:19.233Z</time>
      </trkpt>
      <trkpt lat="46.87469" lon="8.46704">
        <ele>2322</ele>
        <time>2021-08-12T08:20:20.234Z</time>
      </trkpt>
      <trkpt lat="46.87469" lon="8.46705">
        <ele>2322</ele>
        <time>2021-08-12T08:20:21.233Z</time>
      </trkpt>
      <trkpt lat="46.87468" lon="8.46705">
        <ele>2322</ele>
        <time>2021-08-12T08:20:22.233Z</time>
      </trkpt>
      <trkpt lat="46.87467" lon="8.46707">
        <ele>2322</ele>
        <time>2021-08-12T08:20:23.233Z</time>
      </trkpt>
      <trkpt lat="46.87466" lon="8.46708">
        <ele>2322</ele>
        <time>2021-08-12T08:20:24.233Z</time>
      </trkpt>
      <trkpt lat="46.87465" lon="8.4671">
        <ele>2322</ele>
        <time>2021-08-12T08:20:25.233Z</time>
      </trkpt>
      <trkpt lat="46.87465" lon="8.4671">
        <ele>2322</ele>
        <time>2021-08-12T08:20:26.233Z</time>
      </trkpt>
      <trkpt lat="46.87464" lon="8.46711">
        <ele>2322</ele>
        <time>2021-08-12T08:20:27.233Z</time>
      </trkpt>
      <trkpt lat="46.87463" lon="8.46712">
        <ele>2322</ele>
        <time>2021-08-12T08:20:28.234Z</time>
      </trkpt>
      <trkpt lat="46.87462" lon="8.46713">
        <ele>2322</ele>
        <time>2021-08-12T08:20:29.233Z</time>
      </trkpt>
      <trkpt lat="46.87462" lon="8.46715">
        <ele>2321</ele>
        <time>2021-08-12T08:20:30.233Z</time>
      </trkpt>
      <trkpt lat="46.87461" lon="8.46716">
        <ele>2321</ele>
        <time>2021-08-12T08:20:31.234Z</time>
      </trkpt>
      <trkpt lat="46.87461" lon="8.46717">
        <ele>2320</ele>
        <time>2021-08-12T08:20:32.233Z</time>
      </trkpt>
      <trkpt lat="46.8746" lon="8.46717">
        <ele>2320</ele>
        <time>2021-08-12T08:20:33.234Z</time>
      </trkpt>
      <trkpt lat="46.8746" lon="8.46718">
        <ele>2320</ele>
        <time>2021-08-12T08:20:34.234Z</time>
      </trkpt>
      <trkpt lat="46.87459" lon="8.46718">
        <ele>2319</ele>
        <time>2021-08-12T08:20:35.234Z</time>
      </trkpt>
      <trkpt lat="46.87459" lon="8.46718">
        <ele>2319</ele>
        <time>2021-08-12T08:20:36.233Z</time>
      </trkpt>
      <trkpt lat="46.87458" lon="8.46718">
        <ele>2319</ele>
        <time>2021-08-12T08:20:37.234Z</time>
      </trkpt>
      <trkpt lat="46.87458" lon="8.46717">
        <ele>2319</ele>
        <time>2021-08-12T08:20:38.234Z</time>
      </trkpt>
      <trkpt lat="46.87458" lon="8.46717">
        <ele>2318</ele>
        <time>2021-08-12T08:20:39.234Z</time>
      </trkpt>
      <trkpt lat="46.87457" lon="8.46716">
        <ele>2318</ele>
        <time>2021-08-12T08:20:40.234Z</time>
      </trkpt>
      <trkpt lat="46.87457" lon="8.46716">
        <ele>2318</ele>
        <time>2021-08-12T08:20:41.234Z</time>
      </trkpt>
      <trkpt lat="46.87457" lon="8.46716">
        <ele>2318</ele>
        <time>2021-08-12T08:20:42.233Z</time>
      </trkpt>
      <trkpt lat="46.87456" lon="8.46715">
        <ele>2318</ele>
        <time>2021-08-12T08:20:43.234Z</time>
      </trkpt>
      <trkpt lat="46.87456" lon="8.46714">
        <ele>2318</ele>
        <time>2021-08-12T08:20:44.234Z</time>
      </trkpt>
      <trkpt lat="46.87455" lon="8.46712">
        <ele>2319</ele>
        <time>2021-08-12T08:20:45.233Z</time>
      </trkpt>
      <trkpt lat="46.87454" lon="8.46711">
        <ele>2319</ele>
        <time>2021-08-12T08:20:46.234Z</time>
      </trkpt>
      <trkpt lat="46.87453" lon="8.46711">
        <ele>2319</ele>
        <time>2021-08-12T08:20:47.234Z</time>
      </trkpt>
      <trkpt lat="46.87453" lon="8.4671">
        <ele>2319</ele>
        <time>2021-08-12T08:20:48.233Z</time>
      </trkpt>
      <trkpt lat="46.87452" lon="8.4671">
        <ele>2319</ele>
        <time>2021-08-12T08:20:49.234Z</time>
      </trkpt>
      <trkpt lat="46.87452" lon="8.4671">
        <ele>2319</ele>
        <time>2021-08-12T08:20:50.234Z</time>
      </trkpt>
      <trkpt lat="46.87451" lon="8.4671">
        <ele>2319</ele>
        <time>2021-08-12T08:20:51.234Z</time>
      </trkpt>
      <trkpt lat="46.8745" lon="8.4671">
        <ele>2319</ele>
        <time>2021-08-12T08:20:52.233Z</time>
      </trkpt>
      <trkpt lat="46.87449" lon="8.4671">
        <ele>2320</ele>
        <time>2021-08-12T08:20:53.234Z</time>
      </trkpt>
      <trkpt lat="46.87448" lon="8.4671">
        <ele>2319</ele>
        <time>2021-08-12T08:20:54.234Z</time>
      </trkpt>
      <trkpt lat="46.87448" lon="8.46711">
        <ele>2319</ele>
        <time>2021-08-12T08:20:55.233Z</time>
      </trkpt>
      <trkpt lat="46.87447" lon="8.46711">
        <ele>2319</ele>
        <time>2021-08-12T08:20:56.234Z</time>
      </trkpt>
      <trkpt lat="46.87446" lon="8.46711">
        <ele>2319</ele>
        <time>2021-08-12T08:20:57.234Z</time>
      </trkpt>
      <trkpt lat="46.87446" lon="8.46711">
        <ele>2318</ele>
        <time>2021-08-12T08:20:58.233Z</time>
      </trkpt>
      <trkpt lat="46.87445" lon="8.46712">
        <ele>2318</ele>
        <time>2021-08-12T08:20:59.234Z</time>
      </trkpt>
      <trkpt lat="46.87444" lon="8.46712">
        <ele>2317</ele>
        <time>2021-08-12T08:21:00.233Z</time>
      </trkpt>
      <trkpt lat="46.87443" lon="8.46712">
        <ele>2317</ele>
        <time>2021-08-12T08:21:01.234Z</time>
      </trkpt>
      <trkpt lat="46.87442" lon="8.46713">
        <ele>2317</ele>
        <time>2021-08-12T08:21:02.234Z</time>
      </trkpt>
      <trkpt lat="46.87441" lon="8.46713">
        <ele>2316</ele>
        <time>2021-08-12T08:21:03.233Z</time>
      </trkpt>
      <trkpt lat="46.8744" lon="8.46712">
        <ele>2316</ele>
        <time>2021-08-12T08:21:04.234Z</time>
      </trkpt>
      <trkpt lat="46.87439" lon="8.46712">
        <ele>2315</ele>
        <time>2021-08-12T08:21:05.234Z</time>
      </trkpt>
      <trkpt lat="46.87437" lon="8.46712">
        <ele>2315</ele>
        <time>2021-08-12T08:21:06.234Z</time>
      </trkpt>
      <trkpt lat="46.87435" lon="8.46712">
        <ele>2314</ele>
        <time>2021-08-12T08:21:07.234Z</time>
      </trkpt>
      <trkpt lat="46.87435" lon="8.46711">
        <ele>2314</ele>
        <time>2021-08-12T08:21:08.233Z</time>
      </trkpt>
      <trkpt lat="46.87434" lon="8.46711">
        <ele>2314</ele>
        <time>2021-08-12T08:21:09.234Z</time>
      </trkpt>
      <trkpt lat="46.87434" lon="8.46711">
        <ele>2313</ele>
        <time>2021-08-12T08:21:10.233Z</time>
      </trkpt>
      <trkpt lat="46.87433" lon="8.46711">
        <ele>2313</ele>
        <time>2021-08-12T08:21:11.233Z</time>
      </trkpt>
      <trkpt lat="46.87432" lon="8.46712">
        <ele>2312</ele>
        <time>2021-08-12T08:21:12.234Z</time>
      </trkpt>
      <trkpt lat="46.87431" lon="8.46712">
        <ele>2312</ele>
        <time>2021-08-12T08:21:13.234Z</time>
      </trkpt>
      <trkpt lat="46.87429" lon="8.46711">
        <ele>2311</ele>
        <time>2021-08-12T08:21:14.234Z</time>
      </trkpt>
      <trkpt lat="46.87428" lon="8.46711">
        <ele>2311</ele>
        <time>2021-08-12T08:21:15.234Z</time>
      </trkpt>
      <trkpt lat="46.87428" lon="8.46711">
        <ele>2310</ele>
        <time>2021-08-12T08:21:16.234Z</time>
      </trkpt>
      <trkpt lat="46.87427" lon="8.46711">
        <ele>2310</ele>
        <time>2021-08-12T08:21:17.233Z</time>
      </trkpt>
      <trkpt lat="46.87427" lon="8.46711">
        <ele>2310</ele>
        <time>2021-08-12T08:21:18.234Z</time>
      </trkpt>
      <trkpt lat="46.87426" lon="8.46711">
        <ele>2310</ele>
        <time>2021-08-12T08:21:19.234Z</time>
      </trkpt>
      <trkpt lat="46.87426" lon="8.4671">
        <ele>2310</ele>
        <time>2021-08-12T08:21:20.234Z</time>
      </trkpt>
      <trkpt lat="46.87425" lon="8.4671">
        <ele>2310</ele>
        <time>2021-08-12T08:21:21.233Z</time>
      </trkpt>
      <trkpt lat="46.87424" lon="8.4671">
        <ele>2310</ele>
        <time>2021-08-12T08:21:22.234Z</time>
      </trkpt>
      <trkpt lat="46.87423" lon="8.46709">
        <ele>2310</ele>
        <time>2021-08-12T08:21:23.234Z</time>
      </trkpt>
      <trkpt lat="46.87423" lon="8.46709">
        <ele>2310</ele>
        <time>2021-08-12T08:21:24.234Z</time>
      </trkpt>
      <trkpt lat="46.87422" lon="8.46709">
        <ele>2310</ele>
        <time>2021-08-12T08:21:25.233Z</time>
      </trkpt>
      <trkpt lat="46.87422" lon="8.46709">
        <ele>2310</ele>
        <time>2021-08-12T08:21:26.233Z</time>
      </trkpt>
      <trkpt lat="46.87421" lon="8.46708">
        <ele>2310</ele>
        <time>2021-08-12T08:21:27.233Z</time>
      </trkpt>
      <trkpt lat="46.8742" lon="8.46709">
        <ele>2310</ele>
        <time>2021-08-12T08:21:28.234Z</time>
      </trkpt>
      <trkpt lat="46.8742" lon="8.46709">
        <ele>2310</ele>
        <time>2021-08-12T08:21:29.234Z</time>
      </trkpt>
      <trkpt lat="46.87421" lon="8.4671">
        <ele>2313</ele>
        <time>2021-08-12T08:21:30.234Z</time>
      </trkpt>
      <trkpt lat="46.87421" lon="8.4671">
        <ele>2313</ele>
        <time>2021-08-12T08:21:31.235Z</time>
      </trkpt>
      <trkpt lat="46.87419" lon="8.46711">
        <ele>2312</ele>
        <time>2021-08-12T08:21:32.236Z</time>
      </trkpt>
      <trkpt lat="46.87419" lon="8.46711">
        <ele>2312</ele>
        <time>2021-08-12T08:21:33.235Z</time>
      </trkpt>
      <trkpt lat="46.87419" lon="8.46712">
        <ele>2312</ele>
        <time>2021-08-12T08:21:34.236Z</time>
      </trkpt>
      <trkpt lat="46.87419" lon="8.46713">
        <ele>2313</ele>
        <time>2021-08-12T08:21:35.235Z</time>
      </trkpt>
      <trkpt lat="46.87418" lon="8.46713">
        <ele>2312</ele>
        <time>2021-08-12T08:21:36.236Z</time>
      </trkpt>
      <trkpt lat="46.87418" lon="8.46714">
        <ele>2312</ele>
        <time>2021-08-12T08:21:37.237Z</time>
      </trkpt>
      <trkpt lat="46.87417" lon="8.46715">
        <ele>2312</ele>
        <time>2021-08-12T08:21:38.236Z</time>
      </trkpt>
      <trkpt lat="46.87416" lon="8.46714">
        <ele>2312</ele>
        <time>2021-08-12T08:21:39.236Z</time>
      </trkpt>
      <trkpt lat="46.87416" lon="8.46715">
        <ele>2313</ele>
        <time>2021-08-12T08:21:40.237Z</time>
      </trkpt>
      <trkpt lat="46.87415" lon="8.46716">
        <ele>2312</ele>
        <time>2021-08-12T08:21:41.237Z</time>
      </trkpt>
      <trkpt lat="46.87414" lon="8.46716">
        <ele>2313</ele>
        <time>2021-08-12T08:21:42.236Z</time>
      </trkpt>
      <trkpt lat="46.87413" lon="8.46717">
        <ele>2312</ele>
        <time>2021-08-12T08:21:43.236Z</time>
      </trkpt>
      <trkpt lat="46.87413" lon="8.46717">
        <ele>2312</ele>
        <time>2021-08-12T08:21:44.237Z</time>
      </trkpt>
      <trkpt lat="46.87412" lon="8.46718">
        <ele>2312</ele>
        <time>2021-08-12T08:21:45.236Z</time>
      </trkpt>
      <trkpt lat="46.87411" lon="8.46718">
        <ele>2312</ele>
        <time>2021-08-12T08:21:46.236Z</time>
      </trkpt>
      <trkpt lat="46.87411" lon="8.46718">
        <ele>2312</ele>
        <time>2021-08-12T08:21:47.237Z</time>
      </trkpt>
      <trkpt lat="46.8741" lon="8.46718">
        <ele>2311</ele>
        <time>2021-08-12T08:21:48.236Z</time>
      </trkpt>
      <trkpt lat="46.87409" lon="8.46719">
        <ele>2312</ele>
        <time>2021-08-12T08:21:49.237Z</time>
      </trkpt>
      <trkpt lat="46.87409" lon="8.46719">
        <ele>2312</ele>
        <time>2021-08-12T08:21:50.237Z</time>
      </trkpt>
      <trkpt lat="46.87408" lon="8.4672">
        <ele>2313</ele>
        <time>2021-08-12T08:21:51.237Z</time>
      </trkpt>
      <trkpt lat="46.87408" lon="8.46721">
        <ele>2313</ele>
        <time>2021-08-12T08:21:52.237Z</time>
      </trkpt>
      <trkpt lat="46.87407" lon="8.46721">
        <ele>2313</ele>
        <time>2021-08-12T08:21:53.236Z</time>
      </trkpt>
      <trkpt lat="46.87406" lon="8.46721">
        <ele>2314</ele>
        <time>2021-08-12T08:21:54.237Z</time>
      </trkpt>
      <trkpt lat="46.87406" lon="8.4672">
        <ele>2314</ele>
        <time>2021-08-12T08:21:55.237Z</time>
      </trkpt>
      <trkpt lat="46.87405" lon="8.4672">
        <ele>2314</ele>
        <time>2021-08-12T08:21:56.236Z</time>
      </trkpt>
      <trkpt lat="46.87405" lon="8.4672">
        <ele>2314</ele>
        <time>2021-08-12T08:21:57.237Z</time>
      </trkpt>
      <trkpt lat="46.87404" lon="8.4672">
        <ele>2315</ele>
        <time>2021-08-12T08:21:58.237Z</time>
      </trkpt>
      <trkpt lat="46.87403" lon="8.46719">
        <ele>2315</ele>
        <time>2021-08-12T08:21:59.237Z</time>
      </trkpt>
      <trkpt lat="46.87402" lon="8.46719">
        <ele>2316</ele>
        <time>2021-08-12T08:22:00.236Z</time>
      </trkpt>
      <trkpt lat="46.87401" lon="8.4672">
        <ele>2317</ele>
        <time>2021-08-12T08:22:01.236Z</time>
      </trkpt>
      <trkpt lat="46.87401" lon="8.4672">
        <ele>2317</ele>
        <time>2021-08-12T08:22:02.237Z</time>
      </trkpt>
      <trkpt lat="46.874" lon="8.46721">
        <ele>2317</ele>
        <time>2021-08-12T08:22:03.237Z</time>
      </trkpt>
      <trkpt lat="46.874" lon="8.46722">
        <ele>2317</ele>
        <time>2021-08-12T08:22:04.237Z</time>
      </trkpt>
      <trkpt lat="46.87399" lon="8.46722">
        <ele>2317</ele>
        <time>2021-08-12T08:22:05.237Z</time>
      </trkpt>
      <trkpt lat="46.874" lon="8.46723">
        <ele>2317</ele>
        <time>2021-08-12T08:22:06.237Z</time>
      </trkpt>
      <trkpt lat="46.874" lon="8.46724">
        <ele>2317</ele>
        <time>2021-08-12T08:22:07.237Z</time>
      </trkpt>
      <trkpt lat="46.874" lon="8.46724">
        <ele>2317</ele>
        <time>2021-08-12T08:22:08.237Z</time>
      </trkpt>
      <trkpt lat="46.87399" lon="8.46725">
        <ele>2317</ele>
        <time>2021-08-12T08:22:09.238Z</time>
      </trkpt>
      <trkpt lat="46.87399" lon="8.46726">
        <ele>2317</ele>
        <time>2021-08-12T08:22:10.237Z</time>
      </trkpt>
      <trkpt lat="46.87399" lon="8.46725">
        <ele>2317</ele>
        <time>2021-08-12T08:22:11.237Z</time>
      </trkpt>
      <trkpt lat="46.87397" lon="8.46724">
        <ele>2318</ele>
        <time>2021-08-12T08:22:12.238Z</time>
      </trkpt>
      <trkpt lat="46.87397" lon="8.46724">
        <ele>2318</ele>
        <time>2021-08-12T08:22:13.238Z</time>
      </trkpt>
      <trkpt lat="46.87397" lon="8.46725">
        <ele>2318</ele>
        <time>2021-08-12T08:22:14.238Z</time>
      </trkpt>
      <trkpt lat="46.87396" lon="8.46725">
        <ele>2318</ele>
        <time>2021-08-12T08:22:15.238Z</time>
      </trkpt>
      <trkpt lat="46.87396" lon="8.46726">
        <ele>2318</ele>
        <time>2021-08-12T08:22:16.237Z</time>
      </trkpt>
      <trkpt lat="46.87395" lon="8.46727">
        <ele>2318</ele>
        <time>2021-08-12T08:22:17.238Z</time>
      </trkpt>
      <trkpt lat="46.87395" lon="8.46727">
        <ele>2318</ele>
        <time>2021-08-12T08:22:18.238Z</time>
      </trkpt>
      <trkpt lat="46.87394" lon="8.46728">
        <ele>2318</ele>
        <time>2021-08-12T08:22:19.237Z</time>
      </trkpt>
      <trkpt lat="46.87393" lon="8.46728">
        <ele>2318</ele>
        <time>2021-08-12T08:22:20.238Z</time>
      </trkpt>
      <trkpt lat="46.87393" lon="8.46729">
        <ele>2317</ele>
        <time>2021-08-12T08:22:21.237Z</time>
      </trkpt>
      <trkpt lat="46.87392" lon="8.46729">
        <ele>2317</ele>
        <time>2021-08-12T08:22:22.238Z</time>
      </trkpt>
      <trkpt lat="46.87391" lon="8.4673">
        <ele>2317</ele>
        <time>2021-08-12T08:22:23.238Z</time>
      </trkpt>
      <trkpt lat="46.87391" lon="8.46731">
        <ele>2317</ele>
        <time>2021-08-12T08:22:24.238Z</time>
      </trkpt>
      <trkpt lat="46.8739" lon="8.46733">
        <ele>2317</ele>
        <time>2021-08-12T08:22:25.237Z</time>
      </trkpt>
      <trkpt lat="46.8739" lon="8.46733">
        <ele>2318</ele>
        <time>2021-08-12T08:22:26.237Z</time>
      </trkpt>
      <trkpt lat="46.8739" lon="8.46734">
        <ele>2318</ele>
        <time>2021-08-12T08:22:27.237Z</time>
      </trkpt>
      <trkpt lat="46.8739" lon="8.46734">
        <ele>2318</ele>
        <time>2021-08-12T08:22:28.238Z</time>
      </trkpt>
      <trkpt lat="46.87389" lon="8.46735">
        <ele>2316</ele>
        <time>2021-08-12T08:22:29.239Z</time>
      </trkpt>
      <trkpt lat="46.87389" lon="8.46735">
        <ele>2317</ele>
        <time>2021-08-12T08:22:30.238Z</time>
      </trkpt>
      <trkpt lat="46.87388" lon="8.46736">
        <ele>2316</ele>
        <time>2021-08-12T08:22:31.238Z</time>
      </trkpt>
      <trkpt lat="46.87388" lon="8.46736">
        <ele>2316</ele>
        <time>2021-08-12T08:22:32.238Z</time>
      </trkpt>
      <trkpt lat="46.87387" lon="8.46737">
        <ele>2315</ele>
        <time>2021-08-12T08:22:33.239Z</time>
      </trkpt>
      <trkpt lat="46.87387" lon="8.46737">
        <ele>2315</ele>
        <time>2021-08-12T08:22:34.239Z</time>
      </trkpt>
      <trkpt lat="46.87387" lon="8.46738">
        <ele>2315</ele>
        <time>2021-08-12T08:22:35.238Z</time>
      </trkpt>
      <trkpt lat="46.87386" lon="8.46738">
        <ele>2315</ele>
        <time>2021-08-12T08:22:36.239Z</time>
      </trkpt>
      <trkpt lat="46.87386" lon="8.46737">
        <ele>2315</ele>
        <time>2021-08-12T08:22:37.239Z</time>
      </trkpt>
      <trkpt lat="46.87386" lon="8.46737">
        <ele>2315</ele>
        <time>2021-08-12T08:22:38.239Z</time>
      </trkpt>
      <trkpt lat="46.87385" lon="8.46738">
        <ele>2314</ele>
        <time>2021-08-12T08:22:39.239Z</time>
      </trkpt>
      <trkpt lat="46.87385" lon="8.46739">
        <ele>2313</ele>
        <time>2021-08-12T08:22:40.238Z</time>
      </trkpt>
      <trkpt lat="46.87384" lon="8.46739">
        <ele>2313</ele>
        <time>2021-08-12T08:22:41.238Z</time>
      </trkpt>
      <trkpt lat="46.87384" lon="8.46741">
        <ele>2311</ele>
        <time>2021-08-12T08:22:42.238Z</time>
      </trkpt>
      <trkpt lat="46.87384" lon="8.46742">
        <ele>2311</ele>
        <time>2021-08-12T08:22:43.238Z</time>
      </trkpt>
      <trkpt lat="46.87384" lon="8.46742">
        <ele>2311</ele>
        <time>2021-08-12T08:22:44.238Z</time>
      </trkpt>
      <trkpt lat="46.87383" lon="8.46742">
        <ele>2311</ele>
        <time>2021-08-12T08:22:45.238Z</time>
      </trkpt>
      <trkpt lat="46.87383" lon="8.46743">
        <ele>2311</ele>
        <time>2021-08-12T08:22:46.238Z</time>
      </trkpt>
      <trkpt lat="46.87382" lon="8.46744">
        <ele>2311</ele>
        <time>2021-08-12T08:22:47.238Z</time>
      </trkpt>
      <trkpt lat="46.87382" lon="8.46744">
        <ele>2311</ele>
        <time>2021-08-12T08:22:48.238Z</time>
      </trkpt>
      <trkpt lat="46.87381" lon="8.46745">
        <ele>2311</ele>
        <time>2021-08-12T08:22:49.238Z</time>
      </trkpt>
      <trkpt lat="46.87381" lon="8.46745">
        <ele>2311</ele>
        <time>2021-08-12T08:22:50.238Z</time>
      </trkpt>
      <trkpt lat="46.8738" lon="8.46746">
        <ele>2311</ele>
        <time>2021-08-12T08:22:51.239Z</time>
      </trkpt>
      <trkpt lat="46.87379" lon="8.46746">
        <ele>2311</ele>
        <time>2021-08-12T08:22:52.239Z</time>
      </trkpt>
      <trkpt lat="46.87379" lon="8.46746">
        <ele>2311</ele>
        <time>2021-08-12T08:22:53.239Z</time>
      </trkpt>
      <trkpt lat="46.87378" lon="8.46747">
        <ele>2311</ele>
        <time>2021-08-12T08:22:54.239Z</time>
      </trkpt>
      <trkpt lat="46.87378" lon="8.46747">
        <ele>2311</ele>
        <time>2021-08-12T08:22:55.239Z</time>
      </trkpt>
      <trkpt lat="46.87377" lon="8.46748">
        <ele>2311</ele>
        <time>2021-08-12T08:22:56.239Z</time>
      </trkpt>
      <trkpt lat="46.87377" lon="8.46749">
        <ele>2312</ele>
        <time>2021-08-12T08:22:57.238Z</time>
      </trkpt>
      <trkpt lat="46.87376" lon="8.46749">
        <ele>2312</ele>
        <time>2021-08-12T08:22:58.239Z</time>
      </trkpt>
      <trkpt lat="46.87375" lon="8.4675">
        <ele>2312</ele>
        <time>2021-08-12T08:22:59.239Z</time>
      </trkpt>
      <trkpt lat="46.87375" lon="8.4675">
        <ele>2312</ele>
        <time>2021-08-12T08:23:00.239Z</time>
      </trkpt>
      <trkpt lat="46.87374" lon="8.46751">
        <ele>2313</ele>
        <time>2021-08-12T08:23:01.239Z</time>
      </trkpt>
      <trkpt lat="46.87374" lon="8.46752">
        <ele>2313</ele>
        <time>2021-08-12T08:23:02.239Z</time>
      </trkpt>
      <trkpt lat="46.87373" lon="8.46754">
        <ele>2313</ele>
        <time>2021-08-12T08:23:03.238Z</time>
      </trkpt>
      <trkpt lat="46.87372" lon="8.46755">
        <ele>2312</ele>
        <time>2021-08-12T08:23:04.239Z</time>
      </trkpt>
      <trkpt lat="46.87372" lon="8.46755">
        <ele>2312</ele>
        <time>2021-08-12T08:23:05.238Z</time>
      </trkpt>
      <trkpt lat="46.87371" lon="8.46756">
        <ele>2312</ele>
        <time>2021-08-12T08:23:06.238Z</time>
      </trkpt>
      <trkpt lat="46.8737" lon="8.46757">
        <ele>2311</ele>
        <time>2021-08-12T08:23:07.238Z</time>
      </trkpt>
      <trkpt lat="46.8737" lon="8.46758">
        <ele>2311</ele>
        <time>2021-08-12T08:23:08.238Z</time>
      </trkpt>
      <trkpt lat="46.87369" lon="8.46758">
        <ele>2310</ele>
        <time>2021-08-12T08:23:09.239Z</time>
      </trkpt>
      <trkpt lat="46.87368" lon="8.46759">
        <ele>2310</ele>
        <time>2021-08-12T08:23:10.239Z</time>
      </trkpt>
      <trkpt lat="46.87368" lon="8.46759">
        <ele>2310</ele>
        <time>2021-08-12T08:23:11.239Z</time>
      </trkpt>
      <trkpt lat="46.87367" lon="8.46759">
        <ele>2309</ele>
        <time>2021-08-12T08:23:12.238Z</time>
      </trkpt>
      <trkpt lat="46.87367" lon="8.4676">
        <ele>2309</ele>
        <time>2021-08-12T08:23:13.238Z</time>
      </trkpt>
      <trkpt lat="46.87366" lon="8.46761">
        <ele>2309</ele>
        <time>2021-08-12T08:23:14.238Z</time>
      </trkpt>
      <trkpt lat="46.87366" lon="8.46762">
        <ele>2309</ele>
        <time>2021-08-12T08:23:15.239Z</time>
      </trkpt>
      <trkpt lat="46.87365" lon="8.46762">
        <ele>2308</ele>
        <time>2021-08-12T08:23:16.238Z</time>
      </trkpt>
      <trkpt lat="46.87365" lon="8.46762">
        <ele>2308</ele>
        <time>2021-08-12T08:23:17.238Z</time>
      </trkpt>
      <trkpt lat="46.87364" lon="8.46762">
        <ele>2308</ele>
        <time>2021-08-12T08:23:18.238Z</time>
      </trkpt>
      <trkpt lat="46.87364" lon="8.46763">
        <ele>2309</ele>
        <time>2021-08-12T08:23:19.238Z</time>
      </trkpt>
      <trkpt lat="46.87363" lon="8.46763">
        <ele>2308</ele>
        <time>2021-08-12T08:23:20.238Z</time>
      </trkpt>
      <trkpt lat="46.87363" lon="8.46762">
        <ele>2309</ele>
        <time>2021-08-12T08:23:21.238Z</time>
      </trkpt>
      <trkpt lat="46.87363" lon="8.46762">
        <ele>2309</ele>
        <time>2021-08-12T08:23:22.238Z</time>
      </trkpt>
      <trkpt lat="46.87363" lon="8.46762">
        <ele>2309</ele>
        <time>2021-08-12T08:23:23.238Z</time>
      </trkpt>
      <trkpt lat="46.87362" lon="8.46761">
        <ele>2309</ele>
        <time>2021-08-12T08:23:24.238Z</time>
      </trkpt>
      <trkpt lat="46.87362" lon="8.4676">
        <ele>2309</ele>
        <time>2021-08-12T08:23:25.239Z</time>
      </trkpt>
      <trkpt lat="46.87362" lon="8.46759">
        <ele>2309</ele>
        <time>2021-08-12T08:23:26.238Z</time>
      </trkpt>
      <trkpt lat="46.87362" lon="8.46759">
        <ele>2310</ele>
        <time>2021-08-12T08:23:27.238Z</time>
      </trkpt>
      <trkpt lat="46.87362" lon="8.46759">
        <ele>2310</ele>
        <time>2021-08-12T08:23:28.238Z</time>
      </trkpt>
      <trkpt lat="46.87361" lon="8.46759">
        <ele>2310</ele>
        <time>2021-08-12T08:23:29.238Z</time>
      </trkpt>
      <trkpt lat="46.8736" lon="8.46759">
        <ele>2310</ele>
        <time>2021-08-12T08:23:30.238Z</time>
      </trkpt>
      <trkpt lat="46.8736" lon="8.46759">
        <ele>2310</ele>
        <time>2021-08-12T08:23:31.238Z</time>
      </trkpt>
      <trkpt lat="46.87359" lon="8.46759">
        <ele>2310</ele>
        <time>2021-08-12T08:23:32.238Z</time>
      </trkpt>
      <trkpt lat="46.87359" lon="8.4676">
        <ele>2310</ele>
        <time>2021-08-12T08:23:33.238Z</time>
      </trkpt>
      <trkpt lat="46.87359" lon="8.4676">
        <ele>2310</ele>
        <time>2021-08-12T08:23:34.238Z</time>
      </trkpt>
      <trkpt lat="46.87358" lon="8.46761">
        <ele>2309</ele>
        <time>2021-08-12T08:23:35.239Z</time>
      </trkpt>
      <trkpt lat="46.87358" lon="8.46761">
        <ele>2309</ele>
        <time>2021-08-12T08:23:36.239Z</time>
      </trkpt>
      <trkpt lat="46.87358" lon="8.46762">
        <ele>2308</ele>
        <time>2021-08-12T08:23:37.238Z</time>
      </trkpt>
      <trkpt lat="46.87357" lon="8.46763">
        <ele>2308</ele>
        <time>2021-08-12T08:23:38.238Z</time>
      </trkpt>
      <trkpt lat="46.87356" lon="8.46764">
        <ele>2308</ele>
        <time>2021-08-12T08:23:39.238Z</time>
      </trkpt>
      <trkpt lat="46.87356" lon="8.46764">
        <ele>2307</ele>
        <time>2021-08-12T08:23:40.239Z</time>
      </trkpt>
      <trkpt lat="46.87355" lon="8.46765">
        <ele>2307</ele>
        <time>2021-08-12T08:23:41.239Z</time>
      </trkpt>
      <trkpt lat="46.87355" lon="8.46766">
        <ele>2307</ele>
        <time>2021-08-12T08:23:42.239Z</time>
      </trkpt>
      <trkpt lat="46.87354" lon="8.46766">
        <ele>2307</ele>
        <time>2021-08-12T08:23:43.238Z</time>
      </trkpt>
      <trkpt lat="46.87353" lon="8.46766">
        <ele>2307</ele>
        <time>2021-08-12T08:23:44.238Z</time>
      </trkpt>
      <trkpt lat="46.87352" lon="8.46766">
        <ele>2307</ele>
        <time>2021-08-12T08:23:45.238Z</time>
      </trkpt>
      <trkpt lat="46.87351" lon="8.46767">
        <ele>2307</ele>
        <time>2021-08-12T08:23:46.239Z</time>
      </trkpt>
      <trkpt lat="46.87351" lon="8.46767">
        <ele>2307</ele>
        <time>2021-08-12T08:23:47.238Z</time>
      </trkpt>
      <trkpt lat="46.8735" lon="8.46768">
        <ele>2306</ele>
        <time>2021-08-12T08:23:48.238Z</time>
      </trkpt>
      <trkpt lat="46.87349" lon="8.46769">
        <ele>2306</ele>
        <time>2021-08-12T08:23:49.238Z</time>
      </trkpt>
      <trkpt lat="46.87348" lon="8.46769">
        <ele>2306</ele>
        <time>2021-08-12T08:23:50.238Z</time>
      </trkpt>
      <trkpt lat="46.87348" lon="8.46769">
        <ele>2306</ele>
        <time>2021-08-12T08:23:51.239Z</time>
      </trkpt>
      <trkpt lat="46.87347" lon="8.46769">
        <ele>2306</ele>
        <time>2021-08-12T08:23:52.238Z</time>
      </trkpt>
      <trkpt lat="46.87347" lon="8.46769">
        <ele>2306</ele>
        <time>2021-08-12T08:23:53.238Z</time>
      </trkpt>
      <trkpt lat="46.87346" lon="8.4677">
        <ele>2305</ele>
        <time>2021-08-12T08:23:54.238Z</time>
      </trkpt>
      <trkpt lat="46.87345" lon="8.4677">
        <ele>2305</ele>
        <time>2021-08-12T08:23:55.239Z</time>
      </trkpt>
      <trkpt lat="46.87345" lon="8.46771">
        <ele>2303</ele>
        <time>2021-08-12T08:23:56.239Z</time>
      </trkpt>
      <trkpt lat="46.87344" lon="8.46771">
        <ele>2302</ele>
        <time>2021-08-12T08:23:57.239Z</time>
      </trkpt>
      <trkpt lat="46.87344" lon="8.46771">
        <ele>2302</ele>
        <time>2021-08-12T08:23:58.238Z</time>
      </trkpt>
      <trkpt lat="46.87343" lon="8.46771">
        <ele>2301</ele>
        <time>2021-08-12T08:23:59.238Z</time>
      </trkpt>
      <trkpt lat="46.87342" lon="8.46771">
        <ele>2301</ele>
        <time>2021-08-12T08:24:00.238Z</time>
      </trkpt>
      <trkpt lat="46.87341" lon="8.46771">
        <ele>2301</ele>
        <time>2021-08-12T08:24:01.239Z</time>
      </trkpt>
      <trkpt lat="46.8734" lon="8.46771">
        <ele>2302</ele>
        <time>2021-08-12T08:24:02.239Z</time>
      </trkpt>
      <trkpt lat="46.87339" lon="8.46772">
        <ele>2302</ele>
        <time>2021-08-12T08:24:03.239Z</time>
      </trkpt>
      <trkpt lat="46.87338" lon="8.46772">
        <ele>2302</ele>
        <time>2021-08-12T08:24:04.239Z</time>
      </trkpt>
      <trkpt lat="46.87337" lon="8.46773">
        <ele>2302</ele>
        <time>2021-08-12T08:24:05.239Z</time>
      </trkpt>
      <trkpt lat="46.87337" lon="8.46774">
        <ele>2302</ele>
        <time>2021-08-12T08:24:06.239Z</time>
      </trkpt>
      <trkpt lat="46.87336" lon="8.46774">
        <ele>2302</ele>
        <time>2021-08-12T08:24:07.238Z</time>
      </trkpt>
      <trkpt lat="46.87336" lon="8.46775">
        <ele>2301</ele>
        <time>2021-08-12T08:24:08.238Z</time>
      </trkpt>
      <trkpt lat="46.87335" lon="8.46774">
        <ele>2301</ele>
        <time>2021-08-12T08:24:09.239Z</time>
      </trkpt>
      <trkpt lat="46.87335" lon="8.46775">
        <ele>2300</ele>
        <time>2021-08-12T08:24:10.239Z</time>
      </trkpt>
      <trkpt lat="46.87334" lon="8.46775">
        <ele>2300</ele>
        <time>2021-08-12T08:24:11.239Z</time>
      </trkpt>
      <trkpt lat="46.87333" lon="8.46776">
        <ele>2300</ele>
        <time>2021-08-12T08:24:12.239Z</time>
      </trkpt>
      <trkpt lat="46.87333" lon="8.46777">
        <ele>2300</ele>
        <time>2021-08-12T08:24:13.239Z</time>
      </trkpt>
      <trkpt lat="46.87333" lon="8.46778">
        <ele>2300</ele>
        <time>2021-08-12T08:24:14.238Z</time>
      </trkpt>
      <trkpt lat="46.87332" lon="8.46779">
        <ele>2300</ele>
        <time>2021-08-12T08:24:15.239Z</time>
      </trkpt>
      <trkpt lat="46.87331" lon="8.4678">
        <ele>2300</ele>
        <time>2021-08-12T08:24:16.238Z</time>
      </trkpt>
      <trkpt lat="46.8733" lon="8.46781">
        <ele>2300</ele>
        <time>2021-08-12T08:24:17.238Z</time>
      </trkpt>
      <trkpt lat="46.8733" lon="8.46782">
        <ele>2299</ele>
        <time>2021-08-12T08:24:18.239Z</time>
      </trkpt>
      <trkpt lat="46.87329" lon="8.46783">
        <ele>2299</ele>
        <time>2021-08-12T08:24:19.238Z</time>
      </trkpt>
      <trkpt lat="46.87328" lon="8.46784">
        <ele>2298</ele>
        <time>2021-08-12T08:24:20.238Z</time>
      </trkpt>
      <trkpt lat="46.87328" lon="8.46784">
        <ele>2298</ele>
        <time>2021-08-12T08:24:21.239Z</time>
      </trkpt>
      <trkpt lat="46.87327" lon="8.46785">
        <ele>2298</ele>
        <time>2021-08-12T08:24:22.239Z</time>
      </trkpt>
      <trkpt lat="46.87326" lon="8.46786">
        <ele>2298</ele>
        <time>2021-08-12T08:24:23.239Z</time>
      </trkpt>
      <trkpt lat="46.87325" lon="8.46787">
        <ele>2298</ele>
        <time>2021-08-12T08:24:24.238Z</time>
      </trkpt>
      <trkpt lat="46.87325" lon="8.46789">
        <ele>2297</ele>
        <time>2021-08-12T08:24:25.239Z</time>
      </trkpt>
      <trkpt lat="46.87324" lon="8.4679">
        <ele>2297</ele>
        <time>2021-08-12T08:24:26.239Z</time>
      </trkpt>
      <trkpt lat="46.87323" lon="8.46791">
        <ele>2296</ele>
        <time>2021-08-12T08:24:27.239Z</time>
      </trkpt>
      <trkpt lat="46.87323" lon="8.46792">
        <ele>2295</ele>
        <time>2021-08-12T08:24:28.239Z</time>
      </trkpt>
      <trkpt lat="46.87322" lon="8.46794">
        <ele>2295</ele>
        <time>2021-08-12T08:24:29.239Z</time>
      </trkpt>
      <trkpt lat="46.87322" lon="8.46795">
        <ele>2294</ele>
        <time>2021-08-12T08:24:30.239Z</time>
      </trkpt>
      <trkpt lat="46.87321" lon="8.46796">
        <ele>2294</ele>
        <time>2021-08-12T08:24:31.239Z</time>
      </trkpt>
      <trkpt lat="46.87321" lon="8.46797">
        <ele>2293</ele>
        <time>2021-08-12T08:24:32.238Z</time>
      </trkpt>
      <trkpt lat="46.8732" lon="8.46798">
        <ele>2293</ele>
        <time>2021-08-12T08:24:33.238Z</time>
      </trkpt>
      <trkpt lat="46.8732" lon="8.46799">
        <ele>2293</ele>
        <time>2021-08-12T08:24:34.239Z</time>
      </trkpt>
      <trkpt lat="46.87319" lon="8.468">
        <ele>2293</ele>
        <time>2021-08-12T08:24:35.239Z</time>
      </trkpt>
      <trkpt lat="46.87318" lon="8.468">
        <ele>2293</ele>
        <time>2021-08-12T08:24:36.239Z</time>
      </trkpt>
      <trkpt lat="46.87318" lon="8.46801">
        <ele>2293</ele>
        <time>2021-08-12T08:24:37.238Z</time>
      </trkpt>
      <trkpt lat="46.87317" lon="8.46802">
        <ele>2293</ele>
        <time>2021-08-12T08:24:38.238Z</time>
      </trkpt>
      <trkpt lat="46.87317" lon="8.46803">
        <ele>2293</ele>
        <time>2021-08-12T08:24:39.239Z</time>
      </trkpt>
      <trkpt lat="46.87316" lon="8.46804">
        <ele>2293</ele>
        <time>2021-08-12T08:24:40.239Z</time>
      </trkpt>
      <trkpt lat="46.87315" lon="8.46805">
        <ele>2293</ele>
        <time>2021-08-12T08:24:41.238Z</time>
      </trkpt>
      <trkpt lat="46.87315" lon="8.46805">
        <ele>2293</ele>
        <time>2021-08-12T08:24:42.238Z</time>
      </trkpt>
      <trkpt lat="46.87315" lon="8.46807">
        <ele>2293</ele>
        <time>2021-08-12T08:24:43.238Z</time>
      </trkpt>
      <trkpt lat="46.87314" lon="8.46807">
        <ele>2293</ele>
        <time>2021-08-12T08:24:44.238Z</time>
      </trkpt>
      <trkpt lat="46.87314" lon="8.46808">
        <ele>2292</ele>
        <time>2021-08-12T08:24:45.239Z</time>
      </trkpt>
      <trkpt lat="46.87313" lon="8.46809">
        <ele>2292</ele>
        <time>2021-08-12T08:24:46.238Z</time>
      </trkpt>
      <trkpt lat="46.87313" lon="8.46809">
        <ele>2291</ele>
        <time>2021-08-12T08:24:47.239Z</time>
      </trkpt>
      <trkpt lat="46.87312" lon="8.46809">
        <ele>2291</ele>
        <time>2021-08-12T08:24:48.238Z</time>
      </trkpt>
      <trkpt lat="46.87311" lon="8.4681">
        <ele>2291</ele>
        <time>2021-08-12T08:24:49.238Z</time>
      </trkpt>
      <trkpt lat="46.87311" lon="8.4681">
        <ele>2291</ele>
        <time>2021-08-12T08:24:50.239Z</time>
      </trkpt>
      <trkpt lat="46.8731" lon="8.46811">
        <ele>2291</ele>
        <time>2021-08-12T08:24:51.238Z</time>
      </trkpt>
      <trkpt lat="46.87309" lon="8.46812">
        <ele>2291</ele>
        <time>2021-08-12T08:24:52.239Z</time>
      </trkpt>
      <trkpt lat="46.87308" lon="8.46813">
        <ele>2291</ele>
        <time>2021-08-12T08:24:53.239Z</time>
      </trkpt>
      <trkpt lat="46.87308" lon="8.46814">
        <ele>2291</ele>
        <time>2021-08-12T08:24:54.239Z</time>
      </trkpt>
      <trkpt lat="46.87307" lon="8.46816">
        <ele>2290</ele>
        <time>2021-08-12T08:24:55.238Z</time>
      </trkpt>
      <trkpt lat="46.87306" lon="8.46816">
        <ele>2290</ele>
        <time>2021-08-12T08:24:56.239Z</time>
      </trkpt>
      <trkpt lat="46.87306" lon="8.46817">
        <ele>2290</ele>
        <time>2021-08-12T08:24:57.238Z</time>
      </trkpt>
      <trkpt lat="46.87305" lon="8.46818">
        <ele>2290</ele>
        <time>2021-08-12T08:24:58.238Z</time>
      </trkpt>
      <trkpt lat="46.87304" lon="8.46819">
        <ele>2290</ele>
        <time>2021-08-12T08:24:59.239Z</time>
      </trkpt>
      <trkpt lat="46.87304" lon="8.4682">
        <ele>2289</ele>
        <time>2021-08-12T08:25:00.239Z</time>
      </trkpt>
      <trkpt lat="46.87303" lon="8.46821">
        <ele>2289</ele>
        <time>2021-08-12T08:25:01.239Z</time>
      </trkpt>
      <trkpt lat="46.87303" lon="8.46823">
        <ele>2289</ele>
        <time>2021-08-12T08:25:02.239Z</time>
      </trkpt>
      <trkpt lat="46.87302" lon="8.46824">
        <ele>2289</ele>
        <time>2021-08-12T08:25:03.239Z</time>
      </trkpt>
      <trkpt lat="46.87301" lon="8.46825">
        <ele>2289</ele>
        <time>2021-08-12T08:25:04.239Z</time>
      </trkpt>
      <trkpt lat="46.87301" lon="8.46827">
        <ele>2290</ele>
        <time>2021-08-12T08:25:05.239Z</time>
      </trkpt>
      <trkpt lat="46.873" lon="8.46828">
        <ele>2289</ele>
        <time>2021-08-12T08:25:06.238Z</time>
      </trkpt>
      <trkpt lat="46.873" lon="8.46829">
        <ele>2289</ele>
        <time>2021-08-12T08:25:07.239Z</time>
      </trkpt>
      <trkpt lat="46.87299" lon="8.4683">
        <ele>2289</ele>
        <time>2021-08-12T08:25:08.239Z</time>
      </trkpt>
      <trkpt lat="46.87298" lon="8.46831">
        <ele>2289</ele>
        <time>2021-08-12T08:25:09.239Z</time>
      </trkpt>
      <trkpt lat="46.87297" lon="8.46833">
        <ele>2289</ele>
        <time>2021-08-12T08:25:10.239Z</time>
      </trkpt>
      <trkpt lat="46.87297" lon="8.46835">
        <ele>2289</ele>
        <time>2021-08-12T08:25:11.239Z</time>
      </trkpt>
      <trkpt lat="46.87296" lon="8.46836">
        <ele>2289</ele>
        <time>2021-08-12T08:25:12.238Z</time>
      </trkpt>
      <trkpt lat="46.87295" lon="8.46838">
        <ele>2288</ele>
        <time>2021-08-12T08:25:13.239Z</time>
      </trkpt>
      <trkpt lat="46.87295" lon="8.46839">
        <ele>2288</ele>
        <time>2021-08-12T08:25:14.238Z</time>
      </trkpt>
      <trkpt lat="46.87294" lon="8.4684">
        <ele>2287</ele>
        <time>2021-08-12T08:25:15.239Z</time>
      </trkpt>
      <trkpt lat="46.87294" lon="8.46842">
        <ele>2287</ele>
        <time>2021-08-12T08:25:16.239Z</time>
      </trkpt>
      <trkpt lat="46.87293" lon="8.46843">
        <ele>2286</ele>
        <time>2021-08-12T08:25:17.238Z</time>
      </trkpt>
      <trkpt lat="46.87293" lon="8.46845">
        <ele>2285</ele>
        <time>2021-08-12T08:25:18.238Z</time>
      </trkpt>
      <trkpt lat="46.87292" lon="8.46846">
        <ele>2285</ele>
        <time>2021-08-12T08:25:19.239Z</time>
      </trkpt>
      <trkpt lat="46.87291" lon="8.46847">
        <ele>2285</ele>
        <time>2021-08-12T08:25:20.239Z</time>
      </trkpt>
      <trkpt lat="46.8729" lon="8.46848">
        <ele>2285</ele>
        <time>2021-08-12T08:25:21.239Z</time>
      </trkpt>
      <trkpt lat="46.87289" lon="8.46849">
        <ele>2285</ele>
        <time>2021-08-12T08:25:22.239Z</time>
      </trkpt>
      <trkpt lat="46.87288" lon="8.46849">
        <ele>2285</ele>
        <time>2021-08-12T08:25:23.238Z</time>
      </trkpt>
      <trkpt lat="46.87287" lon="8.4685">
        <ele>2285</ele>
        <time>2021-08-12T08:25:24.238Z</time>
      </trkpt>
      <trkpt lat="46.87286" lon="8.46852">
        <ele>2285</ele>
        <time>2021-08-12T08:25:25.238Z</time>
      </trkpt>
      <trkpt lat="46.87286" lon="8.46852">
        <ele>2285</ele>
        <time>2021-08-12T08:25:26.239Z</time>
      </trkpt>
      <trkpt lat="46.87284" lon="8.46853">
        <ele>2285</ele>
        <time>2021-08-12T08:25:27.239Z</time>
      </trkpt>
      <trkpt lat="46.87284" lon="8.46853">
        <ele>2286</ele>
        <time>2021-08-12T08:25:28.239Z</time>
      </trkpt>
      <trkpt lat="46.87283" lon="8.46854">
        <ele>2286</ele>
        <time>2021-08-12T08:25:29.239Z</time>
      </trkpt>
      <trkpt lat="46.87281" lon="8.46854">
        <ele>2285</ele>
        <time>2021-08-12T08:25:30.239Z</time>
      </trkpt>
      <trkpt lat="46.8728" lon="8.46854">
        <ele>2285</ele>
        <time>2021-08-12T08:25:31.239Z</time>
      </trkpt>
      <trkpt lat="46.87279" lon="8.46855">
        <ele>2285</ele>
        <time>2021-08-12T08:25:32.238Z</time>
      </trkpt>
      <trkpt lat="46.87278" lon="8.46855">
        <ele>2284</ele>
        <time>2021-08-12T08:25:33.239Z</time>
      </trkpt>
      <trkpt lat="46.87277" lon="8.46856">
        <ele>2284</ele>
        <time>2021-08-12T08:25:34.239Z</time>
      </trkpt>
      <trkpt lat="46.87275" lon="8.46856">
        <ele>2284</ele>
        <time>2021-08-12T08:25:35.239Z</time>
      </trkpt>
      <trkpt lat="46.87274" lon="8.46856">
        <ele>2283</ele>
        <time>2021-08-12T08:25:36.238Z</time>
      </trkpt>
      <trkpt lat="46.87273" lon="8.46857">
        <ele>2283</ele>
        <time>2021-08-12T08:25:37.239Z</time>
      </trkpt>
      <trkpt lat="46.87271" lon="8.46857">
        <ele>2283</ele>
        <time>2021-08-12T08:25:38.238Z</time>
      </trkpt>
      <trkpt lat="46.8727" lon="8.46857">
        <ele>2283</ele>
        <time>2021-08-12T08:25:39.238Z</time>
      </trkpt>
      <trkpt lat="46.87269" lon="8.46857">
        <ele>2283</ele>
        <time>2021-08-12T08:25:40.239Z</time>
      </trkpt>
      <trkpt lat="46.87268" lon="8.46857">
        <ele>2283</ele>
        <time>2021-08-12T08:25:41.239Z</time>
      </trkpt>
      <trkpt lat="46.87267" lon="8.46858">
        <ele>2282</ele>
        <time>2021-08-12T08:25:42.238Z</time>
      </trkpt>
      <trkpt lat="46.87266" lon="8.46858">
        <ele>2282</ele>
        <time>2021-08-12T08:25:43.238Z</time>
      </trkpt>
      <trkpt lat="46.87265" lon="8.46859">
        <ele>2282</ele>
        <time>2021-08-12T08:25:44.239Z</time>
      </trkpt>
      <trkpt lat="46.87264" lon="8.4686">
        <ele>2281</ele>
        <time>2021-08-12T08:25:45.239Z</time>
      </trkpt>
      <trkpt lat="46.87263" lon="8.46862">
        <ele>2280</ele>
        <time>2021-08-12T08:25:46.239Z</time>
      </trkpt>
      <trkpt lat="46.87262" lon="8.46863">
        <ele>2280</ele>
        <time>2021-08-12T08:25:47.238Z</time>
      </trkpt>
      <trkpt lat="46.87261" lon="8.46864">
        <ele>2280</ele>
        <time>2021-08-12T08:25:48.238Z</time>
      </trkpt>
      <trkpt lat="46.87261" lon="8.46865">
        <ele>2280</ele>
        <time>2021-08-12T08:25:49.238Z</time>
      </trkpt>
      <trkpt lat="46.8726" lon="8.46866">
        <ele>2280</ele>
        <time>2021-08-12T08:25:50.238Z</time>
      </trkpt>
      <trkpt lat="46.87259" lon="8.46867">
        <ele>2280</ele>
        <time>2021-08-12T08:25:51.239Z</time>
      </trkpt>
      <trkpt lat="46.87258" lon="8.46868">
        <ele>2281</ele>
        <time>2021-08-12T08:25:52.239Z</time>
      </trkpt>
      <trkpt lat="46.87258" lon="8.46869">
        <ele>2281</ele>
        <time>2021-08-12T08:25:53.238Z</time>
      </trkpt>
      <trkpt lat="46.87258" lon="8.4687">
        <ele>2280</ele>
        <time>2021-08-12T08:25:54.238Z</time>
      </trkpt>
      <trkpt lat="46.87257" lon="8.46871">
        <ele>2280</ele>
        <time>2021-08-12T08:25:55.239Z</time>
      </trkpt>
      <trkpt lat="46.87256" lon="8.46872">
        <ele>2280</ele>
        <time>2021-08-12T08:25:56.239Z</time>
      </trkpt>
      <trkpt lat="46.87255" lon="8.46872">
        <ele>2280</ele>
        <time>2021-08-12T08:25:57.238Z</time>
      </trkpt>
      <trkpt lat="46.87254" lon="8.46873">
        <ele>2280</ele>
        <time>2021-08-12T08:25:58.238Z</time>
      </trkpt>
      <trkpt lat="46.87253" lon="8.46873">
        <ele>2280</ele>
        <time>2021-08-12T08:25:59.238Z</time>
      </trkpt>
      <trkpt lat="46.87252" lon="8.46874">
        <ele>2280</ele>
        <time>2021-08-12T08:26:00.239Z</time>
      </trkpt>
      <trkpt lat="46.87251" lon="8.46875">
        <ele>2280</ele>
        <time>2021-08-12T08:26:01.239Z</time>
      </trkpt>
      <trkpt lat="46.87251" lon="8.46876">
        <ele>2280</ele>
        <time>2021-08-12T08:26:02.239Z</time>
      </trkpt>
      <trkpt lat="46.8725" lon="8.46876">
        <ele>2280</ele>
        <time>2021-08-12T08:26:03.239Z</time>
      </trkpt>
      <trkpt lat="46.87249" lon="8.46877">
        <ele>2280</ele>
        <time>2021-08-12T08:26:04.239Z</time>
      </trkpt>
      <trkpt lat="46.87248" lon="8.46877">
        <ele>2280</ele>
        <time>2021-08-12T08:26:05.238Z</time>
      </trkpt>
      <trkpt lat="46.87248" lon="8.46878">
        <ele>2280</ele>
        <time>2021-08-12T08:26:06.238Z</time>
      </trkpt>
      <trkpt lat="46.87247" lon="8.46879">
        <ele>2279</ele>
        <time>2021-08-12T08:26:07.238Z</time>
      </trkpt>
      <trkpt lat="46.87246" lon="8.46879">
        <ele>2279</ele>
        <time>2021-08-12T08:26:08.239Z</time>
      </trkpt>
      <trkpt lat="46.87245" lon="8.4688">
        <ele>2279</ele>
        <time>2021-08-12T08:26:09.239Z</time>
      </trkpt>
      <trkpt lat="46.87244" lon="8.46881">
        <ele>2279</ele>
        <time>2021-08-12T08:26:10.239Z</time>
      </trkpt>
      <trkpt lat="46.87243" lon="8.46882">
        <ele>2279</ele>
        <time>2021-08-12T08:26:11.239Z</time>
      </trkpt>
      <trkpt lat="46.87242" lon="8.46883">
        <ele>2280</ele>
        <time>2021-08-12T08:26:12.239Z</time>
      </trkpt>
      <trkpt lat="46.87241" lon="8.46884">
        <ele>2280</ele>
        <time>2021-08-12T08:26:13.238Z</time>
      </trkpt>
      <trkpt lat="46.87241" lon="8.46885">
        <ele>2280</ele>
        <time>2021-08-12T08:26:14.238Z</time>
      </trkpt>
      <trkpt lat="46.8724" lon="8.46886">
        <ele>2280</ele>
        <time>2021-08-12T08:26:15.239Z</time>
      </trkpt>
      <trkpt lat="46.87239" lon="8.46886">
        <ele>2280</ele>
        <time>2021-08-12T08:26:16.238Z</time>
      </trkpt>
      <trkpt lat="46.87238" lon="8.46887">
        <ele>2279</ele>
        <time>2021-08-12T08:26:17.239Z</time>
      </trkpt>
      <trkpt lat="46.87237" lon="8.46887">
        <ele>2279</ele>
        <time>2021-08-12T08:26:18.239Z</time>
      </trkpt>
      <trkpt lat="46.87237" lon="8.46887">
        <ele>2279</ele>
        <time>2021-08-12T08:26:19.238Z</time>
      </trkpt>
      <trkpt lat="46.87236" lon="8.46888">
        <ele>2278</ele>
        <time>2021-08-12T08:26:20.239Z</time>
      </trkpt>
      <trkpt lat="46.87236" lon="8.46888">
        <ele>2278</ele>
        <time>2021-08-12T08:26:21.239Z</time>
      </trkpt>
      <trkpt lat="46.87235" lon="8.46889">
        <ele>2278</ele>
        <time>2021-08-12T08:26:22.239Z</time>
      </trkpt>
      <trkpt lat="46.87235" lon="8.4689">
        <ele>2277</ele>
        <time>2021-08-12T08:26:23.239Z</time>
      </trkpt>
      <trkpt lat="46.87235" lon="8.46892">
        <ele>2277</ele>
        <time>2021-08-12T08:26:24.239Z</time>
      </trkpt>
      <trkpt lat="46.87234" lon="8.46893">
        <ele>2277</ele>
        <time>2021-08-12T08:26:25.239Z</time>
      </trkpt>
      <trkpt lat="46.87234" lon="8.46893">
        <ele>2278</ele>
        <time>2021-08-12T08:26:26.239Z</time>
      </trkpt>
      <trkpt lat="46.87233" lon="8.46895">
        <ele>2277</ele>
        <time>2021-08-12T08:26:27.239Z</time>
      </trkpt>
      <trkpt lat="46.87232" lon="8.46896">
        <ele>2277</ele>
        <time>2021-08-12T08:26:28.239Z</time>
      </trkpt>
      <trkpt lat="46.87232" lon="8.46896">
        <ele>2276</ele>
        <time>2021-08-12T08:26:29.238Z</time>
      </trkpt>
      <trkpt lat="46.87231" lon="8.46897">
        <ele>2277</ele>
        <time>2021-08-12T08:26:30.239Z</time>
      </trkpt>
      <trkpt lat="46.8723" lon="8.46898">
        <ele>2277</ele>
        <time>2021-08-12T08:26:31.239Z</time>
      </trkpt>
      <trkpt lat="46.8723" lon="8.46898">
        <ele>2277</ele>
        <time>2021-08-12T08:26:32.239Z</time>
      </trkpt>
      <trkpt lat="46.87229" lon="8.46898">
        <ele>2277</ele>
        <time>2021-08-12T08:26:33.238Z</time>
      </trkpt>
      <trkpt lat="46.87228" lon="8.46899">
        <ele>2277</ele>
        <time>2021-08-12T08:26:34.238Z</time>
      </trkpt>
      <trkpt lat="46.87227" lon="8.469">
        <ele>2277</ele>
        <time>2021-08-12T08:26:35.239Z</time>
      </trkpt>
      <trkpt lat="46.87227" lon="8.469">
        <ele>2277</ele>
        <time>2021-08-12T08:26:36.239Z</time>
      </trkpt>
      <trkpt lat="46.87226" lon="8.469">
        <ele>2277</ele>
        <time>2021-08-12T08:26:37.238Z</time>
      </trkpt>
      <trkpt lat="46.87226" lon="8.46901">
        <ele>2277</ele>
        <time>2021-08-12T08:26:38.239Z</time>
      </trkpt>
      <trkpt lat="46.87226" lon="8.46902">
        <ele>2277</ele>
        <time>2021-08-12T08:26:39.239Z</time>
      </trkpt>
      <trkpt lat="46.87225" lon="8.46903">
        <ele>2277</ele>
        <time>2021-08-12T08:26:40.239Z</time>
      </trkpt>
      <trkpt lat="46.87225" lon="8.46903">
        <ele>2277</ele>
        <time>2021-08-12T08:26:41.239Z</time>
      </trkpt>
      <trkpt lat="46.87224" lon="8.46905">
        <ele>2277</ele>
        <time>2021-08-12T08:26:42.239Z</time>
      </trkpt>
      <trkpt lat="46.87224" lon="8.46906">
        <ele>2277</ele>
        <time>2021-08-12T08:26:43.238Z</time>
      </trkpt>
      <trkpt lat="46.87223" lon="8.46907">
        <ele>2277</ele>
        <time>2021-08-12T08:26:44.239Z</time>
      </trkpt>
      <trkpt lat="46.87223" lon="8.46906">
        <ele>2277</ele>
        <time>2021-08-12T08:26:45.239Z</time>
      </trkpt>
      <trkpt lat="46.87222" lon="8.46905">
        <ele>2277</ele>
        <time>2021-08-12T08:26:46.238Z</time>
      </trkpt>
      <trkpt lat="46.87222" lon="8.46906">
        <ele>2277</ele>
        <time>2021-08-12T08:26:47.239Z</time>
      </trkpt>
      <trkpt lat="46.87222" lon="8.46906">
        <ele>2277</ele>
        <time>2021-08-12T08:26:48.239Z</time>
      </trkpt>
      <trkpt lat="46.87221" lon="8.46906">
        <ele>2274</ele>
        <time>2021-08-12T08:26:49.240Z</time>
      </trkpt>
      <trkpt lat="46.87221" lon="8.46906">
        <ele>2274</ele>
        <time>2021-08-12T08:26:50.239Z</time>
      </trkpt>
      <trkpt lat="46.87221" lon="8.46906">
        <ele>2273</ele>
        <time>2021-08-12T08:26:51.240Z</time>
      </trkpt>
      <trkpt lat="46.8722" lon="8.46906">
        <ele>2273</ele>
        <time>2021-08-12T08:26:52.239Z</time>
      </trkpt>
      <trkpt lat="46.8722" lon="8.46906">
        <ele>2272</ele>
        <time>2021-08-12T08:26:53.239Z</time>
      </trkpt>
      <trkpt lat="46.87219" lon="8.46907">
        <ele>2272</ele>
        <time>2021-08-12T08:26:54.240Z</time>
      </trkpt>
      <trkpt lat="46.87219" lon="8.46907">
        <ele>2271</ele>
        <time>2021-08-12T08:26:55.239Z</time>
      </trkpt>
      <trkpt lat="46.87219" lon="8.46907">
        <ele>2271</ele>
        <time>2021-08-12T08:26:56.239Z</time>
      </trkpt>
      <trkpt lat="46.87218" lon="8.46908">
        <ele>2271</ele>
        <time>2021-08-12T08:26:57.240Z</time>
      </trkpt>
      <trkpt lat="46.87218" lon="8.46908">
        <ele>2271</ele>
        <time>2021-08-12T08:26:58.240Z</time>
      </trkpt>
      <trkpt lat="46.87218" lon="8.46909">
        <ele>2271</ele>
        <time>2021-08-12T08:26:59.240Z</time>
      </trkpt>
      <trkpt lat="46.87218" lon="8.46909">
        <ele>2271</ele>
        <time>2021-08-12T08:27:00.240Z</time>
      </trkpt>
      <trkpt lat="46.87218" lon="8.4691">
        <ele>2271</ele>
        <time>2021-08-12T08:27:01.240Z</time>
      </trkpt>
      <trkpt lat="46.87218" lon="8.46911">
        <ele>2271</ele>
        <time>2021-08-12T08:27:02.240Z</time>
      </trkpt>
      <trkpt lat="46.87218" lon="8.46913">
        <ele>2271</ele>
        <time>2021-08-12T08:27:03.239Z</time>
      </trkpt>
      <trkpt lat="46.87218" lon="8.46913">
        <ele>2272</ele>
        <time>2021-08-12T08:27:04.240Z</time>
      </trkpt>
      <trkpt lat="46.87217" lon="8.46914">
        <ele>2272</ele>
        <time>2021-08-12T08:27:05.239Z</time>
      </trkpt>
      <trkpt lat="46.87217" lon="8.46915">
        <ele>2273</ele>
        <time>2021-08-12T08:27:06.240Z</time>
      </trkpt>
      <trkpt lat="46.87217" lon="8.46915">
        <ele>2273</ele>
        <time>2021-08-12T08:27:07.240Z</time>
      </trkpt>
      <trkpt lat="46.87216" lon="8.46916">
        <ele>2273</ele>
        <time>2021-08-12T08:27:08.239Z</time>
      </trkpt>
      <trkpt lat="46.87216" lon="8.46916">
        <ele>2273</ele>
        <time>2021-08-12T08:27:09.240Z</time>
      </trkpt>
      <trkpt lat="46.87216" lon="8.46917">
        <ele>2273</ele>
        <time>2021-08-12T08:27:10.240Z</time>
      </trkpt>
      <trkpt lat="46.87215" lon="8.46918">
        <ele>2273</ele>
        <time>2021-08-12T08:27:11.240Z</time>
      </trkpt>
      <trkpt lat="46.87215" lon="8.46918">
        <ele>2273</ele>
        <time>2021-08-12T08:27:12.239Z</time>
      </trkpt>
      <trkpt lat="46.87214" lon="8.46919">
        <ele>2273</ele>
        <time>2021-08-12T08:27:13.239Z</time>
      </trkpt>
      <trkpt lat="46.87213" lon="8.46919">
        <ele>2273</ele>
        <time>2021-08-12T08:27:14.240Z</time>
      </trkpt>
      <trkpt lat="46.87213" lon="8.46919">
        <ele>2273</ele>
        <time>2021-08-12T08:27:15.239Z</time>
      </trkpt>
      <trkpt lat="46.87213" lon="8.4692">
        <ele>2272</ele>
        <time>2021-08-12T08:27:16.239Z</time>
      </trkpt>
      <trkpt lat="46.87214" lon="8.46928">
        <ele>2274</ele>
        <time>2021-08-12T08:29:50.391Z</time>
      </trkpt>
      <trkpt lat="46.87214" lon="8.46928">
        <ele>2274</ele>
        <time>2021-08-12T08:29:50.391Z</time>
      </trkpt>
      <trkpt lat="46.87214" lon="8.46928">
        <ele>2274</ele>
        <time>2021-08-12T08:29:50.391Z</time>
      </trkpt>
      <trkpt lat="46.87214" lon="8.46928">
        <ele>2273</ele>
        <time>2021-08-12T08:29:51.391Z</time>
      </trkpt>
      <trkpt lat="46.87214" lon="8.46927">
        <ele>2272</ele>
        <time>2021-08-12T08:29:52.391Z</time>
      </trkpt>
      <trkpt lat="46.87213" lon="8.46927">
        <ele>2271</ele>
        <time>2021-08-12T08:29:53.391Z</time>
      </trkpt>
      <trkpt lat="46.87213" lon="8.46927">
        <ele>2270</ele>
        <time>2021-08-12T08:29:54.391Z</time>
      </trkpt>
      <trkpt lat="46.87213" lon="8.46926">
        <ele>2269</ele>
        <time>2021-08-12T08:29:55.392Z</time>
      </trkpt>
      <trkpt lat="46.87213" lon="8.46926">
        <ele>2269</ele>
        <time>2021-08-12T08:29:56.391Z</time>
      </trkpt>
      <trkpt lat="46.87212" lon="8.46926">
        <ele>2268</ele>
        <time>2021-08-12T08:29:57.392Z</time>
      </trkpt>
      <trkpt lat="46.87212" lon="8.46926">
        <ele>2267</ele>
        <time>2021-08-12T08:29:58.391Z</time>
      </trkpt>
      <trkpt lat="46.87212" lon="8.46925">
        <ele>2267</ele>
        <time>2021-08-12T08:29:59.391Z</time>
      </trkpt>
      <trkpt lat="46.87211" lon="8.46925">
        <ele>2266</ele>
        <time>2021-08-12T08:30:00.391Z</time>
      </trkpt>
      <trkpt lat="46.8721" lon="8.46924">
        <ele>2266</ele>
        <time>2021-08-12T08:30:01.392Z</time>
      </trkpt>
      <trkpt lat="46.8721" lon="8.46924">
        <ele>2266</ele>
        <time>2021-08-12T08:30:02.391Z</time>
      </trkpt>
      <trkpt lat="46.8721" lon="8.46923">
        <ele>2265</ele>
        <time>2021-08-12T08:30:03.391Z</time>
      </trkpt>
      <trkpt lat="46.87211" lon="8.46923">
        <ele>2265</ele>
        <time>2021-08-12T08:30:04.391Z</time>
      </trkpt>
      <trkpt lat="46.87211" lon="8.46922">
        <ele>2265</ele>
        <time>2021-08-12T08:30:05.391Z</time>
      </trkpt>
      <trkpt lat="46.87211" lon="8.46922">
        <ele>2265</ele>
        <time>2021-08-12T08:30:06.391Z</time>
      </trkpt>
      <trkpt lat="46.87211" lon="8.46922">
        <ele>2265</ele>
        <time>2021-08-12T08:30:07.391Z</time>
      </trkpt>
      <trkpt lat="46.87211" lon="8.46922">
        <ele>2265</ele>
        <time>2021-08-12T08:30:08.391Z</time>
      </trkpt>
      <trkpt lat="46.87211" lon="8.46921">
        <ele>2265</ele>
        <time>2021-08-12T08:30:09.391Z</time>
      </trkpt>
      <trkpt lat="46.87211" lon="8.46921">
        <ele>2265</ele>
        <time>2021-08-12T08:30:10.391Z</time>
      </trkpt>
      <trkpt lat="46.87211" lon="8.46921">
        <ele>2264</ele>
        <time>2021-08-12T08:30:11.392Z</time>
      </trkpt>
      <trkpt lat="46.8721" lon="8.46919">
        <ele>2264</ele>
        <time>2021-08-12T08:30:12.391Z</time>
      </trkpt>
      <trkpt lat="46.87211" lon="8.46918">
        <ele>2264</ele>
        <time>2021-08-12T08:30:13.391Z</time>
      </trkpt>
      <trkpt lat="46.87211" lon="8.46919">
        <ele>2264</ele>
        <time>2021-08-12T08:30:14.392Z</time>
      </trkpt>
      <trkpt lat="46.87212" lon="8.46919">
        <ele>2263</ele>
        <time>2021-08-12T08:30:15.391Z</time>
      </trkpt>
      <trkpt lat="46.87211" lon="8.46919">
        <ele>2263</ele>
        <time>2021-08-12T08:30:16.391Z</time>
      </trkpt>
      <trkpt lat="46.8721" lon="8.46919">
        <ele>2263</ele>
        <time>2021-08-12T08:30:17.391Z</time>
      </trkpt>
      <trkpt lat="46.8721" lon="8.46919">
        <ele>2263</ele>
        <time>2021-08-12T08:30:18.392Z</time>
      </trkpt>
      <trkpt lat="46.8721" lon="8.46919">
        <ele>2263</ele>
        <time>2021-08-12T08:30:19.392Z</time>
      </trkpt>
      <trkpt lat="46.87211" lon="8.4692">
        <ele>2262</ele>
        <time>2021-08-12T08:30:20.391Z</time>
      </trkpt>
      <trkpt lat="46.87207" lon="8.46913">
        <ele>2271</ele>
        <time>2021-08-12T08:30:21.392Z</time>
      </trkpt>
      <trkpt lat="46.87207" lon="8.46914">
        <ele>2271</ele>
        <time>2021-08-12T08:30:22.392Z</time>
      </trkpt>
      <trkpt lat="46.87206" lon="8.46914">
        <ele>2272</ele>
        <time>2021-08-12T08:30:23.391Z</time>
      </trkpt>
      <trkpt lat="46.87206" lon="8.46915">
        <ele>2271</ele>
        <time>2021-08-12T08:30:24.392Z</time>
      </trkpt>
      <trkpt lat="46.87206" lon="8.46916">
        <ele>2271</ele>
        <time>2021-08-12T08:30:25.392Z</time>
      </trkpt>
      <trkpt lat="46.87205" lon="8.46916">
        <ele>2271</ele>
        <time>2021-08-12T08:30:26.392Z</time>
      </trkpt>
      <trkpt lat="46.87205" lon="8.46916">
        <ele>2270</ele>
        <time>2021-08-12T08:30:27.392Z</time>
      </trkpt>
      <trkpt lat="46.87204" lon="8.46917">
        <ele>2270</ele>
        <time>2021-08-12T08:30:28.391Z</time>
      </trkpt>
      <trkpt lat="46.87204" lon="8.46917">
        <ele>2270</ele>
        <time>2021-08-12T08:30:29.392Z</time>
      </trkpt>
      <trkpt lat="46.87203" lon="8.46917">
        <ele>2269</ele>
        <time>2021-08-12T08:30:30.392Z</time>
      </trkpt>
      <trkpt lat="46.87203" lon="8.46917">
        <ele>2269</ele>
        <time>2021-08-12T08:30:31.391Z</time>
      </trkpt>
      <trkpt lat="46.87203" lon="8.46917">
        <ele>2269</ele>
        <time>2021-08-12T08:30:32.391Z</time>
      </trkpt>
      <trkpt lat="46.87202" lon="8.46917">
        <ele>2269</ele>
        <time>2021-08-12T08:30:33.391Z</time>
      </trkpt>
      <trkpt lat="46.87202" lon="8.46917">
        <ele>2269</ele>
        <time>2021-08-12T08:30:34.392Z</time>
      </trkpt>
      <trkpt lat="46.87201" lon="8.46918">
        <ele>2269</ele>
        <time>2021-08-12T08:30:35.392Z</time>
      </trkpt>
      <trkpt lat="46.872" lon="8.46918">
        <ele>2269</ele>
        <time>2021-08-12T08:30:36.392Z</time>
      </trkpt>
      <trkpt lat="46.872" lon="8.46919">
        <ele>2268</ele>
        <time>2021-08-12T08:30:37.392Z</time>
      </trkpt>
      <trkpt lat="46.87199" lon="8.46919">
        <ele>2268</ele>
        <time>2021-08-12T08:30:38.392Z</time>
      </trkpt>
      <trkpt lat="46.87199" lon="8.4692">
        <ele>2268</ele>
        <time>2021-08-12T08:30:39.392Z</time>
      </trkpt>
      <trkpt lat="46.87199" lon="8.4692">
        <ele>2268</ele>
        <time>2021-08-12T08:30:40.391Z</time>
      </trkpt>
      <trkpt lat="46.87199" lon="8.46921">
        <ele>2268</ele>
        <time>2021-08-12T08:30:41.392Z</time>
      </trkpt>
      <trkpt lat="46.87198" lon="8.46921">
        <ele>2267</ele>
        <time>2021-08-12T08:30:42.392Z</time>
      </trkpt>
      <trkpt lat="46.87198" lon="8.46921">
        <ele>2267</ele>
        <time>2021-08-12T08:30:43.392Z</time>
      </trkpt>
      <trkpt lat="46.87198" lon="8.46922">
        <ele>2267</ele>
        <time>2021-08-12T08:30:44.391Z</time>
      </trkpt>
      <trkpt lat="46.87197" lon="8.46923">
        <ele>2267</ele>
        <time>2021-08-12T08:30:45.391Z</time>
      </trkpt>
      <trkpt lat="46.87197" lon="8.46924">
        <ele>2267</ele>
        <time>2021-08-12T08:30:46.391Z</time>
      </trkpt>
      <trkpt lat="46.87196" lon="8.46924">
        <ele>2267</ele>
        <time>2021-08-12T08:30:47.392Z</time>
      </trkpt>
      <trkpt lat="46.87196" lon="8.46925">
        <ele>2267</ele>
        <time>2021-08-12T08:30:48.392Z</time>
      </trkpt>
      <trkpt lat="46.87195" lon="8.46926">
        <ele>2266</ele>
        <time>2021-08-12T08:30:49.392Z</time>
      </trkpt>
      <trkpt lat="46.87194" lon="8.46928">
        <ele>2266</ele>
        <time>2021-08-12T08:30:50.392Z</time>
      </trkpt>
      <trkpt lat="46.87194" lon="8.46929">
        <ele>2266</ele>
        <time>2021-08-12T08:30:51.391Z</time>
      </trkpt>
      <trkpt lat="46.87193" lon="8.46931">
        <ele>2265</ele>
        <time>2021-08-12T08:30:52.391Z</time>
      </trkpt>
      <trkpt lat="46.87192" lon="8.46931">
        <ele>2265</ele>
        <time>2021-08-12T08:30:53.391Z</time>
      </trkpt>
      <trkpt lat="46.87191" lon="8.46932">
        <ele>2265</ele>
        <time>2021-08-12T08:30:54.392Z</time>
      </trkpt>
      <trkpt lat="46.8719" lon="8.46933">
        <ele>2265</ele>
        <time>2021-08-12T08:30:55.392Z</time>
      </trkpt>
      <trkpt lat="46.87189" lon="8.46934">
        <ele>2265</ele>
        <time>2021-08-12T08:30:56.392Z</time>
      </trkpt>
      <trkpt lat="46.87189" lon="8.46935">
        <ele>2265</ele>
        <time>2021-08-12T08:30:57.392Z</time>
      </trkpt>
      <trkpt lat="46.87188" lon="8.46937">
        <ele>2265</ele>
        <time>2021-08-12T08:30:58.392Z</time>
      </trkpt>
      <trkpt lat="46.87187" lon="8.46938">
        <ele>2265</ele>
        <time>2021-08-12T08:30:59.392Z</time>
      </trkpt>
      <trkpt lat="46.87186" lon="8.46939">
        <ele>2265</ele>
        <time>2021-08-12T08:31:00.392Z</time>
      </trkpt>
      <trkpt lat="46.87185" lon="8.4694">
        <ele>2266</ele>
        <time>2021-08-12T08:31:01.392Z</time>
      </trkpt>
      <trkpt lat="46.87184" lon="8.46941">
        <ele>2265</ele>
        <time>2021-08-12T08:31:02.392Z</time>
      </trkpt>
      <trkpt lat="46.87183" lon="8.46941">
        <ele>2265</ele>
        <time>2021-08-12T08:31:03.392Z</time>
      </trkpt>
      <trkpt lat="46.87182" lon="8.46942">
        <ele>2265</ele>
        <time>2021-08-12T08:31:04.392Z</time>
      </trkpt>
      <trkpt lat="46.87181" lon="8.46943">
        <ele>2265</ele>
        <time>2021-08-12T08:31:05.392Z</time>
      </trkpt>
      <trkpt lat="46.87181" lon="8.46944">
        <ele>2265</ele>
        <time>2021-08-12T08:31:06.391Z</time>
      </trkpt>
      <trkpt lat="46.8718" lon="8.46945">
        <ele>2264</ele>
        <time>2021-08-12T08:31:07.392Z</time>
      </trkpt>
      <trkpt lat="46.8718" lon="8.46946">
        <ele>2264</ele>
        <time>2021-08-12T08:31:08.392Z</time>
      </trkpt>
      <trkpt lat="46.87179" lon="8.46947">
        <ele>2264</ele>
        <time>2021-08-12T08:31:09.391Z</time>
      </trkpt>
      <trkpt lat="46.87178" lon="8.46948">
        <ele>2263</ele>
        <time>2021-08-12T08:31:10.392Z</time>
      </trkpt>
      <trkpt lat="46.87177" lon="8.46948">
        <ele>2263</ele>
        <time>2021-08-12T08:31:11.392Z</time>
      </trkpt>
      <trkpt lat="46.87177" lon="8.46949">
        <ele>2263</ele>
        <time>2021-08-12T08:31:12.392Z</time>
      </trkpt>
      <trkpt lat="46.87176" lon="8.46949">
        <ele>2262</ele>
        <time>2021-08-12T08:31:13.391Z</time>
      </trkpt>
      <trkpt lat="46.87175" lon="8.46951">
        <ele>2262</ele>
        <time>2021-08-12T08:31:14.391Z</time>
      </trkpt>
      <trkpt lat="46.87174" lon="8.46952">
        <ele>2262</ele>
        <time>2021-08-12T08:31:15.392Z</time>
      </trkpt>
      <trkpt lat="46.87174" lon="8.46954">
        <ele>2261</ele>
        <time>2021-08-12T08:31:16.391Z</time>
      </trkpt>
      <trkpt lat="46.87173" lon="8.46954">
        <ele>2261</ele>
        <time>2021-08-12T08:31:17.391Z</time>
      </trkpt>
      <trkpt lat="46.87172" lon="8.46955">
        <ele>2260</ele>
        <time>2021-08-12T08:31:18.392Z</time>
      </trkpt>
      <trkpt lat="46.87171" lon="8.46956">
        <ele>2260</ele>
        <time>2021-08-12T08:31:19.392Z</time>
      </trkpt>
      <trkpt lat="46.8717" lon="8.46957">
        <ele>2260</ele>
        <time>2021-08-12T08:31:20.392Z</time>
      </trkpt>
      <trkpt lat="46.87169" lon="8.46959">
        <ele>2260</ele>
        <time>2021-08-12T08:31:21.392Z</time>
      </trkpt>
      <trkpt lat="46.87168" lon="8.4696">
        <ele>2260</ele>
        <time>2021-08-12T08:31:22.392Z</time>
      </trkpt>
      <trkpt lat="46.87167" lon="8.46961">
        <ele>2260</ele>
        <time>2021-08-12T08:31:23.392Z</time>
      </trkpt>
      <trkpt lat="46.87167" lon="8.46963">
        <ele>2261</ele>
        <time>2021-08-12T08:31:24.392Z</time>
      </trkpt>
      <trkpt lat="46.87166" lon="8.46963">
        <ele>2261</ele>
        <time>2021-08-12T08:31:25.391Z</time>
      </trkpt>
      <trkpt lat="46.87166" lon="8.46964">
        <ele>2260</ele>
        <time>2021-08-12T08:31:26.392Z</time>
      </trkpt>
      <trkpt lat="46.87165" lon="8.46965">
        <ele>2260</ele>
        <time>2021-08-12T08:31:27.392Z</time>
      </trkpt>
      <trkpt lat="46.87164" lon="8.46966">
        <ele>2261</ele>
        <time>2021-08-12T08:31:28.391Z</time>
      </trkpt>
      <trkpt lat="46.87163" lon="8.46967">
        <ele>2261</ele>
        <time>2021-08-12T08:31:29.392Z</time>
      </trkpt>
      <trkpt lat="46.87162" lon="8.46968">
        <ele>2262</ele>
        <time>2021-08-12T08:31:30.392Z</time>
      </trkpt>
      <trkpt lat="46.87162" lon="8.46969">
        <ele>2262</ele>
        <time>2021-08-12T08:31:31.391Z</time>
      </trkpt>
      <trkpt lat="46.87161" lon="8.4697">
        <ele>2263</ele>
        <time>2021-08-12T08:31:32.392Z</time>
      </trkpt>
      <trkpt lat="46.8716" lon="8.46971">
        <ele>2263</ele>
        <time>2021-08-12T08:31:33.392Z</time>
      </trkpt>
      <trkpt lat="46.87159" lon="8.46973">
        <ele>2263</ele>
        <time>2021-08-12T08:31:34.392Z</time>
      </trkpt>
      <trkpt lat="46.87158" lon="8.46974">
        <ele>2263</ele>
        <time>2021-08-12T08:31:35.391Z</time>
      </trkpt>
      <trkpt lat="46.87158" lon="8.46974">
        <ele>2263</ele>
        <time>2021-08-12T08:31:36.392Z</time>
      </trkpt>
      <trkpt lat="46.87157" lon="8.46975">
        <ele>2263</ele>
        <time>2021-08-12T08:31:37.391Z</time>
      </trkpt>
      <trkpt lat="46.87156" lon="8.46976">
        <ele>2263</ele>
        <time>2021-08-12T08:31:38.392Z</time>
      </trkpt>
      <trkpt lat="46.87155" lon="8.46976">
        <ele>2263</ele>
        <time>2021-08-12T08:31:39.392Z</time>
      </trkpt>
      <trkpt lat="46.87154" lon="8.46977">
        <ele>2262</ele>
        <time>2021-08-12T08:31:40.391Z</time>
      </trkpt>
      <trkpt lat="46.87154" lon="8.46978">
        <ele>2261</ele>
        <time>2021-08-12T08:31:41.391Z</time>
      </trkpt>
      <trkpt lat="46.87153" lon="8.46979">
        <ele>2261</ele>
        <time>2021-08-12T08:31:42.391Z</time>
      </trkpt>
      <trkpt lat="46.87152" lon="8.4698">
        <ele>2261</ele>
        <time>2021-08-12T08:31:43.392Z</time>
      </trkpt>
      <trkpt lat="46.87152" lon="8.46981">
        <ele>2260</ele>
        <time>2021-08-12T08:31:44.392Z</time>
      </trkpt>
      <trkpt lat="46.87151" lon="8.46982">
        <ele>2259</ele>
        <time>2021-08-12T08:31:45.391Z</time>
      </trkpt>
      <trkpt lat="46.87151" lon="8.46982">
        <ele>2259</ele>
        <time>2021-08-12T08:31:46.391Z</time>
      </trkpt>
      <trkpt lat="46.8715" lon="8.46983">
        <ele>2259</ele>
        <time>2021-08-12T08:31:47.392Z</time>
      </trkpt>
      <trkpt lat="46.87149" lon="8.46984">
        <ele>2259</ele>
        <time>2021-08-12T08:31:48.392Z</time>
      </trkpt>
      <trkpt lat="46.87148" lon="8.46986">
        <ele>2259</ele>
        <time>2021-08-12T08:31:49.392Z</time>
      </trkpt>
      <trkpt lat="46.87147" lon="8.46987">
        <ele>2259</ele>
        <time>2021-08-12T08:31:50.392Z</time>
      </trkpt>
      <trkpt lat="46.87147" lon="8.46987">
        <ele>2259</ele>
        <time>2021-08-12T08:31:51.392Z</time>
      </trkpt>
      <trkpt lat="46.87146" lon="8.46988">
        <ele>2258</ele>
        <time>2021-08-12T08:31:52.391Z</time>
      </trkpt>
      <trkpt lat="46.87145" lon="8.46989">
        <ele>2258</ele>
        <time>2021-08-12T08:31:53.391Z</time>
      </trkpt>
      <trkpt lat="46.87145" lon="8.4699">
        <ele>2258</ele>
        <time>2021-08-12T08:31:54.392Z</time>
      </trkpt>
      <trkpt lat="46.87145" lon="8.4699">
        <ele>2258</ele>
        <time>2021-08-12T08:31:55.392Z</time>
      </trkpt>
      <trkpt lat="46.87144" lon="8.4699">
        <ele>2259</ele>
        <time>2021-08-12T08:31:56.392Z</time>
      </trkpt>
      <trkpt lat="46.87144" lon="8.4699">
        <ele>2259</ele>
        <time>2021-08-12T08:31:57.393Z</time>
      </trkpt>
      <trkpt lat="46.87143" lon="8.4699">
        <ele>2259</ele>
        <time>2021-08-12T08:31:58.393Z</time>
      </trkpt>
      <trkpt lat="46.87141" lon="8.46991">
        <ele>2259</ele>
        <time>2021-08-12T08:31:59.392Z</time>
      </trkpt>
      <trkpt lat="46.8714" lon="8.46991">
        <ele>2259</ele>
        <time>2021-08-12T08:32:00.393Z</time>
      </trkpt>
      <trkpt lat="46.8714" lon="8.46993">
        <ele>2259</ele>
        <time>2021-08-12T08:32:01.393Z</time>
      </trkpt>
      <trkpt lat="46.87139" lon="8.46994">
        <ele>2258</ele>
        <time>2021-08-12T08:32:02.393Z</time>
      </trkpt>
      <trkpt lat="46.87138" lon="8.46996">
        <ele>2258</ele>
        <time>2021-08-12T08:32:03.393Z</time>
      </trkpt>
      <trkpt lat="46.87138" lon="8.46997">
        <ele>2258</ele>
        <time>2021-08-12T08:32:04.393Z</time>
      </trkpt>
      <trkpt lat="46.87138" lon="8.46998">
        <ele>2258</ele>
        <time>2021-08-12T08:32:05.392Z</time>
      </trkpt>
      <trkpt lat="46.87137" lon="8.47">
        <ele>2258</ele>
        <time>2021-08-12T08:32:06.393Z</time>
      </trkpt>
      <trkpt lat="46.87137" lon="8.47">
        <ele>2258</ele>
        <time>2021-08-12T08:32:07.393Z</time>
      </trkpt>
      <trkpt lat="46.87137" lon="8.47001">
        <ele>2257</ele>
        <time>2021-08-12T08:32:08.392Z</time>
      </trkpt>
      <trkpt lat="46.87137" lon="8.47002">
        <ele>2257</ele>
        <time>2021-08-12T08:32:09.392Z</time>
      </trkpt>
      <trkpt lat="46.87137" lon="8.47003">
        <ele>2256</ele>
        <time>2021-08-12T08:32:10.392Z</time>
      </trkpt>
      <trkpt lat="46.87136" lon="8.47004">
        <ele>2255</ele>
        <time>2021-08-12T08:32:11.393Z</time>
      </trkpt>
      <trkpt lat="46.87136" lon="8.47005">
        <ele>2255</ele>
        <time>2021-08-12T08:32:12.392Z</time>
      </trkpt>
      <trkpt lat="46.87136" lon="8.47006">
        <ele>2255</ele>
        <time>2021-08-12T08:32:13.393Z</time>
      </trkpt>
      <trkpt lat="46.87136" lon="8.47007">
        <ele>2255</ele>
        <time>2021-08-12T08:32:14.393Z</time>
      </trkpt>
      <trkpt lat="46.87135" lon="8.47009">
        <ele>2255</ele>
        <time>2021-08-12T08:32:15.393Z</time>
      </trkpt>
      <trkpt lat="46.87135" lon="8.47009">
        <ele>2254</ele>
        <time>2021-08-12T08:32:16.392Z</time>
      </trkpt>
      <trkpt lat="46.87135" lon="8.47009">
        <ele>2254</ele>
        <time>2021-08-12T08:32:17.393Z</time>
      </trkpt>
      <trkpt lat="46.87135" lon="8.47009">
        <ele>2254</ele>
        <time>2021-08-12T08:32:18.393Z</time>
      </trkpt>
      <trkpt lat="46.87134" lon="8.4701">
        <ele>2254</ele>
        <time>2021-08-12T08:32:19.393Z</time>
      </trkpt>
      <trkpt lat="46.87134" lon="8.4701">
        <ele>2253</ele>
        <time>2021-08-12T08:32:20.392Z</time>
      </trkpt>
      <trkpt lat="46.87133" lon="8.4701">
        <ele>2253</ele>
        <time>2021-08-12T08:32:21.393Z</time>
      </trkpt>
      <trkpt lat="46.87133" lon="8.47011">
        <ele>2253</ele>
        <time>2021-08-12T08:32:22.392Z</time>
      </trkpt>
      <trkpt lat="46.87132" lon="8.47011">
        <ele>2253</ele>
        <time>2021-08-12T08:32:23.392Z</time>
      </trkpt>
      <trkpt lat="46.87131" lon="8.47011">
        <ele>2252</ele>
        <time>2021-08-12T08:32:24.392Z</time>
      </trkpt>
      <trkpt lat="46.8713" lon="8.47012">
        <ele>2252</ele>
        <time>2021-08-12T08:32:25.392Z</time>
      </trkpt>
      <trkpt lat="46.87129" lon="8.47012">
        <ele>2251</ele>
        <time>2021-08-12T08:32:26.392Z</time>
      </trkpt>
      <trkpt lat="46.87128" lon="8.47013">
        <ele>2251</ele>
        <time>2021-08-12T08:32:27.393Z</time>
      </trkpt>
      <trkpt lat="46.87127" lon="8.47013">
        <ele>2251</ele>
        <time>2021-08-12T08:32:28.392Z</time>
      </trkpt>
      <trkpt lat="46.87126" lon="8.47013">
        <ele>2251</ele>
        <time>2021-08-12T08:32:29.392Z</time>
      </trkpt>
      <trkpt lat="46.87125" lon="8.47013">
        <ele>2250</ele>
        <time>2021-08-12T08:32:30.392Z</time>
      </trkpt>
      <trkpt lat="46.87124" lon="8.47013">
        <ele>2250</ele>
        <time>2021-08-12T08:32:31.393Z</time>
      </trkpt>
      <trkpt lat="46.87124" lon="8.47012">
        <ele>2250</ele>
        <time>2021-08-12T08:32:32.392Z</time>
      </trkpt>
      <trkpt lat="46.87123" lon="8.47013">
        <ele>2250</ele>
        <time>2021-08-12T08:32:33.392Z</time>
      </trkpt>
      <trkpt lat="46.87123" lon="8.47013">
        <ele>2250</ele>
        <time>2021-08-12T08:32:34.392Z</time>
      </trkpt>
      <trkpt lat="46.87122" lon="8.47013">
        <ele>2250</ele>
        <time>2021-08-12T08:32:35.392Z</time>
      </trkpt>
      <trkpt lat="46.87121" lon="8.47013">
        <ele>2250</ele>
        <time>2021-08-12T08:32:36.392Z</time>
      </trkpt>
      <trkpt lat="46.8712" lon="8.47013">
        <ele>2250</ele>
        <time>2021-08-12T08:32:37.392Z</time>
      </trkpt>
      <trkpt lat="46.87119" lon="8.47013">
        <ele>2250</ele>
        <time>2021-08-12T08:32:38.392Z</time>
      </trkpt>
      <trkpt lat="46.87118" lon="8.47012">
        <ele>2250</ele>
        <time>2021-08-12T08:32:39.392Z</time>
      </trkpt>
      <trkpt lat="46.87116" lon="8.47013">
        <ele>2250</ele>
        <time>2021-08-12T08:32:40.392Z</time>
      </trkpt>
      <trkpt lat="46.87115" lon="8.47014">
        <ele>2249</ele>
        <time>2021-08-12T08:32:41.392Z</time>
      </trkpt>
      <trkpt lat="46.87114" lon="8.47014">
        <ele>2249</ele>
        <time>2021-08-12T08:32:42.393Z</time>
      </trkpt>
      <trkpt lat="46.87113" lon="8.47014">
        <ele>2249</ele>
        <time>2021-08-12T08:32:43.392Z</time>
      </trkpt>
      <trkpt lat="46.87112" lon="8.47015">
        <ele>2248</ele>
        <time>2021-08-12T08:32:44.392Z</time>
      </trkpt>
      <trkpt lat="46.8711" lon="8.47015">
        <ele>2248</ele>
        <time>2021-08-12T08:32:45.392Z</time>
      </trkpt>
      <trkpt lat="46.87109" lon="8.47015">
        <ele>2248</ele>
        <time>2021-08-12T08:32:46.392Z</time>
      </trkpt>
      <trkpt lat="46.87107" lon="8.47014">
        <ele>2249</ele>
        <time>2021-08-12T08:32:47.392Z</time>
      </trkpt>
      <trkpt lat="46.87106" lon="8.47013">
        <ele>2249</ele>
        <time>2021-08-12T08:32:48.392Z</time>
      </trkpt>
      <trkpt lat="46.87105" lon="8.47013">
        <ele>2249</ele>
        <time>2021-08-12T08:32:49.392Z</time>
      </trkpt>
      <trkpt lat="46.87104" lon="8.47014">
        <ele>2250</ele>
        <time>2021-08-12T08:32:50.393Z</time>
      </trkpt>
      <trkpt lat="46.87103" lon="8.47014">
        <ele>2250</ele>
        <time>2021-08-12T08:32:51.392Z</time>
      </trkpt>
      <trkpt lat="46.87102" lon="8.47015">
        <ele>2250</ele>
        <time>2021-08-12T08:32:52.392Z</time>
      </trkpt>
      <trkpt lat="46.871" lon="8.47015">
        <ele>2251</ele>
        <time>2021-08-12T08:32:53.392Z</time>
      </trkpt>
      <trkpt lat="46.871" lon="8.47016">
        <ele>2251</ele>
        <time>2021-08-12T08:32:54.393Z</time>
      </trkpt>
      <trkpt lat="46.87098" lon="8.47016">
        <ele>2251</ele>
        <time>2021-08-12T08:32:55.392Z</time>
      </trkpt>
      <trkpt lat="46.87097" lon="8.47016">
        <ele>2251</ele>
        <time>2021-08-12T08:32:56.392Z</time>
      </trkpt>
      <trkpt lat="46.87096" lon="8.47017">
        <ele>2251</ele>
        <time>2021-08-12T08:32:57.393Z</time>
      </trkpt>
      <trkpt lat="46.87095" lon="8.47017">
        <ele>2251</ele>
        <time>2021-08-12T08:32:58.393Z</time>
      </trkpt>
      <trkpt lat="46.87094" lon="8.47018">
        <ele>2251</ele>
        <time>2021-08-12T08:32:59.393Z</time>
      </trkpt>
      <trkpt lat="46.87093" lon="8.47018">
        <ele>2251</ele>
        <time>2021-08-12T08:33:00.393Z</time>
      </trkpt>
      <trkpt lat="46.87092" lon="8.47018">
        <ele>2251</ele>
        <time>2021-08-12T08:33:01.393Z</time>
      </trkpt>
      <trkpt lat="46.87091" lon="8.47019">
        <ele>2251</ele>
        <time>2021-08-12T08:33:02.393Z</time>
      </trkpt>
      <trkpt lat="46.8709" lon="8.47019">
        <ele>2251</ele>
        <time>2021-08-12T08:33:03.393Z</time>
      </trkpt>
      <trkpt lat="46.87089" lon="8.47019">
        <ele>2251</ele>
        <time>2021-08-12T08:33:04.393Z</time>
      </trkpt>
      <trkpt lat="46.87088" lon="8.47019">
        <ele>2251</ele>
        <time>2021-08-12T08:33:05.392Z</time>
      </trkpt>
      <trkpt lat="46.87087" lon="8.47019">
        <ele>2251</ele>
        <time>2021-08-12T08:33:06.393Z</time>
      </trkpt>
      <trkpt lat="46.87086" lon="8.47019">
        <ele>2251</ele>
        <time>2021-08-12T08:33:07.393Z</time>
      </trkpt>
      <trkpt lat="46.87084" lon="8.47019">
        <ele>2251</ele>
        <time>2021-08-12T08:33:08.392Z</time>
      </trkpt>
      <trkpt lat="46.87084" lon="8.47018">
        <ele>2250</ele>
        <time>2021-08-12T08:33:09.393Z</time>
      </trkpt>
      <trkpt lat="46.87083" lon="8.47019">
        <ele>2250</ele>
        <time>2021-08-12T08:33:10.393Z</time>
      </trkpt>
      <trkpt lat="46.87083" lon="8.47019">
        <ele>2250</ele>
        <time>2021-08-12T08:33:11.392Z</time>
      </trkpt>
      <trkpt lat="46.87081" lon="8.47019">
        <ele>2249</ele>
        <time>2021-08-12T08:33:12.393Z</time>
      </trkpt>
      <trkpt lat="46.87081" lon="8.47019">
        <ele>2249</ele>
        <time>2021-08-12T08:33:13.393Z</time>
      </trkpt>
      <trkpt lat="46.8708" lon="8.4702">
        <ele>2249</ele>
        <time>2021-08-12T08:33:14.393Z</time>
      </trkpt>
      <trkpt lat="46.87079" lon="8.47021">
        <ele>2248</ele>
        <time>2021-08-12T08:33:15.393Z</time>
      </trkpt>
      <trkpt lat="46.87078" lon="8.47021">
        <ele>2248</ele>
        <time>2021-08-12T08:33:16.392Z</time>
      </trkpt>
      <trkpt lat="46.87077" lon="8.47021">
        <ele>2248</ele>
        <time>2021-08-12T08:33:17.393Z</time>
      </trkpt>
      <trkpt lat="46.87076" lon="8.47021">
        <ele>2248</ele>
        <time>2021-08-12T08:33:18.392Z</time>
      </trkpt>
      <trkpt lat="46.87075" lon="8.47021">
        <ele>2248</ele>
        <time>2021-08-12T08:33:19.393Z</time>
      </trkpt>
      <trkpt lat="46.87074" lon="8.47021">
        <ele>2248</ele>
        <time>2021-08-12T08:33:20.393Z</time>
      </trkpt>
      <trkpt lat="46.87073" lon="8.47021">
        <ele>2248</ele>
        <time>2021-08-12T08:33:21.393Z</time>
      </trkpt>
      <trkpt lat="46.87072" lon="8.4702">
        <ele>2248</ele>
        <time>2021-08-12T08:33:22.393Z</time>
      </trkpt>
      <trkpt lat="46.87071" lon="8.4702">
        <ele>2249</ele>
        <time>2021-08-12T08:33:23.393Z</time>
      </trkpt>
      <trkpt lat="46.8707" lon="8.4702">
        <ele>2249</ele>
        <time>2021-08-12T08:33:24.392Z</time>
      </trkpt>
      <trkpt lat="46.87069" lon="8.4702">
        <ele>2249</ele>
        <time>2021-08-12T08:33:25.393Z</time>
      </trkpt>
      <trkpt lat="46.87068" lon="8.4702">
        <ele>2248</ele>
        <time>2021-08-12T08:33:26.393Z</time>
      </trkpt>
      <trkpt lat="46.87067" lon="8.47019">
        <ele>2248</ele>
        <time>2021-08-12T08:33:27.393Z</time>
      </trkpt>
      <trkpt lat="46.87066" lon="8.47019">
        <ele>2248</ele>
        <time>2021-08-12T08:33:28.393Z</time>
      </trkpt>
      <trkpt lat="46.87065" lon="8.47018">
        <ele>2248</ele>
        <time>2021-08-12T08:33:29.393Z</time>
      </trkpt>
      <trkpt lat="46.87065" lon="8.47017">
        <ele>2249</ele>
        <time>2021-08-12T08:33:30.393Z</time>
      </trkpt>
      <trkpt lat="46.87064" lon="8.47017">
        <ele>2249</ele>
        <time>2021-08-12T08:33:31.393Z</time>
      </trkpt>
      <trkpt lat="46.87064" lon="8.47017">
        <ele>2250</ele>
        <time>2021-08-12T08:33:32.393Z</time>
      </trkpt>
      <trkpt lat="46.87063" lon="8.47017">
        <ele>2250</ele>
        <time>2021-08-12T08:33:33.392Z</time>
      </trkpt>
      <trkpt lat="46.87062" lon="8.47018">
        <ele>2250</ele>
        <time>2021-08-12T08:33:34.392Z</time>
      </trkpt>
      <trkpt lat="46.87061" lon="8.47017">
        <ele>2251</ele>
        <time>2021-08-12T08:33:35.392Z</time>
      </trkpt>
      <trkpt lat="46.87061" lon="8.47017">
        <ele>2251</ele>
        <time>2021-08-12T08:33:36.393Z</time>
      </trkpt>
      <trkpt lat="46.8706" lon="8.47016">
        <ele>2250</ele>
        <time>2021-08-12T08:33:37.393Z</time>
      </trkpt>
      <trkpt lat="46.87059" lon="8.47016">
        <ele>2251</ele>
        <time>2021-08-12T08:33:38.392Z</time>
      </trkpt>
      <trkpt lat="46.87058" lon="8.47016">
        <ele>2251</ele>
        <time>2021-08-12T08:33:39.393Z</time>
      </trkpt>
      <trkpt lat="46.87057" lon="8.47016">
        <ele>2251</ele>
        <time>2021-08-12T08:33:40.392Z</time>
      </trkpt>
      <trkpt lat="46.87056" lon="8.47015">
        <ele>2251</ele>
        <time>2021-08-12T08:33:41.392Z</time>
      </trkpt>
      <trkpt lat="46.87055" lon="8.47015">
        <ele>2252</ele>
        <time>2021-08-12T08:33:42.393Z</time>
      </trkpt>
      <trkpt lat="46.87054" lon="8.47015">
        <ele>2252</ele>
        <time>2021-08-12T08:33:43.393Z</time>
      </trkpt>
      <trkpt lat="46.87053" lon="8.47015">
        <ele>2252</ele>
        <time>2021-08-12T08:33:44.393Z</time>
      </trkpt>
      <trkpt lat="46.87053" lon="8.47016">
        <ele>2252</ele>
        <time>2021-08-12T08:33:45.392Z</time>
      </trkpt>
      <trkpt lat="46.87052" lon="8.47016">
        <ele>2251</ele>
        <time>2021-08-12T08:33:46.393Z</time>
      </trkpt>
      <trkpt lat="46.87051" lon="8.47016">
        <ele>2250</ele>
        <time>2021-08-12T08:33:47.393Z</time>
      </trkpt>
      <trkpt lat="46.8705" lon="8.47016">
        <ele>2250</ele>
        <time>2021-08-12T08:33:48.392Z</time>
      </trkpt>
      <trkpt lat="46.8705" lon="8.47016">
        <ele>2250</ele>
        <time>2021-08-12T08:33:49.393Z</time>
      </trkpt>
      <trkpt lat="46.87049" lon="8.47016">
        <ele>2249</ele>
        <time>2021-08-12T08:33:50.392Z</time>
      </trkpt>
      <trkpt lat="46.87048" lon="8.47017">
        <ele>2249</ele>
        <time>2021-08-12T08:33:51.393Z</time>
      </trkpt>
      <trkpt lat="46.87047" lon="8.47016">
        <ele>2249</ele>
        <time>2021-08-12T08:33:52.393Z</time>
      </trkpt>
      <trkpt lat="46.87047" lon="8.47016">
        <ele>2249</ele>
        <time>2021-08-12T08:33:53.393Z</time>
      </trkpt>
      <trkpt lat="46.87046" lon="8.47016">
        <ele>2249</ele>
        <time>2021-08-12T08:33:54.393Z</time>
      </trkpt>
      <trkpt lat="46.87046" lon="8.47016">
        <ele>2249</ele>
        <time>2021-08-12T08:33:55.392Z</time>
      </trkpt>
      <trkpt lat="46.87046" lon="8.47016">
        <ele>2249</ele>
        <time>2021-08-12T08:33:56.392Z</time>
      </trkpt>
      <trkpt lat="46.87046" lon="8.47017">
        <ele>2250</ele>
        <time>2021-08-12T08:33:57.393Z</time>
      </trkpt>
      <trkpt lat="46.87046" lon="8.47018">
        <ele>2250</ele>
        <time>2021-08-12T08:33:58.393Z</time>
      </trkpt>
      <trkpt lat="46.87045" lon="8.47018">
        <ele>2251</ele>
        <time>2021-08-12T08:33:59.393Z</time>
      </trkpt>
      <trkpt lat="46.87044" lon="8.47018">
        <ele>2251</ele>
        <time>2021-08-12T08:34:00.393Z</time>
      </trkpt>
      <trkpt lat="46.87044" lon="8.47019">
        <ele>2251</ele>
        <time>2021-08-12T08:34:01.392Z</time>
      </trkpt>
      <trkpt lat="46.87044" lon="8.4702">
        <ele>2251</ele>
        <time>2021-08-12T08:34:02.393Z</time>
      </trkpt>
      <trkpt lat="46.87043" lon="8.47019">
        <ele>2251</ele>
        <time>2021-08-12T08:34:03.393Z</time>
      </trkpt>
      <trkpt lat="46.87042" lon="8.47019">
        <ele>2251</ele>
        <time>2021-08-12T08:34:04.393Z</time>
      </trkpt>
      <trkpt lat="46.8704" lon="8.4702">
        <ele>2250</ele>
        <time>2021-08-12T08:34:05.394Z</time>
      </trkpt>
      <trkpt lat="46.87039" lon="8.4702">
        <ele>2249</ele>
        <time>2021-08-12T08:34:06.394Z</time>
      </trkpt>
      <trkpt lat="46.87039" lon="8.4702">
        <ele>2249</ele>
        <time>2021-08-12T08:34:07.394Z</time>
      </trkpt>
      <trkpt lat="46.87039" lon="8.47019">
        <ele>2250</ele>
        <time>2021-08-12T08:34:08.394Z</time>
      </trkpt>
      <trkpt lat="46.87039" lon="8.47019">
        <ele>2250</ele>
        <time>2021-08-12T08:34:09.394Z</time>
      </trkpt>
      <trkpt lat="46.8704" lon="8.47021">
        <ele>2249</ele>
        <time>2021-08-12T08:34:10.394Z</time>
      </trkpt>
      <trkpt lat="46.87039" lon="8.47021">
        <ele>2249</ele>
        <time>2021-08-12T08:34:11.394Z</time>
      </trkpt>
      <trkpt lat="46.87038" lon="8.47021">
        <ele>2249</ele>
        <time>2021-08-12T08:34:12.395Z</time>
      </trkpt>
      <trkpt lat="46.87037" lon="8.47021">
        <ele>2249</ele>
        <time>2021-08-12T08:34:13.394Z</time>
      </trkpt>
      <trkpt lat="46.87036" lon="8.47021">
        <ele>2249</ele>
        <time>2021-08-12T08:34:14.394Z</time>
      </trkpt>
      <trkpt lat="46.87035" lon="8.4702">
        <ele>2249</ele>
        <time>2021-08-12T08:34:15.394Z</time>
      </trkpt>
      <trkpt lat="46.87034" lon="8.4702">
        <ele>2249</ele>
        <time>2021-08-12T08:34:16.395Z</time>
      </trkpt>
      <trkpt lat="46.87033" lon="8.47019">
        <ele>2250</ele>
        <time>2021-08-12T08:34:17.394Z</time>
      </trkpt>
      <trkpt lat="46.87033" lon="8.47019">
        <ele>2250</ele>
        <time>2021-08-12T08:34:18.395Z</time>
      </trkpt>
      <trkpt lat="46.87032" lon="8.47019">
        <ele>2250</ele>
        <time>2021-08-12T08:34:19.394Z</time>
      </trkpt>
      <trkpt lat="46.87032" lon="8.47019">
        <ele>2250</ele>
        <time>2021-08-12T08:34:20.394Z</time>
      </trkpt>
      <trkpt lat="46.87031" lon="8.4702">
        <ele>2250</ele>
        <time>2021-08-12T08:34:21.394Z</time>
      </trkpt>
      <trkpt lat="46.87031" lon="8.4702">
        <ele>2250</ele>
        <time>2021-08-12T08:34:22.394Z</time>
      </trkpt>
      <trkpt lat="46.8703" lon="8.4702">
        <ele>2250</ele>
        <time>2021-08-12T08:34:23.394Z</time>
      </trkpt>
      <trkpt lat="46.87029" lon="8.47019">
        <ele>2250</ele>
        <time>2021-08-12T08:34:24.395Z</time>
      </trkpt>
      <trkpt lat="46.87029" lon="8.47018">
        <ele>2250</ele>
        <time>2021-08-12T08:34:25.395Z</time>
      </trkpt>
      <trkpt lat="46.87028" lon="8.47019">
        <ele>2251</ele>
        <time>2021-08-12T08:34:26.394Z</time>
      </trkpt>
      <trkpt lat="46.87028" lon="8.47018">
        <ele>2251</ele>
        <time>2021-08-12T08:34:27.395Z</time>
      </trkpt>
      <trkpt lat="46.87027" lon="8.47018">
        <ele>2251</ele>
        <time>2021-08-12T08:34:28.395Z</time>
      </trkpt>
      <trkpt lat="46.87027" lon="8.47018">
        <ele>2251</ele>
        <time>2021-08-12T08:34:29.395Z</time>
      </trkpt>
      <trkpt lat="46.87026" lon="8.47018">
        <ele>2251</ele>
        <time>2021-08-12T08:34:30.394Z</time>
      </trkpt>
      <trkpt lat="46.87025" lon="8.47018">
        <ele>2252</ele>
        <time>2021-08-12T08:34:31.395Z</time>
      </trkpt>
      <trkpt lat="46.87024" lon="8.47018">
        <ele>2252</ele>
        <time>2021-08-12T08:34:32.395Z</time>
      </trkpt>
      <trkpt lat="46.87023" lon="8.47018">
        <ele>2252</ele>
        <time>2021-08-12T08:34:33.394Z</time>
      </trkpt>
      <trkpt lat="46.87023" lon="8.47018">
        <ele>2252</ele>
        <time>2021-08-12T08:34:34.395Z</time>
      </trkpt>
      <trkpt lat="46.87023" lon="8.47018">
        <ele>2252</ele>
        <time>2021-08-12T08:34:35.394Z</time>
      </trkpt>
      <trkpt lat="46.87022" lon="8.47018">
        <ele>2253</ele>
        <time>2021-08-12T08:34:36.395Z</time>
      </trkpt>
      <trkpt lat="46.87022" lon="8.47018">
        <ele>2252</ele>
        <time>2021-08-12T08:34:37.394Z</time>
      </trkpt>
      <trkpt lat="46.87021" lon="8.47018">
        <ele>2253</ele>
        <time>2021-08-12T08:34:38.395Z</time>
      </trkpt>
      <trkpt lat="46.8702" lon="8.47018">
        <ele>2253</ele>
        <time>2021-08-12T08:34:39.395Z</time>
      </trkpt>
      <trkpt lat="46.87019" lon="8.47017">
        <ele>2253</ele>
        <time>2021-08-12T08:34:40.395Z</time>
      </trkpt>
      <trkpt lat="46.87018" lon="8.47017">
        <ele>2253</ele>
        <time>2021-08-12T08:34:41.395Z</time>
      </trkpt>
      <trkpt lat="46.87018" lon="8.47017">
        <ele>2253</ele>
        <time>2021-08-12T08:34:42.395Z</time>
      </trkpt>
      <trkpt lat="46.87017" lon="8.47017">
        <ele>2252</ele>
        <time>2021-08-12T08:34:43.395Z</time>
      </trkpt>
      <trkpt lat="46.87016" lon="8.47017">
        <ele>2252</ele>
        <time>2021-08-12T08:34:44.394Z</time>
      </trkpt>
      <trkpt lat="46.87016" lon="8.47017">
        <ele>2252</ele>
        <time>2021-08-12T08:34:45.394Z</time>
      </trkpt>
      <trkpt lat="46.87015" lon="8.47017">
        <ele>2253</ele>
        <time>2021-08-12T08:34:46.394Z</time>
      </trkpt>
      <trkpt lat="46.87015" lon="8.47017">
        <ele>2253</ele>
        <time>2021-08-12T08:34:47.395Z</time>
      </trkpt>
      <trkpt lat="46.87014" lon="8.47017">
        <ele>2253</ele>
        <time>2021-08-12T08:34:48.394Z</time>
      </trkpt>
      <trkpt lat="46.87014" lon="8.47016">
        <ele>2253</ele>
        <time>2021-08-12T08:34:49.395Z</time>
      </trkpt>
      <trkpt lat="46.87013" lon="8.47016">
        <ele>2253</ele>
        <time>2021-08-12T08:34:50.394Z</time>
      </trkpt>
      <trkpt lat="46.87013" lon="8.47015">
        <ele>2254</ele>
        <time>2021-08-12T08:34:51.395Z</time>
      </trkpt>
      <trkpt lat="46.87012" lon="8.47015">
        <ele>2254</ele>
        <time>2021-08-12T08:34:52.395Z</time>
      </trkpt>
      <trkpt lat="46.87012" lon="8.47015">
        <ele>2254</ele>
        <time>2021-08-12T08:34:53.395Z</time>
      </trkpt>
      <trkpt lat="46.87011" lon="8.47015">
        <ele>2259</ele>
        <time>2021-08-12T08:34:54.395Z</time>
      </trkpt>
      <trkpt lat="46.8701" lon="8.47015">
        <ele>2259</ele>
        <time>2021-08-12T08:34:55.395Z</time>
      </trkpt>
      <trkpt lat="46.87009" lon="8.47015">
        <ele>2259</ele>
        <time>2021-08-12T08:34:56.395Z</time>
      </trkpt>
      <trkpt lat="46.87009" lon="8.47015">
        <ele>2259</ele>
        <time>2021-08-12T08:34:57.395Z</time>
      </trkpt>
      <trkpt lat="46.87008" lon="8.47014">
        <ele>2259</ele>
        <time>2021-08-12T08:34:58.395Z</time>
      </trkpt>
      <trkpt lat="46.87008" lon="8.47014">
        <ele>2259</ele>
        <time>2021-08-12T08:34:59.395Z</time>
      </trkpt>
      <trkpt lat="46.87007" lon="8.47014">
        <ele>2259</ele>
        <time>2021-08-12T08:35:00.395Z</time>
      </trkpt>
      <trkpt lat="46.87007" lon="8.47015">
        <ele>2259</ele>
        <time>2021-08-12T08:35:01.395Z</time>
      </trkpt>
      <trkpt lat="46.87007" lon="8.47015">
        <ele>2259</ele>
        <time>2021-08-12T08:35:02.395Z</time>
      </trkpt>
      <trkpt lat="46.87006" lon="8.47016">
        <ele>2258</ele>
        <time>2021-08-12T08:35:03.395Z</time>
      </trkpt>
      <trkpt lat="46.87006" lon="8.47016">
        <ele>2258</ele>
        <time>2021-08-12T08:35:04.395Z</time>
      </trkpt>
      <trkpt lat="46.87005" lon="8.47017">
        <ele>2254</ele>
        <time>2021-08-12T08:35:05.396Z</time>
      </trkpt>
      <trkpt lat="46.87005" lon="8.47016">
        <ele>2254</ele>
        <time>2021-08-12T08:35:06.396Z</time>
      </trkpt>
      <trkpt lat="46.87004" lon="8.47017">
        <ele>2253</ele>
        <time>2021-08-12T08:35:07.395Z</time>
      </trkpt>
      <trkpt lat="46.87004" lon="8.47017">
        <ele>2253</ele>
        <time>2021-08-12T08:35:08.395Z</time>
      </trkpt>
      <trkpt lat="46.87004" lon="8.47017">
        <ele>2253</ele>
        <time>2021-08-12T08:35:09.396Z</time>
      </trkpt>
      <trkpt lat="46.87004" lon="8.47017">
        <ele>2253</ele>
        <time>2021-08-12T08:35:10.396Z</time>
      </trkpt>
      <trkpt lat="46.87003" lon="8.47016">
        <ele>2253</ele>
        <time>2021-08-12T08:35:11.395Z</time>
      </trkpt>
      <trkpt lat="46.87003" lon="8.47016">
        <ele>2252</ele>
        <time>2021-08-12T08:35:12.396Z</time>
      </trkpt>
      <trkpt lat="46.87003" lon="8.47016">
        <ele>2252</ele>
        <time>2021-08-12T08:35:13.396Z</time>
      </trkpt>
      <trkpt lat="46.87003" lon="8.47017">
        <ele>2253</ele>
        <time>2021-08-12T08:35:14.396Z</time>
      </trkpt>
      <trkpt lat="46.87007" lon="8.47024">
        <ele>2253</ele>
        <time>2021-08-12T08:35:15.397Z</time>
      </trkpt>
      <trkpt lat="46.87006" lon="8.47027">
        <ele>2250</ele>
        <time>2021-08-12T08:35:16.396Z</time>
      </trkpt>
      <trkpt lat="46.87007" lon="8.47026">
        <ele>2250</ele>
        <time>2021-08-12T08:35:17.397Z</time>
      </trkpt>
      <trkpt lat="46.87007" lon="8.47026">
        <ele>2250</ele>
        <time>2021-08-12T08:35:18.396Z</time>
      </trkpt>
      <trkpt lat="46.87007" lon="8.47024">
        <ele>2251</ele>
        <time>2021-08-12T08:35:19.398Z</time>
      </trkpt>
      <trkpt lat="46.87008" lon="8.47024">
        <ele>2252</ele>
        <time>2021-08-12T08:35:20.398Z</time>
      </trkpt>
      <trkpt lat="46.87008" lon="8.47024">
        <ele>2252</ele>
        <time>2021-08-12T08:35:21.397Z</time>
      </trkpt>
      <trkpt lat="46.87008" lon="8.47024">
        <ele>2253</ele>
        <time>2021-08-12T08:35:22.397Z</time>
      </trkpt>
      <trkpt lat="46.87008" lon="8.47024">
        <ele>2253</ele>
        <time>2021-08-12T08:35:23.398Z</time>
      </trkpt>
      <trkpt lat="46.87008" lon="8.47024">
        <ele>2253</ele>
        <time>2021-08-12T08:35:24.398Z</time>
      </trkpt>
      <trkpt lat="46.87009" lon="8.47024">
        <ele>2252</ele>
        <time>2021-08-12T08:35:25.398Z</time>
      </trkpt>
      <trkpt lat="46.8701" lon="8.47024">
        <ele>2252</ele>
        <time>2021-08-12T08:35:26.397Z</time>
      </trkpt>
      <trkpt lat="46.8701" lon="8.47025">
        <ele>2252</ele>
        <time>2021-08-12T08:35:27.397Z</time>
      </trkpt>
      <trkpt lat="46.87011" lon="8.47025">
        <ele>2252</ele>
        <time>2021-08-12T08:35:28.397Z</time>
      </trkpt>
      <trkpt lat="46.87011" lon="8.47023">
        <ele>2252</ele>
        <time>2021-08-12T08:35:29.398Z</time>
      </trkpt>
      <trkpt lat="46.87012" lon="8.47022">
        <ele>2253</ele>
        <time>2021-08-12T08:35:30.398Z</time>
      </trkpt>
      <trkpt lat="46.87011" lon="8.47021">
        <ele>2251</ele>
        <time>2021-08-12T08:35:31.398Z</time>
      </trkpt>
      <trkpt lat="46.87011" lon="8.47022">
        <ele>2249</ele>
        <time>2021-08-12T08:35:32.398Z</time>
      </trkpt>
      <trkpt lat="46.87012" lon="8.47022">
        <ele>2247</ele>
        <time>2021-08-12T08:35:33.398Z</time>
      </trkpt>
      <trkpt lat="46.87012" lon="8.47022">
        <ele>2243</ele>
        <time>2021-08-12T08:35:34.399Z</time>
      </trkpt>
      <trkpt lat="46.87012" lon="8.47022">
        <ele>2243</ele>
        <time>2021-08-12T08:35:35.400Z</time>
      </trkpt>
      <trkpt lat="46.87013" lon="8.47022">
        <ele>2243</ele>
        <time>2021-08-12T08:35:36.399Z</time>
      </trkpt>
      <trkpt lat="46.87013" lon="8.47022">
        <ele>2244</ele>
        <time>2021-08-12T08:35:37.400Z</time>
      </trkpt>
      <trkpt lat="46.87013" lon="8.47023">
        <ele>2244</ele>
        <time>2021-08-12T08:35:38.400Z</time>
      </trkpt>
      <trkpt lat="46.87013" lon="8.47023">
        <ele>2245</ele>
        <time>2021-08-12T08:35:39.399Z</time>
      </trkpt>
      <trkpt lat="46.87013" lon="8.47023">
        <ele>2245</ele>
        <time>2021-08-12T08:35:40.400Z</time>
      </trkpt>
      <trkpt lat="46.87014" lon="8.47023">
        <ele>2246</ele>
        <time>2021-08-12T08:35:41.400Z</time>
      </trkpt>
      <trkpt lat="46.87014" lon="8.47023">
        <ele>2246</ele>
        <time>2021-08-12T08:35:42.400Z</time>
      </trkpt>
      <trkpt lat="46.87015" lon="8.47023">
        <ele>2246</ele>
        <time>2021-08-12T08:35:43.400Z</time>
      </trkpt>
      <trkpt lat="46.87014" lon="8.47024">
        <ele>2247</ele>
        <time>2021-08-12T08:35:44.400Z</time>
      </trkpt>
      <trkpt lat="46.87014" lon="8.47024">
        <ele>2247</ele>
        <time>2021-08-12T08:35:45.399Z</time>
      </trkpt>
      <trkpt lat="46.87014" lon="8.47025">
        <ele>2248</ele>
        <time>2021-08-12T08:35:46.400Z</time>
      </trkpt>
      <trkpt lat="46.87014" lon="8.47025">
        <ele>2248</ele>
        <time>2021-08-12T08:35:47.399Z</time>
      </trkpt>
      <trkpt lat="46.87014" lon="8.47026">
        <ele>2249</ele>
        <time>2021-08-12T08:35:48.400Z</time>
      </trkpt>
      <trkpt lat="46.87015" lon="8.47026">
        <ele>2250</ele>
        <time>2021-08-12T08:35:49.400Z</time>
      </trkpt>
      <trkpt lat="46.87015" lon="8.47027">
        <ele>2251</ele>
        <time>2021-08-12T08:35:50.400Z</time>
      </trkpt>
      <trkpt lat="46.87015" lon="8.47028">
        <ele>2251</ele>
        <time>2021-08-12T08:35:51.400Z</time>
      </trkpt>
      <trkpt lat="46.87015" lon="8.47028">
        <ele>2252</ele>
        <time>2021-08-12T08:35:52.400Z</time>
      </trkpt>
      <trkpt lat="46.87015" lon="8.47029">
        <ele>2252</ele>
        <time>2021-08-12T08:35:53.400Z</time>
      </trkpt>
      <trkpt lat="46.87015" lon="8.4703">
        <ele>2253</ele>
        <time>2021-08-12T08:35:54.400Z</time>
      </trkpt>
      <trkpt lat="46.87015" lon="8.47031">
        <ele>2253</ele>
        <time>2021-08-12T08:35:55.400Z</time>
      </trkpt>
      <trkpt lat="46.87016" lon="8.47028">
        <ele>2250</ele>
        <time>2021-08-12T08:35:56.400Z</time>
      </trkpt>
      <trkpt lat="46.87016" lon="8.47027">
        <ele>2251</ele>
        <time>2021-08-12T08:35:57.400Z</time>
      </trkpt>
      <trkpt lat="46.87017" lon="8.47027">
        <ele>2251</ele>
        <time>2021-08-12T08:35:58.400Z</time>
      </trkpt>
      <trkpt lat="46.87017" lon="8.47028">
        <ele>2252</ele>
        <time>2021-08-12T08:35:59.400Z</time>
      </trkpt>
      <trkpt lat="46.87017" lon="8.47028">
        <ele>2254</ele>
        <time>2021-08-12T08:36:00.399Z</time>
      </trkpt>
      <trkpt lat="46.87018" lon="8.47031">
        <ele>2250</ele>
        <time>2021-08-12T08:36:01.400Z</time>
      </trkpt>
      <trkpt lat="46.87018" lon="8.47031">
        <ele>2250</ele>
        <time>2021-08-12T08:36:02.400Z</time>
      </trkpt>
      <trkpt lat="46.87019" lon="8.47031">
        <ele>2249</ele>
        <time>2021-08-12T08:36:03.401Z</time>
      </trkpt>
      <trkpt lat="46.87019" lon="8.47032">
        <ele>2249</ele>
        <time>2021-08-12T08:36:04.401Z</time>
      </trkpt>
      <trkpt lat="46.87019" lon="8.47032">
        <ele>2249</ele>
        <time>2021-08-12T08:36:05.400Z</time>
      </trkpt>
      <trkpt lat="46.87019" lon="8.47032">
        <ele>2248</ele>
        <time>2021-08-12T08:36:06.400Z</time>
      </trkpt>
      <trkpt lat="46.87019" lon="8.47033">
        <ele>2248</ele>
        <time>2021-08-12T08:36:07.400Z</time>
      </trkpt>
      <trkpt lat="46.87019" lon="8.47033">
        <ele>2248</ele>
        <time>2021-08-12T08:36:08.400Z</time>
      </trkpt>
      <trkpt lat="46.8702" lon="8.47034">
        <ele>2247</ele>
        <time>2021-08-12T08:36:09.400Z</time>
      </trkpt>
      <trkpt lat="46.8702" lon="8.47034">
        <ele>2247</ele>
        <time>2021-08-12T08:36:10.400Z</time>
      </trkpt>
      <trkpt lat="46.87019" lon="8.4703">
        <ele>2248</ele>
        <time>2021-08-12T08:36:11.401Z</time>
      </trkpt>
      <trkpt lat="46.87019" lon="8.47026">
        <ele>2250</ele>
        <time>2021-08-12T08:36:12.401Z</time>
      </trkpt>
      <trkpt lat="46.87017" lon="8.47026">
        <ele>2250</ele>
        <time>2021-08-12T08:36:13.401Z</time>
      </trkpt>
      <trkpt lat="46.87016" lon="8.47026">
        <ele>2250</ele>
        <time>2021-08-12T08:36:14.401Z</time>
      </trkpt>
      <trkpt lat="46.87016" lon="8.47025">
        <ele>2250</ele>
        <time>2021-08-12T08:36:15.400Z</time>
      </trkpt>
      <trkpt lat="46.87016" lon="8.47026">
        <ele>2250</ele>
        <time>2021-08-12T08:36:16.401Z</time>
      </trkpt>
      <trkpt lat="46.87015" lon="8.47025">
        <ele>2250</ele>
        <time>2021-08-12T08:36:17.401Z</time>
      </trkpt>
      <trkpt lat="46.87016" lon="8.47026">
        <ele>2250</ele>
        <time>2021-08-12T08:36:18.400Z</time>
      </trkpt>
      <trkpt lat="46.87015" lon="8.47026">
        <ele>2249</ele>
        <time>2021-08-12T08:36:19.401Z</time>
      </trkpt>
      <trkpt lat="46.87015" lon="8.47026">
        <ele>2249</ele>
        <time>2021-08-12T08:36:20.401Z</time>
      </trkpt>
      <trkpt lat="46.87014" lon="8.47025">
        <ele>2248</ele>
        <time>2021-08-12T08:36:21.401Z</time>
      </trkpt>
      <trkpt lat="46.87013" lon="8.47026">
        <ele>2248</ele>
        <time>2021-08-12T08:36:22.401Z</time>
      </trkpt>
      <trkpt lat="46.87013" lon="8.47025">
        <ele>2248</ele>
        <time>2021-08-12T08:36:23.401Z</time>
      </trkpt>
      <trkpt lat="46.87012" lon="8.47026">
        <ele>2247</ele>
        <time>2021-08-12T08:36:24.401Z</time>
      </trkpt>
      <trkpt lat="46.87011" lon="8.47026">
        <ele>2247</ele>
        <time>2021-08-12T08:36:25.400Z</time>
      </trkpt>
      <trkpt lat="46.87011" lon="8.47026">
        <ele>2248</ele>
        <time>2021-08-12T08:36:26.400Z</time>
      </trkpt>
      <trkpt lat="46.8701" lon="8.47026">
        <ele>2248</ele>
        <time>2021-08-12T08:36:27.401Z</time>
      </trkpt>
      <trkpt lat="46.8701" lon="8.47026">
        <ele>2248</ele>
        <time>2021-08-12T08:36:28.401Z</time>
      </trkpt>
      <trkpt lat="46.87009" lon="8.47026">
        <ele>2248</ele>
        <time>2021-08-12T08:36:29.401Z</time>
      </trkpt>
      <trkpt lat="46.87008" lon="8.47027">
        <ele>2248</ele>
        <time>2021-08-12T08:36:30.400Z</time>
      </trkpt>
      <trkpt lat="46.87008" lon="8.47027">
        <ele>2248</ele>
        <time>2021-08-12T08:36:31.400Z</time>
      </trkpt>
      <trkpt lat="46.87007" lon="8.47027">
        <ele>2247</ele>
        <time>2021-08-12T08:36:32.400Z</time>
      </trkpt>
      <trkpt lat="46.87006" lon="8.47026">
        <ele>2247</ele>
        <time>2021-08-12T08:36:33.401Z</time>
      </trkpt>
      <trkpt lat="46.87006" lon="8.47026">
        <ele>2247</ele>
        <time>2021-08-12T08:36:34.401Z</time>
      </trkpt>
      <trkpt lat="46.87005" lon="8.47026">
        <ele>2247</ele>
        <time>2021-08-12T08:36:35.401Z</time>
      </trkpt>
      <trkpt lat="46.87005" lon="8.47026">
        <ele>2248</ele>
        <time>2021-08-12T08:36:36.401Z</time>
      </trkpt>
      <trkpt lat="46.87004" lon="8.47026">
        <ele>2248</ele>
        <time>2021-08-12T08:36:37.401Z</time>
      </trkpt>
      <trkpt lat="46.87003" lon="8.47026">
        <ele>2248</ele>
        <time>2021-08-12T08:36:38.401Z</time>
      </trkpt>
      <trkpt lat="46.87003" lon="8.47026">
        <ele>2248</ele>
        <time>2021-08-12T08:36:39.401Z</time>
      </trkpt>
      <trkpt lat="46.87002" lon="8.47026">
        <ele>2248</ele>
        <time>2021-08-12T08:36:40.400Z</time>
      </trkpt>
      <trkpt lat="46.87002" lon="8.47026">
        <ele>2248</ele>
        <time>2021-08-12T08:36:41.401Z</time>
      </trkpt>
      <trkpt lat="46.87001" lon="8.47027">
        <ele>2248</ele>
        <time>2021-08-12T08:36:42.400Z</time>
      </trkpt>
      <trkpt lat="46.87001" lon="8.47027">
        <ele>2248</ele>
        <time>2021-08-12T08:36:43.401Z</time>
      </trkpt>
      <trkpt lat="46.87001" lon="8.47027">
        <ele>2249</ele>
        <time>2021-08-12T08:36:44.401Z</time>
      </trkpt>
      <trkpt lat="46.87" lon="8.47027">
        <ele>2249</ele>
        <time>2021-08-12T08:36:45.401Z</time>
      </trkpt>
      <trkpt lat="46.87" lon="8.47027">
        <ele>2249</ele>
        <time>2021-08-12T08:36:46.400Z</time>
      </trkpt>
      <trkpt lat="46.86999" lon="8.47028">
        <ele>2254</ele>
        <time>2021-08-12T08:36:47.402Z</time>
      </trkpt>
      <trkpt lat="46.86999" lon="8.47028">
        <ele>2254</ele>
        <time>2021-08-12T08:36:48.402Z</time>
      </trkpt>
      <trkpt lat="46.86998" lon="8.47028">
        <ele>2254</ele>
        <time>2021-08-12T08:36:49.401Z</time>
      </trkpt>
      <trkpt lat="46.86998" lon="8.47029">
        <ele>2254</ele>
        <time>2021-08-12T08:36:50.401Z</time>
      </trkpt>
      <trkpt lat="46.86998" lon="8.47029">
        <ele>2254</ele>
        <time>2021-08-12T08:36:51.402Z</time>
      </trkpt>
      <trkpt lat="46.86998" lon="8.4703">
        <ele>2253</ele>
        <time>2021-08-12T08:36:52.401Z</time>
      </trkpt>
      <trkpt lat="46.86997" lon="8.47031">
        <ele>2254</ele>
        <time>2021-08-12T08:36:53.402Z</time>
      </trkpt>
      <trkpt lat="46.86996" lon="8.47032">
        <ele>2254</ele>
        <time>2021-08-12T08:36:54.402Z</time>
      </trkpt>
      <trkpt lat="46.86996" lon="8.47032">
        <ele>2254</ele>
        <time>2021-08-12T08:36:55.401Z</time>
      </trkpt>
      <trkpt lat="46.86998" lon="8.47031">
        <ele>2249</ele>
        <time>2021-08-12T08:36:56.402Z</time>
      </trkpt>
      <trkpt lat="46.86998" lon="8.47032">
        <ele>2248</ele>
        <time>2021-08-12T08:36:57.401Z</time>
      </trkpt>
      <trkpt lat="46.86999" lon="8.47032">
        <ele>2248</ele>
        <time>2021-08-12T08:36:58.402Z</time>
      </trkpt>
      <trkpt lat="46.86999" lon="8.47032">
        <ele>2248</ele>
        <time>2021-08-12T08:36:59.401Z</time>
      </trkpt>
      <trkpt lat="46.86999" lon="8.47031">
        <ele>2248</ele>
        <time>2021-08-12T08:37:00.401Z</time>
      </trkpt>
      <trkpt lat="46.87" lon="8.47031">
        <ele>2248</ele>
        <time>2021-08-12T08:37:01.401Z</time>
      </trkpt>
      <trkpt lat="46.87" lon="8.47036">
        <ele>2246</ele>
        <time>2021-08-12T08:37:02.403Z</time>
      </trkpt>
      <trkpt lat="46.87" lon="8.47036">
        <ele>2246</ele>
        <time>2021-08-12T08:37:03.402Z</time>
      </trkpt>
      <trkpt lat="46.87" lon="8.47037">
        <ele>2246</ele>
        <time>2021-08-12T08:37:04.402Z</time>
      </trkpt>
      <trkpt lat="46.87" lon="8.47038">
        <ele>2246</ele>
        <time>2021-08-12T08:37:05.403Z</time>
      </trkpt>
      <trkpt lat="46.86999" lon="8.47039">
        <ele>2246</ele>
        <time>2021-08-12T08:37:06.403Z</time>
      </trkpt>
      <trkpt lat="46.87" lon="8.47039">
        <ele>2246</ele>
        <time>2021-08-12T08:37:07.403Z</time>
      </trkpt>
      <trkpt lat="46.87" lon="8.47039">
        <ele>2246</ele>
        <time>2021-08-12T08:37:08.403Z</time>
      </trkpt>
      <trkpt lat="46.87001" lon="8.47039">
        <ele>2246</ele>
        <time>2021-08-12T08:37:09.402Z</time>
      </trkpt>
      <trkpt lat="46.87001" lon="8.47039">
        <ele>2245</ele>
        <time>2021-08-12T08:37:10.404Z</time>
      </trkpt>
      <trkpt lat="46.87001" lon="8.47038">
        <ele>2245</ele>
        <time>2021-08-12T08:37:11.404Z</time>
      </trkpt>
      <trkpt lat="46.87001" lon="8.47038">
        <ele>2245</ele>
        <time>2021-08-12T08:37:12.403Z</time>
      </trkpt>
      <trkpt lat="46.87001" lon="8.47038">
        <ele>2245</ele>
        <time>2021-08-12T08:37:13.404Z</time>
      </trkpt>
      <trkpt lat="46.87" lon="8.47038">
        <ele>2245</ele>
        <time>2021-08-12T08:37:14.403Z</time>
      </trkpt>
      <trkpt lat="46.87" lon="8.47038">
        <ele>2245</ele>
        <time>2021-08-12T08:37:15.403Z</time>
      </trkpt>
      <trkpt lat="46.87003" lon="8.4704">
        <ele>2246</ele>
        <time>2021-08-12T08:37:16.405Z</time>
      </trkpt>
      <trkpt lat="46.87003" lon="8.4704">
        <ele>2246</ele>
        <time>2021-08-12T08:37:17.405Z</time>
      </trkpt>
      <trkpt lat="46.87003" lon="8.47041">
        <ele>2246</ele>
        <time>2021-08-12T08:37:18.404Z</time>
      </trkpt>
      <trkpt lat="46.87003" lon="8.47041">
        <ele>2246</ele>
        <time>2021-08-12T08:37:19.405Z</time>
      </trkpt>
      <trkpt lat="46.87004" lon="8.47042">
        <ele>2246</ele>
        <time>2021-08-12T08:37:20.405Z</time>
      </trkpt>
      <trkpt lat="46.87004" lon="8.47042">
        <ele>2246</ele>
        <time>2021-08-12T08:37:21.404Z</time>
      </trkpt>
      <trkpt lat="46.87005" lon="8.47043">
        <ele>2246</ele>
        <time>2021-08-12T08:37:22.404Z</time>
      </trkpt>
      <trkpt lat="46.87005" lon="8.47043">
        <ele>2246</ele>
        <time>2021-08-12T08:37:23.404Z</time>
      </trkpt>
      <trkpt lat="46.87006" lon="8.47043">
        <ele>2246</ele>
        <time>2021-08-12T08:37:24.404Z</time>
      </trkpt>
      <trkpt lat="46.87006" lon="8.47043">
        <ele>2246</ele>
        <time>2021-08-12T08:37:25.404Z</time>
      </trkpt>
      <trkpt lat="46.87006" lon="8.47043">
        <ele>2245</ele>
        <time>2021-08-12T08:37:26.404Z</time>
      </trkpt>
      <trkpt lat="46.87006" lon="8.47044">
        <ele>2245</ele>
        <time>2021-08-12T08:37:27.404Z</time>
      </trkpt>
      <trkpt lat="46.87006" lon="8.47044">
        <ele>2245</ele>
        <time>2021-08-12T08:37:28.404Z</time>
      </trkpt>
      <trkpt lat="46.87007" lon="8.47041">
        <ele>2244</ele>
        <time>2021-08-12T08:37:29.405Z</time>
      </trkpt>
      <trkpt lat="46.87007" lon="8.4704">
        <ele>2245</ele>
        <time>2021-08-12T08:37:30.405Z</time>
      </trkpt>
      <trkpt lat="46.87008" lon="8.47037">
        <ele>2246</ele>
        <time>2021-08-12T08:37:31.404Z</time>
      </trkpt>
      <trkpt lat="46.87008" lon="8.47037">
        <ele>2246</ele>
        <time>2021-08-12T08:37:32.404Z</time>
      </trkpt>
      <trkpt lat="46.87008" lon="8.47039">
        <ele>2249</ele>
        <time>2021-08-12T08:37:33.405Z</time>
      </trkpt>
      <trkpt lat="46.87008" lon="8.4704">
        <ele>2245</ele>
        <time>2021-08-12T08:37:34.406Z</time>
      </trkpt>
      <trkpt lat="46.87008" lon="8.47041">
        <ele>2244</ele>
        <time>2021-08-12T08:37:35.406Z</time>
      </trkpt>
      <trkpt lat="46.87008" lon="8.4704">
        <ele>2244</ele>
        <time>2021-08-12T08:37:36.405Z</time>
      </trkpt>
      <trkpt lat="46.87007" lon="8.4704">
        <ele>2242</ele>
        <time>2021-08-12T08:37:37.405Z</time>
      </trkpt>
      <trkpt lat="46.87007" lon="8.4704">
        <ele>2242</ele>
        <time>2021-08-12T08:37:38.405Z</time>
      </trkpt>
      <trkpt lat="46.87007" lon="8.4704">
        <ele>2243</ele>
        <time>2021-08-12T08:37:39.405Z</time>
      </trkpt>
      <trkpt lat="46.87006" lon="8.4704">
        <ele>2243</ele>
        <time>2021-08-12T08:37:40.405Z</time>
      </trkpt>
      <trkpt lat="46.87006" lon="8.47041">
        <ele>2244</ele>
        <time>2021-08-12T08:37:41.406Z</time>
      </trkpt>
      <trkpt lat="46.87005" lon="8.47041">
        <ele>2244</ele>
        <time>2021-08-12T08:37:42.405Z</time>
      </trkpt>
      <trkpt lat="46.87004" lon="8.47042">
        <ele>2245</ele>
        <time>2021-08-12T08:37:43.405Z</time>
      </trkpt>
      <trkpt lat="46.87004" lon="8.47042">
        <ele>2245</ele>
        <time>2021-08-12T08:37:44.405Z</time>
      </trkpt>
      <trkpt lat="46.87003" lon="8.47043">
        <ele>2246</ele>
        <time>2021-08-12T08:37:45.405Z</time>
      </trkpt>
      <trkpt lat="46.87002" lon="8.47043">
        <ele>2246</ele>
        <time>2021-08-12T08:37:46.405Z</time>
      </trkpt>
      <trkpt lat="46.87002" lon="8.47044">
        <ele>2246</ele>
        <time>2021-08-12T08:37:47.405Z</time>
      </trkpt>
      <trkpt lat="46.87001" lon="8.47045">
        <ele>2246</ele>
        <time>2021-08-12T08:37:48.405Z</time>
      </trkpt>
      <trkpt lat="46.87" lon="8.47046">
        <ele>2246</ele>
        <time>2021-08-12T08:37:49.406Z</time>
      </trkpt>
      <trkpt lat="46.86999" lon="8.47047">
        <ele>2246</ele>
        <time>2021-08-12T08:37:50.406Z</time>
      </trkpt>
      <trkpt lat="46.86999" lon="8.47048">
        <ele>2246</ele>
        <time>2021-08-12T08:37:51.406Z</time>
      </trkpt>
      <trkpt lat="46.86998" lon="8.47049">
        <ele>2245</ele>
        <time>2021-08-12T08:37:52.406Z</time>
      </trkpt>
      <trkpt lat="46.86998" lon="8.4705">
        <ele>2245</ele>
        <time>2021-08-12T08:37:53.406Z</time>
      </trkpt>
      <trkpt lat="46.86997" lon="8.4705">
        <ele>2244</ele>
        <time>2021-08-12T08:37:54.405Z</time>
      </trkpt>
      <trkpt lat="46.86997" lon="8.47051">
        <ele>2244</ele>
        <time>2021-08-12T08:37:55.405Z</time>
      </trkpt>
      <trkpt lat="46.86996" lon="8.47051">
        <ele>2244</ele>
        <time>2021-08-12T08:37:56.406Z</time>
      </trkpt>
      <trkpt lat="46.86996" lon="8.47052">
        <ele>2244</ele>
        <time>2021-08-12T08:37:57.406Z</time>
      </trkpt>
      <trkpt lat="46.86995" lon="8.47052">
        <ele>2244</ele>
        <time>2021-08-12T08:37:58.406Z</time>
      </trkpt>
      <trkpt lat="46.86995" lon="8.47053">
        <ele>2245</ele>
        <time>2021-08-12T08:37:59.405Z</time>
      </trkpt>
      <trkpt lat="46.86994" lon="8.47054">
        <ele>2245</ele>
        <time>2021-08-12T08:38:00.406Z</time>
      </trkpt>
      <trkpt lat="46.86994" lon="8.47055">
        <ele>2244</ele>
        <time>2021-08-12T08:38:01.406Z</time>
      </trkpt>
      <trkpt lat="46.86993" lon="8.47056">
        <ele>2244</ele>
        <time>2021-08-12T08:38:02.406Z</time>
      </trkpt>
      <trkpt lat="46.86993" lon="8.47056">
        <ele>2244</ele>
        <time>2021-08-12T08:38:03.406Z</time>
      </trkpt>
      <trkpt lat="46.86993" lon="8.47057">
        <ele>2244</ele>
        <time>2021-08-12T08:38:04.406Z</time>
      </trkpt>
      <trkpt lat="46.86992" lon="8.47057">
        <ele>2244</ele>
        <time>2021-08-12T08:38:05.406Z</time>
      </trkpt>
      <trkpt lat="46.86992" lon="8.47058">
        <ele>2244</ele>
        <time>2021-08-12T08:38:06.406Z</time>
      </trkpt>
      <trkpt lat="46.86991" lon="8.47058">
        <ele>2243</ele>
        <time>2021-08-12T08:38:07.405Z</time>
      </trkpt>
      <trkpt lat="46.8699" lon="8.47058">
        <ele>2243</ele>
        <time>2021-08-12T08:38:08.405Z</time>
      </trkpt>
      <trkpt lat="46.86989" lon="8.47059">
        <ele>2242</ele>
        <time>2021-08-12T08:38:09.406Z</time>
      </trkpt>
      <trkpt lat="46.86989" lon="8.47059">
        <ele>2242</ele>
        <time>2021-08-12T08:38:10.405Z</time>
      </trkpt>
      <trkpt lat="46.86988" lon="8.4706">
        <ele>2242</ele>
        <time>2021-08-12T08:38:11.406Z</time>
      </trkpt>
      <trkpt lat="46.86987" lon="8.47061">
        <ele>2241</ele>
        <time>2021-08-12T08:38:12.406Z</time>
      </trkpt>
      <trkpt lat="46.86987" lon="8.47061">
        <ele>2241</ele>
        <time>2021-08-12T08:38:13.405Z</time>
      </trkpt>
      <trkpt lat="46.86987" lon="8.47063">
        <ele>2241</ele>
        <time>2021-08-12T08:38:14.406Z</time>
      </trkpt>
      <trkpt lat="46.86986" lon="8.47063">
        <ele>2240</ele>
        <time>2021-08-12T08:38:15.406Z</time>
      </trkpt>
      <trkpt lat="46.86986" lon="8.47064">
        <ele>2241</ele>
        <time>2021-08-12T08:38:16.406Z</time>
      </trkpt>
      <trkpt lat="46.86985" lon="8.47064">
        <ele>2241</ele>
        <time>2021-08-12T08:38:17.406Z</time>
      </trkpt>
      <trkpt lat="46.86985" lon="8.47065">
        <ele>2241</ele>
        <time>2021-08-12T08:38:18.406Z</time>
      </trkpt>
      <trkpt lat="46.86984" lon="8.47066">
        <ele>2242</ele>
        <time>2021-08-12T08:38:19.406Z</time>
      </trkpt>
      <trkpt lat="46.86984" lon="8.47067">
        <ele>2242</ele>
        <time>2021-08-12T08:38:20.406Z</time>
      </trkpt>
      <trkpt lat="46.86984" lon="8.47068">
        <ele>2243</ele>
        <time>2021-08-12T08:38:21.405Z</time>
      </trkpt>
      <trkpt lat="46.86984" lon="8.47069">
        <ele>2243</ele>
        <time>2021-08-12T08:38:22.405Z</time>
      </trkpt>
      <trkpt lat="46.86983" lon="8.47072">
        <ele>2244</ele>
        <time>2021-08-12T08:38:23.405Z</time>
      </trkpt>
      <trkpt lat="46.86982" lon="8.47073">
        <ele>2244</ele>
        <time>2021-08-12T08:38:24.406Z</time>
      </trkpt>
      <trkpt lat="46.86982" lon="8.47074">
        <ele>2244</ele>
        <time>2021-08-12T08:38:25.406Z</time>
      </trkpt>
      <trkpt lat="46.86982" lon="8.47074">
        <ele>2244</ele>
        <time>2021-08-12T08:38:26.406Z</time>
      </trkpt>
      <trkpt lat="46.86982" lon="8.47075">
        <ele>2244</ele>
        <time>2021-08-12T08:38:27.405Z</time>
      </trkpt>
      <trkpt lat="46.86981" lon="8.47076">
        <ele>2243</ele>
        <time>2021-08-12T08:38:28.406Z</time>
      </trkpt>
      <trkpt lat="46.86981" lon="8.47076">
        <ele>2243</ele>
        <time>2021-08-12T08:38:29.405Z</time>
      </trkpt>
      <trkpt lat="46.86981" lon="8.47077">
        <ele>2243</ele>
        <time>2021-08-12T08:38:30.405Z</time>
      </trkpt>
      <trkpt lat="46.86981" lon="8.47078">
        <ele>2243</ele>
        <time>2021-08-12T08:38:31.405Z</time>
      </trkpt>
      <trkpt lat="46.86981" lon="8.47079">
        <ele>2243</ele>
        <time>2021-08-12T08:38:32.406Z</time>
      </trkpt>
      <trkpt lat="46.8698" lon="8.47079">
        <ele>2243</ele>
        <time>2021-08-12T08:38:33.406Z</time>
      </trkpt>
      <trkpt lat="46.8698" lon="8.4708">
        <ele>2242</ele>
        <time>2021-08-12T08:38:34.406Z</time>
      </trkpt>
      <trkpt lat="46.8698" lon="8.4708">
        <ele>2242</ele>
        <time>2021-08-12T08:38:35.406Z</time>
      </trkpt>
      <trkpt lat="46.86979" lon="8.4708">
        <ele>2241</ele>
        <time>2021-08-12T08:38:36.406Z</time>
      </trkpt>
      <trkpt lat="46.86978" lon="8.47082">
        <ele>2241</ele>
        <time>2021-08-12T08:38:37.405Z</time>
      </trkpt>
      <trkpt lat="46.86978" lon="8.47084">
        <ele>2241</ele>
        <time>2021-08-12T08:38:38.406Z</time>
      </trkpt>
      <trkpt lat="46.86977" lon="8.47085">
        <ele>2241</ele>
        <time>2021-08-12T08:38:39.406Z</time>
      </trkpt>
      <trkpt lat="46.86977" lon="8.47086">
        <ele>2241</ele>
        <time>2021-08-12T08:38:40.406Z</time>
      </trkpt>
      <trkpt lat="46.86977" lon="8.47087">
        <ele>2241</ele>
        <time>2021-08-12T08:38:41.406Z</time>
      </trkpt>
      <trkpt lat="46.86977" lon="8.47088">
        <ele>2240</ele>
        <time>2021-08-12T08:38:42.405Z</time>
      </trkpt>
      <trkpt lat="46.86976" lon="8.47089">
        <ele>2240</ele>
        <time>2021-08-12T08:38:43.406Z</time>
      </trkpt>
      <trkpt lat="46.86976" lon="8.47091">
        <ele>2240</ele>
        <time>2021-08-12T08:38:44.406Z</time>
      </trkpt>
      <trkpt lat="46.86976" lon="8.47092">
        <ele>2239</ele>
        <time>2021-08-12T08:38:45.406Z</time>
      </trkpt>
      <trkpt lat="46.86975" lon="8.47093">
        <ele>2239</ele>
        <time>2021-08-12T08:38:46.406Z</time>
      </trkpt>
      <trkpt lat="46.86975" lon="8.47094">
        <ele>2239</ele>
        <time>2021-08-12T08:38:47.406Z</time>
      </trkpt>
      <trkpt lat="46.86975" lon="8.47095">
        <ele>2239</ele>
        <time>2021-08-12T08:38:48.406Z</time>
      </trkpt>
      <trkpt lat="46.86974" lon="8.47097">
        <ele>2239</ele>
        <time>2021-08-12T08:38:49.406Z</time>
      </trkpt>
      <trkpt lat="46.86974" lon="8.47098">
        <ele>2238</ele>
        <time>2021-08-12T08:38:50.406Z</time>
      </trkpt>
      <trkpt lat="46.86973" lon="8.47098">
        <ele>2237</ele>
        <time>2021-08-12T08:38:51.406Z</time>
      </trkpt>
      <trkpt lat="46.86973" lon="8.47099">
        <ele>2235</ele>
        <time>2021-08-12T08:38:52.405Z</time>
      </trkpt>
      <trkpt lat="46.86973" lon="8.471">
        <ele>2234</ele>
        <time>2021-08-12T08:38:53.405Z</time>
      </trkpt>
      <trkpt lat="46.86972" lon="8.47102">
        <ele>2233</ele>
        <time>2021-08-12T08:38:54.406Z</time>
      </trkpt>
      <trkpt lat="46.86972" lon="8.47103">
        <ele>2233</ele>
        <time>2021-08-12T08:38:55.405Z</time>
      </trkpt>
      <trkpt lat="46.86972" lon="8.47104">
        <ele>2232</ele>
        <time>2021-08-12T08:38:56.406Z</time>
      </trkpt>
      <trkpt lat="46.86971" lon="8.47106">
        <ele>2232</ele>
        <time>2021-08-12T08:38:57.406Z</time>
      </trkpt>
      <trkpt lat="46.86971" lon="8.47107">
        <ele>2232</ele>
        <time>2021-08-12T08:38:58.405Z</time>
      </trkpt>
      <trkpt lat="46.86971" lon="8.47108">
        <ele>2231</ele>
        <time>2021-08-12T08:38:59.406Z</time>
      </trkpt>
      <trkpt lat="46.86971" lon="8.47109">
        <ele>2231</ele>
        <time>2021-08-12T08:39:00.406Z</time>
      </trkpt>
      <trkpt lat="46.86971" lon="8.47111">
        <ele>2230</ele>
        <time>2021-08-12T08:39:01.406Z</time>
      </trkpt>
      <trkpt lat="46.86971" lon="8.47112">
        <ele>2230</ele>
        <time>2021-08-12T08:39:02.405Z</time>
      </trkpt>
      <trkpt lat="46.86971" lon="8.47113">
        <ele>2230</ele>
        <time>2021-08-12T08:39:03.406Z</time>
      </trkpt>
      <trkpt lat="46.86971" lon="8.47115">
        <ele>2230</ele>
        <time>2021-08-12T08:39:04.405Z</time>
      </trkpt>
      <trkpt lat="46.86971" lon="8.47115">
        <ele>2230</ele>
        <time>2021-08-12T08:39:05.406Z</time>
      </trkpt>
      <trkpt lat="46.86971" lon="8.47115">
        <ele>2230</ele>
        <time>2021-08-12T08:39:06.405Z</time>
      </trkpt>
      <trkpt lat="46.8697" lon="8.47115">
        <ele>2230</ele>
        <time>2021-08-12T08:39:07.406Z</time>
      </trkpt>
      <trkpt lat="46.8697" lon="8.47116">
        <ele>2231</ele>
        <time>2021-08-12T08:39:08.406Z</time>
      </trkpt>
      <trkpt lat="46.86969" lon="8.47116">
        <ele>2232</ele>
        <time>2021-08-12T08:39:09.405Z</time>
      </trkpt>
      <trkpt lat="46.86969" lon="8.47117">
        <ele>2232</ele>
        <time>2021-08-12T08:39:10.405Z</time>
      </trkpt>
      <trkpt lat="46.86968" lon="8.47119">
        <ele>2233</ele>
        <time>2021-08-12T08:39:11.405Z</time>
      </trkpt>
      <trkpt lat="46.86968" lon="8.4712">
        <ele>2233</ele>
        <time>2021-08-12T08:39:12.406Z</time>
      </trkpt>
      <trkpt lat="46.86968" lon="8.4712">
        <ele>2233</ele>
        <time>2021-08-12T08:39:13.406Z</time>
      </trkpt>
      <trkpt lat="46.86968" lon="8.4712">
        <ele>2232</ele>
        <time>2021-08-12T08:39:14.405Z</time>
      </trkpt>
      <trkpt lat="46.86968" lon="8.47121">
        <ele>2232</ele>
        <time>2021-08-12T08:39:15.406Z</time>
      </trkpt>
      <trkpt lat="46.86967" lon="8.47122">
        <ele>2232</ele>
        <time>2021-08-12T08:39:16.406Z</time>
      </trkpt>
      <trkpt lat="46.86967" lon="8.47123">
        <ele>2233</ele>
        <time>2021-08-12T08:39:17.407Z</time>
      </trkpt>
      <trkpt lat="46.86966" lon="8.47124">
        <ele>2233</ele>
        <time>2021-08-12T08:39:18.406Z</time>
      </trkpt>
      <trkpt lat="46.86966" lon="8.47124">
        <ele>2233</ele>
        <time>2021-08-12T08:39:19.406Z</time>
      </trkpt>
      <trkpt lat="46.86965" lon="8.47125">
        <ele>2233</ele>
        <time>2021-08-12T08:39:20.407Z</time>
      </trkpt>
      <trkpt lat="46.86965" lon="8.47126">
        <ele>2234</ele>
        <time>2021-08-12T08:39:21.407Z</time>
      </trkpt>
      <trkpt lat="46.86965" lon="8.47127">
        <ele>2234</ele>
        <time>2021-08-12T08:39:22.406Z</time>
      </trkpt>
      <trkpt lat="46.86964" lon="8.47128">
        <ele>2234</ele>
        <time>2021-08-12T08:39:23.406Z</time>
      </trkpt>
      <trkpt lat="46.86963" lon="8.47129">
        <ele>2234</ele>
        <time>2021-08-12T08:39:24.406Z</time>
      </trkpt>
      <trkpt lat="46.86962" lon="8.4713">
        <ele>2234</ele>
        <time>2021-08-12T08:39:25.407Z</time>
      </trkpt>
      <trkpt lat="46.86962" lon="8.47131">
        <ele>2234</ele>
        <time>2021-08-12T08:39:26.406Z</time>
      </trkpt>
      <trkpt lat="46.86961" lon="8.47131">
        <ele>2233</ele>
        <time>2021-08-12T08:39:27.406Z</time>
      </trkpt>
      <trkpt lat="46.86961" lon="8.47133">
        <ele>2232</ele>
        <time>2021-08-12T08:39:28.406Z</time>
      </trkpt>
      <trkpt lat="46.8696" lon="8.47134">
        <ele>2232</ele>
        <time>2021-08-12T08:39:29.407Z</time>
      </trkpt>
      <trkpt lat="46.8696" lon="8.47134">
        <ele>2231</ele>
        <time>2021-08-12T08:39:30.407Z</time>
      </trkpt>
      <trkpt lat="46.8696" lon="8.47135">
        <ele>2231</ele>
        <time>2021-08-12T08:39:31.406Z</time>
      </trkpt>
      <trkpt lat="46.86959" lon="8.47135">
        <ele>2231</ele>
        <time>2021-08-12T08:39:32.406Z</time>
      </trkpt>
      <trkpt lat="46.86958" lon="8.47136">
        <ele>2230</ele>
        <time>2021-08-12T08:39:33.406Z</time>
      </trkpt>
      <trkpt lat="46.86958" lon="8.47136">
        <ele>2230</ele>
        <time>2021-08-12T08:39:34.407Z</time>
      </trkpt>
      <trkpt lat="46.86958" lon="8.47137">
        <ele>2233</ele>
        <time>2021-08-12T08:39:35.408Z</time>
      </trkpt>
      <trkpt lat="46.86958" lon="8.47138">
        <ele>2233</ele>
        <time>2021-08-12T08:39:36.407Z</time>
      </trkpt>
      <trkpt lat="46.86957" lon="8.47138">
        <ele>2233</ele>
        <time>2021-08-12T08:39:37.407Z</time>
      </trkpt>
      <trkpt lat="46.86957" lon="8.47139">
        <ele>2233</ele>
        <time>2021-08-12T08:39:38.407Z</time>
      </trkpt>
      <trkpt lat="46.86957" lon="8.4714">
        <ele>2233</ele>
        <time>2021-08-12T08:39:39.407Z</time>
      </trkpt>
      <trkpt lat="46.86956" lon="8.4714">
        <ele>2233</ele>
        <time>2021-08-12T08:39:40.407Z</time>
      </trkpt>
      <trkpt lat="46.86956" lon="8.47141">
        <ele>2232</ele>
        <time>2021-08-12T08:39:41.407Z</time>
      </trkpt>
      <trkpt lat="46.86956" lon="8.47142">
        <ele>2231</ele>
        <time>2021-08-12T08:39:42.407Z</time>
      </trkpt>
      <trkpt lat="46.86956" lon="8.47142">
        <ele>2230</ele>
        <time>2021-08-12T08:39:43.407Z</time>
      </trkpt>
      <trkpt lat="46.86958" lon="8.47142">
        <ele>2226</ele>
        <time>2021-08-12T08:39:44.409Z</time>
      </trkpt>
      <trkpt lat="46.86958" lon="8.47141">
        <ele>2226</ele>
        <time>2021-08-12T08:39:45.409Z</time>
      </trkpt>
      <trkpt lat="46.86957" lon="8.47141">
        <ele>2227</ele>
        <time>2021-08-12T08:39:46.408Z</time>
      </trkpt>
      <trkpt lat="46.86957" lon="8.47141">
        <ele>2227</ele>
        <time>2021-08-12T08:39:47.408Z</time>
      </trkpt>
      <trkpt lat="46.86956" lon="8.47142">
        <ele>2227</ele>
        <time>2021-08-12T08:39:48.409Z</time>
      </trkpt>
      <trkpt lat="46.86955" lon="8.47142">
        <ele>2228</ele>
        <time>2021-08-12T08:39:49.408Z</time>
      </trkpt>
      <trkpt lat="46.86954" lon="8.47142">
        <ele>2228</ele>
        <time>2021-08-12T08:39:50.409Z</time>
      </trkpt>
      <trkpt lat="46.86952" lon="8.47142">
        <ele>2228</ele>
        <time>2021-08-12T08:39:51.409Z</time>
      </trkpt>
      <trkpt lat="46.86952" lon="8.47142">
        <ele>2228</ele>
        <time>2021-08-12T08:39:52.408Z</time>
      </trkpt>
      <trkpt lat="46.86951" lon="8.47143">
        <ele>2228</ele>
        <time>2021-08-12T08:39:53.409Z</time>
      </trkpt>
      <trkpt lat="46.8695" lon="8.47143">
        <ele>2229</ele>
        <time>2021-08-12T08:39:54.409Z</time>
      </trkpt>
      <trkpt lat="46.8695" lon="8.47144">
        <ele>2229</ele>
        <time>2021-08-12T08:39:55.409Z</time>
      </trkpt>
      <trkpt lat="46.86949" lon="8.47144">
        <ele>2228</ele>
        <time>2021-08-12T08:39:56.408Z</time>
      </trkpt>
      <trkpt lat="46.86949" lon="8.47144">
        <ele>2228</ele>
        <time>2021-08-12T08:39:57.409Z</time>
      </trkpt>
      <trkpt lat="46.86949" lon="8.47144">
        <ele>2228</ele>
        <time>2021-08-12T08:39:58.408Z</time>
      </trkpt>
      <trkpt lat="46.86949" lon="8.47145">
        <ele>2227</ele>
        <time>2021-08-12T08:39:59.409Z</time>
      </trkpt>
      <trkpt lat="46.86949" lon="8.47145">
        <ele>2227</ele>
        <time>2021-08-12T08:40:00.409Z</time>
      </trkpt>
      <trkpt lat="46.86948" lon="8.47145">
        <ele>2227</ele>
        <time>2021-08-12T08:40:01.408Z</time>
      </trkpt>
      <trkpt lat="46.86948" lon="8.47145">
        <ele>2227</ele>
        <time>2021-08-12T08:40:02.408Z</time>
      </trkpt>
      <trkpt lat="46.86948" lon="8.47145">
        <ele>2227</ele>
        <time>2021-08-12T08:40:03.408Z</time>
      </trkpt>
      <trkpt lat="46.86948" lon="8.47146">
        <ele>2226</ele>
        <time>2021-08-12T08:40:04.408Z</time>
      </trkpt>
      <trkpt lat="46.86948" lon="8.47147">
        <ele>2226</ele>
        <time>2021-08-12T08:40:05.409Z</time>
      </trkpt>
      <trkpt lat="46.86948" lon="8.47147">
        <ele>2226</ele>
        <time>2021-08-12T08:40:06.409Z</time>
      </trkpt>
      <trkpt lat="46.86947" lon="8.47149">
        <ele>2224</ele>
        <time>2021-08-12T08:40:07.410Z</time>
      </trkpt>
      <trkpt lat="46.86947" lon="8.47149">
        <ele>2224</ele>
        <time>2021-08-12T08:40:08.410Z</time>
      </trkpt>
      <trkpt lat="46.86947" lon="8.47151">
        <ele>2224</ele>
        <time>2021-08-12T08:40:09.409Z</time>
      </trkpt>
      <trkpt lat="46.86947" lon="8.47151">
        <ele>2224</ele>
        <time>2021-08-12T08:40:10.410Z</time>
      </trkpt>
      <trkpt lat="46.86947" lon="8.47152">
        <ele>2224</ele>
        <time>2021-08-12T08:40:11.410Z</time>
      </trkpt>
      <trkpt lat="46.86946" lon="8.47153">
        <ele>2224</ele>
        <time>2021-08-12T08:40:12.410Z</time>
      </trkpt>
      <trkpt lat="46.86946" lon="8.47153">
        <ele>2224</ele>
        <time>2021-08-12T08:40:13.410Z</time>
      </trkpt>
      <trkpt lat="46.86946" lon="8.47154">
        <ele>2224</ele>
        <time>2021-08-12T08:40:14.410Z</time>
      </trkpt>
      <trkpt lat="46.86946" lon="8.47155">
        <ele>2224</ele>
        <time>2021-08-12T08:40:15.410Z</time>
      </trkpt>
      <trkpt lat="46.86946" lon="8.47155">
        <ele>2225</ele>
        <time>2021-08-12T08:40:16.410Z</time>
      </trkpt>
      <trkpt lat="46.86946" lon="8.47156">
        <ele>2225</ele>
        <time>2021-08-12T08:40:17.409Z</time>
      </trkpt>
      <trkpt lat="46.86945" lon="8.47156">
        <ele>2225</ele>
        <time>2021-08-12T08:40:18.410Z</time>
      </trkpt>
      <trkpt lat="46.86945" lon="8.47157">
        <ele>2226</ele>
        <time>2021-08-12T08:40:19.410Z</time>
      </trkpt>
      <trkpt lat="46.86945" lon="8.47157">
        <ele>2226</ele>
        <time>2021-08-12T08:40:20.410Z</time>
      </trkpt>
      <trkpt lat="46.86945" lon="8.47158">
        <ele>2227</ele>
        <time>2021-08-12T08:40:21.409Z</time>
      </trkpt>
      <trkpt lat="46.86945" lon="8.47159">
        <ele>2228</ele>
        <time>2021-08-12T08:40:22.409Z</time>
      </trkpt>
      <trkpt lat="46.86944" lon="8.4716">
        <ele>2229</ele>
        <time>2021-08-12T08:40:23.410Z</time>
      </trkpt>
      <trkpt lat="46.86944" lon="8.4716">
        <ele>2229</ele>
        <time>2021-08-12T08:40:24.410Z</time>
      </trkpt>
      <trkpt lat="46.86944" lon="8.47161">
        <ele>2229</ele>
        <time>2021-08-12T08:40:25.410Z</time>
      </trkpt>
      <trkpt lat="46.86944" lon="8.47161">
        <ele>2229</ele>
        <time>2021-08-12T08:40:26.410Z</time>
      </trkpt>
      <trkpt lat="46.86945" lon="8.47162">
        <ele>2229</ele>
        <time>2021-08-12T08:40:27.410Z</time>
      </trkpt>
      <trkpt lat="46.86944" lon="8.47163">
        <ele>2229</ele>
        <time>2021-08-12T08:40:28.410Z</time>
      </trkpt>
      <trkpt lat="46.86944" lon="8.47163">
        <ele>2229</ele>
        <time>2021-08-12T08:40:29.409Z</time>
      </trkpt>
      <trkpt lat="46.86944" lon="8.47163">
        <ele>2228</ele>
        <time>2021-08-12T08:40:30.410Z</time>
      </trkpt>
      <trkpt lat="46.86944" lon="8.47164">
        <ele>2228</ele>
        <time>2021-08-12T08:40:31.409Z</time>
      </trkpt>
      <trkpt lat="46.86945" lon="8.47164">
        <ele>2224</ele>
        <time>2021-08-12T08:40:32.409Z</time>
      </trkpt>
      <trkpt lat="46.86945" lon="8.47163">
        <ele>2224</ele>
        <time>2021-08-12T08:40:33.409Z</time>
      </trkpt>
      <trkpt lat="46.86943" lon="8.47165">
        <ele>2222</ele>
        <time>2021-08-12T08:40:34.410Z</time>
      </trkpt>
      <trkpt lat="46.86943" lon="8.47166">
        <ele>2221</ele>
        <time>2021-08-12T08:40:35.410Z</time>
      </trkpt>
      <trkpt lat="46.86942" lon="8.47166">
        <ele>2221</ele>
        <time>2021-08-12T08:40:36.409Z</time>
      </trkpt>
      <trkpt lat="46.86942" lon="8.47167">
        <ele>2221</ele>
        <time>2021-08-12T08:40:37.410Z</time>
      </trkpt>
      <trkpt lat="46.86942" lon="8.47167">
        <ele>2220</ele>
        <time>2021-08-12T08:40:38.409Z</time>
      </trkpt>
      <trkpt lat="46.86941" lon="8.47167">
        <ele>2220</ele>
        <time>2021-08-12T08:40:39.410Z</time>
      </trkpt>
      <trkpt lat="46.86941" lon="8.47167">
        <ele>2220</ele>
        <time>2021-08-12T08:40:40.409Z</time>
      </trkpt>
      <trkpt lat="46.86939" lon="8.47171">
        <ele>2227</ele>
        <time>2021-08-12T08:40:41.411Z</time>
      </trkpt>
      <trkpt lat="46.86939" lon="8.47171">
        <ele>2228</ele>
        <time>2021-08-12T08:40:42.411Z</time>
      </trkpt>
      <trkpt lat="46.86937" lon="8.47173">
        <ele>2232</ele>
        <time>2021-08-12T08:40:43.412Z</time>
      </trkpt>
      <trkpt lat="46.86936" lon="8.47172">
        <ele>2232</ele>
        <time>2021-08-12T08:40:44.412Z</time>
      </trkpt>
      <trkpt lat="46.86936" lon="8.47172">
        <ele>2232</ele>
        <time>2021-08-12T08:40:45.411Z</time>
      </trkpt>
      <trkpt lat="46.86935" lon="8.47172">
        <ele>2231</ele>
        <time>2021-08-12T08:40:46.411Z</time>
      </trkpt>
      <trkpt lat="46.86935" lon="8.47173">
        <ele>2230</ele>
        <time>2021-08-12T08:40:47.411Z</time>
      </trkpt>
      <trkpt lat="46.86935" lon="8.47174">
        <ele>2230</ele>
        <time>2021-08-12T08:40:48.411Z</time>
      </trkpt>
      <trkpt lat="46.86935" lon="8.47174">
        <ele>2229</ele>
        <time>2021-08-12T08:40:49.412Z</time>
      </trkpt>
      <trkpt lat="46.86935" lon="8.47175">
        <ele>2229</ele>
        <time>2021-08-12T08:40:50.412Z</time>
      </trkpt>
      <trkpt lat="46.86934" lon="8.47176">
        <ele>2229</ele>
        <time>2021-08-12T08:40:51.411Z</time>
      </trkpt>
      <trkpt lat="46.86934" lon="8.47176">
        <ele>2229</ele>
        <time>2021-08-12T08:40:52.412Z</time>
      </trkpt>
      <trkpt lat="46.86934" lon="8.47177">
        <ele>2228</ele>
        <time>2021-08-12T08:40:53.412Z</time>
      </trkpt>
      <trkpt lat="46.86934" lon="8.47178">
        <ele>2228</ele>
        <time>2021-08-12T08:40:54.411Z</time>
      </trkpt>
      <trkpt lat="46.86933" lon="8.47179">
        <ele>2229</ele>
        <time>2021-08-12T08:40:55.412Z</time>
      </trkpt>
      <trkpt lat="46.86933" lon="8.47178">
        <ele>2230</ele>
        <time>2021-08-12T08:40:56.411Z</time>
      </trkpt>
      <trkpt lat="46.86933" lon="8.47179">
        <ele>2232</ele>
        <time>2021-08-12T08:40:57.413Z</time>
      </trkpt>
      <trkpt lat="46.86933" lon="8.4718">
        <ele>2232</ele>
        <time>2021-08-12T08:40:58.413Z</time>
      </trkpt>
      <trkpt lat="46.86933" lon="8.47181">
        <ele>2233</ele>
        <time>2021-08-12T08:40:59.413Z</time>
      </trkpt>
      <trkpt lat="46.86933" lon="8.47182">
        <ele>2233</ele>
        <time>2021-08-12T08:41:00.414Z</time>
      </trkpt>
      <trkpt lat="46.86933" lon="8.47182">
        <ele>2233</ele>
        <time>2021-08-12T08:41:01.414Z</time>
      </trkpt>
      <trkpt lat="46.86932" lon="8.47184">
        <ele>2232</ele>
        <time>2021-08-12T08:41:02.413Z</time>
      </trkpt>
      <trkpt lat="46.86932" lon="8.47185">
        <ele>2232</ele>
        <time>2021-08-12T08:41:03.413Z</time>
      </trkpt>
      <trkpt lat="46.86932" lon="8.47186">
        <ele>2231</ele>
        <time>2021-08-12T08:41:04.413Z</time>
      </trkpt>
      <trkpt lat="46.86931" lon="8.47188">
        <ele>2231</ele>
        <time>2021-08-12T08:41:05.413Z</time>
      </trkpt>
      <trkpt lat="46.86931" lon="8.47189">
        <ele>2231</ele>
        <time>2021-08-12T08:41:06.414Z</time>
      </trkpt>
      <trkpt lat="46.86931" lon="8.4719">
        <ele>2231</ele>
        <time>2021-08-12T08:41:07.413Z</time>
      </trkpt>
      <trkpt lat="46.8693" lon="8.47191">
        <ele>2230</ele>
        <time>2021-08-12T08:41:08.413Z</time>
      </trkpt>
      <trkpt lat="46.8693" lon="8.47192">
        <ele>2230</ele>
        <time>2021-08-12T08:41:09.413Z</time>
      </trkpt>
      <trkpt lat="46.8693" lon="8.47193">
        <ele>2230</ele>
        <time>2021-08-12T08:41:10.414Z</time>
      </trkpt>
      <trkpt lat="46.86929" lon="8.47194">
        <ele>2231</ele>
        <time>2021-08-12T08:41:11.413Z</time>
      </trkpt>
      <trkpt lat="46.86929" lon="8.47194">
        <ele>2231</ele>
        <time>2021-08-12T08:41:12.413Z</time>
      </trkpt>
      <trkpt lat="46.86928" lon="8.47195">
        <ele>2231</ele>
        <time>2021-08-12T08:41:13.414Z</time>
      </trkpt>
      <trkpt lat="46.86928" lon="8.47195">
        <ele>2231</ele>
        <time>2021-08-12T08:41:14.414Z</time>
      </trkpt>
      <trkpt lat="46.86928" lon="8.47195">
        <ele>2231</ele>
        <time>2021-08-12T08:41:15.414Z</time>
      </trkpt>
      <trkpt lat="46.86928" lon="8.47196">
        <ele>2231</ele>
        <time>2021-08-12T08:41:16.414Z</time>
      </trkpt>
      <trkpt lat="46.86927" lon="8.47197">
        <ele>2231</ele>
        <time>2021-08-12T08:41:17.414Z</time>
      </trkpt>
      <trkpt lat="46.86927" lon="8.47197">
        <ele>2232</ele>
        <time>2021-08-12T08:41:18.413Z</time>
      </trkpt>
      <trkpt lat="46.86927" lon="8.47198">
        <ele>2232</ele>
        <time>2021-08-12T08:41:19.414Z</time>
      </trkpt>
      <trkpt lat="46.86927" lon="8.47198">
        <ele>2232</ele>
        <time>2021-08-12T08:41:20.414Z</time>
      </trkpt>
      <trkpt lat="46.86926" lon="8.47198">
        <ele>2233</ele>
        <time>2021-08-12T08:41:21.413Z</time>
      </trkpt>
      <trkpt lat="46.86926" lon="8.47199">
        <ele>2233</ele>
        <time>2021-08-12T08:41:22.413Z</time>
      </trkpt>
      <trkpt lat="46.86926" lon="8.47199">
        <ele>2233</ele>
        <time>2021-08-12T08:41:23.414Z</time>
      </trkpt>
      <trkpt lat="46.86925" lon="8.472">
        <ele>2233</ele>
        <time>2021-08-12T08:41:24.414Z</time>
      </trkpt>
      <trkpt lat="46.86925" lon="8.47201">
        <ele>2232</ele>
        <time>2021-08-12T08:41:25.414Z</time>
      </trkpt>
      <trkpt lat="46.86925" lon="8.47202">
        <ele>2232</ele>
        <time>2021-08-12T08:41:26.413Z</time>
      </trkpt>
      <trkpt lat="46.86924" lon="8.47203">
        <ele>2231</ele>
        <time>2021-08-12T08:41:27.414Z</time>
      </trkpt>
      <trkpt lat="46.86924" lon="8.47204">
        <ele>2231</ele>
        <time>2021-08-12T08:41:28.414Z</time>
      </trkpt>
      <trkpt lat="46.86924" lon="8.47205">
        <ele>2231</ele>
        <time>2021-08-12T08:41:29.414Z</time>
      </trkpt>
      <trkpt lat="46.86924" lon="8.47206">
        <ele>2230</ele>
        <time>2021-08-12T08:41:30.414Z</time>
      </trkpt>
      <trkpt lat="46.86923" lon="8.47207">
        <ele>2230</ele>
        <time>2021-08-12T08:41:31.414Z</time>
      </trkpt>
      <trkpt lat="46.86923" lon="8.47208">
        <ele>2230</ele>
        <time>2021-08-12T08:41:32.413Z</time>
      </trkpt>
      <trkpt lat="46.86923" lon="8.47209">
        <ele>2230</ele>
        <time>2021-08-12T08:41:33.414Z</time>
      </trkpt>
      <trkpt lat="46.86922" lon="8.4721">
        <ele>2230</ele>
        <time>2021-08-12T08:41:34.413Z</time>
      </trkpt>
      <trkpt lat="46.86922" lon="8.47211">
        <ele>2230</ele>
        <time>2021-08-12T08:41:35.413Z</time>
      </trkpt>
      <trkpt lat="46.86922" lon="8.47211">
        <ele>2229</ele>
        <time>2021-08-12T08:41:36.414Z</time>
      </trkpt>
      <trkpt lat="46.86922" lon="8.47212">
        <ele>2229</ele>
        <time>2021-08-12T08:41:37.414Z</time>
      </trkpt>
      <trkpt lat="46.86921" lon="8.47213">
        <ele>2228</ele>
        <time>2021-08-12T08:41:38.414Z</time>
      </trkpt>
      <trkpt lat="46.86921" lon="8.47214">
        <ele>2228</ele>
        <time>2021-08-12T08:41:39.413Z</time>
      </trkpt>
      <trkpt lat="46.86921" lon="8.47216">
        <ele>2227</ele>
        <time>2021-08-12T08:41:40.413Z</time>
      </trkpt>
      <trkpt lat="46.8692" lon="8.47217">
        <ele>2227</ele>
        <time>2021-08-12T08:41:41.414Z</time>
      </trkpt>
      <trkpt lat="46.8692" lon="8.47219">
        <ele>2227</ele>
        <time>2021-08-12T08:41:42.414Z</time>
      </trkpt>
      <trkpt lat="46.8692" lon="8.4722">
        <ele>2226</ele>
        <time>2021-08-12T08:41:43.413Z</time>
      </trkpt>
      <trkpt lat="46.8692" lon="8.47222">
        <ele>2226</ele>
        <time>2021-08-12T08:41:44.414Z</time>
      </trkpt>
      <trkpt lat="46.86919" lon="8.47223">
        <ele>2226</ele>
        <time>2021-08-12T08:41:45.414Z</time>
      </trkpt>
      <trkpt lat="46.86919" lon="8.47224">
        <ele>2226</ele>
        <time>2021-08-12T08:41:46.413Z</time>
      </trkpt>
      <trkpt lat="46.86918" lon="8.47224">
        <ele>2225</ele>
        <time>2021-08-12T08:41:47.413Z</time>
      </trkpt>
      <trkpt lat="46.86918" lon="8.47225">
        <ele>2225</ele>
        <time>2021-08-12T08:41:48.414Z</time>
      </trkpt>
      <trkpt lat="46.86918" lon="8.47226">
        <ele>2225</ele>
        <time>2021-08-12T08:41:49.413Z</time>
      </trkpt>
      <trkpt lat="46.86917" lon="8.47228">
        <ele>2225</ele>
        <time>2021-08-12T08:41:50.414Z</time>
      </trkpt>
      <trkpt lat="46.86916" lon="8.4723">
        <ele>2226</ele>
        <time>2021-08-12T08:41:51.413Z</time>
      </trkpt>
      <trkpt lat="46.86916" lon="8.4723">
        <ele>2226</ele>
        <time>2021-08-12T08:41:52.414Z</time>
      </trkpt>
      <trkpt lat="46.86916" lon="8.47231">
        <ele>2226</ele>
        <time>2021-08-12T08:41:53.414Z</time>
      </trkpt>
      <trkpt lat="46.86915" lon="8.47232">
        <ele>2226</ele>
        <time>2021-08-12T08:41:54.413Z</time>
      </trkpt>
      <trkpt lat="46.86915" lon="8.47233">
        <ele>2226</ele>
        <time>2021-08-12T08:41:55.413Z</time>
      </trkpt>
      <trkpt lat="46.86914" lon="8.47234">
        <ele>2227</ele>
        <time>2021-08-12T08:41:56.413Z</time>
      </trkpt>
      <trkpt lat="46.86914" lon="8.47235">
        <ele>2227</ele>
        <time>2021-08-12T08:41:57.414Z</time>
      </trkpt>
      <trkpt lat="46.86914" lon="8.47237">
        <ele>2227</ele>
        <time>2021-08-12T08:41:58.413Z</time>
      </trkpt>
      <trkpt lat="46.86913" lon="8.47237">
        <ele>2228</ele>
        <time>2021-08-12T08:41:59.414Z</time>
      </trkpt>
      <trkpt lat="46.86913" lon="8.47238">
        <ele>2228</ele>
        <time>2021-08-12T08:42:00.414Z</time>
      </trkpt>
      <trkpt lat="46.86912" lon="8.47239">
        <ele>2229</ele>
        <time>2021-08-12T08:42:01.414Z</time>
      </trkpt>
      <trkpt lat="46.86911" lon="8.47241">
        <ele>2229</ele>
        <time>2021-08-12T08:42:02.414Z</time>
      </trkpt>
      <trkpt lat="46.86911" lon="8.47242">
        <ele>2229</ele>
        <time>2021-08-12T08:42:03.414Z</time>
      </trkpt>
      <trkpt lat="46.86911" lon="8.47242">
        <ele>2230</ele>
        <time>2021-08-12T08:42:04.414Z</time>
      </trkpt>
      <trkpt lat="46.8691" lon="8.47243">
        <ele>2230</ele>
        <time>2021-08-12T08:42:05.413Z</time>
      </trkpt>
      <trkpt lat="46.8691" lon="8.47244">
        <ele>2230</ele>
        <time>2021-08-12T08:42:06.413Z</time>
      </trkpt>
      <trkpt lat="46.8691" lon="8.47244">
        <ele>2230</ele>
        <time>2021-08-12T08:42:07.414Z</time>
      </trkpt>
      <trkpt lat="46.8691" lon="8.47244">
        <ele>2231</ele>
        <time>2021-08-12T08:42:08.414Z</time>
      </trkpt>
      <trkpt lat="46.8691" lon="8.47245">
        <ele>2231</ele>
        <time>2021-08-12T08:42:09.414Z</time>
      </trkpt>
      <trkpt lat="46.8691" lon="8.47246">
        <ele>2232</ele>
        <time>2021-08-12T08:42:10.414Z</time>
      </trkpt>
      <trkpt lat="46.86909" lon="8.47247">
        <ele>2233</ele>
        <time>2021-08-12T08:42:11.413Z</time>
      </trkpt>
      <trkpt lat="46.86909" lon="8.47248">
        <ele>2233</ele>
        <time>2021-08-12T08:42:12.414Z</time>
      </trkpt>
      <trkpt lat="46.86909" lon="8.47249">
        <ele>2233</ele>
        <time>2021-08-12T08:42:13.414Z</time>
      </trkpt>
      <trkpt lat="46.86908" lon="8.4725">
        <ele>2233</ele>
        <time>2021-08-12T08:42:14.414Z</time>
      </trkpt>
      <trkpt lat="46.86908" lon="8.47251">
        <ele>2232</ele>
        <time>2021-08-12T08:42:15.414Z</time>
      </trkpt>
      <trkpt lat="46.86908" lon="8.47251">
        <ele>2231</ele>
        <time>2021-08-12T08:42:16.414Z</time>
      </trkpt>
      <trkpt lat="46.86908" lon="8.47252">
        <ele>2231</ele>
        <time>2021-08-12T08:42:17.414Z</time>
      </trkpt>
      <trkpt lat="46.86908" lon="8.47253">
        <ele>2230</ele>
        <time>2021-08-12T08:42:18.414Z</time>
      </trkpt>
      <trkpt lat="46.86908" lon="8.47253">
        <ele>2229</ele>
        <time>2021-08-12T08:42:19.414Z</time>
      </trkpt>
      <trkpt lat="46.86908" lon="8.47254">
        <ele>2229</ele>
        <time>2021-08-12T08:42:20.413Z</time>
      </trkpt>
      <trkpt lat="46.86908" lon="8.47255">
        <ele>2228</ele>
        <time>2021-08-12T08:42:21.413Z</time>
      </trkpt>
      <trkpt lat="46.86906" lon="8.47255">
        <ele>2228</ele>
        <time>2021-08-12T08:42:22.414Z</time>
      </trkpt>
      <trkpt lat="46.86906" lon="8.47256">
        <ele>2228</ele>
        <time>2021-08-12T08:42:23.413Z</time>
      </trkpt>
      <trkpt lat="46.86906" lon="8.47255">
        <ele>2228</ele>
        <time>2021-08-12T08:42:24.413Z</time>
      </trkpt>
      <trkpt lat="46.86905" lon="8.47256">
        <ele>2228</ele>
        <time>2021-08-12T08:42:25.414Z</time>
      </trkpt>
      <trkpt lat="46.86904" lon="8.47257">
        <ele>2228</ele>
        <time>2021-08-12T08:42:26.414Z</time>
      </trkpt>
      <trkpt lat="46.86903" lon="8.47257">
        <ele>2229</ele>
        <time>2021-08-12T08:42:27.413Z</time>
      </trkpt>
      <trkpt lat="46.86903" lon="8.47258">
        <ele>2229</ele>
        <time>2021-08-12T08:42:28.413Z</time>
      </trkpt>
      <trkpt lat="46.86902" lon="8.47258">
        <ele>2229</ele>
        <time>2021-08-12T08:42:29.414Z</time>
      </trkpt>
      <trkpt lat="46.86902" lon="8.47259">
        <ele>2230</ele>
        <time>2021-08-12T08:42:30.414Z</time>
      </trkpt>
      <trkpt lat="46.86901" lon="8.47259">
        <ele>2230</ele>
        <time>2021-08-12T08:42:31.413Z</time>
      </trkpt>
      <trkpt lat="46.86901" lon="8.4726">
        <ele>2230</ele>
        <time>2021-08-12T08:42:32.414Z</time>
      </trkpt>
      <trkpt lat="46.869" lon="8.4726">
        <ele>2231</ele>
        <time>2021-08-12T08:42:33.413Z</time>
      </trkpt>
      <trkpt lat="46.86899" lon="8.47261">
        <ele>2230</ele>
        <time>2021-08-12T08:42:34.414Z</time>
      </trkpt>
      <trkpt lat="46.86899" lon="8.47262">
        <ele>2230</ele>
        <time>2021-08-12T08:42:35.413Z</time>
      </trkpt>
      <trkpt lat="46.86899" lon="8.47263">
        <ele>2230</ele>
        <time>2021-08-12T08:42:36.414Z</time>
      </trkpt>
      <trkpt lat="46.86898" lon="8.47264">
        <ele>2230</ele>
        <time>2021-08-12T08:42:37.414Z</time>
      </trkpt>
      <trkpt lat="46.86898" lon="8.47265">
        <ele>2230</ele>
        <time>2021-08-12T08:42:38.413Z</time>
      </trkpt>
      <trkpt lat="46.86898" lon="8.47266">
        <ele>2230</ele>
        <time>2021-08-12T08:42:39.414Z</time>
      </trkpt>
      <trkpt lat="46.86898" lon="8.47267">
        <ele>2230</ele>
        <time>2021-08-12T08:42:40.414Z</time>
      </trkpt>
      <trkpt lat="46.86898" lon="8.47268">
        <ele>2230</ele>
        <time>2021-08-12T08:42:41.413Z</time>
      </trkpt>
      <trkpt lat="46.86898" lon="8.47269">
        <ele>2230</ele>
        <time>2021-08-12T08:42:42.413Z</time>
      </trkpt>
      <trkpt lat="46.86898" lon="8.47269">
        <ele>2229</ele>
        <time>2021-08-12T08:42:43.414Z</time>
      </trkpt>
      <trkpt lat="46.86897" lon="8.4727">
        <ele>2229</ele>
        <time>2021-08-12T08:42:44.414Z</time>
      </trkpt>
      <trkpt lat="46.86897" lon="8.47271">
        <ele>2229</ele>
        <time>2021-08-12T08:42:45.414Z</time>
      </trkpt>
      <trkpt lat="46.86898" lon="8.47272">
        <ele>2229</ele>
        <time>2021-08-12T08:42:46.414Z</time>
      </trkpt>
      <trkpt lat="46.86898" lon="8.47272">
        <ele>2229</ele>
        <time>2021-08-12T08:42:47.413Z</time>
      </trkpt>
      <trkpt lat="46.86897" lon="8.47273">
        <ele>2229</ele>
        <time>2021-08-12T08:42:48.413Z</time>
      </trkpt>
      <trkpt lat="46.86897" lon="8.47274">
        <ele>2229</ele>
        <time>2021-08-12T08:42:49.414Z</time>
      </trkpt>
      <trkpt lat="46.86896" lon="8.47275">
        <ele>2227</ele>
        <time>2021-08-12T08:42:50.414Z</time>
      </trkpt>
      <trkpt lat="46.86897" lon="8.47275">
        <ele>2227</ele>
        <time>2021-08-12T08:42:51.415Z</time>
      </trkpt>
      <trkpt lat="46.86897" lon="8.47276">
        <ele>2227</ele>
        <time>2021-08-12T08:42:52.415Z</time>
      </trkpt>
      <trkpt lat="46.86897" lon="8.47277">
        <ele>2228</ele>
        <time>2021-08-12T08:42:53.414Z</time>
      </trkpt>
      <trkpt lat="46.86896" lon="8.47278">
        <ele>2228</ele>
        <time>2021-08-12T08:42:54.415Z</time>
      </trkpt>
      <trkpt lat="46.86896" lon="8.47279">
        <ele>2228</ele>
        <time>2021-08-12T08:42:55.415Z</time>
      </trkpt>
      <trkpt lat="46.86896" lon="8.47281">
        <ele>2229</ele>
        <time>2021-08-12T08:42:56.415Z</time>
      </trkpt>
      <trkpt lat="46.86896" lon="8.47281">
        <ele>2229</ele>
        <time>2021-08-12T08:42:57.415Z</time>
      </trkpt>
      <trkpt lat="46.86896" lon="8.47282">
        <ele>2229</ele>
        <time>2021-08-12T08:42:58.414Z</time>
      </trkpt>
      <trkpt lat="46.86896" lon="8.47283">
        <ele>2229</ele>
        <time>2021-08-12T08:42:59.415Z</time>
      </trkpt>
      <trkpt lat="46.86896" lon="8.47284">
        <ele>2230</ele>
        <time>2021-08-12T08:43:00.415Z</time>
      </trkpt>
      <trkpt lat="46.86896" lon="8.47285">
        <ele>2230</ele>
        <time>2021-08-12T08:43:01.414Z</time>
      </trkpt>
      <trkpt lat="46.86896" lon="8.47286">
        <ele>2230</ele>
        <time>2021-08-12T08:43:02.415Z</time>
      </trkpt>
      <trkpt lat="46.86895" lon="8.47287">
        <ele>2230</ele>
        <time>2021-08-12T08:43:03.414Z</time>
      </trkpt>
      <trkpt lat="46.86895" lon="8.47288">
        <ele>2230</ele>
        <time>2021-08-12T08:43:04.415Z</time>
      </trkpt>
      <trkpt lat="46.86895" lon="8.47289">
        <ele>2230</ele>
        <time>2021-08-12T08:43:05.415Z</time>
      </trkpt>
      <trkpt lat="46.86895" lon="8.4729">
        <ele>2230</ele>
        <time>2021-08-12T08:43:06.415Z</time>
      </trkpt>
      <trkpt lat="46.86894" lon="8.47291">
        <ele>2230</ele>
        <time>2021-08-12T08:43:07.414Z</time>
      </trkpt>
      <trkpt lat="46.86894" lon="8.47291">
        <ele>2229</ele>
        <time>2021-08-12T08:43:08.415Z</time>
      </trkpt>
      <trkpt lat="46.86894" lon="8.47292">
        <ele>2229</ele>
        <time>2021-08-12T08:43:09.415Z</time>
      </trkpt>
      <trkpt lat="46.86894" lon="8.47293">
        <ele>2229</ele>
        <time>2021-08-12T08:43:10.415Z</time>
      </trkpt>
      <trkpt lat="46.86893" lon="8.47294">
        <ele>2229</ele>
        <time>2021-08-12T08:43:11.415Z</time>
      </trkpt>
      <trkpt lat="46.86893" lon="8.47294">
        <ele>2230</ele>
        <time>2021-08-12T08:43:12.414Z</time>
      </trkpt>
      <trkpt lat="46.86893" lon="8.47294">
        <ele>2231</ele>
        <time>2021-08-12T08:43:13.415Z</time>
      </trkpt>
      <trkpt lat="46.86893" lon="8.47294">
        <ele>2231</ele>
        <time>2021-08-12T08:43:14.414Z</time>
      </trkpt>
      <trkpt lat="46.86892" lon="8.47294">
        <ele>2232</ele>
        <time>2021-08-12T08:43:15.415Z</time>
      </trkpt>
      <trkpt lat="46.86892" lon="8.47295">
        <ele>2232</ele>
        <time>2021-08-12T08:43:16.415Z</time>
      </trkpt>
      <trkpt lat="46.86891" lon="8.47295">
        <ele>2232</ele>
        <time>2021-08-12T08:43:17.415Z</time>
      </trkpt>
      <trkpt lat="46.86891" lon="8.47295">
        <ele>2232</ele>
        <time>2021-08-12T08:43:18.414Z</time>
      </trkpt>
      <trkpt lat="46.86891" lon="8.47296">
        <ele>2232</ele>
        <time>2021-08-12T08:43:19.415Z</time>
      </trkpt>
      <trkpt lat="46.8689" lon="8.47296">
        <ele>2232</ele>
        <time>2021-08-12T08:43:20.414Z</time>
      </trkpt>
      <trkpt lat="46.8689" lon="8.47297">
        <ele>2233</ele>
        <time>2021-08-12T08:43:21.415Z</time>
      </trkpt>
      <trkpt lat="46.8689" lon="8.47297">
        <ele>2233</ele>
        <time>2021-08-12T08:43:22.415Z</time>
      </trkpt>
      <trkpt lat="46.8689" lon="8.47298">
        <ele>2233</ele>
        <time>2021-08-12T08:43:23.415Z</time>
      </trkpt>
      <trkpt lat="46.86889" lon="8.47299">
        <ele>2233</ele>
        <time>2021-08-12T08:43:24.415Z</time>
      </trkpt>
      <trkpt lat="46.86889" lon="8.473">
        <ele>2233</ele>
        <time>2021-08-12T08:43:25.414Z</time>
      </trkpt>
      <trkpt lat="46.86889" lon="8.47301">
        <ele>2233</ele>
        <time>2021-08-12T08:43:26.414Z</time>
      </trkpt>
      <trkpt lat="46.86888" lon="8.47303">
        <ele>2233</ele>
        <time>2021-08-12T08:43:27.414Z</time>
      </trkpt>
      <trkpt lat="46.86888" lon="8.47304">
        <ele>2233</ele>
        <time>2021-08-12T08:43:28.414Z</time>
      </trkpt>
      <trkpt lat="46.86888" lon="8.47305">
        <ele>2233</ele>
        <time>2021-08-12T08:43:29.415Z</time>
      </trkpt>
      <trkpt lat="46.86888" lon="8.47306">
        <ele>2233</ele>
        <time>2021-08-12T08:43:30.415Z</time>
      </trkpt>
      <trkpt lat="46.86887" lon="8.47307">
        <ele>2234</ele>
        <time>2021-08-12T08:43:31.414Z</time>
      </trkpt>
      <trkpt lat="46.86888" lon="8.47308">
        <ele>2234</ele>
        <time>2021-08-12T08:43:32.414Z</time>
      </trkpt>
      <trkpt lat="46.86889" lon="8.47308">
        <ele>2234</ele>
        <time>2021-08-12T08:43:33.415Z</time>
      </trkpt>
      <trkpt lat="46.86888" lon="8.47308">
        <ele>2234</ele>
        <time>2021-08-12T08:43:34.414Z</time>
      </trkpt>
      <trkpt lat="46.86887" lon="8.47308">
        <ele>2235</ele>
        <time>2021-08-12T08:43:35.414Z</time>
      </trkpt>
      <trkpt lat="46.86887" lon="8.47308">
        <ele>2234</ele>
        <time>2021-08-12T08:43:36.414Z</time>
      </trkpt>
      <trkpt lat="46.86886" lon="8.47309">
        <ele>2234</ele>
        <time>2021-08-12T08:43:37.414Z</time>
      </trkpt>
      <trkpt lat="46.86886" lon="8.47308">
        <ele>2233</ele>
        <time>2021-08-12T08:43:38.415Z</time>
      </trkpt>
      <trkpt lat="46.86885" lon="8.47308">
        <ele>2233</ele>
        <time>2021-08-12T08:43:39.414Z</time>
      </trkpt>
      <trkpt lat="46.86885" lon="8.47309">
        <ele>2232</ele>
        <time>2021-08-12T08:43:40.414Z</time>
      </trkpt>
      <trkpt lat="46.86885" lon="8.4731">
        <ele>2232</ele>
        <time>2021-08-12T08:43:41.415Z</time>
      </trkpt>
      <trkpt lat="46.86885" lon="8.47311">
        <ele>2231</ele>
        <time>2021-08-12T08:43:42.415Z</time>
      </trkpt>
      <trkpt lat="46.86885" lon="8.47311">
        <ele>2231</ele>
        <time>2021-08-12T08:43:43.415Z</time>
      </trkpt>
      <trkpt lat="46.86885" lon="8.47312">
        <ele>2231</ele>
        <time>2021-08-12T08:43:44.414Z</time>
      </trkpt>
      <trkpt lat="46.86885" lon="8.47312">
        <ele>2230</ele>
        <time>2021-08-12T08:43:45.415Z</time>
      </trkpt>
      <trkpt lat="46.86884" lon="8.47312">
        <ele>2230</ele>
        <time>2021-08-12T08:43:46.415Z</time>
      </trkpt>
      <trkpt lat="46.86884" lon="8.47312">
        <ele>2230</ele>
        <time>2021-08-12T08:43:47.415Z</time>
      </trkpt>
      <trkpt lat="46.86884" lon="8.47312">
        <ele>2230</ele>
        <time>2021-08-12T08:43:48.414Z</time>
      </trkpt>
      <trkpt lat="46.86884" lon="8.47312">
        <ele>2230</ele>
        <time>2021-08-12T08:43:49.414Z</time>
      </trkpt>
      <trkpt lat="46.86883" lon="8.47313">
        <ele>2229</ele>
        <time>2021-08-12T08:43:50.415Z</time>
      </trkpt>
      <trkpt lat="46.86883" lon="8.47313">
        <ele>2229</ele>
        <time>2021-08-12T08:43:51.415Z</time>
      </trkpt>
      <trkpt lat="46.86883" lon="8.47314">
        <ele>2228</ele>
        <time>2021-08-12T08:43:52.415Z</time>
      </trkpt>
      <trkpt lat="46.86882" lon="8.47314">
        <ele>2228</ele>
        <time>2021-08-12T08:43:53.415Z</time>
      </trkpt>
      <trkpt lat="46.86882" lon="8.47315">
        <ele>2228</ele>
        <time>2021-08-12T08:43:54.414Z</time>
      </trkpt>
      <trkpt lat="46.86881" lon="8.47316">
        <ele>2228</ele>
        <time>2021-08-12T08:43:55.415Z</time>
      </trkpt>
      <trkpt lat="46.86881" lon="8.47317">
        <ele>2228</ele>
        <time>2021-08-12T08:43:56.414Z</time>
      </trkpt>
      <trkpt lat="46.86881" lon="8.47319">
        <ele>2229</ele>
        <time>2021-08-12T08:43:57.415Z</time>
      </trkpt>
      <trkpt lat="46.86881" lon="8.47319">
        <ele>2229</ele>
        <time>2021-08-12T08:43:58.414Z</time>
      </trkpt>
      <trkpt lat="46.86881" lon="8.4732">
        <ele>2229</ele>
        <time>2021-08-12T08:43:59.415Z</time>
      </trkpt>
      <trkpt lat="46.8688" lon="8.47321">
        <ele>2230</ele>
        <time>2021-08-12T08:44:00.415Z</time>
      </trkpt>
      <trkpt lat="46.8688" lon="8.47322">
        <ele>2230</ele>
        <time>2021-08-12T08:44:01.416Z</time>
      </trkpt>
      <trkpt lat="46.8688" lon="8.47322">
        <ele>2230</ele>
        <time>2021-08-12T08:44:02.415Z</time>
      </trkpt>
      <trkpt lat="46.8688" lon="8.47322">
        <ele>2231</ele>
        <time>2021-08-12T08:44:03.416Z</time>
      </trkpt>
      <trkpt lat="46.8688" lon="8.47323">
        <ele>2231</ele>
        <time>2021-08-12T08:44:04.415Z</time>
      </trkpt>
      <trkpt lat="46.8688" lon="8.47324">
        <ele>2231</ele>
        <time>2021-08-12T08:44:05.415Z</time>
      </trkpt>
      <trkpt lat="46.86879" lon="8.47325">
        <ele>2231</ele>
        <time>2021-08-12T08:44:06.416Z</time>
      </trkpt>
      <trkpt lat="46.86879" lon="8.47325">
        <ele>2231</ele>
        <time>2021-08-12T08:44:07.415Z</time>
      </trkpt>
      <trkpt lat="46.86879" lon="8.47325">
        <ele>2231</ele>
        <time>2021-08-12T08:44:08.416Z</time>
      </trkpt>
      <trkpt lat="46.86879" lon="8.47325">
        <ele>2231</ele>
        <time>2021-08-12T08:44:09.416Z</time>
      </trkpt>
      <trkpt lat="46.86879" lon="8.47325">
        <ele>2231</ele>
        <time>2021-08-12T08:44:10.415Z</time>
      </trkpt>
      <trkpt lat="46.86878" lon="8.47327">
        <ele>2233</ele>
        <time>2021-08-12T08:44:11.416Z</time>
      </trkpt>
      <trkpt lat="46.86878" lon="8.47326">
        <ele>2233</ele>
        <time>2021-08-12T08:44:12.415Z</time>
      </trkpt>
      <trkpt lat="46.86878" lon="8.47333">
        <ele>2234</ele>
        <time>2021-08-12T08:44:13.416Z</time>
      </trkpt>
      <trkpt lat="46.86877" lon="8.47334">
        <ele>2234</ele>
        <time>2021-08-12T08:44:14.415Z</time>
      </trkpt>
      <trkpt lat="46.86876" lon="8.47335">
        <ele>2233</ele>
        <time>2021-08-12T08:44:15.415Z</time>
      </trkpt>
      <trkpt lat="46.86876" lon="8.47336">
        <ele>2233</ele>
        <time>2021-08-12T08:44:16.416Z</time>
      </trkpt>
      <trkpt lat="46.86875" lon="8.47337">
        <ele>2232</ele>
        <time>2021-08-12T08:44:17.416Z</time>
      </trkpt>
      <trkpt lat="46.86875" lon="8.47337">
        <ele>2232</ele>
        <time>2021-08-12T08:44:18.416Z</time>
      </trkpt>
      <trkpt lat="46.86875" lon="8.47338">
        <ele>2232</ele>
        <time>2021-08-12T08:44:19.415Z</time>
      </trkpt>
      <trkpt lat="46.86874" lon="8.47339">
        <ele>2232</ele>
        <time>2021-08-12T08:44:20.415Z</time>
      </trkpt>
      <trkpt lat="46.86874" lon="8.4734">
        <ele>2232</ele>
        <time>2021-08-12T08:44:21.415Z</time>
      </trkpt>
      <trkpt lat="46.86874" lon="8.47341">
        <ele>2232</ele>
        <time>2021-08-12T08:44:22.415Z</time>
      </trkpt>
      <trkpt lat="46.86873" lon="8.47341">
        <ele>2232</ele>
        <time>2021-08-12T08:44:23.415Z</time>
      </trkpt>
      <trkpt lat="46.86873" lon="8.47342">
        <ele>2232</ele>
        <time>2021-08-12T08:44:24.416Z</time>
      </trkpt>
      <trkpt lat="46.86873" lon="8.47342">
        <ele>2231</ele>
        <time>2021-08-12T08:44:25.415Z</time>
      </trkpt>
      <trkpt lat="46.86872" lon="8.47342">
        <ele>2231</ele>
        <time>2021-08-12T08:44:26.415Z</time>
      </trkpt>
      <trkpt lat="46.86872" lon="8.47342">
        <ele>2232</ele>
        <time>2021-08-12T08:44:27.415Z</time>
      </trkpt>
      <trkpt lat="46.86871" lon="8.47344">
        <ele>2232</ele>
        <time>2021-08-12T08:44:28.416Z</time>
      </trkpt>
      <trkpt lat="46.8687" lon="8.47344">
        <ele>2231</ele>
        <time>2021-08-12T08:44:29.415Z</time>
      </trkpt>
      <trkpt lat="46.86869" lon="8.47344">
        <ele>2231</ele>
        <time>2021-08-12T08:44:30.415Z</time>
      </trkpt>
      <trkpt lat="46.86868" lon="8.47345">
        <ele>2231</ele>
        <time>2021-08-12T08:44:31.415Z</time>
      </trkpt>
      <trkpt lat="46.86867" lon="8.47346">
        <ele>2230</ele>
        <time>2021-08-12T08:44:32.416Z</time>
      </trkpt>
      <trkpt lat="46.86867" lon="8.47346">
        <ele>2230</ele>
        <time>2021-08-12T08:44:33.416Z</time>
      </trkpt>
      <trkpt lat="46.86866" lon="8.47347">
        <ele>2230</ele>
        <time>2021-08-12T08:44:34.416Z</time>
      </trkpt>
      <trkpt lat="46.86866" lon="8.47347">
        <ele>2230</ele>
        <time>2021-08-12T08:44:35.416Z</time>
      </trkpt>
      <trkpt lat="46.86865" lon="8.47348">
        <ele>2230</ele>
        <time>2021-08-12T08:44:36.416Z</time>
      </trkpt>
      <trkpt lat="46.86865" lon="8.47349">
        <ele>2230</ele>
        <time>2021-08-12T08:44:37.416Z</time>
      </trkpt>
      <trkpt lat="46.86864" lon="8.4735">
        <ele>2230</ele>
        <time>2021-08-12T08:44:38.416Z</time>
      </trkpt>
      <trkpt lat="46.86864" lon="8.47351">
        <ele>2230</ele>
        <time>2021-08-12T08:44:39.416Z</time>
      </trkpt>
      <trkpt lat="46.86864" lon="8.47352">
        <ele>2230</ele>
        <time>2021-08-12T08:44:40.416Z</time>
      </trkpt>
      <trkpt lat="46.86864" lon="8.47352">
        <ele>2230</ele>
        <time>2021-08-12T08:44:41.415Z</time>
      </trkpt>
      <trkpt lat="46.86864" lon="8.47352">
        <ele>2230</ele>
        <time>2021-08-12T08:44:42.415Z</time>
      </trkpt>
      <trkpt lat="46.86864" lon="8.47353">
        <ele>2230</ele>
        <time>2021-08-12T08:44:43.416Z</time>
      </trkpt>
      <trkpt lat="46.86863" lon="8.47353">
        <ele>2233</ele>
        <time>2021-08-12T08:44:44.417Z</time>
      </trkpt>
      <trkpt lat="46.86863" lon="8.47353">
        <ele>2233</ele>
        <time>2021-08-12T08:44:45.417Z</time>
      </trkpt>
      <trkpt lat="46.86863" lon="8.47354">
        <ele>2233</ele>
        <time>2021-08-12T08:44:46.416Z</time>
      </trkpt>
      <trkpt lat="46.86862" lon="8.47355">
        <ele>2233</ele>
        <time>2021-08-12T08:44:47.416Z</time>
      </trkpt>
      <trkpt lat="46.86862" lon="8.47355">
        <ele>2233</ele>
        <time>2021-08-12T08:44:48.417Z</time>
      </trkpt>
      <trkpt lat="46.86862" lon="8.47356">
        <ele>2234</ele>
        <time>2021-08-12T08:44:49.417Z</time>
      </trkpt>
      <trkpt lat="46.86862" lon="8.47357">
        <ele>2235</ele>
        <time>2021-08-12T08:44:50.417Z</time>
      </trkpt>
      <trkpt lat="46.86862" lon="8.47357">
        <ele>2236</ele>
        <time>2021-08-12T08:44:51.417Z</time>
      </trkpt>
      <trkpt lat="46.86861" lon="8.47357">
        <ele>2236</ele>
        <time>2021-08-12T08:44:52.418Z</time>
      </trkpt>
      <trkpt lat="46.86861" lon="8.47358">
        <ele>2237</ele>
        <time>2021-08-12T08:44:53.417Z</time>
      </trkpt>
      <trkpt lat="46.86861" lon="8.47359">
        <ele>2238</ele>
        <time>2021-08-12T08:44:54.418Z</time>
      </trkpt>
      <trkpt lat="46.8686" lon="8.4736">
        <ele>2239</ele>
        <time>2021-08-12T08:44:55.417Z</time>
      </trkpt>
      <trkpt lat="46.8686" lon="8.4736">
        <ele>2239</ele>
        <time>2021-08-12T08:44:56.418Z</time>
      </trkpt>
      <trkpt lat="46.8686" lon="8.47361">
        <ele>2240</ele>
        <time>2021-08-12T08:44:57.418Z</time>
      </trkpt>
      <trkpt lat="46.86861" lon="8.47361">
        <ele>2240</ele>
        <time>2021-08-12T08:44:58.418Z</time>
      </trkpt>
      <trkpt lat="46.86859" lon="8.47363">
        <ele>2241</ele>
        <time>2021-08-12T08:44:59.419Z</time>
      </trkpt>
      <trkpt lat="46.86859" lon="8.47363">
        <ele>2240</ele>
        <time>2021-08-12T08:45:00.419Z</time>
      </trkpt>
      <trkpt lat="46.86859" lon="8.47364">
        <ele>2240</ele>
        <time>2021-08-12T08:45:01.418Z</time>
      </trkpt>
      <trkpt lat="46.86859" lon="8.47366">
        <ele>2240</ele>
        <time>2021-08-12T08:45:02.420Z</time>
      </trkpt>
      <trkpt lat="46.86859" lon="8.47366">
        <ele>2240</ele>
        <time>2021-08-12T08:45:03.419Z</time>
      </trkpt>
      <trkpt lat="46.86859" lon="8.47366">
        <ele>2240</ele>
        <time>2021-08-12T08:45:04.420Z</time>
      </trkpt>
      <trkpt lat="46.86859" lon="8.47367">
        <ele>2240</ele>
        <time>2021-08-12T08:45:05.420Z</time>
      </trkpt>
      <trkpt lat="46.86859" lon="8.47367">
        <ele>2240</ele>
        <time>2021-08-12T08:45:06.420Z</time>
      </trkpt>
      <trkpt lat="46.86858" lon="8.47369">
        <ele>2240</ele>
        <time>2021-08-12T08:45:07.420Z</time>
      </trkpt>
      <trkpt lat="46.86858" lon="8.47369">
        <ele>2240</ele>
        <time>2021-08-12T08:45:08.419Z</time>
      </trkpt>
      <trkpt lat="46.86858" lon="8.47369">
        <ele>2239</ele>
        <time>2021-08-12T08:45:09.419Z</time>
      </trkpt>
      <trkpt lat="46.86856" lon="8.47371">
        <ele>2239</ele>
        <time>2021-08-12T08:45:10.421Z</time>
      </trkpt>
      <trkpt lat="46.86856" lon="8.47371">
        <ele>2239</ele>
        <time>2021-08-12T08:45:11.420Z</time>
      </trkpt>
      <trkpt lat="46.86856" lon="8.4737">
        <ele>2239</ele>
        <time>2021-08-12T08:45:12.420Z</time>
      </trkpt>
      <trkpt lat="46.86856" lon="8.47371">
        <ele>2239</ele>
        <time>2021-08-12T08:45:13.421Z</time>
      </trkpt>
      <trkpt lat="46.86855" lon="8.47372">
        <ele>2240</ele>
        <time>2021-08-12T08:45:14.420Z</time>
      </trkpt>
      <trkpt lat="46.86854" lon="8.47373">
        <ele>2240</ele>
        <time>2021-08-12T08:45:15.421Z</time>
      </trkpt>
      <trkpt lat="46.86854" lon="8.47374">
        <ele>2240</ele>
        <time>2021-08-12T08:45:16.421Z</time>
      </trkpt>
      <trkpt lat="46.86853" lon="8.47376">
        <ele>2240</ele>
        <time>2021-08-12T08:45:17.420Z</time>
      </trkpt>
      <trkpt lat="46.86852" lon="8.47377">
        <ele>2240</ele>
        <time>2021-08-12T08:45:18.420Z</time>
      </trkpt>
      <trkpt lat="46.86852" lon="8.47379">
        <ele>2240</ele>
        <time>2021-08-12T08:45:19.421Z</time>
      </trkpt>
      <trkpt lat="46.86851" lon="8.4738">
        <ele>2239</ele>
        <time>2021-08-12T08:45:20.421Z</time>
      </trkpt>
      <trkpt lat="46.8685" lon="8.4738">
        <ele>2239</ele>
        <time>2021-08-12T08:45:21.421Z</time>
      </trkpt>
      <trkpt lat="46.86849" lon="8.4738">
        <ele>2239</ele>
        <time>2021-08-12T08:45:22.421Z</time>
      </trkpt>
      <trkpt lat="46.86848" lon="8.4738">
        <ele>2239</ele>
        <time>2021-08-12T08:45:23.421Z</time>
      </trkpt>
      <trkpt lat="46.86847" lon="8.47381">
        <ele>2239</ele>
        <time>2021-08-12T08:45:24.421Z</time>
      </trkpt>
      <trkpt lat="46.86846" lon="8.47382">
        <ele>2238</ele>
        <time>2021-08-12T08:45:25.421Z</time>
      </trkpt>
      <trkpt lat="46.86845" lon="8.47383">
        <ele>2238</ele>
        <time>2021-08-12T08:45:26.420Z</time>
      </trkpt>
      <trkpt lat="46.86845" lon="8.47383">
        <ele>2237</ele>
        <time>2021-08-12T08:45:27.421Z</time>
      </trkpt>
      <trkpt lat="46.86844" lon="8.47384">
        <ele>2236</ele>
        <time>2021-08-12T08:45:28.421Z</time>
      </trkpt>
      <trkpt lat="46.86843" lon="8.47385">
        <ele>2236</ele>
        <time>2021-08-12T08:45:29.421Z</time>
      </trkpt>
      <trkpt lat="46.86842" lon="8.47385">
        <ele>2236</ele>
        <time>2021-08-12T08:45:30.420Z</time>
      </trkpt>
      <trkpt lat="46.86841" lon="8.47386">
        <ele>2236</ele>
        <time>2021-08-12T08:45:31.421Z</time>
      </trkpt>
      <trkpt lat="46.8684" lon="8.47386">
        <ele>2235</ele>
        <time>2021-08-12T08:45:32.420Z</time>
      </trkpt>
      <trkpt lat="46.86839" lon="8.47386">
        <ele>2235</ele>
        <time>2021-08-12T08:45:33.421Z</time>
      </trkpt>
      <trkpt lat="46.86838" lon="8.47386">
        <ele>2234</ele>
        <time>2021-08-12T08:45:34.421Z</time>
      </trkpt>
      <trkpt lat="46.86837" lon="8.47386">
        <ele>2234</ele>
        <time>2021-08-12T08:45:35.420Z</time>
      </trkpt>
      <trkpt lat="46.86836" lon="8.47386">
        <ele>2234</ele>
        <time>2021-08-12T08:45:36.420Z</time>
      </trkpt>
      <trkpt lat="46.86836" lon="8.47386">
        <ele>2234</ele>
        <time>2021-08-12T08:45:37.421Z</time>
      </trkpt>
      <trkpt lat="46.86836" lon="8.47386">
        <ele>2234</ele>
        <time>2021-08-12T08:45:38.420Z</time>
      </trkpt>
      <trkpt lat="46.86835" lon="8.47386">
        <ele>2234</ele>
        <time>2021-08-12T08:45:39.421Z</time>
      </trkpt>
      <trkpt lat="46.86835" lon="8.47386">
        <ele>2234</ele>
        <time>2021-08-12T08:45:40.421Z</time>
      </trkpt>
      <trkpt lat="46.86836" lon="8.47386">
        <ele>2231</ele>
        <time>2021-08-12T08:45:41.420Z</time>
      </trkpt>
      <trkpt lat="46.86836" lon="8.47386">
        <ele>2231</ele>
        <time>2021-08-12T08:45:42.421Z</time>
      </trkpt>
      <trkpt lat="46.86836" lon="8.47386">
        <ele>2231</ele>
        <time>2021-08-12T08:45:43.420Z</time>
      </trkpt>
      <trkpt lat="46.8683" lon="8.47383">
        <ele>2233</ele>
        <time>2021-08-12T08:45:44.422Z</time>
      </trkpt>
      <trkpt lat="46.8683" lon="8.47383">
        <ele>2233</ele>
        <time>2021-08-12T08:45:45.422Z</time>
      </trkpt>
      <trkpt lat="46.86829" lon="8.47383">
        <ele>2233</ele>
        <time>2021-08-12T08:45:46.422Z</time>
      </trkpt>
      <trkpt lat="46.86829" lon="8.47383">
        <ele>2233</ele>
        <time>2021-08-12T08:45:47.422Z</time>
      </trkpt>
      <trkpt lat="46.86829" lon="8.47383">
        <ele>2233</ele>
        <time>2021-08-12T08:45:48.422Z</time>
      </trkpt>
      <trkpt lat="46.86828" lon="8.47383">
        <ele>2233</ele>
        <time>2021-08-12T08:45:49.422Z</time>
      </trkpt>
      <trkpt lat="46.86827" lon="8.47383">
        <ele>2232</ele>
        <time>2021-08-12T08:45:50.422Z</time>
      </trkpt>
      <trkpt lat="46.86826" lon="8.47384">
        <ele>2232</ele>
        <time>2021-08-12T08:45:51.421Z</time>
      </trkpt>
      <trkpt lat="46.86826" lon="8.47384">
        <ele>2232</ele>
        <time>2021-08-12T08:45:52.421Z</time>
      </trkpt>
      <trkpt lat="46.86826" lon="8.47385">
        <ele>2232</ele>
        <time>2021-08-12T08:45:53.422Z</time>
      </trkpt>
      <trkpt lat="46.86825" lon="8.47385">
        <ele>2232</ele>
        <time>2021-08-12T08:45:54.421Z</time>
      </trkpt>
      <trkpt lat="46.86824" lon="8.47386">
        <ele>2231</ele>
        <time>2021-08-12T08:45:55.421Z</time>
      </trkpt>
      <trkpt lat="46.86824" lon="8.47386">
        <ele>2231</ele>
        <time>2021-08-12T08:45:56.422Z</time>
      </trkpt>
      <trkpt lat="46.86823" lon="8.47386">
        <ele>2230</ele>
        <time>2021-08-12T08:45:57.422Z</time>
      </trkpt>
      <trkpt lat="46.86823" lon="8.47387">
        <ele>2230</ele>
        <time>2021-08-12T08:45:58.421Z</time>
      </trkpt>
      <trkpt lat="46.86823" lon="8.47386">
        <ele>2229</ele>
        <time>2021-08-12T08:45:59.421Z</time>
      </trkpt>
      <trkpt lat="46.86823" lon="8.47383">
        <ele>2227</ele>
        <time>2021-08-12T08:46:00.422Z</time>
      </trkpt>
      <trkpt lat="46.86823" lon="8.47383">
        <ele>2222</ele>
        <time>2021-08-12T08:46:01.423Z</time>
      </trkpt>
      <trkpt lat="46.86823" lon="8.47383">
        <ele>2222</ele>
        <time>2021-08-12T08:46:02.423Z</time>
      </trkpt>
      <trkpt lat="46.86823" lon="8.47384">
        <ele>2222</ele>
        <time>2021-08-12T08:46:03.423Z</time>
      </trkpt>
      <trkpt lat="46.86822" lon="8.47384">
        <ele>2222</ele>
        <time>2021-08-12T08:46:04.422Z</time>
      </trkpt>
      <trkpt lat="46.86822" lon="8.47383">
        <ele>2223</ele>
        <time>2021-08-12T08:46:05.423Z</time>
      </trkpt>
      <trkpt lat="46.86821" lon="8.47383">
        <ele>2223</ele>
        <time>2021-08-12T08:46:06.423Z</time>
      </trkpt>
      <trkpt lat="46.8682" lon="8.47383">
        <ele>2223</ele>
        <time>2021-08-12T08:46:07.423Z</time>
      </trkpt>
      <trkpt lat="46.8682" lon="8.47384">
        <ele>2224</ele>
        <time>2021-08-12T08:46:08.422Z</time>
      </trkpt>
      <trkpt lat="46.86819" lon="8.47384">
        <ele>2224</ele>
        <time>2021-08-12T08:46:09.422Z</time>
      </trkpt>
      <trkpt lat="46.86819" lon="8.47385">
        <ele>2225</ele>
        <time>2021-08-12T08:46:10.423Z</time>
      </trkpt>
      <trkpt lat="46.86818" lon="8.47385">
        <ele>2225</ele>
        <time>2021-08-12T08:46:11.422Z</time>
      </trkpt>
      <trkpt lat="46.86817" lon="8.47385">
        <ele>2226</ele>
        <time>2021-08-12T08:46:12.422Z</time>
      </trkpt>
      <trkpt lat="46.86816" lon="8.47385">
        <ele>2226</ele>
        <time>2021-08-12T08:46:13.423Z</time>
      </trkpt>
      <trkpt lat="46.86815" lon="8.47386">
        <ele>2227</ele>
        <time>2021-08-12T08:46:14.423Z</time>
      </trkpt>
      <trkpt lat="46.86814" lon="8.47386">
        <ele>2227</ele>
        <time>2021-08-12T08:46:15.423Z</time>
      </trkpt>
      <trkpt lat="46.86813" lon="8.47386">
        <ele>2227</ele>
        <time>2021-08-12T08:46:16.423Z</time>
      </trkpt>
      <trkpt lat="46.86812" lon="8.47386">
        <ele>2228</ele>
        <time>2021-08-12T08:46:17.423Z</time>
      </trkpt>
      <trkpt lat="46.8681" lon="8.47385">
        <ele>2228</ele>
        <time>2021-08-12T08:46:18.422Z</time>
      </trkpt>
      <trkpt lat="46.86809" lon="8.47385">
        <ele>2228</ele>
        <time>2021-08-12T08:46:19.423Z</time>
      </trkpt>
      <trkpt lat="46.86808" lon="8.47384">
        <ele>2229</ele>
        <time>2021-08-12T08:46:20.423Z</time>
      </trkpt>
      <trkpt lat="46.86808" lon="8.47384">
        <ele>2229</ele>
        <time>2021-08-12T08:46:21.422Z</time>
      </trkpt>
      <trkpt lat="46.86808" lon="8.47384">
        <ele>2229</ele>
        <time>2021-08-12T08:46:22.422Z</time>
      </trkpt>
      <trkpt lat="46.86807" lon="8.47384">
        <ele>2229</ele>
        <time>2021-08-12T08:46:23.422Z</time>
      </trkpt>
      <trkpt lat="46.86806" lon="8.47384">
        <ele>2230</ele>
        <time>2021-08-12T08:46:24.423Z</time>
      </trkpt>
      <trkpt lat="46.86806" lon="8.47384">
        <ele>2230</ele>
        <time>2021-08-12T08:46:25.423Z</time>
      </trkpt>
      <trkpt lat="46.86805" lon="8.47384">
        <ele>2230</ele>
        <time>2021-08-12T08:46:26.422Z</time>
      </trkpt>
      <trkpt lat="46.86804" lon="8.47384">
        <ele>2230</ele>
        <time>2021-08-12T08:46:27.423Z</time>
      </trkpt>
      <trkpt lat="46.86803" lon="8.47384">
        <ele>2230</ele>
        <time>2021-08-12T08:46:28.423Z</time>
      </trkpt>
      <trkpt lat="46.86803" lon="8.47384">
        <ele>2229</ele>
        <time>2021-08-12T08:46:29.422Z</time>
      </trkpt>
      <trkpt lat="46.86803" lon="8.47384">
        <ele>2229</ele>
        <time>2021-08-12T08:46:30.423Z</time>
      </trkpt>
      <trkpt lat="46.86802" lon="8.47383">
        <ele>2230</ele>
        <time>2021-08-12T08:46:31.423Z</time>
      </trkpt>
      <trkpt lat="46.86802" lon="8.47383">
        <ele>2230</ele>
        <time>2021-08-12T08:46:32.423Z</time>
      </trkpt>
      <trkpt lat="46.86801" lon="8.47383">
        <ele>2231</ele>
        <time>2021-08-12T08:46:33.423Z</time>
      </trkpt>
      <trkpt lat="46.868" lon="8.47384">
        <ele>2231</ele>
        <time>2021-08-12T08:46:34.422Z</time>
      </trkpt>
      <trkpt lat="46.868" lon="8.47385">
        <ele>2232</ele>
        <time>2021-08-12T08:46:35.423Z</time>
      </trkpt>
      <trkpt lat="46.86799" lon="8.47386">
        <ele>2232</ele>
        <time>2021-08-12T08:46:36.422Z</time>
      </trkpt>
      <trkpt lat="46.86799" lon="8.47386">
        <ele>2232</ele>
        <time>2021-08-12T08:46:37.423Z</time>
      </trkpt>
      <trkpt lat="46.86798" lon="8.47386">
        <ele>2232</ele>
        <time>2021-08-12T08:46:38.422Z</time>
      </trkpt>
      <trkpt lat="46.86796" lon="8.47384">
        <ele>2232</ele>
        <time>2021-08-12T08:46:39.423Z</time>
      </trkpt>
      <trkpt lat="46.86796" lon="8.47383">
        <ele>2232</ele>
        <time>2021-08-12T08:46:40.423Z</time>
      </trkpt>
      <trkpt lat="46.86796" lon="8.47382">
        <ele>2232</ele>
        <time>2021-08-12T08:46:41.422Z</time>
      </trkpt>
      <trkpt lat="46.86795" lon="8.47382">
        <ele>2232</ele>
        <time>2021-08-12T08:46:42.422Z</time>
      </trkpt>
      <trkpt lat="46.86794" lon="8.47381">
        <ele>2232</ele>
        <time>2021-08-12T08:46:43.422Z</time>
      </trkpt>
      <trkpt lat="46.86794" lon="8.47381">
        <ele>2232</ele>
        <time>2021-08-12T08:46:44.423Z</time>
      </trkpt>
      <trkpt lat="46.86794" lon="8.4738">
        <ele>2232</ele>
        <time>2021-08-12T08:46:45.423Z</time>
      </trkpt>
      <trkpt lat="46.86794" lon="8.4738">
        <ele>2231</ele>
        <time>2021-08-12T08:46:46.422Z</time>
      </trkpt>
      <trkpt lat="46.86793" lon="8.4738">
        <ele>2231</ele>
        <time>2021-08-12T08:46:47.422Z</time>
      </trkpt>
      <trkpt lat="46.86792" lon="8.4738">
        <ele>2231</ele>
        <time>2021-08-12T08:46:48.423Z</time>
      </trkpt>
      <trkpt lat="46.8679" lon="8.4738">
        <ele>2230</ele>
        <time>2021-08-12T08:46:49.422Z</time>
      </trkpt>
      <trkpt lat="46.8679" lon="8.47381">
        <ele>2230</ele>
        <time>2021-08-12T08:46:50.423Z</time>
      </trkpt>
      <trkpt lat="46.86788" lon="8.47381">
        <ele>2229</ele>
        <time>2021-08-12T08:46:51.423Z</time>
      </trkpt>
      <trkpt lat="46.86788" lon="8.47382">
        <ele>2229</ele>
        <time>2021-08-12T08:46:52.423Z</time>
      </trkpt>
      <trkpt lat="46.86788" lon="8.47382">
        <ele>2229</ele>
        <time>2021-08-12T08:46:53.423Z</time>
      </trkpt>
      <trkpt lat="46.86787" lon="8.47382">
        <ele>2228</ele>
        <time>2021-08-12T08:46:54.422Z</time>
      </trkpt>
      <trkpt lat="46.86787" lon="8.47383">
        <ele>2228</ele>
        <time>2021-08-12T08:46:55.423Z</time>
      </trkpt>
      <trkpt lat="46.86786" lon="8.47384">
        <ele>2228</ele>
        <time>2021-08-12T08:46:56.423Z</time>
      </trkpt>
      <trkpt lat="46.86785" lon="8.47385">
        <ele>2227</ele>
        <time>2021-08-12T08:46:57.422Z</time>
      </trkpt>
      <trkpt lat="46.86784" lon="8.47386">
        <ele>2226</ele>
        <time>2021-08-12T08:46:58.422Z</time>
      </trkpt>
      <trkpt lat="46.86783" lon="8.47386">
        <ele>2225</ele>
        <time>2021-08-12T08:46:59.422Z</time>
      </trkpt>
      <trkpt lat="46.86783" lon="8.47386">
        <ele>2225</ele>
        <time>2021-08-12T08:47:00.422Z</time>
      </trkpt>
      <trkpt lat="46.86781" lon="8.47386">
        <ele>2224</ele>
        <time>2021-08-12T08:47:01.423Z</time>
      </trkpt>
      <trkpt lat="46.8678" lon="8.47386">
        <ele>2224</ele>
        <time>2021-08-12T08:47:02.422Z</time>
      </trkpt>
      <trkpt lat="46.86779" lon="8.47386">
        <ele>2223</ele>
        <time>2021-08-12T08:47:03.422Z</time>
      </trkpt>
      <trkpt lat="46.86778" lon="8.47387">
        <ele>2223</ele>
        <time>2021-08-12T08:47:04.423Z</time>
      </trkpt>
      <trkpt lat="46.86777" lon="8.47387">
        <ele>2222</ele>
        <time>2021-08-12T08:47:05.422Z</time>
      </trkpt>
      <trkpt lat="46.86776" lon="8.47387">
        <ele>2222</ele>
        <time>2021-08-12T08:47:06.422Z</time>
      </trkpt>
      <trkpt lat="46.86775" lon="8.47387">
        <ele>2222</ele>
        <time>2021-08-12T08:47:07.423Z</time>
      </trkpt>
      <trkpt lat="46.86774" lon="8.47387">
        <ele>2221</ele>
        <time>2021-08-12T08:47:08.422Z</time>
      </trkpt>
      <trkpt lat="46.86773" lon="8.47387">
        <ele>2222</ele>
        <time>2021-08-12T08:47:09.422Z</time>
      </trkpt>
      <trkpt lat="46.86771" lon="8.47387">
        <ele>2222</ele>
        <time>2021-08-12T08:47:10.422Z</time>
      </trkpt>
      <trkpt lat="46.8677" lon="8.47387">
        <ele>2222</ele>
        <time>2021-08-12T08:47:11.423Z</time>
      </trkpt>
      <trkpt lat="46.86769" lon="8.47388">
        <ele>2222</ele>
        <time>2021-08-12T08:47:12.423Z</time>
      </trkpt>
      <trkpt lat="46.86768" lon="8.47388">
        <ele>2222</ele>
        <time>2021-08-12T08:47:13.422Z</time>
      </trkpt>
      <trkpt lat="46.86767" lon="8.47389">
        <ele>2222</ele>
        <time>2021-08-12T08:47:14.423Z</time>
      </trkpt>
      <trkpt lat="46.86767" lon="8.47389">
        <ele>2222</ele>
        <time>2021-08-12T08:47:15.422Z</time>
      </trkpt>
      <trkpt lat="46.86766" lon="8.47389">
        <ele>2222</ele>
        <time>2021-08-12T08:47:16.422Z</time>
      </trkpt>
      <trkpt lat="46.86765" lon="8.4739">
        <ele>2222</ele>
        <time>2021-08-12T08:47:17.422Z</time>
      </trkpt>
      <trkpt lat="46.86764" lon="8.4739">
        <ele>2222</ele>
        <time>2021-08-12T08:47:18.422Z</time>
      </trkpt>
      <trkpt lat="46.86763" lon="8.47391">
        <ele>2222</ele>
        <time>2021-08-12T08:47:19.422Z</time>
      </trkpt>
      <trkpt lat="46.86763" lon="8.47392">
        <ele>2222</ele>
        <time>2021-08-12T08:47:20.422Z</time>
      </trkpt>
      <trkpt lat="46.86762" lon="8.47393">
        <ele>2222</ele>
        <time>2021-08-12T08:47:21.422Z</time>
      </trkpt>
      <trkpt lat="46.86762" lon="8.47393">
        <ele>2222</ele>
        <time>2021-08-12T08:47:22.422Z</time>
      </trkpt>
      <trkpt lat="46.86761" lon="8.47393">
        <ele>2222</ele>
        <time>2021-08-12T08:47:23.422Z</time>
      </trkpt>
      <trkpt lat="46.8676" lon="8.47393">
        <ele>2222</ele>
        <time>2021-08-12T08:47:24.422Z</time>
      </trkpt>
      <trkpt lat="46.86759" lon="8.47392">
        <ele>2222</ele>
        <time>2021-08-12T08:47:25.422Z</time>
      </trkpt>
      <trkpt lat="46.86758" lon="8.47391">
        <ele>2222</ele>
        <time>2021-08-12T08:47:26.422Z</time>
      </trkpt>
      <trkpt lat="46.86757" lon="8.47391">
        <ele>2222</ele>
        <time>2021-08-12T08:47:27.422Z</time>
      </trkpt>
      <trkpt lat="46.86756" lon="8.47391">
        <ele>2222</ele>
        <time>2021-08-12T08:47:28.422Z</time>
      </trkpt>
      <trkpt lat="46.86755" lon="8.47391">
        <ele>2222</ele>
        <time>2021-08-12T08:47:29.422Z</time>
      </trkpt>
      <trkpt lat="46.86754" lon="8.47391">
        <ele>2222</ele>
        <time>2021-08-12T08:47:30.422Z</time>
      </trkpt>
      <trkpt lat="46.86754" lon="8.47391">
        <ele>2222</ele>
        <time>2021-08-12T08:47:31.422Z</time>
      </trkpt>
      <trkpt lat="46.86753" lon="8.4739">
        <ele>2221</ele>
        <time>2021-08-12T08:47:32.422Z</time>
      </trkpt>
      <trkpt lat="46.8675" lon="8.47389">
        <ele>2221</ele>
        <time>2021-08-12T08:47:33.422Z</time>
      </trkpt>
      <trkpt lat="46.86749" lon="8.47388">
        <ele>2221</ele>
        <time>2021-08-12T08:47:34.422Z</time>
      </trkpt>
      <trkpt lat="46.86749" lon="8.47387">
        <ele>2220</ele>
        <time>2021-08-12T08:47:35.423Z</time>
      </trkpt>
      <trkpt lat="46.86748" lon="8.47386">
        <ele>2220</ele>
        <time>2021-08-12T08:47:36.423Z</time>
      </trkpt>
      <trkpt lat="46.86747" lon="8.47384">
        <ele>2219</ele>
        <time>2021-08-12T08:47:37.423Z</time>
      </trkpt>
      <trkpt lat="46.86746" lon="8.47384">
        <ele>2219</ele>
        <time>2021-08-12T08:47:38.423Z</time>
      </trkpt>
      <trkpt lat="46.86746" lon="8.47384">
        <ele>2219</ele>
        <time>2021-08-12T08:47:39.423Z</time>
      </trkpt>
      <trkpt lat="46.86745" lon="8.47384">
        <ele>2219</ele>
        <time>2021-08-12T08:47:40.423Z</time>
      </trkpt>
      <trkpt lat="46.86745" lon="8.47385">
        <ele>2219</ele>
        <time>2021-08-12T08:47:41.423Z</time>
      </trkpt>
      <trkpt lat="46.86745" lon="8.47385">
        <ele>2218</ele>
        <time>2021-08-12T08:47:42.423Z</time>
      </trkpt>
      <trkpt lat="46.86745" lon="8.47385">
        <ele>2218</ele>
        <time>2021-08-12T08:47:43.423Z</time>
      </trkpt>
      <trkpt lat="46.86744" lon="8.47386">
        <ele>2219</ele>
        <time>2021-08-12T08:47:44.423Z</time>
      </trkpt>
      <trkpt lat="46.86742" lon="8.47387">
        <ele>2219</ele>
        <time>2021-08-12T08:47:45.423Z</time>
      </trkpt>
      <trkpt lat="46.86741" lon="8.47387">
        <ele>2219</ele>
        <time>2021-08-12T08:47:46.422Z</time>
      </trkpt>
      <trkpt lat="46.86741" lon="8.47387">
        <ele>2220</ele>
        <time>2021-08-12T08:47:47.423Z</time>
      </trkpt>
      <trkpt lat="46.8674" lon="8.47387">
        <ele>2220</ele>
        <time>2021-08-12T08:47:48.423Z</time>
      </trkpt>
      <trkpt lat="46.8674" lon="8.47387">
        <ele>2220</ele>
        <time>2021-08-12T08:47:49.423Z</time>
      </trkpt>
      <trkpt lat="46.86739" lon="8.47387">
        <ele>2220</ele>
        <time>2021-08-12T08:47:50.423Z</time>
      </trkpt>
      <trkpt lat="46.86738" lon="8.47387">
        <ele>2220</ele>
        <time>2021-08-12T08:47:51.422Z</time>
      </trkpt>
      <trkpt lat="46.86738" lon="8.47387">
        <ele>2220</ele>
        <time>2021-08-12T08:47:52.423Z</time>
      </trkpt>
      <trkpt lat="46.86738" lon="8.47387">
        <ele>2220</ele>
        <time>2021-08-12T08:47:53.423Z</time>
      </trkpt>
      <trkpt lat="46.86738" lon="8.47386">
        <ele>2220</ele>
        <time>2021-08-12T08:47:54.422Z</time>
      </trkpt>
      <trkpt lat="46.86737" lon="8.47386">
        <ele>2220</ele>
        <time>2021-08-12T08:47:55.422Z</time>
      </trkpt>
      <trkpt lat="46.86738" lon="8.47385">
        <ele>2219</ele>
        <time>2021-08-12T08:47:56.422Z</time>
      </trkpt>
      <trkpt lat="46.86738" lon="8.47384">
        <ele>2219</ele>
        <time>2021-08-12T08:47:57.423Z</time>
      </trkpt>
      <trkpt lat="46.86735" lon="8.47382">
        <ele>2218</ele>
        <time>2021-08-12T08:47:58.423Z</time>
      </trkpt>
      <trkpt lat="46.86735" lon="8.47381">
        <ele>2218</ele>
        <time>2021-08-12T08:47:59.422Z</time>
      </trkpt>
      <trkpt lat="46.86734" lon="8.47381">
        <ele>2219</ele>
        <time>2021-08-12T08:48:00.423Z</time>
      </trkpt>
      <trkpt lat="46.86734" lon="8.4738">
        <ele>2219</ele>
        <time>2021-08-12T08:48:01.422Z</time>
      </trkpt>
      <trkpt lat="46.86733" lon="8.4738">
        <ele>2219</ele>
        <time>2021-08-12T08:48:02.423Z</time>
      </trkpt>
      <trkpt lat="46.86733" lon="8.4738">
        <ele>2219</ele>
        <time>2021-08-12T08:48:03.422Z</time>
      </trkpt>
      <trkpt lat="46.86732" lon="8.47379">
        <ele>2219</ele>
        <time>2021-08-12T08:48:04.423Z</time>
      </trkpt>
      <trkpt lat="46.86731" lon="8.47378">
        <ele>2219</ele>
        <time>2021-08-12T08:48:05.422Z</time>
      </trkpt>
      <trkpt lat="46.8673" lon="8.47377">
        <ele>2220</ele>
        <time>2021-08-12T08:48:06.423Z</time>
      </trkpt>
      <trkpt lat="46.8673" lon="8.47376">
        <ele>2220</ele>
        <time>2021-08-12T08:48:07.423Z</time>
      </trkpt>
      <trkpt lat="46.8673" lon="8.47376">
        <ele>2220</ele>
        <time>2021-08-12T08:48:08.422Z</time>
      </trkpt>
      <trkpt lat="46.86729" lon="8.47375">
        <ele>2220</ele>
        <time>2021-08-12T08:48:09.423Z</time>
      </trkpt>
      <trkpt lat="46.86728" lon="8.47375">
        <ele>2220</ele>
        <time>2021-08-12T08:48:10.422Z</time>
      </trkpt>
      <trkpt lat="46.86728" lon="8.47375">
        <ele>2221</ele>
        <time>2021-08-12T08:48:11.423Z</time>
      </trkpt>
      <trkpt lat="46.86727" lon="8.47374">
        <ele>2221</ele>
        <time>2021-08-12T08:48:12.422Z</time>
      </trkpt>
      <trkpt lat="46.86727" lon="8.47373">
        <ele>2221</ele>
        <time>2021-08-12T08:48:13.423Z</time>
      </trkpt>
      <trkpt lat="46.86727" lon="8.47372">
        <ele>2222</ele>
        <time>2021-08-12T08:48:14.423Z</time>
      </trkpt>
      <trkpt lat="46.86726" lon="8.47371">
        <ele>2222</ele>
        <time>2021-08-12T08:48:15.423Z</time>
      </trkpt>
      <trkpt lat="46.86725" lon="8.4737">
        <ele>2222</ele>
        <time>2021-08-12T08:48:16.423Z</time>
      </trkpt>
      <trkpt lat="46.86724" lon="8.4737">
        <ele>2222</ele>
        <time>2021-08-12T08:48:17.423Z</time>
      </trkpt>
      <trkpt lat="46.86724" lon="8.47369">
        <ele>2222</ele>
        <time>2021-08-12T08:48:18.423Z</time>
      </trkpt>
      <trkpt lat="46.86723" lon="8.47369">
        <ele>2221</ele>
        <time>2021-08-12T08:48:19.422Z</time>
      </trkpt>
      <trkpt lat="46.86722" lon="8.47369">
        <ele>2221</ele>
        <time>2021-08-12T08:48:20.422Z</time>
      </trkpt>
      <trkpt lat="46.86721" lon="8.47368">
        <ele>2220</ele>
        <time>2021-08-12T08:48:21.423Z</time>
      </trkpt>
      <trkpt lat="46.8672" lon="8.47368">
        <ele>2220</ele>
        <time>2021-08-12T08:48:22.423Z</time>
      </trkpt>
      <trkpt lat="46.8672" lon="8.47367">
        <ele>2219</ele>
        <time>2021-08-12T08:48:23.423Z</time>
      </trkpt>
      <trkpt lat="46.86719" lon="8.47367">
        <ele>2219</ele>
        <time>2021-08-12T08:48:24.422Z</time>
      </trkpt>
      <trkpt lat="46.86719" lon="8.47366">
        <ele>2218</ele>
        <time>2021-08-12T08:48:25.423Z</time>
      </trkpt>
      <trkpt lat="46.86718" lon="8.47366">
        <ele>2218</ele>
        <time>2021-08-12T08:48:26.423Z</time>
      </trkpt>
      <trkpt lat="46.86717" lon="8.47365">
        <ele>2218</ele>
        <time>2021-08-12T08:48:27.422Z</time>
      </trkpt>
      <trkpt lat="46.86716" lon="8.47364">
        <ele>2218</ele>
        <time>2021-08-12T08:48:28.422Z</time>
      </trkpt>
      <trkpt lat="46.86715" lon="8.47363">
        <ele>2217</ele>
        <time>2021-08-12T08:48:29.423Z</time>
      </trkpt>
      <trkpt lat="46.86714" lon="8.47363">
        <ele>2217</ele>
        <time>2021-08-12T08:48:30.422Z</time>
      </trkpt>
      <trkpt lat="46.86714" lon="8.47362">
        <ele>2217</ele>
        <time>2021-08-12T08:48:31.423Z</time>
      </trkpt>
      <trkpt lat="46.86713" lon="8.47361">
        <ele>2217</ele>
        <time>2021-08-12T08:48:32.423Z</time>
      </trkpt>
      <trkpt lat="46.86713" lon="8.47361">
        <ele>2217</ele>
        <time>2021-08-12T08:48:33.422Z</time>
      </trkpt>
      <trkpt lat="46.86713" lon="8.47361">
        <ele>2217</ele>
        <time>2021-08-12T08:48:34.422Z</time>
      </trkpt>
      <trkpt lat="46.86714" lon="8.4736">
        <ele>2217</ele>
        <time>2021-08-12T08:48:35.422Z</time>
      </trkpt>
      <trkpt lat="46.86713" lon="8.4736">
        <ele>2217</ele>
        <time>2021-08-12T08:48:36.423Z</time>
      </trkpt>
      <trkpt lat="46.86712" lon="8.4736">
        <ele>2216</ele>
        <time>2021-08-12T08:48:37.422Z</time>
      </trkpt>
      <trkpt lat="46.86711" lon="8.4736">
        <ele>2216</ele>
        <time>2021-08-12T08:48:38.422Z</time>
      </trkpt>
      <trkpt lat="46.8671" lon="8.4736">
        <ele>2216</ele>
        <time>2021-08-12T08:48:39.423Z</time>
      </trkpt>
      <trkpt lat="46.8671" lon="8.47359">
        <ele>2215</ele>
        <time>2021-08-12T08:48:40.423Z</time>
      </trkpt>
      <trkpt lat="46.86708" lon="8.47358">
        <ele>2216</ele>
        <time>2021-08-12T08:48:41.422Z</time>
      </trkpt>
      <trkpt lat="46.86708" lon="8.47358">
        <ele>2216</ele>
        <time>2021-08-12T08:48:42.422Z</time>
      </trkpt>
      <trkpt lat="46.86707" lon="8.47357">
        <ele>2217</ele>
        <time>2021-08-12T08:48:43.422Z</time>
      </trkpt>
      <trkpt lat="46.86705" lon="8.47356">
        <ele>2217</ele>
        <time>2021-08-12T08:48:44.423Z</time>
      </trkpt>
      <trkpt lat="46.86705" lon="8.47356">
        <ele>2218</ele>
        <time>2021-08-12T08:48:45.423Z</time>
      </trkpt>
      <trkpt lat="46.86704" lon="8.47356">
        <ele>2219</ele>
        <time>2021-08-12T08:48:46.423Z</time>
      </trkpt>
      <trkpt lat="46.86703" lon="8.47355">
        <ele>2220</ele>
        <time>2021-08-12T08:48:47.423Z</time>
      </trkpt>
      <trkpt lat="46.86702" lon="8.47355">
        <ele>2220</ele>
        <time>2021-08-12T08:48:48.423Z</time>
      </trkpt>
      <trkpt lat="46.86701" lon="8.47354">
        <ele>2220</ele>
        <time>2021-08-12T08:48:49.422Z</time>
      </trkpt>
      <trkpt lat="46.867" lon="8.47354">
        <ele>2221</ele>
        <time>2021-08-12T08:48:50.423Z</time>
      </trkpt>
      <trkpt lat="46.86698" lon="8.47353">
        <ele>2222</ele>
        <time>2021-08-12T08:48:51.423Z</time>
      </trkpt>
      <trkpt lat="46.86698" lon="8.47353">
        <ele>2222</ele>
        <time>2021-08-12T08:48:52.422Z</time>
      </trkpt>
      <trkpt lat="46.86697" lon="8.47353">
        <ele>2222</ele>
        <time>2021-08-12T08:48:53.422Z</time>
      </trkpt>
      <trkpt lat="46.86696" lon="8.47353">
        <ele>2223</ele>
        <time>2021-08-12T08:48:54.422Z</time>
      </trkpt>
      <trkpt lat="46.86696" lon="8.47352">
        <ele>2223</ele>
        <time>2021-08-12T08:48:55.423Z</time>
      </trkpt>
      <trkpt lat="46.86696" lon="8.47353">
        <ele>2223</ele>
        <time>2021-08-12T08:48:56.422Z</time>
      </trkpt>
      <trkpt lat="46.86696" lon="8.47353">
        <ele>2223</ele>
        <time>2021-08-12T08:48:57.423Z</time>
      </trkpt>
      <trkpt lat="46.86696" lon="8.47353">
        <ele>2223</ele>
        <time>2021-08-12T08:48:58.422Z</time>
      </trkpt>
      <trkpt lat="46.86696" lon="8.47352">
        <ele>2223</ele>
        <time>2021-08-12T08:48:59.422Z</time>
      </trkpt>
      <trkpt lat="46.86695" lon="8.47352">
        <ele>2223</ele>
        <time>2021-08-12T08:49:00.423Z</time>
      </trkpt>
      <trkpt lat="46.86695" lon="8.47351">
        <ele>2223</ele>
        <time>2021-08-12T08:49:01.422Z</time>
      </trkpt>
      <trkpt lat="46.86692" lon="8.4735">
        <ele>2220</ele>
        <time>2021-08-12T08:49:02.423Z</time>
      </trkpt>
      <trkpt lat="46.86692" lon="8.4735">
        <ele>2221</ele>
        <time>2021-08-12T08:49:03.423Z</time>
      </trkpt>
      <trkpt lat="46.86691" lon="8.47349">
        <ele>2221</ele>
        <time>2021-08-12T08:49:04.423Z</time>
      </trkpt>
      <trkpt lat="46.8669" lon="8.47349">
        <ele>2221</ele>
        <time>2021-08-12T08:49:05.423Z</time>
      </trkpt>
      <trkpt lat="46.86689" lon="8.47349">
        <ele>2221</ele>
        <time>2021-08-12T08:49:06.422Z</time>
      </trkpt>
      <trkpt lat="46.86688" lon="8.47348">
        <ele>2221</ele>
        <time>2021-08-12T08:49:07.423Z</time>
      </trkpt>
      <trkpt lat="46.86688" lon="8.47348">
        <ele>2221</ele>
        <time>2021-08-12T08:49:08.423Z</time>
      </trkpt>
      <trkpt lat="46.86687" lon="8.47347">
        <ele>2220</ele>
        <time>2021-08-12T08:49:09.423Z</time>
      </trkpt>
      <trkpt lat="46.86687" lon="8.47346">
        <ele>2219</ele>
        <time>2021-08-12T08:49:10.423Z</time>
      </trkpt>
      <trkpt lat="46.86686" lon="8.47346">
        <ele>2219</ele>
        <time>2021-08-12T08:49:11.423Z</time>
      </trkpt>
      <trkpt lat="46.86686" lon="8.47346">
        <ele>2218</ele>
        <time>2021-08-12T08:49:12.423Z</time>
      </trkpt>
      <trkpt lat="46.86685" lon="8.47345">
        <ele>2218</ele>
        <time>2021-08-12T08:49:13.423Z</time>
      </trkpt>
      <trkpt lat="46.86685" lon="8.47344">
        <ele>2218</ele>
        <time>2021-08-12T08:49:14.422Z</time>
      </trkpt>
      <trkpt lat="46.86684" lon="8.47343">
        <ele>2217</ele>
        <time>2021-08-12T08:49:15.423Z</time>
      </trkpt>
      <trkpt lat="46.86684" lon="8.47342">
        <ele>2217</ele>
        <time>2021-08-12T08:49:16.423Z</time>
      </trkpt>
      <trkpt lat="46.86683" lon="8.47342">
        <ele>2216</ele>
        <time>2021-08-12T08:49:17.423Z</time>
      </trkpt>
      <trkpt lat="46.86683" lon="8.47341">
        <ele>2215</ele>
        <time>2021-08-12T08:49:18.423Z</time>
      </trkpt>
      <trkpt lat="46.86682" lon="8.47341">
        <ele>2215</ele>
        <time>2021-08-12T08:49:19.423Z</time>
      </trkpt>
      <trkpt lat="46.86682" lon="8.4734">
        <ele>2214</ele>
        <time>2021-08-12T08:49:20.422Z</time>
      </trkpt>
      <trkpt lat="46.86681" lon="8.4734">
        <ele>2214</ele>
        <time>2021-08-12T08:49:21.422Z</time>
      </trkpt>
      <trkpt lat="46.8668" lon="8.4734">
        <ele>2213</ele>
        <time>2021-08-12T08:49:22.422Z</time>
      </trkpt>
      <trkpt lat="46.86679" lon="8.4734">
        <ele>2213</ele>
        <time>2021-08-12T08:49:23.423Z</time>
      </trkpt>
      <trkpt lat="46.86679" lon="8.4734">
        <ele>2213</ele>
        <time>2021-08-12T08:49:24.423Z</time>
      </trkpt>
      <trkpt lat="46.86677" lon="8.4734">
        <ele>2213</ele>
        <time>2021-08-12T08:49:25.423Z</time>
      </trkpt>
      <trkpt lat="46.86676" lon="8.4734">
        <ele>2212</ele>
        <time>2021-08-12T08:49:26.423Z</time>
      </trkpt>
      <trkpt lat="46.86675" lon="8.4734">
        <ele>2212</ele>
        <time>2021-08-12T08:49:27.422Z</time>
      </trkpt>
      <trkpt lat="46.86674" lon="8.4734">
        <ele>2212</ele>
        <time>2021-08-12T08:49:28.423Z</time>
      </trkpt>
      <trkpt lat="46.86673" lon="8.47341">
        <ele>2212</ele>
        <time>2021-08-12T08:49:29.423Z</time>
      </trkpt>
      <trkpt lat="46.86672" lon="8.47341">
        <ele>2211</ele>
        <time>2021-08-12T08:49:30.422Z</time>
      </trkpt>
      <trkpt lat="46.86671" lon="8.47341">
        <ele>2211</ele>
        <time>2021-08-12T08:49:31.423Z</time>
      </trkpt>
      <trkpt lat="46.86671" lon="8.47341">
        <ele>2211</ele>
        <time>2021-08-12T08:49:32.422Z</time>
      </trkpt>
      <trkpt lat="46.8667" lon="8.4734">
        <ele>2211</ele>
        <time>2021-08-12T08:49:33.422Z</time>
      </trkpt>
      <trkpt lat="46.8667" lon="8.4734">
        <ele>2211</ele>
        <time>2021-08-12T08:49:34.423Z</time>
      </trkpt>
      <trkpt lat="46.8667" lon="8.4734">
        <ele>2211</ele>
        <time>2021-08-12T08:49:35.423Z</time>
      </trkpt>
      <trkpt lat="46.86669" lon="8.4734">
        <ele>2211</ele>
        <time>2021-08-12T08:49:36.423Z</time>
      </trkpt>
      <trkpt lat="46.86668" lon="8.4734">
        <ele>2210</ele>
        <time>2021-08-12T08:49:37.422Z</time>
      </trkpt>
      <trkpt lat="46.86667" lon="8.4734">
        <ele>2210</ele>
        <time>2021-08-12T08:49:38.423Z</time>
      </trkpt>
      <trkpt lat="46.86665" lon="8.4734">
        <ele>2210</ele>
        <time>2021-08-12T08:49:39.423Z</time>
      </trkpt>
      <trkpt lat="46.86663" lon="8.47341">
        <ele>2209</ele>
        <time>2021-08-12T08:49:40.422Z</time>
      </trkpt>
      <trkpt lat="46.86663" lon="8.47341">
        <ele>2209</ele>
        <time>2021-08-12T08:49:41.422Z</time>
      </trkpt>
      <trkpt lat="46.86662" lon="8.47342">
        <ele>2209</ele>
        <time>2021-08-12T08:49:42.423Z</time>
      </trkpt>
      <trkpt lat="46.86661" lon="8.47343">
        <ele>2209</ele>
        <time>2021-08-12T08:49:43.422Z</time>
      </trkpt>
      <trkpt lat="46.8666" lon="8.47343">
        <ele>2209</ele>
        <time>2021-08-12T08:49:44.422Z</time>
      </trkpt>
      <trkpt lat="46.8666" lon="8.47343">
        <ele>2209</ele>
        <time>2021-08-12T08:49:45.422Z</time>
      </trkpt>
      <trkpt lat="46.86659" lon="8.47344">
        <ele>2209</ele>
        <time>2021-08-12T08:49:46.423Z</time>
      </trkpt>
      <trkpt lat="46.86658" lon="8.47344">
        <ele>2209</ele>
        <time>2021-08-12T08:49:47.422Z</time>
      </trkpt>
      <trkpt lat="46.86658" lon="8.47345">
        <ele>2209</ele>
        <time>2021-08-12T08:49:48.423Z</time>
      </trkpt>
      <trkpt lat="46.86657" lon="8.47345">
        <ele>2208</ele>
        <time>2021-08-12T08:49:49.423Z</time>
      </trkpt>
      <trkpt lat="46.86657" lon="8.47346">
        <ele>2208</ele>
        <time>2021-08-12T08:49:50.423Z</time>
      </trkpt>
      <trkpt lat="46.86656" lon="8.47347">
        <ele>2208</ele>
        <time>2021-08-12T08:49:51.423Z</time>
      </trkpt>
      <trkpt lat="46.86656" lon="8.47348">
        <ele>2208</ele>
        <time>2021-08-12T08:49:52.423Z</time>
      </trkpt>
      <trkpt lat="46.86655" lon="8.47348">
        <ele>2207</ele>
        <time>2021-08-12T08:49:53.422Z</time>
      </trkpt>
      <trkpt lat="46.86655" lon="8.47349">
        <ele>2207</ele>
        <time>2021-08-12T08:49:54.423Z</time>
      </trkpt>
      <trkpt lat="46.86655" lon="8.4735">
        <ele>2207</ele>
        <time>2021-08-12T08:49:55.422Z</time>
      </trkpt>
      <trkpt lat="46.86655" lon="8.47351">
        <ele>2206</ele>
        <time>2021-08-12T08:49:56.422Z</time>
      </trkpt>
      <trkpt lat="46.86654" lon="8.47352">
        <ele>2206</ele>
        <time>2021-08-12T08:49:57.423Z</time>
      </trkpt>
      <trkpt lat="46.86653" lon="8.47353">
        <ele>2206</ele>
        <time>2021-08-12T08:49:58.423Z</time>
      </trkpt>
      <trkpt lat="46.86652" lon="8.47353">
        <ele>2206</ele>
        <time>2021-08-12T08:49:59.422Z</time>
      </trkpt>
      <trkpt lat="46.86651" lon="8.47354">
        <ele>2206</ele>
        <time>2021-08-12T08:50:00.422Z</time>
      </trkpt>
      <trkpt lat="46.8665" lon="8.47354">
        <ele>2206</ele>
        <time>2021-08-12T08:50:01.423Z</time>
      </trkpt>
      <trkpt lat="46.86649" lon="8.47353">
        <ele>2207</ele>
        <time>2021-08-12T08:50:02.423Z</time>
      </trkpt>
      <trkpt lat="46.86648" lon="8.47354">
        <ele>2207</ele>
        <time>2021-08-12T08:50:03.423Z</time>
      </trkpt>
      <trkpt lat="46.86648" lon="8.47353">
        <ele>2208</ele>
        <time>2021-08-12T08:50:04.422Z</time>
      </trkpt>
      <trkpt lat="46.86646" lon="8.47353">
        <ele>2209</ele>
        <time>2021-08-12T08:50:05.422Z</time>
      </trkpt>
      <trkpt lat="46.86645" lon="8.47353">
        <ele>2210</ele>
        <time>2021-08-12T08:50:06.423Z</time>
      </trkpt>
      <trkpt lat="46.86644" lon="8.47354">
        <ele>2210</ele>
        <time>2021-08-12T08:50:07.422Z</time>
      </trkpt>
      <trkpt lat="46.86643" lon="8.47355">
        <ele>2211</ele>
        <time>2021-08-12T08:50:08.422Z</time>
      </trkpt>
      <trkpt lat="46.86643" lon="8.47357">
        <ele>2211</ele>
        <time>2021-08-12T08:50:09.423Z</time>
      </trkpt>
      <trkpt lat="46.86642" lon="8.47358">
        <ele>2211</ele>
        <time>2021-08-12T08:50:10.423Z</time>
      </trkpt>
      <trkpt lat="46.86642" lon="8.47359">
        <ele>2212</ele>
        <time>2021-08-12T08:50:11.422Z</time>
      </trkpt>
      <trkpt lat="46.86641" lon="8.4736">
        <ele>2212</ele>
        <time>2021-08-12T08:50:12.422Z</time>
      </trkpt>
      <trkpt lat="46.8664" lon="8.4736">
        <ele>2213</ele>
        <time>2021-08-12T08:50:13.422Z</time>
      </trkpt>
      <trkpt lat="46.8664" lon="8.4736">
        <ele>2213</ele>
        <time>2021-08-12T08:50:14.423Z</time>
      </trkpt>
      <trkpt lat="46.86639" lon="8.47361">
        <ele>2214</ele>
        <time>2021-08-12T08:50:15.422Z</time>
      </trkpt>
      <trkpt lat="46.86639" lon="8.4736">
        <ele>2214</ele>
        <time>2021-08-12T08:50:16.422Z</time>
      </trkpt>
      <trkpt lat="46.86639" lon="8.47359">
        <ele>2215</ele>
        <time>2021-08-12T08:50:17.422Z</time>
      </trkpt>
      <trkpt lat="46.86639" lon="8.47359">
        <ele>2216</ele>
        <time>2021-08-12T08:50:18.422Z</time>
      </trkpt>
      <trkpt lat="46.86639" lon="8.47358">
        <ele>2216</ele>
        <time>2021-08-12T08:50:19.422Z</time>
      </trkpt>
      <trkpt lat="46.86638" lon="8.47357">
        <ele>2217</ele>
        <time>2021-08-12T08:50:20.422Z</time>
      </trkpt>
      <trkpt lat="46.86636" lon="8.47356">
        <ele>2217</ele>
        <time>2021-08-12T08:50:21.422Z</time>
      </trkpt>
      <trkpt lat="46.86635" lon="8.47355">
        <ele>2217</ele>
        <time>2021-08-12T08:50:22.422Z</time>
      </trkpt>
      <trkpt lat="46.86634" lon="8.47354">
        <ele>2217</ele>
        <time>2021-08-12T08:50:23.422Z</time>
      </trkpt>
      <trkpt lat="46.86633" lon="8.47355">
        <ele>2218</ele>
        <time>2021-08-12T08:50:24.422Z</time>
      </trkpt>
      <trkpt lat="46.86632" lon="8.47356">
        <ele>2218</ele>
        <time>2021-08-12T08:50:25.422Z</time>
      </trkpt>
      <trkpt lat="46.86631" lon="8.47357">
        <ele>2218</ele>
        <time>2021-08-12T08:50:26.422Z</time>
      </trkpt>
      <trkpt lat="46.8663" lon="8.47358">
        <ele>2218</ele>
        <time>2021-08-12T08:50:27.422Z</time>
      </trkpt>
      <trkpt lat="46.8663" lon="8.47359">
        <ele>2218</ele>
        <time>2021-08-12T08:50:28.422Z</time>
      </trkpt>
      <trkpt lat="46.86629" lon="8.4736">
        <ele>2218</ele>
        <time>2021-08-12T08:50:29.422Z</time>
      </trkpt>
      <trkpt lat="46.86628" lon="8.47361">
        <ele>2218</ele>
        <time>2021-08-12T08:50:30.423Z</time>
      </trkpt>
      <trkpt lat="46.86627" lon="8.47362">
        <ele>2219</ele>
        <time>2021-08-12T08:50:31.422Z</time>
      </trkpt>
      <trkpt lat="46.86627" lon="8.47363">
        <ele>2219</ele>
        <time>2021-08-12T08:50:32.422Z</time>
      </trkpt>
      <trkpt lat="46.86626" lon="8.47365">
        <ele>2219</ele>
        <time>2021-08-12T08:50:33.422Z</time>
      </trkpt>
      <trkpt lat="46.86626" lon="8.47366">
        <ele>2219</ele>
        <time>2021-08-12T08:50:34.422Z</time>
      </trkpt>
      <trkpt lat="46.86625" lon="8.47368">
        <ele>2218</ele>
        <time>2021-08-12T08:50:35.422Z</time>
      </trkpt>
      <trkpt lat="46.86623" lon="8.4737">
        <ele>2218</ele>
        <time>2021-08-12T08:50:36.422Z</time>
      </trkpt>
      <trkpt lat="46.86622" lon="8.47371">
        <ele>2218</ele>
        <time>2021-08-12T08:50:37.422Z</time>
      </trkpt>
      <trkpt lat="46.86622" lon="8.47373">
        <ele>2217</ele>
        <time>2021-08-12T08:50:38.423Z</time>
      </trkpt>
      <trkpt lat="46.86621" lon="8.47374">
        <ele>2217</ele>
        <time>2021-08-12T08:50:39.422Z</time>
      </trkpt>
      <trkpt lat="46.8662" lon="8.47375">
        <ele>2217</ele>
        <time>2021-08-12T08:50:40.422Z</time>
      </trkpt>
      <trkpt lat="46.86619" lon="8.47376">
        <ele>2216</ele>
        <time>2021-08-12T08:50:41.422Z</time>
      </trkpt>
      <trkpt lat="46.86618" lon="8.47378">
        <ele>2216</ele>
        <time>2021-08-12T08:50:42.423Z</time>
      </trkpt>
      <trkpt lat="46.86617" lon="8.4738">
        <ele>2216</ele>
        <time>2021-08-12T08:50:43.423Z</time>
      </trkpt>
      <trkpt lat="46.86617" lon="8.47382">
        <ele>2216</ele>
        <time>2021-08-12T08:50:44.423Z</time>
      </trkpt>
      <trkpt lat="46.86616" lon="8.47383">
        <ele>2215</ele>
        <time>2021-08-12T08:50:45.423Z</time>
      </trkpt>
      <trkpt lat="46.86616" lon="8.47385">
        <ele>2215</ele>
        <time>2021-08-12T08:50:46.423Z</time>
      </trkpt>
      <trkpt lat="46.86615" lon="8.47386">
        <ele>2215</ele>
        <time>2021-08-12T08:50:47.423Z</time>
      </trkpt>
      <trkpt lat="46.86615" lon="8.47387">
        <ele>2215</ele>
        <time>2021-08-12T08:50:48.423Z</time>
      </trkpt>
      <trkpt lat="46.86614" lon="8.47388">
        <ele>2215</ele>
        <time>2021-08-12T08:50:49.423Z</time>
      </trkpt>
      <trkpt lat="46.86614" lon="8.47389">
        <ele>2215</ele>
        <time>2021-08-12T08:50:50.422Z</time>
      </trkpt>
      <trkpt lat="46.86614" lon="8.4739">
        <ele>2215</ele>
        <time>2021-08-12T08:50:51.423Z</time>
      </trkpt>
      <trkpt lat="46.86613" lon="8.47391">
        <ele>2215</ele>
        <time>2021-08-12T08:50:52.422Z</time>
      </trkpt>
      <trkpt lat="46.86613" lon="8.47393">
        <ele>2215</ele>
        <time>2021-08-12T08:50:53.422Z</time>
      </trkpt>
      <trkpt lat="46.86612" lon="8.47395">
        <ele>2216</ele>
        <time>2021-08-12T08:50:54.423Z</time>
      </trkpt>
      <trkpt lat="46.86613" lon="8.47396">
        <ele>2216</ele>
        <time>2021-08-12T08:50:55.423Z</time>
      </trkpt>
      <trkpt lat="46.86612" lon="8.47398">
        <ele>2217</ele>
        <time>2021-08-12T08:50:56.423Z</time>
      </trkpt>
      <trkpt lat="46.86612" lon="8.47399">
        <ele>2218</ele>
        <time>2021-08-12T08:50:57.423Z</time>
      </trkpt>
      <trkpt lat="46.86611" lon="8.47401">
        <ele>2218</ele>
        <time>2021-08-12T08:50:58.423Z</time>
      </trkpt>
      <trkpt lat="46.86611" lon="8.47402">
        <ele>2218</ele>
        <time>2021-08-12T08:50:59.422Z</time>
      </trkpt>
      <trkpt lat="46.8661" lon="8.47403">
        <ele>2218</ele>
        <time>2021-08-12T08:51:00.423Z</time>
      </trkpt>
      <trkpt lat="46.8661" lon="8.47404">
        <ele>2219</ele>
        <time>2021-08-12T08:51:01.422Z</time>
      </trkpt>
      <trkpt lat="46.8661" lon="8.47404">
        <ele>2219</ele>
        <time>2021-08-12T08:51:02.422Z</time>
      </trkpt>
      <trkpt lat="46.86609" lon="8.47404">
        <ele>2219</ele>
        <time>2021-08-12T08:51:03.423Z</time>
      </trkpt>
      <trkpt lat="46.86609" lon="8.47403">
        <ele>2218</ele>
        <time>2021-08-12T08:51:04.422Z</time>
      </trkpt>
      <trkpt lat="46.86609" lon="8.47403">
        <ele>2218</ele>
        <time>2021-08-12T08:51:05.423Z</time>
      </trkpt>
      <trkpt lat="46.86608" lon="8.47403">
        <ele>2218</ele>
        <time>2021-08-12T08:51:06.422Z</time>
      </trkpt>
      <trkpt lat="46.86608" lon="8.47404">
        <ele>2218</ele>
        <time>2021-08-12T08:51:07.422Z</time>
      </trkpt>
      <trkpt lat="46.86607" lon="8.47404">
        <ele>2218</ele>
        <time>2021-08-12T08:51:08.422Z</time>
      </trkpt>
      <trkpt lat="46.86606" lon="8.47405">
        <ele>2217</ele>
        <time>2021-08-12T08:51:09.422Z</time>
      </trkpt>
      <trkpt lat="46.86604" lon="8.47406">
        <ele>2217</ele>
        <time>2021-08-12T08:51:10.423Z</time>
      </trkpt>
      <trkpt lat="46.86604" lon="8.47407">
        <ele>2216</ele>
        <time>2021-08-12T08:51:11.423Z</time>
      </trkpt>
      <trkpt lat="46.86603" lon="8.47407">
        <ele>2216</ele>
        <time>2021-08-12T08:51:12.423Z</time>
      </trkpt>
      <trkpt lat="46.86602" lon="8.47408">
        <ele>2215</ele>
        <time>2021-08-12T08:51:13.423Z</time>
      </trkpt>
      <trkpt lat="46.86601" lon="8.47408">
        <ele>2215</ele>
        <time>2021-08-12T08:51:14.422Z</time>
      </trkpt>
      <trkpt lat="46.866" lon="8.47408">
        <ele>2214</ele>
        <time>2021-08-12T08:51:15.422Z</time>
      </trkpt>
      <trkpt lat="46.86599" lon="8.47409">
        <ele>2213</ele>
        <time>2021-08-12T08:51:16.423Z</time>
      </trkpt>
      <trkpt lat="46.86599" lon="8.4741">
        <ele>2213</ele>
        <time>2021-08-12T08:51:17.423Z</time>
      </trkpt>
      <trkpt lat="46.86598" lon="8.47411">
        <ele>2212</ele>
        <time>2021-08-12T08:51:18.423Z</time>
      </trkpt>
      <trkpt lat="46.86597" lon="8.47412">
        <ele>2211</ele>
        <time>2021-08-12T08:51:19.422Z</time>
      </trkpt>
      <trkpt lat="46.86596" lon="8.47413">
        <ele>2211</ele>
        <time>2021-08-12T08:51:20.422Z</time>
      </trkpt>
      <trkpt lat="46.86595" lon="8.47414">
        <ele>2210</ele>
        <time>2021-08-12T08:51:21.423Z</time>
      </trkpt>
      <trkpt lat="46.86595" lon="8.47414">
        <ele>2209</ele>
        <time>2021-08-12T08:51:22.423Z</time>
      </trkpt>
      <trkpt lat="46.86595" lon="8.47414">
        <ele>2209</ele>
        <time>2021-08-12T08:51:23.423Z</time>
      </trkpt>
      <trkpt lat="46.86595" lon="8.47414">
        <ele>2209</ele>
        <time>2021-08-12T08:51:24.423Z</time>
      </trkpt>
      <trkpt lat="46.86595" lon="8.47414">
        <ele>2209</ele>
        <time>2021-08-12T08:51:25.423Z</time>
      </trkpt>
      <trkpt lat="46.86595" lon="8.47416">
        <ele>2209</ele>
        <time>2021-08-12T08:51:26.423Z</time>
      </trkpt>
      <trkpt lat="46.86594" lon="8.47417">
        <ele>2210</ele>
        <time>2021-08-12T08:51:27.422Z</time>
      </trkpt>
      <trkpt lat="46.86594" lon="8.47417">
        <ele>2210</ele>
        <time>2021-08-12T08:51:28.423Z</time>
      </trkpt>
      <trkpt lat="46.86593" lon="8.47418">
        <ele>2211</ele>
        <time>2021-08-12T08:51:29.423Z</time>
      </trkpt>
      <trkpt lat="46.86592" lon="8.47418">
        <ele>2211</ele>
        <time>2021-08-12T08:51:30.423Z</time>
      </trkpt>
      <trkpt lat="46.86591" lon="8.47418">
        <ele>2211</ele>
        <time>2021-08-12T08:51:31.423Z</time>
      </trkpt>
      <trkpt lat="46.86591" lon="8.47418">
        <ele>2210</ele>
        <time>2021-08-12T08:51:32.422Z</time>
      </trkpt>
      <trkpt lat="46.8659" lon="8.47418">
        <ele>2210</ele>
        <time>2021-08-12T08:51:33.423Z</time>
      </trkpt>
      <trkpt lat="46.8659" lon="8.47419">
        <ele>2210</ele>
        <time>2021-08-12T08:51:34.423Z</time>
      </trkpt>
      <trkpt lat="46.86589" lon="8.47419">
        <ele>2210</ele>
        <time>2021-08-12T08:51:35.422Z</time>
      </trkpt>
      <trkpt lat="46.86588" lon="8.47419">
        <ele>2211</ele>
        <time>2021-08-12T08:51:36.423Z</time>
      </trkpt>
      <trkpt lat="46.86587" lon="8.4742">
        <ele>2211</ele>
        <time>2021-08-12T08:51:37.423Z</time>
      </trkpt>
      <trkpt lat="46.86587" lon="8.47422">
        <ele>2211</ele>
        <time>2021-08-12T08:51:38.422Z</time>
      </trkpt>
      <trkpt lat="46.86586" lon="8.47423">
        <ele>2211</ele>
        <time>2021-08-12T08:51:39.423Z</time>
      </trkpt>
      <trkpt lat="46.86585" lon="8.47424">
        <ele>2211</ele>
        <time>2021-08-12T08:51:40.423Z</time>
      </trkpt>
      <trkpt lat="46.86585" lon="8.47425">
        <ele>2211</ele>
        <time>2021-08-12T08:51:41.423Z</time>
      </trkpt>
      <trkpt lat="46.86584" lon="8.47425">
        <ele>2211</ele>
        <time>2021-08-12T08:51:42.422Z</time>
      </trkpt>
      <trkpt lat="46.86584" lon="8.47425">
        <ele>2212</ele>
        <time>2021-08-12T08:51:43.423Z</time>
      </trkpt>
      <trkpt lat="46.86583" lon="8.47425">
        <ele>2212</ele>
        <time>2021-08-12T08:51:44.422Z</time>
      </trkpt>
      <trkpt lat="46.86583" lon="8.47426">
        <ele>2212</ele>
        <time>2021-08-12T08:51:45.423Z</time>
      </trkpt>
      <trkpt lat="46.86582" lon="8.47427">
        <ele>2212</ele>
        <time>2021-08-12T08:51:46.422Z</time>
      </trkpt>
      <trkpt lat="46.86581" lon="8.47429">
        <ele>2212</ele>
        <time>2021-08-12T08:51:47.423Z</time>
      </trkpt>
      <trkpt lat="46.86581" lon="8.47431">
        <ele>2212</ele>
        <time>2021-08-12T08:51:48.422Z</time>
      </trkpt>
      <trkpt lat="46.8658" lon="8.47432">
        <ele>2212</ele>
        <time>2021-08-12T08:51:49.422Z</time>
      </trkpt>
      <trkpt lat="46.86579" lon="8.47432">
        <ele>2213</ele>
        <time>2021-08-12T08:51:50.423Z</time>
      </trkpt>
      <trkpt lat="46.86579" lon="8.47432">
        <ele>2213</ele>
        <time>2021-08-12T08:51:51.423Z</time>
      </trkpt>
      <trkpt lat="46.86578" lon="8.47433">
        <ele>2213</ele>
        <time>2021-08-12T08:51:52.423Z</time>
      </trkpt>
      <trkpt lat="46.86578" lon="8.47433">
        <ele>2213</ele>
        <time>2021-08-12T08:51:53.423Z</time>
      </trkpt>
      <trkpt lat="46.86578" lon="8.47434">
        <ele>2214</ele>
        <time>2021-08-12T08:51:54.422Z</time>
      </trkpt>
      <trkpt lat="46.86578" lon="8.47433">
        <ele>2214</ele>
        <time>2021-08-12T08:51:55.422Z</time>
      </trkpt>
      <trkpt lat="46.86578" lon="8.47433">
        <ele>2214</ele>
        <time>2021-08-12T08:51:56.422Z</time>
      </trkpt>
      <trkpt lat="46.86577" lon="8.47433">
        <ele>2213</ele>
        <time>2021-08-12T08:51:57.423Z</time>
      </trkpt>
      <trkpt lat="46.86576" lon="8.47433">
        <ele>2213</ele>
        <time>2021-08-12T08:51:58.422Z</time>
      </trkpt>
      <trkpt lat="46.86576" lon="8.47433">
        <ele>2213</ele>
        <time>2021-08-12T08:51:59.423Z</time>
      </trkpt>
      <trkpt lat="46.86575" lon="8.47433">
        <ele>2214</ele>
        <time>2021-08-12T08:52:00.423Z</time>
      </trkpt>
      <trkpt lat="46.86574" lon="8.47432">
        <ele>2214</ele>
        <time>2021-08-12T08:52:01.423Z</time>
      </trkpt>
      <trkpt lat="46.86573" lon="8.47432">
        <ele>2214</ele>
        <time>2021-08-12T08:52:02.422Z</time>
      </trkpt>
      <trkpt lat="46.86573" lon="8.47432">
        <ele>2215</ele>
        <time>2021-08-12T08:52:03.423Z</time>
      </trkpt>
      <trkpt lat="46.86572" lon="8.47432">
        <ele>2216</ele>
        <time>2021-08-12T08:52:04.423Z</time>
      </trkpt>
      <trkpt lat="46.86572" lon="8.47432">
        <ele>2216</ele>
        <time>2021-08-12T08:52:05.423Z</time>
      </trkpt>
      <trkpt lat="46.86572" lon="8.47431">
        <ele>2216</ele>
        <time>2021-08-12T08:52:06.422Z</time>
      </trkpt>
      <trkpt lat="46.86571" lon="8.47431">
        <ele>2217</ele>
        <time>2021-08-12T08:52:07.423Z</time>
      </trkpt>
      <trkpt lat="46.86571" lon="8.47431">
        <ele>2217</ele>
        <time>2021-08-12T08:52:08.423Z</time>
      </trkpt>
      <trkpt lat="46.8657" lon="8.47432">
        <ele>2217</ele>
        <time>2021-08-12T08:52:09.423Z</time>
      </trkpt>
      <trkpt lat="46.8657" lon="8.47432">
        <ele>2217</ele>
        <time>2021-08-12T08:52:10.422Z</time>
      </trkpt>
      <trkpt lat="46.8657" lon="8.47432">
        <ele>2217</ele>
        <time>2021-08-12T08:52:11.423Z</time>
      </trkpt>
      <trkpt lat="46.86569" lon="8.47432">
        <ele>2218</ele>
        <time>2021-08-12T08:52:12.422Z</time>
      </trkpt>
      <trkpt lat="46.86568" lon="8.47433">
        <ele>2218</ele>
        <time>2021-08-12T08:52:13.423Z</time>
      </trkpt>
      <trkpt lat="46.86568" lon="8.47433">
        <ele>2218</ele>
        <time>2021-08-12T08:52:14.423Z</time>
      </trkpt>
      <trkpt lat="46.86567" lon="8.47434">
        <ele>2218</ele>
        <time>2021-08-12T08:52:15.423Z</time>
      </trkpt>
      <trkpt lat="46.86566" lon="8.47435">
        <ele>2219</ele>
        <time>2021-08-12T08:52:16.422Z</time>
      </trkpt>
      <trkpt lat="46.86566" lon="8.47436">
        <ele>2219</ele>
        <time>2021-08-12T08:52:17.423Z</time>
      </trkpt>
      <trkpt lat="46.86566" lon="8.47437">
        <ele>2219</ele>
        <time>2021-08-12T08:52:18.422Z</time>
      </trkpt>
      <trkpt lat="46.86566" lon="8.47437">
        <ele>2219</ele>
        <time>2021-08-12T08:52:19.423Z</time>
      </trkpt>
      <trkpt lat="46.86566" lon="8.47438">
        <ele>2219</ele>
        <time>2021-08-12T08:52:20.423Z</time>
      </trkpt>
      <trkpt lat="46.86566" lon="8.47439">
        <ele>2219</ele>
        <time>2021-08-12T08:52:21.423Z</time>
      </trkpt>
      <trkpt lat="46.86565" lon="8.4744">
        <ele>2219</ele>
        <time>2021-08-12T08:52:22.423Z</time>
      </trkpt>
      <trkpt lat="46.86563" lon="8.47441">
        <ele>2219</ele>
        <time>2021-08-12T08:52:23.423Z</time>
      </trkpt>
      <trkpt lat="46.86562" lon="8.47441">
        <ele>2219</ele>
        <time>2021-08-12T08:52:24.423Z</time>
      </trkpt>
      <trkpt lat="46.86562" lon="8.47441">
        <ele>2219</ele>
        <time>2021-08-12T08:52:25.423Z</time>
      </trkpt>
      <trkpt lat="46.86562" lon="8.47441">
        <ele>2219</ele>
        <time>2021-08-12T08:52:26.422Z</time>
      </trkpt>
      <trkpt lat="46.86563" lon="8.47442">
        <ele>2219</ele>
        <time>2021-08-12T08:52:27.422Z</time>
      </trkpt>
      <trkpt lat="46.86562" lon="8.47441">
        <ele>2221</ele>
        <time>2021-08-12T08:52:28.423Z</time>
      </trkpt>
      <trkpt lat="46.86561" lon="8.47442">
        <ele>2221</ele>
        <time>2021-08-12T08:52:29.424Z</time>
      </trkpt>
      <trkpt lat="46.8656" lon="8.47442">
        <ele>2221</ele>
        <time>2021-08-12T08:52:30.423Z</time>
      </trkpt>
      <trkpt lat="46.8656" lon="8.47443">
        <ele>2221</ele>
        <time>2021-08-12T08:52:31.424Z</time>
      </trkpt>
      <trkpt lat="46.86559" lon="8.47444">
        <ele>2221</ele>
        <time>2021-08-12T08:52:32.424Z</time>
      </trkpt>
      <trkpt lat="46.86559" lon="8.47445">
        <ele>2222</ele>
        <time>2021-08-12T08:52:33.423Z</time>
      </trkpt>
      <trkpt lat="46.86558" lon="8.47446">
        <ele>2222</ele>
        <time>2021-08-12T08:52:34.424Z</time>
      </trkpt>
      <trkpt lat="46.86558" lon="8.47446">
        <ele>2222</ele>
        <time>2021-08-12T08:52:35.423Z</time>
      </trkpt>
      <trkpt lat="46.86557" lon="8.47446">
        <ele>2222</ele>
        <time>2021-08-12T08:52:36.424Z</time>
      </trkpt>
      <trkpt lat="46.86557" lon="8.47446">
        <ele>2222</ele>
        <time>2021-08-12T08:52:37.424Z</time>
      </trkpt>
      <trkpt lat="46.86556" lon="8.47446">
        <ele>2222</ele>
        <time>2021-08-12T08:52:38.424Z</time>
      </trkpt>
      <trkpt lat="46.86555" lon="8.47446">
        <ele>2222</ele>
        <time>2021-08-12T08:52:39.423Z</time>
      </trkpt>
      <trkpt lat="46.86554" lon="8.47447">
        <ele>2222</ele>
        <time>2021-08-12T08:52:40.424Z</time>
      </trkpt>
      <trkpt lat="46.86553" lon="8.47448">
        <ele>2222</ele>
        <time>2021-08-12T08:52:41.423Z</time>
      </trkpt>
      <trkpt lat="46.86552" lon="8.47449">
        <ele>2222</ele>
        <time>2021-08-12T08:52:42.423Z</time>
      </trkpt>
      <trkpt lat="46.86551" lon="8.47449">
        <ele>2223</ele>
        <time>2021-08-12T08:52:43.423Z</time>
      </trkpt>
      <trkpt lat="46.8655" lon="8.47449">
        <ele>2223</ele>
        <time>2021-08-12T08:52:44.423Z</time>
      </trkpt>
      <trkpt lat="46.8655" lon="8.47448">
        <ele>2224</ele>
        <time>2021-08-12T08:52:45.424Z</time>
      </trkpt>
      <trkpt lat="46.8655" lon="8.47448">
        <ele>2224</ele>
        <time>2021-08-12T08:52:46.424Z</time>
      </trkpt>
      <trkpt lat="46.8655" lon="8.47447">
        <ele>2225</ele>
        <time>2021-08-12T08:52:47.424Z</time>
      </trkpt>
      <trkpt lat="46.8655" lon="8.47447">
        <ele>2225</ele>
        <time>2021-08-12T08:52:48.424Z</time>
      </trkpt>
      <trkpt lat="46.8655" lon="8.47448">
        <ele>2225</ele>
        <time>2021-08-12T08:52:49.424Z</time>
      </trkpt>
      <trkpt lat="46.86549" lon="8.4745">
        <ele>2225</ele>
        <time>2021-08-12T08:52:50.424Z</time>
      </trkpt>
      <trkpt lat="46.86548" lon="8.47452">
        <ele>2225</ele>
        <time>2021-08-12T08:52:51.424Z</time>
      </trkpt>
      <trkpt lat="46.86547" lon="8.47453">
        <ele>2225</ele>
        <time>2021-08-12T08:52:52.424Z</time>
      </trkpt>
      <trkpt lat="46.86547" lon="8.47454">
        <ele>2225</ele>
        <time>2021-08-12T08:52:53.424Z</time>
      </trkpt>
      <trkpt lat="46.86546" lon="8.47455">
        <ele>2224</ele>
        <time>2021-08-12T08:52:54.424Z</time>
      </trkpt>
      <trkpt lat="46.86546" lon="8.47455">
        <ele>2224</ele>
        <time>2021-08-12T08:52:55.424Z</time>
      </trkpt>
      <trkpt lat="46.86546" lon="8.47455">
        <ele>2223</ele>
        <time>2021-08-12T08:52:56.424Z</time>
      </trkpt>
      <trkpt lat="46.86546" lon="8.47455">
        <ele>2223</ele>
        <time>2021-08-12T08:52:57.423Z</time>
      </trkpt>
      <trkpt lat="46.86546" lon="8.47455">
        <ele>2222</ele>
        <time>2021-08-12T08:52:58.423Z</time>
      </trkpt>
      <trkpt lat="46.86546" lon="8.47456">
        <ele>2222</ele>
        <time>2021-08-12T08:52:59.424Z</time>
      </trkpt>
      <trkpt lat="46.86546" lon="8.47457">
        <ele>2221</ele>
        <time>2021-08-12T08:53:00.423Z</time>
      </trkpt>
      <trkpt lat="46.86546" lon="8.47459">
        <ele>2221</ele>
        <time>2021-08-12T08:53:01.423Z</time>
      </trkpt>
      <trkpt lat="46.86546" lon="8.4746">
        <ele>2220</ele>
        <time>2021-08-12T08:53:02.423Z</time>
      </trkpt>
      <trkpt lat="46.86546" lon="8.47461">
        <ele>2220</ele>
        <time>2021-08-12T08:53:03.424Z</time>
      </trkpt>
      <trkpt lat="46.86546" lon="8.47461">
        <ele>2220</ele>
        <time>2021-08-12T08:53:04.423Z</time>
      </trkpt>
      <trkpt lat="46.86546" lon="8.47462">
        <ele>2219</ele>
        <time>2021-08-12T08:53:05.424Z</time>
      </trkpt>
      <trkpt lat="46.86546" lon="8.47464">
        <ele>2219</ele>
        <time>2021-08-12T08:53:06.425Z</time>
      </trkpt>
      <trkpt lat="46.86546" lon="8.47464">
        <ele>2219</ele>
        <time>2021-08-12T08:53:07.425Z</time>
      </trkpt>
      <trkpt lat="46.86544" lon="8.47465">
        <ele>2219</ele>
        <time>2021-08-12T08:53:08.426Z</time>
      </trkpt>
      <trkpt lat="46.86544" lon="8.47465">
        <ele>2219</ele>
        <time>2021-08-12T08:53:09.425Z</time>
      </trkpt>
      <trkpt lat="46.86545" lon="8.47466">
        <ele>2219</ele>
        <time>2021-08-12T08:53:10.426Z</time>
      </trkpt>
      <trkpt lat="46.86545" lon="8.47467">
        <ele>2220</ele>
        <time>2021-08-12T08:53:11.425Z</time>
      </trkpt>
      <trkpt lat="46.86546" lon="8.47467">
        <ele>2220</ele>
        <time>2021-08-12T08:53:12.426Z</time>
      </trkpt>
      <trkpt lat="46.86547" lon="8.47467">
        <ele>2220</ele>
        <time>2021-08-12T08:53:13.427Z</time>
      </trkpt>
      <trkpt lat="46.86547" lon="8.47466">
        <ele>2220</ele>
        <time>2021-08-12T08:53:14.426Z</time>
      </trkpt>
      <trkpt lat="46.86546" lon="8.4747">
        <ele>2216</ele>
        <time>2021-08-12T08:53:15.426Z</time>
      </trkpt>
      <trkpt lat="46.86546" lon="8.4747">
        <ele>2215</ele>
        <time>2021-08-12T08:53:16.427Z</time>
      </trkpt>
      <trkpt lat="46.86546" lon="8.47471">
        <ele>2215</ele>
        <time>2021-08-12T08:53:17.426Z</time>
      </trkpt>
      <trkpt lat="46.86546" lon="8.47471">
        <ele>2215</ele>
        <time>2021-08-12T08:53:18.427Z</time>
      </trkpt>
      <trkpt lat="46.86546" lon="8.4747">
        <ele>2215</ele>
        <time>2021-08-12T08:53:19.426Z</time>
      </trkpt>
      <trkpt lat="46.86547" lon="8.47472">
        <ele>2217</ele>
        <time>2021-08-12T08:53:20.427Z</time>
      </trkpt>
      <trkpt lat="46.86547" lon="8.47472">
        <ele>2217</ele>
        <time>2021-08-12T08:53:21.426Z</time>
      </trkpt>
      <trkpt lat="46.86545" lon="8.47473">
        <ele>2219</ele>
        <time>2021-08-12T08:53:22.426Z</time>
      </trkpt>
      <trkpt lat="46.86544" lon="8.47473">
        <ele>2219</ele>
        <time>2021-08-12T08:53:23.426Z</time>
      </trkpt>
      <trkpt lat="46.86544" lon="8.47473">
        <ele>2219</ele>
        <time>2021-08-12T08:53:24.427Z</time>
      </trkpt>
      <trkpt lat="46.86543" lon="8.47473">
        <ele>2219</ele>
        <time>2021-08-12T08:53:25.427Z</time>
      </trkpt>
      <trkpt lat="46.86543" lon="8.47474">
        <ele>2219</ele>
        <time>2021-08-12T08:53:26.427Z</time>
      </trkpt>
      <trkpt lat="46.86542" lon="8.47474">
        <ele>2219</ele>
        <time>2021-08-12T08:53:27.426Z</time>
      </trkpt>
      <trkpt lat="46.86542" lon="8.47475">
        <ele>2219</ele>
        <time>2021-08-12T08:53:28.426Z</time>
      </trkpt>
      <trkpt lat="46.86541" lon="8.47476">
        <ele>2219</ele>
        <time>2021-08-12T08:53:29.427Z</time>
      </trkpt>
      <trkpt lat="46.86541" lon="8.47478">
        <ele>2218</ele>
        <time>2021-08-12T08:53:30.427Z</time>
      </trkpt>
      <trkpt lat="46.8654" lon="8.47479">
        <ele>2218</ele>
        <time>2021-08-12T08:53:31.426Z</time>
      </trkpt>
      <trkpt lat="46.86539" lon="8.4748">
        <ele>2218</ele>
        <time>2021-08-12T08:53:32.427Z</time>
      </trkpt>
      <trkpt lat="46.86538" lon="8.47481">
        <ele>2219</ele>
        <time>2021-08-12T08:53:33.426Z</time>
      </trkpt>
      <trkpt lat="46.86537" lon="8.47482">
        <ele>2219</ele>
        <time>2021-08-12T08:53:34.427Z</time>
      </trkpt>
      <trkpt lat="46.86536" lon="8.47484">
        <ele>2219</ele>
        <time>2021-08-12T08:53:35.427Z</time>
      </trkpt>
      <trkpt lat="46.86536" lon="8.47485">
        <ele>2219</ele>
        <time>2021-08-12T08:53:36.427Z</time>
      </trkpt>
      <trkpt lat="46.86536" lon="8.47487">
        <ele>2219</ele>
        <time>2021-08-12T08:53:37.427Z</time>
      </trkpt>
      <trkpt lat="46.86536" lon="8.47488">
        <ele>2219</ele>
        <time>2021-08-12T08:53:38.427Z</time>
      </trkpt>
      <trkpt lat="46.86536" lon="8.47488">
        <ele>2219</ele>
        <time>2021-08-12T08:53:39.426Z</time>
      </trkpt>
      <trkpt lat="46.86536" lon="8.47488">
        <ele>2220</ele>
        <time>2021-08-12T08:53:40.426Z</time>
      </trkpt>
      <trkpt lat="46.86535" lon="8.47489">
        <ele>2220</ele>
        <time>2021-08-12T08:53:41.427Z</time>
      </trkpt>
      <trkpt lat="46.86534" lon="8.4749">
        <ele>2220</ele>
        <time>2021-08-12T08:53:42.426Z</time>
      </trkpt>
      <trkpt lat="46.86534" lon="8.47491">
        <ele>2221</ele>
        <time>2021-08-12T08:53:43.427Z</time>
      </trkpt>
      <trkpt lat="46.86533" lon="8.47491">
        <ele>2221</ele>
        <time>2021-08-12T08:53:44.427Z</time>
      </trkpt>
      <trkpt lat="46.86533" lon="8.47492">
        <ele>2221</ele>
        <time>2021-08-12T08:53:45.427Z</time>
      </trkpt>
      <trkpt lat="46.86532" lon="8.47493">
        <ele>2221</ele>
        <time>2021-08-12T08:53:46.427Z</time>
      </trkpt>
      <trkpt lat="46.86531" lon="8.47494">
        <ele>2220</ele>
        <time>2021-08-12T08:53:47.427Z</time>
      </trkpt>
      <trkpt lat="46.8653" lon="8.47494">
        <ele>2220</ele>
        <time>2021-08-12T08:53:48.426Z</time>
      </trkpt>
      <trkpt lat="46.86529" lon="8.47494">
        <ele>2220</ele>
        <time>2021-08-12T08:53:49.427Z</time>
      </trkpt>
      <trkpt lat="46.86528" lon="8.47493">
        <ele>2220</ele>
        <time>2021-08-12T08:53:50.427Z</time>
      </trkpt>
      <trkpt lat="46.86527" lon="8.47494">
        <ele>2220</ele>
        <time>2021-08-12T08:53:51.427Z</time>
      </trkpt>
      <trkpt lat="46.86527" lon="8.47494">
        <ele>2220</ele>
        <time>2021-08-12T08:53:52.426Z</time>
      </trkpt>
      <trkpt lat="46.86526" lon="8.47494">
        <ele>2220</ele>
        <time>2021-08-12T08:53:53.427Z</time>
      </trkpt>
      <trkpt lat="46.86525" lon="8.47495">
        <ele>2220</ele>
        <time>2021-08-12T08:53:54.426Z</time>
      </trkpt>
      <trkpt lat="46.86524" lon="8.47496">
        <ele>2220</ele>
        <time>2021-08-12T08:53:55.427Z</time>
      </trkpt>
      <trkpt lat="46.86523" lon="8.47497">
        <ele>2221</ele>
        <time>2021-08-12T08:53:56.426Z</time>
      </trkpt>
      <trkpt lat="46.86522" lon="8.47498">
        <ele>2221</ele>
        <time>2021-08-12T08:53:57.426Z</time>
      </trkpt>
      <trkpt lat="46.86521" lon="8.47499">
        <ele>2222</ele>
        <time>2021-08-12T08:53:58.427Z</time>
      </trkpt>
      <trkpt lat="46.8652" lon="8.475">
        <ele>2222</ele>
        <time>2021-08-12T08:53:59.427Z</time>
      </trkpt>
      <trkpt lat="46.86519" lon="8.47501">
        <ele>2222</ele>
        <time>2021-08-12T08:54:00.426Z</time>
      </trkpt>
      <trkpt lat="46.86519" lon="8.47502">
        <ele>2222</ele>
        <time>2021-08-12T08:54:01.426Z</time>
      </trkpt>
      <trkpt lat="46.86518" lon="8.47502">
        <ele>2222</ele>
        <time>2021-08-12T08:54:02.426Z</time>
      </trkpt>
      <trkpt lat="46.86517" lon="8.47503">
        <ele>2222</ele>
        <time>2021-08-12T08:54:03.427Z</time>
      </trkpt>
      <trkpt lat="46.86516" lon="8.47505">
        <ele>2222</ele>
        <time>2021-08-12T08:54:04.427Z</time>
      </trkpt>
      <trkpt lat="46.86515" lon="8.47506">
        <ele>2222</ele>
        <time>2021-08-12T08:54:05.427Z</time>
      </trkpt>
      <trkpt lat="46.86514" lon="8.47506">
        <ele>2222</ele>
        <time>2021-08-12T08:54:06.427Z</time>
      </trkpt>
      <trkpt lat="46.86513" lon="8.47507">
        <ele>2221</ele>
        <time>2021-08-12T08:54:07.426Z</time>
      </trkpt>
      <trkpt lat="46.86513" lon="8.47508">
        <ele>2221</ele>
        <time>2021-08-12T08:54:08.426Z</time>
      </trkpt>
      <trkpt lat="46.86512" lon="8.47509">
        <ele>2222</ele>
        <time>2021-08-12T08:54:09.427Z</time>
      </trkpt>
      <trkpt lat="46.86512" lon="8.47511">
        <ele>2222</ele>
        <time>2021-08-12T08:54:10.427Z</time>
      </trkpt>
      <trkpt lat="46.86512" lon="8.47512">
        <ele>2221</ele>
        <time>2021-08-12T08:54:11.427Z</time>
      </trkpt>
      <trkpt lat="46.86512" lon="8.47514">
        <ele>2221</ele>
        <time>2021-08-12T08:54:12.426Z</time>
      </trkpt>
      <trkpt lat="46.86512" lon="8.47515">
        <ele>2220</ele>
        <time>2021-08-12T08:54:13.427Z</time>
      </trkpt>
      <trkpt lat="46.86512" lon="8.47517">
        <ele>2220</ele>
        <time>2021-08-12T08:54:14.427Z</time>
      </trkpt>
      <trkpt lat="46.86512" lon="8.47518">
        <ele>2219</ele>
        <time>2021-08-12T08:54:15.427Z</time>
      </trkpt>
      <trkpt lat="46.86512" lon="8.4752">
        <ele>2219</ele>
        <time>2021-08-12T08:54:16.427Z</time>
      </trkpt>
      <trkpt lat="46.86512" lon="8.47523">
        <ele>2219</ele>
        <time>2021-08-12T08:54:17.427Z</time>
      </trkpt>
      <trkpt lat="46.86512" lon="8.47525">
        <ele>2219</ele>
        <time>2021-08-12T08:54:18.426Z</time>
      </trkpt>
      <trkpt lat="46.86511" lon="8.47526">
        <ele>2219</ele>
        <time>2021-08-12T08:54:19.427Z</time>
      </trkpt>
      <trkpt lat="46.8651" lon="8.47528">
        <ele>2219</ele>
        <time>2021-08-12T08:54:20.427Z</time>
      </trkpt>
      <trkpt lat="46.86509" lon="8.47531">
        <ele>2219</ele>
        <time>2021-08-12T08:54:21.427Z</time>
      </trkpt>
      <trkpt lat="46.86508" lon="8.47534">
        <ele>2219</ele>
        <time>2021-08-12T08:54:22.427Z</time>
      </trkpt>
      <trkpt lat="46.86507" lon="8.47536">
        <ele>2219</ele>
        <time>2021-08-12T08:54:23.426Z</time>
      </trkpt>
      <trkpt lat="46.86506" lon="8.47537">
        <ele>2218</ele>
        <time>2021-08-12T08:54:24.426Z</time>
      </trkpt>
      <trkpt lat="46.86506" lon="8.47537">
        <ele>2218</ele>
        <time>2021-08-12T08:54:25.426Z</time>
      </trkpt>
      <trkpt lat="46.86505" lon="8.47537">
        <ele>2218</ele>
        <time>2021-08-12T08:54:26.426Z</time>
      </trkpt>
      <trkpt lat="46.86504" lon="8.47536">
        <ele>2218</ele>
        <time>2021-08-12T08:54:27.426Z</time>
      </trkpt>
      <trkpt lat="46.86503" lon="8.47535">
        <ele>2218</ele>
        <time>2021-08-12T08:54:28.426Z</time>
      </trkpt>
      <trkpt lat="46.86502" lon="8.47535">
        <ele>2218</ele>
        <time>2021-08-12T08:54:29.426Z</time>
      </trkpt>
      <trkpt lat="46.86502" lon="8.47536">
        <ele>2218</ele>
        <time>2021-08-12T08:54:30.427Z</time>
      </trkpt>
      <trkpt lat="46.86501" lon="8.47536">
        <ele>2218</ele>
        <time>2021-08-12T08:54:31.427Z</time>
      </trkpt>
      <trkpt lat="46.865" lon="8.47537">
        <ele>2218</ele>
        <time>2021-08-12T08:54:32.427Z</time>
      </trkpt>
      <trkpt lat="46.86499" lon="8.47537">
        <ele>2218</ele>
        <time>2021-08-12T08:54:33.427Z</time>
      </trkpt>
      <trkpt lat="46.86499" lon="8.47538">
        <ele>2217</ele>
        <time>2021-08-12T08:54:34.426Z</time>
      </trkpt>
      <trkpt lat="46.86498" lon="8.47538">
        <ele>2217</ele>
        <time>2021-08-12T08:54:35.427Z</time>
      </trkpt>
      <trkpt lat="46.86498" lon="8.47539">
        <ele>2216</ele>
        <time>2021-08-12T08:54:36.427Z</time>
      </trkpt>
      <trkpt lat="46.86497" lon="8.4754">
        <ele>2215</ele>
        <time>2021-08-12T08:54:37.427Z</time>
      </trkpt>
      <trkpt lat="46.86497" lon="8.47542">
        <ele>2214</ele>
        <time>2021-08-12T08:54:38.426Z</time>
      </trkpt>
      <trkpt lat="46.86496" lon="8.47542">
        <ele>2213</ele>
        <time>2021-08-12T08:54:39.427Z</time>
      </trkpt>
      <trkpt lat="46.86495" lon="8.47543">
        <ele>2212</ele>
        <time>2021-08-12T08:54:40.426Z</time>
      </trkpt>
      <trkpt lat="46.86494" lon="8.47545">
        <ele>2212</ele>
        <time>2021-08-12T08:54:41.427Z</time>
      </trkpt>
      <trkpt lat="46.86493" lon="8.47545">
        <ele>2211</ele>
        <time>2021-08-12T08:54:42.427Z</time>
      </trkpt>
      <trkpt lat="46.86493" lon="8.47544">
        <ele>2210</ele>
        <time>2021-08-12T08:54:43.427Z</time>
      </trkpt>
      <trkpt lat="46.86494" lon="8.47541">
        <ele>2210</ele>
        <time>2021-08-12T08:54:44.427Z</time>
      </trkpt>
      <trkpt lat="46.86494" lon="8.4754">
        <ele>2209</ele>
        <time>2021-08-12T08:54:45.427Z</time>
      </trkpt>
      <trkpt lat="46.86493" lon="8.47541">
        <ele>2208</ele>
        <time>2021-08-12T08:54:46.427Z</time>
      </trkpt>
      <trkpt lat="46.86493" lon="8.47543">
        <ele>2208</ele>
        <time>2021-08-12T08:54:47.426Z</time>
      </trkpt>
      <trkpt lat="46.86492" lon="8.47545">
        <ele>2207</ele>
        <time>2021-08-12T08:54:48.426Z</time>
      </trkpt>
      <trkpt lat="46.86491" lon="8.47546">
        <ele>2207</ele>
        <time>2021-08-12T08:54:49.426Z</time>
      </trkpt>
      <trkpt lat="46.86491" lon="8.47547">
        <ele>2207</ele>
        <time>2021-08-12T08:54:50.426Z</time>
      </trkpt>
      <trkpt lat="46.86491" lon="8.47548">
        <ele>2207</ele>
        <time>2021-08-12T08:54:51.426Z</time>
      </trkpt>
      <trkpt lat="46.86491" lon="8.47549">
        <ele>2208</ele>
        <time>2021-08-12T08:54:52.426Z</time>
      </trkpt>
      <trkpt lat="46.8649" lon="8.47549">
        <ele>2208</ele>
        <time>2021-08-12T08:54:53.427Z</time>
      </trkpt>
      <trkpt lat="46.8649" lon="8.4755">
        <ele>2209</ele>
        <time>2021-08-12T08:54:54.427Z</time>
      </trkpt>
      <trkpt lat="46.86489" lon="8.47551">
        <ele>2209</ele>
        <time>2021-08-12T08:54:55.427Z</time>
      </trkpt>
      <trkpt lat="46.86489" lon="8.47552">
        <ele>2209</ele>
        <time>2021-08-12T08:54:56.426Z</time>
      </trkpt>
      <trkpt lat="46.86489" lon="8.47553">
        <ele>2209</ele>
        <time>2021-08-12T08:54:57.426Z</time>
      </trkpt>
      <trkpt lat="46.86489" lon="8.47553">
        <ele>2209</ele>
        <time>2021-08-12T08:54:58.427Z</time>
      </trkpt>
      <trkpt lat="46.86488" lon="8.47554">
        <ele>2209</ele>
        <time>2021-08-12T08:54:59.427Z</time>
      </trkpt>
      <trkpt lat="46.86488" lon="8.47554">
        <ele>2209</ele>
        <time>2021-08-12T08:55:00.427Z</time>
      </trkpt>
      <trkpt lat="46.86487" lon="8.47556">
        <ele>2209</ele>
        <time>2021-08-12T08:55:01.427Z</time>
      </trkpt>
      <trkpt lat="46.86486" lon="8.47557">
        <ele>2209</ele>
        <time>2021-08-12T08:55:02.426Z</time>
      </trkpt>
      <trkpt lat="46.86486" lon="8.47558">
        <ele>2209</ele>
        <time>2021-08-12T08:55:03.427Z</time>
      </trkpt>
      <trkpt lat="46.86485" lon="8.47559">
        <ele>2209</ele>
        <time>2021-08-12T08:55:04.427Z</time>
      </trkpt>
      <trkpt lat="46.86485" lon="8.47561">
        <ele>2209</ele>
        <time>2021-08-12T08:55:05.426Z</time>
      </trkpt>
      <trkpt lat="46.86485" lon="8.47563">
        <ele>2209</ele>
        <time>2021-08-12T08:55:06.426Z</time>
      </trkpt>
      <trkpt lat="46.86484" lon="8.47567">
        <ele>2210</ele>
        <time>2021-08-12T08:55:07.427Z</time>
      </trkpt>
      <trkpt lat="46.86484" lon="8.47569">
        <ele>2210</ele>
        <time>2021-08-12T08:55:08.426Z</time>
      </trkpt>
      <trkpt lat="46.86483" lon="8.47569">
        <ele>2210</ele>
        <time>2021-08-12T08:55:09.427Z</time>
      </trkpt>
      <trkpt lat="46.86483" lon="8.4757">
        <ele>2209</ele>
        <time>2021-08-12T08:55:10.427Z</time>
      </trkpt>
      <trkpt lat="46.86483" lon="8.4757">
        <ele>2209</ele>
        <time>2021-08-12T08:55:11.427Z</time>
      </trkpt>
      <trkpt lat="46.86483" lon="8.47571">
        <ele>2209</ele>
        <time>2021-08-12T08:55:12.426Z</time>
      </trkpt>
      <trkpt lat="46.86482" lon="8.47571">
        <ele>2209</ele>
        <time>2021-08-12T08:55:13.426Z</time>
      </trkpt>
      <trkpt lat="46.86482" lon="8.47571">
        <ele>2209</ele>
        <time>2021-08-12T08:55:14.427Z</time>
      </trkpt>
      <trkpt lat="46.86481" lon="8.47572">
        <ele>2210</ele>
        <time>2021-08-12T08:55:15.427Z</time>
      </trkpt>
      <trkpt lat="46.86481" lon="8.47573">
        <ele>2210</ele>
        <time>2021-08-12T08:55:16.427Z</time>
      </trkpt>
      <trkpt lat="46.86481" lon="8.47573">
        <ele>2210</ele>
        <time>2021-08-12T08:55:17.427Z</time>
      </trkpt>
      <trkpt lat="46.86482" lon="8.47574">
        <ele>2210</ele>
        <time>2021-08-12T08:55:18.427Z</time>
      </trkpt>
      <trkpt lat="46.86482" lon="8.47575">
        <ele>2209</ele>
        <time>2021-08-12T08:55:19.427Z</time>
      </trkpt>
      <trkpt lat="46.86481" lon="8.47576">
        <ele>2209</ele>
        <time>2021-08-12T08:55:20.426Z</time>
      </trkpt>
      <trkpt lat="46.86481" lon="8.47576">
        <ele>2209</ele>
        <time>2021-08-12T08:55:21.426Z</time>
      </trkpt>
      <trkpt lat="46.86481" lon="8.47576">
        <ele>2209</ele>
        <time>2021-08-12T08:55:22.427Z</time>
      </trkpt>
      <trkpt lat="46.86481" lon="8.47577">
        <ele>2212</ele>
        <time>2021-08-12T08:55:23.426Z</time>
      </trkpt>
      <trkpt lat="46.8648" lon="8.47578">
        <ele>2212</ele>
        <time>2021-08-12T08:55:24.427Z</time>
      </trkpt>
      <trkpt lat="46.8648" lon="8.47578">
        <ele>2212</ele>
        <time>2021-08-12T08:55:25.427Z</time>
      </trkpt>
      <trkpt lat="46.8648" lon="8.47578">
        <ele>2212</ele>
        <time>2021-08-12T08:55:26.427Z</time>
      </trkpt>
      <trkpt lat="46.8648" lon="8.47578">
        <ele>2212</ele>
        <time>2021-08-12T08:55:27.427Z</time>
      </trkpt>
      <trkpt lat="46.86478" lon="8.47579">
        <ele>2212</ele>
        <time>2021-08-12T08:55:28.427Z</time>
      </trkpt>
      <trkpt lat="46.86478" lon="8.4758">
        <ele>2213</ele>
        <time>2021-08-12T08:55:29.427Z</time>
      </trkpt>
      <trkpt lat="46.86478" lon="8.47581">
        <ele>2213</ele>
        <time>2021-08-12T08:55:30.427Z</time>
      </trkpt>
      <trkpt lat="46.86477" lon="8.47582">
        <ele>2213</ele>
        <time>2021-08-12T08:55:31.427Z</time>
      </trkpt>
      <trkpt lat="46.86477" lon="8.47583">
        <ele>2213</ele>
        <time>2021-08-12T08:55:32.427Z</time>
      </trkpt>
      <trkpt lat="46.86477" lon="8.47584">
        <ele>2213</ele>
        <time>2021-08-12T08:55:33.427Z</time>
      </trkpt>
      <trkpt lat="46.86476" lon="8.47585">
        <ele>2213</ele>
        <time>2021-08-12T08:55:34.427Z</time>
      </trkpt>
      <trkpt lat="46.86476" lon="8.47586">
        <ele>2213</ele>
        <time>2021-08-12T08:55:35.427Z</time>
      </trkpt>
      <trkpt lat="46.86476" lon="8.47586">
        <ele>2213</ele>
        <time>2021-08-12T08:55:36.427Z</time>
      </trkpt>
      <trkpt lat="46.86476" lon="8.47587">
        <ele>2213</ele>
        <time>2021-08-12T08:55:37.427Z</time>
      </trkpt>
      <trkpt lat="46.86476" lon="8.47588">
        <ele>2214</ele>
        <time>2021-08-12T08:55:38.426Z</time>
      </trkpt>
      <trkpt lat="46.86475" lon="8.47589">
        <ele>2214</ele>
        <time>2021-08-12T08:55:39.426Z</time>
      </trkpt>
      <trkpt lat="46.86475" lon="8.47589">
        <ele>2214</ele>
        <time>2021-08-12T08:55:40.426Z</time>
      </trkpt>
      <trkpt lat="46.86475" lon="8.4759">
        <ele>2214</ele>
        <time>2021-08-12T08:55:41.426Z</time>
      </trkpt>
      <trkpt lat="46.86474" lon="8.4759">
        <ele>2214</ele>
        <time>2021-08-12T08:55:42.426Z</time>
      </trkpt>
      <trkpt lat="46.86474" lon="8.47592">
        <ele>2214</ele>
        <time>2021-08-12T08:55:43.427Z</time>
      </trkpt>
      <trkpt lat="46.86474" lon="8.47592">
        <ele>2213</ele>
        <time>2021-08-12T08:55:44.427Z</time>
      </trkpt>
      <trkpt lat="46.86476" lon="8.4759">
        <ele>2211</ele>
        <time>2021-08-12T08:55:45.427Z</time>
      </trkpt>
      <trkpt lat="46.86476" lon="8.4759">
        <ele>2211</ele>
        <time>2021-08-12T08:55:46.426Z</time>
      </trkpt>
      <trkpt lat="46.86475" lon="8.47592">
        <ele>2216</ele>
        <time>2021-08-12T08:55:47.426Z</time>
      </trkpt>
      <trkpt lat="46.86474" lon="8.47593">
        <ele>2217</ele>
        <time>2021-08-12T08:55:48.426Z</time>
      </trkpt>
      <trkpt lat="46.86473" lon="8.47594">
        <ele>2218</ele>
        <time>2021-08-12T08:55:49.426Z</time>
      </trkpt>
      <trkpt lat="46.86473" lon="8.47594">
        <ele>2218</ele>
        <time>2021-08-12T08:55:50.426Z</time>
      </trkpt>
      <trkpt lat="46.86473" lon="8.47594">
        <ele>2219</ele>
        <time>2021-08-12T08:55:51.426Z</time>
      </trkpt>
      <trkpt lat="46.86472" lon="8.47594">
        <ele>2219</ele>
        <time>2021-08-12T08:55:52.426Z</time>
      </trkpt>
      <trkpt lat="46.86471" lon="8.47593">
        <ele>2220</ele>
        <time>2021-08-12T08:55:53.427Z</time>
      </trkpt>
      <trkpt lat="46.86471" lon="8.47593">
        <ele>2220</ele>
        <time>2021-08-12T08:55:54.427Z</time>
      </trkpt>
      <trkpt lat="46.8647" lon="8.47593">
        <ele>2220</ele>
        <time>2021-08-12T08:55:55.426Z</time>
      </trkpt>
      <trkpt lat="46.86468" lon="8.47593">
        <ele>2225</ele>
        <time>2021-08-12T08:55:56.426Z</time>
      </trkpt>
      <trkpt lat="46.86468" lon="8.47594">
        <ele>2225</ele>
        <time>2021-08-12T08:55:57.426Z</time>
      </trkpt>
      <trkpt lat="46.86469" lon="8.47595">
        <ele>2225</ele>
        <time>2021-08-12T08:55:58.427Z</time>
      </trkpt>
      <trkpt lat="46.8647" lon="8.47595">
        <ele>2224</ele>
        <time>2021-08-12T08:55:59.427Z</time>
      </trkpt>
      <trkpt lat="46.8647" lon="8.47596">
        <ele>2225</ele>
        <time>2021-08-12T08:56:00.427Z</time>
      </trkpt>
      <trkpt lat="46.86471" lon="8.47595">
        <ele>2225</ele>
        <time>2021-08-12T08:56:01.427Z</time>
      </trkpt>
      <trkpt lat="46.86471" lon="8.47595">
        <ele>2226</ele>
        <time>2021-08-12T08:56:02.427Z</time>
      </trkpt>
      <trkpt lat="46.8647" lon="8.47595">
        <ele>2226</ele>
        <time>2021-08-12T08:56:03.426Z</time>
      </trkpt>
      <trkpt lat="46.86469" lon="8.47597">
        <ele>2226</ele>
        <time>2021-08-12T08:56:04.426Z</time>
      </trkpt>
      <trkpt lat="46.86468" lon="8.47598">
        <ele>2226</ele>
        <time>2021-08-12T08:56:05.427Z</time>
      </trkpt>
      <trkpt lat="46.86467" lon="8.47599">
        <ele>2226</ele>
        <time>2021-08-12T08:56:06.426Z</time>
      </trkpt>
      <trkpt lat="46.86467" lon="8.476">
        <ele>2225</ele>
        <time>2021-08-12T08:56:07.427Z</time>
      </trkpt>
      <trkpt lat="46.86467" lon="8.476">
        <ele>2225</ele>
        <time>2021-08-12T08:56:08.427Z</time>
      </trkpt>
      <trkpt lat="46.86467" lon="8.476">
        <ele>2225</ele>
        <time>2021-08-12T08:56:09.427Z</time>
      </trkpt>
      <trkpt lat="46.86467" lon="8.47601">
        <ele>2225</ele>
        <time>2021-08-12T08:56:10.427Z</time>
      </trkpt>
      <trkpt lat="46.86467" lon="8.47602">
        <ele>2225</ele>
        <time>2021-08-12T08:56:11.427Z</time>
      </trkpt>
      <trkpt lat="46.86467" lon="8.47603">
        <ele>2225</ele>
        <time>2021-08-12T08:56:12.427Z</time>
      </trkpt>
      <trkpt lat="46.86467" lon="8.47604">
        <ele>2225</ele>
        <time>2021-08-12T08:56:13.427Z</time>
      </trkpt>
      <trkpt lat="46.86467" lon="8.47604">
        <ele>2225</ele>
        <time>2021-08-12T08:56:14.427Z</time>
      </trkpt>
      <trkpt lat="46.86467" lon="8.47605">
        <ele>2225</ele>
        <time>2021-08-12T08:56:15.427Z</time>
      </trkpt>
      <trkpt lat="46.86466" lon="8.47605">
        <ele>2225</ele>
        <time>2021-08-12T08:56:16.427Z</time>
      </trkpt>
      <trkpt lat="46.86466" lon="8.47606">
        <ele>2225</ele>
        <time>2021-08-12T08:56:17.427Z</time>
      </trkpt>
      <trkpt lat="46.86466" lon="8.47606">
        <ele>2225</ele>
        <time>2021-08-12T08:56:18.427Z</time>
      </trkpt>
      <trkpt lat="46.86466" lon="8.47606">
        <ele>2224</ele>
        <time>2021-08-12T08:56:19.427Z</time>
      </trkpt>
      <trkpt lat="46.86465" lon="8.47607">
        <ele>2224</ele>
        <time>2021-08-12T08:56:20.426Z</time>
      </trkpt>
      <trkpt lat="46.86465" lon="8.47609">
        <ele>2225</ele>
        <time>2021-08-12T08:56:21.427Z</time>
      </trkpt>
      <trkpt lat="46.86465" lon="8.4761">
        <ele>2225</ele>
        <time>2021-08-12T08:56:22.427Z</time>
      </trkpt>
      <trkpt lat="46.86464" lon="8.4761">
        <ele>2225</ele>
        <time>2021-08-12T08:56:23.427Z</time>
      </trkpt>
      <trkpt lat="46.86464" lon="8.47611">
        <ele>2225</ele>
        <time>2021-08-12T08:56:24.427Z</time>
      </trkpt>
      <trkpt lat="46.86464" lon="8.47612">
        <ele>2225</ele>
        <time>2021-08-12T08:56:25.427Z</time>
      </trkpt>
      <trkpt lat="46.86462" lon="8.47613">
        <ele>2225</ele>
        <time>2021-08-12T08:56:26.427Z</time>
      </trkpt>
      <trkpt lat="46.86461" lon="8.47614">
        <ele>2225</ele>
        <time>2021-08-12T08:56:27.427Z</time>
      </trkpt>
      <trkpt lat="46.86461" lon="8.47615">
        <ele>2225</ele>
        <time>2021-08-12T08:56:28.427Z</time>
      </trkpt>
      <trkpt lat="46.8646" lon="8.47616">
        <ele>2225</ele>
        <time>2021-08-12T08:56:29.426Z</time>
      </trkpt>
      <trkpt lat="46.8646" lon="8.47617">
        <ele>2224</ele>
        <time>2021-08-12T08:56:30.427Z</time>
      </trkpt>
      <trkpt lat="46.86461" lon="8.47617">
        <ele>2224</ele>
        <time>2021-08-12T08:56:31.427Z</time>
      </trkpt>
      <trkpt lat="46.8646" lon="8.47618">
        <ele>2224</ele>
        <time>2021-08-12T08:56:32.427Z</time>
      </trkpt>
      <trkpt lat="46.8646" lon="8.47619">
        <ele>2224</ele>
        <time>2021-08-12T08:56:33.426Z</time>
      </trkpt>
      <trkpt lat="46.8646" lon="8.47621">
        <ele>2224</ele>
        <time>2021-08-12T08:56:34.427Z</time>
      </trkpt>
      <trkpt lat="46.86459" lon="8.47621">
        <ele>2224</ele>
        <time>2021-08-12T08:56:35.426Z</time>
      </trkpt>
      <trkpt lat="46.86458" lon="8.47622">
        <ele>2224</ele>
        <time>2021-08-12T08:56:36.426Z</time>
      </trkpt>
      <trkpt lat="46.86458" lon="8.47622">
        <ele>2225</ele>
        <time>2021-08-12T08:56:37.426Z</time>
      </trkpt>
      <trkpt lat="46.86458" lon="8.47622">
        <ele>2225</ele>
        <time>2021-08-12T08:56:38.427Z</time>
      </trkpt>
      <trkpt lat="46.86458" lon="8.47622">
        <ele>2225</ele>
        <time>2021-08-12T08:56:39.426Z</time>
      </trkpt>
      <trkpt lat="46.86457" lon="8.47623">
        <ele>2225</ele>
        <time>2021-08-12T08:56:40.427Z</time>
      </trkpt>
      <trkpt lat="46.86457" lon="8.47624">
        <ele>2225</ele>
        <time>2021-08-12T08:56:41.427Z</time>
      </trkpt>
      <trkpt lat="46.86456" lon="8.47625">
        <ele>2225</ele>
        <time>2021-08-12T08:56:42.427Z</time>
      </trkpt>
      <trkpt lat="46.86456" lon="8.47625">
        <ele>2226</ele>
        <time>2021-08-12T08:56:43.427Z</time>
      </trkpt>
      <trkpt lat="46.86456" lon="8.47626">
        <ele>2226</ele>
        <time>2021-08-12T08:56:44.426Z</time>
      </trkpt>
      <trkpt lat="46.86456" lon="8.47627">
        <ele>2226</ele>
        <time>2021-08-12T08:56:45.426Z</time>
      </trkpt>
      <trkpt lat="46.86456" lon="8.47628">
        <ele>2227</ele>
        <time>2021-08-12T08:56:46.427Z</time>
      </trkpt>
      <trkpt lat="46.86456" lon="8.47629">
        <ele>2227</ele>
        <time>2021-08-12T08:56:47.427Z</time>
      </trkpt>
      <trkpt lat="46.86456" lon="8.47629">
        <ele>2228</ele>
        <time>2021-08-12T08:56:48.427Z</time>
      </trkpt>
      <trkpt lat="46.86456" lon="8.4763">
        <ele>2228</ele>
        <time>2021-08-12T08:56:49.426Z</time>
      </trkpt>
      <trkpt lat="46.86456" lon="8.47631">
        <ele>2228</ele>
        <time>2021-08-12T08:56:50.427Z</time>
      </trkpt>
      <trkpt lat="46.86456" lon="8.47631">
        <ele>2229</ele>
        <time>2021-08-12T08:56:51.427Z</time>
      </trkpt>
      <trkpt lat="46.86456" lon="8.47631">
        <ele>2229</ele>
        <time>2021-08-12T08:56:52.428Z</time>
      </trkpt>
      <trkpt lat="46.86457" lon="8.47632">
        <ele>2230</ele>
        <time>2021-08-12T08:56:53.427Z</time>
      </trkpt>
      <trkpt lat="46.86456" lon="8.47633">
        <ele>2231</ele>
        <time>2021-08-12T08:56:54.428Z</time>
      </trkpt>
      <trkpt lat="46.86456" lon="8.47634">
        <ele>2232</ele>
        <time>2021-08-12T08:56:55.427Z</time>
      </trkpt>
      <trkpt lat="46.86456" lon="8.47634">
        <ele>2233</ele>
        <time>2021-08-12T08:56:56.427Z</time>
      </trkpt>
      <trkpt lat="46.86457" lon="8.47635">
        <ele>2233</ele>
        <time>2021-08-12T08:56:57.427Z</time>
      </trkpt>
      <trkpt lat="46.86457" lon="8.47636">
        <ele>2234</ele>
        <time>2021-08-12T08:56:58.427Z</time>
      </trkpt>
      <trkpt lat="46.86458" lon="8.47636">
        <ele>2234</ele>
        <time>2021-08-12T08:56:59.427Z</time>
      </trkpt>
      <trkpt lat="46.86457" lon="8.47637">
        <ele>2234</ele>
        <time>2021-08-12T08:57:00.428Z</time>
      </trkpt>
      <trkpt lat="46.86456" lon="8.47638">
        <ele>2234</ele>
        <time>2021-08-12T08:57:01.428Z</time>
      </trkpt>
      <trkpt lat="46.86455" lon="8.47639">
        <ele>2234</ele>
        <time>2021-08-12T08:57:02.427Z</time>
      </trkpt>
      <trkpt lat="46.86455" lon="8.47639">
        <ele>2233</ele>
        <time>2021-08-12T08:57:03.428Z</time>
      </trkpt>
      <trkpt lat="46.86454" lon="8.47639">
        <ele>2233</ele>
        <time>2021-08-12T08:57:04.427Z</time>
      </trkpt>
      <trkpt lat="46.86454" lon="8.47638">
        <ele>2233</ele>
        <time>2021-08-12T08:57:05.427Z</time>
      </trkpt>
      <trkpt lat="46.86454" lon="8.47638">
        <ele>2234</ele>
        <time>2021-08-12T08:57:06.427Z</time>
      </trkpt>
      <trkpt lat="46.86454" lon="8.47637">
        <ele>2234</ele>
        <time>2021-08-12T08:57:07.428Z</time>
      </trkpt>
      <trkpt lat="46.86453" lon="8.47636">
        <ele>2235</ele>
        <time>2021-08-12T08:57:08.427Z</time>
      </trkpt>
      <trkpt lat="46.86453" lon="8.47635">
        <ele>2235</ele>
        <time>2021-08-12T08:57:09.427Z</time>
      </trkpt>
      <trkpt lat="46.86452" lon="8.47635">
        <ele>2236</ele>
        <time>2021-08-12T08:57:10.428Z</time>
      </trkpt>
      <trkpt lat="46.86451" lon="8.47635">
        <ele>2236</ele>
        <time>2021-08-12T08:57:11.427Z</time>
      </trkpt>
      <trkpt lat="46.86449" lon="8.47635">
        <ele>2237</ele>
        <time>2021-08-12T08:57:12.427Z</time>
      </trkpt>
      <trkpt lat="46.86449" lon="8.47636">
        <ele>2237</ele>
        <time>2021-08-12T08:57:13.428Z</time>
      </trkpt>
      <trkpt lat="46.86449" lon="8.47636">
        <ele>2237</ele>
        <time>2021-08-12T08:57:14.427Z</time>
      </trkpt>
      <trkpt lat="46.86449" lon="8.47637">
        <ele>2238</ele>
        <time>2021-08-12T08:57:15.428Z</time>
      </trkpt>
      <trkpt lat="46.86449" lon="8.47637">
        <ele>2238</ele>
        <time>2021-08-12T08:57:16.428Z</time>
      </trkpt>
      <trkpt lat="46.86448" lon="8.47635">
        <ele>2240</ele>
        <time>2021-08-12T08:57:17.428Z</time>
      </trkpt>
      <trkpt lat="46.86448" lon="8.47634">
        <ele>2240</ele>
        <time>2021-08-12T08:57:18.428Z</time>
      </trkpt>
      <trkpt lat="46.86448" lon="8.47633">
        <ele>2240</ele>
        <time>2021-08-12T08:57:19.427Z</time>
      </trkpt>
      <trkpt lat="46.86447" lon="8.47632">
        <ele>2240</ele>
        <time>2021-08-12T08:57:20.428Z</time>
      </trkpt>
      <trkpt lat="46.86447" lon="8.47632">
        <ele>2240</ele>
        <time>2021-08-12T08:57:21.427Z</time>
      </trkpt>
      <trkpt lat="46.86447" lon="8.47633">
        <ele>2240</ele>
        <time>2021-08-12T08:57:22.428Z</time>
      </trkpt>
      <trkpt lat="46.86447" lon="8.47633">
        <ele>2240</ele>
        <time>2021-08-12T08:57:23.428Z</time>
      </trkpt>
      <trkpt lat="46.86447" lon="8.47633">
        <ele>2240</ele>
        <time>2021-08-12T08:57:24.428Z</time>
      </trkpt>
      <trkpt lat="46.86447" lon="8.47634">
        <ele>2240</ele>
        <time>2021-08-12T08:57:25.427Z</time>
      </trkpt>
      <trkpt lat="46.86447" lon="8.47635">
        <ele>2240</ele>
        <time>2021-08-12T08:57:26.428Z</time>
      </trkpt>
      <trkpt lat="46.86447" lon="8.47636">
        <ele>2240</ele>
        <time>2021-08-12T08:57:27.428Z</time>
      </trkpt>
      <trkpt lat="46.86447" lon="8.47637">
        <ele>2239</ele>
        <time>2021-08-12T08:57:28.427Z</time>
      </trkpt>
      <trkpt lat="46.86447" lon="8.47638">
        <ele>2239</ele>
        <time>2021-08-12T08:57:29.428Z</time>
      </trkpt>
      <trkpt lat="46.86448" lon="8.47639">
        <ele>2239</ele>
        <time>2021-08-12T08:57:30.427Z</time>
      </trkpt>
      <trkpt lat="46.86448" lon="8.4764">
        <ele>2238</ele>
        <time>2021-08-12T08:57:31.428Z</time>
      </trkpt>
      <trkpt lat="46.86449" lon="8.47641">
        <ele>2238</ele>
        <time>2021-08-12T08:57:32.427Z</time>
      </trkpt>
      <trkpt lat="46.86449" lon="8.47642">
        <ele>2238</ele>
        <time>2021-08-12T08:57:33.427Z</time>
      </trkpt>
      <trkpt lat="46.86448" lon="8.47642">
        <ele>2238</ele>
        <time>2021-08-12T08:57:34.428Z</time>
      </trkpt>
      <trkpt lat="46.86446" lon="8.47643">
        <ele>2238</ele>
        <time>2021-08-12T08:57:35.428Z</time>
      </trkpt>
      <trkpt lat="46.86444" lon="8.47644">
        <ele>2238</ele>
        <time>2021-08-12T08:57:36.427Z</time>
      </trkpt>
      <trkpt lat="46.86443" lon="8.47644">
        <ele>2237</ele>
        <time>2021-08-12T08:57:37.427Z</time>
      </trkpt>
      <trkpt lat="46.86443" lon="8.47645">
        <ele>2236</ele>
        <time>2021-08-12T08:57:38.427Z</time>
      </trkpt>
      <trkpt lat="46.86443" lon="8.47646">
        <ele>2236</ele>
        <time>2021-08-12T08:57:39.427Z</time>
      </trkpt>
      <trkpt lat="46.86444" lon="8.47646">
        <ele>2236</ele>
        <time>2021-08-12T08:57:40.427Z</time>
      </trkpt>
      <trkpt lat="46.86444" lon="8.47647">
        <ele>2236</ele>
        <time>2021-08-12T08:57:41.428Z</time>
      </trkpt>
      <trkpt lat="46.86443" lon="8.47648">
        <ele>2235</ele>
        <time>2021-08-12T08:57:42.428Z</time>
      </trkpt>
      <trkpt lat="46.86443" lon="8.47648">
        <ele>2235</ele>
        <time>2021-08-12T08:57:43.427Z</time>
      </trkpt>
      <trkpt lat="46.86443" lon="8.47648">
        <ele>2235</ele>
        <time>2021-08-12T08:57:44.427Z</time>
      </trkpt>
      <trkpt lat="46.86442" lon="8.47648">
        <ele>2235</ele>
        <time>2021-08-12T08:57:45.428Z</time>
      </trkpt>
      <trkpt lat="46.86442" lon="8.47648">
        <ele>2235</ele>
        <time>2021-08-12T08:57:46.428Z</time>
      </trkpt>
      <trkpt lat="46.86441" lon="8.47648">
        <ele>2235</ele>
        <time>2021-08-12T08:57:47.427Z</time>
      </trkpt>
      <trkpt lat="46.86441" lon="8.47649">
        <ele>2236</ele>
        <time>2021-08-12T08:57:48.428Z</time>
      </trkpt>
      <trkpt lat="46.86441" lon="8.4765">
        <ele>2236</ele>
        <time>2021-08-12T08:57:49.428Z</time>
      </trkpt>
      <trkpt lat="46.86441" lon="8.47652">
        <ele>2237</ele>
        <time>2021-08-12T08:57:50.428Z</time>
      </trkpt>
      <trkpt lat="46.86441" lon="8.47654">
        <ele>2238</ele>
        <time>2021-08-12T08:57:51.427Z</time>
      </trkpt>
      <trkpt lat="46.8644" lon="8.47654">
        <ele>2238</ele>
        <time>2021-08-12T08:57:52.427Z</time>
      </trkpt>
      <trkpt lat="46.8644" lon="8.47655">
        <ele>2239</ele>
        <time>2021-08-12T08:57:53.428Z</time>
      </trkpt>
      <trkpt lat="46.8644" lon="8.47655">
        <ele>2240</ele>
        <time>2021-08-12T08:57:54.428Z</time>
      </trkpt>
      <trkpt lat="46.8644" lon="8.47655">
        <ele>2241</ele>
        <time>2021-08-12T08:57:55.428Z</time>
      </trkpt>
      <trkpt lat="46.8644" lon="8.47656">
        <ele>2242</ele>
        <time>2021-08-12T08:57:56.428Z</time>
      </trkpt>
      <trkpt lat="46.8644" lon="8.47657">
        <ele>2243</ele>
        <time>2021-08-12T08:57:57.428Z</time>
      </trkpt>
      <trkpt lat="46.8644" lon="8.47658">
        <ele>2243</ele>
        <time>2021-08-12T08:57:58.428Z</time>
      </trkpt>
      <trkpt lat="46.86439" lon="8.4766">
        <ele>2244</ele>
        <time>2021-08-12T08:57:59.428Z</time>
      </trkpt>
      <trkpt lat="46.86438" lon="8.47662">
        <ele>2244</ele>
        <time>2021-08-12T08:58:00.429Z</time>
      </trkpt>
      <trkpt lat="46.86437" lon="8.47663">
        <ele>2244</ele>
        <time>2021-08-12T08:58:01.429Z</time>
      </trkpt>
      <trkpt lat="46.86438" lon="8.47663">
        <ele>2244</ele>
        <time>2021-08-12T08:58:02.429Z</time>
      </trkpt>
      <trkpt lat="46.86438" lon="8.47664">
        <ele>2245</ele>
        <time>2021-08-12T08:58:03.428Z</time>
      </trkpt>
      <trkpt lat="46.86438" lon="8.47664">
        <ele>2245</ele>
        <time>2021-08-12T08:58:04.429Z</time>
      </trkpt>
      <trkpt lat="46.86438" lon="8.47665">
        <ele>2245</ele>
        <time>2021-08-12T08:58:05.429Z</time>
      </trkpt>
      <trkpt lat="46.86438" lon="8.47665">
        <ele>2246</ele>
        <time>2021-08-12T08:58:06.428Z</time>
      </trkpt>
      <trkpt lat="46.86437" lon="8.47666">
        <ele>2246</ele>
        <time>2021-08-12T08:58:07.428Z</time>
      </trkpt>
      <trkpt lat="46.86437" lon="8.47666">
        <ele>2246</ele>
        <time>2021-08-12T08:58:08.429Z</time>
      </trkpt>
      <trkpt lat="46.86436" lon="8.47666">
        <ele>2246</ele>
        <time>2021-08-12T08:58:09.429Z</time>
      </trkpt>
      <trkpt lat="46.86436" lon="8.47667">
        <ele>2247</ele>
        <time>2021-08-12T08:58:10.428Z</time>
      </trkpt>
      <trkpt lat="46.86435" lon="8.47667">
        <ele>2247</ele>
        <time>2021-08-12T08:58:11.428Z</time>
      </trkpt>
      <trkpt lat="46.86435" lon="8.47668">
        <ele>2247</ele>
        <time>2021-08-12T08:58:12.428Z</time>
      </trkpt>
      <trkpt lat="46.86434" lon="8.4767">
        <ele>2247</ele>
        <time>2021-08-12T08:58:13.429Z</time>
      </trkpt>
      <trkpt lat="46.86434" lon="8.47671">
        <ele>2247</ele>
        <time>2021-08-12T08:58:14.428Z</time>
      </trkpt>
      <trkpt lat="46.86434" lon="8.47672">
        <ele>2247</ele>
        <time>2021-08-12T08:58:15.429Z</time>
      </trkpt>
      <trkpt lat="46.86434" lon="8.47673">
        <ele>2247</ele>
        <time>2021-08-12T08:58:16.429Z</time>
      </trkpt>
      <trkpt lat="46.86434" lon="8.47674">
        <ele>2247</ele>
        <time>2021-08-12T08:58:17.428Z</time>
      </trkpt>
      <trkpt lat="46.86434" lon="8.47674">
        <ele>2247</ele>
        <time>2021-08-12T08:58:18.428Z</time>
      </trkpt>
      <trkpt lat="46.86434" lon="8.47674">
        <ele>2248</ele>
        <time>2021-08-12T08:58:19.428Z</time>
      </trkpt>
      <trkpt lat="46.86433" lon="8.47675">
        <ele>2248</ele>
        <time>2021-08-12T08:58:20.428Z</time>
      </trkpt>
      <trkpt lat="46.86432" lon="8.47676">
        <ele>2249</ele>
        <time>2021-08-12T08:58:21.428Z</time>
      </trkpt>
      <trkpt lat="46.86433" lon="8.47676">
        <ele>2250</ele>
        <time>2021-08-12T08:58:22.428Z</time>
      </trkpt>
      <trkpt lat="46.86433" lon="8.47677">
        <ele>2250</ele>
        <time>2021-08-12T08:58:23.428Z</time>
      </trkpt>
      <trkpt lat="46.86433" lon="8.47677">
        <ele>2250</ele>
        <time>2021-08-12T08:58:24.429Z</time>
      </trkpt>
      <trkpt lat="46.86433" lon="8.47677">
        <ele>2250</ele>
        <time>2021-08-12T08:58:25.429Z</time>
      </trkpt>
      <trkpt lat="46.86436" lon="8.47676">
        <ele>2249</ele>
        <time>2021-08-12T08:58:26.430Z</time>
      </trkpt>
      <trkpt lat="46.86435" lon="8.47675">
        <ele>2243</ele>
        <time>2021-08-12T08:58:27.430Z</time>
      </trkpt>
      <trkpt lat="46.86434" lon="8.47676">
        <ele>2243</ele>
        <time>2021-08-12T08:58:28.429Z</time>
      </trkpt>
      <trkpt lat="46.86434" lon="8.47678">
        <ele>2242</ele>
        <time>2021-08-12T08:58:29.429Z</time>
      </trkpt>
      <trkpt lat="46.86434" lon="8.47677">
        <ele>2242</ele>
        <time>2021-08-12T08:58:30.430Z</time>
      </trkpt>
      <trkpt lat="46.86434" lon="8.47677">
        <ele>2242</ele>
        <time>2021-08-12T08:58:31.430Z</time>
      </trkpt>
      <trkpt lat="46.86433" lon="8.47677">
        <ele>2242</ele>
        <time>2021-08-12T08:58:32.429Z</time>
      </trkpt>
      <trkpt lat="46.86433" lon="8.47677">
        <ele>2242</ele>
        <time>2021-08-12T08:58:33.430Z</time>
      </trkpt>
      <trkpt lat="46.86432" lon="8.47678">
        <ele>2243</ele>
        <time>2021-08-12T08:58:34.430Z</time>
      </trkpt>
      <trkpt lat="46.86431" lon="8.47679">
        <ele>2243</ele>
        <time>2021-08-12T08:58:35.429Z</time>
      </trkpt>
      <trkpt lat="46.8643" lon="8.47679">
        <ele>2243</ele>
        <time>2021-08-12T08:58:36.429Z</time>
      </trkpt>
      <trkpt lat="46.8643" lon="8.47678">
        <ele>2243</ele>
        <time>2021-08-12T08:58:37.429Z</time>
      </trkpt>
      <trkpt lat="46.8643" lon="8.47678">
        <ele>2243</ele>
        <time>2021-08-12T08:58:38.430Z</time>
      </trkpt>
      <trkpt lat="46.8643" lon="8.47677">
        <ele>2244</ele>
        <time>2021-08-12T08:58:39.430Z</time>
      </trkpt>
      <trkpt lat="46.8643" lon="8.47677">
        <ele>2244</ele>
        <time>2021-08-12T08:58:40.430Z</time>
      </trkpt>
      <trkpt lat="46.8643" lon="8.47677">
        <ele>2243</ele>
        <time>2021-08-12T08:58:41.429Z</time>
      </trkpt>
      <trkpt lat="46.8643" lon="8.47677">
        <ele>2243</ele>
        <time>2021-08-12T08:58:42.429Z</time>
      </trkpt>
      <trkpt lat="46.8643" lon="8.47677">
        <ele>2239</ele>
        <time>2021-08-12T08:58:43.431Z</time>
      </trkpt>
      <trkpt lat="46.8643" lon="8.47677">
        <ele>2239</ele>
        <time>2021-08-12T08:58:44.431Z</time>
      </trkpt>
      <trkpt lat="46.86431" lon="8.47677">
        <ele>2240</ele>
        <time>2021-08-12T08:58:45.430Z</time>
      </trkpt>
      <trkpt lat="46.86433" lon="8.47677">
        <ele>2245</ele>
        <time>2021-08-12T08:58:46.431Z</time>
      </trkpt>
      <trkpt lat="46.86433" lon="8.47677">
        <ele>2246</ele>
        <time>2021-08-12T08:58:47.431Z</time>
      </trkpt>
      <trkpt lat="46.86434" lon="8.47677">
        <ele>2249</ele>
        <time>2021-08-12T08:58:48.433Z</time>
      </trkpt>
      <trkpt lat="46.86434" lon="8.47676">
        <ele>2249</ele>
        <time>2021-08-12T08:58:49.432Z</time>
      </trkpt>
      <trkpt lat="46.86435" lon="8.47676">
        <ele>2249</ele>
        <time>2021-08-12T08:58:50.432Z</time>
      </trkpt>
      <trkpt lat="46.86435" lon="8.47676">
        <ele>2249</ele>
        <time>2021-08-12T08:58:51.433Z</time>
      </trkpt>
      <trkpt lat="46.86435" lon="8.47676">
        <ele>2249</ele>
        <time>2021-08-12T08:58:52.433Z</time>
      </trkpt>
      <trkpt lat="46.86434" lon="8.4768">
        <ele>2245</ele>
        <time>2021-08-12T08:58:53.434Z</time>
      </trkpt>
      <trkpt lat="46.86433" lon="8.4768">
        <ele>2246</ele>
        <time>2021-08-12T08:58:54.434Z</time>
      </trkpt>
      <trkpt lat="46.86433" lon="8.47681">
        <ele>2247</ele>
        <time>2021-08-12T08:58:55.433Z</time>
      </trkpt>
      <trkpt lat="46.86433" lon="8.47682">
        <ele>2247</ele>
        <time>2021-08-12T08:58:56.434Z</time>
      </trkpt>
      <trkpt lat="46.86433" lon="8.47683">
        <ele>2247</ele>
        <time>2021-08-12T08:58:57.433Z</time>
      </trkpt>
      <trkpt lat="46.86433" lon="8.47685">
        <ele>2247</ele>
        <time>2021-08-12T08:58:58.433Z</time>
      </trkpt>
      <trkpt lat="46.86432" lon="8.47686">
        <ele>2247</ele>
        <time>2021-08-12T08:58:59.434Z</time>
      </trkpt>
      <trkpt lat="46.86431" lon="8.47688">
        <ele>2247</ele>
        <time>2021-08-12T08:59:00.433Z</time>
      </trkpt>
      <trkpt lat="46.8643" lon="8.47689">
        <ele>2248</ele>
        <time>2021-08-12T08:59:01.433Z</time>
      </trkpt>
      <trkpt lat="46.86429" lon="8.47691">
        <ele>2248</ele>
        <time>2021-08-12T08:59:02.434Z</time>
      </trkpt>
      <trkpt lat="46.86429" lon="8.47691">
        <ele>2248</ele>
        <time>2021-08-12T08:59:03.433Z</time>
      </trkpt>
      <trkpt lat="46.86428" lon="8.47692">
        <ele>2249</ele>
        <time>2021-08-12T08:59:04.434Z</time>
      </trkpt>
      <trkpt lat="46.86428" lon="8.47692">
        <ele>2249</ele>
        <time>2021-08-12T08:59:05.433Z</time>
      </trkpt>
      <trkpt lat="46.86428" lon="8.47693">
        <ele>2249</ele>
        <time>2021-08-12T08:59:06.433Z</time>
      </trkpt>
      <trkpt lat="46.86428" lon="8.47694">
        <ele>2249</ele>
        <time>2021-08-12T08:59:07.434Z</time>
      </trkpt>
      <trkpt lat="46.86427" lon="8.47695">
        <ele>2249</ele>
        <time>2021-08-12T08:59:08.433Z</time>
      </trkpt>
      <trkpt lat="46.86427" lon="8.47696">
        <ele>2248</ele>
        <time>2021-08-12T08:59:09.433Z</time>
      </trkpt>
      <trkpt lat="46.86427" lon="8.47698">
        <ele>2248</ele>
        <time>2021-08-12T08:59:10.433Z</time>
      </trkpt>
      <trkpt lat="46.86427" lon="8.47698">
        <ele>2247</ele>
        <time>2021-08-12T08:59:11.433Z</time>
      </trkpt>
      <trkpt lat="46.86427" lon="8.47699">
        <ele>2247</ele>
        <time>2021-08-12T08:59:12.433Z</time>
      </trkpt>
      <trkpt lat="46.86427" lon="8.477">
        <ele>2247</ele>
        <time>2021-08-12T08:59:13.434Z</time>
      </trkpt>
      <trkpt lat="46.86427" lon="8.47701">
        <ele>2247</ele>
        <time>2021-08-12T08:59:14.433Z</time>
      </trkpt>
      <trkpt lat="46.86427" lon="8.47702">
        <ele>2247</ele>
        <time>2021-08-12T08:59:15.433Z</time>
      </trkpt>
      <trkpt lat="46.86427" lon="8.47702">
        <ele>2247</ele>
        <time>2021-08-12T08:59:16.433Z</time>
      </trkpt>
      <trkpt lat="46.86425" lon="8.47699">
        <ele>2253</ele>
        <time>2021-08-12T08:59:17.434Z</time>
      </trkpt>
      <trkpt lat="46.86425" lon="8.477">
        <ele>2252</ele>
        <time>2021-08-12T08:59:18.434Z</time>
      </trkpt>
      <trkpt lat="46.86425" lon="8.47701">
        <ele>2251</ele>
        <time>2021-08-12T08:59:19.435Z</time>
      </trkpt>
      <trkpt lat="46.86425" lon="8.47702">
        <ele>2250</ele>
        <time>2021-08-12T08:59:20.435Z</time>
      </trkpt>
      <trkpt lat="46.86425" lon="8.47703">
        <ele>2250</ele>
        <time>2021-08-12T08:59:21.434Z</time>
      </trkpt>
      <trkpt lat="46.86424" lon="8.47704">
        <ele>2250</ele>
        <time>2021-08-12T08:59:22.435Z</time>
      </trkpt>
      <trkpt lat="46.86424" lon="8.47705">
        <ele>2250</ele>
        <time>2021-08-12T08:59:23.435Z</time>
      </trkpt>
      <trkpt lat="46.86425" lon="8.47706">
        <ele>2249</ele>
        <time>2021-08-12T08:59:24.434Z</time>
      </trkpt>
      <trkpt lat="46.86425" lon="8.47707">
        <ele>2250</ele>
        <time>2021-08-12T08:59:25.435Z</time>
      </trkpt>
      <trkpt lat="46.86424" lon="8.47708">
        <ele>2250</ele>
        <time>2021-08-12T08:59:26.435Z</time>
      </trkpt>
      <trkpt lat="46.86424" lon="8.47709">
        <ele>2250</ele>
        <time>2021-08-12T08:59:27.435Z</time>
      </trkpt>
      <trkpt lat="46.86425" lon="8.4771">
        <ele>2249</ele>
        <time>2021-08-12T08:59:28.434Z</time>
      </trkpt>
      <trkpt lat="46.86425" lon="8.47711">
        <ele>2249</ele>
        <time>2021-08-12T08:59:29.434Z</time>
      </trkpt>
      <trkpt lat="46.86425" lon="8.47711">
        <ele>2249</ele>
        <time>2021-08-12T08:59:30.435Z</time>
      </trkpt>
      <trkpt lat="46.86425" lon="8.47713">
        <ele>2249</ele>
        <time>2021-08-12T08:59:31.435Z</time>
      </trkpt>
      <trkpt lat="46.86425" lon="8.47714">
        <ele>2248</ele>
        <time>2021-08-12T08:59:32.435Z</time>
      </trkpt>
      <trkpt lat="46.86425" lon="8.47715">
        <ele>2247</ele>
        <time>2021-08-12T08:59:33.434Z</time>
      </trkpt>
      <trkpt lat="46.86425" lon="8.47716">
        <ele>2247</ele>
        <time>2021-08-12T08:59:34.435Z</time>
      </trkpt>
      <trkpt lat="46.86425" lon="8.47717">
        <ele>2246</ele>
        <time>2021-08-12T08:59:35.435Z</time>
      </trkpt>
      <trkpt lat="46.86425" lon="8.47717">
        <ele>2246</ele>
        <time>2021-08-12T08:59:36.435Z</time>
      </trkpt>
      <trkpt lat="46.86425" lon="8.47718">
        <ele>2246</ele>
        <time>2021-08-12T08:59:37.435Z</time>
      </trkpt>
      <trkpt lat="46.86425" lon="8.4772">
        <ele>2246</ele>
        <time>2021-08-12T08:59:38.435Z</time>
      </trkpt>
      <trkpt lat="46.86425" lon="8.47721">
        <ele>2246</ele>
        <time>2021-08-12T08:59:39.434Z</time>
      </trkpt>
      <trkpt lat="46.86425" lon="8.47722">
        <ele>2245</ele>
        <time>2021-08-12T08:59:40.435Z</time>
      </trkpt>
      <trkpt lat="46.86425" lon="8.47724">
        <ele>2245</ele>
        <time>2021-08-12T08:59:41.434Z</time>
      </trkpt>
      <trkpt lat="46.86425" lon="8.47725">
        <ele>2245</ele>
        <time>2021-08-12T08:59:42.434Z</time>
      </trkpt>
      <trkpt lat="46.86424" lon="8.47727">
        <ele>2245</ele>
        <time>2021-08-12T08:59:43.435Z</time>
      </trkpt>
      <trkpt lat="46.86424" lon="8.47728">
        <ele>2245</ele>
        <time>2021-08-12T08:59:44.434Z</time>
      </trkpt>
      <trkpt lat="46.86424" lon="8.47729">
        <ele>2246</ele>
        <time>2021-08-12T08:59:45.435Z</time>
      </trkpt>
      <trkpt lat="46.86424" lon="8.4773">
        <ele>2247</ele>
        <time>2021-08-12T08:59:46.434Z</time>
      </trkpt>
      <trkpt lat="46.86424" lon="8.47731">
        <ele>2247</ele>
        <time>2021-08-12T08:59:47.434Z</time>
      </trkpt>
      <trkpt lat="46.86424" lon="8.47732">
        <ele>2248</ele>
        <time>2021-08-12T08:59:48.435Z</time>
      </trkpt>
      <trkpt lat="46.86423" lon="8.47733">
        <ele>2248</ele>
        <time>2021-08-12T08:59:49.434Z</time>
      </trkpt>
      <trkpt lat="46.86423" lon="8.47734">
        <ele>2247</ele>
        <time>2021-08-12T08:59:50.435Z</time>
      </trkpt>
      <trkpt lat="46.86423" lon="8.47735">
        <ele>2247</ele>
        <time>2021-08-12T08:59:51.435Z</time>
      </trkpt>
      <trkpt lat="46.86423" lon="8.47735">
        <ele>2248</ele>
        <time>2021-08-12T08:59:52.434Z</time>
      </trkpt>
      <trkpt lat="46.86423" lon="8.47737">
        <ele>2248</ele>
        <time>2021-08-12T08:59:53.435Z</time>
      </trkpt>
      <trkpt lat="46.86423" lon="8.47738">
        <ele>2248</ele>
        <time>2021-08-12T08:59:54.434Z</time>
      </trkpt>
      <trkpt lat="46.86423" lon="8.47739">
        <ele>2248</ele>
        <time>2021-08-12T08:59:55.435Z</time>
      </trkpt>
      <trkpt lat="46.86423" lon="8.47741">
        <ele>2248</ele>
        <time>2021-08-12T08:59:56.434Z</time>
      </trkpt>
      <trkpt lat="46.86424" lon="8.47742">
        <ele>2248</ele>
        <time>2021-08-12T08:59:57.435Z</time>
      </trkpt>
      <trkpt lat="46.86424" lon="8.47744">
        <ele>2248</ele>
        <time>2021-08-12T08:59:58.434Z</time>
      </trkpt>
      <trkpt lat="46.86424" lon="8.47745">
        <ele>2247</ele>
        <time>2021-08-12T08:59:59.435Z</time>
      </trkpt>
      <trkpt lat="46.86423" lon="8.47746">
        <ele>2247</ele>
        <time>2021-08-12T09:00:00.434Z</time>
      </trkpt>
      <trkpt lat="46.86423" lon="8.47747">
        <ele>2247</ele>
        <time>2021-08-12T09:00:01.435Z</time>
      </trkpt>
      <trkpt lat="46.86423" lon="8.47748">
        <ele>2247</ele>
        <time>2021-08-12T09:00:02.435Z</time>
      </trkpt>
      <trkpt lat="46.86423" lon="8.47749">
        <ele>2248</ele>
        <time>2021-08-12T09:00:03.434Z</time>
      </trkpt>
      <trkpt lat="46.86423" lon="8.4775">
        <ele>2247</ele>
        <time>2021-08-12T09:00:04.435Z</time>
      </trkpt>
      <trkpt lat="46.86423" lon="8.47752">
        <ele>2247</ele>
        <time>2021-08-12T09:00:05.434Z</time>
      </trkpt>
      <trkpt lat="46.86423" lon="8.47753">
        <ele>2247</ele>
        <time>2021-08-12T09:00:06.434Z</time>
      </trkpt>
      <trkpt lat="46.86422" lon="8.47754">
        <ele>2247</ele>
        <time>2021-08-12T09:00:07.434Z</time>
      </trkpt>
      <trkpt lat="46.86423" lon="8.47755">
        <ele>2247</ele>
        <time>2021-08-12T09:00:08.434Z</time>
      </trkpt>
      <trkpt lat="46.86423" lon="8.47756">
        <ele>2247</ele>
        <time>2021-08-12T09:00:09.435Z</time>
      </trkpt>
      <trkpt lat="46.86423" lon="8.47757">
        <ele>2247</ele>
        <time>2021-08-12T09:00:10.435Z</time>
      </trkpt>
      <trkpt lat="46.86424" lon="8.47758">
        <ele>2247</ele>
        <time>2021-08-12T09:00:11.434Z</time>
      </trkpt>
      <trkpt lat="46.86424" lon="8.47759">
        <ele>2247</ele>
        <time>2021-08-12T09:00:12.434Z</time>
      </trkpt>
      <trkpt lat="46.86425" lon="8.4776">
        <ele>2247</ele>
        <time>2021-08-12T09:00:13.434Z</time>
      </trkpt>
      <trkpt lat="46.86425" lon="8.47762">
        <ele>2247</ele>
        <time>2021-08-12T09:00:14.435Z</time>
      </trkpt>
      <trkpt lat="46.86425" lon="8.47764">
        <ele>2246</ele>
        <time>2021-08-12T09:00:15.435Z</time>
      </trkpt>
      <trkpt lat="46.86426" lon="8.47765">
        <ele>2246</ele>
        <time>2021-08-12T09:00:16.434Z</time>
      </trkpt>
      <trkpt lat="46.86426" lon="8.47767">
        <ele>2246</ele>
        <time>2021-08-12T09:00:17.434Z</time>
      </trkpt>
      <trkpt lat="46.86426" lon="8.47768">
        <ele>2247</ele>
        <time>2021-08-12T09:00:18.434Z</time>
      </trkpt>
      <trkpt lat="46.86426" lon="8.47769">
        <ele>2247</ele>
        <time>2021-08-12T09:00:19.435Z</time>
      </trkpt>
      <trkpt lat="46.86426" lon="8.47771">
        <ele>2248</ele>
        <time>2021-08-12T09:00:20.434Z</time>
      </trkpt>
      <trkpt lat="46.86426" lon="8.47772">
        <ele>2248</ele>
        <time>2021-08-12T09:00:21.434Z</time>
      </trkpt>
      <trkpt lat="46.86425" lon="8.47773">
        <ele>2248</ele>
        <time>2021-08-12T09:00:22.434Z</time>
      </trkpt>
      <trkpt lat="46.86425" lon="8.47773">
        <ele>2248</ele>
        <time>2021-08-12T09:00:23.434Z</time>
      </trkpt>
      <trkpt lat="46.86425" lon="8.47774">
        <ele>2247</ele>
        <time>2021-08-12T09:00:24.434Z</time>
      </trkpt>
      <trkpt lat="46.86425" lon="8.47775">
        <ele>2248</ele>
        <time>2021-08-12T09:00:25.434Z</time>
      </trkpt>
      <trkpt lat="46.86424" lon="8.47776">
        <ele>2247</ele>
        <time>2021-08-12T09:00:26.434Z</time>
      </trkpt>
      <trkpt lat="46.86424" lon="8.47777">
        <ele>2247</ele>
        <time>2021-08-12T09:00:27.434Z</time>
      </trkpt>
      <trkpt lat="46.86424" lon="8.47778">
        <ele>2247</ele>
        <time>2021-08-12T09:00:28.434Z</time>
      </trkpt>
      <trkpt lat="46.86424" lon="8.47779">
        <ele>2246</ele>
        <time>2021-08-12T09:00:29.434Z</time>
      </trkpt>
      <trkpt lat="46.86423" lon="8.4778">
        <ele>2246</ele>
        <time>2021-08-12T09:00:30.434Z</time>
      </trkpt>
      <trkpt lat="46.86423" lon="8.47781">
        <ele>2246</ele>
        <time>2021-08-12T09:00:31.434Z</time>
      </trkpt>
      <trkpt lat="46.86422" lon="8.47782">
        <ele>2247</ele>
        <time>2021-08-12T09:00:32.434Z</time>
      </trkpt>
      <trkpt lat="46.86422" lon="8.47783">
        <ele>2247</ele>
        <time>2021-08-12T09:00:33.435Z</time>
      </trkpt>
      <trkpt lat="46.86422" lon="8.47784">
        <ele>2247</ele>
        <time>2021-08-12T09:00:34.435Z</time>
      </trkpt>
      <trkpt lat="46.86422" lon="8.47785">
        <ele>2248</ele>
        <time>2021-08-12T09:00:35.434Z</time>
      </trkpt>
      <trkpt lat="46.86421" lon="8.47787">
        <ele>2248</ele>
        <time>2021-08-12T09:00:36.435Z</time>
      </trkpt>
      <trkpt lat="46.86421" lon="8.47788">
        <ele>2249</ele>
        <time>2021-08-12T09:00:37.435Z</time>
      </trkpt>
      <trkpt lat="46.86421" lon="8.4779">
        <ele>2249</ele>
        <time>2021-08-12T09:00:38.435Z</time>
      </trkpt>
      <trkpt lat="46.86421" lon="8.47792">
        <ele>2249</ele>
        <time>2021-08-12T09:00:39.434Z</time>
      </trkpt>
      <trkpt lat="46.8642" lon="8.47793">
        <ele>2249</ele>
        <time>2021-08-12T09:00:40.435Z</time>
      </trkpt>
      <trkpt lat="46.8642" lon="8.47795">
        <ele>2249</ele>
        <time>2021-08-12T09:00:41.435Z</time>
      </trkpt>
      <trkpt lat="46.8642" lon="8.47796">
        <ele>2249</ele>
        <time>2021-08-12T09:00:42.435Z</time>
      </trkpt>
      <trkpt lat="46.8642" lon="8.47797">
        <ele>2249</ele>
        <time>2021-08-12T09:00:43.435Z</time>
      </trkpt>
      <trkpt lat="46.86419" lon="8.47799">
        <ele>2249</ele>
        <time>2021-08-12T09:00:44.435Z</time>
      </trkpt>
      <trkpt lat="46.86419" lon="8.478">
        <ele>2249</ele>
        <time>2021-08-12T09:00:45.435Z</time>
      </trkpt>
      <trkpt lat="46.86419" lon="8.47802">
        <ele>2249</ele>
        <time>2021-08-12T09:00:46.435Z</time>
      </trkpt>
      <trkpt lat="46.86419" lon="8.47803">
        <ele>2249</ele>
        <time>2021-08-12T09:00:47.435Z</time>
      </trkpt>
      <trkpt lat="46.86419" lon="8.47804">
        <ele>2249</ele>
        <time>2021-08-12T09:00:48.435Z</time>
      </trkpt>
      <trkpt lat="46.8642" lon="8.47806">
        <ele>2249</ele>
        <time>2021-08-12T09:00:49.434Z</time>
      </trkpt>
      <trkpt lat="46.8642" lon="8.47807">
        <ele>2248</ele>
        <time>2021-08-12T09:00:50.435Z</time>
      </trkpt>
      <trkpt lat="46.8642" lon="8.47808">
        <ele>2248</ele>
        <time>2021-08-12T09:00:51.434Z</time>
      </trkpt>
      <trkpt lat="46.8642" lon="8.47809">
        <ele>2248</ele>
        <time>2021-08-12T09:00:52.435Z</time>
      </trkpt>
      <trkpt lat="46.8642" lon="8.4781">
        <ele>2248</ele>
        <time>2021-08-12T09:00:53.435Z</time>
      </trkpt>
      <trkpt lat="46.8642" lon="8.47811">
        <ele>2248</ele>
        <time>2021-08-12T09:00:54.435Z</time>
      </trkpt>
      <trkpt lat="46.8642" lon="8.47813">
        <ele>2248</ele>
        <time>2021-08-12T09:00:55.435Z</time>
      </trkpt>
      <trkpt lat="46.8642" lon="8.47815">
        <ele>2248</ele>
        <time>2021-08-12T09:00:56.435Z</time>
      </trkpt>
      <trkpt lat="46.86419" lon="8.47816">
        <ele>2248</ele>
        <time>2021-08-12T09:00:57.434Z</time>
      </trkpt>
      <trkpt lat="46.86419" lon="8.47818">
        <ele>2248</ele>
        <time>2021-08-12T09:00:58.434Z</time>
      </trkpt>
      <trkpt lat="46.86418" lon="8.47819">
        <ele>2248</ele>
        <time>2021-08-12T09:00:59.434Z</time>
      </trkpt>
      <trkpt lat="46.86417" lon="8.47819">
        <ele>2248</ele>
        <time>2021-08-12T09:01:00.434Z</time>
      </trkpt>
      <trkpt lat="46.86416" lon="8.4782">
        <ele>2249</ele>
        <time>2021-08-12T09:01:01.435Z</time>
      </trkpt>
      <trkpt lat="46.86414" lon="8.47819">
        <ele>2250</ele>
        <time>2021-08-12T09:01:02.435Z</time>
      </trkpt>
      <trkpt lat="46.86414" lon="8.47819">
        <ele>2251</ele>
        <time>2021-08-12T09:01:03.435Z</time>
      </trkpt>
      <trkpt lat="46.86413" lon="8.4782">
        <ele>2252</ele>
        <time>2021-08-12T09:01:04.435Z</time>
      </trkpt>
      <trkpt lat="46.86413" lon="8.47821">
        <ele>2253</ele>
        <time>2021-08-12T09:01:05.434Z</time>
      </trkpt>
      <trkpt lat="46.86412" lon="8.47822">
        <ele>2254</ele>
        <time>2021-08-12T09:01:06.435Z</time>
      </trkpt>
      <trkpt lat="46.86412" lon="8.47822">
        <ele>2254</ele>
        <time>2021-08-12T09:01:07.434Z</time>
      </trkpt>
      <trkpt lat="46.86412" lon="8.47823">
        <ele>2254</ele>
        <time>2021-08-12T09:01:08.434Z</time>
      </trkpt>
      <trkpt lat="46.86412" lon="8.47823">
        <ele>2255</ele>
        <time>2021-08-12T09:01:09.435Z</time>
      </trkpt>
      <trkpt lat="46.86411" lon="8.47824">
        <ele>2255</ele>
        <time>2021-08-12T09:01:10.435Z</time>
      </trkpt>
      <trkpt lat="46.86411" lon="8.47825">
        <ele>2255</ele>
        <time>2021-08-12T09:01:11.435Z</time>
      </trkpt>
      <trkpt lat="46.86411" lon="8.47826">
        <ele>2254</ele>
        <time>2021-08-12T09:01:12.434Z</time>
      </trkpt>
      <trkpt lat="46.8641" lon="8.47826">
        <ele>2254</ele>
        <time>2021-08-12T09:01:13.434Z</time>
      </trkpt>
      <trkpt lat="46.8641" lon="8.47827">
        <ele>2253</ele>
        <time>2021-08-12T09:01:14.434Z</time>
      </trkpt>
      <trkpt lat="46.8641" lon="8.47828">
        <ele>2253</ele>
        <time>2021-08-12T09:01:15.434Z</time>
      </trkpt>
      <trkpt lat="46.8641" lon="8.47829">
        <ele>2252</ele>
        <time>2021-08-12T09:01:16.434Z</time>
      </trkpt>
      <trkpt lat="46.86409" lon="8.4783">
        <ele>2252</ele>
        <time>2021-08-12T09:01:17.434Z</time>
      </trkpt>
      <trkpt lat="46.86409" lon="8.4783">
        <ele>2251</ele>
        <time>2021-08-12T09:01:18.435Z</time>
      </trkpt>
      <trkpt lat="46.86409" lon="8.47831">
        <ele>2251</ele>
        <time>2021-08-12T09:01:19.434Z</time>
      </trkpt>
      <trkpt lat="46.86408" lon="8.47832">
        <ele>2251</ele>
        <time>2021-08-12T09:01:20.435Z</time>
      </trkpt>
      <trkpt lat="46.86408" lon="8.47833">
        <ele>2251</ele>
        <time>2021-08-12T09:01:21.435Z</time>
      </trkpt>
      <trkpt lat="46.86408" lon="8.47834">
        <ele>2251</ele>
        <time>2021-08-12T09:01:22.434Z</time>
      </trkpt>
      <trkpt lat="46.86407" lon="8.47834">
        <ele>2251</ele>
        <time>2021-08-12T09:01:23.435Z</time>
      </trkpt>
      <trkpt lat="46.86406" lon="8.47835">
        <ele>2252</ele>
        <time>2021-08-12T09:01:24.435Z</time>
      </trkpt>
      <trkpt lat="46.86406" lon="8.47836">
        <ele>2252</ele>
        <time>2021-08-12T09:01:25.435Z</time>
      </trkpt>
      <trkpt lat="46.86406" lon="8.47837">
        <ele>2252</ele>
        <time>2021-08-12T09:01:26.435Z</time>
      </trkpt>
      <trkpt lat="46.86405" lon="8.47838">
        <ele>2252</ele>
        <time>2021-08-12T09:01:27.435Z</time>
      </trkpt>
      <trkpt lat="46.86405" lon="8.47839">
        <ele>2252</ele>
        <time>2021-08-12T09:01:28.435Z</time>
      </trkpt>
      <trkpt lat="46.86405" lon="8.47839">
        <ele>2252</ele>
        <time>2021-08-12T09:01:29.435Z</time>
      </trkpt>
      <trkpt lat="46.86405" lon="8.4784">
        <ele>2252</ele>
        <time>2021-08-12T09:01:30.435Z</time>
      </trkpt>
      <trkpt lat="46.86404" lon="8.47841">
        <ele>2253</ele>
        <time>2021-08-12T09:01:31.435Z</time>
      </trkpt>
      <trkpt lat="46.86404" lon="8.47842">
        <ele>2252</ele>
        <time>2021-08-12T09:01:32.435Z</time>
      </trkpt>
      <trkpt lat="46.86403" lon="8.47842">
        <ele>2252</ele>
        <time>2021-08-12T09:01:33.435Z</time>
      </trkpt>
      <trkpt lat="46.86403" lon="8.47843">
        <ele>2252</ele>
        <time>2021-08-12T09:01:34.434Z</time>
      </trkpt>
      <trkpt lat="46.86402" lon="8.47844">
        <ele>2252</ele>
        <time>2021-08-12T09:01:35.434Z</time>
      </trkpt>
      <trkpt lat="46.86401" lon="8.47845">
        <ele>2252</ele>
        <time>2021-08-12T09:01:36.434Z</time>
      </trkpt>
      <trkpt lat="46.86401" lon="8.47846">
        <ele>2252</ele>
        <time>2021-08-12T09:01:37.435Z</time>
      </trkpt>
      <trkpt lat="46.864" lon="8.47847">
        <ele>2252</ele>
        <time>2021-08-12T09:01:38.434Z</time>
      </trkpt>
      <trkpt lat="46.864" lon="8.47848">
        <ele>2252</ele>
        <time>2021-08-12T09:01:39.435Z</time>
      </trkpt>
      <trkpt lat="46.86399" lon="8.47849">
        <ele>2251</ele>
        <time>2021-08-12T09:01:40.434Z</time>
      </trkpt>
      <trkpt lat="46.86399" lon="8.47849">
        <ele>2250</ele>
        <time>2021-08-12T09:01:41.434Z</time>
      </trkpt>
      <trkpt lat="46.86399" lon="8.4785">
        <ele>2250</ele>
        <time>2021-08-12T09:01:42.435Z</time>
      </trkpt>
      <trkpt lat="46.86399" lon="8.47851">
        <ele>2249</ele>
        <time>2021-08-12T09:01:43.435Z</time>
      </trkpt>
      <trkpt lat="46.86399" lon="8.47851">
        <ele>2249</ele>
        <time>2021-08-12T09:01:44.435Z</time>
      </trkpt>
      <trkpt lat="46.86399" lon="8.47852">
        <ele>2250</ele>
        <time>2021-08-12T09:01:45.435Z</time>
      </trkpt>
      <trkpt lat="46.86398" lon="8.47852">
        <ele>2250</ele>
        <time>2021-08-12T09:01:46.435Z</time>
      </trkpt>
      <trkpt lat="46.86398" lon="8.47853">
        <ele>2251</ele>
        <time>2021-08-12T09:01:47.434Z</time>
      </trkpt>
      <trkpt lat="46.86397" lon="8.47853">
        <ele>2251</ele>
        <time>2021-08-12T09:01:48.434Z</time>
      </trkpt>
      <trkpt lat="46.86397" lon="8.47853">
        <ele>2252</ele>
        <time>2021-08-12T09:01:49.435Z</time>
      </trkpt>
      <trkpt lat="46.86396" lon="8.47853">
        <ele>2253</ele>
        <time>2021-08-12T09:01:50.435Z</time>
      </trkpt>
      <trkpt lat="46.86396" lon="8.47854">
        <ele>2253</ele>
        <time>2021-08-12T09:01:51.435Z</time>
      </trkpt>
      <trkpt lat="46.86395" lon="8.47854">
        <ele>2254</ele>
        <time>2021-08-12T09:01:52.434Z</time>
      </trkpt>
      <trkpt lat="46.86394" lon="8.47855">
        <ele>2254</ele>
        <time>2021-08-12T09:01:53.435Z</time>
      </trkpt>
      <trkpt lat="46.86394" lon="8.47855">
        <ele>2255</ele>
        <time>2021-08-12T09:01:54.434Z</time>
      </trkpt>
      <trkpt lat="46.86394" lon="8.47856">
        <ele>2255</ele>
        <time>2021-08-12T09:01:55.434Z</time>
      </trkpt>
      <trkpt lat="46.86393" lon="8.47857">
        <ele>2256</ele>
        <time>2021-08-12T09:01:56.435Z</time>
      </trkpt>
      <trkpt lat="46.86393" lon="8.47857">
        <ele>2256</ele>
        <time>2021-08-12T09:01:57.435Z</time>
      </trkpt>
      <trkpt lat="46.86393" lon="8.47858">
        <ele>2256</ele>
        <time>2021-08-12T09:01:58.434Z</time>
      </trkpt>
      <trkpt lat="46.86392" lon="8.47859">
        <ele>2256</ele>
        <time>2021-08-12T09:01:59.435Z</time>
      </trkpt>
      <trkpt lat="46.86392" lon="8.4786">
        <ele>2255</ele>
        <time>2021-08-12T09:02:00.435Z</time>
      </trkpt>
      <trkpt lat="46.86392" lon="8.47861">
        <ele>2255</ele>
        <time>2021-08-12T09:02:01.435Z</time>
      </trkpt>
      <trkpt lat="46.86391" lon="8.47862">
        <ele>2255</ele>
        <time>2021-08-12T09:02:02.434Z</time>
      </trkpt>
      <trkpt lat="46.86391" lon="8.47863">
        <ele>2254</ele>
        <time>2021-08-12T09:02:03.434Z</time>
      </trkpt>
      <trkpt lat="46.86391" lon="8.47864">
        <ele>2254</ele>
        <time>2021-08-12T09:02:04.434Z</time>
      </trkpt>
      <trkpt lat="46.86391" lon="8.47866">
        <ele>2253</ele>
        <time>2021-08-12T09:02:05.434Z</time>
      </trkpt>
      <trkpt lat="46.8639" lon="8.47867">
        <ele>2253</ele>
        <time>2021-08-12T09:02:06.435Z</time>
      </trkpt>
      <trkpt lat="46.8639" lon="8.47868">
        <ele>2253</ele>
        <time>2021-08-12T09:02:07.434Z</time>
      </trkpt>
      <trkpt lat="46.8639" lon="8.4787">
        <ele>2253</ele>
        <time>2021-08-12T09:02:08.434Z</time>
      </trkpt>
      <trkpt lat="46.8639" lon="8.47871">
        <ele>2253</ele>
        <time>2021-08-12T09:02:09.434Z</time>
      </trkpt>
      <trkpt lat="46.86389" lon="8.47873">
        <ele>2252</ele>
        <time>2021-08-12T09:02:10.435Z</time>
      </trkpt>
      <trkpt lat="46.86389" lon="8.47874">
        <ele>2252</ele>
        <time>2021-08-12T09:02:11.435Z</time>
      </trkpt>
      <trkpt lat="46.86389" lon="8.47875">
        <ele>2253</ele>
        <time>2021-08-12T09:02:12.434Z</time>
      </trkpt>
      <trkpt lat="46.86389" lon="8.47877">
        <ele>2253</ele>
        <time>2021-08-12T09:02:13.434Z</time>
      </trkpt>
      <trkpt lat="46.86388" lon="8.47878">
        <ele>2253</ele>
        <time>2021-08-12T09:02:14.434Z</time>
      </trkpt>
      <trkpt lat="46.86388" lon="8.47879">
        <ele>2253</ele>
        <time>2021-08-12T09:02:15.434Z</time>
      </trkpt>
      <trkpt lat="46.86388" lon="8.4788">
        <ele>2254</ele>
        <time>2021-08-12T09:02:16.434Z</time>
      </trkpt>
      <trkpt lat="46.86387" lon="8.47882">
        <ele>2254</ele>
        <time>2021-08-12T09:02:17.434Z</time>
      </trkpt>
      <trkpt lat="46.86387" lon="8.47883">
        <ele>2254</ele>
        <time>2021-08-12T09:02:18.434Z</time>
      </trkpt>
      <trkpt lat="46.86387" lon="8.47885">
        <ele>2254</ele>
        <time>2021-08-12T09:02:19.434Z</time>
      </trkpt>
      <trkpt lat="46.86387" lon="8.47886">
        <ele>2255</ele>
        <time>2021-08-12T09:02:20.434Z</time>
      </trkpt>
      <trkpt lat="46.86387" lon="8.47887">
        <ele>2255</ele>
        <time>2021-08-12T09:02:21.434Z</time>
      </trkpt>
      <trkpt lat="46.86386" lon="8.47888">
        <ele>2256</ele>
        <time>2021-08-12T09:02:22.434Z</time>
      </trkpt>
      <trkpt lat="46.86386" lon="8.4789">
        <ele>2257</ele>
        <time>2021-08-12T09:02:23.434Z</time>
      </trkpt>
      <trkpt lat="46.86386" lon="8.47891">
        <ele>2258</ele>
        <time>2021-08-12T09:02:24.434Z</time>
      </trkpt>
      <trkpt lat="46.86386" lon="8.47892">
        <ele>2259</ele>
        <time>2021-08-12T09:02:25.434Z</time>
      </trkpt>
      <trkpt lat="46.86386" lon="8.47893">
        <ele>2259</ele>
        <time>2021-08-12T09:02:26.434Z</time>
      </trkpt>
      <trkpt lat="46.86386" lon="8.47894">
        <ele>2259</ele>
        <time>2021-08-12T09:02:27.434Z</time>
      </trkpt>
      <trkpt lat="46.86386" lon="8.47895">
        <ele>2260</ele>
        <time>2021-08-12T09:02:28.434Z</time>
      </trkpt>
      <trkpt lat="46.86386" lon="8.47895">
        <ele>2260</ele>
        <time>2021-08-12T09:02:29.435Z</time>
      </trkpt>
      <trkpt lat="46.86386" lon="8.47896">
        <ele>2260</ele>
        <time>2021-08-12T09:02:30.434Z</time>
      </trkpt>
      <trkpt lat="46.86386" lon="8.47896">
        <ele>2259</ele>
        <time>2021-08-12T09:02:31.434Z</time>
      </trkpt>
      <trkpt lat="46.86386" lon="8.47897">
        <ele>2259</ele>
        <time>2021-08-12T09:02:32.434Z</time>
      </trkpt>
      <trkpt lat="46.86386" lon="8.47897">
        <ele>2259</ele>
        <time>2021-08-12T09:02:33.434Z</time>
      </trkpt>
      <trkpt lat="46.86386" lon="8.47898">
        <ele>2259</ele>
        <time>2021-08-12T09:02:34.434Z</time>
      </trkpt>
      <trkpt lat="46.86387" lon="8.47899">
        <ele>2259</ele>
        <time>2021-08-12T09:02:35.434Z</time>
      </trkpt>
      <trkpt lat="46.86387" lon="8.47899">
        <ele>2259</ele>
        <time>2021-08-12T09:02:36.435Z</time>
      </trkpt>
      <trkpt lat="46.86387" lon="8.479">
        <ele>2259</ele>
        <time>2021-08-12T09:02:37.435Z</time>
      </trkpt>
      <trkpt lat="46.86385" lon="8.47901">
        <ele>2261</ele>
        <time>2021-08-12T09:02:38.435Z</time>
      </trkpt>
      <trkpt lat="46.86385" lon="8.47902">
        <ele>2262</ele>
        <time>2021-08-12T09:02:39.435Z</time>
      </trkpt>
      <trkpt lat="46.86385" lon="8.47903">
        <ele>2262</ele>
        <time>2021-08-12T09:02:40.436Z</time>
      </trkpt>
      <trkpt lat="46.86385" lon="8.47904">
        <ele>2262</ele>
        <time>2021-08-12T09:02:41.436Z</time>
      </trkpt>
      <trkpt lat="46.86385" lon="8.47904">
        <ele>2262</ele>
        <time>2021-08-12T09:02:42.435Z</time>
      </trkpt>
      <trkpt lat="46.86385" lon="8.47904">
        <ele>2263</ele>
        <time>2021-08-12T09:02:43.436Z</time>
      </trkpt>
      <trkpt lat="46.86385" lon="8.47904">
        <ele>2263</ele>
        <time>2021-08-12T09:02:44.435Z</time>
      </trkpt>
      <trkpt lat="46.86386" lon="8.47905">
        <ele>2263</ele>
        <time>2021-08-12T09:02:45.436Z</time>
      </trkpt>
      <trkpt lat="46.86386" lon="8.47906">
        <ele>2263</ele>
        <time>2021-08-12T09:02:46.436Z</time>
      </trkpt>
      <trkpt lat="46.86386" lon="8.47907">
        <ele>2262</ele>
        <time>2021-08-12T09:02:47.435Z</time>
      </trkpt>
      <trkpt lat="46.86386" lon="8.47907">
        <ele>2262</ele>
        <time>2021-08-12T09:02:48.435Z</time>
      </trkpt>
      <trkpt lat="46.86386" lon="8.47908">
        <ele>2262</ele>
        <time>2021-08-12T09:02:49.436Z</time>
      </trkpt>
      <trkpt lat="46.86386" lon="8.47909">
        <ele>2261</ele>
        <time>2021-08-12T09:02:50.435Z</time>
      </trkpt>
      <trkpt lat="46.86385" lon="8.4791">
        <ele>2261</ele>
        <time>2021-08-12T09:02:51.436Z</time>
      </trkpt>
      <trkpt lat="46.86384" lon="8.47911">
        <ele>2261</ele>
        <time>2021-08-12T09:02:52.436Z</time>
      </trkpt>
      <trkpt lat="46.86384" lon="8.47912">
        <ele>2261</ele>
        <time>2021-08-12T09:02:53.435Z</time>
      </trkpt>
      <trkpt lat="46.86384" lon="8.47913">
        <ele>2261</ele>
        <time>2021-08-12T09:02:54.435Z</time>
      </trkpt>
      <trkpt lat="46.86384" lon="8.47914">
        <ele>2261</ele>
        <time>2021-08-12T09:02:55.435Z</time>
      </trkpt>
      <trkpt lat="46.86384" lon="8.47915">
        <ele>2262</ele>
        <time>2021-08-12T09:02:56.436Z</time>
      </trkpt>
      <trkpt lat="46.86383" lon="8.47916">
        <ele>2263</ele>
        <time>2021-08-12T09:02:57.436Z</time>
      </trkpt>
      <trkpt lat="46.86383" lon="8.47917">
        <ele>2263</ele>
        <time>2021-08-12T09:02:58.436Z</time>
      </trkpt>
      <trkpt lat="46.86383" lon="8.47918">
        <ele>2264</ele>
        <time>2021-08-12T09:02:59.436Z</time>
      </trkpt>
      <trkpt lat="46.86383" lon="8.47919">
        <ele>2264</ele>
        <time>2021-08-12T09:03:00.435Z</time>
      </trkpt>
      <trkpt lat="46.86383" lon="8.4792">
        <ele>2265</ele>
        <time>2021-08-12T09:03:01.436Z</time>
      </trkpt>
      <trkpt lat="46.86384" lon="8.47921">
        <ele>2264</ele>
        <time>2021-08-12T09:03:02.435Z</time>
      </trkpt>
      <trkpt lat="46.86384" lon="8.47922">
        <ele>2264</ele>
        <time>2021-08-12T09:03:03.435Z</time>
      </trkpt>
      <trkpt lat="46.86384" lon="8.47922">
        <ele>2264</ele>
        <time>2021-08-12T09:03:04.436Z</time>
      </trkpt>
      <trkpt lat="46.86384" lon="8.47923">
        <ele>2263</ele>
        <time>2021-08-12T09:03:05.435Z</time>
      </trkpt>
      <trkpt lat="46.86384" lon="8.47925">
        <ele>2263</ele>
        <time>2021-08-12T09:03:06.436Z</time>
      </trkpt>
      <trkpt lat="46.86384" lon="8.47926">
        <ele>2262</ele>
        <time>2021-08-12T09:03:07.436Z</time>
      </trkpt>
      <trkpt lat="46.86384" lon="8.47927">
        <ele>2262</ele>
        <time>2021-08-12T09:03:08.436Z</time>
      </trkpt>
      <trkpt lat="46.86383" lon="8.47926">
        <ele>2263</ele>
        <time>2021-08-12T09:03:09.436Z</time>
      </trkpt>
      <trkpt lat="46.86383" lon="8.47927">
        <ele>2263</ele>
        <time>2021-08-12T09:03:10.436Z</time>
      </trkpt>
      <trkpt lat="46.86382" lon="8.47927">
        <ele>2263</ele>
        <time>2021-08-12T09:03:11.436Z</time>
      </trkpt>
      <trkpt lat="46.86382" lon="8.47929">
        <ele>2264</ele>
        <time>2021-08-12T09:03:12.435Z</time>
      </trkpt>
      <trkpt lat="46.86382" lon="8.4793">
        <ele>2264</ele>
        <time>2021-08-12T09:03:13.436Z</time>
      </trkpt>
      <trkpt lat="46.86382" lon="8.47931">
        <ele>2264</ele>
        <time>2021-08-12T09:03:14.436Z</time>
      </trkpt>
      <trkpt lat="46.86382" lon="8.47932">
        <ele>2264</ele>
        <time>2021-08-12T09:03:15.436Z</time>
      </trkpt>
      <trkpt lat="46.86382" lon="8.47933">
        <ele>2264</ele>
        <time>2021-08-12T09:03:16.436Z</time>
      </trkpt>
      <trkpt lat="46.86382" lon="8.47933">
        <ele>2264</ele>
        <time>2021-08-12T09:03:17.436Z</time>
      </trkpt>
      <trkpt lat="46.86382" lon="8.47934">
        <ele>2264</ele>
        <time>2021-08-12T09:03:18.435Z</time>
      </trkpt>
      <trkpt lat="46.86382" lon="8.47935">
        <ele>2264</ele>
        <time>2021-08-12T09:03:19.436Z</time>
      </trkpt>
      <trkpt lat="46.86382" lon="8.47936">
        <ele>2264</ele>
        <time>2021-08-12T09:03:20.436Z</time>
      </trkpt>
      <trkpt lat="46.86382" lon="8.47937">
        <ele>2264</ele>
        <time>2021-08-12T09:03:21.436Z</time>
      </trkpt>
      <trkpt lat="46.86382" lon="8.47938">
        <ele>2264</ele>
        <time>2021-08-12T09:03:22.435Z</time>
      </trkpt>
      <trkpt lat="46.86382" lon="8.47939">
        <ele>2265</ele>
        <time>2021-08-12T09:03:23.435Z</time>
      </trkpt>
      <trkpt lat="46.86382" lon="8.4794">
        <ele>2265</ele>
        <time>2021-08-12T09:03:24.436Z</time>
      </trkpt>
      <trkpt lat="46.86382" lon="8.4794">
        <ele>2265</ele>
        <time>2021-08-12T09:03:25.435Z</time>
      </trkpt>
      <trkpt lat="46.86382" lon="8.47941">
        <ele>2265</ele>
        <time>2021-08-12T09:03:26.436Z</time>
      </trkpt>
      <trkpt lat="46.86381" lon="8.47942">
        <ele>2265</ele>
        <time>2021-08-12T09:03:27.436Z</time>
      </trkpt>
      <trkpt lat="46.86381" lon="8.47943">
        <ele>2265</ele>
        <time>2021-08-12T09:03:28.436Z</time>
      </trkpt>
      <trkpt lat="46.86381" lon="8.47943">
        <ele>2265</ele>
        <time>2021-08-12T09:03:29.436Z</time>
      </trkpt>
      <trkpt lat="46.8638" lon="8.47943">
        <ele>2265</ele>
        <time>2021-08-12T09:03:30.436Z</time>
      </trkpt>
      <trkpt lat="46.86379" lon="8.47943">
        <ele>2266</ele>
        <time>2021-08-12T09:03:31.435Z</time>
      </trkpt>
      <trkpt lat="46.86378" lon="8.47942">
        <ele>2266</ele>
        <time>2021-08-12T09:03:32.436Z</time>
      </trkpt>
      <trkpt lat="46.86378" lon="8.47942">
        <ele>2266</ele>
        <time>2021-08-12T09:03:33.436Z</time>
      </trkpt>
      <trkpt lat="46.86377" lon="8.47943">
        <ele>2266</ele>
        <time>2021-08-12T09:03:34.436Z</time>
      </trkpt>
      <trkpt lat="46.86377" lon="8.47943">
        <ele>2267</ele>
        <time>2021-08-12T09:03:35.435Z</time>
      </trkpt>
      <trkpt lat="46.86376" lon="8.47943">
        <ele>2267</ele>
        <time>2021-08-12T09:03:36.436Z</time>
      </trkpt>
      <trkpt lat="46.86376" lon="8.47944">
        <ele>2268</ele>
        <time>2021-08-12T09:03:37.435Z</time>
      </trkpt>
      <trkpt lat="46.86376" lon="8.47945">
        <ele>2268</ele>
        <time>2021-08-12T09:03:38.436Z</time>
      </trkpt>
      <trkpt lat="46.86376" lon="8.47946">
        <ele>2269</ele>
        <time>2021-08-12T09:03:39.436Z</time>
      </trkpt>
      <trkpt lat="46.86376" lon="8.47946">
        <ele>2269</ele>
        <time>2021-08-12T09:03:40.435Z</time>
      </trkpt>
      <trkpt lat="46.86377" lon="8.47947">
        <ele>2270</ele>
        <time>2021-08-12T09:03:41.436Z</time>
      </trkpt>
      <trkpt lat="46.86377" lon="8.47948">
        <ele>2270</ele>
        <time>2021-08-12T09:03:42.435Z</time>
      </trkpt>
      <trkpt lat="46.86378" lon="8.47948">
        <ele>2270</ele>
        <time>2021-08-12T09:03:43.436Z</time>
      </trkpt>
      <trkpt lat="46.86378" lon="8.47949">
        <ele>2270</ele>
        <time>2021-08-12T09:03:44.435Z</time>
      </trkpt>
      <trkpt lat="46.86377" lon="8.47949">
        <ele>2270</ele>
        <time>2021-08-12T09:03:45.435Z</time>
      </trkpt>
      <trkpt lat="46.86377" lon="8.4795">
        <ele>2271</ele>
        <time>2021-08-12T09:03:46.436Z</time>
      </trkpt>
      <trkpt lat="46.86376" lon="8.4795">
        <ele>2271</ele>
        <time>2021-08-12T09:03:47.435Z</time>
      </trkpt>
      <trkpt lat="46.86375" lon="8.4795">
        <ele>2272</ele>
        <time>2021-08-12T09:03:48.436Z</time>
      </trkpt>
      <trkpt lat="46.86374" lon="8.47949">
        <ele>2273</ele>
        <time>2021-08-12T09:03:49.436Z</time>
      </trkpt>
      <trkpt lat="46.86373" lon="8.47949">
        <ele>2274</ele>
        <time>2021-08-12T09:03:50.435Z</time>
      </trkpt>
      <trkpt lat="46.86373" lon="8.4795">
        <ele>2275</ele>
        <time>2021-08-12T09:03:51.436Z</time>
      </trkpt>
      <trkpt lat="46.86372" lon="8.47951">
        <ele>2276</ele>
        <time>2021-08-12T09:03:52.436Z</time>
      </trkpt>
      <trkpt lat="46.86372" lon="8.47952">
        <ele>2276</ele>
        <time>2021-08-12T09:03:53.436Z</time>
      </trkpt>
      <trkpt lat="46.86371" lon="8.47954">
        <ele>2276</ele>
        <time>2021-08-12T09:03:54.436Z</time>
      </trkpt>
      <trkpt lat="46.86371" lon="8.47955">
        <ele>2276</ele>
        <time>2021-08-12T09:03:55.435Z</time>
      </trkpt>
      <trkpt lat="46.86372" lon="8.47956">
        <ele>2276</ele>
        <time>2021-08-12T09:03:56.436Z</time>
      </trkpt>
      <trkpt lat="46.86372" lon="8.47957">
        <ele>2276</ele>
        <time>2021-08-12T09:03:57.436Z</time>
      </trkpt>
      <trkpt lat="46.86372" lon="8.47957">
        <ele>2275</ele>
        <time>2021-08-12T09:03:58.436Z</time>
      </trkpt>
      <trkpt lat="46.86371" lon="8.47959">
        <ele>2274</ele>
        <time>2021-08-12T09:03:59.436Z</time>
      </trkpt>
      <trkpt lat="46.86371" lon="8.4796">
        <ele>2274</ele>
        <time>2021-08-12T09:04:00.436Z</time>
      </trkpt>
      <trkpt lat="46.86371" lon="8.47961">
        <ele>2274</ele>
        <time>2021-08-12T09:04:01.435Z</time>
      </trkpt>
      <trkpt lat="46.8637" lon="8.47962">
        <ele>2273</ele>
        <time>2021-08-12T09:04:02.436Z</time>
      </trkpt>
      <trkpt lat="46.8637" lon="8.47963">
        <ele>2274</ele>
        <time>2021-08-12T09:04:03.436Z</time>
      </trkpt>
      <trkpt lat="46.8637" lon="8.47964">
        <ele>2274</ele>
        <time>2021-08-12T09:04:04.435Z</time>
      </trkpt>
      <trkpt lat="46.8637" lon="8.47965">
        <ele>2274</ele>
        <time>2021-08-12T09:04:05.436Z</time>
      </trkpt>
      <trkpt lat="46.8637" lon="8.47966">
        <ele>2274</ele>
        <time>2021-08-12T09:04:06.436Z</time>
      </trkpt>
      <trkpt lat="46.86369" lon="8.47966">
        <ele>2275</ele>
        <time>2021-08-12T09:04:07.435Z</time>
      </trkpt>
      <trkpt lat="46.86369" lon="8.47967">
        <ele>2275</ele>
        <time>2021-08-12T09:04:08.436Z</time>
      </trkpt>
      <trkpt lat="46.86369" lon="8.47968">
        <ele>2275</ele>
        <time>2021-08-12T09:04:09.436Z</time>
      </trkpt>
      <trkpt lat="46.86368" lon="8.47968">
        <ele>2275</ele>
        <time>2021-08-12T09:04:10.435Z</time>
      </trkpt>
      <trkpt lat="46.86368" lon="8.47968">
        <ele>2275</ele>
        <time>2021-08-12T09:04:11.436Z</time>
      </trkpt>
      <trkpt lat="46.86367" lon="8.47969">
        <ele>2276</ele>
        <time>2021-08-12T09:04:12.435Z</time>
      </trkpt>
      <trkpt lat="46.86367" lon="8.47969">
        <ele>2276</ele>
        <time>2021-08-12T09:04:13.435Z</time>
      </trkpt>
      <trkpt lat="46.86367" lon="8.47969">
        <ele>2276</ele>
        <time>2021-08-12T09:04:14.436Z</time>
      </trkpt>
      <trkpt lat="46.86366" lon="8.4797">
        <ele>2276</ele>
        <time>2021-08-12T09:04:15.436Z</time>
      </trkpt>
      <trkpt lat="46.86365" lon="8.4797">
        <ele>2277</ele>
        <time>2021-08-12T09:04:16.436Z</time>
      </trkpt>
      <trkpt lat="46.86365" lon="8.47971">
        <ele>2277</ele>
        <time>2021-08-12T09:04:17.436Z</time>
      </trkpt>
      <trkpt lat="46.86364" lon="8.47971">
        <ele>2277</ele>
        <time>2021-08-12T09:04:18.436Z</time>
      </trkpt>
      <trkpt lat="46.86363" lon="8.47972">
        <ele>2277</ele>
        <time>2021-08-12T09:04:19.435Z</time>
      </trkpt>
      <trkpt lat="46.86363" lon="8.47972">
        <ele>2276</ele>
        <time>2021-08-12T09:04:20.435Z</time>
      </trkpt>
      <trkpt lat="46.86363" lon="8.47973">
        <ele>2276</ele>
        <time>2021-08-12T09:04:21.436Z</time>
      </trkpt>
      <trkpt lat="46.86363" lon="8.47974">
        <ele>2276</ele>
        <time>2021-08-12T09:04:22.436Z</time>
      </trkpt>
      <trkpt lat="46.86364" lon="8.47974">
        <ele>2276</ele>
        <time>2021-08-12T09:04:23.435Z</time>
      </trkpt>
      <trkpt lat="46.86364" lon="8.47975">
        <ele>2276</ele>
        <time>2021-08-12T09:04:24.436Z</time>
      </trkpt>
      <trkpt lat="46.86364" lon="8.47976">
        <ele>2276</ele>
        <time>2021-08-12T09:04:25.436Z</time>
      </trkpt>
      <trkpt lat="46.86364" lon="8.47977">
        <ele>2276</ele>
        <time>2021-08-12T09:04:26.436Z</time>
      </trkpt>
      <trkpt lat="46.86364" lon="8.47977">
        <ele>2276</ele>
        <time>2021-08-12T09:04:27.436Z</time>
      </trkpt>
      <trkpt lat="46.86363" lon="8.47978">
        <ele>2277</ele>
        <time>2021-08-12T09:04:28.436Z</time>
      </trkpt>
      <trkpt lat="46.86363" lon="8.47978">
        <ele>2277</ele>
        <time>2021-08-12T09:04:29.436Z</time>
      </trkpt>
      <trkpt lat="46.86363" lon="8.47978">
        <ele>2277</ele>
        <time>2021-08-12T09:04:30.436Z</time>
      </trkpt>
      <trkpt lat="46.86362" lon="8.47978">
        <ele>2277</ele>
        <time>2021-08-12T09:04:31.436Z</time>
      </trkpt>
      <trkpt lat="46.86361" lon="8.47978">
        <ele>2278</ele>
        <time>2021-08-12T09:04:32.435Z</time>
      </trkpt>
      <trkpt lat="46.8636" lon="8.47978">
        <ele>2279</ele>
        <time>2021-08-12T09:04:33.435Z</time>
      </trkpt>
      <trkpt lat="46.8636" lon="8.47978">
        <ele>2280</ele>
        <time>2021-08-12T09:04:34.435Z</time>
      </trkpt>
      <trkpt lat="46.86359" lon="8.47978">
        <ele>2280</ele>
        <time>2021-08-12T09:04:35.436Z</time>
      </trkpt>
      <trkpt lat="46.86358" lon="8.47979">
        <ele>2281</ele>
        <time>2021-08-12T09:04:36.435Z</time>
      </trkpt>
      <trkpt lat="46.86358" lon="8.47979">
        <ele>2281</ele>
        <time>2021-08-12T09:04:37.436Z</time>
      </trkpt>
      <trkpt lat="46.86358" lon="8.47979">
        <ele>2282</ele>
        <time>2021-08-12T09:04:38.435Z</time>
      </trkpt>
      <trkpt lat="46.86357" lon="8.47985">
        <ele>2282</ele>
        <time>2021-08-12T09:04:39.435Z</time>
      </trkpt>
      <trkpt lat="46.86358" lon="8.47986">
        <ele>2282</ele>
        <time>2021-08-12T09:04:40.436Z</time>
      </trkpt>
      <trkpt lat="46.86358" lon="8.47986">
        <ele>2281</ele>
        <time>2021-08-12T09:04:41.435Z</time>
      </trkpt>
      <trkpt lat="46.86361" lon="8.47985">
        <ele>2283</ele>
        <time>2021-08-12T09:04:42.436Z</time>
      </trkpt>
      <trkpt lat="46.86361" lon="8.47985">
        <ele>2283</ele>
        <time>2021-08-12T09:04:43.436Z</time>
      </trkpt>
      <trkpt lat="46.86362" lon="8.47985">
        <ele>2283</ele>
        <time>2021-08-12T09:04:44.435Z</time>
      </trkpt>
      <trkpt lat="46.86362" lon="8.47986">
        <ele>2282</ele>
        <time>2021-08-12T09:04:45.437Z</time>
      </trkpt>
      <trkpt lat="46.86362" lon="8.47986">
        <ele>2282</ele>
        <time>2021-08-12T09:04:46.437Z</time>
      </trkpt>
      <trkpt lat="46.86362" lon="8.47986">
        <ele>2282</ele>
        <time>2021-08-12T09:04:47.436Z</time>
      </trkpt>
      <trkpt lat="46.86362" lon="8.47988">
        <ele>2280</ele>
        <time>2021-08-12T09:04:48.436Z</time>
      </trkpt>
      <trkpt lat="46.86361" lon="8.47989">
        <ele>2279</ele>
        <time>2021-08-12T09:04:49.437Z</time>
      </trkpt>
      <trkpt lat="46.86361" lon="8.4799">
        <ele>2279</ele>
        <time>2021-08-12T09:04:50.436Z</time>
      </trkpt>
      <trkpt lat="46.86361" lon="8.4799">
        <ele>2278</ele>
        <time>2021-08-12T09:04:51.436Z</time>
      </trkpt>
      <trkpt lat="46.86361" lon="8.47991">
        <ele>2278</ele>
        <time>2021-08-12T09:04:52.436Z</time>
      </trkpt>
      <trkpt lat="46.86361" lon="8.47993">
        <ele>2277</ele>
        <time>2021-08-12T09:04:53.437Z</time>
      </trkpt>
      <trkpt lat="46.86361" lon="8.47994">
        <ele>2276</ele>
        <time>2021-08-12T09:04:54.436Z</time>
      </trkpt>
      <trkpt lat="46.86361" lon="8.47995">
        <ele>2276</ele>
        <time>2021-08-12T09:04:55.437Z</time>
      </trkpt>
      <trkpt lat="46.86361" lon="8.47996">
        <ele>2275</ele>
        <time>2021-08-12T09:04:56.437Z</time>
      </trkpt>
      <trkpt lat="46.8636" lon="8.47997">
        <ele>2275</ele>
        <time>2021-08-12T09:04:57.437Z</time>
      </trkpt>
      <trkpt lat="46.8636" lon="8.47998">
        <ele>2274</ele>
        <time>2021-08-12T09:04:58.437Z</time>
      </trkpt>
      <trkpt lat="46.86359" lon="8.47998">
        <ele>2274</ele>
        <time>2021-08-12T09:04:59.437Z</time>
      </trkpt>
      <trkpt lat="46.86359" lon="8.47998">
        <ele>2274</ele>
        <time>2021-08-12T09:05:00.436Z</time>
      </trkpt>
      <trkpt lat="46.86359" lon="8.47998">
        <ele>2274</ele>
        <time>2021-08-12T09:05:01.436Z</time>
      </trkpt>
      <trkpt lat="46.86359" lon="8.47999">
        <ele>2273</ele>
        <time>2021-08-12T09:05:02.437Z</time>
      </trkpt>
      <trkpt lat="46.86358" lon="8.48001">
        <ele>2273</ele>
        <time>2021-08-12T09:05:03.437Z</time>
      </trkpt>
      <trkpt lat="46.86358" lon="8.48001">
        <ele>2273</ele>
        <time>2021-08-12T09:05:04.436Z</time>
      </trkpt>
      <trkpt lat="46.86358" lon="8.48002">
        <ele>2273</ele>
        <time>2021-08-12T09:05:05.436Z</time>
      </trkpt>
      <trkpt lat="46.86358" lon="8.48002">
        <ele>2273</ele>
        <time>2021-08-12T09:05:06.437Z</time>
      </trkpt>
      <trkpt lat="46.86358" lon="8.48003">
        <ele>2273</ele>
        <time>2021-08-12T09:05:07.437Z</time>
      </trkpt>
      <trkpt lat="46.86358" lon="8.48003">
        <ele>2273</ele>
        <time>2021-08-12T09:05:08.437Z</time>
      </trkpt>
      <trkpt lat="46.86357" lon="8.48003">
        <ele>2273</ele>
        <time>2021-08-12T09:05:09.436Z</time>
      </trkpt>
      <trkpt lat="46.86357" lon="8.48003">
        <ele>2274</ele>
        <time>2021-08-12T09:05:10.437Z</time>
      </trkpt>
      <trkpt lat="46.86356" lon="8.48003">
        <ele>2274</ele>
        <time>2021-08-12T09:05:11.437Z</time>
      </trkpt>
      <trkpt lat="46.86355" lon="8.48003">
        <ele>2274</ele>
        <time>2021-08-12T09:05:12.437Z</time>
      </trkpt>
      <trkpt lat="46.86354" lon="8.48003">
        <ele>2275</ele>
        <time>2021-08-12T09:05:13.436Z</time>
      </trkpt>
      <trkpt lat="46.86353" lon="8.48004">
        <ele>2275</ele>
        <time>2021-08-12T09:05:14.437Z</time>
      </trkpt>
      <trkpt lat="46.86352" lon="8.48005">
        <ele>2275</ele>
        <time>2021-08-12T09:05:15.437Z</time>
      </trkpt>
      <trkpt lat="46.86351" lon="8.48006">
        <ele>2275</ele>
        <time>2021-08-12T09:05:16.437Z</time>
      </trkpt>
      <trkpt lat="46.8635" lon="8.48006">
        <ele>2275</ele>
        <time>2021-08-12T09:05:17.437Z</time>
      </trkpt>
      <trkpt lat="46.8635" lon="8.48006">
        <ele>2276</ele>
        <time>2021-08-12T09:05:18.437Z</time>
      </trkpt>
      <trkpt lat="46.8635" lon="8.48005">
        <ele>2276</ele>
        <time>2021-08-12T09:05:19.436Z</time>
      </trkpt>
      <trkpt lat="46.8635" lon="8.48004">
        <ele>2276</ele>
        <time>2021-08-12T09:05:20.437Z</time>
      </trkpt>
      <trkpt lat="46.86351" lon="8.48004">
        <ele>2276</ele>
        <time>2021-08-12T09:05:21.437Z</time>
      </trkpt>
      <trkpt lat="46.8635" lon="8.48004">
        <ele>2276</ele>
        <time>2021-08-12T09:05:22.436Z</time>
      </trkpt>
      <trkpt lat="46.8635" lon="8.48005">
        <ele>2276</ele>
        <time>2021-08-12T09:05:23.436Z</time>
      </trkpt>
      <trkpt lat="46.8635" lon="8.48006">
        <ele>2277</ele>
        <time>2021-08-12T09:05:24.437Z</time>
      </trkpt>
      <trkpt lat="46.8635" lon="8.48007">
        <ele>2277</ele>
        <time>2021-08-12T09:05:25.436Z</time>
      </trkpt>
      <trkpt lat="46.86349" lon="8.48007">
        <ele>2278</ele>
        <time>2021-08-12T09:05:26.437Z</time>
      </trkpt>
      <trkpt lat="46.86349" lon="8.48008">
        <ele>2278</ele>
        <time>2021-08-12T09:05:27.437Z</time>
      </trkpt>
      <trkpt lat="46.86349" lon="8.48008">
        <ele>2279</ele>
        <time>2021-08-12T09:05:28.437Z</time>
      </trkpt>
      <trkpt lat="46.86348" lon="8.48008">
        <ele>2280</ele>
        <time>2021-08-12T09:05:29.436Z</time>
      </trkpt>
      <trkpt lat="46.86348" lon="8.48008">
        <ele>2280</ele>
        <time>2021-08-12T09:05:30.437Z</time>
      </trkpt>
      <trkpt lat="46.86348" lon="8.48009">
        <ele>2281</ele>
        <time>2021-08-12T09:05:31.437Z</time>
      </trkpt>
      <trkpt lat="46.86348" lon="8.48009">
        <ele>2281</ele>
        <time>2021-08-12T09:05:32.437Z</time>
      </trkpt>
      <trkpt lat="46.86348" lon="8.4801">
        <ele>2281</ele>
        <time>2021-08-12T09:05:33.437Z</time>
      </trkpt>
      <trkpt lat="46.86348" lon="8.4801">
        <ele>2281</ele>
        <time>2021-08-12T09:05:34.436Z</time>
      </trkpt>
      <trkpt lat="46.86348" lon="8.48011">
        <ele>2282</ele>
        <time>2021-08-12T09:05:35.437Z</time>
      </trkpt>
      <trkpt lat="46.86348" lon="8.48012">
        <ele>2282</ele>
        <time>2021-08-12T09:05:36.437Z</time>
      </trkpt>
      <trkpt lat="46.86348" lon="8.48012">
        <ele>2282</ele>
        <time>2021-08-12T09:05:37.437Z</time>
      </trkpt>
      <trkpt lat="46.86349" lon="8.48013">
        <ele>2282</ele>
        <time>2021-08-12T09:05:38.437Z</time>
      </trkpt>
      <trkpt lat="46.86348" lon="8.48013">
        <ele>2283</ele>
        <time>2021-08-12T09:05:39.437Z</time>
      </trkpt>
      <trkpt lat="46.86349" lon="8.48016">
        <ele>2281</ele>
        <time>2021-08-12T09:05:40.436Z</time>
      </trkpt>
      <trkpt lat="46.86348" lon="8.48015">
        <ele>2292</ele>
        <time>2021-08-12T09:05:41.437Z</time>
      </trkpt>
      <trkpt lat="46.86348" lon="8.48016">
        <ele>2293</ele>
        <time>2021-08-12T09:05:42.436Z</time>
      </trkpt>
      <trkpt lat="46.86348" lon="8.48016">
        <ele>2294</ele>
        <time>2021-08-12T09:05:43.436Z</time>
      </trkpt>
      <trkpt lat="46.86349" lon="8.4802">
        <ele>2289</ele>
        <time>2021-08-12T09:05:44.437Z</time>
      </trkpt>
      <trkpt lat="46.86348" lon="8.48022">
        <ele>2287</ele>
        <time>2021-08-12T09:05:45.437Z</time>
      </trkpt>
      <trkpt lat="46.86348" lon="8.48022">
        <ele>2285</ele>
        <time>2021-08-12T09:05:46.437Z</time>
      </trkpt>
      <trkpt lat="46.86349" lon="8.48021">
        <ele>2284</ele>
        <time>2021-08-12T09:05:47.437Z</time>
      </trkpt>
      <trkpt lat="46.86349" lon="8.48022">
        <ele>2283</ele>
        <time>2021-08-12T09:05:48.437Z</time>
      </trkpt>
      <trkpt lat="46.86349" lon="8.48022">
        <ele>2282</ele>
        <time>2021-08-12T09:05:49.437Z</time>
      </trkpt>
      <trkpt lat="46.86349" lon="8.48022">
        <ele>2282</ele>
        <time>2021-08-12T09:05:50.438Z</time>
      </trkpt>
      <trkpt lat="46.86348" lon="8.4802">
        <ele>2279</ele>
        <time>2021-08-12T09:05:51.438Z</time>
      </trkpt>
      <trkpt lat="46.86348" lon="8.48019">
        <ele>2279</ele>
        <time>2021-08-12T09:05:52.439Z</time>
      </trkpt>
      <trkpt lat="46.86348" lon="8.48018">
        <ele>2279</ele>
        <time>2021-08-12T09:05:53.439Z</time>
      </trkpt>
      <trkpt lat="46.86351" lon="8.48007">
        <ele>2283</ele>
        <time>2021-08-12T09:05:54.439Z</time>
      </trkpt>
      <trkpt lat="46.86351" lon="8.48007">
        <ele>2284</ele>
        <time>2021-08-12T09:05:55.439Z</time>
      </trkpt>
      <trkpt lat="46.86351" lon="8.48007">
        <ele>2284</ele>
        <time>2021-08-12T09:05:56.438Z</time>
      </trkpt>
      <trkpt lat="46.86351" lon="8.48007">
        <ele>2284</ele>
        <time>2021-08-12T09:05:57.439Z</time>
      </trkpt>
      <trkpt lat="46.86351" lon="8.48007">
        <ele>2284</ele>
        <time>2021-08-12T09:05:58.438Z</time>
      </trkpt>
      <trkpt lat="46.8635" lon="8.48008">
        <ele>2285</ele>
        <time>2021-08-12T09:05:59.439Z</time>
      </trkpt>
      <trkpt lat="46.8635" lon="8.48009">
        <ele>2285</ele>
        <time>2021-08-12T09:06:00.439Z</time>
      </trkpt>
      <trkpt lat="46.8635" lon="8.48009">
        <ele>2285</ele>
        <time>2021-08-12T09:06:01.439Z</time>
      </trkpt>
      <trkpt lat="46.8635" lon="8.48009">
        <ele>2285</ele>
        <time>2021-08-12T09:06:02.439Z</time>
      </trkpt>
      <trkpt lat="46.8635" lon="8.48015">
        <ele>2294</ele>
        <time>2021-08-12T09:06:03.440Z</time>
      </trkpt>
      <trkpt lat="46.8635" lon="8.48016">
        <ele>2294</ele>
        <time>2021-08-12T09:06:04.440Z</time>
      </trkpt>
      <trkpt lat="46.8635" lon="8.48016">
        <ele>2295</ele>
        <time>2021-08-12T09:06:05.440Z</time>
      </trkpt>
      <trkpt lat="46.86348" lon="8.48016">
        <ele>2289</ele>
        <time>2021-08-12T09:06:06.440Z</time>
      </trkpt>
      <trkpt lat="46.86347" lon="8.48019">
        <ele>2290</ele>
        <time>2021-08-12T09:06:07.440Z</time>
      </trkpt>
      <trkpt lat="46.86346" lon="8.4802">
        <ele>2290</ele>
        <time>2021-08-12T09:06:08.440Z</time>
      </trkpt>
      <trkpt lat="46.86346" lon="8.4802">
        <ele>2290</ele>
        <time>2021-08-12T09:06:09.441Z</time>
      </trkpt>
      <trkpt lat="46.86346" lon="8.4802">
        <ele>2290</ele>
        <time>2021-08-12T09:06:10.440Z</time>
      </trkpt>
      <trkpt lat="46.86345" lon="8.48021">
        <ele>2290</ele>
        <time>2021-08-12T09:06:11.440Z</time>
      </trkpt>
      <trkpt lat="46.86344" lon="8.48021">
        <ele>2290</ele>
        <time>2021-08-12T09:06:12.440Z</time>
      </trkpt>
      <trkpt lat="46.86344" lon="8.48021">
        <ele>2291</ele>
        <time>2021-08-12T09:06:13.440Z</time>
      </trkpt>
      <trkpt lat="46.86344" lon="8.48022">
        <ele>2291</ele>
        <time>2021-08-12T09:06:14.440Z</time>
      </trkpt>
      <trkpt lat="46.86344" lon="8.48023">
        <ele>2291</ele>
        <time>2021-08-12T09:06:15.440Z</time>
      </trkpt>
      <trkpt lat="46.86344" lon="8.48023">
        <ele>2291</ele>
        <time>2021-08-12T09:06:16.440Z</time>
      </trkpt>
      <trkpt lat="46.86343" lon="8.48024">
        <ele>2291</ele>
        <time>2021-08-12T09:06:17.440Z</time>
      </trkpt>
      <trkpt lat="46.86343" lon="8.48024">
        <ele>2290</ele>
        <time>2021-08-12T09:06:18.440Z</time>
      </trkpt>
      <trkpt lat="46.86343" lon="8.48025">
        <ele>2290</ele>
        <time>2021-08-12T09:06:19.441Z</time>
      </trkpt>
      <trkpt lat="46.86342" lon="8.48026">
        <ele>2290</ele>
        <time>2021-08-12T09:06:20.440Z</time>
      </trkpt>
      <trkpt lat="46.86342" lon="8.48026">
        <ele>2290</ele>
        <time>2021-08-12T09:06:21.440Z</time>
      </trkpt>
      <trkpt lat="46.86341" lon="8.48027">
        <ele>2290</ele>
        <time>2021-08-12T09:06:22.440Z</time>
      </trkpt>
      <trkpt lat="46.8634" lon="8.48028">
        <ele>2290</ele>
        <time>2021-08-12T09:06:23.441Z</time>
      </trkpt>
      <trkpt lat="46.8634" lon="8.48029">
        <ele>2289</ele>
        <time>2021-08-12T09:06:24.441Z</time>
      </trkpt>
      <trkpt lat="46.8634" lon="8.4803">
        <ele>2289</ele>
        <time>2021-08-12T09:06:25.440Z</time>
      </trkpt>
      <trkpt lat="46.86339" lon="8.48031">
        <ele>2289</ele>
        <time>2021-08-12T09:06:26.440Z</time>
      </trkpt>
      <trkpt lat="46.86339" lon="8.48032">
        <ele>2289</ele>
        <time>2021-08-12T09:06:27.440Z</time>
      </trkpt>
      <trkpt lat="46.86339" lon="8.48034">
        <ele>2288</ele>
        <time>2021-08-12T09:06:28.441Z</time>
      </trkpt>
      <trkpt lat="46.86339" lon="8.48034">
        <ele>2288</ele>
        <time>2021-08-12T09:06:29.440Z</time>
      </trkpt>
      <trkpt lat="46.86339" lon="8.48036">
        <ele>2288</ele>
        <time>2021-08-12T09:06:30.440Z</time>
      </trkpt>
      <trkpt lat="46.86338" lon="8.48037">
        <ele>2287</ele>
        <time>2021-08-12T09:06:31.440Z</time>
      </trkpt>
      <trkpt lat="46.86338" lon="8.48037">
        <ele>2287</ele>
        <time>2021-08-12T09:06:32.440Z</time>
      </trkpt>
      <trkpt lat="46.86338" lon="8.48038">
        <ele>2287</ele>
        <time>2021-08-12T09:06:33.441Z</time>
      </trkpt>
      <trkpt lat="46.86337" lon="8.48039">
        <ele>2287</ele>
        <time>2021-08-12T09:06:34.440Z</time>
      </trkpt>
      <trkpt lat="46.86337" lon="8.48039">
        <ele>2286</ele>
        <time>2021-08-12T09:06:35.440Z</time>
      </trkpt>
      <trkpt lat="46.86337" lon="8.4804">
        <ele>2286</ele>
        <time>2021-08-12T09:06:36.441Z</time>
      </trkpt>
      <trkpt lat="46.86337" lon="8.48041">
        <ele>2286</ele>
        <time>2021-08-12T09:06:37.440Z</time>
      </trkpt>
      <trkpt lat="46.86337" lon="8.48042">
        <ele>2286</ele>
        <time>2021-08-12T09:06:38.441Z</time>
      </trkpt>
      <trkpt lat="46.86337" lon="8.48043">
        <ele>2286</ele>
        <time>2021-08-12T09:06:39.440Z</time>
      </trkpt>
      <trkpt lat="46.86337" lon="8.48043">
        <ele>2286</ele>
        <time>2021-08-12T09:06:40.440Z</time>
      </trkpt>
      <trkpt lat="46.86337" lon="8.48044">
        <ele>2286</ele>
        <time>2021-08-12T09:06:41.440Z</time>
      </trkpt>
      <trkpt lat="46.86337" lon="8.48045">
        <ele>2286</ele>
        <time>2021-08-12T09:06:42.440Z</time>
      </trkpt>
      <trkpt lat="46.86337" lon="8.48046">
        <ele>2287</ele>
        <time>2021-08-12T09:06:43.440Z</time>
      </trkpt>
      <trkpt lat="46.86338" lon="8.48048">
        <ele>2287</ele>
        <time>2021-08-12T09:06:44.441Z</time>
      </trkpt>
      <trkpt lat="46.86339" lon="8.48048">
        <ele>2288</ele>
        <time>2021-08-12T09:06:45.441Z</time>
      </trkpt>
      <trkpt lat="46.86339" lon="8.48049">
        <ele>2288</ele>
        <time>2021-08-12T09:06:46.441Z</time>
      </trkpt>
      <trkpt lat="46.86339" lon="8.48051">
        <ele>2288</ele>
        <time>2021-08-12T09:06:47.441Z</time>
      </trkpt>
      <trkpt lat="46.8634" lon="8.48051">
        <ele>2288</ele>
        <time>2021-08-12T09:06:48.440Z</time>
      </trkpt>
      <trkpt lat="46.8634" lon="8.48051">
        <ele>2289</ele>
        <time>2021-08-12T09:06:49.441Z</time>
      </trkpt>
      <trkpt lat="46.8634" lon="8.48052">
        <ele>2289</ele>
        <time>2021-08-12T09:06:50.441Z</time>
      </trkpt>
      <trkpt lat="46.86341" lon="8.48052">
        <ele>2289</ele>
        <time>2021-08-12T09:06:51.440Z</time>
      </trkpt>
      <trkpt lat="46.86341" lon="8.48053">
        <ele>2289</ele>
        <time>2021-08-12T09:06:52.440Z</time>
      </trkpt>
      <trkpt lat="46.86341" lon="8.48054">
        <ele>2290</ele>
        <time>2021-08-12T09:06:53.441Z</time>
      </trkpt>
      <trkpt lat="46.86341" lon="8.48055">
        <ele>2290</ele>
        <time>2021-08-12T09:06:54.440Z</time>
      </trkpt>
      <trkpt lat="46.8634" lon="8.48056">
        <ele>2290</ele>
        <time>2021-08-12T09:06:55.441Z</time>
      </trkpt>
      <trkpt lat="46.8634" lon="8.48057">
        <ele>2291</ele>
        <time>2021-08-12T09:06:56.440Z</time>
      </trkpt>
      <trkpt lat="46.8634" lon="8.48058">
        <ele>2291</ele>
        <time>2021-08-12T09:06:57.441Z</time>
      </trkpt>
      <trkpt lat="46.8634" lon="8.48059">
        <ele>2292</ele>
        <time>2021-08-12T09:06:58.441Z</time>
      </trkpt>
      <trkpt lat="46.8634" lon="8.4806">
        <ele>2292</ele>
        <time>2021-08-12T09:06:59.441Z</time>
      </trkpt>
      <trkpt lat="46.8634" lon="8.48062">
        <ele>2293</ele>
        <time>2021-08-12T09:07:00.440Z</time>
      </trkpt>
      <trkpt lat="46.86339" lon="8.48064">
        <ele>2293</ele>
        <time>2021-08-12T09:07:01.441Z</time>
      </trkpt>
      <trkpt lat="46.86339" lon="8.48065">
        <ele>2294</ele>
        <time>2021-08-12T09:07:02.441Z</time>
      </trkpt>
      <trkpt lat="46.86339" lon="8.48066">
        <ele>2294</ele>
        <time>2021-08-12T09:07:03.441Z</time>
      </trkpt>
      <trkpt lat="46.86339" lon="8.48068">
        <ele>2295</ele>
        <time>2021-08-12T09:07:04.440Z</time>
      </trkpt>
      <trkpt lat="46.86339" lon="8.48069">
        <ele>2295</ele>
        <time>2021-08-12T09:07:05.441Z</time>
      </trkpt>
      <trkpt lat="46.86339" lon="8.48071">
        <ele>2295</ele>
        <time>2021-08-12T09:07:06.441Z</time>
      </trkpt>
      <trkpt lat="46.86339" lon="8.48072">
        <ele>2295</ele>
        <time>2021-08-12T09:07:07.441Z</time>
      </trkpt>
      <trkpt lat="46.86339" lon="8.48074">
        <ele>2295</ele>
        <time>2021-08-12T09:07:08.441Z</time>
      </trkpt>
      <trkpt lat="46.86339" lon="8.48075">
        <ele>2295</ele>
        <time>2021-08-12T09:07:09.441Z</time>
      </trkpt>
      <trkpt lat="46.86339" lon="8.48076">
        <ele>2295</ele>
        <time>2021-08-12T09:07:10.441Z</time>
      </trkpt>
      <trkpt lat="46.86339" lon="8.48076">
        <ele>2295</ele>
        <time>2021-08-12T09:07:11.441Z</time>
      </trkpt>
      <trkpt lat="46.86339" lon="8.48077">
        <ele>2295</ele>
        <time>2021-08-12T09:07:12.440Z</time>
      </trkpt>
      <trkpt lat="46.86339" lon="8.48078">
        <ele>2295</ele>
        <time>2021-08-12T09:07:13.441Z</time>
      </trkpt>
      <trkpt lat="46.86339" lon="8.48079">
        <ele>2294</ele>
        <time>2021-08-12T09:07:14.441Z</time>
      </trkpt>
      <trkpt lat="46.86339" lon="8.48081">
        <ele>2294</ele>
        <time>2021-08-12T09:07:15.441Z</time>
      </trkpt>
      <trkpt lat="46.86339" lon="8.48082">
        <ele>2294</ele>
        <time>2021-08-12T09:07:16.441Z</time>
      </trkpt>
      <trkpt lat="46.86339" lon="8.48084">
        <ele>2294</ele>
        <time>2021-08-12T09:07:17.440Z</time>
      </trkpt>
      <trkpt lat="46.86339" lon="8.48086">
        <ele>2294</ele>
        <time>2021-08-12T09:07:18.440Z</time>
      </trkpt>
      <trkpt lat="46.86338" lon="8.48089">
        <ele>2294</ele>
        <time>2021-08-12T09:07:19.441Z</time>
      </trkpt>
      <trkpt lat="46.86338" lon="8.48093">
        <ele>2294</ele>
        <time>2021-08-12T09:07:20.441Z</time>
      </trkpt>
      <trkpt lat="46.86337" lon="8.48095">
        <ele>2294</ele>
        <time>2021-08-12T09:07:21.440Z</time>
      </trkpt>
      <trkpt lat="46.86337" lon="8.48096">
        <ele>2294</ele>
        <time>2021-08-12T09:07:22.441Z</time>
      </trkpt>
      <trkpt lat="46.86338" lon="8.48099">
        <ele>2294</ele>
        <time>2021-08-12T09:07:23.441Z</time>
      </trkpt>
      <trkpt lat="46.86337" lon="8.48101">
        <ele>2294</ele>
        <time>2021-08-12T09:07:24.440Z</time>
      </trkpt>
      <trkpt lat="46.86338" lon="8.48101">
        <ele>2293</ele>
        <time>2021-08-12T09:07:25.441Z</time>
      </trkpt>
      <trkpt lat="46.86338" lon="8.48103">
        <ele>2292</ele>
        <time>2021-08-12T09:07:26.440Z</time>
      </trkpt>
      <trkpt lat="46.86337" lon="8.48103">
        <ele>2292</ele>
        <time>2021-08-12T09:07:27.441Z</time>
      </trkpt>
      <trkpt lat="46.86336" lon="8.48104">
        <ele>2292</ele>
        <time>2021-08-12T09:07:28.440Z</time>
      </trkpt>
      <trkpt lat="46.86336" lon="8.48105">
        <ele>2292</ele>
        <time>2021-08-12T09:07:29.441Z</time>
      </trkpt>
      <trkpt lat="46.86336" lon="8.48106">
        <ele>2292</ele>
        <time>2021-08-12T09:07:30.441Z</time>
      </trkpt>
      <trkpt lat="46.86336" lon="8.48107">
        <ele>2292</ele>
        <time>2021-08-12T09:07:31.440Z</time>
      </trkpt>
      <trkpt lat="46.86336" lon="8.48108">
        <ele>2292</ele>
        <time>2021-08-12T09:07:32.441Z</time>
      </trkpt>
      <trkpt lat="46.86336" lon="8.48109">
        <ele>2292</ele>
        <time>2021-08-12T09:07:33.441Z</time>
      </trkpt>
      <trkpt lat="46.86337" lon="8.4811">
        <ele>2292</ele>
        <time>2021-08-12T09:07:34.441Z</time>
      </trkpt>
      <trkpt lat="46.86337" lon="8.48111">
        <ele>2293</ele>
        <time>2021-08-12T09:07:35.441Z</time>
      </trkpt>
      <trkpt lat="46.86337" lon="8.48112">
        <ele>2293</ele>
        <time>2021-08-12T09:07:36.440Z</time>
      </trkpt>
      <trkpt lat="46.86337" lon="8.48113">
        <ele>2293</ele>
        <time>2021-08-12T09:07:37.441Z</time>
      </trkpt>
      <trkpt lat="46.86337" lon="8.48115">
        <ele>2293</ele>
        <time>2021-08-12T09:07:38.441Z</time>
      </trkpt>
      <trkpt lat="46.86337" lon="8.48115">
        <ele>2293</ele>
        <time>2021-08-12T09:07:39.440Z</time>
      </trkpt>
      <trkpt lat="46.86337" lon="8.48116">
        <ele>2292</ele>
        <time>2021-08-12T09:07:40.440Z</time>
      </trkpt>
      <trkpt lat="46.86337" lon="8.48117">
        <ele>2292</ele>
        <time>2021-08-12T09:07:41.441Z</time>
      </trkpt>
      <trkpt lat="46.86337" lon="8.48118">
        <ele>2292</ele>
        <time>2021-08-12T09:07:42.440Z</time>
      </trkpt>
      <trkpt lat="46.86338" lon="8.48119">
        <ele>2292</ele>
        <time>2021-08-12T09:07:43.440Z</time>
      </trkpt>
      <trkpt lat="46.86338" lon="8.4812">
        <ele>2293</ele>
        <time>2021-08-12T09:07:44.441Z</time>
      </trkpt>
      <trkpt lat="46.86338" lon="8.48121">
        <ele>2293</ele>
        <time>2021-08-12T09:07:45.441Z</time>
      </trkpt>
      <trkpt lat="46.86338" lon="8.48122">
        <ele>2293</ele>
        <time>2021-08-12T09:07:46.441Z</time>
      </trkpt>
      <trkpt lat="46.86339" lon="8.48122">
        <ele>2293</ele>
        <time>2021-08-12T09:07:47.441Z</time>
      </trkpt>
      <trkpt lat="46.86339" lon="8.48123">
        <ele>2293</ele>
        <time>2021-08-12T09:07:48.441Z</time>
      </trkpt>
      <trkpt lat="46.86339" lon="8.48124">
        <ele>2293</ele>
        <time>2021-08-12T09:07:49.441Z</time>
      </trkpt>
      <trkpt lat="46.8634" lon="8.48124">
        <ele>2293</ele>
        <time>2021-08-12T09:07:50.441Z</time>
      </trkpt>
      <trkpt lat="46.8634" lon="8.48123">
        <ele>2293</ele>
        <time>2021-08-12T09:07:51.440Z</time>
      </trkpt>
      <trkpt lat="46.86341" lon="8.48122">
        <ele>2293</ele>
        <time>2021-08-12T09:07:52.441Z</time>
      </trkpt>
      <trkpt lat="46.86341" lon="8.48121">
        <ele>2293</ele>
        <time>2021-08-12T09:07:53.441Z</time>
      </trkpt>
      <trkpt lat="46.86342" lon="8.48123">
        <ele>2294</ele>
        <time>2021-08-12T09:07:54.441Z</time>
      </trkpt>
      <trkpt lat="46.86342" lon="8.48123">
        <ele>2294</ele>
        <time>2021-08-12T09:07:55.441Z</time>
      </trkpt>
      <trkpt lat="46.86342" lon="8.48123">
        <ele>2294</ele>
        <time>2021-08-12T09:07:56.441Z</time>
      </trkpt>
      <trkpt lat="46.86342" lon="8.48123">
        <ele>2294</ele>
        <time>2021-08-12T09:07:57.441Z</time>
      </trkpt>
      <trkpt lat="46.86341" lon="8.48121">
        <ele>2294</ele>
        <time>2021-08-12T09:07:58.442Z</time>
      </trkpt>
      <trkpt lat="46.8634" lon="8.4812">
        <ele>2294</ele>
        <time>2021-08-12T09:07:59.442Z</time>
      </trkpt>
      <trkpt lat="46.8634" lon="8.4812">
        <ele>2294</ele>
        <time>2021-08-12T09:08:00.443Z</time>
      </trkpt>
      <trkpt lat="46.8634" lon="8.4812">
        <ele>2294</ele>
        <time>2021-08-12T09:08:01.442Z</time>
      </trkpt>
      <trkpt lat="46.8634" lon="8.48119">
        <ele>2294</ele>
        <time>2021-08-12T09:08:02.442Z</time>
      </trkpt>
      <trkpt lat="46.8634" lon="8.48119">
        <ele>2294</ele>
        <time>2021-08-12T09:08:03.442Z</time>
      </trkpt>
      <trkpt lat="46.8634" lon="8.48119">
        <ele>2294</ele>
        <time>2021-08-12T09:08:04.443Z</time>
      </trkpt>
      <trkpt lat="46.8634" lon="8.48123">
        <ele>2294</ele>
        <time>2021-08-12T09:08:05.444Z</time>
      </trkpt>
      <trkpt lat="46.8634" lon="8.48124">
        <ele>2294</ele>
        <time>2021-08-12T09:08:06.444Z</time>
      </trkpt>
      <trkpt lat="46.8634" lon="8.48125">
        <ele>2293</ele>
        <time>2021-08-12T09:08:07.443Z</time>
      </trkpt>
      <trkpt lat="46.86341" lon="8.48127">
        <ele>2293</ele>
        <time>2021-08-12T09:08:08.443Z</time>
      </trkpt>
      <trkpt lat="46.86341" lon="8.48128">
        <ele>2293</ele>
        <time>2021-08-12T09:08:09.444Z</time>
      </trkpt>
      <trkpt lat="46.86342" lon="8.48128">
        <ele>2293</ele>
        <time>2021-08-12T09:08:10.444Z</time>
      </trkpt>
      <trkpt lat="46.86342" lon="8.48128">
        <ele>2293</ele>
        <time>2021-08-12T09:08:11.443Z</time>
      </trkpt>
      <trkpt lat="46.86343" lon="8.48128">
        <ele>2293</ele>
        <time>2021-08-12T09:08:12.444Z</time>
      </trkpt>
      <trkpt lat="46.86343" lon="8.48129">
        <ele>2293</ele>
        <time>2021-08-12T09:08:13.443Z</time>
      </trkpt>
      <trkpt lat="46.86343" lon="8.48131">
        <ele>2294</ele>
        <time>2021-08-12T09:08:14.444Z</time>
      </trkpt>
      <trkpt lat="46.86344" lon="8.48132">
        <ele>2294</ele>
        <time>2021-08-12T09:08:15.444Z</time>
      </trkpt>
      <trkpt lat="46.86344" lon="8.48132">
        <ele>2294</ele>
        <time>2021-08-12T09:08:16.443Z</time>
      </trkpt>
      <trkpt lat="46.86344" lon="8.48133">
        <ele>2294</ele>
        <time>2021-08-12T09:08:17.443Z</time>
      </trkpt>
      <trkpt lat="46.86344" lon="8.48134">
        <ele>2295</ele>
        <time>2021-08-12T09:08:18.443Z</time>
      </trkpt>
      <trkpt lat="46.86344" lon="8.48134">
        <ele>2295</ele>
        <time>2021-08-12T09:08:19.443Z</time>
      </trkpt>
      <trkpt lat="46.86344" lon="8.48135">
        <ele>2295</ele>
        <time>2021-08-12T09:08:20.443Z</time>
      </trkpt>
      <trkpt lat="46.86344" lon="8.48136">
        <ele>2296</ele>
        <time>2021-08-12T09:08:21.443Z</time>
      </trkpt>
      <trkpt lat="46.86344" lon="8.48136">
        <ele>2296</ele>
        <time>2021-08-12T09:08:22.443Z</time>
      </trkpt>
      <trkpt lat="46.86344" lon="8.48137">
        <ele>2296</ele>
        <time>2021-08-12T09:08:23.443Z</time>
      </trkpt>
      <trkpt lat="46.86343" lon="8.48138">
        <ele>2296</ele>
        <time>2021-08-12T09:08:24.443Z</time>
      </trkpt>
      <trkpt lat="46.86343" lon="8.48139">
        <ele>2296</ele>
        <time>2021-08-12T09:08:25.444Z</time>
      </trkpt>
      <trkpt lat="46.86343" lon="8.4814">
        <ele>2296</ele>
        <time>2021-08-12T09:08:26.444Z</time>
      </trkpt>
      <trkpt lat="46.86343" lon="8.4814">
        <ele>2296</ele>
        <time>2021-08-12T09:08:27.444Z</time>
      </trkpt>
      <trkpt lat="46.86343" lon="8.48141">
        <ele>2296</ele>
        <time>2021-08-12T09:08:28.444Z</time>
      </trkpt>
      <trkpt lat="46.86343" lon="8.48142">
        <ele>2296</ele>
        <time>2021-08-12T09:08:29.444Z</time>
      </trkpt>
      <trkpt lat="46.86343" lon="8.48143">
        <ele>2296</ele>
        <time>2021-08-12T09:08:30.444Z</time>
      </trkpt>
      <trkpt lat="46.86343" lon="8.48143">
        <ele>2297</ele>
        <time>2021-08-12T09:08:31.444Z</time>
      </trkpt>
      <trkpt lat="46.86342" lon="8.48144">
        <ele>2297</ele>
        <time>2021-08-12T09:08:32.443Z</time>
      </trkpt>
      <trkpt lat="46.86342" lon="8.48144">
        <ele>2297</ele>
        <time>2021-08-12T09:08:33.444Z</time>
      </trkpt>
      <trkpt lat="46.86342" lon="8.48144">
        <ele>2297</ele>
        <time>2021-08-12T09:08:34.444Z</time>
      </trkpt>
      <trkpt lat="46.86342" lon="8.48145">
        <ele>2298</ele>
        <time>2021-08-12T09:08:35.443Z</time>
      </trkpt>
      <trkpt lat="46.86341" lon="8.48146">
        <ele>2299</ele>
        <time>2021-08-12T09:08:36.444Z</time>
      </trkpt>
      <trkpt lat="46.86341" lon="8.48147">
        <ele>2299</ele>
        <time>2021-08-12T09:08:37.444Z</time>
      </trkpt>
      <trkpt lat="46.86341" lon="8.48147">
        <ele>2300</ele>
        <time>2021-08-12T09:08:38.443Z</time>
      </trkpt>
      <trkpt lat="46.86341" lon="8.48148">
        <ele>2301</ele>
        <time>2021-08-12T09:08:39.443Z</time>
      </trkpt>
      <trkpt lat="46.8634" lon="8.48149">
        <ele>2301</ele>
        <time>2021-08-12T09:08:40.444Z</time>
      </trkpt>
      <trkpt lat="46.8634" lon="8.48149">
        <ele>2302</ele>
        <time>2021-08-12T09:08:41.444Z</time>
      </trkpt>
      <trkpt lat="46.8634" lon="8.48149">
        <ele>2302</ele>
        <time>2021-08-12T09:08:42.443Z</time>
      </trkpt>
      <trkpt lat="46.8634" lon="8.48149">
        <ele>2302</ele>
        <time>2021-08-12T09:08:43.444Z</time>
      </trkpt>
      <trkpt lat="46.8634" lon="8.4815">
        <ele>2303</ele>
        <time>2021-08-12T09:08:44.443Z</time>
      </trkpt>
      <trkpt lat="46.8634" lon="8.48151">
        <ele>2303</ele>
        <time>2021-08-12T09:08:45.443Z</time>
      </trkpt>
      <trkpt lat="46.8634" lon="8.48152">
        <ele>2302</ele>
        <time>2021-08-12T09:08:46.443Z</time>
      </trkpt>
      <trkpt lat="46.86341" lon="8.48153">
        <ele>2302</ele>
        <time>2021-08-12T09:08:47.444Z</time>
      </trkpt>
      <trkpt lat="46.86342" lon="8.48153">
        <ele>2302</ele>
        <time>2021-08-12T09:08:48.443Z</time>
      </trkpt>
      <trkpt lat="46.86343" lon="8.48153">
        <ele>2302</ele>
        <time>2021-08-12T09:08:49.443Z</time>
      </trkpt>
      <trkpt lat="46.86343" lon="8.48154">
        <ele>2303</ele>
        <time>2021-08-12T09:08:50.444Z</time>
      </trkpt>
      <trkpt lat="46.86343" lon="8.48155">
        <ele>2303</ele>
        <time>2021-08-12T09:08:51.443Z</time>
      </trkpt>
      <trkpt lat="46.86343" lon="8.48156">
        <ele>2304</ele>
        <time>2021-08-12T09:08:52.443Z</time>
      </trkpt>
      <trkpt lat="46.86342" lon="8.48156">
        <ele>2304</ele>
        <time>2021-08-12T09:08:53.444Z</time>
      </trkpt>
      <trkpt lat="46.86342" lon="8.48157">
        <ele>2304</ele>
        <time>2021-08-12T09:08:54.444Z</time>
      </trkpt>
      <trkpt lat="46.86341" lon="8.48157">
        <ele>2305</ele>
        <time>2021-08-12T09:08:55.444Z</time>
      </trkpt>
      <trkpt lat="46.8634" lon="8.48158">
        <ele>2305</ele>
        <time>2021-08-12T09:08:56.443Z</time>
      </trkpt>
      <trkpt lat="46.8634" lon="8.48159">
        <ele>2305</ele>
        <time>2021-08-12T09:08:57.444Z</time>
      </trkpt>
      <trkpt lat="46.8634" lon="8.4816">
        <ele>2305</ele>
        <time>2021-08-12T09:08:58.443Z</time>
      </trkpt>
      <trkpt lat="46.86341" lon="8.48161">
        <ele>2305</ele>
        <time>2021-08-12T09:08:59.443Z</time>
      </trkpt>
      <trkpt lat="46.86341" lon="8.48161">
        <ele>2305</ele>
        <time>2021-08-12T09:09:00.444Z</time>
      </trkpt>
      <trkpt lat="46.86341" lon="8.48162">
        <ele>2306</ele>
        <time>2021-08-12T09:09:01.443Z</time>
      </trkpt>
      <trkpt lat="46.86341" lon="8.48163">
        <ele>2306</ele>
        <time>2021-08-12T09:09:02.444Z</time>
      </trkpt>
      <trkpt lat="46.8634" lon="8.48164">
        <ele>2306</ele>
        <time>2021-08-12T09:09:03.444Z</time>
      </trkpt>
      <trkpt lat="46.86339" lon="8.48165">
        <ele>2307</ele>
        <time>2021-08-12T09:09:04.443Z</time>
      </trkpt>
      <trkpt lat="46.86338" lon="8.48165">
        <ele>2307</ele>
        <time>2021-08-12T09:09:05.443Z</time>
      </trkpt>
      <trkpt lat="46.86338" lon="8.48166">
        <ele>2308</ele>
        <time>2021-08-12T09:09:06.443Z</time>
      </trkpt>
      <trkpt lat="46.86338" lon="8.48166">
        <ele>2308</ele>
        <time>2021-08-12T09:09:07.443Z</time>
      </trkpt>
      <trkpt lat="46.86338" lon="8.48167">
        <ele>2309</ele>
        <time>2021-08-12T09:09:08.443Z</time>
      </trkpt>
      <trkpt lat="46.86339" lon="8.48167">
        <ele>2309</ele>
        <time>2021-08-12T09:09:09.443Z</time>
      </trkpt>
      <trkpt lat="46.86339" lon="8.48168">
        <ele>2309</ele>
        <time>2021-08-12T09:09:10.444Z</time>
      </trkpt>
      <trkpt lat="46.86339" lon="8.48169">
        <ele>2309</ele>
        <time>2021-08-12T09:09:11.443Z</time>
      </trkpt>
      <trkpt lat="46.86339" lon="8.48169">
        <ele>2309</ele>
        <time>2021-08-12T09:09:12.444Z</time>
      </trkpt>
      <trkpt lat="46.86338" lon="8.48169">
        <ele>2309</ele>
        <time>2021-08-12T09:09:13.444Z</time>
      </trkpt>
      <trkpt lat="46.86338" lon="8.4817">
        <ele>2309</ele>
        <time>2021-08-12T09:09:14.443Z</time>
      </trkpt>
      <trkpt lat="46.86337" lon="8.48171">
        <ele>2309</ele>
        <time>2021-08-12T09:09:15.443Z</time>
      </trkpt>
      <trkpt lat="46.86337" lon="8.48172">
        <ele>2309</ele>
        <time>2021-08-12T09:09:16.444Z</time>
      </trkpt>
      <trkpt lat="46.86337" lon="8.48173">
        <ele>2309</ele>
        <time>2021-08-12T09:09:17.444Z</time>
      </trkpt>
      <trkpt lat="46.86337" lon="8.48174">
        <ele>2309</ele>
        <time>2021-08-12T09:09:18.444Z</time>
      </trkpt>
      <trkpt lat="46.86337" lon="8.48174">
        <ele>2310</ele>
        <time>2021-08-12T09:09:19.443Z</time>
      </trkpt>
      <trkpt lat="46.86337" lon="8.48174">
        <ele>2310</ele>
        <time>2021-08-12T09:09:20.444Z</time>
      </trkpt>
      <trkpt lat="46.86337" lon="8.48175">
        <ele>2311</ele>
        <time>2021-08-12T09:09:21.444Z</time>
      </trkpt>
      <trkpt lat="46.86338" lon="8.48175">
        <ele>2312</ele>
        <time>2021-08-12T09:09:22.444Z</time>
      </trkpt>
      <trkpt lat="46.86338" lon="8.48175">
        <ele>2312</ele>
        <time>2021-08-12T09:09:23.444Z</time>
      </trkpt>
      <trkpt lat="46.86338" lon="8.48176">
        <ele>2313</ele>
        <time>2021-08-12T09:09:24.443Z</time>
      </trkpt>
      <trkpt lat="46.86338" lon="8.48177">
        <ele>2313</ele>
        <time>2021-08-12T09:09:25.444Z</time>
      </trkpt>
      <trkpt lat="46.86338" lon="8.48178">
        <ele>2312</ele>
        <time>2021-08-12T09:09:26.443Z</time>
      </trkpt>
      <trkpt lat="46.86337" lon="8.48178">
        <ele>2312</ele>
        <time>2021-08-12T09:09:27.444Z</time>
      </trkpt>
      <trkpt lat="46.86337" lon="8.48179">
        <ele>2312</ele>
        <time>2021-08-12T09:09:28.444Z</time>
      </trkpt>
      <trkpt lat="46.86337" lon="8.4818">
        <ele>2312</ele>
        <time>2021-08-12T09:09:29.443Z</time>
      </trkpt>
      <trkpt lat="46.86337" lon="8.48181">
        <ele>2311</ele>
        <time>2021-08-12T09:09:30.444Z</time>
      </trkpt>
      <trkpt lat="46.86336" lon="8.48181">
        <ele>2311</ele>
        <time>2021-08-12T09:09:31.444Z</time>
      </trkpt>
      <trkpt lat="46.86335" lon="8.48182">
        <ele>2311</ele>
        <time>2021-08-12T09:09:32.443Z</time>
      </trkpt>
      <trkpt lat="46.86334" lon="8.48183">
        <ele>2311</ele>
        <time>2021-08-12T09:09:33.443Z</time>
      </trkpt>
      <trkpt lat="46.86334" lon="8.48183">
        <ele>2311</ele>
        <time>2021-08-12T09:09:34.444Z</time>
      </trkpt>
      <trkpt lat="46.86334" lon="8.48183">
        <ele>2311</ele>
        <time>2021-08-12T09:09:35.444Z</time>
      </trkpt>
      <trkpt lat="46.86334" lon="8.48184">
        <ele>2311</ele>
        <time>2021-08-12T09:09:36.444Z</time>
      </trkpt>
      <trkpt lat="46.86334" lon="8.48183">
        <ele>2311</ele>
        <time>2021-08-12T09:09:37.443Z</time>
      </trkpt>
      <trkpt lat="46.86334" lon="8.48184">
        <ele>2312</ele>
        <time>2021-08-12T09:09:38.444Z</time>
      </trkpt>
      <trkpt lat="46.86334" lon="8.48184">
        <ele>2312</ele>
        <time>2021-08-12T09:09:39.444Z</time>
      </trkpt>
      <trkpt lat="46.86334" lon="8.48185">
        <ele>2312</ele>
        <time>2021-08-12T09:09:40.445Z</time>
      </trkpt>
      <trkpt lat="46.86335" lon="8.48185">
        <ele>2312</ele>
        <time>2021-08-12T09:09:41.445Z</time>
      </trkpt>
      <trkpt lat="46.86335" lon="8.48186">
        <ele>2312</ele>
        <time>2021-08-12T09:09:42.444Z</time>
      </trkpt>
      <trkpt lat="46.86335" lon="8.48186">
        <ele>2312</ele>
        <time>2021-08-12T09:09:43.444Z</time>
      </trkpt>
      <trkpt lat="46.86334" lon="8.48187">
        <ele>2312</ele>
        <time>2021-08-12T09:09:44.445Z</time>
      </trkpt>
      <trkpt lat="46.86334" lon="8.48187">
        <ele>2312</ele>
        <time>2021-08-12T09:09:45.445Z</time>
      </trkpt>
      <trkpt lat="46.86333" lon="8.48188">
        <ele>2312</ele>
        <time>2021-08-12T09:09:46.445Z</time>
      </trkpt>
      <trkpt lat="46.86332" lon="8.48189">
        <ele>2312</ele>
        <time>2021-08-12T09:09:47.445Z</time>
      </trkpt>
      <trkpt lat="46.86331" lon="8.4819">
        <ele>2312</ele>
        <time>2021-08-12T09:09:48.445Z</time>
      </trkpt>
      <trkpt lat="46.86331" lon="8.4819">
        <ele>2312</ele>
        <time>2021-08-12T09:09:49.445Z</time>
      </trkpt>
      <trkpt lat="46.86331" lon="8.4819">
        <ele>2313</ele>
        <time>2021-08-12T09:09:50.445Z</time>
      </trkpt>
      <trkpt lat="46.86332" lon="8.4819">
        <ele>2313</ele>
        <time>2021-08-12T09:09:51.444Z</time>
      </trkpt>
      <trkpt lat="46.86332" lon="8.48191">
        <ele>2313</ele>
        <time>2021-08-12T09:09:52.445Z</time>
      </trkpt>
      <trkpt lat="46.86331" lon="8.48191">
        <ele>2314</ele>
        <time>2021-08-12T09:09:53.444Z</time>
      </trkpt>
      <trkpt lat="46.86331" lon="8.48192">
        <ele>2314</ele>
        <time>2021-08-12T09:09:54.445Z</time>
      </trkpt>
      <trkpt lat="46.86331" lon="8.48192">
        <ele>2314</ele>
        <time>2021-08-12T09:09:55.444Z</time>
      </trkpt>
      <trkpt lat="46.86331" lon="8.48193">
        <ele>2315</ele>
        <time>2021-08-12T09:09:56.444Z</time>
      </trkpt>
      <trkpt lat="46.8633" lon="8.48194">
        <ele>2315</ele>
        <time>2021-08-12T09:09:57.445Z</time>
      </trkpt>
      <trkpt lat="46.8633" lon="8.48195">
        <ele>2315</ele>
        <time>2021-08-12T09:09:58.445Z</time>
      </trkpt>
      <trkpt lat="46.8633" lon="8.48196">
        <ele>2315</ele>
        <time>2021-08-12T09:09:59.444Z</time>
      </trkpt>
      <trkpt lat="46.8633" lon="8.48197">
        <ele>2315</ele>
        <time>2021-08-12T09:10:00.445Z</time>
      </trkpt>
      <trkpt lat="46.8633" lon="8.48197">
        <ele>2315</ele>
        <time>2021-08-12T09:10:01.445Z</time>
      </trkpt>
      <trkpt lat="46.86329" lon="8.48198">
        <ele>2316</ele>
        <time>2021-08-12T09:10:02.444Z</time>
      </trkpt>
      <trkpt lat="46.86328" lon="8.48199">
        <ele>2316</ele>
        <time>2021-08-12T09:10:03.445Z</time>
      </trkpt>
      <trkpt lat="46.86328" lon="8.48199">
        <ele>2316</ele>
        <time>2021-08-12T09:10:04.445Z</time>
      </trkpt>
      <trkpt lat="46.86328" lon="8.482">
        <ele>2316</ele>
        <time>2021-08-12T09:10:05.444Z</time>
      </trkpt>
      <trkpt lat="46.86328" lon="8.482">
        <ele>2316</ele>
        <time>2021-08-12T09:10:06.445Z</time>
      </trkpt>
      <trkpt lat="46.86328" lon="8.48201">
        <ele>2316</ele>
        <time>2021-08-12T09:10:07.445Z</time>
      </trkpt>
      <trkpt lat="46.86329" lon="8.482">
        <ele>2316</ele>
        <time>2021-08-12T09:10:08.444Z</time>
      </trkpt>
      <trkpt lat="46.86329" lon="8.482">
        <ele>2317</ele>
        <time>2021-08-12T09:10:09.445Z</time>
      </trkpt>
      <trkpt lat="46.8633" lon="8.482">
        <ele>2317</ele>
        <time>2021-08-12T09:10:10.445Z</time>
      </trkpt>
      <trkpt lat="46.8633" lon="8.48201">
        <ele>2317</ele>
        <time>2021-08-12T09:10:11.444Z</time>
      </trkpt>
      <trkpt lat="46.8633" lon="8.48201">
        <ele>2318</ele>
        <time>2021-08-12T09:10:12.444Z</time>
      </trkpt>
      <trkpt lat="46.86329" lon="8.48202">
        <ele>2318</ele>
        <time>2021-08-12T09:10:13.444Z</time>
      </trkpt>
      <trkpt lat="46.86328" lon="8.48203">
        <ele>2318</ele>
        <time>2021-08-12T09:10:14.444Z</time>
      </trkpt>
      <trkpt lat="46.86329" lon="8.48206">
        <ele>2318</ele>
        <time>2021-08-12T09:10:15.445Z</time>
      </trkpt>
      <trkpt lat="46.86329" lon="8.48207">
        <ele>2318</ele>
        <time>2021-08-12T09:10:16.444Z</time>
      </trkpt>
      <trkpt lat="46.86329" lon="8.48208">
        <ele>2318</ele>
        <time>2021-08-12T09:10:17.444Z</time>
      </trkpt>
      <trkpt lat="46.86329" lon="8.48209">
        <ele>2318</ele>
        <time>2021-08-12T09:10:18.445Z</time>
      </trkpt>
      <trkpt lat="46.86329" lon="8.4821">
        <ele>2319</ele>
        <time>2021-08-12T09:10:19.444Z</time>
      </trkpt>
      <trkpt lat="46.86329" lon="8.4821">
        <ele>2319</ele>
        <time>2021-08-12T09:10:20.444Z</time>
      </trkpt>
      <trkpt lat="46.86329" lon="8.48211">
        <ele>2319</ele>
        <time>2021-08-12T09:10:21.445Z</time>
      </trkpt>
      <trkpt lat="46.86329" lon="8.48211">
        <ele>2318</ele>
        <time>2021-08-12T09:10:22.445Z</time>
      </trkpt>
      <trkpt lat="46.86329" lon="8.48212">
        <ele>2318</ele>
        <time>2021-08-12T09:10:23.444Z</time>
      </trkpt>
      <trkpt lat="46.86328" lon="8.48213">
        <ele>2318</ele>
        <time>2021-08-12T09:10:24.444Z</time>
      </trkpt>
      <trkpt lat="46.86327" lon="8.48214">
        <ele>2318</ele>
        <time>2021-08-12T09:10:25.444Z</time>
      </trkpt>
      <trkpt lat="46.86327" lon="8.48215">
        <ele>2318</ele>
        <time>2021-08-12T09:10:26.444Z</time>
      </trkpt>
      <trkpt lat="46.86326" lon="8.48216">
        <ele>2318</ele>
        <time>2021-08-12T09:10:27.445Z</time>
      </trkpt>
      <trkpt lat="46.86327" lon="8.48217">
        <ele>2318</ele>
        <time>2021-08-12T09:10:28.444Z</time>
      </trkpt>
      <trkpt lat="46.86327" lon="8.48217">
        <ele>2318</ele>
        <time>2021-08-12T09:10:29.444Z</time>
      </trkpt>
      <trkpt lat="46.86328" lon="8.48216">
        <ele>2319</ele>
        <time>2021-08-12T09:10:30.445Z</time>
      </trkpt>
      <trkpt lat="46.86329" lon="8.48216">
        <ele>2319</ele>
        <time>2021-08-12T09:10:31.445Z</time>
      </trkpt>
      <trkpt lat="46.86328" lon="8.48217">
        <ele>2321</ele>
        <time>2021-08-12T09:10:32.445Z</time>
      </trkpt>
      <trkpt lat="46.86327" lon="8.48217">
        <ele>2321</ele>
        <time>2021-08-12T09:10:33.446Z</time>
      </trkpt>
      <trkpt lat="46.86327" lon="8.48218">
        <ele>2321</ele>
        <time>2021-08-12T09:10:34.445Z</time>
      </trkpt>
      <trkpt lat="46.86328" lon="8.4822">
        <ele>2325</ele>
        <time>2021-08-12T09:10:35.445Z</time>
      </trkpt>
      <trkpt lat="46.86328" lon="8.4822">
        <ele>2325</ele>
        <time>2021-08-12T09:10:36.445Z</time>
      </trkpt>
      <trkpt lat="46.86328" lon="8.48221">
        <ele>2325</ele>
        <time>2021-08-12T09:10:37.446Z</time>
      </trkpt>
      <trkpt lat="46.86327" lon="8.48222">
        <ele>2326</ele>
        <time>2021-08-12T09:10:38.445Z</time>
      </trkpt>
      <trkpt lat="46.86327" lon="8.48222">
        <ele>2326</ele>
        <time>2021-08-12T09:10:39.445Z</time>
      </trkpt>
      <trkpt lat="46.86327" lon="8.48222">
        <ele>2326</ele>
        <time>2021-08-12T09:10:40.446Z</time>
      </trkpt>
      <trkpt lat="46.86327" lon="8.48223">
        <ele>2327</ele>
        <time>2021-08-12T09:10:41.447Z</time>
      </trkpt>
      <trkpt lat="46.86327" lon="8.48224">
        <ele>2328</ele>
        <time>2021-08-12T09:10:42.447Z</time>
      </trkpt>
      <trkpt lat="46.86326" lon="8.48225">
        <ele>2328</ele>
        <time>2021-08-12T09:10:43.447Z</time>
      </trkpt>
      <trkpt lat="46.86326" lon="8.48225">
        <ele>2327</ele>
        <time>2021-08-12T09:10:44.446Z</time>
      </trkpt>
      <trkpt lat="46.86327" lon="8.48226">
        <ele>2327</ele>
        <time>2021-08-12T09:10:45.447Z</time>
      </trkpt>
      <trkpt lat="46.86327" lon="8.48226">
        <ele>2327</ele>
        <time>2021-08-12T09:10:46.447Z</time>
      </trkpt>
      <trkpt lat="46.86328" lon="8.48226">
        <ele>2327</ele>
        <time>2021-08-12T09:10:47.446Z</time>
      </trkpt>
      <trkpt lat="46.86328" lon="8.48227">
        <ele>2326</ele>
        <time>2021-08-12T09:10:48.446Z</time>
      </trkpt>
      <trkpt lat="46.86328" lon="8.48227">
        <ele>2326</ele>
        <time>2021-08-12T09:10:49.447Z</time>
      </trkpt>
      <trkpt lat="46.86328" lon="8.48228">
        <ele>2326</ele>
        <time>2021-08-12T09:10:50.447Z</time>
      </trkpt>
      <trkpt lat="46.86327" lon="8.48229">
        <ele>2326</ele>
        <time>2021-08-12T09:10:51.446Z</time>
      </trkpt>
      <trkpt lat="46.86326" lon="8.48229">
        <ele>2326</ele>
        <time>2021-08-12T09:10:52.447Z</time>
      </trkpt>
      <trkpt lat="46.86325" lon="8.48231">
        <ele>2325</ele>
        <time>2021-08-12T09:10:53.446Z</time>
      </trkpt>
      <trkpt lat="46.86325" lon="8.48232">
        <ele>2325</ele>
        <time>2021-08-12T09:10:54.447Z</time>
      </trkpt>
      <trkpt lat="46.86324" lon="8.48233">
        <ele>2324</ele>
        <time>2021-08-12T09:10:55.446Z</time>
      </trkpt>
      <trkpt lat="46.86324" lon="8.48234">
        <ele>2324</ele>
        <time>2021-08-12T09:10:56.447Z</time>
      </trkpt>
      <trkpt lat="46.86325" lon="8.48235">
        <ele>2323</ele>
        <time>2021-08-12T09:10:57.447Z</time>
      </trkpt>
      <trkpt lat="46.86325" lon="8.48236">
        <ele>2323</ele>
        <time>2021-08-12T09:10:58.447Z</time>
      </trkpt>
      <trkpt lat="46.86325" lon="8.48236">
        <ele>2322</ele>
        <time>2021-08-12T09:10:59.446Z</time>
      </trkpt>
      <trkpt lat="46.86325" lon="8.48237">
        <ele>2321</ele>
        <time>2021-08-12T09:11:00.447Z</time>
      </trkpt>
      <trkpt lat="46.86324" lon="8.48238">
        <ele>2321</ele>
        <time>2021-08-12T09:11:01.447Z</time>
      </trkpt>
      <trkpt lat="46.86324" lon="8.48238">
        <ele>2321</ele>
        <time>2021-08-12T09:11:02.446Z</time>
      </trkpt>
      <trkpt lat="46.86324" lon="8.48239">
        <ele>2321</ele>
        <time>2021-08-12T09:11:03.446Z</time>
      </trkpt>
      <trkpt lat="46.86323" lon="8.48239">
        <ele>2321</ele>
        <time>2021-08-12T09:11:04.446Z</time>
      </trkpt>
      <trkpt lat="46.86323" lon="8.48239">
        <ele>2322</ele>
        <time>2021-08-12T09:11:05.446Z</time>
      </trkpt>
      <trkpt lat="46.86322" lon="8.4824">
        <ele>2323</ele>
        <time>2021-08-12T09:11:06.447Z</time>
      </trkpt>
      <trkpt lat="46.86321" lon="8.4824">
        <ele>2324</ele>
        <time>2021-08-12T09:11:07.447Z</time>
      </trkpt>
      <trkpt lat="46.8632" lon="8.48241">
        <ele>2324</ele>
        <time>2021-08-12T09:11:08.447Z</time>
      </trkpt>
      <trkpt lat="46.8632" lon="8.48242">
        <ele>2325</ele>
        <time>2021-08-12T09:11:09.447Z</time>
      </trkpt>
      <trkpt lat="46.86318" lon="8.48243">
        <ele>2325</ele>
        <time>2021-08-12T09:11:10.447Z</time>
      </trkpt>
      <trkpt lat="46.86318" lon="8.48244">
        <ele>2326</ele>
        <time>2021-08-12T09:11:11.447Z</time>
      </trkpt>
      <trkpt lat="46.86317" lon="8.48245">
        <ele>2326</ele>
        <time>2021-08-12T09:11:12.447Z</time>
      </trkpt>
      <trkpt lat="46.86317" lon="8.48246">
        <ele>2326</ele>
        <time>2021-08-12T09:11:13.447Z</time>
      </trkpt>
      <trkpt lat="46.86317" lon="8.48246">
        <ele>2326</ele>
        <time>2021-08-12T09:11:14.446Z</time>
      </trkpt>
      <trkpt lat="46.86316" lon="8.48246">
        <ele>2326</ele>
        <time>2021-08-12T09:11:15.447Z</time>
      </trkpt>
      <trkpt lat="46.86316" lon="8.48247">
        <ele>2327</ele>
        <time>2021-08-12T09:11:16.447Z</time>
      </trkpt>
      <trkpt lat="46.86315" lon="8.48248">
        <ele>2327</ele>
        <time>2021-08-12T09:11:17.446Z</time>
      </trkpt>
      <trkpt lat="46.86316" lon="8.48248">
        <ele>2328</ele>
        <time>2021-08-12T09:11:18.447Z</time>
      </trkpt>
      <trkpt lat="46.86315" lon="8.48248">
        <ele>2328</ele>
        <time>2021-08-12T09:11:19.447Z</time>
      </trkpt>
      <trkpt lat="46.86315" lon="8.48249">
        <ele>2329</ele>
        <time>2021-08-12T09:11:20.447Z</time>
      </trkpt>
      <trkpt lat="46.86314" lon="8.48251">
        <ele>2329</ele>
        <time>2021-08-12T09:11:21.447Z</time>
      </trkpt>
      <trkpt lat="46.86313" lon="8.48252">
        <ele>2329</ele>
        <time>2021-08-12T09:11:22.447Z</time>
      </trkpt>
      <trkpt lat="46.86312" lon="8.48253">
        <ele>2329</ele>
        <time>2021-08-12T09:11:23.446Z</time>
      </trkpt>
      <trkpt lat="46.86311" lon="8.48254">
        <ele>2329</ele>
        <time>2021-08-12T09:11:24.446Z</time>
      </trkpt>
      <trkpt lat="46.86311" lon="8.48255">
        <ele>2329</ele>
        <time>2021-08-12T09:11:25.446Z</time>
      </trkpt>
      <trkpt lat="46.86311" lon="8.48255">
        <ele>2329</ele>
        <time>2021-08-12T09:11:26.447Z</time>
      </trkpt>
      <trkpt lat="46.86311" lon="8.48256">
        <ele>2329</ele>
        <time>2021-08-12T09:11:27.447Z</time>
      </trkpt>
      <trkpt lat="46.86311" lon="8.48256">
        <ele>2329</ele>
        <time>2021-08-12T09:11:28.446Z</time>
      </trkpt>
      <trkpt lat="46.86311" lon="8.48256">
        <ele>2329</ele>
        <time>2021-08-12T09:11:29.447Z</time>
      </trkpt>
      <trkpt lat="46.8631" lon="8.48257">
        <ele>2330</ele>
        <time>2021-08-12T09:11:30.446Z</time>
      </trkpt>
      <trkpt lat="46.86311" lon="8.48256">
        <ele>2330</ele>
        <time>2021-08-12T09:11:31.446Z</time>
      </trkpt>
      <trkpt lat="46.8631" lon="8.48257">
        <ele>2330</ele>
        <time>2021-08-12T09:11:32.446Z</time>
      </trkpt>
      <trkpt lat="46.8631" lon="8.48257">
        <ele>2331</ele>
        <time>2021-08-12T09:11:33.447Z</time>
      </trkpt>
      <trkpt lat="46.8631" lon="8.48257">
        <ele>2330</ele>
        <time>2021-08-12T09:11:34.446Z</time>
      </trkpt>
      <trkpt lat="46.8631" lon="8.48258">
        <ele>2330</ele>
        <time>2021-08-12T09:11:35.447Z</time>
      </trkpt>
      <trkpt lat="46.8631" lon="8.48258">
        <ele>2330</ele>
        <time>2021-08-12T09:11:36.447Z</time>
      </trkpt>
      <trkpt lat="46.8631" lon="8.48259">
        <ele>2330</ele>
        <time>2021-08-12T09:11:37.446Z</time>
      </trkpt>
      <trkpt lat="46.86309" lon="8.48259">
        <ele>2331</ele>
        <time>2021-08-12T09:11:38.447Z</time>
      </trkpt>
      <trkpt lat="46.86308" lon="8.4826">
        <ele>2331</ele>
        <time>2021-08-12T09:11:39.446Z</time>
      </trkpt>
      <trkpt lat="46.86308" lon="8.4826">
        <ele>2332</ele>
        <time>2021-08-12T09:11:40.446Z</time>
      </trkpt>
      <trkpt lat="46.86308" lon="8.4826">
        <ele>2333</ele>
        <time>2021-08-12T09:11:41.446Z</time>
      </trkpt>
      <trkpt lat="46.86307" lon="8.4826">
        <ele>2333</ele>
        <time>2021-08-12T09:11:42.446Z</time>
      </trkpt>
      <trkpt lat="46.86307" lon="8.4826">
        <ele>2334</ele>
        <time>2021-08-12T09:11:43.446Z</time>
      </trkpt>
      <trkpt lat="46.86307" lon="8.48261">
        <ele>2335</ele>
        <time>2021-08-12T09:11:44.447Z</time>
      </trkpt>
      <trkpt lat="46.86307" lon="8.48262">
        <ele>2335</ele>
        <time>2021-08-12T09:11:45.446Z</time>
      </trkpt>
      <trkpt lat="46.86307" lon="8.48263">
        <ele>2335</ele>
        <time>2021-08-12T09:11:46.447Z</time>
      </trkpt>
      <trkpt lat="46.86306" lon="8.48263">
        <ele>2335</ele>
        <time>2021-08-12T09:11:47.446Z</time>
      </trkpt>
      <trkpt lat="46.86307" lon="8.48263">
        <ele>2335</ele>
        <time>2021-08-12T09:11:48.446Z</time>
      </trkpt>
      <trkpt lat="46.86307" lon="8.48264">
        <ele>2335</ele>
        <time>2021-08-12T09:11:49.447Z</time>
      </trkpt>
      <trkpt lat="46.86307" lon="8.48264">
        <ele>2336</ele>
        <time>2021-08-12T09:11:50.447Z</time>
      </trkpt>
      <trkpt lat="46.86307" lon="8.48265">
        <ele>2336</ele>
        <time>2021-08-12T09:11:51.446Z</time>
      </trkpt>
      <trkpt lat="46.86308" lon="8.48265">
        <ele>2336</ele>
        <time>2021-08-12T09:11:52.446Z</time>
      </trkpt>
      <trkpt lat="46.86308" lon="8.48266">
        <ele>2336</ele>
        <time>2021-08-12T09:11:53.447Z</time>
      </trkpt>
      <trkpt lat="46.86309" lon="8.48267">
        <ele>2336</ele>
        <time>2021-08-12T09:11:54.446Z</time>
      </trkpt>
      <trkpt lat="46.8631" lon="8.48267">
        <ele>2335</ele>
        <time>2021-08-12T09:11:55.446Z</time>
      </trkpt>
      <trkpt lat="46.8631" lon="8.48268">
        <ele>2335</ele>
        <time>2021-08-12T09:11:56.447Z</time>
      </trkpt>
      <trkpt lat="46.8631" lon="8.48268">
        <ele>2335</ele>
        <time>2021-08-12T09:11:57.447Z</time>
      </trkpt>
      <trkpt lat="46.8631" lon="8.48269">
        <ele>2335</ele>
        <time>2021-08-12T09:11:58.447Z</time>
      </trkpt>
      <trkpt lat="46.8631" lon="8.48269">
        <ele>2335</ele>
        <time>2021-08-12T09:11:59.446Z</time>
      </trkpt>
      <trkpt lat="46.8631" lon="8.4827">
        <ele>2336</ele>
        <time>2021-08-12T09:12:00.447Z</time>
      </trkpt>
      <trkpt lat="46.86309" lon="8.4827">
        <ele>2336</ele>
        <time>2021-08-12T09:12:01.447Z</time>
      </trkpt>
      <trkpt lat="46.86309" lon="8.4827">
        <ele>2336</ele>
        <time>2021-08-12T09:12:02.446Z</time>
      </trkpt>
      <trkpt lat="46.86309" lon="8.48271">
        <ele>2337</ele>
        <time>2021-08-12T09:12:03.447Z</time>
      </trkpt>
      <trkpt lat="46.8631" lon="8.48271">
        <ele>2337</ele>
        <time>2021-08-12T09:12:04.447Z</time>
      </trkpt>
      <trkpt lat="46.8631" lon="8.48272">
        <ele>2338</ele>
        <time>2021-08-12T09:12:05.446Z</time>
      </trkpt>
      <trkpt lat="46.8631" lon="8.48273">
        <ele>2338</ele>
        <time>2021-08-12T09:12:06.447Z</time>
      </trkpt>
      <trkpt lat="46.8631" lon="8.48274">
        <ele>2339</ele>
        <time>2021-08-12T09:12:07.447Z</time>
      </trkpt>
      <trkpt lat="46.8631" lon="8.48274">
        <ele>2339</ele>
        <time>2021-08-12T09:12:08.447Z</time>
      </trkpt>
      <trkpt lat="46.8631" lon="8.48275">
        <ele>2338</ele>
        <time>2021-08-12T09:12:09.447Z</time>
      </trkpt>
      <trkpt lat="46.8631" lon="8.48276">
        <ele>2338</ele>
        <time>2021-08-12T09:12:10.447Z</time>
      </trkpt>
      <trkpt lat="46.8631" lon="8.48277">
        <ele>2338</ele>
        <time>2021-08-12T09:12:11.447Z</time>
      </trkpt>
      <trkpt lat="46.8631" lon="8.48277">
        <ele>2338</ele>
        <time>2021-08-12T09:12:12.447Z</time>
      </trkpt>
      <trkpt lat="46.86309" lon="8.48278">
        <ele>2338</ele>
        <time>2021-08-12T09:12:13.447Z</time>
      </trkpt>
      <trkpt lat="46.8631" lon="8.48278">
        <ele>2338</ele>
        <time>2021-08-12T09:12:14.446Z</time>
      </trkpt>
      <trkpt lat="46.86308" lon="8.4828">
        <ele>2338</ele>
        <time>2021-08-12T09:12:15.447Z</time>
      </trkpt>
      <trkpt lat="46.86307" lon="8.4828">
        <ele>2339</ele>
        <time>2021-08-12T09:12:16.446Z</time>
      </trkpt>
      <trkpt lat="46.86308" lon="8.4828">
        <ele>2339</ele>
        <time>2021-08-12T09:12:17.447Z</time>
      </trkpt>
      <trkpt lat="46.86308" lon="8.48281">
        <ele>2339</ele>
        <time>2021-08-12T09:12:18.446Z</time>
      </trkpt>
      <trkpt lat="46.86308" lon="8.48282">
        <ele>2340</ele>
        <time>2021-08-12T09:12:19.446Z</time>
      </trkpt>
      <trkpt lat="46.86308" lon="8.48283">
        <ele>2340</ele>
        <time>2021-08-12T09:12:20.446Z</time>
      </trkpt>
      <trkpt lat="46.86308" lon="8.48284">
        <ele>2340</ele>
        <time>2021-08-12T09:12:21.446Z</time>
      </trkpt>
      <trkpt lat="46.86308" lon="8.48285">
        <ele>2340</ele>
        <time>2021-08-12T09:12:22.447Z</time>
      </trkpt>
      <trkpt lat="46.86308" lon="8.48286">
        <ele>2340</ele>
        <time>2021-08-12T09:12:23.446Z</time>
      </trkpt>
      <trkpt lat="46.86307" lon="8.48287">
        <ele>2341</ele>
        <time>2021-08-12T09:12:24.447Z</time>
      </trkpt>
      <trkpt lat="46.86307" lon="8.48287">
        <ele>2341</ele>
        <time>2021-08-12T09:12:25.447Z</time>
      </trkpt>
      <trkpt lat="46.86308" lon="8.48288">
        <ele>2341</ele>
        <time>2021-08-12T09:12:26.447Z</time>
      </trkpt>
      <trkpt lat="46.86307" lon="8.48288">
        <ele>2341</ele>
        <time>2021-08-12T09:12:27.447Z</time>
      </trkpt>
      <trkpt lat="46.86307" lon="8.48289">
        <ele>2341</ele>
        <time>2021-08-12T09:12:28.446Z</time>
      </trkpt>
      <trkpt lat="46.86306" lon="8.4829">
        <ele>2341</ele>
        <time>2021-08-12T09:12:29.446Z</time>
      </trkpt>
      <trkpt lat="46.86305" lon="8.48292">
        <ele>2340</ele>
        <time>2021-08-12T09:12:30.447Z</time>
      </trkpt>
      <trkpt lat="46.86306" lon="8.48292">
        <ele>2340</ele>
        <time>2021-08-12T09:12:31.446Z</time>
      </trkpt>
      <trkpt lat="46.86305" lon="8.48293">
        <ele>2340</ele>
        <time>2021-08-12T09:12:32.446Z</time>
      </trkpt>
      <trkpt lat="46.86304" lon="8.48294">
        <ele>2339</ele>
        <time>2021-08-12T09:12:33.446Z</time>
      </trkpt>
      <trkpt lat="46.86304" lon="8.48294">
        <ele>2339</ele>
        <time>2021-08-12T09:12:34.446Z</time>
      </trkpt>
      <trkpt lat="46.86304" lon="8.48295">
        <ele>2339</ele>
        <time>2021-08-12T09:12:35.446Z</time>
      </trkpt>
      <trkpt lat="46.86303" lon="8.48295">
        <ele>2338</ele>
        <time>2021-08-12T09:12:36.446Z</time>
      </trkpt>
      <trkpt lat="46.86303" lon="8.48296">
        <ele>2338</ele>
        <time>2021-08-12T09:12:37.446Z</time>
      </trkpt>
      <trkpt lat="46.86303" lon="8.48297">
        <ele>2338</ele>
        <time>2021-08-12T09:12:38.446Z</time>
      </trkpt>
      <trkpt lat="46.86302" lon="8.48297">
        <ele>2338</ele>
        <time>2021-08-12T09:12:39.447Z</time>
      </trkpt>
      <trkpt lat="46.86302" lon="8.48298">
        <ele>2338</ele>
        <time>2021-08-12T09:12:40.446Z</time>
      </trkpt>
      <trkpt lat="46.86302" lon="8.48298">
        <ele>2338</ele>
        <time>2021-08-12T09:12:41.446Z</time>
      </trkpt>
      <trkpt lat="46.863" lon="8.48299">
        <ele>2338</ele>
        <time>2021-08-12T09:12:42.447Z</time>
      </trkpt>
      <trkpt lat="46.863" lon="8.48298">
        <ele>2338</ele>
        <time>2021-08-12T09:12:43.446Z</time>
      </trkpt>
      <trkpt lat="46.86299" lon="8.48299">
        <ele>2338</ele>
        <time>2021-08-12T09:12:44.446Z</time>
      </trkpt>
      <trkpt lat="46.863" lon="8.483">
        <ele>2338</ele>
        <time>2021-08-12T09:12:45.447Z</time>
      </trkpt>
      <trkpt lat="46.863" lon="8.48301">
        <ele>2338</ele>
        <time>2021-08-12T09:12:46.446Z</time>
      </trkpt>
      <trkpt lat="46.863" lon="8.48302">
        <ele>2338</ele>
        <time>2021-08-12T09:12:47.446Z</time>
      </trkpt>
      <trkpt lat="46.863" lon="8.48302">
        <ele>2338</ele>
        <time>2021-08-12T09:12:48.447Z</time>
      </trkpt>
      <trkpt lat="46.863" lon="8.48303">
        <ele>2338</ele>
        <time>2021-08-12T09:12:49.446Z</time>
      </trkpt>
      <trkpt lat="46.863" lon="8.48303">
        <ele>2339</ele>
        <time>2021-08-12T09:12:50.446Z</time>
      </trkpt>
      <trkpt lat="46.86301" lon="8.48304">
        <ele>2339</ele>
        <time>2021-08-12T09:12:51.446Z</time>
      </trkpt>
      <trkpt lat="46.863" lon="8.48304">
        <ele>2340</ele>
        <time>2021-08-12T09:12:52.446Z</time>
      </trkpt>
      <trkpt lat="46.863" lon="8.48305">
        <ele>2340</ele>
        <time>2021-08-12T09:12:53.446Z</time>
      </trkpt>
      <trkpt lat="46.86299" lon="8.48306">
        <ele>2340</ele>
        <time>2021-08-12T09:12:54.446Z</time>
      </trkpt>
      <trkpt lat="46.86299" lon="8.48307">
        <ele>2340</ele>
        <time>2021-08-12T09:12:55.446Z</time>
      </trkpt>
      <trkpt lat="46.86299" lon="8.48308">
        <ele>2340</ele>
        <time>2021-08-12T09:12:56.446Z</time>
      </trkpt>
      <trkpt lat="46.86299" lon="8.48309">
        <ele>2341</ele>
        <time>2021-08-12T09:12:57.446Z</time>
      </trkpt>
      <trkpt lat="46.86298" lon="8.4831">
        <ele>2341</ele>
        <time>2021-08-12T09:12:58.447Z</time>
      </trkpt>
      <trkpt lat="46.86297" lon="8.48311">
        <ele>2341</ele>
        <time>2021-08-12T09:12:59.446Z</time>
      </trkpt>
      <trkpt lat="46.86297" lon="8.48311">
        <ele>2342</ele>
        <time>2021-08-12T09:13:00.446Z</time>
      </trkpt>
      <trkpt lat="46.86297" lon="8.48312">
        <ele>2342</ele>
        <time>2021-08-12T09:13:01.446Z</time>
      </trkpt>
      <trkpt lat="46.86298" lon="8.48312">
        <ele>2342</ele>
        <time>2021-08-12T09:13:02.447Z</time>
      </trkpt>
      <trkpt lat="46.86298" lon="8.48313">
        <ele>2342</ele>
        <time>2021-08-12T09:13:03.447Z</time>
      </trkpt>
      <trkpt lat="46.86297" lon="8.48313">
        <ele>2342</ele>
        <time>2021-08-12T09:13:04.447Z</time>
      </trkpt>
      <trkpt lat="46.86297" lon="8.48313">
        <ele>2342</ele>
        <time>2021-08-12T09:13:05.446Z</time>
      </trkpt>
      <trkpt lat="46.86296" lon="8.48313">
        <ele>2342</ele>
        <time>2021-08-12T09:13:06.446Z</time>
      </trkpt>
      <trkpt lat="46.86296" lon="8.48313">
        <ele>2342</ele>
        <time>2021-08-12T09:13:07.446Z</time>
      </trkpt>
      <trkpt lat="46.86296" lon="8.48313">
        <ele>2342</ele>
        <time>2021-08-12T09:13:08.447Z</time>
      </trkpt>
      <trkpt lat="46.86297" lon="8.48314">
        <ele>2343</ele>
        <time>2021-08-12T09:13:09.446Z</time>
      </trkpt>
      <trkpt lat="46.86296" lon="8.48314">
        <ele>2342</ele>
        <time>2021-08-12T09:13:10.446Z</time>
      </trkpt>
      <trkpt lat="46.86296" lon="8.48313">
        <ele>2342</ele>
        <time>2021-08-12T09:13:11.446Z</time>
      </trkpt>
      <trkpt lat="46.86295" lon="8.48314">
        <ele>2343</ele>
        <time>2021-08-12T09:13:12.447Z</time>
      </trkpt>
      <trkpt lat="46.86294" lon="8.48315">
        <ele>2343</ele>
        <time>2021-08-12T09:13:13.447Z</time>
      </trkpt>
      <trkpt lat="46.86295" lon="8.48316">
        <ele>2343</ele>
        <time>2021-08-12T09:13:14.446Z</time>
      </trkpt>
      <trkpt lat="46.86295" lon="8.48316">
        <ele>2344</ele>
        <time>2021-08-12T09:13:15.447Z</time>
      </trkpt>
      <trkpt lat="46.86296" lon="8.48316">
        <ele>2344</ele>
        <time>2021-08-12T09:13:16.446Z</time>
      </trkpt>
      <trkpt lat="46.86296" lon="8.48316">
        <ele>2345</ele>
        <time>2021-08-12T09:13:17.446Z</time>
      </trkpt>
      <trkpt lat="46.86297" lon="8.48317">
        <ele>2348</ele>
        <time>2021-08-12T09:13:18.448Z</time>
      </trkpt>
      <trkpt lat="46.86298" lon="8.48318">
        <ele>2349</ele>
        <time>2021-08-12T09:13:19.448Z</time>
      </trkpt>
      <trkpt lat="46.86298" lon="8.48318">
        <ele>2349</ele>
        <time>2021-08-12T09:13:20.448Z</time>
      </trkpt>
      <trkpt lat="46.86299" lon="8.48318">
        <ele>2350</ele>
        <time>2021-08-12T09:13:21.448Z</time>
      </trkpt>
      <trkpt lat="46.86299" lon="8.48318">
        <ele>2350</ele>
        <time>2021-08-12T09:13:22.447Z</time>
      </trkpt>
      <trkpt lat="46.863" lon="8.48319">
        <ele>2351</ele>
        <time>2021-08-12T09:13:23.448Z</time>
      </trkpt>
      <trkpt lat="46.863" lon="8.48319">
        <ele>2352</ele>
        <time>2021-08-12T09:13:24.448Z</time>
      </trkpt>
      <trkpt lat="46.86299" lon="8.4832">
        <ele>2352</ele>
        <time>2021-08-12T09:13:25.447Z</time>
      </trkpt>
      <trkpt lat="46.86299" lon="8.4832">
        <ele>2352</ele>
        <time>2021-08-12T09:13:26.448Z</time>
      </trkpt>
      <trkpt lat="46.86299" lon="8.48321">
        <ele>2352</ele>
        <time>2021-08-12T09:13:27.448Z</time>
      </trkpt>
      <trkpt lat="46.86298" lon="8.48322">
        <ele>2353</ele>
        <time>2021-08-12T09:13:28.448Z</time>
      </trkpt>
      <trkpt lat="46.86297" lon="8.48323">
        <ele>2353</ele>
        <time>2021-08-12T09:13:29.448Z</time>
      </trkpt>
      <trkpt lat="46.86297" lon="8.48324">
        <ele>2353</ele>
        <time>2021-08-12T09:13:30.448Z</time>
      </trkpt>
      <trkpt lat="46.86297" lon="8.48325">
        <ele>2353</ele>
        <time>2021-08-12T09:13:31.448Z</time>
      </trkpt>
      <trkpt lat="46.86297" lon="8.48326">
        <ele>2353</ele>
        <time>2021-08-12T09:13:32.448Z</time>
      </trkpt>
      <trkpt lat="46.86298" lon="8.48327">
        <ele>2353</ele>
        <time>2021-08-12T09:13:33.447Z</time>
      </trkpt>
      <trkpt lat="46.863" lon="8.48327">
        <ele>2353</ele>
        <time>2021-08-12T09:13:34.448Z</time>
      </trkpt>
      <trkpt lat="46.863" lon="8.48328">
        <ele>2353</ele>
        <time>2021-08-12T09:13:35.448Z</time>
      </trkpt>
      <trkpt lat="46.86301" lon="8.48328">
        <ele>2352</ele>
        <time>2021-08-12T09:13:36.448Z</time>
      </trkpt>
      <trkpt lat="46.86301" lon="8.48328">
        <ele>2352</ele>
        <time>2021-08-12T09:13:37.448Z</time>
      </trkpt>
      <trkpt lat="46.86302" lon="8.48329">
        <ele>2352</ele>
        <time>2021-08-12T09:13:38.448Z</time>
      </trkpt>
      <trkpt lat="46.86303" lon="8.48329">
        <ele>2352</ele>
        <time>2021-08-12T09:13:39.448Z</time>
      </trkpt>
      <trkpt lat="46.86303" lon="8.48329">
        <ele>2352</ele>
        <time>2021-08-12T09:13:40.447Z</time>
      </trkpt>
      <trkpt lat="46.86304" lon="8.48329">
        <ele>2352</ele>
        <time>2021-08-12T09:13:41.448Z</time>
      </trkpt>
      <trkpt lat="46.86304" lon="8.48329">
        <ele>2353</ele>
        <time>2021-08-12T09:13:42.448Z</time>
      </trkpt>
      <trkpt lat="46.86303" lon="8.48331">
        <ele>2353</ele>
        <time>2021-08-12T09:13:43.448Z</time>
      </trkpt>
      <trkpt lat="46.86302" lon="8.48333">
        <ele>2353</ele>
        <time>2021-08-12T09:13:44.447Z</time>
      </trkpt>
      <trkpt lat="46.86302" lon="8.48335">
        <ele>2354</ele>
        <time>2021-08-12T09:13:45.448Z</time>
      </trkpt>
      <trkpt lat="46.86301" lon="8.48336">
        <ele>2354</ele>
        <time>2021-08-12T09:13:46.447Z</time>
      </trkpt>
      <trkpt lat="46.86301" lon="8.48336">
        <ele>2354</ele>
        <time>2021-08-12T09:13:47.448Z</time>
      </trkpt>
      <trkpt lat="46.863" lon="8.48337">
        <ele>2354</ele>
        <time>2021-08-12T09:13:48.447Z</time>
      </trkpt>
      <trkpt lat="46.863" lon="8.48337">
        <ele>2354</ele>
        <time>2021-08-12T09:13:49.448Z</time>
      </trkpt>
      <trkpt lat="46.863" lon="8.48338">
        <ele>2353</ele>
        <time>2021-08-12T09:13:50.448Z</time>
      </trkpt>
      <trkpt lat="46.863" lon="8.48339">
        <ele>2353</ele>
        <time>2021-08-12T09:13:51.447Z</time>
      </trkpt>
      <trkpt lat="46.863" lon="8.4834">
        <ele>2352</ele>
        <time>2021-08-12T09:13:52.447Z</time>
      </trkpt>
      <trkpt lat="46.86299" lon="8.48341">
        <ele>2352</ele>
        <time>2021-08-12T09:13:53.447Z</time>
      </trkpt>
      <trkpt lat="46.86299" lon="8.48341">
        <ele>2353</ele>
        <time>2021-08-12T09:13:54.447Z</time>
      </trkpt>
      <trkpt lat="46.86298" lon="8.48341">
        <ele>2353</ele>
        <time>2021-08-12T09:13:55.448Z</time>
      </trkpt>
      <trkpt lat="46.86297" lon="8.48341">
        <ele>2354</ele>
        <time>2021-08-12T09:13:56.447Z</time>
      </trkpt>
      <trkpt lat="46.86298" lon="8.48343">
        <ele>2354</ele>
        <time>2021-08-12T09:13:57.447Z</time>
      </trkpt>
      <trkpt lat="46.86297" lon="8.48344">
        <ele>2354</ele>
        <time>2021-08-12T09:13:58.448Z</time>
      </trkpt>
      <trkpt lat="46.86297" lon="8.48345">
        <ele>2354</ele>
        <time>2021-08-12T09:13:59.448Z</time>
      </trkpt>
      <trkpt lat="46.86298" lon="8.48344">
        <ele>2354</ele>
        <time>2021-08-12T09:14:00.448Z</time>
      </trkpt>
      <trkpt lat="46.86297" lon="8.48344">
        <ele>2354</ele>
        <time>2021-08-12T09:14:01.448Z</time>
      </trkpt>
      <trkpt lat="46.86296" lon="8.48345">
        <ele>2355</ele>
        <time>2021-08-12T09:14:02.447Z</time>
      </trkpt>
      <trkpt lat="46.86296" lon="8.48346">
        <ele>2355</ele>
        <time>2021-08-12T09:14:03.448Z</time>
      </trkpt>
      <trkpt lat="46.86296" lon="8.48347">
        <ele>2355</ele>
        <time>2021-08-12T09:14:04.447Z</time>
      </trkpt>
      <trkpt lat="46.86295" lon="8.48348">
        <ele>2355</ele>
        <time>2021-08-12T09:14:05.448Z</time>
      </trkpt>
      <trkpt lat="46.86294" lon="8.4835">
        <ele>2354</ele>
        <time>2021-08-12T09:14:06.448Z</time>
      </trkpt>
      <trkpt lat="46.86293" lon="8.48352">
        <ele>2355</ele>
        <time>2021-08-12T09:14:07.447Z</time>
      </trkpt>
      <trkpt lat="46.86293" lon="8.48353">
        <ele>2355</ele>
        <time>2021-08-12T09:14:08.447Z</time>
      </trkpt>
      <trkpt lat="46.86293" lon="8.48353">
        <ele>2355</ele>
        <time>2021-08-12T09:14:09.448Z</time>
      </trkpt>
      <trkpt lat="46.86293" lon="8.48354">
        <ele>2354</ele>
        <time>2021-08-12T09:14:10.447Z</time>
      </trkpt>
      <trkpt lat="46.86293" lon="8.48354">
        <ele>2354</ele>
        <time>2021-08-12T09:14:11.448Z</time>
      </trkpt>
      <trkpt lat="46.86293" lon="8.48354">
        <ele>2354</ele>
        <time>2021-08-12T09:14:12.448Z</time>
      </trkpt>
      <trkpt lat="46.86294" lon="8.48355">
        <ele>2355</ele>
        <time>2021-08-12T09:14:13.447Z</time>
      </trkpt>
      <trkpt lat="46.86293" lon="8.48356">
        <ele>2355</ele>
        <time>2021-08-12T09:14:14.447Z</time>
      </trkpt>
      <trkpt lat="46.86293" lon="8.48356">
        <ele>2354</ele>
        <time>2021-08-12T09:14:15.448Z</time>
      </trkpt>
      <trkpt lat="46.86292" lon="8.48357">
        <ele>2355</ele>
        <time>2021-08-12T09:14:16.448Z</time>
      </trkpt>
      <trkpt lat="46.86291" lon="8.48357">
        <ele>2356</ele>
        <time>2021-08-12T09:14:17.448Z</time>
      </trkpt>
      <trkpt lat="46.86291" lon="8.48358">
        <ele>2358</ele>
        <time>2021-08-12T09:14:18.447Z</time>
      </trkpt>
      <trkpt lat="46.8629" lon="8.48359">
        <ele>2359</ele>
        <time>2021-08-12T09:14:19.448Z</time>
      </trkpt>
      <trkpt lat="46.86289" lon="8.4836">
        <ele>2360</ele>
        <time>2021-08-12T09:14:20.448Z</time>
      </trkpt>
      <trkpt lat="46.86289" lon="8.48361">
        <ele>2360</ele>
        <time>2021-08-12T09:14:21.448Z</time>
      </trkpt>
      <trkpt lat="46.86288" lon="8.48362">
        <ele>2360</ele>
        <time>2021-08-12T09:14:22.448Z</time>
      </trkpt>
      <trkpt lat="46.86288" lon="8.48363">
        <ele>2360</ele>
        <time>2021-08-12T09:14:23.448Z</time>
      </trkpt>
      <trkpt lat="46.86287" lon="8.48364">
        <ele>2360</ele>
        <time>2021-08-12T09:14:24.448Z</time>
      </trkpt>
      <trkpt lat="46.86287" lon="8.48364">
        <ele>2359</ele>
        <time>2021-08-12T09:14:25.448Z</time>
      </trkpt>
      <trkpt lat="46.86287" lon="8.48365">
        <ele>2359</ele>
        <time>2021-08-12T09:14:26.448Z</time>
      </trkpt>
      <trkpt lat="46.86285" lon="8.48367">
        <ele>2351</ele>
        <time>2021-08-12T09:14:27.447Z</time>
      </trkpt>
      <trkpt lat="46.86284" lon="8.48366">
        <ele>2351</ele>
        <time>2021-08-12T09:14:28.447Z</time>
      </trkpt>
      <trkpt lat="46.86284" lon="8.48366">
        <ele>2351</ele>
        <time>2021-08-12T09:14:29.447Z</time>
      </trkpt>
      <trkpt lat="46.86284" lon="8.48366">
        <ele>2348</ele>
        <time>2021-08-12T09:14:30.448Z</time>
      </trkpt>
      <trkpt lat="46.86283" lon="8.48367">
        <ele>2348</ele>
        <time>2021-08-12T09:14:31.448Z</time>
      </trkpt>
      <trkpt lat="46.86283" lon="8.48368">
        <ele>2348</ele>
        <time>2021-08-12T09:14:32.447Z</time>
      </trkpt>
      <trkpt lat="46.86282" lon="8.48367">
        <ele>2352</ele>
        <time>2021-08-12T09:14:33.448Z</time>
      </trkpt>
      <trkpt lat="46.86282" lon="8.48368">
        <ele>2352</ele>
        <time>2021-08-12T09:14:34.448Z</time>
      </trkpt>
      <trkpt lat="46.86284" lon="8.48364">
        <ele>2349</ele>
        <time>2021-08-12T09:14:35.449Z</time>
      </trkpt>
      <trkpt lat="46.86284" lon="8.48364">
        <ele>2349</ele>
        <time>2021-08-12T09:14:36.449Z</time>
      </trkpt>
      <trkpt lat="46.86284" lon="8.48363">
        <ele>2349</ele>
        <time>2021-08-12T09:14:37.448Z</time>
      </trkpt>
      <trkpt lat="46.86287" lon="8.48365">
        <ele>2359</ele>
        <time>2021-08-12T09:14:38.449Z</time>
      </trkpt>
      <trkpt lat="46.86287" lon="8.48364">
        <ele>2359</ele>
        <time>2021-08-12T09:14:39.449Z</time>
      </trkpt>
      <trkpt lat="46.86287" lon="8.48364">
        <ele>2360</ele>
        <time>2021-08-12T09:14:40.449Z</time>
      </trkpt>
      <trkpt lat="46.86285" lon="8.48366">
        <ele>2357</ele>
        <time>2021-08-12T09:14:41.450Z</time>
      </trkpt>
      <trkpt lat="46.86285" lon="8.48367">
        <ele>2356</ele>
        <time>2021-08-12T09:14:42.450Z</time>
      </trkpt>
      <trkpt lat="46.86285" lon="8.48369">
        <ele>2351</ele>
        <time>2021-08-12T09:14:43.450Z</time>
      </trkpt>
      <trkpt lat="46.86285" lon="8.48369">
        <ele>2351</ele>
        <time>2021-08-12T09:14:44.451Z</time>
      </trkpt>
      <trkpt lat="46.86286" lon="8.48369">
        <ele>2350</ele>
        <time>2021-08-12T09:14:45.451Z</time>
      </trkpt>
      <trkpt lat="46.86285" lon="8.4837">
        <ele>2350</ele>
        <time>2021-08-12T09:14:46.451Z</time>
      </trkpt>
      <trkpt lat="46.86285" lon="8.48371">
        <ele>2350</ele>
        <time>2021-08-12T09:14:47.452Z</time>
      </trkpt>
      <trkpt lat="46.86285" lon="8.48369">
        <ele>2357</ele>
        <time>2021-08-12T09:14:48.453Z</time>
      </trkpt>
      <trkpt lat="46.86285" lon="8.48368">
        <ele>2358</ele>
        <time>2021-08-12T09:14:49.453Z</time>
      </trkpt>
      <trkpt lat="46.86285" lon="8.48367">
        <ele>2359</ele>
        <time>2021-08-12T09:14:50.452Z</time>
      </trkpt>
      <trkpt lat="46.86285" lon="8.48366">
        <ele>2359</ele>
        <time>2021-08-12T09:14:51.452Z</time>
      </trkpt>
      <trkpt lat="46.86286" lon="8.48366">
        <ele>2360</ele>
        <time>2021-08-12T09:14:52.453Z</time>
      </trkpt>
      <trkpt lat="46.86288" lon="8.48363">
        <ele>2361</ele>
        <time>2021-08-12T09:14:53.453Z</time>
      </trkpt>
      <trkpt lat="46.86289" lon="8.48364">
        <ele>2361</ele>
        <time>2021-08-12T09:14:54.453Z</time>
      </trkpt>
      <trkpt lat="46.86289" lon="8.48365">
        <ele>2361</ele>
        <time>2021-08-12T09:14:55.452Z</time>
      </trkpt>
      <trkpt lat="46.86289" lon="8.48365">
        <ele>2361</ele>
        <time>2021-08-12T09:14:56.453Z</time>
      </trkpt>
      <trkpt lat="46.86286" lon="8.48369">
        <ele>2356</ele>
        <time>2021-08-12T09:14:57.452Z</time>
      </trkpt>
      <trkpt lat="46.86286" lon="8.48369">
        <ele>2355</ele>
        <time>2021-08-12T09:14:58.452Z</time>
      </trkpt>
      <trkpt lat="46.86286" lon="8.48368">
        <ele>2355</ele>
        <time>2021-08-12T09:14:59.453Z</time>
      </trkpt>
      <trkpt lat="46.86285" lon="8.4837">
        <ele>2356</ele>
        <time>2021-08-12T09:15:00.455Z</time>
      </trkpt>
      <trkpt lat="46.86285" lon="8.4837">
        <ele>2356</ele>
        <time>2021-08-12T09:15:01.455Z</time>
      </trkpt>
      <trkpt lat="46.86284" lon="8.48371">
        <ele>2357</ele>
        <time>2021-08-12T09:15:02.454Z</time>
      </trkpt>
      <trkpt lat="46.86283" lon="8.48372">
        <ele>2357</ele>
        <time>2021-08-12T09:15:03.455Z</time>
      </trkpt>
      <trkpt lat="46.86283" lon="8.48373">
        <ele>2357</ele>
        <time>2021-08-12T09:15:04.454Z</time>
      </trkpt>
      <trkpt lat="46.86282" lon="8.48373">
        <ele>2358</ele>
        <time>2021-08-12T09:15:05.455Z</time>
      </trkpt>
      <trkpt lat="46.86282" lon="8.48373">
        <ele>2359</ele>
        <time>2021-08-12T09:15:06.454Z</time>
      </trkpt>
      <trkpt lat="46.86281" lon="8.48374">
        <ele>2359</ele>
        <time>2021-08-12T09:15:07.455Z</time>
      </trkpt>
      <trkpt lat="46.86281" lon="8.48374">
        <ele>2360</ele>
        <time>2021-08-12T09:15:08.455Z</time>
      </trkpt>
      <trkpt lat="46.8628" lon="8.48375">
        <ele>2360</ele>
        <time>2021-08-12T09:15:09.455Z</time>
      </trkpt>
      <trkpt lat="46.8628" lon="8.48375">
        <ele>2361</ele>
        <time>2021-08-12T09:15:10.455Z</time>
      </trkpt>
      <trkpt lat="46.86279" lon="8.48376">
        <ele>2360</ele>
        <time>2021-08-12T09:15:11.455Z</time>
      </trkpt>
      <trkpt lat="46.86279" lon="8.48376">
        <ele>2360</ele>
        <time>2021-08-12T09:15:12.455Z</time>
      </trkpt>
      <trkpt lat="46.86278" lon="8.48376">
        <ele>2360</ele>
        <time>2021-08-12T09:15:13.454Z</time>
      </trkpt>
      <trkpt lat="46.86277" lon="8.48377">
        <ele>2360</ele>
        <time>2021-08-12T09:15:14.455Z</time>
      </trkpt>
      <trkpt lat="46.86277" lon="8.48377">
        <ele>2360</ele>
        <time>2021-08-12T09:15:15.455Z</time>
      </trkpt>
      <trkpt lat="46.86276" lon="8.48377">
        <ele>2360</ele>
        <time>2021-08-12T09:15:16.455Z</time>
      </trkpt>
      <trkpt lat="46.86276" lon="8.48377">
        <ele>2360</ele>
        <time>2021-08-12T09:15:17.454Z</time>
      </trkpt>
      <trkpt lat="46.86275" lon="8.48377">
        <ele>2360</ele>
        <time>2021-08-12T09:15:18.455Z</time>
      </trkpt>
      <trkpt lat="46.86274" lon="8.48377">
        <ele>2360</ele>
        <time>2021-08-12T09:15:19.455Z</time>
      </trkpt>
      <trkpt lat="46.86274" lon="8.48377">
        <ele>2360</ele>
        <time>2021-08-12T09:15:20.455Z</time>
      </trkpt>
      <trkpt lat="46.86273" lon="8.48377">
        <ele>2361</ele>
        <time>2021-08-12T09:15:21.454Z</time>
      </trkpt>
      <trkpt lat="46.86273" lon="8.48377">
        <ele>2361</ele>
        <time>2021-08-12T09:15:22.455Z</time>
      </trkpt>
      <trkpt lat="46.86272" lon="8.48377">
        <ele>2361</ele>
        <time>2021-08-12T09:15:23.454Z</time>
      </trkpt>
      <trkpt lat="46.86271" lon="8.48378">
        <ele>2361</ele>
        <time>2021-08-12T09:15:24.455Z</time>
      </trkpt>
      <trkpt lat="46.86271" lon="8.48378">
        <ele>2361</ele>
        <time>2021-08-12T09:15:25.454Z</time>
      </trkpt>
      <trkpt lat="46.8627" lon="8.48379">
        <ele>2360</ele>
        <time>2021-08-12T09:15:26.455Z</time>
      </trkpt>
      <trkpt lat="46.86269" lon="8.4838">
        <ele>2360</ele>
        <time>2021-08-12T09:15:27.454Z</time>
      </trkpt>
      <trkpt lat="46.86269" lon="8.48381">
        <ele>2360</ele>
        <time>2021-08-12T09:15:28.454Z</time>
      </trkpt>
      <trkpt lat="46.86268" lon="8.48382">
        <ele>2359</ele>
        <time>2021-08-12T09:15:29.455Z</time>
      </trkpt>
      <trkpt lat="46.86268" lon="8.48382">
        <ele>2359</ele>
        <time>2021-08-12T09:15:30.455Z</time>
      </trkpt>
      <trkpt lat="46.86267" lon="8.48383">
        <ele>2359</ele>
        <time>2021-08-12T09:15:31.455Z</time>
      </trkpt>
      <trkpt lat="46.86267" lon="8.48383">
        <ele>2359</ele>
        <time>2021-08-12T09:15:32.455Z</time>
      </trkpt>
      <trkpt lat="46.86266" lon="8.48384">
        <ele>2359</ele>
        <time>2021-08-12T09:15:33.454Z</time>
      </trkpt>
      <trkpt lat="46.86265" lon="8.48384">
        <ele>2359</ele>
        <time>2021-08-12T09:15:34.455Z</time>
      </trkpt>
      <trkpt lat="46.86265" lon="8.48385">
        <ele>2360</ele>
        <time>2021-08-12T09:15:35.455Z</time>
      </trkpt>
      <trkpt lat="46.86264" lon="8.48385">
        <ele>2360</ele>
        <time>2021-08-12T09:15:36.455Z</time>
      </trkpt>
      <trkpt lat="46.86264" lon="8.48386">
        <ele>2361</ele>
        <time>2021-08-12T09:15:37.455Z</time>
      </trkpt>
      <trkpt lat="46.86263" lon="8.48387">
        <ele>2361</ele>
        <time>2021-08-12T09:15:38.454Z</time>
      </trkpt>
      <trkpt lat="46.86263" lon="8.48387">
        <ele>2361</ele>
        <time>2021-08-12T09:15:39.455Z</time>
      </trkpt>
      <trkpt lat="46.86262" lon="8.48388">
        <ele>2362</ele>
        <time>2021-08-12T09:15:40.454Z</time>
      </trkpt>
      <trkpt lat="46.86261" lon="8.48388">
        <ele>2362</ele>
        <time>2021-08-12T09:15:41.455Z</time>
      </trkpt>
      <trkpt lat="46.86261" lon="8.48389">
        <ele>2363</ele>
        <time>2021-08-12T09:15:42.455Z</time>
      </trkpt>
      <trkpt lat="46.8626" lon="8.48389">
        <ele>2363</ele>
        <time>2021-08-12T09:15:43.455Z</time>
      </trkpt>
      <trkpt lat="46.8626" lon="8.48389">
        <ele>2363</ele>
        <time>2021-08-12T09:15:44.454Z</time>
      </trkpt>
      <trkpt lat="46.86259" lon="8.48389">
        <ele>2363</ele>
        <time>2021-08-12T09:15:45.455Z</time>
      </trkpt>
      <trkpt lat="46.86259" lon="8.4839">
        <ele>2363</ele>
        <time>2021-08-12T09:15:46.455Z</time>
      </trkpt>
      <trkpt lat="46.86258" lon="8.48391">
        <ele>2363</ele>
        <time>2021-08-12T09:15:47.455Z</time>
      </trkpt>
      <trkpt lat="46.86257" lon="8.48391">
        <ele>2364</ele>
        <time>2021-08-12T09:15:48.454Z</time>
      </trkpt>
      <trkpt lat="46.86257" lon="8.48392">
        <ele>2364</ele>
        <time>2021-08-12T09:15:49.455Z</time>
      </trkpt>
      <trkpt lat="46.86256" lon="8.48393">
        <ele>2364</ele>
        <time>2021-08-12T09:15:50.455Z</time>
      </trkpt>
      <trkpt lat="46.86256" lon="8.48393">
        <ele>2364</ele>
        <time>2021-08-12T09:15:51.454Z</time>
      </trkpt>
      <trkpt lat="46.86255" lon="8.48394">
        <ele>2364</ele>
        <time>2021-08-12T09:15:52.455Z</time>
      </trkpt>
      <trkpt lat="46.86254" lon="8.48395">
        <ele>2365</ele>
        <time>2021-08-12T09:15:53.454Z</time>
      </trkpt>
      <trkpt lat="46.86254" lon="8.48395">
        <ele>2365</ele>
        <time>2021-08-12T09:15:54.455Z</time>
      </trkpt>
      <trkpt lat="46.86253" lon="8.48396">
        <ele>2366</ele>
        <time>2021-08-12T09:15:55.455Z</time>
      </trkpt>
      <trkpt lat="46.86253" lon="8.48396">
        <ele>2366</ele>
        <time>2021-08-12T09:15:56.454Z</time>
      </trkpt>
      <trkpt lat="46.86252" lon="8.48397">
        <ele>2366</ele>
        <time>2021-08-12T09:15:57.455Z</time>
      </trkpt>
      <trkpt lat="46.86251" lon="8.48397">
        <ele>2367</ele>
        <time>2021-08-12T09:15:58.454Z</time>
      </trkpt>
      <trkpt lat="46.86251" lon="8.48397">
        <ele>2367</ele>
        <time>2021-08-12T09:15:59.455Z</time>
      </trkpt>
      <trkpt lat="46.8625" lon="8.48397">
        <ele>2367</ele>
        <time>2021-08-12T09:16:00.455Z</time>
      </trkpt>
      <trkpt lat="46.8625" lon="8.48397">
        <ele>2367</ele>
        <time>2021-08-12T09:16:01.455Z</time>
      </trkpt>
      <trkpt lat="46.86249" lon="8.48398">
        <ele>2367</ele>
        <time>2021-08-12T09:16:02.455Z</time>
      </trkpt>
      <trkpt lat="46.86249" lon="8.48398">
        <ele>2366</ele>
        <time>2021-08-12T09:16:03.455Z</time>
      </trkpt>
      <trkpt lat="46.86249" lon="8.48398">
        <ele>2366</ele>
        <time>2021-08-12T09:16:04.454Z</time>
      </trkpt>
      <trkpt lat="46.86248" lon="8.48399">
        <ele>2365</ele>
        <time>2021-08-12T09:16:05.455Z</time>
      </trkpt>
      <trkpt lat="46.86248" lon="8.48398">
        <ele>2365</ele>
        <time>2021-08-12T09:16:06.454Z</time>
      </trkpt>
      <trkpt lat="46.86247" lon="8.48399">
        <ele>2365</ele>
        <time>2021-08-12T09:16:07.454Z</time>
      </trkpt>
      <trkpt lat="46.86247" lon="8.48398">
        <ele>2365</ele>
        <time>2021-08-12T09:16:08.454Z</time>
      </trkpt>
      <trkpt lat="46.86247" lon="8.48399">
        <ele>2365</ele>
        <time>2021-08-12T09:16:09.455Z</time>
      </trkpt>
      <trkpt lat="46.86247" lon="8.48399">
        <ele>2365</ele>
        <time>2021-08-12T09:16:10.455Z</time>
      </trkpt>
      <trkpt lat="46.86247" lon="8.48399">
        <ele>2364</ele>
        <time>2021-08-12T09:16:11.455Z</time>
      </trkpt>
      <trkpt lat="46.86247" lon="8.48399">
        <ele>2364</ele>
        <time>2021-08-12T09:16:12.455Z</time>
      </trkpt>
      <trkpt lat="46.86247" lon="8.48398">
        <ele>2363</ele>
        <time>2021-08-12T09:16:13.455Z</time>
      </trkpt>
      <trkpt lat="46.86247" lon="8.48398">
        <ele>2363</ele>
        <time>2021-08-12T09:16:14.455Z</time>
      </trkpt>
      <trkpt lat="46.86245" lon="8.48395">
        <ele>2363</ele>
        <time>2021-08-12T09:16:15.455Z</time>
      </trkpt>
      <trkpt lat="46.86245" lon="8.48396">
        <ele>2363</ele>
        <time>2021-08-12T09:16:16.455Z</time>
      </trkpt>
      <trkpt lat="46.86245" lon="8.48396">
        <ele>2362</ele>
        <time>2021-08-12T09:16:17.454Z</time>
      </trkpt>
      <trkpt lat="46.86245" lon="8.48395">
        <ele>2362</ele>
        <time>2021-08-12T09:16:18.454Z</time>
      </trkpt>
      <trkpt lat="46.86245" lon="8.48394">
        <ele>2361</ele>
        <time>2021-08-12T09:16:19.455Z</time>
      </trkpt>
      <trkpt lat="46.86245" lon="8.48395">
        <ele>2360</ele>
        <time>2021-08-12T09:16:20.454Z</time>
      </trkpt>
      <trkpt lat="46.86244" lon="8.48395">
        <ele>2359</ele>
        <time>2021-08-12T09:16:21.454Z</time>
      </trkpt>
      <trkpt lat="46.86244" lon="8.48395">
        <ele>2359</ele>
        <time>2021-08-12T09:16:22.454Z</time>
      </trkpt>
      <trkpt lat="46.86243" lon="8.48396">
        <ele>2358</ele>
        <time>2021-08-12T09:16:23.454Z</time>
      </trkpt>
      <trkpt lat="46.86243" lon="8.48396">
        <ele>2358</ele>
        <time>2021-08-12T09:16:24.455Z</time>
      </trkpt>
      <trkpt lat="46.86242" lon="8.48396">
        <ele>2358</ele>
        <time>2021-08-12T09:16:25.454Z</time>
      </trkpt>
      <trkpt lat="46.86241" lon="8.48398">
        <ele>2358</ele>
        <time>2021-08-12T09:16:26.454Z</time>
      </trkpt>
      <trkpt lat="46.86241" lon="8.48399">
        <ele>2358</ele>
        <time>2021-08-12T09:16:27.454Z</time>
      </trkpt>
      <trkpt lat="46.8624" lon="8.48399">
        <ele>2358</ele>
        <time>2021-08-12T09:16:28.454Z</time>
      </trkpt>
      <trkpt lat="46.86239" lon="8.48399">
        <ele>2358</ele>
        <time>2021-08-12T09:16:29.454Z</time>
      </trkpt>
      <trkpt lat="46.86238" lon="8.48399">
        <ele>2358</ele>
        <time>2021-08-12T09:16:30.454Z</time>
      </trkpt>
      <trkpt lat="46.86238" lon="8.48399">
        <ele>2359</ele>
        <time>2021-08-12T09:16:31.454Z</time>
      </trkpt>
      <trkpt lat="46.86237" lon="8.48398">
        <ele>2359</ele>
        <time>2021-08-12T09:16:32.454Z</time>
      </trkpt>
      <trkpt lat="46.86237" lon="8.48398">
        <ele>2359</ele>
        <time>2021-08-12T09:16:33.455Z</time>
      </trkpt>
      <trkpt lat="46.86236" lon="8.48399">
        <ele>2359</ele>
        <time>2021-08-12T09:16:34.455Z</time>
      </trkpt>
      <trkpt lat="46.86236" lon="8.48399">
        <ele>2359</ele>
        <time>2021-08-12T09:16:35.455Z</time>
      </trkpt>
      <trkpt lat="46.86235" lon="8.484">
        <ele>2359</ele>
        <time>2021-08-12T09:16:36.454Z</time>
      </trkpt>
      <trkpt lat="46.86234" lon="8.484">
        <ele>2359</ele>
        <time>2021-08-12T09:16:37.454Z</time>
      </trkpt>
      <trkpt lat="46.86234" lon="8.48401">
        <ele>2359</ele>
        <time>2021-08-12T09:16:38.454Z</time>
      </trkpt>
      <trkpt lat="46.86233" lon="8.48402">
        <ele>2360</ele>
        <time>2021-08-12T09:16:39.454Z</time>
      </trkpt>
      <trkpt lat="46.86232" lon="8.48403">
        <ele>2360</ele>
        <time>2021-08-12T09:16:40.454Z</time>
      </trkpt>
      <trkpt lat="46.86232" lon="8.48404">
        <ele>2360</ele>
        <time>2021-08-12T09:16:41.454Z</time>
      </trkpt>
      <trkpt lat="46.86231" lon="8.48405">
        <ele>2361</ele>
        <time>2021-08-12T09:16:42.454Z</time>
      </trkpt>
      <trkpt lat="46.8623" lon="8.48406">
        <ele>2362</ele>
        <time>2021-08-12T09:16:43.455Z</time>
      </trkpt>
      <trkpt lat="46.86229" lon="8.48408">
        <ele>2363</ele>
        <time>2021-08-12T09:16:44.455Z</time>
      </trkpt>
      <trkpt lat="46.86228" lon="8.48409">
        <ele>2363</ele>
        <time>2021-08-12T09:16:45.454Z</time>
      </trkpt>
      <trkpt lat="46.86228" lon="8.48409">
        <ele>2364</ele>
        <time>2021-08-12T09:16:46.455Z</time>
      </trkpt>
      <trkpt lat="46.86227" lon="8.48409">
        <ele>2365</ele>
        <time>2021-08-12T09:16:47.455Z</time>
      </trkpt>
      <trkpt lat="46.86226" lon="8.4841">
        <ele>2365</ele>
        <time>2021-08-12T09:16:48.454Z</time>
      </trkpt>
      <trkpt lat="46.86226" lon="8.4841">
        <ele>2366</ele>
        <time>2021-08-12T09:16:49.454Z</time>
      </trkpt>
      <trkpt lat="46.86225" lon="8.48411">
        <ele>2366</ele>
        <time>2021-08-12T09:16:50.454Z</time>
      </trkpt>
      <trkpt lat="46.86225" lon="8.48411">
        <ele>2366</ele>
        <time>2021-08-12T09:16:51.454Z</time>
      </trkpt>
      <trkpt lat="46.86224" lon="8.48411">
        <ele>2366</ele>
        <time>2021-08-12T09:16:52.455Z</time>
      </trkpt>
      <trkpt lat="46.86224" lon="8.48411">
        <ele>2366</ele>
        <time>2021-08-12T09:16:53.454Z</time>
      </trkpt>
      <trkpt lat="46.86223" lon="8.48412">
        <ele>2367</ele>
        <time>2021-08-12T09:16:54.454Z</time>
      </trkpt>
      <trkpt lat="46.86222" lon="8.48412">
        <ele>2367</ele>
        <time>2021-08-12T09:16:55.454Z</time>
      </trkpt>
      <trkpt lat="46.86221" lon="8.48413">
        <ele>2368</ele>
        <time>2021-08-12T09:16:56.454Z</time>
      </trkpt>
      <trkpt lat="46.86219" lon="8.48415">
        <ele>2368</ele>
        <time>2021-08-12T09:16:57.454Z</time>
      </trkpt>
      <trkpt lat="46.86218" lon="8.48416">
        <ele>2369</ele>
        <time>2021-08-12T09:16:58.454Z</time>
      </trkpt>
      <trkpt lat="46.86217" lon="8.48415">
        <ele>2369</ele>
        <time>2021-08-12T09:16:59.454Z</time>
      </trkpt>
      <trkpt lat="46.86216" lon="8.48414">
        <ele>2370</ele>
        <time>2021-08-12T09:17:00.454Z</time>
      </trkpt>
      <trkpt lat="46.86215" lon="8.48414">
        <ele>2371</ele>
        <time>2021-08-12T09:17:01.454Z</time>
      </trkpt>
      <trkpt lat="46.86214" lon="8.48413">
        <ele>2371</ele>
        <time>2021-08-12T09:17:02.455Z</time>
      </trkpt>
      <trkpt lat="46.86213" lon="8.48413">
        <ele>2371</ele>
        <time>2021-08-12T09:17:03.454Z</time>
      </trkpt>
      <trkpt lat="46.86212" lon="8.48414">
        <ele>2371</ele>
        <time>2021-08-12T09:17:04.455Z</time>
      </trkpt>
      <trkpt lat="46.86212" lon="8.48414">
        <ele>2371</ele>
        <time>2021-08-12T09:17:05.455Z</time>
      </trkpt>
      <trkpt lat="46.86211" lon="8.48414">
        <ele>2371</ele>
        <time>2021-08-12T09:17:06.455Z</time>
      </trkpt>
      <trkpt lat="46.8621" lon="8.48415">
        <ele>2371</ele>
        <time>2021-08-12T09:17:07.455Z</time>
      </trkpt>
      <trkpt lat="46.86209" lon="8.48415">
        <ele>2371</ele>
        <time>2021-08-12T09:17:08.455Z</time>
      </trkpt>
      <trkpt lat="46.86208" lon="8.48416">
        <ele>2371</ele>
        <time>2021-08-12T09:17:09.455Z</time>
      </trkpt>
      <trkpt lat="46.86207" lon="8.48417">
        <ele>2371</ele>
        <time>2021-08-12T09:17:10.455Z</time>
      </trkpt>
      <trkpt lat="46.86206" lon="8.48417">
        <ele>2372</ele>
        <time>2021-08-12T09:17:11.454Z</time>
      </trkpt>
      <trkpt lat="46.86206" lon="8.48418">
        <ele>2372</ele>
        <time>2021-08-12T09:17:12.455Z</time>
      </trkpt>
      <trkpt lat="46.86205" lon="8.48418">
        <ele>2372</ele>
        <time>2021-08-12T09:17:13.455Z</time>
      </trkpt>
      <trkpt lat="46.86204" lon="8.48419">
        <ele>2372</ele>
        <time>2021-08-12T09:17:14.455Z</time>
      </trkpt>
      <trkpt lat="46.86204" lon="8.4842">
        <ele>2372</ele>
        <time>2021-08-12T09:17:15.455Z</time>
      </trkpt>
      <trkpt lat="46.86203" lon="8.48422">
        <ele>2371</ele>
        <time>2021-08-12T09:17:16.455Z</time>
      </trkpt>
      <trkpt lat="46.86203" lon="8.48423">
        <ele>2371</ele>
        <time>2021-08-12T09:17:17.455Z</time>
      </trkpt>
      <trkpt lat="46.86202" lon="8.48424">
        <ele>2371</ele>
        <time>2021-08-12T09:17:18.455Z</time>
      </trkpt>
      <trkpt lat="46.86201" lon="8.48425">
        <ele>2370</ele>
        <time>2021-08-12T09:17:19.455Z</time>
      </trkpt>
      <trkpt lat="46.862" lon="8.48425">
        <ele>2370</ele>
        <time>2021-08-12T09:17:20.454Z</time>
      </trkpt>
      <trkpt lat="46.862" lon="8.48425">
        <ele>2370</ele>
        <time>2021-08-12T09:17:21.455Z</time>
      </trkpt>
      <trkpt lat="46.86199" lon="8.48425">
        <ele>2370</ele>
        <time>2021-08-12T09:17:22.455Z</time>
      </trkpt>
      <trkpt lat="46.86198" lon="8.48425">
        <ele>2371</ele>
        <time>2021-08-12T09:17:23.454Z</time>
      </trkpt>
      <trkpt lat="46.86197" lon="8.48425">
        <ele>2371</ele>
        <time>2021-08-12T09:17:24.454Z</time>
      </trkpt>
      <trkpt lat="46.86197" lon="8.48426">
        <ele>2370</ele>
        <time>2021-08-12T09:17:25.454Z</time>
      </trkpt>
      <trkpt lat="46.86196" lon="8.48427">
        <ele>2370</ele>
        <time>2021-08-12T09:17:26.455Z</time>
      </trkpt>
      <trkpt lat="46.86196" lon="8.48428">
        <ele>2369</ele>
        <time>2021-08-12T09:17:27.454Z</time>
      </trkpt>
      <trkpt lat="46.86195" lon="8.48428">
        <ele>2368</ele>
        <time>2021-08-12T09:17:28.454Z</time>
      </trkpt>
      <trkpt lat="46.86195" lon="8.48429">
        <ele>2368</ele>
        <time>2021-08-12T09:17:29.455Z</time>
      </trkpt>
      <trkpt lat="46.86195" lon="8.48429">
        <ele>2368</ele>
        <time>2021-08-12T09:17:30.454Z</time>
      </trkpt>
      <trkpt lat="46.86195" lon="8.48429">
        <ele>2367</ele>
        <time>2021-08-12T09:17:31.455Z</time>
      </trkpt>
      <trkpt lat="46.86195" lon="8.48429">
        <ele>2366</ele>
        <time>2021-08-12T09:17:32.455Z</time>
      </trkpt>
      <trkpt lat="46.86194" lon="8.48429">
        <ele>2365</ele>
        <time>2021-08-12T09:17:33.454Z</time>
      </trkpt>
      <trkpt lat="46.86193" lon="8.48429">
        <ele>2365</ele>
        <time>2021-08-12T09:17:34.455Z</time>
      </trkpt>
      <trkpt lat="46.86193" lon="8.48428">
        <ele>2364</ele>
        <time>2021-08-12T09:17:35.455Z</time>
      </trkpt>
      <trkpt lat="46.86192" lon="8.48428">
        <ele>2364</ele>
        <time>2021-08-12T09:17:36.455Z</time>
      </trkpt>
      <trkpt lat="46.86191" lon="8.48428">
        <ele>2363</ele>
        <time>2021-08-12T09:17:37.455Z</time>
      </trkpt>
      <trkpt lat="46.8619" lon="8.48427">
        <ele>2363</ele>
        <time>2021-08-12T09:17:38.455Z</time>
      </trkpt>
      <trkpt lat="46.86188" lon="8.48426">
        <ele>2363</ele>
        <time>2021-08-12T09:17:39.455Z</time>
      </trkpt>
      <trkpt lat="46.86187" lon="8.48425">
        <ele>2364</ele>
        <time>2021-08-12T09:17:40.455Z</time>
      </trkpt>
      <trkpt lat="46.86186" lon="8.48425">
        <ele>2364</ele>
        <time>2021-08-12T09:17:41.455Z</time>
      </trkpt>
      <trkpt lat="46.86185" lon="8.48424">
        <ele>2365</ele>
        <time>2021-08-12T09:17:42.454Z</time>
      </trkpt>
      <trkpt lat="46.86184" lon="8.48423">
        <ele>2366</ele>
        <time>2021-08-12T09:17:43.454Z</time>
      </trkpt>
      <trkpt lat="46.86183" lon="8.48423">
        <ele>2367</ele>
        <time>2021-08-12T09:17:44.454Z</time>
      </trkpt>
      <trkpt lat="46.86182" lon="8.48422">
        <ele>2367</ele>
        <time>2021-08-12T09:17:45.455Z</time>
      </trkpt>
      <trkpt lat="46.86181" lon="8.48422">
        <ele>2368</ele>
        <time>2021-08-12T09:17:46.455Z</time>
      </trkpt>
      <trkpt lat="46.8618" lon="8.48422">
        <ele>2368</ele>
        <time>2021-08-12T09:17:47.455Z</time>
      </trkpt>
      <trkpt lat="46.86179" lon="8.48422">
        <ele>2369</ele>
        <time>2021-08-12T09:17:48.454Z</time>
      </trkpt>
      <trkpt lat="46.86179" lon="8.48422">
        <ele>2369</ele>
        <time>2021-08-12T09:17:49.455Z</time>
      </trkpt>
      <trkpt lat="46.86178" lon="8.48422">
        <ele>2369</ele>
        <time>2021-08-12T09:17:50.455Z</time>
      </trkpt>
      <trkpt lat="46.86177" lon="8.48423">
        <ele>2368</ele>
        <time>2021-08-12T09:17:51.455Z</time>
      </trkpt>
      <trkpt lat="46.86176" lon="8.48423">
        <ele>2368</ele>
        <time>2021-08-12T09:17:52.455Z</time>
      </trkpt>
      <trkpt lat="46.86175" lon="8.48424">
        <ele>2368</ele>
        <time>2021-08-12T09:17:53.455Z</time>
      </trkpt>
      <trkpt lat="46.86174" lon="8.48424">
        <ele>2368</ele>
        <time>2021-08-12T09:17:54.455Z</time>
      </trkpt>
      <trkpt lat="46.86173" lon="8.48424">
        <ele>2368</ele>
        <time>2021-08-12T09:17:55.455Z</time>
      </trkpt>
      <trkpt lat="46.86171" lon="8.48423">
        <ele>2368</ele>
        <time>2021-08-12T09:17:56.454Z</time>
      </trkpt>
      <trkpt lat="46.8617" lon="8.48423">
        <ele>2368</ele>
        <time>2021-08-12T09:17:57.454Z</time>
      </trkpt>
      <trkpt lat="46.86168" lon="8.48421">
        <ele>2368</ele>
        <time>2021-08-12T09:17:58.454Z</time>
      </trkpt>
      <trkpt lat="46.86167" lon="8.4842">
        <ele>2368</ele>
        <time>2021-08-12T09:17:59.454Z</time>
      </trkpt>
      <trkpt lat="46.86166" lon="8.4842">
        <ele>2369</ele>
        <time>2021-08-12T09:18:00.455Z</time>
      </trkpt>
      <trkpt lat="46.86165" lon="8.48419">
        <ele>2370</ele>
        <time>2021-08-12T09:18:01.455Z</time>
      </trkpt>
      <trkpt lat="46.86164" lon="8.48418">
        <ele>2370</ele>
        <time>2021-08-12T09:18:02.454Z</time>
      </trkpt>
      <trkpt lat="46.86163" lon="8.48417">
        <ele>2371</ele>
        <time>2021-08-12T09:18:03.455Z</time>
      </trkpt>
      <trkpt lat="46.86162" lon="8.48415">
        <ele>2371</ele>
        <time>2021-08-12T09:18:04.455Z</time>
      </trkpt>
      <trkpt lat="46.86161" lon="8.48415">
        <ele>2372</ele>
        <time>2021-08-12T09:18:05.455Z</time>
      </trkpt>
      <trkpt lat="46.86161" lon="8.48416">
        <ele>2372</ele>
        <time>2021-08-12T09:18:06.455Z</time>
      </trkpt>
      <trkpt lat="46.8616" lon="8.48416">
        <ele>2372</ele>
        <time>2021-08-12T09:18:07.455Z</time>
      </trkpt>
      <trkpt lat="46.86159" lon="8.48416">
        <ele>2372</ele>
        <time>2021-08-12T09:18:08.455Z</time>
      </trkpt>
      <trkpt lat="46.86159" lon="8.48416">
        <ele>2371</ele>
        <time>2021-08-12T09:18:09.454Z</time>
      </trkpt>
      <trkpt lat="46.86158" lon="8.48417">
        <ele>2370</ele>
        <time>2021-08-12T09:18:10.455Z</time>
      </trkpt>
      <trkpt lat="46.86158" lon="8.48417">
        <ele>2369</ele>
        <time>2021-08-12T09:18:11.455Z</time>
      </trkpt>
      <trkpt lat="46.86157" lon="8.48417">
        <ele>2368</ele>
        <time>2021-08-12T09:18:12.454Z</time>
      </trkpt>
      <trkpt lat="46.86156" lon="8.48417">
        <ele>2367</ele>
        <time>2021-08-12T09:18:13.454Z</time>
      </trkpt>
      <trkpt lat="46.86155" lon="8.48416">
        <ele>2367</ele>
        <time>2021-08-12T09:18:14.455Z</time>
      </trkpt>
      <trkpt lat="46.86154" lon="8.48416">
        <ele>2366</ele>
        <time>2021-08-12T09:18:15.454Z</time>
      </trkpt>
      <trkpt lat="46.86154" lon="8.48416">
        <ele>2366</ele>
        <time>2021-08-12T09:18:16.454Z</time>
      </trkpt>
      <trkpt lat="46.86153" lon="8.48415">
        <ele>2365</ele>
        <time>2021-08-12T09:18:17.454Z</time>
      </trkpt>
      <trkpt lat="46.86152" lon="8.48415">
        <ele>2365</ele>
        <time>2021-08-12T09:18:18.455Z</time>
      </trkpt>
      <trkpt lat="46.86151" lon="8.48414">
        <ele>2365</ele>
        <time>2021-08-12T09:18:19.455Z</time>
      </trkpt>
      <trkpt lat="46.8615" lon="8.48413">
        <ele>2365</ele>
        <time>2021-08-12T09:18:20.455Z</time>
      </trkpt>
      <trkpt lat="46.86149" lon="8.48412">
        <ele>2364</ele>
        <time>2021-08-12T09:18:21.455Z</time>
      </trkpt>
      <trkpt lat="46.86148" lon="8.48413">
        <ele>2364</ele>
        <time>2021-08-12T09:18:22.455Z</time>
      </trkpt>
      <trkpt lat="46.86148" lon="8.48413">
        <ele>2363</ele>
        <time>2021-08-12T09:18:23.455Z</time>
      </trkpt>
      <trkpt lat="46.86147" lon="8.48413">
        <ele>2363</ele>
        <time>2021-08-12T09:18:24.455Z</time>
      </trkpt>
      <trkpt lat="46.86146" lon="8.48414">
        <ele>2363</ele>
        <time>2021-08-12T09:18:25.454Z</time>
      </trkpt>
      <trkpt lat="46.86145" lon="8.48415">
        <ele>2362</ele>
        <time>2021-08-12T09:18:26.455Z</time>
      </trkpt>
      <trkpt lat="46.86144" lon="8.48416">
        <ele>2362</ele>
        <time>2021-08-12T09:18:27.455Z</time>
      </trkpt>
      <trkpt lat="46.86143" lon="8.48416">
        <ele>2362</ele>
        <time>2021-08-12T09:18:28.455Z</time>
      </trkpt>
      <trkpt lat="46.86142" lon="8.48416">
        <ele>2363</ele>
        <time>2021-08-12T09:18:29.454Z</time>
      </trkpt>
      <trkpt lat="46.86141" lon="8.48416">
        <ele>2363</ele>
        <time>2021-08-12T09:18:30.455Z</time>
      </trkpt>
      <trkpt lat="46.8614" lon="8.48416">
        <ele>2363</ele>
        <time>2021-08-12T09:18:31.455Z</time>
      </trkpt>
      <trkpt lat="46.8614" lon="8.48415">
        <ele>2364</ele>
        <time>2021-08-12T09:18:32.455Z</time>
      </trkpt>
      <trkpt lat="46.86139" lon="8.48415">
        <ele>2364</ele>
        <time>2021-08-12T09:18:33.454Z</time>
      </trkpt>
      <trkpt lat="46.86138" lon="8.48415">
        <ele>2365</ele>
        <time>2021-08-12T09:18:34.454Z</time>
      </trkpt>
      <trkpt lat="46.86137" lon="8.48415">
        <ele>2365</ele>
        <time>2021-08-12T09:18:35.454Z</time>
      </trkpt>
      <trkpt lat="46.86136" lon="8.48415">
        <ele>2366</ele>
        <time>2021-08-12T09:18:36.454Z</time>
      </trkpt>
      <trkpt lat="46.86135" lon="8.48415">
        <ele>2367</ele>
        <time>2021-08-12T09:18:37.455Z</time>
      </trkpt>
      <trkpt lat="46.86134" lon="8.48416">
        <ele>2367</ele>
        <time>2021-08-12T09:18:38.455Z</time>
      </trkpt>
      <trkpt lat="46.86134" lon="8.48417">
        <ele>2368</ele>
        <time>2021-08-12T09:18:39.454Z</time>
      </trkpt>
      <trkpt lat="46.86133" lon="8.48417">
        <ele>2368</ele>
        <time>2021-08-12T09:18:40.455Z</time>
      </trkpt>
      <trkpt lat="46.86133" lon="8.48417">
        <ele>2368</ele>
        <time>2021-08-12T09:18:41.455Z</time>
      </trkpt>
      <trkpt lat="46.86132" lon="8.48417">
        <ele>2368</ele>
        <time>2021-08-12T09:18:42.455Z</time>
      </trkpt>
      <trkpt lat="46.86132" lon="8.48418">
        <ele>2368</ele>
        <time>2021-08-12T09:18:43.455Z</time>
      </trkpt>
      <trkpt lat="46.8613" lon="8.48418">
        <ele>2369</ele>
        <time>2021-08-12T09:18:44.454Z</time>
      </trkpt>
      <trkpt lat="46.8613" lon="8.48419">
        <ele>2369</ele>
        <time>2021-08-12T09:18:45.455Z</time>
      </trkpt>
      <trkpt lat="46.86129" lon="8.4842">
        <ele>2369</ele>
        <time>2021-08-12T09:18:46.455Z</time>
      </trkpt>
      <trkpt lat="46.86128" lon="8.48421">
        <ele>2369</ele>
        <time>2021-08-12T09:18:47.454Z</time>
      </trkpt>
      <trkpt lat="46.86127" lon="8.4842">
        <ele>2370</ele>
        <time>2021-08-12T09:18:48.455Z</time>
      </trkpt>
      <trkpt lat="46.86125" lon="8.4842">
        <ele>2370</ele>
        <time>2021-08-12T09:18:49.454Z</time>
      </trkpt>
      <trkpt lat="46.86124" lon="8.48418">
        <ele>2370</ele>
        <time>2021-08-12T09:18:50.455Z</time>
      </trkpt>
      <trkpt lat="46.86123" lon="8.48418">
        <ele>2371</ele>
        <time>2021-08-12T09:18:51.454Z</time>
      </trkpt>
      <trkpt lat="46.86121" lon="8.48421">
        <ele>2371</ele>
        <time>2021-08-12T09:18:52.455Z</time>
      </trkpt>
      <trkpt lat="46.8612" lon="8.48421">
        <ele>2372</ele>
        <time>2021-08-12T09:18:53.455Z</time>
      </trkpt>
      <trkpt lat="46.86118" lon="8.48421">
        <ele>2372</ele>
        <time>2021-08-12T09:18:54.455Z</time>
      </trkpt>
      <trkpt lat="46.86117" lon="8.48421">
        <ele>2372</ele>
        <time>2021-08-12T09:18:55.454Z</time>
      </trkpt>
      <trkpt lat="46.86116" lon="8.48422">
        <ele>2372</ele>
        <time>2021-08-12T09:18:56.455Z</time>
      </trkpt>
      <trkpt lat="46.86115" lon="8.48423">
        <ele>2372</ele>
        <time>2021-08-12T09:18:57.454Z</time>
      </trkpt>
      <trkpt lat="46.86115" lon="8.48424">
        <ele>2373</ele>
        <time>2021-08-12T09:18:58.455Z</time>
      </trkpt>
      <trkpt lat="46.86114" lon="8.48425">
        <ele>2373</ele>
        <time>2021-08-12T09:18:59.455Z</time>
      </trkpt>
      <trkpt lat="46.86113" lon="8.48426">
        <ele>2373</ele>
        <time>2021-08-12T09:19:00.454Z</time>
      </trkpt>
      <trkpt lat="46.86112" lon="8.48427">
        <ele>2373</ele>
        <time>2021-08-12T09:19:01.455Z</time>
      </trkpt>
      <trkpt lat="46.86112" lon="8.48427">
        <ele>2373</ele>
        <time>2021-08-12T09:19:02.455Z</time>
      </trkpt>
      <trkpt lat="46.86111" lon="8.48427">
        <ele>2373</ele>
        <time>2021-08-12T09:19:03.455Z</time>
      </trkpt>
      <trkpt lat="46.8611" lon="8.48428">
        <ele>2373</ele>
        <time>2021-08-12T09:19:04.454Z</time>
      </trkpt>
      <trkpt lat="46.86109" lon="8.48427">
        <ele>2374</ele>
        <time>2021-08-12T09:19:05.455Z</time>
      </trkpt>
      <trkpt lat="46.86108" lon="8.48427">
        <ele>2374</ele>
        <time>2021-08-12T09:19:06.455Z</time>
      </trkpt>
      <trkpt lat="46.86107" lon="8.48427">
        <ele>2374</ele>
        <time>2021-08-12T09:19:07.455Z</time>
      </trkpt>
      <trkpt lat="46.86107" lon="8.48427">
        <ele>2374</ele>
        <time>2021-08-12T09:19:08.454Z</time>
      </trkpt>
      <trkpt lat="46.86106" lon="8.48427">
        <ele>2374</ele>
        <time>2021-08-12T09:19:09.454Z</time>
      </trkpt>
      <trkpt lat="46.86105" lon="8.48428">
        <ele>2374</ele>
        <time>2021-08-12T09:19:10.455Z</time>
      </trkpt>
      <trkpt lat="46.86104" lon="8.48428">
        <ele>2373</ele>
        <time>2021-08-12T09:19:11.454Z</time>
      </trkpt>
      <trkpt lat="46.86103" lon="8.48429">
        <ele>2373</ele>
        <time>2021-08-12T09:19:12.455Z</time>
      </trkpt>
      <trkpt lat="46.86102" lon="8.4843">
        <ele>2374</ele>
        <time>2021-08-12T09:19:13.455Z</time>
      </trkpt>
      <trkpt lat="46.86101" lon="8.48429">
        <ele>2374</ele>
        <time>2021-08-12T09:19:14.455Z</time>
      </trkpt>
      <trkpt lat="46.861" lon="8.48429">
        <ele>2374</ele>
        <time>2021-08-12T09:19:15.454Z</time>
      </trkpt>
      <trkpt lat="46.86099" lon="8.48428">
        <ele>2374</ele>
        <time>2021-08-12T09:19:16.455Z</time>
      </trkpt>
      <trkpt lat="46.86098" lon="8.48427">
        <ele>2375</ele>
        <time>2021-08-12T09:19:17.454Z</time>
      </trkpt>
      <trkpt lat="46.86098" lon="8.48426">
        <ele>2375</ele>
        <time>2021-08-12T09:19:18.454Z</time>
      </trkpt>
      <trkpt lat="46.86097" lon="8.48425">
        <ele>2375</ele>
        <time>2021-08-12T09:19:19.455Z</time>
      </trkpt>
      <trkpt lat="46.86096" lon="8.48425">
        <ele>2375</ele>
        <time>2021-08-12T09:19:20.455Z</time>
      </trkpt>
      <trkpt lat="46.86095" lon="8.48424">
        <ele>2375</ele>
        <time>2021-08-12T09:19:21.455Z</time>
      </trkpt>
      <trkpt lat="46.86095" lon="8.48424">
        <ele>2376</ele>
        <time>2021-08-12T09:19:22.455Z</time>
      </trkpt>
      <trkpt lat="46.86094" lon="8.48424">
        <ele>2376</ele>
        <time>2021-08-12T09:19:23.454Z</time>
      </trkpt>
      <trkpt lat="46.86093" lon="8.48424">
        <ele>2377</ele>
        <time>2021-08-12T09:19:24.455Z</time>
      </trkpt>
      <trkpt lat="46.86093" lon="8.48423">
        <ele>2377</ele>
        <time>2021-08-12T09:19:25.455Z</time>
      </trkpt>
      <trkpt lat="46.86092" lon="8.48423">
        <ele>2377</ele>
        <time>2021-08-12T09:19:26.454Z</time>
      </trkpt>
      <trkpt lat="46.86091" lon="8.48422">
        <ele>2377</ele>
        <time>2021-08-12T09:19:27.455Z</time>
      </trkpt>
      <trkpt lat="46.86091" lon="8.48422">
        <ele>2377</ele>
        <time>2021-08-12T09:19:28.455Z</time>
      </trkpt>
      <trkpt lat="46.8609" lon="8.48423">
        <ele>2377</ele>
        <time>2021-08-12T09:19:29.454Z</time>
      </trkpt>
      <trkpt lat="46.8609" lon="8.48423">
        <ele>2376</ele>
        <time>2021-08-12T09:19:30.455Z</time>
      </trkpt>
      <trkpt lat="46.8609" lon="8.48424">
        <ele>2375</ele>
        <time>2021-08-12T09:19:31.454Z</time>
      </trkpt>
      <trkpt lat="46.86089" lon="8.48425">
        <ele>2375</ele>
        <time>2021-08-12T09:19:32.455Z</time>
      </trkpt>
      <trkpt lat="46.86089" lon="8.48426">
        <ele>2374</ele>
        <time>2021-08-12T09:19:33.455Z</time>
      </trkpt>
      <trkpt lat="46.86088" lon="8.48427">
        <ele>2374</ele>
        <time>2021-08-12T09:19:34.455Z</time>
      </trkpt>
      <trkpt lat="46.86087" lon="8.48428">
        <ele>2374</ele>
        <time>2021-08-12T09:19:35.454Z</time>
      </trkpt>
      <trkpt lat="46.86087" lon="8.48428">
        <ele>2373</ele>
        <time>2021-08-12T09:19:36.455Z</time>
      </trkpt>
      <trkpt lat="46.86086" lon="8.48428">
        <ele>2373</ele>
        <time>2021-08-12T09:19:37.455Z</time>
      </trkpt>
      <trkpt lat="46.86085" lon="8.48428">
        <ele>2373</ele>
        <time>2021-08-12T09:19:38.455Z</time>
      </trkpt>
      <trkpt lat="46.86084" lon="8.48429">
        <ele>2373</ele>
        <time>2021-08-12T09:19:39.454Z</time>
      </trkpt>
      <trkpt lat="46.86083" lon="8.48429">
        <ele>2373</ele>
        <time>2021-08-12T09:19:40.455Z</time>
      </trkpt>
      <trkpt lat="46.86083" lon="8.48429">
        <ele>2373</ele>
        <time>2021-08-12T09:19:41.454Z</time>
      </trkpt>
      <trkpt lat="46.86082" lon="8.4843">
        <ele>2373</ele>
        <time>2021-08-12T09:19:42.454Z</time>
      </trkpt>
      <trkpt lat="46.86082" lon="8.4843">
        <ele>2373</ele>
        <time>2021-08-12T09:19:43.455Z</time>
      </trkpt>
      <trkpt lat="46.86082" lon="8.4843">
        <ele>2373</ele>
        <time>2021-08-12T09:19:44.454Z</time>
      </trkpt>
      <trkpt lat="46.86082" lon="8.48431">
        <ele>2373</ele>
        <time>2021-08-12T09:19:45.455Z</time>
      </trkpt>
      <trkpt lat="46.86082" lon="8.48431">
        <ele>2373</ele>
        <time>2021-08-12T09:19:46.455Z</time>
      </trkpt>
      <trkpt lat="46.86081" lon="8.48432">
        <ele>2372</ele>
        <time>2021-08-12T09:19:47.455Z</time>
      </trkpt>
      <trkpt lat="46.86081" lon="8.48432">
        <ele>2372</ele>
        <time>2021-08-12T09:19:48.455Z</time>
      </trkpt>
      <trkpt lat="46.8608" lon="8.48432">
        <ele>2372</ele>
        <time>2021-08-12T09:19:49.455Z</time>
      </trkpt>
      <trkpt lat="46.8608" lon="8.48431">
        <ele>2372</ele>
        <time>2021-08-12T09:19:50.455Z</time>
      </trkpt>
      <trkpt lat="46.86078" lon="8.48433">
        <ele>2372</ele>
        <time>2021-08-12T09:19:51.454Z</time>
      </trkpt>
      <trkpt lat="46.86077" lon="8.48434">
        <ele>2372</ele>
        <time>2021-08-12T09:19:52.455Z</time>
      </trkpt>
      <trkpt lat="46.86077" lon="8.48434">
        <ele>2372</ele>
        <time>2021-08-12T09:19:53.455Z</time>
      </trkpt>
      <trkpt lat="46.86077" lon="8.48434">
        <ele>2372</ele>
        <time>2021-08-12T09:19:54.455Z</time>
      </trkpt>
      <trkpt lat="46.86077" lon="8.48434">
        <ele>2372</ele>
        <time>2021-08-12T09:19:55.455Z</time>
      </trkpt>
      <trkpt lat="46.86077" lon="8.48435">
        <ele>2371</ele>
        <time>2021-08-12T09:19:56.455Z</time>
      </trkpt>
      <trkpt lat="46.86077" lon="8.48435">
        <ele>2370</ele>
        <time>2021-08-12T09:19:57.455Z</time>
      </trkpt>
      <trkpt lat="46.86076" lon="8.48436">
        <ele>2370</ele>
        <time>2021-08-12T09:19:58.454Z</time>
      </trkpt>
      <trkpt lat="46.86075" lon="8.48436">
        <ele>2369</ele>
        <time>2021-08-12T09:19:59.455Z</time>
      </trkpt>
      <trkpt lat="46.86074" lon="8.48436">
        <ele>2368</ele>
        <time>2021-08-12T09:20:00.455Z</time>
      </trkpt>
      <trkpt lat="46.86074" lon="8.48436">
        <ele>2368</ele>
        <time>2021-08-12T09:20:01.455Z</time>
      </trkpt>
      <trkpt lat="46.86073" lon="8.48435">
        <ele>2368</ele>
        <time>2021-08-12T09:20:02.455Z</time>
      </trkpt>
      <trkpt lat="46.86072" lon="8.48435">
        <ele>2368</ele>
        <time>2021-08-12T09:20:03.455Z</time>
      </trkpt>
      <trkpt lat="46.86071" lon="8.48435">
        <ele>2368</ele>
        <time>2021-08-12T09:20:04.455Z</time>
      </trkpt>
      <trkpt lat="46.86071" lon="8.48435">
        <ele>2367</ele>
        <time>2021-08-12T09:20:05.455Z</time>
      </trkpt>
      <trkpt lat="46.8607" lon="8.48435">
        <ele>2367</ele>
        <time>2021-08-12T09:20:06.455Z</time>
      </trkpt>
      <trkpt lat="46.86069" lon="8.48434">
        <ele>2367</ele>
        <time>2021-08-12T09:20:07.454Z</time>
      </trkpt>
      <trkpt lat="46.86069" lon="8.48434">
        <ele>2366</ele>
        <time>2021-08-12T09:20:08.455Z</time>
      </trkpt>
      <trkpt lat="46.86068" lon="8.48434">
        <ele>2366</ele>
        <time>2021-08-12T09:20:09.455Z</time>
      </trkpt>
      <trkpt lat="46.86067" lon="8.48434">
        <ele>2366</ele>
        <time>2021-08-12T09:20:10.455Z</time>
      </trkpt>
      <trkpt lat="46.86066" lon="8.48435">
        <ele>2366</ele>
        <time>2021-08-12T09:20:11.455Z</time>
      </trkpt>
      <trkpt lat="46.86065" lon="8.48435">
        <ele>2367</ele>
        <time>2021-08-12T09:20:12.455Z</time>
      </trkpt>
      <trkpt lat="46.86065" lon="8.48436">
        <ele>2367</ele>
        <time>2021-08-12T09:20:13.454Z</time>
      </trkpt>
      <trkpt lat="46.86064" lon="8.48436">
        <ele>2368</ele>
        <time>2021-08-12T09:20:14.455Z</time>
      </trkpt>
      <trkpt lat="46.86063" lon="8.48436">
        <ele>2369</ele>
        <time>2021-08-12T09:20:15.454Z</time>
      </trkpt>
      <trkpt lat="46.86063" lon="8.48437">
        <ele>2370</ele>
        <time>2021-08-12T09:20:16.454Z</time>
      </trkpt>
      <trkpt lat="46.86062" lon="8.48437">
        <ele>2371</ele>
        <time>2021-08-12T09:20:17.455Z</time>
      </trkpt>
      <trkpt lat="46.86061" lon="8.48438">
        <ele>2372</ele>
        <time>2021-08-12T09:20:18.455Z</time>
      </trkpt>
      <trkpt lat="46.8606" lon="8.48438">
        <ele>2373</ele>
        <time>2021-08-12T09:20:19.454Z</time>
      </trkpt>
      <trkpt lat="46.86059" lon="8.48438">
        <ele>2374</ele>
        <time>2021-08-12T09:20:20.454Z</time>
      </trkpt>
      <trkpt lat="46.86058" lon="8.48437">
        <ele>2375</ele>
        <time>2021-08-12T09:20:21.454Z</time>
      </trkpt>
      <trkpt lat="46.86057" lon="8.48436">
        <ele>2375</ele>
        <time>2021-08-12T09:20:22.455Z</time>
      </trkpt>
      <trkpt lat="46.86056" lon="8.48436">
        <ele>2376</ele>
        <time>2021-08-12T09:20:23.455Z</time>
      </trkpt>
      <trkpt lat="46.86056" lon="8.48437">
        <ele>2376</ele>
        <time>2021-08-12T09:20:24.455Z</time>
      </trkpt>
      <trkpt lat="46.86055" lon="8.48437">
        <ele>2376</ele>
        <time>2021-08-12T09:20:25.455Z</time>
      </trkpt>
      <trkpt lat="46.86054" lon="8.48438">
        <ele>2376</ele>
        <time>2021-08-12T09:20:26.455Z</time>
      </trkpt>
      <trkpt lat="46.86054" lon="8.48438">
        <ele>2376</ele>
        <time>2021-08-12T09:20:27.455Z</time>
      </trkpt>
      <trkpt lat="46.86053" lon="8.48439">
        <ele>2376</ele>
        <time>2021-08-12T09:20:28.454Z</time>
      </trkpt>
      <trkpt lat="46.86052" lon="8.48438">
        <ele>2376</ele>
        <time>2021-08-12T09:20:29.455Z</time>
      </trkpt>
      <trkpt lat="46.86052" lon="8.48438">
        <ele>2376</ele>
        <time>2021-08-12T09:20:30.454Z</time>
      </trkpt>
      <trkpt lat="46.86051" lon="8.48439">
        <ele>2377</ele>
        <time>2021-08-12T09:20:31.455Z</time>
      </trkpt>
      <trkpt lat="46.8605" lon="8.48439">
        <ele>2377</ele>
        <time>2021-08-12T09:20:32.454Z</time>
      </trkpt>
      <trkpt lat="46.8605" lon="8.48439">
        <ele>2377</ele>
        <time>2021-08-12T09:20:33.455Z</time>
      </trkpt>
      <trkpt lat="46.86049" lon="8.48441">
        <ele>2377</ele>
        <time>2021-08-12T09:20:34.455Z</time>
      </trkpt>
      <trkpt lat="46.86049" lon="8.48442">
        <ele>2378</ele>
        <time>2021-08-12T09:20:35.454Z</time>
      </trkpt>
      <trkpt lat="46.86049" lon="8.48443">
        <ele>2378</ele>
        <time>2021-08-12T09:20:36.455Z</time>
      </trkpt>
      <trkpt lat="46.86049" lon="8.48443">
        <ele>2379</ele>
        <time>2021-08-12T09:20:37.454Z</time>
      </trkpt>
      <trkpt lat="46.86047" lon="8.48444">
        <ele>2379</ele>
        <time>2021-08-12T09:20:38.455Z</time>
      </trkpt>
      <trkpt lat="46.86047" lon="8.48443">
        <ele>2380</ele>
        <time>2021-08-12T09:20:39.455Z</time>
      </trkpt>
      <trkpt lat="46.86047" lon="8.48444">
        <ele>2380</ele>
        <time>2021-08-12T09:20:40.455Z</time>
      </trkpt>
      <trkpt lat="46.86046" lon="8.48444">
        <ele>2381</ele>
        <time>2021-08-12T09:20:41.455Z</time>
      </trkpt>
      <trkpt lat="46.86047" lon="8.48444">
        <ele>2381</ele>
        <time>2021-08-12T09:20:42.454Z</time>
      </trkpt>
      <trkpt lat="46.86047" lon="8.48449">
        <ele>2383</ele>
        <time>2021-08-12T09:20:43.456Z</time>
      </trkpt>
      <trkpt lat="46.86046" lon="8.48449">
        <ele>2383</ele>
        <time>2021-08-12T09:20:44.456Z</time>
      </trkpt>
      <trkpt lat="46.86046" lon="8.48449">
        <ele>2384</ele>
        <time>2021-08-12T09:20:45.455Z</time>
      </trkpt>
      <trkpt lat="46.86046" lon="8.48448">
        <ele>2385</ele>
        <time>2021-08-12T09:20:46.455Z</time>
      </trkpt>
      <trkpt lat="46.86045" lon="8.48449">
        <ele>2385</ele>
        <time>2021-08-12T09:20:47.456Z</time>
      </trkpt>
      <trkpt lat="46.86044" lon="8.48449">
        <ele>2386</ele>
        <time>2021-08-12T09:20:48.456Z</time>
      </trkpt>
      <trkpt lat="46.86044" lon="8.4845">
        <ele>2386</ele>
        <time>2021-08-12T09:20:49.456Z</time>
      </trkpt>
      <trkpt lat="46.86043" lon="8.4845">
        <ele>2387</ele>
        <time>2021-08-12T09:20:50.455Z</time>
      </trkpt>
      <trkpt lat="46.86043" lon="8.48451">
        <ele>2387</ele>
        <time>2021-08-12T09:20:51.455Z</time>
      </trkpt>
      <trkpt lat="46.86042" lon="8.48451">
        <ele>2387</ele>
        <time>2021-08-12T09:20:52.455Z</time>
      </trkpt>
      <trkpt lat="46.86042" lon="8.48451">
        <ele>2387</ele>
        <time>2021-08-12T09:20:53.456Z</time>
      </trkpt>
      <trkpt lat="46.86041" lon="8.48451">
        <ele>2387</ele>
        <time>2021-08-12T09:20:54.455Z</time>
      </trkpt>
      <trkpt lat="46.86041" lon="8.48451">
        <ele>2387</ele>
        <time>2021-08-12T09:20:55.456Z</time>
      </trkpt>
      <trkpt lat="46.86041" lon="8.48451">
        <ele>2387</ele>
        <time>2021-08-12T09:20:56.456Z</time>
      </trkpt>
      <trkpt lat="46.8604" lon="8.48451">
        <ele>2387</ele>
        <time>2021-08-12T09:20:57.456Z</time>
      </trkpt>
      <trkpt lat="46.8604" lon="8.48451">
        <ele>2387</ele>
        <time>2021-08-12T09:20:58.456Z</time>
      </trkpt>
      <trkpt lat="46.86039" lon="8.48452">
        <ele>2387</ele>
        <time>2021-08-12T09:20:59.456Z</time>
      </trkpt>
      <trkpt lat="46.86039" lon="8.48453">
        <ele>2387</ele>
        <time>2021-08-12T09:21:00.456Z</time>
      </trkpt>
      <trkpt lat="46.86038" lon="8.48454">
        <ele>2387</ele>
        <time>2021-08-12T09:21:01.456Z</time>
      </trkpt>
      <trkpt lat="46.86038" lon="8.48453">
        <ele>2387</ele>
        <time>2021-08-12T09:21:02.455Z</time>
      </trkpt>
      <trkpt lat="46.86036" lon="8.48452">
        <ele>2386</ele>
        <time>2021-08-12T09:21:03.456Z</time>
      </trkpt>
      <trkpt lat="46.86035" lon="8.48452">
        <ele>2386</ele>
        <time>2021-08-12T09:21:04.455Z</time>
      </trkpt>
      <trkpt lat="46.86035" lon="8.48452">
        <ele>2385</ele>
        <time>2021-08-12T09:21:05.456Z</time>
      </trkpt>
      <trkpt lat="46.86035" lon="8.48451">
        <ele>2385</ele>
        <time>2021-08-12T09:21:06.456Z</time>
      </trkpt>
      <trkpt lat="46.86035" lon="8.48451">
        <ele>2384</ele>
        <time>2021-08-12T09:21:07.455Z</time>
      </trkpt>
      <trkpt lat="46.86035" lon="8.48451">
        <ele>2384</ele>
        <time>2021-08-12T09:21:08.455Z</time>
      </trkpt>
      <trkpt lat="46.86035" lon="8.48451">
        <ele>2384</ele>
        <time>2021-08-12T09:21:09.455Z</time>
      </trkpt>
      <trkpt lat="46.86035" lon="8.48451">
        <ele>2383</ele>
        <time>2021-08-12T09:21:10.456Z</time>
      </trkpt>
      <trkpt lat="46.86034" lon="8.48451">
        <ele>2383</ele>
        <time>2021-08-12T09:21:11.455Z</time>
      </trkpt>
      <trkpt lat="46.86034" lon="8.48451">
        <ele>2382</ele>
        <time>2021-08-12T09:21:12.455Z</time>
      </trkpt>
      <trkpt lat="46.86033" lon="8.48451">
        <ele>2382</ele>
        <time>2021-08-12T09:21:13.455Z</time>
      </trkpt>
      <trkpt lat="46.86032" lon="8.48452">
        <ele>2381</ele>
        <time>2021-08-12T09:21:14.455Z</time>
      </trkpt>
      <trkpt lat="46.86032" lon="8.48452">
        <ele>2381</ele>
        <time>2021-08-12T09:21:15.455Z</time>
      </trkpt>
      <trkpt lat="46.86031" lon="8.48452">
        <ele>2381</ele>
        <time>2021-08-12T09:21:16.455Z</time>
      </trkpt>
      <trkpt lat="46.8603" lon="8.48452">
        <ele>2380</ele>
        <time>2021-08-12T09:21:17.455Z</time>
      </trkpt>
      <trkpt lat="46.8603" lon="8.48453">
        <ele>2380</ele>
        <time>2021-08-12T09:21:18.455Z</time>
      </trkpt>
      <trkpt lat="46.86029" lon="8.48453">
        <ele>2380</ele>
        <time>2021-08-12T09:21:19.456Z</time>
      </trkpt>
      <trkpt lat="46.86029" lon="8.48453">
        <ele>2380</ele>
        <time>2021-08-12T09:21:20.455Z</time>
      </trkpt>
      <trkpt lat="46.86029" lon="8.48452">
        <ele>2380</ele>
        <time>2021-08-12T09:21:21.455Z</time>
      </trkpt>
      <trkpt lat="46.8603" lon="8.4845">
        <ele>2380</ele>
        <time>2021-08-12T09:21:22.455Z</time>
      </trkpt>
      <trkpt lat="46.86031" lon="8.48449">
        <ele>2380</ele>
        <time>2021-08-12T09:21:23.455Z</time>
      </trkpt>
      <trkpt lat="46.86031" lon="8.48449">
        <ele>2379</ele>
        <time>2021-08-12T09:21:24.455Z</time>
      </trkpt>
      <trkpt lat="46.86031" lon="8.48449">
        <ele>2380</ele>
        <time>2021-08-12T09:21:25.456Z</time>
      </trkpt>
      <trkpt lat="46.86031" lon="8.48448">
        <ele>2379</ele>
        <time>2021-08-12T09:21:26.455Z</time>
      </trkpt>
      <trkpt lat="46.8603" lon="8.48448">
        <ele>2379</ele>
        <time>2021-08-12T09:21:27.455Z</time>
      </trkpt>
      <trkpt lat="46.8603" lon="8.48447">
        <ele>2378</ele>
        <time>2021-08-12T09:21:28.456Z</time>
      </trkpt>
      <trkpt lat="46.86029" lon="8.48447">
        <ele>2378</ele>
        <time>2021-08-12T09:21:29.455Z</time>
      </trkpt>
      <trkpt lat="46.86028" lon="8.48446">
        <ele>2377</ele>
        <time>2021-08-12T09:21:30.456Z</time>
      </trkpt>
      <trkpt lat="46.86027" lon="8.48446">
        <ele>2376</ele>
        <time>2021-08-12T09:21:31.456Z</time>
      </trkpt>
      <trkpt lat="46.86027" lon="8.48446">
        <ele>2376</ele>
        <time>2021-08-12T09:21:32.455Z</time>
      </trkpt>
      <trkpt lat="46.86026" lon="8.48446">
        <ele>2376</ele>
        <time>2021-08-12T09:21:33.456Z</time>
      </trkpt>
      <trkpt lat="46.86025" lon="8.48447">
        <ele>2376</ele>
        <time>2021-08-12T09:21:34.456Z</time>
      </trkpt>
      <trkpt lat="46.86025" lon="8.48448">
        <ele>2376</ele>
        <time>2021-08-12T09:21:35.456Z</time>
      </trkpt>
      <trkpt lat="46.86024" lon="8.48449">
        <ele>2376</ele>
        <time>2021-08-12T09:21:36.456Z</time>
      </trkpt>
      <trkpt lat="46.86025" lon="8.48449">
        <ele>2376</ele>
        <time>2021-08-12T09:21:37.456Z</time>
      </trkpt>
      <trkpt lat="46.86024" lon="8.48449">
        <ele>2376</ele>
        <time>2021-08-12T09:21:38.455Z</time>
      </trkpt>
      <trkpt lat="46.86024" lon="8.48448">
        <ele>2376</ele>
        <time>2021-08-12T09:21:39.455Z</time>
      </trkpt>
      <trkpt lat="46.86024" lon="8.48448">
        <ele>2376</ele>
        <time>2021-08-12T09:21:40.456Z</time>
      </trkpt>
      <trkpt lat="46.86023" lon="8.48449">
        <ele>2376</ele>
        <time>2021-08-12T09:21:41.457Z</time>
      </trkpt>
      <trkpt lat="46.86023" lon="8.4845">
        <ele>2376</ele>
        <time>2021-08-12T09:21:42.457Z</time>
      </trkpt>
      <trkpt lat="46.86023" lon="8.48449">
        <ele>2376</ele>
        <time>2021-08-12T09:21:43.457Z</time>
      </trkpt>
      <trkpt lat="46.86023" lon="8.4845">
        <ele>2376</ele>
        <time>2021-08-12T09:21:44.457Z</time>
      </trkpt>
      <trkpt lat="46.86023" lon="8.48452">
        <ele>2379</ele>
        <time>2021-08-12T09:21:45.457Z</time>
      </trkpt>
      <trkpt lat="46.86022" lon="8.48453">
        <ele>2381</ele>
        <time>2021-08-12T09:21:46.456Z</time>
      </trkpt>
      <trkpt lat="46.86021" lon="8.48453">
        <ele>2382</ele>
        <time>2021-08-12T09:21:47.456Z</time>
      </trkpt>
      <trkpt lat="46.8602" lon="8.48452">
        <ele>2382</ele>
        <time>2021-08-12T09:21:48.456Z</time>
      </trkpt>
      <trkpt lat="46.86019" lon="8.48452">
        <ele>2383</ele>
        <time>2021-08-12T09:21:49.456Z</time>
      </trkpt>
      <trkpt lat="46.86018" lon="8.48452">
        <ele>2384</ele>
        <time>2021-08-12T09:21:50.456Z</time>
      </trkpt>
      <trkpt lat="46.86018" lon="8.48453">
        <ele>2385</ele>
        <time>2021-08-12T09:21:51.457Z</time>
      </trkpt>
      <trkpt lat="46.86018" lon="8.48454">
        <ele>2386</ele>
        <time>2021-08-12T09:21:52.456Z</time>
      </trkpt>
      <trkpt lat="46.86018" lon="8.48453">
        <ele>2386</ele>
        <time>2021-08-12T09:21:53.456Z</time>
      </trkpt>
      <trkpt lat="46.86018" lon="8.48452">
        <ele>2387</ele>
        <time>2021-08-12T09:21:54.456Z</time>
      </trkpt>
      <trkpt lat="46.86018" lon="8.48451">
        <ele>2388</ele>
        <time>2021-08-12T09:21:55.457Z</time>
      </trkpt>
      <trkpt lat="46.86018" lon="8.48451">
        <ele>2388</ele>
        <time>2021-08-12T09:21:56.456Z</time>
      </trkpt>
      <trkpt lat="46.86018" lon="8.48451">
        <ele>2389</ele>
        <time>2021-08-12T09:21:57.456Z</time>
      </trkpt>
      <trkpt lat="46.86018" lon="8.48451">
        <ele>2389</ele>
        <time>2021-08-12T09:21:58.457Z</time>
      </trkpt>
      <trkpt lat="46.86019" lon="8.4845">
        <ele>2389</ele>
        <time>2021-08-12T09:21:59.456Z</time>
      </trkpt>
      <trkpt lat="46.86019" lon="8.48449">
        <ele>2390</ele>
        <time>2021-08-12T09:22:00.456Z</time>
      </trkpt>
      <trkpt lat="46.8602" lon="8.48448">
        <ele>2390</ele>
        <time>2021-08-12T09:22:01.457Z</time>
      </trkpt>
      <trkpt lat="46.8602" lon="8.48448">
        <ele>2389</ele>
        <time>2021-08-12T09:22:02.456Z</time>
      </trkpt>
      <trkpt lat="46.86019" lon="8.48449">
        <ele>2390</ele>
        <time>2021-08-12T09:22:03.457Z</time>
      </trkpt>
      <trkpt lat="46.86017" lon="8.48451">
        <ele>2390</ele>
        <time>2021-08-12T09:22:04.456Z</time>
      </trkpt>
      <trkpt lat="46.86016" lon="8.48452">
        <ele>2390</ele>
        <time>2021-08-12T09:22:05.456Z</time>
      </trkpt>
      <trkpt lat="46.86016" lon="8.48452">
        <ele>2390</ele>
        <time>2021-08-12T09:22:06.456Z</time>
      </trkpt>
      <trkpt lat="46.86015" lon="8.48453">
        <ele>2390</ele>
        <time>2021-08-12T09:22:07.456Z</time>
      </trkpt>
      <trkpt lat="46.86014" lon="8.48453">
        <ele>2390</ele>
        <time>2021-08-12T09:22:08.456Z</time>
      </trkpt>
      <trkpt lat="46.86014" lon="8.48454">
        <ele>2390</ele>
        <time>2021-08-12T09:22:09.457Z</time>
      </trkpt>
      <trkpt lat="46.86014" lon="8.48454">
        <ele>2390</ele>
        <time>2021-08-12T09:22:10.457Z</time>
      </trkpt>
      <trkpt lat="46.86013" lon="8.48454">
        <ele>2391</ele>
        <time>2021-08-12T09:22:11.457Z</time>
      </trkpt>
      <trkpt lat="46.86013" lon="8.48453">
        <ele>2391</ele>
        <time>2021-08-12T09:22:12.457Z</time>
      </trkpt>
      <trkpt lat="46.86012" lon="8.48453">
        <ele>2391</ele>
        <time>2021-08-12T09:22:13.456Z</time>
      </trkpt>
      <trkpt lat="46.86011" lon="8.48454">
        <ele>2391</ele>
        <time>2021-08-12T09:22:14.456Z</time>
      </trkpt>
      <trkpt lat="46.8601" lon="8.48455">
        <ele>2392</ele>
        <time>2021-08-12T09:22:15.456Z</time>
      </trkpt>
      <trkpt lat="46.8601" lon="8.48456">
        <ele>2392</ele>
        <time>2021-08-12T09:22:16.456Z</time>
      </trkpt>
      <trkpt lat="46.86009" lon="8.48457">
        <ele>2393</ele>
        <time>2021-08-12T09:22:17.456Z</time>
      </trkpt>
      <trkpt lat="46.86007" lon="8.48459">
        <ele>2393</ele>
        <time>2021-08-12T09:22:18.457Z</time>
      </trkpt>
      <trkpt lat="46.86006" lon="8.48461">
        <ele>2394</ele>
        <time>2021-08-12T09:22:19.456Z</time>
      </trkpt>
      <trkpt lat="46.86005" lon="8.48462">
        <ele>2395</ele>
        <time>2021-08-12T09:22:20.456Z</time>
      </trkpt>
      <trkpt lat="46.86005" lon="8.48462">
        <ele>2395</ele>
        <time>2021-08-12T09:22:21.456Z</time>
      </trkpt>
      <trkpt lat="46.86004" lon="8.48463">
        <ele>2395</ele>
        <time>2021-08-12T09:22:22.456Z</time>
      </trkpt>
      <trkpt lat="46.86003" lon="8.48463">
        <ele>2394</ele>
        <time>2021-08-12T09:22:23.457Z</time>
      </trkpt>
      <trkpt lat="46.86002" lon="8.48463">
        <ele>2394</ele>
        <time>2021-08-12T09:22:24.457Z</time>
      </trkpt>
      <trkpt lat="46.86001" lon="8.48463">
        <ele>2393</ele>
        <time>2021-08-12T09:22:25.456Z</time>
      </trkpt>
      <trkpt lat="46.86" lon="8.48462">
        <ele>2392</ele>
        <time>2021-08-12T09:22:26.457Z</time>
      </trkpt>
      <trkpt lat="46.85999" lon="8.48463">
        <ele>2392</ele>
        <time>2021-08-12T09:22:27.456Z</time>
      </trkpt>
      <trkpt lat="46.85998" lon="8.48464">
        <ele>2391</ele>
        <time>2021-08-12T09:22:28.457Z</time>
      </trkpt>
      <trkpt lat="46.85998" lon="8.48465">
        <ele>2391</ele>
        <time>2021-08-12T09:22:29.457Z</time>
      </trkpt>
      <trkpt lat="46.85998" lon="8.48465">
        <ele>2390</ele>
        <time>2021-08-12T09:22:30.457Z</time>
      </trkpt>
      <trkpt lat="46.85998" lon="8.48465">
        <ele>2389</ele>
        <time>2021-08-12T09:22:31.456Z</time>
      </trkpt>
      <trkpt lat="46.85998" lon="8.48465">
        <ele>2389</ele>
        <time>2021-08-12T09:22:32.456Z</time>
      </trkpt>
      <trkpt lat="46.85998" lon="8.48465">
        <ele>2388</ele>
        <time>2021-08-12T09:22:33.456Z</time>
      </trkpt>
      <trkpt lat="46.85998" lon="8.48464">
        <ele>2388</ele>
        <time>2021-08-12T09:22:34.457Z</time>
      </trkpt>
      <trkpt lat="46.85997" lon="8.48464">
        <ele>2388</ele>
        <time>2021-08-12T09:22:35.457Z</time>
      </trkpt>
      <trkpt lat="46.85996" lon="8.48464">
        <ele>2388</ele>
        <time>2021-08-12T09:22:36.456Z</time>
      </trkpt>
      <trkpt lat="46.85996" lon="8.48463">
        <ele>2388</ele>
        <time>2021-08-12T09:22:37.456Z</time>
      </trkpt>
      <trkpt lat="46.85995" lon="8.48462">
        <ele>2388</ele>
        <time>2021-08-12T09:22:38.456Z</time>
      </trkpt>
      <trkpt lat="46.85995" lon="8.48462">
        <ele>2388</ele>
        <time>2021-08-12T09:22:39.456Z</time>
      </trkpt>
      <trkpt lat="46.85995" lon="8.48461">
        <ele>2388</ele>
        <time>2021-08-12T09:22:40.457Z</time>
      </trkpt>
      <trkpt lat="46.85995" lon="8.48461">
        <ele>2388</ele>
        <time>2021-08-12T09:22:41.456Z</time>
      </trkpt>
      <trkpt lat="46.85995" lon="8.4846">
        <ele>2388</ele>
        <time>2021-08-12T09:22:42.456Z</time>
      </trkpt>
      <trkpt lat="46.85995" lon="8.4846">
        <ele>2388</ele>
        <time>2021-08-12T09:22:43.456Z</time>
      </trkpt>
      <trkpt lat="46.85995" lon="8.48459">
        <ele>2389</ele>
        <time>2021-08-12T09:22:44.456Z</time>
      </trkpt>
      <trkpt lat="46.85995" lon="8.48459">
        <ele>2389</ele>
        <time>2021-08-12T09:22:45.456Z</time>
      </trkpt>
      <trkpt lat="46.85994" lon="8.48458">
        <ele>2389</ele>
        <time>2021-08-12T09:22:46.457Z</time>
      </trkpt>
      <trkpt lat="46.85994" lon="8.48459">
        <ele>2389</ele>
        <time>2021-08-12T09:22:47.457Z</time>
      </trkpt>
      <trkpt lat="46.85994" lon="8.48459">
        <ele>2390</ele>
        <time>2021-08-12T09:22:48.456Z</time>
      </trkpt>
      <trkpt lat="46.85994" lon="8.4846">
        <ele>2390</ele>
        <time>2021-08-12T09:22:49.456Z</time>
      </trkpt>
      <trkpt lat="46.85993" lon="8.48459">
        <ele>2389</ele>
        <time>2021-08-12T09:22:50.457Z</time>
      </trkpt>
      <trkpt lat="46.85993" lon="8.48459">
        <ele>2389</ele>
        <time>2021-08-12T09:22:51.457Z</time>
      </trkpt>
      <trkpt lat="46.85992" lon="8.48459">
        <ele>2389</ele>
        <time>2021-08-12T09:22:52.457Z</time>
      </trkpt>
      <trkpt lat="46.85992" lon="8.48459">
        <ele>2389</ele>
        <time>2021-08-12T09:22:53.457Z</time>
      </trkpt>
      <trkpt lat="46.85992" lon="8.48459">
        <ele>2389</ele>
        <time>2021-08-12T09:22:54.457Z</time>
      </trkpt>
      <trkpt lat="46.85991" lon="8.48459">
        <ele>2389</ele>
        <time>2021-08-12T09:22:55.456Z</time>
      </trkpt>
      <trkpt lat="46.85991" lon="8.48458">
        <ele>2389</ele>
        <time>2021-08-12T09:22:56.456Z</time>
      </trkpt>
      <trkpt lat="46.85987" lon="8.48465">
        <ele>2388</ele>
        <time>2021-08-12T09:22:57.456Z</time>
      </trkpt>
      <trkpt lat="46.85987" lon="8.48466">
        <ele>2388</ele>
        <time>2021-08-12T09:22:58.456Z</time>
      </trkpt>
      <trkpt lat="46.85986" lon="8.48467">
        <ele>2388</ele>
        <time>2021-08-12T09:22:59.456Z</time>
      </trkpt>
      <trkpt lat="46.85986" lon="8.48468">
        <ele>2389</ele>
        <time>2021-08-12T09:23:00.457Z</time>
      </trkpt>
      <trkpt lat="46.85986" lon="8.48468">
        <ele>2389</ele>
        <time>2021-08-12T09:23:01.457Z</time>
      </trkpt>
      <trkpt lat="46.85986" lon="8.48468">
        <ele>2389</ele>
        <time>2021-08-12T09:23:02.456Z</time>
      </trkpt>
      <trkpt lat="46.85988" lon="8.48465">
        <ele>2389</ele>
        <time>2021-08-12T09:23:03.456Z</time>
      </trkpt>
      <trkpt lat="46.85989" lon="8.48461">
        <ele>2389</ele>
        <time>2021-08-12T09:23:04.457Z</time>
      </trkpt>
      <trkpt lat="46.85989" lon="8.48456">
        <ele>2389</ele>
        <time>2021-08-12T09:23:05.456Z</time>
      </trkpt>
      <trkpt lat="46.85991" lon="8.48452">
        <ele>2389</ele>
        <time>2021-08-12T09:23:06.456Z</time>
      </trkpt>
      <trkpt lat="46.85993" lon="8.48448">
        <ele>2389</ele>
        <time>2021-08-12T09:23:07.457Z</time>
      </trkpt>
      <trkpt lat="46.85994" lon="8.48444">
        <ele>2389</ele>
        <time>2021-08-12T09:23:08.456Z</time>
      </trkpt>
      <trkpt lat="46.85996" lon="8.4844">
        <ele>2389</ele>
        <time>2021-08-12T09:23:09.457Z</time>
      </trkpt>
      <trkpt lat="46.85996" lon="8.48439">
        <ele>2389</ele>
        <time>2021-08-12T09:23:10.456Z</time>
      </trkpt>
      <trkpt lat="46.85997" lon="8.48438">
        <ele>2389</ele>
        <time>2021-08-12T09:23:11.456Z</time>
      </trkpt>
      <trkpt lat="46.85997" lon="8.48437">
        <ele>2389</ele>
        <time>2021-08-12T09:23:12.456Z</time>
      </trkpt>
      <trkpt lat="46.85997" lon="8.48437">
        <ele>2390</ele>
        <time>2021-08-12T09:23:13.457Z</time>
      </trkpt>
      <trkpt lat="46.85996" lon="8.48438">
        <ele>2390</ele>
        <time>2021-08-12T09:23:14.457Z</time>
      </trkpt>
      <trkpt lat="46.85995" lon="8.48441">
        <ele>2390</ele>
        <time>2021-08-12T09:23:15.456Z</time>
      </trkpt>
      <trkpt lat="46.85994" lon="8.48443">
        <ele>2390</ele>
        <time>2021-08-12T09:23:16.457Z</time>
      </trkpt>
      <trkpt lat="46.85993" lon="8.48445">
        <ele>2390</ele>
        <time>2021-08-12T09:23:17.457Z</time>
      </trkpt>
      <trkpt lat="46.85991" lon="8.48445">
        <ele>2390</ele>
        <time>2021-08-12T09:23:18.456Z</time>
      </trkpt>
      <trkpt lat="46.8599" lon="8.48446">
        <ele>2390</ele>
        <time>2021-08-12T09:23:19.456Z</time>
      </trkpt>
      <trkpt lat="46.8599" lon="8.48446">
        <ele>2390</ele>
        <time>2021-08-12T09:23:20.457Z</time>
      </trkpt>
      <trkpt lat="46.85989" lon="8.48446">
        <ele>2390</ele>
        <time>2021-08-12T09:23:21.457Z</time>
      </trkpt>
      <trkpt lat="46.85988" lon="8.48446">
        <ele>2390</ele>
        <time>2021-08-12T09:23:22.457Z</time>
      </trkpt>
      <trkpt lat="46.85987" lon="8.48446">
        <ele>2390</ele>
        <time>2021-08-12T09:23:23.457Z</time>
      </trkpt>
      <trkpt lat="46.85986" lon="8.48445">
        <ele>2390</ele>
        <time>2021-08-12T09:23:24.457Z</time>
      </trkpt>
      <trkpt lat="46.85985" lon="8.48445">
        <ele>2390</ele>
        <time>2021-08-12T09:23:25.456Z</time>
      </trkpt>
      <trkpt lat="46.85985" lon="8.48445">
        <ele>2390</ele>
        <time>2021-08-12T09:23:26.456Z</time>
      </trkpt>
      <trkpt lat="46.85984" lon="8.48445">
        <ele>2390</ele>
        <time>2021-08-12T09:23:27.456Z</time>
      </trkpt>
      <trkpt lat="46.85984" lon="8.48445">
        <ele>2390</ele>
        <time>2021-08-12T09:23:28.457Z</time>
      </trkpt>
      <trkpt lat="46.85984" lon="8.48444">
        <ele>2390</ele>
        <time>2021-08-12T09:23:29.457Z</time>
      </trkpt>
      <trkpt lat="46.85984" lon="8.48443">
        <ele>2390</ele>
        <time>2021-08-12T09:23:30.457Z</time>
      </trkpt>
      <trkpt lat="46.85983" lon="8.48443">
        <ele>2390</ele>
        <time>2021-08-12T09:23:31.457Z</time>
      </trkpt>
      <trkpt lat="46.85983" lon="8.48444">
        <ele>2390</ele>
        <time>2021-08-12T09:23:32.456Z</time>
      </trkpt>
      <trkpt lat="46.85982" lon="8.48446">
        <ele>2390</ele>
        <time>2021-08-12T09:23:33.456Z</time>
      </trkpt>
      <trkpt lat="46.85982" lon="8.48449">
        <ele>2390</ele>
        <time>2021-08-12T09:23:34.457Z</time>
      </trkpt>
      <trkpt lat="46.85982" lon="8.48452">
        <ele>2390</ele>
        <time>2021-08-12T09:23:35.456Z</time>
      </trkpt>
      <trkpt lat="46.85983" lon="8.48457">
        <ele>2390</ele>
        <time>2021-08-12T09:23:36.457Z</time>
      </trkpt>
      <trkpt lat="46.85983" lon="8.48457">
        <ele>2390</ele>
        <time>2021-08-12T09:23:37.457Z</time>
      </trkpt>
      <trkpt lat="46.85983" lon="8.48458">
        <ele>2390</ele>
        <time>2021-08-12T09:23:38.456Z</time>
      </trkpt>
      <trkpt lat="46.85983" lon="8.48459">
        <ele>2390</ele>
        <time>2021-08-12T09:23:39.457Z</time>
      </trkpt>
      <trkpt lat="46.85983" lon="8.48459">
        <ele>2390</ele>
        <time>2021-08-12T09:23:40.457Z</time>
      </trkpt>
      <trkpt lat="46.85982" lon="8.48461">
        <ele>2390</ele>
        <time>2021-08-12T09:23:41.457Z</time>
      </trkpt>
      <trkpt lat="46.85982" lon="8.48459">
        <ele>2391</ele>
        <time>2021-08-12T09:23:42.457Z</time>
      </trkpt>
      <trkpt lat="46.85982" lon="8.48456">
        <ele>2392</ele>
        <time>2021-08-12T09:23:43.457Z</time>
      </trkpt>
      <trkpt lat="46.8598" lon="8.48456">
        <ele>2392</ele>
        <time>2021-08-12T09:23:44.456Z</time>
      </trkpt>
      <trkpt lat="46.85979" lon="8.48454">
        <ele>2393</ele>
        <time>2021-08-12T09:23:45.457Z</time>
      </trkpt>
      <trkpt lat="46.8598" lon="8.48452">
        <ele>2393</ele>
        <time>2021-08-12T09:23:46.456Z</time>
      </trkpt>
      <trkpt lat="46.85981" lon="8.4845">
        <ele>2393</ele>
        <time>2021-08-12T09:23:47.457Z</time>
      </trkpt>
      <trkpt lat="46.8598" lon="8.48449">
        <ele>2393</ele>
        <time>2021-08-12T09:23:48.457Z</time>
      </trkpt>
      <trkpt lat="46.8598" lon="8.48449">
        <ele>2393</ele>
        <time>2021-08-12T09:23:49.457Z</time>
      </trkpt>
      <trkpt lat="46.85981" lon="8.48448">
        <ele>2393</ele>
        <time>2021-08-12T09:23:50.457Z</time>
      </trkpt>
      <trkpt lat="46.85981" lon="8.48448">
        <ele>2393</ele>
        <time>2021-08-12T09:23:51.456Z</time>
      </trkpt>
      <trkpt lat="46.8598" lon="8.48449">
        <ele>2393</ele>
        <time>2021-08-12T09:23:52.456Z</time>
      </trkpt>
      <trkpt lat="46.85971" lon="8.48466">
        <ele>2404</ele>
        <time>2021-08-12T09:23:53.458Z</time>
      </trkpt>
      <trkpt lat="46.85973" lon="8.48464">
        <ele>2405</ele>
        <time>2021-08-12T09:23:54.457Z</time>
      </trkpt>
      <trkpt lat="46.85974" lon="8.48464">
        <ele>2406</ele>
        <time>2021-08-12T09:23:55.457Z</time>
      </trkpt>
      <trkpt lat="46.85974" lon="8.48462">
        <ele>2414</ele>
        <time>2021-08-12T09:23:56.458Z</time>
      </trkpt>
      <trkpt lat="46.85975" lon="8.48462">
        <ele>2414</ele>
        <time>2021-08-12T09:23:57.458Z</time>
      </trkpt>
      <trkpt lat="46.85975" lon="8.48462">
        <ele>2415</ele>
        <time>2021-08-12T09:23:58.457Z</time>
      </trkpt>
      <trkpt lat="46.85976" lon="8.48465">
        <ele>2417</ele>
        <time>2021-08-12T09:23:59.459Z</time>
      </trkpt>
      <trkpt lat="46.85976" lon="8.48466">
        <ele>2416</ele>
        <time>2021-08-12T09:24:00.458Z</time>
      </trkpt>
      <trkpt lat="46.85976" lon="8.48466">
        <ele>2416</ele>
        <time>2021-08-12T09:24:01.458Z</time>
      </trkpt>
      <trkpt lat="46.85975" lon="8.48466">
        <ele>2415</ele>
        <time>2021-08-12T09:24:02.458Z</time>
      </trkpt>
      <trkpt lat="46.85975" lon="8.48467">
        <ele>2414</ele>
        <time>2021-08-12T09:24:03.459Z</time>
      </trkpt>
      <trkpt lat="46.85974" lon="8.48467">
        <ele>2414</ele>
        <time>2021-08-12T09:24:04.458Z</time>
      </trkpt>
      <trkpt lat="46.85974" lon="8.48468">
        <ele>2413</ele>
        <time>2021-08-12T09:24:05.458Z</time>
      </trkpt>
      <trkpt lat="46.85974" lon="8.48468">
        <ele>2413</ele>
        <time>2021-08-12T09:24:06.459Z</time>
      </trkpt>
      <trkpt lat="46.85974" lon="8.48469">
        <ele>2412</ele>
        <time>2021-08-12T09:24:07.459Z</time>
      </trkpt>
      <trkpt lat="46.85973" lon="8.48469">
        <ele>2412</ele>
        <time>2021-08-12T09:24:08.459Z</time>
      </trkpt>
      <trkpt lat="46.85973" lon="8.48469">
        <ele>2411</ele>
        <time>2021-08-12T09:24:09.459Z</time>
      </trkpt>
      <trkpt lat="46.85973" lon="8.48468">
        <ele>2411</ele>
        <time>2021-08-12T09:24:10.459Z</time>
      </trkpt>
      <trkpt lat="46.85973" lon="8.48468">
        <ele>2410</ele>
        <time>2021-08-12T09:24:11.459Z</time>
      </trkpt>
      <trkpt lat="46.85973" lon="8.48467">
        <ele>2410</ele>
        <time>2021-08-12T09:24:12.459Z</time>
      </trkpt>
      <trkpt lat="46.85973" lon="8.48466">
        <ele>2410</ele>
        <time>2021-08-12T09:24:13.459Z</time>
      </trkpt>
      <trkpt lat="46.85971" lon="8.48464">
        <ele>2410</ele>
        <time>2021-08-12T09:24:14.459Z</time>
      </trkpt>
      <trkpt lat="46.85972" lon="8.48462">
        <ele>2410</ele>
        <time>2021-08-12T09:24:15.459Z</time>
      </trkpt>
      <trkpt lat="46.85972" lon="8.4846">
        <ele>2410</ele>
        <time>2021-08-12T09:24:16.459Z</time>
      </trkpt>
      <trkpt lat="46.85971" lon="8.48458">
        <ele>2410</ele>
        <time>2021-08-12T09:24:17.459Z</time>
      </trkpt>
      <trkpt lat="46.85971" lon="8.48457">
        <ele>2411</ele>
        <time>2021-08-12T09:24:18.459Z</time>
      </trkpt>
      <trkpt lat="46.8597" lon="8.48456">
        <ele>2411</ele>
        <time>2021-08-12T09:24:19.458Z</time>
      </trkpt>
      <trkpt lat="46.8597" lon="8.48456">
        <ele>2411</ele>
        <time>2021-08-12T09:24:20.459Z</time>
      </trkpt>
      <trkpt lat="46.8597" lon="8.48456">
        <ele>2411</ele>
        <time>2021-08-12T09:24:21.459Z</time>
      </trkpt>
      <trkpt lat="46.85969" lon="8.48456">
        <ele>2411</ele>
        <time>2021-08-12T09:24:22.459Z</time>
      </trkpt>
      <trkpt lat="46.85969" lon="8.48455">
        <ele>2411</ele>
        <time>2021-08-12T09:24:23.459Z</time>
      </trkpt>
      <trkpt lat="46.85969" lon="8.48455">
        <ele>2411</ele>
        <time>2021-08-12T09:24:24.459Z</time>
      </trkpt>
      <trkpt lat="46.85969" lon="8.48455">
        <ele>2411</ele>
        <time>2021-08-12T09:24:25.459Z</time>
      </trkpt>
      <trkpt lat="46.85968" lon="8.48455">
        <ele>2410</ele>
        <time>2021-08-12T09:24:26.459Z</time>
      </trkpt>
      <trkpt lat="46.85967" lon="8.48456">
        <ele>2410</ele>
        <time>2021-08-12T09:24:27.459Z</time>
      </trkpt>
      <trkpt lat="46.85966" lon="8.48457">
        <ele>2410</ele>
        <time>2021-08-12T09:24:28.459Z</time>
      </trkpt>
      <trkpt lat="46.85966" lon="8.48457">
        <ele>2410</ele>
        <time>2021-08-12T09:24:29.459Z</time>
      </trkpt>
      <trkpt lat="46.85964" lon="8.48458">
        <ele>2410</ele>
        <time>2021-08-12T09:24:30.459Z</time>
      </trkpt>
      <trkpt lat="46.85963" lon="8.48458">
        <ele>2409</ele>
        <time>2021-08-12T09:24:31.459Z</time>
      </trkpt>
      <trkpt lat="46.85962" lon="8.48459">
        <ele>2409</ele>
        <time>2021-08-12T09:24:32.458Z</time>
      </trkpt>
      <trkpt lat="46.85962" lon="8.48459">
        <ele>2408</ele>
        <time>2021-08-12T09:24:33.459Z</time>
      </trkpt>
      <trkpt lat="46.85961" lon="8.4846">
        <ele>2408</ele>
        <time>2021-08-12T09:24:34.459Z</time>
      </trkpt>
      <trkpt lat="46.8596" lon="8.48461">
        <ele>2407</ele>
        <time>2021-08-12T09:24:35.459Z</time>
      </trkpt>
      <trkpt lat="46.8596" lon="8.48461">
        <ele>2407</ele>
        <time>2021-08-12T09:24:36.458Z</time>
      </trkpt>
      <trkpt lat="46.85959" lon="8.48462">
        <ele>2407</ele>
        <time>2021-08-12T09:24:37.459Z</time>
      </trkpt>
      <trkpt lat="46.85958" lon="8.48462">
        <ele>2406</ele>
        <time>2021-08-12T09:24:38.459Z</time>
      </trkpt>
      <trkpt lat="46.85958" lon="8.48463">
        <ele>2406</ele>
        <time>2021-08-12T09:24:39.459Z</time>
      </trkpt>
      <trkpt lat="46.85958" lon="8.48463">
        <ele>2407</ele>
        <time>2021-08-12T09:24:40.459Z</time>
      </trkpt>
      <trkpt lat="46.85957" lon="8.48463">
        <ele>2407</ele>
        <time>2021-08-12T09:24:41.458Z</time>
      </trkpt>
      <trkpt lat="46.85957" lon="8.48463">
        <ele>2407</ele>
        <time>2021-08-12T09:24:42.459Z</time>
      </trkpt>
      <trkpt lat="46.85957" lon="8.48463">
        <ele>2407</ele>
        <time>2021-08-12T09:24:43.458Z</time>
      </trkpt>
      <trkpt lat="46.85957" lon="8.48464">
        <ele>2407</ele>
        <time>2021-08-12T09:24:44.459Z</time>
      </trkpt>
      <trkpt lat="46.85957" lon="8.48464">
        <ele>2406</ele>
        <time>2021-08-12T09:24:45.459Z</time>
      </trkpt>
      <trkpt lat="46.85957" lon="8.48464">
        <ele>2406</ele>
        <time>2021-08-12T09:24:46.459Z</time>
      </trkpt>
      <trkpt lat="46.85956" lon="8.48464">
        <ele>2405</ele>
        <time>2021-08-12T09:24:47.459Z</time>
      </trkpt>
      <trkpt lat="46.85956" lon="8.48464">
        <ele>2405</ele>
        <time>2021-08-12T09:24:48.459Z</time>
      </trkpt>
      <trkpt lat="46.85955" lon="8.48464">
        <ele>2404</ele>
        <time>2021-08-12T09:24:49.458Z</time>
      </trkpt>
      <trkpt lat="46.85954" lon="8.48464">
        <ele>2404</ele>
        <time>2021-08-12T09:24:50.459Z</time>
      </trkpt>
      <trkpt lat="46.85953" lon="8.48464">
        <ele>2404</ele>
        <time>2021-08-12T09:24:51.458Z</time>
      </trkpt>
      <trkpt lat="46.85952" lon="8.48464">
        <ele>2403</ele>
        <time>2021-08-12T09:24:52.459Z</time>
      </trkpt>
      <trkpt lat="46.85952" lon="8.48464">
        <ele>2403</ele>
        <time>2021-08-12T09:24:53.459Z</time>
      </trkpt>
      <trkpt lat="46.85951" lon="8.48465">
        <ele>2403</ele>
        <time>2021-08-12T09:24:54.458Z</time>
      </trkpt>
      <trkpt lat="46.8595" lon="8.48465">
        <ele>2403</ele>
        <time>2021-08-12T09:24:55.459Z</time>
      </trkpt>
      <trkpt lat="46.8595" lon="8.48465">
        <ele>2402</ele>
        <time>2021-08-12T09:24:56.459Z</time>
      </trkpt>
      <trkpt lat="46.8595" lon="8.48466">
        <ele>2402</ele>
        <time>2021-08-12T09:24:57.459Z</time>
      </trkpt>
      <trkpt lat="46.85949" lon="8.48467">
        <ele>2403</ele>
        <time>2021-08-12T09:24:58.459Z</time>
      </trkpt>
      <trkpt lat="46.85947" lon="8.48468">
        <ele>2403</ele>
        <time>2021-08-12T09:24:59.458Z</time>
      </trkpt>
      <trkpt lat="46.85946" lon="8.48467">
        <ele>2403</ele>
        <time>2021-08-12T09:25:00.459Z</time>
      </trkpt>
      <trkpt lat="46.85945" lon="8.48467">
        <ele>2403</ele>
        <time>2021-08-12T09:25:01.458Z</time>
      </trkpt>
      <trkpt lat="46.85944" lon="8.48467">
        <ele>2403</ele>
        <time>2021-08-12T09:25:02.459Z</time>
      </trkpt>
      <trkpt lat="46.85943" lon="8.48467">
        <ele>2404</ele>
        <time>2021-08-12T09:25:03.459Z</time>
      </trkpt>
      <trkpt lat="46.85943" lon="8.48468">
        <ele>2404</ele>
        <time>2021-08-12T09:25:04.459Z</time>
      </trkpt>
      <trkpt lat="46.85942" lon="8.48468">
        <ele>2405</ele>
        <time>2021-08-12T09:25:05.459Z</time>
      </trkpt>
      <trkpt lat="46.85942" lon="8.48468">
        <ele>2405</ele>
        <time>2021-08-12T09:25:06.459Z</time>
      </trkpt>
      <trkpt lat="46.85941" lon="8.48469">
        <ele>2405</ele>
        <time>2021-08-12T09:25:07.459Z</time>
      </trkpt>
      <trkpt lat="46.8594" lon="8.48469">
        <ele>2404</ele>
        <time>2021-08-12T09:25:08.459Z</time>
      </trkpt>
      <trkpt lat="46.8594" lon="8.4847">
        <ele>2404</ele>
        <time>2021-08-12T09:25:09.458Z</time>
      </trkpt>
      <trkpt lat="46.8594" lon="8.4847">
        <ele>2404</ele>
        <time>2021-08-12T09:25:10.458Z</time>
      </trkpt>
      <trkpt lat="46.85939" lon="8.4847">
        <ele>2403</ele>
        <time>2021-08-12T09:25:11.459Z</time>
      </trkpt>
      <trkpt lat="46.85939" lon="8.4847">
        <ele>2403</ele>
        <time>2021-08-12T09:25:12.459Z</time>
      </trkpt>
      <trkpt lat="46.85937" lon="8.4847">
        <ele>2403</ele>
        <time>2021-08-12T09:25:13.458Z</time>
      </trkpt>
      <trkpt lat="46.85937" lon="8.48471">
        <ele>2403</ele>
        <time>2021-08-12T09:25:14.459Z</time>
      </trkpt>
      <trkpt lat="46.85937" lon="8.48471">
        <ele>2402</ele>
        <time>2021-08-12T09:25:15.459Z</time>
      </trkpt>
      <trkpt lat="46.85936" lon="8.48471">
        <ele>2402</ele>
        <time>2021-08-12T09:25:16.459Z</time>
      </trkpt>
      <trkpt lat="46.85935" lon="8.48471">
        <ele>2401</ele>
        <time>2021-08-12T09:25:17.459Z</time>
      </trkpt>
      <trkpt lat="46.85934" lon="8.48471">
        <ele>2401</ele>
        <time>2021-08-12T09:25:18.458Z</time>
      </trkpt>
      <trkpt lat="46.85932" lon="8.48471">
        <ele>2401</ele>
        <time>2021-08-12T09:25:19.459Z</time>
      </trkpt>
      <trkpt lat="46.85931" lon="8.48471">
        <ele>2401</ele>
        <time>2021-08-12T09:25:20.458Z</time>
      </trkpt>
      <trkpt lat="46.85929" lon="8.48473">
        <ele>2400</ele>
        <time>2021-08-12T09:25:21.459Z</time>
      </trkpt>
      <trkpt lat="46.85927" lon="8.48475">
        <ele>2400</ele>
        <time>2021-08-12T09:25:22.458Z</time>
      </trkpt>
      <trkpt lat="46.85926" lon="8.48476">
        <ele>2400</ele>
        <time>2021-08-12T09:25:23.458Z</time>
      </trkpt>
      <trkpt lat="46.85924" lon="8.48477">
        <ele>2400</ele>
        <time>2021-08-12T09:25:24.458Z</time>
      </trkpt>
      <trkpt lat="46.85923" lon="8.48477">
        <ele>2400</ele>
        <time>2021-08-12T09:25:25.459Z</time>
      </trkpt>
      <trkpt lat="46.85923" lon="8.48477">
        <ele>2400</ele>
        <time>2021-08-12T09:25:26.458Z</time>
      </trkpt>
      <trkpt lat="46.85924" lon="8.48475">
        <ele>2401</ele>
        <time>2021-08-12T09:25:27.459Z</time>
      </trkpt>
      <trkpt lat="46.85924" lon="8.48474">
        <ele>2401</ele>
        <time>2021-08-12T09:25:28.459Z</time>
      </trkpt>
      <trkpt lat="46.85924" lon="8.48474">
        <ele>2401</ele>
        <time>2021-08-12T09:25:29.458Z</time>
      </trkpt>
      <trkpt lat="46.85923" lon="8.48474">
        <ele>2401</ele>
        <time>2021-08-12T09:25:30.459Z</time>
      </trkpt>
      <trkpt lat="46.85922" lon="8.48474">
        <ele>2401</ele>
        <time>2021-08-12T09:25:31.459Z</time>
      </trkpt>
      <trkpt lat="46.85921" lon="8.48474">
        <ele>2401</ele>
        <time>2021-08-12T09:25:32.459Z</time>
      </trkpt>
      <trkpt lat="46.8592" lon="8.48474">
        <ele>2401</ele>
        <time>2021-08-12T09:25:33.459Z</time>
      </trkpt>
      <trkpt lat="46.85919" lon="8.48475">
        <ele>2401</ele>
        <time>2021-08-12T09:25:34.458Z</time>
      </trkpt>
      <trkpt lat="46.85919" lon="8.48475">
        <ele>2401</ele>
        <time>2021-08-12T09:25:35.459Z</time>
      </trkpt>
      <trkpt lat="46.85918" lon="8.48476">
        <ele>2402</ele>
        <time>2021-08-12T09:25:36.459Z</time>
      </trkpt>
      <trkpt lat="46.85918" lon="8.48477">
        <ele>2401</ele>
        <time>2021-08-12T09:25:37.459Z</time>
      </trkpt>
      <trkpt lat="46.85917" lon="8.48478">
        <ele>2401</ele>
        <time>2021-08-12T09:25:38.459Z</time>
      </trkpt>
      <trkpt lat="46.85916" lon="8.48478">
        <ele>2401</ele>
        <time>2021-08-12T09:25:39.459Z</time>
      </trkpt>
      <trkpt lat="46.85916" lon="8.48479">
        <ele>2400</ele>
        <time>2021-08-12T09:25:40.458Z</time>
      </trkpt>
      <trkpt lat="46.85915" lon="8.4848">
        <ele>2400</ele>
        <time>2021-08-12T09:25:41.459Z</time>
      </trkpt>
      <trkpt lat="46.85914" lon="8.48481">
        <ele>2400</ele>
        <time>2021-08-12T09:25:42.458Z</time>
      </trkpt>
      <trkpt lat="46.85914" lon="8.48482">
        <ele>2399</ele>
        <time>2021-08-12T09:25:43.459Z</time>
      </trkpt>
      <trkpt lat="46.85913" lon="8.48483">
        <ele>2399</ele>
        <time>2021-08-12T09:25:44.458Z</time>
      </trkpt>
      <trkpt lat="46.85912" lon="8.48484">
        <ele>2398</ele>
        <time>2021-08-12T09:25:45.459Z</time>
      </trkpt>
      <trkpt lat="46.85911" lon="8.48485">
        <ele>2398</ele>
        <time>2021-08-12T09:25:46.458Z</time>
      </trkpt>
      <trkpt lat="46.8591" lon="8.48486">
        <ele>2397</ele>
        <time>2021-08-12T09:25:47.459Z</time>
      </trkpt>
      <trkpt lat="46.85909" lon="8.48486">
        <ele>2397</ele>
        <time>2021-08-12T09:25:48.458Z</time>
      </trkpt>
      <trkpt lat="46.85907" lon="8.48486">
        <ele>2396</ele>
        <time>2021-08-12T09:25:49.458Z</time>
      </trkpt>
      <trkpt lat="46.85904" lon="8.48486">
        <ele>2396</ele>
        <time>2021-08-12T09:25:50.459Z</time>
      </trkpt>
      <trkpt lat="46.85902" lon="8.48488">
        <ele>2396</ele>
        <time>2021-08-12T09:25:51.459Z</time>
      </trkpt>
      <trkpt lat="46.85901" lon="8.4849">
        <ele>2396</ele>
        <time>2021-08-12T09:25:52.459Z</time>
      </trkpt>
      <trkpt lat="46.85898" lon="8.48492">
        <ele>2396</ele>
        <time>2021-08-12T09:25:53.459Z</time>
      </trkpt>
      <trkpt lat="46.85897" lon="8.48493">
        <ele>2395</ele>
        <time>2021-08-12T09:25:54.459Z</time>
      </trkpt>
      <trkpt lat="46.85896" lon="8.48493">
        <ele>2395</ele>
        <time>2021-08-12T09:25:55.459Z</time>
      </trkpt>
      <trkpt lat="46.85896" lon="8.48493">
        <ele>2395</ele>
        <time>2021-08-12T09:25:56.459Z</time>
      </trkpt>
      <trkpt lat="46.85894" lon="8.48494">
        <ele>2395</ele>
        <time>2021-08-12T09:25:57.459Z</time>
      </trkpt>
      <trkpt lat="46.85892" lon="8.48494">
        <ele>2395</ele>
        <time>2021-08-12T09:25:58.459Z</time>
      </trkpt>
      <trkpt lat="46.85891" lon="8.48495">
        <ele>2395</ele>
        <time>2021-08-12T09:25:59.458Z</time>
      </trkpt>
      <trkpt lat="46.8589" lon="8.48495">
        <ele>2395</ele>
        <time>2021-08-12T09:26:00.459Z</time>
      </trkpt>
      <trkpt lat="46.85888" lon="8.48496">
        <ele>2396</ele>
        <time>2021-08-12T09:26:01.459Z</time>
      </trkpt>
      <trkpt lat="46.85887" lon="8.48497">
        <ele>2396</ele>
        <time>2021-08-12T09:26:02.458Z</time>
      </trkpt>
      <trkpt lat="46.85887" lon="8.48498">
        <ele>2396</ele>
        <time>2021-08-12T09:26:03.458Z</time>
      </trkpt>
      <trkpt lat="46.85886" lon="8.48499">
        <ele>2396</ele>
        <time>2021-08-12T09:26:04.458Z</time>
      </trkpt>
      <trkpt lat="46.85886" lon="8.48499">
        <ele>2396</ele>
        <time>2021-08-12T09:26:05.458Z</time>
      </trkpt>
      <trkpt lat="46.85884" lon="8.485">
        <ele>2396</ele>
        <time>2021-08-12T09:26:06.458Z</time>
      </trkpt>
      <trkpt lat="46.85884" lon="8.485">
        <ele>2396</ele>
        <time>2021-08-12T09:26:07.459Z</time>
      </trkpt>
      <trkpt lat="46.85883" lon="8.48501">
        <ele>2396</ele>
        <time>2021-08-12T09:26:08.458Z</time>
      </trkpt>
      <trkpt lat="46.85883" lon="8.48502">
        <ele>2395</ele>
        <time>2021-08-12T09:26:09.459Z</time>
      </trkpt>
      <trkpt lat="46.85882" lon="8.48503">
        <ele>2394</ele>
        <time>2021-08-12T09:26:10.459Z</time>
      </trkpt>
      <trkpt lat="46.85881" lon="8.48503">
        <ele>2393</ele>
        <time>2021-08-12T09:26:11.459Z</time>
      </trkpt>
      <trkpt lat="46.85881" lon="8.48504">
        <ele>2393</ele>
        <time>2021-08-12T09:26:12.459Z</time>
      </trkpt>
      <trkpt lat="46.85881" lon="8.48504">
        <ele>2392</ele>
        <time>2021-08-12T09:26:13.458Z</time>
      </trkpt>
      <trkpt lat="46.8588" lon="8.48504">
        <ele>2391</ele>
        <time>2021-08-12T09:26:14.458Z</time>
      </trkpt>
      <trkpt lat="46.85879" lon="8.48504">
        <ele>2389</ele>
        <time>2021-08-12T09:26:15.458Z</time>
      </trkpt>
      <trkpt lat="46.85879" lon="8.48505">
        <ele>2388</ele>
        <time>2021-08-12T09:26:16.459Z</time>
      </trkpt>
      <trkpt lat="46.85881" lon="8.48507">
        <ele>2388</ele>
        <time>2021-08-12T09:26:17.459Z</time>
      </trkpt>
      <trkpt lat="46.85881" lon="8.48508">
        <ele>2387</ele>
        <time>2021-08-12T09:26:18.460Z</time>
      </trkpt>
      <trkpt lat="46.85881" lon="8.48508">
        <ele>2387</ele>
        <time>2021-08-12T09:26:19.459Z</time>
      </trkpt>
      <trkpt lat="46.8588" lon="8.48509">
        <ele>2386</ele>
        <time>2021-08-12T09:26:20.460Z</time>
      </trkpt>
      <trkpt lat="46.8588" lon="8.48509">
        <ele>2386</ele>
        <time>2021-08-12T09:26:21.460Z</time>
      </trkpt>
      <trkpt lat="46.85879" lon="8.48509">
        <ele>2385</ele>
        <time>2021-08-12T09:26:22.460Z</time>
      </trkpt>
      <trkpt lat="46.85878" lon="8.48509">
        <ele>2384</ele>
        <time>2021-08-12T09:26:23.459Z</time>
      </trkpt>
      <trkpt lat="46.85878" lon="8.48509">
        <ele>2383</ele>
        <time>2021-08-12T09:26:24.459Z</time>
      </trkpt>
      <trkpt lat="46.85877" lon="8.48509">
        <ele>2382</ele>
        <time>2021-08-12T09:26:25.460Z</time>
      </trkpt>
      <trkpt lat="46.85877" lon="8.4851">
        <ele>2381</ele>
        <time>2021-08-12T09:26:26.459Z</time>
      </trkpt>
      <trkpt lat="46.85877" lon="8.4851">
        <ele>2381</ele>
        <time>2021-08-12T09:26:27.460Z</time>
      </trkpt>
      <trkpt lat="46.85877" lon="8.4851">
        <ele>2380</ele>
        <time>2021-08-12T09:26:28.460Z</time>
      </trkpt>
      <trkpt lat="46.85876" lon="8.48509">
        <ele>2377</ele>
        <time>2021-08-12T09:26:29.461Z</time>
      </trkpt>
      <trkpt lat="46.85875" lon="8.48509">
        <ele>2376</ele>
        <time>2021-08-12T09:26:30.461Z</time>
      </trkpt>
      <trkpt lat="46.85875" lon="8.48509">
        <ele>2375</ele>
        <time>2021-08-12T09:26:31.461Z</time>
      </trkpt>
      <trkpt lat="46.85874" lon="8.48509">
        <ele>2375</ele>
        <time>2021-08-12T09:26:32.460Z</time>
      </trkpt>
      <trkpt lat="46.85873" lon="8.48509">
        <ele>2374</ele>
        <time>2021-08-12T09:26:33.461Z</time>
      </trkpt>
      <trkpt lat="46.85872" lon="8.48509">
        <ele>2374</ele>
        <time>2021-08-12T09:26:34.461Z</time>
      </trkpt>
      <trkpt lat="46.85871" lon="8.48509">
        <ele>2374</ele>
        <time>2021-08-12T09:26:35.460Z</time>
      </trkpt>
      <trkpt lat="46.8587" lon="8.48509">
        <ele>2374</ele>
        <time>2021-08-12T09:26:36.460Z</time>
      </trkpt>
      <trkpt lat="46.85869" lon="8.4851">
        <ele>2375</ele>
        <time>2021-08-12T09:26:37.460Z</time>
      </trkpt>
      <trkpt lat="46.85869" lon="8.48511">
        <ele>2375</ele>
        <time>2021-08-12T09:26:38.460Z</time>
      </trkpt>
      <trkpt lat="46.85869" lon="8.48511">
        <ele>2375</ele>
        <time>2021-08-12T09:26:39.461Z</time>
      </trkpt>
      <trkpt lat="46.85868" lon="8.48512">
        <ele>2375</ele>
        <time>2021-08-12T09:26:40.461Z</time>
      </trkpt>
      <trkpt lat="46.85868" lon="8.48512">
        <ele>2375</ele>
        <time>2021-08-12T09:26:41.460Z</time>
      </trkpt>
      <trkpt lat="46.85867" lon="8.48513">
        <ele>2376</ele>
        <time>2021-08-12T09:26:42.460Z</time>
      </trkpt>
      <trkpt lat="46.85867" lon="8.48513">
        <ele>2375</ele>
        <time>2021-08-12T09:26:43.461Z</time>
      </trkpt>
      <trkpt lat="46.85867" lon="8.48513">
        <ele>2375</ele>
        <time>2021-08-12T09:26:44.461Z</time>
      </trkpt>
      <trkpt lat="46.85867" lon="8.48514">
        <ele>2374</ele>
        <time>2021-08-12T09:26:45.460Z</time>
      </trkpt>
      <trkpt lat="46.85866" lon="8.48514">
        <ele>2373</ele>
        <time>2021-08-12T09:26:46.460Z</time>
      </trkpt>
      <trkpt lat="46.85866" lon="8.48515">
        <ele>2372</ele>
        <time>2021-08-12T09:26:47.460Z</time>
      </trkpt>
      <trkpt lat="46.85866" lon="8.48516">
        <ele>2371</ele>
        <time>2021-08-12T09:26:48.460Z</time>
      </trkpt>
      <trkpt lat="46.85865" lon="8.48516">
        <ele>2370</ele>
        <time>2021-08-12T09:26:49.461Z</time>
      </trkpt>
      <trkpt lat="46.85865" lon="8.48517">
        <ele>2370</ele>
        <time>2021-08-12T09:26:50.460Z</time>
      </trkpt>
      <trkpt lat="46.85864" lon="8.48518">
        <ele>2369</ele>
        <time>2021-08-12T09:26:51.460Z</time>
      </trkpt>
      <trkpt lat="46.85864" lon="8.48519">
        <ele>2369</ele>
        <time>2021-08-12T09:26:52.460Z</time>
      </trkpt>
      <trkpt lat="46.85863" lon="8.48519">
        <ele>2369</ele>
        <time>2021-08-12T09:26:53.460Z</time>
      </trkpt>
      <trkpt lat="46.85862" lon="8.48519">
        <ele>2368</ele>
        <time>2021-08-12T09:26:54.460Z</time>
      </trkpt>
      <trkpt lat="46.85863" lon="8.48519">
        <ele>2369</ele>
        <time>2021-08-12T09:26:55.460Z</time>
      </trkpt>
      <trkpt lat="46.85862" lon="8.4852">
        <ele>2371</ele>
        <time>2021-08-12T09:26:56.461Z</time>
      </trkpt>
      <trkpt lat="46.85862" lon="8.48521">
        <ele>2371</ele>
        <time>2021-08-12T09:26:57.460Z</time>
      </trkpt>
      <trkpt lat="46.85861" lon="8.48522">
        <ele>2372</ele>
        <time>2021-08-12T09:26:58.461Z</time>
      </trkpt>
      <trkpt lat="46.85861" lon="8.48522">
        <ele>2372</ele>
        <time>2021-08-12T09:26:59.460Z</time>
      </trkpt>
      <trkpt lat="46.85861" lon="8.48523">
        <ele>2371</ele>
        <time>2021-08-12T09:27:00.461Z</time>
      </trkpt>
      <trkpt lat="46.8586" lon="8.48524">
        <ele>2371</ele>
        <time>2021-08-12T09:27:01.460Z</time>
      </trkpt>
      <trkpt lat="46.8586" lon="8.48525">
        <ele>2371</ele>
        <time>2021-08-12T09:27:02.461Z</time>
      </trkpt>
      <trkpt lat="46.8586" lon="8.48526">
        <ele>2372</ele>
        <time>2021-08-12T09:27:03.461Z</time>
      </trkpt>
      <trkpt lat="46.85859" lon="8.48527">
        <ele>2372</ele>
        <time>2021-08-12T09:27:04.461Z</time>
      </trkpt>
      <trkpt lat="46.85859" lon="8.48527">
        <ele>2372</ele>
        <time>2021-08-12T09:27:05.461Z</time>
      </trkpt>
      <trkpt lat="46.85859" lon="8.48528">
        <ele>2373</ele>
        <time>2021-08-12T09:27:06.461Z</time>
      </trkpt>
      <trkpt lat="46.85858" lon="8.48528">
        <ele>2373</ele>
        <time>2021-08-12T09:27:07.461Z</time>
      </trkpt>
      <trkpt lat="46.85858" lon="8.48528">
        <ele>2373</ele>
        <time>2021-08-12T09:27:08.461Z</time>
      </trkpt>
      <trkpt lat="46.85858" lon="8.48529">
        <ele>2373</ele>
        <time>2021-08-12T09:27:09.461Z</time>
      </trkpt>
      <trkpt lat="46.85857" lon="8.48529">
        <ele>2373</ele>
        <time>2021-08-12T09:27:10.461Z</time>
      </trkpt>
      <trkpt lat="46.85857" lon="8.48529">
        <ele>2373</ele>
        <time>2021-08-12T09:27:11.460Z</time>
      </trkpt>
      <trkpt lat="46.85855" lon="8.4853">
        <ele>2373</ele>
        <time>2021-08-12T09:27:12.461Z</time>
      </trkpt>
      <trkpt lat="46.85855" lon="8.4853">
        <ele>2373</ele>
        <time>2021-08-12T09:27:13.460Z</time>
      </trkpt>
      <trkpt lat="46.85854" lon="8.48531">
        <ele>2373</ele>
        <time>2021-08-12T09:27:14.460Z</time>
      </trkpt>
      <trkpt lat="46.85854" lon="8.48532">
        <ele>2373</ele>
        <time>2021-08-12T09:27:15.461Z</time>
      </trkpt>
      <trkpt lat="46.85854" lon="8.48532">
        <ele>2372</ele>
        <time>2021-08-12T09:27:16.461Z</time>
      </trkpt>
      <trkpt lat="46.85853" lon="8.48533">
        <ele>2372</ele>
        <time>2021-08-12T09:27:17.461Z</time>
      </trkpt>
      <trkpt lat="46.85853" lon="8.48533">
        <ele>2372</ele>
        <time>2021-08-12T09:27:18.460Z</time>
      </trkpt>
      <trkpt lat="46.85853" lon="8.48533">
        <ele>2372</ele>
        <time>2021-08-12T09:27:19.461Z</time>
      </trkpt>
      <trkpt lat="46.85852" lon="8.48534">
        <ele>2372</ele>
        <time>2021-08-12T09:27:20.461Z</time>
      </trkpt>
      <trkpt lat="46.85852" lon="8.48534">
        <ele>2374</ele>
        <time>2021-08-12T09:27:21.461Z</time>
      </trkpt>
      <trkpt lat="46.85851" lon="8.48534">
        <ele>2375</ele>
        <time>2021-08-12T09:27:22.460Z</time>
      </trkpt>
      <trkpt lat="46.85851" lon="8.48534">
        <ele>2377</ele>
        <time>2021-08-12T09:27:23.461Z</time>
      </trkpt>
      <trkpt lat="46.8585" lon="8.48534">
        <ele>2378</ele>
        <time>2021-08-12T09:27:24.461Z</time>
      </trkpt>
      <trkpt lat="46.8585" lon="8.48534">
        <ele>2380</ele>
        <time>2021-08-12T09:27:25.461Z</time>
      </trkpt>
      <trkpt lat="46.85848" lon="8.48534">
        <ele>2381</ele>
        <time>2021-08-12T09:27:26.461Z</time>
      </trkpt>
      <trkpt lat="46.85848" lon="8.48534">
        <ele>2383</ele>
        <time>2021-08-12T09:27:27.461Z</time>
      </trkpt>
      <trkpt lat="46.85847" lon="8.48534">
        <ele>2384</ele>
        <time>2021-08-12T09:27:28.461Z</time>
      </trkpt>
      <trkpt lat="46.85847" lon="8.48533">
        <ele>2386</ele>
        <time>2021-08-12T09:27:29.460Z</time>
      </trkpt>
      <trkpt lat="46.85848" lon="8.48533">
        <ele>2387</ele>
        <time>2021-08-12T09:27:30.461Z</time>
      </trkpt>
      <trkpt lat="46.85848" lon="8.48533">
        <ele>2388</ele>
        <time>2021-08-12T09:27:31.461Z</time>
      </trkpt>
      <trkpt lat="46.85848" lon="8.48532">
        <ele>2389</ele>
        <time>2021-08-12T09:27:32.461Z</time>
      </trkpt>
      <trkpt lat="46.85847" lon="8.48532">
        <ele>2390</ele>
        <time>2021-08-12T09:27:33.461Z</time>
      </trkpt>
      <trkpt lat="46.85847" lon="8.48532">
        <ele>2391</ele>
        <time>2021-08-12T09:27:34.461Z</time>
      </trkpt>
      <trkpt lat="46.85846" lon="8.48533">
        <ele>2392</ele>
        <time>2021-08-12T09:27:35.461Z</time>
      </trkpt>
      <trkpt lat="46.85844" lon="8.48534">
        <ele>2393</ele>
        <time>2021-08-12T09:27:36.460Z</time>
      </trkpt>
      <trkpt lat="46.85842" lon="8.48534">
        <ele>2393</ele>
        <time>2021-08-12T09:27:37.461Z</time>
      </trkpt>
      <trkpt lat="46.85842" lon="8.48535">
        <ele>2394</ele>
        <time>2021-08-12T09:27:38.461Z</time>
      </trkpt>
      <trkpt lat="46.85841" lon="8.48535">
        <ele>2395</ele>
        <time>2021-08-12T09:27:39.461Z</time>
      </trkpt>
      <trkpt lat="46.85841" lon="8.48536">
        <ele>2396</ele>
        <time>2021-08-12T09:27:40.461Z</time>
      </trkpt>
      <trkpt lat="46.8584" lon="8.48537">
        <ele>2396</ele>
        <time>2021-08-12T09:27:41.461Z</time>
      </trkpt>
      <trkpt lat="46.85839" lon="8.48537">
        <ele>2397</ele>
        <time>2021-08-12T09:27:42.461Z</time>
      </trkpt>
      <trkpt lat="46.85838" lon="8.48538">
        <ele>2397</ele>
        <time>2021-08-12T09:27:43.461Z</time>
      </trkpt>
      <trkpt lat="46.85837" lon="8.48539">
        <ele>2397</ele>
        <time>2021-08-12T09:27:44.460Z</time>
      </trkpt>
      <trkpt lat="46.85836" lon="8.4854">
        <ele>2397</ele>
        <time>2021-08-12T09:27:45.460Z</time>
      </trkpt>
      <trkpt lat="46.85836" lon="8.48541">
        <ele>2397</ele>
        <time>2021-08-12T09:27:46.460Z</time>
      </trkpt>
      <trkpt lat="46.85835" lon="8.48541">
        <ele>2398</ele>
        <time>2021-08-12T09:27:47.461Z</time>
      </trkpt>
      <trkpt lat="46.85833" lon="8.48541">
        <ele>2398</ele>
        <time>2021-08-12T09:27:48.460Z</time>
      </trkpt>
      <trkpt lat="46.85831" lon="8.4854">
        <ele>2398</ele>
        <time>2021-08-12T09:27:49.461Z</time>
      </trkpt>
      <trkpt lat="46.85831" lon="8.48539">
        <ele>2398</ele>
        <time>2021-08-12T09:27:50.461Z</time>
      </trkpt>
      <trkpt lat="46.85831" lon="8.48538">
        <ele>2398</ele>
        <time>2021-08-12T09:27:51.461Z</time>
      </trkpt>
      <trkpt lat="46.85831" lon="8.48537">
        <ele>2399</ele>
        <time>2021-08-12T09:27:52.460Z</time>
      </trkpt>
      <trkpt lat="46.85832" lon="8.48537">
        <ele>2401</ele>
        <time>2021-08-12T09:27:53.460Z</time>
      </trkpt>
      <trkpt lat="46.85832" lon="8.48538">
        <ele>2402</ele>
        <time>2021-08-12T09:27:54.460Z</time>
      </trkpt>
      <trkpt lat="46.85831" lon="8.48538">
        <ele>2403</ele>
        <time>2021-08-12T09:27:55.461Z</time>
      </trkpt>
      <trkpt lat="46.8583" lon="8.48539">
        <ele>2404</ele>
        <time>2021-08-12T09:27:56.460Z</time>
      </trkpt>
      <trkpt lat="46.85829" lon="8.48539">
        <ele>2404</ele>
        <time>2021-08-12T09:27:57.461Z</time>
      </trkpt>
      <trkpt lat="46.85829" lon="8.4854">
        <ele>2405</ele>
        <time>2021-08-12T09:27:58.460Z</time>
      </trkpt>
      <trkpt lat="46.85828" lon="8.48541">
        <ele>2405</ele>
        <time>2021-08-12T09:27:59.460Z</time>
      </trkpt>
      <trkpt lat="46.85827" lon="8.48542">
        <ele>2405</ele>
        <time>2021-08-12T09:28:00.460Z</time>
      </trkpt>
      <trkpt lat="46.85826" lon="8.48542">
        <ele>2405</ele>
        <time>2021-08-12T09:28:01.461Z</time>
      </trkpt>
      <trkpt lat="46.85826" lon="8.48543">
        <ele>2405</ele>
        <time>2021-08-12T09:28:02.460Z</time>
      </trkpt>
      <trkpt lat="46.85825" lon="8.48543">
        <ele>2405</ele>
        <time>2021-08-12T09:28:03.461Z</time>
      </trkpt>
      <trkpt lat="46.85825" lon="8.48543">
        <ele>2405</ele>
        <time>2021-08-12T09:28:04.460Z</time>
      </trkpt>
      <trkpt lat="46.85823" lon="8.48544">
        <ele>2405</ele>
        <time>2021-08-12T09:28:05.460Z</time>
      </trkpt>
      <trkpt lat="46.85822" lon="8.48544">
        <ele>2405</ele>
        <time>2021-08-12T09:28:06.460Z</time>
      </trkpt>
      <trkpt lat="46.85821" lon="8.48545">
        <ele>2405</ele>
        <time>2021-08-12T09:28:07.460Z</time>
      </trkpt>
      <trkpt lat="46.8582" lon="8.48546">
        <ele>2406</ele>
        <time>2021-08-12T09:28:08.460Z</time>
      </trkpt>
      <trkpt lat="46.85819" lon="8.48546">
        <ele>2406</ele>
        <time>2021-08-12T09:28:09.461Z</time>
      </trkpt>
      <trkpt lat="46.85818" lon="8.48546">
        <ele>2406</ele>
        <time>2021-08-12T09:28:10.460Z</time>
      </trkpt>
      <trkpt lat="46.85816" lon="8.48545">
        <ele>2407</ele>
        <time>2021-08-12T09:28:11.460Z</time>
      </trkpt>
      <trkpt lat="46.85816" lon="8.48545">
        <ele>2407</ele>
        <time>2021-08-12T09:28:12.460Z</time>
      </trkpt>
      <trkpt lat="46.85814" lon="8.48545">
        <ele>2408</ele>
        <time>2021-08-12T09:28:13.460Z</time>
      </trkpt>
      <trkpt lat="46.85813" lon="8.48545">
        <ele>2408</ele>
        <time>2021-08-12T09:28:14.460Z</time>
      </trkpt>
      <trkpt lat="46.85813" lon="8.48545">
        <ele>2408</ele>
        <time>2021-08-12T09:28:15.460Z</time>
      </trkpt>
      <trkpt lat="46.85812" lon="8.48546">
        <ele>2409</ele>
        <time>2021-08-12T09:28:16.460Z</time>
      </trkpt>
      <trkpt lat="46.85811" lon="8.48547">
        <ele>2410</ele>
        <time>2021-08-12T09:28:17.461Z</time>
      </trkpt>
      <trkpt lat="46.85811" lon="8.48548">
        <ele>2410</ele>
        <time>2021-08-12T09:28:18.460Z</time>
      </trkpt>
      <trkpt lat="46.85811" lon="8.48548">
        <ele>2410</ele>
        <time>2021-08-12T09:28:19.460Z</time>
      </trkpt>
      <trkpt lat="46.8581" lon="8.48549">
        <ele>2411</ele>
        <time>2021-08-12T09:28:20.460Z</time>
      </trkpt>
      <trkpt lat="46.85809" lon="8.48549">
        <ele>2411</ele>
        <time>2021-08-12T09:28:21.461Z</time>
      </trkpt>
      <trkpt lat="46.85808" lon="8.4855">
        <ele>2411</ele>
        <time>2021-08-12T09:28:22.461Z</time>
      </trkpt>
      <trkpt lat="46.85807" lon="8.4855">
        <ele>2412</ele>
        <time>2021-08-12T09:28:23.460Z</time>
      </trkpt>
      <trkpt lat="46.85806" lon="8.48551">
        <ele>2412</ele>
        <time>2021-08-12T09:28:24.460Z</time>
      </trkpt>
      <trkpt lat="46.85805" lon="8.48552">
        <ele>2412</ele>
        <time>2021-08-12T09:28:25.460Z</time>
      </trkpt>
      <trkpt lat="46.85804" lon="8.48554">
        <ele>2412</ele>
        <time>2021-08-12T09:28:26.460Z</time>
      </trkpt>
      <trkpt lat="46.85803" lon="8.48555">
        <ele>2412</ele>
        <time>2021-08-12T09:28:27.460Z</time>
      </trkpt>
      <trkpt lat="46.85803" lon="8.48556">
        <ele>2412</ele>
        <time>2021-08-12T09:28:28.461Z</time>
      </trkpt>
      <trkpt lat="46.85802" lon="8.48557">
        <ele>2412</ele>
        <time>2021-08-12T09:28:29.461Z</time>
      </trkpt>
      <trkpt lat="46.85802" lon="8.48557">
        <ele>2412</ele>
        <time>2021-08-12T09:28:30.460Z</time>
      </trkpt>
      <trkpt lat="46.85801" lon="8.48557">
        <ele>2411</ele>
        <time>2021-08-12T09:28:31.461Z</time>
      </trkpt>
      <trkpt lat="46.858" lon="8.48557">
        <ele>2411</ele>
        <time>2021-08-12T09:28:32.460Z</time>
      </trkpt>
      <trkpt lat="46.85799" lon="8.48557">
        <ele>2410</ele>
        <time>2021-08-12T09:28:33.460Z</time>
      </trkpt>
      <trkpt lat="46.85798" lon="8.48557">
        <ele>2408</ele>
        <time>2021-08-12T09:28:34.461Z</time>
      </trkpt>
      <trkpt lat="46.85796" lon="8.48557">
        <ele>2407</ele>
        <time>2021-08-12T09:28:35.461Z</time>
      </trkpt>
      <trkpt lat="46.85796" lon="8.48557">
        <ele>2406</ele>
        <time>2021-08-12T09:28:36.461Z</time>
      </trkpt>
      <trkpt lat="46.85794" lon="8.48557">
        <ele>2406</ele>
        <time>2021-08-12T09:28:37.460Z</time>
      </trkpt>
      <trkpt lat="46.85793" lon="8.48558">
        <ele>2405</ele>
        <time>2021-08-12T09:28:38.461Z</time>
      </trkpt>
      <trkpt lat="46.85792" lon="8.48558">
        <ele>2405</ele>
        <time>2021-08-12T09:28:39.460Z</time>
      </trkpt>
      <trkpt lat="46.85791" lon="8.48558">
        <ele>2405</ele>
        <time>2021-08-12T09:28:40.460Z</time>
      </trkpt>
      <trkpt lat="46.8579" lon="8.48558">
        <ele>2405</ele>
        <time>2021-08-12T09:28:41.461Z</time>
      </trkpt>
      <trkpt lat="46.85789" lon="8.48558">
        <ele>2405</ele>
        <time>2021-08-12T09:28:42.461Z</time>
      </trkpt>
      <trkpt lat="46.85787" lon="8.48558">
        <ele>2406</ele>
        <time>2021-08-12T09:28:43.461Z</time>
      </trkpt>
      <trkpt lat="46.85786" lon="8.48559">
        <ele>2406</ele>
        <time>2021-08-12T09:28:44.460Z</time>
      </trkpt>
      <trkpt lat="46.85785" lon="8.48562">
        <ele>2406</ele>
        <time>2021-08-12T09:28:45.461Z</time>
      </trkpt>
      <trkpt lat="46.85785" lon="8.48563">
        <ele>2406</ele>
        <time>2021-08-12T09:28:46.461Z</time>
      </trkpt>
      <trkpt lat="46.85784" lon="8.48564">
        <ele>2406</ele>
        <time>2021-08-12T09:28:47.460Z</time>
      </trkpt>
      <trkpt lat="46.85784" lon="8.48564">
        <ele>2406</ele>
        <time>2021-08-12T09:28:48.460Z</time>
      </trkpt>
      <trkpt lat="46.85784" lon="8.48564">
        <ele>2406</ele>
        <time>2021-08-12T09:28:49.461Z</time>
      </trkpt>
      <trkpt lat="46.85783" lon="8.48565">
        <ele>2406</ele>
        <time>2021-08-12T09:28:50.461Z</time>
      </trkpt>
      <trkpt lat="46.85783" lon="8.48566">
        <ele>2406</ele>
        <time>2021-08-12T09:28:51.461Z</time>
      </trkpt>
      <trkpt lat="46.85782" lon="8.48567">
        <ele>2405</ele>
        <time>2021-08-12T09:28:52.461Z</time>
      </trkpt>
      <trkpt lat="46.85782" lon="8.48568">
        <ele>2404</ele>
        <time>2021-08-12T09:28:53.461Z</time>
      </trkpt>
      <trkpt lat="46.85781" lon="8.48569">
        <ele>2403</ele>
        <time>2021-08-12T09:28:54.461Z</time>
      </trkpt>
      <trkpt lat="46.8578" lon="8.48569">
        <ele>2402</ele>
        <time>2021-08-12T09:28:55.461Z</time>
      </trkpt>
      <trkpt lat="46.85779" lon="8.4857">
        <ele>2401</ele>
        <time>2021-08-12T09:28:56.461Z</time>
      </trkpt>
      <trkpt lat="46.85779" lon="8.48571">
        <ele>2400</ele>
        <time>2021-08-12T09:28:57.461Z</time>
      </trkpt>
      <trkpt lat="46.85778" lon="8.48571">
        <ele>2400</ele>
        <time>2021-08-12T09:28:58.460Z</time>
      </trkpt>
      <trkpt lat="46.85778" lon="8.48572">
        <ele>2399</ele>
        <time>2021-08-12T09:28:59.461Z</time>
      </trkpt>
      <trkpt lat="46.85777" lon="8.48574">
        <ele>2399</ele>
        <time>2021-08-12T09:29:00.460Z</time>
      </trkpt>
      <trkpt lat="46.85777" lon="8.48576">
        <ele>2399</ele>
        <time>2021-08-12T09:29:01.460Z</time>
      </trkpt>
      <trkpt lat="46.85777" lon="8.48577">
        <ele>2399</ele>
        <time>2021-08-12T09:29:02.461Z</time>
      </trkpt>
      <trkpt lat="46.85777" lon="8.48579">
        <ele>2399</ele>
        <time>2021-08-12T09:29:03.461Z</time>
      </trkpt>
      <trkpt lat="46.85776" lon="8.4858">
        <ele>2398</ele>
        <time>2021-08-12T09:29:04.461Z</time>
      </trkpt>
      <trkpt lat="46.85775" lon="8.48581">
        <ele>2398</ele>
        <time>2021-08-12T09:29:05.460Z</time>
      </trkpt>
      <trkpt lat="46.85775" lon="8.48582">
        <ele>2398</ele>
        <time>2021-08-12T09:29:06.461Z</time>
      </trkpt>
      <trkpt lat="46.85774" lon="8.48582">
        <ele>2398</ele>
        <time>2021-08-12T09:29:07.460Z</time>
      </trkpt>
      <trkpt lat="46.85773" lon="8.48583">
        <ele>2398</ele>
        <time>2021-08-12T09:29:08.460Z</time>
      </trkpt>
      <trkpt lat="46.85773" lon="8.48584">
        <ele>2397</ele>
        <time>2021-08-12T09:29:09.461Z</time>
      </trkpt>
      <trkpt lat="46.85772" lon="8.48585">
        <ele>2397</ele>
        <time>2021-08-12T09:29:10.461Z</time>
      </trkpt>
      <trkpt lat="46.85771" lon="8.48586">
        <ele>2397</ele>
        <time>2021-08-12T09:29:11.461Z</time>
      </trkpt>
      <trkpt lat="46.8577" lon="8.48587">
        <ele>2397</ele>
        <time>2021-08-12T09:29:12.461Z</time>
      </trkpt>
      <trkpt lat="46.85769" lon="8.48588">
        <ele>2397</ele>
        <time>2021-08-12T09:29:13.461Z</time>
      </trkpt>
      <trkpt lat="46.85769" lon="8.48589">
        <ele>2397</ele>
        <time>2021-08-12T09:29:14.461Z</time>
      </trkpt>
      <trkpt lat="46.85768" lon="8.4859">
        <ele>2396</ele>
        <time>2021-08-12T09:29:15.461Z</time>
      </trkpt>
      <trkpt lat="46.85767" lon="8.4859">
        <ele>2396</ele>
        <time>2021-08-12T09:29:16.460Z</time>
      </trkpt>
      <trkpt lat="46.85766" lon="8.48591">
        <ele>2395</ele>
        <time>2021-08-12T09:29:17.461Z</time>
      </trkpt>
      <trkpt lat="46.85765" lon="8.48592">
        <ele>2395</ele>
        <time>2021-08-12T09:29:18.461Z</time>
      </trkpt>
      <trkpt lat="46.85764" lon="8.48592">
        <ele>2394</ele>
        <time>2021-08-12T09:29:19.461Z</time>
      </trkpt>
      <trkpt lat="46.85762" lon="8.48593">
        <ele>2394</ele>
        <time>2021-08-12T09:29:20.461Z</time>
      </trkpt>
      <trkpt lat="46.85761" lon="8.48592">
        <ele>2394</ele>
        <time>2021-08-12T09:29:21.461Z</time>
      </trkpt>
      <trkpt lat="46.8576" lon="8.48592">
        <ele>2394</ele>
        <time>2021-08-12T09:29:22.461Z</time>
      </trkpt>
      <trkpt lat="46.85759" lon="8.48591">
        <ele>2394</ele>
        <time>2021-08-12T09:29:23.461Z</time>
      </trkpt>
      <trkpt lat="46.85758" lon="8.48592">
        <ele>2393</ele>
        <time>2021-08-12T09:29:24.461Z</time>
      </trkpt>
      <trkpt lat="46.85756" lon="8.48592">
        <ele>2393</ele>
        <time>2021-08-12T09:29:25.460Z</time>
      </trkpt>
      <trkpt lat="46.85757" lon="8.48591">
        <ele>2393</ele>
        <time>2021-08-12T09:29:26.461Z</time>
      </trkpt>
      <trkpt lat="46.85758" lon="8.48592">
        <ele>2392</ele>
        <time>2021-08-12T09:29:27.461Z</time>
      </trkpt>
      <trkpt lat="46.85758" lon="8.48592">
        <ele>2391</ele>
        <time>2021-08-12T09:29:28.461Z</time>
      </trkpt>
      <trkpt lat="46.85758" lon="8.48592">
        <ele>2391</ele>
        <time>2021-08-12T09:29:29.460Z</time>
      </trkpt>
      <trkpt lat="46.85758" lon="8.48593">
        <ele>2390</ele>
        <time>2021-08-12T09:29:30.460Z</time>
      </trkpt>
      <trkpt lat="46.85757" lon="8.48594">
        <ele>2390</ele>
        <time>2021-08-12T09:29:31.460Z</time>
      </trkpt>
      <trkpt lat="46.85757" lon="8.48595">
        <ele>2389</ele>
        <time>2021-08-12T09:29:32.461Z</time>
      </trkpt>
      <trkpt lat="46.85756" lon="8.48596">
        <ele>2389</ele>
        <time>2021-08-12T09:29:33.461Z</time>
      </trkpt>
      <trkpt lat="46.85756" lon="8.48596">
        <ele>2389</ele>
        <time>2021-08-12T09:29:34.461Z</time>
      </trkpt>
      <trkpt lat="46.85755" lon="8.48597">
        <ele>2389</ele>
        <time>2021-08-12T09:29:35.460Z</time>
      </trkpt>
      <trkpt lat="46.85755" lon="8.48597">
        <ele>2388</ele>
        <time>2021-08-12T09:29:36.460Z</time>
      </trkpt>
      <trkpt lat="46.85754" lon="8.48598">
        <ele>2388</ele>
        <time>2021-08-12T09:29:37.460Z</time>
      </trkpt>
      <trkpt lat="46.85754" lon="8.48598">
        <ele>2388</ele>
        <time>2021-08-12T09:29:38.461Z</time>
      </trkpt>
      <trkpt lat="46.85753" lon="8.48599">
        <ele>2387</ele>
        <time>2021-08-12T09:29:39.460Z</time>
      </trkpt>
      <trkpt lat="46.85752" lon="8.48599">
        <ele>2387</ele>
        <time>2021-08-12T09:29:40.460Z</time>
      </trkpt>
      <trkpt lat="46.85752" lon="8.486">
        <ele>2387</ele>
        <time>2021-08-12T09:29:41.460Z</time>
      </trkpt>
      <trkpt lat="46.85751" lon="8.48599">
        <ele>2386</ele>
        <time>2021-08-12T09:29:42.460Z</time>
      </trkpt>
      <trkpt lat="46.85751" lon="8.48599">
        <ele>2386</ele>
        <time>2021-08-12T09:29:43.461Z</time>
      </trkpt>
      <trkpt lat="46.85751" lon="8.48599">
        <ele>2386</ele>
        <time>2021-08-12T09:29:44.460Z</time>
      </trkpt>
      <trkpt lat="46.85751" lon="8.48598">
        <ele>2386</ele>
        <time>2021-08-12T09:29:45.460Z</time>
      </trkpt>
      <trkpt lat="46.85752" lon="8.48598">
        <ele>2386</ele>
        <time>2021-08-12T09:29:46.461Z</time>
      </trkpt>
      <trkpt lat="46.85752" lon="8.48599">
        <ele>2385</ele>
        <time>2021-08-12T09:29:47.460Z</time>
      </trkpt>
      <trkpt lat="46.85752" lon="8.48599">
        <ele>2385</ele>
        <time>2021-08-12T09:29:48.461Z</time>
      </trkpt>
      <trkpt lat="46.85751" lon="8.48599">
        <ele>2385</ele>
        <time>2021-08-12T09:29:49.461Z</time>
      </trkpt>
      <trkpt lat="46.85751" lon="8.48599">
        <ele>2385</ele>
        <time>2021-08-12T09:29:50.461Z</time>
      </trkpt>
      <trkpt lat="46.8575" lon="8.48599">
        <ele>2385</ele>
        <time>2021-08-12T09:29:51.461Z</time>
      </trkpt>
      <trkpt lat="46.8575" lon="8.48599">
        <ele>2385</ele>
        <time>2021-08-12T09:29:52.460Z</time>
      </trkpt>
      <trkpt lat="46.8575" lon="8.48599">
        <ele>2384</ele>
        <time>2021-08-12T09:29:53.460Z</time>
      </trkpt>
      <trkpt lat="46.85749" lon="8.48598">
        <ele>2382</ele>
        <time>2021-08-12T09:29:54.462Z</time>
      </trkpt>
      <trkpt lat="46.85749" lon="8.48598">
        <ele>2382</ele>
        <time>2021-08-12T09:29:55.462Z</time>
      </trkpt>
      <trkpt lat="46.85749" lon="8.48598">
        <ele>2381</ele>
        <time>2021-08-12T09:29:56.462Z</time>
      </trkpt>
      <trkpt lat="46.85749" lon="8.48599">
        <ele>2381</ele>
        <time>2021-08-12T09:29:57.461Z</time>
      </trkpt>
      <trkpt lat="46.85749" lon="8.48599">
        <ele>2381</ele>
        <time>2021-08-12T09:29:58.462Z</time>
      </trkpt>
      <trkpt lat="46.85749" lon="8.48599">
        <ele>2380</ele>
        <time>2021-08-12T09:29:59.462Z</time>
      </trkpt>
      <trkpt lat="46.85749" lon="8.48598">
        <ele>2380</ele>
        <time>2021-08-12T09:30:00.462Z</time>
      </trkpt>
      <trkpt lat="46.85749" lon="8.48598">
        <ele>2380</ele>
        <time>2021-08-12T09:30:01.461Z</time>
      </trkpt>
      <trkpt lat="46.85749" lon="8.48599">
        <ele>2380</ele>
        <time>2021-08-12T09:30:02.462Z</time>
      </trkpt>
      <trkpt lat="46.85748" lon="8.48599">
        <ele>2380</ele>
        <time>2021-08-12T09:30:03.461Z</time>
      </trkpt>
      <trkpt lat="46.85747" lon="8.486">
        <ele>2380</ele>
        <time>2021-08-12T09:30:04.461Z</time>
      </trkpt>
      <trkpt lat="46.85747" lon="8.486">
        <ele>2380</ele>
        <time>2021-08-12T09:30:05.462Z</time>
      </trkpt>
      <trkpt lat="46.85747" lon="8.486">
        <ele>2380</ele>
        <time>2021-08-12T09:30:06.462Z</time>
      </trkpt>
      <trkpt lat="46.85747" lon="8.486">
        <ele>2380</ele>
        <time>2021-08-12T09:30:07.461Z</time>
      </trkpt>
      <trkpt lat="46.85746" lon="8.48599">
        <ele>2380</ele>
        <time>2021-08-12T09:30:08.462Z</time>
      </trkpt>
      <trkpt lat="46.85746" lon="8.48599">
        <ele>2380</ele>
        <time>2021-08-12T09:30:09.462Z</time>
      </trkpt>
      <trkpt lat="46.85746" lon="8.48599">
        <ele>2381</ele>
        <time>2021-08-12T09:30:10.462Z</time>
      </trkpt>
      <trkpt lat="46.85746" lon="8.48599">
        <ele>2381</ele>
        <time>2021-08-12T09:30:11.462Z</time>
      </trkpt>
      <trkpt lat="46.85747" lon="8.48599">
        <ele>2382</ele>
        <time>2021-08-12T09:30:12.463Z</time>
      </trkpt>
      <trkpt lat="46.85748" lon="8.48599">
        <ele>2383</ele>
        <time>2021-08-12T09:30:13.462Z</time>
      </trkpt>
      <trkpt lat="46.85748" lon="8.48599">
        <ele>2383</ele>
        <time>2021-08-12T09:30:14.463Z</time>
      </trkpt>
      <trkpt lat="46.85748" lon="8.48598">
        <ele>2384</ele>
        <time>2021-08-12T09:30:15.463Z</time>
      </trkpt>
      <trkpt lat="46.85749" lon="8.48598">
        <ele>2385</ele>
        <time>2021-08-12T09:30:16.462Z</time>
      </trkpt>
      <trkpt lat="46.85748" lon="8.48599">
        <ele>2385</ele>
        <time>2021-08-12T09:30:17.463Z</time>
      </trkpt>
      <trkpt lat="46.85746" lon="8.48597">
        <ele>2389</ele>
        <time>2021-08-12T09:30:18.462Z</time>
      </trkpt>
      <trkpt lat="46.85745" lon="8.48597">
        <ele>2389</ele>
        <time>2021-08-12T09:30:19.462Z</time>
      </trkpt>
      <trkpt lat="46.85745" lon="8.48597">
        <ele>2389</ele>
        <time>2021-08-12T09:30:20.462Z</time>
      </trkpt>
      <trkpt lat="46.85745" lon="8.48597">
        <ele>2390</ele>
        <time>2021-08-12T09:30:21.462Z</time>
      </trkpt>
      <trkpt lat="46.85744" lon="8.48596">
        <ele>2390</ele>
        <time>2021-08-12T09:30:22.463Z</time>
      </trkpt>
      <trkpt lat="46.85744" lon="8.48595">
        <ele>2390</ele>
        <time>2021-08-12T09:30:23.463Z</time>
      </trkpt>
      <trkpt lat="46.85743" lon="8.48595">
        <ele>2390</ele>
        <time>2021-08-12T09:30:24.462Z</time>
      </trkpt>
      <trkpt lat="46.85743" lon="8.48595">
        <ele>2390</ele>
        <time>2021-08-12T09:30:25.463Z</time>
      </trkpt>
      <trkpt lat="46.85742" lon="8.48595">
        <ele>2390</ele>
        <time>2021-08-12T09:30:26.463Z</time>
      </trkpt>
      <trkpt lat="46.85741" lon="8.48594">
        <ele>2389</ele>
        <time>2021-08-12T09:30:27.463Z</time>
      </trkpt>
      <trkpt lat="46.85741" lon="8.48594">
        <ele>2389</ele>
        <time>2021-08-12T09:30:28.463Z</time>
      </trkpt>
      <trkpt lat="46.85741" lon="8.48594">
        <ele>2389</ele>
        <time>2021-08-12T09:30:29.462Z</time>
      </trkpt>
      <trkpt lat="46.8574" lon="8.48594">
        <ele>2389</ele>
        <time>2021-08-12T09:30:30.463Z</time>
      </trkpt>
      <trkpt lat="46.85739" lon="8.48594">
        <ele>2389</ele>
        <time>2021-08-12T09:30:31.463Z</time>
      </trkpt>
      <trkpt lat="46.85738" lon="8.48595">
        <ele>2390</ele>
        <time>2021-08-12T09:30:32.462Z</time>
      </trkpt>
      <trkpt lat="46.85738" lon="8.48594">
        <ele>2390</ele>
        <time>2021-08-12T09:30:33.463Z</time>
      </trkpt>
      <trkpt lat="46.85737" lon="8.48594">
        <ele>2390</ele>
        <time>2021-08-12T09:30:34.462Z</time>
      </trkpt>
      <trkpt lat="46.85737" lon="8.48594">
        <ele>2391</ele>
        <time>2021-08-12T09:30:35.462Z</time>
      </trkpt>
      <trkpt lat="46.85736" lon="8.48594">
        <ele>2391</ele>
        <time>2021-08-12T09:30:36.463Z</time>
      </trkpt>
      <trkpt lat="46.85735" lon="8.48595">
        <ele>2392</ele>
        <time>2021-08-12T09:30:37.462Z</time>
      </trkpt>
      <trkpt lat="46.85733" lon="8.48596">
        <ele>2392</ele>
        <time>2021-08-12T09:30:38.463Z</time>
      </trkpt>
      <trkpt lat="46.85731" lon="8.48596">
        <ele>2393</ele>
        <time>2021-08-12T09:30:39.463Z</time>
      </trkpt>
      <trkpt lat="46.8573" lon="8.48597">
        <ele>2394</ele>
        <time>2021-08-12T09:30:40.462Z</time>
      </trkpt>
      <trkpt lat="46.85729" lon="8.48598">
        <ele>2394</ele>
        <time>2021-08-12T09:30:41.462Z</time>
      </trkpt>
      <trkpt lat="46.85728" lon="8.48598">
        <ele>2395</ele>
        <time>2021-08-12T09:30:42.463Z</time>
      </trkpt>
      <trkpt lat="46.85727" lon="8.48599">
        <ele>2396</ele>
        <time>2021-08-12T09:30:43.462Z</time>
      </trkpt>
      <trkpt lat="46.85727" lon="8.486">
        <ele>2396</ele>
        <time>2021-08-12T09:30:44.462Z</time>
      </trkpt>
      <trkpt lat="46.85726" lon="8.486">
        <ele>2396</ele>
        <time>2021-08-12T09:30:45.462Z</time>
      </trkpt>
      <trkpt lat="46.85726" lon="8.48601">
        <ele>2396</ele>
        <time>2021-08-12T09:30:46.462Z</time>
      </trkpt>
      <trkpt lat="46.85726" lon="8.48602">
        <ele>2395</ele>
        <time>2021-08-12T09:30:47.462Z</time>
      </trkpt>
      <trkpt lat="46.85725" lon="8.48603">
        <ele>2395</ele>
        <time>2021-08-12T09:30:48.463Z</time>
      </trkpt>
      <trkpt lat="46.85724" lon="8.48603">
        <ele>2394</ele>
        <time>2021-08-12T09:30:49.462Z</time>
      </trkpt>
      <trkpt lat="46.85723" lon="8.48603">
        <ele>2394</ele>
        <time>2021-08-12T09:30:50.462Z</time>
      </trkpt>
      <trkpt lat="46.85723" lon="8.48604">
        <ele>2394</ele>
        <time>2021-08-12T09:30:51.462Z</time>
      </trkpt>
      <trkpt lat="46.85722" lon="8.48604">
        <ele>2394</ele>
        <time>2021-08-12T09:30:52.462Z</time>
      </trkpt>
      <trkpt lat="46.85721" lon="8.48606">
        <ele>2394</ele>
        <time>2021-08-12T09:30:53.462Z</time>
      </trkpt>
      <trkpt lat="46.8572" lon="8.48607">
        <ele>2394</ele>
        <time>2021-08-12T09:30:54.462Z</time>
      </trkpt>
      <trkpt lat="46.8572" lon="8.48608">
        <ele>2394</ele>
        <time>2021-08-12T09:30:55.462Z</time>
      </trkpt>
      <trkpt lat="46.85719" lon="8.48609">
        <ele>2395</ele>
        <time>2021-08-12T09:30:56.462Z</time>
      </trkpt>
      <trkpt lat="46.85718" lon="8.4861">
        <ele>2395</ele>
        <time>2021-08-12T09:30:57.462Z</time>
      </trkpt>
      <trkpt lat="46.85716" lon="8.4861">
        <ele>2396</ele>
        <time>2021-08-12T09:30:58.462Z</time>
      </trkpt>
      <trkpt lat="46.85715" lon="8.4861">
        <ele>2396</ele>
        <time>2021-08-12T09:30:59.462Z</time>
      </trkpt>
      <trkpt lat="46.85714" lon="8.4861">
        <ele>2396</ele>
        <time>2021-08-12T09:31:00.462Z</time>
      </trkpt>
      <trkpt lat="46.85714" lon="8.48612">
        <ele>2396</ele>
        <time>2021-08-12T09:31:01.462Z</time>
      </trkpt>
      <trkpt lat="46.85714" lon="8.48613">
        <ele>2396</ele>
        <time>2021-08-12T09:31:02.462Z</time>
      </trkpt>
      <trkpt lat="46.85714" lon="8.48615">
        <ele>2396</ele>
        <time>2021-08-12T09:31:03.462Z</time>
      </trkpt>
      <trkpt lat="46.85713" lon="8.48617">
        <ele>2396</ele>
        <time>2021-08-12T09:31:04.462Z</time>
      </trkpt>
      <trkpt lat="46.85712" lon="8.48618">
        <ele>2396</ele>
        <time>2021-08-12T09:31:05.462Z</time>
      </trkpt>
      <trkpt lat="46.85711" lon="8.48619">
        <ele>2396</ele>
        <time>2021-08-12T09:31:06.463Z</time>
      </trkpt>
      <trkpt lat="46.85711" lon="8.4862">
        <ele>2397</ele>
        <time>2021-08-12T09:31:07.463Z</time>
      </trkpt>
      <trkpt lat="46.8571" lon="8.48621">
        <ele>2397</ele>
        <time>2021-08-12T09:31:08.462Z</time>
      </trkpt>
      <trkpt lat="46.85709" lon="8.48623">
        <ele>2398</ele>
        <time>2021-08-12T09:31:09.463Z</time>
      </trkpt>
      <trkpt lat="46.85709" lon="8.48624">
        <ele>2398</ele>
        <time>2021-08-12T09:31:10.462Z</time>
      </trkpt>
      <trkpt lat="46.85709" lon="8.48625">
        <ele>2398</ele>
        <time>2021-08-12T09:31:11.463Z</time>
      </trkpt>
      <trkpt lat="46.85709" lon="8.48626">
        <ele>2398</ele>
        <time>2021-08-12T09:31:12.463Z</time>
      </trkpt>
      <trkpt lat="46.85708" lon="8.48626">
        <ele>2398</ele>
        <time>2021-08-12T09:31:13.463Z</time>
      </trkpt>
      <trkpt lat="46.85707" lon="8.48627">
        <ele>2397</ele>
        <time>2021-08-12T09:31:14.462Z</time>
      </trkpt>
      <trkpt lat="46.85706" lon="8.48628">
        <ele>2397</ele>
        <time>2021-08-12T09:31:15.463Z</time>
      </trkpt>
      <trkpt lat="46.85704" lon="8.48628">
        <ele>2398</ele>
        <time>2021-08-12T09:31:16.463Z</time>
      </trkpt>
      <trkpt lat="46.85704" lon="8.48629">
        <ele>2398</ele>
        <time>2021-08-12T09:31:17.462Z</time>
      </trkpt>
      <trkpt lat="46.85703" lon="8.4863">
        <ele>2398</ele>
        <time>2021-08-12T09:31:18.463Z</time>
      </trkpt>
      <trkpt lat="46.85703" lon="8.48631">
        <ele>2399</ele>
        <time>2021-08-12T09:31:19.462Z</time>
      </trkpt>
      <trkpt lat="46.85703" lon="8.48631">
        <ele>2400</ele>
        <time>2021-08-12T09:31:20.462Z</time>
      </trkpt>
      <trkpt lat="46.85703" lon="8.48631">
        <ele>2400</ele>
        <time>2021-08-12T09:31:21.463Z</time>
      </trkpt>
      <trkpt lat="46.85704" lon="8.48631">
        <ele>2401</ele>
        <time>2021-08-12T09:31:22.463Z</time>
      </trkpt>
      <trkpt lat="46.85703" lon="8.48631">
        <ele>2402</ele>
        <time>2021-08-12T09:31:23.463Z</time>
      </trkpt>
      <trkpt lat="46.85703" lon="8.48631">
        <ele>2402</ele>
        <time>2021-08-12T09:31:24.463Z</time>
      </trkpt>
      <trkpt lat="46.85702" lon="8.48631">
        <ele>2403</ele>
        <time>2021-08-12T09:31:25.463Z</time>
      </trkpt>
      <trkpt lat="46.85702" lon="8.48631">
        <ele>2404</ele>
        <time>2021-08-12T09:31:26.462Z</time>
      </trkpt>
      <trkpt lat="46.85702" lon="8.48632">
        <ele>2405</ele>
        <time>2021-08-12T09:31:27.463Z</time>
      </trkpt>
      <trkpt lat="46.85702" lon="8.48631">
        <ele>2405</ele>
        <time>2021-08-12T09:31:28.462Z</time>
      </trkpt>
      <trkpt lat="46.85702" lon="8.48637">
        <ele>2409</ele>
        <time>2021-08-12T09:31:29.463Z</time>
      </trkpt>
      <trkpt lat="46.85702" lon="8.48639">
        <ele>2410</ele>
        <time>2021-08-12T09:31:30.463Z</time>
      </trkpt>
      <trkpt lat="46.85701" lon="8.48641">
        <ele>2410</ele>
        <time>2021-08-12T09:31:31.462Z</time>
      </trkpt>
      <trkpt lat="46.85705" lon="8.48649">
        <ele>2407</ele>
        <time>2021-08-12T09:31:32.464Z</time>
      </trkpt>
      <trkpt lat="46.85705" lon="8.48649">
        <ele>2407</ele>
        <time>2021-08-12T09:31:33.463Z</time>
      </trkpt>
      <trkpt lat="46.85707" lon="8.4865">
        <ele>2409</ele>
        <time>2021-08-12T09:31:34.463Z</time>
      </trkpt>
      <trkpt lat="46.8571" lon="8.48648">
        <ele>2414</ele>
        <time>2021-08-12T09:31:35.465Z</time>
      </trkpt>
      <trkpt lat="46.8571" lon="8.48648">
        <ele>2414</ele>
        <time>2021-08-12T09:31:36.465Z</time>
      </trkpt>
      <trkpt lat="46.8571" lon="8.48648">
        <ele>2414</ele>
        <time>2021-08-12T09:31:37.464Z</time>
      </trkpt>
      <trkpt lat="46.85711" lon="8.48647">
        <ele>2414</ele>
        <time>2021-08-12T09:31:38.465Z</time>
      </trkpt>
      <trkpt lat="46.8571" lon="8.48646">
        <ele>2413</ele>
        <time>2021-08-12T09:31:39.465Z</time>
      </trkpt>
      <trkpt lat="46.8571" lon="8.48646">
        <ele>2412</ele>
        <time>2021-08-12T09:31:40.465Z</time>
      </trkpt>
      <trkpt lat="46.8571" lon="8.48647">
        <ele>2412</ele>
        <time>2021-08-12T09:31:41.465Z</time>
      </trkpt>
      <trkpt lat="46.8571" lon="8.48647">
        <ele>2412</ele>
        <time>2021-08-12T09:31:42.465Z</time>
      </trkpt>
      <trkpt lat="46.8571" lon="8.48648">
        <ele>2411</ele>
        <time>2021-08-12T09:31:43.464Z</time>
      </trkpt>
      <trkpt lat="46.8571" lon="8.48648">
        <ele>2411</ele>
        <time>2021-08-12T09:31:44.464Z</time>
      </trkpt>
      <trkpt lat="46.85709" lon="8.48649">
        <ele>2410</ele>
        <time>2021-08-12T09:31:45.465Z</time>
      </trkpt>
      <trkpt lat="46.85709" lon="8.4865">
        <ele>2409</ele>
        <time>2021-08-12T09:31:46.465Z</time>
      </trkpt>
      <trkpt lat="46.85708" lon="8.48651">
        <ele>2409</ele>
        <time>2021-08-12T09:31:47.464Z</time>
      </trkpt>
      <trkpt lat="46.85708" lon="8.48651">
        <ele>2408</ele>
        <time>2021-08-12T09:31:48.465Z</time>
      </trkpt>
      <trkpt lat="46.85707" lon="8.48651">
        <ele>2408</ele>
        <time>2021-08-12T09:31:49.464Z</time>
      </trkpt>
      <trkpt lat="46.85706" lon="8.48651">
        <ele>2407</ele>
        <time>2021-08-12T09:31:50.465Z</time>
      </trkpt>
      <trkpt lat="46.85705" lon="8.48651">
        <ele>2407</ele>
        <time>2021-08-12T09:31:51.464Z</time>
      </trkpt>
      <trkpt lat="46.85705" lon="8.48651">
        <ele>2407</ele>
        <time>2021-08-12T09:31:52.465Z</time>
      </trkpt>
      <trkpt lat="46.85706" lon="8.48652">
        <ele>2406</ele>
        <time>2021-08-12T09:31:53.465Z</time>
      </trkpt>
      <trkpt lat="46.85706" lon="8.48652">
        <ele>2405</ele>
        <time>2021-08-12T09:31:54.465Z</time>
      </trkpt>
      <trkpt lat="46.85706" lon="8.48653">
        <ele>2404</ele>
        <time>2021-08-12T09:31:55.464Z</time>
      </trkpt>
      <trkpt lat="46.85706" lon="8.48653">
        <ele>2403</ele>
        <time>2021-08-12T09:31:56.465Z</time>
      </trkpt>
      <trkpt lat="46.85705" lon="8.48654">
        <ele>2403</ele>
        <time>2021-08-12T09:31:57.465Z</time>
      </trkpt>
      <trkpt lat="46.85704" lon="8.48654">
        <ele>2402</ele>
        <time>2021-08-12T09:31:58.464Z</time>
      </trkpt>
      <trkpt lat="46.85703" lon="8.48654">
        <ele>2402</ele>
        <time>2021-08-12T09:31:59.465Z</time>
      </trkpt>
      <trkpt lat="46.85701" lon="8.48654">
        <ele>2401</ele>
        <time>2021-08-12T09:32:00.465Z</time>
      </trkpt>
      <trkpt lat="46.85701" lon="8.48655">
        <ele>2401</ele>
        <time>2021-08-12T09:32:01.465Z</time>
      </trkpt>
      <trkpt lat="46.857" lon="8.48655">
        <ele>2400</ele>
        <time>2021-08-12T09:32:02.464Z</time>
      </trkpt>
      <trkpt lat="46.857" lon="8.48656">
        <ele>2400</ele>
        <time>2021-08-12T09:32:03.464Z</time>
      </trkpt>
      <trkpt lat="46.857" lon="8.48657">
        <ele>2399</ele>
        <time>2021-08-12T09:32:04.464Z</time>
      </trkpt>
      <trkpt lat="46.857" lon="8.48658">
        <ele>2399</ele>
        <time>2021-08-12T09:32:05.465Z</time>
      </trkpt>
      <trkpt lat="46.857" lon="8.48658">
        <ele>2398</ele>
        <time>2021-08-12T09:32:06.465Z</time>
      </trkpt>
      <trkpt lat="46.857" lon="8.48658">
        <ele>2398</ele>
        <time>2021-08-12T09:32:07.464Z</time>
      </trkpt>
      <trkpt lat="46.85699" lon="8.48659">
        <ele>2398</ele>
        <time>2021-08-12T09:32:08.465Z</time>
      </trkpt>
      <trkpt lat="46.85699" lon="8.4866">
        <ele>2398</ele>
        <time>2021-08-12T09:32:09.464Z</time>
      </trkpt>
      <trkpt lat="46.85698" lon="8.4866">
        <ele>2398</ele>
        <time>2021-08-12T09:32:10.465Z</time>
      </trkpt>
      <trkpt lat="46.85697" lon="8.48661">
        <ele>2399</ele>
        <time>2021-08-12T09:32:11.464Z</time>
      </trkpt>
      <trkpt lat="46.85697" lon="8.48661">
        <ele>2399</ele>
        <time>2021-08-12T09:32:12.464Z</time>
      </trkpt>
      <trkpt lat="46.85696" lon="8.48662">
        <ele>2399</ele>
        <time>2021-08-12T09:32:13.464Z</time>
      </trkpt>
      <trkpt lat="46.85696" lon="8.48663">
        <ele>2399</ele>
        <time>2021-08-12T09:32:14.464Z</time>
      </trkpt>
      <trkpt lat="46.85696" lon="8.48664">
        <ele>2400</ele>
        <time>2021-08-12T09:32:15.465Z</time>
      </trkpt>
      <trkpt lat="46.85696" lon="8.48665">
        <ele>2401</ele>
        <time>2021-08-12T09:32:16.465Z</time>
      </trkpt>
      <trkpt lat="46.85696" lon="8.48666">
        <ele>2401</ele>
        <time>2021-08-12T09:32:17.464Z</time>
      </trkpt>
      <trkpt lat="46.85696" lon="8.48665">
        <ele>2402</ele>
        <time>2021-08-12T09:32:18.465Z</time>
      </trkpt>
      <trkpt lat="46.85695" lon="8.48665">
        <ele>2402</ele>
        <time>2021-08-12T09:32:19.465Z</time>
      </trkpt>
      <trkpt lat="46.85695" lon="8.48664">
        <ele>2402</ele>
        <time>2021-08-12T09:32:20.465Z</time>
      </trkpt>
      <trkpt lat="46.85695" lon="8.48664">
        <ele>2403</ele>
        <time>2021-08-12T09:32:21.464Z</time>
      </trkpt>
      <trkpt lat="46.85695" lon="8.48664">
        <ele>2403</ele>
        <time>2021-08-12T09:32:22.465Z</time>
      </trkpt>
      <trkpt lat="46.85695" lon="8.48665">
        <ele>2404</ele>
        <time>2021-08-12T09:32:23.464Z</time>
      </trkpt>
      <trkpt lat="46.85695" lon="8.48666">
        <ele>2406</ele>
        <time>2021-08-12T09:32:24.465Z</time>
      </trkpt>
      <trkpt lat="46.85695" lon="8.48669">
        <ele>2408</ele>
        <time>2021-08-12T09:32:25.466Z</time>
      </trkpt>
      <trkpt lat="46.85695" lon="8.48669">
        <ele>2408</ele>
        <time>2021-08-12T09:32:26.466Z</time>
      </trkpt>
      <trkpt lat="46.85695" lon="8.48671">
        <ele>2408</ele>
        <time>2021-08-12T09:32:27.466Z</time>
      </trkpt>
      <trkpt lat="46.85696" lon="8.48672">
        <ele>2409</ele>
        <time>2021-08-12T09:32:28.466Z</time>
      </trkpt>
      <trkpt lat="46.85696" lon="8.48673">
        <ele>2409</ele>
        <time>2021-08-12T09:32:29.465Z</time>
      </trkpt>
      <trkpt lat="46.85696" lon="8.48674">
        <ele>2409</ele>
        <time>2021-08-12T09:32:30.466Z</time>
      </trkpt>
      <trkpt lat="46.85695" lon="8.48676">
        <ele>2410</ele>
        <time>2021-08-12T09:32:31.465Z</time>
      </trkpt>
      <trkpt lat="46.85696" lon="8.48677">
        <ele>2411</ele>
        <time>2021-08-12T09:32:32.466Z</time>
      </trkpt>
      <trkpt lat="46.85695" lon="8.48678">
        <ele>2411</ele>
        <time>2021-08-12T09:32:33.465Z</time>
      </trkpt>
      <trkpt lat="46.85696" lon="8.48678">
        <ele>2412</ele>
        <time>2021-08-12T09:32:34.466Z</time>
      </trkpt>
      <trkpt lat="46.85696" lon="8.48679">
        <ele>2412</ele>
        <time>2021-08-12T09:32:35.466Z</time>
      </trkpt>
      <trkpt lat="46.85696" lon="8.4868">
        <ele>2412</ele>
        <time>2021-08-12T09:32:36.465Z</time>
      </trkpt>
      <trkpt lat="46.85696" lon="8.48681">
        <ele>2412</ele>
        <time>2021-08-12T09:32:37.465Z</time>
      </trkpt>
      <trkpt lat="46.85696" lon="8.48683">
        <ele>2412</ele>
        <time>2021-08-12T09:32:38.465Z</time>
      </trkpt>
      <trkpt lat="46.85696" lon="8.48685">
        <ele>2412</ele>
        <time>2021-08-12T09:32:39.465Z</time>
      </trkpt>
      <trkpt lat="46.85697" lon="8.48687">
        <ele>2412</ele>
        <time>2021-08-12T09:32:40.465Z</time>
      </trkpt>
      <trkpt lat="46.85696" lon="8.48688">
        <ele>2412</ele>
        <time>2021-08-12T09:32:41.465Z</time>
      </trkpt>
      <trkpt lat="46.85695" lon="8.48688">
        <ele>2412</ele>
        <time>2021-08-12T09:32:42.465Z</time>
      </trkpt>
      <trkpt lat="46.85694" lon="8.48687">
        <ele>2412</ele>
        <time>2021-08-12T09:32:43.465Z</time>
      </trkpt>
      <trkpt lat="46.85693" lon="8.48687">
        <ele>2411</ele>
        <time>2021-08-12T09:32:44.466Z</time>
      </trkpt>
      <trkpt lat="46.85692" lon="8.48687">
        <ele>2411</ele>
        <time>2021-08-12T09:32:45.465Z</time>
      </trkpt>
      <trkpt lat="46.85691" lon="8.48687">
        <ele>2411</ele>
        <time>2021-08-12T09:32:46.465Z</time>
      </trkpt>
      <trkpt lat="46.8569" lon="8.48688">
        <ele>2411</ele>
        <time>2021-08-12T09:32:47.466Z</time>
      </trkpt>
      <trkpt lat="46.8569" lon="8.48689">
        <ele>2410</ele>
        <time>2021-08-12T09:32:48.466Z</time>
      </trkpt>
      <trkpt lat="46.8569" lon="8.48691">
        <ele>2410</ele>
        <time>2021-08-12T09:32:49.465Z</time>
      </trkpt>
      <trkpt lat="46.8569" lon="8.48691">
        <ele>2410</ele>
        <time>2021-08-12T09:32:50.465Z</time>
      </trkpt>
      <trkpt lat="46.85689" lon="8.48692">
        <ele>2410</ele>
        <time>2021-08-12T09:32:51.466Z</time>
      </trkpt>
      <trkpt lat="46.85689" lon="8.48693">
        <ele>2409</ele>
        <time>2021-08-12T09:32:52.466Z</time>
      </trkpt>
      <trkpt lat="46.85689" lon="8.48694">
        <ele>2409</ele>
        <time>2021-08-12T09:32:53.465Z</time>
      </trkpt>
      <trkpt lat="46.85688" lon="8.48695">
        <ele>2409</ele>
        <time>2021-08-12T09:32:54.465Z</time>
      </trkpt>
      <trkpt lat="46.85688" lon="8.48696">
        <ele>2410</ele>
        <time>2021-08-12T09:32:55.465Z</time>
      </trkpt>
      <trkpt lat="46.85688" lon="8.48697">
        <ele>2410</ele>
        <time>2021-08-12T09:32:56.465Z</time>
      </trkpt>
      <trkpt lat="46.85688" lon="8.48698">
        <ele>2410</ele>
        <time>2021-08-12T09:32:57.465Z</time>
      </trkpt>
      <trkpt lat="46.85688" lon="8.48699">
        <ele>2410</ele>
        <time>2021-08-12T09:32:58.465Z</time>
      </trkpt>
      <trkpt lat="46.85687" lon="8.48699">
        <ele>2410</ele>
        <time>2021-08-12T09:32:59.466Z</time>
      </trkpt>
      <trkpt lat="46.85686" lon="8.48699">
        <ele>2410</ele>
        <time>2021-08-12T09:33:00.465Z</time>
      </trkpt>
      <trkpt lat="46.85685" lon="8.487">
        <ele>2411</ele>
        <time>2021-08-12T09:33:01.466Z</time>
      </trkpt>
      <trkpt lat="46.85685" lon="8.48701">
        <ele>2411</ele>
        <time>2021-08-12T09:33:02.465Z</time>
      </trkpt>
      <trkpt lat="46.85684" lon="8.48701">
        <ele>2411</ele>
        <time>2021-08-12T09:33:03.465Z</time>
      </trkpt>
      <trkpt lat="46.85684" lon="8.48702">
        <ele>2411</ele>
        <time>2021-08-12T09:33:04.466Z</time>
      </trkpt>
      <trkpt lat="46.85684" lon="8.48702">
        <ele>2410</ele>
        <time>2021-08-12T09:33:05.465Z</time>
      </trkpt>
      <trkpt lat="46.85683" lon="8.48703">
        <ele>2409</ele>
        <time>2021-08-12T09:33:06.466Z</time>
      </trkpt>
      <trkpt lat="46.85683" lon="8.48703">
        <ele>2408</ele>
        <time>2021-08-12T09:33:07.466Z</time>
      </trkpt>
      <trkpt lat="46.85684" lon="8.48706">
        <ele>2406</ele>
        <time>2021-08-12T09:33:08.466Z</time>
      </trkpt>
      <trkpt lat="46.85684" lon="8.48707">
        <ele>2406</ele>
        <time>2021-08-12T09:33:09.466Z</time>
      </trkpt>
      <trkpt lat="46.85685" lon="8.48707">
        <ele>2407</ele>
        <time>2021-08-12T09:33:10.467Z</time>
      </trkpt>
      <trkpt lat="46.85685" lon="8.48708">
        <ele>2408</ele>
        <time>2021-08-12T09:33:11.466Z</time>
      </trkpt>
      <trkpt lat="46.85688" lon="8.48715">
        <ele>2413</ele>
        <time>2021-08-12T09:33:12.469Z</time>
      </trkpt>
      <trkpt lat="46.85688" lon="8.48715">
        <ele>2413</ele>
        <time>2021-08-12T09:33:13.468Z</time>
      </trkpt>
      <trkpt lat="46.8569" lon="8.48715">
        <ele>2414</ele>
        <time>2021-08-12T09:33:14.469Z</time>
      </trkpt>
      <trkpt lat="46.8569" lon="8.48717">
        <ele>2415</ele>
        <time>2021-08-12T09:33:15.469Z</time>
      </trkpt>
      <trkpt lat="46.85691" lon="8.48717">
        <ele>2416</ele>
        <time>2021-08-12T09:33:16.469Z</time>
      </trkpt>
      <trkpt lat="46.85692" lon="8.48717">
        <ele>2416</ele>
        <time>2021-08-12T09:33:17.469Z</time>
      </trkpt>
      <trkpt lat="46.85692" lon="8.48717">
        <ele>2417</ele>
        <time>2021-08-12T09:33:18.468Z</time>
      </trkpt>
      <trkpt lat="46.85692" lon="8.48717">
        <ele>2417</ele>
        <time>2021-08-12T09:33:19.469Z</time>
      </trkpt>
      <trkpt lat="46.85691" lon="8.48717">
        <ele>2417</ele>
        <time>2021-08-12T09:33:20.469Z</time>
      </trkpt>
      <trkpt lat="46.85692" lon="8.48718">
        <ele>2418</ele>
        <time>2021-08-12T09:33:21.468Z</time>
      </trkpt>
      <trkpt lat="46.85692" lon="8.48718">
        <ele>2418</ele>
        <time>2021-08-12T09:33:22.468Z</time>
      </trkpt>
      <trkpt lat="46.85693" lon="8.48717">
        <ele>2418</ele>
        <time>2021-08-12T09:33:23.469Z</time>
      </trkpt>
      <trkpt lat="46.85693" lon="8.48717">
        <ele>2418</ele>
        <time>2021-08-12T09:33:24.469Z</time>
      </trkpt>
      <trkpt lat="46.85693" lon="8.48717">
        <ele>2418</ele>
        <time>2021-08-12T09:33:25.468Z</time>
      </trkpt>
      <trkpt lat="46.85693" lon="8.48717">
        <ele>2419</ele>
        <time>2021-08-12T09:33:26.469Z</time>
      </trkpt>
      <trkpt lat="46.85693" lon="8.48716">
        <ele>2419</ele>
        <time>2021-08-12T09:33:27.469Z</time>
      </trkpt>
      <trkpt lat="46.85693" lon="8.48716">
        <ele>2419</ele>
        <time>2021-08-12T09:33:28.469Z</time>
      </trkpt>
      <trkpt lat="46.85694" lon="8.48716">
        <ele>2419</ele>
        <time>2021-08-12T09:33:29.469Z</time>
      </trkpt>
      <trkpt lat="46.85694" lon="8.48716">
        <ele>2419</ele>
        <time>2021-08-12T09:33:30.468Z</time>
      </trkpt>
      <trkpt lat="46.85695" lon="8.48715">
        <ele>2419</ele>
        <time>2021-08-12T09:33:31.469Z</time>
      </trkpt>
      <trkpt lat="46.85696" lon="8.48714">
        <ele>2419</ele>
        <time>2021-08-12T09:33:32.469Z</time>
      </trkpt>
      <trkpt lat="46.85697" lon="8.48714">
        <ele>2419</ele>
        <time>2021-08-12T09:33:33.469Z</time>
      </trkpt>
      <trkpt lat="46.85697" lon="8.48713">
        <ele>2418</ele>
        <time>2021-08-12T09:33:34.469Z</time>
      </trkpt>
      <trkpt lat="46.85698" lon="8.48713">
        <ele>2418</ele>
        <time>2021-08-12T09:33:35.468Z</time>
      </trkpt>
      <trkpt lat="46.85698" lon="8.48713">
        <ele>2418</ele>
        <time>2021-08-12T09:33:36.469Z</time>
      </trkpt>
      <trkpt lat="46.85699" lon="8.48712">
        <ele>2417</ele>
        <time>2021-08-12T09:33:37.468Z</time>
      </trkpt>
      <trkpt lat="46.857" lon="8.48711">
        <ele>2418</ele>
        <time>2021-08-12T09:33:38.468Z</time>
      </trkpt>
      <trkpt lat="46.85701" lon="8.48711">
        <ele>2418</ele>
        <time>2021-08-12T09:33:39.468Z</time>
      </trkpt>
      <trkpt lat="46.85701" lon="8.48711">
        <ele>2419</ele>
        <time>2021-08-12T09:33:40.468Z</time>
      </trkpt>
      <trkpt lat="46.85701" lon="8.48711">
        <ele>2421</ele>
        <time>2021-08-12T09:33:41.468Z</time>
      </trkpt>
      <trkpt lat="46.85711" lon="8.48708">
        <ele>2429</ele>
        <time>2021-08-12T09:33:42.469Z</time>
      </trkpt>
      <trkpt lat="46.85711" lon="8.48708">
        <ele>2430</ele>
        <time>2021-08-12T09:33:43.469Z</time>
      </trkpt>
      <trkpt lat="46.85712" lon="8.48707">
        <ele>2430</ele>
        <time>2021-08-12T09:33:44.469Z</time>
      </trkpt>
      <trkpt lat="46.85712" lon="8.48707">
        <ele>2429</ele>
        <time>2021-08-12T09:33:45.469Z</time>
      </trkpt>
      <trkpt lat="46.85712" lon="8.48707">
        <ele>2429</ele>
        <time>2021-08-12T09:33:46.469Z</time>
      </trkpt>
      <trkpt lat="46.85711" lon="8.48707">
        <ele>2429</ele>
        <time>2021-08-12T09:33:47.468Z</time>
      </trkpt>
      <trkpt lat="46.85712" lon="8.48708">
        <ele>2429</ele>
        <time>2021-08-12T09:33:48.469Z</time>
      </trkpt>
      <trkpt lat="46.85712" lon="8.48708">
        <ele>2430</ele>
        <time>2021-08-12T09:33:49.469Z</time>
      </trkpt>
      <trkpt lat="46.85713" lon="8.48708">
        <ele>2430</ele>
        <time>2021-08-12T09:33:50.468Z</time>
      </trkpt>
      <trkpt lat="46.85712" lon="8.48708">
        <ele>2434</ele>
        <time>2021-08-12T09:33:51.470Z</time>
      </trkpt>
      <trkpt lat="46.85708" lon="8.48708">
        <ele>2428</ele>
        <time>2021-08-12T09:33:52.470Z</time>
      </trkpt>
      <trkpt lat="46.85708" lon="8.48707">
        <ele>2428</ele>
        <time>2021-08-12T09:33:53.470Z</time>
      </trkpt>
      <trkpt lat="46.85707" lon="8.48706">
        <ele>2428</ele>
        <time>2021-08-12T09:33:54.469Z</time>
      </trkpt>
      <trkpt lat="46.85706" lon="8.48707">
        <ele>2427</ele>
        <time>2021-08-12T09:33:55.470Z</time>
      </trkpt>
      <trkpt lat="46.85706" lon="8.48707">
        <ele>2427</ele>
        <time>2021-08-12T09:33:56.470Z</time>
      </trkpt>
      <trkpt lat="46.85705" lon="8.48707">
        <ele>2427</ele>
        <time>2021-08-12T09:33:57.470Z</time>
      </trkpt>
      <trkpt lat="46.85705" lon="8.48708">
        <ele>2427</ele>
        <time>2021-08-12T09:33:58.470Z</time>
      </trkpt>
      <trkpt lat="46.85705" lon="8.48708">
        <ele>2426</ele>
        <time>2021-08-12T09:33:59.470Z</time>
      </trkpt>
      <trkpt lat="46.85705" lon="8.48709">
        <ele>2426</ele>
        <time>2021-08-12T09:34:00.469Z</time>
      </trkpt>
      <trkpt lat="46.85707" lon="8.48709">
        <ele>2421</ele>
        <time>2021-08-12T09:34:01.470Z</time>
      </trkpt>
      <trkpt lat="46.85705" lon="8.4871">
        <ele>2421</ele>
        <time>2021-08-12T09:34:02.470Z</time>
      </trkpt>
      <trkpt lat="46.85704" lon="8.4871">
        <ele>2420</ele>
        <time>2021-08-12T09:34:03.469Z</time>
      </trkpt>
      <trkpt lat="46.85704" lon="8.4871">
        <ele>2420</ele>
        <time>2021-08-12T09:34:04.469Z</time>
      </trkpt>
      <trkpt lat="46.85703" lon="8.48707">
        <ele>2420</ele>
        <time>2021-08-12T09:34:05.470Z</time>
      </trkpt>
      <trkpt lat="46.85703" lon="8.48705">
        <ele>2419</ele>
        <time>2021-08-12T09:34:06.470Z</time>
      </trkpt>
      <trkpt lat="46.85702" lon="8.48703">
        <ele>2419</ele>
        <time>2021-08-12T09:34:07.470Z</time>
      </trkpt>
      <trkpt lat="46.85702" lon="8.48702">
        <ele>2419</ele>
        <time>2021-08-12T09:34:08.469Z</time>
      </trkpt>
      <trkpt lat="46.85702" lon="8.48701">
        <ele>2419</ele>
        <time>2021-08-12T09:34:09.470Z</time>
      </trkpt>
      <trkpt lat="46.85703" lon="8.48701">
        <ele>2419</ele>
        <time>2021-08-12T09:34:10.470Z</time>
      </trkpt>
      <trkpt lat="46.85702" lon="8.48702">
        <ele>2418</ele>
        <time>2021-08-12T09:34:11.470Z</time>
      </trkpt>
      <trkpt lat="46.85701" lon="8.48701">
        <ele>2418</ele>
        <time>2021-08-12T09:34:12.470Z</time>
      </trkpt>
      <trkpt lat="46.857" lon="8.48701">
        <ele>2419</ele>
        <time>2021-08-12T09:34:13.470Z</time>
      </trkpt>
      <trkpt lat="46.85698" lon="8.48701">
        <ele>2423</ele>
        <time>2021-08-12T09:34:14.471Z</time>
      </trkpt>
      <trkpt lat="46.85698" lon="8.48702">
        <ele>2424</ele>
        <time>2021-08-12T09:34:15.471Z</time>
      </trkpt>
      <trkpt lat="46.85697" lon="8.48704">
        <ele>2427</ele>
        <time>2021-08-12T09:34:16.470Z</time>
      </trkpt>
      <trkpt lat="46.85696" lon="8.48704">
        <ele>2428</ele>
        <time>2021-08-12T09:34:17.471Z</time>
      </trkpt>
      <trkpt lat="46.85696" lon="8.48703">
        <ele>2428</ele>
        <time>2021-08-12T09:34:18.471Z</time>
      </trkpt>
      <trkpt lat="46.85695" lon="8.48704">
        <ele>2425</ele>
        <time>2021-08-12T09:34:19.471Z</time>
      </trkpt>
      <trkpt lat="46.85695" lon="8.48704">
        <ele>2424</ele>
        <time>2021-08-12T09:34:20.471Z</time>
      </trkpt>
      <trkpt lat="46.85695" lon="8.48705">
        <ele>2423</ele>
        <time>2021-08-12T09:34:21.471Z</time>
      </trkpt>
      <trkpt lat="46.85695" lon="8.48705">
        <ele>2422</ele>
        <time>2021-08-12T09:34:22.471Z</time>
      </trkpt>
      <trkpt lat="46.85695" lon="8.48705">
        <ele>2422</ele>
        <time>2021-08-12T09:34:23.470Z</time>
      </trkpt>
      <trkpt lat="46.85695" lon="8.48705">
        <ele>2421</ele>
        <time>2021-08-12T09:34:24.470Z</time>
      </trkpt>
      <trkpt lat="46.85695" lon="8.48705">
        <ele>2421</ele>
        <time>2021-08-12T09:34:25.470Z</time>
      </trkpt>
      <trkpt lat="46.85695" lon="8.48704">
        <ele>2420</ele>
        <time>2021-08-12T09:34:26.471Z</time>
      </trkpt>
      <trkpt lat="46.85695" lon="8.48703">
        <ele>2420</ele>
        <time>2021-08-12T09:34:27.471Z</time>
      </trkpt>
      <trkpt lat="46.85698" lon="8.487">
        <ele>2428</ele>
        <time>2021-08-12T09:34:28.472Z</time>
      </trkpt>
      <trkpt lat="46.857" lon="8.48701">
        <ele>2429</ele>
        <time>2021-08-12T09:34:29.473Z</time>
      </trkpt>
      <trkpt lat="46.85701" lon="8.48701">
        <ele>2430</ele>
        <time>2021-08-12T09:34:30.473Z</time>
      </trkpt>
      <trkpt lat="46.85702" lon="8.48701">
        <ele>2430</ele>
        <time>2021-08-12T09:34:31.472Z</time>
      </trkpt>
      <trkpt lat="46.85698" lon="8.48698">
        <ele>2432</ele>
        <time>2021-08-12T09:34:32.473Z</time>
      </trkpt>
      <trkpt lat="46.85697" lon="8.48698">
        <ele>2432</ele>
        <time>2021-08-12T09:34:33.473Z</time>
      </trkpt>
      <trkpt lat="46.85696" lon="8.48698">
        <ele>2432</ele>
        <time>2021-08-12T09:34:34.472Z</time>
      </trkpt>
      <trkpt lat="46.85696" lon="8.48697">
        <ele>2432</ele>
        <time>2021-08-12T09:34:35.473Z</time>
      </trkpt>
      <trkpt lat="46.85696" lon="8.48697">
        <ele>2432</ele>
        <time>2021-08-12T09:34:36.473Z</time>
      </trkpt>
      <trkpt lat="46.85696" lon="8.48697">
        <ele>2434</ele>
        <time>2021-08-12T09:34:37.472Z</time>
      </trkpt>
      <trkpt lat="46.85696" lon="8.48698">
        <ele>2434</ele>
        <time>2021-08-12T09:34:38.472Z</time>
      </trkpt>
      <trkpt lat="46.85701" lon="8.48687">
        <ele>2442</ele>
        <time>2021-08-12T09:34:39.474Z</time>
      </trkpt>
      <trkpt lat="46.857" lon="8.48687">
        <ele>2443</ele>
        <time>2021-08-12T09:34:40.473Z</time>
      </trkpt>
      <trkpt lat="46.857" lon="8.48687">
        <ele>2444</ele>
        <time>2021-08-12T09:34:41.473Z</time>
      </trkpt>
      <trkpt lat="46.857" lon="8.48687">
        <ele>2445</ele>
        <time>2021-08-12T09:34:42.473Z</time>
      </trkpt>
      <trkpt lat="46.85701" lon="8.48688">
        <ele>2457</ele>
        <time>2021-08-12T09:34:43.474Z</time>
      </trkpt>
      <trkpt lat="46.85701" lon="8.48688">
        <ele>2459</ele>
        <time>2021-08-12T09:34:44.474Z</time>
      </trkpt>
      <trkpt lat="46.85701" lon="8.48688">
        <ele>2461</ele>
        <time>2021-08-12T09:34:45.473Z</time>
      </trkpt>
      <trkpt lat="46.85706" lon="8.48688">
        <ele>2476</ele>
        <time>2021-08-12T09:34:46.474Z</time>
      </trkpt>
      <trkpt lat="46.85706" lon="8.48688">
        <ele>2476</ele>
        <time>2021-08-12T09:34:47.474Z</time>
      </trkpt>
      <trkpt lat="46.85709" lon="8.48689">
        <ele>2472</ele>
        <time>2021-08-12T09:34:48.475Z</time>
      </trkpt>
      <trkpt lat="46.85709" lon="8.48689">
        <ele>2470</ele>
        <time>2021-08-12T09:34:49.474Z</time>
      </trkpt>
      <trkpt lat="46.8571" lon="8.48689">
        <ele>2469</ele>
        <time>2021-08-12T09:34:50.474Z</time>
      </trkpt>
      <trkpt lat="46.85706" lon="8.4869">
        <ele>2456</ele>
        <time>2021-08-12T09:34:51.475Z</time>
      </trkpt>
      <trkpt lat="46.85706" lon="8.48689">
        <ele>2455</ele>
        <time>2021-08-12T09:34:52.474Z</time>
      </trkpt>
      <trkpt lat="46.85702" lon="8.4869">
        <ele>2452</ele>
        <time>2021-08-12T09:34:53.475Z</time>
      </trkpt>
      <trkpt lat="46.85701" lon="8.4869">
        <ele>2452</ele>
        <time>2021-08-12T09:34:54.475Z</time>
      </trkpt>
      <trkpt lat="46.857" lon="8.48689">
        <ele>2452</ele>
        <time>2021-08-12T09:34:55.475Z</time>
      </trkpt>
      <trkpt lat="46.85697" lon="8.48691">
        <ele>2449</ele>
        <time>2021-08-12T09:34:56.475Z</time>
      </trkpt>
      <trkpt lat="46.85701" lon="8.487">
        <ele>2422</ele>
        <time>2021-08-12T09:34:57.476Z</time>
      </trkpt>
      <trkpt lat="46.857" lon="8.48699">
        <ele>2421</ele>
        <time>2021-08-12T09:34:58.477Z</time>
      </trkpt>
      <trkpt lat="46.857" lon="8.48699">
        <ele>2421</ele>
        <time>2021-08-12T09:34:59.477Z</time>
      </trkpt>
      <trkpt lat="46.85703" lon="8.48704">
        <ele>2418</ele>
        <time>2021-08-12T09:35:00.476Z</time>
      </trkpt>
      <trkpt lat="46.85703" lon="8.48705">
        <ele>2418</ele>
        <time>2021-08-12T09:35:01.477Z</time>
      </trkpt>
      <trkpt lat="46.85704" lon="8.48705">
        <ele>2417</ele>
        <time>2021-08-12T09:35:02.476Z</time>
      </trkpt>
      <trkpt lat="46.85705" lon="8.48705">
        <ele>2417</ele>
        <time>2021-08-12T09:35:03.477Z</time>
      </trkpt>
      <trkpt lat="46.85706" lon="8.48705">
        <ele>2416</ele>
        <time>2021-08-12T09:35:04.477Z</time>
      </trkpt>
      <trkpt lat="46.85706" lon="8.48705">
        <ele>2416</ele>
        <time>2021-08-12T09:35:05.477Z</time>
      </trkpt>
      <trkpt lat="46.85707" lon="8.48706">
        <ele>2416</ele>
        <time>2021-08-12T09:35:06.477Z</time>
      </trkpt>
      <trkpt lat="46.85708" lon="8.48703">
        <ele>2420</ele>
        <time>2021-08-12T09:35:07.476Z</time>
      </trkpt>
      <trkpt lat="46.85708" lon="8.48703">
        <ele>2420</ele>
        <time>2021-08-12T09:35:08.476Z</time>
      </trkpt>
      <trkpt lat="46.85707" lon="8.48702">
        <ele>2421</ele>
        <time>2021-08-12T09:35:09.476Z</time>
      </trkpt>
      <trkpt lat="46.85707" lon="8.48702">
        <ele>2422</ele>
        <time>2021-08-12T09:35:10.477Z</time>
      </trkpt>
      <trkpt lat="46.85708" lon="8.48702">
        <ele>2422</ele>
        <time>2021-08-12T09:35:11.476Z</time>
      </trkpt>
      <trkpt lat="46.85709" lon="8.48702">
        <ele>2422</ele>
        <time>2021-08-12T09:35:12.477Z</time>
      </trkpt>
      <trkpt lat="46.85711" lon="8.48703">
        <ele>2423</ele>
        <time>2021-08-12T09:35:13.476Z</time>
      </trkpt>
      <trkpt lat="46.85711" lon="8.48703">
        <ele>2423</ele>
        <time>2021-08-12T09:35:14.476Z</time>
      </trkpt>
      <trkpt lat="46.85711" lon="8.48703">
        <ele>2423</ele>
        <time>2021-08-12T09:35:15.476Z</time>
      </trkpt>
      <trkpt lat="46.8571" lon="8.48702">
        <ele>2424</ele>
        <time>2021-08-12T09:35:16.476Z</time>
      </trkpt>
      <trkpt lat="46.85707" lon="8.487">
        <ele>2428</ele>
        <time>2021-08-12T09:35:17.478Z</time>
      </trkpt>
      <trkpt lat="46.85707" lon="8.487">
        <ele>2430</ele>
        <time>2021-08-12T09:35:18.478Z</time>
      </trkpt>
      <trkpt lat="46.85706" lon="8.48699">
        <ele>2431</ele>
        <time>2021-08-12T09:35:19.478Z</time>
      </trkpt>
      <trkpt lat="46.85706" lon="8.48699">
        <ele>2432</ele>
        <time>2021-08-12T09:35:20.477Z</time>
      </trkpt>
      <trkpt lat="46.85706" lon="8.48699">
        <ele>2433</ele>
        <time>2021-08-12T09:35:21.477Z</time>
      </trkpt>
      <trkpt lat="46.85706" lon="8.48699">
        <ele>2434</ele>
        <time>2021-08-12T09:35:22.478Z</time>
      </trkpt>
      <trkpt lat="46.85706" lon="8.48698">
        <ele>2436</ele>
        <time>2021-08-12T09:35:23.478Z</time>
      </trkpt>
      <trkpt lat="46.85706" lon="8.48698">
        <ele>2436</ele>
        <time>2021-08-12T09:35:24.478Z</time>
      </trkpt>
      <trkpt lat="46.85706" lon="8.48698">
        <ele>2436</ele>
        <time>2021-08-12T09:35:25.479Z</time>
      </trkpt>
      <trkpt lat="46.85706" lon="8.48699">
        <ele>2435</ele>
        <time>2021-08-12T09:35:26.478Z</time>
      </trkpt>
      <trkpt lat="46.85706" lon="8.48699">
        <ele>2435</ele>
        <time>2021-08-12T09:35:27.479Z</time>
      </trkpt>
      <trkpt lat="46.85705" lon="8.48698">
        <ele>2435</ele>
        <time>2021-08-12T09:35:28.479Z</time>
      </trkpt>
      <trkpt lat="46.85704" lon="8.48698">
        <ele>2434</ele>
        <time>2021-08-12T09:35:29.479Z</time>
      </trkpt>
      <trkpt lat="46.85703" lon="8.48698">
        <ele>2434</ele>
        <time>2021-08-12T09:35:30.479Z</time>
      </trkpt>
      <trkpt lat="46.85701" lon="8.48698">
        <ele>2433</ele>
        <time>2021-08-12T09:35:31.479Z</time>
      </trkpt>
      <trkpt lat="46.85699" lon="8.48697">
        <ele>2433</ele>
        <time>2021-08-12T09:35:32.479Z</time>
      </trkpt>
      <trkpt lat="46.85697" lon="8.48696">
        <ele>2432</ele>
        <time>2021-08-12T09:35:33.478Z</time>
      </trkpt>
      <trkpt lat="46.85666" lon="8.48689">
        <ele>2428</ele>
        <time>2021-08-12T09:35:34.479Z</time>
      </trkpt>
      <trkpt lat="46.85665" lon="8.48688">
        <ele>2428</ele>
        <time>2021-08-12T09:35:35.479Z</time>
      </trkpt>
      <trkpt lat="46.85665" lon="8.48687">
        <ele>2428</ele>
        <time>2021-08-12T09:35:36.478Z</time>
      </trkpt>
      <trkpt lat="46.85665" lon="8.48686">
        <ele>2428</ele>
        <time>2021-08-12T09:35:37.479Z</time>
      </trkpt>
      <trkpt lat="46.85667" lon="8.48686">
        <ele>2432</ele>
        <time>2021-08-12T09:35:38.478Z</time>
      </trkpt>
      <trkpt lat="46.85669" lon="8.48687">
        <ele>2432</ele>
        <time>2021-08-12T09:35:39.479Z</time>
      </trkpt>
      <trkpt lat="46.85676" lon="8.4869">
        <ele>2433</ele>
        <time>2021-08-12T09:35:40.479Z</time>
      </trkpt>
      <trkpt lat="46.85677" lon="8.48691">
        <ele>2433</ele>
        <time>2021-08-12T09:35:41.478Z</time>
      </trkpt>
      <trkpt lat="46.85684" lon="8.48701">
        <ele>2419</ele>
        <time>2021-08-12T09:35:42.479Z</time>
      </trkpt>
      <trkpt lat="46.85685" lon="8.48702">
        <ele>2419</ele>
        <time>2021-08-12T09:35:43.479Z</time>
      </trkpt>
      <trkpt lat="46.85686" lon="8.48703">
        <ele>2419</ele>
        <time>2021-08-12T09:35:44.478Z</time>
      </trkpt>
      <trkpt lat="46.85687" lon="8.48703">
        <ele>2418</ele>
        <time>2021-08-12T09:35:45.479Z</time>
      </trkpt>
      <trkpt lat="46.85688" lon="8.48703">
        <ele>2418</ele>
        <time>2021-08-12T09:35:46.478Z</time>
      </trkpt>
      <trkpt lat="46.85692" lon="8.48705">
        <ele>2415</ele>
        <time>2021-08-12T09:35:47.478Z</time>
      </trkpt>
      <trkpt lat="46.85692" lon="8.48705">
        <ele>2415</ele>
        <time>2021-08-12T09:35:48.479Z</time>
      </trkpt>
      <trkpt lat="46.85692" lon="8.48705">
        <ele>2414</ele>
        <time>2021-08-12T09:35:49.478Z</time>
      </trkpt>
      <trkpt lat="46.85695" lon="8.48707">
        <ele>2412</ele>
        <time>2021-08-12T09:35:50.480Z</time>
      </trkpt>
      <trkpt lat="46.85695" lon="8.48708">
        <ele>2412</ele>
        <time>2021-08-12T09:35:51.479Z</time>
      </trkpt>
      <trkpt lat="46.85695" lon="8.48708">
        <ele>2412</ele>
        <time>2021-08-12T09:35:52.479Z</time>
      </trkpt>
      <trkpt lat="46.85696" lon="8.4871">
        <ele>2416</ele>
        <time>2021-08-12T09:35:53.481Z</time>
      </trkpt>
      <trkpt lat="46.85697" lon="8.48709">
        <ele>2416</ele>
        <time>2021-08-12T09:35:54.481Z</time>
      </trkpt>
      <trkpt lat="46.85697" lon="8.48709">
        <ele>2416</ele>
        <time>2021-08-12T09:35:55.480Z</time>
      </trkpt>
      <trkpt lat="46.85695" lon="8.48711">
        <ele>2418</ele>
        <time>2021-08-12T09:35:56.481Z</time>
      </trkpt>
      <trkpt lat="46.85695" lon="8.48711">
        <ele>2417</ele>
        <time>2021-08-12T09:35:57.482Z</time>
      </trkpt>
      <trkpt lat="46.85695" lon="8.48711">
        <ele>2417</ele>
        <time>2021-08-12T09:35:58.481Z</time>
      </trkpt>
      <trkpt lat="46.85697" lon="8.48712">
        <ele>2413</ele>
        <time>2021-08-12T09:35:59.483Z</time>
      </trkpt>
      <trkpt lat="46.85697" lon="8.48712">
        <ele>2413</ele>
        <time>2021-08-12T09:36:00.483Z</time>
      </trkpt>
      <trkpt lat="46.85693" lon="8.48714">
        <ele>2407</ele>
        <time>2021-08-12T09:36:01.483Z</time>
      </trkpt>
      <trkpt lat="46.85693" lon="8.48714">
        <ele>2408</ele>
        <time>2021-08-12T09:36:02.483Z</time>
      </trkpt>
      <trkpt lat="46.85693" lon="8.48714">
        <ele>2409</ele>
        <time>2021-08-12T09:36:03.483Z</time>
      </trkpt>
      <trkpt lat="46.85693" lon="8.48715">
        <ele>2411</ele>
        <time>2021-08-12T09:36:04.483Z</time>
      </trkpt>
      <trkpt lat="46.85692" lon="8.48715">
        <ele>2411</ele>
        <time>2021-08-12T09:36:05.483Z</time>
      </trkpt>
      <trkpt lat="46.85692" lon="8.48716">
        <ele>2412</ele>
        <time>2021-08-12T09:36:06.483Z</time>
      </trkpt>
      <trkpt lat="46.85691" lon="8.48716">
        <ele>2412</ele>
        <time>2021-08-12T09:36:07.483Z</time>
      </trkpt>
      <trkpt lat="46.8569" lon="8.48715">
        <ele>2412</ele>
        <time>2021-08-12T09:36:08.483Z</time>
      </trkpt>
      <trkpt lat="46.85689" lon="8.48715">
        <ele>2412</ele>
        <time>2021-08-12T09:36:09.483Z</time>
      </trkpt>
      <trkpt lat="46.85688" lon="8.48715">
        <ele>2412</ele>
        <time>2021-08-12T09:36:10.483Z</time>
      </trkpt>
      <trkpt lat="46.85688" lon="8.48716">
        <ele>2412</ele>
        <time>2021-08-12T09:36:11.483Z</time>
      </trkpt>
      <trkpt lat="46.85688" lon="8.48717">
        <ele>2413</ele>
        <time>2021-08-12T09:36:12.483Z</time>
      </trkpt>
      <trkpt lat="46.85689" lon="8.48718">
        <ele>2413</ele>
        <time>2021-08-12T09:36:13.483Z</time>
      </trkpt>
      <trkpt lat="46.85689" lon="8.48719">
        <ele>2413</ele>
        <time>2021-08-12T09:36:14.482Z</time>
      </trkpt>
      <trkpt lat="46.85688" lon="8.48719">
        <ele>2414</ele>
        <time>2021-08-12T09:36:15.483Z</time>
      </trkpt>
      <trkpt lat="46.85688" lon="8.48719">
        <ele>2415</ele>
        <time>2021-08-12T09:36:16.483Z</time>
      </trkpt>
      <trkpt lat="46.85687" lon="8.48718">
        <ele>2415</ele>
        <time>2021-08-12T09:36:17.483Z</time>
      </trkpt>
      <trkpt lat="46.85686" lon="8.48718">
        <ele>2415</ele>
        <time>2021-08-12T09:36:18.483Z</time>
      </trkpt>
      <trkpt lat="46.85685" lon="8.48718">
        <ele>2415</ele>
        <time>2021-08-12T09:36:19.483Z</time>
      </trkpt>
      <trkpt lat="46.85684" lon="8.48718">
        <ele>2416</ele>
        <time>2021-08-12T09:36:20.483Z</time>
      </trkpt>
      <trkpt lat="46.85683" lon="8.48718">
        <ele>2416</ele>
        <time>2021-08-12T09:36:21.483Z</time>
      </trkpt>
      <trkpt lat="46.85683" lon="8.48718">
        <ele>2416</ele>
        <time>2021-08-12T09:36:22.483Z</time>
      </trkpt>
      <trkpt lat="46.85683" lon="8.48719">
        <ele>2416</ele>
        <time>2021-08-12T09:36:23.483Z</time>
      </trkpt>
      <trkpt lat="46.85682" lon="8.48719">
        <ele>2415</ele>
        <time>2021-08-12T09:36:24.482Z</time>
      </trkpt>
      <trkpt lat="46.85681" lon="8.48719">
        <ele>2415</ele>
        <time>2021-08-12T09:36:25.483Z</time>
      </trkpt>
      <trkpt lat="46.85681" lon="8.48719">
        <ele>2415</ele>
        <time>2021-08-12T09:36:26.483Z</time>
      </trkpt>
      <trkpt lat="46.8568" lon="8.4872">
        <ele>2414</ele>
        <time>2021-08-12T09:36:27.483Z</time>
      </trkpt>
      <trkpt lat="46.8568" lon="8.48721">
        <ele>2413</ele>
        <time>2021-08-12T09:36:28.482Z</time>
      </trkpt>
      <trkpt lat="46.8568" lon="8.48722">
        <ele>2413</ele>
        <time>2021-08-12T09:36:29.483Z</time>
      </trkpt>
      <trkpt lat="46.85679" lon="8.48723">
        <ele>2413</ele>
        <time>2021-08-12T09:36:30.483Z</time>
      </trkpt>
      <trkpt lat="46.85679" lon="8.48723">
        <ele>2412</ele>
        <time>2021-08-12T09:36:31.483Z</time>
      </trkpt>
      <trkpt lat="46.85678" lon="8.48723">
        <ele>2412</ele>
        <time>2021-08-12T09:36:32.482Z</time>
      </trkpt>
      <trkpt lat="46.85677" lon="8.48724">
        <ele>2411</ele>
        <time>2021-08-12T09:36:33.482Z</time>
      </trkpt>
      <trkpt lat="46.85675" lon="8.48724">
        <ele>2410</ele>
        <time>2021-08-12T09:36:34.483Z</time>
      </trkpt>
      <trkpt lat="46.85674" lon="8.48724">
        <ele>2410</ele>
        <time>2021-08-12T09:36:35.483Z</time>
      </trkpt>
      <trkpt lat="46.85673" lon="8.48724">
        <ele>2409</ele>
        <time>2021-08-12T09:36:36.483Z</time>
      </trkpt>
      <trkpt lat="46.85672" lon="8.48724">
        <ele>2408</ele>
        <time>2021-08-12T09:36:37.483Z</time>
      </trkpt>
      <trkpt lat="46.85671" lon="8.48723">
        <ele>2407</ele>
        <time>2021-08-12T09:36:38.482Z</time>
      </trkpt>
      <trkpt lat="46.8567" lon="8.48723">
        <ele>2405</ele>
        <time>2021-08-12T09:36:39.483Z</time>
      </trkpt>
      <trkpt lat="46.85668" lon="8.48723">
        <ele>2404</ele>
        <time>2021-08-12T09:36:40.482Z</time>
      </trkpt>
      <trkpt lat="46.85666" lon="8.48724">
        <ele>2403</ele>
        <time>2021-08-12T09:36:41.482Z</time>
      </trkpt>
      <trkpt lat="46.85664" lon="8.48724">
        <ele>2402</ele>
        <time>2021-08-12T09:36:42.482Z</time>
      </trkpt>
      <trkpt lat="46.85662" lon="8.48723">
        <ele>2402</ele>
        <time>2021-08-12T09:36:43.483Z</time>
      </trkpt>
      <trkpt lat="46.85659" lon="8.48723">
        <ele>2401</ele>
        <time>2021-08-12T09:36:44.482Z</time>
      </trkpt>
      <trkpt lat="46.85658" lon="8.48724">
        <ele>2400</ele>
        <time>2021-08-12T09:36:45.482Z</time>
      </trkpt>
      <trkpt lat="46.85657" lon="8.48726">
        <ele>2399</ele>
        <time>2021-08-12T09:36:46.483Z</time>
      </trkpt>
      <trkpt lat="46.85656" lon="8.48726">
        <ele>2399</ele>
        <time>2021-08-12T09:36:47.483Z</time>
      </trkpt>
      <trkpt lat="46.85655" lon="8.48727">
        <ele>2398</ele>
        <time>2021-08-12T09:36:48.482Z</time>
      </trkpt>
      <trkpt lat="46.85654" lon="8.48728">
        <ele>2398</ele>
        <time>2021-08-12T09:36:49.482Z</time>
      </trkpt>
      <trkpt lat="46.85655" lon="8.4873">
        <ele>2397</ele>
        <time>2021-08-12T09:36:50.483Z</time>
      </trkpt>
      <trkpt lat="46.85655" lon="8.48731">
        <ele>2397</ele>
        <time>2021-08-12T09:36:51.483Z</time>
      </trkpt>
      <trkpt lat="46.85654" lon="8.48732">
        <ele>2396</ele>
        <time>2021-08-12T09:36:52.483Z</time>
      </trkpt>
      <trkpt lat="46.85653" lon="8.48732">
        <ele>2395</ele>
        <time>2021-08-12T09:36:53.482Z</time>
      </trkpt>
      <trkpt lat="46.85653" lon="8.48733">
        <ele>2394</ele>
        <time>2021-08-12T09:36:54.482Z</time>
      </trkpt>
      <trkpt lat="46.85653" lon="8.48734">
        <ele>2394</ele>
        <time>2021-08-12T09:36:55.482Z</time>
      </trkpt>
      <trkpt lat="46.85653" lon="8.48735">
        <ele>2395</ele>
        <time>2021-08-12T09:36:56.482Z</time>
      </trkpt>
      <trkpt lat="46.85655" lon="8.48737">
        <ele>2397</ele>
        <time>2021-08-12T09:36:57.482Z</time>
      </trkpt>
      <trkpt lat="46.85658" lon="8.48738">
        <ele>2398</ele>
        <time>2021-08-12T09:36:58.482Z</time>
      </trkpt>
      <trkpt lat="46.85659" lon="8.48739">
        <ele>2404</ele>
        <time>2021-08-12T09:36:59.482Z</time>
      </trkpt>
      <trkpt lat="46.85658" lon="8.4874">
        <ele>2405</ele>
        <time>2021-08-12T09:37:00.483Z</time>
      </trkpt>
      <trkpt lat="46.85658" lon="8.4874">
        <ele>2406</ele>
        <time>2021-08-12T09:37:01.482Z</time>
      </trkpt>
      <trkpt lat="46.85657" lon="8.48741">
        <ele>2407</ele>
        <time>2021-08-12T09:37:02.482Z</time>
      </trkpt>
      <trkpt lat="46.85657" lon="8.48741">
        <ele>2408</ele>
        <time>2021-08-12T09:37:03.482Z</time>
      </trkpt>
      <trkpt lat="46.85656" lon="8.48742">
        <ele>2409</ele>
        <time>2021-08-12T09:37:04.483Z</time>
      </trkpt>
      <trkpt lat="46.85655" lon="8.48742">
        <ele>2409</ele>
        <time>2021-08-12T09:37:05.483Z</time>
      </trkpt>
      <trkpt lat="46.85655" lon="8.48742">
        <ele>2409</ele>
        <time>2021-08-12T09:37:06.483Z</time>
      </trkpt>
      <trkpt lat="46.85654" lon="8.48743">
        <ele>2409</ele>
        <time>2021-08-12T09:37:07.483Z</time>
      </trkpt>
      <trkpt lat="46.85653" lon="8.48743">
        <ele>2409</ele>
        <time>2021-08-12T09:37:08.483Z</time>
      </trkpt>
      <trkpt lat="46.85652" lon="8.48743">
        <ele>2410</ele>
        <time>2021-08-12T09:37:09.483Z</time>
      </trkpt>
      <trkpt lat="46.85651" lon="8.48742">
        <ele>2410</ele>
        <time>2021-08-12T09:37:10.483Z</time>
      </trkpt>
      <trkpt lat="46.8565" lon="8.48743">
        <ele>2410</ele>
        <time>2021-08-12T09:37:11.482Z</time>
      </trkpt>
      <trkpt lat="46.85649" lon="8.48743">
        <ele>2410</ele>
        <time>2021-08-12T09:37:12.483Z</time>
      </trkpt>
      <trkpt lat="46.85648" lon="8.48744">
        <ele>2410</ele>
        <time>2021-08-12T09:37:13.483Z</time>
      </trkpt>
      <trkpt lat="46.85649" lon="8.48745">
        <ele>2410</ele>
        <time>2021-08-12T09:37:14.483Z</time>
      </trkpt>
      <trkpt lat="46.85648" lon="8.48745">
        <ele>2410</ele>
        <time>2021-08-12T09:37:15.483Z</time>
      </trkpt>
      <trkpt lat="46.85647" lon="8.48745">
        <ele>2410</ele>
        <time>2021-08-12T09:37:16.482Z</time>
      </trkpt>
      <trkpt lat="46.85646" lon="8.48746">
        <ele>2409</ele>
        <time>2021-08-12T09:37:17.482Z</time>
      </trkpt>
      <trkpt lat="46.85645" lon="8.48747">
        <ele>2409</ele>
        <time>2021-08-12T09:37:18.483Z</time>
      </trkpt>
      <trkpt lat="46.85645" lon="8.48749">
        <ele>2408</ele>
        <time>2021-08-12T09:37:19.482Z</time>
      </trkpt>
      <trkpt lat="46.85644" lon="8.4875">
        <ele>2408</ele>
        <time>2021-08-12T09:37:20.483Z</time>
      </trkpt>
      <trkpt lat="46.85644" lon="8.4875">
        <ele>2408</ele>
        <time>2021-08-12T09:37:21.483Z</time>
      </trkpt>
      <trkpt lat="46.85643" lon="8.4875">
        <ele>2407</ele>
        <time>2021-08-12T09:37:22.483Z</time>
      </trkpt>
      <trkpt lat="46.85643" lon="8.48751">
        <ele>2406</ele>
        <time>2021-08-12T09:37:23.483Z</time>
      </trkpt>
      <trkpt lat="46.85642" lon="8.48751">
        <ele>2406</ele>
        <time>2021-08-12T09:37:24.482Z</time>
      </trkpt>
      <trkpt lat="46.8564" lon="8.48751">
        <ele>2405</ele>
        <time>2021-08-12T09:37:25.483Z</time>
      </trkpt>
      <trkpt lat="46.85639" lon="8.48751">
        <ele>2405</ele>
        <time>2021-08-12T09:37:26.483Z</time>
      </trkpt>
      <trkpt lat="46.85639" lon="8.48751">
        <ele>2404</ele>
        <time>2021-08-12T09:37:27.483Z</time>
      </trkpt>
      <trkpt lat="46.85638" lon="8.48752">
        <ele>2403</ele>
        <time>2021-08-12T09:37:28.483Z</time>
      </trkpt>
      <trkpt lat="46.85637" lon="8.48752">
        <ele>2402</ele>
        <time>2021-08-12T09:37:29.483Z</time>
      </trkpt>
      <trkpt lat="46.85636" lon="8.48752">
        <ele>2402</ele>
        <time>2021-08-12T09:37:30.483Z</time>
      </trkpt>
      <trkpt lat="46.85635" lon="8.48752">
        <ele>2401</ele>
        <time>2021-08-12T09:37:31.483Z</time>
      </trkpt>
      <trkpt lat="46.85634" lon="8.48752">
        <ele>2401</ele>
        <time>2021-08-12T09:37:32.483Z</time>
      </trkpt>
      <trkpt lat="46.85633" lon="8.48753">
        <ele>2401</ele>
        <time>2021-08-12T09:37:33.483Z</time>
      </trkpt>
      <trkpt lat="46.85632" lon="8.48753">
        <ele>2401</ele>
        <time>2021-08-12T09:37:34.483Z</time>
      </trkpt>
      <trkpt lat="46.85631" lon="8.48753">
        <ele>2400</ele>
        <time>2021-08-12T09:37:35.483Z</time>
      </trkpt>
      <trkpt lat="46.85631" lon="8.48754">
        <ele>2400</ele>
        <time>2021-08-12T09:37:36.483Z</time>
      </trkpt>
      <trkpt lat="46.85629" lon="8.48755">
        <ele>2400</ele>
        <time>2021-08-12T09:37:37.482Z</time>
      </trkpt>
      <trkpt lat="46.85628" lon="8.48754">
        <ele>2400</ele>
        <time>2021-08-12T09:37:38.482Z</time>
      </trkpt>
      <trkpt lat="46.85627" lon="8.48754">
        <ele>2400</ele>
        <time>2021-08-12T09:37:39.483Z</time>
      </trkpt>
      <trkpt lat="46.85625" lon="8.48753">
        <ele>2399</ele>
        <time>2021-08-12T09:37:40.482Z</time>
      </trkpt>
      <trkpt lat="46.85624" lon="8.48753">
        <ele>2399</ele>
        <time>2021-08-12T09:37:41.483Z</time>
      </trkpt>
      <trkpt lat="46.85624" lon="8.48754">
        <ele>2400</ele>
        <time>2021-08-12T09:37:42.482Z</time>
      </trkpt>
      <trkpt lat="46.85624" lon="8.48754">
        <ele>2400</ele>
        <time>2021-08-12T09:37:43.482Z</time>
      </trkpt>
      <trkpt lat="46.85623" lon="8.48754">
        <ele>2400</ele>
        <time>2021-08-12T09:37:44.482Z</time>
      </trkpt>
      <trkpt lat="46.85623" lon="8.48755">
        <ele>2400</ele>
        <time>2021-08-12T09:37:45.482Z</time>
      </trkpt>
      <trkpt lat="46.85622" lon="8.48755">
        <ele>2400</ele>
        <time>2021-08-12T09:37:46.483Z</time>
      </trkpt>
      <trkpt lat="46.85621" lon="8.48755">
        <ele>2400</ele>
        <time>2021-08-12T09:37:47.482Z</time>
      </trkpt>
      <trkpt lat="46.8562" lon="8.48755">
        <ele>2400</ele>
        <time>2021-08-12T09:37:48.483Z</time>
      </trkpt>
      <trkpt lat="46.85619" lon="8.48756">
        <ele>2400</ele>
        <time>2021-08-12T09:37:49.482Z</time>
      </trkpt>
      <trkpt lat="46.85619" lon="8.48756">
        <ele>2401</ele>
        <time>2021-08-12T09:37:50.483Z</time>
      </trkpt>
      <trkpt lat="46.85621" lon="8.48757">
        <ele>2402</ele>
        <time>2021-08-12T09:37:51.482Z</time>
      </trkpt>
      <trkpt lat="46.85622" lon="8.48758">
        <ele>2402</ele>
        <time>2021-08-12T09:37:52.483Z</time>
      </trkpt>
      <trkpt lat="46.85623" lon="8.48759">
        <ele>2403</ele>
        <time>2021-08-12T09:37:53.482Z</time>
      </trkpt>
      <trkpt lat="46.85624" lon="8.4876">
        <ele>2403</ele>
        <time>2021-08-12T09:37:54.482Z</time>
      </trkpt>
      <trkpt lat="46.85623" lon="8.4876">
        <ele>2404</ele>
        <time>2021-08-12T09:37:55.482Z</time>
      </trkpt>
      <trkpt lat="46.85623" lon="8.4876">
        <ele>2404</ele>
        <time>2021-08-12T09:37:56.482Z</time>
      </trkpt>
      <trkpt lat="46.85623" lon="8.4876">
        <ele>2404</ele>
        <time>2021-08-12T09:37:57.482Z</time>
      </trkpt>
      <trkpt lat="46.85623" lon="8.4876">
        <ele>2405</ele>
        <time>2021-08-12T09:37:58.483Z</time>
      </trkpt>
      <trkpt lat="46.85622" lon="8.48761">
        <ele>2405</ele>
        <time>2021-08-12T09:37:59.482Z</time>
      </trkpt>
      <trkpt lat="46.85622" lon="8.48761">
        <ele>2405</ele>
        <time>2021-08-12T09:38:00.483Z</time>
      </trkpt>
      <trkpt lat="46.85621" lon="8.48762">
        <ele>2406</ele>
        <time>2021-08-12T09:38:01.482Z</time>
      </trkpt>
      <trkpt lat="46.85621" lon="8.48762">
        <ele>2407</ele>
        <time>2021-08-12T09:38:02.483Z</time>
      </trkpt>
      <trkpt lat="46.8562" lon="8.48763">
        <ele>2407</ele>
        <time>2021-08-12T09:38:03.482Z</time>
      </trkpt>
      <trkpt lat="46.85619" lon="8.48763">
        <ele>2407</ele>
        <time>2021-08-12T09:38:04.482Z</time>
      </trkpt>
      <trkpt lat="46.85619" lon="8.48764">
        <ele>2408</ele>
        <time>2021-08-12T09:38:05.482Z</time>
      </trkpt>
      <trkpt lat="46.85619" lon="8.48764">
        <ele>2408</ele>
        <time>2021-08-12T09:38:06.482Z</time>
      </trkpt>
      <trkpt lat="46.85619" lon="8.48765">
        <ele>2409</ele>
        <time>2021-08-12T09:38:07.482Z</time>
      </trkpt>
      <trkpt lat="46.85618" lon="8.48766">
        <ele>2409</ele>
        <time>2021-08-12T09:38:08.482Z</time>
      </trkpt>
      <trkpt lat="46.85618" lon="8.48766">
        <ele>2410</ele>
        <time>2021-08-12T09:38:09.482Z</time>
      </trkpt>
      <trkpt lat="46.85619" lon="8.48767">
        <ele>2410</ele>
        <time>2021-08-12T09:38:10.482Z</time>
      </trkpt>
      <trkpt lat="46.85619" lon="8.48768">
        <ele>2410</ele>
        <time>2021-08-12T09:38:11.482Z</time>
      </trkpt>
      <trkpt lat="46.85618" lon="8.48769">
        <ele>2410</ele>
        <time>2021-08-12T09:38:12.482Z</time>
      </trkpt>
      <trkpt lat="46.85617" lon="8.4877">
        <ele>2411</ele>
        <time>2021-08-12T09:38:13.483Z</time>
      </trkpt>
      <trkpt lat="46.85617" lon="8.48771">
        <ele>2411</ele>
        <time>2021-08-12T09:38:14.482Z</time>
      </trkpt>
      <trkpt lat="46.85617" lon="8.48772">
        <ele>2412</ele>
        <time>2021-08-12T09:38:15.482Z</time>
      </trkpt>
      <trkpt lat="46.85617" lon="8.48773">
        <ele>2412</ele>
        <time>2021-08-12T09:38:16.482Z</time>
      </trkpt>
      <trkpt lat="46.85617" lon="8.48774">
        <ele>2412</ele>
        <time>2021-08-12T09:38:17.482Z</time>
      </trkpt>
      <trkpt lat="46.85617" lon="8.48775">
        <ele>2412</ele>
        <time>2021-08-12T09:38:18.482Z</time>
      </trkpt>
      <trkpt lat="46.85616" lon="8.48776">
        <ele>2412</ele>
        <time>2021-08-12T09:38:19.483Z</time>
      </trkpt>
      <trkpt lat="46.85615" lon="8.48776">
        <ele>2412</ele>
        <time>2021-08-12T09:38:20.482Z</time>
      </trkpt>
      <trkpt lat="46.85615" lon="8.48777">
        <ele>2412</ele>
        <time>2021-08-12T09:38:21.483Z</time>
      </trkpt>
      <trkpt lat="46.85614" lon="8.48778">
        <ele>2412</ele>
        <time>2021-08-12T09:38:22.483Z</time>
      </trkpt>
      <trkpt lat="46.85613" lon="8.48778">
        <ele>2412</ele>
        <time>2021-08-12T09:38:23.483Z</time>
      </trkpt>
      <trkpt lat="46.85612" lon="8.48779">
        <ele>2413</ele>
        <time>2021-08-12T09:38:24.483Z</time>
      </trkpt>
      <trkpt lat="46.85611" lon="8.48779">
        <ele>2413</ele>
        <time>2021-08-12T09:38:25.482Z</time>
      </trkpt>
      <trkpt lat="46.8561" lon="8.4878">
        <ele>2413</ele>
        <time>2021-08-12T09:38:26.482Z</time>
      </trkpt>
      <trkpt lat="46.85609" lon="8.4878">
        <ele>2414</ele>
        <time>2021-08-12T09:38:27.483Z</time>
      </trkpt>
      <trkpt lat="46.85608" lon="8.4878">
        <ele>2414</ele>
        <time>2021-08-12T09:38:28.483Z</time>
      </trkpt>
      <trkpt lat="46.85608" lon="8.48781">
        <ele>2414</ele>
        <time>2021-08-12T09:38:29.482Z</time>
      </trkpt>
      <trkpt lat="46.85608" lon="8.48782">
        <ele>2415</ele>
        <time>2021-08-12T09:38:30.482Z</time>
      </trkpt>
      <trkpt lat="46.85608" lon="8.48782">
        <ele>2415</ele>
        <time>2021-08-12T09:38:31.483Z</time>
      </trkpt>
      <trkpt lat="46.85608" lon="8.48784">
        <ele>2415</ele>
        <time>2021-08-12T09:38:32.482Z</time>
      </trkpt>
      <trkpt lat="46.85608" lon="8.48785">
        <ele>2415</ele>
        <time>2021-08-12T09:38:33.483Z</time>
      </trkpt>
      <trkpt lat="46.85609" lon="8.48786">
        <ele>2415</ele>
        <time>2021-08-12T09:38:34.482Z</time>
      </trkpt>
      <trkpt lat="46.85608" lon="8.48788">
        <ele>2415</ele>
        <time>2021-08-12T09:38:35.482Z</time>
      </trkpt>
      <trkpt lat="46.85608" lon="8.48789">
        <ele>2416</ele>
        <time>2021-08-12T09:38:36.483Z</time>
      </trkpt>
      <trkpt lat="46.85609" lon="8.4879">
        <ele>2416</ele>
        <time>2021-08-12T09:38:37.483Z</time>
      </trkpt>
      <trkpt lat="46.85609" lon="8.48791">
        <ele>2416</ele>
        <time>2021-08-12T09:38:38.483Z</time>
      </trkpt>
      <trkpt lat="46.85609" lon="8.48791">
        <ele>2416</ele>
        <time>2021-08-12T09:38:39.482Z</time>
      </trkpt>
      <trkpt lat="46.85608" lon="8.48792">
        <ele>2416</ele>
        <time>2021-08-12T09:38:40.483Z</time>
      </trkpt>
      <trkpt lat="46.85607" lon="8.48792">
        <ele>2416</ele>
        <time>2021-08-12T09:38:41.483Z</time>
      </trkpt>
      <trkpt lat="46.85607" lon="8.48793">
        <ele>2416</ele>
        <time>2021-08-12T09:38:42.482Z</time>
      </trkpt>
      <trkpt lat="46.85607" lon="8.48794">
        <ele>2417</ele>
        <time>2021-08-12T09:38:43.483Z</time>
      </trkpt>
      <trkpt lat="46.85607" lon="8.48795">
        <ele>2417</ele>
        <time>2021-08-12T09:38:44.482Z</time>
      </trkpt>
      <trkpt lat="46.85607" lon="8.48796">
        <ele>2417</ele>
        <time>2021-08-12T09:38:45.482Z</time>
      </trkpt>
      <trkpt lat="46.85606" lon="8.48796">
        <ele>2418</ele>
        <time>2021-08-12T09:38:46.483Z</time>
      </trkpt>
      <trkpt lat="46.85605" lon="8.48795">
        <ele>2418</ele>
        <time>2021-08-12T09:38:47.483Z</time>
      </trkpt>
      <trkpt lat="46.85605" lon="8.48795">
        <ele>2418</ele>
        <time>2021-08-12T09:38:48.482Z</time>
      </trkpt>
      <trkpt lat="46.85605" lon="8.48796">
        <ele>2419</ele>
        <time>2021-08-12T09:38:49.482Z</time>
      </trkpt>
      <trkpt lat="46.85604" lon="8.48796">
        <ele>2419</ele>
        <time>2021-08-12T09:38:50.483Z</time>
      </trkpt>
      <trkpt lat="46.85604" lon="8.48797">
        <ele>2419</ele>
        <time>2021-08-12T09:38:51.482Z</time>
      </trkpt>
      <trkpt lat="46.85603" lon="8.48799">
        <ele>2419</ele>
        <time>2021-08-12T09:38:52.483Z</time>
      </trkpt>
      <trkpt lat="46.85603" lon="8.488">
        <ele>2419</ele>
        <time>2021-08-12T09:38:53.483Z</time>
      </trkpt>
      <trkpt lat="46.85602" lon="8.488">
        <ele>2418</ele>
        <time>2021-08-12T09:38:54.482Z</time>
      </trkpt>
      <trkpt lat="46.85602" lon="8.48801">
        <ele>2418</ele>
        <time>2021-08-12T09:38:55.483Z</time>
      </trkpt>
      <trkpt lat="46.85602" lon="8.48802">
        <ele>2418</ele>
        <time>2021-08-12T09:38:56.483Z</time>
      </trkpt>
      <trkpt lat="46.85602" lon="8.48804">
        <ele>2418</ele>
        <time>2021-08-12T09:38:57.483Z</time>
      </trkpt>
      <trkpt lat="46.85602" lon="8.48805">
        <ele>2418</ele>
        <time>2021-08-12T09:38:58.482Z</time>
      </trkpt>
      <trkpt lat="46.85602" lon="8.48806">
        <ele>2418</ele>
        <time>2021-08-12T09:38:59.483Z</time>
      </trkpt>
      <trkpt lat="46.85602" lon="8.48807">
        <ele>2418</ele>
        <time>2021-08-12T09:39:00.483Z</time>
      </trkpt>
      <trkpt lat="46.85602" lon="8.48807">
        <ele>2418</ele>
        <time>2021-08-12T09:39:01.482Z</time>
      </trkpt>
      <trkpt lat="46.85603" lon="8.48807">
        <ele>2418</ele>
        <time>2021-08-12T09:39:02.482Z</time>
      </trkpt>
      <trkpt lat="46.85602" lon="8.48809">
        <ele>2418</ele>
        <time>2021-08-12T09:39:03.483Z</time>
      </trkpt>
      <trkpt lat="46.85602" lon="8.48809">
        <ele>2418</ele>
        <time>2021-08-12T09:39:04.482Z</time>
      </trkpt>
      <trkpt lat="46.85602" lon="8.4881">
        <ele>2418</ele>
        <time>2021-08-12T09:39:05.483Z</time>
      </trkpt>
      <trkpt lat="46.85601" lon="8.4881">
        <ele>2418</ele>
        <time>2021-08-12T09:39:06.482Z</time>
      </trkpt>
      <trkpt lat="46.856" lon="8.48811">
        <ele>2418</ele>
        <time>2021-08-12T09:39:07.482Z</time>
      </trkpt>
      <trkpt lat="46.85599" lon="8.48812">
        <ele>2419</ele>
        <time>2021-08-12T09:39:08.483Z</time>
      </trkpt>
      <trkpt lat="46.85599" lon="8.48813">
        <ele>2419</ele>
        <time>2021-08-12T09:39:09.483Z</time>
      </trkpt>
      <trkpt lat="46.85599" lon="8.48815">
        <ele>2420</ele>
        <time>2021-08-12T09:39:10.482Z</time>
      </trkpt>
      <trkpt lat="46.85598" lon="8.48816">
        <ele>2420</ele>
        <time>2021-08-12T09:39:11.482Z</time>
      </trkpt>
      <trkpt lat="46.85598" lon="8.48816">
        <ele>2421</ele>
        <time>2021-08-12T09:39:12.482Z</time>
      </trkpt>
      <trkpt lat="46.85598" lon="8.48817">
        <ele>2421</ele>
        <time>2021-08-12T09:39:13.482Z</time>
      </trkpt>
      <trkpt lat="46.85598" lon="8.48818">
        <ele>2422</ele>
        <time>2021-08-12T09:39:14.482Z</time>
      </trkpt>
      <trkpt lat="46.85599" lon="8.48819">
        <ele>2422</ele>
        <time>2021-08-12T09:39:15.483Z</time>
      </trkpt>
      <trkpt lat="46.85599" lon="8.4882">
        <ele>2422</ele>
        <time>2021-08-12T09:39:16.482Z</time>
      </trkpt>
      <trkpt lat="46.85599" lon="8.48821">
        <ele>2422</ele>
        <time>2021-08-12T09:39:17.483Z</time>
      </trkpt>
      <trkpt lat="46.85598" lon="8.48821">
        <ele>2422</ele>
        <time>2021-08-12T09:39:18.483Z</time>
      </trkpt>
      <trkpt lat="46.85598" lon="8.48822">
        <ele>2422</ele>
        <time>2021-08-12T09:39:19.483Z</time>
      </trkpt>
      <trkpt lat="46.85597" lon="8.48823">
        <ele>2422</ele>
        <time>2021-08-12T09:39:20.483Z</time>
      </trkpt>
      <trkpt lat="46.85597" lon="8.48823">
        <ele>2423</ele>
        <time>2021-08-12T09:39:21.482Z</time>
      </trkpt>
      <trkpt lat="46.85597" lon="8.48823">
        <ele>2423</ele>
        <time>2021-08-12T09:39:22.483Z</time>
      </trkpt>
      <trkpt lat="46.85596" lon="8.48822">
        <ele>2423</ele>
        <time>2021-08-12T09:39:23.482Z</time>
      </trkpt>
      <trkpt lat="46.85596" lon="8.48821">
        <ele>2424</ele>
        <time>2021-08-12T09:39:24.483Z</time>
      </trkpt>
      <trkpt lat="46.85595" lon="8.48821">
        <ele>2424</ele>
        <time>2021-08-12T09:39:25.483Z</time>
      </trkpt>
      <trkpt lat="46.85595" lon="8.48821">
        <ele>2425</ele>
        <time>2021-08-12T09:39:26.483Z</time>
      </trkpt>
      <trkpt lat="46.85595" lon="8.48821">
        <ele>2426</ele>
        <time>2021-08-12T09:39:27.483Z</time>
      </trkpt>
      <trkpt lat="46.85595" lon="8.48823">
        <ele>2430</ele>
        <time>2021-08-12T09:39:28.485Z</time>
      </trkpt>
      <trkpt lat="46.85596" lon="8.48825">
        <ele>2430</ele>
        <time>2021-08-12T09:39:29.484Z</time>
      </trkpt>
      <trkpt lat="46.85596" lon="8.48825">
        <ele>2431</ele>
        <time>2021-08-12T09:39:30.485Z</time>
      </trkpt>
      <trkpt lat="46.85595" lon="8.48826">
        <ele>2431</ele>
        <time>2021-08-12T09:39:31.484Z</time>
      </trkpt>
      <trkpt lat="46.85594" lon="8.48826">
        <ele>2432</ele>
        <time>2021-08-12T09:39:32.485Z</time>
      </trkpt>
      <trkpt lat="46.85594" lon="8.48826">
        <ele>2432</ele>
        <time>2021-08-12T09:39:33.484Z</time>
      </trkpt>
      <trkpt lat="46.85594" lon="8.48827">
        <ele>2432</ele>
        <time>2021-08-12T09:39:34.485Z</time>
      </trkpt>
      <trkpt lat="46.85594" lon="8.48827">
        <ele>2432</ele>
        <time>2021-08-12T09:39:35.485Z</time>
      </trkpt>
      <trkpt lat="46.85593" lon="8.48828">
        <ele>2432</ele>
        <time>2021-08-12T09:39:36.485Z</time>
      </trkpt>
      <trkpt lat="46.85593" lon="8.48828">
        <ele>2432</ele>
        <time>2021-08-12T09:39:37.485Z</time>
      </trkpt>
      <trkpt lat="46.85593" lon="8.48829">
        <ele>2432</ele>
        <time>2021-08-12T09:39:38.485Z</time>
      </trkpt>
      <trkpt lat="46.85593" lon="8.48829">
        <ele>2432</ele>
        <time>2021-08-12T09:39:39.485Z</time>
      </trkpt>
      <trkpt lat="46.85593" lon="8.4883">
        <ele>2432</ele>
        <time>2021-08-12T09:39:40.485Z</time>
      </trkpt>
      <trkpt lat="46.85592" lon="8.4883">
        <ele>2432</ele>
        <time>2021-08-12T09:39:41.484Z</time>
      </trkpt>
      <trkpt lat="46.85591" lon="8.4883">
        <ele>2432</ele>
        <time>2021-08-12T09:39:42.484Z</time>
      </trkpt>
      <trkpt lat="46.85591" lon="8.4883">
        <ele>2432</ele>
        <time>2021-08-12T09:39:43.485Z</time>
      </trkpt>
      <trkpt lat="46.85591" lon="8.4883">
        <ele>2432</ele>
        <time>2021-08-12T09:39:44.485Z</time>
      </trkpt>
      <trkpt lat="46.85591" lon="8.4883">
        <ele>2432</ele>
        <time>2021-08-12T09:39:45.484Z</time>
      </trkpt>
      <trkpt lat="46.85591" lon="8.48831">
        <ele>2432</ele>
        <time>2021-08-12T09:39:46.485Z</time>
      </trkpt>
      <trkpt lat="46.85591" lon="8.48831">
        <ele>2432</ele>
        <time>2021-08-12T09:39:47.484Z</time>
      </trkpt>
      <trkpt lat="46.8559" lon="8.48831">
        <ele>2433</ele>
        <time>2021-08-12T09:39:48.485Z</time>
      </trkpt>
      <trkpt lat="46.85589" lon="8.48831">
        <ele>2433</ele>
        <time>2021-08-12T09:39:49.484Z</time>
      </trkpt>
      <trkpt lat="46.85588" lon="8.48831">
        <ele>2434</ele>
        <time>2021-08-12T09:39:50.484Z</time>
      </trkpt>
      <trkpt lat="46.85588" lon="8.4883">
        <ele>2435</ele>
        <time>2021-08-12T09:39:51.484Z</time>
      </trkpt>
      <trkpt lat="46.85587" lon="8.4883">
        <ele>2435</ele>
        <time>2021-08-12T09:39:52.485Z</time>
      </trkpt>
      <trkpt lat="46.85587" lon="8.48831">
        <ele>2436</ele>
        <time>2021-08-12T09:39:53.485Z</time>
      </trkpt>
      <trkpt lat="46.85587" lon="8.48831">
        <ele>2436</ele>
        <time>2021-08-12T09:39:54.485Z</time>
      </trkpt>
      <trkpt lat="46.85586" lon="8.48829">
        <ele>2437</ele>
        <time>2021-08-12T09:39:55.485Z</time>
      </trkpt>
      <trkpt lat="46.85585" lon="8.48829">
        <ele>2437</ele>
        <time>2021-08-12T09:39:56.485Z</time>
      </trkpt>
      <trkpt lat="46.85584" lon="8.48829">
        <ele>2437</ele>
        <time>2021-08-12T09:39:57.484Z</time>
      </trkpt>
      <trkpt lat="46.85583" lon="8.48829">
        <ele>2438</ele>
        <time>2021-08-12T09:39:58.485Z</time>
      </trkpt>
      <trkpt lat="46.85582" lon="8.48829">
        <ele>2438</ele>
        <time>2021-08-12T09:39:59.484Z</time>
      </trkpt>
      <trkpt lat="46.85581" lon="8.48829">
        <ele>2438</ele>
        <time>2021-08-12T09:40:00.484Z</time>
      </trkpt>
      <trkpt lat="46.85581" lon="8.48829">
        <ele>2438</ele>
        <time>2021-08-12T09:40:01.485Z</time>
      </trkpt>
      <trkpt lat="46.8558" lon="8.48829">
        <ele>2438</ele>
        <time>2021-08-12T09:40:02.485Z</time>
      </trkpt>
      <trkpt lat="46.8558" lon="8.48829">
        <ele>2438</ele>
        <time>2021-08-12T09:40:03.484Z</time>
      </trkpt>
      <trkpt lat="46.85579" lon="8.48829">
        <ele>2438</ele>
        <time>2021-08-12T09:40:04.484Z</time>
      </trkpt>
      <trkpt lat="46.85579" lon="8.4883">
        <ele>2438</ele>
        <time>2021-08-12T09:40:05.484Z</time>
      </trkpt>
      <trkpt lat="46.85578" lon="8.48831">
        <ele>2438</ele>
        <time>2021-08-12T09:40:06.484Z</time>
      </trkpt>
      <trkpt lat="46.85578" lon="8.48832">
        <ele>2437</ele>
        <time>2021-08-12T09:40:07.485Z</time>
      </trkpt>
      <trkpt lat="46.85579" lon="8.48834">
        <ele>2437</ele>
        <time>2021-08-12T09:40:08.485Z</time>
      </trkpt>
      <trkpt lat="46.85579" lon="8.48836">
        <ele>2437</ele>
        <time>2021-08-12T09:40:09.484Z</time>
      </trkpt>
      <trkpt lat="46.85579" lon="8.48837">
        <ele>2437</ele>
        <time>2021-08-12T09:40:10.485Z</time>
      </trkpt>
      <trkpt lat="46.85579" lon="8.48838">
        <ele>2437</ele>
        <time>2021-08-12T09:40:11.484Z</time>
      </trkpt>
      <trkpt lat="46.85578" lon="8.48839">
        <ele>2437</ele>
        <time>2021-08-12T09:40:12.485Z</time>
      </trkpt>
      <trkpt lat="46.85578" lon="8.4884">
        <ele>2437</ele>
        <time>2021-08-12T09:40:13.485Z</time>
      </trkpt>
      <trkpt lat="46.85578" lon="8.4884">
        <ele>2437</ele>
        <time>2021-08-12T09:40:14.485Z</time>
      </trkpt>
      <trkpt lat="46.85578" lon="8.48841">
        <ele>2438</ele>
        <time>2021-08-12T09:40:15.485Z</time>
      </trkpt>
      <trkpt lat="46.85578" lon="8.48842">
        <ele>2437</ele>
        <time>2021-08-12T09:40:16.485Z</time>
      </trkpt>
      <trkpt lat="46.85578" lon="8.48842">
        <ele>2437</ele>
        <time>2021-08-12T09:40:17.485Z</time>
      </trkpt>
      <trkpt lat="46.85578" lon="8.48842">
        <ele>2437</ele>
        <time>2021-08-12T09:40:18.484Z</time>
      </trkpt>
      <trkpt lat="46.85577" lon="8.48841">
        <ele>2436</ele>
        <time>2021-08-12T09:40:19.485Z</time>
      </trkpt>
      <trkpt lat="46.85578" lon="8.48842">
        <ele>2436</ele>
        <time>2021-08-12T09:40:20.485Z</time>
      </trkpt>
      <trkpt lat="46.85578" lon="8.48842">
        <ele>2436</ele>
        <time>2021-08-12T09:40:21.485Z</time>
      </trkpt>
      <trkpt lat="46.85578" lon="8.48842">
        <ele>2435</ele>
        <time>2021-08-12T09:40:22.484Z</time>
      </trkpt>
      <trkpt lat="46.85578" lon="8.48842">
        <ele>2435</ele>
        <time>2021-08-12T09:40:23.484Z</time>
      </trkpt>
      <trkpt lat="46.85576" lon="8.48842">
        <ele>2436</ele>
        <time>2021-08-12T09:40:24.484Z</time>
      </trkpt>
      <trkpt lat="46.85576" lon="8.48843">
        <ele>2437</ele>
        <time>2021-08-12T09:40:25.484Z</time>
      </trkpt>
      <trkpt lat="46.85577" lon="8.48843">
        <ele>2438</ele>
        <time>2021-08-12T09:40:26.484Z</time>
      </trkpt>
      <trkpt lat="46.85579" lon="8.48845">
        <ele>2437</ele>
        <time>2021-08-12T09:40:27.485Z</time>
      </trkpt>
      <trkpt lat="46.85579" lon="8.48845">
        <ele>2437</ele>
        <time>2021-08-12T09:40:28.484Z</time>
      </trkpt>
      <trkpt lat="46.85578" lon="8.48844">
        <ele>2438</ele>
        <time>2021-08-12T09:40:29.486Z</time>
      </trkpt>
      <trkpt lat="46.85578" lon="8.48843">
        <ele>2438</ele>
        <time>2021-08-12T09:40:30.486Z</time>
      </trkpt>
      <trkpt lat="46.85578" lon="8.48843">
        <ele>2437</ele>
        <time>2021-08-12T09:40:31.485Z</time>
      </trkpt>
      <trkpt lat="46.85578" lon="8.48843">
        <ele>2437</ele>
        <time>2021-08-12T09:40:32.486Z</time>
      </trkpt>
      <trkpt lat="46.85578" lon="8.48843">
        <ele>2437</ele>
        <time>2021-08-12T09:40:33.486Z</time>
      </trkpt>
      <trkpt lat="46.85578" lon="8.48843">
        <ele>2436</ele>
        <time>2021-08-12T09:40:34.485Z</time>
      </trkpt>
      <trkpt lat="46.85578" lon="8.48843">
        <ele>2436</ele>
        <time>2021-08-12T09:40:35.485Z</time>
      </trkpt>
      <trkpt lat="46.85577" lon="8.48843">
        <ele>2436</ele>
        <time>2021-08-12T09:40:36.486Z</time>
      </trkpt>
      <trkpt lat="46.85577" lon="8.48843">
        <ele>2435</ele>
        <time>2021-08-12T09:40:37.486Z</time>
      </trkpt>
      <trkpt lat="46.85576" lon="8.48844">
        <ele>2435</ele>
        <time>2021-08-12T09:40:38.485Z</time>
      </trkpt>
      <trkpt lat="46.85576" lon="8.48844">
        <ele>2435</ele>
        <time>2021-08-12T09:40:39.486Z</time>
      </trkpt>
      <trkpt lat="46.85575" lon="8.48843">
        <ele>2435</ele>
        <time>2021-08-12T09:40:40.486Z</time>
      </trkpt>
      <trkpt lat="46.85575" lon="8.48843">
        <ele>2435</ele>
        <time>2021-08-12T09:40:41.486Z</time>
      </trkpt>
      <trkpt lat="46.85574" lon="8.48843">
        <ele>2435</ele>
        <time>2021-08-12T09:40:42.486Z</time>
      </trkpt>
      <trkpt lat="46.85574" lon="8.48843">
        <ele>2435</ele>
        <time>2021-08-12T09:40:43.486Z</time>
      </trkpt>
      <trkpt lat="46.85574" lon="8.48843">
        <ele>2435</ele>
        <time>2021-08-12T09:40:44.485Z</time>
      </trkpt>
      <trkpt lat="46.85575" lon="8.48843">
        <ele>2437</ele>
        <time>2021-08-12T09:40:45.486Z</time>
      </trkpt>
      <trkpt lat="46.85576" lon="8.48846">
        <ele>2441</ele>
        <time>2021-08-12T09:40:46.487Z</time>
      </trkpt>
      <trkpt lat="46.85575" lon="8.48846">
        <ele>2441</ele>
        <time>2021-08-12T09:40:47.487Z</time>
      </trkpt>
      <trkpt lat="46.85574" lon="8.48846">
        <ele>2444</ele>
        <time>2021-08-12T09:40:48.487Z</time>
      </trkpt>
      <trkpt lat="46.85576" lon="8.48845">
        <ele>2448</ele>
        <time>2021-08-12T09:40:49.487Z</time>
      </trkpt>
      <trkpt lat="46.85577" lon="8.48844">
        <ele>2448</ele>
        <time>2021-08-12T09:40:50.486Z</time>
      </trkpt>
      <trkpt lat="46.85577" lon="8.48844">
        <ele>2449</ele>
        <time>2021-08-12T09:40:51.486Z</time>
      </trkpt>
      <trkpt lat="46.85577" lon="8.48843">
        <ele>2450</ele>
        <time>2021-08-12T09:40:52.486Z</time>
      </trkpt>
      <trkpt lat="46.85576" lon="8.48843">
        <ele>2450</ele>
        <time>2021-08-12T09:40:53.486Z</time>
      </trkpt>
      <trkpt lat="46.85576" lon="8.48843">
        <ele>2449</ele>
        <time>2021-08-12T09:40:54.486Z</time>
      </trkpt>
      <trkpt lat="46.85574" lon="8.48842">
        <ele>2443</ele>
        <time>2021-08-12T09:40:55.488Z</time>
      </trkpt>
      <trkpt lat="46.85573" lon="8.48841">
        <ele>2442</ele>
        <time>2021-08-12T09:40:56.489Z</time>
      </trkpt>
      <trkpt lat="46.85574" lon="8.48842">
        <ele>2441</ele>
        <time>2021-08-12T09:40:57.489Z</time>
      </trkpt>
      <trkpt lat="46.85574" lon="8.48842">
        <ele>2441</ele>
        <time>2021-08-12T09:40:58.490Z</time>
      </trkpt>
      <trkpt lat="46.85574" lon="8.48842">
        <ele>2441</ele>
        <time>2021-08-12T09:40:59.489Z</time>
      </trkpt>
      <trkpt lat="46.85573" lon="8.48842">
        <ele>2440</ele>
        <time>2021-08-12T09:41:00.491Z</time>
      </trkpt>
      <trkpt lat="46.85573" lon="8.48843">
        <ele>2441</ele>
        <time>2021-08-12T09:41:01.490Z</time>
      </trkpt>
      <trkpt lat="46.85574" lon="8.48844">
        <ele>2441</ele>
        <time>2021-08-12T09:41:02.490Z</time>
      </trkpt>
      <trkpt lat="46.85575" lon="8.48845">
        <ele>2442</ele>
        <time>2021-08-12T09:41:03.491Z</time>
      </trkpt>
      <trkpt lat="46.85576" lon="8.48845">
        <ele>2442</ele>
        <time>2021-08-12T09:41:04.491Z</time>
      </trkpt>
      <trkpt lat="46.85576" lon="8.48846">
        <ele>2443</ele>
        <time>2021-08-12T09:41:05.490Z</time>
      </trkpt>
      <trkpt lat="46.85576" lon="8.48846">
        <ele>2443</ele>
        <time>2021-08-12T09:41:06.490Z</time>
      </trkpt>
      <trkpt lat="46.85576" lon="8.48846">
        <ele>2444</ele>
        <time>2021-08-12T09:41:07.491Z</time>
      </trkpt>
      <trkpt lat="46.85576" lon="8.48846">
        <ele>2444</ele>
        <time>2021-08-12T09:41:08.490Z</time>
      </trkpt>
      <trkpt lat="46.85576" lon="8.48846">
        <ele>2444</ele>
        <time>2021-08-12T09:41:09.491Z</time>
      </trkpt>
      <trkpt lat="46.85576" lon="8.48847">
        <ele>2445</ele>
        <time>2021-08-12T09:41:10.491Z</time>
      </trkpt>
      <trkpt lat="46.85576" lon="8.48847">
        <ele>2445</ele>
        <time>2021-08-12T09:41:11.491Z</time>
      </trkpt>
      <trkpt lat="46.85576" lon="8.48847">
        <ele>2445</ele>
        <time>2021-08-12T09:41:12.491Z</time>
      </trkpt>
      <trkpt lat="46.85575" lon="8.48847">
        <ele>2439</ele>
        <time>2021-08-12T09:41:13.491Z</time>
      </trkpt>
      <trkpt lat="46.85576" lon="8.48847">
        <ele>2438</ele>
        <time>2021-08-12T09:41:14.491Z</time>
      </trkpt>
      <trkpt lat="46.85576" lon="8.48847">
        <ele>2438</ele>
        <time>2021-08-12T09:41:15.490Z</time>
      </trkpt>
      <trkpt lat="46.85576" lon="8.48847">
        <ele>2437</ele>
        <time>2021-08-12T09:41:16.491Z</time>
      </trkpt>
      <trkpt lat="46.85587" lon="8.48849">
        <ele>2429</ele>
        <time>2021-08-12T09:41:17.491Z</time>
      </trkpt>
      <trkpt lat="46.85587" lon="8.48849">
        <ele>2429</ele>
        <time>2021-08-12T09:41:18.491Z</time>
      </trkpt>
      <trkpt lat="46.85586" lon="8.48848">
        <ele>2429</ele>
        <time>2021-08-12T09:41:19.490Z</time>
      </trkpt>
      <trkpt lat="46.85586" lon="8.48848">
        <ele>2428</ele>
        <time>2021-08-12T09:41:20.491Z</time>
      </trkpt>
      <trkpt lat="46.85585" lon="8.48848">
        <ele>2428</ele>
        <time>2021-08-12T09:41:21.491Z</time>
      </trkpt>
      <trkpt lat="46.85584" lon="8.48847">
        <ele>2428</ele>
        <time>2021-08-12T09:41:22.492Z</time>
      </trkpt>
      <trkpt lat="46.85583" lon="8.48847">
        <ele>2428</ele>
        <time>2021-08-12T09:41:23.492Z</time>
      </trkpt>
      <trkpt lat="46.85583" lon="8.48847">
        <ele>2429</ele>
        <time>2021-08-12T09:41:24.492Z</time>
      </trkpt>
      <trkpt lat="46.85583" lon="8.48847">
        <ele>2430</ele>
        <time>2021-08-12T09:41:25.493Z</time>
      </trkpt>
      <trkpt lat="46.85584" lon="8.48852">
        <ele>2433</ele>
        <time>2021-08-12T09:41:26.492Z</time>
      </trkpt>
      <trkpt lat="46.85584" lon="8.48852">
        <ele>2434</ele>
        <time>2021-08-12T09:41:27.493Z</time>
      </trkpt>
      <trkpt lat="46.85584" lon="8.48852">
        <ele>2434</ele>
        <time>2021-08-12T09:41:28.492Z</time>
      </trkpt>
      <trkpt lat="46.85583" lon="8.48852">
        <ele>2435</ele>
        <time>2021-08-12T09:41:29.492Z</time>
      </trkpt>
      <trkpt lat="46.85583" lon="8.48852">
        <ele>2436</ele>
        <time>2021-08-12T09:41:30.493Z</time>
      </trkpt>
      <trkpt lat="46.85582" lon="8.48852">
        <ele>2436</ele>
        <time>2021-08-12T09:41:31.493Z</time>
      </trkpt>
      <trkpt lat="46.85584" lon="8.48853">
        <ele>2437</ele>
        <time>2021-08-12T09:41:32.493Z</time>
      </trkpt>
      <trkpt lat="46.85583" lon="8.48853">
        <ele>2437</ele>
        <time>2021-08-12T09:41:33.492Z</time>
      </trkpt>
      <trkpt lat="46.85583" lon="8.48853">
        <ele>2440</ele>
        <time>2021-08-12T09:41:34.493Z</time>
      </trkpt>
      <trkpt lat="46.85582" lon="8.48852">
        <ele>2441</ele>
        <time>2021-08-12T09:41:35.493Z</time>
      </trkpt>
      <trkpt lat="46.85581" lon="8.48851">
        <ele>2441</ele>
        <time>2021-08-12T09:41:36.493Z</time>
      </trkpt>
      <trkpt lat="46.85581" lon="8.48851">
        <ele>2441</ele>
        <time>2021-08-12T09:41:37.493Z</time>
      </trkpt>
      <trkpt lat="46.85581" lon="8.48851">
        <ele>2441</ele>
        <time>2021-08-12T09:41:38.494Z</time>
      </trkpt>
      <trkpt lat="46.85576" lon="8.4885">
        <ele>2444</ele>
        <time>2021-08-12T09:41:39.496Z</time>
      </trkpt>
      <trkpt lat="46.85576" lon="8.4885">
        <ele>2444</ele>
        <time>2021-08-12T09:41:40.495Z</time>
      </trkpt>
      <trkpt lat="46.85576" lon="8.4885">
        <ele>2444</ele>
        <time>2021-08-12T09:41:41.496Z</time>
      </trkpt>
      <trkpt lat="46.85572" lon="8.4885">
        <ele>2445</ele>
        <time>2021-08-12T09:41:42.495Z</time>
      </trkpt>
      <trkpt lat="46.85572" lon="8.4885">
        <ele>2445</ele>
        <time>2021-08-12T09:41:43.495Z</time>
      </trkpt>
      <trkpt lat="46.85571" lon="8.4885">
        <ele>2446</ele>
        <time>2021-08-12T09:41:44.496Z</time>
      </trkpt>
      <trkpt lat="46.8557" lon="8.4885">
        <ele>2446</ele>
        <time>2021-08-12T09:41:45.495Z</time>
      </trkpt>
      <trkpt lat="46.8557" lon="8.48851">
        <ele>2447</ele>
        <time>2021-08-12T09:41:46.496Z</time>
      </trkpt>
      <trkpt lat="46.8557" lon="8.48851">
        <ele>2447</ele>
        <time>2021-08-12T09:41:47.496Z</time>
      </trkpt>
      <trkpt lat="46.85569" lon="8.48851">
        <ele>2447</ele>
        <time>2021-08-12T09:41:48.496Z</time>
      </trkpt>
      <trkpt lat="46.85568" lon="8.48851">
        <ele>2447</ele>
        <time>2021-08-12T09:41:49.496Z</time>
      </trkpt>
      <trkpt lat="46.85568" lon="8.48851">
        <ele>2447</ele>
        <time>2021-08-12T09:41:50.496Z</time>
      </trkpt>
      <trkpt lat="46.85568" lon="8.48851">
        <ele>2447</ele>
        <time>2021-08-12T09:41:51.496Z</time>
      </trkpt>
      <trkpt lat="46.85566" lon="8.48851">
        <ele>2448</ele>
        <time>2021-08-12T09:41:52.497Z</time>
      </trkpt>
      <trkpt lat="46.85565" lon="8.48851">
        <ele>2449</ele>
        <time>2021-08-12T09:41:53.497Z</time>
      </trkpt>
      <trkpt lat="46.85564" lon="8.48851">
        <ele>2449</ele>
        <time>2021-08-12T09:41:54.497Z</time>
      </trkpt>
      <trkpt lat="46.85563" lon="8.48851">
        <ele>2450</ele>
        <time>2021-08-12T09:41:55.497Z</time>
      </trkpt>
      <trkpt lat="46.85562" lon="8.4885">
        <ele>2450</ele>
        <time>2021-08-12T09:41:56.497Z</time>
      </trkpt>
      <trkpt lat="46.85562" lon="8.48849">
        <ele>2450</ele>
        <time>2021-08-12T09:41:57.497Z</time>
      </trkpt>
      <trkpt lat="46.85563" lon="8.48847">
        <ele>2455</ele>
        <time>2021-08-12T09:41:58.498Z</time>
      </trkpt>
      <trkpt lat="46.85562" lon="8.48844">
        <ele>2450</ele>
        <time>2021-08-12T09:41:59.498Z</time>
      </trkpt>
      <trkpt lat="46.85562" lon="8.48843">
        <ele>2450</ele>
        <time>2021-08-12T09:42:00.498Z</time>
      </trkpt>
      <trkpt lat="46.85562" lon="8.48843">
        <ele>2451</ele>
        <time>2021-08-12T09:42:01.498Z</time>
      </trkpt>
      <trkpt lat="46.85562" lon="8.48841">
        <ele>2454</ele>
        <time>2021-08-12T09:42:02.500Z</time>
      </trkpt>
      <trkpt lat="46.85563" lon="8.48841">
        <ele>2454</ele>
        <time>2021-08-12T09:42:03.499Z</time>
      </trkpt>
      <trkpt lat="46.85564" lon="8.48843">
        <ele>2454</ele>
        <time>2021-08-12T09:42:04.499Z</time>
      </trkpt>
      <trkpt lat="46.85564" lon="8.48843">
        <ele>2455</ele>
        <time>2021-08-12T09:42:05.499Z</time>
      </trkpt>
      <trkpt lat="46.85563" lon="8.48843">
        <ele>2456</ele>
        <time>2021-08-12T09:42:06.500Z</time>
      </trkpt>
      <trkpt lat="46.85565" lon="8.48845">
        <ele>2451</ele>
        <time>2021-08-12T09:42:07.501Z</time>
      </trkpt>
      <trkpt lat="46.85565" lon="8.48845">
        <ele>2450</ele>
        <time>2021-08-12T09:42:08.501Z</time>
      </trkpt>
      <trkpt lat="46.85565" lon="8.48845">
        <ele>2449</ele>
        <time>2021-08-12T09:42:09.501Z</time>
      </trkpt>
      <trkpt lat="46.85566" lon="8.48845">
        <ele>2448</ele>
        <time>2021-08-12T09:42:10.500Z</time>
      </trkpt>
      <trkpt lat="46.85572" lon="8.48849">
        <ele>2448</ele>
        <time>2021-08-12T09:42:11.501Z</time>
      </trkpt>
      <trkpt lat="46.85572" lon="8.48849">
        <ele>2447</ele>
        <time>2021-08-12T09:42:12.500Z</time>
      </trkpt>
      <trkpt lat="46.8557" lon="8.48849">
        <ele>2449</ele>
        <time>2021-08-12T09:42:13.501Z</time>
      </trkpt>
      <trkpt lat="46.8557" lon="8.48849">
        <ele>2450</ele>
        <time>2021-08-12T09:42:14.500Z</time>
      </trkpt>
      <trkpt lat="46.85568" lon="8.48846">
        <ele>2456</ele>
        <time>2021-08-12T09:42:15.502Z</time>
      </trkpt>
      <trkpt lat="46.85568" lon="8.48845">
        <ele>2455</ele>
        <time>2021-08-12T09:42:16.502Z</time>
      </trkpt>
      <trkpt lat="46.85568" lon="8.48845">
        <ele>2455</ele>
        <time>2021-08-12T09:42:17.502Z</time>
      </trkpt>
      <trkpt lat="46.85563" lon="8.48843">
        <ele>2457</ele>
        <time>2021-08-12T09:42:18.501Z</time>
      </trkpt>
      <trkpt lat="46.85562" lon="8.48843">
        <ele>2457</ele>
        <time>2021-08-12T09:42:19.501Z</time>
      </trkpt>
      <trkpt lat="46.85561" lon="8.48843">
        <ele>2458</ele>
        <time>2021-08-12T09:42:20.501Z</time>
      </trkpt>
      <trkpt lat="46.8556" lon="8.48842">
        <ele>2458</ele>
        <time>2021-08-12T09:42:21.501Z</time>
      </trkpt>
      <trkpt lat="46.85559" lon="8.48842">
        <ele>2458</ele>
        <time>2021-08-12T09:42:22.501Z</time>
      </trkpt>
      <trkpt lat="46.85557" lon="8.48842">
        <ele>2459</ele>
        <time>2021-08-12T09:42:23.501Z</time>
      </trkpt>
      <trkpt lat="46.85555" lon="8.48841">
        <ele>2457</ele>
        <time>2021-08-12T09:42:24.502Z</time>
      </trkpt>
      <trkpt lat="46.85555" lon="8.48841">
        <ele>2458</ele>
        <time>2021-08-12T09:42:25.501Z</time>
      </trkpt>
      <trkpt lat="46.85557" lon="8.4884">
        <ele>2460</ele>
        <time>2021-08-12T09:42:26.501Z</time>
      </trkpt>
      <trkpt lat="46.85557" lon="8.4884">
        <ele>2460</ele>
        <time>2021-08-12T09:42:27.502Z</time>
      </trkpt>
      <trkpt lat="46.85557" lon="8.4884">
        <ele>2461</ele>
        <time>2021-08-12T09:42:28.501Z</time>
      </trkpt>
      <trkpt lat="46.85556" lon="8.48839">
        <ele>2462</ele>
        <time>2021-08-12T09:42:29.504Z</time>
      </trkpt>
      <trkpt lat="46.8555" lon="8.48837">
        <ele>2461</ele>
        <time>2021-08-12T09:42:30.505Z</time>
      </trkpt>
      <trkpt lat="46.85549" lon="8.48836">
        <ele>2461</ele>
        <time>2021-08-12T09:42:31.504Z</time>
      </trkpt>
      <trkpt lat="46.85549" lon="8.48836">
        <ele>2461</ele>
        <time>2021-08-12T09:42:32.504Z</time>
      </trkpt>
      <trkpt lat="46.85548" lon="8.48835">
        <ele>2460</ele>
        <time>2021-08-12T09:42:33.505Z</time>
      </trkpt>
      <trkpt lat="46.85547" lon="8.48835">
        <ele>2460</ele>
        <time>2021-08-12T09:42:34.505Z</time>
      </trkpt>
      <trkpt lat="46.85546" lon="8.48836">
        <ele>2460</ele>
        <time>2021-08-12T09:42:35.505Z</time>
      </trkpt>
      <trkpt lat="46.85545" lon="8.48835">
        <ele>2460</ele>
        <time>2021-08-12T09:42:36.505Z</time>
      </trkpt>
      <trkpt lat="46.85543" lon="8.48835">
        <ele>2460</ele>
        <time>2021-08-12T09:42:37.505Z</time>
      </trkpt>
      <trkpt lat="46.85543" lon="8.48835">
        <ele>2459</ele>
        <time>2021-08-12T09:42:38.504Z</time>
      </trkpt>
      <trkpt lat="46.85543" lon="8.48836">
        <ele>2459</ele>
        <time>2021-08-12T09:42:39.504Z</time>
      </trkpt>
      <trkpt lat="46.85543" lon="8.48836">
        <ele>2458</ele>
        <time>2021-08-12T09:42:40.505Z</time>
      </trkpt>
      <trkpt lat="46.85542" lon="8.48837">
        <ele>2458</ele>
        <time>2021-08-12T09:42:41.504Z</time>
      </trkpt>
      <trkpt lat="46.85542" lon="8.48837">
        <ele>2457</ele>
        <time>2021-08-12T09:42:42.504Z</time>
      </trkpt>
      <trkpt lat="46.85541" lon="8.48837">
        <ele>2457</ele>
        <time>2021-08-12T09:42:43.505Z</time>
      </trkpt>
      <trkpt lat="46.8554" lon="8.48837">
        <ele>2457</ele>
        <time>2021-08-12T09:42:44.505Z</time>
      </trkpt>
      <trkpt lat="46.8554" lon="8.48838">
        <ele>2457</ele>
        <time>2021-08-12T09:42:45.505Z</time>
      </trkpt>
      <trkpt lat="46.8554" lon="8.48838">
        <ele>2457</ele>
        <time>2021-08-12T09:42:46.505Z</time>
      </trkpt>
      <trkpt lat="46.85539" lon="8.48838">
        <ele>2457</ele>
        <time>2021-08-12T09:42:47.505Z</time>
      </trkpt>
      <trkpt lat="46.8554" lon="8.48839">
        <ele>2457</ele>
        <time>2021-08-12T09:42:48.504Z</time>
      </trkpt>
      <trkpt lat="46.8554" lon="8.4884">
        <ele>2457</ele>
        <time>2021-08-12T09:42:49.504Z</time>
      </trkpt>
      <trkpt lat="46.8554" lon="8.4884">
        <ele>2457</ele>
        <time>2021-08-12T09:42:50.505Z</time>
      </trkpt>
      <trkpt lat="46.8554" lon="8.48841">
        <ele>2456</ele>
        <time>2021-08-12T09:42:51.504Z</time>
      </trkpt>
      <trkpt lat="46.8554" lon="8.48841">
        <ele>2456</ele>
        <time>2021-08-12T09:42:52.504Z</time>
      </trkpt>
      <trkpt lat="46.8554" lon="8.48842">
        <ele>2455</ele>
        <time>2021-08-12T09:42:53.504Z</time>
      </trkpt>
      <trkpt lat="46.8554" lon="8.48842">
        <ele>2455</ele>
        <time>2021-08-12T09:42:54.504Z</time>
      </trkpt>
      <trkpt lat="46.8554" lon="8.48841">
        <ele>2453</ele>
        <time>2021-08-12T09:42:55.506Z</time>
      </trkpt>
      <trkpt lat="46.8554" lon="8.48841">
        <ele>2453</ele>
        <time>2021-08-12T09:42:56.506Z</time>
      </trkpt>
      <trkpt lat="46.85537" lon="8.48842">
        <ele>2453</ele>
        <time>2021-08-12T09:42:57.507Z</time>
      </trkpt>
      <trkpt lat="46.85537" lon="8.48842">
        <ele>2454</ele>
        <time>2021-08-12T09:42:58.506Z</time>
      </trkpt>
      <trkpt lat="46.85536" lon="8.48842">
        <ele>2454</ele>
        <time>2021-08-12T09:42:59.507Z</time>
      </trkpt>
      <trkpt lat="46.85536" lon="8.48843">
        <ele>2456</ele>
        <time>2021-08-12T09:43:00.507Z</time>
      </trkpt>
      <trkpt lat="46.85537" lon="8.48843">
        <ele>2456</ele>
        <time>2021-08-12T09:43:01.507Z</time>
      </trkpt>
      <trkpt lat="46.85537" lon="8.48843">
        <ele>2456</ele>
        <time>2021-08-12T09:43:02.507Z</time>
      </trkpt>
      <trkpt lat="46.85537" lon="8.48842">
        <ele>2456</ele>
        <time>2021-08-12T09:43:03.507Z</time>
      </trkpt>
      <trkpt lat="46.85537" lon="8.48841">
        <ele>2456</ele>
        <time>2021-08-12T09:43:04.507Z</time>
      </trkpt>
      <trkpt lat="46.85537" lon="8.48841">
        <ele>2456</ele>
        <time>2021-08-12T09:43:05.507Z</time>
      </trkpt>
      <trkpt lat="46.85537" lon="8.4884">
        <ele>2452</ele>
        <time>2021-08-12T09:43:06.508Z</time>
      </trkpt>
      <trkpt lat="46.85536" lon="8.4884">
        <ele>2451</ele>
        <time>2021-08-12T09:43:07.507Z</time>
      </trkpt>
      <trkpt lat="46.85535" lon="8.4884">
        <ele>2450</ele>
        <time>2021-08-12T09:43:08.507Z</time>
      </trkpt>
      <trkpt lat="46.85533" lon="8.4884">
        <ele>2445</ele>
        <time>2021-08-12T09:43:09.507Z</time>
      </trkpt>
      <trkpt lat="46.85532" lon="8.4884">
        <ele>2445</ele>
        <time>2021-08-12T09:43:10.508Z</time>
      </trkpt>
      <trkpt lat="46.85532" lon="8.4884">
        <ele>2444</ele>
        <time>2021-08-12T09:43:11.508Z</time>
      </trkpt>
      <trkpt lat="46.85531" lon="8.48841">
        <ele>2444</ele>
        <time>2021-08-12T09:43:12.507Z</time>
      </trkpt>
      <trkpt lat="46.85531" lon="8.48841">
        <ele>2443</ele>
        <time>2021-08-12T09:43:13.508Z</time>
      </trkpt>
      <trkpt lat="46.8553" lon="8.48841">
        <ele>2442</ele>
        <time>2021-08-12T09:43:14.508Z</time>
      </trkpt>
      <trkpt lat="46.8553" lon="8.48841">
        <ele>2442</ele>
        <time>2021-08-12T09:43:15.508Z</time>
      </trkpt>
      <trkpt lat="46.85529" lon="8.48841">
        <ele>2442</ele>
        <time>2021-08-12T09:43:16.508Z</time>
      </trkpt>
      <trkpt lat="46.85527" lon="8.48841">
        <ele>2443</ele>
        <time>2021-08-12T09:43:17.507Z</time>
      </trkpt>
      <trkpt lat="46.85526" lon="8.48841">
        <ele>2443</ele>
        <time>2021-08-12T09:43:18.509Z</time>
      </trkpt>
      <trkpt lat="46.85525" lon="8.48841">
        <ele>2443</ele>
        <time>2021-08-12T09:43:19.509Z</time>
      </trkpt>
      <trkpt lat="46.85525" lon="8.4884">
        <ele>2445</ele>
        <time>2021-08-12T09:43:20.509Z</time>
      </trkpt>
      <trkpt lat="46.85527" lon="8.48841">
        <ele>2445</ele>
        <time>2021-08-12T09:43:21.510Z</time>
      </trkpt>
      <trkpt lat="46.85529" lon="8.48841">
        <ele>2446</ele>
        <time>2021-08-12T09:43:22.509Z</time>
      </trkpt>
      <trkpt lat="46.85531" lon="8.48843">
        <ele>2446</ele>
        <time>2021-08-12T09:43:23.510Z</time>
      </trkpt>
      <trkpt lat="46.85531" lon="8.48843">
        <ele>2446</ele>
        <time>2021-08-12T09:43:24.510Z</time>
      </trkpt>
      <trkpt lat="46.85531" lon="8.48843">
        <ele>2446</ele>
        <time>2021-08-12T09:43:25.510Z</time>
      </trkpt>
      <trkpt lat="46.85534" lon="8.4884">
        <ele>2454</ele>
        <time>2021-08-12T09:43:26.510Z</time>
      </trkpt>
      <trkpt lat="46.85534" lon="8.48839">
        <ele>2454</ele>
        <time>2021-08-12T09:43:27.511Z</time>
      </trkpt>
      <trkpt lat="46.85535" lon="8.48839">
        <ele>2455</ele>
        <time>2021-08-12T09:43:28.510Z</time>
      </trkpt>
      <trkpt lat="46.85535" lon="8.48838">
        <ele>2455</ele>
        <time>2021-08-12T09:43:29.510Z</time>
      </trkpt>
      <trkpt lat="46.85535" lon="8.48836">
        <ele>2455</ele>
        <time>2021-08-12T09:43:30.511Z</time>
      </trkpt>
      <trkpt lat="46.85535" lon="8.48836">
        <ele>2455</ele>
        <time>2021-08-12T09:43:31.510Z</time>
      </trkpt>
      <trkpt lat="46.85536" lon="8.48836">
        <ele>2455</ele>
        <time>2021-08-12T09:43:32.511Z</time>
      </trkpt>
      <trkpt lat="46.85537" lon="8.48835">
        <ele>2456</ele>
        <time>2021-08-12T09:43:33.511Z</time>
      </trkpt>
      <trkpt lat="46.85538" lon="8.48835">
        <ele>2456</ele>
        <time>2021-08-12T09:43:34.511Z</time>
      </trkpt>
      <trkpt lat="46.85537" lon="8.48834">
        <ele>2456</ele>
        <time>2021-08-12T09:43:35.511Z</time>
      </trkpt>
      <trkpt lat="46.85536" lon="8.48834">
        <ele>2456</ele>
        <time>2021-08-12T09:43:36.511Z</time>
      </trkpt>
      <trkpt lat="46.85534" lon="8.48832">
        <ele>2457</ele>
        <time>2021-08-12T09:43:37.510Z</time>
      </trkpt>
      <trkpt lat="46.85533" lon="8.48831">
        <ele>2457</ele>
        <time>2021-08-12T09:43:38.511Z</time>
      </trkpt>
      <trkpt lat="46.85532" lon="8.48831">
        <ele>2457</ele>
        <time>2021-08-12T09:43:39.511Z</time>
      </trkpt>
      <trkpt lat="46.85532" lon="8.48831">
        <ele>2457</ele>
        <time>2021-08-12T09:43:40.511Z</time>
      </trkpt>
      <trkpt lat="46.85531" lon="8.4883">
        <ele>2457</ele>
        <time>2021-08-12T09:43:41.511Z</time>
      </trkpt>
      <trkpt lat="46.8553" lon="8.4883">
        <ele>2457</ele>
        <time>2021-08-12T09:43:42.510Z</time>
      </trkpt>
      <trkpt lat="46.85529" lon="8.48829">
        <ele>2457</ele>
        <time>2021-08-12T09:43:43.511Z</time>
      </trkpt>
      <trkpt lat="46.85529" lon="8.48829">
        <ele>2457</ele>
        <time>2021-08-12T09:43:44.510Z</time>
      </trkpt>
      <trkpt lat="46.85529" lon="8.48828">
        <ele>2457</ele>
        <time>2021-08-12T09:43:45.511Z</time>
      </trkpt>
      <trkpt lat="46.85529" lon="8.48828">
        <ele>2457</ele>
        <time>2021-08-12T09:43:46.510Z</time>
      </trkpt>
      <trkpt lat="46.85529" lon="8.48828">
        <ele>2457</ele>
        <time>2021-08-12T09:43:47.510Z</time>
      </trkpt>
      <trkpt lat="46.85529" lon="8.48827">
        <ele>2457</ele>
        <time>2021-08-12T09:43:48.510Z</time>
      </trkpt>
      <trkpt lat="46.85528" lon="8.48827">
        <ele>2457</ele>
        <time>2021-08-12T09:43:49.510Z</time>
      </trkpt>
      <trkpt lat="46.85528" lon="8.48826">
        <ele>2457</ele>
        <time>2021-08-12T09:43:50.510Z</time>
      </trkpt>
      <trkpt lat="46.85527" lon="8.48826">
        <ele>2457</ele>
        <time>2021-08-12T09:43:51.511Z</time>
      </trkpt>
      <trkpt lat="46.85527" lon="8.48826">
        <ele>2457</ele>
        <time>2021-08-12T09:43:52.510Z</time>
      </trkpt>
      <trkpt lat="46.85526" lon="8.48825">
        <ele>2457</ele>
        <time>2021-08-12T09:43:53.511Z</time>
      </trkpt>
      <trkpt lat="46.85527" lon="8.48825">
        <ele>2458</ele>
        <time>2021-08-12T09:43:54.511Z</time>
      </trkpt>
      <trkpt lat="46.85526" lon="8.48825">
        <ele>2458</ele>
        <time>2021-08-12T09:43:55.511Z</time>
      </trkpt>
      <trkpt lat="46.85526" lon="8.48824">
        <ele>2459</ele>
        <time>2021-08-12T09:43:56.511Z</time>
      </trkpt>
      <trkpt lat="46.85526" lon="8.48824">
        <ele>2459</ele>
        <time>2021-08-12T09:43:57.510Z</time>
      </trkpt>
      <trkpt lat="46.85526" lon="8.48823">
        <ele>2460</ele>
        <time>2021-08-12T09:43:58.510Z</time>
      </trkpt>
      <trkpt lat="46.85527" lon="8.48823">
        <ele>2460</ele>
        <time>2021-08-12T09:43:59.511Z</time>
      </trkpt>
      <trkpt lat="46.85527" lon="8.48823">
        <ele>2460</ele>
        <time>2021-08-12T09:44:00.512Z</time>
      </trkpt>
      <trkpt lat="46.85527" lon="8.48821">
        <ele>2463</ele>
        <time>2021-08-12T09:44:01.512Z</time>
      </trkpt>
      <trkpt lat="46.85527" lon="8.48821">
        <ele>2464</ele>
        <time>2021-08-12T09:44:02.512Z</time>
      </trkpt>
      <trkpt lat="46.85526" lon="8.4882">
        <ele>2464</ele>
        <time>2021-08-12T09:44:03.511Z</time>
      </trkpt>
      <trkpt lat="46.85526" lon="8.4882">
        <ele>2464</ele>
        <time>2021-08-12T09:44:04.512Z</time>
      </trkpt>
      <trkpt lat="46.85526" lon="8.48819">
        <ele>2464</ele>
        <time>2021-08-12T09:44:05.512Z</time>
      </trkpt>
      <trkpt lat="46.85526" lon="8.48819">
        <ele>2465</ele>
        <time>2021-08-12T09:44:06.511Z</time>
      </trkpt>
      <trkpt lat="46.85525" lon="8.48819">
        <ele>2465</ele>
        <time>2021-08-12T09:44:07.512Z</time>
      </trkpt>
      <trkpt lat="46.85525" lon="8.48818">
        <ele>2465</ele>
        <time>2021-08-12T09:44:08.512Z</time>
      </trkpt>
      <trkpt lat="46.85525" lon="8.48818">
        <ele>2465</ele>
        <time>2021-08-12T09:44:09.512Z</time>
      </trkpt>
      <trkpt lat="46.85525" lon="8.48818">
        <ele>2465</ele>
        <time>2021-08-12T09:44:10.512Z</time>
      </trkpt>
      <trkpt lat="46.85524" lon="8.48818">
        <ele>2465</ele>
        <time>2021-08-12T09:44:11.512Z</time>
      </trkpt>
      <trkpt lat="46.85524" lon="8.4882">
        <ele>2466</ele>
        <time>2021-08-12T09:44:12.513Z</time>
      </trkpt>
      <trkpt lat="46.85524" lon="8.48821">
        <ele>2467</ele>
        <time>2021-08-12T09:44:13.513Z</time>
      </trkpt>
      <trkpt lat="46.85524" lon="8.4882">
        <ele>2467</ele>
        <time>2021-08-12T09:44:14.512Z</time>
      </trkpt>
      <trkpt lat="46.85524" lon="8.48819">
        <ele>2467</ele>
        <time>2021-08-12T09:44:15.513Z</time>
      </trkpt>
      <trkpt lat="46.85523" lon="8.48818">
        <ele>2467</ele>
        <time>2021-08-12T09:44:16.513Z</time>
      </trkpt>
      <trkpt lat="46.85523" lon="8.48817">
        <ele>2467</ele>
        <time>2021-08-12T09:44:17.513Z</time>
      </trkpt>
      <trkpt lat="46.85522" lon="8.48816">
        <ele>2467</ele>
        <time>2021-08-12T09:44:18.513Z</time>
      </trkpt>
      <trkpt lat="46.85522" lon="8.48816">
        <ele>2467</ele>
        <time>2021-08-12T09:44:19.513Z</time>
      </trkpt>
      <trkpt lat="46.85521" lon="8.48817">
        <ele>2467</ele>
        <time>2021-08-12T09:44:20.512Z</time>
      </trkpt>
      <trkpt lat="46.85521" lon="8.48817">
        <ele>2467</ele>
        <time>2021-08-12T09:44:21.513Z</time>
      </trkpt>
      <trkpt lat="46.8552" lon="8.48817">
        <ele>2467</ele>
        <time>2021-08-12T09:44:22.512Z</time>
      </trkpt>
      <trkpt lat="46.85519" lon="8.48818">
        <ele>2467</ele>
        <time>2021-08-12T09:44:23.513Z</time>
      </trkpt>
      <trkpt lat="46.85519" lon="8.48818">
        <ele>2467</ele>
        <time>2021-08-12T09:44:24.513Z</time>
      </trkpt>
      <trkpt lat="46.85519" lon="8.48818">
        <ele>2467</ele>
        <time>2021-08-12T09:44:25.513Z</time>
      </trkpt>
      <trkpt lat="46.85514" lon="8.48814">
        <ele>2466</ele>
        <time>2021-08-12T09:44:26.390Z</time>
      </trkpt>
      <trkpt lat="46.85513" lon="8.48814">
        <ele>2465</ele>
        <time>2021-08-12T09:44:27.390Z</time>
      </trkpt>
      <trkpt lat="46.85513" lon="8.48813">
        <ele>2465</ele>
        <time>2021-08-12T09:44:28.389Z</time>
      </trkpt>
      <trkpt lat="46.85514" lon="8.48814">
        <ele>2463</ele>
        <time>2021-08-12T09:44:29.390Z</time>
      </trkpt>
      <trkpt lat="46.85513" lon="8.48814">
        <ele>2462</ele>
        <time>2021-08-12T09:44:30.390Z</time>
      </trkpt>
      <trkpt lat="46.85512" lon="8.48812">
        <ele>2457</ele>
        <time>2021-08-12T09:44:31.389Z</time>
      </trkpt>
      <trkpt lat="46.85511" lon="8.48811">
        <ele>2457</ele>
        <time>2021-08-12T09:44:32.390Z</time>
      </trkpt>
      <trkpt lat="46.85509" lon="8.48809">
        <ele>2456</ele>
        <time>2021-08-12T09:44:33.390Z</time>
      </trkpt>
      <trkpt lat="46.85507" lon="8.48808">
        <ele>2455</ele>
        <time>2021-08-12T09:44:34.389Z</time>
      </trkpt>
      <trkpt lat="46.85506" lon="8.48808">
        <ele>2455</ele>
        <time>2021-08-12T09:44:35.389Z</time>
      </trkpt>
      <trkpt lat="46.85505" lon="8.48808">
        <ele>2454</ele>
        <time>2021-08-12T09:44:36.389Z</time>
      </trkpt>
      <trkpt lat="46.85505" lon="8.48808">
        <ele>2454</ele>
        <time>2021-08-12T09:44:37.389Z</time>
      </trkpt>
      <trkpt lat="46.85505" lon="8.48808">
        <ele>2454</ele>
        <time>2021-08-12T09:44:38.390Z</time>
      </trkpt>
      <trkpt lat="46.85504" lon="8.48807">
        <ele>2452</ele>
        <time>2021-08-12T09:44:39.391Z</time>
      </trkpt>
      <trkpt lat="46.85504" lon="8.48807">
        <ele>2451</ele>
        <time>2021-08-12T09:44:40.391Z</time>
      </trkpt>
      <trkpt lat="46.85504" lon="8.48807">
        <ele>2450</ele>
        <time>2021-08-12T09:44:41.391Z</time>
      </trkpt>
      <trkpt lat="46.85505" lon="8.48808">
        <ele>2450</ele>
        <time>2021-08-12T09:44:42.391Z</time>
      </trkpt>
      <trkpt lat="46.85504" lon="8.48809">
        <ele>2450</ele>
        <time>2021-08-12T09:44:43.391Z</time>
      </trkpt>
      <trkpt lat="46.85504" lon="8.4881">
        <ele>2450</ele>
        <time>2021-08-12T09:44:44.390Z</time>
      </trkpt>
      <trkpt lat="46.85504" lon="8.48811">
        <ele>2450</ele>
        <time>2021-08-12T09:44:45.390Z</time>
      </trkpt>
      <trkpt lat="46.85504" lon="8.48811">
        <ele>2451</ele>
        <time>2021-08-12T09:44:46.390Z</time>
      </trkpt>
      <trkpt lat="46.85503" lon="8.48812">
        <ele>2451</ele>
        <time>2021-08-12T09:44:47.391Z</time>
      </trkpt>
      <trkpt lat="46.85503" lon="8.48813">
        <ele>2453</ele>
        <time>2021-08-12T09:44:48.390Z</time>
      </trkpt>
      <trkpt lat="46.85504" lon="8.48814">
        <ele>2453</ele>
        <time>2021-08-12T09:44:49.391Z</time>
      </trkpt>
      <trkpt lat="46.85504" lon="8.48815">
        <ele>2454</ele>
        <time>2021-08-12T09:44:50.390Z</time>
      </trkpt>
      <trkpt lat="46.85511" lon="8.48824">
        <ele>2473</ele>
        <time>2021-08-12T09:44:51.391Z</time>
      </trkpt>
      <trkpt lat="46.8551" lon="8.48823">
        <ele>2473</ele>
        <time>2021-08-12T09:44:52.390Z</time>
      </trkpt>
      <trkpt lat="46.85509" lon="8.48824">
        <ele>2473</ele>
        <time>2021-08-12T09:44:53.390Z</time>
      </trkpt>
      <trkpt lat="46.85509" lon="8.48824">
        <ele>2472</ele>
        <time>2021-08-12T09:44:54.390Z</time>
      </trkpt>
      <trkpt lat="46.85509" lon="8.48825">
        <ele>2472</ele>
        <time>2021-08-12T09:44:55.390Z</time>
      </trkpt>
      <trkpt lat="46.85508" lon="8.48825">
        <ele>2471</ele>
        <time>2021-08-12T09:44:56.391Z</time>
      </trkpt>
      <trkpt lat="46.85508" lon="8.48825">
        <ele>2471</ele>
        <time>2021-08-12T09:44:57.391Z</time>
      </trkpt>
      <trkpt lat="46.85506" lon="8.48825">
        <ele>2468</ele>
        <time>2021-08-12T09:44:58.392Z</time>
      </trkpt>
      <trkpt lat="46.85506" lon="8.48826">
        <ele>2469</ele>
        <time>2021-08-12T09:44:59.391Z</time>
      </trkpt>
      <trkpt lat="46.85507" lon="8.48827">
        <ele>2472</ele>
        <time>2021-08-12T09:45:00.393Z</time>
      </trkpt>
      <trkpt lat="46.85507" lon="8.48827">
        <ele>2473</ele>
        <time>2021-08-12T09:45:01.393Z</time>
      </trkpt>
      <trkpt lat="46.85507" lon="8.48827">
        <ele>2473</ele>
        <time>2021-08-12T09:45:02.393Z</time>
      </trkpt>
      <trkpt lat="46.85509" lon="8.48827">
        <ele>2478</ele>
        <time>2021-08-12T09:45:03.394Z</time>
      </trkpt>
      <trkpt lat="46.85509" lon="8.48828">
        <ele>2479</ele>
        <time>2021-08-12T09:45:04.394Z</time>
      </trkpt>
      <trkpt lat="46.85509" lon="8.48828">
        <ele>2479</ele>
        <time>2021-08-12T09:45:05.394Z</time>
      </trkpt>
      <trkpt lat="46.8551" lon="8.48825">
        <ele>2474</ele>
        <time>2021-08-12T09:45:06.394Z</time>
      </trkpt>
      <trkpt lat="46.85511" lon="8.48824">
        <ele>2473</ele>
        <time>2021-08-12T09:45:07.394Z</time>
      </trkpt>
      <trkpt lat="46.85511" lon="8.48823">
        <ele>2473</ele>
        <time>2021-08-12T09:45:08.394Z</time>
      </trkpt>
      <trkpt lat="46.85512" lon="8.48823">
        <ele>2472</ele>
        <time>2021-08-12T09:45:09.395Z</time>
      </trkpt>
      <trkpt lat="46.85512" lon="8.48822">
        <ele>2472</ele>
        <time>2021-08-12T09:45:10.394Z</time>
      </trkpt>
      <trkpt lat="46.85513" lon="8.48821">
        <ele>2472</ele>
        <time>2021-08-12T09:45:11.395Z</time>
      </trkpt>
      <trkpt lat="46.85514" lon="8.48821">
        <ele>2472</ele>
        <time>2021-08-12T09:45:12.394Z</time>
      </trkpt>
      <trkpt lat="46.85514" lon="8.48821">
        <ele>2471</ele>
        <time>2021-08-12T09:45:13.394Z</time>
      </trkpt>
      <trkpt lat="46.85515" lon="8.4882">
        <ele>2471</ele>
        <time>2021-08-12T09:45:14.395Z</time>
      </trkpt>
      <trkpt lat="46.85515" lon="8.48818">
        <ele>2471</ele>
        <time>2021-08-12T09:45:15.394Z</time>
      </trkpt>
      <trkpt lat="46.85516" lon="8.48817">
        <ele>2471</ele>
        <time>2021-08-12T09:45:16.395Z</time>
      </trkpt>
      <trkpt lat="46.85516" lon="8.48816">
        <ele>2470</ele>
        <time>2021-08-12T09:45:17.395Z</time>
      </trkpt>
      <trkpt lat="46.85515" lon="8.48816">
        <ele>2470</ele>
        <time>2021-08-12T09:45:18.395Z</time>
      </trkpt>
      <trkpt lat="46.85515" lon="8.48815">
        <ele>2470</ele>
        <time>2021-08-12T09:45:19.394Z</time>
      </trkpt>
      <trkpt lat="46.85515" lon="8.48814">
        <ele>2471</ele>
        <time>2021-08-12T09:45:20.394Z</time>
      </trkpt>
      <trkpt lat="46.85515" lon="8.48814">
        <ele>2471</ele>
        <time>2021-08-12T09:45:21.395Z</time>
      </trkpt>
      <trkpt lat="46.85515" lon="8.48813">
        <ele>2471</ele>
        <time>2021-08-12T09:45:22.395Z</time>
      </trkpt>
      <trkpt lat="46.85515" lon="8.48812">
        <ele>2471</ele>
        <time>2021-08-12T09:45:23.395Z</time>
      </trkpt>
      <trkpt lat="46.85515" lon="8.48812">
        <ele>2471</ele>
        <time>2021-08-12T09:45:24.395Z</time>
      </trkpt>
      <trkpt lat="46.85515" lon="8.48812">
        <ele>2471</ele>
        <time>2021-08-12T09:45:25.395Z</time>
      </trkpt>
      <trkpt lat="46.85514" lon="8.48811">
        <ele>2471</ele>
        <time>2021-08-12T09:45:26.395Z</time>
      </trkpt>
      <trkpt lat="46.85514" lon="8.48811">
        <ele>2471</ele>
        <time>2021-08-12T09:45:27.394Z</time>
      </trkpt>
      <trkpt lat="46.85514" lon="8.4881">
        <ele>2471</ele>
        <time>2021-08-12T09:45:28.394Z</time>
      </trkpt>
      <trkpt lat="46.85514" lon="8.4881">
        <ele>2471</ele>
        <time>2021-08-12T09:45:29.394Z</time>
      </trkpt>
      <trkpt lat="46.85514" lon="8.48809">
        <ele>2472</ele>
        <time>2021-08-12T09:45:30.394Z</time>
      </trkpt>
      <trkpt lat="46.85514" lon="8.48809">
        <ele>2472</ele>
        <time>2021-08-12T09:45:31.394Z</time>
      </trkpt>
      <trkpt lat="46.85514" lon="8.48808">
        <ele>2473</ele>
        <time>2021-08-12T09:45:32.394Z</time>
      </trkpt>
      <trkpt lat="46.85515" lon="8.48806">
        <ele>2476</ele>
        <time>2021-08-12T09:45:33.395Z</time>
      </trkpt>
      <trkpt lat="46.85511" lon="8.48805">
        <ele>2478</ele>
        <time>2021-08-12T09:45:34.395Z</time>
      </trkpt>
      <trkpt lat="46.85511" lon="8.48805">
        <ele>2479</ele>
        <time>2021-08-12T09:45:35.394Z</time>
      </trkpt>
      <trkpt lat="46.85511" lon="8.48805">
        <ele>2480</ele>
        <time>2021-08-12T09:45:36.394Z</time>
      </trkpt>
      <trkpt lat="46.8551" lon="8.48804">
        <ele>2482</ele>
        <time>2021-08-12T09:45:37.395Z</time>
      </trkpt>
      <trkpt lat="46.85509" lon="8.48804">
        <ele>2482</ele>
        <time>2021-08-12T09:45:38.396Z</time>
      </trkpt>
      <trkpt lat="46.85509" lon="8.48804">
        <ele>2482</ele>
        <time>2021-08-12T09:45:39.395Z</time>
      </trkpt>
      <trkpt lat="46.85508" lon="8.48805">
        <ele>2482</ele>
        <time>2021-08-12T09:45:40.395Z</time>
      </trkpt>
      <trkpt lat="46.85507" lon="8.48805">
        <ele>2482</ele>
        <time>2021-08-12T09:45:41.396Z</time>
      </trkpt>
      <trkpt lat="46.85506" lon="8.48805">
        <ele>2481</ele>
        <time>2021-08-12T09:45:42.396Z</time>
      </trkpt>
      <trkpt lat="46.85506" lon="8.48805">
        <ele>2481</ele>
        <time>2021-08-12T09:45:43.396Z</time>
      </trkpt>
      <trkpt lat="46.85506" lon="8.48806">
        <ele>2480</ele>
        <time>2021-08-12T09:45:44.396Z</time>
      </trkpt>
      <trkpt lat="46.85505" lon="8.48806">
        <ele>2480</ele>
        <time>2021-08-12T09:45:45.396Z</time>
      </trkpt>
      <trkpt lat="46.85506" lon="8.48808">
        <ele>2479</ele>
        <time>2021-08-12T09:45:46.395Z</time>
      </trkpt>
      <trkpt lat="46.85506" lon="8.48808">
        <ele>2479</ele>
        <time>2021-08-12T09:45:47.396Z</time>
      </trkpt>
      <trkpt lat="46.85505" lon="8.48808">
        <ele>2478</ele>
        <time>2021-08-12T09:45:48.396Z</time>
      </trkpt>
      <trkpt lat="46.85505" lon="8.48807">
        <ele>2477</ele>
        <time>2021-08-12T09:45:49.396Z</time>
      </trkpt>
      <trkpt lat="46.85504" lon="8.48807">
        <ele>2476</ele>
        <time>2021-08-12T09:45:50.395Z</time>
      </trkpt>
      <trkpt lat="46.85504" lon="8.48807">
        <ele>2475</ele>
        <time>2021-08-12T09:45:51.395Z</time>
      </trkpt>
      <trkpt lat="46.85503" lon="8.48807">
        <ele>2474</ele>
        <time>2021-08-12T09:45:52.395Z</time>
      </trkpt>
      <trkpt lat="46.85503" lon="8.48807">
        <ele>2473</ele>
        <time>2021-08-12T09:45:53.396Z</time>
      </trkpt>
      <trkpt lat="46.85502" lon="8.48807">
        <ele>2472</ele>
        <time>2021-08-12T09:45:54.396Z</time>
      </trkpt>
      <trkpt lat="46.85502" lon="8.48807">
        <ele>2472</ele>
        <time>2021-08-12T09:45:55.396Z</time>
      </trkpt>
      <trkpt lat="46.85501" lon="8.48807">
        <ele>2471</ele>
        <time>2021-08-12T09:45:56.396Z</time>
      </trkpt>
      <trkpt lat="46.855" lon="8.48805">
        <ele>2465</ele>
        <time>2021-08-12T09:45:57.396Z</time>
      </trkpt>
      <trkpt lat="46.85499" lon="8.48805">
        <ele>2463</ele>
        <time>2021-08-12T09:45:58.396Z</time>
      </trkpt>
      <trkpt lat="46.85499" lon="8.48805">
        <ele>2464</ele>
        <time>2021-08-12T09:45:59.395Z</time>
      </trkpt>
      <trkpt lat="46.85499" lon="8.48805">
        <ele>2464</ele>
        <time>2021-08-12T09:46:00.396Z</time>
      </trkpt>
      <trkpt lat="46.85499" lon="8.48807">
        <ele>2468</ele>
        <time>2021-08-12T09:46:01.395Z</time>
      </trkpt>
      <trkpt lat="46.85502" lon="8.48811">
        <ele>2474</ele>
        <time>2021-08-12T09:46:02.395Z</time>
      </trkpt>
      <trkpt lat="46.85502" lon="8.48811">
        <ele>2475</ele>
        <time>2021-08-12T09:46:03.396Z</time>
      </trkpt>
      <trkpt lat="46.85501" lon="8.48811">
        <ele>2475</ele>
        <time>2021-08-12T09:46:04.395Z</time>
      </trkpt>
      <trkpt lat="46.85501" lon="8.48812">
        <ele>2475</ele>
        <time>2021-08-12T09:46:05.396Z</time>
      </trkpt>
      <trkpt lat="46.85501" lon="8.48812">
        <ele>2476</ele>
        <time>2021-08-12T09:46:06.395Z</time>
      </trkpt>
      <trkpt lat="46.85501" lon="8.48813">
        <ele>2476</ele>
        <time>2021-08-12T09:46:07.395Z</time>
      </trkpt>
      <trkpt lat="46.855" lon="8.48814">
        <ele>2477</ele>
        <time>2021-08-12T09:46:08.396Z</time>
      </trkpt>
      <trkpt lat="46.855" lon="8.48814">
        <ele>2477</ele>
        <time>2021-08-12T09:46:09.396Z</time>
      </trkpt>
      <trkpt lat="46.855" lon="8.48815">
        <ele>2477</ele>
        <time>2021-08-12T09:46:10.395Z</time>
      </trkpt>
      <trkpt lat="46.85499" lon="8.48815">
        <ele>2477</ele>
        <time>2021-08-12T09:46:11.396Z</time>
      </trkpt>
      <trkpt lat="46.85499" lon="8.48815">
        <ele>2477</ele>
        <time>2021-08-12T09:46:12.396Z</time>
      </trkpt>
      <trkpt lat="46.85498" lon="8.48815">
        <ele>2477</ele>
        <time>2021-08-12T09:46:13.396Z</time>
      </trkpt>
      <trkpt lat="46.85497" lon="8.48815">
        <ele>2476</ele>
        <time>2021-08-12T09:46:14.396Z</time>
      </trkpt>
      <trkpt lat="46.85497" lon="8.48816">
        <ele>2475</ele>
        <time>2021-08-12T09:46:15.395Z</time>
      </trkpt>
      <trkpt lat="46.85497" lon="8.48817">
        <ele>2475</ele>
        <time>2021-08-12T09:46:16.396Z</time>
      </trkpt>
      <trkpt lat="46.85497" lon="8.48817">
        <ele>2475</ele>
        <time>2021-08-12T09:46:17.396Z</time>
      </trkpt>
      <trkpt lat="46.85498" lon="8.48818">
        <ele>2474</ele>
        <time>2021-08-12T09:46:18.396Z</time>
      </trkpt>
      <trkpt lat="46.85498" lon="8.48819">
        <ele>2474</ele>
        <time>2021-08-12T09:46:19.396Z</time>
      </trkpt>
      <trkpt lat="46.85498" lon="8.4882">
        <ele>2473</ele>
        <time>2021-08-12T09:46:20.396Z</time>
      </trkpt>
      <trkpt lat="46.85498" lon="8.4882">
        <ele>2473</ele>
        <time>2021-08-12T09:46:21.396Z</time>
      </trkpt>
      <trkpt lat="46.85497" lon="8.4882">
        <ele>2472</ele>
        <time>2021-08-12T09:46:22.395Z</time>
      </trkpt>
      <trkpt lat="46.85497" lon="8.4882">
        <ele>2471</ele>
        <time>2021-08-12T09:46:23.395Z</time>
      </trkpt>
      <trkpt lat="46.85496" lon="8.4882">
        <ele>2471</ele>
        <time>2021-08-12T09:46:24.395Z</time>
      </trkpt>
      <trkpt lat="46.85496" lon="8.4882">
        <ele>2470</ele>
        <time>2021-08-12T09:46:25.396Z</time>
      </trkpt>
      <trkpt lat="46.85495" lon="8.48819">
        <ele>2469</ele>
        <time>2021-08-12T09:46:26.396Z</time>
      </trkpt>
      <trkpt lat="46.85497" lon="8.48821">
        <ele>2478</ele>
        <time>2021-08-12T09:46:27.397Z</time>
      </trkpt>
      <trkpt lat="46.85497" lon="8.48821">
        <ele>2477</ele>
        <time>2021-08-12T09:46:28.396Z</time>
      </trkpt>
      <trkpt lat="46.85497" lon="8.48821">
        <ele>2477</ele>
        <time>2021-08-12T09:46:29.397Z</time>
      </trkpt>
      <trkpt lat="46.85496" lon="8.48822">
        <ele>2477</ele>
        <time>2021-08-12T09:46:30.396Z</time>
      </trkpt>
      <trkpt lat="46.85496" lon="8.48821">
        <ele>2473</ele>
        <time>2021-08-12T09:46:31.397Z</time>
      </trkpt>
      <trkpt lat="46.85496" lon="8.48821">
        <ele>2472</ele>
        <time>2021-08-12T09:46:32.397Z</time>
      </trkpt>
      <trkpt lat="46.85496" lon="8.48821">
        <ele>2471</ele>
        <time>2021-08-12T09:46:33.396Z</time>
      </trkpt>
      <trkpt lat="46.85506" lon="8.48822">
        <ele>2485</ele>
        <time>2021-08-12T09:46:34.397Z</time>
      </trkpt>
      <trkpt lat="46.85505" lon="8.48822">
        <ele>2486</ele>
        <time>2021-08-12T09:46:35.398Z</time>
      </trkpt>
      <trkpt lat="46.85505" lon="8.48822">
        <ele>2488</ele>
        <time>2021-08-12T09:46:36.397Z</time>
      </trkpt>
      <trkpt lat="46.8551" lon="8.48818">
        <ele>2493</ele>
        <time>2021-08-12T09:46:37.399Z</time>
      </trkpt>
      <trkpt lat="46.8551" lon="8.48818">
        <ele>2493</ele>
        <time>2021-08-12T09:46:38.398Z</time>
      </trkpt>
      <trkpt lat="46.8551" lon="8.48818">
        <ele>2493</ele>
        <time>2021-08-12T09:46:39.398Z</time>
      </trkpt>
      <trkpt lat="46.85508" lon="8.48825">
        <ele>2490</ele>
        <time>2021-08-12T09:46:40.400Z</time>
      </trkpt>
      <trkpt lat="46.85507" lon="8.48825">
        <ele>2490</ele>
        <time>2021-08-12T09:46:41.399Z</time>
      </trkpt>
      <trkpt lat="46.85507" lon="8.48825">
        <ele>2490</ele>
        <time>2021-08-12T09:46:42.400Z</time>
      </trkpt>
      <trkpt lat="46.85509" lon="8.48826">
        <ele>2489</ele>
        <time>2021-08-12T09:46:43.400Z</time>
      </trkpt>
      <trkpt lat="46.85509" lon="8.48825">
        <ele>2488</ele>
        <time>2021-08-12T09:46:44.400Z</time>
      </trkpt>
      <trkpt lat="46.85503" lon="8.48825">
        <ele>2484</ele>
        <time>2021-08-12T09:46:45.401Z</time>
      </trkpt>
      <trkpt lat="46.85502" lon="8.48826">
        <ele>2485</ele>
        <time>2021-08-12T09:46:46.401Z</time>
      </trkpt>
      <trkpt lat="46.85501" lon="8.48829">
        <ele>2482</ele>
        <time>2021-08-12T09:46:47.401Z</time>
      </trkpt>
      <trkpt lat="46.85501" lon="8.48829">
        <ele>2481</ele>
        <time>2021-08-12T09:46:48.401Z</time>
      </trkpt>
      <trkpt lat="46.85501" lon="8.4883">
        <ele>2481</ele>
        <time>2021-08-12T09:46:49.402Z</time>
      </trkpt>
      <trkpt lat="46.85502" lon="8.48831">
        <ele>2480</ele>
        <time>2021-08-12T09:46:50.402Z</time>
      </trkpt>
      <trkpt lat="46.855" lon="8.48831">
        <ele>2479</ele>
        <time>2021-08-12T09:46:51.402Z</time>
      </trkpt>
      <trkpt lat="46.85499" lon="8.48831">
        <ele>2478</ele>
        <time>2021-08-12T09:46:52.402Z</time>
      </trkpt>
      <trkpt lat="46.85498" lon="8.48832">
        <ele>2478</ele>
        <time>2021-08-12T09:46:53.401Z</time>
      </trkpt>
      <trkpt lat="46.85498" lon="8.48832">
        <ele>2477</ele>
        <time>2021-08-12T09:46:54.402Z</time>
      </trkpt>
      <trkpt lat="46.85498" lon="8.48832">
        <ele>2477</ele>
        <time>2021-08-12T09:46:55.401Z</time>
      </trkpt>
      <trkpt lat="46.85496" lon="8.48832">
        <ele>2475</ele>
        <time>2021-08-12T09:46:56.401Z</time>
      </trkpt>
      <trkpt lat="46.85495" lon="8.48831">
        <ele>2475</ele>
        <time>2021-08-12T09:46:57.402Z</time>
      </trkpt>
      <trkpt lat="46.85494" lon="8.4883">
        <ele>2475</ele>
        <time>2021-08-12T09:46:58.401Z</time>
      </trkpt>
      <trkpt lat="46.85494" lon="8.48829">
        <ele>2471</ele>
        <time>2021-08-12T09:46:59.404Z</time>
      </trkpt>
      <trkpt lat="46.85493" lon="8.48829">
        <ele>2471</ele>
        <time>2021-08-12T09:47:00.403Z</time>
      </trkpt>
      <trkpt lat="46.85492" lon="8.48829">
        <ele>2470</ele>
        <time>2021-08-12T09:47:01.403Z</time>
      </trkpt>
      <trkpt lat="46.85492" lon="8.48829">
        <ele>2469</ele>
        <time>2021-08-12T09:47:02.404Z</time>
      </trkpt>
      <trkpt lat="46.8549" lon="8.48829">
        <ele>2468</ele>
        <time>2021-08-12T09:47:03.404Z</time>
      </trkpt>
      <trkpt lat="46.85489" lon="8.48829">
        <ele>2468</ele>
        <time>2021-08-12T09:47:04.404Z</time>
      </trkpt>
      <trkpt lat="46.85489" lon="8.4883">
        <ele>2467</ele>
        <time>2021-08-12T09:47:05.404Z</time>
      </trkpt>
      <trkpt lat="46.85489" lon="8.48831">
        <ele>2467</ele>
        <time>2021-08-12T09:47:06.404Z</time>
      </trkpt>
      <trkpt lat="46.85489" lon="8.48832">
        <ele>2468</ele>
        <time>2021-08-12T09:47:07.403Z</time>
      </trkpt>
      <trkpt lat="46.85489" lon="8.48833">
        <ele>2468</ele>
        <time>2021-08-12T09:47:08.403Z</time>
      </trkpt>
      <trkpt lat="46.85489" lon="8.48834">
        <ele>2468</ele>
        <time>2021-08-12T09:47:09.404Z</time>
      </trkpt>
      <trkpt lat="46.85489" lon="8.48835">
        <ele>2468</ele>
        <time>2021-08-12T09:47:10.404Z</time>
      </trkpt>
      <trkpt lat="46.85489" lon="8.48836">
        <ele>2469</ele>
        <time>2021-08-12T09:47:11.404Z</time>
      </trkpt>
      <trkpt lat="46.8549" lon="8.48838">
        <ele>2470</ele>
        <time>2021-08-12T09:47:12.403Z</time>
      </trkpt>
      <trkpt lat="46.8549" lon="8.48839">
        <ele>2472</ele>
        <time>2021-08-12T09:47:13.404Z</time>
      </trkpt>
      <trkpt lat="46.8549" lon="8.48841">
        <ele>2473</ele>
        <time>2021-08-12T09:47:14.404Z</time>
      </trkpt>
      <trkpt lat="46.8549" lon="8.48842">
        <ele>2474</ele>
        <time>2021-08-12T09:47:15.403Z</time>
      </trkpt>
      <trkpt lat="46.8549" lon="8.48844">
        <ele>2476</ele>
        <time>2021-08-12T09:47:16.403Z</time>
      </trkpt>
      <trkpt lat="46.85491" lon="8.48845">
        <ele>2477</ele>
        <time>2021-08-12T09:47:17.404Z</time>
      </trkpt>
      <trkpt lat="46.85492" lon="8.48845">
        <ele>2478</ele>
        <time>2021-08-12T09:47:18.404Z</time>
      </trkpt>
      <trkpt lat="46.85491" lon="8.48845">
        <ele>2479</ele>
        <time>2021-08-12T09:47:19.404Z</time>
      </trkpt>
      <trkpt lat="46.85492" lon="8.48847">
        <ele>2480</ele>
        <time>2021-08-12T09:47:20.403Z</time>
      </trkpt>
      <trkpt lat="46.85491" lon="8.48846">
        <ele>2480</ele>
        <time>2021-08-12T09:47:21.403Z</time>
      </trkpt>
      <trkpt lat="46.85491" lon="8.48847">
        <ele>2481</ele>
        <time>2021-08-12T09:47:22.404Z</time>
      </trkpt>
      <trkpt lat="46.8549" lon="8.48847">
        <ele>2482</ele>
        <time>2021-08-12T09:47:23.403Z</time>
      </trkpt>
      <trkpt lat="46.8549" lon="8.48847">
        <ele>2483</ele>
        <time>2021-08-12T09:47:24.404Z</time>
      </trkpt>
      <trkpt lat="46.8549" lon="8.48847">
        <ele>2483</ele>
        <time>2021-08-12T09:47:25.403Z</time>
      </trkpt>
      <trkpt lat="46.85489" lon="8.48848">
        <ele>2484</ele>
        <time>2021-08-12T09:47:26.403Z</time>
      </trkpt>
      <trkpt lat="46.85489" lon="8.48848">
        <ele>2484</ele>
        <time>2021-08-12T09:47:27.403Z</time>
      </trkpt>
      <trkpt lat="46.85488" lon="8.48848">
        <ele>2485</ele>
        <time>2021-08-12T09:47:28.403Z</time>
      </trkpt>
      <trkpt lat="46.85488" lon="8.48848">
        <ele>2485</ele>
        <time>2021-08-12T09:47:29.403Z</time>
      </trkpt>
      <trkpt lat="46.85488" lon="8.48847">
        <ele>2485</ele>
        <time>2021-08-12T09:47:30.405Z</time>
      </trkpt>
      <trkpt lat="46.85488" lon="8.48848">
        <ele>2482</ele>
        <time>2021-08-12T09:47:31.405Z</time>
      </trkpt>
      <trkpt lat="46.85487" lon="8.48849">
        <ele>2483</ele>
        <time>2021-08-12T09:47:32.405Z</time>
      </trkpt>
      <trkpt lat="46.85487" lon="8.4885">
        <ele>2483</ele>
        <time>2021-08-12T09:47:33.404Z</time>
      </trkpt>
      <trkpt lat="46.85487" lon="8.48851">
        <ele>2484</ele>
        <time>2021-08-12T09:47:34.405Z</time>
      </trkpt>
      <trkpt lat="46.85487" lon="8.48852">
        <ele>2484</ele>
        <time>2021-08-12T09:47:35.404Z</time>
      </trkpt>
      <trkpt lat="46.85487" lon="8.48852">
        <ele>2484</ele>
        <time>2021-08-12T09:47:36.405Z</time>
      </trkpt>
      <trkpt lat="46.85487" lon="8.48851">
        <ele>2483</ele>
        <time>2021-08-12T09:47:37.406Z</time>
      </trkpt>
      <trkpt lat="46.85487" lon="8.48852">
        <ele>2483</ele>
        <time>2021-08-12T09:47:38.405Z</time>
      </trkpt>
      <trkpt lat="46.85487" lon="8.48853">
        <ele>2483</ele>
        <time>2021-08-12T09:47:39.405Z</time>
      </trkpt>
      <trkpt lat="46.85487" lon="8.48854">
        <ele>2482</ele>
        <time>2021-08-12T09:47:40.406Z</time>
      </trkpt>
      <trkpt lat="46.85487" lon="8.48855">
        <ele>2482</ele>
        <time>2021-08-12T09:47:41.406Z</time>
      </trkpt>
      <trkpt lat="46.85487" lon="8.48856">
        <ele>2482</ele>
        <time>2021-08-12T09:47:42.406Z</time>
      </trkpt>
      <trkpt lat="46.85487" lon="8.48857">
        <ele>2482</ele>
        <time>2021-08-12T09:47:43.405Z</time>
      </trkpt>
      <trkpt lat="46.85486" lon="8.48858">
        <ele>2482</ele>
        <time>2021-08-12T09:47:44.406Z</time>
      </trkpt>
      <trkpt lat="46.85486" lon="8.48858">
        <ele>2482</ele>
        <time>2021-08-12T09:47:45.405Z</time>
      </trkpt>
      <trkpt lat="46.85486" lon="8.48859">
        <ele>2483</ele>
        <time>2021-08-12T09:47:46.406Z</time>
      </trkpt>
      <trkpt lat="46.85487" lon="8.4886">
        <ele>2483</ele>
        <time>2021-08-12T09:47:47.405Z</time>
      </trkpt>
      <trkpt lat="46.85487" lon="8.48861">
        <ele>2483</ele>
        <time>2021-08-12T09:47:48.406Z</time>
      </trkpt>
      <trkpt lat="46.85487" lon="8.48862">
        <ele>2483</ele>
        <time>2021-08-12T09:47:49.406Z</time>
      </trkpt>
      <trkpt lat="46.85486" lon="8.48863">
        <ele>2483</ele>
        <time>2021-08-12T09:47:50.406Z</time>
      </trkpt>
      <trkpt lat="46.85486" lon="8.48864">
        <ele>2483</ele>
        <time>2021-08-12T09:47:51.406Z</time>
      </trkpt>
      <trkpt lat="46.85486" lon="8.48864">
        <ele>2482</ele>
        <time>2021-08-12T09:47:52.405Z</time>
      </trkpt>
      <trkpt lat="46.85486" lon="8.48865">
        <ele>2482</ele>
        <time>2021-08-12T09:47:53.406Z</time>
      </trkpt>
      <trkpt lat="46.85486" lon="8.48865">
        <ele>2482</ele>
        <time>2021-08-12T09:47:54.406Z</time>
      </trkpt>
      <trkpt lat="46.85486" lon="8.48866">
        <ele>2481</ele>
        <time>2021-08-12T09:47:55.406Z</time>
      </trkpt>
      <trkpt lat="46.85486" lon="8.48867">
        <ele>2479</ele>
        <time>2021-08-12T09:47:56.406Z</time>
      </trkpt>
      <trkpt lat="46.85486" lon="8.48867">
        <ele>2479</ele>
        <time>2021-08-12T09:47:57.406Z</time>
      </trkpt>
      <trkpt lat="46.85486" lon="8.48867">
        <ele>2478</ele>
        <time>2021-08-12T09:47:58.406Z</time>
      </trkpt>
      <trkpt lat="46.85486" lon="8.48867">
        <ele>2478</ele>
        <time>2021-08-12T09:47:59.406Z</time>
      </trkpt>
      <trkpt lat="46.85487" lon="8.48867">
        <ele>2478</ele>
        <time>2021-08-12T09:48:00.406Z</time>
      </trkpt>
      <trkpt lat="46.85488" lon="8.48866">
        <ele>2477</ele>
        <time>2021-08-12T09:48:01.406Z</time>
      </trkpt>
      <trkpt lat="46.85489" lon="8.48866">
        <ele>2477</ele>
        <time>2021-08-12T09:48:02.406Z</time>
      </trkpt>
      <trkpt lat="46.8549" lon="8.48867">
        <ele>2477</ele>
        <time>2021-08-12T09:48:03.406Z</time>
      </trkpt>
      <trkpt lat="46.8549" lon="8.48866">
        <ele>2477</ele>
        <time>2021-08-12T09:48:04.406Z</time>
      </trkpt>
      <trkpt lat="46.8549" lon="8.48866">
        <ele>2477</ele>
        <time>2021-08-12T09:48:05.405Z</time>
      </trkpt>
      <trkpt lat="46.85489" lon="8.48866">
        <ele>2477</ele>
        <time>2021-08-12T09:48:06.405Z</time>
      </trkpt>
      <trkpt lat="46.8549" lon="8.48863">
        <ele>2464</ele>
        <time>2021-08-12T09:48:07.406Z</time>
      </trkpt>
      <trkpt lat="46.85489" lon="8.48863">
        <ele>2463</ele>
        <time>2021-08-12T09:48:08.406Z</time>
      </trkpt>
      <trkpt lat="46.85489" lon="8.48863">
        <ele>2463</ele>
        <time>2021-08-12T09:48:09.405Z</time>
      </trkpt>
      <trkpt lat="46.85489" lon="8.48863">
        <ele>2463</ele>
        <time>2021-08-12T09:48:10.406Z</time>
      </trkpt>
      <trkpt lat="46.85489" lon="8.48863">
        <ele>2463</ele>
        <time>2021-08-12T09:48:11.405Z</time>
      </trkpt>
      <trkpt lat="46.85489" lon="8.48863">
        <ele>2463</ele>
        <time>2021-08-12T09:48:12.406Z</time>
      </trkpt>
      <trkpt lat="46.85489" lon="8.48864">
        <ele>2464</ele>
        <time>2021-08-12T09:48:13.406Z</time>
      </trkpt>
      <trkpt lat="46.85489" lon="8.48864">
        <ele>2465</ele>
        <time>2021-08-12T09:48:14.406Z</time>
      </trkpt>
      <trkpt lat="46.85489" lon="8.48865">
        <ele>2465</ele>
        <time>2021-08-12T09:48:15.406Z</time>
      </trkpt>
      <trkpt lat="46.85489" lon="8.48864">
        <ele>2465</ele>
        <time>2021-08-12T09:48:16.406Z</time>
      </trkpt>
      <trkpt lat="46.85486" lon="8.48862">
        <ele>2466</ele>
        <time>2021-08-12T09:48:17.407Z</time>
      </trkpt>
      <trkpt lat="46.85485" lon="8.48862">
        <ele>2465</ele>
        <time>2021-08-12T09:48:18.407Z</time>
      </trkpt>
      <trkpt lat="46.85485" lon="8.48862">
        <ele>2465</ele>
        <time>2021-08-12T09:48:19.406Z</time>
      </trkpt>
      <trkpt lat="46.85487" lon="8.48858">
        <ele>2463</ele>
        <time>2021-08-12T09:48:20.407Z</time>
      </trkpt>
      <trkpt lat="46.85487" lon="8.48858">
        <ele>2463</ele>
        <time>2021-08-12T09:48:21.408Z</time>
      </trkpt>
      <trkpt lat="46.85487" lon="8.48859">
        <ele>2463</ele>
        <time>2021-08-12T09:48:22.408Z</time>
      </trkpt>
      <trkpt lat="46.85486" lon="8.48859">
        <ele>2463</ele>
        <time>2021-08-12T09:48:23.408Z</time>
      </trkpt>
      <trkpt lat="46.85485" lon="8.4886">
        <ele>2463</ele>
        <time>2021-08-12T09:48:24.408Z</time>
      </trkpt>
      <trkpt lat="46.85484" lon="8.48859">
        <ele>2463</ele>
        <time>2021-08-12T09:48:25.408Z</time>
      </trkpt>
      <trkpt lat="46.85483" lon="8.48858">
        <ele>2463</ele>
        <time>2021-08-12T09:48:26.407Z</time>
      </trkpt>
      <trkpt lat="46.85483" lon="8.48858">
        <ele>2463</ele>
        <time>2021-08-12T09:48:27.407Z</time>
      </trkpt>
      <trkpt lat="46.85483" lon="8.48858">
        <ele>2463</ele>
        <time>2021-08-12T09:48:28.408Z</time>
      </trkpt>
      <trkpt lat="46.85488" lon="8.48857">
        <ele>2473</ele>
        <time>2021-08-12T09:48:29.408Z</time>
      </trkpt>
      <trkpt lat="46.85489" lon="8.48858">
        <ele>2475</ele>
        <time>2021-08-12T09:48:30.408Z</time>
      </trkpt>
      <trkpt lat="46.85489" lon="8.48858">
        <ele>2476</ele>
        <time>2021-08-12T09:48:31.409Z</time>
      </trkpt>
      <trkpt lat="46.85489" lon="8.48858">
        <ele>2478</ele>
        <time>2021-08-12T09:48:32.409Z</time>
      </trkpt>
      <trkpt lat="46.8549" lon="8.48859">
        <ele>2486</ele>
        <time>2021-08-12T09:48:33.410Z</time>
      </trkpt>
      <trkpt lat="46.8549" lon="8.48859">
        <ele>2486</ele>
        <time>2021-08-12T09:48:34.409Z</time>
      </trkpt>
      <trkpt lat="46.85489" lon="8.4886">
        <ele>2488</ele>
        <time>2021-08-12T09:48:35.411Z</time>
      </trkpt>
      <trkpt lat="46.85488" lon="8.4886">
        <ele>2490</ele>
        <time>2021-08-12T09:48:36.410Z</time>
      </trkpt>
      <trkpt lat="46.85488" lon="8.48861">
        <ele>2491</ele>
        <time>2021-08-12T09:48:37.410Z</time>
      </trkpt>
      <trkpt lat="46.85486" lon="8.48864">
        <ele>2496</ele>
        <time>2021-08-12T09:48:38.410Z</time>
      </trkpt>
      <trkpt lat="46.85482" lon="8.48861">
        <ele>2498</ele>
        <time>2021-08-12T09:48:39.411Z</time>
      </trkpt>
      <trkpt lat="46.85481" lon="8.48862">
        <ele>2497</ele>
        <time>2021-08-12T09:48:40.411Z</time>
      </trkpt>
      <trkpt lat="46.85481" lon="8.48863">
        <ele>2497</ele>
        <time>2021-08-12T09:48:41.411Z</time>
      </trkpt>
      <trkpt lat="46.85482" lon="8.48864">
        <ele>2496</ele>
        <time>2021-08-12T09:48:42.411Z</time>
      </trkpt>
      <trkpt lat="46.85482" lon="8.48866">
        <ele>2496</ele>
        <time>2021-08-12T09:48:43.410Z</time>
      </trkpt>
      <trkpt lat="46.85481" lon="8.48867">
        <ele>2496</ele>
        <time>2021-08-12T09:48:44.410Z</time>
      </trkpt>
      <trkpt lat="46.85481" lon="8.48868">
        <ele>2495</ele>
        <time>2021-08-12T09:48:45.410Z</time>
      </trkpt>
      <trkpt lat="46.85481" lon="8.48869">
        <ele>2495</ele>
        <time>2021-08-12T09:48:46.410Z</time>
      </trkpt>
      <trkpt lat="46.85481" lon="8.4887">
        <ele>2495</ele>
        <time>2021-08-12T09:48:47.410Z</time>
      </trkpt>
      <trkpt lat="46.85481" lon="8.4887">
        <ele>2494</ele>
        <time>2021-08-12T09:48:48.410Z</time>
      </trkpt>
      <trkpt lat="46.85481" lon="8.48871">
        <ele>2493</ele>
        <time>2021-08-12T09:48:49.410Z</time>
      </trkpt>
      <trkpt lat="46.8548" lon="8.48872">
        <ele>2493</ele>
        <time>2021-08-12T09:48:50.411Z</time>
      </trkpt>
      <trkpt lat="46.8548" lon="8.48873">
        <ele>2492</ele>
        <time>2021-08-12T09:48:51.411Z</time>
      </trkpt>
      <trkpt lat="46.8548" lon="8.48875">
        <ele>2493</ele>
        <time>2021-08-12T09:48:52.410Z</time>
      </trkpt>
      <trkpt lat="46.8548" lon="8.48877">
        <ele>2493</ele>
        <time>2021-08-12T09:48:53.411Z</time>
      </trkpt>
      <trkpt lat="46.85479" lon="8.48878">
        <ele>2493</ele>
        <time>2021-08-12T09:48:54.411Z</time>
      </trkpt>
      <trkpt lat="46.85478" lon="8.48878">
        <ele>2493</ele>
        <time>2021-08-12T09:48:55.411Z</time>
      </trkpt>
      <trkpt lat="46.85478" lon="8.48879">
        <ele>2493</ele>
        <time>2021-08-12T09:48:56.411Z</time>
      </trkpt>
      <trkpt lat="46.85477" lon="8.4888">
        <ele>2493</ele>
        <time>2021-08-12T09:48:57.411Z</time>
      </trkpt>
      <trkpt lat="46.85476" lon="8.48882">
        <ele>2493</ele>
        <time>2021-08-12T09:48:58.410Z</time>
      </trkpt>
      <trkpt lat="46.85476" lon="8.48883">
        <ele>2493</ele>
        <time>2021-08-12T09:48:59.411Z</time>
      </trkpt>
      <trkpt lat="46.85476" lon="8.48884">
        <ele>2493</ele>
        <time>2021-08-12T09:49:00.411Z</time>
      </trkpt>
      <trkpt lat="46.85475" lon="8.48883">
        <ele>2492</ele>
        <time>2021-08-12T09:49:01.411Z</time>
      </trkpt>
      <trkpt lat="46.85475" lon="8.48884">
        <ele>2492</ele>
        <time>2021-08-12T09:49:02.411Z</time>
      </trkpt>
      <trkpt lat="46.85475" lon="8.48885">
        <ele>2492</ele>
        <time>2021-08-12T09:49:03.411Z</time>
      </trkpt>
      <trkpt lat="46.85475" lon="8.48886">
        <ele>2492</ele>
        <time>2021-08-12T09:49:04.411Z</time>
      </trkpt>
      <trkpt lat="46.85475" lon="8.48887">
        <ele>2492</ele>
        <time>2021-08-12T09:49:05.411Z</time>
      </trkpt>
      <trkpt lat="46.85477" lon="8.48888">
        <ele>2491</ele>
        <time>2021-08-12T09:49:06.411Z</time>
      </trkpt>
      <trkpt lat="46.85476" lon="8.48889">
        <ele>2491</ele>
        <time>2021-08-12T09:49:07.411Z</time>
      </trkpt>
      <trkpt lat="46.85475" lon="8.48889">
        <ele>2491</ele>
        <time>2021-08-12T09:49:08.411Z</time>
      </trkpt>
      <trkpt lat="46.85475" lon="8.48889">
        <ele>2491</ele>
        <time>2021-08-12T09:49:09.410Z</time>
      </trkpt>
      <trkpt lat="46.85473" lon="8.48888">
        <ele>2490</ele>
        <time>2021-08-12T09:49:10.411Z</time>
      </trkpt>
      <trkpt lat="46.85472" lon="8.48889">
        <ele>2489</ele>
        <time>2021-08-12T09:49:11.411Z</time>
      </trkpt>
      <trkpt lat="46.85471" lon="8.48889">
        <ele>2489</ele>
        <time>2021-08-12T09:49:12.410Z</time>
      </trkpt>
      <trkpt lat="46.85471" lon="8.48889">
        <ele>2488</ele>
        <time>2021-08-12T09:49:13.411Z</time>
      </trkpt>
      <trkpt lat="46.8547" lon="8.48889">
        <ele>2488</ele>
        <time>2021-08-12T09:49:14.411Z</time>
      </trkpt>
      <trkpt lat="46.85469" lon="8.4889">
        <ele>2488</ele>
        <time>2021-08-12T09:49:15.411Z</time>
      </trkpt>
      <trkpt lat="46.85468" lon="8.48891">
        <ele>2488</ele>
        <time>2021-08-12T09:49:16.411Z</time>
      </trkpt>
      <trkpt lat="46.85468" lon="8.48891">
        <ele>2487</ele>
        <time>2021-08-12T09:49:17.411Z</time>
      </trkpt>
      <trkpt lat="46.85467" lon="8.48892">
        <ele>2487</ele>
        <time>2021-08-12T09:49:18.410Z</time>
      </trkpt>
      <trkpt lat="46.85467" lon="8.48892">
        <ele>2486</ele>
        <time>2021-08-12T09:49:19.410Z</time>
      </trkpt>
      <trkpt lat="46.85466" lon="8.48893">
        <ele>2486</ele>
        <time>2021-08-12T09:49:20.411Z</time>
      </trkpt>
      <trkpt lat="46.85466" lon="8.48894">
        <ele>2486</ele>
        <time>2021-08-12T09:49:21.411Z</time>
      </trkpt>
      <trkpt lat="46.85465" lon="8.48894">
        <ele>2485</ele>
        <time>2021-08-12T09:49:22.411Z</time>
      </trkpt>
      <trkpt lat="46.85465" lon="8.48894">
        <ele>2485</ele>
        <time>2021-08-12T09:49:23.411Z</time>
      </trkpt>
      <trkpt lat="46.85464" lon="8.48894">
        <ele>2484</ele>
        <time>2021-08-12T09:49:24.411Z</time>
      </trkpt>
      <trkpt lat="46.85464" lon="8.48894">
        <ele>2483</ele>
        <time>2021-08-12T09:49:25.410Z</time>
      </trkpt>
      <trkpt lat="46.85464" lon="8.48895">
        <ele>2483</ele>
        <time>2021-08-12T09:49:26.411Z</time>
      </trkpt>
      <trkpt lat="46.85465" lon="8.48895">
        <ele>2482</ele>
        <time>2021-08-12T09:49:27.411Z</time>
      </trkpt>
      <trkpt lat="46.85466" lon="8.48896">
        <ele>2481</ele>
        <time>2021-08-12T09:49:28.412Z</time>
      </trkpt>
      <trkpt lat="46.85467" lon="8.48897">
        <ele>2481</ele>
        <time>2021-08-12T09:49:29.411Z</time>
      </trkpt>
      <trkpt lat="46.85467" lon="8.48897">
        <ele>2481</ele>
        <time>2021-08-12T09:49:30.412Z</time>
      </trkpt>
      <trkpt lat="46.85469" lon="8.48897">
        <ele>2482</ele>
        <time>2021-08-12T09:49:31.411Z</time>
      </trkpt>
      <trkpt lat="46.8547" lon="8.48897">
        <ele>2484</ele>
        <time>2021-08-12T09:49:32.412Z</time>
      </trkpt>
      <trkpt lat="46.85471" lon="8.48897">
        <ele>2485</ele>
        <time>2021-08-12T09:49:33.411Z</time>
      </trkpt>
      <trkpt lat="46.85477" lon="8.489">
        <ele>2494</ele>
        <time>2021-08-12T09:49:34.412Z</time>
      </trkpt>
      <trkpt lat="46.85477" lon="8.489">
        <ele>2494</ele>
        <time>2021-08-12T09:49:35.411Z</time>
      </trkpt>
      <trkpt lat="46.85477" lon="8.48901">
        <ele>2495</ele>
        <time>2021-08-12T09:49:36.411Z</time>
      </trkpt>
      <trkpt lat="46.85477" lon="8.48903">
        <ele>2495</ele>
        <time>2021-08-12T09:49:37.412Z</time>
      </trkpt>
      <trkpt lat="46.85477" lon="8.48904">
        <ele>2495</ele>
        <time>2021-08-12T09:49:38.412Z</time>
      </trkpt>
      <trkpt lat="46.85477" lon="8.48905">
        <ele>2496</ele>
        <time>2021-08-12T09:49:39.411Z</time>
      </trkpt>
      <trkpt lat="46.85477" lon="8.48905">
        <ele>2496</ele>
        <time>2021-08-12T09:49:40.411Z</time>
      </trkpt>
      <trkpt lat="46.85477" lon="8.48904">
        <ele>2497</ele>
        <time>2021-08-12T09:49:41.412Z</time>
      </trkpt>
      <trkpt lat="46.85477" lon="8.48904">
        <ele>2497</ele>
        <time>2021-08-12T09:49:42.412Z</time>
      </trkpt>
      <trkpt lat="46.85477" lon="8.48904">
        <ele>2497</ele>
        <time>2021-08-12T09:49:43.411Z</time>
      </trkpt>
      <trkpt lat="46.85477" lon="8.48904">
        <ele>2496</ele>
        <time>2021-08-12T09:49:44.412Z</time>
      </trkpt>
      <trkpt lat="46.85478" lon="8.48905">
        <ele>2496</ele>
        <time>2021-08-12T09:49:45.412Z</time>
      </trkpt>
      <trkpt lat="46.85479" lon="8.48906">
        <ele>2495</ele>
        <time>2021-08-12T09:49:46.412Z</time>
      </trkpt>
      <trkpt lat="46.85475" lon="8.48904">
        <ele>2496</ele>
        <time>2021-08-12T09:49:47.411Z</time>
      </trkpt>
      <trkpt lat="46.85473" lon="8.48901">
        <ele>2496</ele>
        <time>2021-08-12T09:49:48.411Z</time>
      </trkpt>
      <trkpt lat="46.85473" lon="8.48902">
        <ele>2496</ele>
        <time>2021-08-12T09:49:49.411Z</time>
      </trkpt>
      <trkpt lat="46.85475" lon="8.48903">
        <ele>2497</ele>
        <time>2021-08-12T09:49:50.411Z</time>
      </trkpt>
      <trkpt lat="46.85475" lon="8.48903">
        <ele>2498</ele>
        <time>2021-08-12T09:49:51.411Z</time>
      </trkpt>
      <trkpt lat="46.85476" lon="8.48904">
        <ele>2499</ele>
        <time>2021-08-12T09:49:52.412Z</time>
      </trkpt>
      <trkpt lat="46.85476" lon="8.48905">
        <ele>2499</ele>
        <time>2021-08-12T09:49:53.412Z</time>
      </trkpt>
      <trkpt lat="46.85478" lon="8.48908">
        <ele>2499</ele>
        <time>2021-08-12T09:49:54.413Z</time>
      </trkpt>
      <trkpt lat="46.85477" lon="8.48907">
        <ele>2499</ele>
        <time>2021-08-12T09:49:55.413Z</time>
      </trkpt>
      <trkpt lat="46.85476" lon="8.48907">
        <ele>2499</ele>
        <time>2021-08-12T09:49:56.412Z</time>
      </trkpt>
      <trkpt lat="46.85476" lon="8.48906">
        <ele>2499</ele>
        <time>2021-08-12T09:49:57.413Z</time>
      </trkpt>
      <trkpt lat="46.85474" lon="8.48906">
        <ele>2499</ele>
        <time>2021-08-12T09:49:58.412Z</time>
      </trkpt>
      <trkpt lat="46.85474" lon="8.48906">
        <ele>2498</ele>
        <time>2021-08-12T09:49:59.413Z</time>
      </trkpt>
      <trkpt lat="46.85474" lon="8.48906">
        <ele>2498</ele>
        <time>2021-08-12T09:50:00.412Z</time>
      </trkpt>
      <trkpt lat="46.85473" lon="8.48907">
        <ele>2497</ele>
        <time>2021-08-12T09:50:01.413Z</time>
      </trkpt>
      <trkpt lat="46.85473" lon="8.48907">
        <ele>2497</ele>
        <time>2021-08-12T09:50:02.413Z</time>
      </trkpt>
      <trkpt lat="46.85473" lon="8.48907">
        <ele>2497</ele>
        <time>2021-08-12T09:50:03.413Z</time>
      </trkpt>
      <trkpt lat="46.85473" lon="8.48907">
        <ele>2497</ele>
        <time>2021-08-12T09:50:04.413Z</time>
      </trkpt>
      <trkpt lat="46.85472" lon="8.48908">
        <ele>2496</ele>
        <time>2021-08-12T09:50:05.412Z</time>
      </trkpt>
      <trkpt lat="46.85471" lon="8.48908">
        <ele>2496</ele>
        <time>2021-08-12T09:50:06.413Z</time>
      </trkpt>
      <trkpt lat="46.85471" lon="8.48907">
        <ele>2495</ele>
        <time>2021-08-12T09:50:07.413Z</time>
      </trkpt>
      <trkpt lat="46.8547" lon="8.48907">
        <ele>2495</ele>
        <time>2021-08-12T09:50:08.412Z</time>
      </trkpt>
      <trkpt lat="46.8547" lon="8.48908">
        <ele>2495</ele>
        <time>2021-08-12T09:50:09.413Z</time>
      </trkpt>
      <trkpt lat="46.85469" lon="8.48908">
        <ele>2495</ele>
        <time>2021-08-12T09:50:10.412Z</time>
      </trkpt>
      <trkpt lat="46.85469" lon="8.48908">
        <ele>2495</ele>
        <time>2021-08-12T09:50:11.412Z</time>
      </trkpt>
      <trkpt lat="46.8547" lon="8.48908">
        <ele>2495</ele>
        <time>2021-08-12T09:50:12.413Z</time>
      </trkpt>
      <trkpt lat="46.8547" lon="8.48908">
        <ele>2495</ele>
        <time>2021-08-12T09:50:13.413Z</time>
      </trkpt>
      <trkpt lat="46.85469" lon="8.48906">
        <ele>2495</ele>
        <time>2021-08-12T09:50:14.413Z</time>
      </trkpt>
      <trkpt lat="46.8547" lon="8.48901">
        <ele>2495</ele>
        <time>2021-08-12T09:50:15.415Z</time>
      </trkpt>
      <trkpt lat="46.8547" lon="8.489">
        <ele>2495</ele>
        <time>2021-08-12T09:50:16.415Z</time>
      </trkpt>
      <trkpt lat="46.8547" lon="8.489">
        <ele>2495</ele>
        <time>2021-08-12T09:50:17.415Z</time>
      </trkpt>
      <trkpt lat="46.85471" lon="8.48899">
        <ele>2495</ele>
        <time>2021-08-12T09:50:18.415Z</time>
      </trkpt>
      <trkpt lat="46.85471" lon="8.48898">
        <ele>2495</ele>
        <time>2021-08-12T09:50:19.415Z</time>
      </trkpt>
      <trkpt lat="46.85471" lon="8.48897">
        <ele>2494</ele>
        <time>2021-08-12T09:50:20.415Z</time>
      </trkpt>
      <trkpt lat="46.85471" lon="8.48896">
        <ele>2495</ele>
        <time>2021-08-12T09:50:21.415Z</time>
      </trkpt>
      <trkpt lat="46.85471" lon="8.48895">
        <ele>2495</ele>
        <time>2021-08-12T09:50:22.415Z</time>
      </trkpt>
      <trkpt lat="46.85471" lon="8.48894">
        <ele>2495</ele>
        <time>2021-08-12T09:50:23.415Z</time>
      </trkpt>
      <trkpt lat="46.85471" lon="8.48893">
        <ele>2495</ele>
        <time>2021-08-12T09:50:24.415Z</time>
      </trkpt>
      <trkpt lat="46.85471" lon="8.48892">
        <ele>2496</ele>
        <time>2021-08-12T09:50:25.415Z</time>
      </trkpt>
      <trkpt lat="46.85471" lon="8.48891">
        <ele>2496</ele>
        <time>2021-08-12T09:50:26.415Z</time>
      </trkpt>
      <trkpt lat="46.85471" lon="8.48891">
        <ele>2496</ele>
        <time>2021-08-12T09:50:27.415Z</time>
      </trkpt>
      <trkpt lat="46.85471" lon="8.48891">
        <ele>2497</ele>
        <time>2021-08-12T09:50:28.415Z</time>
      </trkpt>
      <trkpt lat="46.85474" lon="8.48892">
        <ele>2498</ele>
        <time>2021-08-12T09:50:29.415Z</time>
      </trkpt>
      <trkpt lat="46.85474" lon="8.48893">
        <ele>2498</ele>
        <time>2021-08-12T09:50:30.416Z</time>
      </trkpt>
      <trkpt lat="46.85473" lon="8.48893">
        <ele>2498</ele>
        <time>2021-08-12T09:50:31.415Z</time>
      </trkpt>
      <trkpt lat="46.85473" lon="8.48892">
        <ele>2498</ele>
        <time>2021-08-12T09:50:32.415Z</time>
      </trkpt>
      <trkpt lat="46.85472" lon="8.48892">
        <ele>2498</ele>
        <time>2021-08-12T09:50:33.416Z</time>
      </trkpt>
      <trkpt lat="46.85472" lon="8.48892">
        <ele>2498</ele>
        <time>2021-08-12T09:50:34.416Z</time>
      </trkpt>
      <trkpt lat="46.85471" lon="8.48891">
        <ele>2498</ele>
        <time>2021-08-12T09:50:35.415Z</time>
      </trkpt>
      <trkpt lat="46.8547" lon="8.4889">
        <ele>2498</ele>
        <time>2021-08-12T09:50:36.416Z</time>
      </trkpt>
      <trkpt lat="46.8547" lon="8.48891">
        <ele>2497</ele>
        <time>2021-08-12T09:50:37.415Z</time>
      </trkpt>
      <trkpt lat="46.8547" lon="8.4889">
        <ele>2497</ele>
        <time>2021-08-12T09:50:38.415Z</time>
      </trkpt>
      <trkpt lat="46.8547" lon="8.4889">
        <ele>2497</ele>
        <time>2021-08-12T09:50:39.415Z</time>
      </trkpt>
      <trkpt lat="46.8547" lon="8.48889">
        <ele>2496</ele>
        <time>2021-08-12T09:50:40.415Z</time>
      </trkpt>
      <trkpt lat="46.8547" lon="8.48888">
        <ele>2496</ele>
        <time>2021-08-12T09:50:41.415Z</time>
      </trkpt>
      <trkpt lat="46.8547" lon="8.48887">
        <ele>2495</ele>
        <time>2021-08-12T09:50:42.416Z</time>
      </trkpt>
      <trkpt lat="46.8547" lon="8.48886">
        <ele>2495</ele>
        <time>2021-08-12T09:50:43.415Z</time>
      </trkpt>
      <trkpt lat="46.85469" lon="8.48884">
        <ele>2494</ele>
        <time>2021-08-12T09:50:44.415Z</time>
      </trkpt>
      <trkpt lat="46.85469" lon="8.48884">
        <ele>2494</ele>
        <time>2021-08-12T09:50:45.415Z</time>
      </trkpt>
      <trkpt lat="46.85469" lon="8.48883">
        <ele>2493</ele>
        <time>2021-08-12T09:50:46.416Z</time>
      </trkpt>
      <trkpt lat="46.85468" lon="8.48882">
        <ele>2493</ele>
        <time>2021-08-12T09:50:47.415Z</time>
      </trkpt>
      <trkpt lat="46.85467" lon="8.48881">
        <ele>2492</ele>
        <time>2021-08-12T09:50:48.415Z</time>
      </trkpt>
      <trkpt lat="46.85466" lon="8.48881">
        <ele>2492</ele>
        <time>2021-08-12T09:50:49.415Z</time>
      </trkpt>
      <trkpt lat="46.85465" lon="8.48881">
        <ele>2491</ele>
        <time>2021-08-12T09:50:50.416Z</time>
      </trkpt>
      <trkpt lat="46.85464" lon="8.4888">
        <ele>2491</ele>
        <time>2021-08-12T09:50:51.415Z</time>
      </trkpt>
      <trkpt lat="46.85463" lon="8.48879">
        <ele>2491</ele>
        <time>2021-08-12T09:50:52.415Z</time>
      </trkpt>
      <trkpt lat="46.85463" lon="8.48879">
        <ele>2490</ele>
        <time>2021-08-12T09:50:53.416Z</time>
      </trkpt>
      <trkpt lat="46.85463" lon="8.4888">
        <ele>2490</ele>
        <time>2021-08-12T09:50:54.415Z</time>
      </trkpt>
      <trkpt lat="46.85463" lon="8.48881">
        <ele>2490</ele>
        <time>2021-08-12T09:50:55.415Z</time>
      </trkpt>
      <trkpt lat="46.85463" lon="8.48881">
        <ele>2490</ele>
        <time>2021-08-12T09:50:56.415Z</time>
      </trkpt>
      <trkpt lat="46.85463" lon="8.48882">
        <ele>2490</ele>
        <time>2021-08-12T09:50:57.415Z</time>
      </trkpt>
      <trkpt lat="46.85462" lon="8.48881">
        <ele>2490</ele>
        <time>2021-08-12T09:50:58.415Z</time>
      </trkpt>
      <trkpt lat="46.85461" lon="8.4888">
        <ele>2490</ele>
        <time>2021-08-12T09:50:59.415Z</time>
      </trkpt>
      <trkpt lat="46.85461" lon="8.48879">
        <ele>2490</ele>
        <time>2021-08-12T09:51:00.416Z</time>
      </trkpt>
      <trkpt lat="46.8546" lon="8.48879">
        <ele>2490</ele>
        <time>2021-08-12T09:51:01.415Z</time>
      </trkpt>
      <trkpt lat="46.8546" lon="8.48879">
        <ele>2489</ele>
        <time>2021-08-12T09:51:02.416Z</time>
      </trkpt>
      <trkpt lat="46.85459" lon="8.48879">
        <ele>2489</ele>
        <time>2021-08-12T09:51:03.416Z</time>
      </trkpt>
      <trkpt lat="46.85459" lon="8.48879">
        <ele>2489</ele>
        <time>2021-08-12T09:51:04.415Z</time>
      </trkpt>
      <trkpt lat="46.85459" lon="8.48879">
        <ele>2489</ele>
        <time>2021-08-12T09:51:05.415Z</time>
      </trkpt>
      <trkpt lat="46.85457" lon="8.48884">
        <ele>2488</ele>
        <time>2021-08-12T09:51:06.416Z</time>
      </trkpt>
      <trkpt lat="46.85457" lon="8.48885">
        <ele>2488</ele>
        <time>2021-08-12T09:51:07.416Z</time>
      </trkpt>
      <trkpt lat="46.85458" lon="8.48885">
        <ele>2488</ele>
        <time>2021-08-12T09:51:08.417Z</time>
      </trkpt>
      <trkpt lat="46.85458" lon="8.48885">
        <ele>2488</ele>
        <time>2021-08-12T09:51:09.417Z</time>
      </trkpt>
      <trkpt lat="46.85458" lon="8.48885">
        <ele>2488</ele>
        <time>2021-08-12T09:51:10.416Z</time>
      </trkpt>
      <trkpt lat="46.85458" lon="8.48891">
        <ele>2504</ele>
        <time>2021-08-12T09:51:11.416Z</time>
      </trkpt>
      <trkpt lat="46.85459" lon="8.48892">
        <ele>2504</ele>
        <time>2021-08-12T09:51:12.417Z</time>
      </trkpt>
      <trkpt lat="46.85459" lon="8.48892">
        <ele>2504</ele>
        <time>2021-08-12T09:51:13.416Z</time>
      </trkpt>
      <trkpt lat="46.85458" lon="8.48893">
        <ele>2503</ele>
        <time>2021-08-12T09:51:14.417Z</time>
      </trkpt>
      <trkpt lat="46.85458" lon="8.48893">
        <ele>2503</ele>
        <time>2021-08-12T09:51:15.416Z</time>
      </trkpt>
      <trkpt lat="46.85458" lon="8.48894">
        <ele>2503</ele>
        <time>2021-08-12T09:51:16.416Z</time>
      </trkpt>
      <trkpt lat="46.85457" lon="8.48894">
        <ele>2503</ele>
        <time>2021-08-12T09:51:17.417Z</time>
      </trkpt>
      <trkpt lat="46.85457" lon="8.48895">
        <ele>2503</ele>
        <time>2021-08-12T09:51:18.417Z</time>
      </trkpt>
      <trkpt lat="46.85458" lon="8.48895">
        <ele>2504</ele>
        <time>2021-08-12T09:51:19.416Z</time>
      </trkpt>
      <trkpt lat="46.85458" lon="8.48896">
        <ele>2504</ele>
        <time>2021-08-12T09:51:20.416Z</time>
      </trkpt>
      <trkpt lat="46.85458" lon="8.48896">
        <ele>2504</ele>
        <time>2021-08-12T09:51:21.417Z</time>
      </trkpt>
      <trkpt lat="46.85459" lon="8.48894">
        <ele>2504</ele>
        <time>2021-08-12T09:51:22.417Z</time>
      </trkpt>
      <trkpt lat="46.85459" lon="8.48893">
        <ele>2504</ele>
        <time>2021-08-12T09:51:23.417Z</time>
      </trkpt>
      <trkpt lat="46.8546" lon="8.48892">
        <ele>2504</ele>
        <time>2021-08-12T09:51:24.417Z</time>
      </trkpt>
      <trkpt lat="46.8546" lon="8.48891">
        <ele>2504</ele>
        <time>2021-08-12T09:51:25.418Z</time>
      </trkpt>
      <trkpt lat="46.85459" lon="8.48891">
        <ele>2504</ele>
        <time>2021-08-12T09:51:26.417Z</time>
      </trkpt>
      <trkpt lat="46.85459" lon="8.4889">
        <ele>2504</ele>
        <time>2021-08-12T09:51:27.417Z</time>
      </trkpt>
      <trkpt lat="46.85461" lon="8.48888">
        <ele>2510</ele>
        <time>2021-08-12T09:51:28.417Z</time>
      </trkpt>
      <trkpt lat="46.85462" lon="8.48888">
        <ele>2511</ele>
        <time>2021-08-12T09:51:29.417Z</time>
      </trkpt>
      <trkpt lat="46.85464" lon="8.48889">
        <ele>2511</ele>
        <time>2021-08-12T09:51:30.417Z</time>
      </trkpt>
      <trkpt lat="46.85464" lon="8.48889">
        <ele>2512</ele>
        <time>2021-08-12T09:51:31.417Z</time>
      </trkpt>
      <trkpt lat="46.85465" lon="8.48889">
        <ele>2515</ele>
        <time>2021-08-12T09:51:32.419Z</time>
      </trkpt>
      <trkpt lat="46.85465" lon="8.48889">
        <ele>2515</ele>
        <time>2021-08-12T09:51:33.419Z</time>
      </trkpt>
      <trkpt lat="46.85463" lon="8.48888">
        <ele>2514</ele>
        <time>2021-08-12T09:51:34.419Z</time>
      </trkpt>
      <trkpt lat="46.85463" lon="8.48888">
        <ele>2514</ele>
        <time>2021-08-12T09:51:35.420Z</time>
      </trkpt>
      <trkpt lat="46.85463" lon="8.48888">
        <ele>2513</ele>
        <time>2021-08-12T09:51:36.419Z</time>
      </trkpt>
      <trkpt lat="46.85463" lon="8.48887">
        <ele>2513</ele>
        <time>2021-08-12T09:51:37.420Z</time>
      </trkpt>
      <trkpt lat="46.85453" lon="8.4888">
        <ele>2500</ele>
        <time>2021-08-12T09:51:38.421Z</time>
      </trkpt>
      <trkpt lat="46.85454" lon="8.4888">
        <ele>2500</ele>
        <time>2021-08-12T09:51:39.421Z</time>
      </trkpt>
      <trkpt lat="46.85455" lon="8.48881">
        <ele>2500</ele>
        <time>2021-08-12T09:51:40.420Z</time>
      </trkpt>
      <trkpt lat="46.85454" lon="8.48881">
        <ele>2492</ele>
        <time>2021-08-12T09:51:41.421Z</time>
      </trkpt>
      <trkpt lat="46.85459" lon="8.48884">
        <ele>2498</ele>
        <time>2021-08-12T09:51:42.423Z</time>
      </trkpt>
      <trkpt lat="46.8546" lon="8.48884">
        <ele>2499</ele>
        <time>2021-08-12T09:51:43.423Z</time>
      </trkpt>
      <trkpt lat="46.85461" lon="8.48884">
        <ele>2499</ele>
        <time>2021-08-12T09:51:44.422Z</time>
      </trkpt>
      <trkpt lat="46.85461" lon="8.48884">
        <ele>2500</ele>
        <time>2021-08-12T09:51:45.423Z</time>
      </trkpt>
      <trkpt lat="46.85459" lon="8.48884">
        <ele>2504</ele>
        <time>2021-08-12T09:51:46.422Z</time>
      </trkpt>
      <trkpt lat="46.8546" lon="8.4888">
        <ele>2502</ele>
        <time>2021-08-12T09:51:47.423Z</time>
      </trkpt>
      <trkpt lat="46.8546" lon="8.4888">
        <ele>2502</ele>
        <time>2021-08-12T09:51:48.423Z</time>
      </trkpt>
      <trkpt lat="46.8546" lon="8.48879">
        <ele>2502</ele>
        <time>2021-08-12T09:51:49.422Z</time>
      </trkpt>
      <trkpt lat="46.85458" lon="8.4888">
        <ele>2503</ele>
        <time>2021-08-12T09:51:50.423Z</time>
      </trkpt>
      <trkpt lat="46.85458" lon="8.48879">
        <ele>2503</ele>
        <time>2021-08-12T09:51:51.423Z</time>
      </trkpt>
      <trkpt lat="46.85457" lon="8.48878">
        <ele>2502</ele>
        <time>2021-08-12T09:51:52.424Z</time>
      </trkpt>
      <trkpt lat="46.85455" lon="8.48878">
        <ele>2501</ele>
        <time>2021-08-12T09:51:53.423Z</time>
      </trkpt>
      <trkpt lat="46.85455" lon="8.48878">
        <ele>2501</ele>
        <time>2021-08-12T09:51:54.424Z</time>
      </trkpt>
      <trkpt lat="46.85453" lon="8.48879">
        <ele>2494</ele>
        <time>2021-08-12T09:51:55.425Z</time>
      </trkpt>
      <trkpt lat="46.85453" lon="8.48878">
        <ele>2494</ele>
        <time>2021-08-12T09:51:56.424Z</time>
      </trkpt>
      <trkpt lat="46.85453" lon="8.48878">
        <ele>2494</ele>
        <time>2021-08-12T09:51:57.424Z</time>
      </trkpt>
      <trkpt lat="46.85454" lon="8.48877">
        <ele>2497</ele>
        <time>2021-08-12T09:51:58.424Z</time>
      </trkpt>
      <trkpt lat="46.85455" lon="8.48878">
        <ele>2498</ele>
        <time>2021-08-12T09:51:59.424Z</time>
      </trkpt>
      <trkpt lat="46.85455" lon="8.48878">
        <ele>2498</ele>
        <time>2021-08-12T09:52:00.424Z</time>
      </trkpt>
      <trkpt lat="46.85455" lon="8.48878">
        <ele>2500</ele>
        <time>2021-08-12T09:52:01.426Z</time>
      </trkpt>
      <trkpt lat="46.85455" lon="8.48878">
        <ele>2501</ele>
        <time>2021-08-12T09:52:02.427Z</time>
      </trkpt>
      <trkpt lat="46.85455" lon="8.48879">
        <ele>2501</ele>
        <time>2021-08-12T09:52:03.427Z</time>
      </trkpt>
      <trkpt lat="46.85455" lon="8.48879">
        <ele>2501</ele>
        <time>2021-08-12T09:52:04.426Z</time>
      </trkpt>
      <trkpt lat="46.85452" lon="8.4888">
        <ele>2501</ele>
        <time>2021-08-12T09:52:05.427Z</time>
      </trkpt>
      <trkpt lat="46.85451" lon="8.4888">
        <ele>2501</ele>
        <time>2021-08-12T09:52:06.428Z</time>
      </trkpt>
      <trkpt lat="46.8545" lon="8.4888">
        <ele>2501</ele>
        <time>2021-08-12T09:52:07.427Z</time>
      </trkpt>
      <trkpt lat="46.85449" lon="8.4888">
        <ele>2501</ele>
        <time>2021-08-12T09:52:08.428Z</time>
      </trkpt>
      <trkpt lat="46.85448" lon="8.4888">
        <ele>2501</ele>
        <time>2021-08-12T09:52:09.428Z</time>
      </trkpt>
      <trkpt lat="46.85448" lon="8.4888">
        <ele>2501</ele>
        <time>2021-08-12T09:52:10.428Z</time>
      </trkpt>
      <trkpt lat="46.85448" lon="8.4888">
        <ele>2501</ele>
        <time>2021-08-12T09:52:11.427Z</time>
      </trkpt>
      <trkpt lat="46.85448" lon="8.4888">
        <ele>2501</ele>
        <time>2021-08-12T09:52:12.428Z</time>
      </trkpt>
      <trkpt lat="46.85447" lon="8.4888">
        <ele>2501</ele>
        <time>2021-08-12T09:52:13.427Z</time>
      </trkpt>
      <trkpt lat="46.85446" lon="8.4888">
        <ele>2501</ele>
        <time>2021-08-12T09:52:14.428Z</time>
      </trkpt>
      <trkpt lat="46.85445" lon="8.4888">
        <ele>2501</ele>
        <time>2021-08-12T09:52:15.427Z</time>
      </trkpt>
      <trkpt lat="46.85444" lon="8.4888">
        <ele>2501</ele>
        <time>2021-08-12T09:52:16.428Z</time>
      </trkpt>
      <trkpt lat="46.85444" lon="8.4888">
        <ele>2502</ele>
        <time>2021-08-12T09:52:17.427Z</time>
      </trkpt>
      <trkpt lat="46.85444" lon="8.48881">
        <ele>2502</ele>
        <time>2021-08-12T09:52:18.428Z</time>
      </trkpt>
      <trkpt lat="46.85443" lon="8.48884">
        <ele>2503</ele>
        <time>2021-08-12T09:52:19.428Z</time>
      </trkpt>
      <trkpt lat="46.85443" lon="8.48885">
        <ele>2503</ele>
        <time>2021-08-12T09:52:20.429Z</time>
      </trkpt>
      <trkpt lat="46.85442" lon="8.48886">
        <ele>2503</ele>
        <time>2021-08-12T09:52:21.428Z</time>
      </trkpt>
      <trkpt lat="46.85442" lon="8.48887">
        <ele>2503</ele>
        <time>2021-08-12T09:52:22.428Z</time>
      </trkpt>
      <trkpt lat="46.85442" lon="8.48887">
        <ele>2503</ele>
        <time>2021-08-12T09:52:23.428Z</time>
      </trkpt>
      <trkpt lat="46.85442" lon="8.48888">
        <ele>2504</ele>
        <time>2021-08-12T09:52:24.429Z</time>
      </trkpt>
      <trkpt lat="46.85441" lon="8.48888">
        <ele>2504</ele>
        <time>2021-08-12T09:52:25.428Z</time>
      </trkpt>
      <trkpt lat="46.85441" lon="8.48889">
        <ele>2503</ele>
        <time>2021-08-12T09:52:26.429Z</time>
      </trkpt>
      <trkpt lat="46.85441" lon="8.48889">
        <ele>2503</ele>
        <time>2021-08-12T09:52:27.429Z</time>
      </trkpt>
      <trkpt lat="46.85441" lon="8.48889">
        <ele>2503</ele>
        <time>2021-08-12T09:52:28.428Z</time>
      </trkpt>
      <trkpt lat="46.8544" lon="8.48887">
        <ele>2503</ele>
        <time>2021-08-12T09:52:29.429Z</time>
      </trkpt>
      <trkpt lat="46.85441" lon="8.48888">
        <ele>2503</ele>
        <time>2021-08-12T09:52:30.430Z</time>
      </trkpt>
      <trkpt lat="46.8544" lon="8.48887">
        <ele>2503</ele>
        <time>2021-08-12T09:52:31.429Z</time>
      </trkpt>
      <trkpt lat="46.85441" lon="8.48887">
        <ele>2503</ele>
        <time>2021-08-12T09:52:32.429Z</time>
      </trkpt>
      <trkpt lat="46.8544" lon="8.48886">
        <ele>2503</ele>
        <time>2021-08-12T09:52:33.430Z</time>
      </trkpt>
      <trkpt lat="46.8544" lon="8.48886">
        <ele>2503</ele>
        <time>2021-08-12T09:52:34.430Z</time>
      </trkpt>
      <trkpt lat="46.8544" lon="8.48886">
        <ele>2503</ele>
        <time>2021-08-12T09:52:35.429Z</time>
      </trkpt>
      <trkpt lat="46.85439" lon="8.48887">
        <ele>2503</ele>
        <time>2021-08-12T09:52:36.429Z</time>
      </trkpt>
      <trkpt lat="46.85438" lon="8.48887">
        <ele>2503</ele>
        <time>2021-08-12T09:52:37.429Z</time>
      </trkpt>
      <trkpt lat="46.85438" lon="8.48887">
        <ele>2503</ele>
        <time>2021-08-12T09:52:38.430Z</time>
      </trkpt>
      <trkpt lat="46.85438" lon="8.48888">
        <ele>2504</ele>
        <time>2021-08-12T09:52:39.429Z</time>
      </trkpt>
      <trkpt lat="46.85438" lon="8.48889">
        <ele>2504</ele>
        <time>2021-08-12T09:52:40.430Z</time>
      </trkpt>
      <trkpt lat="46.85438" lon="8.4889">
        <ele>2505</ele>
        <time>2021-08-12T09:52:41.430Z</time>
      </trkpt>
      <trkpt lat="46.85437" lon="8.48891">
        <ele>2506</ele>
        <time>2021-08-12T09:52:42.429Z</time>
      </trkpt>
      <trkpt lat="46.85436" lon="8.48892">
        <ele>2506</ele>
        <time>2021-08-12T09:52:43.429Z</time>
      </trkpt>
      <trkpt lat="46.85436" lon="8.48892">
        <ele>2507</ele>
        <time>2021-08-12T09:52:44.429Z</time>
      </trkpt>
      <trkpt lat="46.85435" lon="8.48893">
        <ele>2507</ele>
        <time>2021-08-12T09:52:45.430Z</time>
      </trkpt>
      <trkpt lat="46.85435" lon="8.48893">
        <ele>2508</ele>
        <time>2021-08-12T09:52:46.429Z</time>
      </trkpt>
      <trkpt lat="46.85435" lon="8.48893">
        <ele>2508</ele>
        <time>2021-08-12T09:52:47.429Z</time>
      </trkpt>
      <trkpt lat="46.85435" lon="8.48894">
        <ele>2508</ele>
        <time>2021-08-12T09:52:48.430Z</time>
      </trkpt>
      <trkpt lat="46.85434" lon="8.48894">
        <ele>2508</ele>
        <time>2021-08-12T09:52:49.430Z</time>
      </trkpt>
      <trkpt lat="46.85434" lon="8.48895">
        <ele>2508</ele>
        <time>2021-08-12T09:52:50.429Z</time>
      </trkpt>
      <trkpt lat="46.85433" lon="8.48895">
        <ele>2509</ele>
        <time>2021-08-12T09:52:51.429Z</time>
      </trkpt>
      <trkpt lat="46.85432" lon="8.48895">
        <ele>2509</ele>
        <time>2021-08-12T09:52:52.430Z</time>
      </trkpt>
      <trkpt lat="46.85432" lon="8.48895">
        <ele>2509</ele>
        <time>2021-08-12T09:52:53.430Z</time>
      </trkpt>
      <trkpt lat="46.85431" lon="8.48894">
        <ele>2509</ele>
        <time>2021-08-12T09:52:54.430Z</time>
      </trkpt>
      <trkpt lat="46.85431" lon="8.48894">
        <ele>2508</ele>
        <time>2021-08-12T09:52:55.429Z</time>
      </trkpt>
      <trkpt lat="46.85431" lon="8.48893">
        <ele>2509</ele>
        <time>2021-08-12T09:52:56.430Z</time>
      </trkpt>
      <trkpt lat="46.8543" lon="8.48893">
        <ele>2509</ele>
        <time>2021-08-12T09:52:57.430Z</time>
      </trkpt>
      <trkpt lat="46.8543" lon="8.48893">
        <ele>2510</ele>
        <time>2021-08-12T09:52:58.429Z</time>
      </trkpt>
      <trkpt lat="46.85429" lon="8.48893">
        <ele>2510</ele>
        <time>2021-08-12T09:52:59.430Z</time>
      </trkpt>
      <trkpt lat="46.85429" lon="8.48893">
        <ele>2510</ele>
        <time>2021-08-12T09:53:00.429Z</time>
      </trkpt>
      <trkpt lat="46.85429" lon="8.48893">
        <ele>2510</ele>
        <time>2021-08-12T09:53:01.430Z</time>
      </trkpt>
      <trkpt lat="46.85428" lon="8.48894">
        <ele>2510</ele>
        <time>2021-08-12T09:53:02.429Z</time>
      </trkpt>
      <trkpt lat="46.85428" lon="8.48894">
        <ele>2510</ele>
        <time>2021-08-12T09:53:03.430Z</time>
      </trkpt>
      <trkpt lat="46.85428" lon="8.48895">
        <ele>2510</ele>
        <time>2021-08-12T09:53:04.430Z</time>
      </trkpt>
      <trkpt lat="46.85427" lon="8.48895">
        <ele>2510</ele>
        <time>2021-08-12T09:53:05.429Z</time>
      </trkpt>
      <trkpt lat="46.85427" lon="8.48895">
        <ele>2510</ele>
        <time>2021-08-12T09:53:06.430Z</time>
      </trkpt>
      <trkpt lat="46.85427" lon="8.48895">
        <ele>2510</ele>
        <time>2021-08-12T09:53:07.430Z</time>
      </trkpt>
      <trkpt lat="46.85426" lon="8.48895">
        <ele>2510</ele>
        <time>2021-08-12T09:53:08.430Z</time>
      </trkpt>
      <trkpt lat="46.85426" lon="8.48895">
        <ele>2510</ele>
        <time>2021-08-12T09:53:09.430Z</time>
      </trkpt>
      <trkpt lat="46.85426" lon="8.48895">
        <ele>2511</ele>
        <time>2021-08-12T09:53:10.429Z</time>
      </trkpt>
      <trkpt lat="46.85425" lon="8.48893">
        <ele>2513</ele>
        <time>2021-08-12T09:53:11.430Z</time>
      </trkpt>
      <trkpt lat="46.85424" lon="8.48893">
        <ele>2514</ele>
        <time>2021-08-12T09:53:12.431Z</time>
      </trkpt>
      <trkpt lat="46.85424" lon="8.48892">
        <ele>2514</ele>
        <time>2021-08-12T09:53:13.430Z</time>
      </trkpt>
      <trkpt lat="46.85423" lon="8.48892">
        <ele>2515</ele>
        <time>2021-08-12T09:53:14.431Z</time>
      </trkpt>
      <trkpt lat="46.85423" lon="8.48892">
        <ele>2515</ele>
        <time>2021-08-12T09:53:15.430Z</time>
      </trkpt>
      <trkpt lat="46.85422" lon="8.48892">
        <ele>2515</ele>
        <time>2021-08-12T09:53:16.430Z</time>
      </trkpt>
      <trkpt lat="46.85422" lon="8.48893">
        <ele>2515</ele>
        <time>2021-08-12T09:53:17.430Z</time>
      </trkpt>
      <trkpt lat="46.85423" lon="8.48893">
        <ele>2515</ele>
        <time>2021-08-12T09:53:18.430Z</time>
      </trkpt>
      <trkpt lat="46.85423" lon="8.48892">
        <ele>2515</ele>
        <time>2021-08-12T09:53:19.431Z</time>
      </trkpt>
      <trkpt lat="46.85423" lon="8.48892">
        <ele>2515</ele>
        <time>2021-08-12T09:53:20.431Z</time>
      </trkpt>
      <trkpt lat="46.85424" lon="8.48892">
        <ele>2515</ele>
        <time>2021-08-12T09:53:21.431Z</time>
      </trkpt>
      <trkpt lat="46.85424" lon="8.48892">
        <ele>2515</ele>
        <time>2021-08-12T09:53:22.430Z</time>
      </trkpt>
      <trkpt lat="46.85424" lon="8.48892">
        <ele>2515</ele>
        <time>2021-08-12T09:53:23.431Z</time>
      </trkpt>
      <trkpt lat="46.85423" lon="8.48895">
        <ele>2516</ele>
        <time>2021-08-12T09:53:24.431Z</time>
      </trkpt>
      <trkpt lat="46.85423" lon="8.48894">
        <ele>2516</ele>
        <time>2021-08-12T09:53:25.432Z</time>
      </trkpt>
      <trkpt lat="46.85425" lon="8.48894">
        <ele>2512</ele>
        <time>2021-08-12T09:53:26.431Z</time>
      </trkpt>
      <trkpt lat="46.85425" lon="8.48894">
        <ele>2512</ele>
        <time>2021-08-12T09:53:27.432Z</time>
      </trkpt>
      <trkpt lat="46.85425" lon="8.48894">
        <ele>2511</ele>
        <time>2021-08-12T09:53:28.432Z</time>
      </trkpt>
      <trkpt lat="46.85424" lon="8.48896">
        <ele>2515</ele>
        <time>2021-08-12T09:53:29.431Z</time>
      </trkpt>
      <trkpt lat="46.85423" lon="8.48895">
        <ele>2514</ele>
        <time>2021-08-12T09:53:30.432Z</time>
      </trkpt>
      <trkpt lat="46.85423" lon="8.48895">
        <ele>2514</ele>
        <time>2021-08-12T09:53:31.433Z</time>
      </trkpt>
      <trkpt lat="46.85424" lon="8.48894">
        <ele>2517</ele>
        <time>2021-08-12T09:53:32.433Z</time>
      </trkpt>
      <trkpt lat="46.85425" lon="8.48893">
        <ele>2519</ele>
        <time>2021-08-12T09:53:33.433Z</time>
      </trkpt>
      <trkpt lat="46.85424" lon="8.48892">
        <ele>2519</ele>
        <time>2021-08-12T09:53:34.433Z</time>
      </trkpt>
      <trkpt lat="46.85424" lon="8.48893">
        <ele>2519</ele>
        <time>2021-08-12T09:53:35.432Z</time>
      </trkpt>
      <trkpt lat="46.85425" lon="8.48892">
        <ele>2519</ele>
        <time>2021-08-12T09:53:36.433Z</time>
      </trkpt>
      <trkpt lat="46.85425" lon="8.48891">
        <ele>2520</ele>
        <time>2021-08-12T09:53:37.433Z</time>
      </trkpt>
      <trkpt lat="46.85425" lon="8.48891">
        <ele>2521</ele>
        <time>2021-08-12T09:53:38.434Z</time>
      </trkpt>
      <trkpt lat="46.85425" lon="8.48891">
        <ele>2521</ele>
        <time>2021-08-12T09:53:39.433Z</time>
      </trkpt>
      <trkpt lat="46.85425" lon="8.48891">
        <ele>2520</ele>
        <time>2021-08-12T09:53:40.433Z</time>
      </trkpt>
      <trkpt lat="46.85425" lon="8.48891">
        <ele>2520</ele>
        <time>2021-08-12T09:53:41.434Z</time>
      </trkpt>
      <trkpt lat="46.85425" lon="8.48891">
        <ele>2520</ele>
        <time>2021-08-12T09:53:42.434Z</time>
      </trkpt>
      <trkpt lat="46.85425" lon="8.4889">
        <ele>2520</ele>
        <time>2021-08-12T09:53:43.434Z</time>
      </trkpt>
      <trkpt lat="46.85426" lon="8.4889">
        <ele>2520</ele>
        <time>2021-08-12T09:53:44.433Z</time>
      </trkpt>
      <trkpt lat="46.85424" lon="8.48885">
        <ele>2519</ele>
        <time>2021-08-12T09:53:45.434Z</time>
      </trkpt>
      <trkpt lat="46.85424" lon="8.48885">
        <ele>2519</ele>
        <time>2021-08-12T09:53:46.434Z</time>
      </trkpt>
      <trkpt lat="46.85424" lon="8.48885">
        <ele>2519</ele>
        <time>2021-08-12T09:53:47.433Z</time>
      </trkpt>
      <trkpt lat="46.85424" lon="8.48885">
        <ele>2519</ele>
        <time>2021-08-12T09:53:48.434Z</time>
      </trkpt>
      <trkpt lat="46.85424" lon="8.48885">
        <ele>2518</ele>
        <time>2021-08-12T09:53:49.434Z</time>
      </trkpt>
      <trkpt lat="46.85424" lon="8.48885">
        <ele>2518</ele>
        <time>2021-08-12T09:53:50.434Z</time>
      </trkpt>
      <trkpt lat="46.85424" lon="8.48885">
        <ele>2518</ele>
        <time>2021-08-12T09:53:51.433Z</time>
      </trkpt>
      <trkpt lat="46.85427" lon="8.48883">
        <ele>2516</ele>
        <time>2021-08-12T09:53:52.434Z</time>
      </trkpt>
      <trkpt lat="46.85427" lon="8.48883">
        <ele>2514</ele>
        <time>2021-08-12T09:53:53.434Z</time>
      </trkpt>
      <trkpt lat="46.85427" lon="8.48883">
        <ele>2514</ele>
        <time>2021-08-12T09:53:54.434Z</time>
      </trkpt>
      <trkpt lat="46.85427" lon="8.48883">
        <ele>2513</ele>
        <time>2021-08-12T09:53:55.433Z</time>
      </trkpt>
      <trkpt lat="46.85427" lon="8.48882">
        <ele>2513</ele>
        <time>2021-08-12T09:53:56.434Z</time>
      </trkpt>
      <trkpt lat="46.85426" lon="8.48882">
        <ele>2513</ele>
        <time>2021-08-12T09:53:57.433Z</time>
      </trkpt>
      <trkpt lat="46.85426" lon="8.48882">
        <ele>2513</ele>
        <time>2021-08-12T09:53:58.434Z</time>
      </trkpt>
      <trkpt lat="46.85424" lon="8.48881">
        <ele>2513</ele>
        <time>2021-08-12T09:53:59.435Z</time>
      </trkpt>
      <trkpt lat="46.85424" lon="8.48878">
        <ele>2514</ele>
        <time>2021-08-12T09:54:00.435Z</time>
      </trkpt>
      <trkpt lat="46.85424" lon="8.48878">
        <ele>2514</ele>
        <time>2021-08-12T09:54:01.434Z</time>
      </trkpt>
      <trkpt lat="46.85424" lon="8.48877">
        <ele>2514</ele>
        <time>2021-08-12T09:54:02.435Z</time>
      </trkpt>
      <trkpt lat="46.85424" lon="8.48876">
        <ele>2514</ele>
        <time>2021-08-12T09:54:03.435Z</time>
      </trkpt>
      <trkpt lat="46.85424" lon="8.48876">
        <ele>2514</ele>
        <time>2021-08-12T09:54:04.435Z</time>
      </trkpt>
      <trkpt lat="46.85423" lon="8.48875">
        <ele>2515</ele>
        <time>2021-08-12T09:54:05.435Z</time>
      </trkpt>
      <trkpt lat="46.85423" lon="8.48875">
        <ele>2515</ele>
        <time>2021-08-12T09:54:06.435Z</time>
      </trkpt>
      <trkpt lat="46.85421" lon="8.48874">
        <ele>2510</ele>
        <time>2021-08-12T09:54:07.436Z</time>
      </trkpt>
      <trkpt lat="46.85421" lon="8.48873">
        <ele>2510</ele>
        <time>2021-08-12T09:54:08.436Z</time>
      </trkpt>
      <trkpt lat="46.85419" lon="8.4887">
        <ele>2513</ele>
        <time>2021-08-12T09:54:09.436Z</time>
      </trkpt>
      <trkpt lat="46.85418" lon="8.4887">
        <ele>2514</ele>
        <time>2021-08-12T09:54:10.436Z</time>
      </trkpt>
      <trkpt lat="46.85418" lon="8.4887">
        <ele>2515</ele>
        <time>2021-08-12T09:54:11.435Z</time>
      </trkpt>
      <trkpt lat="46.85417" lon="8.48871">
        <ele>2516</ele>
        <time>2021-08-12T09:54:12.436Z</time>
      </trkpt>
      <trkpt lat="46.85417" lon="8.48872">
        <ele>2516</ele>
        <time>2021-08-12T09:54:13.435Z</time>
      </trkpt>
      <trkpt lat="46.85417" lon="8.48873">
        <ele>2516</ele>
        <time>2021-08-12T09:54:14.436Z</time>
      </trkpt>
      <trkpt lat="46.85417" lon="8.48874">
        <ele>2517</ele>
        <time>2021-08-12T09:54:15.435Z</time>
      </trkpt>
      <trkpt lat="46.85416" lon="8.48875">
        <ele>2517</ele>
        <time>2021-08-12T09:54:16.435Z</time>
      </trkpt>
      <trkpt lat="46.85416" lon="8.48876">
        <ele>2518</ele>
        <time>2021-08-12T09:54:17.436Z</time>
      </trkpt>
      <trkpt lat="46.85416" lon="8.48877">
        <ele>2518</ele>
        <time>2021-08-12T09:54:18.435Z</time>
      </trkpt>
      <trkpt lat="46.85415" lon="8.48878">
        <ele>2519</ele>
        <time>2021-08-12T09:54:19.436Z</time>
      </trkpt>
      <trkpt lat="46.85415" lon="8.48878">
        <ele>2519</ele>
        <time>2021-08-12T09:54:20.435Z</time>
      </trkpt>
      <trkpt lat="46.85414" lon="8.48878">
        <ele>2519</ele>
        <time>2021-08-12T09:54:21.436Z</time>
      </trkpt>
      <trkpt lat="46.85414" lon="8.48878">
        <ele>2519</ele>
        <time>2021-08-12T09:54:22.436Z</time>
      </trkpt>
      <trkpt lat="46.85413" lon="8.48879">
        <ele>2519</ele>
        <time>2021-08-12T09:54:23.435Z</time>
      </trkpt>
      <trkpt lat="46.85413" lon="8.48879">
        <ele>2519</ele>
        <time>2021-08-12T09:54:24.436Z</time>
      </trkpt>
      <trkpt lat="46.85413" lon="8.48879">
        <ele>2519</ele>
        <time>2021-08-12T09:54:25.436Z</time>
      </trkpt>
      <trkpt lat="46.85412" lon="8.48879">
        <ele>2518</ele>
        <time>2021-08-12T09:54:26.435Z</time>
      </trkpt>
      <trkpt lat="46.85414" lon="8.48879">
        <ele>2517</ele>
        <time>2021-08-12T09:54:27.436Z</time>
      </trkpt>
      <trkpt lat="46.85414" lon="8.48878">
        <ele>2517</ele>
        <time>2021-08-12T09:54:28.435Z</time>
      </trkpt>
      <trkpt lat="46.85414" lon="8.48878">
        <ele>2517</ele>
        <time>2021-08-12T09:54:29.435Z</time>
      </trkpt>
      <trkpt lat="46.85414" lon="8.48877">
        <ele>2517</ele>
        <time>2021-08-12T09:54:30.436Z</time>
      </trkpt>
      <trkpt lat="46.85414" lon="8.48876">
        <ele>2518</ele>
        <time>2021-08-12T09:54:31.436Z</time>
      </trkpt>
      <trkpt lat="46.85414" lon="8.48876">
        <ele>2517</ele>
        <time>2021-08-12T09:54:32.436Z</time>
      </trkpt>
      <trkpt lat="46.85411" lon="8.48875">
        <ele>2520</ele>
        <time>2021-08-12T09:54:33.437Z</time>
      </trkpt>
      <trkpt lat="46.85411" lon="8.48875">
        <ele>2520</ele>
        <time>2021-08-12T09:54:34.436Z</time>
      </trkpt>
      <trkpt lat="46.85411" lon="8.48875">
        <ele>2520</ele>
        <time>2021-08-12T09:54:35.436Z</time>
      </trkpt>
      <trkpt lat="46.8541" lon="8.48874">
        <ele>2519</ele>
        <time>2021-08-12T09:54:36.436Z</time>
      </trkpt>
      <trkpt lat="46.8541" lon="8.48873">
        <ele>2518</ele>
        <time>2021-08-12T09:54:37.436Z</time>
      </trkpt>
      <trkpt lat="46.8541" lon="8.48873">
        <ele>2518</ele>
        <time>2021-08-12T09:54:38.436Z</time>
      </trkpt>
      <trkpt lat="46.85408" lon="8.48869">
        <ele>2515</ele>
        <time>2021-08-12T09:54:39.437Z</time>
      </trkpt>
      <trkpt lat="46.85408" lon="8.48869">
        <ele>2515</ele>
        <time>2021-08-12T09:54:40.437Z</time>
      </trkpt>
      <trkpt lat="46.85407" lon="8.48869">
        <ele>2516</ele>
        <time>2021-08-12T09:54:41.437Z</time>
      </trkpt>
      <trkpt lat="46.85406" lon="8.48869">
        <ele>2516</ele>
        <time>2021-08-12T09:54:42.437Z</time>
      </trkpt>
      <trkpt lat="46.85406" lon="8.4887">
        <ele>2517</ele>
        <time>2021-08-12T09:54:43.436Z</time>
      </trkpt>
      <trkpt lat="46.85406" lon="8.4887">
        <ele>2518</ele>
        <time>2021-08-12T09:54:44.437Z</time>
      </trkpt>
      <trkpt lat="46.85405" lon="8.4887">
        <ele>2518</ele>
        <time>2021-08-12T09:54:45.437Z</time>
      </trkpt>
      <trkpt lat="46.85404" lon="8.48872">
        <ele>2517</ele>
        <time>2021-08-12T09:54:46.439Z</time>
      </trkpt>
      <trkpt lat="46.85403" lon="8.48874">
        <ele>2517</ele>
        <time>2021-08-12T09:54:47.439Z</time>
      </trkpt>
      <trkpt lat="46.85403" lon="8.48874">
        <ele>2517</ele>
        <time>2021-08-12T09:54:48.439Z</time>
      </trkpt>
      <trkpt lat="46.85402" lon="8.48874">
        <ele>2518</ele>
        <time>2021-08-12T09:54:49.439Z</time>
      </trkpt>
      <trkpt lat="46.85402" lon="8.48875">
        <ele>2518</ele>
        <time>2021-08-12T09:54:50.439Z</time>
      </trkpt>
      <trkpt lat="46.85402" lon="8.48874">
        <ele>2518</ele>
        <time>2021-08-12T09:54:51.439Z</time>
      </trkpt>
      <trkpt lat="46.85402" lon="8.48874">
        <ele>2519</ele>
        <time>2021-08-12T09:54:52.438Z</time>
      </trkpt>
      <trkpt lat="46.85406" lon="8.48878">
        <ele>2520</ele>
        <time>2021-08-12T09:54:53.440Z</time>
      </trkpt>
      <trkpt lat="46.85406" lon="8.48878">
        <ele>2520</ele>
        <time>2021-08-12T09:54:54.441Z</time>
      </trkpt>
      <trkpt lat="46.85403" lon="8.48879">
        <ele>2523</ele>
        <time>2021-08-12T09:54:55.440Z</time>
      </trkpt>
      <trkpt lat="46.85403" lon="8.48879">
        <ele>2524</ele>
        <time>2021-08-12T09:54:56.441Z</time>
      </trkpt>
      <trkpt lat="46.85403" lon="8.48878">
        <ele>2527</ele>
        <time>2021-08-12T09:54:57.440Z</time>
      </trkpt>
      <trkpt lat="46.85402" lon="8.48878">
        <ele>2528</ele>
        <time>2021-08-12T09:54:58.441Z</time>
      </trkpt>
      <trkpt lat="46.85401" lon="8.48877">
        <ele>2528</ele>
        <time>2021-08-12T09:54:59.440Z</time>
      </trkpt>
      <trkpt lat="46.85401" lon="8.48878">
        <ele>2529</ele>
        <time>2021-08-12T09:55:00.440Z</time>
      </trkpt>
      <trkpt lat="46.85401" lon="8.48878">
        <ele>2529</ele>
        <time>2021-08-12T09:55:01.440Z</time>
      </trkpt>
      <trkpt lat="46.854" lon="8.48879">
        <ele>2530</ele>
        <time>2021-08-12T09:55:02.441Z</time>
      </trkpt>
      <trkpt lat="46.854" lon="8.48879">
        <ele>2530</ele>
        <time>2021-08-12T09:55:03.441Z</time>
      </trkpt>
      <trkpt lat="46.854" lon="8.4888">
        <ele>2530</ele>
        <time>2021-08-12T09:55:04.441Z</time>
      </trkpt>
      <trkpt lat="46.85399" lon="8.4888">
        <ele>2529</ele>
        <time>2021-08-12T09:55:05.440Z</time>
      </trkpt>
      <trkpt lat="46.85399" lon="8.4888">
        <ele>2529</ele>
        <time>2021-08-12T09:55:06.441Z</time>
      </trkpt>
      <trkpt lat="46.85399" lon="8.4888">
        <ele>2530</ele>
        <time>2021-08-12T09:55:07.440Z</time>
      </trkpt>
      <trkpt lat="46.85398" lon="8.48881">
        <ele>2531</ele>
        <time>2021-08-12T09:55:08.441Z</time>
      </trkpt>
      <trkpt lat="46.85398" lon="8.48881">
        <ele>2531</ele>
        <time>2021-08-12T09:55:09.441Z</time>
      </trkpt>
      <trkpt lat="46.85398" lon="8.48881">
        <ele>2531</ele>
        <time>2021-08-12T09:55:10.440Z</time>
      </trkpt>
      <trkpt lat="46.85398" lon="8.48882">
        <ele>2531</ele>
        <time>2021-08-12T09:55:11.440Z</time>
      </trkpt>
      <trkpt lat="46.85399" lon="8.48881">
        <ele>2532</ele>
        <time>2021-08-12T09:55:12.441Z</time>
      </trkpt>
      <trkpt lat="46.85399" lon="8.4888">
        <ele>2532</ele>
        <time>2021-08-12T09:55:13.440Z</time>
      </trkpt>
      <trkpt lat="46.85399" lon="8.4888">
        <ele>2532</ele>
        <time>2021-08-12T09:55:14.440Z</time>
      </trkpt>
      <trkpt lat="46.854" lon="8.48882">
        <ele>2528</ele>
        <time>2021-08-12T09:55:15.442Z</time>
      </trkpt>
      <trkpt lat="46.854" lon="8.48881">
        <ele>2528</ele>
        <time>2021-08-12T09:55:16.441Z</time>
      </trkpt>
      <trkpt lat="46.854" lon="8.48881">
        <ele>2529</ele>
        <time>2021-08-12T09:55:17.442Z</time>
      </trkpt>
      <trkpt lat="46.854" lon="8.48881">
        <ele>2529</ele>
        <time>2021-08-12T09:55:18.442Z</time>
      </trkpt>
      <trkpt lat="46.854" lon="8.48881">
        <ele>2529</ele>
        <time>2021-08-12T09:55:19.441Z</time>
      </trkpt>
      <trkpt lat="46.854" lon="8.48881">
        <ele>2527</ele>
        <time>2021-08-12T09:55:20.442Z</time>
      </trkpt>
      <trkpt lat="46.85401" lon="8.4888">
        <ele>2527</ele>
        <time>2021-08-12T09:55:21.442Z</time>
      </trkpt>
      <trkpt lat="46.85401" lon="8.48879">
        <ele>2526</ele>
        <time>2021-08-12T09:55:22.442Z</time>
      </trkpt>
      <trkpt lat="46.85401" lon="8.48878">
        <ele>2525</ele>
        <time>2021-08-12T09:55:23.441Z</time>
      </trkpt>
      <trkpt lat="46.854" lon="8.48877">
        <ele>2525</ele>
        <time>2021-08-12T09:55:24.442Z</time>
      </trkpt>
      <trkpt lat="46.854" lon="8.48877">
        <ele>2525</ele>
        <time>2021-08-12T09:55:25.441Z</time>
      </trkpt>
      <trkpt lat="46.854" lon="8.48876">
        <ele>2524</ele>
        <time>2021-08-12T09:55:26.442Z</time>
      </trkpt>
      <trkpt lat="46.854" lon="8.48875">
        <ele>2524</ele>
        <time>2021-08-12T09:55:27.441Z</time>
      </trkpt>
      <trkpt lat="46.85399" lon="8.48875">
        <ele>2524</ele>
        <time>2021-08-12T09:55:28.442Z</time>
      </trkpt>
      <trkpt lat="46.85399" lon="8.48874">
        <ele>2524</ele>
        <time>2021-08-12T09:55:29.442Z</time>
      </trkpt>
      <trkpt lat="46.85398" lon="8.48873">
        <ele>2524</ele>
        <time>2021-08-12T09:55:30.441Z</time>
      </trkpt>
      <trkpt lat="46.85398" lon="8.48873">
        <ele>2524</ele>
        <time>2021-08-12T09:55:31.442Z</time>
      </trkpt>
      <trkpt lat="46.85398" lon="8.48873">
        <ele>2524</ele>
        <time>2021-08-12T09:55:32.442Z</time>
      </trkpt>
      <trkpt lat="46.85397" lon="8.48873">
        <ele>2523</ele>
        <time>2021-08-12T09:55:33.441Z</time>
      </trkpt>
      <trkpt lat="46.85395" lon="8.48869">
        <ele>2533</ele>
        <time>2021-08-12T09:55:34.441Z</time>
      </trkpt>
      <trkpt lat="46.85395" lon="8.48867">
        <ele>2533</ele>
        <time>2021-08-12T09:55:35.441Z</time>
      </trkpt>
      <trkpt lat="46.85395" lon="8.48866">
        <ele>2533</ele>
        <time>2021-08-12T09:55:36.442Z</time>
      </trkpt>
      <trkpt lat="46.85394" lon="8.48861">
        <ele>2533</ele>
        <time>2021-08-12T09:55:37.443Z</time>
      </trkpt>
      <trkpt lat="46.85393" lon="8.48861">
        <ele>2533</ele>
        <time>2021-08-12T09:55:38.442Z</time>
      </trkpt>
      <trkpt lat="46.85393" lon="8.48861">
        <ele>2533</ele>
        <time>2021-08-12T09:55:39.443Z</time>
      </trkpt>
      <trkpt lat="46.85394" lon="8.48862">
        <ele>2532</ele>
        <time>2021-08-12T09:55:40.443Z</time>
      </trkpt>
      <trkpt lat="46.85393" lon="8.48864">
        <ele>2531</ele>
        <time>2021-08-12T09:55:41.444Z</time>
      </trkpt>
      <trkpt lat="46.85393" lon="8.48864">
        <ele>2530</ele>
        <time>2021-08-12T09:55:42.444Z</time>
      </trkpt>
      <trkpt lat="46.85394" lon="8.48863">
        <ele>2527</ele>
        <time>2021-08-12T09:55:43.445Z</time>
      </trkpt>
      <trkpt lat="46.85394" lon="8.48862">
        <ele>2526</ele>
        <time>2021-08-12T09:55:44.444Z</time>
      </trkpt>
      <trkpt lat="46.85394" lon="8.48862">
        <ele>2526</ele>
        <time>2021-08-12T09:55:45.445Z</time>
      </trkpt>
      <trkpt lat="46.85393" lon="8.48861">
        <ele>2526</ele>
        <time>2021-08-12T09:55:46.445Z</time>
      </trkpt>
      <trkpt lat="46.85393" lon="8.48861">
        <ele>2526</ele>
        <time>2021-08-12T09:55:47.445Z</time>
      </trkpt>
      <trkpt lat="46.85393" lon="8.4886">
        <ele>2527</ele>
        <time>2021-08-12T09:55:48.444Z</time>
      </trkpt>
      <trkpt lat="46.85393" lon="8.48859">
        <ele>2527</ele>
        <time>2021-08-12T09:55:49.445Z</time>
      </trkpt>
      <trkpt lat="46.85393" lon="8.48859">
        <ele>2527</ele>
        <time>2021-08-12T09:55:50.445Z</time>
      </trkpt>
      <trkpt lat="46.85393" lon="8.4886">
        <ele>2527</ele>
        <time>2021-08-12T09:55:51.445Z</time>
      </trkpt>
      <trkpt lat="46.85392" lon="8.4886">
        <ele>2527</ele>
        <time>2021-08-12T09:55:52.444Z</time>
      </trkpt>
      <trkpt lat="46.85392" lon="8.4886">
        <ele>2527</ele>
        <time>2021-08-12T09:55:53.445Z</time>
      </trkpt>
      <trkpt lat="46.85392" lon="8.4886">
        <ele>2527</ele>
        <time>2021-08-12T09:55:54.445Z</time>
      </trkpt>
      <trkpt lat="46.85392" lon="8.48861">
        <ele>2528</ele>
        <time>2021-08-12T09:55:55.445Z</time>
      </trkpt>
      <trkpt lat="46.85392" lon="8.48861">
        <ele>2528</ele>
        <time>2021-08-12T09:55:56.445Z</time>
      </trkpt>
      <trkpt lat="46.85392" lon="8.48861">
        <ele>2528</ele>
        <time>2021-08-12T09:55:57.444Z</time>
      </trkpt>
      <trkpt lat="46.85391" lon="8.48861">
        <ele>2528</ele>
        <time>2021-08-12T09:55:58.445Z</time>
      </trkpt>
      <trkpt lat="46.85389" lon="8.48861">
        <ele>2528</ele>
        <time>2021-08-12T09:55:59.445Z</time>
      </trkpt>
      <trkpt lat="46.85388" lon="8.4886">
        <ele>2528</ele>
        <time>2021-08-12T09:56:00.445Z</time>
      </trkpt>
      <trkpt lat="46.85389" lon="8.4886">
        <ele>2528</ele>
        <time>2021-08-12T09:56:01.445Z</time>
      </trkpt>
      <trkpt lat="46.85389" lon="8.4886">
        <ele>2528</ele>
        <time>2021-08-12T09:56:02.445Z</time>
      </trkpt>
      <trkpt lat="46.8539" lon="8.48857">
        <ele>2528</ele>
        <time>2021-08-12T09:56:03.446Z</time>
      </trkpt>
      <trkpt lat="46.85391" lon="8.48856">
        <ele>2528</ele>
        <time>2021-08-12T09:56:04.445Z</time>
      </trkpt>
      <trkpt lat="46.85391" lon="8.48856">
        <ele>2527</ele>
        <time>2021-08-12T09:56:05.445Z</time>
      </trkpt>
      <trkpt lat="46.8539" lon="8.48856">
        <ele>2527</ele>
        <time>2021-08-12T09:56:06.445Z</time>
      </trkpt>
      <trkpt lat="46.85389" lon="8.48856">
        <ele>2527</ele>
        <time>2021-08-12T09:56:07.446Z</time>
      </trkpt>
      <trkpt lat="46.85389" lon="8.48856">
        <ele>2527</ele>
        <time>2021-08-12T09:56:08.445Z</time>
      </trkpt>
      <trkpt lat="46.85388" lon="8.48856">
        <ele>2527</ele>
        <time>2021-08-12T09:56:09.446Z</time>
      </trkpt>
      <trkpt lat="46.85388" lon="8.48856">
        <ele>2528</ele>
        <time>2021-08-12T09:56:10.445Z</time>
      </trkpt>
      <trkpt lat="46.85388" lon="8.48856">
        <ele>2528</ele>
        <time>2021-08-12T09:56:11.446Z</time>
      </trkpt>
      <trkpt lat="46.85388" lon="8.48857">
        <ele>2529</ele>
        <time>2021-08-12T09:56:12.446Z</time>
      </trkpt>
      <trkpt lat="46.85387" lon="8.48858">
        <ele>2530</ele>
        <time>2021-08-12T09:56:13.446Z</time>
      </trkpt>
      <trkpt lat="46.85387" lon="8.48858">
        <ele>2530</ele>
        <time>2021-08-12T09:56:14.447Z</time>
      </trkpt>
      <trkpt lat="46.85386" lon="8.48858">
        <ele>2531</ele>
        <time>2021-08-12T09:56:15.447Z</time>
      </trkpt>
      <trkpt lat="46.85386" lon="8.48858">
        <ele>2531</ele>
        <time>2021-08-12T09:56:16.447Z</time>
      </trkpt>
      <trkpt lat="46.85386" lon="8.48858">
        <ele>2531</ele>
        <time>2021-08-12T09:56:17.447Z</time>
      </trkpt>
      <trkpt lat="46.85386" lon="8.48858">
        <ele>2532</ele>
        <time>2021-08-12T09:56:18.447Z</time>
      </trkpt>
      <trkpt lat="46.85387" lon="8.48858">
        <ele>2532</ele>
        <time>2021-08-12T09:56:19.447Z</time>
      </trkpt>
      <trkpt lat="46.85386" lon="8.48858">
        <ele>2532</ele>
        <time>2021-08-12T09:56:20.447Z</time>
      </trkpt>
      <trkpt lat="46.85386" lon="8.48857">
        <ele>2532</ele>
        <time>2021-08-12T09:56:21.447Z</time>
      </trkpt>
      <trkpt lat="46.85386" lon="8.48857">
        <ele>2532</ele>
        <time>2021-08-12T09:56:22.446Z</time>
      </trkpt>
      <trkpt lat="46.85386" lon="8.48856">
        <ele>2531</ele>
        <time>2021-08-12T09:56:23.447Z</time>
      </trkpt>
      <trkpt lat="46.85385" lon="8.48856">
        <ele>2531</ele>
        <time>2021-08-12T09:56:24.447Z</time>
      </trkpt>
      <trkpt lat="46.85385" lon="8.48855">
        <ele>2532</ele>
        <time>2021-08-12T09:56:25.447Z</time>
      </trkpt>
      <trkpt lat="46.85385" lon="8.48856">
        <ele>2532</ele>
        <time>2021-08-12T09:56:26.447Z</time>
      </trkpt>
      <trkpt lat="46.85384" lon="8.48856">
        <ele>2533</ele>
        <time>2021-08-12T09:56:27.447Z</time>
      </trkpt>
      <trkpt lat="46.85384" lon="8.48856">
        <ele>2534</ele>
        <time>2021-08-12T09:56:28.447Z</time>
      </trkpt>
      <trkpt lat="46.85384" lon="8.48856">
        <ele>2535</ele>
        <time>2021-08-12T09:56:29.447Z</time>
      </trkpt>
      <trkpt lat="46.85384" lon="8.48857">
        <ele>2536</ele>
        <time>2021-08-12T09:56:30.447Z</time>
      </trkpt>
      <trkpt lat="46.85383" lon="8.48857">
        <ele>2537</ele>
        <time>2021-08-12T09:56:31.447Z</time>
      </trkpt>
      <trkpt lat="46.85383" lon="8.48857">
        <ele>2537</ele>
        <time>2021-08-12T09:56:32.446Z</time>
      </trkpt>
      <trkpt lat="46.85383" lon="8.48857">
        <ele>2537</ele>
        <time>2021-08-12T09:56:33.446Z</time>
      </trkpt>
      <trkpt lat="46.85383" lon="8.48855">
        <ele>2537</ele>
        <time>2021-08-12T09:56:34.448Z</time>
      </trkpt>
      <trkpt lat="46.85383" lon="8.48855">
        <ele>2537</ele>
        <time>2021-08-12T09:56:35.448Z</time>
      </trkpt>
      <trkpt lat="46.85383" lon="8.48854">
        <ele>2537</ele>
        <time>2021-08-12T09:56:36.447Z</time>
      </trkpt>
      <trkpt lat="46.85383" lon="8.48853">
        <ele>2536</ele>
        <time>2021-08-12T09:56:37.448Z</time>
      </trkpt>
      <trkpt lat="46.85383" lon="8.48853">
        <ele>2536</ele>
        <time>2021-08-12T09:56:38.448Z</time>
      </trkpt>
      <trkpt lat="46.85383" lon="8.48852">
        <ele>2536</ele>
        <time>2021-08-12T09:56:39.448Z</time>
      </trkpt>
      <trkpt lat="46.85384" lon="8.48851">
        <ele>2536</ele>
        <time>2021-08-12T09:56:40.447Z</time>
      </trkpt>
      <trkpt lat="46.85384" lon="8.48851">
        <ele>2536</ele>
        <time>2021-08-12T09:56:41.447Z</time>
      </trkpt>
      <trkpt lat="46.85383" lon="8.4885">
        <ele>2536</ele>
        <time>2021-08-12T09:56:42.448Z</time>
      </trkpt>
      <trkpt lat="46.85383" lon="8.4885">
        <ele>2536</ele>
        <time>2021-08-12T09:56:43.448Z</time>
      </trkpt>
      <trkpt lat="46.85383" lon="8.4885">
        <ele>2537</ele>
        <time>2021-08-12T09:56:44.448Z</time>
      </trkpt>
      <trkpt lat="46.85384" lon="8.48851">
        <ele>2537</ele>
        <time>2021-08-12T09:56:45.448Z</time>
      </trkpt>
      <trkpt lat="46.85384" lon="8.48851">
        <ele>2537</ele>
        <time>2021-08-12T09:56:46.447Z</time>
      </trkpt>
      <trkpt lat="46.85383" lon="8.4885">
        <ele>2537</ele>
        <time>2021-08-12T09:56:47.447Z</time>
      </trkpt>
      <trkpt lat="46.85383" lon="8.4885">
        <ele>2537</ele>
        <time>2021-08-12T09:56:48.447Z</time>
      </trkpt>
      <trkpt lat="46.85383" lon="8.48851">
        <ele>2537</ele>
        <time>2021-08-12T09:56:49.448Z</time>
      </trkpt>
      <trkpt lat="46.85383" lon="8.4885">
        <ele>2538</ele>
        <time>2021-08-12T09:56:50.449Z</time>
      </trkpt>
      <trkpt lat="46.85383" lon="8.4885">
        <ele>2539</ele>
        <time>2021-08-12T09:56:51.449Z</time>
      </trkpt>
      <trkpt lat="46.85381" lon="8.48851">
        <ele>2541</ele>
        <time>2021-08-12T09:56:52.449Z</time>
      </trkpt>
      <trkpt lat="46.8538" lon="8.48852">
        <ele>2541</ele>
        <time>2021-08-12T09:56:53.450Z</time>
      </trkpt>
      <trkpt lat="46.8538" lon="8.48852">
        <ele>2541</ele>
        <time>2021-08-12T09:56:54.449Z</time>
      </trkpt>
      <trkpt lat="46.85379" lon="8.48853">
        <ele>2541</ele>
        <time>2021-08-12T09:56:55.450Z</time>
      </trkpt>
      <trkpt lat="46.85379" lon="8.48853">
        <ele>2541</ele>
        <time>2021-08-12T09:56:56.449Z</time>
      </trkpt>
      <trkpt lat="46.85378" lon="8.48854">
        <ele>2542</ele>
        <time>2021-08-12T09:56:57.449Z</time>
      </trkpt>
      <trkpt lat="46.85378" lon="8.48854">
        <ele>2542</ele>
        <time>2021-08-12T09:56:58.449Z</time>
      </trkpt>
      <trkpt lat="46.85377" lon="8.48855">
        <ele>2542</ele>
        <time>2021-08-12T09:56:59.449Z</time>
      </trkpt>
      <trkpt lat="46.85377" lon="8.48855">
        <ele>2543</ele>
        <time>2021-08-12T09:57:00.450Z</time>
      </trkpt>
      <trkpt lat="46.85377" lon="8.48855">
        <ele>2543</ele>
        <time>2021-08-12T09:57:01.450Z</time>
      </trkpt>
      <trkpt lat="46.85376" lon="8.48856">
        <ele>2543</ele>
        <time>2021-08-12T09:57:02.450Z</time>
      </trkpt>
      <trkpt lat="46.85376" lon="8.48856">
        <ele>2543</ele>
        <time>2021-08-12T09:57:03.450Z</time>
      </trkpt>
      <trkpt lat="46.85375" lon="8.48856">
        <ele>2543</ele>
        <time>2021-08-12T09:57:04.450Z</time>
      </trkpt>
      <trkpt lat="46.85375" lon="8.48856">
        <ele>2543</ele>
        <time>2021-08-12T09:57:05.450Z</time>
      </trkpt>
      <trkpt lat="46.85375" lon="8.48856">
        <ele>2543</ele>
        <time>2021-08-12T09:57:06.450Z</time>
      </trkpt>
      <trkpt lat="46.85374" lon="8.48855">
        <ele>2543</ele>
        <time>2021-08-12T09:57:07.449Z</time>
      </trkpt>
      <trkpt lat="46.85374" lon="8.48855">
        <ele>2543</ele>
        <time>2021-08-12T09:57:08.450Z</time>
      </trkpt>
      <trkpt lat="46.85373" lon="8.48855">
        <ele>2543</ele>
        <time>2021-08-12T09:57:09.449Z</time>
      </trkpt>
      <trkpt lat="46.85373" lon="8.48856">
        <ele>2543</ele>
        <time>2021-08-12T09:57:10.450Z</time>
      </trkpt>
      <trkpt lat="46.85372" lon="8.48856">
        <ele>2543</ele>
        <time>2021-08-12T09:57:11.449Z</time>
      </trkpt>
      <trkpt lat="46.85372" lon="8.48856">
        <ele>2543</ele>
        <time>2021-08-12T09:57:12.449Z</time>
      </trkpt>
      <trkpt lat="46.85371" lon="8.48856">
        <ele>2542</ele>
        <time>2021-08-12T09:57:13.450Z</time>
      </trkpt>
      <trkpt lat="46.8537" lon="8.48856">
        <ele>2542</ele>
        <time>2021-08-12T09:57:14.449Z</time>
      </trkpt>
      <trkpt lat="46.8537" lon="8.48855">
        <ele>2542</ele>
        <time>2021-08-12T09:57:15.449Z</time>
      </trkpt>
      <trkpt lat="46.85369" lon="8.48855">
        <ele>2543</ele>
        <time>2021-08-12T09:57:16.450Z</time>
      </trkpt>
      <trkpt lat="46.85369" lon="8.48855">
        <ele>2543</ele>
        <time>2021-08-12T09:57:17.450Z</time>
      </trkpt>
      <trkpt lat="46.85368" lon="8.48855">
        <ele>2543</ele>
        <time>2021-08-12T09:57:18.450Z</time>
      </trkpt>
      <trkpt lat="46.85368" lon="8.48855">
        <ele>2543</ele>
        <time>2021-08-12T09:57:19.450Z</time>
      </trkpt>
      <trkpt lat="46.85367" lon="8.48855">
        <ele>2544</ele>
        <time>2021-08-12T09:57:20.450Z</time>
      </trkpt>
      <trkpt lat="46.85367" lon="8.48855">
        <ele>2544</ele>
        <time>2021-08-12T09:57:21.450Z</time>
      </trkpt>
      <trkpt lat="46.85366" lon="8.48855">
        <ele>2544</ele>
        <time>2021-08-12T09:57:22.450Z</time>
      </trkpt>
      <trkpt lat="46.85366" lon="8.48854">
        <ele>2544</ele>
        <time>2021-08-12T09:57:23.450Z</time>
      </trkpt>
      <trkpt lat="46.85366" lon="8.48854">
        <ele>2544</ele>
        <time>2021-08-12T09:57:24.449Z</time>
      </trkpt>
      <trkpt lat="46.85365" lon="8.48854">
        <ele>2544</ele>
        <time>2021-08-12T09:57:25.449Z</time>
      </trkpt>
      <trkpt lat="46.85365" lon="8.48853">
        <ele>2544</ele>
        <time>2021-08-12T09:57:26.450Z</time>
      </trkpt>
      <trkpt lat="46.85365" lon="8.48853">
        <ele>2544</ele>
        <time>2021-08-12T09:57:27.449Z</time>
      </trkpt>
      <trkpt lat="46.85365" lon="8.48853">
        <ele>2545</ele>
        <time>2021-08-12T09:57:28.450Z</time>
      </trkpt>
      <trkpt lat="46.85365" lon="8.48853">
        <ele>2545</ele>
        <time>2021-08-12T09:57:29.450Z</time>
      </trkpt>
      <trkpt lat="46.85365" lon="8.48853">
        <ele>2545</ele>
        <time>2021-08-12T09:57:30.449Z</time>
      </trkpt>
      <trkpt lat="46.85365" lon="8.48852">
        <ele>2545</ele>
        <time>2021-08-12T09:57:31.450Z</time>
      </trkpt>
      <trkpt lat="46.85361" lon="8.4885">
        <ele>2552</ele>
        <time>2021-08-12T09:57:32.449Z</time>
      </trkpt>
      <trkpt lat="46.85361" lon="8.4885">
        <ele>2552</ele>
        <time>2021-08-12T09:57:33.450Z</time>
      </trkpt>
      <trkpt lat="46.85359" lon="8.48851">
        <ele>2551</ele>
        <time>2021-08-12T09:57:34.449Z</time>
      </trkpt>
      <trkpt lat="46.85358" lon="8.48851">
        <ele>2551</ele>
        <time>2021-08-12T09:57:35.450Z</time>
      </trkpt>
      <trkpt lat="46.85358" lon="8.48851">
        <ele>2550</ele>
        <time>2021-08-12T09:57:36.449Z</time>
      </trkpt>
      <trkpt lat="46.85358" lon="8.48851">
        <ele>2550</ele>
        <time>2021-08-12T09:57:37.449Z</time>
      </trkpt>
      <trkpt lat="46.85357" lon="8.48852">
        <ele>2551</ele>
        <time>2021-08-12T09:57:38.450Z</time>
      </trkpt>
      <trkpt lat="46.85357" lon="8.48852">
        <ele>2551</ele>
        <time>2021-08-12T09:57:39.450Z</time>
      </trkpt>
      <trkpt lat="46.85356" lon="8.48852">
        <ele>2551</ele>
        <time>2021-08-12T09:57:40.450Z</time>
      </trkpt>
      <trkpt lat="46.85355" lon="8.48852">
        <ele>2551</ele>
        <time>2021-08-12T09:57:41.450Z</time>
      </trkpt>
      <trkpt lat="46.85355" lon="8.48852">
        <ele>2551</ele>
        <time>2021-08-12T09:57:42.449Z</time>
      </trkpt>
      <trkpt lat="46.85355" lon="8.48853">
        <ele>2551</ele>
        <time>2021-08-12T09:57:43.449Z</time>
      </trkpt>
      <trkpt lat="46.85355" lon="8.48854">
        <ele>2551</ele>
        <time>2021-08-12T09:57:44.450Z</time>
      </trkpt>
      <trkpt lat="46.85354" lon="8.48854">
        <ele>2552</ele>
        <time>2021-08-12T09:57:45.450Z</time>
      </trkpt>
      <trkpt lat="46.85354" lon="8.48854">
        <ele>2551</ele>
        <time>2021-08-12T09:57:46.449Z</time>
      </trkpt>
      <trkpt lat="46.85354" lon="8.48854">
        <ele>2551</ele>
        <time>2021-08-12T09:57:47.449Z</time>
      </trkpt>
      <trkpt lat="46.85353" lon="8.48855">
        <ele>2551</ele>
        <time>2021-08-12T09:57:48.450Z</time>
      </trkpt>
      <trkpt lat="46.85353" lon="8.48855">
        <ele>2551</ele>
        <time>2021-08-12T09:57:49.449Z</time>
      </trkpt>
      <trkpt lat="46.85353" lon="8.48856">
        <ele>2552</ele>
        <time>2021-08-12T09:57:50.450Z</time>
      </trkpt>
      <trkpt lat="46.85352" lon="8.48856">
        <ele>2552</ele>
        <time>2021-08-12T09:57:51.449Z</time>
      </trkpt>
      <trkpt lat="46.85352" lon="8.48856">
        <ele>2552</ele>
        <time>2021-08-12T09:57:52.449Z</time>
      </trkpt>
      <trkpt lat="46.85351" lon="8.48856">
        <ele>2553</ele>
        <time>2021-08-12T09:57:53.450Z</time>
      </trkpt>
      <trkpt lat="46.85351" lon="8.48857">
        <ele>2553</ele>
        <time>2021-08-12T09:57:54.449Z</time>
      </trkpt>
      <trkpt lat="46.85351" lon="8.48857">
        <ele>2553</ele>
        <time>2021-08-12T09:57:55.450Z</time>
      </trkpt>
      <trkpt lat="46.8535" lon="8.48858">
        <ele>2553</ele>
        <time>2021-08-12T09:57:56.449Z</time>
      </trkpt>
      <trkpt lat="46.8535" lon="8.48858">
        <ele>2553</ele>
        <time>2021-08-12T09:57:57.450Z</time>
      </trkpt>
      <trkpt lat="46.85349" lon="8.48858">
        <ele>2553</ele>
        <time>2021-08-12T09:57:58.450Z</time>
      </trkpt>
      <trkpt lat="46.85349" lon="8.48858">
        <ele>2553</ele>
        <time>2021-08-12T09:57:59.450Z</time>
      </trkpt>
      <trkpt lat="46.85348" lon="8.48859">
        <ele>2553</ele>
        <time>2021-08-12T09:58:00.450Z</time>
      </trkpt>
      <trkpt lat="46.85348" lon="8.48859">
        <ele>2553</ele>
        <time>2021-08-12T09:58:01.449Z</time>
      </trkpt>
      <trkpt lat="46.85348" lon="8.4886">
        <ele>2554</ele>
        <time>2021-08-12T09:58:02.450Z</time>
      </trkpt>
      <trkpt lat="46.85348" lon="8.4886">
        <ele>2554</ele>
        <time>2021-08-12T09:58:03.449Z</time>
      </trkpt>
      <trkpt lat="46.85347" lon="8.4886">
        <ele>2555</ele>
        <time>2021-08-12T09:58:04.449Z</time>
      </trkpt>
      <trkpt lat="46.85347" lon="8.4886">
        <ele>2555</ele>
        <time>2021-08-12T09:58:05.450Z</time>
      </trkpt>
      <trkpt lat="46.85347" lon="8.4886">
        <ele>2555</ele>
        <time>2021-08-12T09:58:06.450Z</time>
      </trkpt>
      <trkpt lat="46.85346" lon="8.48861">
        <ele>2555</ele>
        <time>2021-08-12T09:58:07.450Z</time>
      </trkpt>
      <trkpt lat="46.85347" lon="8.48861">
        <ele>2556</ele>
        <time>2021-08-12T09:58:08.450Z</time>
      </trkpt>
      <trkpt lat="46.85346" lon="8.48862">
        <ele>2556</ele>
        <time>2021-08-12T09:58:09.450Z</time>
      </trkpt>
      <trkpt lat="46.85346" lon="8.48862">
        <ele>2557</ele>
        <time>2021-08-12T09:58:10.450Z</time>
      </trkpt>
      <trkpt lat="46.85345" lon="8.48862">
        <ele>2557</ele>
        <time>2021-08-12T09:58:11.450Z</time>
      </trkpt>
      <trkpt lat="46.85345" lon="8.48862">
        <ele>2557</ele>
        <time>2021-08-12T09:58:12.449Z</time>
      </trkpt>
      <trkpt lat="46.85344" lon="8.48863">
        <ele>2557</ele>
        <time>2021-08-12T09:58:13.449Z</time>
      </trkpt>
      <trkpt lat="46.85344" lon="8.48863">
        <ele>2557</ele>
        <time>2021-08-12T09:58:14.450Z</time>
      </trkpt>
      <trkpt lat="46.85343" lon="8.48863">
        <ele>2557</ele>
        <time>2021-08-12T09:58:15.450Z</time>
      </trkpt>
      <trkpt lat="46.85343" lon="8.48863">
        <ele>2557</ele>
        <time>2021-08-12T09:58:16.450Z</time>
      </trkpt>
      <trkpt lat="46.85343" lon="8.48863">
        <ele>2557</ele>
        <time>2021-08-12T09:58:17.449Z</time>
      </trkpt>
      <trkpt lat="46.85343" lon="8.48863">
        <ele>2557</ele>
        <time>2021-08-12T09:58:18.450Z</time>
      </trkpt>
      <trkpt lat="46.85342" lon="8.48864">
        <ele>2558</ele>
        <time>2021-08-12T09:58:19.449Z</time>
      </trkpt>
      <trkpt lat="46.85342" lon="8.48864">
        <ele>2558</ele>
        <time>2021-08-12T09:58:20.450Z</time>
      </trkpt>
      <trkpt lat="46.85341" lon="8.48864">
        <ele>2558</ele>
        <time>2021-08-12T09:58:21.450Z</time>
      </trkpt>
      <trkpt lat="46.85341" lon="8.48865">
        <ele>2558</ele>
        <time>2021-08-12T09:58:22.450Z</time>
      </trkpt>
      <trkpt lat="46.85341" lon="8.48866">
        <ele>2558</ele>
        <time>2021-08-12T09:58:23.449Z</time>
      </trkpt>
      <trkpt lat="46.8534" lon="8.48866">
        <ele>2558</ele>
        <time>2021-08-12T09:58:24.450Z</time>
      </trkpt>
      <trkpt lat="46.8534" lon="8.48867">
        <ele>2559</ele>
        <time>2021-08-12T09:58:25.449Z</time>
      </trkpt>
      <trkpt lat="46.8534" lon="8.48867">
        <ele>2559</ele>
        <time>2021-08-12T09:58:26.449Z</time>
      </trkpt>
      <trkpt lat="46.85339" lon="8.48868">
        <ele>2559</ele>
        <time>2021-08-12T09:58:27.450Z</time>
      </trkpt>
      <trkpt lat="46.85339" lon="8.48868">
        <ele>2560</ele>
        <time>2021-08-12T09:58:28.449Z</time>
      </trkpt>
      <trkpt lat="46.85339" lon="8.48869">
        <ele>2560</ele>
        <time>2021-08-12T09:58:29.450Z</time>
      </trkpt>
      <trkpt lat="46.85338" lon="8.48869">
        <ele>2561</ele>
        <time>2021-08-12T09:58:30.450Z</time>
      </trkpt>
      <trkpt lat="46.85338" lon="8.4887">
        <ele>2561</ele>
        <time>2021-08-12T09:58:31.449Z</time>
      </trkpt>
      <trkpt lat="46.85337" lon="8.4887">
        <ele>2561</ele>
        <time>2021-08-12T09:58:32.450Z</time>
      </trkpt>
      <trkpt lat="46.85337" lon="8.4887">
        <ele>2561</ele>
        <time>2021-08-12T09:58:33.450Z</time>
      </trkpt>
      <trkpt lat="46.85337" lon="8.4887">
        <ele>2561</ele>
        <time>2021-08-12T09:58:34.449Z</time>
      </trkpt>
      <trkpt lat="46.85336" lon="8.4887">
        <ele>2561</ele>
        <time>2021-08-12T09:58:35.449Z</time>
      </trkpt>
      <trkpt lat="46.85336" lon="8.48869">
        <ele>2561</ele>
        <time>2021-08-12T09:58:36.450Z</time>
      </trkpt>
      <trkpt lat="46.85336" lon="8.48869">
        <ele>2561</ele>
        <time>2021-08-12T09:58:37.449Z</time>
      </trkpt>
      <trkpt lat="46.85336" lon="8.48868">
        <ele>2561</ele>
        <time>2021-08-12T09:58:38.450Z</time>
      </trkpt>
      <trkpt lat="46.85335" lon="8.48868">
        <ele>2561</ele>
        <time>2021-08-12T09:58:39.450Z</time>
      </trkpt>
      <trkpt lat="46.85335" lon="8.48868">
        <ele>2561</ele>
        <time>2021-08-12T09:58:40.449Z</time>
      </trkpt>
      <trkpt lat="46.85334" lon="8.48868">
        <ele>2561</ele>
        <time>2021-08-12T09:58:41.450Z</time>
      </trkpt>
      <trkpt lat="46.85335" lon="8.48868">
        <ele>2560</ele>
        <time>2021-08-12T09:58:42.451Z</time>
      </trkpt>
      <trkpt lat="46.85334" lon="8.48867">
        <ele>2560</ele>
        <time>2021-08-12T09:58:43.450Z</time>
      </trkpt>
      <trkpt lat="46.85334" lon="8.48867">
        <ele>2560</ele>
        <time>2021-08-12T09:58:44.450Z</time>
      </trkpt>
      <trkpt lat="46.85334" lon="8.48867">
        <ele>2560</ele>
        <time>2021-08-12T09:58:45.450Z</time>
      </trkpt>
      <trkpt lat="46.85334" lon="8.48869">
        <ele>2560</ele>
        <time>2021-08-12T09:58:46.451Z</time>
      </trkpt>
      <trkpt lat="46.85334" lon="8.48869">
        <ele>2560</ele>
        <time>2021-08-12T09:58:47.451Z</time>
      </trkpt>
      <trkpt lat="46.85334" lon="8.48869">
        <ele>2561</ele>
        <time>2021-08-12T09:58:48.450Z</time>
      </trkpt>
      <trkpt lat="46.85333" lon="8.48869">
        <ele>2558</ele>
        <time>2021-08-12T09:58:49.451Z</time>
      </trkpt>
      <trkpt lat="46.85333" lon="8.4887">
        <ele>2558</ele>
        <time>2021-08-12T09:58:50.451Z</time>
      </trkpt>
      <trkpt lat="46.85333" lon="8.4887">
        <ele>2557</ele>
        <time>2021-08-12T09:58:51.450Z</time>
      </trkpt>
      <trkpt lat="46.85333" lon="8.48871">
        <ele>2557</ele>
        <time>2021-08-12T09:58:52.451Z</time>
      </trkpt>
      <trkpt lat="46.85333" lon="8.48872">
        <ele>2557</ele>
        <time>2021-08-12T09:58:53.451Z</time>
      </trkpt>
      <trkpt lat="46.85333" lon="8.48873">
        <ele>2557</ele>
        <time>2021-08-12T09:58:54.450Z</time>
      </trkpt>
      <trkpt lat="46.85334" lon="8.48873">
        <ele>2557</ele>
        <time>2021-08-12T09:58:55.450Z</time>
      </trkpt>
      <trkpt lat="46.85335" lon="8.48873">
        <ele>2559</ele>
        <time>2021-08-12T09:58:56.452Z</time>
      </trkpt>
      <trkpt lat="46.85335" lon="8.48874">
        <ele>2559</ele>
        <time>2021-08-12T09:58:57.452Z</time>
      </trkpt>
      <trkpt lat="46.85335" lon="8.48877">
        <ele>2562</ele>
        <time>2021-08-12T09:58:58.452Z</time>
      </trkpt>
      <trkpt lat="46.85335" lon="8.48877">
        <ele>2562</ele>
        <time>2021-08-12T09:58:59.452Z</time>
      </trkpt>
      <trkpt lat="46.85335" lon="8.48877">
        <ele>2561</ele>
        <time>2021-08-12T09:59:00.452Z</time>
      </trkpt>
      <trkpt lat="46.85335" lon="8.48877">
        <ele>2561</ele>
        <time>2021-08-12T09:59:01.451Z</time>
      </trkpt>
      <trkpt lat="46.85335" lon="8.48877">
        <ele>2561</ele>
        <time>2021-08-12T09:59:02.451Z</time>
      </trkpt>
      <trkpt lat="46.85335" lon="8.48876">
        <ele>2559</ele>
        <time>2021-08-12T09:59:03.451Z</time>
      </trkpt>
      <trkpt lat="46.85335" lon="8.48876">
        <ele>2558</ele>
        <time>2021-08-12T09:59:04.451Z</time>
      </trkpt>
      <trkpt lat="46.85335" lon="8.48876">
        <ele>2558</ele>
        <time>2021-08-12T09:59:05.452Z</time>
      </trkpt>
      <trkpt lat="46.85335" lon="8.48876">
        <ele>2558</ele>
        <time>2021-08-12T09:59:06.452Z</time>
      </trkpt>
      <trkpt lat="46.85334" lon="8.48877">
        <ele>2559</ele>
        <time>2021-08-12T09:59:07.452Z</time>
      </trkpt>
      <trkpt lat="46.85334" lon="8.48877">
        <ele>2559</ele>
        <time>2021-08-12T09:59:08.452Z</time>
      </trkpt>
      <trkpt lat="46.85333" lon="8.48876">
        <ele>2560</ele>
        <time>2021-08-12T09:59:09.453Z</time>
      </trkpt>
      <trkpt lat="46.85333" lon="8.48876">
        <ele>2560</ele>
        <time>2021-08-12T09:59:10.452Z</time>
      </trkpt>
      <trkpt lat="46.85333" lon="8.48875">
        <ele>2564</ele>
        <time>2021-08-12T09:59:11.453Z</time>
      </trkpt>
      <trkpt lat="46.85333" lon="8.48875">
        <ele>2564</ele>
        <time>2021-08-12T09:59:12.453Z</time>
      </trkpt>
      <trkpt lat="46.85333" lon="8.48875">
        <ele>2563</ele>
        <time>2021-08-12T09:59:13.452Z</time>
      </trkpt>
      <trkpt lat="46.85333" lon="8.48875">
        <ele>2562</ele>
        <time>2021-08-12T09:59:14.453Z</time>
      </trkpt>
      <trkpt lat="46.85334" lon="8.48875">
        <ele>2562</ele>
        <time>2021-08-12T09:59:15.453Z</time>
      </trkpt>
      <trkpt lat="46.85337" lon="8.48875">
        <ele>2562</ele>
        <time>2021-08-12T09:59:16.455Z</time>
      </trkpt>
      <trkpt lat="46.85336" lon="8.48875">
        <ele>2562</ele>
        <time>2021-08-12T09:59:17.455Z</time>
      </trkpt>
      <trkpt lat="46.85336" lon="8.48875">
        <ele>2562</ele>
        <time>2021-08-12T09:59:18.455Z</time>
      </trkpt>
      <trkpt lat="46.85336" lon="8.48876">
        <ele>2561</ele>
        <time>2021-08-12T09:59:19.455Z</time>
      </trkpt>
      <trkpt lat="46.85336" lon="8.48876">
        <ele>2561</ele>
        <time>2021-08-12T09:59:20.455Z</time>
      </trkpt>
      <trkpt lat="46.85336" lon="8.48876">
        <ele>2561</ele>
        <time>2021-08-12T09:59:21.455Z</time>
      </trkpt>
      <trkpt lat="46.85335" lon="8.48875">
        <ele>2565</ele>
        <time>2021-08-12T09:59:22.455Z</time>
      </trkpt>
      <trkpt lat="46.85335" lon="8.48875">
        <ele>2566</ele>
        <time>2021-08-12T09:59:23.456Z</time>
      </trkpt>
      <trkpt lat="46.85335" lon="8.48875">
        <ele>2565</ele>
        <time>2021-08-12T09:59:24.456Z</time>
      </trkpt>
      <trkpt lat="46.85335" lon="8.48875">
        <ele>2565</ele>
        <time>2021-08-12T09:59:25.455Z</time>
      </trkpt>
      <trkpt lat="46.85335" lon="8.48875">
        <ele>2565</ele>
        <time>2021-08-12T09:59:26.456Z</time>
      </trkpt>
      <trkpt lat="46.85335" lon="8.48875">
        <ele>2564</ele>
        <time>2021-08-12T09:59:27.456Z</time>
      </trkpt>
      <trkpt lat="46.85335" lon="8.48875">
        <ele>2564</ele>
        <time>2021-08-12T09:59:28.456Z</time>
      </trkpt>
      <trkpt lat="46.85335" lon="8.48876">
        <ele>2561</ele>
        <time>2021-08-12T09:59:29.456Z</time>
      </trkpt>
      <trkpt lat="46.85335" lon="8.48876">
        <ele>2561</ele>
        <time>2021-08-12T09:59:30.457Z</time>
      </trkpt>
      <trkpt lat="46.85335" lon="8.48876">
        <ele>2562</ele>
        <time>2021-08-12T09:59:31.456Z</time>
      </trkpt>
      <trkpt lat="46.85334" lon="8.48876">
        <ele>2562</ele>
        <time>2021-08-12T09:59:32.457Z</time>
      </trkpt>
      <trkpt lat="46.85334" lon="8.48876">
        <ele>2561</ele>
        <time>2021-08-12T09:59:33.456Z</time>
      </trkpt>
      <trkpt lat="46.85335" lon="8.48878">
        <ele>2555</ele>
        <time>2021-08-12T09:59:34.457Z</time>
      </trkpt>
      <trkpt lat="46.85336" lon="8.48877">
        <ele>2555</ele>
        <time>2021-08-12T09:59:35.457Z</time>
      </trkpt>
      <trkpt lat="46.85336" lon="8.48877">
        <ele>2555</ele>
        <time>2021-08-12T09:59:36.456Z</time>
      </trkpt>
      <trkpt lat="46.85336" lon="8.48877">
        <ele>2555</ele>
        <time>2021-08-12T09:59:37.456Z</time>
      </trkpt>
      <trkpt lat="46.85333" lon="8.4888">
        <ele>2560</ele>
        <time>2021-08-12T09:59:38.456Z</time>
      </trkpt>
      <trkpt lat="46.85333" lon="8.48881">
        <ele>2560</ele>
        <time>2021-08-12T09:59:39.456Z</time>
      </trkpt>
      <trkpt lat="46.85333" lon="8.48876">
        <ele>2559</ele>
        <time>2021-08-12T09:59:40.458Z</time>
      </trkpt>
      <trkpt lat="46.85333" lon="8.48876">
        <ele>2559</ele>
        <time>2021-08-12T09:59:41.457Z</time>
      </trkpt>
      <trkpt lat="46.85334" lon="8.48876">
        <ele>2560</ele>
        <time>2021-08-12T09:59:42.457Z</time>
      </trkpt>
      <trkpt lat="46.85334" lon="8.48876">
        <ele>2560</ele>
        <time>2021-08-12T09:59:43.457Z</time>
      </trkpt>
      <trkpt lat="46.85334" lon="8.48876">
        <ele>2558</ele>
        <time>2021-08-12T09:59:44.457Z</time>
      </trkpt>
      <trkpt lat="46.85334" lon="8.48875">
        <ele>2559</ele>
        <time>2021-08-12T09:59:45.458Z</time>
      </trkpt>
      <trkpt lat="46.85334" lon="8.48875">
        <ele>2560</ele>
        <time>2021-08-12T09:59:46.458Z</time>
      </trkpt>
      <trkpt lat="46.85334" lon="8.48875">
        <ele>2561</ele>
        <time>2021-08-12T09:59:47.458Z</time>
      </trkpt>
      <trkpt lat="46.85336" lon="8.48875">
        <ele>2560</ele>
        <time>2021-08-12T09:59:48.458Z</time>
      </trkpt>
      <trkpt lat="46.85336" lon="8.48875">
        <ele>2559</ele>
        <time>2021-08-12T09:59:49.458Z</time>
      </trkpt>
      <trkpt lat="46.85333" lon="8.48865">
        <ele>2568</ele>
        <time>2021-08-12T09:59:50.458Z</time>
      </trkpt>
      <trkpt lat="46.85333" lon="8.48865">
        <ele>2568</ele>
        <time>2021-08-12T09:59:51.459Z</time>
      </trkpt>
      <trkpt lat="46.85337" lon="8.48881">
        <ele>2558</ele>
        <time>2021-08-12T09:59:52.458Z</time>
      </trkpt>
      <trkpt lat="46.85336" lon="8.48879">
        <ele>2556</ele>
        <time>2021-08-12T09:59:53.460Z</time>
      </trkpt>
      <trkpt lat="46.85336" lon="8.48879">
        <ele>2556</ele>
        <time>2021-08-12T09:59:54.459Z</time>
      </trkpt>
      <trkpt lat="46.85336" lon="8.4888">
        <ele>2557</ele>
        <time>2021-08-12T09:59:55.459Z</time>
      </trkpt>
      <trkpt lat="46.85338" lon="8.48879">
        <ele>2561</ele>
        <time>2021-08-12T09:59:56.460Z</time>
      </trkpt>
      <trkpt lat="46.85335" lon="8.48877">
        <ele>2560</ele>
        <time>2021-08-12T09:59:57.462Z</time>
      </trkpt>
      <trkpt lat="46.85335" lon="8.48877">
        <ele>2560</ele>
        <time>2021-08-12T09:59:58.461Z</time>
      </trkpt>
      <trkpt lat="46.85336" lon="8.48879">
        <ele>2559</ele>
        <time>2021-08-12T09:59:59.462Z</time>
      </trkpt>
      <trkpt lat="46.85334" lon="8.48877">
        <ele>2559</ele>
        <time>2021-08-12T10:00:00.461Z</time>
      </trkpt>
      <trkpt lat="46.85335" lon="8.48877">
        <ele>2559</ele>
        <time>2021-08-12T10:00:01.462Z</time>
      </trkpt>
      <trkpt lat="46.85335" lon="8.48877">
        <ele>2559</ele>
        <time>2021-08-12T10:00:02.461Z</time>
      </trkpt>
      <trkpt lat="46.85335" lon="8.48877">
        <ele>2558</ele>
        <time>2021-08-12T10:00:03.462Z</time>
      </trkpt>
      <trkpt lat="46.85335" lon="8.48877">
        <ele>2558</ele>
        <time>2021-08-12T10:00:04.462Z</time>
      </trkpt>
      <trkpt lat="46.85335" lon="8.48876">
        <ele>2558</ele>
        <time>2021-08-12T10:00:05.461Z</time>
      </trkpt>
      <trkpt lat="46.85335" lon="8.48882">
        <ele>2555</ele>
        <time>2021-08-12T10:00:06.462Z</time>
      </trkpt>
      <trkpt lat="46.85335" lon="8.4888">
        <ele>2558</ele>
        <time>2021-08-12T10:00:07.462Z</time>
      </trkpt>
      <trkpt lat="46.85335" lon="8.48881">
        <ele>2558</ele>
        <time>2021-08-12T10:00:08.462Z</time>
      </trkpt>
      <trkpt lat="46.85335" lon="8.48881">
        <ele>2558</ele>
        <time>2021-08-12T10:00:09.461Z</time>
      </trkpt>
      <trkpt lat="46.85335" lon="8.48882">
        <ele>2559</ele>
        <time>2021-08-12T10:00:10.462Z</time>
      </trkpt>
      <trkpt lat="46.85335" lon="8.48882">
        <ele>2559</ele>
        <time>2021-08-12T10:00:11.461Z</time>
      </trkpt>
      <trkpt lat="46.85335" lon="8.48883">
        <ele>2558</ele>
        <time>2021-08-12T10:00:12.461Z</time>
      </trkpt>
      <trkpt lat="46.85335" lon="8.48884">
        <ele>2558</ele>
        <time>2021-08-12T10:00:13.461Z</time>
      </trkpt>
      <trkpt lat="46.85335" lon="8.48885">
        <ele>2558</ele>
        <time>2021-08-12T10:00:14.462Z</time>
      </trkpt>
      <trkpt lat="46.85334" lon="8.48885">
        <ele>2557</ele>
        <time>2021-08-12T10:00:15.462Z</time>
      </trkpt>
      <trkpt lat="46.85334" lon="8.48886">
        <ele>2558</ele>
        <time>2021-08-12T10:00:16.461Z</time>
      </trkpt>
      <trkpt lat="46.85334" lon="8.48887">
        <ele>2558</ele>
        <time>2021-08-12T10:00:17.461Z</time>
      </trkpt>
      <trkpt lat="46.85334" lon="8.48888">
        <ele>2558</ele>
        <time>2021-08-12T10:00:18.461Z</time>
      </trkpt>
      <trkpt lat="46.85335" lon="8.48888">
        <ele>2558</ele>
        <time>2021-08-12T10:00:19.462Z</time>
      </trkpt>
      <trkpt lat="46.85335" lon="8.48889">
        <ele>2558</ele>
        <time>2021-08-12T10:00:20.462Z</time>
      </trkpt>
      <trkpt lat="46.85335" lon="8.48889">
        <ele>2558</ele>
        <time>2021-08-12T10:00:21.461Z</time>
      </trkpt>
      <trkpt lat="46.85336" lon="8.4889">
        <ele>2558</ele>
        <time>2021-08-12T10:00:22.462Z</time>
      </trkpt>
      <trkpt lat="46.85336" lon="8.48891">
        <ele>2557</ele>
        <time>2021-08-12T10:00:23.461Z</time>
      </trkpt>
      <trkpt lat="46.85336" lon="8.48891">
        <ele>2557</ele>
        <time>2021-08-12T10:00:24.461Z</time>
      </trkpt>
      <trkpt lat="46.85336" lon="8.48892">
        <ele>2558</ele>
        <time>2021-08-12T10:00:25.462Z</time>
      </trkpt>
      <trkpt lat="46.85336" lon="8.48892">
        <ele>2558</ele>
        <time>2021-08-12T10:00:26.462Z</time>
      </trkpt>
      <trkpt lat="46.85336" lon="8.48892">
        <ele>2558</ele>
        <time>2021-08-12T10:00:27.461Z</time>
      </trkpt>
      <trkpt lat="46.85335" lon="8.48892">
        <ele>2558</ele>
        <time>2021-08-12T10:00:28.462Z</time>
      </trkpt>
      <trkpt lat="46.85335" lon="8.48892">
        <ele>2559</ele>
        <time>2021-08-12T10:00:29.461Z</time>
      </trkpt>
      <trkpt lat="46.85334" lon="8.48892">
        <ele>2559</ele>
        <time>2021-08-12T10:00:30.461Z</time>
      </trkpt>
      <trkpt lat="46.85334" lon="8.48893">
        <ele>2560</ele>
        <time>2021-08-12T10:00:31.461Z</time>
      </trkpt>
      <trkpt lat="46.85334" lon="8.48893">
        <ele>2560</ele>
        <time>2021-08-12T10:00:32.462Z</time>
      </trkpt>
      <trkpt lat="46.85334" lon="8.48894">
        <ele>2560</ele>
        <time>2021-08-12T10:00:33.462Z</time>
      </trkpt>
      <trkpt lat="46.85334" lon="8.48895">
        <ele>2560</ele>
        <time>2021-08-12T10:00:34.462Z</time>
      </trkpt>
      <trkpt lat="46.85334" lon="8.48896">
        <ele>2560</ele>
        <time>2021-08-12T10:00:35.462Z</time>
      </trkpt>
      <trkpt lat="46.85334" lon="8.48897">
        <ele>2561</ele>
        <time>2021-08-12T10:00:36.462Z</time>
      </trkpt>
      <trkpt lat="46.85334" lon="8.48897">
        <ele>2561</ele>
        <time>2021-08-12T10:00:37.461Z</time>
      </trkpt>
      <trkpt lat="46.85334" lon="8.48898">
        <ele>2561</ele>
        <time>2021-08-12T10:00:38.462Z</time>
      </trkpt>
      <trkpt lat="46.85334" lon="8.48899">
        <ele>2561</ele>
        <time>2021-08-12T10:00:39.461Z</time>
      </trkpt>
      <trkpt lat="46.85334" lon="8.48899">
        <ele>2561</ele>
        <time>2021-08-12T10:00:40.461Z</time>
      </trkpt>
      <trkpt lat="46.85333" lon="8.489">
        <ele>2561</ele>
        <time>2021-08-12T10:00:41.462Z</time>
      </trkpt>
      <trkpt lat="46.85333" lon="8.489">
        <ele>2561</ele>
        <time>2021-08-12T10:00:42.462Z</time>
      </trkpt>
      <trkpt lat="46.85333" lon="8.48901">
        <ele>2561</ele>
        <time>2021-08-12T10:00:43.462Z</time>
      </trkpt>
      <trkpt lat="46.85333" lon="8.48901">
        <ele>2561</ele>
        <time>2021-08-12T10:00:44.462Z</time>
      </trkpt>
      <trkpt lat="46.85332" lon="8.48901">
        <ele>2561</ele>
        <time>2021-08-12T10:00:45.462Z</time>
      </trkpt>
      <trkpt lat="46.85332" lon="8.48902">
        <ele>2561</ele>
        <time>2021-08-12T10:00:46.462Z</time>
      </trkpt>
      <trkpt lat="46.85331" lon="8.48902">
        <ele>2561</ele>
        <time>2021-08-12T10:00:47.461Z</time>
      </trkpt>
      <trkpt lat="46.8533" lon="8.48903">
        <ele>2561</ele>
        <time>2021-08-12T10:00:48.462Z</time>
      </trkpt>
      <trkpt lat="46.8533" lon="8.48904">
        <ele>2561</ele>
        <time>2021-08-12T10:00:49.461Z</time>
      </trkpt>
      <trkpt lat="46.85331" lon="8.48904">
        <ele>2561</ele>
        <time>2021-08-12T10:00:50.462Z</time>
      </trkpt>
      <trkpt lat="46.85331" lon="8.48905">
        <ele>2561</ele>
        <time>2021-08-12T10:00:51.462Z</time>
      </trkpt>
      <trkpt lat="46.85332" lon="8.48906">
        <ele>2561</ele>
        <time>2021-08-12T10:00:52.462Z</time>
      </trkpt>
      <trkpt lat="46.85332" lon="8.48906">
        <ele>2562</ele>
        <time>2021-08-12T10:00:53.462Z</time>
      </trkpt>
      <trkpt lat="46.85332" lon="8.48907">
        <ele>2562</ele>
        <time>2021-08-12T10:00:54.462Z</time>
      </trkpt>
      <trkpt lat="46.85332" lon="8.48907">
        <ele>2562</ele>
        <time>2021-08-12T10:00:55.462Z</time>
      </trkpt>
      <trkpt lat="46.85333" lon="8.48908">
        <ele>2562</ele>
        <time>2021-08-12T10:00:56.461Z</time>
      </trkpt>
      <trkpt lat="46.85333" lon="8.48909">
        <ele>2563</ele>
        <time>2021-08-12T10:00:57.462Z</time>
      </trkpt>
      <trkpt lat="46.85333" lon="8.48909">
        <ele>2563</ele>
        <time>2021-08-12T10:00:58.462Z</time>
      </trkpt>
      <trkpt lat="46.85333" lon="8.4891">
        <ele>2564</ele>
        <time>2021-08-12T10:00:59.462Z</time>
      </trkpt>
      <trkpt lat="46.85333" lon="8.4891">
        <ele>2563</ele>
        <time>2021-08-12T10:01:00.462Z</time>
      </trkpt>
      <trkpt lat="46.85333" lon="8.4891">
        <ele>2563</ele>
        <time>2021-08-12T10:01:01.461Z</time>
      </trkpt>
      <trkpt lat="46.85333" lon="8.48911">
        <ele>2563</ele>
        <time>2021-08-12T10:01:02.462Z</time>
      </trkpt>
      <trkpt lat="46.85333" lon="8.48911">
        <ele>2563</ele>
        <time>2021-08-12T10:01:03.462Z</time>
      </trkpt>
      <trkpt lat="46.85332" lon="8.48911">
        <ele>2563</ele>
        <time>2021-08-12T10:01:04.461Z</time>
      </trkpt>
      <trkpt lat="46.85331" lon="8.48912">
        <ele>2563</ele>
        <time>2021-08-12T10:01:05.461Z</time>
      </trkpt>
      <trkpt lat="46.85331" lon="8.48912">
        <ele>2562</ele>
        <time>2021-08-12T10:01:06.462Z</time>
      </trkpt>
      <trkpt lat="46.85331" lon="8.48912">
        <ele>2562</ele>
        <time>2021-08-12T10:01:07.461Z</time>
      </trkpt>
      <trkpt lat="46.8533" lon="8.48913">
        <ele>2563</ele>
        <time>2021-08-12T10:01:08.461Z</time>
      </trkpt>
      <trkpt lat="46.85331" lon="8.48914">
        <ele>2563</ele>
        <time>2021-08-12T10:01:09.462Z</time>
      </trkpt>
      <trkpt lat="46.85331" lon="8.48915">
        <ele>2563</ele>
        <time>2021-08-12T10:01:10.461Z</time>
      </trkpt>
      <trkpt lat="46.85331" lon="8.48915">
        <ele>2564</ele>
        <time>2021-08-12T10:01:11.462Z</time>
      </trkpt>
      <trkpt lat="46.85331" lon="8.48916">
        <ele>2565</ele>
        <time>2021-08-12T10:01:12.462Z</time>
      </trkpt>
      <trkpt lat="46.85331" lon="8.48916">
        <ele>2565</ele>
        <time>2021-08-12T10:01:13.462Z</time>
      </trkpt>
      <trkpt lat="46.85331" lon="8.48917">
        <ele>2566</ele>
        <time>2021-08-12T10:01:14.462Z</time>
      </trkpt>
      <trkpt lat="46.85331" lon="8.48917">
        <ele>2566</ele>
        <time>2021-08-12T10:01:15.461Z</time>
      </trkpt>
      <trkpt lat="46.85331" lon="8.48918">
        <ele>2567</ele>
        <time>2021-08-12T10:01:16.461Z</time>
      </trkpt>
      <trkpt lat="46.85331" lon="8.48918">
        <ele>2567</ele>
        <time>2021-08-12T10:01:17.461Z</time>
      </trkpt>
      <trkpt lat="46.85331" lon="8.48919">
        <ele>2567</ele>
        <time>2021-08-12T10:01:18.461Z</time>
      </trkpt>
      <trkpt lat="46.85331" lon="8.4892">
        <ele>2568</ele>
        <time>2021-08-12T10:01:19.461Z</time>
      </trkpt>
      <trkpt lat="46.85331" lon="8.48921">
        <ele>2568</ele>
        <time>2021-08-12T10:01:20.462Z</time>
      </trkpt>
      <trkpt lat="46.85331" lon="8.48922">
        <ele>2568</ele>
        <time>2021-08-12T10:01:21.461Z</time>
      </trkpt>
      <trkpt lat="46.85332" lon="8.48922">
        <ele>2568</ele>
        <time>2021-08-12T10:01:22.461Z</time>
      </trkpt>
      <trkpt lat="46.85332" lon="8.48923">
        <ele>2568</ele>
        <time>2021-08-12T10:01:23.461Z</time>
      </trkpt>
      <trkpt lat="46.85332" lon="8.48923">
        <ele>2568</ele>
        <time>2021-08-12T10:01:24.461Z</time>
      </trkpt>
      <trkpt lat="46.85332" lon="8.48924">
        <ele>2568</ele>
        <time>2021-08-12T10:01:25.461Z</time>
      </trkpt>
      <trkpt lat="46.85332" lon="8.48924">
        <ele>2568</ele>
        <time>2021-08-12T10:01:26.462Z</time>
      </trkpt>
      <trkpt lat="46.85332" lon="8.48925">
        <ele>2569</ele>
        <time>2021-08-12T10:01:27.462Z</time>
      </trkpt>
      <trkpt lat="46.85332" lon="8.48926">
        <ele>2569</ele>
        <time>2021-08-12T10:01:28.462Z</time>
      </trkpt>
      <trkpt lat="46.85331" lon="8.48926">
        <ele>2569</ele>
        <time>2021-08-12T10:01:29.462Z</time>
      </trkpt>
      <trkpt lat="46.85331" lon="8.48927">
        <ele>2569</ele>
        <time>2021-08-12T10:01:30.462Z</time>
      </trkpt>
      <trkpt lat="46.85331" lon="8.48927">
        <ele>2570</ele>
        <time>2021-08-12T10:01:31.462Z</time>
      </trkpt>
      <trkpt lat="46.8533" lon="8.48927">
        <ele>2570</ele>
        <time>2021-08-12T10:01:32.462Z</time>
      </trkpt>
      <trkpt lat="46.85329" lon="8.48928">
        <ele>2570</ele>
        <time>2021-08-12T10:01:33.462Z</time>
      </trkpt>
      <trkpt lat="46.85329" lon="8.48928">
        <ele>2570</ele>
        <time>2021-08-12T10:01:34.461Z</time>
      </trkpt>
      <trkpt lat="46.85328" lon="8.48928">
        <ele>2570</ele>
        <time>2021-08-12T10:01:35.461Z</time>
      </trkpt>
      <trkpt lat="46.85327" lon="8.48929">
        <ele>2570</ele>
        <time>2021-08-12T10:01:36.461Z</time>
      </trkpt>
      <trkpt lat="46.85327" lon="8.48929">
        <ele>2570</ele>
        <time>2021-08-12T10:01:37.461Z</time>
      </trkpt>
      <trkpt lat="46.85326" lon="8.4893">
        <ele>2570</ele>
        <time>2021-08-12T10:01:38.462Z</time>
      </trkpt>
      <trkpt lat="46.85326" lon="8.48931">
        <ele>2570</ele>
        <time>2021-08-12T10:01:39.462Z</time>
      </trkpt>
      <trkpt lat="46.85327" lon="8.48933">
        <ele>2570</ele>
        <time>2021-08-12T10:01:40.461Z</time>
      </trkpt>
      <trkpt lat="46.85327" lon="8.48934">
        <ele>2570</ele>
        <time>2021-08-12T10:01:41.461Z</time>
      </trkpt>
      <trkpt lat="46.85327" lon="8.48934">
        <ele>2570</ele>
        <time>2021-08-12T10:01:42.462Z</time>
      </trkpt>
      <trkpt lat="46.85328" lon="8.48935">
        <ele>2570</ele>
        <time>2021-08-12T10:01:43.461Z</time>
      </trkpt>
      <trkpt lat="46.85328" lon="8.48935">
        <ele>2571</ele>
        <time>2021-08-12T10:01:44.462Z</time>
      </trkpt>
      <trkpt lat="46.85328" lon="8.48936">
        <ele>2571</ele>
        <time>2021-08-12T10:01:45.461Z</time>
      </trkpt>
      <trkpt lat="46.85328" lon="8.48937">
        <ele>2571</ele>
        <time>2021-08-12T10:01:46.462Z</time>
      </trkpt>
      <trkpt lat="46.85328" lon="8.48937">
        <ele>2571</ele>
        <time>2021-08-12T10:01:47.461Z</time>
      </trkpt>
      <trkpt lat="46.85328" lon="8.48938">
        <ele>2571</ele>
        <time>2021-08-12T10:01:48.461Z</time>
      </trkpt>
      <trkpt lat="46.85327" lon="8.48938">
        <ele>2571</ele>
        <time>2021-08-12T10:01:49.461Z</time>
      </trkpt>
      <trkpt lat="46.85327" lon="8.48938">
        <ele>2572</ele>
        <time>2021-08-12T10:01:50.461Z</time>
      </trkpt>
      <trkpt lat="46.85326" lon="8.48938">
        <ele>2572</ele>
        <time>2021-08-12T10:01:51.462Z</time>
      </trkpt>
      <trkpt lat="46.85325" lon="8.48938">
        <ele>2572</ele>
        <time>2021-08-12T10:01:52.462Z</time>
      </trkpt>
      <trkpt lat="46.85325" lon="8.48939">
        <ele>2572</ele>
        <time>2021-08-12T10:01:53.461Z</time>
      </trkpt>
      <trkpt lat="46.85325" lon="8.4894">
        <ele>2572</ele>
        <time>2021-08-12T10:01:54.461Z</time>
      </trkpt>
      <trkpt lat="46.85325" lon="8.48941">
        <ele>2573</ele>
        <time>2021-08-12T10:01:55.461Z</time>
      </trkpt>
      <trkpt lat="46.85325" lon="8.48941">
        <ele>2573</ele>
        <time>2021-08-12T10:01:56.461Z</time>
      </trkpt>
      <trkpt lat="46.85326" lon="8.48942">
        <ele>2573</ele>
        <time>2021-08-12T10:01:57.462Z</time>
      </trkpt>
      <trkpt lat="46.85326" lon="8.48942">
        <ele>2573</ele>
        <time>2021-08-12T10:01:58.462Z</time>
      </trkpt>
      <trkpt lat="46.85326" lon="8.48943">
        <ele>2573</ele>
        <time>2021-08-12T10:01:59.462Z</time>
      </trkpt>
      <trkpt lat="46.85326" lon="8.48944">
        <ele>2574</ele>
        <time>2021-08-12T10:02:00.462Z</time>
      </trkpt>
      <trkpt lat="46.85326" lon="8.48945">
        <ele>2574</ele>
        <time>2021-08-12T10:02:01.462Z</time>
      </trkpt>
      <trkpt lat="46.85326" lon="8.48946">
        <ele>2575</ele>
        <time>2021-08-12T10:02:02.462Z</time>
      </trkpt>
      <trkpt lat="46.85325" lon="8.48947">
        <ele>2575</ele>
        <time>2021-08-12T10:02:03.462Z</time>
      </trkpt>
      <trkpt lat="46.85325" lon="8.48948">
        <ele>2575</ele>
        <time>2021-08-12T10:02:04.462Z</time>
      </trkpt>
      <trkpt lat="46.85325" lon="8.48949">
        <ele>2576</ele>
        <time>2021-08-12T10:02:05.462Z</time>
      </trkpt>
      <trkpt lat="46.85324" lon="8.48949">
        <ele>2576</ele>
        <time>2021-08-12T10:02:06.461Z</time>
      </trkpt>
      <trkpt lat="46.85324" lon="8.4895">
        <ele>2577</ele>
        <time>2021-08-12T10:02:07.462Z</time>
      </trkpt>
      <trkpt lat="46.85323" lon="8.48951">
        <ele>2577</ele>
        <time>2021-08-12T10:02:08.462Z</time>
      </trkpt>
      <trkpt lat="46.85323" lon="8.48952">
        <ele>2577</ele>
        <time>2021-08-12T10:02:09.461Z</time>
      </trkpt>
      <trkpt lat="46.85323" lon="8.48952">
        <ele>2577</ele>
        <time>2021-08-12T10:02:10.462Z</time>
      </trkpt>
      <trkpt lat="46.85323" lon="8.48953">
        <ele>2577</ele>
        <time>2021-08-12T10:02:11.462Z</time>
      </trkpt>
      <trkpt lat="46.85323" lon="8.48954">
        <ele>2578</ele>
        <time>2021-08-12T10:02:12.462Z</time>
      </trkpt>
      <trkpt lat="46.85323" lon="8.48955">
        <ele>2579</ele>
        <time>2021-08-12T10:02:13.462Z</time>
      </trkpt>
      <trkpt lat="46.85323" lon="8.48956">
        <ele>2579</ele>
        <time>2021-08-12T10:02:14.462Z</time>
      </trkpt>
      <trkpt lat="46.85323" lon="8.48957">
        <ele>2580</ele>
        <time>2021-08-12T10:02:15.461Z</time>
      </trkpt>
      <trkpt lat="46.85323" lon="8.48958">
        <ele>2580</ele>
        <time>2021-08-12T10:02:16.462Z</time>
      </trkpt>
      <trkpt lat="46.85323" lon="8.48959">
        <ele>2581</ele>
        <time>2021-08-12T10:02:17.461Z</time>
      </trkpt>
      <trkpt lat="46.85323" lon="8.4896">
        <ele>2581</ele>
        <time>2021-08-12T10:02:18.462Z</time>
      </trkpt>
      <trkpt lat="46.85323" lon="8.48961">
        <ele>2581</ele>
        <time>2021-08-12T10:02:19.461Z</time>
      </trkpt>
      <trkpt lat="46.85323" lon="8.48962">
        <ele>2582</ele>
        <time>2021-08-12T10:02:20.462Z</time>
      </trkpt>
      <trkpt lat="46.85323" lon="8.48963">
        <ele>2582</ele>
        <time>2021-08-12T10:02:21.461Z</time>
      </trkpt>
      <trkpt lat="46.85323" lon="8.48964">
        <ele>2582</ele>
        <time>2021-08-12T10:02:22.462Z</time>
      </trkpt>
      <trkpt lat="46.85323" lon="8.48965">
        <ele>2582</ele>
        <time>2021-08-12T10:02:23.462Z</time>
      </trkpt>
      <trkpt lat="46.85323" lon="8.48966">
        <ele>2582</ele>
        <time>2021-08-12T10:02:24.462Z</time>
      </trkpt>
      <trkpt lat="46.85323" lon="8.48967">
        <ele>2582</ele>
        <time>2021-08-12T10:02:25.462Z</time>
      </trkpt>
      <trkpt lat="46.85323" lon="8.48968">
        <ele>2582</ele>
        <time>2021-08-12T10:02:26.462Z</time>
      </trkpt>
      <trkpt lat="46.85323" lon="8.48969">
        <ele>2582</ele>
        <time>2021-08-12T10:02:27.462Z</time>
      </trkpt>
      <trkpt lat="46.85324" lon="8.4897">
        <ele>2582</ele>
        <time>2021-08-12T10:02:28.462Z</time>
      </trkpt>
      <trkpt lat="46.85324" lon="8.48971">
        <ele>2582</ele>
        <time>2021-08-12T10:02:29.461Z</time>
      </trkpt>
      <trkpt lat="46.85324" lon="8.48971">
        <ele>2582</ele>
        <time>2021-08-12T10:02:30.462Z</time>
      </trkpt>
      <trkpt lat="46.85324" lon="8.48971">
        <ele>2582</ele>
        <time>2021-08-12T10:02:31.462Z</time>
      </trkpt>
      <trkpt lat="46.85324" lon="8.4897">
        <ele>2584</ele>
        <time>2021-08-12T10:02:32.462Z</time>
      </trkpt>
      <trkpt lat="46.85325" lon="8.4897">
        <ele>2583</ele>
        <time>2021-08-12T10:02:33.463Z</time>
      </trkpt>
      <trkpt lat="46.85325" lon="8.4897">
        <ele>2583</ele>
        <time>2021-08-12T10:02:34.464Z</time>
      </trkpt>
      <trkpt lat="46.85325" lon="8.4897">
        <ele>2583</ele>
        <time>2021-08-12T10:02:35.463Z</time>
      </trkpt>
      <trkpt lat="46.85325" lon="8.4897">
        <ele>2583</ele>
        <time>2021-08-12T10:02:36.464Z</time>
      </trkpt>
      <trkpt lat="46.85325" lon="8.4897">
        <ele>2582</ele>
        <time>2021-08-12T10:02:37.463Z</time>
      </trkpt>
      <trkpt lat="46.85324" lon="8.48972">
        <ele>2578</ele>
        <time>2021-08-12T10:02:38.465Z</time>
      </trkpt>
      <trkpt lat="46.85323" lon="8.48971">
        <ele>2579</ele>
        <time>2021-08-12T10:02:39.466Z</time>
      </trkpt>
      <trkpt lat="46.85323" lon="8.48971">
        <ele>2578</ele>
        <time>2021-08-12T10:02:40.466Z</time>
      </trkpt>
      <trkpt lat="46.85324" lon="8.48971">
        <ele>2578</ele>
        <time>2021-08-12T10:02:41.465Z</time>
      </trkpt>
      <trkpt lat="46.85324" lon="8.48971">
        <ele>2578</ele>
        <time>2021-08-12T10:02:42.466Z</time>
      </trkpt>
      <trkpt lat="46.85325" lon="8.48971">
        <ele>2575</ele>
        <time>2021-08-12T10:02:43.466Z</time>
      </trkpt>
      <trkpt lat="46.85325" lon="8.48971">
        <ele>2575</ele>
        <time>2021-08-12T10:02:44.466Z</time>
      </trkpt>
      <trkpt lat="46.85325" lon="8.48969">
        <ele>2576</ele>
        <time>2021-08-12T10:02:45.465Z</time>
      </trkpt>
      <trkpt lat="46.85325" lon="8.48969">
        <ele>2576</ele>
        <time>2021-08-12T10:02:46.466Z</time>
      </trkpt>
      <trkpt lat="46.85324" lon="8.48967">
        <ele>2577</ele>
        <time>2021-08-12T10:02:47.465Z</time>
      </trkpt>
      <trkpt lat="46.85324" lon="8.48966">
        <ele>2577</ele>
        <time>2021-08-12T10:02:48.466Z</time>
      </trkpt>
      <trkpt lat="46.85324" lon="8.48965">
        <ele>2577</ele>
        <time>2021-08-12T10:02:49.466Z</time>
      </trkpt>
      <trkpt lat="46.85324" lon="8.48964">
        <ele>2577</ele>
        <time>2021-08-12T10:02:50.465Z</time>
      </trkpt>
      <trkpt lat="46.85324" lon="8.48963">
        <ele>2577</ele>
        <time>2021-08-12T10:02:51.466Z</time>
      </trkpt>
      <trkpt lat="46.85324" lon="8.48961">
        <ele>2578</ele>
        <time>2021-08-12T10:02:52.465Z</time>
      </trkpt>
      <trkpt lat="46.85323" lon="8.4896">
        <ele>2578</ele>
        <time>2021-08-12T10:02:53.466Z</time>
      </trkpt>
      <trkpt lat="46.85323" lon="8.48959">
        <ele>2578</ele>
        <time>2021-08-12T10:02:54.466Z</time>
      </trkpt>
      <trkpt lat="46.85323" lon="8.48958">
        <ele>2578</ele>
        <time>2021-08-12T10:02:55.465Z</time>
      </trkpt>
      <trkpt lat="46.85323" lon="8.48957">
        <ele>2579</ele>
        <time>2021-08-12T10:02:56.465Z</time>
      </trkpt>
      <trkpt lat="46.85323" lon="8.48956">
        <ele>2579</ele>
        <time>2021-08-12T10:02:57.465Z</time>
      </trkpt>
      <trkpt lat="46.85323" lon="8.48955">
        <ele>2579</ele>
        <time>2021-08-12T10:02:58.466Z</time>
      </trkpt>
      <trkpt lat="46.85323" lon="8.48955">
        <ele>2579</ele>
        <time>2021-08-12T10:02:59.465Z</time>
      </trkpt>
      <trkpt lat="46.85323" lon="8.48954">
        <ele>2579</ele>
        <time>2021-08-12T10:03:00.465Z</time>
      </trkpt>
      <trkpt lat="46.85323" lon="8.48953">
        <ele>2579</ele>
        <time>2021-08-12T10:03:01.466Z</time>
      </trkpt>
      <trkpt lat="46.85324" lon="8.48952">
        <ele>2579</ele>
        <time>2021-08-12T10:03:02.466Z</time>
      </trkpt>
      <trkpt lat="46.85324" lon="8.48951">
        <ele>2579</ele>
        <time>2021-08-12T10:03:03.465Z</time>
      </trkpt>
      <trkpt lat="46.85324" lon="8.48951">
        <ele>2580</ele>
        <time>2021-08-12T10:03:04.465Z</time>
      </trkpt>
      <trkpt lat="46.85325" lon="8.4895">
        <ele>2580</ele>
        <time>2021-08-12T10:03:05.465Z</time>
      </trkpt>
      <trkpt lat="46.85325" lon="8.48949">
        <ele>2581</ele>
        <time>2021-08-12T10:03:06.466Z</time>
      </trkpt>
      <trkpt lat="46.85326" lon="8.48949">
        <ele>2581</ele>
        <time>2021-08-12T10:03:07.466Z</time>
      </trkpt>
      <trkpt lat="46.85326" lon="8.48948">
        <ele>2582</ele>
        <time>2021-08-12T10:03:08.465Z</time>
      </trkpt>
      <trkpt lat="46.85326" lon="8.48948">
        <ele>2582</ele>
        <time>2021-08-12T10:03:09.466Z</time>
      </trkpt>
      <trkpt lat="46.85326" lon="8.48947">
        <ele>2582</ele>
        <time>2021-08-12T10:03:10.465Z</time>
      </trkpt>
      <trkpt lat="46.85326" lon="8.48947">
        <ele>2581</ele>
        <time>2021-08-12T10:03:11.465Z</time>
      </trkpt>
      <trkpt lat="46.85326" lon="8.48945">
        <ele>2580</ele>
        <time>2021-08-12T10:03:12.467Z</time>
      </trkpt>
      <trkpt lat="46.85327" lon="8.48945">
        <ele>2579</ele>
        <time>2021-08-12T10:03:13.467Z</time>
      </trkpt>
      <trkpt lat="46.85327" lon="8.48944">
        <ele>2579</ele>
        <time>2021-08-12T10:03:14.467Z</time>
      </trkpt>
      <trkpt lat="46.85328" lon="8.48943">
        <ele>2579</ele>
        <time>2021-08-12T10:03:15.467Z</time>
      </trkpt>
      <trkpt lat="46.85328" lon="8.48942">
        <ele>2578</ele>
        <time>2021-08-12T10:03:16.467Z</time>
      </trkpt>
      <trkpt lat="46.85328" lon="8.48941">
        <ele>2578</ele>
        <time>2021-08-12T10:03:17.466Z</time>
      </trkpt>
      <trkpt lat="46.85328" lon="8.48941">
        <ele>2577</ele>
        <time>2021-08-12T10:03:18.467Z</time>
      </trkpt>
      <trkpt lat="46.85327" lon="8.48942">
        <ele>2574</ele>
        <time>2021-08-12T10:03:19.469Z</time>
      </trkpt>
      <trkpt lat="46.85327" lon="8.48942">
        <ele>2574</ele>
        <time>2021-08-12T10:03:20.469Z</time>
      </trkpt>
      <trkpt lat="46.85326" lon="8.48942">
        <ele>2575</ele>
        <time>2021-08-12T10:03:21.469Z</time>
      </trkpt>
      <trkpt lat="46.85326" lon="8.48941">
        <ele>2575</ele>
        <time>2021-08-12T10:03:22.469Z</time>
      </trkpt>
      <trkpt lat="46.85325" lon="8.4894">
        <ele>2575</ele>
        <time>2021-08-12T10:03:23.469Z</time>
      </trkpt>
      <trkpt lat="46.85325" lon="8.4894">
        <ele>2575</ele>
        <time>2021-08-12T10:03:24.468Z</time>
      </trkpt>
      <trkpt lat="46.85325" lon="8.48939">
        <ele>2575</ele>
        <time>2021-08-12T10:03:25.468Z</time>
      </trkpt>
      <trkpt lat="46.85325" lon="8.48939">
        <ele>2575</ele>
        <time>2021-08-12T10:03:26.468Z</time>
      </trkpt>
      <trkpt lat="46.85326" lon="8.48939">
        <ele>2575</ele>
        <time>2021-08-12T10:03:27.469Z</time>
      </trkpt>
      <trkpt lat="46.85326" lon="8.48939">
        <ele>2575</ele>
        <time>2021-08-12T10:03:28.469Z</time>
      </trkpt>
      <trkpt lat="46.85327" lon="8.48939">
        <ele>2575</ele>
        <time>2021-08-12T10:03:29.469Z</time>
      </trkpt>
      <trkpt lat="46.85327" lon="8.48939">
        <ele>2575</ele>
        <time>2021-08-12T10:03:30.469Z</time>
      </trkpt>
      <trkpt lat="46.85328" lon="8.48938">
        <ele>2575</ele>
        <time>2021-08-12T10:03:31.469Z</time>
      </trkpt>
      <trkpt lat="46.85328" lon="8.48937">
        <ele>2576</ele>
        <time>2021-08-12T10:03:32.469Z</time>
      </trkpt>
      <trkpt lat="46.85328" lon="8.48936">
        <ele>2576</ele>
        <time>2021-08-12T10:03:33.468Z</time>
      </trkpt>
      <trkpt lat="46.85328" lon="8.48935">
        <ele>2576</ele>
        <time>2021-08-12T10:03:34.469Z</time>
      </trkpt>
      <trkpt lat="46.85328" lon="8.48934">
        <ele>2576</ele>
        <time>2021-08-12T10:03:35.469Z</time>
      </trkpt>
      <trkpt lat="46.85327" lon="8.48933">
        <ele>2576</ele>
        <time>2021-08-12T10:03:36.469Z</time>
      </trkpt>
      <trkpt lat="46.85326" lon="8.48933">
        <ele>2576</ele>
        <time>2021-08-12T10:03:37.468Z</time>
      </trkpt>
      <trkpt lat="46.85326" lon="8.48932">
        <ele>2576</ele>
        <time>2021-08-12T10:03:38.469Z</time>
      </trkpt>
      <trkpt lat="46.85326" lon="8.48932">
        <ele>2576</ele>
        <time>2021-08-12T10:03:39.469Z</time>
      </trkpt>
      <trkpt lat="46.85326" lon="8.48931">
        <ele>2577</ele>
        <time>2021-08-12T10:03:40.469Z</time>
      </trkpt>
      <trkpt lat="46.85326" lon="8.4893">
        <ele>2577</ele>
        <time>2021-08-12T10:03:41.468Z</time>
      </trkpt>
      <trkpt lat="46.85327" lon="8.4893">
        <ele>2576</ele>
        <time>2021-08-12T10:03:42.468Z</time>
      </trkpt>
      <trkpt lat="46.85327" lon="8.4893">
        <ele>2576</ele>
        <time>2021-08-12T10:03:43.469Z</time>
      </trkpt>
      <trkpt lat="46.85328" lon="8.48929">
        <ele>2575</ele>
        <time>2021-08-12T10:03:44.468Z</time>
      </trkpt>
      <trkpt lat="46.85328" lon="8.48928">
        <ele>2575</ele>
        <time>2021-08-12T10:03:45.469Z</time>
      </trkpt>
      <trkpt lat="46.85329" lon="8.48928">
        <ele>2575</ele>
        <time>2021-08-12T10:03:46.469Z</time>
      </trkpt>
      <trkpt lat="46.8533" lon="8.48927">
        <ele>2574</ele>
        <time>2021-08-12T10:03:47.469Z</time>
      </trkpt>
      <trkpt lat="46.8533" lon="8.48927">
        <ele>2574</ele>
        <time>2021-08-12T10:03:48.469Z</time>
      </trkpt>
      <trkpt lat="46.85331" lon="8.48925">
        <ele>2574</ele>
        <time>2021-08-12T10:03:49.468Z</time>
      </trkpt>
      <trkpt lat="46.85331" lon="8.48924">
        <ele>2574</ele>
        <time>2021-08-12T10:03:50.469Z</time>
      </trkpt>
      <trkpt lat="46.85331" lon="8.48924">
        <ele>2573</ele>
        <time>2021-08-12T10:03:51.468Z</time>
      </trkpt>
      <trkpt lat="46.8533" lon="8.48923">
        <ele>2573</ele>
        <time>2021-08-12T10:03:52.468Z</time>
      </trkpt>
      <trkpt lat="46.8533" lon="8.48922">
        <ele>2573</ele>
        <time>2021-08-12T10:03:53.469Z</time>
      </trkpt>
      <trkpt lat="46.85331" lon="8.48922">
        <ele>2572</ele>
        <time>2021-08-12T10:03:54.469Z</time>
      </trkpt>
      <trkpt lat="46.85331" lon="8.48921">
        <ele>2572</ele>
        <time>2021-08-12T10:03:55.468Z</time>
      </trkpt>
      <trkpt lat="46.85332" lon="8.4892">
        <ele>2572</ele>
        <time>2021-08-12T10:03:56.469Z</time>
      </trkpt>
      <trkpt lat="46.85333" lon="8.48919">
        <ele>2573</ele>
        <time>2021-08-12T10:03:57.468Z</time>
      </trkpt>
      <trkpt lat="46.85333" lon="8.48918">
        <ele>2574</ele>
        <time>2021-08-12T10:03:58.469Z</time>
      </trkpt>
      <trkpt lat="46.85332" lon="8.48916">
        <ele>2574</ele>
        <time>2021-08-12T10:03:59.469Z</time>
      </trkpt>
      <trkpt lat="46.85332" lon="8.48915">
        <ele>2574</ele>
        <time>2021-08-12T10:04:00.468Z</time>
      </trkpt>
      <trkpt lat="46.85332" lon="8.48914">
        <ele>2574</ele>
        <time>2021-08-12T10:04:01.469Z</time>
      </trkpt>
      <trkpt lat="46.85331" lon="8.48913">
        <ele>2574</ele>
        <time>2021-08-12T10:04:02.468Z</time>
      </trkpt>
      <trkpt lat="46.85332" lon="8.48912">
        <ele>2573</ele>
        <time>2021-08-12T10:04:03.469Z</time>
      </trkpt>
      <trkpt lat="46.85332" lon="8.48912">
        <ele>2573</ele>
        <time>2021-08-12T10:04:04.469Z</time>
      </trkpt>
      <trkpt lat="46.85332" lon="8.48912">
        <ele>2572</ele>
        <time>2021-08-12T10:04:05.469Z</time>
      </trkpt>
      <trkpt lat="46.85333" lon="8.48912">
        <ele>2572</ele>
        <time>2021-08-12T10:04:06.469Z</time>
      </trkpt>
      <trkpt lat="46.85334" lon="8.48911">
        <ele>2571</ele>
        <time>2021-08-12T10:04:07.469Z</time>
      </trkpt>
      <trkpt lat="46.85335" lon="8.48911">
        <ele>2571</ele>
        <time>2021-08-12T10:04:08.468Z</time>
      </trkpt>
      <trkpt lat="46.85335" lon="8.48909">
        <ele>2571</ele>
        <time>2021-08-12T10:04:09.468Z</time>
      </trkpt>
      <trkpt lat="46.85334" lon="8.48908">
        <ele>2571</ele>
        <time>2021-08-12T10:04:10.469Z</time>
      </trkpt>
      <trkpt lat="46.85334" lon="8.48907">
        <ele>2571</ele>
        <time>2021-08-12T10:04:11.469Z</time>
      </trkpt>
      <trkpt lat="46.85334" lon="8.48907">
        <ele>2570</ele>
        <time>2021-08-12T10:04:12.468Z</time>
      </trkpt>
      <trkpt lat="46.85334" lon="8.48905">
        <ele>2570</ele>
        <time>2021-08-12T10:04:13.469Z</time>
      </trkpt>
      <trkpt lat="46.85334" lon="8.48904">
        <ele>2569</ele>
        <time>2021-08-12T10:04:14.469Z</time>
      </trkpt>
      <trkpt lat="46.85334" lon="8.48903">
        <ele>2569</ele>
        <time>2021-08-12T10:04:15.468Z</time>
      </trkpt>
      <trkpt lat="46.85334" lon="8.48902">
        <ele>2569</ele>
        <time>2021-08-12T10:04:16.468Z</time>
      </trkpt>
      <trkpt lat="46.85334" lon="8.48901">
        <ele>2568</ele>
        <time>2021-08-12T10:04:17.469Z</time>
      </trkpt>
      <trkpt lat="46.85334" lon="8.489">
        <ele>2568</ele>
        <time>2021-08-12T10:04:18.468Z</time>
      </trkpt>
      <trkpt lat="46.85334" lon="8.48899">
        <ele>2568</ele>
        <time>2021-08-12T10:04:19.469Z</time>
      </trkpt>
      <trkpt lat="46.85335" lon="8.48897">
        <ele>2568</ele>
        <time>2021-08-12T10:04:20.469Z</time>
      </trkpt>
      <trkpt lat="46.85335" lon="8.48896">
        <ele>2568</ele>
        <time>2021-08-12T10:04:21.469Z</time>
      </trkpt>
      <trkpt lat="46.85335" lon="8.48895">
        <ele>2568</ele>
        <time>2021-08-12T10:04:22.469Z</time>
      </trkpt>
      <trkpt lat="46.85335" lon="8.48893">
        <ele>2568</ele>
        <time>2021-08-12T10:04:23.468Z</time>
      </trkpt>
      <trkpt lat="46.85336" lon="8.48893">
        <ele>2567</ele>
        <time>2021-08-12T10:04:24.469Z</time>
      </trkpt>
      <trkpt lat="46.85336" lon="8.48892">
        <ele>2566</ele>
        <time>2021-08-12T10:04:25.469Z</time>
      </trkpt>
      <trkpt lat="46.85337" lon="8.48892">
        <ele>2566</ele>
        <time>2021-08-12T10:04:26.469Z</time>
      </trkpt>
      <trkpt lat="46.85337" lon="8.48891">
        <ele>2565</ele>
        <time>2021-08-12T10:04:27.468Z</time>
      </trkpt>
      <trkpt lat="46.85337" lon="8.48889">
        <ele>2565</ele>
        <time>2021-08-12T10:04:28.469Z</time>
      </trkpt>
      <trkpt lat="46.85337" lon="8.48888">
        <ele>2565</ele>
        <time>2021-08-12T10:04:29.468Z</time>
      </trkpt>
      <trkpt lat="46.85336" lon="8.48887">
        <ele>2565</ele>
        <time>2021-08-12T10:04:30.469Z</time>
      </trkpt>
      <trkpt lat="46.85335" lon="8.48886">
        <ele>2564</ele>
        <time>2021-08-12T10:04:31.469Z</time>
      </trkpt>
      <trkpt lat="46.85335" lon="8.48885">
        <ele>2563</ele>
        <time>2021-08-12T10:04:32.469Z</time>
      </trkpt>
      <trkpt lat="46.85334" lon="8.48884">
        <ele>2562</ele>
        <time>2021-08-12T10:04:33.468Z</time>
      </trkpt>
      <trkpt lat="46.85334" lon="8.48883">
        <ele>2561</ele>
        <time>2021-08-12T10:04:34.469Z</time>
      </trkpt>
      <trkpt lat="46.85334" lon="8.48882">
        <ele>2561</ele>
        <time>2021-08-12T10:04:35.469Z</time>
      </trkpt>
      <trkpt lat="46.85334" lon="8.48881">
        <ele>2560</ele>
        <time>2021-08-12T10:04:36.469Z</time>
      </trkpt>
      <trkpt lat="46.85334" lon="8.4888">
        <ele>2560</ele>
        <time>2021-08-12T10:04:37.469Z</time>
      </trkpt>
      <trkpt lat="46.85334" lon="8.48879">
        <ele>2560</ele>
        <time>2021-08-12T10:04:38.469Z</time>
      </trkpt>
      <trkpt lat="46.85335" lon="8.48878">
        <ele>2559</ele>
        <time>2021-08-12T10:04:39.469Z</time>
      </trkpt>
      <trkpt lat="46.85335" lon="8.48877">
        <ele>2559</ele>
        <time>2021-08-12T10:04:40.468Z</time>
      </trkpt>
      <trkpt lat="46.85335" lon="8.48877">
        <ele>2560</ele>
        <time>2021-08-12T10:04:41.469Z</time>
      </trkpt>
      <trkpt lat="46.85333" lon="8.48877">
        <ele>2557</ele>
        <time>2021-08-12T10:04:42.470Z</time>
      </trkpt>
      <trkpt lat="46.85333" lon="8.48877">
        <ele>2558</ele>
        <time>2021-08-12T10:04:43.470Z</time>
      </trkpt>
      <trkpt lat="46.85334" lon="8.4888">
        <ele>2560</ele>
        <time>2021-08-12T10:04:44.471Z</time>
      </trkpt>
      <trkpt lat="46.85334" lon="8.4888">
        <ele>2560</ele>
        <time>2021-08-12T10:04:45.471Z</time>
      </trkpt>
      <trkpt lat="46.85335" lon="8.4888">
        <ele>2561</ele>
        <time>2021-08-12T10:04:46.471Z</time>
      </trkpt>
      <trkpt lat="46.85336" lon="8.48876">
        <ele>2560</ele>
        <time>2021-08-12T10:04:47.472Z</time>
      </trkpt>
      <trkpt lat="46.85336" lon="8.48876">
        <ele>2560</ele>
        <time>2021-08-12T10:04:48.472Z</time>
      </trkpt>
      <trkpt lat="46.85336" lon="8.48876">
        <ele>2561</ele>
        <time>2021-08-12T10:04:49.471Z</time>
      </trkpt>
      <trkpt lat="46.85337" lon="8.48878">
        <ele>2563</ele>
        <time>2021-08-12T10:04:50.472Z</time>
      </trkpt>
      <trkpt lat="46.85337" lon="8.48879">
        <ele>2562</ele>
        <time>2021-08-12T10:04:51.472Z</time>
      </trkpt>
      <trkpt lat="46.85337" lon="8.48879">
        <ele>2562</ele>
        <time>2021-08-12T10:04:52.471Z</time>
      </trkpt>
      <trkpt lat="46.85338" lon="8.48879">
        <ele>2562</ele>
        <time>2021-08-12T10:04:53.472Z</time>
      </trkpt>
      <trkpt lat="46.85338" lon="8.48879">
        <ele>2562</ele>
        <time>2021-08-12T10:04:54.471Z</time>
      </trkpt>
      <trkpt lat="46.85338" lon="8.48879">
        <ele>2561</ele>
        <time>2021-08-12T10:04:55.472Z</time>
      </trkpt>
      <trkpt lat="46.85338" lon="8.48878">
        <ele>2561</ele>
        <time>2021-08-12T10:04:56.471Z</time>
      </trkpt>
      <trkpt lat="46.85338" lon="8.48878">
        <ele>2561</ele>
        <time>2021-08-12T10:04:57.472Z</time>
      </trkpt>
      <trkpt lat="46.85338" lon="8.48877">
        <ele>2561</ele>
        <time>2021-08-12T10:04:58.472Z</time>
      </trkpt>
      <trkpt lat="46.85337" lon="8.48876">
        <ele>2557</ele>
        <time>2021-08-12T10:04:59.473Z</time>
      </trkpt>
      <trkpt lat="46.85337" lon="8.48876">
        <ele>2557</ele>
        <time>2021-08-12T10:05:00.473Z</time>
      </trkpt>
      <trkpt lat="46.85337" lon="8.48876">
        <ele>2557</ele>
        <time>2021-08-12T10:05:01.473Z</time>
      </trkpt>
      <trkpt lat="46.85338" lon="8.48876">
        <ele>2557</ele>
        <time>2021-08-12T10:05:02.473Z</time>
      </trkpt>
      <trkpt lat="46.8534" lon="8.48876">
        <ele>2561</ele>
        <time>2021-08-12T10:05:03.473Z</time>
      </trkpt>
      <trkpt lat="46.8534" lon="8.48876">
        <ele>2562</ele>
        <time>2021-08-12T10:05:04.473Z</time>
      </trkpt>
      <trkpt lat="46.8534" lon="8.48875">
        <ele>2563</ele>
        <time>2021-08-12T10:05:05.472Z</time>
      </trkpt>
      <trkpt lat="46.8534" lon="8.48875">
        <ele>2563</ele>
        <time>2021-08-12T10:05:06.472Z</time>
      </trkpt>
      <trkpt lat="46.85337" lon="8.48877">
        <ele>2556</ele>
        <time>2021-08-12T10:05:07.473Z</time>
      </trkpt>
      <trkpt lat="46.85335" lon="8.48878">
        <ele>2560</ele>
        <time>2021-08-12T10:05:08.474Z</time>
      </trkpt>
      <trkpt lat="46.85333" lon="8.48877">
        <ele>2564</ele>
        <time>2021-08-12T10:05:09.474Z</time>
      </trkpt>
      <trkpt lat="46.85333" lon="8.48876">
        <ele>2565</ele>
        <time>2021-08-12T10:05:10.474Z</time>
      </trkpt>
      <trkpt lat="46.85333" lon="8.48879">
        <ele>2568</ele>
        <time>2021-08-12T10:05:11.474Z</time>
      </trkpt>
      <trkpt lat="46.85333" lon="8.48879">
        <ele>2567</ele>
        <time>2021-08-12T10:05:12.475Z</time>
      </trkpt>
      <trkpt lat="46.85332" lon="8.48877">
        <ele>2567</ele>
        <time>2021-08-12T10:05:13.476Z</time>
      </trkpt>
      <trkpt lat="46.85332" lon="8.48877">
        <ele>2567</ele>
        <time>2021-08-12T10:05:14.475Z</time>
      </trkpt>
      <trkpt lat="46.85332" lon="8.48877">
        <ele>2566</ele>
        <time>2021-08-12T10:05:15.476Z</time>
      </trkpt>
      <trkpt lat="46.85332" lon="8.48877">
        <ele>2566</ele>
        <time>2021-08-12T10:05:16.475Z</time>
      </trkpt>
      <trkpt lat="46.85335" lon="8.48877">
        <ele>2560</ele>
        <time>2021-08-12T10:05:17.476Z</time>
      </trkpt>
      <trkpt lat="46.85335" lon="8.48877">
        <ele>2560</ele>
        <time>2021-08-12T10:05:18.475Z</time>
      </trkpt>
      <trkpt lat="46.85335" lon="8.48879">
        <ele>2561</ele>
        <time>2021-08-12T10:05:19.475Z</time>
      </trkpt>
      <trkpt lat="46.85335" lon="8.48879">
        <ele>2561</ele>
        <time>2021-08-12T10:05:20.476Z</time>
      </trkpt>
      <trkpt lat="46.85335" lon="8.48879">
        <ele>2561</ele>
        <time>2021-08-12T10:05:21.476Z</time>
      </trkpt>
      <trkpt lat="46.85335" lon="8.4888">
        <ele>2561</ele>
        <time>2021-08-12T10:05:22.476Z</time>
      </trkpt>
      <trkpt lat="46.85337" lon="8.48882">
        <ele>2562</ele>
        <time>2021-08-12T10:05:23.477Z</time>
      </trkpt>
      <trkpt lat="46.85337" lon="8.48882">
        <ele>2562</ele>
        <time>2021-08-12T10:05:24.477Z</time>
      </trkpt>
      <trkpt lat="46.85338" lon="8.48883">
        <ele>2562</ele>
        <time>2021-08-12T10:05:25.477Z</time>
      </trkpt>
      <trkpt lat="46.85338" lon="8.48884">
        <ele>2562</ele>
        <time>2021-08-12T10:05:26.478Z</time>
      </trkpt>
      <trkpt lat="46.85339" lon="8.48884">
        <ele>2562</ele>
        <time>2021-08-12T10:05:27.478Z</time>
      </trkpt>
      <trkpt lat="46.85339" lon="8.48885">
        <ele>2562</ele>
        <time>2021-08-12T10:05:28.478Z</time>
      </trkpt>
      <trkpt lat="46.8534" lon="8.48885">
        <ele>2563</ele>
        <time>2021-08-12T10:05:29.477Z</time>
      </trkpt>
      <trkpt lat="46.8534" lon="8.48886">
        <ele>2562</ele>
        <time>2021-08-12T10:05:30.477Z</time>
      </trkpt>
      <trkpt lat="46.8534" lon="8.48886">
        <ele>2562</ele>
        <time>2021-08-12T10:05:31.478Z</time>
      </trkpt>
      <trkpt lat="46.85337" lon="8.48883">
        <ele>2561</ele>
        <time>2021-08-12T10:05:32.479Z</time>
      </trkpt>
      <trkpt lat="46.85337" lon="8.48883">
        <ele>2562</ele>
        <time>2021-08-12T10:05:33.479Z</time>
      </trkpt>
      <trkpt lat="46.85338" lon="8.48882">
        <ele>2561</ele>
        <time>2021-08-12T10:05:34.478Z</time>
      </trkpt>
      <trkpt lat="46.85338" lon="8.48882">
        <ele>2561</ele>
        <time>2021-08-12T10:05:35.479Z</time>
      </trkpt>
      <trkpt lat="46.85338" lon="8.48882">
        <ele>2561</ele>
        <time>2021-08-12T10:05:36.479Z</time>
      </trkpt>
      <trkpt lat="46.85339" lon="8.48883">
        <ele>2562</ele>
        <time>2021-08-12T10:05:37.479Z</time>
      </trkpt>
      <trkpt lat="46.85339" lon="8.48882">
        <ele>2562</ele>
        <time>2021-08-12T10:05:38.480Z</time>
      </trkpt>
      <trkpt lat="46.85338" lon="8.48881">
        <ele>2562</ele>
        <time>2021-08-12T10:05:39.479Z</time>
      </trkpt>
      <trkpt lat="46.85338" lon="8.4888">
        <ele>2561</ele>
        <time>2021-08-12T10:05:40.480Z</time>
      </trkpt>
      <trkpt lat="46.85337" lon="8.48879">
        <ele>2561</ele>
        <time>2021-08-12T10:05:41.479Z</time>
      </trkpt>
      <trkpt lat="46.85337" lon="8.48879">
        <ele>2561</ele>
        <time>2021-08-12T10:05:42.480Z</time>
      </trkpt>
      <trkpt lat="46.85336" lon="8.48878">
        <ele>2560</ele>
        <time>2021-08-12T10:05:43.480Z</time>
      </trkpt>
      <trkpt lat="46.85336" lon="8.48878">
        <ele>2560</ele>
        <time>2021-08-12T10:05:44.480Z</time>
      </trkpt>
      <trkpt lat="46.85336" lon="8.48877">
        <ele>2559</ele>
        <time>2021-08-12T10:05:45.479Z</time>
      </trkpt>
      <trkpt lat="46.85335" lon="8.48877">
        <ele>2559</ele>
        <time>2021-08-12T10:05:46.480Z</time>
      </trkpt>
      <trkpt lat="46.85335" lon="8.48877">
        <ele>2558</ele>
        <time>2021-08-12T10:05:47.480Z</time>
      </trkpt>
      <trkpt lat="46.85335" lon="8.48876">
        <ele>2558</ele>
        <time>2021-08-12T10:05:48.479Z</time>
      </trkpt>
      <trkpt lat="46.85334" lon="8.48876">
        <ele>2558</ele>
        <time>2021-08-12T10:05:49.481Z</time>
      </trkpt>
      <trkpt lat="46.85334" lon="8.48875">
        <ele>2557</ele>
        <time>2021-08-12T10:05:50.480Z</time>
      </trkpt>
      <trkpt lat="46.85334" lon="8.48876">
        <ele>2557</ele>
        <time>2021-08-12T10:05:51.480Z</time>
      </trkpt>
      <trkpt lat="46.85333" lon="8.48875">
        <ele>2557</ele>
        <time>2021-08-12T10:05:52.480Z</time>
      </trkpt>
      <trkpt lat="46.85333" lon="8.48875">
        <ele>2556</ele>
        <time>2021-08-12T10:05:53.483Z</time>
      </trkpt>
      <trkpt lat="46.85334" lon="8.48875">
        <ele>2556</ele>
        <time>2021-08-12T10:05:54.483Z</time>
      </trkpt>
      <trkpt lat="46.85334" lon="8.48875">
        <ele>2556</ele>
        <time>2021-08-12T10:05:55.482Z</time>
      </trkpt>
      <trkpt lat="46.85333" lon="8.48876">
        <ele>2561</ele>
        <time>2021-08-12T10:05:56.484Z</time>
      </trkpt>
      <trkpt lat="46.85334" lon="8.48876">
        <ele>2560</ele>
        <time>2021-08-12T10:05:57.484Z</time>
      </trkpt>
      <trkpt lat="46.85334" lon="8.48875">
        <ele>2560</ele>
        <time>2021-08-12T10:05:58.483Z</time>
      </trkpt>
      <trkpt lat="46.85334" lon="8.48876">
        <ele>2559</ele>
        <time>2021-08-12T10:05:59.484Z</time>
      </trkpt>
      <trkpt lat="46.85335" lon="8.48874">
        <ele>2556</ele>
        <time>2021-08-12T10:06:00.485Z</time>
      </trkpt>
      <trkpt lat="46.85335" lon="8.48874">
        <ele>2557</ele>
        <time>2021-08-12T10:06:01.485Z</time>
      </trkpt>
      <trkpt lat="46.85334" lon="8.48874">
        <ele>2557</ele>
        <time>2021-08-12T10:06:02.485Z</time>
      </trkpt>
      <trkpt lat="46.85334" lon="8.48875">
        <ele>2557</ele>
        <time>2021-08-12T10:06:03.486Z</time>
      </trkpt>
      <trkpt lat="46.85335" lon="8.48875">
        <ele>2556</ele>
        <time>2021-08-12T10:06:04.485Z</time>
      </trkpt>
      <trkpt lat="46.85335" lon="8.48875">
        <ele>2556</ele>
        <time>2021-08-12T10:06:05.485Z</time>
      </trkpt>
      <trkpt lat="46.85335" lon="8.48875">
        <ele>2555</ele>
        <time>2021-08-12T10:06:06.487Z</time>
      </trkpt>
      <trkpt lat="46.85335" lon="8.48875">
        <ele>2556</ele>
        <time>2021-08-12T10:06:07.487Z</time>
      </trkpt>
      <trkpt lat="46.85335" lon="8.48875">
        <ele>2556</ele>
        <time>2021-08-12T10:06:08.487Z</time>
      </trkpt>
      <trkpt lat="46.85334" lon="8.48876">
        <ele>2556</ele>
        <time>2021-08-12T10:06:09.487Z</time>
      </trkpt>
      <trkpt lat="46.85334" lon="8.48876">
        <ele>2556</ele>
        <time>2021-08-12T10:06:10.487Z</time>
      </trkpt>
      <trkpt lat="46.85334" lon="8.48875">
        <ele>2556</ele>
        <time>2021-08-12T10:06:11.487Z</time>
      </trkpt>
      <trkpt lat="46.85334" lon="8.48875">
        <ele>2555</ele>
        <time>2021-08-12T10:06:12.487Z</time>
      </trkpt>
      <trkpt lat="46.85334" lon="8.48875">
        <ele>2555</ele>
        <time>2021-08-12T10:06:13.487Z</time>
      </trkpt>
      <trkpt lat="46.85334" lon="8.48875">
        <ele>2554</ele>
        <time>2021-08-12T10:06:14.487Z</time>
      </trkpt>
      <trkpt lat="46.85334" lon="8.48875">
        <ele>2553</ele>
        <time>2021-08-12T10:06:15.487Z</time>
      </trkpt>
      <trkpt lat="46.85335" lon="8.48875">
        <ele>2554</ele>
        <time>2021-08-12T10:06:16.487Z</time>
      </trkpt>
      <trkpt lat="46.85335" lon="8.48875">
        <ele>2554</ele>
        <time>2021-08-12T10:06:17.487Z</time>
      </trkpt>
      <trkpt lat="46.85334" lon="8.48875">
        <ele>2555</ele>
        <time>2021-08-12T10:06:18.487Z</time>
      </trkpt>
      <trkpt lat="46.85333" lon="8.48875">
        <ele>2558</ele>
        <time>2021-08-12T10:06:19.488Z</time>
      </trkpt>
      <trkpt lat="46.85332" lon="8.48875">
        <ele>2558</ele>
        <time>2021-08-12T10:06:20.487Z</time>
      </trkpt>
      <trkpt lat="46.85332" lon="8.48875">
        <ele>2559</ele>
        <time>2021-08-12T10:06:21.489Z</time>
      </trkpt>
      <trkpt lat="46.85331" lon="8.48874">
        <ele>2560</ele>
        <time>2021-08-12T10:06:22.488Z</time>
      </trkpt>
      <trkpt lat="46.85332" lon="8.48875">
        <ele>2559</ele>
        <time>2021-08-12T10:06:23.489Z</time>
      </trkpt>
      <trkpt lat="46.85333" lon="8.48875">
        <ele>2556</ele>
        <time>2021-08-12T10:06:24.489Z</time>
      </trkpt>
      <trkpt lat="46.85333" lon="8.48875">
        <ele>2556</ele>
        <time>2021-08-12T10:06:25.489Z</time>
      </trkpt>
      <trkpt lat="46.85333" lon="8.48876">
        <ele>2557</ele>
        <time>2021-08-12T10:06:26.488Z</time>
      </trkpt>
      <trkpt lat="46.85333" lon="8.48876">
        <ele>2558</ele>
        <time>2021-08-12T10:06:27.488Z</time>
      </trkpt>
      <trkpt lat="46.85333" lon="8.48875">
        <ele>2558</ele>
        <time>2021-08-12T10:06:28.489Z</time>
      </trkpt>
      <trkpt lat="46.85333" lon="8.48875">
        <ele>2560</ele>
        <time>2021-08-12T10:06:29.489Z</time>
      </trkpt>
      <trkpt lat="46.85334" lon="8.48875">
        <ele>2560</ele>
        <time>2021-08-12T10:06:30.490Z</time>
      </trkpt>
      <trkpt lat="46.85334" lon="8.48875">
        <ele>2561</ele>
        <time>2021-08-12T10:06:31.489Z</time>
      </trkpt>
      <trkpt lat="46.85334" lon="8.48875">
        <ele>2562</ele>
        <time>2021-08-12T10:06:32.489Z</time>
      </trkpt>
      <trkpt lat="46.85334" lon="8.48876">
        <ele>2562</ele>
        <time>2021-08-12T10:06:33.490Z</time>
      </trkpt>
      <trkpt lat="46.85334" lon="8.48874">
        <ele>2565</ele>
        <time>2021-08-12T10:06:34.491Z</time>
      </trkpt>
      <trkpt lat="46.85334" lon="8.48874">
        <ele>2565</ele>
        <time>2021-08-12T10:06:35.491Z</time>
      </trkpt>
      <trkpt lat="46.85334" lon="8.48874">
        <ele>2565</ele>
        <time>2021-08-12T10:06:36.490Z</time>
      </trkpt>
      <trkpt lat="46.85333" lon="8.48873">
        <ele>2565</ele>
        <time>2021-08-12T10:06:37.490Z</time>
      </trkpt>
      <trkpt lat="46.85334" lon="8.48874">
        <ele>2557</ele>
        <time>2021-08-12T10:06:38.492Z</time>
      </trkpt>
      <trkpt lat="46.85333" lon="8.48873">
        <ele>2555</ele>
        <time>2021-08-12T10:06:39.493Z</time>
      </trkpt>
      <trkpt lat="46.85333" lon="8.48872">
        <ele>2554</ele>
        <time>2021-08-12T10:06:40.493Z</time>
      </trkpt>
      <trkpt lat="46.85333" lon="8.48871">
        <ele>2554</ele>
        <time>2021-08-12T10:06:41.492Z</time>
      </trkpt>
      <trkpt lat="46.85333" lon="8.48872">
        <ele>2553</ele>
        <time>2021-08-12T10:06:42.492Z</time>
      </trkpt>
      <trkpt lat="46.85332" lon="8.4887">
        <ele>2555</ele>
        <time>2021-08-12T10:06:43.493Z</time>
      </trkpt>
      <trkpt lat="46.85332" lon="8.4887">
        <ele>2555</ele>
        <time>2021-08-12T10:06:44.493Z</time>
      </trkpt>
      <trkpt lat="46.85332" lon="8.4887">
        <ele>2555</ele>
        <time>2021-08-12T10:06:45.493Z</time>
      </trkpt>
      <trkpt lat="46.85332" lon="8.4887">
        <ele>2555</ele>
        <time>2021-08-12T10:06:46.493Z</time>
      </trkpt>
      <trkpt lat="46.85331" lon="8.48871">
        <ele>2554</ele>
        <time>2021-08-12T10:06:47.493Z</time>
      </trkpt>
      <trkpt lat="46.85329" lon="8.4887">
        <ele>2554</ele>
        <time>2021-08-12T10:06:48.493Z</time>
      </trkpt>
      <trkpt lat="46.85329" lon="8.4887">
        <ele>2554</ele>
        <time>2021-08-12T10:06:49.493Z</time>
      </trkpt>
      <trkpt lat="46.85329" lon="8.48869">
        <ele>2554</ele>
        <time>2021-08-12T10:06:50.493Z</time>
      </trkpt>
      <trkpt lat="46.85329" lon="8.48868">
        <ele>2554</ele>
        <time>2021-08-12T10:06:51.494Z</time>
      </trkpt>
      <trkpt lat="46.85329" lon="8.48867">
        <ele>2554</ele>
        <time>2021-08-12T10:06:52.493Z</time>
      </trkpt>
      <trkpt lat="46.85329" lon="8.48867">
        <ele>2553</ele>
        <time>2021-08-12T10:06:53.495Z</time>
      </trkpt>
      <trkpt lat="46.85329" lon="8.48866">
        <ele>2552</ele>
        <time>2021-08-12T10:06:54.495Z</time>
      </trkpt>
      <trkpt lat="46.8533" lon="8.48866">
        <ele>2552</ele>
        <time>2021-08-12T10:06:55.495Z</time>
      </trkpt>
      <trkpt lat="46.8533" lon="8.48865">
        <ele>2551</ele>
        <time>2021-08-12T10:06:56.495Z</time>
      </trkpt>
      <trkpt lat="46.85329" lon="8.48864">
        <ele>2551</ele>
        <time>2021-08-12T10:06:57.496Z</time>
      </trkpt>
      <trkpt lat="46.85329" lon="8.48863">
        <ele>2551</ele>
        <time>2021-08-12T10:06:58.495Z</time>
      </trkpt>
      <trkpt lat="46.85329" lon="8.48863">
        <ele>2551</ele>
        <time>2021-08-12T10:06:59.495Z</time>
      </trkpt>
      <trkpt lat="46.85329" lon="8.48861">
        <ele>2552</ele>
        <time>2021-08-12T10:07:00.497Z</time>
      </trkpt>
      <trkpt lat="46.85329" lon="8.48861">
        <ele>2552</ele>
        <time>2021-08-12T10:07:01.497Z</time>
      </trkpt>
      <trkpt lat="46.85329" lon="8.4886">
        <ele>2552</ele>
        <time>2021-08-12T10:07:02.497Z</time>
      </trkpt>
      <trkpt lat="46.85328" lon="8.4886">
        <ele>2552</ele>
        <time>2021-08-12T10:07:03.497Z</time>
      </trkpt>
      <trkpt lat="46.85328" lon="8.48859">
        <ele>2552</ele>
        <time>2021-08-12T10:07:04.497Z</time>
      </trkpt>
      <trkpt lat="46.85328" lon="8.48859">
        <ele>2551</ele>
        <time>2021-08-12T10:07:05.497Z</time>
      </trkpt>
      <trkpt lat="46.85327" lon="8.4886">
        <ele>2551</ele>
        <time>2021-08-12T10:07:06.496Z</time>
      </trkpt>
      <trkpt lat="46.85326" lon="8.48859">
        <ele>2551</ele>
        <time>2021-08-12T10:07:07.497Z</time>
      </trkpt>
      <trkpt lat="46.85325" lon="8.4886">
        <ele>2551</ele>
        <time>2021-08-12T10:07:08.497Z</time>
      </trkpt>
      <trkpt lat="46.85325" lon="8.48861">
        <ele>2551</ele>
        <time>2021-08-12T10:07:09.497Z</time>
      </trkpt>
      <trkpt lat="46.85324" lon="8.48861">
        <ele>2551</ele>
        <time>2021-08-12T10:07:10.496Z</time>
      </trkpt>
      <trkpt lat="46.85324" lon="8.48862">
        <ele>2550</ele>
        <time>2021-08-12T10:07:11.497Z</time>
      </trkpt>
      <trkpt lat="46.85324" lon="8.48862">
        <ele>2550</ele>
        <time>2021-08-12T10:07:12.497Z</time>
      </trkpt>
      <trkpt lat="46.85323" lon="8.48863">
        <ele>2550</ele>
        <time>2021-08-12T10:07:13.497Z</time>
      </trkpt>
      <trkpt lat="46.85323" lon="8.48863">
        <ele>2549</ele>
        <time>2021-08-12T10:07:14.497Z</time>
      </trkpt>
      <trkpt lat="46.85322" lon="8.48863">
        <ele>2549</ele>
        <time>2021-08-12T10:07:15.497Z</time>
      </trkpt>
      <trkpt lat="46.85323" lon="8.48863">
        <ele>2548</ele>
        <time>2021-08-12T10:07:16.497Z</time>
      </trkpt>
      <trkpt lat="46.85324" lon="8.48863">
        <ele>2548</ele>
        <time>2021-08-12T10:07:17.496Z</time>
      </trkpt>
      <trkpt lat="46.85324" lon="8.48863">
        <ele>2548</ele>
        <time>2021-08-12T10:07:18.497Z</time>
      </trkpt>
      <trkpt lat="46.85324" lon="8.48863">
        <ele>2548</ele>
        <time>2021-08-12T10:07:19.497Z</time>
      </trkpt>
      <trkpt lat="46.85324" lon="8.48862">
        <ele>2548</ele>
        <time>2021-08-12T10:07:20.497Z</time>
      </trkpt>
      <trkpt lat="46.85324" lon="8.48861">
        <ele>2548</ele>
        <time>2021-08-12T10:07:21.497Z</time>
      </trkpt>
      <trkpt lat="46.85324" lon="8.4886">
        <ele>2548</ele>
        <time>2021-08-12T10:07:22.497Z</time>
      </trkpt>
      <trkpt lat="46.85324" lon="8.4886">
        <ele>2547</ele>
        <time>2021-08-12T10:07:23.496Z</time>
      </trkpt>
      <trkpt lat="46.85323" lon="8.48861">
        <ele>2547</ele>
        <time>2021-08-12T10:07:24.497Z</time>
      </trkpt>
      <trkpt lat="46.85323" lon="8.48861">
        <ele>2547</ele>
        <time>2021-08-12T10:07:25.497Z</time>
      </trkpt>
      <trkpt lat="46.85322" lon="8.48861">
        <ele>2547</ele>
        <time>2021-08-12T10:07:26.496Z</time>
      </trkpt>
      <trkpt lat="46.85322" lon="8.48861">
        <ele>2547</ele>
        <time>2021-08-12T10:07:27.496Z</time>
      </trkpt>
      <trkpt lat="46.85321" lon="8.48861">
        <ele>2546</ele>
        <time>2021-08-12T10:07:28.496Z</time>
      </trkpt>
      <trkpt lat="46.85321" lon="8.48861">
        <ele>2545</ele>
        <time>2021-08-12T10:07:29.497Z</time>
      </trkpt>
      <trkpt lat="46.85322" lon="8.4886">
        <ele>2545</ele>
        <time>2021-08-12T10:07:30.496Z</time>
      </trkpt>
      <trkpt lat="46.85322" lon="8.4886">
        <ele>2545</ele>
        <time>2021-08-12T10:07:31.497Z</time>
      </trkpt>
      <trkpt lat="46.85322" lon="8.48859">
        <ele>2545</ele>
        <time>2021-08-12T10:07:32.496Z</time>
      </trkpt>
      <trkpt lat="46.85322" lon="8.48858">
        <ele>2544</ele>
        <time>2021-08-12T10:07:33.497Z</time>
      </trkpt>
      <trkpt lat="46.8532" lon="8.48856">
        <ele>2544</ele>
        <time>2021-08-12T10:07:34.497Z</time>
      </trkpt>
      <trkpt lat="46.8532" lon="8.48854">
        <ele>2544</ele>
        <time>2021-08-12T10:07:35.496Z</time>
      </trkpt>
      <trkpt lat="46.85321" lon="8.48853">
        <ele>2543</ele>
        <time>2021-08-12T10:07:36.497Z</time>
      </trkpt>
      <trkpt lat="46.85322" lon="8.48853">
        <ele>2542</ele>
        <time>2021-08-12T10:07:37.496Z</time>
      </trkpt>
      <trkpt lat="46.85323" lon="8.48852">
        <ele>2542</ele>
        <time>2021-08-12T10:07:38.497Z</time>
      </trkpt>
      <trkpt lat="46.85323" lon="8.48851">
        <ele>2542</ele>
        <time>2021-08-12T10:07:39.496Z</time>
      </trkpt>
      <trkpt lat="46.85323" lon="8.4885">
        <ele>2542</ele>
        <time>2021-08-12T10:07:40.497Z</time>
      </trkpt>
      <trkpt lat="46.85321" lon="8.48849">
        <ele>2543</ele>
        <time>2021-08-12T10:07:41.497Z</time>
      </trkpt>
      <trkpt lat="46.8532" lon="8.48849">
        <ele>2544</ele>
        <time>2021-08-12T10:07:42.497Z</time>
      </trkpt>
      <trkpt lat="46.8532" lon="8.48849">
        <ele>2544</ele>
        <time>2021-08-12T10:07:43.497Z</time>
      </trkpt>
      <trkpt lat="46.85319" lon="8.48849">
        <ele>2544</ele>
        <time>2021-08-12T10:07:44.496Z</time>
      </trkpt>
      <trkpt lat="46.85318" lon="8.48848">
        <ele>2544</ele>
        <time>2021-08-12T10:07:45.497Z</time>
      </trkpt>
      <trkpt lat="46.85318" lon="8.48848">
        <ele>2545</ele>
        <time>2021-08-12T10:07:46.497Z</time>
      </trkpt>
      <trkpt lat="46.85317" lon="8.48847">
        <ele>2545</ele>
        <time>2021-08-12T10:07:47.496Z</time>
      </trkpt>
      <trkpt lat="46.85317" lon="8.48847">
        <ele>2545</ele>
        <time>2021-08-12T10:07:48.496Z</time>
      </trkpt>
      <trkpt lat="46.85318" lon="8.48847">
        <ele>2544</ele>
        <time>2021-08-12T10:07:49.497Z</time>
      </trkpt>
      <trkpt lat="46.85318" lon="8.48847">
        <ele>2544</ele>
        <time>2021-08-12T10:07:50.497Z</time>
      </trkpt>
      <trkpt lat="46.85319" lon="8.48846">
        <ele>2544</ele>
        <time>2021-08-12T10:07:51.497Z</time>
      </trkpt>
      <trkpt lat="46.85319" lon="8.48846">
        <ele>2544</ele>
        <time>2021-08-12T10:07:52.497Z</time>
      </trkpt>
      <trkpt lat="46.85319" lon="8.48846">
        <ele>2544</ele>
        <time>2021-08-12T10:07:53.497Z</time>
      </trkpt>
      <trkpt lat="46.85318" lon="8.48845">
        <ele>2544</ele>
        <time>2021-08-12T10:07:54.497Z</time>
      </trkpt>
      <trkpt lat="46.85318" lon="8.48844">
        <ele>2544</ele>
        <time>2021-08-12T10:07:55.496Z</time>
      </trkpt>
      <trkpt lat="46.85317" lon="8.48843">
        <ele>2544</ele>
        <time>2021-08-12T10:07:56.496Z</time>
      </trkpt>
      <trkpt lat="46.85317" lon="8.48843">
        <ele>2544</ele>
        <time>2021-08-12T10:07:57.496Z</time>
      </trkpt>
      <trkpt lat="46.85316" lon="8.48844">
        <ele>2544</ele>
        <time>2021-08-12T10:07:58.496Z</time>
      </trkpt>
      <trkpt lat="46.85315" lon="8.48844">
        <ele>2544</ele>
        <time>2021-08-12T10:07:59.496Z</time>
      </trkpt>
      <trkpt lat="46.85315" lon="8.48843">
        <ele>2543</ele>
        <time>2021-08-12T10:08:00.496Z</time>
      </trkpt>
      <trkpt lat="46.85314" lon="8.48844">
        <ele>2543</ele>
        <time>2021-08-12T10:08:01.496Z</time>
      </trkpt>
      <trkpt lat="46.85315" lon="8.48844">
        <ele>2543</ele>
        <time>2021-08-12T10:08:02.496Z</time>
      </trkpt>
      <trkpt lat="46.85315" lon="8.48843">
        <ele>2543</ele>
        <time>2021-08-12T10:08:03.496Z</time>
      </trkpt>
      <trkpt lat="46.85315" lon="8.48842">
        <ele>2543</ele>
        <time>2021-08-12T10:08:04.497Z</time>
      </trkpt>
      <trkpt lat="46.85314" lon="8.48842">
        <ele>2543</ele>
        <time>2021-08-12T10:08:05.497Z</time>
      </trkpt>
      <trkpt lat="46.85314" lon="8.48841">
        <ele>2543</ele>
        <time>2021-08-12T10:08:06.497Z</time>
      </trkpt>
      <trkpt lat="46.85315" lon="8.48841">
        <ele>2543</ele>
        <time>2021-08-12T10:08:07.496Z</time>
      </trkpt>
      <trkpt lat="46.85315" lon="8.4884">
        <ele>2542</ele>
        <time>2021-08-12T10:08:08.497Z</time>
      </trkpt>
      <trkpt lat="46.85315" lon="8.48839">
        <ele>2543</ele>
        <time>2021-08-12T10:08:09.497Z</time>
      </trkpt>
      <trkpt lat="46.85315" lon="8.48838">
        <ele>2543</ele>
        <time>2021-08-12T10:08:10.496Z</time>
      </trkpt>
      <trkpt lat="46.85314" lon="8.48837">
        <ele>2543</ele>
        <time>2021-08-12T10:08:11.496Z</time>
      </trkpt>
      <trkpt lat="46.85314" lon="8.48837">
        <ele>2543</ele>
        <time>2021-08-12T10:08:12.496Z</time>
      </trkpt>
      <trkpt lat="46.85313" lon="8.48836">
        <ele>2543</ele>
        <time>2021-08-12T10:08:13.497Z</time>
      </trkpt>
      <trkpt lat="46.85313" lon="8.48836">
        <ele>2543</ele>
        <time>2021-08-12T10:08:14.496Z</time>
      </trkpt>
      <trkpt lat="46.85312" lon="8.48836">
        <ele>2543</ele>
        <time>2021-08-12T10:08:15.496Z</time>
      </trkpt>
      <trkpt lat="46.85312" lon="8.48836">
        <ele>2543</ele>
        <time>2021-08-12T10:08:16.496Z</time>
      </trkpt>
      <trkpt lat="46.85311" lon="8.48836">
        <ele>2543</ele>
        <time>2021-08-12T10:08:17.496Z</time>
      </trkpt>
      <trkpt lat="46.85312" lon="8.48836">
        <ele>2543</ele>
        <time>2021-08-12T10:08:18.496Z</time>
      </trkpt>
      <trkpt lat="46.85312" lon="8.48836">
        <ele>2543</ele>
        <time>2021-08-12T10:08:19.497Z</time>
      </trkpt>
      <trkpt lat="46.85313" lon="8.48836">
        <ele>2543</ele>
        <time>2021-08-12T10:08:20.497Z</time>
      </trkpt>
      <trkpt lat="46.85313" lon="8.48835">
        <ele>2544</ele>
        <time>2021-08-12T10:08:21.496Z</time>
      </trkpt>
      <trkpt lat="46.85313" lon="8.48834">
        <ele>2544</ele>
        <time>2021-08-12T10:08:22.497Z</time>
      </trkpt>
      <trkpt lat="46.85313" lon="8.48834">
        <ele>2544</ele>
        <time>2021-08-12T10:08:23.497Z</time>
      </trkpt>
      <trkpt lat="46.85312" lon="8.48834">
        <ele>2544</ele>
        <time>2021-08-12T10:08:24.496Z</time>
      </trkpt>
      <trkpt lat="46.85312" lon="8.48834">
        <ele>2544</ele>
        <time>2021-08-12T10:08:25.497Z</time>
      </trkpt>
      <trkpt lat="46.85311" lon="8.48834">
        <ele>2544</ele>
        <time>2021-08-12T10:08:26.497Z</time>
      </trkpt>
      <trkpt lat="46.8531" lon="8.48834">
        <ele>2544</ele>
        <time>2021-08-12T10:08:27.497Z</time>
      </trkpt>
      <trkpt lat="46.85309" lon="8.48834">
        <ele>2544</ele>
        <time>2021-08-12T10:08:28.497Z</time>
      </trkpt>
      <trkpt lat="46.85309" lon="8.48833">
        <ele>2543</ele>
        <time>2021-08-12T10:08:29.496Z</time>
      </trkpt>
      <trkpt lat="46.85308" lon="8.48834">
        <ele>2543</ele>
        <time>2021-08-12T10:08:30.497Z</time>
      </trkpt>
      <trkpt lat="46.85307" lon="8.48833">
        <ele>2542</ele>
        <time>2021-08-12T10:08:31.497Z</time>
      </trkpt>
      <trkpt lat="46.85307" lon="8.48834">
        <ele>2542</ele>
        <time>2021-08-12T10:08:32.497Z</time>
      </trkpt>
      <trkpt lat="46.8531" lon="8.48835">
        <ele>2540</ele>
        <time>2021-08-12T10:08:33.496Z</time>
      </trkpt>
      <trkpt lat="46.85311" lon="8.48834">
        <ele>2540</ele>
        <time>2021-08-12T10:08:34.497Z</time>
      </trkpt>
      <trkpt lat="46.85311" lon="8.48834">
        <ele>2540</ele>
        <time>2021-08-12T10:08:35.496Z</time>
      </trkpt>
      <trkpt lat="46.85311" lon="8.48833">
        <ele>2541</ele>
        <time>2021-08-12T10:08:36.497Z</time>
      </trkpt>
      <trkpt lat="46.85311" lon="8.48832">
        <ele>2541</ele>
        <time>2021-08-12T10:08:37.497Z</time>
      </trkpt>
      <trkpt lat="46.85311" lon="8.48831">
        <ele>2540</ele>
        <time>2021-08-12T10:08:38.496Z</time>
      </trkpt>
      <trkpt lat="46.85311" lon="8.4883">
        <ele>2540</ele>
        <time>2021-08-12T10:08:39.497Z</time>
      </trkpt>
      <trkpt lat="46.85312" lon="8.48829">
        <ele>2540</ele>
        <time>2021-08-12T10:08:40.496Z</time>
      </trkpt>
      <trkpt lat="46.85311" lon="8.48828">
        <ele>2540</ele>
        <time>2021-08-12T10:08:41.496Z</time>
      </trkpt>
      <trkpt lat="46.85311" lon="8.48826">
        <ele>2539</ele>
        <time>2021-08-12T10:08:42.496Z</time>
      </trkpt>
      <trkpt lat="46.8531" lon="8.48825">
        <ele>2539</ele>
        <time>2021-08-12T10:08:43.497Z</time>
      </trkpt>
      <trkpt lat="46.85309" lon="8.48824">
        <ele>2538</ele>
        <time>2021-08-12T10:08:44.496Z</time>
      </trkpt>
      <trkpt lat="46.85309" lon="8.48823">
        <ele>2538</ele>
        <time>2021-08-12T10:08:45.496Z</time>
      </trkpt>
      <trkpt lat="46.85308" lon="8.48823">
        <ele>2537</ele>
        <time>2021-08-12T10:08:46.496Z</time>
      </trkpt>
      <trkpt lat="46.85308" lon="8.48823">
        <ele>2537</ele>
        <time>2021-08-12T10:08:47.497Z</time>
      </trkpt>
      <trkpt lat="46.85307" lon="8.48823">
        <ele>2537</ele>
        <time>2021-08-12T10:08:48.497Z</time>
      </trkpt>
      <trkpt lat="46.85306" lon="8.48823">
        <ele>2537</ele>
        <time>2021-08-12T10:08:49.496Z</time>
      </trkpt>
      <trkpt lat="46.85306" lon="8.48823">
        <ele>2537</ele>
        <time>2021-08-12T10:08:50.496Z</time>
      </trkpt>
      <trkpt lat="46.85306" lon="8.48823">
        <ele>2536</ele>
        <time>2021-08-12T10:08:51.496Z</time>
      </trkpt>
      <trkpt lat="46.85306" lon="8.48823">
        <ele>2536</ele>
        <time>2021-08-12T10:08:52.496Z</time>
      </trkpt>
      <trkpt lat="46.85306" lon="8.48823">
        <ele>2536</ele>
        <time>2021-08-12T10:08:53.496Z</time>
      </trkpt>
      <trkpt lat="46.85306" lon="8.48822">
        <ele>2536</ele>
        <time>2021-08-12T10:08:54.497Z</time>
      </trkpt>
      <trkpt lat="46.85306" lon="8.48822">
        <ele>2536</ele>
        <time>2021-08-12T10:08:55.497Z</time>
      </trkpt>
      <trkpt lat="46.85307" lon="8.48822">
        <ele>2536</ele>
        <time>2021-08-12T10:08:56.496Z</time>
      </trkpt>
      <trkpt lat="46.85307" lon="8.48821">
        <ele>2536</ele>
        <time>2021-08-12T10:08:57.496Z</time>
      </trkpt>
      <trkpt lat="46.85308" lon="8.48821">
        <ele>2535</ele>
        <time>2021-08-12T10:08:58.497Z</time>
      </trkpt>
      <trkpt lat="46.85308" lon="8.4882">
        <ele>2535</ele>
        <time>2021-08-12T10:08:59.496Z</time>
      </trkpt>
      <trkpt lat="46.85308" lon="8.48819">
        <ele>2535</ele>
        <time>2021-08-12T10:09:00.497Z</time>
      </trkpt>
      <trkpt lat="46.85308" lon="8.48819">
        <ele>2535</ele>
        <time>2021-08-12T10:09:01.496Z</time>
      </trkpt>
      <trkpt lat="46.85309" lon="8.48818">
        <ele>2535</ele>
        <time>2021-08-12T10:09:02.497Z</time>
      </trkpt>
      <trkpt lat="46.8531" lon="8.48818">
        <ele>2535</ele>
        <time>2021-08-12T10:09:03.497Z</time>
      </trkpt>
      <trkpt lat="46.85308" lon="8.48816">
        <ele>2535</ele>
        <time>2021-08-12T10:09:04.496Z</time>
      </trkpt>
      <trkpt lat="46.85307" lon="8.48815">
        <ele>2534</ele>
        <time>2021-08-12T10:09:05.497Z</time>
      </trkpt>
      <trkpt lat="46.85306" lon="8.48814">
        <ele>2534</ele>
        <time>2021-08-12T10:09:06.496Z</time>
      </trkpt>
      <trkpt lat="46.85305" lon="8.48814">
        <ele>2534</ele>
        <time>2021-08-12T10:09:07.496Z</time>
      </trkpt>
      <trkpt lat="46.85304" lon="8.48814">
        <ele>2533</ele>
        <time>2021-08-12T10:09:08.496Z</time>
      </trkpt>
      <trkpt lat="46.85304" lon="8.48815">
        <ele>2533</ele>
        <time>2021-08-12T10:09:09.497Z</time>
      </trkpt>
      <trkpt lat="46.85303" lon="8.48815">
        <ele>2533</ele>
        <time>2021-08-12T10:09:10.496Z</time>
      </trkpt>
      <trkpt lat="46.85303" lon="8.48815">
        <ele>2533</ele>
        <time>2021-08-12T10:09:11.497Z</time>
      </trkpt>
      <trkpt lat="46.85302" lon="8.48815">
        <ele>2533</ele>
        <time>2021-08-12T10:09:12.496Z</time>
      </trkpt>
      <trkpt lat="46.85302" lon="8.48815">
        <ele>2533</ele>
        <time>2021-08-12T10:09:13.496Z</time>
      </trkpt>
      <trkpt lat="46.85303" lon="8.48815">
        <ele>2533</ele>
        <time>2021-08-12T10:09:14.496Z</time>
      </trkpt>
      <trkpt lat="46.85304" lon="8.48814">
        <ele>2533</ele>
        <time>2021-08-12T10:09:15.497Z</time>
      </trkpt>
      <trkpt lat="46.85304" lon="8.48814">
        <ele>2533</ele>
        <time>2021-08-12T10:09:16.496Z</time>
      </trkpt>
      <trkpt lat="46.85304" lon="8.48813">
        <ele>2533</ele>
        <time>2021-08-12T10:09:17.496Z</time>
      </trkpt>
      <trkpt lat="46.85304" lon="8.48812">
        <ele>2533</ele>
        <time>2021-08-12T10:09:18.496Z</time>
      </trkpt>
      <trkpt lat="46.85305" lon="8.48812">
        <ele>2532</ele>
        <time>2021-08-12T10:09:19.496Z</time>
      </trkpt>
      <trkpt lat="46.85305" lon="8.48811">
        <ele>2532</ele>
        <time>2021-08-12T10:09:20.496Z</time>
      </trkpt>
      <trkpt lat="46.85306" lon="8.4881">
        <ele>2532</ele>
        <time>2021-08-12T10:09:21.497Z</time>
      </trkpt>
      <trkpt lat="46.85306" lon="8.4881">
        <ele>2532</ele>
        <time>2021-08-12T10:09:22.496Z</time>
      </trkpt>
      <trkpt lat="46.85307" lon="8.4881">
        <ele>2532</ele>
        <time>2021-08-12T10:09:23.496Z</time>
      </trkpt>
      <trkpt lat="46.85307" lon="8.48809">
        <ele>2532</ele>
        <time>2021-08-12T10:09:24.496Z</time>
      </trkpt>
      <trkpt lat="46.85308" lon="8.48808">
        <ele>2532</ele>
        <time>2021-08-12T10:09:25.496Z</time>
      </trkpt>
      <trkpt lat="46.85308" lon="8.48808">
        <ele>2532</ele>
        <time>2021-08-12T10:09:26.496Z</time>
      </trkpt>
      <trkpt lat="46.85307" lon="8.48806">
        <ele>2532</ele>
        <time>2021-08-12T10:09:27.496Z</time>
      </trkpt>
      <trkpt lat="46.85306" lon="8.48805">
        <ele>2533</ele>
        <time>2021-08-12T10:09:28.496Z</time>
      </trkpt>
      <trkpt lat="46.85305" lon="8.48805">
        <ele>2532</ele>
        <time>2021-08-12T10:09:29.496Z</time>
      </trkpt>
      <trkpt lat="46.85304" lon="8.48805">
        <ele>2532</ele>
        <time>2021-08-12T10:09:30.496Z</time>
      </trkpt>
      <trkpt lat="46.85303" lon="8.48805">
        <ele>2531</ele>
        <time>2021-08-12T10:09:31.497Z</time>
      </trkpt>
      <trkpt lat="46.85303" lon="8.48805">
        <ele>2530</ele>
        <time>2021-08-12T10:09:32.496Z</time>
      </trkpt>
      <trkpt lat="46.85302" lon="8.48805">
        <ele>2530</ele>
        <time>2021-08-12T10:09:33.497Z</time>
      </trkpt>
      <trkpt lat="46.85301" lon="8.48805">
        <ele>2530</ele>
        <time>2021-08-12T10:09:34.496Z</time>
      </trkpt>
      <trkpt lat="46.85301" lon="8.48805">
        <ele>2530</ele>
        <time>2021-08-12T10:09:35.497Z</time>
      </trkpt>
      <trkpt lat="46.853" lon="8.48805">
        <ele>2529</ele>
        <time>2021-08-12T10:09:36.496Z</time>
      </trkpt>
      <trkpt lat="46.853" lon="8.48805">
        <ele>2529</ele>
        <time>2021-08-12T10:09:37.496Z</time>
      </trkpt>
      <trkpt lat="46.853" lon="8.48805">
        <ele>2529</ele>
        <time>2021-08-12T10:09:38.497Z</time>
      </trkpt>
      <trkpt lat="46.853" lon="8.48805">
        <ele>2529</ele>
        <time>2021-08-12T10:09:39.497Z</time>
      </trkpt>
      <trkpt lat="46.853" lon="8.48804">
        <ele>2529</ele>
        <time>2021-08-12T10:09:40.496Z</time>
      </trkpt>
      <trkpt lat="46.85301" lon="8.48804">
        <ele>2529</ele>
        <time>2021-08-12T10:09:41.497Z</time>
      </trkpt>
      <trkpt lat="46.85302" lon="8.48804">
        <ele>2529</ele>
        <time>2021-08-12T10:09:42.496Z</time>
      </trkpt>
      <trkpt lat="46.85302" lon="8.48803">
        <ele>2528</ele>
        <time>2021-08-12T10:09:43.496Z</time>
      </trkpt>
      <trkpt lat="46.85302" lon="8.48802">
        <ele>2528</ele>
        <time>2021-08-12T10:09:44.496Z</time>
      </trkpt>
      <trkpt lat="46.85303" lon="8.48802">
        <ele>2528</ele>
        <time>2021-08-12T10:09:45.496Z</time>
      </trkpt>
      <trkpt lat="46.85303" lon="8.48801">
        <ele>2527</ele>
        <time>2021-08-12T10:09:46.496Z</time>
      </trkpt>
      <trkpt lat="46.85304" lon="8.48801">
        <ele>2527</ele>
        <time>2021-08-12T10:09:47.496Z</time>
      </trkpt>
      <trkpt lat="46.85305" lon="8.488">
        <ele>2527</ele>
        <time>2021-08-12T10:09:48.496Z</time>
      </trkpt>
      <trkpt lat="46.85304" lon="8.48798">
        <ele>2527</ele>
        <time>2021-08-12T10:09:49.496Z</time>
      </trkpt>
      <trkpt lat="46.85302" lon="8.48797">
        <ele>2527</ele>
        <time>2021-08-12T10:09:50.496Z</time>
      </trkpt>
      <trkpt lat="46.85301" lon="8.48795">
        <ele>2527</ele>
        <time>2021-08-12T10:09:51.497Z</time>
      </trkpt>
      <trkpt lat="46.85301" lon="8.48795">
        <ele>2527</ele>
        <time>2021-08-12T10:09:52.497Z</time>
      </trkpt>
      <trkpt lat="46.853" lon="8.48796">
        <ele>2527</ele>
        <time>2021-08-12T10:09:53.496Z</time>
      </trkpt>
      <trkpt lat="46.85299" lon="8.48796">
        <ele>2526</ele>
        <time>2021-08-12T10:09:54.496Z</time>
      </trkpt>
      <trkpt lat="46.85299" lon="8.48796">
        <ele>2526</ele>
        <time>2021-08-12T10:09:55.496Z</time>
      </trkpt>
      <trkpt lat="46.85299" lon="8.48796">
        <ele>2525</ele>
        <time>2021-08-12T10:09:56.496Z</time>
      </trkpt>
      <trkpt lat="46.85299" lon="8.48796">
        <ele>2525</ele>
        <time>2021-08-12T10:09:57.496Z</time>
      </trkpt>
      <trkpt lat="46.853" lon="8.48795">
        <ele>2524</ele>
        <time>2021-08-12T10:09:58.496Z</time>
      </trkpt>
      <trkpt lat="46.85301" lon="8.48795">
        <ele>2523</ele>
        <time>2021-08-12T10:09:59.496Z</time>
      </trkpt>
      <trkpt lat="46.85301" lon="8.48794">
        <ele>2523</ele>
        <time>2021-08-12T10:10:00.496Z</time>
      </trkpt>
      <trkpt lat="46.85301" lon="8.48794">
        <ele>2522</ele>
        <time>2021-08-12T10:10:01.496Z</time>
      </trkpt>
      <trkpt lat="46.85302" lon="8.48793">
        <ele>2521</ele>
        <time>2021-08-12T10:10:02.497Z</time>
      </trkpt>
      <trkpt lat="46.85302" lon="8.48793">
        <ele>2521</ele>
        <time>2021-08-12T10:10:03.497Z</time>
      </trkpt>
      <trkpt lat="46.85302" lon="8.48792">
        <ele>2521</ele>
        <time>2021-08-12T10:10:04.496Z</time>
      </trkpt>
      <trkpt lat="46.85302" lon="8.48791">
        <ele>2520</ele>
        <time>2021-08-12T10:10:05.496Z</time>
      </trkpt>
      <trkpt lat="46.85302" lon="8.4879">
        <ele>2520</ele>
        <time>2021-08-12T10:10:06.496Z</time>
      </trkpt>
      <trkpt lat="46.85302" lon="8.4879">
        <ele>2520</ele>
        <time>2021-08-12T10:10:07.496Z</time>
      </trkpt>
      <trkpt lat="46.85301" lon="8.48789">
        <ele>2521</ele>
        <time>2021-08-12T10:10:08.497Z</time>
      </trkpt>
      <trkpt lat="46.85301" lon="8.48788">
        <ele>2521</ele>
        <time>2021-08-12T10:10:09.496Z</time>
      </trkpt>
      <trkpt lat="46.85301" lon="8.48788">
        <ele>2521</ele>
        <time>2021-08-12T10:10:10.497Z</time>
      </trkpt>
      <trkpt lat="46.85301" lon="8.48788">
        <ele>2520</ele>
        <time>2021-08-12T10:10:11.496Z</time>
      </trkpt>
      <trkpt lat="46.85301" lon="8.48788">
        <ele>2520</ele>
        <time>2021-08-12T10:10:12.496Z</time>
      </trkpt>
      <trkpt lat="46.85302" lon="8.48787">
        <ele>2520</ele>
        <time>2021-08-12T10:10:13.496Z</time>
      </trkpt>
      <trkpt lat="46.85302" lon="8.48786">
        <ele>2521</ele>
        <time>2021-08-12T10:10:14.497Z</time>
      </trkpt>
      <trkpt lat="46.85303" lon="8.48787">
        <ele>2521</ele>
        <time>2021-08-12T10:10:15.496Z</time>
      </trkpt>
      <trkpt lat="46.85303" lon="8.48786">
        <ele>2521</ele>
        <time>2021-08-12T10:10:16.496Z</time>
      </trkpt>
      <trkpt lat="46.85304" lon="8.48785">
        <ele>2521</ele>
        <time>2021-08-12T10:10:17.496Z</time>
      </trkpt>
      <trkpt lat="46.85304" lon="8.48785">
        <ele>2521</ele>
        <time>2021-08-12T10:10:18.496Z</time>
      </trkpt>
      <trkpt lat="46.85304" lon="8.48784">
        <ele>2521</ele>
        <time>2021-08-12T10:10:19.496Z</time>
      </trkpt>
      <trkpt lat="46.85303" lon="8.48783">
        <ele>2521</ele>
        <time>2021-08-12T10:10:20.496Z</time>
      </trkpt>
      <trkpt lat="46.85303" lon="8.48782">
        <ele>2521</ele>
        <time>2021-08-12T10:10:21.496Z</time>
      </trkpt>
      <trkpt lat="46.85304" lon="8.48781">
        <ele>2521</ele>
        <time>2021-08-12T10:10:22.496Z</time>
      </trkpt>
      <trkpt lat="46.85304" lon="8.48781">
        <ele>2521</ele>
        <time>2021-08-12T10:10:23.496Z</time>
      </trkpt>
      <trkpt lat="46.85304" lon="8.4878">
        <ele>2521</ele>
        <time>2021-08-12T10:10:24.497Z</time>
      </trkpt>
      <trkpt lat="46.85304" lon="8.4878">
        <ele>2521</ele>
        <time>2021-08-12T10:10:25.496Z</time>
      </trkpt>
      <trkpt lat="46.85304" lon="8.48779">
        <ele>2520</ele>
        <time>2021-08-12T10:10:26.496Z</time>
      </trkpt>
      <trkpt lat="46.85305" lon="8.48779">
        <ele>2520</ele>
        <time>2021-08-12T10:10:27.496Z</time>
      </trkpt>
      <trkpt lat="46.85306" lon="8.48779">
        <ele>2520</ele>
        <time>2021-08-12T10:10:28.496Z</time>
      </trkpt>
      <trkpt lat="46.85307" lon="8.48778">
        <ele>2520</ele>
        <time>2021-08-12T10:10:29.496Z</time>
      </trkpt>
      <trkpt lat="46.85307" lon="8.48778">
        <ele>2520</ele>
        <time>2021-08-12T10:10:30.496Z</time>
      </trkpt>
      <trkpt lat="46.85307" lon="8.48777">
        <ele>2520</ele>
        <time>2021-08-12T10:10:31.496Z</time>
      </trkpt>
      <trkpt lat="46.85306" lon="8.48776">
        <ele>2520</ele>
        <time>2021-08-12T10:10:32.496Z</time>
      </trkpt>
      <trkpt lat="46.85305" lon="8.48775">
        <ele>2519</ele>
        <time>2021-08-12T10:10:33.496Z</time>
      </trkpt>
      <trkpt lat="46.85304" lon="8.48774">
        <ele>2519</ele>
        <time>2021-08-12T10:10:34.497Z</time>
      </trkpt>
      <trkpt lat="46.85303" lon="8.48773">
        <ele>2518</ele>
        <time>2021-08-12T10:10:35.496Z</time>
      </trkpt>
      <trkpt lat="46.85302" lon="8.48773">
        <ele>2518</ele>
        <time>2021-08-12T10:10:36.497Z</time>
      </trkpt>
      <trkpt lat="46.85301" lon="8.48772">
        <ele>2518</ele>
        <time>2021-08-12T10:10:37.496Z</time>
      </trkpt>
      <trkpt lat="46.853" lon="8.48772">
        <ele>2518</ele>
        <time>2021-08-12T10:10:38.496Z</time>
      </trkpt>
      <trkpt lat="46.853" lon="8.48772">
        <ele>2518</ele>
        <time>2021-08-12T10:10:39.496Z</time>
      </trkpt>
      <trkpt lat="46.853" lon="8.48772">
        <ele>2517</ele>
        <time>2021-08-12T10:10:40.497Z</time>
      </trkpt>
      <trkpt lat="46.853" lon="8.48771">
        <ele>2517</ele>
        <time>2021-08-12T10:10:41.496Z</time>
      </trkpt>
      <trkpt lat="46.853" lon="8.48771">
        <ele>2517</ele>
        <time>2021-08-12T10:10:42.496Z</time>
      </trkpt>
      <trkpt lat="46.85301" lon="8.48771">
        <ele>2516</ele>
        <time>2021-08-12T10:10:43.497Z</time>
      </trkpt>
      <trkpt lat="46.85302" lon="8.4877">
        <ele>2516</ele>
        <time>2021-08-12T10:10:44.496Z</time>
      </trkpt>
      <trkpt lat="46.85302" lon="8.4877">
        <ele>2515</ele>
        <time>2021-08-12T10:10:45.496Z</time>
      </trkpt>
      <trkpt lat="46.85302" lon="8.48769">
        <ele>2514</ele>
        <time>2021-08-12T10:10:46.496Z</time>
      </trkpt>
      <trkpt lat="46.85302" lon="8.48768">
        <ele>2514</ele>
        <time>2021-08-12T10:10:47.496Z</time>
      </trkpt>
      <trkpt lat="46.85303" lon="8.48768">
        <ele>2514</ele>
        <time>2021-08-12T10:10:48.496Z</time>
      </trkpt>
      <trkpt lat="46.85303" lon="8.48767">
        <ele>2514</ele>
        <time>2021-08-12T10:10:49.496Z</time>
      </trkpt>
      <trkpt lat="46.85303" lon="8.48767">
        <ele>2514</ele>
        <time>2021-08-12T10:10:50.496Z</time>
      </trkpt>
      <trkpt lat="46.85303" lon="8.48766">
        <ele>2513</ele>
        <time>2021-08-12T10:10:51.497Z</time>
      </trkpt>
      <trkpt lat="46.85303" lon="8.48765">
        <ele>2513</ele>
        <time>2021-08-12T10:10:52.496Z</time>
      </trkpt>
      <trkpt lat="46.85304" lon="8.48764">
        <ele>2513</ele>
        <time>2021-08-12T10:10:53.496Z</time>
      </trkpt>
      <trkpt lat="46.85304" lon="8.48763">
        <ele>2513</ele>
        <time>2021-08-12T10:10:54.496Z</time>
      </trkpt>
      <trkpt lat="46.85304" lon="8.48762">
        <ele>2512</ele>
        <time>2021-08-12T10:10:55.496Z</time>
      </trkpt>
      <trkpt lat="46.85304" lon="8.48761">
        <ele>2512</ele>
        <time>2021-08-12T10:10:56.496Z</time>
      </trkpt>
      <trkpt lat="46.85303" lon="8.48761">
        <ele>2512</ele>
        <time>2021-08-12T10:10:57.497Z</time>
      </trkpt>
      <trkpt lat="46.85304" lon="8.4876">
        <ele>2512</ele>
        <time>2021-08-12T10:10:58.496Z</time>
      </trkpt>
      <trkpt lat="46.85304" lon="8.48759">
        <ele>2513</ele>
        <time>2021-08-12T10:10:59.497Z</time>
      </trkpt>
      <trkpt lat="46.85304" lon="8.48757">
        <ele>2513</ele>
        <time>2021-08-12T10:11:00.496Z</time>
      </trkpt>
      <trkpt lat="46.85304" lon="8.48756">
        <ele>2513</ele>
        <time>2021-08-12T10:11:01.496Z</time>
      </trkpt>
      <trkpt lat="46.85305" lon="8.48755">
        <ele>2513</ele>
        <time>2021-08-12T10:11:02.496Z</time>
      </trkpt>
      <trkpt lat="46.85304" lon="8.48754">
        <ele>2513</ele>
        <time>2021-08-12T10:11:03.496Z</time>
      </trkpt>
      <trkpt lat="46.85303" lon="8.48753">
        <ele>2513</ele>
        <time>2021-08-12T10:11:04.496Z</time>
      </trkpt>
      <trkpt lat="46.85303" lon="8.48752">
        <ele>2513</ele>
        <time>2021-08-12T10:11:05.496Z</time>
      </trkpt>
      <trkpt lat="46.85302" lon="8.4875">
        <ele>2513</ele>
        <time>2021-08-12T10:11:06.496Z</time>
      </trkpt>
      <trkpt lat="46.85302" lon="8.4875">
        <ele>2512</ele>
        <time>2021-08-12T10:11:07.497Z</time>
      </trkpt>
      <trkpt lat="46.85302" lon="8.48748">
        <ele>2512</ele>
        <time>2021-08-12T10:11:08.496Z</time>
      </trkpt>
      <trkpt lat="46.85301" lon="8.48747">
        <ele>2512</ele>
        <time>2021-08-12T10:11:09.496Z</time>
      </trkpt>
      <trkpt lat="46.85301" lon="8.48747">
        <ele>2512</ele>
        <time>2021-08-12T10:11:10.497Z</time>
      </trkpt>
      <trkpt lat="46.85301" lon="8.48746">
        <ele>2512</ele>
        <time>2021-08-12T10:11:11.496Z</time>
      </trkpt>
      <trkpt lat="46.853" lon="8.48746">
        <ele>2512</ele>
        <time>2021-08-12T10:11:12.496Z</time>
      </trkpt>
      <trkpt lat="46.85301" lon="8.48745">
        <ele>2511</ele>
        <time>2021-08-12T10:11:13.496Z</time>
      </trkpt>
      <trkpt lat="46.85301" lon="8.48745">
        <ele>2511</ele>
        <time>2021-08-12T10:11:14.496Z</time>
      </trkpt>
      <trkpt lat="46.85302" lon="8.48744">
        <ele>2511</ele>
        <time>2021-08-12T10:11:15.496Z</time>
      </trkpt>
      <trkpt lat="46.85302" lon="8.48744">
        <ele>2511</ele>
        <time>2021-08-12T10:11:16.496Z</time>
      </trkpt>
      <trkpt lat="46.85302" lon="8.48743">
        <ele>2511</ele>
        <time>2021-08-12T10:11:17.496Z</time>
      </trkpt>
      <trkpt lat="46.85302" lon="8.48742">
        <ele>2511</ele>
        <time>2021-08-12T10:11:18.496Z</time>
      </trkpt>
      <trkpt lat="46.85302" lon="8.48742">
        <ele>2511</ele>
        <time>2021-08-12T10:11:19.496Z</time>
      </trkpt>
      <trkpt lat="46.85302" lon="8.48741">
        <ele>2511</ele>
        <time>2021-08-12T10:11:20.496Z</time>
      </trkpt>
      <trkpt lat="46.85303" lon="8.48741">
        <ele>2511</ele>
        <time>2021-08-12T10:11:21.496Z</time>
      </trkpt>
      <trkpt lat="46.85303" lon="8.48741">
        <ele>2511</ele>
        <time>2021-08-12T10:11:22.497Z</time>
      </trkpt>
      <trkpt lat="46.85302" lon="8.4874">
        <ele>2511</ele>
        <time>2021-08-12T10:11:23.496Z</time>
      </trkpt>
      <trkpt lat="46.85302" lon="8.4874">
        <ele>2511</ele>
        <time>2021-08-12T10:11:24.496Z</time>
      </trkpt>
      <trkpt lat="46.85302" lon="8.48739">
        <ele>2512</ele>
        <time>2021-08-12T10:11:25.496Z</time>
      </trkpt>
      <trkpt lat="46.85298" lon="8.48733">
        <ele>2516</ele>
        <time>2021-08-12T10:11:26.497Z</time>
      </trkpt>
      <trkpt lat="46.85297" lon="8.48733">
        <ele>2516</ele>
        <time>2021-08-12T10:11:27.496Z</time>
      </trkpt>
      <trkpt lat="46.85297" lon="8.48732">
        <ele>2517</ele>
        <time>2021-08-12T10:11:28.497Z</time>
      </trkpt>
      <trkpt lat="46.85298" lon="8.48732">
        <ele>2516</ele>
        <time>2021-08-12T10:11:29.498Z</time>
      </trkpt>
      <trkpt lat="46.85297" lon="8.48731">
        <ele>2515</ele>
        <time>2021-08-12T10:11:30.497Z</time>
      </trkpt>
      <trkpt lat="46.85297" lon="8.48732">
        <ele>2515</ele>
        <time>2021-08-12T10:11:31.497Z</time>
      </trkpt>
      <trkpt lat="46.85296" lon="8.48732">
        <ele>2514</ele>
        <time>2021-08-12T10:11:32.498Z</time>
      </trkpt>
      <trkpt lat="46.85296" lon="8.48733">
        <ele>2513</ele>
        <time>2021-08-12T10:11:33.498Z</time>
      </trkpt>
      <trkpt lat="46.85297" lon="8.48732">
        <ele>2512</ele>
        <time>2021-08-12T10:11:34.498Z</time>
      </trkpt>
      <trkpt lat="46.85297" lon="8.48731">
        <ele>2512</ele>
        <time>2021-08-12T10:11:35.497Z</time>
      </trkpt>
      <trkpt lat="46.85298" lon="8.48731">
        <ele>2511</ele>
        <time>2021-08-12T10:11:36.498Z</time>
      </trkpt>
      <trkpt lat="46.85298" lon="8.48731">
        <ele>2511</ele>
        <time>2021-08-12T10:11:37.497Z</time>
      </trkpt>
      <trkpt lat="46.85298" lon="8.4873">
        <ele>2510</ele>
        <time>2021-08-12T10:11:38.498Z</time>
      </trkpt>
      <trkpt lat="46.85298" lon="8.48728">
        <ele>2510</ele>
        <time>2021-08-12T10:11:39.497Z</time>
      </trkpt>
      <trkpt lat="46.85298" lon="8.48728">
        <ele>2510</ele>
        <time>2021-08-12T10:11:40.498Z</time>
      </trkpt>
      <trkpt lat="46.85298" lon="8.48727">
        <ele>2510</ele>
        <time>2021-08-12T10:11:41.498Z</time>
      </trkpt>
      <trkpt lat="46.85298" lon="8.48726">
        <ele>2509</ele>
        <time>2021-08-12T10:11:42.498Z</time>
      </trkpt>
      <trkpt lat="46.85298" lon="8.48725">
        <ele>2509</ele>
        <time>2021-08-12T10:11:43.497Z</time>
      </trkpt>
      <trkpt lat="46.85298" lon="8.48725">
        <ele>2508</ele>
        <time>2021-08-12T10:11:44.498Z</time>
      </trkpt>
      <trkpt lat="46.85299" lon="8.48725">
        <ele>2507</ele>
        <time>2021-08-12T10:11:45.497Z</time>
      </trkpt>
      <trkpt lat="46.85299" lon="8.48724">
        <ele>2506</ele>
        <time>2021-08-12T10:11:46.498Z</time>
      </trkpt>
      <trkpt lat="46.85299" lon="8.48724">
        <ele>2505</ele>
        <time>2021-08-12T10:11:47.498Z</time>
      </trkpt>
      <trkpt lat="46.85299" lon="8.48723">
        <ele>2504</ele>
        <time>2021-08-12T10:11:48.498Z</time>
      </trkpt>
      <trkpt lat="46.85299" lon="8.48722">
        <ele>2504</ele>
        <time>2021-08-12T10:11:49.498Z</time>
      </trkpt>
      <trkpt lat="46.85299" lon="8.48721">
        <ele>2504</ele>
        <time>2021-08-12T10:11:50.498Z</time>
      </trkpt>
      <trkpt lat="46.85299" lon="8.4872">
        <ele>2504</ele>
        <time>2021-08-12T10:11:51.498Z</time>
      </trkpt>
      <trkpt lat="46.85298" lon="8.48719">
        <ele>2504</ele>
        <time>2021-08-12T10:11:52.498Z</time>
      </trkpt>
      <trkpt lat="46.85297" lon="8.48718">
        <ele>2504</ele>
        <time>2021-08-12T10:11:53.498Z</time>
      </trkpt>
      <trkpt lat="46.85297" lon="8.48718">
        <ele>2505</ele>
        <time>2021-08-12T10:11:54.497Z</time>
      </trkpt>
      <trkpt lat="46.85297" lon="8.48718">
        <ele>2505</ele>
        <time>2021-08-12T10:11:55.498Z</time>
      </trkpt>
      <trkpt lat="46.85297" lon="8.48718">
        <ele>2505</ele>
        <time>2021-08-12T10:11:56.498Z</time>
      </trkpt>
      <trkpt lat="46.85297" lon="8.48717">
        <ele>2505</ele>
        <time>2021-08-12T10:11:57.498Z</time>
      </trkpt>
      <trkpt lat="46.85298" lon="8.48718">
        <ele>2505</ele>
        <time>2021-08-12T10:11:58.498Z</time>
      </trkpt>
      <trkpt lat="46.85298" lon="8.48718">
        <ele>2505</ele>
        <time>2021-08-12T10:11:59.498Z</time>
      </trkpt>
      <trkpt lat="46.85299" lon="8.48717">
        <ele>2505</ele>
        <time>2021-08-12T10:12:00.498Z</time>
      </trkpt>
      <trkpt lat="46.85299" lon="8.48717">
        <ele>2505</ele>
        <time>2021-08-12T10:12:01.498Z</time>
      </trkpt>
      <trkpt lat="46.85299" lon="8.48716">
        <ele>2505</ele>
        <time>2021-08-12T10:12:02.497Z</time>
      </trkpt>
      <trkpt lat="46.85299" lon="8.48716">
        <ele>2505</ele>
        <time>2021-08-12T10:12:03.498Z</time>
      </trkpt>
      <trkpt lat="46.85299" lon="8.48715">
        <ele>2504</ele>
        <time>2021-08-12T10:12:04.498Z</time>
      </trkpt>
      <trkpt lat="46.85298" lon="8.48715">
        <ele>2503</ele>
        <time>2021-08-12T10:12:05.498Z</time>
      </trkpt>
      <trkpt lat="46.85298" lon="8.48713">
        <ele>2499</ele>
        <time>2021-08-12T10:12:06.499Z</time>
      </trkpt>
      <trkpt lat="46.85297" lon="8.48712">
        <ele>2499</ele>
        <time>2021-08-12T10:12:07.500Z</time>
      </trkpt>
      <trkpt lat="46.85297" lon="8.48712">
        <ele>2500</ele>
        <time>2021-08-12T10:12:08.499Z</time>
      </trkpt>
      <trkpt lat="46.85297" lon="8.48712">
        <ele>2500</ele>
        <time>2021-08-12T10:12:09.500Z</time>
      </trkpt>
      <trkpt lat="46.85297" lon="8.48712">
        <ele>2499</ele>
        <time>2021-08-12T10:12:10.500Z</time>
      </trkpt>
      <trkpt lat="46.85296" lon="8.48712">
        <ele>2499</ele>
        <time>2021-08-12T10:12:11.500Z</time>
      </trkpt>
      <trkpt lat="46.85296" lon="8.48711">
        <ele>2498</ele>
        <time>2021-08-12T10:12:12.500Z</time>
      </trkpt>
      <trkpt lat="46.85296" lon="8.48711">
        <ele>2498</ele>
        <time>2021-08-12T10:12:13.500Z</time>
      </trkpt>
      <trkpt lat="46.85296" lon="8.4871">
        <ele>2497</ele>
        <time>2021-08-12T10:12:14.499Z</time>
      </trkpt>
      <trkpt lat="46.85296" lon="8.4871">
        <ele>2497</ele>
        <time>2021-08-12T10:12:15.499Z</time>
      </trkpt>
      <trkpt lat="46.85296" lon="8.48709">
        <ele>2497</ele>
        <time>2021-08-12T10:12:16.499Z</time>
      </trkpt>
      <trkpt lat="46.85295" lon="8.48708">
        <ele>2497</ele>
        <time>2021-08-12T10:12:17.500Z</time>
      </trkpt>
      <trkpt lat="46.85295" lon="8.48707">
        <ele>2497</ele>
        <time>2021-08-12T10:12:18.499Z</time>
      </trkpt>
      <trkpt lat="46.85294" lon="8.48706">
        <ele>2498</ele>
        <time>2021-08-12T10:12:19.500Z</time>
      </trkpt>
      <trkpt lat="46.85294" lon="8.48705">
        <ele>2498</ele>
        <time>2021-08-12T10:12:20.500Z</time>
      </trkpt>
      <trkpt lat="46.85294" lon="8.48705">
        <ele>2498</ele>
        <time>2021-08-12T10:12:21.500Z</time>
      </trkpt>
      <trkpt lat="46.85295" lon="8.48705">
        <ele>2498</ele>
        <time>2021-08-12T10:12:22.500Z</time>
      </trkpt>
      <trkpt lat="46.85296" lon="8.48706">
        <ele>2498</ele>
        <time>2021-08-12T10:12:23.500Z</time>
      </trkpt>
      <trkpt lat="46.85296" lon="8.48705">
        <ele>2498</ele>
        <time>2021-08-12T10:12:24.500Z</time>
      </trkpt>
      <trkpt lat="46.85296" lon="8.48705">
        <ele>2498</ele>
        <time>2021-08-12T10:12:25.500Z</time>
      </trkpt>
      <trkpt lat="46.85295" lon="8.48704">
        <ele>2498</ele>
        <time>2021-08-12T10:12:26.499Z</time>
      </trkpt>
      <trkpt lat="46.85294" lon="8.48703">
        <ele>2498</ele>
        <time>2021-08-12T10:12:27.500Z</time>
      </trkpt>
      <trkpt lat="46.85293" lon="8.48702">
        <ele>2498</ele>
        <time>2021-08-12T10:12:28.500Z</time>
      </trkpt>
      <trkpt lat="46.85293" lon="8.48702">
        <ele>2497</ele>
        <time>2021-08-12T10:12:29.499Z</time>
      </trkpt>
      <trkpt lat="46.85292" lon="8.48702">
        <ele>2497</ele>
        <time>2021-08-12T10:12:30.500Z</time>
      </trkpt>
      <trkpt lat="46.85292" lon="8.48702">
        <ele>2497</ele>
        <time>2021-08-12T10:12:31.500Z</time>
      </trkpt>
      <trkpt lat="46.85292" lon="8.48701">
        <ele>2497</ele>
        <time>2021-08-12T10:12:32.500Z</time>
      </trkpt>
      <trkpt lat="46.85292" lon="8.487">
        <ele>2496</ele>
        <time>2021-08-12T10:12:33.500Z</time>
      </trkpt>
      <trkpt lat="46.85292" lon="8.487">
        <ele>2496</ele>
        <time>2021-08-12T10:12:34.499Z</time>
      </trkpt>
      <trkpt lat="46.85292" lon="8.48699">
        <ele>2496</ele>
        <time>2021-08-12T10:12:35.500Z</time>
      </trkpt>
      <trkpt lat="46.85292" lon="8.48697">
        <ele>2496</ele>
        <time>2021-08-12T10:12:36.500Z</time>
      </trkpt>
      <trkpt lat="46.85293" lon="8.48697">
        <ele>2496</ele>
        <time>2021-08-12T10:12:37.500Z</time>
      </trkpt>
      <trkpt lat="46.85293" lon="8.48696">
        <ele>2496</ele>
        <time>2021-08-12T10:12:38.499Z</time>
      </trkpt>
      <trkpt lat="46.85293" lon="8.48696">
        <ele>2495</ele>
        <time>2021-08-12T10:12:39.500Z</time>
      </trkpt>
      <trkpt lat="46.85293" lon="8.48695">
        <ele>2495</ele>
        <time>2021-08-12T10:12:40.500Z</time>
      </trkpt>
      <trkpt lat="46.85293" lon="8.48695">
        <ele>2495</ele>
        <time>2021-08-12T10:12:41.500Z</time>
      </trkpt>
      <trkpt lat="46.85292" lon="8.48694">
        <ele>2495</ele>
        <time>2021-08-12T10:12:42.500Z</time>
      </trkpt>
      <trkpt lat="46.85291" lon="8.48693">
        <ele>2495</ele>
        <time>2021-08-12T10:12:43.499Z</time>
      </trkpt>
      <trkpt lat="46.85291" lon="8.48693">
        <ele>2495</ele>
        <time>2021-08-12T10:12:44.500Z</time>
      </trkpt>
      <trkpt lat="46.85291" lon="8.48692">
        <ele>2495</ele>
        <time>2021-08-12T10:12:45.500Z</time>
      </trkpt>
      <trkpt lat="46.85289" lon="8.48691">
        <ele>2494</ele>
        <time>2021-08-12T10:12:46.499Z</time>
      </trkpt>
      <trkpt lat="46.85289" lon="8.4869">
        <ele>2494</ele>
        <time>2021-08-12T10:12:47.500Z</time>
      </trkpt>
      <trkpt lat="46.85289" lon="8.4869">
        <ele>2493</ele>
        <time>2021-08-12T10:12:48.499Z</time>
      </trkpt>
      <trkpt lat="46.85289" lon="8.48689">
        <ele>2493</ele>
        <time>2021-08-12T10:12:49.500Z</time>
      </trkpt>
      <trkpt lat="46.8529" lon="8.48688">
        <ele>2492</ele>
        <time>2021-08-12T10:12:50.499Z</time>
      </trkpt>
      <trkpt lat="46.8529" lon="8.48686">
        <ele>2492</ele>
        <time>2021-08-12T10:12:51.500Z</time>
      </trkpt>
      <trkpt lat="46.8529" lon="8.48686">
        <ele>2492</ele>
        <time>2021-08-12T10:12:52.499Z</time>
      </trkpt>
      <trkpt lat="46.8529" lon="8.48685">
        <ele>2492</ele>
        <time>2021-08-12T10:12:53.500Z</time>
      </trkpt>
      <trkpt lat="46.85289" lon="8.48684">
        <ele>2492</ele>
        <time>2021-08-12T10:12:54.499Z</time>
      </trkpt>
      <trkpt lat="46.85289" lon="8.48684">
        <ele>2492</ele>
        <time>2021-08-12T10:12:55.499Z</time>
      </trkpt>
      <trkpt lat="46.85289" lon="8.48683">
        <ele>2492</ele>
        <time>2021-08-12T10:12:56.499Z</time>
      </trkpt>
      <trkpt lat="46.85289" lon="8.48683">
        <ele>2492</ele>
        <time>2021-08-12T10:12:57.500Z</time>
      </trkpt>
      <trkpt lat="46.85288" lon="8.4868">
        <ele>2494</ele>
        <time>2021-08-12T10:12:58.500Z</time>
      </trkpt>
      <trkpt lat="46.85289" lon="8.4868">
        <ele>2494</ele>
        <time>2021-08-12T10:12:59.501Z</time>
      </trkpt>
      <trkpt lat="46.8529" lon="8.48678">
        <ele>2494</ele>
        <time>2021-08-12T10:13:00.501Z</time>
      </trkpt>
      <trkpt lat="46.85289" lon="8.48677">
        <ele>2493</ele>
        <time>2021-08-12T10:13:01.501Z</time>
      </trkpt>
      <trkpt lat="46.85289" lon="8.48676">
        <ele>2493</ele>
        <time>2021-08-12T10:13:02.500Z</time>
      </trkpt>
      <trkpt lat="46.85289" lon="8.48676">
        <ele>2493</ele>
        <time>2021-08-12T10:13:03.501Z</time>
      </trkpt>
      <trkpt lat="46.85289" lon="8.48676">
        <ele>2492</ele>
        <time>2021-08-12T10:13:04.501Z</time>
      </trkpt>
      <trkpt lat="46.85289" lon="8.48676">
        <ele>2492</ele>
        <time>2021-08-12T10:13:05.500Z</time>
      </trkpt>
      <trkpt lat="46.85289" lon="8.48675">
        <ele>2492</ele>
        <time>2021-08-12T10:13:06.501Z</time>
      </trkpt>
      <trkpt lat="46.85289" lon="8.48674">
        <ele>2492</ele>
        <time>2021-08-12T10:13:07.500Z</time>
      </trkpt>
      <trkpt lat="46.85288" lon="8.48673">
        <ele>2492</ele>
        <time>2021-08-12T10:13:08.501Z</time>
      </trkpt>
      <trkpt lat="46.85288" lon="8.48673">
        <ele>2492</ele>
        <time>2021-08-12T10:13:09.500Z</time>
      </trkpt>
      <trkpt lat="46.85287" lon="8.48673">
        <ele>2492</ele>
        <time>2021-08-12T10:13:10.500Z</time>
      </trkpt>
      <trkpt lat="46.85287" lon="8.48672">
        <ele>2491</ele>
        <time>2021-08-12T10:13:11.501Z</time>
      </trkpt>
      <trkpt lat="46.85286" lon="8.48672">
        <ele>2491</ele>
        <time>2021-08-12T10:13:12.501Z</time>
      </trkpt>
      <trkpt lat="46.85286" lon="8.48672">
        <ele>2490</ele>
        <time>2021-08-12T10:13:13.500Z</time>
      </trkpt>
      <trkpt lat="46.85286" lon="8.48671">
        <ele>2488</ele>
        <time>2021-08-12T10:13:14.501Z</time>
      </trkpt>
      <trkpt lat="46.85286" lon="8.48671">
        <ele>2487</ele>
        <time>2021-08-12T10:13:15.501Z</time>
      </trkpt>
      <trkpt lat="46.85286" lon="8.4867">
        <ele>2486</ele>
        <time>2021-08-12T10:13:16.501Z</time>
      </trkpt>
      <trkpt lat="46.85286" lon="8.48668">
        <ele>2486</ele>
        <time>2021-08-12T10:13:17.500Z</time>
      </trkpt>
      <trkpt lat="46.85286" lon="8.48667">
        <ele>2485</ele>
        <time>2021-08-12T10:13:18.500Z</time>
      </trkpt>
      <trkpt lat="46.85286" lon="8.48666">
        <ele>2485</ele>
        <time>2021-08-12T10:13:19.501Z</time>
      </trkpt>
      <trkpt lat="46.85286" lon="8.48665">
        <ele>2485</ele>
        <time>2021-08-12T10:13:20.501Z</time>
      </trkpt>
      <trkpt lat="46.85286" lon="8.48664">
        <ele>2484</ele>
        <time>2021-08-12T10:13:21.501Z</time>
      </trkpt>
      <trkpt lat="46.85285" lon="8.48663">
        <ele>2484</ele>
        <time>2021-08-12T10:13:22.501Z</time>
      </trkpt>
      <trkpt lat="46.85285" lon="8.48662">
        <ele>2483</ele>
        <time>2021-08-12T10:13:23.501Z</time>
      </trkpt>
      <trkpt lat="46.85285" lon="8.48661">
        <ele>2483</ele>
        <time>2021-08-12T10:13:24.500Z</time>
      </trkpt>
      <trkpt lat="46.85285" lon="8.4866">
        <ele>2483</ele>
        <time>2021-08-12T10:13:25.501Z</time>
      </trkpt>
      <trkpt lat="46.85285" lon="8.48659">
        <ele>2483</ele>
        <time>2021-08-12T10:13:26.501Z</time>
      </trkpt>
      <trkpt lat="46.85285" lon="8.48658">
        <ele>2483</ele>
        <time>2021-08-12T10:13:27.500Z</time>
      </trkpt>
      <trkpt lat="46.85285" lon="8.48657">
        <ele>2483</ele>
        <time>2021-08-12T10:13:28.500Z</time>
      </trkpt>
      <trkpt lat="46.85284" lon="8.48656">
        <ele>2484</ele>
        <time>2021-08-12T10:13:29.501Z</time>
      </trkpt>
      <trkpt lat="46.85284" lon="8.48655">
        <ele>2484</ele>
        <time>2021-08-12T10:13:30.501Z</time>
      </trkpt>
      <trkpt lat="46.85284" lon="8.48654">
        <ele>2484</ele>
        <time>2021-08-12T10:13:31.501Z</time>
      </trkpt>
      <trkpt lat="46.85283" lon="8.48653">
        <ele>2484</ele>
        <time>2021-08-12T10:13:32.501Z</time>
      </trkpt>
      <trkpt lat="46.85283" lon="8.48652">
        <ele>2484</ele>
        <time>2021-08-12T10:13:33.500Z</time>
      </trkpt>
      <trkpt lat="46.85283" lon="8.48651">
        <ele>2484</ele>
        <time>2021-08-12T10:13:34.501Z</time>
      </trkpt>
      <trkpt lat="46.85283" lon="8.4865">
        <ele>2484</ele>
        <time>2021-08-12T10:13:35.500Z</time>
      </trkpt>
      <trkpt lat="46.85282" lon="8.4865">
        <ele>2484</ele>
        <time>2021-08-12T10:13:36.501Z</time>
      </trkpt>
      <trkpt lat="46.85282" lon="8.48649">
        <ele>2484</ele>
        <time>2021-08-12T10:13:37.501Z</time>
      </trkpt>
      <trkpt lat="46.85281" lon="8.48649">
        <ele>2484</ele>
        <time>2021-08-12T10:13:38.501Z</time>
      </trkpt>
      <trkpt lat="46.85281" lon="8.48648">
        <ele>2484</ele>
        <time>2021-08-12T10:13:39.500Z</time>
      </trkpt>
      <trkpt lat="46.85281" lon="8.48648">
        <ele>2484</ele>
        <time>2021-08-12T10:13:40.501Z</time>
      </trkpt>
      <trkpt lat="46.85281" lon="8.48648">
        <ele>2484</ele>
        <time>2021-08-12T10:13:41.501Z</time>
      </trkpt>
      <trkpt lat="46.85281" lon="8.48646">
        <ele>2484</ele>
        <time>2021-08-12T10:13:42.501Z</time>
      </trkpt>
      <trkpt lat="46.85281" lon="8.48646">
        <ele>2484</ele>
        <time>2021-08-12T10:13:43.502Z</time>
      </trkpt>
      <trkpt lat="46.85281" lon="8.48645">
        <ele>2485</ele>
        <time>2021-08-12T10:13:44.502Z</time>
      </trkpt>
      <trkpt lat="46.85282" lon="8.48644">
        <ele>2485</ele>
        <time>2021-08-12T10:13:45.501Z</time>
      </trkpt>
      <trkpt lat="46.85282" lon="8.48644">
        <ele>2485</ele>
        <time>2021-08-12T10:13:46.502Z</time>
      </trkpt>
      <trkpt lat="46.85282" lon="8.48642">
        <ele>2485</ele>
        <time>2021-08-12T10:13:47.502Z</time>
      </trkpt>
      <trkpt lat="46.85281" lon="8.48641">
        <ele>2485</ele>
        <time>2021-08-12T10:13:48.502Z</time>
      </trkpt>
      <trkpt lat="46.85281" lon="8.4864">
        <ele>2484</ele>
        <time>2021-08-12T10:13:49.502Z</time>
      </trkpt>
      <trkpt lat="46.8528" lon="8.4864">
        <ele>2484</ele>
        <time>2021-08-12T10:13:50.502Z</time>
      </trkpt>
      <trkpt lat="46.85279" lon="8.48639">
        <ele>2483</ele>
        <time>2021-08-12T10:13:51.501Z</time>
      </trkpt>
      <trkpt lat="46.85279" lon="8.48638">
        <ele>2483</ele>
        <time>2021-08-12T10:13:52.501Z</time>
      </trkpt>
      <trkpt lat="46.85278" lon="8.48638">
        <ele>2483</ele>
        <time>2021-08-12T10:13:53.501Z</time>
      </trkpt>
      <trkpt lat="46.85277" lon="8.48639">
        <ele>2483</ele>
        <time>2021-08-12T10:13:54.502Z</time>
      </trkpt>
      <trkpt lat="46.85277" lon="8.48639">
        <ele>2482</ele>
        <time>2021-08-12T10:13:55.501Z</time>
      </trkpt>
      <trkpt lat="46.85276" lon="8.48639">
        <ele>2482</ele>
        <time>2021-08-12T10:13:56.501Z</time>
      </trkpt>
      <trkpt lat="46.85276" lon="8.4864">
        <ele>2482</ele>
        <time>2021-08-12T10:13:57.502Z</time>
      </trkpt>
      <trkpt lat="46.85275" lon="8.4864">
        <ele>2482</ele>
        <time>2021-08-12T10:13:58.502Z</time>
      </trkpt>
      <trkpt lat="46.85274" lon="8.4864">
        <ele>2481</ele>
        <time>2021-08-12T10:13:59.501Z</time>
      </trkpt>
      <trkpt lat="46.85274" lon="8.4864">
        <ele>2481</ele>
        <time>2021-08-12T10:14:00.502Z</time>
      </trkpt>
      <trkpt lat="46.85274" lon="8.4864">
        <ele>2481</ele>
        <time>2021-08-12T10:14:01.502Z</time>
      </trkpt>
      <trkpt lat="46.85274" lon="8.48639">
        <ele>2480</ele>
        <time>2021-08-12T10:14:02.501Z</time>
      </trkpt>
      <trkpt lat="46.85273" lon="8.48639">
        <ele>2480</ele>
        <time>2021-08-12T10:14:03.501Z</time>
      </trkpt>
      <trkpt lat="46.85273" lon="8.48639">
        <ele>2479</ele>
        <time>2021-08-12T10:14:04.501Z</time>
      </trkpt>
      <trkpt lat="46.85272" lon="8.48639">
        <ele>2479</ele>
        <time>2021-08-12T10:14:05.502Z</time>
      </trkpt>
      <trkpt lat="46.85272" lon="8.48639">
        <ele>2479</ele>
        <time>2021-08-12T10:14:06.502Z</time>
      </trkpt>
      <trkpt lat="46.85272" lon="8.48639">
        <ele>2479</ele>
        <time>2021-08-12T10:14:07.502Z</time>
      </trkpt>
      <trkpt lat="46.85272" lon="8.48638">
        <ele>2478</ele>
        <time>2021-08-12T10:14:08.501Z</time>
      </trkpt>
      <trkpt lat="46.85272" lon="8.48638">
        <ele>2478</ele>
        <time>2021-08-12T10:14:09.501Z</time>
      </trkpt>
      <trkpt lat="46.85273" lon="8.48637">
        <ele>2475</ele>
        <time>2021-08-12T10:14:10.501Z</time>
      </trkpt>
      <trkpt lat="46.85273" lon="8.48637">
        <ele>2474</ele>
        <time>2021-08-12T10:14:11.502Z</time>
      </trkpt>
      <trkpt lat="46.85273" lon="8.48636">
        <ele>2473</ele>
        <time>2021-08-12T10:14:12.501Z</time>
      </trkpt>
      <trkpt lat="46.85273" lon="8.48634">
        <ele>2473</ele>
        <time>2021-08-12T10:14:13.502Z</time>
      </trkpt>
      <trkpt lat="46.85273" lon="8.48633">
        <ele>2472</ele>
        <time>2021-08-12T10:14:14.502Z</time>
      </trkpt>
      <trkpt lat="46.85272" lon="8.48632">
        <ele>2472</ele>
        <time>2021-08-12T10:14:15.502Z</time>
      </trkpt>
      <trkpt lat="46.85272" lon="8.48631">
        <ele>2472</ele>
        <time>2021-08-12T10:14:16.502Z</time>
      </trkpt>
      <trkpt lat="46.85271" lon="8.48631">
        <ele>2472</ele>
        <time>2021-08-12T10:14:17.501Z</time>
      </trkpt>
      <trkpt lat="46.85271" lon="8.48631">
        <ele>2472</ele>
        <time>2021-08-12T10:14:18.502Z</time>
      </trkpt>
      <trkpt lat="46.8527" lon="8.48631">
        <ele>2472</ele>
        <time>2021-08-12T10:14:19.501Z</time>
      </trkpt>
      <trkpt lat="46.85269" lon="8.4863">
        <ele>2472</ele>
        <time>2021-08-12T10:14:20.502Z</time>
      </trkpt>
      <trkpt lat="46.85269" lon="8.4863">
        <ele>2473</ele>
        <time>2021-08-12T10:14:21.501Z</time>
      </trkpt>
      <trkpt lat="46.85268" lon="8.48629">
        <ele>2473</ele>
        <time>2021-08-12T10:14:22.501Z</time>
      </trkpt>
      <trkpt lat="46.85267" lon="8.48628">
        <ele>2474</ele>
        <time>2021-08-12T10:14:23.501Z</time>
      </trkpt>
      <trkpt lat="46.85267" lon="8.48628">
        <ele>2474</ele>
        <time>2021-08-12T10:14:24.502Z</time>
      </trkpt>
      <trkpt lat="46.85266" lon="8.48629">
        <ele>2475</ele>
        <time>2021-08-12T10:14:25.502Z</time>
      </trkpt>
      <trkpt lat="46.85265" lon="8.48629">
        <ele>2475</ele>
        <time>2021-08-12T10:14:26.502Z</time>
      </trkpt>
      <trkpt lat="46.85265" lon="8.48629">
        <ele>2475</ele>
        <time>2021-08-12T10:14:27.501Z</time>
      </trkpt>
      <trkpt lat="46.85265" lon="8.4863">
        <ele>2475</ele>
        <time>2021-08-12T10:14:28.502Z</time>
      </trkpt>
      <trkpt lat="46.85265" lon="8.4863">
        <ele>2475</ele>
        <time>2021-08-12T10:14:29.502Z</time>
      </trkpt>
      <trkpt lat="46.85266" lon="8.48629">
        <ele>2474</ele>
        <time>2021-08-12T10:14:30.501Z</time>
      </trkpt>
      <trkpt lat="46.85267" lon="8.48629">
        <ele>2473</ele>
        <time>2021-08-12T10:14:31.501Z</time>
      </trkpt>
      <trkpt lat="46.85267" lon="8.48628">
        <ele>2473</ele>
        <time>2021-08-12T10:14:32.502Z</time>
      </trkpt>
      <trkpt lat="46.85267" lon="8.48627">
        <ele>2473</ele>
        <time>2021-08-12T10:14:33.502Z</time>
      </trkpt>
      <trkpt lat="46.85268" lon="8.48625">
        <ele>2473</ele>
        <time>2021-08-12T10:14:34.502Z</time>
      </trkpt>
      <trkpt lat="46.85268" lon="8.48624">
        <ele>2472</ele>
        <time>2021-08-12T10:14:35.502Z</time>
      </trkpt>
      <trkpt lat="46.85269" lon="8.48623">
        <ele>2472</ele>
        <time>2021-08-12T10:14:36.502Z</time>
      </trkpt>
      <trkpt lat="46.85269" lon="8.48621">
        <ele>2473</ele>
        <time>2021-08-12T10:14:37.502Z</time>
      </trkpt>
      <trkpt lat="46.85269" lon="8.4862">
        <ele>2473</ele>
        <time>2021-08-12T10:14:38.502Z</time>
      </trkpt>
      <trkpt lat="46.85269" lon="8.48619">
        <ele>2474</ele>
        <time>2021-08-12T10:14:39.502Z</time>
      </trkpt>
      <trkpt lat="46.85269" lon="8.48619">
        <ele>2474</ele>
        <time>2021-08-12T10:14:40.501Z</time>
      </trkpt>
      <trkpt lat="46.85269" lon="8.48619">
        <ele>2474</ele>
        <time>2021-08-12T10:14:41.501Z</time>
      </trkpt>
      <trkpt lat="46.85268" lon="8.48618">
        <ele>2473</ele>
        <time>2021-08-12T10:14:42.502Z</time>
      </trkpt>
      <trkpt lat="46.85267" lon="8.48617">
        <ele>2473</ele>
        <time>2021-08-12T10:14:43.502Z</time>
      </trkpt>
      <trkpt lat="46.85267" lon="8.48617">
        <ele>2473</ele>
        <time>2021-08-12T10:14:44.501Z</time>
      </trkpt>
      <trkpt lat="46.85267" lon="8.48616">
        <ele>2473</ele>
        <time>2021-08-12T10:14:45.502Z</time>
      </trkpt>
      <trkpt lat="46.85268" lon="8.48615">
        <ele>2473</ele>
        <time>2021-08-12T10:14:46.501Z</time>
      </trkpt>
      <trkpt lat="46.85269" lon="8.48614">
        <ele>2473</ele>
        <time>2021-08-12T10:14:47.502Z</time>
      </trkpt>
      <trkpt lat="46.8527" lon="8.48613">
        <ele>2473</ele>
        <time>2021-08-12T10:14:48.501Z</time>
      </trkpt>
      <trkpt lat="46.8527" lon="8.48613">
        <ele>2473</ele>
        <time>2021-08-12T10:14:49.502Z</time>
      </trkpt>
      <trkpt lat="46.8527" lon="8.48612">
        <ele>2472</ele>
        <time>2021-08-12T10:14:50.502Z</time>
      </trkpt>
      <trkpt lat="46.85269" lon="8.48611">
        <ele>2472</ele>
        <time>2021-08-12T10:14:51.501Z</time>
      </trkpt>
      <trkpt lat="46.85269" lon="8.4861">
        <ele>2471</ele>
        <time>2021-08-12T10:14:52.502Z</time>
      </trkpt>
      <trkpt lat="46.85268" lon="8.4861">
        <ele>2471</ele>
        <time>2021-08-12T10:14:53.502Z</time>
      </trkpt>
      <trkpt lat="46.85267" lon="8.4861">
        <ele>2471</ele>
        <time>2021-08-12T10:14:54.501Z</time>
      </trkpt>
      <trkpt lat="46.85267" lon="8.4861">
        <ele>2470</ele>
        <time>2021-08-12T10:14:55.502Z</time>
      </trkpt>
      <trkpt lat="46.85266" lon="8.4861">
        <ele>2470</ele>
        <time>2021-08-12T10:14:56.502Z</time>
      </trkpt>
      <trkpt lat="46.85266" lon="8.4861">
        <ele>2470</ele>
        <time>2021-08-12T10:14:57.501Z</time>
      </trkpt>
      <trkpt lat="46.85265" lon="8.4861">
        <ele>2470</ele>
        <time>2021-08-12T10:14:58.502Z</time>
      </trkpt>
      <trkpt lat="46.85265" lon="8.4861">
        <ele>2470</ele>
        <time>2021-08-12T10:14:59.502Z</time>
      </trkpt>
      <trkpt lat="46.85265" lon="8.48609">
        <ele>2470</ele>
        <time>2021-08-12T10:15:00.502Z</time>
      </trkpt>
      <trkpt lat="46.85264" lon="8.48609">
        <ele>2469</ele>
        <time>2021-08-12T10:15:01.502Z</time>
      </trkpt>
      <trkpt lat="46.85263" lon="8.48608">
        <ele>2469</ele>
        <time>2021-08-12T10:15:02.501Z</time>
      </trkpt>
      <trkpt lat="46.85263" lon="8.48606">
        <ele>2468</ele>
        <time>2021-08-12T10:15:03.502Z</time>
      </trkpt>
      <trkpt lat="46.85263" lon="8.48605">
        <ele>2468</ele>
        <time>2021-08-12T10:15:04.502Z</time>
      </trkpt>
      <trkpt lat="46.85262" lon="8.48604">
        <ele>2468</ele>
        <time>2021-08-12T10:15:05.502Z</time>
      </trkpt>
      <trkpt lat="46.85261" lon="8.48603">
        <ele>2467</ele>
        <time>2021-08-12T10:15:06.502Z</time>
      </trkpt>
      <trkpt lat="46.85261" lon="8.48602">
        <ele>2467</ele>
        <time>2021-08-12T10:15:07.502Z</time>
      </trkpt>
      <trkpt lat="46.8526" lon="8.48601">
        <ele>2467</ele>
        <time>2021-08-12T10:15:08.502Z</time>
      </trkpt>
      <trkpt lat="46.8526" lon="8.486">
        <ele>2467</ele>
        <time>2021-08-12T10:15:09.502Z</time>
      </trkpt>
      <trkpt lat="46.85259" lon="8.48599">
        <ele>2466</ele>
        <time>2021-08-12T10:15:10.501Z</time>
      </trkpt>
      <trkpt lat="46.85259" lon="8.48598">
        <ele>2466</ele>
        <time>2021-08-12T10:15:11.502Z</time>
      </trkpt>
      <trkpt lat="46.85258" lon="8.48597">
        <ele>2466</ele>
        <time>2021-08-12T10:15:12.502Z</time>
      </trkpt>
      <trkpt lat="46.85257" lon="8.48596">
        <ele>2466</ele>
        <time>2021-08-12T10:15:13.501Z</time>
      </trkpt>
      <trkpt lat="46.85257" lon="8.48596">
        <ele>2466</ele>
        <time>2021-08-12T10:15:14.502Z</time>
      </trkpt>
      <trkpt lat="46.85256" lon="8.48596">
        <ele>2466</ele>
        <time>2021-08-12T10:15:15.501Z</time>
      </trkpt>
      <trkpt lat="46.85255" lon="8.48597">
        <ele>2465</ele>
        <time>2021-08-12T10:15:16.502Z</time>
      </trkpt>
      <trkpt lat="46.85254" lon="8.48597">
        <ele>2465</ele>
        <time>2021-08-12T10:15:17.502Z</time>
      </trkpt>
      <trkpt lat="46.85254" lon="8.48598">
        <ele>2465</ele>
        <time>2021-08-12T10:15:18.502Z</time>
      </trkpt>
      <trkpt lat="46.85253" lon="8.48599">
        <ele>2464</ele>
        <time>2021-08-12T10:15:19.502Z</time>
      </trkpt>
      <trkpt lat="46.85253" lon="8.48599">
        <ele>2464</ele>
        <time>2021-08-12T10:15:20.502Z</time>
      </trkpt>
      <trkpt lat="46.85252" lon="8.48599">
        <ele>2464</ele>
        <time>2021-08-12T10:15:21.502Z</time>
      </trkpt>
      <trkpt lat="46.85252" lon="8.48599">
        <ele>2464</ele>
        <time>2021-08-12T10:15:22.502Z</time>
      </trkpt>
      <trkpt lat="46.85252" lon="8.48598">
        <ele>2463</ele>
        <time>2021-08-12T10:15:23.501Z</time>
      </trkpt>
      <trkpt lat="46.85252" lon="8.48597">
        <ele>2463</ele>
        <time>2021-08-12T10:15:24.501Z</time>
      </trkpt>
      <trkpt lat="46.85252" lon="8.48596">
        <ele>2463</ele>
        <time>2021-08-12T10:15:25.502Z</time>
      </trkpt>
      <trkpt lat="46.85252" lon="8.48595">
        <ele>2463</ele>
        <time>2021-08-12T10:15:26.501Z</time>
      </trkpt>
      <trkpt lat="46.85252" lon="8.48594">
        <ele>2463</ele>
        <time>2021-08-12T10:15:27.502Z</time>
      </trkpt>
      <trkpt lat="46.85252" lon="8.48592">
        <ele>2463</ele>
        <time>2021-08-12T10:15:28.502Z</time>
      </trkpt>
      <trkpt lat="46.85251" lon="8.48591">
        <ele>2463</ele>
        <time>2021-08-12T10:15:29.502Z</time>
      </trkpt>
      <trkpt lat="46.85251" lon="8.48589">
        <ele>2464</ele>
        <time>2021-08-12T10:15:30.502Z</time>
      </trkpt>
      <trkpt lat="46.85251" lon="8.48587">
        <ele>2464</ele>
        <time>2021-08-12T10:15:31.502Z</time>
      </trkpt>
      <trkpt lat="46.8525" lon="8.48585">
        <ele>2464</ele>
        <time>2021-08-12T10:15:32.502Z</time>
      </trkpt>
      <trkpt lat="46.85249" lon="8.48584">
        <ele>2464</ele>
        <time>2021-08-12T10:15:33.501Z</time>
      </trkpt>
      <trkpt lat="46.85249" lon="8.48582">
        <ele>2464</ele>
        <time>2021-08-12T10:15:34.502Z</time>
      </trkpt>
      <trkpt lat="46.85248" lon="8.48581">
        <ele>2464</ele>
        <time>2021-08-12T10:15:35.501Z</time>
      </trkpt>
      <trkpt lat="46.85248" lon="8.4858">
        <ele>2464</ele>
        <time>2021-08-12T10:15:36.502Z</time>
      </trkpt>
      <trkpt lat="46.85247" lon="8.48579">
        <ele>2463</ele>
        <time>2021-08-12T10:15:37.502Z</time>
      </trkpt>
      <trkpt lat="46.85247" lon="8.48577">
        <ele>2462</ele>
        <time>2021-08-12T10:15:38.502Z</time>
      </trkpt>
      <trkpt lat="46.85246" lon="8.48575">
        <ele>2462</ele>
        <time>2021-08-12T10:15:39.502Z</time>
      </trkpt>
      <trkpt lat="46.85247" lon="8.48574">
        <ele>2461</ele>
        <time>2021-08-12T10:15:40.502Z</time>
      </trkpt>
      <trkpt lat="46.85247" lon="8.48572">
        <ele>2461</ele>
        <time>2021-08-12T10:15:41.502Z</time>
      </trkpt>
      <trkpt lat="46.85247" lon="8.4857">
        <ele>2461</ele>
        <time>2021-08-12T10:15:42.502Z</time>
      </trkpt>
      <trkpt lat="46.85247" lon="8.48569">
        <ele>2462</ele>
        <time>2021-08-12T10:15:43.501Z</time>
      </trkpt>
      <trkpt lat="46.85248" lon="8.48566">
        <ele>2463</ele>
        <time>2021-08-12T10:15:44.501Z</time>
      </trkpt>
      <trkpt lat="46.85248" lon="8.48564">
        <ele>2463</ele>
        <time>2021-08-12T10:15:45.502Z</time>
      </trkpt>
      <trkpt lat="46.85247" lon="8.48562">
        <ele>2464</ele>
        <time>2021-08-12T10:15:46.501Z</time>
      </trkpt>
      <trkpt lat="46.85247" lon="8.48561">
        <ele>2464</ele>
        <time>2021-08-12T10:15:47.502Z</time>
      </trkpt>
      <trkpt lat="46.85246" lon="8.4856">
        <ele>2464</ele>
        <time>2021-08-12T10:15:48.502Z</time>
      </trkpt>
      <trkpt lat="46.85246" lon="8.48559">
        <ele>2464</ele>
        <time>2021-08-12T10:15:49.501Z</time>
      </trkpt>
      <trkpt lat="46.85246" lon="8.48557">
        <ele>2464</ele>
        <time>2021-08-12T10:15:50.502Z</time>
      </trkpt>
      <trkpt lat="46.85246" lon="8.48556">
        <ele>2464</ele>
        <time>2021-08-12T10:15:51.501Z</time>
      </trkpt>
      <trkpt lat="46.85245" lon="8.48555">
        <ele>2464</ele>
        <time>2021-08-12T10:15:52.501Z</time>
      </trkpt>
      <trkpt lat="46.85244" lon="8.48554">
        <ele>2464</ele>
        <time>2021-08-12T10:15:53.501Z</time>
      </trkpt>
      <trkpt lat="46.85244" lon="8.48554">
        <ele>2464</ele>
        <time>2021-08-12T10:15:54.502Z</time>
      </trkpt>
      <trkpt lat="46.85243" lon="8.48554">
        <ele>2463</ele>
        <time>2021-08-12T10:15:55.502Z</time>
      </trkpt>
      <trkpt lat="46.85243" lon="8.48553">
        <ele>2462</ele>
        <time>2021-08-12T10:15:56.501Z</time>
      </trkpt>
      <trkpt lat="46.85243" lon="8.48552">
        <ele>2461</ele>
        <time>2021-08-12T10:15:57.502Z</time>
      </trkpt>
      <trkpt lat="46.85243" lon="8.48552">
        <ele>2460</ele>
        <time>2021-08-12T10:15:58.502Z</time>
      </trkpt>
      <trkpt lat="46.85244" lon="8.48552">
        <ele>2460</ele>
        <time>2021-08-12T10:15:59.502Z</time>
      </trkpt>
      <trkpt lat="46.85244" lon="8.4855">
        <ele>2460</ele>
        <time>2021-08-12T10:16:00.501Z</time>
      </trkpt>
      <trkpt lat="46.85244" lon="8.48548">
        <ele>2460</ele>
        <time>2021-08-12T10:16:01.502Z</time>
      </trkpt>
      <trkpt lat="46.85243" lon="8.48547">
        <ele>2460</ele>
        <time>2021-08-12T10:16:02.501Z</time>
      </trkpt>
      <trkpt lat="46.85242" lon="8.48547">
        <ele>2461</ele>
        <time>2021-08-12T10:16:03.502Z</time>
      </trkpt>
      <trkpt lat="46.85242" lon="8.48546">
        <ele>2461</ele>
        <time>2021-08-12T10:16:04.502Z</time>
      </trkpt>
      <trkpt lat="46.85242" lon="8.48545">
        <ele>2461</ele>
        <time>2021-08-12T10:16:05.501Z</time>
      </trkpt>
      <trkpt lat="46.85241" lon="8.48544">
        <ele>2461</ele>
        <time>2021-08-12T10:16:06.501Z</time>
      </trkpt>
      <trkpt lat="46.8524" lon="8.48544">
        <ele>2462</ele>
        <time>2021-08-12T10:16:07.502Z</time>
      </trkpt>
      <trkpt lat="46.85239" lon="8.48544">
        <ele>2462</ele>
        <time>2021-08-12T10:16:08.501Z</time>
      </trkpt>
      <trkpt lat="46.85239" lon="8.48544">
        <ele>2461</ele>
        <time>2021-08-12T10:16:09.502Z</time>
      </trkpt>
      <trkpt lat="46.85239" lon="8.48544">
        <ele>2461</ele>
        <time>2021-08-12T10:16:10.502Z</time>
      </trkpt>
      <trkpt lat="46.85238" lon="8.48543">
        <ele>2457</ele>
        <time>2021-08-12T10:16:11.501Z</time>
      </trkpt>
      <trkpt lat="46.85238" lon="8.48543">
        <ele>2456</ele>
        <time>2021-08-12T10:16:12.501Z</time>
      </trkpt>
      <trkpt lat="46.85238" lon="8.48542">
        <ele>2455</ele>
        <time>2021-08-12T10:16:13.501Z</time>
      </trkpt>
      <trkpt lat="46.85238" lon="8.48541">
        <ele>2455</ele>
        <time>2021-08-12T10:16:14.502Z</time>
      </trkpt>
      <trkpt lat="46.85238" lon="8.4854">
        <ele>2455</ele>
        <time>2021-08-12T10:16:15.502Z</time>
      </trkpt>
      <trkpt lat="46.85238" lon="8.48538">
        <ele>2455</ele>
        <time>2021-08-12T10:16:16.502Z</time>
      </trkpt>
      <trkpt lat="46.85238" lon="8.48536">
        <ele>2455</ele>
        <time>2021-08-12T10:16:17.502Z</time>
      </trkpt>
      <trkpt lat="46.85238" lon="8.48535">
        <ele>2454</ele>
        <time>2021-08-12T10:16:18.501Z</time>
      </trkpt>
      <trkpt lat="46.85237" lon="8.48533">
        <ele>2454</ele>
        <time>2021-08-12T10:16:19.502Z</time>
      </trkpt>
      <trkpt lat="46.85237" lon="8.48531">
        <ele>2454</ele>
        <time>2021-08-12T10:16:20.502Z</time>
      </trkpt>
      <trkpt lat="46.85237" lon="8.4853">
        <ele>2455</ele>
        <time>2021-08-12T10:16:21.502Z</time>
      </trkpt>
      <trkpt lat="46.85237" lon="8.48529">
        <ele>2454</ele>
        <time>2021-08-12T10:16:22.502Z</time>
      </trkpt>
      <trkpt lat="46.85237" lon="8.48527">
        <ele>2454</ele>
        <time>2021-08-12T10:16:23.502Z</time>
      </trkpt>
      <trkpt lat="46.85237" lon="8.48526">
        <ele>2455</ele>
        <time>2021-08-12T10:16:24.502Z</time>
      </trkpt>
      <trkpt lat="46.85236" lon="8.48524">
        <ele>2455</ele>
        <time>2021-08-12T10:16:25.502Z</time>
      </trkpt>
      <trkpt lat="46.85236" lon="8.48523">
        <ele>2455</ele>
        <time>2021-08-12T10:16:26.502Z</time>
      </trkpt>
      <trkpt lat="46.85236" lon="8.48521">
        <ele>2456</ele>
        <time>2021-08-12T10:16:27.501Z</time>
      </trkpt>
      <trkpt lat="46.85236" lon="8.4852">
        <ele>2456</ele>
        <time>2021-08-12T10:16:28.502Z</time>
      </trkpt>
      <trkpt lat="46.85235" lon="8.48518">
        <ele>2456</ele>
        <time>2021-08-12T10:16:29.502Z</time>
      </trkpt>
      <trkpt lat="46.85235" lon="8.48516">
        <ele>2456</ele>
        <time>2021-08-12T10:16:30.501Z</time>
      </trkpt>
      <trkpt lat="46.85235" lon="8.48515">
        <ele>2457</ele>
        <time>2021-08-12T10:16:31.501Z</time>
      </trkpt>
      <trkpt lat="46.85234" lon="8.48513">
        <ele>2456</ele>
        <time>2021-08-12T10:16:32.502Z</time>
      </trkpt>
      <trkpt lat="46.85233" lon="8.48512">
        <ele>2456</ele>
        <time>2021-08-12T10:16:33.501Z</time>
      </trkpt>
      <trkpt lat="46.85232" lon="8.4851">
        <ele>2456</ele>
        <time>2021-08-12T10:16:34.501Z</time>
      </trkpt>
      <trkpt lat="46.85232" lon="8.48509">
        <ele>2456</ele>
        <time>2021-08-12T10:16:35.501Z</time>
      </trkpt>
      <trkpt lat="46.85231" lon="8.48508">
        <ele>2455</ele>
        <time>2021-08-12T10:16:36.501Z</time>
      </trkpt>
      <trkpt lat="46.8523" lon="8.48506">
        <ele>2455</ele>
        <time>2021-08-12T10:16:37.501Z</time>
      </trkpt>
      <trkpt lat="46.8523" lon="8.48505">
        <ele>2455</ele>
        <time>2021-08-12T10:16:38.502Z</time>
      </trkpt>
      <trkpt lat="46.85229" lon="8.48504">
        <ele>2455</ele>
        <time>2021-08-12T10:16:39.501Z</time>
      </trkpt>
      <trkpt lat="46.85228" lon="8.48503">
        <ele>2455</ele>
        <time>2021-08-12T10:16:40.501Z</time>
      </trkpt>
      <trkpt lat="46.85228" lon="8.48503">
        <ele>2455</ele>
        <time>2021-08-12T10:16:41.502Z</time>
      </trkpt>
      <trkpt lat="46.85227" lon="8.48502">
        <ele>2455</ele>
        <time>2021-08-12T10:16:42.502Z</time>
      </trkpt>
      <trkpt lat="46.85227" lon="8.48501">
        <ele>2455</ele>
        <time>2021-08-12T10:16:43.501Z</time>
      </trkpt>
      <trkpt lat="46.85226" lon="8.48499">
        <ele>2455</ele>
        <time>2021-08-12T10:16:44.501Z</time>
      </trkpt>
      <trkpt lat="46.85225" lon="8.48498">
        <ele>2454</ele>
        <time>2021-08-12T10:16:45.502Z</time>
      </trkpt>
      <trkpt lat="46.85225" lon="8.48496">
        <ele>2454</ele>
        <time>2021-08-12T10:16:46.501Z</time>
      </trkpt>
      <trkpt lat="46.85225" lon="8.48495">
        <ele>2454</ele>
        <time>2021-08-12T10:16:47.501Z</time>
      </trkpt>
      <trkpt lat="46.85225" lon="8.48493">
        <ele>2454</ele>
        <time>2021-08-12T10:16:48.502Z</time>
      </trkpt>
      <trkpt lat="46.85224" lon="8.48491">
        <ele>2454</ele>
        <time>2021-08-12T10:16:49.502Z</time>
      </trkpt>
      <trkpt lat="46.85224" lon="8.4849">
        <ele>2454</ele>
        <time>2021-08-12T10:16:50.502Z</time>
      </trkpt>
      <trkpt lat="46.85224" lon="8.48489">
        <ele>2454</ele>
        <time>2021-08-12T10:16:51.502Z</time>
      </trkpt>
      <trkpt lat="46.85224" lon="8.48488">
        <ele>2454</ele>
        <time>2021-08-12T10:16:52.501Z</time>
      </trkpt>
      <trkpt lat="46.85224" lon="8.48487">
        <ele>2453</ele>
        <time>2021-08-12T10:16:53.502Z</time>
      </trkpt>
      <trkpt lat="46.85223" lon="8.48485">
        <ele>2453</ele>
        <time>2021-08-12T10:16:54.502Z</time>
      </trkpt>
      <trkpt lat="46.85223" lon="8.48484">
        <ele>2452</ele>
        <time>2021-08-12T10:16:55.502Z</time>
      </trkpt>
      <trkpt lat="46.85223" lon="8.48483">
        <ele>2452</ele>
        <time>2021-08-12T10:16:56.502Z</time>
      </trkpt>
      <trkpt lat="46.85223" lon="8.48482">
        <ele>2452</ele>
        <time>2021-08-12T10:16:57.501Z</time>
      </trkpt>
      <trkpt lat="46.85223" lon="8.48482">
        <ele>2451</ele>
        <time>2021-08-12T10:16:58.502Z</time>
      </trkpt>
      <trkpt lat="46.85223" lon="8.48482">
        <ele>2451</ele>
        <time>2021-08-12T10:16:59.502Z</time>
      </trkpt>
      <trkpt lat="46.85223" lon="8.48483">
        <ele>2447</ele>
        <time>2021-08-12T10:17:00.503Z</time>
      </trkpt>
      <trkpt lat="46.85223" lon="8.48482">
        <ele>2448</ele>
        <time>2021-08-12T10:17:01.502Z</time>
      </trkpt>
      <trkpt lat="46.85223" lon="8.48481">
        <ele>2448</ele>
        <time>2021-08-12T10:17:02.503Z</time>
      </trkpt>
      <trkpt lat="46.85222" lon="8.4848">
        <ele>2448</ele>
        <time>2021-08-12T10:17:03.502Z</time>
      </trkpt>
      <trkpt lat="46.85223" lon="8.48478">
        <ele>2448</ele>
        <time>2021-08-12T10:17:04.503Z</time>
      </trkpt>
      <trkpt lat="46.85223" lon="8.48477">
        <ele>2448</ele>
        <time>2021-08-12T10:17:05.503Z</time>
      </trkpt>
      <trkpt lat="46.85223" lon="8.48476">
        <ele>2448</ele>
        <time>2021-08-12T10:17:06.503Z</time>
      </trkpt>
      <trkpt lat="46.85224" lon="8.48475">
        <ele>2448</ele>
        <time>2021-08-12T10:17:07.503Z</time>
      </trkpt>
      <trkpt lat="46.85224" lon="8.48473">
        <ele>2448</ele>
        <time>2021-08-12T10:17:08.502Z</time>
      </trkpt>
      <trkpt lat="46.85224" lon="8.48472">
        <ele>2448</ele>
        <time>2021-08-12T10:17:09.502Z</time>
      </trkpt>
      <trkpt lat="46.85225" lon="8.48471">
        <ele>2448</ele>
        <time>2021-08-12T10:17:10.502Z</time>
      </trkpt>
      <trkpt lat="46.85226" lon="8.4847">
        <ele>2448</ele>
        <time>2021-08-12T10:17:11.503Z</time>
      </trkpt>
      <trkpt lat="46.85226" lon="8.48469">
        <ele>2447</ele>
        <time>2021-08-12T10:17:12.502Z</time>
      </trkpt>
      <trkpt lat="46.85227" lon="8.48468">
        <ele>2447</ele>
        <time>2021-08-12T10:17:13.502Z</time>
      </trkpt>
      <trkpt lat="46.85227" lon="8.48467">
        <ele>2448</ele>
        <time>2021-08-12T10:17:14.502Z</time>
      </trkpt>
      <trkpt lat="46.85227" lon="8.48466">
        <ele>2448</ele>
        <time>2021-08-12T10:17:15.503Z</time>
      </trkpt>
      <trkpt lat="46.85228" lon="8.48465">
        <ele>2449</ele>
        <time>2021-08-12T10:17:16.503Z</time>
      </trkpt>
      <trkpt lat="46.85228" lon="8.48464">
        <ele>2449</ele>
        <time>2021-08-12T10:17:17.503Z</time>
      </trkpt>
      <trkpt lat="46.85228" lon="8.48463">
        <ele>2449</ele>
        <time>2021-08-12T10:17:18.502Z</time>
      </trkpt>
      <trkpt lat="46.85228" lon="8.48462">
        <ele>2449</ele>
        <time>2021-08-12T10:17:19.502Z</time>
      </trkpt>
      <trkpt lat="46.85229" lon="8.4846">
        <ele>2449</ele>
        <time>2021-08-12T10:17:20.503Z</time>
      </trkpt>
      <trkpt lat="46.85229" lon="8.48459">
        <ele>2449</ele>
        <time>2021-08-12T10:17:21.502Z</time>
      </trkpt>
      <trkpt lat="46.85229" lon="8.48458">
        <ele>2448</ele>
        <time>2021-08-12T10:17:22.502Z</time>
      </trkpt>
      <trkpt lat="46.85229" lon="8.48457">
        <ele>2448</ele>
        <time>2021-08-12T10:17:23.502Z</time>
      </trkpt>
      <trkpt lat="46.8523" lon="8.48456">
        <ele>2448</ele>
        <time>2021-08-12T10:17:24.502Z</time>
      </trkpt>
      <trkpt lat="46.8523" lon="8.48456">
        <ele>2448</ele>
        <time>2021-08-12T10:17:25.502Z</time>
      </trkpt>
      <trkpt lat="46.8523" lon="8.48455">
        <ele>2447</ele>
        <time>2021-08-12T10:17:26.502Z</time>
      </trkpt>
      <trkpt lat="46.8523" lon="8.48454">
        <ele>2447</ele>
        <time>2021-08-12T10:17:27.502Z</time>
      </trkpt>
      <trkpt lat="46.8523" lon="8.48454">
        <ele>2448</ele>
        <time>2021-08-12T10:17:28.502Z</time>
      </trkpt>
      <trkpt lat="46.8523" lon="8.48453">
        <ele>2448</ele>
        <time>2021-08-12T10:17:29.502Z</time>
      </trkpt>
      <trkpt lat="46.8523" lon="8.48453">
        <ele>2448</ele>
        <time>2021-08-12T10:17:30.502Z</time>
      </trkpt>
      <trkpt lat="46.85229" lon="8.48452">
        <ele>2448</ele>
        <time>2021-08-12T10:17:31.502Z</time>
      </trkpt>
      <trkpt lat="46.8523" lon="8.48451">
        <ele>2447</ele>
        <time>2021-08-12T10:17:32.503Z</time>
      </trkpt>
      <trkpt lat="46.8523" lon="8.4845">
        <ele>2447</ele>
        <time>2021-08-12T10:17:33.502Z</time>
      </trkpt>
      <trkpt lat="46.8523" lon="8.48449">
        <ele>2447</ele>
        <time>2021-08-12T10:17:34.502Z</time>
      </trkpt>
      <trkpt lat="46.8523" lon="8.48448">
        <ele>2446</ele>
        <time>2021-08-12T10:17:35.502Z</time>
      </trkpt>
      <trkpt lat="46.8523" lon="8.48447">
        <ele>2446</ele>
        <time>2021-08-12T10:17:36.502Z</time>
      </trkpt>
      <trkpt lat="46.8523" lon="8.48447">
        <ele>2446</ele>
        <time>2021-08-12T10:17:37.502Z</time>
      </trkpt>
      <trkpt lat="46.8523" lon="8.48446">
        <ele>2447</ele>
        <time>2021-08-12T10:17:38.502Z</time>
      </trkpt>
      <trkpt lat="46.8523" lon="8.48445">
        <ele>2447</ele>
        <time>2021-08-12T10:17:39.502Z</time>
      </trkpt>
      <trkpt lat="46.8523" lon="8.48445">
        <ele>2447</ele>
        <time>2021-08-12T10:17:40.502Z</time>
      </trkpt>
      <trkpt lat="46.85229" lon="8.48445">
        <ele>2447</ele>
        <time>2021-08-12T10:17:41.502Z</time>
      </trkpt>
      <trkpt lat="46.85228" lon="8.48447">
        <ele>2445</ele>
        <time>2021-08-12T10:17:42.504Z</time>
      </trkpt>
      <trkpt lat="46.85227" lon="8.48447">
        <ele>2444</ele>
        <time>2021-08-12T10:17:43.504Z</time>
      </trkpt>
      <trkpt lat="46.85227" lon="8.48448">
        <ele>2444</ele>
        <time>2021-08-12T10:17:44.504Z</time>
      </trkpt>
      <trkpt lat="46.85227" lon="8.48449">
        <ele>2444</ele>
        <time>2021-08-12T10:17:45.504Z</time>
      </trkpt>
      <trkpt lat="46.85227" lon="8.4845">
        <ele>2444</ele>
        <time>2021-08-12T10:17:46.504Z</time>
      </trkpt>
      <trkpt lat="46.85227" lon="8.4845">
        <ele>2448</ele>
        <time>2021-08-12T10:17:47.505Z</time>
      </trkpt>
      <trkpt lat="46.85225" lon="8.48449">
        <ele>2446</ele>
        <time>2021-08-12T10:17:48.506Z</time>
      </trkpt>
      <trkpt lat="46.85224" lon="8.48448">
        <ele>2446</ele>
        <time>2021-08-12T10:17:49.506Z</time>
      </trkpt>
      <trkpt lat="46.85227" lon="8.48447">
        <ele>2446</ele>
        <time>2021-08-12T10:17:50.505Z</time>
      </trkpt>
      <trkpt lat="46.85227" lon="8.48447">
        <ele>2446</ele>
        <time>2021-08-12T10:17:51.506Z</time>
      </trkpt>
      <trkpt lat="46.85228" lon="8.48447">
        <ele>2446</ele>
        <time>2021-08-12T10:17:52.506Z</time>
      </trkpt>
      <trkpt lat="46.85228" lon="8.48447">
        <ele>2446</ele>
        <time>2021-08-12T10:17:53.505Z</time>
      </trkpt>
      <trkpt lat="46.85229" lon="8.48447">
        <ele>2446</ele>
        <time>2021-08-12T10:17:54.506Z</time>
      </trkpt>
      <trkpt lat="46.8523" lon="8.48446">
        <ele>2446</ele>
        <time>2021-08-12T10:17:55.505Z</time>
      </trkpt>
      <trkpt lat="46.8523" lon="8.48446">
        <ele>2446</ele>
        <time>2021-08-12T10:17:56.506Z</time>
      </trkpt>
      <trkpt lat="46.8523" lon="8.48446">
        <ele>2446</ele>
        <time>2021-08-12T10:17:57.505Z</time>
      </trkpt>
      <trkpt lat="46.8523" lon="8.48446">
        <ele>2446</ele>
        <time>2021-08-12T10:17:58.506Z</time>
      </trkpt>
      <trkpt lat="46.85229" lon="8.48445">
        <ele>2445</ele>
        <time>2021-08-12T10:17:59.507Z</time>
      </trkpt>
      <trkpt lat="46.85229" lon="8.48446">
        <ele>2446</ele>
        <time>2021-08-12T10:18:00.506Z</time>
      </trkpt>
      <trkpt lat="46.85228" lon="8.48446">
        <ele>2445</ele>
        <time>2021-08-12T10:18:01.507Z</time>
      </trkpt>
      <trkpt lat="46.85228" lon="8.48446">
        <ele>2445</ele>
        <time>2021-08-12T10:18:02.506Z</time>
      </trkpt>
      <trkpt lat="46.85228" lon="8.48446">
        <ele>2445</ele>
        <time>2021-08-12T10:18:03.506Z</time>
      </trkpt>
      <trkpt lat="46.85227" lon="8.48446">
        <ele>2439</ele>
        <time>2021-08-12T10:18:04.507Z</time>
      </trkpt>
      <trkpt lat="46.85227" lon="8.48446">
        <ele>2438</ele>
        <time>2021-08-12T10:18:05.507Z</time>
      </trkpt>
      <trkpt lat="46.85228" lon="8.48445">
        <ele>2438</ele>
        <time>2021-08-12T10:18:06.507Z</time>
      </trkpt>
      <trkpt lat="46.85228" lon="8.48444">
        <ele>2438</ele>
        <time>2021-08-12T10:18:07.507Z</time>
      </trkpt>
      <trkpt lat="46.85228" lon="8.48443">
        <ele>2439</ele>
        <time>2021-08-12T10:18:08.507Z</time>
      </trkpt>
      <trkpt lat="46.85229" lon="8.48442">
        <ele>2439</ele>
        <time>2021-08-12T10:18:09.507Z</time>
      </trkpt>
      <trkpt lat="46.85229" lon="8.48441">
        <ele>2440</ele>
        <time>2021-08-12T10:18:10.507Z</time>
      </trkpt>
      <trkpt lat="46.8523" lon="8.4844">
        <ele>2440</ele>
        <time>2021-08-12T10:18:11.507Z</time>
      </trkpt>
      <trkpt lat="46.8523" lon="8.48439">
        <ele>2441</ele>
        <time>2021-08-12T10:18:12.507Z</time>
      </trkpt>
      <trkpt lat="46.8523" lon="8.48438">
        <ele>2442</ele>
        <time>2021-08-12T10:18:13.507Z</time>
      </trkpt>
      <trkpt lat="46.8523" lon="8.48437">
        <ele>2442</ele>
        <time>2021-08-12T10:18:14.507Z</time>
      </trkpt>
      <trkpt lat="46.8523" lon="8.48436">
        <ele>2442</ele>
        <time>2021-08-12T10:18:15.507Z</time>
      </trkpt>
      <trkpt lat="46.8523" lon="8.48436">
        <ele>2442</ele>
        <time>2021-08-12T10:18:16.506Z</time>
      </trkpt>
      <trkpt lat="46.8523" lon="8.48434">
        <ele>2442</ele>
        <time>2021-08-12T10:18:17.507Z</time>
      </trkpt>
      <trkpt lat="46.8523" lon="8.48432">
        <ele>2442</ele>
        <time>2021-08-12T10:18:18.507Z</time>
      </trkpt>
      <trkpt lat="46.8523" lon="8.48431">
        <ele>2442</ele>
        <time>2021-08-12T10:18:19.507Z</time>
      </trkpt>
      <trkpt lat="46.8523" lon="8.48429">
        <ele>2442</ele>
        <time>2021-08-12T10:18:20.506Z</time>
      </trkpt>
      <trkpt lat="46.8523" lon="8.48428">
        <ele>2442</ele>
        <time>2021-08-12T10:18:21.506Z</time>
      </trkpt>
      <trkpt lat="46.8523" lon="8.48427">
        <ele>2442</ele>
        <time>2021-08-12T10:18:22.507Z</time>
      </trkpt>
      <trkpt lat="46.8523" lon="8.48426">
        <ele>2442</ele>
        <time>2021-08-12T10:18:23.506Z</time>
      </trkpt>
      <trkpt lat="46.8523" lon="8.48425">
        <ele>2442</ele>
        <time>2021-08-12T10:18:24.507Z</time>
      </trkpt>
      <trkpt lat="46.8523" lon="8.48423">
        <ele>2442</ele>
        <time>2021-08-12T10:18:25.507Z</time>
      </trkpt>
      <trkpt lat="46.8523" lon="8.48422">
        <ele>2443</ele>
        <time>2021-08-12T10:18:26.507Z</time>
      </trkpt>
      <trkpt lat="46.85229" lon="8.48421">
        <ele>2443</ele>
        <time>2021-08-12T10:18:27.506Z</time>
      </trkpt>
      <trkpt lat="46.85229" lon="8.4842">
        <ele>2443</ele>
        <time>2021-08-12T10:18:28.507Z</time>
      </trkpt>
      <trkpt lat="46.85229" lon="8.48419">
        <ele>2443</ele>
        <time>2021-08-12T10:18:29.507Z</time>
      </trkpt>
      <trkpt lat="46.8523" lon="8.48417">
        <ele>2443</ele>
        <time>2021-08-12T10:18:30.507Z</time>
      </trkpt>
      <trkpt lat="46.8523" lon="8.48416">
        <ele>2443</ele>
        <time>2021-08-12T10:18:31.506Z</time>
      </trkpt>
      <trkpt lat="46.8523" lon="8.48415">
        <ele>2444</ele>
        <time>2021-08-12T10:18:32.507Z</time>
      </trkpt>
      <trkpt lat="46.8523" lon="8.48413">
        <ele>2444</ele>
        <time>2021-08-12T10:18:33.507Z</time>
      </trkpt>
      <trkpt lat="46.8523" lon="8.48412">
        <ele>2444</ele>
        <time>2021-08-12T10:18:34.506Z</time>
      </trkpt>
      <trkpt lat="46.8523" lon="8.48411">
        <ele>2444</ele>
        <time>2021-08-12T10:18:35.507Z</time>
      </trkpt>
      <trkpt lat="46.8523" lon="8.48409">
        <ele>2445</ele>
        <time>2021-08-12T10:18:36.507Z</time>
      </trkpt>
      <trkpt lat="46.85231" lon="8.48408">
        <ele>2445</ele>
        <time>2021-08-12T10:18:37.507Z</time>
      </trkpt>
      <trkpt lat="46.85231" lon="8.48406">
        <ele>2445</ele>
        <time>2021-08-12T10:18:38.506Z</time>
      </trkpt>
      <trkpt lat="46.85231" lon="8.48404">
        <ele>2444</ele>
        <time>2021-08-12T10:18:39.507Z</time>
      </trkpt>
      <trkpt lat="46.85231" lon="8.48402">
        <ele>2444</ele>
        <time>2021-08-12T10:18:40.506Z</time>
      </trkpt>
      <trkpt lat="46.85231" lon="8.484">
        <ele>2444</ele>
        <time>2021-08-12T10:18:41.506Z</time>
      </trkpt>
      <trkpt lat="46.85231" lon="8.48399">
        <ele>2444</ele>
        <time>2021-08-12T10:18:42.507Z</time>
      </trkpt>
      <trkpt lat="46.85231" lon="8.48397">
        <ele>2444</ele>
        <time>2021-08-12T10:18:43.507Z</time>
      </trkpt>
      <trkpt lat="46.8523" lon="8.48396">
        <ele>2444</ele>
        <time>2021-08-12T10:18:44.507Z</time>
      </trkpt>
      <trkpt lat="46.8523" lon="8.48395">
        <ele>2443</ele>
        <time>2021-08-12T10:18:45.507Z</time>
      </trkpt>
      <trkpt lat="46.8523" lon="8.48393">
        <ele>2443</ele>
        <time>2021-08-12T10:18:46.507Z</time>
      </trkpt>
      <trkpt lat="46.8523" lon="8.48392">
        <ele>2443</ele>
        <time>2021-08-12T10:18:47.507Z</time>
      </trkpt>
      <trkpt lat="46.8523" lon="8.48391">
        <ele>2443</ele>
        <time>2021-08-12T10:18:48.507Z</time>
      </trkpt>
      <trkpt lat="46.85231" lon="8.4839">
        <ele>2443</ele>
        <time>2021-08-12T10:18:49.507Z</time>
      </trkpt>
      <trkpt lat="46.85231" lon="8.48388">
        <ele>2442</ele>
        <time>2021-08-12T10:18:50.507Z</time>
      </trkpt>
      <trkpt lat="46.85232" lon="8.48388">
        <ele>2442</ele>
        <time>2021-08-12T10:18:51.507Z</time>
      </trkpt>
      <trkpt lat="46.85232" lon="8.48387">
        <ele>2442</ele>
        <time>2021-08-12T10:18:52.507Z</time>
      </trkpt>
      <trkpt lat="46.85232" lon="8.48386">
        <ele>2442</ele>
        <time>2021-08-12T10:18:53.507Z</time>
      </trkpt>
      <trkpt lat="46.85232" lon="8.48385">
        <ele>2441</ele>
        <time>2021-08-12T10:18:54.507Z</time>
      </trkpt>
      <trkpt lat="46.85232" lon="8.48384">
        <ele>2440</ele>
        <time>2021-08-12T10:18:55.506Z</time>
      </trkpt>
      <trkpt lat="46.85231" lon="8.48382">
        <ele>2439</ele>
        <time>2021-08-12T10:18:56.507Z</time>
      </trkpt>
      <trkpt lat="46.8523" lon="8.48381">
        <ele>2439</ele>
        <time>2021-08-12T10:18:57.507Z</time>
      </trkpt>
      <trkpt lat="46.8523" lon="8.48379">
        <ele>2438</ele>
        <time>2021-08-12T10:18:58.507Z</time>
      </trkpt>
      <trkpt lat="46.8523" lon="8.48378">
        <ele>2438</ele>
        <time>2021-08-12T10:18:59.506Z</time>
      </trkpt>
      <trkpt lat="46.85229" lon="8.48377">
        <ele>2438</ele>
        <time>2021-08-12T10:19:00.507Z</time>
      </trkpt>
      <trkpt lat="46.85228" lon="8.48376">
        <ele>2438</ele>
        <time>2021-08-12T10:19:01.507Z</time>
      </trkpt>
      <trkpt lat="46.85227" lon="8.48374">
        <ele>2438</ele>
        <time>2021-08-12T10:19:02.507Z</time>
      </trkpt>
      <trkpt lat="46.85226" lon="8.48373">
        <ele>2438</ele>
        <time>2021-08-12T10:19:03.507Z</time>
      </trkpt>
      <trkpt lat="46.85226" lon="8.48371">
        <ele>2437</ele>
        <time>2021-08-12T10:19:04.507Z</time>
      </trkpt>
      <trkpt lat="46.85226" lon="8.4837">
        <ele>2437</ele>
        <time>2021-08-12T10:19:05.507Z</time>
      </trkpt>
      <trkpt lat="46.85225" lon="8.48368">
        <ele>2437</ele>
        <time>2021-08-12T10:19:06.507Z</time>
      </trkpt>
      <trkpt lat="46.85224" lon="8.48367">
        <ele>2437</ele>
        <time>2021-08-12T10:19:07.506Z</time>
      </trkpt>
      <trkpt lat="46.85223" lon="8.48365">
        <ele>2437</ele>
        <time>2021-08-12T10:19:08.507Z</time>
      </trkpt>
      <trkpt lat="46.85222" lon="8.48364">
        <ele>2436</ele>
        <time>2021-08-12T10:19:09.507Z</time>
      </trkpt>
      <trkpt lat="46.85222" lon="8.48364">
        <ele>2436</ele>
        <time>2021-08-12T10:19:10.506Z</time>
      </trkpt>
      <trkpt lat="46.85221" lon="8.48363">
        <ele>2436</ele>
        <time>2021-08-12T10:19:11.507Z</time>
      </trkpt>
      <trkpt lat="46.85221" lon="8.48362">
        <ele>2436</ele>
        <time>2021-08-12T10:19:12.507Z</time>
      </trkpt>
      <trkpt lat="46.8522" lon="8.48361">
        <ele>2436</ele>
        <time>2021-08-12T10:19:13.507Z</time>
      </trkpt>
      <trkpt lat="46.8522" lon="8.4836">
        <ele>2436</ele>
        <time>2021-08-12T10:19:14.507Z</time>
      </trkpt>
      <trkpt lat="46.85219" lon="8.4836">
        <ele>2436</ele>
        <time>2021-08-12T10:19:15.507Z</time>
      </trkpt>
      <trkpt lat="46.85219" lon="8.48359">
        <ele>2436</ele>
        <time>2021-08-12T10:19:16.507Z</time>
      </trkpt>
      <trkpt lat="46.85219" lon="8.48358">
        <ele>2435</ele>
        <time>2021-08-12T10:19:17.507Z</time>
      </trkpt>
      <trkpt lat="46.85218" lon="8.48356">
        <ele>2435</ele>
        <time>2021-08-12T10:19:18.506Z</time>
      </trkpt>
      <trkpt lat="46.85217" lon="8.48354">
        <ele>2435</ele>
        <time>2021-08-12T10:19:19.507Z</time>
      </trkpt>
      <trkpt lat="46.85217" lon="8.48353">
        <ele>2436</ele>
        <time>2021-08-12T10:19:20.506Z</time>
      </trkpt>
      <trkpt lat="46.85217" lon="8.48351">
        <ele>2436</ele>
        <time>2021-08-12T10:19:21.506Z</time>
      </trkpt>
      <trkpt lat="46.85217" lon="8.48349">
        <ele>2436</ele>
        <time>2021-08-12T10:19:22.506Z</time>
      </trkpt>
      <trkpt lat="46.85217" lon="8.48347">
        <ele>2437</ele>
        <time>2021-08-12T10:19:23.507Z</time>
      </trkpt>
      <trkpt lat="46.85217" lon="8.48346">
        <ele>2438</ele>
        <time>2021-08-12T10:19:24.507Z</time>
      </trkpt>
      <trkpt lat="46.85217" lon="8.48344">
        <ele>2439</ele>
        <time>2021-08-12T10:19:25.507Z</time>
      </trkpt>
      <trkpt lat="46.85216" lon="8.48342">
        <ele>2440</ele>
        <time>2021-08-12T10:19:26.506Z</time>
      </trkpt>
      <trkpt lat="46.85216" lon="8.48341">
        <ele>2441</ele>
        <time>2021-08-12T10:19:27.507Z</time>
      </trkpt>
      <trkpt lat="46.85216" lon="8.4834">
        <ele>2441</ele>
        <time>2021-08-12T10:19:28.507Z</time>
      </trkpt>
      <trkpt lat="46.85216" lon="8.48338">
        <ele>2442</ele>
        <time>2021-08-12T10:19:29.507Z</time>
      </trkpt>
      <trkpt lat="46.85216" lon="8.48337">
        <ele>2443</ele>
        <time>2021-08-12T10:19:30.506Z</time>
      </trkpt>
      <trkpt lat="46.85215" lon="8.48335">
        <ele>2443</ele>
        <time>2021-08-12T10:19:31.507Z</time>
      </trkpt>
      <trkpt lat="46.85215" lon="8.48334">
        <ele>2443</ele>
        <time>2021-08-12T10:19:32.507Z</time>
      </trkpt>
      <trkpt lat="46.85215" lon="8.48332">
        <ele>2443</ele>
        <time>2021-08-12T10:19:33.507Z</time>
      </trkpt>
      <trkpt lat="46.85215" lon="8.48331">
        <ele>2442</ele>
        <time>2021-08-12T10:19:34.507Z</time>
      </trkpt>
      <trkpt lat="46.85214" lon="8.4833">
        <ele>2442</ele>
        <time>2021-08-12T10:19:35.507Z</time>
      </trkpt>
      <trkpt lat="46.85214" lon="8.48328">
        <ele>2441</ele>
        <time>2021-08-12T10:19:36.507Z</time>
      </trkpt>
      <trkpt lat="46.85213" lon="8.48328">
        <ele>2441</ele>
        <time>2021-08-12T10:19:37.506Z</time>
      </trkpt>
      <trkpt lat="46.85213" lon="8.48325">
        <ele>2440</ele>
        <time>2021-08-12T10:19:38.507Z</time>
      </trkpt>
      <trkpt lat="46.85213" lon="8.48324">
        <ele>2439</ele>
        <time>2021-08-12T10:19:39.507Z</time>
      </trkpt>
      <trkpt lat="46.85212" lon="8.48322">
        <ele>2439</ele>
        <time>2021-08-12T10:19:40.506Z</time>
      </trkpt>
      <trkpt lat="46.85211" lon="8.4832">
        <ele>2439</ele>
        <time>2021-08-12T10:19:41.506Z</time>
      </trkpt>
      <trkpt lat="46.85211" lon="8.48319">
        <ele>2439</ele>
        <time>2021-08-12T10:19:42.506Z</time>
      </trkpt>
      <trkpt lat="46.8521" lon="8.48318">
        <ele>2439</ele>
        <time>2021-08-12T10:19:43.506Z</time>
      </trkpt>
      <trkpt lat="46.85209" lon="8.48317">
        <ele>2439</ele>
        <time>2021-08-12T10:19:44.506Z</time>
      </trkpt>
      <trkpt lat="46.85209" lon="8.48315">
        <ele>2438</ele>
        <time>2021-08-12T10:19:45.506Z</time>
      </trkpt>
      <trkpt lat="46.85209" lon="8.48313">
        <ele>2438</ele>
        <time>2021-08-12T10:19:46.506Z</time>
      </trkpt>
      <trkpt lat="46.85208" lon="8.48312">
        <ele>2438</ele>
        <time>2021-08-12T10:19:47.507Z</time>
      </trkpt>
      <trkpt lat="46.85207" lon="8.4831">
        <ele>2437</ele>
        <time>2021-08-12T10:19:48.507Z</time>
      </trkpt>
      <trkpt lat="46.85206" lon="8.48309">
        <ele>2437</ele>
        <time>2021-08-12T10:19:49.506Z</time>
      </trkpt>
      <trkpt lat="46.85206" lon="8.48308">
        <ele>2437</ele>
        <time>2021-08-12T10:19:50.507Z</time>
      </trkpt>
      <trkpt lat="46.85205" lon="8.48306">
        <ele>2437</ele>
        <time>2021-08-12T10:19:51.507Z</time>
      </trkpt>
      <trkpt lat="46.85205" lon="8.48305">
        <ele>2437</ele>
        <time>2021-08-12T10:19:52.506Z</time>
      </trkpt>
      <trkpt lat="46.85205" lon="8.48304">
        <ele>2437</ele>
        <time>2021-08-12T10:19:53.507Z</time>
      </trkpt>
      <trkpt lat="46.85205" lon="8.48303">
        <ele>2438</ele>
        <time>2021-08-12T10:19:54.507Z</time>
      </trkpt>
      <trkpt lat="46.85204" lon="8.48302">
        <ele>2438</ele>
        <time>2021-08-12T10:19:55.507Z</time>
      </trkpt>
      <trkpt lat="46.85203" lon="8.48301">
        <ele>2439</ele>
        <time>2021-08-12T10:19:56.506Z</time>
      </trkpt>
      <trkpt lat="46.85202" lon="8.483">
        <ele>2439</ele>
        <time>2021-08-12T10:19:57.507Z</time>
      </trkpt>
      <trkpt lat="46.85202" lon="8.48299">
        <ele>2440</ele>
        <time>2021-08-12T10:19:58.507Z</time>
      </trkpt>
      <trkpt lat="46.85201" lon="8.48298">
        <ele>2440</ele>
        <time>2021-08-12T10:19:59.507Z</time>
      </trkpt>
      <trkpt lat="46.852" lon="8.48297">
        <ele>2440</ele>
        <time>2021-08-12T10:20:00.507Z</time>
      </trkpt>
      <trkpt lat="46.85199" lon="8.48295">
        <ele>2440</ele>
        <time>2021-08-12T10:20:01.507Z</time>
      </trkpt>
      <trkpt lat="46.85199" lon="8.48294">
        <ele>2440</ele>
        <time>2021-08-12T10:20:02.507Z</time>
      </trkpt>
      <trkpt lat="46.85198" lon="8.48294">
        <ele>2439</ele>
        <time>2021-08-12T10:20:03.507Z</time>
      </trkpt>
      <trkpt lat="46.85198" lon="8.48293">
        <ele>2439</ele>
        <time>2021-08-12T10:20:04.507Z</time>
      </trkpt>
      <trkpt lat="46.85197" lon="8.48291">
        <ele>2439</ele>
        <time>2021-08-12T10:20:05.507Z</time>
      </trkpt>
      <trkpt lat="46.85197" lon="8.4829">
        <ele>2438</ele>
        <time>2021-08-12T10:20:06.507Z</time>
      </trkpt>
      <trkpt lat="46.85197" lon="8.48289">
        <ele>2438</ele>
        <time>2021-08-12T10:20:07.507Z</time>
      </trkpt>
      <trkpt lat="46.85196" lon="8.48288">
        <ele>2438</ele>
        <time>2021-08-12T10:20:08.507Z</time>
      </trkpt>
      <trkpt lat="46.85196" lon="8.48286">
        <ele>2438</ele>
        <time>2021-08-12T10:20:09.507Z</time>
      </trkpt>
      <trkpt lat="46.85196" lon="8.48286">
        <ele>2437</ele>
        <time>2021-08-12T10:20:10.507Z</time>
      </trkpt>
      <trkpt lat="46.85195" lon="8.48285">
        <ele>2437</ele>
        <time>2021-08-12T10:20:11.506Z</time>
      </trkpt>
      <trkpt lat="46.85195" lon="8.48284">
        <ele>2437</ele>
        <time>2021-08-12T10:20:12.507Z</time>
      </trkpt>
      <trkpt lat="46.85194" lon="8.48283">
        <ele>2437</ele>
        <time>2021-08-12T10:20:13.507Z</time>
      </trkpt>
      <trkpt lat="46.85194" lon="8.48282">
        <ele>2437</ele>
        <time>2021-08-12T10:20:14.506Z</time>
      </trkpt>
      <trkpt lat="46.85194" lon="8.48281">
        <ele>2437</ele>
        <time>2021-08-12T10:20:15.507Z</time>
      </trkpt>
      <trkpt lat="46.85194" lon="8.4828">
        <ele>2437</ele>
        <time>2021-08-12T10:20:16.507Z</time>
      </trkpt>
      <trkpt lat="46.85194" lon="8.48279">
        <ele>2437</ele>
        <time>2021-08-12T10:20:17.506Z</time>
      </trkpt>
      <trkpt lat="46.85193" lon="8.48278">
        <ele>2437</ele>
        <time>2021-08-12T10:20:18.506Z</time>
      </trkpt>
      <trkpt lat="46.85193" lon="8.48276">
        <ele>2437</ele>
        <time>2021-08-12T10:20:19.506Z</time>
      </trkpt>
      <trkpt lat="46.85194" lon="8.48276">
        <ele>2437</ele>
        <time>2021-08-12T10:20:20.507Z</time>
      </trkpt>
      <trkpt lat="46.85193" lon="8.48275">
        <ele>2437</ele>
        <time>2021-08-12T10:20:21.507Z</time>
      </trkpt>
      <trkpt lat="46.85193" lon="8.48274">
        <ele>2436</ele>
        <time>2021-08-12T10:20:22.506Z</time>
      </trkpt>
      <trkpt lat="46.85193" lon="8.48273">
        <ele>2435</ele>
        <time>2021-08-12T10:20:23.506Z</time>
      </trkpt>
      <trkpt lat="46.85193" lon="8.48272">
        <ele>2434</ele>
        <time>2021-08-12T10:20:24.507Z</time>
      </trkpt>
      <trkpt lat="46.85193" lon="8.48271">
        <ele>2433</ele>
        <time>2021-08-12T10:20:25.507Z</time>
      </trkpt>
      <trkpt lat="46.85193" lon="8.48271">
        <ele>2432</ele>
        <time>2021-08-12T10:20:26.507Z</time>
      </trkpt>
      <trkpt lat="46.85192" lon="8.4827">
        <ele>2432</ele>
        <time>2021-08-12T10:20:27.507Z</time>
      </trkpt>
      <trkpt lat="46.85191" lon="8.48268">
        <ele>2431</ele>
        <time>2021-08-12T10:20:28.506Z</time>
      </trkpt>
      <trkpt lat="46.85191" lon="8.48267">
        <ele>2430</ele>
        <time>2021-08-12T10:20:29.506Z</time>
      </trkpt>
      <trkpt lat="46.85191" lon="8.48265">
        <ele>2429</ele>
        <time>2021-08-12T10:20:30.507Z</time>
      </trkpt>
      <trkpt lat="46.85191" lon="8.48264">
        <ele>2428</ele>
        <time>2021-08-12T10:20:31.506Z</time>
      </trkpt>
      <trkpt lat="46.85191" lon="8.48263">
        <ele>2427</ele>
        <time>2021-08-12T10:20:32.507Z</time>
      </trkpt>
      <trkpt lat="46.85191" lon="8.48262">
        <ele>2426</ele>
        <time>2021-08-12T10:20:33.507Z</time>
      </trkpt>
      <trkpt lat="46.8519" lon="8.48261">
        <ele>2426</ele>
        <time>2021-08-12T10:20:34.507Z</time>
      </trkpt>
      <trkpt lat="46.8519" lon="8.48259">
        <ele>2425</ele>
        <time>2021-08-12T10:20:35.506Z</time>
      </trkpt>
      <trkpt lat="46.85189" lon="8.48258">
        <ele>2425</ele>
        <time>2021-08-12T10:20:36.507Z</time>
      </trkpt>
      <trkpt lat="46.85189" lon="8.48257">
        <ele>2425</ele>
        <time>2021-08-12T10:20:37.506Z</time>
      </trkpt>
      <trkpt lat="46.85189" lon="8.48255">
        <ele>2424</ele>
        <time>2021-08-12T10:20:38.506Z</time>
      </trkpt>
      <trkpt lat="46.85189" lon="8.48254">
        <ele>2423</ele>
        <time>2021-08-12T10:20:39.507Z</time>
      </trkpt>
      <trkpt lat="46.85188" lon="8.48252">
        <ele>2423</ele>
        <time>2021-08-12T10:20:40.507Z</time>
      </trkpt>
      <trkpt lat="46.85187" lon="8.48251">
        <ele>2423</ele>
        <time>2021-08-12T10:20:41.507Z</time>
      </trkpt>
      <trkpt lat="46.85186" lon="8.4825">
        <ele>2424</ele>
        <time>2021-08-12T10:20:42.507Z</time>
      </trkpt>
      <trkpt lat="46.85186" lon="8.48249">
        <ele>2424</ele>
        <time>2021-08-12T10:20:43.507Z</time>
      </trkpt>
      <trkpt lat="46.85185" lon="8.48248">
        <ele>2425</ele>
        <time>2021-08-12T10:20:44.507Z</time>
      </trkpt>
      <trkpt lat="46.85185" lon="8.48247">
        <ele>2425</ele>
        <time>2021-08-12T10:20:45.507Z</time>
      </trkpt>
      <trkpt lat="46.85185" lon="8.48246">
        <ele>2425</ele>
        <time>2021-08-12T10:20:46.506Z</time>
      </trkpt>
      <trkpt lat="46.85184" lon="8.48245">
        <ele>2424</ele>
        <time>2021-08-12T10:20:47.506Z</time>
      </trkpt>
      <trkpt lat="46.85184" lon="8.48242">
        <ele>2424</ele>
        <time>2021-08-12T10:20:48.507Z</time>
      </trkpt>
      <trkpt lat="46.85184" lon="8.4824">
        <ele>2424</ele>
        <time>2021-08-12T10:20:49.507Z</time>
      </trkpt>
      <trkpt lat="46.85184" lon="8.48238">
        <ele>2424</ele>
        <time>2021-08-12T10:20:50.507Z</time>
      </trkpt>
      <trkpt lat="46.85182" lon="8.48236">
        <ele>2425</ele>
        <time>2021-08-12T10:20:51.507Z</time>
      </trkpt>
      <trkpt lat="46.85182" lon="8.48235">
        <ele>2425</ele>
        <time>2021-08-12T10:20:52.507Z</time>
      </trkpt>
      <trkpt lat="46.85181" lon="8.48234">
        <ele>2425</ele>
        <time>2021-08-12T10:20:53.507Z</time>
      </trkpt>
      <trkpt lat="46.85181" lon="8.48233">
        <ele>2426</ele>
        <time>2021-08-12T10:20:54.506Z</time>
      </trkpt>
      <trkpt lat="46.85181" lon="8.48232">
        <ele>2427</ele>
        <time>2021-08-12T10:20:55.507Z</time>
      </trkpt>
      <trkpt lat="46.8518" lon="8.48231">
        <ele>2427</ele>
        <time>2021-08-12T10:20:56.506Z</time>
      </trkpt>
      <trkpt lat="46.8518" lon="8.4823">
        <ele>2427</ele>
        <time>2021-08-12T10:20:57.506Z</time>
      </trkpt>
      <trkpt lat="46.8518" lon="8.48228">
        <ele>2427</ele>
        <time>2021-08-12T10:20:58.506Z</time>
      </trkpt>
      <trkpt lat="46.8518" lon="8.48227">
        <ele>2427</ele>
        <time>2021-08-12T10:20:59.507Z</time>
      </trkpt>
      <trkpt lat="46.85179" lon="8.48226">
        <ele>2427</ele>
        <time>2021-08-12T10:21:00.507Z</time>
      </trkpt>
      <trkpt lat="46.85179" lon="8.48225">
        <ele>2427</ele>
        <time>2021-08-12T10:21:01.507Z</time>
      </trkpt>
      <trkpt lat="46.85178" lon="8.48225">
        <ele>2428</ele>
        <time>2021-08-12T10:21:02.507Z</time>
      </trkpt>
      <trkpt lat="46.85178" lon="8.48225">
        <ele>2428</ele>
        <time>2021-08-12T10:21:03.507Z</time>
      </trkpt>
      <trkpt lat="46.85178" lon="8.48224">
        <ele>2429</ele>
        <time>2021-08-12T10:21:04.506Z</time>
      </trkpt>
      <trkpt lat="46.85178" lon="8.48223">
        <ele>2429</ele>
        <time>2021-08-12T10:21:05.507Z</time>
      </trkpt>
      <trkpt lat="46.85178" lon="8.48222">
        <ele>2429</ele>
        <time>2021-08-12T10:21:06.507Z</time>
      </trkpt>
      <trkpt lat="46.85177" lon="8.48221">
        <ele>2429</ele>
        <time>2021-08-12T10:21:07.507Z</time>
      </trkpt>
      <trkpt lat="46.85177" lon="8.4822">
        <ele>2430</ele>
        <time>2021-08-12T10:21:08.506Z</time>
      </trkpt>
      <trkpt lat="46.85177" lon="8.48219">
        <ele>2430</ele>
        <time>2021-08-12T10:21:09.506Z</time>
      </trkpt>
      <trkpt lat="46.85176" lon="8.48218">
        <ele>2431</ele>
        <time>2021-08-12T10:21:10.507Z</time>
      </trkpt>
      <trkpt lat="46.85175" lon="8.48217">
        <ele>2432</ele>
        <time>2021-08-12T10:21:11.507Z</time>
      </trkpt>
      <trkpt lat="46.85175" lon="8.48216">
        <ele>2433</ele>
        <time>2021-08-12T10:21:12.507Z</time>
      </trkpt>
      <trkpt lat="46.85174" lon="8.48215">
        <ele>2433</ele>
        <time>2021-08-12T10:21:13.506Z</time>
      </trkpt>
      <trkpt lat="46.85174" lon="8.48213">
        <ele>2434</ele>
        <time>2021-08-12T10:21:14.507Z</time>
      </trkpt>
      <trkpt lat="46.85173" lon="8.48213">
        <ele>2434</ele>
        <time>2021-08-12T10:21:15.506Z</time>
      </trkpt>
      <trkpt lat="46.85173" lon="8.48212">
        <ele>2435</ele>
        <time>2021-08-12T10:21:16.507Z</time>
      </trkpt>
      <trkpt lat="46.85173" lon="8.4821">
        <ele>2436</ele>
        <time>2021-08-12T10:21:17.507Z</time>
      </trkpt>
      <trkpt lat="46.85172" lon="8.48209">
        <ele>2436</ele>
        <time>2021-08-12T10:21:18.507Z</time>
      </trkpt>
      <trkpt lat="46.85171" lon="8.48209">
        <ele>2437</ele>
        <time>2021-08-12T10:21:19.507Z</time>
      </trkpt>
      <trkpt lat="46.8517" lon="8.48208">
        <ele>2437</ele>
        <time>2021-08-12T10:21:20.507Z</time>
      </trkpt>
      <trkpt lat="46.8517" lon="8.48208">
        <ele>2437</ele>
        <time>2021-08-12T10:21:21.507Z</time>
      </trkpt>
      <trkpt lat="46.85169" lon="8.48207">
        <ele>2437</ele>
        <time>2021-08-12T10:21:22.506Z</time>
      </trkpt>
      <trkpt lat="46.85169" lon="8.48206">
        <ele>2437</ele>
        <time>2021-08-12T10:21:23.507Z</time>
      </trkpt>
      <trkpt lat="46.85169" lon="8.48205">
        <ele>2437</ele>
        <time>2021-08-12T10:21:24.507Z</time>
      </trkpt>
      <trkpt lat="46.85168" lon="8.48204">
        <ele>2437</ele>
        <time>2021-08-12T10:21:25.507Z</time>
      </trkpt>
      <trkpt lat="46.85168" lon="8.48204">
        <ele>2437</ele>
        <time>2021-08-12T10:21:26.506Z</time>
      </trkpt>
      <trkpt lat="46.85168" lon="8.48204">
        <ele>2437</ele>
        <time>2021-08-12T10:21:27.507Z</time>
      </trkpt>
      <trkpt lat="46.85168" lon="8.48205">
        <ele>2437</ele>
        <time>2021-08-12T10:21:28.506Z</time>
      </trkpt>
      <trkpt lat="46.85168" lon="8.48205">
        <ele>2436</ele>
        <time>2021-08-12T10:21:29.507Z</time>
      </trkpt>
      <trkpt lat="46.85167" lon="8.48206">
        <ele>2436</ele>
        <time>2021-08-12T10:21:30.506Z</time>
      </trkpt>
      <trkpt lat="46.85167" lon="8.48205">
        <ele>2435</ele>
        <time>2021-08-12T10:21:31.506Z</time>
      </trkpt>
      <trkpt lat="46.85166" lon="8.48203">
        <ele>2435</ele>
        <time>2021-08-12T10:21:32.506Z</time>
      </trkpt>
      <trkpt lat="46.85165" lon="8.48204">
        <ele>2435</ele>
        <time>2021-08-12T10:21:33.507Z</time>
      </trkpt>
      <trkpt lat="46.85164" lon="8.48204">
        <ele>2435</ele>
        <time>2021-08-12T10:21:34.507Z</time>
      </trkpt>
      <trkpt lat="46.85163" lon="8.48205">
        <ele>2435</ele>
        <time>2021-08-12T10:21:35.507Z</time>
      </trkpt>
      <trkpt lat="46.85163" lon="8.48205">
        <ele>2435</ele>
        <time>2021-08-12T10:21:36.507Z</time>
      </trkpt>
      <trkpt lat="46.85162" lon="8.48205">
        <ele>2435</ele>
        <time>2021-08-12T10:21:37.507Z</time>
      </trkpt>
      <trkpt lat="46.85161" lon="8.48205">
        <ele>2434</ele>
        <time>2021-08-12T10:21:38.507Z</time>
      </trkpt>
      <trkpt lat="46.8516" lon="8.48205">
        <ele>2434</ele>
        <time>2021-08-12T10:21:39.507Z</time>
      </trkpt>
      <trkpt lat="46.85159" lon="8.48205">
        <ele>2433</ele>
        <time>2021-08-12T10:21:40.507Z</time>
      </trkpt>
      <trkpt lat="46.85159" lon="8.48204">
        <ele>2433</ele>
        <time>2021-08-12T10:21:41.507Z</time>
      </trkpt>
      <trkpt lat="46.85159" lon="8.48204">
        <ele>2432</ele>
        <time>2021-08-12T10:21:42.507Z</time>
      </trkpt>
      <trkpt lat="46.85159" lon="8.48203">
        <ele>2431</ele>
        <time>2021-08-12T10:21:43.507Z</time>
      </trkpt>
      <trkpt lat="46.85159" lon="8.48202">
        <ele>2430</ele>
        <time>2021-08-12T10:21:44.507Z</time>
      </trkpt>
      <trkpt lat="46.85158" lon="8.48201">
        <ele>2430</ele>
        <time>2021-08-12T10:21:45.507Z</time>
      </trkpt>
      <trkpt lat="46.85158" lon="8.482">
        <ele>2430</ele>
        <time>2021-08-12T10:21:46.507Z</time>
      </trkpt>
      <trkpt lat="46.85158" lon="8.48199">
        <ele>2430</ele>
        <time>2021-08-12T10:21:47.507Z</time>
      </trkpt>
      <trkpt lat="46.85158" lon="8.48198">
        <ele>2429</ele>
        <time>2021-08-12T10:21:48.506Z</time>
      </trkpt>
      <trkpt lat="46.85158" lon="8.48196">
        <ele>2429</ele>
        <time>2021-08-12T10:21:49.506Z</time>
      </trkpt>
      <trkpt lat="46.85159" lon="8.48195">
        <ele>2428</ele>
        <time>2021-08-12T10:21:50.506Z</time>
      </trkpt>
      <trkpt lat="46.8516" lon="8.48194">
        <ele>2428</ele>
        <time>2021-08-12T10:21:51.506Z</time>
      </trkpt>
      <trkpt lat="46.85161" lon="8.48192">
        <ele>2428</ele>
        <time>2021-08-12T10:21:52.507Z</time>
      </trkpt>
      <trkpt lat="46.85162" lon="8.48192">
        <ele>2427</ele>
        <time>2021-08-12T10:21:53.507Z</time>
      </trkpt>
      <trkpt lat="46.85162" lon="8.4819">
        <ele>2427</ele>
        <time>2021-08-12T10:21:54.507Z</time>
      </trkpt>
      <trkpt lat="46.85162" lon="8.48189">
        <ele>2427</ele>
        <time>2021-08-12T10:21:55.506Z</time>
      </trkpt>
      <trkpt lat="46.85161" lon="8.48187">
        <ele>2426</ele>
        <time>2021-08-12T10:21:56.507Z</time>
      </trkpt>
      <trkpt lat="46.85161" lon="8.48187">
        <ele>2426</ele>
        <time>2021-08-12T10:21:57.507Z</time>
      </trkpt>
      <trkpt lat="46.85161" lon="8.48186">
        <ele>2427</ele>
        <time>2021-08-12T10:21:58.506Z</time>
      </trkpt>
      <trkpt lat="46.85161" lon="8.48186">
        <ele>2427</ele>
        <time>2021-08-12T10:21:59.507Z</time>
      </trkpt>
      <trkpt lat="46.8516" lon="8.48186">
        <ele>2427</ele>
        <time>2021-08-12T10:22:00.507Z</time>
      </trkpt>
      <trkpt lat="46.85159" lon="8.48186">
        <ele>2427</ele>
        <time>2021-08-12T10:22:01.506Z</time>
      </trkpt>
      <trkpt lat="46.85159" lon="8.48186">
        <ele>2428</ele>
        <time>2021-08-12T10:22:02.507Z</time>
      </trkpt>
      <trkpt lat="46.85161" lon="8.48187">
        <ele>2429</ele>
        <time>2021-08-12T10:22:03.507Z</time>
      </trkpt>
      <trkpt lat="46.85162" lon="8.48185">
        <ele>2429</ele>
        <time>2021-08-12T10:22:04.508Z</time>
      </trkpt>
      <trkpt lat="46.85162" lon="8.48183">
        <ele>2430</ele>
        <time>2021-08-12T10:22:05.508Z</time>
      </trkpt>
      <trkpt lat="46.85161" lon="8.48183">
        <ele>2430</ele>
        <time>2021-08-12T10:22:06.507Z</time>
      </trkpt>
      <trkpt lat="46.8516" lon="8.48183">
        <ele>2431</ele>
        <time>2021-08-12T10:22:07.508Z</time>
      </trkpt>
      <trkpt lat="46.85159" lon="8.48184">
        <ele>2431</ele>
        <time>2021-08-12T10:22:08.508Z</time>
      </trkpt>
      <trkpt lat="46.85159" lon="8.48184">
        <ele>2432</ele>
        <time>2021-08-12T10:22:09.508Z</time>
      </trkpt>
      <trkpt lat="46.85158" lon="8.48185">
        <ele>2432</ele>
        <time>2021-08-12T10:22:10.507Z</time>
      </trkpt>
      <trkpt lat="46.85158" lon="8.48185">
        <ele>2432</ele>
        <time>2021-08-12T10:22:11.507Z</time>
      </trkpt>
      <trkpt lat="46.85157" lon="8.48185">
        <ele>2431</ele>
        <time>2021-08-12T10:22:12.508Z</time>
      </trkpt>
      <trkpt lat="46.85156" lon="8.48186">
        <ele>2431</ele>
        <time>2021-08-12T10:22:13.508Z</time>
      </trkpt>
      <trkpt lat="46.85155" lon="8.48186">
        <ele>2431</ele>
        <time>2021-08-12T10:22:14.507Z</time>
      </trkpt>
      <trkpt lat="46.85155" lon="8.48186">
        <ele>2431</ele>
        <time>2021-08-12T10:22:15.507Z</time>
      </trkpt>
      <trkpt lat="46.85154" lon="8.48186">
        <ele>2430</ele>
        <time>2021-08-12T10:22:16.508Z</time>
      </trkpt>
      <trkpt lat="46.85153" lon="8.48186">
        <ele>2430</ele>
        <time>2021-08-12T10:22:17.507Z</time>
      </trkpt>
      <trkpt lat="46.85153" lon="8.48186">
        <ele>2430</ele>
        <time>2021-08-12T10:22:18.507Z</time>
      </trkpt>
      <trkpt lat="46.85152" lon="8.48185">
        <ele>2429</ele>
        <time>2021-08-12T10:22:19.508Z</time>
      </trkpt>
      <trkpt lat="46.85152" lon="8.48185">
        <ele>2429</ele>
        <time>2021-08-12T10:22:20.508Z</time>
      </trkpt>
      <trkpt lat="46.85152" lon="8.48185">
        <ele>2429</ele>
        <time>2021-08-12T10:22:21.508Z</time>
      </trkpt>
      <trkpt lat="46.85152" lon="8.48185">
        <ele>2429</ele>
        <time>2021-08-12T10:22:22.508Z</time>
      </trkpt>
      <trkpt lat="46.85152" lon="8.48185">
        <ele>2429</ele>
        <time>2021-08-12T10:22:23.508Z</time>
      </trkpt>
      <trkpt lat="46.85152" lon="8.48186">
        <ele>2429</ele>
        <time>2021-08-12T10:22:24.508Z</time>
      </trkpt>
      <trkpt lat="46.85155" lon="8.48186">
        <ele>2430</ele>
        <time>2021-08-12T10:22:25.507Z</time>
      </trkpt>
      <trkpt lat="46.85155" lon="8.48186">
        <ele>2430</ele>
        <time>2021-08-12T10:22:26.507Z</time>
      </trkpt>
      <trkpt lat="46.85155" lon="8.48185">
        <ele>2430</ele>
        <time>2021-08-12T10:22:27.508Z</time>
      </trkpt>
      <trkpt lat="46.85155" lon="8.48184">
        <ele>2429</ele>
        <time>2021-08-12T10:22:28.507Z</time>
      </trkpt>
      <trkpt lat="46.85155" lon="8.48183">
        <ele>2429</ele>
        <time>2021-08-12T10:22:29.507Z</time>
      </trkpt>
      <trkpt lat="46.85156" lon="8.48183">
        <ele>2428</ele>
        <time>2021-08-12T10:22:30.507Z</time>
      </trkpt>
      <trkpt lat="46.85156" lon="8.48182">
        <ele>2426</ele>
        <time>2021-08-12T10:22:31.507Z</time>
      </trkpt>
      <trkpt lat="46.85156" lon="8.48181">
        <ele>2426</ele>
        <time>2021-08-12T10:22:32.507Z</time>
      </trkpt>
      <trkpt lat="46.85156" lon="8.48181">
        <ele>2426</ele>
        <time>2021-08-12T10:22:33.508Z</time>
      </trkpt>
      <trkpt lat="46.85156" lon="8.48181">
        <ele>2426</ele>
        <time>2021-08-12T10:22:34.508Z</time>
      </trkpt>
      <trkpt lat="46.85151" lon="8.48184">
        <ele>2430</ele>
        <time>2021-08-12T10:22:35.509Z</time>
      </trkpt>
      <trkpt lat="46.85151" lon="8.48185">
        <ele>2430</ele>
        <time>2021-08-12T10:22:36.508Z</time>
      </trkpt>
      <trkpt lat="46.8515" lon="8.48191">
        <ele>2430</ele>
        <time>2021-08-12T10:22:37.508Z</time>
      </trkpt>
      <trkpt lat="46.8515" lon="8.48191">
        <ele>2430</ele>
        <time>2021-08-12T10:22:38.509Z</time>
      </trkpt>
      <trkpt lat="46.85151" lon="8.48191">
        <ele>2430</ele>
        <time>2021-08-12T10:22:39.508Z</time>
      </trkpt>
      <trkpt lat="46.85151" lon="8.48191">
        <ele>2430</ele>
        <time>2021-08-12T10:22:40.509Z</time>
      </trkpt>
      <trkpt lat="46.85153" lon="8.48179">
        <ele>2427</ele>
        <time>2021-08-12T10:22:41.510Z</time>
      </trkpt>
      <trkpt lat="46.85153" lon="8.48178">
        <ele>2427</ele>
        <time>2021-08-12T10:22:42.509Z</time>
      </trkpt>
      <trkpt lat="46.85153" lon="8.48177">
        <ele>2427</ele>
        <time>2021-08-12T10:22:43.509Z</time>
      </trkpt>
      <trkpt lat="46.85152" lon="8.48176">
        <ele>2427</ele>
        <time>2021-08-12T10:22:44.509Z</time>
      </trkpt>
      <trkpt lat="46.85152" lon="8.48174">
        <ele>2427</ele>
        <time>2021-08-12T10:22:45.509Z</time>
      </trkpt>
      <trkpt lat="46.85152" lon="8.48172">
        <ele>2427</ele>
        <time>2021-08-12T10:22:46.510Z</time>
      </trkpt>
      <trkpt lat="46.85152" lon="8.48171">
        <ele>2427</ele>
        <time>2021-08-12T10:22:47.510Z</time>
      </trkpt>
      <trkpt lat="46.85152" lon="8.48171">
        <ele>2427</ele>
        <time>2021-08-12T10:22:48.510Z</time>
      </trkpt>
      <trkpt lat="46.85153" lon="8.4817">
        <ele>2427</ele>
        <time>2021-08-12T10:22:49.510Z</time>
      </trkpt>
      <trkpt lat="46.85153" lon="8.48168">
        <ele>2427</ele>
        <time>2021-08-12T10:22:50.509Z</time>
      </trkpt>
      <trkpt lat="46.85155" lon="8.48167">
        <ele>2427</ele>
        <time>2021-08-12T10:22:51.510Z</time>
      </trkpt>
      <trkpt lat="46.85155" lon="8.48165">
        <ele>2427</ele>
        <time>2021-08-12T10:22:52.509Z</time>
      </trkpt>
      <trkpt lat="46.85155" lon="8.48163">
        <ele>2426</ele>
        <time>2021-08-12T10:22:53.510Z</time>
      </trkpt>
      <trkpt lat="46.85155" lon="8.48162">
        <ele>2426</ele>
        <time>2021-08-12T10:22:54.509Z</time>
      </trkpt>
      <trkpt lat="46.85155" lon="8.48161">
        <ele>2426</ele>
        <time>2021-08-12T10:22:55.509Z</time>
      </trkpt>
      <trkpt lat="46.85155" lon="8.4816">
        <ele>2425</ele>
        <time>2021-08-12T10:22:56.510Z</time>
      </trkpt>
      <trkpt lat="46.85155" lon="8.48159">
        <ele>2425</ele>
        <time>2021-08-12T10:22:57.510Z</time>
      </trkpt>
      <trkpt lat="46.85155" lon="8.48159">
        <ele>2425</ele>
        <time>2021-08-12T10:22:58.510Z</time>
      </trkpt>
      <trkpt lat="46.85155" lon="8.48158">
        <ele>2425</ele>
        <time>2021-08-12T10:22:59.509Z</time>
      </trkpt>
      <trkpt lat="46.85154" lon="8.48157">
        <ele>2425</ele>
        <time>2021-08-12T10:23:00.510Z</time>
      </trkpt>
      <trkpt lat="46.85154" lon="8.48156">
        <ele>2426</ele>
        <time>2021-08-12T10:23:01.510Z</time>
      </trkpt>
      <trkpt lat="46.85154" lon="8.48155">
        <ele>2426</ele>
        <time>2021-08-12T10:23:02.509Z</time>
      </trkpt>
      <trkpt lat="46.85154" lon="8.48154">
        <ele>2426</ele>
        <time>2021-08-12T10:23:03.509Z</time>
      </trkpt>
      <trkpt lat="46.85154" lon="8.48153">
        <ele>2427</ele>
        <time>2021-08-12T10:23:04.510Z</time>
      </trkpt>
      <trkpt lat="46.85153" lon="8.48151">
        <ele>2428</ele>
        <time>2021-08-12T10:23:05.509Z</time>
      </trkpt>
      <trkpt lat="46.85153" lon="8.48151">
        <ele>2428</ele>
        <time>2021-08-12T10:23:06.509Z</time>
      </trkpt>
      <trkpt lat="46.85152" lon="8.48151">
        <ele>2429</ele>
        <time>2021-08-12T10:23:07.510Z</time>
      </trkpt>
      <trkpt lat="46.85151" lon="8.48151">
        <ele>2430</ele>
        <time>2021-08-12T10:23:08.510Z</time>
      </trkpt>
      <trkpt lat="46.85151" lon="8.4815">
        <ele>2430</ele>
        <time>2021-08-12T10:23:09.510Z</time>
      </trkpt>
      <trkpt lat="46.85151" lon="8.48149">
        <ele>2431</ele>
        <time>2021-08-12T10:23:10.509Z</time>
      </trkpt>
      <trkpt lat="46.85151" lon="8.48148">
        <ele>2431</ele>
        <time>2021-08-12T10:23:11.510Z</time>
      </trkpt>
      <trkpt lat="46.85151" lon="8.48147">
        <ele>2432</ele>
        <time>2021-08-12T10:23:12.510Z</time>
      </trkpt>
      <trkpt lat="46.8515" lon="8.48147">
        <ele>2432</ele>
        <time>2021-08-12T10:23:13.510Z</time>
      </trkpt>
      <trkpt lat="46.8515" lon="8.48146">
        <ele>2433</ele>
        <time>2021-08-12T10:23:14.509Z</time>
      </trkpt>
      <trkpt lat="46.8515" lon="8.48146">
        <ele>2433</ele>
        <time>2021-08-12T10:23:15.509Z</time>
      </trkpt>
      <trkpt lat="46.85151" lon="8.48145">
        <ele>2433</ele>
        <time>2021-08-12T10:23:16.509Z</time>
      </trkpt>
      <trkpt lat="46.85151" lon="8.48144">
        <ele>2433</ele>
        <time>2021-08-12T10:23:17.510Z</time>
      </trkpt>
      <trkpt lat="46.8515" lon="8.48143">
        <ele>2433</ele>
        <time>2021-08-12T10:23:18.510Z</time>
      </trkpt>
      <trkpt lat="46.8515" lon="8.48142">
        <ele>2434</ele>
        <time>2021-08-12T10:23:19.510Z</time>
      </trkpt>
      <trkpt lat="46.8515" lon="8.48141">
        <ele>2434</ele>
        <time>2021-08-12T10:23:20.510Z</time>
      </trkpt>
      <trkpt lat="46.8515" lon="8.4814">
        <ele>2433</ele>
        <time>2021-08-12T10:23:21.510Z</time>
      </trkpt>
      <trkpt lat="46.8515" lon="8.48139">
        <ele>2433</ele>
        <time>2021-08-12T10:23:22.510Z</time>
      </trkpt>
      <trkpt lat="46.8515" lon="8.48138">
        <ele>2433</ele>
        <time>2021-08-12T10:23:23.509Z</time>
      </trkpt>
      <trkpt lat="46.8515" lon="8.48136">
        <ele>2433</ele>
        <time>2021-08-12T10:23:24.509Z</time>
      </trkpt>
      <trkpt lat="46.8515" lon="8.48134">
        <ele>2433</ele>
        <time>2021-08-12T10:23:25.509Z</time>
      </trkpt>
      <trkpt lat="46.85151" lon="8.48133">
        <ele>2434</ele>
        <time>2021-08-12T10:23:26.509Z</time>
      </trkpt>
      <trkpt lat="46.8515" lon="8.48132">
        <ele>2434</ele>
        <time>2021-08-12T10:23:27.509Z</time>
      </trkpt>
      <trkpt lat="46.8515" lon="8.4813">
        <ele>2435</ele>
        <time>2021-08-12T10:23:28.510Z</time>
      </trkpt>
      <trkpt lat="46.85149" lon="8.48129">
        <ele>2435</ele>
        <time>2021-08-12T10:23:29.510Z</time>
      </trkpt>
      <trkpt lat="46.85149" lon="8.48128">
        <ele>2436</ele>
        <time>2021-08-12T10:23:30.509Z</time>
      </trkpt>
      <trkpt lat="46.85148" lon="8.48126">
        <ele>2437</ele>
        <time>2021-08-12T10:23:31.509Z</time>
      </trkpt>
      <trkpt lat="46.85148" lon="8.48125">
        <ele>2438</ele>
        <time>2021-08-12T10:23:32.509Z</time>
      </trkpt>
      <trkpt lat="46.85148" lon="8.48123">
        <ele>2438</ele>
        <time>2021-08-12T10:23:33.510Z</time>
      </trkpt>
      <trkpt lat="46.85148" lon="8.48121">
        <ele>2438</ele>
        <time>2021-08-12T10:23:34.509Z</time>
      </trkpt>
      <trkpt lat="46.85148" lon="8.48119">
        <ele>2438</ele>
        <time>2021-08-12T10:23:35.510Z</time>
      </trkpt>
      <trkpt lat="46.85147" lon="8.48116">
        <ele>2438</ele>
        <time>2021-08-12T10:23:36.509Z</time>
      </trkpt>
      <trkpt lat="46.85147" lon="8.48115">
        <ele>2438</ele>
        <time>2021-08-12T10:23:37.510Z</time>
      </trkpt>
      <trkpt lat="46.85146" lon="8.48113">
        <ele>2438</ele>
        <time>2021-08-12T10:23:38.510Z</time>
      </trkpt>
      <trkpt lat="46.85146" lon="8.48111">
        <ele>2438</ele>
        <time>2021-08-12T10:23:39.509Z</time>
      </trkpt>
      <trkpt lat="46.85146" lon="8.4811">
        <ele>2438</ele>
        <time>2021-08-12T10:23:40.510Z</time>
      </trkpt>
      <trkpt lat="46.85146" lon="8.48108">
        <ele>2438</ele>
        <time>2021-08-12T10:23:41.509Z</time>
      </trkpt>
      <trkpt lat="46.85146" lon="8.48107">
        <ele>2438</ele>
        <time>2021-08-12T10:23:42.509Z</time>
      </trkpt>
      <trkpt lat="46.85146" lon="8.48106">
        <ele>2438</ele>
        <time>2021-08-12T10:23:43.510Z</time>
      </trkpt>
      <trkpt lat="46.85147" lon="8.48104">
        <ele>2438</ele>
        <time>2021-08-12T10:23:44.509Z</time>
      </trkpt>
      <trkpt lat="46.85147" lon="8.48104">
        <ele>2438</ele>
        <time>2021-08-12T10:23:45.509Z</time>
      </trkpt>
      <trkpt lat="46.85147" lon="8.48103">
        <ele>2438</ele>
        <time>2021-08-12T10:23:46.509Z</time>
      </trkpt>
      <trkpt lat="46.85147" lon="8.48103">
        <ele>2438</ele>
        <time>2021-08-12T10:23:47.510Z</time>
      </trkpt>
      <trkpt lat="46.85147" lon="8.48102">
        <ele>2438</ele>
        <time>2021-08-12T10:23:48.510Z</time>
      </trkpt>
      <trkpt lat="46.85147" lon="8.48101">
        <ele>2438</ele>
        <time>2021-08-12T10:23:49.510Z</time>
      </trkpt>
      <trkpt lat="46.85147" lon="8.481">
        <ele>2438</ele>
        <time>2021-08-12T10:23:50.509Z</time>
      </trkpt>
      <trkpt lat="46.85147" lon="8.48099">
        <ele>2438</ele>
        <time>2021-08-12T10:23:51.509Z</time>
      </trkpt>
      <trkpt lat="46.85148" lon="8.48098">
        <ele>2438</ele>
        <time>2021-08-12T10:23:52.509Z</time>
      </trkpt>
      <trkpt lat="46.85148" lon="8.48097">
        <ele>2438</ele>
        <time>2021-08-12T10:23:53.510Z</time>
      </trkpt>
      <trkpt lat="46.85148" lon="8.48095">
        <ele>2438</ele>
        <time>2021-08-12T10:23:54.510Z</time>
      </trkpt>
      <trkpt lat="46.85148" lon="8.48093">
        <ele>2437</ele>
        <time>2021-08-12T10:23:55.509Z</time>
      </trkpt>
      <trkpt lat="46.85149" lon="8.48091">
        <ele>2437</ele>
        <time>2021-08-12T10:23:56.510Z</time>
      </trkpt>
      <trkpt lat="46.85149" lon="8.48089">
        <ele>2437</ele>
        <time>2021-08-12T10:23:57.509Z</time>
      </trkpt>
      <trkpt lat="46.85149" lon="8.48088">
        <ele>2436</ele>
        <time>2021-08-12T10:23:58.509Z</time>
      </trkpt>
      <trkpt lat="46.85148" lon="8.48087">
        <ele>2436</ele>
        <time>2021-08-12T10:23:59.510Z</time>
      </trkpt>
      <trkpt lat="46.85148" lon="8.48086">
        <ele>2435</ele>
        <time>2021-08-12T10:24:00.510Z</time>
      </trkpt>
      <trkpt lat="46.85147" lon="8.48085">
        <ele>2435</ele>
        <time>2021-08-12T10:24:01.509Z</time>
      </trkpt>
      <trkpt lat="46.85147" lon="8.48084">
        <ele>2435</ele>
        <time>2021-08-12T10:24:02.509Z</time>
      </trkpt>
      <trkpt lat="46.85147" lon="8.48082">
        <ele>2435</ele>
        <time>2021-08-12T10:24:03.510Z</time>
      </trkpt>
      <trkpt lat="46.85146" lon="8.4808">
        <ele>2435</ele>
        <time>2021-08-12T10:24:04.510Z</time>
      </trkpt>
      <trkpt lat="46.85146" lon="8.48079">
        <ele>2435</ele>
        <time>2021-08-12T10:24:05.509Z</time>
      </trkpt>
      <trkpt lat="46.85146" lon="8.48079">
        <ele>2435</ele>
        <time>2021-08-12T10:24:06.510Z</time>
      </trkpt>
      <trkpt lat="46.85145" lon="8.48078">
        <ele>2435</ele>
        <time>2021-08-12T10:24:07.509Z</time>
      </trkpt>
      <trkpt lat="46.85145" lon="8.48076">
        <ele>2435</ele>
        <time>2021-08-12T10:24:08.509Z</time>
      </trkpt>
      <trkpt lat="46.85144" lon="8.48074">
        <ele>2435</ele>
        <time>2021-08-12T10:24:09.510Z</time>
      </trkpt>
      <trkpt lat="46.85144" lon="8.48072">
        <ele>2434</ele>
        <time>2021-08-12T10:24:10.509Z</time>
      </trkpt>
      <trkpt lat="46.85144" lon="8.48071">
        <ele>2434</ele>
        <time>2021-08-12T10:24:11.509Z</time>
      </trkpt>
      <trkpt lat="46.85144" lon="8.4807">
        <ele>2433</ele>
        <time>2021-08-12T10:24:12.509Z</time>
      </trkpt>
      <trkpt lat="46.85144" lon="8.48068">
        <ele>2433</ele>
        <time>2021-08-12T10:24:13.509Z</time>
      </trkpt>
      <trkpt lat="46.85145" lon="8.48066">
        <ele>2432</ele>
        <time>2021-08-12T10:24:14.509Z</time>
      </trkpt>
      <trkpt lat="46.85145" lon="8.48065">
        <ele>2432</ele>
        <time>2021-08-12T10:24:15.510Z</time>
      </trkpt>
      <trkpt lat="46.85145" lon="8.48063">
        <ele>2432</ele>
        <time>2021-08-12T10:24:16.509Z</time>
      </trkpt>
      <trkpt lat="46.85144" lon="8.48062">
        <ele>2432</ele>
        <time>2021-08-12T10:24:17.509Z</time>
      </trkpt>
      <trkpt lat="46.85144" lon="8.4806">
        <ele>2432</ele>
        <time>2021-08-12T10:24:18.510Z</time>
      </trkpt>
      <trkpt lat="46.85145" lon="8.48059">
        <ele>2433</ele>
        <time>2021-08-12T10:24:19.510Z</time>
      </trkpt>
      <trkpt lat="46.85145" lon="8.48057">
        <ele>2433</ele>
        <time>2021-08-12T10:24:20.509Z</time>
      </trkpt>
      <trkpt lat="46.85146" lon="8.48056">
        <ele>2433</ele>
        <time>2021-08-12T10:24:21.509Z</time>
      </trkpt>
      <trkpt lat="46.85146" lon="8.48055">
        <ele>2433</ele>
        <time>2021-08-12T10:24:22.510Z</time>
      </trkpt>
      <trkpt lat="46.85146" lon="8.48054">
        <ele>2432</ele>
        <time>2021-08-12T10:24:23.510Z</time>
      </trkpt>
      <trkpt lat="46.85147" lon="8.48054">
        <ele>2432</ele>
        <time>2021-08-12T10:24:24.509Z</time>
      </trkpt>
      <trkpt lat="46.85146" lon="8.48053">
        <ele>2432</ele>
        <time>2021-08-12T10:24:25.509Z</time>
      </trkpt>
      <trkpt lat="46.85146" lon="8.48052">
        <ele>2432</ele>
        <time>2021-08-12T10:24:26.509Z</time>
      </trkpt>
      <trkpt lat="46.85146" lon="8.48051">
        <ele>2432</ele>
        <time>2021-08-12T10:24:27.509Z</time>
      </trkpt>
      <trkpt lat="46.85145" lon="8.4805">
        <ele>2432</ele>
        <time>2021-08-12T10:24:28.509Z</time>
      </trkpt>
      <trkpt lat="46.85145" lon="8.48048">
        <ele>2432</ele>
        <time>2021-08-12T10:24:29.509Z</time>
      </trkpt>
      <trkpt lat="46.85144" lon="8.48047">
        <ele>2431</ele>
        <time>2021-08-12T10:24:30.509Z</time>
      </trkpt>
      <trkpt lat="46.85143" lon="8.48044">
        <ele>2431</ele>
        <time>2021-08-12T10:24:31.509Z</time>
      </trkpt>
      <trkpt lat="46.85143" lon="8.48043">
        <ele>2431</ele>
        <time>2021-08-12T10:24:32.509Z</time>
      </trkpt>
      <trkpt lat="46.85142" lon="8.48041">
        <ele>2431</ele>
        <time>2021-08-12T10:24:33.509Z</time>
      </trkpt>
      <trkpt lat="46.85141" lon="8.48039">
        <ele>2430</ele>
        <time>2021-08-12T10:24:34.509Z</time>
      </trkpt>
      <trkpt lat="46.85141" lon="8.48037">
        <ele>2430</ele>
        <time>2021-08-12T10:24:35.510Z</time>
      </trkpt>
      <trkpt lat="46.85141" lon="8.48036">
        <ele>2430</ele>
        <time>2021-08-12T10:24:36.510Z</time>
      </trkpt>
      <trkpt lat="46.8514" lon="8.48035">
        <ele>2429</ele>
        <time>2021-08-12T10:24:37.509Z</time>
      </trkpt>
      <trkpt lat="46.8514" lon="8.48034">
        <ele>2429</ele>
        <time>2021-08-12T10:24:38.509Z</time>
      </trkpt>
      <trkpt lat="46.85141" lon="8.48033">
        <ele>2428</ele>
        <time>2021-08-12T10:24:39.509Z</time>
      </trkpt>
      <trkpt lat="46.8514" lon="8.48031">
        <ele>2428</ele>
        <time>2021-08-12T10:24:40.510Z</time>
      </trkpt>
      <trkpt lat="46.8514" lon="8.4803">
        <ele>2428</ele>
        <time>2021-08-12T10:24:41.510Z</time>
      </trkpt>
      <trkpt lat="46.85139" lon="8.48029">
        <ele>2428</ele>
        <time>2021-08-12T10:24:42.509Z</time>
      </trkpt>
      <trkpt lat="46.85139" lon="8.48028">
        <ele>2428</ele>
        <time>2021-08-12T10:24:43.509Z</time>
      </trkpt>
      <trkpt lat="46.85138" lon="8.48027">
        <ele>2428</ele>
        <time>2021-08-12T10:24:44.510Z</time>
      </trkpt>
      <trkpt lat="46.85138" lon="8.48025">
        <ele>2427</ele>
        <time>2021-08-12T10:24:45.510Z</time>
      </trkpt>
      <trkpt lat="46.85139" lon="8.48024">
        <ele>2427</ele>
        <time>2021-08-12T10:24:46.510Z</time>
      </trkpt>
      <trkpt lat="46.85138" lon="8.48023">
        <ele>2427</ele>
        <time>2021-08-12T10:24:47.510Z</time>
      </trkpt>
      <trkpt lat="46.85138" lon="8.48021">
        <ele>2427</ele>
        <time>2021-08-12T10:24:48.510Z</time>
      </trkpt>
      <trkpt lat="46.85139" lon="8.4802">
        <ele>2427</ele>
        <time>2021-08-12T10:24:49.509Z</time>
      </trkpt>
      <trkpt lat="46.85139" lon="8.48019">
        <ele>2428</ele>
        <time>2021-08-12T10:24:50.510Z</time>
      </trkpt>
      <trkpt lat="46.85139" lon="8.48018">
        <ele>2428</ele>
        <time>2021-08-12T10:24:51.510Z</time>
      </trkpt>
      <trkpt lat="46.85139" lon="8.48016">
        <ele>2428</ele>
        <time>2021-08-12T10:24:52.510Z</time>
      </trkpt>
      <trkpt lat="46.8514" lon="8.48014">
        <ele>2428</ele>
        <time>2021-08-12T10:24:53.510Z</time>
      </trkpt>
      <trkpt lat="46.8514" lon="8.48013">
        <ele>2428</ele>
        <time>2021-08-12T10:24:54.509Z</time>
      </trkpt>
      <trkpt lat="46.8514" lon="8.48012">
        <ele>2428</ele>
        <time>2021-08-12T10:24:55.509Z</time>
      </trkpt>
      <trkpt lat="46.8514" lon="8.48011">
        <ele>2427</ele>
        <time>2021-08-12T10:24:56.510Z</time>
      </trkpt>
      <trkpt lat="46.8514" lon="8.4801">
        <ele>2427</ele>
        <time>2021-08-12T10:24:57.509Z</time>
      </trkpt>
      <trkpt lat="46.8514" lon="8.48008">
        <ele>2427</ele>
        <time>2021-08-12T10:24:58.510Z</time>
      </trkpt>
      <trkpt lat="46.8514" lon="8.48007">
        <ele>2427</ele>
        <time>2021-08-12T10:24:59.510Z</time>
      </trkpt>
      <trkpt lat="46.8514" lon="8.48006">
        <ele>2426</ele>
        <time>2021-08-12T10:25:00.509Z</time>
      </trkpt>
      <trkpt lat="46.8514" lon="8.48004">
        <ele>2426</ele>
        <time>2021-08-12T10:25:01.509Z</time>
      </trkpt>
      <trkpt lat="46.85139" lon="8.48003">
        <ele>2425</ele>
        <time>2021-08-12T10:25:02.510Z</time>
      </trkpt>
      <trkpt lat="46.85138" lon="8.48001">
        <ele>2425</ele>
        <time>2021-08-12T10:25:03.510Z</time>
      </trkpt>
      <trkpt lat="46.85138" lon="8.48">
        <ele>2425</ele>
        <time>2021-08-12T10:25:04.509Z</time>
      </trkpt>
      <trkpt lat="46.85137" lon="8.47998">
        <ele>2425</ele>
        <time>2021-08-12T10:25:05.510Z</time>
      </trkpt>
      <trkpt lat="46.85137" lon="8.47997">
        <ele>2425</ele>
        <time>2021-08-12T10:25:06.510Z</time>
      </trkpt>
      <trkpt lat="46.85137" lon="8.47995">
        <ele>2425</ele>
        <time>2021-08-12T10:25:07.509Z</time>
      </trkpt>
      <trkpt lat="46.85136" lon="8.47994">
        <ele>2425</ele>
        <time>2021-08-12T10:25:08.510Z</time>
      </trkpt>
      <trkpt lat="46.85136" lon="8.47992">
        <ele>2426</ele>
        <time>2021-08-12T10:25:09.510Z</time>
      </trkpt>
      <trkpt lat="46.85136" lon="8.47991">
        <ele>2425</ele>
        <time>2021-08-12T10:25:10.509Z</time>
      </trkpt>
      <trkpt lat="46.85136" lon="8.4799">
        <ele>2425</ele>
        <time>2021-08-12T10:25:11.509Z</time>
      </trkpt>
      <trkpt lat="46.85136" lon="8.47989">
        <ele>2426</ele>
        <time>2021-08-12T10:25:12.509Z</time>
      </trkpt>
      <trkpt lat="46.85136" lon="8.47988">
        <ele>2426</ele>
        <time>2021-08-12T10:25:13.510Z</time>
      </trkpt>
      <trkpt lat="46.85136" lon="8.47989">
        <ele>2426</ele>
        <time>2021-08-12T10:25:14.510Z</time>
      </trkpt>
      <trkpt lat="46.85135" lon="8.47992">
        <ele>2427</ele>
        <time>2021-08-12T10:25:15.511Z</time>
      </trkpt>
      <trkpt lat="46.85135" lon="8.47992">
        <ele>2426</ele>
        <time>2021-08-12T10:25:16.510Z</time>
      </trkpt>
      <trkpt lat="46.85135" lon="8.47991">
        <ele>2425</ele>
        <time>2021-08-12T10:25:17.510Z</time>
      </trkpt>
      <trkpt lat="46.85134" lon="8.4799">
        <ele>2421</ele>
        <time>2021-08-12T10:25:18.510Z</time>
      </trkpt>
      <trkpt lat="46.85134" lon="8.47989">
        <ele>2420</ele>
        <time>2021-08-12T10:25:19.512Z</time>
      </trkpt>
      <trkpt lat="46.85133" lon="8.47989">
        <ele>2419</ele>
        <time>2021-08-12T10:25:20.512Z</time>
      </trkpt>
      <trkpt lat="46.85133" lon="8.47989">
        <ele>2418</ele>
        <time>2021-08-12T10:25:21.512Z</time>
      </trkpt>
      <trkpt lat="46.85133" lon="8.47988">
        <ele>2418</ele>
        <time>2021-08-12T10:25:22.512Z</time>
      </trkpt>
      <trkpt lat="46.85133" lon="8.47988">
        <ele>2418</ele>
        <time>2021-08-12T10:25:23.512Z</time>
      </trkpt>
      <trkpt lat="46.85133" lon="8.47987">
        <ele>2418</ele>
        <time>2021-08-12T10:25:24.511Z</time>
      </trkpt>
      <trkpt lat="46.85132" lon="8.47986">
        <ele>2418</ele>
        <time>2021-08-12T10:25:25.511Z</time>
      </trkpt>
      <trkpt lat="46.85132" lon="8.47985">
        <ele>2418</ele>
        <time>2021-08-12T10:25:26.512Z</time>
      </trkpt>
      <trkpt lat="46.85132" lon="8.47983">
        <ele>2417</ele>
        <time>2021-08-12T10:25:27.512Z</time>
      </trkpt>
      <trkpt lat="46.85131" lon="8.47983">
        <ele>2417</ele>
        <time>2021-08-12T10:25:28.511Z</time>
      </trkpt>
      <trkpt lat="46.85131" lon="8.47982">
        <ele>2417</ele>
        <time>2021-08-12T10:25:29.512Z</time>
      </trkpt>
      <trkpt lat="46.85131" lon="8.47982">
        <ele>2417</ele>
        <time>2021-08-12T10:25:30.511Z</time>
      </trkpt>
      <trkpt lat="46.85131" lon="8.47982">
        <ele>2417</ele>
        <time>2021-08-12T10:25:31.512Z</time>
      </trkpt>
      <trkpt lat="46.85131" lon="8.47981">
        <ele>2417</ele>
        <time>2021-08-12T10:25:32.512Z</time>
      </trkpt>
      <trkpt lat="46.85132" lon="8.47981">
        <ele>2417</ele>
        <time>2021-08-12T10:25:33.513Z</time>
      </trkpt>
      <trkpt lat="46.85132" lon="8.4798">
        <ele>2416</ele>
        <time>2021-08-12T10:25:34.512Z</time>
      </trkpt>
      <trkpt lat="46.85133" lon="8.4798">
        <ele>2416</ele>
        <time>2021-08-12T10:25:35.513Z</time>
      </trkpt>
      <trkpt lat="46.85134" lon="8.47979">
        <ele>2416</ele>
        <time>2021-08-12T10:25:36.512Z</time>
      </trkpt>
      <trkpt lat="46.85135" lon="8.47978">
        <ele>2416</ele>
        <time>2021-08-12T10:25:37.512Z</time>
      </trkpt>
      <trkpt lat="46.85134" lon="8.47977">
        <ele>2415</ele>
        <time>2021-08-12T10:25:38.512Z</time>
      </trkpt>
      <trkpt lat="46.85134" lon="8.47976">
        <ele>2415</ele>
        <time>2021-08-12T10:25:39.512Z</time>
      </trkpt>
      <trkpt lat="46.85134" lon="8.47975">
        <ele>2415</ele>
        <time>2021-08-12T10:25:40.512Z</time>
      </trkpt>
      <trkpt lat="46.85133" lon="8.47975">
        <ele>2415</ele>
        <time>2021-08-12T10:25:41.512Z</time>
      </trkpt>
      <trkpt lat="46.85133" lon="8.47974">
        <ele>2415</ele>
        <time>2021-08-12T10:25:42.512Z</time>
      </trkpt>
      <trkpt lat="46.85133" lon="8.47973">
        <ele>2415</ele>
        <time>2021-08-12T10:25:43.512Z</time>
      </trkpt>
      <trkpt lat="46.85132" lon="8.47973">
        <ele>2415</ele>
        <time>2021-08-12T10:25:44.512Z</time>
      </trkpt>
      <trkpt lat="46.85132" lon="8.47971">
        <ele>2415</ele>
        <time>2021-08-12T10:25:45.512Z</time>
      </trkpt>
      <trkpt lat="46.85132" lon="8.4797">
        <ele>2415</ele>
        <time>2021-08-12T10:25:46.512Z</time>
      </trkpt>
      <trkpt lat="46.85132" lon="8.47969">
        <ele>2415</ele>
        <time>2021-08-12T10:25:47.512Z</time>
      </trkpt>
      <trkpt lat="46.85131" lon="8.47968">
        <ele>2415</ele>
        <time>2021-08-12T10:25:48.512Z</time>
      </trkpt>
      <trkpt lat="46.85131" lon="8.47968">
        <ele>2415</ele>
        <time>2021-08-12T10:25:49.512Z</time>
      </trkpt>
      <trkpt lat="46.85131" lon="8.47967">
        <ele>2414</ele>
        <time>2021-08-12T10:25:50.512Z</time>
      </trkpt>
      <trkpt lat="46.85131" lon="8.47966">
        <ele>2415</ele>
        <time>2021-08-12T10:25:51.512Z</time>
      </trkpt>
      <trkpt lat="46.85131" lon="8.47964">
        <ele>2414</ele>
        <time>2021-08-12T10:25:52.512Z</time>
      </trkpt>
      <trkpt lat="46.85131" lon="8.47963">
        <ele>2414</ele>
        <time>2021-08-12T10:25:53.512Z</time>
      </trkpt>
      <trkpt lat="46.85131" lon="8.47962">
        <ele>2414</ele>
        <time>2021-08-12T10:25:54.513Z</time>
      </trkpt>
      <trkpt lat="46.85131" lon="8.47961">
        <ele>2414</ele>
        <time>2021-08-12T10:25:55.513Z</time>
      </trkpt>
      <trkpt lat="46.8513" lon="8.47959">
        <ele>2414</ele>
        <time>2021-08-12T10:25:56.512Z</time>
      </trkpt>
      <trkpt lat="46.8513" lon="8.47958">
        <ele>2414</ele>
        <time>2021-08-12T10:25:57.512Z</time>
      </trkpt>
      <trkpt lat="46.8513" lon="8.47957">
        <ele>2414</ele>
        <time>2021-08-12T10:25:58.512Z</time>
      </trkpt>
      <trkpt lat="46.8513" lon="8.47956">
        <ele>2413</ele>
        <time>2021-08-12T10:25:59.512Z</time>
      </trkpt>
      <trkpt lat="46.8513" lon="8.47955">
        <ele>2413</ele>
        <time>2021-08-12T10:26:00.512Z</time>
      </trkpt>
      <trkpt lat="46.8513" lon="8.47954">
        <ele>2414</ele>
        <time>2021-08-12T10:26:01.512Z</time>
      </trkpt>
      <trkpt lat="46.8513" lon="8.47952">
        <ele>2415</ele>
        <time>2021-08-12T10:26:02.512Z</time>
      </trkpt>
      <trkpt lat="46.8513" lon="8.47951">
        <ele>2414</ele>
        <time>2021-08-12T10:26:03.512Z</time>
      </trkpt>
      <trkpt lat="46.8513" lon="8.4795">
        <ele>2414</ele>
        <time>2021-08-12T10:26:04.513Z</time>
      </trkpt>
      <trkpt lat="46.8513" lon="8.47948">
        <ele>2414</ele>
        <time>2021-08-12T10:26:05.512Z</time>
      </trkpt>
      <trkpt lat="46.8513" lon="8.47947">
        <ele>2414</ele>
        <time>2021-08-12T10:26:06.512Z</time>
      </trkpt>
      <trkpt lat="46.85129" lon="8.47946">
        <ele>2414</ele>
        <time>2021-08-12T10:26:07.512Z</time>
      </trkpt>
      <trkpt lat="46.85129" lon="8.47945">
        <ele>2414</ele>
        <time>2021-08-12T10:26:08.512Z</time>
      </trkpt>
      <trkpt lat="46.85128" lon="8.47944">
        <ele>2414</ele>
        <time>2021-08-12T10:26:09.512Z</time>
      </trkpt>
      <trkpt lat="46.85127" lon="8.47942">
        <ele>2414</ele>
        <time>2021-08-12T10:26:10.513Z</time>
      </trkpt>
      <trkpt lat="46.85126" lon="8.47941">
        <ele>2413</ele>
        <time>2021-08-12T10:26:11.512Z</time>
      </trkpt>
      <trkpt lat="46.85126" lon="8.47939">
        <ele>2413</ele>
        <time>2021-08-12T10:26:12.512Z</time>
      </trkpt>
      <trkpt lat="46.85125" lon="8.47938">
        <ele>2413</ele>
        <time>2021-08-12T10:26:13.512Z</time>
      </trkpt>
      <trkpt lat="46.85124" lon="8.47936">
        <ele>2413</ele>
        <time>2021-08-12T10:26:14.513Z</time>
      </trkpt>
      <trkpt lat="46.85123" lon="8.47935">
        <ele>2413</ele>
        <time>2021-08-12T10:26:15.513Z</time>
      </trkpt>
      <trkpt lat="46.85123" lon="8.47935">
        <ele>2413</ele>
        <time>2021-08-12T10:26:16.513Z</time>
      </trkpt>
      <trkpt lat="46.85122" lon="8.47934">
        <ele>2413</ele>
        <time>2021-08-12T10:26:17.513Z</time>
      </trkpt>
      <trkpt lat="46.85122" lon="8.47933">
        <ele>2413</ele>
        <time>2021-08-12T10:26:18.512Z</time>
      </trkpt>
      <trkpt lat="46.85121" lon="8.47932">
        <ele>2412</ele>
        <time>2021-08-12T10:26:19.512Z</time>
      </trkpt>
      <trkpt lat="46.85121" lon="8.47931">
        <ele>2412</ele>
        <time>2021-08-12T10:26:20.512Z</time>
      </trkpt>
      <trkpt lat="46.8512" lon="8.4793">
        <ele>2412</ele>
        <time>2021-08-12T10:26:21.512Z</time>
      </trkpt>
      <trkpt lat="46.8512" lon="8.47928">
        <ele>2413</ele>
        <time>2021-08-12T10:26:22.513Z</time>
      </trkpt>
      <trkpt lat="46.8512" lon="8.47927">
        <ele>2413</ele>
        <time>2021-08-12T10:26:23.512Z</time>
      </trkpt>
      <trkpt lat="46.8512" lon="8.47926">
        <ele>2413</ele>
        <time>2021-08-12T10:26:24.513Z</time>
      </trkpt>
      <trkpt lat="46.85119" lon="8.47924">
        <ele>2413</ele>
        <time>2021-08-12T10:26:25.512Z</time>
      </trkpt>
      <trkpt lat="46.85119" lon="8.47922">
        <ele>2413</ele>
        <time>2021-08-12T10:26:26.513Z</time>
      </trkpt>
      <trkpt lat="46.85119" lon="8.47921">
        <ele>2413</ele>
        <time>2021-08-12T10:26:27.512Z</time>
      </trkpt>
      <trkpt lat="46.85119" lon="8.47919">
        <ele>2413</ele>
        <time>2021-08-12T10:26:28.512Z</time>
      </trkpt>
      <trkpt lat="46.85119" lon="8.47917">
        <ele>2413</ele>
        <time>2021-08-12T10:26:29.512Z</time>
      </trkpt>
      <trkpt lat="46.85118" lon="8.47916">
        <ele>2412</ele>
        <time>2021-08-12T10:26:30.513Z</time>
      </trkpt>
      <trkpt lat="46.85118" lon="8.47914">
        <ele>2412</ele>
        <time>2021-08-12T10:26:31.512Z</time>
      </trkpt>
      <trkpt lat="46.85117" lon="8.47912">
        <ele>2412</ele>
        <time>2021-08-12T10:26:32.513Z</time>
      </trkpt>
      <trkpt lat="46.85117" lon="8.47911">
        <ele>2412</ele>
        <time>2021-08-12T10:26:33.513Z</time>
      </trkpt>
      <trkpt lat="46.85116" lon="8.4791">
        <ele>2412</ele>
        <time>2021-08-12T10:26:34.512Z</time>
      </trkpt>
      <trkpt lat="46.85116" lon="8.47909">
        <ele>2412</ele>
        <time>2021-08-12T10:26:35.512Z</time>
      </trkpt>
      <trkpt lat="46.85116" lon="8.47907">
        <ele>2413</ele>
        <time>2021-08-12T10:26:36.512Z</time>
      </trkpt>
      <trkpt lat="46.85116" lon="8.47906">
        <ele>2413</ele>
        <time>2021-08-12T10:26:37.512Z</time>
      </trkpt>
      <trkpt lat="46.85116" lon="8.47904">
        <ele>2413</ele>
        <time>2021-08-12T10:26:38.513Z</time>
      </trkpt>
      <trkpt lat="46.85115" lon="8.47903">
        <ele>2413</ele>
        <time>2021-08-12T10:26:39.513Z</time>
      </trkpt>
      <trkpt lat="46.85115" lon="8.47902">
        <ele>2413</ele>
        <time>2021-08-12T10:26:40.513Z</time>
      </trkpt>
      <trkpt lat="46.85115" lon="8.479">
        <ele>2413</ele>
        <time>2021-08-12T10:26:41.512Z</time>
      </trkpt>
      <trkpt lat="46.85114" lon="8.47899">
        <ele>2412</ele>
        <time>2021-08-12T10:26:42.512Z</time>
      </trkpt>
      <trkpt lat="46.85114" lon="8.47897">
        <ele>2412</ele>
        <time>2021-08-12T10:26:43.513Z</time>
      </trkpt>
      <trkpt lat="46.85114" lon="8.47895">
        <ele>2411</ele>
        <time>2021-08-12T10:26:44.512Z</time>
      </trkpt>
      <trkpt lat="46.85114" lon="8.47894">
        <ele>2411</ele>
        <time>2021-08-12T10:26:45.512Z</time>
      </trkpt>
      <trkpt lat="46.85114" lon="8.47892">
        <ele>2411</ele>
        <time>2021-08-12T10:26:46.512Z</time>
      </trkpt>
      <trkpt lat="46.85114" lon="8.47891">
        <ele>2410</ele>
        <time>2021-08-12T10:26:47.512Z</time>
      </trkpt>
      <trkpt lat="46.85114" lon="8.4789">
        <ele>2409</ele>
        <time>2021-08-12T10:26:48.512Z</time>
      </trkpt>
      <trkpt lat="46.85114" lon="8.47888">
        <ele>2408</ele>
        <time>2021-08-12T10:26:49.512Z</time>
      </trkpt>
      <trkpt lat="46.85115" lon="8.47887">
        <ele>2407</ele>
        <time>2021-08-12T10:26:50.512Z</time>
      </trkpt>
      <trkpt lat="46.85116" lon="8.47886">
        <ele>2406</ele>
        <time>2021-08-12T10:26:51.512Z</time>
      </trkpt>
      <trkpt lat="46.85116" lon="8.47884">
        <ele>2406</ele>
        <time>2021-08-12T10:26:52.513Z</time>
      </trkpt>
      <trkpt lat="46.85115" lon="8.47883">
        <ele>2405</ele>
        <time>2021-08-12T10:26:53.512Z</time>
      </trkpt>
      <trkpt lat="46.85115" lon="8.47881">
        <ele>2405</ele>
        <time>2021-08-12T10:26:54.513Z</time>
      </trkpt>
      <trkpt lat="46.85115" lon="8.4788">
        <ele>2405</ele>
        <time>2021-08-12T10:26:55.512Z</time>
      </trkpt>
      <trkpt lat="46.85114" lon="8.47878">
        <ele>2405</ele>
        <time>2021-08-12T10:26:56.512Z</time>
      </trkpt>
      <trkpt lat="46.85114" lon="8.47877">
        <ele>2405</ele>
        <time>2021-08-12T10:26:57.513Z</time>
      </trkpt>
      <trkpt lat="46.85113" lon="8.47875">
        <ele>2405</ele>
        <time>2021-08-12T10:26:58.513Z</time>
      </trkpt>
      <trkpt lat="46.85113" lon="8.47874">
        <ele>2406</ele>
        <time>2021-08-12T10:26:59.513Z</time>
      </trkpt>
      <trkpt lat="46.85112" lon="8.47873">
        <ele>2405</ele>
        <time>2021-08-12T10:27:00.512Z</time>
      </trkpt>
      <trkpt lat="46.85112" lon="8.47871">
        <ele>2405</ele>
        <time>2021-08-12T10:27:01.512Z</time>
      </trkpt>
      <trkpt lat="46.85112" lon="8.47869">
        <ele>2404</ele>
        <time>2021-08-12T10:27:02.513Z</time>
      </trkpt>
      <trkpt lat="46.85112" lon="8.47867">
        <ele>2404</ele>
        <time>2021-08-12T10:27:03.512Z</time>
      </trkpt>
      <trkpt lat="46.85112" lon="8.47865">
        <ele>2404</ele>
        <time>2021-08-12T10:27:04.513Z</time>
      </trkpt>
      <trkpt lat="46.85112" lon="8.47863">
        <ele>2404</ele>
        <time>2021-08-12T10:27:05.513Z</time>
      </trkpt>
      <trkpt lat="46.85112" lon="8.47861">
        <ele>2403</ele>
        <time>2021-08-12T10:27:06.513Z</time>
      </trkpt>
      <trkpt lat="46.85112" lon="8.47859">
        <ele>2403</ele>
        <time>2021-08-12T10:27:07.512Z</time>
      </trkpt>
      <trkpt lat="46.85112" lon="8.47858">
        <ele>2403</ele>
        <time>2021-08-12T10:27:08.513Z</time>
      </trkpt>
      <trkpt lat="46.85111" lon="8.47857">
        <ele>2402</ele>
        <time>2021-08-12T10:27:09.512Z</time>
      </trkpt>
      <trkpt lat="46.85111" lon="8.47856">
        <ele>2402</ele>
        <time>2021-08-12T10:27:10.512Z</time>
      </trkpt>
      <trkpt lat="46.85111" lon="8.47855">
        <ele>2402</ele>
        <time>2021-08-12T10:27:11.513Z</time>
      </trkpt>
      <trkpt lat="46.8511" lon="8.47853">
        <ele>2402</ele>
        <time>2021-08-12T10:27:12.512Z</time>
      </trkpt>
      <trkpt lat="46.8511" lon="8.47853">
        <ele>2402</ele>
        <time>2021-08-12T10:27:13.512Z</time>
      </trkpt>
      <trkpt lat="46.85109" lon="8.47851">
        <ele>2402</ele>
        <time>2021-08-12T10:27:14.513Z</time>
      </trkpt>
      <trkpt lat="46.85108" lon="8.4785">
        <ele>2402</ele>
        <time>2021-08-12T10:27:15.512Z</time>
      </trkpt>
      <trkpt lat="46.85108" lon="8.47848">
        <ele>2402</ele>
        <time>2021-08-12T10:27:16.512Z</time>
      </trkpt>
      <trkpt lat="46.85107" lon="8.47847">
        <ele>2402</ele>
        <time>2021-08-12T10:27:17.512Z</time>
      </trkpt>
      <trkpt lat="46.85107" lon="8.47846">
        <ele>2402</ele>
        <time>2021-08-12T10:27:18.512Z</time>
      </trkpt>
      <trkpt lat="46.85106" lon="8.47844">
        <ele>2402</ele>
        <time>2021-08-12T10:27:19.512Z</time>
      </trkpt>
      <trkpt lat="46.85106" lon="8.47842">
        <ele>2402</ele>
        <time>2021-08-12T10:27:20.512Z</time>
      </trkpt>
      <trkpt lat="46.85106" lon="8.47841">
        <ele>2401</ele>
        <time>2021-08-12T10:27:21.513Z</time>
      </trkpt>
      <trkpt lat="46.85106" lon="8.47839">
        <ele>2401</ele>
        <time>2021-08-12T10:27:22.512Z</time>
      </trkpt>
      <trkpt lat="46.85106" lon="8.47838">
        <ele>2401</ele>
        <time>2021-08-12T10:27:23.513Z</time>
      </trkpt>
      <trkpt lat="46.85106" lon="8.47837">
        <ele>2401</ele>
        <time>2021-08-12T10:27:24.512Z</time>
      </trkpt>
      <trkpt lat="46.85106" lon="8.47836">
        <ele>2400</ele>
        <time>2021-08-12T10:27:25.512Z</time>
      </trkpt>
      <trkpt lat="46.85107" lon="8.47834">
        <ele>2400</ele>
        <time>2021-08-12T10:27:26.513Z</time>
      </trkpt>
      <trkpt lat="46.85107" lon="8.47833">
        <ele>2400</ele>
        <time>2021-08-12T10:27:27.512Z</time>
      </trkpt>
      <trkpt lat="46.85107" lon="8.47832">
        <ele>2401</ele>
        <time>2021-08-12T10:27:28.512Z</time>
      </trkpt>
      <trkpt lat="46.85107" lon="8.4783">
        <ele>2401</ele>
        <time>2021-08-12T10:27:29.513Z</time>
      </trkpt>
      <trkpt lat="46.85107" lon="8.47829">
        <ele>2400</ele>
        <time>2021-08-12T10:27:30.512Z</time>
      </trkpt>
      <trkpt lat="46.85108" lon="8.47827">
        <ele>2400</ele>
        <time>2021-08-12T10:27:31.512Z</time>
      </trkpt>
      <trkpt lat="46.85108" lon="8.47826">
        <ele>2400</ele>
        <time>2021-08-12T10:27:32.512Z</time>
      </trkpt>
      <trkpt lat="46.85108" lon="8.47825">
        <ele>2400</ele>
        <time>2021-08-12T10:27:33.512Z</time>
      </trkpt>
      <trkpt lat="46.85108" lon="8.47824">
        <ele>2399</ele>
        <time>2021-08-12T10:27:34.512Z</time>
      </trkpt>
      <trkpt lat="46.85108" lon="8.47822">
        <ele>2399</ele>
        <time>2021-08-12T10:27:35.512Z</time>
      </trkpt>
      <trkpt lat="46.85108" lon="8.47821">
        <ele>2399</ele>
        <time>2021-08-12T10:27:36.512Z</time>
      </trkpt>
      <trkpt lat="46.85108" lon="8.4782">
        <ele>2400</ele>
        <time>2021-08-12T10:27:37.512Z</time>
      </trkpt>
      <trkpt lat="46.85108" lon="8.47818">
        <ele>2399</ele>
        <time>2021-08-12T10:27:38.512Z</time>
      </trkpt>
      <trkpt lat="46.85109" lon="8.47817">
        <ele>2399</ele>
        <time>2021-08-12T10:27:39.512Z</time>
      </trkpt>
      <trkpt lat="46.8511" lon="8.47816">
        <ele>2399</ele>
        <time>2021-08-12T10:27:40.513Z</time>
      </trkpt>
      <trkpt lat="46.8511" lon="8.47814">
        <ele>2399</ele>
        <time>2021-08-12T10:27:41.513Z</time>
      </trkpt>
      <trkpt lat="46.8511" lon="8.47814">
        <ele>2398</ele>
        <time>2021-08-12T10:27:42.512Z</time>
      </trkpt>
      <trkpt lat="46.8511" lon="8.47813">
        <ele>2398</ele>
        <time>2021-08-12T10:27:43.512Z</time>
      </trkpt>
      <trkpt lat="46.85109" lon="8.47812">
        <ele>2397</ele>
        <time>2021-08-12T10:27:44.512Z</time>
      </trkpt>
      <trkpt lat="46.85109" lon="8.47811">
        <ele>2396</ele>
        <time>2021-08-12T10:27:45.512Z</time>
      </trkpt>
      <trkpt lat="46.85108" lon="8.4781">
        <ele>2396</ele>
        <time>2021-08-12T10:27:46.512Z</time>
      </trkpt>
      <trkpt lat="46.85108" lon="8.47809">
        <ele>2395</ele>
        <time>2021-08-12T10:27:47.512Z</time>
      </trkpt>
      <trkpt lat="46.85107" lon="8.47808">
        <ele>2395</ele>
        <time>2021-08-12T10:27:48.512Z</time>
      </trkpt>
      <trkpt lat="46.85107" lon="8.47806">
        <ele>2394</ele>
        <time>2021-08-12T10:27:49.512Z</time>
      </trkpt>
      <trkpt lat="46.85106" lon="8.47805">
        <ele>2394</ele>
        <time>2021-08-12T10:27:50.513Z</time>
      </trkpt>
      <trkpt lat="46.85106" lon="8.47803">
        <ele>2394</ele>
        <time>2021-08-12T10:27:51.513Z</time>
      </trkpt>
      <trkpt lat="46.85106" lon="8.47802">
        <ele>2394</ele>
        <time>2021-08-12T10:27:52.512Z</time>
      </trkpt>
      <trkpt lat="46.85107" lon="8.478">
        <ele>2394</ele>
        <time>2021-08-12T10:27:53.512Z</time>
      </trkpt>
      <trkpt lat="46.85107" lon="8.47799">
        <ele>2393</ele>
        <time>2021-08-12T10:27:54.512Z</time>
      </trkpt>
      <trkpt lat="46.85107" lon="8.47797">
        <ele>2393</ele>
        <time>2021-08-12T10:27:55.512Z</time>
      </trkpt>
      <trkpt lat="46.85107" lon="8.47796">
        <ele>2393</ele>
        <time>2021-08-12T10:27:56.512Z</time>
      </trkpt>
      <trkpt lat="46.85106" lon="8.47795">
        <ele>2393</ele>
        <time>2021-08-12T10:27:57.513Z</time>
      </trkpt>
      <trkpt lat="46.85107" lon="8.47794">
        <ele>2393</ele>
        <time>2021-08-12T10:27:58.512Z</time>
      </trkpt>
      <trkpt lat="46.85107" lon="8.47793">
        <ele>2394</ele>
        <time>2021-08-12T10:27:59.512Z</time>
      </trkpt>
      <trkpt lat="46.85107" lon="8.47792">
        <ele>2394</ele>
        <time>2021-08-12T10:28:00.512Z</time>
      </trkpt>
      <trkpt lat="46.85108" lon="8.4779">
        <ele>2393</ele>
        <time>2021-08-12T10:28:01.512Z</time>
      </trkpt>
      <trkpt lat="46.85109" lon="8.47788">
        <ele>2393</ele>
        <time>2021-08-12T10:28:02.513Z</time>
      </trkpt>
      <trkpt lat="46.85109" lon="8.47787">
        <ele>2393</ele>
        <time>2021-08-12T10:28:03.512Z</time>
      </trkpt>
      <trkpt lat="46.8511" lon="8.47786">
        <ele>2393</ele>
        <time>2021-08-12T10:28:04.512Z</time>
      </trkpt>
      <trkpt lat="46.8511" lon="8.47784">
        <ele>2394</ele>
        <time>2021-08-12T10:28:05.512Z</time>
      </trkpt>
      <trkpt lat="46.8511" lon="8.47783">
        <ele>2393</ele>
        <time>2021-08-12T10:28:06.512Z</time>
      </trkpt>
      <trkpt lat="46.85111" lon="8.47781">
        <ele>2393</ele>
        <time>2021-08-12T10:28:07.512Z</time>
      </trkpt>
      <trkpt lat="46.85111" lon="8.4778">
        <ele>2393</ele>
        <time>2021-08-12T10:28:08.512Z</time>
      </trkpt>
      <trkpt lat="46.85111" lon="8.47778">
        <ele>2392</ele>
        <time>2021-08-12T10:28:09.512Z</time>
      </trkpt>
      <trkpt lat="46.85111" lon="8.47777">
        <ele>2393</ele>
        <time>2021-08-12T10:28:10.512Z</time>
      </trkpt>
      <trkpt lat="46.85111" lon="8.47776">
        <ele>2393</ele>
        <time>2021-08-12T10:28:11.512Z</time>
      </trkpt>
      <trkpt lat="46.85111" lon="8.47774">
        <ele>2393</ele>
        <time>2021-08-12T10:28:12.512Z</time>
      </trkpt>
      <trkpt lat="46.8511" lon="8.47773">
        <ele>2393</ele>
        <time>2021-08-12T10:28:13.512Z</time>
      </trkpt>
      <trkpt lat="46.85109" lon="8.47772">
        <ele>2393</ele>
        <time>2021-08-12T10:28:14.512Z</time>
      </trkpt>
      <trkpt lat="46.85108" lon="8.47772">
        <ele>2393</ele>
        <time>2021-08-12T10:28:15.512Z</time>
      </trkpt>
      <trkpt lat="46.85106" lon="8.47772">
        <ele>2393</ele>
        <time>2021-08-12T10:28:16.513Z</time>
      </trkpt>
      <trkpt lat="46.85106" lon="8.47772">
        <ele>2393</ele>
        <time>2021-08-12T10:28:17.512Z</time>
      </trkpt>
      <trkpt lat="46.85105" lon="8.47771">
        <ele>2392</ele>
        <time>2021-08-12T10:28:18.512Z</time>
      </trkpt>
      <trkpt lat="46.85105" lon="8.4777">
        <ele>2392</ele>
        <time>2021-08-12T10:28:19.512Z</time>
      </trkpt>
      <trkpt lat="46.85105" lon="8.47769">
        <ele>2392</ele>
        <time>2021-08-12T10:28:20.513Z</time>
      </trkpt>
      <trkpt lat="46.85105" lon="8.47768">
        <ele>2391</ele>
        <time>2021-08-12T10:28:21.512Z</time>
      </trkpt>
      <trkpt lat="46.85104" lon="8.47766">
        <ele>2391</ele>
        <time>2021-08-12T10:28:22.512Z</time>
      </trkpt>
      <trkpt lat="46.85104" lon="8.47765">
        <ele>2392</ele>
        <time>2021-08-12T10:28:23.512Z</time>
      </trkpt>
      <trkpt lat="46.85104" lon="8.47764">
        <ele>2392</ele>
        <time>2021-08-12T10:28:24.513Z</time>
      </trkpt>
      <trkpt lat="46.85103" lon="8.47763">
        <ele>2393</ele>
        <time>2021-08-12T10:28:25.513Z</time>
      </trkpt>
      <trkpt lat="46.85103" lon="8.47761">
        <ele>2393</ele>
        <time>2021-08-12T10:28:26.512Z</time>
      </trkpt>
      <trkpt lat="46.85102" lon="8.4776">
        <ele>2393</ele>
        <time>2021-08-12T10:28:27.512Z</time>
      </trkpt>
      <trkpt lat="46.85102" lon="8.47758">
        <ele>2394</ele>
        <time>2021-08-12T10:28:28.513Z</time>
      </trkpt>
      <trkpt lat="46.851" lon="8.47757">
        <ele>2394</ele>
        <time>2021-08-12T10:28:29.513Z</time>
      </trkpt>
      <trkpt lat="46.85099" lon="8.47756">
        <ele>2394</ele>
        <time>2021-08-12T10:28:30.512Z</time>
      </trkpt>
      <trkpt lat="46.85099" lon="8.47754">
        <ele>2394</ele>
        <time>2021-08-12T10:28:31.513Z</time>
      </trkpt>
      <trkpt lat="46.85099" lon="8.47752">
        <ele>2393</ele>
        <time>2021-08-12T10:28:32.512Z</time>
      </trkpt>
      <trkpt lat="46.85099" lon="8.47751">
        <ele>2393</ele>
        <time>2021-08-12T10:28:33.512Z</time>
      </trkpt>
      <trkpt lat="46.85099" lon="8.47748">
        <ele>2393</ele>
        <time>2021-08-12T10:28:34.512Z</time>
      </trkpt>
      <trkpt lat="46.85098" lon="8.47746">
        <ele>2392</ele>
        <time>2021-08-12T10:28:35.512Z</time>
      </trkpt>
      <trkpt lat="46.85098" lon="8.47746">
        <ele>2392</ele>
        <time>2021-08-12T10:28:36.512Z</time>
      </trkpt>
      <trkpt lat="46.85098" lon="8.47744">
        <ele>2391</ele>
        <time>2021-08-12T10:28:37.513Z</time>
      </trkpt>
      <trkpt lat="46.85097" lon="8.47743">
        <ele>2391</ele>
        <time>2021-08-12T10:28:38.512Z</time>
      </trkpt>
      <trkpt lat="46.85097" lon="8.47741">
        <ele>2391</ele>
        <time>2021-08-12T10:28:39.513Z</time>
      </trkpt>
      <trkpt lat="46.85096" lon="8.4774">
        <ele>2390</ele>
        <time>2021-08-12T10:28:40.513Z</time>
      </trkpt>
      <trkpt lat="46.85096" lon="8.47738">
        <ele>2390</ele>
        <time>2021-08-12T10:28:41.512Z</time>
      </trkpt>
      <trkpt lat="46.85096" lon="8.47736">
        <ele>2390</ele>
        <time>2021-08-12T10:28:42.512Z</time>
      </trkpt>
      <trkpt lat="46.85095" lon="8.47735">
        <ele>2390</ele>
        <time>2021-08-12T10:28:43.513Z</time>
      </trkpt>
      <trkpt lat="46.85095" lon="8.47733">
        <ele>2390</ele>
        <time>2021-08-12T10:28:44.512Z</time>
      </trkpt>
      <trkpt lat="46.85095" lon="8.47732">
        <ele>2390</ele>
        <time>2021-08-12T10:28:45.513Z</time>
      </trkpt>
      <trkpt lat="46.85094" lon="8.4773">
        <ele>2390</ele>
        <time>2021-08-12T10:28:46.513Z</time>
      </trkpt>
      <trkpt lat="46.85094" lon="8.47728">
        <ele>2390</ele>
        <time>2021-08-12T10:28:47.512Z</time>
      </trkpt>
      <trkpt lat="46.85094" lon="8.47726">
        <ele>2390</ele>
        <time>2021-08-12T10:28:48.512Z</time>
      </trkpt>
      <trkpt lat="46.85094" lon="8.47725">
        <ele>2390</ele>
        <time>2021-08-12T10:28:49.512Z</time>
      </trkpt>
      <trkpt lat="46.85093" lon="8.47723">
        <ele>2391</ele>
        <time>2021-08-12T10:28:50.512Z</time>
      </trkpt>
      <trkpt lat="46.85093" lon="8.47722">
        <ele>2391</ele>
        <time>2021-08-12T10:28:51.512Z</time>
      </trkpt>
      <trkpt lat="46.85092" lon="8.4772">
        <ele>2391</ele>
        <time>2021-08-12T10:28:52.512Z</time>
      </trkpt>
      <trkpt lat="46.85092" lon="8.47719">
        <ele>2391</ele>
        <time>2021-08-12T10:28:53.513Z</time>
      </trkpt>
      <trkpt lat="46.85091" lon="8.47718">
        <ele>2391</ele>
        <time>2021-08-12T10:28:54.512Z</time>
      </trkpt>
      <trkpt lat="46.85091" lon="8.47716">
        <ele>2391</ele>
        <time>2021-08-12T10:28:55.512Z</time>
      </trkpt>
      <trkpt lat="46.8509" lon="8.47715">
        <ele>2391</ele>
        <time>2021-08-12T10:28:56.513Z</time>
      </trkpt>
      <trkpt lat="46.8509" lon="8.47714">
        <ele>2391</ele>
        <time>2021-08-12T10:28:57.512Z</time>
      </trkpt>
      <trkpt lat="46.85089" lon="8.47713">
        <ele>2391</ele>
        <time>2021-08-12T10:28:58.512Z</time>
      </trkpt>
      <trkpt lat="46.85089" lon="8.47712">
        <ele>2391</ele>
        <time>2021-08-12T10:28:59.512Z</time>
      </trkpt>
      <trkpt lat="46.85089" lon="8.4771">
        <ele>2391</ele>
        <time>2021-08-12T10:29:00.512Z</time>
      </trkpt>
      <trkpt lat="46.85089" lon="8.47709">
        <ele>2390</ele>
        <time>2021-08-12T10:29:01.512Z</time>
      </trkpt>
      <trkpt lat="46.85089" lon="8.47708">
        <ele>2390</ele>
        <time>2021-08-12T10:29:02.512Z</time>
      </trkpt>
      <trkpt lat="46.85089" lon="8.47706">
        <ele>2390</ele>
        <time>2021-08-12T10:29:03.513Z</time>
      </trkpt>
      <trkpt lat="46.85089" lon="8.47705">
        <ele>2390</ele>
        <time>2021-08-12T10:29:04.513Z</time>
      </trkpt>
      <trkpt lat="46.85089" lon="8.47703">
        <ele>2390</ele>
        <time>2021-08-12T10:29:05.513Z</time>
      </trkpt>
      <trkpt lat="46.85088" lon="8.47702">
        <ele>2390</ele>
        <time>2021-08-12T10:29:06.512Z</time>
      </trkpt>
      <trkpt lat="46.85087" lon="8.47701">
        <ele>2390</ele>
        <time>2021-08-12T10:29:07.513Z</time>
      </trkpt>
      <trkpt lat="46.85086" lon="8.47699">
        <ele>2390</ele>
        <time>2021-08-12T10:29:08.512Z</time>
      </trkpt>
      <trkpt lat="46.85085" lon="8.47698">
        <ele>2390</ele>
        <time>2021-08-12T10:29:09.512Z</time>
      </trkpt>
      <trkpt lat="46.85084" lon="8.47696">
        <ele>2389</ele>
        <time>2021-08-12T10:29:10.512Z</time>
      </trkpt>
      <trkpt lat="46.85083" lon="8.47694">
        <ele>2389</ele>
        <time>2021-08-12T10:29:11.513Z</time>
      </trkpt>
      <trkpt lat="46.85083" lon="8.47692">
        <ele>2389</ele>
        <time>2021-08-12T10:29:12.512Z</time>
      </trkpt>
      <trkpt lat="46.85083" lon="8.4769">
        <ele>2389</ele>
        <time>2021-08-12T10:29:13.512Z</time>
      </trkpt>
      <trkpt lat="46.85082" lon="8.47689">
        <ele>2389</ele>
        <time>2021-08-12T10:29:14.512Z</time>
      </trkpt>
      <trkpt lat="46.85082" lon="8.47688">
        <ele>2388</ele>
        <time>2021-08-12T10:29:15.512Z</time>
      </trkpt>
      <trkpt lat="46.85081" lon="8.47687">
        <ele>2388</ele>
        <time>2021-08-12T10:29:16.512Z</time>
      </trkpt>
      <trkpt lat="46.8508" lon="8.47686">
        <ele>2388</ele>
        <time>2021-08-12T10:29:17.512Z</time>
      </trkpt>
      <trkpt lat="46.8508" lon="8.47684">
        <ele>2388</ele>
        <time>2021-08-12T10:29:18.512Z</time>
      </trkpt>
      <trkpt lat="46.85079" lon="8.47682">
        <ele>2388</ele>
        <time>2021-08-12T10:29:19.512Z</time>
      </trkpt>
      <trkpt lat="46.85079" lon="8.47681">
        <ele>2389</ele>
        <time>2021-08-12T10:29:20.512Z</time>
      </trkpt>
      <trkpt lat="46.85078" lon="8.4768">
        <ele>2389</ele>
        <time>2021-08-12T10:29:21.512Z</time>
      </trkpt>
      <trkpt lat="46.85078" lon="8.47678">
        <ele>2390</ele>
        <time>2021-08-12T10:29:22.512Z</time>
      </trkpt>
      <trkpt lat="46.85077" lon="8.47677">
        <ele>2391</ele>
        <time>2021-08-12T10:29:23.512Z</time>
      </trkpt>
      <trkpt lat="46.85075" lon="8.47675">
        <ele>2391</ele>
        <time>2021-08-12T10:29:24.512Z</time>
      </trkpt>
      <trkpt lat="46.85074" lon="8.47674">
        <ele>2391</ele>
        <time>2021-08-12T10:29:25.512Z</time>
      </trkpt>
      <trkpt lat="46.85073" lon="8.47673">
        <ele>2391</ele>
        <time>2021-08-12T10:29:26.513Z</time>
      </trkpt>
      <trkpt lat="46.85071" lon="8.47672">
        <ele>2392</ele>
        <time>2021-08-12T10:29:27.513Z</time>
      </trkpt>
      <trkpt lat="46.8507" lon="8.47671">
        <ele>2392</ele>
        <time>2021-08-12T10:29:28.512Z</time>
      </trkpt>
      <trkpt lat="46.85069" lon="8.4767">
        <ele>2392</ele>
        <time>2021-08-12T10:29:29.512Z</time>
      </trkpt>
      <trkpt lat="46.85069" lon="8.47669">
        <ele>2392</ele>
        <time>2021-08-12T10:29:30.512Z</time>
      </trkpt>
      <trkpt lat="46.85068" lon="8.47667">
        <ele>2391</ele>
        <time>2021-08-12T10:29:31.512Z</time>
      </trkpt>
      <trkpt lat="46.85068" lon="8.47666">
        <ele>2391</ele>
        <time>2021-08-12T10:29:32.512Z</time>
      </trkpt>
      <trkpt lat="46.85067" lon="8.47664">
        <ele>2390</ele>
        <time>2021-08-12T10:29:33.513Z</time>
      </trkpt>
      <trkpt lat="46.85066" lon="8.47662">
        <ele>2390</ele>
        <time>2021-08-12T10:29:34.512Z</time>
      </trkpt>
      <trkpt lat="46.85066" lon="8.4766">
        <ele>2390</ele>
        <time>2021-08-12T10:29:35.512Z</time>
      </trkpt>
      <trkpt lat="46.85066" lon="8.47658">
        <ele>2390</ele>
        <time>2021-08-12T10:29:36.512Z</time>
      </trkpt>
      <trkpt lat="46.85066" lon="8.47656">
        <ele>2390</ele>
        <time>2021-08-12T10:29:37.513Z</time>
      </trkpt>
      <trkpt lat="46.85066" lon="8.47655">
        <ele>2389</ele>
        <time>2021-08-12T10:29:38.513Z</time>
      </trkpt>
      <trkpt lat="46.85066" lon="8.47653">
        <ele>2389</ele>
        <time>2021-08-12T10:29:39.513Z</time>
      </trkpt>
      <trkpt lat="46.85065" lon="8.47651">
        <ele>2389</ele>
        <time>2021-08-12T10:29:40.512Z</time>
      </trkpt>
      <trkpt lat="46.85065" lon="8.47649">
        <ele>2388</ele>
        <time>2021-08-12T10:29:41.513Z</time>
      </trkpt>
      <trkpt lat="46.85065" lon="8.47647">
        <ele>2388</ele>
        <time>2021-08-12T10:29:42.512Z</time>
      </trkpt>
      <trkpt lat="46.85064" lon="8.47645">
        <ele>2387</ele>
        <time>2021-08-12T10:29:43.512Z</time>
      </trkpt>
      <trkpt lat="46.85064" lon="8.47643">
        <ele>2387</ele>
        <time>2021-08-12T10:29:44.512Z</time>
      </trkpt>
      <trkpt lat="46.85063" lon="8.47641">
        <ele>2386</ele>
        <time>2021-08-12T10:29:45.512Z</time>
      </trkpt>
      <trkpt lat="46.85062" lon="8.4764">
        <ele>2386</ele>
        <time>2021-08-12T10:29:46.512Z</time>
      </trkpt>
      <trkpt lat="46.85062" lon="8.47638">
        <ele>2386</ele>
        <time>2021-08-12T10:29:47.512Z</time>
      </trkpt>
      <trkpt lat="46.85061" lon="8.47636">
        <ele>2386</ele>
        <time>2021-08-12T10:29:48.512Z</time>
      </trkpt>
      <trkpt lat="46.85061" lon="8.47634">
        <ele>2386</ele>
        <time>2021-08-12T10:29:49.513Z</time>
      </trkpt>
      <trkpt lat="46.85061" lon="8.47633">
        <ele>2386</ele>
        <time>2021-08-12T10:29:50.512Z</time>
      </trkpt>
      <trkpt lat="46.8506" lon="8.47632">
        <ele>2386</ele>
        <time>2021-08-12T10:29:51.512Z</time>
      </trkpt>
      <trkpt lat="46.85059" lon="8.4763">
        <ele>2386</ele>
        <time>2021-08-12T10:29:52.512Z</time>
      </trkpt>
      <trkpt lat="46.85059" lon="8.4763">
        <ele>2386</ele>
        <time>2021-08-12T10:29:53.513Z</time>
      </trkpt>
      <trkpt lat="46.85058" lon="8.47629">
        <ele>2386</ele>
        <time>2021-08-12T10:29:54.512Z</time>
      </trkpt>
      <trkpt lat="46.85057" lon="8.47628">
        <ele>2386</ele>
        <time>2021-08-12T10:29:55.512Z</time>
      </trkpt>
      <trkpt lat="46.85056" lon="8.47627">
        <ele>2386</ele>
        <time>2021-08-12T10:29:56.512Z</time>
      </trkpt>
      <trkpt lat="46.85055" lon="8.47625">
        <ele>2387</ele>
        <time>2021-08-12T10:29:57.512Z</time>
      </trkpt>
      <trkpt lat="46.85055" lon="8.47624">
        <ele>2387</ele>
        <time>2021-08-12T10:29:58.512Z</time>
      </trkpt>
      <trkpt lat="46.85054" lon="8.47623">
        <ele>2386</ele>
        <time>2021-08-12T10:29:59.512Z</time>
      </trkpt>
      <trkpt lat="46.85053" lon="8.47621">
        <ele>2386</ele>
        <time>2021-08-12T10:30:00.512Z</time>
      </trkpt>
      <trkpt lat="46.85052" lon="8.4762">
        <ele>2385</ele>
        <time>2021-08-12T10:30:01.512Z</time>
      </trkpt>
      <trkpt lat="46.85051" lon="8.47619">
        <ele>2384</ele>
        <time>2021-08-12T10:30:02.512Z</time>
      </trkpt>
      <trkpt lat="46.8505" lon="8.47617">
        <ele>2384</ele>
        <time>2021-08-12T10:30:03.512Z</time>
      </trkpt>
      <trkpt lat="46.85049" lon="8.47616">
        <ele>2384</ele>
        <time>2021-08-12T10:30:04.513Z</time>
      </trkpt>
      <trkpt lat="46.85049" lon="8.47614">
        <ele>2383</ele>
        <time>2021-08-12T10:30:05.512Z</time>
      </trkpt>
      <trkpt lat="46.85048" lon="8.47612">
        <ele>2383</ele>
        <time>2021-08-12T10:30:06.512Z</time>
      </trkpt>
      <trkpt lat="46.85047" lon="8.47611">
        <ele>2383</ele>
        <time>2021-08-12T10:30:07.512Z</time>
      </trkpt>
      <trkpt lat="46.85046" lon="8.47609">
        <ele>2383</ele>
        <time>2021-08-12T10:30:08.512Z</time>
      </trkpt>
      <trkpt lat="46.85045" lon="8.47607">
        <ele>2383</ele>
        <time>2021-08-12T10:30:09.512Z</time>
      </trkpt>
      <trkpt lat="46.85044" lon="8.47606">
        <ele>2382</ele>
        <time>2021-08-12T10:30:10.512Z</time>
      </trkpt>
      <trkpt lat="46.85043" lon="8.47604">
        <ele>2382</ele>
        <time>2021-08-12T10:30:11.512Z</time>
      </trkpt>
      <trkpt lat="46.85042" lon="8.47603">
        <ele>2382</ele>
        <time>2021-08-12T10:30:12.512Z</time>
      </trkpt>
      <trkpt lat="46.85042" lon="8.47602">
        <ele>2381</ele>
        <time>2021-08-12T10:30:13.513Z</time>
      </trkpt>
      <trkpt lat="46.85041" lon="8.47601">
        <ele>2382</ele>
        <time>2021-08-12T10:30:14.512Z</time>
      </trkpt>
      <trkpt lat="46.8504" lon="8.476">
        <ele>2382</ele>
        <time>2021-08-12T10:30:15.513Z</time>
      </trkpt>
      <trkpt lat="46.85039" lon="8.47599">
        <ele>2382</ele>
        <time>2021-08-12T10:30:16.513Z</time>
      </trkpt>
      <trkpt lat="46.85038" lon="8.47598">
        <ele>2382</ele>
        <time>2021-08-12T10:30:17.513Z</time>
      </trkpt>
      <trkpt lat="46.85037" lon="8.47596">
        <ele>2382</ele>
        <time>2021-08-12T10:30:18.512Z</time>
      </trkpt>
      <trkpt lat="46.85036" lon="8.47594">
        <ele>2382</ele>
        <time>2021-08-12T10:30:19.512Z</time>
      </trkpt>
      <trkpt lat="46.85035" lon="8.47593">
        <ele>2382</ele>
        <time>2021-08-12T10:30:20.512Z</time>
      </trkpt>
      <trkpt lat="46.85035" lon="8.47591">
        <ele>2382</ele>
        <time>2021-08-12T10:30:43.577Z</time>
      </trkpt>
      <trkpt lat="46.85034" lon="8.4759">
        <ele>2382</ele>
        <time>2021-08-12T10:30:44.578Z</time>
      </trkpt>
      <trkpt lat="46.85034" lon="8.47588">
        <ele>2382</ele>
        <time>2021-08-12T10:30:45.578Z</time>
      </trkpt>
      <trkpt lat="46.85034" lon="8.47586">
        <ele>2382</ele>
        <time>2021-08-12T10:30:46.577Z</time>
      </trkpt>
      <trkpt lat="46.85034" lon="8.47584">
        <ele>2382</ele>
        <time>2021-08-12T10:30:47.577Z</time>
      </trkpt>
      <trkpt lat="46.85034" lon="8.47582">
        <ele>2382</ele>
        <time>2021-08-12T10:30:48.577Z</time>
      </trkpt>
      <trkpt lat="46.85035" lon="8.47581">
        <ele>2382</ele>
        <time>2021-08-12T10:30:49.577Z</time>
      </trkpt>
      <trkpt lat="46.85035" lon="8.4758">
        <ele>2382</ele>
        <time>2021-08-12T10:30:50.577Z</time>
      </trkpt>
      <trkpt lat="46.85036" lon="8.4758">
        <ele>2383</ele>
        <time>2021-08-12T10:30:51.578Z</time>
      </trkpt>
      <trkpt lat="46.85037" lon="8.47579">
        <ele>2383</ele>
        <time>2021-08-12T10:30:52.577Z</time>
      </trkpt>
      <trkpt lat="46.85037" lon="8.47578">
        <ele>2383</ele>
        <time>2021-08-12T10:30:53.577Z</time>
      </trkpt>
      <trkpt lat="46.85038" lon="8.47577">
        <ele>2384</ele>
        <time>2021-08-12T10:30:54.578Z</time>
      </trkpt>
      <trkpt lat="46.85039" lon="8.47576">
        <ele>2384</ele>
        <time>2021-08-12T10:30:55.577Z</time>
      </trkpt>
      <trkpt lat="46.8504" lon="8.47576">
        <ele>2384</ele>
        <time>2021-08-12T10:30:56.578Z</time>
      </trkpt>
      <trkpt lat="46.8504" lon="8.47575">
        <ele>2385</ele>
        <time>2021-08-12T10:30:57.577Z</time>
      </trkpt>
      <trkpt lat="46.85042" lon="8.47574">
        <ele>2385</ele>
        <time>2021-08-12T10:30:58.577Z</time>
      </trkpt>
      <trkpt lat="46.85043" lon="8.47573">
        <ele>2385</ele>
        <time>2021-08-12T10:30:59.577Z</time>
      </trkpt>
      <trkpt lat="46.85043" lon="8.47571">
        <ele>2385</ele>
        <time>2021-08-12T10:31:00.577Z</time>
      </trkpt>
      <trkpt lat="46.85044" lon="8.47569">
        <ele>2384</ele>
        <time>2021-08-12T10:31:01.577Z</time>
      </trkpt>
      <trkpt lat="46.85044" lon="8.47568">
        <ele>2384</ele>
        <time>2021-08-12T10:31:02.577Z</time>
      </trkpt>
      <trkpt lat="46.85043" lon="8.47566">
        <ele>2384</ele>
        <time>2021-08-12T10:31:03.578Z</time>
      </trkpt>
      <trkpt lat="46.85043" lon="8.47565">
        <ele>2383</ele>
        <time>2021-08-12T10:31:04.578Z</time>
      </trkpt>
      <trkpt lat="46.85042" lon="8.47563">
        <ele>2383</ele>
        <time>2021-08-12T10:31:05.578Z</time>
      </trkpt>
      <trkpt lat="46.85042" lon="8.47561">
        <ele>2382</ele>
        <time>2021-08-12T10:31:06.577Z</time>
      </trkpt>
      <trkpt lat="46.85042" lon="8.47558">
        <ele>2382</ele>
        <time>2021-08-12T10:31:07.577Z</time>
      </trkpt>
      <trkpt lat="46.85041" lon="8.47556">
        <ele>2382</ele>
        <time>2021-08-12T10:31:08.577Z</time>
      </trkpt>
      <trkpt lat="46.85041" lon="8.47554">
        <ele>2381</ele>
        <time>2021-08-12T10:31:09.577Z</time>
      </trkpt>
      <trkpt lat="46.8504" lon="8.47553">
        <ele>2381</ele>
        <time>2021-08-12T10:31:10.577Z</time>
      </trkpt>
      <trkpt lat="46.85041" lon="8.4755">
        <ele>2380</ele>
        <time>2021-08-12T10:31:11.577Z</time>
      </trkpt>
      <trkpt lat="46.85041" lon="8.47549">
        <ele>2380</ele>
        <time>2021-08-12T10:31:12.578Z</time>
      </trkpt>
      <trkpt lat="46.8504" lon="8.47547">
        <ele>2380</ele>
        <time>2021-08-12T10:31:13.577Z</time>
      </trkpt>
      <trkpt lat="46.8504" lon="8.47546">
        <ele>2380</ele>
        <time>2021-08-12T10:31:14.577Z</time>
      </trkpt>
      <trkpt lat="46.85039" lon="8.47544">
        <ele>2380</ele>
        <time>2021-08-12T10:31:15.577Z</time>
      </trkpt>
      <trkpt lat="46.85039" lon="8.47543">
        <ele>2380</ele>
        <time>2021-08-12T10:31:16.577Z</time>
      </trkpt>
      <trkpt lat="46.85038" lon="8.47542">
        <ele>2380</ele>
        <time>2021-08-12T10:31:17.577Z</time>
      </trkpt>
      <trkpt lat="46.85037" lon="8.47541">
        <ele>2380</ele>
        <time>2021-08-12T10:31:18.577Z</time>
      </trkpt>
      <trkpt lat="46.85036" lon="8.4754">
        <ele>2380</ele>
        <time>2021-08-12T10:31:19.577Z</time>
      </trkpt>
      <trkpt lat="46.85035" lon="8.47538">
        <ele>2380</ele>
        <time>2021-08-12T10:31:20.577Z</time>
      </trkpt>
      <trkpt lat="46.85034" lon="8.47538">
        <ele>2380</ele>
        <time>2021-08-12T10:31:21.577Z</time>
      </trkpt>
      <trkpt lat="46.85033" lon="8.47536">
        <ele>2380</ele>
        <time>2021-08-12T10:31:22.577Z</time>
      </trkpt>
      <trkpt lat="46.85033" lon="8.47534">
        <ele>2380</ele>
        <time>2021-08-12T10:31:23.577Z</time>
      </trkpt>
      <trkpt lat="46.85033" lon="8.47532">
        <ele>2380</ele>
        <time>2021-08-12T10:31:24.577Z</time>
      </trkpt>
      <trkpt lat="46.85032" lon="8.47531">
        <ele>2379</ele>
        <time>2021-08-12T10:31:25.577Z</time>
      </trkpt>
      <trkpt lat="46.85032" lon="8.47529">
        <ele>2379</ele>
        <time>2021-08-12T10:31:26.577Z</time>
      </trkpt>
      <trkpt lat="46.85033" lon="8.47527">
        <ele>2378</ele>
        <time>2021-08-12T10:31:27.577Z</time>
      </trkpt>
      <trkpt lat="46.85032" lon="8.47524">
        <ele>2378</ele>
        <time>2021-08-12T10:31:28.577Z</time>
      </trkpt>
      <trkpt lat="46.85032" lon="8.47523">
        <ele>2378</ele>
        <time>2021-08-12T10:31:29.578Z</time>
      </trkpt>
      <trkpt lat="46.85031" lon="8.47521">
        <ele>2378</ele>
        <time>2021-08-12T10:31:30.577Z</time>
      </trkpt>
      <trkpt lat="46.85031" lon="8.4752">
        <ele>2377</ele>
        <time>2021-08-12T10:31:31.578Z</time>
      </trkpt>
      <trkpt lat="46.8503" lon="8.47519">
        <ele>2377</ele>
        <time>2021-08-12T10:31:32.577Z</time>
      </trkpt>
      <trkpt lat="46.85029" lon="8.47517">
        <ele>2377</ele>
        <time>2021-08-12T10:31:33.577Z</time>
      </trkpt>
      <trkpt lat="46.85028" lon="8.47516">
        <ele>2377</ele>
        <time>2021-08-12T10:31:34.578Z</time>
      </trkpt>
      <trkpt lat="46.85028" lon="8.47515">
        <ele>2376</ele>
        <time>2021-08-12T10:31:35.577Z</time>
      </trkpt>
      <trkpt lat="46.85027" lon="8.47513">
        <ele>2376</ele>
        <time>2021-08-12T10:31:36.578Z</time>
      </trkpt>
      <trkpt lat="46.85026" lon="8.47512">
        <ele>2376</ele>
        <time>2021-08-12T10:31:37.577Z</time>
      </trkpt>
      <trkpt lat="46.85026" lon="8.4751">
        <ele>2375</ele>
        <time>2021-08-12T10:31:38.577Z</time>
      </trkpt>
      <trkpt lat="46.85025" lon="8.47508">
        <ele>2375</ele>
        <time>2021-08-12T10:31:39.577Z</time>
      </trkpt>
      <trkpt lat="46.85025" lon="8.47506">
        <ele>2375</ele>
        <time>2021-08-12T10:31:40.577Z</time>
      </trkpt>
      <trkpt lat="46.85024" lon="8.47504">
        <ele>2375</ele>
        <time>2021-08-12T10:31:41.577Z</time>
      </trkpt>
      <trkpt lat="46.85025" lon="8.47502">
        <ele>2374</ele>
        <time>2021-08-12T10:31:42.577Z</time>
      </trkpt>
      <trkpt lat="46.85025" lon="8.475">
        <ele>2374</ele>
        <time>2021-08-12T10:31:43.577Z</time>
      </trkpt>
      <trkpt lat="46.85025" lon="8.47497">
        <ele>2373</ele>
        <time>2021-08-12T10:31:44.578Z</time>
      </trkpt>
      <trkpt lat="46.85025" lon="8.47495">
        <ele>2373</ele>
        <time>2021-08-12T10:31:45.577Z</time>
      </trkpt>
      <trkpt lat="46.85025" lon="8.47494">
        <ele>2373</ele>
        <time>2021-08-12T10:31:46.577Z</time>
      </trkpt>
      <trkpt lat="46.85026" lon="8.47492">
        <ele>2373</ele>
        <time>2021-08-12T10:31:47.578Z</time>
      </trkpt>
      <trkpt lat="46.85026" lon="8.47491">
        <ele>2373</ele>
        <time>2021-08-12T10:31:48.577Z</time>
      </trkpt>
      <trkpt lat="46.85026" lon="8.47489">
        <ele>2374</ele>
        <time>2021-08-12T10:31:49.578Z</time>
      </trkpt>
      <trkpt lat="46.85026" lon="8.47487">
        <ele>2374</ele>
        <time>2021-08-12T10:31:50.577Z</time>
      </trkpt>
      <trkpt lat="46.85026" lon="8.47485">
        <ele>2374</ele>
        <time>2021-08-12T10:31:51.577Z</time>
      </trkpt>
      <trkpt lat="46.85026" lon="8.47483">
        <ele>2375</ele>
        <time>2021-08-12T10:31:52.577Z</time>
      </trkpt>
      <trkpt lat="46.85025" lon="8.47481">
        <ele>2375</ele>
        <time>2021-08-12T10:31:53.578Z</time>
      </trkpt>
      <trkpt lat="46.85025" lon="8.47479">
        <ele>2375</ele>
        <time>2021-08-12T10:31:54.577Z</time>
      </trkpt>
      <trkpt lat="46.85025" lon="8.47477">
        <ele>2375</ele>
        <time>2021-08-12T10:31:55.577Z</time>
      </trkpt>
      <trkpt lat="46.85025" lon="8.47475">
        <ele>2374</ele>
        <time>2021-08-12T10:31:56.577Z</time>
      </trkpt>
      <trkpt lat="46.85024" lon="8.47474">
        <ele>2374</ele>
        <time>2021-08-12T10:31:57.577Z</time>
      </trkpt>
      <trkpt lat="46.85024" lon="8.47472">
        <ele>2374</ele>
        <time>2021-08-12T10:31:58.577Z</time>
      </trkpt>
      <trkpt lat="46.85023" lon="8.4747">
        <ele>2374</ele>
        <time>2021-08-12T10:31:59.578Z</time>
      </trkpt>
      <trkpt lat="46.85023" lon="8.47469">
        <ele>2374</ele>
        <time>2021-08-12T10:32:00.578Z</time>
      </trkpt>
      <trkpt lat="46.85022" lon="8.47468">
        <ele>2374</ele>
        <time>2021-08-12T10:32:01.577Z</time>
      </trkpt>
      <trkpt lat="46.85021" lon="8.47467">
        <ele>2374</ele>
        <time>2021-08-12T10:32:02.577Z</time>
      </trkpt>
      <trkpt lat="46.8502" lon="8.47466">
        <ele>2374</ele>
        <time>2021-08-12T10:32:03.577Z</time>
      </trkpt>
      <trkpt lat="46.85019" lon="8.47466">
        <ele>2374</ele>
        <time>2021-08-12T10:32:04.577Z</time>
      </trkpt>
      <trkpt lat="46.85018" lon="8.47466">
        <ele>2374</ele>
        <time>2021-08-12T10:32:05.578Z</time>
      </trkpt>
      <trkpt lat="46.85018" lon="8.47466">
        <ele>2374</ele>
        <time>2021-08-12T10:32:06.577Z</time>
      </trkpt>
      <trkpt lat="46.85017" lon="8.47465">
        <ele>2373</ele>
        <time>2021-08-12T10:32:07.578Z</time>
      </trkpt>
      <trkpt lat="46.85017" lon="8.47464">
        <ele>2373</ele>
        <time>2021-08-12T10:32:08.578Z</time>
      </trkpt>
      <trkpt lat="46.85018" lon="8.47463">
        <ele>2373</ele>
        <time>2021-08-12T10:32:09.577Z</time>
      </trkpt>
      <trkpt lat="46.85019" lon="8.47461">
        <ele>2372</ele>
        <time>2021-08-12T10:32:10.577Z</time>
      </trkpt>
      <trkpt lat="46.8502" lon="8.47459">
        <ele>2372</ele>
        <time>2021-08-12T10:32:11.577Z</time>
      </trkpt>
      <trkpt lat="46.85021" lon="8.47457">
        <ele>2371</ele>
        <time>2021-08-12T10:32:12.577Z</time>
      </trkpt>
      <trkpt lat="46.85022" lon="8.47456">
        <ele>2371</ele>
        <time>2021-08-12T10:32:13.577Z</time>
      </trkpt>
      <trkpt lat="46.85022" lon="8.47454">
        <ele>2371</ele>
        <time>2021-08-12T10:32:14.577Z</time>
      </trkpt>
      <trkpt lat="46.85022" lon="8.47452">
        <ele>2371</ele>
        <time>2021-08-12T10:32:15.578Z</time>
      </trkpt>
      <trkpt lat="46.85022" lon="8.47451">
        <ele>2371</ele>
        <time>2021-08-12T10:32:16.578Z</time>
      </trkpt>
      <trkpt lat="46.85022" lon="8.4745">
        <ele>2371</ele>
        <time>2021-08-12T10:32:17.578Z</time>
      </trkpt>
      <trkpt lat="46.85022" lon="8.47448">
        <ele>2371</ele>
        <time>2021-08-12T10:32:18.577Z</time>
      </trkpt>
      <trkpt lat="46.85022" lon="8.47446">
        <ele>2370</ele>
        <time>2021-08-12T10:32:24.687Z</time>
      </trkpt>
      <trkpt lat="46.85021" lon="8.47444">
        <ele>2370</ele>
        <time>2021-08-12T10:32:25.688Z</time>
      </trkpt>
      <trkpt lat="46.85021" lon="8.47442">
        <ele>2370</ele>
        <time>2021-08-12T10:32:26.687Z</time>
      </trkpt>
      <trkpt lat="46.85021" lon="8.47441">
        <ele>2369</ele>
        <time>2021-08-12T10:32:27.687Z</time>
      </trkpt>
      <trkpt lat="46.85022" lon="8.47439">
        <ele>2369</ele>
        <time>2021-08-12T10:32:28.688Z</time>
      </trkpt>
      <trkpt lat="46.85023" lon="8.47436">
        <ele>2369</ele>
        <time>2021-08-12T10:32:29.687Z</time>
      </trkpt>
      <trkpt lat="46.85023" lon="8.47434">
        <ele>2368</ele>
        <time>2021-08-12T10:32:30.687Z</time>
      </trkpt>
      <trkpt lat="46.85022" lon="8.47432">
        <ele>2368</ele>
        <time>2021-08-12T10:32:31.687Z</time>
      </trkpt>
      <trkpt lat="46.85021" lon="8.4743">
        <ele>2367</ele>
        <time>2021-08-12T10:32:32.687Z</time>
      </trkpt>
      <trkpt lat="46.8502" lon="8.47429">
        <ele>2367</ele>
        <time>2021-08-12T10:32:33.687Z</time>
      </trkpt>
      <trkpt lat="46.85019" lon="8.47427">
        <ele>2367</ele>
        <time>2021-08-12T10:32:34.687Z</time>
      </trkpt>
      <trkpt lat="46.85019" lon="8.47426">
        <ele>2367</ele>
        <time>2021-08-12T10:32:35.688Z</time>
      </trkpt>
      <trkpt lat="46.85018" lon="8.47425">
        <ele>2366</ele>
        <time>2021-08-12T10:32:36.687Z</time>
      </trkpt>
      <trkpt lat="46.85017" lon="8.47424">
        <ele>2366</ele>
        <time>2021-08-12T10:32:37.687Z</time>
      </trkpt>
      <trkpt lat="46.85017" lon="8.47424">
        <ele>2366</ele>
        <time>2021-08-12T10:32:38.688Z</time>
      </trkpt>
      <trkpt lat="46.85016" lon="8.47422">
        <ele>2366</ele>
        <time>2021-08-12T10:32:39.688Z</time>
      </trkpt>
      <trkpt lat="46.85016" lon="8.47421">
        <ele>2366</ele>
        <time>2021-08-12T10:32:40.687Z</time>
      </trkpt>
      <trkpt lat="46.85017" lon="8.47421">
        <ele>2365</ele>
        <time>2021-08-12T10:32:41.687Z</time>
      </trkpt>
      <trkpt lat="46.85016" lon="8.47422">
        <ele>2367</ele>
        <time>2021-08-12T10:32:42.564Z</time>
      </trkpt>
      <trkpt lat="46.85016" lon="8.47422">
        <ele>2368</ele>
        <time>2021-08-12T10:32:43.564Z</time>
      </trkpt>
      <trkpt lat="46.85016" lon="8.47421">
        <ele>2368</ele>
        <time>2021-08-12T10:32:44.564Z</time>
      </trkpt>
      <trkpt lat="46.85016" lon="8.47421">
        <ele>2368</ele>
        <time>2021-08-12T10:32:45.565Z</time>
      </trkpt>
      <trkpt lat="46.85016" lon="8.47418">
        <ele>2366</ele>
        <time>2021-08-12T10:32:46.564Z</time>
      </trkpt>
      <trkpt lat="46.85016" lon="8.47417">
        <ele>2365</ele>
        <time>2021-08-12T10:32:47.565Z</time>
      </trkpt>
      <trkpt lat="46.85016" lon="8.47416">
        <ele>2365</ele>
        <time>2021-08-12T10:32:48.565Z</time>
      </trkpt>
      <trkpt lat="46.85016" lon="8.47416">
        <ele>2365</ele>
        <time>2021-08-12T10:32:49.565Z</time>
      </trkpt>
      <trkpt lat="46.85015" lon="8.47416">
        <ele>2365</ele>
        <time>2021-08-12T10:32:50.565Z</time>
      </trkpt>
      <trkpt lat="46.85015" lon="8.47415">
        <ele>2365</ele>
        <time>2021-08-12T10:32:51.565Z</time>
      </trkpt>
      <trkpt lat="46.85015" lon="8.47414">
        <ele>2365</ele>
        <time>2021-08-12T10:32:52.565Z</time>
      </trkpt>
      <trkpt lat="46.85014" lon="8.47413">
        <ele>2365</ele>
        <time>2021-08-12T10:32:53.565Z</time>
      </trkpt>
      <trkpt lat="46.85013" lon="8.47412">
        <ele>2365</ele>
        <time>2021-08-12T10:32:54.564Z</time>
      </trkpt>
      <trkpt lat="46.85013" lon="8.47411">
        <ele>2364</ele>
        <time>2021-08-12T10:32:55.564Z</time>
      </trkpt>
      <trkpt lat="46.85013" lon="8.47411">
        <ele>2364</ele>
        <time>2021-08-12T10:32:56.565Z</time>
      </trkpt>
      <trkpt lat="46.85012" lon="8.47411">
        <ele>2365</ele>
        <time>2021-08-12T10:32:57.564Z</time>
      </trkpt>
      <trkpt lat="46.85012" lon="8.47411">
        <ele>2365</ele>
        <time>2021-08-12T10:32:58.564Z</time>
      </trkpt>
      <trkpt lat="46.85011" lon="8.47411">
        <ele>2365</ele>
        <time>2021-08-12T10:32:59.564Z</time>
      </trkpt>
      <trkpt lat="46.85011" lon="8.47411">
        <ele>2365</ele>
        <time>2021-08-12T10:33:00.565Z</time>
      </trkpt>
      <trkpt lat="46.8501" lon="8.47411">
        <ele>2364</ele>
        <time>2021-08-12T10:33:01.565Z</time>
      </trkpt>
      <trkpt lat="46.85009" lon="8.47411">
        <ele>2364</ele>
        <time>2021-08-12T10:33:02.564Z</time>
      </trkpt>
      <trkpt lat="46.85009" lon="8.47411">
        <ele>2363</ele>
        <time>2021-08-12T10:33:03.565Z</time>
      </trkpt>
      <trkpt lat="46.85009" lon="8.4741">
        <ele>2363</ele>
        <time>2021-08-12T10:33:04.564Z</time>
      </trkpt>
      <trkpt lat="46.85008" lon="8.4741">
        <ele>2363</ele>
        <time>2021-08-12T10:33:05.565Z</time>
      </trkpt>
      <trkpt lat="46.85008" lon="8.4741">
        <ele>2362</ele>
        <time>2021-08-12T10:33:06.565Z</time>
      </trkpt>
      <trkpt lat="46.85007" lon="8.47409">
        <ele>2362</ele>
        <time>2021-08-12T10:33:07.564Z</time>
      </trkpt>
      <trkpt lat="46.85006" lon="8.47409">
        <ele>2361</ele>
        <time>2021-08-12T10:33:08.565Z</time>
      </trkpt>
      <trkpt lat="46.85006" lon="8.47409">
        <ele>2361</ele>
        <time>2021-08-12T10:33:09.564Z</time>
      </trkpt>
      <trkpt lat="46.85007" lon="8.47408">
        <ele>2361</ele>
        <time>2021-08-12T10:33:10.564Z</time>
      </trkpt>
      <trkpt lat="46.85007" lon="8.47408">
        <ele>2360</ele>
        <time>2021-08-12T10:33:11.565Z</time>
      </trkpt>
      <trkpt lat="46.85007" lon="8.47408">
        <ele>2360</ele>
        <time>2021-08-12T10:33:12.564Z</time>
      </trkpt>
      <trkpt lat="46.85008" lon="8.47409">
        <ele>2361</ele>
        <time>2021-08-12T10:33:13.565Z</time>
      </trkpt>
      <trkpt lat="46.85009" lon="8.47405">
        <ele>2361</ele>
        <time>2021-08-12T10:33:14.564Z</time>
      </trkpt>
      <trkpt lat="46.85009" lon="8.47406">
        <ele>2361</ele>
        <time>2021-08-12T10:33:15.565Z</time>
      </trkpt>
      <trkpt lat="46.85008" lon="8.47407">
        <ele>2361</ele>
        <time>2021-08-12T10:33:16.565Z</time>
      </trkpt>
      <trkpt lat="46.85007" lon="8.47407">
        <ele>2361</ele>
        <time>2021-08-12T10:33:17.564Z</time>
      </trkpt>
      <trkpt lat="46.85007" lon="8.47407">
        <ele>2361</ele>
        <time>2021-08-12T10:33:18.565Z</time>
      </trkpt>
      <trkpt lat="46.85008" lon="8.47409">
        <ele>2361</ele>
        <time>2021-08-12T10:33:19.566Z</time>
      </trkpt>
      <trkpt lat="46.85008" lon="8.47409">
        <ele>2360</ele>
        <time>2021-08-12T10:33:20.566Z</time>
      </trkpt>
      <trkpt lat="46.85008" lon="8.47408">
        <ele>2360</ele>
        <time>2021-08-12T10:33:21.566Z</time>
      </trkpt>
      <trkpt lat="46.85011" lon="8.47406">
        <ele>2355</ele>
        <time>2021-08-12T10:33:22.567Z</time>
      </trkpt>
      <trkpt lat="46.85012" lon="8.47405">
        <ele>2355</ele>
        <time>2021-08-12T10:33:23.567Z</time>
      </trkpt>
      <trkpt lat="46.85013" lon="8.47404">
        <ele>2355</ele>
        <time>2021-08-12T10:33:24.566Z</time>
      </trkpt>
      <trkpt lat="46.85013" lon="8.47404">
        <ele>2355</ele>
        <time>2021-08-12T10:33:25.566Z</time>
      </trkpt>
      <trkpt lat="46.85013" lon="8.47404">
        <ele>2355</ele>
        <time>2021-08-12T10:33:26.567Z</time>
      </trkpt>
      <trkpt lat="46.85013" lon="8.47403">
        <ele>2355</ele>
        <time>2021-08-12T10:33:27.567Z</time>
      </trkpt>
      <trkpt lat="46.85013" lon="8.47403">
        <ele>2355</ele>
        <time>2021-08-12T10:33:28.566Z</time>
      </trkpt>
      <trkpt lat="46.85013" lon="8.47402">
        <ele>2355</ele>
        <time>2021-08-12T10:33:29.567Z</time>
      </trkpt>
      <trkpt lat="46.85013" lon="8.47402">
        <ele>2355</ele>
        <time>2021-08-12T10:33:30.567Z</time>
      </trkpt>
      <trkpt lat="46.85013" lon="8.47401">
        <ele>2355</ele>
        <time>2021-08-12T10:33:31.567Z</time>
      </trkpt>
      <trkpt lat="46.85014" lon="8.47401">
        <ele>2355</ele>
        <time>2021-08-12T10:33:32.567Z</time>
      </trkpt>
      <trkpt lat="46.85014" lon="8.47401">
        <ele>2355</ele>
        <time>2021-08-12T10:33:33.566Z</time>
      </trkpt>
      <trkpt lat="46.85014" lon="8.47401">
        <ele>2355</ele>
        <time>2021-08-12T10:33:34.567Z</time>
      </trkpt>
      <trkpt lat="46.85014" lon="8.47401">
        <ele>2355</ele>
        <time>2021-08-12T10:33:35.566Z</time>
      </trkpt>
      <trkpt lat="46.85013" lon="8.474">
        <ele>2355</ele>
        <time>2021-08-12T10:33:36.567Z</time>
      </trkpt>
      <trkpt lat="46.85013" lon="8.47399">
        <ele>2355</ele>
        <time>2021-08-12T10:33:37.567Z</time>
      </trkpt>
      <trkpt lat="46.85012" lon="8.47398">
        <ele>2356</ele>
        <time>2021-08-12T10:33:38.566Z</time>
      </trkpt>
      <trkpt lat="46.85012" lon="8.47396">
        <ele>2356</ele>
        <time>2021-08-12T10:33:39.567Z</time>
      </trkpt>
      <trkpt lat="46.85012" lon="8.47395">
        <ele>2356</ele>
        <time>2021-08-12T10:33:40.567Z</time>
      </trkpt>
      <trkpt lat="46.85012" lon="8.47394">
        <ele>2356</ele>
        <time>2021-08-12T10:33:41.567Z</time>
      </trkpt>
      <trkpt lat="46.85012" lon="8.47394">
        <ele>2356</ele>
        <time>2021-08-12T10:33:42.567Z</time>
      </trkpt>
      <trkpt lat="46.85012" lon="8.47393">
        <ele>2355</ele>
        <time>2021-08-12T10:33:43.567Z</time>
      </trkpt>
      <trkpt lat="46.85012" lon="8.47393">
        <ele>2354</ele>
        <time>2021-08-12T10:33:44.566Z</time>
      </trkpt>
      <trkpt lat="46.85013" lon="8.47392">
        <ele>2354</ele>
        <time>2021-08-12T10:33:45.567Z</time>
      </trkpt>
      <trkpt lat="46.85013" lon="8.47392">
        <ele>2353</ele>
        <time>2021-08-12T10:33:46.567Z</time>
      </trkpt>
      <trkpt lat="46.85013" lon="8.47392">
        <ele>2352</ele>
        <time>2021-08-12T10:33:47.567Z</time>
      </trkpt>
      <trkpt lat="46.85013" lon="8.47392">
        <ele>2351</ele>
        <time>2021-08-12T10:33:48.566Z</time>
      </trkpt>
      <trkpt lat="46.85012" lon="8.47393">
        <ele>2350</ele>
        <time>2021-08-12T10:33:49.567Z</time>
      </trkpt>
      <trkpt lat="46.85012" lon="8.47393">
        <ele>2349</ele>
        <time>2021-08-12T10:33:50.567Z</time>
      </trkpt>
      <trkpt lat="46.85012" lon="8.47392">
        <ele>2348</ele>
        <time>2021-08-12T10:33:51.567Z</time>
      </trkpt>
      <trkpt lat="46.85012" lon="8.47392">
        <ele>2348</ele>
        <time>2021-08-12T10:33:52.566Z</time>
      </trkpt>
      <trkpt lat="46.85012" lon="8.47391">
        <ele>2347</ele>
        <time>2021-08-12T10:33:53.567Z</time>
      </trkpt>
      <trkpt lat="46.85012" lon="8.47391">
        <ele>2346</ele>
        <time>2021-08-12T10:33:54.567Z</time>
      </trkpt>
      <trkpt lat="46.85012" lon="8.47391">
        <ele>2346</ele>
        <time>2021-08-12T10:33:55.567Z</time>
      </trkpt>
      <trkpt lat="46.85012" lon="8.4739">
        <ele>2345</ele>
        <time>2021-08-12T10:33:56.567Z</time>
      </trkpt>
      <trkpt lat="46.85014" lon="8.47391">
        <ele>2347</ele>
        <time>2021-08-12T10:33:57.568Z</time>
      </trkpt>
      <trkpt lat="46.85015" lon="8.4739">
        <ele>2347</ele>
        <time>2021-08-12T10:33:58.568Z</time>
      </trkpt>
      <trkpt lat="46.85015" lon="8.4739">
        <ele>2347</ele>
        <time>2021-08-12T10:33:59.567Z</time>
      </trkpt>
      <trkpt lat="46.85016" lon="8.47389">
        <ele>2347</ele>
        <time>2021-08-12T10:34:00.569Z</time>
      </trkpt>
      <trkpt lat="46.85017" lon="8.47389">
        <ele>2348</ele>
        <time>2021-08-12T10:34:01.568Z</time>
      </trkpt>
      <trkpt lat="46.85017" lon="8.47388">
        <ele>2348</ele>
        <time>2021-08-12T10:34:02.568Z</time>
      </trkpt>
      <trkpt lat="46.85017" lon="8.47388">
        <ele>2349</ele>
        <time>2021-08-12T10:34:03.569Z</time>
      </trkpt>
      <trkpt lat="46.85018" lon="8.47387">
        <ele>2350</ele>
        <time>2021-08-12T10:34:04.569Z</time>
      </trkpt>
      <trkpt lat="46.85018" lon="8.47387">
        <ele>2351</ele>
        <time>2021-08-12T10:34:05.570Z</time>
      </trkpt>
      <trkpt lat="46.85018" lon="8.47387">
        <ele>2351</ele>
        <time>2021-08-12T10:34:06.569Z</time>
      </trkpt>
      <trkpt lat="46.85019" lon="8.47387">
        <ele>2351</ele>
        <time>2021-08-12T10:34:07.570Z</time>
      </trkpt>
      <trkpt lat="46.85019" lon="8.47387">
        <ele>2351</ele>
        <time>2021-08-12T10:34:08.570Z</time>
      </trkpt>
      <trkpt lat="46.85018" lon="8.47387">
        <ele>2351</ele>
        <time>2021-08-12T10:34:09.570Z</time>
      </trkpt>
      <trkpt lat="46.85017" lon="8.47388">
        <ele>2350</ele>
        <time>2021-08-12T10:34:10.571Z</time>
      </trkpt>
      <trkpt lat="46.85016" lon="8.47387">
        <ele>2350</ele>
        <time>2021-08-12T10:34:11.571Z</time>
      </trkpt>
      <trkpt lat="46.85016" lon="8.47388">
        <ele>2352</ele>
        <time>2021-08-12T10:34:12.572Z</time>
      </trkpt>
      <trkpt lat="46.85017" lon="8.47388">
        <ele>2353</ele>
        <time>2021-08-12T10:34:13.572Z</time>
      </trkpt>
      <trkpt lat="46.85016" lon="8.47387">
        <ele>2353</ele>
        <time>2021-08-12T10:34:14.574Z</time>
      </trkpt>
      <trkpt lat="46.85017" lon="8.47383">
        <ele>2351</ele>
        <time>2021-08-12T10:34:15.574Z</time>
      </trkpt>
      <trkpt lat="46.85017" lon="8.47383">
        <ele>2351</ele>
        <time>2021-08-12T10:34:16.574Z</time>
      </trkpt>
      <trkpt lat="46.85017" lon="8.47381">
        <ele>2351</ele>
        <time>2021-08-12T10:34:17.574Z</time>
      </trkpt>
      <trkpt lat="46.85015" lon="8.47379">
        <ele>2351</ele>
        <time>2021-08-12T10:34:18.574Z</time>
      </trkpt>
      <trkpt lat="46.85014" lon="8.47378">
        <ele>2350</ele>
        <time>2021-08-12T10:34:19.574Z</time>
      </trkpt>
      <trkpt lat="46.85013" lon="8.47378">
        <ele>2351</ele>
        <time>2021-08-12T10:34:20.574Z</time>
      </trkpt>
      <trkpt lat="46.85013" lon="8.47377">
        <ele>2351</ele>
        <time>2021-08-12T10:34:21.574Z</time>
      </trkpt>
      <trkpt lat="46.85012" lon="8.47377">
        <ele>2351</ele>
        <time>2021-08-12T10:34:22.575Z</time>
      </trkpt>
      <trkpt lat="46.85012" lon="8.47376">
        <ele>2352</ele>
        <time>2021-08-12T10:34:23.575Z</time>
      </trkpt>
      <trkpt lat="46.85012" lon="8.47375">
        <ele>2352</ele>
        <time>2021-08-12T10:34:30.704Z</time>
      </trkpt>
      <trkpt lat="46.85011" lon="8.47375">
        <ele>2352</ele>
        <time>2021-08-12T10:34:31.704Z</time>
      </trkpt>
      <trkpt lat="46.8501" lon="8.47374">
        <ele>2352</ele>
        <time>2021-08-12T10:34:33.580Z</time>
      </trkpt>
      <trkpt lat="46.85009" lon="8.47374">
        <ele>2351</ele>
        <time>2021-08-12T10:34:34.580Z</time>
      </trkpt>
      <trkpt lat="46.85008" lon="8.47373">
        <ele>2351</ele>
        <time>2021-08-12T10:34:35.580Z</time>
      </trkpt>
      <trkpt lat="46.85007" lon="8.47372">
        <ele>2351</ele>
        <time>2021-08-12T10:34:36.581Z</time>
      </trkpt>
      <trkpt lat="46.85007" lon="8.47372">
        <ele>2350</ele>
        <time>2021-08-12T10:34:37.580Z</time>
      </trkpt>
      <trkpt lat="46.85007" lon="8.47371">
        <ele>2350</ele>
        <time>2021-08-12T10:34:38.581Z</time>
      </trkpt>
      <trkpt lat="46.85006" lon="8.4737">
        <ele>2350</ele>
        <time>2021-08-12T10:34:45.729Z</time>
      </trkpt>
      <trkpt lat="46.85006" lon="8.47369">
        <ele>2350</ele>
        <time>2021-08-12T10:34:46.728Z</time>
      </trkpt>
      <trkpt lat="46.85006" lon="8.47368">
        <ele>2350</ele>
        <time>2021-08-12T10:34:47.728Z</time>
      </trkpt>
      <trkpt lat="46.85006" lon="8.47367">
        <ele>2349</ele>
        <time>2021-08-12T10:34:48.728Z</time>
      </trkpt>
      <trkpt lat="46.85006" lon="8.47366">
        <ele>2349</ele>
        <time>2021-08-12T10:34:49.729Z</time>
      </trkpt>
      <trkpt lat="46.85006" lon="8.47365">
        <ele>2348</ele>
        <time>2021-08-12T10:34:54.825Z</time>
      </trkpt>
      <trkpt lat="46.85006" lon="8.47364">
        <ele>2348</ele>
        <time>2021-08-12T10:34:55.825Z</time>
      </trkpt>
      <trkpt lat="46.85006" lon="8.47363">
        <ele>2347</ele>
        <time>2021-08-12T10:34:56.826Z</time>
      </trkpt>
      <trkpt lat="46.85006" lon="8.47361">
        <ele>2346</ele>
        <time>2021-08-12T10:34:57.825Z</time>
      </trkpt>
      <trkpt lat="46.85006" lon="8.4736">
        <ele>2346</ele>
        <time>2021-08-12T10:34:58.826Z</time>
      </trkpt>
      <trkpt lat="46.85006" lon="8.47359">
        <ele>2346</ele>
        <time>2021-08-12T10:34:59.826Z</time>
      </trkpt>
      <trkpt lat="46.85007" lon="8.47356">
        <ele>2346</ele>
        <time>2021-08-12T10:35:00.826Z</time>
      </trkpt>
      <trkpt lat="46.85009" lon="8.47352">
        <ele>2346</ele>
        <time>2021-08-12T10:35:01.825Z</time>
      </trkpt>
      <trkpt lat="46.8501" lon="8.4735">
        <ele>2346</ele>
        <time>2021-08-12T10:35:02.825Z</time>
      </trkpt>
      <trkpt lat="46.8501" lon="8.47351">
        <ele>2346</ele>
        <time>2021-08-12T10:35:03.826Z</time>
      </trkpt>
      <trkpt lat="46.8501" lon="8.47353">
        <ele>2346</ele>
        <time>2021-08-12T10:35:04.825Z</time>
      </trkpt>
      <trkpt lat="46.8501" lon="8.47354">
        <ele>2347</ele>
        <time>2021-08-12T10:35:05.826Z</time>
      </trkpt>
      <trkpt lat="46.85011" lon="8.47354">
        <ele>2347</ele>
        <time>2021-08-12T10:35:06.826Z</time>
      </trkpt>
      <trkpt lat="46.85011" lon="8.47353">
        <ele>2348</ele>
        <time>2021-08-12T10:35:07.826Z</time>
      </trkpt>
      <trkpt lat="46.85011" lon="8.47352">
        <ele>2348</ele>
        <time>2021-08-12T10:35:08.826Z</time>
      </trkpt>
      <trkpt lat="46.8501" lon="8.4735">
        <ele>2348</ele>
        <time>2021-08-12T10:35:09.825Z</time>
      </trkpt>
      <trkpt lat="46.8501" lon="8.47349">
        <ele>2347</ele>
        <time>2021-08-12T10:35:10.825Z</time>
      </trkpt>
      <trkpt lat="46.85009" lon="8.47349">
        <ele>2347</ele>
        <time>2021-08-12T10:35:11.825Z</time>
      </trkpt>
      <trkpt lat="46.85009" lon="8.47348">
        <ele>2346</ele>
        <time>2021-08-12T10:35:12.825Z</time>
      </trkpt>
      <trkpt lat="46.85009" lon="8.47348">
        <ele>2346</ele>
        <time>2021-08-12T10:35:13.826Z</time>
      </trkpt>
      <trkpt lat="46.85009" lon="8.47347">
        <ele>2345</ele>
        <time>2021-08-12T10:35:14.825Z</time>
      </trkpt>
      <trkpt lat="46.85009" lon="8.47347">
        <ele>2345</ele>
        <time>2021-08-12T10:35:15.826Z</time>
      </trkpt>
      <trkpt lat="46.85008" lon="8.47346">
        <ele>2345</ele>
        <time>2021-08-12T10:35:16.825Z</time>
      </trkpt>
      <trkpt lat="46.85008" lon="8.47346">
        <ele>2345</ele>
        <time>2021-08-12T10:35:17.825Z</time>
      </trkpt>
      <trkpt lat="46.85007" lon="8.47346">
        <ele>2344</ele>
        <time>2021-08-12T10:35:18.826Z</time>
      </trkpt>
      <trkpt lat="46.85007" lon="8.47345">
        <ele>2344</ele>
        <time>2021-08-12T10:35:19.825Z</time>
      </trkpt>
      <trkpt lat="46.85007" lon="8.47344">
        <ele>2343</ele>
        <time>2021-08-12T10:35:20.826Z</time>
      </trkpt>
      <trkpt lat="46.85006" lon="8.47343">
        <ele>2342</ele>
        <time>2021-08-12T10:35:21.826Z</time>
      </trkpt>
      <trkpt lat="46.85006" lon="8.47342">
        <ele>2342</ele>
        <time>2021-08-12T10:35:22.826Z</time>
      </trkpt>
      <trkpt lat="46.85006" lon="8.47341">
        <ele>2341</ele>
        <time>2021-08-12T10:35:23.825Z</time>
      </trkpt>
      <trkpt lat="46.85006" lon="8.4734">
        <ele>2341</ele>
        <time>2021-08-12T10:35:24.825Z</time>
      </trkpt>
      <trkpt lat="46.85006" lon="8.47339">
        <ele>2341</ele>
        <time>2021-08-12T10:35:25.825Z</time>
      </trkpt>
      <trkpt lat="46.85006" lon="8.47338">
        <ele>2340</ele>
        <time>2021-08-12T10:35:26.826Z</time>
      </trkpt>
      <trkpt lat="46.85006" lon="8.47337">
        <ele>2340</ele>
        <time>2021-08-12T10:35:27.825Z</time>
      </trkpt>
      <trkpt lat="46.85006" lon="8.47336">
        <ele>2339</ele>
        <time>2021-08-12T10:35:28.825Z</time>
      </trkpt>
      <trkpt lat="46.85006" lon="8.47334">
        <ele>2338</ele>
        <time>2021-08-12T10:35:29.826Z</time>
      </trkpt>
      <trkpt lat="46.85005" lon="8.47333">
        <ele>2338</ele>
        <time>2021-08-12T10:35:30.825Z</time>
      </trkpt>
      <trkpt lat="46.85004" lon="8.47331">
        <ele>2337</ele>
        <time>2021-08-12T10:35:31.825Z</time>
      </trkpt>
      <trkpt lat="46.85004" lon="8.47331">
        <ele>2337</ele>
        <time>2021-08-12T10:35:32.825Z</time>
      </trkpt>
      <trkpt lat="46.85003" lon="8.4733">
        <ele>2337</ele>
        <time>2021-08-12T10:35:33.825Z</time>
      </trkpt>
      <trkpt lat="46.85001" lon="8.47329">
        <ele>2337</ele>
        <time>2021-08-12T10:35:34.825Z</time>
      </trkpt>
      <trkpt lat="46.85001" lon="8.47328">
        <ele>2337</ele>
        <time>2021-08-12T10:35:35.825Z</time>
      </trkpt>
      <trkpt lat="46.85001" lon="8.47326">
        <ele>2337</ele>
        <time>2021-08-12T10:35:36.826Z</time>
      </trkpt>
      <trkpt lat="46.85" lon="8.47325">
        <ele>2336</ele>
        <time>2021-08-12T10:36:00.985Z</time>
      </trkpt>
      <trkpt lat="46.85001" lon="8.47323">
        <ele>2336</ele>
        <time>2021-08-12T10:36:01.985Z</time>
      </trkpt>
      <trkpt lat="46.85" lon="8.47323">
        <ele>2336</ele>
        <time>2021-08-12T10:36:02.985Z</time>
      </trkpt>
      <trkpt lat="46.85" lon="8.47323">
        <ele>2337</ele>
        <time>2021-08-12T10:36:03.985Z</time>
      </trkpt>
      <trkpt lat="46.85" lon="8.47323">
        <ele>2337</ele>
        <time>2021-08-12T10:36:04.985Z</time>
      </trkpt>
      <trkpt lat="46.85" lon="8.47323">
        <ele>2337</ele>
        <time>2021-08-12T10:36:05.985Z</time>
      </trkpt>
      <trkpt lat="46.85" lon="8.4732">
        <ele>2337</ele>
        <time>2021-08-12T10:36:06.986Z</time>
      </trkpt>
      <trkpt lat="46.85" lon="8.47319">
        <ele>2337</ele>
        <time>2021-08-12T10:36:07.985Z</time>
      </trkpt>
      <trkpt lat="46.85" lon="8.47318">
        <ele>2337</ele>
        <time>2021-08-12T10:36:08.986Z</time>
      </trkpt>
      <trkpt lat="46.84999" lon="8.47317">
        <ele>2337</ele>
        <time>2021-08-12T10:36:09.985Z</time>
      </trkpt>
      <trkpt lat="46.84999" lon="8.47316">
        <ele>2336</ele>
        <time>2021-08-12T10:36:10.985Z</time>
      </trkpt>
      <trkpt lat="46.84999" lon="8.47315">
        <ele>2336</ele>
        <time>2021-08-12T10:36:11.985Z</time>
      </trkpt>
      <trkpt lat="46.84999" lon="8.47314">
        <ele>2336</ele>
        <time>2021-08-12T10:36:17.106Z</time>
      </trkpt>
      <trkpt lat="46.84999" lon="8.47314">
        <ele>2335</ele>
        <time>2021-08-12T10:36:18.105Z</time>
      </trkpt>
      <trkpt lat="46.84999" lon="8.47313">
        <ele>2335</ele>
        <time>2021-08-12T10:36:19.106Z</time>
      </trkpt>
      <trkpt lat="46.84998" lon="8.47313">
        <ele>2334</ele>
        <time>2021-08-12T10:36:20.106Z</time>
      </trkpt>
      <trkpt lat="46.84998" lon="8.47313">
        <ele>2334</ele>
        <time>2021-08-12T10:36:21.106Z</time>
      </trkpt>
      <trkpt lat="46.84998" lon="8.47314">
        <ele>2333</ele>
        <time>2021-08-12T10:36:22.106Z</time>
      </trkpt>
      <trkpt lat="46.84998" lon="8.47314">
        <ele>2333</ele>
        <time>2021-08-12T10:36:23.106Z</time>
      </trkpt>
      <trkpt lat="46.84998" lon="8.47314">
        <ele>2333</ele>
        <time>2021-08-12T10:36:24.106Z</time>
      </trkpt>
      <trkpt lat="46.84998" lon="8.47313">
        <ele>2333</ele>
        <time>2021-08-12T10:36:25.106Z</time>
      </trkpt>
      <trkpt lat="46.84998" lon="8.47313">
        <ele>2334</ele>
        <time>2021-08-12T10:36:26.105Z</time>
      </trkpt>
      <trkpt lat="46.84998" lon="8.47313">
        <ele>2333</ele>
        <time>2021-08-12T10:37:05.243Z</time>
      </trkpt>
      <trkpt lat="46.84998" lon="8.47313">
        <ele>2332</ele>
        <time>2021-08-12T10:37:27.120Z</time>
      </trkpt>
      <trkpt lat="46.84998" lon="8.47307">
        <ele>2331</ele>
        <time>2021-08-12T10:37:28.121Z</time>
      </trkpt>
      <trkpt lat="46.84997" lon="8.47309">
        <ele>2331</ele>
        <time>2021-08-12T10:37:29.120Z</time>
      </trkpt>
      <trkpt lat="46.84997" lon="8.4731">
        <ele>2331</ele>
        <time>2021-08-12T10:37:43.176Z</time>
      </trkpt>
      <trkpt lat="46.84997" lon="8.47311">
        <ele>2332</ele>
        <time>2021-08-12T10:37:44.175Z</time>
      </trkpt>
      <trkpt lat="46.84996" lon="8.47309">
        <ele>2332</ele>
        <time>2021-08-12T10:37:45.176Z</time>
      </trkpt>
      <trkpt lat="46.84997" lon="8.47308">
        <ele>2332</ele>
        <time>2021-08-12T10:37:46.176Z</time>
      </trkpt>
      <trkpt lat="46.84997" lon="8.47307">
        <ele>2332</ele>
        <time>2021-08-12T10:37:47.176Z</time>
      </trkpt>
      <trkpt lat="46.84997" lon="8.47306">
        <ele>2333</ele>
        <time>2021-08-12T10:38:04.314Z</time>
      </trkpt>
      <trkpt lat="46.84997" lon="8.47305">
        <ele>2333</ele>
        <time>2021-08-12T10:38:05.313Z</time>
      </trkpt>
      <trkpt lat="46.84996" lon="8.47304">
        <ele>2333</ele>
        <time>2021-08-12T10:38:06.314Z</time>
      </trkpt>
      <trkpt lat="46.84996" lon="8.47303">
        <ele>2333</ele>
        <time>2021-08-12T10:38:07.314Z</time>
      </trkpt>
      <trkpt lat="46.84996" lon="8.47302">
        <ele>2333</ele>
        <time>2021-08-12T10:38:08.314Z</time>
      </trkpt>
      <trkpt lat="46.84995" lon="8.47301">
        <ele>2333</ele>
        <time>2021-08-12T10:38:09.314Z</time>
      </trkpt>
      <trkpt lat="46.84995" lon="8.473">
        <ele>2333</ele>
        <time>2021-08-12T10:38:10.313Z</time>
      </trkpt>
      <trkpt lat="46.84994" lon="8.473">
        <ele>2332</ele>
        <time>2021-08-12T10:38:11.313Z</time>
      </trkpt>
      <trkpt lat="46.84994" lon="8.47299">
        <ele>2332</ele>
        <time>2021-08-12T10:38:12.314Z</time>
      </trkpt>
      <trkpt lat="46.84994" lon="8.47297">
        <ele>2332</ele>
        <time>2021-08-12T10:38:13.314Z</time>
      </trkpt>
      <trkpt lat="46.84994" lon="8.47296">
        <ele>2332</ele>
        <time>2021-08-12T10:38:20.436Z</time>
      </trkpt>
      <trkpt lat="46.84993" lon="8.47294">
        <ele>2331</ele>
        <time>2021-08-12T10:38:21.437Z</time>
      </trkpt>
      <trkpt lat="46.84993" lon="8.47293">
        <ele>2331</ele>
        <time>2021-08-12T10:38:22.437Z</time>
      </trkpt>
      <trkpt lat="46.84993" lon="8.47292">
        <ele>2332</ele>
        <time>2021-08-12T10:38:23.437Z</time>
      </trkpt>
      <trkpt lat="46.84993" lon="8.4729">
        <ele>2332</ele>
        <time>2021-08-12T10:38:24.436Z</time>
      </trkpt>
      <trkpt lat="46.84992" lon="8.47289">
        <ele>2332</ele>
        <time>2021-08-12T10:38:25.436Z</time>
      </trkpt>
      <trkpt lat="46.84992" lon="8.47288">
        <ele>2332</ele>
        <time>2021-08-12T10:38:26.437Z</time>
      </trkpt>
      <trkpt lat="46.84992" lon="8.47286">
        <ele>2331</ele>
        <time>2021-08-12T10:38:27.437Z</time>
      </trkpt>
      <trkpt lat="46.84991" lon="8.47285">
        <ele>2331</ele>
        <time>2021-08-12T10:38:28.437Z</time>
      </trkpt>
      <trkpt lat="46.84991" lon="8.47284">
        <ele>2331</ele>
        <time>2021-08-12T10:38:29.436Z</time>
      </trkpt>
      <trkpt lat="46.84991" lon="8.47283">
        <ele>2331</ele>
        <time>2021-08-12T10:38:30.437Z</time>
      </trkpt>
      <trkpt lat="46.8499" lon="8.47282">
        <ele>2331</ele>
        <time>2021-08-12T10:38:31.437Z</time>
      </trkpt>
      <trkpt lat="46.8499" lon="8.47281">
        <ele>2331</ele>
        <time>2021-08-12T10:38:32.437Z</time>
      </trkpt>
      <trkpt lat="46.8499" lon="8.4728">
        <ele>2331</ele>
        <time>2021-08-12T10:38:33.436Z</time>
      </trkpt>
      <trkpt lat="46.84989" lon="8.47279">
        <ele>2331</ele>
        <time>2021-08-12T10:38:34.437Z</time>
      </trkpt>
      <trkpt lat="46.84989" lon="8.47277">
        <ele>2331</ele>
        <time>2021-08-12T10:38:38.550Z</time>
      </trkpt>
      <trkpt lat="46.84989" lon="8.47276">
        <ele>2331</ele>
        <time>2021-08-12T10:38:39.549Z</time>
      </trkpt>
      <trkpt lat="46.84989" lon="8.47274">
        <ele>2330</ele>
        <time>2021-08-12T10:38:40.549Z</time>
      </trkpt>
      <trkpt lat="46.84989" lon="8.47273">
        <ele>2330</ele>
        <time>2021-08-12T10:38:41.550Z</time>
      </trkpt>
      <trkpt lat="46.84989" lon="8.47271">
        <ele>2330</ele>
        <time>2021-08-12T10:38:42.550Z</time>
      </trkpt>
      <trkpt lat="46.84989" lon="8.4727">
        <ele>2330</ele>
        <time>2021-08-12T10:38:43.550Z</time>
      </trkpt>
      <trkpt lat="46.84989" lon="8.47269">
        <ele>2329</ele>
        <time>2021-08-12T10:38:44.550Z</time>
      </trkpt>
      <trkpt lat="46.84989" lon="8.47268">
        <ele>2329</ele>
        <time>2021-08-12T10:38:56.710Z</time>
      </trkpt>
      <trkpt lat="46.84988" lon="8.47268">
        <ele>2329</ele>
        <time>2021-08-12T10:38:57.711Z</time>
      </trkpt>
      <trkpt lat="46.84987" lon="8.47268">
        <ele>2329</ele>
        <time>2021-08-12T10:38:58.711Z</time>
      </trkpt>
      <trkpt lat="46.84987" lon="8.47268">
        <ele>2330</ele>
        <time>2021-08-12T10:38:59.711Z</time>
      </trkpt>
      <trkpt lat="46.84986" lon="8.47269">
        <ele>2330</ele>
        <time>2021-08-12T10:39:10.824Z</time>
      </trkpt>
      <trkpt lat="46.84986" lon="8.47267">
        <ele>2331</ele>
        <time>2021-08-12T10:39:18.679Z</time>
      </trkpt>
      <trkpt lat="46.84985" lon="8.47265">
        <ele>2331</ele>
        <time>2021-08-12T10:39:19.678Z</time>
      </trkpt>
      <trkpt lat="46.84984" lon="8.47264">
        <ele>2331</ele>
        <time>2021-08-12T10:39:21.537Z</time>
      </trkpt>
      <trkpt lat="46.84984" lon="8.47263">
        <ele>2331</ele>
        <time>2021-08-12T10:39:22.537Z</time>
      </trkpt>
      <trkpt lat="46.84983" lon="8.47262">
        <ele>2331</ele>
        <time>2021-08-12T10:39:23.537Z</time>
      </trkpt>
      <trkpt lat="46.84983" lon="8.47261">
        <ele>2331</ele>
        <time>2021-08-12T10:39:24.537Z</time>
      </trkpt>
      <trkpt lat="46.84982" lon="8.47259">
        <ele>2331</ele>
        <time>2021-08-12T10:39:25.537Z</time>
      </trkpt>
      <trkpt lat="46.84982" lon="8.47257">
        <ele>2332</ele>
        <time>2021-08-12T10:39:26.536Z</time>
      </trkpt>
      <trkpt lat="46.84982" lon="8.47255">
        <ele>2332</ele>
        <time>2021-08-12T10:39:27.536Z</time>
      </trkpt>
      <trkpt lat="46.84982" lon="8.47254">
        <ele>2332</ele>
        <time>2021-08-12T10:39:28.537Z</time>
      </trkpt>
      <trkpt lat="46.84981" lon="8.47253">
        <ele>2332</ele>
        <time>2021-08-12T10:39:32.564Z</time>
      </trkpt>
      <trkpt lat="46.84981" lon="8.47252">
        <ele>2332</ele>
        <time>2021-08-12T10:39:41.426Z</time>
      </trkpt>
      <trkpt lat="46.84981" lon="8.47251">
        <ele>2332</ele>
        <time>2021-08-12T10:39:59.357Z</time>
      </trkpt>
      <trkpt lat="46.84981" lon="8.4725">
        <ele>2333</ele>
        <time>2021-08-12T10:40:00.358Z</time>
      </trkpt>
      <trkpt lat="46.84981" lon="8.4725">
        <ele>2333</ele>
        <time>2021-08-12T10:40:01.358Z</time>
      </trkpt>
      <trkpt lat="46.8498" lon="8.47249">
        <ele>2333</ele>
        <time>2021-08-12T10:40:02.358Z</time>
      </trkpt>
      <trkpt lat="46.8498" lon="8.47247">
        <ele>2332</ele>
        <time>2021-08-12T10:40:03.357Z</time>
      </trkpt>
      <trkpt lat="46.8498" lon="8.47246">
        <ele>2332</ele>
        <time>2021-08-12T10:40:04.358Z</time>
      </trkpt>
      <trkpt lat="46.84979" lon="8.47245">
        <ele>2332</ele>
        <time>2021-08-12T10:40:05.358Z</time>
      </trkpt>
      <trkpt lat="46.84979" lon="8.47244">
        <ele>2332</ele>
        <time>2021-08-12T10:40:06.358Z</time>
      </trkpt>
      <trkpt lat="46.84978" lon="8.47243">
        <ele>2332</ele>
        <time>2021-08-12T10:40:07.357Z</time>
      </trkpt>
      <trkpt lat="46.84977" lon="8.47242">
        <ele>2332</ele>
        <time>2021-08-12T10:40:08.358Z</time>
      </trkpt>
      <trkpt lat="46.84977" lon="8.47241">
        <ele>2333</ele>
        <time>2021-08-12T10:40:09.358Z</time>
      </trkpt>
      <trkpt lat="46.84976" lon="8.4724">
        <ele>2333</ele>
        <time>2021-08-12T10:40:10.357Z</time>
      </trkpt>
      <trkpt lat="46.84976" lon="8.47238">
        <ele>2333</ele>
        <time>2021-08-12T10:40:11.357Z</time>
      </trkpt>
      <trkpt lat="46.84976" lon="8.47237">
        <ele>2334</ele>
        <time>2021-08-12T10:40:12.358Z</time>
      </trkpt>
      <trkpt lat="46.84975" lon="8.47235">
        <ele>2334</ele>
        <time>2021-08-12T10:40:13.358Z</time>
      </trkpt>
      <trkpt lat="46.84975" lon="8.47234">
        <ele>2335</ele>
        <time>2021-08-12T10:40:14.357Z</time>
      </trkpt>
      <trkpt lat="46.84974" lon="8.47232">
        <ele>2335</ele>
        <time>2021-08-12T10:40:15.357Z</time>
      </trkpt>
      <trkpt lat="46.84973" lon="8.47231">
        <ele>2336</ele>
        <time>2021-08-12T10:40:16.358Z</time>
      </trkpt>
      <trkpt lat="46.84972" lon="8.4723">
        <ele>2336</ele>
        <time>2021-08-12T10:40:17.357Z</time>
      </trkpt>
      <trkpt lat="46.84971" lon="8.47229">
        <ele>2336</ele>
        <time>2021-08-12T10:40:18.358Z</time>
      </trkpt>
      <trkpt lat="46.84971" lon="8.47228">
        <ele>2336</ele>
        <time>2021-08-12T10:40:19.358Z</time>
      </trkpt>
      <trkpt lat="46.84969" lon="8.47226">
        <ele>2336</ele>
        <time>2021-08-12T10:40:20.358Z</time>
      </trkpt>
      <trkpt lat="46.84969" lon="8.47225">
        <ele>2336</ele>
        <time>2021-08-12T10:40:21.357Z</time>
      </trkpt>
      <trkpt lat="46.84968" lon="8.47224">
        <ele>2335</ele>
        <time>2021-08-12T10:40:22.358Z</time>
      </trkpt>
      <trkpt lat="46.84968" lon="8.47223">
        <ele>2335</ele>
        <time>2021-08-12T10:40:23.358Z</time>
      </trkpt>
      <trkpt lat="46.84967" lon="8.47223">
        <ele>2335</ele>
        <time>2021-08-12T10:40:24.357Z</time>
      </trkpt>
      <trkpt lat="46.84967" lon="8.47223">
        <ele>2335</ele>
        <time>2021-08-12T10:40:25.358Z</time>
      </trkpt>
      <trkpt lat="46.84967" lon="8.47223">
        <ele>2334</ele>
        <time>2021-08-12T10:40:26.358Z</time>
      </trkpt>
      <trkpt lat="46.84966" lon="8.47221">
        <ele>2334</ele>
        <time>2021-08-12T10:40:27.358Z</time>
      </trkpt>
      <trkpt lat="46.84966" lon="8.4722">
        <ele>2334</ele>
        <time>2021-08-12T10:40:28.358Z</time>
      </trkpt>
      <trkpt lat="46.84966" lon="8.47219">
        <ele>2334</ele>
        <time>2021-08-12T10:40:29.358Z</time>
      </trkpt>
      <trkpt lat="46.84965" lon="8.47219">
        <ele>2334</ele>
        <time>2021-08-12T10:40:30.357Z</time>
      </trkpt>
      <trkpt lat="46.84965" lon="8.47217">
        <ele>2334</ele>
        <time>2021-08-12T10:40:31.358Z</time>
      </trkpt>
      <trkpt lat="46.84964" lon="8.47216">
        <ele>2335</ele>
        <time>2021-08-12T10:40:32.358Z</time>
      </trkpt>
      <trkpt lat="46.84964" lon="8.47215">
        <ele>2335</ele>
        <time>2021-08-12T10:40:50.445Z</time>
      </trkpt>
      <trkpt lat="46.84964" lon="8.47214">
        <ele>2335</ele>
        <time>2021-08-12T10:40:51.444Z</time>
      </trkpt>
      <trkpt lat="46.84964" lon="8.47212">
        <ele>2335</ele>
        <time>2021-08-12T10:40:52.445Z</time>
      </trkpt>
      <trkpt lat="46.84964" lon="8.47211">
        <ele>2335</ele>
        <time>2021-08-12T10:40:53.445Z</time>
      </trkpt>
      <trkpt lat="46.84964" lon="8.4721">
        <ele>2335</ele>
        <time>2021-08-12T10:40:54.445Z</time>
      </trkpt>
      <trkpt lat="46.84963" lon="8.47209">
        <ele>2335</ele>
        <time>2021-08-12T10:40:55.444Z</time>
      </trkpt>
      <trkpt lat="46.84963" lon="8.47208">
        <ele>2334</ele>
        <time>2021-08-12T10:40:58.446Z</time>
      </trkpt>
      <trkpt lat="46.84962" lon="8.47206">
        <ele>2334</ele>
        <time>2021-08-12T10:40:59.446Z</time>
      </trkpt>
      <trkpt lat="46.84962" lon="8.47205">
        <ele>2334</ele>
        <time>2021-08-12T10:41:00.445Z</time>
      </trkpt>
      <trkpt lat="46.84962" lon="8.47204">
        <ele>2334</ele>
        <time>2021-08-12T10:41:58.551Z</time>
      </trkpt>
      <trkpt lat="46.84962" lon="8.47203">
        <ele>2334</ele>
        <time>2021-08-12T10:42:07.447Z</time>
      </trkpt>
      <trkpt lat="46.84961" lon="8.47201">
        <ele>2333</ele>
        <time>2021-08-12T10:42:08.446Z</time>
      </trkpt>
      <trkpt lat="46.84961" lon="8.472">
        <ele>2333</ele>
        <time>2021-08-12T10:42:09.447Z</time>
      </trkpt>
      <trkpt lat="46.84961" lon="8.47198">
        <ele>2332</ele>
        <time>2021-08-12T10:42:10.446Z</time>
      </trkpt>
      <trkpt lat="46.8496" lon="8.47196">
        <ele>2330</ele>
        <time>2021-08-12T10:42:11.446Z</time>
      </trkpt>
      <trkpt lat="46.8496" lon="8.47195">
        <ele>2329</ele>
        <time>2021-08-12T10:42:29.462Z</time>
      </trkpt>
      <trkpt lat="46.84959" lon="8.47193">
        <ele>2329</ele>
        <time>2021-08-12T10:42:30.463Z</time>
      </trkpt>
      <trkpt lat="46.84959" lon="8.47192">
        <ele>2328</ele>
        <time>2021-08-12T10:42:31.463Z</time>
      </trkpt>
      <trkpt lat="46.84959" lon="8.4719">
        <ele>2327</ele>
        <time>2021-08-12T10:42:32.463Z</time>
      </trkpt>
      <trkpt lat="46.84958" lon="8.47189">
        <ele>2326</ele>
        <time>2021-08-12T10:42:33.462Z</time>
      </trkpt>
      <trkpt lat="46.84958" lon="8.47187">
        <ele>2326</ele>
        <time>2021-08-12T10:42:34.463Z</time>
      </trkpt>
      <trkpt lat="46.84957" lon="8.47187">
        <ele>2326</ele>
        <time>2021-08-12T10:42:35.463Z</time>
      </trkpt>
      <trkpt lat="46.84957" lon="8.47187">
        <ele>2325</ele>
        <time>2021-08-12T10:42:36.462Z</time>
      </trkpt>
      <trkpt lat="46.84956" lon="8.47185">
        <ele>2325</ele>
        <time>2021-08-12T10:42:42.551Z</time>
      </trkpt>
      <trkpt lat="46.84956" lon="8.47183">
        <ele>2325</ele>
        <time>2021-08-12T10:42:43.551Z</time>
      </trkpt>
      <trkpt lat="46.84955" lon="8.47182">
        <ele>2325</ele>
        <time>2021-08-12T10:42:44.551Z</time>
      </trkpt>
      <trkpt lat="46.84955" lon="8.4718">
        <ele>2326</ele>
        <time>2021-08-12T10:42:45.550Z</time>
      </trkpt>
      <trkpt lat="46.84954" lon="8.47179">
        <ele>2326</ele>
        <time>2021-08-12T10:42:46.550Z</time>
      </trkpt>
      <trkpt lat="46.84954" lon="8.47177">
        <ele>2326</ele>
        <time>2021-08-12T10:42:47.551Z</time>
      </trkpt>
      <trkpt lat="46.84953" lon="8.47175">
        <ele>2326</ele>
        <time>2021-08-12T10:43:08.560Z</time>
      </trkpt>
      <trkpt lat="46.84953" lon="8.47174">
        <ele>2326</ele>
        <time>2021-08-12T10:43:09.561Z</time>
      </trkpt>
      <trkpt lat="46.84953" lon="8.47172">
        <ele>2326</ele>
        <time>2021-08-12T10:43:10.560Z</time>
      </trkpt>
      <trkpt lat="46.84952" lon="8.47171">
        <ele>2325</ele>
        <time>2021-08-12T10:43:11.561Z</time>
      </trkpt>
      <trkpt lat="46.84951" lon="8.47169">
        <ele>2325</ele>
        <time>2021-08-12T10:43:12.560Z</time>
      </trkpt>
      <trkpt lat="46.8495" lon="8.47168">
        <ele>2324</ele>
        <time>2021-08-12T10:43:13.560Z</time>
      </trkpt>
      <trkpt lat="46.84949" lon="8.47167">
        <ele>2324</ele>
        <time>2021-08-12T10:43:14.560Z</time>
      </trkpt>
      <trkpt lat="46.84949" lon="8.47166">
        <ele>2324</ele>
        <time>2021-08-12T10:43:15.561Z</time>
      </trkpt>
      <trkpt lat="46.84948" lon="8.47164">
        <ele>2324</ele>
        <time>2021-08-12T10:43:16.561Z</time>
      </trkpt>
      <trkpt lat="46.84948" lon="8.47163">
        <ele>2324</ele>
        <time>2021-08-12T10:43:17.560Z</time>
      </trkpt>
      <trkpt lat="46.84948" lon="8.47161">
        <ele>2324</ele>
        <time>2021-08-12T10:43:18.560Z</time>
      </trkpt>
      <trkpt lat="46.84947" lon="8.4716">
        <ele>2324</ele>
        <time>2021-08-12T10:43:19.560Z</time>
      </trkpt>
      <trkpt lat="46.84947" lon="8.47159">
        <ele>2324</ele>
        <time>2021-08-12T10:43:20.561Z</time>
      </trkpt>
      <trkpt lat="46.84946" lon="8.47159">
        <ele>2324</ele>
        <time>2021-08-12T10:43:23.585Z</time>
      </trkpt>
      <trkpt lat="46.84945" lon="8.47158">
        <ele>2324</ele>
        <time>2021-08-12T10:43:24.585Z</time>
      </trkpt>
      <trkpt lat="46.84944" lon="8.47157">
        <ele>2324</ele>
        <time>2021-08-12T10:43:38.436Z</time>
      </trkpt>
      <trkpt lat="46.84943" lon="8.47155">
        <ele>2324</ele>
        <time>2021-08-12T10:43:39.436Z</time>
      </trkpt>
      <trkpt lat="46.84943" lon="8.47154">
        <ele>2324</ele>
        <time>2021-08-12T10:43:52.294Z</time>
      </trkpt>
      <trkpt lat="46.84943" lon="8.47153">
        <ele>2324</ele>
        <time>2021-08-12T10:44:14.063Z</time>
      </trkpt>
      <trkpt lat="46.84942" lon="8.47153">
        <ele>2324</ele>
        <time>2021-08-12T10:44:15.063Z</time>
      </trkpt>
      <trkpt lat="46.84942" lon="8.47152">
        <ele>2325</ele>
        <time>2021-08-12T10:44:16.063Z</time>
      </trkpt>
      <trkpt lat="46.84941" lon="8.47151">
        <ele>2325</ele>
        <time>2021-08-12T10:44:37.922Z</time>
      </trkpt>
      <trkpt lat="46.8494" lon="8.47151">
        <ele>2326</ele>
        <time>2021-08-12T10:44:38.922Z</time>
      </trkpt>
      <trkpt lat="46.84939" lon="8.4715">
        <ele>2326</ele>
        <time>2021-08-12T10:44:45.685Z</time>
      </trkpt>
      <trkpt lat="46.84939" lon="8.47149">
        <ele>2327</ele>
        <time>2021-08-12T10:44:46.685Z</time>
      </trkpt>
      <trkpt lat="46.84938" lon="8.47149">
        <ele>2327</ele>
        <time>2021-08-12T10:44:47.685Z</time>
      </trkpt>
      <trkpt lat="46.84938" lon="8.47148">
        <ele>2327</ele>
        <time>2021-08-12T10:44:48.685Z</time>
      </trkpt>
      <trkpt lat="46.84937" lon="8.47148">
        <ele>2327</ele>
        <time>2021-08-12T10:44:49.685Z</time>
      </trkpt>
      <trkpt lat="46.84937" lon="8.47146">
        <ele>2327</ele>
        <time>2021-08-12T10:44:50.684Z</time>
      </trkpt>
      <trkpt lat="46.84937" lon="8.47145">
        <ele>2327</ele>
        <time>2021-08-12T10:44:51.685Z</time>
      </trkpt>
      <trkpt lat="46.84936" lon="8.47144">
        <ele>2327</ele>
        <time>2021-08-12T10:44:52.685Z</time>
      </trkpt>
      <trkpt lat="46.84936" lon="8.47142">
        <ele>2326</ele>
        <time>2021-08-12T10:44:53.685Z</time>
      </trkpt>
      <trkpt lat="46.84936" lon="8.47141">
        <ele>2326</ele>
        <time>2021-08-12T10:44:54.685Z</time>
      </trkpt>
      <trkpt lat="46.84936" lon="8.47139">
        <ele>2326</ele>
        <time>2021-08-12T10:44:55.684Z</time>
      </trkpt>
      <trkpt lat="46.84935" lon="8.47138">
        <ele>2326</ele>
        <time>2021-08-12T10:44:56.684Z</time>
      </trkpt>
      <trkpt lat="46.84934" lon="8.47136">
        <ele>2326</ele>
        <time>2021-08-12T10:44:57.685Z</time>
      </trkpt>
      <trkpt lat="46.84934" lon="8.47135">
        <ele>2326</ele>
        <time>2021-08-12T10:44:58.685Z</time>
      </trkpt>
      <trkpt lat="46.84933" lon="8.47134">
        <ele>2326</ele>
        <time>2021-08-12T10:44:59.685Z</time>
      </trkpt>
      <trkpt lat="46.84931" lon="8.47133">
        <ele>2326</ele>
        <time>2021-08-12T10:45:00.684Z</time>
      </trkpt>
      <trkpt lat="46.84931" lon="8.47132">
        <ele>2326</ele>
        <time>2021-08-12T10:45:01.685Z</time>
      </trkpt>
      <trkpt lat="46.8493" lon="8.47132">
        <ele>2326</ele>
        <time>2021-08-12T10:45:02.684Z</time>
      </trkpt>
      <trkpt lat="46.84929" lon="8.47131">
        <ele>2326</ele>
        <time>2021-08-12T10:45:03.684Z</time>
      </trkpt>
      <trkpt lat="46.84928" lon="8.4713">
        <ele>2325</ele>
        <time>2021-08-12T10:45:04.685Z</time>
      </trkpt>
      <trkpt lat="46.84926" lon="8.4713">
        <ele>2324</ele>
        <time>2021-08-12T10:45:05.685Z</time>
      </trkpt>
      <trkpt lat="46.84925" lon="8.4713">
        <ele>2324</ele>
        <time>2021-08-12T10:45:06.685Z</time>
      </trkpt>
      <trkpt lat="46.84924" lon="8.47128">
        <ele>2324</ele>
        <time>2021-08-12T10:45:07.685Z</time>
      </trkpt>
      <trkpt lat="46.84923" lon="8.47127">
        <ele>2323</ele>
        <time>2021-08-12T10:45:08.685Z</time>
      </trkpt>
      <trkpt lat="46.84922" lon="8.47126">
        <ele>2323</ele>
        <time>2021-08-12T10:45:09.684Z</time>
      </trkpt>
      <trkpt lat="46.84922" lon="8.47124">
        <ele>2323</ele>
        <time>2021-08-12T10:45:10.685Z</time>
      </trkpt>
      <trkpt lat="46.84922" lon="8.47122">
        <ele>2323</ele>
        <time>2021-08-12T10:45:11.684Z</time>
      </trkpt>
      <trkpt lat="46.84921" lon="8.47121">
        <ele>2323</ele>
        <time>2021-08-12T10:45:12.685Z</time>
      </trkpt>
      <trkpt lat="46.84921" lon="8.4712">
        <ele>2322</ele>
        <time>2021-08-12T10:45:13.685Z</time>
      </trkpt>
      <trkpt lat="46.84922" lon="8.47118">
        <ele>2322</ele>
        <time>2021-08-12T10:45:14.684Z</time>
      </trkpt>
      <trkpt lat="46.84922" lon="8.47116">
        <ele>2322</ele>
        <time>2021-08-12T10:45:15.685Z</time>
      </trkpt>
      <trkpt lat="46.84921" lon="8.47115">
        <ele>2322</ele>
        <time>2021-08-12T10:45:16.685Z</time>
      </trkpt>
      <trkpt lat="46.84921" lon="8.47113">
        <ele>2322</ele>
        <time>2021-08-12T10:45:17.684Z</time>
      </trkpt>
      <trkpt lat="46.84921" lon="8.47112">
        <ele>2322</ele>
        <time>2021-08-12T10:45:18.685Z</time>
      </trkpt>
      <trkpt lat="46.84921" lon="8.4711">
        <ele>2322</ele>
        <time>2021-08-12T10:45:19.685Z</time>
      </trkpt>
      <trkpt lat="46.84921" lon="8.47108">
        <ele>2321</ele>
        <time>2021-08-12T10:45:20.685Z</time>
      </trkpt>
      <trkpt lat="46.84921" lon="8.47107">
        <ele>2321</ele>
        <time>2021-08-12T10:45:21.684Z</time>
      </trkpt>
      <trkpt lat="46.84921" lon="8.47105">
        <ele>2321</ele>
        <time>2021-08-12T10:45:22.684Z</time>
      </trkpt>
      <trkpt lat="46.8492" lon="8.47103">
        <ele>2321</ele>
        <time>2021-08-12T10:45:23.684Z</time>
      </trkpt>
      <trkpt lat="46.8492" lon="8.47102">
        <ele>2321</ele>
        <time>2021-08-12T10:45:24.685Z</time>
      </trkpt>
      <trkpt lat="46.8492" lon="8.471">
        <ele>2321</ele>
        <time>2021-08-12T10:45:25.685Z</time>
      </trkpt>
      <trkpt lat="46.8492" lon="8.47099">
        <ele>2321</ele>
        <time>2021-08-12T10:45:26.685Z</time>
      </trkpt>
      <trkpt lat="46.8492" lon="8.47098">
        <ele>2321</ele>
        <time>2021-08-12T10:45:27.685Z</time>
      </trkpt>
      <trkpt lat="46.84919" lon="8.47097">
        <ele>2321</ele>
        <time>2021-08-12T10:45:28.685Z</time>
      </trkpt>
      <trkpt lat="46.84919" lon="8.47096">
        <ele>2321</ele>
        <time>2021-08-12T10:45:29.685Z</time>
      </trkpt>
      <trkpt lat="46.84919" lon="8.47094">
        <ele>2321</ele>
        <time>2021-08-12T10:45:30.684Z</time>
      </trkpt>
      <trkpt lat="46.84918" lon="8.47093">
        <ele>2321</ele>
        <time>2021-08-12T10:45:31.684Z</time>
      </trkpt>
      <trkpt lat="46.84918" lon="8.47092">
        <ele>2321</ele>
        <time>2021-08-12T10:45:32.684Z</time>
      </trkpt>
      <trkpt lat="46.84918" lon="8.47091">
        <ele>2321</ele>
        <time>2021-08-12T10:45:33.684Z</time>
      </trkpt>
      <trkpt lat="46.84917" lon="8.4709">
        <ele>2321</ele>
        <time>2021-08-12T10:45:34.684Z</time>
      </trkpt>
      <trkpt lat="46.84916" lon="8.47089">
        <ele>2321</ele>
        <time>2021-08-12T10:45:35.685Z</time>
      </trkpt>
      <trkpt lat="46.84915" lon="8.47088">
        <ele>2320</ele>
        <time>2021-08-12T10:45:36.684Z</time>
      </trkpt>
      <trkpt lat="46.84914" lon="8.47087">
        <ele>2320</ele>
        <time>2021-08-12T10:45:37.684Z</time>
      </trkpt>
      <trkpt lat="46.84913" lon="8.47086">
        <ele>2321</ele>
        <time>2021-08-12T10:45:38.685Z</time>
      </trkpt>
      <trkpt lat="46.84912" lon="8.47085">
        <ele>2321</ele>
        <time>2021-08-12T10:45:39.684Z</time>
      </trkpt>
      <trkpt lat="46.84912" lon="8.47083">
        <ele>2321</ele>
        <time>2021-08-12T10:45:40.684Z</time>
      </trkpt>
      <trkpt lat="46.84912" lon="8.47082">
        <ele>2322</ele>
        <time>2021-08-12T10:45:41.684Z</time>
      </trkpt>
      <trkpt lat="46.84911" lon="8.47081">
        <ele>2322</ele>
        <time>2021-08-12T10:45:42.684Z</time>
      </trkpt>
      <trkpt lat="46.84911" lon="8.47079">
        <ele>2323</ele>
        <time>2021-08-12T10:45:43.685Z</time>
      </trkpt>
      <trkpt lat="46.8491" lon="8.47078">
        <ele>2323</ele>
        <time>2021-08-12T10:45:44.685Z</time>
      </trkpt>
      <trkpt lat="46.84909" lon="8.47077">
        <ele>2323</ele>
        <time>2021-08-12T10:45:45.685Z</time>
      </trkpt>
      <trkpt lat="46.84908" lon="8.47076">
        <ele>2323</ele>
        <time>2021-08-12T10:45:46.685Z</time>
      </trkpt>
      <trkpt lat="46.84907" lon="8.47075">
        <ele>2323</ele>
        <time>2021-08-12T10:45:47.685Z</time>
      </trkpt>
      <trkpt lat="46.84906" lon="8.47075">
        <ele>2323</ele>
        <time>2021-08-12T10:45:48.685Z</time>
      </trkpt>
      <trkpt lat="46.84905" lon="8.47074">
        <ele>2323</ele>
        <time>2021-08-12T10:45:49.684Z</time>
      </trkpt>
      <trkpt lat="46.84903" lon="8.47073">
        <ele>2323</ele>
        <time>2021-08-12T10:45:50.684Z</time>
      </trkpt>
      <trkpt lat="46.84902" lon="8.47072">
        <ele>2323</ele>
        <time>2021-08-12T10:45:51.685Z</time>
      </trkpt>
      <trkpt lat="46.84901" lon="8.47071">
        <ele>2323</ele>
        <time>2021-08-12T10:45:52.685Z</time>
      </trkpt>
      <trkpt lat="46.849" lon="8.4707">
        <ele>2323</ele>
        <time>2021-08-12T10:45:53.685Z</time>
      </trkpt>
      <trkpt lat="46.84899" lon="8.47068">
        <ele>2322</ele>
        <time>2021-08-12T10:45:54.684Z</time>
      </trkpt>
      <trkpt lat="46.84898" lon="8.47067">
        <ele>2322</ele>
        <time>2021-08-12T10:45:55.685Z</time>
      </trkpt>
      <trkpt lat="46.84898" lon="8.47066">
        <ele>2321</ele>
        <time>2021-08-12T10:45:56.684Z</time>
      </trkpt>
      <trkpt lat="46.84897" lon="8.47064">
        <ele>2321</ele>
        <time>2021-08-12T10:45:57.685Z</time>
      </trkpt>
      <trkpt lat="46.84896" lon="8.47063">
        <ele>2321</ele>
        <time>2021-08-12T10:45:58.684Z</time>
      </trkpt>
      <trkpt lat="46.84896" lon="8.47062">
        <ele>2320</ele>
        <time>2021-08-12T10:45:59.685Z</time>
      </trkpt>
      <trkpt lat="46.84895" lon="8.47061">
        <ele>2320</ele>
        <time>2021-08-12T10:46:00.685Z</time>
      </trkpt>
      <trkpt lat="46.84894" lon="8.4706">
        <ele>2319</ele>
        <time>2021-08-12T10:46:01.685Z</time>
      </trkpt>
      <trkpt lat="46.84893" lon="8.47058">
        <ele>2320</ele>
        <time>2021-08-12T10:46:02.685Z</time>
      </trkpt>
      <trkpt lat="46.84893" lon="8.47057">
        <ele>2320</ele>
        <time>2021-08-12T10:46:03.684Z</time>
      </trkpt>
      <trkpt lat="46.84892" lon="8.47056">
        <ele>2320</ele>
        <time>2021-08-12T10:46:04.685Z</time>
      </trkpt>
      <trkpt lat="46.84891" lon="8.47055">
        <ele>2320</ele>
        <time>2021-08-12T10:46:05.684Z</time>
      </trkpt>
      <trkpt lat="46.8489" lon="8.47054">
        <ele>2320</ele>
        <time>2021-08-12T10:46:06.684Z</time>
      </trkpt>
      <trkpt lat="46.8489" lon="8.47052">
        <ele>2320</ele>
        <time>2021-08-12T10:46:07.685Z</time>
      </trkpt>
      <trkpt lat="46.84889" lon="8.47051">
        <ele>2320</ele>
        <time>2021-08-12T10:46:08.684Z</time>
      </trkpt>
      <trkpt lat="46.84888" lon="8.47051">
        <ele>2320</ele>
        <time>2021-08-12T10:46:09.684Z</time>
      </trkpt>
      <trkpt lat="46.84888" lon="8.47049">
        <ele>2319</ele>
        <time>2021-08-12T10:46:10.684Z</time>
      </trkpt>
      <trkpt lat="46.84887" lon="8.47048">
        <ele>2318</ele>
        <time>2021-08-12T10:46:11.685Z</time>
      </trkpt>
      <trkpt lat="46.84886" lon="8.47047">
        <ele>2318</ele>
        <time>2021-08-12T10:46:12.684Z</time>
      </trkpt>
      <trkpt lat="46.84886" lon="8.47045">
        <ele>2318</ele>
        <time>2021-08-12T10:46:13.684Z</time>
      </trkpt>
      <trkpt lat="46.84885" lon="8.47044">
        <ele>2318</ele>
        <time>2021-08-12T10:46:14.685Z</time>
      </trkpt>
      <trkpt lat="46.84884" lon="8.47042">
        <ele>2318</ele>
        <time>2021-08-12T10:46:15.685Z</time>
      </trkpt>
      <trkpt lat="46.84884" lon="8.47041">
        <ele>2318</ele>
        <time>2021-08-12T10:46:16.685Z</time>
      </trkpt>
      <trkpt lat="46.84883" lon="8.47039">
        <ele>2318</ele>
        <time>2021-08-12T10:46:17.685Z</time>
      </trkpt>
      <trkpt lat="46.84883" lon="8.47038">
        <ele>2317</ele>
        <time>2021-08-12T10:46:18.685Z</time>
      </trkpt>
      <trkpt lat="46.84883" lon="8.47036">
        <ele>2317</ele>
        <time>2021-08-12T10:46:19.685Z</time>
      </trkpt>
      <trkpt lat="46.84883" lon="8.47034">
        <ele>2317</ele>
        <time>2021-08-12T10:46:20.685Z</time>
      </trkpt>
      <trkpt lat="46.84883" lon="8.47032">
        <ele>2317</ele>
        <time>2021-08-12T10:46:21.685Z</time>
      </trkpt>
      <trkpt lat="46.84883" lon="8.4703">
        <ele>2317</ele>
        <time>2021-08-12T10:46:23.833Z</time>
      </trkpt>
      <trkpt lat="46.84883" lon="8.47028">
        <ele>2318</ele>
        <time>2021-08-12T10:46:24.833Z</time>
      </trkpt>
      <trkpt lat="46.84883" lon="8.47027">
        <ele>2318</ele>
        <time>2021-08-12T10:46:25.832Z</time>
      </trkpt>
      <trkpt lat="46.84882" lon="8.47025">
        <ele>2318</ele>
        <time>2021-08-12T10:46:26.833Z</time>
      </trkpt>
      <trkpt lat="46.84882" lon="8.47024">
        <ele>2318</ele>
        <time>2021-08-12T10:46:27.833Z</time>
      </trkpt>
      <trkpt lat="46.84882" lon="8.47022">
        <ele>2318</ele>
        <time>2021-08-12T10:46:28.832Z</time>
      </trkpt>
      <trkpt lat="46.84881" lon="8.4702">
        <ele>2318</ele>
        <time>2021-08-12T10:46:29.833Z</time>
      </trkpt>
      <trkpt lat="46.84881" lon="8.47018">
        <ele>2318</ele>
        <time>2021-08-12T10:46:30.833Z</time>
      </trkpt>
      <trkpt lat="46.84881" lon="8.47016">
        <ele>2318</ele>
        <time>2021-08-12T10:46:31.833Z</time>
      </trkpt>
      <trkpt lat="46.84881" lon="8.47015">
        <ele>2318</ele>
        <time>2021-08-12T10:46:32.832Z</time>
      </trkpt>
      <trkpt lat="46.8488" lon="8.47012">
        <ele>2319</ele>
        <time>2021-08-12T10:46:33.833Z</time>
      </trkpt>
      <trkpt lat="46.84879" lon="8.47011">
        <ele>2319</ele>
        <time>2021-08-12T10:46:34.833Z</time>
      </trkpt>
      <trkpt lat="46.84878" lon="8.47009">
        <ele>2319</ele>
        <time>2021-08-12T10:46:35.832Z</time>
      </trkpt>
      <trkpt lat="46.84878" lon="8.47007">
        <ele>2319</ele>
        <time>2021-08-12T10:46:36.833Z</time>
      </trkpt>
      <trkpt lat="46.84877" lon="8.47005">
        <ele>2318</ele>
        <time>2021-08-12T10:46:37.833Z</time>
      </trkpt>
      <trkpt lat="46.84877" lon="8.47004">
        <ele>2318</ele>
        <time>2021-08-12T10:46:38.833Z</time>
      </trkpt>
      <trkpt lat="46.84876" lon="8.47002">
        <ele>2318</ele>
        <time>2021-08-12T10:46:39.833Z</time>
      </trkpt>
      <trkpt lat="46.84876" lon="8.47">
        <ele>2318</ele>
        <time>2021-08-12T10:46:40.832Z</time>
      </trkpt>
      <trkpt lat="46.84876" lon="8.46998">
        <ele>2319</ele>
        <time>2021-08-12T10:46:41.833Z</time>
      </trkpt>
      <trkpt lat="46.84875" lon="8.46996">
        <ele>2319</ele>
        <time>2021-08-12T10:46:49.941Z</time>
      </trkpt>
      <trkpt lat="46.84875" lon="8.46995">
        <ele>2319</ele>
        <time>2021-08-12T10:46:50.942Z</time>
      </trkpt>
      <trkpt lat="46.84874" lon="8.46993">
        <ele>2319</ele>
        <time>2021-08-12T10:46:51.942Z</time>
      </trkpt>
      <trkpt lat="46.84874" lon="8.46992">
        <ele>2318</ele>
        <time>2021-08-12T10:46:52.941Z</time>
      </trkpt>
      <trkpt lat="46.84873" lon="8.4699">
        <ele>2318</ele>
        <time>2021-08-12T10:46:53.942Z</time>
      </trkpt>
      <trkpt lat="46.84873" lon="8.46989">
        <ele>2317</ele>
        <time>2021-08-12T10:46:54.941Z</time>
      </trkpt>
      <trkpt lat="46.84873" lon="8.46987">
        <ele>2317</ele>
        <time>2021-08-12T10:46:55.942Z</time>
      </trkpt>
      <trkpt lat="46.84873" lon="8.46986">
        <ele>2317</ele>
        <time>2021-08-12T10:46:56.941Z</time>
      </trkpt>
      <trkpt lat="46.84873" lon="8.46984">
        <ele>2317</ele>
        <time>2021-08-12T10:46:57.942Z</time>
      </trkpt>
      <trkpt lat="46.84872" lon="8.46983">
        <ele>2317</ele>
        <time>2021-08-12T10:47:26.077Z</time>
      </trkpt>
      <trkpt lat="46.84872" lon="8.46981">
        <ele>2317</ele>
        <time>2021-08-12T10:47:27.077Z</time>
      </trkpt>
      <trkpt lat="46.84872" lon="8.4698">
        <ele>2317</ele>
        <time>2021-08-12T10:47:28.077Z</time>
      </trkpt>
      <trkpt lat="46.84872" lon="8.46978">
        <ele>2317</ele>
        <time>2021-08-12T10:47:29.078Z</time>
      </trkpt>
      <trkpt lat="46.84872" lon="8.46977">
        <ele>2316</ele>
        <time>2021-08-12T10:47:30.078Z</time>
      </trkpt>
      <trkpt lat="46.84872" lon="8.46975">
        <ele>2316</ele>
        <time>2021-08-12T10:47:31.077Z</time>
      </trkpt>
      <trkpt lat="46.84872" lon="8.46974">
        <ele>2315</ele>
        <time>2021-08-12T10:47:32.077Z</time>
      </trkpt>
      <trkpt lat="46.84872" lon="8.46972">
        <ele>2315</ele>
        <time>2021-08-12T10:47:33.078Z</time>
      </trkpt>
      <trkpt lat="46.84872" lon="8.46971">
        <ele>2314</ele>
        <time>2021-08-12T10:47:34.078Z</time>
      </trkpt>
      <trkpt lat="46.84872" lon="8.46969">
        <ele>2314</ele>
        <time>2021-08-12T10:47:35.078Z</time>
      </trkpt>
      <trkpt lat="46.84872" lon="8.46967">
        <ele>2313</ele>
        <time>2021-08-12T10:47:36.078Z</time>
      </trkpt>
      <trkpt lat="46.84872" lon="8.46965">
        <ele>2313</ele>
        <time>2021-08-12T10:47:37.078Z</time>
      </trkpt>
      <trkpt lat="46.84873" lon="8.46964">
        <ele>2312</ele>
        <time>2021-08-12T10:47:38.078Z</time>
      </trkpt>
      <trkpt lat="46.84873" lon="8.46963">
        <ele>2312</ele>
        <time>2021-08-12T10:47:39.077Z</time>
      </trkpt>
      <trkpt lat="46.84873" lon="8.46962">
        <ele>2312</ele>
        <time>2021-08-12T10:47:40.078Z</time>
      </trkpt>
      <trkpt lat="46.84873" lon="8.46961">
        <ele>2312</ele>
        <time>2021-08-12T10:47:41.078Z</time>
      </trkpt>
      <trkpt lat="46.84873" lon="8.46959">
        <ele>2312</ele>
        <time>2021-08-12T10:47:42.077Z</time>
      </trkpt>
      <trkpt lat="46.84873" lon="8.46958">
        <ele>2312</ele>
        <time>2021-08-12T10:47:44.198Z</time>
      </trkpt>
      <trkpt lat="46.84874" lon="8.46956">
        <ele>2312</ele>
        <time>2021-08-12T10:47:45.198Z</time>
      </trkpt>
      <trkpt lat="46.84874" lon="8.46955">
        <ele>2312</ele>
        <time>2021-08-12T10:47:46.198Z</time>
      </trkpt>
      <trkpt lat="46.84874" lon="8.46953">
        <ele>2312</ele>
        <time>2021-08-12T10:47:47.197Z</time>
      </trkpt>
      <trkpt lat="46.84875" lon="8.46951">
        <ele>2312</ele>
        <time>2021-08-12T10:47:48.198Z</time>
      </trkpt>
      <trkpt lat="46.84875" lon="8.4695">
        <ele>2312</ele>
        <time>2021-08-12T10:47:49.198Z</time>
      </trkpt>
      <trkpt lat="46.84875" lon="8.46949">
        <ele>2312</ele>
        <time>2021-08-12T10:47:53.333Z</time>
      </trkpt>
      <trkpt lat="46.84875" lon="8.46948">
        <ele>2312</ele>
        <time>2021-08-12T10:47:54.333Z</time>
      </trkpt>
      <trkpt lat="46.84875" lon="8.46947">
        <ele>2312</ele>
        <time>2021-08-12T10:47:55.332Z</time>
      </trkpt>
      <trkpt lat="46.84875" lon="8.46945">
        <ele>2313</ele>
        <time>2021-08-12T10:47:56.333Z</time>
      </trkpt>
      <trkpt lat="46.84875" lon="8.46944">
        <ele>2313</ele>
        <time>2021-08-12T10:47:57.332Z</time>
      </trkpt>
      <trkpt lat="46.84876" lon="8.46942">
        <ele>2313</ele>
        <time>2021-08-12T10:47:58.332Z</time>
      </trkpt>
      <trkpt lat="46.84876" lon="8.4694">
        <ele>2313</ele>
        <time>2021-08-12T10:47:59.332Z</time>
      </trkpt>
      <trkpt lat="46.84877" lon="8.46939">
        <ele>2313</ele>
        <time>2021-08-12T10:48:00.333Z</time>
      </trkpt>
      <trkpt lat="46.84877" lon="8.46938">
        <ele>2314</ele>
        <time>2021-08-12T10:48:01.332Z</time>
      </trkpt>
      <trkpt lat="46.84877" lon="8.46936">
        <ele>2315</ele>
        <time>2021-08-12T10:48:02.332Z</time>
      </trkpt>
      <trkpt lat="46.84877" lon="8.46935">
        <ele>2315</ele>
        <time>2021-08-12T10:48:03.333Z</time>
      </trkpt>
      <trkpt lat="46.84878" lon="8.46933">
        <ele>2315</ele>
        <time>2021-08-12T10:48:04.333Z</time>
      </trkpt>
      <trkpt lat="46.84878" lon="8.46932">
        <ele>2315</ele>
        <time>2021-08-12T10:48:05.333Z</time>
      </trkpt>
      <trkpt lat="46.84878" lon="8.4693">
        <ele>2315</ele>
        <time>2021-08-12T10:48:06.333Z</time>
      </trkpt>
      <trkpt lat="46.84878" lon="8.46929">
        <ele>2315</ele>
        <time>2021-08-12T10:48:07.333Z</time>
      </trkpt>
      <trkpt lat="46.84878" lon="8.46927">
        <ele>2315</ele>
        <time>2021-08-12T10:48:08.333Z</time>
      </trkpt>
      <trkpt lat="46.84878" lon="8.46926">
        <ele>2314</ele>
        <time>2021-08-12T10:48:09.333Z</time>
      </trkpt>
      <trkpt lat="46.84878" lon="8.46925">
        <ele>2314</ele>
        <time>2021-08-12T10:48:10.333Z</time>
      </trkpt>
      <trkpt lat="46.84878" lon="8.46923">
        <ele>2313</ele>
        <time>2021-08-12T10:48:11.333Z</time>
      </trkpt>
      <trkpt lat="46.84877" lon="8.46922">
        <ele>2312</ele>
        <time>2021-08-12T10:48:12.333Z</time>
      </trkpt>
      <trkpt lat="46.84877" lon="8.46921">
        <ele>2312</ele>
        <time>2021-08-12T10:48:13.333Z</time>
      </trkpt>
      <trkpt lat="46.84877" lon="8.46919">
        <ele>2312</ele>
        <time>2021-08-12T10:48:14.332Z</time>
      </trkpt>
      <trkpt lat="46.84876" lon="8.46918">
        <ele>2311</ele>
        <time>2021-08-12T10:48:15.332Z</time>
      </trkpt>
      <trkpt lat="46.84875" lon="8.46916">
        <ele>2311</ele>
        <time>2021-08-12T10:48:16.333Z</time>
      </trkpt>
      <trkpt lat="46.84875" lon="8.46914">
        <ele>2311</ele>
        <time>2021-08-12T10:48:17.333Z</time>
      </trkpt>
      <trkpt lat="46.84874" lon="8.46913">
        <ele>2311</ele>
        <time>2021-08-12T10:48:31.420Z</time>
      </trkpt>
      <trkpt lat="46.84874" lon="8.46912">
        <ele>2311</ele>
        <time>2021-08-12T10:48:32.419Z</time>
      </trkpt>
      <trkpt lat="46.84874" lon="8.4691">
        <ele>2311</ele>
        <time>2021-08-12T10:48:37.331Z</time>
      </trkpt>
      <trkpt lat="46.84874" lon="8.46909">
        <ele>2310</ele>
        <time>2021-08-12T10:48:38.331Z</time>
      </trkpt>
      <trkpt lat="46.84874" lon="8.46907">
        <ele>2310</ele>
        <time>2021-08-12T10:48:39.331Z</time>
      </trkpt>
      <trkpt lat="46.84873" lon="8.46906">
        <ele>2310</ele>
        <time>2021-08-12T10:48:40.331Z</time>
      </trkpt>
      <trkpt lat="46.84873" lon="8.46904">
        <ele>2310</ele>
        <time>2021-08-12T10:48:41.331Z</time>
      </trkpt>
      <trkpt lat="46.84872" lon="8.46904">
        <ele>2311</ele>
        <time>2021-08-12T10:48:42.331Z</time>
      </trkpt>
      <trkpt lat="46.84871" lon="8.46903">
        <ele>2311</ele>
        <time>2021-08-12T10:48:43.331Z</time>
      </trkpt>
      <trkpt lat="46.84871" lon="8.46902">
        <ele>2312</ele>
        <time>2021-08-12T10:48:59.469Z</time>
      </trkpt>
      <trkpt lat="46.8487" lon="8.469">
        <ele>2312</ele>
        <time>2021-08-12T10:49:00.469Z</time>
      </trkpt>
      <trkpt lat="46.84869" lon="8.46899">
        <ele>2312</ele>
        <time>2021-08-12T10:49:08.294Z</time>
      </trkpt>
      <trkpt lat="46.84868" lon="8.46898">
        <ele>2313</ele>
        <time>2021-08-12T10:49:09.293Z</time>
      </trkpt>
      <trkpt lat="46.84868" lon="8.46897">
        <ele>2313</ele>
        <time>2021-08-12T10:49:10.293Z</time>
      </trkpt>
      <trkpt lat="46.84868" lon="8.46896">
        <ele>2314</ele>
        <time>2021-08-12T10:49:11.293Z</time>
      </trkpt>
      <trkpt lat="46.84867" lon="8.46894">
        <ele>2314</ele>
        <time>2021-08-12T10:49:12.294Z</time>
      </trkpt>
      <trkpt lat="46.84866" lon="8.46893">
        <ele>2314</ele>
        <time>2021-08-12T10:49:13.294Z</time>
      </trkpt>
      <trkpt lat="46.84866" lon="8.46892">
        <ele>2315</ele>
        <time>2021-08-12T10:49:14.293Z</time>
      </trkpt>
      <trkpt lat="46.84866" lon="8.4689">
        <ele>2315</ele>
        <time>2021-08-12T10:49:15.294Z</time>
      </trkpt>
      <trkpt lat="46.84866" lon="8.46889">
        <ele>2315</ele>
        <time>2021-08-12T10:49:16.294Z</time>
      </trkpt>
      <trkpt lat="46.84866" lon="8.46888">
        <ele>2314</ele>
        <time>2021-08-12T10:49:17.294Z</time>
      </trkpt>
      <trkpt lat="46.84865" lon="8.46887">
        <ele>2314</ele>
        <time>2021-08-12T10:49:18.294Z</time>
      </trkpt>
      <trkpt lat="46.84865" lon="8.46885">
        <ele>2313</ele>
        <time>2021-08-12T10:49:19.294Z</time>
      </trkpt>
      <trkpt lat="46.84865" lon="8.46883">
        <ele>2313</ele>
        <time>2021-08-12T10:49:20.294Z</time>
      </trkpt>
      <trkpt lat="46.84865" lon="8.46881">
        <ele>2313</ele>
        <time>2021-08-12T10:49:21.294Z</time>
      </trkpt>
      <trkpt lat="46.84864" lon="8.4688">
        <ele>2312</ele>
        <time>2021-08-12T10:49:25.454Z</time>
      </trkpt>
      <trkpt lat="46.84864" lon="8.46878">
        <ele>2312</ele>
        <time>2021-08-12T10:49:26.454Z</time>
      </trkpt>
      <trkpt lat="46.84864" lon="8.46876">
        <ele>2312</ele>
        <time>2021-08-12T10:49:27.454Z</time>
      </trkpt>
      <trkpt lat="46.84864" lon="8.46875">
        <ele>2312</ele>
        <time>2021-08-12T10:49:28.454Z</time>
      </trkpt>
      <trkpt lat="46.84864" lon="8.46873">
        <ele>2312</ele>
        <time>2021-08-12T10:49:29.454Z</time>
      </trkpt>
      <trkpt lat="46.84864" lon="8.46871">
        <ele>2313</ele>
        <time>2021-08-12T10:49:30.454Z</time>
      </trkpt>
      <trkpt lat="46.84864" lon="8.4687">
        <ele>2313</ele>
        <time>2021-08-12T10:49:31.453Z</time>
      </trkpt>
      <trkpt lat="46.84864" lon="8.46868">
        <ele>2313</ele>
        <time>2021-08-12T10:49:32.453Z</time>
      </trkpt>
      <trkpt lat="46.84863" lon="8.46866">
        <ele>2312</ele>
        <time>2021-08-12T10:49:33.453Z</time>
      </trkpt>
      <trkpt lat="46.84863" lon="8.46865">
        <ele>2312</ele>
        <time>2021-08-12T10:49:34.454Z</time>
      </trkpt>
      <trkpt lat="46.84862" lon="8.46863">
        <ele>2312</ele>
        <time>2021-08-12T10:49:35.454Z</time>
      </trkpt>
      <trkpt lat="46.84862" lon="8.46862">
        <ele>2311</ele>
        <time>2021-08-12T10:49:36.454Z</time>
      </trkpt>
      <trkpt lat="46.84861" lon="8.4686">
        <ele>2311</ele>
        <time>2021-08-12T10:49:37.453Z</time>
      </trkpt>
      <trkpt lat="46.84861" lon="8.46859">
        <ele>2311</ele>
        <time>2021-08-12T10:49:38.454Z</time>
      </trkpt>
      <trkpt lat="46.84861" lon="8.46858">
        <ele>2310</ele>
        <time>2021-08-12T10:49:39.454Z</time>
      </trkpt>
      <trkpt lat="46.84861" lon="8.46856">
        <ele>2310</ele>
        <time>2021-08-12T10:49:40.454Z</time>
      </trkpt>
      <trkpt lat="46.84861" lon="8.46855">
        <ele>2310</ele>
        <time>2021-08-12T10:49:41.453Z</time>
      </trkpt>
      <trkpt lat="46.84861" lon="8.46854">
        <ele>2309</ele>
        <time>2021-08-12T10:49:42.454Z</time>
      </trkpt>
      <trkpt lat="46.84861" lon="8.46852">
        <ele>2309</ele>
        <time>2021-08-12T10:49:43.453Z</time>
      </trkpt>
      <trkpt lat="46.84861" lon="8.4685">
        <ele>2309</ele>
        <time>2021-08-12T10:49:45.555Z</time>
      </trkpt>
      <trkpt lat="46.84861" lon="8.46848">
        <ele>2309</ele>
        <time>2021-08-12T10:49:46.554Z</time>
      </trkpt>
      <trkpt lat="46.84861" lon="8.46846">
        <ele>2309</ele>
        <time>2021-08-12T10:49:47.555Z</time>
      </trkpt>
      <trkpt lat="46.84861" lon="8.46844">
        <ele>2309</ele>
        <time>2021-08-12T10:49:48.554Z</time>
      </trkpt>
      <trkpt lat="46.84862" lon="8.46842">
        <ele>2310</ele>
        <time>2021-08-12T10:49:49.555Z</time>
      </trkpt>
      <trkpt lat="46.84862" lon="8.4684">
        <ele>2310</ele>
        <time>2021-08-12T10:49:50.555Z</time>
      </trkpt>
      <trkpt lat="46.84862" lon="8.46838">
        <ele>2310</ele>
        <time>2021-08-12T10:49:51.554Z</time>
      </trkpt>
      <trkpt lat="46.84862" lon="8.46836">
        <ele>2310</ele>
        <time>2021-08-12T10:49:52.555Z</time>
      </trkpt>
      <trkpt lat="46.84862" lon="8.46834">
        <ele>2310</ele>
        <time>2021-08-12T10:49:53.555Z</time>
      </trkpt>
      <trkpt lat="46.84862" lon="8.46833">
        <ele>2310</ele>
        <time>2021-08-12T10:49:54.554Z</time>
      </trkpt>
      <trkpt lat="46.84861" lon="8.46831">
        <ele>2310</ele>
        <time>2021-08-12T10:49:55.555Z</time>
      </trkpt>
      <trkpt lat="46.84861" lon="8.46829">
        <ele>2310</ele>
        <time>2021-08-12T10:49:56.554Z</time>
      </trkpt>
      <trkpt lat="46.8486" lon="8.46828">
        <ele>2310</ele>
        <time>2021-08-12T10:49:57.555Z</time>
      </trkpt>
      <trkpt lat="46.8486" lon="8.46826">
        <ele>2310</ele>
        <time>2021-08-12T10:49:58.555Z</time>
      </trkpt>
      <trkpt lat="46.8486" lon="8.46825">
        <ele>2310</ele>
        <time>2021-08-12T10:49:59.555Z</time>
      </trkpt>
      <trkpt lat="46.84859" lon="8.46823">
        <ele>2310</ele>
        <time>2021-08-12T10:50:00.554Z</time>
      </trkpt>
      <trkpt lat="46.84859" lon="8.46822">
        <ele>2310</ele>
        <time>2021-08-12T10:50:01.555Z</time>
      </trkpt>
      <trkpt lat="46.84858" lon="8.46821">
        <ele>2310</ele>
        <time>2021-08-12T10:50:02.554Z</time>
      </trkpt>
      <trkpt lat="46.84858" lon="8.46819">
        <ele>2310</ele>
        <time>2021-08-12T10:50:03.555Z</time>
      </trkpt>
      <trkpt lat="46.84857" lon="8.46817">
        <ele>2309</ele>
        <time>2021-08-12T10:50:04.555Z</time>
      </trkpt>
      <trkpt lat="46.84857" lon="8.46816">
        <ele>2309</ele>
        <time>2021-08-12T10:50:05.555Z</time>
      </trkpt>
      <trkpt lat="46.84857" lon="8.46814">
        <ele>2309</ele>
        <time>2021-08-12T10:50:06.554Z</time>
      </trkpt>
      <trkpt lat="46.84857" lon="8.46813">
        <ele>2308</ele>
        <time>2021-08-12T10:50:07.555Z</time>
      </trkpt>
      <trkpt lat="46.84857" lon="8.46812">
        <ele>2308</ele>
        <time>2021-08-12T10:50:08.555Z</time>
      </trkpt>
      <trkpt lat="46.84857" lon="8.46811">
        <ele>2308</ele>
        <time>2021-08-12T10:50:09.555Z</time>
      </trkpt>
      <trkpt lat="46.84857" lon="8.4681">
        <ele>2308</ele>
        <time>2021-08-12T10:50:10.555Z</time>
      </trkpt>
      <trkpt lat="46.84858" lon="8.46809">
        <ele>2308</ele>
        <time>2021-08-12T10:50:11.555Z</time>
      </trkpt>
      <trkpt lat="46.84858" lon="8.46808">
        <ele>2308</ele>
        <time>2021-08-12T10:50:12.554Z</time>
      </trkpt>
      <trkpt lat="46.84858" lon="8.46807">
        <ele>2308</ele>
        <time>2021-08-12T10:50:13.555Z</time>
      </trkpt>
      <trkpt lat="46.84858" lon="8.46805">
        <ele>2308</ele>
        <time>2021-08-12T10:50:14.555Z</time>
      </trkpt>
      <trkpt lat="46.84858" lon="8.46805">
        <ele>2307</ele>
        <time>2021-08-12T10:50:15.554Z</time>
      </trkpt>
      <trkpt lat="46.84857" lon="8.46804">
        <ele>2307</ele>
        <time>2021-08-12T10:50:16.555Z</time>
      </trkpt>
      <trkpt lat="46.84857" lon="8.46802">
        <ele>2307</ele>
        <time>2021-08-12T10:50:17.555Z</time>
      </trkpt>
      <trkpt lat="46.84856" lon="8.46801">
        <ele>2307</ele>
        <time>2021-08-12T10:50:18.554Z</time>
      </trkpt>
      <trkpt lat="46.84856" lon="8.468">
        <ele>2307</ele>
        <time>2021-08-12T10:50:19.554Z</time>
      </trkpt>
      <trkpt lat="46.84856" lon="8.46799">
        <ele>2306</ele>
        <time>2021-08-12T10:50:20.554Z</time>
      </trkpt>
      <trkpt lat="46.84855" lon="8.46797">
        <ele>2307</ele>
        <time>2021-08-12T10:50:21.554Z</time>
      </trkpt>
      <trkpt lat="46.84855" lon="8.46795">
        <ele>2307</ele>
        <time>2021-08-12T10:50:22.555Z</time>
      </trkpt>
      <trkpt lat="46.84855" lon="8.46793">
        <ele>2307</ele>
        <time>2021-08-12T10:50:23.555Z</time>
      </trkpt>
      <trkpt lat="46.84855" lon="8.46791">
        <ele>2307</ele>
        <time>2021-08-12T10:50:24.555Z</time>
      </trkpt>
      <trkpt lat="46.84854" lon="8.4679">
        <ele>2307</ele>
        <time>2021-08-12T10:50:25.555Z</time>
      </trkpt>
      <trkpt lat="46.84854" lon="8.46788">
        <ele>2307</ele>
        <time>2021-08-12T10:50:26.555Z</time>
      </trkpt>
      <trkpt lat="46.84854" lon="8.46787">
        <ele>2307</ele>
        <time>2021-08-12T10:50:27.555Z</time>
      </trkpt>
      <trkpt lat="46.84854" lon="8.46785">
        <ele>2307</ele>
        <time>2021-08-12T10:50:28.555Z</time>
      </trkpt>
      <trkpt lat="46.84855" lon="8.46784">
        <ele>2307</ele>
        <time>2021-08-12T10:50:29.554Z</time>
      </trkpt>
      <trkpt lat="46.84856" lon="8.46782">
        <ele>2307</ele>
        <time>2021-08-12T10:50:30.554Z</time>
      </trkpt>
      <trkpt lat="46.84856" lon="8.4678">
        <ele>2307</ele>
        <time>2021-08-12T10:50:31.555Z</time>
      </trkpt>
      <trkpt lat="46.84856" lon="8.46778">
        <ele>2307</ele>
        <time>2021-08-12T10:50:32.555Z</time>
      </trkpt>
      <trkpt lat="46.84857" lon="8.46776">
        <ele>2307</ele>
        <time>2021-08-12T10:50:33.555Z</time>
      </trkpt>
      <trkpt lat="46.84857" lon="8.46774">
        <ele>2307</ele>
        <time>2021-08-12T10:50:34.554Z</time>
      </trkpt>
      <trkpt lat="46.84858" lon="8.46772">
        <ele>2307</ele>
        <time>2021-08-12T10:50:35.555Z</time>
      </trkpt>
      <trkpt lat="46.84858" lon="8.4677">
        <ele>2307</ele>
        <time>2021-08-12T10:50:36.555Z</time>
      </trkpt>
      <trkpt lat="46.84857" lon="8.46769">
        <ele>2307</ele>
        <time>2021-08-12T10:50:37.554Z</time>
      </trkpt>
      <trkpt lat="46.84857" lon="8.46767">
        <ele>2306</ele>
        <time>2021-08-12T10:50:38.555Z</time>
      </trkpt>
      <trkpt lat="46.84857" lon="8.46766">
        <ele>2306</ele>
        <time>2021-08-12T10:50:39.555Z</time>
      </trkpt>
      <trkpt lat="46.84858" lon="8.46764">
        <ele>2305</ele>
        <time>2021-08-12T10:50:40.555Z</time>
      </trkpt>
      <trkpt lat="46.84858" lon="8.46762">
        <ele>2305</ele>
        <time>2021-08-12T10:50:41.555Z</time>
      </trkpt>
      <trkpt lat="46.84858" lon="8.4676">
        <ele>2306</ele>
        <time>2021-08-12T10:50:42.555Z</time>
      </trkpt>
      <trkpt lat="46.84858" lon="8.46758">
        <ele>2306</ele>
        <time>2021-08-12T10:50:43.555Z</time>
      </trkpt>
      <trkpt lat="46.84858" lon="8.46756">
        <ele>2306</ele>
        <time>2021-08-12T10:50:44.555Z</time>
      </trkpt>
      <trkpt lat="46.84858" lon="8.46754">
        <ele>2306</ele>
        <time>2021-08-12T10:50:45.554Z</time>
      </trkpt>
      <trkpt lat="46.84857" lon="8.46752">
        <ele>2306</ele>
        <time>2021-08-12T10:50:46.555Z</time>
      </trkpt>
      <trkpt lat="46.84857" lon="8.4675">
        <ele>2306</ele>
        <time>2021-08-12T10:50:47.554Z</time>
      </trkpt>
      <trkpt lat="46.84857" lon="8.46748">
        <ele>2306</ele>
        <time>2021-08-12T10:50:48.555Z</time>
      </trkpt>
      <trkpt lat="46.84857" lon="8.46746">
        <ele>2306</ele>
        <time>2021-08-12T10:50:49.554Z</time>
      </trkpt>
      <trkpt lat="46.84857" lon="8.46744">
        <ele>2305</ele>
        <time>2021-08-12T10:50:50.555Z</time>
      </trkpt>
      <trkpt lat="46.84857" lon="8.46742">
        <ele>2305</ele>
        <time>2021-08-12T10:50:51.555Z</time>
      </trkpt>
      <trkpt lat="46.84856" lon="8.4674">
        <ele>2305</ele>
        <time>2021-08-12T10:50:52.555Z</time>
      </trkpt>
      <trkpt lat="46.84856" lon="8.46738">
        <ele>2304</ele>
        <time>2021-08-12T10:50:53.555Z</time>
      </trkpt>
      <trkpt lat="46.84856" lon="8.46736">
        <ele>2304</ele>
        <time>2021-08-12T10:50:54.555Z</time>
      </trkpt>
      <trkpt lat="46.84856" lon="8.46734">
        <ele>2304</ele>
        <time>2021-08-12T10:50:55.554Z</time>
      </trkpt>
      <trkpt lat="46.84856" lon="8.46733">
        <ele>2304</ele>
        <time>2021-08-12T10:50:56.555Z</time>
      </trkpt>
      <trkpt lat="46.84856" lon="8.46731">
        <ele>2304</ele>
        <time>2021-08-12T10:50:57.555Z</time>
      </trkpt>
      <trkpt lat="46.84856" lon="8.4673">
        <ele>2304</ele>
        <time>2021-08-12T10:50:58.555Z</time>
      </trkpt>
      <trkpt lat="46.84856" lon="8.46728">
        <ele>2305</ele>
        <time>2021-08-12T10:50:59.555Z</time>
      </trkpt>
      <trkpt lat="46.84856" lon="8.46726">
        <ele>2305</ele>
        <time>2021-08-12T10:51:00.555Z</time>
      </trkpt>
      <trkpt lat="46.84856" lon="8.46725">
        <ele>2305</ele>
        <time>2021-08-12T10:51:01.555Z</time>
      </trkpt>
      <trkpt lat="46.84856" lon="8.46723">
        <ele>2305</ele>
        <time>2021-08-12T10:51:02.554Z</time>
      </trkpt>
      <trkpt lat="46.84856" lon="8.46721">
        <ele>2306</ele>
        <time>2021-08-12T10:51:03.555Z</time>
      </trkpt>
      <trkpt lat="46.84855" lon="8.46719">
        <ele>2306</ele>
        <time>2021-08-12T10:51:04.555Z</time>
      </trkpt>
      <trkpt lat="46.84855" lon="8.46718">
        <ele>2306</ele>
        <time>2021-08-12T10:51:05.555Z</time>
      </trkpt>
      <trkpt lat="46.84855" lon="8.46716">
        <ele>2306</ele>
        <time>2021-08-12T10:51:06.555Z</time>
      </trkpt>
      <trkpt lat="46.84855" lon="8.46714">
        <ele>2306</ele>
        <time>2021-08-12T10:51:07.554Z</time>
      </trkpt>
      <trkpt lat="46.84854" lon="8.46713">
        <ele>2306</ele>
        <time>2021-08-12T10:51:08.555Z</time>
      </trkpt>
      <trkpt lat="46.84854" lon="8.46711">
        <ele>2306</ele>
        <time>2021-08-12T10:51:09.554Z</time>
      </trkpt>
      <trkpt lat="46.84854" lon="8.46709">
        <ele>2306</ele>
        <time>2021-08-12T10:51:10.554Z</time>
      </trkpt>
      <trkpt lat="46.84854" lon="8.46707">
        <ele>2306</ele>
        <time>2021-08-12T10:51:11.555Z</time>
      </trkpt>
      <trkpt lat="46.84854" lon="8.46706">
        <ele>2306</ele>
        <time>2021-08-12T10:51:12.555Z</time>
      </trkpt>
      <trkpt lat="46.84854" lon="8.46705">
        <ele>2307</ele>
        <time>2021-08-12T10:51:13.555Z</time>
      </trkpt>
      <trkpt lat="46.84854" lon="8.46705">
        <ele>2308</ele>
        <time>2021-08-12T10:51:14.554Z</time>
      </trkpt>
      <trkpt lat="46.84854" lon="8.46704">
        <ele>2308</ele>
        <time>2021-08-12T10:51:15.554Z</time>
      </trkpt>
      <trkpt lat="46.84854" lon="8.46703">
        <ele>2308</ele>
        <time>2021-08-12T10:51:16.555Z</time>
      </trkpt>
      <trkpt lat="46.84854" lon="8.46702">
        <ele>2309</ele>
        <time>2021-08-12T10:51:17.554Z</time>
      </trkpt>
      <trkpt lat="46.84854" lon="8.46701">
        <ele>2308</ele>
        <time>2021-08-12T10:51:18.555Z</time>
      </trkpt>
      <trkpt lat="46.84854" lon="8.467">
        <ele>2308</ele>
        <time>2021-08-12T10:51:24.699Z</time>
      </trkpt>
      <trkpt lat="46.84854" lon="8.46698">
        <ele>2308</ele>
        <time>2021-08-12T10:51:25.699Z</time>
      </trkpt>
      <trkpt lat="46.84854" lon="8.46696">
        <ele>2308</ele>
        <time>2021-08-12T10:51:26.698Z</time>
      </trkpt>
      <trkpt lat="46.84854" lon="8.46695">
        <ele>2308</ele>
        <time>2021-08-12T10:51:27.698Z</time>
      </trkpt>
      <trkpt lat="46.84854" lon="8.46693">
        <ele>2307</ele>
        <time>2021-08-12T10:51:28.699Z</time>
      </trkpt>
      <trkpt lat="46.84853" lon="8.46691">
        <ele>2307</ele>
        <time>2021-08-12T10:51:29.699Z</time>
      </trkpt>
      <trkpt lat="46.84853" lon="8.4669">
        <ele>2307</ele>
        <time>2021-08-12T10:51:30.698Z</time>
      </trkpt>
      <trkpt lat="46.84852" lon="8.46689">
        <ele>2307</ele>
        <time>2021-08-12T10:51:31.699Z</time>
      </trkpt>
      <trkpt lat="46.84851" lon="8.46688">
        <ele>2307</ele>
        <time>2021-08-12T10:51:32.699Z</time>
      </trkpt>
      <trkpt lat="46.84851" lon="8.46686">
        <ele>2307</ele>
        <time>2021-08-12T10:51:33.698Z</time>
      </trkpt>
      <trkpt lat="46.8485" lon="8.46685">
        <ele>2307</ele>
        <time>2021-08-12T10:51:34.699Z</time>
      </trkpt>
      <trkpt lat="46.8485" lon="8.46683">
        <ele>2306</ele>
        <time>2021-08-12T10:51:35.698Z</time>
      </trkpt>
      <trkpt lat="46.84849" lon="8.46682">
        <ele>2306</ele>
        <time>2021-08-12T10:51:36.699Z</time>
      </trkpt>
      <trkpt lat="46.84849" lon="8.4668">
        <ele>2306</ele>
        <time>2021-08-12T10:51:37.699Z</time>
      </trkpt>
      <trkpt lat="46.84849" lon="8.46679">
        <ele>2306</ele>
        <time>2021-08-12T10:51:38.699Z</time>
      </trkpt>
      <trkpt lat="46.84848" lon="8.46677">
        <ele>2306</ele>
        <time>2021-08-12T10:51:39.699Z</time>
      </trkpt>
      <trkpt lat="46.84848" lon="8.46676">
        <ele>2306</ele>
        <time>2021-08-12T10:51:40.699Z</time>
      </trkpt>
      <trkpt lat="46.84848" lon="8.46675">
        <ele>2306</ele>
        <time>2021-08-12T10:51:41.699Z</time>
      </trkpt>
      <trkpt lat="46.84847" lon="8.46674">
        <ele>2305</ele>
        <time>2021-08-12T10:51:42.699Z</time>
      </trkpt>
      <trkpt lat="46.84847" lon="8.46674">
        <ele>2305</ele>
        <time>2021-08-12T10:51:43.698Z</time>
      </trkpt>
      <trkpt lat="46.84846" lon="8.46673">
        <ele>2305</ele>
        <time>2021-08-12T10:51:44.699Z</time>
      </trkpt>
      <trkpt lat="46.84846" lon="8.46673">
        <ele>2304</ele>
        <time>2021-08-12T10:51:45.699Z</time>
      </trkpt>
      <trkpt lat="46.84846" lon="8.46672">
        <ele>2304</ele>
        <time>2021-08-12T10:51:46.699Z</time>
      </trkpt>
      <trkpt lat="46.84846" lon="8.46672">
        <ele>2303</ele>
        <time>2021-08-12T10:51:47.698Z</time>
      </trkpt>
      <trkpt lat="46.84846" lon="8.46671">
        <ele>2303</ele>
        <time>2021-08-12T10:51:48.698Z</time>
      </trkpt>
      <trkpt lat="46.84846" lon="8.4667">
        <ele>2302</ele>
        <time>2021-08-12T10:51:49.699Z</time>
      </trkpt>
      <trkpt lat="46.84847" lon="8.46669">
        <ele>2302</ele>
        <time>2021-08-12T10:51:50.699Z</time>
      </trkpt>
      <trkpt lat="46.84847" lon="8.46669">
        <ele>2302</ele>
        <time>2021-08-12T10:51:51.698Z</time>
      </trkpt>
      <trkpt lat="46.84847" lon="8.46668">
        <ele>2302</ele>
        <time>2021-08-12T10:51:52.699Z</time>
      </trkpt>
      <trkpt lat="46.84847" lon="8.46668">
        <ele>2302</ele>
        <time>2021-08-12T10:51:53.698Z</time>
      </trkpt>
      <trkpt lat="46.84847" lon="8.46667">
        <ele>2302</ele>
        <time>2021-08-12T10:51:54.699Z</time>
      </trkpt>
      <trkpt lat="46.84847" lon="8.46667">
        <ele>2301</ele>
        <time>2021-08-12T10:51:55.698Z</time>
      </trkpt>
      <trkpt lat="46.84847" lon="8.46666">
        <ele>2300</ele>
        <time>2021-08-12T10:51:56.698Z</time>
      </trkpt>
      <trkpt lat="46.84847" lon="8.46665">
        <ele>2300</ele>
        <time>2021-08-12T10:51:57.698Z</time>
      </trkpt>
      <trkpt lat="46.84847" lon="8.46664">
        <ele>2300</ele>
        <time>2021-08-12T10:51:58.698Z</time>
      </trkpt>
      <trkpt lat="46.84847" lon="8.46663">
        <ele>2300</ele>
        <time>2021-08-12T10:51:59.698Z</time>
      </trkpt>
      <trkpt lat="46.84848" lon="8.46662">
        <ele>2300</ele>
        <time>2021-08-12T10:52:00.698Z</time>
      </trkpt>
      <trkpt lat="46.84848" lon="8.46661">
        <ele>2300</ele>
        <time>2021-08-12T10:52:01.698Z</time>
      </trkpt>
      <trkpt lat="46.84847" lon="8.4666">
        <ele>2299</ele>
        <time>2021-08-12T10:52:02.698Z</time>
      </trkpt>
      <trkpt lat="46.84847" lon="8.46659">
        <ele>2299</ele>
        <time>2021-08-12T10:52:03.698Z</time>
      </trkpt>
      <trkpt lat="46.84847" lon="8.46658">
        <ele>2299</ele>
        <time>2021-08-12T10:52:04.699Z</time>
      </trkpt>
      <trkpt lat="46.84847" lon="8.46658">
        <ele>2299</ele>
        <time>2021-08-12T10:52:05.698Z</time>
      </trkpt>
      <trkpt lat="46.84847" lon="8.46657">
        <ele>2298</ele>
        <time>2021-08-12T10:52:06.699Z</time>
      </trkpt>
      <trkpt lat="46.84847" lon="8.46657">
        <ele>2298</ele>
        <time>2021-08-12T10:52:07.698Z</time>
      </trkpt>
      <trkpt lat="46.84847" lon="8.46656">
        <ele>2298</ele>
        <time>2021-08-12T10:52:08.698Z</time>
      </trkpt>
      <trkpt lat="46.84847" lon="8.46654">
        <ele>2298</ele>
        <time>2021-08-12T10:52:09.698Z</time>
      </trkpt>
      <trkpt lat="46.84848" lon="8.46653">
        <ele>2298</ele>
        <time>2021-08-12T10:52:10.698Z</time>
      </trkpt>
      <trkpt lat="46.84848" lon="8.46652">
        <ele>2298</ele>
        <time>2021-08-12T10:52:11.698Z</time>
      </trkpt>
      <trkpt lat="46.84849" lon="8.46652">
        <ele>2298</ele>
        <time>2021-08-12T10:52:12.698Z</time>
      </trkpt>
      <trkpt lat="46.8485" lon="8.46651">
        <ele>2298</ele>
        <time>2021-08-12T10:52:15.798Z</time>
      </trkpt>
      <trkpt lat="46.8485" lon="8.46651">
        <ele>2297</ele>
        <time>2021-08-12T10:52:16.798Z</time>
      </trkpt>
      <trkpt lat="46.8485" lon="8.4665">
        <ele>2297</ele>
        <time>2021-08-12T10:52:17.798Z</time>
      </trkpt>
      <trkpt lat="46.84849" lon="8.4665">
        <ele>2297</ele>
        <time>2021-08-12T10:52:18.798Z</time>
      </trkpt>
      <trkpt lat="46.84848" lon="8.46649">
        <ele>2296</ele>
        <time>2021-08-12T10:52:19.798Z</time>
      </trkpt>
      <trkpt lat="46.84848" lon="8.46648">
        <ele>2296</ele>
        <time>2021-08-12T10:52:20.798Z</time>
      </trkpt>
      <trkpt lat="46.84847" lon="8.46647">
        <ele>2296</ele>
        <time>2021-08-12T10:52:21.798Z</time>
      </trkpt>
      <trkpt lat="46.84846" lon="8.46647">
        <ele>2296</ele>
        <time>2021-08-12T10:52:22.798Z</time>
      </trkpt>
      <trkpt lat="46.84845" lon="8.46647">
        <ele>2295</ele>
        <time>2021-08-12T10:52:23.798Z</time>
      </trkpt>
      <trkpt lat="46.84844" lon="8.46647">
        <ele>2295</ele>
        <time>2021-08-12T10:52:24.798Z</time>
      </trkpt>
      <trkpt lat="46.84843" lon="8.46647">
        <ele>2295</ele>
        <time>2021-08-12T10:52:25.798Z</time>
      </trkpt>
      <trkpt lat="46.84843" lon="8.46647">
        <ele>2294</ele>
        <time>2021-08-12T10:52:26.798Z</time>
      </trkpt>
      <trkpt lat="46.84842" lon="8.46647">
        <ele>2294</ele>
        <time>2021-08-12T10:52:27.799Z</time>
      </trkpt>
      <trkpt lat="46.84842" lon="8.46647">
        <ele>2293</ele>
        <time>2021-08-12T10:52:28.798Z</time>
      </trkpt>
      <trkpt lat="46.84842" lon="8.46646">
        <ele>2292</ele>
        <time>2021-08-12T10:52:29.798Z</time>
      </trkpt>
      <trkpt lat="46.84842" lon="8.46645">
        <ele>2292</ele>
        <time>2021-08-12T10:52:30.798Z</time>
      </trkpt>
      <trkpt lat="46.84843" lon="8.46644">
        <ele>2292</ele>
        <time>2021-08-12T10:52:31.798Z</time>
      </trkpt>
      <trkpt lat="46.84843" lon="8.46642">
        <ele>2293</ele>
        <time>2021-08-12T10:52:32.798Z</time>
      </trkpt>
      <trkpt lat="46.84842" lon="8.4664">
        <ele>2293</ele>
        <time>2021-08-12T10:52:33.798Z</time>
      </trkpt>
      <trkpt lat="46.84842" lon="8.46638">
        <ele>2293</ele>
        <time>2021-08-12T10:52:34.798Z</time>
      </trkpt>
      <trkpt lat="46.84841" lon="8.46637">
        <ele>2293</ele>
        <time>2021-08-12T10:52:35.799Z</time>
      </trkpt>
      <trkpt lat="46.84841" lon="8.46635">
        <ele>2293</ele>
        <time>2021-08-12T10:52:37.914Z</time>
      </trkpt>
      <trkpt lat="46.84841" lon="8.46633">
        <ele>2293</ele>
        <time>2021-08-12T10:52:38.913Z</time>
      </trkpt>
      <trkpt lat="46.8484" lon="8.46631">
        <ele>2293</ele>
        <time>2021-08-12T10:52:39.913Z</time>
      </trkpt>
      <trkpt lat="46.8484" lon="8.46629">
        <ele>2293</ele>
        <time>2021-08-12T10:52:40.913Z</time>
      </trkpt>
      <trkpt lat="46.84839" lon="8.46628">
        <ele>2293</ele>
        <time>2021-08-12T10:52:41.913Z</time>
      </trkpt>
      <trkpt lat="46.84838" lon="8.46626">
        <ele>2293</ele>
        <time>2021-08-12T10:52:42.913Z</time>
      </trkpt>
      <trkpt lat="46.84838" lon="8.46624">
        <ele>2293</ele>
        <time>2021-08-12T10:52:43.913Z</time>
      </trkpt>
      <trkpt lat="46.84838" lon="8.46622">
        <ele>2293</ele>
        <time>2021-08-12T10:52:44.913Z</time>
      </trkpt>
      <trkpt lat="46.84838" lon="8.4662">
        <ele>2293</ele>
        <time>2021-08-12T10:52:45.913Z</time>
      </trkpt>
      <trkpt lat="46.84837" lon="8.46618">
        <ele>2293</ele>
        <time>2021-08-12T10:52:46.913Z</time>
      </trkpt>
      <trkpt lat="46.84837" lon="8.46617">
        <ele>2293</ele>
        <time>2021-08-12T10:52:47.914Z</time>
      </trkpt>
      <trkpt lat="46.84836" lon="8.46615">
        <ele>2293</ele>
        <time>2021-08-12T10:52:58.942Z</time>
      </trkpt>
      <trkpt lat="46.84836" lon="8.46613">
        <ele>2293</ele>
        <time>2021-08-12T10:52:59.942Z</time>
      </trkpt>
      <trkpt lat="46.84836" lon="8.46612">
        <ele>2293</ele>
        <time>2021-08-12T10:53:16.827Z</time>
      </trkpt>
      <trkpt lat="46.84836" lon="8.4661">
        <ele>2293</ele>
        <time>2021-08-12T10:53:17.826Z</time>
      </trkpt>
      <trkpt lat="46.84835" lon="8.46607">
        <ele>2293</ele>
        <time>2021-08-12T10:53:18.827Z</time>
      </trkpt>
      <trkpt lat="46.84835" lon="8.46605">
        <ele>2293</ele>
        <time>2021-08-12T10:53:19.826Z</time>
      </trkpt>
      <trkpt lat="46.84834" lon="8.46602">
        <ele>2292</ele>
        <time>2021-08-12T10:53:20.827Z</time>
      </trkpt>
      <trkpt lat="46.84834" lon="8.466">
        <ele>2292</ele>
        <time>2021-08-12T10:53:21.827Z</time>
      </trkpt>
      <trkpt lat="46.84833" lon="8.46599">
        <ele>2293</ele>
        <time>2021-08-12T10:53:22.827Z</time>
      </trkpt>
      <trkpt lat="46.84833" lon="8.46598">
        <ele>2293</ele>
        <time>2021-08-12T10:53:23.827Z</time>
      </trkpt>
      <trkpt lat="46.84832" lon="8.46597">
        <ele>2292</ele>
        <time>2021-08-12T10:53:24.827Z</time>
      </trkpt>
      <trkpt lat="46.84831" lon="8.46597">
        <ele>2292</ele>
        <time>2021-08-12T10:53:25.827Z</time>
      </trkpt>
      <trkpt lat="46.84831" lon="8.46596">
        <ele>2292</ele>
        <time>2021-08-12T10:53:26.826Z</time>
      </trkpt>
      <trkpt lat="46.8483" lon="8.46595">
        <ele>2291</ele>
        <time>2021-08-12T10:53:27.827Z</time>
      </trkpt>
      <trkpt lat="46.8483" lon="8.46593">
        <ele>2290</ele>
        <time>2021-08-12T10:53:28.826Z</time>
      </trkpt>
      <trkpt lat="46.84829" lon="8.46592">
        <ele>2290</ele>
        <time>2021-08-12T10:53:29.827Z</time>
      </trkpt>
      <trkpt lat="46.84829" lon="8.46591">
        <ele>2289</ele>
        <time>2021-08-12T10:53:30.827Z</time>
      </trkpt>
      <trkpt lat="46.84828" lon="8.46589">
        <ele>2289</ele>
        <time>2021-08-12T10:53:34.973Z</time>
      </trkpt>
      <trkpt lat="46.84827" lon="8.46587">
        <ele>2289</ele>
        <time>2021-08-12T10:53:35.973Z</time>
      </trkpt>
      <trkpt lat="46.84827" lon="8.46586">
        <ele>2289</ele>
        <time>2021-08-12T10:53:36.973Z</time>
      </trkpt>
      <trkpt lat="46.84827" lon="8.46585">
        <ele>2289</ele>
        <time>2021-08-12T10:53:37.972Z</time>
      </trkpt>
      <trkpt lat="46.84828" lon="8.46584">
        <ele>2289</ele>
        <time>2021-08-12T10:53:38.973Z</time>
      </trkpt>
      <trkpt lat="46.84828" lon="8.46582">
        <ele>2289</ele>
        <time>2021-08-12T10:53:39.972Z</time>
      </trkpt>
      <trkpt lat="46.84828" lon="8.46581">
        <ele>2289</ele>
        <time>2021-08-12T10:53:40.972Z</time>
      </trkpt>
      <trkpt lat="46.84828" lon="8.4658">
        <ele>2289</ele>
        <time>2021-08-12T10:53:41.973Z</time>
      </trkpt>
      <trkpt lat="46.84828" lon="8.46579">
        <ele>2289</ele>
        <time>2021-08-12T10:53:42.973Z</time>
      </trkpt>
      <trkpt lat="46.84828" lon="8.46578">
        <ele>2289</ele>
        <time>2021-08-12T10:53:43.973Z</time>
      </trkpt>
      <trkpt lat="46.84828" lon="8.46576">
        <ele>2289</ele>
        <time>2021-08-12T10:53:44.973Z</time>
      </trkpt>
      <trkpt lat="46.84828" lon="8.46575">
        <ele>2288</ele>
        <time>2021-08-12T10:53:45.973Z</time>
      </trkpt>
      <trkpt lat="46.84828" lon="8.46574">
        <ele>2288</ele>
        <time>2021-08-12T10:53:46.973Z</time>
      </trkpt>
      <trkpt lat="46.84828" lon="8.46573">
        <ele>2288</ele>
        <time>2021-08-12T10:53:47.972Z</time>
      </trkpt>
      <trkpt lat="46.84828" lon="8.46572">
        <ele>2287</ele>
        <time>2021-08-12T10:53:48.972Z</time>
      </trkpt>
      <trkpt lat="46.84828" lon="8.46571">
        <ele>2287</ele>
        <time>2021-08-12T10:53:49.973Z</time>
      </trkpt>
      <trkpt lat="46.84827" lon="8.46571">
        <ele>2287</ele>
        <time>2021-08-12T10:53:55.035Z</time>
      </trkpt>
      <trkpt lat="46.84827" lon="8.4657">
        <ele>2287</ele>
        <time>2021-08-12T10:53:56.035Z</time>
      </trkpt>
      <trkpt lat="46.84827" lon="8.46568">
        <ele>2287</ele>
        <time>2021-08-12T10:53:57.035Z</time>
      </trkpt>
      <trkpt lat="46.84826" lon="8.46567">
        <ele>2287</ele>
        <time>2021-08-12T10:53:58.035Z</time>
      </trkpt>
      <trkpt lat="46.84826" lon="8.46566">
        <ele>2287</ele>
        <time>2021-08-12T10:53:59.035Z</time>
      </trkpt>
      <trkpt lat="46.84825" lon="8.46564">
        <ele>2287</ele>
        <time>2021-08-12T10:54:01.039Z</time>
      </trkpt>
      <trkpt lat="46.84825" lon="8.46563">
        <ele>2287</ele>
        <time>2021-08-12T10:54:02.038Z</time>
      </trkpt>
      <trkpt lat="46.84824" lon="8.46561">
        <ele>2287</ele>
        <time>2021-08-12T10:54:03.038Z</time>
      </trkpt>
      <trkpt lat="46.84823" lon="8.4656">
        <ele>2287</ele>
        <time>2021-08-12T10:54:04.039Z</time>
      </trkpt>
      <trkpt lat="46.84822" lon="8.46558">
        <ele>2287</ele>
        <time>2021-08-12T10:54:05.038Z</time>
      </trkpt>
      <trkpt lat="46.84821" lon="8.46557">
        <ele>2286</ele>
        <time>2021-08-12T10:54:06.039Z</time>
      </trkpt>
      <trkpt lat="46.84821" lon="8.46555">
        <ele>2286</ele>
        <time>2021-08-12T10:54:07.039Z</time>
      </trkpt>
      <trkpt lat="46.84821" lon="8.46554">
        <ele>2286</ele>
        <time>2021-08-12T10:54:08.038Z</time>
      </trkpt>
      <trkpt lat="46.8482" lon="8.46552">
        <ele>2286</ele>
        <time>2021-08-12T10:54:09.039Z</time>
      </trkpt>
      <trkpt lat="46.8482" lon="8.4655">
        <ele>2285</ele>
        <time>2021-08-12T10:54:10.039Z</time>
      </trkpt>
      <trkpt lat="46.8482" lon="8.46548">
        <ele>2285</ele>
        <time>2021-08-12T10:54:18.158Z</time>
      </trkpt>
      <trkpt lat="46.8482" lon="8.46547">
        <ele>2285</ele>
        <time>2021-08-12T10:54:19.158Z</time>
      </trkpt>
      <trkpt lat="46.8482" lon="8.46545">
        <ele>2285</ele>
        <time>2021-08-12T10:54:20.157Z</time>
      </trkpt>
      <trkpt lat="46.8482" lon="8.46544">
        <ele>2285</ele>
        <time>2021-08-12T10:54:22.305Z</time>
      </trkpt>
      <trkpt lat="46.84821" lon="8.46542">
        <ele>2285</ele>
        <time>2021-08-12T10:54:23.304Z</time>
      </trkpt>
      <trkpt lat="46.84821" lon="8.4654">
        <ele>2286</ele>
        <time>2021-08-12T10:54:24.305Z</time>
      </trkpt>
      <trkpt lat="46.8482" lon="8.46539">
        <ele>2286</ele>
        <time>2021-08-12T10:54:25.305Z</time>
      </trkpt>
      <trkpt lat="46.8482" lon="8.46537">
        <ele>2286</ele>
        <time>2021-08-12T10:54:26.305Z</time>
      </trkpt>
      <trkpt lat="46.8482" lon="8.46535">
        <ele>2286</ele>
        <time>2021-08-12T10:54:27.305Z</time>
      </trkpt>
      <trkpt lat="46.8482" lon="8.46534">
        <ele>2286</ele>
        <time>2021-08-12T10:54:28.304Z</time>
      </trkpt>
      <trkpt lat="46.8482" lon="8.46533">
        <ele>2287</ele>
        <time>2021-08-12T10:54:29.304Z</time>
      </trkpt>
      <trkpt lat="46.84819" lon="8.46531">
        <ele>2286</ele>
        <time>2021-08-12T10:54:46.445Z</time>
      </trkpt>
      <trkpt lat="46.84819" lon="8.4653">
        <ele>2286</ele>
        <time>2021-08-12T10:54:47.445Z</time>
      </trkpt>
      <trkpt lat="46.84819" lon="8.46528">
        <ele>2286</ele>
        <time>2021-08-12T10:54:48.444Z</time>
      </trkpt>
      <trkpt lat="46.84818" lon="8.46527">
        <ele>2286</ele>
        <time>2021-08-12T10:54:49.445Z</time>
      </trkpt>
      <trkpt lat="46.84818" lon="8.46525">
        <ele>2286</ele>
        <time>2021-08-12T10:54:50.445Z</time>
      </trkpt>
      <trkpt lat="46.84818" lon="8.46523">
        <ele>2286</ele>
        <time>2021-08-12T10:54:51.445Z</time>
      </trkpt>
      <trkpt lat="46.84818" lon="8.46522">
        <ele>2285</ele>
        <time>2021-08-12T10:54:52.444Z</time>
      </trkpt>
      <trkpt lat="46.84819" lon="8.4652">
        <ele>2285</ele>
        <time>2021-08-12T10:54:53.445Z</time>
      </trkpt>
      <trkpt lat="46.84819" lon="8.46519">
        <ele>2284</ele>
        <time>2021-08-12T10:54:54.445Z</time>
      </trkpt>
      <trkpt lat="46.84819" lon="8.46517">
        <ele>2284</ele>
        <time>2021-08-12T10:54:55.444Z</time>
      </trkpt>
      <trkpt lat="46.84819" lon="8.46516">
        <ele>2284</ele>
        <time>2021-08-12T10:54:56.445Z</time>
      </trkpt>
      <trkpt lat="46.84819" lon="8.46514">
        <ele>2284</ele>
        <time>2021-08-12T10:54:57.445Z</time>
      </trkpt>
      <trkpt lat="46.84819" lon="8.46513">
        <ele>2283</ele>
        <time>2021-08-12T10:54:58.444Z</time>
      </trkpt>
      <trkpt lat="46.84819" lon="8.46513">
        <ele>2282</ele>
        <time>2021-08-12T10:54:59.445Z</time>
      </trkpt>
      <trkpt lat="46.84818" lon="8.46512">
        <ele>2282</ele>
        <time>2021-08-12T10:55:00.445Z</time>
      </trkpt>
      <trkpt lat="46.84818" lon="8.46511">
        <ele>2281</ele>
        <time>2021-08-12T10:55:01.445Z</time>
      </trkpt>
      <trkpt lat="46.84817" lon="8.46509">
        <ele>2281</ele>
        <time>2021-08-12T10:55:02.445Z</time>
      </trkpt>
      <trkpt lat="46.84817" lon="8.46508">
        <ele>2280</ele>
        <time>2021-08-12T10:55:03.445Z</time>
      </trkpt>
      <trkpt lat="46.84816" lon="8.46506">
        <ele>2279</ele>
        <time>2021-08-12T10:55:04.445Z</time>
      </trkpt>
      <trkpt lat="46.84815" lon="8.46504">
        <ele>2278</ele>
        <time>2021-08-12T10:55:05.445Z</time>
      </trkpt>
      <trkpt lat="46.84814" lon="8.46502">
        <ele>2278</ele>
        <time>2021-08-12T10:55:06.445Z</time>
      </trkpt>
      <trkpt lat="46.84813" lon="8.46501">
        <ele>2278</ele>
        <time>2021-08-12T10:55:07.444Z</time>
      </trkpt>
      <trkpt lat="46.84812" lon="8.46499">
        <ele>2278</ele>
        <time>2021-08-12T10:55:08.445Z</time>
      </trkpt>
      <trkpt lat="46.8481" lon="8.46499">
        <ele>2278</ele>
        <time>2021-08-12T10:55:09.445Z</time>
      </trkpt>
      <trkpt lat="46.84809" lon="8.46498">
        <ele>2278</ele>
        <time>2021-08-12T10:55:10.444Z</time>
      </trkpt>
      <trkpt lat="46.84808" lon="8.46498">
        <ele>2278</ele>
        <time>2021-08-12T10:55:11.444Z</time>
      </trkpt>
      <trkpt lat="46.84807" lon="8.46498">
        <ele>2278</ele>
        <time>2021-08-12T10:55:12.445Z</time>
      </trkpt>
      <trkpt lat="46.84806" lon="8.46498">
        <ele>2278</ele>
        <time>2021-08-12T10:55:13.445Z</time>
      </trkpt>
      <trkpt lat="46.84805" lon="8.46498">
        <ele>2278</ele>
        <time>2021-08-12T10:55:14.445Z</time>
      </trkpt>
      <trkpt lat="46.84804" lon="8.46498">
        <ele>2279</ele>
        <time>2021-08-12T10:55:15.444Z</time>
      </trkpt>
      <trkpt lat="46.84804" lon="8.46499">
        <ele>2279</ele>
        <time>2021-08-12T10:55:16.445Z</time>
      </trkpt>
      <trkpt lat="46.84803" lon="8.46498">
        <ele>2279</ele>
        <time>2021-08-12T10:55:40.537Z</time>
      </trkpt>
      <trkpt lat="46.84802" lon="8.46498">
        <ele>2280</ele>
        <time>2021-08-12T10:55:41.536Z</time>
      </trkpt>
      <trkpt lat="46.84801" lon="8.46497">
        <ele>2280</ele>
        <time>2021-08-12T10:55:42.536Z</time>
      </trkpt>
      <trkpt lat="46.84801" lon="8.46496">
        <ele>2280</ele>
        <time>2021-08-12T10:56:18.674Z</time>
      </trkpt>
      <trkpt lat="46.848" lon="8.46495">
        <ele>2281</ele>
        <time>2021-08-12T10:56:19.673Z</time>
      </trkpt>
      <trkpt lat="46.84799" lon="8.46494">
        <ele>2281</ele>
        <time>2021-08-12T10:56:20.674Z</time>
      </trkpt>
      <trkpt lat="46.84798" lon="8.46494">
        <ele>2281</ele>
        <time>2021-08-12T10:56:21.674Z</time>
      </trkpt>
      <trkpt lat="46.84798" lon="8.46493">
        <ele>2281</ele>
        <time>2021-08-12T10:56:22.674Z</time>
      </trkpt>
      <trkpt lat="46.84797" lon="8.46492">
        <ele>2281</ele>
        <time>2021-08-12T10:56:23.674Z</time>
      </trkpt>
      <trkpt lat="46.84796" lon="8.46492">
        <ele>2281</ele>
        <time>2021-08-12T10:56:24.673Z</time>
      </trkpt>
      <trkpt lat="46.84795" lon="8.4649">
        <ele>2282</ele>
        <time>2021-08-12T10:56:25.674Z</time>
      </trkpt>
      <trkpt lat="46.84795" lon="8.46489">
        <ele>2281</ele>
        <time>2021-08-12T10:56:26.674Z</time>
      </trkpt>
      <trkpt lat="46.84794" lon="8.46488">
        <ele>2281</ele>
        <time>2021-08-12T10:56:27.673Z</time>
      </trkpt>
      <trkpt lat="46.84794" lon="8.46487">
        <ele>2281</ele>
        <time>2021-08-12T10:56:28.674Z</time>
      </trkpt>
      <trkpt lat="46.84793" lon="8.46486">
        <ele>2281</ele>
        <time>2021-08-12T10:56:29.673Z</time>
      </trkpt>
      <trkpt lat="46.84793" lon="8.46485">
        <ele>2281</ele>
        <time>2021-08-12T10:56:30.674Z</time>
      </trkpt>
      <trkpt lat="46.84793" lon="8.46484">
        <ele>2281</ele>
        <time>2021-08-12T10:56:31.673Z</time>
      </trkpt>
      <trkpt lat="46.84792" lon="8.46482">
        <ele>2282</ele>
        <time>2021-08-12T10:56:32.674Z</time>
      </trkpt>
      <trkpt lat="46.84792" lon="8.4648">
        <ele>2282</ele>
        <time>2021-08-12T10:56:33.673Z</time>
      </trkpt>
      <trkpt lat="46.84792" lon="8.46478">
        <ele>2283</ele>
        <time>2021-08-12T10:56:38.814Z</time>
      </trkpt>
      <trkpt lat="46.84792" lon="8.46477">
        <ele>2283</ele>
        <time>2021-08-12T10:57:10.656Z</time>
      </trkpt>
      <trkpt lat="46.84792" lon="8.46475">
        <ele>2283</ele>
        <time>2021-08-12T10:57:11.656Z</time>
      </trkpt>
      <trkpt lat="46.84791" lon="8.46473">
        <ele>2284</ele>
        <time>2021-08-12T10:57:12.655Z</time>
      </trkpt>
      <trkpt lat="46.84791" lon="8.46472">
        <ele>2284</ele>
        <time>2021-08-12T10:57:13.655Z</time>
      </trkpt>
      <trkpt lat="46.8479" lon="8.46471">
        <ele>2284</ele>
        <time>2021-08-12T10:57:14.656Z</time>
      </trkpt>
      <trkpt lat="46.84789" lon="8.46469">
        <ele>2284</ele>
        <time>2021-08-12T10:57:15.656Z</time>
      </trkpt>
      <trkpt lat="46.84788" lon="8.46468">
        <ele>2284</ele>
        <time>2021-08-12T10:57:16.656Z</time>
      </trkpt>
      <trkpt lat="46.84787" lon="8.46467">
        <ele>2284</ele>
        <time>2021-08-12T10:57:17.655Z</time>
      </trkpt>
      <trkpt lat="46.84787" lon="8.46466">
        <ele>2284</ele>
        <time>2021-08-12T10:57:18.655Z</time>
      </trkpt>
      <trkpt lat="46.84786" lon="8.46464">
        <ele>2284</ele>
        <time>2021-08-12T10:57:19.656Z</time>
      </trkpt>
      <trkpt lat="46.84785" lon="8.46462">
        <ele>2284</ele>
        <time>2021-08-12T10:57:20.656Z</time>
      </trkpt>
      <trkpt lat="46.84785" lon="8.46461">
        <ele>2284</ele>
        <time>2021-08-12T10:57:21.656Z</time>
      </trkpt>
      <trkpt lat="46.84784" lon="8.4646">
        <ele>2284</ele>
        <time>2021-08-12T10:57:22.656Z</time>
      </trkpt>
      <trkpt lat="46.84783" lon="8.46458">
        <ele>2284</ele>
        <time>2021-08-12T10:57:23.655Z</time>
      </trkpt>
      <trkpt lat="46.84782" lon="8.46457">
        <ele>2284</ele>
        <time>2021-08-12T10:57:24.655Z</time>
      </trkpt>
      <trkpt lat="46.84781" lon="8.46456">
        <ele>2284</ele>
        <time>2021-08-12T10:57:25.656Z</time>
      </trkpt>
      <trkpt lat="46.84781" lon="8.46455">
        <ele>2285</ele>
        <time>2021-08-12T10:57:26.655Z</time>
      </trkpt>
      <trkpt lat="46.8478" lon="8.46454">
        <ele>2285</ele>
        <time>2021-08-12T10:57:27.655Z</time>
      </trkpt>
      <trkpt lat="46.84779" lon="8.46453">
        <ele>2285</ele>
        <time>2021-08-12T10:57:28.655Z</time>
      </trkpt>
      <trkpt lat="46.84778" lon="8.46453">
        <ele>2285</ele>
        <time>2021-08-12T10:57:29.655Z</time>
      </trkpt>
      <trkpt lat="46.84778" lon="8.46452">
        <ele>2285</ele>
        <time>2021-08-12T10:57:30.655Z</time>
      </trkpt>
      <trkpt lat="46.84777" lon="8.46451">
        <ele>2286</ele>
        <time>2021-08-12T10:57:31.656Z</time>
      </trkpt>
      <trkpt lat="46.84776" lon="8.4645">
        <ele>2286</ele>
        <time>2021-08-12T10:57:32.655Z</time>
      </trkpt>
      <trkpt lat="46.84775" lon="8.4645">
        <ele>2286</ele>
        <time>2021-08-12T10:57:33.655Z</time>
      </trkpt>
      <trkpt lat="46.84774" lon="8.46449">
        <ele>2286</ele>
        <time>2021-08-12T10:57:34.656Z</time>
      </trkpt>
      <trkpt lat="46.84773" lon="8.46448">
        <ele>2286</ele>
        <time>2021-08-12T10:57:35.656Z</time>
      </trkpt>
      <trkpt lat="46.84772" lon="8.46447">
        <ele>2286</ele>
        <time>2021-08-12T10:57:36.656Z</time>
      </trkpt>
      <trkpt lat="46.8477" lon="8.46446">
        <ele>2285</ele>
        <time>2021-08-12T10:57:37.655Z</time>
      </trkpt>
      <trkpt lat="46.84769" lon="8.46445">
        <ele>2285</ele>
        <time>2021-08-12T10:57:38.656Z</time>
      </trkpt>
      <trkpt lat="46.84768" lon="8.46444">
        <ele>2285</ele>
        <time>2021-08-12T10:57:39.656Z</time>
      </trkpt>
      <trkpt lat="46.84767" lon="8.46443">
        <ele>2285</ele>
        <time>2021-08-12T10:57:40.656Z</time>
      </trkpt>
      <trkpt lat="46.84766" lon="8.46442">
        <ele>2285</ele>
        <time>2021-08-12T10:57:41.655Z</time>
      </trkpt>
      <trkpt lat="46.84765" lon="8.46441">
        <ele>2285</ele>
        <time>2021-08-12T10:57:42.655Z</time>
      </trkpt>
      <trkpt lat="46.84763" lon="8.4644">
        <ele>2285</ele>
        <time>2021-08-12T10:57:43.655Z</time>
      </trkpt>
      <trkpt lat="46.84763" lon="8.46439">
        <ele>2284</ele>
        <time>2021-08-12T10:57:44.655Z</time>
      </trkpt>
      <trkpt lat="46.84762" lon="8.46437">
        <ele>2285</ele>
        <time>2021-08-12T10:57:45.656Z</time>
      </trkpt>
      <trkpt lat="46.84762" lon="8.46436">
        <ele>2285</ele>
        <time>2021-08-12T10:57:46.656Z</time>
      </trkpt>
      <trkpt lat="46.84762" lon="8.46434">
        <ele>2285</ele>
        <time>2021-08-12T10:57:47.656Z</time>
      </trkpt>
      <trkpt lat="46.84762" lon="8.46433">
        <ele>2285</ele>
        <time>2021-08-12T10:57:48.655Z</time>
      </trkpt>
      <trkpt lat="46.84762" lon="8.46431">
        <ele>2285</ele>
        <time>2021-08-12T10:57:49.655Z</time>
      </trkpt>
      <trkpt lat="46.84762" lon="8.4643">
        <ele>2285</ele>
        <time>2021-08-12T10:57:50.655Z</time>
      </trkpt>
      <trkpt lat="46.84761" lon="8.46428">
        <ele>2285</ele>
        <time>2021-08-12T10:57:51.655Z</time>
      </trkpt>
      <trkpt lat="46.8476" lon="8.46427">
        <ele>2285</ele>
        <time>2021-08-12T10:57:52.656Z</time>
      </trkpt>
      <trkpt lat="46.8476" lon="8.46426">
        <ele>2285</ele>
        <time>2021-08-12T10:57:53.655Z</time>
      </trkpt>
      <trkpt lat="46.84759" lon="8.46424">
        <ele>2285</ele>
        <time>2021-08-12T10:57:54.656Z</time>
      </trkpt>
      <trkpt lat="46.84759" lon="8.46423">
        <ele>2286</ele>
        <time>2021-08-12T10:57:55.656Z</time>
      </trkpt>
      <trkpt lat="46.84758" lon="8.46421">
        <ele>2286</ele>
        <time>2021-08-12T10:57:56.656Z</time>
      </trkpt>
      <trkpt lat="46.84757" lon="8.4642">
        <ele>2286</ele>
        <time>2021-08-12T10:57:57.655Z</time>
      </trkpt>
      <trkpt lat="46.84756" lon="8.4642">
        <ele>2286</ele>
        <time>2021-08-12T10:57:58.655Z</time>
      </trkpt>
      <trkpt lat="46.84755" lon="8.46419">
        <ele>2286</ele>
        <time>2021-08-12T10:57:59.656Z</time>
      </trkpt>
      <trkpt lat="46.84754" lon="8.46418">
        <ele>2286</ele>
        <time>2021-08-12T10:58:00.655Z</time>
      </trkpt>
      <trkpt lat="46.84754" lon="8.46417">
        <ele>2286</ele>
        <time>2021-08-12T10:58:01.656Z</time>
      </trkpt>
      <trkpt lat="46.84753" lon="8.46416">
        <ele>2286</ele>
        <time>2021-08-12T10:58:02.655Z</time>
      </trkpt>
      <trkpt lat="46.84752" lon="8.46415">
        <ele>2286</ele>
        <time>2021-08-12T10:58:03.655Z</time>
      </trkpt>
      <trkpt lat="46.84751" lon="8.46415">
        <ele>2286</ele>
        <time>2021-08-12T10:58:04.656Z</time>
      </trkpt>
      <trkpt lat="46.8475" lon="8.46414">
        <ele>2286</ele>
        <time>2021-08-12T10:58:05.656Z</time>
      </trkpt>
      <trkpt lat="46.84749" lon="8.46414">
        <ele>2286</ele>
        <time>2021-08-12T10:58:06.655Z</time>
      </trkpt>
      <trkpt lat="46.84748" lon="8.46414">
        <ele>2287</ele>
        <time>2021-08-12T10:58:07.656Z</time>
      </trkpt>
      <trkpt lat="46.84747" lon="8.46414">
        <ele>2286</ele>
        <time>2021-08-12T10:58:08.656Z</time>
      </trkpt>
      <trkpt lat="46.84745" lon="8.46413">
        <ele>2286</ele>
        <time>2021-08-12T10:58:09.655Z</time>
      </trkpt>
      <trkpt lat="46.84744" lon="8.46413">
        <ele>2285</ele>
        <time>2021-08-12T10:58:10.656Z</time>
      </trkpt>
      <trkpt lat="46.84743" lon="8.46412">
        <ele>2285</ele>
        <time>2021-08-12T10:58:11.655Z</time>
      </trkpt>
      <trkpt lat="46.84743" lon="8.46412">
        <ele>2285</ele>
        <time>2021-08-12T10:58:12.655Z</time>
      </trkpt>
      <trkpt lat="46.84742" lon="8.46412">
        <ele>2285</ele>
        <time>2021-08-12T10:58:13.655Z</time>
      </trkpt>
      <trkpt lat="46.8474" lon="8.46412">
        <ele>2285</ele>
        <time>2021-08-12T10:58:14.656Z</time>
      </trkpt>
      <trkpt lat="46.84739" lon="8.46411">
        <ele>2285</ele>
        <time>2021-08-12T10:58:15.656Z</time>
      </trkpt>
      <trkpt lat="46.84737" lon="8.46411">
        <ele>2285</ele>
        <time>2021-08-12T10:58:16.656Z</time>
      </trkpt>
      <trkpt lat="46.84736" lon="8.4641">
        <ele>2285</ele>
        <time>2021-08-12T10:58:17.655Z</time>
      </trkpt>
      <trkpt lat="46.84735" lon="8.46408">
        <ele>2285</ele>
        <time>2021-08-12T10:58:18.656Z</time>
      </trkpt>
      <trkpt lat="46.84734" lon="8.46407">
        <ele>2285</ele>
        <time>2021-08-12T10:58:19.656Z</time>
      </trkpt>
      <trkpt lat="46.84733" lon="8.46406">
        <ele>2286</ele>
        <time>2021-08-12T10:58:20.656Z</time>
      </trkpt>
      <trkpt lat="46.84732" lon="8.46405">
        <ele>2286</ele>
        <time>2021-08-12T10:58:21.656Z</time>
      </trkpt>
      <trkpt lat="46.84731" lon="8.46404">
        <ele>2286</ele>
        <time>2021-08-12T10:58:22.656Z</time>
      </trkpt>
      <trkpt lat="46.8473" lon="8.46404">
        <ele>2286</ele>
        <time>2021-08-12T10:58:23.656Z</time>
      </trkpt>
      <trkpt lat="46.84729" lon="8.46403">
        <ele>2286</ele>
        <time>2021-08-12T10:58:24.656Z</time>
      </trkpt>
      <trkpt lat="46.84728" lon="8.46402">
        <ele>2287</ele>
        <time>2021-08-12T10:58:25.656Z</time>
      </trkpt>
      <trkpt lat="46.84727" lon="8.46401">
        <ele>2287</ele>
        <time>2021-08-12T10:58:26.656Z</time>
      </trkpt>
      <trkpt lat="46.84726" lon="8.464">
        <ele>2287</ele>
        <time>2021-08-12T10:58:27.655Z</time>
      </trkpt>
      <trkpt lat="46.84725" lon="8.46399">
        <ele>2287</ele>
        <time>2021-08-12T10:58:28.656Z</time>
      </trkpt>
      <trkpt lat="46.84724" lon="8.464">
        <ele>2287</ele>
        <time>2021-08-12T10:58:29.656Z</time>
      </trkpt>
      <trkpt lat="46.84723" lon="8.46399">
        <ele>2287</ele>
        <time>2021-08-12T10:58:30.655Z</time>
      </trkpt>
      <trkpt lat="46.84721" lon="8.46398">
        <ele>2287</ele>
        <time>2021-08-12T10:58:31.655Z</time>
      </trkpt>
      <trkpt lat="46.8472" lon="8.46398">
        <ele>2287</ele>
        <time>2021-08-12T10:58:32.656Z</time>
      </trkpt>
      <trkpt lat="46.84719" lon="8.46398">
        <ele>2287</ele>
        <time>2021-08-12T10:58:33.655Z</time>
      </trkpt>
      <trkpt lat="46.84717" lon="8.46397">
        <ele>2287</ele>
        <time>2021-08-12T10:58:34.656Z</time>
      </trkpt>
      <trkpt lat="46.84716" lon="8.46396">
        <ele>2286</ele>
        <time>2021-08-12T10:58:35.656Z</time>
      </trkpt>
      <trkpt lat="46.84714" lon="8.46395">
        <ele>2286</ele>
        <time>2021-08-12T10:58:36.656Z</time>
      </trkpt>
      <trkpt lat="46.84713" lon="8.46395">
        <ele>2285</ele>
        <time>2021-08-12T10:58:37.656Z</time>
      </trkpt>
      <trkpt lat="46.84712" lon="8.46394">
        <ele>2285</ele>
        <time>2021-08-12T10:58:38.655Z</time>
      </trkpt>
      <trkpt lat="46.84711" lon="8.46393">
        <ele>2285</ele>
        <time>2021-08-12T10:58:39.655Z</time>
      </trkpt>
      <trkpt lat="46.84709" lon="8.46392">
        <ele>2284</ele>
        <time>2021-08-12T10:58:40.655Z</time>
      </trkpt>
      <trkpt lat="46.84708" lon="8.46391">
        <ele>2285</ele>
        <time>2021-08-12T10:58:41.656Z</time>
      </trkpt>
      <trkpt lat="46.84707" lon="8.46389">
        <ele>2285</ele>
        <time>2021-08-12T10:58:42.656Z</time>
      </trkpt>
      <trkpt lat="46.84706" lon="8.46388">
        <ele>2285</ele>
        <time>2021-08-12T10:58:43.655Z</time>
      </trkpt>
      <trkpt lat="46.84705" lon="8.46387">
        <ele>2285</ele>
        <time>2021-08-12T10:58:44.656Z</time>
      </trkpt>
      <trkpt lat="46.84704" lon="8.46386">
        <ele>2285</ele>
        <time>2021-08-12T10:58:45.656Z</time>
      </trkpt>
      <trkpt lat="46.84703" lon="8.46386">
        <ele>2285</ele>
        <time>2021-08-12T10:58:46.655Z</time>
      </trkpt>
      <trkpt lat="46.84702" lon="8.46384">
        <ele>2285</ele>
        <time>2021-08-12T10:58:47.656Z</time>
      </trkpt>
      <trkpt lat="46.84701" lon="8.46383">
        <ele>2285</ele>
        <time>2021-08-12T10:58:48.655Z</time>
      </trkpt>
      <trkpt lat="46.84701" lon="8.46382">
        <ele>2285</ele>
        <time>2021-08-12T10:58:49.656Z</time>
      </trkpt>
      <trkpt lat="46.847" lon="8.46381">
        <ele>2285</ele>
        <time>2021-08-12T10:58:50.656Z</time>
      </trkpt>
      <trkpt lat="46.84699" lon="8.46379">
        <ele>2285</ele>
        <time>2021-08-12T10:58:51.656Z</time>
      </trkpt>
      <trkpt lat="46.84699" lon="8.46377">
        <ele>2285</ele>
        <time>2021-08-12T10:58:52.655Z</time>
      </trkpt>
      <trkpt lat="46.84698" lon="8.46376">
        <ele>2285</ele>
        <time>2021-08-12T10:58:53.655Z</time>
      </trkpt>
      <trkpt lat="46.84697" lon="8.46374">
        <ele>2284</ele>
        <time>2021-08-12T10:58:54.655Z</time>
      </trkpt>
      <trkpt lat="46.84696" lon="8.46373">
        <ele>2284</ele>
        <time>2021-08-12T10:58:55.656Z</time>
      </trkpt>
      <trkpt lat="46.84696" lon="8.46371">
        <ele>2283</ele>
        <time>2021-08-12T10:58:56.656Z</time>
      </trkpt>
      <trkpt lat="46.84696" lon="8.46369">
        <ele>2283</ele>
        <time>2021-08-12T10:58:57.656Z</time>
      </trkpt>
      <trkpt lat="46.84695" lon="8.46367">
        <ele>2283</ele>
        <time>2021-08-12T10:58:58.656Z</time>
      </trkpt>
      <trkpt lat="46.84695" lon="8.46365">
        <ele>2283</ele>
        <time>2021-08-12T10:58:59.656Z</time>
      </trkpt>
      <trkpt lat="46.84694" lon="8.46363">
        <ele>2283</ele>
        <time>2021-08-12T10:59:00.656Z</time>
      </trkpt>
      <trkpt lat="46.84694" lon="8.46361">
        <ele>2283</ele>
        <time>2021-08-12T10:59:01.656Z</time>
      </trkpt>
      <trkpt lat="46.84693" lon="8.4636">
        <ele>2283</ele>
        <time>2021-08-12T10:59:02.655Z</time>
      </trkpt>
      <trkpt lat="46.84693" lon="8.46358">
        <ele>2283</ele>
        <time>2021-08-12T10:59:03.656Z</time>
      </trkpt>
      <trkpt lat="46.84693" lon="8.46357">
        <ele>2283</ele>
        <time>2021-08-12T10:59:04.656Z</time>
      </trkpt>
      <trkpt lat="46.84693" lon="8.46355">
        <ele>2283</ele>
        <time>2021-08-12T10:59:05.656Z</time>
      </trkpt>
      <trkpt lat="46.84692" lon="8.46353">
        <ele>2283</ele>
        <time>2021-08-12T10:59:06.655Z</time>
      </trkpt>
      <trkpt lat="46.84691" lon="8.46352">
        <ele>2283</ele>
        <time>2021-08-12T10:59:07.655Z</time>
      </trkpt>
      <trkpt lat="46.8469" lon="8.46351">
        <ele>2283</ele>
        <time>2021-08-12T10:59:08.656Z</time>
      </trkpt>
      <trkpt lat="46.84689" lon="8.46349">
        <ele>2283</ele>
        <time>2021-08-12T10:59:09.656Z</time>
      </trkpt>
      <trkpt lat="46.84688" lon="8.46348">
        <ele>2283</ele>
        <time>2021-08-12T10:59:10.656Z</time>
      </trkpt>
      <trkpt lat="46.84687" lon="8.46347">
        <ele>2283</ele>
        <time>2021-08-12T10:59:11.656Z</time>
      </trkpt>
      <trkpt lat="46.84686" lon="8.46347">
        <ele>2283</ele>
        <time>2021-08-12T10:59:12.656Z</time>
      </trkpt>
      <trkpt lat="46.84685" lon="8.46347">
        <ele>2283</ele>
        <time>2021-08-12T10:59:13.655Z</time>
      </trkpt>
      <trkpt lat="46.84683" lon="8.46347">
        <ele>2283</ele>
        <time>2021-08-12T10:59:14.655Z</time>
      </trkpt>
      <trkpt lat="46.84682" lon="8.46348">
        <ele>2283</ele>
        <time>2021-08-12T10:59:15.655Z</time>
      </trkpt>
      <trkpt lat="46.84681" lon="8.46348">
        <ele>2283</ele>
        <time>2021-08-12T10:59:16.656Z</time>
      </trkpt>
      <trkpt lat="46.8468" lon="8.4635">
        <ele>2283</ele>
        <time>2021-08-12T10:59:17.656Z</time>
      </trkpt>
      <trkpt lat="46.84679" lon="8.4635">
        <ele>2283</ele>
        <time>2021-08-12T10:59:18.656Z</time>
      </trkpt>
      <trkpt lat="46.84679" lon="8.46352">
        <ele>2283</ele>
        <time>2021-08-12T10:59:19.656Z</time>
      </trkpt>
      <trkpt lat="46.84677" lon="8.46352">
        <ele>2283</ele>
        <time>2021-08-12T10:59:20.655Z</time>
      </trkpt>
      <trkpt lat="46.84677" lon="8.46353">
        <ele>2284</ele>
        <time>2021-08-12T10:59:21.656Z</time>
      </trkpt>
      <trkpt lat="46.84676" lon="8.46354">
        <ele>2284</ele>
        <time>2021-08-12T10:59:22.656Z</time>
      </trkpt>
      <trkpt lat="46.84675" lon="8.46355">
        <ele>2283</ele>
        <time>2021-08-12T10:59:23.655Z</time>
      </trkpt>
      <trkpt lat="46.84675" lon="8.46356">
        <ele>2283</ele>
        <time>2021-08-12T10:59:24.656Z</time>
      </trkpt>
      <trkpt lat="46.84674" lon="8.46357">
        <ele>2283</ele>
        <time>2021-08-12T10:59:25.656Z</time>
      </trkpt>
      <trkpt lat="46.84673" lon="8.46358">
        <ele>2283</ele>
        <time>2021-08-12T10:59:26.655Z</time>
      </trkpt>
      <trkpt lat="46.84673" lon="8.46359">
        <ele>2283</ele>
        <time>2021-08-12T10:59:27.656Z</time>
      </trkpt>
      <trkpt lat="46.84672" lon="8.4636">
        <ele>2283</ele>
        <time>2021-08-12T10:59:28.655Z</time>
      </trkpt>
      <trkpt lat="46.84671" lon="8.46361">
        <ele>2283</ele>
        <time>2021-08-12T10:59:29.655Z</time>
      </trkpt>
      <trkpt lat="46.8467" lon="8.46362">
        <ele>2283</ele>
        <time>2021-08-12T10:59:30.656Z</time>
      </trkpt>
      <trkpt lat="46.84669" lon="8.46362">
        <ele>2283</ele>
        <time>2021-08-12T10:59:31.656Z</time>
      </trkpt>
      <trkpt lat="46.84668" lon="8.46363">
        <ele>2283</ele>
        <time>2021-08-12T10:59:32.656Z</time>
      </trkpt>
      <trkpt lat="46.84667" lon="8.46363">
        <ele>2283</ele>
        <time>2021-08-12T10:59:33.655Z</time>
      </trkpt>
      <trkpt lat="46.84666" lon="8.46364">
        <ele>2283</ele>
        <time>2021-08-12T10:59:34.655Z</time>
      </trkpt>
      <trkpt lat="46.84665" lon="8.46364">
        <ele>2283</ele>
        <time>2021-08-12T10:59:35.655Z</time>
      </trkpt>
      <trkpt lat="46.84664" lon="8.46363">
        <ele>2283</ele>
        <time>2021-08-12T10:59:36.655Z</time>
      </trkpt>
      <trkpt lat="46.84663" lon="8.46363">
        <ele>2284</ele>
        <time>2021-08-12T10:59:37.656Z</time>
      </trkpt>
      <trkpt lat="46.84662" lon="8.46363">
        <ele>2284</ele>
        <time>2021-08-12T10:59:38.655Z</time>
      </trkpt>
      <trkpt lat="46.84661" lon="8.46364">
        <ele>2285</ele>
        <time>2021-08-12T10:59:39.656Z</time>
      </trkpt>
      <trkpt lat="46.8466" lon="8.46364">
        <ele>2285</ele>
        <time>2021-08-12T10:59:40.655Z</time>
      </trkpt>
      <trkpt lat="46.84659" lon="8.46364">
        <ele>2285</ele>
        <time>2021-08-12T10:59:41.655Z</time>
      </trkpt>
      <trkpt lat="46.84658" lon="8.46364">
        <ele>2286</ele>
        <time>2021-08-12T10:59:42.656Z</time>
      </trkpt>
      <trkpt lat="46.84657" lon="8.46364">
        <ele>2286</ele>
        <time>2021-08-12T10:59:43.656Z</time>
      </trkpt>
      <trkpt lat="46.84656" lon="8.46364">
        <ele>2286</ele>
        <time>2021-08-12T10:59:44.656Z</time>
      </trkpt>
      <trkpt lat="46.84655" lon="8.46363">
        <ele>2286</ele>
        <time>2021-08-12T10:59:45.656Z</time>
      </trkpt>
      <trkpt lat="46.84653" lon="8.46362">
        <ele>2286</ele>
        <time>2021-08-12T10:59:46.656Z</time>
      </trkpt>
      <trkpt lat="46.84652" lon="8.46362">
        <ele>2286</ele>
        <time>2021-08-12T10:59:47.655Z</time>
      </trkpt>
      <trkpt lat="46.84651" lon="8.46361">
        <ele>2286</ele>
        <time>2021-08-12T10:59:48.656Z</time>
      </trkpt>
      <trkpt lat="46.8465" lon="8.46361">
        <ele>2287</ele>
        <time>2021-08-12T10:59:49.656Z</time>
      </trkpt>
      <trkpt lat="46.84649" lon="8.46361">
        <ele>2287</ele>
        <time>2021-08-12T10:59:50.656Z</time>
      </trkpt>
      <trkpt lat="46.84648" lon="8.4636">
        <ele>2287</ele>
        <time>2021-08-12T10:59:51.655Z</time>
      </trkpt>
      <trkpt lat="46.84647" lon="8.46359">
        <ele>2287</ele>
        <time>2021-08-12T10:59:52.656Z</time>
      </trkpt>
      <trkpt lat="46.84646" lon="8.46359">
        <ele>2287</ele>
        <time>2021-08-12T10:59:53.656Z</time>
      </trkpt>
      <trkpt lat="46.84645" lon="8.46358">
        <ele>2287</ele>
        <time>2021-08-12T10:59:54.655Z</time>
      </trkpt>
      <trkpt lat="46.84644" lon="8.46358">
        <ele>2287</ele>
        <time>2021-08-12T10:59:55.656Z</time>
      </trkpt>
      <trkpt lat="46.84643" lon="8.46357">
        <ele>2287</ele>
        <time>2021-08-12T10:59:56.656Z</time>
      </trkpt>
      <trkpt lat="46.84642" lon="8.46357">
        <ele>2287</ele>
        <time>2021-08-12T10:59:57.656Z</time>
      </trkpt>
      <trkpt lat="46.84641" lon="8.46356">
        <ele>2287</ele>
        <time>2021-08-12T10:59:58.656Z</time>
      </trkpt>
      <trkpt lat="46.84641" lon="8.46355">
        <ele>2287</ele>
        <time>2021-08-12T10:59:59.656Z</time>
      </trkpt>
      <trkpt lat="46.8464" lon="8.46353">
        <ele>2287</ele>
        <time>2021-08-12T11:00:00.655Z</time>
      </trkpt>
      <trkpt lat="46.84639" lon="8.46352">
        <ele>2287</ele>
        <time>2021-08-12T11:00:01.656Z</time>
      </trkpt>
      <trkpt lat="46.84639" lon="8.46351">
        <ele>2287</ele>
        <time>2021-08-12T11:00:02.656Z</time>
      </trkpt>
      <trkpt lat="46.84638" lon="8.4635">
        <ele>2287</ele>
        <time>2021-08-12T11:00:03.656Z</time>
      </trkpt>
      <trkpt lat="46.84638" lon="8.46348">
        <ele>2287</ele>
        <time>2021-08-12T11:00:04.656Z</time>
      </trkpt>
      <trkpt lat="46.84638" lon="8.46347">
        <ele>2288</ele>
        <time>2021-08-12T11:00:05.656Z</time>
      </trkpt>
      <trkpt lat="46.84637" lon="8.46345">
        <ele>2288</ele>
        <time>2021-08-12T11:00:06.655Z</time>
      </trkpt>
      <trkpt lat="46.84637" lon="8.46344">
        <ele>2288</ele>
        <time>2021-08-12T11:00:07.656Z</time>
      </trkpt>
      <trkpt lat="46.84637" lon="8.46342">
        <ele>2289</ele>
        <time>2021-08-12T11:00:08.655Z</time>
      </trkpt>
      <trkpt lat="46.84637" lon="8.46341">
        <ele>2289</ele>
        <time>2021-08-12T11:00:09.655Z</time>
      </trkpt>
      <trkpt lat="46.84637" lon="8.46339">
        <ele>2289</ele>
        <time>2021-08-12T11:00:10.656Z</time>
      </trkpt>
      <trkpt lat="46.84637" lon="8.46338">
        <ele>2290</ele>
        <time>2021-08-12T11:00:20.683Z</time>
      </trkpt>
      <trkpt lat="46.84638" lon="8.46336">
        <ele>2290</ele>
        <time>2021-08-12T11:00:21.683Z</time>
      </trkpt>
      <trkpt lat="46.84638" lon="8.46335">
        <ele>2291</ele>
        <time>2021-08-12T11:00:22.683Z</time>
      </trkpt>
      <trkpt lat="46.84637" lon="8.46333">
        <ele>2291</ele>
        <time>2021-08-12T11:00:23.682Z</time>
      </trkpt>
      <trkpt lat="46.84637" lon="8.46332">
        <ele>2291</ele>
        <time>2021-08-12T11:00:24.682Z</time>
      </trkpt>
      <trkpt lat="46.84637" lon="8.46331">
        <ele>2291</ele>
        <time>2021-08-12T11:00:25.683Z</time>
      </trkpt>
      <trkpt lat="46.84637" lon="8.46329">
        <ele>2291</ele>
        <time>2021-08-12T11:00:26.683Z</time>
      </trkpt>
      <trkpt lat="46.84637" lon="8.46327">
        <ele>2291</ele>
        <time>2021-08-12T11:00:27.683Z</time>
      </trkpt>
      <trkpt lat="46.84637" lon="8.46325">
        <ele>2291</ele>
        <time>2021-08-12T11:00:28.683Z</time>
      </trkpt>
      <trkpt lat="46.84637" lon="8.46324">
        <ele>2290</ele>
        <time>2021-08-12T11:00:29.682Z</time>
      </trkpt>
      <trkpt lat="46.84637" lon="8.46322">
        <ele>2290</ele>
        <time>2021-08-12T11:00:30.683Z</time>
      </trkpt>
      <trkpt lat="46.84638" lon="8.4632">
        <ele>2290</ele>
        <time>2021-08-12T11:00:31.682Z</time>
      </trkpt>
      <trkpt lat="46.84638" lon="8.46318">
        <ele>2290</ele>
        <time>2021-08-12T11:00:32.683Z</time>
      </trkpt>
      <trkpt lat="46.84638" lon="8.46317">
        <ele>2291</ele>
        <time>2021-08-12T11:00:33.682Z</time>
      </trkpt>
      <trkpt lat="46.84637" lon="8.46315">
        <ele>2291</ele>
        <time>2021-08-12T11:00:34.683Z</time>
      </trkpt>
      <trkpt lat="46.84637" lon="8.46314">
        <ele>2291</ele>
        <time>2021-08-12T11:00:35.683Z</time>
      </trkpt>
      <trkpt lat="46.84637" lon="8.46312">
        <ele>2291</ele>
        <time>2021-08-12T11:00:36.682Z</time>
      </trkpt>
      <trkpt lat="46.84637" lon="8.46311">
        <ele>2291</ele>
        <time>2021-08-12T11:00:37.683Z</time>
      </trkpt>
      <trkpt lat="46.84637" lon="8.46309">
        <ele>2292</ele>
        <time>2021-08-12T11:00:38.682Z</time>
      </trkpt>
      <trkpt lat="46.84638" lon="8.46307">
        <ele>2292</ele>
        <time>2021-08-12T11:00:39.683Z</time>
      </trkpt>
      <trkpt lat="46.84638" lon="8.46305">
        <ele>2292</ele>
        <time>2021-08-12T11:00:40.683Z</time>
      </trkpt>
      <trkpt lat="46.84638" lon="8.46304">
        <ele>2293</ele>
        <time>2021-08-12T11:00:41.683Z</time>
      </trkpt>
      <trkpt lat="46.84639" lon="8.46302">
        <ele>2292</ele>
        <time>2021-08-12T11:00:42.682Z</time>
      </trkpt>
      <trkpt lat="46.84639" lon="8.46301">
        <ele>2292</ele>
        <time>2021-08-12T11:00:43.683Z</time>
      </trkpt>
      <trkpt lat="46.84639" lon="8.46299">
        <ele>2292</ele>
        <time>2021-08-12T11:00:44.682Z</time>
      </trkpt>
      <trkpt lat="46.8464" lon="8.46297">
        <ele>2291</ele>
        <time>2021-08-12T11:00:45.683Z</time>
      </trkpt>
      <trkpt lat="46.8464" lon="8.46295">
        <ele>2291</ele>
        <time>2021-08-12T11:00:46.682Z</time>
      </trkpt>
      <trkpt lat="46.8464" lon="8.46293">
        <ele>2290</ele>
        <time>2021-08-12T11:00:47.683Z</time>
      </trkpt>
      <trkpt lat="46.8464" lon="8.46291">
        <ele>2290</ele>
        <time>2021-08-12T11:00:48.683Z</time>
      </trkpt>
      <trkpt lat="46.84639" lon="8.46289">
        <ele>2290</ele>
        <time>2021-08-12T11:00:49.683Z</time>
      </trkpt>
      <trkpt lat="46.84639" lon="8.46287">
        <ele>2290</ele>
        <time>2021-08-12T11:00:50.683Z</time>
      </trkpt>
      <trkpt lat="46.84638" lon="8.46286">
        <ele>2289</ele>
        <time>2021-08-12T11:00:51.683Z</time>
      </trkpt>
      <trkpt lat="46.84638" lon="8.46285">
        <ele>2289</ele>
        <time>2021-08-12T11:00:52.683Z</time>
      </trkpt>
      <trkpt lat="46.84638" lon="8.46283">
        <ele>2289</ele>
        <time>2021-08-12T11:00:53.683Z</time>
      </trkpt>
      <trkpt lat="46.84637" lon="8.46282">
        <ele>2289</ele>
        <time>2021-08-12T11:00:54.682Z</time>
      </trkpt>
      <trkpt lat="46.84637" lon="8.46281">
        <ele>2289</ele>
        <time>2021-08-12T11:00:55.682Z</time>
      </trkpt>
      <trkpt lat="46.84636" lon="8.4628">
        <ele>2290</ele>
        <time>2021-08-12T11:00:56.683Z</time>
      </trkpt>
      <trkpt lat="46.84635" lon="8.46279">
        <ele>2290</ele>
        <time>2021-08-12T11:00:57.682Z</time>
      </trkpt>
      <trkpt lat="46.84635" lon="8.46278">
        <ele>2290</ele>
        <time>2021-08-12T11:00:58.682Z</time>
      </trkpt>
      <trkpt lat="46.84634" lon="8.46277">
        <ele>2290</ele>
        <time>2021-08-12T11:00:59.682Z</time>
      </trkpt>
      <trkpt lat="46.84634" lon="8.46276">
        <ele>2290</ele>
        <time>2021-08-12T11:01:00.682Z</time>
      </trkpt>
      <trkpt lat="46.84633" lon="8.46275">
        <ele>2290</ele>
        <time>2021-08-12T11:01:01.682Z</time>
      </trkpt>
      <trkpt lat="46.84633" lon="8.46274">
        <ele>2289</ele>
        <time>2021-08-12T11:01:02.682Z</time>
      </trkpt>
      <trkpt lat="46.84632" lon="8.46273">
        <ele>2289</ele>
        <time>2021-08-12T11:01:03.682Z</time>
      </trkpt>
      <trkpt lat="46.84631" lon="8.46272">
        <ele>2289</ele>
        <time>2021-08-12T11:01:04.682Z</time>
      </trkpt>
      <trkpt lat="46.84631" lon="8.46271">
        <ele>2288</ele>
        <time>2021-08-12T11:01:05.682Z</time>
      </trkpt>
      <trkpt lat="46.8463" lon="8.4627">
        <ele>2288</ele>
        <time>2021-08-12T11:01:06.682Z</time>
      </trkpt>
      <trkpt lat="46.8463" lon="8.46269">
        <ele>2288</ele>
        <time>2021-08-12T11:01:07.682Z</time>
      </trkpt>
      <trkpt lat="46.8463" lon="8.46269">
        <ele>2288</ele>
        <time>2021-08-12T11:01:08.682Z</time>
      </trkpt>
      <trkpt lat="46.84629" lon="8.46269">
        <ele>2288</ele>
        <time>2021-08-12T11:01:09.682Z</time>
      </trkpt>
      <trkpt lat="46.84628" lon="8.46269">
        <ele>2287</ele>
        <time>2021-08-12T11:01:10.682Z</time>
      </trkpt>
      <trkpt lat="46.84627" lon="8.46268">
        <ele>2287</ele>
        <time>2021-08-12T11:01:11.682Z</time>
      </trkpt>
      <trkpt lat="46.84627" lon="8.46267">
        <ele>2287</ele>
        <time>2021-08-12T11:01:12.682Z</time>
      </trkpt>
      <trkpt lat="46.84627" lon="8.46266">
        <ele>2288</ele>
        <time>2021-08-12T11:01:13.682Z</time>
      </trkpt>
      <trkpt lat="46.84626" lon="8.46265">
        <ele>2288</ele>
        <time>2021-08-12T11:01:14.682Z</time>
      </trkpt>
      <trkpt lat="46.84625" lon="8.46265">
        <ele>2288</ele>
        <time>2021-08-12T11:01:15.683Z</time>
      </trkpt>
      <trkpt lat="46.84624" lon="8.46264">
        <ele>2288</ele>
        <time>2021-08-12T11:01:16.683Z</time>
      </trkpt>
      <trkpt lat="46.84624" lon="8.46263">
        <ele>2289</ele>
        <time>2021-08-12T11:01:17.682Z</time>
      </trkpt>
      <trkpt lat="46.84623" lon="8.46263">
        <ele>2289</ele>
        <time>2021-08-12T11:01:18.682Z</time>
      </trkpt>
      <trkpt lat="46.84622" lon="8.46263">
        <ele>2289</ele>
        <time>2021-08-12T11:01:19.683Z</time>
      </trkpt>
      <trkpt lat="46.84617" lon="8.46269">
        <ele>2287</ele>
        <time>2021-08-13T07:19:09.153Z</time>
      </trkpt>
      <trkpt lat="46.84617" lon="8.46269">
        <ele>2287</ele>
        <time>2021-08-13T07:19:09.153Z</time>
      </trkpt>
      <trkpt lat="46.84617" lon="8.46269">
        <ele>2287</ele>
        <time>2021-08-13T07:19:09.153Z</time>
      </trkpt>
      <trkpt lat="46.84617" lon="8.46268">
        <ele>2287</ele>
        <time>2021-08-13T07:19:10.154Z</time>
      </trkpt>
      <trkpt lat="46.84617" lon="8.46268">
        <ele>2287</ele>
        <time>2021-08-13T07:19:11.154Z</time>
      </trkpt>
      <trkpt lat="46.84617" lon="8.46267">
        <ele>2287</ele>
        <time>2021-08-13T07:19:12.154Z</time>
      </trkpt>
      <trkpt lat="46.84617" lon="8.46267">
        <ele>2287</ele>
        <time>2021-08-13T07:19:13.153Z</time>
      </trkpt>
      <trkpt lat="46.84617" lon="8.46266">
        <ele>2287</ele>
        <time>2021-08-13T07:19:14.153Z</time>
      </trkpt>
      <trkpt lat="46.84616" lon="8.46264">
        <ele>2288</ele>
        <time>2021-08-13T07:19:15.153Z</time>
      </trkpt>
      <trkpt lat="46.84617" lon="8.46263">
        <ele>2288</ele>
        <time>2021-08-13T07:19:16.153Z</time>
      </trkpt>
      <trkpt lat="46.84617" lon="8.46262">
        <ele>2288</ele>
        <time>2021-08-13T07:19:17.153Z</time>
      </trkpt>
      <trkpt lat="46.84618" lon="8.4626">
        <ele>2288</ele>
        <time>2021-08-13T07:19:18.153Z</time>
      </trkpt>
      <trkpt lat="46.84619" lon="8.46259">
        <ele>2288</ele>
        <time>2021-08-13T07:19:19.153Z</time>
      </trkpt>
      <trkpt lat="46.84619" lon="8.46258">
        <ele>2288</ele>
        <time>2021-08-13T07:19:20.153Z</time>
      </trkpt>
      <trkpt lat="46.84619" lon="8.46258">
        <ele>2288</ele>
        <time>2021-08-13T07:19:21.153Z</time>
      </trkpt>
      <trkpt lat="46.84618" lon="8.46257">
        <ele>2288</ele>
        <time>2021-08-13T07:19:22.153Z</time>
      </trkpt>
      <trkpt lat="46.84618" lon="8.46257">
        <ele>2288</ele>
        <time>2021-08-13T07:19:23.154Z</time>
      </trkpt>
      <trkpt lat="46.84618" lon="8.46256">
        <ele>2288</ele>
        <time>2021-08-13T07:19:24.153Z</time>
      </trkpt>
      <trkpt lat="46.84619" lon="8.46255">
        <ele>2288</ele>
        <time>2021-08-13T07:19:25.154Z</time>
      </trkpt>
      <trkpt lat="46.8462" lon="8.46254">
        <ele>2288</ele>
        <time>2021-08-13T07:19:26.153Z</time>
      </trkpt>
      <trkpt lat="46.8462" lon="8.46253">
        <ele>2288</ele>
        <time>2021-08-13T07:19:27.154Z</time>
      </trkpt>
      <trkpt lat="46.84621" lon="8.46251">
        <ele>2288</ele>
        <time>2021-08-13T07:19:28.153Z</time>
      </trkpt>
      <trkpt lat="46.84621" lon="8.46251">
        <ele>2288</ele>
        <time>2021-08-13T07:19:29.153Z</time>
      </trkpt>
      <trkpt lat="46.8462" lon="8.4625">
        <ele>2287</ele>
        <time>2021-08-13T07:19:30.153Z</time>
      </trkpt>
      <trkpt lat="46.8462" lon="8.4625">
        <ele>2287</ele>
        <time>2021-08-13T07:19:31.154Z</time>
      </trkpt>
      <trkpt lat="46.8462" lon="8.46251">
        <ele>2287</ele>
        <time>2021-08-13T07:19:32.154Z</time>
      </trkpt>
      <trkpt lat="46.84621" lon="8.46251">
        <ele>2287</ele>
        <time>2021-08-13T07:19:33.153Z</time>
      </trkpt>
      <trkpt lat="46.84621" lon="8.46251">
        <ele>2286</ele>
        <time>2021-08-13T07:19:34.154Z</time>
      </trkpt>
      <trkpt lat="46.84621" lon="8.46251">
        <ele>2286</ele>
        <time>2021-08-13T07:19:35.154Z</time>
      </trkpt>
      <trkpt lat="46.84621" lon="8.4625">
        <ele>2285</ele>
        <time>2021-08-13T07:19:36.154Z</time>
      </trkpt>
      <trkpt lat="46.84622" lon="8.4625">
        <ele>2285</ele>
        <time>2021-08-13T07:19:37.154Z</time>
      </trkpt>
      <trkpt lat="46.84622" lon="8.46248">
        <ele>2284</ele>
        <time>2021-08-13T07:19:38.153Z</time>
      </trkpt>
      <trkpt lat="46.84622" lon="8.46247">
        <ele>2284</ele>
        <time>2021-08-13T07:19:39.154Z</time>
      </trkpt>
      <trkpt lat="46.84623" lon="8.46246">
        <ele>2284</ele>
        <time>2021-08-13T07:19:40.154Z</time>
      </trkpt>
      <trkpt lat="46.84623" lon="8.46245">
        <ele>2284</ele>
        <time>2021-08-13T07:19:41.153Z</time>
      </trkpt>
      <trkpt lat="46.84623" lon="8.46244">
        <ele>2284</ele>
        <time>2021-08-13T07:19:42.154Z</time>
      </trkpt>
      <trkpt lat="46.84623" lon="8.46243">
        <ele>2283</ele>
        <time>2021-08-13T07:19:43.154Z</time>
      </trkpt>
      <trkpt lat="46.84623" lon="8.46242">
        <ele>2283</ele>
        <time>2021-08-13T07:19:44.154Z</time>
      </trkpt>
      <trkpt lat="46.84623" lon="8.4624">
        <ele>2283</ele>
        <time>2021-08-13T07:19:45.153Z</time>
      </trkpt>
      <trkpt lat="46.84623" lon="8.4624">
        <ele>2283</ele>
        <time>2021-08-13T07:19:46.154Z</time>
      </trkpt>
      <trkpt lat="46.84623" lon="8.46239">
        <ele>2283</ele>
        <time>2021-08-13T07:19:47.154Z</time>
      </trkpt>
      <trkpt lat="46.84623" lon="8.46238">
        <ele>2283</ele>
        <time>2021-08-13T07:19:48.154Z</time>
      </trkpt>
      <trkpt lat="46.84623" lon="8.46237">
        <ele>2283</ele>
        <time>2021-08-13T07:19:49.153Z</time>
      </trkpt>
      <trkpt lat="46.84623" lon="8.46236">
        <ele>2283</ele>
        <time>2021-08-13T07:19:50.154Z</time>
      </trkpt>
      <trkpt lat="46.84622" lon="8.46236">
        <ele>2283</ele>
        <time>2021-08-13T07:19:51.153Z</time>
      </trkpt>
      <trkpt lat="46.84622" lon="8.46235">
        <ele>2283</ele>
        <time>2021-08-13T07:19:52.154Z</time>
      </trkpt>
      <trkpt lat="46.84621" lon="8.46234">
        <ele>2283</ele>
        <time>2021-08-13T07:19:53.153Z</time>
      </trkpt>
      <trkpt lat="46.84622" lon="8.46233">
        <ele>2283</ele>
        <time>2021-08-13T07:19:54.153Z</time>
      </trkpt>
      <trkpt lat="46.84622" lon="8.46232">
        <ele>2283</ele>
        <time>2021-08-13T07:19:55.153Z</time>
      </trkpt>
      <trkpt lat="46.84622" lon="8.46232">
        <ele>2283</ele>
        <time>2021-08-13T07:19:56.154Z</time>
      </trkpt>
      <trkpt lat="46.84622" lon="8.46231">
        <ele>2283</ele>
        <time>2021-08-13T07:19:57.153Z</time>
      </trkpt>
      <trkpt lat="46.84622" lon="8.4623">
        <ele>2283</ele>
        <time>2021-08-13T07:19:58.154Z</time>
      </trkpt>
      <trkpt lat="46.84623" lon="8.46229">
        <ele>2283</ele>
        <time>2021-08-13T07:19:59.154Z</time>
      </trkpt>
      <trkpt lat="46.84623" lon="8.46228">
        <ele>2283</ele>
        <time>2021-08-13T07:20:00.153Z</time>
      </trkpt>
      <trkpt lat="46.84623" lon="8.46227">
        <ele>2283</ele>
        <time>2021-08-13T07:20:01.154Z</time>
      </trkpt>
      <trkpt lat="46.84623" lon="8.46226">
        <ele>2283</ele>
        <time>2021-08-13T07:20:02.153Z</time>
      </trkpt>
      <trkpt lat="46.84623" lon="8.46225">
        <ele>2283</ele>
        <time>2021-08-13T07:20:03.154Z</time>
      </trkpt>
      <trkpt lat="46.84624" lon="8.46224">
        <ele>2282</ele>
        <time>2021-08-13T07:20:04.154Z</time>
      </trkpt>
      <trkpt lat="46.84624" lon="8.46224">
        <ele>2282</ele>
        <time>2021-08-13T07:20:05.154Z</time>
      </trkpt>
      <trkpt lat="46.84624" lon="8.46223">
        <ele>2282</ele>
        <time>2021-08-13T07:20:06.154Z</time>
      </trkpt>
      <trkpt lat="46.84624" lon="8.46222">
        <ele>2282</ele>
        <time>2021-08-13T07:20:07.154Z</time>
      </trkpt>
      <trkpt lat="46.84624" lon="8.46222">
        <ele>2282</ele>
        <time>2021-08-13T07:20:08.154Z</time>
      </trkpt>
      <trkpt lat="46.84624" lon="8.46221">
        <ele>2282</ele>
        <time>2021-08-13T07:20:09.154Z</time>
      </trkpt>
      <trkpt lat="46.84624" lon="8.4622">
        <ele>2281</ele>
        <time>2021-08-13T07:20:10.154Z</time>
      </trkpt>
      <trkpt lat="46.84624" lon="8.46219">
        <ele>2281</ele>
        <time>2021-08-13T07:20:11.154Z</time>
      </trkpt>
      <trkpt lat="46.84625" lon="8.46218">
        <ele>2280</ele>
        <time>2021-08-13T07:20:12.154Z</time>
      </trkpt>
      <trkpt lat="46.84625" lon="8.46217">
        <ele>2280</ele>
        <time>2021-08-13T07:20:13.154Z</time>
      </trkpt>
      <trkpt lat="46.84626" lon="8.46216">
        <ele>2279</ele>
        <time>2021-08-13T07:20:14.154Z</time>
      </trkpt>
      <trkpt lat="46.84626" lon="8.46215">
        <ele>2278</ele>
        <time>2021-08-13T07:20:15.153Z</time>
      </trkpt>
      <trkpt lat="46.84627" lon="8.46214">
        <ele>2278</ele>
        <time>2021-08-13T07:20:16.153Z</time>
      </trkpt>
      <trkpt lat="46.84627" lon="8.46212">
        <ele>2277</ele>
        <time>2021-08-13T07:20:17.154Z</time>
      </trkpt>
      <trkpt lat="46.84628" lon="8.46211">
        <ele>2277</ele>
        <time>2021-08-13T07:20:18.153Z</time>
      </trkpt>
      <trkpt lat="46.84628" lon="8.4621">
        <ele>2276</ele>
        <time>2021-08-13T07:20:19.154Z</time>
      </trkpt>
      <trkpt lat="46.84629" lon="8.46209">
        <ele>2276</ele>
        <time>2021-08-13T07:20:20.154Z</time>
      </trkpt>
      <trkpt lat="46.84629" lon="8.46208">
        <ele>2275</ele>
        <time>2021-08-13T07:20:21.153Z</time>
      </trkpt>
      <trkpt lat="46.8463" lon="8.46207">
        <ele>2275</ele>
        <time>2021-08-13T07:20:22.154Z</time>
      </trkpt>
      <trkpt lat="46.8463" lon="8.46206">
        <ele>2275</ele>
        <time>2021-08-13T07:20:23.154Z</time>
      </trkpt>
      <trkpt lat="46.84631" lon="8.46205">
        <ele>2275</ele>
        <time>2021-08-13T07:20:24.153Z</time>
      </trkpt>
      <trkpt lat="46.84631" lon="8.46204">
        <ele>2274</ele>
        <time>2021-08-13T07:20:25.154Z</time>
      </trkpt>
      <trkpt lat="46.84632" lon="8.46203">
        <ele>2274</ele>
        <time>2021-08-13T07:20:26.153Z</time>
      </trkpt>
      <trkpt lat="46.84633" lon="8.46203">
        <ele>2274</ele>
        <time>2021-08-13T07:20:27.154Z</time>
      </trkpt>
      <trkpt lat="46.84633" lon="8.46202">
        <ele>2273</ele>
        <time>2021-08-13T07:20:28.153Z</time>
      </trkpt>
      <trkpt lat="46.84633" lon="8.46201">
        <ele>2273</ele>
        <time>2021-08-13T07:20:29.154Z</time>
      </trkpt>
      <trkpt lat="46.84634" lon="8.462">
        <ele>2273</ele>
        <time>2021-08-13T07:20:30.154Z</time>
      </trkpt>
      <trkpt lat="46.84634" lon="8.46199">
        <ele>2273</ele>
        <time>2021-08-13T07:20:31.154Z</time>
      </trkpt>
      <trkpt lat="46.84634" lon="8.46199">
        <ele>2273</ele>
        <time>2021-08-13T07:20:32.153Z</time>
      </trkpt>
      <trkpt lat="46.84634" lon="8.46198">
        <ele>2273</ele>
        <time>2021-08-13T07:20:33.154Z</time>
      </trkpt>
      <trkpt lat="46.84635" lon="8.46197">
        <ele>2272</ele>
        <time>2021-08-13T07:20:34.153Z</time>
      </trkpt>
      <trkpt lat="46.84635" lon="8.46196">
        <ele>2272</ele>
        <time>2021-08-13T07:20:35.153Z</time>
      </trkpt>
      <trkpt lat="46.84636" lon="8.46195">
        <ele>2272</ele>
        <time>2021-08-13T07:20:36.153Z</time>
      </trkpt>
      <trkpt lat="46.84636" lon="8.46194">
        <ele>2272</ele>
        <time>2021-08-13T07:20:37.154Z</time>
      </trkpt>
      <trkpt lat="46.84636" lon="8.46193">
        <ele>2272</ele>
        <time>2021-08-13T07:20:38.154Z</time>
      </trkpt>
      <trkpt lat="46.84637" lon="8.46192">
        <ele>2272</ele>
        <time>2021-08-13T07:20:39.153Z</time>
      </trkpt>
      <trkpt lat="46.84637" lon="8.46191">
        <ele>2272</ele>
        <time>2021-08-13T07:20:40.154Z</time>
      </trkpt>
      <trkpt lat="46.84638" lon="8.4619">
        <ele>2272</ele>
        <time>2021-08-13T07:20:41.154Z</time>
      </trkpt>
      <trkpt lat="46.84638" lon="8.46189">
        <ele>2272</ele>
        <time>2021-08-13T07:20:42.154Z</time>
      </trkpt>
      <trkpt lat="46.84639" lon="8.46188">
        <ele>2272</ele>
        <time>2021-08-13T07:20:43.154Z</time>
      </trkpt>
      <trkpt lat="46.84639" lon="8.46187">
        <ele>2272</ele>
        <time>2021-08-13T07:20:44.153Z</time>
      </trkpt>
      <trkpt lat="46.84639" lon="8.46187">
        <ele>2273</ele>
        <time>2021-08-13T07:20:45.154Z</time>
      </trkpt>
      <trkpt lat="46.84639" lon="8.46186">
        <ele>2273</ele>
        <time>2021-08-13T07:20:46.154Z</time>
      </trkpt>
      <trkpt lat="46.84638" lon="8.46187">
        <ele>2275</ele>
        <time>2021-08-13T07:20:47.156Z</time>
      </trkpt>
      <trkpt lat="46.84638" lon="8.46187">
        <ele>2275</ele>
        <time>2021-08-13T07:20:48.155Z</time>
      </trkpt>
      <trkpt lat="46.84637" lon="8.46188">
        <ele>2275</ele>
        <time>2021-08-13T07:20:49.155Z</time>
      </trkpt>
      <trkpt lat="46.84636" lon="8.46188">
        <ele>2275</ele>
        <time>2021-08-13T07:20:50.156Z</time>
      </trkpt>
      <trkpt lat="46.84635" lon="8.4619">
        <ele>2275</ele>
        <time>2021-08-13T07:20:51.155Z</time>
      </trkpt>
      <trkpt lat="46.84634" lon="8.4619">
        <ele>2275</ele>
        <time>2021-08-13T07:20:52.155Z</time>
      </trkpt>
      <trkpt lat="46.84633" lon="8.4619">
        <ele>2275</ele>
        <time>2021-08-13T07:20:53.155Z</time>
      </trkpt>
      <trkpt lat="46.84632" lon="8.4619">
        <ele>2275</ele>
        <time>2021-08-13T07:20:54.156Z</time>
      </trkpt>
      <trkpt lat="46.84631" lon="8.4619">
        <ele>2275</ele>
        <time>2021-08-13T07:20:55.155Z</time>
      </trkpt>
      <trkpt lat="46.8463" lon="8.4619">
        <ele>2274</ele>
        <time>2021-08-13T07:20:56.155Z</time>
      </trkpt>
      <trkpt lat="46.84629" lon="8.46189">
        <ele>2274</ele>
        <time>2021-08-13T07:20:57.156Z</time>
      </trkpt>
      <trkpt lat="46.84628" lon="8.46189">
        <ele>2274</ele>
        <time>2021-08-13T07:20:58.155Z</time>
      </trkpt>
      <trkpt lat="46.84628" lon="8.46189">
        <ele>2274</ele>
        <time>2021-08-13T07:20:59.155Z</time>
      </trkpt>
      <trkpt lat="46.84627" lon="8.46188">
        <ele>2274</ele>
        <time>2021-08-13T07:21:00.156Z</time>
      </trkpt>
      <trkpt lat="46.84627" lon="8.46188">
        <ele>2274</ele>
        <time>2021-08-13T07:21:01.156Z</time>
      </trkpt>
      <trkpt lat="46.84627" lon="8.46187">
        <ele>2274</ele>
        <time>2021-08-13T07:21:02.156Z</time>
      </trkpt>
      <trkpt lat="46.84627" lon="8.46186">
        <ele>2274</ele>
        <time>2021-08-13T07:21:03.156Z</time>
      </trkpt>
      <trkpt lat="46.84627" lon="8.46185">
        <ele>2274</ele>
        <time>2021-08-13T07:21:04.156Z</time>
      </trkpt>
      <trkpt lat="46.84627" lon="8.46184">
        <ele>2274</ele>
        <time>2021-08-13T07:21:05.156Z</time>
      </trkpt>
      <trkpt lat="46.84628" lon="8.46183">
        <ele>2274</ele>
        <time>2021-08-13T07:21:06.156Z</time>
      </trkpt>
      <trkpt lat="46.84628" lon="8.46182">
        <ele>2274</ele>
        <time>2021-08-13T07:21:07.156Z</time>
      </trkpt>
      <trkpt lat="46.84628" lon="8.4618">
        <ele>2274</ele>
        <time>2021-08-13T07:21:08.155Z</time>
      </trkpt>
      <trkpt lat="46.84629" lon="8.46179">
        <ele>2274</ele>
        <time>2021-08-13T07:21:09.156Z</time>
      </trkpt>
      <trkpt lat="46.84629" lon="8.46178">
        <ele>2273</ele>
        <time>2021-08-13T07:21:10.155Z</time>
      </trkpt>
      <trkpt lat="46.84629" lon="8.46177">
        <ele>2273</ele>
        <time>2021-08-13T07:21:11.156Z</time>
      </trkpt>
      <trkpt lat="46.8463" lon="8.46176">
        <ele>2273</ele>
        <time>2021-08-13T07:21:12.155Z</time>
      </trkpt>
      <trkpt lat="46.8463" lon="8.46175">
        <ele>2273</ele>
        <time>2021-08-13T07:21:13.156Z</time>
      </trkpt>
      <trkpt lat="46.84631" lon="8.46174">
        <ele>2273</ele>
        <time>2021-08-13T07:21:14.156Z</time>
      </trkpt>
      <trkpt lat="46.84631" lon="8.46173">
        <ele>2273</ele>
        <time>2021-08-13T07:21:15.156Z</time>
      </trkpt>
      <trkpt lat="46.84632" lon="8.46171">
        <ele>2273</ele>
        <time>2021-08-13T07:21:16.155Z</time>
      </trkpt>
      <trkpt lat="46.84632" lon="8.46171">
        <ele>2273</ele>
        <time>2021-08-13T07:21:17.156Z</time>
      </trkpt>
      <trkpt lat="46.84632" lon="8.4617">
        <ele>2272</ele>
        <time>2021-08-13T07:21:18.155Z</time>
      </trkpt>
      <trkpt lat="46.84632" lon="8.46169">
        <ele>2272</ele>
        <time>2021-08-13T07:21:19.155Z</time>
      </trkpt>
      <trkpt lat="46.84633" lon="8.46168">
        <ele>2272</ele>
        <time>2021-08-13T07:21:20.156Z</time>
      </trkpt>
      <trkpt lat="46.84633" lon="8.46167">
        <ele>2272</ele>
        <time>2021-08-13T07:21:21.156Z</time>
      </trkpt>
      <trkpt lat="46.84634" lon="8.46166">
        <ele>2271</ele>
        <time>2021-08-13T07:21:22.156Z</time>
      </trkpt>
      <trkpt lat="46.84634" lon="8.46165">
        <ele>2271</ele>
        <time>2021-08-13T07:21:23.156Z</time>
      </trkpt>
      <trkpt lat="46.84635" lon="8.46164">
        <ele>2271</ele>
        <time>2021-08-13T07:21:24.155Z</time>
      </trkpt>
      <trkpt lat="46.84635" lon="8.46163">
        <ele>2271</ele>
        <time>2021-08-13T07:21:25.156Z</time>
      </trkpt>
      <trkpt lat="46.84636" lon="8.46162">
        <ele>2271</ele>
        <time>2021-08-13T07:21:26.155Z</time>
      </trkpt>
      <trkpt lat="46.84637" lon="8.46162">
        <ele>2271</ele>
        <time>2021-08-13T07:21:27.155Z</time>
      </trkpt>
      <trkpt lat="46.84638" lon="8.46162">
        <ele>2271</ele>
        <time>2021-08-13T07:21:28.155Z</time>
      </trkpt>
      <trkpt lat="46.84639" lon="8.46162">
        <ele>2271</ele>
        <time>2021-08-13T07:21:29.155Z</time>
      </trkpt>
      <trkpt lat="46.8464" lon="8.46162">
        <ele>2270</ele>
        <time>2021-08-13T07:21:30.156Z</time>
      </trkpt>
      <trkpt lat="46.8464" lon="8.46161">
        <ele>2270</ele>
        <time>2021-08-13T07:21:31.156Z</time>
      </trkpt>
      <trkpt lat="46.8464" lon="8.46161">
        <ele>2270</ele>
        <time>2021-08-13T07:21:32.155Z</time>
      </trkpt>
      <trkpt lat="46.84641" lon="8.46161">
        <ele>2270</ele>
        <time>2021-08-13T07:21:33.156Z</time>
      </trkpt>
      <trkpt lat="46.84641" lon="8.46161">
        <ele>2270</ele>
        <time>2021-08-13T07:21:34.156Z</time>
      </trkpt>
      <trkpt lat="46.84642" lon="8.46161">
        <ele>2270</ele>
        <time>2021-08-13T07:21:35.156Z</time>
      </trkpt>
      <trkpt lat="46.84642" lon="8.4616">
        <ele>2270</ele>
        <time>2021-08-13T07:21:36.156Z</time>
      </trkpt>
      <trkpt lat="46.84643" lon="8.4616">
        <ele>2270</ele>
        <time>2021-08-13T07:21:37.155Z</time>
      </trkpt>
      <trkpt lat="46.84644" lon="8.46159">
        <ele>2270</ele>
        <time>2021-08-13T07:21:38.155Z</time>
      </trkpt>
      <trkpt lat="46.84645" lon="8.4616">
        <ele>2270</ele>
        <time>2021-08-13T07:21:39.155Z</time>
      </trkpt>
      <trkpt lat="46.84645" lon="8.4616">
        <ele>2270</ele>
        <time>2021-08-13T07:21:40.155Z</time>
      </trkpt>
      <trkpt lat="46.84646" lon="8.46159">
        <ele>2269</ele>
        <time>2021-08-13T07:21:41.155Z</time>
      </trkpt>
      <trkpt lat="46.84647" lon="8.46158">
        <ele>2269</ele>
        <time>2021-08-13T07:21:42.155Z</time>
      </trkpt>
      <trkpt lat="46.84648" lon="8.46158">
        <ele>2269</ele>
        <time>2021-08-13T07:21:43.155Z</time>
      </trkpt>
      <trkpt lat="46.84649" lon="8.46157">
        <ele>2268</ele>
        <time>2021-08-13T07:21:44.156Z</time>
      </trkpt>
      <trkpt lat="46.8465" lon="8.46157">
        <ele>2268</ele>
        <time>2021-08-13T07:21:45.155Z</time>
      </trkpt>
      <trkpt lat="46.84651" lon="8.46156">
        <ele>2267</ele>
        <time>2021-08-13T07:21:46.155Z</time>
      </trkpt>
      <trkpt lat="46.84651" lon="8.46156">
        <ele>2267</ele>
        <time>2021-08-13T07:21:47.155Z</time>
      </trkpt>
      <trkpt lat="46.84652" lon="8.46155">
        <ele>2266</ele>
        <time>2021-08-13T07:21:48.155Z</time>
      </trkpt>
      <trkpt lat="46.84652" lon="8.46155">
        <ele>2265</ele>
        <time>2021-08-13T07:21:49.155Z</time>
      </trkpt>
      <trkpt lat="46.84653" lon="8.46155">
        <ele>2265</ele>
        <time>2021-08-13T07:21:50.155Z</time>
      </trkpt>
      <trkpt lat="46.84654" lon="8.46154">
        <ele>2264</ele>
        <time>2021-08-13T07:21:51.155Z</time>
      </trkpt>
      <trkpt lat="46.84654" lon="8.46154">
        <ele>2263</ele>
        <time>2021-08-13T07:21:52.155Z</time>
      </trkpt>
      <trkpt lat="46.84655" lon="8.46153">
        <ele>2263</ele>
        <time>2021-08-13T07:21:53.155Z</time>
      </trkpt>
      <trkpt lat="46.84655" lon="8.46153">
        <ele>2262</ele>
        <time>2021-08-13T07:21:54.155Z</time>
      </trkpt>
      <trkpt lat="46.84656" lon="8.46152">
        <ele>2262</ele>
        <time>2021-08-13T07:21:55.155Z</time>
      </trkpt>
      <trkpt lat="46.84656" lon="8.46151">
        <ele>2262</ele>
        <time>2021-08-13T07:21:56.155Z</time>
      </trkpt>
      <trkpt lat="46.84656" lon="8.46151">
        <ele>2261</ele>
        <time>2021-08-13T07:21:57.155Z</time>
      </trkpt>
      <trkpt lat="46.84656" lon="8.4615">
        <ele>2261</ele>
        <time>2021-08-13T07:21:58.155Z</time>
      </trkpt>
      <trkpt lat="46.84657" lon="8.4615">
        <ele>2261</ele>
        <time>2021-08-13T07:21:59.155Z</time>
      </trkpt>
      <trkpt lat="46.84657" lon="8.46151">
        <ele>2260</ele>
        <time>2021-08-13T07:22:00.155Z</time>
      </trkpt>
      <trkpt lat="46.84656" lon="8.46151">
        <ele>2260</ele>
        <time>2021-08-13T07:22:01.155Z</time>
      </trkpt>
      <trkpt lat="46.84656" lon="8.46151">
        <ele>2259</ele>
        <time>2021-08-13T07:22:02.155Z</time>
      </trkpt>
      <trkpt lat="46.84656" lon="8.46151">
        <ele>2259</ele>
        <time>2021-08-13T07:22:03.155Z</time>
      </trkpt>
      <trkpt lat="46.84658" lon="8.4615">
        <ele>2257</ele>
        <time>2021-08-13T07:22:04.155Z</time>
      </trkpt>
      <trkpt lat="46.84658" lon="8.4615">
        <ele>2257</ele>
        <time>2021-08-13T07:22:05.156Z</time>
      </trkpt>
      <trkpt lat="46.84659" lon="8.4615">
        <ele>2257</ele>
        <time>2021-08-13T07:22:06.155Z</time>
      </trkpt>
      <trkpt lat="46.84659" lon="8.46149">
        <ele>2256</ele>
        <time>2021-08-13T07:22:07.155Z</time>
      </trkpt>
      <trkpt lat="46.8466" lon="8.46149">
        <ele>2256</ele>
        <time>2021-08-13T07:22:08.156Z</time>
      </trkpt>
      <trkpt lat="46.8466" lon="8.46148">
        <ele>2256</ele>
        <time>2021-08-13T07:22:09.156Z</time>
      </trkpt>
      <trkpt lat="46.84661" lon="8.46147">
        <ele>2255</ele>
        <time>2021-08-13T07:22:10.155Z</time>
      </trkpt>
      <trkpt lat="46.84661" lon="8.46146">
        <ele>2255</ele>
        <time>2021-08-13T07:22:11.156Z</time>
      </trkpt>
      <trkpt lat="46.84662" lon="8.46144">
        <ele>2254</ele>
        <time>2021-08-13T07:22:12.155Z</time>
      </trkpt>
      <trkpt lat="46.84662" lon="8.46143">
        <ele>2254</ele>
        <time>2021-08-13T07:22:13.156Z</time>
      </trkpt>
      <trkpt lat="46.84662" lon="8.46143">
        <ele>2253</ele>
        <time>2021-08-13T07:22:14.156Z</time>
      </trkpt>
      <trkpt lat="46.84662" lon="8.46142">
        <ele>2253</ele>
        <time>2021-08-13T07:22:15.155Z</time>
      </trkpt>
      <trkpt lat="46.84663" lon="8.46141">
        <ele>2253</ele>
        <time>2021-08-13T07:22:16.156Z</time>
      </trkpt>
      <trkpt lat="46.84663" lon="8.4614">
        <ele>2253</ele>
        <time>2021-08-13T07:22:17.156Z</time>
      </trkpt>
      <trkpt lat="46.84664" lon="8.46139">
        <ele>2252</ele>
        <time>2021-08-13T07:22:18.156Z</time>
      </trkpt>
      <trkpt lat="46.84664" lon="8.46138">
        <ele>2252</ele>
        <time>2021-08-13T07:22:19.156Z</time>
      </trkpt>
      <trkpt lat="46.84665" lon="8.46137">
        <ele>2252</ele>
        <time>2021-08-13T07:22:20.156Z</time>
      </trkpt>
      <trkpt lat="46.84665" lon="8.46136">
        <ele>2251</ele>
        <time>2021-08-13T07:22:21.155Z</time>
      </trkpt>
      <trkpt lat="46.84666" lon="8.46134">
        <ele>2251</ele>
        <time>2021-08-13T07:22:22.155Z</time>
      </trkpt>
      <trkpt lat="46.84666" lon="8.46133">
        <ele>2251</ele>
        <time>2021-08-13T07:22:23.156Z</time>
      </trkpt>
      <trkpt lat="46.84667" lon="8.46132">
        <ele>2251</ele>
        <time>2021-08-13T07:22:24.156Z</time>
      </trkpt>
      <trkpt lat="46.84668" lon="8.4613">
        <ele>2251</ele>
        <time>2021-08-13T07:22:25.156Z</time>
      </trkpt>
      <trkpt lat="46.84668" lon="8.46129">
        <ele>2251</ele>
        <time>2021-08-13T07:22:26.156Z</time>
      </trkpt>
      <trkpt lat="46.84669" lon="8.46127">
        <ele>2251</ele>
        <time>2021-08-13T07:22:27.156Z</time>
      </trkpt>
      <trkpt lat="46.8467" lon="8.46125">
        <ele>2251</ele>
        <time>2021-08-13T07:22:28.156Z</time>
      </trkpt>
      <trkpt lat="46.84671" lon="8.46123">
        <ele>2251</ele>
        <time>2021-08-13T07:22:29.156Z</time>
      </trkpt>
      <trkpt lat="46.84672" lon="8.46122">
        <ele>2252</ele>
        <time>2021-08-13T07:22:30.155Z</time>
      </trkpt>
      <trkpt lat="46.84672" lon="8.46121">
        <ele>2252</ele>
        <time>2021-08-13T07:22:31.156Z</time>
      </trkpt>
      <trkpt lat="46.84673" lon="8.4612">
        <ele>2251</ele>
        <time>2021-08-13T07:22:32.156Z</time>
      </trkpt>
      <trkpt lat="46.84674" lon="8.46118">
        <ele>2251</ele>
        <time>2021-08-13T07:22:33.156Z</time>
      </trkpt>
      <trkpt lat="46.84674" lon="8.46118">
        <ele>2251</ele>
        <time>2021-08-13T07:22:34.156Z</time>
      </trkpt>
      <trkpt lat="46.84675" lon="8.46116">
        <ele>2251</ele>
        <time>2021-08-13T07:22:35.155Z</time>
      </trkpt>
      <trkpt lat="46.84676" lon="8.46115">
        <ele>2250</ele>
        <time>2021-08-13T07:22:36.156Z</time>
      </trkpt>
      <trkpt lat="46.84676" lon="8.46113">
        <ele>2250</ele>
        <time>2021-08-13T07:22:37.156Z</time>
      </trkpt>
      <trkpt lat="46.84677" lon="8.46112">
        <ele>2249</ele>
        <time>2021-08-13T07:22:38.156Z</time>
      </trkpt>
      <trkpt lat="46.84676" lon="8.4611">
        <ele>2249</ele>
        <time>2021-08-13T07:22:39.156Z</time>
      </trkpt>
      <trkpt lat="46.84676" lon="8.46109">
        <ele>2248</ele>
        <time>2021-08-13T07:22:40.155Z</time>
      </trkpt>
      <trkpt lat="46.84676" lon="8.46108">
        <ele>2248</ele>
        <time>2021-08-13T07:22:41.155Z</time>
      </trkpt>
      <trkpt lat="46.84676" lon="8.46107">
        <ele>2248</ele>
        <time>2021-08-13T07:22:42.155Z</time>
      </trkpt>
      <trkpt lat="46.84677" lon="8.46106">
        <ele>2248</ele>
        <time>2021-08-13T07:22:43.155Z</time>
      </trkpt>
      <trkpt lat="46.84677" lon="8.46105">
        <ele>2247</ele>
        <time>2021-08-13T07:22:44.155Z</time>
      </trkpt>
      <trkpt lat="46.84677" lon="8.46104">
        <ele>2247</ele>
        <time>2021-08-13T07:22:45.155Z</time>
      </trkpt>
      <trkpt lat="46.84678" lon="8.46102">
        <ele>2247</ele>
        <time>2021-08-13T07:22:46.155Z</time>
      </trkpt>
      <trkpt lat="46.84677" lon="8.46101">
        <ele>2247</ele>
        <time>2021-08-13T07:22:47.155Z</time>
      </trkpt>
      <trkpt lat="46.84677" lon="8.461">
        <ele>2247</ele>
        <time>2021-08-13T07:22:48.155Z</time>
      </trkpt>
      <trkpt lat="46.84677" lon="8.46099">
        <ele>2248</ele>
        <time>2021-08-13T07:22:49.155Z</time>
      </trkpt>
      <trkpt lat="46.84678" lon="8.46097">
        <ele>2248</ele>
        <time>2021-08-13T07:22:50.155Z</time>
      </trkpt>
      <trkpt lat="46.84678" lon="8.46096">
        <ele>2248</ele>
        <time>2021-08-13T07:22:51.155Z</time>
      </trkpt>
      <trkpt lat="46.84679" lon="8.46095">
        <ele>2248</ele>
        <time>2021-08-13T07:22:52.155Z</time>
      </trkpt>
      <trkpt lat="46.84679" lon="8.46094">
        <ele>2248</ele>
        <time>2021-08-13T07:22:53.155Z</time>
      </trkpt>
      <trkpt lat="46.84679" lon="8.46092">
        <ele>2248</ele>
        <time>2021-08-13T07:22:54.155Z</time>
      </trkpt>
      <trkpt lat="46.84679" lon="8.46091">
        <ele>2248</ele>
        <time>2021-08-13T07:22:55.156Z</time>
      </trkpt>
      <trkpt lat="46.8468" lon="8.46089">
        <ele>2247</ele>
        <time>2021-08-13T07:22:56.155Z</time>
      </trkpt>
      <trkpt lat="46.8468" lon="8.46088">
        <ele>2247</ele>
        <time>2021-08-13T07:22:57.155Z</time>
      </trkpt>
      <trkpt lat="46.8468" lon="8.46087">
        <ele>2247</ele>
        <time>2021-08-13T07:22:58.156Z</time>
      </trkpt>
      <trkpt lat="46.8468" lon="8.46087">
        <ele>2247</ele>
        <time>2021-08-13T07:22:59.155Z</time>
      </trkpt>
      <trkpt lat="46.8468" lon="8.46085">
        <ele>2248</ele>
        <time>2021-08-13T07:23:00.156Z</time>
      </trkpt>
      <trkpt lat="46.8468" lon="8.46084">
        <ele>2248</ele>
        <time>2021-08-13T07:23:01.155Z</time>
      </trkpt>
      <trkpt lat="46.8468" lon="8.46083">
        <ele>2248</ele>
        <time>2021-08-13T07:23:02.156Z</time>
      </trkpt>
      <trkpt lat="46.8468" lon="8.46083">
        <ele>2249</ele>
        <time>2021-08-13T07:23:03.155Z</time>
      </trkpt>
      <trkpt lat="46.8468" lon="8.46083">
        <ele>2249</ele>
        <time>2021-08-13T07:23:04.155Z</time>
      </trkpt>
      <trkpt lat="46.8468" lon="8.46083">
        <ele>2242</ele>
        <time>2021-08-13T07:23:05.157Z</time>
      </trkpt>
      <trkpt lat="46.8468" lon="8.4608">
        <ele>2244</ele>
        <time>2021-08-13T07:23:06.158Z</time>
      </trkpt>
      <trkpt lat="46.8468" lon="8.46078">
        <ele>2243</ele>
        <time>2021-08-13T07:23:07.157Z</time>
      </trkpt>
      <trkpt lat="46.8468" lon="8.46077">
        <ele>2244</ele>
        <time>2021-08-13T07:23:08.158Z</time>
      </trkpt>
      <trkpt lat="46.8468" lon="8.46075">
        <ele>2244</ele>
        <time>2021-08-13T07:23:09.158Z</time>
      </trkpt>
      <trkpt lat="46.8468" lon="8.46074">
        <ele>2244</ele>
        <time>2021-08-13T07:23:10.158Z</time>
      </trkpt>
      <trkpt lat="46.8468" lon="8.46073">
        <ele>2244</ele>
        <time>2021-08-13T07:23:11.158Z</time>
      </trkpt>
      <trkpt lat="46.8468" lon="8.46071">
        <ele>2244</ele>
        <time>2021-08-13T07:23:12.158Z</time>
      </trkpt>
      <trkpt lat="46.84679" lon="8.4607">
        <ele>2244</ele>
        <time>2021-08-13T07:23:13.158Z</time>
      </trkpt>
      <trkpt lat="46.84679" lon="8.46069">
        <ele>2244</ele>
        <time>2021-08-13T07:23:14.157Z</time>
      </trkpt>
      <trkpt lat="46.8468" lon="8.46068">
        <ele>2244</ele>
        <time>2021-08-13T07:23:15.158Z</time>
      </trkpt>
      <trkpt lat="46.8468" lon="8.46066">
        <ele>2243</ele>
        <time>2021-08-13T07:23:16.158Z</time>
      </trkpt>
      <trkpt lat="46.8468" lon="8.46065">
        <ele>2243</ele>
        <time>2021-08-13T07:23:17.158Z</time>
      </trkpt>
      <trkpt lat="46.84681" lon="8.46063">
        <ele>2243</ele>
        <time>2021-08-13T07:23:18.158Z</time>
      </trkpt>
      <trkpt lat="46.84681" lon="8.46062">
        <ele>2243</ele>
        <time>2021-08-13T07:23:19.158Z</time>
      </trkpt>
      <trkpt lat="46.84681" lon="8.46061">
        <ele>2243</ele>
        <time>2021-08-13T07:23:20.158Z</time>
      </trkpt>
      <trkpt lat="46.84681" lon="8.4606">
        <ele>2242</ele>
        <time>2021-08-13T07:23:21.158Z</time>
      </trkpt>
      <trkpt lat="46.84681" lon="8.46058">
        <ele>2242</ele>
        <time>2021-08-13T07:23:22.157Z</time>
      </trkpt>
      <trkpt lat="46.84681" lon="8.46057">
        <ele>2242</ele>
        <time>2021-08-13T07:23:23.158Z</time>
      </trkpt>
      <trkpt lat="46.84681" lon="8.46055">
        <ele>2241</ele>
        <time>2021-08-13T07:23:24.158Z</time>
      </trkpt>
      <trkpt lat="46.84682" lon="8.46054">
        <ele>2242</ele>
        <time>2021-08-13T07:23:25.158Z</time>
      </trkpt>
      <trkpt lat="46.84682" lon="8.46052">
        <ele>2242</ele>
        <time>2021-08-13T07:23:26.158Z</time>
      </trkpt>
      <trkpt lat="46.84682" lon="8.46051">
        <ele>2242</ele>
        <time>2021-08-13T07:23:27.157Z</time>
      </trkpt>
      <trkpt lat="46.84683" lon="8.46049">
        <ele>2243</ele>
        <time>2021-08-13T07:23:28.158Z</time>
      </trkpt>
      <trkpt lat="46.84683" lon="8.46048">
        <ele>2243</ele>
        <time>2021-08-13T07:23:29.157Z</time>
      </trkpt>
      <trkpt lat="46.84684" lon="8.46047">
        <ele>2243</ele>
        <time>2021-08-13T07:23:30.158Z</time>
      </trkpt>
      <trkpt lat="46.84683" lon="8.46045">
        <ele>2243</ele>
        <time>2021-08-13T07:23:31.157Z</time>
      </trkpt>
      <trkpt lat="46.84683" lon="8.46043">
        <ele>2242</ele>
        <time>2021-08-13T07:23:32.157Z</time>
      </trkpt>
      <trkpt lat="46.84684" lon="8.46042">
        <ele>2242</ele>
        <time>2021-08-13T07:23:33.157Z</time>
      </trkpt>
      <trkpt lat="46.84684" lon="8.4604">
        <ele>2241</ele>
        <time>2021-08-13T07:23:34.157Z</time>
      </trkpt>
      <trkpt lat="46.84685" lon="8.46039">
        <ele>2241</ele>
        <time>2021-08-13T07:23:35.157Z</time>
      </trkpt>
      <trkpt lat="46.84685" lon="8.46037">
        <ele>2240</ele>
        <time>2021-08-13T07:23:36.158Z</time>
      </trkpt>
      <trkpt lat="46.84685" lon="8.46035">
        <ele>2239</ele>
        <time>2021-08-13T07:23:37.158Z</time>
      </trkpt>
      <trkpt lat="46.84685" lon="8.46033">
        <ele>2238</ele>
        <time>2021-08-13T07:23:38.157Z</time>
      </trkpt>
      <trkpt lat="46.84685" lon="8.46032">
        <ele>2238</ele>
        <time>2021-08-13T07:23:39.157Z</time>
      </trkpt>
      <trkpt lat="46.84685" lon="8.46031">
        <ele>2237</ele>
        <time>2021-08-13T07:23:40.157Z</time>
      </trkpt>
      <trkpt lat="46.84685" lon="8.46031">
        <ele>2237</ele>
        <time>2021-08-13T07:23:41.157Z</time>
      </trkpt>
      <trkpt lat="46.84685" lon="8.4603">
        <ele>2236</ele>
        <time>2021-08-13T07:23:42.157Z</time>
      </trkpt>
      <trkpt lat="46.84686" lon="8.46029">
        <ele>2236</ele>
        <time>2021-08-13T07:23:43.158Z</time>
      </trkpt>
      <trkpt lat="46.84686" lon="8.46029">
        <ele>2235</ele>
        <time>2021-08-13T07:23:44.157Z</time>
      </trkpt>
      <trkpt lat="46.84686" lon="8.46028">
        <ele>2235</ele>
        <time>2021-08-13T07:23:45.158Z</time>
      </trkpt>
      <trkpt lat="46.84687" lon="8.46027">
        <ele>2235</ele>
        <time>2021-08-13T07:23:46.157Z</time>
      </trkpt>
      <trkpt lat="46.84687" lon="8.46025">
        <ele>2235</ele>
        <time>2021-08-13T07:23:47.158Z</time>
      </trkpt>
      <trkpt lat="46.84687" lon="8.46024">
        <ele>2235</ele>
        <time>2021-08-13T07:23:48.157Z</time>
      </trkpt>
      <trkpt lat="46.84687" lon="8.46023">
        <ele>2235</ele>
        <time>2021-08-13T07:23:49.158Z</time>
      </trkpt>
      <trkpt lat="46.84687" lon="8.46021">
        <ele>2235</ele>
        <time>2021-08-13T07:23:50.157Z</time>
      </trkpt>
      <trkpt lat="46.84687" lon="8.46019">
        <ele>2235</ele>
        <time>2021-08-13T07:23:51.157Z</time>
      </trkpt>
      <trkpt lat="46.84687" lon="8.46018">
        <ele>2235</ele>
        <time>2021-08-13T07:23:52.158Z</time>
      </trkpt>
      <trkpt lat="46.84688" lon="8.46017">
        <ele>2235</ele>
        <time>2021-08-13T07:23:53.157Z</time>
      </trkpt>
      <trkpt lat="46.84688" lon="8.46016">
        <ele>2236</ele>
        <time>2021-08-13T07:23:54.157Z</time>
      </trkpt>
      <trkpt lat="46.84689" lon="8.46015">
        <ele>2236</ele>
        <time>2021-08-13T07:23:55.157Z</time>
      </trkpt>
      <trkpt lat="46.84689" lon="8.46014">
        <ele>2236</ele>
        <time>2021-08-13T07:23:56.157Z</time>
      </trkpt>
      <trkpt lat="46.8469" lon="8.46013">
        <ele>2236</ele>
        <time>2021-08-13T07:23:57.157Z</time>
      </trkpt>
      <trkpt lat="46.8469" lon="8.46012">
        <ele>2236</ele>
        <time>2021-08-13T07:23:58.158Z</time>
      </trkpt>
      <trkpt lat="46.84691" lon="8.46012">
        <ele>2235</ele>
        <time>2021-08-13T07:23:59.158Z</time>
      </trkpt>
      <trkpt lat="46.84692" lon="8.46011">
        <ele>2234</ele>
        <time>2021-08-13T07:24:00.157Z</time>
      </trkpt>
      <trkpt lat="46.84693" lon="8.4601">
        <ele>2234</ele>
        <time>2021-08-13T07:24:01.158Z</time>
      </trkpt>
      <trkpt lat="46.84693" lon="8.4601">
        <ele>2233</ele>
        <time>2021-08-13T07:24:02.157Z</time>
      </trkpt>
      <trkpt lat="46.84694" lon="8.46009">
        <ele>2232</ele>
        <time>2021-08-13T07:24:03.157Z</time>
      </trkpt>
      <trkpt lat="46.84695" lon="8.46009">
        <ele>2231</ele>
        <time>2021-08-13T07:24:04.157Z</time>
      </trkpt>
      <trkpt lat="46.84696" lon="8.46009">
        <ele>2230</ele>
        <time>2021-08-13T07:24:05.157Z</time>
      </trkpt>
      <trkpt lat="46.84697" lon="8.46009">
        <ele>2230</ele>
        <time>2021-08-13T07:24:06.158Z</time>
      </trkpt>
      <trkpt lat="46.84698" lon="8.46009">
        <ele>2229</ele>
        <time>2021-08-13T07:24:07.157Z</time>
      </trkpt>
      <trkpt lat="46.84699" lon="8.46008">
        <ele>2228</ele>
        <time>2021-08-13T07:24:08.158Z</time>
      </trkpt>
      <trkpt lat="46.847" lon="8.46008">
        <ele>2228</ele>
        <time>2021-08-13T07:24:09.157Z</time>
      </trkpt>
      <trkpt lat="46.847" lon="8.46007">
        <ele>2227</ele>
        <time>2021-08-13T07:24:10.157Z</time>
      </trkpt>
      <trkpt lat="46.84701" lon="8.46006">
        <ele>2227</ele>
        <time>2021-08-13T07:24:11.157Z</time>
      </trkpt>
      <trkpt lat="46.84702" lon="8.46006">
        <ele>2226</ele>
        <time>2021-08-13T07:24:12.157Z</time>
      </trkpt>
      <trkpt lat="46.84704" lon="8.46005">
        <ele>2226</ele>
        <time>2021-08-13T07:24:13.157Z</time>
      </trkpt>
      <trkpt lat="46.84704" lon="8.46004">
        <ele>2226</ele>
        <time>2021-08-13T07:24:14.158Z</time>
      </trkpt>
      <trkpt lat="46.84705" lon="8.46004">
        <ele>2225</ele>
        <time>2021-08-13T07:24:15.157Z</time>
      </trkpt>
      <trkpt lat="46.84706" lon="8.46003">
        <ele>2225</ele>
        <time>2021-08-13T07:24:16.157Z</time>
      </trkpt>
      <trkpt lat="46.84706" lon="8.46002">
        <ele>2225</ele>
        <time>2021-08-13T07:24:17.157Z</time>
      </trkpt>
      <trkpt lat="46.84707" lon="8.46001">
        <ele>2225</ele>
        <time>2021-08-13T07:24:18.157Z</time>
      </trkpt>
      <trkpt lat="46.84708" lon="8.46">
        <ele>2225</ele>
        <time>2021-08-13T07:24:19.158Z</time>
      </trkpt>
      <trkpt lat="46.84709" lon="8.46">
        <ele>2224</ele>
        <time>2021-08-13T07:24:20.158Z</time>
      </trkpt>
      <trkpt lat="46.84709" lon="8.45999">
        <ele>2224</ele>
        <time>2021-08-13T07:24:21.157Z</time>
      </trkpt>
      <trkpt lat="46.8471" lon="8.45997">
        <ele>2224</ele>
        <time>2021-08-13T07:24:22.157Z</time>
      </trkpt>
      <trkpt lat="46.8471" lon="8.45996">
        <ele>2224</ele>
        <time>2021-08-13T07:24:23.157Z</time>
      </trkpt>
      <trkpt lat="46.84711" lon="8.45996">
        <ele>2224</ele>
        <time>2021-08-13T07:24:24.158Z</time>
      </trkpt>
      <trkpt lat="46.84711" lon="8.45995">
        <ele>2224</ele>
        <time>2021-08-13T07:24:25.157Z</time>
      </trkpt>
      <trkpt lat="46.84712" lon="8.45994">
        <ele>2224</ele>
        <time>2021-08-13T07:24:26.157Z</time>
      </trkpt>
      <trkpt lat="46.84712" lon="8.45993">
        <ele>2224</ele>
        <time>2021-08-13T07:24:27.157Z</time>
      </trkpt>
      <trkpt lat="46.84713" lon="8.45992">
        <ele>2224</ele>
        <time>2021-08-13T07:24:28.157Z</time>
      </trkpt>
      <trkpt lat="46.84713" lon="8.45991">
        <ele>2224</ele>
        <time>2021-08-13T07:24:29.158Z</time>
      </trkpt>
      <trkpt lat="46.84714" lon="8.4599">
        <ele>2224</ele>
        <time>2021-08-13T07:24:30.158Z</time>
      </trkpt>
      <trkpt lat="46.84714" lon="8.45988">
        <ele>2224</ele>
        <time>2021-08-13T07:24:31.158Z</time>
      </trkpt>
      <trkpt lat="46.84715" lon="8.45987">
        <ele>2224</ele>
        <time>2021-08-13T07:24:32.157Z</time>
      </trkpt>
      <trkpt lat="46.84716" lon="8.45986">
        <ele>2224</ele>
        <time>2021-08-13T07:24:33.157Z</time>
      </trkpt>
      <trkpt lat="46.84716" lon="8.45984">
        <ele>2224</ele>
        <time>2021-08-13T07:24:34.157Z</time>
      </trkpt>
      <trkpt lat="46.84716" lon="8.45982">
        <ele>2224</ele>
        <time>2021-08-13T07:24:35.158Z</time>
      </trkpt>
      <trkpt lat="46.84716" lon="8.45981">
        <ele>2224</ele>
        <time>2021-08-13T07:24:36.158Z</time>
      </trkpt>
      <trkpt lat="46.84716" lon="8.4598">
        <ele>2224</ele>
        <time>2021-08-13T07:24:37.157Z</time>
      </trkpt>
      <trkpt lat="46.84716" lon="8.45979">
        <ele>2224</ele>
        <time>2021-08-13T07:24:38.157Z</time>
      </trkpt>
      <trkpt lat="46.84716" lon="8.45977">
        <ele>2224</ele>
        <time>2021-08-13T07:24:39.157Z</time>
      </trkpt>
      <trkpt lat="46.84717" lon="8.45976">
        <ele>2224</ele>
        <time>2021-08-13T07:24:40.157Z</time>
      </trkpt>
      <trkpt lat="46.84717" lon="8.45975">
        <ele>2224</ele>
        <time>2021-08-13T07:24:41.157Z</time>
      </trkpt>
      <trkpt lat="46.84718" lon="8.45974">
        <ele>2224</ele>
        <time>2021-08-13T07:24:42.157Z</time>
      </trkpt>
      <trkpt lat="46.84718" lon="8.45972">
        <ele>2224</ele>
        <time>2021-08-13T07:24:43.157Z</time>
      </trkpt>
      <trkpt lat="46.84718" lon="8.45971">
        <ele>2224</ele>
        <time>2021-08-13T07:24:44.157Z</time>
      </trkpt>
      <trkpt lat="46.84719" lon="8.4597">
        <ele>2224</ele>
        <time>2021-08-13T07:24:45.157Z</time>
      </trkpt>
      <trkpt lat="46.84719" lon="8.45969">
        <ele>2224</ele>
        <time>2021-08-13T07:24:46.158Z</time>
      </trkpt>
      <trkpt lat="46.84719" lon="8.45968">
        <ele>2224</ele>
        <time>2021-08-13T07:24:47.157Z</time>
      </trkpt>
      <trkpt lat="46.8472" lon="8.45967">
        <ele>2224</ele>
        <time>2021-08-13T07:24:48.158Z</time>
      </trkpt>
      <trkpt lat="46.8472" lon="8.45966">
        <ele>2223</ele>
        <time>2021-08-13T07:24:49.158Z</time>
      </trkpt>
      <trkpt lat="46.84721" lon="8.45965">
        <ele>2223</ele>
        <time>2021-08-13T07:24:50.158Z</time>
      </trkpt>
      <trkpt lat="46.84721" lon="8.45964">
        <ele>2222</ele>
        <time>2021-08-13T07:24:51.157Z</time>
      </trkpt>
      <trkpt lat="46.84721" lon="8.45963">
        <ele>2222</ele>
        <time>2021-08-13T07:24:52.157Z</time>
      </trkpt>
      <trkpt lat="46.84722" lon="8.45962">
        <ele>2222</ele>
        <time>2021-08-13T07:24:53.158Z</time>
      </trkpt>
      <trkpt lat="46.84722" lon="8.45961">
        <ele>2222</ele>
        <time>2021-08-13T07:24:54.158Z</time>
      </trkpt>
      <trkpt lat="46.84723" lon="8.45961">
        <ele>2223</ele>
        <time>2021-08-13T07:24:55.157Z</time>
      </trkpt>
      <trkpt lat="46.84723" lon="8.4596">
        <ele>2223</ele>
        <time>2021-08-13T07:24:56.157Z</time>
      </trkpt>
      <trkpt lat="46.84723" lon="8.45959">
        <ele>2223</ele>
        <time>2021-08-13T07:24:57.157Z</time>
      </trkpt>
      <trkpt lat="46.84724" lon="8.45958">
        <ele>2223</ele>
        <time>2021-08-13T07:24:58.157Z</time>
      </trkpt>
      <trkpt lat="46.84724" lon="8.45957">
        <ele>2223</ele>
        <time>2021-08-13T07:24:59.158Z</time>
      </trkpt>
      <trkpt lat="46.84724" lon="8.45957">
        <ele>2223</ele>
        <time>2021-08-13T07:25:00.157Z</time>
      </trkpt>
      <trkpt lat="46.84725" lon="8.45956">
        <ele>2222</ele>
        <time>2021-08-13T07:25:01.157Z</time>
      </trkpt>
      <trkpt lat="46.84725" lon="8.45956">
        <ele>2222</ele>
        <time>2021-08-13T07:25:02.157Z</time>
      </trkpt>
      <trkpt lat="46.84725" lon="8.45956">
        <ele>2222</ele>
        <time>2021-08-13T07:25:03.157Z</time>
      </trkpt>
      <trkpt lat="46.84725" lon="8.45955">
        <ele>2222</ele>
        <time>2021-08-13T07:25:04.157Z</time>
      </trkpt>
      <trkpt lat="46.84726" lon="8.45954">
        <ele>2221</ele>
        <time>2021-08-13T07:25:05.157Z</time>
      </trkpt>
      <trkpt lat="46.84726" lon="8.45954">
        <ele>2221</ele>
        <time>2021-08-13T07:25:06.157Z</time>
      </trkpt>
      <trkpt lat="46.84727" lon="8.45953">
        <ele>2215</ele>
        <time>2021-08-13T07:25:07.158Z</time>
      </trkpt>
      <trkpt lat="46.84727" lon="8.45952">
        <ele>2214</ele>
        <time>2021-08-13T07:25:08.158Z</time>
      </trkpt>
      <trkpt lat="46.84727" lon="8.45951">
        <ele>2214</ele>
        <time>2021-08-13T07:25:09.158Z</time>
      </trkpt>
      <trkpt lat="46.84727" lon="8.4595">
        <ele>2214</ele>
        <time>2021-08-13T07:25:10.158Z</time>
      </trkpt>
      <trkpt lat="46.84727" lon="8.45949">
        <ele>2214</ele>
        <time>2021-08-13T07:25:11.158Z</time>
      </trkpt>
      <trkpt lat="46.84727" lon="8.45948">
        <ele>2214</ele>
        <time>2021-08-13T07:25:12.158Z</time>
      </trkpt>
      <trkpt lat="46.84727" lon="8.45947">
        <ele>2214</ele>
        <time>2021-08-13T07:25:13.158Z</time>
      </trkpt>
      <trkpt lat="46.84727" lon="8.45946">
        <ele>2213</ele>
        <time>2021-08-13T07:25:14.158Z</time>
      </trkpt>
      <trkpt lat="46.84727" lon="8.45945">
        <ele>2213</ele>
        <time>2021-08-13T07:25:15.158Z</time>
      </trkpt>
      <trkpt lat="46.84727" lon="8.45943">
        <ele>2213</ele>
        <time>2021-08-13T07:25:16.158Z</time>
      </trkpt>
      <trkpt lat="46.84727" lon="8.45942">
        <ele>2213</ele>
        <time>2021-08-13T07:25:17.158Z</time>
      </trkpt>
      <trkpt lat="46.84727" lon="8.45941">
        <ele>2213</ele>
        <time>2021-08-13T07:25:18.158Z</time>
      </trkpt>
      <trkpt lat="46.84726" lon="8.4594">
        <ele>2213</ele>
        <time>2021-08-13T07:25:19.158Z</time>
      </trkpt>
      <trkpt lat="46.84726" lon="8.45938">
        <ele>2212</ele>
        <time>2021-08-13T07:25:20.159Z</time>
      </trkpt>
      <trkpt lat="46.84726" lon="8.45936">
        <ele>2212</ele>
        <time>2021-08-13T07:25:21.158Z</time>
      </trkpt>
      <trkpt lat="46.84726" lon="8.45935">
        <ele>2212</ele>
        <time>2021-08-13T07:25:22.159Z</time>
      </trkpt>
      <trkpt lat="46.84726" lon="8.45934">
        <ele>2212</ele>
        <time>2021-08-13T07:25:23.158Z</time>
      </trkpt>
      <trkpt lat="46.84726" lon="8.45933">
        <ele>2212</ele>
        <time>2021-08-13T07:25:24.158Z</time>
      </trkpt>
      <trkpt lat="46.84726" lon="8.45931">
        <ele>2212</ele>
        <time>2021-08-13T07:25:25.159Z</time>
      </trkpt>
      <trkpt lat="46.84726" lon="8.4593">
        <ele>2212</ele>
        <time>2021-08-13T07:25:26.158Z</time>
      </trkpt>
      <trkpt lat="46.84726" lon="8.45929">
        <ele>2212</ele>
        <time>2021-08-13T07:25:27.159Z</time>
      </trkpt>
      <trkpt lat="46.84726" lon="8.45928">
        <ele>2211</ele>
        <time>2021-08-13T07:25:28.158Z</time>
      </trkpt>
      <trkpt lat="46.84726" lon="8.45927">
        <ele>2211</ele>
        <time>2021-08-13T07:25:29.158Z</time>
      </trkpt>
      <trkpt lat="46.84726" lon="8.45926">
        <ele>2211</ele>
        <time>2021-08-13T07:25:30.158Z</time>
      </trkpt>
      <trkpt lat="46.84726" lon="8.45925">
        <ele>2212</ele>
        <time>2021-08-13T07:25:31.158Z</time>
      </trkpt>
      <trkpt lat="46.84727" lon="8.45924">
        <ele>2212</ele>
        <time>2021-08-13T07:25:32.158Z</time>
      </trkpt>
      <trkpt lat="46.84727" lon="8.45923">
        <ele>2212</ele>
        <time>2021-08-13T07:25:33.159Z</time>
      </trkpt>
      <trkpt lat="46.84728" lon="8.45921">
        <ele>2212</ele>
        <time>2021-08-13T07:25:34.158Z</time>
      </trkpt>
      <trkpt lat="46.84728" lon="8.4592">
        <ele>2212</ele>
        <time>2021-08-13T07:25:35.158Z</time>
      </trkpt>
      <trkpt lat="46.84728" lon="8.45918">
        <ele>2212</ele>
        <time>2021-08-13T07:25:36.158Z</time>
      </trkpt>
      <trkpt lat="46.84728" lon="8.45917">
        <ele>2213</ele>
        <time>2021-08-13T07:25:37.158Z</time>
      </trkpt>
      <trkpt lat="46.84729" lon="8.45916">
        <ele>2213</ele>
        <time>2021-08-13T07:25:38.158Z</time>
      </trkpt>
      <trkpt lat="46.84729" lon="8.45914">
        <ele>2213</ele>
        <time>2021-08-13T07:25:39.158Z</time>
      </trkpt>
      <trkpt lat="46.8473" lon="8.45913">
        <ele>2213</ele>
        <time>2021-08-13T07:25:40.158Z</time>
      </trkpt>
      <trkpt lat="46.8473" lon="8.45912">
        <ele>2213</ele>
        <time>2021-08-13T07:25:41.159Z</time>
      </trkpt>
      <trkpt lat="46.84731" lon="8.45911">
        <ele>2212</ele>
        <time>2021-08-13T07:25:42.158Z</time>
      </trkpt>
      <trkpt lat="46.84731" lon="8.45909">
        <ele>2211</ele>
        <time>2021-08-13T07:25:43.158Z</time>
      </trkpt>
      <trkpt lat="46.84732" lon="8.45907">
        <ele>2211</ele>
        <time>2021-08-13T07:25:44.158Z</time>
      </trkpt>
      <trkpt lat="46.84733" lon="8.45906">
        <ele>2211</ele>
        <time>2021-08-13T07:25:45.158Z</time>
      </trkpt>
      <trkpt lat="46.84734" lon="8.45905">
        <ele>2210</ele>
        <time>2021-08-13T07:25:46.159Z</time>
      </trkpt>
      <trkpt lat="46.84734" lon="8.45904">
        <ele>2210</ele>
        <time>2021-08-13T07:25:47.158Z</time>
      </trkpt>
      <trkpt lat="46.84735" lon="8.45903">
        <ele>2210</ele>
        <time>2021-08-13T07:25:48.158Z</time>
      </trkpt>
      <trkpt lat="46.84735" lon="8.45902">
        <ele>2210</ele>
        <time>2021-08-13T07:25:49.158Z</time>
      </trkpt>
      <trkpt lat="46.84736" lon="8.45902">
        <ele>2210</ele>
        <time>2021-08-13T07:25:50.158Z</time>
      </trkpt>
      <trkpt lat="46.84736" lon="8.45901">
        <ele>2210</ele>
        <time>2021-08-13T07:25:51.159Z</time>
      </trkpt>
      <trkpt lat="46.84736" lon="8.45899">
        <ele>2210</ele>
        <time>2021-08-13T07:25:52.158Z</time>
      </trkpt>
      <trkpt lat="46.84737" lon="8.45898">
        <ele>2210</ele>
        <time>2021-08-13T07:25:53.158Z</time>
      </trkpt>
      <trkpt lat="46.84737" lon="8.45897">
        <ele>2210</ele>
        <time>2021-08-13T07:25:54.159Z</time>
      </trkpt>
      <trkpt lat="46.84738" lon="8.45896">
        <ele>2210</ele>
        <time>2021-08-13T07:25:55.158Z</time>
      </trkpt>
      <trkpt lat="46.84738" lon="8.45896">
        <ele>2210</ele>
        <time>2021-08-13T07:25:56.159Z</time>
      </trkpt>
      <trkpt lat="46.84739" lon="8.45895">
        <ele>2209</ele>
        <time>2021-08-13T07:25:57.159Z</time>
      </trkpt>
      <trkpt lat="46.8474" lon="8.45894">
        <ele>2209</ele>
        <time>2021-08-13T07:25:58.158Z</time>
      </trkpt>
      <trkpt lat="46.8474" lon="8.45893">
        <ele>2209</ele>
        <time>2021-08-13T07:25:59.159Z</time>
      </trkpt>
      <trkpt lat="46.84741" lon="8.45893">
        <ele>2209</ele>
        <time>2021-08-13T07:26:00.158Z</time>
      </trkpt>
      <trkpt lat="46.84741" lon="8.45892">
        <ele>2209</ele>
        <time>2021-08-13T07:26:01.158Z</time>
      </trkpt>
      <trkpt lat="46.84741" lon="8.45891">
        <ele>2209</ele>
        <time>2021-08-13T07:26:02.158Z</time>
      </trkpt>
      <trkpt lat="46.84742" lon="8.4589">
        <ele>2209</ele>
        <time>2021-08-13T07:26:03.158Z</time>
      </trkpt>
      <trkpt lat="46.84744" lon="8.4589">
        <ele>2208</ele>
        <time>2021-08-13T07:26:04.158Z</time>
      </trkpt>
      <trkpt lat="46.84745" lon="8.45889">
        <ele>2208</ele>
        <time>2021-08-13T07:26:05.158Z</time>
      </trkpt>
      <trkpt lat="46.84746" lon="8.45888">
        <ele>2208</ele>
        <time>2021-08-13T07:26:06.158Z</time>
      </trkpt>
      <trkpt lat="46.84747" lon="8.45887">
        <ele>2209</ele>
        <time>2021-08-13T07:26:07.158Z</time>
      </trkpt>
      <trkpt lat="46.84748" lon="8.45886">
        <ele>2209</ele>
        <time>2021-08-13T07:26:08.158Z</time>
      </trkpt>
      <trkpt lat="46.84748" lon="8.45885">
        <ele>2209</ele>
        <time>2021-08-13T07:26:09.159Z</time>
      </trkpt>
      <trkpt lat="46.84748" lon="8.45884">
        <ele>2209</ele>
        <time>2021-08-13T07:26:10.159Z</time>
      </trkpt>
      <trkpt lat="46.84748" lon="8.45882">
        <ele>2209</ele>
        <time>2021-08-13T07:26:11.158Z</time>
      </trkpt>
      <trkpt lat="46.84748" lon="8.45881">
        <ele>2209</ele>
        <time>2021-08-13T07:26:12.158Z</time>
      </trkpt>
      <trkpt lat="46.84748" lon="8.45879">
        <ele>2209</ele>
        <time>2021-08-13T07:26:13.159Z</time>
      </trkpt>
      <trkpt lat="46.84748" lon="8.45878">
        <ele>2209</ele>
        <time>2021-08-13T07:26:14.158Z</time>
      </trkpt>
      <trkpt lat="46.84748" lon="8.45877">
        <ele>2209</ele>
        <time>2021-08-13T07:26:15.158Z</time>
      </trkpt>
      <trkpt lat="46.84748" lon="8.45876">
        <ele>2209</ele>
        <time>2021-08-13T07:26:16.158Z</time>
      </trkpt>
      <trkpt lat="46.84749" lon="8.45874">
        <ele>2208</ele>
        <time>2021-08-13T07:26:17.158Z</time>
      </trkpt>
      <trkpt lat="46.84749" lon="8.45873">
        <ele>2208</ele>
        <time>2021-08-13T07:26:18.158Z</time>
      </trkpt>
      <trkpt lat="46.84749" lon="8.45871">
        <ele>2208</ele>
        <time>2021-08-13T07:26:19.158Z</time>
      </trkpt>
      <trkpt lat="46.84749" lon="8.45868">
        <ele>2208</ele>
        <time>2021-08-13T07:26:20.158Z</time>
      </trkpt>
      <trkpt lat="46.84748" lon="8.45866">
        <ele>2207</ele>
        <time>2021-08-13T07:26:21.158Z</time>
      </trkpt>
      <trkpt lat="46.84748" lon="8.45865">
        <ele>2207</ele>
        <time>2021-08-13T07:26:22.158Z</time>
      </trkpt>
      <trkpt lat="46.84747" lon="8.45864">
        <ele>2207</ele>
        <time>2021-08-13T07:26:23.158Z</time>
      </trkpt>
      <trkpt lat="46.84746" lon="8.45862">
        <ele>2208</ele>
        <time>2021-08-13T07:26:24.158Z</time>
      </trkpt>
      <trkpt lat="46.84745" lon="8.4586">
        <ele>2208</ele>
        <time>2021-08-13T07:26:25.158Z</time>
      </trkpt>
      <trkpt lat="46.84744" lon="8.45859">
        <ele>2207</ele>
        <time>2021-08-13T07:26:26.159Z</time>
      </trkpt>
      <trkpt lat="46.84743" lon="8.45857">
        <ele>2207</ele>
        <time>2021-08-13T07:26:27.158Z</time>
      </trkpt>
      <trkpt lat="46.84743" lon="8.45857">
        <ele>2207</ele>
        <time>2021-08-13T07:26:28.159Z</time>
      </trkpt>
      <trkpt lat="46.84743" lon="8.45855">
        <ele>2207</ele>
        <time>2021-08-13T07:26:29.158Z</time>
      </trkpt>
      <trkpt lat="46.84743" lon="8.45854">
        <ele>2207</ele>
        <time>2021-08-13T07:26:30.158Z</time>
      </trkpt>
      <trkpt lat="46.84742" lon="8.45853">
        <ele>2208</ele>
        <time>2021-08-13T07:26:31.158Z</time>
      </trkpt>
      <trkpt lat="46.84742" lon="8.45852">
        <ele>2208</ele>
        <time>2021-08-13T07:26:32.158Z</time>
      </trkpt>
      <trkpt lat="46.84741" lon="8.4585">
        <ele>2208</ele>
        <time>2021-08-13T07:26:33.158Z</time>
      </trkpt>
      <trkpt lat="46.8474" lon="8.45848">
        <ele>2208</ele>
        <time>2021-08-13T07:26:34.158Z</time>
      </trkpt>
      <trkpt lat="46.8474" lon="8.45847">
        <ele>2208</ele>
        <time>2021-08-13T07:26:35.158Z</time>
      </trkpt>
      <trkpt lat="46.8474" lon="8.45845">
        <ele>2208</ele>
        <time>2021-08-13T07:26:36.158Z</time>
      </trkpt>
      <trkpt lat="46.84739" lon="8.45844">
        <ele>2209</ele>
        <time>2021-08-13T07:26:37.158Z</time>
      </trkpt>
      <trkpt lat="46.84738" lon="8.45843">
        <ele>2209</ele>
        <time>2021-08-13T07:26:38.159Z</time>
      </trkpt>
      <trkpt lat="46.84738" lon="8.45841">
        <ele>2208</ele>
        <time>2021-08-13T07:26:39.158Z</time>
      </trkpt>
      <trkpt lat="46.84737" lon="8.4584">
        <ele>2208</ele>
        <time>2021-08-13T07:26:40.158Z</time>
      </trkpt>
      <trkpt lat="46.84737" lon="8.4584">
        <ele>2208</ele>
        <time>2021-08-13T07:26:41.158Z</time>
      </trkpt>
      <trkpt lat="46.84736" lon="8.45838">
        <ele>2207</ele>
        <time>2021-08-13T07:26:42.158Z</time>
      </trkpt>
      <trkpt lat="46.84736" lon="8.45837">
        <ele>2206</ele>
        <time>2021-08-13T07:26:43.158Z</time>
      </trkpt>
      <trkpt lat="46.84735" lon="8.45836">
        <ele>2206</ele>
        <time>2021-08-13T07:26:44.158Z</time>
      </trkpt>
      <trkpt lat="46.84734" lon="8.45834">
        <ele>2206</ele>
        <time>2021-08-13T07:26:45.158Z</time>
      </trkpt>
      <trkpt lat="46.84733" lon="8.45834">
        <ele>2206</ele>
        <time>2021-08-13T07:26:46.158Z</time>
      </trkpt>
      <trkpt lat="46.84732" lon="8.45832">
        <ele>2205</ele>
        <time>2021-08-13T07:26:47.158Z</time>
      </trkpt>
      <trkpt lat="46.84731" lon="8.45831">
        <ele>2205</ele>
        <time>2021-08-13T07:26:48.158Z</time>
      </trkpt>
      <trkpt lat="46.8473" lon="8.4583">
        <ele>2205</ele>
        <time>2021-08-13T07:26:49.158Z</time>
      </trkpt>
      <trkpt lat="46.84729" lon="8.45829">
        <ele>2205</ele>
        <time>2021-08-13T07:26:50.159Z</time>
      </trkpt>
      <trkpt lat="46.84728" lon="8.45828">
        <ele>2205</ele>
        <time>2021-08-13T07:26:51.158Z</time>
      </trkpt>
      <trkpt lat="46.84727" lon="8.45826">
        <ele>2205</ele>
        <time>2021-08-13T07:26:52.158Z</time>
      </trkpt>
      <trkpt lat="46.84726" lon="8.45824">
        <ele>2204</ele>
        <time>2021-08-13T07:26:53.158Z</time>
      </trkpt>
      <trkpt lat="46.84725" lon="8.45823">
        <ele>2204</ele>
        <time>2021-08-13T07:26:54.158Z</time>
      </trkpt>
      <trkpt lat="46.84725" lon="8.45821">
        <ele>2204</ele>
        <time>2021-08-13T07:26:55.158Z</time>
      </trkpt>
      <trkpt lat="46.84723" lon="8.45819">
        <ele>2204</ele>
        <time>2021-08-13T07:26:56.158Z</time>
      </trkpt>
      <trkpt lat="46.84722" lon="8.45818">
        <ele>2204</ele>
        <time>2021-08-13T07:26:57.158Z</time>
      </trkpt>
      <trkpt lat="46.84721" lon="8.45816">
        <ele>2205</ele>
        <time>2021-08-13T07:26:58.158Z</time>
      </trkpt>
      <trkpt lat="46.8472" lon="8.45815">
        <ele>2205</ele>
        <time>2021-08-13T07:26:59.158Z</time>
      </trkpt>
      <trkpt lat="46.84719" lon="8.45814">
        <ele>2205</ele>
        <time>2021-08-13T07:27:00.158Z</time>
      </trkpt>
      <trkpt lat="46.84718" lon="8.45812">
        <ele>2205</ele>
        <time>2021-08-13T07:27:01.158Z</time>
      </trkpt>
      <trkpt lat="46.84717" lon="8.45812">
        <ele>2205</ele>
        <time>2021-08-13T07:27:02.158Z</time>
      </trkpt>
      <trkpt lat="46.84716" lon="8.45811">
        <ele>2205</ele>
        <time>2021-08-13T07:27:03.158Z</time>
      </trkpt>
      <trkpt lat="46.84715" lon="8.45809">
        <ele>2205</ele>
        <time>2021-08-13T07:27:04.158Z</time>
      </trkpt>
      <trkpt lat="46.84714" lon="8.45808">
        <ele>2205</ele>
        <time>2021-08-13T07:27:05.159Z</time>
      </trkpt>
      <trkpt lat="46.84713" lon="8.45808">
        <ele>2205</ele>
        <time>2021-08-13T07:27:06.158Z</time>
      </trkpt>
      <trkpt lat="46.84711" lon="8.45806">
        <ele>2205</ele>
        <time>2021-08-13T07:27:07.158Z</time>
      </trkpt>
      <trkpt lat="46.84711" lon="8.45806">
        <ele>2205</ele>
        <time>2021-08-13T07:27:08.158Z</time>
      </trkpt>
      <trkpt lat="46.84709" lon="8.45805">
        <ele>2204</ele>
        <time>2021-08-13T07:27:09.158Z</time>
      </trkpt>
      <trkpt lat="46.84708" lon="8.45804">
        <ele>2204</ele>
        <time>2021-08-13T07:27:10.158Z</time>
      </trkpt>
      <trkpt lat="46.84707" lon="8.45803">
        <ele>2204</ele>
        <time>2021-08-13T07:27:11.158Z</time>
      </trkpt>
      <trkpt lat="46.84706" lon="8.45803">
        <ele>2204</ele>
        <time>2021-08-13T07:27:12.158Z</time>
      </trkpt>
      <trkpt lat="46.84705" lon="8.45802">
        <ele>2203</ele>
        <time>2021-08-13T07:27:13.159Z</time>
      </trkpt>
      <trkpt lat="46.84703" lon="8.45801">
        <ele>2203</ele>
        <time>2021-08-13T07:27:14.158Z</time>
      </trkpt>
      <trkpt lat="46.84702" lon="8.458">
        <ele>2202</ele>
        <time>2021-08-13T07:27:15.158Z</time>
      </trkpt>
      <trkpt lat="46.84701" lon="8.458">
        <ele>2202</ele>
        <time>2021-08-13T07:27:16.158Z</time>
      </trkpt>
      <trkpt lat="46.847" lon="8.45799">
        <ele>2202</ele>
        <time>2021-08-13T07:27:17.158Z</time>
      </trkpt>
      <trkpt lat="46.84699" lon="8.45798">
        <ele>2202</ele>
        <time>2021-08-13T07:27:18.158Z</time>
      </trkpt>
      <trkpt lat="46.84699" lon="8.45797">
        <ele>2202</ele>
        <time>2021-08-13T07:27:19.158Z</time>
      </trkpt>
      <trkpt lat="46.84698" lon="8.45796">
        <ele>2202</ele>
        <time>2021-08-13T07:27:20.158Z</time>
      </trkpt>
      <trkpt lat="46.84697" lon="8.45795">
        <ele>2202</ele>
        <time>2021-08-13T07:27:21.158Z</time>
      </trkpt>
      <trkpt lat="46.84696" lon="8.45794">
        <ele>2203</ele>
        <time>2021-08-13T07:27:22.158Z</time>
      </trkpt>
      <trkpt lat="46.84695" lon="8.45793">
        <ele>2203</ele>
        <time>2021-08-13T07:27:23.159Z</time>
      </trkpt>
      <trkpt lat="46.84694" lon="8.45792">
        <ele>2203</ele>
        <time>2021-08-13T07:27:24.159Z</time>
      </trkpt>
      <trkpt lat="46.84693" lon="8.45791">
        <ele>2203</ele>
        <time>2021-08-13T07:27:25.158Z</time>
      </trkpt>
      <trkpt lat="46.84692" lon="8.4579">
        <ele>2204</ele>
        <time>2021-08-13T07:27:26.158Z</time>
      </trkpt>
      <trkpt lat="46.84691" lon="8.45789">
        <ele>2204</ele>
        <time>2021-08-13T07:27:27.158Z</time>
      </trkpt>
      <trkpt lat="46.84691" lon="8.45788">
        <ele>2204</ele>
        <time>2021-08-13T07:27:28.158Z</time>
      </trkpt>
      <trkpt lat="46.84691" lon="8.45787">
        <ele>2203</ele>
        <time>2021-08-13T07:27:29.158Z</time>
      </trkpt>
      <trkpt lat="46.8469" lon="8.45785">
        <ele>2203</ele>
        <time>2021-08-13T07:27:30.158Z</time>
      </trkpt>
      <trkpt lat="46.8469" lon="8.45784">
        <ele>2203</ele>
        <time>2021-08-13T07:27:31.158Z</time>
      </trkpt>
      <trkpt lat="46.84689" lon="8.45783">
        <ele>2203</ele>
        <time>2021-08-13T07:27:32.158Z</time>
      </trkpt>
      <trkpt lat="46.84689" lon="8.45781">
        <ele>2203</ele>
        <time>2021-08-13T07:27:33.158Z</time>
      </trkpt>
      <trkpt lat="46.84689" lon="8.4578">
        <ele>2203</ele>
        <time>2021-08-13T07:27:34.158Z</time>
      </trkpt>
      <trkpt lat="46.84688" lon="8.45779">
        <ele>2202</ele>
        <time>2021-08-13T07:27:35.158Z</time>
      </trkpt>
      <trkpt lat="46.84687" lon="8.45778">
        <ele>2202</ele>
        <time>2021-08-13T07:27:36.159Z</time>
      </trkpt>
      <trkpt lat="46.84687" lon="8.45776">
        <ele>2202</ele>
        <time>2021-08-13T07:27:37.159Z</time>
      </trkpt>
      <trkpt lat="46.84687" lon="8.45775">
        <ele>2202</ele>
        <time>2021-08-13T07:27:38.158Z</time>
      </trkpt>
      <trkpt lat="46.84688" lon="8.45775">
        <ele>2202</ele>
        <time>2021-08-13T07:27:39.159Z</time>
      </trkpt>
      <trkpt lat="46.84689" lon="8.45773">
        <ele>2202</ele>
        <time>2021-08-13T07:27:40.159Z</time>
      </trkpt>
      <trkpt lat="46.84689" lon="8.45772">
        <ele>2202</ele>
        <time>2021-08-13T07:27:41.158Z</time>
      </trkpt>
      <trkpt lat="46.84689" lon="8.4577">
        <ele>2202</ele>
        <time>2021-08-13T07:27:42.158Z</time>
      </trkpt>
      <trkpt lat="46.84689" lon="8.45769">
        <ele>2202</ele>
        <time>2021-08-13T07:27:43.158Z</time>
      </trkpt>
      <trkpt lat="46.84688" lon="8.45769">
        <ele>2202</ele>
        <time>2021-08-13T07:27:44.159Z</time>
      </trkpt>
      <trkpt lat="46.84688" lon="8.45768">
        <ele>2202</ele>
        <time>2021-08-13T07:27:45.158Z</time>
      </trkpt>
      <trkpt lat="46.84688" lon="8.45767">
        <ele>2202</ele>
        <time>2021-08-13T07:27:46.158Z</time>
      </trkpt>
      <trkpt lat="46.84688" lon="8.45766">
        <ele>2202</ele>
        <time>2021-08-13T07:27:47.158Z</time>
      </trkpt>
      <trkpt lat="46.84687" lon="8.45766">
        <ele>2201</ele>
        <time>2021-08-13T07:27:48.158Z</time>
      </trkpt>
      <trkpt lat="46.84687" lon="8.45764">
        <ele>2201</ele>
        <time>2021-08-13T07:27:49.159Z</time>
      </trkpt>
      <trkpt lat="46.84687" lon="8.45763">
        <ele>2201</ele>
        <time>2021-08-13T07:27:50.158Z</time>
      </trkpt>
      <trkpt lat="46.84687" lon="8.45762">
        <ele>2202</ele>
        <time>2021-08-13T07:27:51.158Z</time>
      </trkpt>
      <trkpt lat="46.84686" lon="8.4576">
        <ele>2202</ele>
        <time>2021-08-13T07:27:52.158Z</time>
      </trkpt>
      <trkpt lat="46.84686" lon="8.45759">
        <ele>2202</ele>
        <time>2021-08-13T07:27:53.158Z</time>
      </trkpt>
      <trkpt lat="46.84686" lon="8.45758">
        <ele>2202</ele>
        <time>2021-08-13T07:27:54.158Z</time>
      </trkpt>
      <trkpt lat="46.84685" lon="8.45757">
        <ele>2202</ele>
        <time>2021-08-13T07:27:55.159Z</time>
      </trkpt>
      <trkpt lat="46.84685" lon="8.45756">
        <ele>2202</ele>
        <time>2021-08-13T07:27:56.159Z</time>
      </trkpt>
      <trkpt lat="46.84684" lon="8.45754">
        <ele>2203</ele>
        <time>2021-08-13T07:27:57.158Z</time>
      </trkpt>
      <trkpt lat="46.84683" lon="8.45753">
        <ele>2203</ele>
        <time>2021-08-13T07:27:58.158Z</time>
      </trkpt>
      <trkpt lat="46.84683" lon="8.45752">
        <ele>2203</ele>
        <time>2021-08-13T07:27:59.159Z</time>
      </trkpt>
      <trkpt lat="46.84682" lon="8.45752">
        <ele>2202</ele>
        <time>2021-08-13T07:28:00.159Z</time>
      </trkpt>
      <trkpt lat="46.84681" lon="8.4575">
        <ele>2202</ele>
        <time>2021-08-13T07:28:01.158Z</time>
      </trkpt>
      <trkpt lat="46.84681" lon="8.4575">
        <ele>2202</ele>
        <time>2021-08-13T07:28:02.158Z</time>
      </trkpt>
      <trkpt lat="46.8468" lon="8.45748">
        <ele>2202</ele>
        <time>2021-08-13T07:28:03.159Z</time>
      </trkpt>
      <trkpt lat="46.84679" lon="8.45747">
        <ele>2202</ele>
        <time>2021-08-13T07:28:04.158Z</time>
      </trkpt>
      <trkpt lat="46.84679" lon="8.45746">
        <ele>2202</ele>
        <time>2021-08-13T07:28:05.159Z</time>
      </trkpt>
      <trkpt lat="46.84678" lon="8.45745">
        <ele>2201</ele>
        <time>2021-08-13T07:28:06.158Z</time>
      </trkpt>
      <trkpt lat="46.84678" lon="8.45743">
        <ele>2201</ele>
        <time>2021-08-13T07:28:07.159Z</time>
      </trkpt>
      <trkpt lat="46.84677" lon="8.45742">
        <ele>2201</ele>
        <time>2021-08-13T07:28:08.159Z</time>
      </trkpt>
      <trkpt lat="46.84677" lon="8.45741">
        <ele>2201</ele>
        <time>2021-08-13T07:28:09.158Z</time>
      </trkpt>
      <trkpt lat="46.84675" lon="8.45739">
        <ele>2200</ele>
        <time>2021-08-13T07:28:10.158Z</time>
      </trkpt>
      <trkpt lat="46.84675" lon="8.45738">
        <ele>2200</ele>
        <time>2021-08-13T07:28:11.158Z</time>
      </trkpt>
      <trkpt lat="46.84674" lon="8.45736">
        <ele>2200</ele>
        <time>2021-08-13T07:28:12.158Z</time>
      </trkpt>
      <trkpt lat="46.84674" lon="8.45735">
        <ele>2199</ele>
        <time>2021-08-13T07:28:13.158Z</time>
      </trkpt>
      <trkpt lat="46.84674" lon="8.45733">
        <ele>2199</ele>
        <time>2021-08-13T07:28:14.159Z</time>
      </trkpt>
      <trkpt lat="46.84674" lon="8.45732">
        <ele>2199</ele>
        <time>2021-08-13T07:28:15.159Z</time>
      </trkpt>
      <trkpt lat="46.84674" lon="8.4573">
        <ele>2198</ele>
        <time>2021-08-13T07:28:16.158Z</time>
      </trkpt>
      <trkpt lat="46.84674" lon="8.45729">
        <ele>2198</ele>
        <time>2021-08-13T07:28:17.158Z</time>
      </trkpt>
      <trkpt lat="46.84673" lon="8.45728">
        <ele>2198</ele>
        <time>2021-08-13T07:28:18.158Z</time>
      </trkpt>
      <trkpt lat="46.84673" lon="8.45727">
        <ele>2197</ele>
        <time>2021-08-13T07:28:19.159Z</time>
      </trkpt>
      <trkpt lat="46.84673" lon="8.45725">
        <ele>2197</ele>
        <time>2021-08-13T07:28:20.158Z</time>
      </trkpt>
      <trkpt lat="46.84673" lon="8.45724">
        <ele>2196</ele>
        <time>2021-08-13T07:28:21.158Z</time>
      </trkpt>
      <trkpt lat="46.84672" lon="8.45723">
        <ele>2196</ele>
        <time>2021-08-13T07:28:22.158Z</time>
      </trkpt>
      <trkpt lat="46.84672" lon="8.45723">
        <ele>2195</ele>
        <time>2021-08-13T07:28:23.158Z</time>
      </trkpt>
      <trkpt lat="46.84672" lon="8.45722">
        <ele>2195</ele>
        <time>2021-08-13T07:28:24.158Z</time>
      </trkpt>
      <trkpt lat="46.84671" lon="8.45721">
        <ele>2195</ele>
        <time>2021-08-13T07:28:25.158Z</time>
      </trkpt>
      <trkpt lat="46.84671" lon="8.45719">
        <ele>2195</ele>
        <time>2021-08-13T07:28:26.158Z</time>
      </trkpt>
      <trkpt lat="46.8467" lon="8.45718">
        <ele>2194</ele>
        <time>2021-08-13T07:28:27.158Z</time>
      </trkpt>
      <trkpt lat="46.8467" lon="8.45717">
        <ele>2194</ele>
        <time>2021-08-13T07:28:28.158Z</time>
      </trkpt>
      <trkpt lat="46.8467" lon="8.45715">
        <ele>2193</ele>
        <time>2021-08-13T07:28:29.159Z</time>
      </trkpt>
      <trkpt lat="46.84669" lon="8.45714">
        <ele>2192</ele>
        <time>2021-08-13T07:28:30.158Z</time>
      </trkpt>
      <trkpt lat="46.84669" lon="8.45712">
        <ele>2192</ele>
        <time>2021-08-13T07:28:31.158Z</time>
      </trkpt>
      <trkpt lat="46.84669" lon="8.45711">
        <ele>2192</ele>
        <time>2021-08-13T07:28:32.158Z</time>
      </trkpt>
      <trkpt lat="46.84668" lon="8.45709">
        <ele>2192</ele>
        <time>2021-08-13T07:28:33.158Z</time>
      </trkpt>
      <trkpt lat="46.84667" lon="8.45708">
        <ele>2192</ele>
        <time>2021-08-13T07:28:34.158Z</time>
      </trkpt>
      <trkpt lat="46.84667" lon="8.45707">
        <ele>2193</ele>
        <time>2021-08-13T07:28:35.158Z</time>
      </trkpt>
      <trkpt lat="46.84667" lon="8.45705">
        <ele>2193</ele>
        <time>2021-08-13T07:28:36.159Z</time>
      </trkpt>
      <trkpt lat="46.84666" lon="8.45703">
        <ele>2192</ele>
        <time>2021-08-13T07:28:37.158Z</time>
      </trkpt>
      <trkpt lat="46.84666" lon="8.45702">
        <ele>2192</ele>
        <time>2021-08-13T07:28:38.158Z</time>
      </trkpt>
      <trkpt lat="46.84666" lon="8.457">
        <ele>2192</ele>
        <time>2021-08-13T07:28:39.158Z</time>
      </trkpt>
      <trkpt lat="46.84665" lon="8.457">
        <ele>2192</ele>
        <time>2021-08-13T07:28:40.158Z</time>
      </trkpt>
      <trkpt lat="46.84665" lon="8.45699">
        <ele>2191</ele>
        <time>2021-08-13T07:28:41.158Z</time>
      </trkpt>
      <trkpt lat="46.84664" lon="8.45699">
        <ele>2191</ele>
        <time>2021-08-13T07:28:42.158Z</time>
      </trkpt>
      <trkpt lat="46.84663" lon="8.45698">
        <ele>2191</ele>
        <time>2021-08-13T07:28:43.158Z</time>
      </trkpt>
      <trkpt lat="46.84662" lon="8.45698">
        <ele>2190</ele>
        <time>2021-08-13T07:28:44.158Z</time>
      </trkpt>
      <trkpt lat="46.84661" lon="8.45698">
        <ele>2190</ele>
        <time>2021-08-13T07:28:45.158Z</time>
      </trkpt>
      <trkpt lat="46.8466" lon="8.45698">
        <ele>2189</ele>
        <time>2021-08-13T07:28:46.158Z</time>
      </trkpt>
      <trkpt lat="46.84659" lon="8.45699">
        <ele>2189</ele>
        <time>2021-08-13T07:28:47.158Z</time>
      </trkpt>
      <trkpt lat="46.84657" lon="8.45699">
        <ele>2189</ele>
        <time>2021-08-13T07:28:48.158Z</time>
      </trkpt>
      <trkpt lat="46.84655" lon="8.457">
        <ele>2189</ele>
        <time>2021-08-13T07:28:49.159Z</time>
      </trkpt>
      <trkpt lat="46.84654" lon="8.45701">
        <ele>2189</ele>
        <time>2021-08-13T07:28:50.158Z</time>
      </trkpt>
      <trkpt lat="46.84653" lon="8.45702">
        <ele>2188</ele>
        <time>2021-08-13T07:28:51.158Z</time>
      </trkpt>
      <trkpt lat="46.84652" lon="8.45703">
        <ele>2188</ele>
        <time>2021-08-13T07:28:52.158Z</time>
      </trkpt>
      <trkpt lat="46.84652" lon="8.45704">
        <ele>2188</ele>
        <time>2021-08-13T07:28:53.158Z</time>
      </trkpt>
      <trkpt lat="46.84651" lon="8.45705">
        <ele>2188</ele>
        <time>2021-08-13T07:28:54.158Z</time>
      </trkpt>
      <trkpt lat="46.84651" lon="8.45705">
        <ele>2188</ele>
        <time>2021-08-13T07:28:55.159Z</time>
      </trkpt>
      <trkpt lat="46.8465" lon="8.45706">
        <ele>2187</ele>
        <time>2021-08-13T07:28:56.158Z</time>
      </trkpt>
      <trkpt lat="46.8465" lon="8.45708">
        <ele>2187</ele>
        <time>2021-08-13T07:28:57.158Z</time>
      </trkpt>
      <trkpt lat="46.8465" lon="8.45709">
        <ele>2186</ele>
        <time>2021-08-13T07:28:58.158Z</time>
      </trkpt>
      <trkpt lat="46.84649" lon="8.45709">
        <ele>2186</ele>
        <time>2021-08-13T07:28:59.158Z</time>
      </trkpt>
      <trkpt lat="46.84648" lon="8.4571">
        <ele>2185</ele>
        <time>2021-08-13T07:29:00.158Z</time>
      </trkpt>
      <trkpt lat="46.84647" lon="8.45711">
        <ele>2185</ele>
        <time>2021-08-13T07:29:01.158Z</time>
      </trkpt>
      <trkpt lat="46.84646" lon="8.4571">
        <ele>2185</ele>
        <time>2021-08-13T07:29:02.158Z</time>
      </trkpt>
      <trkpt lat="46.84646" lon="8.45709">
        <ele>2185</ele>
        <time>2021-08-13T07:29:03.158Z</time>
      </trkpt>
      <trkpt lat="46.84645" lon="8.45708">
        <ele>2185</ele>
        <time>2021-08-13T07:29:04.159Z</time>
      </trkpt>
      <trkpt lat="46.84644" lon="8.45707">
        <ele>2185</ele>
        <time>2021-08-13T07:29:05.158Z</time>
      </trkpt>
      <trkpt lat="46.84642" lon="8.45706">
        <ele>2185</ele>
        <time>2021-08-13T07:29:06.158Z</time>
      </trkpt>
      <trkpt lat="46.84641" lon="8.45705">
        <ele>2185</ele>
        <time>2021-08-13T07:29:07.159Z</time>
      </trkpt>
      <trkpt lat="46.8464" lon="8.45704">
        <ele>2185</ele>
        <time>2021-08-13T07:29:08.158Z</time>
      </trkpt>
      <trkpt lat="46.84639" lon="8.45703">
        <ele>2185</ele>
        <time>2021-08-13T07:29:09.158Z</time>
      </trkpt>
      <trkpt lat="46.84639" lon="8.45703">
        <ele>2184</ele>
        <time>2021-08-13T07:29:10.158Z</time>
      </trkpt>
      <trkpt lat="46.84638" lon="8.45702">
        <ele>2184</ele>
        <time>2021-08-13T07:29:11.158Z</time>
      </trkpt>
      <trkpt lat="46.84637" lon="8.45701">
        <ele>2184</ele>
        <time>2021-08-13T07:29:12.158Z</time>
      </trkpt>
      <trkpt lat="46.84637" lon="8.457">
        <ele>2184</ele>
        <time>2021-08-13T07:29:13.159Z</time>
      </trkpt>
      <trkpt lat="46.84636" lon="8.457">
        <ele>2184</ele>
        <time>2021-08-13T07:29:14.158Z</time>
      </trkpt>
      <trkpt lat="46.84636" lon="8.45699">
        <ele>2184</ele>
        <time>2021-08-13T07:29:15.158Z</time>
      </trkpt>
      <trkpt lat="46.84635" lon="8.45698">
        <ele>2184</ele>
        <time>2021-08-13T07:29:16.158Z</time>
      </trkpt>
      <trkpt lat="46.84634" lon="8.45697">
        <ele>2184</ele>
        <time>2021-08-13T07:29:17.158Z</time>
      </trkpt>
      <trkpt lat="46.84633" lon="8.45696">
        <ele>2184</ele>
        <time>2021-08-13T07:29:18.158Z</time>
      </trkpt>
      <trkpt lat="46.84632" lon="8.45695">
        <ele>2185</ele>
        <time>2021-08-13T07:29:19.158Z</time>
      </trkpt>
      <trkpt lat="46.84632" lon="8.45694">
        <ele>2185</ele>
        <time>2021-08-13T07:29:20.158Z</time>
      </trkpt>
      <trkpt lat="46.84631" lon="8.45692">
        <ele>2185</ele>
        <time>2021-08-13T07:29:21.158Z</time>
      </trkpt>
      <trkpt lat="46.84629" lon="8.45691">
        <ele>2185</ele>
        <time>2021-08-13T07:29:22.159Z</time>
      </trkpt>
      <trkpt lat="46.84628" lon="8.4569">
        <ele>2185</ele>
        <time>2021-08-13T07:29:23.158Z</time>
      </trkpt>
      <trkpt lat="46.84627" lon="8.45689">
        <ele>2185</ele>
        <time>2021-08-13T07:29:24.158Z</time>
      </trkpt>
      <trkpt lat="46.84626" lon="8.45688">
        <ele>2185</ele>
        <time>2021-08-13T07:29:25.159Z</time>
      </trkpt>
      <trkpt lat="46.84625" lon="8.45688">
        <ele>2185</ele>
        <time>2021-08-13T07:29:26.159Z</time>
      </trkpt>
      <trkpt lat="46.84624" lon="8.45687">
        <ele>2185</ele>
        <time>2021-08-13T07:29:27.158Z</time>
      </trkpt>
      <trkpt lat="46.84624" lon="8.45686">
        <ele>2184</ele>
        <time>2021-08-13T07:29:28.158Z</time>
      </trkpt>
      <trkpt lat="46.84624" lon="8.45685">
        <ele>2184</ele>
        <time>2021-08-13T07:29:29.158Z</time>
      </trkpt>
      <trkpt lat="46.84624" lon="8.45684">
        <ele>2184</ele>
        <time>2021-08-13T07:29:30.158Z</time>
      </trkpt>
      <trkpt lat="46.84623" lon="8.45683">
        <ele>2184</ele>
        <time>2021-08-13T07:29:31.159Z</time>
      </trkpt>
      <trkpt lat="46.84623" lon="8.45682">
        <ele>2185</ele>
        <time>2021-08-13T07:29:32.158Z</time>
      </trkpt>
      <trkpt lat="46.84622" lon="8.45681">
        <ele>2185</ele>
        <time>2021-08-13T07:29:33.158Z</time>
      </trkpt>
      <trkpt lat="46.84621" lon="8.4568">
        <ele>2185</ele>
        <time>2021-08-13T07:29:34.158Z</time>
      </trkpt>
      <trkpt lat="46.8462" lon="8.45679">
        <ele>2185</ele>
        <time>2021-08-13T07:29:35.158Z</time>
      </trkpt>
      <trkpt lat="46.84619" lon="8.45678">
        <ele>2184</ele>
        <time>2021-08-13T07:29:36.158Z</time>
      </trkpt>
      <trkpt lat="46.84618" lon="8.45676">
        <ele>2184</ele>
        <time>2021-08-13T07:29:37.158Z</time>
      </trkpt>
      <trkpt lat="46.84618" lon="8.45675">
        <ele>2184</ele>
        <time>2021-08-13T07:29:38.158Z</time>
      </trkpt>
      <trkpt lat="46.84618" lon="8.45673">
        <ele>2184</ele>
        <time>2021-08-13T07:29:39.158Z</time>
      </trkpt>
      <trkpt lat="46.84618" lon="8.45671">
        <ele>2184</ele>
        <time>2021-08-13T07:29:40.158Z</time>
      </trkpt>
      <trkpt lat="46.84618" lon="8.45669">
        <ele>2183</ele>
        <time>2021-08-13T07:29:41.158Z</time>
      </trkpt>
      <trkpt lat="46.84618" lon="8.45667">
        <ele>2183</ele>
        <time>2021-08-13T07:29:42.158Z</time>
      </trkpt>
      <trkpt lat="46.84618" lon="8.45664">
        <ele>2182</ele>
        <time>2021-08-13T07:29:43.158Z</time>
      </trkpt>
      <trkpt lat="46.84618" lon="8.45663">
        <ele>2181</ele>
        <time>2021-08-13T07:29:44.158Z</time>
      </trkpt>
      <trkpt lat="46.84618" lon="8.45661">
        <ele>2180</ele>
        <time>2021-08-13T07:29:45.158Z</time>
      </trkpt>
      <trkpt lat="46.84618" lon="8.45659">
        <ele>2179</ele>
        <time>2021-08-13T07:29:46.158Z</time>
      </trkpt>
      <trkpt lat="46.84617" lon="8.45657">
        <ele>2179</ele>
        <time>2021-08-13T07:29:47.158Z</time>
      </trkpt>
      <trkpt lat="46.84617" lon="8.45655">
        <ele>2178</ele>
        <time>2021-08-13T07:29:48.158Z</time>
      </trkpt>
      <trkpt lat="46.84616" lon="8.45653">
        <ele>2177</ele>
        <time>2021-08-13T07:29:49.158Z</time>
      </trkpt>
      <trkpt lat="46.84616" lon="8.45652">
        <ele>2177</ele>
        <time>2021-08-13T07:29:50.158Z</time>
      </trkpt>
      <trkpt lat="46.84616" lon="8.4565">
        <ele>2177</ele>
        <time>2021-08-13T07:29:51.158Z</time>
      </trkpt>
      <trkpt lat="46.84615" lon="8.45649">
        <ele>2177</ele>
        <time>2021-08-13T07:29:52.158Z</time>
      </trkpt>
      <trkpt lat="46.84615" lon="8.45648">
        <ele>2177</ele>
        <time>2021-08-13T07:29:53.158Z</time>
      </trkpt>
      <trkpt lat="46.84614" lon="8.45646">
        <ele>2177</ele>
        <time>2021-08-13T07:29:54.158Z</time>
      </trkpt>
      <trkpt lat="46.84613" lon="8.45646">
        <ele>2177</ele>
        <time>2021-08-13T07:29:55.158Z</time>
      </trkpt>
      <trkpt lat="46.84612" lon="8.45644">
        <ele>2176</ele>
        <time>2021-08-13T07:29:56.158Z</time>
      </trkpt>
      <trkpt lat="46.84611" lon="8.45643">
        <ele>2176</ele>
        <time>2021-08-13T07:29:57.158Z</time>
      </trkpt>
      <trkpt lat="46.8461" lon="8.45642">
        <ele>2176</ele>
        <time>2021-08-13T07:29:58.158Z</time>
      </trkpt>
      <trkpt lat="46.8461" lon="8.45641">
        <ele>2176</ele>
        <time>2021-08-13T07:29:59.158Z</time>
      </trkpt>
      <trkpt lat="46.84609" lon="8.4564">
        <ele>2175</ele>
        <time>2021-08-13T07:30:00.158Z</time>
      </trkpt>
      <trkpt lat="46.84609" lon="8.45639">
        <ele>2175</ele>
        <time>2021-08-13T07:30:01.158Z</time>
      </trkpt>
      <trkpt lat="46.84608" lon="8.45637">
        <ele>2175</ele>
        <time>2021-08-13T07:30:02.158Z</time>
      </trkpt>
      <trkpt lat="46.84607" lon="8.45635">
        <ele>2175</ele>
        <time>2021-08-13T07:30:03.158Z</time>
      </trkpt>
      <trkpt lat="46.84607" lon="8.45634">
        <ele>2175</ele>
        <time>2021-08-13T07:30:04.159Z</time>
      </trkpt>
      <trkpt lat="46.84606" lon="8.45633">
        <ele>2175</ele>
        <time>2021-08-13T07:30:05.159Z</time>
      </trkpt>
      <trkpt lat="46.84606" lon="8.45631">
        <ele>2175</ele>
        <time>2021-08-13T07:30:06.158Z</time>
      </trkpt>
      <trkpt lat="46.84605" lon="8.4563">
        <ele>2175</ele>
        <time>2021-08-13T07:30:07.158Z</time>
      </trkpt>
      <trkpt lat="46.84605" lon="8.45629">
        <ele>2176</ele>
        <time>2021-08-13T07:30:08.158Z</time>
      </trkpt>
      <trkpt lat="46.84605" lon="8.45628">
        <ele>2176</ele>
        <time>2021-08-13T07:30:09.158Z</time>
      </trkpt>
      <trkpt lat="46.84604" lon="8.45626">
        <ele>2176</ele>
        <time>2021-08-13T07:30:10.158Z</time>
      </trkpt>
      <trkpt lat="46.84604" lon="8.45625">
        <ele>2176</ele>
        <time>2021-08-13T07:30:11.158Z</time>
      </trkpt>
      <trkpt lat="46.84603" lon="8.45624">
        <ele>2177</ele>
        <time>2021-08-13T07:30:12.158Z</time>
      </trkpt>
      <trkpt lat="46.84603" lon="8.45623">
        <ele>2177</ele>
        <time>2021-08-13T07:30:13.158Z</time>
      </trkpt>
      <trkpt lat="46.84602" lon="8.45621">
        <ele>2177</ele>
        <time>2021-08-13T07:30:14.158Z</time>
      </trkpt>
      <trkpt lat="46.84602" lon="8.4562">
        <ele>2177</ele>
        <time>2021-08-13T07:30:15.158Z</time>
      </trkpt>
      <trkpt lat="46.84601" lon="8.45618">
        <ele>2177</ele>
        <time>2021-08-13T07:30:16.158Z</time>
      </trkpt>
      <trkpt lat="46.84601" lon="8.45617">
        <ele>2177</ele>
        <time>2021-08-13T07:30:17.158Z</time>
      </trkpt>
      <trkpt lat="46.84601" lon="8.45616">
        <ele>2177</ele>
        <time>2021-08-13T07:30:18.158Z</time>
      </trkpt>
      <trkpt lat="46.846" lon="8.45615">
        <ele>2178</ele>
        <time>2021-08-13T07:30:19.159Z</time>
      </trkpt>
      <trkpt lat="46.846" lon="8.45614">
        <ele>2178</ele>
        <time>2021-08-13T07:30:20.158Z</time>
      </trkpt>
      <trkpt lat="46.84599" lon="8.45613">
        <ele>2178</ele>
        <time>2021-08-13T07:30:21.159Z</time>
      </trkpt>
      <trkpt lat="46.84599" lon="8.45612">
        <ele>2178</ele>
        <time>2021-08-13T07:30:22.158Z</time>
      </trkpt>
      <trkpt lat="46.84598" lon="8.4561">
        <ele>2177</ele>
        <time>2021-08-13T07:30:23.159Z</time>
      </trkpt>
      <trkpt lat="46.84598" lon="8.45608">
        <ele>2176</ele>
        <time>2021-08-13T07:30:24.158Z</time>
      </trkpt>
      <trkpt lat="46.84597" lon="8.45607">
        <ele>2176</ele>
        <time>2021-08-13T07:30:25.158Z</time>
      </trkpt>
      <trkpt lat="46.84596" lon="8.45606">
        <ele>2175</ele>
        <time>2021-08-13T07:30:26.159Z</time>
      </trkpt>
      <trkpt lat="46.84596" lon="8.45604">
        <ele>2174</ele>
        <time>2021-08-13T07:30:27.158Z</time>
      </trkpt>
      <trkpt lat="46.84595" lon="8.45602">
        <ele>2174</ele>
        <time>2021-08-13T07:30:28.158Z</time>
      </trkpt>
      <trkpt lat="46.84594" lon="8.45601">
        <ele>2173</ele>
        <time>2021-08-13T07:30:29.158Z</time>
      </trkpt>
      <trkpt lat="46.84594" lon="8.456">
        <ele>2172</ele>
        <time>2021-08-13T07:30:30.158Z</time>
      </trkpt>
      <trkpt lat="46.84593" lon="8.45599">
        <ele>2172</ele>
        <time>2021-08-13T07:30:31.158Z</time>
      </trkpt>
      <trkpt lat="46.84593" lon="8.45597">
        <ele>2172</ele>
        <time>2021-08-13T07:30:32.158Z</time>
      </trkpt>
      <trkpt lat="46.84592" lon="8.45596">
        <ele>2171</ele>
        <time>2021-08-13T07:30:33.158Z</time>
      </trkpt>
      <trkpt lat="46.84592" lon="8.45594">
        <ele>2171</ele>
        <time>2021-08-13T07:30:34.159Z</time>
      </trkpt>
      <trkpt lat="46.84591" lon="8.45593">
        <ele>2171</ele>
        <time>2021-08-13T07:30:35.159Z</time>
      </trkpt>
      <trkpt lat="46.8459" lon="8.45591">
        <ele>2171</ele>
        <time>2021-08-13T07:30:36.158Z</time>
      </trkpt>
      <trkpt lat="46.8459" lon="8.4559">
        <ele>2171</ele>
        <time>2021-08-13T07:30:37.159Z</time>
      </trkpt>
      <trkpt lat="46.84589" lon="8.45588">
        <ele>2171</ele>
        <time>2021-08-13T07:30:38.158Z</time>
      </trkpt>
      <trkpt lat="46.84589" lon="8.45587">
        <ele>2171</ele>
        <time>2021-08-13T07:30:39.158Z</time>
      </trkpt>
      <trkpt lat="46.84588" lon="8.45586">
        <ele>2171</ele>
        <time>2021-08-13T07:30:40.158Z</time>
      </trkpt>
      <trkpt lat="46.84588" lon="8.45585">
        <ele>2171</ele>
        <time>2021-08-13T07:30:41.158Z</time>
      </trkpt>
      <trkpt lat="46.84587" lon="8.45583">
        <ele>2170</ele>
        <time>2021-08-13T07:30:42.158Z</time>
      </trkpt>
      <trkpt lat="46.84587" lon="8.45582">
        <ele>2170</ele>
        <time>2021-08-13T07:30:43.158Z</time>
      </trkpt>
      <trkpt lat="46.84587" lon="8.45581">
        <ele>2170</ele>
        <time>2021-08-13T07:30:44.158Z</time>
      </trkpt>
      <trkpt lat="46.84586" lon="8.4558">
        <ele>2170</ele>
        <time>2021-08-13T07:30:45.158Z</time>
      </trkpt>
      <trkpt lat="46.84585" lon="8.45578">
        <ele>2169</ele>
        <time>2021-08-13T07:30:46.158Z</time>
      </trkpt>
      <trkpt lat="46.84585" lon="8.45576">
        <ele>2169</ele>
        <time>2021-08-13T07:30:47.158Z</time>
      </trkpt>
      <trkpt lat="46.84585" lon="8.45575">
        <ele>2169</ele>
        <time>2021-08-13T07:30:48.159Z</time>
      </trkpt>
      <trkpt lat="46.84584" lon="8.45573">
        <ele>2169</ele>
        <time>2021-08-13T07:30:49.158Z</time>
      </trkpt>
      <trkpt lat="46.84584" lon="8.45572">
        <ele>2168</ele>
        <time>2021-08-13T07:30:50.158Z</time>
      </trkpt>
      <trkpt lat="46.84584" lon="8.4557">
        <ele>2168</ele>
        <time>2021-08-13T07:30:51.158Z</time>
      </trkpt>
      <trkpt lat="46.84583" lon="8.45568">
        <ele>2168</ele>
        <time>2021-08-13T07:30:52.158Z</time>
      </trkpt>
      <trkpt lat="46.84583" lon="8.45566">
        <ele>2168</ele>
        <time>2021-08-13T07:30:53.158Z</time>
      </trkpt>
      <trkpt lat="46.84582" lon="8.45565">
        <ele>2167</ele>
        <time>2021-08-13T07:30:54.158Z</time>
      </trkpt>
      <trkpt lat="46.84582" lon="8.45563">
        <ele>2167</ele>
        <time>2021-08-13T07:30:55.158Z</time>
      </trkpt>
      <trkpt lat="46.84581" lon="8.45562">
        <ele>2167</ele>
        <time>2021-08-13T07:30:56.158Z</time>
      </trkpt>
      <trkpt lat="46.84581" lon="8.45561">
        <ele>2167</ele>
        <time>2021-08-13T07:30:57.158Z</time>
      </trkpt>
      <trkpt lat="46.8458" lon="8.4556">
        <ele>2166</ele>
        <time>2021-08-13T07:30:58.158Z</time>
      </trkpt>
      <trkpt lat="46.8458" lon="8.45559">
        <ele>2166</ele>
        <time>2021-08-13T07:30:59.158Z</time>
      </trkpt>
      <trkpt lat="46.84579" lon="8.45557">
        <ele>2166</ele>
        <time>2021-08-13T07:31:00.158Z</time>
      </trkpt>
      <trkpt lat="46.84579" lon="8.45556">
        <ele>2166</ele>
        <time>2021-08-13T07:31:01.158Z</time>
      </trkpt>
      <trkpt lat="46.84578" lon="8.45554">
        <ele>2165</ele>
        <time>2021-08-13T07:31:02.158Z</time>
      </trkpt>
      <trkpt lat="46.84577" lon="8.45553">
        <ele>2165</ele>
        <time>2021-08-13T07:31:03.159Z</time>
      </trkpt>
      <trkpt lat="46.84577" lon="8.45551">
        <ele>2164</ele>
        <time>2021-08-13T07:31:04.158Z</time>
      </trkpt>
      <trkpt lat="46.84576" lon="8.45551">
        <ele>2164</ele>
        <time>2021-08-13T07:31:05.158Z</time>
      </trkpt>
      <trkpt lat="46.84576" lon="8.4555">
        <ele>2164</ele>
        <time>2021-08-13T07:31:06.158Z</time>
      </trkpt>
      <trkpt lat="46.84576" lon="8.45549">
        <ele>2164</ele>
        <time>2021-08-13T07:31:07.158Z</time>
      </trkpt>
      <trkpt lat="46.84576" lon="8.45549">
        <ele>2164</ele>
        <time>2021-08-13T07:31:08.158Z</time>
      </trkpt>
      <trkpt lat="46.84576" lon="8.45548">
        <ele>2164</ele>
        <time>2021-08-13T07:31:09.158Z</time>
      </trkpt>
      <trkpt lat="46.84576" lon="8.45548">
        <ele>2163</ele>
        <time>2021-08-13T07:31:10.158Z</time>
      </trkpt>
      <trkpt lat="46.84576" lon="8.45547">
        <ele>2163</ele>
        <time>2021-08-13T07:31:11.159Z</time>
      </trkpt>
      <trkpt lat="46.84576" lon="8.45546">
        <ele>2162</ele>
        <time>2021-08-13T07:31:12.158Z</time>
      </trkpt>
      <trkpt lat="46.84575" lon="8.45545">
        <ele>2162</ele>
        <time>2021-08-13T07:31:13.158Z</time>
      </trkpt>
      <trkpt lat="46.84575" lon="8.45544">
        <ele>2161</ele>
        <time>2021-08-13T07:31:14.158Z</time>
      </trkpt>
      <trkpt lat="46.84575" lon="8.45544">
        <ele>2161</ele>
        <time>2021-08-13T07:31:15.158Z</time>
      </trkpt>
      <trkpt lat="46.84574" lon="8.45543">
        <ele>2161</ele>
        <time>2021-08-13T07:31:16.158Z</time>
      </trkpt>
      <trkpt lat="46.84574" lon="8.45542">
        <ele>2161</ele>
        <time>2021-08-13T07:31:17.158Z</time>
      </trkpt>
      <trkpt lat="46.84574" lon="8.45541">
        <ele>2161</ele>
        <time>2021-08-13T07:31:18.158Z</time>
      </trkpt>
      <trkpt lat="46.84574" lon="8.4554">
        <ele>2161</ele>
        <time>2021-08-13T07:31:19.158Z</time>
      </trkpt>
      <trkpt lat="46.84573" lon="8.45538">
        <ele>2161</ele>
        <time>2021-08-13T07:31:20.158Z</time>
      </trkpt>
      <trkpt lat="46.84573" lon="8.45537">
        <ele>2162</ele>
        <time>2021-08-13T07:31:21.158Z</time>
      </trkpt>
      <trkpt lat="46.84573" lon="8.45536">
        <ele>2162</ele>
        <time>2021-08-13T07:31:22.158Z</time>
      </trkpt>
      <trkpt lat="46.84572" lon="8.45534">
        <ele>2162</ele>
        <time>2021-08-13T07:31:23.158Z</time>
      </trkpt>
      <trkpt lat="46.84572" lon="8.45533">
        <ele>2162</ele>
        <time>2021-08-13T07:31:24.158Z</time>
      </trkpt>
      <trkpt lat="46.84571" lon="8.45532">
        <ele>2161</ele>
        <time>2021-08-13T07:31:25.158Z</time>
      </trkpt>
      <trkpt lat="46.84571" lon="8.45531">
        <ele>2161</ele>
        <time>2021-08-13T07:31:26.159Z</time>
      </trkpt>
      <trkpt lat="46.8457" lon="8.45529">
        <ele>2161</ele>
        <time>2021-08-13T07:31:27.158Z</time>
      </trkpt>
      <trkpt lat="46.84569" lon="8.45528">
        <ele>2161</ele>
        <time>2021-08-13T07:31:28.158Z</time>
      </trkpt>
      <trkpt lat="46.84569" lon="8.45526">
        <ele>2161</ele>
        <time>2021-08-13T07:31:29.158Z</time>
      </trkpt>
      <trkpt lat="46.84569" lon="8.45525">
        <ele>2161</ele>
        <time>2021-08-13T07:31:30.159Z</time>
      </trkpt>
      <trkpt lat="46.84569" lon="8.45523">
        <ele>2161</ele>
        <time>2021-08-13T07:31:31.158Z</time>
      </trkpt>
      <trkpt lat="46.84568" lon="8.45521">
        <ele>2160</ele>
        <time>2021-08-13T07:31:32.158Z</time>
      </trkpt>
      <trkpt lat="46.84568" lon="8.4552">
        <ele>2160</ele>
        <time>2021-08-13T07:31:33.158Z</time>
      </trkpt>
      <trkpt lat="46.84567" lon="8.45519">
        <ele>2160</ele>
        <time>2021-08-13T07:31:34.158Z</time>
      </trkpt>
      <trkpt lat="46.84566" lon="8.45518">
        <ele>2159</ele>
        <time>2021-08-13T07:31:35.158Z</time>
      </trkpt>
      <trkpt lat="46.84565" lon="8.45516">
        <ele>2159</ele>
        <time>2021-08-13T07:31:36.158Z</time>
      </trkpt>
      <trkpt lat="46.84564" lon="8.45514">
        <ele>2158</ele>
        <time>2021-08-13T07:31:37.158Z</time>
      </trkpt>
      <trkpt lat="46.84563" lon="8.45514">
        <ele>2157</ele>
        <time>2021-08-13T07:31:38.158Z</time>
      </trkpt>
      <trkpt lat="46.84563" lon="8.45513">
        <ele>2157</ele>
        <time>2021-08-13T07:31:39.158Z</time>
      </trkpt>
      <trkpt lat="46.84562" lon="8.45513">
        <ele>2156</ele>
        <time>2021-08-13T07:31:40.158Z</time>
      </trkpt>
      <trkpt lat="46.84562" lon="8.45512">
        <ele>2156</ele>
        <time>2021-08-13T07:31:41.158Z</time>
      </trkpt>
      <trkpt lat="46.84561" lon="8.45512">
        <ele>2155</ele>
        <time>2021-08-13T07:31:42.158Z</time>
      </trkpt>
      <trkpt lat="46.8456" lon="8.45511">
        <ele>2155</ele>
        <time>2021-08-13T07:31:43.158Z</time>
      </trkpt>
      <trkpt lat="46.84559" lon="8.45511">
        <ele>2154</ele>
        <time>2021-08-13T07:31:44.158Z</time>
      </trkpt>
      <trkpt lat="46.84558" lon="8.4551">
        <ele>2154</ele>
        <time>2021-08-13T07:31:45.158Z</time>
      </trkpt>
      <trkpt lat="46.84557" lon="8.4551">
        <ele>2154</ele>
        <time>2021-08-13T07:31:46.158Z</time>
      </trkpt>
      <trkpt lat="46.84556" lon="8.45509">
        <ele>2154</ele>
        <time>2021-08-13T07:31:47.158Z</time>
      </trkpt>
      <trkpt lat="46.84555" lon="8.45509">
        <ele>2153</ele>
        <time>2021-08-13T07:31:48.159Z</time>
      </trkpt>
      <trkpt lat="46.84554" lon="8.45508">
        <ele>2153</ele>
        <time>2021-08-13T07:31:49.159Z</time>
      </trkpt>
      <trkpt lat="46.84553" lon="8.45508">
        <ele>2153</ele>
        <time>2021-08-13T07:31:50.159Z</time>
      </trkpt>
      <trkpt lat="46.84552" lon="8.45507">
        <ele>2153</ele>
        <time>2021-08-13T07:31:51.158Z</time>
      </trkpt>
      <trkpt lat="46.84552" lon="8.45507">
        <ele>2153</ele>
        <time>2021-08-13T07:31:52.158Z</time>
      </trkpt>
      <trkpt lat="46.84551" lon="8.45507">
        <ele>2153</ele>
        <time>2021-08-13T07:31:53.158Z</time>
      </trkpt>
      <trkpt lat="46.8455" lon="8.45507">
        <ele>2153</ele>
        <time>2021-08-13T07:31:54.158Z</time>
      </trkpt>
      <trkpt lat="46.84549" lon="8.45506">
        <ele>2152</ele>
        <time>2021-08-13T07:31:55.158Z</time>
      </trkpt>
      <trkpt lat="46.84548" lon="8.45506">
        <ele>2152</ele>
        <time>2021-08-13T07:31:56.159Z</time>
      </trkpt>
      <trkpt lat="46.84547" lon="8.45506">
        <ele>2152</ele>
        <time>2021-08-13T07:31:57.158Z</time>
      </trkpt>
      <trkpt lat="46.84546" lon="8.45506">
        <ele>2151</ele>
        <time>2021-08-13T07:31:58.159Z</time>
      </trkpt>
      <trkpt lat="46.84546" lon="8.45506">
        <ele>2151</ele>
        <time>2021-08-13T07:31:59.159Z</time>
      </trkpt>
      <trkpt lat="46.84545" lon="8.45505">
        <ele>2151</ele>
        <time>2021-08-13T07:32:00.159Z</time>
      </trkpt>
      <trkpt lat="46.84544" lon="8.45505">
        <ele>2151</ele>
        <time>2021-08-13T07:32:01.159Z</time>
      </trkpt>
      <trkpt lat="46.84543" lon="8.45504">
        <ele>2151</ele>
        <time>2021-08-13T07:32:02.158Z</time>
      </trkpt>
      <trkpt lat="46.84542" lon="8.45504">
        <ele>2150</ele>
        <time>2021-08-13T07:32:03.159Z</time>
      </trkpt>
      <trkpt lat="46.84542" lon="8.45503">
        <ele>2150</ele>
        <time>2021-08-13T07:32:04.158Z</time>
      </trkpt>
      <trkpt lat="46.84542" lon="8.45503">
        <ele>2150</ele>
        <time>2021-08-13T07:32:05.158Z</time>
      </trkpt>
      <trkpt lat="46.84541" lon="8.45502">
        <ele>2150</ele>
        <time>2021-08-13T07:32:06.158Z</time>
      </trkpt>
      <trkpt lat="46.84541" lon="8.45501">
        <ele>2150</ele>
        <time>2021-08-13T07:32:07.159Z</time>
      </trkpt>
      <trkpt lat="46.84541" lon="8.455">
        <ele>2150</ele>
        <time>2021-08-13T07:32:08.158Z</time>
      </trkpt>
      <trkpt lat="46.8454" lon="8.45498">
        <ele>2150</ele>
        <time>2021-08-13T07:32:09.158Z</time>
      </trkpt>
      <trkpt lat="46.84539" lon="8.45496">
        <ele>2151</ele>
        <time>2021-08-13T07:32:10.158Z</time>
      </trkpt>
      <trkpt lat="46.84539" lon="8.45495">
        <ele>2151</ele>
        <time>2021-08-13T07:32:11.158Z</time>
      </trkpt>
      <trkpt lat="46.84538" lon="8.45494">
        <ele>2151</ele>
        <time>2021-08-13T07:32:12.158Z</time>
      </trkpt>
      <trkpt lat="46.84538" lon="8.45494">
        <ele>2152</ele>
        <time>2021-08-13T07:32:13.158Z</time>
      </trkpt>
      <trkpt lat="46.84537" lon="8.45493">
        <ele>2152</ele>
        <time>2021-08-13T07:32:14.158Z</time>
      </trkpt>
      <trkpt lat="46.84537" lon="8.45492">
        <ele>2152</ele>
        <time>2021-08-13T07:32:15.158Z</time>
      </trkpt>
      <trkpt lat="46.84536" lon="8.4549">
        <ele>2152</ele>
        <time>2021-08-13T07:32:16.158Z</time>
      </trkpt>
      <trkpt lat="46.84536" lon="8.45489">
        <ele>2152</ele>
        <time>2021-08-13T07:32:17.158Z</time>
      </trkpt>
      <trkpt lat="46.84535" lon="8.45488">
        <ele>2153</ele>
        <time>2021-08-13T07:32:18.158Z</time>
      </trkpt>
      <trkpt lat="46.84535" lon="8.45487">
        <ele>2152</ele>
        <time>2021-08-13T07:32:19.158Z</time>
      </trkpt>
      <trkpt lat="46.84534" lon="8.45486">
        <ele>2152</ele>
        <time>2021-08-13T07:32:20.158Z</time>
      </trkpt>
      <trkpt lat="46.84534" lon="8.45484">
        <ele>2152</ele>
        <time>2021-08-13T07:32:21.158Z</time>
      </trkpt>
      <trkpt lat="46.84533" lon="8.45483">
        <ele>2152</ele>
        <time>2021-08-13T07:32:22.158Z</time>
      </trkpt>
      <trkpt lat="46.84532" lon="8.45482">
        <ele>2152</ele>
        <time>2021-08-13T07:32:23.158Z</time>
      </trkpt>
      <trkpt lat="46.84532" lon="8.4548">
        <ele>2151</ele>
        <time>2021-08-13T07:32:24.158Z</time>
      </trkpt>
      <trkpt lat="46.84531" lon="8.4548">
        <ele>2151</ele>
        <time>2021-08-13T07:32:25.159Z</time>
      </trkpt>
      <trkpt lat="46.8453" lon="8.45478">
        <ele>2150</ele>
        <time>2021-08-13T07:32:26.158Z</time>
      </trkpt>
      <trkpt lat="46.8453" lon="8.45477">
        <ele>2149</ele>
        <time>2021-08-13T07:32:27.158Z</time>
      </trkpt>
      <trkpt lat="46.8453" lon="8.45476">
        <ele>2149</ele>
        <time>2021-08-13T07:32:28.158Z</time>
      </trkpt>
      <trkpt lat="46.8453" lon="8.45475">
        <ele>2148</ele>
        <time>2021-08-13T07:32:29.158Z</time>
      </trkpt>
      <trkpt lat="46.84529" lon="8.45474">
        <ele>2148</ele>
        <time>2021-08-13T07:32:30.159Z</time>
      </trkpt>
      <trkpt lat="46.84529" lon="8.45473">
        <ele>2148</ele>
        <time>2021-08-13T07:32:31.158Z</time>
      </trkpt>
      <trkpt lat="46.84529" lon="8.45472">
        <ele>2148</ele>
        <time>2021-08-13T07:32:32.158Z</time>
      </trkpt>
      <trkpt lat="46.84529" lon="8.45471">
        <ele>2147</ele>
        <time>2021-08-13T07:32:33.158Z</time>
      </trkpt>
      <trkpt lat="46.84529" lon="8.4547">
        <ele>2147</ele>
        <time>2021-08-13T07:32:34.158Z</time>
      </trkpt>
      <trkpt lat="46.84529" lon="8.45469">
        <ele>2146</ele>
        <time>2021-08-13T07:32:35.159Z</time>
      </trkpt>
      <trkpt lat="46.84529" lon="8.45468">
        <ele>2146</ele>
        <time>2021-08-13T07:32:36.158Z</time>
      </trkpt>
      <trkpt lat="46.84528" lon="8.45467">
        <ele>2145</ele>
        <time>2021-08-13T07:32:37.158Z</time>
      </trkpt>
      <trkpt lat="46.84528" lon="8.45465">
        <ele>2146</ele>
        <time>2021-08-13T07:32:38.159Z</time>
      </trkpt>
      <trkpt lat="46.84527" lon="8.45464">
        <ele>2146</ele>
        <time>2021-08-13T07:32:39.158Z</time>
      </trkpt>
      <trkpt lat="46.84526" lon="8.45463">
        <ele>2146</ele>
        <time>2021-08-13T07:32:40.159Z</time>
      </trkpt>
      <trkpt lat="46.84526" lon="8.45462">
        <ele>2146</ele>
        <time>2021-08-13T07:32:41.158Z</time>
      </trkpt>
      <trkpt lat="46.84525" lon="8.4546">
        <ele>2146</ele>
        <time>2021-08-13T07:32:42.158Z</time>
      </trkpt>
      <trkpt lat="46.84524" lon="8.45459">
        <ele>2147</ele>
        <time>2021-08-13T07:32:43.158Z</time>
      </trkpt>
      <trkpt lat="46.84524" lon="8.45458">
        <ele>2146</ele>
        <time>2021-08-13T07:32:44.158Z</time>
      </trkpt>
      <trkpt lat="46.84523" lon="8.45457">
        <ele>2146</ele>
        <time>2021-08-13T07:32:45.159Z</time>
      </trkpt>
      <trkpt lat="46.84522" lon="8.45456">
        <ele>2146</ele>
        <time>2021-08-13T07:32:46.158Z</time>
      </trkpt>
      <trkpt lat="46.84522" lon="8.45456">
        <ele>2145</ele>
        <time>2021-08-13T07:32:47.159Z</time>
      </trkpt>
      <trkpt lat="46.84521" lon="8.45455">
        <ele>2144</ele>
        <time>2021-08-13T07:32:48.159Z</time>
      </trkpt>
      <trkpt lat="46.84521" lon="8.45454">
        <ele>2144</ele>
        <time>2021-08-13T07:32:49.159Z</time>
      </trkpt>
      <trkpt lat="46.8452" lon="8.45453">
        <ele>2143</ele>
        <time>2021-08-13T07:32:50.158Z</time>
      </trkpt>
      <trkpt lat="46.8452" lon="8.45452">
        <ele>2142</ele>
        <time>2021-08-13T07:32:51.159Z</time>
      </trkpt>
      <trkpt lat="46.8452" lon="8.45451">
        <ele>2142</ele>
        <time>2021-08-13T07:32:52.159Z</time>
      </trkpt>
      <trkpt lat="46.84519" lon="8.4545">
        <ele>2142</ele>
        <time>2021-08-13T07:32:53.158Z</time>
      </trkpt>
      <trkpt lat="46.84518" lon="8.45449">
        <ele>2141</ele>
        <time>2021-08-13T07:32:54.158Z</time>
      </trkpt>
      <trkpt lat="46.84518" lon="8.45448">
        <ele>2140</ele>
        <time>2021-08-13T07:32:55.158Z</time>
      </trkpt>
      <trkpt lat="46.84517" lon="8.45447">
        <ele>2140</ele>
        <time>2021-08-13T07:32:56.158Z</time>
      </trkpt>
      <trkpt lat="46.84516" lon="8.45446">
        <ele>2139</ele>
        <time>2021-08-13T07:32:57.158Z</time>
      </trkpt>
      <trkpt lat="46.84516" lon="8.45446">
        <ele>2139</ele>
        <time>2021-08-13T07:32:58.158Z</time>
      </trkpt>
      <trkpt lat="46.84515" lon="8.45445">
        <ele>2138</ele>
        <time>2021-08-13T07:32:59.158Z</time>
      </trkpt>
      <trkpt lat="46.84514" lon="8.45444">
        <ele>2138</ele>
        <time>2021-08-13T07:33:00.158Z</time>
      </trkpt>
      <trkpt lat="46.84514" lon="8.45443">
        <ele>2138</ele>
        <time>2021-08-13T07:33:01.158Z</time>
      </trkpt>
      <trkpt lat="46.84513" lon="8.45442">
        <ele>2138</ele>
        <time>2021-08-13T07:33:02.158Z</time>
      </trkpt>
      <trkpt lat="46.84513" lon="8.4544">
        <ele>2137</ele>
        <time>2021-08-13T07:33:03.158Z</time>
      </trkpt>
      <trkpt lat="46.84513" lon="8.45439">
        <ele>2137</ele>
        <time>2021-08-13T07:33:04.159Z</time>
      </trkpt>
      <trkpt lat="46.84513" lon="8.45438">
        <ele>2137</ele>
        <time>2021-08-13T07:33:05.158Z</time>
      </trkpt>
      <trkpt lat="46.84512" lon="8.45438">
        <ele>2137</ele>
        <time>2021-08-13T07:33:06.158Z</time>
      </trkpt>
      <trkpt lat="46.84512" lon="8.45437">
        <ele>2137</ele>
        <time>2021-08-13T07:33:07.158Z</time>
      </trkpt>
      <trkpt lat="46.84512" lon="8.45437">
        <ele>2137</ele>
        <time>2021-08-13T07:33:08.158Z</time>
      </trkpt>
      <trkpt lat="46.8451" lon="8.45434">
        <ele>2136</ele>
        <time>2021-08-13T07:33:09.159Z</time>
      </trkpt>
      <trkpt lat="46.8451" lon="8.45434">
        <ele>2136</ele>
        <time>2021-08-13T07:33:10.159Z</time>
      </trkpt>
      <trkpt lat="46.8451" lon="8.45433">
        <ele>2136</ele>
        <time>2021-08-13T07:33:11.158Z</time>
      </trkpt>
      <trkpt lat="46.84509" lon="8.45432">
        <ele>2136</ele>
        <time>2021-08-13T07:33:12.158Z</time>
      </trkpt>
      <trkpt lat="46.84508" lon="8.45431">
        <ele>2136</ele>
        <time>2021-08-13T07:33:13.159Z</time>
      </trkpt>
      <trkpt lat="46.84508" lon="8.4543">
        <ele>2136</ele>
        <time>2021-08-13T07:33:14.158Z</time>
      </trkpt>
      <trkpt lat="46.84508" lon="8.45429">
        <ele>2135</ele>
        <time>2021-08-13T07:33:15.158Z</time>
      </trkpt>
      <trkpt lat="46.84508" lon="8.45428">
        <ele>2135</ele>
        <time>2021-08-13T07:33:16.158Z</time>
      </trkpt>
      <trkpt lat="46.84507" lon="8.45426">
        <ele>2135</ele>
        <time>2021-08-13T07:33:17.159Z</time>
      </trkpt>
      <trkpt lat="46.84507" lon="8.45424">
        <ele>2135</ele>
        <time>2021-08-13T07:33:18.158Z</time>
      </trkpt>
      <trkpt lat="46.84507" lon="8.45423">
        <ele>2135</ele>
        <time>2021-08-13T07:33:19.159Z</time>
      </trkpt>
      <trkpt lat="46.84506" lon="8.45422">
        <ele>2134</ele>
        <time>2021-08-13T07:33:20.158Z</time>
      </trkpt>
      <trkpt lat="46.84506" lon="8.45421">
        <ele>2134</ele>
        <time>2021-08-13T07:33:21.159Z</time>
      </trkpt>
      <trkpt lat="46.84506" lon="8.4542">
        <ele>2133</ele>
        <time>2021-08-13T07:33:22.159Z</time>
      </trkpt>
      <trkpt lat="46.84506" lon="8.45418">
        <ele>2133</ele>
        <time>2021-08-13T07:33:23.159Z</time>
      </trkpt>
      <trkpt lat="46.84506" lon="8.45417">
        <ele>2133</ele>
        <time>2021-08-13T07:33:24.158Z</time>
      </trkpt>
      <trkpt lat="46.84506" lon="8.45416">
        <ele>2133</ele>
        <time>2021-08-13T07:33:25.159Z</time>
      </trkpt>
      <trkpt lat="46.84506" lon="8.45416">
        <ele>2133</ele>
        <time>2021-08-13T07:33:26.158Z</time>
      </trkpt>
      <trkpt lat="46.84506" lon="8.45415">
        <ele>2133</ele>
        <time>2021-08-13T07:33:27.158Z</time>
      </trkpt>
      <trkpt lat="46.84505" lon="8.45414">
        <ele>2132</ele>
        <time>2021-08-13T07:33:28.159Z</time>
      </trkpt>
      <trkpt lat="46.84505" lon="8.45412">
        <ele>2133</ele>
        <time>2021-08-13T07:33:29.159Z</time>
      </trkpt>
      <trkpt lat="46.84505" lon="8.45411">
        <ele>2133</ele>
        <time>2021-08-13T07:33:30.158Z</time>
      </trkpt>
      <trkpt lat="46.84505" lon="8.4541">
        <ele>2133</ele>
        <time>2021-08-13T07:33:31.159Z</time>
      </trkpt>
      <trkpt lat="46.84504" lon="8.45408">
        <ele>2132</ele>
        <time>2021-08-13T07:33:32.159Z</time>
      </trkpt>
      <trkpt lat="46.84504" lon="8.45407">
        <ele>2132</ele>
        <time>2021-08-13T07:33:33.158Z</time>
      </trkpt>
      <trkpt lat="46.84504" lon="8.45406">
        <ele>2132</ele>
        <time>2021-08-13T07:33:34.159Z</time>
      </trkpt>
      <trkpt lat="46.84504" lon="8.45404">
        <ele>2132</ele>
        <time>2021-08-13T07:33:35.158Z</time>
      </trkpt>
      <trkpt lat="46.84503" lon="8.45403">
        <ele>2131</ele>
        <time>2021-08-13T07:33:36.158Z</time>
      </trkpt>
      <trkpt lat="46.84503" lon="8.45402">
        <ele>2131</ele>
        <time>2021-08-13T07:33:37.159Z</time>
      </trkpt>
      <trkpt lat="46.84504" lon="8.45402">
        <ele>2131</ele>
        <time>2021-08-13T07:33:38.159Z</time>
      </trkpt>
      <trkpt lat="46.84504" lon="8.454">
        <ele>2131</ele>
        <time>2021-08-13T07:33:39.158Z</time>
      </trkpt>
      <trkpt lat="46.84503" lon="8.45398">
        <ele>2130</ele>
        <time>2021-08-13T07:33:40.159Z</time>
      </trkpt>
      <trkpt lat="46.84503" lon="8.45397">
        <ele>2130</ele>
        <time>2021-08-13T07:33:41.158Z</time>
      </trkpt>
      <trkpt lat="46.84503" lon="8.45396">
        <ele>2130</ele>
        <time>2021-08-13T07:33:42.158Z</time>
      </trkpt>
      <trkpt lat="46.84503" lon="8.45395">
        <ele>2130</ele>
        <time>2021-08-13T07:33:43.159Z</time>
      </trkpt>
      <trkpt lat="46.84503" lon="8.45394">
        <ele>2130</ele>
        <time>2021-08-13T07:33:44.159Z</time>
      </trkpt>
      <trkpt lat="46.84503" lon="8.45393">
        <ele>2130</ele>
        <time>2021-08-13T07:33:45.158Z</time>
      </trkpt>
      <trkpt lat="46.84503" lon="8.45392">
        <ele>2130</ele>
        <time>2021-08-13T07:33:46.159Z</time>
      </trkpt>
      <trkpt lat="46.84503" lon="8.45391">
        <ele>2129</ele>
        <time>2021-08-13T07:33:47.158Z</time>
      </trkpt>
      <trkpt lat="46.84503" lon="8.4539">
        <ele>2129</ele>
        <time>2021-08-13T07:33:48.159Z</time>
      </trkpt>
      <trkpt lat="46.84502" lon="8.45389">
        <ele>2129</ele>
        <time>2021-08-13T07:33:49.159Z</time>
      </trkpt>
      <trkpt lat="46.84502" lon="8.45388">
        <ele>2129</ele>
        <time>2021-08-13T07:33:50.159Z</time>
      </trkpt>
      <trkpt lat="46.84502" lon="8.45387">
        <ele>2129</ele>
        <time>2021-08-13T07:33:51.158Z</time>
      </trkpt>
      <trkpt lat="46.84502" lon="8.45386">
        <ele>2129</ele>
        <time>2021-08-13T07:33:52.158Z</time>
      </trkpt>
      <trkpt lat="46.84502" lon="8.45384">
        <ele>2129</ele>
        <time>2021-08-13T07:33:53.158Z</time>
      </trkpt>
      <trkpt lat="46.84502" lon="8.45382">
        <ele>2129</ele>
        <time>2021-08-13T07:33:54.158Z</time>
      </trkpt>
      <trkpt lat="46.84502" lon="8.45381">
        <ele>2129</ele>
        <time>2021-08-13T07:33:55.158Z</time>
      </trkpt>
      <trkpt lat="46.84501" lon="8.4538">
        <ele>2129</ele>
        <time>2021-08-13T07:33:56.159Z</time>
      </trkpt>
      <trkpt lat="46.84501" lon="8.45379">
        <ele>2129</ele>
        <time>2021-08-13T07:33:57.158Z</time>
      </trkpt>
      <trkpt lat="46.84501" lon="8.45378">
        <ele>2128</ele>
        <time>2021-08-13T07:33:58.159Z</time>
      </trkpt>
      <trkpt lat="46.84501" lon="8.45377">
        <ele>2128</ele>
        <time>2021-08-13T07:33:59.158Z</time>
      </trkpt>
      <trkpt lat="46.84501" lon="8.45376">
        <ele>2128</ele>
        <time>2021-08-13T07:34:00.158Z</time>
      </trkpt>
      <trkpt lat="46.84501" lon="8.45375">
        <ele>2128</ele>
        <time>2021-08-13T07:34:01.158Z</time>
      </trkpt>
      <trkpt lat="46.84501" lon="8.45375">
        <ele>2128</ele>
        <time>2021-08-13T07:34:02.158Z</time>
      </trkpt>
      <trkpt lat="46.845" lon="8.45373">
        <ele>2129</ele>
        <time>2021-08-13T07:34:03.159Z</time>
      </trkpt>
      <trkpt lat="46.845" lon="8.45371">
        <ele>2129</ele>
        <time>2021-08-13T07:34:04.159Z</time>
      </trkpt>
      <trkpt lat="46.845" lon="8.45371">
        <ele>2129</ele>
        <time>2021-08-13T07:34:05.159Z</time>
      </trkpt>
      <trkpt lat="46.845" lon="8.45369">
        <ele>2129</ele>
        <time>2021-08-13T07:34:06.158Z</time>
      </trkpt>
      <trkpt lat="46.845" lon="8.45368">
        <ele>2129</ele>
        <time>2021-08-13T07:34:07.158Z</time>
      </trkpt>
      <trkpt lat="46.845" lon="8.45366">
        <ele>2129</ele>
        <time>2021-08-13T07:34:08.158Z</time>
      </trkpt>
      <trkpt lat="46.845" lon="8.45365">
        <ele>2129</ele>
        <time>2021-08-13T07:34:09.158Z</time>
      </trkpt>
      <trkpt lat="46.84499" lon="8.45364">
        <ele>2129</ele>
        <time>2021-08-13T07:34:10.158Z</time>
      </trkpt>
      <trkpt lat="46.84498" lon="8.45363">
        <ele>2129</ele>
        <time>2021-08-13T07:34:11.158Z</time>
      </trkpt>
      <trkpt lat="46.84498" lon="8.45361">
        <ele>2128</ele>
        <time>2021-08-13T07:34:12.158Z</time>
      </trkpt>
      <trkpt lat="46.84497" lon="8.4536">
        <ele>2128</ele>
        <time>2021-08-13T07:34:13.158Z</time>
      </trkpt>
      <trkpt lat="46.84497" lon="8.45359">
        <ele>2127</ele>
        <time>2021-08-13T07:34:14.158Z</time>
      </trkpt>
      <trkpt lat="46.84496" lon="8.45358">
        <ele>2127</ele>
        <time>2021-08-13T07:34:15.158Z</time>
      </trkpt>
      <trkpt lat="46.84496" lon="8.45357">
        <ele>2126</ele>
        <time>2021-08-13T07:34:16.159Z</time>
      </trkpt>
      <trkpt lat="46.84496" lon="8.45356">
        <ele>2125</ele>
        <time>2021-08-13T07:34:17.158Z</time>
      </trkpt>
      <trkpt lat="46.84496" lon="8.45355">
        <ele>2125</ele>
        <time>2021-08-13T07:34:18.158Z</time>
      </trkpt>
      <trkpt lat="46.84496" lon="8.45354">
        <ele>2124</ele>
        <time>2021-08-13T07:34:19.158Z</time>
      </trkpt>
      <trkpt lat="46.84495" lon="8.45353">
        <ele>2124</ele>
        <time>2021-08-13T07:34:20.159Z</time>
      </trkpt>
      <trkpt lat="46.84495" lon="8.45352">
        <ele>2123</ele>
        <time>2021-08-13T07:34:21.158Z</time>
      </trkpt>
      <trkpt lat="46.84495" lon="8.45351">
        <ele>2123</ele>
        <time>2021-08-13T07:34:22.158Z</time>
      </trkpt>
      <trkpt lat="46.84495" lon="8.45349">
        <ele>2123</ele>
        <time>2021-08-13T07:34:23.159Z</time>
      </trkpt>
      <trkpt lat="46.84495" lon="8.45348">
        <ele>2123</ele>
        <time>2021-08-13T07:34:24.159Z</time>
      </trkpt>
      <trkpt lat="46.84494" lon="8.45346">
        <ele>2123</ele>
        <time>2021-08-13T07:34:25.158Z</time>
      </trkpt>
      <trkpt lat="46.84494" lon="8.45344">
        <ele>2123</ele>
        <time>2021-08-13T07:34:26.158Z</time>
      </trkpt>
      <trkpt lat="46.84494" lon="8.45343">
        <ele>2123</ele>
        <time>2021-08-13T07:34:27.158Z</time>
      </trkpt>
      <trkpt lat="46.84494" lon="8.45342">
        <ele>2123</ele>
        <time>2021-08-13T07:34:28.158Z</time>
      </trkpt>
      <trkpt lat="46.84494" lon="8.45341">
        <ele>2123</ele>
        <time>2021-08-13T07:34:29.158Z</time>
      </trkpt>
      <trkpt lat="46.84493" lon="8.4534">
        <ele>2123</ele>
        <time>2021-08-13T07:34:30.158Z</time>
      </trkpt>
      <trkpt lat="46.84493" lon="8.45338">
        <ele>2122</ele>
        <time>2021-08-13T07:34:31.159Z</time>
      </trkpt>
      <trkpt lat="46.84492" lon="8.45337">
        <ele>2122</ele>
        <time>2021-08-13T07:34:32.158Z</time>
      </trkpt>
      <trkpt lat="46.84491" lon="8.45336">
        <ele>2121</ele>
        <time>2021-08-13T07:34:33.158Z</time>
      </trkpt>
      <trkpt lat="46.84491" lon="8.45335">
        <ele>2121</ele>
        <time>2021-08-13T07:34:34.158Z</time>
      </trkpt>
      <trkpt lat="46.8449" lon="8.45333">
        <ele>2120</ele>
        <time>2021-08-13T07:34:35.158Z</time>
      </trkpt>
      <trkpt lat="46.8449" lon="8.45332">
        <ele>2120</ele>
        <time>2021-08-13T07:34:36.158Z</time>
      </trkpt>
      <trkpt lat="46.8449" lon="8.45331">
        <ele>2119</ele>
        <time>2021-08-13T07:34:37.158Z</time>
      </trkpt>
      <trkpt lat="46.84489" lon="8.4533">
        <ele>2119</ele>
        <time>2021-08-13T07:34:38.158Z</time>
      </trkpt>
      <trkpt lat="46.84489" lon="8.45328">
        <ele>2118</ele>
        <time>2021-08-13T07:34:39.159Z</time>
      </trkpt>
      <trkpt lat="46.84488" lon="8.45326">
        <ele>2118</ele>
        <time>2021-08-13T07:34:40.158Z</time>
      </trkpt>
      <trkpt lat="46.84488" lon="8.45325">
        <ele>2117</ele>
        <time>2021-08-13T07:34:41.158Z</time>
      </trkpt>
      <trkpt lat="46.84488" lon="8.45325">
        <ele>2117</ele>
        <time>2021-08-13T07:34:42.158Z</time>
      </trkpt>
      <trkpt lat="46.84488" lon="8.45324">
        <ele>2116</ele>
        <time>2021-08-13T07:34:43.159Z</time>
      </trkpt>
      <trkpt lat="46.84487" lon="8.45322">
        <ele>2112</ele>
        <time>2021-08-13T07:34:44.159Z</time>
      </trkpt>
      <trkpt lat="46.84487" lon="8.45322">
        <ele>2112</ele>
        <time>2021-08-13T07:34:45.158Z</time>
      </trkpt>
      <trkpt lat="46.84486" lon="8.45321">
        <ele>2112</ele>
        <time>2021-08-13T07:34:46.159Z</time>
      </trkpt>
      <trkpt lat="46.84487" lon="8.45321">
        <ele>2112</ele>
        <time>2021-08-13T07:34:47.160Z</time>
      </trkpt>
      <trkpt lat="46.84486" lon="8.45321">
        <ele>2112</ele>
        <time>2021-08-13T07:34:48.159Z</time>
      </trkpt>
      <trkpt lat="46.84486" lon="8.4532">
        <ele>2112</ele>
        <time>2021-08-13T07:34:49.160Z</time>
      </trkpt>
      <trkpt lat="46.84486" lon="8.45319">
        <ele>2112</ele>
        <time>2021-08-13T07:34:50.159Z</time>
      </trkpt>
      <trkpt lat="46.84485" lon="8.45319">
        <ele>2111</ele>
        <time>2021-08-13T07:34:51.159Z</time>
      </trkpt>
      <trkpt lat="46.84485" lon="8.45318">
        <ele>2111</ele>
        <time>2021-08-13T07:34:52.160Z</time>
      </trkpt>
      <trkpt lat="46.84485" lon="8.45317">
        <ele>2111</ele>
        <time>2021-08-13T07:34:53.160Z</time>
      </trkpt>
      <trkpt lat="46.84485" lon="8.45316">
        <ele>2111</ele>
        <time>2021-08-13T07:34:54.159Z</time>
      </trkpt>
      <trkpt lat="46.84484" lon="8.45315">
        <ele>2111</ele>
        <time>2021-08-13T07:34:55.160Z</time>
      </trkpt>
      <trkpt lat="46.84484" lon="8.45314">
        <ele>2111</ele>
        <time>2021-08-13T07:34:56.160Z</time>
      </trkpt>
      <trkpt lat="46.84484" lon="8.45313">
        <ele>2111</ele>
        <time>2021-08-13T07:34:57.159Z</time>
      </trkpt>
      <trkpt lat="46.84484" lon="8.45312">
        <ele>2111</ele>
        <time>2021-08-13T07:34:58.160Z</time>
      </trkpt>
      <trkpt lat="46.84483" lon="8.4531">
        <ele>2112</ele>
        <time>2021-08-13T07:34:59.159Z</time>
      </trkpt>
      <trkpt lat="46.84483" lon="8.45309">
        <ele>2112</ele>
        <time>2021-08-13T07:35:00.159Z</time>
      </trkpt>
      <trkpt lat="46.84483" lon="8.45308">
        <ele>2111</ele>
        <time>2021-08-13T07:35:01.159Z</time>
      </trkpt>
      <trkpt lat="46.84482" lon="8.45307">
        <ele>2111</ele>
        <time>2021-08-13T07:35:02.159Z</time>
      </trkpt>
      <trkpt lat="46.84482" lon="8.45305">
        <ele>2111</ele>
        <time>2021-08-13T07:35:03.159Z</time>
      </trkpt>
      <trkpt lat="46.84482" lon="8.45304">
        <ele>2111</ele>
        <time>2021-08-13T07:35:04.159Z</time>
      </trkpt>
      <trkpt lat="46.84481" lon="8.45302">
        <ele>2111</ele>
        <time>2021-08-13T07:35:05.159Z</time>
      </trkpt>
      <trkpt lat="46.84481" lon="8.45301">
        <ele>2111</ele>
        <time>2021-08-13T07:35:06.160Z</time>
      </trkpt>
      <trkpt lat="46.8448" lon="8.45299">
        <ele>2111</ele>
        <time>2021-08-13T07:35:07.159Z</time>
      </trkpt>
      <trkpt lat="46.84479" lon="8.45297">
        <ele>2112</ele>
        <time>2021-08-13T07:35:08.160Z</time>
      </trkpt>
      <trkpt lat="46.84478" lon="8.45296">
        <ele>2112</ele>
        <time>2021-08-13T07:35:09.159Z</time>
      </trkpt>
      <trkpt lat="46.84478" lon="8.45294">
        <ele>2112</ele>
        <time>2021-08-13T07:35:10.160Z</time>
      </trkpt>
      <trkpt lat="46.84477" lon="8.45293">
        <ele>2112</ele>
        <time>2021-08-13T07:35:11.159Z</time>
      </trkpt>
      <trkpt lat="46.84476" lon="8.45292">
        <ele>2111</ele>
        <time>2021-08-13T07:35:12.160Z</time>
      </trkpt>
      <trkpt lat="46.84476" lon="8.4529">
        <ele>2111</ele>
        <time>2021-08-13T07:35:13.159Z</time>
      </trkpt>
      <trkpt lat="46.84475" lon="8.45289">
        <ele>2111</ele>
        <time>2021-08-13T07:35:14.160Z</time>
      </trkpt>
      <trkpt lat="46.84474" lon="8.45288">
        <ele>2111</ele>
        <time>2021-08-13T07:35:15.160Z</time>
      </trkpt>
      <trkpt lat="46.84473" lon="8.45286">
        <ele>2111</ele>
        <time>2021-08-13T07:35:16.159Z</time>
      </trkpt>
      <trkpt lat="46.84473" lon="8.45284">
        <ele>2110</ele>
        <time>2021-08-13T07:35:17.159Z</time>
      </trkpt>
      <trkpt lat="46.84472" lon="8.45283">
        <ele>2110</ele>
        <time>2021-08-13T07:35:18.159Z</time>
      </trkpt>
      <trkpt lat="46.84472" lon="8.45281">
        <ele>2110</ele>
        <time>2021-08-13T07:35:19.159Z</time>
      </trkpt>
      <trkpt lat="46.84472" lon="8.4528">
        <ele>2110</ele>
        <time>2021-08-13T07:35:20.159Z</time>
      </trkpt>
      <trkpt lat="46.84471" lon="8.45279">
        <ele>2109</ele>
        <time>2021-08-13T07:35:21.160Z</time>
      </trkpt>
      <trkpt lat="46.84471" lon="8.45278">
        <ele>2109</ele>
        <time>2021-08-13T07:35:22.160Z</time>
      </trkpt>
      <trkpt lat="46.84471" lon="8.45276">
        <ele>2109</ele>
        <time>2021-08-13T07:35:23.159Z</time>
      </trkpt>
      <trkpt lat="46.84471" lon="8.45275">
        <ele>2109</ele>
        <time>2021-08-13T07:35:24.159Z</time>
      </trkpt>
      <trkpt lat="46.8447" lon="8.45274">
        <ele>2109</ele>
        <time>2021-08-13T07:35:25.160Z</time>
      </trkpt>
      <trkpt lat="46.84469" lon="8.45272">
        <ele>2109</ele>
        <time>2021-08-13T07:35:26.159Z</time>
      </trkpt>
      <trkpt lat="46.84469" lon="8.4527">
        <ele>2109</ele>
        <time>2021-08-13T07:35:27.159Z</time>
      </trkpt>
      <trkpt lat="46.84467" lon="8.45269">
        <ele>2109</ele>
        <time>2021-08-13T07:35:28.160Z</time>
      </trkpt>
      <trkpt lat="46.84467" lon="8.45268">
        <ele>2109</ele>
        <time>2021-08-13T07:35:29.160Z</time>
      </trkpt>
      <trkpt lat="46.84465" lon="8.45267">
        <ele>2109</ele>
        <time>2021-08-13T07:35:30.159Z</time>
      </trkpt>
      <trkpt lat="46.84464" lon="8.45266">
        <ele>2109</ele>
        <time>2021-08-13T07:35:31.159Z</time>
      </trkpt>
      <trkpt lat="46.84462" lon="8.45265">
        <ele>2109</ele>
        <time>2021-08-13T07:35:32.159Z</time>
      </trkpt>
      <trkpt lat="46.84461" lon="8.45265">
        <ele>2109</ele>
        <time>2021-08-13T07:35:33.159Z</time>
      </trkpt>
      <trkpt lat="46.84461" lon="8.45265">
        <ele>2109</ele>
        <time>2021-08-13T07:35:34.159Z</time>
      </trkpt>
      <trkpt lat="46.8446" lon="8.45264">
        <ele>2109</ele>
        <time>2021-08-13T07:35:35.159Z</time>
      </trkpt>
      <trkpt lat="46.84458" lon="8.45264">
        <ele>2109</ele>
        <time>2021-08-13T07:35:36.159Z</time>
      </trkpt>
      <trkpt lat="46.84457" lon="8.45264">
        <ele>2108</ele>
        <time>2021-08-13T07:35:37.159Z</time>
      </trkpt>
      <trkpt lat="46.84456" lon="8.45263">
        <ele>2108</ele>
        <time>2021-08-13T07:35:38.159Z</time>
      </trkpt>
      <trkpt lat="46.84456" lon="8.45263">
        <ele>2107</ele>
        <time>2021-08-13T07:35:39.160Z</time>
      </trkpt>
      <trkpt lat="46.84456" lon="8.45263">
        <ele>2106</ele>
        <time>2021-08-13T07:35:40.159Z</time>
      </trkpt>
      <trkpt lat="46.84456" lon="8.45262">
        <ele>2106</ele>
        <time>2021-08-13T07:35:41.159Z</time>
      </trkpt>
      <trkpt lat="46.84456" lon="8.45262">
        <ele>2105</ele>
        <time>2021-08-13T07:35:42.160Z</time>
      </trkpt>
      <trkpt lat="46.84456" lon="8.45261">
        <ele>2105</ele>
        <time>2021-08-13T07:35:43.159Z</time>
      </trkpt>
      <trkpt lat="46.84456" lon="8.4526">
        <ele>2104</ele>
        <time>2021-08-13T07:35:44.159Z</time>
      </trkpt>
      <trkpt lat="46.84456" lon="8.45258">
        <ele>2104</ele>
        <time>2021-08-13T07:35:45.159Z</time>
      </trkpt>
      <trkpt lat="46.84456" lon="8.45256">
        <ele>2104</ele>
        <time>2021-08-13T07:35:46.159Z</time>
      </trkpt>
      <trkpt lat="46.84456" lon="8.45255">
        <ele>2104</ele>
        <time>2021-08-13T07:35:47.159Z</time>
      </trkpt>
      <trkpt lat="46.84456" lon="8.45253">
        <ele>2105</ele>
        <time>2021-08-13T07:35:48.160Z</time>
      </trkpt>
      <trkpt lat="46.84455" lon="8.45252">
        <ele>2105</ele>
        <time>2021-08-13T07:35:49.159Z</time>
      </trkpt>
      <trkpt lat="46.84455" lon="8.45251">
        <ele>2105</ele>
        <time>2021-08-13T07:35:50.160Z</time>
      </trkpt>
      <trkpt lat="46.84454" lon="8.45249">
        <ele>2105</ele>
        <time>2021-08-13T07:35:51.159Z</time>
      </trkpt>
      <trkpt lat="46.84454" lon="8.45247">
        <ele>2105</ele>
        <time>2021-08-13T07:35:52.159Z</time>
      </trkpt>
      <trkpt lat="46.84453" lon="8.45246">
        <ele>2105</ele>
        <time>2021-08-13T07:35:53.159Z</time>
      </trkpt>
      <trkpt lat="46.84452" lon="8.45244">
        <ele>2106</ele>
        <time>2021-08-13T07:35:54.160Z</time>
      </trkpt>
      <trkpt lat="46.84452" lon="8.45242">
        <ele>2106</ele>
        <time>2021-08-13T07:35:55.159Z</time>
      </trkpt>
      <trkpt lat="46.84451" lon="8.45241">
        <ele>2106</ele>
        <time>2021-08-13T07:35:56.159Z</time>
      </trkpt>
      <trkpt lat="46.84451" lon="8.4524">
        <ele>2106</ele>
        <time>2021-08-13T07:35:57.159Z</time>
      </trkpt>
      <trkpt lat="46.8445" lon="8.45238">
        <ele>2106</ele>
        <time>2021-08-13T07:35:58.160Z</time>
      </trkpt>
      <trkpt lat="46.8445" lon="8.45237">
        <ele>2106</ele>
        <time>2021-08-13T07:35:59.159Z</time>
      </trkpt>
      <trkpt lat="46.84449" lon="8.45235">
        <ele>2106</ele>
        <time>2021-08-13T07:36:00.160Z</time>
      </trkpt>
      <trkpt lat="46.84448" lon="8.45234">
        <ele>2106</ele>
        <time>2021-08-13T07:36:01.159Z</time>
      </trkpt>
      <trkpt lat="46.84447" lon="8.45233">
        <ele>2106</ele>
        <time>2021-08-13T07:36:02.160Z</time>
      </trkpt>
      <trkpt lat="46.84446" lon="8.45231">
        <ele>2106</ele>
        <time>2021-08-13T07:36:03.159Z</time>
      </trkpt>
      <trkpt lat="46.84446" lon="8.4523">
        <ele>2105</ele>
        <time>2021-08-13T07:36:04.159Z</time>
      </trkpt>
      <trkpt lat="46.84445" lon="8.45229">
        <ele>2105</ele>
        <time>2021-08-13T07:36:05.160Z</time>
      </trkpt>
      <trkpt lat="46.84445" lon="8.45228">
        <ele>2106</ele>
        <time>2021-08-13T07:36:06.160Z</time>
      </trkpt>
      <trkpt lat="46.84444" lon="8.45227">
        <ele>2106</ele>
        <time>2021-08-13T07:36:07.160Z</time>
      </trkpt>
      <trkpt lat="46.84444" lon="8.45226">
        <ele>2106</ele>
        <time>2021-08-13T07:36:08.159Z</time>
      </trkpt>
      <trkpt lat="46.84444" lon="8.45225">
        <ele>2106</ele>
        <time>2021-08-13T07:36:09.159Z</time>
      </trkpt>
      <trkpt lat="46.84444" lon="8.45224">
        <ele>2105</ele>
        <time>2021-08-13T07:36:10.160Z</time>
      </trkpt>
      <trkpt lat="46.84444" lon="8.45223">
        <ele>2104</ele>
        <time>2021-08-13T07:36:11.160Z</time>
      </trkpt>
      <trkpt lat="46.84443" lon="8.45222">
        <ele>2104</ele>
        <time>2021-08-13T07:36:12.160Z</time>
      </trkpt>
      <trkpt lat="46.84443" lon="8.4522">
        <ele>2103</ele>
        <time>2021-08-13T07:36:13.159Z</time>
      </trkpt>
      <trkpt lat="46.84443" lon="8.45219">
        <ele>2103</ele>
        <time>2021-08-13T07:36:14.160Z</time>
      </trkpt>
      <trkpt lat="46.84443" lon="8.45217">
        <ele>2102</ele>
        <time>2021-08-13T07:36:15.159Z</time>
      </trkpt>
      <trkpt lat="46.84442" lon="8.45215">
        <ele>2102</ele>
        <time>2021-08-13T07:36:16.159Z</time>
      </trkpt>
      <trkpt lat="46.84442" lon="8.45213">
        <ele>2102</ele>
        <time>2021-08-13T07:36:17.160Z</time>
      </trkpt>
      <trkpt lat="46.84441" lon="8.45212">
        <ele>2102</ele>
        <time>2021-08-13T07:36:18.159Z</time>
      </trkpt>
      <trkpt lat="46.84441" lon="8.4521">
        <ele>2102</ele>
        <time>2021-08-13T07:36:19.159Z</time>
      </trkpt>
      <trkpt lat="46.8444" lon="8.4521">
        <ele>2102</ele>
        <time>2021-08-13T07:36:20.159Z</time>
      </trkpt>
      <trkpt lat="46.8444" lon="8.4521">
        <ele>2101</ele>
        <time>2021-08-13T07:36:21.159Z</time>
      </trkpt>
      <trkpt lat="46.8444" lon="8.45209">
        <ele>2101</ele>
        <time>2021-08-13T07:36:22.159Z</time>
      </trkpt>
      <trkpt lat="46.8444" lon="8.45209">
        <ele>2101</ele>
        <time>2021-08-13T07:36:23.160Z</time>
      </trkpt>
      <trkpt lat="46.8444" lon="8.45208">
        <ele>2098</ele>
        <time>2021-08-13T07:36:24.160Z</time>
      </trkpt>
      <trkpt lat="46.8444" lon="8.45206">
        <ele>2098</ele>
        <time>2021-08-13T07:36:25.160Z</time>
      </trkpt>
      <trkpt lat="46.8444" lon="8.45205">
        <ele>2097</ele>
        <time>2021-08-13T07:36:26.160Z</time>
      </trkpt>
      <trkpt lat="46.84439" lon="8.45204">
        <ele>2097</ele>
        <time>2021-08-13T07:36:27.160Z</time>
      </trkpt>
      <trkpt lat="46.84439" lon="8.45203">
        <ele>2097</ele>
        <time>2021-08-13T07:36:28.160Z</time>
      </trkpt>
      <trkpt lat="46.84439" lon="8.45201">
        <ele>2097</ele>
        <time>2021-08-13T07:36:29.160Z</time>
      </trkpt>
      <trkpt lat="46.84438" lon="8.452">
        <ele>2097</ele>
        <time>2021-08-13T07:36:30.160Z</time>
      </trkpt>
      <trkpt lat="46.84438" lon="8.45199">
        <ele>2097</ele>
        <time>2021-08-13T07:36:31.160Z</time>
      </trkpt>
      <trkpt lat="46.84437" lon="8.45198">
        <ele>2097</ele>
        <time>2021-08-13T07:36:32.160Z</time>
      </trkpt>
      <trkpt lat="46.84437" lon="8.45197">
        <ele>2097</ele>
        <time>2021-08-13T07:36:33.160Z</time>
      </trkpt>
      <trkpt lat="46.84436" lon="8.45195">
        <ele>2097</ele>
        <time>2021-08-13T07:36:34.160Z</time>
      </trkpt>
      <trkpt lat="46.84436" lon="8.45194">
        <ele>2097</ele>
        <time>2021-08-13T07:36:35.160Z</time>
      </trkpt>
      <trkpt lat="46.84436" lon="8.45193">
        <ele>2096</ele>
        <time>2021-08-13T07:36:36.160Z</time>
      </trkpt>
      <trkpt lat="46.84436" lon="8.45192">
        <ele>2096</ele>
        <time>2021-08-13T07:36:37.160Z</time>
      </trkpt>
      <trkpt lat="46.84437" lon="8.4519">
        <ele>2096</ele>
        <time>2021-08-13T07:36:38.160Z</time>
      </trkpt>
      <trkpt lat="46.84437" lon="8.45188">
        <ele>2095</ele>
        <time>2021-08-13T07:36:39.160Z</time>
      </trkpt>
      <trkpt lat="46.84438" lon="8.45185">
        <ele>2095</ele>
        <time>2021-08-13T07:36:40.160Z</time>
      </trkpt>
      <trkpt lat="46.84438" lon="8.45183">
        <ele>2095</ele>
        <time>2021-08-13T07:36:41.160Z</time>
      </trkpt>
      <trkpt lat="46.84438" lon="8.45181">
        <ele>2095</ele>
        <time>2021-08-13T07:36:42.160Z</time>
      </trkpt>
      <trkpt lat="46.84438" lon="8.4518">
        <ele>2095</ele>
        <time>2021-08-13T07:36:43.160Z</time>
      </trkpt>
      <trkpt lat="46.84437" lon="8.45178">
        <ele>2095</ele>
        <time>2021-08-13T07:36:44.160Z</time>
      </trkpt>
      <trkpt lat="46.84436" lon="8.45178">
        <ele>2095</ele>
        <time>2021-08-13T07:36:45.160Z</time>
      </trkpt>
      <trkpt lat="46.84436" lon="8.45177">
        <ele>2094</ele>
        <time>2021-08-13T07:36:46.160Z</time>
      </trkpt>
      <trkpt lat="46.84436" lon="8.45176">
        <ele>2094</ele>
        <time>2021-08-13T07:36:47.160Z</time>
      </trkpt>
      <trkpt lat="46.84435" lon="8.45175">
        <ele>2094</ele>
        <time>2021-08-13T07:36:48.160Z</time>
      </trkpt>
      <trkpt lat="46.84435" lon="8.45174">
        <ele>2094</ele>
        <time>2021-08-13T07:36:49.160Z</time>
      </trkpt>
      <trkpt lat="46.84434" lon="8.45173">
        <ele>2094</ele>
        <time>2021-08-13T07:36:50.160Z</time>
      </trkpt>
      <trkpt lat="46.84434" lon="8.45172">
        <ele>2094</ele>
        <time>2021-08-13T07:36:51.160Z</time>
      </trkpt>
      <trkpt lat="46.84434" lon="8.45171">
        <ele>2094</ele>
        <time>2021-08-13T07:36:52.160Z</time>
      </trkpt>
      <trkpt lat="46.84433" lon="8.4517">
        <ele>2094</ele>
        <time>2021-08-13T07:36:53.160Z</time>
      </trkpt>
      <trkpt lat="46.84433" lon="8.45168">
        <ele>2094</ele>
        <time>2021-08-13T07:36:54.160Z</time>
      </trkpt>
      <trkpt lat="46.84433" lon="8.45167">
        <ele>2094</ele>
        <time>2021-08-13T07:36:55.160Z</time>
      </trkpt>
      <trkpt lat="46.84433" lon="8.45166">
        <ele>2094</ele>
        <time>2021-08-13T07:36:56.160Z</time>
      </trkpt>
      <trkpt lat="46.84433" lon="8.45165">
        <ele>2094</ele>
        <time>2021-08-13T07:36:57.160Z</time>
      </trkpt>
      <trkpt lat="46.84433" lon="8.45164">
        <ele>2093</ele>
        <time>2021-08-13T07:36:58.160Z</time>
      </trkpt>
      <trkpt lat="46.84433" lon="8.45163">
        <ele>2093</ele>
        <time>2021-08-13T07:36:59.160Z</time>
      </trkpt>
      <trkpt lat="46.84433" lon="8.45161">
        <ele>2093</ele>
        <time>2021-08-13T07:37:00.160Z</time>
      </trkpt>
      <trkpt lat="46.84434" lon="8.4516">
        <ele>2093</ele>
        <time>2021-08-13T07:37:01.160Z</time>
      </trkpt>
      <trkpt lat="46.84434" lon="8.45158">
        <ele>2093</ele>
        <time>2021-08-13T07:37:02.160Z</time>
      </trkpt>
      <trkpt lat="46.84434" lon="8.45157">
        <ele>2092</ele>
        <time>2021-08-13T07:37:03.160Z</time>
      </trkpt>
      <trkpt lat="46.84434" lon="8.45155">
        <ele>2092</ele>
        <time>2021-08-13T07:37:04.160Z</time>
      </trkpt>
      <trkpt lat="46.84435" lon="8.45154">
        <ele>2093</ele>
        <time>2021-08-13T07:37:05.160Z</time>
      </trkpt>
      <trkpt lat="46.84435" lon="8.45153">
        <ele>2093</ele>
        <time>2021-08-13T07:37:06.160Z</time>
      </trkpt>
      <trkpt lat="46.84436" lon="8.45152">
        <ele>2093</ele>
        <time>2021-08-13T07:37:07.160Z</time>
      </trkpt>
      <trkpt lat="46.84436" lon="8.45152">
        <ele>2093</ele>
        <time>2021-08-13T07:37:08.160Z</time>
      </trkpt>
      <trkpt lat="46.84436" lon="8.45151">
        <ele>2092</ele>
        <time>2021-08-13T07:37:09.160Z</time>
      </trkpt>
      <trkpt lat="46.84436" lon="8.45151">
        <ele>2092</ele>
        <time>2021-08-13T07:37:10.160Z</time>
      </trkpt>
      <trkpt lat="46.84436" lon="8.45152">
        <ele>2088</ele>
        <time>2021-08-13T07:37:11.160Z</time>
      </trkpt>
      <trkpt lat="46.84437" lon="8.45151">
        <ele>2087</ele>
        <time>2021-08-13T07:37:12.161Z</time>
      </trkpt>
      <trkpt lat="46.84437" lon="8.45151">
        <ele>2087</ele>
        <time>2021-08-13T07:37:13.161Z</time>
      </trkpt>
      <trkpt lat="46.84438" lon="8.4515">
        <ele>2087</ele>
        <time>2021-08-13T07:37:14.161Z</time>
      </trkpt>
      <trkpt lat="46.84438" lon="8.45149">
        <ele>2087</ele>
        <time>2021-08-13T07:37:15.160Z</time>
      </trkpt>
      <trkpt lat="46.84439" lon="8.45149">
        <ele>2087</ele>
        <time>2021-08-13T07:37:16.160Z</time>
      </trkpt>
      <trkpt lat="46.8444" lon="8.45148">
        <ele>2087</ele>
        <time>2021-08-13T07:37:17.161Z</time>
      </trkpt>
      <trkpt lat="46.8444" lon="8.45147">
        <ele>2087</ele>
        <time>2021-08-13T07:37:18.161Z</time>
      </trkpt>
      <trkpt lat="46.84441" lon="8.45146">
        <ele>2087</ele>
        <time>2021-08-13T07:37:19.160Z</time>
      </trkpt>
      <trkpt lat="46.84442" lon="8.45145">
        <ele>2086</ele>
        <time>2021-08-13T07:37:20.160Z</time>
      </trkpt>
      <trkpt lat="46.84442" lon="8.45144">
        <ele>2086</ele>
        <time>2021-08-13T07:37:21.160Z</time>
      </trkpt>
      <trkpt lat="46.84443" lon="8.45142">
        <ele>2086</ele>
        <time>2021-08-13T07:37:22.161Z</time>
      </trkpt>
      <trkpt lat="46.84443" lon="8.45141">
        <ele>2085</ele>
        <time>2021-08-13T07:37:23.160Z</time>
      </trkpt>
      <trkpt lat="46.84443" lon="8.4514">
        <ele>2085</ele>
        <time>2021-08-13T07:37:24.160Z</time>
      </trkpt>
      <trkpt lat="46.84443" lon="8.4514">
        <ele>2084</ele>
        <time>2021-08-13T07:37:25.160Z</time>
      </trkpt>
      <trkpt lat="46.84444" lon="8.45139">
        <ele>2084</ele>
        <time>2021-08-13T07:37:26.160Z</time>
      </trkpt>
      <trkpt lat="46.84445" lon="8.45139">
        <ele>2084</ele>
        <time>2021-08-13T07:37:27.161Z</time>
      </trkpt>
      <trkpt lat="46.84445" lon="8.45139">
        <ele>2084</ele>
        <time>2021-08-13T07:37:28.160Z</time>
      </trkpt>
      <trkpt lat="46.84445" lon="8.45139">
        <ele>2084</ele>
        <time>2021-08-13T07:37:29.160Z</time>
      </trkpt>
      <trkpt lat="46.84446" lon="8.45138">
        <ele>2084</ele>
        <time>2021-08-13T07:37:30.160Z</time>
      </trkpt>
      <trkpt lat="46.84447" lon="8.45137">
        <ele>2084</ele>
        <time>2021-08-13T07:37:31.160Z</time>
      </trkpt>
      <trkpt lat="46.84447" lon="8.45137">
        <ele>2084</ele>
        <time>2021-08-13T07:37:32.160Z</time>
      </trkpt>
      <trkpt lat="46.84448" lon="8.45136">
        <ele>2083</ele>
        <time>2021-08-13T07:37:33.161Z</time>
      </trkpt>
      <trkpt lat="46.84448" lon="8.45136">
        <ele>2083</ele>
        <time>2021-08-13T07:37:34.160Z</time>
      </trkpt>
      <trkpt lat="46.84449" lon="8.45135">
        <ele>2082</ele>
        <time>2021-08-13T07:37:35.160Z</time>
      </trkpt>
      <trkpt lat="46.8445" lon="8.45134">
        <ele>2082</ele>
        <time>2021-08-13T07:37:36.160Z</time>
      </trkpt>
      <trkpt lat="46.8445" lon="8.45134">
        <ele>2082</ele>
        <time>2021-08-13T07:37:37.161Z</time>
      </trkpt>
      <trkpt lat="46.84451" lon="8.45133">
        <ele>2081</ele>
        <time>2021-08-13T07:37:38.161Z</time>
      </trkpt>
      <trkpt lat="46.84451" lon="8.45132">
        <ele>2081</ele>
        <time>2021-08-13T07:37:39.160Z</time>
      </trkpt>
      <trkpt lat="46.84452" lon="8.45131">
        <ele>2081</ele>
        <time>2021-08-13T07:37:40.160Z</time>
      </trkpt>
      <trkpt lat="46.84452" lon="8.4513">
        <ele>2081</ele>
        <time>2021-08-13T07:37:41.160Z</time>
      </trkpt>
      <trkpt lat="46.84453" lon="8.4513">
        <ele>2081</ele>
        <time>2021-08-13T07:37:42.160Z</time>
      </trkpt>
      <trkpt lat="46.84453" lon="8.4513">
        <ele>2081</ele>
        <time>2021-08-13T07:37:43.160Z</time>
      </trkpt>
      <trkpt lat="46.84454" lon="8.4513">
        <ele>2081</ele>
        <time>2021-08-13T07:37:44.160Z</time>
      </trkpt>
      <trkpt lat="46.84454" lon="8.45129">
        <ele>2081</ele>
        <time>2021-08-13T07:37:45.160Z</time>
      </trkpt>
      <trkpt lat="46.84454" lon="8.45128">
        <ele>2081</ele>
        <time>2021-08-13T07:37:46.160Z</time>
      </trkpt>
      <trkpt lat="46.84455" lon="8.45128">
        <ele>2081</ele>
        <time>2021-08-13T07:37:47.160Z</time>
      </trkpt>
      <trkpt lat="46.84456" lon="8.45127">
        <ele>2081</ele>
        <time>2021-08-13T07:37:48.160Z</time>
      </trkpt>
      <trkpt lat="46.84457" lon="8.45126">
        <ele>2080</ele>
        <time>2021-08-13T07:37:49.160Z</time>
      </trkpt>
      <trkpt lat="46.84457" lon="8.45125">
        <ele>2080</ele>
        <time>2021-08-13T07:37:50.161Z</time>
      </trkpt>
      <trkpt lat="46.84458" lon="8.45125">
        <ele>2080</ele>
        <time>2021-08-13T07:37:51.160Z</time>
      </trkpt>
      <trkpt lat="46.8446" lon="8.45124">
        <ele>2080</ele>
        <time>2021-08-13T07:37:52.160Z</time>
      </trkpt>
      <trkpt lat="46.84461" lon="8.45123">
        <ele>2079</ele>
        <time>2021-08-13T07:37:53.160Z</time>
      </trkpt>
      <trkpt lat="46.84462" lon="8.45122">
        <ele>2078</ele>
        <time>2021-08-13T07:37:54.160Z</time>
      </trkpt>
      <trkpt lat="46.84463" lon="8.45121">
        <ele>2078</ele>
        <time>2021-08-13T07:37:55.161Z</time>
      </trkpt>
      <trkpt lat="46.84464" lon="8.4512">
        <ele>2077</ele>
        <time>2021-08-13T07:37:56.161Z</time>
      </trkpt>
      <trkpt lat="46.84465" lon="8.45118">
        <ele>2076</ele>
        <time>2021-08-13T07:37:57.160Z</time>
      </trkpt>
      <trkpt lat="46.84466" lon="8.45117">
        <ele>2075</ele>
        <time>2021-08-13T07:37:58.161Z</time>
      </trkpt>
      <trkpt lat="46.84467" lon="8.45115">
        <ele>2075</ele>
        <time>2021-08-13T07:37:59.161Z</time>
      </trkpt>
      <trkpt lat="46.84467" lon="8.45113">
        <ele>2075</ele>
        <time>2021-08-13T07:38:00.161Z</time>
      </trkpt>
      <trkpt lat="46.84468" lon="8.45112">
        <ele>2075</ele>
        <time>2021-08-13T07:38:01.161Z</time>
      </trkpt>
      <trkpt lat="46.84468" lon="8.4511">
        <ele>2074</ele>
        <time>2021-08-13T07:38:02.161Z</time>
      </trkpt>
      <trkpt lat="46.84469" lon="8.45108">
        <ele>2074</ele>
        <time>2021-08-13T07:38:03.161Z</time>
      </trkpt>
      <trkpt lat="46.84469" lon="8.45107">
        <ele>2074</ele>
        <time>2021-08-13T07:38:04.161Z</time>
      </trkpt>
      <trkpt lat="46.84469" lon="8.45105">
        <ele>2074</ele>
        <time>2021-08-13T07:38:05.161Z</time>
      </trkpt>
      <trkpt lat="46.84469" lon="8.45105">
        <ele>2074</ele>
        <time>2021-08-13T07:38:06.161Z</time>
      </trkpt>
      <trkpt lat="46.8447" lon="8.45104">
        <ele>2074</ele>
        <time>2021-08-13T07:38:07.161Z</time>
      </trkpt>
      <trkpt lat="46.8447" lon="8.45103">
        <ele>2074</ele>
        <time>2021-08-13T07:38:08.161Z</time>
      </trkpt>
      <trkpt lat="46.84471" lon="8.45102">
        <ele>2074</ele>
        <time>2021-08-13T07:38:09.161Z</time>
      </trkpt>
      <trkpt lat="46.84471" lon="8.45102">
        <ele>2073</ele>
        <time>2021-08-13T07:38:10.160Z</time>
      </trkpt>
      <trkpt lat="46.84472" lon="8.45101">
        <ele>2073</ele>
        <time>2021-08-13T07:38:11.161Z</time>
      </trkpt>
      <trkpt lat="46.84473" lon="8.45101">
        <ele>2073</ele>
        <time>2021-08-13T07:38:12.161Z</time>
      </trkpt>
      <trkpt lat="46.84473" lon="8.451">
        <ele>2073</ele>
        <time>2021-08-13T07:38:13.161Z</time>
      </trkpt>
      <trkpt lat="46.84474" lon="8.451">
        <ele>2073</ele>
        <time>2021-08-13T07:38:14.161Z</time>
      </trkpt>
      <trkpt lat="46.84474" lon="8.45101">
        <ele>2072</ele>
        <time>2021-08-13T07:38:15.161Z</time>
      </trkpt>
      <trkpt lat="46.84475" lon="8.45101">
        <ele>2072</ele>
        <time>2021-08-13T07:38:16.160Z</time>
      </trkpt>
      <trkpt lat="46.84476" lon="8.45101">
        <ele>2072</ele>
        <time>2021-08-13T07:38:17.161Z</time>
      </trkpt>
      <trkpt lat="46.84477" lon="8.45101">
        <ele>2072</ele>
        <time>2021-08-13T07:38:18.161Z</time>
      </trkpt>
      <trkpt lat="46.84477" lon="8.45101">
        <ele>2072</ele>
        <time>2021-08-13T07:38:19.160Z</time>
      </trkpt>
      <trkpt lat="46.84478" lon="8.451">
        <ele>2071</ele>
        <time>2021-08-13T07:38:20.160Z</time>
      </trkpt>
      <trkpt lat="46.84479" lon="8.45099">
        <ele>2071</ele>
        <time>2021-08-13T07:38:21.161Z</time>
      </trkpt>
      <trkpt lat="46.8448" lon="8.45098">
        <ele>2071</ele>
        <time>2021-08-13T07:38:22.160Z</time>
      </trkpt>
      <trkpt lat="46.8448" lon="8.45097">
        <ele>2070</ele>
        <time>2021-08-13T07:38:23.160Z</time>
      </trkpt>
      <trkpt lat="46.8448" lon="8.45096">
        <ele>2070</ele>
        <time>2021-08-13T07:38:24.161Z</time>
      </trkpt>
      <trkpt lat="46.84481" lon="8.45095">
        <ele>2070</ele>
        <time>2021-08-13T07:38:25.160Z</time>
      </trkpt>
      <trkpt lat="46.84482" lon="8.45094">
        <ele>2070</ele>
        <time>2021-08-13T07:38:26.160Z</time>
      </trkpt>
      <trkpt lat="46.84483" lon="8.45093">
        <ele>2070</ele>
        <time>2021-08-13T07:38:27.161Z</time>
      </trkpt>
      <trkpt lat="46.84484" lon="8.45092">
        <ele>2070</ele>
        <time>2021-08-13T07:38:28.161Z</time>
      </trkpt>
      <trkpt lat="46.84485" lon="8.45091">
        <ele>2070</ele>
        <time>2021-08-13T07:38:29.160Z</time>
      </trkpt>
      <trkpt lat="46.84485" lon="8.4509">
        <ele>2071</ele>
        <time>2021-08-13T07:38:30.160Z</time>
      </trkpt>
      <trkpt lat="46.84486" lon="8.45088">
        <ele>2071</ele>
        <time>2021-08-13T07:38:31.160Z</time>
      </trkpt>
      <trkpt lat="46.84486" lon="8.45086">
        <ele>2072</ele>
        <time>2021-08-13T07:38:32.161Z</time>
      </trkpt>
      <trkpt lat="46.84487" lon="8.45085">
        <ele>2072</ele>
        <time>2021-08-13T07:38:33.161Z</time>
      </trkpt>
      <trkpt lat="46.84487" lon="8.45083">
        <ele>2073</ele>
        <time>2021-08-13T07:38:34.160Z</time>
      </trkpt>
      <trkpt lat="46.84487" lon="8.45083">
        <ele>2073</ele>
        <time>2021-08-13T07:38:35.160Z</time>
      </trkpt>
      <trkpt lat="46.84487" lon="8.45083">
        <ele>2073</ele>
        <time>2021-08-13T07:38:36.161Z</time>
      </trkpt>
      <trkpt lat="46.84488" lon="8.45083">
        <ele>2073</ele>
        <time>2021-08-13T07:38:37.161Z</time>
      </trkpt>
      <trkpt lat="46.84488" lon="8.45084">
        <ele>2073</ele>
        <time>2021-08-13T07:38:38.160Z</time>
      </trkpt>
      <trkpt lat="46.84488" lon="8.45085">
        <ele>2073</ele>
        <time>2021-08-13T07:38:39.160Z</time>
      </trkpt>
      <trkpt lat="46.84489" lon="8.45086">
        <ele>2073</ele>
        <time>2021-08-13T07:38:40.160Z</time>
      </trkpt>
      <trkpt lat="46.84489" lon="8.45087">
        <ele>2073</ele>
        <time>2021-08-13T07:38:41.161Z</time>
      </trkpt>
      <trkpt lat="46.8449" lon="8.45087">
        <ele>2072</ele>
        <time>2021-08-13T07:38:42.161Z</time>
      </trkpt>
      <trkpt lat="46.84491" lon="8.45087">
        <ele>2072</ele>
        <time>2021-08-13T07:38:43.161Z</time>
      </trkpt>
      <trkpt lat="46.84491" lon="8.45087">
        <ele>2072</ele>
        <time>2021-08-13T07:38:44.160Z</time>
      </trkpt>
      <trkpt lat="46.84492" lon="8.45087">
        <ele>2071</ele>
        <time>2021-08-13T07:38:45.161Z</time>
      </trkpt>
      <trkpt lat="46.84492" lon="8.45087">
        <ele>2071</ele>
        <time>2021-08-13T07:38:46.161Z</time>
      </trkpt>
      <trkpt lat="46.84493" lon="8.45087">
        <ele>2071</ele>
        <time>2021-08-13T07:38:47.161Z</time>
      </trkpt>
      <trkpt lat="46.84494" lon="8.45087">
        <ele>2070</ele>
        <time>2021-08-13T07:38:48.160Z</time>
      </trkpt>
      <trkpt lat="46.84495" lon="8.45087">
        <ele>2070</ele>
        <time>2021-08-13T07:38:49.161Z</time>
      </trkpt>
      <trkpt lat="46.84495" lon="8.45087">
        <ele>2070</ele>
        <time>2021-08-13T07:38:50.161Z</time>
      </trkpt>
      <trkpt lat="46.84496" lon="8.45087">
        <ele>2070</ele>
        <time>2021-08-13T07:38:51.160Z</time>
      </trkpt>
      <trkpt lat="46.84497" lon="8.45087">
        <ele>2070</ele>
        <time>2021-08-13T07:38:52.161Z</time>
      </trkpt>
      <trkpt lat="46.84498" lon="8.45087">
        <ele>2070</ele>
        <time>2021-08-13T07:38:53.160Z</time>
      </trkpt>
      <trkpt lat="46.84498" lon="8.45087">
        <ele>2069</ele>
        <time>2021-08-13T07:38:54.161Z</time>
      </trkpt>
      <trkpt lat="46.84499" lon="8.45086">
        <ele>2070</ele>
        <time>2021-08-13T07:38:55.161Z</time>
      </trkpt>
      <trkpt lat="46.84499" lon="8.45087">
        <ele>2070</ele>
        <time>2021-08-13T07:38:56.161Z</time>
      </trkpt>
      <trkpt lat="46.845" lon="8.45087">
        <ele>2070</ele>
        <time>2021-08-13T07:38:57.160Z</time>
      </trkpt>
      <trkpt lat="46.84501" lon="8.45087">
        <ele>2069</ele>
        <time>2021-08-13T07:38:58.161Z</time>
      </trkpt>
      <trkpt lat="46.84502" lon="8.45086">
        <ele>2069</ele>
        <time>2021-08-13T07:38:59.161Z</time>
      </trkpt>
      <trkpt lat="46.84503" lon="8.45086">
        <ele>2069</ele>
        <time>2021-08-13T07:39:00.160Z</time>
      </trkpt>
      <trkpt lat="46.84504" lon="8.45085">
        <ele>2069</ele>
        <time>2021-08-13T07:39:01.160Z</time>
      </trkpt>
      <trkpt lat="46.84506" lon="8.45085">
        <ele>2069</ele>
        <time>2021-08-13T07:39:02.160Z</time>
      </trkpt>
      <trkpt lat="46.84507" lon="8.45086">
        <ele>2069</ele>
        <time>2021-08-13T07:39:03.160Z</time>
      </trkpt>
      <trkpt lat="46.84508" lon="8.45086">
        <ele>2069</ele>
        <time>2021-08-13T07:39:04.161Z</time>
      </trkpt>
      <trkpt lat="46.84508" lon="8.45086">
        <ele>2069</ele>
        <time>2021-08-13T07:39:05.160Z</time>
      </trkpt>
      <trkpt lat="46.84509" lon="8.45087">
        <ele>2069</ele>
        <time>2021-08-13T07:39:06.160Z</time>
      </trkpt>
      <trkpt lat="46.8451" lon="8.45086">
        <ele>2068</ele>
        <time>2021-08-13T07:39:07.160Z</time>
      </trkpt>
      <trkpt lat="46.84511" lon="8.45086">
        <ele>2068</ele>
        <time>2021-08-13T07:39:08.160Z</time>
      </trkpt>
      <trkpt lat="46.84512" lon="8.45086">
        <ele>2067</ele>
        <time>2021-08-13T07:39:09.160Z</time>
      </trkpt>
      <trkpt lat="46.84513" lon="8.45086">
        <ele>2067</ele>
        <time>2021-08-13T07:39:10.160Z</time>
      </trkpt>
      <trkpt lat="46.84514" lon="8.45086">
        <ele>2066</ele>
        <time>2021-08-13T07:39:11.160Z</time>
      </trkpt>
      <trkpt lat="46.84515" lon="8.45086">
        <ele>2065</ele>
        <time>2021-08-13T07:39:12.161Z</time>
      </trkpt>
      <trkpt lat="46.84515" lon="8.45085">
        <ele>2065</ele>
        <time>2021-08-13T07:39:13.160Z</time>
      </trkpt>
      <trkpt lat="46.84516" lon="8.45084">
        <ele>2065</ele>
        <time>2021-08-13T07:39:14.161Z</time>
      </trkpt>
      <trkpt lat="46.84516" lon="8.45084">
        <ele>2065</ele>
        <time>2021-08-13T07:39:15.161Z</time>
      </trkpt>
      <trkpt lat="46.84517" lon="8.45082">
        <ele>2064</ele>
        <time>2021-08-13T07:39:16.161Z</time>
      </trkpt>
      <trkpt lat="46.84517" lon="8.45081">
        <ele>2063</ele>
        <time>2021-08-13T07:39:17.161Z</time>
      </trkpt>
      <trkpt lat="46.84517" lon="8.45079">
        <ele>2063</ele>
        <time>2021-08-13T07:39:18.161Z</time>
      </trkpt>
      <trkpt lat="46.84517" lon="8.45078">
        <ele>2063</ele>
        <time>2021-08-13T07:39:19.160Z</time>
      </trkpt>
      <trkpt lat="46.84518" lon="8.45077">
        <ele>2063</ele>
        <time>2021-08-13T07:39:20.161Z</time>
      </trkpt>
      <trkpt lat="46.84518" lon="8.45075">
        <ele>2063</ele>
        <time>2021-08-13T07:39:21.161Z</time>
      </trkpt>
      <trkpt lat="46.84518" lon="8.45074">
        <ele>2063</ele>
        <time>2021-08-13T07:39:22.161Z</time>
      </trkpt>
      <trkpt lat="46.84519" lon="8.45072">
        <ele>2062</ele>
        <time>2021-08-13T07:39:23.161Z</time>
      </trkpt>
      <trkpt lat="46.84519" lon="8.45071">
        <ele>2062</ele>
        <time>2021-08-13T07:39:24.161Z</time>
      </trkpt>
      <trkpt lat="46.8452" lon="8.45069">
        <ele>2062</ele>
        <time>2021-08-13T07:39:25.161Z</time>
      </trkpt>
      <trkpt lat="46.84521" lon="8.45068">
        <ele>2062</ele>
        <time>2021-08-13T07:39:26.161Z</time>
      </trkpt>
      <trkpt lat="46.84522" lon="8.45066">
        <ele>2061</ele>
        <time>2021-08-13T07:39:27.160Z</time>
      </trkpt>
      <trkpt lat="46.84523" lon="8.45065">
        <ele>2061</ele>
        <time>2021-08-13T07:39:28.160Z</time>
      </trkpt>
      <trkpt lat="46.84524" lon="8.45064">
        <ele>2061</ele>
        <time>2021-08-13T07:39:29.161Z</time>
      </trkpt>
      <trkpt lat="46.84524" lon="8.45062">
        <ele>2061</ele>
        <time>2021-08-13T07:39:30.161Z</time>
      </trkpt>
      <trkpt lat="46.84525" lon="8.45061">
        <ele>2061</ele>
        <time>2021-08-13T07:39:31.161Z</time>
      </trkpt>
      <trkpt lat="46.84526" lon="8.4506">
        <ele>2060</ele>
        <time>2021-08-13T07:39:32.161Z</time>
      </trkpt>
      <trkpt lat="46.84526" lon="8.45059">
        <ele>2060</ele>
        <time>2021-08-13T07:39:33.160Z</time>
      </trkpt>
      <trkpt lat="46.84527" lon="8.45057">
        <ele>2060</ele>
        <time>2021-08-13T07:39:34.161Z</time>
      </trkpt>
      <trkpt lat="46.84527" lon="8.45056">
        <ele>2060</ele>
        <time>2021-08-13T07:39:35.161Z</time>
      </trkpt>
      <trkpt lat="46.84528" lon="8.45055">
        <ele>2060</ele>
        <time>2021-08-13T07:39:36.161Z</time>
      </trkpt>
      <trkpt lat="46.84528" lon="8.45054">
        <ele>2060</ele>
        <time>2021-08-13T07:39:37.160Z</time>
      </trkpt>
      <trkpt lat="46.84528" lon="8.45053">
        <ele>2060</ele>
        <time>2021-08-13T07:39:38.161Z</time>
      </trkpt>
      <trkpt lat="46.84529" lon="8.45053">
        <ele>2060</ele>
        <time>2021-08-13T07:39:39.161Z</time>
      </trkpt>
      <trkpt lat="46.8453" lon="8.45053">
        <ele>2060</ele>
        <time>2021-08-13T07:39:40.160Z</time>
      </trkpt>
      <trkpt lat="46.8453" lon="8.45052">
        <ele>2060</ele>
        <time>2021-08-13T07:39:41.161Z</time>
      </trkpt>
      <trkpt lat="46.8453" lon="8.45051">
        <ele>2060</ele>
        <time>2021-08-13T07:39:42.161Z</time>
      </trkpt>
      <trkpt lat="46.84531" lon="8.4505">
        <ele>2060</ele>
        <time>2021-08-13T07:39:43.161Z</time>
      </trkpt>
      <trkpt lat="46.84531" lon="8.45049">
        <ele>2060</ele>
        <time>2021-08-13T07:39:44.161Z</time>
      </trkpt>
      <trkpt lat="46.84531" lon="8.45048">
        <ele>2059</ele>
        <time>2021-08-13T07:39:45.161Z</time>
      </trkpt>
      <trkpt lat="46.84531" lon="8.45048">
        <ele>2059</ele>
        <time>2021-08-13T07:39:46.161Z</time>
      </trkpt>
      <trkpt lat="46.84531" lon="8.45047">
        <ele>2059</ele>
        <time>2021-08-13T07:39:47.160Z</time>
      </trkpt>
      <trkpt lat="46.84531" lon="8.45046">
        <ele>2058</ele>
        <time>2021-08-13T07:39:48.161Z</time>
      </trkpt>
      <trkpt lat="46.84531" lon="8.45045">
        <ele>2057</ele>
        <time>2021-08-13T07:39:49.161Z</time>
      </trkpt>
      <trkpt lat="46.84531" lon="8.45044">
        <ele>2057</ele>
        <time>2021-08-13T07:39:50.160Z</time>
      </trkpt>
      <trkpt lat="46.84532" lon="8.45043">
        <ele>2056</ele>
        <time>2021-08-13T07:39:51.160Z</time>
      </trkpt>
      <trkpt lat="46.84532" lon="8.45042">
        <ele>2056</ele>
        <time>2021-08-13T07:39:52.161Z</time>
      </trkpt>
      <trkpt lat="46.84532" lon="8.45041">
        <ele>2055</ele>
        <time>2021-08-13T07:39:53.161Z</time>
      </trkpt>
      <trkpt lat="46.84532" lon="8.45041">
        <ele>2055</ele>
        <time>2021-08-13T07:39:54.161Z</time>
      </trkpt>
      <trkpt lat="46.84533" lon="8.4504">
        <ele>2055</ele>
        <time>2021-08-13T07:39:55.160Z</time>
      </trkpt>
      <trkpt lat="46.84533" lon="8.4504">
        <ele>2054</ele>
        <time>2021-08-13T07:39:56.160Z</time>
      </trkpt>
      <trkpt lat="46.84533" lon="8.45039">
        <ele>2054</ele>
        <time>2021-08-13T07:39:57.161Z</time>
      </trkpt>
      <trkpt lat="46.84533" lon="8.45038">
        <ele>2054</ele>
        <time>2021-08-13T07:39:58.160Z</time>
      </trkpt>
      <trkpt lat="46.84533" lon="8.45037">
        <ele>2054</ele>
        <time>2021-08-13T07:39:59.160Z</time>
      </trkpt>
      <trkpt lat="46.84533" lon="8.45037">
        <ele>2054</ele>
        <time>2021-08-13T07:40:00.161Z</time>
      </trkpt>
      <trkpt lat="46.84534" lon="8.45036">
        <ele>2054</ele>
        <time>2021-08-13T07:40:01.160Z</time>
      </trkpt>
      <trkpt lat="46.84534" lon="8.45035">
        <ele>2054</ele>
        <time>2021-08-13T07:40:02.161Z</time>
      </trkpt>
      <trkpt lat="46.84534" lon="8.45034">
        <ele>2054</ele>
        <time>2021-08-13T07:40:03.161Z</time>
      </trkpt>
      <trkpt lat="46.84535" lon="8.45033">
        <ele>2054</ele>
        <time>2021-08-13T07:40:04.160Z</time>
      </trkpt>
      <trkpt lat="46.84535" lon="8.45032">
        <ele>2054</ele>
        <time>2021-08-13T07:40:05.160Z</time>
      </trkpt>
      <trkpt lat="46.84536" lon="8.4503">
        <ele>2053</ele>
        <time>2021-08-13T07:40:06.161Z</time>
      </trkpt>
      <trkpt lat="46.84536" lon="8.45029">
        <ele>2053</ele>
        <time>2021-08-13T07:40:07.161Z</time>
      </trkpt>
      <trkpt lat="46.84537" lon="8.45028">
        <ele>2053</ele>
        <time>2021-08-13T07:40:08.160Z</time>
      </trkpt>
      <trkpt lat="46.84537" lon="8.45027">
        <ele>2053</ele>
        <time>2021-08-13T07:40:09.161Z</time>
      </trkpt>
      <trkpt lat="46.84537" lon="8.45026">
        <ele>2052</ele>
        <time>2021-08-13T07:40:10.160Z</time>
      </trkpt>
      <trkpt lat="46.84538" lon="8.45025">
        <ele>2052</ele>
        <time>2021-08-13T07:40:11.161Z</time>
      </trkpt>
      <trkpt lat="46.84538" lon="8.45023">
        <ele>2052</ele>
        <time>2021-08-13T07:40:12.160Z</time>
      </trkpt>
      <trkpt lat="46.84538" lon="8.45022">
        <ele>2052</ele>
        <time>2021-08-13T07:40:13.161Z</time>
      </trkpt>
      <trkpt lat="46.84538" lon="8.4502">
        <ele>2051</ele>
        <time>2021-08-13T07:40:14.160Z</time>
      </trkpt>
      <trkpt lat="46.84538" lon="8.45018">
        <ele>2051</ele>
        <time>2021-08-13T07:40:15.161Z</time>
      </trkpt>
      <trkpt lat="46.84539" lon="8.45016">
        <ele>2051</ele>
        <time>2021-08-13T07:40:16.161Z</time>
      </trkpt>
      <trkpt lat="46.84539" lon="8.45014">
        <ele>2051</ele>
        <time>2021-08-13T07:40:17.161Z</time>
      </trkpt>
      <trkpt lat="46.84539" lon="8.45012">
        <ele>2051</ele>
        <time>2021-08-13T07:40:18.161Z</time>
      </trkpt>
      <trkpt lat="46.84539" lon="8.4501">
        <ele>2051</ele>
        <time>2021-08-13T07:40:19.160Z</time>
      </trkpt>
      <trkpt lat="46.8454" lon="8.45009">
        <ele>2051</ele>
        <time>2021-08-13T07:40:20.161Z</time>
      </trkpt>
      <trkpt lat="46.84539" lon="8.45007">
        <ele>2051</ele>
        <time>2021-08-13T07:40:21.161Z</time>
      </trkpt>
      <trkpt lat="46.8454" lon="8.45006">
        <ele>2051</ele>
        <time>2021-08-13T07:40:22.161Z</time>
      </trkpt>
      <trkpt lat="46.8454" lon="8.45005">
        <ele>2051</ele>
        <time>2021-08-13T07:40:23.161Z</time>
      </trkpt>
      <trkpt lat="46.8454" lon="8.45004">
        <ele>2051</ele>
        <time>2021-08-13T07:40:24.160Z</time>
      </trkpt>
      <trkpt lat="46.8454" lon="8.45002">
        <ele>2051</ele>
        <time>2021-08-13T07:40:25.161Z</time>
      </trkpt>
      <trkpt lat="46.8454" lon="8.45001">
        <ele>2051</ele>
        <time>2021-08-13T07:40:26.160Z</time>
      </trkpt>
      <trkpt lat="46.8454" lon="8.45">
        <ele>2051</ele>
        <time>2021-08-13T07:40:27.160Z</time>
      </trkpt>
      <trkpt lat="46.8454" lon="8.44999">
        <ele>2051</ele>
        <time>2021-08-13T07:40:28.161Z</time>
      </trkpt>
      <trkpt lat="46.8454" lon="8.44998">
        <ele>2051</ele>
        <time>2021-08-13T07:40:29.161Z</time>
      </trkpt>
      <trkpt lat="46.8454" lon="8.44996">
        <ele>2051</ele>
        <time>2021-08-13T07:40:30.161Z</time>
      </trkpt>
      <trkpt lat="46.84541" lon="8.44995">
        <ele>2051</ele>
        <time>2021-08-13T07:40:31.160Z</time>
      </trkpt>
      <trkpt lat="46.84541" lon="8.44993">
        <ele>2050</ele>
        <time>2021-08-13T07:40:32.160Z</time>
      </trkpt>
      <trkpt lat="46.84541" lon="8.44992">
        <ele>2050</ele>
        <time>2021-08-13T07:40:33.160Z</time>
      </trkpt>
      <trkpt lat="46.84541" lon="8.4499">
        <ele>2050</ele>
        <time>2021-08-13T07:40:34.160Z</time>
      </trkpt>
      <trkpt lat="46.84541" lon="8.44989">
        <ele>2050</ele>
        <time>2021-08-13T07:40:35.160Z</time>
      </trkpt>
      <trkpt lat="46.84541" lon="8.44988">
        <ele>2049</ele>
        <time>2021-08-13T07:40:36.161Z</time>
      </trkpt>
      <trkpt lat="46.84542" lon="8.44986">
        <ele>2049</ele>
        <time>2021-08-13T07:40:37.161Z</time>
      </trkpt>
      <trkpt lat="46.84542" lon="8.44985">
        <ele>2050</ele>
        <time>2021-08-13T07:40:38.161Z</time>
      </trkpt>
      <trkpt lat="46.84542" lon="8.44984">
        <ele>2050</ele>
        <time>2021-08-13T07:40:39.161Z</time>
      </trkpt>
      <trkpt lat="46.84542" lon="8.44983">
        <ele>2050</ele>
        <time>2021-08-13T07:40:40.161Z</time>
      </trkpt>
      <trkpt lat="46.84542" lon="8.44981">
        <ele>2049</ele>
        <time>2021-08-13T07:40:41.161Z</time>
      </trkpt>
      <trkpt lat="46.84543" lon="8.4498">
        <ele>2049</ele>
        <time>2021-08-13T07:40:42.161Z</time>
      </trkpt>
      <trkpt lat="46.84543" lon="8.44979">
        <ele>2048</ele>
        <time>2021-08-13T07:40:43.161Z</time>
      </trkpt>
      <trkpt lat="46.84543" lon="8.44978">
        <ele>2048</ele>
        <time>2021-08-13T07:40:44.161Z</time>
      </trkpt>
      <trkpt lat="46.84543" lon="8.44976">
        <ele>2047</ele>
        <time>2021-08-13T07:40:45.161Z</time>
      </trkpt>
      <trkpt lat="46.84543" lon="8.44975">
        <ele>2047</ele>
        <time>2021-08-13T07:40:46.161Z</time>
      </trkpt>
      <trkpt lat="46.84543" lon="8.44974">
        <ele>2046</ele>
        <time>2021-08-13T07:40:47.160Z</time>
      </trkpt>
      <trkpt lat="46.84543" lon="8.44973">
        <ele>2046</ele>
        <time>2021-08-13T07:40:48.161Z</time>
      </trkpt>
      <trkpt lat="46.84543" lon="8.44972">
        <ele>2045</ele>
        <time>2021-08-13T07:40:49.161Z</time>
      </trkpt>
      <trkpt lat="46.84544" lon="8.44971">
        <ele>2045</ele>
        <time>2021-08-13T07:40:50.161Z</time>
      </trkpt>
      <trkpt lat="46.84544" lon="8.4497">
        <ele>2044</ele>
        <time>2021-08-13T07:40:51.161Z</time>
      </trkpt>
      <trkpt lat="46.84545" lon="8.44968">
        <ele>2044</ele>
        <time>2021-08-13T07:40:52.161Z</time>
      </trkpt>
      <trkpt lat="46.84545" lon="8.44967">
        <ele>2044</ele>
        <time>2021-08-13T07:40:53.161Z</time>
      </trkpt>
      <trkpt lat="46.84546" lon="8.44966">
        <ele>2044</ele>
        <time>2021-08-13T07:40:54.160Z</time>
      </trkpt>
      <trkpt lat="46.84546" lon="8.44964">
        <ele>2044</ele>
        <time>2021-08-13T07:40:55.160Z</time>
      </trkpt>
      <trkpt lat="46.84546" lon="8.44963">
        <ele>2044</ele>
        <time>2021-08-13T07:40:56.161Z</time>
      </trkpt>
      <trkpt lat="46.84546" lon="8.44962">
        <ele>2044</ele>
        <time>2021-08-13T07:40:57.161Z</time>
      </trkpt>
      <trkpt lat="46.84546" lon="8.4496">
        <ele>2045</ele>
        <time>2021-08-13T07:40:58.161Z</time>
      </trkpt>
      <trkpt lat="46.84547" lon="8.44959">
        <ele>2045</ele>
        <time>2021-08-13T07:40:59.161Z</time>
      </trkpt>
      <trkpt lat="46.84547" lon="8.44958">
        <ele>2045</ele>
        <time>2021-08-13T07:41:00.161Z</time>
      </trkpt>
      <trkpt lat="46.84547" lon="8.44957">
        <ele>2045</ele>
        <time>2021-08-13T07:41:01.161Z</time>
      </trkpt>
      <trkpt lat="46.84548" lon="8.44956">
        <ele>2044</ele>
        <time>2021-08-13T07:41:02.161Z</time>
      </trkpt>
      <trkpt lat="46.84548" lon="8.44955">
        <ele>2044</ele>
        <time>2021-08-13T07:41:03.160Z</time>
      </trkpt>
      <trkpt lat="46.84548" lon="8.44954">
        <ele>2044</ele>
        <time>2021-08-13T07:41:04.161Z</time>
      </trkpt>
      <trkpt lat="46.84548" lon="8.44952">
        <ele>2043</ele>
        <time>2021-08-13T07:41:05.160Z</time>
      </trkpt>
      <trkpt lat="46.84549" lon="8.44951">
        <ele>2043</ele>
        <time>2021-08-13T07:41:06.161Z</time>
      </trkpt>
      <trkpt lat="46.84549" lon="8.44949">
        <ele>2044</ele>
        <time>2021-08-13T07:41:07.161Z</time>
      </trkpt>
      <trkpt lat="46.84549" lon="8.44948">
        <ele>2044</ele>
        <time>2021-08-13T07:41:08.161Z</time>
      </trkpt>
      <trkpt lat="46.84549" lon="8.44946">
        <ele>2044</ele>
        <time>2021-08-13T07:41:09.161Z</time>
      </trkpt>
      <trkpt lat="46.84549" lon="8.44945">
        <ele>2044</ele>
        <time>2021-08-13T07:41:10.160Z</time>
      </trkpt>
      <trkpt lat="46.84549" lon="8.44944">
        <ele>2045</ele>
        <time>2021-08-13T07:41:11.160Z</time>
      </trkpt>
      <trkpt lat="46.84549" lon="8.44943">
        <ele>2045</ele>
        <time>2021-08-13T07:41:12.160Z</time>
      </trkpt>
      <trkpt lat="46.84549" lon="8.44941">
        <ele>2046</ele>
        <time>2021-08-13T07:41:13.160Z</time>
      </trkpt>
      <trkpt lat="46.8455" lon="8.4494">
        <ele>2046</ele>
        <time>2021-08-13T07:41:14.160Z</time>
      </trkpt>
      <trkpt lat="46.8455" lon="8.44939">
        <ele>2046</ele>
        <time>2021-08-13T07:41:15.161Z</time>
      </trkpt>
      <trkpt lat="46.84551" lon="8.44938">
        <ele>2046</ele>
        <time>2021-08-13T07:41:16.160Z</time>
      </trkpt>
      <trkpt lat="46.84551" lon="8.44936">
        <ele>2046</ele>
        <time>2021-08-13T07:41:17.161Z</time>
      </trkpt>
      <trkpt lat="46.84551" lon="8.44935">
        <ele>2046</ele>
        <time>2021-08-13T07:41:18.160Z</time>
      </trkpt>
      <trkpt lat="46.84552" lon="8.44933">
        <ele>2045</ele>
        <time>2021-08-13T07:41:19.161Z</time>
      </trkpt>
      <trkpt lat="46.84552" lon="8.44932">
        <ele>2045</ele>
        <time>2021-08-13T07:41:20.160Z</time>
      </trkpt>
      <trkpt lat="46.84552" lon="8.44931">
        <ele>2045</ele>
        <time>2021-08-13T07:41:21.160Z</time>
      </trkpt>
      <trkpt lat="46.84552" lon="8.4493">
        <ele>2044</ele>
        <time>2021-08-13T07:41:22.160Z</time>
      </trkpt>
      <trkpt lat="46.84552" lon="8.44928">
        <ele>2044</ele>
        <time>2021-08-13T07:41:23.160Z</time>
      </trkpt>
      <trkpt lat="46.84552" lon="8.44927">
        <ele>2043</ele>
        <time>2021-08-13T07:41:24.160Z</time>
      </trkpt>
      <trkpt lat="46.84552" lon="8.44926">
        <ele>2043</ele>
        <time>2021-08-13T07:41:25.161Z</time>
      </trkpt>
      <trkpt lat="46.84552" lon="8.44926">
        <ele>2042</ele>
        <time>2021-08-13T07:41:26.160Z</time>
      </trkpt>
      <trkpt lat="46.84553" lon="8.44925">
        <ele>2042</ele>
        <time>2021-08-13T07:41:27.160Z</time>
      </trkpt>
      <trkpt lat="46.84553" lon="8.44924">
        <ele>2041</ele>
        <time>2021-08-13T07:41:28.160Z</time>
      </trkpt>
      <trkpt lat="46.84553" lon="8.44922">
        <ele>2041</ele>
        <time>2021-08-13T07:41:29.160Z</time>
      </trkpt>
      <trkpt lat="46.84553" lon="8.44921">
        <ele>2041</ele>
        <time>2021-08-13T07:41:30.160Z</time>
      </trkpt>
      <trkpt lat="46.84554" lon="8.4492">
        <ele>2040</ele>
        <time>2021-08-13T07:41:31.161Z</time>
      </trkpt>
      <trkpt lat="46.84555" lon="8.44919">
        <ele>2040</ele>
        <time>2021-08-13T07:41:32.161Z</time>
      </trkpt>
      <trkpt lat="46.84555" lon="8.44918">
        <ele>2039</ele>
        <time>2021-08-13T07:41:33.161Z</time>
      </trkpt>
      <trkpt lat="46.84555" lon="8.44917">
        <ele>2038</ele>
        <time>2021-08-13T07:41:34.160Z</time>
      </trkpt>
      <trkpt lat="46.84556" lon="8.44916">
        <ele>2037</ele>
        <time>2021-08-13T07:41:35.161Z</time>
      </trkpt>
      <trkpt lat="46.84556" lon="8.44915">
        <ele>2037</ele>
        <time>2021-08-13T07:41:36.160Z</time>
      </trkpt>
      <trkpt lat="46.84556" lon="8.44913">
        <ele>2036</ele>
        <time>2021-08-13T07:41:37.161Z</time>
      </trkpt>
      <trkpt lat="46.84557" lon="8.44912">
        <ele>2035</ele>
        <time>2021-08-13T07:41:38.161Z</time>
      </trkpt>
      <trkpt lat="46.84557" lon="8.44911">
        <ele>2035</ele>
        <time>2021-08-13T07:41:39.161Z</time>
      </trkpt>
      <trkpt lat="46.84557" lon="8.4491">
        <ele>2034</ele>
        <time>2021-08-13T07:41:40.161Z</time>
      </trkpt>
      <trkpt lat="46.84557" lon="8.44908">
        <ele>2034</ele>
        <time>2021-08-13T07:41:41.161Z</time>
      </trkpt>
      <trkpt lat="46.84557" lon="8.44907">
        <ele>2033</ele>
        <time>2021-08-13T07:41:42.161Z</time>
      </trkpt>
      <trkpt lat="46.84557" lon="8.44906">
        <ele>2033</ele>
        <time>2021-08-13T07:41:43.160Z</time>
      </trkpt>
      <trkpt lat="46.84558" lon="8.44904">
        <ele>2033</ele>
        <time>2021-08-13T07:41:44.160Z</time>
      </trkpt>
      <trkpt lat="46.84558" lon="8.44903">
        <ele>2033</ele>
        <time>2021-08-13T07:41:45.161Z</time>
      </trkpt>
      <trkpt lat="46.84558" lon="8.44902">
        <ele>2033</ele>
        <time>2021-08-13T07:41:46.161Z</time>
      </trkpt>
      <trkpt lat="46.84558" lon="8.449">
        <ele>2033</ele>
        <time>2021-08-13T07:41:47.161Z</time>
      </trkpt>
      <trkpt lat="46.84558" lon="8.44899">
        <ele>2033</ele>
        <time>2021-08-13T07:41:48.161Z</time>
      </trkpt>
      <trkpt lat="46.84558" lon="8.44897">
        <ele>2033</ele>
        <time>2021-08-13T07:41:49.161Z</time>
      </trkpt>
      <trkpt lat="46.84559" lon="8.44896">
        <ele>2033</ele>
        <time>2021-08-13T07:41:50.160Z</time>
      </trkpt>
      <trkpt lat="46.84559" lon="8.44895">
        <ele>2033</ele>
        <time>2021-08-13T07:41:51.161Z</time>
      </trkpt>
      <trkpt lat="46.8456" lon="8.44893">
        <ele>2033</ele>
        <time>2021-08-13T07:41:52.161Z</time>
      </trkpt>
      <trkpt lat="46.8456" lon="8.44891">
        <ele>2033</ele>
        <time>2021-08-13T07:41:53.161Z</time>
      </trkpt>
      <trkpt lat="46.8456" lon="8.4489">
        <ele>2033</ele>
        <time>2021-08-13T07:41:54.161Z</time>
      </trkpt>
      <trkpt lat="46.84561" lon="8.44889">
        <ele>2033</ele>
        <time>2021-08-13T07:41:55.161Z</time>
      </trkpt>
      <trkpt lat="46.84561" lon="8.44888">
        <ele>2033</ele>
        <time>2021-08-13T07:41:56.161Z</time>
      </trkpt>
      <trkpt lat="46.84561" lon="8.44888">
        <ele>2033</ele>
        <time>2021-08-13T07:41:57.160Z</time>
      </trkpt>
      <trkpt lat="46.84562" lon="8.44887">
        <ele>2033</ele>
        <time>2021-08-13T07:41:58.161Z</time>
      </trkpt>
      <trkpt lat="46.84562" lon="8.44886">
        <ele>2033</ele>
        <time>2021-08-13T07:41:59.160Z</time>
      </trkpt>
      <trkpt lat="46.84562" lon="8.44885">
        <ele>2033</ele>
        <time>2021-08-13T07:42:00.161Z</time>
      </trkpt>
      <trkpt lat="46.84562" lon="8.44884">
        <ele>2033</ele>
        <time>2021-08-13T07:42:01.160Z</time>
      </trkpt>
      <trkpt lat="46.84562" lon="8.44883">
        <ele>2032</ele>
        <time>2021-08-13T07:42:02.161Z</time>
      </trkpt>
      <trkpt lat="46.84562" lon="8.44882">
        <ele>2032</ele>
        <time>2021-08-13T07:42:03.160Z</time>
      </trkpt>
      <trkpt lat="46.84562" lon="8.44881">
        <ele>2032</ele>
        <time>2021-08-13T07:42:04.160Z</time>
      </trkpt>
      <trkpt lat="46.84562" lon="8.4488">
        <ele>2032</ele>
        <time>2021-08-13T07:42:05.161Z</time>
      </trkpt>
      <trkpt lat="46.84562" lon="8.44879">
        <ele>2031</ele>
        <time>2021-08-13T07:42:06.161Z</time>
      </trkpt>
      <trkpt lat="46.84562" lon="8.44878">
        <ele>2031</ele>
        <time>2021-08-13T07:42:07.161Z</time>
      </trkpt>
      <trkpt lat="46.84562" lon="8.44877">
        <ele>2031</ele>
        <time>2021-08-13T07:42:08.161Z</time>
      </trkpt>
      <trkpt lat="46.84562" lon="8.44875">
        <ele>2030</ele>
        <time>2021-08-13T07:42:09.161Z</time>
      </trkpt>
      <trkpt lat="46.84562" lon="8.44875">
        <ele>2030</ele>
        <time>2021-08-13T07:42:10.161Z</time>
      </trkpt>
      <trkpt lat="46.84562" lon="8.44874">
        <ele>2030</ele>
        <time>2021-08-13T07:42:11.160Z</time>
      </trkpt>
      <trkpt lat="46.84563" lon="8.44873">
        <ele>2030</ele>
        <time>2021-08-13T07:42:12.160Z</time>
      </trkpt>
      <trkpt lat="46.84563" lon="8.44872">
        <ele>2030</ele>
        <time>2021-08-13T07:42:13.160Z</time>
      </trkpt>
      <trkpt lat="46.84564" lon="8.4487">
        <ele>2030</ele>
        <time>2021-08-13T07:42:14.161Z</time>
      </trkpt>
      <trkpt lat="46.84564" lon="8.4487">
        <ele>2030</ele>
        <time>2021-08-13T07:42:15.161Z</time>
      </trkpt>
      <trkpt lat="46.84564" lon="8.44869">
        <ele>2030</ele>
        <time>2021-08-13T07:42:16.160Z</time>
      </trkpt>
      <trkpt lat="46.84565" lon="8.44868">
        <ele>2029</ele>
        <time>2021-08-13T07:42:17.160Z</time>
      </trkpt>
      <trkpt lat="46.84566" lon="8.44867">
        <ele>2029</ele>
        <time>2021-08-13T07:42:18.161Z</time>
      </trkpt>
      <trkpt lat="46.84567" lon="8.44866">
        <ele>2029</ele>
        <time>2021-08-13T07:42:19.161Z</time>
      </trkpt>
      <trkpt lat="46.84567" lon="8.44865">
        <ele>2030</ele>
        <time>2021-08-13T07:42:20.160Z</time>
      </trkpt>
      <trkpt lat="46.84568" lon="8.44864">
        <ele>2030</ele>
        <time>2021-08-13T07:42:21.161Z</time>
      </trkpt>
      <trkpt lat="46.84568" lon="8.44863">
        <ele>2030</ele>
        <time>2021-08-13T07:42:22.161Z</time>
      </trkpt>
      <trkpt lat="46.84568" lon="8.44861">
        <ele>2030</ele>
        <time>2021-08-13T07:42:23.161Z</time>
      </trkpt>
      <trkpt lat="46.84568" lon="8.4486">
        <ele>2030</ele>
        <time>2021-08-13T07:42:24.161Z</time>
      </trkpt>
      <trkpt lat="46.84567" lon="8.44859">
        <ele>2030</ele>
        <time>2021-08-13T07:42:25.161Z</time>
      </trkpt>
      <trkpt lat="46.84567" lon="8.44857">
        <ele>2030</ele>
        <time>2021-08-13T07:42:26.161Z</time>
      </trkpt>
      <trkpt lat="46.84566" lon="8.44856">
        <ele>2030</ele>
        <time>2021-08-13T07:42:27.160Z</time>
      </trkpt>
      <trkpt lat="46.84566" lon="8.44855">
        <ele>2030</ele>
        <time>2021-08-13T07:42:28.160Z</time>
      </trkpt>
      <trkpt lat="46.84566" lon="8.44853">
        <ele>2029</ele>
        <time>2021-08-13T07:42:29.161Z</time>
      </trkpt>
      <trkpt lat="46.84565" lon="8.44851">
        <ele>2029</ele>
        <time>2021-08-13T07:42:30.160Z</time>
      </trkpt>
      <trkpt lat="46.84565" lon="8.4485">
        <ele>2028</ele>
        <time>2021-08-13T07:42:31.160Z</time>
      </trkpt>
      <trkpt lat="46.84565" lon="8.44848">
        <ele>2028</ele>
        <time>2021-08-13T07:42:32.161Z</time>
      </trkpt>
      <trkpt lat="46.84565" lon="8.44847">
        <ele>2028</ele>
        <time>2021-08-13T07:42:33.161Z</time>
      </trkpt>
      <trkpt lat="46.84566" lon="8.44846">
        <ele>2028</ele>
        <time>2021-08-13T07:42:34.161Z</time>
      </trkpt>
      <trkpt lat="46.84566" lon="8.44845">
        <ele>2028</ele>
        <time>2021-08-13T07:42:35.161Z</time>
      </trkpt>
      <trkpt lat="46.84566" lon="8.44844">
        <ele>2028</ele>
        <time>2021-08-13T07:42:36.161Z</time>
      </trkpt>
      <trkpt lat="46.84566" lon="8.44843">
        <ele>2028</ele>
        <time>2021-08-13T07:42:37.161Z</time>
      </trkpt>
      <trkpt lat="46.84566" lon="8.44842">
        <ele>2028</ele>
        <time>2021-08-13T07:42:38.160Z</time>
      </trkpt>
      <trkpt lat="46.84566" lon="8.44841">
        <ele>2029</ele>
        <time>2021-08-13T07:42:39.160Z</time>
      </trkpt>
      <trkpt lat="46.84566" lon="8.4484">
        <ele>2029</ele>
        <time>2021-08-13T07:42:40.160Z</time>
      </trkpt>
      <trkpt lat="46.84566" lon="8.44839">
        <ele>2029</ele>
        <time>2021-08-13T07:42:41.161Z</time>
      </trkpt>
      <trkpt lat="46.84566" lon="8.44838">
        <ele>2029</ele>
        <time>2021-08-13T07:42:42.161Z</time>
      </trkpt>
      <trkpt lat="46.84566" lon="8.44837">
        <ele>2029</ele>
        <time>2021-08-13T07:42:43.161Z</time>
      </trkpt>
      <trkpt lat="46.84567" lon="8.44835">
        <ele>2028</ele>
        <time>2021-08-13T07:42:44.161Z</time>
      </trkpt>
      <trkpt lat="46.84568" lon="8.44835">
        <ele>2028</ele>
        <time>2021-08-13T07:42:45.161Z</time>
      </trkpt>
      <trkpt lat="46.84568" lon="8.44834">
        <ele>2028</ele>
        <time>2021-08-13T07:42:46.160Z</time>
      </trkpt>
      <trkpt lat="46.84569" lon="8.44832">
        <ele>2027</ele>
        <time>2021-08-13T07:42:47.161Z</time>
      </trkpt>
      <trkpt lat="46.84569" lon="8.44831">
        <ele>2026</ele>
        <time>2021-08-13T07:42:48.160Z</time>
      </trkpt>
      <trkpt lat="46.8457" lon="8.4483">
        <ele>2026</ele>
        <time>2021-08-13T07:42:49.161Z</time>
      </trkpt>
      <trkpt lat="46.8457" lon="8.44828">
        <ele>2025</ele>
        <time>2021-08-13T07:42:50.161Z</time>
      </trkpt>
      <trkpt lat="46.8457" lon="8.44827">
        <ele>2025</ele>
        <time>2021-08-13T07:42:51.161Z</time>
      </trkpt>
      <trkpt lat="46.8457" lon="8.44825">
        <ele>2024</ele>
        <time>2021-08-13T07:42:52.160Z</time>
      </trkpt>
      <trkpt lat="46.8457" lon="8.44824">
        <ele>2024</ele>
        <time>2021-08-13T07:42:53.161Z</time>
      </trkpt>
      <trkpt lat="46.84571" lon="8.44823">
        <ele>2024</ele>
        <time>2021-08-13T07:42:54.160Z</time>
      </trkpt>
      <trkpt lat="46.84572" lon="8.44822">
        <ele>2024</ele>
        <time>2021-08-13T07:42:55.161Z</time>
      </trkpt>
      <trkpt lat="46.84573" lon="8.44821">
        <ele>2023</ele>
        <time>2021-08-13T07:42:56.161Z</time>
      </trkpt>
      <trkpt lat="46.84574" lon="8.4482">
        <ele>2023</ele>
        <time>2021-08-13T07:42:57.161Z</time>
      </trkpt>
      <trkpt lat="46.84574" lon="8.4482">
        <ele>2022</ele>
        <time>2021-08-13T07:42:58.160Z</time>
      </trkpt>
      <trkpt lat="46.84575" lon="8.4482">
        <ele>2022</ele>
        <time>2021-08-13T07:42:59.161Z</time>
      </trkpt>
      <trkpt lat="46.84576" lon="8.44819">
        <ele>2021</ele>
        <time>2021-08-13T07:43:00.160Z</time>
      </trkpt>
      <trkpt lat="46.84576" lon="8.44819">
        <ele>2021</ele>
        <time>2021-08-13T07:43:01.160Z</time>
      </trkpt>
      <trkpt lat="46.84577" lon="8.44818">
        <ele>2021</ele>
        <time>2021-08-13T07:43:02.161Z</time>
      </trkpt>
      <trkpt lat="46.84578" lon="8.44818">
        <ele>2020</ele>
        <time>2021-08-13T07:43:03.161Z</time>
      </trkpt>
      <trkpt lat="46.84579" lon="8.44817">
        <ele>2019</ele>
        <time>2021-08-13T07:43:04.161Z</time>
      </trkpt>
      <trkpt lat="46.8458" lon="8.44817">
        <ele>2018</ele>
        <time>2021-08-13T07:43:05.160Z</time>
      </trkpt>
      <trkpt lat="46.84581" lon="8.44816">
        <ele>2018</ele>
        <time>2021-08-13T07:43:06.161Z</time>
      </trkpt>
      <trkpt lat="46.84582" lon="8.44816">
        <ele>2017</ele>
        <time>2021-08-13T07:43:07.161Z</time>
      </trkpt>
      <trkpt lat="46.84583" lon="8.44816">
        <ele>2016</ele>
        <time>2021-08-13T07:43:08.161Z</time>
      </trkpt>
      <trkpt lat="46.84584" lon="8.44816">
        <ele>2015</ele>
        <time>2021-08-13T07:43:09.161Z</time>
      </trkpt>
      <trkpt lat="46.84585" lon="8.44815">
        <ele>2014</ele>
        <time>2021-08-13T07:43:10.161Z</time>
      </trkpt>
      <trkpt lat="46.84587" lon="8.44815">
        <ele>2014</ele>
        <time>2021-08-13T07:43:11.161Z</time>
      </trkpt>
      <trkpt lat="46.84588" lon="8.44815">
        <ele>2014</ele>
        <time>2021-08-13T07:43:12.161Z</time>
      </trkpt>
      <trkpt lat="46.84589" lon="8.44815">
        <ele>2013</ele>
        <time>2021-08-13T07:43:13.161Z</time>
      </trkpt>
      <trkpt lat="46.84589" lon="8.44814">
        <ele>2013</ele>
        <time>2021-08-13T07:43:14.160Z</time>
      </trkpt>
      <trkpt lat="46.8459" lon="8.44814">
        <ele>2012</ele>
        <time>2021-08-13T07:43:15.161Z</time>
      </trkpt>
      <trkpt lat="46.84591" lon="8.44814">
        <ele>2012</ele>
        <time>2021-08-13T07:43:16.161Z</time>
      </trkpt>
      <trkpt lat="46.84592" lon="8.44814">
        <ele>2013</ele>
        <time>2021-08-13T07:43:17.160Z</time>
      </trkpt>
      <trkpt lat="46.84593" lon="8.44814">
        <ele>2013</ele>
        <time>2021-08-13T07:43:18.161Z</time>
      </trkpt>
      <trkpt lat="46.84594" lon="8.44815">
        <ele>2013</ele>
        <time>2021-08-13T07:43:19.160Z</time>
      </trkpt>
      <trkpt lat="46.84595" lon="8.44815">
        <ele>2013</ele>
        <time>2021-08-13T07:43:20.161Z</time>
      </trkpt>
      <trkpt lat="46.84596" lon="8.44816">
        <ele>2013</ele>
        <time>2021-08-13T07:43:21.161Z</time>
      </trkpt>
      <trkpt lat="46.84596" lon="8.44816">
        <ele>2013</ele>
        <time>2021-08-13T07:43:22.161Z</time>
      </trkpt>
      <trkpt lat="46.84597" lon="8.44817">
        <ele>2013</ele>
        <time>2021-08-13T07:43:23.160Z</time>
      </trkpt>
      <trkpt lat="46.84598" lon="8.44818">
        <ele>2014</ele>
        <time>2021-08-13T07:43:24.161Z</time>
      </trkpt>
      <trkpt lat="46.84599" lon="8.44818">
        <ele>2014</ele>
        <time>2021-08-13T07:43:25.161Z</time>
      </trkpt>
      <trkpt lat="46.846" lon="8.44818">
        <ele>2014</ele>
        <time>2021-08-13T07:43:26.160Z</time>
      </trkpt>
      <trkpt lat="46.84601" lon="8.44818">
        <ele>2015</ele>
        <time>2021-08-13T07:43:27.161Z</time>
      </trkpt>
      <trkpt lat="46.84601" lon="8.44819">
        <ele>2015</ele>
        <time>2021-08-13T07:43:28.161Z</time>
      </trkpt>
      <trkpt lat="46.84603" lon="8.44819">
        <ele>2015</ele>
        <time>2021-08-13T07:43:29.161Z</time>
      </trkpt>
      <trkpt lat="46.84604" lon="8.44819">
        <ele>2015</ele>
        <time>2021-08-13T07:43:30.161Z</time>
      </trkpt>
      <trkpt lat="46.84605" lon="8.4482">
        <ele>2015</ele>
        <time>2021-08-13T07:43:31.161Z</time>
      </trkpt>
      <trkpt lat="46.84606" lon="8.4482">
        <ele>2014</ele>
        <time>2021-08-13T07:43:32.160Z</time>
      </trkpt>
      <trkpt lat="46.84606" lon="8.44821">
        <ele>2014</ele>
        <time>2021-08-13T07:43:33.161Z</time>
      </trkpt>
      <trkpt lat="46.84607" lon="8.44821">
        <ele>2014</ele>
        <time>2021-08-13T07:43:34.160Z</time>
      </trkpt>
      <trkpt lat="46.84608" lon="8.44821">
        <ele>2013</ele>
        <time>2021-08-13T07:43:35.161Z</time>
      </trkpt>
      <trkpt lat="46.84609" lon="8.44821">
        <ele>2013</ele>
        <time>2021-08-13T07:43:36.161Z</time>
      </trkpt>
      <trkpt lat="46.8461" lon="8.44822">
        <ele>2012</ele>
        <time>2021-08-13T07:43:37.161Z</time>
      </trkpt>
      <trkpt lat="46.84611" lon="8.44822">
        <ele>2012</ele>
        <time>2021-08-13T07:43:38.161Z</time>
      </trkpt>
      <trkpt lat="46.84612" lon="8.44822">
        <ele>2011</ele>
        <time>2021-08-13T07:43:39.161Z</time>
      </trkpt>
      <trkpt lat="46.84613" lon="8.44823">
        <ele>2011</ele>
        <time>2021-08-13T07:43:40.161Z</time>
      </trkpt>
      <trkpt lat="46.84614" lon="8.44823">
        <ele>2010</ele>
        <time>2021-08-13T07:43:41.161Z</time>
      </trkpt>
      <trkpt lat="46.84614" lon="8.44824">
        <ele>2010</ele>
        <time>2021-08-13T07:43:42.160Z</time>
      </trkpt>
      <trkpt lat="46.84615" lon="8.44824">
        <ele>2010</ele>
        <time>2021-08-13T07:43:43.161Z</time>
      </trkpt>
      <trkpt lat="46.84616" lon="8.44824">
        <ele>2010</ele>
        <time>2021-08-13T07:43:44.161Z</time>
      </trkpt>
      <trkpt lat="46.84617" lon="8.44824">
        <ele>2009</ele>
        <time>2021-08-13T07:43:45.161Z</time>
      </trkpt>
      <trkpt lat="46.84618" lon="8.44823">
        <ele>2009</ele>
        <time>2021-08-13T07:43:46.161Z</time>
      </trkpt>
      <trkpt lat="46.84619" lon="8.44822">
        <ele>2009</ele>
        <time>2021-08-13T07:43:47.161Z</time>
      </trkpt>
      <trkpt lat="46.8462" lon="8.44822">
        <ele>2009</ele>
        <time>2021-08-13T07:43:48.161Z</time>
      </trkpt>
      <trkpt lat="46.84622" lon="8.44822">
        <ele>2009</ele>
        <time>2021-08-13T07:43:49.160Z</time>
      </trkpt>
      <trkpt lat="46.84623" lon="8.44822">
        <ele>2008</ele>
        <time>2021-08-13T07:43:50.160Z</time>
      </trkpt>
      <trkpt lat="46.84624" lon="8.44822">
        <ele>2008</ele>
        <time>2021-08-13T07:43:51.161Z</time>
      </trkpt>
      <trkpt lat="46.84625" lon="8.44821">
        <ele>2008</ele>
        <time>2021-08-13T07:43:52.161Z</time>
      </trkpt>
      <trkpt lat="46.84626" lon="8.44821">
        <ele>2008</ele>
        <time>2021-08-13T07:43:53.161Z</time>
      </trkpt>
      <trkpt lat="46.84627" lon="8.44821">
        <ele>2008</ele>
        <time>2021-08-13T07:43:54.161Z</time>
      </trkpt>
      <trkpt lat="46.84628" lon="8.4482">
        <ele>2008</ele>
        <time>2021-08-13T07:43:55.161Z</time>
      </trkpt>
      <trkpt lat="46.84629" lon="8.4482">
        <ele>2008</ele>
        <time>2021-08-13T07:43:56.161Z</time>
      </trkpt>
      <trkpt lat="46.8463" lon="8.44819">
        <ele>2009</ele>
        <time>2021-08-13T07:43:57.161Z</time>
      </trkpt>
      <trkpt lat="46.8463" lon="8.44818">
        <ele>2009</ele>
        <time>2021-08-13T07:43:58.161Z</time>
      </trkpt>
      <trkpt lat="46.84632" lon="8.44816">
        <ele>2010</ele>
        <time>2021-08-13T07:43:59.160Z</time>
      </trkpt>
      <trkpt lat="46.84633" lon="8.44815">
        <ele>2010</ele>
        <time>2021-08-13T07:44:00.161Z</time>
      </trkpt>
      <trkpt lat="46.84634" lon="8.44814">
        <ele>2011</ele>
        <time>2021-08-13T07:44:01.161Z</time>
      </trkpt>
      <trkpt lat="46.84635" lon="8.44813">
        <ele>2011</ele>
        <time>2021-08-13T07:44:02.160Z</time>
      </trkpt>
      <trkpt lat="46.84636" lon="8.44812">
        <ele>2011</ele>
        <time>2021-08-13T07:44:03.160Z</time>
      </trkpt>
      <trkpt lat="46.84637" lon="8.44812">
        <ele>2011</ele>
        <time>2021-08-13T07:44:04.161Z</time>
      </trkpt>
      <trkpt lat="46.84638" lon="8.44811">
        <ele>2011</ele>
        <time>2021-08-13T07:44:05.161Z</time>
      </trkpt>
      <trkpt lat="46.84639" lon="8.4481">
        <ele>2011</ele>
        <time>2021-08-13T07:44:06.161Z</time>
      </trkpt>
      <trkpt lat="46.84639" lon="8.44809">
        <ele>2011</ele>
        <time>2021-08-13T07:44:07.160Z</time>
      </trkpt>
      <trkpt lat="46.8464" lon="8.44807">
        <ele>2011</ele>
        <time>2021-08-13T07:44:08.161Z</time>
      </trkpt>
      <trkpt lat="46.84641" lon="8.44806">
        <ele>2011</ele>
        <time>2021-08-13T07:44:09.161Z</time>
      </trkpt>
      <trkpt lat="46.84642" lon="8.44804">
        <ele>2010</ele>
        <time>2021-08-13T07:44:10.161Z</time>
      </trkpt>
      <trkpt lat="46.84643" lon="8.44802">
        <ele>2010</ele>
        <time>2021-08-13T07:44:11.161Z</time>
      </trkpt>
      <trkpt lat="46.84643" lon="8.44801">
        <ele>2010</ele>
        <time>2021-08-13T07:44:12.160Z</time>
      </trkpt>
      <trkpt lat="46.84643" lon="8.44799">
        <ele>2009</ele>
        <time>2021-08-13T07:44:13.161Z</time>
      </trkpt>
      <trkpt lat="46.84643" lon="8.44797">
        <ele>2009</ele>
        <time>2021-08-13T07:44:14.160Z</time>
      </trkpt>
      <trkpt lat="46.84643" lon="8.44795">
        <ele>2009</ele>
        <time>2021-08-13T07:44:15.161Z</time>
      </trkpt>
      <trkpt lat="46.84644" lon="8.44794">
        <ele>2009</ele>
        <time>2021-08-13T07:44:16.161Z</time>
      </trkpt>
      <trkpt lat="46.84644" lon="8.44792">
        <ele>2009</ele>
        <time>2021-08-13T07:44:17.161Z</time>
      </trkpt>
      <trkpt lat="46.84644" lon="8.4479">
        <ele>2009</ele>
        <time>2021-08-13T07:44:18.161Z</time>
      </trkpt>
      <trkpt lat="46.84644" lon="8.44788">
        <ele>2008</ele>
        <time>2021-08-13T07:44:19.161Z</time>
      </trkpt>
      <trkpt lat="46.84644" lon="8.44787">
        <ele>2008</ele>
        <time>2021-08-13T07:44:20.160Z</time>
      </trkpt>
      <trkpt lat="46.84644" lon="8.44785">
        <ele>2007</ele>
        <time>2021-08-13T07:44:21.161Z</time>
      </trkpt>
      <trkpt lat="46.84644" lon="8.44783">
        <ele>2007</ele>
        <time>2021-08-13T07:44:22.161Z</time>
      </trkpt>
      <trkpt lat="46.84643" lon="8.44781">
        <ele>2006</ele>
        <time>2021-08-13T07:44:23.161Z</time>
      </trkpt>
      <trkpt lat="46.84643" lon="8.44779">
        <ele>2006</ele>
        <time>2021-08-13T07:44:24.160Z</time>
      </trkpt>
      <trkpt lat="46.84643" lon="8.44778">
        <ele>2006</ele>
        <time>2021-08-13T07:44:25.161Z</time>
      </trkpt>
      <trkpt lat="46.84643" lon="8.44776">
        <ele>2005</ele>
        <time>2021-08-13T07:44:26.160Z</time>
      </trkpt>
      <trkpt lat="46.84642" lon="8.44775">
        <ele>2005</ele>
        <time>2021-08-13T07:44:27.161Z</time>
      </trkpt>
      <trkpt lat="46.84643" lon="8.44773">
        <ele>2005</ele>
        <time>2021-08-13T07:44:28.161Z</time>
      </trkpt>
      <trkpt lat="46.84642" lon="8.44772">
        <ele>2004</ele>
        <time>2021-08-13T07:44:29.161Z</time>
      </trkpt>
      <trkpt lat="46.84642" lon="8.4477">
        <ele>2004</ele>
        <time>2021-08-13T07:44:30.161Z</time>
      </trkpt>
      <trkpt lat="46.84642" lon="8.44768">
        <ele>2004</ele>
        <time>2021-08-13T07:44:31.161Z</time>
      </trkpt>
      <trkpt lat="46.84642" lon="8.44767">
        <ele>2003</ele>
        <time>2021-08-13T07:44:32.161Z</time>
      </trkpt>
      <trkpt lat="46.84642" lon="8.44765">
        <ele>2003</ele>
        <time>2021-08-13T07:44:33.160Z</time>
      </trkpt>
      <trkpt lat="46.84642" lon="8.44764">
        <ele>2003</ele>
        <time>2021-08-13T07:44:34.161Z</time>
      </trkpt>
      <trkpt lat="46.84642" lon="8.44762">
        <ele>2003</ele>
        <time>2021-08-13T07:44:35.160Z</time>
      </trkpt>
      <trkpt lat="46.84642" lon="8.4476">
        <ele>2003</ele>
        <time>2021-08-13T07:44:36.161Z</time>
      </trkpt>
      <trkpt lat="46.84643" lon="8.44759">
        <ele>2003</ele>
        <time>2021-08-13T07:44:37.161Z</time>
      </trkpt>
      <trkpt lat="46.84643" lon="8.44757">
        <ele>2003</ele>
        <time>2021-08-13T07:44:38.161Z</time>
      </trkpt>
      <trkpt lat="46.84644" lon="8.44756">
        <ele>2003</ele>
        <time>2021-08-13T07:44:39.161Z</time>
      </trkpt>
      <trkpt lat="46.84644" lon="8.44755">
        <ele>2003</ele>
        <time>2021-08-13T07:44:40.161Z</time>
      </trkpt>
      <trkpt lat="46.84645" lon="8.44754">
        <ele>2003</ele>
        <time>2021-08-13T07:44:41.161Z</time>
      </trkpt>
      <trkpt lat="46.84646" lon="8.44753">
        <ele>2004</ele>
        <time>2021-08-13T07:44:42.161Z</time>
      </trkpt>
      <trkpt lat="46.84647" lon="8.44751">
        <ele>2004</ele>
        <time>2021-08-13T07:44:43.160Z</time>
      </trkpt>
      <trkpt lat="46.84648" lon="8.4475">
        <ele>2004</ele>
        <time>2021-08-13T07:44:44.161Z</time>
      </trkpt>
      <trkpt lat="46.84648" lon="8.44748">
        <ele>2003</ele>
        <time>2021-08-13T07:44:45.161Z</time>
      </trkpt>
      <trkpt lat="46.84649" lon="8.44747">
        <ele>2003</ele>
        <time>2021-08-13T07:44:46.161Z</time>
      </trkpt>
      <trkpt lat="46.84649" lon="8.44745">
        <ele>2003</ele>
        <time>2021-08-13T07:44:47.160Z</time>
      </trkpt>
      <trkpt lat="46.84649" lon="8.44743">
        <ele>2003</ele>
        <time>2021-08-13T07:44:48.161Z</time>
      </trkpt>
      <trkpt lat="46.8465" lon="8.44741">
        <ele>2003</ele>
        <time>2021-08-13T07:44:49.161Z</time>
      </trkpt>
      <trkpt lat="46.8465" lon="8.4474">
        <ele>2002</ele>
        <time>2021-08-13T07:44:50.161Z</time>
      </trkpt>
      <trkpt lat="46.84651" lon="8.44738">
        <ele>2002</ele>
        <time>2021-08-13T07:44:51.161Z</time>
      </trkpt>
      <trkpt lat="46.84651" lon="8.44737">
        <ele>2002</ele>
        <time>2021-08-13T07:44:52.160Z</time>
      </trkpt>
      <trkpt lat="46.84651" lon="8.44735">
        <ele>2002</ele>
        <time>2021-08-13T07:44:53.161Z</time>
      </trkpt>
      <trkpt lat="46.84652" lon="8.44734">
        <ele>2003</ele>
        <time>2021-08-13T07:44:54.160Z</time>
      </trkpt>
      <trkpt lat="46.84652" lon="8.44732">
        <ele>2003</ele>
        <time>2021-08-13T07:44:55.161Z</time>
      </trkpt>
      <trkpt lat="46.84653" lon="8.44731">
        <ele>2004</ele>
        <time>2021-08-13T07:44:56.160Z</time>
      </trkpt>
      <trkpt lat="46.84653" lon="8.4473">
        <ele>2004</ele>
        <time>2021-08-13T07:44:57.160Z</time>
      </trkpt>
      <trkpt lat="46.84654" lon="8.44728">
        <ele>2004</ele>
        <time>2021-08-13T07:44:58.160Z</time>
      </trkpt>
      <trkpt lat="46.84655" lon="8.44727">
        <ele>2004</ele>
        <time>2021-08-13T07:44:59.161Z</time>
      </trkpt>
      <trkpt lat="46.84655" lon="8.44726">
        <ele>2005</ele>
        <time>2021-08-13T07:45:00.161Z</time>
      </trkpt>
      <trkpt lat="46.84656" lon="8.44724">
        <ele>2005</ele>
        <time>2021-08-13T07:45:01.160Z</time>
      </trkpt>
      <trkpt lat="46.84656" lon="8.44722">
        <ele>2005</ele>
        <time>2021-08-13T07:45:02.161Z</time>
      </trkpt>
      <trkpt lat="46.84656" lon="8.4472">
        <ele>2006</ele>
        <time>2021-08-13T07:45:03.160Z</time>
      </trkpt>
      <trkpt lat="46.84656" lon="8.44718">
        <ele>2007</ele>
        <time>2021-08-13T07:45:04.161Z</time>
      </trkpt>
      <trkpt lat="46.84656" lon="8.44716">
        <ele>2007</ele>
        <time>2021-08-13T07:45:05.160Z</time>
      </trkpt>
      <trkpt lat="46.84656" lon="8.44715">
        <ele>2008</ele>
        <time>2021-08-13T07:45:06.160Z</time>
      </trkpt>
      <trkpt lat="46.84656" lon="8.44713">
        <ele>2008</ele>
        <time>2021-08-13T07:45:07.161Z</time>
      </trkpt>
      <trkpt lat="46.84655" lon="8.44711">
        <ele>2009</ele>
        <time>2021-08-13T07:45:08.161Z</time>
      </trkpt>
      <trkpt lat="46.84655" lon="8.4471">
        <ele>2009</ele>
        <time>2021-08-13T07:45:09.160Z</time>
      </trkpt>
      <trkpt lat="46.84655" lon="8.44708">
        <ele>2010</ele>
        <time>2021-08-13T07:45:10.161Z</time>
      </trkpt>
      <trkpt lat="46.84655" lon="8.44707">
        <ele>2010</ele>
        <time>2021-08-13T07:45:11.161Z</time>
      </trkpt>
      <trkpt lat="46.84655" lon="8.44706">
        <ele>2010</ele>
        <time>2021-08-13T07:45:12.161Z</time>
      </trkpt>
      <trkpt lat="46.84655" lon="8.44704">
        <ele>2010</ele>
        <time>2021-08-13T07:45:13.160Z</time>
      </trkpt>
      <trkpt lat="46.84655" lon="8.44702">
        <ele>2010</ele>
        <time>2021-08-13T07:45:14.161Z</time>
      </trkpt>
      <trkpt lat="46.84655" lon="8.44701">
        <ele>2010</ele>
        <time>2021-08-13T07:45:15.161Z</time>
      </trkpt>
      <trkpt lat="46.84654" lon="8.447">
        <ele>2010</ele>
        <time>2021-08-13T07:45:16.161Z</time>
      </trkpt>
      <trkpt lat="46.84654" lon="8.44699">
        <ele>2010</ele>
        <time>2021-08-13T07:45:17.161Z</time>
      </trkpt>
      <trkpt lat="46.84653" lon="8.44698">
        <ele>2010</ele>
        <time>2021-08-13T07:45:18.161Z</time>
      </trkpt>
      <trkpt lat="46.84652" lon="8.44698">
        <ele>2010</ele>
        <time>2021-08-13T07:45:19.161Z</time>
      </trkpt>
      <trkpt lat="46.84652" lon="8.44698">
        <ele>2010</ele>
        <time>2021-08-13T07:45:20.161Z</time>
      </trkpt>
      <trkpt lat="46.8465" lon="8.44696">
        <ele>2010</ele>
        <time>2021-08-13T07:45:21.160Z</time>
      </trkpt>
      <trkpt lat="46.8465" lon="8.44695">
        <ele>2009</ele>
        <time>2021-08-13T07:45:22.161Z</time>
      </trkpt>
      <trkpt lat="46.84649" lon="8.44694">
        <ele>2009</ele>
        <time>2021-08-13T07:45:23.161Z</time>
      </trkpt>
      <trkpt lat="46.84649" lon="8.44693">
        <ele>2009</ele>
        <time>2021-08-13T07:45:24.160Z</time>
      </trkpt>
      <trkpt lat="46.84648" lon="8.44692">
        <ele>2009</ele>
        <time>2021-08-13T07:45:25.160Z</time>
      </trkpt>
      <trkpt lat="46.84648" lon="8.44691">
        <ele>2009</ele>
        <time>2021-08-13T07:45:26.160Z</time>
      </trkpt>
      <trkpt lat="46.84647" lon="8.44691">
        <ele>2008</ele>
        <time>2021-08-13T07:45:27.161Z</time>
      </trkpt>
      <trkpt lat="46.84647" lon="8.4469">
        <ele>2008</ele>
        <time>2021-08-13T07:45:28.161Z</time>
      </trkpt>
      <trkpt lat="46.84647" lon="8.4469">
        <ele>2007</ele>
        <time>2021-08-13T07:45:29.161Z</time>
      </trkpt>
      <trkpt lat="46.84647" lon="8.44689">
        <ele>2007</ele>
        <time>2021-08-13T07:45:30.160Z</time>
      </trkpt>
      <trkpt lat="46.84646" lon="8.44689">
        <ele>2006</ele>
        <time>2021-08-13T07:45:31.161Z</time>
      </trkpt>
      <trkpt lat="46.84646" lon="8.44689">
        <ele>2006</ele>
        <time>2021-08-13T07:45:32.160Z</time>
      </trkpt>
      <trkpt lat="46.84645" lon="8.44688">
        <ele>2006</ele>
        <time>2021-08-13T07:45:33.161Z</time>
      </trkpt>
      <trkpt lat="46.84644" lon="8.44688">
        <ele>2006</ele>
        <time>2021-08-13T07:45:34.160Z</time>
      </trkpt>
      <trkpt lat="46.84643" lon="8.44687">
        <ele>2006</ele>
        <time>2021-08-13T07:45:35.161Z</time>
      </trkpt>
      <trkpt lat="46.84642" lon="8.44685">
        <ele>2006</ele>
        <time>2021-08-13T07:45:36.160Z</time>
      </trkpt>
      <trkpt lat="46.84642" lon="8.44684">
        <ele>2006</ele>
        <time>2021-08-13T07:45:37.161Z</time>
      </trkpt>
      <trkpt lat="46.84641" lon="8.44682">
        <ele>2005</ele>
        <time>2021-08-13T07:45:38.161Z</time>
      </trkpt>
      <trkpt lat="46.8464" lon="8.44681">
        <ele>2005</ele>
        <time>2021-08-13T07:45:39.161Z</time>
      </trkpt>
      <trkpt lat="46.84639" lon="8.44679">
        <ele>2005</ele>
        <time>2021-08-13T07:45:40.161Z</time>
      </trkpt>
      <trkpt lat="46.84638" lon="8.44679">
        <ele>2004</ele>
        <time>2021-08-13T07:45:41.161Z</time>
      </trkpt>
      <trkpt lat="46.84637" lon="8.44678">
        <ele>2004</ele>
        <time>2021-08-13T07:45:42.161Z</time>
      </trkpt>
      <trkpt lat="46.84637" lon="8.44677">
        <ele>2003</ele>
        <time>2021-08-13T07:45:43.160Z</time>
      </trkpt>
      <trkpt lat="46.84636" lon="8.44675">
        <ele>2003</ele>
        <time>2021-08-13T07:45:44.161Z</time>
      </trkpt>
      <trkpt lat="46.84635" lon="8.44674">
        <ele>2003</ele>
        <time>2021-08-13T07:45:45.161Z</time>
      </trkpt>
      <trkpt lat="46.84635" lon="8.44673">
        <ele>2003</ele>
        <time>2021-08-13T07:45:46.160Z</time>
      </trkpt>
      <trkpt lat="46.84635" lon="8.44672">
        <ele>2003</ele>
        <time>2021-08-13T07:45:47.160Z</time>
      </trkpt>
      <trkpt lat="46.84634" lon="8.44671">
        <ele>2003</ele>
        <time>2021-08-13T07:45:48.161Z</time>
      </trkpt>
      <trkpt lat="46.84634" lon="8.44669">
        <ele>2003</ele>
        <time>2021-08-13T07:45:49.161Z</time>
      </trkpt>
      <trkpt lat="46.84633" lon="8.44668">
        <ele>2004</ele>
        <time>2021-08-13T07:45:50.161Z</time>
      </trkpt>
      <trkpt lat="46.84632" lon="8.44666">
        <ele>2004</ele>
        <time>2021-08-13T07:45:51.160Z</time>
      </trkpt>
      <trkpt lat="46.84632" lon="8.44664">
        <ele>2004</ele>
        <time>2021-08-13T07:45:52.161Z</time>
      </trkpt>
      <trkpt lat="46.84631" lon="8.44662">
        <ele>2004</ele>
        <time>2021-08-13T07:45:53.161Z</time>
      </trkpt>
      <trkpt lat="46.84631" lon="8.4466">
        <ele>2004</ele>
        <time>2021-08-13T07:45:54.160Z</time>
      </trkpt>
      <trkpt lat="46.8463" lon="8.44658">
        <ele>2004</ele>
        <time>2021-08-13T07:45:55.160Z</time>
      </trkpt>
      <trkpt lat="46.8463" lon="8.44656">
        <ele>2003</ele>
        <time>2021-08-13T07:45:56.160Z</time>
      </trkpt>
      <trkpt lat="46.84629" lon="8.44654">
        <ele>2003</ele>
        <time>2021-08-13T07:45:57.161Z</time>
      </trkpt>
      <trkpt lat="46.84629" lon="8.44653">
        <ele>2002</ele>
        <time>2021-08-13T07:45:58.160Z</time>
      </trkpt>
      <trkpt lat="46.84629" lon="8.44651">
        <ele>2002</ele>
        <time>2021-08-13T07:45:59.161Z</time>
      </trkpt>
      <trkpt lat="46.84629" lon="8.4465">
        <ele>2001</ele>
        <time>2021-08-13T07:46:00.161Z</time>
      </trkpt>
      <trkpt lat="46.84629" lon="8.44648">
        <ele>2001</ele>
        <time>2021-08-13T07:46:01.160Z</time>
      </trkpt>
      <trkpt lat="46.84629" lon="8.44646">
        <ele>2001</ele>
        <time>2021-08-13T07:46:02.161Z</time>
      </trkpt>
      <trkpt lat="46.84629" lon="8.44644">
        <ele>2001</ele>
        <time>2021-08-13T07:46:03.161Z</time>
      </trkpt>
      <trkpt lat="46.84629" lon="8.44643">
        <ele>2001</ele>
        <time>2021-08-13T07:46:04.161Z</time>
      </trkpt>
      <trkpt lat="46.84628" lon="8.44641">
        <ele>2001</ele>
        <time>2021-08-13T07:46:05.160Z</time>
      </trkpt>
      <trkpt lat="46.84628" lon="8.4464">
        <ele>2001</ele>
        <time>2021-08-13T07:46:06.160Z</time>
      </trkpt>
      <trkpt lat="46.84627" lon="8.44638">
        <ele>2001</ele>
        <time>2021-08-13T07:46:07.160Z</time>
      </trkpt>
      <trkpt lat="46.84626" lon="8.44637">
        <ele>2000</ele>
        <time>2021-08-13T07:46:08.160Z</time>
      </trkpt>
      <trkpt lat="46.84626" lon="8.44636">
        <ele>2000</ele>
        <time>2021-08-13T07:46:09.160Z</time>
      </trkpt>
      <trkpt lat="46.84625" lon="8.44634">
        <ele>2000</ele>
        <time>2021-08-13T07:46:10.160Z</time>
      </trkpt>
      <trkpt lat="46.84625" lon="8.44632">
        <ele>1999</ele>
        <time>2021-08-13T07:46:11.160Z</time>
      </trkpt>
      <trkpt lat="46.84624" lon="8.44631">
        <ele>1999</ele>
        <time>2021-08-13T07:46:12.160Z</time>
      </trkpt>
      <trkpt lat="46.84623" lon="8.4463">
        <ele>1999</ele>
        <time>2021-08-13T07:46:13.160Z</time>
      </trkpt>
      <trkpt lat="46.84623" lon="8.44628">
        <ele>1999</ele>
        <time>2021-08-13T07:46:14.160Z</time>
      </trkpt>
      <trkpt lat="46.84622" lon="8.44627">
        <ele>1998</ele>
        <time>2021-08-13T07:46:15.160Z</time>
      </trkpt>
      <trkpt lat="46.84622" lon="8.44625">
        <ele>1998</ele>
        <time>2021-08-13T07:46:16.160Z</time>
      </trkpt>
      <trkpt lat="46.84621" lon="8.44624">
        <ele>1997</ele>
        <time>2021-08-13T07:46:17.160Z</time>
      </trkpt>
      <trkpt lat="46.84621" lon="8.44623">
        <ele>1997</ele>
        <time>2021-08-13T07:46:18.160Z</time>
      </trkpt>
      <trkpt lat="46.84621" lon="8.44622">
        <ele>1997</ele>
        <time>2021-08-13T07:46:19.161Z</time>
      </trkpt>
      <trkpt lat="46.8462" lon="8.4462">
        <ele>1997</ele>
        <time>2021-08-13T07:46:20.160Z</time>
      </trkpt>
      <trkpt lat="46.84621" lon="8.44619">
        <ele>1997</ele>
        <time>2021-08-13T07:46:21.161Z</time>
      </trkpt>
      <trkpt lat="46.8462" lon="8.44617">
        <ele>1998</ele>
        <time>2021-08-13T07:46:22.161Z</time>
      </trkpt>
      <trkpt lat="46.8462" lon="8.44615">
        <ele>1997</ele>
        <time>2021-08-13T07:46:23.161Z</time>
      </trkpt>
      <trkpt lat="46.8462" lon="8.44614">
        <ele>1997</ele>
        <time>2021-08-13T07:46:24.160Z</time>
      </trkpt>
      <trkpt lat="46.8462" lon="8.44612">
        <ele>1997</ele>
        <time>2021-08-13T07:46:25.161Z</time>
      </trkpt>
      <trkpt lat="46.8462" lon="8.4461">
        <ele>1997</ele>
        <time>2021-08-13T07:46:26.161Z</time>
      </trkpt>
      <trkpt lat="46.84619" lon="8.44609">
        <ele>1997</ele>
        <time>2021-08-13T07:46:27.161Z</time>
      </trkpt>
      <trkpt lat="46.84618" lon="8.44607">
        <ele>1997</ele>
        <time>2021-08-13T07:46:28.161Z</time>
      </trkpt>
      <trkpt lat="46.84618" lon="8.44605">
        <ele>1997</ele>
        <time>2021-08-13T07:46:29.161Z</time>
      </trkpt>
      <trkpt lat="46.84618" lon="8.44603">
        <ele>1997</ele>
        <time>2021-08-13T07:46:30.161Z</time>
      </trkpt>
      <trkpt lat="46.84618" lon="8.44601">
        <ele>1998</ele>
        <time>2021-08-13T07:46:31.161Z</time>
      </trkpt>
      <trkpt lat="46.84618" lon="8.446">
        <ele>1998</ele>
        <time>2021-08-13T07:46:32.161Z</time>
      </trkpt>
      <trkpt lat="46.84618" lon="8.44599">
        <ele>1998</ele>
        <time>2021-08-13T07:46:33.161Z</time>
      </trkpt>
      <trkpt lat="46.84618" lon="8.44597">
        <ele>1998</ele>
        <time>2021-08-13T07:46:34.160Z</time>
      </trkpt>
      <trkpt lat="46.84618" lon="8.44595">
        <ele>1998</ele>
        <time>2021-08-13T07:46:35.161Z</time>
      </trkpt>
      <trkpt lat="46.84618" lon="8.44593">
        <ele>1997</ele>
        <time>2021-08-13T07:46:36.161Z</time>
      </trkpt>
      <trkpt lat="46.84617" lon="8.44591">
        <ele>1997</ele>
        <time>2021-08-13T07:46:37.161Z</time>
      </trkpt>
      <trkpt lat="46.84617" lon="8.4459">
        <ele>1997</ele>
        <time>2021-08-13T07:46:38.161Z</time>
      </trkpt>
      <trkpt lat="46.84617" lon="8.44587">
        <ele>1997</ele>
        <time>2021-08-13T07:46:39.161Z</time>
      </trkpt>
      <trkpt lat="46.84617" lon="8.44585">
        <ele>1997</ele>
        <time>2021-08-13T07:46:40.161Z</time>
      </trkpt>
      <trkpt lat="46.84616" lon="8.44583">
        <ele>1997</ele>
        <time>2021-08-13T07:46:41.160Z</time>
      </trkpt>
      <trkpt lat="46.84616" lon="8.44582">
        <ele>1997</ele>
        <time>2021-08-13T07:46:42.161Z</time>
      </trkpt>
      <trkpt lat="46.84616" lon="8.4458">
        <ele>1997</ele>
        <time>2021-08-13T07:46:43.160Z</time>
      </trkpt>
      <trkpt lat="46.84616" lon="8.44578">
        <ele>1997</ele>
        <time>2021-08-13T07:46:44.161Z</time>
      </trkpt>
      <trkpt lat="46.84616" lon="8.44576">
        <ele>1997</ele>
        <time>2021-08-13T07:46:45.160Z</time>
      </trkpt>
      <trkpt lat="46.84616" lon="8.44575">
        <ele>1998</ele>
        <time>2021-08-13T07:46:46.160Z</time>
      </trkpt>
      <trkpt lat="46.84615" lon="8.44573">
        <ele>1998</ele>
        <time>2021-08-13T07:46:47.160Z</time>
      </trkpt>
      <trkpt lat="46.84615" lon="8.44572">
        <ele>1998</ele>
        <time>2021-08-13T07:46:48.160Z</time>
      </trkpt>
      <trkpt lat="46.84614" lon="8.4457">
        <ele>1998</ele>
        <time>2021-08-13T07:46:49.161Z</time>
      </trkpt>
      <trkpt lat="46.84614" lon="8.44568">
        <ele>1998</ele>
        <time>2021-08-13T07:46:50.161Z</time>
      </trkpt>
      <trkpt lat="46.84613" lon="8.44567">
        <ele>1998</ele>
        <time>2021-08-13T07:46:51.160Z</time>
      </trkpt>
      <trkpt lat="46.84613" lon="8.44565">
        <ele>1998</ele>
        <time>2021-08-13T07:46:52.161Z</time>
      </trkpt>
      <trkpt lat="46.84613" lon="8.44563">
        <ele>1998</ele>
        <time>2021-08-13T07:46:53.161Z</time>
      </trkpt>
      <trkpt lat="46.84613" lon="8.44562">
        <ele>1997</ele>
        <time>2021-08-13T07:46:54.161Z</time>
      </trkpt>
      <trkpt lat="46.84612" lon="8.4456">
        <ele>1997</ele>
        <time>2021-08-13T07:46:55.161Z</time>
      </trkpt>
      <trkpt lat="46.84612" lon="8.44559">
        <ele>1997</ele>
        <time>2021-08-13T07:46:56.161Z</time>
      </trkpt>
      <trkpt lat="46.84612" lon="8.44557">
        <ele>1997</ele>
        <time>2021-08-13T07:46:57.160Z</time>
      </trkpt>
      <trkpt lat="46.84612" lon="8.44555">
        <ele>1997</ele>
        <time>2021-08-13T07:46:58.161Z</time>
      </trkpt>
      <trkpt lat="46.84612" lon="8.44553">
        <ele>1997</ele>
        <time>2021-08-13T07:46:59.161Z</time>
      </trkpt>
      <trkpt lat="46.84612" lon="8.44552">
        <ele>1997</ele>
        <time>2021-08-13T07:47:00.161Z</time>
      </trkpt>
      <trkpt lat="46.84613" lon="8.4455">
        <ele>1997</ele>
        <time>2021-08-13T07:47:01.161Z</time>
      </trkpt>
      <trkpt lat="46.84613" lon="8.44548">
        <ele>1997</ele>
        <time>2021-08-13T07:47:02.161Z</time>
      </trkpt>
      <trkpt lat="46.84613" lon="8.44547">
        <ele>1997</ele>
        <time>2021-08-13T07:47:03.160Z</time>
      </trkpt>
      <trkpt lat="46.84612" lon="8.44545">
        <ele>1997</ele>
        <time>2021-08-13T07:47:04.161Z</time>
      </trkpt>
      <trkpt lat="46.84611" lon="8.44544">
        <ele>1997</ele>
        <time>2021-08-13T07:47:05.160Z</time>
      </trkpt>
      <trkpt lat="46.84611" lon="8.44543">
        <ele>1997</ele>
        <time>2021-08-13T07:47:06.161Z</time>
      </trkpt>
      <trkpt lat="46.8461" lon="8.44542">
        <ele>1997</ele>
        <time>2021-08-13T07:47:07.161Z</time>
      </trkpt>
      <trkpt lat="46.8461" lon="8.4454">
        <ele>1997</ele>
        <time>2021-08-13T07:47:08.160Z</time>
      </trkpt>
      <trkpt lat="46.84609" lon="8.44538">
        <ele>1997</ele>
        <time>2021-08-13T07:47:09.160Z</time>
      </trkpt>
      <trkpt lat="46.84609" lon="8.44537">
        <ele>1997</ele>
        <time>2021-08-13T07:47:10.161Z</time>
      </trkpt>
      <trkpt lat="46.84609" lon="8.44535">
        <ele>1997</ele>
        <time>2021-08-13T07:47:11.160Z</time>
      </trkpt>
      <trkpt lat="46.84609" lon="8.44533">
        <ele>1997</ele>
        <time>2021-08-13T07:47:12.161Z</time>
      </trkpt>
      <trkpt lat="46.84608" lon="8.44532">
        <ele>1997</ele>
        <time>2021-08-13T07:47:13.161Z</time>
      </trkpt>
      <trkpt lat="46.84609" lon="8.4453">
        <ele>1997</ele>
        <time>2021-08-13T07:47:14.160Z</time>
      </trkpt>
      <trkpt lat="46.84609" lon="8.44528">
        <ele>1997</ele>
        <time>2021-08-13T07:47:15.161Z</time>
      </trkpt>
      <trkpt lat="46.84609" lon="8.44526">
        <ele>1997</ele>
        <time>2021-08-13T07:47:16.161Z</time>
      </trkpt>
      <trkpt lat="46.84609" lon="8.44524">
        <ele>1997</ele>
        <time>2021-08-13T07:47:17.161Z</time>
      </trkpt>
      <trkpt lat="46.84609" lon="8.44522">
        <ele>1997</ele>
        <time>2021-08-13T07:47:18.160Z</time>
      </trkpt>
      <trkpt lat="46.8461" lon="8.4452">
        <ele>1997</ele>
        <time>2021-08-13T07:47:19.160Z</time>
      </trkpt>
      <trkpt lat="46.8461" lon="8.44518">
        <ele>1997</ele>
        <time>2021-08-13T07:47:20.161Z</time>
      </trkpt>
      <trkpt lat="46.8461" lon="8.44516">
        <ele>1996</ele>
        <time>2021-08-13T07:47:21.161Z</time>
      </trkpt>
      <trkpt lat="46.8461" lon="8.44514">
        <ele>1996</ele>
        <time>2021-08-13T07:47:22.161Z</time>
      </trkpt>
      <trkpt lat="46.8461" lon="8.44513">
        <ele>1995</ele>
        <time>2021-08-13T07:47:23.161Z</time>
      </trkpt>
      <trkpt lat="46.84611" lon="8.44511">
        <ele>1995</ele>
        <time>2021-08-13T07:47:24.161Z</time>
      </trkpt>
      <trkpt lat="46.84611" lon="8.44509">
        <ele>1994</ele>
        <time>2021-08-13T07:47:25.161Z</time>
      </trkpt>
      <trkpt lat="46.84611" lon="8.44508">
        <ele>1994</ele>
        <time>2021-08-13T07:47:26.160Z</time>
      </trkpt>
      <trkpt lat="46.84612" lon="8.44506">
        <ele>1994</ele>
        <time>2021-08-13T07:47:27.161Z</time>
      </trkpt>
      <trkpt lat="46.84612" lon="8.44504">
        <ele>1994</ele>
        <time>2021-08-13T07:47:28.161Z</time>
      </trkpt>
      <trkpt lat="46.84612" lon="8.44503">
        <ele>1993</ele>
        <time>2021-08-13T07:47:29.161Z</time>
      </trkpt>
      <trkpt lat="46.84612" lon="8.44502">
        <ele>1993</ele>
        <time>2021-08-13T07:47:30.160Z</time>
      </trkpt>
      <trkpt lat="46.84613" lon="8.44501">
        <ele>1993</ele>
        <time>2021-08-13T07:47:31.160Z</time>
      </trkpt>
      <trkpt lat="46.84613" lon="8.445">
        <ele>1993</ele>
        <time>2021-08-13T07:47:32.161Z</time>
      </trkpt>
      <trkpt lat="46.84614" lon="8.44499">
        <ele>1992</ele>
        <time>2021-08-13T07:47:33.161Z</time>
      </trkpt>
      <trkpt lat="46.84614" lon="8.44498">
        <ele>1992</ele>
        <time>2021-08-13T07:47:34.161Z</time>
      </trkpt>
      <trkpt lat="46.84616" lon="8.44497">
        <ele>1990</ele>
        <time>2021-08-13T07:47:35.160Z</time>
      </trkpt>
      <trkpt lat="46.84616" lon="8.44496">
        <ele>1989</ele>
        <time>2021-08-13T07:47:36.161Z</time>
      </trkpt>
      <trkpt lat="46.84616" lon="8.44495">
        <ele>1988</ele>
        <time>2021-08-13T07:47:37.161Z</time>
      </trkpt>
      <trkpt lat="46.84616" lon="8.44494">
        <ele>1988</ele>
        <time>2021-08-13T07:47:38.160Z</time>
      </trkpt>
      <trkpt lat="46.84616" lon="8.44493">
        <ele>1988</ele>
        <time>2021-08-13T07:47:39.161Z</time>
      </trkpt>
      <trkpt lat="46.84616" lon="8.44493">
        <ele>1987</ele>
        <time>2021-08-13T07:47:40.161Z</time>
      </trkpt>
      <trkpt lat="46.84617" lon="8.44496">
        <ele>1992</ele>
        <time>2021-08-13T07:47:41.163Z</time>
      </trkpt>
      <trkpt lat="46.84617" lon="8.44496">
        <ele>1992</ele>
        <time>2021-08-13T07:47:42.163Z</time>
      </trkpt>
      <trkpt lat="46.84618" lon="8.44496">
        <ele>1991</ele>
        <time>2021-08-13T07:47:43.162Z</time>
      </trkpt>
      <trkpt lat="46.84618" lon="8.44496">
        <ele>1991</ele>
        <time>2021-08-13T07:47:44.163Z</time>
      </trkpt>
      <trkpt lat="46.84619" lon="8.44497">
        <ele>1991</ele>
        <time>2021-08-13T07:47:45.163Z</time>
      </trkpt>
      <trkpt lat="46.84619" lon="8.44497">
        <ele>1990</ele>
        <time>2021-08-13T07:47:46.162Z</time>
      </trkpt>
      <trkpt lat="46.8462" lon="8.44497">
        <ele>1989</ele>
        <time>2021-08-13T07:47:47.162Z</time>
      </trkpt>
      <trkpt lat="46.8462" lon="8.44496">
        <ele>1989</ele>
        <time>2021-08-13T07:47:48.163Z</time>
      </trkpt>
      <trkpt lat="46.84621" lon="8.44496">
        <ele>1989</ele>
        <time>2021-08-13T07:47:49.163Z</time>
      </trkpt>
      <trkpt lat="46.84621" lon="8.44495">
        <ele>1989</ele>
        <time>2021-08-13T07:47:50.163Z</time>
      </trkpt>
      <trkpt lat="46.84622" lon="8.44494">
        <ele>1989</ele>
        <time>2021-08-13T07:47:51.163Z</time>
      </trkpt>
      <trkpt lat="46.84623" lon="8.44494">
        <ele>1989</ele>
        <time>2021-08-13T07:47:52.163Z</time>
      </trkpt>
      <trkpt lat="46.84624" lon="8.44494">
        <ele>1989</ele>
        <time>2021-08-13T07:47:53.163Z</time>
      </trkpt>
      <trkpt lat="46.84625" lon="8.44493">
        <ele>1990</ele>
        <time>2021-08-13T07:47:54.162Z</time>
      </trkpt>
      <trkpt lat="46.84626" lon="8.44494">
        <ele>1990</ele>
        <time>2021-08-13T07:47:55.163Z</time>
      </trkpt>
      <trkpt lat="46.84626" lon="8.44494">
        <ele>1990</ele>
        <time>2021-08-13T07:47:56.163Z</time>
      </trkpt>
      <trkpt lat="46.84626" lon="8.44493">
        <ele>1990</ele>
        <time>2021-08-13T07:47:57.163Z</time>
      </trkpt>
      <trkpt lat="46.84626" lon="8.44492">
        <ele>1990</ele>
        <time>2021-08-13T07:47:58.162Z</time>
      </trkpt>
      <trkpt lat="46.84626" lon="8.4449">
        <ele>1990</ele>
        <time>2021-08-13T07:47:59.163Z</time>
      </trkpt>
      <trkpt lat="46.84626" lon="8.44489">
        <ele>1990</ele>
        <time>2021-08-13T07:48:00.163Z</time>
      </trkpt>
      <trkpt lat="46.84625" lon="8.44488">
        <ele>1989</ele>
        <time>2021-08-13T07:48:01.163Z</time>
      </trkpt>
      <trkpt lat="46.84625" lon="8.44487">
        <ele>1989</ele>
        <time>2021-08-13T07:48:02.162Z</time>
      </trkpt>
      <trkpt lat="46.84624" lon="8.44486">
        <ele>1988</ele>
        <time>2021-08-13T07:48:03.163Z</time>
      </trkpt>
      <trkpt lat="46.84624" lon="8.44485">
        <ele>1988</ele>
        <time>2021-08-13T07:48:04.163Z</time>
      </trkpt>
      <trkpt lat="46.84623" lon="8.44484">
        <ele>1988</ele>
        <time>2021-08-13T07:48:05.163Z</time>
      </trkpt>
      <trkpt lat="46.84622" lon="8.44483">
        <ele>1988</ele>
        <time>2021-08-13T07:48:06.163Z</time>
      </trkpt>
      <trkpt lat="46.84622" lon="8.44482">
        <ele>1988</ele>
        <time>2021-08-13T07:48:07.162Z</time>
      </trkpt>
      <trkpt lat="46.84621" lon="8.44481">
        <ele>1988</ele>
        <time>2021-08-13T07:48:08.162Z</time>
      </trkpt>
      <trkpt lat="46.8462" lon="8.4448">
        <ele>1988</ele>
        <time>2021-08-13T07:48:09.162Z</time>
      </trkpt>
      <trkpt lat="46.84619" lon="8.44478">
        <ele>1988</ele>
        <time>2021-08-13T07:48:10.163Z</time>
      </trkpt>
      <trkpt lat="46.84619" lon="8.44476">
        <ele>1988</ele>
        <time>2021-08-13T07:48:11.163Z</time>
      </trkpt>
      <trkpt lat="46.84618" lon="8.44475">
        <ele>1987</ele>
        <time>2021-08-13T07:48:12.163Z</time>
      </trkpt>
      <trkpt lat="46.84618" lon="8.44473">
        <ele>1987</ele>
        <time>2021-08-13T07:48:13.162Z</time>
      </trkpt>
      <trkpt lat="46.84617" lon="8.44471">
        <ele>1987</ele>
        <time>2021-08-13T07:48:14.163Z</time>
      </trkpt>
      <trkpt lat="46.84617" lon="8.44469">
        <ele>1986</ele>
        <time>2021-08-13T07:48:15.163Z</time>
      </trkpt>
      <trkpt lat="46.84617" lon="8.44467">
        <ele>1986</ele>
        <time>2021-08-13T07:48:16.163Z</time>
      </trkpt>
      <trkpt lat="46.84617" lon="8.44466">
        <ele>1985</ele>
        <time>2021-08-13T07:48:17.163Z</time>
      </trkpt>
      <trkpt lat="46.84617" lon="8.44464">
        <ele>1985</ele>
        <time>2021-08-13T07:48:18.163Z</time>
      </trkpt>
      <trkpt lat="46.84617" lon="8.44462">
        <ele>1985</ele>
        <time>2021-08-13T07:48:19.163Z</time>
      </trkpt>
      <trkpt lat="46.84618" lon="8.44461">
        <ele>1985</ele>
        <time>2021-08-13T07:48:20.163Z</time>
      </trkpt>
      <trkpt lat="46.84618" lon="8.44459">
        <ele>1985</ele>
        <time>2021-08-13T07:48:21.163Z</time>
      </trkpt>
      <trkpt lat="46.84618" lon="8.44458">
        <ele>1985</ele>
        <time>2021-08-13T07:48:22.162Z</time>
      </trkpt>
      <trkpt lat="46.84618" lon="8.44456">
        <ele>1985</ele>
        <time>2021-08-13T07:48:23.162Z</time>
      </trkpt>
      <trkpt lat="46.84618" lon="8.44455">
        <ele>1984</ele>
        <time>2021-08-13T07:48:24.162Z</time>
      </trkpt>
      <trkpt lat="46.84617" lon="8.44453">
        <ele>1984</ele>
        <time>2021-08-13T07:48:25.163Z</time>
      </trkpt>
      <trkpt lat="46.84617" lon="8.44452">
        <ele>1984</ele>
        <time>2021-08-13T07:48:26.163Z</time>
      </trkpt>
      <trkpt lat="46.84617" lon="8.4445">
        <ele>1984</ele>
        <time>2021-08-13T07:48:27.163Z</time>
      </trkpt>
      <trkpt lat="46.84617" lon="8.44448">
        <ele>1985</ele>
        <time>2021-08-13T07:48:28.163Z</time>
      </trkpt>
      <trkpt lat="46.84617" lon="8.44446">
        <ele>1985</ele>
        <time>2021-08-13T07:48:29.162Z</time>
      </trkpt>
      <trkpt lat="46.84618" lon="8.44444">
        <ele>1985</ele>
        <time>2021-08-13T07:48:30.163Z</time>
      </trkpt>
      <trkpt lat="46.84618" lon="8.44442">
        <ele>1985</ele>
        <time>2021-08-13T07:48:31.163Z</time>
      </trkpt>
      <trkpt lat="46.84619" lon="8.44441">
        <ele>1984</ele>
        <time>2021-08-13T07:48:32.163Z</time>
      </trkpt>
      <trkpt lat="46.84619" lon="8.44439">
        <ele>1984</ele>
        <time>2021-08-13T07:48:33.163Z</time>
      </trkpt>
      <trkpt lat="46.8462" lon="8.44438">
        <ele>1984</ele>
        <time>2021-08-13T07:48:34.163Z</time>
      </trkpt>
      <trkpt lat="46.8462" lon="8.44436">
        <ele>1984</ele>
        <time>2021-08-13T07:48:35.162Z</time>
      </trkpt>
      <trkpt lat="46.84621" lon="8.44434">
        <ele>1984</ele>
        <time>2021-08-13T07:48:36.162Z</time>
      </trkpt>
      <trkpt lat="46.84622" lon="8.44432">
        <ele>1984</ele>
        <time>2021-08-13T07:48:37.163Z</time>
      </trkpt>
      <trkpt lat="46.84622" lon="8.4443">
        <ele>1984</ele>
        <time>2021-08-13T07:48:38.163Z</time>
      </trkpt>
      <trkpt lat="46.84622" lon="8.44429">
        <ele>1983</ele>
        <time>2021-08-13T07:48:39.163Z</time>
      </trkpt>
      <trkpt lat="46.84623" lon="8.44427">
        <ele>1983</ele>
        <time>2021-08-13T07:48:40.163Z</time>
      </trkpt>
      <trkpt lat="46.84623" lon="8.44425">
        <ele>1983</ele>
        <time>2021-08-13T07:48:41.162Z</time>
      </trkpt>
      <trkpt lat="46.84623" lon="8.44424">
        <ele>1984</ele>
        <time>2021-08-13T07:48:42.163Z</time>
      </trkpt>
      <trkpt lat="46.84623" lon="8.44422">
        <ele>1984</ele>
        <time>2021-08-13T07:48:43.163Z</time>
      </trkpt>
      <trkpt lat="46.84623" lon="8.4442">
        <ele>1984</ele>
        <time>2021-08-13T07:48:44.163Z</time>
      </trkpt>
      <trkpt lat="46.84624" lon="8.44419">
        <ele>1984</ele>
        <time>2021-08-13T07:48:45.163Z</time>
      </trkpt>
      <trkpt lat="46.84624" lon="8.44417">
        <ele>1984</ele>
        <time>2021-08-13T07:48:46.162Z</time>
      </trkpt>
      <trkpt lat="46.84625" lon="8.44415">
        <ele>1984</ele>
        <time>2021-08-13T07:48:47.163Z</time>
      </trkpt>
      <trkpt lat="46.84625" lon="8.44414">
        <ele>1984</ele>
        <time>2021-08-13T07:48:48.163Z</time>
      </trkpt>
      <trkpt lat="46.84625" lon="8.44412">
        <ele>1983</ele>
        <time>2021-08-13T07:48:49.163Z</time>
      </trkpt>
      <trkpt lat="46.84625" lon="8.44411">
        <ele>1983</ele>
        <time>2021-08-13T07:48:50.162Z</time>
      </trkpt>
      <trkpt lat="46.84625" lon="8.44409">
        <ele>1983</ele>
        <time>2021-08-13T07:48:51.163Z</time>
      </trkpt>
      <trkpt lat="46.84625" lon="8.44407">
        <ele>1982</ele>
        <time>2021-08-13T07:48:52.163Z</time>
      </trkpt>
      <trkpt lat="46.84625" lon="8.44404">
        <ele>1983</ele>
        <time>2021-08-13T07:48:53.163Z</time>
      </trkpt>
      <trkpt lat="46.84624" lon="8.44403">
        <ele>1983</ele>
        <time>2021-08-13T07:48:54.163Z</time>
      </trkpt>
      <trkpt lat="46.84624" lon="8.44401">
        <ele>1983</ele>
        <time>2021-08-13T07:48:55.162Z</time>
      </trkpt>
      <trkpt lat="46.84623" lon="8.44399">
        <ele>1983</ele>
        <time>2021-08-13T07:48:56.163Z</time>
      </trkpt>
      <trkpt lat="46.84622" lon="8.44397">
        <ele>1984</ele>
        <time>2021-08-13T07:48:57.162Z</time>
      </trkpt>
      <trkpt lat="46.84622" lon="8.44395">
        <ele>1984</ele>
        <time>2021-08-13T07:48:58.163Z</time>
      </trkpt>
      <trkpt lat="46.84622" lon="8.44394">
        <ele>1985</ele>
        <time>2021-08-13T07:48:59.162Z</time>
      </trkpt>
      <trkpt lat="46.84621" lon="8.44392">
        <ele>1985</ele>
        <time>2021-08-13T07:49:00.162Z</time>
      </trkpt>
      <trkpt lat="46.84622" lon="8.44391">
        <ele>1986</ele>
        <time>2021-08-13T07:49:01.162Z</time>
      </trkpt>
      <trkpt lat="46.84621" lon="8.44389">
        <ele>1986</ele>
        <time>2021-08-13T07:49:02.163Z</time>
      </trkpt>
      <trkpt lat="46.84621" lon="8.44388">
        <ele>1986</ele>
        <time>2021-08-13T07:49:03.163Z</time>
      </trkpt>
      <trkpt lat="46.84621" lon="8.44386">
        <ele>1986</ele>
        <time>2021-08-13T07:49:04.163Z</time>
      </trkpt>
      <trkpt lat="46.8462" lon="8.44385">
        <ele>1986</ele>
        <time>2021-08-13T07:49:05.163Z</time>
      </trkpt>
      <trkpt lat="46.8462" lon="8.44383">
        <ele>1986</ele>
        <time>2021-08-13T07:49:06.162Z</time>
      </trkpt>
      <trkpt lat="46.84619" lon="8.44381">
        <ele>1985</ele>
        <time>2021-08-13T07:49:07.163Z</time>
      </trkpt>
      <trkpt lat="46.84619" lon="8.4438">
        <ele>1985</ele>
        <time>2021-08-13T07:49:08.163Z</time>
      </trkpt>
      <trkpt lat="46.84619" lon="8.44379">
        <ele>1985</ele>
        <time>2021-08-13T07:49:09.163Z</time>
      </trkpt>
      <trkpt lat="46.84619" lon="8.44377">
        <ele>1985</ele>
        <time>2021-08-13T07:49:10.163Z</time>
      </trkpt>
      <trkpt lat="46.84619" lon="8.44377">
        <ele>1984</ele>
        <time>2021-08-13T07:49:11.163Z</time>
      </trkpt>
      <trkpt lat="46.84619" lon="8.44375">
        <ele>1984</ele>
        <time>2021-08-13T07:49:12.162Z</time>
      </trkpt>
      <trkpt lat="46.84619" lon="8.44374">
        <ele>1984</ele>
        <time>2021-08-13T07:49:13.163Z</time>
      </trkpt>
      <trkpt lat="46.84619" lon="8.44372">
        <ele>1984</ele>
        <time>2021-08-13T07:49:14.163Z</time>
      </trkpt>
      <trkpt lat="46.84619" lon="8.4437">
        <ele>1984</ele>
        <time>2021-08-13T07:49:15.163Z</time>
      </trkpt>
      <trkpt lat="46.8462" lon="8.44368">
        <ele>1984</ele>
        <time>2021-08-13T07:49:16.163Z</time>
      </trkpt>
      <trkpt lat="46.8462" lon="8.44367">
        <ele>1984</ele>
        <time>2021-08-13T07:49:17.163Z</time>
      </trkpt>
      <trkpt lat="46.8462" lon="8.44366">
        <ele>1983</ele>
        <time>2021-08-13T07:49:18.163Z</time>
      </trkpt>
      <trkpt lat="46.84621" lon="8.44364">
        <ele>1983</ele>
        <time>2021-08-13T07:49:19.163Z</time>
      </trkpt>
      <trkpt lat="46.84621" lon="8.44363">
        <ele>1983</ele>
        <time>2021-08-13T07:49:20.163Z</time>
      </trkpt>
      <trkpt lat="46.84622" lon="8.44361">
        <ele>1984</ele>
        <time>2021-08-13T07:49:21.163Z</time>
      </trkpt>
      <trkpt lat="46.84622" lon="8.4436">
        <ele>1984</ele>
        <time>2021-08-13T07:49:22.163Z</time>
      </trkpt>
      <trkpt lat="46.84623" lon="8.44358">
        <ele>1984</ele>
        <time>2021-08-13T07:49:23.163Z</time>
      </trkpt>
      <trkpt lat="46.84623" lon="8.44357">
        <ele>1985</ele>
        <time>2021-08-13T07:49:24.163Z</time>
      </trkpt>
      <trkpt lat="46.84624" lon="8.44356">
        <ele>1985</ele>
        <time>2021-08-13T07:49:25.162Z</time>
      </trkpt>
      <trkpt lat="46.84624" lon="8.44355">
        <ele>1985</ele>
        <time>2021-08-13T07:49:26.163Z</time>
      </trkpt>
      <trkpt lat="46.84625" lon="8.44353">
        <ele>1985</ele>
        <time>2021-08-13T07:49:27.163Z</time>
      </trkpt>
      <trkpt lat="46.84626" lon="8.44352">
        <ele>1986</ele>
        <time>2021-08-13T07:49:28.162Z</time>
      </trkpt>
      <trkpt lat="46.84626" lon="8.4435">
        <ele>1986</ele>
        <time>2021-08-13T07:49:29.163Z</time>
      </trkpt>
      <trkpt lat="46.84627" lon="8.44349">
        <ele>1986</ele>
        <time>2021-08-13T07:49:30.162Z</time>
      </trkpt>
      <trkpt lat="46.84627" lon="8.44347">
        <ele>1986</ele>
        <time>2021-08-13T07:49:31.162Z</time>
      </trkpt>
      <trkpt lat="46.84628" lon="8.44346">
        <ele>1986</ele>
        <time>2021-08-13T07:49:32.162Z</time>
      </trkpt>
      <trkpt lat="46.84628" lon="8.44344">
        <ele>1987</ele>
        <time>2021-08-13T07:49:33.162Z</time>
      </trkpt>
      <trkpt lat="46.84628" lon="8.44343">
        <ele>1987</ele>
        <time>2021-08-13T07:49:34.163Z</time>
      </trkpt>
      <trkpt lat="46.84629" lon="8.44342">
        <ele>1987</ele>
        <time>2021-08-13T07:49:35.162Z</time>
      </trkpt>
      <trkpt lat="46.84629" lon="8.44341">
        <ele>1987</ele>
        <time>2021-08-13T07:49:36.163Z</time>
      </trkpt>
      <trkpt lat="46.8463" lon="8.44339">
        <ele>1986</ele>
        <time>2021-08-13T07:49:37.163Z</time>
      </trkpt>
      <trkpt lat="46.8463" lon="8.44338">
        <ele>1986</ele>
        <time>2021-08-13T07:49:38.163Z</time>
      </trkpt>
      <trkpt lat="46.84631" lon="8.44336">
        <ele>1986</ele>
        <time>2021-08-13T07:49:39.163Z</time>
      </trkpt>
      <trkpt lat="46.84631" lon="8.44334">
        <ele>1986</ele>
        <time>2021-08-13T07:49:40.162Z</time>
      </trkpt>
      <trkpt lat="46.84631" lon="8.44333">
        <ele>1986</ele>
        <time>2021-08-13T07:49:41.163Z</time>
      </trkpt>
      <trkpt lat="46.84632" lon="8.44331">
        <ele>1986</ele>
        <time>2021-08-13T07:49:42.162Z</time>
      </trkpt>
      <trkpt lat="46.84633" lon="8.4433">
        <ele>1987</ele>
        <time>2021-08-13T07:49:43.162Z</time>
      </trkpt>
      <trkpt lat="46.84633" lon="8.44328">
        <ele>1987</ele>
        <time>2021-08-13T07:49:44.163Z</time>
      </trkpt>
      <trkpt lat="46.84634" lon="8.44326">
        <ele>1987</ele>
        <time>2021-08-13T07:49:45.162Z</time>
      </trkpt>
      <trkpt lat="46.84634" lon="8.44324">
        <ele>1987</ele>
        <time>2021-08-13T07:49:46.163Z</time>
      </trkpt>
      <trkpt lat="46.84635" lon="8.44322">
        <ele>1988</ele>
        <time>2021-08-13T07:49:47.163Z</time>
      </trkpt>
      <trkpt lat="46.84635" lon="8.44321">
        <ele>1988</ele>
        <time>2021-08-13T07:49:48.163Z</time>
      </trkpt>
      <trkpt lat="46.84635" lon="8.44319">
        <ele>1988</ele>
        <time>2021-08-13T07:49:49.163Z</time>
      </trkpt>
      <trkpt lat="46.84635" lon="8.44318">
        <ele>1988</ele>
        <time>2021-08-13T07:49:50.163Z</time>
      </trkpt>
      <trkpt lat="46.84636" lon="8.44316">
        <ele>1988</ele>
        <time>2021-08-13T07:49:51.163Z</time>
      </trkpt>
      <trkpt lat="46.84636" lon="8.44314">
        <ele>1989</ele>
        <time>2021-08-13T07:49:52.162Z</time>
      </trkpt>
      <trkpt lat="46.84636" lon="8.44313">
        <ele>1989</ele>
        <time>2021-08-13T07:49:53.163Z</time>
      </trkpt>
      <trkpt lat="46.84636" lon="8.44311">
        <ele>1990</ele>
        <time>2021-08-13T07:49:54.162Z</time>
      </trkpt>
      <trkpt lat="46.84636" lon="8.4431">
        <ele>1990</ele>
        <time>2021-08-13T07:49:55.163Z</time>
      </trkpt>
      <trkpt lat="46.84636" lon="8.44308">
        <ele>1991</ele>
        <time>2021-08-13T07:49:56.163Z</time>
      </trkpt>
      <trkpt lat="46.84636" lon="8.44306">
        <ele>1991</ele>
        <time>2021-08-13T07:49:57.162Z</time>
      </trkpt>
      <trkpt lat="46.84636" lon="8.44305">
        <ele>1991</ele>
        <time>2021-08-13T07:49:58.163Z</time>
      </trkpt>
      <trkpt lat="46.84636" lon="8.44303">
        <ele>1991</ele>
        <time>2021-08-13T07:49:59.162Z</time>
      </trkpt>
      <trkpt lat="46.84636" lon="8.44302">
        <ele>1990</ele>
        <time>2021-08-13T07:50:00.162Z</time>
      </trkpt>
      <trkpt lat="46.84637" lon="8.443">
        <ele>1990</ele>
        <time>2021-08-13T07:50:01.162Z</time>
      </trkpt>
      <trkpt lat="46.84637" lon="8.44298">
        <ele>1990</ele>
        <time>2021-08-13T07:50:02.162Z</time>
      </trkpt>
      <trkpt lat="46.84638" lon="8.44297">
        <ele>1989</ele>
        <time>2021-08-13T07:50:03.162Z</time>
      </trkpt>
      <trkpt lat="46.84638" lon="8.44295">
        <ele>1989</ele>
        <time>2021-08-13T07:50:04.162Z</time>
      </trkpt>
      <trkpt lat="46.84639" lon="8.44293">
        <ele>1989</ele>
        <time>2021-08-13T07:50:05.162Z</time>
      </trkpt>
      <trkpt lat="46.84639" lon="8.44291">
        <ele>1989</ele>
        <time>2021-08-13T07:50:06.162Z</time>
      </trkpt>
      <trkpt lat="46.8464" lon="8.44289">
        <ele>1989</ele>
        <time>2021-08-13T07:50:07.163Z</time>
      </trkpt>
      <trkpt lat="46.8464" lon="8.44287">
        <ele>1989</ele>
        <time>2021-08-13T07:50:08.162Z</time>
      </trkpt>
      <trkpt lat="46.84641" lon="8.44285">
        <ele>1989</ele>
        <time>2021-08-13T07:50:09.162Z</time>
      </trkpt>
      <trkpt lat="46.84641" lon="8.44284">
        <ele>1989</ele>
        <time>2021-08-13T07:50:10.163Z</time>
      </trkpt>
      <trkpt lat="46.84642" lon="8.44282">
        <ele>1989</ele>
        <time>2021-08-13T07:50:11.162Z</time>
      </trkpt>
      <trkpt lat="46.84642" lon="8.44281">
        <ele>1989</ele>
        <time>2021-08-13T07:50:12.162Z</time>
      </trkpt>
      <trkpt lat="46.84643" lon="8.4428">
        <ele>1989</ele>
        <time>2021-08-13T07:50:13.163Z</time>
      </trkpt>
      <trkpt lat="46.84643" lon="8.44278">
        <ele>1989</ele>
        <time>2021-08-13T07:50:14.162Z</time>
      </trkpt>
      <trkpt lat="46.84644" lon="8.44277">
        <ele>1988</ele>
        <time>2021-08-13T07:50:15.162Z</time>
      </trkpt>
      <trkpt lat="46.84644" lon="8.44275">
        <ele>1988</ele>
        <time>2021-08-13T07:50:16.162Z</time>
      </trkpt>
      <trkpt lat="46.84645" lon="8.44273">
        <ele>1987</ele>
        <time>2021-08-13T07:50:17.162Z</time>
      </trkpt>
      <trkpt lat="46.84644" lon="8.44271">
        <ele>1987</ele>
        <time>2021-08-13T07:50:18.162Z</time>
      </trkpt>
      <trkpt lat="46.84644" lon="8.44269">
        <ele>1986</ele>
        <time>2021-08-13T07:50:19.162Z</time>
      </trkpt>
      <trkpt lat="46.84644" lon="8.44268">
        <ele>1986</ele>
        <time>2021-08-13T07:50:20.162Z</time>
      </trkpt>
      <trkpt lat="46.84644" lon="8.44267">
        <ele>1986</ele>
        <time>2021-08-13T07:50:21.163Z</time>
      </trkpt>
      <trkpt lat="46.84644" lon="8.44265">
        <ele>1985</ele>
        <time>2021-08-13T07:50:22.162Z</time>
      </trkpt>
      <trkpt lat="46.84645" lon="8.44264">
        <ele>1985</ele>
        <time>2021-08-13T07:50:23.162Z</time>
      </trkpt>
      <trkpt lat="46.84645" lon="8.44262">
        <ele>1985</ele>
        <time>2021-08-13T07:50:24.163Z</time>
      </trkpt>
      <trkpt lat="46.84645" lon="8.4426">
        <ele>1985</ele>
        <time>2021-08-13T07:50:25.162Z</time>
      </trkpt>
      <trkpt lat="46.84645" lon="8.44258">
        <ele>1985</ele>
        <time>2021-08-13T07:50:26.162Z</time>
      </trkpt>
      <trkpt lat="46.84646" lon="8.44256">
        <ele>1985</ele>
        <time>2021-08-13T07:50:27.163Z</time>
      </trkpt>
      <trkpt lat="46.84646" lon="8.44255">
        <ele>1985</ele>
        <time>2021-08-13T07:50:28.163Z</time>
      </trkpt>
      <trkpt lat="46.84646" lon="8.44254">
        <ele>1985</ele>
        <time>2021-08-13T07:50:29.163Z</time>
      </trkpt>
      <trkpt lat="46.84646" lon="8.44252">
        <ele>1985</ele>
        <time>2021-08-13T07:50:30.163Z</time>
      </trkpt>
      <trkpt lat="46.84646" lon="8.44251">
        <ele>1985</ele>
        <time>2021-08-13T07:50:31.163Z</time>
      </trkpt>
      <trkpt lat="46.84647" lon="8.44249">
        <ele>1984</ele>
        <time>2021-08-13T07:50:32.162Z</time>
      </trkpt>
      <trkpt lat="46.84647" lon="8.44248">
        <ele>1984</ele>
        <time>2021-08-13T07:50:33.162Z</time>
      </trkpt>
      <trkpt lat="46.84647" lon="8.44246">
        <ele>1984</ele>
        <time>2021-08-13T07:50:34.163Z</time>
      </trkpt>
      <trkpt lat="46.84647" lon="8.44244">
        <ele>1983</ele>
        <time>2021-08-13T07:50:35.162Z</time>
      </trkpt>
      <trkpt lat="46.84647" lon="8.44241">
        <ele>1983</ele>
        <time>2021-08-13T07:50:36.163Z</time>
      </trkpt>
      <trkpt lat="46.84648" lon="8.4424">
        <ele>1984</ele>
        <time>2021-08-13T07:50:37.163Z</time>
      </trkpt>
      <trkpt lat="46.84647" lon="8.44238">
        <ele>1984</ele>
        <time>2021-08-13T07:50:38.162Z</time>
      </trkpt>
      <trkpt lat="46.84647" lon="8.44236">
        <ele>1984</ele>
        <time>2021-08-13T07:50:39.163Z</time>
      </trkpt>
      <trkpt lat="46.84647" lon="8.44235">
        <ele>1984</ele>
        <time>2021-08-13T07:50:40.163Z</time>
      </trkpt>
      <trkpt lat="46.84647" lon="8.44234">
        <ele>1985</ele>
        <time>2021-08-13T07:50:41.162Z</time>
      </trkpt>
      <trkpt lat="46.84647" lon="8.44232">
        <ele>1985</ele>
        <time>2021-08-13T07:50:42.162Z</time>
      </trkpt>
      <trkpt lat="46.84647" lon="8.4423">
        <ele>1985</ele>
        <time>2021-08-13T07:50:43.163Z</time>
      </trkpt>
      <trkpt lat="46.84647" lon="8.44229">
        <ele>1984</ele>
        <time>2021-08-13T07:50:44.162Z</time>
      </trkpt>
      <trkpt lat="46.84647" lon="8.44227">
        <ele>1984</ele>
        <time>2021-08-13T07:50:45.163Z</time>
      </trkpt>
      <trkpt lat="46.84647" lon="8.44226">
        <ele>1984</ele>
        <time>2021-08-13T07:50:46.162Z</time>
      </trkpt>
      <trkpt lat="46.84647" lon="8.44224">
        <ele>1984</ele>
        <time>2021-08-13T07:50:47.163Z</time>
      </trkpt>
      <trkpt lat="46.84647" lon="8.44223">
        <ele>1984</ele>
        <time>2021-08-13T07:50:48.163Z</time>
      </trkpt>
      <trkpt lat="46.84647" lon="8.44221">
        <ele>1984</ele>
        <time>2021-08-13T07:50:49.163Z</time>
      </trkpt>
      <trkpt lat="46.84647" lon="8.4422">
        <ele>1984</ele>
        <time>2021-08-13T07:50:50.163Z</time>
      </trkpt>
      <trkpt lat="46.84647" lon="8.44218">
        <ele>1984</ele>
        <time>2021-08-13T07:50:51.163Z</time>
      </trkpt>
      <trkpt lat="46.84647" lon="8.44217">
        <ele>1984</ele>
        <time>2021-08-13T07:50:52.163Z</time>
      </trkpt>
      <trkpt lat="46.84647" lon="8.44215">
        <ele>1983</ele>
        <time>2021-08-13T07:50:53.162Z</time>
      </trkpt>
      <trkpt lat="46.84647" lon="8.44213">
        <ele>1982</ele>
        <time>2021-08-13T07:50:54.163Z</time>
      </trkpt>
      <trkpt lat="46.84647" lon="8.44211">
        <ele>1982</ele>
        <time>2021-08-13T07:50:55.162Z</time>
      </trkpt>
      <trkpt lat="46.84647" lon="8.44209">
        <ele>1981</ele>
        <time>2021-08-13T07:50:56.163Z</time>
      </trkpt>
      <trkpt lat="46.84647" lon="8.44208">
        <ele>1981</ele>
        <time>2021-08-13T07:50:57.163Z</time>
      </trkpt>
      <trkpt lat="46.84647" lon="8.44206">
        <ele>1981</ele>
        <time>2021-08-13T07:50:58.163Z</time>
      </trkpt>
      <trkpt lat="46.84647" lon="8.44205">
        <ele>1981</ele>
        <time>2021-08-13T07:50:59.162Z</time>
      </trkpt>
      <trkpt lat="46.84647" lon="8.44204">
        <ele>1981</ele>
        <time>2021-08-13T07:51:00.163Z</time>
      </trkpt>
      <trkpt lat="46.84647" lon="8.44203">
        <ele>1981</ele>
        <time>2021-08-13T07:51:01.162Z</time>
      </trkpt>
      <trkpt lat="46.84647" lon="8.44201">
        <ele>1980</ele>
        <time>2021-08-13T07:51:02.163Z</time>
      </trkpt>
      <trkpt lat="46.84646" lon="8.442">
        <ele>1980</ele>
        <time>2021-08-13T07:51:03.163Z</time>
      </trkpt>
      <trkpt lat="46.84646" lon="8.44199">
        <ele>1980</ele>
        <time>2021-08-13T07:51:04.163Z</time>
      </trkpt>
      <trkpt lat="46.84645" lon="8.44198">
        <ele>1980</ele>
        <time>2021-08-13T07:51:05.162Z</time>
      </trkpt>
      <trkpt lat="46.84645" lon="8.44197">
        <ele>1980</ele>
        <time>2021-08-13T07:51:06.163Z</time>
      </trkpt>
      <trkpt lat="46.84645" lon="8.44196">
        <ele>1979</ele>
        <time>2021-08-13T07:51:07.163Z</time>
      </trkpt>
      <trkpt lat="46.84645" lon="8.44195">
        <ele>1979</ele>
        <time>2021-08-13T07:51:08.163Z</time>
      </trkpt>
      <trkpt lat="46.84645" lon="8.44194">
        <ele>1979</ele>
        <time>2021-08-13T07:51:09.163Z</time>
      </trkpt>
      <trkpt lat="46.84645" lon="8.44192">
        <ele>1979</ele>
        <time>2021-08-13T07:51:10.163Z</time>
      </trkpt>
      <trkpt lat="46.84644" lon="8.4419">
        <ele>1979</ele>
        <time>2021-08-13T07:51:11.163Z</time>
      </trkpt>
      <trkpt lat="46.84644" lon="8.44189">
        <ele>1979</ele>
        <time>2021-08-13T07:51:12.163Z</time>
      </trkpt>
      <trkpt lat="46.84644" lon="8.44187">
        <ele>1979</ele>
        <time>2021-08-13T07:51:13.162Z</time>
      </trkpt>
      <trkpt lat="46.84644" lon="8.44186">
        <ele>1979</ele>
        <time>2021-08-13T07:51:14.163Z</time>
      </trkpt>
      <trkpt lat="46.84645" lon="8.44184">
        <ele>1979</ele>
        <time>2021-08-13T07:51:15.163Z</time>
      </trkpt>
      <trkpt lat="46.84645" lon="8.44183">
        <ele>1979</ele>
        <time>2021-08-13T07:51:16.162Z</time>
      </trkpt>
      <trkpt lat="46.84646" lon="8.44181">
        <ele>1979</ele>
        <time>2021-08-13T07:51:17.162Z</time>
      </trkpt>
      <trkpt lat="46.84646" lon="8.4418">
        <ele>1980</ele>
        <time>2021-08-13T07:51:18.163Z</time>
      </trkpt>
      <trkpt lat="46.84646" lon="8.44178">
        <ele>1980</ele>
        <time>2021-08-13T07:51:19.163Z</time>
      </trkpt>
      <trkpt lat="46.84646" lon="8.44177">
        <ele>1980</ele>
        <time>2021-08-13T07:51:20.162Z</time>
      </trkpt>
      <trkpt lat="46.84646" lon="8.44176">
        <ele>1981</ele>
        <time>2021-08-13T07:51:21.163Z</time>
      </trkpt>
      <trkpt lat="46.84647" lon="8.44175">
        <ele>1981</ele>
        <time>2021-08-13T07:51:22.163Z</time>
      </trkpt>
      <trkpt lat="46.84647" lon="8.44174">
        <ele>1981</ele>
        <time>2021-08-13T07:51:23.163Z</time>
      </trkpt>
      <trkpt lat="46.84647" lon="8.44174">
        <ele>1981</ele>
        <time>2021-08-13T07:51:24.162Z</time>
      </trkpt>
      <trkpt lat="46.84648" lon="8.44173">
        <ele>1980</ele>
        <time>2021-08-13T07:51:25.163Z</time>
      </trkpt>
      <trkpt lat="46.84649" lon="8.44173">
        <ele>1981</ele>
        <time>2021-08-13T07:51:26.163Z</time>
      </trkpt>
      <trkpt lat="46.8465" lon="8.44174">
        <ele>1982</ele>
        <time>2021-08-13T07:51:27.163Z</time>
      </trkpt>
      <trkpt lat="46.8465" lon="8.44173">
        <ele>1982</ele>
        <time>2021-08-13T07:51:28.163Z</time>
      </trkpt>
      <trkpt lat="46.84651" lon="8.44173">
        <ele>1982</ele>
        <time>2021-08-13T07:51:29.163Z</time>
      </trkpt>
      <trkpt lat="46.84652" lon="8.44172">
        <ele>1982</ele>
        <time>2021-08-13T07:51:30.163Z</time>
      </trkpt>
      <trkpt lat="46.84652" lon="8.44171">
        <ele>1982</ele>
        <time>2021-08-13T07:51:31.164Z</time>
      </trkpt>
      <trkpt lat="46.84653" lon="8.4417">
        <ele>1982</ele>
        <time>2021-08-13T07:51:32.163Z</time>
      </trkpt>
      <trkpt lat="46.84655" lon="8.44169">
        <ele>1982</ele>
        <time>2021-08-13T07:51:33.163Z</time>
      </trkpt>
      <trkpt lat="46.84655" lon="8.44168">
        <ele>1982</ele>
        <time>2021-08-13T07:51:34.164Z</time>
      </trkpt>
      <trkpt lat="46.84656" lon="8.44168">
        <ele>1982</ele>
        <time>2021-08-13T07:51:35.164Z</time>
      </trkpt>
      <trkpt lat="46.84657" lon="8.44167">
        <ele>1982</ele>
        <time>2021-08-13T07:51:36.164Z</time>
      </trkpt>
      <trkpt lat="46.84658" lon="8.44166">
        <ele>1982</ele>
        <time>2021-08-13T07:51:37.164Z</time>
      </trkpt>
      <trkpt lat="46.84659" lon="8.44166">
        <ele>1981</ele>
        <time>2021-08-13T07:51:38.164Z</time>
      </trkpt>
      <trkpt lat="46.8466" lon="8.44166">
        <ele>1981</ele>
        <time>2021-08-13T07:51:39.164Z</time>
      </trkpt>
      <trkpt lat="46.84661" lon="8.44166">
        <ele>1981</ele>
        <time>2021-08-13T07:51:40.164Z</time>
      </trkpt>
      <trkpt lat="46.84662" lon="8.44166">
        <ele>1980</ele>
        <time>2021-08-13T07:51:41.164Z</time>
      </trkpt>
      <trkpt lat="46.84663" lon="8.44166">
        <ele>1980</ele>
        <time>2021-08-13T07:51:42.164Z</time>
      </trkpt>
      <trkpt lat="46.84664" lon="8.44166">
        <ele>1979</ele>
        <time>2021-08-13T07:51:43.163Z</time>
      </trkpt>
      <trkpt lat="46.84665" lon="8.44165">
        <ele>1979</ele>
        <time>2021-08-13T07:51:44.163Z</time>
      </trkpt>
      <trkpt lat="46.84667" lon="8.44165">
        <ele>1979</ele>
        <time>2021-08-13T07:51:45.164Z</time>
      </trkpt>
      <trkpt lat="46.84668" lon="8.44165">
        <ele>1979</ele>
        <time>2021-08-13T07:51:46.163Z</time>
      </trkpt>
      <trkpt lat="46.84669" lon="8.44165">
        <ele>1979</ele>
        <time>2021-08-13T07:51:47.164Z</time>
      </trkpt>
      <trkpt lat="46.8467" lon="8.44165">
        <ele>1979</ele>
        <time>2021-08-13T07:51:48.164Z</time>
      </trkpt>
      <trkpt lat="46.8467" lon="8.44166">
        <ele>1980</ele>
        <time>2021-08-13T07:51:49.164Z</time>
      </trkpt>
      <trkpt lat="46.84671" lon="8.44166">
        <ele>1980</ele>
        <time>2021-08-13T07:51:50.163Z</time>
      </trkpt>
      <trkpt lat="46.84671" lon="8.44167">
        <ele>1981</ele>
        <time>2021-08-13T07:51:51.163Z</time>
      </trkpt>
      <trkpt lat="46.84672" lon="8.44168">
        <ele>1981</ele>
        <time>2021-08-13T07:51:52.164Z</time>
      </trkpt>
      <trkpt lat="46.84673" lon="8.44168">
        <ele>1981</ele>
        <time>2021-08-13T07:51:53.164Z</time>
      </trkpt>
      <trkpt lat="46.84674" lon="8.44169">
        <ele>1981</ele>
        <time>2021-08-13T07:51:54.164Z</time>
      </trkpt>
      <trkpt lat="46.84674" lon="8.44169">
        <ele>1982</ele>
        <time>2021-08-13T07:51:55.164Z</time>
      </trkpt>
      <trkpt lat="46.84675" lon="8.44169">
        <ele>1982</ele>
        <time>2021-08-13T07:51:56.164Z</time>
      </trkpt>
      <trkpt lat="46.84676" lon="8.44169">
        <ele>1982</ele>
        <time>2021-08-13T07:51:57.163Z</time>
      </trkpt>
      <trkpt lat="46.84677" lon="8.44169">
        <ele>1981</ele>
        <time>2021-08-13T07:51:58.164Z</time>
      </trkpt>
      <trkpt lat="46.84678" lon="8.44169">
        <ele>1981</ele>
        <time>2021-08-13T07:51:59.164Z</time>
      </trkpt>
      <trkpt lat="46.84679" lon="8.4417">
        <ele>1980</ele>
        <time>2021-08-13T07:52:00.163Z</time>
      </trkpt>
      <trkpt lat="46.8468" lon="8.44171">
        <ele>1980</ele>
        <time>2021-08-13T07:52:01.163Z</time>
      </trkpt>
      <trkpt lat="46.84681" lon="8.44172">
        <ele>1980</ele>
        <time>2021-08-13T07:52:02.163Z</time>
      </trkpt>
      <trkpt lat="46.84682" lon="8.44173">
        <ele>1980</ele>
        <time>2021-08-13T07:52:03.164Z</time>
      </trkpt>
      <trkpt lat="46.84683" lon="8.44174">
        <ele>1979</ele>
        <time>2021-08-13T07:52:04.163Z</time>
      </trkpt>
      <trkpt lat="46.84684" lon="8.44175">
        <ele>1979</ele>
        <time>2021-08-13T07:52:05.164Z</time>
      </trkpt>
      <trkpt lat="46.84685" lon="8.44175">
        <ele>1979</ele>
        <time>2021-08-13T07:52:06.164Z</time>
      </trkpt>
      <trkpt lat="46.84687" lon="8.44175">
        <ele>1978</ele>
        <time>2021-08-13T07:52:07.164Z</time>
      </trkpt>
      <trkpt lat="46.84688" lon="8.44174">
        <ele>1977</ele>
        <time>2021-08-13T07:52:08.164Z</time>
      </trkpt>
      <trkpt lat="46.8469" lon="8.44173">
        <ele>1975</ele>
        <time>2021-08-13T07:52:09.164Z</time>
      </trkpt>
      <trkpt lat="46.84691" lon="8.44173">
        <ele>1975</ele>
        <time>2021-08-13T07:52:10.164Z</time>
      </trkpt>
      <trkpt lat="46.84693" lon="8.44172">
        <ele>1974</ele>
        <time>2021-08-13T07:52:11.163Z</time>
      </trkpt>
      <trkpt lat="46.84695" lon="8.4417">
        <ele>1974</ele>
        <time>2021-08-13T07:52:12.163Z</time>
      </trkpt>
      <trkpt lat="46.84697" lon="8.44169">
        <ele>1974</ele>
        <time>2021-08-13T07:52:13.164Z</time>
      </trkpt>
      <trkpt lat="46.84698" lon="8.44167">
        <ele>1974</ele>
        <time>2021-08-13T07:52:14.164Z</time>
      </trkpt>
      <trkpt lat="46.84699" lon="8.44166">
        <ele>1974</ele>
        <time>2021-08-13T07:52:15.164Z</time>
      </trkpt>
      <trkpt lat="46.84699" lon="8.44165">
        <ele>1974</ele>
        <time>2021-08-13T07:52:16.164Z</time>
      </trkpt>
      <trkpt lat="46.847" lon="8.44164">
        <ele>1974</ele>
        <time>2021-08-13T07:52:17.164Z</time>
      </trkpt>
      <trkpt lat="46.84701" lon="8.44163">
        <ele>1974</ele>
        <time>2021-08-13T07:52:18.164Z</time>
      </trkpt>
      <trkpt lat="46.84702" lon="8.44163">
        <ele>1974</ele>
        <time>2021-08-13T07:52:19.164Z</time>
      </trkpt>
      <trkpt lat="46.84703" lon="8.44163">
        <ele>1974</ele>
        <time>2021-08-13T07:52:20.164Z</time>
      </trkpt>
      <trkpt lat="46.84704" lon="8.44163">
        <ele>1973</ele>
        <time>2021-08-13T07:52:21.163Z</time>
      </trkpt>
      <trkpt lat="46.84706" lon="8.44163">
        <ele>1972</ele>
        <time>2021-08-13T07:52:22.164Z</time>
      </trkpt>
      <trkpt lat="46.84707" lon="8.44163">
        <ele>1971</ele>
        <time>2021-08-13T07:52:23.163Z</time>
      </trkpt>
      <trkpt lat="46.84708" lon="8.44162">
        <ele>1970</ele>
        <time>2021-08-13T07:52:24.164Z</time>
      </trkpt>
      <trkpt lat="46.84709" lon="8.44162">
        <ele>1969</ele>
        <time>2021-08-13T07:52:25.164Z</time>
      </trkpt>
      <trkpt lat="46.8471" lon="8.44161">
        <ele>1969</ele>
        <time>2021-08-13T07:52:26.164Z</time>
      </trkpt>
      <trkpt lat="46.84711" lon="8.4416">
        <ele>1968</ele>
        <time>2021-08-13T07:52:27.164Z</time>
      </trkpt>
      <trkpt lat="46.84712" lon="8.4416">
        <ele>1968</ele>
        <time>2021-08-13T07:52:28.164Z</time>
      </trkpt>
      <trkpt lat="46.84712" lon="8.4416">
        <ele>1967</ele>
        <time>2021-08-13T07:52:29.163Z</time>
      </trkpt>
      <trkpt lat="46.84712" lon="8.4416">
        <ele>1967</ele>
        <time>2021-08-13T07:52:30.164Z</time>
      </trkpt>
      <trkpt lat="46.84712" lon="8.44155">
        <ele>1961</ele>
        <time>2021-08-13T07:52:31.163Z</time>
      </trkpt>
      <trkpt lat="46.84712" lon="8.44154">
        <ele>1961</ele>
        <time>2021-08-13T07:52:32.164Z</time>
      </trkpt>
      <trkpt lat="46.84712" lon="8.44154">
        <ele>1960</ele>
        <time>2021-08-13T07:52:33.163Z</time>
      </trkpt>
      <trkpt lat="46.84712" lon="8.44152">
        <ele>1961</ele>
        <time>2021-08-13T07:52:34.164Z</time>
      </trkpt>
      <trkpt lat="46.84713" lon="8.44151">
        <ele>1961</ele>
        <time>2021-08-13T07:52:35.164Z</time>
      </trkpt>
      <trkpt lat="46.84713" lon="8.4415">
        <ele>1961</ele>
        <time>2021-08-13T07:52:36.163Z</time>
      </trkpt>
      <trkpt lat="46.84713" lon="8.44148">
        <ele>1961</ele>
        <time>2021-08-13T07:52:37.164Z</time>
      </trkpt>
      <trkpt lat="46.84713" lon="8.44148">
        <ele>1961</ele>
        <time>2021-08-13T07:52:38.163Z</time>
      </trkpt>
      <trkpt lat="46.84714" lon="8.44148">
        <ele>1961</ele>
        <time>2021-08-13T07:52:39.164Z</time>
      </trkpt>
      <trkpt lat="46.84713" lon="8.44148">
        <ele>1962</ele>
        <time>2021-08-13T07:52:40.164Z</time>
      </trkpt>
      <trkpt lat="46.84713" lon="8.44148">
        <ele>1962</ele>
        <time>2021-08-13T07:52:41.164Z</time>
      </trkpt>
      <trkpt lat="46.84713" lon="8.44146">
        <ele>1962</ele>
        <time>2021-08-13T07:52:42.163Z</time>
      </trkpt>
      <trkpt lat="46.84714" lon="8.44145">
        <ele>1962</ele>
        <time>2021-08-13T07:52:43.164Z</time>
      </trkpt>
      <trkpt lat="46.84714" lon="8.44144">
        <ele>1962</ele>
        <time>2021-08-13T07:52:44.163Z</time>
      </trkpt>
      <trkpt lat="46.84714" lon="8.44143">
        <ele>1962</ele>
        <time>2021-08-13T07:52:45.163Z</time>
      </trkpt>
      <trkpt lat="46.84714" lon="8.44142">
        <ele>1962</ele>
        <time>2021-08-13T07:52:46.164Z</time>
      </trkpt>
      <trkpt lat="46.84714" lon="8.44141">
        <ele>1962</ele>
        <time>2021-08-13T07:52:47.163Z</time>
      </trkpt>
      <trkpt lat="46.84713" lon="8.4414">
        <ele>1963</ele>
        <time>2021-08-13T07:52:48.164Z</time>
      </trkpt>
      <trkpt lat="46.84712" lon="8.4414">
        <ele>1963</ele>
        <time>2021-08-13T07:52:49.164Z</time>
      </trkpt>
      <trkpt lat="46.84712" lon="8.44139">
        <ele>1962</ele>
        <time>2021-08-13T07:52:50.164Z</time>
      </trkpt>
      <trkpt lat="46.84711" lon="8.44138">
        <ele>1962</ele>
        <time>2021-08-13T07:52:51.164Z</time>
      </trkpt>
      <trkpt lat="46.84711" lon="8.44137">
        <ele>1962</ele>
        <time>2021-08-13T07:52:52.164Z</time>
      </trkpt>
      <trkpt lat="46.8471" lon="8.44136">
        <ele>1962</ele>
        <time>2021-08-13T07:52:53.164Z</time>
      </trkpt>
      <trkpt lat="46.8471" lon="8.44135">
        <ele>1962</ele>
        <time>2021-08-13T07:52:54.163Z</time>
      </trkpt>
      <trkpt lat="46.84709" lon="8.44134">
        <ele>1962</ele>
        <time>2021-08-13T07:52:55.164Z</time>
      </trkpt>
      <trkpt lat="46.84709" lon="8.44132">
        <ele>1962</ele>
        <time>2021-08-13T07:52:56.163Z</time>
      </trkpt>
      <trkpt lat="46.84708" lon="8.44131">
        <ele>1963</ele>
        <time>2021-08-13T07:52:57.164Z</time>
      </trkpt>
      <trkpt lat="46.84708" lon="8.44131">
        <ele>1963</ele>
        <time>2021-08-13T07:52:58.164Z</time>
      </trkpt>
      <trkpt lat="46.84707" lon="8.44129">
        <ele>1963</ele>
        <time>2021-08-13T07:52:59.164Z</time>
      </trkpt>
      <trkpt lat="46.84707" lon="8.44128">
        <ele>1963</ele>
        <time>2021-08-13T07:53:00.163Z</time>
      </trkpt>
      <trkpt lat="46.84707" lon="8.44127">
        <ele>1963</ele>
        <time>2021-08-13T07:53:01.164Z</time>
      </trkpt>
      <trkpt lat="46.84705" lon="8.44126">
        <ele>1963</ele>
        <time>2021-08-13T07:53:02.164Z</time>
      </trkpt>
      <trkpt lat="46.84704" lon="8.44125">
        <ele>1963</ele>
        <time>2021-08-13T07:53:03.163Z</time>
      </trkpt>
      <trkpt lat="46.84704" lon="8.44124">
        <ele>1963</ele>
        <time>2021-08-13T07:53:04.163Z</time>
      </trkpt>
      <trkpt lat="46.84703" lon="8.44123">
        <ele>1963</ele>
        <time>2021-08-13T07:53:05.164Z</time>
      </trkpt>
      <trkpt lat="46.84703" lon="8.44122">
        <ele>1963</ele>
        <time>2021-08-13T07:53:06.164Z</time>
      </trkpt>
      <trkpt lat="46.84702" lon="8.44121">
        <ele>1963</ele>
        <time>2021-08-13T07:53:07.164Z</time>
      </trkpt>
      <trkpt lat="46.84702" lon="8.44119">
        <ele>1963</ele>
        <time>2021-08-13T07:53:08.164Z</time>
      </trkpt>
      <trkpt lat="46.84702" lon="8.44118">
        <ele>1963</ele>
        <time>2021-08-13T07:53:09.163Z</time>
      </trkpt>
      <trkpt lat="46.84702" lon="8.44117">
        <ele>1963</ele>
        <time>2021-08-13T07:53:10.163Z</time>
      </trkpt>
      <trkpt lat="46.84702" lon="8.44116">
        <ele>1963</ele>
        <time>2021-08-13T07:53:11.164Z</time>
      </trkpt>
      <trkpt lat="46.84702" lon="8.44114">
        <ele>1963</ele>
        <time>2021-08-13T07:53:12.164Z</time>
      </trkpt>
      <trkpt lat="46.84702" lon="8.44113">
        <ele>1963</ele>
        <time>2021-08-13T07:53:13.164Z</time>
      </trkpt>
      <trkpt lat="46.84702" lon="8.44111">
        <ele>1963</ele>
        <time>2021-08-13T07:53:14.163Z</time>
      </trkpt>
      <trkpt lat="46.84702" lon="8.44109">
        <ele>1963</ele>
        <time>2021-08-13T07:53:15.164Z</time>
      </trkpt>
      <trkpt lat="46.84701" lon="8.44108">
        <ele>1963</ele>
        <time>2021-08-13T07:53:16.163Z</time>
      </trkpt>
      <trkpt lat="46.84701" lon="8.44106">
        <ele>1963</ele>
        <time>2021-08-13T07:53:17.164Z</time>
      </trkpt>
      <trkpt lat="46.84701" lon="8.44104">
        <ele>1963</ele>
        <time>2021-08-13T07:53:18.164Z</time>
      </trkpt>
      <trkpt lat="46.847" lon="8.44103">
        <ele>1962</ele>
        <time>2021-08-13T07:53:19.164Z</time>
      </trkpt>
      <trkpt lat="46.847" lon="8.44102">
        <ele>1962</ele>
        <time>2021-08-13T07:53:20.164Z</time>
      </trkpt>
      <trkpt lat="46.84699" lon="8.441">
        <ele>1963</ele>
        <time>2021-08-13T07:53:21.164Z</time>
      </trkpt>
      <trkpt lat="46.84698" lon="8.44099">
        <ele>1963</ele>
        <time>2021-08-13T07:53:22.164Z</time>
      </trkpt>
      <trkpt lat="46.84697" lon="8.44097">
        <ele>1962</ele>
        <time>2021-08-13T07:53:23.164Z</time>
      </trkpt>
      <trkpt lat="46.84697" lon="8.44096">
        <ele>1962</ele>
        <time>2021-08-13T07:53:24.164Z</time>
      </trkpt>
      <trkpt lat="46.84696" lon="8.44095">
        <ele>1962</ele>
        <time>2021-08-13T07:53:25.164Z</time>
      </trkpt>
      <trkpt lat="46.84695" lon="8.44094">
        <ele>1962</ele>
        <time>2021-08-13T07:53:26.164Z</time>
      </trkpt>
      <trkpt lat="46.84694" lon="8.44093">
        <ele>1963</ele>
        <time>2021-08-13T07:53:27.164Z</time>
      </trkpt>
      <trkpt lat="46.84693" lon="8.44092">
        <ele>1963</ele>
        <time>2021-08-13T07:53:28.164Z</time>
      </trkpt>
      <trkpt lat="46.84692" lon="8.44091">
        <ele>1963</ele>
        <time>2021-08-13T07:53:29.163Z</time>
      </trkpt>
      <trkpt lat="46.84692" lon="8.4409">
        <ele>1963</ele>
        <time>2021-08-13T07:53:30.164Z</time>
      </trkpt>
      <trkpt lat="46.84691" lon="8.44089">
        <ele>1963</ele>
        <time>2021-08-13T07:53:31.163Z</time>
      </trkpt>
      <trkpt lat="46.8469" lon="8.44088">
        <ele>1963</ele>
        <time>2021-08-13T07:53:32.164Z</time>
      </trkpt>
      <trkpt lat="46.84689" lon="8.44086">
        <ele>1963</ele>
        <time>2021-08-13T07:53:33.164Z</time>
      </trkpt>
      <trkpt lat="46.84689" lon="8.44085">
        <ele>1963</ele>
        <time>2021-08-13T07:53:34.164Z</time>
      </trkpt>
      <trkpt lat="46.84688" lon="8.44084">
        <ele>1963</ele>
        <time>2021-08-13T07:53:35.164Z</time>
      </trkpt>
      <trkpt lat="46.84687" lon="8.44083">
        <ele>1963</ele>
        <time>2021-08-13T07:53:36.164Z</time>
      </trkpt>
      <trkpt lat="46.84686" lon="8.44081">
        <ele>1962</ele>
        <time>2021-08-13T07:53:37.163Z</time>
      </trkpt>
      <trkpt lat="46.84685" lon="8.4408">
        <ele>1962</ele>
        <time>2021-08-13T07:53:38.164Z</time>
      </trkpt>
      <trkpt lat="46.84685" lon="8.44078">
        <ele>1961</ele>
        <time>2021-08-13T07:53:39.164Z</time>
      </trkpt>
      <trkpt lat="46.84684" lon="8.44077">
        <ele>1960</ele>
        <time>2021-08-13T07:53:40.163Z</time>
      </trkpt>
      <trkpt lat="46.84683" lon="8.44075">
        <ele>1959</ele>
        <time>2021-08-13T07:53:41.164Z</time>
      </trkpt>
      <trkpt lat="46.84683" lon="8.44074">
        <ele>1959</ele>
        <time>2021-08-13T07:53:42.164Z</time>
      </trkpt>
      <trkpt lat="46.84682" lon="8.44073">
        <ele>1958</ele>
        <time>2021-08-13T07:53:43.164Z</time>
      </trkpt>
      <trkpt lat="46.84682" lon="8.44072">
        <ele>1958</ele>
        <time>2021-08-13T07:53:44.163Z</time>
      </trkpt>
      <trkpt lat="46.84681" lon="8.4407">
        <ele>1958</ele>
        <time>2021-08-13T07:53:45.164Z</time>
      </trkpt>
      <trkpt lat="46.8468" lon="8.44069">
        <ele>1958</ele>
        <time>2021-08-13T07:53:46.164Z</time>
      </trkpt>
      <trkpt lat="46.84679" lon="8.44068">
        <ele>1958</ele>
        <time>2021-08-13T07:53:47.164Z</time>
      </trkpt>
      <trkpt lat="46.84679" lon="8.44065">
        <ele>1958</ele>
        <time>2021-08-13T07:53:48.163Z</time>
      </trkpt>
      <trkpt lat="46.84679" lon="8.44064">
        <ele>1958</ele>
        <time>2021-08-13T07:53:49.164Z</time>
      </trkpt>
      <trkpt lat="46.84679" lon="8.44063">
        <ele>1958</ele>
        <time>2021-08-13T07:53:50.164Z</time>
      </trkpt>
      <trkpt lat="46.84678" lon="8.44062">
        <ele>1958</ele>
        <time>2021-08-13T07:53:51.163Z</time>
      </trkpt>
      <trkpt lat="46.84678" lon="8.44061">
        <ele>1958</ele>
        <time>2021-08-13T07:53:52.164Z</time>
      </trkpt>
      <trkpt lat="46.84677" lon="8.4406">
        <ele>1958</ele>
        <time>2021-08-13T07:53:53.163Z</time>
      </trkpt>
      <trkpt lat="46.84676" lon="8.44059">
        <ele>1958</ele>
        <time>2021-08-13T07:53:54.164Z</time>
      </trkpt>
      <trkpt lat="46.84675" lon="8.44059">
        <ele>1958</ele>
        <time>2021-08-13T07:53:55.164Z</time>
      </trkpt>
      <trkpt lat="46.84675" lon="8.44057">
        <ele>1958</ele>
        <time>2021-08-13T07:53:56.163Z</time>
      </trkpt>
      <trkpt lat="46.84674" lon="8.44056">
        <ele>1957</ele>
        <time>2021-08-13T07:53:57.163Z</time>
      </trkpt>
      <trkpt lat="46.84673" lon="8.44054">
        <ele>1956</ele>
        <time>2021-08-13T07:53:58.164Z</time>
      </trkpt>
      <trkpt lat="46.84673" lon="8.44053">
        <ele>1956</ele>
        <time>2021-08-13T07:53:59.164Z</time>
      </trkpt>
      <trkpt lat="46.84673" lon="8.44052">
        <ele>1956</ele>
        <time>2021-08-13T07:54:00.164Z</time>
      </trkpt>
      <trkpt lat="46.84672" lon="8.44052">
        <ele>1955</ele>
        <time>2021-08-13T07:54:01.164Z</time>
      </trkpt>
      <trkpt lat="46.84671" lon="8.44052">
        <ele>1955</ele>
        <time>2021-08-13T07:54:02.164Z</time>
      </trkpt>
      <trkpt lat="46.8467" lon="8.44051">
        <ele>1955</ele>
        <time>2021-08-13T07:54:03.163Z</time>
      </trkpt>
      <trkpt lat="46.84669" lon="8.44051">
        <ele>1956</ele>
        <time>2021-08-13T07:54:04.163Z</time>
      </trkpt>
      <trkpt lat="46.84668" lon="8.4405">
        <ele>1956</ele>
        <time>2021-08-13T07:54:05.164Z</time>
      </trkpt>
      <trkpt lat="46.84667" lon="8.44049">
        <ele>1956</ele>
        <time>2021-08-13T07:54:06.164Z</time>
      </trkpt>
      <trkpt lat="46.84666" lon="8.44048">
        <ele>1956</ele>
        <time>2021-08-13T07:54:07.163Z</time>
      </trkpt>
      <trkpt lat="46.84665" lon="8.44048">
        <ele>1956</ele>
        <time>2021-08-13T07:54:08.164Z</time>
      </trkpt>
      <trkpt lat="46.84664" lon="8.44047">
        <ele>1955</ele>
        <time>2021-08-13T07:54:09.163Z</time>
      </trkpt>
      <trkpt lat="46.84663" lon="8.44046">
        <ele>1955</ele>
        <time>2021-08-13T07:54:10.163Z</time>
      </trkpt>
      <trkpt lat="46.84662" lon="8.44045">
        <ele>1954</ele>
        <time>2021-08-13T07:54:11.164Z</time>
      </trkpt>
      <trkpt lat="46.84661" lon="8.44044">
        <ele>1954</ele>
        <time>2021-08-13T07:54:12.164Z</time>
      </trkpt>
      <trkpt lat="46.8466" lon="8.44042">
        <ele>1954</ele>
        <time>2021-08-13T07:54:13.164Z</time>
      </trkpt>
      <trkpt lat="46.84659" lon="8.44041">
        <ele>1954</ele>
        <time>2021-08-13T07:54:14.163Z</time>
      </trkpt>
      <trkpt lat="46.84659" lon="8.4404">
        <ele>1954</ele>
        <time>2021-08-13T07:54:15.164Z</time>
      </trkpt>
      <trkpt lat="46.84658" lon="8.4404">
        <ele>1954</ele>
        <time>2021-08-13T07:54:16.163Z</time>
      </trkpt>
      <trkpt lat="46.84658" lon="8.44039">
        <ele>1953</ele>
        <time>2021-08-13T07:54:17.164Z</time>
      </trkpt>
      <trkpt lat="46.84657" lon="8.44038">
        <ele>1953</ele>
        <time>2021-08-13T07:54:18.164Z</time>
      </trkpt>
      <trkpt lat="46.84657" lon="8.44037">
        <ele>1953</ele>
        <time>2021-08-13T07:54:19.163Z</time>
      </trkpt>
      <trkpt lat="46.84656" lon="8.44036">
        <ele>1953</ele>
        <time>2021-08-13T07:54:20.164Z</time>
      </trkpt>
      <trkpt lat="46.84656" lon="8.44034">
        <ele>1953</ele>
        <time>2021-08-13T07:54:21.163Z</time>
      </trkpt>
      <trkpt lat="46.84655" lon="8.44032">
        <ele>1953</ele>
        <time>2021-08-13T07:54:22.164Z</time>
      </trkpt>
      <trkpt lat="46.84654" lon="8.44031">
        <ele>1953</ele>
        <time>2021-08-13T07:54:23.164Z</time>
      </trkpt>
      <trkpt lat="46.84653" lon="8.4403">
        <ele>1953</ele>
        <time>2021-08-13T07:54:24.163Z</time>
      </trkpt>
      <trkpt lat="46.84652" lon="8.44029">
        <ele>1954</ele>
        <time>2021-08-13T07:54:25.164Z</time>
      </trkpt>
      <trkpt lat="46.84651" lon="8.44029">
        <ele>1954</ele>
        <time>2021-08-13T07:54:26.163Z</time>
      </trkpt>
      <trkpt lat="46.84651" lon="8.44029">
        <ele>1954</ele>
        <time>2021-08-13T07:54:27.164Z</time>
      </trkpt>
      <trkpt lat="46.84651" lon="8.44029">
        <ele>1954</ele>
        <time>2021-08-13T07:54:28.164Z</time>
      </trkpt>
      <trkpt lat="46.8465" lon="8.44029">
        <ele>1955</ele>
        <time>2021-08-13T07:54:29.163Z</time>
      </trkpt>
      <trkpt lat="46.8465" lon="8.44029">
        <ele>1955</ele>
        <time>2021-08-13T07:54:30.164Z</time>
      </trkpt>
      <trkpt lat="46.84649" lon="8.44028">
        <ele>1955</ele>
        <time>2021-08-13T07:54:31.164Z</time>
      </trkpt>
      <trkpt lat="46.84649" lon="8.44027">
        <ele>1956</ele>
        <time>2021-08-13T07:54:32.164Z</time>
      </trkpt>
      <trkpt lat="46.84649" lon="8.44026">
        <ele>1956</ele>
        <time>2021-08-13T07:54:33.164Z</time>
      </trkpt>
      <trkpt lat="46.84648" lon="8.44025">
        <ele>1956</ele>
        <time>2021-08-13T07:54:34.164Z</time>
      </trkpt>
      <trkpt lat="46.84648" lon="8.44024">
        <ele>1957</ele>
        <time>2021-08-13T07:54:35.164Z</time>
      </trkpt>
      <trkpt lat="46.84647" lon="8.44023">
        <ele>1957</ele>
        <time>2021-08-13T07:54:36.164Z</time>
      </trkpt>
      <trkpt lat="46.84646" lon="8.44022">
        <ele>1956</ele>
        <time>2021-08-13T07:54:37.164Z</time>
      </trkpt>
      <trkpt lat="46.84645" lon="8.44021">
        <ele>1956</ele>
        <time>2021-08-13T07:54:38.163Z</time>
      </trkpt>
      <trkpt lat="46.84645" lon="8.4402">
        <ele>1956</ele>
        <time>2021-08-13T07:54:39.164Z</time>
      </trkpt>
      <trkpt lat="46.84645" lon="8.44019">
        <ele>1957</ele>
        <time>2021-08-13T07:54:40.163Z</time>
      </trkpt>
      <trkpt lat="46.84644" lon="8.44018">
        <ele>1957</ele>
        <time>2021-08-13T07:54:41.164Z</time>
      </trkpt>
      <trkpt lat="46.84644" lon="8.44017">
        <ele>1958</ele>
        <time>2021-08-13T07:54:42.164Z</time>
      </trkpt>
      <trkpt lat="46.84644" lon="8.44015">
        <ele>1958</ele>
        <time>2021-08-13T07:54:43.163Z</time>
      </trkpt>
      <trkpt lat="46.84644" lon="8.44013">
        <ele>1959</ele>
        <time>2021-08-13T07:54:44.163Z</time>
      </trkpt>
      <trkpt lat="46.84644" lon="8.44012">
        <ele>1960</ele>
        <time>2021-08-13T07:54:45.164Z</time>
      </trkpt>
      <trkpt lat="46.84645" lon="8.44011">
        <ele>1960</ele>
        <time>2021-08-13T07:54:46.164Z</time>
      </trkpt>
      <trkpt lat="46.84645" lon="8.4401">
        <ele>1961</ele>
        <time>2021-08-13T07:54:47.164Z</time>
      </trkpt>
      <trkpt lat="46.84646" lon="8.44009">
        <ele>1962</ele>
        <time>2021-08-13T07:54:48.164Z</time>
      </trkpt>
      <trkpt lat="46.84646" lon="8.44008">
        <ele>1963</ele>
        <time>2021-08-13T07:54:49.164Z</time>
      </trkpt>
      <trkpt lat="46.84647" lon="8.44007">
        <ele>1963</ele>
        <time>2021-08-13T07:54:50.164Z</time>
      </trkpt>
      <trkpt lat="46.84647" lon="8.44006">
        <ele>1962</ele>
        <time>2021-08-13T07:54:51.164Z</time>
      </trkpt>
      <trkpt lat="46.84647" lon="8.44006">
        <ele>1962</ele>
        <time>2021-08-13T07:54:52.163Z</time>
      </trkpt>
      <trkpt lat="46.84647" lon="8.44007">
        <ele>1961</ele>
        <time>2021-08-13T07:54:53.164Z</time>
      </trkpt>
      <trkpt lat="46.84646" lon="8.44007">
        <ele>1960</ele>
        <time>2021-08-13T07:54:54.164Z</time>
      </trkpt>
      <trkpt lat="46.84648" lon="8.44005">
        <ele>1958</ele>
        <time>2021-08-13T07:54:55.165Z</time>
      </trkpt>
      <trkpt lat="46.84648" lon="8.44003">
        <ele>1958</ele>
        <time>2021-08-13T07:54:56.164Z</time>
      </trkpt>
      <trkpt lat="46.84649" lon="8.44002">
        <ele>1957</ele>
        <time>2021-08-13T07:54:57.164Z</time>
      </trkpt>
      <trkpt lat="46.84649" lon="8.44">
        <ele>1957</ele>
        <time>2021-08-13T07:54:58.165Z</time>
      </trkpt>
      <trkpt lat="46.84649" lon="8.43999">
        <ele>1957</ele>
        <time>2021-08-13T07:54:59.164Z</time>
      </trkpt>
      <trkpt lat="46.8465" lon="8.43997">
        <ele>1958</ele>
        <time>2021-08-13T07:55:00.164Z</time>
      </trkpt>
      <trkpt lat="46.8465" lon="8.43995">
        <ele>1958</ele>
        <time>2021-08-13T07:55:01.164Z</time>
      </trkpt>
      <trkpt lat="46.8465" lon="8.43994">
        <ele>1958</ele>
        <time>2021-08-13T07:55:02.165Z</time>
      </trkpt>
      <trkpt lat="46.8465" lon="8.43992">
        <ele>1959</ele>
        <time>2021-08-13T07:55:03.165Z</time>
      </trkpt>
      <trkpt lat="46.8465" lon="8.4399">
        <ele>1959</ele>
        <time>2021-08-13T07:55:04.164Z</time>
      </trkpt>
      <trkpt lat="46.8465" lon="8.43989">
        <ele>1959</ele>
        <time>2021-08-13T07:55:05.165Z</time>
      </trkpt>
      <trkpt lat="46.8465" lon="8.43988">
        <ele>1958</ele>
        <time>2021-08-13T07:55:06.164Z</time>
      </trkpt>
      <trkpt lat="46.8465" lon="8.43986">
        <ele>1958</ele>
        <time>2021-08-13T07:55:07.165Z</time>
      </trkpt>
      <trkpt lat="46.8465" lon="8.43985">
        <ele>1958</ele>
        <time>2021-08-13T07:55:08.165Z</time>
      </trkpt>
      <trkpt lat="46.8465" lon="8.43983">
        <ele>1957</ele>
        <time>2021-08-13T07:55:09.165Z</time>
      </trkpt>
      <trkpt lat="46.8465" lon="8.43982">
        <ele>1957</ele>
        <time>2021-08-13T07:55:10.165Z</time>
      </trkpt>
      <trkpt lat="46.8465" lon="8.43981">
        <ele>1957</ele>
        <time>2021-08-13T07:55:11.165Z</time>
      </trkpt>
      <trkpt lat="46.8465" lon="8.43979">
        <ele>1957</ele>
        <time>2021-08-13T07:55:12.165Z</time>
      </trkpt>
      <trkpt lat="46.84651" lon="8.43977">
        <ele>1956</ele>
        <time>2021-08-13T07:55:13.165Z</time>
      </trkpt>
      <trkpt lat="46.84651" lon="8.43976">
        <ele>1956</ele>
        <time>2021-08-13T07:55:14.165Z</time>
      </trkpt>
      <trkpt lat="46.84651" lon="8.43975">
        <ele>1956</ele>
        <time>2021-08-13T07:55:15.165Z</time>
      </trkpt>
      <trkpt lat="46.84651" lon="8.43974">
        <ele>1955</ele>
        <time>2021-08-13T07:55:16.165Z</time>
      </trkpt>
      <trkpt lat="46.84651" lon="8.43972">
        <ele>1955</ele>
        <time>2021-08-13T07:55:17.164Z</time>
      </trkpt>
      <trkpt lat="46.84651" lon="8.4397">
        <ele>1955</ele>
        <time>2021-08-13T07:55:18.165Z</time>
      </trkpt>
      <trkpt lat="46.84651" lon="8.43969">
        <ele>1954</ele>
        <time>2021-08-13T07:55:19.165Z</time>
      </trkpt>
      <trkpt lat="46.84651" lon="8.43968">
        <ele>1954</ele>
        <time>2021-08-13T07:55:20.165Z</time>
      </trkpt>
      <trkpt lat="46.84651" lon="8.43966">
        <ele>1954</ele>
        <time>2021-08-13T07:55:21.164Z</time>
      </trkpt>
      <trkpt lat="46.84652" lon="8.43965">
        <ele>1954</ele>
        <time>2021-08-13T07:55:22.164Z</time>
      </trkpt>
      <trkpt lat="46.84652" lon="8.43964">
        <ele>1954</ele>
        <time>2021-08-13T07:55:23.165Z</time>
      </trkpt>
      <trkpt lat="46.84653" lon="8.43962">
        <ele>1954</ele>
        <time>2021-08-13T07:55:24.164Z</time>
      </trkpt>
      <trkpt lat="46.84653" lon="8.4396">
        <ele>1954</ele>
        <time>2021-08-13T07:55:25.164Z</time>
      </trkpt>
      <trkpt lat="46.84653" lon="8.43959">
        <ele>1953</ele>
        <time>2021-08-13T07:55:26.164Z</time>
      </trkpt>
      <trkpt lat="46.84652" lon="8.43957">
        <ele>1953</ele>
        <time>2021-08-13T07:55:27.164Z</time>
      </trkpt>
      <trkpt lat="46.84652" lon="8.43956">
        <ele>1953</ele>
        <time>2021-08-13T07:55:28.164Z</time>
      </trkpt>
      <trkpt lat="46.84652" lon="8.43954">
        <ele>1953</ele>
        <time>2021-08-13T07:55:29.165Z</time>
      </trkpt>
      <trkpt lat="46.84652" lon="8.43953">
        <ele>1953</ele>
        <time>2021-08-13T07:55:30.164Z</time>
      </trkpt>
      <trkpt lat="46.84652" lon="8.43951">
        <ele>1953</ele>
        <time>2021-08-13T07:55:31.165Z</time>
      </trkpt>
      <trkpt lat="46.84651" lon="8.4395">
        <ele>1952</ele>
        <time>2021-08-13T07:55:32.165Z</time>
      </trkpt>
      <trkpt lat="46.84651" lon="8.43948">
        <ele>1952</ele>
        <time>2021-08-13T07:55:33.165Z</time>
      </trkpt>
      <trkpt lat="46.8465" lon="8.43947">
        <ele>1952</ele>
        <time>2021-08-13T07:55:34.165Z</time>
      </trkpt>
      <trkpt lat="46.8465" lon="8.43946">
        <ele>1952</ele>
        <time>2021-08-13T07:55:35.165Z</time>
      </trkpt>
      <trkpt lat="46.8465" lon="8.43944">
        <ele>1952</ele>
        <time>2021-08-13T07:55:36.165Z</time>
      </trkpt>
      <trkpt lat="46.84649" lon="8.43943">
        <ele>1951</ele>
        <time>2021-08-13T07:55:37.164Z</time>
      </trkpt>
      <trkpt lat="46.84649" lon="8.43942">
        <ele>1951</ele>
        <time>2021-08-13T07:55:38.165Z</time>
      </trkpt>
      <trkpt lat="46.84649" lon="8.43941">
        <ele>1951</ele>
        <time>2021-08-13T07:55:39.165Z</time>
      </trkpt>
      <trkpt lat="46.84649" lon="8.43941">
        <ele>1951</ele>
        <time>2021-08-13T07:55:40.165Z</time>
      </trkpt>
      <trkpt lat="46.84648" lon="8.43939">
        <ele>1951</ele>
        <time>2021-08-13T07:55:41.165Z</time>
      </trkpt>
      <trkpt lat="46.84648" lon="8.43938">
        <ele>1951</ele>
        <time>2021-08-13T07:55:42.165Z</time>
      </trkpt>
      <trkpt lat="46.84647" lon="8.43937">
        <ele>1951</ele>
        <time>2021-08-13T07:55:43.165Z</time>
      </trkpt>
      <trkpt lat="46.84647" lon="8.43935">
        <ele>1951</ele>
        <time>2021-08-13T07:55:44.165Z</time>
      </trkpt>
      <trkpt lat="46.84647" lon="8.43934">
        <ele>1951</ele>
        <time>2021-08-13T07:55:45.165Z</time>
      </trkpt>
      <trkpt lat="46.84647" lon="8.43932">
        <ele>1950</ele>
        <time>2021-08-13T07:55:46.164Z</time>
      </trkpt>
      <trkpt lat="46.84647" lon="8.43931">
        <ele>1950</ele>
        <time>2021-08-13T07:55:47.164Z</time>
      </trkpt>
      <trkpt lat="46.84647" lon="8.43929">
        <ele>1950</ele>
        <time>2021-08-13T07:55:48.165Z</time>
      </trkpt>
      <trkpt lat="46.84647" lon="8.43928">
        <ele>1949</ele>
        <time>2021-08-13T07:55:49.165Z</time>
      </trkpt>
      <trkpt lat="46.84646" lon="8.43926">
        <ele>1948</ele>
        <time>2021-08-13T07:55:50.165Z</time>
      </trkpt>
      <trkpt lat="46.84646" lon="8.43924">
        <ele>1948</ele>
        <time>2021-08-13T07:55:51.165Z</time>
      </trkpt>
      <trkpt lat="46.84646" lon="8.43922">
        <ele>1947</ele>
        <time>2021-08-13T07:55:52.165Z</time>
      </trkpt>
      <trkpt lat="46.84647" lon="8.43921">
        <ele>1947</ele>
        <time>2021-08-13T07:55:53.164Z</time>
      </trkpt>
      <trkpt lat="46.84647" lon="8.43919">
        <ele>1947</ele>
        <time>2021-08-13T07:55:54.165Z</time>
      </trkpt>
      <trkpt lat="46.84648" lon="8.43917">
        <ele>1947</ele>
        <time>2021-08-13T07:55:55.165Z</time>
      </trkpt>
      <trkpt lat="46.84648" lon="8.43915">
        <ele>1946</ele>
        <time>2021-08-13T07:55:56.165Z</time>
      </trkpt>
      <trkpt lat="46.84649" lon="8.43914">
        <ele>1946</ele>
        <time>2021-08-13T07:55:57.165Z</time>
      </trkpt>
      <trkpt lat="46.84648" lon="8.43912">
        <ele>1946</ele>
        <time>2021-08-13T07:55:58.164Z</time>
      </trkpt>
      <trkpt lat="46.84648" lon="8.4391">
        <ele>1946</ele>
        <time>2021-08-13T07:55:59.164Z</time>
      </trkpt>
      <trkpt lat="46.84648" lon="8.43909">
        <ele>1946</ele>
        <time>2021-08-13T07:56:00.164Z</time>
      </trkpt>
      <trkpt lat="46.84649" lon="8.43907">
        <ele>1946</ele>
        <time>2021-08-13T07:56:01.165Z</time>
      </trkpt>
      <trkpt lat="46.84649" lon="8.43906">
        <ele>1946</ele>
        <time>2021-08-13T07:56:02.165Z</time>
      </trkpt>
      <trkpt lat="46.84649" lon="8.43905">
        <ele>1946</ele>
        <time>2021-08-13T07:56:03.165Z</time>
      </trkpt>
      <trkpt lat="46.84649" lon="8.43902">
        <ele>1946</ele>
        <time>2021-08-13T07:56:04.165Z</time>
      </trkpt>
      <trkpt lat="46.8465" lon="8.43901">
        <ele>1946</ele>
        <time>2021-08-13T07:56:05.165Z</time>
      </trkpt>
      <trkpt lat="46.8465" lon="8.43899">
        <ele>1946</ele>
        <time>2021-08-13T07:56:06.165Z</time>
      </trkpt>
      <trkpt lat="46.84651" lon="8.43898">
        <ele>1946</ele>
        <time>2021-08-13T07:56:07.165Z</time>
      </trkpt>
      <trkpt lat="46.84652" lon="8.43897">
        <ele>1946</ele>
        <time>2021-08-13T07:56:08.164Z</time>
      </trkpt>
      <trkpt lat="46.84652" lon="8.43896">
        <ele>1947</ele>
        <time>2021-08-13T07:56:09.164Z</time>
      </trkpt>
      <trkpt lat="46.84652" lon="8.43894">
        <ele>1947</ele>
        <time>2021-08-13T07:56:10.165Z</time>
      </trkpt>
      <trkpt lat="46.84652" lon="8.43893">
        <ele>1947</ele>
        <time>2021-08-13T07:56:11.165Z</time>
      </trkpt>
      <trkpt lat="46.84652" lon="8.43892">
        <ele>1947</ele>
        <time>2021-08-13T07:56:12.164Z</time>
      </trkpt>
      <trkpt lat="46.84652" lon="8.4389">
        <ele>1948</ele>
        <time>2021-08-13T07:56:13.165Z</time>
      </trkpt>
      <trkpt lat="46.84653" lon="8.43889">
        <ele>1948</ele>
        <time>2021-08-13T07:56:14.165Z</time>
      </trkpt>
      <trkpt lat="46.84654" lon="8.43887">
        <ele>1948</ele>
        <time>2021-08-13T07:56:15.164Z</time>
      </trkpt>
      <trkpt lat="46.84654" lon="8.43885">
        <ele>1949</ele>
        <time>2021-08-13T07:56:16.164Z</time>
      </trkpt>
      <trkpt lat="46.84655" lon="8.43884">
        <ele>1949</ele>
        <time>2021-08-13T07:56:17.164Z</time>
      </trkpt>
      <trkpt lat="46.84656" lon="8.43883">
        <ele>1950</ele>
        <time>2021-08-13T07:56:18.164Z</time>
      </trkpt>
      <trkpt lat="46.84657" lon="8.43883">
        <ele>1951</ele>
        <time>2021-08-13T07:56:19.164Z</time>
      </trkpt>
      <trkpt lat="46.84658" lon="8.43882">
        <ele>1952</ele>
        <time>2021-08-13T07:56:20.164Z</time>
      </trkpt>
      <trkpt lat="46.84659" lon="8.43881">
        <ele>1952</ele>
        <time>2021-08-13T07:56:21.165Z</time>
      </trkpt>
      <trkpt lat="46.8466" lon="8.4388">
        <ele>1953</ele>
        <time>2021-08-13T07:56:22.165Z</time>
      </trkpt>
      <trkpt lat="46.8466" lon="8.43879">
        <ele>1953</ele>
        <time>2021-08-13T07:56:23.164Z</time>
      </trkpt>
      <trkpt lat="46.84661" lon="8.43879">
        <ele>1953</ele>
        <time>2021-08-13T07:56:24.164Z</time>
      </trkpt>
      <trkpt lat="46.84661" lon="8.43878">
        <ele>1953</ele>
        <time>2021-08-13T07:56:25.164Z</time>
      </trkpt>
      <trkpt lat="46.84661" lon="8.43877">
        <ele>1954</ele>
        <time>2021-08-13T07:56:26.165Z</time>
      </trkpt>
      <trkpt lat="46.84662" lon="8.43877">
        <ele>1954</ele>
        <time>2021-08-13T07:56:27.165Z</time>
      </trkpt>
      <trkpt lat="46.84662" lon="8.43876">
        <ele>1954</ele>
        <time>2021-08-13T07:56:28.164Z</time>
      </trkpt>
      <trkpt lat="46.84662" lon="8.43875">
        <ele>1954</ele>
        <time>2021-08-13T07:56:29.165Z</time>
      </trkpt>
      <trkpt lat="46.84662" lon="8.43874">
        <ele>1955</ele>
        <time>2021-08-13T07:56:30.165Z</time>
      </trkpt>
      <trkpt lat="46.84663" lon="8.43873">
        <ele>1955</ele>
        <time>2021-08-13T07:56:31.164Z</time>
      </trkpt>
      <trkpt lat="46.84663" lon="8.43871">
        <ele>1954</ele>
        <time>2021-08-13T07:56:32.165Z</time>
      </trkpt>
      <trkpt lat="46.84664" lon="8.4387">
        <ele>1954</ele>
        <time>2021-08-13T07:56:33.165Z</time>
      </trkpt>
      <trkpt lat="46.84664" lon="8.43868">
        <ele>1954</ele>
        <time>2021-08-13T07:56:34.165Z</time>
      </trkpt>
      <trkpt lat="46.84664" lon="8.43867">
        <ele>1954</ele>
        <time>2021-08-13T07:56:35.165Z</time>
      </trkpt>
      <trkpt lat="46.84664" lon="8.43866">
        <ele>1954</ele>
        <time>2021-08-13T07:56:36.165Z</time>
      </trkpt>
      <trkpt lat="46.84664" lon="8.43864">
        <ele>1955</ele>
        <time>2021-08-13T07:56:37.165Z</time>
      </trkpt>
      <trkpt lat="46.84664" lon="8.43862">
        <ele>1955</ele>
        <time>2021-08-13T07:56:38.165Z</time>
      </trkpt>
      <trkpt lat="46.84664" lon="8.4386">
        <ele>1955</ele>
        <time>2021-08-13T07:56:39.164Z</time>
      </trkpt>
      <trkpt lat="46.84663" lon="8.43859">
        <ele>1955</ele>
        <time>2021-08-13T07:56:40.165Z</time>
      </trkpt>
      <trkpt lat="46.84663" lon="8.43857">
        <ele>1955</ele>
        <time>2021-08-13T07:56:41.165Z</time>
      </trkpt>
      <trkpt lat="46.84663" lon="8.43856">
        <ele>1954</ele>
        <time>2021-08-13T07:56:42.164Z</time>
      </trkpt>
      <trkpt lat="46.84662" lon="8.43854">
        <ele>1954</ele>
        <time>2021-08-13T07:56:43.165Z</time>
      </trkpt>
      <trkpt lat="46.84663" lon="8.43853">
        <ele>1954</ele>
        <time>2021-08-13T07:56:44.165Z</time>
      </trkpt>
      <trkpt lat="46.84663" lon="8.43851">
        <ele>1953</ele>
        <time>2021-08-13T07:56:45.165Z</time>
      </trkpt>
      <trkpt lat="46.84662" lon="8.4385">
        <ele>1953</ele>
        <time>2021-08-13T07:56:46.165Z</time>
      </trkpt>
      <trkpt lat="46.84662" lon="8.43849">
        <ele>1953</ele>
        <time>2021-08-13T07:56:47.165Z</time>
      </trkpt>
      <trkpt lat="46.84662" lon="8.43848">
        <ele>1953</ele>
        <time>2021-08-13T07:56:48.165Z</time>
      </trkpt>
      <trkpt lat="46.84663" lon="8.43846">
        <ele>1952</ele>
        <time>2021-08-13T07:56:49.165Z</time>
      </trkpt>
      <trkpt lat="46.84663" lon="8.43844">
        <ele>1952</ele>
        <time>2021-08-13T07:56:50.165Z</time>
      </trkpt>
      <trkpt lat="46.84663" lon="8.43843">
        <ele>1951</ele>
        <time>2021-08-13T07:56:51.165Z</time>
      </trkpt>
      <trkpt lat="46.84663" lon="8.43842">
        <ele>1951</ele>
        <time>2021-08-13T07:56:52.165Z</time>
      </trkpt>
      <trkpt lat="46.84664" lon="8.43841">
        <ele>1951</ele>
        <time>2021-08-13T07:56:53.165Z</time>
      </trkpt>
      <trkpt lat="46.84664" lon="8.43839">
        <ele>1950</ele>
        <time>2021-08-13T07:56:54.165Z</time>
      </trkpt>
      <trkpt lat="46.84663" lon="8.43838">
        <ele>1950</ele>
        <time>2021-08-13T07:56:55.165Z</time>
      </trkpt>
      <trkpt lat="46.84663" lon="8.43836">
        <ele>1950</ele>
        <time>2021-08-13T07:56:56.164Z</time>
      </trkpt>
      <trkpt lat="46.84663" lon="8.43835">
        <ele>1949</ele>
        <time>2021-08-13T07:56:57.165Z</time>
      </trkpt>
      <trkpt lat="46.84663" lon="8.43834">
        <ele>1949</ele>
        <time>2021-08-13T07:56:58.165Z</time>
      </trkpt>
      <trkpt lat="46.84664" lon="8.43832">
        <ele>1949</ele>
        <time>2021-08-13T07:56:59.165Z</time>
      </trkpt>
      <trkpt lat="46.84664" lon="8.43831">
        <ele>1948</ele>
        <time>2021-08-13T07:57:00.165Z</time>
      </trkpt>
      <trkpt lat="46.84664" lon="8.4383">
        <ele>1948</ele>
        <time>2021-08-13T07:57:01.165Z</time>
      </trkpt>
      <trkpt lat="46.84664" lon="8.43829">
        <ele>1947</ele>
        <time>2021-08-13T07:57:02.164Z</time>
      </trkpt>
      <trkpt lat="46.84663" lon="8.43828">
        <ele>1947</ele>
        <time>2021-08-13T07:57:03.165Z</time>
      </trkpt>
      <trkpt lat="46.84663" lon="8.43827">
        <ele>1947</ele>
        <time>2021-08-13T07:57:04.164Z</time>
      </trkpt>
      <trkpt lat="46.84663" lon="8.43826">
        <ele>1948</ele>
        <time>2021-08-13T07:57:05.164Z</time>
      </trkpt>
      <trkpt lat="46.84662" lon="8.43824">
        <ele>1947</ele>
        <time>2021-08-13T07:57:06.165Z</time>
      </trkpt>
      <trkpt lat="46.84662" lon="8.43822">
        <ele>1947</ele>
        <time>2021-08-13T07:57:07.165Z</time>
      </trkpt>
      <trkpt lat="46.84662" lon="8.43821">
        <ele>1947</ele>
        <time>2021-08-13T07:57:08.164Z</time>
      </trkpt>
      <trkpt lat="46.84662" lon="8.4382">
        <ele>1946</ele>
        <time>2021-08-13T07:57:09.165Z</time>
      </trkpt>
      <trkpt lat="46.84661" lon="8.43818">
        <ele>1945</ele>
        <time>2021-08-13T07:57:10.165Z</time>
      </trkpt>
      <trkpt lat="46.8466" lon="8.43817">
        <ele>1945</ele>
        <time>2021-08-13T07:57:11.165Z</time>
      </trkpt>
      <trkpt lat="46.8466" lon="8.43816">
        <ele>1945</ele>
        <time>2021-08-13T07:57:12.164Z</time>
      </trkpt>
      <trkpt lat="46.8466" lon="8.43815">
        <ele>1945</ele>
        <time>2021-08-13T07:57:13.165Z</time>
      </trkpt>
      <trkpt lat="46.8466" lon="8.43814">
        <ele>1945</ele>
        <time>2021-08-13T07:57:14.165Z</time>
      </trkpt>
      <trkpt lat="46.84659" lon="8.43813">
        <ele>1945</ele>
        <time>2021-08-13T07:57:15.165Z</time>
      </trkpt>
      <trkpt lat="46.84659" lon="8.43812">
        <ele>1945</ele>
        <time>2021-08-13T07:57:16.165Z</time>
      </trkpt>
      <trkpt lat="46.84658" lon="8.4381">
        <ele>1945</ele>
        <time>2021-08-13T07:57:17.165Z</time>
      </trkpt>
      <trkpt lat="46.84658" lon="8.43809">
        <ele>1944</ele>
        <time>2021-08-13T07:57:18.165Z</time>
      </trkpt>
      <trkpt lat="46.84657" lon="8.43808">
        <ele>1944</ele>
        <time>2021-08-13T07:57:19.165Z</time>
      </trkpt>
      <trkpt lat="46.84656" lon="8.43807">
        <ele>1944</ele>
        <time>2021-08-13T07:57:20.164Z</time>
      </trkpt>
      <trkpt lat="46.84655" lon="8.43807">
        <ele>1944</ele>
        <time>2021-08-13T07:57:21.165Z</time>
      </trkpt>
      <trkpt lat="46.84655" lon="8.43807">
        <ele>1943</ele>
        <time>2021-08-13T07:57:22.164Z</time>
      </trkpt>
      <trkpt lat="46.84655" lon="8.43806">
        <ele>1943</ele>
        <time>2021-08-13T07:57:23.165Z</time>
      </trkpt>
      <trkpt lat="46.84655" lon="8.43805">
        <ele>1942</ele>
        <time>2021-08-13T07:57:24.165Z</time>
      </trkpt>
      <trkpt lat="46.84654" lon="8.43804">
        <ele>1942</ele>
        <time>2021-08-13T07:57:25.165Z</time>
      </trkpt>
      <trkpt lat="46.84654" lon="8.43803">
        <ele>1942</ele>
        <time>2021-08-13T07:57:26.165Z</time>
      </trkpt>
      <trkpt lat="46.84654" lon="8.43803">
        <ele>1942</ele>
        <time>2021-08-13T07:57:27.165Z</time>
      </trkpt>
      <trkpt lat="46.84653" lon="8.43802">
        <ele>1942</ele>
        <time>2021-08-13T07:57:28.165Z</time>
      </trkpt>
      <trkpt lat="46.84653" lon="8.43802">
        <ele>1942</ele>
        <time>2021-08-13T07:57:29.165Z</time>
      </trkpt>
      <trkpt lat="46.84652" lon="8.43801">
        <ele>1942</ele>
        <time>2021-08-13T07:57:30.164Z</time>
      </trkpt>
      <trkpt lat="46.84651" lon="8.43801">
        <ele>1942</ele>
        <time>2021-08-13T07:57:31.165Z</time>
      </trkpt>
      <trkpt lat="46.84651" lon="8.438">
        <ele>1942</ele>
        <time>2021-08-13T07:57:32.165Z</time>
      </trkpt>
      <trkpt lat="46.8465" lon="8.43798">
        <ele>1943</ele>
        <time>2021-08-13T07:57:33.165Z</time>
      </trkpt>
      <trkpt lat="46.8465" lon="8.43796">
        <ele>1943</ele>
        <time>2021-08-13T07:57:34.164Z</time>
      </trkpt>
      <trkpt lat="46.8465" lon="8.43795">
        <ele>1943</ele>
        <time>2021-08-13T07:57:35.165Z</time>
      </trkpt>
      <trkpt lat="46.84649" lon="8.43793">
        <ele>1943</ele>
        <time>2021-08-13T07:57:36.165Z</time>
      </trkpt>
      <trkpt lat="46.84649" lon="8.43792">
        <ele>1943</ele>
        <time>2021-08-13T07:57:37.164Z</time>
      </trkpt>
      <trkpt lat="46.8465" lon="8.4379">
        <ele>1943</ele>
        <time>2021-08-13T07:57:38.165Z</time>
      </trkpt>
      <trkpt lat="46.8465" lon="8.43787">
        <ele>1943</ele>
        <time>2021-08-13T07:57:39.165Z</time>
      </trkpt>
      <trkpt lat="46.84651" lon="8.43785">
        <ele>1943</ele>
        <time>2021-08-13T07:57:40.165Z</time>
      </trkpt>
      <trkpt lat="46.84651" lon="8.43783">
        <ele>1943</ele>
        <time>2021-08-13T07:57:41.165Z</time>
      </trkpt>
      <trkpt lat="46.8465" lon="8.43782">
        <ele>1943</ele>
        <time>2021-08-13T07:57:42.165Z</time>
      </trkpt>
      <trkpt lat="46.8465" lon="8.4378">
        <ele>1943</ele>
        <time>2021-08-13T07:57:43.165Z</time>
      </trkpt>
      <trkpt lat="46.8465" lon="8.43779">
        <ele>1943</ele>
        <time>2021-08-13T07:57:44.165Z</time>
      </trkpt>
      <trkpt lat="46.8465" lon="8.43778">
        <ele>1943</ele>
        <time>2021-08-13T07:57:45.165Z</time>
      </trkpt>
      <trkpt lat="46.84649" lon="8.43777">
        <ele>1943</ele>
        <time>2021-08-13T07:57:46.164Z</time>
      </trkpt>
      <trkpt lat="46.84649" lon="8.43776">
        <ele>1942</ele>
        <time>2021-08-13T07:57:47.165Z</time>
      </trkpt>
      <trkpt lat="46.84648" lon="8.43775">
        <ele>1942</ele>
        <time>2021-08-13T07:57:48.165Z</time>
      </trkpt>
      <trkpt lat="46.84648" lon="8.43774">
        <ele>1941</ele>
        <time>2021-08-13T07:57:49.164Z</time>
      </trkpt>
      <trkpt lat="46.84648" lon="8.43772">
        <ele>1941</ele>
        <time>2021-08-13T07:57:50.165Z</time>
      </trkpt>
      <trkpt lat="46.84647" lon="8.43771">
        <ele>1941</ele>
        <time>2021-08-13T07:57:51.165Z</time>
      </trkpt>
      <trkpt lat="46.84647" lon="8.4377">
        <ele>1940</ele>
        <time>2021-08-13T07:57:52.165Z</time>
      </trkpt>
      <trkpt lat="46.84647" lon="8.43769">
        <ele>1940</ele>
        <time>2021-08-13T07:57:53.165Z</time>
      </trkpt>
      <trkpt lat="46.84647" lon="8.43769">
        <ele>1940</ele>
        <time>2021-08-13T07:57:54.165Z</time>
      </trkpt>
      <trkpt lat="46.84647" lon="8.43769">
        <ele>1940</ele>
        <time>2021-08-13T07:57:55.165Z</time>
      </trkpt>
      <trkpt lat="46.84646" lon="8.43769">
        <ele>1941</ele>
        <time>2021-08-13T07:57:56.165Z</time>
      </trkpt>
      <trkpt lat="46.84646" lon="8.43768">
        <ele>1941</ele>
        <time>2021-08-13T07:57:57.165Z</time>
      </trkpt>
      <trkpt lat="46.84646" lon="8.43767">
        <ele>1941</ele>
        <time>2021-08-13T07:57:58.165Z</time>
      </trkpt>
      <trkpt lat="46.84646" lon="8.43765">
        <ele>1942</ele>
        <time>2021-08-13T07:57:59.165Z</time>
      </trkpt>
      <trkpt lat="46.84646" lon="8.43763">
        <ele>1942</ele>
        <time>2021-08-13T07:58:00.164Z</time>
      </trkpt>
      <trkpt lat="46.84645" lon="8.43762">
        <ele>1942</ele>
        <time>2021-08-13T07:58:01.164Z</time>
      </trkpt>
      <trkpt lat="46.84644" lon="8.43759">
        <ele>1942</ele>
        <time>2021-08-13T07:58:02.165Z</time>
      </trkpt>
      <trkpt lat="46.84643" lon="8.43758">
        <ele>1942</ele>
        <time>2021-08-13T07:58:03.164Z</time>
      </trkpt>
      <trkpt lat="46.84643" lon="8.43756">
        <ele>1942</ele>
        <time>2021-08-13T07:58:04.164Z</time>
      </trkpt>
      <trkpt lat="46.84642" lon="8.43755">
        <ele>1942</ele>
        <time>2021-08-13T07:58:05.164Z</time>
      </trkpt>
      <trkpt lat="46.84642" lon="8.43754">
        <ele>1942</ele>
        <time>2021-08-13T07:58:06.164Z</time>
      </trkpt>
      <trkpt lat="46.84641" lon="8.43753">
        <ele>1941</ele>
        <time>2021-08-13T07:58:07.164Z</time>
      </trkpt>
      <trkpt lat="46.8464" lon="8.43752">
        <ele>1941</ele>
        <time>2021-08-13T07:58:08.164Z</time>
      </trkpt>
      <trkpt lat="46.84639" lon="8.43751">
        <ele>1941</ele>
        <time>2021-08-13T07:58:09.165Z</time>
      </trkpt>
      <trkpt lat="46.84637" lon="8.4375">
        <ele>1940</ele>
        <time>2021-08-13T07:58:10.164Z</time>
      </trkpt>
      <trkpt lat="46.84636" lon="8.43748">
        <ele>1940</ele>
        <time>2021-08-13T07:58:11.164Z</time>
      </trkpt>
      <trkpt lat="46.84635" lon="8.43746">
        <ele>1939</ele>
        <time>2021-08-13T07:58:12.164Z</time>
      </trkpt>
      <trkpt lat="46.84634" lon="8.43745">
        <ele>1939</ele>
        <time>2021-08-13T07:58:13.164Z</time>
      </trkpt>
      <trkpt lat="46.84633" lon="8.43744">
        <ele>1939</ele>
        <time>2021-08-13T07:58:14.164Z</time>
      </trkpt>
      <trkpt lat="46.84632" lon="8.43743">
        <ele>1939</ele>
        <time>2021-08-13T07:58:15.164Z</time>
      </trkpt>
      <trkpt lat="46.84631" lon="8.43742">
        <ele>1939</ele>
        <time>2021-08-13T07:58:16.164Z</time>
      </trkpt>
      <trkpt lat="46.8463" lon="8.43741">
        <ele>1939</ele>
        <time>2021-08-13T07:58:17.164Z</time>
      </trkpt>
      <trkpt lat="46.84629" lon="8.43741">
        <ele>1940</ele>
        <time>2021-08-13T07:58:18.164Z</time>
      </trkpt>
      <trkpt lat="46.84629" lon="8.4374">
        <ele>1940</ele>
        <time>2021-08-13T07:58:19.164Z</time>
      </trkpt>
      <trkpt lat="46.84629" lon="8.43739">
        <ele>1940</ele>
        <time>2021-08-13T07:58:20.164Z</time>
      </trkpt>
      <trkpt lat="46.84628" lon="8.43737">
        <ele>1940</ele>
        <time>2021-08-13T07:58:21.164Z</time>
      </trkpt>
      <trkpt lat="46.84628" lon="8.43736">
        <ele>1941</ele>
        <time>2021-08-13T07:58:22.165Z</time>
      </trkpt>
      <trkpt lat="46.84628" lon="8.43735">
        <ele>1941</ele>
        <time>2021-08-13T07:58:23.164Z</time>
      </trkpt>
      <trkpt lat="46.84627" lon="8.43735">
        <ele>1941</ele>
        <time>2021-08-13T07:58:24.164Z</time>
      </trkpt>
      <trkpt lat="46.84627" lon="8.43734">
        <ele>1941</ele>
        <time>2021-08-13T07:58:25.164Z</time>
      </trkpt>
      <trkpt lat="46.84626" lon="8.43733">
        <ele>1941</ele>
        <time>2021-08-13T07:58:26.164Z</time>
      </trkpt>
      <trkpt lat="46.84626" lon="8.43732">
        <ele>1942</ele>
        <time>2021-08-13T07:58:27.165Z</time>
      </trkpt>
      <trkpt lat="46.84626" lon="8.43731">
        <ele>1942</ele>
        <time>2021-08-13T07:58:28.165Z</time>
      </trkpt>
      <trkpt lat="46.84626" lon="8.43729">
        <ele>1943</ele>
        <time>2021-08-13T07:58:29.165Z</time>
      </trkpt>
      <trkpt lat="46.84626" lon="8.43728">
        <ele>1943</ele>
        <time>2021-08-13T07:58:30.165Z</time>
      </trkpt>
      <trkpt lat="46.84626" lon="8.43727">
        <ele>1944</ele>
        <time>2021-08-13T07:58:31.165Z</time>
      </trkpt>
      <trkpt lat="46.84626" lon="8.43725">
        <ele>1944</ele>
        <time>2021-08-13T07:58:32.165Z</time>
      </trkpt>
      <trkpt lat="46.84626" lon="8.43723">
        <ele>1944</ele>
        <time>2021-08-13T07:58:33.165Z</time>
      </trkpt>
      <trkpt lat="46.84626" lon="8.43722">
        <ele>1945</ele>
        <time>2021-08-13T07:58:34.164Z</time>
      </trkpt>
      <trkpt lat="46.84627" lon="8.4372">
        <ele>1945</ele>
        <time>2021-08-13T07:58:35.165Z</time>
      </trkpt>
      <trkpt lat="46.84627" lon="8.43719">
        <ele>1945</ele>
        <time>2021-08-13T07:58:36.165Z</time>
      </trkpt>
      <trkpt lat="46.84627" lon="8.43718">
        <ele>1946</ele>
        <time>2021-08-13T07:58:37.164Z</time>
      </trkpt>
      <trkpt lat="46.84627" lon="8.43716">
        <ele>1946</ele>
        <time>2021-08-13T07:58:38.164Z</time>
      </trkpt>
      <trkpt lat="46.84627" lon="8.43714">
        <ele>1946</ele>
        <time>2021-08-13T07:58:39.165Z</time>
      </trkpt>
      <trkpt lat="46.84627" lon="8.43712">
        <ele>1945</ele>
        <time>2021-08-13T07:58:40.164Z</time>
      </trkpt>
      <trkpt lat="46.84626" lon="8.43712">
        <ele>1945</ele>
        <time>2021-08-13T07:58:41.164Z</time>
      </trkpt>
      <trkpt lat="46.84626" lon="8.43711">
        <ele>1945</ele>
        <time>2021-08-13T07:58:42.165Z</time>
      </trkpt>
      <trkpt lat="46.84626" lon="8.43711">
        <ele>1946</ele>
        <time>2021-08-13T07:58:43.164Z</time>
      </trkpt>
      <trkpt lat="46.84627" lon="8.43709">
        <ele>1946</ele>
        <time>2021-08-13T07:58:44.165Z</time>
      </trkpt>
      <trkpt lat="46.84627" lon="8.43708">
        <ele>1946</ele>
        <time>2021-08-13T07:58:45.165Z</time>
      </trkpt>
      <trkpt lat="46.84627" lon="8.43706">
        <ele>1947</ele>
        <time>2021-08-13T07:58:46.164Z</time>
      </trkpt>
      <trkpt lat="46.84627" lon="8.43704">
        <ele>1947</ele>
        <time>2021-08-13T07:58:47.165Z</time>
      </trkpt>
      <trkpt lat="46.84627" lon="8.43702">
        <ele>1947</ele>
        <time>2021-08-13T07:58:48.164Z</time>
      </trkpt>
      <trkpt lat="46.84626" lon="8.43701">
        <ele>1947</ele>
        <time>2021-08-13T07:58:49.164Z</time>
      </trkpt>
      <trkpt lat="46.84626" lon="8.43699">
        <ele>1947</ele>
        <time>2021-08-13T07:58:50.165Z</time>
      </trkpt>
      <trkpt lat="46.84626" lon="8.43698">
        <ele>1947</ele>
        <time>2021-08-13T07:58:51.165Z</time>
      </trkpt>
      <trkpt lat="46.84626" lon="8.43697">
        <ele>1947</ele>
        <time>2021-08-13T07:58:52.165Z</time>
      </trkpt>
      <trkpt lat="46.84625" lon="8.43696">
        <ele>1946</ele>
        <time>2021-08-13T07:58:53.164Z</time>
      </trkpt>
      <trkpt lat="46.84624" lon="8.43695">
        <ele>1946</ele>
        <time>2021-08-13T07:58:54.165Z</time>
      </trkpt>
      <trkpt lat="46.84623" lon="8.43694">
        <ele>1945</ele>
        <time>2021-08-13T07:58:55.165Z</time>
      </trkpt>
      <trkpt lat="46.84623" lon="8.43692">
        <ele>1945</ele>
        <time>2021-08-13T07:58:56.164Z</time>
      </trkpt>
      <trkpt lat="46.84622" lon="8.4369">
        <ele>1945</ele>
        <time>2021-08-13T07:58:57.164Z</time>
      </trkpt>
      <trkpt lat="46.84621" lon="8.43688">
        <ele>1945</ele>
        <time>2021-08-13T07:58:58.165Z</time>
      </trkpt>
      <trkpt lat="46.8462" lon="8.43686">
        <ele>1944</ele>
        <time>2021-08-13T07:58:59.164Z</time>
      </trkpt>
      <trkpt lat="46.8462" lon="8.43685">
        <ele>1944</ele>
        <time>2021-08-13T07:59:00.165Z</time>
      </trkpt>
      <trkpt lat="46.8462" lon="8.43683">
        <ele>1943</ele>
        <time>2021-08-13T07:59:01.165Z</time>
      </trkpt>
      <trkpt lat="46.84619" lon="8.43682">
        <ele>1943</ele>
        <time>2021-08-13T07:59:02.165Z</time>
      </trkpt>
      <trkpt lat="46.84619" lon="8.43681">
        <ele>1942</ele>
        <time>2021-08-13T07:59:03.165Z</time>
      </trkpt>
      <trkpt lat="46.84618" lon="8.43679">
        <ele>1942</ele>
        <time>2021-08-13T07:59:04.165Z</time>
      </trkpt>
      <trkpt lat="46.84617" lon="8.43678">
        <ele>1941</ele>
        <time>2021-08-13T07:59:05.165Z</time>
      </trkpt>
      <trkpt lat="46.84616" lon="8.43677">
        <ele>1941</ele>
        <time>2021-08-13T07:59:06.165Z</time>
      </trkpt>
      <trkpt lat="46.84615" lon="8.43676">
        <ele>1940</ele>
        <time>2021-08-13T07:59:07.165Z</time>
      </trkpt>
      <trkpt lat="46.84614" lon="8.43676">
        <ele>1940</ele>
        <time>2021-08-13T07:59:08.165Z</time>
      </trkpt>
      <trkpt lat="46.84614" lon="8.43675">
        <ele>1939</ele>
        <time>2021-08-13T07:59:09.164Z</time>
      </trkpt>
      <trkpt lat="46.84614" lon="8.43674">
        <ele>1939</ele>
        <time>2021-08-13T07:59:10.165Z</time>
      </trkpt>
      <trkpt lat="46.84613" lon="8.43674">
        <ele>1939</ele>
        <time>2021-08-13T07:59:11.165Z</time>
      </trkpt>
      <trkpt lat="46.84613" lon="8.43674">
        <ele>1938</ele>
        <time>2021-08-13T07:59:12.164Z</time>
      </trkpt>
      <trkpt lat="46.84612" lon="8.43673">
        <ele>1938</ele>
        <time>2021-08-13T07:59:13.164Z</time>
      </trkpt>
      <trkpt lat="46.84612" lon="8.43671">
        <ele>1938</ele>
        <time>2021-08-13T07:59:14.164Z</time>
      </trkpt>
      <trkpt lat="46.8461" lon="8.4367">
        <ele>1938</ele>
        <time>2021-08-13T07:59:15.165Z</time>
      </trkpt>
      <trkpt lat="46.84609" lon="8.43668">
        <ele>1937</ele>
        <time>2021-08-13T07:59:16.165Z</time>
      </trkpt>
      <trkpt lat="46.84608" lon="8.43667">
        <ele>1937</ele>
        <time>2021-08-13T07:59:17.164Z</time>
      </trkpt>
      <trkpt lat="46.84607" lon="8.43666">
        <ele>1937</ele>
        <time>2021-08-13T07:59:18.164Z</time>
      </trkpt>
      <trkpt lat="46.84605" lon="8.43664">
        <ele>1936</ele>
        <time>2021-08-13T07:59:19.165Z</time>
      </trkpt>
      <trkpt lat="46.84605" lon="8.43664">
        <ele>1936</ele>
        <time>2021-08-13T07:59:20.164Z</time>
      </trkpt>
      <trkpt lat="46.84604" lon="8.43663">
        <ele>1936</ele>
        <time>2021-08-13T07:59:21.165Z</time>
      </trkpt>
      <trkpt lat="46.84603" lon="8.43663">
        <ele>1935</ele>
        <time>2021-08-13T07:59:22.164Z</time>
      </trkpt>
      <trkpt lat="46.84602" lon="8.43662">
        <ele>1935</ele>
        <time>2021-08-13T07:59:23.165Z</time>
      </trkpt>
      <trkpt lat="46.84601" lon="8.43661">
        <ele>1935</ele>
        <time>2021-08-13T07:59:24.164Z</time>
      </trkpt>
      <trkpt lat="46.84599" lon="8.43661">
        <ele>1935</ele>
        <time>2021-08-13T07:59:25.165Z</time>
      </trkpt>
      <trkpt lat="46.84599" lon="8.4366">
        <ele>1935</ele>
        <time>2021-08-13T07:59:26.165Z</time>
      </trkpt>
      <trkpt lat="46.84598" lon="8.4366">
        <ele>1935</ele>
        <time>2021-08-13T07:59:27.165Z</time>
      </trkpt>
      <trkpt lat="46.84597" lon="8.43659">
        <ele>1935</ele>
        <time>2021-08-13T07:59:28.165Z</time>
      </trkpt>
      <trkpt lat="46.84596" lon="8.43659">
        <ele>1935</ele>
        <time>2021-08-13T07:59:29.165Z</time>
      </trkpt>
      <trkpt lat="46.84595" lon="8.43658">
        <ele>1935</ele>
        <time>2021-08-13T07:59:30.164Z</time>
      </trkpt>
      <trkpt lat="46.84594" lon="8.43658">
        <ele>1934</ele>
        <time>2021-08-13T07:59:31.164Z</time>
      </trkpt>
      <trkpt lat="46.84593" lon="8.43658">
        <ele>1934</ele>
        <time>2021-08-13T07:59:32.165Z</time>
      </trkpt>
      <trkpt lat="46.84593" lon="8.43658">
        <ele>1934</ele>
        <time>2021-08-13T07:59:33.164Z</time>
      </trkpt>
      <trkpt lat="46.84592" lon="8.43657">
        <ele>1934</ele>
        <time>2021-08-13T07:59:34.165Z</time>
      </trkpt>
      <trkpt lat="46.84591" lon="8.43656">
        <ele>1933</ele>
        <time>2021-08-13T07:59:35.165Z</time>
      </trkpt>
      <trkpt lat="46.84591" lon="8.43655">
        <ele>1933</ele>
        <time>2021-08-13T07:59:36.165Z</time>
      </trkpt>
      <trkpt lat="46.8459" lon="8.43654">
        <ele>1933</ele>
        <time>2021-08-13T07:59:37.165Z</time>
      </trkpt>
      <trkpt lat="46.8459" lon="8.43653">
        <ele>1933</ele>
        <time>2021-08-13T07:59:38.165Z</time>
      </trkpt>
      <trkpt lat="46.84589" lon="8.43652">
        <ele>1933</ele>
        <time>2021-08-13T07:59:39.165Z</time>
      </trkpt>
      <trkpt lat="46.84589" lon="8.4365">
        <ele>1933</ele>
        <time>2021-08-13T07:59:40.165Z</time>
      </trkpt>
      <trkpt lat="46.84588" lon="8.43649">
        <ele>1934</ele>
        <time>2021-08-13T07:59:41.164Z</time>
      </trkpt>
      <trkpt lat="46.84587" lon="8.43648">
        <ele>1934</ele>
        <time>2021-08-13T07:59:42.165Z</time>
      </trkpt>
      <trkpt lat="46.84587" lon="8.43647">
        <ele>1935</ele>
        <time>2021-08-13T07:59:43.165Z</time>
      </trkpt>
      <trkpt lat="46.84587" lon="8.43645">
        <ele>1935</ele>
        <time>2021-08-13T07:59:44.164Z</time>
      </trkpt>
      <trkpt lat="46.84586" lon="8.43644">
        <ele>1936</ele>
        <time>2021-08-13T07:59:45.165Z</time>
      </trkpt>
      <trkpt lat="46.84585" lon="8.43643">
        <ele>1936</ele>
        <time>2021-08-13T07:59:46.165Z</time>
      </trkpt>
      <trkpt lat="46.84585" lon="8.43642">
        <ele>1937</ele>
        <time>2021-08-13T07:59:47.164Z</time>
      </trkpt>
      <trkpt lat="46.84584" lon="8.43642">
        <ele>1937</ele>
        <time>2021-08-13T07:59:48.164Z</time>
      </trkpt>
      <trkpt lat="46.84584" lon="8.43641">
        <ele>1937</ele>
        <time>2021-08-13T07:59:49.165Z</time>
      </trkpt>
      <trkpt lat="46.84583" lon="8.4364">
        <ele>1938</ele>
        <time>2021-08-13T07:59:50.164Z</time>
      </trkpt>
      <trkpt lat="46.84582" lon="8.43639">
        <ele>1938</ele>
        <time>2021-08-13T07:59:51.164Z</time>
      </trkpt>
      <trkpt lat="46.84581" lon="8.43638">
        <ele>1938</ele>
        <time>2021-08-13T07:59:52.165Z</time>
      </trkpt>
      <trkpt lat="46.8458" lon="8.43636">
        <ele>1938</ele>
        <time>2021-08-13T07:59:53.165Z</time>
      </trkpt>
      <trkpt lat="46.84579" lon="8.43635">
        <ele>1938</ele>
        <time>2021-08-13T07:59:54.164Z</time>
      </trkpt>
      <trkpt lat="46.84577" lon="8.43634">
        <ele>1938</ele>
        <time>2021-08-13T07:59:55.164Z</time>
      </trkpt>
      <trkpt lat="46.84576" lon="8.43632">
        <ele>1938</ele>
        <time>2021-08-13T07:59:56.164Z</time>
      </trkpt>
      <trkpt lat="46.84576" lon="8.43631">
        <ele>1938</ele>
        <time>2021-08-13T07:59:57.164Z</time>
      </trkpt>
      <trkpt lat="46.84575" lon="8.43629">
        <ele>1938</ele>
        <time>2021-08-13T07:59:58.164Z</time>
      </trkpt>
      <trkpt lat="46.84574" lon="8.43627">
        <ele>1938</ele>
        <time>2021-08-13T07:59:59.165Z</time>
      </trkpt>
      <trkpt lat="46.84574" lon="8.43624">
        <ele>1938</ele>
        <time>2021-08-13T08:00:00.164Z</time>
      </trkpt>
      <trkpt lat="46.84573" lon="8.43623">
        <ele>1938</ele>
        <time>2021-08-13T08:00:01.165Z</time>
      </trkpt>
      <trkpt lat="46.84573" lon="8.43621">
        <ele>1937</ele>
        <time>2021-08-13T08:00:02.164Z</time>
      </trkpt>
      <trkpt lat="46.84572" lon="8.4362">
        <ele>1937</ele>
        <time>2021-08-13T08:00:03.165Z</time>
      </trkpt>
      <trkpt lat="46.84572" lon="8.4362">
        <ele>1937</ele>
        <time>2021-08-13T08:00:04.165Z</time>
      </trkpt>
      <trkpt lat="46.84572" lon="8.43619">
        <ele>1937</ele>
        <time>2021-08-13T08:00:05.165Z</time>
      </trkpt>
      <trkpt lat="46.84572" lon="8.43618">
        <ele>1938</ele>
        <time>2021-08-13T08:00:06.165Z</time>
      </trkpt>
      <trkpt lat="46.84571" lon="8.43616">
        <ele>1938</ele>
        <time>2021-08-13T08:00:07.165Z</time>
      </trkpt>
      <trkpt lat="46.84571" lon="8.43615">
        <ele>1938</ele>
        <time>2021-08-13T08:00:08.164Z</time>
      </trkpt>
      <trkpt lat="46.8457" lon="8.43614">
        <ele>1938</ele>
        <time>2021-08-13T08:00:09.164Z</time>
      </trkpt>
      <trkpt lat="46.8457" lon="8.43613">
        <ele>1937</ele>
        <time>2021-08-13T08:00:10.164Z</time>
      </trkpt>
      <trkpt lat="46.8457" lon="8.43611">
        <ele>1937</ele>
        <time>2021-08-13T08:00:11.165Z</time>
      </trkpt>
      <trkpt lat="46.84569" lon="8.4361">
        <ele>1936</ele>
        <time>2021-08-13T08:00:12.164Z</time>
      </trkpt>
      <trkpt lat="46.84569" lon="8.43609">
        <ele>1935</ele>
        <time>2021-08-13T08:00:13.164Z</time>
      </trkpt>
      <trkpt lat="46.84569" lon="8.43608">
        <ele>1935</ele>
        <time>2021-08-13T08:00:14.165Z</time>
      </trkpt>
      <trkpt lat="46.84569" lon="8.43607">
        <ele>1934</ele>
        <time>2021-08-13T08:00:15.165Z</time>
      </trkpt>
      <trkpt lat="46.84568" lon="8.43605">
        <ele>1933</ele>
        <time>2021-08-13T08:00:16.165Z</time>
      </trkpt>
      <trkpt lat="46.84568" lon="8.43604">
        <ele>1933</ele>
        <time>2021-08-13T08:00:17.164Z</time>
      </trkpt>
      <trkpt lat="46.84567" lon="8.43602">
        <ele>1933</ele>
        <time>2021-08-13T08:00:18.165Z</time>
      </trkpt>
      <trkpt lat="46.84567" lon="8.43601">
        <ele>1932</ele>
        <time>2021-08-13T08:00:19.165Z</time>
      </trkpt>
      <trkpt lat="46.84567" lon="8.43599">
        <ele>1932</ele>
        <time>2021-08-13T08:00:20.165Z</time>
      </trkpt>
      <trkpt lat="46.84566" lon="8.43597">
        <ele>1933</ele>
        <time>2021-08-13T08:00:21.165Z</time>
      </trkpt>
      <trkpt lat="46.84566" lon="8.43596">
        <ele>1933</ele>
        <time>2021-08-13T08:00:22.165Z</time>
      </trkpt>
      <trkpt lat="46.84565" lon="8.43594">
        <ele>1933</ele>
        <time>2021-08-13T08:00:23.165Z</time>
      </trkpt>
      <trkpt lat="46.84565" lon="8.43593">
        <ele>1933</ele>
        <time>2021-08-13T08:00:24.165Z</time>
      </trkpt>
      <trkpt lat="46.84564" lon="8.43591">
        <ele>1933</ele>
        <time>2021-08-13T08:00:25.165Z</time>
      </trkpt>
      <trkpt lat="46.84563" lon="8.4359">
        <ele>1932</ele>
        <time>2021-08-13T08:00:26.165Z</time>
      </trkpt>
      <trkpt lat="46.84562" lon="8.43588">
        <ele>1932</ele>
        <time>2021-08-13T08:00:27.165Z</time>
      </trkpt>
      <trkpt lat="46.84561" lon="8.43587">
        <ele>1932</ele>
        <time>2021-08-13T08:00:28.164Z</time>
      </trkpt>
      <trkpt lat="46.84561" lon="8.43586">
        <ele>1932</ele>
        <time>2021-08-13T08:00:29.165Z</time>
      </trkpt>
      <trkpt lat="46.8456" lon="8.43584">
        <ele>1931</ele>
        <time>2021-08-13T08:00:30.165Z</time>
      </trkpt>
      <trkpt lat="46.84559" lon="8.43583">
        <ele>1931</ele>
        <time>2021-08-13T08:00:31.164Z</time>
      </trkpt>
      <trkpt lat="46.84558" lon="8.43582">
        <ele>1931</ele>
        <time>2021-08-13T08:00:32.164Z</time>
      </trkpt>
      <trkpt lat="46.84558" lon="8.43581">
        <ele>1930</ele>
        <time>2021-08-13T08:00:33.165Z</time>
      </trkpt>
      <trkpt lat="46.84557" lon="8.4358">
        <ele>1929</ele>
        <time>2021-08-13T08:00:34.165Z</time>
      </trkpt>
      <trkpt lat="46.84556" lon="8.43579">
        <ele>1929</ele>
        <time>2021-08-13T08:00:35.165Z</time>
      </trkpt>
      <trkpt lat="46.84555" lon="8.43579">
        <ele>1928</ele>
        <time>2021-08-13T08:00:36.165Z</time>
      </trkpt>
      <trkpt lat="46.84554" lon="8.43578">
        <ele>1928</ele>
        <time>2021-08-13T08:00:37.165Z</time>
      </trkpt>
      <trkpt lat="46.84553" lon="8.43578">
        <ele>1927</ele>
        <time>2021-08-13T08:00:38.165Z</time>
      </trkpt>
      <trkpt lat="46.84552" lon="8.43577">
        <ele>1927</ele>
        <time>2021-08-13T08:00:39.164Z</time>
      </trkpt>
      <trkpt lat="46.84551" lon="8.43577">
        <ele>1926</ele>
        <time>2021-08-13T08:00:40.165Z</time>
      </trkpt>
      <trkpt lat="46.8455" lon="8.43576">
        <ele>1926</ele>
        <time>2021-08-13T08:00:41.165Z</time>
      </trkpt>
      <trkpt lat="46.84549" lon="8.43575">
        <ele>1926</ele>
        <time>2021-08-13T08:00:42.164Z</time>
      </trkpt>
      <trkpt lat="46.84548" lon="8.43574">
        <ele>1926</ele>
        <time>2021-08-13T08:00:43.165Z</time>
      </trkpt>
      <trkpt lat="46.84547" lon="8.43573">
        <ele>1926</ele>
        <time>2021-08-13T08:00:44.165Z</time>
      </trkpt>
      <trkpt lat="46.84547" lon="8.43572">
        <ele>1927</ele>
        <time>2021-08-13T08:00:45.164Z</time>
      </trkpt>
      <trkpt lat="46.84546" lon="8.4357">
        <ele>1927</ele>
        <time>2021-08-13T08:00:46.164Z</time>
      </trkpt>
      <trkpt lat="46.84546" lon="8.43569">
        <ele>1928</ele>
        <time>2021-08-13T08:00:47.165Z</time>
      </trkpt>
      <trkpt lat="46.84545" lon="8.43568">
        <ele>1928</ele>
        <time>2021-08-13T08:00:48.164Z</time>
      </trkpt>
      <trkpt lat="46.84545" lon="8.43565">
        <ele>1929</ele>
        <time>2021-08-13T08:00:49.165Z</time>
      </trkpt>
      <trkpt lat="46.84544" lon="8.43564">
        <ele>1929</ele>
        <time>2021-08-13T08:00:50.165Z</time>
      </trkpt>
      <trkpt lat="46.84543" lon="8.43562">
        <ele>1929</ele>
        <time>2021-08-13T08:00:51.164Z</time>
      </trkpt>
      <trkpt lat="46.84542" lon="8.4356">
        <ele>1929</ele>
        <time>2021-08-13T08:00:52.165Z</time>
      </trkpt>
      <trkpt lat="46.84542" lon="8.43559">
        <ele>1928</ele>
        <time>2021-08-13T08:00:53.164Z</time>
      </trkpt>
      <trkpt lat="46.8454" lon="8.43558">
        <ele>1928</ele>
        <time>2021-08-13T08:00:54.165Z</time>
      </trkpt>
      <trkpt lat="46.84539" lon="8.43557">
        <ele>1928</ele>
        <time>2021-08-13T08:00:55.165Z</time>
      </trkpt>
      <trkpt lat="46.84537" lon="8.43556">
        <ele>1929</ele>
        <time>2021-08-13T08:00:56.165Z</time>
      </trkpt>
      <trkpt lat="46.84536" lon="8.43555">
        <ele>1929</ele>
        <time>2021-08-13T08:00:57.165Z</time>
      </trkpt>
      <trkpt lat="46.84535" lon="8.43553">
        <ele>1929</ele>
        <time>2021-08-13T08:00:58.165Z</time>
      </trkpt>
      <trkpt lat="46.84534" lon="8.43551">
        <ele>1928</ele>
        <time>2021-08-13T08:00:59.165Z</time>
      </trkpt>
      <trkpt lat="46.84533" lon="8.43551">
        <ele>1928</ele>
        <time>2021-08-13T08:01:00.165Z</time>
      </trkpt>
      <trkpt lat="46.84532" lon="8.43549">
        <ele>1928</ele>
        <time>2021-08-13T08:01:01.164Z</time>
      </trkpt>
      <trkpt lat="46.84531" lon="8.43548">
        <ele>1928</ele>
        <time>2021-08-13T08:01:02.164Z</time>
      </trkpt>
      <trkpt lat="46.8453" lon="8.43547">
        <ele>1927</ele>
        <time>2021-08-13T08:01:03.164Z</time>
      </trkpt>
      <trkpt lat="46.84529" lon="8.43546">
        <ele>1927</ele>
        <time>2021-08-13T08:01:04.165Z</time>
      </trkpt>
      <trkpt lat="46.84528" lon="8.43545">
        <ele>1926</ele>
        <time>2021-08-13T08:01:05.165Z</time>
      </trkpt>
      <trkpt lat="46.84527" lon="8.43544">
        <ele>1926</ele>
        <time>2021-08-13T08:01:06.165Z</time>
      </trkpt>
      <trkpt lat="46.84526" lon="8.43543">
        <ele>1926</ele>
        <time>2021-08-13T08:01:07.164Z</time>
      </trkpt>
      <trkpt lat="46.84524" lon="8.43541">
        <ele>1925</ele>
        <time>2021-08-13T08:01:08.165Z</time>
      </trkpt>
      <trkpt lat="46.84523" lon="8.4354">
        <ele>1925</ele>
        <time>2021-08-13T08:01:09.165Z</time>
      </trkpt>
      <trkpt lat="46.84522" lon="8.43538">
        <ele>1925</ele>
        <time>2021-08-13T08:01:10.165Z</time>
      </trkpt>
      <trkpt lat="46.84521" lon="8.43536">
        <ele>1925</ele>
        <time>2021-08-13T08:01:11.164Z</time>
      </trkpt>
      <trkpt lat="46.8452" lon="8.43535">
        <ele>1925</ele>
        <time>2021-08-13T08:01:12.164Z</time>
      </trkpt>
      <trkpt lat="46.84519" lon="8.43533">
        <ele>1925</ele>
        <time>2021-08-13T08:01:13.164Z</time>
      </trkpt>
      <trkpt lat="46.84518" lon="8.43532">
        <ele>1925</ele>
        <time>2021-08-13T08:01:14.164Z</time>
      </trkpt>
      <trkpt lat="46.84518" lon="8.43532">
        <ele>1924</ele>
        <time>2021-08-13T08:01:15.164Z</time>
      </trkpt>
      <trkpt lat="46.84517" lon="8.43531">
        <ele>1924</ele>
        <time>2021-08-13T08:01:16.164Z</time>
      </trkpt>
      <trkpt lat="46.84516" lon="8.4353">
        <ele>1924</ele>
        <time>2021-08-13T08:01:17.165Z</time>
      </trkpt>
      <trkpt lat="46.84515" lon="8.43528">
        <ele>1924</ele>
        <time>2021-08-13T08:01:18.164Z</time>
      </trkpt>
      <trkpt lat="46.84515" lon="8.43527">
        <ele>1924</ele>
        <time>2021-08-13T08:01:19.165Z</time>
      </trkpt>
      <trkpt lat="46.84514" lon="8.43525">
        <ele>1924</ele>
        <time>2021-08-13T08:01:20.164Z</time>
      </trkpt>
      <trkpt lat="46.84514" lon="8.43524">
        <ele>1924</ele>
        <time>2021-08-13T08:01:21.164Z</time>
      </trkpt>
      <trkpt lat="46.84513" lon="8.43523">
        <ele>1924</ele>
        <time>2021-08-13T08:01:22.164Z</time>
      </trkpt>
      <trkpt lat="46.84512" lon="8.43522">
        <ele>1924</ele>
        <time>2021-08-13T08:01:23.164Z</time>
      </trkpt>
      <trkpt lat="46.84512" lon="8.43521">
        <ele>1924</ele>
        <time>2021-08-13T08:01:24.164Z</time>
      </trkpt>
      <trkpt lat="46.84511" lon="8.43521">
        <ele>1924</ele>
        <time>2021-08-13T08:01:25.165Z</time>
      </trkpt>
      <trkpt lat="46.84511" lon="8.4352">
        <ele>1925</ele>
        <time>2021-08-13T08:01:26.164Z</time>
      </trkpt>
      <trkpt lat="46.8451" lon="8.43519">
        <ele>1925</ele>
        <time>2021-08-13T08:01:27.165Z</time>
      </trkpt>
      <trkpt lat="46.84509" lon="8.43517">
        <ele>1925</ele>
        <time>2021-08-13T08:01:28.164Z</time>
      </trkpt>
      <trkpt lat="46.84509" lon="8.43515">
        <ele>1926</ele>
        <time>2021-08-13T08:01:29.164Z</time>
      </trkpt>
      <trkpt lat="46.84508" lon="8.43514">
        <ele>1926</ele>
        <time>2021-08-13T08:01:30.165Z</time>
      </trkpt>
      <trkpt lat="46.84507" lon="8.43513">
        <ele>1927</ele>
        <time>2021-08-13T08:01:31.164Z</time>
      </trkpt>
      <trkpt lat="46.84507" lon="8.43513">
        <ele>1927</ele>
        <time>2021-08-13T08:01:32.165Z</time>
      </trkpt>
      <trkpt lat="46.84506" lon="8.43512">
        <ele>1927</ele>
        <time>2021-08-13T08:01:33.164Z</time>
      </trkpt>
      <trkpt lat="46.84504" lon="8.43511">
        <ele>1927</ele>
        <time>2021-08-13T08:01:34.164Z</time>
      </trkpt>
      <trkpt lat="46.84503" lon="8.4351">
        <ele>1928</ele>
        <time>2021-08-13T08:01:35.164Z</time>
      </trkpt>
      <trkpt lat="46.84502" lon="8.43509">
        <ele>1928</ele>
        <time>2021-08-13T08:01:36.164Z</time>
      </trkpt>
      <trkpt lat="46.84501" lon="8.43508">
        <ele>1928</ele>
        <time>2021-08-13T08:01:37.164Z</time>
      </trkpt>
      <trkpt lat="46.845" lon="8.43507">
        <ele>1928</ele>
        <time>2021-08-13T08:01:38.164Z</time>
      </trkpt>
      <trkpt lat="46.84499" lon="8.43506">
        <ele>1927</ele>
        <time>2021-08-13T08:01:39.165Z</time>
      </trkpt>
      <trkpt lat="46.84498" lon="8.43505">
        <ele>1927</ele>
        <time>2021-08-13T08:01:40.165Z</time>
      </trkpt>
      <trkpt lat="46.84497" lon="8.43505">
        <ele>1927</ele>
        <time>2021-08-13T08:01:41.165Z</time>
      </trkpt>
      <trkpt lat="46.84497" lon="8.43504">
        <ele>1927</ele>
        <time>2021-08-13T08:01:42.165Z</time>
      </trkpt>
      <trkpt lat="46.84496" lon="8.43504">
        <ele>1927</ele>
        <time>2021-08-13T08:01:43.165Z</time>
      </trkpt>
      <trkpt lat="46.84495" lon="8.43503">
        <ele>1927</ele>
        <time>2021-08-13T08:01:44.165Z</time>
      </trkpt>
      <trkpt lat="46.84494" lon="8.43502">
        <ele>1927</ele>
        <time>2021-08-13T08:01:45.165Z</time>
      </trkpt>
      <trkpt lat="46.84493" lon="8.43501">
        <ele>1927</ele>
        <time>2021-08-13T08:01:46.165Z</time>
      </trkpt>
      <trkpt lat="46.84492" lon="8.435">
        <ele>1927</ele>
        <time>2021-08-13T08:01:47.165Z</time>
      </trkpt>
      <trkpt lat="46.84491" lon="8.435">
        <ele>1928</ele>
        <time>2021-08-13T08:01:48.165Z</time>
      </trkpt>
      <trkpt lat="46.84491" lon="8.435">
        <ele>1928</ele>
        <time>2021-08-13T08:01:49.164Z</time>
      </trkpt>
      <trkpt lat="46.84491" lon="8.435">
        <ele>1928</ele>
        <time>2021-08-13T08:01:50.164Z</time>
      </trkpt>
      <trkpt lat="46.8449" lon="8.43498">
        <ele>1929</ele>
        <time>2021-08-13T08:01:51.165Z</time>
      </trkpt>
      <trkpt lat="46.84489" lon="8.43498">
        <ele>1929</ele>
        <time>2021-08-13T08:01:52.165Z</time>
      </trkpt>
      <trkpt lat="46.84488" lon="8.43497">
        <ele>1929</ele>
        <time>2021-08-13T08:01:53.164Z</time>
      </trkpt>
      <trkpt lat="46.84487" lon="8.43497">
        <ele>1929</ele>
        <time>2021-08-13T08:01:54.164Z</time>
      </trkpt>
      <trkpt lat="46.84486" lon="8.43496">
        <ele>1928</ele>
        <time>2021-08-13T08:01:55.164Z</time>
      </trkpt>
      <trkpt lat="46.84485" lon="8.43494">
        <ele>1929</ele>
        <time>2021-08-13T08:01:56.164Z</time>
      </trkpt>
      <trkpt lat="46.84485" lon="8.43493">
        <ele>1929</ele>
        <time>2021-08-13T08:01:57.164Z</time>
      </trkpt>
      <trkpt lat="46.84484" lon="8.43493">
        <ele>1929</ele>
        <time>2021-08-13T08:01:58.165Z</time>
      </trkpt>
      <trkpt lat="46.84484" lon="8.43492">
        <ele>1929</ele>
        <time>2021-08-13T08:01:59.165Z</time>
      </trkpt>
      <trkpt lat="46.84483" lon="8.43491">
        <ele>1929</ele>
        <time>2021-08-13T08:02:00.165Z</time>
      </trkpt>
      <trkpt lat="46.84483" lon="8.4349">
        <ele>1929</ele>
        <time>2021-08-13T08:02:01.164Z</time>
      </trkpt>
      <trkpt lat="46.84482" lon="8.43488">
        <ele>1929</ele>
        <time>2021-08-13T08:02:02.164Z</time>
      </trkpt>
      <trkpt lat="46.84482" lon="8.43487">
        <ele>1929</ele>
        <time>2021-08-13T08:02:03.164Z</time>
      </trkpt>
      <trkpt lat="46.84481" lon="8.43486">
        <ele>1928</ele>
        <time>2021-08-13T08:02:04.164Z</time>
      </trkpt>
      <trkpt lat="46.84481" lon="8.43485">
        <ele>1928</ele>
        <time>2021-08-13T08:02:05.164Z</time>
      </trkpt>
      <trkpt lat="46.84481" lon="8.43484">
        <ele>1927</ele>
        <time>2021-08-13T08:02:06.165Z</time>
      </trkpt>
      <trkpt lat="46.84481" lon="8.43483">
        <ele>1927</ele>
        <time>2021-08-13T08:02:07.164Z</time>
      </trkpt>
      <trkpt lat="46.8448" lon="8.43482">
        <ele>1926</ele>
        <time>2021-08-13T08:02:08.165Z</time>
      </trkpt>
      <trkpt lat="46.84479" lon="8.43481">
        <ele>1926</ele>
        <time>2021-08-13T08:02:09.165Z</time>
      </trkpt>
      <trkpt lat="46.84479" lon="8.4348">
        <ele>1926</ele>
        <time>2021-08-13T08:02:10.164Z</time>
      </trkpt>
      <trkpt lat="46.84478" lon="8.43479">
        <ele>1926</ele>
        <time>2021-08-13T08:02:11.164Z</time>
      </trkpt>
      <trkpt lat="46.84477" lon="8.43478">
        <ele>1926</ele>
        <time>2021-08-13T08:02:12.164Z</time>
      </trkpt>
      <trkpt lat="46.84476" lon="8.43477">
        <ele>1926</ele>
        <time>2021-08-13T08:02:13.164Z</time>
      </trkpt>
      <trkpt lat="46.84475" lon="8.43477">
        <ele>1925</ele>
        <time>2021-08-13T08:02:14.165Z</time>
      </trkpt>
      <trkpt lat="46.84475" lon="8.43475">
        <ele>1925</ele>
        <time>2021-08-13T08:02:15.164Z</time>
      </trkpt>
      <trkpt lat="46.84474" lon="8.43474">
        <ele>1925</ele>
        <time>2021-08-13T08:02:16.164Z</time>
      </trkpt>
      <trkpt lat="46.84474" lon="8.43472">
        <ele>1925</ele>
        <time>2021-08-13T08:02:17.165Z</time>
      </trkpt>
      <trkpt lat="46.84474" lon="8.43471">
        <ele>1924</ele>
        <time>2021-08-13T08:02:18.164Z</time>
      </trkpt>
      <trkpt lat="46.84473" lon="8.4347">
        <ele>1924</ele>
        <time>2021-08-13T08:02:19.165Z</time>
      </trkpt>
      <trkpt lat="46.84473" lon="8.43468">
        <ele>1923</ele>
        <time>2021-08-13T08:02:20.164Z</time>
      </trkpt>
      <trkpt lat="46.84473" lon="8.43467">
        <ele>1923</ele>
        <time>2021-08-13T08:02:21.164Z</time>
      </trkpt>
      <trkpt lat="46.84472" lon="8.43465">
        <ele>1923</ele>
        <time>2021-08-13T08:02:22.164Z</time>
      </trkpt>
      <trkpt lat="46.84472" lon="8.43464">
        <ele>1922</ele>
        <time>2021-08-13T08:02:23.164Z</time>
      </trkpt>
      <trkpt lat="46.84472" lon="8.43463">
        <ele>1922</ele>
        <time>2021-08-13T08:02:24.164Z</time>
      </trkpt>
      <trkpt lat="46.84472" lon="8.43461">
        <ele>1922</ele>
        <time>2021-08-13T08:02:25.164Z</time>
      </trkpt>
      <trkpt lat="46.84472" lon="8.4346">
        <ele>1921</ele>
        <time>2021-08-13T08:02:26.164Z</time>
      </trkpt>
      <trkpt lat="46.84472" lon="8.43458">
        <ele>1921</ele>
        <time>2021-08-13T08:02:27.164Z</time>
      </trkpt>
      <trkpt lat="46.84472" lon="8.43456">
        <ele>1920</ele>
        <time>2021-08-13T08:02:28.165Z</time>
      </trkpt>
      <trkpt lat="46.84473" lon="8.43455">
        <ele>1920</ele>
        <time>2021-08-13T08:02:29.164Z</time>
      </trkpt>
      <trkpt lat="46.84473" lon="8.43454">
        <ele>1920</ele>
        <time>2021-08-13T08:02:30.164Z</time>
      </trkpt>
      <trkpt lat="46.84474" lon="8.43452">
        <ele>1920</ele>
        <time>2021-08-13T08:02:31.164Z</time>
      </trkpt>
      <trkpt lat="46.84475" lon="8.43451">
        <ele>1920</ele>
        <time>2021-08-13T08:02:32.164Z</time>
      </trkpt>
      <trkpt lat="46.84476" lon="8.43449">
        <ele>1920</ele>
        <time>2021-08-13T08:02:33.164Z</time>
      </trkpt>
      <trkpt lat="46.84476" lon="8.43448">
        <ele>1920</ele>
        <time>2021-08-13T08:02:34.165Z</time>
      </trkpt>
      <trkpt lat="46.84475" lon="8.43447">
        <ele>1920</ele>
        <time>2021-08-13T08:02:35.164Z</time>
      </trkpt>
      <trkpt lat="46.84475" lon="8.43445">
        <ele>1919</ele>
        <time>2021-08-13T08:02:36.164Z</time>
      </trkpt>
      <trkpt lat="46.84476" lon="8.43444">
        <ele>1919</ele>
        <time>2021-08-13T08:02:37.164Z</time>
      </trkpt>
      <trkpt lat="46.84476" lon="8.43442">
        <ele>1919</ele>
        <time>2021-08-13T08:02:38.164Z</time>
      </trkpt>
      <trkpt lat="46.84476" lon="8.4344">
        <ele>1919</ele>
        <time>2021-08-13T08:02:39.164Z</time>
      </trkpt>
      <trkpt lat="46.84476" lon="8.43438">
        <ele>1919</ele>
        <time>2021-08-13T08:02:40.164Z</time>
      </trkpt>
      <trkpt lat="46.84476" lon="8.43437">
        <ele>1919</ele>
        <time>2021-08-13T08:02:41.165Z</time>
      </trkpt>
      <trkpt lat="46.84476" lon="8.43436">
        <ele>1919</ele>
        <time>2021-08-13T08:02:42.164Z</time>
      </trkpt>
      <trkpt lat="46.84476" lon="8.43434">
        <ele>1919</ele>
        <time>2021-08-13T08:02:43.164Z</time>
      </trkpt>
      <trkpt lat="46.84476" lon="8.43433">
        <ele>1919</ele>
        <time>2021-08-13T08:02:44.164Z</time>
      </trkpt>
      <trkpt lat="46.84476" lon="8.43431">
        <ele>1919</ele>
        <time>2021-08-13T08:02:45.164Z</time>
      </trkpt>
      <trkpt lat="46.84476" lon="8.4343">
        <ele>1919</ele>
        <time>2021-08-13T08:02:46.164Z</time>
      </trkpt>
      <trkpt lat="46.84476" lon="8.43428">
        <ele>1919</ele>
        <time>2021-08-13T08:02:47.165Z</time>
      </trkpt>
      <trkpt lat="46.84476" lon="8.43426">
        <ele>1918</ele>
        <time>2021-08-13T08:02:48.165Z</time>
      </trkpt>
      <trkpt lat="46.84476" lon="8.43425">
        <ele>1918</ele>
        <time>2021-08-13T08:02:49.165Z</time>
      </trkpt>
      <trkpt lat="46.84476" lon="8.43423">
        <ele>1918</ele>
        <time>2021-08-13T08:02:50.165Z</time>
      </trkpt>
      <trkpt lat="46.84476" lon="8.43421">
        <ele>1918</ele>
        <time>2021-08-13T08:02:51.164Z</time>
      </trkpt>
      <trkpt lat="46.84476" lon="8.43419">
        <ele>1918</ele>
        <time>2021-08-13T08:02:52.165Z</time>
      </trkpt>
      <trkpt lat="46.84477" lon="8.43417">
        <ele>1918</ele>
        <time>2021-08-13T08:02:53.165Z</time>
      </trkpt>
      <trkpt lat="46.84477" lon="8.43415">
        <ele>1918</ele>
        <time>2021-08-13T08:02:54.165Z</time>
      </trkpt>
      <trkpt lat="46.84477" lon="8.43414">
        <ele>1918</ele>
        <time>2021-08-13T08:02:55.165Z</time>
      </trkpt>
      <trkpt lat="46.84477" lon="8.43412">
        <ele>1918</ele>
        <time>2021-08-13T08:02:56.165Z</time>
      </trkpt>
      <trkpt lat="46.84477" lon="8.43411">
        <ele>1918</ele>
        <time>2021-08-13T08:02:57.164Z</time>
      </trkpt>
      <trkpt lat="46.84477" lon="8.43409">
        <ele>1917</ele>
        <time>2021-08-13T08:02:58.165Z</time>
      </trkpt>
      <trkpt lat="46.84477" lon="8.43408">
        <ele>1917</ele>
        <time>2021-08-13T08:02:59.164Z</time>
      </trkpt>
      <trkpt lat="46.84478" lon="8.43406">
        <ele>1917</ele>
        <time>2021-08-13T08:03:00.165Z</time>
      </trkpt>
      <trkpt lat="46.84477" lon="8.43405">
        <ele>1917</ele>
        <time>2021-08-13T08:03:01.164Z</time>
      </trkpt>
      <trkpt lat="46.84477" lon="8.43403">
        <ele>1917</ele>
        <time>2021-08-13T08:03:02.165Z</time>
      </trkpt>
      <trkpt lat="46.84475" lon="8.43401">
        <ele>1916</ele>
        <time>2021-08-13T08:03:03.165Z</time>
      </trkpt>
      <trkpt lat="46.84474" lon="8.434">
        <ele>1916</ele>
        <time>2021-08-13T08:03:04.164Z</time>
      </trkpt>
      <trkpt lat="46.84473" lon="8.43399">
        <ele>1915</ele>
        <time>2021-08-13T08:03:05.165Z</time>
      </trkpt>
      <trkpt lat="46.84472" lon="8.43399">
        <ele>1915</ele>
        <time>2021-08-13T08:03:06.164Z</time>
      </trkpt>
      <trkpt lat="46.84471" lon="8.43398">
        <ele>1915</ele>
        <time>2021-08-13T08:03:07.165Z</time>
      </trkpt>
      <trkpt lat="46.8447" lon="8.43397">
        <ele>1915</ele>
        <time>2021-08-13T08:03:08.164Z</time>
      </trkpt>
      <trkpt lat="46.84469" lon="8.43397">
        <ele>1915</ele>
        <time>2021-08-13T08:03:09.164Z</time>
      </trkpt>
      <trkpt lat="46.84468" lon="8.43397">
        <ele>1915</ele>
        <time>2021-08-13T08:03:10.165Z</time>
      </trkpt>
      <trkpt lat="46.84468" lon="8.43397">
        <ele>1915</ele>
        <time>2021-08-13T08:03:11.165Z</time>
      </trkpt>
      <trkpt lat="46.84467" lon="8.43396">
        <ele>1916</ele>
        <time>2021-08-13T08:03:12.165Z</time>
      </trkpt>
      <trkpt lat="46.84466" lon="8.43395">
        <ele>1915</ele>
        <time>2021-08-13T08:03:13.165Z</time>
      </trkpt>
      <trkpt lat="46.84465" lon="8.43394">
        <ele>1916</ele>
        <time>2021-08-13T08:03:14.165Z</time>
      </trkpt>
      <trkpt lat="46.84464" lon="8.43393">
        <ele>1916</ele>
        <time>2021-08-13T08:03:15.165Z</time>
      </trkpt>
      <trkpt lat="46.84464" lon="8.43393">
        <ele>1916</ele>
        <time>2021-08-13T08:03:16.165Z</time>
      </trkpt>
      <trkpt lat="46.84464" lon="8.43393">
        <ele>1916</ele>
        <time>2021-08-13T08:03:17.164Z</time>
      </trkpt>
      <trkpt lat="46.84463" lon="8.43392">
        <ele>1916</ele>
        <time>2021-08-13T08:03:18.165Z</time>
      </trkpt>
      <trkpt lat="46.84463" lon="8.43391">
        <ele>1916</ele>
        <time>2021-08-13T08:03:19.164Z</time>
      </trkpt>
      <trkpt lat="46.84463" lon="8.4339">
        <ele>1916</ele>
        <time>2021-08-13T08:03:20.165Z</time>
      </trkpt>
      <trkpt lat="46.84462" lon="8.43389">
        <ele>1916</ele>
        <time>2021-08-13T08:03:21.164Z</time>
      </trkpt>
      <trkpt lat="46.84461" lon="8.43388">
        <ele>1916</ele>
        <time>2021-08-13T08:03:22.165Z</time>
      </trkpt>
      <trkpt lat="46.84461" lon="8.43387">
        <ele>1917</ele>
        <time>2021-08-13T08:03:23.165Z</time>
      </trkpt>
      <trkpt lat="46.84461" lon="8.43386">
        <ele>1917</ele>
        <time>2021-08-13T08:03:24.165Z</time>
      </trkpt>
      <trkpt lat="46.8446" lon="8.43385">
        <ele>1917</ele>
        <time>2021-08-13T08:03:25.164Z</time>
      </trkpt>
      <trkpt lat="46.8446" lon="8.43384">
        <ele>1917</ele>
        <time>2021-08-13T08:03:26.164Z</time>
      </trkpt>
      <trkpt lat="46.84459" lon="8.43383">
        <ele>1917</ele>
        <time>2021-08-13T08:03:27.165Z</time>
      </trkpt>
      <trkpt lat="46.84459" lon="8.43381">
        <ele>1916</ele>
        <time>2021-08-13T08:03:28.164Z</time>
      </trkpt>
      <trkpt lat="46.84458" lon="8.4338">
        <ele>1916</ele>
        <time>2021-08-13T08:03:29.164Z</time>
      </trkpt>
      <trkpt lat="46.84457" lon="8.43378">
        <ele>1915</ele>
        <time>2021-08-13T08:03:30.164Z</time>
      </trkpt>
      <trkpt lat="46.84457" lon="8.43377">
        <ele>1914</ele>
        <time>2021-08-13T08:03:31.165Z</time>
      </trkpt>
      <trkpt lat="46.84457" lon="8.43375">
        <ele>1914</ele>
        <time>2021-08-13T08:03:32.164Z</time>
      </trkpt>
      <trkpt lat="46.84457" lon="8.43373">
        <ele>1913</ele>
        <time>2021-08-13T08:03:33.165Z</time>
      </trkpt>
      <trkpt lat="46.84457" lon="8.43372">
        <ele>1913</ele>
        <time>2021-08-13T08:03:34.164Z</time>
      </trkpt>
      <trkpt lat="46.84457" lon="8.43371">
        <ele>1913</ele>
        <time>2021-08-13T08:03:35.165Z</time>
      </trkpt>
      <trkpt lat="46.84457" lon="8.43371">
        <ele>1913</ele>
        <time>2021-08-13T08:03:36.164Z</time>
      </trkpt>
      <trkpt lat="46.84457" lon="8.43369">
        <ele>1913</ele>
        <time>2021-08-13T08:03:37.164Z</time>
      </trkpt>
      <trkpt lat="46.84457" lon="8.43368">
        <ele>1912</ele>
        <time>2021-08-13T08:03:38.165Z</time>
      </trkpt>
      <trkpt lat="46.84457" lon="8.43368">
        <ele>1912</ele>
        <time>2021-08-13T08:03:39.164Z</time>
      </trkpt>
      <trkpt lat="46.84457" lon="8.43367">
        <ele>1911</ele>
        <time>2021-08-13T08:03:40.164Z</time>
      </trkpt>
      <trkpt lat="46.84457" lon="8.43367">
        <ele>1911</ele>
        <time>2021-08-13T08:03:41.165Z</time>
      </trkpt>
      <trkpt lat="46.84457" lon="8.43367">
        <ele>1911</ele>
        <time>2021-08-13T08:03:42.165Z</time>
      </trkpt>
      <trkpt lat="46.84456" lon="8.43367">
        <ele>1910</ele>
        <time>2021-08-13T08:03:43.165Z</time>
      </trkpt>
      <trkpt lat="46.84456" lon="8.43367">
        <ele>1910</ele>
        <time>2021-08-13T08:03:44.165Z</time>
      </trkpt>
      <trkpt lat="46.84456" lon="8.43367">
        <ele>1910</ele>
        <time>2021-08-13T08:03:45.165Z</time>
      </trkpt>
      <trkpt lat="46.84456" lon="8.43366">
        <ele>1910</ele>
        <time>2021-08-13T08:03:46.164Z</time>
      </trkpt>
      <trkpt lat="46.84456" lon="8.43364">
        <ele>1909</ele>
        <time>2021-08-13T08:03:47.165Z</time>
      </trkpt>
      <trkpt lat="46.84456" lon="8.43362">
        <ele>1909</ele>
        <time>2021-08-13T08:03:48.164Z</time>
      </trkpt>
      <trkpt lat="46.84456" lon="8.4336">
        <ele>1909</ele>
        <time>2021-08-13T08:03:49.164Z</time>
      </trkpt>
      <trkpt lat="46.84457" lon="8.43358">
        <ele>1909</ele>
        <time>2021-08-13T08:03:50.164Z</time>
      </trkpt>
      <trkpt lat="46.84457" lon="8.43355">
        <ele>1909</ele>
        <time>2021-08-13T08:03:51.165Z</time>
      </trkpt>
      <trkpt lat="46.84457" lon="8.43353">
        <ele>1909</ele>
        <time>2021-08-13T08:03:52.165Z</time>
      </trkpt>
      <trkpt lat="46.84457" lon="8.43351">
        <ele>1909</ele>
        <time>2021-08-13T08:03:53.165Z</time>
      </trkpt>
      <trkpt lat="46.84457" lon="8.43349">
        <ele>1909</ele>
        <time>2021-08-13T08:03:54.164Z</time>
      </trkpt>
      <trkpt lat="46.84456" lon="8.43346">
        <ele>1909</ele>
        <time>2021-08-13T08:03:55.164Z</time>
      </trkpt>
      <trkpt lat="46.84456" lon="8.43344">
        <ele>1908</ele>
        <time>2021-08-13T08:03:56.164Z</time>
      </trkpt>
      <trkpt lat="46.84456" lon="8.43342">
        <ele>1908</ele>
        <time>2021-08-13T08:03:57.164Z</time>
      </trkpt>
      <trkpt lat="46.84457" lon="8.43339">
        <ele>1909</ele>
        <time>2021-08-13T08:03:58.165Z</time>
      </trkpt>
      <trkpt lat="46.84457" lon="8.43338">
        <ele>1909</ele>
        <time>2021-08-13T08:03:59.164Z</time>
      </trkpt>
      <trkpt lat="46.84456" lon="8.43336">
        <ele>1909</ele>
        <time>2021-08-13T08:04:00.165Z</time>
      </trkpt>
      <trkpt lat="46.84456" lon="8.43334">
        <ele>1909</ele>
        <time>2021-08-13T08:04:01.165Z</time>
      </trkpt>
      <trkpt lat="46.84456" lon="8.43332">
        <ele>1909</ele>
        <time>2021-08-13T08:04:02.165Z</time>
      </trkpt>
      <trkpt lat="46.84455" lon="8.43331">
        <ele>1909</ele>
        <time>2021-08-13T08:04:03.165Z</time>
      </trkpt>
      <trkpt lat="46.84454" lon="8.4333">
        <ele>1908</ele>
        <time>2021-08-13T08:04:04.165Z</time>
      </trkpt>
      <trkpt lat="46.84454" lon="8.43329">
        <ele>1908</ele>
        <time>2021-08-13T08:04:05.164Z</time>
      </trkpt>
      <trkpt lat="46.84453" lon="8.43327">
        <ele>1908</ele>
        <time>2021-08-13T08:04:06.165Z</time>
      </trkpt>
      <trkpt lat="46.84453" lon="8.43326">
        <ele>1908</ele>
        <time>2021-08-13T08:04:07.164Z</time>
      </trkpt>
      <trkpt lat="46.84453" lon="8.43325">
        <ele>1907</ele>
        <time>2021-08-13T08:04:08.165Z</time>
      </trkpt>
      <trkpt lat="46.84452" lon="8.43324">
        <ele>1907</ele>
        <time>2021-08-13T08:04:09.165Z</time>
      </trkpt>
      <trkpt lat="46.84452" lon="8.43323">
        <ele>1907</ele>
        <time>2021-08-13T08:04:10.165Z</time>
      </trkpt>
      <trkpt lat="46.84452" lon="8.43322">
        <ele>1907</ele>
        <time>2021-08-13T08:04:11.165Z</time>
      </trkpt>
      <trkpt lat="46.84451" lon="8.43321">
        <ele>1906</ele>
        <time>2021-08-13T08:04:12.165Z</time>
      </trkpt>
      <trkpt lat="46.84451" lon="8.4332">
        <ele>1905</ele>
        <time>2021-08-13T08:04:13.165Z</time>
      </trkpt>
      <trkpt lat="46.84451" lon="8.43318">
        <ele>1905</ele>
        <time>2021-08-13T08:04:14.165Z</time>
      </trkpt>
      <trkpt lat="46.84451" lon="8.43316">
        <ele>1904</ele>
        <time>2021-08-13T08:04:15.165Z</time>
      </trkpt>
      <trkpt lat="46.84451" lon="8.43315">
        <ele>1904</ele>
        <time>2021-08-13T08:04:16.165Z</time>
      </trkpt>
      <trkpt lat="46.84451" lon="8.43314">
        <ele>1904</ele>
        <time>2021-08-13T08:04:17.165Z</time>
      </trkpt>
      <trkpt lat="46.84451" lon="8.43313">
        <ele>1903</ele>
        <time>2021-08-13T08:04:18.165Z</time>
      </trkpt>
      <trkpt lat="46.84451" lon="8.43311">
        <ele>1903</ele>
        <time>2021-08-13T08:04:19.164Z</time>
      </trkpt>
      <trkpt lat="46.84452" lon="8.4331">
        <ele>1903</ele>
        <time>2021-08-13T08:04:20.164Z</time>
      </trkpt>
      <trkpt lat="46.84452" lon="8.43308">
        <ele>1904</ele>
        <time>2021-08-13T08:04:21.165Z</time>
      </trkpt>
      <trkpt lat="46.84453" lon="8.43307">
        <ele>1904</ele>
        <time>2021-08-13T08:04:22.165Z</time>
      </trkpt>
      <trkpt lat="46.84454" lon="8.43305">
        <ele>1904</ele>
        <time>2021-08-13T08:04:23.165Z</time>
      </trkpt>
      <trkpt lat="46.84454" lon="8.43304">
        <ele>1904</ele>
        <time>2021-08-13T08:04:24.165Z</time>
      </trkpt>
      <trkpt lat="46.84455" lon="8.43303">
        <ele>1904</ele>
        <time>2021-08-13T08:04:25.165Z</time>
      </trkpt>
      <trkpt lat="46.84456" lon="8.43302">
        <ele>1905</ele>
        <time>2021-08-13T08:04:26.165Z</time>
      </trkpt>
      <trkpt lat="46.84458" lon="8.433">
        <ele>1905</ele>
        <time>2021-08-13T08:04:27.165Z</time>
      </trkpt>
      <trkpt lat="46.84459" lon="8.43299">
        <ele>1905</ele>
        <time>2021-08-13T08:04:28.164Z</time>
      </trkpt>
      <trkpt lat="46.84459" lon="8.43297">
        <ele>1905</ele>
        <time>2021-08-13T08:04:29.164Z</time>
      </trkpt>
      <trkpt lat="46.8446" lon="8.43296">
        <ele>1905</ele>
        <time>2021-08-13T08:04:30.164Z</time>
      </trkpt>
      <trkpt lat="46.8446" lon="8.43294">
        <ele>1905</ele>
        <time>2021-08-13T08:04:31.164Z</time>
      </trkpt>
      <trkpt lat="46.8446" lon="8.43292">
        <ele>1905</ele>
        <time>2021-08-13T08:04:32.165Z</time>
      </trkpt>
      <trkpt lat="46.8446" lon="8.43291">
        <ele>1905</ele>
        <time>2021-08-13T08:04:33.165Z</time>
      </trkpt>
      <trkpt lat="46.84461" lon="8.43288">
        <ele>1904</ele>
        <time>2021-08-13T08:04:34.164Z</time>
      </trkpt>
      <trkpt lat="46.8446" lon="8.43287">
        <ele>1904</ele>
        <time>2021-08-13T08:04:35.165Z</time>
      </trkpt>
      <trkpt lat="46.8446" lon="8.43285">
        <ele>1904</ele>
        <time>2021-08-13T08:04:36.164Z</time>
      </trkpt>
      <trkpt lat="46.8446" lon="8.43284">
        <ele>1904</ele>
        <time>2021-08-13T08:04:37.165Z</time>
      </trkpt>
      <trkpt lat="46.8446" lon="8.43282">
        <ele>1903</ele>
        <time>2021-08-13T08:04:38.165Z</time>
      </trkpt>
      <trkpt lat="46.8446" lon="8.43281">
        <ele>1903</ele>
        <time>2021-08-13T08:04:39.164Z</time>
      </trkpt>
      <trkpt lat="46.8446" lon="8.4328">
        <ele>1903</ele>
        <time>2021-08-13T08:04:40.164Z</time>
      </trkpt>
      <trkpt lat="46.84459" lon="8.43278">
        <ele>1903</ele>
        <time>2021-08-13T08:04:41.164Z</time>
      </trkpt>
      <trkpt lat="46.84459" lon="8.43277">
        <ele>1904</ele>
        <time>2021-08-13T08:04:42.165Z</time>
      </trkpt>
      <trkpt lat="46.84459" lon="8.43275">
        <ele>1904</ele>
        <time>2021-08-13T08:04:43.165Z</time>
      </trkpt>
      <trkpt lat="46.84459" lon="8.43273">
        <ele>1904</ele>
        <time>2021-08-13T08:04:44.164Z</time>
      </trkpt>
      <trkpt lat="46.84458" lon="8.43272">
        <ele>1904</ele>
        <time>2021-08-13T08:04:45.164Z</time>
      </trkpt>
      <trkpt lat="46.84458" lon="8.4327">
        <ele>1904</ele>
        <time>2021-08-13T08:04:46.165Z</time>
      </trkpt>
      <trkpt lat="46.84458" lon="8.43268">
        <ele>1904</ele>
        <time>2021-08-13T08:04:47.164Z</time>
      </trkpt>
      <trkpt lat="46.84459" lon="8.43266">
        <ele>1904</ele>
        <time>2021-08-13T08:04:48.165Z</time>
      </trkpt>
      <trkpt lat="46.84459" lon="8.43265">
        <ele>1903</ele>
        <time>2021-08-13T08:04:49.165Z</time>
      </trkpt>
      <trkpt lat="46.84459" lon="8.43264">
        <ele>1903</ele>
        <time>2021-08-13T08:04:50.165Z</time>
      </trkpt>
      <trkpt lat="46.84459" lon="8.43262">
        <ele>1903</ele>
        <time>2021-08-13T08:04:51.165Z</time>
      </trkpt>
      <trkpt lat="46.84459" lon="8.43261">
        <ele>1903</ele>
        <time>2021-08-13T08:04:52.164Z</time>
      </trkpt>
      <trkpt lat="46.8446" lon="8.43259">
        <ele>1903</ele>
        <time>2021-08-13T08:04:53.165Z</time>
      </trkpt>
      <trkpt lat="46.8446" lon="8.43258">
        <ele>1904</ele>
        <time>2021-08-13T08:04:54.165Z</time>
      </trkpt>
      <trkpt lat="46.8446" lon="8.43256">
        <ele>1904</ele>
        <time>2021-08-13T08:04:55.164Z</time>
      </trkpt>
      <trkpt lat="46.84461" lon="8.43255">
        <ele>1904</ele>
        <time>2021-08-13T08:04:56.165Z</time>
      </trkpt>
      <trkpt lat="46.84461" lon="8.43253">
        <ele>1905</ele>
        <time>2021-08-13T08:04:57.165Z</time>
      </trkpt>
      <trkpt lat="46.84461" lon="8.43252">
        <ele>1905</ele>
        <time>2021-08-13T08:04:58.164Z</time>
      </trkpt>
      <trkpt lat="46.84461" lon="8.4325">
        <ele>1906</ele>
        <time>2021-08-13T08:04:59.165Z</time>
      </trkpt>
      <trkpt lat="46.84461" lon="8.43249">
        <ele>1906</ele>
        <time>2021-08-13T08:05:00.165Z</time>
      </trkpt>
      <trkpt lat="46.84461" lon="8.43248">
        <ele>1907</ele>
        <time>2021-08-13T08:05:01.165Z</time>
      </trkpt>
      <trkpt lat="46.84461" lon="8.43247">
        <ele>1907</ele>
        <time>2021-08-13T08:05:02.165Z</time>
      </trkpt>
      <trkpt lat="46.84462" lon="8.43245">
        <ele>1908</ele>
        <time>2021-08-13T08:05:03.165Z</time>
      </trkpt>
      <trkpt lat="46.84462" lon="8.43244">
        <ele>1908</ele>
        <time>2021-08-13T08:05:04.165Z</time>
      </trkpt>
      <trkpt lat="46.84463" lon="8.43243">
        <ele>1909</ele>
        <time>2021-08-13T08:05:05.164Z</time>
      </trkpt>
      <trkpt lat="46.84464" lon="8.43241">
        <ele>1909</ele>
        <time>2021-08-13T08:05:06.165Z</time>
      </trkpt>
      <trkpt lat="46.84464" lon="8.4324">
        <ele>1910</ele>
        <time>2021-08-13T08:05:07.165Z</time>
      </trkpt>
      <trkpt lat="46.84465" lon="8.43239">
        <ele>1911</ele>
        <time>2021-08-13T08:05:08.164Z</time>
      </trkpt>
      <trkpt lat="46.84465" lon="8.43238">
        <ele>1911</ele>
        <time>2021-08-13T08:05:09.165Z</time>
      </trkpt>
      <trkpt lat="46.84466" lon="8.43238">
        <ele>1912</ele>
        <time>2021-08-13T08:05:10.165Z</time>
      </trkpt>
      <trkpt lat="46.84467" lon="8.43237">
        <ele>1912</ele>
        <time>2021-08-13T08:05:11.164Z</time>
      </trkpt>
      <trkpt lat="46.84467" lon="8.43236">
        <ele>1912</ele>
        <time>2021-08-13T08:05:12.165Z</time>
      </trkpt>
      <trkpt lat="46.84468" lon="8.43236">
        <ele>1912</ele>
        <time>2021-08-13T08:05:13.165Z</time>
      </trkpt>
      <trkpt lat="46.84469" lon="8.43235">
        <ele>1913</ele>
        <time>2021-08-13T08:05:14.165Z</time>
      </trkpt>
      <trkpt lat="46.84469" lon="8.43234">
        <ele>1913</ele>
        <time>2021-08-13T08:05:15.164Z</time>
      </trkpt>
      <trkpt lat="46.84469" lon="8.43233">
        <ele>1913</ele>
        <time>2021-08-13T08:05:16.164Z</time>
      </trkpt>
      <trkpt lat="46.84469" lon="8.43231">
        <ele>1913</ele>
        <time>2021-08-13T08:05:17.164Z</time>
      </trkpt>
      <trkpt lat="46.8447" lon="8.4323">
        <ele>1913</ele>
        <time>2021-08-13T08:05:18.165Z</time>
      </trkpt>
      <trkpt lat="46.8447" lon="8.43229">
        <ele>1913</ele>
        <time>2021-08-13T08:05:19.165Z</time>
      </trkpt>
      <trkpt lat="46.8447" lon="8.43227">
        <ele>1913</ele>
        <time>2021-08-13T08:05:20.165Z</time>
      </trkpt>
      <trkpt lat="46.8447" lon="8.43226">
        <ele>1912</ele>
        <time>2021-08-13T08:05:21.164Z</time>
      </trkpt>
      <trkpt lat="46.8447" lon="8.43225">
        <ele>1912</ele>
        <time>2021-08-13T08:05:22.165Z</time>
      </trkpt>
      <trkpt lat="46.8447" lon="8.43224">
        <ele>1912</ele>
        <time>2021-08-13T08:05:23.164Z</time>
      </trkpt>
      <trkpt lat="46.8447" lon="8.43223">
        <ele>1912</ele>
        <time>2021-08-13T08:05:24.164Z</time>
      </trkpt>
      <trkpt lat="46.84471" lon="8.43222">
        <ele>1912</ele>
        <time>2021-08-13T08:05:25.164Z</time>
      </trkpt>
      <trkpt lat="46.84471" lon="8.43221">
        <ele>1912</ele>
        <time>2021-08-13T08:05:26.164Z</time>
      </trkpt>
      <trkpt lat="46.8447" lon="8.4322">
        <ele>1912</ele>
        <time>2021-08-13T08:05:27.165Z</time>
      </trkpt>
      <trkpt lat="46.8447" lon="8.43219">
        <ele>1912</ele>
        <time>2021-08-13T08:05:28.165Z</time>
      </trkpt>
      <trkpt lat="46.84469" lon="8.43219">
        <ele>1913</ele>
        <time>2021-08-13T08:05:29.165Z</time>
      </trkpt>
      <trkpt lat="46.84469" lon="8.43218">
        <ele>1913</ele>
        <time>2021-08-13T08:05:30.165Z</time>
      </trkpt>
      <trkpt lat="46.84469" lon="8.43217">
        <ele>1913</ele>
        <time>2021-08-13T08:05:31.165Z</time>
      </trkpt>
      <trkpt lat="46.84469" lon="8.43216">
        <ele>1914</ele>
        <time>2021-08-13T08:05:32.165Z</time>
      </trkpt>
      <trkpt lat="46.8447" lon="8.43215">
        <ele>1914</ele>
        <time>2021-08-13T08:05:33.165Z</time>
      </trkpt>
      <trkpt lat="46.8447" lon="8.43213">
        <ele>1914</ele>
        <time>2021-08-13T08:05:34.165Z</time>
      </trkpt>
      <trkpt lat="46.8447" lon="8.43211">
        <ele>1915</ele>
        <time>2021-08-13T08:05:35.165Z</time>
      </trkpt>
      <trkpt lat="46.84469" lon="8.4321">
        <ele>1915</ele>
        <time>2021-08-13T08:05:36.165Z</time>
      </trkpt>
      <trkpt lat="46.84468" lon="8.43209">
        <ele>1915</ele>
        <time>2021-08-13T08:05:37.165Z</time>
      </trkpt>
      <trkpt lat="46.84468" lon="8.43207">
        <ele>1915</ele>
        <time>2021-08-13T08:05:38.165Z</time>
      </trkpt>
      <trkpt lat="46.84469" lon="8.43205">
        <ele>1915</ele>
        <time>2021-08-13T08:05:39.165Z</time>
      </trkpt>
      <trkpt lat="46.84469" lon="8.43203">
        <ele>1915</ele>
        <time>2021-08-13T08:05:40.165Z</time>
      </trkpt>
      <trkpt lat="46.8447" lon="8.43202">
        <ele>1915</ele>
        <time>2021-08-13T08:05:41.165Z</time>
      </trkpt>
      <trkpt lat="46.8447" lon="8.432">
        <ele>1915</ele>
        <time>2021-08-13T08:05:42.165Z</time>
      </trkpt>
      <trkpt lat="46.84471" lon="8.43198">
        <ele>1915</ele>
        <time>2021-08-13T08:05:43.165Z</time>
      </trkpt>
      <trkpt lat="46.84472" lon="8.43197">
        <ele>1914</ele>
        <time>2021-08-13T08:05:44.165Z</time>
      </trkpt>
      <trkpt lat="46.84472" lon="8.43196">
        <ele>1914</ele>
        <time>2021-08-13T08:05:45.165Z</time>
      </trkpt>
      <trkpt lat="46.84473" lon="8.43195">
        <ele>1914</ele>
        <time>2021-08-13T08:05:46.165Z</time>
      </trkpt>
      <trkpt lat="46.84473" lon="8.43195">
        <ele>1914</ele>
        <time>2021-08-13T08:05:47.165Z</time>
      </trkpt>
      <trkpt lat="46.84473" lon="8.43194">
        <ele>1915</ele>
        <time>2021-08-13T08:05:48.165Z</time>
      </trkpt>
      <trkpt lat="46.84473" lon="8.43194">
        <ele>1915</ele>
        <time>2021-08-13T08:05:49.165Z</time>
      </trkpt>
      <trkpt lat="46.84472" lon="8.43194">
        <ele>1915</ele>
        <time>2021-08-13T08:05:50.164Z</time>
      </trkpt>
      <trkpt lat="46.84472" lon="8.43195">
        <ele>1915</ele>
        <time>2021-08-13T08:05:51.165Z</time>
      </trkpt>
      <trkpt lat="46.84474" lon="8.43198">
        <ele>1914</ele>
        <time>2021-08-13T08:05:52.165Z</time>
      </trkpt>
      <trkpt lat="46.84474" lon="8.43198">
        <ele>1914</ele>
        <time>2021-08-13T08:05:53.165Z</time>
      </trkpt>
      <trkpt lat="46.84474" lon="8.43198">
        <ele>1913</ele>
        <time>2021-08-13T08:05:54.164Z</time>
      </trkpt>
      <trkpt lat="46.84473" lon="8.43197">
        <ele>1913</ele>
        <time>2021-08-13T08:05:55.164Z</time>
      </trkpt>
      <trkpt lat="46.84473" lon="8.43197">
        <ele>1912</ele>
        <time>2021-08-13T08:05:56.165Z</time>
      </trkpt>
      <trkpt lat="46.84472" lon="8.43197">
        <ele>1911</ele>
        <time>2021-08-13T08:05:57.165Z</time>
      </trkpt>
      <trkpt lat="46.84472" lon="8.43197">
        <ele>1911</ele>
        <time>2021-08-13T08:05:58.165Z</time>
      </trkpt>
      <trkpt lat="46.84471" lon="8.43198">
        <ele>1914</ele>
        <time>2021-08-13T08:05:59.165Z</time>
      </trkpt>
      <trkpt lat="46.8447" lon="8.43197">
        <ele>1914</ele>
        <time>2021-08-13T08:06:00.165Z</time>
      </trkpt>
      <trkpt lat="46.84469" lon="8.43198">
        <ele>1913</ele>
        <time>2021-08-13T08:06:01.166Z</time>
      </trkpt>
      <trkpt lat="46.84469" lon="8.43198">
        <ele>1913</ele>
        <time>2021-08-13T08:06:02.165Z</time>
      </trkpt>
      <trkpt lat="46.84469" lon="8.43199">
        <ele>1914</ele>
        <time>2021-08-13T08:06:03.166Z</time>
      </trkpt>
      <trkpt lat="46.8447" lon="8.43198">
        <ele>1916</ele>
        <time>2021-08-13T08:06:04.165Z</time>
      </trkpt>
      <trkpt lat="46.84471" lon="8.43197">
        <ele>1916</ele>
        <time>2021-08-13T08:06:05.166Z</time>
      </trkpt>
      <trkpt lat="46.8447" lon="8.43197">
        <ele>1916</ele>
        <time>2021-08-13T08:06:06.165Z</time>
      </trkpt>
      <trkpt lat="46.8447" lon="8.43197">
        <ele>1916</ele>
        <time>2021-08-13T08:06:07.165Z</time>
      </trkpt>
      <trkpt lat="46.84471" lon="8.43197">
        <ele>1917</ele>
        <time>2021-08-13T08:06:08.166Z</time>
      </trkpt>
      <trkpt lat="46.84471" lon="8.43197">
        <ele>1917</ele>
        <time>2021-08-13T08:06:09.166Z</time>
      </trkpt>
      <trkpt lat="46.84471" lon="8.43197">
        <ele>1917</ele>
        <time>2021-08-13T08:06:10.166Z</time>
      </trkpt>
      <trkpt lat="46.84472" lon="8.43198">
        <ele>1920</ele>
        <time>2021-08-13T08:06:11.166Z</time>
      </trkpt>
      <trkpt lat="46.84472" lon="8.43198">
        <ele>1920</ele>
        <time>2021-08-13T08:06:12.167Z</time>
      </trkpt>
      <trkpt lat="46.84472" lon="8.43198">
        <ele>1920</ele>
        <time>2021-08-13T08:06:13.167Z</time>
      </trkpt>
      <trkpt lat="46.84472" lon="8.43199">
        <ele>1920</ele>
        <time>2021-08-13T08:06:14.166Z</time>
      </trkpt>
      <trkpt lat="46.84473" lon="8.43199">
        <ele>1918</ele>
        <time>2021-08-13T08:06:15.167Z</time>
      </trkpt>
      <trkpt lat="46.84473" lon="8.43199">
        <ele>1918</ele>
        <time>2021-08-13T08:06:16.167Z</time>
      </trkpt>
      <trkpt lat="46.84473" lon="8.43198">
        <ele>1917</ele>
        <time>2021-08-13T08:06:17.166Z</time>
      </trkpt>
      <trkpt lat="46.84473" lon="8.43199">
        <ele>1917</ele>
        <time>2021-08-13T08:06:18.166Z</time>
      </trkpt>
      <trkpt lat="46.84473" lon="8.43198">
        <ele>1917</ele>
        <time>2021-08-13T08:06:19.166Z</time>
      </trkpt>
      <trkpt lat="46.84473" lon="8.43198">
        <ele>1916</ele>
        <time>2021-08-13T08:06:20.168Z</time>
      </trkpt>
      <trkpt lat="46.84472" lon="8.43198">
        <ele>1916</ele>
        <time>2021-08-13T08:06:21.167Z</time>
      </trkpt>
      <trkpt lat="46.84473" lon="8.43198">
        <ele>1916</ele>
        <time>2021-08-13T08:06:22.168Z</time>
      </trkpt>
      <trkpt lat="46.84473" lon="8.43197">
        <ele>1916</ele>
        <time>2021-08-13T08:06:23.167Z</time>
      </trkpt>
      <trkpt lat="46.84473" lon="8.43196">
        <ele>1916</ele>
        <time>2021-08-13T08:06:24.168Z</time>
      </trkpt>
      <trkpt lat="46.84473" lon="8.43195">
        <ele>1916</ele>
        <time>2021-08-13T08:06:25.168Z</time>
      </trkpt>
      <trkpt lat="46.84473" lon="8.43193">
        <ele>1916</ele>
        <time>2021-08-13T08:06:26.168Z</time>
      </trkpt>
      <trkpt lat="46.84473" lon="8.43193">
        <ele>1916</ele>
        <time>2021-08-13T08:06:27.168Z</time>
      </trkpt>
      <trkpt lat="46.84473" lon="8.43192">
        <ele>1916</ele>
        <time>2021-08-13T08:06:28.168Z</time>
      </trkpt>
      <trkpt lat="46.84473" lon="8.43191">
        <ele>1916</ele>
        <time>2021-08-13T08:06:29.168Z</time>
      </trkpt>
      <trkpt lat="46.84473" lon="8.43191">
        <ele>1916</ele>
        <time>2021-08-13T08:06:30.167Z</time>
      </trkpt>
      <trkpt lat="46.84472" lon="8.43191">
        <ele>1916</ele>
        <time>2021-08-13T08:06:31.167Z</time>
      </trkpt>
      <trkpt lat="46.84471" lon="8.4319">
        <ele>1915</ele>
        <time>2021-08-13T08:06:32.168Z</time>
      </trkpt>
      <trkpt lat="46.84471" lon="8.4319">
        <ele>1915</ele>
        <time>2021-08-13T08:06:33.168Z</time>
      </trkpt>
      <trkpt lat="46.8447" lon="8.43189">
        <ele>1915</ele>
        <time>2021-08-13T08:06:34.168Z</time>
      </trkpt>
      <trkpt lat="46.8447" lon="8.43188">
        <ele>1914</ele>
        <time>2021-08-13T08:06:35.168Z</time>
      </trkpt>
      <trkpt lat="46.84469" lon="8.43188">
        <ele>1914</ele>
        <time>2021-08-13T08:06:36.168Z</time>
      </trkpt>
      <trkpt lat="46.84469" lon="8.43187">
        <ele>1914</ele>
        <time>2021-08-13T08:06:37.168Z</time>
      </trkpt>
      <trkpt lat="46.84468" lon="8.43186">
        <ele>1913</ele>
        <time>2021-08-13T08:06:38.167Z</time>
      </trkpt>
      <trkpt lat="46.84467" lon="8.43186">
        <ele>1913</ele>
        <time>2021-08-13T08:06:39.167Z</time>
      </trkpt>
      <trkpt lat="46.84466" lon="8.43185">
        <ele>1912</ele>
        <time>2021-08-13T08:06:40.168Z</time>
      </trkpt>
      <trkpt lat="46.84465" lon="8.43184">
        <ele>1912</ele>
        <time>2021-08-13T08:06:41.167Z</time>
      </trkpt>
      <trkpt lat="46.84464" lon="8.43183">
        <ele>1912</ele>
        <time>2021-08-13T08:06:42.167Z</time>
      </trkpt>
      <trkpt lat="46.84463" lon="8.43182">
        <ele>1912</ele>
        <time>2021-08-13T08:06:43.168Z</time>
      </trkpt>
      <trkpt lat="46.84463" lon="8.43182">
        <ele>1912</ele>
        <time>2021-08-13T08:06:44.167Z</time>
      </trkpt>
      <trkpt lat="46.84462" lon="8.43181">
        <ele>1912</ele>
        <time>2021-08-13T08:06:45.167Z</time>
      </trkpt>
      <trkpt lat="46.84461" lon="8.4318">
        <ele>1911</ele>
        <time>2021-08-13T08:06:46.168Z</time>
      </trkpt>
      <trkpt lat="46.8446" lon="8.43179">
        <ele>1911</ele>
        <time>2021-08-13T08:06:47.168Z</time>
      </trkpt>
      <trkpt lat="46.84459" lon="8.43178">
        <ele>1910</ele>
        <time>2021-08-13T08:06:48.168Z</time>
      </trkpt>
      <trkpt lat="46.84459" lon="8.43177">
        <ele>1910</ele>
        <time>2021-08-13T08:06:49.168Z</time>
      </trkpt>
      <trkpt lat="46.84458" lon="8.43176">
        <ele>1909</ele>
        <time>2021-08-13T08:06:50.168Z</time>
      </trkpt>
      <trkpt lat="46.84457" lon="8.43175">
        <ele>1909</ele>
        <time>2021-08-13T08:06:51.167Z</time>
      </trkpt>
      <trkpt lat="46.84456" lon="8.43175">
        <ele>1908</ele>
        <time>2021-08-13T08:06:52.167Z</time>
      </trkpt>
      <trkpt lat="46.84455" lon="8.43174">
        <ele>1908</ele>
        <time>2021-08-13T08:06:53.167Z</time>
      </trkpt>
      <trkpt lat="46.84454" lon="8.43173">
        <ele>1907</ele>
        <time>2021-08-13T08:06:54.167Z</time>
      </trkpt>
      <trkpt lat="46.84453" lon="8.43172">
        <ele>1907</ele>
        <time>2021-08-13T08:06:55.167Z</time>
      </trkpt>
      <trkpt lat="46.84452" lon="8.43171">
        <ele>1906</ele>
        <time>2021-08-13T08:06:56.167Z</time>
      </trkpt>
      <trkpt lat="46.84452" lon="8.4317">
        <ele>1905</ele>
        <time>2021-08-13T08:06:57.167Z</time>
      </trkpt>
      <trkpt lat="46.84451" lon="8.43169">
        <ele>1905</ele>
        <time>2021-08-13T08:06:58.167Z</time>
      </trkpt>
      <trkpt lat="46.8445" lon="8.43168">
        <ele>1905</ele>
        <time>2021-08-13T08:06:59.167Z</time>
      </trkpt>
      <trkpt lat="46.84449" lon="8.43166">
        <ele>1904</ele>
        <time>2021-08-13T08:07:00.167Z</time>
      </trkpt>
      <trkpt lat="46.84449" lon="8.43165">
        <ele>1904</ele>
        <time>2021-08-13T08:07:01.167Z</time>
      </trkpt>
      <trkpt lat="46.84449" lon="8.43163">
        <ele>1904</ele>
        <time>2021-08-13T08:07:02.167Z</time>
      </trkpt>
      <trkpt lat="46.84448" lon="8.43162">
        <ele>1904</ele>
        <time>2021-08-13T08:07:03.167Z</time>
      </trkpt>
      <trkpt lat="46.84448" lon="8.43161">
        <ele>1904</ele>
        <time>2021-08-13T08:07:04.167Z</time>
      </trkpt>
      <trkpt lat="46.84447" lon="8.43159">
        <ele>1904</ele>
        <time>2021-08-13T08:07:05.167Z</time>
      </trkpt>
      <trkpt lat="46.84447" lon="8.43158">
        <ele>1905</ele>
        <time>2021-08-13T08:07:06.167Z</time>
      </trkpt>
      <trkpt lat="46.84447" lon="8.43156">
        <ele>1905</ele>
        <time>2021-08-13T08:07:07.167Z</time>
      </trkpt>
      <trkpt lat="46.84447" lon="8.43154">
        <ele>1906</ele>
        <time>2021-08-13T08:07:08.167Z</time>
      </trkpt>
      <trkpt lat="46.84447" lon="8.43152">
        <ele>1906</ele>
        <time>2021-08-13T08:07:09.167Z</time>
      </trkpt>
      <trkpt lat="46.84446" lon="8.4315">
        <ele>1906</ele>
        <time>2021-08-13T08:07:10.168Z</time>
      </trkpt>
      <trkpt lat="46.84445" lon="8.43147">
        <ele>1905</ele>
        <time>2021-08-13T08:07:11.167Z</time>
      </trkpt>
      <trkpt lat="46.84445" lon="8.43145">
        <ele>1905</ele>
        <time>2021-08-13T08:07:12.167Z</time>
      </trkpt>
      <trkpt lat="46.84445" lon="8.43143">
        <ele>1904</ele>
        <time>2021-08-13T08:07:13.167Z</time>
      </trkpt>
      <trkpt lat="46.84445" lon="8.43142">
        <ele>1903</ele>
        <time>2021-08-13T08:07:14.167Z</time>
      </trkpt>
      <trkpt lat="46.84444" lon="8.4314">
        <ele>1903</ele>
        <time>2021-08-13T08:07:15.168Z</time>
      </trkpt>
      <trkpt lat="46.84444" lon="8.43139">
        <ele>1902</ele>
        <time>2021-08-13T08:07:16.167Z</time>
      </trkpt>
      <trkpt lat="46.84443" lon="8.43138">
        <ele>1902</ele>
        <time>2021-08-13T08:07:17.167Z</time>
      </trkpt>
      <trkpt lat="46.84442" lon="8.43137">
        <ele>1902</ele>
        <time>2021-08-13T08:07:18.167Z</time>
      </trkpt>
      <trkpt lat="46.84442" lon="8.43136">
        <ele>1902</ele>
        <time>2021-08-13T08:07:19.167Z</time>
      </trkpt>
      <trkpt lat="46.84441" lon="8.43135">
        <ele>1902</ele>
        <time>2021-08-13T08:07:20.167Z</time>
      </trkpt>
      <trkpt lat="46.84441" lon="8.43134">
        <ele>1901</ele>
        <time>2021-08-13T08:07:21.167Z</time>
      </trkpt>
      <trkpt lat="46.8444" lon="8.43133">
        <ele>1901</ele>
        <time>2021-08-13T08:07:22.167Z</time>
      </trkpt>
      <trkpt lat="46.8444" lon="8.43132">
        <ele>1900</ele>
        <time>2021-08-13T08:07:23.167Z</time>
      </trkpt>
      <trkpt lat="46.84439" lon="8.43131">
        <ele>1900</ele>
        <time>2021-08-13T08:07:24.167Z</time>
      </trkpt>
      <trkpt lat="46.84438" lon="8.4313">
        <ele>1900</ele>
        <time>2021-08-13T08:07:25.167Z</time>
      </trkpt>
      <trkpt lat="46.84438" lon="8.43129">
        <ele>1899</ele>
        <time>2021-08-13T08:07:26.167Z</time>
      </trkpt>
      <trkpt lat="46.84437" lon="8.43128">
        <ele>1899</ele>
        <time>2021-08-13T08:07:27.168Z</time>
      </trkpt>
      <trkpt lat="46.84436" lon="8.43128">
        <ele>1899</ele>
        <time>2021-08-13T08:07:28.167Z</time>
      </trkpt>
      <trkpt lat="46.84436" lon="8.43127">
        <ele>1898</ele>
        <time>2021-08-13T08:07:29.167Z</time>
      </trkpt>
      <trkpt lat="46.84434" lon="8.43127">
        <ele>1898</ele>
        <time>2021-08-13T08:07:30.167Z</time>
      </trkpt>
      <trkpt lat="46.84433" lon="8.43127">
        <ele>1898</ele>
        <time>2021-08-13T08:07:31.167Z</time>
      </trkpt>
      <trkpt lat="46.84432" lon="8.43128">
        <ele>1898</ele>
        <time>2021-08-13T08:07:32.167Z</time>
      </trkpt>
      <trkpt lat="46.84431" lon="8.43128">
        <ele>1898</ele>
        <time>2021-08-13T08:07:33.168Z</time>
      </trkpt>
      <trkpt lat="46.8443" lon="8.43129">
        <ele>1898</ele>
        <time>2021-08-13T08:07:34.167Z</time>
      </trkpt>
      <trkpt lat="46.84429" lon="8.43129">
        <ele>1899</ele>
        <time>2021-08-13T08:07:35.168Z</time>
      </trkpt>
      <trkpt lat="46.84428" lon="8.4313">
        <ele>1899</ele>
        <time>2021-08-13T08:07:36.167Z</time>
      </trkpt>
      <trkpt lat="46.84427" lon="8.4313">
        <ele>1899</ele>
        <time>2021-08-13T08:07:37.168Z</time>
      </trkpt>
      <trkpt lat="46.84426" lon="8.4313">
        <ele>1899</ele>
        <time>2021-08-13T08:07:38.168Z</time>
      </trkpt>
      <trkpt lat="46.84424" lon="8.43129">
        <ele>1899</ele>
        <time>2021-08-13T08:07:39.168Z</time>
      </trkpt>
      <trkpt lat="46.84423" lon="8.43128">
        <ele>1900</ele>
        <time>2021-08-13T08:07:40.168Z</time>
      </trkpt>
      <trkpt lat="46.84422" lon="8.43127">
        <ele>1899</ele>
        <time>2021-08-13T08:07:41.168Z</time>
      </trkpt>
      <trkpt lat="46.84421" lon="8.43126">
        <ele>1899</ele>
        <time>2021-08-13T08:07:42.168Z</time>
      </trkpt>
      <trkpt lat="46.8442" lon="8.43126">
        <ele>1898</ele>
        <time>2021-08-13T08:07:43.168Z</time>
      </trkpt>
      <trkpt lat="46.8442" lon="8.43125">
        <ele>1898</ele>
        <time>2021-08-13T08:07:44.167Z</time>
      </trkpt>
      <trkpt lat="46.84418" lon="8.43124">
        <ele>1898</ele>
        <time>2021-08-13T08:07:45.168Z</time>
      </trkpt>
      <trkpt lat="46.84417" lon="8.43123">
        <ele>1897</ele>
        <time>2021-08-13T08:07:46.168Z</time>
      </trkpt>
      <trkpt lat="46.84416" lon="8.43122">
        <ele>1896</ele>
        <time>2021-08-13T08:07:47.168Z</time>
      </trkpt>
      <trkpt lat="46.84415" lon="8.43121">
        <ele>1895</ele>
        <time>2021-08-13T08:07:48.168Z</time>
      </trkpt>
      <trkpt lat="46.84414" lon="8.4312">
        <ele>1895</ele>
        <time>2021-08-13T08:07:49.167Z</time>
      </trkpt>
      <trkpt lat="46.84414" lon="8.43119">
        <ele>1895</ele>
        <time>2021-08-13T08:07:50.168Z</time>
      </trkpt>
      <trkpt lat="46.84413" lon="8.43118">
        <ele>1895</ele>
        <time>2021-08-13T08:07:51.168Z</time>
      </trkpt>
      <trkpt lat="46.84413" lon="8.43117">
        <ele>1895</ele>
        <time>2021-08-13T08:07:52.168Z</time>
      </trkpt>
      <trkpt lat="46.84413" lon="8.43116">
        <ele>1894</ele>
        <time>2021-08-13T08:07:53.167Z</time>
      </trkpt>
      <trkpt lat="46.84413" lon="8.43115">
        <ele>1894</ele>
        <time>2021-08-13T08:07:54.168Z</time>
      </trkpt>
      <trkpt lat="46.84413" lon="8.43113">
        <ele>1894</ele>
        <time>2021-08-13T08:07:55.168Z</time>
      </trkpt>
      <trkpt lat="46.84413" lon="8.43112">
        <ele>1893</ele>
        <time>2021-08-13T08:07:56.168Z</time>
      </trkpt>
      <trkpt lat="46.84412" lon="8.43111">
        <ele>1893</ele>
        <time>2021-08-13T08:07:57.168Z</time>
      </trkpt>
      <trkpt lat="46.84412" lon="8.4311">
        <ele>1893</ele>
        <time>2021-08-13T08:07:58.168Z</time>
      </trkpt>
      <trkpt lat="46.84411" lon="8.43109">
        <ele>1893</ele>
        <time>2021-08-13T08:07:59.168Z</time>
      </trkpt>
      <trkpt lat="46.84411" lon="8.43108">
        <ele>1893</ele>
        <time>2021-08-13T08:08:00.168Z</time>
      </trkpt>
      <trkpt lat="46.8441" lon="8.43107">
        <ele>1894</ele>
        <time>2021-08-13T08:08:01.168Z</time>
      </trkpt>
      <trkpt lat="46.84409" lon="8.43106">
        <ele>1894</ele>
        <time>2021-08-13T08:08:02.168Z</time>
      </trkpt>
      <trkpt lat="46.84409" lon="8.43105">
        <ele>1894</ele>
        <time>2021-08-13T08:08:03.168Z</time>
      </trkpt>
      <trkpt lat="46.84408" lon="8.43103">
        <ele>1894</ele>
        <time>2021-08-13T08:08:04.167Z</time>
      </trkpt>
      <trkpt lat="46.84407" lon="8.43102">
        <ele>1893</ele>
        <time>2021-08-13T08:08:05.168Z</time>
      </trkpt>
      <trkpt lat="46.84406" lon="8.43101">
        <ele>1894</ele>
        <time>2021-08-13T08:08:06.167Z</time>
      </trkpt>
      <trkpt lat="46.84405" lon="8.431">
        <ele>1894</ele>
        <time>2021-08-13T08:08:07.168Z</time>
      </trkpt>
      <trkpt lat="46.84405" lon="8.431">
        <ele>1894</ele>
        <time>2021-08-13T08:08:08.167Z</time>
      </trkpt>
      <trkpt lat="46.84404" lon="8.43099">
        <ele>1894</ele>
        <time>2021-08-13T08:08:09.167Z</time>
      </trkpt>
      <trkpt lat="46.84403" lon="8.43098">
        <ele>1894</ele>
        <time>2021-08-13T08:08:10.167Z</time>
      </trkpt>
      <trkpt lat="46.84403" lon="8.43097">
        <ele>1894</ele>
        <time>2021-08-13T08:08:11.168Z</time>
      </trkpt>
      <trkpt lat="46.84402" lon="8.43097">
        <ele>1894</ele>
        <time>2021-08-13T08:08:12.168Z</time>
      </trkpt>
      <trkpt lat="46.84402" lon="8.43097">
        <ele>1894</ele>
        <time>2021-08-13T08:08:13.168Z</time>
      </trkpt>
      <trkpt lat="46.84401" lon="8.43097">
        <ele>1894</ele>
        <time>2021-08-13T08:08:14.167Z</time>
      </trkpt>
      <trkpt lat="46.844" lon="8.43096">
        <ele>1894</ele>
        <time>2021-08-13T08:08:15.168Z</time>
      </trkpt>
      <trkpt lat="46.844" lon="8.43096">
        <ele>1895</ele>
        <time>2021-08-13T08:08:16.168Z</time>
      </trkpt>
      <trkpt lat="46.84399" lon="8.43095">
        <ele>1895</ele>
        <time>2021-08-13T08:08:17.167Z</time>
      </trkpt>
      <trkpt lat="46.84399" lon="8.43094">
        <ele>1896</ele>
        <time>2021-08-13T08:08:18.167Z</time>
      </trkpt>
      <trkpt lat="46.84399" lon="8.43093">
        <ele>1897</ele>
        <time>2021-08-13T08:08:19.167Z</time>
      </trkpt>
      <trkpt lat="46.84398" lon="8.43092">
        <ele>1898</ele>
        <time>2021-08-13T08:08:20.167Z</time>
      </trkpt>
      <trkpt lat="46.84398" lon="8.43091">
        <ele>1898</ele>
        <time>2021-08-13T08:08:21.167Z</time>
      </trkpt>
      <trkpt lat="46.84398" lon="8.43088">
        <ele>1898</ele>
        <time>2021-08-13T08:08:22.167Z</time>
      </trkpt>
      <trkpt lat="46.84399" lon="8.43086">
        <ele>1898</ele>
        <time>2021-08-13T08:08:23.168Z</time>
      </trkpt>
      <trkpt lat="46.84399" lon="8.43084">
        <ele>1897</ele>
        <time>2021-08-13T08:08:24.168Z</time>
      </trkpt>
      <trkpt lat="46.844" lon="8.43081">
        <ele>1897</ele>
        <time>2021-08-13T08:08:25.168Z</time>
      </trkpt>
      <trkpt lat="46.844" lon="8.4308">
        <ele>1897</ele>
        <time>2021-08-13T08:08:26.168Z</time>
      </trkpt>
      <trkpt lat="46.844" lon="8.43078">
        <ele>1898</ele>
        <time>2021-08-13T08:08:27.168Z</time>
      </trkpt>
      <trkpt lat="46.84401" lon="8.43077">
        <ele>1898</ele>
        <time>2021-08-13T08:08:28.167Z</time>
      </trkpt>
      <trkpt lat="46.84401" lon="8.43076">
        <ele>1898</ele>
        <time>2021-08-13T08:08:29.168Z</time>
      </trkpt>
      <trkpt lat="46.84401" lon="8.43075">
        <ele>1898</ele>
        <time>2021-08-13T08:08:30.167Z</time>
      </trkpt>
      <trkpt lat="46.84401" lon="8.43074">
        <ele>1898</ele>
        <time>2021-08-13T08:08:31.168Z</time>
      </trkpt>
      <trkpt lat="46.84401" lon="8.43072">
        <ele>1898</ele>
        <time>2021-08-13T08:08:32.168Z</time>
      </trkpt>
      <trkpt lat="46.84401" lon="8.43071">
        <ele>1898</ele>
        <time>2021-08-13T08:08:33.167Z</time>
      </trkpt>
      <trkpt lat="46.84401" lon="8.43069">
        <ele>1898</ele>
        <time>2021-08-13T08:08:34.168Z</time>
      </trkpt>
      <trkpt lat="46.844" lon="8.43068">
        <ele>1898</ele>
        <time>2021-08-13T08:08:35.167Z</time>
      </trkpt>
      <trkpt lat="46.84399" lon="8.43066">
        <ele>1898</ele>
        <time>2021-08-13T08:08:36.168Z</time>
      </trkpt>
      <trkpt lat="46.84399" lon="8.43064">
        <ele>1898</ele>
        <time>2021-08-13T08:08:37.168Z</time>
      </trkpt>
      <trkpt lat="46.84398" lon="8.43063">
        <ele>1898</ele>
        <time>2021-08-13T08:08:38.168Z</time>
      </trkpt>
      <trkpt lat="46.84397" lon="8.43062">
        <ele>1898</ele>
        <time>2021-08-13T08:08:39.168Z</time>
      </trkpt>
      <trkpt lat="46.84397" lon="8.4306">
        <ele>1898</ele>
        <time>2021-08-13T08:08:40.167Z</time>
      </trkpt>
      <trkpt lat="46.84396" lon="8.43059">
        <ele>1897</ele>
        <time>2021-08-13T08:08:41.168Z</time>
      </trkpt>
      <trkpt lat="46.84396" lon="8.43057">
        <ele>1897</ele>
        <time>2021-08-13T08:08:42.167Z</time>
      </trkpt>
      <trkpt lat="46.84395" lon="8.43055">
        <ele>1897</ele>
        <time>2021-08-13T08:08:43.168Z</time>
      </trkpt>
      <trkpt lat="46.84395" lon="8.43054">
        <ele>1897</ele>
        <time>2021-08-13T08:08:44.167Z</time>
      </trkpt>
      <trkpt lat="46.84394" lon="8.43053">
        <ele>1897</ele>
        <time>2021-08-13T08:08:45.167Z</time>
      </trkpt>
      <trkpt lat="46.84394" lon="8.43052">
        <ele>1897</ele>
        <time>2021-08-13T08:08:46.167Z</time>
      </trkpt>
      <trkpt lat="46.84393" lon="8.43051">
        <ele>1897</ele>
        <time>2021-08-13T08:08:47.167Z</time>
      </trkpt>
      <trkpt lat="46.84393" lon="8.43051">
        <ele>1897</ele>
        <time>2021-08-13T08:08:48.167Z</time>
      </trkpt>
      <trkpt lat="46.84392" lon="8.4305">
        <ele>1897</ele>
        <time>2021-08-13T08:08:49.168Z</time>
      </trkpt>
      <trkpt lat="46.84392" lon="8.4305">
        <ele>1897</ele>
        <time>2021-08-13T08:08:50.167Z</time>
      </trkpt>
      <trkpt lat="46.84392" lon="8.4305">
        <ele>1897</ele>
        <time>2021-08-13T08:08:51.167Z</time>
      </trkpt>
      <trkpt lat="46.84392" lon="8.43051">
        <ele>1897</ele>
        <time>2021-08-13T08:08:52.167Z</time>
      </trkpt>
      <trkpt lat="46.84391" lon="8.4305">
        <ele>1897</ele>
        <time>2021-08-13T08:08:53.168Z</time>
      </trkpt>
      <trkpt lat="46.8439" lon="8.43049">
        <ele>1897</ele>
        <time>2021-08-13T08:08:54.168Z</time>
      </trkpt>
      <trkpt lat="46.8439" lon="8.43048">
        <ele>1898</ele>
        <time>2021-08-13T08:08:55.168Z</time>
      </trkpt>
      <trkpt lat="46.84388" lon="8.43047">
        <ele>1898</ele>
        <time>2021-08-13T08:08:56.167Z</time>
      </trkpt>
      <trkpt lat="46.84387" lon="8.43046">
        <ele>1898</ele>
        <time>2021-08-13T08:08:57.168Z</time>
      </trkpt>
      <trkpt lat="46.84387" lon="8.43045">
        <ele>1898</ele>
        <time>2021-08-13T08:08:58.168Z</time>
      </trkpt>
      <trkpt lat="46.84387" lon="8.43045">
        <ele>1898</ele>
        <time>2021-08-13T08:08:59.167Z</time>
      </trkpt>
      <trkpt lat="46.84387" lon="8.43045">
        <ele>1898</ele>
        <time>2021-08-13T08:09:00.168Z</time>
      </trkpt>
      <trkpt lat="46.84387" lon="8.43044">
        <ele>1899</ele>
        <time>2021-08-13T08:09:01.167Z</time>
      </trkpt>
      <trkpt lat="46.84387" lon="8.43044">
        <ele>1898</ele>
        <time>2021-08-13T08:09:02.168Z</time>
      </trkpt>
      <trkpt lat="46.84387" lon="8.43043">
        <ele>1898</ele>
        <time>2021-08-13T08:09:03.168Z</time>
      </trkpt>
      <trkpt lat="46.84387" lon="8.43042">
        <ele>1898</ele>
        <time>2021-08-13T08:09:04.168Z</time>
      </trkpt>
      <trkpt lat="46.84386" lon="8.43042">
        <ele>1897</ele>
        <time>2021-08-13T08:09:05.168Z</time>
      </trkpt>
      <trkpt lat="46.84386" lon="8.43042">
        <ele>1896</ele>
        <time>2021-08-13T08:09:06.168Z</time>
      </trkpt>
      <trkpt lat="46.84386" lon="8.43042">
        <ele>1896</ele>
        <time>2021-08-13T08:09:07.167Z</time>
      </trkpt>
      <trkpt lat="46.84386" lon="8.43042">
        <ele>1896</ele>
        <time>2021-08-13T08:09:08.167Z</time>
      </trkpt>
      <trkpt lat="46.84386" lon="8.43041">
        <ele>1896</ele>
        <time>2021-08-13T08:09:09.170Z</time>
      </trkpt>
      <trkpt lat="46.84385" lon="8.4304">
        <ele>1896</ele>
        <time>2021-08-13T08:09:10.170Z</time>
      </trkpt>
      <trkpt lat="46.84385" lon="8.43039">
        <ele>1896</ele>
        <time>2021-08-13T08:09:11.170Z</time>
      </trkpt>
      <trkpt lat="46.84385" lon="8.43038">
        <ele>1896</ele>
        <time>2021-08-13T08:09:12.169Z</time>
      </trkpt>
      <trkpt lat="46.84385" lon="8.43037">
        <ele>1895</ele>
        <time>2021-08-13T08:09:13.169Z</time>
      </trkpt>
      <trkpt lat="46.84384" lon="8.43035">
        <ele>1895</ele>
        <time>2021-08-13T08:09:14.170Z</time>
      </trkpt>
      <trkpt lat="46.84383" lon="8.43033">
        <ele>1895</ele>
        <time>2021-08-13T08:09:15.170Z</time>
      </trkpt>
      <trkpt lat="46.84382" lon="8.43031">
        <ele>1894</ele>
        <time>2021-08-13T08:09:16.170Z</time>
      </trkpt>
      <trkpt lat="46.84381" lon="8.43029">
        <ele>1894</ele>
        <time>2021-08-13T08:09:17.170Z</time>
      </trkpt>
      <trkpt lat="46.8438" lon="8.43027">
        <ele>1894</ele>
        <time>2021-08-13T08:09:18.170Z</time>
      </trkpt>
      <trkpt lat="46.84379" lon="8.43025">
        <ele>1894</ele>
        <time>2021-08-13T08:09:19.170Z</time>
      </trkpt>
      <trkpt lat="46.84379" lon="8.43024">
        <ele>1895</ele>
        <time>2021-08-13T08:09:20.169Z</time>
      </trkpt>
      <trkpt lat="46.84378" lon="8.43023">
        <ele>1895</ele>
        <time>2021-08-13T08:09:21.170Z</time>
      </trkpt>
      <trkpt lat="46.84378" lon="8.43021">
        <ele>1895</ele>
        <time>2021-08-13T08:09:22.170Z</time>
      </trkpt>
      <trkpt lat="46.84378" lon="8.4302">
        <ele>1895</ele>
        <time>2021-08-13T08:09:23.170Z</time>
      </trkpt>
      <trkpt lat="46.84378" lon="8.43018">
        <ele>1895</ele>
        <time>2021-08-13T08:09:24.170Z</time>
      </trkpt>
      <trkpt lat="46.84377" lon="8.43016">
        <ele>1895</ele>
        <time>2021-08-13T08:09:25.170Z</time>
      </trkpt>
      <trkpt lat="46.84376" lon="8.43014">
        <ele>1895</ele>
        <time>2021-08-13T08:09:26.169Z</time>
      </trkpt>
      <trkpt lat="46.84375" lon="8.43012">
        <ele>1895</ele>
        <time>2021-08-13T08:09:27.170Z</time>
      </trkpt>
      <trkpt lat="46.84374" lon="8.43009">
        <ele>1895</ele>
        <time>2021-08-13T08:09:28.170Z</time>
      </trkpt>
      <trkpt lat="46.84373" lon="8.43007">
        <ele>1895</ele>
        <time>2021-08-13T08:09:29.170Z</time>
      </trkpt>
      <trkpt lat="46.84373" lon="8.43006">
        <ele>1894</ele>
        <time>2021-08-13T08:09:30.170Z</time>
      </trkpt>
      <trkpt lat="46.84373" lon="8.43004">
        <ele>1894</ele>
        <time>2021-08-13T08:09:31.170Z</time>
      </trkpt>
      <trkpt lat="46.84373" lon="8.43002">
        <ele>1893</ele>
        <time>2021-08-13T08:09:32.169Z</time>
      </trkpt>
      <trkpt lat="46.84372" lon="8.43">
        <ele>1892</ele>
        <time>2021-08-13T08:09:33.170Z</time>
      </trkpt>
      <trkpt lat="46.84372" lon="8.42999">
        <ele>1892</ele>
        <time>2021-08-13T08:09:34.170Z</time>
      </trkpt>
      <trkpt lat="46.84371" lon="8.42997">
        <ele>1891</ele>
        <time>2021-08-13T08:09:35.169Z</time>
      </trkpt>
      <trkpt lat="46.8437" lon="8.42996">
        <ele>1890</ele>
        <time>2021-08-13T08:09:36.170Z</time>
      </trkpt>
      <trkpt lat="46.84369" lon="8.42994">
        <ele>1890</ele>
        <time>2021-08-13T08:09:37.170Z</time>
      </trkpt>
      <trkpt lat="46.84368" lon="8.42993">
        <ele>1889</ele>
        <time>2021-08-13T08:09:38.170Z</time>
      </trkpt>
      <trkpt lat="46.84368" lon="8.42991">
        <ele>1889</ele>
        <time>2021-08-13T08:09:39.170Z</time>
      </trkpt>
      <trkpt lat="46.84367" lon="8.4299">
        <ele>1889</ele>
        <time>2021-08-13T08:09:40.170Z</time>
      </trkpt>
      <trkpt lat="46.84366" lon="8.42989">
        <ele>1889</ele>
        <time>2021-08-13T08:09:41.170Z</time>
      </trkpt>
      <trkpt lat="46.84365" lon="8.42987">
        <ele>1888</ele>
        <time>2021-08-13T08:09:42.170Z</time>
      </trkpt>
      <trkpt lat="46.84365" lon="8.42986">
        <ele>1888</ele>
        <time>2021-08-13T08:09:43.170Z</time>
      </trkpt>
      <trkpt lat="46.84364" lon="8.42985">
        <ele>1887</ele>
        <time>2021-08-13T08:09:44.170Z</time>
      </trkpt>
      <trkpt lat="46.84363" lon="8.42984">
        <ele>1886</ele>
        <time>2021-08-13T08:09:45.170Z</time>
      </trkpt>
      <trkpt lat="46.84362" lon="8.42984">
        <ele>1886</ele>
        <time>2021-08-13T08:09:46.170Z</time>
      </trkpt>
      <trkpt lat="46.84362" lon="8.42983">
        <ele>1886</ele>
        <time>2021-08-13T08:09:47.169Z</time>
      </trkpt>
      <trkpt lat="46.84361" lon="8.42982">
        <ele>1885</ele>
        <time>2021-08-13T08:09:48.170Z</time>
      </trkpt>
      <trkpt lat="46.8436" lon="8.42982">
        <ele>1885</ele>
        <time>2021-08-13T08:09:49.170Z</time>
      </trkpt>
      <trkpt lat="46.84359" lon="8.42981">
        <ele>1885</ele>
        <time>2021-08-13T08:09:50.170Z</time>
      </trkpt>
      <trkpt lat="46.84358" lon="8.4298">
        <ele>1885</ele>
        <time>2021-08-13T08:09:51.169Z</time>
      </trkpt>
      <trkpt lat="46.84357" lon="8.42981">
        <ele>1885</ele>
        <time>2021-08-13T08:09:52.169Z</time>
      </trkpt>
      <trkpt lat="46.84356" lon="8.4298">
        <ele>1885</ele>
        <time>2021-08-13T08:09:53.169Z</time>
      </trkpt>
      <trkpt lat="46.84355" lon="8.4298">
        <ele>1885</ele>
        <time>2021-08-13T08:09:54.169Z</time>
      </trkpt>
      <trkpt lat="46.84354" lon="8.42979">
        <ele>1885</ele>
        <time>2021-08-13T08:09:55.169Z</time>
      </trkpt>
      <trkpt lat="46.84354" lon="8.42978">
        <ele>1885</ele>
        <time>2021-08-13T08:09:56.169Z</time>
      </trkpt>
      <trkpt lat="46.84353" lon="8.42976">
        <ele>1884</ele>
        <time>2021-08-13T08:09:57.169Z</time>
      </trkpt>
      <trkpt lat="46.84352" lon="8.42975">
        <ele>1884</ele>
        <time>2021-08-13T08:09:58.170Z</time>
      </trkpt>
      <trkpt lat="46.84352" lon="8.42974">
        <ele>1884</ele>
        <time>2021-08-13T08:09:59.169Z</time>
      </trkpt>
      <trkpt lat="46.84351" lon="8.42973">
        <ele>1884</ele>
        <time>2021-08-13T08:10:00.169Z</time>
      </trkpt>
      <trkpt lat="46.8435" lon="8.42972">
        <ele>1884</ele>
        <time>2021-08-13T08:10:01.169Z</time>
      </trkpt>
      <trkpt lat="46.84348" lon="8.42971">
        <ele>1884</ele>
        <time>2021-08-13T08:10:02.169Z</time>
      </trkpt>
      <trkpt lat="46.84347" lon="8.42969">
        <ele>1883</ele>
        <time>2021-08-13T08:10:03.169Z</time>
      </trkpt>
      <trkpt lat="46.84346" lon="8.42968">
        <ele>1883</ele>
        <time>2021-08-13T08:10:04.169Z</time>
      </trkpt>
      <trkpt lat="46.84345" lon="8.42967">
        <ele>1883</ele>
        <time>2021-08-13T08:10:05.170Z</time>
      </trkpt>
      <trkpt lat="46.84344" lon="8.42967">
        <ele>1882</ele>
        <time>2021-08-13T08:10:06.169Z</time>
      </trkpt>
      <trkpt lat="46.84343" lon="8.42966">
        <ele>1882</ele>
        <time>2021-08-13T08:10:07.169Z</time>
      </trkpt>
      <trkpt lat="46.84341" lon="8.42965">
        <ele>1882</ele>
        <time>2021-08-13T08:10:08.170Z</time>
      </trkpt>
      <trkpt lat="46.8434" lon="8.42964">
        <ele>1882</ele>
        <time>2021-08-13T08:10:09.169Z</time>
      </trkpt>
      <trkpt lat="46.84338" lon="8.42963">
        <ele>1882</ele>
        <time>2021-08-13T08:10:10.169Z</time>
      </trkpt>
      <trkpt lat="46.84337" lon="8.42962">
        <ele>1882</ele>
        <time>2021-08-13T08:10:11.169Z</time>
      </trkpt>
      <trkpt lat="46.84336" lon="8.42962">
        <ele>1882</ele>
        <time>2021-08-13T08:10:12.169Z</time>
      </trkpt>
      <trkpt lat="46.84335" lon="8.42961">
        <ele>1882</ele>
        <time>2021-08-13T08:10:13.170Z</time>
      </trkpt>
      <trkpt lat="46.84333" lon="8.4296">
        <ele>1882</ele>
        <time>2021-08-13T08:10:14.169Z</time>
      </trkpt>
      <trkpt lat="46.84332" lon="8.42959">
        <ele>1882</ele>
        <time>2021-08-13T08:10:15.169Z</time>
      </trkpt>
      <trkpt lat="46.84331" lon="8.42958">
        <ele>1881</ele>
        <time>2021-08-13T08:10:16.169Z</time>
      </trkpt>
      <trkpt lat="46.84329" lon="8.42957">
        <ele>1881</ele>
        <time>2021-08-13T08:10:17.170Z</time>
      </trkpt>
      <trkpt lat="46.84328" lon="8.42956">
        <ele>1881</ele>
        <time>2021-08-13T08:10:18.169Z</time>
      </trkpt>
      <trkpt lat="46.84327" lon="8.42955">
        <ele>1880</ele>
        <time>2021-08-13T08:10:19.169Z</time>
      </trkpt>
      <trkpt lat="46.84325" lon="8.42955">
        <ele>1880</ele>
        <time>2021-08-13T08:10:20.169Z</time>
      </trkpt>
      <trkpt lat="46.84324" lon="8.42955">
        <ele>1880</ele>
        <time>2021-08-13T08:10:21.169Z</time>
      </trkpt>
      <trkpt lat="46.84323" lon="8.42954">
        <ele>1880</ele>
        <time>2021-08-13T08:10:22.169Z</time>
      </trkpt>
      <trkpt lat="46.84322" lon="8.42953">
        <ele>1881</ele>
        <time>2021-08-13T08:10:23.169Z</time>
      </trkpt>
      <trkpt lat="46.84322" lon="8.42953">
        <ele>1881</ele>
        <time>2021-08-13T08:10:24.169Z</time>
      </trkpt>
      <trkpt lat="46.84321" lon="8.42953">
        <ele>1881</ele>
        <time>2021-08-13T08:10:25.169Z</time>
      </trkpt>
      <trkpt lat="46.8432" lon="8.42952">
        <ele>1882</ele>
        <time>2021-08-13T08:10:26.169Z</time>
      </trkpt>
      <trkpt lat="46.84319" lon="8.42951">
        <ele>1882</ele>
        <time>2021-08-13T08:10:27.170Z</time>
      </trkpt>
      <trkpt lat="46.84319" lon="8.4295">
        <ele>1882</ele>
        <time>2021-08-13T08:10:28.169Z</time>
      </trkpt>
      <trkpt lat="46.84318" lon="8.4295">
        <ele>1882</ele>
        <time>2021-08-13T08:10:29.169Z</time>
      </trkpt>
      <trkpt lat="46.84318" lon="8.42948">
        <ele>1882</ele>
        <time>2021-08-13T08:10:30.169Z</time>
      </trkpt>
      <trkpt lat="46.84318" lon="8.42947">
        <ele>1883</ele>
        <time>2021-08-13T08:10:31.170Z</time>
      </trkpt>
      <trkpt lat="46.84317" lon="8.42946">
        <ele>1883</ele>
        <time>2021-08-13T08:10:32.169Z</time>
      </trkpt>
      <trkpt lat="46.84317" lon="8.42945">
        <ele>1883</ele>
        <time>2021-08-13T08:10:33.169Z</time>
      </trkpt>
      <trkpt lat="46.84317" lon="8.42944">
        <ele>1883</ele>
        <time>2021-08-13T08:10:34.170Z</time>
      </trkpt>
      <trkpt lat="46.84317" lon="8.42943">
        <ele>1884</ele>
        <time>2021-08-13T08:10:35.170Z</time>
      </trkpt>
      <trkpt lat="46.84317" lon="8.42942">
        <ele>1884</ele>
        <time>2021-08-13T08:10:36.169Z</time>
      </trkpt>
      <trkpt lat="46.84317" lon="8.42941">
        <ele>1885</ele>
        <time>2021-08-13T08:10:37.170Z</time>
      </trkpt>
      <trkpt lat="46.84318" lon="8.42939">
        <ele>1885</ele>
        <time>2021-08-13T08:10:38.170Z</time>
      </trkpt>
      <trkpt lat="46.84318" lon="8.42938">
        <ele>1885</ele>
        <time>2021-08-13T08:10:39.170Z</time>
      </trkpt>
      <trkpt lat="46.84318" lon="8.42936">
        <ele>1885</ele>
        <time>2021-08-13T08:10:40.170Z</time>
      </trkpt>
      <trkpt lat="46.84319" lon="8.42934">
        <ele>1885</ele>
        <time>2021-08-13T08:10:41.169Z</time>
      </trkpt>
      <trkpt lat="46.84319" lon="8.42933">
        <ele>1885</ele>
        <time>2021-08-13T08:10:42.170Z</time>
      </trkpt>
      <trkpt lat="46.8432" lon="8.42931">
        <ele>1885</ele>
        <time>2021-08-13T08:10:43.170Z</time>
      </trkpt>
      <trkpt lat="46.8432" lon="8.4293">
        <ele>1885</ele>
        <time>2021-08-13T08:10:44.169Z</time>
      </trkpt>
      <trkpt lat="46.8432" lon="8.42928">
        <ele>1885</ele>
        <time>2021-08-13T08:10:45.170Z</time>
      </trkpt>
      <trkpt lat="46.84321" lon="8.42927">
        <ele>1885</ele>
        <time>2021-08-13T08:10:46.170Z</time>
      </trkpt>
      <trkpt lat="46.84321" lon="8.42926">
        <ele>1885</ele>
        <time>2021-08-13T08:10:47.170Z</time>
      </trkpt>
      <trkpt lat="46.84322" lon="8.42926">
        <ele>1885</ele>
        <time>2021-08-13T08:10:48.169Z</time>
      </trkpt>
      <trkpt lat="46.84322" lon="8.42925">
        <ele>1884</ele>
        <time>2021-08-13T08:10:49.170Z</time>
      </trkpt>
      <trkpt lat="46.84322" lon="8.42924">
        <ele>1884</ele>
        <time>2021-08-13T08:10:50.169Z</time>
      </trkpt>
      <trkpt lat="46.84323" lon="8.42923">
        <ele>1883</ele>
        <time>2021-08-13T08:10:51.170Z</time>
      </trkpt>
      <trkpt lat="46.84323" lon="8.42923">
        <ele>1883</ele>
        <time>2021-08-13T08:10:52.170Z</time>
      </trkpt>
      <trkpt lat="46.84324" lon="8.42922">
        <ele>1882</ele>
        <time>2021-08-13T08:10:53.170Z</time>
      </trkpt>
      <trkpt lat="46.84325" lon="8.42922">
        <ele>1882</ele>
        <time>2021-08-13T08:10:54.169Z</time>
      </trkpt>
      <trkpt lat="46.84326" lon="8.42921">
        <ele>1882</ele>
        <time>2021-08-13T08:10:55.169Z</time>
      </trkpt>
      <trkpt lat="46.84326" lon="8.4292">
        <ele>1882</ele>
        <time>2021-08-13T08:10:56.170Z</time>
      </trkpt>
      <trkpt lat="46.84327" lon="8.42919">
        <ele>1881</ele>
        <time>2021-08-13T08:10:57.170Z</time>
      </trkpt>
      <trkpt lat="46.84327" lon="8.42917">
        <ele>1881</ele>
        <time>2021-08-13T08:10:58.170Z</time>
      </trkpt>
      <trkpt lat="46.84328" lon="8.42916">
        <ele>1881</ele>
        <time>2021-08-13T08:10:59.170Z</time>
      </trkpt>
      <trkpt lat="46.84328" lon="8.42914">
        <ele>1881</ele>
        <time>2021-08-13T08:11:00.170Z</time>
      </trkpt>
      <trkpt lat="46.84328" lon="8.42913">
        <ele>1881</ele>
        <time>2021-08-13T08:11:01.170Z</time>
      </trkpt>
      <trkpt lat="46.84328" lon="8.42912">
        <ele>1881</ele>
        <time>2021-08-13T08:11:02.169Z</time>
      </trkpt>
      <trkpt lat="46.84328" lon="8.4291">
        <ele>1880</ele>
        <time>2021-08-13T08:11:03.170Z</time>
      </trkpt>
      <trkpt lat="46.84328" lon="8.42908">
        <ele>1880</ele>
        <time>2021-08-13T08:11:04.169Z</time>
      </trkpt>
      <trkpt lat="46.84328" lon="8.42907">
        <ele>1880</ele>
        <time>2021-08-13T08:11:05.170Z</time>
      </trkpt>
      <trkpt lat="46.84327" lon="8.42906">
        <ele>1879</ele>
        <time>2021-08-13T08:11:06.169Z</time>
      </trkpt>
      <trkpt lat="46.84326" lon="8.42904">
        <ele>1879</ele>
        <time>2021-08-13T08:11:07.170Z</time>
      </trkpt>
      <trkpt lat="46.84326" lon="8.42903">
        <ele>1879</ele>
        <time>2021-08-13T08:11:08.169Z</time>
      </trkpt>
      <trkpt lat="46.84325" lon="8.42902">
        <ele>1879</ele>
        <time>2021-08-13T08:11:09.169Z</time>
      </trkpt>
      <trkpt lat="46.84324" lon="8.42901">
        <ele>1879</ele>
        <time>2021-08-13T08:11:10.169Z</time>
      </trkpt>
      <trkpt lat="46.84323" lon="8.429">
        <ele>1879</ele>
        <time>2021-08-13T08:11:11.169Z</time>
      </trkpt>
      <trkpt lat="46.84322" lon="8.42899">
        <ele>1879</ele>
        <time>2021-08-13T08:11:12.169Z</time>
      </trkpt>
      <trkpt lat="46.84322" lon="8.42899">
        <ele>1879</ele>
        <time>2021-08-13T08:11:13.169Z</time>
      </trkpt>
      <trkpt lat="46.84321" lon="8.42898">
        <ele>1879</ele>
        <time>2021-08-13T08:11:14.169Z</time>
      </trkpt>
      <trkpt lat="46.8432" lon="8.42897">
        <ele>1879</ele>
        <time>2021-08-13T08:11:15.169Z</time>
      </trkpt>
      <trkpt lat="46.8432" lon="8.42896">
        <ele>1880</ele>
        <time>2021-08-13T08:11:16.170Z</time>
      </trkpt>
      <trkpt lat="46.8432" lon="8.42894">
        <ele>1880</ele>
        <time>2021-08-13T08:11:17.169Z</time>
      </trkpt>
      <trkpt lat="46.8432" lon="8.42893">
        <ele>1880</ele>
        <time>2021-08-13T08:11:18.169Z</time>
      </trkpt>
      <trkpt lat="46.84319" lon="8.42891">
        <ele>1880</ele>
        <time>2021-08-13T08:11:19.169Z</time>
      </trkpt>
      <trkpt lat="46.84319" lon="8.4289">
        <ele>1880</ele>
        <time>2021-08-13T08:11:20.169Z</time>
      </trkpt>
      <trkpt lat="46.84319" lon="8.42889">
        <ele>1880</ele>
        <time>2021-08-13T08:11:21.169Z</time>
      </trkpt>
      <trkpt lat="46.84319" lon="8.42889">
        <ele>1880</ele>
        <time>2021-08-13T08:11:22.169Z</time>
      </trkpt>
      <trkpt lat="46.84318" lon="8.42887">
        <ele>1880</ele>
        <time>2021-08-13T08:11:23.169Z</time>
      </trkpt>
      <trkpt lat="46.84318" lon="8.42886">
        <ele>1880</ele>
        <time>2021-08-13T08:11:24.169Z</time>
      </trkpt>
      <trkpt lat="46.84317" lon="8.42885">
        <ele>1880</ele>
        <time>2021-08-13T08:11:25.170Z</time>
      </trkpt>
      <trkpt lat="46.84316" lon="8.42884">
        <ele>1880</ele>
        <time>2021-08-13T08:11:26.170Z</time>
      </trkpt>
      <trkpt lat="46.84315" lon="8.42882">
        <ele>1880</ele>
        <time>2021-08-13T08:11:27.170Z</time>
      </trkpt>
      <trkpt lat="46.84315" lon="8.42881">
        <ele>1880</ele>
        <time>2021-08-13T08:11:28.170Z</time>
      </trkpt>
      <trkpt lat="46.84314" lon="8.42879">
        <ele>1880</ele>
        <time>2021-08-13T08:11:29.169Z</time>
      </trkpt>
      <trkpt lat="46.84314" lon="8.42878">
        <ele>1880</ele>
        <time>2021-08-13T08:11:30.170Z</time>
      </trkpt>
      <trkpt lat="46.84314" lon="8.42877">
        <ele>1881</ele>
        <time>2021-08-13T08:11:31.169Z</time>
      </trkpt>
      <trkpt lat="46.84315" lon="8.42876">
        <ele>1881</ele>
        <time>2021-08-13T08:11:32.169Z</time>
      </trkpt>
      <trkpt lat="46.84315" lon="8.42875">
        <ele>1881</ele>
        <time>2021-08-13T08:11:33.170Z</time>
      </trkpt>
      <trkpt lat="46.84316" lon="8.42875">
        <ele>1881</ele>
        <time>2021-08-13T08:11:34.169Z</time>
      </trkpt>
      <trkpt lat="46.84316" lon="8.42874">
        <ele>1881</ele>
        <time>2021-08-13T08:11:35.170Z</time>
      </trkpt>
      <trkpt lat="46.84316" lon="8.42873">
        <ele>1881</ele>
        <time>2021-08-13T08:11:36.170Z</time>
      </trkpt>
      <trkpt lat="46.84316" lon="8.42872">
        <ele>1882</ele>
        <time>2021-08-13T08:11:37.170Z</time>
      </trkpt>
      <trkpt lat="46.84316" lon="8.42871">
        <ele>1882</ele>
        <time>2021-08-13T08:11:38.170Z</time>
      </trkpt>
      <trkpt lat="46.84316" lon="8.4287">
        <ele>1882</ele>
        <time>2021-08-13T08:11:39.170Z</time>
      </trkpt>
      <trkpt lat="46.84316" lon="8.4287">
        <ele>1882</ele>
        <time>2021-08-13T08:11:40.170Z</time>
      </trkpt>
      <trkpt lat="46.84317" lon="8.4287">
        <ele>1882</ele>
        <time>2021-08-13T08:11:41.169Z</time>
      </trkpt>
      <trkpt lat="46.84316" lon="8.4287">
        <ele>1882</ele>
        <time>2021-08-13T08:11:42.169Z</time>
      </trkpt>
      <trkpt lat="46.84316" lon="8.4287">
        <ele>1883</ele>
        <time>2021-08-13T08:11:43.169Z</time>
      </trkpt>
      <trkpt lat="46.84317" lon="8.4287">
        <ele>1883</ele>
        <time>2021-08-13T08:11:44.169Z</time>
      </trkpt>
      <trkpt lat="46.84318" lon="8.42869">
        <ele>1883</ele>
        <time>2021-08-13T08:11:45.171Z</time>
      </trkpt>
      <trkpt lat="46.84318" lon="8.42868">
        <ele>1882</ele>
        <time>2021-08-13T08:11:46.170Z</time>
      </trkpt>
      <trkpt lat="46.84318" lon="8.42868">
        <ele>1881</ele>
        <time>2021-08-13T08:11:47.170Z</time>
      </trkpt>
      <trkpt lat="46.84318" lon="8.42868">
        <ele>1881</ele>
        <time>2021-08-13T08:11:48.171Z</time>
      </trkpt>
      <trkpt lat="46.84319" lon="8.42867">
        <ele>1880</ele>
        <time>2021-08-13T08:11:49.171Z</time>
      </trkpt>
      <trkpt lat="46.84319" lon="8.42866">
        <ele>1880</ele>
        <time>2021-08-13T08:11:50.171Z</time>
      </trkpt>
      <trkpt lat="46.84319" lon="8.42866">
        <ele>1879</ele>
        <time>2021-08-13T08:11:51.171Z</time>
      </trkpt>
      <trkpt lat="46.84319" lon="8.42865">
        <ele>1879</ele>
        <time>2021-08-13T08:11:52.171Z</time>
      </trkpt>
      <trkpt lat="46.8432" lon="8.42865">
        <ele>1878</ele>
        <time>2021-08-13T08:11:53.171Z</time>
      </trkpt>
      <trkpt lat="46.8432" lon="8.42864">
        <ele>1878</ele>
        <time>2021-08-13T08:11:54.170Z</time>
      </trkpt>
      <trkpt lat="46.8432" lon="8.42864">
        <ele>1877</ele>
        <time>2021-08-13T08:11:55.170Z</time>
      </trkpt>
      <trkpt lat="46.8432" lon="8.42863">
        <ele>1877</ele>
        <time>2021-08-13T08:11:56.170Z</time>
      </trkpt>
      <trkpt lat="46.8432" lon="8.42862">
        <ele>1877</ele>
        <time>2021-08-13T08:11:57.170Z</time>
      </trkpt>
      <trkpt lat="46.8432" lon="8.42862">
        <ele>1877</ele>
        <time>2021-08-13T08:11:58.171Z</time>
      </trkpt>
      <trkpt lat="46.8432" lon="8.42861">
        <ele>1877</ele>
        <time>2021-08-13T08:11:59.171Z</time>
      </trkpt>
      <trkpt lat="46.8432" lon="8.4286">
        <ele>1877</ele>
        <time>2021-08-13T08:12:00.171Z</time>
      </trkpt>
      <trkpt lat="46.84319" lon="8.42858">
        <ele>1877</ele>
        <time>2021-08-13T08:12:01.171Z</time>
      </trkpt>
      <trkpt lat="46.84319" lon="8.42857">
        <ele>1877</ele>
        <time>2021-08-13T08:12:02.171Z</time>
      </trkpt>
      <trkpt lat="46.84319" lon="8.42855">
        <ele>1877</ele>
        <time>2021-08-13T08:12:03.171Z</time>
      </trkpt>
      <trkpt lat="46.84319" lon="8.42854">
        <ele>1876</ele>
        <time>2021-08-13T08:12:04.171Z</time>
      </trkpt>
      <trkpt lat="46.84319" lon="8.42852">
        <ele>1876</ele>
        <time>2021-08-13T08:12:05.171Z</time>
      </trkpt>
      <trkpt lat="46.84319" lon="8.4285">
        <ele>1876</ele>
        <time>2021-08-13T08:12:06.171Z</time>
      </trkpt>
      <trkpt lat="46.84319" lon="8.42849">
        <ele>1876</ele>
        <time>2021-08-13T08:12:07.171Z</time>
      </trkpt>
      <trkpt lat="46.84319" lon="8.42847">
        <ele>1875</ele>
        <time>2021-08-13T08:12:08.170Z</time>
      </trkpt>
      <trkpt lat="46.8432" lon="8.42846">
        <ele>1875</ele>
        <time>2021-08-13T08:12:09.171Z</time>
      </trkpt>
      <trkpt lat="46.8432" lon="8.42845">
        <ele>1876</ele>
        <time>2021-08-13T08:12:10.170Z</time>
      </trkpt>
      <trkpt lat="46.84319" lon="8.42844">
        <ele>1876</ele>
        <time>2021-08-13T08:12:11.170Z</time>
      </trkpt>
      <trkpt lat="46.8432" lon="8.42843">
        <ele>1877</ele>
        <time>2021-08-13T08:12:12.171Z</time>
      </trkpt>
      <trkpt lat="46.8432" lon="8.42842">
        <ele>1877</ele>
        <time>2021-08-13T08:12:13.170Z</time>
      </trkpt>
      <trkpt lat="46.8432" lon="8.42841">
        <ele>1876</ele>
        <time>2021-08-13T08:12:14.171Z</time>
      </trkpt>
      <trkpt lat="46.8432" lon="8.4284">
        <ele>1876</ele>
        <time>2021-08-13T08:12:15.170Z</time>
      </trkpt>
      <trkpt lat="46.8432" lon="8.42838">
        <ele>1876</ele>
        <time>2021-08-13T08:12:16.171Z</time>
      </trkpt>
      <trkpt lat="46.8432" lon="8.42837">
        <ele>1876</ele>
        <time>2021-08-13T08:12:17.170Z</time>
      </trkpt>
      <trkpt lat="46.84319" lon="8.42836">
        <ele>1875</ele>
        <time>2021-08-13T08:12:18.171Z</time>
      </trkpt>
      <trkpt lat="46.84319" lon="8.42835">
        <ele>1875</ele>
        <time>2021-08-13T08:12:19.170Z</time>
      </trkpt>
      <trkpt lat="46.84319" lon="8.42833">
        <ele>1875</ele>
        <time>2021-08-13T08:12:20.171Z</time>
      </trkpt>
      <trkpt lat="46.84318" lon="8.42832">
        <ele>1875</ele>
        <time>2021-08-13T08:12:21.171Z</time>
      </trkpt>
      <trkpt lat="46.84318" lon="8.4283">
        <ele>1875</ele>
        <time>2021-08-13T08:12:22.170Z</time>
      </trkpt>
      <trkpt lat="46.84318" lon="8.42829">
        <ele>1875</ele>
        <time>2021-08-13T08:12:23.171Z</time>
      </trkpt>
      <trkpt lat="46.84317" lon="8.42828">
        <ele>1875</ele>
        <time>2021-08-13T08:12:24.170Z</time>
      </trkpt>
      <trkpt lat="46.84317" lon="8.42825">
        <ele>1874</ele>
        <time>2021-08-13T08:12:25.170Z</time>
      </trkpt>
      <trkpt lat="46.84317" lon="8.42824">
        <ele>1874</ele>
        <time>2021-08-13T08:12:26.171Z</time>
      </trkpt>
      <trkpt lat="46.84317" lon="8.42823">
        <ele>1874</ele>
        <time>2021-08-13T08:12:27.170Z</time>
      </trkpt>
      <trkpt lat="46.84317" lon="8.42822">
        <ele>1874</ele>
        <time>2021-08-13T08:12:28.171Z</time>
      </trkpt>
      <trkpt lat="46.84317" lon="8.4282">
        <ele>1874</ele>
        <time>2021-08-13T08:12:29.171Z</time>
      </trkpt>
      <trkpt lat="46.84316" lon="8.42819">
        <ele>1874</ele>
        <time>2021-08-13T08:12:30.170Z</time>
      </trkpt>
      <trkpt lat="46.84316" lon="8.42817">
        <ele>1874</ele>
        <time>2021-08-13T08:12:31.170Z</time>
      </trkpt>
      <trkpt lat="46.84316" lon="8.42815">
        <ele>1874</ele>
        <time>2021-08-13T08:12:32.171Z</time>
      </trkpt>
      <trkpt lat="46.84315" lon="8.42814">
        <ele>1873</ele>
        <time>2021-08-13T08:12:33.170Z</time>
      </trkpt>
      <trkpt lat="46.84315" lon="8.42813">
        <ele>1873</ele>
        <time>2021-08-13T08:12:34.170Z</time>
      </trkpt>
      <trkpt lat="46.84315" lon="8.42812">
        <ele>1872</ele>
        <time>2021-08-13T08:12:35.171Z</time>
      </trkpt>
      <trkpt lat="46.84314" lon="8.42812">
        <ele>1872</ele>
        <time>2021-08-13T08:12:36.170Z</time>
      </trkpt>
      <trkpt lat="46.84313" lon="8.42813">
        <ele>1871</ele>
        <time>2021-08-13T08:12:37.170Z</time>
      </trkpt>
      <trkpt lat="46.84313" lon="8.42814">
        <ele>1871</ele>
        <time>2021-08-13T08:12:38.170Z</time>
      </trkpt>
      <trkpt lat="46.84312" lon="8.42815">
        <ele>1871</ele>
        <time>2021-08-13T08:12:39.170Z</time>
      </trkpt>
      <trkpt lat="46.84312" lon="8.42816">
        <ele>1871</ele>
        <time>2021-08-13T08:12:40.170Z</time>
      </trkpt>
      <trkpt lat="46.84311" lon="8.42819">
        <ele>1871</ele>
        <time>2021-08-13T08:12:41.171Z</time>
      </trkpt>
      <trkpt lat="46.84311" lon="8.42821">
        <ele>1871</ele>
        <time>2021-08-13T08:12:42.170Z</time>
      </trkpt>
      <trkpt lat="46.84311" lon="8.42822">
        <ele>1871</ele>
        <time>2021-08-13T08:12:43.170Z</time>
      </trkpt>
      <trkpt lat="46.84311" lon="8.42824">
        <ele>1871</ele>
        <time>2021-08-13T08:12:44.170Z</time>
      </trkpt>
      <trkpt lat="46.84311" lon="8.42826">
        <ele>1871</ele>
        <time>2021-08-13T08:12:45.170Z</time>
      </trkpt>
      <trkpt lat="46.84311" lon="8.42828">
        <ele>1870</ele>
        <time>2021-08-13T08:12:46.170Z</time>
      </trkpt>
      <trkpt lat="46.84311" lon="8.42829">
        <ele>1870</ele>
        <time>2021-08-13T08:12:47.170Z</time>
      </trkpt>
      <trkpt lat="46.84311" lon="8.42831">
        <ele>1869</ele>
        <time>2021-08-13T08:12:48.171Z</time>
      </trkpt>
      <trkpt lat="46.8431" lon="8.42833">
        <ele>1869</ele>
        <time>2021-08-13T08:12:49.170Z</time>
      </trkpt>
      <trkpt lat="46.8431" lon="8.42834">
        <ele>1869</ele>
        <time>2021-08-13T08:12:50.170Z</time>
      </trkpt>
      <trkpt lat="46.8431" lon="8.42835">
        <ele>1869</ele>
        <time>2021-08-13T08:12:51.170Z</time>
      </trkpt>
      <trkpt lat="46.84309" lon="8.42837">
        <ele>1869</ele>
        <time>2021-08-13T08:12:52.170Z</time>
      </trkpt>
      <trkpt lat="46.84309" lon="8.42839">
        <ele>1869</ele>
        <time>2021-08-13T08:12:53.170Z</time>
      </trkpt>
      <trkpt lat="46.84308" lon="8.4284">
        <ele>1869</ele>
        <time>2021-08-13T08:12:54.170Z</time>
      </trkpt>
      <trkpt lat="46.84308" lon="8.42842">
        <ele>1869</ele>
        <time>2021-08-13T08:12:55.170Z</time>
      </trkpt>
      <trkpt lat="46.84307" lon="8.42843">
        <ele>1869</ele>
        <time>2021-08-13T08:12:56.170Z</time>
      </trkpt>
      <trkpt lat="46.84306" lon="8.42844">
        <ele>1868</ele>
        <time>2021-08-13T08:12:57.170Z</time>
      </trkpt>
      <trkpt lat="46.84305" lon="8.42845">
        <ele>1868</ele>
        <time>2021-08-13T08:12:58.170Z</time>
      </trkpt>
      <trkpt lat="46.84305" lon="8.42846">
        <ele>1868</ele>
        <time>2021-08-13T08:12:59.170Z</time>
      </trkpt>
      <trkpt lat="46.84305" lon="8.42847">
        <ele>1868</ele>
        <time>2021-08-13T08:13:00.170Z</time>
      </trkpt>
      <trkpt lat="46.84304" lon="8.42848">
        <ele>1868</ele>
        <time>2021-08-13T08:13:01.170Z</time>
      </trkpt>
      <trkpt lat="46.84304" lon="8.42847">
        <ele>1868</ele>
        <time>2021-08-13T08:13:02.170Z</time>
      </trkpt>
      <trkpt lat="46.84304" lon="8.42847">
        <ele>1869</ele>
        <time>2021-08-13T08:13:03.171Z</time>
      </trkpt>
      <trkpt lat="46.84304" lon="8.42846">
        <ele>1869</ele>
        <time>2021-08-13T08:13:04.171Z</time>
      </trkpt>
      <trkpt lat="46.84304" lon="8.42845">
        <ele>1869</ele>
        <time>2021-08-13T08:13:05.171Z</time>
      </trkpt>
      <trkpt lat="46.84304" lon="8.42844">
        <ele>1869</ele>
        <time>2021-08-13T08:13:06.171Z</time>
      </trkpt>
      <trkpt lat="46.84304" lon="8.42843">
        <ele>1868</ele>
        <time>2021-08-13T08:13:07.171Z</time>
      </trkpt>
      <trkpt lat="46.84304" lon="8.42842">
        <ele>1868</ele>
        <time>2021-08-13T08:13:08.171Z</time>
      </trkpt>
      <trkpt lat="46.84304" lon="8.4284">
        <ele>1867</ele>
        <time>2021-08-13T08:13:09.171Z</time>
      </trkpt>
      <trkpt lat="46.84304" lon="8.42839">
        <ele>1867</ele>
        <time>2021-08-13T08:13:10.171Z</time>
      </trkpt>
      <trkpt lat="46.84303" lon="8.42837">
        <ele>1867</ele>
        <time>2021-08-13T08:13:11.171Z</time>
      </trkpt>
      <trkpt lat="46.84303" lon="8.42835">
        <ele>1867</ele>
        <time>2021-08-13T08:13:12.171Z</time>
      </trkpt>
      <trkpt lat="46.84304" lon="8.42833">
        <ele>1868</ele>
        <time>2021-08-13T08:13:13.171Z</time>
      </trkpt>
      <trkpt lat="46.84305" lon="8.42831">
        <ele>1868</ele>
        <time>2021-08-13T08:13:14.171Z</time>
      </trkpt>
      <trkpt lat="46.84305" lon="8.42829">
        <ele>1869</ele>
        <time>2021-08-13T08:13:15.171Z</time>
      </trkpt>
      <trkpt lat="46.84305" lon="8.42828">
        <ele>1869</ele>
        <time>2021-08-13T08:13:16.171Z</time>
      </trkpt>
      <trkpt lat="46.84305" lon="8.42827">
        <ele>1869</ele>
        <time>2021-08-13T08:13:17.171Z</time>
      </trkpt>
      <trkpt lat="46.84306" lon="8.42826">
        <ele>1869</ele>
        <time>2021-08-13T08:13:18.171Z</time>
      </trkpt>
      <trkpt lat="46.84306" lon="8.42825">
        <ele>1868</ele>
        <time>2021-08-13T08:13:19.171Z</time>
      </trkpt>
      <trkpt lat="46.84306" lon="8.42824">
        <ele>1868</ele>
        <time>2021-08-13T08:13:20.171Z</time>
      </trkpt>
      <trkpt lat="46.84305" lon="8.42822">
        <ele>1868</ele>
        <time>2021-08-13T08:13:21.171Z</time>
      </trkpt>
      <trkpt lat="46.84304" lon="8.4282">
        <ele>1868</ele>
        <time>2021-08-13T08:13:22.171Z</time>
      </trkpt>
      <trkpt lat="46.84303" lon="8.4282">
        <ele>1868</ele>
        <time>2021-08-13T08:13:23.171Z</time>
      </trkpt>
      <trkpt lat="46.84303" lon="8.42819">
        <ele>1868</ele>
        <time>2021-08-13T08:13:24.171Z</time>
      </trkpt>
      <trkpt lat="46.84302" lon="8.42818">
        <ele>1868</ele>
        <time>2021-08-13T08:13:25.171Z</time>
      </trkpt>
      <trkpt lat="46.84302" lon="8.42818">
        <ele>1868</ele>
        <time>2021-08-13T08:13:26.171Z</time>
      </trkpt>
      <trkpt lat="46.84301" lon="8.42818">
        <ele>1867</ele>
        <time>2021-08-13T08:13:27.171Z</time>
      </trkpt>
      <trkpt lat="46.84302" lon="8.42818">
        <ele>1867</ele>
        <time>2021-08-13T08:13:28.170Z</time>
      </trkpt>
      <trkpt lat="46.84301" lon="8.42817">
        <ele>1867</ele>
        <time>2021-08-13T08:13:29.171Z</time>
      </trkpt>
      <trkpt lat="46.84301" lon="8.42816">
        <ele>1866</ele>
        <time>2021-08-13T08:13:30.170Z</time>
      </trkpt>
      <trkpt lat="46.843" lon="8.42815">
        <ele>1866</ele>
        <time>2021-08-13T08:13:31.171Z</time>
      </trkpt>
      <trkpt lat="46.843" lon="8.42814">
        <ele>1866</ele>
        <time>2021-08-13T08:13:32.171Z</time>
      </trkpt>
      <trkpt lat="46.843" lon="8.42814">
        <ele>1865</ele>
        <time>2021-08-13T08:13:33.171Z</time>
      </trkpt>
      <trkpt lat="46.843" lon="8.42814">
        <ele>1865</ele>
        <time>2021-08-13T08:13:34.171Z</time>
      </trkpt>
      <trkpt lat="46.843" lon="8.42813">
        <ele>1865</ele>
        <time>2021-08-13T08:13:35.171Z</time>
      </trkpt>
      <trkpt lat="46.843" lon="8.42813">
        <ele>1864</ele>
        <time>2021-08-13T08:13:36.171Z</time>
      </trkpt>
      <trkpt lat="46.84299" lon="8.42812">
        <ele>1864</ele>
        <time>2021-08-13T08:13:37.171Z</time>
      </trkpt>
      <trkpt lat="46.84299" lon="8.42812">
        <ele>1864</ele>
        <time>2021-08-13T08:13:38.170Z</time>
      </trkpt>
      <trkpt lat="46.84298" lon="8.42812">
        <ele>1864</ele>
        <time>2021-08-13T08:13:39.171Z</time>
      </trkpt>
      <trkpt lat="46.84298" lon="8.42811">
        <ele>1864</ele>
        <time>2021-08-13T08:13:40.170Z</time>
      </trkpt>
      <trkpt lat="46.84298" lon="8.42811">
        <ele>1864</ele>
        <time>2021-08-13T08:13:41.170Z</time>
      </trkpt>
      <trkpt lat="46.84298" lon="8.4281">
        <ele>1864</ele>
        <time>2021-08-13T08:13:42.170Z</time>
      </trkpt>
      <trkpt lat="46.84298" lon="8.42809">
        <ele>1864</ele>
        <time>2021-08-13T08:13:43.170Z</time>
      </trkpt>
      <trkpt lat="46.84298" lon="8.42807">
        <ele>1864</ele>
        <time>2021-08-13T08:13:44.170Z</time>
      </trkpt>
      <trkpt lat="46.84298" lon="8.42806">
        <ele>1863</ele>
        <time>2021-08-13T08:13:45.170Z</time>
      </trkpt>
      <trkpt lat="46.84298" lon="8.42804">
        <ele>1863</ele>
        <time>2021-08-13T08:13:46.171Z</time>
      </trkpt>
      <trkpt lat="46.84298" lon="8.42803">
        <ele>1863</ele>
        <time>2021-08-13T08:13:47.170Z</time>
      </trkpt>
      <trkpt lat="46.84298" lon="8.42802">
        <ele>1862</ele>
        <time>2021-08-13T08:13:48.171Z</time>
      </trkpt>
      <trkpt lat="46.84298" lon="8.428">
        <ele>1862</ele>
        <time>2021-08-13T08:13:49.171Z</time>
      </trkpt>
      <trkpt lat="46.84299" lon="8.42799">
        <ele>1862</ele>
        <time>2021-08-13T08:13:50.171Z</time>
      </trkpt>
      <trkpt lat="46.843" lon="8.42797">
        <ele>1862</ele>
        <time>2021-08-13T08:13:51.171Z</time>
      </trkpt>
      <trkpt lat="46.84301" lon="8.42796">
        <ele>1862</ele>
        <time>2021-08-13T08:13:52.171Z</time>
      </trkpt>
      <trkpt lat="46.84301" lon="8.42795">
        <ele>1862</ele>
        <time>2021-08-13T08:13:53.170Z</time>
      </trkpt>
      <trkpt lat="46.84301" lon="8.42793">
        <ele>1861</ele>
        <time>2021-08-13T08:13:54.170Z</time>
      </trkpt>
      <trkpt lat="46.84301" lon="8.42791">
        <ele>1861</ele>
        <time>2021-08-13T08:13:55.171Z</time>
      </trkpt>
      <trkpt lat="46.84301" lon="8.4279">
        <ele>1861</ele>
        <time>2021-08-13T08:13:56.170Z</time>
      </trkpt>
      <trkpt lat="46.84302" lon="8.42789">
        <ele>1861</ele>
        <time>2021-08-13T08:13:57.171Z</time>
      </trkpt>
      <trkpt lat="46.84303" lon="8.42787">
        <ele>1861</ele>
        <time>2021-08-13T08:13:58.171Z</time>
      </trkpt>
      <trkpt lat="46.84303" lon="8.42786">
        <ele>1860</ele>
        <time>2021-08-13T08:13:59.170Z</time>
      </trkpt>
      <trkpt lat="46.84304" lon="8.42784">
        <ele>1860</ele>
        <time>2021-08-13T08:14:00.170Z</time>
      </trkpt>
      <trkpt lat="46.84304" lon="8.42783">
        <ele>1859</ele>
        <time>2021-08-13T08:14:01.171Z</time>
      </trkpt>
      <trkpt lat="46.84304" lon="8.42782">
        <ele>1859</ele>
        <time>2021-08-13T08:14:02.170Z</time>
      </trkpt>
      <trkpt lat="46.84304" lon="8.42781">
        <ele>1858</ele>
        <time>2021-08-13T08:14:03.171Z</time>
      </trkpt>
      <trkpt lat="46.84304" lon="8.4278">
        <ele>1858</ele>
        <time>2021-08-13T08:14:04.170Z</time>
      </trkpt>
      <trkpt lat="46.84303" lon="8.42779">
        <ele>1857</ele>
        <time>2021-08-13T08:14:05.170Z</time>
      </trkpt>
      <trkpt lat="46.84303" lon="8.42778">
        <ele>1857</ele>
        <time>2021-08-13T08:14:06.171Z</time>
      </trkpt>
      <trkpt lat="46.84302" lon="8.42777">
        <ele>1857</ele>
        <time>2021-08-13T08:14:07.170Z</time>
      </trkpt>
      <trkpt lat="46.84302" lon="8.42776">
        <ele>1856</ele>
        <time>2021-08-13T08:14:08.170Z</time>
      </trkpt>
      <trkpt lat="46.84302" lon="8.42775">
        <ele>1856</ele>
        <time>2021-08-13T08:14:09.171Z</time>
      </trkpt>
      <trkpt lat="46.84301" lon="8.42775">
        <ele>1856</ele>
        <time>2021-08-13T08:14:10.171Z</time>
      </trkpt>
      <trkpt lat="46.84301" lon="8.42775">
        <ele>1856</ele>
        <time>2021-08-13T08:14:11.170Z</time>
      </trkpt>
      <trkpt lat="46.843" lon="8.42775">
        <ele>1856</ele>
        <time>2021-08-13T08:14:12.170Z</time>
      </trkpt>
      <trkpt lat="46.843" lon="8.42774">
        <ele>1856</ele>
        <time>2021-08-13T08:14:13.171Z</time>
      </trkpt>
      <trkpt lat="46.84301" lon="8.42774">
        <ele>1856</ele>
        <time>2021-08-13T08:14:14.170Z</time>
      </trkpt>
      <trkpt lat="46.843" lon="8.42773">
        <ele>1856</ele>
        <time>2021-08-13T08:14:15.171Z</time>
      </trkpt>
      <trkpt lat="46.843" lon="8.42772">
        <ele>1856</ele>
        <time>2021-08-13T08:14:16.171Z</time>
      </trkpt>
      <trkpt lat="46.84299" lon="8.42772">
        <ele>1856</ele>
        <time>2021-08-13T08:14:17.172Z</time>
      </trkpt>
      <trkpt lat="46.84299" lon="8.42771">
        <ele>1856</ele>
        <time>2021-08-13T08:14:18.172Z</time>
      </trkpt>
      <trkpt lat="46.84298" lon="8.42771">
        <ele>1856</ele>
        <time>2021-08-13T08:14:19.172Z</time>
      </trkpt>
      <trkpt lat="46.84297" lon="8.4277">
        <ele>1856</ele>
        <time>2021-08-13T08:14:20.172Z</time>
      </trkpt>
      <trkpt lat="46.84297" lon="8.42769">
        <ele>1855</ele>
        <time>2021-08-13T08:14:21.172Z</time>
      </trkpt>
      <trkpt lat="46.84296" lon="8.42768">
        <ele>1855</ele>
        <time>2021-08-13T08:14:22.172Z</time>
      </trkpt>
      <trkpt lat="46.84296" lon="8.42767">
        <ele>1855</ele>
        <time>2021-08-13T08:14:23.171Z</time>
      </trkpt>
      <trkpt lat="46.84295" lon="8.42767">
        <ele>1855</ele>
        <time>2021-08-13T08:14:24.171Z</time>
      </trkpt>
      <trkpt lat="46.84295" lon="8.42766">
        <ele>1854</ele>
        <time>2021-08-13T08:14:25.171Z</time>
      </trkpt>
      <trkpt lat="46.84295" lon="8.42765">
        <ele>1854</ele>
        <time>2021-08-13T08:14:26.172Z</time>
      </trkpt>
      <trkpt lat="46.84295" lon="8.42764">
        <ele>1853</ele>
        <time>2021-08-13T08:14:27.171Z</time>
      </trkpt>
      <trkpt lat="46.84295" lon="8.42764">
        <ele>1853</ele>
        <time>2021-08-13T08:14:28.171Z</time>
      </trkpt>
      <trkpt lat="46.84295" lon="8.42764">
        <ele>1854</ele>
        <time>2021-08-13T08:14:29.172Z</time>
      </trkpt>
      <trkpt lat="46.84295" lon="8.42763">
        <ele>1854</ele>
        <time>2021-08-13T08:14:30.172Z</time>
      </trkpt>
      <trkpt lat="46.84295" lon="8.42762">
        <ele>1854</ele>
        <time>2021-08-13T08:14:31.172Z</time>
      </trkpt>
      <trkpt lat="46.84295" lon="8.42762">
        <ele>1854</ele>
        <time>2021-08-13T08:14:32.172Z</time>
      </trkpt>
      <trkpt lat="46.84295" lon="8.42761">
        <ele>1854</ele>
        <time>2021-08-13T08:14:33.171Z</time>
      </trkpt>
      <trkpt lat="46.84295" lon="8.4276">
        <ele>1854</ele>
        <time>2021-08-13T08:14:34.172Z</time>
      </trkpt>
      <trkpt lat="46.84295" lon="8.42759">
        <ele>1854</ele>
        <time>2021-08-13T08:14:35.172Z</time>
      </trkpt>
      <trkpt lat="46.84295" lon="8.42758">
        <ele>1854</ele>
        <time>2021-08-13T08:14:36.172Z</time>
      </trkpt>
      <trkpt lat="46.84295" lon="8.42758">
        <ele>1854</ele>
        <time>2021-08-13T08:14:37.172Z</time>
      </trkpt>
      <trkpt lat="46.84296" lon="8.42757">
        <ele>1854</ele>
        <time>2021-08-13T08:14:38.172Z</time>
      </trkpt>
      <trkpt lat="46.84296" lon="8.42757">
        <ele>1854</ele>
        <time>2021-08-13T08:14:39.172Z</time>
      </trkpt>
      <trkpt lat="46.84296" lon="8.42756">
        <ele>1854</ele>
        <time>2021-08-13T08:14:40.172Z</time>
      </trkpt>
      <trkpt lat="46.84296" lon="8.42755">
        <ele>1854</ele>
        <time>2021-08-13T08:14:41.172Z</time>
      </trkpt>
      <trkpt lat="46.84296" lon="8.42755">
        <ele>1853</ele>
        <time>2021-08-13T08:14:42.172Z</time>
      </trkpt>
      <trkpt lat="46.84296" lon="8.42754">
        <ele>1853</ele>
        <time>2021-08-13T08:14:43.172Z</time>
      </trkpt>
      <trkpt lat="46.84296" lon="8.42754">
        <ele>1853</ele>
        <time>2021-08-13T08:14:44.172Z</time>
      </trkpt>
      <trkpt lat="46.84297" lon="8.42752">
        <ele>1852</ele>
        <time>2021-08-13T08:14:45.171Z</time>
      </trkpt>
      <trkpt lat="46.84297" lon="8.42752">
        <ele>1852</ele>
        <time>2021-08-13T08:14:46.172Z</time>
      </trkpt>
      <trkpt lat="46.84297" lon="8.42751">
        <ele>1852</ele>
        <time>2021-08-13T08:14:47.172Z</time>
      </trkpt>
      <trkpt lat="46.84298" lon="8.4275">
        <ele>1852</ele>
        <time>2021-08-13T08:14:48.172Z</time>
      </trkpt>
      <trkpt lat="46.84298" lon="8.4275">
        <ele>1853</ele>
        <time>2021-08-13T08:14:49.171Z</time>
      </trkpt>
      <trkpt lat="46.84298" lon="8.42749">
        <ele>1853</ele>
        <time>2021-08-13T08:14:50.172Z</time>
      </trkpt>
      <trkpt lat="46.84298" lon="8.42748">
        <ele>1853</ele>
        <time>2021-08-13T08:14:51.172Z</time>
      </trkpt>
      <trkpt lat="46.84298" lon="8.42747">
        <ele>1853</ele>
        <time>2021-08-13T08:14:52.172Z</time>
      </trkpt>
      <trkpt lat="46.84298" lon="8.42746">
        <ele>1853</ele>
        <time>2021-08-13T08:14:53.171Z</time>
      </trkpt>
      <trkpt lat="46.84298" lon="8.42745">
        <ele>1852</ele>
        <time>2021-08-13T08:14:54.171Z</time>
      </trkpt>
      <trkpt lat="46.84298" lon="8.42745">
        <ele>1852</ele>
        <time>2021-08-13T08:14:55.172Z</time>
      </trkpt>
      <trkpt lat="46.84298" lon="8.42744">
        <ele>1852</ele>
        <time>2021-08-13T08:14:56.172Z</time>
      </trkpt>
      <trkpt lat="46.84298" lon="8.42743">
        <ele>1851</ele>
        <time>2021-08-13T08:14:57.172Z</time>
      </trkpt>
      <trkpt lat="46.84298" lon="8.42742">
        <ele>1851</ele>
        <time>2021-08-13T08:14:58.172Z</time>
      </trkpt>
      <trkpt lat="46.84298" lon="8.42741">
        <ele>1851</ele>
        <time>2021-08-13T08:14:59.172Z</time>
      </trkpt>
      <trkpt lat="46.84298" lon="8.4274">
        <ele>1850</ele>
        <time>2021-08-13T08:15:00.171Z</time>
      </trkpt>
      <trkpt lat="46.84298" lon="8.42738">
        <ele>1850</ele>
        <time>2021-08-13T08:15:01.171Z</time>
      </trkpt>
      <trkpt lat="46.84298" lon="8.42737">
        <ele>1849</ele>
        <time>2021-08-13T08:15:02.172Z</time>
      </trkpt>
      <trkpt lat="46.84298" lon="8.42737">
        <ele>1849</ele>
        <time>2021-08-13T08:15:03.171Z</time>
      </trkpt>
      <trkpt lat="46.84298" lon="8.42735">
        <ele>1848</ele>
        <time>2021-08-13T08:15:04.171Z</time>
      </trkpt>
      <trkpt lat="46.84298" lon="8.42734">
        <ele>1848</ele>
        <time>2021-08-13T08:15:05.171Z</time>
      </trkpt>
      <trkpt lat="46.84297" lon="8.42733">
        <ele>1847</ele>
        <time>2021-08-13T08:15:06.172Z</time>
      </trkpt>
      <trkpt lat="46.84297" lon="8.42732">
        <ele>1847</ele>
        <time>2021-08-13T08:15:07.172Z</time>
      </trkpt>
      <trkpt lat="46.84297" lon="8.42731">
        <ele>1847</ele>
        <time>2021-08-13T08:15:08.172Z</time>
      </trkpt>
      <trkpt lat="46.84297" lon="8.4273">
        <ele>1846</ele>
        <time>2021-08-13T08:15:09.171Z</time>
      </trkpt>
      <trkpt lat="46.84297" lon="8.4273">
        <ele>1846</ele>
        <time>2021-08-13T08:15:10.172Z</time>
      </trkpt>
      <trkpt lat="46.84297" lon="8.42729">
        <ele>1845</ele>
        <time>2021-08-13T08:15:11.172Z</time>
      </trkpt>
      <trkpt lat="46.84296" lon="8.42729">
        <ele>1845</ele>
        <time>2021-08-13T08:15:12.171Z</time>
      </trkpt>
      <trkpt lat="46.84296" lon="8.42728">
        <ele>1845</ele>
        <time>2021-08-13T08:15:13.172Z</time>
      </trkpt>
      <trkpt lat="46.84296" lon="8.42727">
        <ele>1845</ele>
        <time>2021-08-13T08:15:14.171Z</time>
      </trkpt>
      <trkpt lat="46.84296" lon="8.42726">
        <ele>1846</ele>
        <time>2021-08-13T08:15:15.172Z</time>
      </trkpt>
      <trkpt lat="46.84295" lon="8.42726">
        <ele>1846</ele>
        <time>2021-08-13T08:15:16.172Z</time>
      </trkpt>
      <trkpt lat="46.84295" lon="8.42725">
        <ele>1846</ele>
        <time>2021-08-13T08:15:17.171Z</time>
      </trkpt>
      <trkpt lat="46.84294" lon="8.42724">
        <ele>1846</ele>
        <time>2021-08-13T08:15:18.171Z</time>
      </trkpt>
      <trkpt lat="46.84294" lon="8.42723">
        <ele>1845</ele>
        <time>2021-08-13T08:15:19.172Z</time>
      </trkpt>
      <trkpt lat="46.84294" lon="8.42723">
        <ele>1844</ele>
        <time>2021-08-13T08:15:20.171Z</time>
      </trkpt>
      <trkpt lat="46.84293" lon="8.42722">
        <ele>1844</ele>
        <time>2021-08-13T08:15:21.172Z</time>
      </trkpt>
      <trkpt lat="46.84292" lon="8.42722">
        <ele>1844</ele>
        <time>2021-08-13T08:15:22.171Z</time>
      </trkpt>
      <trkpt lat="46.84292" lon="8.42722">
        <ele>1843</ele>
        <time>2021-08-13T08:15:23.171Z</time>
      </trkpt>
      <trkpt lat="46.84291" lon="8.4272">
        <ele>1843</ele>
        <time>2021-08-13T08:15:24.172Z</time>
      </trkpt>
      <trkpt lat="46.84291" lon="8.42719">
        <ele>1843</ele>
        <time>2021-08-13T08:15:25.172Z</time>
      </trkpt>
      <trkpt lat="46.84291" lon="8.42718">
        <ele>1843</ele>
        <time>2021-08-13T08:15:26.172Z</time>
      </trkpt>
      <trkpt lat="46.84291" lon="8.42718">
        <ele>1843</ele>
        <time>2021-08-13T08:15:27.172Z</time>
      </trkpt>
      <trkpt lat="46.84291" lon="8.42718">
        <ele>1843</ele>
        <time>2021-08-13T08:15:28.172Z</time>
      </trkpt>
      <trkpt lat="46.8429" lon="8.42717">
        <ele>1843</ele>
        <time>2021-08-13T08:15:29.172Z</time>
      </trkpt>
      <trkpt lat="46.8429" lon="8.42716">
        <ele>1842</ele>
        <time>2021-08-13T08:15:30.172Z</time>
      </trkpt>
      <trkpt lat="46.8429" lon="8.42716">
        <ele>1842</ele>
        <time>2021-08-13T08:15:31.172Z</time>
      </trkpt>
      <trkpt lat="46.8429" lon="8.42715">
        <ele>1841</ele>
        <time>2021-08-13T08:15:32.171Z</time>
      </trkpt>
      <trkpt lat="46.84289" lon="8.42715">
        <ele>1841</ele>
        <time>2021-08-13T08:15:33.172Z</time>
      </trkpt>
      <trkpt lat="46.8429" lon="8.42715">
        <ele>1840</ele>
        <time>2021-08-13T08:15:34.172Z</time>
      </trkpt>
      <trkpt lat="46.84289" lon="8.42712">
        <ele>1840</ele>
        <time>2021-08-13T08:15:35.173Z</time>
      </trkpt>
      <trkpt lat="46.84289" lon="8.42711">
        <ele>1840</ele>
        <time>2021-08-13T08:15:36.172Z</time>
      </trkpt>
      <trkpt lat="46.84289" lon="8.42709">
        <ele>1840</ele>
        <time>2021-08-13T08:15:37.173Z</time>
      </trkpt>
      <trkpt lat="46.84289" lon="8.42708">
        <ele>1840</ele>
        <time>2021-08-13T08:15:38.172Z</time>
      </trkpt>
      <trkpt lat="46.84289" lon="8.42708">
        <ele>1840</ele>
        <time>2021-08-13T08:15:39.172Z</time>
      </trkpt>
      <trkpt lat="46.84289" lon="8.42707">
        <ele>1840</ele>
        <time>2021-08-13T08:15:40.173Z</time>
      </trkpt>
      <trkpt lat="46.84289" lon="8.42707">
        <ele>1840</ele>
        <time>2021-08-13T08:15:41.173Z</time>
      </trkpt>
      <trkpt lat="46.84289" lon="8.42706">
        <ele>1840</ele>
        <time>2021-08-13T08:15:42.172Z</time>
      </trkpt>
      <trkpt lat="46.84289" lon="8.42705">
        <ele>1840</ele>
        <time>2021-08-13T08:15:43.172Z</time>
      </trkpt>
      <trkpt lat="46.84289" lon="8.42704">
        <ele>1840</ele>
        <time>2021-08-13T08:15:44.172Z</time>
      </trkpt>
      <trkpt lat="46.84288" lon="8.42704">
        <ele>1840</ele>
        <time>2021-08-13T08:15:45.172Z</time>
      </trkpt>
      <trkpt lat="46.84287" lon="8.42703">
        <ele>1839</ele>
        <time>2021-08-13T08:15:46.172Z</time>
      </trkpt>
      <trkpt lat="46.84287" lon="8.42702">
        <ele>1839</ele>
        <time>2021-08-13T08:15:47.172Z</time>
      </trkpt>
      <trkpt lat="46.84286" lon="8.42702">
        <ele>1839</ele>
        <time>2021-08-13T08:15:48.172Z</time>
      </trkpt>
      <trkpt lat="46.84286" lon="8.42701">
        <ele>1839</ele>
        <time>2021-08-13T08:15:49.172Z</time>
      </trkpt>
      <trkpt lat="46.84285" lon="8.42701">
        <ele>1839</ele>
        <time>2021-08-13T08:15:50.172Z</time>
      </trkpt>
      <trkpt lat="46.84285" lon="8.427">
        <ele>1839</ele>
        <time>2021-08-13T08:15:51.172Z</time>
      </trkpt>
      <trkpt lat="46.84285" lon="8.427">
        <ele>1838</ele>
        <time>2021-08-13T08:15:52.173Z</time>
      </trkpt>
      <trkpt lat="46.84284" lon="8.42699">
        <ele>1838</ele>
        <time>2021-08-13T08:15:53.173Z</time>
      </trkpt>
      <trkpt lat="46.84284" lon="8.42698">
        <ele>1838</ele>
        <time>2021-08-13T08:15:54.172Z</time>
      </trkpt>
      <trkpt lat="46.84283" lon="8.42697">
        <ele>1838</ele>
        <time>2021-08-13T08:15:55.172Z</time>
      </trkpt>
      <trkpt lat="46.84282" lon="8.42697">
        <ele>1837</ele>
        <time>2021-08-13T08:15:56.172Z</time>
      </trkpt>
      <trkpt lat="46.84282" lon="8.42696">
        <ele>1837</ele>
        <time>2021-08-13T08:15:57.173Z</time>
      </trkpt>
      <trkpt lat="46.84282" lon="8.42695">
        <ele>1836</ele>
        <time>2021-08-13T08:15:58.173Z</time>
      </trkpt>
      <trkpt lat="46.84282" lon="8.42694">
        <ele>1836</ele>
        <time>2021-08-13T08:15:59.173Z</time>
      </trkpt>
      <trkpt lat="46.84281" lon="8.42694">
        <ele>1836</ele>
        <time>2021-08-13T08:16:00.173Z</time>
      </trkpt>
      <trkpt lat="46.84282" lon="8.42693">
        <ele>1836</ele>
        <time>2021-08-13T08:16:01.172Z</time>
      </trkpt>
      <trkpt lat="46.84283" lon="8.42693">
        <ele>1836</ele>
        <time>2021-08-13T08:16:02.172Z</time>
      </trkpt>
      <trkpt lat="46.84283" lon="8.42692">
        <ele>1837</ele>
        <time>2021-08-13T08:16:03.172Z</time>
      </trkpt>
      <trkpt lat="46.84282" lon="8.4269">
        <ele>1837</ele>
        <time>2021-08-13T08:16:04.172Z</time>
      </trkpt>
      <trkpt lat="46.84281" lon="8.4269">
        <ele>1837</ele>
        <time>2021-08-13T08:16:05.172Z</time>
      </trkpt>
      <trkpt lat="46.84281" lon="8.42689">
        <ele>1837</ele>
        <time>2021-08-13T08:16:06.172Z</time>
      </trkpt>
      <trkpt lat="46.8428" lon="8.42689">
        <ele>1837</ele>
        <time>2021-08-13T08:16:07.172Z</time>
      </trkpt>
      <trkpt lat="46.8428" lon="8.42689">
        <ele>1837</ele>
        <time>2021-08-13T08:16:08.172Z</time>
      </trkpt>
      <trkpt lat="46.8428" lon="8.42688">
        <ele>1837</ele>
        <time>2021-08-13T08:16:09.172Z</time>
      </trkpt>
      <trkpt lat="46.8428" lon="8.42688">
        <ele>1837</ele>
        <time>2021-08-13T08:16:10.172Z</time>
      </trkpt>
      <trkpt lat="46.8428" lon="8.42687">
        <ele>1836</ele>
        <time>2021-08-13T08:16:11.172Z</time>
      </trkpt>
      <trkpt lat="46.8428" lon="8.42686">
        <ele>1836</ele>
        <time>2021-08-13T08:16:12.172Z</time>
      </trkpt>
      <trkpt lat="46.8428" lon="8.42686">
        <ele>1835</ele>
        <time>2021-08-13T08:16:13.173Z</time>
      </trkpt>
      <trkpt lat="46.8428" lon="8.42686">
        <ele>1835</ele>
        <time>2021-08-13T08:16:14.172Z</time>
      </trkpt>
      <trkpt lat="46.8428" lon="8.42685">
        <ele>1835</ele>
        <time>2021-08-13T08:16:15.172Z</time>
      </trkpt>
      <trkpt lat="46.8428" lon="8.42684">
        <ele>1835</ele>
        <time>2021-08-13T08:16:16.172Z</time>
      </trkpt>
      <trkpt lat="46.84279" lon="8.42683">
        <ele>1834</ele>
        <time>2021-08-13T08:16:17.173Z</time>
      </trkpt>
      <trkpt lat="46.84279" lon="8.42682">
        <ele>1834</ele>
        <time>2021-08-13T08:16:18.172Z</time>
      </trkpt>
      <trkpt lat="46.84279" lon="8.42681">
        <ele>1833</ele>
        <time>2021-08-13T08:16:19.172Z</time>
      </trkpt>
      <trkpt lat="46.84278" lon="8.4268">
        <ele>1832</ele>
        <time>2021-08-13T08:16:20.172Z</time>
      </trkpt>
      <trkpt lat="46.84278" lon="8.42679">
        <ele>1832</ele>
        <time>2021-08-13T08:16:21.172Z</time>
      </trkpt>
      <trkpt lat="46.84278" lon="8.42678">
        <ele>1831</ele>
        <time>2021-08-13T08:16:22.173Z</time>
      </trkpt>
      <trkpt lat="46.84278" lon="8.42677">
        <ele>1831</ele>
        <time>2021-08-13T08:16:23.172Z</time>
      </trkpt>
      <trkpt lat="46.84277" lon="8.42675">
        <ele>1830</ele>
        <time>2021-08-13T08:16:24.172Z</time>
      </trkpt>
      <trkpt lat="46.84277" lon="8.42674">
        <ele>1830</ele>
        <time>2021-08-13T08:16:25.172Z</time>
      </trkpt>
      <trkpt lat="46.84277" lon="8.42673">
        <ele>1830</ele>
        <time>2021-08-13T08:16:26.172Z</time>
      </trkpt>
      <trkpt lat="46.84276" lon="8.42672">
        <ele>1829</ele>
        <time>2021-08-13T08:16:27.172Z</time>
      </trkpt>
      <trkpt lat="46.84276" lon="8.42671">
        <ele>1829</ele>
        <time>2021-08-13T08:16:28.172Z</time>
      </trkpt>
      <trkpt lat="46.84276" lon="8.4267">
        <ele>1829</ele>
        <time>2021-08-13T08:16:29.173Z</time>
      </trkpt>
      <trkpt lat="46.84276" lon="8.42669">
        <ele>1829</ele>
        <time>2021-08-13T08:16:30.173Z</time>
      </trkpt>
      <trkpt lat="46.84276" lon="8.42668">
        <ele>1829</ele>
        <time>2021-08-13T08:16:31.173Z</time>
      </trkpt>
      <trkpt lat="46.84276" lon="8.42667">
        <ele>1829</ele>
        <time>2021-08-13T08:16:32.173Z</time>
      </trkpt>
      <trkpt lat="46.84276" lon="8.42667">
        <ele>1829</ele>
        <time>2021-08-13T08:16:33.172Z</time>
      </trkpt>
      <trkpt lat="46.84276" lon="8.42666">
        <ele>1829</ele>
        <time>2021-08-13T08:16:34.172Z</time>
      </trkpt>
      <trkpt lat="46.84276" lon="8.42665">
        <ele>1829</ele>
        <time>2021-08-13T08:16:35.172Z</time>
      </trkpt>
      <trkpt lat="46.84275" lon="8.42664">
        <ele>1829</ele>
        <time>2021-08-13T08:16:36.172Z</time>
      </trkpt>
      <trkpt lat="46.84275" lon="8.42663">
        <ele>1829</ele>
        <time>2021-08-13T08:16:37.172Z</time>
      </trkpt>
      <trkpt lat="46.84275" lon="8.42663">
        <ele>1829</ele>
        <time>2021-08-13T08:16:38.172Z</time>
      </trkpt>
      <trkpt lat="46.84275" lon="8.42662">
        <ele>1828</ele>
        <time>2021-08-13T08:16:39.172Z</time>
      </trkpt>
      <trkpt lat="46.84274" lon="8.42661">
        <ele>1828</ele>
        <time>2021-08-13T08:16:40.173Z</time>
      </trkpt>
      <trkpt lat="46.84274" lon="8.4266">
        <ele>1828</ele>
        <time>2021-08-13T08:16:41.172Z</time>
      </trkpt>
      <trkpt lat="46.84274" lon="8.42659">
        <ele>1827</ele>
        <time>2021-08-13T08:16:42.173Z</time>
      </trkpt>
      <trkpt lat="46.84274" lon="8.42658">
        <ele>1828</ele>
        <time>2021-08-13T08:16:43.173Z</time>
      </trkpt>
      <trkpt lat="46.84274" lon="8.42657">
        <ele>1828</ele>
        <time>2021-08-13T08:16:44.173Z</time>
      </trkpt>
      <trkpt lat="46.84274" lon="8.42655">
        <ele>1828</ele>
        <time>2021-08-13T08:16:45.172Z</time>
      </trkpt>
      <trkpt lat="46.84274" lon="8.42654">
        <ele>1828</ele>
        <time>2021-08-13T08:16:46.173Z</time>
      </trkpt>
      <trkpt lat="46.84274" lon="8.42653">
        <ele>1828</ele>
        <time>2021-08-13T08:16:47.173Z</time>
      </trkpt>
      <trkpt lat="46.84274" lon="8.42653">
        <ele>1828</ele>
        <time>2021-08-13T08:16:48.172Z</time>
      </trkpt>
      <trkpt lat="46.84274" lon="8.42652">
        <ele>1828</ele>
        <time>2021-08-13T08:16:49.173Z</time>
      </trkpt>
      <trkpt lat="46.84274" lon="8.42652">
        <ele>1828</ele>
        <time>2021-08-13T08:16:50.173Z</time>
      </trkpt>
      <trkpt lat="46.84275" lon="8.42652">
        <ele>1825</ele>
        <time>2021-08-13T08:16:51.173Z</time>
      </trkpt>
      <trkpt lat="46.84275" lon="8.42652">
        <ele>1825</ele>
        <time>2021-08-13T08:16:52.174Z</time>
      </trkpt>
      <trkpt lat="46.84275" lon="8.42652">
        <ele>1824</ele>
        <time>2021-08-13T08:16:53.173Z</time>
      </trkpt>
      <trkpt lat="46.84275" lon="8.42652">
        <ele>1824</ele>
        <time>2021-08-13T08:16:54.174Z</time>
      </trkpt>
      <trkpt lat="46.84275" lon="8.42651">
        <ele>1824</ele>
        <time>2021-08-13T08:16:55.173Z</time>
      </trkpt>
      <trkpt lat="46.84275" lon="8.4265">
        <ele>1824</ele>
        <time>2021-08-13T08:16:56.173Z</time>
      </trkpt>
      <trkpt lat="46.84275" lon="8.42649">
        <ele>1824</ele>
        <time>2021-08-13T08:16:57.173Z</time>
      </trkpt>
      <trkpt lat="46.84275" lon="8.42648">
        <ele>1824</ele>
        <time>2021-08-13T08:16:58.173Z</time>
      </trkpt>
      <trkpt lat="46.84276" lon="8.42647">
        <ele>1823</ele>
        <time>2021-08-13T08:16:59.173Z</time>
      </trkpt>
      <trkpt lat="46.84275" lon="8.42646">
        <ele>1823</ele>
        <time>2021-08-13T08:17:00.173Z</time>
      </trkpt>
      <trkpt lat="46.84276" lon="8.42645">
        <ele>1822</ele>
        <time>2021-08-13T08:17:01.173Z</time>
      </trkpt>
      <trkpt lat="46.84275" lon="8.42644">
        <ele>1822</ele>
        <time>2021-08-13T08:17:02.173Z</time>
      </trkpt>
      <trkpt lat="46.84275" lon="8.42643">
        <ele>1822</ele>
        <time>2021-08-13T08:17:03.173Z</time>
      </trkpt>
      <trkpt lat="46.84275" lon="8.42643">
        <ele>1822</ele>
        <time>2021-08-13T08:17:04.173Z</time>
      </trkpt>
      <trkpt lat="46.84274" lon="8.42642">
        <ele>1822</ele>
        <time>2021-08-13T08:17:05.173Z</time>
      </trkpt>
      <trkpt lat="46.84273" lon="8.42641">
        <ele>1822</ele>
        <time>2021-08-13T08:17:06.173Z</time>
      </trkpt>
      <trkpt lat="46.84273" lon="8.42641">
        <ele>1822</ele>
        <time>2021-08-13T08:17:07.173Z</time>
      </trkpt>
      <trkpt lat="46.84272" lon="8.4264">
        <ele>1821</ele>
        <time>2021-08-13T08:17:08.174Z</time>
      </trkpt>
      <trkpt lat="46.84271" lon="8.4264">
        <ele>1821</ele>
        <time>2021-08-13T08:17:09.173Z</time>
      </trkpt>
      <trkpt lat="46.84271" lon="8.42639">
        <ele>1821</ele>
        <time>2021-08-13T08:17:10.173Z</time>
      </trkpt>
      <trkpt lat="46.8427" lon="8.42638">
        <ele>1821</ele>
        <time>2021-08-13T08:17:11.174Z</time>
      </trkpt>
      <trkpt lat="46.8427" lon="8.42638">
        <ele>1821</ele>
        <time>2021-08-13T08:17:12.174Z</time>
      </trkpt>
      <trkpt lat="46.84269" lon="8.42637">
        <ele>1821</ele>
        <time>2021-08-13T08:17:13.173Z</time>
      </trkpt>
      <trkpt lat="46.84269" lon="8.42636">
        <ele>1820</ele>
        <time>2021-08-13T08:17:14.174Z</time>
      </trkpt>
      <trkpt lat="46.84268" lon="8.42636">
        <ele>1820</ele>
        <time>2021-08-13T08:17:15.174Z</time>
      </trkpt>
      <trkpt lat="46.84266" lon="8.42636">
        <ele>1820</ele>
        <time>2021-08-13T08:17:16.174Z</time>
      </trkpt>
      <trkpt lat="46.84265" lon="8.42635">
        <ele>1820</ele>
        <time>2021-08-13T08:17:17.173Z</time>
      </trkpt>
      <trkpt lat="46.84263" lon="8.42635">
        <ele>1821</ele>
        <time>2021-08-13T08:17:18.174Z</time>
      </trkpt>
      <trkpt lat="46.84262" lon="8.42635">
        <ele>1821</ele>
        <time>2021-08-13T08:17:19.174Z</time>
      </trkpt>
      <trkpt lat="46.84261" lon="8.42636">
        <ele>1820</ele>
        <time>2021-08-13T08:17:20.174Z</time>
      </trkpt>
      <trkpt lat="46.8426" lon="8.42636">
        <ele>1820</ele>
        <time>2021-08-13T08:17:21.174Z</time>
      </trkpt>
      <trkpt lat="46.8426" lon="8.42636">
        <ele>1820</ele>
        <time>2021-08-13T08:17:22.174Z</time>
      </trkpt>
      <trkpt lat="46.8426" lon="8.42636">
        <ele>1820</ele>
        <time>2021-08-13T08:17:23.174Z</time>
      </trkpt>
      <trkpt lat="46.84261" lon="8.42636">
        <ele>1819</ele>
        <time>2021-08-13T08:17:24.173Z</time>
      </trkpt>
      <trkpt lat="46.84261" lon="8.42635">
        <ele>1819</ele>
        <time>2021-08-13T08:17:25.173Z</time>
      </trkpt>
      <trkpt lat="46.84262" lon="8.42634">
        <ele>1820</ele>
        <time>2021-08-13T08:17:26.174Z</time>
      </trkpt>
      <trkpt lat="46.84262" lon="8.42634">
        <ele>1820</ele>
        <time>2021-08-13T08:17:27.174Z</time>
      </trkpt>
      <trkpt lat="46.84262" lon="8.42633">
        <ele>1820</ele>
        <time>2021-08-13T08:17:28.174Z</time>
      </trkpt>
      <trkpt lat="46.84262" lon="8.42632">
        <ele>1820</ele>
        <time>2021-08-13T08:17:29.173Z</time>
      </trkpt>
      <trkpt lat="46.84262" lon="8.42632">
        <ele>1821</ele>
        <time>2021-08-13T08:17:30.174Z</time>
      </trkpt>
      <trkpt lat="46.84262" lon="8.42631">
        <ele>1821</ele>
        <time>2021-08-13T08:17:31.174Z</time>
      </trkpt>
      <trkpt lat="46.84262" lon="8.42631">
        <ele>1821</ele>
        <time>2021-08-13T08:17:32.174Z</time>
      </trkpt>
      <trkpt lat="46.84262" lon="8.4263">
        <ele>1821</ele>
        <time>2021-08-13T08:17:33.174Z</time>
      </trkpt>
      <trkpt lat="46.84261" lon="8.42629">
        <ele>1821</ele>
        <time>2021-08-13T08:17:34.174Z</time>
      </trkpt>
      <trkpt lat="46.84261" lon="8.42628">
        <ele>1821</ele>
        <time>2021-08-13T08:17:35.174Z</time>
      </trkpt>
      <trkpt lat="46.8426" lon="8.42627">
        <ele>1820</ele>
        <time>2021-08-13T08:17:36.174Z</time>
      </trkpt>
      <trkpt lat="46.8426" lon="8.42627">
        <ele>1820</ele>
        <time>2021-08-13T08:17:37.174Z</time>
      </trkpt>
      <trkpt lat="46.84259" lon="8.42626">
        <ele>1819</ele>
        <time>2021-08-13T08:17:38.173Z</time>
      </trkpt>
      <trkpt lat="46.84258" lon="8.42625">
        <ele>1819</ele>
        <time>2021-08-13T08:17:39.173Z</time>
      </trkpt>
      <trkpt lat="46.84258" lon="8.42624">
        <ele>1819</ele>
        <time>2021-08-13T08:17:40.173Z</time>
      </trkpt>
      <trkpt lat="46.84257" lon="8.42624">
        <ele>1819</ele>
        <time>2021-08-13T08:17:41.174Z</time>
      </trkpt>
      <trkpt lat="46.84257" lon="8.42623">
        <ele>1819</ele>
        <time>2021-08-13T08:17:42.174Z</time>
      </trkpt>
      <trkpt lat="46.84257" lon="8.42623">
        <ele>1818</ele>
        <time>2021-08-13T08:17:43.173Z</time>
      </trkpt>
      <trkpt lat="46.84256" lon="8.42622">
        <ele>1818</ele>
        <time>2021-08-13T08:17:44.174Z</time>
      </trkpt>
      <trkpt lat="46.84256" lon="8.42622">
        <ele>1818</ele>
        <time>2021-08-13T08:17:45.173Z</time>
      </trkpt>
      <trkpt lat="46.84255" lon="8.42621">
        <ele>1818</ele>
        <time>2021-08-13T08:17:46.173Z</time>
      </trkpt>
      <trkpt lat="46.84255" lon="8.42621">
        <ele>1818</ele>
        <time>2021-08-13T08:17:47.174Z</time>
      </trkpt>
      <trkpt lat="46.84254" lon="8.42621">
        <ele>1817</ele>
        <time>2021-08-13T08:17:48.174Z</time>
      </trkpt>
      <trkpt lat="46.84254" lon="8.42621">
        <ele>1817</ele>
        <time>2021-08-13T08:17:49.174Z</time>
      </trkpt>
      <trkpt lat="46.84253" lon="8.4262">
        <ele>1818</ele>
        <time>2021-08-13T08:17:50.174Z</time>
      </trkpt>
      <trkpt lat="46.84252" lon="8.42619">
        <ele>1818</ele>
        <time>2021-08-13T08:17:51.173Z</time>
      </trkpt>
      <trkpt lat="46.84252" lon="8.42618">
        <ele>1818</ele>
        <time>2021-08-13T08:17:52.173Z</time>
      </trkpt>
      <trkpt lat="46.84251" lon="8.42618">
        <ele>1818</ele>
        <time>2021-08-13T08:17:53.174Z</time>
      </trkpt>
      <trkpt lat="46.8425" lon="8.42617">
        <ele>1818</ele>
        <time>2021-08-13T08:17:54.174Z</time>
      </trkpt>
      <trkpt lat="46.8425" lon="8.42617">
        <ele>1818</ele>
        <time>2021-08-13T08:17:55.174Z</time>
      </trkpt>
      <trkpt lat="46.84249" lon="8.42616">
        <ele>1817</ele>
        <time>2021-08-13T08:17:56.173Z</time>
      </trkpt>
      <trkpt lat="46.84248" lon="8.42616">
        <ele>1817</ele>
        <time>2021-08-13T08:17:57.174Z</time>
      </trkpt>
      <trkpt lat="46.84247" lon="8.42615">
        <ele>1817</ele>
        <time>2021-08-13T08:17:58.174Z</time>
      </trkpt>
      <trkpt lat="46.84247" lon="8.42615">
        <ele>1817</ele>
        <time>2021-08-13T08:17:59.174Z</time>
      </trkpt>
      <trkpt lat="46.84247" lon="8.42614">
        <ele>1818</ele>
        <time>2021-08-13T08:18:00.174Z</time>
      </trkpt>
      <trkpt lat="46.84247" lon="8.42614">
        <ele>1818</ele>
        <time>2021-08-13T08:18:01.173Z</time>
      </trkpt>
      <trkpt lat="46.84246" lon="8.42613">
        <ele>1818</ele>
        <time>2021-08-13T08:18:02.174Z</time>
      </trkpt>
      <trkpt lat="46.84246" lon="8.42612">
        <ele>1817</ele>
        <time>2021-08-13T08:18:03.174Z</time>
      </trkpt>
      <trkpt lat="46.84244" lon="8.42611">
        <ele>1817</ele>
        <time>2021-08-13T08:18:04.173Z</time>
      </trkpt>
      <trkpt lat="46.84243" lon="8.42609">
        <ele>1817</ele>
        <time>2021-08-13T08:18:05.174Z</time>
      </trkpt>
      <trkpt lat="46.84243" lon="8.42608">
        <ele>1816</ele>
        <time>2021-08-13T08:18:06.174Z</time>
      </trkpt>
      <trkpt lat="46.84242" lon="8.42607">
        <ele>1816</ele>
        <time>2021-08-13T08:18:07.173Z</time>
      </trkpt>
      <trkpt lat="46.84242" lon="8.42607">
        <ele>1816</ele>
        <time>2021-08-13T08:18:08.173Z</time>
      </trkpt>
      <trkpt lat="46.84242" lon="8.42606">
        <ele>1815</ele>
        <time>2021-08-13T08:18:09.174Z</time>
      </trkpt>
      <trkpt lat="46.84241" lon="8.42605">
        <ele>1815</ele>
        <time>2021-08-13T08:18:10.173Z</time>
      </trkpt>
      <trkpt lat="46.84241" lon="8.42604">
        <ele>1814</ele>
        <time>2021-08-13T08:18:11.173Z</time>
      </trkpt>
      <trkpt lat="46.8424" lon="8.42603">
        <ele>1814</ele>
        <time>2021-08-13T08:18:12.174Z</time>
      </trkpt>
      <trkpt lat="46.84238" lon="8.42602">
        <ele>1814</ele>
        <time>2021-08-13T08:18:13.174Z</time>
      </trkpt>
      <trkpt lat="46.84237" lon="8.426">
        <ele>1813</ele>
        <time>2021-08-13T08:18:14.173Z</time>
      </trkpt>
      <trkpt lat="46.84236" lon="8.42599">
        <ele>1813</ele>
        <time>2021-08-13T08:18:15.174Z</time>
      </trkpt>
      <trkpt lat="46.84235" lon="8.42598">
        <ele>1812</ele>
        <time>2021-08-13T08:18:16.174Z</time>
      </trkpt>
      <trkpt lat="46.84234" lon="8.42596">
        <ele>1812</ele>
        <time>2021-08-13T08:18:17.174Z</time>
      </trkpt>
      <trkpt lat="46.84233" lon="8.42595">
        <ele>1812</ele>
        <time>2021-08-13T08:18:18.174Z</time>
      </trkpt>
      <trkpt lat="46.84232" lon="8.42593">
        <ele>1812</ele>
        <time>2021-08-13T08:18:19.174Z</time>
      </trkpt>
      <trkpt lat="46.84231" lon="8.42592">
        <ele>1811</ele>
        <time>2021-08-13T08:18:20.174Z</time>
      </trkpt>
      <trkpt lat="46.8423" lon="8.42591">
        <ele>1811</ele>
        <time>2021-08-13T08:18:21.173Z</time>
      </trkpt>
      <trkpt lat="46.84229" lon="8.42589">
        <ele>1810</ele>
        <time>2021-08-13T08:18:22.173Z</time>
      </trkpt>
      <trkpt lat="46.84227" lon="8.42588">
        <ele>1810</ele>
        <time>2021-08-13T08:18:23.174Z</time>
      </trkpt>
      <trkpt lat="46.84226" lon="8.42588">
        <ele>1810</ele>
        <time>2021-08-13T08:18:24.173Z</time>
      </trkpt>
      <trkpt lat="46.84225" lon="8.42587">
        <ele>1810</ele>
        <time>2021-08-13T08:18:25.173Z</time>
      </trkpt>
      <trkpt lat="46.84224" lon="8.42587">
        <ele>1810</ele>
        <time>2021-08-13T08:18:26.173Z</time>
      </trkpt>
      <trkpt lat="46.84224" lon="8.42586">
        <ele>1810</ele>
        <time>2021-08-13T08:18:27.174Z</time>
      </trkpt>
      <trkpt lat="46.84223" lon="8.42584">
        <ele>1810</ele>
        <time>2021-08-13T08:18:28.174Z</time>
      </trkpt>
      <trkpt lat="46.84222" lon="8.42583">
        <ele>1810</ele>
        <time>2021-08-13T08:18:29.174Z</time>
      </trkpt>
      <trkpt lat="46.84221" lon="8.42581">
        <ele>1811</ele>
        <time>2021-08-13T08:18:30.173Z</time>
      </trkpt>
      <trkpt lat="46.8422" lon="8.4258">
        <ele>1811</ele>
        <time>2021-08-13T08:18:31.174Z</time>
      </trkpt>
      <trkpt lat="46.84219" lon="8.42579">
        <ele>1811</ele>
        <time>2021-08-13T08:18:32.174Z</time>
      </trkpt>
      <trkpt lat="46.84219" lon="8.42578">
        <ele>1811</ele>
        <time>2021-08-13T08:18:33.174Z</time>
      </trkpt>
      <trkpt lat="46.84218" lon="8.42577">
        <ele>1811</ele>
        <time>2021-08-13T08:18:34.174Z</time>
      </trkpt>
      <trkpt lat="46.84217" lon="8.42576">
        <ele>1811</ele>
        <time>2021-08-13T08:18:35.174Z</time>
      </trkpt>
      <trkpt lat="46.84216" lon="8.42575">
        <ele>1811</ele>
        <time>2021-08-13T08:18:36.174Z</time>
      </trkpt>
      <trkpt lat="46.84215" lon="8.42574">
        <ele>1811</ele>
        <time>2021-08-13T08:18:37.173Z</time>
      </trkpt>
      <trkpt lat="46.84214" lon="8.42574">
        <ele>1811</ele>
        <time>2021-08-13T08:18:38.173Z</time>
      </trkpt>
      <trkpt lat="46.84213" lon="8.42573">
        <ele>1811</ele>
        <time>2021-08-13T08:18:39.174Z</time>
      </trkpt>
      <trkpt lat="46.84212" lon="8.42572">
        <ele>1810</ele>
        <time>2021-08-13T08:18:40.174Z</time>
      </trkpt>
      <trkpt lat="46.84211" lon="8.42571">
        <ele>1810</ele>
        <time>2021-08-13T08:18:41.174Z</time>
      </trkpt>
      <trkpt lat="46.8421" lon="8.4257">
        <ele>1810</ele>
        <time>2021-08-13T08:18:42.174Z</time>
      </trkpt>
      <trkpt lat="46.84209" lon="8.42569">
        <ele>1809</ele>
        <time>2021-08-13T08:18:43.173Z</time>
      </trkpt>
      <trkpt lat="46.84209" lon="8.42568">
        <ele>1809</ele>
        <time>2021-08-13T08:18:44.173Z</time>
      </trkpt>
      <trkpt lat="46.84208" lon="8.42567">
        <ele>1809</ele>
        <time>2021-08-13T08:18:45.173Z</time>
      </trkpt>
      <trkpt lat="46.84207" lon="8.42565">
        <ele>1808</ele>
        <time>2021-08-13T08:18:46.173Z</time>
      </trkpt>
      <trkpt lat="46.84206" lon="8.42564">
        <ele>1808</ele>
        <time>2021-08-13T08:18:47.173Z</time>
      </trkpt>
      <trkpt lat="46.84205" lon="8.42564">
        <ele>1807</ele>
        <time>2021-08-13T08:18:48.173Z</time>
      </trkpt>
      <trkpt lat="46.84204" lon="8.42563">
        <ele>1807</ele>
        <time>2021-08-13T08:18:49.173Z</time>
      </trkpt>
      <trkpt lat="46.84204" lon="8.42563">
        <ele>1807</ele>
        <time>2021-08-13T08:18:50.173Z</time>
      </trkpt>
      <trkpt lat="46.84203" lon="8.42561">
        <ele>1807</ele>
        <time>2021-08-13T08:18:51.173Z</time>
      </trkpt>
      <trkpt lat="46.84202" lon="8.4256">
        <ele>1807</ele>
        <time>2021-08-13T08:18:52.174Z</time>
      </trkpt>
      <trkpt lat="46.84201" lon="8.4256">
        <ele>1806</ele>
        <time>2021-08-13T08:18:53.174Z</time>
      </trkpt>
      <trkpt lat="46.842" lon="8.42558">
        <ele>1806</ele>
        <time>2021-08-13T08:18:54.174Z</time>
      </trkpt>
      <trkpt lat="46.84199" lon="8.42557">
        <ele>1805</ele>
        <time>2021-08-13T08:18:55.174Z</time>
      </trkpt>
      <trkpt lat="46.84198" lon="8.42556">
        <ele>1805</ele>
        <time>2021-08-13T08:18:56.173Z</time>
      </trkpt>
      <trkpt lat="46.84197" lon="8.42554">
        <ele>1804</ele>
        <time>2021-08-13T08:18:57.174Z</time>
      </trkpt>
      <trkpt lat="46.84196" lon="8.42553">
        <ele>1804</ele>
        <time>2021-08-13T08:18:58.173Z</time>
      </trkpt>
      <trkpt lat="46.84195" lon="8.42551">
        <ele>1804</ele>
        <time>2021-08-13T08:18:59.174Z</time>
      </trkpt>
      <trkpt lat="46.84194" lon="8.4255">
        <ele>1804</ele>
        <time>2021-08-13T08:19:00.173Z</time>
      </trkpt>
      <trkpt lat="46.84193" lon="8.42549">
        <ele>1804</ele>
        <time>2021-08-13T08:19:01.173Z</time>
      </trkpt>
      <trkpt lat="46.84191" lon="8.42548">
        <ele>1804</ele>
        <time>2021-08-13T08:19:02.173Z</time>
      </trkpt>
      <trkpt lat="46.8419" lon="8.42546">
        <ele>1804</ele>
        <time>2021-08-13T08:19:03.173Z</time>
      </trkpt>
      <trkpt lat="46.84189" lon="8.42545">
        <ele>1804</ele>
        <time>2021-08-13T08:19:04.174Z</time>
      </trkpt>
      <trkpt lat="46.84188" lon="8.42544">
        <ele>1804</ele>
        <time>2021-08-13T08:19:05.174Z</time>
      </trkpt>
      <trkpt lat="46.84187" lon="8.42543">
        <ele>1804</ele>
        <time>2021-08-13T08:19:06.174Z</time>
      </trkpt>
      <trkpt lat="46.84185" lon="8.42541">
        <ele>1804</ele>
        <time>2021-08-13T08:19:07.173Z</time>
      </trkpt>
      <trkpt lat="46.84185" lon="8.4254">
        <ele>1804</ele>
        <time>2021-08-13T08:19:08.174Z</time>
      </trkpt>
      <trkpt lat="46.84184" lon="8.42539">
        <ele>1804</ele>
        <time>2021-08-13T08:19:09.173Z</time>
      </trkpt>
      <trkpt lat="46.84183" lon="8.42538">
        <ele>1803</ele>
        <time>2021-08-13T08:19:10.173Z</time>
      </trkpt>
      <trkpt lat="46.84182" lon="8.42537">
        <ele>1802</ele>
        <time>2021-08-13T08:19:11.174Z</time>
      </trkpt>
      <trkpt lat="46.84181" lon="8.42536">
        <ele>1801</ele>
        <time>2021-08-13T08:19:12.174Z</time>
      </trkpt>
      <trkpt lat="46.8418" lon="8.42536">
        <ele>1801</ele>
        <time>2021-08-13T08:19:13.173Z</time>
      </trkpt>
      <trkpt lat="46.84179" lon="8.42535">
        <ele>1800</ele>
        <time>2021-08-13T08:19:14.173Z</time>
      </trkpt>
      <trkpt lat="46.84178" lon="8.42533">
        <ele>1800</ele>
        <time>2021-08-13T08:19:15.173Z</time>
      </trkpt>
      <trkpt lat="46.84177" lon="8.42532">
        <ele>1799</ele>
        <time>2021-08-13T08:19:16.174Z</time>
      </trkpt>
      <trkpt lat="46.84176" lon="8.42531">
        <ele>1799</ele>
        <time>2021-08-13T08:19:17.173Z</time>
      </trkpt>
      <trkpt lat="46.84175" lon="8.4253">
        <ele>1799</ele>
        <time>2021-08-13T08:19:18.174Z</time>
      </trkpt>
      <trkpt lat="46.84174" lon="8.42529">
        <ele>1799</ele>
        <time>2021-08-13T08:19:19.174Z</time>
      </trkpt>
      <trkpt lat="46.84174" lon="8.42528">
        <ele>1799</ele>
        <time>2021-08-13T08:19:20.174Z</time>
      </trkpt>
      <trkpt lat="46.84173" lon="8.42527">
        <ele>1798</ele>
        <time>2021-08-13T08:19:21.173Z</time>
      </trkpt>
      <trkpt lat="46.84172" lon="8.42526">
        <ele>1798</ele>
        <time>2021-08-13T08:19:22.173Z</time>
      </trkpt>
      <trkpt lat="46.84172" lon="8.42525">
        <ele>1798</ele>
        <time>2021-08-13T08:19:23.174Z</time>
      </trkpt>
      <trkpt lat="46.84171" lon="8.42524">
        <ele>1799</ele>
        <time>2021-08-13T08:19:24.173Z</time>
      </trkpt>
      <trkpt lat="46.84171" lon="8.42523">
        <ele>1799</ele>
        <time>2021-08-13T08:19:25.173Z</time>
      </trkpt>
      <trkpt lat="46.8417" lon="8.42521">
        <ele>1799</ele>
        <time>2021-08-13T08:19:26.174Z</time>
      </trkpt>
      <trkpt lat="46.8417" lon="8.4252">
        <ele>1799</ele>
        <time>2021-08-13T08:19:27.173Z</time>
      </trkpt>
      <trkpt lat="46.8417" lon="8.42518">
        <ele>1799</ele>
        <time>2021-08-13T08:19:28.174Z</time>
      </trkpt>
      <trkpt lat="46.84171" lon="8.42517">
        <ele>1799</ele>
        <time>2021-08-13T08:19:29.174Z</time>
      </trkpt>
      <trkpt lat="46.84171" lon="8.42515">
        <ele>1799</ele>
        <time>2021-08-13T08:19:30.173Z</time>
      </trkpt>
      <trkpt lat="46.84171" lon="8.42513">
        <ele>1798</ele>
        <time>2021-08-13T08:19:31.174Z</time>
      </trkpt>
      <trkpt lat="46.84171" lon="8.42511">
        <ele>1798</ele>
        <time>2021-08-13T08:19:32.174Z</time>
      </trkpt>
      <trkpt lat="46.84171" lon="8.4251">
        <ele>1798</ele>
        <time>2021-08-13T08:19:33.174Z</time>
      </trkpt>
      <trkpt lat="46.84171" lon="8.42508">
        <ele>1798</ele>
        <time>2021-08-13T08:19:34.173Z</time>
      </trkpt>
      <trkpt lat="46.84172" lon="8.42506">
        <ele>1798</ele>
        <time>2021-08-13T08:19:35.173Z</time>
      </trkpt>
      <trkpt lat="46.84172" lon="8.42505">
        <ele>1798</ele>
        <time>2021-08-13T08:19:36.174Z</time>
      </trkpt>
      <trkpt lat="46.84172" lon="8.42504">
        <ele>1798</ele>
        <time>2021-08-13T08:19:37.174Z</time>
      </trkpt>
      <trkpt lat="46.84173" lon="8.42503">
        <ele>1798</ele>
        <time>2021-08-13T08:19:38.173Z</time>
      </trkpt>
      <trkpt lat="46.84173" lon="8.42501">
        <ele>1798</ele>
        <time>2021-08-13T08:19:39.173Z</time>
      </trkpt>
      <trkpt lat="46.84173" lon="8.425">
        <ele>1798</ele>
        <time>2021-08-13T08:19:40.174Z</time>
      </trkpt>
      <trkpt lat="46.84173" lon="8.42498">
        <ele>1798</ele>
        <time>2021-08-13T08:19:41.173Z</time>
      </trkpt>
      <trkpt lat="46.84174" lon="8.42496">
        <ele>1798</ele>
        <time>2021-08-13T08:19:42.173Z</time>
      </trkpt>
      <trkpt lat="46.84174" lon="8.42495">
        <ele>1798</ele>
        <time>2021-08-13T08:19:43.173Z</time>
      </trkpt>
      <trkpt lat="46.84174" lon="8.42493">
        <ele>1798</ele>
        <time>2021-08-13T08:19:44.173Z</time>
      </trkpt>
      <trkpt lat="46.84174" lon="8.42492">
        <ele>1798</ele>
        <time>2021-08-13T08:19:45.173Z</time>
      </trkpt>
      <trkpt lat="46.84174" lon="8.4249">
        <ele>1797</ele>
        <time>2021-08-13T08:19:46.173Z</time>
      </trkpt>
      <trkpt lat="46.84174" lon="8.42488">
        <ele>1797</ele>
        <time>2021-08-13T08:19:47.173Z</time>
      </trkpt>
      <trkpt lat="46.84173" lon="8.42486">
        <ele>1796</ele>
        <time>2021-08-13T08:19:48.173Z</time>
      </trkpt>
      <trkpt lat="46.84173" lon="8.42484">
        <ele>1796</ele>
        <time>2021-08-13T08:19:49.174Z</time>
      </trkpt>
      <trkpt lat="46.84172" lon="8.42483">
        <ele>1796</ele>
        <time>2021-08-13T08:19:50.174Z</time>
      </trkpt>
      <trkpt lat="46.84171" lon="8.42481">
        <ele>1796</ele>
        <time>2021-08-13T08:19:51.174Z</time>
      </trkpt>
      <trkpt lat="46.84171" lon="8.42479">
        <ele>1795</ele>
        <time>2021-08-13T08:19:52.174Z</time>
      </trkpt>
      <trkpt lat="46.84171" lon="8.42477">
        <ele>1795</ele>
        <time>2021-08-13T08:19:53.174Z</time>
      </trkpt>
      <trkpt lat="46.84171" lon="8.42476">
        <ele>1795</ele>
        <time>2021-08-13T08:19:54.174Z</time>
      </trkpt>
      <trkpt lat="46.8417" lon="8.42475">
        <ele>1795</ele>
        <time>2021-08-13T08:19:55.174Z</time>
      </trkpt>
      <trkpt lat="46.8417" lon="8.42474">
        <ele>1794</ele>
        <time>2021-08-13T08:19:56.174Z</time>
      </trkpt>
      <trkpt lat="46.84169" lon="8.42473">
        <ele>1794</ele>
        <time>2021-08-13T08:19:57.174Z</time>
      </trkpt>
      <trkpt lat="46.84168" lon="8.42471">
        <ele>1794</ele>
        <time>2021-08-13T08:19:58.174Z</time>
      </trkpt>
      <trkpt lat="46.84166" lon="8.42469">
        <ele>1794</ele>
        <time>2021-08-13T08:19:59.173Z</time>
      </trkpt>
      <trkpt lat="46.84165" lon="8.42468">
        <ele>1794</ele>
        <time>2021-08-13T08:20:00.173Z</time>
      </trkpt>
      <trkpt lat="46.84164" lon="8.42467">
        <ele>1794</ele>
        <time>2021-08-13T08:20:01.174Z</time>
      </trkpt>
      <trkpt lat="46.84163" lon="8.42465">
        <ele>1794</ele>
        <time>2021-08-13T08:20:02.174Z</time>
      </trkpt>
      <trkpt lat="46.84162" lon="8.42464">
        <ele>1794</ele>
        <time>2021-08-13T08:20:03.174Z</time>
      </trkpt>
      <trkpt lat="46.84161" lon="8.42463">
        <ele>1793</ele>
        <time>2021-08-13T08:20:04.174Z</time>
      </trkpt>
      <trkpt lat="46.8416" lon="8.42462">
        <ele>1793</ele>
        <time>2021-08-13T08:20:05.173Z</time>
      </trkpt>
      <trkpt lat="46.84159" lon="8.42461">
        <ele>1792</ele>
        <time>2021-08-13T08:20:06.174Z</time>
      </trkpt>
      <trkpt lat="46.84158" lon="8.42461">
        <ele>1791</ele>
        <time>2021-08-13T08:20:07.173Z</time>
      </trkpt>
      <trkpt lat="46.84158" lon="8.42461">
        <ele>1791</ele>
        <time>2021-08-13T08:20:08.173Z</time>
      </trkpt>
      <trkpt lat="46.84157" lon="8.42461">
        <ele>1791</ele>
        <time>2021-08-13T08:20:09.174Z</time>
      </trkpt>
      <trkpt lat="46.84157" lon="8.42461">
        <ele>1790</ele>
        <time>2021-08-13T08:20:10.173Z</time>
      </trkpt>
      <trkpt lat="46.84156" lon="8.4246">
        <ele>1790</ele>
        <time>2021-08-13T08:20:11.174Z</time>
      </trkpt>
      <trkpt lat="46.84155" lon="8.42459">
        <ele>1790</ele>
        <time>2021-08-13T08:20:12.174Z</time>
      </trkpt>
      <trkpt lat="46.84155" lon="8.42458">
        <ele>1790</ele>
        <time>2021-08-13T08:20:13.174Z</time>
      </trkpt>
      <trkpt lat="46.84153" lon="8.42457">
        <ele>1790</ele>
        <time>2021-08-13T08:20:14.174Z</time>
      </trkpt>
      <trkpt lat="46.84152" lon="8.42456">
        <ele>1790</ele>
        <time>2021-08-13T08:20:15.173Z</time>
      </trkpt>
      <trkpt lat="46.84151" lon="8.42455">
        <ele>1790</ele>
        <time>2021-08-13T08:20:16.174Z</time>
      </trkpt>
      <trkpt lat="46.8415" lon="8.42454">
        <ele>1791</ele>
        <time>2021-08-13T08:20:17.174Z</time>
      </trkpt>
      <trkpt lat="46.84149" lon="8.42453">
        <ele>1791</ele>
        <time>2021-08-13T08:20:18.174Z</time>
      </trkpt>
      <trkpt lat="46.84148" lon="8.42452">
        <ele>1791</ele>
        <time>2021-08-13T08:20:19.174Z</time>
      </trkpt>
      <trkpt lat="46.84147" lon="8.42451">
        <ele>1791</ele>
        <time>2021-08-13T08:20:20.174Z</time>
      </trkpt>
      <trkpt lat="46.84145" lon="8.4245">
        <ele>1791</ele>
        <time>2021-08-13T08:20:21.174Z</time>
      </trkpt>
      <trkpt lat="46.84144" lon="8.42449">
        <ele>1791</ele>
        <time>2021-08-13T08:20:22.173Z</time>
      </trkpt>
      <trkpt lat="46.84143" lon="8.42448">
        <ele>1791</ele>
        <time>2021-08-13T08:20:23.174Z</time>
      </trkpt>
      <trkpt lat="46.84143" lon="8.42447">
        <ele>1790</ele>
        <time>2021-08-13T08:20:24.173Z</time>
      </trkpt>
      <trkpt lat="46.84142" lon="8.42446">
        <ele>1790</ele>
        <time>2021-08-13T08:20:25.174Z</time>
      </trkpt>
      <trkpt lat="46.84141" lon="8.42446">
        <ele>1789</ele>
        <time>2021-08-13T08:20:26.173Z</time>
      </trkpt>
      <trkpt lat="46.8414" lon="8.42445">
        <ele>1789</ele>
        <time>2021-08-13T08:20:27.173Z</time>
      </trkpt>
      <trkpt lat="46.84139" lon="8.42443">
        <ele>1789</ele>
        <time>2021-08-13T08:20:28.173Z</time>
      </trkpt>
      <trkpt lat="46.84138" lon="8.42442">
        <ele>1789</ele>
        <time>2021-08-13T08:20:29.173Z</time>
      </trkpt>
      <trkpt lat="46.84136" lon="8.42441">
        <ele>1789</ele>
        <time>2021-08-13T08:20:30.173Z</time>
      </trkpt>
      <trkpt lat="46.84135" lon="8.4244">
        <ele>1788</ele>
        <time>2021-08-13T08:20:31.174Z</time>
      </trkpt>
      <trkpt lat="46.84135" lon="8.42439">
        <ele>1788</ele>
        <time>2021-08-13T08:20:32.174Z</time>
      </trkpt>
      <trkpt lat="46.84134" lon="8.42437">
        <ele>1788</ele>
        <time>2021-08-13T08:20:33.173Z</time>
      </trkpt>
      <trkpt lat="46.84133" lon="8.42436">
        <ele>1787</ele>
        <time>2021-08-13T08:20:34.174Z</time>
      </trkpt>
      <trkpt lat="46.84132" lon="8.42435">
        <ele>1787</ele>
        <time>2021-08-13T08:20:35.173Z</time>
      </trkpt>
      <trkpt lat="46.84131" lon="8.42433">
        <ele>1787</ele>
        <time>2021-08-13T08:20:36.173Z</time>
      </trkpt>
      <trkpt lat="46.8413" lon="8.42432">
        <ele>1786</ele>
        <time>2021-08-13T08:20:37.173Z</time>
      </trkpt>
      <trkpt lat="46.84129" lon="8.42431">
        <ele>1786</ele>
        <time>2021-08-13T08:20:38.173Z</time>
      </trkpt>
      <trkpt lat="46.84128" lon="8.4243">
        <ele>1787</ele>
        <time>2021-08-13T08:20:39.174Z</time>
      </trkpt>
      <trkpt lat="46.84127" lon="8.42429">
        <ele>1787</ele>
        <time>2021-08-13T08:20:40.174Z</time>
      </trkpt>
      <trkpt lat="46.84126" lon="8.42427">
        <ele>1787</ele>
        <time>2021-08-13T08:20:41.173Z</time>
      </trkpt>
      <trkpt lat="46.84125" lon="8.42426">
        <ele>1788</ele>
        <time>2021-08-13T08:20:42.173Z</time>
      </trkpt>
      <trkpt lat="46.84124" lon="8.42424">
        <ele>1788</ele>
        <time>2021-08-13T08:20:43.174Z</time>
      </trkpt>
      <trkpt lat="46.84123" lon="8.42423">
        <ele>1789</ele>
        <time>2021-08-13T08:20:44.174Z</time>
      </trkpt>
      <trkpt lat="46.84122" lon="8.42422">
        <ele>1789</ele>
        <time>2021-08-13T08:20:45.174Z</time>
      </trkpt>
      <trkpt lat="46.84122" lon="8.4242">
        <ele>1789</ele>
        <time>2021-08-13T08:20:46.173Z</time>
      </trkpt>
      <trkpt lat="46.84121" lon="8.42419">
        <ele>1789</ele>
        <time>2021-08-13T08:20:47.173Z</time>
      </trkpt>
      <trkpt lat="46.8412" lon="8.42418">
        <ele>1789</ele>
        <time>2021-08-13T08:20:48.173Z</time>
      </trkpt>
      <trkpt lat="46.8412" lon="8.42416">
        <ele>1789</ele>
        <time>2021-08-13T08:20:49.173Z</time>
      </trkpt>
      <trkpt lat="46.84119" lon="8.42415">
        <ele>1789</ele>
        <time>2021-08-13T08:20:50.173Z</time>
      </trkpt>
      <trkpt lat="46.84118" lon="8.42413">
        <ele>1789</ele>
        <time>2021-08-13T08:20:51.174Z</time>
      </trkpt>
      <trkpt lat="46.84118" lon="8.42412">
        <ele>1789</ele>
        <time>2021-08-13T08:20:52.174Z</time>
      </trkpt>
      <trkpt lat="46.84118" lon="8.4241">
        <ele>1789</ele>
        <time>2021-08-13T08:20:53.174Z</time>
      </trkpt>
      <trkpt lat="46.84118" lon="8.42409">
        <ele>1788</ele>
        <time>2021-08-13T08:20:54.174Z</time>
      </trkpt>
      <trkpt lat="46.84117" lon="8.42408">
        <ele>1788</ele>
        <time>2021-08-13T08:20:55.173Z</time>
      </trkpt>
      <trkpt lat="46.84117" lon="8.42406">
        <ele>1788</ele>
        <time>2021-08-13T08:20:56.174Z</time>
      </trkpt>
      <trkpt lat="46.84116" lon="8.42405">
        <ele>1788</ele>
        <time>2021-08-13T08:20:57.174Z</time>
      </trkpt>
      <trkpt lat="46.84116" lon="8.42403">
        <ele>1787</ele>
        <time>2021-08-13T08:20:58.173Z</time>
      </trkpt>
      <trkpt lat="46.84115" lon="8.42401">
        <ele>1787</ele>
        <time>2021-08-13T08:20:59.174Z</time>
      </trkpt>
      <trkpt lat="46.84115" lon="8.42399">
        <ele>1787</ele>
        <time>2021-08-13T08:21:00.174Z</time>
      </trkpt>
      <trkpt lat="46.84114" lon="8.42398">
        <ele>1788</ele>
        <time>2021-08-13T08:21:01.174Z</time>
      </trkpt>
      <trkpt lat="46.84114" lon="8.42396">
        <ele>1788</ele>
        <time>2021-08-13T08:21:02.174Z</time>
      </trkpt>
      <trkpt lat="46.84113" lon="8.42394">
        <ele>1787</ele>
        <time>2021-08-13T08:21:03.174Z</time>
      </trkpt>
      <trkpt lat="46.84113" lon="8.42392">
        <ele>1787</ele>
        <time>2021-08-13T08:21:04.174Z</time>
      </trkpt>
      <trkpt lat="46.84113" lon="8.42391">
        <ele>1787</ele>
        <time>2021-08-13T08:21:05.174Z</time>
      </trkpt>
      <trkpt lat="46.84112" lon="8.4239">
        <ele>1786</ele>
        <time>2021-08-13T08:21:06.174Z</time>
      </trkpt>
      <trkpt lat="46.84112" lon="8.42389">
        <ele>1786</ele>
        <time>2021-08-13T08:21:07.173Z</time>
      </trkpt>
      <trkpt lat="46.84111" lon="8.42388">
        <ele>1786</ele>
        <time>2021-08-13T08:21:08.174Z</time>
      </trkpt>
      <trkpt lat="46.84111" lon="8.42386">
        <ele>1785</ele>
        <time>2021-08-13T08:21:09.173Z</time>
      </trkpt>
      <trkpt lat="46.8411" lon="8.42385">
        <ele>1785</ele>
        <time>2021-08-13T08:21:10.174Z</time>
      </trkpt>
      <trkpt lat="46.84109" lon="8.42383">
        <ele>1785</ele>
        <time>2021-08-13T08:21:11.174Z</time>
      </trkpt>
      <trkpt lat="46.84108" lon="8.42382">
        <ele>1785</ele>
        <time>2021-08-13T08:21:12.173Z</time>
      </trkpt>
      <trkpt lat="46.84107" lon="8.42381">
        <ele>1785</ele>
        <time>2021-08-13T08:21:13.174Z</time>
      </trkpt>
      <trkpt lat="46.84106" lon="8.4238">
        <ele>1784</ele>
        <time>2021-08-13T08:21:14.174Z</time>
      </trkpt>
      <trkpt lat="46.84106" lon="8.42379">
        <ele>1783</ele>
        <time>2021-08-13T08:21:15.174Z</time>
      </trkpt>
      <trkpt lat="46.84105" lon="8.42378">
        <ele>1783</ele>
        <time>2021-08-13T08:21:16.174Z</time>
      </trkpt>
      <trkpt lat="46.84104" lon="8.42377">
        <ele>1783</ele>
        <time>2021-08-13T08:21:17.173Z</time>
      </trkpt>
      <trkpt lat="46.84103" lon="8.42376">
        <ele>1783</ele>
        <time>2021-08-13T08:21:18.174Z</time>
      </trkpt>
      <trkpt lat="46.84102" lon="8.42376">
        <ele>1783</ele>
        <time>2021-08-13T08:21:19.174Z</time>
      </trkpt>
      <trkpt lat="46.84102" lon="8.42375">
        <ele>1783</ele>
        <time>2021-08-13T08:21:20.174Z</time>
      </trkpt>
      <trkpt lat="46.84101" lon="8.42375">
        <ele>1784</ele>
        <time>2021-08-13T08:21:21.174Z</time>
      </trkpt>
      <trkpt lat="46.84101" lon="8.42375">
        <ele>1783</ele>
        <time>2021-08-13T08:21:22.174Z</time>
      </trkpt>
      <trkpt lat="46.84101" lon="8.42374">
        <ele>1784</ele>
        <time>2021-08-13T08:21:23.175Z</time>
      </trkpt>
      <trkpt lat="46.841" lon="8.42374">
        <ele>1783</ele>
        <time>2021-08-13T08:21:24.175Z</time>
      </trkpt>
      <trkpt lat="46.841" lon="8.42374">
        <ele>1783</ele>
        <time>2021-08-13T08:21:25.174Z</time>
      </trkpt>
      <trkpt lat="46.84099" lon="8.42373">
        <ele>1782</ele>
        <time>2021-08-13T08:21:26.174Z</time>
      </trkpt>
      <trkpt lat="46.84098" lon="8.42373">
        <ele>1781</ele>
        <time>2021-08-13T08:21:27.175Z</time>
      </trkpt>
      <trkpt lat="46.84097" lon="8.42372">
        <ele>1781</ele>
        <time>2021-08-13T08:21:28.174Z</time>
      </trkpt>
      <trkpt lat="46.84096" lon="8.42371">
        <ele>1781</ele>
        <time>2021-08-13T08:21:29.175Z</time>
      </trkpt>
      <trkpt lat="46.84094" lon="8.4237">
        <ele>1780</ele>
        <time>2021-08-13T08:21:30.175Z</time>
      </trkpt>
      <trkpt lat="46.84093" lon="8.4237">
        <ele>1779</ele>
        <time>2021-08-13T08:21:31.175Z</time>
      </trkpt>
      <trkpt lat="46.84093" lon="8.4237">
        <ele>1779</ele>
        <time>2021-08-13T08:21:32.175Z</time>
      </trkpt>
      <trkpt lat="46.84092" lon="8.42369">
        <ele>1779</ele>
        <time>2021-08-13T08:21:33.174Z</time>
      </trkpt>
      <trkpt lat="46.84091" lon="8.42369">
        <ele>1779</ele>
        <time>2021-08-13T08:21:34.175Z</time>
      </trkpt>
      <trkpt lat="46.8409" lon="8.42369">
        <ele>1779</ele>
        <time>2021-08-13T08:21:35.175Z</time>
      </trkpt>
      <trkpt lat="46.84089" lon="8.4237">
        <ele>1779</ele>
        <time>2021-08-13T08:21:36.175Z</time>
      </trkpt>
      <trkpt lat="46.84088" lon="8.4237">
        <ele>1779</ele>
        <time>2021-08-13T08:21:37.174Z</time>
      </trkpt>
      <trkpt lat="46.84087" lon="8.42369">
        <ele>1779</ele>
        <time>2021-08-13T08:21:38.175Z</time>
      </trkpt>
      <trkpt lat="46.84086" lon="8.42369">
        <ele>1779</ele>
        <time>2021-08-13T08:21:39.174Z</time>
      </trkpt>
      <trkpt lat="46.84085" lon="8.42368">
        <ele>1779</ele>
        <time>2021-08-13T08:21:40.174Z</time>
      </trkpt>
      <trkpt lat="46.84083" lon="8.42368">
        <ele>1780</ele>
        <time>2021-08-13T08:21:41.174Z</time>
      </trkpt>
      <trkpt lat="46.84082" lon="8.42367">
        <ele>1779</ele>
        <time>2021-08-13T08:21:42.175Z</time>
      </trkpt>
      <trkpt lat="46.8408" lon="8.42367">
        <ele>1779</ele>
        <time>2021-08-13T08:21:43.174Z</time>
      </trkpt>
      <trkpt lat="46.84079" lon="8.42366">
        <ele>1779</ele>
        <time>2021-08-13T08:21:44.174Z</time>
      </trkpt>
      <trkpt lat="46.84077" lon="8.42365">
        <ele>1779</ele>
        <time>2021-08-13T08:21:45.174Z</time>
      </trkpt>
      <trkpt lat="46.84076" lon="8.42365">
        <ele>1780</ele>
        <time>2021-08-13T08:21:46.174Z</time>
      </trkpt>
      <trkpt lat="46.84075" lon="8.42365">
        <ele>1780</ele>
        <time>2021-08-13T08:21:47.174Z</time>
      </trkpt>
      <trkpt lat="46.84074" lon="8.42365">
        <ele>1781</ele>
        <time>2021-08-13T08:21:48.174Z</time>
      </trkpt>
      <trkpt lat="46.84073" lon="8.42364">
        <ele>1782</ele>
        <time>2021-08-13T08:21:49.175Z</time>
      </trkpt>
      <trkpt lat="46.84072" lon="8.42364">
        <ele>1782</ele>
        <time>2021-08-13T08:21:50.175Z</time>
      </trkpt>
      <trkpt lat="46.8407" lon="8.42364">
        <ele>1782</ele>
        <time>2021-08-13T08:21:51.175Z</time>
      </trkpt>
      <trkpt lat="46.84069" lon="8.42363">
        <ele>1782</ele>
        <time>2021-08-13T08:21:52.174Z</time>
      </trkpt>
      <trkpt lat="46.84068" lon="8.42362">
        <ele>1782</ele>
        <time>2021-08-13T08:21:53.175Z</time>
      </trkpt>
      <trkpt lat="46.84067" lon="8.42362">
        <ele>1782</ele>
        <time>2021-08-13T08:21:54.175Z</time>
      </trkpt>
      <trkpt lat="46.84066" lon="8.42363">
        <ele>1781</ele>
        <time>2021-08-13T08:21:55.175Z</time>
      </trkpt>
      <trkpt lat="46.84065" lon="8.42363">
        <ele>1781</ele>
        <time>2021-08-13T08:21:56.175Z</time>
      </trkpt>
      <trkpt lat="46.84063" lon="8.42363">
        <ele>1780</ele>
        <time>2021-08-13T08:21:57.175Z</time>
      </trkpt>
      <trkpt lat="46.84062" lon="8.42362">
        <ele>1779</ele>
        <time>2021-08-13T08:21:58.175Z</time>
      </trkpt>
      <trkpt lat="46.84061" lon="8.42362">
        <ele>1779</ele>
        <time>2021-08-13T08:21:59.175Z</time>
      </trkpt>
      <trkpt lat="46.84059" lon="8.42363">
        <ele>1779</ele>
        <time>2021-08-13T08:22:00.175Z</time>
      </trkpt>
      <trkpt lat="46.84058" lon="8.42363">
        <ele>1778</ele>
        <time>2021-08-13T08:22:01.175Z</time>
      </trkpt>
      <trkpt lat="46.84058" lon="8.42364">
        <ele>1778</ele>
        <time>2021-08-13T08:22:02.174Z</time>
      </trkpt>
      <trkpt lat="46.84058" lon="8.42364">
        <ele>1777</ele>
        <time>2021-08-13T08:22:03.174Z</time>
      </trkpt>
      <trkpt lat="46.84057" lon="8.42368">
        <ele>1775</ele>
        <time>2021-08-13T08:22:04.175Z</time>
      </trkpt>
      <trkpt lat="46.84056" lon="8.4237">
        <ele>1774</ele>
        <time>2021-08-13T08:22:05.175Z</time>
      </trkpt>
      <trkpt lat="46.84056" lon="8.42371">
        <ele>1773</ele>
        <time>2021-08-13T08:22:06.174Z</time>
      </trkpt>
      <trkpt lat="46.84056" lon="8.42372">
        <ele>1773</ele>
        <time>2021-08-13T08:22:07.175Z</time>
      </trkpt>
      <trkpt lat="46.84055" lon="8.42373">
        <ele>1773</ele>
        <time>2021-08-13T08:22:08.175Z</time>
      </trkpt>
      <trkpt lat="46.84055" lon="8.42374">
        <ele>1773</ele>
        <time>2021-08-13T08:22:09.174Z</time>
      </trkpt>
      <trkpt lat="46.84054" lon="8.42376">
        <ele>1773</ele>
        <time>2021-08-13T08:22:10.174Z</time>
      </trkpt>
      <trkpt lat="46.84054" lon="8.42375">
        <ele>1772</ele>
        <time>2021-08-13T08:22:11.174Z</time>
      </trkpt>
      <trkpt lat="46.84055" lon="8.42374">
        <ele>1772</ele>
        <time>2021-08-13T08:22:12.174Z</time>
      </trkpt>
      <trkpt lat="46.84056" lon="8.42377">
        <ele>1770</ele>
        <time>2021-08-13T08:22:13.175Z</time>
      </trkpt>
      <trkpt lat="46.84056" lon="8.42376">
        <ele>1770</ele>
        <time>2021-08-13T08:22:14.175Z</time>
      </trkpt>
      <trkpt lat="46.84056" lon="8.42377">
        <ele>1770</ele>
        <time>2021-08-13T08:22:15.174Z</time>
      </trkpt>
      <trkpt lat="46.84055" lon="8.42376">
        <ele>1770</ele>
        <time>2021-08-13T08:22:16.176Z</time>
      </trkpt>
      <trkpt lat="46.84055" lon="8.42376">
        <ele>1771</ele>
        <time>2021-08-13T08:22:17.176Z</time>
      </trkpt>
      <trkpt lat="46.84055" lon="8.42377">
        <ele>1770</ele>
        <time>2021-08-13T08:22:18.175Z</time>
      </trkpt>
      <trkpt lat="46.84055" lon="8.42376">
        <ele>1770</ele>
        <time>2021-08-13T08:22:19.176Z</time>
      </trkpt>
      <trkpt lat="46.84053" lon="8.42375">
        <ele>1770</ele>
        <time>2021-08-13T08:22:20.175Z</time>
      </trkpt>
      <trkpt lat="46.84054" lon="8.42376">
        <ele>1769</ele>
        <time>2021-08-13T08:22:21.176Z</time>
      </trkpt>
      <trkpt lat="46.84054" lon="8.42375">
        <ele>1769</ele>
        <time>2021-08-13T08:22:22.175Z</time>
      </trkpt>
      <trkpt lat="46.84055" lon="8.42374">
        <ele>1769</ele>
        <time>2021-08-13T08:22:23.175Z</time>
      </trkpt>
      <trkpt lat="46.84056" lon="8.42372">
        <ele>1769</ele>
        <time>2021-08-13T08:22:24.176Z</time>
      </trkpt>
      <trkpt lat="46.84056" lon="8.4237">
        <ele>1770</ele>
        <time>2021-08-13T08:22:25.175Z</time>
      </trkpt>
      <trkpt lat="46.84056" lon="8.42369">
        <ele>1770</ele>
        <time>2021-08-13T08:22:26.175Z</time>
      </trkpt>
      <trkpt lat="46.84055" lon="8.42367">
        <ele>1770</ele>
        <time>2021-08-13T08:22:27.176Z</time>
      </trkpt>
      <trkpt lat="46.84055" lon="8.42366">
        <ele>1770</ele>
        <time>2021-08-13T08:22:28.176Z</time>
      </trkpt>
      <trkpt lat="46.84054" lon="8.42365">
        <ele>1771</ele>
        <time>2021-08-13T08:22:29.175Z</time>
      </trkpt>
      <trkpt lat="46.84053" lon="8.42364">
        <ele>1771</ele>
        <time>2021-08-13T08:22:30.175Z</time>
      </trkpt>
      <trkpt lat="46.84051" lon="8.42363">
        <ele>1772</ele>
        <time>2021-08-13T08:22:31.175Z</time>
      </trkpt>
      <trkpt lat="46.8405" lon="8.42362">
        <ele>1773</ele>
        <time>2021-08-13T08:22:32.175Z</time>
      </trkpt>
      <trkpt lat="46.84049" lon="8.42362">
        <ele>1773</ele>
        <time>2021-08-13T08:22:33.175Z</time>
      </trkpt>
      <trkpt lat="46.84048" lon="8.42361">
        <ele>1774</ele>
        <time>2021-08-13T08:22:34.175Z</time>
      </trkpt>
      <trkpt lat="46.84046" lon="8.42361">
        <ele>1774</ele>
        <time>2021-08-13T08:22:35.175Z</time>
      </trkpt>
      <trkpt lat="46.84045" lon="8.42361">
        <ele>1774</ele>
        <time>2021-08-13T08:22:36.175Z</time>
      </trkpt>
      <trkpt lat="46.84043" lon="8.42361">
        <ele>1775</ele>
        <time>2021-08-13T08:22:37.175Z</time>
      </trkpt>
      <trkpt lat="46.84042" lon="8.42361">
        <ele>1775</ele>
        <time>2021-08-13T08:22:38.175Z</time>
      </trkpt>
      <trkpt lat="46.8404" lon="8.42362">
        <ele>1775</ele>
        <time>2021-08-13T08:22:39.175Z</time>
      </trkpt>
      <trkpt lat="46.84039" lon="8.42362">
        <ele>1775</ele>
        <time>2021-08-13T08:22:40.175Z</time>
      </trkpt>
      <trkpt lat="46.84038" lon="8.42362">
        <ele>1775</ele>
        <time>2021-08-13T08:22:41.175Z</time>
      </trkpt>
      <trkpt lat="46.84037" lon="8.42363">
        <ele>1775</ele>
        <time>2021-08-13T08:22:42.175Z</time>
      </trkpt>
      <trkpt lat="46.84035" lon="8.42363">
        <ele>1775</ele>
        <time>2021-08-13T08:22:43.175Z</time>
      </trkpt>
      <trkpt lat="46.84034" lon="8.42363">
        <ele>1774</ele>
        <time>2021-08-13T08:22:44.176Z</time>
      </trkpt>
      <trkpt lat="46.84033" lon="8.42363">
        <ele>1774</ele>
        <time>2021-08-13T08:22:45.175Z</time>
      </trkpt>
      <trkpt lat="46.84032" lon="8.42363">
        <ele>1773</ele>
        <time>2021-08-13T08:22:46.175Z</time>
      </trkpt>
      <trkpt lat="46.84031" lon="8.42363">
        <ele>1773</ele>
        <time>2021-08-13T08:22:47.175Z</time>
      </trkpt>
      <trkpt lat="46.8403" lon="8.42363">
        <ele>1773</ele>
        <time>2021-08-13T08:22:48.175Z</time>
      </trkpt>
      <trkpt lat="46.8403" lon="8.42363">
        <ele>1772</ele>
        <time>2021-08-13T08:22:49.175Z</time>
      </trkpt>
      <trkpt lat="46.8403" lon="8.42362">
        <ele>1772</ele>
        <time>2021-08-13T08:22:50.175Z</time>
      </trkpt>
      <trkpt lat="46.8403" lon="8.42362">
        <ele>1772</ele>
        <time>2021-08-13T08:22:51.175Z</time>
      </trkpt>
      <trkpt lat="46.8403" lon="8.42362">
        <ele>1771</ele>
        <time>2021-08-13T08:22:52.175Z</time>
      </trkpt>
      <trkpt lat="46.84029" lon="8.42361">
        <ele>1771</ele>
        <time>2021-08-13T08:22:53.175Z</time>
      </trkpt>
      <trkpt lat="46.84028" lon="8.4236">
        <ele>1771</ele>
        <time>2021-08-13T08:22:54.176Z</time>
      </trkpt>
      <trkpt lat="46.84028" lon="8.4236">
        <ele>1771</ele>
        <time>2021-08-13T08:22:55.176Z</time>
      </trkpt>
      <trkpt lat="46.84027" lon="8.4236">
        <ele>1771</ele>
        <time>2021-08-13T08:22:56.175Z</time>
      </trkpt>
      <trkpt lat="46.84026" lon="8.4236">
        <ele>1771</ele>
        <time>2021-08-13T08:22:57.176Z</time>
      </trkpt>
      <trkpt lat="46.84025" lon="8.4236">
        <ele>1771</ele>
        <time>2021-08-13T08:22:58.176Z</time>
      </trkpt>
      <trkpt lat="46.84024" lon="8.4236">
        <ele>1771</ele>
        <time>2021-08-13T08:22:59.176Z</time>
      </trkpt>
      <trkpt lat="46.84023" lon="8.42361">
        <ele>1770</ele>
        <time>2021-08-13T08:23:00.176Z</time>
      </trkpt>
      <trkpt lat="46.84023" lon="8.42362">
        <ele>1770</ele>
        <time>2021-08-13T08:23:01.176Z</time>
      </trkpt>
      <trkpt lat="46.84023" lon="8.42363">
        <ele>1769</ele>
        <time>2021-08-13T08:23:02.175Z</time>
      </trkpt>
      <trkpt lat="46.84023" lon="8.42365">
        <ele>1768</ele>
        <time>2021-08-13T08:23:03.177Z</time>
      </trkpt>
      <trkpt lat="46.84022" lon="8.42365">
        <ele>1768</ele>
        <time>2021-08-13T08:23:04.176Z</time>
      </trkpt>
      <trkpt lat="46.84022" lon="8.42365">
        <ele>1768</ele>
        <time>2021-08-13T08:23:05.177Z</time>
      </trkpt>
      <trkpt lat="46.84022" lon="8.42366">
        <ele>1768</ele>
        <time>2021-08-13T08:23:06.177Z</time>
      </trkpt>
      <trkpt lat="46.8402" lon="8.42366">
        <ele>1769</ele>
        <time>2021-08-13T08:23:07.176Z</time>
      </trkpt>
      <trkpt lat="46.84019" lon="8.42366">
        <ele>1769</ele>
        <time>2021-08-13T08:23:08.177Z</time>
      </trkpt>
      <trkpt lat="46.84017" lon="8.42367">
        <ele>1769</ele>
        <time>2021-08-13T08:23:09.177Z</time>
      </trkpt>
      <trkpt lat="46.84016" lon="8.42367">
        <ele>1769</ele>
        <time>2021-08-13T08:23:10.176Z</time>
      </trkpt>
      <trkpt lat="46.84015" lon="8.42368">
        <ele>1768</ele>
        <time>2021-08-13T08:23:11.176Z</time>
      </trkpt>
      <trkpt lat="46.84014" lon="8.42368">
        <ele>1768</ele>
        <time>2021-08-13T08:23:12.176Z</time>
      </trkpt>
      <trkpt lat="46.84013" lon="8.42369">
        <ele>1768</ele>
        <time>2021-08-13T08:23:13.176Z</time>
      </trkpt>
      <trkpt lat="46.84012" lon="8.4237">
        <ele>1768</ele>
        <time>2021-08-13T08:23:14.176Z</time>
      </trkpt>
      <trkpt lat="46.84011" lon="8.4237">
        <ele>1768</ele>
        <time>2021-08-13T08:23:15.176Z</time>
      </trkpt>
      <trkpt lat="46.8401" lon="8.42371">
        <ele>1768</ele>
        <time>2021-08-13T08:23:16.177Z</time>
      </trkpt>
      <trkpt lat="46.84009" lon="8.42371">
        <ele>1768</ele>
        <time>2021-08-13T08:23:17.176Z</time>
      </trkpt>
      <trkpt lat="46.84008" lon="8.42372">
        <ele>1769</ele>
        <time>2021-08-13T08:23:18.176Z</time>
      </trkpt>
      <trkpt lat="46.84007" lon="8.42373">
        <ele>1769</ele>
        <time>2021-08-13T08:23:19.177Z</time>
      </trkpt>
      <trkpt lat="46.84006" lon="8.42373">
        <ele>1769</ele>
        <time>2021-08-13T08:23:20.176Z</time>
      </trkpt>
      <trkpt lat="46.84005" lon="8.42374">
        <ele>1770</ele>
        <time>2021-08-13T08:23:21.177Z</time>
      </trkpt>
      <trkpt lat="46.84005" lon="8.42374">
        <ele>1771</ele>
        <time>2021-08-13T08:23:22.176Z</time>
      </trkpt>
      <trkpt lat="46.84004" lon="8.42374">
        <ele>1772</ele>
        <time>2021-08-13T08:23:23.177Z</time>
      </trkpt>
      <trkpt lat="46.84003" lon="8.42374">
        <ele>1772</ele>
        <time>2021-08-13T08:23:24.176Z</time>
      </trkpt>
      <trkpt lat="46.84001" lon="8.42375">
        <ele>1771</ele>
        <time>2021-08-13T08:23:25.177Z</time>
      </trkpt>
      <trkpt lat="46.84" lon="8.42375">
        <ele>1771</ele>
        <time>2021-08-13T08:23:26.176Z</time>
      </trkpt>
      <trkpt lat="46.83999" lon="8.42374">
        <ele>1771</ele>
        <time>2021-08-13T08:23:27.177Z</time>
      </trkpt>
      <trkpt lat="46.83998" lon="8.42373">
        <ele>1771</ele>
        <time>2021-08-13T08:23:28.176Z</time>
      </trkpt>
      <trkpt lat="46.83997" lon="8.42372">
        <ele>1771</ele>
        <time>2021-08-13T08:23:29.177Z</time>
      </trkpt>
      <trkpt lat="46.83996" lon="8.42371">
        <ele>1771</ele>
        <time>2021-08-13T08:23:30.176Z</time>
      </trkpt>
      <trkpt lat="46.83995" lon="8.4237">
        <ele>1770</ele>
        <time>2021-08-13T08:23:31.176Z</time>
      </trkpt>
      <trkpt lat="46.83994" lon="8.42368">
        <ele>1770</ele>
        <time>2021-08-13T08:23:32.176Z</time>
      </trkpt>
      <trkpt lat="46.83993" lon="8.42368">
        <ele>1770</ele>
        <time>2021-08-13T08:23:33.177Z</time>
      </trkpt>
      <trkpt lat="46.83993" lon="8.42367">
        <ele>1769</ele>
        <time>2021-08-13T08:23:34.177Z</time>
      </trkpt>
      <trkpt lat="46.83992" lon="8.42366">
        <ele>1768</ele>
        <time>2021-08-13T08:23:35.177Z</time>
      </trkpt>
      <trkpt lat="46.83991" lon="8.42365">
        <ele>1768</ele>
        <time>2021-08-13T08:23:36.176Z</time>
      </trkpt>
      <trkpt lat="46.8399" lon="8.42363">
        <ele>1767</ele>
        <time>2021-08-13T08:23:37.177Z</time>
      </trkpt>
      <trkpt lat="46.83989" lon="8.42362">
        <ele>1766</ele>
        <time>2021-08-13T08:23:38.176Z</time>
      </trkpt>
      <trkpt lat="46.83989" lon="8.4236">
        <ele>1766</ele>
        <time>2021-08-13T08:23:39.176Z</time>
      </trkpt>
      <trkpt lat="46.83988" lon="8.42359">
        <ele>1765</ele>
        <time>2021-08-13T08:23:40.177Z</time>
      </trkpt>
      <trkpt lat="46.83988" lon="8.42357">
        <ele>1765</ele>
        <time>2021-08-13T08:23:41.177Z</time>
      </trkpt>
      <trkpt lat="46.83987" lon="8.42356">
        <ele>1764</ele>
        <time>2021-08-13T08:23:42.177Z</time>
      </trkpt>
      <trkpt lat="46.83986" lon="8.42354">
        <ele>1764</ele>
        <time>2021-08-13T08:23:43.176Z</time>
      </trkpt>
      <trkpt lat="46.83986" lon="8.42353">
        <ele>1764</ele>
        <time>2021-08-13T08:23:44.177Z</time>
      </trkpt>
      <trkpt lat="46.83986" lon="8.42351">
        <ele>1763</ele>
        <time>2021-08-13T08:23:45.177Z</time>
      </trkpt>
      <trkpt lat="46.83986" lon="8.4235">
        <ele>1763</ele>
        <time>2021-08-13T08:23:46.177Z</time>
      </trkpt>
      <trkpt lat="46.83986" lon="8.42349">
        <ele>1762</ele>
        <time>2021-08-13T08:23:47.176Z</time>
      </trkpt>
      <trkpt lat="46.83986" lon="8.42348">
        <ele>1762</ele>
        <time>2021-08-13T08:23:48.177Z</time>
      </trkpt>
      <trkpt lat="46.83985" lon="8.42346">
        <ele>1762</ele>
        <time>2021-08-13T08:23:49.177Z</time>
      </trkpt>
      <trkpt lat="46.83985" lon="8.42345">
        <ele>1762</ele>
        <time>2021-08-13T08:23:50.177Z</time>
      </trkpt>
      <trkpt lat="46.83985" lon="8.42343">
        <ele>1762</ele>
        <time>2021-08-13T08:23:51.177Z</time>
      </trkpt>
      <trkpt lat="46.83985" lon="8.42342">
        <ele>1762</ele>
        <time>2021-08-13T08:23:52.177Z</time>
      </trkpt>
      <trkpt lat="46.83986" lon="8.4234">
        <ele>1762</ele>
        <time>2021-08-13T08:23:53.176Z</time>
      </trkpt>
      <trkpt lat="46.83986" lon="8.42339">
        <ele>1762</ele>
        <time>2021-08-13T08:23:54.176Z</time>
      </trkpt>
      <trkpt lat="46.83986" lon="8.42337">
        <ele>1762</ele>
        <time>2021-08-13T08:23:55.177Z</time>
      </trkpt>
      <trkpt lat="46.83985" lon="8.42336">
        <ele>1762</ele>
        <time>2021-08-13T08:23:56.177Z</time>
      </trkpt>
      <trkpt lat="46.83985" lon="8.42334">
        <ele>1762</ele>
        <time>2021-08-13T08:23:57.177Z</time>
      </trkpt>
      <trkpt lat="46.83985" lon="8.42333">
        <ele>1762</ele>
        <time>2021-08-13T08:23:58.177Z</time>
      </trkpt>
      <trkpt lat="46.83985" lon="8.42331">
        <ele>1762</ele>
        <time>2021-08-13T08:23:59.177Z</time>
      </trkpt>
      <trkpt lat="46.83985" lon="8.4233">
        <ele>1762</ele>
        <time>2021-08-13T08:24:00.176Z</time>
      </trkpt>
      <trkpt lat="46.83984" lon="8.42329">
        <ele>1762</ele>
        <time>2021-08-13T08:24:01.177Z</time>
      </trkpt>
      <trkpt lat="46.83984" lon="8.42327">
        <ele>1762</ele>
        <time>2021-08-13T08:24:02.177Z</time>
      </trkpt>
      <trkpt lat="46.83984" lon="8.42326">
        <ele>1762</ele>
        <time>2021-08-13T08:24:03.176Z</time>
      </trkpt>
      <trkpt lat="46.83984" lon="8.42325">
        <ele>1761</ele>
        <time>2021-08-13T08:24:04.176Z</time>
      </trkpt>
      <trkpt lat="46.83984" lon="8.42324">
        <ele>1761</ele>
        <time>2021-08-13T08:24:05.177Z</time>
      </trkpt>
      <trkpt lat="46.83984" lon="8.42324">
        <ele>1761</ele>
        <time>2021-08-13T08:24:06.176Z</time>
      </trkpt>
      <trkpt lat="46.83983" lon="8.42323">
        <ele>1761</ele>
        <time>2021-08-13T08:24:07.176Z</time>
      </trkpt>
      <trkpt lat="46.83982" lon="8.42322">
        <ele>1760</ele>
        <time>2021-08-13T08:24:08.176Z</time>
      </trkpt>
      <trkpt lat="46.83982" lon="8.42321">
        <ele>1760</ele>
        <time>2021-08-13T08:24:09.177Z</time>
      </trkpt>
      <trkpt lat="46.83981" lon="8.4232">
        <ele>1760</ele>
        <time>2021-08-13T08:24:10.176Z</time>
      </trkpt>
      <trkpt lat="46.83981" lon="8.42319">
        <ele>1760</ele>
        <time>2021-08-13T08:24:11.176Z</time>
      </trkpt>
      <trkpt lat="46.8398" lon="8.42317">
        <ele>1760</ele>
        <time>2021-08-13T08:24:12.177Z</time>
      </trkpt>
      <trkpt lat="46.83979" lon="8.42316">
        <ele>1759</ele>
        <time>2021-08-13T08:24:13.176Z</time>
      </trkpt>
      <trkpt lat="46.83979" lon="8.42316">
        <ele>1759</ele>
        <time>2021-08-13T08:24:14.177Z</time>
      </trkpt>
      <trkpt lat="46.83978" lon="8.42315">
        <ele>1760</ele>
        <time>2021-08-13T08:24:15.177Z</time>
      </trkpt>
      <trkpt lat="46.83977" lon="8.42314">
        <ele>1760</ele>
        <time>2021-08-13T08:24:16.177Z</time>
      </trkpt>
      <trkpt lat="46.83976" lon="8.42313">
        <ele>1759</ele>
        <time>2021-08-13T08:24:17.177Z</time>
      </trkpt>
      <trkpt lat="46.83975" lon="8.42312">
        <ele>1759</ele>
        <time>2021-08-13T08:24:18.177Z</time>
      </trkpt>
      <trkpt lat="46.83974" lon="8.42311">
        <ele>1759</ele>
        <time>2021-08-13T08:24:19.176Z</time>
      </trkpt>
      <trkpt lat="46.83973" lon="8.42311">
        <ele>1759</ele>
        <time>2021-08-13T08:24:20.177Z</time>
      </trkpt>
      <trkpt lat="46.83972" lon="8.4231">
        <ele>1759</ele>
        <time>2021-08-13T08:24:21.177Z</time>
      </trkpt>
      <trkpt lat="46.83971" lon="8.4231">
        <ele>1759</ele>
        <time>2021-08-13T08:24:22.177Z</time>
      </trkpt>
      <trkpt lat="46.83971" lon="8.4231">
        <ele>1758</ele>
        <time>2021-08-13T08:24:23.177Z</time>
      </trkpt>
      <trkpt lat="46.83971" lon="8.4231">
        <ele>1758</ele>
        <time>2021-08-13T08:24:24.177Z</time>
      </trkpt>
      <trkpt lat="46.83973" lon="8.42314">
        <ele>1769</ele>
        <time>2021-08-13T08:24:25.177Z</time>
      </trkpt>
      <trkpt lat="46.83972" lon="8.42314">
        <ele>1769</ele>
        <time>2021-08-13T08:24:26.176Z</time>
      </trkpt>
      <trkpt lat="46.83971" lon="8.42313">
        <ele>1769</ele>
        <time>2021-08-13T08:24:27.177Z</time>
      </trkpt>
      <trkpt lat="46.83969" lon="8.42313">
        <ele>1769</ele>
        <time>2021-08-13T08:24:28.177Z</time>
      </trkpt>
      <trkpt lat="46.83968" lon="8.42313">
        <ele>1768</ele>
        <time>2021-08-13T08:24:29.176Z</time>
      </trkpt>
      <trkpt lat="46.83966" lon="8.42312">
        <ele>1768</ele>
        <time>2021-08-13T08:24:30.177Z</time>
      </trkpt>
      <trkpt lat="46.83965" lon="8.42312">
        <ele>1768</ele>
        <time>2021-08-13T08:24:31.176Z</time>
      </trkpt>
      <trkpt lat="46.83963" lon="8.42311">
        <ele>1768</ele>
        <time>2021-08-13T08:24:32.176Z</time>
      </trkpt>
      <trkpt lat="46.83962" lon="8.42311">
        <ele>1767</ele>
        <time>2021-08-13T08:24:33.176Z</time>
      </trkpt>
      <trkpt lat="46.8396" lon="8.4231">
        <ele>1767</ele>
        <time>2021-08-13T08:24:34.176Z</time>
      </trkpt>
      <trkpt lat="46.83959" lon="8.4231">
        <ele>1767</ele>
        <time>2021-08-13T08:24:35.177Z</time>
      </trkpt>
      <trkpt lat="46.83958" lon="8.4231">
        <ele>1767</ele>
        <time>2021-08-13T08:24:36.176Z</time>
      </trkpt>
      <trkpt lat="46.83956" lon="8.4231">
        <ele>1766</ele>
        <time>2021-08-13T08:24:37.177Z</time>
      </trkpt>
      <trkpt lat="46.83955" lon="8.42309">
        <ele>1765</ele>
        <time>2021-08-13T08:24:38.176Z</time>
      </trkpt>
      <trkpt lat="46.83954" lon="8.42309">
        <ele>1764</ele>
        <time>2021-08-13T08:24:39.177Z</time>
      </trkpt>
      <trkpt lat="46.83953" lon="8.42309">
        <ele>1764</ele>
        <time>2021-08-13T08:24:40.177Z</time>
      </trkpt>
      <trkpt lat="46.83951" lon="8.42308">
        <ele>1763</ele>
        <time>2021-08-13T08:24:41.177Z</time>
      </trkpt>
      <trkpt lat="46.8395" lon="8.42309">
        <ele>1763</ele>
        <time>2021-08-13T08:24:42.177Z</time>
      </trkpt>
      <trkpt lat="46.83949" lon="8.42309">
        <ele>1762</ele>
        <time>2021-08-13T08:24:43.177Z</time>
      </trkpt>
      <trkpt lat="46.83948" lon="8.42309">
        <ele>1762</ele>
        <time>2021-08-13T08:24:44.176Z</time>
      </trkpt>
      <trkpt lat="46.83947" lon="8.42308">
        <ele>1761</ele>
        <time>2021-08-13T08:24:45.177Z</time>
      </trkpt>
      <trkpt lat="46.83946" lon="8.42309">
        <ele>1761</ele>
        <time>2021-08-13T08:24:46.177Z</time>
      </trkpt>
      <trkpt lat="46.83946" lon="8.42309">
        <ele>1760</ele>
        <time>2021-08-13T08:24:47.177Z</time>
      </trkpt>
      <trkpt lat="46.83946" lon="8.42309">
        <ele>1760</ele>
        <time>2021-08-13T08:24:48.177Z</time>
      </trkpt>
      <trkpt lat="46.83946" lon="8.42309">
        <ele>1759</ele>
        <time>2021-08-13T08:24:49.177Z</time>
      </trkpt>
      <trkpt lat="46.83945" lon="8.42309">
        <ele>1758</ele>
        <time>2021-08-13T08:24:50.176Z</time>
      </trkpt>
      <trkpt lat="46.83944" lon="8.42309">
        <ele>1758</ele>
        <time>2021-08-13T08:24:51.176Z</time>
      </trkpt>
      <trkpt lat="46.83943" lon="8.42309">
        <ele>1759</ele>
        <time>2021-08-13T08:24:52.176Z</time>
      </trkpt>
      <trkpt lat="46.83943" lon="8.42309">
        <ele>1758</ele>
        <time>2021-08-13T08:24:53.176Z</time>
      </trkpt>
      <trkpt lat="46.83943" lon="8.42309">
        <ele>1758</ele>
        <time>2021-08-13T08:24:54.176Z</time>
      </trkpt>
      <trkpt lat="46.83943" lon="8.4231">
        <ele>1757</ele>
        <time>2021-08-13T08:24:55.176Z</time>
      </trkpt>
      <trkpt lat="46.83942" lon="8.42307">
        <ele>1760</ele>
        <time>2021-08-13T08:24:56.176Z</time>
      </trkpt>
      <trkpt lat="46.83941" lon="8.42307">
        <ele>1760</ele>
        <time>2021-08-13T08:24:57.176Z</time>
      </trkpt>
      <trkpt lat="46.8394" lon="8.42307">
        <ele>1759</ele>
        <time>2021-08-13T08:24:58.177Z</time>
      </trkpt>
      <trkpt lat="46.8394" lon="8.42306">
        <ele>1758</ele>
        <time>2021-08-13T08:24:59.177Z</time>
      </trkpt>
      <trkpt lat="46.8394" lon="8.42306">
        <ele>1758</ele>
        <time>2021-08-13T08:25:00.176Z</time>
      </trkpt>
      <trkpt lat="46.83939" lon="8.42305">
        <ele>1758</ele>
        <time>2021-08-13T08:25:01.176Z</time>
      </trkpt>
      <trkpt lat="46.83939" lon="8.42305">
        <ele>1758</ele>
        <time>2021-08-13T08:25:02.176Z</time>
      </trkpt>
      <trkpt lat="46.83938" lon="8.42304">
        <ele>1757</ele>
        <time>2021-08-13T08:25:03.177Z</time>
      </trkpt>
      <trkpt lat="46.83937" lon="8.42303">
        <ele>1757</ele>
        <time>2021-08-13T08:25:04.177Z</time>
      </trkpt>
      <trkpt lat="46.83936" lon="8.42302">
        <ele>1757</ele>
        <time>2021-08-13T08:25:05.177Z</time>
      </trkpt>
      <trkpt lat="46.83934" lon="8.423">
        <ele>1757</ele>
        <time>2021-08-13T08:25:06.176Z</time>
      </trkpt>
      <trkpt lat="46.83933" lon="8.42299">
        <ele>1756</ele>
        <time>2021-08-13T08:25:07.177Z</time>
      </trkpt>
      <trkpt lat="46.83932" lon="8.42298">
        <ele>1756</ele>
        <time>2021-08-13T08:25:08.177Z</time>
      </trkpt>
      <trkpt lat="46.83932" lon="8.42296">
        <ele>1756</ele>
        <time>2021-08-13T08:25:09.176Z</time>
      </trkpt>
      <trkpt lat="46.83932" lon="8.42295">
        <ele>1755</ele>
        <time>2021-08-13T08:25:10.176Z</time>
      </trkpt>
      <trkpt lat="46.83931" lon="8.42294">
        <ele>1755</ele>
        <time>2021-08-13T08:25:11.177Z</time>
      </trkpt>
      <trkpt lat="46.83931" lon="8.42292">
        <ele>1755</ele>
        <time>2021-08-13T08:25:12.176Z</time>
      </trkpt>
      <trkpt lat="46.8393" lon="8.42291">
        <ele>1755</ele>
        <time>2021-08-13T08:25:13.176Z</time>
      </trkpt>
      <trkpt lat="46.8393" lon="8.42289">
        <ele>1754</ele>
        <time>2021-08-13T08:25:14.176Z</time>
      </trkpt>
      <trkpt lat="46.83929" lon="8.42287">
        <ele>1753</ele>
        <time>2021-08-13T08:25:15.176Z</time>
      </trkpt>
      <trkpt lat="46.83929" lon="8.42286">
        <ele>1752</ele>
        <time>2021-08-13T08:25:16.177Z</time>
      </trkpt>
      <trkpt lat="46.83929" lon="8.42284">
        <ele>1751</ele>
        <time>2021-08-13T08:25:17.177Z</time>
      </trkpt>
      <trkpt lat="46.83929" lon="8.42283">
        <ele>1751</ele>
        <time>2021-08-13T08:25:18.176Z</time>
      </trkpt>
      <trkpt lat="46.83929" lon="8.42281">
        <ele>1751</ele>
        <time>2021-08-13T08:25:19.176Z</time>
      </trkpt>
      <trkpt lat="46.8393" lon="8.4228">
        <ele>1751</ele>
        <time>2021-08-13T08:25:20.176Z</time>
      </trkpt>
      <trkpt lat="46.8393" lon="8.42279">
        <ele>1751</ele>
        <time>2021-08-13T08:25:21.176Z</time>
      </trkpt>
      <trkpt lat="46.83929" lon="8.42277">
        <ele>1751</ele>
        <time>2021-08-13T08:25:22.177Z</time>
      </trkpt>
      <trkpt lat="46.83929" lon="8.42276">
        <ele>1751</ele>
        <time>2021-08-13T08:25:23.177Z</time>
      </trkpt>
      <trkpt lat="46.83928" lon="8.42275">
        <ele>1751</ele>
        <time>2021-08-13T08:25:24.176Z</time>
      </trkpt>
      <trkpt lat="46.83927" lon="8.42274">
        <ele>1751</ele>
        <time>2021-08-13T08:25:25.176Z</time>
      </trkpt>
      <trkpt lat="46.83926" lon="8.42272">
        <ele>1750</ele>
        <time>2021-08-13T08:25:26.176Z</time>
      </trkpt>
      <trkpt lat="46.83925" lon="8.42271">
        <ele>1751</ele>
        <time>2021-08-13T08:25:27.177Z</time>
      </trkpt>
      <trkpt lat="46.83924" lon="8.4227">
        <ele>1751</ele>
        <time>2021-08-13T08:25:28.177Z</time>
      </trkpt>
      <trkpt lat="46.83923" lon="8.42269">
        <ele>1751</ele>
        <time>2021-08-13T08:25:29.176Z</time>
      </trkpt>
      <trkpt lat="46.83922" lon="8.42269">
        <ele>1751</ele>
        <time>2021-08-13T08:25:30.176Z</time>
      </trkpt>
      <trkpt lat="46.8392" lon="8.42267">
        <ele>1751</ele>
        <time>2021-08-13T08:25:31.176Z</time>
      </trkpt>
      <trkpt lat="46.83919" lon="8.42265">
        <ele>1752</ele>
        <time>2021-08-13T08:25:32.177Z</time>
      </trkpt>
      <trkpt lat="46.83918" lon="8.42265">
        <ele>1752</ele>
        <time>2021-08-13T08:25:33.177Z</time>
      </trkpt>
      <trkpt lat="46.83917" lon="8.42265">
        <ele>1752</ele>
        <time>2021-08-13T08:25:34.177Z</time>
      </trkpt>
      <trkpt lat="46.83916" lon="8.42264">
        <ele>1752</ele>
        <time>2021-08-13T08:25:35.176Z</time>
      </trkpt>
      <trkpt lat="46.83914" lon="8.42263">
        <ele>1752</ele>
        <time>2021-08-13T08:25:36.177Z</time>
      </trkpt>
      <trkpt lat="46.83913" lon="8.42263">
        <ele>1752</ele>
        <time>2021-08-13T08:25:37.177Z</time>
      </trkpt>
      <trkpt lat="46.83911" lon="8.42263">
        <ele>1752</ele>
        <time>2021-08-13T08:25:38.177Z</time>
      </trkpt>
      <trkpt lat="46.8391" lon="8.42262">
        <ele>1751</ele>
        <time>2021-08-13T08:25:39.176Z</time>
      </trkpt>
      <trkpt lat="46.83909" lon="8.42262">
        <ele>1751</ele>
        <time>2021-08-13T08:25:40.177Z</time>
      </trkpt>
      <trkpt lat="46.83907" lon="8.42262">
        <ele>1751</ele>
        <time>2021-08-13T08:25:41.177Z</time>
      </trkpt>
      <trkpt lat="46.83906" lon="8.42262">
        <ele>1750</ele>
        <time>2021-08-13T08:25:42.177Z</time>
      </trkpt>
      <trkpt lat="46.83905" lon="8.42262">
        <ele>1750</ele>
        <time>2021-08-13T08:25:43.177Z</time>
      </trkpt>
      <trkpt lat="46.83904" lon="8.42263">
        <ele>1750</ele>
        <time>2021-08-13T08:25:44.176Z</time>
      </trkpt>
      <trkpt lat="46.83903" lon="8.42263">
        <ele>1749</ele>
        <time>2021-08-13T08:25:45.177Z</time>
      </trkpt>
      <trkpt lat="46.83901" lon="8.42263">
        <ele>1749</ele>
        <time>2021-08-13T08:25:46.177Z</time>
      </trkpt>
      <trkpt lat="46.839" lon="8.42264">
        <ele>1749</ele>
        <time>2021-08-13T08:25:47.177Z</time>
      </trkpt>
      <trkpt lat="46.83899" lon="8.42264">
        <ele>1749</ele>
        <time>2021-08-13T08:25:48.177Z</time>
      </trkpt>
      <trkpt lat="46.83898" lon="8.42265">
        <ele>1749</ele>
        <time>2021-08-13T08:25:49.176Z</time>
      </trkpt>
      <trkpt lat="46.83897" lon="8.42266">
        <ele>1749</ele>
        <time>2021-08-13T08:25:50.176Z</time>
      </trkpt>
      <trkpt lat="46.83896" lon="8.42267">
        <ele>1749</ele>
        <time>2021-08-13T08:25:51.176Z</time>
      </trkpt>
      <trkpt lat="46.83896" lon="8.42268">
        <ele>1749</ele>
        <time>2021-08-13T08:25:52.176Z</time>
      </trkpt>
      <trkpt lat="46.83895" lon="8.4227">
        <ele>1748</ele>
        <time>2021-08-13T08:25:53.176Z</time>
      </trkpt>
      <trkpt lat="46.83895" lon="8.4227">
        <ele>1748</ele>
        <time>2021-08-13T08:25:54.176Z</time>
      </trkpt>
      <trkpt lat="46.83894" lon="8.4227">
        <ele>1748</ele>
        <time>2021-08-13T08:25:55.177Z</time>
      </trkpt>
      <trkpt lat="46.83893" lon="8.42271">
        <ele>1747</ele>
        <time>2021-08-13T08:25:56.177Z</time>
      </trkpt>
      <trkpt lat="46.83893" lon="8.42271">
        <ele>1747</ele>
        <time>2021-08-13T08:25:57.177Z</time>
      </trkpt>
      <trkpt lat="46.83892" lon="8.42272">
        <ele>1746</ele>
        <time>2021-08-13T08:25:58.176Z</time>
      </trkpt>
      <trkpt lat="46.83891" lon="8.42273">
        <ele>1746</ele>
        <time>2021-08-13T08:25:59.177Z</time>
      </trkpt>
      <trkpt lat="46.8389" lon="8.42274">
        <ele>1745</ele>
        <time>2021-08-13T08:26:00.176Z</time>
      </trkpt>
      <trkpt lat="46.83889" lon="8.42275">
        <ele>1745</ele>
        <time>2021-08-13T08:26:01.176Z</time>
      </trkpt>
      <trkpt lat="46.83889" lon="8.42276">
        <ele>1745</ele>
        <time>2021-08-13T08:26:02.176Z</time>
      </trkpt>
      <trkpt lat="46.83888" lon="8.42277">
        <ele>1745</ele>
        <time>2021-08-13T08:26:03.177Z</time>
      </trkpt>
      <trkpt lat="46.83887" lon="8.42278">
        <ele>1745</ele>
        <time>2021-08-13T08:26:04.176Z</time>
      </trkpt>
      <trkpt lat="46.83886" lon="8.42279">
        <ele>1745</ele>
        <time>2021-08-13T08:26:05.176Z</time>
      </trkpt>
      <trkpt lat="46.83884" lon="8.42279">
        <ele>1745</ele>
        <time>2021-08-13T08:26:06.177Z</time>
      </trkpt>
      <trkpt lat="46.83883" lon="8.42279">
        <ele>1745</ele>
        <time>2021-08-13T08:26:07.177Z</time>
      </trkpt>
      <trkpt lat="46.83882" lon="8.42279">
        <ele>1745</ele>
        <time>2021-08-13T08:26:08.177Z</time>
      </trkpt>
      <trkpt lat="46.83881" lon="8.42279">
        <ele>1745</ele>
        <time>2021-08-13T08:26:09.176Z</time>
      </trkpt>
      <trkpt lat="46.83879" lon="8.42278">
        <ele>1745</ele>
        <time>2021-08-13T08:26:10.177Z</time>
      </trkpt>
      <trkpt lat="46.83878" lon="8.42277">
        <ele>1745</ele>
        <time>2021-08-13T08:26:11.176Z</time>
      </trkpt>
      <trkpt lat="46.83878" lon="8.42277">
        <ele>1746</ele>
        <time>2021-08-13T08:26:12.176Z</time>
      </trkpt>
      <trkpt lat="46.83876" lon="8.42275">
        <ele>1746</ele>
        <time>2021-08-13T08:26:13.176Z</time>
      </trkpt>
      <trkpt lat="46.83876" lon="8.42274">
        <ele>1746</ele>
        <time>2021-08-13T08:26:14.176Z</time>
      </trkpt>
      <trkpt lat="46.83875" lon="8.42273">
        <ele>1746</ele>
        <time>2021-08-13T08:26:15.176Z</time>
      </trkpt>
      <trkpt lat="46.83874" lon="8.42272">
        <ele>1746</ele>
        <time>2021-08-13T08:26:16.176Z</time>
      </trkpt>
      <trkpt lat="46.83874" lon="8.42271">
        <ele>1746</ele>
        <time>2021-08-13T08:26:17.176Z</time>
      </trkpt>
      <trkpt lat="46.83873" lon="8.4227">
        <ele>1746</ele>
        <time>2021-08-13T08:26:18.176Z</time>
      </trkpt>
      <trkpt lat="46.83873" lon="8.42269">
        <ele>1746</ele>
        <time>2021-08-13T08:26:19.176Z</time>
      </trkpt>
      <trkpt lat="46.83872" lon="8.42268">
        <ele>1746</ele>
        <time>2021-08-13T08:26:20.176Z</time>
      </trkpt>
      <trkpt lat="46.83871" lon="8.42266">
        <ele>1746</ele>
        <time>2021-08-13T08:26:21.176Z</time>
      </trkpt>
      <trkpt lat="46.8387" lon="8.42265">
        <ele>1746</ele>
        <time>2021-08-13T08:26:22.177Z</time>
      </trkpt>
      <trkpt lat="46.83869" lon="8.42263">
        <ele>1745</ele>
        <time>2021-08-13T08:26:23.177Z</time>
      </trkpt>
      <trkpt lat="46.83868" lon="8.42262">
        <ele>1745</ele>
        <time>2021-08-13T08:26:24.176Z</time>
      </trkpt>
      <trkpt lat="46.83868" lon="8.42261">
        <ele>1745</ele>
        <time>2021-08-13T08:26:25.177Z</time>
      </trkpt>
      <trkpt lat="46.83867" lon="8.4226">
        <ele>1744</ele>
        <time>2021-08-13T08:26:26.177Z</time>
      </trkpt>
      <trkpt lat="46.83866" lon="8.42259">
        <ele>1743</ele>
        <time>2021-08-13T08:26:27.176Z</time>
      </trkpt>
      <trkpt lat="46.83865" lon="8.42258">
        <ele>1742</ele>
        <time>2021-08-13T08:26:28.176Z</time>
      </trkpt>
      <trkpt lat="46.83864" lon="8.42256">
        <ele>1742</ele>
        <time>2021-08-13T08:26:29.177Z</time>
      </trkpt>
      <trkpt lat="46.83864" lon="8.42255">
        <ele>1741</ele>
        <time>2021-08-13T08:26:30.176Z</time>
      </trkpt>
      <trkpt lat="46.83863" lon="8.42254">
        <ele>1741</ele>
        <time>2021-08-13T08:26:31.176Z</time>
      </trkpt>
      <trkpt lat="46.83863" lon="8.42253">
        <ele>1741</ele>
        <time>2021-08-13T08:26:32.177Z</time>
      </trkpt>
      <trkpt lat="46.83862" lon="8.42252">
        <ele>1741</ele>
        <time>2021-08-13T08:26:33.177Z</time>
      </trkpt>
      <trkpt lat="46.83862" lon="8.42251">
        <ele>1741</ele>
        <time>2021-08-13T08:26:34.177Z</time>
      </trkpt>
      <trkpt lat="46.83861" lon="8.4225">
        <ele>1741</ele>
        <time>2021-08-13T08:26:35.177Z</time>
      </trkpt>
      <trkpt lat="46.8386" lon="8.42249">
        <ele>1740</ele>
        <time>2021-08-13T08:26:36.177Z</time>
      </trkpt>
      <trkpt lat="46.8386" lon="8.42247">
        <ele>1740</ele>
        <time>2021-08-13T08:26:37.177Z</time>
      </trkpt>
      <trkpt lat="46.83859" lon="8.42246">
        <ele>1740</ele>
        <time>2021-08-13T08:26:38.177Z</time>
      </trkpt>
      <trkpt lat="46.83858" lon="8.42245">
        <ele>1740</ele>
        <time>2021-08-13T08:26:39.176Z</time>
      </trkpt>
      <trkpt lat="46.83857" lon="8.42244">
        <ele>1740</ele>
        <time>2021-08-13T08:26:40.177Z</time>
      </trkpt>
      <trkpt lat="46.83856" lon="8.42243">
        <ele>1740</ele>
        <time>2021-08-13T08:26:41.177Z</time>
      </trkpt>
      <trkpt lat="46.83855" lon="8.42242">
        <ele>1739</ele>
        <time>2021-08-13T08:26:42.177Z</time>
      </trkpt>
      <trkpt lat="46.83854" lon="8.42241">
        <ele>1739</ele>
        <time>2021-08-13T08:26:43.177Z</time>
      </trkpt>
      <trkpt lat="46.83853" lon="8.4224">
        <ele>1738</ele>
        <time>2021-08-13T08:26:44.176Z</time>
      </trkpt>
      <trkpt lat="46.83852" lon="8.42239">
        <ele>1737</ele>
        <time>2021-08-13T08:26:45.177Z</time>
      </trkpt>
      <trkpt lat="46.83851" lon="8.42238">
        <ele>1737</ele>
        <time>2021-08-13T08:26:46.176Z</time>
      </trkpt>
      <trkpt lat="46.8385" lon="8.42237">
        <ele>1737</ele>
        <time>2021-08-13T08:26:47.177Z</time>
      </trkpt>
      <trkpt lat="46.83849" lon="8.42236">
        <ele>1737</ele>
        <time>2021-08-13T08:26:48.177Z</time>
      </trkpt>
      <trkpt lat="46.83848" lon="8.42234">
        <ele>1737</ele>
        <time>2021-08-13T08:26:49.177Z</time>
      </trkpt>
      <trkpt lat="46.83847" lon="8.42233">
        <ele>1737</ele>
        <time>2021-08-13T08:26:50.176Z</time>
      </trkpt>
      <trkpt lat="46.83846" lon="8.42232">
        <ele>1737</ele>
        <time>2021-08-13T08:26:51.177Z</time>
      </trkpt>
      <trkpt lat="46.83846" lon="8.42231">
        <ele>1736</ele>
        <time>2021-08-13T08:26:52.176Z</time>
      </trkpt>
      <trkpt lat="46.83845" lon="8.42231">
        <ele>1736</ele>
        <time>2021-08-13T08:26:53.177Z</time>
      </trkpt>
      <trkpt lat="46.83844" lon="8.4223">
        <ele>1736</ele>
        <time>2021-08-13T08:26:54.177Z</time>
      </trkpt>
      <trkpt lat="46.83842" lon="8.42229">
        <ele>1736</ele>
        <time>2021-08-13T08:26:55.177Z</time>
      </trkpt>
      <trkpt lat="46.83841" lon="8.42228">
        <ele>1736</ele>
        <time>2021-08-13T08:26:56.176Z</time>
      </trkpt>
      <trkpt lat="46.8384" lon="8.42227">
        <ele>1736</ele>
        <time>2021-08-13T08:26:57.177Z</time>
      </trkpt>
      <trkpt lat="46.83839" lon="8.42226">
        <ele>1735</ele>
        <time>2021-08-13T08:26:58.176Z</time>
      </trkpt>
      <trkpt lat="46.83838" lon="8.42226">
        <ele>1734</ele>
        <time>2021-08-13T08:26:59.177Z</time>
      </trkpt>
      <trkpt lat="46.83838" lon="8.42225">
        <ele>1734</ele>
        <time>2021-08-13T08:27:00.176Z</time>
      </trkpt>
      <trkpt lat="46.83837" lon="8.42224">
        <ele>1734</ele>
        <time>2021-08-13T08:27:01.176Z</time>
      </trkpt>
      <trkpt lat="46.83836" lon="8.42222">
        <ele>1734</ele>
        <time>2021-08-13T08:27:02.177Z</time>
      </trkpt>
      <trkpt lat="46.83835" lon="8.42221">
        <ele>1734</ele>
        <time>2021-08-13T08:27:03.177Z</time>
      </trkpt>
      <trkpt lat="46.83834" lon="8.4222">
        <ele>1734</ele>
        <time>2021-08-13T08:27:04.177Z</time>
      </trkpt>
      <trkpt lat="46.83833" lon="8.42219">
        <ele>1734</ele>
        <time>2021-08-13T08:27:05.177Z</time>
      </trkpt>
      <trkpt lat="46.83832" lon="8.42218">
        <ele>1734</ele>
        <time>2021-08-13T08:27:06.177Z</time>
      </trkpt>
      <trkpt lat="46.83831" lon="8.42217">
        <ele>1734</ele>
        <time>2021-08-13T08:27:07.177Z</time>
      </trkpt>
      <trkpt lat="46.8383" lon="8.42216">
        <ele>1734</ele>
        <time>2021-08-13T08:27:08.177Z</time>
      </trkpt>
      <trkpt lat="46.83829" lon="8.42215">
        <ele>1734</ele>
        <time>2021-08-13T08:27:09.176Z</time>
      </trkpt>
      <trkpt lat="46.83828" lon="8.42214">
        <ele>1733</ele>
        <time>2021-08-13T08:27:10.177Z</time>
      </trkpt>
      <trkpt lat="46.83827" lon="8.42212">
        <ele>1733</ele>
        <time>2021-08-13T08:27:11.176Z</time>
      </trkpt>
      <trkpt lat="46.83826" lon="8.42211">
        <ele>1732</ele>
        <time>2021-08-13T08:27:12.176Z</time>
      </trkpt>
      <trkpt lat="46.83826" lon="8.4221">
        <ele>1732</ele>
        <time>2021-08-13T08:27:13.177Z</time>
      </trkpt>
      <trkpt lat="46.83825" lon="8.42208">
        <ele>1731</ele>
        <time>2021-08-13T08:27:14.177Z</time>
      </trkpt>
      <trkpt lat="46.83824" lon="8.42206">
        <ele>1731</ele>
        <time>2021-08-13T08:27:15.177Z</time>
      </trkpt>
      <trkpt lat="46.83823" lon="8.42205">
        <ele>1730</ele>
        <time>2021-08-13T08:27:16.176Z</time>
      </trkpt>
      <trkpt lat="46.83822" lon="8.42203">
        <ele>1730</ele>
        <time>2021-08-13T08:27:17.177Z</time>
      </trkpt>
      <trkpt lat="46.83822" lon="8.42202">
        <ele>1730</ele>
        <time>2021-08-13T08:27:18.177Z</time>
      </trkpt>
      <trkpt lat="46.83821" lon="8.422">
        <ele>1729</ele>
        <time>2021-08-13T08:27:19.176Z</time>
      </trkpt>
      <trkpt lat="46.83821" lon="8.42199">
        <ele>1729</ele>
        <time>2021-08-13T08:27:20.176Z</time>
      </trkpt>
      <trkpt lat="46.83821" lon="8.42197">
        <ele>1729</ele>
        <time>2021-08-13T08:27:21.177Z</time>
      </trkpt>
      <trkpt lat="46.83821" lon="8.42194">
        <ele>1729</ele>
        <time>2021-08-13T08:27:22.177Z</time>
      </trkpt>
      <trkpt lat="46.83821" lon="8.42193">
        <ele>1729</ele>
        <time>2021-08-13T08:27:23.177Z</time>
      </trkpt>
      <trkpt lat="46.83821" lon="8.42191">
        <ele>1729</ele>
        <time>2021-08-13T08:27:24.176Z</time>
      </trkpt>
      <trkpt lat="46.83821" lon="8.42189">
        <ele>1729</ele>
        <time>2021-08-13T08:27:25.176Z</time>
      </trkpt>
      <trkpt lat="46.83821" lon="8.42187">
        <ele>1729</ele>
        <time>2021-08-13T08:27:26.177Z</time>
      </trkpt>
      <trkpt lat="46.83822" lon="8.42186">
        <ele>1729</ele>
        <time>2021-08-13T08:27:27.177Z</time>
      </trkpt>
      <trkpt lat="46.83822" lon="8.42184">
        <ele>1729</ele>
        <time>2021-08-13T08:27:28.177Z</time>
      </trkpt>
      <trkpt lat="46.83823" lon="8.42182">
        <ele>1729</ele>
        <time>2021-08-13T08:27:29.176Z</time>
      </trkpt>
      <trkpt lat="46.83823" lon="8.4218">
        <ele>1729</ele>
        <time>2021-08-13T08:27:30.177Z</time>
      </trkpt>
      <trkpt lat="46.83823" lon="8.42179">
        <ele>1728</ele>
        <time>2021-08-13T08:27:31.176Z</time>
      </trkpt>
      <trkpt lat="46.83824" lon="8.42178">
        <ele>1728</ele>
        <time>2021-08-13T08:27:32.176Z</time>
      </trkpt>
      <trkpt lat="46.83824" lon="8.42176">
        <ele>1728</ele>
        <time>2021-08-13T08:27:33.177Z</time>
      </trkpt>
      <trkpt lat="46.83825" lon="8.42174">
        <ele>1727</ele>
        <time>2021-08-13T08:27:34.177Z</time>
      </trkpt>
      <trkpt lat="46.83825" lon="8.42173">
        <ele>1727</ele>
        <time>2021-08-13T08:27:35.176Z</time>
      </trkpt>
      <trkpt lat="46.83826" lon="8.4217">
        <ele>1727</ele>
        <time>2021-08-13T08:27:36.176Z</time>
      </trkpt>
      <trkpt lat="46.83827" lon="8.42169">
        <ele>1727</ele>
        <time>2021-08-13T08:27:37.177Z</time>
      </trkpt>
      <trkpt lat="46.83828" lon="8.42167">
        <ele>1727</ele>
        <time>2021-08-13T08:27:38.177Z</time>
      </trkpt>
      <trkpt lat="46.83829" lon="8.42165">
        <ele>1727</ele>
        <time>2021-08-13T08:27:39.176Z</time>
      </trkpt>
      <trkpt lat="46.83829" lon="8.42163">
        <ele>1726</ele>
        <time>2021-08-13T08:27:40.177Z</time>
      </trkpt>
      <trkpt lat="46.8383" lon="8.42162">
        <ele>1727</ele>
        <time>2021-08-13T08:27:41.177Z</time>
      </trkpt>
      <trkpt lat="46.8383" lon="8.4216">
        <ele>1727</ele>
        <time>2021-08-13T08:27:42.176Z</time>
      </trkpt>
      <trkpt lat="46.8383" lon="8.42158">
        <ele>1726</ele>
        <time>2021-08-13T08:27:43.177Z</time>
      </trkpt>
      <trkpt lat="46.8383" lon="8.42157">
        <ele>1726</ele>
        <time>2021-08-13T08:27:44.176Z</time>
      </trkpt>
      <trkpt lat="46.83829" lon="8.42155">
        <ele>1726</ele>
        <time>2021-08-13T08:27:45.177Z</time>
      </trkpt>
      <trkpt lat="46.83829" lon="8.42154">
        <ele>1726</ele>
        <time>2021-08-13T08:27:46.177Z</time>
      </trkpt>
      <trkpt lat="46.83829" lon="8.42153">
        <ele>1726</ele>
        <time>2021-08-13T08:27:47.176Z</time>
      </trkpt>
      <trkpt lat="46.83828" lon="8.42152">
        <ele>1725</ele>
        <time>2021-08-13T08:27:48.177Z</time>
      </trkpt>
      <trkpt lat="46.83826" lon="8.42151">
        <ele>1725</ele>
        <time>2021-08-13T08:27:49.177Z</time>
      </trkpt>
      <trkpt lat="46.83825" lon="8.4215">
        <ele>1724</ele>
        <time>2021-08-13T08:27:50.176Z</time>
      </trkpt>
      <trkpt lat="46.83824" lon="8.4215">
        <ele>1724</ele>
        <time>2021-08-13T08:27:51.177Z</time>
      </trkpt>
      <trkpt lat="46.83823" lon="8.4215">
        <ele>1723</ele>
        <time>2021-08-13T08:27:52.176Z</time>
      </trkpt>
      <trkpt lat="46.83824" lon="8.42152">
        <ele>1723</ele>
        <time>2021-08-13T08:27:53.177Z</time>
      </trkpt>
      <trkpt lat="46.83824" lon="8.42152">
        <ele>1723</ele>
        <time>2021-08-13T08:27:54.176Z</time>
      </trkpt>
      <trkpt lat="46.83824" lon="8.42152">
        <ele>1723</ele>
        <time>2021-08-13T08:27:55.176Z</time>
      </trkpt>
      <trkpt lat="46.83823" lon="8.4215">
        <ele>1723</ele>
        <time>2021-08-13T08:27:56.178Z</time>
      </trkpt>
      <trkpt lat="46.83824" lon="8.42149">
        <ele>1723</ele>
        <time>2021-08-13T08:27:57.178Z</time>
      </trkpt>
      <trkpt lat="46.83823" lon="8.42148">
        <ele>1724</ele>
        <time>2021-08-13T08:27:58.177Z</time>
      </trkpt>
      <trkpt lat="46.83823" lon="8.42148">
        <ele>1724</ele>
        <time>2021-08-13T08:27:59.178Z</time>
      </trkpt>
      <trkpt lat="46.83823" lon="8.42147">
        <ele>1724</ele>
        <time>2021-08-13T08:28:00.178Z</time>
      </trkpt>
      <trkpt lat="46.83823" lon="8.42147">
        <ele>1724</ele>
        <time>2021-08-13T08:28:01.178Z</time>
      </trkpt>
      <trkpt lat="46.83823" lon="8.42146">
        <ele>1724</ele>
        <time>2021-08-13T08:28:02.177Z</time>
      </trkpt>
      <trkpt lat="46.83823" lon="8.42145">
        <ele>1723</ele>
        <time>2021-08-13T08:28:03.178Z</time>
      </trkpt>
      <trkpt lat="46.83823" lon="8.42145">
        <ele>1723</ele>
        <time>2021-08-13T08:28:04.179Z</time>
      </trkpt>
      <trkpt lat="46.83823" lon="8.42145">
        <ele>1723</ele>
        <time>2021-08-13T08:28:05.178Z</time>
      </trkpt>
      <trkpt lat="46.83823" lon="8.42145">
        <ele>1723</ele>
        <time>2021-08-13T08:28:06.179Z</time>
      </trkpt>
      <trkpt lat="46.83822" lon="8.42144">
        <ele>1722</ele>
        <time>2021-08-13T08:28:07.179Z</time>
      </trkpt>
      <trkpt lat="46.83821" lon="8.42143">
        <ele>1721</ele>
        <time>2021-08-13T08:28:08.179Z</time>
      </trkpt>
      <trkpt lat="46.83821" lon="8.42142">
        <ele>1720</ele>
        <time>2021-08-13T08:28:09.179Z</time>
      </trkpt>
      <trkpt lat="46.8382" lon="8.42141">
        <ele>1720</ele>
        <time>2021-08-13T08:28:10.178Z</time>
      </trkpt>
      <trkpt lat="46.83819" lon="8.42141">
        <ele>1720</ele>
        <time>2021-08-13T08:28:11.179Z</time>
      </trkpt>
      <trkpt lat="46.83817" lon="8.42141">
        <ele>1719</ele>
        <time>2021-08-13T08:28:12.178Z</time>
      </trkpt>
      <trkpt lat="46.83816" lon="8.42141">
        <ele>1720</ele>
        <time>2021-08-13T08:28:13.178Z</time>
      </trkpt>
      <trkpt lat="46.83815" lon="8.4214">
        <ele>1720</ele>
        <time>2021-08-13T08:28:14.178Z</time>
      </trkpt>
      <trkpt lat="46.83814" lon="8.4214">
        <ele>1720</ele>
        <time>2021-08-13T08:28:15.179Z</time>
      </trkpt>
      <trkpt lat="46.83813" lon="8.4214">
        <ele>1721</ele>
        <time>2021-08-13T08:28:16.178Z</time>
      </trkpt>
      <trkpt lat="46.83812" lon="8.4214">
        <ele>1721</ele>
        <time>2021-08-13T08:28:17.179Z</time>
      </trkpt>
      <trkpt lat="46.8381" lon="8.4214">
        <ele>1721</ele>
        <time>2021-08-13T08:28:18.179Z</time>
      </trkpt>
      <trkpt lat="46.83809" lon="8.4214">
        <ele>1721</ele>
        <time>2021-08-13T08:28:19.179Z</time>
      </trkpt>
      <trkpt lat="46.83808" lon="8.42139">
        <ele>1721</ele>
        <time>2021-08-13T08:28:20.178Z</time>
      </trkpt>
      <trkpt lat="46.83807" lon="8.42139">
        <ele>1721</ele>
        <time>2021-08-13T08:28:21.178Z</time>
      </trkpt>
      <trkpt lat="46.83807" lon="8.42138">
        <ele>1721</ele>
        <time>2021-08-13T08:28:22.179Z</time>
      </trkpt>
      <trkpt lat="46.83805" lon="8.42137">
        <ele>1721</ele>
        <time>2021-08-13T08:28:23.178Z</time>
      </trkpt>
      <trkpt lat="46.83804" lon="8.42137">
        <ele>1721</ele>
        <time>2021-08-13T08:28:24.178Z</time>
      </trkpt>
      <trkpt lat="46.83803" lon="8.42138">
        <ele>1721</ele>
        <time>2021-08-13T08:28:25.178Z</time>
      </trkpt>
      <trkpt lat="46.83803" lon="8.42138">
        <ele>1720</ele>
        <time>2021-08-13T08:28:26.178Z</time>
      </trkpt>
      <trkpt lat="46.83802" lon="8.42138">
        <ele>1720</ele>
        <time>2021-08-13T08:28:27.178Z</time>
      </trkpt>
      <trkpt lat="46.83802" lon="8.42138">
        <ele>1720</ele>
        <time>2021-08-13T08:28:28.179Z</time>
      </trkpt>
      <trkpt lat="46.83801" lon="8.42138">
        <ele>1719</ele>
        <time>2021-08-13T08:28:29.178Z</time>
      </trkpt>
      <trkpt lat="46.838" lon="8.42137">
        <ele>1718</ele>
        <time>2021-08-13T08:28:30.179Z</time>
      </trkpt>
      <trkpt lat="46.838" lon="8.42136">
        <ele>1718</ele>
        <time>2021-08-13T08:28:31.179Z</time>
      </trkpt>
      <trkpt lat="46.83799" lon="8.42136">
        <ele>1718</ele>
        <time>2021-08-13T08:28:32.179Z</time>
      </trkpt>
      <trkpt lat="46.83799" lon="8.42136">
        <ele>1718</ele>
        <time>2021-08-13T08:28:33.179Z</time>
      </trkpt>
      <trkpt lat="46.83798" lon="8.42135">
        <ele>1718</ele>
        <time>2021-08-13T08:28:34.179Z</time>
      </trkpt>
      <trkpt lat="46.83799" lon="8.42135">
        <ele>1717</ele>
        <time>2021-08-13T08:28:35.179Z</time>
      </trkpt>
      <trkpt lat="46.83798" lon="8.42134">
        <ele>1717</ele>
        <time>2021-08-13T08:28:36.178Z</time>
      </trkpt>
      <trkpt lat="46.83797" lon="8.42133">
        <ele>1716</ele>
        <time>2021-08-13T08:28:37.179Z</time>
      </trkpt>
      <trkpt lat="46.83796" lon="8.42132">
        <ele>1716</ele>
        <time>2021-08-13T08:28:38.178Z</time>
      </trkpt>
      <trkpt lat="46.83796" lon="8.42132">
        <ele>1716</ele>
        <time>2021-08-13T08:28:39.179Z</time>
      </trkpt>
      <trkpt lat="46.83795" lon="8.42132">
        <ele>1715</ele>
        <time>2021-08-13T08:28:40.178Z</time>
      </trkpt>
      <trkpt lat="46.83795" lon="8.42131">
        <ele>1715</ele>
        <time>2021-08-13T08:28:41.179Z</time>
      </trkpt>
      <trkpt lat="46.83795" lon="8.42131">
        <ele>1715</ele>
        <time>2021-08-13T08:28:42.179Z</time>
      </trkpt>
      <trkpt lat="46.83795" lon="8.42131">
        <ele>1715</ele>
        <time>2021-08-13T08:28:43.179Z</time>
      </trkpt>
      <trkpt lat="46.83793" lon="8.4213">
        <ele>1713</ele>
        <time>2021-08-13T08:28:44.180Z</time>
      </trkpt>
      <trkpt lat="46.83792" lon="8.4213">
        <ele>1713</ele>
        <time>2021-08-13T08:28:45.180Z</time>
      </trkpt>
      <trkpt lat="46.83792" lon="8.42129">
        <ele>1712</ele>
        <time>2021-08-13T08:28:46.179Z</time>
      </trkpt>
      <trkpt lat="46.83791" lon="8.42128">
        <ele>1711</ele>
        <time>2021-08-13T08:28:47.180Z</time>
      </trkpt>
      <trkpt lat="46.8379" lon="8.42127">
        <ele>1711</ele>
        <time>2021-08-13T08:28:48.179Z</time>
      </trkpt>
      <trkpt lat="46.8379" lon="8.42127">
        <ele>1711</ele>
        <time>2021-08-13T08:28:49.179Z</time>
      </trkpt>
      <trkpt lat="46.83789" lon="8.42126">
        <ele>1711</ele>
        <time>2021-08-13T08:28:50.180Z</time>
      </trkpt>
      <trkpt lat="46.83788" lon="8.42125">
        <ele>1711</ele>
        <time>2021-08-13T08:28:51.180Z</time>
      </trkpt>
      <trkpt lat="46.83788" lon="8.42124">
        <ele>1711</ele>
        <time>2021-08-13T08:28:52.179Z</time>
      </trkpt>
      <trkpt lat="46.83787" lon="8.42124">
        <ele>1711</ele>
        <time>2021-08-13T08:28:53.180Z</time>
      </trkpt>
      <trkpt lat="46.83787" lon="8.42123">
        <ele>1712</ele>
        <time>2021-08-13T08:28:54.180Z</time>
      </trkpt>
      <trkpt lat="46.83787" lon="8.42123">
        <ele>1712</ele>
        <time>2021-08-13T08:28:55.179Z</time>
      </trkpt>
      <trkpt lat="46.83786" lon="8.42122">
        <ele>1712</ele>
        <time>2021-08-13T08:28:56.180Z</time>
      </trkpt>
      <trkpt lat="46.83786" lon="8.42122">
        <ele>1712</ele>
        <time>2021-08-13T08:28:57.180Z</time>
      </trkpt>
      <trkpt lat="46.83785" lon="8.42121">
        <ele>1712</ele>
        <time>2021-08-13T08:28:58.179Z</time>
      </trkpt>
      <trkpt lat="46.83785" lon="8.42121">
        <ele>1712</ele>
        <time>2021-08-13T08:28:59.180Z</time>
      </trkpt>
      <trkpt lat="46.83784" lon="8.42121">
        <ele>1711</ele>
        <time>2021-08-13T08:29:00.180Z</time>
      </trkpt>
      <trkpt lat="46.83784" lon="8.42121">
        <ele>1711</ele>
        <time>2021-08-13T08:29:01.180Z</time>
      </trkpt>
      <trkpt lat="46.83783" lon="8.42121">
        <ele>1711</ele>
        <time>2021-08-13T08:29:02.179Z</time>
      </trkpt>
      <trkpt lat="46.83783" lon="8.42122">
        <ele>1711</ele>
        <time>2021-08-13T08:29:03.179Z</time>
      </trkpt>
      <trkpt lat="46.83782" lon="8.42122">
        <ele>1710</ele>
        <time>2021-08-13T08:29:04.179Z</time>
      </trkpt>
      <trkpt lat="46.83782" lon="8.42122">
        <ele>1710</ele>
        <time>2021-08-13T08:29:05.179Z</time>
      </trkpt>
      <trkpt lat="46.83781" lon="8.42122">
        <ele>1710</ele>
        <time>2021-08-13T08:29:06.180Z</time>
      </trkpt>
      <trkpt lat="46.8378" lon="8.42122">
        <ele>1710</ele>
        <time>2021-08-13T08:29:07.180Z</time>
      </trkpt>
      <trkpt lat="46.8378" lon="8.42121">
        <ele>1710</ele>
        <time>2021-08-13T08:29:08.179Z</time>
      </trkpt>
      <trkpt lat="46.83779" lon="8.42121">
        <ele>1710</ele>
        <time>2021-08-13T08:29:09.180Z</time>
      </trkpt>
      <trkpt lat="46.83779" lon="8.4212">
        <ele>1710</ele>
        <time>2021-08-13T08:29:10.180Z</time>
      </trkpt>
      <trkpt lat="46.83778" lon="8.4212">
        <ele>1710</ele>
        <time>2021-08-13T08:29:11.180Z</time>
      </trkpt>
      <trkpt lat="46.83777" lon="8.4212">
        <ele>1711</ele>
        <time>2021-08-13T08:29:12.180Z</time>
      </trkpt>
      <trkpt lat="46.83776" lon="8.42119">
        <ele>1711</ele>
        <time>2021-08-13T08:29:13.180Z</time>
      </trkpt>
      <trkpt lat="46.83776" lon="8.42119">
        <ele>1711</ele>
        <time>2021-08-13T08:29:14.180Z</time>
      </trkpt>
      <trkpt lat="46.83775" lon="8.42118">
        <ele>1711</ele>
        <time>2021-08-13T08:29:15.179Z</time>
      </trkpt>
      <trkpt lat="46.83775" lon="8.42117">
        <ele>1711</ele>
        <time>2021-08-13T08:29:16.180Z</time>
      </trkpt>
      <trkpt lat="46.83774" lon="8.42116">
        <ele>1711</ele>
        <time>2021-08-13T08:29:17.180Z</time>
      </trkpt>
      <trkpt lat="46.83774" lon="8.42116">
        <ele>1710</ele>
        <time>2021-08-13T08:29:18.179Z</time>
      </trkpt>
      <trkpt lat="46.83773" lon="8.42115">
        <ele>1710</ele>
        <time>2021-08-13T08:29:19.179Z</time>
      </trkpt>
      <trkpt lat="46.83773" lon="8.42114">
        <ele>1709</ele>
        <time>2021-08-13T08:29:20.180Z</time>
      </trkpt>
      <trkpt lat="46.83773" lon="8.42114">
        <ele>1709</ele>
        <time>2021-08-13T08:29:21.179Z</time>
      </trkpt>
      <trkpt lat="46.83772" lon="8.42114">
        <ele>1708</ele>
        <time>2021-08-13T08:29:22.180Z</time>
      </trkpt>
      <trkpt lat="46.83772" lon="8.42114">
        <ele>1708</ele>
        <time>2021-08-13T08:29:23.180Z</time>
      </trkpt>
      <trkpt lat="46.83771" lon="8.42114">
        <ele>1708</ele>
        <time>2021-08-13T08:29:24.179Z</time>
      </trkpt>
      <trkpt lat="46.83771" lon="8.42114">
        <ele>1707</ele>
        <time>2021-08-13T08:29:25.180Z</time>
      </trkpt>
      <trkpt lat="46.8377" lon="8.42113">
        <ele>1707</ele>
        <time>2021-08-13T08:29:26.179Z</time>
      </trkpt>
      <trkpt lat="46.83769" lon="8.42113">
        <ele>1707</ele>
        <time>2021-08-13T08:29:27.179Z</time>
      </trkpt>
      <trkpt lat="46.83768" lon="8.42112">
        <ele>1706</ele>
        <time>2021-08-13T08:29:28.180Z</time>
      </trkpt>
      <trkpt lat="46.83768" lon="8.42111">
        <ele>1706</ele>
        <time>2021-08-13T08:29:29.180Z</time>
      </trkpt>
      <trkpt lat="46.83767" lon="8.42111">
        <ele>1705</ele>
        <time>2021-08-13T08:29:30.180Z</time>
      </trkpt>
      <trkpt lat="46.83766" lon="8.42111">
        <ele>1705</ele>
        <time>2021-08-13T08:29:31.180Z</time>
      </trkpt>
      <trkpt lat="46.83766" lon="8.42111">
        <ele>1704</ele>
        <time>2021-08-13T08:29:32.179Z</time>
      </trkpt>
      <trkpt lat="46.83765" lon="8.42111">
        <ele>1704</ele>
        <time>2021-08-13T08:29:33.180Z</time>
      </trkpt>
      <trkpt lat="46.83764" lon="8.4211">
        <ele>1704</ele>
        <time>2021-08-13T08:29:34.180Z</time>
      </trkpt>
      <trkpt lat="46.83763" lon="8.4211">
        <ele>1703</ele>
        <time>2021-08-13T08:29:35.180Z</time>
      </trkpt>
      <trkpt lat="46.83763" lon="8.42109">
        <ele>1702</ele>
        <time>2021-08-13T08:29:36.180Z</time>
      </trkpt>
      <trkpt lat="46.83762" lon="8.42109">
        <ele>1702</ele>
        <time>2021-08-13T08:29:37.180Z</time>
      </trkpt>
      <trkpt lat="46.83762" lon="8.42109">
        <ele>1702</ele>
        <time>2021-08-13T08:29:38.179Z</time>
      </trkpt>
      <trkpt lat="46.83761" lon="8.42108">
        <ele>1701</ele>
        <time>2021-08-13T08:29:39.180Z</time>
      </trkpt>
      <trkpt lat="46.83761" lon="8.42108">
        <ele>1701</ele>
        <time>2021-08-13T08:29:40.180Z</time>
      </trkpt>
      <trkpt lat="46.8376" lon="8.42108">
        <ele>1701</ele>
        <time>2021-08-13T08:29:41.180Z</time>
      </trkpt>
      <trkpt lat="46.8376" lon="8.42109">
        <ele>1701</ele>
        <time>2021-08-13T08:29:42.179Z</time>
      </trkpt>
      <trkpt lat="46.83759" lon="8.42109">
        <ele>1700</ele>
        <time>2021-08-13T08:29:43.180Z</time>
      </trkpt>
      <trkpt lat="46.83758" lon="8.42108">
        <ele>1700</ele>
        <time>2021-08-13T08:29:44.180Z</time>
      </trkpt>
      <trkpt lat="46.83758" lon="8.42108">
        <ele>1700</ele>
        <time>2021-08-13T08:29:45.179Z</time>
      </trkpt>
      <trkpt lat="46.83757" lon="8.42108">
        <ele>1700</ele>
        <time>2021-08-13T08:29:46.180Z</time>
      </trkpt>
      <trkpt lat="46.83756" lon="8.42108">
        <ele>1700</ele>
        <time>2021-08-13T08:29:47.180Z</time>
      </trkpt>
      <trkpt lat="46.83755" lon="8.42108">
        <ele>1700</ele>
        <time>2021-08-13T08:29:48.180Z</time>
      </trkpt>
      <trkpt lat="46.83755" lon="8.42108">
        <ele>1700</ele>
        <time>2021-08-13T08:29:49.179Z</time>
      </trkpt>
      <trkpt lat="46.83754" lon="8.42108">
        <ele>1699</ele>
        <time>2021-08-13T08:29:50.179Z</time>
      </trkpt>
      <trkpt lat="46.83754" lon="8.42108">
        <ele>1699</ele>
        <time>2021-08-13T08:29:51.179Z</time>
      </trkpt>
      <trkpt lat="46.83753" lon="8.42108">
        <ele>1700</ele>
        <time>2021-08-13T08:29:52.180Z</time>
      </trkpt>
      <trkpt lat="46.83754" lon="8.4211">
        <ele>1697</ele>
        <time>2021-08-13T08:29:53.180Z</time>
      </trkpt>
      <trkpt lat="46.83754" lon="8.42112">
        <ele>1697</ele>
        <time>2021-08-13T08:29:54.180Z</time>
      </trkpt>
      <trkpt lat="46.83754" lon="8.42113">
        <ele>1696</ele>
        <time>2021-08-13T08:29:55.179Z</time>
      </trkpt>
      <trkpt lat="46.83755" lon="8.42114">
        <ele>1697</ele>
        <time>2021-08-13T08:29:56.179Z</time>
      </trkpt>
      <trkpt lat="46.83755" lon="8.42115">
        <ele>1697</ele>
        <time>2021-08-13T08:29:57.180Z</time>
      </trkpt>
      <trkpt lat="46.83755" lon="8.42115">
        <ele>1697</ele>
        <time>2021-08-13T08:29:58.179Z</time>
      </trkpt>
      <trkpt lat="46.83755" lon="8.42116">
        <ele>1697</ele>
        <time>2021-08-13T08:29:59.180Z</time>
      </trkpt>
      <trkpt lat="46.83755" lon="8.42116">
        <ele>1697</ele>
        <time>2021-08-13T08:30:00.180Z</time>
      </trkpt>
      <trkpt lat="46.83754" lon="8.42117">
        <ele>1697</ele>
        <time>2021-08-13T08:30:01.180Z</time>
      </trkpt>
      <trkpt lat="46.83753" lon="8.42118">
        <ele>1699</ele>
        <time>2021-08-13T08:30:02.182Z</time>
      </trkpt>
      <trkpt lat="46.83752" lon="8.42117">
        <ele>1699</ele>
        <time>2021-08-13T08:30:03.181Z</time>
      </trkpt>
      <trkpt lat="46.83752" lon="8.42117">
        <ele>1699</ele>
        <time>2021-08-13T08:30:04.181Z</time>
      </trkpt>
      <trkpt lat="46.83752" lon="8.42117">
        <ele>1698</ele>
        <time>2021-08-13T08:30:05.181Z</time>
      </trkpt>
      <trkpt lat="46.83752" lon="8.42116">
        <ele>1698</ele>
        <time>2021-08-13T08:30:06.181Z</time>
      </trkpt>
      <trkpt lat="46.83752" lon="8.42116">
        <ele>1697</ele>
        <time>2021-08-13T08:30:07.181Z</time>
      </trkpt>
      <trkpt lat="46.83751" lon="8.42116">
        <ele>1697</ele>
        <time>2021-08-13T08:30:08.182Z</time>
      </trkpt>
      <trkpt lat="46.83751" lon="8.42115">
        <ele>1696</ele>
        <time>2021-08-13T08:30:09.181Z</time>
      </trkpt>
      <trkpt lat="46.8375" lon="8.42115">
        <ele>1696</ele>
        <time>2021-08-13T08:30:10.181Z</time>
      </trkpt>
      <trkpt lat="46.8375" lon="8.42114">
        <ele>1696</ele>
        <time>2021-08-13T08:30:11.182Z</time>
      </trkpt>
      <trkpt lat="46.83749" lon="8.42114">
        <ele>1695</ele>
        <time>2021-08-13T08:30:12.181Z</time>
      </trkpt>
      <trkpt lat="46.83749" lon="8.42114">
        <ele>1695</ele>
        <time>2021-08-13T08:30:13.182Z</time>
      </trkpt>
      <trkpt lat="46.83748" lon="8.42115">
        <ele>1694</ele>
        <time>2021-08-13T08:30:14.181Z</time>
      </trkpt>
      <trkpt lat="46.83748" lon="8.42114">
        <ele>1694</ele>
        <time>2021-08-13T08:30:15.182Z</time>
      </trkpt>
      <trkpt lat="46.83748" lon="8.42114">
        <ele>1693</ele>
        <time>2021-08-13T08:30:16.182Z</time>
      </trkpt>
      <trkpt lat="46.83747" lon="8.42113">
        <ele>1693</ele>
        <time>2021-08-13T08:30:17.181Z</time>
      </trkpt>
      <trkpt lat="46.83747" lon="8.42113">
        <ele>1693</ele>
        <time>2021-08-13T08:30:18.182Z</time>
      </trkpt>
      <trkpt lat="46.83746" lon="8.42112">
        <ele>1693</ele>
        <time>2021-08-13T08:30:19.182Z</time>
      </trkpt>
      <trkpt lat="46.83746" lon="8.42112">
        <ele>1692</ele>
        <time>2021-08-13T08:30:20.182Z</time>
      </trkpt>
      <trkpt lat="46.83746" lon="8.42112">
        <ele>1692</ele>
        <time>2021-08-13T08:30:21.181Z</time>
      </trkpt>
      <trkpt lat="46.83745" lon="8.42109">
        <ele>1688</ele>
        <time>2021-08-13T08:30:22.183Z</time>
      </trkpt>
      <trkpt lat="46.83745" lon="8.42109">
        <ele>1688</ele>
        <time>2021-08-13T08:30:23.183Z</time>
      </trkpt>
      <trkpt lat="46.83745" lon="8.4211">
        <ele>1688</ele>
        <time>2021-08-13T08:30:24.182Z</time>
      </trkpt>
      <trkpt lat="46.83744" lon="8.42111">
        <ele>1687</ele>
        <time>2021-08-13T08:30:25.182Z</time>
      </trkpt>
      <trkpt lat="46.83743" lon="8.42111">
        <ele>1687</ele>
        <time>2021-08-13T08:30:26.183Z</time>
      </trkpt>
      <trkpt lat="46.83742" lon="8.42111">
        <ele>1687</ele>
        <time>2021-08-13T08:30:27.182Z</time>
      </trkpt>
      <trkpt lat="46.83741" lon="8.42111">
        <ele>1687</ele>
        <time>2021-08-13T08:30:28.182Z</time>
      </trkpt>
      <trkpt lat="46.83741" lon="8.42111">
        <ele>1688</ele>
        <time>2021-08-13T08:30:29.182Z</time>
      </trkpt>
      <trkpt lat="46.83741" lon="8.42111">
        <ele>1688</ele>
        <time>2021-08-13T08:30:30.182Z</time>
      </trkpt>
      <trkpt lat="46.83741" lon="8.42111">
        <ele>1688</ele>
        <time>2021-08-13T08:30:31.182Z</time>
      </trkpt>
      <trkpt lat="46.83741" lon="8.42111">
        <ele>1688</ele>
        <time>2021-08-13T08:30:32.182Z</time>
      </trkpt>
      <trkpt lat="46.83741" lon="8.42111">
        <ele>1689</ele>
        <time>2021-08-13T08:30:33.184Z</time>
      </trkpt>
      <trkpt lat="46.8374" lon="8.4211">
        <ele>1689</ele>
        <time>2021-08-13T08:30:34.184Z</time>
      </trkpt>
      <trkpt lat="46.8374" lon="8.4211">
        <ele>1689</ele>
        <time>2021-08-13T08:30:35.183Z</time>
      </trkpt>
      <trkpt lat="46.8374" lon="8.42109">
        <ele>1689</ele>
        <time>2021-08-13T08:30:36.183Z</time>
      </trkpt>
      <trkpt lat="46.8374" lon="8.42108">
        <ele>1689</ele>
        <time>2021-08-13T08:30:37.184Z</time>
      </trkpt>
      <trkpt lat="46.8374" lon="8.42108">
        <ele>1688</ele>
        <time>2021-08-13T08:30:38.183Z</time>
      </trkpt>
      <trkpt lat="46.8374" lon="8.42108">
        <ele>1688</ele>
        <time>2021-08-13T08:30:39.183Z</time>
      </trkpt>
      <trkpt lat="46.83738" lon="8.4211">
        <ele>1691</ele>
        <time>2021-08-13T08:30:40.184Z</time>
      </trkpt>
      <trkpt lat="46.83738" lon="8.4211">
        <ele>1691</ele>
        <time>2021-08-13T08:30:41.184Z</time>
      </trkpt>
      <trkpt lat="46.83737" lon="8.4211">
        <ele>1691</ele>
        <time>2021-08-13T08:30:42.183Z</time>
      </trkpt>
      <trkpt lat="46.83736" lon="8.4211">
        <ele>1690</ele>
        <time>2021-08-13T08:30:43.183Z</time>
      </trkpt>
      <trkpt lat="46.83735" lon="8.42109">
        <ele>1690</ele>
        <time>2021-08-13T08:30:44.184Z</time>
      </trkpt>
      <trkpt lat="46.83734" lon="8.42108">
        <ele>1690</ele>
        <time>2021-08-13T08:30:45.184Z</time>
      </trkpt>
      <trkpt lat="46.83733" lon="8.42107">
        <ele>1690</ele>
        <time>2021-08-13T08:30:46.184Z</time>
      </trkpt>
      <trkpt lat="46.83732" lon="8.42106">
        <ele>1689</ele>
        <time>2021-08-13T08:30:47.184Z</time>
      </trkpt>
      <trkpt lat="46.83732" lon="8.42106">
        <ele>1689</ele>
        <time>2021-08-13T08:30:48.183Z</time>
      </trkpt>
      <trkpt lat="46.83731" lon="8.42105">
        <ele>1689</ele>
        <time>2021-08-13T08:30:49.184Z</time>
      </trkpt>
      <trkpt lat="46.8373" lon="8.42105">
        <ele>1689</ele>
        <time>2021-08-13T08:30:50.183Z</time>
      </trkpt>
      <trkpt lat="46.83729" lon="8.42105">
        <ele>1689</ele>
        <time>2021-08-13T08:30:51.183Z</time>
      </trkpt>
      <trkpt lat="46.83729" lon="8.42106">
        <ele>1689</ele>
        <time>2021-08-13T08:30:52.183Z</time>
      </trkpt>
      <trkpt lat="46.83728" lon="8.42106">
        <ele>1690</ele>
        <time>2021-08-13T08:30:53.183Z</time>
      </trkpt>
      <trkpt lat="46.83728" lon="8.42106">
        <ele>1689</ele>
        <time>2021-08-13T08:30:54.184Z</time>
      </trkpt>
      <trkpt lat="46.83727" lon="8.42107">
        <ele>1689</ele>
        <time>2021-08-13T08:30:55.184Z</time>
      </trkpt>
      <trkpt lat="46.83727" lon="8.42107">
        <ele>1689</ele>
        <time>2021-08-13T08:30:56.184Z</time>
      </trkpt>
      <trkpt lat="46.83728" lon="8.42107">
        <ele>1688</ele>
        <time>2021-08-13T08:30:57.184Z</time>
      </trkpt>
      <trkpt lat="46.83728" lon="8.42108">
        <ele>1688</ele>
        <time>2021-08-13T08:30:58.184Z</time>
      </trkpt>
      <trkpt lat="46.83727" lon="8.42107">
        <ele>1688</ele>
        <time>2021-08-13T08:30:59.184Z</time>
      </trkpt>
      <trkpt lat="46.83726" lon="8.42106">
        <ele>1688</ele>
        <time>2021-08-13T08:31:00.183Z</time>
      </trkpt>
      <trkpt lat="46.83725" lon="8.42105">
        <ele>1689</ele>
        <time>2021-08-13T08:31:01.184Z</time>
      </trkpt>
      <trkpt lat="46.83723" lon="8.42104">
        <ele>1689</ele>
        <time>2021-08-13T08:31:02.183Z</time>
      </trkpt>
      <trkpt lat="46.83722" lon="8.42103">
        <ele>1689</ele>
        <time>2021-08-13T08:31:03.184Z</time>
      </trkpt>
      <trkpt lat="46.83721" lon="8.42102">
        <ele>1689</ele>
        <time>2021-08-13T08:31:04.184Z</time>
      </trkpt>
      <trkpt lat="46.83719" lon="8.42101">
        <ele>1689</ele>
        <time>2021-08-13T08:31:05.184Z</time>
      </trkpt>
      <trkpt lat="46.83718" lon="8.421">
        <ele>1689</ele>
        <time>2021-08-13T08:31:06.184Z</time>
      </trkpt>
      <trkpt lat="46.83717" lon="8.421">
        <ele>1689</ele>
        <time>2021-08-13T08:31:07.183Z</time>
      </trkpt>
      <trkpt lat="46.83716" lon="8.421">
        <ele>1689</ele>
        <time>2021-08-13T08:31:08.184Z</time>
      </trkpt>
      <trkpt lat="46.83715" lon="8.42101">
        <ele>1689</ele>
        <time>2021-08-13T08:31:09.184Z</time>
      </trkpt>
      <trkpt lat="46.83714" lon="8.42102">
        <ele>1689</ele>
        <time>2021-08-13T08:31:10.184Z</time>
      </trkpt>
      <trkpt lat="46.83714" lon="8.42103">
        <ele>1689</ele>
        <time>2021-08-13T08:31:11.184Z</time>
      </trkpt>
      <trkpt lat="46.83713" lon="8.42104">
        <ele>1688</ele>
        <time>2021-08-13T08:31:12.183Z</time>
      </trkpt>
      <trkpt lat="46.83712" lon="8.42104">
        <ele>1688</ele>
        <time>2021-08-13T08:31:13.184Z</time>
      </trkpt>
      <trkpt lat="46.83711" lon="8.42104">
        <ele>1688</ele>
        <time>2021-08-13T08:31:14.184Z</time>
      </trkpt>
      <trkpt lat="46.8371" lon="8.42104">
        <ele>1688</ele>
        <time>2021-08-13T08:31:15.184Z</time>
      </trkpt>
      <trkpt lat="46.83709" lon="8.42105">
        <ele>1688</ele>
        <time>2021-08-13T08:31:16.183Z</time>
      </trkpt>
      <trkpt lat="46.83707" lon="8.42106">
        <ele>1688</ele>
        <time>2021-08-13T08:31:17.184Z</time>
      </trkpt>
      <trkpt lat="46.83706" lon="8.42107">
        <ele>1688</ele>
        <time>2021-08-13T08:31:18.184Z</time>
      </trkpt>
      <trkpt lat="46.83705" lon="8.42107">
        <ele>1687</ele>
        <time>2021-08-13T08:31:19.184Z</time>
      </trkpt>
      <trkpt lat="46.83704" lon="8.42108">
        <ele>1687</ele>
        <time>2021-08-13T08:31:20.184Z</time>
      </trkpt>
      <trkpt lat="46.83703" lon="8.42109">
        <ele>1686</ele>
        <time>2021-08-13T08:31:21.184Z</time>
      </trkpt>
      <trkpt lat="46.83702" lon="8.42109">
        <ele>1686</ele>
        <time>2021-08-13T08:31:22.183Z</time>
      </trkpt>
      <trkpt lat="46.83701" lon="8.4211">
        <ele>1685</ele>
        <time>2021-08-13T08:31:23.184Z</time>
      </trkpt>
      <trkpt lat="46.837" lon="8.4211">
        <ele>1685</ele>
        <time>2021-08-13T08:31:24.184Z</time>
      </trkpt>
      <trkpt lat="46.837" lon="8.42111">
        <ele>1684</ele>
        <time>2021-08-13T08:31:25.184Z</time>
      </trkpt>
      <trkpt lat="46.83699" lon="8.42112">
        <ele>1684</ele>
        <time>2021-08-13T08:31:26.184Z</time>
      </trkpt>
      <trkpt lat="46.83699" lon="8.42113">
        <ele>1684</ele>
        <time>2021-08-13T08:31:27.184Z</time>
      </trkpt>
      <trkpt lat="46.83698" lon="8.42114">
        <ele>1684</ele>
        <time>2021-08-13T08:31:28.184Z</time>
      </trkpt>
      <trkpt lat="46.83697" lon="8.42115">
        <ele>1683</ele>
        <time>2021-08-13T08:31:29.183Z</time>
      </trkpt>
      <trkpt lat="46.83697" lon="8.42116">
        <ele>1683</ele>
        <time>2021-08-13T08:31:30.183Z</time>
      </trkpt>
      <trkpt lat="46.83696" lon="8.42116">
        <ele>1682</ele>
        <time>2021-08-13T08:31:31.184Z</time>
      </trkpt>
      <trkpt lat="46.83696" lon="8.42117">
        <ele>1682</ele>
        <time>2021-08-13T08:31:32.183Z</time>
      </trkpt>
      <trkpt lat="46.83696" lon="8.42118">
        <ele>1682</ele>
        <time>2021-08-13T08:31:33.183Z</time>
      </trkpt>
      <trkpt lat="46.83695" lon="8.42118">
        <ele>1681</ele>
        <time>2021-08-13T08:31:34.183Z</time>
      </trkpt>
      <trkpt lat="46.83695" lon="8.42119">
        <ele>1681</ele>
        <time>2021-08-13T08:31:35.184Z</time>
      </trkpt>
      <trkpt lat="46.83695" lon="8.4212">
        <ele>1681</ele>
        <time>2021-08-13T08:31:36.183Z</time>
      </trkpt>
      <trkpt lat="46.83694" lon="8.4212">
        <ele>1681</ele>
        <time>2021-08-13T08:31:37.183Z</time>
      </trkpt>
      <trkpt lat="46.83694" lon="8.42121">
        <ele>1680</ele>
        <time>2021-08-13T08:31:38.183Z</time>
      </trkpt>
      <trkpt lat="46.83694" lon="8.42122">
        <ele>1679</ele>
        <time>2021-08-13T08:31:39.184Z</time>
      </trkpt>
      <trkpt lat="46.83694" lon="8.42123">
        <ele>1679</ele>
        <time>2021-08-13T08:31:40.183Z</time>
      </trkpt>
      <trkpt lat="46.83693" lon="8.42124">
        <ele>1679</ele>
        <time>2021-08-13T08:31:41.184Z</time>
      </trkpt>
      <trkpt lat="46.83693" lon="8.42125">
        <ele>1678</ele>
        <time>2021-08-13T08:31:42.183Z</time>
      </trkpt>
      <trkpt lat="46.83693" lon="8.42126">
        <ele>1678</ele>
        <time>2021-08-13T08:31:43.183Z</time>
      </trkpt>
      <trkpt lat="46.83693" lon="8.42127">
        <ele>1678</ele>
        <time>2021-08-13T08:31:44.183Z</time>
      </trkpt>
      <trkpt lat="46.83692" lon="8.42128">
        <ele>1677</ele>
        <time>2021-08-13T08:31:45.184Z</time>
      </trkpt>
      <trkpt lat="46.83692" lon="8.42129">
        <ele>1677</ele>
        <time>2021-08-13T08:31:46.184Z</time>
      </trkpt>
      <trkpt lat="46.83692" lon="8.4213">
        <ele>1676</ele>
        <time>2021-08-13T08:31:47.183Z</time>
      </trkpt>
      <trkpt lat="46.83692" lon="8.42131">
        <ele>1676</ele>
        <time>2021-08-13T08:31:48.184Z</time>
      </trkpt>
      <trkpt lat="46.83692" lon="8.42131">
        <ele>1676</ele>
        <time>2021-08-13T08:31:49.184Z</time>
      </trkpt>
      <trkpt lat="46.83691" lon="8.42132">
        <ele>1676</ele>
        <time>2021-08-13T08:31:50.184Z</time>
      </trkpt>
      <trkpt lat="46.83691" lon="8.42132">
        <ele>1676</ele>
        <time>2021-08-13T08:31:51.184Z</time>
      </trkpt>
      <trkpt lat="46.83691" lon="8.42134">
        <ele>1677</ele>
        <time>2021-08-13T08:31:52.183Z</time>
      </trkpt>
      <trkpt lat="46.83691" lon="8.42134">
        <ele>1677</ele>
        <time>2021-08-13T08:31:53.184Z</time>
      </trkpt>
      <trkpt lat="46.8369" lon="8.42135">
        <ele>1677</ele>
        <time>2021-08-13T08:31:54.183Z</time>
      </trkpt>
      <trkpt lat="46.8369" lon="8.42136">
        <ele>1676</ele>
        <time>2021-08-13T08:31:55.184Z</time>
      </trkpt>
      <trkpt lat="46.8369" lon="8.42136">
        <ele>1676</ele>
        <time>2021-08-13T08:31:56.183Z</time>
      </trkpt>
      <trkpt lat="46.83689" lon="8.42136">
        <ele>1675</ele>
        <time>2021-08-13T08:31:57.184Z</time>
      </trkpt>
      <trkpt lat="46.83688" lon="8.42136">
        <ele>1675</ele>
        <time>2021-08-13T08:31:58.184Z</time>
      </trkpt>
      <trkpt lat="46.83687" lon="8.42136">
        <ele>1675</ele>
        <time>2021-08-13T08:31:59.184Z</time>
      </trkpt>
      <trkpt lat="46.83686" lon="8.42136">
        <ele>1675</ele>
        <time>2021-08-13T08:32:00.184Z</time>
      </trkpt>
      <trkpt lat="46.83685" lon="8.42135">
        <ele>1675</ele>
        <time>2021-08-13T08:32:01.184Z</time>
      </trkpt>
      <trkpt lat="46.83683" lon="8.42134">
        <ele>1675</ele>
        <time>2021-08-13T08:32:02.184Z</time>
      </trkpt>
      <trkpt lat="46.83683" lon="8.42135">
        <ele>1676</ele>
        <time>2021-08-13T08:32:03.184Z</time>
      </trkpt>
      <trkpt lat="46.83682" lon="8.42135">
        <ele>1676</ele>
        <time>2021-08-13T08:32:04.184Z</time>
      </trkpt>
      <trkpt lat="46.83681" lon="8.42136">
        <ele>1676</ele>
        <time>2021-08-13T08:32:05.183Z</time>
      </trkpt>
      <trkpt lat="46.8368" lon="8.42136">
        <ele>1676</ele>
        <time>2021-08-13T08:32:06.184Z</time>
      </trkpt>
      <trkpt lat="46.8368" lon="8.42136">
        <ele>1676</ele>
        <time>2021-08-13T08:32:07.184Z</time>
      </trkpt>
      <trkpt lat="46.83679" lon="8.42136">
        <ele>1676</ele>
        <time>2021-08-13T08:32:08.184Z</time>
      </trkpt>
      <trkpt lat="46.83679" lon="8.42136">
        <ele>1676</ele>
        <time>2021-08-13T08:32:09.184Z</time>
      </trkpt>
      <trkpt lat="46.83678" lon="8.42135">
        <ele>1676</ele>
        <time>2021-08-13T08:32:10.184Z</time>
      </trkpt>
      <trkpt lat="46.83677" lon="8.42133">
        <ele>1676</ele>
        <time>2021-08-13T08:32:11.183Z</time>
      </trkpt>
      <trkpt lat="46.83676" lon="8.42132">
        <ele>1675</ele>
        <time>2021-08-13T08:32:12.184Z</time>
      </trkpt>
      <trkpt lat="46.83675" lon="8.42131">
        <ele>1675</ele>
        <time>2021-08-13T08:32:13.183Z</time>
      </trkpt>
      <trkpt lat="46.83674" lon="8.4213">
        <ele>1674</ele>
        <time>2021-08-13T08:32:14.183Z</time>
      </trkpt>
      <trkpt lat="46.83674" lon="8.42131">
        <ele>1674</ele>
        <time>2021-08-13T08:32:15.184Z</time>
      </trkpt>
      <trkpt lat="46.83673" lon="8.42132">
        <ele>1673</ele>
        <time>2021-08-13T08:32:16.183Z</time>
      </trkpt>
      <trkpt lat="46.83673" lon="8.42133">
        <ele>1673</ele>
        <time>2021-08-13T08:32:17.183Z</time>
      </trkpt>
      <trkpt lat="46.83673" lon="8.42134">
        <ele>1673</ele>
        <time>2021-08-13T08:32:18.184Z</time>
      </trkpt>
      <trkpt lat="46.83672" lon="8.42135">
        <ele>1673</ele>
        <time>2021-08-13T08:32:19.184Z</time>
      </trkpt>
      <trkpt lat="46.83672" lon="8.42136">
        <ele>1672</ele>
        <time>2021-08-13T08:32:20.183Z</time>
      </trkpt>
      <trkpt lat="46.83671" lon="8.42137">
        <ele>1672</ele>
        <time>2021-08-13T08:32:21.183Z</time>
      </trkpt>
      <trkpt lat="46.83671" lon="8.42138">
        <ele>1672</ele>
        <time>2021-08-13T08:32:22.184Z</time>
      </trkpt>
      <trkpt lat="46.83671" lon="8.42139">
        <ele>1671</ele>
        <time>2021-08-13T08:32:23.183Z</time>
      </trkpt>
      <trkpt lat="46.83671" lon="8.4214">
        <ele>1671</ele>
        <time>2021-08-13T08:32:24.183Z</time>
      </trkpt>
      <trkpt lat="46.83671" lon="8.42141">
        <ele>1670</ele>
        <time>2021-08-13T08:32:25.183Z</time>
      </trkpt>
      <trkpt lat="46.83671" lon="8.42141">
        <ele>1669</ele>
        <time>2021-08-13T08:32:26.184Z</time>
      </trkpt>
      <trkpt lat="46.83671" lon="8.42142">
        <ele>1669</ele>
        <time>2021-08-13T08:32:27.183Z</time>
      </trkpt>
      <trkpt lat="46.8367" lon="8.42147">
        <ele>1668</ele>
        <time>2021-08-13T08:32:28.185Z</time>
      </trkpt>
      <trkpt lat="46.8367" lon="8.42147">
        <ele>1668</ele>
        <time>2021-08-13T08:32:29.184Z</time>
      </trkpt>
      <trkpt lat="46.8367" lon="8.42148">
        <ele>1669</ele>
        <time>2021-08-13T08:32:30.184Z</time>
      </trkpt>
      <trkpt lat="46.83671" lon="8.42148">
        <ele>1665</ele>
        <time>2021-08-13T08:32:31.185Z</time>
      </trkpt>
      <trkpt lat="46.83672" lon="8.42147">
        <ele>1665</ele>
        <time>2021-08-13T08:32:32.184Z</time>
      </trkpt>
      <trkpt lat="46.83672" lon="8.42147">
        <ele>1664</ele>
        <time>2021-08-13T08:32:33.184Z</time>
      </trkpt>
      <trkpt lat="46.83672" lon="8.42147">
        <ele>1664</ele>
        <time>2021-08-13T08:32:34.184Z</time>
      </trkpt>
      <trkpt lat="46.83674" lon="8.42146">
        <ele>1663</ele>
        <time>2021-08-13T08:32:35.186Z</time>
      </trkpt>
      <trkpt lat="46.83674" lon="8.42146">
        <ele>1663</ele>
        <time>2021-08-13T08:32:36.186Z</time>
      </trkpt>
      <trkpt lat="46.83673" lon="8.42147">
        <ele>1663</ele>
        <time>2021-08-13T08:32:37.186Z</time>
      </trkpt>
      <trkpt lat="46.83673" lon="8.42147">
        <ele>1664</ele>
        <time>2021-08-13T08:32:38.186Z</time>
      </trkpt>
      <trkpt lat="46.83673" lon="8.42147">
        <ele>1664</ele>
        <time>2021-08-13T08:32:39.186Z</time>
      </trkpt>
      <trkpt lat="46.83672" lon="8.42147">
        <ele>1664</ele>
        <time>2021-08-13T08:32:40.185Z</time>
      </trkpt>
      <trkpt lat="46.83671" lon="8.42148">
        <ele>1666</ele>
        <time>2021-08-13T08:32:41.185Z</time>
      </trkpt>
      <trkpt lat="46.8367" lon="8.42148">
        <ele>1665</ele>
        <time>2021-08-13T08:32:42.185Z</time>
      </trkpt>
      <trkpt lat="46.8367" lon="8.42149">
        <ele>1665</ele>
        <time>2021-08-13T08:32:43.185Z</time>
      </trkpt>
      <trkpt lat="46.83669" lon="8.4215">
        <ele>1664</ele>
        <time>2021-08-13T08:32:44.185Z</time>
      </trkpt>
      <trkpt lat="46.83669" lon="8.4215">
        <ele>1664</ele>
        <time>2021-08-13T08:32:45.185Z</time>
      </trkpt>
      <trkpt lat="46.83668" lon="8.4215">
        <ele>1664</ele>
        <time>2021-08-13T08:32:46.185Z</time>
      </trkpt>
      <trkpt lat="46.83668" lon="8.4215">
        <ele>1664</ele>
        <time>2021-08-13T08:32:47.185Z</time>
      </trkpt>
      <trkpt lat="46.83668" lon="8.42151">
        <ele>1663</ele>
        <time>2021-08-13T08:32:48.186Z</time>
      </trkpt>
      <trkpt lat="46.83668" lon="8.42151">
        <ele>1662</ele>
        <time>2021-08-13T08:32:49.186Z</time>
      </trkpt>
      <trkpt lat="46.83668" lon="8.42151">
        <ele>1662</ele>
        <time>2021-08-13T08:32:50.186Z</time>
      </trkpt>
      <trkpt lat="46.83668" lon="8.42151">
        <ele>1662</ele>
        <time>2021-08-13T08:32:51.185Z</time>
      </trkpt>
      <trkpt lat="46.83668" lon="8.42151">
        <ele>1662</ele>
        <time>2021-08-13T08:32:52.186Z</time>
      </trkpt>
      <trkpt lat="46.83668" lon="8.42151">
        <ele>1661</ele>
        <time>2021-08-13T08:32:53.186Z</time>
      </trkpt>
      <trkpt lat="46.83667" lon="8.42151">
        <ele>1664</ele>
        <time>2021-08-13T08:32:54.188Z</time>
      </trkpt>
      <trkpt lat="46.83667" lon="8.42151">
        <ele>1664</ele>
        <time>2021-08-13T08:32:55.187Z</time>
      </trkpt>
      <trkpt lat="46.83666" lon="8.42153">
        <ele>1660</ele>
        <time>2021-08-13T08:32:56.188Z</time>
      </trkpt>
      <trkpt lat="46.83666" lon="8.42153">
        <ele>1660</ele>
        <time>2021-08-13T08:32:57.187Z</time>
      </trkpt>
      <trkpt lat="46.83667" lon="8.42153">
        <ele>1660</ele>
        <time>2021-08-13T08:32:58.187Z</time>
      </trkpt>
      <trkpt lat="46.83667" lon="8.42152">
        <ele>1660</ele>
        <time>2021-08-13T08:32:59.187Z</time>
      </trkpt>
      <trkpt lat="46.83667" lon="8.42152">
        <ele>1660</ele>
        <time>2021-08-13T08:33:00.187Z</time>
      </trkpt>
      <trkpt lat="46.83666" lon="8.42154">
        <ele>1658</ele>
        <time>2021-08-13T08:33:01.187Z</time>
      </trkpt>
      <trkpt lat="46.83668" lon="8.42152">
        <ele>1658</ele>
        <time>2021-08-13T08:33:02.188Z</time>
      </trkpt>
      <trkpt lat="46.83668" lon="8.4215">
        <ele>1664</ele>
        <time>2021-08-13T08:33:03.189Z</time>
      </trkpt>
      <trkpt lat="46.83668" lon="8.4215">
        <ele>1665</ele>
        <time>2021-08-13T08:33:04.189Z</time>
      </trkpt>
      <trkpt lat="46.83667" lon="8.4215">
        <ele>1665</ele>
        <time>2021-08-13T08:33:05.188Z</time>
      </trkpt>
      <trkpt lat="46.83667" lon="8.42149">
        <ele>1666</ele>
        <time>2021-08-13T08:33:06.189Z</time>
      </trkpt>
      <trkpt lat="46.83666" lon="8.42149">
        <ele>1666</ele>
        <time>2021-08-13T08:33:07.189Z</time>
      </trkpt>
      <trkpt lat="46.83666" lon="8.4215">
        <ele>1666</ele>
        <time>2021-08-13T08:33:08.189Z</time>
      </trkpt>
      <trkpt lat="46.83666" lon="8.4215">
        <ele>1666</ele>
        <time>2021-08-13T08:33:09.189Z</time>
      </trkpt>
      <trkpt lat="46.83665" lon="8.4215">
        <ele>1666</ele>
        <time>2021-08-13T08:33:10.189Z</time>
      </trkpt>
      <trkpt lat="46.83665" lon="8.42151">
        <ele>1666</ele>
        <time>2021-08-13T08:33:11.189Z</time>
      </trkpt>
      <trkpt lat="46.83664" lon="8.42151">
        <ele>1665</ele>
        <time>2021-08-13T08:33:12.188Z</time>
      </trkpt>
      <trkpt lat="46.83664" lon="8.42151">
        <ele>1665</ele>
        <time>2021-08-13T08:33:13.188Z</time>
      </trkpt>
      <trkpt lat="46.83663" lon="8.42151">
        <ele>1664</ele>
        <time>2021-08-13T08:33:14.189Z</time>
      </trkpt>
      <trkpt lat="46.83662" lon="8.42152">
        <ele>1664</ele>
        <time>2021-08-13T08:33:15.188Z</time>
      </trkpt>
      <trkpt lat="46.83661" lon="8.42152">
        <ele>1663</ele>
        <time>2021-08-13T08:33:16.188Z</time>
      </trkpt>
      <trkpt lat="46.83661" lon="8.42153">
        <ele>1663</ele>
        <time>2021-08-13T08:33:17.189Z</time>
      </trkpt>
      <trkpt lat="46.8366" lon="8.42154">
        <ele>1662</ele>
        <time>2021-08-13T08:33:18.189Z</time>
      </trkpt>
      <trkpt lat="46.8366" lon="8.42156">
        <ele>1662</ele>
        <time>2021-08-13T08:33:19.188Z</time>
      </trkpt>
      <trkpt lat="46.83659" lon="8.42157">
        <ele>1661</ele>
        <time>2021-08-13T08:33:20.189Z</time>
      </trkpt>
      <trkpt lat="46.83659" lon="8.42158">
        <ele>1661</ele>
        <time>2021-08-13T08:33:21.189Z</time>
      </trkpt>
      <trkpt lat="46.83658" lon="8.4216">
        <ele>1661</ele>
        <time>2021-08-13T08:33:22.188Z</time>
      </trkpt>
      <trkpt lat="46.83658" lon="8.42161">
        <ele>1661</ele>
        <time>2021-08-13T08:33:23.188Z</time>
      </trkpt>
      <trkpt lat="46.83657" lon="8.42161">
        <ele>1661</ele>
        <time>2021-08-13T08:33:24.189Z</time>
      </trkpt>
      <trkpt lat="46.83657" lon="8.42162">
        <ele>1660</ele>
        <time>2021-08-13T08:33:25.188Z</time>
      </trkpt>
      <trkpt lat="46.83656" lon="8.42163">
        <ele>1660</ele>
        <time>2021-08-13T08:33:26.188Z</time>
      </trkpt>
      <trkpt lat="46.83655" lon="8.42163">
        <ele>1660</ele>
        <time>2021-08-13T08:33:27.188Z</time>
      </trkpt>
      <trkpt lat="46.83655" lon="8.42164">
        <ele>1660</ele>
        <time>2021-08-13T08:33:28.189Z</time>
      </trkpt>
      <trkpt lat="46.83654" lon="8.42165">
        <ele>1659</ele>
        <time>2021-08-13T08:33:29.189Z</time>
      </trkpt>
      <trkpt lat="46.83653" lon="8.42166">
        <ele>1659</ele>
        <time>2021-08-13T08:33:30.189Z</time>
      </trkpt>
      <trkpt lat="46.83653" lon="8.42167">
        <ele>1659</ele>
        <time>2021-08-13T08:33:31.188Z</time>
      </trkpt>
      <trkpt lat="46.83653" lon="8.42168">
        <ele>1658</ele>
        <time>2021-08-13T08:33:32.189Z</time>
      </trkpt>
      <trkpt lat="46.83652" lon="8.4217">
        <ele>1658</ele>
        <time>2021-08-13T08:33:33.188Z</time>
      </trkpt>
      <trkpt lat="46.83652" lon="8.4217">
        <ele>1658</ele>
        <time>2021-08-13T08:33:34.189Z</time>
      </trkpt>
      <trkpt lat="46.83652" lon="8.42172">
        <ele>1658</ele>
        <time>2021-08-13T08:33:35.189Z</time>
      </trkpt>
      <trkpt lat="46.83652" lon="8.42173">
        <ele>1658</ele>
        <time>2021-08-13T08:33:36.189Z</time>
      </trkpt>
      <trkpt lat="46.83652" lon="8.42173">
        <ele>1659</ele>
        <time>2021-08-13T08:33:37.189Z</time>
      </trkpt>
      <trkpt lat="46.83651" lon="8.42173">
        <ele>1659</ele>
        <time>2021-08-13T08:33:38.188Z</time>
      </trkpt>
      <trkpt lat="46.83651" lon="8.42174">
        <ele>1659</ele>
        <time>2021-08-13T08:33:39.189Z</time>
      </trkpt>
      <trkpt lat="46.83651" lon="8.42174">
        <ele>1659</ele>
        <time>2021-08-13T08:33:40.189Z</time>
      </trkpt>
      <trkpt lat="46.83651" lon="8.42174">
        <ele>1659</ele>
        <time>2021-08-13T08:33:41.189Z</time>
      </trkpt>
      <trkpt lat="46.8365" lon="8.42173">
        <ele>1659</ele>
        <time>2021-08-13T08:33:42.188Z</time>
      </trkpt>
      <trkpt lat="46.8365" lon="8.42172">
        <ele>1660</ele>
        <time>2021-08-13T08:33:43.189Z</time>
      </trkpt>
      <trkpt lat="46.83649" lon="8.4217">
        <ele>1660</ele>
        <time>2021-08-13T08:33:44.188Z</time>
      </trkpt>
      <trkpt lat="46.83648" lon="8.42169">
        <ele>1660</ele>
        <time>2021-08-13T08:33:45.188Z</time>
      </trkpt>
      <trkpt lat="46.83647" lon="8.42168">
        <ele>1660</ele>
        <time>2021-08-13T08:33:46.189Z</time>
      </trkpt>
      <trkpt lat="46.83646" lon="8.42168">
        <ele>1660</ele>
        <time>2021-08-13T08:33:47.188Z</time>
      </trkpt>
      <trkpt lat="46.83646" lon="8.42168">
        <ele>1660</ele>
        <time>2021-08-13T08:33:48.189Z</time>
      </trkpt>
      <trkpt lat="46.83645" lon="8.42168">
        <ele>1660</ele>
        <time>2021-08-13T08:33:49.189Z</time>
      </trkpt>
      <trkpt lat="46.83645" lon="8.42167">
        <ele>1659</ele>
        <time>2021-08-13T08:33:50.189Z</time>
      </trkpt>
      <trkpt lat="46.83645" lon="8.42166">
        <ele>1659</ele>
        <time>2021-08-13T08:33:51.189Z</time>
      </trkpt>
      <trkpt lat="46.83644" lon="8.42165">
        <ele>1659</ele>
        <time>2021-08-13T08:33:52.189Z</time>
      </trkpt>
      <trkpt lat="46.83644" lon="8.42164">
        <ele>1658</ele>
        <time>2021-08-13T08:33:53.189Z</time>
      </trkpt>
      <trkpt lat="46.83643" lon="8.42163">
        <ele>1658</ele>
        <time>2021-08-13T08:33:54.189Z</time>
      </trkpt>
      <trkpt lat="46.83643" lon="8.42162">
        <ele>1657</ele>
        <time>2021-08-13T08:33:55.189Z</time>
      </trkpt>
      <trkpt lat="46.83643" lon="8.42163">
        <ele>1657</ele>
        <time>2021-08-13T08:33:56.189Z</time>
      </trkpt>
      <trkpt lat="46.83644" lon="8.42162">
        <ele>1656</ele>
        <time>2021-08-13T08:33:57.188Z</time>
      </trkpt>
      <trkpt lat="46.83644" lon="8.42161">
        <ele>1656</ele>
        <time>2021-08-13T08:33:58.189Z</time>
      </trkpt>
      <trkpt lat="46.83644" lon="8.4216">
        <ele>1655</ele>
        <time>2021-08-13T08:33:59.189Z</time>
      </trkpt>
      <trkpt lat="46.83644" lon="8.4216">
        <ele>1655</ele>
        <time>2021-08-13T08:34:00.188Z</time>
      </trkpt>
      <trkpt lat="46.83644" lon="8.42158">
        <ele>1654</ele>
        <time>2021-08-13T08:34:01.189Z</time>
      </trkpt>
      <trkpt lat="46.83644" lon="8.42157">
        <ele>1654</ele>
        <time>2021-08-13T08:34:02.188Z</time>
      </trkpt>
      <trkpt lat="46.83645" lon="8.42157">
        <ele>1654</ele>
        <time>2021-08-13T08:34:03.189Z</time>
      </trkpt>
      <trkpt lat="46.83645" lon="8.42155">
        <ele>1655</ele>
        <time>2021-08-13T08:34:04.188Z</time>
      </trkpt>
      <trkpt lat="46.83645" lon="8.42154">
        <ele>1655</ele>
        <time>2021-08-13T08:34:05.189Z</time>
      </trkpt>
      <trkpt lat="46.83644" lon="8.42153">
        <ele>1656</ele>
        <time>2021-08-13T08:34:06.188Z</time>
      </trkpt>
      <trkpt lat="46.83643" lon="8.42152">
        <ele>1655</ele>
        <time>2021-08-13T08:34:07.188Z</time>
      </trkpt>
      <trkpt lat="46.83641" lon="8.42152">
        <ele>1655</ele>
        <time>2021-08-13T08:34:08.189Z</time>
      </trkpt>
      <trkpt lat="46.8364" lon="8.42152">
        <ele>1655</ele>
        <time>2021-08-13T08:34:09.189Z</time>
      </trkpt>
      <trkpt lat="46.8364" lon="8.42152">
        <ele>1655</ele>
        <time>2021-08-13T08:34:10.188Z</time>
      </trkpt>
      <trkpt lat="46.83638" lon="8.42152">
        <ele>1655</ele>
        <time>2021-08-13T08:34:11.189Z</time>
      </trkpt>
      <trkpt lat="46.83637" lon="8.42151">
        <ele>1655</ele>
        <time>2021-08-13T08:34:12.189Z</time>
      </trkpt>
      <trkpt lat="46.83636" lon="8.42151">
        <ele>1655</ele>
        <time>2021-08-13T08:34:13.188Z</time>
      </trkpt>
      <trkpt lat="46.83636" lon="8.42151">
        <ele>1654</ele>
        <time>2021-08-13T08:34:14.189Z</time>
      </trkpt>
      <trkpt lat="46.83636" lon="8.42151">
        <ele>1654</ele>
        <time>2021-08-13T08:34:15.188Z</time>
      </trkpt>
      <trkpt lat="46.83636" lon="8.42152">
        <ele>1653</ele>
        <time>2021-08-13T08:34:16.189Z</time>
      </trkpt>
      <trkpt lat="46.83635" lon="8.42152">
        <ele>1653</ele>
        <time>2021-08-13T08:34:17.188Z</time>
      </trkpt>
      <trkpt lat="46.83635" lon="8.42151">
        <ele>1652</ele>
        <time>2021-08-13T08:34:18.188Z</time>
      </trkpt>
      <trkpt lat="46.83635" lon="8.42151">
        <ele>1652</ele>
        <time>2021-08-13T08:34:19.188Z</time>
      </trkpt>
      <trkpt lat="46.83635" lon="8.42151">
        <ele>1652</ele>
        <time>2021-08-13T08:34:20.189Z</time>
      </trkpt>
      <trkpt lat="46.83635" lon="8.4215">
        <ele>1651</ele>
        <time>2021-08-13T08:34:21.189Z</time>
      </trkpt>
      <trkpt lat="46.83635" lon="8.42149">
        <ele>1651</ele>
        <time>2021-08-13T08:34:22.189Z</time>
      </trkpt>
      <trkpt lat="46.83635" lon="8.42147">
        <ele>1651</ele>
        <time>2021-08-13T08:34:23.189Z</time>
      </trkpt>
      <trkpt lat="46.83635" lon="8.42146">
        <ele>1652</ele>
        <time>2021-08-13T08:34:24.189Z</time>
      </trkpt>
      <trkpt lat="46.83636" lon="8.42145">
        <ele>1651</ele>
        <time>2021-08-13T08:34:25.189Z</time>
      </trkpt>
      <trkpt lat="46.83637" lon="8.42144">
        <ele>1651</ele>
        <time>2021-08-13T08:34:26.189Z</time>
      </trkpt>
      <trkpt lat="46.83637" lon="8.42143">
        <ele>1651</ele>
        <time>2021-08-13T08:34:27.188Z</time>
      </trkpt>
      <trkpt lat="46.83637" lon="8.42142">
        <ele>1651</ele>
        <time>2021-08-13T08:34:28.188Z</time>
      </trkpt>
      <trkpt lat="46.83638" lon="8.42142">
        <ele>1651</ele>
        <time>2021-08-13T08:34:29.189Z</time>
      </trkpt>
      <trkpt lat="46.83638" lon="8.42141">
        <ele>1650</ele>
        <time>2021-08-13T08:34:30.188Z</time>
      </trkpt>
      <trkpt lat="46.83638" lon="8.4214">
        <ele>1650</ele>
        <time>2021-08-13T08:34:31.189Z</time>
      </trkpt>
      <trkpt lat="46.83637" lon="8.42139">
        <ele>1650</ele>
        <time>2021-08-13T08:34:32.188Z</time>
      </trkpt>
      <trkpt lat="46.83636" lon="8.42139">
        <ele>1650</ele>
        <time>2021-08-13T08:34:33.189Z</time>
      </trkpt>
      <trkpt lat="46.83635" lon="8.42138">
        <ele>1650</ele>
        <time>2021-08-13T08:34:34.188Z</time>
      </trkpt>
      <trkpt lat="46.83635" lon="8.42138">
        <ele>1649</ele>
        <time>2021-08-13T08:34:35.189Z</time>
      </trkpt>
      <trkpt lat="46.83635" lon="8.42137">
        <ele>1649</ele>
        <time>2021-08-13T08:34:36.189Z</time>
      </trkpt>
      <trkpt lat="46.83635" lon="8.42137">
        <ele>1649</ele>
        <time>2021-08-13T08:34:37.189Z</time>
      </trkpt>
      <trkpt lat="46.83635" lon="8.42136">
        <ele>1648</ele>
        <time>2021-08-13T08:34:38.189Z</time>
      </trkpt>
      <trkpt lat="46.83634" lon="8.42136">
        <ele>1648</ele>
        <time>2021-08-13T08:34:39.188Z</time>
      </trkpt>
      <trkpt lat="46.83634" lon="8.42135">
        <ele>1648</ele>
        <time>2021-08-13T08:34:40.188Z</time>
      </trkpt>
      <trkpt lat="46.83633" lon="8.42134">
        <ele>1647</ele>
        <time>2021-08-13T08:34:41.189Z</time>
      </trkpt>
      <trkpt lat="46.83632" lon="8.42133">
        <ele>1647</ele>
        <time>2021-08-13T08:34:42.189Z</time>
      </trkpt>
      <trkpt lat="46.83632" lon="8.42132">
        <ele>1647</ele>
        <time>2021-08-13T08:34:43.189Z</time>
      </trkpt>
      <trkpt lat="46.83631" lon="8.42132">
        <ele>1646</ele>
        <time>2021-08-13T08:34:44.188Z</time>
      </trkpt>
      <trkpt lat="46.8363" lon="8.42131">
        <ele>1645</ele>
        <time>2021-08-13T08:34:45.189Z</time>
      </trkpt>
      <trkpt lat="46.8363" lon="8.4213">
        <ele>1645</ele>
        <time>2021-08-13T08:34:46.189Z</time>
      </trkpt>
      <trkpt lat="46.83628" lon="8.42129">
        <ele>1645</ele>
        <time>2021-08-13T08:34:47.188Z</time>
      </trkpt>
      <trkpt lat="46.83627" lon="8.42129">
        <ele>1644</ele>
        <time>2021-08-13T08:34:48.188Z</time>
      </trkpt>
      <trkpt lat="46.83626" lon="8.42129">
        <ele>1643</ele>
        <time>2021-08-13T08:34:49.189Z</time>
      </trkpt>
      <trkpt lat="46.83626" lon="8.42129">
        <ele>1642</ele>
        <time>2021-08-13T08:34:50.188Z</time>
      </trkpt>
      <trkpt lat="46.83625" lon="8.42129">
        <ele>1641</ele>
        <time>2021-08-13T08:34:51.188Z</time>
      </trkpt>
      <trkpt lat="46.83625" lon="8.42128">
        <ele>1641</ele>
        <time>2021-08-13T08:34:52.189Z</time>
      </trkpt>
      <trkpt lat="46.83624" lon="8.42128">
        <ele>1640</ele>
        <time>2021-08-13T08:34:53.189Z</time>
      </trkpt>
      <trkpt lat="46.83623" lon="8.42127">
        <ele>1639</ele>
        <time>2021-08-13T08:34:54.189Z</time>
      </trkpt>
      <trkpt lat="46.83622" lon="8.42127">
        <ele>1639</ele>
        <time>2021-08-13T08:34:55.189Z</time>
      </trkpt>
      <trkpt lat="46.83622" lon="8.42127">
        <ele>1638</ele>
        <time>2021-08-13T08:34:56.189Z</time>
      </trkpt>
      <trkpt lat="46.83621" lon="8.42127">
        <ele>1637</ele>
        <time>2021-08-13T08:34:57.188Z</time>
      </trkpt>
      <trkpt lat="46.83621" lon="8.42126">
        <ele>1637</ele>
        <time>2021-08-13T08:34:58.189Z</time>
      </trkpt>
      <trkpt lat="46.83621" lon="8.42126">
        <ele>1636</ele>
        <time>2021-08-13T08:34:59.189Z</time>
      </trkpt>
      <trkpt lat="46.83621" lon="8.42126">
        <ele>1635</ele>
        <time>2021-08-13T08:35:00.189Z</time>
      </trkpt>
      <trkpt lat="46.83621" lon="8.42126">
        <ele>1635</ele>
        <time>2021-08-13T08:35:01.188Z</time>
      </trkpt>
      <trkpt lat="46.83621" lon="8.42126">
        <ele>1635</ele>
        <time>2021-08-13T08:35:02.188Z</time>
      </trkpt>
      <trkpt lat="46.83621" lon="8.42126">
        <ele>1635</ele>
        <time>2021-08-13T08:35:03.189Z</time>
      </trkpt>
      <trkpt lat="46.8362" lon="8.42125">
        <ele>1634</ele>
        <time>2021-08-13T08:35:04.189Z</time>
      </trkpt>
      <trkpt lat="46.8362" lon="8.42125">
        <ele>1634</ele>
        <time>2021-08-13T08:35:05.188Z</time>
      </trkpt>
      <trkpt lat="46.83619" lon="8.42124">
        <ele>1634</ele>
        <time>2021-08-13T08:35:06.188Z</time>
      </trkpt>
      <trkpt lat="46.83618" lon="8.42123">
        <ele>1633</ele>
        <time>2021-08-13T08:35:07.188Z</time>
      </trkpt>
      <trkpt lat="46.83617" lon="8.42122">
        <ele>1633</ele>
        <time>2021-08-13T08:35:08.189Z</time>
      </trkpt>
      <trkpt lat="46.83616" lon="8.42121">
        <ele>1632</ele>
        <time>2021-08-13T08:35:09.189Z</time>
      </trkpt>
      <trkpt lat="46.83615" lon="8.4212">
        <ele>1632</ele>
        <time>2021-08-13T08:35:10.189Z</time>
      </trkpt>
      <trkpt lat="46.83614" lon="8.42119">
        <ele>1632</ele>
        <time>2021-08-13T08:35:11.188Z</time>
      </trkpt>
      <trkpt lat="46.83614" lon="8.42119">
        <ele>1631</ele>
        <time>2021-08-13T08:35:12.188Z</time>
      </trkpt>
      <trkpt lat="46.83613" lon="8.42117">
        <ele>1631</ele>
        <time>2021-08-13T08:35:13.189Z</time>
      </trkpt>
      <trkpt lat="46.83612" lon="8.42117">
        <ele>1631</ele>
        <time>2021-08-13T08:35:14.189Z</time>
      </trkpt>
      <trkpt lat="46.83611" lon="8.42116">
        <ele>1631</ele>
        <time>2021-08-13T08:35:15.189Z</time>
      </trkpt>
      <trkpt lat="46.8361" lon="8.42116">
        <ele>1630</ele>
        <time>2021-08-13T08:35:16.188Z</time>
      </trkpt>
      <trkpt lat="46.83609" lon="8.42116">
        <ele>1630</ele>
        <time>2021-08-13T08:35:17.188Z</time>
      </trkpt>
      <trkpt lat="46.83608" lon="8.42116">
        <ele>1630</ele>
        <time>2021-08-13T08:35:18.188Z</time>
      </trkpt>
      <trkpt lat="46.83608" lon="8.42116">
        <ele>1630</ele>
        <time>2021-08-13T08:35:19.189Z</time>
      </trkpt>
      <trkpt lat="46.83607" lon="8.42116">
        <ele>1630</ele>
        <time>2021-08-13T08:35:20.188Z</time>
      </trkpt>
      <trkpt lat="46.83606" lon="8.42115">
        <ele>1629</ele>
        <time>2021-08-13T08:35:21.188Z</time>
      </trkpt>
      <trkpt lat="46.83606" lon="8.42114">
        <ele>1629</ele>
        <time>2021-08-13T08:35:22.188Z</time>
      </trkpt>
      <trkpt lat="46.83605" lon="8.42114">
        <ele>1628</ele>
        <time>2021-08-13T08:35:23.188Z</time>
      </trkpt>
      <trkpt lat="46.83605" lon="8.42113">
        <ele>1627</ele>
        <time>2021-08-13T08:35:24.189Z</time>
      </trkpt>
      <trkpt lat="46.83604" lon="8.42113">
        <ele>1626</ele>
        <time>2021-08-13T08:35:25.188Z</time>
      </trkpt>
      <trkpt lat="46.83603" lon="8.42112">
        <ele>1626</ele>
        <time>2021-08-13T08:35:26.188Z</time>
      </trkpt>
      <trkpt lat="46.83603" lon="8.42112">
        <ele>1626</ele>
        <time>2021-08-13T08:35:27.188Z</time>
      </trkpt>
      <trkpt lat="46.83603" lon="8.42112">
        <ele>1626</ele>
        <time>2021-08-13T08:35:28.189Z</time>
      </trkpt>
      <trkpt lat="46.83603" lon="8.42113">
        <ele>1625</ele>
        <time>2021-08-13T08:35:29.189Z</time>
      </trkpt>
      <trkpt lat="46.83603" lon="8.42114">
        <ele>1624</ele>
        <time>2021-08-13T08:35:30.189Z</time>
      </trkpt>
      <trkpt lat="46.83604" lon="8.42115">
        <ele>1623</ele>
        <time>2021-08-13T08:35:31.188Z</time>
      </trkpt>
      <trkpt lat="46.83605" lon="8.42116">
        <ele>1626</ele>
        <time>2021-08-13T08:35:32.189Z</time>
      </trkpt>
      <trkpt lat="46.83605" lon="8.42117">
        <ele>1626</ele>
        <time>2021-08-13T08:35:33.189Z</time>
      </trkpt>
      <trkpt lat="46.83605" lon="8.42118">
        <ele>1627</ele>
        <time>2021-08-13T08:35:34.188Z</time>
      </trkpt>
      <trkpt lat="46.83604" lon="8.42118">
        <ele>1627</ele>
        <time>2021-08-13T08:35:35.188Z</time>
      </trkpt>
      <trkpt lat="46.83604" lon="8.42118">
        <ele>1627</ele>
        <time>2021-08-13T08:35:36.188Z</time>
      </trkpt>
      <trkpt lat="46.83604" lon="8.42118">
        <ele>1627</ele>
        <time>2021-08-13T08:35:37.188Z</time>
      </trkpt>
      <trkpt lat="46.83604" lon="8.42118">
        <ele>1627</ele>
        <time>2021-08-13T08:35:38.188Z</time>
      </trkpt>
      <trkpt lat="46.83604" lon="8.42119">
        <ele>1627</ele>
        <time>2021-08-13T08:35:39.188Z</time>
      </trkpt>
      <trkpt lat="46.83603" lon="8.42115">
        <ele>1626</ele>
        <time>2021-08-13T08:35:40.190Z</time>
      </trkpt>
      <trkpt lat="46.83602" lon="8.42114">
        <ele>1626</ele>
        <time>2021-08-13T08:35:41.190Z</time>
      </trkpt>
      <trkpt lat="46.83601" lon="8.42114">
        <ele>1626</ele>
        <time>2021-08-13T08:35:42.189Z</time>
      </trkpt>
      <trkpt lat="46.836" lon="8.42114">
        <ele>1626</ele>
        <time>2021-08-13T08:35:43.190Z</time>
      </trkpt>
      <trkpt lat="46.83599" lon="8.42113">
        <ele>1626</ele>
        <time>2021-08-13T08:35:44.189Z</time>
      </trkpt>
      <trkpt lat="46.83599" lon="8.42112">
        <ele>1626</ele>
        <time>2021-08-13T08:35:45.189Z</time>
      </trkpt>
      <trkpt lat="46.83598" lon="8.42112">
        <ele>1626</ele>
        <time>2021-08-13T08:35:46.189Z</time>
      </trkpt>
      <trkpt lat="46.83597" lon="8.42112">
        <ele>1626</ele>
        <time>2021-08-13T08:35:47.189Z</time>
      </trkpt>
      <trkpt lat="46.83596" lon="8.42111">
        <ele>1626</ele>
        <time>2021-08-13T08:35:48.189Z</time>
      </trkpt>
      <trkpt lat="46.83595" lon="8.4211">
        <ele>1626</ele>
        <time>2021-08-13T08:35:49.189Z</time>
      </trkpt>
      <trkpt lat="46.83594" lon="8.4211">
        <ele>1626</ele>
        <time>2021-08-13T08:35:50.190Z</time>
      </trkpt>
      <trkpt lat="46.83593" lon="8.42109">
        <ele>1625</ele>
        <time>2021-08-13T08:35:51.189Z</time>
      </trkpt>
      <trkpt lat="46.83592" lon="8.42108">
        <ele>1625</ele>
        <time>2021-08-13T08:35:52.189Z</time>
      </trkpt>
      <trkpt lat="46.83591" lon="8.42107">
        <ele>1625</ele>
        <time>2021-08-13T08:35:53.189Z</time>
      </trkpt>
      <trkpt lat="46.8359" lon="8.42107">
        <ele>1624</ele>
        <time>2021-08-13T08:35:54.190Z</time>
      </trkpt>
      <trkpt lat="46.83589" lon="8.42107">
        <ele>1624</ele>
        <time>2021-08-13T08:35:55.189Z</time>
      </trkpt>
      <trkpt lat="46.83588" lon="8.42106">
        <ele>1624</ele>
        <time>2021-08-13T08:35:56.190Z</time>
      </trkpt>
      <trkpt lat="46.83587" lon="8.42106">
        <ele>1624</ele>
        <time>2021-08-13T08:35:57.190Z</time>
      </trkpt>
      <trkpt lat="46.83586" lon="8.42105">
        <ele>1624</ele>
        <time>2021-08-13T08:35:58.190Z</time>
      </trkpt>
      <trkpt lat="46.83585" lon="8.42104">
        <ele>1624</ele>
        <time>2021-08-13T08:35:59.190Z</time>
      </trkpt>
      <trkpt lat="46.83584" lon="8.42103">
        <ele>1624</ele>
        <time>2021-08-13T08:36:00.189Z</time>
      </trkpt>
      <trkpt lat="46.83583" lon="8.42102">
        <ele>1623</ele>
        <time>2021-08-13T08:36:01.190Z</time>
      </trkpt>
      <trkpt lat="46.83582" lon="8.42101">
        <ele>1623</ele>
        <time>2021-08-13T08:36:02.190Z</time>
      </trkpt>
      <trkpt lat="46.83581" lon="8.42101">
        <ele>1623</ele>
        <time>2021-08-13T08:36:03.190Z</time>
      </trkpt>
      <trkpt lat="46.8358" lon="8.42101">
        <ele>1623</ele>
        <time>2021-08-13T08:36:04.190Z</time>
      </trkpt>
      <trkpt lat="46.83579" lon="8.42101">
        <ele>1623</ele>
        <time>2021-08-13T08:36:05.189Z</time>
      </trkpt>
      <trkpt lat="46.83579" lon="8.42101">
        <ele>1623</ele>
        <time>2021-08-13T08:36:06.190Z</time>
      </trkpt>
      <trkpt lat="46.83578" lon="8.42101">
        <ele>1623</ele>
        <time>2021-08-13T08:36:07.189Z</time>
      </trkpt>
      <trkpt lat="46.83577" lon="8.421">
        <ele>1622</ele>
        <time>2021-08-13T08:36:08.190Z</time>
      </trkpt>
      <trkpt lat="46.83576" lon="8.421">
        <ele>1622</ele>
        <time>2021-08-13T08:36:09.189Z</time>
      </trkpt>
      <trkpt lat="46.83576" lon="8.421">
        <ele>1621</ele>
        <time>2021-08-13T08:36:10.190Z</time>
      </trkpt>
      <trkpt lat="46.83575" lon="8.421">
        <ele>1621</ele>
        <time>2021-08-13T08:36:11.190Z</time>
      </trkpt>
      <trkpt lat="46.83575" lon="8.42099">
        <ele>1621</ele>
        <time>2021-08-13T08:36:12.190Z</time>
      </trkpt>
      <trkpt lat="46.83574" lon="8.42099">
        <ele>1620</ele>
        <time>2021-08-13T08:36:13.190Z</time>
      </trkpt>
      <trkpt lat="46.83573" lon="8.42099">
        <ele>1620</ele>
        <time>2021-08-13T08:36:14.189Z</time>
      </trkpt>
      <trkpt lat="46.83572" lon="8.42098">
        <ele>1620</ele>
        <time>2021-08-13T08:36:15.190Z</time>
      </trkpt>
      <trkpt lat="46.83572" lon="8.42099">
        <ele>1619</ele>
        <time>2021-08-13T08:36:16.190Z</time>
      </trkpt>
      <trkpt lat="46.83571" lon="8.42099">
        <ele>1619</ele>
        <time>2021-08-13T08:36:17.189Z</time>
      </trkpt>
      <trkpt lat="46.8357" lon="8.42098">
        <ele>1619</ele>
        <time>2021-08-13T08:36:18.190Z</time>
      </trkpt>
      <trkpt lat="46.83569" lon="8.42098">
        <ele>1619</ele>
        <time>2021-08-13T08:36:19.189Z</time>
      </trkpt>
      <trkpt lat="46.83568" lon="8.42097">
        <ele>1619</ele>
        <time>2021-08-13T08:36:20.189Z</time>
      </trkpt>
      <trkpt lat="46.83567" lon="8.42097">
        <ele>1618</ele>
        <time>2021-08-13T08:36:21.189Z</time>
      </trkpt>
      <trkpt lat="46.83567" lon="8.42096">
        <ele>1618</ele>
        <time>2021-08-13T08:36:22.190Z</time>
      </trkpt>
      <trkpt lat="46.83566" lon="8.42096">
        <ele>1618</ele>
        <time>2021-08-13T08:36:23.189Z</time>
      </trkpt>
      <trkpt lat="46.83565" lon="8.42095">
        <ele>1617</ele>
        <time>2021-08-13T08:36:24.189Z</time>
      </trkpt>
      <trkpt lat="46.83564" lon="8.42094">
        <ele>1617</ele>
        <time>2021-08-13T08:36:25.190Z</time>
      </trkpt>
      <trkpt lat="46.83563" lon="8.42093">
        <ele>1617</ele>
        <time>2021-08-13T08:36:26.190Z</time>
      </trkpt>
      <trkpt lat="46.83562" lon="8.42092">
        <ele>1616</ele>
        <time>2021-08-13T08:36:27.190Z</time>
      </trkpt>
      <trkpt lat="46.83561" lon="8.42091">
        <ele>1616</ele>
        <time>2021-08-13T08:36:28.190Z</time>
      </trkpt>
      <trkpt lat="46.8356" lon="8.42091">
        <ele>1615</ele>
        <time>2021-08-13T08:36:29.190Z</time>
      </trkpt>
      <trkpt lat="46.83559" lon="8.4209">
        <ele>1615</ele>
        <time>2021-08-13T08:36:30.190Z</time>
      </trkpt>
      <trkpt lat="46.83558" lon="8.42089">
        <ele>1614</ele>
        <time>2021-08-13T08:36:31.190Z</time>
      </trkpt>
      <trkpt lat="46.83557" lon="8.42088">
        <ele>1614</ele>
        <time>2021-08-13T08:36:32.190Z</time>
      </trkpt>
      <trkpt lat="46.83556" lon="8.42087">
        <ele>1614</ele>
        <time>2021-08-13T08:36:33.189Z</time>
      </trkpt>
      <trkpt lat="46.83556" lon="8.42087">
        <ele>1613</ele>
        <time>2021-08-13T08:36:34.189Z</time>
      </trkpt>
      <trkpt lat="46.83555" lon="8.42087">
        <ele>1613</ele>
        <time>2021-08-13T08:36:35.190Z</time>
      </trkpt>
      <trkpt lat="46.83555" lon="8.42087">
        <ele>1613</ele>
        <time>2021-08-13T08:36:36.190Z</time>
      </trkpt>
      <trkpt lat="46.83554" lon="8.42087">
        <ele>1613</ele>
        <time>2021-08-13T08:36:37.190Z</time>
      </trkpt>
      <trkpt lat="46.83553" lon="8.42086">
        <ele>1613</ele>
        <time>2021-08-13T08:36:38.189Z</time>
      </trkpt>
      <trkpt lat="46.83552" lon="8.42085">
        <ele>1613</ele>
        <time>2021-08-13T08:36:39.190Z</time>
      </trkpt>
      <trkpt lat="46.83552" lon="8.42085">
        <ele>1613</ele>
        <time>2021-08-13T08:36:40.190Z</time>
      </trkpt>
      <trkpt lat="46.83552" lon="8.42085">
        <ele>1613</ele>
        <time>2021-08-13T08:36:41.189Z</time>
      </trkpt>
      <trkpt lat="46.83552" lon="8.42085">
        <ele>1610</ele>
        <time>2021-08-13T08:36:42.190Z</time>
      </trkpt>
      <trkpt lat="46.83552" lon="8.42085">
        <ele>1612</ele>
        <time>2021-08-13T08:36:43.190Z</time>
      </trkpt>
      <trkpt lat="46.83551" lon="8.42086">
        <ele>1612</ele>
        <time>2021-08-13T08:36:44.190Z</time>
      </trkpt>
      <trkpt lat="46.83551" lon="8.42086">
        <ele>1612</ele>
        <time>2021-08-13T08:36:45.190Z</time>
      </trkpt>
      <trkpt lat="46.83551" lon="8.42085">
        <ele>1612</ele>
        <time>2021-08-13T08:36:46.190Z</time>
      </trkpt>
      <trkpt lat="46.8355" lon="8.42085">
        <ele>1612</ele>
        <time>2021-08-13T08:36:47.189Z</time>
      </trkpt>
      <trkpt lat="46.83549" lon="8.42084">
        <ele>1613</ele>
        <time>2021-08-13T08:36:48.190Z</time>
      </trkpt>
      <trkpt lat="46.83548" lon="8.42083">
        <ele>1613</ele>
        <time>2021-08-13T08:36:49.190Z</time>
      </trkpt>
      <trkpt lat="46.83547" lon="8.42082">
        <ele>1613</ele>
        <time>2021-08-13T08:36:50.189Z</time>
      </trkpt>
      <trkpt lat="46.83546" lon="8.42081">
        <ele>1613</ele>
        <time>2021-08-13T08:36:51.189Z</time>
      </trkpt>
      <trkpt lat="46.83546" lon="8.4208">
        <ele>1613</ele>
        <time>2021-08-13T08:36:52.190Z</time>
      </trkpt>
      <trkpt lat="46.83545" lon="8.42079">
        <ele>1614</ele>
        <time>2021-08-13T08:36:53.190Z</time>
      </trkpt>
      <trkpt lat="46.83544" lon="8.42078">
        <ele>1614</ele>
        <time>2021-08-13T08:36:54.190Z</time>
      </trkpt>
      <trkpt lat="46.83542" lon="8.42077">
        <ele>1614</ele>
        <time>2021-08-13T08:36:55.190Z</time>
      </trkpt>
      <trkpt lat="46.83542" lon="8.42077">
        <ele>1614</ele>
        <time>2021-08-13T08:36:56.189Z</time>
      </trkpt>
      <trkpt lat="46.83541" lon="8.42076">
        <ele>1614</ele>
        <time>2021-08-13T08:36:57.190Z</time>
      </trkpt>
      <trkpt lat="46.8354" lon="8.42076">
        <ele>1613</ele>
        <time>2021-08-13T08:36:58.190Z</time>
      </trkpt>
      <trkpt lat="46.8354" lon="8.42075">
        <ele>1612</ele>
        <time>2021-08-13T08:36:59.190Z</time>
      </trkpt>
      <trkpt lat="46.8354" lon="8.42074">
        <ele>1612</ele>
        <time>2021-08-13T08:37:00.190Z</time>
      </trkpt>
      <trkpt lat="46.8354" lon="8.42074">
        <ele>1611</ele>
        <time>2021-08-13T08:37:01.190Z</time>
      </trkpt>
      <trkpt lat="46.8354" lon="8.42075">
        <ele>1610</ele>
        <time>2021-08-13T08:37:02.190Z</time>
      </trkpt>
      <trkpt lat="46.83539" lon="8.42075">
        <ele>1610</ele>
        <time>2021-08-13T08:37:03.190Z</time>
      </trkpt>
      <trkpt lat="46.83538" lon="8.42075">
        <ele>1610</ele>
        <time>2021-08-13T08:37:04.190Z</time>
      </trkpt>
      <trkpt lat="46.83538" lon="8.42075">
        <ele>1609</ele>
        <time>2021-08-13T08:37:05.190Z</time>
      </trkpt>
      <trkpt lat="46.83537" lon="8.42075">
        <ele>1609</ele>
        <time>2021-08-13T08:37:06.189Z</time>
      </trkpt>
      <trkpt lat="46.83536" lon="8.42075">
        <ele>1609</ele>
        <time>2021-08-13T08:37:07.189Z</time>
      </trkpt>
      <trkpt lat="46.83536" lon="8.42074">
        <ele>1608</ele>
        <time>2021-08-13T08:37:08.190Z</time>
      </trkpt>
      <trkpt lat="46.83535" lon="8.42074">
        <ele>1608</ele>
        <time>2021-08-13T08:37:09.190Z</time>
      </trkpt>
      <trkpt lat="46.83533" lon="8.42073">
        <ele>1609</ele>
        <time>2021-08-13T08:37:10.189Z</time>
      </trkpt>
      <trkpt lat="46.83533" lon="8.42072">
        <ele>1609</ele>
        <time>2021-08-13T08:37:11.189Z</time>
      </trkpt>
      <trkpt lat="46.83533" lon="8.42072">
        <ele>1609</ele>
        <time>2021-08-13T08:37:12.190Z</time>
      </trkpt>
      <trkpt lat="46.83532" lon="8.42073">
        <ele>1609</ele>
        <time>2021-08-13T08:37:13.189Z</time>
      </trkpt>
      <trkpt lat="46.83532" lon="8.42073">
        <ele>1608</ele>
        <time>2021-08-13T08:37:14.190Z</time>
      </trkpt>
      <trkpt lat="46.83532" lon="8.42073">
        <ele>1608</ele>
        <time>2021-08-13T08:37:15.190Z</time>
      </trkpt>
      <trkpt lat="46.83531" lon="8.42072">
        <ele>1608</ele>
        <time>2021-08-13T08:37:16.189Z</time>
      </trkpt>
      <trkpt lat="46.83531" lon="8.42072">
        <ele>1608</ele>
        <time>2021-08-13T08:37:17.190Z</time>
      </trkpt>
      <trkpt lat="46.8353" lon="8.42072">
        <ele>1607</ele>
        <time>2021-08-13T08:37:18.190Z</time>
      </trkpt>
      <trkpt lat="46.83529" lon="8.42071">
        <ele>1607</ele>
        <time>2021-08-13T08:37:19.190Z</time>
      </trkpt>
      <trkpt lat="46.83528" lon="8.4207">
        <ele>1606</ele>
        <time>2021-08-13T08:37:20.189Z</time>
      </trkpt>
      <trkpt lat="46.83528" lon="8.4207">
        <ele>1606</ele>
        <time>2021-08-13T08:37:21.190Z</time>
      </trkpt>
      <trkpt lat="46.83527" lon="8.4207">
        <ele>1606</ele>
        <time>2021-08-13T08:37:22.189Z</time>
      </trkpt>
      <trkpt lat="46.83527" lon="8.42069">
        <ele>1605</ele>
        <time>2021-08-13T08:37:23.189Z</time>
      </trkpt>
      <trkpt lat="46.83527" lon="8.42069">
        <ele>1604</ele>
        <time>2021-08-13T08:37:24.190Z</time>
      </trkpt>
      <trkpt lat="46.83526" lon="8.42068">
        <ele>1604</ele>
        <time>2021-08-13T08:37:25.189Z</time>
      </trkpt>
      <trkpt lat="46.83525" lon="8.42067">
        <ele>1604</ele>
        <time>2021-08-13T08:37:26.190Z</time>
      </trkpt>
      <trkpt lat="46.83525" lon="8.42066">
        <ele>1603</ele>
        <time>2021-08-13T08:37:27.190Z</time>
      </trkpt>
      <trkpt lat="46.83524" lon="8.42065">
        <ele>1603</ele>
        <time>2021-08-13T08:37:28.189Z</time>
      </trkpt>
      <trkpt lat="46.83523" lon="8.42065">
        <ele>1602</ele>
        <time>2021-08-13T08:37:29.190Z</time>
      </trkpt>
      <trkpt lat="46.83522" lon="8.42064">
        <ele>1602</ele>
        <time>2021-08-13T08:37:30.190Z</time>
      </trkpt>
      <trkpt lat="46.83521" lon="8.42063">
        <ele>1602</ele>
        <time>2021-08-13T08:37:31.190Z</time>
      </trkpt>
      <trkpt lat="46.83521" lon="8.42063">
        <ele>1602</ele>
        <time>2021-08-13T08:37:32.190Z</time>
      </trkpt>
      <trkpt lat="46.83521" lon="8.42062">
        <ele>1602</ele>
        <time>2021-08-13T08:37:33.190Z</time>
      </trkpt>
      <trkpt lat="46.8352" lon="8.42061">
        <ele>1602</ele>
        <time>2021-08-13T08:37:34.190Z</time>
      </trkpt>
      <trkpt lat="46.8352" lon="8.4206">
        <ele>1602</ele>
        <time>2021-08-13T08:37:35.189Z</time>
      </trkpt>
      <trkpt lat="46.83519" lon="8.42059">
        <ele>1602</ele>
        <time>2021-08-13T08:37:36.189Z</time>
      </trkpt>
      <trkpt lat="46.83518" lon="8.42058">
        <ele>1602</ele>
        <time>2021-08-13T08:37:37.190Z</time>
      </trkpt>
      <trkpt lat="46.83517" lon="8.42058">
        <ele>1602</ele>
        <time>2021-08-13T08:37:38.190Z</time>
      </trkpt>
      <trkpt lat="46.83516" lon="8.42059">
        <ele>1602</ele>
        <time>2021-08-13T08:37:39.189Z</time>
      </trkpt>
      <trkpt lat="46.83515" lon="8.42059">
        <ele>1602</ele>
        <time>2021-08-13T08:37:40.190Z</time>
      </trkpt>
      <trkpt lat="46.83515" lon="8.42061">
        <ele>1603</ele>
        <time>2021-08-13T08:37:41.190Z</time>
      </trkpt>
      <trkpt lat="46.83515" lon="8.42062">
        <ele>1603</ele>
        <time>2021-08-13T08:37:42.189Z</time>
      </trkpt>
      <trkpt lat="46.83515" lon="8.42063">
        <ele>1602</ele>
        <time>2021-08-13T08:37:43.190Z</time>
      </trkpt>
      <trkpt lat="46.83516" lon="8.42065">
        <ele>1602</ele>
        <time>2021-08-13T08:37:44.190Z</time>
      </trkpt>
      <trkpt lat="46.83516" lon="8.42066">
        <ele>1602</ele>
        <time>2021-08-13T08:37:45.190Z</time>
      </trkpt>
      <trkpt lat="46.83516" lon="8.42068">
        <ele>1601</ele>
        <time>2021-08-13T08:37:46.190Z</time>
      </trkpt>
      <trkpt lat="46.83517" lon="8.4207">
        <ele>1601</ele>
        <time>2021-08-13T08:37:47.190Z</time>
      </trkpt>
      <trkpt lat="46.83517" lon="8.42071">
        <ele>1601</ele>
        <time>2021-08-13T08:37:48.190Z</time>
      </trkpt>
      <trkpt lat="46.83517" lon="8.42073">
        <ele>1601</ele>
        <time>2021-08-13T08:37:49.189Z</time>
      </trkpt>
      <trkpt lat="46.83517" lon="8.42074">
        <ele>1601</ele>
        <time>2021-08-13T08:37:50.190Z</time>
      </trkpt>
      <trkpt lat="46.83517" lon="8.42076">
        <ele>1600</ele>
        <time>2021-08-13T08:37:51.189Z</time>
      </trkpt>
      <trkpt lat="46.83517" lon="8.42077">
        <ele>1600</ele>
        <time>2021-08-13T08:37:52.190Z</time>
      </trkpt>
      <trkpt lat="46.83517" lon="8.42078">
        <ele>1600</ele>
        <time>2021-08-13T08:37:53.190Z</time>
      </trkpt>
      <trkpt lat="46.83517" lon="8.4208">
        <ele>1599</ele>
        <time>2021-08-13T08:37:54.189Z</time>
      </trkpt>
      <trkpt lat="46.83517" lon="8.42081">
        <ele>1599</ele>
        <time>2021-08-13T08:37:55.189Z</time>
      </trkpt>
      <trkpt lat="46.83517" lon="8.42083">
        <ele>1599</ele>
        <time>2021-08-13T08:37:56.190Z</time>
      </trkpt>
      <trkpt lat="46.83517" lon="8.42084">
        <ele>1599</ele>
        <time>2021-08-13T08:37:57.189Z</time>
      </trkpt>
      <trkpt lat="46.83517" lon="8.42085">
        <ele>1598</ele>
        <time>2021-08-13T08:37:58.190Z</time>
      </trkpt>
      <trkpt lat="46.83517" lon="8.42086">
        <ele>1598</ele>
        <time>2021-08-13T08:37:59.190Z</time>
      </trkpt>
      <trkpt lat="46.83517" lon="8.42088">
        <ele>1597</ele>
        <time>2021-08-13T08:38:00.189Z</time>
      </trkpt>
      <trkpt lat="46.83517" lon="8.42089">
        <ele>1596</ele>
        <time>2021-08-13T08:38:01.189Z</time>
      </trkpt>
      <trkpt lat="46.83516" lon="8.42089">
        <ele>1596</ele>
        <time>2021-08-13T08:38:02.190Z</time>
      </trkpt>
      <trkpt lat="46.83516" lon="8.4209">
        <ele>1596</ele>
        <time>2021-08-13T08:38:03.189Z</time>
      </trkpt>
      <trkpt lat="46.83515" lon="8.42091">
        <ele>1596</ele>
        <time>2021-08-13T08:38:04.189Z</time>
      </trkpt>
      <trkpt lat="46.83515" lon="8.42092">
        <ele>1596</ele>
        <time>2021-08-13T08:38:05.190Z</time>
      </trkpt>
      <trkpt lat="46.83514" lon="8.42093">
        <ele>1596</ele>
        <time>2021-08-13T08:38:06.189Z</time>
      </trkpt>
      <trkpt lat="46.83514" lon="8.42094">
        <ele>1595</ele>
        <time>2021-08-13T08:38:07.189Z</time>
      </trkpt>
      <trkpt lat="46.83514" lon="8.42095">
        <ele>1595</ele>
        <time>2021-08-13T08:38:08.189Z</time>
      </trkpt>
      <trkpt lat="46.83514" lon="8.42096">
        <ele>1595</ele>
        <time>2021-08-13T08:38:09.189Z</time>
      </trkpt>
      <trkpt lat="46.83513" lon="8.42097">
        <ele>1594</ele>
        <time>2021-08-13T08:38:10.189Z</time>
      </trkpt>
      <trkpt lat="46.83513" lon="8.42099">
        <ele>1594</ele>
        <time>2021-08-13T08:38:11.189Z</time>
      </trkpt>
      <trkpt lat="46.83513" lon="8.421">
        <ele>1594</ele>
        <time>2021-08-13T08:38:12.190Z</time>
      </trkpt>
      <trkpt lat="46.83513" lon="8.42102">
        <ele>1594</ele>
        <time>2021-08-13T08:38:13.189Z</time>
      </trkpt>
      <trkpt lat="46.83512" lon="8.42103">
        <ele>1593</ele>
        <time>2021-08-13T08:38:14.190Z</time>
      </trkpt>
      <trkpt lat="46.83512" lon="8.42105">
        <ele>1593</ele>
        <time>2021-08-13T08:38:15.190Z</time>
      </trkpt>
      <trkpt lat="46.83513" lon="8.42107">
        <ele>1593</ele>
        <time>2021-08-13T08:38:16.189Z</time>
      </trkpt>
      <trkpt lat="46.83513" lon="8.42108">
        <ele>1593</ele>
        <time>2021-08-13T08:38:17.190Z</time>
      </trkpt>
      <trkpt lat="46.83513" lon="8.4211">
        <ele>1593</ele>
        <time>2021-08-13T08:38:18.190Z</time>
      </trkpt>
      <trkpt lat="46.83514" lon="8.42112">
        <ele>1592</ele>
        <time>2021-08-13T08:38:19.189Z</time>
      </trkpt>
      <trkpt lat="46.83514" lon="8.42113">
        <ele>1592</ele>
        <time>2021-08-13T08:38:20.189Z</time>
      </trkpt>
      <trkpt lat="46.83514" lon="8.42115">
        <ele>1592</ele>
        <time>2021-08-13T08:38:21.189Z</time>
      </trkpt>
      <trkpt lat="46.83514" lon="8.42117">
        <ele>1592</ele>
        <time>2021-08-13T08:38:22.190Z</time>
      </trkpt>
      <trkpt lat="46.83515" lon="8.42118">
        <ele>1591</ele>
        <time>2021-08-13T08:38:23.190Z</time>
      </trkpt>
      <trkpt lat="46.83515" lon="8.4212">
        <ele>1591</ele>
        <time>2021-08-13T08:38:24.190Z</time>
      </trkpt>
      <trkpt lat="46.83515" lon="8.42121">
        <ele>1591</ele>
        <time>2021-08-13T08:38:25.189Z</time>
      </trkpt>
      <trkpt lat="46.83515" lon="8.42123">
        <ele>1591</ele>
        <time>2021-08-13T08:38:26.190Z</time>
      </trkpt>
      <trkpt lat="46.83516" lon="8.42125">
        <ele>1590</ele>
        <time>2021-08-13T08:38:27.190Z</time>
      </trkpt>
      <trkpt lat="46.83516" lon="8.42127">
        <ele>1590</ele>
        <time>2021-08-13T08:38:28.190Z</time>
      </trkpt>
      <trkpt lat="46.83516" lon="8.42129">
        <ele>1590</ele>
        <time>2021-08-13T08:38:29.190Z</time>
      </trkpt>
      <trkpt lat="46.83516" lon="8.42131">
        <ele>1590</ele>
        <time>2021-08-13T08:38:30.190Z</time>
      </trkpt>
      <trkpt lat="46.83516" lon="8.42133">
        <ele>1590</ele>
        <time>2021-08-13T08:38:31.190Z</time>
      </trkpt>
      <trkpt lat="46.83516" lon="8.42134">
        <ele>1589</ele>
        <time>2021-08-13T08:38:32.189Z</time>
      </trkpt>
      <trkpt lat="46.83516" lon="8.42136">
        <ele>1589</ele>
        <time>2021-08-13T08:38:33.189Z</time>
      </trkpt>
      <trkpt lat="46.83516" lon="8.42138">
        <ele>1589</ele>
        <time>2021-08-13T08:38:34.190Z</time>
      </trkpt>
      <trkpt lat="46.83516" lon="8.42139">
        <ele>1589</ele>
        <time>2021-08-13T08:38:35.190Z</time>
      </trkpt>
      <trkpt lat="46.83516" lon="8.42141">
        <ele>1588</ele>
        <time>2021-08-13T08:38:36.190Z</time>
      </trkpt>
      <trkpt lat="46.83516" lon="8.42142">
        <ele>1588</ele>
        <time>2021-08-13T08:38:37.190Z</time>
      </trkpt>
      <trkpt lat="46.83516" lon="8.42143">
        <ele>1588</ele>
        <time>2021-08-13T08:38:38.189Z</time>
      </trkpt>
      <trkpt lat="46.83515" lon="8.42145">
        <ele>1588</ele>
        <time>2021-08-13T08:38:39.189Z</time>
      </trkpt>
      <trkpt lat="46.83514" lon="8.42146">
        <ele>1588</ele>
        <time>2021-08-13T08:38:40.190Z</time>
      </trkpt>
      <trkpt lat="46.83513" lon="8.42148">
        <ele>1588</ele>
        <time>2021-08-13T08:38:41.190Z</time>
      </trkpt>
      <trkpt lat="46.83513" lon="8.42149">
        <ele>1589</ele>
        <time>2021-08-13T08:38:42.190Z</time>
      </trkpt>
      <trkpt lat="46.83512" lon="8.4215">
        <ele>1588</ele>
        <time>2021-08-13T08:38:43.190Z</time>
      </trkpt>
      <trkpt lat="46.83511" lon="8.42152">
        <ele>1588</ele>
        <time>2021-08-13T08:38:44.190Z</time>
      </trkpt>
      <trkpt lat="46.8351" lon="8.42153">
        <ele>1588</ele>
        <time>2021-08-13T08:38:45.190Z</time>
      </trkpt>
      <trkpt lat="46.83509" lon="8.42155">
        <ele>1588</ele>
        <time>2021-08-13T08:38:46.190Z</time>
      </trkpt>
      <trkpt lat="46.83509" lon="8.42156">
        <ele>1588</ele>
        <time>2021-08-13T08:38:47.189Z</time>
      </trkpt>
      <trkpt lat="46.83508" lon="8.42157">
        <ele>1588</ele>
        <time>2021-08-13T08:38:48.189Z</time>
      </trkpt>
      <trkpt lat="46.83507" lon="8.42158">
        <ele>1588</ele>
        <time>2021-08-13T08:38:49.190Z</time>
      </trkpt>
      <trkpt lat="46.83507" lon="8.4216">
        <ele>1589</ele>
        <time>2021-08-13T08:38:50.190Z</time>
      </trkpt>
      <trkpt lat="46.83506" lon="8.42161">
        <ele>1589</ele>
        <time>2021-08-13T08:38:51.189Z</time>
      </trkpt>
      <trkpt lat="46.83505" lon="8.42162">
        <ele>1589</ele>
        <time>2021-08-13T08:38:52.190Z</time>
      </trkpt>
      <trkpt lat="46.83505" lon="8.42162">
        <ele>1589</ele>
        <time>2021-08-13T08:38:53.190Z</time>
      </trkpt>
      <trkpt lat="46.83504" lon="8.42163">
        <ele>1589</ele>
        <time>2021-08-13T08:38:54.190Z</time>
      </trkpt>
      <trkpt lat="46.83503" lon="8.42163">
        <ele>1589</ele>
        <time>2021-08-13T08:38:55.190Z</time>
      </trkpt>
      <trkpt lat="46.83503" lon="8.42163">
        <ele>1589</ele>
        <time>2021-08-13T08:38:56.190Z</time>
      </trkpt>
      <trkpt lat="46.83503" lon="8.42163">
        <ele>1589</ele>
        <time>2021-08-13T08:38:57.190Z</time>
      </trkpt>
      <trkpt lat="46.83501" lon="8.42162">
        <ele>1590</ele>
        <time>2021-08-13T08:38:58.190Z</time>
      </trkpt>
      <trkpt lat="46.835" lon="8.42161">
        <ele>1590</ele>
        <time>2021-08-13T08:38:59.190Z</time>
      </trkpt>
      <trkpt lat="46.835" lon="8.42162">
        <ele>1589</ele>
        <time>2021-08-13T08:39:00.189Z</time>
      </trkpt>
      <trkpt lat="46.83499" lon="8.42162">
        <ele>1589</ele>
        <time>2021-08-13T08:39:01.189Z</time>
      </trkpt>
      <trkpt lat="46.835" lon="8.42163">
        <ele>1588</ele>
        <time>2021-08-13T08:39:02.192Z</time>
      </trkpt>
      <trkpt lat="46.835" lon="8.42163">
        <ele>1588</ele>
        <time>2021-08-13T08:39:03.192Z</time>
      </trkpt>
      <trkpt lat="46.83501" lon="8.42164">
        <ele>1589</ele>
        <time>2021-08-13T08:39:04.192Z</time>
      </trkpt>
      <trkpt lat="46.83503" lon="8.42165">
        <ele>1589</ele>
        <time>2021-08-13T08:39:05.192Z</time>
      </trkpt>
      <trkpt lat="46.83503" lon="8.42165">
        <ele>1589</ele>
        <time>2021-08-13T08:39:06.192Z</time>
      </trkpt>
      <trkpt lat="46.83503" lon="8.42166">
        <ele>1589</ele>
        <time>2021-08-13T08:39:07.191Z</time>
      </trkpt>
      <trkpt lat="46.83502" lon="8.42167">
        <ele>1592</ele>
        <time>2021-08-13T08:39:08.192Z</time>
      </trkpt>
      <trkpt lat="46.83502" lon="8.42166">
        <ele>1592</ele>
        <time>2021-08-13T08:39:09.192Z</time>
      </trkpt>
      <trkpt lat="46.83503" lon="8.42166">
        <ele>1592</ele>
        <time>2021-08-13T08:39:10.191Z</time>
      </trkpt>
      <trkpt lat="46.83503" lon="8.42166">
        <ele>1593</ele>
        <time>2021-08-13T08:39:11.192Z</time>
      </trkpt>
      <trkpt lat="46.83504" lon="8.42165">
        <ele>1593</ele>
        <time>2021-08-13T08:39:12.192Z</time>
      </trkpt>
      <trkpt lat="46.835" lon="8.4216">
        <ele>1601</ele>
        <time>2021-08-13T08:39:13.193Z</time>
      </trkpt>
      <trkpt lat="46.835" lon="8.42159">
        <ele>1601</ele>
        <time>2021-08-13T08:39:14.193Z</time>
      </trkpt>
      <trkpt lat="46.83502" lon="8.4216">
        <ele>1599</ele>
        <time>2021-08-13T08:39:15.192Z</time>
      </trkpt>
      <trkpt lat="46.83502" lon="8.42161">
        <ele>1598</ele>
        <time>2021-08-13T08:39:16.193Z</time>
      </trkpt>
      <trkpt lat="46.83502" lon="8.42162">
        <ele>1597</ele>
        <time>2021-08-13T08:39:17.192Z</time>
      </trkpt>
      <trkpt lat="46.83505" lon="8.42163">
        <ele>1582</ele>
        <time>2021-08-13T08:39:18.194Z</time>
      </trkpt>
      <trkpt lat="46.83506" lon="8.42162">
        <ele>1583</ele>
        <time>2021-08-13T08:39:19.193Z</time>
      </trkpt>
      <trkpt lat="46.83506" lon="8.42162">
        <ele>1583</ele>
        <time>2021-08-13T08:39:20.193Z</time>
      </trkpt>
      <trkpt lat="46.83506" lon="8.42162">
        <ele>1587</ele>
        <time>2021-08-13T08:39:21.195Z</time>
      </trkpt>
      <trkpt lat="46.83503" lon="8.42163">
        <ele>1590</ele>
        <time>2021-08-13T08:39:22.196Z</time>
      </trkpt>
      <trkpt lat="46.83503" lon="8.42163">
        <ele>1590</ele>
        <time>2021-08-13T08:39:23.195Z</time>
      </trkpt>
      <trkpt lat="46.83502" lon="8.42164">
        <ele>1590</ele>
        <time>2021-08-13T08:39:24.195Z</time>
      </trkpt>
      <trkpt lat="46.83503" lon="8.42168">
        <ele>1589</ele>
        <time>2021-08-13T08:39:25.196Z</time>
      </trkpt>
      <trkpt lat="46.83502" lon="8.42167">
        <ele>1589</ele>
        <time>2021-08-13T08:39:26.197Z</time>
      </trkpt>
      <trkpt lat="46.83501" lon="8.42167">
        <ele>1589</ele>
        <time>2021-08-13T08:39:27.196Z</time>
      </trkpt>
      <trkpt lat="46.83501" lon="8.42166">
        <ele>1589</ele>
        <time>2021-08-13T08:39:28.197Z</time>
      </trkpt>
      <trkpt lat="46.83499" lon="8.42166">
        <ele>1589</ele>
        <time>2021-08-13T08:39:29.197Z</time>
      </trkpt>
      <trkpt lat="46.83498" lon="8.42166">
        <ele>1589</ele>
        <time>2021-08-13T08:39:30.197Z</time>
      </trkpt>
      <trkpt lat="46.83497" lon="8.42166">
        <ele>1589</ele>
        <time>2021-08-13T08:39:31.197Z</time>
      </trkpt>
      <trkpt lat="46.83497" lon="8.42166">
        <ele>1588</ele>
        <time>2021-08-13T08:39:32.197Z</time>
      </trkpt>
      <trkpt lat="46.83496" lon="8.42166">
        <ele>1588</ele>
        <time>2021-08-13T08:39:33.197Z</time>
      </trkpt>
      <trkpt lat="46.83494" lon="8.42165">
        <ele>1588</ele>
        <time>2021-08-13T08:39:34.197Z</time>
      </trkpt>
      <trkpt lat="46.83493" lon="8.42165">
        <ele>1588</ele>
        <time>2021-08-13T08:39:35.197Z</time>
      </trkpt>
      <trkpt lat="46.83491" lon="8.42164">
        <ele>1588</ele>
        <time>2021-08-13T08:39:36.197Z</time>
      </trkpt>
      <trkpt lat="46.8349" lon="8.42164">
        <ele>1588</ele>
        <time>2021-08-13T08:39:37.197Z</time>
      </trkpt>
      <trkpt lat="46.83488" lon="8.42164">
        <ele>1589</ele>
        <time>2021-08-13T08:39:38.196Z</time>
      </trkpt>
      <trkpt lat="46.83487" lon="8.42164">
        <ele>1589</ele>
        <time>2021-08-13T08:39:39.196Z</time>
      </trkpt>
      <trkpt lat="46.83486" lon="8.42165">
        <ele>1589</ele>
        <time>2021-08-13T08:39:40.197Z</time>
      </trkpt>
      <trkpt lat="46.83485" lon="8.42165">
        <ele>1589</ele>
        <time>2021-08-13T08:39:41.196Z</time>
      </trkpt>
      <trkpt lat="46.83484" lon="8.42165">
        <ele>1588</ele>
        <time>2021-08-13T08:39:42.197Z</time>
      </trkpt>
      <trkpt lat="46.83483" lon="8.42166">
        <ele>1588</ele>
        <time>2021-08-13T08:39:43.197Z</time>
      </trkpt>
      <trkpt lat="46.83482" lon="8.42165">
        <ele>1587</ele>
        <time>2021-08-13T08:39:44.197Z</time>
      </trkpt>
      <trkpt lat="46.83481" lon="8.42165">
        <ele>1587</ele>
        <time>2021-08-13T08:39:45.197Z</time>
      </trkpt>
      <trkpt lat="46.8348" lon="8.42166">
        <ele>1587</ele>
        <time>2021-08-13T08:39:46.197Z</time>
      </trkpt>
      <trkpt lat="46.8348" lon="8.42166">
        <ele>1586</ele>
        <time>2021-08-13T08:39:47.196Z</time>
      </trkpt>
      <trkpt lat="46.83479" lon="8.42166">
        <ele>1586</ele>
        <time>2021-08-13T08:39:48.197Z</time>
      </trkpt>
      <trkpt lat="46.83479" lon="8.42166">
        <ele>1586</ele>
        <time>2021-08-13T08:39:49.197Z</time>
      </trkpt>
      <trkpt lat="46.83476" lon="8.42165">
        <ele>1587</ele>
        <time>2021-08-13T08:39:50.196Z</time>
      </trkpt>
      <trkpt lat="46.83475" lon="8.42164">
        <ele>1587</ele>
        <time>2021-08-13T08:39:51.196Z</time>
      </trkpt>
      <trkpt lat="46.83474" lon="8.42164">
        <ele>1587</ele>
        <time>2021-08-13T08:39:52.196Z</time>
      </trkpt>
      <trkpt lat="46.83473" lon="8.42164">
        <ele>1587</ele>
        <time>2021-08-13T08:39:53.197Z</time>
      </trkpt>
      <trkpt lat="46.83473" lon="8.42164">
        <ele>1587</ele>
        <time>2021-08-13T08:39:54.197Z</time>
      </trkpt>
      <trkpt lat="46.83472" lon="8.42163">
        <ele>1587</ele>
        <time>2021-08-13T08:39:55.197Z</time>
      </trkpt>
      <trkpt lat="46.83472" lon="8.42163">
        <ele>1587</ele>
        <time>2021-08-13T08:39:56.197Z</time>
      </trkpt>
      <trkpt lat="46.83473" lon="8.42163">
        <ele>1587</ele>
        <time>2021-08-13T08:39:57.198Z</time>
      </trkpt>
      <trkpt lat="46.83472" lon="8.42163">
        <ele>1587</ele>
        <time>2021-08-13T08:39:58.198Z</time>
      </trkpt>
      <trkpt lat="46.83472" lon="8.42164">
        <ele>1587</ele>
        <time>2021-08-13T08:39:59.197Z</time>
      </trkpt>
      <trkpt lat="46.83471" lon="8.42165">
        <ele>1587</ele>
        <time>2021-08-13T08:40:00.197Z</time>
      </trkpt>
      <trkpt lat="46.83469" lon="8.42165">
        <ele>1587</ele>
        <time>2021-08-13T08:40:01.197Z</time>
      </trkpt>
      <trkpt lat="46.83469" lon="8.42165">
        <ele>1587</ele>
        <time>2021-08-13T08:40:02.198Z</time>
      </trkpt>
      <trkpt lat="46.83468" lon="8.42166">
        <ele>1587</ele>
        <time>2021-08-13T08:40:03.198Z</time>
      </trkpt>
      <trkpt lat="46.83467" lon="8.42166">
        <ele>1586</ele>
        <time>2021-08-13T08:40:04.197Z</time>
      </trkpt>
      <trkpt lat="46.83466" lon="8.42166">
        <ele>1587</ele>
        <time>2021-08-13T08:40:05.197Z</time>
      </trkpt>
      <trkpt lat="46.83465" lon="8.42167">
        <ele>1587</ele>
        <time>2021-08-13T08:40:06.197Z</time>
      </trkpt>
      <trkpt lat="46.83464" lon="8.42168">
        <ele>1587</ele>
        <time>2021-08-13T08:40:07.198Z</time>
      </trkpt>
      <trkpt lat="46.83463" lon="8.42168">
        <ele>1587</ele>
        <time>2021-08-13T08:40:08.198Z</time>
      </trkpt>
      <trkpt lat="46.83462" lon="8.42169">
        <ele>1587</ele>
        <time>2021-08-13T08:40:09.197Z</time>
      </trkpt>
      <trkpt lat="46.8346" lon="8.42169">
        <ele>1587</ele>
        <time>2021-08-13T08:40:10.197Z</time>
      </trkpt>
      <trkpt lat="46.8346" lon="8.42169">
        <ele>1587</ele>
        <time>2021-08-13T08:40:11.197Z</time>
      </trkpt>
      <trkpt lat="46.83459" lon="8.42169">
        <ele>1587</ele>
        <time>2021-08-13T08:40:12.197Z</time>
      </trkpt>
      <trkpt lat="46.83458" lon="8.42168">
        <ele>1587</ele>
        <time>2021-08-13T08:40:13.197Z</time>
      </trkpt>
      <trkpt lat="46.83458" lon="8.42168">
        <ele>1587</ele>
        <time>2021-08-13T08:40:14.197Z</time>
      </trkpt>
      <trkpt lat="46.83458" lon="8.42167">
        <ele>1587</ele>
        <time>2021-08-13T08:40:15.197Z</time>
      </trkpt>
      <trkpt lat="46.83458" lon="8.42166">
        <ele>1587</ele>
        <time>2021-08-13T08:40:16.197Z</time>
      </trkpt>
      <trkpt lat="46.83458" lon="8.42165">
        <ele>1587</ele>
        <time>2021-08-13T08:40:17.197Z</time>
      </trkpt>
      <trkpt lat="46.83458" lon="8.42164">
        <ele>1587</ele>
        <time>2021-08-13T08:40:18.197Z</time>
      </trkpt>
      <trkpt lat="46.83459" lon="8.42163">
        <ele>1587</ele>
        <time>2021-08-13T08:40:19.197Z</time>
      </trkpt>
      <trkpt lat="46.8346" lon="8.42163">
        <ele>1587</ele>
        <time>2021-08-13T08:40:20.197Z</time>
      </trkpt>
      <trkpt lat="46.83461" lon="8.42162">
        <ele>1586</ele>
        <time>2021-08-13T08:40:21.197Z</time>
      </trkpt>
      <trkpt lat="46.83461" lon="8.42162">
        <ele>1585</ele>
        <time>2021-08-13T08:40:22.197Z</time>
      </trkpt>
      <trkpt lat="46.83462" lon="8.42162">
        <ele>1585</ele>
        <time>2021-08-13T08:40:23.197Z</time>
      </trkpt>
      <trkpt lat="46.83462" lon="8.42162">
        <ele>1584</ele>
        <time>2021-08-13T08:40:24.198Z</time>
      </trkpt>
      <trkpt lat="46.83462" lon="8.42161">
        <ele>1584</ele>
        <time>2021-08-13T08:40:25.197Z</time>
      </trkpt>
      <trkpt lat="46.83463" lon="8.42159">
        <ele>1583</ele>
        <time>2021-08-13T08:40:26.198Z</time>
      </trkpt>
      <trkpt lat="46.83463" lon="8.42158">
        <ele>1582</ele>
        <time>2021-08-13T08:40:27.197Z</time>
      </trkpt>
      <trkpt lat="46.83464" lon="8.42156">
        <ele>1582</ele>
        <time>2021-08-13T08:40:28.198Z</time>
      </trkpt>
      <trkpt lat="46.83465" lon="8.42155">
        <ele>1581</ele>
        <time>2021-08-13T08:40:29.198Z</time>
      </trkpt>
      <trkpt lat="46.83466" lon="8.42153">
        <ele>1581</ele>
        <time>2021-08-13T08:40:30.198Z</time>
      </trkpt>
      <trkpt lat="46.83467" lon="8.42152">
        <ele>1581</ele>
        <time>2021-08-13T08:40:31.198Z</time>
      </trkpt>
      <trkpt lat="46.83468" lon="8.42151">
        <ele>1581</ele>
        <time>2021-08-13T08:40:32.198Z</time>
      </trkpt>
      <trkpt lat="46.83469" lon="8.4215">
        <ele>1581</ele>
        <time>2021-08-13T08:40:33.198Z</time>
      </trkpt>
      <trkpt lat="46.83471" lon="8.42148">
        <ele>1581</ele>
        <time>2021-08-13T08:40:34.197Z</time>
      </trkpt>
      <trkpt lat="46.83472" lon="8.42147">
        <ele>1581</ele>
        <time>2021-08-13T08:40:35.197Z</time>
      </trkpt>
      <trkpt lat="46.83474" lon="8.42146">
        <ele>1581</ele>
        <time>2021-08-13T08:40:36.198Z</time>
      </trkpt>
      <trkpt lat="46.83476" lon="8.42144">
        <ele>1580</ele>
        <time>2021-08-13T08:40:37.198Z</time>
      </trkpt>
      <trkpt lat="46.83477" lon="8.42142">
        <ele>1580</ele>
        <time>2021-08-13T08:40:38.198Z</time>
      </trkpt>
      <trkpt lat="46.83477" lon="8.4214">
        <ele>1580</ele>
        <time>2021-08-13T08:40:39.197Z</time>
      </trkpt>
      <trkpt lat="46.83478" lon="8.42138">
        <ele>1579</ele>
        <time>2021-08-13T08:40:40.198Z</time>
      </trkpt>
      <trkpt lat="46.83478" lon="8.42136">
        <ele>1579</ele>
        <time>2021-08-13T08:40:41.197Z</time>
      </trkpt>
      <trkpt lat="46.83478" lon="8.42134">
        <ele>1579</ele>
        <time>2021-08-13T08:40:42.198Z</time>
      </trkpt>
      <trkpt lat="46.83479" lon="8.42133">
        <ele>1579</ele>
        <time>2021-08-13T08:40:43.198Z</time>
      </trkpt>
      <trkpt lat="46.83479" lon="8.4213">
        <ele>1579</ele>
        <time>2021-08-13T08:40:44.197Z</time>
      </trkpt>
      <trkpt lat="46.83479" lon="8.42128">
        <ele>1579</ele>
        <time>2021-08-13T08:40:45.197Z</time>
      </trkpt>
      <trkpt lat="46.83478" lon="8.42126">
        <ele>1579</ele>
        <time>2021-08-13T08:40:46.198Z</time>
      </trkpt>
      <trkpt lat="46.83477" lon="8.42124">
        <ele>1579</ele>
        <time>2021-08-13T08:40:47.198Z</time>
      </trkpt>
      <trkpt lat="46.83476" lon="8.42123">
        <ele>1579</ele>
        <time>2021-08-13T08:40:48.198Z</time>
      </trkpt>
      <trkpt lat="46.83475" lon="8.42121">
        <ele>1579</ele>
        <time>2021-08-13T08:40:49.197Z</time>
      </trkpt>
      <trkpt lat="46.83474" lon="8.42119">
        <ele>1579</ele>
        <time>2021-08-13T08:40:50.198Z</time>
      </trkpt>
      <trkpt lat="46.83473" lon="8.42118">
        <ele>1579</ele>
        <time>2021-08-13T08:40:51.198Z</time>
      </trkpt>
      <trkpt lat="46.83472" lon="8.42115">
        <ele>1579</ele>
        <time>2021-08-13T08:40:52.198Z</time>
      </trkpt>
      <trkpt lat="46.83472" lon="8.42114">
        <ele>1579</ele>
        <time>2021-08-13T08:40:53.198Z</time>
      </trkpt>
      <trkpt lat="46.83471" lon="8.42111">
        <ele>1578</ele>
        <time>2021-08-13T08:40:54.198Z</time>
      </trkpt>
      <trkpt lat="46.8347" lon="8.4211">
        <ele>1578</ele>
        <time>2021-08-13T08:40:55.198Z</time>
      </trkpt>
      <trkpt lat="46.83469" lon="8.42108">
        <ele>1578</ele>
        <time>2021-08-13T08:40:56.197Z</time>
      </trkpt>
      <trkpt lat="46.83469" lon="8.42107">
        <ele>1578</ele>
        <time>2021-08-13T08:40:57.198Z</time>
      </trkpt>
      <trkpt lat="46.83468" lon="8.42106">
        <ele>1577</ele>
        <time>2021-08-13T08:40:58.197Z</time>
      </trkpt>
      <trkpt lat="46.83467" lon="8.42104">
        <ele>1577</ele>
        <time>2021-08-13T08:40:59.197Z</time>
      </trkpt>
      <trkpt lat="46.83466" lon="8.42103">
        <ele>1577</ele>
        <time>2021-08-13T08:41:00.198Z</time>
      </trkpt>
      <trkpt lat="46.83465" lon="8.42102">
        <ele>1577</ele>
        <time>2021-08-13T08:41:01.198Z</time>
      </trkpt>
      <trkpt lat="46.83465" lon="8.42101">
        <ele>1576</ele>
        <time>2021-08-13T08:41:02.198Z</time>
      </trkpt>
      <trkpt lat="46.83464" lon="8.421">
        <ele>1576</ele>
        <time>2021-08-13T08:41:03.198Z</time>
      </trkpt>
      <trkpt lat="46.83463" lon="8.42099">
        <ele>1575</ele>
        <time>2021-08-13T08:41:04.198Z</time>
      </trkpt>
      <trkpt lat="46.83462" lon="8.42098">
        <ele>1575</ele>
        <time>2021-08-13T08:41:05.198Z</time>
      </trkpt>
      <trkpt lat="46.83462" lon="8.42097">
        <ele>1574</ele>
        <time>2021-08-13T08:41:06.198Z</time>
      </trkpt>
      <trkpt lat="46.83461" lon="8.42096">
        <ele>1573</ele>
        <time>2021-08-13T08:41:07.198Z</time>
      </trkpt>
      <trkpt lat="46.8346" lon="8.42096">
        <ele>1573</ele>
        <time>2021-08-13T08:41:08.198Z</time>
      </trkpt>
      <trkpt lat="46.83459" lon="8.42095">
        <ele>1572</ele>
        <time>2021-08-13T08:41:09.198Z</time>
      </trkpt>
      <trkpt lat="46.83458" lon="8.42094">
        <ele>1572</ele>
        <time>2021-08-13T08:41:10.198Z</time>
      </trkpt>
      <trkpt lat="46.83457" lon="8.42093">
        <ele>1572</ele>
        <time>2021-08-13T08:41:11.198Z</time>
      </trkpt>
      <trkpt lat="46.83456" lon="8.42092">
        <ele>1571</ele>
        <time>2021-08-13T08:41:12.197Z</time>
      </trkpt>
      <trkpt lat="46.83456" lon="8.42091">
        <ele>1571</ele>
        <time>2021-08-13T08:41:13.198Z</time>
      </trkpt>
      <trkpt lat="46.83455" lon="8.4209">
        <ele>1571</ele>
        <time>2021-08-13T08:41:14.198Z</time>
      </trkpt>
      <trkpt lat="46.83455" lon="8.42089">
        <ele>1571</ele>
        <time>2021-08-13T08:41:15.197Z</time>
      </trkpt>
      <trkpt lat="46.83455" lon="8.42088">
        <ele>1571</ele>
        <time>2021-08-13T08:41:16.198Z</time>
      </trkpt>
      <trkpt lat="46.83455" lon="8.42089">
        <ele>1570</ele>
        <time>2021-08-13T08:41:17.197Z</time>
      </trkpt>
      <trkpt lat="46.83455" lon="8.42089">
        <ele>1570</ele>
        <time>2021-08-13T08:41:18.198Z</time>
      </trkpt>
      <trkpt lat="46.83454" lon="8.42088">
        <ele>1568</ele>
        <time>2021-08-13T08:41:19.197Z</time>
      </trkpt>
      <trkpt lat="46.83453" lon="8.42088">
        <ele>1567</ele>
        <time>2021-08-13T08:41:20.198Z</time>
      </trkpt>
      <trkpt lat="46.83452" lon="8.42087">
        <ele>1567</ele>
        <time>2021-08-13T08:41:21.198Z</time>
      </trkpt>
      <trkpt lat="46.83451" lon="8.42086">
        <ele>1567</ele>
        <time>2021-08-13T08:41:22.197Z</time>
      </trkpt>
      <trkpt lat="46.8345" lon="8.42085">
        <ele>1567</ele>
        <time>2021-08-13T08:41:23.198Z</time>
      </trkpt>
      <trkpt lat="46.83449" lon="8.42084">
        <ele>1567</ele>
        <time>2021-08-13T08:41:24.198Z</time>
      </trkpt>
      <trkpt lat="46.83448" lon="8.42083">
        <ele>1567</ele>
        <time>2021-08-13T08:41:25.198Z</time>
      </trkpt>
      <trkpt lat="46.83447" lon="8.42082">
        <ele>1567</ele>
        <time>2021-08-13T08:41:26.197Z</time>
      </trkpt>
      <trkpt lat="46.83446" lon="8.42081">
        <ele>1566</ele>
        <time>2021-08-13T08:41:27.198Z</time>
      </trkpt>
      <trkpt lat="46.83446" lon="8.42079">
        <ele>1566</ele>
        <time>2021-08-13T08:41:28.198Z</time>
      </trkpt>
      <trkpt lat="46.83445" lon="8.42078">
        <ele>1566</ele>
        <time>2021-08-13T08:41:29.197Z</time>
      </trkpt>
      <trkpt lat="46.83445" lon="8.42077">
        <ele>1566</ele>
        <time>2021-08-13T08:41:30.197Z</time>
      </trkpt>
      <trkpt lat="46.83444" lon="8.42075">
        <ele>1566</ele>
        <time>2021-08-13T08:41:31.198Z</time>
      </trkpt>
      <trkpt lat="46.83444" lon="8.42074">
        <ele>1566</ele>
        <time>2021-08-13T08:41:32.198Z</time>
      </trkpt>
      <trkpt lat="46.83443" lon="8.42073">
        <ele>1565</ele>
        <time>2021-08-13T08:41:33.198Z</time>
      </trkpt>
      <trkpt lat="46.83442" lon="8.42072">
        <ele>1565</ele>
        <time>2021-08-13T08:41:34.198Z</time>
      </trkpt>
      <trkpt lat="46.83441" lon="8.4207">
        <ele>1566</ele>
        <time>2021-08-13T08:41:35.198Z</time>
      </trkpt>
      <trkpt lat="46.8344" lon="8.42069">
        <ele>1566</ele>
        <time>2021-08-13T08:41:36.197Z</time>
      </trkpt>
      <trkpt lat="46.83439" lon="8.42068">
        <ele>1566</ele>
        <time>2021-08-13T08:41:37.198Z</time>
      </trkpt>
      <trkpt lat="46.83438" lon="8.42067">
        <ele>1566</ele>
        <time>2021-08-13T08:41:38.198Z</time>
      </trkpt>
      <trkpt lat="46.83437" lon="8.42066">
        <ele>1566</ele>
        <time>2021-08-13T08:41:39.197Z</time>
      </trkpt>
      <trkpt lat="46.83435" lon="8.42064">
        <ele>1565</ele>
        <time>2021-08-13T08:41:40.197Z</time>
      </trkpt>
      <trkpt lat="46.83435" lon="8.42063">
        <ele>1565</ele>
        <time>2021-08-13T08:41:41.198Z</time>
      </trkpt>
      <trkpt lat="46.83434" lon="8.42062">
        <ele>1565</ele>
        <time>2021-08-13T08:41:42.197Z</time>
      </trkpt>
      <trkpt lat="46.83434" lon="8.4206">
        <ele>1566</ele>
        <time>2021-08-13T08:41:43.198Z</time>
      </trkpt>
      <trkpt lat="46.83433" lon="8.42059">
        <ele>1566</ele>
        <time>2021-08-13T08:41:44.197Z</time>
      </trkpt>
      <trkpt lat="46.83432" lon="8.42058">
        <ele>1566</ele>
        <time>2021-08-13T08:41:45.198Z</time>
      </trkpt>
      <trkpt lat="46.83432" lon="8.42057">
        <ele>1566</ele>
        <time>2021-08-13T08:41:46.198Z</time>
      </trkpt>
      <trkpt lat="46.83431" lon="8.42056">
        <ele>1566</ele>
        <time>2021-08-13T08:41:47.198Z</time>
      </trkpt>
      <trkpt lat="46.83431" lon="8.42056">
        <ele>1566</ele>
        <time>2021-08-13T08:41:48.198Z</time>
      </trkpt>
      <trkpt lat="46.8343" lon="8.42055">
        <ele>1566</ele>
        <time>2021-08-13T08:41:49.198Z</time>
      </trkpt>
      <trkpt lat="46.8343" lon="8.42055">
        <ele>1565</ele>
        <time>2021-08-13T08:41:50.198Z</time>
      </trkpt>
      <trkpt lat="46.83429" lon="8.42055">
        <ele>1565</ele>
        <time>2021-08-13T08:41:51.198Z</time>
      </trkpt>
      <trkpt lat="46.83429" lon="8.42055">
        <ele>1564</ele>
        <time>2021-08-13T08:41:52.198Z</time>
      </trkpt>
      <trkpt lat="46.83428" lon="8.42055">
        <ele>1564</ele>
        <time>2021-08-13T08:41:53.198Z</time>
      </trkpt>
      <trkpt lat="46.83427" lon="8.42054">
        <ele>1564</ele>
        <time>2021-08-13T08:41:54.198Z</time>
      </trkpt>
      <trkpt lat="46.83426" lon="8.42054">
        <ele>1564</ele>
        <time>2021-08-13T08:41:55.198Z</time>
      </trkpt>
      <trkpt lat="46.83426" lon="8.42053">
        <ele>1563</ele>
        <time>2021-08-13T08:41:56.197Z</time>
      </trkpt>
      <trkpt lat="46.83425" lon="8.42053">
        <ele>1563</ele>
        <time>2021-08-13T08:41:57.197Z</time>
      </trkpt>
      <trkpt lat="46.83425" lon="8.42052">
        <ele>1563</ele>
        <time>2021-08-13T08:41:58.198Z</time>
      </trkpt>
      <trkpt lat="46.83425" lon="8.42051">
        <ele>1562</ele>
        <time>2021-08-13T08:41:59.198Z</time>
      </trkpt>
      <trkpt lat="46.83424" lon="8.42051">
        <ele>1562</ele>
        <time>2021-08-13T08:42:00.197Z</time>
      </trkpt>
      <trkpt lat="46.83424" lon="8.4205">
        <ele>1562</ele>
        <time>2021-08-13T08:42:01.197Z</time>
      </trkpt>
      <trkpt lat="46.83423" lon="8.4205">
        <ele>1562</ele>
        <time>2021-08-13T08:42:02.198Z</time>
      </trkpt>
      <trkpt lat="46.83423" lon="8.42049">
        <ele>1562</ele>
        <time>2021-08-13T08:42:03.197Z</time>
      </trkpt>
      <trkpt lat="46.83423" lon="8.42049">
        <ele>1561</ele>
        <time>2021-08-13T08:42:04.198Z</time>
      </trkpt>
      <trkpt lat="46.83422" lon="8.42048">
        <ele>1561</ele>
        <time>2021-08-13T08:42:05.197Z</time>
      </trkpt>
      <trkpt lat="46.83422" lon="8.42048">
        <ele>1561</ele>
        <time>2021-08-13T08:42:06.197Z</time>
      </trkpt>
      <trkpt lat="46.83422" lon="8.42047">
        <ele>1561</ele>
        <time>2021-08-13T08:42:07.197Z</time>
      </trkpt>
      <trkpt lat="46.83422" lon="8.42046">
        <ele>1561</ele>
        <time>2021-08-13T08:42:08.198Z</time>
      </trkpt>
      <trkpt lat="46.83421" lon="8.42046">
        <ele>1560</ele>
        <time>2021-08-13T08:42:09.198Z</time>
      </trkpt>
      <trkpt lat="46.8342" lon="8.42044">
        <ele>1560</ele>
        <time>2021-08-13T08:42:10.197Z</time>
      </trkpt>
      <trkpt lat="46.83419" lon="8.42043">
        <ele>1560</ele>
        <time>2021-08-13T08:42:11.197Z</time>
      </trkpt>
      <trkpt lat="46.83419" lon="8.42042">
        <ele>1560</ele>
        <time>2021-08-13T08:42:12.197Z</time>
      </trkpt>
      <trkpt lat="46.83418" lon="8.4204">
        <ele>1561</ele>
        <time>2021-08-13T08:42:13.198Z</time>
      </trkpt>
      <trkpt lat="46.83417" lon="8.42038">
        <ele>1561</ele>
        <time>2021-08-13T08:42:14.197Z</time>
      </trkpt>
      <trkpt lat="46.83416" lon="8.42036">
        <ele>1561</ele>
        <time>2021-08-13T08:42:15.198Z</time>
      </trkpt>
      <trkpt lat="46.83415" lon="8.42035">
        <ele>1562</ele>
        <time>2021-08-13T08:42:16.198Z</time>
      </trkpt>
      <trkpt lat="46.83415" lon="8.42033">
        <ele>1562</ele>
        <time>2021-08-13T08:42:17.197Z</time>
      </trkpt>
      <trkpt lat="46.83414" lon="8.42031">
        <ele>1562</ele>
        <time>2021-08-13T08:42:18.197Z</time>
      </trkpt>
      <trkpt lat="46.83413" lon="8.4203">
        <ele>1561</ele>
        <time>2021-08-13T08:42:19.197Z</time>
      </trkpt>
      <trkpt lat="46.83412" lon="8.42028">
        <ele>1561</ele>
        <time>2021-08-13T08:42:20.197Z</time>
      </trkpt>
      <trkpt lat="46.83411" lon="8.42027">
        <ele>1561</ele>
        <time>2021-08-13T08:42:21.197Z</time>
      </trkpt>
      <trkpt lat="46.8341" lon="8.42025">
        <ele>1561</ele>
        <time>2021-08-13T08:42:22.197Z</time>
      </trkpt>
      <trkpt lat="46.83409" lon="8.42023">
        <ele>1561</ele>
        <time>2021-08-13T08:42:23.197Z</time>
      </trkpt>
      <trkpt lat="46.83408" lon="8.42022">
        <ele>1561</ele>
        <time>2021-08-13T08:42:24.197Z</time>
      </trkpt>
      <trkpt lat="46.83407" lon="8.4202">
        <ele>1561</ele>
        <time>2021-08-13T08:42:25.197Z</time>
      </trkpt>
      <trkpt lat="46.83406" lon="8.42018">
        <ele>1560</ele>
        <time>2021-08-13T08:42:26.197Z</time>
      </trkpt>
      <trkpt lat="46.83406" lon="8.42016">
        <ele>1560</ele>
        <time>2021-08-13T08:42:27.197Z</time>
      </trkpt>
      <trkpt lat="46.83405" lon="8.42014">
        <ele>1560</ele>
        <time>2021-08-13T08:42:28.197Z</time>
      </trkpt>
      <trkpt lat="46.83404" lon="8.42013">
        <ele>1559</ele>
        <time>2021-08-13T08:42:29.197Z</time>
      </trkpt>
      <trkpt lat="46.83403" lon="8.42011">
        <ele>1559</ele>
        <time>2021-08-13T08:42:30.197Z</time>
      </trkpt>
      <trkpt lat="46.83402" lon="8.4201">
        <ele>1558</ele>
        <time>2021-08-13T08:42:31.198Z</time>
      </trkpt>
      <trkpt lat="46.83401" lon="8.42008">
        <ele>1558</ele>
        <time>2021-08-13T08:42:32.197Z</time>
      </trkpt>
      <trkpt lat="46.834" lon="8.42007">
        <ele>1557</ele>
        <time>2021-08-13T08:42:33.197Z</time>
      </trkpt>
      <trkpt lat="46.83399" lon="8.42005">
        <ele>1557</ele>
        <time>2021-08-13T08:42:34.197Z</time>
      </trkpt>
      <trkpt lat="46.83398" lon="8.42004">
        <ele>1557</ele>
        <time>2021-08-13T08:42:35.197Z</time>
      </trkpt>
      <trkpt lat="46.83397" lon="8.42002">
        <ele>1556</ele>
        <time>2021-08-13T08:42:36.198Z</time>
      </trkpt>
      <trkpt lat="46.83395" lon="8.42001">
        <ele>1556</ele>
        <time>2021-08-13T08:42:37.197Z</time>
      </trkpt>
      <trkpt lat="46.83394" lon="8.42">
        <ele>1556</ele>
        <time>2021-08-13T08:42:38.197Z</time>
      </trkpt>
      <trkpt lat="46.83394" lon="8.41998">
        <ele>1556</ele>
        <time>2021-08-13T08:42:39.198Z</time>
      </trkpt>
      <trkpt lat="46.83393" lon="8.41998">
        <ele>1556</ele>
        <time>2021-08-13T08:42:40.198Z</time>
      </trkpt>
      <trkpt lat="46.83393" lon="8.41997">
        <ele>1556</ele>
        <time>2021-08-13T08:42:41.198Z</time>
      </trkpt>
      <trkpt lat="46.83393" lon="8.41996">
        <ele>1556</ele>
        <time>2021-08-13T08:42:42.198Z</time>
      </trkpt>
      <trkpt lat="46.83393" lon="8.41996">
        <ele>1556</ele>
        <time>2021-08-13T08:42:43.198Z</time>
      </trkpt>
      <trkpt lat="46.83393" lon="8.41996">
        <ele>1556</ele>
        <time>2021-08-13T08:42:44.197Z</time>
      </trkpt>
      <trkpt lat="46.83393" lon="8.41995">
        <ele>1556</ele>
        <time>2021-08-13T08:42:45.198Z</time>
      </trkpt>
      <trkpt lat="46.83392" lon="8.41994">
        <ele>1555</ele>
        <time>2021-08-13T08:42:46.197Z</time>
      </trkpt>
      <trkpt lat="46.83392" lon="8.41994">
        <ele>1555</ele>
        <time>2021-08-13T08:42:47.197Z</time>
      </trkpt>
      <trkpt lat="46.83391" lon="8.41993">
        <ele>1555</ele>
        <time>2021-08-13T08:42:48.197Z</time>
      </trkpt>
      <trkpt lat="46.8339" lon="8.41992">
        <ele>1555</ele>
        <time>2021-08-13T08:42:49.197Z</time>
      </trkpt>
      <trkpt lat="46.83389" lon="8.41991">
        <ele>1555</ele>
        <time>2021-08-13T08:42:50.197Z</time>
      </trkpt>
      <trkpt lat="46.83388" lon="8.41989">
        <ele>1555</ele>
        <time>2021-08-13T08:42:51.197Z</time>
      </trkpt>
      <trkpt lat="46.83387" lon="8.41988">
        <ele>1555</ele>
        <time>2021-08-13T08:42:52.198Z</time>
      </trkpt>
      <trkpt lat="46.83386" lon="8.41986">
        <ele>1555</ele>
        <time>2021-08-13T08:42:53.197Z</time>
      </trkpt>
      <trkpt lat="46.83385" lon="8.41985">
        <ele>1555</ele>
        <time>2021-08-13T08:42:54.197Z</time>
      </trkpt>
      <trkpt lat="46.83384" lon="8.41983">
        <ele>1555</ele>
        <time>2021-08-13T08:42:55.197Z</time>
      </trkpt>
      <trkpt lat="46.83383" lon="8.41982">
        <ele>1555</ele>
        <time>2021-08-13T08:42:56.197Z</time>
      </trkpt>
      <trkpt lat="46.83382" lon="8.4198">
        <ele>1555</ele>
        <time>2021-08-13T08:42:57.197Z</time>
      </trkpt>
      <trkpt lat="46.83381" lon="8.41979">
        <ele>1554</ele>
        <time>2021-08-13T08:42:58.197Z</time>
      </trkpt>
      <trkpt lat="46.83379" lon="8.41978">
        <ele>1554</ele>
        <time>2021-08-13T08:42:59.197Z</time>
      </trkpt>
      <trkpt lat="46.83378" lon="8.41977">
        <ele>1554</ele>
        <time>2021-08-13T08:43:00.197Z</time>
      </trkpt>
      <trkpt lat="46.83377" lon="8.41976">
        <ele>1554</ele>
        <time>2021-08-13T08:43:01.197Z</time>
      </trkpt>
      <trkpt lat="46.83376" lon="8.41975">
        <ele>1554</ele>
        <time>2021-08-13T08:43:02.197Z</time>
      </trkpt>
      <trkpt lat="46.83376" lon="8.41975">
        <ele>1554</ele>
        <time>2021-08-13T08:43:03.197Z</time>
      </trkpt>
      <trkpt lat="46.83375" lon="8.41974">
        <ele>1554</ele>
        <time>2021-08-13T08:43:04.197Z</time>
      </trkpt>
      <trkpt lat="46.83375" lon="8.41975">
        <ele>1555</ele>
        <time>2021-08-13T08:43:05.198Z</time>
      </trkpt>
      <trkpt lat="46.83374" lon="8.41974">
        <ele>1554</ele>
        <time>2021-08-13T08:43:06.197Z</time>
      </trkpt>
      <trkpt lat="46.83373" lon="8.41974">
        <ele>1554</ele>
        <time>2021-08-13T08:43:07.198Z</time>
      </trkpt>
      <trkpt lat="46.83373" lon="8.41973">
        <ele>1553</ele>
        <time>2021-08-13T08:43:08.198Z</time>
      </trkpt>
      <trkpt lat="46.83372" lon="8.41972">
        <ele>1553</ele>
        <time>2021-08-13T08:43:09.198Z</time>
      </trkpt>
      <trkpt lat="46.83371" lon="8.41971">
        <ele>1552</ele>
        <time>2021-08-13T08:43:10.198Z</time>
      </trkpt>
      <trkpt lat="46.8337" lon="8.4197">
        <ele>1551</ele>
        <time>2021-08-13T08:43:11.197Z</time>
      </trkpt>
      <trkpt lat="46.83369" lon="8.41969">
        <ele>1551</ele>
        <time>2021-08-13T08:43:12.198Z</time>
      </trkpt>
      <trkpt lat="46.83369" lon="8.41967">
        <ele>1550</ele>
        <time>2021-08-13T08:43:13.198Z</time>
      </trkpt>
      <trkpt lat="46.83368" lon="8.41966">
        <ele>1550</ele>
        <time>2021-08-13T08:43:14.198Z</time>
      </trkpt>
      <trkpt lat="46.83367" lon="8.41964">
        <ele>1549</ele>
        <time>2021-08-13T08:43:15.198Z</time>
      </trkpt>
      <trkpt lat="46.83366" lon="8.41963">
        <ele>1549</ele>
        <time>2021-08-13T08:43:16.197Z</time>
      </trkpt>
      <trkpt lat="46.83365" lon="8.41962">
        <ele>1549</ele>
        <time>2021-08-13T08:43:17.198Z</time>
      </trkpt>
      <trkpt lat="46.83364" lon="8.41961">
        <ele>1549</ele>
        <time>2021-08-13T08:43:18.198Z</time>
      </trkpt>
      <trkpt lat="46.83363" lon="8.4196">
        <ele>1549</ele>
        <time>2021-08-13T08:43:19.198Z</time>
      </trkpt>
      <trkpt lat="46.83362" lon="8.41958">
        <ele>1549</ele>
        <time>2021-08-13T08:43:20.198Z</time>
      </trkpt>
      <trkpt lat="46.83362" lon="8.41957">
        <ele>1548</ele>
        <time>2021-08-13T08:43:21.198Z</time>
      </trkpt>
      <trkpt lat="46.83361" lon="8.41956">
        <ele>1548</ele>
        <time>2021-08-13T08:43:22.198Z</time>
      </trkpt>
      <trkpt lat="46.8336" lon="8.41954">
        <ele>1548</ele>
        <time>2021-08-13T08:43:23.198Z</time>
      </trkpt>
      <trkpt lat="46.83359" lon="8.41953">
        <ele>1547</ele>
        <time>2021-08-13T08:43:24.197Z</time>
      </trkpt>
      <trkpt lat="46.83358" lon="8.41952">
        <ele>1547</ele>
        <time>2021-08-13T08:43:25.198Z</time>
      </trkpt>
      <trkpt lat="46.83357" lon="8.41951">
        <ele>1546</ele>
        <time>2021-08-13T08:43:26.198Z</time>
      </trkpt>
      <trkpt lat="46.83357" lon="8.41949">
        <ele>1546</ele>
        <time>2021-08-13T08:43:27.198Z</time>
      </trkpt>
      <trkpt lat="46.83356" lon="8.41948">
        <ele>1546</ele>
        <time>2021-08-13T08:43:28.198Z</time>
      </trkpt>
      <trkpt lat="46.83355" lon="8.41947">
        <ele>1546</ele>
        <time>2021-08-13T08:43:29.197Z</time>
      </trkpt>
      <trkpt lat="46.83354" lon="8.41945">
        <ele>1545</ele>
        <time>2021-08-13T08:43:30.197Z</time>
      </trkpt>
      <trkpt lat="46.83353" lon="8.41944">
        <ele>1545</ele>
        <time>2021-08-13T08:43:31.198Z</time>
      </trkpt>
      <trkpt lat="46.83352" lon="8.41943">
        <ele>1544</ele>
        <time>2021-08-13T08:43:32.197Z</time>
      </trkpt>
      <trkpt lat="46.83351" lon="8.41942">
        <ele>1544</ele>
        <time>2021-08-13T08:43:33.198Z</time>
      </trkpt>
      <trkpt lat="46.8335" lon="8.41941">
        <ele>1543</ele>
        <time>2021-08-13T08:43:34.198Z</time>
      </trkpt>
      <trkpt lat="46.83349" lon="8.4194">
        <ele>1543</ele>
        <time>2021-08-13T08:43:35.197Z</time>
      </trkpt>
      <trkpt lat="46.83348" lon="8.41938">
        <ele>1543</ele>
        <time>2021-08-13T08:43:36.198Z</time>
      </trkpt>
      <trkpt lat="46.83347" lon="8.41937">
        <ele>1543</ele>
        <time>2021-08-13T08:43:37.198Z</time>
      </trkpt>
      <trkpt lat="46.83346" lon="8.41936">
        <ele>1543</ele>
        <time>2021-08-13T08:43:38.198Z</time>
      </trkpt>
      <trkpt lat="46.83345" lon="8.41934">
        <ele>1543</ele>
        <time>2021-08-13T08:43:39.198Z</time>
      </trkpt>
      <trkpt lat="46.83344" lon="8.41933">
        <ele>1543</ele>
        <time>2021-08-13T08:43:40.198Z</time>
      </trkpt>
      <trkpt lat="46.83343" lon="8.41932">
        <ele>1543</ele>
        <time>2021-08-13T08:43:41.197Z</time>
      </trkpt>
      <trkpt lat="46.83342" lon="8.41931">
        <ele>1542</ele>
        <time>2021-08-13T08:43:42.198Z</time>
      </trkpt>
      <trkpt lat="46.83341" lon="8.4193">
        <ele>1542</ele>
        <time>2021-08-13T08:43:43.198Z</time>
      </trkpt>
      <trkpt lat="46.8334" lon="8.41929">
        <ele>1542</ele>
        <time>2021-08-13T08:43:44.198Z</time>
      </trkpt>
      <trkpt lat="46.83339" lon="8.41928">
        <ele>1542</ele>
        <time>2021-08-13T08:43:45.197Z</time>
      </trkpt>
      <trkpt lat="46.83338" lon="8.41927">
        <ele>1541</ele>
        <time>2021-08-13T08:43:46.198Z</time>
      </trkpt>
      <trkpt lat="46.83337" lon="8.41925">
        <ele>1541</ele>
        <time>2021-08-13T08:43:47.197Z</time>
      </trkpt>
      <trkpt lat="46.83336" lon="8.41924">
        <ele>1541</ele>
        <time>2021-08-13T08:43:48.198Z</time>
      </trkpt>
      <trkpt lat="46.83335" lon="8.41923">
        <ele>1541</ele>
        <time>2021-08-13T08:43:49.198Z</time>
      </trkpt>
      <trkpt lat="46.83334" lon="8.41921">
        <ele>1540</ele>
        <time>2021-08-13T08:43:50.198Z</time>
      </trkpt>
      <trkpt lat="46.83334" lon="8.4192">
        <ele>1540</ele>
        <time>2021-08-13T08:43:51.198Z</time>
      </trkpt>
      <trkpt lat="46.83333" lon="8.41918">
        <ele>1540</ele>
        <time>2021-08-13T08:43:52.197Z</time>
      </trkpt>
      <trkpt lat="46.83332" lon="8.41917">
        <ele>1539</ele>
        <time>2021-08-13T08:43:53.198Z</time>
      </trkpt>
      <trkpt lat="46.83331" lon="8.41916">
        <ele>1539</ele>
        <time>2021-08-13T08:43:54.197Z</time>
      </trkpt>
      <trkpt lat="46.8333" lon="8.41915">
        <ele>1539</ele>
        <time>2021-08-13T08:43:55.198Z</time>
      </trkpt>
      <trkpt lat="46.83329" lon="8.41914">
        <ele>1538</ele>
        <time>2021-08-13T08:43:56.197Z</time>
      </trkpt>
      <trkpt lat="46.83329" lon="8.41913">
        <ele>1538</ele>
        <time>2021-08-13T08:43:57.197Z</time>
      </trkpt>
      <trkpt lat="46.83328" lon="8.41911">
        <ele>1538</ele>
        <time>2021-08-13T08:43:58.197Z</time>
      </trkpt>
      <trkpt lat="46.83327" lon="8.4191">
        <ele>1538</ele>
        <time>2021-08-13T08:43:59.197Z</time>
      </trkpt>
      <trkpt lat="46.83326" lon="8.41909">
        <ele>1538</ele>
        <time>2021-08-13T08:44:00.197Z</time>
      </trkpt>
      <trkpt lat="46.83326" lon="8.41907">
        <ele>1537</ele>
        <time>2021-08-13T08:44:01.197Z</time>
      </trkpt>
      <trkpt lat="46.83325" lon="8.41906">
        <ele>1537</ele>
        <time>2021-08-13T08:44:02.198Z</time>
      </trkpt>
      <trkpt lat="46.83324" lon="8.41905">
        <ele>1537</ele>
        <time>2021-08-13T08:44:03.197Z</time>
      </trkpt>
      <trkpt lat="46.83323" lon="8.41903">
        <ele>1537</ele>
        <time>2021-08-13T08:44:04.198Z</time>
      </trkpt>
      <trkpt lat="46.83322" lon="8.41902">
        <ele>1537</ele>
        <time>2021-08-13T08:44:05.197Z</time>
      </trkpt>
      <trkpt lat="46.83321" lon="8.419">
        <ele>1537</ele>
        <time>2021-08-13T08:44:06.197Z</time>
      </trkpt>
      <trkpt lat="46.8332" lon="8.41899">
        <ele>1537</ele>
        <time>2021-08-13T08:44:07.197Z</time>
      </trkpt>
      <trkpt lat="46.83319" lon="8.41898">
        <ele>1536</ele>
        <time>2021-08-13T08:44:08.198Z</time>
      </trkpt>
      <trkpt lat="46.83318" lon="8.41897">
        <ele>1535</ele>
        <time>2021-08-13T08:44:09.198Z</time>
      </trkpt>
      <trkpt lat="46.83316" lon="8.41895">
        <ele>1535</ele>
        <time>2021-08-13T08:44:10.197Z</time>
      </trkpt>
      <trkpt lat="46.83315" lon="8.41894">
        <ele>1535</ele>
        <time>2021-08-13T08:44:11.197Z</time>
      </trkpt>
      <trkpt lat="46.83315" lon="8.41892">
        <ele>1535</ele>
        <time>2021-08-13T08:44:12.198Z</time>
      </trkpt>
      <trkpt lat="46.83314" lon="8.4189">
        <ele>1534</ele>
        <time>2021-08-13T08:44:13.197Z</time>
      </trkpt>
      <trkpt lat="46.83313" lon="8.41889">
        <ele>1534</ele>
        <time>2021-08-13T08:44:14.198Z</time>
      </trkpt>
      <trkpt lat="46.83313" lon="8.41887">
        <ele>1534</ele>
        <time>2021-08-13T08:44:15.197Z</time>
      </trkpt>
      <trkpt lat="46.83312" lon="8.41886">
        <ele>1534</ele>
        <time>2021-08-13T08:44:16.197Z</time>
      </trkpt>
      <trkpt lat="46.83311" lon="8.41885">
        <ele>1534</ele>
        <time>2021-08-13T08:44:17.197Z</time>
      </trkpt>
      <trkpt lat="46.8331" lon="8.41884">
        <ele>1533</ele>
        <time>2021-08-13T08:44:18.197Z</time>
      </trkpt>
      <trkpt lat="46.83309" lon="8.41883">
        <ele>1533</ele>
        <time>2021-08-13T08:44:19.197Z</time>
      </trkpt>
      <trkpt lat="46.83308" lon="8.41882">
        <ele>1533</ele>
        <time>2021-08-13T08:44:20.197Z</time>
      </trkpt>
      <trkpt lat="46.83308" lon="8.41881">
        <ele>1532</ele>
        <time>2021-08-13T08:44:21.197Z</time>
      </trkpt>
      <trkpt lat="46.83307" lon="8.4188">
        <ele>1532</ele>
        <time>2021-08-13T08:44:22.197Z</time>
      </trkpt>
      <trkpt lat="46.83306" lon="8.41879">
        <ele>1532</ele>
        <time>2021-08-13T08:44:23.197Z</time>
      </trkpt>
      <trkpt lat="46.83305" lon="8.41877">
        <ele>1532</ele>
        <time>2021-08-13T08:44:24.197Z</time>
      </trkpt>
      <trkpt lat="46.83305" lon="8.41876">
        <ele>1532</ele>
        <time>2021-08-13T08:44:25.198Z</time>
      </trkpt>
      <trkpt lat="46.83304" lon="8.41874">
        <ele>1532</ele>
        <time>2021-08-13T08:44:26.197Z</time>
      </trkpt>
      <trkpt lat="46.83303" lon="8.41873">
        <ele>1532</ele>
        <time>2021-08-13T08:44:27.197Z</time>
      </trkpt>
      <trkpt lat="46.83302" lon="8.41873">
        <ele>1532</ele>
        <time>2021-08-13T08:44:28.198Z</time>
      </trkpt>
      <trkpt lat="46.83301" lon="8.41871">
        <ele>1532</ele>
        <time>2021-08-13T08:44:29.197Z</time>
      </trkpt>
      <trkpt lat="46.833" lon="8.4187">
        <ele>1532</ele>
        <time>2021-08-13T08:44:30.198Z</time>
      </trkpt>
      <trkpt lat="46.83299" lon="8.41868">
        <ele>1532</ele>
        <time>2021-08-13T08:44:31.197Z</time>
      </trkpt>
      <trkpt lat="46.83297" lon="8.41867">
        <ele>1532</ele>
        <time>2021-08-13T08:44:32.198Z</time>
      </trkpt>
      <trkpt lat="46.83296" lon="8.41865">
        <ele>1532</ele>
        <time>2021-08-13T08:44:33.198Z</time>
      </trkpt>
      <trkpt lat="46.83294" lon="8.41864">
        <ele>1532</ele>
        <time>2021-08-13T08:44:34.198Z</time>
      </trkpt>
      <trkpt lat="46.83293" lon="8.41862">
        <ele>1532</ele>
        <time>2021-08-13T08:44:35.197Z</time>
      </trkpt>
      <trkpt lat="46.83292" lon="8.4186">
        <ele>1532</ele>
        <time>2021-08-13T08:44:36.198Z</time>
      </trkpt>
      <trkpt lat="46.83291" lon="8.41858">
        <ele>1532</ele>
        <time>2021-08-13T08:44:37.197Z</time>
      </trkpt>
      <trkpt lat="46.8329" lon="8.41857">
        <ele>1532</ele>
        <time>2021-08-13T08:44:38.198Z</time>
      </trkpt>
      <trkpt lat="46.83289" lon="8.41856">
        <ele>1531</ele>
        <time>2021-08-13T08:44:39.197Z</time>
      </trkpt>
      <trkpt lat="46.83289" lon="8.41854">
        <ele>1531</ele>
        <time>2021-08-13T08:44:40.197Z</time>
      </trkpt>
      <trkpt lat="46.83288" lon="8.41853">
        <ele>1530</ele>
        <time>2021-08-13T08:44:41.197Z</time>
      </trkpt>
      <trkpt lat="46.83287" lon="8.41852">
        <ele>1530</ele>
        <time>2021-08-13T08:44:42.198Z</time>
      </trkpt>
      <trkpt lat="46.83287" lon="8.41852">
        <ele>1530</ele>
        <time>2021-08-13T08:44:43.198Z</time>
      </trkpt>
      <trkpt lat="46.83287" lon="8.41852">
        <ele>1529</ele>
        <time>2021-08-13T08:44:44.198Z</time>
      </trkpt>
      <trkpt lat="46.83286" lon="8.41851">
        <ele>1529</ele>
        <time>2021-08-13T08:44:45.198Z</time>
      </trkpt>
      <trkpt lat="46.83286" lon="8.41851">
        <ele>1529</ele>
        <time>2021-08-13T08:44:46.198Z</time>
      </trkpt>
      <trkpt lat="46.83286" lon="8.41851">
        <ele>1529</ele>
        <time>2021-08-13T08:44:47.198Z</time>
      </trkpt>
      <trkpt lat="46.83285" lon="8.41851">
        <ele>1528</ele>
        <time>2021-08-13T08:44:48.198Z</time>
      </trkpt>
      <trkpt lat="46.83285" lon="8.41851">
        <ele>1528</ele>
        <time>2021-08-13T08:44:49.198Z</time>
      </trkpt>
      <trkpt lat="46.83285" lon="8.41851">
        <ele>1528</ele>
        <time>2021-08-13T08:44:50.198Z</time>
      </trkpt>
      <trkpt lat="46.83286" lon="8.41852">
        <ele>1527</ele>
        <time>2021-08-13T08:44:51.197Z</time>
      </trkpt>
      <trkpt lat="46.83286" lon="8.41852">
        <ele>1527</ele>
        <time>2021-08-13T08:44:52.198Z</time>
      </trkpt>
      <trkpt lat="46.83286" lon="8.41852">
        <ele>1526</ele>
        <time>2021-08-13T08:44:53.197Z</time>
      </trkpt>
      <trkpt lat="46.83286" lon="8.41852">
        <ele>1526</ele>
        <time>2021-08-13T08:44:54.197Z</time>
      </trkpt>
      <trkpt lat="46.83286" lon="8.41851">
        <ele>1526</ele>
        <time>2021-08-13T08:44:55.198Z</time>
      </trkpt>
      <trkpt lat="46.83286" lon="8.4185">
        <ele>1526</ele>
        <time>2021-08-13T08:44:56.198Z</time>
      </trkpt>
      <trkpt lat="46.83285" lon="8.41849">
        <ele>1526</ele>
        <time>2021-08-13T08:44:57.197Z</time>
      </trkpt>
      <trkpt lat="46.83285" lon="8.41848">
        <ele>1526</ele>
        <time>2021-08-13T08:44:58.198Z</time>
      </trkpt>
      <trkpt lat="46.83284" lon="8.41847">
        <ele>1526</ele>
        <time>2021-08-13T08:44:59.197Z</time>
      </trkpt>
      <trkpt lat="46.83283" lon="8.41847">
        <ele>1526</ele>
        <time>2021-08-13T08:45:00.198Z</time>
      </trkpt>
      <trkpt lat="46.83282" lon="8.41846">
        <ele>1526</ele>
        <time>2021-08-13T08:45:01.198Z</time>
      </trkpt>
      <trkpt lat="46.83282" lon="8.41845">
        <ele>1525</ele>
        <time>2021-08-13T08:45:02.198Z</time>
      </trkpt>
      <trkpt lat="46.83281" lon="8.41844">
        <ele>1525</ele>
        <time>2021-08-13T08:45:03.198Z</time>
      </trkpt>
      <trkpt lat="46.83281" lon="8.41843">
        <ele>1525</ele>
        <time>2021-08-13T08:45:04.198Z</time>
      </trkpt>
      <trkpt lat="46.8328" lon="8.41842">
        <ele>1525</ele>
        <time>2021-08-13T08:45:05.197Z</time>
      </trkpt>
      <trkpt lat="46.83279" lon="8.41841">
        <ele>1526</ele>
        <time>2021-08-13T08:45:06.198Z</time>
      </trkpt>
      <trkpt lat="46.83278" lon="8.4184">
        <ele>1526</ele>
        <time>2021-08-13T08:45:07.198Z</time>
      </trkpt>
      <trkpt lat="46.83277" lon="8.41839">
        <ele>1527</ele>
        <time>2021-08-13T08:45:08.198Z</time>
      </trkpt>
      <trkpt lat="46.83276" lon="8.41838">
        <ele>1527</ele>
        <time>2021-08-13T08:45:09.198Z</time>
      </trkpt>
      <trkpt lat="46.83275" lon="8.41837">
        <ele>1528</ele>
        <time>2021-08-13T08:45:10.198Z</time>
      </trkpt>
      <trkpt lat="46.83274" lon="8.41836">
        <ele>1528</ele>
        <time>2021-08-13T08:45:11.197Z</time>
      </trkpt>
      <trkpt lat="46.83273" lon="8.41835">
        <ele>1529</ele>
        <time>2021-08-13T08:45:12.198Z</time>
      </trkpt>
      <trkpt lat="46.83272" lon="8.41834">
        <ele>1529</ele>
        <time>2021-08-13T08:45:13.198Z</time>
      </trkpt>
      <trkpt lat="46.83271" lon="8.41832">
        <ele>1529</ele>
        <time>2021-08-13T08:45:14.198Z</time>
      </trkpt>
      <trkpt lat="46.83269" lon="8.4183">
        <ele>1530</ele>
        <time>2021-08-13T08:45:15.198Z</time>
      </trkpt>
      <trkpt lat="46.83268" lon="8.41828">
        <ele>1529</ele>
        <time>2021-08-13T08:45:16.198Z</time>
      </trkpt>
      <trkpt lat="46.83268" lon="8.41828">
        <ele>1528</ele>
        <time>2021-08-13T08:45:17.198Z</time>
      </trkpt>
      <trkpt lat="46.83267" lon="8.41827">
        <ele>1527</ele>
        <time>2021-08-13T08:45:18.198Z</time>
      </trkpt>
      <trkpt lat="46.83266" lon="8.41826">
        <ele>1527</ele>
        <time>2021-08-13T08:45:19.198Z</time>
      </trkpt>
      <trkpt lat="46.83266" lon="8.41824">
        <ele>1526</ele>
        <time>2021-08-13T08:45:20.197Z</time>
      </trkpt>
      <trkpt lat="46.83265" lon="8.41823">
        <ele>1525</ele>
        <time>2021-08-13T08:45:21.197Z</time>
      </trkpt>
      <trkpt lat="46.83265" lon="8.41821">
        <ele>1525</ele>
        <time>2021-08-13T08:45:22.197Z</time>
      </trkpt>
      <trkpt lat="46.83265" lon="8.4182">
        <ele>1525</ele>
        <time>2021-08-13T08:45:23.197Z</time>
      </trkpt>
      <trkpt lat="46.83265" lon="8.41819">
        <ele>1524</ele>
        <time>2021-08-13T08:45:24.197Z</time>
      </trkpt>
      <trkpt lat="46.83265" lon="8.41817">
        <ele>1524</ele>
        <time>2021-08-13T08:45:25.198Z</time>
      </trkpt>
      <trkpt lat="46.83264" lon="8.41815">
        <ele>1523</ele>
        <time>2021-08-13T08:45:26.198Z</time>
      </trkpt>
      <trkpt lat="46.83265" lon="8.41813">
        <ele>1522</ele>
        <time>2021-08-13T08:45:27.197Z</time>
      </trkpt>
      <trkpt lat="46.83266" lon="8.41811">
        <ele>1522</ele>
        <time>2021-08-13T08:45:28.198Z</time>
      </trkpt>
      <trkpt lat="46.83266" lon="8.41809">
        <ele>1522</ele>
        <time>2021-08-13T08:45:29.198Z</time>
      </trkpt>
      <trkpt lat="46.83267" lon="8.41808">
        <ele>1521</ele>
        <time>2021-08-13T08:45:30.198Z</time>
      </trkpt>
      <trkpt lat="46.83267" lon="8.41806">
        <ele>1521</ele>
        <time>2021-08-13T08:45:31.198Z</time>
      </trkpt>
      <trkpt lat="46.83266" lon="8.41804">
        <ele>1521</ele>
        <time>2021-08-13T08:45:32.198Z</time>
      </trkpt>
      <trkpt lat="46.83267" lon="8.41802">
        <ele>1520</ele>
        <time>2021-08-13T08:45:33.198Z</time>
      </trkpt>
      <trkpt lat="46.83267" lon="8.418">
        <ele>1520</ele>
        <time>2021-08-13T08:45:34.197Z</time>
      </trkpt>
      <trkpt lat="46.83267" lon="8.41798">
        <ele>1519</ele>
        <time>2021-08-13T08:45:35.198Z</time>
      </trkpt>
      <trkpt lat="46.83267" lon="8.41796">
        <ele>1519</ele>
        <time>2021-08-13T08:45:36.198Z</time>
      </trkpt>
      <trkpt lat="46.83267" lon="8.41794">
        <ele>1519</ele>
        <time>2021-08-13T08:45:37.198Z</time>
      </trkpt>
      <trkpt lat="46.83267" lon="8.41793">
        <ele>1519</ele>
        <time>2021-08-13T08:45:38.197Z</time>
      </trkpt>
      <trkpt lat="46.83267" lon="8.41791">
        <ele>1519</ele>
        <time>2021-08-13T08:45:39.198Z</time>
      </trkpt>
      <trkpt lat="46.83267" lon="8.41789">
        <ele>1519</ele>
        <time>2021-08-13T08:45:40.197Z</time>
      </trkpt>
      <trkpt lat="46.83267" lon="8.41787">
        <ele>1519</ele>
        <time>2021-08-13T08:45:41.198Z</time>
      </trkpt>
      <trkpt lat="46.83267" lon="8.41785">
        <ele>1519</ele>
        <time>2021-08-13T08:45:42.198Z</time>
      </trkpt>
      <trkpt lat="46.83266" lon="8.41784">
        <ele>1519</ele>
        <time>2021-08-13T08:45:43.197Z</time>
      </trkpt>
      <trkpt lat="46.83266" lon="8.41783">
        <ele>1519</ele>
        <time>2021-08-13T08:45:44.198Z</time>
      </trkpt>
      <trkpt lat="46.83265" lon="8.41782">
        <ele>1519</ele>
        <time>2021-08-13T08:45:45.198Z</time>
      </trkpt>
      <trkpt lat="46.83265" lon="8.41782">
        <ele>1519</ele>
        <time>2021-08-13T08:45:46.198Z</time>
      </trkpt>
      <trkpt lat="46.83264" lon="8.41781">
        <ele>1520</ele>
        <time>2021-08-13T08:45:47.198Z</time>
      </trkpt>
      <trkpt lat="46.83264" lon="8.4178">
        <ele>1520</ele>
        <time>2021-08-13T08:45:48.198Z</time>
      </trkpt>
      <trkpt lat="46.83264" lon="8.4178">
        <ele>1520</ele>
        <time>2021-08-13T08:45:49.197Z</time>
      </trkpt>
      <trkpt lat="46.83263" lon="8.41779">
        <ele>1519</ele>
        <time>2021-08-13T08:45:50.197Z</time>
      </trkpt>
      <trkpt lat="46.83262" lon="8.41778">
        <ele>1519</ele>
        <time>2021-08-13T08:45:51.198Z</time>
      </trkpt>
      <trkpt lat="46.83261" lon="8.41777">
        <ele>1519</ele>
        <time>2021-08-13T08:45:52.198Z</time>
      </trkpt>
      <trkpt lat="46.8326" lon="8.41776">
        <ele>1518</ele>
        <time>2021-08-13T08:45:53.197Z</time>
      </trkpt>
      <trkpt lat="46.83259" lon="8.41775">
        <ele>1518</ele>
        <time>2021-08-13T08:45:54.197Z</time>
      </trkpt>
      <trkpt lat="46.83258" lon="8.41774">
        <ele>1518</ele>
        <time>2021-08-13T08:45:55.198Z</time>
      </trkpt>
      <trkpt lat="46.83257" lon="8.41772">
        <ele>1518</ele>
        <time>2021-08-13T08:45:56.198Z</time>
      </trkpt>
      <trkpt lat="46.83257" lon="8.4177">
        <ele>1518</ele>
        <time>2021-08-13T08:45:57.198Z</time>
      </trkpt>
      <trkpt lat="46.83256" lon="8.41769">
        <ele>1518</ele>
        <time>2021-08-13T08:45:58.198Z</time>
      </trkpt>
      <trkpt lat="46.83255" lon="8.41767">
        <ele>1518</ele>
        <time>2021-08-13T08:45:59.197Z</time>
      </trkpt>
      <trkpt lat="46.83254" lon="8.41765">
        <ele>1518</ele>
        <time>2021-08-13T08:46:00.198Z</time>
      </trkpt>
      <trkpt lat="46.83254" lon="8.41764">
        <ele>1518</ele>
        <time>2021-08-13T08:46:01.198Z</time>
      </trkpt>
      <trkpt lat="46.83253" lon="8.41763">
        <ele>1518</ele>
        <time>2021-08-13T08:46:02.197Z</time>
      </trkpt>
      <trkpt lat="46.83252" lon="8.41762">
        <ele>1517</ele>
        <time>2021-08-13T08:46:03.197Z</time>
      </trkpt>
      <trkpt lat="46.83251" lon="8.41761">
        <ele>1517</ele>
        <time>2021-08-13T08:46:04.198Z</time>
      </trkpt>
      <trkpt lat="46.8325" lon="8.4176">
        <ele>1517</ele>
        <time>2021-08-13T08:46:05.198Z</time>
      </trkpt>
      <trkpt lat="46.83249" lon="8.41759">
        <ele>1517</ele>
        <time>2021-08-13T08:46:06.197Z</time>
      </trkpt>
      <trkpt lat="46.83248" lon="8.41757">
        <ele>1517</ele>
        <time>2021-08-13T08:46:07.198Z</time>
      </trkpt>
      <trkpt lat="46.83248" lon="8.41756">
        <ele>1517</ele>
        <time>2021-08-13T08:46:08.197Z</time>
      </trkpt>
      <trkpt lat="46.83247" lon="8.41755">
        <ele>1517</ele>
        <time>2021-08-13T08:46:09.198Z</time>
      </trkpt>
      <trkpt lat="46.83247" lon="8.41753">
        <ele>1517</ele>
        <time>2021-08-13T08:46:10.197Z</time>
      </trkpt>
      <trkpt lat="46.83246" lon="8.41751">
        <ele>1517</ele>
        <time>2021-08-13T08:46:11.198Z</time>
      </trkpt>
      <trkpt lat="46.83245" lon="8.4175">
        <ele>1516</ele>
        <time>2021-08-13T08:46:12.197Z</time>
      </trkpt>
      <trkpt lat="46.83244" lon="8.41748">
        <ele>1516</ele>
        <time>2021-08-13T08:46:13.198Z</time>
      </trkpt>
      <trkpt lat="46.83244" lon="8.41747">
        <ele>1516</ele>
        <time>2021-08-13T08:46:14.197Z</time>
      </trkpt>
      <trkpt lat="46.83243" lon="8.41745">
        <ele>1516</ele>
        <time>2021-08-13T08:46:15.198Z</time>
      </trkpt>
      <trkpt lat="46.83243" lon="8.41744">
        <ele>1516</ele>
        <time>2021-08-13T08:46:16.197Z</time>
      </trkpt>
      <trkpt lat="46.83242" lon="8.41743">
        <ele>1516</ele>
        <time>2021-08-13T08:46:17.198Z</time>
      </trkpt>
      <trkpt lat="46.83241" lon="8.41742">
        <ele>1516</ele>
        <time>2021-08-13T08:46:18.197Z</time>
      </trkpt>
      <trkpt lat="46.83241" lon="8.4174">
        <ele>1516</ele>
        <time>2021-08-13T08:46:19.198Z</time>
      </trkpt>
      <trkpt lat="46.8324" lon="8.41738">
        <ele>1516</ele>
        <time>2021-08-13T08:46:20.198Z</time>
      </trkpt>
      <trkpt lat="46.8324" lon="8.41737">
        <ele>1515</ele>
        <time>2021-08-13T08:46:21.197Z</time>
      </trkpt>
      <trkpt lat="46.83239" lon="8.41735">
        <ele>1515</ele>
        <time>2021-08-13T08:46:22.198Z</time>
      </trkpt>
      <trkpt lat="46.83238" lon="8.41734">
        <ele>1515</ele>
        <time>2021-08-13T08:46:23.198Z</time>
      </trkpt>
      <trkpt lat="46.83237" lon="8.41733">
        <ele>1514</ele>
        <time>2021-08-13T08:46:24.197Z</time>
      </trkpt>
      <trkpt lat="46.83236" lon="8.41731">
        <ele>1514</ele>
        <time>2021-08-13T08:46:25.198Z</time>
      </trkpt>
      <trkpt lat="46.83235" lon="8.41731">
        <ele>1514</ele>
        <time>2021-08-13T08:46:26.198Z</time>
      </trkpt>
      <trkpt lat="46.83234" lon="8.4173">
        <ele>1514</ele>
        <time>2021-08-13T08:46:27.197Z</time>
      </trkpt>
      <trkpt lat="46.83233" lon="8.4173">
        <ele>1515</ele>
        <time>2021-08-13T08:46:28.198Z</time>
      </trkpt>
      <trkpt lat="46.83232" lon="8.41729">
        <ele>1515</ele>
        <time>2021-08-13T08:46:29.198Z</time>
      </trkpt>
      <trkpt lat="46.83231" lon="8.41729">
        <ele>1515</ele>
        <time>2021-08-13T08:46:30.198Z</time>
      </trkpt>
      <trkpt lat="46.8323" lon="8.41728">
        <ele>1515</ele>
        <time>2021-08-13T08:46:31.197Z</time>
      </trkpt>
      <trkpt lat="46.83229" lon="8.41728">
        <ele>1514</ele>
        <time>2021-08-13T08:46:32.197Z</time>
      </trkpt>
      <trkpt lat="46.83228" lon="8.41727">
        <ele>1514</ele>
        <time>2021-08-13T08:46:33.198Z</time>
      </trkpt>
      <trkpt lat="46.83227" lon="8.41726">
        <ele>1514</ele>
        <time>2021-08-13T08:46:34.197Z</time>
      </trkpt>
      <trkpt lat="46.83226" lon="8.41724">
        <ele>1513</ele>
        <time>2021-08-13T08:46:35.198Z</time>
      </trkpt>
      <trkpt lat="46.83225" lon="8.41723">
        <ele>1513</ele>
        <time>2021-08-13T08:46:36.198Z</time>
      </trkpt>
      <trkpt lat="46.83224" lon="8.41721">
        <ele>1513</ele>
        <time>2021-08-13T08:46:37.198Z</time>
      </trkpt>
      <trkpt lat="46.83223" lon="8.4172">
        <ele>1513</ele>
        <time>2021-08-13T08:46:38.198Z</time>
      </trkpt>
      <trkpt lat="46.83222" lon="8.41719">
        <ele>1513</ele>
        <time>2021-08-13T08:46:39.198Z</time>
      </trkpt>
      <trkpt lat="46.83221" lon="8.41717">
        <ele>1513</ele>
        <time>2021-08-13T08:46:40.197Z</time>
      </trkpt>
      <trkpt lat="46.8322" lon="8.41715">
        <ele>1513</ele>
        <time>2021-08-13T08:46:41.198Z</time>
      </trkpt>
      <trkpt lat="46.8322" lon="8.41713">
        <ele>1512</ele>
        <time>2021-08-13T08:46:42.197Z</time>
      </trkpt>
      <trkpt lat="46.83219" lon="8.41711">
        <ele>1512</ele>
        <time>2021-08-13T08:46:43.198Z</time>
      </trkpt>
      <trkpt lat="46.83219" lon="8.41709">
        <ele>1512</ele>
        <time>2021-08-13T08:46:44.198Z</time>
      </trkpt>
      <trkpt lat="46.83218" lon="8.41707">
        <ele>1512</ele>
        <time>2021-08-13T08:46:45.197Z</time>
      </trkpt>
      <trkpt lat="46.83218" lon="8.41705">
        <ele>1511</ele>
        <time>2021-08-13T08:46:46.198Z</time>
      </trkpt>
      <trkpt lat="46.83218" lon="8.41703">
        <ele>1511</ele>
        <time>2021-08-13T08:46:47.198Z</time>
      </trkpt>
      <trkpt lat="46.83218" lon="8.41701">
        <ele>1511</ele>
        <time>2021-08-13T08:46:48.197Z</time>
      </trkpt>
      <trkpt lat="46.83218" lon="8.41699">
        <ele>1511</ele>
        <time>2021-08-13T08:46:49.198Z</time>
      </trkpt>
      <trkpt lat="46.83219" lon="8.41697">
        <ele>1510</ele>
        <time>2021-08-13T08:46:50.198Z</time>
      </trkpt>
      <trkpt lat="46.83219" lon="8.41695">
        <ele>1510</ele>
        <time>2021-08-13T08:46:51.197Z</time>
      </trkpt>
      <trkpt lat="46.83219" lon="8.41693">
        <ele>1510</ele>
        <time>2021-08-13T08:46:52.198Z</time>
      </trkpt>
      <trkpt lat="46.83219" lon="8.41691">
        <ele>1509</ele>
        <time>2021-08-13T08:46:53.197Z</time>
      </trkpt>
      <trkpt lat="46.83219" lon="8.41689">
        <ele>1509</ele>
        <time>2021-08-13T08:46:54.198Z</time>
      </trkpt>
      <trkpt lat="46.8322" lon="8.41687">
        <ele>1509</ele>
        <time>2021-08-13T08:46:55.197Z</time>
      </trkpt>
      <trkpt lat="46.83221" lon="8.41685">
        <ele>1509</ele>
        <time>2021-08-13T08:46:56.198Z</time>
      </trkpt>
      <trkpt lat="46.83222" lon="8.41683">
        <ele>1509</ele>
        <time>2021-08-13T08:46:57.198Z</time>
      </trkpt>
      <trkpt lat="46.83222" lon="8.41681">
        <ele>1509</ele>
        <time>2021-08-13T08:46:58.197Z</time>
      </trkpt>
      <trkpt lat="46.83223" lon="8.41679">
        <ele>1509</ele>
        <time>2021-08-13T08:46:59.198Z</time>
      </trkpt>
      <trkpt lat="46.83223" lon="8.41677">
        <ele>1509</ele>
        <time>2021-08-13T08:47:00.197Z</time>
      </trkpt>
      <trkpt lat="46.83224" lon="8.41675">
        <ele>1509</ele>
        <time>2021-08-13T08:47:01.198Z</time>
      </trkpt>
      <trkpt lat="46.83224" lon="8.41673">
        <ele>1508</ele>
        <time>2021-08-13T08:47:02.197Z</time>
      </trkpt>
      <trkpt lat="46.83224" lon="8.41671">
        <ele>1508</ele>
        <time>2021-08-13T08:47:03.198Z</time>
      </trkpt>
      <trkpt lat="46.83225" lon="8.4167">
        <ele>1507</ele>
        <time>2021-08-13T08:47:04.198Z</time>
      </trkpt>
      <trkpt lat="46.83226" lon="8.41668">
        <ele>1507</ele>
        <time>2021-08-13T08:47:05.198Z</time>
      </trkpt>
      <trkpt lat="46.83226" lon="8.41667">
        <ele>1507</ele>
        <time>2021-08-13T08:47:06.198Z</time>
      </trkpt>
      <trkpt lat="46.83227" lon="8.41665">
        <ele>1507</ele>
        <time>2021-08-13T08:47:07.198Z</time>
      </trkpt>
      <trkpt lat="46.83228" lon="8.41664">
        <ele>1506</ele>
        <time>2021-08-13T08:47:08.198Z</time>
      </trkpt>
      <trkpt lat="46.83228" lon="8.41663">
        <ele>1506</ele>
        <time>2021-08-13T08:47:09.197Z</time>
      </trkpt>
      <trkpt lat="46.83229" lon="8.41661">
        <ele>1506</ele>
        <time>2021-08-13T08:47:10.197Z</time>
      </trkpt>
      <trkpt lat="46.83229" lon="8.4166">
        <ele>1506</ele>
        <time>2021-08-13T08:47:11.197Z</time>
      </trkpt>
      <trkpt lat="46.83229" lon="8.41658">
        <ele>1506</ele>
        <time>2021-08-13T08:47:12.198Z</time>
      </trkpt>
      <trkpt lat="46.8323" lon="8.41656">
        <ele>1506</ele>
        <time>2021-08-13T08:47:13.198Z</time>
      </trkpt>
      <trkpt lat="46.83229" lon="8.41654">
        <ele>1506</ele>
        <time>2021-08-13T08:47:14.198Z</time>
      </trkpt>
      <trkpt lat="46.83229" lon="8.41653">
        <ele>1506</ele>
        <time>2021-08-13T08:47:15.197Z</time>
      </trkpt>
      <trkpt lat="46.83229" lon="8.41651">
        <ele>1506</ele>
        <time>2021-08-13T08:47:16.197Z</time>
      </trkpt>
      <trkpt lat="46.83229" lon="8.4165">
        <ele>1506</ele>
        <time>2021-08-13T08:47:17.197Z</time>
      </trkpt>
      <trkpt lat="46.83229" lon="8.41648">
        <ele>1506</ele>
        <time>2021-08-13T08:47:18.197Z</time>
      </trkpt>
      <trkpt lat="46.83229" lon="8.41646">
        <ele>1506</ele>
        <time>2021-08-13T08:47:19.198Z</time>
      </trkpt>
      <trkpt lat="46.83228" lon="8.41645">
        <ele>1506</ele>
        <time>2021-08-13T08:47:20.197Z</time>
      </trkpt>
      <trkpt lat="46.83228" lon="8.41643">
        <ele>1506</ele>
        <time>2021-08-13T08:47:21.197Z</time>
      </trkpt>
      <trkpt lat="46.83228" lon="8.41641">
        <ele>1506</ele>
        <time>2021-08-13T08:47:22.197Z</time>
      </trkpt>
      <trkpt lat="46.83227" lon="8.41639">
        <ele>1505</ele>
        <time>2021-08-13T08:47:23.197Z</time>
      </trkpt>
      <trkpt lat="46.83226" lon="8.41637">
        <ele>1505</ele>
        <time>2021-08-13T08:47:24.198Z</time>
      </trkpt>
      <trkpt lat="46.83226" lon="8.41635">
        <ele>1506</ele>
        <time>2021-08-13T08:47:25.197Z</time>
      </trkpt>
      <trkpt lat="46.83225" lon="8.41633">
        <ele>1506</ele>
        <time>2021-08-13T08:47:26.197Z</time>
      </trkpt>
      <trkpt lat="46.83224" lon="8.41632">
        <ele>1506</ele>
        <time>2021-08-13T08:47:27.197Z</time>
      </trkpt>
      <trkpt lat="46.83223" lon="8.4163">
        <ele>1506</ele>
        <time>2021-08-13T08:47:28.197Z</time>
      </trkpt>
      <trkpt lat="46.83223" lon="8.41627">
        <ele>1506</ele>
        <time>2021-08-13T08:47:29.197Z</time>
      </trkpt>
      <trkpt lat="46.83222" lon="8.41625">
        <ele>1505</ele>
        <time>2021-08-13T08:47:30.197Z</time>
      </trkpt>
      <trkpt lat="46.83222" lon="8.41623">
        <ele>1505</ele>
        <time>2021-08-13T08:47:31.198Z</time>
      </trkpt>
      <trkpt lat="46.83221" lon="8.41621">
        <ele>1506</ele>
        <time>2021-08-13T08:47:32.197Z</time>
      </trkpt>
      <trkpt lat="46.83221" lon="8.4162">
        <ele>1506</ele>
        <time>2021-08-13T08:47:33.197Z</time>
      </trkpt>
      <trkpt lat="46.8322" lon="8.41618">
        <ele>1505</ele>
        <time>2021-08-13T08:47:34.198Z</time>
      </trkpt>
      <trkpt lat="46.8322" lon="8.41616">
        <ele>1505</ele>
        <time>2021-08-13T08:47:35.197Z</time>
      </trkpt>
      <trkpt lat="46.8322" lon="8.41614">
        <ele>1505</ele>
        <time>2021-08-13T08:47:36.197Z</time>
      </trkpt>
      <trkpt lat="46.83219" lon="8.41612">
        <ele>1504</ele>
        <time>2021-08-13T08:47:37.197Z</time>
      </trkpt>
      <trkpt lat="46.8322" lon="8.4161">
        <ele>1504</ele>
        <time>2021-08-13T08:47:38.197Z</time>
      </trkpt>
      <trkpt lat="46.8322" lon="8.41608">
        <ele>1504</ele>
        <time>2021-08-13T08:47:39.197Z</time>
      </trkpt>
      <trkpt lat="46.83221" lon="8.41607">
        <ele>1504</ele>
        <time>2021-08-13T08:47:40.197Z</time>
      </trkpt>
      <trkpt lat="46.83222" lon="8.41606">
        <ele>1504</ele>
        <time>2021-08-13T08:47:41.197Z</time>
      </trkpt>
      <trkpt lat="46.83222" lon="8.41605">
        <ele>1504</ele>
        <time>2021-08-13T08:47:42.197Z</time>
      </trkpt>
      <trkpt lat="46.83222" lon="8.41604">
        <ele>1504</ele>
        <time>2021-08-13T08:47:43.197Z</time>
      </trkpt>
      <trkpt lat="46.83222" lon="8.41603">
        <ele>1504</ele>
        <time>2021-08-13T08:47:44.197Z</time>
      </trkpt>
      <trkpt lat="46.83222" lon="8.41602">
        <ele>1504</ele>
        <time>2021-08-13T08:47:45.197Z</time>
      </trkpt>
      <trkpt lat="46.83222" lon="8.41602">
        <ele>1503</ele>
        <time>2021-08-13T08:47:46.197Z</time>
      </trkpt>
      <trkpt lat="46.83222" lon="8.41602">
        <ele>1503</ele>
        <time>2021-08-13T08:47:47.197Z</time>
      </trkpt>
      <trkpt lat="46.83223" lon="8.41604">
        <ele>1501</ele>
        <time>2021-08-13T08:47:48.198Z</time>
      </trkpt>
      <trkpt lat="46.83223" lon="8.41604">
        <ele>1501</ele>
        <time>2021-08-13T08:47:49.198Z</time>
      </trkpt>
      <trkpt lat="46.83222" lon="8.41605">
        <ele>1501</ele>
        <time>2021-08-13T08:47:50.198Z</time>
      </trkpt>
      <trkpt lat="46.83223" lon="8.41606">
        <ele>1501</ele>
        <time>2021-08-13T08:47:51.198Z</time>
      </trkpt>
      <trkpt lat="46.83223" lon="8.41606">
        <ele>1501</ele>
        <time>2021-08-13T08:47:52.198Z</time>
      </trkpt>
      <trkpt lat="46.83223" lon="8.41607">
        <ele>1501</ele>
        <time>2021-08-13T08:47:53.198Z</time>
      </trkpt>
      <trkpt lat="46.83223" lon="8.41607">
        <ele>1501</ele>
        <time>2021-08-13T08:47:54.198Z</time>
      </trkpt>
      <trkpt lat="46.83223" lon="8.41605">
        <ele>1504</ele>
        <time>2021-08-13T08:47:55.198Z</time>
      </trkpt>
      <trkpt lat="46.83223" lon="8.41604">
        <ele>1504</ele>
        <time>2021-08-13T08:47:56.198Z</time>
      </trkpt>
      <trkpt lat="46.83224" lon="8.41602">
        <ele>1503</ele>
        <time>2021-08-13T08:47:57.199Z</time>
      </trkpt>
      <trkpt lat="46.83224" lon="8.41601">
        <ele>1503</ele>
        <time>2021-08-13T08:47:58.198Z</time>
      </trkpt>
      <trkpt lat="46.83224" lon="8.41599">
        <ele>1502</ele>
        <time>2021-08-13T08:47:59.199Z</time>
      </trkpt>
      <trkpt lat="46.83224" lon="8.41597">
        <ele>1502</ele>
        <time>2021-08-13T08:48:00.198Z</time>
      </trkpt>
      <trkpt lat="46.83224" lon="8.41596">
        <ele>1502</ele>
        <time>2021-08-13T08:48:01.198Z</time>
      </trkpt>
      <trkpt lat="46.83224" lon="8.41593">
        <ele>1501</ele>
        <time>2021-08-13T08:48:02.198Z</time>
      </trkpt>
      <trkpt lat="46.83223" lon="8.4159">
        <ele>1501</ele>
        <time>2021-08-13T08:48:03.198Z</time>
      </trkpt>
      <trkpt lat="46.83223" lon="8.41589">
        <ele>1501</ele>
        <time>2021-08-13T08:48:04.198Z</time>
      </trkpt>
      <trkpt lat="46.83222" lon="8.41587">
        <ele>1501</ele>
        <time>2021-08-13T08:48:05.199Z</time>
      </trkpt>
      <trkpt lat="46.83222" lon="8.41585">
        <ele>1500</ele>
        <time>2021-08-13T08:48:06.198Z</time>
      </trkpt>
      <trkpt lat="46.8322" lon="8.41582">
        <ele>1500</ele>
        <time>2021-08-13T08:48:07.199Z</time>
      </trkpt>
      <trkpt lat="46.83219" lon="8.4158">
        <ele>1501</ele>
        <time>2021-08-13T08:48:08.199Z</time>
      </trkpt>
      <trkpt lat="46.83218" lon="8.41578">
        <ele>1501</ele>
        <time>2021-08-13T08:48:09.199Z</time>
      </trkpt>
      <trkpt lat="46.83216" lon="8.41576">
        <ele>1502</ele>
        <time>2021-08-13T08:48:10.198Z</time>
      </trkpt>
      <trkpt lat="46.83214" lon="8.41575">
        <ele>1502</ele>
        <time>2021-08-13T08:48:11.199Z</time>
      </trkpt>
      <trkpt lat="46.83213" lon="8.41575">
        <ele>1502</ele>
        <time>2021-08-13T08:48:12.198Z</time>
      </trkpt>
      <trkpt lat="46.83211" lon="8.41574">
        <ele>1502</ele>
        <time>2021-08-13T08:48:13.199Z</time>
      </trkpt>
      <trkpt lat="46.8321" lon="8.41574">
        <ele>1503</ele>
        <time>2021-08-13T08:48:14.199Z</time>
      </trkpt>
      <trkpt lat="46.83209" lon="8.41574">
        <ele>1503</ele>
        <time>2021-08-13T08:48:15.198Z</time>
      </trkpt>
      <trkpt lat="46.83208" lon="8.41574">
        <ele>1504</ele>
        <time>2021-08-13T08:48:16.198Z</time>
      </trkpt>
      <trkpt lat="46.83207" lon="8.41574">
        <ele>1504</ele>
        <time>2021-08-13T08:48:17.199Z</time>
      </trkpt>
      <trkpt lat="46.83206" lon="8.41575">
        <ele>1504</ele>
        <time>2021-08-13T08:48:18.199Z</time>
      </trkpt>
      <trkpt lat="46.83205" lon="8.41576">
        <ele>1504</ele>
        <time>2021-08-13T08:48:19.199Z</time>
      </trkpt>
      <trkpt lat="46.83203" lon="8.41576">
        <ele>1504</ele>
        <time>2021-08-13T08:48:20.198Z</time>
      </trkpt>
      <trkpt lat="46.83202" lon="8.41576">
        <ele>1504</ele>
        <time>2021-08-13T08:48:21.198Z</time>
      </trkpt>
      <trkpt lat="46.83201" lon="8.41577">
        <ele>1505</ele>
        <time>2021-08-13T08:48:22.198Z</time>
      </trkpt>
      <trkpt lat="46.83199" lon="8.41577">
        <ele>1505</ele>
        <time>2021-08-13T08:48:23.198Z</time>
      </trkpt>
      <trkpt lat="46.83198" lon="8.41577">
        <ele>1506</ele>
        <time>2021-08-13T08:48:24.199Z</time>
      </trkpt>
      <trkpt lat="46.83196" lon="8.41578">
        <ele>1506</ele>
        <time>2021-08-13T08:48:25.199Z</time>
      </trkpt>
      <trkpt lat="46.83195" lon="8.4158">
        <ele>1505</ele>
        <time>2021-08-13T08:48:26.199Z</time>
      </trkpt>
      <trkpt lat="46.83194" lon="8.41582">
        <ele>1504</ele>
        <time>2021-08-13T08:48:27.199Z</time>
      </trkpt>
      <trkpt lat="46.83193" lon="8.41583">
        <ele>1504</ele>
        <time>2021-08-13T08:48:28.198Z</time>
      </trkpt>
      <trkpt lat="46.83192" lon="8.41585">
        <ele>1503</ele>
        <time>2021-08-13T08:48:29.199Z</time>
      </trkpt>
      <trkpt lat="46.83191" lon="8.41586">
        <ele>1502</ele>
        <time>2021-08-13T08:48:30.199Z</time>
      </trkpt>
      <trkpt lat="46.8319" lon="8.41588">
        <ele>1501</ele>
        <time>2021-08-13T08:48:31.198Z</time>
      </trkpt>
      <trkpt lat="46.83189" lon="8.41589">
        <ele>1500</ele>
        <time>2021-08-13T08:48:32.199Z</time>
      </trkpt>
      <trkpt lat="46.83188" lon="8.4159">
        <ele>1500</ele>
        <time>2021-08-13T08:48:33.198Z</time>
      </trkpt>
      <trkpt lat="46.83187" lon="8.41592">
        <ele>1499</ele>
        <time>2021-08-13T08:48:34.198Z</time>
      </trkpt>
      <trkpt lat="46.83186" lon="8.41594">
        <ele>1499</ele>
        <time>2021-08-13T08:48:35.198Z</time>
      </trkpt>
      <trkpt lat="46.83185" lon="8.41595">
        <ele>1499</ele>
        <time>2021-08-13T08:48:36.199Z</time>
      </trkpt>
      <trkpt lat="46.83185" lon="8.41597">
        <ele>1498</ele>
        <time>2021-08-13T08:48:37.198Z</time>
      </trkpt>
      <trkpt lat="46.83184" lon="8.41599">
        <ele>1498</ele>
        <time>2021-08-13T08:48:38.198Z</time>
      </trkpt>
      <trkpt lat="46.83184" lon="8.41601">
        <ele>1497</ele>
        <time>2021-08-13T08:48:39.199Z</time>
      </trkpt>
      <trkpt lat="46.83183" lon="8.41603">
        <ele>1496</ele>
        <time>2021-08-13T08:48:40.198Z</time>
      </trkpt>
      <trkpt lat="46.83182" lon="8.41605">
        <ele>1496</ele>
        <time>2021-08-13T08:48:41.198Z</time>
      </trkpt>
      <trkpt lat="46.83182" lon="8.41606">
        <ele>1495</ele>
        <time>2021-08-13T08:48:42.198Z</time>
      </trkpt>
      <trkpt lat="46.83181" lon="8.41608">
        <ele>1495</ele>
        <time>2021-08-13T08:48:43.198Z</time>
      </trkpt>
      <trkpt lat="46.8318" lon="8.4161">
        <ele>1495</ele>
        <time>2021-08-13T08:48:44.199Z</time>
      </trkpt>
      <trkpt lat="46.8318" lon="8.41612">
        <ele>1494</ele>
        <time>2021-08-13T08:48:45.199Z</time>
      </trkpt>
      <trkpt lat="46.83179" lon="8.41614">
        <ele>1494</ele>
        <time>2021-08-13T08:48:46.198Z</time>
      </trkpt>
      <trkpt lat="46.83178" lon="8.41616">
        <ele>1494</ele>
        <time>2021-08-13T08:48:47.198Z</time>
      </trkpt>
      <trkpt lat="46.83178" lon="8.41618">
        <ele>1494</ele>
        <time>2021-08-13T08:48:48.198Z</time>
      </trkpt>
      <trkpt lat="46.83177" lon="8.4162">
        <ele>1493</ele>
        <time>2021-08-13T08:48:49.198Z</time>
      </trkpt>
      <trkpt lat="46.83176" lon="8.41621">
        <ele>1493</ele>
        <time>2021-08-13T08:48:50.198Z</time>
      </trkpt>
      <trkpt lat="46.83176" lon="8.41622">
        <ele>1493</ele>
        <time>2021-08-13T08:48:51.198Z</time>
      </trkpt>
      <trkpt lat="46.83175" lon="8.41624">
        <ele>1493</ele>
        <time>2021-08-13T08:48:52.198Z</time>
      </trkpt>
      <trkpt lat="46.83174" lon="8.41625">
        <ele>1493</ele>
        <time>2021-08-13T08:48:53.199Z</time>
      </trkpt>
      <trkpt lat="46.83173" lon="8.41626">
        <ele>1492</ele>
        <time>2021-08-13T08:48:54.199Z</time>
      </trkpt>
      <trkpt lat="46.83173" lon="8.41627">
        <ele>1492</ele>
        <time>2021-08-13T08:48:55.198Z</time>
      </trkpt>
      <trkpt lat="46.83171" lon="8.41629">
        <ele>1493</ele>
        <time>2021-08-13T08:48:56.198Z</time>
      </trkpt>
      <trkpt lat="46.8317" lon="8.4163">
        <ele>1493</ele>
        <time>2021-08-13T08:48:57.198Z</time>
      </trkpt>
      <trkpt lat="46.83169" lon="8.41631">
        <ele>1493</ele>
        <time>2021-08-13T08:48:58.199Z</time>
      </trkpt>
      <trkpt lat="46.83169" lon="8.41632">
        <ele>1493</ele>
        <time>2021-08-13T08:48:59.198Z</time>
      </trkpt>
      <trkpt lat="46.83168" lon="8.41632">
        <ele>1493</ele>
        <time>2021-08-13T08:49:00.198Z</time>
      </trkpt>
      <trkpt lat="46.83166" lon="8.41633">
        <ele>1493</ele>
        <time>2021-08-13T08:49:01.198Z</time>
      </trkpt>
      <trkpt lat="46.83165" lon="8.41634">
        <ele>1493</ele>
        <time>2021-08-13T08:49:02.198Z</time>
      </trkpt>
      <trkpt lat="46.83164" lon="8.41635">
        <ele>1493</ele>
        <time>2021-08-13T08:49:03.198Z</time>
      </trkpt>
      <trkpt lat="46.83163" lon="8.41635">
        <ele>1493</ele>
        <time>2021-08-13T08:49:04.198Z</time>
      </trkpt>
      <trkpt lat="46.83161" lon="8.41636">
        <ele>1493</ele>
        <time>2021-08-13T08:49:05.198Z</time>
      </trkpt>
      <trkpt lat="46.8316" lon="8.41636">
        <ele>1493</ele>
        <time>2021-08-13T08:49:06.198Z</time>
      </trkpt>
      <trkpt lat="46.83159" lon="8.41637">
        <ele>1493</ele>
        <time>2021-08-13T08:49:07.198Z</time>
      </trkpt>
      <trkpt lat="46.83157" lon="8.41637">
        <ele>1493</ele>
        <time>2021-08-13T08:49:08.199Z</time>
      </trkpt>
      <trkpt lat="46.83156" lon="8.41638">
        <ele>1493</ele>
        <time>2021-08-13T08:49:09.199Z</time>
      </trkpt>
      <trkpt lat="46.83155" lon="8.41639">
        <ele>1494</ele>
        <time>2021-08-13T08:49:10.198Z</time>
      </trkpt>
      <trkpt lat="46.83154" lon="8.41639">
        <ele>1494</ele>
        <time>2021-08-13T08:49:11.198Z</time>
      </trkpt>
      <trkpt lat="46.83152" lon="8.4164">
        <ele>1494</ele>
        <time>2021-08-13T08:49:12.198Z</time>
      </trkpt>
      <trkpt lat="46.83151" lon="8.41641">
        <ele>1494</ele>
        <time>2021-08-13T08:49:13.198Z</time>
      </trkpt>
      <trkpt lat="46.8315" lon="8.41642">
        <ele>1494</ele>
        <time>2021-08-13T08:49:14.199Z</time>
      </trkpt>
      <trkpt lat="46.83149" lon="8.41643">
        <ele>1494</ele>
        <time>2021-08-13T08:49:15.198Z</time>
      </trkpt>
      <trkpt lat="46.83148" lon="8.41643">
        <ele>1494</ele>
        <time>2021-08-13T08:49:16.198Z</time>
      </trkpt>
      <trkpt lat="46.83147" lon="8.41644">
        <ele>1493</ele>
        <time>2021-08-13T08:49:17.199Z</time>
      </trkpt>
      <trkpt lat="46.83146" lon="8.41644">
        <ele>1493</ele>
        <time>2021-08-13T08:49:18.199Z</time>
      </trkpt>
      <trkpt lat="46.83146" lon="8.41644">
        <ele>1493</ele>
        <time>2021-08-13T08:49:19.199Z</time>
      </trkpt>
      <trkpt lat="46.83146" lon="8.41644">
        <ele>1492</ele>
        <time>2021-08-13T08:49:21.198Z</time>
      </trkpt>
      <trkpt lat="46.83146" lon="8.41642">
        <ele>1492</ele>
        <time>2021-08-13T08:49:23.198Z</time>
      </trkpt>
      <trkpt lat="46.83145" lon="8.41643">
        <ele>1492</ele>
        <time>2021-08-13T08:49:24.199Z</time>
      </trkpt>
      <trkpt lat="46.83145" lon="8.41644">
        <ele>1492</ele>
        <time>2021-08-13T08:49:25.198Z</time>
      </trkpt>
      <trkpt lat="46.83145" lon="8.41645">
        <ele>1491</ele>
        <time>2021-08-13T08:49:26.198Z</time>
      </trkpt>
      <trkpt lat="46.83144" lon="8.41645">
        <ele>1491</ele>
        <time>2021-08-13T08:49:27.199Z</time>
      </trkpt>
      <trkpt lat="46.83145" lon="8.41644">
        <ele>1490</ele>
        <time>2021-08-13T08:49:28.200Z</time>
      </trkpt>
      <trkpt lat="46.83145" lon="8.41643">
        <ele>1490</ele>
        <time>2021-08-13T08:49:29.200Z</time>
      </trkpt>
      <trkpt lat="46.83145" lon="8.41643">
        <ele>1491</ele>
        <time>2021-08-13T08:49:30.199Z</time>
      </trkpt>
      <trkpt lat="46.83144" lon="8.41643">
        <ele>1490</ele>
        <time>2021-08-13T08:49:31.199Z</time>
      </trkpt>
      <trkpt lat="46.83144" lon="8.41644">
        <ele>1490</ele>
        <time>2021-08-13T08:49:32.199Z</time>
      </trkpt>
      <trkpt lat="46.83143" lon="8.41644">
        <ele>1490</ele>
        <time>2021-08-13T08:49:33.200Z</time>
      </trkpt>
      <trkpt lat="46.83142" lon="8.41644">
        <ele>1490</ele>
        <time>2021-08-13T08:49:34.199Z</time>
      </trkpt>
      <trkpt lat="46.83142" lon="8.41645">
        <ele>1490</ele>
        <time>2021-08-13T08:49:35.200Z</time>
      </trkpt>
      <trkpt lat="46.83141" lon="8.41645">
        <ele>1490</ele>
        <time>2021-08-13T08:49:36.200Z</time>
      </trkpt>
      <trkpt lat="46.83141" lon="8.41645">
        <ele>1490</ele>
        <time>2021-08-13T08:49:37.199Z</time>
      </trkpt>
      <trkpt lat="46.8314" lon="8.41646">
        <ele>1490</ele>
        <time>2021-08-13T08:49:38.199Z</time>
      </trkpt>
      <trkpt lat="46.83139" lon="8.41645">
        <ele>1490</ele>
        <time>2021-08-13T08:49:39.199Z</time>
      </trkpt>
      <trkpt lat="46.83138" lon="8.41645">
        <ele>1491</ele>
        <time>2021-08-13T08:49:40.200Z</time>
      </trkpt>
      <trkpt lat="46.83137" lon="8.41644">
        <ele>1491</ele>
        <time>2021-08-13T08:49:41.199Z</time>
      </trkpt>
      <trkpt lat="46.83136" lon="8.41644">
        <ele>1492</ele>
        <time>2021-08-13T08:49:42.199Z</time>
      </trkpt>
      <trkpt lat="46.83135" lon="8.41644">
        <ele>1492</ele>
        <time>2021-08-13T08:49:43.200Z</time>
      </trkpt>
      <trkpt lat="46.83134" lon="8.41645">
        <ele>1493</ele>
        <time>2021-08-13T08:49:44.200Z</time>
      </trkpt>
      <trkpt lat="46.83133" lon="8.41645">
        <ele>1493</ele>
        <time>2021-08-13T08:49:45.200Z</time>
      </trkpt>
      <trkpt lat="46.83132" lon="8.41645">
        <ele>1493</ele>
        <time>2021-08-13T08:49:46.200Z</time>
      </trkpt>
      <trkpt lat="46.83131" lon="8.41645">
        <ele>1493</ele>
        <time>2021-08-13T08:49:47.199Z</time>
      </trkpt>
      <trkpt lat="46.83129" lon="8.41645">
        <ele>1493</ele>
        <time>2021-08-13T08:49:48.199Z</time>
      </trkpt>
      <trkpt lat="46.83129" lon="8.41645">
        <ele>1493</ele>
        <time>2021-08-13T08:49:49.200Z</time>
      </trkpt>
      <trkpt lat="46.83128" lon="8.41645">
        <ele>1493</ele>
        <time>2021-08-13T08:49:50.200Z</time>
      </trkpt>
      <trkpt lat="46.83128" lon="8.41644">
        <ele>1493</ele>
        <time>2021-08-13T08:49:51.200Z</time>
      </trkpt>
      <trkpt lat="46.83128" lon="8.41644">
        <ele>1493</ele>
        <time>2021-08-13T08:49:52.200Z</time>
      </trkpt>
      <trkpt lat="46.83128" lon="8.41643">
        <ele>1492</ele>
        <time>2021-08-13T08:49:53.200Z</time>
      </trkpt>
      <trkpt lat="46.83128" lon="8.41642">
        <ele>1492</ele>
        <time>2021-08-13T08:49:54.200Z</time>
      </trkpt>
      <trkpt lat="46.83127" lon="8.41642">
        <ele>1491</ele>
        <time>2021-08-13T08:49:55.200Z</time>
      </trkpt>
      <trkpt lat="46.83127" lon="8.41642">
        <ele>1489</ele>
        <time>2021-08-13T08:49:56.200Z</time>
      </trkpt>
      <trkpt lat="46.83127" lon="8.41641">
        <ele>1488</ele>
        <time>2021-08-13T08:49:57.200Z</time>
      </trkpt>
      <trkpt lat="46.83127" lon="8.4164">
        <ele>1488</ele>
        <time>2021-08-13T08:49:58.200Z</time>
      </trkpt>
      <trkpt lat="46.83126" lon="8.4164">
        <ele>1488</ele>
        <time>2021-08-13T08:49:59.200Z</time>
      </trkpt>
      <trkpt lat="46.83126" lon="8.41639">
        <ele>1487</ele>
        <time>2021-08-13T08:50:00.200Z</time>
      </trkpt>
      <trkpt lat="46.83126" lon="8.41638">
        <ele>1486</ele>
        <time>2021-08-13T08:50:01.199Z</time>
      </trkpt>
      <trkpt lat="46.83126" lon="8.41638">
        <ele>1486</ele>
        <time>2021-08-13T08:50:02.200Z</time>
      </trkpt>
      <trkpt lat="46.83126" lon="8.41637">
        <ele>1485</ele>
        <time>2021-08-13T08:50:03.199Z</time>
      </trkpt>
      <trkpt lat="46.83125" lon="8.41636">
        <ele>1485</ele>
        <time>2021-08-13T08:50:04.199Z</time>
      </trkpt>
      <trkpt lat="46.83124" lon="8.41635">
        <ele>1485</ele>
        <time>2021-08-13T08:50:05.200Z</time>
      </trkpt>
      <trkpt lat="46.83124" lon="8.41634">
        <ele>1485</ele>
        <time>2021-08-13T08:50:06.200Z</time>
      </trkpt>
      <trkpt lat="46.83123" lon="8.41634">
        <ele>1486</ele>
        <time>2021-08-13T08:50:07.200Z</time>
      </trkpt>
      <trkpt lat="46.83122" lon="8.41633">
        <ele>1486</ele>
        <time>2021-08-13T08:50:08.200Z</time>
      </trkpt>
      <trkpt lat="46.83122" lon="8.41633">
        <ele>1487</ele>
        <time>2021-08-13T08:50:09.200Z</time>
      </trkpt>
      <trkpt lat="46.8312" lon="8.41632">
        <ele>1488</ele>
        <time>2021-08-13T08:50:10.199Z</time>
      </trkpt>
      <trkpt lat="46.83119" lon="8.41632">
        <ele>1488</ele>
        <time>2021-08-13T08:50:11.200Z</time>
      </trkpt>
      <trkpt lat="46.83119" lon="8.41632">
        <ele>1488</ele>
        <time>2021-08-13T08:50:12.200Z</time>
      </trkpt>
      <trkpt lat="46.83118" lon="8.41631">
        <ele>1488</ele>
        <time>2021-08-13T08:50:13.199Z</time>
      </trkpt>
      <trkpt lat="46.83117" lon="8.41631">
        <ele>1488</ele>
        <time>2021-08-13T08:50:14.200Z</time>
      </trkpt>
      <trkpt lat="46.83116" lon="8.4163">
        <ele>1488</ele>
        <time>2021-08-13T08:50:15.200Z</time>
      </trkpt>
      <trkpt lat="46.83115" lon="8.4163">
        <ele>1488</ele>
        <time>2021-08-13T08:50:16.199Z</time>
      </trkpt>
      <trkpt lat="46.83115" lon="8.4163">
        <ele>1488</ele>
        <time>2021-08-13T08:50:17.199Z</time>
      </trkpt>
      <trkpt lat="46.83114" lon="8.4163">
        <ele>1488</ele>
        <time>2021-08-13T08:50:18.199Z</time>
      </trkpt>
      <trkpt lat="46.83113" lon="8.4163">
        <ele>1489</ele>
        <time>2021-08-13T08:50:19.199Z</time>
      </trkpt>
      <trkpt lat="46.83112" lon="8.4163">
        <ele>1489</ele>
        <time>2021-08-13T08:50:20.200Z</time>
      </trkpt>
      <trkpt lat="46.83112" lon="8.4163">
        <ele>1489</ele>
        <time>2021-08-13T08:50:21.200Z</time>
      </trkpt>
      <trkpt lat="46.83111" lon="8.4163">
        <ele>1489</ele>
        <time>2021-08-13T08:50:22.200Z</time>
      </trkpt>
      <trkpt lat="46.8311" lon="8.4163">
        <ele>1489</ele>
        <time>2021-08-13T08:50:23.200Z</time>
      </trkpt>
      <trkpt lat="46.83109" lon="8.4163">
        <ele>1490</ele>
        <time>2021-08-13T08:50:24.200Z</time>
      </trkpt>
      <trkpt lat="46.83108" lon="8.4163">
        <ele>1489</ele>
        <time>2021-08-13T08:50:25.200Z</time>
      </trkpt>
      <trkpt lat="46.83107" lon="8.4163">
        <ele>1489</ele>
        <time>2021-08-13T08:50:26.200Z</time>
      </trkpt>
      <trkpt lat="46.83106" lon="8.4163">
        <ele>1488</ele>
        <time>2021-08-13T08:50:27.200Z</time>
      </trkpt>
      <trkpt lat="46.83106" lon="8.4163">
        <ele>1487</ele>
        <time>2021-08-13T08:50:28.200Z</time>
      </trkpt>
      <trkpt lat="46.83105" lon="8.4163">
        <ele>1486</ele>
        <time>2021-08-13T08:50:29.200Z</time>
      </trkpt>
      <trkpt lat="46.83104" lon="8.4163">
        <ele>1485</ele>
        <time>2021-08-13T08:50:30.200Z</time>
      </trkpt>
      <trkpt lat="46.83104" lon="8.41629">
        <ele>1484</ele>
        <time>2021-08-13T08:50:31.200Z</time>
      </trkpt>
      <trkpt lat="46.83103" lon="8.41628">
        <ele>1484</ele>
        <time>2021-08-13T08:50:32.200Z</time>
      </trkpt>
      <trkpt lat="46.83102" lon="8.41627">
        <ele>1483</ele>
        <time>2021-08-13T08:50:33.200Z</time>
      </trkpt>
      <trkpt lat="46.83101" lon="8.41626">
        <ele>1483</ele>
        <time>2021-08-13T08:50:34.200Z</time>
      </trkpt>
      <trkpt lat="46.831" lon="8.41624">
        <ele>1483</ele>
        <time>2021-08-13T08:50:35.200Z</time>
      </trkpt>
      <trkpt lat="46.83099" lon="8.41624">
        <ele>1483</ele>
        <time>2021-08-13T08:50:36.200Z</time>
      </trkpt>
      <trkpt lat="46.83098" lon="8.41624">
        <ele>1482</ele>
        <time>2021-08-13T08:50:37.199Z</time>
      </trkpt>
      <trkpt lat="46.83097" lon="8.41623">
        <ele>1482</ele>
        <time>2021-08-13T08:50:38.199Z</time>
      </trkpt>
      <trkpt lat="46.83096" lon="8.41622">
        <ele>1481</ele>
        <time>2021-08-13T08:50:39.199Z</time>
      </trkpt>
      <trkpt lat="46.83095" lon="8.41622">
        <ele>1481</ele>
        <time>2021-08-13T08:50:40.199Z</time>
      </trkpt>
      <trkpt lat="46.83094" lon="8.41622">
        <ele>1481</ele>
        <time>2021-08-13T08:50:41.199Z</time>
      </trkpt>
      <trkpt lat="46.83093" lon="8.41622">
        <ele>1480</ele>
        <time>2021-08-13T08:50:42.200Z</time>
      </trkpt>
      <trkpt lat="46.83093" lon="8.41622">
        <ele>1480</ele>
        <time>2021-08-13T08:50:43.199Z</time>
      </trkpt>
      <trkpt lat="46.83092" lon="8.41621">
        <ele>1481</ele>
        <time>2021-08-13T08:50:44.199Z</time>
      </trkpt>
      <trkpt lat="46.83091" lon="8.41621">
        <ele>1481</ele>
        <time>2021-08-13T08:50:45.200Z</time>
      </trkpt>
      <trkpt lat="46.8309" lon="8.41621">
        <ele>1481</ele>
        <time>2021-08-13T08:50:46.200Z</time>
      </trkpt>
      <trkpt lat="46.83089" lon="8.4162">
        <ele>1482</ele>
        <time>2021-08-13T08:50:47.199Z</time>
      </trkpt>
      <trkpt lat="46.83088" lon="8.4162">
        <ele>1483</ele>
        <time>2021-08-13T08:50:48.199Z</time>
      </trkpt>
      <trkpt lat="46.83088" lon="8.4162">
        <ele>1483</ele>
        <time>2021-08-13T08:50:49.200Z</time>
      </trkpt>
      <trkpt lat="46.83087" lon="8.4162">
        <ele>1484</ele>
        <time>2021-08-13T08:50:50.200Z</time>
      </trkpt>
      <trkpt lat="46.83086" lon="8.4162">
        <ele>1484</ele>
        <time>2021-08-13T08:50:51.199Z</time>
      </trkpt>
      <trkpt lat="46.83085" lon="8.4162">
        <ele>1484</ele>
        <time>2021-08-13T08:50:52.199Z</time>
      </trkpt>
      <trkpt lat="46.83084" lon="8.4162">
        <ele>1483</ele>
        <time>2021-08-13T08:50:53.199Z</time>
      </trkpt>
      <trkpt lat="46.83084" lon="8.4162">
        <ele>1483</ele>
        <time>2021-08-13T08:50:54.199Z</time>
      </trkpt>
      <trkpt lat="46.83083" lon="8.4162">
        <ele>1483</ele>
        <time>2021-08-13T08:50:55.199Z</time>
      </trkpt>
      <trkpt lat="46.83082" lon="8.41621">
        <ele>1483</ele>
        <time>2021-08-13T08:50:56.199Z</time>
      </trkpt>
      <trkpt lat="46.83081" lon="8.41622">
        <ele>1483</ele>
        <time>2021-08-13T08:50:57.199Z</time>
      </trkpt>
      <trkpt lat="46.83081" lon="8.41622">
        <ele>1483</ele>
        <time>2021-08-13T08:50:58.199Z</time>
      </trkpt>
      <trkpt lat="46.8308" lon="8.41623">
        <ele>1483</ele>
        <time>2021-08-13T08:50:59.199Z</time>
      </trkpt>
      <trkpt lat="46.83079" lon="8.41623">
        <ele>1483</ele>
        <time>2021-08-13T08:51:00.200Z</time>
      </trkpt>
      <trkpt lat="46.83078" lon="8.41624">
        <ele>1484</ele>
        <time>2021-08-13T08:51:01.200Z</time>
      </trkpt>
      <trkpt lat="46.83078" lon="8.41624">
        <ele>1484</ele>
        <time>2021-08-13T08:51:02.199Z</time>
      </trkpt>
      <trkpt lat="46.83077" lon="8.41624">
        <ele>1485</ele>
        <time>2021-08-13T08:51:03.199Z</time>
      </trkpt>
      <trkpt lat="46.83077" lon="8.41625">
        <ele>1485</ele>
        <time>2021-08-13T08:51:04.199Z</time>
      </trkpt>
      <trkpt lat="46.83076" lon="8.41625">
        <ele>1486</ele>
        <time>2021-08-13T08:51:05.199Z</time>
      </trkpt>
      <trkpt lat="46.83075" lon="8.41625">
        <ele>1486</ele>
        <time>2021-08-13T08:51:06.199Z</time>
      </trkpt>
      <trkpt lat="46.83075" lon="8.41626">
        <ele>1487</ele>
        <time>2021-08-13T08:51:07.199Z</time>
      </trkpt>
      <trkpt lat="46.83074" lon="8.41627">
        <ele>1487</ele>
        <time>2021-08-13T08:51:08.199Z</time>
      </trkpt>
      <trkpt lat="46.83074" lon="8.41628">
        <ele>1487</ele>
        <time>2021-08-13T08:51:09.199Z</time>
      </trkpt>
      <trkpt lat="46.83073" lon="8.41628">
        <ele>1487</ele>
        <time>2021-08-13T08:51:10.200Z</time>
      </trkpt>
      <trkpt lat="46.83073" lon="8.41629">
        <ele>1487</ele>
        <time>2021-08-13T08:51:11.199Z</time>
      </trkpt>
      <trkpt lat="46.83072" lon="8.41629">
        <ele>1487</ele>
        <time>2021-08-13T08:51:12.199Z</time>
      </trkpt>
      <trkpt lat="46.83071" lon="8.4163">
        <ele>1487</ele>
        <time>2021-08-13T08:51:13.199Z</time>
      </trkpt>
      <trkpt lat="46.8307" lon="8.4163">
        <ele>1487</ele>
        <time>2021-08-13T08:51:14.199Z</time>
      </trkpt>
      <trkpt lat="46.83069" lon="8.41631">
        <ele>1486</ele>
        <time>2021-08-13T08:51:15.200Z</time>
      </trkpt>
      <trkpt lat="46.83068" lon="8.41631">
        <ele>1486</ele>
        <time>2021-08-13T08:51:16.200Z</time>
      </trkpt>
      <trkpt lat="46.83067" lon="8.41632">
        <ele>1486</ele>
        <time>2021-08-13T08:51:17.199Z</time>
      </trkpt>
      <trkpt lat="46.83066" lon="8.41632">
        <ele>1486</ele>
        <time>2021-08-13T08:51:18.199Z</time>
      </trkpt>
      <trkpt lat="46.83066" lon="8.41632">
        <ele>1486</ele>
        <time>2021-08-13T08:51:19.199Z</time>
      </trkpt>
      <trkpt lat="46.83065" lon="8.41632">
        <ele>1486</ele>
        <time>2021-08-13T08:51:20.200Z</time>
      </trkpt>
      <trkpt lat="46.83064" lon="8.41633">
        <ele>1486</ele>
        <time>2021-08-13T08:51:21.200Z</time>
      </trkpt>
      <trkpt lat="46.83063" lon="8.41632">
        <ele>1486</ele>
        <time>2021-08-13T08:51:22.199Z</time>
      </trkpt>
      <trkpt lat="46.83063" lon="8.41633">
        <ele>1485</ele>
        <time>2021-08-13T08:51:23.199Z</time>
      </trkpt>
      <trkpt lat="46.83062" lon="8.41633">
        <ele>1484</ele>
        <time>2021-08-13T08:51:24.199Z</time>
      </trkpt>
      <trkpt lat="46.83062" lon="8.41633">
        <ele>1484</ele>
        <time>2021-08-13T08:51:25.199Z</time>
      </trkpt>
      <trkpt lat="46.83062" lon="8.41633">
        <ele>1483</ele>
        <time>2021-08-13T08:51:26.199Z</time>
      </trkpt>
      <trkpt lat="46.83062" lon="8.41632">
        <ele>1483</ele>
        <time>2021-08-13T08:51:27.199Z</time>
      </trkpt>
      <trkpt lat="46.83061" lon="8.41632">
        <ele>1483</ele>
        <time>2021-08-13T08:51:28.200Z</time>
      </trkpt>
      <trkpt lat="46.83061" lon="8.41633">
        <ele>1482</ele>
        <time>2021-08-13T08:51:29.200Z</time>
      </trkpt>
      <trkpt lat="46.8306" lon="8.41633">
        <ele>1482</ele>
        <time>2021-08-13T08:51:30.200Z</time>
      </trkpt>
      <trkpt lat="46.8306" lon="8.41633">
        <ele>1481</ele>
        <time>2021-08-13T08:51:31.199Z</time>
      </trkpt>
      <trkpt lat="46.83059" lon="8.41633">
        <ele>1480</ele>
        <time>2021-08-13T08:51:32.199Z</time>
      </trkpt>
      <trkpt lat="46.83059" lon="8.41633">
        <ele>1479</ele>
        <time>2021-08-13T08:51:33.200Z</time>
      </trkpt>
      <trkpt lat="46.83058" lon="8.41632">
        <ele>1478</ele>
        <time>2021-08-13T08:51:34.200Z</time>
      </trkpt>
      <trkpt lat="46.83058" lon="8.41632">
        <ele>1477</ele>
        <time>2021-08-13T08:51:35.199Z</time>
      </trkpt>
      <trkpt lat="46.83057" lon="8.41632">
        <ele>1477</ele>
        <time>2021-08-13T08:51:36.200Z</time>
      </trkpt>
      <trkpt lat="46.83057" lon="8.41632">
        <ele>1476</ele>
        <time>2021-08-13T08:51:37.200Z</time>
      </trkpt>
      <trkpt lat="46.83056" lon="8.41632">
        <ele>1476</ele>
        <time>2021-08-13T08:51:38.200Z</time>
      </trkpt>
      <trkpt lat="46.83055" lon="8.41632">
        <ele>1476</ele>
        <time>2021-08-13T08:51:39.200Z</time>
      </trkpt>
      <trkpt lat="46.83054" lon="8.41632">
        <ele>1475</ele>
        <time>2021-08-13T08:51:40.199Z</time>
      </trkpt>
      <trkpt lat="46.83053" lon="8.41632">
        <ele>1475</ele>
        <time>2021-08-13T08:51:41.200Z</time>
      </trkpt>
      <trkpt lat="46.83052" lon="8.41632">
        <ele>1475</ele>
        <time>2021-08-13T08:51:42.199Z</time>
      </trkpt>
      <trkpt lat="46.83051" lon="8.41633">
        <ele>1475</ele>
        <time>2021-08-13T08:51:43.199Z</time>
      </trkpt>
      <trkpt lat="46.83051" lon="8.41634">
        <ele>1474</ele>
        <time>2021-08-13T08:51:44.199Z</time>
      </trkpt>
      <trkpt lat="46.8305" lon="8.41635">
        <ele>1474</ele>
        <time>2021-08-13T08:51:45.199Z</time>
      </trkpt>
      <trkpt lat="46.83049" lon="8.41637">
        <ele>1473</ele>
        <time>2021-08-13T08:51:46.199Z</time>
      </trkpt>
      <trkpt lat="46.83048" lon="8.41637">
        <ele>1472</ele>
        <time>2021-08-13T08:51:47.199Z</time>
      </trkpt>
      <trkpt lat="46.83048" lon="8.41638">
        <ele>1471</ele>
        <time>2021-08-13T08:51:48.199Z</time>
      </trkpt>
      <trkpt lat="46.83047" lon="8.41639">
        <ele>1470</ele>
        <time>2021-08-13T08:51:49.199Z</time>
      </trkpt>
      <trkpt lat="46.83047" lon="8.4164">
        <ele>1469</ele>
        <time>2021-08-13T08:51:50.199Z</time>
      </trkpt>
      <trkpt lat="46.83047" lon="8.41641">
        <ele>1468</ele>
        <time>2021-08-13T08:51:51.199Z</time>
      </trkpt>
      <trkpt lat="46.83046" lon="8.41642">
        <ele>1466</ele>
        <time>2021-08-13T08:51:52.199Z</time>
      </trkpt>
      <trkpt lat="46.83046" lon="8.41643">
        <ele>1465</ele>
        <time>2021-08-13T08:51:53.199Z</time>
      </trkpt>
      <trkpt lat="46.83046" lon="8.41643">
        <ele>1464</ele>
        <time>2021-08-13T08:51:54.200Z</time>
      </trkpt>
      <trkpt lat="46.83045" lon="8.41644">
        <ele>1463</ele>
        <time>2021-08-13T08:51:55.199Z</time>
      </trkpt>
      <trkpt lat="46.83045" lon="8.41645">
        <ele>1462</ele>
        <time>2021-08-13T08:51:56.199Z</time>
      </trkpt>
      <trkpt lat="46.83045" lon="8.41646">
        <ele>1461</ele>
        <time>2021-08-13T08:51:57.199Z</time>
      </trkpt>
      <trkpt lat="46.83044" lon="8.41648">
        <ele>1459</ele>
        <time>2021-08-13T08:51:58.199Z</time>
      </trkpt>
      <trkpt lat="46.83044" lon="8.41648">
        <ele>1459</ele>
        <time>2021-08-13T08:51:59.199Z</time>
      </trkpt>
      <trkpt lat="46.83043" lon="8.41649">
        <ele>1458</ele>
        <time>2021-08-13T08:52:00.199Z</time>
      </trkpt>
      <trkpt lat="46.83043" lon="8.4165">
        <ele>1457</ele>
        <time>2021-08-13T08:52:01.199Z</time>
      </trkpt>
      <trkpt lat="46.83042" lon="8.41651">
        <ele>1457</ele>
        <time>2021-08-13T08:52:02.200Z</time>
      </trkpt>
      <trkpt lat="46.83042" lon="8.41652">
        <ele>1457</ele>
        <time>2021-08-13T08:52:03.200Z</time>
      </trkpt>
      <trkpt lat="46.83041" lon="8.41652">
        <ele>1457</ele>
        <time>2021-08-13T08:52:04.199Z</time>
      </trkpt>
      <trkpt lat="46.83041" lon="8.41653">
        <ele>1457</ele>
        <time>2021-08-13T08:52:05.200Z</time>
      </trkpt>
      <trkpt lat="46.83041" lon="8.41653">
        <ele>1457</ele>
        <time>2021-08-13T08:52:06.199Z</time>
      </trkpt>
      <trkpt lat="46.83041" lon="8.41654">
        <ele>1457</ele>
        <time>2021-08-13T08:52:07.199Z</time>
      </trkpt>
      <trkpt lat="46.8304" lon="8.41654">
        <ele>1457</ele>
        <time>2021-08-13T08:52:08.199Z</time>
      </trkpt>
      <trkpt lat="46.8304" lon="8.41655">
        <ele>1457</ele>
        <time>2021-08-13T08:52:09.200Z</time>
      </trkpt>
      <trkpt lat="46.8304" lon="8.41654">
        <ele>1458</ele>
        <time>2021-08-13T08:52:10.199Z</time>
      </trkpt>
      <trkpt lat="46.8304" lon="8.41654">
        <ele>1458</ele>
        <time>2021-08-13T08:52:11.199Z</time>
      </trkpt>
      <trkpt lat="46.83039" lon="8.41654">
        <ele>1458</ele>
        <time>2021-08-13T08:52:12.200Z</time>
      </trkpt>
      <trkpt lat="46.83039" lon="8.41653">
        <ele>1459</ele>
        <time>2021-08-13T08:52:13.200Z</time>
      </trkpt>
      <trkpt lat="46.83039" lon="8.41653">
        <ele>1459</ele>
        <time>2021-08-13T08:52:14.200Z</time>
      </trkpt>
      <trkpt lat="46.83038" lon="8.41653">
        <ele>1460</ele>
        <time>2021-08-13T08:52:15.200Z</time>
      </trkpt>
      <trkpt lat="46.83038" lon="8.41653">
        <ele>1460</ele>
        <time>2021-08-13T08:52:16.200Z</time>
      </trkpt>
      <trkpt lat="46.83037" lon="8.41653">
        <ele>1459</ele>
        <time>2021-08-13T08:52:17.200Z</time>
      </trkpt>
      <trkpt lat="46.83037" lon="8.41654">
        <ele>1459</ele>
        <time>2021-08-13T08:52:18.200Z</time>
      </trkpt>
      <trkpt lat="46.83037" lon="8.41655">
        <ele>1458</ele>
        <time>2021-08-13T08:52:19.200Z</time>
      </trkpt>
      <trkpt lat="46.83036" lon="8.41656">
        <ele>1457</ele>
        <time>2021-08-13T08:52:20.200Z</time>
      </trkpt>
      <trkpt lat="46.83035" lon="8.41656">
        <ele>1456</ele>
        <time>2021-08-13T08:52:21.200Z</time>
      </trkpt>
      <trkpt lat="46.83035" lon="8.41656">
        <ele>1456</ele>
        <time>2021-08-13T08:52:22.200Z</time>
      </trkpt>
      <trkpt lat="46.83033" lon="8.41655">
        <ele>1455</ele>
        <time>2021-08-13T08:52:23.199Z</time>
      </trkpt>
      <trkpt lat="46.83032" lon="8.41656">
        <ele>1455</ele>
        <time>2021-08-13T08:52:24.199Z</time>
      </trkpt>
      <trkpt lat="46.83031" lon="8.41657">
        <ele>1454</ele>
        <time>2021-08-13T08:52:25.200Z</time>
      </trkpt>
      <trkpt lat="46.83031" lon="8.41657">
        <ele>1454</ele>
        <time>2021-08-13T08:52:26.199Z</time>
      </trkpt>
      <trkpt lat="46.8303" lon="8.41657">
        <ele>1454</ele>
        <time>2021-08-13T08:52:27.199Z</time>
      </trkpt>
      <trkpt lat="46.83029" lon="8.41658">
        <ele>1454</ele>
        <time>2021-08-13T08:52:28.200Z</time>
      </trkpt>
      <trkpt lat="46.83029" lon="8.41658">
        <ele>1454</ele>
        <time>2021-08-13T08:52:29.200Z</time>
      </trkpt>
      <trkpt lat="46.83029" lon="8.41659">
        <ele>1454</ele>
        <time>2021-08-13T08:52:30.200Z</time>
      </trkpt>
      <trkpt lat="46.83029" lon="8.41659">
        <ele>1454</ele>
        <time>2021-08-13T08:52:31.199Z</time>
      </trkpt>
      <trkpt lat="46.83028" lon="8.41659">
        <ele>1454</ele>
        <time>2021-08-13T08:52:32.200Z</time>
      </trkpt>
      <trkpt lat="46.83026" lon="8.4166">
        <ele>1454</ele>
        <time>2021-08-13T08:52:33.200Z</time>
      </trkpt>
      <trkpt lat="46.83024" lon="8.4166">
        <ele>1454</ele>
        <time>2021-08-13T08:52:34.200Z</time>
      </trkpt>
      <trkpt lat="46.83024" lon="8.4166">
        <ele>1453</ele>
        <time>2021-08-13T08:52:35.199Z</time>
      </trkpt>
      <trkpt lat="46.83025" lon="8.41659">
        <ele>1453</ele>
        <time>2021-08-13T08:52:36.200Z</time>
      </trkpt>
      <trkpt lat="46.83025" lon="8.4166">
        <ele>1453</ele>
        <time>2021-08-13T08:52:37.200Z</time>
      </trkpt>
      <trkpt lat="46.83026" lon="8.41659">
        <ele>1452</ele>
        <time>2021-08-13T08:52:38.199Z</time>
      </trkpt>
      <trkpt lat="46.83022" lon="8.41661">
        <ele>1453</ele>
        <time>2021-08-13T08:52:39.200Z</time>
      </trkpt>
      <trkpt lat="46.83022" lon="8.41661">
        <ele>1453</ele>
        <time>2021-08-13T08:52:40.201Z</time>
      </trkpt>
      <trkpt lat="46.83021" lon="8.41661">
        <ele>1453</ele>
        <time>2021-08-13T08:52:41.200Z</time>
      </trkpt>
      <trkpt lat="46.83021" lon="8.41661">
        <ele>1453</ele>
        <time>2021-08-13T08:52:42.201Z</time>
      </trkpt>
      <trkpt lat="46.8302" lon="8.41661">
        <ele>1454</ele>
        <time>2021-08-13T08:52:43.201Z</time>
      </trkpt>
      <trkpt lat="46.8302" lon="8.41662">
        <ele>1454</ele>
        <time>2021-08-13T08:52:44.201Z</time>
      </trkpt>
      <trkpt lat="46.8302" lon="8.41663">
        <ele>1454</ele>
        <time>2021-08-13T08:52:45.201Z</time>
      </trkpt>
      <trkpt lat="46.83019" lon="8.41664">
        <ele>1454</ele>
        <time>2021-08-13T08:52:46.201Z</time>
      </trkpt>
      <trkpt lat="46.83019" lon="8.41664">
        <ele>1454</ele>
        <time>2021-08-13T08:52:47.200Z</time>
      </trkpt>
      <trkpt lat="46.83018" lon="8.41665">
        <ele>1453</ele>
        <time>2021-08-13T08:52:48.201Z</time>
      </trkpt>
      <trkpt lat="46.83018" lon="8.41665">
        <ele>1453</ele>
        <time>2021-08-13T08:52:49.201Z</time>
      </trkpt>
      <trkpt lat="46.83018" lon="8.41664">
        <ele>1453</ele>
        <time>2021-08-13T08:52:50.200Z</time>
      </trkpt>
      <trkpt lat="46.83018" lon="8.41664">
        <ele>1453</ele>
        <time>2021-08-13T08:52:51.200Z</time>
      </trkpt>
      <trkpt lat="46.83017" lon="8.41664">
        <ele>1453</ele>
        <time>2021-08-13T08:52:52.201Z</time>
      </trkpt>
      <trkpt lat="46.83018" lon="8.41662">
        <ele>1450</ele>
        <time>2021-08-13T08:52:53.202Z</time>
      </trkpt>
      <trkpt lat="46.83018" lon="8.41663">
        <ele>1449</ele>
        <time>2021-08-13T08:52:54.202Z</time>
      </trkpt>
      <trkpt lat="46.83018" lon="8.41663">
        <ele>1448</ele>
        <time>2021-08-13T08:52:55.201Z</time>
      </trkpt>
      <trkpt lat="46.83018" lon="8.41663">
        <ele>1448</ele>
        <time>2021-08-13T08:52:56.201Z</time>
      </trkpt>
      <trkpt lat="46.83017" lon="8.41662">
        <ele>1447</ele>
        <time>2021-08-13T08:52:57.202Z</time>
      </trkpt>
      <trkpt lat="46.83017" lon="8.41662">
        <ele>1447</ele>
        <time>2021-08-13T08:52:58.201Z</time>
      </trkpt>
      <trkpt lat="46.83015" lon="8.41662">
        <ele>1446</ele>
        <time>2021-08-13T08:52:59.202Z</time>
      </trkpt>
      <trkpt lat="46.83015" lon="8.41662">
        <ele>1446</ele>
        <time>2021-08-13T08:53:00.203Z</time>
      </trkpt>
      <trkpt lat="46.83014" lon="8.41661">
        <ele>1446</ele>
        <time>2021-08-13T08:53:01.202Z</time>
      </trkpt>
      <trkpt lat="46.83013" lon="8.41657">
        <ele>1447</ele>
        <time>2021-08-13T08:53:02.203Z</time>
      </trkpt>
      <trkpt lat="46.83013" lon="8.41657">
        <ele>1448</ele>
        <time>2021-08-13T08:53:03.203Z</time>
      </trkpt>
      <trkpt lat="46.83014" lon="8.41657">
        <ele>1447</ele>
        <time>2021-08-13T08:53:04.203Z</time>
      </trkpt>
      <trkpt lat="46.83014" lon="8.41658">
        <ele>1446</ele>
        <time>2021-08-13T08:53:05.203Z</time>
      </trkpt>
      <trkpt lat="46.83013" lon="8.41658">
        <ele>1446</ele>
        <time>2021-08-13T08:53:06.203Z</time>
      </trkpt>
      <trkpt lat="46.83011" lon="8.4166">
        <ele>1446</ele>
        <time>2021-08-13T08:53:07.205Z</time>
      </trkpt>
      <trkpt lat="46.8301" lon="8.4166">
        <ele>1446</ele>
        <time>2021-08-13T08:53:08.204Z</time>
      </trkpt>
      <trkpt lat="46.83009" lon="8.41661">
        <ele>1446</ele>
        <time>2021-08-13T08:53:09.204Z</time>
      </trkpt>
      <trkpt lat="46.83009" lon="8.41661">
        <ele>1446</ele>
        <time>2021-08-13T08:53:10.205Z</time>
      </trkpt>
      <trkpt lat="46.83009" lon="8.4166">
        <ele>1446</ele>
        <time>2021-08-13T08:53:11.205Z</time>
      </trkpt>
      <trkpt lat="46.83008" lon="8.4166">
        <ele>1447</ele>
        <time>2021-08-13T08:53:12.204Z</time>
      </trkpt>
      <trkpt lat="46.83008" lon="8.4166">
        <ele>1447</ele>
        <time>2021-08-13T08:53:13.204Z</time>
      </trkpt>
      <trkpt lat="46.83008" lon="8.4166">
        <ele>1447</ele>
        <time>2021-08-13T08:53:14.205Z</time>
      </trkpt>
      <trkpt lat="46.83008" lon="8.41659">
        <ele>1447</ele>
        <time>2021-08-13T08:53:15.204Z</time>
      </trkpt>
      <trkpt lat="46.83008" lon="8.41658">
        <ele>1446</ele>
        <time>2021-08-13T08:53:16.204Z</time>
      </trkpt>
      <trkpt lat="46.83007" lon="8.41657">
        <ele>1446</ele>
        <time>2021-08-13T08:53:17.204Z</time>
      </trkpt>
      <trkpt lat="46.83007" lon="8.41657">
        <ele>1445</ele>
        <time>2021-08-13T08:53:18.204Z</time>
      </trkpt>
      <trkpt lat="46.83007" lon="8.41656">
        <ele>1444</ele>
        <time>2021-08-13T08:53:19.204Z</time>
      </trkpt>
      <trkpt lat="46.83007" lon="8.41657">
        <ele>1444</ele>
        <time>2021-08-13T08:53:20.204Z</time>
      </trkpt>
      <trkpt lat="46.83007" lon="8.41657">
        <ele>1444</ele>
        <time>2021-08-13T08:53:21.205Z</time>
      </trkpt>
      <trkpt lat="46.83008" lon="8.41656">
        <ele>1441</ele>
        <time>2021-08-13T08:53:22.205Z</time>
      </trkpt>
      <trkpt lat="46.83007" lon="8.41656">
        <ele>1440</ele>
        <time>2021-08-13T08:53:23.204Z</time>
      </trkpt>
      <trkpt lat="46.83007" lon="8.41656">
        <ele>1439</ele>
        <time>2021-08-13T08:53:24.205Z</time>
      </trkpt>
      <trkpt lat="46.83007" lon="8.41656">
        <ele>1439</ele>
        <time>2021-08-13T08:53:25.205Z</time>
      </trkpt>
      <trkpt lat="46.83008" lon="8.41651">
        <ele>1435</ele>
        <time>2021-08-13T08:53:26.205Z</time>
      </trkpt>
      <trkpt lat="46.83008" lon="8.4165">
        <ele>1435</ele>
        <time>2021-08-13T08:53:27.205Z</time>
      </trkpt>
      <trkpt lat="46.83008" lon="8.41649">
        <ele>1435</ele>
        <time>2021-08-13T08:53:28.204Z</time>
      </trkpt>
      <trkpt lat="46.83007" lon="8.41648">
        <ele>1434</ele>
        <time>2021-08-13T08:53:29.204Z</time>
      </trkpt>
      <trkpt lat="46.83007" lon="8.41648">
        <ele>1434</ele>
        <time>2021-08-13T08:53:30.205Z</time>
      </trkpt>
      <trkpt lat="46.83006" lon="8.41648">
        <ele>1434</ele>
        <time>2021-08-13T08:53:31.205Z</time>
      </trkpt>
      <trkpt lat="46.83006" lon="8.41647">
        <ele>1434</ele>
        <time>2021-08-13T08:53:32.204Z</time>
      </trkpt>
      <trkpt lat="46.83005" lon="8.41647">
        <ele>1434</ele>
        <time>2021-08-13T08:53:33.205Z</time>
      </trkpt>
      <trkpt lat="46.83005" lon="8.41646">
        <ele>1434</ele>
        <time>2021-08-13T08:53:34.205Z</time>
      </trkpt>
      <trkpt lat="46.83005" lon="8.41646">
        <ele>1435</ele>
        <time>2021-08-13T08:53:35.204Z</time>
      </trkpt>
      <trkpt lat="46.83004" lon="8.41645">
        <ele>1434</ele>
        <time>2021-08-13T08:53:36.205Z</time>
      </trkpt>
      <trkpt lat="46.83004" lon="8.41645">
        <ele>1434</ele>
        <time>2021-08-13T08:53:37.205Z</time>
      </trkpt>
      <trkpt lat="46.83004" lon="8.41644">
        <ele>1434</ele>
        <time>2021-08-13T08:53:38.204Z</time>
      </trkpt>
      <trkpt lat="46.83004" lon="8.41644">
        <ele>1434</ele>
        <time>2021-08-13T08:53:39.204Z</time>
      </trkpt>
      <trkpt lat="46.83004" lon="8.41643">
        <ele>1434</ele>
        <time>2021-08-13T08:53:40.205Z</time>
      </trkpt>
      <trkpt lat="46.83004" lon="8.41643">
        <ele>1434</ele>
        <time>2021-08-13T08:53:41.204Z</time>
      </trkpt>
      <trkpt lat="46.83004" lon="8.41642">
        <ele>1434</ele>
        <time>2021-08-13T08:53:42.204Z</time>
      </trkpt>
      <trkpt lat="46.83005" lon="8.41641">
        <ele>1434</ele>
        <time>2021-08-13T08:53:43.205Z</time>
      </trkpt>
      <trkpt lat="46.83004" lon="8.41641">
        <ele>1434</ele>
        <time>2021-08-13T08:53:44.205Z</time>
      </trkpt>
      <trkpt lat="46.83003" lon="8.41641">
        <ele>1433</ele>
        <time>2021-08-13T08:53:45.204Z</time>
      </trkpt>
      <trkpt lat="46.83003" lon="8.41642">
        <ele>1433</ele>
        <time>2021-08-13T08:53:46.204Z</time>
      </trkpt>
      <trkpt lat="46.83002" lon="8.41644">
        <ele>1433</ele>
        <time>2021-08-13T08:53:47.204Z</time>
      </trkpt>
      <trkpt lat="46.83001" lon="8.41646">
        <ele>1433</ele>
        <time>2021-08-13T08:53:48.204Z</time>
      </trkpt>
      <trkpt lat="46.83001" lon="8.41647">
        <ele>1433</ele>
        <time>2021-08-13T08:53:49.204Z</time>
      </trkpt>
      <trkpt lat="46.83001" lon="8.41648">
        <ele>1433</ele>
        <time>2021-08-13T08:53:50.204Z</time>
      </trkpt>
      <trkpt lat="46.83" lon="8.41648">
        <ele>1433</ele>
        <time>2021-08-13T08:53:51.204Z</time>
      </trkpt>
      <trkpt lat="46.83" lon="8.41648">
        <ele>1432</ele>
        <time>2021-08-13T08:53:52.204Z</time>
      </trkpt>
      <trkpt lat="46.83" lon="8.41649">
        <ele>1430</ele>
        <time>2021-08-13T08:53:53.204Z</time>
      </trkpt>
      <trkpt lat="46.83" lon="8.41648">
        <ele>1430</ele>
        <time>2021-08-13T08:53:54.205Z</time>
      </trkpt>
      <trkpt lat="46.83" lon="8.41648">
        <ele>1431</ele>
        <time>2021-08-13T08:53:55.204Z</time>
      </trkpt>
      <trkpt lat="46.82998" lon="8.41644">
        <ele>1432</ele>
        <time>2021-08-13T08:53:56.205Z</time>
      </trkpt>
      <trkpt lat="46.82998" lon="8.41643">
        <ele>1432</ele>
        <time>2021-08-13T08:53:57.204Z</time>
      </trkpt>
      <trkpt lat="46.82997" lon="8.41643">
        <ele>1432</ele>
        <time>2021-08-13T08:53:58.205Z</time>
      </trkpt>
      <trkpt lat="46.82997" lon="8.41642">
        <ele>1432</ele>
        <time>2021-08-13T08:53:59.204Z</time>
      </trkpt>
      <trkpt lat="46.82997" lon="8.41642">
        <ele>1432</ele>
        <time>2021-08-13T08:54:00.205Z</time>
      </trkpt>
      <trkpt lat="46.82997" lon="8.41642">
        <ele>1432</ele>
        <time>2021-08-13T08:54:01.205Z</time>
      </trkpt>
      <trkpt lat="46.82996" lon="8.41641">
        <ele>1432</ele>
        <time>2021-08-13T08:54:02.205Z</time>
      </trkpt>
      <trkpt lat="46.82997" lon="8.41641">
        <ele>1432</ele>
        <time>2021-08-13T08:54:03.204Z</time>
      </trkpt>
      <trkpt lat="46.83" lon="8.41642">
        <ele>1432</ele>
        <time>2021-08-13T08:54:04.204Z</time>
      </trkpt>
      <trkpt lat="46.83001" lon="8.41643">
        <ele>1431</ele>
        <time>2021-08-13T08:54:05.205Z</time>
      </trkpt>
      <trkpt lat="46.83002" lon="8.41643">
        <ele>1431</ele>
        <time>2021-08-13T08:54:06.204Z</time>
      </trkpt>
      <trkpt lat="46.83003" lon="8.41643">
        <ele>1431</ele>
        <time>2021-08-13T08:54:07.205Z</time>
      </trkpt>
      <trkpt lat="46.83004" lon="8.41643">
        <ele>1431</ele>
        <time>2021-08-13T08:54:08.204Z</time>
      </trkpt>
      <trkpt lat="46.83003" lon="8.41644">
        <ele>1431</ele>
        <time>2021-08-13T08:54:09.204Z</time>
      </trkpt>
      <trkpt lat="46.83002" lon="8.41645">
        <ele>1431</ele>
        <time>2021-08-13T08:54:10.205Z</time>
      </trkpt>
      <trkpt lat="46.83001" lon="8.41646">
        <ele>1432</ele>
        <time>2021-08-13T08:54:11.205Z</time>
      </trkpt>
      <trkpt lat="46.83001" lon="8.41647">
        <ele>1432</ele>
        <time>2021-08-13T08:54:12.204Z</time>
      </trkpt>
      <trkpt lat="46.83" lon="8.41647">
        <ele>1432</ele>
        <time>2021-08-13T08:54:13.205Z</time>
      </trkpt>
      <trkpt lat="46.82999" lon="8.41646">
        <ele>1432</ele>
        <time>2021-08-13T08:54:14.204Z</time>
      </trkpt>
      <trkpt lat="46.82998" lon="8.41646">
        <ele>1432</ele>
        <time>2021-08-13T08:54:15.205Z</time>
      </trkpt>
      <trkpt lat="46.82997" lon="8.41645">
        <ele>1432</ele>
        <time>2021-08-13T08:54:16.205Z</time>
      </trkpt>
      <trkpt lat="46.82995" lon="8.41645">
        <ele>1432</ele>
        <time>2021-08-13T08:54:17.205Z</time>
      </trkpt>
      <trkpt lat="46.82994" lon="8.41645">
        <ele>1432</ele>
        <time>2021-08-13T08:54:18.204Z</time>
      </trkpt>
      <trkpt lat="46.82994" lon="8.41645">
        <ele>1432</ele>
        <time>2021-08-13T08:54:19.205Z</time>
      </trkpt>
      <trkpt lat="46.82993" lon="8.41645">
        <ele>1432</ele>
        <time>2021-08-13T08:54:20.205Z</time>
      </trkpt>
      <trkpt lat="46.82993" lon="8.41645">
        <ele>1433</ele>
        <time>2021-08-13T08:54:21.205Z</time>
      </trkpt>
      <trkpt lat="46.82992" lon="8.41645">
        <ele>1433</ele>
        <time>2021-08-13T08:54:22.205Z</time>
      </trkpt>
      <trkpt lat="46.82991" lon="8.41644">
        <ele>1433</ele>
        <time>2021-08-13T08:54:23.204Z</time>
      </trkpt>
      <trkpt lat="46.8299" lon="8.41645">
        <ele>1433</ele>
        <time>2021-08-13T08:54:24.205Z</time>
      </trkpt>
      <trkpt lat="46.8299" lon="8.41644">
        <ele>1433</ele>
        <time>2021-08-13T08:54:25.204Z</time>
      </trkpt>
      <trkpt lat="46.82988" lon="8.41641">
        <ele>1430</ele>
        <time>2021-08-13T08:54:26.205Z</time>
      </trkpt>
      <trkpt lat="46.82987" lon="8.41641">
        <ele>1430</ele>
        <time>2021-08-13T08:54:27.205Z</time>
      </trkpt>
      <trkpt lat="46.82987" lon="8.41641">
        <ele>1429</ele>
        <time>2021-08-13T08:54:28.205Z</time>
      </trkpt>
      <trkpt lat="46.82987" lon="8.4164">
        <ele>1430</ele>
        <time>2021-08-13T08:54:29.205Z</time>
      </trkpt>
      <trkpt lat="46.82986" lon="8.4164">
        <ele>1430</ele>
        <time>2021-08-13T08:54:30.205Z</time>
      </trkpt>
      <trkpt lat="46.82986" lon="8.41641">
        <ele>1430</ele>
        <time>2021-08-13T08:54:31.206Z</time>
      </trkpt>
      <trkpt lat="46.82985" lon="8.41641">
        <ele>1430</ele>
        <time>2021-08-13T08:54:32.205Z</time>
      </trkpt>
      <trkpt lat="46.82985" lon="8.41641">
        <ele>1430</ele>
        <time>2021-08-13T08:54:33.206Z</time>
      </trkpt>
      <trkpt lat="46.82984" lon="8.41641">
        <ele>1430</ele>
        <time>2021-08-13T08:54:34.205Z</time>
      </trkpt>
      <trkpt lat="46.82984" lon="8.41641">
        <ele>1430</ele>
        <time>2021-08-13T08:54:35.205Z</time>
      </trkpt>
      <trkpt lat="46.82983" lon="8.41641">
        <ele>1430</ele>
        <time>2021-08-13T08:54:36.206Z</time>
      </trkpt>
      <trkpt lat="46.82982" lon="8.41642">
        <ele>1429</ele>
        <time>2021-08-13T08:54:37.205Z</time>
      </trkpt>
      <trkpt lat="46.82982" lon="8.41642">
        <ele>1429</ele>
        <time>2021-08-13T08:54:38.205Z</time>
      </trkpt>
      <trkpt lat="46.82981" lon="8.41643">
        <ele>1429</ele>
        <time>2021-08-13T08:54:39.205Z</time>
      </trkpt>
      <trkpt lat="46.82981" lon="8.41643">
        <ele>1429</ele>
        <time>2021-08-13T08:54:40.205Z</time>
      </trkpt>
      <trkpt lat="46.82981" lon="8.41643">
        <ele>1429</ele>
        <time>2021-08-13T08:54:41.205Z</time>
      </trkpt>
      <trkpt lat="46.8298" lon="8.41643">
        <ele>1429</ele>
        <time>2021-08-13T08:54:42.205Z</time>
      </trkpt>
      <trkpt lat="46.82979" lon="8.41643">
        <ele>1429</ele>
        <time>2021-08-13T08:54:43.205Z</time>
      </trkpt>
      <trkpt lat="46.82979" lon="8.41642">
        <ele>1429</ele>
        <time>2021-08-13T08:54:44.206Z</time>
      </trkpt>
      <trkpt lat="46.82979" lon="8.41642">
        <ele>1429</ele>
        <time>2021-08-13T08:54:45.206Z</time>
      </trkpt>
      <trkpt lat="46.82978" lon="8.41642">
        <ele>1429</ele>
        <time>2021-08-13T08:54:46.206Z</time>
      </trkpt>
      <trkpt lat="46.82978" lon="8.41642">
        <ele>1428</ele>
        <time>2021-08-13T08:54:47.205Z</time>
      </trkpt>
      <trkpt lat="46.82978" lon="8.41642">
        <ele>1428</ele>
        <time>2021-08-13T08:54:48.206Z</time>
      </trkpt>
      <trkpt lat="46.82978" lon="8.41643">
        <ele>1427</ele>
        <time>2021-08-13T08:54:49.206Z</time>
      </trkpt>
      <trkpt lat="46.82978" lon="8.41642">
        <ele>1427</ele>
        <time>2021-08-13T08:54:50.205Z</time>
      </trkpt>
      <trkpt lat="46.82977" lon="8.41643">
        <ele>1426</ele>
        <time>2021-08-13T08:54:51.205Z</time>
      </trkpt>
      <trkpt lat="46.82977" lon="8.41643">
        <ele>1425</ele>
        <time>2021-08-13T08:54:52.205Z</time>
      </trkpt>
      <trkpt lat="46.82977" lon="8.41643">
        <ele>1425</ele>
        <time>2021-08-13T08:54:53.205Z</time>
      </trkpt>
      <trkpt lat="46.82977" lon="8.41643">
        <ele>1424</ele>
        <time>2021-08-13T08:54:54.206Z</time>
      </trkpt>
      <trkpt lat="46.82976" lon="8.41643">
        <ele>1424</ele>
        <time>2021-08-13T08:54:55.205Z</time>
      </trkpt>
      <trkpt lat="46.82974" lon="8.41646">
        <ele>1422</ele>
        <time>2021-08-13T08:54:56.205Z</time>
      </trkpt>
      <trkpt lat="46.82972" lon="8.41648">
        <ele>1420</ele>
        <time>2021-08-13T08:54:57.208Z</time>
      </trkpt>
      <trkpt lat="46.82972" lon="8.41648">
        <ele>1419</ele>
        <time>2021-08-13T08:54:58.208Z</time>
      </trkpt>
      <trkpt lat="46.82971" lon="8.41649">
        <ele>1418</ele>
        <time>2021-08-13T08:54:59.208Z</time>
      </trkpt>
      <trkpt lat="46.8297" lon="8.41649">
        <ele>1418</ele>
        <time>2021-08-13T08:55:00.207Z</time>
      </trkpt>
      <trkpt lat="46.8297" lon="8.41649">
        <ele>1418</ele>
        <time>2021-08-13T08:55:01.208Z</time>
      </trkpt>
      <trkpt lat="46.8297" lon="8.41649">
        <ele>1418</ele>
        <time>2021-08-13T08:55:02.207Z</time>
      </trkpt>
      <trkpt lat="46.82969" lon="8.4165">
        <ele>1419</ele>
        <time>2021-08-13T08:55:03.207Z</time>
      </trkpt>
      <trkpt lat="46.82968" lon="8.41649">
        <ele>1419</ele>
        <time>2021-08-13T08:55:04.208Z</time>
      </trkpt>
      <trkpt lat="46.82968" lon="8.41649">
        <ele>1419</ele>
        <time>2021-08-13T08:55:05.208Z</time>
      </trkpt>
      <trkpt lat="46.82967" lon="8.41649">
        <ele>1420</ele>
        <time>2021-08-13T08:55:06.207Z</time>
      </trkpt>
      <trkpt lat="46.82967" lon="8.41649">
        <ele>1419</ele>
        <time>2021-08-13T08:55:07.208Z</time>
      </trkpt>
      <trkpt lat="46.82966" lon="8.4165">
        <ele>1419</ele>
        <time>2021-08-13T08:55:08.207Z</time>
      </trkpt>
      <trkpt lat="46.82965" lon="8.4165">
        <ele>1419</ele>
        <time>2021-08-13T08:55:09.208Z</time>
      </trkpt>
      <trkpt lat="46.82964" lon="8.41649">
        <ele>1418</ele>
        <time>2021-08-13T08:55:10.208Z</time>
      </trkpt>
      <trkpt lat="46.82964" lon="8.41649">
        <ele>1419</ele>
        <time>2021-08-13T08:55:11.208Z</time>
      </trkpt>
      <trkpt lat="46.82963" lon="8.41649">
        <ele>1419</ele>
        <time>2021-08-13T08:55:12.207Z</time>
      </trkpt>
      <trkpt lat="46.82962" lon="8.41649">
        <ele>1419</ele>
        <time>2021-08-13T08:55:13.207Z</time>
      </trkpt>
      <trkpt lat="46.82962" lon="8.41649">
        <ele>1419</ele>
        <time>2021-08-13T08:55:14.207Z</time>
      </trkpt>
      <trkpt lat="46.82959" lon="8.41651">
        <ele>1418</ele>
        <time>2021-08-13T08:55:15.208Z</time>
      </trkpt>
      <trkpt lat="46.82959" lon="8.41651">
        <ele>1418</ele>
        <time>2021-08-13T08:55:16.208Z</time>
      </trkpt>
      <trkpt lat="46.82958" lon="8.41651">
        <ele>1418</ele>
        <time>2021-08-13T08:55:17.208Z</time>
      </trkpt>
      <trkpt lat="46.82956" lon="8.41652">
        <ele>1417</ele>
        <time>2021-08-13T08:55:18.208Z</time>
      </trkpt>
      <trkpt lat="46.82955" lon="8.41651">
        <ele>1417</ele>
        <time>2021-08-13T08:55:19.208Z</time>
      </trkpt>
      <trkpt lat="46.82955" lon="8.41651">
        <ele>1416</ele>
        <time>2021-08-13T08:55:20.208Z</time>
      </trkpt>
      <trkpt lat="46.82955" lon="8.41652">
        <ele>1416</ele>
        <time>2021-08-13T08:55:21.208Z</time>
      </trkpt>
      <trkpt lat="46.82954" lon="8.41653">
        <ele>1415</ele>
        <time>2021-08-13T08:55:22.207Z</time>
      </trkpt>
      <trkpt lat="46.82953" lon="8.41653">
        <ele>1414</ele>
        <time>2021-08-13T08:55:23.207Z</time>
      </trkpt>
      <trkpt lat="46.82952" lon="8.41653">
        <ele>1414</ele>
        <time>2021-08-13T08:55:24.207Z</time>
      </trkpt>
      <trkpt lat="46.82952" lon="8.41654">
        <ele>1414</ele>
        <time>2021-08-13T08:55:25.207Z</time>
      </trkpt>
      <trkpt lat="46.82951" lon="8.41654">
        <ele>1414</ele>
        <time>2021-08-13T08:55:26.208Z</time>
      </trkpt>
      <trkpt lat="46.8295" lon="8.41655">
        <ele>1414</ele>
        <time>2021-08-13T08:55:27.207Z</time>
      </trkpt>
      <trkpt lat="46.82949" lon="8.41655">
        <ele>1414</ele>
        <time>2021-08-13T08:55:28.207Z</time>
      </trkpt>
      <trkpt lat="46.82949" lon="8.41656">
        <ele>1414</ele>
        <time>2021-08-13T08:55:29.208Z</time>
      </trkpt>
      <trkpt lat="46.82948" lon="8.41656">
        <ele>1414</ele>
        <time>2021-08-13T08:55:30.208Z</time>
      </trkpt>
      <trkpt lat="46.82947" lon="8.41656">
        <ele>1414</ele>
        <time>2021-08-13T08:55:31.208Z</time>
      </trkpt>
      <trkpt lat="46.82946" lon="8.41656">
        <ele>1414</ele>
        <time>2021-08-13T08:55:32.208Z</time>
      </trkpt>
      <trkpt lat="46.82945" lon="8.41655">
        <ele>1414</ele>
        <time>2021-08-13T08:55:33.208Z</time>
      </trkpt>
      <trkpt lat="46.82945" lon="8.41656">
        <ele>1414</ele>
        <time>2021-08-13T08:55:34.208Z</time>
      </trkpt>
      <trkpt lat="46.82944" lon="8.41655">
        <ele>1414</ele>
        <time>2021-08-13T08:55:35.207Z</time>
      </trkpt>
      <trkpt lat="46.82944" lon="8.41656">
        <ele>1413</ele>
        <time>2021-08-13T08:55:36.208Z</time>
      </trkpt>
      <trkpt lat="46.82943" lon="8.41656">
        <ele>1413</ele>
        <time>2021-08-13T08:55:37.208Z</time>
      </trkpt>
      <trkpt lat="46.82942" lon="8.41657">
        <ele>1414</ele>
        <time>2021-08-13T08:55:38.208Z</time>
      </trkpt>
      <trkpt lat="46.82941" lon="8.41657">
        <ele>1414</ele>
        <time>2021-08-13T08:55:39.208Z</time>
      </trkpt>
      <trkpt lat="46.82939" lon="8.41657">
        <ele>1414</ele>
        <time>2021-08-13T08:55:40.207Z</time>
      </trkpt>
      <trkpt lat="46.82938" lon="8.41657">
        <ele>1414</ele>
        <time>2021-08-13T08:55:41.207Z</time>
      </trkpt>
      <trkpt lat="46.82937" lon="8.41658">
        <ele>1414</ele>
        <time>2021-08-13T08:55:42.207Z</time>
      </trkpt>
      <trkpt lat="46.82935" lon="8.41659">
        <ele>1414</ele>
        <time>2021-08-13T08:55:43.208Z</time>
      </trkpt>
      <trkpt lat="46.82934" lon="8.4166">
        <ele>1415</ele>
        <time>2021-08-13T08:55:44.207Z</time>
      </trkpt>
      <trkpt lat="46.82933" lon="8.41661">
        <ele>1415</ele>
        <time>2021-08-13T08:55:45.207Z</time>
      </trkpt>
      <trkpt lat="46.82932" lon="8.41662">
        <ele>1414</ele>
        <time>2021-08-13T08:55:46.208Z</time>
      </trkpt>
      <trkpt lat="46.82931" lon="8.41662">
        <ele>1414</ele>
        <time>2021-08-13T08:55:47.207Z</time>
      </trkpt>
      <trkpt lat="46.82929" lon="8.41662">
        <ele>1413</ele>
        <time>2021-08-13T08:55:48.207Z</time>
      </trkpt>
      <trkpt lat="46.82928" lon="8.41661">
        <ele>1413</ele>
        <time>2021-08-13T08:55:49.207Z</time>
      </trkpt>
      <trkpt lat="46.82927" lon="8.41661">
        <ele>1412</ele>
        <time>2021-08-13T08:55:50.207Z</time>
      </trkpt>
      <trkpt lat="46.82928" lon="8.41661">
        <ele>1412</ele>
        <time>2021-08-13T08:55:51.208Z</time>
      </trkpt>
      <trkpt lat="46.82927" lon="8.41662">
        <ele>1411</ele>
        <time>2021-08-13T08:55:52.208Z</time>
      </trkpt>
      <trkpt lat="46.82926" lon="8.41662">
        <ele>1410</ele>
        <time>2021-08-13T08:55:53.207Z</time>
      </trkpt>
      <trkpt lat="46.82925" lon="8.41662">
        <ele>1410</ele>
        <time>2021-08-13T08:55:54.207Z</time>
      </trkpt>
      <trkpt lat="46.82924" lon="8.41663">
        <ele>1409</ele>
        <time>2021-08-13T08:55:55.208Z</time>
      </trkpt>
      <trkpt lat="46.82923" lon="8.41663">
        <ele>1409</ele>
        <time>2021-08-13T08:55:56.207Z</time>
      </trkpt>
      <trkpt lat="46.82923" lon="8.41663">
        <ele>1408</ele>
        <time>2021-08-13T08:55:57.208Z</time>
      </trkpt>
      <trkpt lat="46.82922" lon="8.41663">
        <ele>1408</ele>
        <time>2021-08-13T08:55:58.208Z</time>
      </trkpt>
      <trkpt lat="46.82921" lon="8.41664">
        <ele>1408</ele>
        <time>2021-08-13T08:55:59.208Z</time>
      </trkpt>
      <trkpt lat="46.8292" lon="8.41665">
        <ele>1408</ele>
        <time>2021-08-13T08:56:00.207Z</time>
      </trkpt>
      <trkpt lat="46.82919" lon="8.41665">
        <ele>1407</ele>
        <time>2021-08-13T08:56:01.208Z</time>
      </trkpt>
      <trkpt lat="46.82918" lon="8.41665">
        <ele>1407</ele>
        <time>2021-08-13T08:56:02.208Z</time>
      </trkpt>
      <trkpt lat="46.82917" lon="8.41666">
        <ele>1407</ele>
        <time>2021-08-13T08:56:03.207Z</time>
      </trkpt>
      <trkpt lat="46.82916" lon="8.41666">
        <ele>1406</ele>
        <time>2021-08-13T08:56:04.208Z</time>
      </trkpt>
      <trkpt lat="46.82916" lon="8.41666">
        <ele>1405</ele>
        <time>2021-08-13T08:56:05.207Z</time>
      </trkpt>
      <trkpt lat="46.82915" lon="8.41666">
        <ele>1405</ele>
        <time>2021-08-13T08:56:06.208Z</time>
      </trkpt>
      <trkpt lat="46.82913" lon="8.41665">
        <ele>1405</ele>
        <time>2021-08-13T08:56:07.207Z</time>
      </trkpt>
      <trkpt lat="46.82912" lon="8.41665">
        <ele>1405</ele>
        <time>2021-08-13T08:56:08.207Z</time>
      </trkpt>
      <trkpt lat="46.82911" lon="8.41665">
        <ele>1405</ele>
        <time>2021-08-13T08:56:09.207Z</time>
      </trkpt>
      <trkpt lat="46.82907" lon="8.41665">
        <ele>1405</ele>
        <time>2021-08-13T08:56:10.207Z</time>
      </trkpt>
      <trkpt lat="46.82906" lon="8.41665">
        <ele>1405</ele>
        <time>2021-08-13T08:56:11.208Z</time>
      </trkpt>
      <trkpt lat="46.82904" lon="8.41665">
        <ele>1405</ele>
        <time>2021-08-13T08:56:12.207Z</time>
      </trkpt>
      <trkpt lat="46.82903" lon="8.41664">
        <ele>1404</ele>
        <time>2021-08-13T08:56:13.207Z</time>
      </trkpt>
      <trkpt lat="46.82903" lon="8.41664">
        <ele>1404</ele>
        <time>2021-08-13T08:56:14.207Z</time>
      </trkpt>
      <trkpt lat="46.82902" lon="8.41664">
        <ele>1404</ele>
        <time>2021-08-13T08:56:15.208Z</time>
      </trkpt>
      <trkpt lat="46.82902" lon="8.41664">
        <ele>1403</ele>
        <time>2021-08-13T08:56:16.207Z</time>
      </trkpt>
      <trkpt lat="46.82901" lon="8.41664">
        <ele>1403</ele>
        <time>2021-08-13T08:56:17.208Z</time>
      </trkpt>
      <trkpt lat="46.829" lon="8.41664">
        <ele>1403</ele>
        <time>2021-08-13T08:56:18.208Z</time>
      </trkpt>
      <trkpt lat="46.82899" lon="8.41665">
        <ele>1403</ele>
        <time>2021-08-13T08:56:19.208Z</time>
      </trkpt>
      <trkpt lat="46.82898" lon="8.41665">
        <ele>1403</ele>
        <time>2021-08-13T08:56:20.207Z</time>
      </trkpt>
      <trkpt lat="46.82897" lon="8.41665">
        <ele>1403</ele>
        <time>2021-08-13T08:56:21.208Z</time>
      </trkpt>
      <trkpt lat="46.82896" lon="8.41666">
        <ele>1403</ele>
        <time>2021-08-13T08:56:22.207Z</time>
      </trkpt>
      <trkpt lat="46.82895" lon="8.41667">
        <ele>1403</ele>
        <time>2021-08-13T08:56:23.208Z</time>
      </trkpt>
      <trkpt lat="46.82895" lon="8.41667">
        <ele>1403</ele>
        <time>2021-08-13T08:56:24.208Z</time>
      </trkpt>
      <trkpt lat="46.82895" lon="8.41666">
        <ele>1403</ele>
        <time>2021-08-13T08:56:25.208Z</time>
      </trkpt>
      <trkpt lat="46.82894" lon="8.41666">
        <ele>1402</ele>
        <time>2021-08-13T08:56:26.208Z</time>
      </trkpt>
      <trkpt lat="46.82894" lon="8.41666">
        <ele>1402</ele>
        <time>2021-08-13T08:56:27.208Z</time>
      </trkpt>
      <trkpt lat="46.82894" lon="8.41667">
        <ele>1401</ele>
        <time>2021-08-13T08:56:28.207Z</time>
      </trkpt>
      <trkpt lat="46.82895" lon="8.41668">
        <ele>1400</ele>
        <time>2021-08-13T08:56:29.208Z</time>
      </trkpt>
      <trkpt lat="46.82891" lon="8.41669">
        <ele>1397</ele>
        <time>2021-08-13T08:56:30.209Z</time>
      </trkpt>
      <trkpt lat="46.82891" lon="8.41668">
        <ele>1396</ele>
        <time>2021-08-13T08:56:31.208Z</time>
      </trkpt>
      <trkpt lat="46.8289" lon="8.41668">
        <ele>1396</ele>
        <time>2021-08-13T08:56:32.209Z</time>
      </trkpt>
      <trkpt lat="46.8289" lon="8.41667">
        <ele>1396</ele>
        <time>2021-08-13T08:56:33.208Z</time>
      </trkpt>
      <trkpt lat="46.82889" lon="8.41667">
        <ele>1396</ele>
        <time>2021-08-13T08:56:34.208Z</time>
      </trkpt>
      <trkpt lat="46.82889" lon="8.41667">
        <ele>1396</ele>
        <time>2021-08-13T08:56:35.208Z</time>
      </trkpt>
      <trkpt lat="46.82888" lon="8.41667">
        <ele>1396</ele>
        <time>2021-08-13T08:56:36.208Z</time>
      </trkpt>
      <trkpt lat="46.82887" lon="8.41666">
        <ele>1396</ele>
        <time>2021-08-13T08:56:37.208Z</time>
      </trkpt>
      <trkpt lat="46.82887" lon="8.41666">
        <ele>1396</ele>
        <time>2021-08-13T08:56:38.208Z</time>
      </trkpt>
      <trkpt lat="46.82886" lon="8.41666">
        <ele>1396</ele>
        <time>2021-08-13T08:56:39.209Z</time>
      </trkpt>
      <trkpt lat="46.82886" lon="8.41666">
        <ele>1396</ele>
        <time>2021-08-13T08:56:40.208Z</time>
      </trkpt>
      <trkpt lat="46.82884" lon="8.41665">
        <ele>1395</ele>
        <time>2021-08-13T08:56:41.210Z</time>
      </trkpt>
      <trkpt lat="46.82883" lon="8.41665">
        <ele>1395</ele>
        <time>2021-08-13T08:56:42.210Z</time>
      </trkpt>
      <trkpt lat="46.82883" lon="8.41665">
        <ele>1395</ele>
        <time>2021-08-13T08:56:43.210Z</time>
      </trkpt>
      <trkpt lat="46.82882" lon="8.41664">
        <ele>1395</ele>
        <time>2021-08-13T08:56:44.210Z</time>
      </trkpt>
      <trkpt lat="46.82882" lon="8.41664">
        <ele>1395</ele>
        <time>2021-08-13T08:56:45.210Z</time>
      </trkpt>
      <trkpt lat="46.82882" lon="8.41664">
        <ele>1395</ele>
        <time>2021-08-13T08:56:46.211Z</time>
      </trkpt>
      <trkpt lat="46.82881" lon="8.41666">
        <ele>1396</ele>
        <time>2021-08-13T08:56:47.211Z</time>
      </trkpt>
      <trkpt lat="46.82881" lon="8.41666">
        <ele>1396</ele>
        <time>2021-08-13T08:56:48.211Z</time>
      </trkpt>
      <trkpt lat="46.82882" lon="8.41666">
        <ele>1396</ele>
        <time>2021-08-13T08:56:49.211Z</time>
      </trkpt>
      <trkpt lat="46.82882" lon="8.41665">
        <ele>1396</ele>
        <time>2021-08-13T08:56:50.211Z</time>
      </trkpt>
      <trkpt lat="46.82882" lon="8.41664">
        <ele>1396</ele>
        <time>2021-08-13T08:56:51.211Z</time>
      </trkpt>
      <trkpt lat="46.82882" lon="8.41664">
        <ele>1396</ele>
        <time>2021-08-13T08:56:52.211Z</time>
      </trkpt>
      <trkpt lat="46.82882" lon="8.41664">
        <ele>1396</ele>
        <time>2021-08-13T08:56:53.211Z</time>
      </trkpt>
      <trkpt lat="46.82881" lon="8.41665">
        <ele>1393</ele>
        <time>2021-08-13T08:56:54.213Z</time>
      </trkpt>
      <trkpt lat="46.8288" lon="8.41666">
        <ele>1392</ele>
        <time>2021-08-13T08:56:55.212Z</time>
      </trkpt>
      <trkpt lat="46.82878" lon="8.41666">
        <ele>1392</ele>
        <time>2021-08-13T08:56:56.213Z</time>
      </trkpt>
      <trkpt lat="46.82878" lon="8.41667">
        <ele>1392</ele>
        <time>2021-08-13T08:56:57.212Z</time>
      </trkpt>
      <trkpt lat="46.82877" lon="8.41668">
        <ele>1393</ele>
        <time>2021-08-13T08:56:58.213Z</time>
      </trkpt>
      <trkpt lat="46.82876" lon="8.41668">
        <ele>1393</ele>
        <time>2021-08-13T08:56:59.212Z</time>
      </trkpt>
      <trkpt lat="46.82875" lon="8.41668">
        <ele>1393</ele>
        <time>2021-08-13T08:57:00.213Z</time>
      </trkpt>
      <trkpt lat="46.82875" lon="8.41669">
        <ele>1393</ele>
        <time>2021-08-13T08:57:01.213Z</time>
      </trkpt>
      <trkpt lat="46.82874" lon="8.41669">
        <ele>1393</ele>
        <time>2021-08-13T08:57:02.213Z</time>
      </trkpt>
      <trkpt lat="46.82874" lon="8.41669">
        <ele>1393</ele>
        <time>2021-08-13T08:57:03.212Z</time>
      </trkpt>
      <trkpt lat="46.82875" lon="8.41669">
        <ele>1392</ele>
        <time>2021-08-13T08:57:04.212Z</time>
      </trkpt>
      <trkpt lat="46.82875" lon="8.4167">
        <ele>1392</ele>
        <time>2021-08-13T08:57:05.215Z</time>
      </trkpt>
      <trkpt lat="46.82875" lon="8.41669">
        <ele>1392</ele>
        <time>2021-08-13T08:57:06.214Z</time>
      </trkpt>
      <trkpt lat="46.82873" lon="8.41669">
        <ele>1391</ele>
        <time>2021-08-13T08:57:07.216Z</time>
      </trkpt>
      <trkpt lat="46.82872" lon="8.4167">
        <ele>1391</ele>
        <time>2021-08-13T08:57:08.215Z</time>
      </trkpt>
      <trkpt lat="46.82871" lon="8.41672">
        <ele>1390</ele>
        <time>2021-08-13T08:57:09.216Z</time>
      </trkpt>
      <trkpt lat="46.82871" lon="8.41673">
        <ele>1390</ele>
        <time>2021-08-13T08:57:10.215Z</time>
      </trkpt>
      <trkpt lat="46.8287" lon="8.41674">
        <ele>1390</ele>
        <time>2021-08-13T08:57:11.215Z</time>
      </trkpt>
      <trkpt lat="46.8287" lon="8.41676">
        <ele>1389</ele>
        <time>2021-08-13T08:57:12.216Z</time>
      </trkpt>
      <trkpt lat="46.82869" lon="8.41677">
        <ele>1389</ele>
        <time>2021-08-13T08:57:13.215Z</time>
      </trkpt>
      <trkpt lat="46.82868" lon="8.41679">
        <ele>1389</ele>
        <time>2021-08-13T08:57:14.216Z</time>
      </trkpt>
      <trkpt lat="46.82868" lon="8.41681">
        <ele>1389</ele>
        <time>2021-08-13T08:57:15.215Z</time>
      </trkpt>
      <trkpt lat="46.82868" lon="8.41683">
        <ele>1388</ele>
        <time>2021-08-13T08:57:16.215Z</time>
      </trkpt>
      <trkpt lat="46.82868" lon="8.41684">
        <ele>1388</ele>
        <time>2021-08-13T08:57:17.216Z</time>
      </trkpt>
      <trkpt lat="46.82868" lon="8.41685">
        <ele>1388</ele>
        <time>2021-08-13T08:57:18.215Z</time>
      </trkpt>
      <trkpt lat="46.82868" lon="8.41687">
        <ele>1387</ele>
        <time>2021-08-13T08:57:19.216Z</time>
      </trkpt>
      <trkpt lat="46.82868" lon="8.41688">
        <ele>1387</ele>
        <time>2021-08-13T08:57:20.216Z</time>
      </trkpt>
      <trkpt lat="46.82868" lon="8.4169">
        <ele>1387</ele>
        <time>2021-08-13T08:57:21.216Z</time>
      </trkpt>
      <trkpt lat="46.82868" lon="8.41692">
        <ele>1386</ele>
        <time>2021-08-13T08:57:22.216Z</time>
      </trkpt>
      <trkpt lat="46.82867" lon="8.41694">
        <ele>1386</ele>
        <time>2021-08-13T08:57:23.215Z</time>
      </trkpt>
      <trkpt lat="46.82867" lon="8.41695">
        <ele>1386</ele>
        <time>2021-08-13T08:57:24.216Z</time>
      </trkpt>
      <trkpt lat="46.82867" lon="8.41696">
        <ele>1386</ele>
        <time>2021-08-13T08:57:25.216Z</time>
      </trkpt>
      <trkpt lat="46.82866" lon="8.41697">
        <ele>1386</ele>
        <time>2021-08-13T08:57:26.216Z</time>
      </trkpt>
      <trkpt lat="46.82866" lon="8.41697">
        <ele>1385</ele>
        <time>2021-08-13T08:57:27.216Z</time>
      </trkpt>
      <trkpt lat="46.82865" lon="8.41698">
        <ele>1385</ele>
        <time>2021-08-13T08:57:28.216Z</time>
      </trkpt>
      <trkpt lat="46.82864" lon="8.41698">
        <ele>1385</ele>
        <time>2021-08-13T08:57:29.216Z</time>
      </trkpt>
      <trkpt lat="46.82863" lon="8.41699">
        <ele>1385</ele>
        <time>2021-08-13T08:57:30.216Z</time>
      </trkpt>
      <trkpt lat="46.82862" lon="8.41699">
        <ele>1385</ele>
        <time>2021-08-13T08:57:31.216Z</time>
      </trkpt>
      <trkpt lat="46.82862" lon="8.41699">
        <ele>1386</ele>
        <time>2021-08-13T08:57:32.215Z</time>
      </trkpt>
      <trkpt lat="46.82861" lon="8.417">
        <ele>1386</ele>
        <time>2021-08-13T08:57:33.216Z</time>
      </trkpt>
      <trkpt lat="46.82861" lon="8.417">
        <ele>1386</ele>
        <time>2021-08-13T08:57:34.216Z</time>
      </trkpt>
      <trkpt lat="46.8286" lon="8.41701">
        <ele>1387</ele>
        <time>2021-08-13T08:57:35.215Z</time>
      </trkpt>
      <trkpt lat="46.82858" lon="8.41701">
        <ele>1387</ele>
        <time>2021-08-13T08:57:36.216Z</time>
      </trkpt>
      <trkpt lat="46.82857" lon="8.41701">
        <ele>1387</ele>
        <time>2021-08-13T08:57:37.216Z</time>
      </trkpt>
      <trkpt lat="46.82856" lon="8.41701">
        <ele>1388</ele>
        <time>2021-08-13T08:57:38.216Z</time>
      </trkpt>
      <trkpt lat="46.82855" lon="8.41702">
        <ele>1388</ele>
        <time>2021-08-13T08:57:39.216Z</time>
      </trkpt>
      <trkpt lat="46.82855" lon="8.41702">
        <ele>1388</ele>
        <time>2021-08-13T08:57:40.216Z</time>
      </trkpt>
      <trkpt lat="46.82854" lon="8.41703">
        <ele>1388</ele>
        <time>2021-08-13T08:57:41.215Z</time>
      </trkpt>
      <trkpt lat="46.82853" lon="8.41703">
        <ele>1388</ele>
        <time>2021-08-13T08:57:42.215Z</time>
      </trkpt>
      <trkpt lat="46.82853" lon="8.41704">
        <ele>1388</ele>
        <time>2021-08-13T08:57:43.216Z</time>
      </trkpt>
      <trkpt lat="46.82853" lon="8.41705">
        <ele>1387</ele>
        <time>2021-08-13T08:57:44.216Z</time>
      </trkpt>
      <trkpt lat="46.82852" lon="8.41708">
        <ele>1387</ele>
        <time>2021-08-13T08:57:45.216Z</time>
      </trkpt>
      <trkpt lat="46.82852" lon="8.41709">
        <ele>1386</ele>
        <time>2021-08-13T08:57:46.216Z</time>
      </trkpt>
      <trkpt lat="46.82851" lon="8.4171">
        <ele>1386</ele>
        <time>2021-08-13T08:57:47.216Z</time>
      </trkpt>
      <trkpt lat="46.82851" lon="8.41711">
        <ele>1385</ele>
        <time>2021-08-13T08:57:48.216Z</time>
      </trkpt>
      <trkpt lat="46.82851" lon="8.41711">
        <ele>1385</ele>
        <time>2021-08-13T08:57:49.216Z</time>
      </trkpt>
      <trkpt lat="46.8285" lon="8.41711">
        <ele>1385</ele>
        <time>2021-08-13T08:57:50.216Z</time>
      </trkpt>
      <trkpt lat="46.8285" lon="8.41712">
        <ele>1385</ele>
        <time>2021-08-13T08:57:51.216Z</time>
      </trkpt>
      <trkpt lat="46.8285" lon="8.41712">
        <ele>1385</ele>
        <time>2021-08-13T08:57:52.216Z</time>
      </trkpt>
      <trkpt lat="46.82849" lon="8.41714">
        <ele>1385</ele>
        <time>2021-08-13T08:57:53.215Z</time>
      </trkpt>
      <trkpt lat="46.82849" lon="8.41714">
        <ele>1385</ele>
        <time>2021-08-13T08:57:54.216Z</time>
      </trkpt>
      <trkpt lat="46.82849" lon="8.41715">
        <ele>1385</ele>
        <time>2021-08-13T08:57:55.216Z</time>
      </trkpt>
      <trkpt lat="46.82849" lon="8.41716">
        <ele>1385</ele>
        <time>2021-08-13T08:57:56.215Z</time>
      </trkpt>
      <trkpt lat="46.82849" lon="8.41717">
        <ele>1385</ele>
        <time>2021-08-13T08:57:57.216Z</time>
      </trkpt>
      <trkpt lat="46.82848" lon="8.41718">
        <ele>1385</ele>
        <time>2021-08-13T08:57:58.215Z</time>
      </trkpt>
      <trkpt lat="46.82847" lon="8.41719">
        <ele>1385</ele>
        <time>2021-08-13T08:57:59.216Z</time>
      </trkpt>
      <trkpt lat="46.82847" lon="8.41719">
        <ele>1384</ele>
        <time>2021-08-13T08:58:00.215Z</time>
      </trkpt>
      <trkpt lat="46.82846" lon="8.41718">
        <ele>1384</ele>
        <time>2021-08-13T08:58:01.216Z</time>
      </trkpt>
      <trkpt lat="46.82845" lon="8.41717">
        <ele>1384</ele>
        <time>2021-08-13T08:58:02.216Z</time>
      </trkpt>
      <trkpt lat="46.82844" lon="8.41716">
        <ele>1384</ele>
        <time>2021-08-13T08:58:03.216Z</time>
      </trkpt>
      <trkpt lat="46.82844" lon="8.41716">
        <ele>1384</ele>
        <time>2021-08-13T08:58:04.216Z</time>
      </trkpt>
      <trkpt lat="46.82844" lon="8.41716">
        <ele>1383</ele>
        <time>2021-08-13T08:58:05.215Z</time>
      </trkpt>
      <trkpt lat="46.82844" lon="8.41715">
        <ele>1383</ele>
        <time>2021-08-13T08:58:06.215Z</time>
      </trkpt>
      <trkpt lat="46.82845" lon="8.41714">
        <ele>1378</ele>
        <time>2021-08-13T08:58:07.216Z</time>
      </trkpt>
      <trkpt lat="46.82844" lon="8.41715">
        <ele>1378</ele>
        <time>2021-08-13T08:58:08.215Z</time>
      </trkpt>
      <trkpt lat="46.82844" lon="8.41714">
        <ele>1375</ele>
        <time>2021-08-13T08:58:09.216Z</time>
      </trkpt>
      <trkpt lat="46.82843" lon="8.41713">
        <ele>1375</ele>
        <time>2021-08-13T08:58:10.215Z</time>
      </trkpt>
      <trkpt lat="46.82843" lon="8.41713">
        <ele>1376</ele>
        <time>2021-08-13T08:58:11.215Z</time>
      </trkpt>
      <trkpt lat="46.82842" lon="8.41712">
        <ele>1376</ele>
        <time>2021-08-13T08:58:12.215Z</time>
      </trkpt>
      <trkpt lat="46.82841" lon="8.41711">
        <ele>1376</ele>
        <time>2021-08-13T08:58:13.216Z</time>
      </trkpt>
      <trkpt lat="46.82841" lon="8.41711">
        <ele>1377</ele>
        <time>2021-08-13T08:58:14.215Z</time>
      </trkpt>
      <trkpt lat="46.8284" lon="8.4171">
        <ele>1377</ele>
        <time>2021-08-13T08:58:15.215Z</time>
      </trkpt>
      <trkpt lat="46.82839" lon="8.41709">
        <ele>1376</ele>
        <time>2021-08-13T08:58:16.216Z</time>
      </trkpt>
      <trkpt lat="46.82839" lon="8.41708">
        <ele>1376</ele>
        <time>2021-08-13T08:58:17.216Z</time>
      </trkpt>
      <trkpt lat="46.82838" lon="8.41708">
        <ele>1376</ele>
        <time>2021-08-13T08:58:18.215Z</time>
      </trkpt>
      <trkpt lat="46.82837" lon="8.41707">
        <ele>1377</ele>
        <time>2021-08-13T08:58:19.216Z</time>
      </trkpt>
      <trkpt lat="46.82836" lon="8.41706">
        <ele>1377</ele>
        <time>2021-08-13T08:58:20.216Z</time>
      </trkpt>
      <trkpt lat="46.82836" lon="8.41705">
        <ele>1377</ele>
        <time>2021-08-13T08:58:21.216Z</time>
      </trkpt>
      <trkpt lat="46.82835" lon="8.41704">
        <ele>1377</ele>
        <time>2021-08-13T08:58:22.216Z</time>
      </trkpt>
      <trkpt lat="46.82834" lon="8.41703">
        <ele>1377</ele>
        <time>2021-08-13T08:58:23.215Z</time>
      </trkpt>
      <trkpt lat="46.82834" lon="8.41702">
        <ele>1377</ele>
        <time>2021-08-13T08:58:24.216Z</time>
      </trkpt>
      <trkpt lat="46.82833" lon="8.41701">
        <ele>1377</ele>
        <time>2021-08-13T08:58:25.216Z</time>
      </trkpt>
      <trkpt lat="46.82833" lon="8.417">
        <ele>1377</ele>
        <time>2021-08-13T08:58:26.216Z</time>
      </trkpt>
      <trkpt lat="46.82833" lon="8.41698">
        <ele>1376</ele>
        <time>2021-08-13T08:58:27.216Z</time>
      </trkpt>
      <trkpt lat="46.82832" lon="8.41697">
        <ele>1376</ele>
        <time>2021-08-13T08:58:28.215Z</time>
      </trkpt>
      <trkpt lat="46.82831" lon="8.41696">
        <ele>1376</ele>
        <time>2021-08-13T08:58:29.216Z</time>
      </trkpt>
      <trkpt lat="46.82831" lon="8.41695">
        <ele>1377</ele>
        <time>2021-08-13T08:58:30.215Z</time>
      </trkpt>
      <trkpt lat="46.82831" lon="8.41694">
        <ele>1377</ele>
        <time>2021-08-13T08:58:31.215Z</time>
      </trkpt>
      <trkpt lat="46.8283" lon="8.41693">
        <ele>1377</ele>
        <time>2021-08-13T08:58:32.216Z</time>
      </trkpt>
      <trkpt lat="46.82829" lon="8.41692">
        <ele>1377</ele>
        <time>2021-08-13T08:58:33.216Z</time>
      </trkpt>
      <trkpt lat="46.82829" lon="8.41691">
        <ele>1378</ele>
        <time>2021-08-13T08:58:34.215Z</time>
      </trkpt>
      <trkpt lat="46.82829" lon="8.4169">
        <ele>1378</ele>
        <time>2021-08-13T08:58:35.216Z</time>
      </trkpt>
      <trkpt lat="46.82829" lon="8.4169">
        <ele>1378</ele>
        <time>2021-08-13T08:58:36.215Z</time>
      </trkpt>
      <trkpt lat="46.82829" lon="8.41689">
        <ele>1378</ele>
        <time>2021-08-13T08:58:37.215Z</time>
      </trkpt>
      <trkpt lat="46.82828" lon="8.41688">
        <ele>1378</ele>
        <time>2021-08-13T08:58:38.215Z</time>
      </trkpt>
      <trkpt lat="46.82828" lon="8.41687">
        <ele>1378</ele>
        <time>2021-08-13T08:58:39.216Z</time>
      </trkpt>
      <trkpt lat="46.82827" lon="8.41686">
        <ele>1378</ele>
        <time>2021-08-13T08:58:40.216Z</time>
      </trkpt>
      <trkpt lat="46.82826" lon="8.41686">
        <ele>1378</ele>
        <time>2021-08-13T08:58:41.216Z</time>
      </trkpt>
      <trkpt lat="46.82826" lon="8.41684">
        <ele>1378</ele>
        <time>2021-08-13T08:58:42.216Z</time>
      </trkpt>
      <trkpt lat="46.82825" lon="8.41683">
        <ele>1378</ele>
        <time>2021-08-13T08:58:43.216Z</time>
      </trkpt>
      <trkpt lat="46.82824" lon="8.41681">
        <ele>1378</ele>
        <time>2021-08-13T08:58:44.215Z</time>
      </trkpt>
      <trkpt lat="46.82824" lon="8.4168">
        <ele>1378</ele>
        <time>2021-08-13T08:58:45.215Z</time>
      </trkpt>
      <trkpt lat="46.82822" lon="8.41678">
        <ele>1378</ele>
        <time>2021-08-13T08:58:46.216Z</time>
      </trkpt>
      <trkpt lat="46.82822" lon="8.41677">
        <ele>1378</ele>
        <time>2021-08-13T08:58:47.215Z</time>
      </trkpt>
      <trkpt lat="46.82821" lon="8.41677">
        <ele>1378</ele>
        <time>2021-08-13T08:58:48.215Z</time>
      </trkpt>
      <trkpt lat="46.8282" lon="8.41677">
        <ele>1377</ele>
        <time>2021-08-13T08:58:49.216Z</time>
      </trkpt>
      <trkpt lat="46.8282" lon="8.41677">
        <ele>1377</ele>
        <time>2021-08-13T08:58:50.216Z</time>
      </trkpt>
      <trkpt lat="46.82819" lon="8.41676">
        <ele>1377</ele>
        <time>2021-08-13T08:58:51.216Z</time>
      </trkpt>
      <trkpt lat="46.82818" lon="8.41676">
        <ele>1376</ele>
        <time>2021-08-13T08:58:52.216Z</time>
      </trkpt>
      <trkpt lat="46.82818" lon="8.41675">
        <ele>1376</ele>
        <time>2021-08-13T08:58:53.216Z</time>
      </trkpt>
      <trkpt lat="46.82817" lon="8.41675">
        <ele>1375</ele>
        <time>2021-08-13T08:58:54.215Z</time>
      </trkpt>
      <trkpt lat="46.82817" lon="8.41673">
        <ele>1374</ele>
        <time>2021-08-13T08:58:55.216Z</time>
      </trkpt>
      <trkpt lat="46.82816" lon="8.41672">
        <ele>1373</ele>
        <time>2021-08-13T08:58:56.216Z</time>
      </trkpt>
      <trkpt lat="46.82815" lon="8.41671">
        <ele>1373</ele>
        <time>2021-08-13T08:58:57.216Z</time>
      </trkpt>
      <trkpt lat="46.82813" lon="8.4167">
        <ele>1373</ele>
        <time>2021-08-13T08:58:58.216Z</time>
      </trkpt>
      <trkpt lat="46.82812" lon="8.41669">
        <ele>1373</ele>
        <time>2021-08-13T08:58:59.216Z</time>
      </trkpt>
      <trkpt lat="46.82811" lon="8.41668">
        <ele>1372</ele>
        <time>2021-08-13T08:59:00.215Z</time>
      </trkpt>
      <trkpt lat="46.8281" lon="8.41667">
        <ele>1372</ele>
        <time>2021-08-13T08:59:01.215Z</time>
      </trkpt>
      <trkpt lat="46.82809" lon="8.41666">
        <ele>1372</ele>
        <time>2021-08-13T08:59:02.216Z</time>
      </trkpt>
      <trkpt lat="46.82808" lon="8.41666">
        <ele>1372</ele>
        <time>2021-08-13T08:59:03.216Z</time>
      </trkpt>
      <trkpt lat="46.82807" lon="8.41665">
        <ele>1372</ele>
        <time>2021-08-13T08:59:04.215Z</time>
      </trkpt>
      <trkpt lat="46.82806" lon="8.41664">
        <ele>1372</ele>
        <time>2021-08-13T08:59:05.215Z</time>
      </trkpt>
      <trkpt lat="46.82805" lon="8.41663">
        <ele>1372</ele>
        <time>2021-08-13T08:59:06.216Z</time>
      </trkpt>
      <trkpt lat="46.82804" lon="8.41662">
        <ele>1372</ele>
        <time>2021-08-13T08:59:07.215Z</time>
      </trkpt>
      <trkpt lat="46.82803" lon="8.41661">
        <ele>1372</ele>
        <time>2021-08-13T08:59:08.215Z</time>
      </trkpt>
      <trkpt lat="46.82802" lon="8.4166">
        <ele>1372</ele>
        <time>2021-08-13T08:59:09.216Z</time>
      </trkpt>
      <trkpt lat="46.82802" lon="8.41659">
        <ele>1372</ele>
        <time>2021-08-13T08:59:10.216Z</time>
      </trkpt>
      <trkpt lat="46.82801" lon="8.41658">
        <ele>1372</ele>
        <time>2021-08-13T08:59:11.215Z</time>
      </trkpt>
      <trkpt lat="46.828" lon="8.41658">
        <ele>1372</ele>
        <time>2021-08-13T08:59:12.216Z</time>
      </trkpt>
      <trkpt lat="46.82801" lon="8.41658">
        <ele>1371</ele>
        <time>2021-08-13T08:59:13.216Z</time>
      </trkpt>
      <trkpt lat="46.82801" lon="8.41657">
        <ele>1370</ele>
        <time>2021-08-13T08:59:14.216Z</time>
      </trkpt>
      <trkpt lat="46.82801" lon="8.41656">
        <ele>1369</ele>
        <time>2021-08-13T08:59:15.216Z</time>
      </trkpt>
      <trkpt lat="46.82801" lon="8.41655">
        <ele>1368</ele>
        <time>2021-08-13T08:59:16.215Z</time>
      </trkpt>
      <trkpt lat="46.828" lon="8.41654">
        <ele>1367</ele>
        <time>2021-08-13T08:59:17.216Z</time>
      </trkpt>
      <trkpt lat="46.828" lon="8.41652">
        <ele>1365</ele>
        <time>2021-08-13T08:59:18.216Z</time>
      </trkpt>
      <trkpt lat="46.82801" lon="8.41652">
        <ele>1364</ele>
        <time>2021-08-13T08:59:19.216Z</time>
      </trkpt>
      <trkpt lat="46.828" lon="8.4165">
        <ele>1363</ele>
        <time>2021-08-13T08:59:20.216Z</time>
      </trkpt>
      <trkpt lat="46.828" lon="8.41649">
        <ele>1362</ele>
        <time>2021-08-13T08:59:21.216Z</time>
      </trkpt>
      <trkpt lat="46.82799" lon="8.41648">
        <ele>1361</ele>
        <time>2021-08-13T08:59:22.215Z</time>
      </trkpt>
      <trkpt lat="46.82799" lon="8.41647">
        <ele>1360</ele>
        <time>2021-08-13T08:59:23.216Z</time>
      </trkpt>
      <trkpt lat="46.828" lon="8.41646">
        <ele>1359</ele>
        <time>2021-08-13T08:59:24.216Z</time>
      </trkpt>
      <trkpt lat="46.82799" lon="8.41645">
        <ele>1358</ele>
        <time>2021-08-13T08:59:25.216Z</time>
      </trkpt>
      <trkpt lat="46.82799" lon="8.41644">
        <ele>1358</ele>
        <time>2021-08-13T08:59:26.216Z</time>
      </trkpt>
      <trkpt lat="46.828" lon="8.41643">
        <ele>1357</ele>
        <time>2021-08-13T08:59:27.216Z</time>
      </trkpt>
      <trkpt lat="46.828" lon="8.41642">
        <ele>1357</ele>
        <time>2021-08-13T08:59:28.215Z</time>
      </trkpt>
      <trkpt lat="46.82799" lon="8.41641">
        <ele>1356</ele>
        <time>2021-08-13T08:59:29.215Z</time>
      </trkpt>
      <trkpt lat="46.82799" lon="8.4164">
        <ele>1356</ele>
        <time>2021-08-13T08:59:30.216Z</time>
      </trkpt>
      <trkpt lat="46.82798" lon="8.41639">
        <ele>1356</ele>
        <time>2021-08-13T08:59:31.216Z</time>
      </trkpt>
      <trkpt lat="46.82798" lon="8.41638">
        <ele>1355</ele>
        <time>2021-08-13T08:59:32.216Z</time>
      </trkpt>
      <trkpt lat="46.82798" lon="8.41637">
        <ele>1354</ele>
        <time>2021-08-13T08:59:33.216Z</time>
      </trkpt>
      <trkpt lat="46.82797" lon="8.41635">
        <ele>1353</ele>
        <time>2021-08-13T08:59:34.215Z</time>
      </trkpt>
      <trkpt lat="46.82796" lon="8.41634">
        <ele>1352</ele>
        <time>2021-08-13T08:59:35.215Z</time>
      </trkpt>
      <trkpt lat="46.82796" lon="8.41633">
        <ele>1352</ele>
        <time>2021-08-13T08:59:36.215Z</time>
      </trkpt>
      <trkpt lat="46.82795" lon="8.41632">
        <ele>1351</ele>
        <time>2021-08-13T08:59:37.216Z</time>
      </trkpt>
      <trkpt lat="46.82795" lon="8.4163">
        <ele>1351</ele>
        <time>2021-08-13T08:59:38.216Z</time>
      </trkpt>
      <trkpt lat="46.82794" lon="8.41628">
        <ele>1350</ele>
        <time>2021-08-13T08:59:39.216Z</time>
      </trkpt>
      <trkpt lat="46.82794" lon="8.41627">
        <ele>1350</ele>
        <time>2021-08-13T08:59:40.216Z</time>
      </trkpt>
      <trkpt lat="46.82793" lon="8.41626">
        <ele>1351</ele>
        <time>2021-08-13T08:59:41.216Z</time>
      </trkpt>
      <trkpt lat="46.82792" lon="8.41625">
        <ele>1351</ele>
        <time>2021-08-13T08:59:42.215Z</time>
      </trkpt>
      <trkpt lat="46.82791" lon="8.41625">
        <ele>1351</ele>
        <time>2021-08-13T08:59:43.215Z</time>
      </trkpt>
      <trkpt lat="46.8279" lon="8.41624">
        <ele>1351</ele>
        <time>2021-08-13T08:59:44.216Z</time>
      </trkpt>
      <trkpt lat="46.82789" lon="8.41623">
        <ele>1350</ele>
        <time>2021-08-13T08:59:45.216Z</time>
      </trkpt>
      <trkpt lat="46.82788" lon="8.41623">
        <ele>1350</ele>
        <time>2021-08-13T08:59:46.216Z</time>
      </trkpt>
      <trkpt lat="46.82787" lon="8.41622">
        <ele>1349</ele>
        <time>2021-08-13T08:59:47.216Z</time>
      </trkpt>
      <trkpt lat="46.82787" lon="8.41622">
        <ele>1349</ele>
        <time>2021-08-13T08:59:48.215Z</time>
      </trkpt>
      <trkpt lat="46.82786" lon="8.41621">
        <ele>1349</ele>
        <time>2021-08-13T08:59:49.215Z</time>
      </trkpt>
      <trkpt lat="46.82785" lon="8.41621">
        <ele>1349</ele>
        <time>2021-08-13T08:59:50.216Z</time>
      </trkpt>
      <trkpt lat="46.82784" lon="8.4162">
        <ele>1349</ele>
        <time>2021-08-13T08:59:51.216Z</time>
      </trkpt>
      <trkpt lat="46.82783" lon="8.41619">
        <ele>1350</ele>
        <time>2021-08-13T08:59:52.216Z</time>
      </trkpt>
      <trkpt lat="46.82782" lon="8.41618">
        <ele>1350</ele>
        <time>2021-08-13T08:59:53.215Z</time>
      </trkpt>
      <trkpt lat="46.82781" lon="8.41618">
        <ele>1349</ele>
        <time>2021-08-13T08:59:54.215Z</time>
      </trkpt>
      <trkpt lat="46.8278" lon="8.41618">
        <ele>1350</ele>
        <time>2021-08-13T08:59:55.216Z</time>
      </trkpt>
      <trkpt lat="46.8278" lon="8.41618">
        <ele>1349</ele>
        <time>2021-08-13T08:59:56.215Z</time>
      </trkpt>
      <trkpt lat="46.82779" lon="8.41618">
        <ele>1349</ele>
        <time>2021-08-13T08:59:57.215Z</time>
      </trkpt>
      <trkpt lat="46.82779" lon="8.41618">
        <ele>1349</ele>
        <time>2021-08-13T08:59:58.216Z</time>
      </trkpt>
      <trkpt lat="46.82778" lon="8.41619">
        <ele>1349</ele>
        <time>2021-08-13T08:59:59.216Z</time>
      </trkpt>
      <trkpt lat="46.82777" lon="8.41619">
        <ele>1349</ele>
        <time>2021-08-13T09:00:00.216Z</time>
      </trkpt>
      <trkpt lat="46.82776" lon="8.41619">
        <ele>1348</ele>
        <time>2021-08-13T09:00:01.216Z</time>
      </trkpt>
      <trkpt lat="46.82775" lon="8.41619">
        <ele>1347</ele>
        <time>2021-08-13T09:00:02.215Z</time>
      </trkpt>
      <trkpt lat="46.82774" lon="8.41619">
        <ele>1346</ele>
        <time>2021-08-13T09:00:03.216Z</time>
      </trkpt>
      <trkpt lat="46.82774" lon="8.41618">
        <ele>1346</ele>
        <time>2021-08-13T09:00:04.216Z</time>
      </trkpt>
      <trkpt lat="46.82772" lon="8.41618">
        <ele>1346</ele>
        <time>2021-08-13T09:00:05.216Z</time>
      </trkpt>
      <trkpt lat="46.82771" lon="8.41618">
        <ele>1345</ele>
        <time>2021-08-13T09:00:06.216Z</time>
      </trkpt>
      <trkpt lat="46.8277" lon="8.41618">
        <ele>1345</ele>
        <time>2021-08-13T09:00:07.216Z</time>
      </trkpt>
      <trkpt lat="46.82769" lon="8.41618">
        <ele>1344</ele>
        <time>2021-08-13T09:00:08.216Z</time>
      </trkpt>
      <trkpt lat="46.82768" lon="8.41617">
        <ele>1344</ele>
        <time>2021-08-13T09:00:09.215Z</time>
      </trkpt>
      <trkpt lat="46.82767" lon="8.41616">
        <ele>1343</ele>
        <time>2021-08-13T09:00:10.215Z</time>
      </trkpt>
      <trkpt lat="46.82766" lon="8.41616">
        <ele>1343</ele>
        <time>2021-08-13T09:00:11.216Z</time>
      </trkpt>
      <trkpt lat="46.82765" lon="8.41616">
        <ele>1342</ele>
        <time>2021-08-13T09:00:12.216Z</time>
      </trkpt>
      <trkpt lat="46.82764" lon="8.41615">
        <ele>1342</ele>
        <time>2021-08-13T09:00:13.215Z</time>
      </trkpt>
      <trkpt lat="46.82762" lon="8.41615">
        <ele>1342</ele>
        <time>2021-08-13T09:00:14.216Z</time>
      </trkpt>
      <trkpt lat="46.82761" lon="8.41615">
        <ele>1342</ele>
        <time>2021-08-13T09:00:15.215Z</time>
      </trkpt>
      <trkpt lat="46.8276" lon="8.41615">
        <ele>1342</ele>
        <time>2021-08-13T09:00:16.215Z</time>
      </trkpt>
      <trkpt lat="46.82759" lon="8.41614">
        <ele>1341</ele>
        <time>2021-08-13T09:00:17.216Z</time>
      </trkpt>
      <trkpt lat="46.82758" lon="8.41614">
        <ele>1341</ele>
        <time>2021-08-13T09:00:18.216Z</time>
      </trkpt>
      <trkpt lat="46.82757" lon="8.41614">
        <ele>1342</ele>
        <time>2021-08-13T09:00:19.216Z</time>
      </trkpt>
      <trkpt lat="46.82756" lon="8.41613">
        <ele>1342</ele>
        <time>2021-08-13T09:00:20.215Z</time>
      </trkpt>
      <trkpt lat="46.82755" lon="8.41613">
        <ele>1342</ele>
        <time>2021-08-13T09:00:21.215Z</time>
      </trkpt>
      <trkpt lat="46.82754" lon="8.41613">
        <ele>1342</ele>
        <time>2021-08-13T09:00:22.215Z</time>
      </trkpt>
      <trkpt lat="46.82754" lon="8.41613">
        <ele>1342</ele>
        <time>2021-08-13T09:00:23.215Z</time>
      </trkpt>
      <trkpt lat="46.82753" lon="8.41612">
        <ele>1342</ele>
        <time>2021-08-13T09:00:24.215Z</time>
      </trkpt>
      <trkpt lat="46.82753" lon="8.41612">
        <ele>1342</ele>
        <time>2021-08-13T09:00:25.216Z</time>
      </trkpt>
      <trkpt lat="46.82753" lon="8.41611">
        <ele>1342</ele>
        <time>2021-08-13T09:00:26.216Z</time>
      </trkpt>
      <trkpt lat="46.82753" lon="8.41611">
        <ele>1341</ele>
        <time>2021-08-13T09:00:27.215Z</time>
      </trkpt>
      <trkpt lat="46.82753" lon="8.4161">
        <ele>1341</ele>
        <time>2021-08-13T09:00:28.216Z</time>
      </trkpt>
      <trkpt lat="46.82753" lon="8.41609">
        <ele>1341</ele>
        <time>2021-08-13T09:00:29.215Z</time>
      </trkpt>
      <trkpt lat="46.82753" lon="8.41608">
        <ele>1341</ele>
        <time>2021-08-13T09:00:30.216Z</time>
      </trkpt>
      <trkpt lat="46.82753" lon="8.41607">
        <ele>1340</ele>
        <time>2021-08-13T09:00:31.215Z</time>
      </trkpt>
      <trkpt lat="46.82754" lon="8.41607">
        <ele>1340</ele>
        <time>2021-08-13T09:00:32.216Z</time>
      </trkpt>
      <trkpt lat="46.8275" lon="8.41608">
        <ele>1337</ele>
        <time>2021-08-13T09:00:33.215Z</time>
      </trkpt>
      <trkpt lat="46.8275" lon="8.41607">
        <ele>1337</ele>
        <time>2021-08-13T09:00:34.215Z</time>
      </trkpt>
      <trkpt lat="46.82749" lon="8.41607">
        <ele>1336</ele>
        <time>2021-08-13T09:00:35.215Z</time>
      </trkpt>
      <trkpt lat="46.8275" lon="8.41605">
        <ele>1333</ele>
        <time>2021-08-13T09:00:36.215Z</time>
      </trkpt>
      <trkpt lat="46.82751" lon="8.41604">
        <ele>1333</ele>
        <time>2021-08-13T09:00:37.215Z</time>
      </trkpt>
      <trkpt lat="46.82751" lon="8.41602">
        <ele>1334</ele>
        <time>2021-08-13T09:00:38.216Z</time>
      </trkpt>
      <trkpt lat="46.82751" lon="8.41601">
        <ele>1334</ele>
        <time>2021-08-13T09:00:39.215Z</time>
      </trkpt>
      <trkpt lat="46.82751" lon="8.416">
        <ele>1335</ele>
        <time>2021-08-13T09:00:40.215Z</time>
      </trkpt>
      <trkpt lat="46.82751" lon="8.416">
        <ele>1335</ele>
        <time>2021-08-13T09:00:41.215Z</time>
      </trkpt>
      <trkpt lat="46.82751" lon="8.41599">
        <ele>1335</ele>
        <time>2021-08-13T09:00:42.215Z</time>
      </trkpt>
      <trkpt lat="46.8275" lon="8.41599">
        <ele>1335</ele>
        <time>2021-08-13T09:00:43.215Z</time>
      </trkpt>
      <trkpt lat="46.82751" lon="8.41597">
        <ele>1335</ele>
        <time>2021-08-13T09:00:44.215Z</time>
      </trkpt>
      <trkpt lat="46.82751" lon="8.41596">
        <ele>1335</ele>
        <time>2021-08-13T09:00:45.215Z</time>
      </trkpt>
      <trkpt lat="46.82751" lon="8.41595">
        <ele>1336</ele>
        <time>2021-08-13T09:00:46.215Z</time>
      </trkpt>
      <trkpt lat="46.82751" lon="8.41594">
        <ele>1335</ele>
        <time>2021-08-13T09:00:47.215Z</time>
      </trkpt>
      <trkpt lat="46.82751" lon="8.41593">
        <ele>1336</ele>
        <time>2021-08-13T09:00:48.215Z</time>
      </trkpt>
      <trkpt lat="46.82752" lon="8.41592">
        <ele>1336</ele>
        <time>2021-08-13T09:00:49.215Z</time>
      </trkpt>
      <trkpt lat="46.82752" lon="8.4159">
        <ele>1336</ele>
        <time>2021-08-13T09:00:50.215Z</time>
      </trkpt>
      <trkpt lat="46.82752" lon="8.41589">
        <ele>1336</ele>
        <time>2021-08-13T09:00:51.215Z</time>
      </trkpt>
      <trkpt lat="46.82752" lon="8.41588">
        <ele>1337</ele>
        <time>2021-08-13T09:00:52.215Z</time>
      </trkpt>
      <trkpt lat="46.82752" lon="8.41587">
        <ele>1337</ele>
        <time>2021-08-13T09:00:53.215Z</time>
      </trkpt>
      <trkpt lat="46.82752" lon="8.41586">
        <ele>1337</ele>
        <time>2021-08-13T09:00:54.215Z</time>
      </trkpt>
      <trkpt lat="46.82752" lon="8.41584">
        <ele>1337</ele>
        <time>2021-08-13T09:00:55.215Z</time>
      </trkpt>
      <trkpt lat="46.82753" lon="8.41583">
        <ele>1336</ele>
        <time>2021-08-13T09:00:56.215Z</time>
      </trkpt>
      <trkpt lat="46.82753" lon="8.41581">
        <ele>1336</ele>
        <time>2021-08-13T09:00:57.215Z</time>
      </trkpt>
      <trkpt lat="46.82754" lon="8.4158">
        <ele>1336</ele>
        <time>2021-08-13T09:00:58.216Z</time>
      </trkpt>
      <trkpt lat="46.82754" lon="8.41579">
        <ele>1335</ele>
        <time>2021-08-13T09:00:59.215Z</time>
      </trkpt>
      <trkpt lat="46.82755" lon="8.41578">
        <ele>1335</ele>
        <time>2021-08-13T09:01:00.215Z</time>
      </trkpt>
      <trkpt lat="46.82755" lon="8.41577">
        <ele>1335</ele>
        <time>2021-08-13T09:01:01.216Z</time>
      </trkpt>
      <trkpt lat="46.82755" lon="8.41576">
        <ele>1334</ele>
        <time>2021-08-13T09:01:02.216Z</time>
      </trkpt>
      <trkpt lat="46.82756" lon="8.41575">
        <ele>1334</ele>
        <time>2021-08-13T09:01:03.216Z</time>
      </trkpt>
      <trkpt lat="46.82756" lon="8.41573">
        <ele>1334</ele>
        <time>2021-08-13T09:01:04.215Z</time>
      </trkpt>
      <trkpt lat="46.82757" lon="8.41572">
        <ele>1334</ele>
        <time>2021-08-13T09:01:05.215Z</time>
      </trkpt>
      <trkpt lat="46.82758" lon="8.4157">
        <ele>1334</ele>
        <time>2021-08-13T09:01:06.216Z</time>
      </trkpt>
      <trkpt lat="46.82759" lon="8.41569">
        <ele>1334</ele>
        <time>2021-08-13T09:01:07.215Z</time>
      </trkpt>
      <trkpt lat="46.82759" lon="8.41568">
        <ele>1333</ele>
        <time>2021-08-13T09:01:08.216Z</time>
      </trkpt>
      <trkpt lat="46.82759" lon="8.41566">
        <ele>1333</ele>
        <time>2021-08-13T09:01:09.215Z</time>
      </trkpt>
      <trkpt lat="46.8276" lon="8.41565">
        <ele>1333</ele>
        <time>2021-08-13T09:01:10.215Z</time>
      </trkpt>
      <trkpt lat="46.82761" lon="8.41563">
        <ele>1332</ele>
        <time>2021-08-13T09:01:11.216Z</time>
      </trkpt>
      <trkpt lat="46.82761" lon="8.41562">
        <ele>1332</ele>
        <time>2021-08-13T09:01:12.216Z</time>
      </trkpt>
      <trkpt lat="46.82762" lon="8.4156">
        <ele>1332</ele>
        <time>2021-08-13T09:01:13.215Z</time>
      </trkpt>
      <trkpt lat="46.82762" lon="8.41559">
        <ele>1332</ele>
        <time>2021-08-13T09:01:14.215Z</time>
      </trkpt>
      <trkpt lat="46.82763" lon="8.41558">
        <ele>1332</ele>
        <time>2021-08-13T09:01:15.215Z</time>
      </trkpt>
      <trkpt lat="46.82763" lon="8.41558">
        <ele>1332</ele>
        <time>2021-08-13T09:01:16.215Z</time>
      </trkpt>
      <trkpt lat="46.82763" lon="8.41557">
        <ele>1333</ele>
        <time>2021-08-13T09:01:17.215Z</time>
      </trkpt>
      <trkpt lat="46.82764" lon="8.41556">
        <ele>1332</ele>
        <time>2021-08-13T09:01:18.216Z</time>
      </trkpt>
      <trkpt lat="46.82765" lon="8.41555">
        <ele>1332</ele>
        <time>2021-08-13T09:01:19.217Z</time>
      </trkpt>
      <trkpt lat="46.82765" lon="8.41554">
        <ele>1332</ele>
        <time>2021-08-13T09:01:20.217Z</time>
      </trkpt>
      <trkpt lat="46.82766" lon="8.41553">
        <ele>1332</ele>
        <time>2021-08-13T09:01:21.216Z</time>
      </trkpt>
      <trkpt lat="46.82766" lon="8.41552">
        <ele>1332</ele>
        <time>2021-08-13T09:01:22.216Z</time>
      </trkpt>
      <trkpt lat="46.82767" lon="8.4155">
        <ele>1332</ele>
        <time>2021-08-13T09:01:23.217Z</time>
      </trkpt>
      <trkpt lat="46.82767" lon="8.41549">
        <ele>1331</ele>
        <time>2021-08-13T09:01:24.217Z</time>
      </trkpt>
      <trkpt lat="46.82767" lon="8.41549">
        <ele>1330</ele>
        <time>2021-08-13T09:01:25.217Z</time>
      </trkpt>
      <trkpt lat="46.82769" lon="8.41549">
        <ele>1315</ele>
        <time>2021-08-13T09:01:26.217Z</time>
      </trkpt>
      <trkpt lat="46.8277" lon="8.41549">
        <ele>1314</ele>
        <time>2021-08-13T09:01:27.216Z</time>
      </trkpt>
      <trkpt lat="46.82771" lon="8.41547">
        <ele>1314</ele>
        <time>2021-08-13T09:01:28.217Z</time>
      </trkpt>
      <trkpt lat="46.82772" lon="8.41546">
        <ele>1315</ele>
        <time>2021-08-13T09:01:29.216Z</time>
      </trkpt>
      <trkpt lat="46.82772" lon="8.41546">
        <ele>1315</ele>
        <time>2021-08-13T09:01:30.216Z</time>
      </trkpt>
      <trkpt lat="46.82772" lon="8.41545">
        <ele>1315</ele>
        <time>2021-08-13T09:01:31.217Z</time>
      </trkpt>
      <trkpt lat="46.82772" lon="8.41543">
        <ele>1316</ele>
        <time>2021-08-13T09:01:32.216Z</time>
      </trkpt>
      <trkpt lat="46.82773" lon="8.41541">
        <ele>1316</ele>
        <time>2021-08-13T09:01:33.217Z</time>
      </trkpt>
      <trkpt lat="46.82773" lon="8.4154">
        <ele>1317</ele>
        <time>2021-08-13T09:01:34.216Z</time>
      </trkpt>
      <trkpt lat="46.82774" lon="8.41539">
        <ele>1317</ele>
        <time>2021-08-13T09:01:35.216Z</time>
      </trkpt>
      <trkpt lat="46.82774" lon="8.41538">
        <ele>1317</ele>
        <time>2021-08-13T09:01:36.216Z</time>
      </trkpt>
      <trkpt lat="46.82775" lon="8.41536">
        <ele>1317</ele>
        <time>2021-08-13T09:01:37.216Z</time>
      </trkpt>
      <trkpt lat="46.82774" lon="8.41535">
        <ele>1317</ele>
        <time>2021-08-13T09:01:38.216Z</time>
      </trkpt>
      <trkpt lat="46.82774" lon="8.41534">
        <ele>1318</ele>
        <time>2021-08-13T09:01:39.216Z</time>
      </trkpt>
      <trkpt lat="46.82774" lon="8.41533">
        <ele>1318</ele>
        <time>2021-08-13T09:01:40.216Z</time>
      </trkpt>
      <trkpt lat="46.82773" lon="8.41533">
        <ele>1319</ele>
        <time>2021-08-13T09:01:41.216Z</time>
      </trkpt>
      <trkpt lat="46.82772" lon="8.41533">
        <ele>1319</ele>
        <time>2021-08-13T09:01:42.216Z</time>
      </trkpt>
      <trkpt lat="46.8277" lon="8.41533">
        <ele>1320</ele>
        <time>2021-08-13T09:01:43.216Z</time>
      </trkpt>
      <trkpt lat="46.82768" lon="8.41532">
        <ele>1321</ele>
        <time>2021-08-13T09:01:44.216Z</time>
      </trkpt>
      <trkpt lat="46.82768" lon="8.41532">
        <ele>1321</ele>
        <time>2021-08-13T09:01:45.216Z</time>
      </trkpt>
      <trkpt lat="46.82767" lon="8.41532">
        <ele>1321</ele>
        <time>2021-08-13T09:01:46.216Z</time>
      </trkpt>
      <trkpt lat="46.82766" lon="8.41531">
        <ele>1322</ele>
        <time>2021-08-13T09:01:47.216Z</time>
      </trkpt>
      <trkpt lat="46.82766" lon="8.4153">
        <ele>1322</ele>
        <time>2021-08-13T09:01:48.217Z</time>
      </trkpt>
      <trkpt lat="46.82766" lon="8.41529">
        <ele>1322</ele>
        <time>2021-08-13T09:01:49.216Z</time>
      </trkpt>
      <trkpt lat="46.82766" lon="8.41529">
        <ele>1322</ele>
        <time>2021-08-13T09:01:50.216Z</time>
      </trkpt>
      <trkpt lat="46.82766" lon="8.41528">
        <ele>1323</ele>
        <time>2021-08-13T09:01:51.216Z</time>
      </trkpt>
      <trkpt lat="46.82766" lon="8.41528">
        <ele>1322</ele>
        <time>2021-08-13T09:01:52.217Z</time>
      </trkpt>
      <trkpt lat="46.82765" lon="8.41528">
        <ele>1322</ele>
        <time>2021-08-13T09:01:53.216Z</time>
      </trkpt>
      <trkpt lat="46.82764" lon="8.41529">
        <ele>1321</ele>
        <time>2021-08-13T09:01:54.216Z</time>
      </trkpt>
      <trkpt lat="46.82763" lon="8.4153">
        <ele>1321</ele>
        <time>2021-08-13T09:01:55.216Z</time>
      </trkpt>
      <trkpt lat="46.82763" lon="8.4153">
        <ele>1320</ele>
        <time>2021-08-13T09:01:56.216Z</time>
      </trkpt>
      <trkpt lat="46.82763" lon="8.4153">
        <ele>1320</ele>
        <time>2021-08-13T09:01:57.216Z</time>
      </trkpt>
      <trkpt lat="46.82763" lon="8.41531">
        <ele>1320</ele>
        <time>2021-08-13T09:01:58.216Z</time>
      </trkpt>
      <trkpt lat="46.82762" lon="8.41532">
        <ele>1319</ele>
        <time>2021-08-13T09:01:59.216Z</time>
      </trkpt>
      <trkpt lat="46.82761" lon="8.41532">
        <ele>1319</ele>
        <time>2021-08-13T09:02:00.216Z</time>
      </trkpt>
      <trkpt lat="46.82761" lon="8.41533">
        <ele>1319</ele>
        <time>2021-08-13T09:02:01.216Z</time>
      </trkpt>
      <trkpt lat="46.8276" lon="8.41534">
        <ele>1318</ele>
        <time>2021-08-13T09:02:02.216Z</time>
      </trkpt>
      <trkpt lat="46.8276" lon="8.41535">
        <ele>1318</ele>
        <time>2021-08-13T09:02:03.216Z</time>
      </trkpt>
      <trkpt lat="46.8276" lon="8.41535">
        <ele>1318</ele>
        <time>2021-08-13T09:02:04.217Z</time>
      </trkpt>
      <trkpt lat="46.82761" lon="8.41535">
        <ele>1318</ele>
        <time>2021-08-13T09:02:05.216Z</time>
      </trkpt>
      <trkpt lat="46.82761" lon="8.41535">
        <ele>1318</ele>
        <time>2021-08-13T09:02:06.216Z</time>
      </trkpt>
      <trkpt lat="46.82761" lon="8.41536">
        <ele>1318</ele>
        <time>2021-08-13T09:02:07.216Z</time>
      </trkpt>
      <trkpt lat="46.82762" lon="8.41535">
        <ele>1318</ele>
        <time>2021-08-13T09:02:08.216Z</time>
      </trkpt>
      <trkpt lat="46.82764" lon="8.41534">
        <ele>1318</ele>
        <time>2021-08-13T09:02:09.216Z</time>
      </trkpt>
      <trkpt lat="46.82765" lon="8.41534">
        <ele>1318</ele>
        <time>2021-08-13T09:02:10.216Z</time>
      </trkpt>
      <trkpt lat="46.82765" lon="8.41534">
        <ele>1318</ele>
        <time>2021-08-13T09:02:11.216Z</time>
      </trkpt>
      <trkpt lat="46.82766" lon="8.41533">
        <ele>1319</ele>
        <time>2021-08-13T09:02:12.216Z</time>
      </trkpt>
      <trkpt lat="46.82767" lon="8.41532">
        <ele>1319</ele>
        <time>2021-08-13T09:02:13.216Z</time>
      </trkpt>
      <trkpt lat="46.82768" lon="8.41531">
        <ele>1318</ele>
        <time>2021-08-13T09:02:14.216Z</time>
      </trkpt>
      <trkpt lat="46.82768" lon="8.41531">
        <ele>1318</ele>
        <time>2021-08-13T09:02:15.216Z</time>
      </trkpt>
      <trkpt lat="46.82769" lon="8.4153">
        <ele>1318</ele>
        <time>2021-08-13T09:02:16.216Z</time>
      </trkpt>
      <trkpt lat="46.8277" lon="8.4153">
        <ele>1319</ele>
        <time>2021-08-13T09:02:17.217Z</time>
      </trkpt>
      <trkpt lat="46.82771" lon="8.41528">
        <ele>1319</ele>
        <time>2021-08-13T09:02:18.216Z</time>
      </trkpt>
      <trkpt lat="46.8277" lon="8.41526">
        <ele>1319</ele>
        <time>2021-08-13T09:02:19.217Z</time>
      </trkpt>
      <trkpt lat="46.82769" lon="8.41524">
        <ele>1320</ele>
        <time>2021-08-13T09:02:20.216Z</time>
      </trkpt>
      <trkpt lat="46.82767" lon="8.41522">
        <ele>1320</ele>
        <time>2021-08-13T09:02:21.216Z</time>
      </trkpt>
      <trkpt lat="46.82767" lon="8.41521">
        <ele>1320</ele>
        <time>2021-08-13T09:02:22.216Z</time>
      </trkpt>
      <trkpt lat="46.82766" lon="8.41521">
        <ele>1321</ele>
        <time>2021-08-13T09:02:23.216Z</time>
      </trkpt>
      <trkpt lat="46.82765" lon="8.41521">
        <ele>1322</ele>
        <time>2021-08-13T09:02:24.216Z</time>
      </trkpt>
      <trkpt lat="46.82765" lon="8.4152">
        <ele>1322</ele>
        <time>2021-08-13T09:02:25.217Z</time>
      </trkpt>
      <trkpt lat="46.82764" lon="8.4152">
        <ele>1322</ele>
        <time>2021-08-13T09:02:26.216Z</time>
      </trkpt>
      <trkpt lat="46.82763" lon="8.41519">
        <ele>1323</ele>
        <time>2021-08-13T09:02:27.217Z</time>
      </trkpt>
      <trkpt lat="46.82762" lon="8.41519">
        <ele>1323</ele>
        <time>2021-08-13T09:02:28.216Z</time>
      </trkpt>
      <trkpt lat="46.82761" lon="8.41519">
        <ele>1324</ele>
        <time>2021-08-13T09:02:29.216Z</time>
      </trkpt>
      <trkpt lat="46.8276" lon="8.41519">
        <ele>1324</ele>
        <time>2021-08-13T09:02:30.216Z</time>
      </trkpt>
      <trkpt lat="46.82759" lon="8.41518">
        <ele>1324</ele>
        <time>2021-08-13T09:02:31.216Z</time>
      </trkpt>
      <trkpt lat="46.82758" lon="8.41517">
        <ele>1325</ele>
        <time>2021-08-13T09:02:32.216Z</time>
      </trkpt>
      <trkpt lat="46.82757" lon="8.41515">
        <ele>1325</ele>
        <time>2021-08-13T09:02:33.217Z</time>
      </trkpt>
      <trkpt lat="46.82756" lon="8.41514">
        <ele>1324</ele>
        <time>2021-08-13T09:02:34.216Z</time>
      </trkpt>
      <trkpt lat="46.82755" lon="8.41513">
        <ele>1324</ele>
        <time>2021-08-13T09:02:35.217Z</time>
      </trkpt>
      <trkpt lat="46.82753" lon="8.41514">
        <ele>1324</ele>
        <time>2021-08-13T09:02:36.217Z</time>
      </trkpt>
      <trkpt lat="46.82752" lon="8.41514">
        <ele>1324</ele>
        <time>2021-08-13T09:02:37.216Z</time>
      </trkpt>
      <trkpt lat="46.82751" lon="8.41514">
        <ele>1324</ele>
        <time>2021-08-13T09:02:38.216Z</time>
      </trkpt>
      <trkpt lat="46.8275" lon="8.41513">
        <ele>1324</ele>
        <time>2021-08-13T09:02:39.216Z</time>
      </trkpt>
      <trkpt lat="46.82749" lon="8.41513">
        <ele>1323</ele>
        <time>2021-08-13T09:02:40.216Z</time>
      </trkpt>
      <trkpt lat="46.8275" lon="8.41513">
        <ele>1323</ele>
        <time>2021-08-13T09:02:41.216Z</time>
      </trkpt>
      <trkpt lat="46.8275" lon="8.41513">
        <ele>1322</ele>
        <time>2021-08-13T09:02:42.216Z</time>
      </trkpt>
      <trkpt lat="46.82748" lon="8.41514">
        <ele>1319</ele>
        <time>2021-08-13T09:02:43.217Z</time>
      </trkpt>
      <trkpt lat="46.82748" lon="8.41514">
        <ele>1319</ele>
        <time>2021-08-13T09:02:44.217Z</time>
      </trkpt>
      <trkpt lat="46.82748" lon="8.41517">
        <ele>1317</ele>
        <time>2021-08-13T09:02:45.217Z</time>
      </trkpt>
      <trkpt lat="46.82748" lon="8.41518">
        <ele>1317</ele>
        <time>2021-08-13T09:02:46.218Z</time>
      </trkpt>
      <trkpt lat="46.82747" lon="8.41518">
        <ele>1316</ele>
        <time>2021-08-13T09:02:47.217Z</time>
      </trkpt>
      <trkpt lat="46.82748" lon="8.41518">
        <ele>1315</ele>
        <time>2021-08-13T09:02:48.218Z</time>
      </trkpt>
      <trkpt lat="46.82748" lon="8.41518">
        <ele>1315</ele>
        <time>2021-08-13T09:02:49.218Z</time>
      </trkpt>
      <trkpt lat="46.82748" lon="8.41518">
        <ele>1315</ele>
        <time>2021-08-13T09:02:50.217Z</time>
      </trkpt>
      <trkpt lat="46.82748" lon="8.41518">
        <ele>1314</ele>
        <time>2021-08-13T09:02:51.217Z</time>
      </trkpt>
      <trkpt lat="46.82749" lon="8.41518">
        <ele>1315</ele>
        <time>2021-08-13T09:02:52.218Z</time>
      </trkpt>
      <trkpt lat="46.82749" lon="8.41518">
        <ele>1315</ele>
        <time>2021-08-13T09:02:53.219Z</time>
      </trkpt>
      <trkpt lat="46.82747" lon="8.41518">
        <ele>1318</ele>
        <time>2021-08-13T09:02:54.219Z</time>
      </trkpt>
      <trkpt lat="46.82746" lon="8.41519">
        <ele>1318</ele>
        <time>2021-08-13T09:02:55.219Z</time>
      </trkpt>
      <trkpt lat="46.82744" lon="8.41518">
        <ele>1321</ele>
        <time>2021-08-13T09:02:56.218Z</time>
      </trkpt>
      <trkpt lat="46.82744" lon="8.41518">
        <ele>1321</ele>
        <time>2021-08-13T09:02:57.218Z</time>
      </trkpt>
      <trkpt lat="46.82741" lon="8.41517">
        <ele>1321</ele>
        <time>2021-08-13T09:02:58.219Z</time>
      </trkpt>
      <trkpt lat="46.82741" lon="8.41517">
        <ele>1320</ele>
        <time>2021-08-13T09:02:59.218Z</time>
      </trkpt>
      <trkpt lat="46.8274" lon="8.41517">
        <ele>1320</ele>
        <time>2021-08-13T09:03:00.218Z</time>
      </trkpt>
      <trkpt lat="46.8274" lon="8.41517">
        <ele>1320</ele>
        <time>2021-08-13T09:03:01.219Z</time>
      </trkpt>
      <trkpt lat="46.8274" lon="8.41517">
        <ele>1320</ele>
        <time>2021-08-13T09:03:02.219Z</time>
      </trkpt>
      <trkpt lat="46.8274" lon="8.41516">
        <ele>1320</ele>
        <time>2021-08-13T09:03:03.219Z</time>
      </trkpt>
      <trkpt lat="46.8274" lon="8.41516">
        <ele>1320</ele>
        <time>2021-08-13T09:03:04.219Z</time>
      </trkpt>
      <trkpt lat="46.82741" lon="8.41515">
        <ele>1320</ele>
        <time>2021-08-13T09:03:05.219Z</time>
      </trkpt>
      <trkpt lat="46.82742" lon="8.41515">
        <ele>1320</ele>
        <time>2021-08-13T09:03:06.218Z</time>
      </trkpt>
      <trkpt lat="46.82743" lon="8.41515">
        <ele>1319</ele>
        <time>2021-08-13T09:03:07.219Z</time>
      </trkpt>
      <trkpt lat="46.82743" lon="8.41515">
        <ele>1318</ele>
        <time>2021-08-13T09:03:08.219Z</time>
      </trkpt>
      <trkpt lat="46.82744" lon="8.41514">
        <ele>1318</ele>
        <time>2021-08-13T09:03:09.219Z</time>
      </trkpt>
      <trkpt lat="46.82745" lon="8.41514">
        <ele>1317</ele>
        <time>2021-08-13T09:03:10.219Z</time>
      </trkpt>
      <trkpt lat="46.82745" lon="8.41513">
        <ele>1316</ele>
        <time>2021-08-13T09:03:11.219Z</time>
      </trkpt>
      <trkpt lat="46.82746" lon="8.41512">
        <ele>1316</ele>
        <time>2021-08-13T09:03:12.219Z</time>
      </trkpt>
      <trkpt lat="46.82746" lon="8.41511">
        <ele>1315</ele>
        <time>2021-08-13T09:03:13.218Z</time>
      </trkpt>
      <trkpt lat="46.82747" lon="8.4151">
        <ele>1315</ele>
        <time>2021-08-13T09:03:14.218Z</time>
      </trkpt>
      <trkpt lat="46.82748" lon="8.4151">
        <ele>1314</ele>
        <time>2021-08-13T09:03:15.219Z</time>
      </trkpt>
      <trkpt lat="46.82748" lon="8.41509">
        <ele>1314</ele>
        <time>2021-08-13T09:03:16.218Z</time>
      </trkpt>
      <trkpt lat="46.82749" lon="8.41509">
        <ele>1314</ele>
        <time>2021-08-13T09:03:17.218Z</time>
      </trkpt>
      <trkpt lat="46.82749" lon="8.41508">
        <ele>1313</ele>
        <time>2021-08-13T09:03:18.218Z</time>
      </trkpt>
      <trkpt lat="46.8275" lon="8.41507">
        <ele>1313</ele>
        <time>2021-08-13T09:03:19.219Z</time>
      </trkpt>
      <trkpt lat="46.8275" lon="8.41507">
        <ele>1313</ele>
        <time>2021-08-13T09:03:20.219Z</time>
      </trkpt>
      <trkpt lat="46.82751" lon="8.41506">
        <ele>1313</ele>
        <time>2021-08-13T09:03:21.219Z</time>
      </trkpt>
      <trkpt lat="46.82751" lon="8.41506">
        <ele>1313</ele>
        <time>2021-08-13T09:03:22.219Z</time>
      </trkpt>
      <trkpt lat="46.82752" lon="8.41505">
        <ele>1313</ele>
        <time>2021-08-13T09:03:23.218Z</time>
      </trkpt>
      <trkpt lat="46.82754" lon="8.41505">
        <ele>1313</ele>
        <time>2021-08-13T09:03:24.219Z</time>
      </trkpt>
      <trkpt lat="46.82756" lon="8.41504">
        <ele>1314</ele>
        <time>2021-08-13T09:03:25.219Z</time>
      </trkpt>
      <trkpt lat="46.82757" lon="8.41504">
        <ele>1314</ele>
        <time>2021-08-13T09:03:26.218Z</time>
      </trkpt>
      <trkpt lat="46.82758" lon="8.41503">
        <ele>1315</ele>
        <time>2021-08-13T09:03:27.218Z</time>
      </trkpt>
      <trkpt lat="46.82759" lon="8.41502">
        <ele>1315</ele>
        <time>2021-08-13T09:03:28.219Z</time>
      </trkpt>
      <trkpt lat="46.8276" lon="8.415">
        <ele>1315</ele>
        <time>2021-08-13T09:03:29.219Z</time>
      </trkpt>
      <trkpt lat="46.82761" lon="8.41498">
        <ele>1316</ele>
        <time>2021-08-13T09:03:30.219Z</time>
      </trkpt>
      <trkpt lat="46.82763" lon="8.41497">
        <ele>1316</ele>
        <time>2021-08-13T09:03:31.219Z</time>
      </trkpt>
      <trkpt lat="46.82763" lon="8.41497">
        <ele>1316</ele>
        <time>2021-08-13T09:03:32.219Z</time>
      </trkpt>
      <trkpt lat="46.82763" lon="8.41497">
        <ele>1316</ele>
        <time>2021-08-13T09:03:33.219Z</time>
      </trkpt>
      <trkpt lat="46.82764" lon="8.41496">
        <ele>1316</ele>
        <time>2021-08-13T09:03:34.219Z</time>
      </trkpt>
      <trkpt lat="46.82763" lon="8.41496">
        <ele>1315</ele>
        <time>2021-08-13T09:03:35.218Z</time>
      </trkpt>
      <trkpt lat="46.82763" lon="8.41496">
        <ele>1315</ele>
        <time>2021-08-13T09:03:36.219Z</time>
      </trkpt>
      <trkpt lat="46.82762" lon="8.41496">
        <ele>1314</ele>
        <time>2021-08-13T09:03:37.219Z</time>
      </trkpt>
      <trkpt lat="46.82762" lon="8.41496">
        <ele>1314</ele>
        <time>2021-08-13T09:03:38.219Z</time>
      </trkpt>
      <trkpt lat="46.82761" lon="8.41496">
        <ele>1314</ele>
        <time>2021-08-13T09:03:39.218Z</time>
      </trkpt>
      <trkpt lat="46.8276" lon="8.41496">
        <ele>1314</ele>
        <time>2021-08-13T09:03:40.219Z</time>
      </trkpt>
      <trkpt lat="46.82759" lon="8.41496">
        <ele>1314</ele>
        <time>2021-08-13T09:03:41.218Z</time>
      </trkpt>
      <trkpt lat="46.82759" lon="8.41497">
        <ele>1315</ele>
        <time>2021-08-13T09:03:42.219Z</time>
      </trkpt>
      <trkpt lat="46.82758" lon="8.41497">
        <ele>1315</ele>
        <time>2021-08-13T09:03:43.218Z</time>
      </trkpt>
      <trkpt lat="46.82757" lon="8.41497">
        <ele>1316</ele>
        <time>2021-08-13T09:03:44.218Z</time>
      </trkpt>
      <trkpt lat="46.82756" lon="8.41496">
        <ele>1316</ele>
        <time>2021-08-13T09:03:45.219Z</time>
      </trkpt>
      <trkpt lat="46.82756" lon="8.41496">
        <ele>1317</ele>
        <time>2021-08-13T09:03:46.218Z</time>
      </trkpt>
      <trkpt lat="46.82755" lon="8.41496">
        <ele>1317</ele>
        <time>2021-08-13T09:03:47.218Z</time>
      </trkpt>
      <trkpt lat="46.82754" lon="8.41496">
        <ele>1317</ele>
        <time>2021-08-13T09:03:48.219Z</time>
      </trkpt>
      <trkpt lat="46.82753" lon="8.41496">
        <ele>1317</ele>
        <time>2021-08-13T09:03:49.218Z</time>
      </trkpt>
      <trkpt lat="46.82753" lon="8.41495">
        <ele>1316</ele>
        <time>2021-08-13T09:03:50.218Z</time>
      </trkpt>
      <trkpt lat="46.82752" lon="8.41495">
        <ele>1316</ele>
        <time>2021-08-13T09:03:51.218Z</time>
      </trkpt>
      <trkpt lat="46.8275" lon="8.41495">
        <ele>1316</ele>
        <time>2021-08-13T09:03:52.218Z</time>
      </trkpt>
      <trkpt lat="46.82749" lon="8.41494">
        <ele>1315</ele>
        <time>2021-08-13T09:03:53.219Z</time>
      </trkpt>
      <trkpt lat="46.82747" lon="8.41494">
        <ele>1315</ele>
        <time>2021-08-13T09:03:54.219Z</time>
      </trkpt>
      <trkpt lat="46.82746" lon="8.41493">
        <ele>1315</ele>
        <time>2021-08-13T09:03:55.218Z</time>
      </trkpt>
      <trkpt lat="46.82745" lon="8.41493">
        <ele>1315</ele>
        <time>2021-08-13T09:03:56.218Z</time>
      </trkpt>
      <trkpt lat="46.82745" lon="8.41493">
        <ele>1315</ele>
        <time>2021-08-13T09:03:57.218Z</time>
      </trkpt>
      <trkpt lat="46.82744" lon="8.41493">
        <ele>1315</ele>
        <time>2021-08-13T09:03:58.219Z</time>
      </trkpt>
      <trkpt lat="46.82743" lon="8.41493">
        <ele>1314</ele>
        <time>2021-08-13T09:03:59.219Z</time>
      </trkpt>
      <trkpt lat="46.82742" lon="8.41493">
        <ele>1314</ele>
        <time>2021-08-13T09:04:00.219Z</time>
      </trkpt>
      <trkpt lat="46.82742" lon="8.41494">
        <ele>1314</ele>
        <time>2021-08-13T09:04:01.218Z</time>
      </trkpt>
      <trkpt lat="46.82741" lon="8.41494">
        <ele>1314</ele>
        <time>2021-08-13T09:04:02.219Z</time>
      </trkpt>
      <trkpt lat="46.82741" lon="8.41494">
        <ele>1313</ele>
        <time>2021-08-13T09:04:03.219Z</time>
      </trkpt>
      <trkpt lat="46.82741" lon="8.41494">
        <ele>1313</ele>
        <time>2021-08-13T09:04:04.218Z</time>
      </trkpt>
      <trkpt lat="46.8274" lon="8.41494">
        <ele>1312</ele>
        <time>2021-08-13T09:04:05.219Z</time>
      </trkpt>
      <trkpt lat="46.82739" lon="8.41494">
        <ele>1311</ele>
        <time>2021-08-13T09:04:06.219Z</time>
      </trkpt>
      <trkpt lat="46.82738" lon="8.41494">
        <ele>1311</ele>
        <time>2021-08-13T09:04:07.219Z</time>
      </trkpt>
      <trkpt lat="46.82736" lon="8.41494">
        <ele>1310</ele>
        <time>2021-08-13T09:04:08.219Z</time>
      </trkpt>
      <trkpt lat="46.82733" lon="8.41493">
        <ele>1309</ele>
        <time>2021-08-13T09:04:09.219Z</time>
      </trkpt>
      <trkpt lat="46.82731" lon="8.41493">
        <ele>1309</ele>
        <time>2021-08-13T09:04:10.219Z</time>
      </trkpt>
      <trkpt lat="46.82731" lon="8.41494">
        <ele>1308</ele>
        <time>2021-08-13T09:04:11.219Z</time>
      </trkpt>
      <trkpt lat="46.82731" lon="8.41495">
        <ele>1308</ele>
        <time>2021-08-13T09:04:12.219Z</time>
      </trkpt>
      <trkpt lat="46.8273" lon="8.41496">
        <ele>1307</ele>
        <time>2021-08-13T09:04:13.218Z</time>
      </trkpt>
      <trkpt lat="46.82729" lon="8.41497">
        <ele>1307</ele>
        <time>2021-08-13T09:04:14.219Z</time>
      </trkpt>
      <trkpt lat="46.82729" lon="8.41498">
        <ele>1306</ele>
        <time>2021-08-13T09:04:15.219Z</time>
      </trkpt>
      <trkpt lat="46.82728" lon="8.41498">
        <ele>1306</ele>
        <time>2021-08-13T09:04:16.218Z</time>
      </trkpt>
      <trkpt lat="46.82728" lon="8.41499">
        <ele>1305</ele>
        <time>2021-08-13T09:04:17.219Z</time>
      </trkpt>
      <trkpt lat="46.82728" lon="8.415">
        <ele>1305</ele>
        <time>2021-08-13T09:04:18.218Z</time>
      </trkpt>
      <trkpt lat="46.82727" lon="8.41501">
        <ele>1305</ele>
        <time>2021-08-13T09:04:19.219Z</time>
      </trkpt>
      <trkpt lat="46.82727" lon="8.41502">
        <ele>1304</ele>
        <time>2021-08-13T09:04:20.218Z</time>
      </trkpt>
      <trkpt lat="46.82727" lon="8.41503">
        <ele>1304</ele>
        <time>2021-08-13T09:04:21.218Z</time>
      </trkpt>
      <trkpt lat="46.82726" lon="8.41504">
        <ele>1304</ele>
        <time>2021-08-13T09:04:22.218Z</time>
      </trkpt>
      <trkpt lat="46.82724" lon="8.41503">
        <ele>1304</ele>
        <time>2021-08-13T09:04:23.219Z</time>
      </trkpt>
      <trkpt lat="46.82723" lon="8.41502">
        <ele>1304</ele>
        <time>2021-08-13T09:04:24.219Z</time>
      </trkpt>
      <trkpt lat="46.82722" lon="8.41502">
        <ele>1303</ele>
        <time>2021-08-13T09:04:25.218Z</time>
      </trkpt>
      <trkpt lat="46.82722" lon="8.41502">
        <ele>1303</ele>
        <time>2021-08-13T09:04:26.218Z</time>
      </trkpt>
      <trkpt lat="46.82721" lon="8.41502">
        <ele>1303</ele>
        <time>2021-08-13T09:04:27.218Z</time>
      </trkpt>
      <trkpt lat="46.8272" lon="8.41502">
        <ele>1303</ele>
        <time>2021-08-13T09:04:28.218Z</time>
      </trkpt>
      <trkpt lat="46.82719" lon="8.41502">
        <ele>1302</ele>
        <time>2021-08-13T09:04:29.219Z</time>
      </trkpt>
      <trkpt lat="46.82718" lon="8.41502">
        <ele>1301</ele>
        <time>2021-08-13T09:04:30.219Z</time>
      </trkpt>
      <trkpt lat="46.82718" lon="8.41502">
        <ele>1300</ele>
        <time>2021-08-13T09:04:31.219Z</time>
      </trkpt>
      <trkpt lat="46.82717" lon="8.41502">
        <ele>1299</ele>
        <time>2021-08-13T09:04:32.219Z</time>
      </trkpt>
      <trkpt lat="46.82717" lon="8.41502">
        <ele>1298</ele>
        <time>2021-08-13T09:04:33.218Z</time>
      </trkpt>
      <trkpt lat="46.82716" lon="8.41502">
        <ele>1297</ele>
        <time>2021-08-13T09:04:34.219Z</time>
      </trkpt>
      <trkpt lat="46.82715" lon="8.41502">
        <ele>1297</ele>
        <time>2021-08-13T09:04:35.219Z</time>
      </trkpt>
      <trkpt lat="46.82714" lon="8.41502">
        <ele>1296</ele>
        <time>2021-08-13T09:04:36.219Z</time>
      </trkpt>
      <trkpt lat="46.82713" lon="8.41501">
        <ele>1296</ele>
        <time>2021-08-13T09:04:37.219Z</time>
      </trkpt>
      <trkpt lat="46.82712" lon="8.41501">
        <ele>1295</ele>
        <time>2021-08-13T09:04:38.219Z</time>
      </trkpt>
      <trkpt lat="46.82711" lon="8.41501">
        <ele>1295</ele>
        <time>2021-08-13T09:04:39.218Z</time>
      </trkpt>
      <trkpt lat="46.8271" lon="8.415">
        <ele>1295</ele>
        <time>2021-08-13T09:04:40.218Z</time>
      </trkpt>
      <trkpt lat="46.82708" lon="8.415">
        <ele>1296</ele>
        <time>2021-08-13T09:04:41.218Z</time>
      </trkpt>
      <trkpt lat="46.82708" lon="8.415">
        <ele>1296</ele>
        <time>2021-08-13T09:04:42.219Z</time>
      </trkpt>
      <trkpt lat="46.82707" lon="8.415">
        <ele>1297</ele>
        <time>2021-08-13T09:04:43.219Z</time>
      </trkpt>
      <trkpt lat="46.82706" lon="8.41499">
        <ele>1297</ele>
        <time>2021-08-13T09:04:44.218Z</time>
      </trkpt>
      <trkpt lat="46.82705" lon="8.41498">
        <ele>1298</ele>
        <time>2021-08-13T09:04:45.219Z</time>
      </trkpt>
      <trkpt lat="46.82704" lon="8.41498">
        <ele>1298</ele>
        <time>2021-08-13T09:04:46.218Z</time>
      </trkpt>
      <trkpt lat="46.82704" lon="8.41498">
        <ele>1298</ele>
        <time>2021-08-13T09:04:47.219Z</time>
      </trkpt>
      <trkpt lat="46.82703" lon="8.41498">
        <ele>1297</ele>
        <time>2021-08-13T09:04:48.218Z</time>
      </trkpt>
      <trkpt lat="46.82702" lon="8.41498">
        <ele>1297</ele>
        <time>2021-08-13T09:04:49.219Z</time>
      </trkpt>
      <trkpt lat="46.82701" lon="8.41498">
        <ele>1297</ele>
        <time>2021-08-13T09:04:50.219Z</time>
      </trkpt>
      <trkpt lat="46.82701" lon="8.41498">
        <ele>1297</ele>
        <time>2021-08-13T09:04:51.219Z</time>
      </trkpt>
      <trkpt lat="46.827" lon="8.41498">
        <ele>1297</ele>
        <time>2021-08-13T09:04:52.219Z</time>
      </trkpt>
      <trkpt lat="46.82699" lon="8.41498">
        <ele>1297</ele>
        <time>2021-08-13T09:04:53.218Z</time>
      </trkpt>
      <trkpt lat="46.82699" lon="8.41499">
        <ele>1297</ele>
        <time>2021-08-13T09:04:54.218Z</time>
      </trkpt>
      <trkpt lat="46.82698" lon="8.41499">
        <ele>1296</ele>
        <time>2021-08-13T09:04:55.219Z</time>
      </trkpt>
      <trkpt lat="46.82697" lon="8.415">
        <ele>1296</ele>
        <time>2021-08-13T09:04:56.219Z</time>
      </trkpt>
      <trkpt lat="46.82696" lon="8.41501">
        <ele>1296</ele>
        <time>2021-08-13T09:04:57.218Z</time>
      </trkpt>
      <trkpt lat="46.82695" lon="8.41501">
        <ele>1296</ele>
        <time>2021-08-13T09:04:58.219Z</time>
      </trkpt>
      <trkpt lat="46.82694" lon="8.41501">
        <ele>1296</ele>
        <time>2021-08-13T09:04:59.218Z</time>
      </trkpt>
      <trkpt lat="46.82692" lon="8.415">
        <ele>1296</ele>
        <time>2021-08-13T09:05:00.218Z</time>
      </trkpt>
      <trkpt lat="46.8269" lon="8.41499">
        <ele>1296</ele>
        <time>2021-08-13T09:05:01.218Z</time>
      </trkpt>
      <trkpt lat="46.82689" lon="8.41498">
        <ele>1296</ele>
        <time>2021-08-13T09:05:02.219Z</time>
      </trkpt>
      <trkpt lat="46.82689" lon="8.41498">
        <ele>1296</ele>
        <time>2021-08-13T09:05:03.218Z</time>
      </trkpt>
      <trkpt lat="46.82688" lon="8.415">
        <ele>1296</ele>
        <time>2021-08-13T09:05:04.218Z</time>
      </trkpt>
      <trkpt lat="46.82688" lon="8.415">
        <ele>1296</ele>
        <time>2021-08-13T09:05:05.219Z</time>
      </trkpt>
      <trkpt lat="46.82687" lon="8.41501">
        <ele>1296</ele>
        <time>2021-08-13T09:05:06.218Z</time>
      </trkpt>
      <trkpt lat="46.82686" lon="8.41501">
        <ele>1296</ele>
        <time>2021-08-13T09:05:07.218Z</time>
      </trkpt>
      <trkpt lat="46.82685" lon="8.41502">
        <ele>1296</ele>
        <time>2021-08-13T09:05:08.218Z</time>
      </trkpt>
      <trkpt lat="46.82685" lon="8.41501">
        <ele>1296</ele>
        <time>2021-08-13T09:05:09.219Z</time>
      </trkpt>
      <trkpt lat="46.82685" lon="8.41501">
        <ele>1296</ele>
        <time>2021-08-13T09:05:10.218Z</time>
      </trkpt>
      <trkpt lat="46.82684" lon="8.41501">
        <ele>1295</ele>
        <time>2021-08-13T09:05:11.219Z</time>
      </trkpt>
      <trkpt lat="46.82685" lon="8.41501">
        <ele>1295</ele>
        <time>2021-08-13T09:05:12.219Z</time>
      </trkpt>
      <trkpt lat="46.82685" lon="8.41501">
        <ele>1295</ele>
        <time>2021-08-13T09:05:13.218Z</time>
      </trkpt>
      <trkpt lat="46.82686" lon="8.41501">
        <ele>1295</ele>
        <time>2021-08-13T09:05:14.219Z</time>
      </trkpt>
      <trkpt lat="46.82686" lon="8.415">
        <ele>1295</ele>
        <time>2021-08-13T09:05:15.219Z</time>
      </trkpt>
      <trkpt lat="46.82687" lon="8.415">
        <ele>1295</ele>
        <time>2021-08-13T09:05:16.218Z</time>
      </trkpt>
      <trkpt lat="46.82688" lon="8.41499">
        <ele>1294</ele>
        <time>2021-08-13T09:05:17.219Z</time>
      </trkpt>
      <trkpt lat="46.82688" lon="8.41499">
        <ele>1294</ele>
        <time>2021-08-13T09:05:18.219Z</time>
      </trkpt>
      <trkpt lat="46.82689" lon="8.41499">
        <ele>1294</ele>
        <time>2021-08-13T09:05:19.218Z</time>
      </trkpt>
      <trkpt lat="46.82689" lon="8.41498">
        <ele>1294</ele>
        <time>2021-08-13T09:05:20.218Z</time>
      </trkpt>
      <trkpt lat="46.82689" lon="8.41498">
        <ele>1293</ele>
        <time>2021-08-13T09:05:21.219Z</time>
      </trkpt>
      <trkpt lat="46.8269" lon="8.41497">
        <ele>1293</ele>
        <time>2021-08-13T09:05:22.219Z</time>
      </trkpt>
      <trkpt lat="46.82691" lon="8.41497">
        <ele>1292</ele>
        <time>2021-08-13T09:05:23.218Z</time>
      </trkpt>
      <trkpt lat="46.82692" lon="8.41496">
        <ele>1292</ele>
        <time>2021-08-13T09:05:24.219Z</time>
      </trkpt>
      <trkpt lat="46.82693" lon="8.41496">
        <ele>1292</ele>
        <time>2021-08-13T09:05:25.219Z</time>
      </trkpt>
      <trkpt lat="46.82693" lon="8.41496">
        <ele>1291</ele>
        <time>2021-08-13T09:05:26.218Z</time>
      </trkpt>
      <trkpt lat="46.82694" lon="8.41494">
        <ele>1291</ele>
        <time>2021-08-13T09:05:27.218Z</time>
      </trkpt>
      <trkpt lat="46.82695" lon="8.41494">
        <ele>1291</ele>
        <time>2021-08-13T09:05:28.218Z</time>
      </trkpt>
      <trkpt lat="46.82696" lon="8.41493">
        <ele>1290</ele>
        <time>2021-08-13T09:05:29.218Z</time>
      </trkpt>
      <trkpt lat="46.82697" lon="8.41492">
        <ele>1290</ele>
        <time>2021-08-13T09:05:30.218Z</time>
      </trkpt>
      <trkpt lat="46.82698" lon="8.41492">
        <ele>1289</ele>
        <time>2021-08-13T09:05:31.219Z</time>
      </trkpt>
      <trkpt lat="46.82698" lon="8.41491">
        <ele>1289</ele>
        <time>2021-08-13T09:05:32.218Z</time>
      </trkpt>
      <trkpt lat="46.827" lon="8.41491">
        <ele>1288</ele>
        <time>2021-08-13T09:05:33.219Z</time>
      </trkpt>
      <trkpt lat="46.82701" lon="8.4149">
        <ele>1287</ele>
        <time>2021-08-13T09:05:34.218Z</time>
      </trkpt>
      <trkpt lat="46.82702" lon="8.41488">
        <ele>1287</ele>
        <time>2021-08-13T09:05:35.218Z</time>
      </trkpt>
      <trkpt lat="46.82702" lon="8.41487">
        <ele>1286</ele>
        <time>2021-08-13T09:05:36.219Z</time>
      </trkpt>
      <trkpt lat="46.82702" lon="8.41487">
        <ele>1286</ele>
        <time>2021-08-13T09:05:37.218Z</time>
      </trkpt>
      <trkpt lat="46.82703" lon="8.41486">
        <ele>1285</ele>
        <time>2021-08-13T09:05:38.218Z</time>
      </trkpt>
      <trkpt lat="46.82704" lon="8.41486">
        <ele>1285</ele>
        <time>2021-08-13T09:05:39.218Z</time>
      </trkpt>
      <trkpt lat="46.82705" lon="8.41486">
        <ele>1284</ele>
        <time>2021-08-13T09:05:40.218Z</time>
      </trkpt>
      <trkpt lat="46.82705" lon="8.41485">
        <ele>1283</ele>
        <time>2021-08-13T09:05:41.218Z</time>
      </trkpt>
      <trkpt lat="46.82706" lon="8.41485">
        <ele>1283</ele>
        <time>2021-08-13T09:05:42.218Z</time>
      </trkpt>
      <trkpt lat="46.82708" lon="8.41484">
        <ele>1283</ele>
        <time>2021-08-13T09:05:43.219Z</time>
      </trkpt>
      <trkpt lat="46.82709" lon="8.41483">
        <ele>1282</ele>
        <time>2021-08-13T09:05:44.218Z</time>
      </trkpt>
      <trkpt lat="46.8271" lon="8.41482">
        <ele>1282</ele>
        <time>2021-08-13T09:05:45.219Z</time>
      </trkpt>
      <trkpt lat="46.8271" lon="8.41482">
        <ele>1282</ele>
        <time>2021-08-13T09:05:46.218Z</time>
      </trkpt>
      <trkpt lat="46.8271" lon="8.41482">
        <ele>1282</ele>
        <time>2021-08-13T09:05:47.218Z</time>
      </trkpt>
      <trkpt lat="46.82711" lon="8.41482">
        <ele>1281</ele>
        <time>2021-08-13T09:05:48.218Z</time>
      </trkpt>
      <trkpt lat="46.82711" lon="8.41482">
        <ele>1281</ele>
        <time>2021-08-13T09:05:49.218Z</time>
      </trkpt>
      <trkpt lat="46.82712" lon="8.41481">
        <ele>1281</ele>
        <time>2021-08-13T09:05:50.218Z</time>
      </trkpt>
      <trkpt lat="46.82712" lon="8.41481">
        <ele>1281</ele>
        <time>2021-08-13T09:05:51.218Z</time>
      </trkpt>
      <trkpt lat="46.82713" lon="8.41481">
        <ele>1281</ele>
        <time>2021-08-13T09:05:52.219Z</time>
      </trkpt>
      <trkpt lat="46.82713" lon="8.41481">
        <ele>1281</ele>
        <time>2021-08-13T09:05:53.219Z</time>
      </trkpt>
      <trkpt lat="46.82714" lon="8.41481">
        <ele>1281</ele>
        <time>2021-08-13T09:05:54.219Z</time>
      </trkpt>
      <trkpt lat="46.82716" lon="8.41479">
        <ele>1281</ele>
        <time>2021-08-13T09:05:55.219Z</time>
      </trkpt>
      <trkpt lat="46.82716" lon="8.41479">
        <ele>1281</ele>
        <time>2021-08-13T09:05:56.218Z</time>
      </trkpt>
      <trkpt lat="46.82717" lon="8.41478">
        <ele>1281</ele>
        <time>2021-08-13T09:05:57.219Z</time>
      </trkpt>
      <trkpt lat="46.82717" lon="8.41478">
        <ele>1281</ele>
        <time>2021-08-13T09:05:58.219Z</time>
      </trkpt>
      <trkpt lat="46.82717" lon="8.41477">
        <ele>1281</ele>
        <time>2021-08-13T09:05:59.218Z</time>
      </trkpt>
      <trkpt lat="46.82718" lon="8.41476">
        <ele>1281</ele>
        <time>2021-08-13T09:06:00.218Z</time>
      </trkpt>
      <trkpt lat="46.82719" lon="8.41476">
        <ele>1281</ele>
        <time>2021-08-13T09:06:01.219Z</time>
      </trkpt>
      <trkpt lat="46.8272" lon="8.41475">
        <ele>1281</ele>
        <time>2021-08-13T09:06:02.219Z</time>
      </trkpt>
      <trkpt lat="46.82722" lon="8.41475">
        <ele>1281</ele>
        <time>2021-08-13T09:06:03.218Z</time>
      </trkpt>
      <trkpt lat="46.82723" lon="8.41475">
        <ele>1281</ele>
        <time>2021-08-13T09:06:04.219Z</time>
      </trkpt>
      <trkpt lat="46.82723" lon="8.41475">
        <ele>1281</ele>
        <time>2021-08-13T09:06:05.219Z</time>
      </trkpt>
      <trkpt lat="46.82724" lon="8.41475">
        <ele>1281</ele>
        <time>2021-08-13T09:06:06.219Z</time>
      </trkpt>
      <trkpt lat="46.82724" lon="8.41475">
        <ele>1281</ele>
        <time>2021-08-13T09:06:07.218Z</time>
      </trkpt>
      <trkpt lat="46.82725" lon="8.41475">
        <ele>1281</ele>
        <time>2021-08-13T09:06:08.219Z</time>
      </trkpt>
      <trkpt lat="46.82725" lon="8.41475">
        <ele>1281</ele>
        <time>2021-08-13T09:06:09.219Z</time>
      </trkpt>
      <trkpt lat="46.82726" lon="8.41475">
        <ele>1282</ele>
        <time>2021-08-13T09:06:10.219Z</time>
      </trkpt>
      <trkpt lat="46.82726" lon="8.41475">
        <ele>1282</ele>
        <time>2021-08-13T09:06:11.219Z</time>
      </trkpt>
      <trkpt lat="46.82727" lon="8.41474">
        <ele>1282</ele>
        <time>2021-08-13T09:06:12.219Z</time>
      </trkpt>
      <trkpt lat="46.82727" lon="8.41473">
        <ele>1283</ele>
        <time>2021-08-13T09:06:13.219Z</time>
      </trkpt>
      <trkpt lat="46.82727" lon="8.41471">
        <ele>1283</ele>
        <time>2021-08-13T09:06:14.218Z</time>
      </trkpt>
      <trkpt lat="46.82727" lon="8.4147">
        <ele>1284</ele>
        <time>2021-08-13T09:06:15.219Z</time>
      </trkpt>
      <trkpt lat="46.82728" lon="8.41468">
        <ele>1284</ele>
        <time>2021-08-13T09:06:16.219Z</time>
      </trkpt>
      <trkpt lat="46.82729" lon="8.41466">
        <ele>1284</ele>
        <time>2021-08-13T09:06:17.218Z</time>
      </trkpt>
      <trkpt lat="46.8273" lon="8.41465">
        <ele>1285</ele>
        <time>2021-08-13T09:06:18.218Z</time>
      </trkpt>
      <trkpt lat="46.8273" lon="8.41465">
        <ele>1285</ele>
        <time>2021-08-13T09:06:19.218Z</time>
      </trkpt>
      <trkpt lat="46.82732" lon="8.41464">
        <ele>1286</ele>
        <time>2021-08-13T09:06:20.218Z</time>
      </trkpt>
      <trkpt lat="46.82732" lon="8.41464">
        <ele>1286</ele>
        <time>2021-08-13T09:06:21.219Z</time>
      </trkpt>
      <trkpt lat="46.82732" lon="8.41463">
        <ele>1287</ele>
        <time>2021-08-13T09:06:22.218Z</time>
      </trkpt>
      <trkpt lat="46.82731" lon="8.41462">
        <ele>1287</ele>
        <time>2021-08-13T09:06:23.218Z</time>
      </trkpt>
      <trkpt lat="46.8273" lon="8.41461">
        <ele>1288</ele>
        <time>2021-08-13T09:06:24.218Z</time>
      </trkpt>
      <trkpt lat="46.82728" lon="8.41461">
        <ele>1289</ele>
        <time>2021-08-13T09:06:25.219Z</time>
      </trkpt>
      <trkpt lat="46.82727" lon="8.4146">
        <ele>1289</ele>
        <time>2021-08-13T09:06:26.219Z</time>
      </trkpt>
      <trkpt lat="46.82726" lon="8.4146">
        <ele>1290</ele>
        <time>2021-08-13T09:06:27.219Z</time>
      </trkpt>
      <trkpt lat="46.82725" lon="8.41459">
        <ele>1291</ele>
        <time>2021-08-13T09:06:28.219Z</time>
      </trkpt>
      <trkpt lat="46.82725" lon="8.41458">
        <ele>1291</ele>
        <time>2021-08-13T09:06:29.219Z</time>
      </trkpt>
      <trkpt lat="46.82724" lon="8.41458">
        <ele>1292</ele>
        <time>2021-08-13T09:06:30.219Z</time>
      </trkpt>
      <trkpt lat="46.82723" lon="8.41456">
        <ele>1292</ele>
        <time>2021-08-13T09:06:31.218Z</time>
      </trkpt>
      <trkpt lat="46.82722" lon="8.41455">
        <ele>1293</ele>
        <time>2021-08-13T09:06:32.219Z</time>
      </trkpt>
      <trkpt lat="46.8272" lon="8.41454">
        <ele>1293</ele>
        <time>2021-08-13T09:06:33.219Z</time>
      </trkpt>
      <trkpt lat="46.82719" lon="8.41452">
        <ele>1294</ele>
        <time>2021-08-13T09:06:34.219Z</time>
      </trkpt>
      <trkpt lat="46.82719" lon="8.41451">
        <ele>1294</ele>
        <time>2021-08-13T09:06:35.219Z</time>
      </trkpt>
      <trkpt lat="46.82718" lon="8.41449">
        <ele>1294</ele>
        <time>2021-08-13T09:06:36.219Z</time>
      </trkpt>
      <trkpt lat="46.82716" lon="8.41446">
        <ele>1295</ele>
        <time>2021-08-13T09:06:37.218Z</time>
      </trkpt>
      <trkpt lat="46.82715" lon="8.41442">
        <ele>1295</ele>
        <time>2021-08-13T09:06:38.219Z</time>
      </trkpt>
      <trkpt lat="46.82713" lon="8.41439">
        <ele>1296</ele>
        <time>2021-08-13T09:06:39.219Z</time>
      </trkpt>
      <trkpt lat="46.8271" lon="8.41437">
        <ele>1296</ele>
        <time>2021-08-13T09:06:40.219Z</time>
      </trkpt>
      <trkpt lat="46.82708" lon="8.41436">
        <ele>1296</ele>
        <time>2021-08-13T09:06:41.218Z</time>
      </trkpt>
      <trkpt lat="46.82707" lon="8.41436">
        <ele>1297</ele>
        <time>2021-08-13T09:06:42.219Z</time>
      </trkpt>
      <trkpt lat="46.82706" lon="8.41435">
        <ele>1298</ele>
        <time>2021-08-13T09:06:43.219Z</time>
      </trkpt>
      <trkpt lat="46.82704" lon="8.41435">
        <ele>1298</ele>
        <time>2021-08-13T09:06:44.219Z</time>
      </trkpt>
      <trkpt lat="46.82703" lon="8.41435">
        <ele>1299</ele>
        <time>2021-08-13T09:06:45.219Z</time>
      </trkpt>
      <trkpt lat="46.82701" lon="8.41434">
        <ele>1299</ele>
        <time>2021-08-13T09:06:46.218Z</time>
      </trkpt>
      <trkpt lat="46.827" lon="8.41435">
        <ele>1299</ele>
        <time>2021-08-13T09:06:47.219Z</time>
      </trkpt>
      <trkpt lat="46.82698" lon="8.41434">
        <ele>1300</ele>
        <time>2021-08-13T09:06:48.219Z</time>
      </trkpt>
      <trkpt lat="46.82697" lon="8.41434">
        <ele>1300</ele>
        <time>2021-08-13T09:06:49.218Z</time>
      </trkpt>
      <trkpt lat="46.82697" lon="8.41432">
        <ele>1301</ele>
        <time>2021-08-13T09:06:50.219Z</time>
      </trkpt>
      <trkpt lat="46.82696" lon="8.41432">
        <ele>1301</ele>
        <time>2021-08-13T09:06:51.219Z</time>
      </trkpt>
      <trkpt lat="46.82696" lon="8.41431">
        <ele>1302</ele>
        <time>2021-08-13T09:06:52.219Z</time>
      </trkpt>
      <trkpt lat="46.82695" lon="8.4143">
        <ele>1302</ele>
        <time>2021-08-13T09:06:53.219Z</time>
      </trkpt>
      <trkpt lat="46.82695" lon="8.4143">
        <ele>1302</ele>
        <time>2021-08-13T09:06:54.218Z</time>
      </trkpt>
      <trkpt lat="46.82695" lon="8.41431">
        <ele>1303</ele>
        <time>2021-08-13T09:06:55.218Z</time>
      </trkpt>
      <trkpt lat="46.82694" lon="8.4143">
        <ele>1304</ele>
        <time>2021-08-13T09:06:56.219Z</time>
      </trkpt>
      <trkpt lat="46.82694" lon="8.41429">
        <ele>1304</ele>
        <time>2021-08-13T09:06:57.219Z</time>
      </trkpt>
      <trkpt lat="46.82693" lon="8.41427">
        <ele>1305</ele>
        <time>2021-08-13T09:06:58.218Z</time>
      </trkpt>
      <trkpt lat="46.82691" lon="8.41426">
        <ele>1305</ele>
        <time>2021-08-13T09:06:59.219Z</time>
      </trkpt>
      <trkpt lat="46.82689" lon="8.41426">
        <ele>1306</ele>
        <time>2021-08-13T09:07:00.219Z</time>
      </trkpt>
      <trkpt lat="46.82688" lon="8.41426">
        <ele>1307</ele>
        <time>2021-08-13T09:07:01.219Z</time>
      </trkpt>
      <trkpt lat="46.82687" lon="8.41426">
        <ele>1307</ele>
        <time>2021-08-13T09:07:02.219Z</time>
      </trkpt>
      <trkpt lat="46.82686" lon="8.41426">
        <ele>1308</ele>
        <time>2021-08-13T09:07:03.219Z</time>
      </trkpt>
      <trkpt lat="46.82686" lon="8.41426">
        <ele>1308</ele>
        <time>2021-08-13T09:07:04.218Z</time>
      </trkpt>
      <trkpt lat="46.82685" lon="8.41427">
        <ele>1309</ele>
        <time>2021-08-13T09:07:05.218Z</time>
      </trkpt>
      <trkpt lat="46.82685" lon="8.41427">
        <ele>1309</ele>
        <time>2021-08-13T09:07:06.219Z</time>
      </trkpt>
      <trkpt lat="46.82684" lon="8.41428">
        <ele>1308</ele>
        <time>2021-08-13T09:07:07.219Z</time>
      </trkpt>
      <trkpt lat="46.82683" lon="8.41428">
        <ele>1308</ele>
        <time>2021-08-13T09:07:08.218Z</time>
      </trkpt>
      <trkpt lat="46.82682" lon="8.41428">
        <ele>1308</ele>
        <time>2021-08-13T09:07:09.219Z</time>
      </trkpt>
      <trkpt lat="46.82682" lon="8.41428">
        <ele>1307</ele>
        <time>2021-08-13T09:07:10.219Z</time>
      </trkpt>
      <trkpt lat="46.82681" lon="8.41427">
        <ele>1307</ele>
        <time>2021-08-13T09:07:11.218Z</time>
      </trkpt>
      <trkpt lat="46.82679" lon="8.41427">
        <ele>1307</ele>
        <time>2021-08-13T09:07:12.218Z</time>
      </trkpt>
      <trkpt lat="46.82679" lon="8.41426">
        <ele>1307</ele>
        <time>2021-08-13T09:07:13.219Z</time>
      </trkpt>
      <trkpt lat="46.82678" lon="8.41426">
        <ele>1307</ele>
        <time>2021-08-13T09:07:14.218Z</time>
      </trkpt>
      <trkpt lat="46.82677" lon="8.41426">
        <ele>1307</ele>
        <time>2021-08-13T09:07:15.218Z</time>
      </trkpt>
      <trkpt lat="46.82675" lon="8.41426">
        <ele>1307</ele>
        <time>2021-08-13T09:07:16.219Z</time>
      </trkpt>
      <trkpt lat="46.82674" lon="8.41427">
        <ele>1308</ele>
        <time>2021-08-13T09:07:17.218Z</time>
      </trkpt>
      <trkpt lat="46.82673" lon="8.41428">
        <ele>1308</ele>
        <time>2021-08-13T09:07:18.219Z</time>
      </trkpt>
      <trkpt lat="46.82672" lon="8.41429">
        <ele>1308</ele>
        <time>2021-08-13T09:07:19.219Z</time>
      </trkpt>
      <trkpt lat="46.82671" lon="8.41429">
        <ele>1308</ele>
        <time>2021-08-13T09:07:20.219Z</time>
      </trkpt>
      <trkpt lat="46.82671" lon="8.41429">
        <ele>1308</ele>
        <time>2021-08-13T09:07:21.218Z</time>
      </trkpt>
      <trkpt lat="46.8267" lon="8.41429">
        <ele>1308</ele>
        <time>2021-08-13T09:07:22.219Z</time>
      </trkpt>
      <trkpt lat="46.82669" lon="8.41429">
        <ele>1308</ele>
        <time>2021-08-13T09:07:23.219Z</time>
      </trkpt>
      <trkpt lat="46.82669" lon="8.41427">
        <ele>1308</ele>
        <time>2021-08-13T09:07:24.219Z</time>
      </trkpt>
      <trkpt lat="46.82668" lon="8.41427">
        <ele>1308</ele>
        <time>2021-08-13T09:07:25.218Z</time>
      </trkpt>
      <trkpt lat="46.82667" lon="8.41426">
        <ele>1308</ele>
        <time>2021-08-13T09:07:26.219Z</time>
      </trkpt>
      <trkpt lat="46.82665" lon="8.41426">
        <ele>1308</ele>
        <time>2021-08-13T09:07:27.219Z</time>
      </trkpt>
      <trkpt lat="46.82664" lon="8.41426">
        <ele>1308</ele>
        <time>2021-08-13T09:07:28.219Z</time>
      </trkpt>
      <trkpt lat="46.82662" lon="8.41425">
        <ele>1308</ele>
        <time>2021-08-13T09:07:29.219Z</time>
      </trkpt>
      <trkpt lat="46.82661" lon="8.41426">
        <ele>1307</ele>
        <time>2021-08-13T09:07:30.219Z</time>
      </trkpt>
      <trkpt lat="46.82661" lon="8.41427">
        <ele>1307</ele>
        <time>2021-08-13T09:07:31.219Z</time>
      </trkpt>
      <trkpt lat="46.82661" lon="8.41427">
        <ele>1306</ele>
        <time>2021-08-13T09:07:32.219Z</time>
      </trkpt>
      <trkpt lat="46.82661" lon="8.41428">
        <ele>1305</ele>
        <time>2021-08-13T09:07:33.219Z</time>
      </trkpt>
      <trkpt lat="46.82661" lon="8.41428">
        <ele>1304</ele>
        <time>2021-08-13T09:07:34.219Z</time>
      </trkpt>
      <trkpt lat="46.82661" lon="8.41429">
        <ele>1304</ele>
        <time>2021-08-13T09:07:35.219Z</time>
      </trkpt>
      <trkpt lat="46.8266" lon="8.41429">
        <ele>1303</ele>
        <time>2021-08-13T09:07:36.219Z</time>
      </trkpt>
      <trkpt lat="46.8266" lon="8.4143">
        <ele>1302</ele>
        <time>2021-08-13T09:07:37.219Z</time>
      </trkpt>
      <trkpt lat="46.8266" lon="8.4143">
        <ele>1301</ele>
        <time>2021-08-13T09:07:38.219Z</time>
      </trkpt>
      <trkpt lat="46.8266" lon="8.41431">
        <ele>1301</ele>
        <time>2021-08-13T09:07:39.219Z</time>
      </trkpt>
      <trkpt lat="46.82659" lon="8.41432">
        <ele>1300</ele>
        <time>2021-08-13T09:07:40.219Z</time>
      </trkpt>
      <trkpt lat="46.82658" lon="8.41433">
        <ele>1300</ele>
        <time>2021-08-13T09:07:41.218Z</time>
      </trkpt>
      <trkpt lat="46.82658" lon="8.41434">
        <ele>1299</ele>
        <time>2021-08-13T09:07:42.219Z</time>
      </trkpt>
      <trkpt lat="46.82657" lon="8.41434">
        <ele>1299</ele>
        <time>2021-08-13T09:07:43.219Z</time>
      </trkpt>
      <trkpt lat="46.82657" lon="8.41435">
        <ele>1298</ele>
        <time>2021-08-13T09:07:44.219Z</time>
      </trkpt>
      <trkpt lat="46.82656" lon="8.41435">
        <ele>1297</ele>
        <time>2021-08-13T09:07:45.219Z</time>
      </trkpt>
      <trkpt lat="46.82655" lon="8.41435">
        <ele>1297</ele>
        <time>2021-08-13T09:07:46.219Z</time>
      </trkpt>
      <trkpt lat="46.82653" lon="8.41435">
        <ele>1296</ele>
        <time>2021-08-13T09:07:47.218Z</time>
      </trkpt>
      <trkpt lat="46.82652" lon="8.41436">
        <ele>1296</ele>
        <time>2021-08-13T09:07:48.219Z</time>
      </trkpt>
      <trkpt lat="46.8265" lon="8.41437">
        <ele>1296</ele>
        <time>2021-08-13T09:07:49.219Z</time>
      </trkpt>
      <trkpt lat="46.8265" lon="8.41438">
        <ele>1295</ele>
        <time>2021-08-13T09:07:50.218Z</time>
      </trkpt>
      <trkpt lat="46.8265" lon="8.41438">
        <ele>1295</ele>
        <time>2021-08-13T09:07:51.218Z</time>
      </trkpt>
      <trkpt lat="46.82649" lon="8.41438">
        <ele>1294</ele>
        <time>2021-08-13T09:07:52.218Z</time>
      </trkpt>
      <trkpt lat="46.82649" lon="8.41439">
        <ele>1293</ele>
        <time>2021-08-13T09:07:53.218Z</time>
      </trkpt>
      <trkpt lat="46.82648" lon="8.4144">
        <ele>1293</ele>
        <time>2021-08-13T09:07:54.219Z</time>
      </trkpt>
      <trkpt lat="46.82647" lon="8.41441">
        <ele>1292</ele>
        <time>2021-08-13T09:07:55.218Z</time>
      </trkpt>
      <trkpt lat="46.82645" lon="8.41442">
        <ele>1291</ele>
        <time>2021-08-13T09:07:56.219Z</time>
      </trkpt>
      <trkpt lat="46.82645" lon="8.41443">
        <ele>1290</ele>
        <time>2021-08-13T09:07:57.219Z</time>
      </trkpt>
      <trkpt lat="46.82644" lon="8.41444">
        <ele>1289</ele>
        <time>2021-08-13T09:07:58.218Z</time>
      </trkpt>
      <trkpt lat="46.82643" lon="8.41446">
        <ele>1288</ele>
        <time>2021-08-13T09:07:59.218Z</time>
      </trkpt>
      <trkpt lat="46.82642" lon="8.41447">
        <ele>1287</ele>
        <time>2021-08-13T09:08:00.219Z</time>
      </trkpt>
      <trkpt lat="46.82641" lon="8.41448">
        <ele>1286</ele>
        <time>2021-08-13T09:08:01.218Z</time>
      </trkpt>
      <trkpt lat="46.8264" lon="8.41449">
        <ele>1286</ele>
        <time>2021-08-13T09:08:02.219Z</time>
      </trkpt>
      <trkpt lat="46.82639" lon="8.4145">
        <ele>1285</ele>
        <time>2021-08-13T09:08:03.218Z</time>
      </trkpt>
      <trkpt lat="46.82638" lon="8.41452">
        <ele>1284</ele>
        <time>2021-08-13T09:08:04.219Z</time>
      </trkpt>
      <trkpt lat="46.82637" lon="8.41453">
        <ele>1283</ele>
        <time>2021-08-13T09:08:05.218Z</time>
      </trkpt>
      <trkpt lat="46.82636" lon="8.41453">
        <ele>1282</ele>
        <time>2021-08-13T09:08:06.219Z</time>
      </trkpt>
      <trkpt lat="46.82635" lon="8.41453">
        <ele>1281</ele>
        <time>2021-08-13T09:08:07.219Z</time>
      </trkpt>
      <trkpt lat="46.82634" lon="8.41454">
        <ele>1280</ele>
        <time>2021-08-13T09:08:08.219Z</time>
      </trkpt>
      <trkpt lat="46.82632" lon="8.41454">
        <ele>1280</ele>
        <time>2021-08-13T09:08:09.219Z</time>
      </trkpt>
      <trkpt lat="46.82632" lon="8.41454">
        <ele>1279</ele>
        <time>2021-08-13T09:08:10.219Z</time>
      </trkpt>
      <trkpt lat="46.82631" lon="8.41454">
        <ele>1278</ele>
        <time>2021-08-13T09:08:11.219Z</time>
      </trkpt>
      <trkpt lat="46.8263" lon="8.41454">
        <ele>1278</ele>
        <time>2021-08-13T09:08:12.219Z</time>
      </trkpt>
      <trkpt lat="46.82629" lon="8.41456">
        <ele>1278</ele>
        <time>2021-08-13T09:08:13.219Z</time>
      </trkpt>
      <trkpt lat="46.82629" lon="8.41457">
        <ele>1277</ele>
        <time>2021-08-13T09:08:14.219Z</time>
      </trkpt>
      <trkpt lat="46.82628" lon="8.41458">
        <ele>1276</ele>
        <time>2021-08-13T09:08:15.218Z</time>
      </trkpt>
      <trkpt lat="46.82628" lon="8.4146">
        <ele>1275</ele>
        <time>2021-08-13T09:08:16.218Z</time>
      </trkpt>
      <trkpt lat="46.82628" lon="8.41462">
        <ele>1274</ele>
        <time>2021-08-13T09:08:17.219Z</time>
      </trkpt>
      <trkpt lat="46.82627" lon="8.41463">
        <ele>1273</ele>
        <time>2021-08-13T09:08:18.219Z</time>
      </trkpt>
      <trkpt lat="46.82628" lon="8.41463">
        <ele>1272</ele>
        <time>2021-08-13T09:08:19.218Z</time>
      </trkpt>
      <trkpt lat="46.82626" lon="8.41464">
        <ele>1271</ele>
        <time>2021-08-13T09:08:20.219Z</time>
      </trkpt>
      <trkpt lat="46.82625" lon="8.41467">
        <ele>1270</ele>
        <time>2021-08-13T09:08:21.218Z</time>
      </trkpt>
      <trkpt lat="46.82624" lon="8.41469">
        <ele>1269</ele>
        <time>2021-08-13T09:08:22.219Z</time>
      </trkpt>
      <trkpt lat="46.82623" lon="8.41471">
        <ele>1268</ele>
        <time>2021-08-13T09:08:23.218Z</time>
      </trkpt>
      <trkpt lat="46.82623" lon="8.41473">
        <ele>1267</ele>
        <time>2021-08-13T09:08:24.218Z</time>
      </trkpt>
      <trkpt lat="46.82622" lon="8.41474">
        <ele>1267</ele>
        <time>2021-08-13T09:08:25.218Z</time>
      </trkpt>
      <trkpt lat="46.82621" lon="8.41475">
        <ele>1266</ele>
        <time>2021-08-13T09:08:26.219Z</time>
      </trkpt>
      <trkpt lat="46.8262" lon="8.41476">
        <ele>1265</ele>
        <time>2021-08-13T09:08:27.219Z</time>
      </trkpt>
      <trkpt lat="46.82619" lon="8.41476">
        <ele>1264</ele>
        <time>2021-08-13T09:08:28.219Z</time>
      </trkpt>
      <trkpt lat="46.82619" lon="8.41476">
        <ele>1263</ele>
        <time>2021-08-13T09:08:29.219Z</time>
      </trkpt>
      <trkpt lat="46.82618" lon="8.41476">
        <ele>1262</ele>
        <time>2021-08-13T09:08:30.219Z</time>
      </trkpt>
      <trkpt lat="46.82618" lon="8.41475">
        <ele>1261</ele>
        <time>2021-08-13T09:08:31.219Z</time>
      </trkpt>
      <trkpt lat="46.82617" lon="8.41475">
        <ele>1260</ele>
        <time>2021-08-13T09:08:32.219Z</time>
      </trkpt>
      <trkpt lat="46.82616" lon="8.41474">
        <ele>1260</ele>
        <time>2021-08-13T09:08:33.219Z</time>
      </trkpt>
      <trkpt lat="46.82615" lon="8.41474">
        <ele>1259</ele>
        <time>2021-08-13T09:08:34.219Z</time>
      </trkpt>
      <trkpt lat="46.82614" lon="8.41474">
        <ele>1258</ele>
        <time>2021-08-13T09:08:35.219Z</time>
      </trkpt>
      <trkpt lat="46.82614" lon="8.41474">
        <ele>1257</ele>
        <time>2021-08-13T09:08:36.219Z</time>
      </trkpt>
      <trkpt lat="46.82613" lon="8.41475">
        <ele>1257</ele>
        <time>2021-08-13T09:08:37.219Z</time>
      </trkpt>
      <trkpt lat="46.82612" lon="8.41475">
        <ele>1256</ele>
        <time>2021-08-13T09:08:38.219Z</time>
      </trkpt>
      <trkpt lat="46.82611" lon="8.41476">
        <ele>1255</ele>
        <time>2021-08-13T09:08:39.219Z</time>
      </trkpt>
      <trkpt lat="46.8261" lon="8.41477">
        <ele>1254</ele>
        <time>2021-08-13T09:08:40.219Z</time>
      </trkpt>
      <trkpt lat="46.82609" lon="8.41478">
        <ele>1253</ele>
        <time>2021-08-13T09:08:41.219Z</time>
      </trkpt>
      <trkpt lat="46.82608" lon="8.41479">
        <ele>1252</ele>
        <time>2021-08-13T09:08:42.219Z</time>
      </trkpt>
      <trkpt lat="46.82607" lon="8.41481">
        <ele>1251</ele>
        <time>2021-08-13T09:08:43.219Z</time>
      </trkpt>
      <trkpt lat="46.82607" lon="8.41483">
        <ele>1250</ele>
        <time>2021-08-13T09:08:44.219Z</time>
      </trkpt>
      <trkpt lat="46.82606" lon="8.41484">
        <ele>1249</ele>
        <time>2021-08-13T09:08:45.219Z</time>
      </trkpt>
      <trkpt lat="46.82605" lon="8.41484">
        <ele>1249</ele>
        <time>2021-08-13T09:08:46.218Z</time>
      </trkpt>
      <trkpt lat="46.82605" lon="8.41485">
        <ele>1248</ele>
        <time>2021-08-13T09:08:47.219Z</time>
      </trkpt>
      <trkpt lat="46.82604" lon="8.41486">
        <ele>1247</ele>
        <time>2021-08-13T09:08:48.219Z</time>
      </trkpt>
      <trkpt lat="46.82603" lon="8.41487">
        <ele>1247</ele>
        <time>2021-08-13T09:08:49.219Z</time>
      </trkpt>
      <trkpt lat="46.82603" lon="8.41489">
        <ele>1246</ele>
        <time>2021-08-13T09:08:50.219Z</time>
      </trkpt>
      <trkpt lat="46.82602" lon="8.4149">
        <ele>1246</ele>
        <time>2021-08-13T09:08:51.219Z</time>
      </trkpt>
      <trkpt lat="46.82602" lon="8.41492">
        <ele>1246</ele>
        <time>2021-08-13T09:08:52.219Z</time>
      </trkpt>
      <trkpt lat="46.82602" lon="8.41494">
        <ele>1245</ele>
        <time>2021-08-13T09:08:53.219Z</time>
      </trkpt>
      <trkpt lat="46.82602" lon="8.41495">
        <ele>1245</ele>
        <time>2021-08-13T09:08:54.218Z</time>
      </trkpt>
      <trkpt lat="46.82602" lon="8.41496">
        <ele>1245</ele>
        <time>2021-08-13T09:08:55.219Z</time>
      </trkpt>
      <trkpt lat="46.82601" lon="8.41496">
        <ele>1245</ele>
        <time>2021-08-13T09:08:56.218Z</time>
      </trkpt>
      <trkpt lat="46.82601" lon="8.41496">
        <ele>1246</ele>
        <time>2021-08-13T09:08:57.219Z</time>
      </trkpt>
      <trkpt lat="46.82601" lon="8.41495">
        <ele>1246</ele>
        <time>2021-08-13T09:08:58.218Z</time>
      </trkpt>
      <trkpt lat="46.82602" lon="8.41495">
        <ele>1246</ele>
        <time>2021-08-13T09:08:59.218Z</time>
      </trkpt>
      <trkpt lat="46.82602" lon="8.41494">
        <ele>1246</ele>
        <time>2021-08-13T09:09:00.218Z</time>
      </trkpt>
      <trkpt lat="46.82602" lon="8.41494">
        <ele>1246</ele>
        <time>2021-08-13T09:09:01.219Z</time>
      </trkpt>
      <trkpt lat="46.82602" lon="8.41494">
        <ele>1246</ele>
        <time>2021-08-13T09:09:02.219Z</time>
      </trkpt>
      <trkpt lat="46.82601" lon="8.41493">
        <ele>1246</ele>
        <time>2021-08-13T09:09:03.219Z</time>
      </trkpt>
      <trkpt lat="46.82601" lon="8.41493">
        <ele>1246</ele>
        <time>2021-08-13T09:09:04.219Z</time>
      </trkpt>
      <trkpt lat="46.826" lon="8.41492">
        <ele>1245</ele>
        <time>2021-08-13T09:09:05.219Z</time>
      </trkpt>
      <trkpt lat="46.826" lon="8.41491">
        <ele>1245</ele>
        <time>2021-08-13T09:09:06.219Z</time>
      </trkpt>
      <trkpt lat="46.826" lon="8.41491">
        <ele>1244</ele>
        <time>2021-08-13T09:09:07.218Z</time>
      </trkpt>
      <trkpt lat="46.82599" lon="8.4149">
        <ele>1244</ele>
        <time>2021-08-13T09:09:08.219Z</time>
      </trkpt>
      <trkpt lat="46.82598" lon="8.4149">
        <ele>1243</ele>
        <time>2021-08-13T09:09:09.219Z</time>
      </trkpt>
      <trkpt lat="46.82598" lon="8.4149">
        <ele>1243</ele>
        <time>2021-08-13T09:09:10.218Z</time>
      </trkpt>
      <trkpt lat="46.82598" lon="8.4149">
        <ele>1243</ele>
        <time>2021-08-13T09:09:11.219Z</time>
      </trkpt>
      <trkpt lat="46.82598" lon="8.41489">
        <ele>1242</ele>
        <time>2021-08-13T09:09:12.219Z</time>
      </trkpt>
      <trkpt lat="46.82599" lon="8.41489">
        <ele>1241</ele>
        <time>2021-08-13T09:09:13.219Z</time>
      </trkpt>
      <trkpt lat="46.82599" lon="8.41488">
        <ele>1241</ele>
        <time>2021-08-13T09:09:14.219Z</time>
      </trkpt>
      <trkpt lat="46.82599" lon="8.41487">
        <ele>1240</ele>
        <time>2021-08-13T09:09:15.218Z</time>
      </trkpt>
      <trkpt lat="46.826" lon="8.41487">
        <ele>1240</ele>
        <time>2021-08-13T09:09:16.219Z</time>
      </trkpt>
      <trkpt lat="46.826" lon="8.41487">
        <ele>1240</ele>
        <time>2021-08-13T09:09:17.219Z</time>
      </trkpt>
      <trkpt lat="46.826" lon="8.41486">
        <ele>1239</ele>
        <time>2021-08-13T09:09:18.219Z</time>
      </trkpt>
      <trkpt lat="46.82601" lon="8.41485">
        <ele>1238</ele>
        <time>2021-08-13T09:09:19.218Z</time>
      </trkpt>
      <trkpt lat="46.82601" lon="8.41484">
        <ele>1238</ele>
        <time>2021-08-13T09:09:20.219Z</time>
      </trkpt>
      <trkpt lat="46.82601" lon="8.41483">
        <ele>1238</ele>
        <time>2021-08-13T09:09:21.218Z</time>
      </trkpt>
      <trkpt lat="46.82602" lon="8.41482">
        <ele>1237</ele>
        <time>2021-08-13T09:09:22.219Z</time>
      </trkpt>
      <trkpt lat="46.82603" lon="8.41481">
        <ele>1237</ele>
        <time>2021-08-13T09:09:23.218Z</time>
      </trkpt>
      <trkpt lat="46.82603" lon="8.41481">
        <ele>1237</ele>
        <time>2021-08-13T09:09:24.218Z</time>
      </trkpt>
      <trkpt lat="46.82603" lon="8.4148">
        <ele>1238</ele>
        <time>2021-08-13T09:09:25.219Z</time>
      </trkpt>
      <trkpt lat="46.82603" lon="8.4148">
        <ele>1238</ele>
        <time>2021-08-13T09:09:26.219Z</time>
      </trkpt>
      <trkpt lat="46.82604" lon="8.41479">
        <ele>1238</ele>
        <time>2021-08-13T09:09:27.219Z</time>
      </trkpt>
      <trkpt lat="46.82606" lon="8.41478">
        <ele>1238</ele>
        <time>2021-08-13T09:09:28.219Z</time>
      </trkpt>
      <trkpt lat="46.82608" lon="8.41477">
        <ele>1239</ele>
        <time>2021-08-13T09:09:29.219Z</time>
      </trkpt>
      <trkpt lat="46.8261" lon="8.41476">
        <ele>1239</ele>
        <time>2021-08-13T09:09:30.219Z</time>
      </trkpt>
      <trkpt lat="46.82611" lon="8.41476">
        <ele>1239</ele>
        <time>2021-08-13T09:09:31.219Z</time>
      </trkpt>
      <trkpt lat="46.82611" lon="8.41475">
        <ele>1239</ele>
        <time>2021-08-13T09:09:32.219Z</time>
      </trkpt>
      <trkpt lat="46.82612" lon="8.41474">
        <ele>1239</ele>
        <time>2021-08-13T09:09:33.219Z</time>
      </trkpt>
      <trkpt lat="46.82612" lon="8.41473">
        <ele>1239</ele>
        <time>2021-08-13T09:09:34.218Z</time>
      </trkpt>
      <trkpt lat="46.82613" lon="8.41472">
        <ele>1238</ele>
        <time>2021-08-13T09:09:35.219Z</time>
      </trkpt>
      <trkpt lat="46.82613" lon="8.41472">
        <ele>1238</ele>
        <time>2021-08-13T09:09:36.218Z</time>
      </trkpt>
      <trkpt lat="46.82614" lon="8.41472">
        <ele>1238</ele>
        <time>2021-08-13T09:09:37.219Z</time>
      </trkpt>
      <trkpt lat="46.82614" lon="8.41472">
        <ele>1238</ele>
        <time>2021-08-13T09:09:38.219Z</time>
      </trkpt>
      <trkpt lat="46.82614" lon="8.41472">
        <ele>1238</ele>
        <time>2021-08-13T09:09:39.218Z</time>
      </trkpt>
      <trkpt lat="46.82615" lon="8.41472">
        <ele>1238</ele>
        <time>2021-08-13T09:09:40.219Z</time>
      </trkpt>
      <trkpt lat="46.82615" lon="8.41471">
        <ele>1238</ele>
        <time>2021-08-13T09:09:41.219Z</time>
      </trkpt>
      <trkpt lat="46.82616" lon="8.41471">
        <ele>1238</ele>
        <time>2021-08-13T09:09:42.218Z</time>
      </trkpt>
      <trkpt lat="46.82616" lon="8.41469">
        <ele>1237</ele>
        <time>2021-08-13T09:09:43.219Z</time>
      </trkpt>
      <trkpt lat="46.82617" lon="8.41467">
        <ele>1237</ele>
        <time>2021-08-13T09:09:44.219Z</time>
      </trkpt>
      <trkpt lat="46.82619" lon="8.41465">
        <ele>1237</ele>
        <time>2021-08-13T09:09:45.218Z</time>
      </trkpt>
      <trkpt lat="46.82619" lon="8.41464">
        <ele>1237</ele>
        <time>2021-08-13T09:09:46.218Z</time>
      </trkpt>
      <trkpt lat="46.8262" lon="8.41464">
        <ele>1236</ele>
        <time>2021-08-13T09:09:47.219Z</time>
      </trkpt>
      <trkpt lat="46.82621" lon="8.41462">
        <ele>1236</ele>
        <time>2021-08-13T09:09:48.219Z</time>
      </trkpt>
      <trkpt lat="46.82622" lon="8.4146">
        <ele>1236</ele>
        <time>2021-08-13T09:09:49.219Z</time>
      </trkpt>
      <trkpt lat="46.82625" lon="8.41459">
        <ele>1235</ele>
        <time>2021-08-13T09:09:50.219Z</time>
      </trkpt>
      <trkpt lat="46.82628" lon="8.41458">
        <ele>1235</ele>
        <time>2021-08-13T09:09:51.219Z</time>
      </trkpt>
      <trkpt lat="46.82631" lon="8.41458">
        <ele>1235</ele>
        <time>2021-08-13T09:09:52.218Z</time>
      </trkpt>
      <trkpt lat="46.82634" lon="8.41457">
        <ele>1234</ele>
        <time>2021-08-13T09:09:53.219Z</time>
      </trkpt>
      <trkpt lat="46.82636" lon="8.41456">
        <ele>1234</ele>
        <time>2021-08-13T09:09:54.219Z</time>
      </trkpt>
      <trkpt lat="46.82637" lon="8.41454">
        <ele>1234</ele>
        <time>2021-08-13T09:09:55.219Z</time>
      </trkpt>
      <trkpt lat="46.82636" lon="8.41452">
        <ele>1234</ele>
        <time>2021-08-13T09:09:56.219Z</time>
      </trkpt>
      <trkpt lat="46.82636" lon="8.4145">
        <ele>1233</ele>
        <time>2021-08-13T09:09:57.219Z</time>
      </trkpt>
      <trkpt lat="46.82635" lon="8.41449">
        <ele>1233</ele>
        <time>2021-08-13T09:09:58.218Z</time>
      </trkpt>
      <trkpt lat="46.82634" lon="8.41447">
        <ele>1233</ele>
        <time>2021-08-13T09:09:59.219Z</time>
      </trkpt>
      <trkpt lat="46.82632" lon="8.41445">
        <ele>1232</ele>
        <time>2021-08-13T09:10:00.219Z</time>
      </trkpt>
      <trkpt lat="46.82629" lon="8.41443">
        <ele>1231</ele>
        <time>2021-08-13T09:10:01.218Z</time>
      </trkpt>
      <trkpt lat="46.82627" lon="8.41442">
        <ele>1231</ele>
        <time>2021-08-13T09:10:02.218Z</time>
      </trkpt>
      <trkpt lat="46.82627" lon="8.41442">
        <ele>1230</ele>
        <time>2021-08-13T09:10:03.218Z</time>
      </trkpt>
      <trkpt lat="46.82627" lon="8.41441">
        <ele>1229</ele>
        <time>2021-08-13T09:10:04.219Z</time>
      </trkpt>
      <trkpt lat="46.82627" lon="8.41441">
        <ele>1228</ele>
        <time>2021-08-13T09:10:05.219Z</time>
      </trkpt>
      <trkpt lat="46.82628" lon="8.4144">
        <ele>1228</ele>
        <time>2021-08-13T09:10:06.218Z</time>
      </trkpt>
      <trkpt lat="46.82629" lon="8.41439">
        <ele>1227</ele>
        <time>2021-08-13T09:10:07.218Z</time>
      </trkpt>
      <trkpt lat="46.82629" lon="8.41439">
        <ele>1227</ele>
        <time>2021-08-13T09:10:08.219Z</time>
      </trkpt>
      <trkpt lat="46.82629" lon="8.41439">
        <ele>1226</ele>
        <time>2021-08-13T09:10:09.218Z</time>
      </trkpt>
      <trkpt lat="46.82628" lon="8.41438">
        <ele>1226</ele>
        <time>2021-08-13T09:10:10.219Z</time>
      </trkpt>
      <trkpt lat="46.82627" lon="8.41438">
        <ele>1225</ele>
        <time>2021-08-13T09:10:11.219Z</time>
      </trkpt>
      <trkpt lat="46.82626" lon="8.41436">
        <ele>1225</ele>
        <time>2021-08-13T09:10:12.218Z</time>
      </trkpt>
      <trkpt lat="46.82626" lon="8.41435">
        <ele>1224</ele>
        <time>2021-08-13T09:10:13.219Z</time>
      </trkpt>
      <trkpt lat="46.82628" lon="8.41434">
        <ele>1223</ele>
        <time>2021-08-13T09:10:14.218Z</time>
      </trkpt>
      <trkpt lat="46.82629" lon="8.41434">
        <ele>1223</ele>
        <time>2021-08-13T09:10:15.218Z</time>
      </trkpt>
      <trkpt lat="46.8263" lon="8.41434">
        <ele>1222</ele>
        <time>2021-08-13T09:10:16.219Z</time>
      </trkpt>
      <trkpt lat="46.82631" lon="8.41433">
        <ele>1222</ele>
        <time>2021-08-13T09:10:17.218Z</time>
      </trkpt>
      <trkpt lat="46.82633" lon="8.41433">
        <ele>1221</ele>
        <time>2021-08-13T09:10:18.218Z</time>
      </trkpt>
      <trkpt lat="46.82633" lon="8.41432">
        <ele>1221</ele>
        <time>2021-08-13T09:10:19.219Z</time>
      </trkpt>
      <trkpt lat="46.82633" lon="8.41433">
        <ele>1220</ele>
        <time>2021-08-13T09:10:20.218Z</time>
      </trkpt>
      <trkpt lat="46.82632" lon="8.41434">
        <ele>1220</ele>
        <time>2021-08-13T09:10:21.219Z</time>
      </trkpt>
      <trkpt lat="46.82632" lon="8.41434">
        <ele>1220</ele>
        <time>2021-08-13T09:10:22.219Z</time>
      </trkpt>
      <trkpt lat="46.82632" lon="8.41433">
        <ele>1220</ele>
        <time>2021-08-13T09:10:23.219Z</time>
      </trkpt>
      <trkpt lat="46.82632" lon="8.41432">
        <ele>1219</ele>
        <time>2021-08-13T09:10:24.219Z</time>
      </trkpt>
      <trkpt lat="46.82632" lon="8.41434">
        <ele>1219</ele>
        <time>2021-08-13T09:10:25.218Z</time>
      </trkpt>
      <trkpt lat="46.82631" lon="8.41438">
        <ele>1219</ele>
        <time>2021-08-13T09:10:26.219Z</time>
      </trkpt>
      <trkpt lat="46.82631" lon="8.41441">
        <ele>1219</ele>
        <time>2021-08-13T09:10:27.218Z</time>
      </trkpt>
      <trkpt lat="46.82631" lon="8.41441">
        <ele>1219</ele>
        <time>2021-08-13T09:10:28.218Z</time>
      </trkpt>
      <trkpt lat="46.82633" lon="8.41441">
        <ele>1219</ele>
        <time>2021-08-13T09:10:29.219Z</time>
      </trkpt>
      <trkpt lat="46.82634" lon="8.41439">
        <ele>1219</ele>
        <time>2021-08-13T09:10:30.219Z</time>
      </trkpt>
      <trkpt lat="46.82635" lon="8.41438">
        <ele>1219</ele>
        <time>2021-08-13T09:10:31.218Z</time>
      </trkpt>
      <trkpt lat="46.82636" lon="8.41437">
        <ele>1220</ele>
        <time>2021-08-13T09:10:32.218Z</time>
      </trkpt>
      <trkpt lat="46.82637" lon="8.41437">
        <ele>1220</ele>
        <time>2021-08-13T09:10:33.219Z</time>
      </trkpt>
      <trkpt lat="46.82639" lon="8.41435">
        <ele>1220</ele>
        <time>2021-08-13T09:10:34.218Z</time>
      </trkpt>
      <trkpt lat="46.8264" lon="8.41434">
        <ele>1220</ele>
        <time>2021-08-13T09:10:35.219Z</time>
      </trkpt>
      <trkpt lat="46.8264" lon="8.41432">
        <ele>1221</ele>
        <time>2021-08-13T09:10:36.218Z</time>
      </trkpt>
      <trkpt lat="46.8264" lon="8.4143">
        <ele>1221</ele>
        <time>2021-08-13T09:10:37.218Z</time>
      </trkpt>
      <trkpt lat="46.8264" lon="8.41428">
        <ele>1221</ele>
        <time>2021-08-13T09:10:38.218Z</time>
      </trkpt>
      <trkpt lat="46.82641" lon="8.41426">
        <ele>1221</ele>
        <time>2021-08-13T09:10:39.218Z</time>
      </trkpt>
      <trkpt lat="46.82642" lon="8.41424">
        <ele>1222</ele>
        <time>2021-08-13T09:10:40.218Z</time>
      </trkpt>
      <trkpt lat="46.82643" lon="8.41422">
        <ele>1222</ele>
        <time>2021-08-13T09:10:41.218Z</time>
      </trkpt>
      <trkpt lat="46.82643" lon="8.41424">
        <ele>1222</ele>
        <time>2021-08-13T09:10:42.218Z</time>
      </trkpt>
      <trkpt lat="46.82641" lon="8.41426">
        <ele>1222</ele>
        <time>2021-08-13T09:10:43.218Z</time>
      </trkpt>
      <trkpt lat="46.82641" lon="8.41427">
        <ele>1223</ele>
        <time>2021-08-13T09:10:44.218Z</time>
      </trkpt>
      <trkpt lat="46.82643" lon="8.41425">
        <ele>1223</ele>
        <time>2021-08-13T09:10:45.218Z</time>
      </trkpt>
      <trkpt lat="46.82644" lon="8.41424">
        <ele>1223</ele>
        <time>2021-08-13T09:10:46.219Z</time>
      </trkpt>
      <trkpt lat="46.82645" lon="8.41423">
        <ele>1223</ele>
        <time>2021-08-13T09:10:47.219Z</time>
      </trkpt>
      <trkpt lat="46.82646" lon="8.41422">
        <ele>1224</ele>
        <time>2021-08-13T09:10:48.219Z</time>
      </trkpt>
      <trkpt lat="46.82646" lon="8.4142">
        <ele>1224</ele>
        <time>2021-08-13T09:10:49.219Z</time>
      </trkpt>
      <trkpt lat="46.82647" lon="8.41419">
        <ele>1224</ele>
        <time>2021-08-13T09:10:50.219Z</time>
      </trkpt>
      <trkpt lat="46.82648" lon="8.41416">
        <ele>1225</ele>
        <time>2021-08-13T09:10:51.218Z</time>
      </trkpt>
      <trkpt lat="46.82649" lon="8.41414">
        <ele>1225</ele>
        <time>2021-08-13T09:10:52.219Z</time>
      </trkpt>
      <trkpt lat="46.8265" lon="8.41412">
        <ele>1225</ele>
        <time>2021-08-13T09:10:53.219Z</time>
      </trkpt>
      <trkpt lat="46.82649" lon="8.41411">
        <ele>1226</ele>
        <time>2021-08-13T09:10:54.219Z</time>
      </trkpt>
      <trkpt lat="46.82647" lon="8.4141">
        <ele>1226</ele>
        <time>2021-08-13T09:10:55.219Z</time>
      </trkpt>
      <trkpt lat="46.82646" lon="8.41411">
        <ele>1227</ele>
        <time>2021-08-13T09:10:56.218Z</time>
      </trkpt>
      <trkpt lat="46.82644" lon="8.41411">
        <ele>1227</ele>
        <time>2021-08-13T09:10:57.219Z</time>
      </trkpt>
      <trkpt lat="46.82643" lon="8.41412">
        <ele>1227</ele>
        <time>2021-08-13T09:10:58.218Z</time>
      </trkpt>
      <trkpt lat="46.82643" lon="8.41411">
        <ele>1228</ele>
        <time>2021-08-13T09:10:59.219Z</time>
      </trkpt>
      <trkpt lat="46.82643" lon="8.41411">
        <ele>1228</ele>
        <time>2021-08-13T09:11:00.219Z</time>
      </trkpt>
      <trkpt lat="46.82642" lon="8.41411">
        <ele>1229</ele>
        <time>2021-08-13T09:11:01.219Z</time>
      </trkpt>
      <trkpt lat="46.82642" lon="8.41411">
        <ele>1229</ele>
        <time>2021-08-13T09:11:02.219Z</time>
      </trkpt>
      <trkpt lat="46.82641" lon="8.41411">
        <ele>1229</ele>
        <time>2021-08-13T09:11:03.219Z</time>
      </trkpt>
      <trkpt lat="46.8264" lon="8.4141">
        <ele>1230</ele>
        <time>2021-08-13T09:11:04.219Z</time>
      </trkpt>
      <trkpt lat="46.8264" lon="8.41409">
        <ele>1230</ele>
        <time>2021-08-13T09:11:05.219Z</time>
      </trkpt>
      <trkpt lat="46.82639" lon="8.41408">
        <ele>1230</ele>
        <time>2021-08-13T09:11:06.218Z</time>
      </trkpt>
      <trkpt lat="46.8264" lon="8.41407">
        <ele>1230</ele>
        <time>2021-08-13T09:11:07.219Z</time>
      </trkpt>
      <trkpt lat="46.82641" lon="8.41405">
        <ele>1230</ele>
        <time>2021-08-13T09:11:08.218Z</time>
      </trkpt>
      <trkpt lat="46.82642" lon="8.41404">
        <ele>1231</ele>
        <time>2021-08-13T09:11:09.219Z</time>
      </trkpt>
      <trkpt lat="46.82643" lon="8.41403">
        <ele>1231</ele>
        <time>2021-08-13T09:11:10.219Z</time>
      </trkpt>
      <trkpt lat="46.82643" lon="8.41403">
        <ele>1231</ele>
        <time>2021-08-13T09:11:11.218Z</time>
      </trkpt>
      <trkpt lat="46.82643" lon="8.41401">
        <ele>1232</ele>
        <time>2021-08-13T09:11:12.218Z</time>
      </trkpt>
      <trkpt lat="46.82643" lon="8.414">
        <ele>1232</ele>
        <time>2021-08-13T09:11:13.219Z</time>
      </trkpt>
      <trkpt lat="46.82643" lon="8.41399">
        <ele>1232</ele>
        <time>2021-08-13T09:11:14.219Z</time>
      </trkpt>
      <trkpt lat="46.82643" lon="8.41398">
        <ele>1231</ele>
        <time>2021-08-13T09:11:15.218Z</time>
      </trkpt>
      <trkpt lat="46.82643" lon="8.41398">
        <ele>1231</ele>
        <time>2021-08-13T09:11:16.219Z</time>
      </trkpt>
      <trkpt lat="46.82643" lon="8.41398">
        <ele>1232</ele>
        <time>2021-08-13T09:11:17.219Z</time>
      </trkpt>
      <trkpt lat="46.82642" lon="8.41397">
        <ele>1232</ele>
        <time>2021-08-13T09:11:18.219Z</time>
      </trkpt>
      <trkpt lat="46.82642" lon="8.41397">
        <ele>1231</ele>
        <time>2021-08-13T09:11:19.219Z</time>
      </trkpt>
      <trkpt lat="46.82642" lon="8.41396">
        <ele>1231</ele>
        <time>2021-08-13T09:11:20.218Z</time>
      </trkpt>
      <trkpt lat="46.82641" lon="8.41395">
        <ele>1231</ele>
        <time>2021-08-13T09:11:21.218Z</time>
      </trkpt>
      <trkpt lat="46.82641" lon="8.41395">
        <ele>1231</ele>
        <time>2021-08-13T09:11:22.219Z</time>
      </trkpt>
      <trkpt lat="46.8264" lon="8.41394">
        <ele>1231</ele>
        <time>2021-08-13T09:11:23.219Z</time>
      </trkpt>
      <trkpt lat="46.82639" lon="8.41393">
        <ele>1231</ele>
        <time>2021-08-13T09:11:24.219Z</time>
      </trkpt>
      <trkpt lat="46.82639" lon="8.4139">
        <ele>1230</ele>
        <time>2021-08-13T09:11:25.219Z</time>
      </trkpt>
      <trkpt lat="46.82639" lon="8.41388">
        <ele>1230</ele>
        <time>2021-08-13T09:11:26.219Z</time>
      </trkpt>
      <trkpt lat="46.82639" lon="8.41386">
        <ele>1230</ele>
        <time>2021-08-13T09:11:27.219Z</time>
      </trkpt>
      <trkpt lat="46.82639" lon="8.41384">
        <ele>1230</ele>
        <time>2021-08-13T09:11:28.218Z</time>
      </trkpt>
      <trkpt lat="46.82638" lon="8.41382">
        <ele>1230</ele>
        <time>2021-08-13T09:11:29.219Z</time>
      </trkpt>
      <trkpt lat="46.82637" lon="8.41378">
        <ele>1229</ele>
        <time>2021-08-13T09:11:30.220Z</time>
      </trkpt>
      <trkpt lat="46.82636" lon="8.41378">
        <ele>1228</ele>
        <time>2021-08-13T09:11:31.220Z</time>
      </trkpt>
      <trkpt lat="46.82636" lon="8.41377">
        <ele>1228</ele>
        <time>2021-08-13T09:11:32.219Z</time>
      </trkpt>
      <trkpt lat="46.82635" lon="8.41377">
        <ele>1229</ele>
        <time>2021-08-13T09:11:33.219Z</time>
      </trkpt>
      <trkpt lat="46.82635" lon="8.41377">
        <ele>1229</ele>
        <time>2021-08-13T09:11:34.219Z</time>
      </trkpt>
      <trkpt lat="46.82634" lon="8.41377">
        <ele>1228</ele>
        <time>2021-08-13T09:11:35.219Z</time>
      </trkpt>
      <trkpt lat="46.82634" lon="8.41378">
        <ele>1228</ele>
        <time>2021-08-13T09:11:36.219Z</time>
      </trkpt>
      <trkpt lat="46.82633" lon="8.41378">
        <ele>1228</ele>
        <time>2021-08-13T09:11:37.219Z</time>
      </trkpt>
      <trkpt lat="46.82632" lon="8.41377">
        <ele>1228</ele>
        <time>2021-08-13T09:11:38.220Z</time>
      </trkpt>
      <trkpt lat="46.82632" lon="8.41376">
        <ele>1228</ele>
        <time>2021-08-13T09:11:39.219Z</time>
      </trkpt>
      <trkpt lat="46.82632" lon="8.41375">
        <ele>1228</ele>
        <time>2021-08-13T09:11:40.220Z</time>
      </trkpt>
      <trkpt lat="46.82632" lon="8.41375">
        <ele>1227</ele>
        <time>2021-08-13T09:11:41.220Z</time>
      </trkpt>
      <trkpt lat="46.82631" lon="8.41373">
        <ele>1227</ele>
        <time>2021-08-13T09:11:42.220Z</time>
      </trkpt>
      <trkpt lat="46.8263" lon="8.41373">
        <ele>1227</ele>
        <time>2021-08-13T09:11:43.219Z</time>
      </trkpt>
      <trkpt lat="46.8263" lon="8.41372">
        <ele>1226</ele>
        <time>2021-08-13T09:11:44.219Z</time>
      </trkpt>
      <trkpt lat="46.82629" lon="8.41372">
        <ele>1226</ele>
        <time>2021-08-13T09:11:45.219Z</time>
      </trkpt>
      <trkpt lat="46.82628" lon="8.41372">
        <ele>1225</ele>
        <time>2021-08-13T09:11:46.219Z</time>
      </trkpt>
      <trkpt lat="46.82627" lon="8.41372">
        <ele>1225</ele>
        <time>2021-08-13T09:11:47.220Z</time>
      </trkpt>
      <trkpt lat="46.82627" lon="8.41372">
        <ele>1224</ele>
        <time>2021-08-13T09:11:48.220Z</time>
      </trkpt>
      <trkpt lat="46.82626" lon="8.41372">
        <ele>1224</ele>
        <time>2021-08-13T09:11:49.219Z</time>
      </trkpt>
      <trkpt lat="46.82626" lon="8.41371">
        <ele>1223</ele>
        <time>2021-08-13T09:11:50.220Z</time>
      </trkpt>
      <trkpt lat="46.82626" lon="8.4137">
        <ele>1223</ele>
        <time>2021-08-13T09:11:51.219Z</time>
      </trkpt>
      <trkpt lat="46.82625" lon="8.4137">
        <ele>1222</ele>
        <time>2021-08-13T09:11:52.220Z</time>
      </trkpt>
      <trkpt lat="46.82624" lon="8.41369">
        <ele>1222</ele>
        <time>2021-08-13T09:11:53.219Z</time>
      </trkpt>
      <trkpt lat="46.82623" lon="8.41369">
        <ele>1222</ele>
        <time>2021-08-13T09:11:54.219Z</time>
      </trkpt>
      <trkpt lat="46.82623" lon="8.41369">
        <ele>1222</ele>
        <time>2021-08-13T09:11:55.220Z</time>
      </trkpt>
      <trkpt lat="46.82622" lon="8.41368">
        <ele>1222</ele>
        <time>2021-08-13T09:11:56.220Z</time>
      </trkpt>
      <trkpt lat="46.82621" lon="8.41367">
        <ele>1222</ele>
        <time>2021-08-13T09:11:57.219Z</time>
      </trkpt>
      <trkpt lat="46.8262" lon="8.41366">
        <ele>1221</ele>
        <time>2021-08-13T09:11:58.220Z</time>
      </trkpt>
      <trkpt lat="46.82619" lon="8.41364">
        <ele>1221</ele>
        <time>2021-08-13T09:11:59.219Z</time>
      </trkpt>
      <trkpt lat="46.82619" lon="8.41364">
        <ele>1222</ele>
        <time>2021-08-13T09:12:00.219Z</time>
      </trkpt>
      <trkpt lat="46.82617" lon="8.41365">
        <ele>1222</ele>
        <time>2021-08-13T09:12:01.219Z</time>
      </trkpt>
      <trkpt lat="46.82616" lon="8.41366">
        <ele>1222</ele>
        <time>2021-08-13T09:12:02.219Z</time>
      </trkpt>
      <trkpt lat="46.82615" lon="8.41367">
        <ele>1222</ele>
        <time>2021-08-13T09:12:03.219Z</time>
      </trkpt>
      <trkpt lat="46.82614" lon="8.41367">
        <ele>1222</ele>
        <time>2021-08-13T09:12:04.219Z</time>
      </trkpt>
      <trkpt lat="46.82613" lon="8.41367">
        <ele>1222</ele>
        <time>2021-08-13T09:12:05.220Z</time>
      </trkpt>
      <trkpt lat="46.82612" lon="8.41367">
        <ele>1222</ele>
        <time>2021-08-13T09:12:06.220Z</time>
      </trkpt>
      <trkpt lat="46.82611" lon="8.41366">
        <ele>1222</ele>
        <time>2021-08-13T09:12:07.220Z</time>
      </trkpt>
      <trkpt lat="46.8261" lon="8.41366">
        <ele>1221</ele>
        <time>2021-08-13T09:12:08.220Z</time>
      </trkpt>
      <trkpt lat="46.82609" lon="8.41364">
        <ele>1221</ele>
        <time>2021-08-13T09:12:09.220Z</time>
      </trkpt>
      <trkpt lat="46.82608" lon="8.41363">
        <ele>1221</ele>
        <time>2021-08-13T09:12:10.220Z</time>
      </trkpt>
      <trkpt lat="46.82608" lon="8.41362">
        <ele>1221</ele>
        <time>2021-08-13T09:12:11.220Z</time>
      </trkpt>
      <trkpt lat="46.82607" lon="8.4136">
        <ele>1220</ele>
        <time>2021-08-13T09:12:12.219Z</time>
      </trkpt>
      <trkpt lat="46.82606" lon="8.41359">
        <ele>1220</ele>
        <time>2021-08-13T09:12:13.219Z</time>
      </trkpt>
      <trkpt lat="46.82606" lon="8.41358">
        <ele>1220</ele>
        <time>2021-08-13T09:12:14.220Z</time>
      </trkpt>
      <trkpt lat="46.82605" lon="8.41358">
        <ele>1220</ele>
        <time>2021-08-13T09:12:15.220Z</time>
      </trkpt>
      <trkpt lat="46.82603" lon="8.41358">
        <ele>1219</ele>
        <time>2021-08-13T09:12:16.219Z</time>
      </trkpt>
      <trkpt lat="46.82601" lon="8.41358">
        <ele>1219</ele>
        <time>2021-08-13T09:12:17.219Z</time>
      </trkpt>
      <trkpt lat="46.82599" lon="8.41358">
        <ele>1219</ele>
        <time>2021-08-13T09:12:18.220Z</time>
      </trkpt>
      <trkpt lat="46.82598" lon="8.41358">
        <ele>1219</ele>
        <time>2021-08-13T09:12:19.220Z</time>
      </trkpt>
      <trkpt lat="46.82597" lon="8.41357">
        <ele>1219</ele>
        <time>2021-08-13T09:12:20.219Z</time>
      </trkpt>
      <trkpt lat="46.82596" lon="8.41356">
        <ele>1219</ele>
        <time>2021-08-13T09:12:21.220Z</time>
      </trkpt>
      <trkpt lat="46.82595" lon="8.41355">
        <ele>1219</ele>
        <time>2021-08-13T09:12:22.220Z</time>
      </trkpt>
      <trkpt lat="46.82594" lon="8.41355">
        <ele>1218</ele>
        <time>2021-08-13T09:12:23.220Z</time>
      </trkpt>
      <trkpt lat="46.82593" lon="8.41354">
        <ele>1218</ele>
        <time>2021-08-13T09:12:24.220Z</time>
      </trkpt>
      <trkpt lat="46.82592" lon="8.41353">
        <ele>1218</ele>
        <time>2021-08-13T09:12:25.220Z</time>
      </trkpt>
      <trkpt lat="46.82591" lon="8.41353">
        <ele>1217</ele>
        <time>2021-08-13T09:12:26.219Z</time>
      </trkpt>
      <trkpt lat="46.8259" lon="8.41352">
        <ele>1217</ele>
        <time>2021-08-13T09:12:27.220Z</time>
      </trkpt>
      <trkpt lat="46.82589" lon="8.41352">
        <ele>1217</ele>
        <time>2021-08-13T09:12:28.220Z</time>
      </trkpt>
      <trkpt lat="46.82588" lon="8.4135">
        <ele>1217</ele>
        <time>2021-08-13T09:12:29.219Z</time>
      </trkpt>
      <trkpt lat="46.82588" lon="8.41349">
        <ele>1216</ele>
        <time>2021-08-13T09:12:30.220Z</time>
      </trkpt>
      <trkpt lat="46.82587" lon="8.41348">
        <ele>1216</ele>
        <time>2021-08-13T09:12:31.220Z</time>
      </trkpt>
      <trkpt lat="46.82586" lon="8.41348">
        <ele>1216</ele>
        <time>2021-08-13T09:12:32.220Z</time>
      </trkpt>
      <trkpt lat="46.82585" lon="8.41349">
        <ele>1215</ele>
        <time>2021-08-13T09:12:33.220Z</time>
      </trkpt>
      <trkpt lat="46.82584" lon="8.41348">
        <ele>1215</ele>
        <time>2021-08-13T09:12:34.219Z</time>
      </trkpt>
      <trkpt lat="46.82582" lon="8.41346">
        <ele>1214</ele>
        <time>2021-08-13T09:12:35.220Z</time>
      </trkpt>
      <trkpt lat="46.82581" lon="8.41346">
        <ele>1214</ele>
        <time>2021-08-13T09:12:36.220Z</time>
      </trkpt>
      <trkpt lat="46.8258" lon="8.41345">
        <ele>1213</ele>
        <time>2021-08-13T09:12:37.220Z</time>
      </trkpt>
      <trkpt lat="46.82579" lon="8.41345">
        <ele>1213</ele>
        <time>2021-08-13T09:12:38.220Z</time>
      </trkpt>
      <trkpt lat="46.82578" lon="8.41345">
        <ele>1213</ele>
        <time>2021-08-13T09:12:39.219Z</time>
      </trkpt>
      <trkpt lat="46.82577" lon="8.41344">
        <ele>1212</ele>
        <time>2021-08-13T09:12:40.219Z</time>
      </trkpt>
      <trkpt lat="46.82576" lon="8.41343">
        <ele>1212</ele>
        <time>2021-08-13T09:12:41.220Z</time>
      </trkpt>
      <trkpt lat="46.82575" lon="8.41342">
        <ele>1211</ele>
        <time>2021-08-13T09:12:42.220Z</time>
      </trkpt>
      <trkpt lat="46.82574" lon="8.41342">
        <ele>1210</ele>
        <time>2021-08-13T09:12:43.220Z</time>
      </trkpt>
      <trkpt lat="46.82574" lon="8.41342">
        <ele>1210</ele>
        <time>2021-08-13T09:12:44.220Z</time>
      </trkpt>
      <trkpt lat="46.82573" lon="8.41341">
        <ele>1209</ele>
        <time>2021-08-13T09:12:45.220Z</time>
      </trkpt>
      <trkpt lat="46.82571" lon="8.41343">
        <ele>1208</ele>
        <time>2021-08-13T09:12:46.219Z</time>
      </trkpt>
      <trkpt lat="46.82569" lon="8.41343">
        <ele>1208</ele>
        <time>2021-08-13T09:12:47.220Z</time>
      </trkpt>
      <trkpt lat="46.82568" lon="8.41342">
        <ele>1208</ele>
        <time>2021-08-13T09:12:48.220Z</time>
      </trkpt>
      <trkpt lat="46.82568" lon="8.41342">
        <ele>1207</ele>
        <time>2021-08-13T09:12:49.220Z</time>
      </trkpt>
      <trkpt lat="46.82568" lon="8.41343">
        <ele>1207</ele>
        <time>2021-08-13T09:12:50.220Z</time>
      </trkpt>
      <trkpt lat="46.82567" lon="8.41343">
        <ele>1207</ele>
        <time>2021-08-13T09:12:51.220Z</time>
      </trkpt>
      <trkpt lat="46.82566" lon="8.41343">
        <ele>1207</ele>
        <time>2021-08-13T09:12:52.219Z</time>
      </trkpt>
      <trkpt lat="46.82565" lon="8.41343">
        <ele>1207</ele>
        <time>2021-08-13T09:12:53.220Z</time>
      </trkpt>
      <trkpt lat="46.82564" lon="8.41343">
        <ele>1207</ele>
        <time>2021-08-13T09:12:54.220Z</time>
      </trkpt>
      <trkpt lat="46.82563" lon="8.41343">
        <ele>1207</ele>
        <time>2021-08-13T09:12:55.220Z</time>
      </trkpt>
      <trkpt lat="46.82562" lon="8.41343">
        <ele>1207</ele>
        <time>2021-08-13T09:12:56.219Z</time>
      </trkpt>
      <trkpt lat="46.82561" lon="8.41342">
        <ele>1206</ele>
        <time>2021-08-13T09:12:57.219Z</time>
      </trkpt>
      <trkpt lat="46.8256" lon="8.41342">
        <ele>1206</ele>
        <time>2021-08-13T09:12:58.220Z</time>
      </trkpt>
      <trkpt lat="46.82559" lon="8.41342">
        <ele>1206</ele>
        <time>2021-08-13T09:12:59.220Z</time>
      </trkpt>
      <trkpt lat="46.82558" lon="8.41341">
        <ele>1206</ele>
        <time>2021-08-13T09:13:00.220Z</time>
      </trkpt>
      <trkpt lat="46.82558" lon="8.41341">
        <ele>1206</ele>
        <time>2021-08-13T09:13:01.220Z</time>
      </trkpt>
      <trkpt lat="46.82557" lon="8.41339">
        <ele>1206</ele>
        <time>2021-08-13T09:13:02.220Z</time>
      </trkpt>
      <trkpt lat="46.82556" lon="8.41338">
        <ele>1205</ele>
        <time>2021-08-13T09:13:03.220Z</time>
      </trkpt>
      <trkpt lat="46.82555" lon="8.41338">
        <ele>1205</ele>
        <time>2021-08-13T09:13:04.220Z</time>
      </trkpt>
      <trkpt lat="46.82554" lon="8.41337">
        <ele>1205</ele>
        <time>2021-08-13T09:13:05.219Z</time>
      </trkpt>
      <trkpt lat="46.82553" lon="8.41337">
        <ele>1205</ele>
        <time>2021-08-13T09:13:06.220Z</time>
      </trkpt>
      <trkpt lat="46.82551" lon="8.41337">
        <ele>1205</ele>
        <time>2021-08-13T09:13:07.219Z</time>
      </trkpt>
      <trkpt lat="46.8255" lon="8.41336">
        <ele>1205</ele>
        <time>2021-08-13T09:13:08.220Z</time>
      </trkpt>
      <trkpt lat="46.8255" lon="8.41335">
        <ele>1204</ele>
        <time>2021-08-13T09:13:09.220Z</time>
      </trkpt>
      <trkpt lat="46.82549" lon="8.41333">
        <ele>1204</ele>
        <time>2021-08-13T09:13:10.220Z</time>
      </trkpt>
      <trkpt lat="46.82548" lon="8.41332">
        <ele>1203</ele>
        <time>2021-08-13T09:13:11.219Z</time>
      </trkpt>
      <trkpt lat="46.82548" lon="8.4133">
        <ele>1202</ele>
        <time>2021-08-13T09:13:12.220Z</time>
      </trkpt>
      <trkpt lat="46.82547" lon="8.41329">
        <ele>1201</ele>
        <time>2021-08-13T09:13:13.219Z</time>
      </trkpt>
      <trkpt lat="46.82547" lon="8.41327">
        <ele>1201</ele>
        <time>2021-08-13T09:13:14.220Z</time>
      </trkpt>
      <trkpt lat="46.82545" lon="8.41327">
        <ele>1200</ele>
        <time>2021-08-13T09:13:15.219Z</time>
      </trkpt>
      <trkpt lat="46.82544" lon="8.41326">
        <ele>1200</ele>
        <time>2021-08-13T09:13:16.219Z</time>
      </trkpt>
      <trkpt lat="46.82543" lon="8.41324">
        <ele>1199</ele>
        <time>2021-08-13T09:13:17.219Z</time>
      </trkpt>
      <trkpt lat="46.82542" lon="8.41323">
        <ele>1198</ele>
        <time>2021-08-13T09:13:18.219Z</time>
      </trkpt>
      <trkpt lat="46.82541" lon="8.41323">
        <ele>1197</ele>
        <time>2021-08-13T09:13:19.220Z</time>
      </trkpt>
      <trkpt lat="46.82541" lon="8.41322">
        <ele>1196</ele>
        <time>2021-08-13T09:13:20.220Z</time>
      </trkpt>
      <trkpt lat="46.82539" lon="8.41321">
        <ele>1195</ele>
        <time>2021-08-13T09:13:21.220Z</time>
      </trkpt>
      <trkpt lat="46.82538" lon="8.41321">
        <ele>1194</ele>
        <time>2021-08-13T09:13:22.220Z</time>
      </trkpt>
      <trkpt lat="46.82537" lon="8.4132">
        <ele>1194</ele>
        <time>2021-08-13T09:13:23.220Z</time>
      </trkpt>
      <trkpt lat="46.82537" lon="8.41319">
        <ele>1194</ele>
        <time>2021-08-13T09:13:24.219Z</time>
      </trkpt>
      <trkpt lat="46.82536" lon="8.41318">
        <ele>1194</ele>
        <time>2021-08-13T09:13:25.220Z</time>
      </trkpt>
      <trkpt lat="46.82535" lon="8.41318">
        <ele>1194</ele>
        <time>2021-08-13T09:13:26.219Z</time>
      </trkpt>
      <trkpt lat="46.82534" lon="8.41317">
        <ele>1193</ele>
        <time>2021-08-13T09:13:27.220Z</time>
      </trkpt>
      <trkpt lat="46.82534" lon="8.41316">
        <ele>1193</ele>
        <time>2021-08-13T09:13:28.220Z</time>
      </trkpt>
      <trkpt lat="46.82534" lon="8.41315">
        <ele>1192</ele>
        <time>2021-08-13T09:13:29.220Z</time>
      </trkpt>
      <trkpt lat="46.82533" lon="8.41314">
        <ele>1192</ele>
        <time>2021-08-13T09:13:30.220Z</time>
      </trkpt>
      <trkpt lat="46.82533" lon="8.41311">
        <ele>1191</ele>
        <time>2021-08-13T09:13:31.220Z</time>
      </trkpt>
      <trkpt lat="46.82533" lon="8.41309">
        <ele>1191</ele>
        <time>2021-08-13T09:13:32.219Z</time>
      </trkpt>
      <trkpt lat="46.82532" lon="8.41306">
        <ele>1190</ele>
        <time>2021-08-13T09:13:33.220Z</time>
      </trkpt>
      <trkpt lat="46.82532" lon="8.41305">
        <ele>1189</ele>
        <time>2021-08-13T09:13:34.220Z</time>
      </trkpt>
      <trkpt lat="46.82531" lon="8.41304">
        <ele>1189</ele>
        <time>2021-08-13T09:13:35.220Z</time>
      </trkpt>
      <trkpt lat="46.8253" lon="8.41303">
        <ele>1189</ele>
        <time>2021-08-13T09:13:36.219Z</time>
      </trkpt>
      <trkpt lat="46.82529" lon="8.41302">
        <ele>1190</ele>
        <time>2021-08-13T09:13:37.220Z</time>
      </trkpt>
      <trkpt lat="46.82528" lon="8.41301">
        <ele>1190</ele>
        <time>2021-08-13T09:13:38.220Z</time>
      </trkpt>
      <trkpt lat="46.82526" lon="8.41298">
        <ele>1191</ele>
        <time>2021-08-13T09:13:39.219Z</time>
      </trkpt>
      <trkpt lat="46.82525" lon="8.41295">
        <ele>1191</ele>
        <time>2021-08-13T09:13:40.220Z</time>
      </trkpt>
      <trkpt lat="46.82524" lon="8.41294">
        <ele>1191</ele>
        <time>2021-08-13T09:13:41.220Z</time>
      </trkpt>
      <trkpt lat="46.82523" lon="8.41292">
        <ele>1192</ele>
        <time>2021-08-13T09:13:42.219Z</time>
      </trkpt>
      <trkpt lat="46.82522" lon="8.41291">
        <ele>1192</ele>
        <time>2021-08-13T09:13:43.220Z</time>
      </trkpt>
      <trkpt lat="46.82521" lon="8.4129">
        <ele>1192</ele>
        <time>2021-08-13T09:13:44.219Z</time>
      </trkpt>
      <trkpt lat="46.82521" lon="8.41288">
        <ele>1192</ele>
        <time>2021-08-13T09:13:45.219Z</time>
      </trkpt>
      <trkpt lat="46.8252" lon="8.41286">
        <ele>1193</ele>
        <time>2021-08-13T09:13:46.220Z</time>
      </trkpt>
      <trkpt lat="46.8252" lon="8.41284">
        <ele>1193</ele>
        <time>2021-08-13T09:13:47.220Z</time>
      </trkpt>
      <trkpt lat="46.82519" lon="8.41283">
        <ele>1193</ele>
        <time>2021-08-13T09:13:48.220Z</time>
      </trkpt>
      <trkpt lat="46.82518" lon="8.41281">
        <ele>1194</ele>
        <time>2021-08-13T09:13:49.219Z</time>
      </trkpt>
      <trkpt lat="46.82518" lon="8.4128">
        <ele>1194</ele>
        <time>2021-08-13T09:13:50.219Z</time>
      </trkpt>
      <trkpt lat="46.82517" lon="8.41279">
        <ele>1194</ele>
        <time>2021-08-13T09:13:51.220Z</time>
      </trkpt>
      <trkpt lat="46.82517" lon="8.41278">
        <ele>1194</ele>
        <time>2021-08-13T09:13:52.219Z</time>
      </trkpt>
      <trkpt lat="46.82517" lon="8.41277">
        <ele>1195</ele>
        <time>2021-08-13T09:13:53.220Z</time>
      </trkpt>
      <trkpt lat="46.82516" lon="8.41275">
        <ele>1195</ele>
        <time>2021-08-13T09:13:54.220Z</time>
      </trkpt>
      <trkpt lat="46.82516" lon="8.41273">
        <ele>1196</ele>
        <time>2021-08-13T09:13:55.220Z</time>
      </trkpt>
      <trkpt lat="46.82516" lon="8.41272">
        <ele>1196</ele>
        <time>2021-08-13T09:13:56.220Z</time>
      </trkpt>
      <trkpt lat="46.82515" lon="8.41269">
        <ele>1197</ele>
        <time>2021-08-13T09:13:57.220Z</time>
      </trkpt>
      <trkpt lat="46.82515" lon="8.41267">
        <ele>1197</ele>
        <time>2021-08-13T09:13:58.220Z</time>
      </trkpt>
      <trkpt lat="46.82514" lon="8.41264">
        <ele>1197</ele>
        <time>2021-08-13T09:13:59.220Z</time>
      </trkpt>
      <trkpt lat="46.82512" lon="8.41261">
        <ele>1197</ele>
        <time>2021-08-13T09:14:00.220Z</time>
      </trkpt>
      <trkpt lat="46.8251" lon="8.41259">
        <ele>1197</ele>
        <time>2021-08-13T09:14:01.220Z</time>
      </trkpt>
      <trkpt lat="46.82508" lon="8.41257">
        <ele>1197</ele>
        <time>2021-08-13T09:14:02.220Z</time>
      </trkpt>
      <trkpt lat="46.82508" lon="8.41256">
        <ele>1197</ele>
        <time>2021-08-13T09:14:03.220Z</time>
      </trkpt>
      <trkpt lat="46.82507" lon="8.41255">
        <ele>1197</ele>
        <time>2021-08-13T09:14:04.220Z</time>
      </trkpt>
      <trkpt lat="46.82505" lon="8.41254">
        <ele>1197</ele>
        <time>2021-08-13T09:14:05.220Z</time>
      </trkpt>
      <trkpt lat="46.82504" lon="8.41253">
        <ele>1196</ele>
        <time>2021-08-13T09:14:06.220Z</time>
      </trkpt>
      <trkpt lat="46.82502" lon="8.41253">
        <ele>1196</ele>
        <time>2021-08-13T09:14:07.219Z</time>
      </trkpt>
      <trkpt lat="46.82501" lon="8.41252">
        <ele>1195</ele>
        <time>2021-08-13T09:14:08.219Z</time>
      </trkpt>
      <trkpt lat="46.825" lon="8.4125">
        <ele>1195</ele>
        <time>2021-08-13T09:14:09.219Z</time>
      </trkpt>
      <trkpt lat="46.825" lon="8.4125">
        <ele>1195</ele>
        <time>2021-08-13T09:14:10.220Z</time>
      </trkpt>
      <trkpt lat="46.82499" lon="8.4125">
        <ele>1195</ele>
        <time>2021-08-13T09:14:11.219Z</time>
      </trkpt>
      <trkpt lat="46.82499" lon="8.4125">
        <ele>1194</ele>
        <time>2021-08-13T09:14:12.220Z</time>
      </trkpt>
      <trkpt lat="46.82499" lon="8.41249">
        <ele>1194</ele>
        <time>2021-08-13T09:14:13.220Z</time>
      </trkpt>
      <trkpt lat="46.825" lon="8.41249">
        <ele>1193</ele>
        <time>2021-08-13T09:14:14.220Z</time>
      </trkpt>
      <trkpt lat="46.825" lon="8.41248">
        <ele>1193</ele>
        <time>2021-08-13T09:14:15.220Z</time>
      </trkpt>
      <trkpt lat="46.82499" lon="8.41248">
        <ele>1192</ele>
        <time>2021-08-13T09:14:16.219Z</time>
      </trkpt>
      <trkpt lat="46.82498" lon="8.41247">
        <ele>1192</ele>
        <time>2021-08-13T09:14:17.220Z</time>
      </trkpt>
      <trkpt lat="46.82498" lon="8.41247">
        <ele>1191</ele>
        <time>2021-08-13T09:14:18.220Z</time>
      </trkpt>
      <trkpt lat="46.82497" lon="8.41245">
        <ele>1190</ele>
        <time>2021-08-13T09:14:19.220Z</time>
      </trkpt>
      <trkpt lat="46.82497" lon="8.41244">
        <ele>1190</ele>
        <time>2021-08-13T09:14:20.219Z</time>
      </trkpt>
      <trkpt lat="46.82496" lon="8.41243">
        <ele>1189</ele>
        <time>2021-08-13T09:14:21.220Z</time>
      </trkpt>
      <trkpt lat="46.82497" lon="8.41242">
        <ele>1188</ele>
        <time>2021-08-13T09:14:22.220Z</time>
      </trkpt>
      <trkpt lat="46.82497" lon="8.41241">
        <ele>1187</ele>
        <time>2021-08-13T09:14:23.219Z</time>
      </trkpt>
      <trkpt lat="46.82497" lon="8.4124">
        <ele>1186</ele>
        <time>2021-08-13T09:14:24.219Z</time>
      </trkpt>
      <trkpt lat="46.82497" lon="8.41239">
        <ele>1185</ele>
        <time>2021-08-13T09:14:25.219Z</time>
      </trkpt>
      <trkpt lat="46.82497" lon="8.41239">
        <ele>1185</ele>
        <time>2021-08-13T09:14:26.219Z</time>
      </trkpt>
      <trkpt lat="46.82497" lon="8.41238">
        <ele>1184</ele>
        <time>2021-08-13T09:14:27.219Z</time>
      </trkpt>
      <trkpt lat="46.82497" lon="8.41238">
        <ele>1184</ele>
        <time>2021-08-13T09:14:28.220Z</time>
      </trkpt>
      <trkpt lat="46.82497" lon="8.41237">
        <ele>1184</ele>
        <time>2021-08-13T09:14:29.219Z</time>
      </trkpt>
      <trkpt lat="46.82497" lon="8.41236">
        <ele>1184</ele>
        <time>2021-08-13T09:14:30.219Z</time>
      </trkpt>
      <trkpt lat="46.82497" lon="8.41236">
        <ele>1183</ele>
        <time>2021-08-13T09:14:31.219Z</time>
      </trkpt>
      <trkpt lat="46.82497" lon="8.41236">
        <ele>1183</ele>
        <time>2021-08-13T09:14:32.219Z</time>
      </trkpt>
      <trkpt lat="46.82496" lon="8.41236">
        <ele>1183</ele>
        <time>2021-08-13T09:14:33.220Z</time>
      </trkpt>
      <trkpt lat="46.82496" lon="8.41237">
        <ele>1183</ele>
        <time>2021-08-13T09:14:34.219Z</time>
      </trkpt>
      <trkpt lat="46.82496" lon="8.41238">
        <ele>1184</ele>
        <time>2021-08-13T09:14:35.219Z</time>
      </trkpt>
      <trkpt lat="46.82496" lon="8.41238">
        <ele>1184</ele>
        <time>2021-08-13T09:14:36.219Z</time>
      </trkpt>
      <trkpt lat="46.82496" lon="8.41238">
        <ele>1184</ele>
        <time>2021-08-13T09:14:37.219Z</time>
      </trkpt>
      <trkpt lat="46.82496" lon="8.41237">
        <ele>1185</ele>
        <time>2021-08-13T09:14:38.219Z</time>
      </trkpt>
      <trkpt lat="46.82496" lon="8.41236">
        <ele>1185</ele>
        <time>2021-08-13T09:14:39.219Z</time>
      </trkpt>
      <trkpt lat="46.82496" lon="8.41235">
        <ele>1185</ele>
        <time>2021-08-13T09:14:40.219Z</time>
      </trkpt>
      <trkpt lat="46.82497" lon="8.41233">
        <ele>1185</ele>
        <time>2021-08-13T09:14:41.219Z</time>
      </trkpt>
      <trkpt lat="46.82497" lon="8.41232">
        <ele>1185</ele>
        <time>2021-08-13T09:14:42.219Z</time>
      </trkpt>
      <trkpt lat="46.82497" lon="8.41231">
        <ele>1185</ele>
        <time>2021-08-13T09:14:43.219Z</time>
      </trkpt>
      <trkpt lat="46.82497" lon="8.4123">
        <ele>1185</ele>
        <time>2021-08-13T09:14:44.219Z</time>
      </trkpt>
      <trkpt lat="46.82496" lon="8.41229">
        <ele>1185</ele>
        <time>2021-08-13T09:14:45.220Z</time>
      </trkpt>
      <trkpt lat="46.82496" lon="8.41228">
        <ele>1184</ele>
        <time>2021-08-13T09:14:46.219Z</time>
      </trkpt>
      <trkpt lat="46.82495" lon="8.41227">
        <ele>1184</ele>
        <time>2021-08-13T09:14:47.219Z</time>
      </trkpt>
      <trkpt lat="46.82495" lon="8.41227">
        <ele>1183</ele>
        <time>2021-08-13T09:14:48.219Z</time>
      </trkpt>
      <trkpt lat="46.82495" lon="8.41226">
        <ele>1182</ele>
        <time>2021-08-13T09:14:49.219Z</time>
      </trkpt>
      <trkpt lat="46.82494" lon="8.41225">
        <ele>1181</ele>
        <time>2021-08-13T09:14:50.219Z</time>
      </trkpt>
      <trkpt lat="46.82494" lon="8.41223">
        <ele>1180</ele>
        <time>2021-08-13T09:14:51.219Z</time>
      </trkpt>
      <trkpt lat="46.82493" lon="8.41221">
        <ele>1179</ele>
        <time>2021-08-13T09:14:52.219Z</time>
      </trkpt>
      <trkpt lat="46.82493" lon="8.4122">
        <ele>1178</ele>
        <time>2021-08-13T09:14:53.219Z</time>
      </trkpt>
      <trkpt lat="46.82493" lon="8.41218">
        <ele>1177</ele>
        <time>2021-08-13T09:14:54.219Z</time>
      </trkpt>
      <trkpt lat="46.82492" lon="8.41217">
        <ele>1177</ele>
        <time>2021-08-13T09:14:55.219Z</time>
      </trkpt>
      <trkpt lat="46.82492" lon="8.41216">
        <ele>1176</ele>
        <time>2021-08-13T09:14:56.219Z</time>
      </trkpt>
      <trkpt lat="46.82492" lon="8.41216">
        <ele>1175</ele>
        <time>2021-08-13T09:14:57.219Z</time>
      </trkpt>
      <trkpt lat="46.82491" lon="8.41215">
        <ele>1175</ele>
        <time>2021-08-13T09:14:58.219Z</time>
      </trkpt>
      <trkpt lat="46.82492" lon="8.41215">
        <ele>1175</ele>
        <time>2021-08-13T09:14:59.220Z</time>
      </trkpt>
      <trkpt lat="46.82492" lon="8.41214">
        <ele>1175</ele>
        <time>2021-08-13T09:15:00.220Z</time>
      </trkpt>
      <trkpt lat="46.82492" lon="8.41213">
        <ele>1175</ele>
        <time>2021-08-13T09:15:01.220Z</time>
      </trkpt>
      <trkpt lat="46.82493" lon="8.41212">
        <ele>1174</ele>
        <time>2021-08-13T09:15:02.220Z</time>
      </trkpt>
      <trkpt lat="46.82493" lon="8.41211">
        <ele>1174</ele>
        <time>2021-08-13T09:15:03.219Z</time>
      </trkpt>
      <trkpt lat="46.82493" lon="8.41209">
        <ele>1174</ele>
        <time>2021-08-13T09:15:04.220Z</time>
      </trkpt>
      <trkpt lat="46.82492" lon="8.41208">
        <ele>1173</ele>
        <time>2021-08-13T09:15:05.220Z</time>
      </trkpt>
      <trkpt lat="46.82491" lon="8.41207">
        <ele>1173</ele>
        <time>2021-08-13T09:15:06.220Z</time>
      </trkpt>
      <trkpt lat="46.82491" lon="8.41206">
        <ele>1173</ele>
        <time>2021-08-13T09:15:07.220Z</time>
      </trkpt>
      <trkpt lat="46.82491" lon="8.41205">
        <ele>1173</ele>
        <time>2021-08-13T09:15:08.220Z</time>
      </trkpt>
      <trkpt lat="46.82491" lon="8.41204">
        <ele>1173</ele>
        <time>2021-08-13T09:15:09.220Z</time>
      </trkpt>
      <trkpt lat="46.82491" lon="8.41202">
        <ele>1173</ele>
        <time>2021-08-13T09:15:10.219Z</time>
      </trkpt>
      <trkpt lat="46.8249" lon="8.41201">
        <ele>1173</ele>
        <time>2021-08-13T09:15:11.220Z</time>
      </trkpt>
      <trkpt lat="46.8249" lon="8.412">
        <ele>1173</ele>
        <time>2021-08-13T09:15:12.220Z</time>
      </trkpt>
      <trkpt lat="46.8249" lon="8.41198">
        <ele>1173</ele>
        <time>2021-08-13T09:15:13.220Z</time>
      </trkpt>
      <trkpt lat="46.82491" lon="8.41197">
        <ele>1173</ele>
        <time>2021-08-13T09:15:14.220Z</time>
      </trkpt>
      <trkpt lat="46.8249" lon="8.41196">
        <ele>1172</ele>
        <time>2021-08-13T09:15:15.219Z</time>
      </trkpt>
      <trkpt lat="46.8249" lon="8.41194">
        <ele>1172</ele>
        <time>2021-08-13T09:15:16.220Z</time>
      </trkpt>
      <trkpt lat="46.8249" lon="8.41194">
        <ele>1172</ele>
        <time>2021-08-13T09:15:17.220Z</time>
      </trkpt>
      <trkpt lat="46.82489" lon="8.41193">
        <ele>1172</ele>
        <time>2021-08-13T09:15:18.219Z</time>
      </trkpt>
      <trkpt lat="46.82487" lon="8.41193">
        <ele>1172</ele>
        <time>2021-08-13T09:15:19.219Z</time>
      </trkpt>
      <trkpt lat="46.82486" lon="8.41194">
        <ele>1172</ele>
        <time>2021-08-13T09:15:20.220Z</time>
      </trkpt>
      <trkpt lat="46.82484" lon="8.41195">
        <ele>1172</ele>
        <time>2021-08-13T09:15:21.220Z</time>
      </trkpt>
      <trkpt lat="46.82483" lon="8.41196">
        <ele>1172</ele>
        <time>2021-08-13T09:15:22.220Z</time>
      </trkpt>
      <trkpt lat="46.82483" lon="8.41196">
        <ele>1172</ele>
        <time>2021-08-13T09:15:23.219Z</time>
      </trkpt>
      <trkpt lat="46.82483" lon="8.41197">
        <ele>1172</ele>
        <time>2021-08-13T09:15:24.219Z</time>
      </trkpt>
      <trkpt lat="46.82482" lon="8.41197">
        <ele>1172</ele>
        <time>2021-08-13T09:15:25.220Z</time>
      </trkpt>
      <trkpt lat="46.82482" lon="8.41197">
        <ele>1172</ele>
        <time>2021-08-13T09:15:26.220Z</time>
      </trkpt>
      <trkpt lat="46.82483" lon="8.41192">
        <ele>1169</ele>
        <time>2021-08-13T09:15:27.220Z</time>
      </trkpt>
      <trkpt lat="46.82483" lon="8.41191">
        <ele>1169</ele>
        <time>2021-08-13T09:15:28.219Z</time>
      </trkpt>
      <trkpt lat="46.82483" lon="8.4119">
        <ele>1170</ele>
        <time>2021-08-13T09:15:29.219Z</time>
      </trkpt>
      <trkpt lat="46.82483" lon="8.4119">
        <ele>1170</ele>
        <time>2021-08-13T09:15:30.220Z</time>
      </trkpt>
      <trkpt lat="46.82483" lon="8.4119">
        <ele>1170</ele>
        <time>2021-08-13T09:15:31.219Z</time>
      </trkpt>
      <trkpt lat="46.82482" lon="8.41189">
        <ele>1170</ele>
        <time>2021-08-13T09:15:32.220Z</time>
      </trkpt>
      <trkpt lat="46.82482" lon="8.41188">
        <ele>1170</ele>
        <time>2021-08-13T09:15:33.220Z</time>
      </trkpt>
      <trkpt lat="46.82482" lon="8.41186">
        <ele>1170</ele>
        <time>2021-08-13T09:15:34.219Z</time>
      </trkpt>
      <trkpt lat="46.82482" lon="8.41186">
        <ele>1170</ele>
        <time>2021-08-13T09:15:35.219Z</time>
      </trkpt>
      <trkpt lat="46.82479" lon="8.41185">
        <ele>1169</ele>
        <time>2021-08-13T09:15:36.220Z</time>
      </trkpt>
      <trkpt lat="46.82479" lon="8.41185">
        <ele>1170</ele>
        <time>2021-08-13T09:15:37.220Z</time>
      </trkpt>
      <trkpt lat="46.82479" lon="8.41186">
        <ele>1170</ele>
        <time>2021-08-13T09:15:38.221Z</time>
      </trkpt>
      <trkpt lat="46.82478" lon="8.41186">
        <ele>1170</ele>
        <time>2021-08-13T09:15:39.221Z</time>
      </trkpt>
      <trkpt lat="46.82476" lon="8.41187">
        <ele>1170</ele>
        <time>2021-08-13T09:15:40.221Z</time>
      </trkpt>
      <trkpt lat="46.82475" lon="8.41187">
        <ele>1170</ele>
        <time>2021-08-13T09:15:41.221Z</time>
      </trkpt>
      <trkpt lat="46.82474" lon="8.41187">
        <ele>1170</ele>
        <time>2021-08-13T09:15:42.221Z</time>
      </trkpt>
      <trkpt lat="46.82474" lon="8.41186">
        <ele>1170</ele>
        <time>2021-08-13T09:15:43.221Z</time>
      </trkpt>
      <trkpt lat="46.82473" lon="8.41187">
        <ele>1169</ele>
        <time>2021-08-13T09:15:44.221Z</time>
      </trkpt>
      <trkpt lat="46.82472" lon="8.41186">
        <ele>1169</ele>
        <time>2021-08-13T09:15:45.221Z</time>
      </trkpt>
      <trkpt lat="46.82471" lon="8.41187">
        <ele>1168</ele>
        <time>2021-08-13T09:15:46.220Z</time>
      </trkpt>
      <trkpt lat="46.8247" lon="8.41188">
        <ele>1168</ele>
        <time>2021-08-13T09:15:47.221Z</time>
      </trkpt>
      <trkpt lat="46.82469" lon="8.41189">
        <ele>1167</ele>
        <time>2021-08-13T09:15:48.221Z</time>
      </trkpt>
      <trkpt lat="46.82469" lon="8.4119">
        <ele>1166</ele>
        <time>2021-08-13T09:15:49.221Z</time>
      </trkpt>
      <trkpt lat="46.82468" lon="8.41192">
        <ele>1166</ele>
        <time>2021-08-13T09:15:50.221Z</time>
      </trkpt>
      <trkpt lat="46.82468" lon="8.41193">
        <ele>1165</ele>
        <time>2021-08-13T09:15:51.221Z</time>
      </trkpt>
      <trkpt lat="46.82468" lon="8.41193">
        <ele>1165</ele>
        <time>2021-08-13T09:15:52.221Z</time>
      </trkpt>
      <trkpt lat="46.82469" lon="8.41194">
        <ele>1165</ele>
        <time>2021-08-13T09:15:53.220Z</time>
      </trkpt>
      <trkpt lat="46.82469" lon="8.41195">
        <ele>1164</ele>
        <time>2021-08-13T09:15:54.221Z</time>
      </trkpt>
      <trkpt lat="46.8247" lon="8.41196">
        <ele>1164</ele>
        <time>2021-08-13T09:15:55.220Z</time>
      </trkpt>
      <trkpt lat="46.8247" lon="8.41197">
        <ele>1164</ele>
        <time>2021-08-13T09:15:56.220Z</time>
      </trkpt>
      <trkpt lat="46.8247" lon="8.41198">
        <ele>1163</ele>
        <time>2021-08-13T09:15:57.220Z</time>
      </trkpt>
      <trkpt lat="46.8247" lon="8.41199">
        <ele>1163</ele>
        <time>2021-08-13T09:15:58.220Z</time>
      </trkpt>
      <trkpt lat="46.8247" lon="8.412">
        <ele>1163</ele>
        <time>2021-08-13T09:15:59.220Z</time>
      </trkpt>
      <trkpt lat="46.8247" lon="8.412">
        <ele>1162</ele>
        <time>2021-08-13T09:16:00.220Z</time>
      </trkpt>
      <trkpt lat="46.82469" lon="8.41201">
        <ele>1162</ele>
        <time>2021-08-13T09:16:01.221Z</time>
      </trkpt>
      <trkpt lat="46.82465" lon="8.41203">
        <ele>1159</ele>
        <time>2021-08-13T09:16:02.221Z</time>
      </trkpt>
      <trkpt lat="46.82464" lon="8.41205">
        <ele>1159</ele>
        <time>2021-08-13T09:16:03.221Z</time>
      </trkpt>
      <trkpt lat="46.82464" lon="8.41206">
        <ele>1159</ele>
        <time>2021-08-13T09:16:04.220Z</time>
      </trkpt>
      <trkpt lat="46.82463" lon="8.41206">
        <ele>1158</ele>
        <time>2021-08-13T09:16:05.220Z</time>
      </trkpt>
      <trkpt lat="46.82463" lon="8.41206">
        <ele>1158</ele>
        <time>2021-08-13T09:16:06.221Z</time>
      </trkpt>
      <trkpt lat="46.82463" lon="8.41206">
        <ele>1158</ele>
        <time>2021-08-13T09:16:07.220Z</time>
      </trkpt>
      <trkpt lat="46.82462" lon="8.41207">
        <ele>1157</ele>
        <time>2021-08-13T09:16:08.221Z</time>
      </trkpt>
      <trkpt lat="46.82462" lon="8.41207">
        <ele>1157</ele>
        <time>2021-08-13T09:16:09.222Z</time>
      </trkpt>
      <trkpt lat="46.82462" lon="8.41208">
        <ele>1158</ele>
        <time>2021-08-13T09:16:10.221Z</time>
      </trkpt>
      <trkpt lat="46.82462" lon="8.41208">
        <ele>1158</ele>
        <time>2021-08-13T09:16:11.221Z</time>
      </trkpt>
      <trkpt lat="46.82459" lon="8.4121">
        <ele>1157</ele>
        <time>2021-08-13T09:16:12.222Z</time>
      </trkpt>
      <trkpt lat="46.82459" lon="8.41211">
        <ele>1157</ele>
        <time>2021-08-13T09:16:13.222Z</time>
      </trkpt>
      <trkpt lat="46.82459" lon="8.41212">
        <ele>1157</ele>
        <time>2021-08-13T09:16:14.222Z</time>
      </trkpt>
      <trkpt lat="46.82459" lon="8.41213">
        <ele>1157</ele>
        <time>2021-08-13T09:16:15.222Z</time>
      </trkpt>
      <trkpt lat="46.82459" lon="8.41214">
        <ele>1157</ele>
        <time>2021-08-13T09:16:16.222Z</time>
      </trkpt>
      <trkpt lat="46.82459" lon="8.41215">
        <ele>1156</ele>
        <time>2021-08-13T09:16:17.222Z</time>
      </trkpt>
      <trkpt lat="46.82459" lon="8.41215">
        <ele>1156</ele>
        <time>2021-08-13T09:16:18.222Z</time>
      </trkpt>
      <trkpt lat="46.8246" lon="8.41214">
        <ele>1153</ele>
        <time>2021-08-13T09:16:19.223Z</time>
      </trkpt>
      <trkpt lat="46.8246" lon="8.41215">
        <ele>1153</ele>
        <time>2021-08-13T09:16:20.223Z</time>
      </trkpt>
      <trkpt lat="46.82459" lon="8.41216">
        <ele>1153</ele>
        <time>2021-08-13T09:16:21.223Z</time>
      </trkpt>
      <trkpt lat="46.82459" lon="8.41217">
        <ele>1153</ele>
        <time>2021-08-13T09:16:22.223Z</time>
      </trkpt>
      <trkpt lat="46.82459" lon="8.41217">
        <ele>1152</ele>
        <time>2021-08-13T09:16:23.223Z</time>
      </trkpt>
      <trkpt lat="46.82458" lon="8.41217">
        <ele>1152</ele>
        <time>2021-08-13T09:16:24.223Z</time>
      </trkpt>
      <trkpt lat="46.82458" lon="8.41217">
        <ele>1152</ele>
        <time>2021-08-13T09:16:25.223Z</time>
      </trkpt>
      <trkpt lat="46.82457" lon="8.41218">
        <ele>1152</ele>
        <time>2021-08-13T09:16:26.222Z</time>
      </trkpt>
      <trkpt lat="46.82457" lon="8.41219">
        <ele>1151</ele>
        <time>2021-08-13T09:16:27.222Z</time>
      </trkpt>
      <trkpt lat="46.82457" lon="8.4122">
        <ele>1151</ele>
        <time>2021-08-13T09:16:28.223Z</time>
      </trkpt>
      <trkpt lat="46.82456" lon="8.41221">
        <ele>1151</ele>
        <time>2021-08-13T09:16:29.223Z</time>
      </trkpt>
      <trkpt lat="46.82456" lon="8.41222">
        <ele>1151</ele>
        <time>2021-08-13T09:16:30.222Z</time>
      </trkpt>
      <trkpt lat="46.82456" lon="8.41222">
        <ele>1151</ele>
        <time>2021-08-13T09:16:31.222Z</time>
      </trkpt>
      <trkpt lat="46.82453" lon="8.4123">
        <ele>1152</ele>
        <time>2021-08-13T09:16:32.223Z</time>
      </trkpt>
      <trkpt lat="46.82453" lon="8.41232">
        <ele>1152</ele>
        <time>2021-08-13T09:16:33.222Z</time>
      </trkpt>
      <trkpt lat="46.82453" lon="8.41234">
        <ele>1152</ele>
        <time>2021-08-13T09:16:34.222Z</time>
      </trkpt>
      <trkpt lat="46.82453" lon="8.41237">
        <ele>1152</ele>
        <time>2021-08-13T09:16:35.222Z</time>
      </trkpt>
      <trkpt lat="46.82452" lon="8.41239">
        <ele>1153</ele>
        <time>2021-08-13T09:16:36.223Z</time>
      </trkpt>
      <trkpt lat="46.82452" lon="8.41241">
        <ele>1152</ele>
        <time>2021-08-13T09:16:37.223Z</time>
      </trkpt>
      <trkpt lat="46.82452" lon="8.41241">
        <ele>1152</ele>
        <time>2021-08-13T09:16:38.223Z</time>
      </trkpt>
      <trkpt lat="46.82451" lon="8.41242">
        <ele>1151</ele>
        <time>2021-08-13T09:16:39.223Z</time>
      </trkpt>
      <trkpt lat="46.8245" lon="8.41242">
        <ele>1150</ele>
        <time>2021-08-13T09:16:40.222Z</time>
      </trkpt>
      <trkpt lat="46.8245" lon="8.41242">
        <ele>1150</ele>
        <time>2021-08-13T09:16:41.222Z</time>
      </trkpt>
      <trkpt lat="46.82449" lon="8.41242">
        <ele>1149</ele>
        <time>2021-08-13T09:16:42.223Z</time>
      </trkpt>
      <trkpt lat="46.82448" lon="8.41243">
        <ele>1148</ele>
        <time>2021-08-13T09:16:43.223Z</time>
      </trkpt>
      <trkpt lat="46.82448" lon="8.41243">
        <ele>1148</ele>
        <time>2021-08-13T09:16:44.223Z</time>
      </trkpt>
      <trkpt lat="46.82448" lon="8.41244">
        <ele>1148</ele>
        <time>2021-08-13T09:16:45.223Z</time>
      </trkpt>
      <trkpt lat="46.82448" lon="8.41245">
        <ele>1147</ele>
        <time>2021-08-13T09:16:46.222Z</time>
      </trkpt>
      <trkpt lat="46.82448" lon="8.41246">
        <ele>1147</ele>
        <time>2021-08-13T09:16:47.222Z</time>
      </trkpt>
      <trkpt lat="46.82447" lon="8.41248">
        <ele>1147</ele>
        <time>2021-08-13T09:16:48.223Z</time>
      </trkpt>
      <trkpt lat="46.82447" lon="8.41249">
        <ele>1147</ele>
        <time>2021-08-13T09:16:49.222Z</time>
      </trkpt>
      <trkpt lat="46.82446" lon="8.4125">
        <ele>1147</ele>
        <time>2021-08-13T09:16:50.223Z</time>
      </trkpt>
      <trkpt lat="46.82446" lon="8.41251">
        <ele>1147</ele>
        <time>2021-08-13T09:16:51.223Z</time>
      </trkpt>
      <trkpt lat="46.82445" lon="8.41252">
        <ele>1147</ele>
        <time>2021-08-13T09:16:52.223Z</time>
      </trkpt>
      <trkpt lat="46.82445" lon="8.41253">
        <ele>1146</ele>
        <time>2021-08-13T09:16:53.222Z</time>
      </trkpt>
      <trkpt lat="46.82445" lon="8.41255">
        <ele>1145</ele>
        <time>2021-08-13T09:16:54.224Z</time>
      </trkpt>
      <trkpt lat="46.82445" lon="8.41256">
        <ele>1145</ele>
        <time>2021-08-13T09:16:55.224Z</time>
      </trkpt>
      <trkpt lat="46.82445" lon="8.41257">
        <ele>1144</ele>
        <time>2021-08-13T09:16:56.223Z</time>
      </trkpt>
      <trkpt lat="46.82444" lon="8.41259">
        <ele>1144</ele>
        <time>2021-08-13T09:16:57.224Z</time>
      </trkpt>
      <trkpt lat="46.82444" lon="8.4126">
        <ele>1143</ele>
        <time>2021-08-13T09:16:58.224Z</time>
      </trkpt>
      <trkpt lat="46.82444" lon="8.41262">
        <ele>1143</ele>
        <time>2021-08-13T09:16:59.224Z</time>
      </trkpt>
      <trkpt lat="46.82443" lon="8.41264">
        <ele>1143</ele>
        <time>2021-08-13T09:17:00.223Z</time>
      </trkpt>
      <trkpt lat="46.82443" lon="8.41265">
        <ele>1143</ele>
        <time>2021-08-13T09:17:01.224Z</time>
      </trkpt>
      <trkpt lat="46.82443" lon="8.41267">
        <ele>1142</ele>
        <time>2021-08-13T09:17:02.223Z</time>
      </trkpt>
      <trkpt lat="46.82443" lon="8.41268">
        <ele>1141</ele>
        <time>2021-08-13T09:17:03.224Z</time>
      </trkpt>
      <trkpt lat="46.82443" lon="8.4127">
        <ele>1141</ele>
        <time>2021-08-13T09:17:04.224Z</time>
      </trkpt>
      <trkpt lat="46.82443" lon="8.41272">
        <ele>1140</ele>
        <time>2021-08-13T09:17:05.224Z</time>
      </trkpt>
      <trkpt lat="46.82443" lon="8.41274">
        <ele>1140</ele>
        <time>2021-08-13T09:17:06.223Z</time>
      </trkpt>
      <trkpt lat="46.82444" lon="8.41276">
        <ele>1139</ele>
        <time>2021-08-13T09:17:07.223Z</time>
      </trkpt>
      <trkpt lat="46.82443" lon="8.41278">
        <ele>1139</ele>
        <time>2021-08-13T09:17:08.224Z</time>
      </trkpt>
      <trkpt lat="46.82443" lon="8.41279">
        <ele>1139</ele>
        <time>2021-08-13T09:17:09.224Z</time>
      </trkpt>
      <trkpt lat="46.82443" lon="8.41281">
        <ele>1138</ele>
        <time>2021-08-13T09:17:10.223Z</time>
      </trkpt>
      <trkpt lat="46.82443" lon="8.41284">
        <ele>1138</ele>
        <time>2021-08-13T09:17:11.224Z</time>
      </trkpt>
      <trkpt lat="46.82442" lon="8.41285">
        <ele>1138</ele>
        <time>2021-08-13T09:17:12.224Z</time>
      </trkpt>
      <trkpt lat="46.82442" lon="8.41287">
        <ele>1138</ele>
        <time>2021-08-13T09:17:13.223Z</time>
      </trkpt>
      <trkpt lat="46.82442" lon="8.4129">
        <ele>1137</ele>
        <time>2021-08-13T09:17:14.223Z</time>
      </trkpt>
      <trkpt lat="46.82442" lon="8.41291">
        <ele>1137</ele>
        <time>2021-08-13T09:17:15.223Z</time>
      </trkpt>
      <trkpt lat="46.82442" lon="8.41292">
        <ele>1136</ele>
        <time>2021-08-13T09:17:16.224Z</time>
      </trkpt>
      <trkpt lat="46.82442" lon="8.41293">
        <ele>1136</ele>
        <time>2021-08-13T09:17:17.224Z</time>
      </trkpt>
      <trkpt lat="46.82441" lon="8.41294">
        <ele>1135</ele>
        <time>2021-08-13T09:17:18.224Z</time>
      </trkpt>
      <trkpt lat="46.82441" lon="8.41295">
        <ele>1134</ele>
        <time>2021-08-13T09:17:19.223Z</time>
      </trkpt>
      <trkpt lat="46.82441" lon="8.41296">
        <ele>1134</ele>
        <time>2021-08-13T09:17:20.224Z</time>
      </trkpt>
      <trkpt lat="46.8244" lon="8.41297">
        <ele>1133</ele>
        <time>2021-08-13T09:17:21.224Z</time>
      </trkpt>
      <trkpt lat="46.8244" lon="8.41298">
        <ele>1133</ele>
        <time>2021-08-13T09:17:22.224Z</time>
      </trkpt>
      <trkpt lat="46.82439" lon="8.41299">
        <ele>1132</ele>
        <time>2021-08-13T09:17:23.223Z</time>
      </trkpt>
      <trkpt lat="46.82439" lon="8.413">
        <ele>1132</ele>
        <time>2021-08-13T09:17:24.224Z</time>
      </trkpt>
      <trkpt lat="46.82439" lon="8.41301">
        <ele>1132</ele>
        <time>2021-08-13T09:17:25.224Z</time>
      </trkpt>
      <trkpt lat="46.82439" lon="8.41302">
        <ele>1131</ele>
        <time>2021-08-13T09:17:26.224Z</time>
      </trkpt>
      <trkpt lat="46.82439" lon="8.41304">
        <ele>1130</ele>
        <time>2021-08-13T09:17:27.224Z</time>
      </trkpt>
      <trkpt lat="46.82438" lon="8.41305">
        <ele>1130</ele>
        <time>2021-08-13T09:17:28.224Z</time>
      </trkpt>
      <trkpt lat="46.82438" lon="8.41307">
        <ele>1130</ele>
        <time>2021-08-13T09:17:29.224Z</time>
      </trkpt>
      <trkpt lat="46.82437" lon="8.41309">
        <ele>1130</ele>
        <time>2021-08-13T09:17:30.224Z</time>
      </trkpt>
      <trkpt lat="46.82437" lon="8.4131">
        <ele>1130</ele>
        <time>2021-08-13T09:17:31.224Z</time>
      </trkpt>
      <trkpt lat="46.82437" lon="8.41311">
        <ele>1130</ele>
        <time>2021-08-13T09:17:32.224Z</time>
      </trkpt>
      <trkpt lat="46.82437" lon="8.41312">
        <ele>1131</ele>
        <time>2021-08-13T09:17:33.223Z</time>
      </trkpt>
      <trkpt lat="46.82436" lon="8.41314">
        <ele>1131</ele>
        <time>2021-08-13T09:17:34.224Z</time>
      </trkpt>
      <trkpt lat="46.82435" lon="8.41315">
        <ele>1131</ele>
        <time>2021-08-13T09:17:35.224Z</time>
      </trkpt>
      <trkpt lat="46.82435" lon="8.41317">
        <ele>1131</ele>
        <time>2021-08-13T09:17:36.223Z</time>
      </trkpt>
      <trkpt lat="46.82434" lon="8.41318">
        <ele>1131</ele>
        <time>2021-08-13T09:17:37.223Z</time>
      </trkpt>
      <trkpt lat="46.82434" lon="8.41319">
        <ele>1131</ele>
        <time>2021-08-13T09:17:38.224Z</time>
      </trkpt>
      <trkpt lat="46.82434" lon="8.4132">
        <ele>1131</ele>
        <time>2021-08-13T09:17:39.224Z</time>
      </trkpt>
      <trkpt lat="46.82434" lon="8.41321">
        <ele>1131</ele>
        <time>2021-08-13T09:17:40.223Z</time>
      </trkpt>
      <trkpt lat="46.82434" lon="8.41322">
        <ele>1131</ele>
        <time>2021-08-13T09:17:41.223Z</time>
      </trkpt>
      <trkpt lat="46.82433" lon="8.41324">
        <ele>1131</ele>
        <time>2021-08-13T09:17:42.223Z</time>
      </trkpt>
      <trkpt lat="46.82433" lon="8.41326">
        <ele>1131</ele>
        <time>2021-08-13T09:17:43.223Z</time>
      </trkpt>
      <trkpt lat="46.82433" lon="8.41327">
        <ele>1131</ele>
        <time>2021-08-13T09:17:44.223Z</time>
      </trkpt>
      <trkpt lat="46.82433" lon="8.41328">
        <ele>1131</ele>
        <time>2021-08-13T09:17:45.223Z</time>
      </trkpt>
      <trkpt lat="46.82433" lon="8.41328">
        <ele>1131</ele>
        <time>2021-08-13T09:17:46.223Z</time>
      </trkpt>
      <trkpt lat="46.82434" lon="8.41329">
        <ele>1131</ele>
        <time>2021-08-13T09:17:47.224Z</time>
      </trkpt>
      <trkpt lat="46.82434" lon="8.41329">
        <ele>1131</ele>
        <time>2021-08-13T09:17:48.223Z</time>
      </trkpt>
      <trkpt lat="46.82434" lon="8.41333">
        <ele>1135</ele>
        <time>2021-08-13T09:17:49.225Z</time>
      </trkpt>
      <trkpt lat="46.82434" lon="8.41334">
        <ele>1136</ele>
        <time>2021-08-13T09:17:50.224Z</time>
      </trkpt>
      <trkpt lat="46.82435" lon="8.41336">
        <ele>1136</ele>
        <time>2021-08-13T09:17:51.224Z</time>
      </trkpt>
      <trkpt lat="46.82435" lon="8.41337">
        <ele>1137</ele>
        <time>2021-08-13T09:17:52.225Z</time>
      </trkpt>
      <trkpt lat="46.82435" lon="8.41339">
        <ele>1137</ele>
        <time>2021-08-13T09:17:53.225Z</time>
      </trkpt>
      <trkpt lat="46.82434" lon="8.41341">
        <ele>1137</ele>
        <time>2021-08-13T09:17:54.225Z</time>
      </trkpt>
      <trkpt lat="46.82434" lon="8.41342">
        <ele>1137</ele>
        <time>2021-08-13T09:17:55.224Z</time>
      </trkpt>
      <trkpt lat="46.82434" lon="8.41343">
        <ele>1137</ele>
        <time>2021-08-13T09:17:56.224Z</time>
      </trkpt>
      <trkpt lat="46.82435" lon="8.41343">
        <ele>1137</ele>
        <time>2021-08-13T09:17:57.225Z</time>
      </trkpt>
      <trkpt lat="46.82434" lon="8.41344">
        <ele>1137</ele>
        <time>2021-08-13T09:17:58.224Z</time>
      </trkpt>
      <trkpt lat="46.82434" lon="8.41346">
        <ele>1136</ele>
        <time>2021-08-13T09:17:59.225Z</time>
      </trkpt>
      <trkpt lat="46.82434" lon="8.41347">
        <ele>1136</ele>
        <time>2021-08-13T09:18:00.225Z</time>
      </trkpt>
      <trkpt lat="46.82433" lon="8.41348">
        <ele>1136</ele>
        <time>2021-08-13T09:18:01.225Z</time>
      </trkpt>
      <trkpt lat="46.82432" lon="8.41349">
        <ele>1135</ele>
        <time>2021-08-13T09:18:02.224Z</time>
      </trkpt>
      <trkpt lat="46.82432" lon="8.4135">
        <ele>1135</ele>
        <time>2021-08-13T09:18:03.225Z</time>
      </trkpt>
      <trkpt lat="46.82432" lon="8.41351">
        <ele>1134</ele>
        <time>2021-08-13T09:18:04.225Z</time>
      </trkpt>
      <trkpt lat="46.82432" lon="8.41352">
        <ele>1135</ele>
        <time>2021-08-13T09:18:05.225Z</time>
      </trkpt>
      <trkpt lat="46.82433" lon="8.41352">
        <ele>1135</ele>
        <time>2021-08-13T09:18:06.225Z</time>
      </trkpt>
      <trkpt lat="46.82433" lon="8.41353">
        <ele>1135</ele>
        <time>2021-08-13T09:18:07.224Z</time>
      </trkpt>
      <trkpt lat="46.82433" lon="8.41353">
        <ele>1135</ele>
        <time>2021-08-13T09:18:08.225Z</time>
      </trkpt>
      <trkpt lat="46.82434" lon="8.41354">
        <ele>1135</ele>
        <time>2021-08-13T09:18:09.225Z</time>
      </trkpt>
      <trkpt lat="46.82434" lon="8.41355">
        <ele>1134</ele>
        <time>2021-08-13T09:18:10.225Z</time>
      </trkpt>
      <trkpt lat="46.82434" lon="8.41357">
        <ele>1134</ele>
        <time>2021-08-13T09:18:11.225Z</time>
      </trkpt>
      <trkpt lat="46.82433" lon="8.41358">
        <ele>1133</ele>
        <time>2021-08-13T09:18:12.224Z</time>
      </trkpt>
      <trkpt lat="46.82433" lon="8.41359">
        <ele>1133</ele>
        <time>2021-08-13T09:18:13.225Z</time>
      </trkpt>
      <trkpt lat="46.82433" lon="8.4136">
        <ele>1132</ele>
        <time>2021-08-13T09:18:14.225Z</time>
      </trkpt>
      <trkpt lat="46.82433" lon="8.41361">
        <ele>1132</ele>
        <time>2021-08-13T09:18:15.225Z</time>
      </trkpt>
      <trkpt lat="46.82433" lon="8.41362">
        <ele>1132</ele>
        <time>2021-08-13T09:18:16.224Z</time>
      </trkpt>
      <trkpt lat="46.82432" lon="8.41363">
        <ele>1132</ele>
        <time>2021-08-13T09:18:17.224Z</time>
      </trkpt>
      <trkpt lat="46.82431" lon="8.41365">
        <ele>1133</ele>
        <time>2021-08-13T09:18:18.225Z</time>
      </trkpt>
      <trkpt lat="46.82431" lon="8.41366">
        <ele>1133</ele>
        <time>2021-08-13T09:18:19.224Z</time>
      </trkpt>
      <trkpt lat="46.82431" lon="8.41368">
        <ele>1133</ele>
        <time>2021-08-13T09:18:20.224Z</time>
      </trkpt>
      <trkpt lat="46.8243" lon="8.41368">
        <ele>1133</ele>
        <time>2021-08-13T09:18:21.224Z</time>
      </trkpt>
      <trkpt lat="46.8243" lon="8.41369">
        <ele>1133</ele>
        <time>2021-08-13T09:18:22.224Z</time>
      </trkpt>
      <trkpt lat="46.82429" lon="8.41369">
        <ele>1133</ele>
        <time>2021-08-13T09:18:23.224Z</time>
      </trkpt>
      <trkpt lat="46.82428" lon="8.41368">
        <ele>1132</ele>
        <time>2021-08-13T09:18:24.224Z</time>
      </trkpt>
      <trkpt lat="46.82427" lon="8.41367">
        <ele>1132</ele>
        <time>2021-08-13T09:18:25.225Z</time>
      </trkpt>
      <trkpt lat="46.82427" lon="8.41366">
        <ele>1131</ele>
        <time>2021-08-13T09:18:26.224Z</time>
      </trkpt>
      <trkpt lat="46.82426" lon="8.41365">
        <ele>1131</ele>
        <time>2021-08-13T09:18:27.224Z</time>
      </trkpt>
      <trkpt lat="46.82426" lon="8.41364">
        <ele>1130</ele>
        <time>2021-08-13T09:18:28.224Z</time>
      </trkpt>
      <trkpt lat="46.82426" lon="8.41364">
        <ele>1129</ele>
        <time>2021-08-13T09:18:29.225Z</time>
      </trkpt>
      <trkpt lat="46.82425" lon="8.41364">
        <ele>1129</ele>
        <time>2021-08-13T09:18:30.224Z</time>
      </trkpt>
      <trkpt lat="46.82425" lon="8.41364">
        <ele>1129</ele>
        <time>2021-08-13T09:18:31.224Z</time>
      </trkpt>
      <trkpt lat="46.82425" lon="8.41364">
        <ele>1128</ele>
        <time>2021-08-13T09:18:32.224Z</time>
      </trkpt>
      <trkpt lat="46.82424" lon="8.41365">
        <ele>1128</ele>
        <time>2021-08-13T09:18:33.224Z</time>
      </trkpt>
      <trkpt lat="46.82422" lon="8.41365">
        <ele>1128</ele>
        <time>2021-08-13T09:18:34.225Z</time>
      </trkpt>
      <trkpt lat="46.82421" lon="8.41365">
        <ele>1128</ele>
        <time>2021-08-13T09:18:35.225Z</time>
      </trkpt>
      <trkpt lat="46.8242" lon="8.41365">
        <ele>1128</ele>
        <time>2021-08-13T09:18:36.225Z</time>
      </trkpt>
      <trkpt lat="46.8242" lon="8.41365">
        <ele>1128</ele>
        <time>2021-08-13T09:18:37.224Z</time>
      </trkpt>
      <trkpt lat="46.82419" lon="8.41366">
        <ele>1128</ele>
        <time>2021-08-13T09:18:38.224Z</time>
      </trkpt>
      <trkpt lat="46.82417" lon="8.41366">
        <ele>1129</ele>
        <time>2021-08-13T09:18:39.224Z</time>
      </trkpt>
      <trkpt lat="46.82416" lon="8.41366">
        <ele>1129</ele>
        <time>2021-08-13T09:18:40.225Z</time>
      </trkpt>
      <trkpt lat="46.82415" lon="8.41366">
        <ele>1129</ele>
        <time>2021-08-13T09:18:41.224Z</time>
      </trkpt>
      <trkpt lat="46.82414" lon="8.41367">
        <ele>1129</ele>
        <time>2021-08-13T09:18:42.225Z</time>
      </trkpt>
      <trkpt lat="46.82413" lon="8.41367">
        <ele>1129</ele>
        <time>2021-08-13T09:18:43.225Z</time>
      </trkpt>
      <trkpt lat="46.82412" lon="8.41367">
        <ele>1128</ele>
        <time>2021-08-13T09:18:44.225Z</time>
      </trkpt>
      <trkpt lat="46.82411" lon="8.41367">
        <ele>1127</ele>
        <time>2021-08-13T09:18:45.225Z</time>
      </trkpt>
      <trkpt lat="46.8241" lon="8.41367">
        <ele>1127</ele>
        <time>2021-08-13T09:18:46.224Z</time>
      </trkpt>
      <trkpt lat="46.82409" lon="8.41367">
        <ele>1127</ele>
        <time>2021-08-13T09:18:47.225Z</time>
      </trkpt>
      <trkpt lat="46.82408" lon="8.41366">
        <ele>1127</ele>
        <time>2021-08-13T09:18:48.225Z</time>
      </trkpt>
      <trkpt lat="46.82407" lon="8.41366">
        <ele>1126</ele>
        <time>2021-08-13T09:18:49.225Z</time>
      </trkpt>
      <trkpt lat="46.82406" lon="8.41366">
        <ele>1126</ele>
        <time>2021-08-13T09:18:50.224Z</time>
      </trkpt>
      <trkpt lat="46.82406" lon="8.41366">
        <ele>1126</ele>
        <time>2021-08-13T09:18:51.224Z</time>
      </trkpt>
      <trkpt lat="46.82406" lon="8.41366">
        <ele>1125</ele>
        <time>2021-08-13T09:18:52.225Z</time>
      </trkpt>
      <trkpt lat="46.82406" lon="8.41366">
        <ele>1124</ele>
        <time>2021-08-13T09:18:53.225Z</time>
      </trkpt>
      <trkpt lat="46.82407" lon="8.41365">
        <ele>1123</ele>
        <time>2021-08-13T09:18:54.225Z</time>
      </trkpt>
      <trkpt lat="46.82407" lon="8.41364">
        <ele>1123</ele>
        <time>2021-08-13T09:18:55.225Z</time>
      </trkpt>
      <trkpt lat="46.82407" lon="8.41364">
        <ele>1122</ele>
        <time>2021-08-13T09:18:56.225Z</time>
      </trkpt>
      <trkpt lat="46.82408" lon="8.41363">
        <ele>1122</ele>
        <time>2021-08-13T09:18:57.225Z</time>
      </trkpt>
      <trkpt lat="46.82408" lon="8.41361">
        <ele>1122</ele>
        <time>2021-08-13T09:18:58.224Z</time>
      </trkpt>
      <trkpt lat="46.82408" lon="8.4136">
        <ele>1122</ele>
        <time>2021-08-13T09:18:59.224Z</time>
      </trkpt>
      <trkpt lat="46.82408" lon="8.41359">
        <ele>1122</ele>
        <time>2021-08-13T09:19:00.225Z</time>
      </trkpt>
      <trkpt lat="46.82408" lon="8.41357">
        <ele>1122</ele>
        <time>2021-08-13T09:19:01.225Z</time>
      </trkpt>
      <trkpt lat="46.82408" lon="8.41356">
        <ele>1122</ele>
        <time>2021-08-13T09:19:02.224Z</time>
      </trkpt>
      <trkpt lat="46.82408" lon="8.41355">
        <ele>1122</ele>
        <time>2021-08-13T09:19:03.224Z</time>
      </trkpt>
      <trkpt lat="46.82407" lon="8.41354">
        <ele>1123</ele>
        <time>2021-08-13T09:19:04.225Z</time>
      </trkpt>
      <trkpt lat="46.82405" lon="8.41353">
        <ele>1123</ele>
        <time>2021-08-13T09:19:05.225Z</time>
      </trkpt>
      <trkpt lat="46.82404" lon="8.41352">
        <ele>1124</ele>
        <time>2021-08-13T09:19:06.225Z</time>
      </trkpt>
      <trkpt lat="46.82402" lon="8.41351">
        <ele>1124</ele>
        <time>2021-08-13T09:19:07.225Z</time>
      </trkpt>
      <trkpt lat="46.82401" lon="8.41351">
        <ele>1125</ele>
        <time>2021-08-13T09:19:08.225Z</time>
      </trkpt>
      <trkpt lat="46.824" lon="8.4135">
        <ele>1126</ele>
        <time>2021-08-13T09:19:09.225Z</time>
      </trkpt>
      <trkpt lat="46.82399" lon="8.41348">
        <ele>1126</ele>
        <time>2021-08-13T09:19:10.225Z</time>
      </trkpt>
      <trkpt lat="46.82397" lon="8.41347">
        <ele>1127</ele>
        <time>2021-08-13T09:19:11.224Z</time>
      </trkpt>
      <trkpt lat="46.82396" lon="8.41345">
        <ele>1128</ele>
        <time>2021-08-13T09:19:12.225Z</time>
      </trkpt>
      <trkpt lat="46.82395" lon="8.41344">
        <ele>1128</ele>
        <time>2021-08-13T09:19:13.224Z</time>
      </trkpt>
      <trkpt lat="46.82395" lon="8.41343">
        <ele>1129</ele>
        <time>2021-08-13T09:19:14.225Z</time>
      </trkpt>
      <trkpt lat="46.82395" lon="8.41341">
        <ele>1129</ele>
        <time>2021-08-13T09:19:15.225Z</time>
      </trkpt>
      <trkpt lat="46.82396" lon="8.4134">
        <ele>1129</ele>
        <time>2021-08-13T09:19:16.224Z</time>
      </trkpt>
      <trkpt lat="46.82397" lon="8.41339">
        <ele>1130</ele>
        <time>2021-08-13T09:19:17.225Z</time>
      </trkpt>
      <trkpt lat="46.82397" lon="8.41338">
        <ele>1130</ele>
        <time>2021-08-13T09:19:18.225Z</time>
      </trkpt>
      <trkpt lat="46.82398" lon="8.41338">
        <ele>1129</ele>
        <time>2021-08-13T09:19:19.224Z</time>
      </trkpt>
      <trkpt lat="46.82398" lon="8.41337">
        <ele>1129</ele>
        <time>2021-08-13T09:19:20.225Z</time>
      </trkpt>
      <trkpt lat="46.82398" lon="8.41336">
        <ele>1128</ele>
        <time>2021-08-13T09:19:21.225Z</time>
      </trkpt>
      <trkpt lat="46.82398" lon="8.41335">
        <ele>1128</ele>
        <time>2021-08-13T09:19:22.224Z</time>
      </trkpt>
      <trkpt lat="46.82397" lon="8.41334">
        <ele>1128</ele>
        <time>2021-08-13T09:19:23.225Z</time>
      </trkpt>
      <trkpt lat="46.82396" lon="8.41334">
        <ele>1128</ele>
        <time>2021-08-13T09:19:24.224Z</time>
      </trkpt>
      <trkpt lat="46.82395" lon="8.41334">
        <ele>1127</ele>
        <time>2021-08-13T09:19:25.225Z</time>
      </trkpt>
      <trkpt lat="46.82395" lon="8.41335">
        <ele>1127</ele>
        <time>2021-08-13T09:19:26.225Z</time>
      </trkpt>
      <trkpt lat="46.82394" lon="8.41336">
        <ele>1126</ele>
        <time>2021-08-13T09:19:27.224Z</time>
      </trkpt>
      <trkpt lat="46.82393" lon="8.41336">
        <ele>1126</ele>
        <time>2021-08-13T09:19:28.225Z</time>
      </trkpt>
      <trkpt lat="46.82393" lon="8.41337">
        <ele>1126</ele>
        <time>2021-08-13T09:19:29.224Z</time>
      </trkpt>
      <trkpt lat="46.82393" lon="8.41338">
        <ele>1125</ele>
        <time>2021-08-13T09:19:30.225Z</time>
      </trkpt>
      <trkpt lat="46.82393" lon="8.41339">
        <ele>1125</ele>
        <time>2021-08-13T09:19:31.224Z</time>
      </trkpt>
      <trkpt lat="46.82391" lon="8.41341">
        <ele>1122</ele>
        <time>2021-08-13T09:19:32.225Z</time>
      </trkpt>
      <trkpt lat="46.82391" lon="8.41341">
        <ele>1121</ele>
        <time>2021-08-13T09:19:33.225Z</time>
      </trkpt>
      <trkpt lat="46.82391" lon="8.4134">
        <ele>1120</ele>
        <time>2021-08-13T09:19:34.226Z</time>
      </trkpt>
      <trkpt lat="46.82392" lon="8.41339">
        <ele>1120</ele>
        <time>2021-08-13T09:19:35.226Z</time>
      </trkpt>
      <trkpt lat="46.82391" lon="8.41338">
        <ele>1120</ele>
        <time>2021-08-13T09:19:36.225Z</time>
      </trkpt>
      <trkpt lat="46.8239" lon="8.41336">
        <ele>1119</ele>
        <time>2021-08-13T09:19:37.226Z</time>
      </trkpt>
      <trkpt lat="46.82388" lon="8.41335">
        <ele>1119</ele>
        <time>2021-08-13T09:19:38.225Z</time>
      </trkpt>
      <trkpt lat="46.82387" lon="8.41333">
        <ele>1120</ele>
        <time>2021-08-13T09:19:39.226Z</time>
      </trkpt>
      <trkpt lat="46.82387" lon="8.41331">
        <ele>1120</ele>
        <time>2021-08-13T09:19:40.226Z</time>
      </trkpt>
      <trkpt lat="46.82387" lon="8.4133">
        <ele>1120</ele>
        <time>2021-08-13T09:19:41.226Z</time>
      </trkpt>
      <trkpt lat="46.82386" lon="8.41329">
        <ele>1120</ele>
        <time>2021-08-13T09:19:42.226Z</time>
      </trkpt>
      <trkpt lat="46.82386" lon="8.41328">
        <ele>1120</ele>
        <time>2021-08-13T09:19:43.225Z</time>
      </trkpt>
      <trkpt lat="46.82385" lon="8.41327">
        <ele>1120</ele>
        <time>2021-08-13T09:19:44.226Z</time>
      </trkpt>
      <trkpt lat="46.82385" lon="8.41326">
        <ele>1120</ele>
        <time>2021-08-13T09:19:45.226Z</time>
      </trkpt>
      <trkpt lat="46.82385" lon="8.41325">
        <ele>1120</ele>
        <time>2021-08-13T09:19:46.226Z</time>
      </trkpt>
      <trkpt lat="46.82384" lon="8.41323">
        <ele>1119</ele>
        <time>2021-08-13T09:19:47.226Z</time>
      </trkpt>
      <trkpt lat="46.82384" lon="8.41323">
        <ele>1119</ele>
        <time>2021-08-13T09:19:48.226Z</time>
      </trkpt>
      <trkpt lat="46.82383" lon="8.41322">
        <ele>1119</ele>
        <time>2021-08-13T09:19:49.226Z</time>
      </trkpt>
      <trkpt lat="46.82382" lon="8.41321">
        <ele>1119</ele>
        <time>2021-08-13T09:19:50.226Z</time>
      </trkpt>
      <trkpt lat="46.82382" lon="8.4132">
        <ele>1119</ele>
        <time>2021-08-13T09:19:51.226Z</time>
      </trkpt>
      <trkpt lat="46.82381" lon="8.41319">
        <ele>1119</ele>
        <time>2021-08-13T09:19:52.226Z</time>
      </trkpt>
      <trkpt lat="46.82381" lon="8.41318">
        <ele>1118</ele>
        <time>2021-08-13T09:19:53.226Z</time>
      </trkpt>
      <trkpt lat="46.82381" lon="8.41318">
        <ele>1117</ele>
        <time>2021-08-13T09:19:54.226Z</time>
      </trkpt>
      <trkpt lat="46.8238" lon="8.41318">
        <ele>1117</ele>
        <time>2021-08-13T09:19:55.226Z</time>
      </trkpt>
      <trkpt lat="46.8238" lon="8.41318">
        <ele>1117</ele>
        <time>2021-08-13T09:19:56.225Z</time>
      </trkpt>
      <trkpt lat="46.8238" lon="8.41318">
        <ele>1116</ele>
        <time>2021-08-13T09:19:57.226Z</time>
      </trkpt>
      <trkpt lat="46.8238" lon="8.41317">
        <ele>1115</ele>
        <time>2021-08-13T09:19:58.226Z</time>
      </trkpt>
      <trkpt lat="46.82379" lon="8.41316">
        <ele>1115</ele>
        <time>2021-08-13T09:19:59.227Z</time>
      </trkpt>
      <trkpt lat="46.82379" lon="8.41314">
        <ele>1115</ele>
        <time>2021-08-13T09:20:00.226Z</time>
      </trkpt>
      <trkpt lat="46.82379" lon="8.41313">
        <ele>1115</ele>
        <time>2021-08-13T09:20:01.226Z</time>
      </trkpt>
      <trkpt lat="46.82379" lon="8.41313">
        <ele>1115</ele>
        <time>2021-08-13T09:20:02.226Z</time>
      </trkpt>
      <trkpt lat="46.82379" lon="8.41313">
        <ele>1115</ele>
        <time>2021-08-13T09:20:03.226Z</time>
      </trkpt>
      <trkpt lat="46.82379" lon="8.41314">
        <ele>1115</ele>
        <time>2021-08-13T09:20:04.227Z</time>
      </trkpt>
      <trkpt lat="46.82379" lon="8.41314">
        <ele>1114</ele>
        <time>2021-08-13T09:20:05.226Z</time>
      </trkpt>
      <trkpt lat="46.82378" lon="8.41314">
        <ele>1114</ele>
        <time>2021-08-13T09:20:06.226Z</time>
      </trkpt>
      <trkpt lat="46.82378" lon="8.41313">
        <ele>1113</ele>
        <time>2021-08-13T09:20:07.226Z</time>
      </trkpt>
      <trkpt lat="46.82378" lon="8.41313">
        <ele>1113</ele>
        <time>2021-08-13T09:20:08.226Z</time>
      </trkpt>
      <trkpt lat="46.82378" lon="8.41314">
        <ele>1112</ele>
        <time>2021-08-13T09:20:09.227Z</time>
      </trkpt>
      <trkpt lat="46.82378" lon="8.41315">
        <ele>1111</ele>
        <time>2021-08-13T09:20:10.228Z</time>
      </trkpt>
      <trkpt lat="46.82379" lon="8.41315">
        <ele>1111</ele>
        <time>2021-08-13T09:20:11.228Z</time>
      </trkpt>
      <trkpt lat="46.82379" lon="8.41314">
        <ele>1111</ele>
        <time>2021-08-13T09:20:12.229Z</time>
      </trkpt>
      <trkpt lat="46.82379" lon="8.41313">
        <ele>1111</ele>
        <time>2021-08-13T09:20:13.228Z</time>
      </trkpt>
      <trkpt lat="46.82379" lon="8.41312">
        <ele>1111</ele>
        <time>2021-08-13T09:20:14.228Z</time>
      </trkpt>
      <trkpt lat="46.82378" lon="8.4131">
        <ele>1111</ele>
        <time>2021-08-13T09:20:15.229Z</time>
      </trkpt>
      <trkpt lat="46.82377" lon="8.4131">
        <ele>1111</ele>
        <time>2021-08-13T09:20:16.229Z</time>
      </trkpt>
      <trkpt lat="46.82376" lon="8.41309">
        <ele>1111</ele>
        <time>2021-08-13T09:20:17.228Z</time>
      </trkpt>
      <trkpt lat="46.82376" lon="8.41309">
        <ele>1111</ele>
        <time>2021-08-13T09:20:18.228Z</time>
      </trkpt>
      <trkpt lat="46.82375" lon="8.41308">
        <ele>1111</ele>
        <time>2021-08-13T09:20:19.228Z</time>
      </trkpt>
      <trkpt lat="46.82375" lon="8.41307">
        <ele>1111</ele>
        <time>2021-08-13T09:20:20.228Z</time>
      </trkpt>
      <trkpt lat="46.82374" lon="8.41307">
        <ele>1111</ele>
        <time>2021-08-13T09:20:21.229Z</time>
      </trkpt>
      <trkpt lat="46.82374" lon="8.41306">
        <ele>1110</ele>
        <time>2021-08-13T09:20:22.228Z</time>
      </trkpt>
      <trkpt lat="46.82373" lon="8.41306">
        <ele>1110</ele>
        <time>2021-08-13T09:20:23.229Z</time>
      </trkpt>
      <trkpt lat="46.82372" lon="8.41305">
        <ele>1110</ele>
        <time>2021-08-13T09:20:24.228Z</time>
      </trkpt>
      <trkpt lat="46.82372" lon="8.41304">
        <ele>1110</ele>
        <time>2021-08-13T09:20:25.228Z</time>
      </trkpt>
      <trkpt lat="46.82371" lon="8.41303">
        <ele>1109</ele>
        <time>2021-08-13T09:20:26.229Z</time>
      </trkpt>
      <trkpt lat="46.82371" lon="8.41302">
        <ele>1109</ele>
        <time>2021-08-13T09:20:27.228Z</time>
      </trkpt>
      <trkpt lat="46.8237" lon="8.413">
        <ele>1108</ele>
        <time>2021-08-13T09:20:28.229Z</time>
      </trkpt>
      <trkpt lat="46.8237" lon="8.41299">
        <ele>1108</ele>
        <time>2021-08-13T09:20:29.228Z</time>
      </trkpt>
      <trkpt lat="46.82369" lon="8.41297">
        <ele>1107</ele>
        <time>2021-08-13T09:20:30.229Z</time>
      </trkpt>
      <trkpt lat="46.82368" lon="8.41297">
        <ele>1107</ele>
        <time>2021-08-13T09:20:31.228Z</time>
      </trkpt>
      <trkpt lat="46.82368" lon="8.41296">
        <ele>1107</ele>
        <time>2021-08-13T09:20:32.229Z</time>
      </trkpt>
      <trkpt lat="46.82368" lon="8.41296">
        <ele>1106</ele>
        <time>2021-08-13T09:20:33.229Z</time>
      </trkpt>
      <trkpt lat="46.82367" lon="8.41295">
        <ele>1106</ele>
        <time>2021-08-13T09:20:34.228Z</time>
      </trkpt>
      <trkpt lat="46.82366" lon="8.41294">
        <ele>1106</ele>
        <time>2021-08-13T09:20:35.229Z</time>
      </trkpt>
      <trkpt lat="46.82366" lon="8.41294">
        <ele>1105</ele>
        <time>2021-08-13T09:20:36.228Z</time>
      </trkpt>
      <trkpt lat="46.82366" lon="8.41293">
        <ele>1105</ele>
        <time>2021-08-13T09:20:37.229Z</time>
      </trkpt>
      <trkpt lat="46.82365" lon="8.41293">
        <ele>1104</ele>
        <time>2021-08-13T09:20:38.229Z</time>
      </trkpt>
      <trkpt lat="46.82364" lon="8.41292">
        <ele>1104</ele>
        <time>2021-08-13T09:20:39.229Z</time>
      </trkpt>
      <trkpt lat="46.82363" lon="8.41292">
        <ele>1104</ele>
        <time>2021-08-13T09:20:40.229Z</time>
      </trkpt>
      <trkpt lat="46.82363" lon="8.41291">
        <ele>1103</ele>
        <time>2021-08-13T09:20:41.228Z</time>
      </trkpt>
      <trkpt lat="46.82362" lon="8.41291">
        <ele>1103</ele>
        <time>2021-08-13T09:20:42.229Z</time>
      </trkpt>
      <trkpt lat="46.82361" lon="8.4129">
        <ele>1103</ele>
        <time>2021-08-13T09:20:43.229Z</time>
      </trkpt>
      <trkpt lat="46.8236" lon="8.41289">
        <ele>1103</ele>
        <time>2021-08-13T09:20:44.229Z</time>
      </trkpt>
      <trkpt lat="46.82359" lon="8.41288">
        <ele>1103</ele>
        <time>2021-08-13T09:20:45.229Z</time>
      </trkpt>
      <trkpt lat="46.82358" lon="8.41287">
        <ele>1103</ele>
        <time>2021-08-13T09:20:46.229Z</time>
      </trkpt>
      <trkpt lat="46.82357" lon="8.41285">
        <ele>1102</ele>
        <time>2021-08-13T09:20:52.352Z</time>
      </trkpt>
      <trkpt lat="46.82356" lon="8.41284">
        <ele>1102</ele>
        <time>2021-08-13T09:20:53.352Z</time>
      </trkpt>
      <trkpt lat="46.82356" lon="8.41282">
        <ele>1102</ele>
        <time>2021-08-13T09:20:54.352Z</time>
      </trkpt>
      <trkpt lat="46.82355" lon="8.41282">
        <ele>1102</ele>
        <time>2021-08-13T09:20:55.351Z</time>
      </trkpt>
      <trkpt lat="46.82354" lon="8.41281">
        <ele>1102</ele>
        <time>2021-08-13T09:20:56.352Z</time>
      </trkpt>
      <trkpt lat="46.82352" lon="8.41281">
        <ele>1102</ele>
        <time>2021-08-13T09:20:57.351Z</time>
      </trkpt>
      <trkpt lat="46.82351" lon="8.4128">
        <ele>1101</ele>
        <time>2021-08-13T09:20:58.352Z</time>
      </trkpt>
      <trkpt lat="46.8235" lon="8.41279">
        <ele>1101</ele>
        <time>2021-08-13T09:20:59.352Z</time>
      </trkpt>
      <trkpt lat="46.82349" lon="8.41278">
        <ele>1100</ele>
        <time>2021-08-13T09:21:00.352Z</time>
      </trkpt>
      <trkpt lat="46.82348" lon="8.41277">
        <ele>1100</ele>
        <time>2021-08-13T09:21:01.352Z</time>
      </trkpt>
      <trkpt lat="46.82347" lon="8.41276">
        <ele>1099</ele>
        <time>2021-08-13T09:21:02.351Z</time>
      </trkpt>
      <trkpt lat="46.82346" lon="8.41275">
        <ele>1099</ele>
        <time>2021-08-13T09:21:03.352Z</time>
      </trkpt>
      <trkpt lat="46.82345" lon="8.41274">
        <ele>1098</ele>
        <time>2021-08-13T09:21:04.352Z</time>
      </trkpt>
      <trkpt lat="46.82344" lon="8.41272">
        <ele>1098</ele>
        <time>2021-08-13T09:21:05.352Z</time>
      </trkpt>
      <trkpt lat="46.82343" lon="8.41271">
        <ele>1097</ele>
        <time>2021-08-13T09:21:06.351Z</time>
      </trkpt>
      <trkpt lat="46.82341" lon="8.4127">
        <ele>1097</ele>
        <time>2021-08-13T09:21:07.351Z</time>
      </trkpt>
      <trkpt lat="46.8234" lon="8.41268">
        <ele>1096</ele>
        <time>2021-08-13T09:21:08.352Z</time>
      </trkpt>
      <trkpt lat="46.82339" lon="8.41266">
        <ele>1095</ele>
        <time>2021-08-13T09:21:09.352Z</time>
      </trkpt>
      <trkpt lat="46.82337" lon="8.41264">
        <ele>1094</ele>
        <time>2021-08-13T09:21:10.352Z</time>
      </trkpt>
      <trkpt lat="46.82336" lon="8.41263">
        <ele>1094</ele>
        <time>2021-08-13T09:21:11.352Z</time>
      </trkpt>
      <trkpt lat="46.82335" lon="8.41261">
        <ele>1093</ele>
        <time>2021-08-13T09:21:12.352Z</time>
      </trkpt>
      <trkpt lat="46.82334" lon="8.4126">
        <ele>1092</ele>
        <time>2021-08-13T09:21:13.351Z</time>
      </trkpt>
      <trkpt lat="46.82332" lon="8.41257">
        <ele>1091</ele>
        <time>2021-08-13T09:21:14.352Z</time>
      </trkpt>
      <trkpt lat="46.82331" lon="8.41255">
        <ele>1090</ele>
        <time>2021-08-13T09:21:15.352Z</time>
      </trkpt>
      <trkpt lat="46.82329" lon="8.41253">
        <ele>1090</ele>
        <time>2021-08-13T09:21:16.352Z</time>
      </trkpt>
      <trkpt lat="46.82328" lon="8.41251">
        <ele>1089</ele>
        <time>2021-08-13T09:21:17.351Z</time>
      </trkpt>
      <trkpt lat="46.82326" lon="8.41249">
        <ele>1089</ele>
        <time>2021-08-13T09:21:18.352Z</time>
      </trkpt>
      <trkpt lat="46.82324" lon="8.41246">
        <ele>1089</ele>
        <time>2021-08-13T09:21:19.352Z</time>
      </trkpt>
      <trkpt lat="46.82323" lon="8.41244">
        <ele>1088</ele>
        <time>2021-08-13T09:21:20.352Z</time>
      </trkpt>
      <trkpt lat="46.82322" lon="8.41242">
        <ele>1088</ele>
        <time>2021-08-13T09:21:21.352Z</time>
      </trkpt>
      <trkpt lat="46.82321" lon="8.4124">
        <ele>1087</ele>
        <time>2021-08-13T09:21:22.351Z</time>
      </trkpt>
      <trkpt lat="46.82321" lon="8.41238">
        <ele>1087</ele>
        <time>2021-08-13T09:21:23.352Z</time>
      </trkpt>
      <trkpt lat="46.8232" lon="8.41237">
        <ele>1086</ele>
        <time>2021-08-13T09:21:24.352Z</time>
      </trkpt>
      <trkpt lat="46.8232" lon="8.41234">
        <ele>1085</ele>
        <time>2021-08-13T09:21:25.351Z</time>
      </trkpt>
      <trkpt lat="46.8232" lon="8.41232">
        <ele>1085</ele>
        <time>2021-08-13T09:21:26.352Z</time>
      </trkpt>
      <trkpt lat="46.82319" lon="8.4123">
        <ele>1084</ele>
        <time>2021-08-13T09:21:27.352Z</time>
      </trkpt>
      <trkpt lat="46.82319" lon="8.41228">
        <ele>1084</ele>
        <time>2021-08-13T09:21:28.352Z</time>
      </trkpt>
      <trkpt lat="46.82318" lon="8.41226">
        <ele>1084</ele>
        <time>2021-08-13T09:21:29.351Z</time>
      </trkpt>
      <trkpt lat="46.82317" lon="8.41224">
        <ele>1083</ele>
        <time>2021-08-13T09:21:30.352Z</time>
      </trkpt>
      <trkpt lat="46.82316" lon="8.41222">
        <ele>1082</ele>
        <time>2021-08-13T09:21:31.352Z</time>
      </trkpt>
      <trkpt lat="46.82316" lon="8.4122">
        <ele>1082</ele>
        <time>2021-08-13T09:21:32.351Z</time>
      </trkpt>
      <trkpt lat="46.82315" lon="8.41217">
        <ele>1081</ele>
        <time>2021-08-13T09:21:33.352Z</time>
      </trkpt>
      <trkpt lat="46.82314" lon="8.41215">
        <ele>1081</ele>
        <time>2021-08-13T09:21:34.352Z</time>
      </trkpt>
      <trkpt lat="46.82314" lon="8.41212">
        <ele>1080</ele>
        <time>2021-08-13T09:21:35.351Z</time>
      </trkpt>
      <trkpt lat="46.82313" lon="8.4121">
        <ele>1080</ele>
        <time>2021-08-13T09:21:36.352Z</time>
      </trkpt>
      <trkpt lat="46.82313" lon="8.41207">
        <ele>1079</ele>
        <time>2021-08-13T09:21:37.352Z</time>
      </trkpt>
      <trkpt lat="46.82312" lon="8.41205">
        <ele>1078</ele>
        <time>2021-08-13T09:21:38.351Z</time>
      </trkpt>
      <trkpt lat="46.82311" lon="8.41203">
        <ele>1078</ele>
        <time>2021-08-13T09:21:39.351Z</time>
      </trkpt>
      <trkpt lat="46.8231" lon="8.41201">
        <ele>1077</ele>
        <time>2021-08-13T09:21:40.352Z</time>
      </trkpt>
      <trkpt lat="46.82309" lon="8.41199">
        <ele>1077</ele>
        <time>2021-08-13T09:21:41.352Z</time>
      </trkpt>
      <trkpt lat="46.82308" lon="8.41197">
        <ele>1077</ele>
        <time>2021-08-13T09:21:42.351Z</time>
      </trkpt>
      <trkpt lat="46.82308" lon="8.41195">
        <ele>1076</ele>
        <time>2021-08-13T09:21:43.352Z</time>
      </trkpt>
      <trkpt lat="46.82307" lon="8.41193">
        <ele>1076</ele>
        <time>2021-08-13T09:21:44.352Z</time>
      </trkpt>
      <trkpt lat="46.82307" lon="8.41191">
        <ele>1075</ele>
        <time>2021-08-13T09:21:45.352Z</time>
      </trkpt>
      <trkpt lat="46.82306" lon="8.4119">
        <ele>1075</ele>
        <time>2021-08-13T09:21:46.352Z</time>
      </trkpt>
      <trkpt lat="46.82306" lon="8.41188">
        <ele>1075</ele>
        <time>2021-08-13T09:21:47.352Z</time>
      </trkpt>
      <trkpt lat="46.82305" lon="8.41186">
        <ele>1074</ele>
        <time>2021-08-13T09:21:48.352Z</time>
      </trkpt>
      <trkpt lat="46.82305" lon="8.41185">
        <ele>1074</ele>
        <time>2021-08-13T09:21:49.352Z</time>
      </trkpt>
      <trkpt lat="46.82304" lon="8.41183">
        <ele>1074</ele>
        <time>2021-08-13T09:21:50.351Z</time>
      </trkpt>
      <trkpt lat="46.82303" lon="8.41181">
        <ele>1073</ele>
        <time>2021-08-13T09:21:51.351Z</time>
      </trkpt>
      <trkpt lat="46.82303" lon="8.41179">
        <ele>1073</ele>
        <time>2021-08-13T09:21:52.351Z</time>
      </trkpt>
      <trkpt lat="46.82302" lon="8.41176">
        <ele>1073</ele>
        <time>2021-08-13T09:21:53.352Z</time>
      </trkpt>
      <trkpt lat="46.82301" lon="8.41174">
        <ele>1073</ele>
        <time>2021-08-13T09:21:54.351Z</time>
      </trkpt>
      <trkpt lat="46.823" lon="8.41172">
        <ele>1073</ele>
        <time>2021-08-13T09:21:55.352Z</time>
      </trkpt>
      <trkpt lat="46.82299" lon="8.4117">
        <ele>1073</ele>
        <time>2021-08-13T09:21:56.351Z</time>
      </trkpt>
      <trkpt lat="46.82299" lon="8.41167">
        <ele>1073</ele>
        <time>2021-08-13T09:21:57.352Z</time>
      </trkpt>
      <trkpt lat="46.82298" lon="8.41165">
        <ele>1073</ele>
        <time>2021-08-13T09:21:58.352Z</time>
      </trkpt>
      <trkpt lat="46.82297" lon="8.41162">
        <ele>1073</ele>
        <time>2021-08-13T09:21:59.352Z</time>
      </trkpt>
      <trkpt lat="46.82296" lon="8.41159">
        <ele>1073</ele>
        <time>2021-08-13T09:22:00.352Z</time>
      </trkpt>
      <trkpt lat="46.82295" lon="8.41156">
        <ele>1073</ele>
        <time>2021-08-13T09:22:01.352Z</time>
      </trkpt>
      <trkpt lat="46.82295" lon="8.41154">
        <ele>1073</ele>
        <time>2021-08-13T09:22:02.352Z</time>
      </trkpt>
      <trkpt lat="46.82294" lon="8.41152">
        <ele>1073</ele>
        <time>2021-08-13T09:22:03.352Z</time>
      </trkpt>
      <trkpt lat="46.82294" lon="8.4115">
        <ele>1073</ele>
        <time>2021-08-13T09:22:04.352Z</time>
      </trkpt>
      <trkpt lat="46.82293" lon="8.41148">
        <ele>1073</ele>
        <time>2021-08-13T09:22:05.352Z</time>
      </trkpt>
      <trkpt lat="46.82292" lon="8.41147">
        <ele>1072</ele>
        <time>2021-08-13T09:22:06.351Z</time>
      </trkpt>
      <trkpt lat="46.82291" lon="8.41145">
        <ele>1072</ele>
        <time>2021-08-13T09:22:13.519Z</time>
      </trkpt>
      <trkpt lat="46.82291" lon="8.41143">
        <ele>1072</ele>
        <time>2021-08-13T09:22:14.520Z</time>
      </trkpt>
      <trkpt lat="46.8229" lon="8.41142">
        <ele>1072</ele>
        <time>2021-08-13T09:22:20.392Z</time>
      </trkpt>
      <trkpt lat="46.8229" lon="8.4114">
        <ele>1071</ele>
        <time>2021-08-13T09:22:21.393Z</time>
      </trkpt>
      <trkpt lat="46.82289" lon="8.41138">
        <ele>1071</ele>
        <time>2021-08-13T09:22:22.393Z</time>
      </trkpt>
      <trkpt lat="46.82289" lon="8.41136">
        <ele>1071</ele>
        <time>2021-08-13T09:22:23.393Z</time>
      </trkpt>
      <trkpt lat="46.82288" lon="8.41134">
        <ele>1072</ele>
        <time>2021-08-13T09:22:24.393Z</time>
      </trkpt>
      <trkpt lat="46.82287" lon="8.41133">
        <ele>1072</ele>
        <time>2021-08-13T09:22:25.393Z</time>
      </trkpt>
      <trkpt lat="46.82286" lon="8.4113">
        <ele>1072</ele>
        <time>2021-08-13T09:22:26.393Z</time>
      </trkpt>
      <trkpt lat="46.82286" lon="8.41129">
        <ele>1072</ele>
        <time>2021-08-13T09:22:27.393Z</time>
      </trkpt>
      <trkpt lat="46.82286" lon="8.41127">
        <ele>1072</ele>
        <time>2021-08-13T09:22:28.393Z</time>
      </trkpt>
      <trkpt lat="46.82285" lon="8.41125">
        <ele>1072</ele>
        <time>2021-08-13T09:22:29.393Z</time>
      </trkpt>
      <trkpt lat="46.82285" lon="8.41123">
        <ele>1072</ele>
        <time>2021-08-13T09:22:30.392Z</time>
      </trkpt>
      <trkpt lat="46.82285" lon="8.41121">
        <ele>1072</ele>
        <time>2021-08-13T09:22:31.392Z</time>
      </trkpt>
      <trkpt lat="46.82285" lon="8.41119">
        <ele>1072</ele>
        <time>2021-08-13T09:22:32.392Z</time>
      </trkpt>
      <trkpt lat="46.82285" lon="8.41117">
        <ele>1072</ele>
        <time>2021-08-13T09:22:33.393Z</time>
      </trkpt>
      <trkpt lat="46.82285" lon="8.41115">
        <ele>1072</ele>
        <time>2021-08-13T09:22:34.393Z</time>
      </trkpt>
      <trkpt lat="46.82285" lon="8.41113">
        <ele>1072</ele>
        <time>2021-08-13T09:22:35.393Z</time>
      </trkpt>
      <trkpt lat="46.82285" lon="8.41111">
        <ele>1072</ele>
        <time>2021-08-13T09:22:36.393Z</time>
      </trkpt>
      <trkpt lat="46.82285" lon="8.4111">
        <ele>1071</ele>
        <time>2021-08-13T09:22:37.393Z</time>
      </trkpt>
      <trkpt lat="46.82285" lon="8.41108">
        <ele>1071</ele>
        <time>2021-08-13T09:22:38.393Z</time>
      </trkpt>
      <trkpt lat="46.82285" lon="8.41106">
        <ele>1071</ele>
        <time>2021-08-13T09:22:39.393Z</time>
      </trkpt>
      <trkpt lat="46.82285" lon="8.41104">
        <ele>1070</ele>
        <time>2021-08-13T09:22:40.393Z</time>
      </trkpt>
      <trkpt lat="46.82284" lon="8.41102">
        <ele>1070</ele>
        <time>2021-08-13T09:22:41.393Z</time>
      </trkpt>
      <trkpt lat="46.82284" lon="8.411">
        <ele>1069</ele>
        <time>2021-08-13T09:22:42.393Z</time>
      </trkpt>
      <trkpt lat="46.82283" lon="8.41098">
        <ele>1069</ele>
        <time>2021-08-13T09:22:43.393Z</time>
      </trkpt>
      <trkpt lat="46.82283" lon="8.41096">
        <ele>1069</ele>
        <time>2021-08-13T09:22:44.393Z</time>
      </trkpt>
      <trkpt lat="46.82283" lon="8.41094">
        <ele>1069</ele>
        <time>2021-08-13T09:22:45.393Z</time>
      </trkpt>
      <trkpt lat="46.82283" lon="8.41092">
        <ele>1069</ele>
        <time>2021-08-13T09:22:46.392Z</time>
      </trkpt>
      <trkpt lat="46.82283" lon="8.4109">
        <ele>1069</ele>
        <time>2021-08-13T09:22:47.393Z</time>
      </trkpt>
      <trkpt lat="46.82283" lon="8.41088">
        <ele>1069</ele>
        <time>2021-08-13T09:22:48.393Z</time>
      </trkpt>
      <trkpt lat="46.82283" lon="8.41086">
        <ele>1069</ele>
        <time>2021-08-13T09:22:49.392Z</time>
      </trkpt>
      <trkpt lat="46.82284" lon="8.41083">
        <ele>1068</ele>
        <time>2021-08-13T09:22:50.393Z</time>
      </trkpt>
      <trkpt lat="46.82284" lon="8.41081">
        <ele>1068</ele>
        <time>2021-08-13T09:22:51.393Z</time>
      </trkpt>
      <trkpt lat="46.82285" lon="8.41079">
        <ele>1068</ele>
        <time>2021-08-13T09:22:52.393Z</time>
      </trkpt>
      <trkpt lat="46.82284" lon="8.41077">
        <ele>1067</ele>
        <time>2021-08-13T09:22:53.393Z</time>
      </trkpt>
      <trkpt lat="46.82285" lon="8.41074">
        <ele>1067</ele>
        <time>2021-08-13T09:22:54.393Z</time>
      </trkpt>
      <trkpt lat="46.82285" lon="8.41071">
        <ele>1066</ele>
        <time>2021-08-13T09:22:55.393Z</time>
      </trkpt>
      <trkpt lat="46.82285" lon="8.41068">
        <ele>1066</ele>
        <time>2021-08-13T09:22:56.393Z</time>
      </trkpt>
      <trkpt lat="46.82285" lon="8.41065">
        <ele>1065</ele>
        <time>2021-08-13T09:22:57.392Z</time>
      </trkpt>
      <trkpt lat="46.82284" lon="8.41062">
        <ele>1065</ele>
        <time>2021-08-13T09:22:58.393Z</time>
      </trkpt>
      <trkpt lat="46.82284" lon="8.4106">
        <ele>1064</ele>
        <time>2021-08-13T09:22:59.392Z</time>
      </trkpt>
      <trkpt lat="46.82283" lon="8.41058">
        <ele>1064</ele>
        <time>2021-08-13T09:23:00.393Z</time>
      </trkpt>
      <trkpt lat="46.82282" lon="8.41056">
        <ele>1064</ele>
        <time>2021-08-13T09:23:01.392Z</time>
      </trkpt>
      <trkpt lat="46.82282" lon="8.41054">
        <ele>1064</ele>
        <time>2021-08-13T09:23:02.393Z</time>
      </trkpt>
      <trkpt lat="46.82282" lon="8.41052">
        <ele>1064</ele>
        <time>2021-08-13T09:23:03.392Z</time>
      </trkpt>
      <trkpt lat="46.82282" lon="8.41049">
        <ele>1064</ele>
        <time>2021-08-13T09:23:04.393Z</time>
      </trkpt>
      <trkpt lat="46.82281" lon="8.41047">
        <ele>1063</ele>
        <time>2021-08-13T09:23:05.393Z</time>
      </trkpt>
      <trkpt lat="46.82281" lon="8.41046">
        <ele>1063</ele>
        <time>2021-08-13T09:23:06.393Z</time>
      </trkpt>
      <trkpt lat="46.82279" lon="8.41044">
        <ele>1063</ele>
        <time>2021-08-13T09:23:07.393Z</time>
      </trkpt>
      <trkpt lat="46.8228" lon="8.41042">
        <ele>1063</ele>
        <time>2021-08-13T09:23:08.393Z</time>
      </trkpt>
      <trkpt lat="46.82279" lon="8.4104">
        <ele>1063</ele>
        <time>2021-08-13T09:23:09.392Z</time>
      </trkpt>
      <trkpt lat="46.82279" lon="8.41038">
        <ele>1063</ele>
        <time>2021-08-13T09:23:10.392Z</time>
      </trkpt>
      <trkpt lat="46.82278" lon="8.41037">
        <ele>1062</ele>
        <time>2021-08-13T09:23:11.393Z</time>
      </trkpt>
      <trkpt lat="46.82278" lon="8.41036">
        <ele>1062</ele>
        <time>2021-08-13T09:23:12.393Z</time>
      </trkpt>
      <trkpt lat="46.82277" lon="8.41036">
        <ele>1062</ele>
        <time>2021-08-13T09:23:13.393Z</time>
      </trkpt>
      <trkpt lat="46.82276" lon="8.41035">
        <ele>1062</ele>
        <time>2021-08-13T09:23:14.393Z</time>
      </trkpt>
      <trkpt lat="46.82274" lon="8.41034">
        <ele>1062</ele>
        <time>2021-08-13T09:23:15.393Z</time>
      </trkpt>
      <trkpt lat="46.82272" lon="8.41034">
        <ele>1062</ele>
        <time>2021-08-13T09:23:16.393Z</time>
      </trkpt>
      <trkpt lat="46.82269" lon="8.41033">
        <ele>1063</ele>
        <time>2021-08-13T09:23:17.393Z</time>
      </trkpt>
      <trkpt lat="46.82267" lon="8.41034">
        <ele>1063</ele>
        <time>2021-08-13T09:23:18.393Z</time>
      </trkpt>
      <trkpt lat="46.82266" lon="8.41035">
        <ele>1064</ele>
        <time>2021-08-13T09:23:19.392Z</time>
      </trkpt>
      <trkpt lat="46.82265" lon="8.41036">
        <ele>1064</ele>
        <time>2021-08-13T09:23:20.392Z</time>
      </trkpt>
      <trkpt lat="46.82264" lon="8.41037">
        <ele>1064</ele>
        <time>2021-08-13T09:23:39.483Z</time>
      </trkpt>
      <trkpt lat="46.82263" lon="8.41038">
        <ele>1064</ele>
        <time>2021-08-13T09:24:34.350Z</time>
      </trkpt>
      <trkpt lat="46.82262" lon="8.41039">
        <ele>1064</ele>
        <time>2021-08-13T09:24:35.351Z</time>
      </trkpt>
      <trkpt lat="46.82262" lon="8.4104">
        <ele>1064</ele>
        <time>2021-08-13T09:24:36.351Z</time>
      </trkpt>
      <trkpt lat="46.82262" lon="8.4104">
        <ele>1064</ele>
        <time>2021-08-13T09:24:37.351Z</time>
      </trkpt>
      <trkpt lat="46.82261" lon="8.41042">
        <ele>1065</ele>
        <time>2021-08-13T09:24:38.351Z</time>
      </trkpt>
      <trkpt lat="46.8226" lon="8.41042">
        <ele>1071</ele>
        <time>2021-08-13T09:24:39.352Z</time>
      </trkpt>
      <trkpt lat="46.82259" lon="8.41042">
        <ele>1072</ele>
        <time>2021-08-13T09:24:40.351Z</time>
      </trkpt>
      <trkpt lat="46.82259" lon="8.41042">
        <ele>1072</ele>
        <time>2021-08-13T09:24:41.351Z</time>
      </trkpt>
      <trkpt lat="46.82259" lon="8.4104">
        <ele>1069</ele>
        <time>2021-08-13T09:24:42.352Z</time>
      </trkpt>
      <trkpt lat="46.82259" lon="8.4104">
        <ele>1069</ele>
        <time>2021-08-13T09:24:43.351Z</time>
      </trkpt>
      <trkpt lat="46.8226" lon="8.4104">
        <ele>1068</ele>
        <time>2021-08-13T09:24:44.351Z</time>
      </trkpt>
      <trkpt lat="46.8226" lon="8.41043">
        <ele>1067</ele>
        <time>2021-08-13T09:24:45.352Z</time>
      </trkpt>
      <trkpt lat="46.8226" lon="8.41043">
        <ele>1067</ele>
        <time>2021-08-13T09:24:46.352Z</time>
      </trkpt>
      <trkpt lat="46.8226" lon="8.41045">
        <ele>1068</ele>
        <time>2021-08-13T09:24:47.353Z</time>
      </trkpt>
      <trkpt lat="46.8226" lon="8.41045">
        <ele>1068</ele>
        <time>2021-08-13T09:24:48.353Z</time>
      </trkpt>
      <trkpt lat="46.8226" lon="8.41045">
        <ele>1068</ele>
        <time>2021-08-13T09:24:49.352Z</time>
      </trkpt>
      <trkpt lat="46.82258" lon="8.41046">
        <ele>1066</ele>
        <time>2021-08-13T09:24:50.354Z</time>
      </trkpt>
      <trkpt lat="46.82257" lon="8.41047">
        <ele>1065</ele>
        <time>2021-08-13T09:24:51.354Z</time>
      </trkpt>
      <trkpt lat="46.82257" lon="8.41047">
        <ele>1064</ele>
        <time>2021-08-13T09:24:52.353Z</time>
      </trkpt>
      <trkpt lat="46.82256" lon="8.41048">
        <ele>1064</ele>
        <time>2021-08-13T09:24:53.353Z</time>
      </trkpt>
      <trkpt lat="46.82255" lon="8.41048">
        <ele>1063</ele>
        <time>2021-08-13T09:24:54.353Z</time>
      </trkpt>
      <trkpt lat="46.82253" lon="8.41048">
        <ele>1062</ele>
        <time>2021-08-13T09:24:55.353Z</time>
      </trkpt>
      <trkpt lat="46.82252" lon="8.41048">
        <ele>1062</ele>
        <time>2021-08-13T09:24:56.354Z</time>
      </trkpt>
      <trkpt lat="46.82251" lon="8.41047">
        <ele>1061</ele>
        <time>2021-08-13T09:24:57.354Z</time>
      </trkpt>
      <trkpt lat="46.82251" lon="8.41046">
        <ele>1061</ele>
        <time>2021-08-13T09:24:58.354Z</time>
      </trkpt>
      <trkpt lat="46.8225" lon="8.41044">
        <ele>1060</ele>
        <time>2021-08-13T09:24:59.354Z</time>
      </trkpt>
      <trkpt lat="46.8225" lon="8.41043">
        <ele>1059</ele>
        <time>2021-08-13T09:25:00.353Z</time>
      </trkpt>
      <trkpt lat="46.8225" lon="8.41041">
        <ele>1059</ele>
        <time>2021-08-13T09:25:01.354Z</time>
      </trkpt>
      <trkpt lat="46.82251" lon="8.41039">
        <ele>1058</ele>
        <time>2021-08-13T09:25:02.354Z</time>
      </trkpt>
      <trkpt lat="46.82251" lon="8.41037">
        <ele>1058</ele>
        <time>2021-08-13T09:25:03.354Z</time>
      </trkpt>
      <trkpt lat="46.82251" lon="8.41036">
        <ele>1057</ele>
        <time>2021-08-13T09:25:04.354Z</time>
      </trkpt>
      <trkpt lat="46.82251" lon="8.41035">
        <ele>1057</ele>
        <time>2021-08-13T09:25:05.353Z</time>
      </trkpt>
      <trkpt lat="46.82251" lon="8.41033">
        <ele>1057</ele>
        <time>2021-08-13T09:25:06.354Z</time>
      </trkpt>
      <trkpt lat="46.8225" lon="8.41032">
        <ele>1057</ele>
        <time>2021-08-13T09:25:07.354Z</time>
      </trkpt>
      <trkpt lat="46.8225" lon="8.41031">
        <ele>1057</ele>
        <time>2021-08-13T09:25:08.353Z</time>
      </trkpt>
      <trkpt lat="46.8225" lon="8.41029">
        <ele>1057</ele>
        <time>2021-08-13T09:25:09.353Z</time>
      </trkpt>
      <trkpt lat="46.8225" lon="8.41029">
        <ele>1057</ele>
        <time>2021-08-13T09:25:10.354Z</time>
      </trkpt>
      <trkpt lat="46.8225" lon="8.41028">
        <ele>1057</ele>
        <time>2021-08-13T09:25:11.354Z</time>
      </trkpt>
      <trkpt lat="46.82249" lon="8.41027">
        <ele>1057</ele>
        <time>2021-08-13T09:25:12.354Z</time>
      </trkpt>
      <trkpt lat="46.82249" lon="8.41026">
        <ele>1057</ele>
        <time>2021-08-13T09:25:13.353Z</time>
      </trkpt>
      <trkpt lat="46.82249" lon="8.41025">
        <ele>1057</ele>
        <time>2021-08-13T09:25:14.354Z</time>
      </trkpt>
      <trkpt lat="46.82249" lon="8.41024">
        <ele>1057</ele>
        <time>2021-08-13T09:25:15.354Z</time>
      </trkpt>
      <trkpt lat="46.82249" lon="8.41022">
        <ele>1057</ele>
        <time>2021-08-13T09:25:16.353Z</time>
      </trkpt>
      <trkpt lat="46.8225" lon="8.4102">
        <ele>1057</ele>
        <time>2021-08-13T09:25:17.354Z</time>
      </trkpt>
      <trkpt lat="46.8225" lon="8.41018">
        <ele>1057</ele>
        <time>2021-08-13T09:25:18.353Z</time>
      </trkpt>
      <trkpt lat="46.82249" lon="8.41017">
        <ele>1056</ele>
        <time>2021-08-13T09:25:19.354Z</time>
      </trkpt>
      <trkpt lat="46.82248" lon="8.41016">
        <ele>1056</ele>
        <time>2021-08-13T09:25:20.353Z</time>
      </trkpt>
      <trkpt lat="46.82247" lon="8.41015">
        <ele>1055</ele>
        <time>2021-08-13T09:25:21.354Z</time>
      </trkpt>
      <trkpt lat="46.82247" lon="8.41015">
        <ele>1055</ele>
        <time>2021-08-13T09:25:22.354Z</time>
      </trkpt>
      <trkpt lat="46.82246" lon="8.41014">
        <ele>1055</ele>
        <time>2021-08-13T09:25:23.354Z</time>
      </trkpt>
      <trkpt lat="46.82246" lon="8.41014">
        <ele>1055</ele>
        <time>2021-08-13T09:25:24.354Z</time>
      </trkpt>
      <trkpt lat="46.82245" lon="8.41013">
        <ele>1055</ele>
        <time>2021-08-13T09:25:25.353Z</time>
      </trkpt>
      <trkpt lat="46.82243" lon="8.41012">
        <ele>1056</ele>
        <time>2021-08-13T09:25:26.355Z</time>
      </trkpt>
      <trkpt lat="46.82242" lon="8.41012">
        <ele>1056</ele>
        <time>2021-08-13T09:25:27.354Z</time>
      </trkpt>
      <trkpt lat="46.82242" lon="8.41012">
        <ele>1056</ele>
        <time>2021-08-13T09:25:28.354Z</time>
      </trkpt>
      <trkpt lat="46.82241" lon="8.41012">
        <ele>1056</ele>
        <time>2021-08-13T09:25:29.354Z</time>
      </trkpt>
      <trkpt lat="46.8224" lon="8.41011">
        <ele>1056</ele>
        <time>2021-08-13T09:25:30.355Z</time>
      </trkpt>
      <trkpt lat="46.8224" lon="8.41011">
        <ele>1056</ele>
        <time>2021-08-13T09:25:31.355Z</time>
      </trkpt>
      <trkpt lat="46.82239" lon="8.41011">
        <ele>1056</ele>
        <time>2021-08-13T09:25:32.354Z</time>
      </trkpt>
      <trkpt lat="46.82239" lon="8.41011">
        <ele>1056</ele>
        <time>2021-08-13T09:25:33.355Z</time>
      </trkpt>
      <trkpt lat="46.82238" lon="8.41011">
        <ele>1056</ele>
        <time>2021-08-13T09:25:34.354Z</time>
      </trkpt>
      <trkpt lat="46.82237" lon="8.41011">
        <ele>1056</ele>
        <time>2021-08-13T09:25:35.355Z</time>
      </trkpt>
      <trkpt lat="46.82236" lon="8.41011">
        <ele>1056</ele>
        <time>2021-08-13T09:25:36.355Z</time>
      </trkpt>
      <trkpt lat="46.82236" lon="8.4101">
        <ele>1056</ele>
        <time>2021-08-13T09:25:37.354Z</time>
      </trkpt>
      <trkpt lat="46.82235" lon="8.41009">
        <ele>1056</ele>
        <time>2021-08-13T09:25:38.355Z</time>
      </trkpt>
      <trkpt lat="46.82234" lon="8.41009">
        <ele>1056</ele>
        <time>2021-08-13T09:25:39.354Z</time>
      </trkpt>
      <trkpt lat="46.82233" lon="8.41008">
        <ele>1056</ele>
        <time>2021-08-13T09:25:40.355Z</time>
      </trkpt>
      <trkpt lat="46.82232" lon="8.41008">
        <ele>1056</ele>
        <time>2021-08-13T09:25:41.355Z</time>
      </trkpt>
      <trkpt lat="46.82231" lon="8.41008">
        <ele>1056</ele>
        <time>2021-08-13T09:25:42.355Z</time>
      </trkpt>
      <trkpt lat="46.82231" lon="8.41007">
        <ele>1055</ele>
        <time>2021-08-13T09:25:43.355Z</time>
      </trkpt>
      <trkpt lat="46.82231" lon="8.41006">
        <ele>1055</ele>
        <time>2021-08-13T09:25:44.355Z</time>
      </trkpt>
      <trkpt lat="46.82231" lon="8.41005">
        <ele>1055</ele>
        <time>2021-08-13T09:25:45.355Z</time>
      </trkpt>
      <trkpt lat="46.82231" lon="8.41004">
        <ele>1055</ele>
        <time>2021-08-13T09:25:46.354Z</time>
      </trkpt>
      <trkpt lat="46.8223" lon="8.41003">
        <ele>1055</ele>
        <time>2021-08-13T09:25:47.355Z</time>
      </trkpt>
      <trkpt lat="46.82229" lon="8.41003">
        <ele>1055</ele>
        <time>2021-08-13T09:25:48.355Z</time>
      </trkpt>
      <trkpt lat="46.82227" lon="8.41002">
        <ele>1055</ele>
        <time>2021-08-13T09:25:49.355Z</time>
      </trkpt>
      <trkpt lat="46.82226" lon="8.41001">
        <ele>1055</ele>
        <time>2021-08-13T09:25:50.354Z</time>
      </trkpt>
      <trkpt lat="46.82226" lon="8.41">
        <ele>1055</ele>
        <time>2021-08-13T09:25:51.355Z</time>
      </trkpt>
      <trkpt lat="46.82226" lon="8.40999">
        <ele>1055</ele>
        <time>2021-08-13T09:25:52.355Z</time>
      </trkpt>
      <trkpt lat="46.82225" lon="8.40998">
        <ele>1055</ele>
        <time>2021-08-13T09:25:53.354Z</time>
      </trkpt>
      <trkpt lat="46.82224" lon="8.40997">
        <ele>1055</ele>
        <time>2021-08-13T09:25:54.355Z</time>
      </trkpt>
      <trkpt lat="46.82223" lon="8.40996">
        <ele>1055</ele>
        <time>2021-08-13T09:25:55.355Z</time>
      </trkpt>
      <trkpt lat="46.82222" lon="8.40996">
        <ele>1054</ele>
        <time>2021-08-13T09:25:56.355Z</time>
      </trkpt>
      <trkpt lat="46.82221" lon="8.40995">
        <ele>1054</ele>
        <time>2021-08-13T09:25:57.355Z</time>
      </trkpt>
      <trkpt lat="46.8222" lon="8.40995">
        <ele>1054</ele>
        <time>2021-08-13T09:25:58.355Z</time>
      </trkpt>
      <trkpt lat="46.82219" lon="8.40994">
        <ele>1054</ele>
        <time>2021-08-13T09:25:59.355Z</time>
      </trkpt>
      <trkpt lat="46.82218" lon="8.40993">
        <ele>1054</ele>
        <time>2021-08-13T09:26:00.354Z</time>
      </trkpt>
      <trkpt lat="46.82217" lon="8.40992">
        <ele>1053</ele>
        <time>2021-08-13T09:26:01.354Z</time>
      </trkpt>
      <trkpt lat="46.82217" lon="8.40992">
        <ele>1053</ele>
        <time>2021-08-13T09:26:02.355Z</time>
      </trkpt>
      <trkpt lat="46.82216" lon="8.40991">
        <ele>1052</ele>
        <time>2021-08-13T09:26:03.355Z</time>
      </trkpt>
      <trkpt lat="46.82216" lon="8.4099">
        <ele>1052</ele>
        <time>2021-08-13T09:26:04.354Z</time>
      </trkpt>
      <trkpt lat="46.82215" lon="8.40989">
        <ele>1051</ele>
        <time>2021-08-13T09:26:05.355Z</time>
      </trkpt>
      <trkpt lat="46.82215" lon="8.40989">
        <ele>1051</ele>
        <time>2021-08-13T09:26:06.355Z</time>
      </trkpt>
      <trkpt lat="46.82214" lon="8.40988">
        <ele>1050</ele>
        <time>2021-08-13T09:26:07.354Z</time>
      </trkpt>
      <trkpt lat="46.82213" lon="8.40988">
        <ele>1049</ele>
        <time>2021-08-13T09:26:08.355Z</time>
      </trkpt>
      <trkpt lat="46.82213" lon="8.40987">
        <ele>1049</ele>
        <time>2021-08-13T09:26:09.354Z</time>
      </trkpt>
      <trkpt lat="46.82212" lon="8.40987">
        <ele>1048</ele>
        <time>2021-08-13T09:26:10.354Z</time>
      </trkpt>
      <trkpt lat="46.82211" lon="8.40986">
        <ele>1047</ele>
        <time>2021-08-13T09:26:11.355Z</time>
      </trkpt>
      <trkpt lat="46.8221" lon="8.40986">
        <ele>1047</ele>
        <time>2021-08-13T09:26:12.354Z</time>
      </trkpt>
      <trkpt lat="46.82208" lon="8.40985">
        <ele>1047</ele>
        <time>2021-08-13T09:26:13.355Z</time>
      </trkpt>
      <trkpt lat="46.82207" lon="8.40984">
        <ele>1046</ele>
        <time>2021-08-13T09:26:14.354Z</time>
      </trkpt>
      <trkpt lat="46.82206" lon="8.40983">
        <ele>1046</ele>
        <time>2021-08-13T09:26:15.355Z</time>
      </trkpt>
      <trkpt lat="46.82205" lon="8.40981">
        <ele>1045</ele>
        <time>2021-08-13T09:26:16.355Z</time>
      </trkpt>
      <trkpt lat="46.82204" lon="8.4098">
        <ele>1045</ele>
        <time>2021-08-13T09:26:17.355Z</time>
      </trkpt>
      <trkpt lat="46.82204" lon="8.4098">
        <ele>1044</ele>
        <time>2021-08-13T09:26:18.355Z</time>
      </trkpt>
      <trkpt lat="46.82203" lon="8.40981">
        <ele>1043</ele>
        <time>2021-08-13T09:26:19.354Z</time>
      </trkpt>
      <trkpt lat="46.82202" lon="8.4098">
        <ele>1043</ele>
        <time>2021-08-13T09:26:20.354Z</time>
      </trkpt>
      <trkpt lat="46.82202" lon="8.4098">
        <ele>1042</ele>
        <time>2021-08-13T09:26:21.355Z</time>
      </trkpt>
      <trkpt lat="46.82201" lon="8.4098">
        <ele>1042</ele>
        <time>2021-08-13T09:26:22.354Z</time>
      </trkpt>
      <trkpt lat="46.82201" lon="8.40979">
        <ele>1042</ele>
        <time>2021-08-13T09:26:23.355Z</time>
      </trkpt>
      <trkpt lat="46.822" lon="8.40978">
        <ele>1042</ele>
        <time>2021-08-13T09:26:24.355Z</time>
      </trkpt>
      <trkpt lat="46.822" lon="8.40977">
        <ele>1042</ele>
        <time>2021-08-13T09:26:25.354Z</time>
      </trkpt>
      <trkpt lat="46.82198" lon="8.40975">
        <ele>1041</ele>
        <time>2021-08-13T09:26:26.355Z</time>
      </trkpt>
      <trkpt lat="46.82197" lon="8.40973">
        <ele>1041</ele>
        <time>2021-08-13T09:26:27.355Z</time>
      </trkpt>
      <trkpt lat="46.82196" lon="8.40972">
        <ele>1041</ele>
        <time>2021-08-13T09:26:28.355Z</time>
      </trkpt>
      <trkpt lat="46.82195" lon="8.40971">
        <ele>1040</ele>
        <time>2021-08-13T09:26:29.355Z</time>
      </trkpt>
      <trkpt lat="46.82194" lon="8.4097">
        <ele>1040</ele>
        <time>2021-08-13T09:26:30.355Z</time>
      </trkpt>
      <trkpt lat="46.82193" lon="8.40969">
        <ele>1040</ele>
        <time>2021-08-13T09:26:31.355Z</time>
      </trkpt>
      <trkpt lat="46.82193" lon="8.40968">
        <ele>1040</ele>
        <time>2021-08-13T09:26:32.355Z</time>
      </trkpt>
      <trkpt lat="46.82192" lon="8.40967">
        <ele>1040</ele>
        <time>2021-08-13T09:26:33.354Z</time>
      </trkpt>
      <trkpt lat="46.8219" lon="8.40967">
        <ele>1039</ele>
        <time>2021-08-13T09:26:34.355Z</time>
      </trkpt>
      <trkpt lat="46.82189" lon="8.40966">
        <ele>1039</ele>
        <time>2021-08-13T09:26:55.537Z</time>
      </trkpt>
      <trkpt lat="46.82188" lon="8.40965">
        <ele>1038</ele>
        <time>2021-08-13T09:26:56.536Z</time>
      </trkpt>
      <trkpt lat="46.82187" lon="8.40964">
        <ele>1038</ele>
        <time>2021-08-13T09:26:57.536Z</time>
      </trkpt>
      <trkpt lat="46.82186" lon="8.40963">
        <ele>1038</ele>
        <time>2021-08-13T09:26:58.537Z</time>
      </trkpt>
      <trkpt lat="46.82184" lon="8.40963">
        <ele>1038</ele>
        <time>2021-08-13T09:26:59.537Z</time>
      </trkpt>
      <trkpt lat="46.82183" lon="8.40962">
        <ele>1038</ele>
        <time>2021-08-13T09:27:00.537Z</time>
      </trkpt>
      <trkpt lat="46.82182" lon="8.40962">
        <ele>1037</ele>
        <time>2021-08-13T09:27:01.537Z</time>
      </trkpt>
      <trkpt lat="46.82181" lon="8.40961">
        <ele>1037</ele>
        <time>2021-08-13T09:27:02.536Z</time>
      </trkpt>
      <trkpt lat="46.82181" lon="8.40961">
        <ele>1037</ele>
        <time>2021-08-13T09:27:03.536Z</time>
      </trkpt>
      <trkpt lat="46.82182" lon="8.4096">
        <ele>1036</ele>
        <time>2021-08-13T09:27:04.537Z</time>
      </trkpt>
      <trkpt lat="46.82182" lon="8.40959">
        <ele>1036</ele>
        <time>2021-08-13T09:27:05.537Z</time>
      </trkpt>
      <trkpt lat="46.82181" lon="8.40959">
        <ele>1036</ele>
        <time>2021-08-13T09:27:06.536Z</time>
      </trkpt>
      <trkpt lat="46.8218" lon="8.40958">
        <ele>1036</ele>
        <time>2021-08-13T09:27:07.537Z</time>
      </trkpt>
      <trkpt lat="46.8218" lon="8.40957">
        <ele>1036</ele>
        <time>2021-08-13T09:27:08.537Z</time>
      </trkpt>
      <trkpt lat="46.82179" lon="8.40956">
        <ele>1037</ele>
        <time>2021-08-13T09:27:09.537Z</time>
      </trkpt>
      <trkpt lat="46.82178" lon="8.40956">
        <ele>1037</ele>
        <time>2021-08-13T09:27:10.537Z</time>
      </trkpt>
      <trkpt lat="46.82178" lon="8.40955">
        <ele>1037</ele>
        <time>2021-08-13T09:27:11.537Z</time>
      </trkpt>
      <trkpt lat="46.82177" lon="8.40955">
        <ele>1037</ele>
        <time>2021-08-13T09:27:12.536Z</time>
      </trkpt>
      <trkpt lat="46.82175" lon="8.40955">
        <ele>1037</ele>
        <time>2021-08-13T09:27:13.537Z</time>
      </trkpt>
      <trkpt lat="46.82174" lon="8.40954">
        <ele>1036</ele>
        <time>2021-08-13T09:27:14.537Z</time>
      </trkpt>
      <trkpt lat="46.82173" lon="8.40953">
        <ele>1037</ele>
        <time>2021-08-13T09:27:15.537Z</time>
      </trkpt>
      <trkpt lat="46.82173" lon="8.40953">
        <ele>1037</ele>
        <time>2021-08-13T09:27:16.536Z</time>
      </trkpt>
      <trkpt lat="46.82172" lon="8.40952">
        <ele>1037</ele>
        <time>2021-08-13T09:27:17.536Z</time>
      </trkpt>
      <trkpt lat="46.82171" lon="8.40951">
        <ele>1037</ele>
        <time>2021-08-13T09:27:18.537Z</time>
      </trkpt>
      <trkpt lat="46.8217" lon="8.40951">
        <ele>1037</ele>
        <time>2021-08-13T09:27:19.537Z</time>
      </trkpt>
      <trkpt lat="46.82169" lon="8.4095">
        <ele>1037</ele>
        <time>2021-08-13T09:27:20.537Z</time>
      </trkpt>
      <trkpt lat="46.82169" lon="8.40949">
        <ele>1037</ele>
        <time>2021-08-13T09:27:21.537Z</time>
      </trkpt>
      <trkpt lat="46.82168" lon="8.40949">
        <ele>1036</ele>
        <time>2021-08-13T09:27:22.537Z</time>
      </trkpt>
      <trkpt lat="46.82167" lon="8.40948">
        <ele>1036</ele>
        <time>2021-08-13T09:27:23.536Z</time>
      </trkpt>
      <trkpt lat="46.82166" lon="8.40947">
        <ele>1035</ele>
        <time>2021-08-13T09:27:24.536Z</time>
      </trkpt>
      <trkpt lat="46.82165" lon="8.40946">
        <ele>1035</ele>
        <time>2021-08-13T09:27:25.536Z</time>
      </trkpt>
      <trkpt lat="46.82165" lon="8.40946">
        <ele>1034</ele>
        <time>2021-08-13T09:27:26.537Z</time>
      </trkpt>
      <trkpt lat="46.82164" lon="8.40945">
        <ele>1034</ele>
        <time>2021-08-13T09:27:27.536Z</time>
      </trkpt>
      <trkpt lat="46.82164" lon="8.40944">
        <ele>1034</ele>
        <time>2021-08-13T09:27:28.536Z</time>
      </trkpt>
      <trkpt lat="46.82164" lon="8.40944">
        <ele>1034</ele>
        <time>2021-08-13T09:27:29.536Z</time>
      </trkpt>
      <trkpt lat="46.82163" lon="8.40943">
        <ele>1033</ele>
        <time>2021-08-13T09:27:30.537Z</time>
      </trkpt>
      <trkpt lat="46.82162" lon="8.40942">
        <ele>1033</ele>
        <time>2021-08-13T09:27:31.537Z</time>
      </trkpt>
      <trkpt lat="46.82161" lon="8.40941">
        <ele>1033</ele>
        <time>2021-08-13T09:27:32.537Z</time>
      </trkpt>
      <trkpt lat="46.82159" lon="8.4094">
        <ele>1033</ele>
        <time>2021-08-13T09:27:33.536Z</time>
      </trkpt>
      <trkpt lat="46.82158" lon="8.40939">
        <ele>1033</ele>
        <time>2021-08-13T09:27:34.537Z</time>
      </trkpt>
      <trkpt lat="46.82157" lon="8.40938">
        <ele>1032</ele>
        <time>2021-08-13T09:27:35.537Z</time>
      </trkpt>
      <trkpt lat="46.82157" lon="8.40938">
        <ele>1032</ele>
        <time>2021-08-13T09:27:36.537Z</time>
      </trkpt>
      <trkpt lat="46.82156" lon="8.40937">
        <ele>1032</ele>
        <time>2021-08-13T09:27:37.537Z</time>
      </trkpt>
      <trkpt lat="46.82155" lon="8.40936">
        <ele>1031</ele>
        <time>2021-08-13T09:27:38.536Z</time>
      </trkpt>
      <trkpt lat="46.82154" lon="8.40936">
        <ele>1031</ele>
        <time>2021-08-13T09:27:39.537Z</time>
      </trkpt>
      <trkpt lat="46.82153" lon="8.40935">
        <ele>1031</ele>
        <time>2021-08-13T09:27:40.537Z</time>
      </trkpt>
      <trkpt lat="46.82152" lon="8.40934">
        <ele>1031</ele>
        <time>2021-08-13T09:27:41.536Z</time>
      </trkpt>
      <trkpt lat="46.82151" lon="8.40933">
        <ele>1031</ele>
        <time>2021-08-13T09:27:42.537Z</time>
      </trkpt>
      <trkpt lat="46.8215" lon="8.40932">
        <ele>1031</ele>
        <time>2021-08-13T09:27:43.536Z</time>
      </trkpt>
      <trkpt lat="46.82149" lon="8.40932">
        <ele>1031</ele>
        <time>2021-08-13T09:27:44.536Z</time>
      </trkpt>
      <trkpt lat="46.82148" lon="8.40931">
        <ele>1030</ele>
        <time>2021-08-13T09:27:45.537Z</time>
      </trkpt>
      <trkpt lat="46.82147" lon="8.4093">
        <ele>1030</ele>
        <time>2021-08-13T09:27:46.536Z</time>
      </trkpt>
      <trkpt lat="46.82146" lon="8.40929">
        <ele>1030</ele>
        <time>2021-08-13T09:27:47.536Z</time>
      </trkpt>
      <trkpt lat="46.82145" lon="8.40928">
        <ele>1030</ele>
        <time>2021-08-13T09:27:48.536Z</time>
      </trkpt>
      <trkpt lat="46.82144" lon="8.40927">
        <ele>1030</ele>
        <time>2021-08-13T09:27:49.537Z</time>
      </trkpt>
      <trkpt lat="46.82143" lon="8.40927">
        <ele>1030</ele>
        <time>2021-08-13T09:27:50.537Z</time>
      </trkpt>
      <trkpt lat="46.82141" lon="8.40926">
        <ele>1030</ele>
        <time>2021-08-13T09:27:51.537Z</time>
      </trkpt>
      <trkpt lat="46.8214" lon="8.40926">
        <ele>1030</ele>
        <time>2021-08-13T09:27:52.537Z</time>
      </trkpt>
      <trkpt lat="46.82139" lon="8.40925">
        <ele>1030</ele>
        <time>2021-08-13T09:27:53.536Z</time>
      </trkpt>
      <trkpt lat="46.82138" lon="8.40924">
        <ele>1030</ele>
        <time>2021-08-13T09:27:54.536Z</time>
      </trkpt>
      <trkpt lat="46.82137" lon="8.40923">
        <ele>1030</ele>
        <time>2021-08-13T09:27:55.537Z</time>
      </trkpt>
      <trkpt lat="46.82136" lon="8.40923">
        <ele>1030</ele>
        <time>2021-08-13T09:27:56.537Z</time>
      </trkpt>
      <trkpt lat="46.82134" lon="8.40922">
        <ele>1031</ele>
        <time>2021-08-13T09:27:57.536Z</time>
      </trkpt>
      <trkpt lat="46.82133" lon="8.4092">
        <ele>1031</ele>
        <time>2021-08-13T09:27:58.537Z</time>
      </trkpt>
      <trkpt lat="46.82132" lon="8.40919">
        <ele>1031</ele>
        <time>2021-08-13T09:27:59.536Z</time>
      </trkpt>
      <trkpt lat="46.82131" lon="8.40919">
        <ele>1031</ele>
        <time>2021-08-13T09:28:00.537Z</time>
      </trkpt>
      <trkpt lat="46.82131" lon="8.40918">
        <ele>1031</ele>
        <time>2021-08-13T09:28:01.536Z</time>
      </trkpt>
      <trkpt lat="46.8213" lon="8.40918">
        <ele>1030</ele>
        <time>2021-08-13T09:28:02.537Z</time>
      </trkpt>
      <trkpt lat="46.8213" lon="8.40917">
        <ele>1029</ele>
        <time>2021-08-13T09:28:03.537Z</time>
      </trkpt>
      <trkpt lat="46.82129" lon="8.40915">
        <ele>1029</ele>
        <time>2021-08-13T09:28:04.536Z</time>
      </trkpt>
      <trkpt lat="46.82128" lon="8.40914">
        <ele>1028</ele>
        <time>2021-08-13T09:28:05.537Z</time>
      </trkpt>
      <trkpt lat="46.82127" lon="8.40912">
        <ele>1027</ele>
        <time>2021-08-13T09:28:06.537Z</time>
      </trkpt>
      <trkpt lat="46.82126" lon="8.40911">
        <ele>1026</ele>
        <time>2021-08-13T09:28:07.537Z</time>
      </trkpt>
      <trkpt lat="46.82125" lon="8.4091">
        <ele>1026</ele>
        <time>2021-08-13T09:28:08.537Z</time>
      </trkpt>
      <trkpt lat="46.82125" lon="8.40909">
        <ele>1025</ele>
        <time>2021-08-13T09:28:09.536Z</time>
      </trkpt>
      <trkpt lat="46.82125" lon="8.40908">
        <ele>1024</ele>
        <time>2021-08-13T09:28:10.537Z</time>
      </trkpt>
      <trkpt lat="46.82124" lon="8.40906">
        <ele>1023</ele>
        <time>2021-08-13T09:28:11.537Z</time>
      </trkpt>
      <trkpt lat="46.82123" lon="8.40906">
        <ele>1023</ele>
        <time>2021-08-13T09:28:12.537Z</time>
      </trkpt>
      <trkpt lat="46.82123" lon="8.40904">
        <ele>1022</ele>
        <time>2021-08-13T09:28:13.536Z</time>
      </trkpt>
      <trkpt lat="46.82123" lon="8.40903">
        <ele>1022</ele>
        <time>2021-08-13T09:28:14.536Z</time>
      </trkpt>
      <trkpt lat="46.82123" lon="8.40901">
        <ele>1021</ele>
        <time>2021-08-13T09:28:15.537Z</time>
      </trkpt>
      <trkpt lat="46.82122" lon="8.40899">
        <ele>1020</ele>
        <time>2021-08-13T09:28:16.537Z</time>
      </trkpt>
      <trkpt lat="46.82121" lon="8.40897">
        <ele>1020</ele>
        <time>2021-08-13T09:28:17.536Z</time>
      </trkpt>
      <trkpt lat="46.82121" lon="8.40895">
        <ele>1019</ele>
        <time>2021-08-13T09:28:18.536Z</time>
      </trkpt>
      <trkpt lat="46.8212" lon="8.40894">
        <ele>1018</ele>
        <time>2021-08-13T09:28:19.537Z</time>
      </trkpt>
      <trkpt lat="46.82118" lon="8.40893">
        <ele>1018</ele>
        <time>2021-08-13T09:28:20.537Z</time>
      </trkpt>
      <trkpt lat="46.82117" lon="8.40891">
        <ele>1018</ele>
        <time>2021-08-13T09:28:21.536Z</time>
      </trkpt>
      <trkpt lat="46.82116" lon="8.4089">
        <ele>1017</ele>
        <time>2021-08-13T09:28:22.536Z</time>
      </trkpt>
      <trkpt lat="46.82115" lon="8.40888">
        <ele>1018</ele>
        <time>2021-08-13T09:28:23.537Z</time>
      </trkpt>
      <trkpt lat="46.82114" lon="8.40888">
        <ele>1018</ele>
        <time>2021-08-13T09:28:24.537Z</time>
      </trkpt>
      <trkpt lat="46.82114" lon="8.40886">
        <ele>1018</ele>
        <time>2021-08-13T09:28:25.537Z</time>
      </trkpt>
      <trkpt lat="46.82113" lon="8.40885">
        <ele>1019</ele>
        <time>2021-08-13T09:28:26.537Z</time>
      </trkpt>
      <trkpt lat="46.82112" lon="8.40884">
        <ele>1019</ele>
        <time>2021-08-13T09:28:27.537Z</time>
      </trkpt>
      <trkpt lat="46.82111" lon="8.40882">
        <ele>1019</ele>
        <time>2021-08-13T09:28:28.537Z</time>
      </trkpt>
      <trkpt lat="46.82111" lon="8.40881">
        <ele>1018</ele>
        <time>2021-08-13T09:28:29.537Z</time>
      </trkpt>
      <trkpt lat="46.8211" lon="8.40879">
        <ele>1018</ele>
        <time>2021-08-13T09:28:30.537Z</time>
      </trkpt>
      <trkpt lat="46.82109" lon="8.40878">
        <ele>1018</ele>
        <time>2021-08-13T09:28:31.536Z</time>
      </trkpt>
      <trkpt lat="46.82108" lon="8.40876">
        <ele>1017</ele>
        <time>2021-08-13T09:28:32.536Z</time>
      </trkpt>
      <trkpt lat="46.82108" lon="8.40875">
        <ele>1017</ele>
        <time>2021-08-13T09:28:33.537Z</time>
      </trkpt>
      <trkpt lat="46.82108" lon="8.40874">
        <ele>1017</ele>
        <time>2021-08-13T09:28:34.537Z</time>
      </trkpt>
      <trkpt lat="46.82107" lon="8.40872">
        <ele>1016</ele>
        <time>2021-08-13T09:28:35.536Z</time>
      </trkpt>
      <trkpt lat="46.82107" lon="8.40871">
        <ele>1016</ele>
        <time>2021-08-13T09:28:36.537Z</time>
      </trkpt>
      <trkpt lat="46.82106" lon="8.4087">
        <ele>1015</ele>
        <time>2021-08-13T09:28:37.537Z</time>
      </trkpt>
      <trkpt lat="46.82106" lon="8.40869">
        <ele>1015</ele>
        <time>2021-08-13T09:28:38.537Z</time>
      </trkpt>
      <trkpt lat="46.82106" lon="8.40868">
        <ele>1014</ele>
        <time>2021-08-13T09:28:39.536Z</time>
      </trkpt>
      <trkpt lat="46.82106" lon="8.40867">
        <ele>1014</ele>
        <time>2021-08-13T09:28:40.537Z</time>
      </trkpt>
      <trkpt lat="46.82106" lon="8.40866">
        <ele>1013</ele>
        <time>2021-08-13T09:28:41.536Z</time>
      </trkpt>
      <trkpt lat="46.82106" lon="8.40865">
        <ele>1013</ele>
        <time>2021-08-13T09:28:42.537Z</time>
      </trkpt>
      <trkpt lat="46.82107" lon="8.40864">
        <ele>1013</ele>
        <time>2021-08-13T09:28:43.537Z</time>
      </trkpt>
      <trkpt lat="46.82107" lon="8.40863">
        <ele>1013</ele>
        <time>2021-08-13T09:28:44.536Z</time>
      </trkpt>
      <trkpt lat="46.82108" lon="8.40861">
        <ele>1013</ele>
        <time>2021-08-13T09:28:45.536Z</time>
      </trkpt>
      <trkpt lat="46.82109" lon="8.4086">
        <ele>1013</ele>
        <time>2021-08-13T09:28:46.536Z</time>
      </trkpt>
      <trkpt lat="46.82109" lon="8.40858">
        <ele>1013</ele>
        <time>2021-08-13T09:28:47.537Z</time>
      </trkpt>
      <trkpt lat="46.82108" lon="8.40856">
        <ele>1014</ele>
        <time>2021-08-13T09:28:48.537Z</time>
      </trkpt>
      <trkpt lat="46.82108" lon="8.40854">
        <ele>1015</ele>
        <time>2021-08-13T09:28:49.536Z</time>
      </trkpt>
      <trkpt lat="46.82108" lon="8.40852">
        <ele>1015</ele>
        <time>2021-08-13T09:28:50.536Z</time>
      </trkpt>
      <trkpt lat="46.82107" lon="8.4085">
        <ele>1016</ele>
        <time>2021-08-13T09:28:51.537Z</time>
      </trkpt>
      <trkpt lat="46.82107" lon="8.40849">
        <ele>1017</ele>
        <time>2021-08-13T09:28:52.536Z</time>
      </trkpt>
      <trkpt lat="46.82107" lon="8.40848">
        <ele>1017</ele>
        <time>2021-08-13T09:28:53.537Z</time>
      </trkpt>
      <trkpt lat="46.82107" lon="8.40846">
        <ele>1018</ele>
        <time>2021-08-13T09:28:54.537Z</time>
      </trkpt>
      <trkpt lat="46.82107" lon="8.40844">
        <ele>1018</ele>
        <time>2021-08-13T09:28:55.537Z</time>
      </trkpt>
      <trkpt lat="46.82108" lon="8.40842">
        <ele>1019</ele>
        <time>2021-08-13T09:28:56.536Z</time>
      </trkpt>
      <trkpt lat="46.82109" lon="8.40841">
        <ele>1019</ele>
        <time>2021-08-13T09:28:57.537Z</time>
      </trkpt>
      <trkpt lat="46.82109" lon="8.4084">
        <ele>1019</ele>
        <time>2021-08-13T09:28:58.536Z</time>
      </trkpt>
      <trkpt lat="46.82109" lon="8.40839">
        <ele>1020</ele>
        <time>2021-08-13T09:28:59.537Z</time>
      </trkpt>
      <trkpt lat="46.8211" lon="8.40839">
        <ele>1020</ele>
        <time>2021-08-13T09:29:00.537Z</time>
      </trkpt>
      <trkpt lat="46.8211" lon="8.40837">
        <ele>1020</ele>
        <time>2021-08-13T09:29:01.537Z</time>
      </trkpt>
      <trkpt lat="46.8211" lon="8.40836">
        <ele>1020</ele>
        <time>2021-08-13T09:29:02.537Z</time>
      </trkpt>
      <trkpt lat="46.8211" lon="8.40836">
        <ele>1020</ele>
        <time>2021-08-13T09:29:03.537Z</time>
      </trkpt>
      <trkpt lat="46.82109" lon="8.40835">
        <ele>1020</ele>
        <time>2021-08-13T09:29:04.536Z</time>
      </trkpt>
      <trkpt lat="46.821" lon="8.40836">
        <ele>1021</ele>
        <time>2021-08-13T09:29:05.537Z</time>
      </trkpt>
      <trkpt lat="46.821" lon="8.40835">
        <ele>1021</ele>
        <time>2021-08-13T09:29:06.536Z</time>
      </trkpt>
      <trkpt lat="46.82101" lon="8.40834">
        <ele>1021</ele>
        <time>2021-08-13T09:29:07.536Z</time>
      </trkpt>
      <trkpt lat="46.82101" lon="8.40833">
        <ele>1021</ele>
        <time>2021-08-13T09:29:08.537Z</time>
      </trkpt>
      <trkpt lat="46.82102" lon="8.40832">
        <ele>1021</ele>
        <time>2021-08-13T09:29:09.537Z</time>
      </trkpt>
      <trkpt lat="46.82102" lon="8.40831">
        <ele>1021</ele>
        <time>2021-08-13T09:29:10.537Z</time>
      </trkpt>
      <trkpt lat="46.82102" lon="8.4083">
        <ele>1020</ele>
        <time>2021-08-13T09:29:11.537Z</time>
      </trkpt>
      <trkpt lat="46.82103" lon="8.40829">
        <ele>1020</ele>
        <time>2021-08-13T09:29:12.537Z</time>
      </trkpt>
      <trkpt lat="46.82103" lon="8.40828">
        <ele>1020</ele>
        <time>2021-08-13T09:29:13.537Z</time>
      </trkpt>
      <trkpt lat="46.82103" lon="8.40827">
        <ele>1021</ele>
        <time>2021-08-13T09:29:14.536Z</time>
      </trkpt>
      <trkpt lat="46.82104" lon="8.40826">
        <ele>1021</ele>
        <time>2021-08-13T09:29:15.537Z</time>
      </trkpt>
      <trkpt lat="46.82105" lon="8.40825">
        <ele>1021</ele>
        <time>2021-08-13T09:29:16.537Z</time>
      </trkpt>
      <trkpt lat="46.82105" lon="8.40824">
        <ele>1021</ele>
        <time>2021-08-13T09:29:17.537Z</time>
      </trkpt>
      <trkpt lat="46.82106" lon="8.40822">
        <ele>1021</ele>
        <time>2021-08-13T09:29:18.537Z</time>
      </trkpt>
      <trkpt lat="46.82107" lon="8.40819">
        <ele>1022</ele>
        <time>2021-08-13T09:29:19.537Z</time>
      </trkpt>
      <trkpt lat="46.82108" lon="8.40816">
        <ele>1022</ele>
        <time>2021-08-13T09:29:20.537Z</time>
      </trkpt>
      <trkpt lat="46.82108" lon="8.40814">
        <ele>1022</ele>
        <time>2021-08-13T09:29:21.537Z</time>
      </trkpt>
      <trkpt lat="46.8211" lon="8.40812">
        <ele>1021</ele>
        <time>2021-08-13T09:29:22.536Z</time>
      </trkpt>
      <trkpt lat="46.8211" lon="8.40811">
        <ele>1021</ele>
        <time>2021-08-13T09:29:23.536Z</time>
      </trkpt>
      <trkpt lat="46.8211" lon="8.40811">
        <ele>1021</ele>
        <time>2021-08-13T09:29:24.536Z</time>
      </trkpt>
      <trkpt lat="46.8211" lon="8.4081">
        <ele>1020</ele>
        <time>2021-08-13T09:29:25.537Z</time>
      </trkpt>
      <trkpt lat="46.82111" lon="8.40809">
        <ele>1019</ele>
        <time>2021-08-13T09:29:26.537Z</time>
      </trkpt>
      <trkpt lat="46.82111" lon="8.40808">
        <ele>1018</ele>
        <time>2021-08-13T09:29:27.536Z</time>
      </trkpt>
      <trkpt lat="46.82111" lon="8.40807">
        <ele>1018</ele>
        <time>2021-08-13T09:29:28.537Z</time>
      </trkpt>
      <trkpt lat="46.8211" lon="8.40806">
        <ele>1017</ele>
        <time>2021-08-13T09:29:29.536Z</time>
      </trkpt>
      <trkpt lat="46.8211" lon="8.40804">
        <ele>1017</ele>
        <time>2021-08-13T09:29:30.536Z</time>
      </trkpt>
      <trkpt lat="46.8211" lon="8.40803">
        <ele>1016</ele>
        <time>2021-08-13T09:29:31.537Z</time>
      </trkpt>
      <trkpt lat="46.8211" lon="8.40802">
        <ele>1016</ele>
        <time>2021-08-13T09:29:32.537Z</time>
      </trkpt>
      <trkpt lat="46.82109" lon="8.40801">
        <ele>1016</ele>
        <time>2021-08-13T09:29:33.537Z</time>
      </trkpt>
      <trkpt lat="46.82109" lon="8.40799">
        <ele>1016</ele>
        <time>2021-08-13T09:29:34.537Z</time>
      </trkpt>
      <trkpt lat="46.82109" lon="8.40798">
        <ele>1016</ele>
        <time>2021-08-13T09:29:35.537Z</time>
      </trkpt>
      <trkpt lat="46.82109" lon="8.40796">
        <ele>1016</ele>
        <time>2021-08-13T09:29:36.536Z</time>
      </trkpt>
      <trkpt lat="46.82109" lon="8.40794">
        <ele>1016</ele>
        <time>2021-08-13T09:29:37.537Z</time>
      </trkpt>
      <trkpt lat="46.8211" lon="8.40793">
        <ele>1016</ele>
        <time>2021-08-13T09:29:38.537Z</time>
      </trkpt>
      <trkpt lat="46.8211" lon="8.40791">
        <ele>1017</ele>
        <time>2021-08-13T09:29:39.537Z</time>
      </trkpt>
      <trkpt lat="46.8211" lon="8.4079">
        <ele>1017</ele>
        <time>2021-08-13T09:29:40.536Z</time>
      </trkpt>
      <trkpt lat="46.8211" lon="8.40789">
        <ele>1017</ele>
        <time>2021-08-13T09:29:41.536Z</time>
      </trkpt>
      <trkpt lat="46.82111" lon="8.40788">
        <ele>1018</ele>
        <time>2021-08-13T09:29:42.536Z</time>
      </trkpt>
      <trkpt lat="46.82111" lon="8.40787">
        <ele>1018</ele>
        <time>2021-08-13T09:29:43.536Z</time>
      </trkpt>
      <trkpt lat="46.82111" lon="8.40786">
        <ele>1018</ele>
        <time>2021-08-13T09:29:44.537Z</time>
      </trkpt>
      <trkpt lat="46.82111" lon="8.40784">
        <ele>1019</ele>
        <time>2021-08-13T09:29:45.537Z</time>
      </trkpt>
      <trkpt lat="46.82111" lon="8.40783">
        <ele>1020</ele>
        <time>2021-08-13T09:29:46.537Z</time>
      </trkpt>
      <trkpt lat="46.82112" lon="8.40782">
        <ele>1020</ele>
        <time>2021-08-13T09:29:47.537Z</time>
      </trkpt>
      <trkpt lat="46.82114" lon="8.40781">
        <ele>1021</ele>
        <time>2021-08-13T09:29:48.537Z</time>
      </trkpt>
      <trkpt lat="46.82115" lon="8.4078">
        <ele>1021</ele>
        <time>2021-08-13T09:29:49.537Z</time>
      </trkpt>
      <trkpt lat="46.82117" lon="8.40779">
        <ele>1022</ele>
        <time>2021-08-13T09:29:50.537Z</time>
      </trkpt>
      <trkpt lat="46.82118" lon="8.40778">
        <ele>1022</ele>
        <time>2021-08-13T09:29:51.537Z</time>
      </trkpt>
      <trkpt lat="46.82119" lon="8.40776">
        <ele>1022</ele>
        <time>2021-08-13T09:29:52.537Z</time>
      </trkpt>
      <trkpt lat="46.82119" lon="8.40775">
        <ele>1022</ele>
        <time>2021-08-13T09:29:53.537Z</time>
      </trkpt>
      <trkpt lat="46.8212" lon="8.40774">
        <ele>1022</ele>
        <time>2021-08-13T09:29:54.537Z</time>
      </trkpt>
      <trkpt lat="46.82121" lon="8.40773">
        <ele>1022</ele>
        <time>2021-08-13T09:29:55.537Z</time>
      </trkpt>
      <trkpt lat="46.82121" lon="8.40773">
        <ele>1022</ele>
        <time>2021-08-13T09:29:56.536Z</time>
      </trkpt>
      <trkpt lat="46.82121" lon="8.40772">
        <ele>1022</ele>
        <time>2021-08-13T09:29:57.537Z</time>
      </trkpt>
      <trkpt lat="46.82122" lon="8.40772">
        <ele>1022</ele>
        <time>2021-08-13T09:29:58.536Z</time>
      </trkpt>
      <trkpt lat="46.82121" lon="8.40771">
        <ele>1022</ele>
        <time>2021-08-13T09:29:59.537Z</time>
      </trkpt>
      <trkpt lat="46.82121" lon="8.4077">
        <ele>1022</ele>
        <time>2021-08-13T09:30:00.537Z</time>
      </trkpt>
      <trkpt lat="46.8212" lon="8.40769">
        <ele>1022</ele>
        <time>2021-08-13T09:30:01.536Z</time>
      </trkpt>
      <trkpt lat="46.8212" lon="8.40768">
        <ele>1022</ele>
        <time>2021-08-13T09:30:02.537Z</time>
      </trkpt>
      <trkpt lat="46.8212" lon="8.40767">
        <ele>1022</ele>
        <time>2021-08-13T09:30:03.537Z</time>
      </trkpt>
      <trkpt lat="46.82121" lon="8.40765">
        <ele>1022</ele>
        <time>2021-08-13T09:30:04.536Z</time>
      </trkpt>
      <trkpt lat="46.82121" lon="8.40764">
        <ele>1022</ele>
        <time>2021-08-13T09:30:05.537Z</time>
      </trkpt>
      <trkpt lat="46.82121" lon="8.40762">
        <ele>1022</ele>
        <time>2021-08-13T09:30:06.537Z</time>
      </trkpt>
      <trkpt lat="46.8212" lon="8.4076">
        <ele>1022</ele>
        <time>2021-08-13T09:30:07.537Z</time>
      </trkpt>
      <trkpt lat="46.82121" lon="8.40758">
        <ele>1023</ele>
        <time>2021-08-13T09:30:08.537Z</time>
      </trkpt>
      <trkpt lat="46.82122" lon="8.40758">
        <ele>1023</ele>
        <time>2021-08-13T09:30:09.536Z</time>
      </trkpt>
      <trkpt lat="46.82123" lon="8.40756">
        <ele>1023</ele>
        <time>2021-08-13T09:30:10.537Z</time>
      </trkpt>
      <trkpt lat="46.82123" lon="8.40754">
        <ele>1023</ele>
        <time>2021-08-13T09:30:11.537Z</time>
      </trkpt>
      <trkpt lat="46.82124" lon="8.40753">
        <ele>1023</ele>
        <time>2021-08-13T09:30:12.537Z</time>
      </trkpt>
      <trkpt lat="46.82124" lon="8.40752">
        <ele>1023</ele>
        <time>2021-08-13T09:30:13.537Z</time>
      </trkpt>
      <trkpt lat="46.82125" lon="8.40751">
        <ele>1023</ele>
        <time>2021-08-13T09:30:14.537Z</time>
      </trkpt>
      <trkpt lat="46.82125" lon="8.4075">
        <ele>1023</ele>
        <time>2021-08-13T09:30:15.537Z</time>
      </trkpt>
      <trkpt lat="46.82125" lon="8.40748">
        <ele>1023</ele>
        <time>2021-08-13T09:30:16.537Z</time>
      </trkpt>
      <trkpt lat="46.82125" lon="8.40746">
        <ele>1023</ele>
        <time>2021-08-13T09:30:17.536Z</time>
      </trkpt>
      <trkpt lat="46.82125" lon="8.40745">
        <ele>1023</ele>
        <time>2021-08-13T09:30:18.537Z</time>
      </trkpt>
      <trkpt lat="46.82125" lon="8.40743">
        <ele>1023</ele>
        <time>2021-08-13T09:30:19.537Z</time>
      </trkpt>
      <trkpt lat="46.82125" lon="8.40742">
        <ele>1022</ele>
        <time>2021-08-13T09:30:20.537Z</time>
      </trkpt>
      <trkpt lat="46.82126" lon="8.40741">
        <ele>1022</ele>
        <time>2021-08-13T09:30:21.536Z</time>
      </trkpt>
      <trkpt lat="46.82126" lon="8.4074">
        <ele>1022</ele>
        <time>2021-08-13T09:30:22.537Z</time>
      </trkpt>
      <trkpt lat="46.82126" lon="8.40738">
        <ele>1021</ele>
        <time>2021-08-13T09:30:23.537Z</time>
      </trkpt>
      <trkpt lat="46.82126" lon="8.40737">
        <ele>1021</ele>
        <time>2021-08-13T09:30:24.537Z</time>
      </trkpt>
      <trkpt lat="46.82127" lon="8.40735">
        <ele>1020</ele>
        <time>2021-08-13T09:30:25.537Z</time>
      </trkpt>
      <trkpt lat="46.82128" lon="8.40733">
        <ele>1020</ele>
        <time>2021-08-13T09:30:26.537Z</time>
      </trkpt>
      <trkpt lat="46.82129" lon="8.40732">
        <ele>1021</ele>
        <time>2021-08-13T09:30:27.537Z</time>
      </trkpt>
      <trkpt lat="46.82129" lon="8.4073">
        <ele>1021</ele>
        <time>2021-08-13T09:30:28.537Z</time>
      </trkpt>
      <trkpt lat="46.82129" lon="8.40729">
        <ele>1021</ele>
        <time>2021-08-13T09:30:29.536Z</time>
      </trkpt>
      <trkpt lat="46.82129" lon="8.40727">
        <ele>1022</ele>
        <time>2021-08-13T09:30:30.537Z</time>
      </trkpt>
      <trkpt lat="46.8213" lon="8.40726">
        <ele>1022</ele>
        <time>2021-08-13T09:30:31.536Z</time>
      </trkpt>
      <trkpt lat="46.82131" lon="8.40724">
        <ele>1022</ele>
        <time>2021-08-13T09:30:32.537Z</time>
      </trkpt>
      <trkpt lat="46.82132" lon="8.40722">
        <ele>1022</ele>
        <time>2021-08-13T09:30:33.537Z</time>
      </trkpt>
      <trkpt lat="46.82132" lon="8.40721">
        <ele>1022</ele>
        <time>2021-08-13T09:30:34.536Z</time>
      </trkpt>
      <trkpt lat="46.82133" lon="8.40719">
        <ele>1022</ele>
        <time>2021-08-13T09:30:35.536Z</time>
      </trkpt>
      <trkpt lat="46.82133" lon="8.40718">
        <ele>1022</ele>
        <time>2021-08-13T09:30:36.537Z</time>
      </trkpt>
      <trkpt lat="46.82134" lon="8.40716">
        <ele>1022</ele>
        <time>2021-08-13T09:30:37.537Z</time>
      </trkpt>
      <trkpt lat="46.82134" lon="8.40714">
        <ele>1022</ele>
        <time>2021-08-13T09:30:38.536Z</time>
      </trkpt>
      <trkpt lat="46.82134" lon="8.40713">
        <ele>1022</ele>
        <time>2021-08-13T09:30:39.536Z</time>
      </trkpt>
      <trkpt lat="46.82134" lon="8.40712">
        <ele>1022</ele>
        <time>2021-08-13T09:30:40.536Z</time>
      </trkpt>
      <trkpt lat="46.82134" lon="8.4071">
        <ele>1022</ele>
        <time>2021-08-13T09:30:41.536Z</time>
      </trkpt>
      <trkpt lat="46.82135" lon="8.40709">
        <ele>1022</ele>
        <time>2021-08-13T09:30:42.537Z</time>
      </trkpt>
      <trkpt lat="46.82135" lon="8.40708">
        <ele>1022</ele>
        <time>2021-08-13T09:30:43.536Z</time>
      </trkpt>
      <trkpt lat="46.82135" lon="8.40707">
        <ele>1022</ele>
        <time>2021-08-13T09:30:44.536Z</time>
      </trkpt>
      <trkpt lat="46.82135" lon="8.40706">
        <ele>1022</ele>
        <time>2021-08-13T09:30:45.537Z</time>
      </trkpt>
      <trkpt lat="46.82136" lon="8.40705">
        <ele>1022</ele>
        <time>2021-08-13T09:30:46.536Z</time>
      </trkpt>
      <trkpt lat="46.82136" lon="8.40704">
        <ele>1022</ele>
        <time>2021-08-13T09:30:47.537Z</time>
      </trkpt>
      <trkpt lat="46.82137" lon="8.40702">
        <ele>1022</ele>
        <time>2021-08-13T09:30:48.537Z</time>
      </trkpt>
      <trkpt lat="46.82137" lon="8.40701">
        <ele>1023</ele>
        <time>2021-08-13T09:30:49.536Z</time>
      </trkpt>
      <trkpt lat="46.82138" lon="8.407">
        <ele>1023</ele>
        <time>2021-08-13T09:30:50.537Z</time>
      </trkpt>
      <trkpt lat="46.82139" lon="8.40699">
        <ele>1024</ele>
        <time>2021-08-13T09:30:51.537Z</time>
      </trkpt>
      <trkpt lat="46.8214" lon="8.40698">
        <ele>1024</ele>
        <time>2021-08-13T09:30:52.537Z</time>
      </trkpt>
      <trkpt lat="46.82141" lon="8.40695">
        <ele>1025</ele>
        <time>2021-08-13T09:30:53.536Z</time>
      </trkpt>
      <trkpt lat="46.82141" lon="8.40693">
        <ele>1025</ele>
        <time>2021-08-13T09:30:54.537Z</time>
      </trkpt>
      <trkpt lat="46.82141" lon="8.40692">
        <ele>1026</ele>
        <time>2021-08-13T09:30:55.537Z</time>
      </trkpt>
      <trkpt lat="46.82141" lon="8.40692">
        <ele>1026</ele>
        <time>2021-08-13T09:30:56.537Z</time>
      </trkpt>
      <trkpt lat="46.82141" lon="8.40692">
        <ele>1026</ele>
        <time>2021-08-13T09:30:57.537Z</time>
      </trkpt>
      <trkpt lat="46.8214" lon="8.40692">
        <ele>1026</ele>
        <time>2021-08-13T09:30:58.537Z</time>
      </trkpt>
      <trkpt lat="46.82139" lon="8.40691">
        <ele>1026</ele>
        <time>2021-08-13T09:30:59.537Z</time>
      </trkpt>
      <trkpt lat="46.82139" lon="8.4069">
        <ele>1026</ele>
        <time>2021-08-13T09:31:00.536Z</time>
      </trkpt>
      <trkpt lat="46.82139" lon="8.40688">
        <ele>1026</ele>
        <time>2021-08-13T09:31:01.536Z</time>
      </trkpt>
      <trkpt lat="46.8214" lon="8.40687">
        <ele>1026</ele>
        <time>2021-08-13T09:31:02.536Z</time>
      </trkpt>
      <trkpt lat="46.8214" lon="8.40686">
        <ele>1026</ele>
        <time>2021-08-13T09:31:03.536Z</time>
      </trkpt>
      <trkpt lat="46.8214" lon="8.40685">
        <ele>1026</ele>
        <time>2021-08-13T09:31:04.537Z</time>
      </trkpt>
      <trkpt lat="46.8214" lon="8.40684">
        <ele>1026</ele>
        <time>2021-08-13T09:31:05.537Z</time>
      </trkpt>
      <trkpt lat="46.8214" lon="8.40683">
        <ele>1025</ele>
        <time>2021-08-13T09:31:06.537Z</time>
      </trkpt>
      <trkpt lat="46.82139" lon="8.40682">
        <ele>1025</ele>
        <time>2021-08-13T09:31:07.537Z</time>
      </trkpt>
      <trkpt lat="46.82138" lon="8.40681">
        <ele>1024</ele>
        <time>2021-08-13T09:31:08.537Z</time>
      </trkpt>
      <trkpt lat="46.82139" lon="8.40679">
        <ele>1024</ele>
        <time>2021-08-13T09:31:09.537Z</time>
      </trkpt>
      <trkpt lat="46.8214" lon="8.40676">
        <ele>1023</ele>
        <time>2021-08-13T09:31:10.537Z</time>
      </trkpt>
      <trkpt lat="46.82141" lon="8.40674">
        <ele>1023</ele>
        <time>2021-08-13T09:31:11.537Z</time>
      </trkpt>
      <trkpt lat="46.82141" lon="8.40671">
        <ele>1022</ele>
        <time>2021-08-13T09:31:12.536Z</time>
      </trkpt>
      <trkpt lat="46.82141" lon="8.40669">
        <ele>1022</ele>
        <time>2021-08-13T09:31:13.536Z</time>
      </trkpt>
      <trkpt lat="46.82142" lon="8.40668">
        <ele>1022</ele>
        <time>2021-08-13T09:31:14.537Z</time>
      </trkpt>
      <trkpt lat="46.82142" lon="8.40666">
        <ele>1021</ele>
        <time>2021-08-13T09:31:15.537Z</time>
      </trkpt>
      <trkpt lat="46.82141" lon="8.40665">
        <ele>1021</ele>
        <time>2021-08-13T09:31:16.536Z</time>
      </trkpt>
      <trkpt lat="46.82139" lon="8.40664">
        <ele>1021</ele>
        <time>2021-08-13T09:31:17.537Z</time>
      </trkpt>
      <trkpt lat="46.82139" lon="8.40663">
        <ele>1021</ele>
        <time>2021-08-13T09:31:18.537Z</time>
      </trkpt>
      <trkpt lat="46.82139" lon="8.40663">
        <ele>1020</ele>
        <time>2021-08-13T09:31:19.536Z</time>
      </trkpt>
      <trkpt lat="46.8214" lon="8.40662">
        <ele>1020</ele>
        <time>2021-08-13T09:31:20.537Z</time>
      </trkpt>
      <trkpt lat="46.82141" lon="8.4066">
        <ele>1020</ele>
        <time>2021-08-13T09:31:21.536Z</time>
      </trkpt>
      <trkpt lat="46.82141" lon="8.40659">
        <ele>1020</ele>
        <time>2021-08-13T09:31:22.536Z</time>
      </trkpt>
      <trkpt lat="46.8214" lon="8.40657">
        <ele>1019</ele>
        <time>2021-08-13T09:31:23.537Z</time>
      </trkpt>
      <trkpt lat="46.8214" lon="8.40655">
        <ele>1019</ele>
        <time>2021-08-13T09:31:24.537Z</time>
      </trkpt>
      <trkpt lat="46.8214" lon="8.40654">
        <ele>1019</ele>
        <time>2021-08-13T09:31:25.537Z</time>
      </trkpt>
      <trkpt lat="46.82141" lon="8.40652">
        <ele>1018</ele>
        <time>2021-08-13T09:31:26.536Z</time>
      </trkpt>
      <trkpt lat="46.82141" lon="8.40651">
        <ele>1018</ele>
        <time>2021-08-13T09:31:27.537Z</time>
      </trkpt>
      <trkpt lat="46.82141" lon="8.4065">
        <ele>1018</ele>
        <time>2021-08-13T09:31:28.537Z</time>
      </trkpt>
      <trkpt lat="46.82141" lon="8.40648">
        <ele>1018</ele>
        <time>2021-08-13T09:31:29.537Z</time>
      </trkpt>
      <trkpt lat="46.82141" lon="8.40648">
        <ele>1017</ele>
        <time>2021-08-13T09:31:30.536Z</time>
      </trkpt>
      <trkpt lat="46.82141" lon="8.40647">
        <ele>1017</ele>
        <time>2021-08-13T09:31:31.537Z</time>
      </trkpt>
      <trkpt lat="46.82142" lon="8.40647">
        <ele>1017</ele>
        <time>2021-08-13T09:31:32.537Z</time>
      </trkpt>
      <trkpt lat="46.82142" lon="8.40647">
        <ele>1017</ele>
        <time>2021-08-13T09:31:33.536Z</time>
      </trkpt>
      <trkpt lat="46.82143" lon="8.40646">
        <ele>1017</ele>
        <time>2021-08-13T09:31:34.536Z</time>
      </trkpt>
      <trkpt lat="46.82144" lon="8.40645">
        <ele>1018</ele>
        <time>2021-08-13T09:31:35.536Z</time>
      </trkpt>
      <trkpt lat="46.82144" lon="8.40645">
        <ele>1018</ele>
        <time>2021-08-13T09:31:36.536Z</time>
      </trkpt>
      <trkpt lat="46.82145" lon="8.40645">
        <ele>1018</ele>
        <time>2021-08-13T09:31:37.536Z</time>
      </trkpt>
      <trkpt lat="46.82145" lon="8.40645">
        <ele>1018</ele>
        <time>2021-08-13T09:31:38.536Z</time>
      </trkpt>
      <trkpt lat="46.82146" lon="8.40645">
        <ele>1017</ele>
        <time>2021-08-13T09:31:39.536Z</time>
      </trkpt>
      <trkpt lat="46.82146" lon="8.40644">
        <ele>1017</ele>
        <time>2021-08-13T09:31:40.537Z</time>
      </trkpt>
      <trkpt lat="46.82145" lon="8.40645">
        <ele>1016</ele>
        <time>2021-08-13T09:31:41.538Z</time>
      </trkpt>
      <trkpt lat="46.82145" lon="8.40645">
        <ele>1016</ele>
        <time>2021-08-13T09:31:42.538Z</time>
      </trkpt>
      <trkpt lat="46.82145" lon="8.40645">
        <ele>1016</ele>
        <time>2021-08-13T09:31:43.537Z</time>
      </trkpt>
      <trkpt lat="46.82146" lon="8.40646">
        <ele>1016</ele>
        <time>2021-08-13T09:31:44.537Z</time>
      </trkpt>
      <trkpt lat="46.82146" lon="8.40646">
        <ele>1016</ele>
        <time>2021-08-13T09:31:45.537Z</time>
      </trkpt>
      <trkpt lat="46.82147" lon="8.40646">
        <ele>1016</ele>
        <time>2021-08-13T09:31:46.537Z</time>
      </trkpt>
      <trkpt lat="46.82147" lon="8.40645">
        <ele>1015</ele>
        <time>2021-08-13T09:31:47.537Z</time>
      </trkpt>
      <trkpt lat="46.82146" lon="8.40643">
        <ele>1015</ele>
        <time>2021-08-13T09:31:48.537Z</time>
      </trkpt>
      <trkpt lat="46.82146" lon="8.40642">
        <ele>1015</ele>
        <time>2021-08-13T09:31:49.537Z</time>
      </trkpt>
      <trkpt lat="46.82146" lon="8.40641">
        <ele>1015</ele>
        <time>2021-08-13T09:31:50.537Z</time>
      </trkpt>
      <trkpt lat="46.82146" lon="8.4064">
        <ele>1015</ele>
        <time>2021-08-13T09:31:51.537Z</time>
      </trkpt>
      <trkpt lat="46.82146" lon="8.4064">
        <ele>1015</ele>
        <time>2021-08-13T09:31:52.537Z</time>
      </trkpt>
      <trkpt lat="46.82146" lon="8.4064">
        <ele>1015</ele>
        <time>2021-08-13T09:31:53.538Z</time>
      </trkpt>
      <trkpt lat="46.82145" lon="8.40641">
        <ele>1016</ele>
        <time>2021-08-13T09:31:54.537Z</time>
      </trkpt>
      <trkpt lat="46.82146" lon="8.40642">
        <ele>1016</ele>
        <time>2021-08-13T09:31:55.537Z</time>
      </trkpt>
      <trkpt lat="46.82146" lon="8.40642">
        <ele>1016</ele>
        <time>2021-08-13T09:31:56.537Z</time>
      </trkpt>
      <trkpt lat="46.82147" lon="8.40643">
        <ele>1016</ele>
        <time>2021-08-13T09:31:57.538Z</time>
      </trkpt>
      <trkpt lat="46.82147" lon="8.40644">
        <ele>1016</ele>
        <time>2021-08-13T09:31:58.537Z</time>
      </trkpt>
      <trkpt lat="46.82146" lon="8.40643">
        <ele>1016</ele>
        <time>2021-08-13T09:31:59.538Z</time>
      </trkpt>
      <trkpt lat="46.82146" lon="8.40643">
        <ele>1016</ele>
        <time>2021-08-13T09:32:00.537Z</time>
      </trkpt>
      <trkpt lat="46.82146" lon="8.40643">
        <ele>1016</ele>
        <time>2021-08-13T09:32:01.537Z</time>
      </trkpt>
      <trkpt lat="46.82147" lon="8.40644">
        <ele>1016</ele>
        <time>2021-08-13T09:32:02.539Z</time>
      </trkpt>
      <trkpt lat="46.82148" lon="8.40644">
        <ele>1016</ele>
        <time>2021-08-13T09:32:03.539Z</time>
      </trkpt>
    </trkseg>
  </trk>
</gpx>